<?xml version="1.0" encoding="UTF-8" standalone="no" ?>
<gpx xmlns="http://www.topografix.com/GPX/1/1" xmlns:xsi="http://www.w3.org/2001/XMLSchema-instance" xsi:schemaLocation="http://www.topografix.com/GPX/1/1 http://www.topografix.com/GPX/1/1/gpx.xsd" version="1.1" creator="VisuGPX - https://www.visugpx.com">
  <metadata>
    <name>French-divide 2021</name>
  </metadata>
  <trk>
    <name><![CDATA[01 FD]]></name>
    <trkseg>
      <trkpt lat="51.07048" lon="2.516">
        <ele>7.35</ele>
        <time>2021-08-07T05:34:46Z</time>
      </trkpt>
      <trkpt lat="51.07046" lon="2.51597">
        <ele>7.35</ele>
        <time>2021-08-07T05:34:47Z</time>
      </trkpt>
      <trkpt lat="51.07045" lon="2.51591">
        <ele>7.35</ele>
        <time>2021-08-07T05:34:48Z</time>
      </trkpt>
      <trkpt lat="51.07045" lon="2.51586">
        <ele>7.35</ele>
        <time>2021-08-07T05:34:49Z</time>
      </trkpt>
      <trkpt lat="51.07044" lon="2.5158">
        <ele>7.35</ele>
        <time>2021-08-07T05:34:50Z</time>
      </trkpt>
      <trkpt lat="51.07036" lon="2.51513">
        <ele>7.35</ele>
        <time>2021-08-07T05:34:59Z</time>
      </trkpt>
      <trkpt lat="51.07025" lon="2.51427">
        <ele>7.35</ele>
        <time>2021-08-07T05:35:09Z</time>
      </trkpt>
      <trkpt lat="51.07013" lon="2.51319">
        <ele>7.35</ele>
        <time>2021-08-07T05:35:21Z</time>
      </trkpt>
      <trkpt lat="51.0701" lon="2.51301">
        <ele>7.35</ele>
        <time>2021-08-07T05:35:23Z</time>
      </trkpt>
      <trkpt lat="51.07008" lon="2.51292">
        <ele>7.35</ele>
        <time>2021-08-07T05:35:24Z</time>
      </trkpt>
      <trkpt lat="51.07005" lon="2.51283">
        <ele>7.35</ele>
        <time>2021-08-07T05:35:25Z</time>
      </trkpt>
      <trkpt lat="51.06987" lon="2.51221">
        <ele>8.79</ele>
        <time>2021-08-07T05:35:33Z</time>
      </trkpt>
      <trkpt lat="51.06977" lon="2.51186">
        <ele>8.79</ele>
        <time>2021-08-07T05:35:37Z</time>
      </trkpt>
      <trkpt lat="51.06974" lon="2.51179">
        <ele>8.79</ele>
        <time>2021-08-07T05:35:38Z</time>
      </trkpt>
      <trkpt lat="51.06971" lon="2.51173">
        <ele>8.79</ele>
        <time>2021-08-07T05:35:39Z</time>
      </trkpt>
      <trkpt lat="51.06967" lon="2.51166">
        <ele>8.79</ele>
        <time>2021-08-07T05:35:40Z</time>
      </trkpt>
      <trkpt lat="51.06963" lon="2.51157">
        <ele>8.79</ele>
        <time>2021-08-07T05:35:41Z</time>
      </trkpt>
      <trkpt lat="51.06961" lon="2.51148">
        <ele>8.79</ele>
        <time>2021-08-07T05:35:42Z</time>
      </trkpt>
      <trkpt lat="51.06959" lon="2.51139">
        <ele>8.79</ele>
        <time>2021-08-07T05:35:43Z</time>
      </trkpt>
      <trkpt lat="51.06934" lon="2.51038">
        <ele>8.79</ele>
        <time>2021-08-07T05:35:54Z</time>
      </trkpt>
      <trkpt lat="51.06899" lon="2.50919">
        <ele>8.79</ele>
        <time>2021-08-07T05:36:07Z</time>
      </trkpt>
      <trkpt lat="51.0687" lon="2.50826">
        <ele>7.83</ele>
        <time>2021-08-07T05:36:17Z</time>
      </trkpt>
      <trkpt lat="51.06832" lon="2.50708">
        <ele>6.87</ele>
        <time>2021-08-07T05:36:30Z</time>
      </trkpt>
      <trkpt lat="51.06801" lon="2.5061">
        <ele>6.87</ele>
        <time>2021-08-07T05:36:41Z</time>
      </trkpt>
      <trkpt lat="51.06776" lon="2.50513">
        <ele>6.87</ele>
        <time>2021-08-07T05:36:51Z</time>
      </trkpt>
      <trkpt lat="51.06758" lon="2.50429">
        <ele>6.87</ele>
        <time>2021-08-07T05:37:00Z</time>
      </trkpt>
      <trkpt lat="51.06734" lon="2.50304">
        <ele>6.87</ele>
        <time>2021-08-07T05:37:13Z</time>
      </trkpt>
      <trkpt lat="51.06716" lon="2.50184">
        <ele>6.87</ele>
        <time>2021-08-07T05:37:25Z</time>
      </trkpt>
      <trkpt lat="51.06701" lon="2.50077">
        <ele>5.91</ele>
        <time>2021-08-07T05:37:36Z</time>
      </trkpt>
      <trkpt lat="51.06689" lon="2.49996">
        <ele>4.94</ele>
        <time>2021-08-07T05:37:45Z</time>
      </trkpt>
      <trkpt lat="51.06678" lon="2.4992">
        <ele>4.94</ele>
        <time>2021-08-07T05:37:54Z</time>
      </trkpt>
      <trkpt lat="51.06674" lon="2.49896">
        <ele>4.94</ele>
        <time>2021-08-07T05:37:57Z</time>
      </trkpt>
      <trkpt lat="51.06662" lon="2.49805">
        <ele>5.91</ele>
        <time>2021-08-07T05:38:07Z</time>
      </trkpt>
      <trkpt lat="51.06645" lon="2.49691">
        <ele>5.91</ele>
        <time>2021-08-07T05:38:19Z</time>
      </trkpt>
      <trkpt lat="51.06631" lon="2.49594">
        <ele>5.91</ele>
        <time>2021-08-07T05:38:29Z</time>
      </trkpt>
      <trkpt lat="51.06617" lon="2.49496">
        <ele>5.91</ele>
        <time>2021-08-07T05:38:39Z</time>
      </trkpt>
      <trkpt lat="51.06604" lon="2.49402">
        <ele>5.91</ele>
        <time>2021-08-07T05:38:49Z</time>
      </trkpt>
      <trkpt lat="51.06589" lon="2.4933">
        <ele>5.91</ele>
        <time>2021-08-07T05:38:57Z</time>
      </trkpt>
      <trkpt lat="51.06562" lon="2.49225">
        <ele>5.91</ele>
        <time>2021-08-07T05:39:09Z</time>
      </trkpt>
      <trkpt lat="51.06536" lon="2.49131">
        <ele>6.39</ele>
        <time>2021-08-07T05:39:20Z</time>
      </trkpt>
      <trkpt lat="51.06517" lon="2.49062">
        <ele>6.87</ele>
        <time>2021-08-07T05:39:29Z</time>
      </trkpt>
      <trkpt lat="51.06505" lon="2.49016">
        <ele>6.87</ele>
        <time>2021-08-07T05:39:35Z</time>
      </trkpt>
      <trkpt lat="51.06481" lon="2.48927">
        <ele>6.87</ele>
        <time>2021-08-07T05:39:47Z</time>
      </trkpt>
      <trkpt lat="51.06479" lon="2.48921">
        <ele>6.87</ele>
        <time>2021-08-07T05:39:48Z</time>
      </trkpt>
      <trkpt lat="51.06477" lon="2.4891">
        <ele>6.87</ele>
        <time>2021-08-07T05:39:50Z</time>
      </trkpt>
      <trkpt lat="51.06478" lon="2.48905">
        <ele>6.87</ele>
        <time>2021-08-07T05:39:51Z</time>
      </trkpt>
      <trkpt lat="51.06479" lon="2.48887">
        <ele>7.35</ele>
        <time>2021-08-07T05:39:54Z</time>
      </trkpt>
      <trkpt lat="51.06478" lon="2.4888">
        <ele>7.35</ele>
        <time>2021-08-07T05:39:55Z</time>
      </trkpt>
      <trkpt lat="51.06477" lon="2.48874">
        <ele>7.35</ele>
        <time>2021-08-07T05:39:56Z</time>
      </trkpt>
      <trkpt lat="51.0646" lon="2.48817">
        <ele>8.79</ele>
        <time>2021-08-07T05:40:04Z</time>
      </trkpt>
      <trkpt lat="51.06445" lon="2.48751">
        <ele>10.71</ele>
        <time>2021-08-07T05:40:13Z</time>
      </trkpt>
      <trkpt lat="51.06433" lon="2.48708">
        <ele>11.19</ele>
        <time>2021-08-07T05:40:19Z</time>
      </trkpt>
      <trkpt lat="51.06411" lon="2.48637">
        <ele>11.67</ele>
        <time>2021-08-07T05:40:28Z</time>
      </trkpt>
      <trkpt lat="51.06385" lon="2.48548">
        <ele>10.23</ele>
        <time>2021-08-07T05:40:38Z</time>
      </trkpt>
      <trkpt lat="51.06362" lon="2.48472">
        <ele>7.83</ele>
        <time>2021-08-07T05:40:45Z</time>
      </trkpt>
      <trkpt lat="51.06335" lon="2.4837">
        <ele>7.35</ele>
        <time>2021-08-07T05:40:54Z</time>
      </trkpt>
      <trkpt lat="51.06309" lon="2.4827">
        <ele>6.87</ele>
        <time>2021-08-07T05:41:03Z</time>
      </trkpt>
      <trkpt lat="51.06304" lon="2.48242">
        <ele>6.87</ele>
        <time>2021-08-07T05:41:06Z</time>
      </trkpt>
      <trkpt lat="51.06301" lon="2.48236">
        <ele>6.87</ele>
        <time>2021-08-07T05:41:07Z</time>
      </trkpt>
      <trkpt lat="51.06296" lon="2.48232">
        <ele>6.87</ele>
        <time>2021-08-07T05:41:08Z</time>
      </trkpt>
      <trkpt lat="51.06291" lon="2.48232">
        <ele>6.87</ele>
        <time>2021-08-07T05:41:09Z</time>
      </trkpt>
      <trkpt lat="51.06287" lon="2.48232">
        <ele>6.87</ele>
        <time>2021-08-07T05:41:10Z</time>
      </trkpt>
      <trkpt lat="51.06282" lon="2.48232">
        <ele>6.87</ele>
        <time>2021-08-07T05:41:11Z</time>
      </trkpt>
      <trkpt lat="51.06279" lon="2.48229">
        <ele>6.87</ele>
        <time>2021-08-07T05:41:12Z</time>
      </trkpt>
      <trkpt lat="51.06276" lon="2.48224">
        <ele>6.87</ele>
        <time>2021-08-07T05:41:13Z</time>
      </trkpt>
      <trkpt lat="51.0626" lon="2.48197">
        <ele>6.87</ele>
        <time>2021-08-07T05:41:18Z</time>
      </trkpt>
      <trkpt lat="51.06257" lon="2.4819">
        <ele>6.87</ele>
        <time>2021-08-07T05:41:19Z</time>
      </trkpt>
      <trkpt lat="51.06255" lon="2.48182">
        <ele>6.87</ele>
        <time>2021-08-07T05:41:20Z</time>
      </trkpt>
      <trkpt lat="51.06236" lon="2.48114">
        <ele>6.87</ele>
        <time>2021-08-07T05:41:28Z</time>
      </trkpt>
      <trkpt lat="51.06215" lon="2.48033">
        <ele>6.87</ele>
        <time>2021-08-07T05:41:37Z</time>
      </trkpt>
      <trkpt lat="51.06212" lon="2.48024">
        <ele>6.87</ele>
        <time>2021-08-07T05:41:38Z</time>
      </trkpt>
      <trkpt lat="51.06209" lon="2.48016">
        <ele>6.87</ele>
        <time>2021-08-07T05:41:39Z</time>
      </trkpt>
      <trkpt lat="51.06196" lon="2.47994">
        <ele>6.39</ele>
        <time>2021-08-07T05:41:42Z</time>
      </trkpt>
      <trkpt lat="51.06191" lon="2.47987">
        <ele>6.39</ele>
        <time>2021-08-07T05:41:43Z</time>
      </trkpt>
      <trkpt lat="51.06187" lon="2.4798">
        <ele>5.91</ele>
        <time>2021-08-07T05:41:44Z</time>
      </trkpt>
      <trkpt lat="51.06183" lon="2.47972">
        <ele>5.91</ele>
        <time>2021-08-07T05:41:45Z</time>
      </trkpt>
      <trkpt lat="51.06181" lon="2.47963">
        <ele>5.91</ele>
        <time>2021-08-07T05:41:46Z</time>
      </trkpt>
      <trkpt lat="51.06178" lon="2.47954">
        <ele>5.91</ele>
        <time>2021-08-07T05:41:47Z</time>
      </trkpt>
      <trkpt lat="51.06173" lon="2.47937">
        <ele>5.91</ele>
        <time>2021-08-07T05:41:49Z</time>
      </trkpt>
      <trkpt lat="51.06155" lon="2.47875">
        <ele>5.91</ele>
        <time>2021-08-07T05:41:56Z</time>
      </trkpt>
      <trkpt lat="51.06142" lon="2.4782">
        <ele>5.91</ele>
        <time>2021-08-07T05:42:02Z</time>
      </trkpt>
      <trkpt lat="51.06141" lon="2.47811">
        <ele>5.91</ele>
        <time>2021-08-07T05:42:03Z</time>
      </trkpt>
      <trkpt lat="51.06148" lon="2.4778">
        <ele>5.91</ele>
        <time>2021-08-07T05:42:07Z</time>
      </trkpt>
      <trkpt lat="51.06154" lon="2.47769">
        <ele>6.87</ele>
        <time>2021-08-07T05:42:09Z</time>
      </trkpt>
      <trkpt lat="51.06155" lon="2.4776">
        <ele>6.87</ele>
        <time>2021-08-07T05:42:10Z</time>
      </trkpt>
      <trkpt lat="51.06154" lon="2.47754">
        <ele>6.87</ele>
        <time>2021-08-07T05:42:11Z</time>
      </trkpt>
      <trkpt lat="51.06152" lon="2.47746">
        <ele>6.87</ele>
        <time>2021-08-07T05:42:12Z</time>
      </trkpt>
      <trkpt lat="51.0615" lon="2.47739">
        <ele>6.87</ele>
        <time>2021-08-07T05:42:13Z</time>
      </trkpt>
      <trkpt lat="51.06129" lon="2.47668">
        <ele>6.87</ele>
        <time>2021-08-07T05:42:22Z</time>
      </trkpt>
      <trkpt lat="51.06109" lon="2.47592">
        <ele>6.87</ele>
        <time>2021-08-07T05:42:31Z</time>
      </trkpt>
      <trkpt lat="51.0609" lon="2.47519">
        <ele>6.87</ele>
        <time>2021-08-07T05:42:39Z</time>
      </trkpt>
      <trkpt lat="51.06071" lon="2.47445">
        <ele>6.87</ele>
        <time>2021-08-07T05:42:47Z</time>
      </trkpt>
      <trkpt lat="51.06047" lon="2.4736">
        <ele>6.87</ele>
        <time>2021-08-07T05:42:56Z</time>
      </trkpt>
      <trkpt lat="51.0602" lon="2.47271">
        <ele>6.87</ele>
        <time>2021-08-07T05:43:06Z</time>
      </trkpt>
      <trkpt lat="51.05992" lon="2.4718">
        <ele>6.87</ele>
        <time>2021-08-07T05:43:16Z</time>
      </trkpt>
      <trkpt lat="51.05965" lon="2.47103">
        <ele>6.87</ele>
        <time>2021-08-07T05:43:25Z</time>
      </trkpt>
      <trkpt lat="51.05926" lon="2.46995">
        <ele>7.83</ele>
        <time>2021-08-07T05:43:38Z</time>
      </trkpt>
      <trkpt lat="51.05917" lon="2.46971">
        <ele>7.83</ele>
        <time>2021-08-07T05:43:41Z</time>
      </trkpt>
      <trkpt lat="51.05913" lon="2.46965">
        <ele>7.83</ele>
        <time>2021-08-07T05:43:42Z</time>
      </trkpt>
      <trkpt lat="51.05908" lon="2.4696">
        <ele>7.83</ele>
        <time>2021-08-07T05:43:43Z</time>
      </trkpt>
      <trkpt lat="51.05903" lon="2.46957">
        <ele>7.83</ele>
        <time>2021-08-07T05:43:44Z</time>
      </trkpt>
      <trkpt lat="51.05898" lon="2.46953">
        <ele>7.83</ele>
        <time>2021-08-07T05:43:45Z</time>
      </trkpt>
      <trkpt lat="51.05893" lon="2.46947">
        <ele>7.83</ele>
        <time>2021-08-07T05:43:46Z</time>
      </trkpt>
      <trkpt lat="51.0589" lon="2.4694">
        <ele>7.83</ele>
        <time>2021-08-07T05:43:47Z</time>
      </trkpt>
      <trkpt lat="51.05888" lon="2.46931">
        <ele>7.83</ele>
        <time>2021-08-07T05:43:48Z</time>
      </trkpt>
      <trkpt lat="51.05885" lon="2.46923">
        <ele>7.83</ele>
        <time>2021-08-07T05:43:49Z</time>
      </trkpt>
      <trkpt lat="51.05882" lon="2.46915">
        <ele>7.83</ele>
        <time>2021-08-07T05:43:50Z</time>
      </trkpt>
      <trkpt lat="51.0587" lon="2.46874">
        <ele>7.83</ele>
        <time>2021-08-07T05:43:55Z</time>
      </trkpt>
      <trkpt lat="51.05869" lon="2.46865">
        <ele>7.83</ele>
        <time>2021-08-07T05:43:56Z</time>
      </trkpt>
      <trkpt lat="51.05867" lon="2.4684">
        <ele>7.83</ele>
        <time>2021-08-07T05:43:59Z</time>
      </trkpt>
      <trkpt lat="51.05865" lon="2.46832">
        <ele>7.83</ele>
        <time>2021-08-07T05:44:00Z</time>
      </trkpt>
      <trkpt lat="51.05862" lon="2.46825">
        <ele>7.83</ele>
        <time>2021-08-07T05:44:01Z</time>
      </trkpt>
      <trkpt lat="51.05831" lon="2.46742">
        <ele>8.31</ele>
        <time>2021-08-07T05:44:12Z</time>
      </trkpt>
      <trkpt lat="51.05806" lon="2.46677">
        <ele>8.31</ele>
        <time>2021-08-07T05:44:20Z</time>
      </trkpt>
      <trkpt lat="51.05783" lon="2.4661">
        <ele>8.31</ele>
        <time>2021-08-07T05:44:28Z</time>
      </trkpt>
      <trkpt lat="51.05758" lon="2.4654">
        <ele>8.31</ele>
        <time>2021-08-07T05:44:36Z</time>
      </trkpt>
      <trkpt lat="51.05749" lon="2.46513">
        <ele>7.83</ele>
        <time>2021-08-07T05:44:39Z</time>
      </trkpt>
      <trkpt lat="51.05746" lon="2.46506">
        <ele>8.31</ele>
        <time>2021-08-07T05:44:40Z</time>
      </trkpt>
      <trkpt lat="51.05721" lon="2.46426">
        <ele>7.83</ele>
        <time>2021-08-07T05:44:49Z</time>
      </trkpt>
      <trkpt lat="51.05689" lon="2.46316">
        <ele>7.83</ele>
        <time>2021-08-07T05:45:01Z</time>
      </trkpt>
      <trkpt lat="51.05666" lon="2.46211">
        <ele>7.83</ele>
        <time>2021-08-07T05:45:12Z</time>
      </trkpt>
      <trkpt lat="51.05648" lon="2.46106">
        <ele>7.83</ele>
        <time>2021-08-07T05:45:23Z</time>
      </trkpt>
      <trkpt lat="51.05639" lon="2.46021">
        <ele>7.83</ele>
        <time>2021-08-07T05:45:32Z</time>
      </trkpt>
      <trkpt lat="51.05629" lon="2.45924">
        <ele>7.83</ele>
        <time>2021-08-07T05:45:42Z</time>
      </trkpt>
      <trkpt lat="51.05617" lon="2.4581">
        <ele>7.83</ele>
        <time>2021-08-07T05:45:54Z</time>
      </trkpt>
      <trkpt lat="51.05606" lon="2.45707">
        <ele>7.83</ele>
        <time>2021-08-07T05:46:05Z</time>
      </trkpt>
      <trkpt lat="51.05597" lon="2.45612">
        <ele>8.79</ele>
        <time>2021-08-07T05:46:15Z</time>
      </trkpt>
      <trkpt lat="51.05591" lon="2.45566">
        <ele>8.79</ele>
        <time>2021-08-07T05:46:20Z</time>
      </trkpt>
      <trkpt lat="51.05589" lon="2.45557">
        <ele>8.79</ele>
        <time>2021-08-07T05:46:21Z</time>
      </trkpt>
      <trkpt lat="51.05586" lon="2.45549">
        <ele>8.79</ele>
        <time>2021-08-07T05:46:22Z</time>
      </trkpt>
      <trkpt lat="51.05576" lon="2.45526">
        <ele>8.79</ele>
        <time>2021-08-07T05:46:25Z</time>
      </trkpt>
      <trkpt lat="51.05572" lon="2.4552">
        <ele>8.79</ele>
        <time>2021-08-07T05:46:26Z</time>
      </trkpt>
      <trkpt lat="51.05567" lon="2.45517">
        <ele>8.79</ele>
        <time>2021-08-07T05:46:27Z</time>
      </trkpt>
      <trkpt lat="51.05564" lon="2.45513">
        <ele>8.79</ele>
        <time>2021-08-07T05:46:28Z</time>
      </trkpt>
      <trkpt lat="51.05563" lon="2.45508">
        <ele>8.79</ele>
        <time>2021-08-07T05:46:29Z</time>
      </trkpt>
      <trkpt lat="51.05562" lon="2.45501">
        <ele>8.79</ele>
        <time>2021-08-07T05:46:30Z</time>
      </trkpt>
      <trkpt lat="51.05555" lon="2.45445">
        <ele>8.79</ele>
        <time>2021-08-07T05:46:38Z</time>
      </trkpt>
      <trkpt lat="51.05545" lon="2.45355">
        <ele>8.31</ele>
        <time>2021-08-07T05:46:49Z</time>
      </trkpt>
      <trkpt lat="51.05538" lon="2.45273">
        <ele>9.27</ele>
        <time>2021-08-07T05:46:59Z</time>
      </trkpt>
      <trkpt lat="51.05537" lon="2.45197">
        <ele>9.75</ele>
        <time>2021-08-07T05:47:08Z</time>
      </trkpt>
      <trkpt lat="51.05536" lon="2.4511">
        <ele>9.75</ele>
        <time>2021-08-07T05:47:18Z</time>
      </trkpt>
      <trkpt lat="51.05529" lon="2.45031">
        <ele>10.23</ele>
        <time>2021-08-07T05:47:27Z</time>
      </trkpt>
      <trkpt lat="51.05518" lon="2.44935">
        <ele>10.71</ele>
        <time>2021-08-07T05:47:38Z</time>
      </trkpt>
      <trkpt lat="51.05505" lon="2.44856">
        <ele>10.23</ele>
        <time>2021-08-07T05:47:47Z</time>
      </trkpt>
      <trkpt lat="51.05504" lon="2.44847">
        <ele>10.23</ele>
        <time>2021-08-07T05:47:48Z</time>
      </trkpt>
      <trkpt lat="51.05503" lon="2.44838">
        <ele>10.23</ele>
        <time>2021-08-07T05:47:49Z</time>
      </trkpt>
      <trkpt lat="51.05491" lon="2.44737">
        <ele>10.23</ele>
        <time>2021-08-07T05:48:00Z</time>
      </trkpt>
      <trkpt lat="51.05474" lon="2.44652">
        <ele>10.23</ele>
        <time>2021-08-07T05:48:09Z</time>
      </trkpt>
      <trkpt lat="51.05454" lon="2.44568">
        <ele>9.27</ele>
        <time>2021-08-07T05:48:18Z</time>
      </trkpt>
      <trkpt lat="51.05431" lon="2.44481">
        <ele>8.31</ele>
        <time>2021-08-07T05:48:27Z</time>
      </trkpt>
      <trkpt lat="51.05402" lon="2.44388">
        <ele>7.35</ele>
        <time>2021-08-07T05:48:37Z</time>
      </trkpt>
      <trkpt lat="51.05372" lon="2.44284">
        <ele>7.35</ele>
        <time>2021-08-07T05:48:48Z</time>
      </trkpt>
      <trkpt lat="51.05334" lon="2.44164">
        <ele>7.35</ele>
        <time>2021-08-07T05:49:01Z</time>
      </trkpt>
      <trkpt lat="51.05304" lon="2.44064">
        <ele>7.35</ele>
        <time>2021-08-07T05:49:12Z</time>
      </trkpt>
      <trkpt lat="51.05277" lon="2.43976">
        <ele>7.35</ele>
        <time>2021-08-07T05:49:22Z</time>
      </trkpt>
      <trkpt lat="51.05264" lon="2.43932">
        <ele>7.35</ele>
        <time>2021-08-07T05:49:27Z</time>
      </trkpt>
      <trkpt lat="51.05261" lon="2.43923">
        <ele>7.35</ele>
        <time>2021-08-07T05:49:28Z</time>
      </trkpt>
      <trkpt lat="51.05244" lon="2.43865">
        <ele>7.35</ele>
        <time>2021-08-07T05:49:34Z</time>
      </trkpt>
      <trkpt lat="51.05226" lon="2.43803">
        <ele>7.35</ele>
        <time>2021-08-07T05:49:41Z</time>
      </trkpt>
      <trkpt lat="51.052" lon="2.43715">
        <ele>6.87</ele>
        <time>2021-08-07T05:49:51Z</time>
      </trkpt>
      <trkpt lat="51.05166" lon="2.436">
        <ele>6.87</ele>
        <time>2021-08-07T05:50:04Z</time>
      </trkpt>
      <trkpt lat="51.05161" lon="2.43582">
        <ele>6.87</ele>
        <time>2021-08-07T05:50:06Z</time>
      </trkpt>
      <trkpt lat="51.05161" lon="2.43572">
        <ele>6.87</ele>
        <time>2021-08-07T05:50:07Z</time>
      </trkpt>
      <trkpt lat="51.0516" lon="2.43562">
        <ele>6.87</ele>
        <time>2021-08-07T05:50:08Z</time>
      </trkpt>
      <trkpt lat="51.05159" lon="2.43552">
        <ele>6.87</ele>
        <time>2021-08-07T05:50:09Z</time>
      </trkpt>
      <trkpt lat="51.05157" lon="2.43543">
        <ele>6.87</ele>
        <time>2021-08-07T05:50:10Z</time>
      </trkpt>
      <trkpt lat="51.05154" lon="2.43535">
        <ele>6.87</ele>
        <time>2021-08-07T05:50:11Z</time>
      </trkpt>
      <trkpt lat="51.05121" lon="2.43427">
        <ele>6.87</ele>
        <time>2021-08-07T05:50:23Z</time>
      </trkpt>
      <trkpt lat="51.0509" lon="2.43322">
        <ele>6.87</ele>
        <time>2021-08-07T05:50:35Z</time>
      </trkpt>
      <trkpt lat="51.05068" lon="2.43245">
        <ele>6.87</ele>
        <time>2021-08-07T05:50:44Z</time>
      </trkpt>
      <trkpt lat="51.05056" lon="2.4321">
        <ele>6.87</ele>
        <time>2021-08-07T05:50:49Z</time>
      </trkpt>
      <trkpt lat="51.05054" lon="2.43205">
        <ele>6.87</ele>
        <time>2021-08-07T05:50:50Z</time>
      </trkpt>
      <trkpt lat="51.05055" lon="2.432">
        <ele>6.87</ele>
        <time>2021-08-07T05:50:51Z</time>
      </trkpt>
      <trkpt lat="51.05057" lon="2.43197">
        <ele>6.87</ele>
        <time>2021-08-07T05:50:52Z</time>
      </trkpt>
      <trkpt lat="51.05059" lon="2.43195">
        <ele>6.87</ele>
        <time>2021-08-07T05:50:53Z</time>
      </trkpt>
      <trkpt lat="51.05083" lon="2.43177">
        <ele>6.87</ele>
        <time>2021-08-07T05:51:00Z</time>
      </trkpt>
      <trkpt lat="51.0512" lon="2.43165">
        <ele>6.87</ele>
        <time>2021-08-07T05:51:08Z</time>
      </trkpt>
      <trkpt lat="51.05135" lon="2.43163">
        <ele>7.83</ele>
        <time>2021-08-07T05:51:11Z</time>
      </trkpt>
      <trkpt lat="51.05139" lon="2.43164">
        <ele>7.83</ele>
        <time>2021-08-07T05:51:12Z</time>
      </trkpt>
      <trkpt lat="51.05151" lon="2.43167">
        <ele>8.31</ele>
        <time>2021-08-07T05:51:14Z</time>
      </trkpt>
      <trkpt lat="51.05155" lon="2.43166">
        <ele>8.31</ele>
        <time>2021-08-07T05:51:15Z</time>
      </trkpt>
      <trkpt lat="51.05158" lon="2.43164">
        <ele>8.31</ele>
        <time>2021-08-07T05:51:16Z</time>
      </trkpt>
      <trkpt lat="51.05162" lon="2.43159">
        <ele>8.31</ele>
        <time>2021-08-07T05:51:17Z</time>
      </trkpt>
      <trkpt lat="51.05165" lon="2.43153">
        <ele>8.31</ele>
        <time>2021-08-07T05:51:18Z</time>
      </trkpt>
      <trkpt lat="51.05169" lon="2.43147">
        <ele>8.31</ele>
        <time>2021-08-07T05:51:19Z</time>
      </trkpt>
      <trkpt lat="51.05174" lon="2.43142">
        <ele>8.31</ele>
        <time>2021-08-07T05:51:20Z</time>
      </trkpt>
      <trkpt lat="51.05177" lon="2.4314">
        <ele>8.31</ele>
        <time>2021-08-07T05:51:21Z</time>
      </trkpt>
      <trkpt lat="51.05182" lon="2.43137">
        <ele>8.31</ele>
        <time>2021-08-07T05:51:22Z</time>
      </trkpt>
      <trkpt lat="51.05187" lon="2.43134">
        <ele>8.31</ele>
        <time>2021-08-07T05:51:23Z</time>
      </trkpt>
      <trkpt lat="51.05245" lon="2.43103">
        <ele>8.79</ele>
        <time>2021-08-07T05:51:34Z</time>
      </trkpt>
      <trkpt lat="51.05298" lon="2.43073">
        <ele>9.27</ele>
        <time>2021-08-07T05:51:44Z</time>
      </trkpt>
      <trkpt lat="51.05349" lon="2.43044">
        <ele>9.75</ele>
        <time>2021-08-07T05:51:53Z</time>
      </trkpt>
      <trkpt lat="51.05394" lon="2.43018">
        <ele>10.23</ele>
        <time>2021-08-07T05:52:01Z</time>
      </trkpt>
      <trkpt lat="51.05447" lon="2.4299">
        <ele>10.23</ele>
        <time>2021-08-07T05:52:10Z</time>
      </trkpt>
      <trkpt lat="51.05514" lon="2.42954">
        <ele>10.71</ele>
        <time>2021-08-07T05:52:21Z</time>
      </trkpt>
      <trkpt lat="51.0558" lon="2.42917">
        <ele>11.19</ele>
        <time>2021-08-07T05:52:32Z</time>
      </trkpt>
      <trkpt lat="51.05587" lon="2.42917">
        <ele>11.19</ele>
        <time>2021-08-07T05:52:33Z</time>
      </trkpt>
      <trkpt lat="51.05593" lon="2.42917">
        <ele>11.67</ele>
        <time>2021-08-07T05:52:34Z</time>
      </trkpt>
      <trkpt lat="51.056" lon="2.42915">
        <ele>11.67</ele>
        <time>2021-08-07T05:52:35Z</time>
      </trkpt>
      <trkpt lat="51.05605" lon="2.42914">
        <ele>11.67</ele>
        <time>2021-08-07T05:52:36Z</time>
      </trkpt>
      <trkpt lat="51.05669" lon="2.42882">
        <ele>11.67</ele>
        <time>2021-08-07T05:52:47Z</time>
      </trkpt>
      <trkpt lat="51.05673" lon="2.42878">
        <ele>11.67</ele>
        <time>2021-08-07T05:52:48Z</time>
      </trkpt>
      <trkpt lat="51.05674" lon="2.42872">
        <ele>11.67</ele>
        <time>2021-08-07T05:52:49Z</time>
      </trkpt>
      <trkpt lat="51.05674" lon="2.42864">
        <ele>11.67</ele>
        <time>2021-08-07T05:52:50Z</time>
      </trkpt>
      <trkpt lat="51.05674" lon="2.42857">
        <ele>11.67</ele>
        <time>2021-08-07T05:52:51Z</time>
      </trkpt>
      <trkpt lat="51.05674" lon="2.42851">
        <ele>11.67</ele>
        <time>2021-08-07T05:52:52Z</time>
      </trkpt>
      <trkpt lat="51.05675" lon="2.42842">
        <ele>11.67</ele>
        <time>2021-08-07T05:52:53Z</time>
      </trkpt>
      <trkpt lat="51.05674" lon="2.42835">
        <ele>11.67</ele>
        <time>2021-08-07T05:52:54Z</time>
      </trkpt>
      <trkpt lat="51.05673" lon="2.42828">
        <ele>11.67</ele>
        <time>2021-08-07T05:52:55Z</time>
      </trkpt>
      <trkpt lat="51.05671" lon="2.4282">
        <ele>11.67</ele>
        <time>2021-08-07T05:52:56Z</time>
      </trkpt>
      <trkpt lat="51.05669" lon="2.42813">
        <ele>11.67</ele>
        <time>2021-08-07T05:52:57Z</time>
      </trkpt>
      <trkpt lat="51.05648" lon="2.42723">
        <ele>11.67</ele>
        <time>2021-08-07T05:53:08Z</time>
      </trkpt>
      <trkpt lat="51.05625" lon="2.42625">
        <ele>11.67</ele>
        <time>2021-08-07T05:53:19Z</time>
      </trkpt>
      <trkpt lat="51.0561" lon="2.42567">
        <ele>11.67</ele>
        <time>2021-08-07T05:53:26Z</time>
      </trkpt>
      <trkpt lat="51.05605" lon="2.42561">
        <ele>11.67</ele>
        <time>2021-08-07T05:53:27Z</time>
      </trkpt>
      <trkpt lat="51.05602" lon="2.42554">
        <ele>11.67</ele>
        <time>2021-08-07T05:53:28Z</time>
      </trkpt>
      <trkpt lat="51.056" lon="2.42547">
        <ele>11.67</ele>
        <time>2021-08-07T05:53:29Z</time>
      </trkpt>
      <trkpt lat="51.056" lon="2.42538">
        <ele>11.67</ele>
        <time>2021-08-07T05:53:30Z</time>
      </trkpt>
      <trkpt lat="51.05599" lon="2.4253">
        <ele>11.67</ele>
        <time>2021-08-07T05:53:31Z</time>
      </trkpt>
      <trkpt lat="51.05598" lon="2.42519">
        <ele>11.67</ele>
        <time>2021-08-07T05:53:32Z</time>
      </trkpt>
      <trkpt lat="51.05597" lon="2.42511">
        <ele>11.67</ele>
        <time>2021-08-07T05:53:33Z</time>
      </trkpt>
      <trkpt lat="51.05595" lon="2.42503">
        <ele>11.67</ele>
        <time>2021-08-07T05:53:34Z</time>
      </trkpt>
      <trkpt lat="51.05593" lon="2.42494">
        <ele>11.67</ele>
        <time>2021-08-07T05:53:35Z</time>
      </trkpt>
      <trkpt lat="51.05567" lon="2.42387">
        <ele>10.23</ele>
        <time>2021-08-07T05:53:47Z</time>
      </trkpt>
      <trkpt lat="51.05564" lon="2.42368">
        <ele>10.23</ele>
        <time>2021-08-07T05:53:49Z</time>
      </trkpt>
      <trkpt lat="51.05564" lon="2.42359">
        <ele>10.23</ele>
        <time>2021-08-07T05:53:50Z</time>
      </trkpt>
      <trkpt lat="51.05566" lon="2.42352">
        <ele>10.23</ele>
        <time>2021-08-07T05:53:51Z</time>
      </trkpt>
      <trkpt lat="51.0557" lon="2.42325">
        <ele>10.23</ele>
        <time>2021-08-07T05:53:54Z</time>
      </trkpt>
      <trkpt lat="51.0557" lon="2.42316">
        <ele>10.23</ele>
        <time>2021-08-07T05:53:55Z</time>
      </trkpt>
      <trkpt lat="51.05569" lon="2.42306">
        <ele>10.23</ele>
        <time>2021-08-07T05:53:56Z</time>
      </trkpt>
      <trkpt lat="51.05567" lon="2.42297">
        <ele>10.23</ele>
        <time>2021-08-07T05:53:57Z</time>
      </trkpt>
      <trkpt lat="51.05565" lon="2.42287">
        <ele>10.23</ele>
        <time>2021-08-07T05:53:58Z</time>
      </trkpt>
      <trkpt lat="51.05542" lon="2.42175">
        <ele>10.23</ele>
        <time>2021-08-07T05:54:10Z</time>
      </trkpt>
      <trkpt lat="51.05512" lon="2.42032">
        <ele>10.23</ele>
        <time>2021-08-07T05:54:25Z</time>
      </trkpt>
      <trkpt lat="51.05505" lon="2.41994">
        <ele>9.75</ele>
        <time>2021-08-07T05:54:29Z</time>
      </trkpt>
      <trkpt lat="51.05503" lon="2.41983">
        <ele>9.75</ele>
        <time>2021-08-07T05:54:30Z</time>
      </trkpt>
      <trkpt lat="51.05486" lon="2.41906">
        <ele>9.75</ele>
        <time>2021-08-07T05:54:38Z</time>
      </trkpt>
      <trkpt lat="51.05456" lon="2.41761">
        <ele>9.75</ele>
        <time>2021-08-07T05:54:53Z</time>
      </trkpt>
      <trkpt lat="51.05429" lon="2.41627">
        <ele>9.75</ele>
        <time>2021-08-07T05:55:07Z</time>
      </trkpt>
      <trkpt lat="51.05405" lon="2.41511">
        <ele>9.75</ele>
        <time>2021-08-07T05:55:19Z</time>
      </trkpt>
      <trkpt lat="51.05387" lon="2.41424">
        <ele>9.75</ele>
        <time>2021-08-07T05:55:28Z</time>
      </trkpt>
      <trkpt lat="51.0537" lon="2.41336">
        <ele>9.75</ele>
        <time>2021-08-07T05:55:37Z</time>
      </trkpt>
      <trkpt lat="51.05346" lon="2.41219">
        <ele>9.75</ele>
        <time>2021-08-07T05:55:49Z</time>
      </trkpt>
      <trkpt lat="51.05329" lon="2.41167">
        <ele>9.75</ele>
        <time>2021-08-07T05:55:55Z</time>
      </trkpt>
      <trkpt lat="51.05309" lon="2.41075">
        <ele>9.75</ele>
        <time>2021-08-07T05:56:05Z</time>
      </trkpt>
      <trkpt lat="51.05289" lon="2.40976">
        <ele>9.27</ele>
        <time>2021-08-07T05:56:16Z</time>
      </trkpt>
      <trkpt lat="51.05284" lon="2.40947">
        <ele>10.71</ele>
        <time>2021-08-07T05:56:19Z</time>
      </trkpt>
      <trkpt lat="51.0527" lon="2.40854">
        <ele>10.71</ele>
        <time>2021-08-07T05:56:29Z</time>
      </trkpt>
      <trkpt lat="51.05249" lon="2.40743">
        <ele>10.71</ele>
        <time>2021-08-07T05:56:41Z</time>
      </trkpt>
      <trkpt lat="51.05232" lon="2.40653">
        <ele>10.71</ele>
        <time>2021-08-07T05:56:51Z</time>
      </trkpt>
      <trkpt lat="51.05212" lon="2.40551">
        <ele>10.71</ele>
        <time>2021-08-07T05:57:03Z</time>
      </trkpt>
      <trkpt lat="51.05197" lon="2.40466">
        <ele>10.71</ele>
        <time>2021-08-07T05:57:13Z</time>
      </trkpt>
      <trkpt lat="51.0518" lon="2.40362">
        <ele>10.71</ele>
        <time>2021-08-07T05:57:25Z</time>
      </trkpt>
      <trkpt lat="51.05163" lon="2.40272">
        <ele>10.71</ele>
        <time>2021-08-07T05:57:35Z</time>
      </trkpt>
      <trkpt lat="51.05146" lon="2.40176">
        <ele>10.71</ele>
        <time>2021-08-07T05:57:46Z</time>
      </trkpt>
      <trkpt lat="51.05132" lon="2.4008">
        <ele>10.71</ele>
        <time>2021-08-07T05:57:57Z</time>
      </trkpt>
      <trkpt lat="51.0512" lon="2.39997">
        <ele>10.71</ele>
        <time>2021-08-07T05:58:06Z</time>
      </trkpt>
      <trkpt lat="51.05114" lon="2.39949">
        <ele>9.27</ele>
        <time>2021-08-07T05:58:11Z</time>
      </trkpt>
      <trkpt lat="51.05103" lon="2.39871">
        <ele>10.23</ele>
        <time>2021-08-07T05:58:19Z</time>
      </trkpt>
      <trkpt lat="51.05089" lon="2.39766">
        <ele>8.79</ele>
        <time>2021-08-07T05:58:30Z</time>
      </trkpt>
      <trkpt lat="51.05073" lon="2.39666">
        <ele>8.79</ele>
        <time>2021-08-07T05:58:41Z</time>
      </trkpt>
      <trkpt lat="51.05071" lon="2.39656">
        <ele>8.79</ele>
        <time>2021-08-07T05:58:42Z</time>
      </trkpt>
      <trkpt lat="51.05069" lon="2.39638">
        <ele>8.79</ele>
        <time>2021-08-07T05:58:44Z</time>
      </trkpt>
      <trkpt lat="51.0507" lon="2.39629">
        <ele>8.79</ele>
        <time>2021-08-07T05:58:45Z</time>
      </trkpt>
      <trkpt lat="51.0507" lon="2.39619">
        <ele>8.79</ele>
        <time>2021-08-07T05:58:46Z</time>
      </trkpt>
      <trkpt lat="51.0507" lon="2.3961">
        <ele>8.79</ele>
        <time>2021-08-07T05:58:47Z</time>
      </trkpt>
      <trkpt lat="51.05069" lon="2.396">
        <ele>8.79</ele>
        <time>2021-08-07T05:58:48Z</time>
      </trkpt>
      <trkpt lat="51.05067" lon="2.3959">
        <ele>8.79</ele>
        <time>2021-08-07T05:58:49Z</time>
      </trkpt>
      <trkpt lat="51.05052" lon="2.39494">
        <ele>8.79</ele>
        <time>2021-08-07T05:58:59Z</time>
      </trkpt>
      <trkpt lat="51.05037" lon="2.3939">
        <ele>8.79</ele>
        <time>2021-08-07T05:59:10Z</time>
      </trkpt>
      <trkpt lat="51.05025" lon="2.39294">
        <ele>8.79</ele>
        <time>2021-08-07T05:59:20Z</time>
      </trkpt>
      <trkpt lat="51.05014" lon="2.39208">
        <ele>8.79</ele>
        <time>2021-08-07T05:59:29Z</time>
      </trkpt>
      <trkpt lat="51.05001" lon="2.39117">
        <ele>8.31</ele>
        <time>2021-08-07T05:59:38Z</time>
      </trkpt>
      <trkpt lat="51.04988" lon="2.39031">
        <ele>8.31</ele>
        <time>2021-08-07T05:59:47Z</time>
      </trkpt>
      <trkpt lat="51.04977" lon="2.38955">
        <ele>8.79</ele>
        <time>2021-08-07T05:59:55Z</time>
      </trkpt>
      <trkpt lat="51.04976" lon="2.38945">
        <ele>8.79</ele>
        <time>2021-08-07T05:59:56Z</time>
      </trkpt>
      <trkpt lat="51.04967" lon="2.38876">
        <ele>8.79</ele>
        <time>2021-08-07T06:00:04Z</time>
      </trkpt>
      <trkpt lat="51.04952" lon="2.38767">
        <ele>8.79</ele>
        <time>2021-08-07T06:00:16Z</time>
      </trkpt>
      <trkpt lat="51.04949" lon="2.38702">
        <ele>8.79</ele>
        <time>2021-08-07T06:00:23Z</time>
      </trkpt>
      <trkpt lat="51.04938" lon="2.38632">
        <ele>8.79</ele>
        <time>2021-08-07T06:00:31Z</time>
      </trkpt>
      <trkpt lat="51.0492" lon="2.38525">
        <ele>8.79</ele>
        <time>2021-08-07T06:00:43Z</time>
      </trkpt>
      <trkpt lat="51.04905" lon="2.38443">
        <ele>8.79</ele>
        <time>2021-08-07T06:00:52Z</time>
      </trkpt>
      <trkpt lat="51.04887" lon="2.38351">
        <ele>8.79</ele>
        <time>2021-08-07T06:01:02Z</time>
      </trkpt>
      <trkpt lat="51.04872" lon="2.38266">
        <ele>9.27</ele>
        <time>2021-08-07T06:01:11Z</time>
      </trkpt>
      <trkpt lat="51.04861" lon="2.38203">
        <ele>10.23</ele>
        <time>2021-08-07T06:01:19Z</time>
      </trkpt>
      <trkpt lat="51.04852" lon="2.38121">
        <ele>10.23</ele>
        <time>2021-08-07T06:01:29Z</time>
      </trkpt>
      <trkpt lat="51.04849" lon="2.38081">
        <ele>10.23</ele>
        <time>2021-08-07T06:01:34Z</time>
      </trkpt>
      <trkpt lat="51.04847" lon="2.38072">
        <ele>10.23</ele>
        <time>2021-08-07T06:01:35Z</time>
      </trkpt>
      <trkpt lat="51.04841" lon="2.3805">
        <ele>10.23</ele>
        <time>2021-08-07T06:01:38Z</time>
      </trkpt>
      <trkpt lat="51.0484" lon="2.38042">
        <ele>10.23</ele>
        <time>2021-08-07T06:01:39Z</time>
      </trkpt>
      <trkpt lat="51.0483" lon="2.37975">
        <ele>10.71</ele>
        <time>2021-08-07T06:01:48Z</time>
      </trkpt>
      <trkpt lat="51.04825" lon="2.37949">
        <ele>11.19</ele>
        <time>2021-08-07T06:01:52Z</time>
      </trkpt>
      <trkpt lat="51.04818" lon="2.37909">
        <ele>12.15</ele>
        <time>2021-08-07T06:01:58Z</time>
      </trkpt>
      <trkpt lat="51.04817" lon="2.37902">
        <ele>12.63</ele>
        <time>2021-08-07T06:01:59Z</time>
      </trkpt>
      <trkpt lat="51.04806" lon="2.37834">
        <ele>14.08</ele>
        <time>2021-08-07T06:02:09Z</time>
      </trkpt>
      <trkpt lat="51.04804" lon="2.37795">
        <ele>14.56</ele>
        <time>2021-08-07T06:02:15Z</time>
      </trkpt>
      <trkpt lat="51.0481" lon="2.3778">
        <ele>14.56</ele>
        <time>2021-08-07T06:02:18Z</time>
      </trkpt>
      <trkpt lat="51.04812" lon="2.37774">
        <ele>14.56</ele>
        <time>2021-08-07T06:02:19Z</time>
      </trkpt>
      <trkpt lat="51.04819" lon="2.37755">
        <ele>14.56</ele>
        <time>2021-08-07T06:02:22Z</time>
      </trkpt>
      <trkpt lat="51.04822" lon="2.3775">
        <ele>14.56</ele>
        <time>2021-08-07T06:02:23Z</time>
      </trkpt>
      <trkpt lat="51.04825" lon="2.37745">
        <ele>14.56</ele>
        <time>2021-08-07T06:02:24Z</time>
      </trkpt>
      <trkpt lat="51.04828" lon="2.37739">
        <ele>13.12</ele>
        <time>2021-08-07T06:02:25Z</time>
      </trkpt>
      <trkpt lat="51.0483" lon="2.37731">
        <ele>13.12</ele>
        <time>2021-08-07T06:02:26Z</time>
      </trkpt>
      <trkpt lat="51.04832" lon="2.37723">
        <ele>12.63</ele>
        <time>2021-08-07T06:02:27Z</time>
      </trkpt>
      <trkpt lat="51.04834" lon="2.37715">
        <ele>12.63</ele>
        <time>2021-08-07T06:02:28Z</time>
      </trkpt>
      <trkpt lat="51.04838" lon="2.37699">
        <ele>12.63</ele>
        <time>2021-08-07T06:02:30Z</time>
      </trkpt>
      <trkpt lat="51.04836" lon="2.37691">
        <ele>11.67</ele>
        <time>2021-08-07T06:02:31Z</time>
      </trkpt>
      <trkpt lat="51.04833" lon="2.37688">
        <ele>11.67</ele>
        <time>2021-08-07T06:02:32Z</time>
      </trkpt>
      <trkpt lat="51.04829" lon="2.3769">
        <ele>11.19</ele>
        <time>2021-08-07T06:02:33Z</time>
      </trkpt>
      <trkpt lat="51.04828" lon="2.37695">
        <ele>11.19</ele>
        <time>2021-08-07T06:02:34Z</time>
      </trkpt>
      <trkpt lat="51.04828" lon="2.37702">
        <ele>11.19</ele>
        <time>2021-08-07T06:02:35Z</time>
      </trkpt>
      <trkpt lat="51.04828" lon="2.37709">
        <ele>11.19</ele>
        <time>2021-08-07T06:02:36Z</time>
      </trkpt>
      <trkpt lat="51.04827" lon="2.37715">
        <ele>10.23</ele>
        <time>2021-08-07T06:02:37Z</time>
      </trkpt>
      <trkpt lat="51.04825" lon="2.37721">
        <ele>10.23</ele>
        <time>2021-08-07T06:02:38Z</time>
      </trkpt>
      <trkpt lat="51.04814" lon="2.3774">
        <ele>9.27</ele>
        <time>2021-08-07T06:02:41Z</time>
      </trkpt>
      <trkpt lat="51.04812" lon="2.37747">
        <ele>9.27</ele>
        <time>2021-08-07T06:02:42Z</time>
      </trkpt>
      <trkpt lat="51.04808" lon="2.37764">
        <ele>8.79</ele>
        <time>2021-08-07T06:02:44Z</time>
      </trkpt>
      <trkpt lat="51.04804" lon="2.3777">
        <ele>7.83</ele>
        <time>2021-08-07T06:02:45Z</time>
      </trkpt>
      <trkpt lat="51.04799" lon="2.37773">
        <ele>7.83</ele>
        <time>2021-08-07T06:02:46Z</time>
      </trkpt>
      <trkpt lat="51.04759" lon="2.37784">
        <ele>7.83</ele>
        <time>2021-08-07T06:02:53Z</time>
      </trkpt>
      <trkpt lat="51.04744" lon="2.37789">
        <ele>7.83</ele>
        <time>2021-08-07T06:02:56Z</time>
      </trkpt>
      <trkpt lat="51.047" lon="2.37798">
        <ele>7.83</ele>
        <time>2021-08-07T06:03:04Z</time>
      </trkpt>
      <trkpt lat="51.04658" lon="2.37807">
        <ele>7.35</ele>
        <time>2021-08-07T06:03:12Z</time>
      </trkpt>
      <trkpt lat="51.04654" lon="2.37808">
        <ele>7.35</ele>
        <time>2021-08-07T06:03:13Z</time>
      </trkpt>
      <trkpt lat="51.04649" lon="2.37805">
        <ele>7.35</ele>
        <time>2021-08-07T06:03:14Z</time>
      </trkpt>
      <trkpt lat="51.04646" lon="2.37799">
        <ele>7.35</ele>
        <time>2021-08-07T06:03:15Z</time>
      </trkpt>
      <trkpt lat="51.04644" lon="2.37792">
        <ele>7.35</ele>
        <time>2021-08-07T06:03:16Z</time>
      </trkpt>
      <trkpt lat="51.04643" lon="2.37785">
        <ele>7.35</ele>
        <time>2021-08-07T06:03:17Z</time>
      </trkpt>
      <trkpt lat="51.04626" lon="2.37711">
        <ele>7.35</ele>
        <time>2021-08-07T06:03:26Z</time>
      </trkpt>
      <trkpt lat="51.04624" lon="2.37696">
        <ele>7.35</ele>
        <time>2021-08-07T06:03:28Z</time>
      </trkpt>
      <trkpt lat="51.04623" lon="2.37689">
        <ele>8.31</ele>
        <time>2021-08-07T06:03:29Z</time>
      </trkpt>
      <trkpt lat="51.04622" lon="2.37684">
        <ele>8.31</ele>
        <time>2021-08-07T06:03:30Z</time>
      </trkpt>
      <trkpt lat="51.04621" lon="2.37676">
        <ele>8.31</ele>
        <time>2021-08-07T06:03:32Z</time>
      </trkpt>
      <trkpt lat="51.04622" lon="2.37672">
        <ele>8.31</ele>
        <time>2021-08-07T06:03:33Z</time>
      </trkpt>
      <trkpt lat="51.04623" lon="2.37667">
        <ele>8.31</ele>
        <time>2021-08-07T06:03:34Z</time>
      </trkpt>
      <trkpt lat="51.04623" lon="2.37658">
        <ele>8.31</ele>
        <time>2021-08-07T06:03:35Z</time>
      </trkpt>
      <trkpt lat="51.04623" lon="2.37653">
        <ele>8.31</ele>
        <time>2021-08-07T06:03:36Z</time>
      </trkpt>
      <trkpt lat="51.04622" lon="2.37647">
        <ele>8.31</ele>
        <time>2021-08-07T06:03:37Z</time>
      </trkpt>
      <trkpt lat="51.0462" lon="2.37639">
        <ele>8.31</ele>
        <time>2021-08-07T06:03:38Z</time>
      </trkpt>
      <trkpt lat="51.04611" lon="2.376">
        <ele>8.31</ele>
        <time>2021-08-07T06:03:43Z</time>
      </trkpt>
      <trkpt lat="51.04608" lon="2.37596">
        <ele>8.31</ele>
        <time>2021-08-07T06:03:44Z</time>
      </trkpt>
      <trkpt lat="51.04604" lon="2.37592">
        <ele>8.31</ele>
        <time>2021-08-07T06:03:45Z</time>
      </trkpt>
      <trkpt lat="51.046" lon="2.37586">
        <ele>8.31</ele>
        <time>2021-08-07T06:03:46Z</time>
      </trkpt>
      <trkpt lat="51.04598" lon="2.37579">
        <ele>8.31</ele>
        <time>2021-08-07T06:03:47Z</time>
      </trkpt>
      <trkpt lat="51.04596" lon="2.3757">
        <ele>8.31</ele>
        <time>2021-08-07T06:03:48Z</time>
      </trkpt>
      <trkpt lat="51.04595" lon="2.37563">
        <ele>8.31</ele>
        <time>2021-08-07T06:03:49Z</time>
      </trkpt>
      <trkpt lat="51.04587" lon="2.37521">
        <ele>8.31</ele>
        <time>2021-08-07T06:03:54Z</time>
      </trkpt>
      <trkpt lat="51.04572" lon="2.37442">
        <ele>8.31</ele>
        <time>2021-08-07T06:04:03Z</time>
      </trkpt>
      <trkpt lat="51.04569" lon="2.37407">
        <ele>8.31</ele>
        <time>2021-08-07T06:04:07Z</time>
      </trkpt>
      <trkpt lat="51.04568" lon="2.37397">
        <ele>8.31</ele>
        <time>2021-08-07T06:04:08Z</time>
      </trkpt>
      <trkpt lat="51.04568" lon="2.37381">
        <ele>8.31</ele>
        <time>2021-08-07T06:04:10Z</time>
      </trkpt>
      <trkpt lat="51.04566" lon="2.37375">
        <ele>8.31</ele>
        <time>2021-08-07T06:04:11Z</time>
      </trkpt>
      <trkpt lat="51.04562" lon="2.37371">
        <ele>8.31</ele>
        <time>2021-08-07T06:04:12Z</time>
      </trkpt>
      <trkpt lat="51.04558" lon="2.3737">
        <ele>8.31</ele>
        <time>2021-08-07T06:04:13Z</time>
      </trkpt>
      <trkpt lat="51.04553" lon="2.37373">
        <ele>8.79</ele>
        <time>2021-08-07T06:04:14Z</time>
      </trkpt>
      <trkpt lat="51.04549" lon="2.37378">
        <ele>8.79</ele>
        <time>2021-08-07T06:04:15Z</time>
      </trkpt>
      <trkpt lat="51.04545" lon="2.37384">
        <ele>7.35</ele>
        <time>2021-08-07T06:04:16Z</time>
      </trkpt>
      <trkpt lat="51.04541" lon="2.3739">
        <ele>7.35</ele>
        <time>2021-08-07T06:04:17Z</time>
      </trkpt>
      <trkpt lat="51.04537" lon="2.37396">
        <ele>7.35</ele>
        <time>2021-08-07T06:04:18Z</time>
      </trkpt>
      <trkpt lat="51.0451" lon="2.3743">
        <ele>7.83</ele>
        <time>2021-08-07T06:04:25Z</time>
      </trkpt>
      <trkpt lat="51.04484" lon="2.37472">
        <ele>7.35</ele>
        <time>2021-08-07T06:04:32Z</time>
      </trkpt>
      <trkpt lat="51.04477" lon="2.37483">
        <ele>7.35</ele>
        <time>2021-08-07T06:04:34Z</time>
      </trkpt>
      <trkpt lat="51.04445" lon="2.37519">
        <ele>7.35</ele>
        <time>2021-08-07T06:04:41Z</time>
      </trkpt>
      <trkpt lat="51.04432" lon="2.37535">
        <ele>7.35</ele>
        <time>2021-08-07T06:04:44Z</time>
      </trkpt>
      <trkpt lat="51.04423" lon="2.37543">
        <ele>7.35</ele>
        <time>2021-08-07T06:04:46Z</time>
      </trkpt>
      <trkpt lat="51.04419" lon="2.37545">
        <ele>7.35</ele>
        <time>2021-08-07T06:04:47Z</time>
      </trkpt>
      <trkpt lat="51.04367" lon="2.37551">
        <ele>7.83</ele>
        <time>2021-08-07T06:04:56Z</time>
      </trkpt>
      <trkpt lat="51.04316" lon="2.37564">
        <ele>7.35</ele>
        <time>2021-08-07T06:05:05Z</time>
      </trkpt>
      <trkpt lat="51.04312" lon="2.37567">
        <ele>7.35</ele>
        <time>2021-08-07T06:05:06Z</time>
      </trkpt>
      <trkpt lat="51.04275" lon="2.37603">
        <ele>6.87</ele>
        <time>2021-08-07T06:05:14Z</time>
      </trkpt>
      <trkpt lat="51.04248" lon="2.37635">
        <ele>8.31</ele>
        <time>2021-08-07T06:05:21Z</time>
      </trkpt>
      <trkpt lat="51.04226" lon="2.37663">
        <ele>6.87</ele>
        <time>2021-08-07T06:05:27Z</time>
      </trkpt>
      <trkpt lat="51.04183" lon="2.37718">
        <ele>6.87</ele>
        <time>2021-08-07T06:05:36Z</time>
      </trkpt>
      <trkpt lat="51.04156" lon="2.37753">
        <ele>7.35</ele>
        <time>2021-08-07T06:05:42Z</time>
      </trkpt>
      <trkpt lat="51.04118" lon="2.37805">
        <ele>7.83</ele>
        <time>2021-08-07T06:05:51Z</time>
      </trkpt>
      <trkpt lat="51.04103" lon="2.37822">
        <ele>7.83</ele>
        <time>2021-08-07T06:05:54Z</time>
      </trkpt>
      <trkpt lat="51.04098" lon="2.37826">
        <ele>7.83</ele>
        <time>2021-08-07T06:05:55Z</time>
      </trkpt>
      <trkpt lat="51.04082" lon="2.37835">
        <ele>7.83</ele>
        <time>2021-08-07T06:05:58Z</time>
      </trkpt>
      <trkpt lat="51.04076" lon="2.37836">
        <ele>7.83</ele>
        <time>2021-08-07T06:05:59Z</time>
      </trkpt>
      <trkpt lat="51.0407" lon="2.37835">
        <ele>7.83</ele>
        <time>2021-08-07T06:06:00Z</time>
      </trkpt>
      <trkpt lat="51.04065" lon="2.37835">
        <ele>7.83</ele>
        <time>2021-08-07T06:06:01Z</time>
      </trkpt>
      <trkpt lat="51.04059" lon="2.37834">
        <ele>7.83</ele>
        <time>2021-08-07T06:06:02Z</time>
      </trkpt>
      <trkpt lat="51.04002" lon="2.37824">
        <ele>7.83</ele>
        <time>2021-08-07T06:06:12Z</time>
      </trkpt>
      <trkpt lat="51.03962" lon="2.37804">
        <ele>8.79</ele>
        <time>2021-08-07T06:06:20Z</time>
      </trkpt>
      <trkpt lat="51.03925" lon="2.3777">
        <ele>8.79</ele>
        <time>2021-08-07T06:06:28Z</time>
      </trkpt>
      <trkpt lat="51.03901" lon="2.37742">
        <ele>7.35</ele>
        <time>2021-08-07T06:06:33Z</time>
      </trkpt>
      <trkpt lat="51.03897" lon="2.37735">
        <ele>7.35</ele>
        <time>2021-08-07T06:06:34Z</time>
      </trkpt>
      <trkpt lat="51.03893" lon="2.37727">
        <ele>7.35</ele>
        <time>2021-08-07T06:06:35Z</time>
      </trkpt>
      <trkpt lat="51.03891" lon="2.37718">
        <ele>7.35</ele>
        <time>2021-08-07T06:06:36Z</time>
      </trkpt>
      <trkpt lat="51.03888" lon="2.37709">
        <ele>7.35</ele>
        <time>2021-08-07T06:06:37Z</time>
      </trkpt>
      <trkpt lat="51.03861" lon="2.37623">
        <ele>7.35</ele>
        <time>2021-08-07T06:06:47Z</time>
      </trkpt>
      <trkpt lat="51.03841" lon="2.37552">
        <ele>7.35</ele>
        <time>2021-08-07T06:06:55Z</time>
      </trkpt>
      <trkpt lat="51.03839" lon="2.37544">
        <ele>7.35</ele>
        <time>2021-08-07T06:06:56Z</time>
      </trkpt>
      <trkpt lat="51.03805" lon="2.37478">
        <ele>7.35</ele>
        <time>2021-08-07T06:07:05Z</time>
      </trkpt>
      <trkpt lat="51.03765" lon="2.37414">
        <ele>7.35</ele>
        <time>2021-08-07T06:07:14Z</time>
      </trkpt>
      <trkpt lat="51.03726" lon="2.37367">
        <ele>7.35</ele>
        <time>2021-08-07T06:07:22Z</time>
      </trkpt>
      <trkpt lat="51.03675" lon="2.37323">
        <ele>7.35</ele>
        <time>2021-08-07T06:07:32Z</time>
      </trkpt>
      <trkpt lat="51.03623" lon="2.37287">
        <ele>8.79</ele>
        <time>2021-08-07T06:07:42Z</time>
      </trkpt>
      <trkpt lat="51.03618" lon="2.37283">
        <ele>8.79</ele>
        <time>2021-08-07T06:07:43Z</time>
      </trkpt>
      <trkpt lat="51.03614" lon="2.37279">
        <ele>8.79</ele>
        <time>2021-08-07T06:07:44Z</time>
      </trkpt>
      <trkpt lat="51.03573" lon="2.37252">
        <ele>8.79</ele>
        <time>2021-08-07T06:07:53Z</time>
      </trkpt>
      <trkpt lat="51.03569" lon="2.37248">
        <ele>8.79</ele>
        <time>2021-08-07T06:07:54Z</time>
      </trkpt>
      <trkpt lat="51.03565" lon="2.37245">
        <ele>8.79</ele>
        <time>2021-08-07T06:07:55Z</time>
      </trkpt>
      <trkpt lat="51.03561" lon="2.37242">
        <ele>8.79</ele>
        <time>2021-08-07T06:07:56Z</time>
      </trkpt>
      <trkpt lat="51.03515" lon="2.37228">
        <ele>7.83</ele>
        <time>2021-08-07T06:08:05Z</time>
      </trkpt>
      <trkpt lat="51.0345" lon="2.37208">
        <ele>7.83</ele>
        <time>2021-08-07T06:08:17Z</time>
      </trkpt>
      <trkpt lat="51.0339" lon="2.37188">
        <ele>7.83</ele>
        <time>2021-08-07T06:08:28Z</time>
      </trkpt>
      <trkpt lat="51.03314" lon="2.37163">
        <ele>7.83</ele>
        <time>2021-08-07T06:08:42Z</time>
      </trkpt>
      <trkpt lat="51.03276" lon="2.37151">
        <ele>7.83</ele>
        <time>2021-08-07T06:08:49Z</time>
      </trkpt>
      <trkpt lat="51.0327" lon="2.37151">
        <ele>7.83</ele>
        <time>2021-08-07T06:08:50Z</time>
      </trkpt>
      <trkpt lat="51.03265" lon="2.37153">
        <ele>7.35</ele>
        <time>2021-08-07T06:08:51Z</time>
      </trkpt>
      <trkpt lat="51.03246" lon="2.37161">
        <ele>6.87</ele>
        <time>2021-08-07T06:08:55Z</time>
      </trkpt>
      <trkpt lat="51.03241" lon="2.37162">
        <ele>6.87</ele>
        <time>2021-08-07T06:08:56Z</time>
      </trkpt>
      <trkpt lat="51.03211" lon="2.37163">
        <ele>6.87</ele>
        <time>2021-08-07T06:09:02Z</time>
      </trkpt>
      <trkpt lat="51.03208" lon="2.37161">
        <ele>6.87</ele>
        <time>2021-08-07T06:09:03Z</time>
      </trkpt>
      <trkpt lat="51.03199" lon="2.37159">
        <ele>8.31</ele>
        <time>2021-08-07T06:09:08Z</time>
      </trkpt>
      <trkpt lat="51.03185" lon="2.37149">
        <ele>8.31</ele>
        <time>2021-08-07T06:09:12Z</time>
      </trkpt>
      <trkpt lat="51.03183" lon="2.37143">
        <ele>8.31</ele>
        <time>2021-08-07T06:09:13Z</time>
      </trkpt>
      <trkpt lat="51.03181" lon="2.37139">
        <ele>8.31</ele>
        <time>2021-08-07T06:09:14Z</time>
      </trkpt>
      <trkpt lat="51.03179" lon="2.37134">
        <ele>8.31</ele>
        <time>2021-08-07T06:09:15Z</time>
      </trkpt>
      <trkpt lat="51.03177" lon="2.37128">
        <ele>8.31</ele>
        <time>2021-08-07T06:09:16Z</time>
      </trkpt>
      <trkpt lat="51.03174" lon="2.37125">
        <ele>7.83</ele>
        <time>2021-08-07T06:09:17Z</time>
      </trkpt>
      <trkpt lat="51.0317" lon="2.37122">
        <ele>7.83</ele>
        <time>2021-08-07T06:09:18Z</time>
      </trkpt>
      <trkpt lat="51.03166" lon="2.37122">
        <ele>8.31</ele>
        <time>2021-08-07T06:09:19Z</time>
      </trkpt>
      <trkpt lat="51.03163" lon="2.37122">
        <ele>7.83</ele>
        <time>2021-08-07T06:09:20Z</time>
      </trkpt>
      <trkpt lat="51.03158" lon="2.37122">
        <ele>7.83</ele>
        <time>2021-08-07T06:09:21Z</time>
      </trkpt>
      <trkpt lat="51.03153" lon="2.37122">
        <ele>7.83</ele>
        <time>2021-08-07T06:09:22Z</time>
      </trkpt>
      <trkpt lat="51.03143" lon="2.37123">
        <ele>6.87</ele>
        <time>2021-08-07T06:09:24Z</time>
      </trkpt>
      <trkpt lat="51.03102" lon="2.37122">
        <ele>6.87</ele>
        <time>2021-08-07T06:09:32Z</time>
      </trkpt>
      <trkpt lat="51.03098" lon="2.3712">
        <ele>6.87</ele>
        <time>2021-08-07T06:09:33Z</time>
      </trkpt>
      <trkpt lat="51.03089" lon="2.37114">
        <ele>6.87</ele>
        <time>2021-08-07T06:09:35Z</time>
      </trkpt>
      <trkpt lat="51.03085" lon="2.37113">
        <ele>6.87</ele>
        <time>2021-08-07T06:09:36Z</time>
      </trkpt>
      <trkpt lat="51.03081" lon="2.37115">
        <ele>6.87</ele>
        <time>2021-08-07T06:09:37Z</time>
      </trkpt>
      <trkpt lat="51.03077" lon="2.37118">
        <ele>6.87</ele>
        <time>2021-08-07T06:09:38Z</time>
      </trkpt>
      <trkpt lat="51.03072" lon="2.37121">
        <ele>6.87</ele>
        <time>2021-08-07T06:09:39Z</time>
      </trkpt>
      <trkpt lat="51.03069" lon="2.37123">
        <ele>6.87</ele>
        <time>2021-08-07T06:09:40Z</time>
      </trkpt>
      <trkpt lat="51.03063" lon="2.37123">
        <ele>6.87</ele>
        <time>2021-08-07T06:09:41Z</time>
      </trkpt>
      <trkpt lat="51.03058" lon="2.37124">
        <ele>6.87</ele>
        <time>2021-08-07T06:09:42Z</time>
      </trkpt>
      <trkpt lat="51.03044" lon="2.37125">
        <ele>8.31</ele>
        <time>2021-08-07T06:09:45Z</time>
      </trkpt>
      <trkpt lat="51.03039" lon="2.37125">
        <ele>8.31</ele>
        <time>2021-08-07T06:09:46Z</time>
      </trkpt>
      <trkpt lat="51.03019" lon="2.37128">
        <ele>8.31</ele>
        <time>2021-08-07T06:09:50Z</time>
      </trkpt>
      <trkpt lat="51.03015" lon="2.37128">
        <ele>8.31</ele>
        <time>2021-08-07T06:09:51Z</time>
      </trkpt>
      <trkpt lat="51.03011" lon="2.37127">
        <ele>8.31</ele>
        <time>2021-08-07T06:09:52Z</time>
      </trkpt>
      <trkpt lat="51.03006" lon="2.37128">
        <ele>8.31</ele>
        <time>2021-08-07T06:09:53Z</time>
      </trkpt>
      <trkpt lat="51.03001" lon="2.37129">
        <ele>8.31</ele>
        <time>2021-08-07T06:09:54Z</time>
      </trkpt>
      <trkpt lat="51.02965" lon="2.37144">
        <ele>8.79</ele>
        <time>2021-08-07T06:10:02Z</time>
      </trkpt>
      <trkpt lat="51.02942" lon="2.3715">
        <ele>8.79</ele>
        <time>2021-08-07T06:10:09Z</time>
      </trkpt>
      <trkpt lat="51.0294" lon="2.37148">
        <ele>8.79</ele>
        <time>2021-08-07T06:10:10Z</time>
      </trkpt>
      <trkpt lat="51.02938" lon="2.37146">
        <ele>8.79</ele>
        <time>2021-08-07T06:10:11Z</time>
      </trkpt>
      <trkpt lat="51.02936" lon="2.37145">
        <ele>8.79</ele>
        <time>2021-08-07T06:10:12Z</time>
      </trkpt>
      <trkpt lat="51.02934" lon="2.37145">
        <ele>8.79</ele>
        <time>2021-08-07T06:10:13Z</time>
      </trkpt>
      <trkpt lat="51.02932" lon="2.37147">
        <ele>8.79</ele>
        <time>2021-08-07T06:10:14Z</time>
      </trkpt>
      <trkpt lat="51.02931" lon="2.37148">
        <ele>8.79</ele>
        <time>2021-08-07T06:10:15Z</time>
      </trkpt>
      <trkpt lat="51.02929" lon="2.37149">
        <ele>8.79</ele>
        <time>2021-08-07T06:10:16Z</time>
      </trkpt>
      <trkpt lat="51.02928" lon="2.3715">
        <ele>8.79</ele>
        <time>2021-08-07T06:10:17Z</time>
      </trkpt>
      <trkpt lat="51.02926" lon="2.3715">
        <ele>8.79</ele>
        <time>2021-08-07T06:10:23Z</time>
      </trkpt>
      <trkpt lat="51.02926" lon="2.37151">
        <ele>8.79</ele>
        <time>2021-08-07T06:10:28Z</time>
      </trkpt>
      <trkpt lat="51.02924" lon="2.37152">
        <ele>7.35</ele>
        <time>2021-08-07T06:10:29Z</time>
      </trkpt>
      <trkpt lat="51.0291" lon="2.3717">
        <ele>6.87</ele>
        <time>2021-08-07T06:10:35Z</time>
      </trkpt>
      <trkpt lat="51.02906" lon="2.37172">
        <ele>6.87</ele>
        <time>2021-08-07T06:10:36Z</time>
      </trkpt>
      <trkpt lat="51.02876" lon="2.37186">
        <ele>6.39</ele>
        <time>2021-08-07T06:10:42Z</time>
      </trkpt>
      <trkpt lat="51.02828" lon="2.37209">
        <ele>5.91</ele>
        <time>2021-08-07T06:10:50Z</time>
      </trkpt>
      <trkpt lat="51.02764" lon="2.37241">
        <ele>4.94</ele>
        <time>2021-08-07T06:11:01Z</time>
      </trkpt>
      <trkpt lat="51.02717" lon="2.37262">
        <ele>4.94</ele>
        <time>2021-08-07T06:11:09Z</time>
      </trkpt>
      <trkpt lat="51.02646" lon="2.37289">
        <ele>5.42</ele>
        <time>2021-08-07T06:11:21Z</time>
      </trkpt>
      <trkpt lat="51.02592" lon="2.37309">
        <ele>4.46</ele>
        <time>2021-08-07T06:11:30Z</time>
      </trkpt>
      <trkpt lat="51.02571" lon="2.37317">
        <ele>5.91</ele>
        <time>2021-08-07T06:11:34Z</time>
      </trkpt>
      <trkpt lat="51.02523" lon="2.37338">
        <ele>5.91</ele>
        <time>2021-08-07T06:11:43Z</time>
      </trkpt>
      <trkpt lat="51.02475" lon="2.37359">
        <ele>5.91</ele>
        <time>2021-08-07T06:11:52Z</time>
      </trkpt>
      <trkpt lat="51.02423" lon="2.37384">
        <ele>6.39</ele>
        <time>2021-08-07T06:12:03Z</time>
      </trkpt>
      <trkpt lat="51.0242" lon="2.37387">
        <ele>6.39</ele>
        <time>2021-08-07T06:12:04Z</time>
      </trkpt>
      <trkpt lat="51.02417" lon="2.37392">
        <ele>6.39</ele>
        <time>2021-08-07T06:12:05Z</time>
      </trkpt>
      <trkpt lat="51.02415" lon="2.37399">
        <ele>6.39</ele>
        <time>2021-08-07T06:12:06Z</time>
      </trkpt>
      <trkpt lat="51.02415" lon="2.37405">
        <ele>6.39</ele>
        <time>2021-08-07T06:12:07Z</time>
      </trkpt>
      <trkpt lat="51.02414" lon="2.37412">
        <ele>6.87</ele>
        <time>2021-08-07T06:12:08Z</time>
      </trkpt>
      <trkpt lat="51.02407" lon="2.3747">
        <ele>7.35</ele>
        <time>2021-08-07T06:12:17Z</time>
      </trkpt>
      <trkpt lat="51.02403" lon="2.37496">
        <ele>7.35</ele>
        <time>2021-08-07T06:12:21Z</time>
      </trkpt>
      <trkpt lat="51.024" lon="2.375">
        <ele>7.35</ele>
        <time>2021-08-07T06:12:22Z</time>
      </trkpt>
      <trkpt lat="51.02396" lon="2.37502">
        <ele>7.35</ele>
        <time>2021-08-07T06:12:23Z</time>
      </trkpt>
      <trkpt lat="51.02393" lon="2.37503">
        <ele>7.35</ele>
        <time>2021-08-07T06:12:24Z</time>
      </trkpt>
      <trkpt lat="51.02389" lon="2.37506">
        <ele>7.35</ele>
        <time>2021-08-07T06:12:25Z</time>
      </trkpt>
      <trkpt lat="51.02386" lon="2.3751">
        <ele>7.35</ele>
        <time>2021-08-07T06:12:26Z</time>
      </trkpt>
      <trkpt lat="51.02384" lon="2.37515">
        <ele>7.35</ele>
        <time>2021-08-07T06:12:27Z</time>
      </trkpt>
      <trkpt lat="51.02383" lon="2.37523">
        <ele>7.35</ele>
        <time>2021-08-07T06:12:28Z</time>
      </trkpt>
      <trkpt lat="51.02385" lon="2.3753">
        <ele>7.35</ele>
        <time>2021-08-07T06:12:29Z</time>
      </trkpt>
      <trkpt lat="51.02388" lon="2.37536">
        <ele>7.83</ele>
        <time>2021-08-07T06:12:30Z</time>
      </trkpt>
      <trkpt lat="51.02415" lon="2.37604">
        <ele>7.83</ele>
        <time>2021-08-07T06:12:40Z</time>
      </trkpt>
      <trkpt lat="51.02441" lon="2.3767">
        <ele>7.83</ele>
        <time>2021-08-07T06:12:49Z</time>
      </trkpt>
      <trkpt lat="51.02461" lon="2.37717">
        <ele>7.83</ele>
        <time>2021-08-07T06:12:56Z</time>
      </trkpt>
      <trkpt lat="51.02462" lon="2.37724">
        <ele>7.83</ele>
        <time>2021-08-07T06:12:57Z</time>
      </trkpt>
      <trkpt lat="51.02462" lon="2.3773">
        <ele>7.83</ele>
        <time>2021-08-07T06:12:58Z</time>
      </trkpt>
      <trkpt lat="51.02461" lon="2.37735">
        <ele>7.83</ele>
        <time>2021-08-07T06:12:59Z</time>
      </trkpt>
      <trkpt lat="51.02459" lon="2.37738">
        <ele>7.83</ele>
        <time>2021-08-07T06:13:00Z</time>
      </trkpt>
      <trkpt lat="51.02456" lon="2.37741">
        <ele>7.83</ele>
        <time>2021-08-07T06:13:01Z</time>
      </trkpt>
      <trkpt lat="51.02453" lon="2.37743">
        <ele>7.83</ele>
        <time>2021-08-07T06:13:02Z</time>
      </trkpt>
      <trkpt lat="51.02421" lon="2.37763">
        <ele>7.83</ele>
        <time>2021-08-07T06:13:11Z</time>
      </trkpt>
      <trkpt lat="51.02418" lon="2.37764">
        <ele>7.83</ele>
        <time>2021-08-07T06:13:12Z</time>
      </trkpt>
      <trkpt lat="51.02414" lon="2.37761">
        <ele>7.83</ele>
        <time>2021-08-07T06:13:13Z</time>
      </trkpt>
      <trkpt lat="51.02411" lon="2.37755">
        <ele>7.83</ele>
        <time>2021-08-07T06:13:14Z</time>
      </trkpt>
      <trkpt lat="51.02403" lon="2.37738">
        <ele>6.39</ele>
        <time>2021-08-07T06:13:17Z</time>
      </trkpt>
      <trkpt lat="51.02378" lon="2.37675">
        <ele>6.39</ele>
        <time>2021-08-07T06:13:25Z</time>
      </trkpt>
      <trkpt lat="51.02344" lon="2.37623">
        <ele>5.42</ele>
        <time>2021-08-07T06:13:33Z</time>
      </trkpt>
      <trkpt lat="51.02301" lon="2.37571">
        <ele>5.42</ele>
        <time>2021-08-07T06:13:42Z</time>
      </trkpt>
      <trkpt lat="51.02263" lon="2.37552">
        <ele>5.42</ele>
        <time>2021-08-07T06:13:49Z</time>
      </trkpt>
      <trkpt lat="51.02218" lon="2.3756">
        <ele>5.42</ele>
        <time>2021-08-07T06:13:57Z</time>
      </trkpt>
      <trkpt lat="51.02165" lon="2.37585">
        <ele>4.94</ele>
        <time>2021-08-07T06:14:07Z</time>
      </trkpt>
      <trkpt lat="51.02118" lon="2.37608">
        <ele>6.39</ele>
        <time>2021-08-07T06:14:16Z</time>
      </trkpt>
      <trkpt lat="51.02061" lon="2.37634">
        <ele>6.39</ele>
        <time>2021-08-07T06:14:27Z</time>
      </trkpt>
      <trkpt lat="51.02018" lon="2.37656">
        <ele>6.39</ele>
        <time>2021-08-07T06:14:36Z</time>
      </trkpt>
      <trkpt lat="51.01982" lon="2.37672">
        <ele>6.87</ele>
        <time>2021-08-07T06:14:44Z</time>
      </trkpt>
      <trkpt lat="51.01938" lon="2.37689">
        <ele>5.91</ele>
        <time>2021-08-07T06:14:53Z</time>
      </trkpt>
      <trkpt lat="51.01885" lon="2.37715">
        <ele>5.42</ele>
        <time>2021-08-07T06:15:03Z</time>
      </trkpt>
      <trkpt lat="51.01836" lon="2.37741">
        <ele>6.39</ele>
        <time>2021-08-07T06:15:13Z</time>
      </trkpt>
      <trkpt lat="51.01787" lon="2.37764">
        <ele>7.35</ele>
        <time>2021-08-07T06:15:23Z</time>
      </trkpt>
      <trkpt lat="51.01762" lon="2.37777">
        <ele>7.35</ele>
        <time>2021-08-07T06:15:28Z</time>
      </trkpt>
      <trkpt lat="51.01758" lon="2.37779">
        <ele>7.35</ele>
        <time>2021-08-07T06:15:29Z</time>
      </trkpt>
      <trkpt lat="51.01754" lon="2.3778">
        <ele>7.35</ele>
        <time>2021-08-07T06:15:30Z</time>
      </trkpt>
      <trkpt lat="51.01749" lon="2.37782">
        <ele>7.35</ele>
        <time>2021-08-07T06:15:31Z</time>
      </trkpt>
      <trkpt lat="51.01743" lon="2.37785">
        <ele>7.35</ele>
        <time>2021-08-07T06:15:32Z</time>
      </trkpt>
      <trkpt lat="51.01738" lon="2.37788">
        <ele>7.35</ele>
        <time>2021-08-07T06:15:33Z</time>
      </trkpt>
      <trkpt lat="51.01727" lon="2.37793">
        <ele>5.91</ele>
        <time>2021-08-07T06:15:35Z</time>
      </trkpt>
      <trkpt lat="51.01661" lon="2.37826">
        <ele>5.42</ele>
        <time>2021-08-07T06:15:46Z</time>
      </trkpt>
      <trkpt lat="51.01592" lon="2.3786">
        <ele>5.42</ele>
        <time>2021-08-07T06:15:58Z</time>
      </trkpt>
      <trkpt lat="51.01539" lon="2.37885">
        <ele>6.39</ele>
        <time>2021-08-07T06:16:08Z</time>
      </trkpt>
      <trkpt lat="51.01524" lon="2.3789">
        <ele>6.39</ele>
        <time>2021-08-07T06:16:11Z</time>
      </trkpt>
      <trkpt lat="51.01518" lon="2.37892">
        <ele>6.39</ele>
        <time>2021-08-07T06:16:12Z</time>
      </trkpt>
      <trkpt lat="51.0147" lon="2.37915">
        <ele>5.42</ele>
        <time>2021-08-07T06:16:20Z</time>
      </trkpt>
      <trkpt lat="51.01417" lon="2.37939">
        <ele>5.42</ele>
        <time>2021-08-07T06:16:28Z</time>
      </trkpt>
      <trkpt lat="51.01345" lon="2.37973">
        <ele>5.42</ele>
        <time>2021-08-07T06:16:39Z</time>
      </trkpt>
      <trkpt lat="51.0129" lon="2.38006">
        <ele>4.46</ele>
        <time>2021-08-07T06:16:48Z</time>
      </trkpt>
      <trkpt lat="51.01224" lon="2.38036">
        <ele>4.46</ele>
        <time>2021-08-07T06:16:59Z</time>
      </trkpt>
      <trkpt lat="51.01212" lon="2.38038">
        <ele>5.91</ele>
        <time>2021-08-07T06:17:01Z</time>
      </trkpt>
      <trkpt lat="51.01172" lon="2.38053">
        <ele>5.91</ele>
        <time>2021-08-07T06:17:07Z</time>
      </trkpt>
      <trkpt lat="51.01159" lon="2.38059">
        <ele>4.46</ele>
        <time>2021-08-07T06:17:09Z</time>
      </trkpt>
      <trkpt lat="51.01094" lon="2.38088">
        <ele>3.5</ele>
        <time>2021-08-07T06:17:19Z</time>
      </trkpt>
      <trkpt lat="51.0103" lon="2.3811">
        <ele>3.5</ele>
        <time>2021-08-07T06:17:29Z</time>
      </trkpt>
      <trkpt lat="51.00949" lon="2.3814">
        <ele>3.5</ele>
        <time>2021-08-07T06:17:42Z</time>
      </trkpt>
      <trkpt lat="51.00886" lon="2.38162">
        <ele>3.5</ele>
        <time>2021-08-07T06:17:51Z</time>
      </trkpt>
      <trkpt lat="51.00842" lon="2.3818">
        <ele>3.5</ele>
        <time>2021-08-07T06:17:58Z</time>
      </trkpt>
      <trkpt lat="51.00789" lon="2.38199">
        <ele>3.5</ele>
        <time>2021-08-07T06:18:07Z</time>
      </trkpt>
      <trkpt lat="51.00737" lon="2.38218">
        <ele>3.5</ele>
        <time>2021-08-07T06:18:16Z</time>
      </trkpt>
      <trkpt lat="51.0067" lon="2.38245">
        <ele>3.5</ele>
        <time>2021-08-07T06:18:27Z</time>
      </trkpt>
      <trkpt lat="51.00623" lon="2.38261">
        <ele>3.5</ele>
        <time>2021-08-07T06:18:35Z</time>
      </trkpt>
      <trkpt lat="51.00559" lon="2.38285">
        <ele>3.5</ele>
        <time>2021-08-07T06:18:46Z</time>
      </trkpt>
      <trkpt lat="51.00508" lon="2.38305">
        <ele>3.5</ele>
        <time>2021-08-07T06:18:55Z</time>
      </trkpt>
      <trkpt lat="51.0047" lon="2.38324">
        <ele>4.46</ele>
        <time>2021-08-07T06:19:03Z</time>
      </trkpt>
      <trkpt lat="51.0042" lon="2.38346">
        <ele>5.42</ele>
        <time>2021-08-07T06:19:13Z</time>
      </trkpt>
      <trkpt lat="51.00389" lon="2.38361">
        <ele>5.42</ele>
        <time>2021-08-07T06:19:19Z</time>
      </trkpt>
      <trkpt lat="51.00346" lon="2.38377">
        <ele>5.42</ele>
        <time>2021-08-07T06:19:27Z</time>
      </trkpt>
      <trkpt lat="51.00311" lon="2.38394">
        <ele>5.42</ele>
        <time>2021-08-07T06:19:35Z</time>
      </trkpt>
      <trkpt lat="51.00293" lon="2.38405">
        <ele>5.91</ele>
        <time>2021-08-07T06:19:42Z</time>
      </trkpt>
      <trkpt lat="51.00281" lon="2.38413">
        <ele>6.39</ele>
        <time>2021-08-07T06:19:46Z</time>
      </trkpt>
      <trkpt lat="51.00278" lon="2.38417">
        <ele>6.39</ele>
        <time>2021-08-07T06:19:47Z</time>
      </trkpt>
      <trkpt lat="51.00276" lon="2.38422">
        <ele>6.39</ele>
        <time>2021-08-07T06:19:48Z</time>
      </trkpt>
      <trkpt lat="51.00275" lon="2.38427">
        <ele>6.39</ele>
        <time>2021-08-07T06:19:49Z</time>
      </trkpt>
      <trkpt lat="51.00277" lon="2.38434">
        <ele>6.39</ele>
        <time>2021-08-07T06:19:50Z</time>
      </trkpt>
      <trkpt lat="51.00279" lon="2.38439">
        <ele>6.39</ele>
        <time>2021-08-07T06:19:51Z</time>
      </trkpt>
      <trkpt lat="51.00282" lon="2.38445">
        <ele>6.39</ele>
        <time>2021-08-07T06:19:52Z</time>
      </trkpt>
      <trkpt lat="51.00286" lon="2.38452">
        <ele>6.39</ele>
        <time>2021-08-07T06:19:53Z</time>
      </trkpt>
      <trkpt lat="51.0029" lon="2.38458">
        <ele>6.39</ele>
        <time>2021-08-07T06:19:54Z</time>
      </trkpt>
      <trkpt lat="51.00295" lon="2.38464">
        <ele>6.39</ele>
        <time>2021-08-07T06:19:55Z</time>
      </trkpt>
      <trkpt lat="51.00317" lon="2.38489">
        <ele>4.94</ele>
        <time>2021-08-07T06:19:59Z</time>
      </trkpt>
      <trkpt lat="51.00335" lon="2.38511">
        <ele>4.46</ele>
        <time>2021-08-07T06:20:02Z</time>
      </trkpt>
      <trkpt lat="51.00362" lon="2.3857">
        <ele>3.98</ele>
        <time>2021-08-07T06:20:08Z</time>
      </trkpt>
      <trkpt lat="51.00372" lon="2.38614">
        <ele>3.5</ele>
        <time>2021-08-07T06:20:12Z</time>
      </trkpt>
      <trkpt lat="51.00374" lon="2.38625">
        <ele>3.5</ele>
        <time>2021-08-07T06:20:13Z</time>
      </trkpt>
      <trkpt lat="51.00374" lon="2.38686">
        <ele>4.94</ele>
        <time>2021-08-07T06:20:19Z</time>
      </trkpt>
      <trkpt lat="51.00373" lon="2.38695">
        <ele>4.94</ele>
        <time>2021-08-07T06:20:20Z</time>
      </trkpt>
      <trkpt lat="51.00351" lon="2.3881">
        <ele>5.91</ele>
        <time>2021-08-07T06:20:31Z</time>
      </trkpt>
      <trkpt lat="51.00334" lon="2.38917">
        <ele>6.39</ele>
        <time>2021-08-07T06:20:42Z</time>
      </trkpt>
      <trkpt lat="51.00331" lon="2.39009">
        <ele>5.91</ele>
        <time>2021-08-07T06:20:51Z</time>
      </trkpt>
      <trkpt lat="51.00328" lon="2.39105">
        <ele>4.94</ele>
        <time>2021-08-07T06:21:00Z</time>
      </trkpt>
      <trkpt lat="51.00332" lon="2.39176">
        <ele>4.46</ele>
        <time>2021-08-07T06:21:07Z</time>
      </trkpt>
      <trkpt lat="51.00334" lon="2.39185">
        <ele>4.46</ele>
        <time>2021-08-07T06:21:08Z</time>
      </trkpt>
      <trkpt lat="51.00336" lon="2.39195">
        <ele>4.46</ele>
        <time>2021-08-07T06:21:09Z</time>
      </trkpt>
      <trkpt lat="51.00338" lon="2.39205">
        <ele>4.46</ele>
        <time>2021-08-07T06:21:10Z</time>
      </trkpt>
      <trkpt lat="51.00341" lon="2.39215">
        <ele>4.46</ele>
        <time>2021-08-07T06:21:11Z</time>
      </trkpt>
      <trkpt lat="51.00359" lon="2.39293">
        <ele>3.98</ele>
        <time>2021-08-07T06:21:19Z</time>
      </trkpt>
      <trkpt lat="51.0036" lon="2.39357">
        <ele>3.98</ele>
        <time>2021-08-07T06:21:25Z</time>
      </trkpt>
      <trkpt lat="51.00354" lon="2.39434">
        <ele>3.98</ele>
        <time>2021-08-07T06:21:33Z</time>
      </trkpt>
      <trkpt lat="51.00349" lon="2.3949">
        <ele>3.98</ele>
        <time>2021-08-07T06:21:39Z</time>
      </trkpt>
      <trkpt lat="51.00347" lon="2.39499">
        <ele>3.98</ele>
        <time>2021-08-07T06:21:40Z</time>
      </trkpt>
      <trkpt lat="51.00345" lon="2.39508">
        <ele>3.98</ele>
        <time>2021-08-07T06:21:41Z</time>
      </trkpt>
      <trkpt lat="51.00343" lon="2.39518">
        <ele>3.98</ele>
        <time>2021-08-07T06:21:42Z</time>
      </trkpt>
      <trkpt lat="51.00342" lon="2.39525">
        <ele>3.98</ele>
        <time>2021-08-07T06:21:43Z</time>
      </trkpt>
      <trkpt lat="51.00339" lon="2.39529">
        <ele>3.98</ele>
        <time>2021-08-07T06:21:44Z</time>
      </trkpt>
      <trkpt lat="51.00336" lon="2.3953">
        <ele>3.98</ele>
        <time>2021-08-07T06:21:45Z</time>
      </trkpt>
      <trkpt lat="51.00333" lon="2.39531">
        <ele>3.98</ele>
        <time>2021-08-07T06:21:46Z</time>
      </trkpt>
      <trkpt lat="51.0033" lon="2.3953">
        <ele>3.98</ele>
        <time>2021-08-07T06:21:47Z</time>
      </trkpt>
      <trkpt lat="51.00329" lon="2.39529">
        <ele>3.98</ele>
        <time>2021-08-07T06:21:48Z</time>
      </trkpt>
      <trkpt lat="51.00327" lon="2.39531">
        <ele>3.98</ele>
        <time>2021-08-07T06:21:51Z</time>
      </trkpt>
      <trkpt lat="51.00326" lon="2.39532">
        <ele>3.98</ele>
        <time>2021-08-07T06:21:52Z</time>
      </trkpt>
      <trkpt lat="51.00323" lon="2.39535">
        <ele>3.98</ele>
        <time>2021-08-07T06:21:54Z</time>
      </trkpt>
      <trkpt lat="51.0032" lon="2.39536">
        <ele>3.98</ele>
        <time>2021-08-07T06:21:55Z</time>
      </trkpt>
      <trkpt lat="51.00318" lon="2.39538">
        <ele>3.98</ele>
        <time>2021-08-07T06:21:56Z</time>
      </trkpt>
      <trkpt lat="51.00315" lon="2.3954">
        <ele>3.5</ele>
        <time>2021-08-07T06:21:57Z</time>
      </trkpt>
      <trkpt lat="51.00313" lon="2.39543">
        <ele>3.5</ele>
        <time>2021-08-07T06:21:58Z</time>
      </trkpt>
      <trkpt lat="51.00311" lon="2.39546">
        <ele>3.5</ele>
        <time>2021-08-07T06:21:59Z</time>
      </trkpt>
      <trkpt lat="51.00308" lon="2.39549">
        <ele>3.5</ele>
        <time>2021-08-07T06:22:00Z</time>
      </trkpt>
      <trkpt lat="51.00305" lon="2.39552">
        <ele>3.5</ele>
        <time>2021-08-07T06:22:01Z</time>
      </trkpt>
      <trkpt lat="51.00292" lon="2.39559">
        <ele>3.5</ele>
        <time>2021-08-07T06:22:04Z</time>
      </trkpt>
      <trkpt lat="51.00287" lon="2.39562">
        <ele>3.5</ele>
        <time>2021-08-07T06:22:05Z</time>
      </trkpt>
      <trkpt lat="51.00282" lon="2.39567">
        <ele>3.5</ele>
        <time>2021-08-07T06:22:06Z</time>
      </trkpt>
      <trkpt lat="51.00256" lon="2.39596">
        <ele>3.5</ele>
        <time>2021-08-07T06:22:12Z</time>
      </trkpt>
      <trkpt lat="51.0025" lon="2.39599">
        <ele>3.5</ele>
        <time>2021-08-07T06:22:13Z</time>
      </trkpt>
      <trkpt lat="51.00218" lon="2.39615">
        <ele>3.5</ele>
        <time>2021-08-07T06:22:19Z</time>
      </trkpt>
      <trkpt lat="51.00192" lon="2.39631">
        <ele>3.5</ele>
        <time>2021-08-07T06:22:24Z</time>
      </trkpt>
      <trkpt lat="51.00186" lon="2.39636">
        <ele>3.5</ele>
        <time>2021-08-07T06:22:25Z</time>
      </trkpt>
      <trkpt lat="51.00182" lon="2.39641">
        <ele>3.5</ele>
        <time>2021-08-07T06:22:26Z</time>
      </trkpt>
      <trkpt lat="51.00178" lon="2.39649">
        <ele>3.5</ele>
        <time>2021-08-07T06:22:27Z</time>
      </trkpt>
      <trkpt lat="51.00175" lon="2.39656">
        <ele>3.5</ele>
        <time>2021-08-07T06:22:28Z</time>
      </trkpt>
      <trkpt lat="51.00172" lon="2.39664">
        <ele>3.5</ele>
        <time>2021-08-07T06:22:29Z</time>
      </trkpt>
      <trkpt lat="51.00157" lon="2.39692">
        <ele>3.5</ele>
        <time>2021-08-07T06:22:33Z</time>
      </trkpt>
      <trkpt lat="51.00152" lon="2.39698">
        <ele>3.5</ele>
        <time>2021-08-07T06:22:34Z</time>
      </trkpt>
      <trkpt lat="51.00147" lon="2.39702">
        <ele>3.5</ele>
        <time>2021-08-07T06:22:35Z</time>
      </trkpt>
      <trkpt lat="51.00141" lon="2.39706">
        <ele>3.5</ele>
        <time>2021-08-07T06:22:36Z</time>
      </trkpt>
      <trkpt lat="51.00135" lon="2.39709">
        <ele>3.5</ele>
        <time>2021-08-07T06:22:37Z</time>
      </trkpt>
      <trkpt lat="51.0013" lon="2.39711">
        <ele>3.5</ele>
        <time>2021-08-07T06:22:38Z</time>
      </trkpt>
      <trkpt lat="51.00079" lon="2.39724">
        <ele>3.5</ele>
        <time>2021-08-07T06:22:46Z</time>
      </trkpt>
      <trkpt lat="51.00074" lon="2.39726">
        <ele>3.5</ele>
        <time>2021-08-07T06:22:47Z</time>
      </trkpt>
      <trkpt lat="51.00069" lon="2.39729">
        <ele>3.5</ele>
        <time>2021-08-07T06:22:48Z</time>
      </trkpt>
      <trkpt lat="51.00066" lon="2.39734">
        <ele>3.5</ele>
        <time>2021-08-07T06:22:49Z</time>
      </trkpt>
      <trkpt lat="51.00066" lon="2.3974">
        <ele>3.5</ele>
        <time>2021-08-07T06:22:50Z</time>
      </trkpt>
      <trkpt lat="51.00066" lon="2.39746">
        <ele>3.5</ele>
        <time>2021-08-07T06:22:51Z</time>
      </trkpt>
      <trkpt lat="51.00067" lon="2.39753">
        <ele>3.5</ele>
        <time>2021-08-07T06:22:52Z</time>
      </trkpt>
      <trkpt lat="51.00068" lon="2.3976">
        <ele>3.5</ele>
        <time>2021-08-07T06:22:53Z</time>
      </trkpt>
      <trkpt lat="51.00067" lon="2.39767">
        <ele>3.5</ele>
        <time>2021-08-07T06:22:54Z</time>
      </trkpt>
      <trkpt lat="51.00065" lon="2.39774">
        <ele>3.5</ele>
        <time>2021-08-07T06:22:55Z</time>
      </trkpt>
      <trkpt lat="51.00062" lon="2.3978">
        <ele>3.5</ele>
        <time>2021-08-07T06:22:56Z</time>
      </trkpt>
      <trkpt lat="51.00059" lon="2.39785">
        <ele>3.5</ele>
        <time>2021-08-07T06:22:57Z</time>
      </trkpt>
      <trkpt lat="51.00055" lon="2.3979">
        <ele>3.5</ele>
        <time>2021-08-07T06:22:58Z</time>
      </trkpt>
      <trkpt lat="51.00051" lon="2.39796">
        <ele>3.5</ele>
        <time>2021-08-07T06:22:59Z</time>
      </trkpt>
      <trkpt lat="51.00048" lon="2.39802">
        <ele>3.5</ele>
        <time>2021-08-07T06:23:00Z</time>
      </trkpt>
      <trkpt lat="51.00046" lon="2.39809">
        <ele>3.5</ele>
        <time>2021-08-07T06:23:01Z</time>
      </trkpt>
      <trkpt lat="51.00045" lon="2.39818">
        <ele>3.5</ele>
        <time>2021-08-07T06:23:02Z</time>
      </trkpt>
      <trkpt lat="51.00044" lon="2.39827">
        <ele>3.5</ele>
        <time>2021-08-07T06:23:03Z</time>
      </trkpt>
      <trkpt lat="51.00045" lon="2.39836">
        <ele>3.5</ele>
        <time>2021-08-07T06:23:04Z</time>
      </trkpt>
      <trkpt lat="51.00045" lon="2.39844">
        <ele>3.5</ele>
        <time>2021-08-07T06:23:05Z</time>
      </trkpt>
      <trkpt lat="51.00046" lon="2.39852">
        <ele>3.5</ele>
        <time>2021-08-07T06:23:06Z</time>
      </trkpt>
      <trkpt lat="51.00047" lon="2.39861">
        <ele>3.5</ele>
        <time>2021-08-07T06:23:07Z</time>
      </trkpt>
      <trkpt lat="51.00049" lon="2.39869">
        <ele>3.5</ele>
        <time>2021-08-07T06:23:08Z</time>
      </trkpt>
      <trkpt lat="51.00051" lon="2.39878">
        <ele>3.5</ele>
        <time>2021-08-07T06:23:09Z</time>
      </trkpt>
      <trkpt lat="51.00064" lon="2.39931">
        <ele>3.5</ele>
        <time>2021-08-07T06:23:15Z</time>
      </trkpt>
      <trkpt lat="51.0007" lon="2.39995">
        <ele>3.5</ele>
        <time>2021-08-07T06:23:22Z</time>
      </trkpt>
      <trkpt lat="51.00072" lon="2.40038">
        <ele>3.5</ele>
        <time>2021-08-07T06:23:27Z</time>
      </trkpt>
      <trkpt lat="51.00071" lon="2.40047">
        <ele>3.5</ele>
        <time>2021-08-07T06:23:28Z</time>
      </trkpt>
      <trkpt lat="51.0007" lon="2.40055">
        <ele>3.5</ele>
        <time>2021-08-07T06:23:29Z</time>
      </trkpt>
      <trkpt lat="51.00068" lon="2.40061">
        <ele>3.5</ele>
        <time>2021-08-07T06:23:30Z</time>
      </trkpt>
      <trkpt lat="51.00066" lon="2.40067">
        <ele>3.5</ele>
        <time>2021-08-07T06:23:31Z</time>
      </trkpt>
      <trkpt lat="51.00063" lon="2.40075">
        <ele>3.5</ele>
        <time>2021-08-07T06:23:32Z</time>
      </trkpt>
      <trkpt lat="51.00059" lon="2.40082">
        <ele>3.5</ele>
        <time>2021-08-07T06:23:33Z</time>
      </trkpt>
      <trkpt lat="51.00055" lon="2.40088">
        <ele>3.5</ele>
        <time>2021-08-07T06:23:34Z</time>
      </trkpt>
      <trkpt lat="51.00049" lon="2.40092">
        <ele>3.5</ele>
        <time>2021-08-07T06:23:35Z</time>
      </trkpt>
      <trkpt lat="51.00044" lon="2.40094">
        <ele>3.5</ele>
        <time>2021-08-07T06:23:36Z</time>
      </trkpt>
      <trkpt lat="51.00038" lon="2.40097">
        <ele>3.5</ele>
        <time>2021-08-07T06:23:37Z</time>
      </trkpt>
      <trkpt lat="51.00032" lon="2.401">
        <ele>3.5</ele>
        <time>2021-08-07T06:23:38Z</time>
      </trkpt>
      <trkpt lat="51.00027" lon="2.40106">
        <ele>3.5</ele>
        <time>2021-08-07T06:23:39Z</time>
      </trkpt>
      <trkpt lat="51.00022" lon="2.40112">
        <ele>3.5</ele>
        <time>2021-08-07T06:23:40Z</time>
      </trkpt>
      <trkpt lat="51.00019" lon="2.40119">
        <ele>3.5</ele>
        <time>2021-08-07T06:23:41Z</time>
      </trkpt>
      <trkpt lat="51.00016" lon="2.40127">
        <ele>3.5</ele>
        <time>2021-08-07T06:23:42Z</time>
      </trkpt>
      <trkpt lat="51.00016" lon="2.40136">
        <ele>3.5</ele>
        <time>2021-08-07T06:23:43Z</time>
      </trkpt>
      <trkpt lat="51.00016" lon="2.40145">
        <ele>3.5</ele>
        <time>2021-08-07T06:23:44Z</time>
      </trkpt>
      <trkpt lat="51.00017" lon="2.40155">
        <ele>3.5</ele>
        <time>2021-08-07T06:23:45Z</time>
      </trkpt>
      <trkpt lat="51.00021" lon="2.40191">
        <ele>3.5</ele>
        <time>2021-08-07T06:23:49Z</time>
      </trkpt>
      <trkpt lat="51.0002" lon="2.40235">
        <ele>3.5</ele>
        <time>2021-08-07T06:23:54Z</time>
      </trkpt>
      <trkpt lat="51.00018" lon="2.40244">
        <ele>3.5</ele>
        <time>2021-08-07T06:23:55Z</time>
      </trkpt>
      <trkpt lat="51.00015" lon="2.40251">
        <ele>3.5</ele>
        <time>2021-08-07T06:23:56Z</time>
      </trkpt>
      <trkpt lat="51.00011" lon="2.40258">
        <ele>3.5</ele>
        <time>2021-08-07T06:23:57Z</time>
      </trkpt>
      <trkpt lat="51.00007" lon="2.40264">
        <ele>3.5</ele>
        <time>2021-08-07T06:23:58Z</time>
      </trkpt>
      <trkpt lat="50.9998" lon="2.40296">
        <ele>3.5</ele>
        <time>2021-08-07T06:24:04Z</time>
      </trkpt>
      <trkpt lat="50.99942" lon="2.40345">
        <ele>3.5</ele>
        <time>2021-08-07T06:24:12Z</time>
      </trkpt>
      <trkpt lat="50.99919" lon="2.40377">
        <ele>3.5</ele>
        <time>2021-08-07T06:24:17Z</time>
      </trkpt>
      <trkpt lat="50.99916" lon="2.40384">
        <ele>3.5</ele>
        <time>2021-08-07T06:24:18Z</time>
      </trkpt>
      <trkpt lat="50.9991" lon="2.40401">
        <ele>3.5</ele>
        <time>2021-08-07T06:24:20Z</time>
      </trkpt>
      <trkpt lat="50.99909" lon="2.4041">
        <ele>3.5</ele>
        <time>2021-08-07T06:24:21Z</time>
      </trkpt>
      <trkpt lat="50.99908" lon="2.4042">
        <ele>3.5</ele>
        <time>2021-08-07T06:24:22Z</time>
      </trkpt>
      <trkpt lat="50.9991" lon="2.40429">
        <ele>3.5</ele>
        <time>2021-08-07T06:24:23Z</time>
      </trkpt>
      <trkpt lat="50.99912" lon="2.40437">
        <ele>3.5</ele>
        <time>2021-08-07T06:24:24Z</time>
      </trkpt>
      <trkpt lat="50.99915" lon="2.40445">
        <ele>3.5</ele>
        <time>2021-08-07T06:24:25Z</time>
      </trkpt>
      <trkpt lat="50.99917" lon="2.40451">
        <ele>3.5</ele>
        <time>2021-08-07T06:24:26Z</time>
      </trkpt>
      <trkpt lat="50.99919" lon="2.40454">
        <ele>3.5</ele>
        <time>2021-08-07T06:24:27Z</time>
      </trkpt>
      <trkpt lat="50.99928" lon="2.40479">
        <ele>3.5</ele>
        <time>2021-08-07T06:24:34Z</time>
      </trkpt>
      <trkpt lat="50.99936" lon="2.405">
        <ele>3.5</ele>
        <time>2021-08-07T06:24:38Z</time>
      </trkpt>
      <trkpt lat="50.99938" lon="2.40506">
        <ele>3.5</ele>
        <time>2021-08-07T06:24:39Z</time>
      </trkpt>
      <trkpt lat="50.99958" lon="2.40551">
        <ele>3.5</ele>
        <time>2021-08-07T06:24:47Z</time>
      </trkpt>
      <trkpt lat="50.99983" lon="2.40614">
        <ele>3.5</ele>
        <time>2021-08-07T06:24:56Z</time>
      </trkpt>
      <trkpt lat="50.99991" lon="2.40644">
        <ele>3.5</ele>
        <time>2021-08-07T06:25:00Z</time>
      </trkpt>
      <trkpt lat="50.9999" lon="2.40652">
        <ele>3.5</ele>
        <time>2021-08-07T06:25:01Z</time>
      </trkpt>
      <trkpt lat="50.99989" lon="2.40659">
        <ele>3.5</ele>
        <time>2021-08-07T06:25:02Z</time>
      </trkpt>
      <trkpt lat="50.99986" lon="2.40665">
        <ele>3.5</ele>
        <time>2021-08-07T06:25:03Z</time>
      </trkpt>
      <trkpt lat="50.99983" lon="2.40669">
        <ele>3.5</ele>
        <time>2021-08-07T06:25:04Z</time>
      </trkpt>
      <trkpt lat="50.9998" lon="2.40672">
        <ele>3.5</ele>
        <time>2021-08-07T06:25:05Z</time>
      </trkpt>
      <trkpt lat="50.99976" lon="2.40675">
        <ele>3.5</ele>
        <time>2021-08-07T06:25:06Z</time>
      </trkpt>
      <trkpt lat="50.99963" lon="2.40684">
        <ele>3.5</ele>
        <time>2021-08-07T06:25:09Z</time>
      </trkpt>
      <trkpt lat="50.99958" lon="2.40687">
        <ele>3.5</ele>
        <time>2021-08-07T06:25:10Z</time>
      </trkpt>
      <trkpt lat="50.99954" lon="2.40691">
        <ele>3.5</ele>
        <time>2021-08-07T06:25:11Z</time>
      </trkpt>
      <trkpt lat="50.99949" lon="2.40695">
        <ele>3.5</ele>
        <time>2021-08-07T06:25:12Z</time>
      </trkpt>
      <trkpt lat="50.99944" lon="2.40697">
        <ele>3.5</ele>
        <time>2021-08-07T06:25:13Z</time>
      </trkpt>
      <trkpt lat="50.99939" lon="2.40699">
        <ele>3.5</ele>
        <time>2021-08-07T06:25:14Z</time>
      </trkpt>
      <trkpt lat="50.99934" lon="2.40702">
        <ele>3.5</ele>
        <time>2021-08-07T06:25:15Z</time>
      </trkpt>
      <trkpt lat="50.99902" lon="2.40719">
        <ele>3.5</ele>
        <time>2021-08-07T06:25:21Z</time>
      </trkpt>
      <trkpt lat="50.99896" lon="2.40722">
        <ele>3.5</ele>
        <time>2021-08-07T06:25:22Z</time>
      </trkpt>
      <trkpt lat="50.99848" lon="2.40753">
        <ele>3.5</ele>
        <time>2021-08-07T06:25:31Z</time>
      </trkpt>
      <trkpt lat="50.99827" lon="2.40761">
        <ele>3.5</ele>
        <time>2021-08-07T06:25:35Z</time>
      </trkpt>
      <trkpt lat="50.99822" lon="2.4076">
        <ele>3.5</ele>
        <time>2021-08-07T06:25:36Z</time>
      </trkpt>
      <trkpt lat="50.99776" lon="2.40751">
        <ele>3.5</ele>
        <time>2021-08-07T06:25:45Z</time>
      </trkpt>
      <trkpt lat="50.99737" lon="2.40738">
        <ele>3.5</ele>
        <time>2021-08-07T06:25:53Z</time>
      </trkpt>
      <trkpt lat="50.99732" lon="2.40737">
        <ele>3.5</ele>
        <time>2021-08-07T06:25:54Z</time>
      </trkpt>
      <trkpt lat="50.99726" lon="2.40736">
        <ele>3.5</ele>
        <time>2021-08-07T06:25:55Z</time>
      </trkpt>
      <trkpt lat="50.99683" lon="2.40724">
        <ele>3.5</ele>
        <time>2021-08-07T06:26:03Z</time>
      </trkpt>
      <trkpt lat="50.9968" lon="2.40723">
        <ele>3.5</ele>
        <time>2021-08-07T06:26:04Z</time>
      </trkpt>
      <trkpt lat="50.99676" lon="2.40724">
        <ele>3.5</ele>
        <time>2021-08-07T06:26:05Z</time>
      </trkpt>
      <trkpt lat="50.99672" lon="2.40726">
        <ele>3.5</ele>
        <time>2021-08-07T06:26:06Z</time>
      </trkpt>
      <trkpt lat="50.9967" lon="2.40729">
        <ele>3.5</ele>
        <time>2021-08-07T06:26:07Z</time>
      </trkpt>
      <trkpt lat="50.99667" lon="2.40732">
        <ele>3.5</ele>
        <time>2021-08-07T06:26:08Z</time>
      </trkpt>
      <trkpt lat="50.99666" lon="2.40737">
        <ele>3.5</ele>
        <time>2021-08-07T06:26:09Z</time>
      </trkpt>
      <trkpt lat="50.99664" lon="2.40742">
        <ele>3.5</ele>
        <time>2021-08-07T06:26:10Z</time>
      </trkpt>
      <trkpt lat="50.99663" lon="2.40747">
        <ele>3.5</ele>
        <time>2021-08-07T06:26:11Z</time>
      </trkpt>
      <trkpt lat="50.99661" lon="2.40753">
        <ele>3.5</ele>
        <time>2021-08-07T06:26:12Z</time>
      </trkpt>
      <trkpt lat="50.99658" lon="2.40758">
        <ele>3.5</ele>
        <time>2021-08-07T06:26:13Z</time>
      </trkpt>
      <trkpt lat="50.99655" lon="2.40763">
        <ele>3.5</ele>
        <time>2021-08-07T06:26:14Z</time>
      </trkpt>
      <trkpt lat="50.99651" lon="2.40767">
        <ele>3.5</ele>
        <time>2021-08-07T06:26:15Z</time>
      </trkpt>
      <trkpt lat="50.99649" lon="2.40769">
        <ele>3.5</ele>
        <time>2021-08-07T06:26:16Z</time>
      </trkpt>
      <trkpt lat="50.99647" lon="2.40773">
        <ele>3.5</ele>
        <time>2021-08-07T06:26:17Z</time>
      </trkpt>
      <trkpt lat="50.99646" lon="2.40779">
        <ele>3.5</ele>
        <time>2021-08-07T06:26:18Z</time>
      </trkpt>
      <trkpt lat="50.99647" lon="2.40786">
        <ele>3.5</ele>
        <time>2021-08-07T06:26:19Z</time>
      </trkpt>
      <trkpt lat="50.99647" lon="2.40795">
        <ele>3.5</ele>
        <time>2021-08-07T06:26:20Z</time>
      </trkpt>
      <trkpt lat="50.99647" lon="2.40803">
        <ele>3.5</ele>
        <time>2021-08-07T06:26:21Z</time>
      </trkpt>
      <trkpt lat="50.99646" lon="2.40811">
        <ele>3.5</ele>
        <time>2021-08-07T06:26:22Z</time>
      </trkpt>
      <trkpt lat="50.99645" lon="2.4082">
        <ele>3.5</ele>
        <time>2021-08-07T06:26:23Z</time>
      </trkpt>
      <trkpt lat="50.99643" lon="2.40827">
        <ele>3.5</ele>
        <time>2021-08-07T06:26:24Z</time>
      </trkpt>
      <trkpt lat="50.99642" lon="2.40835">
        <ele>3.5</ele>
        <time>2021-08-07T06:26:25Z</time>
      </trkpt>
      <trkpt lat="50.99639" lon="2.40843">
        <ele>3.5</ele>
        <time>2021-08-07T06:26:26Z</time>
      </trkpt>
      <trkpt lat="50.99636" lon="2.40851">
        <ele>3.5</ele>
        <time>2021-08-07T06:26:27Z</time>
      </trkpt>
      <trkpt lat="50.9962" lon="2.40913">
        <ele>3.5</ele>
        <time>2021-08-07T06:26:35Z</time>
      </trkpt>
      <trkpt lat="50.99616" lon="2.4093">
        <ele>3.5</ele>
        <time>2021-08-07T06:26:38Z</time>
      </trkpt>
      <trkpt lat="50.99612" lon="2.40932">
        <ele>3.5</ele>
        <time>2021-08-07T06:26:39Z</time>
      </trkpt>
      <trkpt lat="50.99609" lon="2.40931">
        <ele>3.5</ele>
        <time>2021-08-07T06:26:40Z</time>
      </trkpt>
      <trkpt lat="50.99606" lon="2.40931">
        <ele>3.5</ele>
        <time>2021-08-07T06:26:41Z</time>
      </trkpt>
      <trkpt lat="50.99602" lon="2.40931">
        <ele>3.5</ele>
        <time>2021-08-07T06:26:42Z</time>
      </trkpt>
      <trkpt lat="50.99599" lon="2.40931">
        <ele>3.5</ele>
        <time>2021-08-07T06:26:43Z</time>
      </trkpt>
      <trkpt lat="50.99595" lon="2.40932">
        <ele>3.5</ele>
        <time>2021-08-07T06:26:44Z</time>
      </trkpt>
      <trkpt lat="50.9959" lon="2.40932">
        <ele>3.5</ele>
        <time>2021-08-07T06:26:45Z</time>
      </trkpt>
      <trkpt lat="50.99581" lon="2.40932">
        <ele>3.5</ele>
        <time>2021-08-07T06:26:47Z</time>
      </trkpt>
      <trkpt lat="50.99567" lon="2.40931">
        <ele>3.5</ele>
        <time>2021-08-07T06:26:50Z</time>
      </trkpt>
      <trkpt lat="50.99563" lon="2.40931">
        <ele>3.5</ele>
        <time>2021-08-07T06:26:51Z</time>
      </trkpt>
      <trkpt lat="50.99529" lon="2.40942">
        <ele>3.5</ele>
        <time>2021-08-07T06:26:58Z</time>
      </trkpt>
      <trkpt lat="50.99524" lon="2.40944">
        <ele>3.5</ele>
        <time>2021-08-07T06:26:59Z</time>
      </trkpt>
      <trkpt lat="50.99519" lon="2.40945">
        <ele>3.5</ele>
        <time>2021-08-07T06:27:00Z</time>
      </trkpt>
      <trkpt lat="50.99495" lon="2.40954">
        <ele>3.02</ele>
        <time>2021-08-07T06:27:05Z</time>
      </trkpt>
      <trkpt lat="50.99491" lon="2.40958">
        <ele>3.02</ele>
        <time>2021-08-07T06:27:06Z</time>
      </trkpt>
      <trkpt lat="50.99486" lon="2.40964">
        <ele>3.02</ele>
        <time>2021-08-07T06:27:07Z</time>
      </trkpt>
      <trkpt lat="50.99482" lon="2.40969">
        <ele>2.54</ele>
        <time>2021-08-07T06:27:08Z</time>
      </trkpt>
      <trkpt lat="50.99478" lon="2.40976">
        <ele>2.54</ele>
        <time>2021-08-07T06:27:09Z</time>
      </trkpt>
      <trkpt lat="50.99466" lon="2.40996">
        <ele>2.54</ele>
        <time>2021-08-07T06:27:12Z</time>
      </trkpt>
      <trkpt lat="50.99444" lon="2.41015">
        <ele>2.54</ele>
        <time>2021-08-07T06:27:18Z</time>
      </trkpt>
      <trkpt lat="50.99419" lon="2.41016">
        <ele>2.54</ele>
        <time>2021-08-07T06:27:24Z</time>
      </trkpt>
      <trkpt lat="50.99413" lon="2.41014">
        <ele>2.54</ele>
        <time>2021-08-07T06:27:25Z</time>
      </trkpt>
      <trkpt lat="50.99409" lon="2.41012">
        <ele>2.54</ele>
        <time>2021-08-07T06:27:26Z</time>
      </trkpt>
      <trkpt lat="50.99387" lon="2.41001">
        <ele>3.98</ele>
        <time>2021-08-07T06:27:31Z</time>
      </trkpt>
      <trkpt lat="50.99384" lon="2.41001">
        <ele>3.98</ele>
        <time>2021-08-07T06:27:32Z</time>
      </trkpt>
      <trkpt lat="50.9938" lon="2.41002">
        <ele>3.98</ele>
        <time>2021-08-07T06:27:33Z</time>
      </trkpt>
      <trkpt lat="50.99377" lon="2.41004">
        <ele>3.98</ele>
        <time>2021-08-07T06:27:34Z</time>
      </trkpt>
      <trkpt lat="50.99375" lon="2.41007">
        <ele>3.98</ele>
        <time>2021-08-07T06:27:35Z</time>
      </trkpt>
      <trkpt lat="50.99372" lon="2.41009">
        <ele>3.98</ele>
        <time>2021-08-07T06:27:36Z</time>
      </trkpt>
      <trkpt lat="50.99363" lon="2.41014">
        <ele>3.98</ele>
        <time>2021-08-07T06:27:38Z</time>
      </trkpt>
      <trkpt lat="50.99345" lon="2.41019">
        <ele>3.98</ele>
        <time>2021-08-07T06:27:41Z</time>
      </trkpt>
      <trkpt lat="50.99297" lon="2.41042">
        <ele>3.98</ele>
        <time>2021-08-07T06:27:49Z</time>
      </trkpt>
      <trkpt lat="50.99287" lon="2.41052">
        <ele>3.98</ele>
        <time>2021-08-07T06:27:52Z</time>
      </trkpt>
      <trkpt lat="50.99283" lon="2.41058">
        <ele>3.98</ele>
        <time>2021-08-07T06:27:53Z</time>
      </trkpt>
      <trkpt lat="50.9928" lon="2.41065">
        <ele>3.98</ele>
        <time>2021-08-07T06:27:54Z</time>
      </trkpt>
      <trkpt lat="50.99277" lon="2.41072">
        <ele>3.98</ele>
        <time>2021-08-07T06:27:55Z</time>
      </trkpt>
      <trkpt lat="50.99275" lon="2.4108">
        <ele>3.98</ele>
        <time>2021-08-07T06:27:56Z</time>
      </trkpt>
      <trkpt lat="50.99274" lon="2.41088">
        <ele>3.02</ele>
        <time>2021-08-07T06:27:57Z</time>
      </trkpt>
      <trkpt lat="50.99273" lon="2.41097">
        <ele>3.02</ele>
        <time>2021-08-07T06:27:58Z</time>
      </trkpt>
      <trkpt lat="50.99267" lon="2.41132">
        <ele>3.02</ele>
        <time>2021-08-07T06:28:02Z</time>
      </trkpt>
      <trkpt lat="50.99266" lon="2.41149">
        <ele>3.02</ele>
        <time>2021-08-07T06:28:04Z</time>
      </trkpt>
      <trkpt lat="50.99263" lon="2.41173">
        <ele>3.02</ele>
        <time>2021-08-07T06:28:07Z</time>
      </trkpt>
      <trkpt lat="50.99259" lon="2.41237">
        <ele>3.02</ele>
        <time>2021-08-07T06:28:14Z</time>
      </trkpt>
      <trkpt lat="50.99254" lon="2.41257">
        <ele>3.02</ele>
        <time>2021-08-07T06:28:16Z</time>
      </trkpt>
      <trkpt lat="50.9925" lon="2.41265">
        <ele>3.02</ele>
        <time>2021-08-07T06:28:17Z</time>
      </trkpt>
      <trkpt lat="50.99246" lon="2.41273">
        <ele>3.02</ele>
        <time>2021-08-07T06:28:18Z</time>
      </trkpt>
      <trkpt lat="50.99242" lon="2.41279">
        <ele>3.02</ele>
        <time>2021-08-07T06:28:19Z</time>
      </trkpt>
      <trkpt lat="50.99237" lon="2.41286">
        <ele>3.02</ele>
        <time>2021-08-07T06:28:20Z</time>
      </trkpt>
      <trkpt lat="50.99221" lon="2.41302">
        <ele>3.02</ele>
        <time>2021-08-07T06:28:23Z</time>
      </trkpt>
      <trkpt lat="50.99184" lon="2.41325">
        <ele>3.02</ele>
        <time>2021-08-07T06:28:29Z</time>
      </trkpt>
      <trkpt lat="50.99179" lon="2.41328">
        <ele>3.02</ele>
        <time>2021-08-07T06:28:30Z</time>
      </trkpt>
      <trkpt lat="50.99173" lon="2.41332">
        <ele>3.02</ele>
        <time>2021-08-07T06:28:31Z</time>
      </trkpt>
      <trkpt lat="50.99168" lon="2.41335">
        <ele>3.02</ele>
        <time>2021-08-07T06:28:32Z</time>
      </trkpt>
      <trkpt lat="50.99158" lon="2.41341">
        <ele>3.02</ele>
        <time>2021-08-07T06:28:34Z</time>
      </trkpt>
      <trkpt lat="50.99152" lon="2.41342">
        <ele>3.02</ele>
        <time>2021-08-07T06:28:35Z</time>
      </trkpt>
      <trkpt lat="50.99147" lon="2.41341">
        <ele>3.02</ele>
        <time>2021-08-07T06:28:36Z</time>
      </trkpt>
      <trkpt lat="50.99142" lon="2.41338">
        <ele>3.02</ele>
        <time>2021-08-07T06:28:37Z</time>
      </trkpt>
      <trkpt lat="50.99137" lon="2.41335">
        <ele>3.02</ele>
        <time>2021-08-07T06:28:38Z</time>
      </trkpt>
      <trkpt lat="50.99132" lon="2.41332">
        <ele>3.02</ele>
        <time>2021-08-07T06:28:39Z</time>
      </trkpt>
      <trkpt lat="50.99127" lon="2.4133">
        <ele>3.02</ele>
        <time>2021-08-07T06:28:40Z</time>
      </trkpt>
      <trkpt lat="50.99122" lon="2.41328">
        <ele>3.02</ele>
        <time>2021-08-07T06:28:41Z</time>
      </trkpt>
      <trkpt lat="50.99117" lon="2.41329">
        <ele>3.02</ele>
        <time>2021-08-07T06:28:42Z</time>
      </trkpt>
      <trkpt lat="50.99111" lon="2.4133">
        <ele>3.02</ele>
        <time>2021-08-07T06:28:43Z</time>
      </trkpt>
      <trkpt lat="50.99106" lon="2.41332">
        <ele>3.02</ele>
        <time>2021-08-07T06:28:44Z</time>
      </trkpt>
      <trkpt lat="50.99075" lon="2.41348">
        <ele>2.54</ele>
        <time>2021-08-07T06:28:49Z</time>
      </trkpt>
      <trkpt lat="50.99071" lon="2.41353">
        <ele>2.54</ele>
        <time>2021-08-07T06:28:50Z</time>
      </trkpt>
      <trkpt lat="50.99062" lon="2.41365">
        <ele>2.54</ele>
        <time>2021-08-07T06:28:52Z</time>
      </trkpt>
      <trkpt lat="50.99056" lon="2.4137">
        <ele>2.54</ele>
        <time>2021-08-07T06:28:53Z</time>
      </trkpt>
      <trkpt lat="50.99033" lon="2.4138">
        <ele>2.54</ele>
        <time>2021-08-07T06:28:57Z</time>
      </trkpt>
      <trkpt lat="50.99022" lon="2.41382">
        <ele>2.54</ele>
        <time>2021-08-07T06:28:59Z</time>
      </trkpt>
      <trkpt lat="50.99019" lon="2.41385">
        <ele>2.54</ele>
        <time>2021-08-07T06:29:00Z</time>
      </trkpt>
      <trkpt lat="50.99015" lon="2.41389">
        <ele>2.54</ele>
        <time>2021-08-07T06:29:01Z</time>
      </trkpt>
      <trkpt lat="50.99013" lon="2.41394">
        <ele>2.54</ele>
        <time>2021-08-07T06:29:02Z</time>
      </trkpt>
      <trkpt lat="50.9901" lon="2.41398">
        <ele>2.54</ele>
        <time>2021-08-07T06:29:03Z</time>
      </trkpt>
      <trkpt lat="50.99007" lon="2.41401">
        <ele>2.54</ele>
        <time>2021-08-07T06:29:04Z</time>
      </trkpt>
      <trkpt lat="50.99003" lon="2.41402">
        <ele>2.54</ele>
        <time>2021-08-07T06:29:05Z</time>
      </trkpt>
      <trkpt lat="50.98999" lon="2.41404">
        <ele>2.54</ele>
        <time>2021-08-07T06:29:06Z</time>
      </trkpt>
      <trkpt lat="50.9898" lon="2.41412">
        <ele>2.54</ele>
        <time>2021-08-07T06:29:10Z</time>
      </trkpt>
      <trkpt lat="50.98975" lon="2.41415">
        <ele>2.54</ele>
        <time>2021-08-07T06:29:11Z</time>
      </trkpt>
      <trkpt lat="50.98944" lon="2.41447">
        <ele>2.54</ele>
        <time>2021-08-07T06:29:18Z</time>
      </trkpt>
      <trkpt lat="50.98934" lon="2.41456">
        <ele>2.54</ele>
        <time>2021-08-07T06:29:20Z</time>
      </trkpt>
      <trkpt lat="50.98928" lon="2.4146">
        <ele>2.54</ele>
        <time>2021-08-07T06:29:21Z</time>
      </trkpt>
      <trkpt lat="50.98922" lon="2.41462">
        <ele>2.54</ele>
        <time>2021-08-07T06:29:22Z</time>
      </trkpt>
      <trkpt lat="50.98915" lon="2.41463">
        <ele>2.54</ele>
        <time>2021-08-07T06:29:23Z</time>
      </trkpt>
      <trkpt lat="50.98909" lon="2.41464">
        <ele>2.54</ele>
        <time>2021-08-07T06:29:24Z</time>
      </trkpt>
      <trkpt lat="50.98904" lon="2.41464">
        <ele>2.54</ele>
        <time>2021-08-07T06:29:25Z</time>
      </trkpt>
      <trkpt lat="50.98876" lon="2.41467">
        <ele>2.54</ele>
        <time>2021-08-07T06:29:30Z</time>
      </trkpt>
      <trkpt lat="50.98825" lon="2.41477">
        <ele>3.02</ele>
        <time>2021-08-07T06:29:39Z</time>
      </trkpt>
      <trkpt lat="50.9882" lon="2.41475">
        <ele>2.54</ele>
        <time>2021-08-07T06:29:40Z</time>
      </trkpt>
      <trkpt lat="50.98815" lon="2.41471">
        <ele>3.02</ele>
        <time>2021-08-07T06:29:41Z</time>
      </trkpt>
      <trkpt lat="50.9881" lon="2.41466">
        <ele>3.02</ele>
        <time>2021-08-07T06:29:42Z</time>
      </trkpt>
      <trkpt lat="50.98805" lon="2.41459">
        <ele>3.02</ele>
        <time>2021-08-07T06:29:43Z</time>
      </trkpt>
      <trkpt lat="50.98801" lon="2.41454">
        <ele>3.02</ele>
        <time>2021-08-07T06:29:44Z</time>
      </trkpt>
      <trkpt lat="50.98796" lon="2.41451">
        <ele>3.02</ele>
        <time>2021-08-07T06:29:45Z</time>
      </trkpt>
      <trkpt lat="50.98792" lon="2.41449">
        <ele>3.02</ele>
        <time>2021-08-07T06:29:46Z</time>
      </trkpt>
      <trkpt lat="50.98786" lon="2.41448">
        <ele>3.02</ele>
        <time>2021-08-07T06:29:47Z</time>
      </trkpt>
      <trkpt lat="50.98782" lon="2.41449">
        <ele>3.02</ele>
        <time>2021-08-07T06:29:48Z</time>
      </trkpt>
      <trkpt lat="50.98776" lon="2.41449">
        <ele>3.02</ele>
        <time>2021-08-07T06:29:49Z</time>
      </trkpt>
      <trkpt lat="50.9876" lon="2.41451">
        <ele>2.54</ele>
        <time>2021-08-07T06:29:52Z</time>
      </trkpt>
      <trkpt lat="50.98754" lon="2.4145">
        <ele>2.54</ele>
        <time>2021-08-07T06:29:53Z</time>
      </trkpt>
      <trkpt lat="50.98749" lon="2.41448">
        <ele>2.54</ele>
        <time>2021-08-07T06:29:54Z</time>
      </trkpt>
      <trkpt lat="50.98744" lon="2.41445">
        <ele>2.54</ele>
        <time>2021-08-07T06:29:55Z</time>
      </trkpt>
      <trkpt lat="50.98739" lon="2.41441">
        <ele>2.54</ele>
        <time>2021-08-07T06:29:56Z</time>
      </trkpt>
      <trkpt lat="50.98729" lon="2.41435">
        <ele>2.54</ele>
        <time>2021-08-07T06:29:58Z</time>
      </trkpt>
      <trkpt lat="50.98724" lon="2.41433">
        <ele>2.54</ele>
        <time>2021-08-07T06:29:59Z</time>
      </trkpt>
      <trkpt lat="50.98719" lon="2.41433">
        <ele>2.54</ele>
        <time>2021-08-07T06:30:00Z</time>
      </trkpt>
      <trkpt lat="50.98713" lon="2.41432">
        <ele>2.54</ele>
        <time>2021-08-07T06:30:01Z</time>
      </trkpt>
      <trkpt lat="50.98707" lon="2.41431">
        <ele>2.54</ele>
        <time>2021-08-07T06:30:02Z</time>
      </trkpt>
      <trkpt lat="50.98703" lon="2.41429">
        <ele>2.54</ele>
        <time>2021-08-07T06:30:03Z</time>
      </trkpt>
      <trkpt lat="50.98699" lon="2.41425">
        <ele>2.54</ele>
        <time>2021-08-07T06:30:04Z</time>
      </trkpt>
      <trkpt lat="50.98697" lon="2.41419">
        <ele>2.54</ele>
        <time>2021-08-07T06:30:05Z</time>
      </trkpt>
      <trkpt lat="50.98697" lon="2.41411">
        <ele>2.54</ele>
        <time>2021-08-07T06:30:06Z</time>
      </trkpt>
      <trkpt lat="50.98696" lon="2.41403">
        <ele>2.54</ele>
        <time>2021-08-07T06:30:07Z</time>
      </trkpt>
      <trkpt lat="50.98693" lon="2.4136">
        <ele>2.54</ele>
        <time>2021-08-07T06:30:13Z</time>
      </trkpt>
      <trkpt lat="50.98689" lon="2.41322">
        <ele>2.54</ele>
        <time>2021-08-07T06:30:18Z</time>
      </trkpt>
      <trkpt lat="50.98687" lon="2.41315">
        <ele>2.54</ele>
        <time>2021-08-07T06:30:19Z</time>
      </trkpt>
      <trkpt lat="50.98684" lon="2.41308">
        <ele>2.54</ele>
        <time>2021-08-07T06:30:20Z</time>
      </trkpt>
      <trkpt lat="50.98681" lon="2.41304">
        <ele>2.54</ele>
        <time>2021-08-07T06:30:21Z</time>
      </trkpt>
      <trkpt lat="50.98677" lon="2.413">
        <ele>2.54</ele>
        <time>2021-08-07T06:30:22Z</time>
      </trkpt>
      <trkpt lat="50.98672" lon="2.41296">
        <ele>2.54</ele>
        <time>2021-08-07T06:30:23Z</time>
      </trkpt>
      <trkpt lat="50.98669" lon="2.41295">
        <ele>2.54</ele>
        <time>2021-08-07T06:30:24Z</time>
      </trkpt>
      <trkpt lat="50.98652" lon="2.41282">
        <ele>2.54</ele>
        <time>2021-08-07T06:30:26Z</time>
      </trkpt>
      <trkpt lat="50.98646" lon="2.41282">
        <ele>2.54</ele>
        <time>2021-08-07T06:30:27Z</time>
      </trkpt>
      <trkpt lat="50.9864" lon="2.41282">
        <ele>2.54</ele>
        <time>2021-08-07T06:30:28Z</time>
      </trkpt>
      <trkpt lat="50.98635" lon="2.41283">
        <ele>2.54</ele>
        <time>2021-08-07T06:30:29Z</time>
      </trkpt>
      <trkpt lat="50.98631" lon="2.41287">
        <ele>2.54</ele>
        <time>2021-08-07T06:30:30Z</time>
      </trkpt>
      <trkpt lat="50.98629" lon="2.41293">
        <ele>2.54</ele>
        <time>2021-08-07T06:30:31Z</time>
      </trkpt>
      <trkpt lat="50.98628" lon="2.41298">
        <ele>2.54</ele>
        <time>2021-08-07T06:30:32Z</time>
      </trkpt>
      <trkpt lat="50.98627" lon="2.41305">
        <ele>2.54</ele>
        <time>2021-08-07T06:30:33Z</time>
      </trkpt>
      <trkpt lat="50.98626" lon="2.4131">
        <ele>2.54</ele>
        <time>2021-08-07T06:30:34Z</time>
      </trkpt>
      <trkpt lat="50.98625" lon="2.41316">
        <ele>2.54</ele>
        <time>2021-08-07T06:30:35Z</time>
      </trkpt>
      <trkpt lat="50.98624" lon="2.4132">
        <ele>2.54</ele>
        <time>2021-08-07T06:30:36Z</time>
      </trkpt>
      <trkpt lat="50.98622" lon="2.41326">
        <ele>2.54</ele>
        <time>2021-08-07T06:30:37Z</time>
      </trkpt>
      <trkpt lat="50.98619" lon="2.41331">
        <ele>2.54</ele>
        <time>2021-08-07T06:30:38Z</time>
      </trkpt>
      <trkpt lat="50.98616" lon="2.41332">
        <ele>2.54</ele>
        <time>2021-08-07T06:30:39Z</time>
      </trkpt>
      <trkpt lat="50.98608" lon="2.41332">
        <ele>2.54</ele>
        <time>2021-08-07T06:30:41Z</time>
      </trkpt>
      <trkpt lat="50.98602" lon="2.41332">
        <ele>2.54</ele>
        <time>2021-08-07T06:30:42Z</time>
      </trkpt>
      <trkpt lat="50.98598" lon="2.41333">
        <ele>2.54</ele>
        <time>2021-08-07T06:30:43Z</time>
      </trkpt>
      <trkpt lat="50.98593" lon="2.41337">
        <ele>2.54</ele>
        <time>2021-08-07T06:30:44Z</time>
      </trkpt>
      <trkpt lat="50.98589" lon="2.41342">
        <ele>2.54</ele>
        <time>2021-08-07T06:30:45Z</time>
      </trkpt>
      <trkpt lat="50.98586" lon="2.41347">
        <ele>2.54</ele>
        <time>2021-08-07T06:30:46Z</time>
      </trkpt>
      <trkpt lat="50.98568" lon="2.41393">
        <ele>2.54</ele>
        <time>2021-08-07T06:30:53Z</time>
      </trkpt>
      <trkpt lat="50.98567" lon="2.41401">
        <ele>2.54</ele>
        <time>2021-08-07T06:30:54Z</time>
      </trkpt>
      <trkpt lat="50.98565" lon="2.41408">
        <ele>2.54</ele>
        <time>2021-08-07T06:30:55Z</time>
      </trkpt>
      <trkpt lat="50.98565" lon="2.41414">
        <ele>2.06</ele>
        <time>2021-08-07T06:30:56Z</time>
      </trkpt>
      <trkpt lat="50.98565" lon="2.41423">
        <ele>2.06</ele>
        <time>2021-08-07T06:30:57Z</time>
      </trkpt>
      <trkpt lat="50.98565" lon="2.41431">
        <ele>2.06</ele>
        <time>2021-08-07T06:30:58Z</time>
      </trkpt>
      <trkpt lat="50.98566" lon="2.41439">
        <ele>2.06</ele>
        <time>2021-08-07T06:30:59Z</time>
      </trkpt>
      <trkpt lat="50.98566" lon="2.41446">
        <ele>2.06</ele>
        <time>2021-08-07T06:31:00Z</time>
      </trkpt>
      <trkpt lat="50.98565" lon="2.41461">
        <ele>2.06</ele>
        <time>2021-08-07T06:31:02Z</time>
      </trkpt>
      <trkpt lat="50.98563" lon="2.41485">
        <ele>2.06</ele>
        <time>2021-08-07T06:31:05Z</time>
      </trkpt>
      <trkpt lat="50.98563" lon="2.41494">
        <ele>2.06</ele>
        <time>2021-08-07T06:31:06Z</time>
      </trkpt>
      <trkpt lat="50.98565" lon="2.41502">
        <ele>2.06</ele>
        <time>2021-08-07T06:31:07Z</time>
      </trkpt>
      <trkpt lat="50.98567" lon="2.4151">
        <ele>2.06</ele>
        <time>2021-08-07T06:31:08Z</time>
      </trkpt>
      <trkpt lat="50.98569" lon="2.41519">
        <ele>2.06</ele>
        <time>2021-08-07T06:31:09Z</time>
      </trkpt>
      <trkpt lat="50.98571" lon="2.41527">
        <ele>2.06</ele>
        <time>2021-08-07T06:31:10Z</time>
      </trkpt>
      <trkpt lat="50.98573" lon="2.41537">
        <ele>2.06</ele>
        <time>2021-08-07T06:31:11Z</time>
      </trkpt>
      <trkpt lat="50.98574" lon="2.41546">
        <ele>2.06</ele>
        <time>2021-08-07T06:31:12Z</time>
      </trkpt>
      <trkpt lat="50.98575" lon="2.41556">
        <ele>2.06</ele>
        <time>2021-08-07T06:31:13Z</time>
      </trkpt>
      <trkpt lat="50.98575" lon="2.41565">
        <ele>2.06</ele>
        <time>2021-08-07T06:31:14Z</time>
      </trkpt>
      <trkpt lat="50.98575" lon="2.41573">
        <ele>2.06</ele>
        <time>2021-08-07T06:31:15Z</time>
      </trkpt>
      <trkpt lat="50.98574" lon="2.4158">
        <ele>2.06</ele>
        <time>2021-08-07T06:31:16Z</time>
      </trkpt>
      <trkpt lat="50.98572" lon="2.41587">
        <ele>2.06</ele>
        <time>2021-08-07T06:31:17Z</time>
      </trkpt>
      <trkpt lat="50.98568" lon="2.41592">
        <ele>2.54</ele>
        <time>2021-08-07T06:31:18Z</time>
      </trkpt>
      <trkpt lat="50.98565" lon="2.41594">
        <ele>2.54</ele>
        <time>2021-08-07T06:31:19Z</time>
      </trkpt>
      <trkpt lat="50.9856" lon="2.41596">
        <ele>2.06</ele>
        <time>2021-08-07T06:31:20Z</time>
      </trkpt>
      <trkpt lat="50.98555" lon="2.41597">
        <ele>2.06</ele>
        <time>2021-08-07T06:31:21Z</time>
      </trkpt>
      <trkpt lat="50.98539" lon="2.41601">
        <ele>2.54</ele>
        <time>2021-08-07T06:31:24Z</time>
      </trkpt>
      <trkpt lat="50.98535" lon="2.41602">
        <ele>2.54</ele>
        <time>2021-08-07T06:31:25Z</time>
      </trkpt>
      <trkpt lat="50.9853" lon="2.41606">
        <ele>2.54</ele>
        <time>2021-08-07T06:31:26Z</time>
      </trkpt>
      <trkpt lat="50.98527" lon="2.41609">
        <ele>2.54</ele>
        <time>2021-08-07T06:31:27Z</time>
      </trkpt>
      <trkpt lat="50.98524" lon="2.41614">
        <ele>2.54</ele>
        <time>2021-08-07T06:31:28Z</time>
      </trkpt>
      <trkpt lat="50.98523" lon="2.41618">
        <ele>2.54</ele>
        <time>2021-08-07T06:31:29Z</time>
      </trkpt>
      <trkpt lat="50.98522" lon="2.41622">
        <ele>2.54</ele>
        <time>2021-08-07T06:31:30Z</time>
      </trkpt>
      <trkpt lat="50.98522" lon="2.41626">
        <ele>2.54</ele>
        <time>2021-08-07T06:31:31Z</time>
      </trkpt>
      <trkpt lat="50.98522" lon="2.41632">
        <ele>2.54</ele>
        <time>2021-08-07T06:31:32Z</time>
      </trkpt>
      <trkpt lat="50.98525" lon="2.41639">
        <ele>2.54</ele>
        <time>2021-08-07T06:31:33Z</time>
      </trkpt>
      <trkpt lat="50.98526" lon="2.41648">
        <ele>2.54</ele>
        <time>2021-08-07T06:31:34Z</time>
      </trkpt>
      <trkpt lat="50.98527" lon="2.41657">
        <ele>2.54</ele>
        <time>2021-08-07T06:31:35Z</time>
      </trkpt>
      <trkpt lat="50.98527" lon="2.41666">
        <ele>2.54</ele>
        <time>2021-08-07T06:31:36Z</time>
      </trkpt>
      <trkpt lat="50.98526" lon="2.41684">
        <ele>2.54</ele>
        <time>2021-08-07T06:31:38Z</time>
      </trkpt>
      <trkpt lat="50.98523" lon="2.4172">
        <ele>2.54</ele>
        <time>2021-08-07T06:31:42Z</time>
      </trkpt>
      <trkpt lat="50.98522" lon="2.41729">
        <ele>2.54</ele>
        <time>2021-08-07T06:31:43Z</time>
      </trkpt>
      <trkpt lat="50.98522" lon="2.41738">
        <ele>2.54</ele>
        <time>2021-08-07T06:31:44Z</time>
      </trkpt>
      <trkpt lat="50.98522" lon="2.41747">
        <ele>2.54</ele>
        <time>2021-08-07T06:31:45Z</time>
      </trkpt>
      <trkpt lat="50.98522" lon="2.41757">
        <ele>2.54</ele>
        <time>2021-08-07T06:31:46Z</time>
      </trkpt>
      <trkpt lat="50.98519" lon="2.41774">
        <ele>2.54</ele>
        <time>2021-08-07T06:31:48Z</time>
      </trkpt>
      <trkpt lat="50.98517" lon="2.41783">
        <ele>2.54</ele>
        <time>2021-08-07T06:31:49Z</time>
      </trkpt>
      <trkpt lat="50.98515" lon="2.4179">
        <ele>2.54</ele>
        <time>2021-08-07T06:31:50Z</time>
      </trkpt>
      <trkpt lat="50.98507" lon="2.41813">
        <ele>2.54</ele>
        <time>2021-08-07T06:31:53Z</time>
      </trkpt>
      <trkpt lat="50.98504" lon="2.4182">
        <ele>2.54</ele>
        <time>2021-08-07T06:31:54Z</time>
      </trkpt>
      <trkpt lat="50.98499" lon="2.41824">
        <ele>2.54</ele>
        <time>2021-08-07T06:31:55Z</time>
      </trkpt>
      <trkpt lat="50.98492" lon="2.41829">
        <ele>2.54</ele>
        <time>2021-08-07T06:31:57Z</time>
      </trkpt>
      <trkpt lat="50.98482" lon="2.41834">
        <ele>2.54</ele>
        <time>2021-08-07T06:31:59Z</time>
      </trkpt>
      <trkpt lat="50.98477" lon="2.41836">
        <ele>2.54</ele>
        <time>2021-08-07T06:32:00Z</time>
      </trkpt>
      <trkpt lat="50.98472" lon="2.4184">
        <ele>2.54</ele>
        <time>2021-08-07T06:32:01Z</time>
      </trkpt>
      <trkpt lat="50.98463" lon="2.41848">
        <ele>2.54</ele>
        <time>2021-08-07T06:32:03Z</time>
      </trkpt>
      <trkpt lat="50.98459" lon="2.41853">
        <ele>2.54</ele>
        <time>2021-08-07T06:32:04Z</time>
      </trkpt>
      <trkpt lat="50.98455" lon="2.41858">
        <ele>2.54</ele>
        <time>2021-08-07T06:32:05Z</time>
      </trkpt>
      <trkpt lat="50.98438" lon="2.41873">
        <ele>2.54</ele>
        <time>2021-08-07T06:32:09Z</time>
      </trkpt>
      <trkpt lat="50.98434" lon="2.41878">
        <ele>2.54</ele>
        <time>2021-08-07T06:32:10Z</time>
      </trkpt>
      <trkpt lat="50.98431" lon="2.41884">
        <ele>2.54</ele>
        <time>2021-08-07T06:32:11Z</time>
      </trkpt>
      <trkpt lat="50.98428" lon="2.41889">
        <ele>2.54</ele>
        <time>2021-08-07T06:32:12Z</time>
      </trkpt>
      <trkpt lat="50.98425" lon="2.41895">
        <ele>2.54</ele>
        <time>2021-08-07T06:32:13Z</time>
      </trkpt>
      <trkpt lat="50.98421" lon="2.419">
        <ele>2.54</ele>
        <time>2021-08-07T06:32:14Z</time>
      </trkpt>
      <trkpt lat="50.98417" lon="2.41907">
        <ele>2.54</ele>
        <time>2021-08-07T06:32:15Z</time>
      </trkpt>
      <trkpt lat="50.98413" lon="2.41912">
        <ele>2.54</ele>
        <time>2021-08-07T06:32:16Z</time>
      </trkpt>
      <trkpt lat="50.98408" lon="2.41916">
        <ele>2.54</ele>
        <time>2021-08-07T06:32:17Z</time>
      </trkpt>
      <trkpt lat="50.98404" lon="2.4192">
        <ele>2.54</ele>
        <time>2021-08-07T06:32:18Z</time>
      </trkpt>
      <trkpt lat="50.98399" lon="2.41922">
        <ele>2.54</ele>
        <time>2021-08-07T06:32:19Z</time>
      </trkpt>
      <trkpt lat="50.98357" lon="2.41938">
        <ele>2.54</ele>
        <time>2021-08-07T06:32:27Z</time>
      </trkpt>
      <trkpt lat="50.9833" lon="2.41949">
        <ele>2.54</ele>
        <time>2021-08-07T06:32:32Z</time>
      </trkpt>
      <trkpt lat="50.98305" lon="2.4197">
        <ele>2.54</ele>
        <time>2021-08-07T06:32:37Z</time>
      </trkpt>
      <trkpt lat="50.98285" lon="2.41993">
        <ele>2.54</ele>
        <time>2021-08-07T06:32:41Z</time>
      </trkpt>
      <trkpt lat="50.9828" lon="2.41997">
        <ele>2.54</ele>
        <time>2021-08-07T06:32:42Z</time>
      </trkpt>
      <trkpt lat="50.98274" lon="2.42001">
        <ele>2.54</ele>
        <time>2021-08-07T06:32:43Z</time>
      </trkpt>
      <trkpt lat="50.98264" lon="2.42007">
        <ele>2.06</ele>
        <time>2021-08-07T06:32:45Z</time>
      </trkpt>
      <trkpt lat="50.98259" lon="2.42012">
        <ele>2.06</ele>
        <time>2021-08-07T06:32:46Z</time>
      </trkpt>
      <trkpt lat="50.98254" lon="2.42017">
        <ele>2.06</ele>
        <time>2021-08-07T06:32:47Z</time>
      </trkpt>
      <trkpt lat="50.98246" lon="2.42027">
        <ele>2.06</ele>
        <time>2021-08-07T06:32:49Z</time>
      </trkpt>
      <trkpt lat="50.98241" lon="2.42031">
        <ele>2.06</ele>
        <time>2021-08-07T06:32:50Z</time>
      </trkpt>
      <trkpt lat="50.98235" lon="2.42034">
        <ele>2.06</ele>
        <time>2021-08-07T06:32:51Z</time>
      </trkpt>
      <trkpt lat="50.98219" lon="2.42044">
        <ele>2.06</ele>
        <time>2021-08-07T06:32:54Z</time>
      </trkpt>
      <trkpt lat="50.98214" lon="2.42049">
        <ele>2.06</ele>
        <time>2021-08-07T06:32:55Z</time>
      </trkpt>
      <trkpt lat="50.9821" lon="2.42055">
        <ele>2.06</ele>
        <time>2021-08-07T06:32:56Z</time>
      </trkpt>
      <trkpt lat="50.98207" lon="2.42062">
        <ele>2.06</ele>
        <time>2021-08-07T06:32:57Z</time>
      </trkpt>
      <trkpt lat="50.98204" lon="2.42069">
        <ele>2.06</ele>
        <time>2021-08-07T06:32:58Z</time>
      </trkpt>
      <trkpt lat="50.982" lon="2.42076">
        <ele>2.06</ele>
        <time>2021-08-07T06:32:59Z</time>
      </trkpt>
      <trkpt lat="50.98196" lon="2.42083">
        <ele>2.06</ele>
        <time>2021-08-07T06:33:00Z</time>
      </trkpt>
      <trkpt lat="50.98192" lon="2.42089">
        <ele>2.06</ele>
        <time>2021-08-07T06:33:01Z</time>
      </trkpt>
      <trkpt lat="50.98162" lon="2.42145">
        <ele>2.06</ele>
        <time>2021-08-07T06:33:09Z</time>
      </trkpt>
      <trkpt lat="50.9815" lon="2.42162">
        <ele>2.06</ele>
        <time>2021-08-07T06:33:12Z</time>
      </trkpt>
      <trkpt lat="50.98144" lon="2.42168">
        <ele>2.06</ele>
        <time>2021-08-07T06:33:13Z</time>
      </trkpt>
      <trkpt lat="50.98116" lon="2.42197">
        <ele>2.06</ele>
        <time>2021-08-07T06:33:19Z</time>
      </trkpt>
      <trkpt lat="50.98112" lon="2.42204">
        <ele>2.06</ele>
        <time>2021-08-07T06:33:20Z</time>
      </trkpt>
      <trkpt lat="50.98108" lon="2.4221">
        <ele>2.06</ele>
        <time>2021-08-07T06:33:21Z</time>
      </trkpt>
      <trkpt lat="50.98103" lon="2.42216">
        <ele>2.06</ele>
        <time>2021-08-07T06:33:22Z</time>
      </trkpt>
      <trkpt lat="50.98099" lon="2.42221">
        <ele>2.06</ele>
        <time>2021-08-07T06:33:23Z</time>
      </trkpt>
      <trkpt lat="50.98094" lon="2.42224">
        <ele>2.06</ele>
        <time>2021-08-07T06:33:24Z</time>
      </trkpt>
      <trkpt lat="50.98089" lon="2.42225">
        <ele>2.06</ele>
        <time>2021-08-07T06:33:25Z</time>
      </trkpt>
      <trkpt lat="50.98084" lon="2.42226">
        <ele>2.06</ele>
        <time>2021-08-07T06:33:26Z</time>
      </trkpt>
      <trkpt lat="50.98078" lon="2.42226">
        <ele>2.06</ele>
        <time>2021-08-07T06:33:27Z</time>
      </trkpt>
      <trkpt lat="50.98067" lon="2.42221">
        <ele>2.06</ele>
        <time>2021-08-07T06:33:29Z</time>
      </trkpt>
      <trkpt lat="50.98061" lon="2.42218">
        <ele>2.06</ele>
        <time>2021-08-07T06:33:30Z</time>
      </trkpt>
      <trkpt lat="50.98056" lon="2.42216">
        <ele>2.06</ele>
        <time>2021-08-07T06:33:31Z</time>
      </trkpt>
      <trkpt lat="50.9805" lon="2.42216">
        <ele>2.06</ele>
        <time>2021-08-07T06:33:32Z</time>
      </trkpt>
      <trkpt lat="50.98044" lon="2.42218">
        <ele>2.06</ele>
        <time>2021-08-07T06:33:33Z</time>
      </trkpt>
      <trkpt lat="50.98039" lon="2.4222">
        <ele>2.06</ele>
        <time>2021-08-07T06:33:34Z</time>
      </trkpt>
      <trkpt lat="50.97998" lon="2.42239">
        <ele>2.06</ele>
        <time>2021-08-07T06:33:41Z</time>
      </trkpt>
      <trkpt lat="50.97993" lon="2.42241">
        <ele>2.06</ele>
        <time>2021-08-07T06:33:42Z</time>
      </trkpt>
      <trkpt lat="50.9797" lon="2.42247">
        <ele>2.06</ele>
        <time>2021-08-07T06:33:46Z</time>
      </trkpt>
      <trkpt lat="50.97953" lon="2.4225">
        <ele>2.06</ele>
        <time>2021-08-07T06:33:49Z</time>
      </trkpt>
      <trkpt lat="50.97947" lon="2.42249">
        <ele>2.06</ele>
        <time>2021-08-07T06:33:50Z</time>
      </trkpt>
      <trkpt lat="50.97942" lon="2.42248">
        <ele>2.06</ele>
        <time>2021-08-07T06:33:51Z</time>
      </trkpt>
      <trkpt lat="50.97925" lon="2.42244">
        <ele>2.06</ele>
        <time>2021-08-07T06:33:54Z</time>
      </trkpt>
      <trkpt lat="50.9792" lon="2.42244">
        <ele>2.06</ele>
        <time>2021-08-07T06:33:55Z</time>
      </trkpt>
      <trkpt lat="50.97908" lon="2.42247">
        <ele>2.06</ele>
        <time>2021-08-07T06:33:57Z</time>
      </trkpt>
      <trkpt lat="50.97865" lon="2.4226">
        <ele>3.5</ele>
        <time>2021-08-07T06:34:05Z</time>
      </trkpt>
      <trkpt lat="50.97821" lon="2.42261">
        <ele>3.5</ele>
        <time>2021-08-07T06:34:13Z</time>
      </trkpt>
      <trkpt lat="50.97815" lon="2.4226">
        <ele>3.5</ele>
        <time>2021-08-07T06:34:14Z</time>
      </trkpt>
      <trkpt lat="50.97788" lon="2.42246">
        <ele>3.5</ele>
        <time>2021-08-07T06:34:19Z</time>
      </trkpt>
      <trkpt lat="50.97768" lon="2.42226">
        <ele>3.5</ele>
        <time>2021-08-07T06:34:23Z</time>
      </trkpt>
      <trkpt lat="50.97763" lon="2.42223">
        <ele>3.5</ele>
        <time>2021-08-07T06:34:24Z</time>
      </trkpt>
      <trkpt lat="50.97758" lon="2.42223">
        <ele>3.5</ele>
        <time>2021-08-07T06:34:25Z</time>
      </trkpt>
      <trkpt lat="50.97747" lon="2.42225">
        <ele>3.5</ele>
        <time>2021-08-07T06:34:27Z</time>
      </trkpt>
      <trkpt lat="50.97742" lon="2.42225">
        <ele>3.5</ele>
        <time>2021-08-07T06:34:28Z</time>
      </trkpt>
      <trkpt lat="50.97716" lon="2.42225">
        <ele>3.98</ele>
        <time>2021-08-07T06:34:33Z</time>
      </trkpt>
      <trkpt lat="50.97712" lon="2.42224">
        <ele>3.98</ele>
        <time>2021-08-07T06:34:34Z</time>
      </trkpt>
      <trkpt lat="50.97708" lon="2.42225">
        <ele>4.46</ele>
        <time>2021-08-07T06:34:35Z</time>
      </trkpt>
      <trkpt lat="50.97694" lon="2.42225">
        <ele>4.46</ele>
        <time>2021-08-07T06:34:38Z</time>
      </trkpt>
      <trkpt lat="50.97689" lon="2.42225">
        <ele>4.46</ele>
        <time>2021-08-07T06:34:39Z</time>
      </trkpt>
      <trkpt lat="50.97684" lon="2.42225">
        <ele>4.46</ele>
        <time>2021-08-07T06:34:40Z</time>
      </trkpt>
      <trkpt lat="50.9768" lon="2.42225">
        <ele>4.46</ele>
        <time>2021-08-07T06:34:41Z</time>
      </trkpt>
      <trkpt lat="50.97656" lon="2.42221">
        <ele>4.46</ele>
        <time>2021-08-07T06:34:46Z</time>
      </trkpt>
      <trkpt lat="50.9765" lon="2.42222">
        <ele>4.46</ele>
        <time>2021-08-07T06:34:47Z</time>
      </trkpt>
      <trkpt lat="50.97644" lon="2.42223">
        <ele>4.46</ele>
        <time>2021-08-07T06:34:48Z</time>
      </trkpt>
      <trkpt lat="50.97638" lon="2.42226">
        <ele>4.46</ele>
        <time>2021-08-07T06:34:49Z</time>
      </trkpt>
      <trkpt lat="50.97633" lon="2.4223">
        <ele>4.46</ele>
        <time>2021-08-07T06:34:50Z</time>
      </trkpt>
      <trkpt lat="50.97597" lon="2.42254">
        <ele>4.46</ele>
        <time>2021-08-07T06:34:57Z</time>
      </trkpt>
      <trkpt lat="50.97571" lon="2.42275">
        <ele>4.46</ele>
        <time>2021-08-07T06:35:02Z</time>
      </trkpt>
      <trkpt lat="50.97542" lon="2.42313">
        <ele>3.5</ele>
        <time>2021-08-07T06:35:09Z</time>
      </trkpt>
      <trkpt lat="50.97537" lon="2.42319">
        <ele>3.5</ele>
        <time>2021-08-07T06:35:10Z</time>
      </trkpt>
      <trkpt lat="50.97534" lon="2.42325">
        <ele>3.5</ele>
        <time>2021-08-07T06:35:11Z</time>
      </trkpt>
      <trkpt lat="50.97529" lon="2.4233">
        <ele>3.5</ele>
        <time>2021-08-07T06:35:12Z</time>
      </trkpt>
      <trkpt lat="50.97526" lon="2.42335">
        <ele>3.5</ele>
        <time>2021-08-07T06:35:13Z</time>
      </trkpt>
      <trkpt lat="50.97523" lon="2.42341">
        <ele>3.5</ele>
        <time>2021-08-07T06:35:14Z</time>
      </trkpt>
      <trkpt lat="50.9752" lon="2.42346">
        <ele>4.94</ele>
        <time>2021-08-07T06:35:15Z</time>
      </trkpt>
      <trkpt lat="50.97507" lon="2.42365">
        <ele>5.42</ele>
        <time>2021-08-07T06:35:20Z</time>
      </trkpt>
      <trkpt lat="50.97506" lon="2.42365">
        <ele>5.42</ele>
        <time>2021-08-07T06:35:21Z</time>
      </trkpt>
      <trkpt lat="50.97505" lon="2.42363">
        <ele>5.42</ele>
        <time>2021-08-07T06:35:22Z</time>
      </trkpt>
      <trkpt lat="50.97505" lon="2.4236">
        <ele>5.91</ele>
        <time>2021-08-07T06:35:23Z</time>
      </trkpt>
      <trkpt lat="50.97505" lon="2.42357">
        <ele>5.91</ele>
        <time>2021-08-07T06:35:24Z</time>
      </trkpt>
      <trkpt lat="50.97502" lon="2.42328">
        <ele>6.39</ele>
        <time>2021-08-07T06:35:30Z</time>
      </trkpt>
      <trkpt lat="50.975" lon="2.42323">
        <ele>6.39</ele>
        <time>2021-08-07T06:35:31Z</time>
      </trkpt>
      <trkpt lat="50.97497" lon="2.42321">
        <ele>6.87</ele>
        <time>2021-08-07T06:35:32Z</time>
      </trkpt>
      <trkpt lat="50.97494" lon="2.42321">
        <ele>6.87</ele>
        <time>2021-08-07T06:35:33Z</time>
      </trkpt>
      <trkpt lat="50.97491" lon="2.42323">
        <ele>6.87</ele>
        <time>2021-08-07T06:35:34Z</time>
      </trkpt>
      <trkpt lat="50.97488" lon="2.42326">
        <ele>6.87</ele>
        <time>2021-08-07T06:35:35Z</time>
      </trkpt>
      <trkpt lat="50.97485" lon="2.4233">
        <ele>6.87</ele>
        <time>2021-08-07T06:35:36Z</time>
      </trkpt>
      <trkpt lat="50.97481" lon="2.42335">
        <ele>6.87</ele>
        <time>2021-08-07T06:35:37Z</time>
      </trkpt>
      <trkpt lat="50.9745" lon="2.4238">
        <ele>6.87</ele>
        <time>2021-08-07T06:35:46Z</time>
      </trkpt>
      <trkpt lat="50.9743" lon="2.42407">
        <ele>6.39</ele>
        <time>2021-08-07T06:35:52Z</time>
      </trkpt>
      <trkpt lat="50.97399" lon="2.42451">
        <ele>5.42</ele>
        <time>2021-08-07T06:36:00Z</time>
      </trkpt>
      <trkpt lat="50.97369" lon="2.42489">
        <ele>4.94</ele>
        <time>2021-08-07T06:36:07Z</time>
      </trkpt>
      <trkpt lat="50.9736" lon="2.425">
        <ele>4.94</ele>
        <time>2021-08-07T06:36:09Z</time>
      </trkpt>
      <trkpt lat="50.97317" lon="2.42543">
        <ele>4.94</ele>
        <time>2021-08-07T06:36:17Z</time>
      </trkpt>
      <trkpt lat="50.97308" lon="2.4255">
        <ele>4.94</ele>
        <time>2021-08-07T06:36:19Z</time>
      </trkpt>
      <trkpt lat="50.97275" lon="2.42591">
        <ele>4.94</ele>
        <time>2021-08-07T06:36:27Z</time>
      </trkpt>
      <trkpt lat="50.97241" lon="2.42619">
        <ele>4.94</ele>
        <time>2021-08-07T06:36:34Z</time>
      </trkpt>
      <trkpt lat="50.97207" lon="2.42648">
        <ele>4.94</ele>
        <time>2021-08-07T06:36:41Z</time>
      </trkpt>
      <trkpt lat="50.97201" lon="2.42652">
        <ele>4.94</ele>
        <time>2021-08-07T06:36:42Z</time>
      </trkpt>
      <trkpt lat="50.97172" lon="2.42677">
        <ele>4.94</ele>
        <time>2021-08-07T06:36:48Z</time>
      </trkpt>
      <trkpt lat="50.97167" lon="2.42684">
        <ele>4.94</ele>
        <time>2021-08-07T06:36:49Z</time>
      </trkpt>
      <trkpt lat="50.97165" lon="2.42689">
        <ele>4.94</ele>
        <time>2021-08-07T06:36:50Z</time>
      </trkpt>
      <trkpt lat="50.97162" lon="2.42696">
        <ele>4.94</ele>
        <time>2021-08-07T06:36:51Z</time>
      </trkpt>
      <trkpt lat="50.97159" lon="2.42704">
        <ele>4.94</ele>
        <time>2021-08-07T06:36:52Z</time>
      </trkpt>
      <trkpt lat="50.97155" lon="2.42718">
        <ele>4.94</ele>
        <time>2021-08-07T06:36:54Z</time>
      </trkpt>
      <trkpt lat="50.97156" lon="2.42725">
        <ele>4.46</ele>
        <time>2021-08-07T06:36:55Z</time>
      </trkpt>
      <trkpt lat="50.97158" lon="2.42733">
        <ele>4.46</ele>
        <time>2021-08-07T06:36:56Z</time>
      </trkpt>
      <trkpt lat="50.97164" lon="2.42755">
        <ele>4.46</ele>
        <time>2021-08-07T06:36:59Z</time>
      </trkpt>
      <trkpt lat="50.97182" lon="2.42829">
        <ele>5.42</ele>
        <time>2021-08-07T06:37:08Z</time>
      </trkpt>
      <trkpt lat="50.97204" lon="2.42924">
        <ele>5.42</ele>
        <time>2021-08-07T06:37:19Z</time>
      </trkpt>
      <trkpt lat="50.97216" lon="2.43001">
        <ele>5.42</ele>
        <time>2021-08-07T06:37:27Z</time>
      </trkpt>
      <trkpt lat="50.97215" lon="2.43012">
        <ele>5.42</ele>
        <time>2021-08-07T06:37:28Z</time>
      </trkpt>
      <trkpt lat="50.97214" lon="2.4302">
        <ele>5.42</ele>
        <time>2021-08-07T06:37:29Z</time>
      </trkpt>
      <trkpt lat="50.97213" lon="2.43029">
        <ele>5.42</ele>
        <time>2021-08-07T06:37:30Z</time>
      </trkpt>
      <trkpt lat="50.97194" lon="2.43123">
        <ele>5.42</ele>
        <time>2021-08-07T06:37:40Z</time>
      </trkpt>
      <trkpt lat="50.97183" lon="2.43175">
        <ele>5.91</ele>
        <time>2021-08-07T06:37:46Z</time>
      </trkpt>
      <trkpt lat="50.97182" lon="2.43183">
        <ele>6.39</ele>
        <time>2021-08-07T06:37:47Z</time>
      </trkpt>
      <trkpt lat="50.97181" lon="2.43199">
        <ele>6.87</ele>
        <time>2021-08-07T06:37:49Z</time>
      </trkpt>
      <trkpt lat="50.97186" lon="2.43273">
        <ele>6.87</ele>
        <time>2021-08-07T06:37:58Z</time>
      </trkpt>
      <trkpt lat="50.97188" lon="2.43311">
        <ele>7.35</ele>
        <time>2021-08-07T06:38:04Z</time>
      </trkpt>
      <trkpt lat="50.97186" lon="2.43315">
        <ele>7.35</ele>
        <time>2021-08-07T06:38:05Z</time>
      </trkpt>
      <trkpt lat="50.97184" lon="2.43317">
        <ele>7.83</ele>
        <time>2021-08-07T06:38:06Z</time>
      </trkpt>
      <trkpt lat="50.97181" lon="2.43319">
        <ele>7.83</ele>
        <time>2021-08-07T06:38:07Z</time>
      </trkpt>
      <trkpt lat="50.97178" lon="2.43319">
        <ele>7.83</ele>
        <time>2021-08-07T06:38:08Z</time>
      </trkpt>
      <trkpt lat="50.97174" lon="2.43319">
        <ele>7.83</ele>
        <time>2021-08-07T06:38:09Z</time>
      </trkpt>
      <trkpt lat="50.9717" lon="2.43319">
        <ele>7.83</ele>
        <time>2021-08-07T06:38:10Z</time>
      </trkpt>
      <trkpt lat="50.97166" lon="2.43319">
        <ele>7.83</ele>
        <time>2021-08-07T06:38:11Z</time>
      </trkpt>
      <trkpt lat="50.97158" lon="2.4332">
        <ele>7.83</ele>
        <time>2021-08-07T06:38:13Z</time>
      </trkpt>
      <trkpt lat="50.97149" lon="2.43319">
        <ele>7.83</ele>
        <time>2021-08-07T06:38:15Z</time>
      </trkpt>
      <trkpt lat="50.97145" lon="2.43317">
        <ele>7.83</ele>
        <time>2021-08-07T06:38:16Z</time>
      </trkpt>
      <trkpt lat="50.97133" lon="2.43311">
        <ele>7.83</ele>
        <time>2021-08-07T06:38:19Z</time>
      </trkpt>
      <trkpt lat="50.97116" lon="2.43297">
        <ele>7.83</ele>
        <time>2021-08-07T06:38:23Z</time>
      </trkpt>
      <trkpt lat="50.97106" lon="2.4328">
        <ele>6.39</ele>
        <time>2021-08-07T06:38:26Z</time>
      </trkpt>
      <trkpt lat="50.97093" lon="2.43255">
        <ele>7.35</ele>
        <time>2021-08-07T06:38:30Z</time>
      </trkpt>
      <trkpt lat="50.97084" lon="2.43243">
        <ele>7.83</ele>
        <time>2021-08-07T06:38:33Z</time>
      </trkpt>
      <trkpt lat="50.97081" lon="2.43245">
        <ele>7.83</ele>
        <time>2021-08-07T06:38:34Z</time>
      </trkpt>
      <trkpt lat="50.9706" lon="2.43261">
        <ele>7.83</ele>
        <time>2021-08-07T06:38:40Z</time>
      </trkpt>
      <trkpt lat="50.97052" lon="2.43259">
        <ele>6.39</ele>
        <time>2021-08-07T06:38:42Z</time>
      </trkpt>
      <trkpt lat="50.97048" lon="2.43254">
        <ele>6.39</ele>
        <time>2021-08-07T06:38:43Z</time>
      </trkpt>
      <trkpt lat="50.97045" lon="2.43249">
        <ele>6.39</ele>
        <time>2021-08-07T06:38:44Z</time>
      </trkpt>
      <trkpt lat="50.97023" lon="2.43215">
        <ele>7.35</ele>
        <time>2021-08-07T06:38:50Z</time>
      </trkpt>
      <trkpt lat="50.96995" lon="2.43172">
        <ele>7.83</ele>
        <time>2021-08-07T06:38:58Z</time>
      </trkpt>
      <trkpt lat="50.9699" lon="2.43159">
        <ele>8.31</ele>
        <time>2021-08-07T06:39:01Z</time>
      </trkpt>
      <trkpt lat="50.96986" lon="2.43157">
        <ele>8.31</ele>
        <time>2021-08-07T06:39:02Z</time>
      </trkpt>
      <trkpt lat="50.96981" lon="2.4316">
        <ele>8.31</ele>
        <time>2021-08-07T06:39:03Z</time>
      </trkpt>
      <trkpt lat="50.96978" lon="2.43164">
        <ele>8.31</ele>
        <time>2021-08-07T06:39:04Z</time>
      </trkpt>
      <trkpt lat="50.96974" lon="2.43168">
        <ele>8.31</ele>
        <time>2021-08-07T06:39:05Z</time>
      </trkpt>
      <trkpt lat="50.96967" lon="2.43178">
        <ele>8.31</ele>
        <time>2021-08-07T06:39:07Z</time>
      </trkpt>
      <trkpt lat="50.9694" lon="2.43228">
        <ele>8.31</ele>
        <time>2021-08-07T06:39:16Z</time>
      </trkpt>
      <trkpt lat="50.96932" lon="2.43238">
        <ele>8.31</ele>
        <time>2021-08-07T06:39:18Z</time>
      </trkpt>
      <trkpt lat="50.96919" lon="2.43249">
        <ele>8.79</ele>
        <time>2021-08-07T06:39:21Z</time>
      </trkpt>
      <trkpt lat="50.96915" lon="2.43251">
        <ele>8.79</ele>
        <time>2021-08-07T06:39:22Z</time>
      </trkpt>
      <trkpt lat="50.96906" lon="2.43258">
        <ele>8.79</ele>
        <time>2021-08-07T06:39:24Z</time>
      </trkpt>
      <trkpt lat="50.96901" lon="2.43261">
        <ele>8.79</ele>
        <time>2021-08-07T06:39:25Z</time>
      </trkpt>
      <trkpt lat="50.96896" lon="2.43263">
        <ele>8.79</ele>
        <time>2021-08-07T06:39:26Z</time>
      </trkpt>
      <trkpt lat="50.96855" lon="2.43271">
        <ele>7.35</ele>
        <time>2021-08-07T06:39:34Z</time>
      </trkpt>
      <trkpt lat="50.96839" lon="2.4328">
        <ele>7.35</ele>
        <time>2021-08-07T06:39:38Z</time>
      </trkpt>
      <trkpt lat="50.96836" lon="2.43282">
        <ele>8.79</ele>
        <time>2021-08-07T06:39:39Z</time>
      </trkpt>
      <trkpt lat="50.96831" lon="2.43283">
        <ele>8.79</ele>
        <time>2021-08-07T06:39:40Z</time>
      </trkpt>
      <trkpt lat="50.96815" lon="2.43292">
        <ele>8.79</ele>
        <time>2021-08-07T06:39:44Z</time>
      </trkpt>
      <trkpt lat="50.96811" lon="2.43294">
        <ele>7.35</ele>
        <time>2021-08-07T06:39:45Z</time>
      </trkpt>
      <trkpt lat="50.96807" lon="2.43295">
        <ele>7.35</ele>
        <time>2021-08-07T06:39:46Z</time>
      </trkpt>
      <trkpt lat="50.96802" lon="2.43295">
        <ele>7.83</ele>
        <time>2021-08-07T06:39:47Z</time>
      </trkpt>
      <trkpt lat="50.96799" lon="2.43293">
        <ele>7.35</ele>
        <time>2021-08-07T06:39:48Z</time>
      </trkpt>
      <trkpt lat="50.96795" lon="2.4329">
        <ele>7.35</ele>
        <time>2021-08-07T06:39:49Z</time>
      </trkpt>
      <trkpt lat="50.96791" lon="2.43285">
        <ele>7.35</ele>
        <time>2021-08-07T06:39:50Z</time>
      </trkpt>
      <trkpt lat="50.96787" lon="2.43281">
        <ele>7.35</ele>
        <time>2021-08-07T06:39:51Z</time>
      </trkpt>
      <trkpt lat="50.96776" lon="2.43265">
        <ele>8.79</ele>
        <time>2021-08-07T06:39:54Z</time>
      </trkpt>
      <trkpt lat="50.96765" lon="2.4325">
        <ele>6.39</ele>
        <time>2021-08-07T06:39:57Z</time>
      </trkpt>
      <trkpt lat="50.96736" lon="2.43221">
        <ele>7.83</ele>
        <time>2021-08-07T06:40:04Z</time>
      </trkpt>
      <trkpt lat="50.96732" lon="2.43218">
        <ele>7.83</ele>
        <time>2021-08-07T06:40:05Z</time>
      </trkpt>
      <trkpt lat="50.96727" lon="2.43216">
        <ele>7.83</ele>
        <time>2021-08-07T06:40:06Z</time>
      </trkpt>
      <trkpt lat="50.96722" lon="2.43216">
        <ele>7.83</ele>
        <time>2021-08-07T06:40:07Z</time>
      </trkpt>
      <trkpt lat="50.96716" lon="2.43217">
        <ele>7.83</ele>
        <time>2021-08-07T06:40:08Z</time>
      </trkpt>
      <trkpt lat="50.96711" lon="2.43219">
        <ele>7.83</ele>
        <time>2021-08-07T06:40:09Z</time>
      </trkpt>
      <trkpt lat="50.96706" lon="2.43221">
        <ele>7.83</ele>
        <time>2021-08-07T06:40:10Z</time>
      </trkpt>
      <trkpt lat="50.96674" lon="2.43234">
        <ele>7.83</ele>
        <time>2021-08-07T06:40:16Z</time>
      </trkpt>
      <trkpt lat="50.96663" lon="2.43236">
        <ele>7.83</ele>
        <time>2021-08-07T06:40:18Z</time>
      </trkpt>
      <trkpt lat="50.96626" lon="2.4323">
        <ele>6.39</ele>
        <time>2021-08-07T06:40:25Z</time>
      </trkpt>
      <trkpt lat="50.96583" lon="2.43222">
        <ele>5.91</ele>
        <time>2021-08-07T06:40:33Z</time>
      </trkpt>
      <trkpt lat="50.96553" lon="2.4322">
        <ele>5.91</ele>
        <time>2021-08-07T06:40:39Z</time>
      </trkpt>
      <trkpt lat="50.9651" lon="2.43212">
        <ele>5.91</ele>
        <time>2021-08-07T06:40:48Z</time>
      </trkpt>
      <trkpt lat="50.96465" lon="2.43206">
        <ele>5.42</ele>
        <time>2021-08-07T06:40:57Z</time>
      </trkpt>
      <trkpt lat="50.9646" lon="2.43204">
        <ele>5.42</ele>
        <time>2021-08-07T06:40:58Z</time>
      </trkpt>
      <trkpt lat="50.96457" lon="2.43201">
        <ele>5.42</ele>
        <time>2021-08-07T06:40:59Z</time>
      </trkpt>
      <trkpt lat="50.96454" lon="2.43199">
        <ele>6.39</ele>
        <time>2021-08-07T06:41:00Z</time>
      </trkpt>
      <trkpt lat="50.96452" lon="2.43197">
        <ele>6.39</ele>
        <time>2021-08-07T06:41:01Z</time>
      </trkpt>
      <trkpt lat="50.96449" lon="2.43195">
        <ele>6.39</ele>
        <time>2021-08-07T06:41:02Z</time>
      </trkpt>
      <trkpt lat="50.96445" lon="2.43195">
        <ele>6.87</ele>
        <time>2021-08-07T06:41:03Z</time>
      </trkpt>
      <trkpt lat="50.96442" lon="2.43196">
        <ele>6.87</ele>
        <time>2021-08-07T06:41:04Z</time>
      </trkpt>
      <trkpt lat="50.96434" lon="2.43199">
        <ele>6.87</ele>
        <time>2021-08-07T06:41:06Z</time>
      </trkpt>
      <trkpt lat="50.96392" lon="2.43224">
        <ele>6.87</ele>
        <time>2021-08-07T06:41:15Z</time>
      </trkpt>
      <trkpt lat="50.96388" lon="2.43227">
        <ele>6.87</ele>
        <time>2021-08-07T06:41:16Z</time>
      </trkpt>
      <trkpt lat="50.96372" lon="2.43239">
        <ele>6.87</ele>
        <time>2021-08-07T06:41:20Z</time>
      </trkpt>
      <trkpt lat="50.96372" lon="2.43243">
        <ele>6.87</ele>
        <time>2021-08-07T06:41:21Z</time>
      </trkpt>
      <trkpt lat="50.96374" lon="2.43244">
        <ele>6.87</ele>
        <time>2021-08-07T06:41:22Z</time>
      </trkpt>
      <trkpt lat="50.96377" lon="2.43244">
        <ele>6.87</ele>
        <time>2021-08-07T06:41:23Z</time>
      </trkpt>
      <trkpt lat="50.9638" lon="2.43241">
        <ele>6.87</ele>
        <time>2021-08-07T06:41:24Z</time>
      </trkpt>
      <trkpt lat="50.96382" lon="2.43235">
        <ele>6.87</ele>
        <time>2021-08-07T06:41:25Z</time>
      </trkpt>
      <trkpt lat="50.96383" lon="2.4323">
        <ele>6.87</ele>
        <time>2021-08-07T06:41:26Z</time>
      </trkpt>
      <trkpt lat="50.96383" lon="2.43224">
        <ele>7.35</ele>
        <time>2021-08-07T06:41:27Z</time>
      </trkpt>
      <trkpt lat="50.96384" lon="2.43219">
        <ele>7.35</ele>
        <time>2021-08-07T06:41:28Z</time>
      </trkpt>
      <trkpt lat="50.96384" lon="2.43212">
        <ele>7.35</ele>
        <time>2021-08-07T06:41:29Z</time>
      </trkpt>
      <trkpt lat="50.96383" lon="2.432">
        <ele>7.35</ele>
        <time>2021-08-07T06:41:31Z</time>
      </trkpt>
      <trkpt lat="50.96378" lon="2.43165">
        <ele>5.91</ele>
        <time>2021-08-07T06:41:36Z</time>
      </trkpt>
      <trkpt lat="50.96363" lon="2.43115">
        <ele>4.94</ele>
        <time>2021-08-07T06:41:44Z</time>
      </trkpt>
      <trkpt lat="50.96354" lon="2.43088">
        <ele>4.94</ele>
        <time>2021-08-07T06:41:48Z</time>
      </trkpt>
      <trkpt lat="50.96351" lon="2.43082">
        <ele>4.94</ele>
        <time>2021-08-07T06:41:49Z</time>
      </trkpt>
      <trkpt lat="50.96348" lon="2.43078">
        <ele>4.94</ele>
        <time>2021-08-07T06:41:50Z</time>
      </trkpt>
      <trkpt lat="50.96344" lon="2.43075">
        <ele>4.94</ele>
        <time>2021-08-07T06:41:51Z</time>
      </trkpt>
      <trkpt lat="50.96341" lon="2.43073">
        <ele>4.94</ele>
        <time>2021-08-07T06:41:52Z</time>
      </trkpt>
      <trkpt lat="50.96338" lon="2.43069">
        <ele>4.94</ele>
        <time>2021-08-07T06:41:53Z</time>
      </trkpt>
      <trkpt lat="50.96332" lon="2.43065">
        <ele>5.91</ele>
        <time>2021-08-07T06:41:55Z</time>
      </trkpt>
      <trkpt lat="50.96328" lon="2.43064">
        <ele>5.91</ele>
        <time>2021-08-07T06:41:56Z</time>
      </trkpt>
      <trkpt lat="50.96324" lon="2.43064">
        <ele>5.91</ele>
        <time>2021-08-07T06:41:57Z</time>
      </trkpt>
      <trkpt lat="50.96319" lon="2.43065">
        <ele>5.91</ele>
        <time>2021-08-07T06:41:58Z</time>
      </trkpt>
      <trkpt lat="50.96284" lon="2.43078">
        <ele>4.94</ele>
        <time>2021-08-07T06:42:05Z</time>
      </trkpt>
      <trkpt lat="50.96232" lon="2.43092">
        <ele>4.46</ele>
        <time>2021-08-07T06:42:15Z</time>
      </trkpt>
      <trkpt lat="50.96181" lon="2.43102">
        <ele>4.46</ele>
        <time>2021-08-07T06:42:25Z</time>
      </trkpt>
      <trkpt lat="50.96146" lon="2.43107">
        <ele>4.46</ele>
        <time>2021-08-07T06:42:32Z</time>
      </trkpt>
      <trkpt lat="50.9614" lon="2.43108">
        <ele>4.46</ele>
        <time>2021-08-07T06:42:33Z</time>
      </trkpt>
      <trkpt lat="50.96125" lon="2.43108">
        <ele>4.46</ele>
        <time>2021-08-07T06:42:36Z</time>
      </trkpt>
      <trkpt lat="50.96114" lon="2.43105">
        <ele>4.46</ele>
        <time>2021-08-07T06:42:38Z</time>
      </trkpt>
      <trkpt lat="50.96109" lon="2.43106">
        <ele>4.46</ele>
        <time>2021-08-07T06:42:39Z</time>
      </trkpt>
      <trkpt lat="50.96089" lon="2.43109">
        <ele>5.42</ele>
        <time>2021-08-07T06:42:43Z</time>
      </trkpt>
      <trkpt lat="50.96083" lon="2.43111">
        <ele>5.42</ele>
        <time>2021-08-07T06:42:44Z</time>
      </trkpt>
      <trkpt lat="50.96079" lon="2.43114">
        <ele>5.42</ele>
        <time>2021-08-07T06:42:45Z</time>
      </trkpt>
      <trkpt lat="50.96074" lon="2.43116">
        <ele>5.42</ele>
        <time>2021-08-07T06:42:46Z</time>
      </trkpt>
      <trkpt lat="50.96063" lon="2.43117">
        <ele>5.42</ele>
        <time>2021-08-07T06:42:48Z</time>
      </trkpt>
      <trkpt lat="50.96052" lon="2.43116">
        <ele>5.42</ele>
        <time>2021-08-07T06:42:50Z</time>
      </trkpt>
      <trkpt lat="50.96047" lon="2.43119">
        <ele>5.42</ele>
        <time>2021-08-07T06:42:51Z</time>
      </trkpt>
      <trkpt lat="50.96039" lon="2.43128">
        <ele>5.42</ele>
        <time>2021-08-07T06:42:53Z</time>
      </trkpt>
      <trkpt lat="50.96034" lon="2.43133">
        <ele>5.42</ele>
        <time>2021-08-07T06:42:54Z</time>
      </trkpt>
      <trkpt lat="50.96031" lon="2.43137">
        <ele>5.42</ele>
        <time>2021-08-07T06:42:55Z</time>
      </trkpt>
      <trkpt lat="50.96027" lon="2.43141">
        <ele>5.42</ele>
        <time>2021-08-07T06:42:56Z</time>
      </trkpt>
      <trkpt lat="50.96022" lon="2.43143">
        <ele>5.42</ele>
        <time>2021-08-07T06:42:57Z</time>
      </trkpt>
      <trkpt lat="50.96017" lon="2.43144">
        <ele>5.42</ele>
        <time>2021-08-07T06:42:58Z</time>
      </trkpt>
      <trkpt lat="50.96012" lon="2.43144">
        <ele>4.46</ele>
        <time>2021-08-07T06:42:59Z</time>
      </trkpt>
      <trkpt lat="50.96007" lon="2.4314">
        <ele>4.46</ele>
        <time>2021-08-07T06:43:00Z</time>
      </trkpt>
      <trkpt lat="50.96003" lon="2.43135">
        <ele>4.46</ele>
        <time>2021-08-07T06:43:01Z</time>
      </trkpt>
      <trkpt lat="50.96" lon="2.43128">
        <ele>4.46</ele>
        <time>2021-08-07T06:43:02Z</time>
      </trkpt>
      <trkpt lat="50.95998" lon="2.43121">
        <ele>4.46</ele>
        <time>2021-08-07T06:43:03Z</time>
      </trkpt>
      <trkpt lat="50.95996" lon="2.43114">
        <ele>4.46</ele>
        <time>2021-08-07T06:43:04Z</time>
      </trkpt>
      <trkpt lat="50.95993" lon="2.43108">
        <ele>4.46</ele>
        <time>2021-08-07T06:43:05Z</time>
      </trkpt>
      <trkpt lat="50.95989" lon="2.43103">
        <ele>4.46</ele>
        <time>2021-08-07T06:43:06Z</time>
      </trkpt>
      <trkpt lat="50.95984" lon="2.43101">
        <ele>4.46</ele>
        <time>2021-08-07T06:43:07Z</time>
      </trkpt>
      <trkpt lat="50.95979" lon="2.43099">
        <ele>4.46</ele>
        <time>2021-08-07T06:43:08Z</time>
      </trkpt>
      <trkpt lat="50.95974" lon="2.43098">
        <ele>4.46</ele>
        <time>2021-08-07T06:43:09Z</time>
      </trkpt>
      <trkpt lat="50.95969" lon="2.43097">
        <ele>4.46</ele>
        <time>2021-08-07T06:43:10Z</time>
      </trkpt>
      <trkpt lat="50.95939" lon="2.43091">
        <ele>4.46</ele>
        <time>2021-08-07T06:43:16Z</time>
      </trkpt>
      <trkpt lat="50.9591" lon="2.43081">
        <ele>5.91</ele>
        <time>2021-08-07T06:43:22Z</time>
      </trkpt>
      <trkpt lat="50.95862" lon="2.43061">
        <ele>5.91</ele>
        <time>2021-08-07T06:43:32Z</time>
      </trkpt>
      <trkpt lat="50.95815" lon="2.43037">
        <ele>6.39</ele>
        <time>2021-08-07T06:43:42Z</time>
      </trkpt>
      <trkpt lat="50.95773" lon="2.43012">
        <ele>7.35</ele>
        <time>2021-08-07T06:43:51Z</time>
      </trkpt>
      <trkpt lat="50.95732" lon="2.42986">
        <ele>7.35</ele>
        <time>2021-08-07T06:44:00Z</time>
      </trkpt>
      <trkpt lat="50.95692" lon="2.42956">
        <ele>7.35</ele>
        <time>2021-08-07T06:44:09Z</time>
      </trkpt>
      <trkpt lat="50.95656" lon="2.42925">
        <ele>7.83</ele>
        <time>2021-08-07T06:44:17Z</time>
      </trkpt>
      <trkpt lat="50.9564" lon="2.4291">
        <ele>8.31</ele>
        <time>2021-08-07T06:44:21Z</time>
      </trkpt>
      <trkpt lat="50.95591" lon="2.42861">
        <ele>8.79</ele>
        <time>2021-08-07T06:44:31Z</time>
      </trkpt>
      <trkpt lat="50.95562" lon="2.42824">
        <ele>8.79</ele>
        <time>2021-08-07T06:44:38Z</time>
      </trkpt>
      <trkpt lat="50.95558" lon="2.4282">
        <ele>8.79</ele>
        <time>2021-08-07T06:44:39Z</time>
      </trkpt>
      <trkpt lat="50.95553" lon="2.42815">
        <ele>8.79</ele>
        <time>2021-08-07T06:44:40Z</time>
      </trkpt>
      <trkpt lat="50.955" lon="2.42762">
        <ele>8.79</ele>
        <time>2021-08-07T06:44:51Z</time>
      </trkpt>
      <trkpt lat="50.9545" lon="2.42709">
        <ele>9.27</ele>
        <time>2021-08-07T06:45:02Z</time>
      </trkpt>
      <trkpt lat="50.95445" lon="2.42705">
        <ele>9.27</ele>
        <time>2021-08-07T06:45:03Z</time>
      </trkpt>
      <trkpt lat="50.95435" lon="2.42698">
        <ele>9.27</ele>
        <time>2021-08-07T06:45:05Z</time>
      </trkpt>
      <trkpt lat="50.95426" lon="2.4269">
        <ele>9.27</ele>
        <time>2021-08-07T06:45:07Z</time>
      </trkpt>
      <trkpt lat="50.95421" lon="2.42685">
        <ele>9.27</ele>
        <time>2021-08-07T06:45:08Z</time>
      </trkpt>
      <trkpt lat="50.95417" lon="2.42679">
        <ele>9.27</ele>
        <time>2021-08-07T06:45:09Z</time>
      </trkpt>
      <trkpt lat="50.95414" lon="2.42672">
        <ele>9.27</ele>
        <time>2021-08-07T06:45:10Z</time>
      </trkpt>
      <trkpt lat="50.9541" lon="2.42666">
        <ele>9.27</ele>
        <time>2021-08-07T06:45:11Z</time>
      </trkpt>
      <trkpt lat="50.95407" lon="2.42661">
        <ele>9.27</ele>
        <time>2021-08-07T06:45:12Z</time>
      </trkpt>
      <trkpt lat="50.95402" lon="2.42656">
        <ele>9.27</ele>
        <time>2021-08-07T06:45:13Z</time>
      </trkpt>
      <trkpt lat="50.95398" lon="2.42652">
        <ele>9.27</ele>
        <time>2021-08-07T06:45:14Z</time>
      </trkpt>
      <trkpt lat="50.95386" lon="2.42638">
        <ele>9.27</ele>
        <time>2021-08-07T06:45:17Z</time>
      </trkpt>
      <trkpt lat="50.95383" lon="2.42633">
        <ele>9.27</ele>
        <time>2021-08-07T06:45:18Z</time>
      </trkpt>
      <trkpt lat="50.9538" lon="2.42628">
        <ele>9.75</ele>
        <time>2021-08-07T06:45:19Z</time>
      </trkpt>
      <trkpt lat="50.95376" lon="2.42625">
        <ele>9.75</ele>
        <time>2021-08-07T06:45:20Z</time>
      </trkpt>
      <trkpt lat="50.95372" lon="2.42624">
        <ele>9.75</ele>
        <time>2021-08-07T06:45:21Z</time>
      </trkpt>
      <trkpt lat="50.95368" lon="2.42621">
        <ele>9.75</ele>
        <time>2021-08-07T06:45:22Z</time>
      </trkpt>
      <trkpt lat="50.95364" lon="2.4262">
        <ele>9.75</ele>
        <time>2021-08-07T06:45:23Z</time>
      </trkpt>
      <trkpt lat="50.95359" lon="2.42621">
        <ele>9.75</ele>
        <time>2021-08-07T06:45:24Z</time>
      </trkpt>
      <trkpt lat="50.95355" lon="2.42622">
        <ele>10.23</ele>
        <time>2021-08-07T06:45:25Z</time>
      </trkpt>
      <trkpt lat="50.95337" lon="2.4263">
        <ele>10.23</ele>
        <time>2021-08-07T06:45:29Z</time>
      </trkpt>
      <trkpt lat="50.95333" lon="2.42631">
        <ele>10.23</ele>
        <time>2021-08-07T06:45:30Z</time>
      </trkpt>
      <trkpt lat="50.95285" lon="2.42628">
        <ele>10.71</ele>
        <time>2021-08-07T06:45:40Z</time>
      </trkpt>
      <trkpt lat="50.95241" lon="2.42622">
        <ele>11.19</ele>
        <time>2021-08-07T06:45:49Z</time>
      </trkpt>
      <trkpt lat="50.9522" lon="2.42616">
        <ele>11.67</ele>
        <time>2021-08-07T06:45:55Z</time>
      </trkpt>
      <trkpt lat="50.95208" lon="2.42609">
        <ele>11.19</ele>
        <time>2021-08-07T06:45:58Z</time>
      </trkpt>
      <trkpt lat="50.95205" lon="2.42604">
        <ele>11.67</ele>
        <time>2021-08-07T06:45:59Z</time>
      </trkpt>
      <trkpt lat="50.95201" lon="2.42597">
        <ele>11.67</ele>
        <time>2021-08-07T06:46:00Z</time>
      </trkpt>
      <trkpt lat="50.9517" lon="2.4254">
        <ele>11.67</ele>
        <time>2021-08-07T06:46:09Z</time>
      </trkpt>
      <trkpt lat="50.95135" lon="2.42477">
        <ele>11.67</ele>
        <time>2021-08-07T06:46:19Z</time>
      </trkpt>
      <trkpt lat="50.95111" lon="2.4243">
        <ele>11.67</ele>
        <time>2021-08-07T06:46:26Z</time>
      </trkpt>
      <trkpt lat="50.95109" lon="2.4242">
        <ele>11.67</ele>
        <time>2021-08-07T06:46:27Z</time>
      </trkpt>
      <trkpt lat="50.95108" lon="2.42412">
        <ele>11.67</ele>
        <time>2021-08-07T06:46:28Z</time>
      </trkpt>
      <trkpt lat="50.95109" lon="2.42402">
        <ele>11.67</ele>
        <time>2021-08-07T06:46:29Z</time>
      </trkpt>
      <trkpt lat="50.95111" lon="2.42394">
        <ele>11.67</ele>
        <time>2021-08-07T06:46:30Z</time>
      </trkpt>
      <trkpt lat="50.95114" lon="2.42386">
        <ele>11.67</ele>
        <time>2021-08-07T06:46:31Z</time>
      </trkpt>
      <trkpt lat="50.95116" lon="2.42378">
        <ele>11.67</ele>
        <time>2021-08-07T06:46:32Z</time>
      </trkpt>
      <trkpt lat="50.95122" lon="2.42353">
        <ele>11.67</ele>
        <time>2021-08-07T06:46:35Z</time>
      </trkpt>
      <trkpt lat="50.95123" lon="2.42344">
        <ele>11.67</ele>
        <time>2021-08-07T06:46:36Z</time>
      </trkpt>
      <trkpt lat="50.95121" lon="2.42335">
        <ele>11.67</ele>
        <time>2021-08-07T06:46:37Z</time>
      </trkpt>
      <trkpt lat="50.95118" lon="2.42328">
        <ele>11.67</ele>
        <time>2021-08-07T06:46:38Z</time>
      </trkpt>
      <trkpt lat="50.95113" lon="2.42321">
        <ele>11.67</ele>
        <time>2021-08-07T06:46:39Z</time>
      </trkpt>
      <trkpt lat="50.95109" lon="2.42316">
        <ele>11.67</ele>
        <time>2021-08-07T06:46:40Z</time>
      </trkpt>
      <trkpt lat="50.95105" lon="2.42311">
        <ele>11.67</ele>
        <time>2021-08-07T06:46:41Z</time>
      </trkpt>
      <trkpt lat="50.95078" lon="2.42286">
        <ele>11.67</ele>
        <time>2021-08-07T06:46:47Z</time>
      </trkpt>
      <trkpt lat="50.95075" lon="2.42284">
        <ele>11.67</ele>
        <time>2021-08-07T06:46:48Z</time>
      </trkpt>
      <trkpt lat="50.95071" lon="2.42285">
        <ele>11.67</ele>
        <time>2021-08-07T06:46:49Z</time>
      </trkpt>
      <trkpt lat="50.9507" lon="2.42288">
        <ele>11.67</ele>
        <time>2021-08-07T06:46:50Z</time>
      </trkpt>
      <trkpt lat="50.95068" lon="2.42293">
        <ele>11.67</ele>
        <time>2021-08-07T06:46:51Z</time>
      </trkpt>
      <trkpt lat="50.95066" lon="2.42298">
        <ele>11.67</ele>
        <time>2021-08-07T06:46:52Z</time>
      </trkpt>
      <trkpt lat="50.95064" lon="2.42304">
        <ele>11.67</ele>
        <time>2021-08-07T06:46:53Z</time>
      </trkpt>
      <trkpt lat="50.95057" lon="2.42328">
        <ele>11.67</ele>
        <time>2021-08-07T06:46:59Z</time>
      </trkpt>
      <trkpt lat="50.95055" lon="2.42335">
        <ele>11.67</ele>
        <time>2021-08-07T06:47:01Z</time>
      </trkpt>
      <trkpt lat="50.95054" lon="2.42339">
        <ele>11.67</ele>
        <time>2021-08-07T06:47:02Z</time>
      </trkpt>
      <trkpt lat="50.95054" lon="2.42344">
        <ele>11.67</ele>
        <time>2021-08-07T06:47:03Z</time>
      </trkpt>
      <trkpt lat="50.95052" lon="2.4235">
        <ele>11.67</ele>
        <time>2021-08-07T06:47:04Z</time>
      </trkpt>
      <trkpt lat="50.9505" lon="2.42355">
        <ele>11.67</ele>
        <time>2021-08-07T06:47:05Z</time>
      </trkpt>
      <trkpt lat="50.95049" lon="2.42362">
        <ele>10.23</ele>
        <time>2021-08-07T06:47:06Z</time>
      </trkpt>
      <trkpt lat="50.95047" lon="2.42368">
        <ele>10.23</ele>
        <time>2021-08-07T06:47:07Z</time>
      </trkpt>
      <trkpt lat="50.95029" lon="2.42438">
        <ele>10.71</ele>
        <time>2021-08-07T06:47:17Z</time>
      </trkpt>
      <trkpt lat="50.95007" lon="2.42519">
        <ele>11.67</ele>
        <time>2021-08-07T06:47:28Z</time>
      </trkpt>
      <trkpt lat="50.94991" lon="2.42583">
        <ele>12.15</ele>
        <time>2021-08-07T06:47:37Z</time>
      </trkpt>
      <trkpt lat="50.94969" lon="2.42665">
        <ele>13.12</ele>
        <time>2021-08-07T06:47:48Z</time>
      </trkpt>
      <trkpt lat="50.94948" lon="2.42738">
        <ele>13.12</ele>
        <time>2021-08-07T06:47:58Z</time>
      </trkpt>
      <trkpt lat="50.94918" lon="2.42815">
        <ele>13.12</ele>
        <time>2021-08-07T06:48:09Z</time>
      </trkpt>
      <trkpt lat="50.94884" lon="2.42883">
        <ele>13.12</ele>
        <time>2021-08-07T06:48:20Z</time>
      </trkpt>
      <trkpt lat="50.94849" lon="2.42948">
        <ele>13.12</ele>
        <time>2021-08-07T06:48:31Z</time>
      </trkpt>
      <trkpt lat="50.94838" lon="2.42964">
        <ele>13.6</ele>
        <time>2021-08-07T06:48:35Z</time>
      </trkpt>
      <trkpt lat="50.94836" lon="2.42964">
        <ele>13.6</ele>
        <time>2021-08-07T06:48:36Z</time>
      </trkpt>
      <trkpt lat="50.94834" lon="2.42963">
        <ele>13.6</ele>
        <time>2021-08-07T06:48:37Z</time>
      </trkpt>
      <trkpt lat="50.94833" lon="2.42961">
        <ele>13.6</ele>
        <time>2021-08-07T06:48:38Z</time>
      </trkpt>
      <trkpt lat="50.94832" lon="2.42959">
        <ele>13.6</ele>
        <time>2021-08-07T06:48:39Z</time>
      </trkpt>
      <trkpt lat="50.9483" lon="2.42958">
        <ele>13.6</ele>
        <time>2021-08-07T06:48:40Z</time>
      </trkpt>
      <trkpt lat="50.94828" lon="2.42957">
        <ele>13.6</ele>
        <time>2021-08-07T06:48:41Z</time>
      </trkpt>
      <trkpt lat="50.94824" lon="2.42955">
        <ele>13.6</ele>
        <time>2021-08-07T06:48:42Z</time>
      </trkpt>
      <trkpt lat="50.94821" lon="2.42952">
        <ele>13.6</ele>
        <time>2021-08-07T06:48:43Z</time>
      </trkpt>
      <trkpt lat="50.94788" lon="2.42927">
        <ele>13.6</ele>
        <time>2021-08-07T06:48:51Z</time>
      </trkpt>
      <trkpt lat="50.94741" lon="2.42897">
        <ele>13.6</ele>
        <time>2021-08-07T06:49:02Z</time>
      </trkpt>
      <trkpt lat="50.94702" lon="2.42874">
        <ele>14.08</ele>
        <time>2021-08-07T06:49:11Z</time>
      </trkpt>
      <trkpt lat="50.94698" lon="2.42872">
        <ele>14.08</ele>
        <time>2021-08-07T06:49:12Z</time>
      </trkpt>
      <trkpt lat="50.94666" lon="2.42848">
        <ele>14.56</ele>
        <time>2021-08-07T06:49:19Z</time>
      </trkpt>
      <trkpt lat="50.9462" lon="2.42821">
        <ele>15.04</ele>
        <time>2021-08-07T06:49:30Z</time>
      </trkpt>
      <trkpt lat="50.94565" lon="2.42791">
        <ele>16</ele>
        <time>2021-08-07T06:49:43Z</time>
      </trkpt>
      <trkpt lat="50.94515" lon="2.42766">
        <ele>16.96</ele>
        <time>2021-08-07T06:49:54Z</time>
      </trkpt>
      <trkpt lat="50.9447" lon="2.42742">
        <ele>16.48</ele>
        <time>2021-08-07T06:50:04Z</time>
      </trkpt>
      <trkpt lat="50.94427" lon="2.42715">
        <ele>16.96</ele>
        <time>2021-08-07T06:50:14Z</time>
      </trkpt>
      <trkpt lat="50.94376" lon="2.4268">
        <ele>17.44</ele>
        <time>2021-08-07T06:50:26Z</time>
      </trkpt>
      <trkpt lat="50.94342" lon="2.42655">
        <ele>17.92</ele>
        <time>2021-08-07T06:50:34Z</time>
      </trkpt>
      <trkpt lat="50.943" lon="2.42625">
        <ele>17.92</ele>
        <time>2021-08-07T06:50:44Z</time>
      </trkpt>
      <trkpt lat="50.94255" lon="2.42606">
        <ele>18.4</ele>
        <time>2021-08-07T06:50:54Z</time>
      </trkpt>
      <trkpt lat="50.94218" lon="2.42594">
        <ele>18.88</ele>
        <time>2021-08-07T06:51:02Z</time>
      </trkpt>
      <trkpt lat="50.94171" lon="2.42581">
        <ele>19.36</ele>
        <time>2021-08-07T06:51:12Z</time>
      </trkpt>
      <trkpt lat="50.94162" lon="2.42577">
        <ele>19.36</ele>
        <time>2021-08-07T06:51:14Z</time>
      </trkpt>
      <trkpt lat="50.94148" lon="2.42569">
        <ele>19.36</ele>
        <time>2021-08-07T06:51:17Z</time>
      </trkpt>
      <trkpt lat="50.94144" lon="2.42567">
        <ele>19.36</ele>
        <time>2021-08-07T06:51:18Z</time>
      </trkpt>
      <trkpt lat="50.94127" lon="2.42555">
        <ele>19.84</ele>
        <time>2021-08-07T06:51:22Z</time>
      </trkpt>
      <trkpt lat="50.94077" lon="2.42518">
        <ele>20.81</ele>
        <time>2021-08-07T06:51:34Z</time>
      </trkpt>
      <trkpt lat="50.9404" lon="2.42495">
        <ele>20.81</ele>
        <time>2021-08-07T06:51:43Z</time>
      </trkpt>
      <trkpt lat="50.94008" lon="2.42476">
        <ele>21.77</ele>
        <time>2021-08-07T06:51:51Z</time>
      </trkpt>
      <trkpt lat="50.93978" lon="2.42461">
        <ele>22.73</ele>
        <time>2021-08-07T06:51:59Z</time>
      </trkpt>
      <trkpt lat="50.93973" lon="2.42459">
        <ele>22.73</ele>
        <time>2021-08-07T06:52:00Z</time>
      </trkpt>
      <trkpt lat="50.93939" lon="2.42442">
        <ele>23.21</ele>
        <time>2021-08-07T06:52:09Z</time>
      </trkpt>
      <trkpt lat="50.93915" lon="2.42424">
        <ele>24.17</ele>
        <time>2021-08-07T06:52:16Z</time>
      </trkpt>
      <trkpt lat="50.93907" lon="2.42417">
        <ele>24.17</ele>
        <time>2021-08-07T06:52:18Z</time>
      </trkpt>
      <trkpt lat="50.93903" lon="2.42413">
        <ele>24.17</ele>
        <time>2021-08-07T06:52:19Z</time>
      </trkpt>
      <trkpt lat="50.9387" lon="2.42393">
        <ele>25.13</ele>
        <time>2021-08-07T06:52:27Z</time>
      </trkpt>
      <trkpt lat="50.93836" lon="2.42369">
        <ele>26.09</ele>
        <time>2021-08-07T06:52:35Z</time>
      </trkpt>
      <trkpt lat="50.93788" lon="2.42338">
        <ele>28.02</ele>
        <time>2021-08-07T06:52:46Z</time>
      </trkpt>
      <trkpt lat="50.9378" lon="2.42333">
        <ele>28.02</ele>
        <time>2021-08-07T06:52:48Z</time>
      </trkpt>
      <trkpt lat="50.93776" lon="2.4233">
        <ele>28.5</ele>
        <time>2021-08-07T06:52:49Z</time>
      </trkpt>
      <trkpt lat="50.93734" lon="2.423">
        <ele>29.94</ele>
        <time>2021-08-07T06:52:59Z</time>
      </trkpt>
      <trkpt lat="50.93719" lon="2.42285">
        <ele>30.42</ele>
        <time>2021-08-07T06:53:03Z</time>
      </trkpt>
      <trkpt lat="50.93709" lon="2.42272">
        <ele>30.42</ele>
        <time>2021-08-07T06:53:06Z</time>
      </trkpt>
      <trkpt lat="50.93706" lon="2.42268">
        <ele>30.42</ele>
        <time>2021-08-07T06:53:07Z</time>
      </trkpt>
      <trkpt lat="50.93696" lon="2.42255">
        <ele>30.9</ele>
        <time>2021-08-07T06:53:10Z</time>
      </trkpt>
      <trkpt lat="50.93692" lon="2.42251">
        <ele>30.9</ele>
        <time>2021-08-07T06:53:11Z</time>
      </trkpt>
      <trkpt lat="50.93687" lon="2.42247">
        <ele>31.38</ele>
        <time>2021-08-07T06:53:12Z</time>
      </trkpt>
      <trkpt lat="50.93683" lon="2.42245">
        <ele>31.38</ele>
        <time>2021-08-07T06:53:13Z</time>
      </trkpt>
      <trkpt lat="50.93679" lon="2.42243">
        <ele>31.38</ele>
        <time>2021-08-07T06:53:14Z</time>
      </trkpt>
      <trkpt lat="50.93674" lon="2.42241">
        <ele>31.86</ele>
        <time>2021-08-07T06:53:15Z</time>
      </trkpt>
      <trkpt lat="50.9366" lon="2.42236">
        <ele>32.34</ele>
        <time>2021-08-07T06:53:18Z</time>
      </trkpt>
      <trkpt lat="50.93656" lon="2.42236">
        <ele>32.34</ele>
        <time>2021-08-07T06:53:19Z</time>
      </trkpt>
      <trkpt lat="50.93653" lon="2.42237">
        <ele>32.34</ele>
        <time>2021-08-07T06:53:20Z</time>
      </trkpt>
      <trkpt lat="50.93625" lon="2.42239">
        <ele>32.34</ele>
        <time>2021-08-07T06:53:26Z</time>
      </trkpt>
      <trkpt lat="50.9362" lon="2.4224">
        <ele>32.82</ele>
        <time>2021-08-07T06:53:27Z</time>
      </trkpt>
      <trkpt lat="50.93615" lon="2.42244">
        <ele>32.82</ele>
        <time>2021-08-07T06:53:28Z</time>
      </trkpt>
      <trkpt lat="50.93604" lon="2.42255">
        <ele>32.82</ele>
        <time>2021-08-07T06:53:31Z</time>
      </trkpt>
      <trkpt lat="50.936" lon="2.42257">
        <ele>32.82</ele>
        <time>2021-08-07T06:53:32Z</time>
      </trkpt>
      <trkpt lat="50.93586" lon="2.42262">
        <ele>33.3</ele>
        <time>2021-08-07T06:53:35Z</time>
      </trkpt>
      <trkpt lat="50.93582" lon="2.42261">
        <ele>33.3</ele>
        <time>2021-08-07T06:53:36Z</time>
      </trkpt>
      <trkpt lat="50.93578" lon="2.4226">
        <ele>33.3</ele>
        <time>2021-08-07T06:53:37Z</time>
      </trkpt>
      <trkpt lat="50.93549" lon="2.42252">
        <ele>32.34</ele>
        <time>2021-08-07T06:53:43Z</time>
      </trkpt>
      <trkpt lat="50.93538" lon="2.42254">
        <ele>31.86</ele>
        <time>2021-08-07T06:53:45Z</time>
      </trkpt>
      <trkpt lat="50.93492" lon="2.42256">
        <ele>28.5</ele>
        <time>2021-08-07T06:53:52Z</time>
      </trkpt>
      <trkpt lat="50.93486" lon="2.42256">
        <ele>28.5</ele>
        <time>2021-08-07T06:53:53Z</time>
      </trkpt>
      <trkpt lat="50.93449" lon="2.42259">
        <ele>26.57</ele>
        <time>2021-08-07T06:53:58Z</time>
      </trkpt>
      <trkpt lat="50.93387" lon="2.42263">
        <ele>24.65</ele>
        <time>2021-08-07T06:54:06Z</time>
      </trkpt>
      <trkpt lat="50.93335" lon="2.42266">
        <ele>22.73</ele>
        <time>2021-08-07T06:54:13Z</time>
      </trkpt>
      <trkpt lat="50.93258" lon="2.4227">
        <ele>20.32</ele>
        <time>2021-08-07T06:54:23Z</time>
      </trkpt>
      <trkpt lat="50.93198" lon="2.42273">
        <ele>18.88</ele>
        <time>2021-08-07T06:54:31Z</time>
      </trkpt>
      <trkpt lat="50.93114" lon="2.42278">
        <ele>17.44</ele>
        <time>2021-08-07T06:54:42Z</time>
      </trkpt>
      <trkpt lat="50.93045" lon="2.42284">
        <ele>16</ele>
        <time>2021-08-07T06:54:51Z</time>
      </trkpt>
      <trkpt lat="50.92986" lon="2.42287">
        <ele>16</ele>
        <time>2021-08-07T06:54:59Z</time>
      </trkpt>
      <trkpt lat="50.92922" lon="2.42293">
        <ele>16</ele>
        <time>2021-08-07T06:55:09Z</time>
      </trkpt>
      <trkpt lat="50.92868" lon="2.42302">
        <ele>16</ele>
        <time>2021-08-07T06:55:18Z</time>
      </trkpt>
      <trkpt lat="50.92851" lon="2.42306">
        <ele>17.44</ele>
        <time>2021-08-07T06:55:21Z</time>
      </trkpt>
      <trkpt lat="50.9279" lon="2.42325">
        <ele>18.4</ele>
        <time>2021-08-07T06:55:32Z</time>
      </trkpt>
      <trkpt lat="50.92741" lon="2.42339">
        <ele>18.88</ele>
        <time>2021-08-07T06:55:41Z</time>
      </trkpt>
      <trkpt lat="50.92699" lon="2.42358">
        <ele>18.88</ele>
        <time>2021-08-07T06:55:49Z</time>
      </trkpt>
      <trkpt lat="50.92674" lon="2.42375">
        <ele>17.92</ele>
        <time>2021-08-07T06:55:54Z</time>
      </trkpt>
      <trkpt lat="50.92669" lon="2.42377">
        <ele>17.92</ele>
        <time>2021-08-07T06:55:55Z</time>
      </trkpt>
      <trkpt lat="50.92664" lon="2.42379">
        <ele>17.92</ele>
        <time>2021-08-07T06:55:56Z</time>
      </trkpt>
      <trkpt lat="50.92659" lon="2.42379">
        <ele>17.92</ele>
        <time>2021-08-07T06:55:57Z</time>
      </trkpt>
      <trkpt lat="50.92653" lon="2.42379">
        <ele>17.92</ele>
        <time>2021-08-07T06:55:58Z</time>
      </trkpt>
      <trkpt lat="50.92648" lon="2.42378">
        <ele>18.88</ele>
        <time>2021-08-07T06:55:59Z</time>
      </trkpt>
      <trkpt lat="50.92643" lon="2.42376">
        <ele>18.88</ele>
        <time>2021-08-07T06:56:00Z</time>
      </trkpt>
      <trkpt lat="50.92637" lon="2.42374">
        <ele>18.88</ele>
        <time>2021-08-07T06:56:01Z</time>
      </trkpt>
      <trkpt lat="50.92573" lon="2.42346">
        <ele>19.84</ele>
        <time>2021-08-07T06:56:13Z</time>
      </trkpt>
      <trkpt lat="50.92514" lon="2.42332">
        <ele>19.84</ele>
        <time>2021-08-07T06:56:24Z</time>
      </trkpt>
      <trkpt lat="50.92475" lon="2.42328">
        <ele>20.32</ele>
        <time>2021-08-07T06:56:32Z</time>
      </trkpt>
      <trkpt lat="50.9241" lon="2.42321">
        <ele>21.29</ele>
        <time>2021-08-07T06:56:45Z</time>
      </trkpt>
      <trkpt lat="50.92349" lon="2.42312">
        <ele>22.25</ele>
        <time>2021-08-07T06:56:57Z</time>
      </trkpt>
      <trkpt lat="50.92304" lon="2.42299">
        <ele>22.25</ele>
        <time>2021-08-07T06:57:06Z</time>
      </trkpt>
      <trkpt lat="50.9229" lon="2.4229">
        <ele>23.21</ele>
        <time>2021-08-07T06:57:09Z</time>
      </trkpt>
      <trkpt lat="50.92278" lon="2.42278">
        <ele>23.21</ele>
        <time>2021-08-07T06:57:12Z</time>
      </trkpt>
      <trkpt lat="50.92247" lon="2.42238">
        <ele>23.69</ele>
        <time>2021-08-07T06:57:20Z</time>
      </trkpt>
      <trkpt lat="50.92243" lon="2.42233">
        <ele>23.69</ele>
        <time>2021-08-07T06:57:21Z</time>
      </trkpt>
      <trkpt lat="50.92202" lon="2.42202">
        <ele>23.69</ele>
        <time>2021-08-07T06:57:30Z</time>
      </trkpt>
      <trkpt lat="50.92159" lon="2.42168">
        <ele>24.65</ele>
        <time>2021-08-07T06:57:40Z</time>
      </trkpt>
      <trkpt lat="50.92113" lon="2.42134">
        <ele>24.65</ele>
        <time>2021-08-07T06:57:50Z</time>
      </trkpt>
      <trkpt lat="50.92066" lon="2.42109">
        <ele>25.13</ele>
        <time>2021-08-07T06:58:00Z</time>
      </trkpt>
      <trkpt lat="50.92012" lon="2.42095">
        <ele>26.57</ele>
        <time>2021-08-07T06:58:11Z</time>
      </trkpt>
      <trkpt lat="50.91968" lon="2.42082">
        <ele>26.09</ele>
        <time>2021-08-07T06:58:20Z</time>
      </trkpt>
      <trkpt lat="50.91929" lon="2.42071">
        <ele>26.09</ele>
        <time>2021-08-07T06:58:28Z</time>
      </trkpt>
      <trkpt lat="50.91905" lon="2.4206">
        <ele>26.09</ele>
        <time>2021-08-07T06:58:33Z</time>
      </trkpt>
      <trkpt lat="50.91887" lon="2.42049">
        <ele>26.09</ele>
        <time>2021-08-07T06:58:37Z</time>
      </trkpt>
      <trkpt lat="50.91856" lon="2.42031">
        <ele>27.05</ele>
        <time>2021-08-07T06:58:44Z</time>
      </trkpt>
      <trkpt lat="50.91842" lon="2.42026">
        <ele>27.05</ele>
        <time>2021-08-07T06:58:47Z</time>
      </trkpt>
      <trkpt lat="50.91819" lon="2.42025">
        <ele>27.05</ele>
        <time>2021-08-07T06:58:52Z</time>
      </trkpt>
      <trkpt lat="50.91814" lon="2.42027">
        <ele>27.05</ele>
        <time>2021-08-07T06:58:53Z</time>
      </trkpt>
      <trkpt lat="50.91805" lon="2.4203">
        <ele>27.05</ele>
        <time>2021-08-07T06:58:55Z</time>
      </trkpt>
      <trkpt lat="50.91765" lon="2.42045">
        <ele>27.53</ele>
        <time>2021-08-07T06:59:04Z</time>
      </trkpt>
      <trkpt lat="50.91733" lon="2.42044">
        <ele>28.5</ele>
        <time>2021-08-07T06:59:11Z</time>
      </trkpt>
      <trkpt lat="50.91728" lon="2.42042">
        <ele>28.5</ele>
        <time>2021-08-07T06:59:12Z</time>
      </trkpt>
      <trkpt lat="50.91724" lon="2.4204">
        <ele>28.5</ele>
        <time>2021-08-07T06:59:13Z</time>
      </trkpt>
      <trkpt lat="50.91719" lon="2.42038">
        <ele>28.5</ele>
        <time>2021-08-07T06:59:14Z</time>
      </trkpt>
      <trkpt lat="50.91715" lon="2.42036">
        <ele>28.5</ele>
        <time>2021-08-07T06:59:15Z</time>
      </trkpt>
      <trkpt lat="50.91679" lon="2.42018">
        <ele>28.98</ele>
        <time>2021-08-07T06:59:23Z</time>
      </trkpt>
      <trkpt lat="50.91624" lon="2.41987">
        <ele>30.9</ele>
        <time>2021-08-07T06:59:36Z</time>
      </trkpt>
      <trkpt lat="50.91597" lon="2.41977">
        <ele>30.42</ele>
        <time>2021-08-07T06:59:42Z</time>
      </trkpt>
      <trkpt lat="50.91592" lon="2.41977">
        <ele>30.42</ele>
        <time>2021-08-07T06:59:43Z</time>
      </trkpt>
      <trkpt lat="50.91588" lon="2.41977">
        <ele>30.42</ele>
        <time>2021-08-07T06:59:44Z</time>
      </trkpt>
      <trkpt lat="50.91583" lon="2.41979">
        <ele>30.42</ele>
        <time>2021-08-07T06:59:45Z</time>
      </trkpt>
      <trkpt lat="50.91578" lon="2.41982">
        <ele>30.42</ele>
        <time>2021-08-07T06:59:46Z</time>
      </trkpt>
      <trkpt lat="50.91574" lon="2.41985">
        <ele>30.42</ele>
        <time>2021-08-07T06:59:47Z</time>
      </trkpt>
      <trkpt lat="50.91524" lon="2.42005">
        <ele>30.42</ele>
        <time>2021-08-07T06:59:58Z</time>
      </trkpt>
      <trkpt lat="50.91475" lon="2.42023">
        <ele>30.9</ele>
        <time>2021-08-07T07:00:09Z</time>
      </trkpt>
      <trkpt lat="50.91453" lon="2.42026">
        <ele>31.38</ele>
        <time>2021-08-07T07:00:14Z</time>
      </trkpt>
      <trkpt lat="50.91448" lon="2.42024">
        <ele>31.86</ele>
        <time>2021-08-07T07:00:15Z</time>
      </trkpt>
      <trkpt lat="50.91408" lon="2.42006">
        <ele>32.34</ele>
        <time>2021-08-07T07:00:24Z</time>
      </trkpt>
      <trkpt lat="50.91366" lon="2.41986">
        <ele>32.34</ele>
        <time>2021-08-07T07:00:33Z</time>
      </trkpt>
      <trkpt lat="50.9133" lon="2.41972">
        <ele>32.34</ele>
        <time>2021-08-07T07:00:41Z</time>
      </trkpt>
      <trkpt lat="50.91325" lon="2.41972">
        <ele>32.34</ele>
        <time>2021-08-07T07:00:42Z</time>
      </trkpt>
      <trkpt lat="50.91279" lon="2.41979">
        <ele>32.34</ele>
        <time>2021-08-07T07:00:51Z</time>
      </trkpt>
      <trkpt lat="50.91218" lon="2.41991">
        <ele>30.9</ele>
        <time>2021-08-07T07:01:03Z</time>
      </trkpt>
      <trkpt lat="50.91201" lon="2.41991">
        <ele>30.9</ele>
        <time>2021-08-07T07:01:07Z</time>
      </trkpt>
      <trkpt lat="50.91183" lon="2.41989">
        <ele>30.9</ele>
        <time>2021-08-07T07:01:12Z</time>
      </trkpt>
      <trkpt lat="50.91175" lon="2.41985">
        <ele>31.38</ele>
        <time>2021-08-07T07:01:14Z</time>
      </trkpt>
      <trkpt lat="50.9117" lon="2.41981">
        <ele>31.38</ele>
        <time>2021-08-07T07:01:15Z</time>
      </trkpt>
      <trkpt lat="50.91166" lon="2.41977">
        <ele>31.38</ele>
        <time>2021-08-07T07:01:16Z</time>
      </trkpt>
      <trkpt lat="50.91129" lon="2.41932">
        <ele>30.9</ele>
        <time>2021-08-07T07:01:25Z</time>
      </trkpt>
      <trkpt lat="50.91105" lon="2.41909">
        <ele>30.9</ele>
        <time>2021-08-07T07:01:30Z</time>
      </trkpt>
      <trkpt lat="50.91099" lon="2.41907">
        <ele>30.9</ele>
        <time>2021-08-07T07:01:31Z</time>
      </trkpt>
      <trkpt lat="50.91093" lon="2.41907">
        <ele>30.42</ele>
        <time>2021-08-07T07:01:32Z</time>
      </trkpt>
      <trkpt lat="50.91087" lon="2.41907">
        <ele>30.9</ele>
        <time>2021-08-07T07:01:33Z</time>
      </trkpt>
      <trkpt lat="50.91081" lon="2.41909">
        <ele>29.94</ele>
        <time>2021-08-07T07:01:34Z</time>
      </trkpt>
      <trkpt lat="50.91016" lon="2.41932">
        <ele>29.46</ele>
        <time>2021-08-07T07:01:45Z</time>
      </trkpt>
      <trkpt lat="50.90992" lon="2.41941">
        <ele>28.98</ele>
        <time>2021-08-07T07:01:49Z</time>
      </trkpt>
      <trkpt lat="50.90969" lon="2.41945">
        <ele>28.98</ele>
        <time>2021-08-07T07:01:53Z</time>
      </trkpt>
      <trkpt lat="50.90945" lon="2.41942">
        <ele>28.98</ele>
        <time>2021-08-07T07:01:57Z</time>
      </trkpt>
      <trkpt lat="50.90894" lon="2.41919">
        <ele>28.98</ele>
        <time>2021-08-07T07:02:06Z</time>
      </trkpt>
      <trkpt lat="50.90838" lon="2.41903">
        <ele>28.98</ele>
        <time>2021-08-07T07:02:16Z</time>
      </trkpt>
      <trkpt lat="50.90781" lon="2.41871">
        <ele>28.5</ele>
        <time>2021-08-07T07:02:26Z</time>
      </trkpt>
      <trkpt lat="50.90738" lon="2.41838">
        <ele>28.02</ele>
        <time>2021-08-07T07:02:34Z</time>
      </trkpt>
      <trkpt lat="50.90711" lon="2.41817">
        <ele>28.5</ele>
        <time>2021-08-07T07:02:39Z</time>
      </trkpt>
      <trkpt lat="50.90667" lon="2.418">
        <ele>28.02</ele>
        <time>2021-08-07T07:02:47Z</time>
      </trkpt>
      <trkpt lat="50.90624" lon="2.41787">
        <ele>28.02</ele>
        <time>2021-08-07T07:02:55Z</time>
      </trkpt>
      <trkpt lat="50.90577" lon="2.4177">
        <ele>28.02</ele>
        <time>2021-08-07T07:03:04Z</time>
      </trkpt>
      <trkpt lat="50.90533" lon="2.41751">
        <ele>28.02</ele>
        <time>2021-08-07T07:03:12Z</time>
      </trkpt>
      <trkpt lat="50.90461" lon="2.41719">
        <ele>26.57</ele>
        <time>2021-08-07T07:03:25Z</time>
      </trkpt>
      <trkpt lat="50.904" lon="2.41691">
        <ele>25.61</ele>
        <time>2021-08-07T07:03:36Z</time>
      </trkpt>
      <trkpt lat="50.90357" lon="2.41669">
        <ele>25.61</ele>
        <time>2021-08-07T07:03:44Z</time>
      </trkpt>
      <trkpt lat="50.90301" lon="2.41641">
        <ele>25.61</ele>
        <time>2021-08-07T07:03:54Z</time>
      </trkpt>
      <trkpt lat="50.90244" lon="2.41618">
        <ele>25.61</ele>
        <time>2021-08-07T07:04:04Z</time>
      </trkpt>
      <trkpt lat="50.90191" lon="2.41602">
        <ele>25.61</ele>
        <time>2021-08-07T07:04:13Z</time>
      </trkpt>
      <trkpt lat="50.90179" lon="2.41599">
        <ele>25.61</ele>
        <time>2021-08-07T07:04:15Z</time>
      </trkpt>
      <trkpt lat="50.90122" lon="2.41571">
        <ele>25.61</ele>
        <time>2021-08-07T07:04:25Z</time>
      </trkpt>
      <trkpt lat="50.90116" lon="2.41568">
        <ele>25.61</ele>
        <time>2021-08-07T07:04:26Z</time>
      </trkpt>
      <trkpt lat="50.90058" lon="2.41539">
        <ele>24.17</ele>
        <time>2021-08-07T07:04:36Z</time>
      </trkpt>
      <trkpt lat="50.90011" lon="2.41526">
        <ele>23.69</ele>
        <time>2021-08-07T07:04:44Z</time>
      </trkpt>
      <trkpt lat="50.8995" lon="2.41511">
        <ele>23.69</ele>
        <time>2021-08-07T07:04:55Z</time>
      </trkpt>
      <trkpt lat="50.89934" lon="2.41506">
        <ele>24.65</ele>
        <time>2021-08-07T07:04:58Z</time>
      </trkpt>
      <trkpt lat="50.89881" lon="2.41492">
        <ele>25.61</ele>
        <time>2021-08-07T07:05:08Z</time>
      </trkpt>
      <trkpt lat="50.89877" lon="2.41493">
        <ele>25.61</ele>
        <time>2021-08-07T07:05:09Z</time>
      </trkpt>
      <trkpt lat="50.89873" lon="2.41496">
        <ele>25.61</ele>
        <time>2021-08-07T07:05:10Z</time>
      </trkpt>
      <trkpt lat="50.8987" lon="2.41501">
        <ele>25.61</ele>
        <time>2021-08-07T07:05:11Z</time>
      </trkpt>
      <trkpt lat="50.89867" lon="2.41504">
        <ele>24.17</ele>
        <time>2021-08-07T07:05:12Z</time>
      </trkpt>
      <trkpt lat="50.89864" lon="2.41509">
        <ele>24.17</ele>
        <time>2021-08-07T07:05:13Z</time>
      </trkpt>
      <trkpt lat="50.89861" lon="2.41513">
        <ele>24.17</ele>
        <time>2021-08-07T07:05:14Z</time>
      </trkpt>
      <trkpt lat="50.89858" lon="2.41516">
        <ele>24.17</ele>
        <time>2021-08-07T07:05:15Z</time>
      </trkpt>
      <trkpt lat="50.89826" lon="2.41551">
        <ele>23.69</ele>
        <time>2021-08-07T07:05:25Z</time>
      </trkpt>
      <trkpt lat="50.89807" lon="2.41569">
        <ele>22.73</ele>
        <time>2021-08-07T07:05:30Z</time>
      </trkpt>
      <trkpt lat="50.89789" lon="2.41578">
        <ele>23.21</ele>
        <time>2021-08-07T07:05:34Z</time>
      </trkpt>
      <trkpt lat="50.89784" lon="2.41579">
        <ele>24.17</ele>
        <time>2021-08-07T07:05:35Z</time>
      </trkpt>
      <trkpt lat="50.89738" lon="2.41589">
        <ele>24.17</ele>
        <time>2021-08-07T07:05:45Z</time>
      </trkpt>
      <trkpt lat="50.89711" lon="2.41604">
        <ele>22.73</ele>
        <time>2021-08-07T07:05:51Z</time>
      </trkpt>
      <trkpt lat="50.89664" lon="2.41634">
        <ele>22.73</ele>
        <time>2021-08-07T07:06:01Z</time>
      </trkpt>
      <trkpt lat="50.89612" lon="2.41675">
        <ele>22.25</ele>
        <time>2021-08-07T07:06:12Z</time>
      </trkpt>
      <trkpt lat="50.896" lon="2.41688">
        <ele>22.25</ele>
        <time>2021-08-07T07:06:15Z</time>
      </trkpt>
      <trkpt lat="50.89596" lon="2.41694">
        <ele>22.25</ele>
        <time>2021-08-07T07:06:16Z</time>
      </trkpt>
      <trkpt lat="50.89579" lon="2.41722">
        <ele>22.25</ele>
        <time>2021-08-07T07:06:21Z</time>
      </trkpt>
      <trkpt lat="50.89556" lon="2.41775">
        <ele>22.25</ele>
        <time>2021-08-07T07:06:29Z</time>
      </trkpt>
      <trkpt lat="50.89544" lon="2.41801">
        <ele>22.25</ele>
        <time>2021-08-07T07:06:33Z</time>
      </trkpt>
      <trkpt lat="50.89509" lon="2.41849">
        <ele>22.25</ele>
        <time>2021-08-07T07:06:42Z</time>
      </trkpt>
      <trkpt lat="50.89454" lon="2.41912">
        <ele>21.29</ele>
        <time>2021-08-07T07:06:55Z</time>
      </trkpt>
      <trkpt lat="50.89413" lon="2.41969">
        <ele>21.29</ele>
        <time>2021-08-07T07:07:05Z</time>
      </trkpt>
      <trkpt lat="50.89371" lon="2.42013">
        <ele>21.29</ele>
        <time>2021-08-07T07:07:14Z</time>
      </trkpt>
      <trkpt lat="50.89358" lon="2.4203">
        <ele>20.81</ele>
        <time>2021-08-07T07:07:17Z</time>
      </trkpt>
      <trkpt lat="50.89355" lon="2.42037">
        <ele>20.81</ele>
        <time>2021-08-07T07:07:18Z</time>
      </trkpt>
      <trkpt lat="50.89352" lon="2.42045">
        <ele>20.81</ele>
        <time>2021-08-07T07:07:19Z</time>
      </trkpt>
      <trkpt lat="50.89351" lon="2.42053">
        <ele>20.81</ele>
        <time>2021-08-07T07:07:20Z</time>
      </trkpt>
      <trkpt lat="50.8935" lon="2.42061">
        <ele>20.32</ele>
        <time>2021-08-07T07:07:21Z</time>
      </trkpt>
      <trkpt lat="50.89347" lon="2.42084">
        <ele>20.32</ele>
        <time>2021-08-07T07:07:24Z</time>
      </trkpt>
      <trkpt lat="50.89341" lon="2.42114">
        <ele>20.32</ele>
        <time>2021-08-07T07:07:28Z</time>
      </trkpt>
      <trkpt lat="50.89339" lon="2.42121">
        <ele>20.32</ele>
        <time>2021-08-07T07:07:29Z</time>
      </trkpt>
      <trkpt lat="50.89334" lon="2.42137">
        <ele>20.32</ele>
        <time>2021-08-07T07:07:31Z</time>
      </trkpt>
      <trkpt lat="50.89312" lon="2.42213">
        <ele>19.84</ele>
        <time>2021-08-07T07:07:40Z</time>
      </trkpt>
      <trkpt lat="50.89282" lon="2.42281">
        <ele>19.84</ele>
        <time>2021-08-07T07:07:49Z</time>
      </trkpt>
      <trkpt lat="50.89243" lon="2.42366">
        <ele>19.84</ele>
        <time>2021-08-07T07:08:01Z</time>
      </trkpt>
      <trkpt lat="50.89239" lon="2.42372">
        <ele>19.84</ele>
        <time>2021-08-07T07:08:02Z</time>
      </trkpt>
      <trkpt lat="50.89235" lon="2.42378">
        <ele>19.84</ele>
        <time>2021-08-07T07:08:03Z</time>
      </trkpt>
      <trkpt lat="50.89231" lon="2.42383">
        <ele>20.81</ele>
        <time>2021-08-07T07:08:04Z</time>
      </trkpt>
      <trkpt lat="50.89226" lon="2.42386">
        <ele>20.81</ele>
        <time>2021-08-07T07:08:05Z</time>
      </trkpt>
      <trkpt lat="50.89221" lon="2.4239">
        <ele>20.81</ele>
        <time>2021-08-07T07:08:06Z</time>
      </trkpt>
      <trkpt lat="50.89216" lon="2.42393">
        <ele>20.81</ele>
        <time>2021-08-07T07:08:07Z</time>
      </trkpt>
      <trkpt lat="50.89207" lon="2.42397">
        <ele>21.29</ele>
        <time>2021-08-07T07:08:09Z</time>
      </trkpt>
      <trkpt lat="50.89158" lon="2.4241">
        <ele>21.29</ele>
        <time>2021-08-07T07:08:18Z</time>
      </trkpt>
      <trkpt lat="50.89118" lon="2.42428">
        <ele>21.29</ele>
        <time>2021-08-07T07:08:25Z</time>
      </trkpt>
      <trkpt lat="50.89113" lon="2.42432">
        <ele>21.29</ele>
        <time>2021-08-07T07:08:26Z</time>
      </trkpt>
      <trkpt lat="50.89103" lon="2.42444">
        <ele>21.29</ele>
        <time>2021-08-07T07:08:28Z</time>
      </trkpt>
      <trkpt lat="50.89081" lon="2.42475">
        <ele>20.32</ele>
        <time>2021-08-07T07:08:33Z</time>
      </trkpt>
      <trkpt lat="50.89043" lon="2.42535">
        <ele>19.36</ele>
        <time>2021-08-07T07:08:42Z</time>
      </trkpt>
      <trkpt lat="50.89022" lon="2.42568">
        <ele>19.36</ele>
        <time>2021-08-07T07:08:47Z</time>
      </trkpt>
      <trkpt lat="50.89005" lon="2.42606">
        <ele>19.36</ele>
        <time>2021-08-07T07:08:52Z</time>
      </trkpt>
      <trkpt lat="50.89001" lon="2.42612">
        <ele>19.36</ele>
        <time>2021-08-07T07:08:53Z</time>
      </trkpt>
      <trkpt lat="50.88996" lon="2.42618">
        <ele>18.88</ele>
        <time>2021-08-07T07:08:54Z</time>
      </trkpt>
      <trkpt lat="50.88955" lon="2.42652">
        <ele>18.4</ele>
        <time>2021-08-07T07:09:02Z</time>
      </trkpt>
      <trkpt lat="50.88929" lon="2.42679">
        <ele>19.36</ele>
        <time>2021-08-07T07:09:08Z</time>
      </trkpt>
      <trkpt lat="50.88924" lon="2.42684">
        <ele>19.36</ele>
        <time>2021-08-07T07:09:09Z</time>
      </trkpt>
      <trkpt lat="50.88896" lon="2.42714">
        <ele>19.36</ele>
        <time>2021-08-07T07:09:15Z</time>
      </trkpt>
      <trkpt lat="50.88868" lon="2.42742">
        <ele>17.92</ele>
        <time>2021-08-07T07:09:20Z</time>
      </trkpt>
      <trkpt lat="50.88811" lon="2.42804">
        <ele>17.44</ele>
        <time>2021-08-07T07:09:31Z</time>
      </trkpt>
      <trkpt lat="50.88756" lon="2.42869">
        <ele>16.96</ele>
        <time>2021-08-07T07:09:42Z</time>
      </trkpt>
      <trkpt lat="50.88717" lon="2.42919">
        <ele>16.96</ele>
        <time>2021-08-07T07:09:50Z</time>
      </trkpt>
      <trkpt lat="50.88678" lon="2.42974">
        <ele>16.48</ele>
        <time>2021-08-07T07:09:59Z</time>
      </trkpt>
      <trkpt lat="50.88644" lon="2.43015">
        <ele>16.48</ele>
        <time>2021-08-07T07:10:07Z</time>
      </trkpt>
      <trkpt lat="50.88636" lon="2.43025">
        <ele>16.48</ele>
        <time>2021-08-07T07:10:09Z</time>
      </trkpt>
      <trkpt lat="50.8863" lon="2.43035">
        <ele>16.48</ele>
        <time>2021-08-07T07:10:11Z</time>
      </trkpt>
      <trkpt lat="50.88628" lon="2.43042">
        <ele>16.48</ele>
        <time>2021-08-07T07:10:12Z</time>
      </trkpt>
      <trkpt lat="50.88625" lon="2.43059">
        <ele>17.44</ele>
        <time>2021-08-07T07:10:15Z</time>
      </trkpt>
      <trkpt lat="50.8861" lon="2.43101">
        <ele>17.44</ele>
        <time>2021-08-07T07:10:22Z</time>
      </trkpt>
      <trkpt lat="50.88598" lon="2.43136">
        <ele>16.48</ele>
        <time>2021-08-07T07:10:29Z</time>
      </trkpt>
      <trkpt lat="50.88594" lon="2.43151">
        <ele>16.48</ele>
        <time>2021-08-07T07:10:32Z</time>
      </trkpt>
      <trkpt lat="50.88592" lon="2.43153">
        <ele>16.48</ele>
        <time>2021-08-07T07:10:33Z</time>
      </trkpt>
      <trkpt lat="50.8859" lon="2.43154">
        <ele>16.48</ele>
        <time>2021-08-07T07:10:34Z</time>
      </trkpt>
      <trkpt lat="50.88587" lon="2.43156">
        <ele>16.48</ele>
        <time>2021-08-07T07:10:35Z</time>
      </trkpt>
      <trkpt lat="50.88586" lon="2.43158">
        <ele>16.48</ele>
        <time>2021-08-07T07:10:36Z</time>
      </trkpt>
      <trkpt lat="50.88585" lon="2.4316">
        <ele>16.48</ele>
        <time>2021-08-07T07:10:37Z</time>
      </trkpt>
      <trkpt lat="50.88584" lon="2.43167">
        <ele>16.48</ele>
        <time>2021-08-07T07:10:43Z</time>
      </trkpt>
      <trkpt lat="50.88587" lon="2.43165">
        <ele>16.48</ele>
        <time>2021-08-07T07:10:52Z</time>
      </trkpt>
      <trkpt lat="50.88594" lon="2.43157">
        <ele>16</ele>
        <time>2021-08-07T07:11:13Z</time>
      </trkpt>
      <trkpt lat="50.88604" lon="2.43152">
        <ele>16</ele>
        <time>2021-08-07T07:11:30Z</time>
      </trkpt>
      <trkpt lat="50.88611" lon="2.43151">
        <ele>16</ele>
        <time>2021-08-07T07:11:49Z</time>
      </trkpt>
      <trkpt lat="50.88618" lon="2.43152">
        <ele>16</ele>
        <time>2021-08-07T07:12:14Z</time>
      </trkpt>
      <trkpt lat="50.88624" lon="2.43152">
        <ele>16</ele>
        <time>2021-08-07T07:12:32Z</time>
      </trkpt>
      <trkpt lat="50.88625" lon="2.43152">
        <ele>16</ele>
        <time>2021-08-07T07:12:58Z</time>
      </trkpt>
      <trkpt lat="50.88627" lon="2.43155">
        <ele>16</ele>
        <time>2021-08-07T07:13:23Z</time>
      </trkpt>
      <trkpt lat="50.88628" lon="2.43157">
        <ele>16</ele>
        <time>2021-08-07T07:13:33Z</time>
      </trkpt>
      <trkpt lat="50.88629" lon="2.43161">
        <ele>16</ele>
        <time>2021-08-07T07:13:51Z</time>
      </trkpt>
      <trkpt lat="50.88629" lon="2.43164">
        <ele>16</ele>
        <time>2021-08-07T07:13:57Z</time>
      </trkpt>
      <trkpt lat="50.88628" lon="2.43164">
        <ele>16</ele>
        <time>2021-08-07T07:14:02Z</time>
      </trkpt>
      <trkpt lat="50.88624" lon="2.43183">
        <ele>16</ele>
        <time>2021-08-07T07:14:07Z</time>
      </trkpt>
      <trkpt lat="50.88598" lon="2.43214">
        <ele>15.04</ele>
        <time>2021-08-07T07:14:14Z</time>
      </trkpt>
      <trkpt lat="50.8859" lon="2.43221">
        <ele>15.04</ele>
        <time>2021-08-07T07:14:16Z</time>
      </trkpt>
      <trkpt lat="50.88584" lon="2.43227">
        <ele>15.04</ele>
        <time>2021-08-07T07:14:17Z</time>
      </trkpt>
      <trkpt lat="50.88578" lon="2.43232">
        <ele>15.04</ele>
        <time>2021-08-07T07:14:18Z</time>
      </trkpt>
      <trkpt lat="50.88561" lon="2.43242">
        <ele>15.04</ele>
        <time>2021-08-07T07:14:21Z</time>
      </trkpt>
      <trkpt lat="50.88539" lon="2.43252">
        <ele>15.04</ele>
        <time>2021-08-07T07:14:25Z</time>
      </trkpt>
      <trkpt lat="50.88535" lon="2.43254">
        <ele>15.04</ele>
        <time>2021-08-07T07:14:26Z</time>
      </trkpt>
      <trkpt lat="50.8853" lon="2.43254">
        <ele>15.04</ele>
        <time>2021-08-07T07:14:27Z</time>
      </trkpt>
      <trkpt lat="50.88525" lon="2.43253">
        <ele>15.04</ele>
        <time>2021-08-07T07:14:28Z</time>
      </trkpt>
      <trkpt lat="50.88519" lon="2.43252">
        <ele>14.56</ele>
        <time>2021-08-07T07:14:29Z</time>
      </trkpt>
      <trkpt lat="50.88514" lon="2.4325">
        <ele>14.56</ele>
        <time>2021-08-07T07:14:30Z</time>
      </trkpt>
      <trkpt lat="50.88509" lon="2.43249">
        <ele>14.56</ele>
        <time>2021-08-07T07:14:31Z</time>
      </trkpt>
      <trkpt lat="50.88468" lon="2.43235">
        <ele>14.56</ele>
        <time>2021-08-07T07:14:39Z</time>
      </trkpt>
      <trkpt lat="50.88463" lon="2.43232">
        <ele>14.08</ele>
        <time>2021-08-07T07:14:40Z</time>
      </trkpt>
      <trkpt lat="50.88434" lon="2.43209">
        <ele>14.08</ele>
        <time>2021-08-07T07:14:47Z</time>
      </trkpt>
      <trkpt lat="50.88409" lon="2.43182">
        <ele>14.08</ele>
        <time>2021-08-07T07:14:53Z</time>
      </trkpt>
      <trkpt lat="50.88388" lon="2.43159">
        <ele>14.08</ele>
        <time>2021-08-07T07:14:58Z</time>
      </trkpt>
      <trkpt lat="50.88383" lon="2.43155">
        <ele>14.08</ele>
        <time>2021-08-07T07:14:59Z</time>
      </trkpt>
      <trkpt lat="50.88378" lon="2.43153">
        <ele>14.08</ele>
        <time>2021-08-07T07:15:00Z</time>
      </trkpt>
      <trkpt lat="50.88373" lon="2.43152">
        <ele>14.08</ele>
        <time>2021-08-07T07:15:01Z</time>
      </trkpt>
      <trkpt lat="50.88369" lon="2.4315">
        <ele>14.08</ele>
        <time>2021-08-07T07:15:02Z</time>
      </trkpt>
      <trkpt lat="50.88354" lon="2.43145">
        <ele>14.08</ele>
        <time>2021-08-07T07:15:05Z</time>
      </trkpt>
      <trkpt lat="50.88335" lon="2.43138">
        <ele>15.52</ele>
        <time>2021-08-07T07:15:09Z</time>
      </trkpt>
      <trkpt lat="50.88326" lon="2.43134">
        <ele>15.52</ele>
        <time>2021-08-07T07:15:11Z</time>
      </trkpt>
      <trkpt lat="50.88321" lon="2.43132">
        <ele>15.52</ele>
        <time>2021-08-07T07:15:12Z</time>
      </trkpt>
      <trkpt lat="50.88317" lon="2.4313">
        <ele>16</ele>
        <time>2021-08-07T07:15:13Z</time>
      </trkpt>
      <trkpt lat="50.8827" lon="2.43111">
        <ele>16</ele>
        <time>2021-08-07T07:15:23Z</time>
      </trkpt>
      <trkpt lat="50.8823" lon="2.43093">
        <ele>16</ele>
        <time>2021-08-07T07:15:31Z</time>
      </trkpt>
      <trkpt lat="50.88193" lon="2.43075">
        <ele>16.48</ele>
        <time>2021-08-07T07:15:39Z</time>
      </trkpt>
      <trkpt lat="50.88161" lon="2.43066">
        <ele>16.96</ele>
        <time>2021-08-07T07:15:46Z</time>
      </trkpt>
      <trkpt lat="50.88156" lon="2.43067">
        <ele>16.96</ele>
        <time>2021-08-07T07:15:47Z</time>
      </trkpt>
      <trkpt lat="50.88152" lon="2.43069">
        <ele>16.96</ele>
        <time>2021-08-07T07:15:48Z</time>
      </trkpt>
      <trkpt lat="50.88148" lon="2.43073">
        <ele>16.96</ele>
        <time>2021-08-07T07:15:49Z</time>
      </trkpt>
      <trkpt lat="50.88144" lon="2.43077">
        <ele>16.96</ele>
        <time>2021-08-07T07:15:50Z</time>
      </trkpt>
      <trkpt lat="50.88107" lon="2.43108">
        <ele>16.96</ele>
        <time>2021-08-07T07:15:59Z</time>
      </trkpt>
      <trkpt lat="50.88074" lon="2.43132">
        <ele>17.44</ele>
        <time>2021-08-07T07:16:07Z</time>
      </trkpt>
      <trkpt lat="50.88038" lon="2.43144">
        <ele>17.92</ele>
        <time>2021-08-07T07:16:15Z</time>
      </trkpt>
      <trkpt lat="50.88033" lon="2.43144">
        <ele>17.92</ele>
        <time>2021-08-07T07:16:16Z</time>
      </trkpt>
      <trkpt lat="50.87988" lon="2.43141">
        <ele>17.92</ele>
        <time>2021-08-07T07:16:25Z</time>
      </trkpt>
      <trkpt lat="50.87953" lon="2.43156">
        <ele>17.92</ele>
        <time>2021-08-07T07:16:33Z</time>
      </trkpt>
      <trkpt lat="50.87919" lon="2.43174">
        <ele>17.92</ele>
        <time>2021-08-07T07:16:41Z</time>
      </trkpt>
      <trkpt lat="50.87915" lon="2.43176">
        <ele>17.92</ele>
        <time>2021-08-07T07:16:42Z</time>
      </trkpt>
      <trkpt lat="50.87906" lon="2.43181">
        <ele>17.92</ele>
        <time>2021-08-07T07:16:44Z</time>
      </trkpt>
      <trkpt lat="50.87901" lon="2.43184">
        <ele>17.92</ele>
        <time>2021-08-07T07:16:45Z</time>
      </trkpt>
      <trkpt lat="50.87859" lon="2.43212">
        <ele>18.88</ele>
        <time>2021-08-07T07:16:55Z</time>
      </trkpt>
      <trkpt lat="50.87855" lon="2.43214">
        <ele>18.88</ele>
        <time>2021-08-07T07:16:56Z</time>
      </trkpt>
      <trkpt lat="50.8785" lon="2.43214">
        <ele>18.88</ele>
        <time>2021-08-07T07:16:57Z</time>
      </trkpt>
      <trkpt lat="50.87846" lon="2.43214">
        <ele>18.88</ele>
        <time>2021-08-07T07:16:58Z</time>
      </trkpt>
      <trkpt lat="50.87841" lon="2.43213">
        <ele>18.88</ele>
        <time>2021-08-07T07:16:59Z</time>
      </trkpt>
      <trkpt lat="50.87836" lon="2.43212">
        <ele>18.88</ele>
        <time>2021-08-07T07:17:00Z</time>
      </trkpt>
      <trkpt lat="50.87805" lon="2.43204">
        <ele>19.36</ele>
        <time>2021-08-07T07:17:07Z</time>
      </trkpt>
      <trkpt lat="50.87764" lon="2.43197">
        <ele>19.36</ele>
        <time>2021-08-07T07:17:16Z</time>
      </trkpt>
      <trkpt lat="50.87725" lon="2.4319">
        <ele>19.36</ele>
        <time>2021-08-07T07:17:24Z</time>
      </trkpt>
      <trkpt lat="50.87683" lon="2.43182">
        <ele>19.84</ele>
        <time>2021-08-07T07:17:33Z</time>
      </trkpt>
      <trkpt lat="50.87641" lon="2.43171">
        <ele>19.84</ele>
        <time>2021-08-07T07:17:42Z</time>
      </trkpt>
      <trkpt lat="50.87636" lon="2.43171">
        <ele>19.84</ele>
        <time>2021-08-07T07:17:43Z</time>
      </trkpt>
      <trkpt lat="50.8758" lon="2.43165">
        <ele>19.84</ele>
        <time>2021-08-07T07:17:54Z</time>
      </trkpt>
      <trkpt lat="50.87564" lon="2.43166">
        <ele>19.84</ele>
        <time>2021-08-07T07:17:57Z</time>
      </trkpt>
      <trkpt lat="50.87559" lon="2.43169">
        <ele>19.84</ele>
        <time>2021-08-07T07:17:58Z</time>
      </trkpt>
      <trkpt lat="50.87554" lon="2.43172">
        <ele>19.84</ele>
        <time>2021-08-07T07:17:59Z</time>
      </trkpt>
      <trkpt lat="50.87549" lon="2.43175">
        <ele>19.84</ele>
        <time>2021-08-07T07:18:00Z</time>
      </trkpt>
      <trkpt lat="50.87545" lon="2.43179">
        <ele>19.84</ele>
        <time>2021-08-07T07:18:01Z</time>
      </trkpt>
      <trkpt lat="50.87499" lon="2.43218">
        <ele>19.84</ele>
        <time>2021-08-07T07:18:11Z</time>
      </trkpt>
      <trkpt lat="50.87494" lon="2.4322">
        <ele>19.84</ele>
        <time>2021-08-07T07:18:12Z</time>
      </trkpt>
      <trkpt lat="50.8749" lon="2.43222">
        <ele>19.84</ele>
        <time>2021-08-07T07:18:13Z</time>
      </trkpt>
      <trkpt lat="50.87485" lon="2.43224">
        <ele>19.84</ele>
        <time>2021-08-07T07:18:14Z</time>
      </trkpt>
      <trkpt lat="50.87481" lon="2.43226">
        <ele>19.84</ele>
        <time>2021-08-07T07:18:15Z</time>
      </trkpt>
      <trkpt lat="50.87476" lon="2.43229">
        <ele>19.84</ele>
        <time>2021-08-07T07:18:16Z</time>
      </trkpt>
      <trkpt lat="50.87433" lon="2.43259">
        <ele>19.84</ele>
        <time>2021-08-07T07:18:26Z</time>
      </trkpt>
      <trkpt lat="50.8737" lon="2.43308">
        <ele>20.81</ele>
        <time>2021-08-07T07:18:41Z</time>
      </trkpt>
      <trkpt lat="50.87325" lon="2.43345">
        <ele>21.29</ele>
        <time>2021-08-07T07:18:52Z</time>
      </trkpt>
      <trkpt lat="50.87321" lon="2.43349">
        <ele>21.29</ele>
        <time>2021-08-07T07:18:53Z</time>
      </trkpt>
      <trkpt lat="50.87317" lon="2.43354">
        <ele>21.29</ele>
        <time>2021-08-07T07:18:54Z</time>
      </trkpt>
      <trkpt lat="50.87313" lon="2.43359">
        <ele>22.25</ele>
        <time>2021-08-07T07:18:55Z</time>
      </trkpt>
      <trkpt lat="50.87281" lon="2.43393">
        <ele>22.25</ele>
        <time>2021-08-07T07:19:03Z</time>
      </trkpt>
      <trkpt lat="50.87277" lon="2.43398">
        <ele>22.25</ele>
        <time>2021-08-07T07:19:04Z</time>
      </trkpt>
      <trkpt lat="50.87274" lon="2.43403">
        <ele>22.25</ele>
        <time>2021-08-07T07:19:05Z</time>
      </trkpt>
      <trkpt lat="50.8727" lon="2.43407">
        <ele>22.25</ele>
        <time>2021-08-07T07:19:06Z</time>
      </trkpt>
      <trkpt lat="50.87265" lon="2.43411">
        <ele>22.25</ele>
        <time>2021-08-07T07:19:07Z</time>
      </trkpt>
      <trkpt lat="50.87219" lon="2.43454">
        <ele>22.73</ele>
        <time>2021-08-07T07:19:18Z</time>
      </trkpt>
      <trkpt lat="50.87199" lon="2.43474">
        <ele>24.17</ele>
        <time>2021-08-07T07:19:23Z</time>
      </trkpt>
      <trkpt lat="50.87187" lon="2.43486">
        <ele>22.73</ele>
        <time>2021-08-07T07:19:26Z</time>
      </trkpt>
      <trkpt lat="50.8715" lon="2.43522">
        <ele>22.73</ele>
        <time>2021-08-07T07:19:36Z</time>
      </trkpt>
      <trkpt lat="50.87146" lon="2.43527">
        <ele>24.17</ele>
        <time>2021-08-07T07:19:39Z</time>
      </trkpt>
      <trkpt lat="50.87145" lon="2.43528">
        <ele>24.17</ele>
        <time>2021-08-07T07:19:47Z</time>
      </trkpt>
      <trkpt lat="50.87144" lon="2.43529">
        <ele>24.17</ele>
        <time>2021-08-07T07:20:09Z</time>
      </trkpt>
      <trkpt lat="50.87144" lon="2.43529">
        <ele>24.17</ele>
        <time>2021-08-07T07:20:27Z</time>
      </trkpt>
      <trkpt lat="50.87144" lon="2.4353">
        <ele>24.17</ele>
        <time>2021-08-07T07:20:45Z</time>
      </trkpt>
      <trkpt lat="50.87144" lon="2.4353">
        <ele>24.17</ele>
        <time>2021-08-07T07:21:11Z</time>
      </trkpt>
      <trkpt lat="50.87144" lon="2.43529">
        <ele>24.17</ele>
        <time>2021-08-07T07:21:25Z</time>
      </trkpt>
      <trkpt lat="50.87145" lon="2.43528">
        <ele>24.17</ele>
        <time>2021-08-07T07:21:40Z</time>
      </trkpt>
      <trkpt lat="50.87143" lon="2.43532">
        <ele>24.17</ele>
        <time>2021-08-07T07:22:00Z</time>
      </trkpt>
      <trkpt lat="50.87144" lon="2.43531">
        <ele>24.17</ele>
        <time>2021-08-07T07:22:09Z</time>
      </trkpt>
      <trkpt lat="50.87146" lon="2.43528">
        <ele>24.17</ele>
        <time>2021-08-07T07:22:21Z</time>
      </trkpt>
      <trkpt lat="50.87145" lon="2.43528">
        <ele>24.17</ele>
        <time>2021-08-07T07:22:25Z</time>
      </trkpt>
      <trkpt lat="50.87144" lon="2.43527">
        <ele>24.17</ele>
        <time>2021-08-07T07:22:26Z</time>
      </trkpt>
      <trkpt lat="50.87143" lon="2.43527">
        <ele>24.17</ele>
        <time>2021-08-07T07:22:27Z</time>
      </trkpt>
      <trkpt lat="50.87141" lon="2.43528">
        <ele>24.17</ele>
        <time>2021-08-07T07:22:28Z</time>
      </trkpt>
      <trkpt lat="50.87139" lon="2.43529">
        <ele>24.17</ele>
        <time>2021-08-07T07:22:29Z</time>
      </trkpt>
      <trkpt lat="50.87137" lon="2.4353">
        <ele>24.17</ele>
        <time>2021-08-07T07:22:30Z</time>
      </trkpt>
      <trkpt lat="50.87111" lon="2.43541">
        <ele>24.17</ele>
        <time>2021-08-07T07:22:37Z</time>
      </trkpt>
      <trkpt lat="50.8709" lon="2.4355">
        <ele>24.17</ele>
        <time>2021-08-07T07:22:43Z</time>
      </trkpt>
      <trkpt lat="50.87069" lon="2.43562">
        <ele>22.73</ele>
        <time>2021-08-07T07:22:49Z</time>
      </trkpt>
      <trkpt lat="50.87022" lon="2.43596">
        <ele>22.25</ele>
        <time>2021-08-07T07:23:00Z</time>
      </trkpt>
      <trkpt lat="50.86979" lon="2.43629">
        <ele>22.25</ele>
        <time>2021-08-07T07:23:10Z</time>
      </trkpt>
      <trkpt lat="50.86953" lon="2.43646">
        <ele>22.73</ele>
        <time>2021-08-07T07:23:16Z</time>
      </trkpt>
      <trkpt lat="50.86949" lon="2.43648">
        <ele>23.69</ele>
        <time>2021-08-07T07:23:17Z</time>
      </trkpt>
      <trkpt lat="50.86944" lon="2.43648">
        <ele>23.69</ele>
        <time>2021-08-07T07:23:18Z</time>
      </trkpt>
      <trkpt lat="50.86941" lon="2.43645">
        <ele>23.69</ele>
        <time>2021-08-07T07:23:19Z</time>
      </trkpt>
      <trkpt lat="50.86936" lon="2.43639">
        <ele>24.17</ele>
        <time>2021-08-07T07:23:20Z</time>
      </trkpt>
      <trkpt lat="50.86934" lon="2.43636">
        <ele>24.17</ele>
        <time>2021-08-07T07:23:21Z</time>
      </trkpt>
      <trkpt lat="50.8693" lon="2.43632">
        <ele>24.17</ele>
        <time>2021-08-07T07:23:22Z</time>
      </trkpt>
      <trkpt lat="50.86926" lon="2.4363">
        <ele>24.17</ele>
        <time>2021-08-07T07:23:23Z</time>
      </trkpt>
      <trkpt lat="50.8692" lon="2.4363">
        <ele>24.17</ele>
        <time>2021-08-07T07:23:24Z</time>
      </trkpt>
      <trkpt lat="50.86916" lon="2.43631">
        <ele>24.17</ele>
        <time>2021-08-07T07:23:25Z</time>
      </trkpt>
      <trkpt lat="50.86911" lon="2.43633">
        <ele>24.17</ele>
        <time>2021-08-07T07:23:26Z</time>
      </trkpt>
      <trkpt lat="50.86907" lon="2.43636">
        <ele>24.17</ele>
        <time>2021-08-07T07:23:27Z</time>
      </trkpt>
      <trkpt lat="50.86901" lon="2.4364">
        <ele>24.17</ele>
        <time>2021-08-07T07:23:28Z</time>
      </trkpt>
      <trkpt lat="50.86865" lon="2.43663">
        <ele>23.69</ele>
        <time>2021-08-07T07:23:36Z</time>
      </trkpt>
      <trkpt lat="50.86824" lon="2.4369">
        <ele>23.69</ele>
        <time>2021-08-07T07:23:45Z</time>
      </trkpt>
      <trkpt lat="50.86819" lon="2.43691">
        <ele>23.69</ele>
        <time>2021-08-07T07:23:46Z</time>
      </trkpt>
      <trkpt lat="50.86814" lon="2.43691">
        <ele>23.69</ele>
        <time>2021-08-07T07:23:47Z</time>
      </trkpt>
      <trkpt lat="50.86809" lon="2.4369">
        <ele>23.69</ele>
        <time>2021-08-07T07:23:48Z</time>
      </trkpt>
      <trkpt lat="50.86804" lon="2.43689">
        <ele>23.69</ele>
        <time>2021-08-07T07:23:49Z</time>
      </trkpt>
      <trkpt lat="50.86794" lon="2.43688">
        <ele>23.69</ele>
        <time>2021-08-07T07:23:51Z</time>
      </trkpt>
      <trkpt lat="50.86789" lon="2.43689">
        <ele>23.69</ele>
        <time>2021-08-07T07:23:52Z</time>
      </trkpt>
      <trkpt lat="50.86779" lon="2.43692">
        <ele>23.69</ele>
        <time>2021-08-07T07:23:54Z</time>
      </trkpt>
      <trkpt lat="50.86774" lon="2.43695">
        <ele>23.69</ele>
        <time>2021-08-07T07:23:55Z</time>
      </trkpt>
      <trkpt lat="50.86744" lon="2.43716">
        <ele>23.69</ele>
        <time>2021-08-07T07:24:01Z</time>
      </trkpt>
      <trkpt lat="50.86716" lon="2.43738">
        <ele>24.17</ele>
        <time>2021-08-07T07:24:07Z</time>
      </trkpt>
      <trkpt lat="50.86655" lon="2.43776">
        <ele>24.17</ele>
        <time>2021-08-07T07:24:19Z</time>
      </trkpt>
      <trkpt lat="50.8665" lon="2.43777">
        <ele>24.17</ele>
        <time>2021-08-07T07:24:20Z</time>
      </trkpt>
      <trkpt lat="50.86624" lon="2.43785">
        <ele>24.17</ele>
        <time>2021-08-07T07:24:25Z</time>
      </trkpt>
      <trkpt lat="50.86619" lon="2.43788">
        <ele>24.17</ele>
        <time>2021-08-07T07:24:26Z</time>
      </trkpt>
      <trkpt lat="50.86615" lon="2.43792">
        <ele>24.17</ele>
        <time>2021-08-07T07:24:27Z</time>
      </trkpt>
      <trkpt lat="50.8657" lon="2.43839">
        <ele>24.17</ele>
        <time>2021-08-07T07:24:37Z</time>
      </trkpt>
      <trkpt lat="50.86548" lon="2.4386">
        <ele>24.17</ele>
        <time>2021-08-07T07:24:42Z</time>
      </trkpt>
      <trkpt lat="50.86543" lon="2.43862">
        <ele>24.17</ele>
        <time>2021-08-07T07:24:43Z</time>
      </trkpt>
      <trkpt lat="50.86538" lon="2.43863">
        <ele>24.17</ele>
        <time>2021-08-07T07:24:44Z</time>
      </trkpt>
      <trkpt lat="50.86524" lon="2.43866">
        <ele>25.13</ele>
        <time>2021-08-07T07:24:47Z</time>
      </trkpt>
      <trkpt lat="50.86518" lon="2.43868">
        <ele>25.13</ele>
        <time>2021-08-07T07:24:48Z</time>
      </trkpt>
      <trkpt lat="50.86514" lon="2.4387">
        <ele>25.13</ele>
        <time>2021-08-07T07:24:49Z</time>
      </trkpt>
      <trkpt lat="50.86471" lon="2.43903">
        <ele>24.65</ele>
        <time>2021-08-07T07:24:58Z</time>
      </trkpt>
      <trkpt lat="50.86443" lon="2.43926">
        <ele>23.21</ele>
        <time>2021-08-07T07:25:04Z</time>
      </trkpt>
      <trkpt lat="50.86407" lon="2.43951">
        <ele>24.65</ele>
        <time>2021-08-07T07:25:12Z</time>
      </trkpt>
      <trkpt lat="50.86402" lon="2.43953">
        <ele>25.13</ele>
        <time>2021-08-07T07:25:13Z</time>
      </trkpt>
      <trkpt lat="50.86397" lon="2.43953">
        <ele>25.13</ele>
        <time>2021-08-07T07:25:14Z</time>
      </trkpt>
      <trkpt lat="50.86353" lon="2.43961">
        <ele>25.13</ele>
        <time>2021-08-07T07:25:23Z</time>
      </trkpt>
      <trkpt lat="50.86291" lon="2.43964">
        <ele>25.13</ele>
        <time>2021-08-07T07:25:35Z</time>
      </trkpt>
      <trkpt lat="50.86261" lon="2.43966">
        <ele>25.13</ele>
        <time>2021-08-07T07:25:41Z</time>
      </trkpt>
      <trkpt lat="50.86256" lon="2.43967">
        <ele>25.13</ele>
        <time>2021-08-07T07:25:42Z</time>
      </trkpt>
      <trkpt lat="50.86251" lon="2.4397">
        <ele>25.13</ele>
        <time>2021-08-07T07:25:43Z</time>
      </trkpt>
      <trkpt lat="50.86246" lon="2.43973">
        <ele>25.13</ele>
        <time>2021-08-07T07:25:44Z</time>
      </trkpt>
      <trkpt lat="50.86241" lon="2.43977">
        <ele>25.13</ele>
        <time>2021-08-07T07:25:45Z</time>
      </trkpt>
      <trkpt lat="50.86196" lon="2.44022">
        <ele>22.73</ele>
        <time>2021-08-07T07:25:54Z</time>
      </trkpt>
      <trkpt lat="50.86146" lon="2.44077">
        <ele>22.25</ele>
        <time>2021-08-07T07:26:04Z</time>
      </trkpt>
      <trkpt lat="50.86088" lon="2.4414">
        <ele>20.32</ele>
        <time>2021-08-07T07:26:15Z</time>
      </trkpt>
      <trkpt lat="50.86033" lon="2.44201">
        <ele>19.84</ele>
        <time>2021-08-07T07:26:26Z</time>
      </trkpt>
      <trkpt lat="50.85988" lon="2.44253">
        <ele>19.84</ele>
        <time>2021-08-07T07:26:36Z</time>
      </trkpt>
      <trkpt lat="50.85985" lon="2.44258">
        <ele>19.84</ele>
        <time>2021-08-07T07:26:37Z</time>
      </trkpt>
      <trkpt lat="50.85981" lon="2.4426">
        <ele>19.84</ele>
        <time>2021-08-07T07:26:38Z</time>
      </trkpt>
      <trkpt lat="50.85977" lon="2.44259">
        <ele>19.84</ele>
        <time>2021-08-07T07:26:39Z</time>
      </trkpt>
      <trkpt lat="50.85973" lon="2.44255">
        <ele>19.84</ele>
        <time>2021-08-07T07:26:40Z</time>
      </trkpt>
      <trkpt lat="50.8597" lon="2.44251">
        <ele>20.81</ele>
        <time>2021-08-07T07:26:41Z</time>
      </trkpt>
      <trkpt lat="50.85968" lon="2.44246">
        <ele>20.81</ele>
        <time>2021-08-07T07:26:42Z</time>
      </trkpt>
      <trkpt lat="50.85965" lon="2.4424">
        <ele>20.81</ele>
        <time>2021-08-07T07:26:43Z</time>
      </trkpt>
      <trkpt lat="50.85939" lon="2.44185">
        <ele>20.81</ele>
        <time>2021-08-07T07:26:51Z</time>
      </trkpt>
      <trkpt lat="50.85922" lon="2.44152">
        <ele>19.36</ele>
        <time>2021-08-07T07:26:56Z</time>
      </trkpt>
      <trkpt lat="50.85878" lon="2.4407">
        <ele>19.36</ele>
        <time>2021-08-07T07:27:08Z</time>
      </trkpt>
      <trkpt lat="50.85838" lon="2.44008">
        <ele>21.29</ele>
        <time>2021-08-07T07:27:18Z</time>
      </trkpt>
      <trkpt lat="50.85805" lon="2.43954">
        <ele>21.77</ele>
        <time>2021-08-07T07:27:27Z</time>
      </trkpt>
      <trkpt lat="50.85778" lon="2.43916">
        <ele>21.77</ele>
        <time>2021-08-07T07:27:34Z</time>
      </trkpt>
      <trkpt lat="50.85773" lon="2.43913">
        <ele>21.77</ele>
        <time>2021-08-07T07:27:35Z</time>
      </trkpt>
      <trkpt lat="50.85751" lon="2.43898">
        <ele>21.77</ele>
        <time>2021-08-07T07:27:40Z</time>
      </trkpt>
      <trkpt lat="50.85747" lon="2.43892">
        <ele>21.77</ele>
        <time>2021-08-07T07:27:41Z</time>
      </trkpt>
      <trkpt lat="50.85743" lon="2.43885">
        <ele>21.77</ele>
        <time>2021-08-07T07:27:42Z</time>
      </trkpt>
      <trkpt lat="50.85712" lon="2.43817">
        <ele>21.77</ele>
        <time>2021-08-07T07:27:51Z</time>
      </trkpt>
      <trkpt lat="50.85696" lon="2.43785">
        <ele>21.77</ele>
        <time>2021-08-07T07:27:56Z</time>
      </trkpt>
      <trkpt lat="50.85693" lon="2.4378">
        <ele>22.25</ele>
        <time>2021-08-07T07:27:57Z</time>
      </trkpt>
      <trkpt lat="50.8569" lon="2.43777">
        <ele>22.25</ele>
        <time>2021-08-07T07:27:58Z</time>
      </trkpt>
      <trkpt lat="50.85687" lon="2.43775">
        <ele>22.25</ele>
        <time>2021-08-07T07:27:59Z</time>
      </trkpt>
      <trkpt lat="50.85683" lon="2.43774">
        <ele>22.25</ele>
        <time>2021-08-07T07:28:00Z</time>
      </trkpt>
      <trkpt lat="50.85679" lon="2.43775">
        <ele>22.25</ele>
        <time>2021-08-07T07:28:01Z</time>
      </trkpt>
      <trkpt lat="50.85674" lon="2.43778">
        <ele>22.25</ele>
        <time>2021-08-07T07:28:02Z</time>
      </trkpt>
      <trkpt lat="50.8567" lon="2.43782">
        <ele>22.25</ele>
        <time>2021-08-07T07:28:03Z</time>
      </trkpt>
      <trkpt lat="50.85666" lon="2.43787">
        <ele>22.25</ele>
        <time>2021-08-07T07:28:04Z</time>
      </trkpt>
      <trkpt lat="50.85662" lon="2.43792">
        <ele>22.25</ele>
        <time>2021-08-07T07:28:05Z</time>
      </trkpt>
      <trkpt lat="50.85658" lon="2.43798">
        <ele>22.25</ele>
        <time>2021-08-07T07:28:06Z</time>
      </trkpt>
      <trkpt lat="50.85638" lon="2.43824">
        <ele>22.25</ele>
        <time>2021-08-07T07:28:11Z</time>
      </trkpt>
      <trkpt lat="50.85607" lon="2.43863">
        <ele>22.25</ele>
        <time>2021-08-07T07:28:18Z</time>
      </trkpt>
      <trkpt lat="50.85565" lon="2.43913">
        <ele>23.21</ele>
        <time>2021-08-07T07:28:28Z</time>
      </trkpt>
      <trkpt lat="50.85526" lon="2.4396">
        <ele>23.21</ele>
        <time>2021-08-07T07:28:37Z</time>
      </trkpt>
      <trkpt lat="50.85501" lon="2.43988">
        <ele>23.21</ele>
        <time>2021-08-07T07:28:43Z</time>
      </trkpt>
      <trkpt lat="50.85498" lon="2.43991">
        <ele>23.21</ele>
        <time>2021-08-07T07:28:44Z</time>
      </trkpt>
      <trkpt lat="50.85494" lon="2.43992">
        <ele>23.21</ele>
        <time>2021-08-07T07:28:45Z</time>
      </trkpt>
      <trkpt lat="50.8549" lon="2.43988">
        <ele>23.21</ele>
        <time>2021-08-07T07:28:46Z</time>
      </trkpt>
      <trkpt lat="50.85487" lon="2.43983">
        <ele>23.21</ele>
        <time>2021-08-07T07:28:47Z</time>
      </trkpt>
      <trkpt lat="50.85485" lon="2.43977">
        <ele>23.21</ele>
        <time>2021-08-07T07:28:48Z</time>
      </trkpt>
      <trkpt lat="50.85482" lon="2.43969">
        <ele>23.21</ele>
        <time>2021-08-07T07:28:49Z</time>
      </trkpt>
      <trkpt lat="50.8547" lon="2.43931">
        <ele>23.21</ele>
        <time>2021-08-07T07:28:54Z</time>
      </trkpt>
      <trkpt lat="50.85467" lon="2.43924">
        <ele>22.73</ele>
        <time>2021-08-07T07:28:55Z</time>
      </trkpt>
      <trkpt lat="50.85464" lon="2.43917">
        <ele>22.73</ele>
        <time>2021-08-07T07:28:56Z</time>
      </trkpt>
      <trkpt lat="50.8546" lon="2.43911">
        <ele>22.73</ele>
        <time>2021-08-07T07:28:57Z</time>
      </trkpt>
      <trkpt lat="50.85456" lon="2.43905">
        <ele>22.73</ele>
        <time>2021-08-07T07:28:58Z</time>
      </trkpt>
      <trkpt lat="50.85453" lon="2.43899">
        <ele>22.73</ele>
        <time>2021-08-07T07:28:59Z</time>
      </trkpt>
      <trkpt lat="50.85449" lon="2.43896">
        <ele>22.73</ele>
        <time>2021-08-07T07:29:00Z</time>
      </trkpt>
      <trkpt lat="50.85444" lon="2.43898">
        <ele>22.73</ele>
        <time>2021-08-07T07:29:01Z</time>
      </trkpt>
      <trkpt lat="50.85439" lon="2.43901">
        <ele>22.73</ele>
        <time>2021-08-07T07:29:02Z</time>
      </trkpt>
      <trkpt lat="50.85434" lon="2.43906">
        <ele>22.73</ele>
        <time>2021-08-07T07:29:03Z</time>
      </trkpt>
      <trkpt lat="50.8543" lon="2.43911">
        <ele>22.73</ele>
        <time>2021-08-07T07:29:04Z</time>
      </trkpt>
      <trkpt lat="50.85425" lon="2.43916">
        <ele>23.21</ele>
        <time>2021-08-07T07:29:05Z</time>
      </trkpt>
      <trkpt lat="50.8539" lon="2.43955">
        <ele>23.21</ele>
        <time>2021-08-07T07:29:13Z</time>
      </trkpt>
      <trkpt lat="50.85362" lon="2.43974">
        <ele>22.25</ele>
        <time>2021-08-07T07:29:19Z</time>
      </trkpt>
      <trkpt lat="50.85357" lon="2.43976">
        <ele>22.25</ele>
        <time>2021-08-07T07:29:20Z</time>
      </trkpt>
      <trkpt lat="50.85317" lon="2.43981">
        <ele>23.69</ele>
        <time>2021-08-07T07:29:28Z</time>
      </trkpt>
      <trkpt lat="50.85269" lon="2.43982">
        <ele>21.77</ele>
        <time>2021-08-07T07:29:37Z</time>
      </trkpt>
      <trkpt lat="50.85215" lon="2.43985">
        <ele>21.29</ele>
        <time>2021-08-07T07:29:46Z</time>
      </trkpt>
      <trkpt lat="50.85172" lon="2.43982">
        <ele>20.81</ele>
        <time>2021-08-07T07:29:53Z</time>
      </trkpt>
      <trkpt lat="50.85166" lon="2.43979">
        <ele>20.81</ele>
        <time>2021-08-07T07:29:54Z</time>
      </trkpt>
      <trkpt lat="50.8516" lon="2.43976">
        <ele>20.81</ele>
        <time>2021-08-07T07:29:55Z</time>
      </trkpt>
      <trkpt lat="50.85149" lon="2.43967">
        <ele>20.81</ele>
        <time>2021-08-07T07:29:57Z</time>
      </trkpt>
      <trkpt lat="50.8513" lon="2.43942">
        <ele>22.25</ele>
        <time>2021-08-07T07:30:01Z</time>
      </trkpt>
      <trkpt lat="50.85101" lon="2.43913">
        <ele>22.73</ele>
        <time>2021-08-07T07:30:07Z</time>
      </trkpt>
      <trkpt lat="50.85058" lon="2.43893">
        <ele>23.21</ele>
        <time>2021-08-07T07:30:15Z</time>
      </trkpt>
      <trkpt lat="50.85053" lon="2.43892">
        <ele>23.21</ele>
        <time>2021-08-07T07:30:16Z</time>
      </trkpt>
      <trkpt lat="50.85036" lon="2.4389">
        <ele>23.21</ele>
        <time>2021-08-07T07:30:19Z</time>
      </trkpt>
      <trkpt lat="50.85031" lon="2.43887">
        <ele>23.21</ele>
        <time>2021-08-07T07:30:20Z</time>
      </trkpt>
      <trkpt lat="50.85026" lon="2.43882">
        <ele>23.21</ele>
        <time>2021-08-07T07:30:21Z</time>
      </trkpt>
      <trkpt lat="50.85021" lon="2.43877">
        <ele>23.21</ele>
        <time>2021-08-07T07:30:22Z</time>
      </trkpt>
      <trkpt lat="50.85017" lon="2.4387">
        <ele>23.21</ele>
        <time>2021-08-07T07:30:23Z</time>
      </trkpt>
      <trkpt lat="50.85013" lon="2.43863">
        <ele>23.21</ele>
        <time>2021-08-07T07:30:24Z</time>
      </trkpt>
      <trkpt lat="50.8501" lon="2.43855">
        <ele>23.21</ele>
        <time>2021-08-07T07:30:25Z</time>
      </trkpt>
      <trkpt lat="50.85006" lon="2.43847">
        <ele>23.21</ele>
        <time>2021-08-07T07:30:26Z</time>
      </trkpt>
      <trkpt lat="50.8497" lon="2.4376">
        <ele>21.29</ele>
        <time>2021-08-07T07:30:37Z</time>
      </trkpt>
      <trkpt lat="50.84941" lon="2.43677">
        <ele>21.29</ele>
        <time>2021-08-07T07:30:47Z</time>
      </trkpt>
      <trkpt lat="50.84936" lon="2.43661">
        <ele>21.29</ele>
        <time>2021-08-07T07:30:49Z</time>
      </trkpt>
      <trkpt lat="50.84913" lon="2.43581">
        <ele>20.81</ele>
        <time>2021-08-07T07:30:58Z</time>
      </trkpt>
      <trkpt lat="50.84895" lon="2.43532">
        <ele>20.81</ele>
        <time>2021-08-07T07:31:04Z</time>
      </trkpt>
      <trkpt lat="50.8486" lon="2.43482">
        <ele>20.32</ele>
        <time>2021-08-07T07:31:12Z</time>
      </trkpt>
      <trkpt lat="50.84856" lon="2.43474">
        <ele>20.32</ele>
        <time>2021-08-07T07:31:13Z</time>
      </trkpt>
      <trkpt lat="50.84853" lon="2.43466">
        <ele>20.32</ele>
        <time>2021-08-07T07:31:14Z</time>
      </trkpt>
      <trkpt lat="50.84834" lon="2.43401">
        <ele>21.77</ele>
        <time>2021-08-07T07:31:22Z</time>
      </trkpt>
      <trkpt lat="50.8483" lon="2.43386">
        <ele>21.77</ele>
        <time>2021-08-07T07:31:24Z</time>
      </trkpt>
      <trkpt lat="50.84827" lon="2.43377">
        <ele>21.77</ele>
        <time>2021-08-07T07:31:26Z</time>
      </trkpt>
      <trkpt lat="50.84823" lon="2.43375">
        <ele>21.77</ele>
        <time>2021-08-07T07:31:27Z</time>
      </trkpt>
      <trkpt lat="50.84819" lon="2.43375">
        <ele>21.77</ele>
        <time>2021-08-07T07:31:28Z</time>
      </trkpt>
      <trkpt lat="50.84815" lon="2.43376">
        <ele>21.77</ele>
        <time>2021-08-07T07:31:29Z</time>
      </trkpt>
      <trkpt lat="50.8481" lon="2.43378">
        <ele>21.77</ele>
        <time>2021-08-07T07:31:30Z</time>
      </trkpt>
      <trkpt lat="50.84805" lon="2.43382">
        <ele>21.77</ele>
        <time>2021-08-07T07:31:31Z</time>
      </trkpt>
      <trkpt lat="50.84757" lon="2.43414">
        <ele>21.77</ele>
        <time>2021-08-07T07:31:41Z</time>
      </trkpt>
      <trkpt lat="50.84705" lon="2.43446">
        <ele>21.77</ele>
        <time>2021-08-07T07:31:52Z</time>
      </trkpt>
      <trkpt lat="50.84649" lon="2.43483">
        <ele>23.21</ele>
        <time>2021-08-07T07:32:04Z</time>
      </trkpt>
      <trkpt lat="50.84614" lon="2.43504">
        <ele>21.77</ele>
        <time>2021-08-07T07:32:11Z</time>
      </trkpt>
      <trkpt lat="50.84542" lon="2.4355">
        <ele>19.84</ele>
        <time>2021-08-07T07:32:25Z</time>
      </trkpt>
      <trkpt lat="50.84526" lon="2.43559">
        <ele>21.29</ele>
        <time>2021-08-07T07:32:28Z</time>
      </trkpt>
      <trkpt lat="50.84458" lon="2.43602">
        <ele>21.77</ele>
        <time>2021-08-07T07:32:42Z</time>
      </trkpt>
      <trkpt lat="50.84399" lon="2.43638">
        <ele>21.77</ele>
        <time>2021-08-07T07:32:53Z</time>
      </trkpt>
      <trkpt lat="50.84376" lon="2.4365">
        <ele>20.32</ele>
        <time>2021-08-07T07:32:57Z</time>
      </trkpt>
      <trkpt lat="50.84326" lon="2.43677">
        <ele>19.36</ele>
        <time>2021-08-07T07:33:06Z</time>
      </trkpt>
      <trkpt lat="50.84276" lon="2.4371">
        <ele>18.88</ele>
        <time>2021-08-07T07:33:16Z</time>
      </trkpt>
      <trkpt lat="50.84222" lon="2.43751">
        <ele>19.84</ele>
        <time>2021-08-07T07:33:28Z</time>
      </trkpt>
      <trkpt lat="50.84218" lon="2.43754">
        <ele>19.84</ele>
        <time>2021-08-07T07:33:29Z</time>
      </trkpt>
      <trkpt lat="50.84213" lon="2.43758">
        <ele>19.84</ele>
        <time>2021-08-07T07:33:30Z</time>
      </trkpt>
      <trkpt lat="50.84166" lon="2.43792">
        <ele>21.29</ele>
        <time>2021-08-07T07:33:41Z</time>
      </trkpt>
      <trkpt lat="50.84119" lon="2.43826">
        <ele>21.77</ele>
        <time>2021-08-07T07:33:52Z</time>
      </trkpt>
      <trkpt lat="50.8407" lon="2.43861">
        <ele>22.73</ele>
        <time>2021-08-07T07:34:04Z</time>
      </trkpt>
      <trkpt lat="50.84028" lon="2.43888">
        <ele>23.69</ele>
        <time>2021-08-07T07:34:14Z</time>
      </trkpt>
      <trkpt lat="50.84025" lon="2.4389">
        <ele>23.69</ele>
        <time>2021-08-07T07:34:15Z</time>
      </trkpt>
      <trkpt lat="50.83985" lon="2.43918">
        <ele>25.13</ele>
        <time>2021-08-07T07:34:25Z</time>
      </trkpt>
      <trkpt lat="50.83945" lon="2.43945">
        <ele>26.09</ele>
        <time>2021-08-07T07:34:36Z</time>
      </trkpt>
      <trkpt lat="50.83904" lon="2.43972">
        <ele>26.57</ele>
        <time>2021-08-07T07:34:47Z</time>
      </trkpt>
      <trkpt lat="50.83873" lon="2.43994">
        <ele>27.05</ele>
        <time>2021-08-07T07:34:55Z</time>
      </trkpt>
      <trkpt lat="50.83837" lon="2.44017">
        <ele>28.5</ele>
        <time>2021-08-07T07:35:04Z</time>
      </trkpt>
      <trkpt lat="50.83833" lon="2.4402">
        <ele>28.5</ele>
        <time>2021-08-07T07:35:05Z</time>
      </trkpt>
      <trkpt lat="50.8379" lon="2.44048">
        <ele>29.94</ele>
        <time>2021-08-07T07:35:16Z</time>
      </trkpt>
      <trkpt lat="50.83771" lon="2.44062">
        <ele>29.94</ele>
        <time>2021-08-07T07:35:21Z</time>
      </trkpt>
      <trkpt lat="50.83739" lon="2.44083">
        <ele>30.9</ele>
        <time>2021-08-07T07:35:30Z</time>
      </trkpt>
      <trkpt lat="50.83702" lon="2.44107">
        <ele>31.38</ele>
        <time>2021-08-07T07:35:40Z</time>
      </trkpt>
      <trkpt lat="50.8366" lon="2.44136">
        <ele>32.82</ele>
        <time>2021-08-07T07:35:51Z</time>
      </trkpt>
      <trkpt lat="50.83613" lon="2.44166">
        <ele>34.26</ele>
        <time>2021-08-07T07:36:04Z</time>
      </trkpt>
      <trkpt lat="50.83585" lon="2.44185">
        <ele>34.74</ele>
        <time>2021-08-07T07:36:12Z</time>
      </trkpt>
      <trkpt lat="50.83553" lon="2.44206">
        <ele>35.23</ele>
        <time>2021-08-07T07:36:21Z</time>
      </trkpt>
      <trkpt lat="50.83523" lon="2.44225">
        <ele>37.15</ele>
        <time>2021-08-07T07:36:30Z</time>
      </trkpt>
      <trkpt lat="50.83479" lon="2.44254">
        <ele>39.07</ele>
        <time>2021-08-07T07:36:43Z</time>
      </trkpt>
      <trkpt lat="50.83442" lon="2.44279">
        <ele>40.51</ele>
        <time>2021-08-07T07:36:54Z</time>
      </trkpt>
      <trkpt lat="50.83424" lon="2.44287">
        <ele>41.47</ele>
        <time>2021-08-07T07:36:59Z</time>
      </trkpt>
      <trkpt lat="50.83421" lon="2.44284">
        <ele>41.47</ele>
        <time>2021-08-07T07:37:00Z</time>
      </trkpt>
      <trkpt lat="50.83418" lon="2.4428">
        <ele>42.44</ele>
        <time>2021-08-07T07:37:01Z</time>
      </trkpt>
      <trkpt lat="50.83398" lon="2.44256">
        <ele>41.95</ele>
        <time>2021-08-07T07:37:08Z</time>
      </trkpt>
      <trkpt lat="50.8338" lon="2.4424">
        <ele>42.44</ele>
        <time>2021-08-07T07:37:15Z</time>
      </trkpt>
      <trkpt lat="50.83362" lon="2.44231">
        <ele>42.44</ele>
        <time>2021-08-07T07:37:20Z</time>
      </trkpt>
      <trkpt lat="50.83317" lon="2.44209">
        <ele>43.4</ele>
        <time>2021-08-07T07:37:33Z</time>
      </trkpt>
      <trkpt lat="50.83284" lon="2.44193">
        <ele>44.84</ele>
        <time>2021-08-07T07:37:42Z</time>
      </trkpt>
      <trkpt lat="50.83265" lon="2.44185">
        <ele>44.84</ele>
        <time>2021-08-07T07:37:47Z</time>
      </trkpt>
      <trkpt lat="50.83261" lon="2.44183">
        <ele>44.84</ele>
        <time>2021-08-07T07:37:48Z</time>
      </trkpt>
      <trkpt lat="50.83221" lon="2.44165">
        <ele>45.32</ele>
        <time>2021-08-07T07:37:58Z</time>
      </trkpt>
      <trkpt lat="50.83188" lon="2.4415">
        <ele>44.36</ele>
        <time>2021-08-07T07:38:06Z</time>
      </trkpt>
      <trkpt lat="50.83146" lon="2.44128">
        <ele>44.36</ele>
        <time>2021-08-07T07:38:16Z</time>
      </trkpt>
      <trkpt lat="50.83096" lon="2.44104">
        <ele>45.32</ele>
        <time>2021-08-07T07:38:28Z</time>
      </trkpt>
      <trkpt lat="50.83092" lon="2.44101">
        <ele>45.32</ele>
        <time>2021-08-07T07:38:29Z</time>
      </trkpt>
      <trkpt lat="50.83063" lon="2.44084">
        <ele>46.28</ele>
        <time>2021-08-07T07:38:36Z</time>
      </trkpt>
      <trkpt lat="50.83026" lon="2.44075">
        <ele>46.76</ele>
        <time>2021-08-07T07:38:45Z</time>
      </trkpt>
      <trkpt lat="50.82996" lon="2.44072">
        <ele>47.24</ele>
        <time>2021-08-07T07:38:53Z</time>
      </trkpt>
      <trkpt lat="50.82975" lon="2.4407">
        <ele>48.2</ele>
        <time>2021-08-07T07:38:59Z</time>
      </trkpt>
      <trkpt lat="50.82942" lon="2.44071">
        <ele>49.16</ele>
        <time>2021-08-07T07:39:09Z</time>
      </trkpt>
      <trkpt lat="50.8292" lon="2.44072">
        <ele>50.13</ele>
        <time>2021-08-07T07:39:16Z</time>
      </trkpt>
      <trkpt lat="50.82891" lon="2.44071">
        <ele>51.09</ele>
        <time>2021-08-07T07:39:25Z</time>
      </trkpt>
      <trkpt lat="50.82855" lon="2.44068">
        <ele>52.05</ele>
        <time>2021-08-07T07:39:35Z</time>
      </trkpt>
      <trkpt lat="50.82814" lon="2.44059">
        <ele>51.57</ele>
        <time>2021-08-07T07:39:46Z</time>
      </trkpt>
      <trkpt lat="50.82783" lon="2.44052">
        <ele>51.57</ele>
        <time>2021-08-07T07:39:54Z</time>
      </trkpt>
      <trkpt lat="50.82739" lon="2.44035">
        <ele>52.05</ele>
        <time>2021-08-07T07:40:05Z</time>
      </trkpt>
      <trkpt lat="50.82704" lon="2.44016">
        <ele>52.05</ele>
        <time>2021-08-07T07:40:14Z</time>
      </trkpt>
      <trkpt lat="50.82656" lon="2.43991">
        <ele>52.05</ele>
        <time>2021-08-07T07:40:26Z</time>
      </trkpt>
      <trkpt lat="50.82653" lon="2.43989">
        <ele>52.05</ele>
        <time>2021-08-07T07:40:27Z</time>
      </trkpt>
      <trkpt lat="50.82649" lon="2.43987">
        <ele>52.05</ele>
        <time>2021-08-07T07:40:28Z</time>
      </trkpt>
      <trkpt lat="50.82645" lon="2.43986">
        <ele>52.53</ele>
        <time>2021-08-07T07:40:29Z</time>
      </trkpt>
      <trkpt lat="50.82641" lon="2.43984">
        <ele>52.53</ele>
        <time>2021-08-07T07:40:30Z</time>
      </trkpt>
      <trkpt lat="50.82637" lon="2.43982">
        <ele>52.53</ele>
        <time>2021-08-07T07:40:31Z</time>
      </trkpt>
      <trkpt lat="50.82602" lon="2.43964">
        <ele>53.01</ele>
        <time>2021-08-07T07:40:40Z</time>
      </trkpt>
      <trkpt lat="50.82582" lon="2.43956">
        <ele>53.01</ele>
        <time>2021-08-07T07:40:45Z</time>
      </trkpt>
      <trkpt lat="50.82578" lon="2.43955">
        <ele>53.01</ele>
        <time>2021-08-07T07:40:46Z</time>
      </trkpt>
      <trkpt lat="50.82557" lon="2.43949">
        <ele>53.49</ele>
        <time>2021-08-07T07:40:51Z</time>
      </trkpt>
      <trkpt lat="50.82553" lon="2.43948">
        <ele>53.49</ele>
        <time>2021-08-07T07:40:52Z</time>
      </trkpt>
      <trkpt lat="50.82541" lon="2.43944">
        <ele>53.49</ele>
        <time>2021-08-07T07:40:55Z</time>
      </trkpt>
      <trkpt lat="50.82532" lon="2.43943">
        <ele>53.49</ele>
        <time>2021-08-07T07:40:57Z</time>
      </trkpt>
      <trkpt lat="50.82498" lon="2.43931">
        <ele>52.05</ele>
        <time>2021-08-07T07:41:05Z</time>
      </trkpt>
      <trkpt lat="50.8248" lon="2.43925">
        <ele>51.09</ele>
        <time>2021-08-07T07:41:09Z</time>
      </trkpt>
      <trkpt lat="50.82475" lon="2.43924">
        <ele>51.09</ele>
        <time>2021-08-07T07:41:10Z</time>
      </trkpt>
      <trkpt lat="50.82466" lon="2.43922">
        <ele>50.61</ele>
        <time>2021-08-07T07:41:12Z</time>
      </trkpt>
      <trkpt lat="50.82461" lon="2.43921">
        <ele>50.61</ele>
        <time>2021-08-07T07:41:13Z</time>
      </trkpt>
      <trkpt lat="50.82456" lon="2.43921">
        <ele>50.61</ele>
        <time>2021-08-07T07:41:14Z</time>
      </trkpt>
      <trkpt lat="50.82429" lon="2.43914">
        <ele>50.13</ele>
        <time>2021-08-07T07:41:20Z</time>
      </trkpt>
      <trkpt lat="50.82424" lon="2.43914">
        <ele>50.61</ele>
        <time>2021-08-07T07:41:21Z</time>
      </trkpt>
      <trkpt lat="50.8239" lon="2.43912">
        <ele>49.16</ele>
        <time>2021-08-07T07:41:28Z</time>
      </trkpt>
      <trkpt lat="50.82375" lon="2.4391">
        <ele>50.61</ele>
        <time>2021-08-07T07:41:31Z</time>
      </trkpt>
      <trkpt lat="50.82337" lon="2.43896">
        <ele>50.61</ele>
        <time>2021-08-07T07:41:39Z</time>
      </trkpt>
      <trkpt lat="50.82301" lon="2.43865">
        <ele>50.61</ele>
        <time>2021-08-07T07:41:48Z</time>
      </trkpt>
      <trkpt lat="50.82284" lon="2.43851">
        <ele>50.61</ele>
        <time>2021-08-07T07:41:52Z</time>
      </trkpt>
      <trkpt lat="50.8228" lon="2.43848">
        <ele>50.61</ele>
        <time>2021-08-07T07:41:53Z</time>
      </trkpt>
      <trkpt lat="50.82276" lon="2.43846">
        <ele>50.61</ele>
        <time>2021-08-07T07:41:54Z</time>
      </trkpt>
      <trkpt lat="50.82245" lon="2.43835">
        <ele>51.57</ele>
        <time>2021-08-07T07:42:02Z</time>
      </trkpt>
      <trkpt lat="50.82198" lon="2.43811">
        <ele>52.05</ele>
        <time>2021-08-07T07:42:13Z</time>
      </trkpt>
      <trkpt lat="50.82154" lon="2.43789">
        <ele>52.05</ele>
        <time>2021-08-07T07:42:23Z</time>
      </trkpt>
      <trkpt lat="50.82109" lon="2.43774">
        <ele>53.01</ele>
        <time>2021-08-07T07:42:33Z</time>
      </trkpt>
      <trkpt lat="50.82061" lon="2.43772">
        <ele>54.45</ele>
        <time>2021-08-07T07:42:44Z</time>
      </trkpt>
      <trkpt lat="50.82045" lon="2.43774">
        <ele>54.93</ele>
        <time>2021-08-07T07:42:48Z</time>
      </trkpt>
      <trkpt lat="50.82041" lon="2.43775">
        <ele>54.93</ele>
        <time>2021-08-07T07:42:49Z</time>
      </trkpt>
      <trkpt lat="50.82037" lon="2.43775">
        <ele>55.41</ele>
        <time>2021-08-07T07:42:50Z</time>
      </trkpt>
      <trkpt lat="50.82033" lon="2.43775">
        <ele>55.41</ele>
        <time>2021-08-07T07:42:51Z</time>
      </trkpt>
      <trkpt lat="50.82029" lon="2.43775">
        <ele>55.41</ele>
        <time>2021-08-07T07:42:52Z</time>
      </trkpt>
      <trkpt lat="50.82025" lon="2.43776">
        <ele>55.41</ele>
        <time>2021-08-07T07:42:53Z</time>
      </trkpt>
      <trkpt lat="50.82021" lon="2.43777">
        <ele>55.41</ele>
        <time>2021-08-07T07:42:54Z</time>
      </trkpt>
      <trkpt lat="50.8199" lon="2.43782">
        <ele>56.37</ele>
        <time>2021-08-07T07:43:02Z</time>
      </trkpt>
      <trkpt lat="50.81949" lon="2.43784">
        <ele>57.82</ele>
        <time>2021-08-07T07:43:12Z</time>
      </trkpt>
      <trkpt lat="50.81911" lon="2.43781">
        <ele>59.74</ele>
        <time>2021-08-07T07:43:22Z</time>
      </trkpt>
      <trkpt lat="50.81865" lon="2.43778">
        <ele>60.22</ele>
        <time>2021-08-07T07:43:34Z</time>
      </trkpt>
      <trkpt lat="50.81846" lon="2.43784">
        <ele>60.22</ele>
        <time>2021-08-07T07:43:39Z</time>
      </trkpt>
      <trkpt lat="50.81834" lon="2.43786">
        <ele>61.66</ele>
        <time>2021-08-07T07:43:42Z</time>
      </trkpt>
      <trkpt lat="50.81801" lon="2.43786">
        <ele>62.14</ele>
        <time>2021-08-07T07:43:50Z</time>
      </trkpt>
      <trkpt lat="50.81784" lon="2.43785">
        <ele>62.62</ele>
        <time>2021-08-07T07:43:54Z</time>
      </trkpt>
      <trkpt lat="50.81776" lon="2.43787">
        <ele>62.62</ele>
        <time>2021-08-07T07:43:56Z</time>
      </trkpt>
      <trkpt lat="50.81772" lon="2.43786">
        <ele>62.62</ele>
        <time>2021-08-07T07:43:57Z</time>
      </trkpt>
      <trkpt lat="50.81729" lon="2.43774">
        <ele>63.58</ele>
        <time>2021-08-07T07:44:07Z</time>
      </trkpt>
      <trkpt lat="50.81688" lon="2.43761">
        <ele>64.07</ele>
        <time>2021-08-07T07:44:15Z</time>
      </trkpt>
      <trkpt lat="50.81635" lon="2.43743">
        <ele>63.58</ele>
        <time>2021-08-07T07:44:25Z</time>
      </trkpt>
      <trkpt lat="50.81588" lon="2.43738">
        <ele>62.62</ele>
        <time>2021-08-07T07:44:34Z</time>
      </trkpt>
      <trkpt lat="50.81544" lon="2.43738">
        <ele>61.18</ele>
        <time>2021-08-07T07:44:42Z</time>
      </trkpt>
      <trkpt lat="50.81493" lon="2.43732">
        <ele>59.26</ele>
        <time>2021-08-07T07:44:50Z</time>
      </trkpt>
      <trkpt lat="50.8144" lon="2.43706">
        <ele>57.82</ele>
        <time>2021-08-07T07:44:59Z</time>
      </trkpt>
      <trkpt lat="50.81383" lon="2.43677">
        <ele>57.34</ele>
        <time>2021-08-07T07:45:09Z</time>
      </trkpt>
      <trkpt lat="50.81332" lon="2.43656">
        <ele>56.86</ele>
        <time>2021-08-07T07:45:18Z</time>
      </trkpt>
      <trkpt lat="50.81275" lon="2.43625">
        <ele>55.41</ele>
        <time>2021-08-07T07:45:28Z</time>
      </trkpt>
      <trkpt lat="50.81219" lon="2.43581">
        <ele>54.45</ele>
        <time>2021-08-07T07:45:38Z</time>
      </trkpt>
      <trkpt lat="50.81166" lon="2.43543">
        <ele>52.05</ele>
        <time>2021-08-07T07:45:47Z</time>
      </trkpt>
      <trkpt lat="50.8114" lon="2.43535">
        <ele>51.57</ele>
        <time>2021-08-07T07:45:51Z</time>
      </trkpt>
      <trkpt lat="50.81134" lon="2.43536">
        <ele>51.57</ele>
        <time>2021-08-07T07:45:52Z</time>
      </trkpt>
      <trkpt lat="50.81126" lon="2.43538">
        <ele>50.61</ele>
        <time>2021-08-07T07:45:53Z</time>
      </trkpt>
      <trkpt lat="50.8112" lon="2.4354">
        <ele>50.61</ele>
        <time>2021-08-07T07:45:54Z</time>
      </trkpt>
      <trkpt lat="50.81114" lon="2.43544">
        <ele>49.65</ele>
        <time>2021-08-07T07:45:55Z</time>
      </trkpt>
      <trkpt lat="50.81107" lon="2.43549">
        <ele>49.16</ele>
        <time>2021-08-07T07:45:56Z</time>
      </trkpt>
      <trkpt lat="50.81101" lon="2.43554">
        <ele>49.16</ele>
        <time>2021-08-07T07:45:57Z</time>
      </trkpt>
      <trkpt lat="50.81094" lon="2.43559">
        <ele>48.68</ele>
        <time>2021-08-07T07:45:58Z</time>
      </trkpt>
      <trkpt lat="50.81074" lon="2.43572">
        <ele>47.72</ele>
        <time>2021-08-07T07:46:01Z</time>
      </trkpt>
      <trkpt lat="50.81068" lon="2.43575">
        <ele>47.72</ele>
        <time>2021-08-07T07:46:02Z</time>
      </trkpt>
      <trkpt lat="50.81054" lon="2.43579">
        <ele>47.24</ele>
        <time>2021-08-07T07:46:04Z</time>
      </trkpt>
      <trkpt lat="50.81047" lon="2.43579">
        <ele>47.24</ele>
        <time>2021-08-07T07:46:05Z</time>
      </trkpt>
      <trkpt lat="50.80985" lon="2.4357">
        <ele>45.8</ele>
        <time>2021-08-07T07:46:14Z</time>
      </trkpt>
      <trkpt lat="50.80919" lon="2.43547">
        <ele>43.4</ele>
        <time>2021-08-07T07:46:24Z</time>
      </trkpt>
      <trkpt lat="50.80878" lon="2.43546">
        <ele>41.95</ele>
        <time>2021-08-07T07:46:30Z</time>
      </trkpt>
      <trkpt lat="50.80872" lon="2.43549">
        <ele>41.95</ele>
        <time>2021-08-07T07:46:31Z</time>
      </trkpt>
      <trkpt lat="50.80813" lon="2.43577">
        <ele>40.03</ele>
        <time>2021-08-07T07:46:40Z</time>
      </trkpt>
      <trkpt lat="50.80764" lon="2.43597">
        <ele>39.07</ele>
        <time>2021-08-07T07:46:48Z</time>
      </trkpt>
      <trkpt lat="50.80721" lon="2.43616">
        <ele>38.59</ele>
        <time>2021-08-07T07:46:56Z</time>
      </trkpt>
      <trkpt lat="50.80715" lon="2.43622">
        <ele>38.59</ele>
        <time>2021-08-07T07:46:59Z</time>
      </trkpt>
      <trkpt lat="50.80714" lon="2.43627">
        <ele>38.59</ele>
        <time>2021-08-07T07:47:00Z</time>
      </trkpt>
      <trkpt lat="50.80713" lon="2.43633">
        <ele>38.59</ele>
        <time>2021-08-07T07:47:01Z</time>
      </trkpt>
      <trkpt lat="50.80707" lon="2.43683">
        <ele>38.59</ele>
        <time>2021-08-07T07:47:07Z</time>
      </trkpt>
      <trkpt lat="50.80696" lon="2.43782">
        <ele>37.15</ele>
        <time>2021-08-07T07:47:17Z</time>
      </trkpt>
      <trkpt lat="50.80683" lon="2.43878">
        <ele>37.15</ele>
        <time>2021-08-07T07:47:27Z</time>
      </trkpt>
      <trkpt lat="50.80669" lon="2.43953">
        <ele>38.11</ele>
        <time>2021-08-07T07:47:36Z</time>
      </trkpt>
      <trkpt lat="50.80667" lon="2.43966">
        <ele>38.11</ele>
        <time>2021-08-07T07:47:38Z</time>
      </trkpt>
      <trkpt lat="50.80666" lon="2.43972">
        <ele>38.11</ele>
        <time>2021-08-07T07:47:39Z</time>
      </trkpt>
      <trkpt lat="50.80665" lon="2.43977">
        <ele>38.11</ele>
        <time>2021-08-07T07:47:40Z</time>
      </trkpt>
      <trkpt lat="50.80663" lon="2.43982">
        <ele>38.11</ele>
        <time>2021-08-07T07:47:41Z</time>
      </trkpt>
      <trkpt lat="50.80662" lon="2.43984">
        <ele>38.11</ele>
        <time>2021-08-07T07:47:42Z</time>
      </trkpt>
      <trkpt lat="50.8066" lon="2.43986">
        <ele>38.11</ele>
        <time>2021-08-07T07:47:43Z</time>
      </trkpt>
      <trkpt lat="50.80657" lon="2.43988">
        <ele>38.11</ele>
        <time>2021-08-07T07:47:44Z</time>
      </trkpt>
      <trkpt lat="50.80655" lon="2.43988">
        <ele>38.11</ele>
        <time>2021-08-07T07:47:45Z</time>
      </trkpt>
      <trkpt lat="50.80652" lon="2.43987">
        <ele>38.11</ele>
        <time>2021-08-07T07:47:46Z</time>
      </trkpt>
      <trkpt lat="50.80648" lon="2.43985">
        <ele>38.11</ele>
        <time>2021-08-07T07:47:47Z</time>
      </trkpt>
      <trkpt lat="50.8062" lon="2.4397">
        <ele>36.67</ele>
        <time>2021-08-07T07:47:53Z</time>
      </trkpt>
      <trkpt lat="50.80576" lon="2.43944">
        <ele>35.23</ele>
        <time>2021-08-07T07:48:01Z</time>
      </trkpt>
      <trkpt lat="50.8053" lon="2.43907">
        <ele>33.78</ele>
        <time>2021-08-07T07:48:10Z</time>
      </trkpt>
      <trkpt lat="50.80479" lon="2.43853">
        <ele>33.78</ele>
        <time>2021-08-07T07:48:21Z</time>
      </trkpt>
      <trkpt lat="50.8047" lon="2.43843">
        <ele>35.23</ele>
        <time>2021-08-07T07:48:23Z</time>
      </trkpt>
      <trkpt lat="50.80425" lon="2.43797">
        <ele>34.74</ele>
        <time>2021-08-07T07:48:33Z</time>
      </trkpt>
      <trkpt lat="50.80395" lon="2.43767">
        <ele>35.23</ele>
        <time>2021-08-07T07:48:40Z</time>
      </trkpt>
      <trkpt lat="50.80391" lon="2.43763">
        <ele>35.23</ele>
        <time>2021-08-07T07:48:41Z</time>
      </trkpt>
      <trkpt lat="50.80354" lon="2.43725">
        <ele>36.19</ele>
        <time>2021-08-07T07:48:50Z</time>
      </trkpt>
      <trkpt lat="50.80318" lon="2.43687">
        <ele>36.67</ele>
        <time>2021-08-07T07:48:59Z</time>
      </trkpt>
      <trkpt lat="50.80283" lon="2.43649">
        <ele>36.67</ele>
        <time>2021-08-07T07:49:08Z</time>
      </trkpt>
      <trkpt lat="50.80237" lon="2.43601">
        <ele>36.67</ele>
        <time>2021-08-07T07:49:19Z</time>
      </trkpt>
      <trkpt lat="50.80192" lon="2.43564">
        <ele>36.67</ele>
        <time>2021-08-07T07:49:29Z</time>
      </trkpt>
      <trkpt lat="50.80138" lon="2.43526">
        <ele>37.15</ele>
        <time>2021-08-07T07:49:40Z</time>
      </trkpt>
      <trkpt lat="50.80071" lon="2.43482">
        <ele>36.19</ele>
        <time>2021-08-07T07:49:53Z</time>
      </trkpt>
      <trkpt lat="50.80016" lon="2.43458">
        <ele>36.19</ele>
        <time>2021-08-07T07:50:03Z</time>
      </trkpt>
      <trkpt lat="50.79966" lon="2.43453">
        <ele>35.23</ele>
        <time>2021-08-07T07:50:11Z</time>
      </trkpt>
      <trkpt lat="50.79915" lon="2.43468">
        <ele>34.26</ele>
        <time>2021-08-07T07:50:18Z</time>
      </trkpt>
      <trkpt lat="50.79846" lon="2.43506">
        <ele>30.9</ele>
        <time>2021-08-07T07:50:27Z</time>
      </trkpt>
      <trkpt lat="50.79779" lon="2.43529">
        <ele>29.46</ele>
        <time>2021-08-07T07:50:35Z</time>
      </trkpt>
      <trkpt lat="50.79725" lon="2.43523">
        <ele>29.46</ele>
        <time>2021-08-07T07:50:42Z</time>
      </trkpt>
      <trkpt lat="50.79669" lon="2.43494">
        <ele>29.46</ele>
        <time>2021-08-07T07:50:50Z</time>
      </trkpt>
      <trkpt lat="50.79617" lon="2.43454">
        <ele>29.46</ele>
        <time>2021-08-07T07:50:58Z</time>
      </trkpt>
      <trkpt lat="50.79594" lon="2.43433">
        <ele>28.5</ele>
        <time>2021-08-07T07:51:02Z</time>
      </trkpt>
      <trkpt lat="50.79589" lon="2.4343">
        <ele>28.5</ele>
        <time>2021-08-07T07:51:03Z</time>
      </trkpt>
      <trkpt lat="50.79585" lon="2.4343">
        <ele>28.5</ele>
        <time>2021-08-07T07:51:04Z</time>
      </trkpt>
      <trkpt lat="50.79581" lon="2.43432">
        <ele>28.5</ele>
        <time>2021-08-07T07:51:05Z</time>
      </trkpt>
      <trkpt lat="50.79577" lon="2.43436">
        <ele>28.5</ele>
        <time>2021-08-07T07:51:06Z</time>
      </trkpt>
      <trkpt lat="50.79575" lon="2.43442">
        <ele>29.94</ele>
        <time>2021-08-07T07:51:07Z</time>
      </trkpt>
      <trkpt lat="50.79573" lon="2.43448">
        <ele>30.42</ele>
        <time>2021-08-07T07:51:08Z</time>
      </trkpt>
      <trkpt lat="50.79571" lon="2.43455">
        <ele>30.42</ele>
        <time>2021-08-07T07:51:09Z</time>
      </trkpt>
      <trkpt lat="50.7957" lon="2.43463">
        <ele>30.42</ele>
        <time>2021-08-07T07:51:10Z</time>
      </trkpt>
      <trkpt lat="50.79555" lon="2.43531">
        <ele>30.9</ele>
        <time>2021-08-07T07:51:19Z</time>
      </trkpt>
      <trkpt lat="50.7955" lon="2.43553">
        <ele>30.9</ele>
        <time>2021-08-07T07:51:22Z</time>
      </trkpt>
      <trkpt lat="50.79522" lon="2.43639">
        <ele>32.34</ele>
        <time>2021-08-07T07:51:34Z</time>
      </trkpt>
      <trkpt lat="50.79494" lon="2.43725">
        <ele>33.78</ele>
        <time>2021-08-07T07:51:46Z</time>
      </trkpt>
      <trkpt lat="50.79467" lon="2.43811">
        <ele>33.3</ele>
        <time>2021-08-07T07:51:57Z</time>
      </trkpt>
      <trkpt lat="50.79438" lon="2.43902">
        <ele>34.26</ele>
        <time>2021-08-07T07:52:09Z</time>
      </trkpt>
      <trkpt lat="50.79414" lon="2.43978">
        <ele>34.74</ele>
        <time>2021-08-07T07:52:19Z</time>
      </trkpt>
      <trkpt lat="50.79386" lon="2.44063">
        <ele>36.19</ele>
        <time>2021-08-07T07:52:30Z</time>
      </trkpt>
      <trkpt lat="50.79363" lon="2.44103">
        <ele>37.15</ele>
        <time>2021-08-07T07:52:36Z</time>
      </trkpt>
      <trkpt lat="50.79323" lon="2.44152">
        <ele>37.63</ele>
        <time>2021-08-07T07:52:45Z</time>
      </trkpt>
      <trkpt lat="50.79294" lon="2.44204">
        <ele>37.63</ele>
        <time>2021-08-07T07:52:53Z</time>
      </trkpt>
      <trkpt lat="50.79276" lon="2.44267">
        <ele>38.59</ele>
        <time>2021-08-07T07:53:01Z</time>
      </trkpt>
      <trkpt lat="50.79267" lon="2.44347">
        <ele>39.55</ele>
        <time>2021-08-07T07:53:11Z</time>
      </trkpt>
      <trkpt lat="50.79261" lon="2.44407">
        <ele>41.95</ele>
        <time>2021-08-07T07:53:19Z</time>
      </trkpt>
      <trkpt lat="50.79247" lon="2.44466">
        <ele>42.92</ele>
        <time>2021-08-07T07:53:28Z</time>
      </trkpt>
      <trkpt lat="50.79241" lon="2.44494">
        <ele>44.84</ele>
        <time>2021-08-07T07:53:33Z</time>
      </trkpt>
      <trkpt lat="50.79243" lon="2.44498">
        <ele>44.84</ele>
        <time>2021-08-07T07:53:34Z</time>
      </trkpt>
      <trkpt lat="50.79247" lon="2.44501">
        <ele>44.84</ele>
        <time>2021-08-07T07:53:35Z</time>
      </trkpt>
      <trkpt lat="50.7925" lon="2.44504">
        <ele>44.84</ele>
        <time>2021-08-07T07:53:36Z</time>
      </trkpt>
      <trkpt lat="50.79254" lon="2.44507">
        <ele>44.84</ele>
        <time>2021-08-07T07:53:37Z</time>
      </trkpt>
      <trkpt lat="50.79257" lon="2.4451">
        <ele>44.84</ele>
        <time>2021-08-07T07:53:38Z</time>
      </trkpt>
      <trkpt lat="50.79261" lon="2.44514">
        <ele>44.84</ele>
        <time>2021-08-07T07:53:39Z</time>
      </trkpt>
      <trkpt lat="50.79264" lon="2.4452">
        <ele>44.84</ele>
        <time>2021-08-07T07:53:40Z</time>
      </trkpt>
      <trkpt lat="50.79266" lon="2.44527">
        <ele>44.84</ele>
        <time>2021-08-07T07:53:41Z</time>
      </trkpt>
      <trkpt lat="50.79265" lon="2.44536">
        <ele>44.84</ele>
        <time>2021-08-07T07:53:42Z</time>
      </trkpt>
      <trkpt lat="50.79264" lon="2.44543">
        <ele>43.4</ele>
        <time>2021-08-07T07:53:43Z</time>
      </trkpt>
      <trkpt lat="50.79261" lon="2.44551">
        <ele>43.4</ele>
        <time>2021-08-07T07:53:44Z</time>
      </trkpt>
      <trkpt lat="50.79259" lon="2.4456">
        <ele>43.4</ele>
        <time>2021-08-07T07:53:45Z</time>
      </trkpt>
      <trkpt lat="50.79257" lon="2.44568">
        <ele>43.4</ele>
        <time>2021-08-07T07:53:46Z</time>
      </trkpt>
      <trkpt lat="50.79237" lon="2.44628">
        <ele>42.92</ele>
        <time>2021-08-07T07:53:53Z</time>
      </trkpt>
      <trkpt lat="50.79213" lon="2.44696">
        <ele>43.4</ele>
        <time>2021-08-07T07:54:01Z</time>
      </trkpt>
      <trkpt lat="50.79203" lon="2.4472">
        <ele>43.4</ele>
        <time>2021-08-07T07:54:04Z</time>
      </trkpt>
      <trkpt lat="50.792" lon="2.44728">
        <ele>43.4</ele>
        <time>2021-08-07T07:54:05Z</time>
      </trkpt>
      <trkpt lat="50.79173" lon="2.44806">
        <ele>41.95</ele>
        <time>2021-08-07T07:54:14Z</time>
      </trkpt>
      <trkpt lat="50.79144" lon="2.44887">
        <ele>42.92</ele>
        <time>2021-08-07T07:54:23Z</time>
      </trkpt>
      <trkpt lat="50.7911" lon="2.44979">
        <ele>41.95</ele>
        <time>2021-08-07T07:54:33Z</time>
      </trkpt>
      <trkpt lat="50.79082" lon="2.45055">
        <ele>40.03</ele>
        <time>2021-08-07T07:54:41Z</time>
      </trkpt>
      <trkpt lat="50.79049" lon="2.45152">
        <ele>39.55</ele>
        <time>2021-08-07T07:54:51Z</time>
      </trkpt>
      <trkpt lat="50.79017" lon="2.45255">
        <ele>38.59</ele>
        <time>2021-08-07T07:55:01Z</time>
      </trkpt>
      <trkpt lat="50.78989" lon="2.45355">
        <ele>36.67</ele>
        <time>2021-08-07T07:55:10Z</time>
      </trkpt>
      <trkpt lat="50.78968" lon="2.45429">
        <ele>36.19</ele>
        <time>2021-08-07T07:55:17Z</time>
      </trkpt>
      <trkpt lat="50.78936" lon="2.45518">
        <ele>37.63</ele>
        <time>2021-08-07T07:55:27Z</time>
      </trkpt>
      <trkpt lat="50.78916" lon="2.45577">
        <ele>39.07</ele>
        <time>2021-08-07T07:55:35Z</time>
      </trkpt>
      <trkpt lat="50.78905" lon="2.456">
        <ele>40.03</ele>
        <time>2021-08-07T07:55:40Z</time>
      </trkpt>
      <trkpt lat="50.78902" lon="2.456">
        <ele>40.51</ele>
        <time>2021-08-07T07:55:41Z</time>
      </trkpt>
      <trkpt lat="50.78899" lon="2.45598">
        <ele>40.51</ele>
        <time>2021-08-07T07:55:42Z</time>
      </trkpt>
      <trkpt lat="50.78896" lon="2.45596">
        <ele>40.51</ele>
        <time>2021-08-07T07:55:43Z</time>
      </trkpt>
      <trkpt lat="50.78893" lon="2.45594">
        <ele>40.51</ele>
        <time>2021-08-07T07:55:44Z</time>
      </trkpt>
      <trkpt lat="50.78868" lon="2.45578">
        <ele>40.51</ele>
        <time>2021-08-07T07:55:51Z</time>
      </trkpt>
      <trkpt lat="50.78863" lon="2.45577">
        <ele>39.07</ele>
        <time>2021-08-07T07:55:52Z</time>
      </trkpt>
      <trkpt lat="50.78859" lon="2.45581">
        <ele>39.07</ele>
        <time>2021-08-07T07:55:53Z</time>
      </trkpt>
      <trkpt lat="50.78856" lon="2.45586">
        <ele>39.07</ele>
        <time>2021-08-07T07:55:54Z</time>
      </trkpt>
      <trkpt lat="50.78837" lon="2.45642">
        <ele>38.59</ele>
        <time>2021-08-07T07:56:03Z</time>
      </trkpt>
      <trkpt lat="50.78824" lon="2.45684">
        <ele>40.03</ele>
        <time>2021-08-07T07:56:10Z</time>
      </trkpt>
      <trkpt lat="50.78814" lon="2.45715">
        <ele>40.51</ele>
        <time>2021-08-07T07:56:15Z</time>
      </trkpt>
      <trkpt lat="50.78794" lon="2.45778">
        <ele>40.99</ele>
        <time>2021-08-07T07:56:24Z</time>
      </trkpt>
      <trkpt lat="50.78781" lon="2.45821">
        <ele>40.51</ele>
        <time>2021-08-07T07:56:30Z</time>
      </trkpt>
      <trkpt lat="50.78779" lon="2.45828">
        <ele>40.51</ele>
        <time>2021-08-07T07:56:31Z</time>
      </trkpt>
      <trkpt lat="50.78756" lon="2.45893">
        <ele>40.51</ele>
        <time>2021-08-07T07:56:40Z</time>
      </trkpt>
      <trkpt lat="50.78728" lon="2.45972">
        <ele>40.51</ele>
        <time>2021-08-07T07:56:51Z</time>
      </trkpt>
      <trkpt lat="50.78716" lon="2.46004">
        <ele>40.99</ele>
        <time>2021-08-07T07:56:56Z</time>
      </trkpt>
      <trkpt lat="50.78713" lon="2.4601">
        <ele>40.99</ele>
        <time>2021-08-07T07:56:57Z</time>
      </trkpt>
      <trkpt lat="50.78711" lon="2.46015">
        <ele>40.99</ele>
        <time>2021-08-07T07:56:58Z</time>
      </trkpt>
      <trkpt lat="50.78708" lon="2.4602">
        <ele>40.99</ele>
        <time>2021-08-07T07:56:59Z</time>
      </trkpt>
      <trkpt lat="50.78706" lon="2.46024">
        <ele>40.99</ele>
        <time>2021-08-07T07:57:00Z</time>
      </trkpt>
      <trkpt lat="50.78705" lon="2.46029">
        <ele>40.99</ele>
        <time>2021-08-07T07:57:01Z</time>
      </trkpt>
      <trkpt lat="50.78705" lon="2.46035">
        <ele>40.99</ele>
        <time>2021-08-07T07:57:02Z</time>
      </trkpt>
      <trkpt lat="50.78707" lon="2.4604">
        <ele>40.99</ele>
        <time>2021-08-07T07:57:03Z</time>
      </trkpt>
      <trkpt lat="50.78709" lon="2.46043">
        <ele>40.99</ele>
        <time>2021-08-07T07:57:04Z</time>
      </trkpt>
      <trkpt lat="50.78712" lon="2.46047">
        <ele>40.99</ele>
        <time>2021-08-07T07:57:05Z</time>
      </trkpt>
      <trkpt lat="50.78721" lon="2.46061">
        <ele>40.99</ele>
        <time>2021-08-07T07:57:08Z</time>
      </trkpt>
      <trkpt lat="50.78724" lon="2.46066">
        <ele>40.99</ele>
        <time>2021-08-07T07:57:09Z</time>
      </trkpt>
      <trkpt lat="50.7873" lon="2.46075">
        <ele>40.99</ele>
        <time>2021-08-07T07:57:11Z</time>
      </trkpt>
      <trkpt lat="50.78756" lon="2.46119">
        <ele>41.95</ele>
        <time>2021-08-07T07:57:19Z</time>
      </trkpt>
      <trkpt lat="50.78792" lon="2.46174">
        <ele>43.4</ele>
        <time>2021-08-07T07:57:29Z</time>
      </trkpt>
      <trkpt lat="50.78828" lon="2.4623">
        <ele>43.88</ele>
        <time>2021-08-07T07:57:39Z</time>
      </trkpt>
      <trkpt lat="50.78841" lon="2.46244">
        <ele>44.36</ele>
        <time>2021-08-07T07:57:42Z</time>
      </trkpt>
      <trkpt lat="50.78883" lon="2.46275">
        <ele>44.36</ele>
        <time>2021-08-07T07:57:51Z</time>
      </trkpt>
      <trkpt lat="50.78893" lon="2.4628">
        <ele>44.36</ele>
        <time>2021-08-07T07:57:53Z</time>
      </trkpt>
      <trkpt lat="50.78897" lon="2.46283">
        <ele>44.36</ele>
        <time>2021-08-07T07:57:54Z</time>
      </trkpt>
      <trkpt lat="50.78902" lon="2.46289">
        <ele>44.36</ele>
        <time>2021-08-07T07:57:55Z</time>
      </trkpt>
      <trkpt lat="50.78906" lon="2.46296">
        <ele>44.36</ele>
        <time>2021-08-07T07:57:56Z</time>
      </trkpt>
      <trkpt lat="50.78908" lon="2.46304">
        <ele>44.36</ele>
        <time>2021-08-07T07:57:57Z</time>
      </trkpt>
      <trkpt lat="50.78909" lon="2.46313">
        <ele>44.36</ele>
        <time>2021-08-07T07:57:58Z</time>
      </trkpt>
      <trkpt lat="50.78911" lon="2.46324">
        <ele>43.4</ele>
        <time>2021-08-07T07:57:59Z</time>
      </trkpt>
      <trkpt lat="50.78912" lon="2.46334">
        <ele>43.4</ele>
        <time>2021-08-07T07:58:00Z</time>
      </trkpt>
      <trkpt lat="50.7892" lon="2.46435">
        <ele>40.03</ele>
        <time>2021-08-07T07:58:09Z</time>
      </trkpt>
      <trkpt lat="50.7893" lon="2.46552">
        <ele>39.07</ele>
        <time>2021-08-07T07:58:19Z</time>
      </trkpt>
      <trkpt lat="50.78933" lon="2.46576">
        <ele>39.07</ele>
        <time>2021-08-07T07:58:21Z</time>
      </trkpt>
      <trkpt lat="50.78936" lon="2.46586">
        <ele>39.07</ele>
        <time>2021-08-07T07:58:22Z</time>
      </trkpt>
      <trkpt lat="50.78948" lon="2.46625">
        <ele>40.03</ele>
        <time>2021-08-07T07:58:26Z</time>
      </trkpt>
      <trkpt lat="50.78951" lon="2.46632">
        <ele>40.03</ele>
        <time>2021-08-07T07:58:27Z</time>
      </trkpt>
      <trkpt lat="50.78956" lon="2.46639">
        <ele>40.99</ele>
        <time>2021-08-07T07:58:28Z</time>
      </trkpt>
      <trkpt lat="50.78961" lon="2.46646">
        <ele>41.47</ele>
        <time>2021-08-07T07:58:29Z</time>
      </trkpt>
      <trkpt lat="50.78965" lon="2.46649">
        <ele>41.47</ele>
        <time>2021-08-07T07:58:30Z</time>
      </trkpt>
      <trkpt lat="50.7897" lon="2.46654">
        <ele>41.95</ele>
        <time>2021-08-07T07:58:31Z</time>
      </trkpt>
      <trkpt lat="50.78998" lon="2.46683">
        <ele>43.4</ele>
        <time>2021-08-07T07:58:38Z</time>
      </trkpt>
      <trkpt lat="50.79001" lon="2.46687">
        <ele>43.4</ele>
        <time>2021-08-07T07:58:39Z</time>
      </trkpt>
      <trkpt lat="50.79004" lon="2.4669">
        <ele>43.88</ele>
        <time>2021-08-07T07:58:40Z</time>
      </trkpt>
      <trkpt lat="50.79007" lon="2.46694">
        <ele>43.88</ele>
        <time>2021-08-07T07:58:41Z</time>
      </trkpt>
      <trkpt lat="50.7901" lon="2.46697">
        <ele>44.36</ele>
        <time>2021-08-07T07:58:42Z</time>
      </trkpt>
      <trkpt lat="50.79012" lon="2.46699">
        <ele>44.36</ele>
        <time>2021-08-07T07:58:43Z</time>
      </trkpt>
      <trkpt lat="50.79015" lon="2.46702">
        <ele>44.84</ele>
        <time>2021-08-07T07:58:44Z</time>
      </trkpt>
      <trkpt lat="50.79032" lon="2.46727">
        <ele>45.8</ele>
        <time>2021-08-07T07:58:51Z</time>
      </trkpt>
      <trkpt lat="50.79048" lon="2.46753">
        <ele>47.72</ele>
        <time>2021-08-07T07:58:59Z</time>
      </trkpt>
      <trkpt lat="50.79071" lon="2.46785">
        <ele>50.13</ele>
        <time>2021-08-07T07:59:09Z</time>
      </trkpt>
      <trkpt lat="50.79088" lon="2.46812">
        <ele>51.57</ele>
        <time>2021-08-07T07:59:17Z</time>
      </trkpt>
      <trkpt lat="50.79107" lon="2.46844">
        <ele>53.49</ele>
        <time>2021-08-07T07:59:26Z</time>
      </trkpt>
      <trkpt lat="50.79121" lon="2.46874">
        <ele>55.41</ele>
        <time>2021-08-07T07:59:34Z</time>
      </trkpt>
      <trkpt lat="50.79135" lon="2.46909">
        <ele>57.34</ele>
        <time>2021-08-07T07:59:43Z</time>
      </trkpt>
      <trkpt lat="50.79143" lon="2.46938">
        <ele>59.26</ele>
        <time>2021-08-07T07:59:51Z</time>
      </trkpt>
      <trkpt lat="50.79146" lon="2.46968">
        <ele>60.22</ele>
        <time>2021-08-07T07:59:59Z</time>
      </trkpt>
      <trkpt lat="50.7915" lon="2.47001">
        <ele>62.14</ele>
        <time>2021-08-07T08:00:08Z</time>
      </trkpt>
      <trkpt lat="50.79156" lon="2.47042">
        <ele>64.07</ele>
        <time>2021-08-07T08:00:19Z</time>
      </trkpt>
      <trkpt lat="50.79162" lon="2.47084">
        <ele>65.03</ele>
        <time>2021-08-07T08:00:29Z</time>
      </trkpt>
      <trkpt lat="50.79174" lon="2.47122">
        <ele>66.47</ele>
        <time>2021-08-07T08:00:39Z</time>
      </trkpt>
      <trkpt lat="50.79189" lon="2.47153">
        <ele>68.39</ele>
        <time>2021-08-07T08:00:48Z</time>
      </trkpt>
      <trkpt lat="50.79199" lon="2.47177">
        <ele>69.35</ele>
        <time>2021-08-07T08:00:55Z</time>
      </trkpt>
      <trkpt lat="50.79215" lon="2.47211">
        <ele>71.27</ele>
        <time>2021-08-07T08:01:05Z</time>
      </trkpt>
      <trkpt lat="50.79228" lon="2.47245">
        <ele>72.72</ele>
        <time>2021-08-07T08:01:14Z</time>
      </trkpt>
      <trkpt lat="50.79246" lon="2.47288">
        <ele>73.68</ele>
        <time>2021-08-07T08:01:24Z</time>
      </trkpt>
      <trkpt lat="50.79267" lon="2.47332">
        <ele>73.68</ele>
        <time>2021-08-07T08:01:33Z</time>
      </trkpt>
      <trkpt lat="50.7929" lon="2.4736">
        <ele>75.12</ele>
        <time>2021-08-07T08:01:41Z</time>
      </trkpt>
      <trkpt lat="50.79318" lon="2.47384">
        <ele>76.08</ele>
        <time>2021-08-07T08:01:49Z</time>
      </trkpt>
      <trkpt lat="50.79354" lon="2.47413">
        <ele>77.52</ele>
        <time>2021-08-07T08:01:59Z</time>
      </trkpt>
      <trkpt lat="50.79382" lon="2.47434">
        <ele>78.97</ele>
        <time>2021-08-07T08:02:07Z</time>
      </trkpt>
      <trkpt lat="50.79418" lon="2.47469">
        <ele>80.41</ele>
        <time>2021-08-07T08:02:18Z</time>
      </trkpt>
      <trkpt lat="50.79449" lon="2.47509">
        <ele>80.89</ele>
        <time>2021-08-07T08:02:27Z</time>
      </trkpt>
      <trkpt lat="50.79486" lon="2.47567">
        <ele>80.89</ele>
        <time>2021-08-07T08:02:38Z</time>
      </trkpt>
      <trkpt lat="50.79515" lon="2.47613">
        <ele>80.89</ele>
        <time>2021-08-07T08:02:46Z</time>
      </trkpt>
      <trkpt lat="50.79539" lon="2.47652">
        <ele>80.89</ele>
        <time>2021-08-07T08:02:52Z</time>
      </trkpt>
      <trkpt lat="50.7957" lon="2.4769">
        <ele>82.33</ele>
        <time>2021-08-07T08:03:00Z</time>
      </trkpt>
      <trkpt lat="50.79574" lon="2.47694">
        <ele>82.33</ele>
        <time>2021-08-07T08:03:01Z</time>
      </trkpt>
      <trkpt lat="50.79577" lon="2.47697">
        <ele>82.33</ele>
        <time>2021-08-07T08:03:02Z</time>
      </trkpt>
      <trkpt lat="50.79605" lon="2.47722">
        <ele>83.77</ele>
        <time>2021-08-07T08:03:10Z</time>
      </trkpt>
      <trkpt lat="50.79629" lon="2.47746">
        <ele>85.21</ele>
        <time>2021-08-07T08:03:18Z</time>
      </trkpt>
      <trkpt lat="50.79653" lon="2.47772">
        <ele>87.62</ele>
        <time>2021-08-07T08:03:27Z</time>
      </trkpt>
      <trkpt lat="50.79668" lon="2.47791">
        <ele>89.54</ele>
        <time>2021-08-07T08:03:35Z</time>
      </trkpt>
      <trkpt lat="50.7968" lon="2.47807">
        <ele>91.46</ele>
        <time>2021-08-07T08:03:43Z</time>
      </trkpt>
      <trkpt lat="50.7969" lon="2.47825">
        <ele>93.39</ele>
        <time>2021-08-07T08:03:51Z</time>
      </trkpt>
      <trkpt lat="50.79704" lon="2.47847">
        <ele>96.27</ele>
        <time>2021-08-07T08:04:01Z</time>
      </trkpt>
      <trkpt lat="50.79718" lon="2.47868">
        <ele>98.67</ele>
        <time>2021-08-07T08:04:11Z</time>
      </trkpt>
      <trkpt lat="50.79731" lon="2.47886">
        <ele>100.11</ele>
        <time>2021-08-07T08:04:20Z</time>
      </trkpt>
      <trkpt lat="50.79744" lon="2.47902">
        <ele>102.52</ele>
        <time>2021-08-07T08:04:29Z</time>
      </trkpt>
      <trkpt lat="50.79755" lon="2.47918">
        <ele>104.44</ele>
        <time>2021-08-07T08:04:37Z</time>
      </trkpt>
      <trkpt lat="50.7977" lon="2.47942">
        <ele>106.36</ele>
        <time>2021-08-07T08:04:48Z</time>
      </trkpt>
      <trkpt lat="50.79774" lon="2.47951">
        <ele>106.84</ele>
        <time>2021-08-07T08:04:52Z</time>
      </trkpt>
      <trkpt lat="50.79776" lon="2.47953">
        <ele>107.81</ele>
        <time>2021-08-07T08:04:53Z</time>
      </trkpt>
      <trkpt lat="50.79788" lon="2.47973">
        <ele>109.25</ele>
        <time>2021-08-07T08:05:02Z</time>
      </trkpt>
      <trkpt lat="50.79803" lon="2.47992">
        <ele>111.17</ele>
        <time>2021-08-07T08:05:12Z</time>
      </trkpt>
      <trkpt lat="50.79816" lon="2.48004">
        <ele>113.09</ele>
        <time>2021-08-07T08:05:21Z</time>
      </trkpt>
      <trkpt lat="50.79822" lon="2.48009">
        <ele>114.05</ele>
        <time>2021-08-07T08:05:25Z</time>
      </trkpt>
      <trkpt lat="50.79823" lon="2.48011">
        <ele>114.05</ele>
        <time>2021-08-07T08:05:26Z</time>
      </trkpt>
      <trkpt lat="50.79824" lon="2.48012">
        <ele>114.53</ele>
        <time>2021-08-07T08:05:27Z</time>
      </trkpt>
      <trkpt lat="50.79825" lon="2.48013">
        <ele>114.53</ele>
        <time>2021-08-07T08:05:28Z</time>
      </trkpt>
      <trkpt lat="50.79827" lon="2.48014">
        <ele>115.01</ele>
        <time>2021-08-07T08:05:29Z</time>
      </trkpt>
      <trkpt lat="50.79828" lon="2.48015">
        <ele>115.01</ele>
        <time>2021-08-07T08:05:30Z</time>
      </trkpt>
      <trkpt lat="50.7983" lon="2.48017">
        <ele>115.01</ele>
        <time>2021-08-07T08:05:31Z</time>
      </trkpt>
      <trkpt lat="50.79831" lon="2.48019">
        <ele>115.01</ele>
        <time>2021-08-07T08:05:32Z</time>
      </trkpt>
      <trkpt lat="50.79833" lon="2.4802">
        <ele>115.01</ele>
        <time>2021-08-07T08:05:33Z</time>
      </trkpt>
      <trkpt lat="50.79834" lon="2.48021">
        <ele>115.5</ele>
        <time>2021-08-07T08:05:34Z</time>
      </trkpt>
      <trkpt lat="50.79835" lon="2.48023">
        <ele>115.5</ele>
        <time>2021-08-07T08:05:35Z</time>
      </trkpt>
      <trkpt lat="50.79847" lon="2.48035">
        <ele>116.94</ele>
        <time>2021-08-07T08:05:43Z</time>
      </trkpt>
      <trkpt lat="50.79851" lon="2.48039">
        <ele>117.42</ele>
        <time>2021-08-07T08:05:46Z</time>
      </trkpt>
      <trkpt lat="50.79852" lon="2.4804">
        <ele>117.42</ele>
        <time>2021-08-07T08:05:47Z</time>
      </trkpt>
      <trkpt lat="50.79854" lon="2.48041">
        <ele>117.42</ele>
        <time>2021-08-07T08:05:48Z</time>
      </trkpt>
      <trkpt lat="50.79855" lon="2.48043">
        <ele>117.9</ele>
        <time>2021-08-07T08:05:49Z</time>
      </trkpt>
      <trkpt lat="50.79856" lon="2.48044">
        <ele>117.9</ele>
        <time>2021-08-07T08:05:50Z</time>
      </trkpt>
      <trkpt lat="50.79869" lon="2.48056">
        <ele>119.34</ele>
        <time>2021-08-07T08:05:58Z</time>
      </trkpt>
      <trkpt lat="50.79881" lon="2.48069">
        <ele>121.26</ele>
        <time>2021-08-07T08:06:06Z</time>
      </trkpt>
      <trkpt lat="50.79894" lon="2.48082">
        <ele>123.19</ele>
        <time>2021-08-07T08:06:16Z</time>
      </trkpt>
      <trkpt lat="50.79909" lon="2.48093">
        <ele>125.11</ele>
        <time>2021-08-07T08:06:25Z</time>
      </trkpt>
      <trkpt lat="50.79921" lon="2.48103">
        <ele>127.03</ele>
        <time>2021-08-07T08:06:33Z</time>
      </trkpt>
      <trkpt lat="50.79934" lon="2.48119">
        <ele>129.92</ele>
        <time>2021-08-07T08:06:42Z</time>
      </trkpt>
      <trkpt lat="50.79948" lon="2.48135">
        <ele>130.88</ele>
        <time>2021-08-07T08:06:51Z</time>
      </trkpt>
      <trkpt lat="50.79959" lon="2.48153">
        <ele>133.28</ele>
        <time>2021-08-07T08:06:59Z</time>
      </trkpt>
      <trkpt lat="50.7997" lon="2.48175">
        <ele>134.72</ele>
        <time>2021-08-07T08:07:09Z</time>
      </trkpt>
      <trkpt lat="50.79974" lon="2.48186">
        <ele>135.68</ele>
        <time>2021-08-07T08:07:14Z</time>
      </trkpt>
      <trkpt lat="50.79976" lon="2.48188">
        <ele>136.16</ele>
        <time>2021-08-07T08:07:15Z</time>
      </trkpt>
      <trkpt lat="50.79977" lon="2.4819">
        <ele>136.16</ele>
        <time>2021-08-07T08:07:16Z</time>
      </trkpt>
      <trkpt lat="50.79987" lon="2.48212">
        <ele>138.57</ele>
        <time>2021-08-07T08:07:24Z</time>
      </trkpt>
      <trkpt lat="50.79993" lon="2.4824">
        <ele>140.97</ele>
        <time>2021-08-07T08:07:34Z</time>
      </trkpt>
      <trkpt lat="50.79998" lon="2.48265">
        <ele>142.41</ele>
        <time>2021-08-07T08:07:43Z</time>
      </trkpt>
      <trkpt lat="50.79998" lon="2.48273">
        <ele>142.89</ele>
        <time>2021-08-07T08:07:46Z</time>
      </trkpt>
      <trkpt lat="50.79997" lon="2.48275">
        <ele>142.89</ele>
        <time>2021-08-07T08:07:47Z</time>
      </trkpt>
      <trkpt lat="50.79997" lon="2.48279">
        <ele>142.89</ele>
        <time>2021-08-07T08:07:48Z</time>
      </trkpt>
      <trkpt lat="50.79995" lon="2.48283">
        <ele>142.89</ele>
        <time>2021-08-07T08:07:49Z</time>
      </trkpt>
      <trkpt lat="50.79994" lon="2.48286">
        <ele>142.89</ele>
        <time>2021-08-07T08:07:50Z</time>
      </trkpt>
      <trkpt lat="50.79991" lon="2.48291">
        <ele>141.45</ele>
        <time>2021-08-07T08:07:51Z</time>
      </trkpt>
      <trkpt lat="50.79988" lon="2.48295">
        <ele>141.45</ele>
        <time>2021-08-07T08:07:52Z</time>
      </trkpt>
      <trkpt lat="50.79985" lon="2.483">
        <ele>141.45</ele>
        <time>2021-08-07T08:07:53Z</time>
      </trkpt>
      <trkpt lat="50.79961" lon="2.4835">
        <ele>140.97</ele>
        <time>2021-08-07T08:08:01Z</time>
      </trkpt>
      <trkpt lat="50.79939" lon="2.48408">
        <ele>140.49</ele>
        <time>2021-08-07T08:08:10Z</time>
      </trkpt>
      <trkpt lat="50.79935" lon="2.48418">
        <ele>141.93</ele>
        <time>2021-08-07T08:08:12Z</time>
      </trkpt>
      <trkpt lat="50.79924" lon="2.48457">
        <ele>142.41</ele>
        <time>2021-08-07T08:08:20Z</time>
      </trkpt>
      <trkpt lat="50.79923" lon="2.48461">
        <ele>142.41</ele>
        <time>2021-08-07T08:08:22Z</time>
      </trkpt>
      <trkpt lat="50.79924" lon="2.48463">
        <ele>142.41</ele>
        <time>2021-08-07T08:08:23Z</time>
      </trkpt>
      <trkpt lat="50.79926" lon="2.48464">
        <ele>142.41</ele>
        <time>2021-08-07T08:08:24Z</time>
      </trkpt>
      <trkpt lat="50.79936" lon="2.48469">
        <ele>143.85</ele>
        <time>2021-08-07T08:08:30Z</time>
      </trkpt>
      <trkpt lat="50.7995" lon="2.48475">
        <ele>146.26</ele>
        <time>2021-08-07T08:08:38Z</time>
      </trkpt>
      <trkpt lat="50.79964" lon="2.4848">
        <ele>147.7</ele>
        <time>2021-08-07T08:08:44Z</time>
      </trkpt>
      <trkpt lat="50.79974" lon="2.48483">
        <ele>149.62</ele>
        <time>2021-08-07T08:08:49Z</time>
      </trkpt>
      <trkpt lat="50.79975" lon="2.48482">
        <ele>149.62</ele>
        <time>2021-08-07T08:08:50Z</time>
      </trkpt>
      <trkpt lat="50.79977" lon="2.48482">
        <ele>150.1</ele>
        <time>2021-08-07T08:08:51Z</time>
      </trkpt>
      <trkpt lat="50.79978" lon="2.48482">
        <ele>150.58</ele>
        <time>2021-08-07T08:08:52Z</time>
      </trkpt>
      <trkpt lat="50.7998" lon="2.48482">
        <ele>151.06</ele>
        <time>2021-08-07T08:08:53Z</time>
      </trkpt>
      <trkpt lat="50.79981" lon="2.48482">
        <ele>151.54</ele>
        <time>2021-08-07T08:08:54Z</time>
      </trkpt>
      <trkpt lat="50.79998" lon="2.48498">
        <ele>154.43</ele>
        <time>2021-08-07T08:09:02Z</time>
      </trkpt>
      <trkpt lat="50.80016" lon="2.48517">
        <ele>155.87</ele>
        <time>2021-08-07T08:09:10Z</time>
      </trkpt>
      <trkpt lat="50.80016" lon="2.4852">
        <ele>155.87</ele>
        <time>2021-08-07T08:09:11Z</time>
      </trkpt>
      <trkpt lat="50.80011" lon="2.48546">
        <ele>155.87</ele>
        <time>2021-08-07T08:09:18Z</time>
      </trkpt>
      <trkpt lat="50.79999" lon="2.48587">
        <ele>155.39</ele>
        <time>2021-08-07T08:09:26Z</time>
      </trkpt>
      <trkpt lat="50.79995" lon="2.48598">
        <ele>154.43</ele>
        <time>2021-08-07T08:09:28Z</time>
      </trkpt>
      <trkpt lat="50.79977" lon="2.4865">
        <ele>153.47</ele>
        <time>2021-08-07T08:09:36Z</time>
      </trkpt>
      <trkpt lat="50.79974" lon="2.48655">
        <ele>153.47</ele>
        <time>2021-08-07T08:09:37Z</time>
      </trkpt>
      <trkpt lat="50.79956" lon="2.48685">
        <ele>153.47</ele>
        <time>2021-08-07T08:09:44Z</time>
      </trkpt>
      <trkpt lat="50.79953" lon="2.4869">
        <ele>152.99</ele>
        <time>2021-08-07T08:09:45Z</time>
      </trkpt>
      <trkpt lat="50.79931" lon="2.48718">
        <ele>153.47</ele>
        <time>2021-08-07T08:09:53Z</time>
      </trkpt>
      <trkpt lat="50.79918" lon="2.48739">
        <ele>153.47</ele>
        <time>2021-08-07T08:09:59Z</time>
      </trkpt>
      <trkpt lat="50.799" lon="2.48774">
        <ele>152.99</ele>
        <time>2021-08-07T08:10:06Z</time>
      </trkpt>
      <trkpt lat="50.79874" lon="2.48824">
        <ele>151.54</ele>
        <time>2021-08-07T08:10:16Z</time>
      </trkpt>
      <trkpt lat="50.79846" lon="2.48874">
        <ele>151.54</ele>
        <time>2021-08-07T08:10:25Z</time>
      </trkpt>
      <trkpt lat="50.79823" lon="2.48931">
        <ele>150.58</ele>
        <time>2021-08-07T08:10:33Z</time>
      </trkpt>
      <trkpt lat="50.79819" lon="2.48942">
        <ele>150.1</ele>
        <time>2021-08-07T08:10:35Z</time>
      </trkpt>
      <trkpt lat="50.79816" lon="2.48948">
        <ele>150.1</ele>
        <time>2021-08-07T08:10:36Z</time>
      </trkpt>
      <trkpt lat="50.79811" lon="2.48959">
        <ele>150.1</ele>
        <time>2021-08-07T08:10:38Z</time>
      </trkpt>
      <trkpt lat="50.7981" lon="2.48966">
        <ele>149.62</ele>
        <time>2021-08-07T08:10:39Z</time>
      </trkpt>
      <trkpt lat="50.79809" lon="2.48972">
        <ele>149.62</ele>
        <time>2021-08-07T08:10:40Z</time>
      </trkpt>
      <trkpt lat="50.79809" lon="2.48991">
        <ele>149.14</ele>
        <time>2021-08-07T08:10:43Z</time>
      </trkpt>
      <trkpt lat="50.7981" lon="2.48997">
        <ele>149.14</ele>
        <time>2021-08-07T08:10:44Z</time>
      </trkpt>
      <trkpt lat="50.79812" lon="2.49004">
        <ele>149.14</ele>
        <time>2021-08-07T08:10:45Z</time>
      </trkpt>
      <trkpt lat="50.79816" lon="2.49018">
        <ele>149.14</ele>
        <time>2021-08-07T08:10:47Z</time>
      </trkpt>
      <trkpt lat="50.7984" lon="2.49079">
        <ele>147.22</ele>
        <time>2021-08-07T08:10:56Z</time>
      </trkpt>
      <trkpt lat="50.79845" lon="2.49084">
        <ele>147.22</ele>
        <time>2021-08-07T08:10:57Z</time>
      </trkpt>
      <trkpt lat="50.7985" lon="2.49088">
        <ele>145.78</ele>
        <time>2021-08-07T08:10:58Z</time>
      </trkpt>
      <trkpt lat="50.79856" lon="2.49089">
        <ele>145.78</ele>
        <time>2021-08-07T08:10:59Z</time>
      </trkpt>
      <trkpt lat="50.79861" lon="2.49091">
        <ele>145.3</ele>
        <time>2021-08-07T08:11:00Z</time>
      </trkpt>
      <trkpt lat="50.79897" lon="2.49105">
        <ele>143.37</ele>
        <time>2021-08-07T08:11:06Z</time>
      </trkpt>
      <trkpt lat="50.79916" lon="2.49116">
        <ele>142.41</ele>
        <time>2021-08-07T08:11:09Z</time>
      </trkpt>
      <trkpt lat="50.7992" lon="2.49123">
        <ele>142.41</ele>
        <time>2021-08-07T08:11:10Z</time>
      </trkpt>
      <trkpt lat="50.79924" lon="2.49131">
        <ele>141.93</ele>
        <time>2021-08-07T08:11:11Z</time>
      </trkpt>
      <trkpt lat="50.79925" lon="2.49139">
        <ele>141.93</ele>
        <time>2021-08-07T08:11:12Z</time>
      </trkpt>
      <trkpt lat="50.79925" lon="2.49148">
        <ele>141.45</ele>
        <time>2021-08-07T08:11:13Z</time>
      </trkpt>
      <trkpt lat="50.79924" lon="2.49157">
        <ele>140.49</ele>
        <time>2021-08-07T08:11:14Z</time>
      </trkpt>
      <trkpt lat="50.79921" lon="2.49164">
        <ele>140.01</ele>
        <time>2021-08-07T08:11:15Z</time>
      </trkpt>
      <trkpt lat="50.79917" lon="2.49171">
        <ele>139.53</ele>
        <time>2021-08-07T08:11:16Z</time>
      </trkpt>
      <trkpt lat="50.79912" lon="2.49177">
        <ele>139.53</ele>
        <time>2021-08-07T08:11:17Z</time>
      </trkpt>
      <trkpt lat="50.79907" lon="2.49183">
        <ele>139.53</ele>
        <time>2021-08-07T08:11:18Z</time>
      </trkpt>
      <trkpt lat="50.79886" lon="2.49207">
        <ele>138.09</ele>
        <time>2021-08-07T08:11:22Z</time>
      </trkpt>
      <trkpt lat="50.79836" lon="2.49264">
        <ele>135.2</ele>
        <time>2021-08-07T08:11:31Z</time>
      </trkpt>
      <trkpt lat="50.7983" lon="2.49271">
        <ele>134.72</ele>
        <time>2021-08-07T08:11:32Z</time>
      </trkpt>
      <trkpt lat="50.79785" lon="2.49324">
        <ele>132.8</ele>
        <time>2021-08-07T08:11:41Z</time>
      </trkpt>
      <trkpt lat="50.79772" lon="2.49341">
        <ele>132.8</ele>
        <time>2021-08-07T08:11:44Z</time>
      </trkpt>
      <trkpt lat="50.79768" lon="2.49349">
        <ele>132.32</ele>
        <time>2021-08-07T08:11:45Z</time>
      </trkpt>
      <trkpt lat="50.79765" lon="2.49357">
        <ele>132.32</ele>
        <time>2021-08-07T08:11:46Z</time>
      </trkpt>
      <trkpt lat="50.79762" lon="2.49366">
        <ele>131.36</ele>
        <time>2021-08-07T08:11:47Z</time>
      </trkpt>
      <trkpt lat="50.7976" lon="2.49377">
        <ele>131.36</ele>
        <time>2021-08-07T08:11:48Z</time>
      </trkpt>
      <trkpt lat="50.79758" lon="2.49384">
        <ele>130.88</ele>
        <time>2021-08-07T08:11:49Z</time>
      </trkpt>
      <trkpt lat="50.79742" lon="2.49468">
        <ele>127.51</ele>
        <time>2021-08-07T08:11:57Z</time>
      </trkpt>
      <trkpt lat="50.79742" lon="2.49492">
        <ele>126.55</ele>
        <time>2021-08-07T08:11:59Z</time>
      </trkpt>
      <trkpt lat="50.79749" lon="2.49555">
        <ele>125.11</ele>
        <time>2021-08-07T08:12:04Z</time>
      </trkpt>
      <trkpt lat="50.79751" lon="2.49566">
        <ele>124.63</ele>
        <time>2021-08-07T08:12:05Z</time>
      </trkpt>
      <trkpt lat="50.79766" lon="2.49616">
        <ele>122.22</ele>
        <time>2021-08-07T08:12:09Z</time>
      </trkpt>
      <trkpt lat="50.79771" lon="2.49625">
        <ele>122.22</ele>
        <time>2021-08-07T08:12:10Z</time>
      </trkpt>
      <trkpt lat="50.7979" lon="2.49655">
        <ele>121.26</ele>
        <time>2021-08-07T08:12:13Z</time>
      </trkpt>
      <trkpt lat="50.79798" lon="2.49664">
        <ele>120.78</ele>
        <time>2021-08-07T08:12:14Z</time>
      </trkpt>
      <trkpt lat="50.79805" lon="2.49669">
        <ele>120.3</ele>
        <time>2021-08-07T08:12:15Z</time>
      </trkpt>
      <trkpt lat="50.79829" lon="2.49683">
        <ele>119.82</ele>
        <time>2021-08-07T08:12:18Z</time>
      </trkpt>
      <trkpt lat="50.79836" lon="2.49685">
        <ele>119.82</ele>
        <time>2021-08-07T08:12:19Z</time>
      </trkpt>
      <trkpt lat="50.79844" lon="2.49684">
        <ele>119.82</ele>
        <time>2021-08-07T08:12:20Z</time>
      </trkpt>
      <trkpt lat="50.7985" lon="2.49682">
        <ele>119.82</ele>
        <time>2021-08-07T08:12:21Z</time>
      </trkpt>
      <trkpt lat="50.79857" lon="2.49679">
        <ele>118.86</ele>
        <time>2021-08-07T08:12:22Z</time>
      </trkpt>
      <trkpt lat="50.79871" lon="2.49674">
        <ele>118.86</ele>
        <time>2021-08-07T08:12:24Z</time>
      </trkpt>
      <trkpt lat="50.79879" lon="2.49674">
        <ele>117.9</ele>
        <time>2021-08-07T08:12:25Z</time>
      </trkpt>
      <trkpt lat="50.79886" lon="2.49677">
        <ele>116.94</ele>
        <time>2021-08-07T08:12:26Z</time>
      </trkpt>
      <trkpt lat="50.79893" lon="2.49682">
        <ele>116.46</ele>
        <time>2021-08-07T08:12:27Z</time>
      </trkpt>
      <trkpt lat="50.79901" lon="2.49688">
        <ele>116.46</ele>
        <time>2021-08-07T08:12:28Z</time>
      </trkpt>
      <trkpt lat="50.79933" lon="2.49715">
        <ele>114.53</ele>
        <time>2021-08-07T08:12:33Z</time>
      </trkpt>
      <trkpt lat="50.7994" lon="2.49719">
        <ele>114.53</ele>
        <time>2021-08-07T08:12:34Z</time>
      </trkpt>
      <trkpt lat="50.79956" lon="2.49727">
        <ele>114.53</ele>
        <time>2021-08-07T08:12:38Z</time>
      </trkpt>
      <trkpt lat="50.7996" lon="2.49727">
        <ele>114.53</ele>
        <time>2021-08-07T08:12:43Z</time>
      </trkpt>
      <trkpt lat="50.79961" lon="2.49724">
        <ele>114.53</ele>
        <time>2021-08-07T08:12:47Z</time>
      </trkpt>
      <trkpt lat="50.79961" lon="2.49721">
        <ele>114.53</ele>
        <time>2021-08-07T08:12:48Z</time>
      </trkpt>
      <trkpt lat="50.79959" lon="2.49719">
        <ele>114.53</ele>
        <time>2021-08-07T08:12:49Z</time>
      </trkpt>
      <trkpt lat="50.79958" lon="2.49718">
        <ele>114.53</ele>
        <time>2021-08-07T08:12:50Z</time>
      </trkpt>
      <trkpt lat="50.79955" lon="2.49719">
        <ele>114.53</ele>
        <time>2021-08-07T08:12:51Z</time>
      </trkpt>
      <trkpt lat="50.79945" lon="2.49718">
        <ele>114.53</ele>
        <time>2021-08-07T08:12:54Z</time>
      </trkpt>
      <trkpt lat="50.79941" lon="2.49716">
        <ele>114.53</ele>
        <time>2021-08-07T08:12:55Z</time>
      </trkpt>
      <trkpt lat="50.79932" lon="2.49711">
        <ele>114.53</ele>
        <time>2021-08-07T08:12:57Z</time>
      </trkpt>
      <trkpt lat="50.799" lon="2.49684">
        <ele>116.94</ele>
        <time>2021-08-07T08:13:05Z</time>
      </trkpt>
      <trkpt lat="50.79894" lon="2.49683">
        <ele>117.42</ele>
        <time>2021-08-07T08:13:07Z</time>
      </trkpt>
      <trkpt lat="50.79891" lon="2.49684">
        <ele>117.42</ele>
        <time>2021-08-07T08:13:08Z</time>
      </trkpt>
      <trkpt lat="50.79886" lon="2.49689">
        <ele>117.42</ele>
        <time>2021-08-07T08:13:10Z</time>
      </trkpt>
      <trkpt lat="50.79875" lon="2.49698">
        <ele>114.05</ele>
        <time>2021-08-07T08:13:12Z</time>
      </trkpt>
      <trkpt lat="50.7987" lon="2.49702">
        <ele>112.13</ele>
        <time>2021-08-07T08:13:13Z</time>
      </trkpt>
      <trkpt lat="50.79864" lon="2.4971">
        <ele>110.69</ele>
        <time>2021-08-07T08:13:14Z</time>
      </trkpt>
      <trkpt lat="50.79858" lon="2.4972">
        <ele>109.25</ele>
        <time>2021-08-07T08:13:15Z</time>
      </trkpt>
      <trkpt lat="50.79853" lon="2.49729">
        <ele>107.81</ele>
        <time>2021-08-07T08:13:16Z</time>
      </trkpt>
      <trkpt lat="50.79849" lon="2.49738">
        <ele>107.32</ele>
        <time>2021-08-07T08:13:17Z</time>
      </trkpt>
      <trkpt lat="50.79846" lon="2.49747">
        <ele>106.84</ele>
        <time>2021-08-07T08:13:18Z</time>
      </trkpt>
      <trkpt lat="50.79844" lon="2.49755">
        <ele>105.88</ele>
        <time>2021-08-07T08:13:19Z</time>
      </trkpt>
      <trkpt lat="50.79843" lon="2.49762">
        <ele>104.92</ele>
        <time>2021-08-07T08:13:20Z</time>
      </trkpt>
      <trkpt lat="50.79844" lon="2.4977">
        <ele>104.92</ele>
        <time>2021-08-07T08:13:21Z</time>
      </trkpt>
      <trkpt lat="50.79844" lon="2.49779">
        <ele>103.48</ele>
        <time>2021-08-07T08:13:22Z</time>
      </trkpt>
      <trkpt lat="50.79845" lon="2.49786">
        <ele>103</ele>
        <time>2021-08-07T08:13:23Z</time>
      </trkpt>
      <trkpt lat="50.79845" lon="2.49794">
        <ele>102.52</ele>
        <time>2021-08-07T08:13:24Z</time>
      </trkpt>
      <trkpt lat="50.79845" lon="2.498">
        <ele>102.04</ele>
        <time>2021-08-07T08:13:25Z</time>
      </trkpt>
      <trkpt lat="50.79846" lon="2.49827">
        <ele>100.11</ele>
        <time>2021-08-07T08:13:30Z</time>
      </trkpt>
      <trkpt lat="50.79846" lon="2.4983">
        <ele>100.6</ele>
        <time>2021-08-07T08:13:31Z</time>
      </trkpt>
      <trkpt lat="50.79845" lon="2.49832">
        <ele>99.63</ele>
        <time>2021-08-07T08:13:32Z</time>
      </trkpt>
      <trkpt lat="50.79843" lon="2.49836">
        <ele>99.15</ele>
        <time>2021-08-07T08:13:34Z</time>
      </trkpt>
      <trkpt lat="50.79843" lon="2.49839">
        <ele>99.15</ele>
        <time>2021-08-07T08:13:35Z</time>
      </trkpt>
      <trkpt lat="50.79846" lon="2.49869">
        <ele>95.79</ele>
        <time>2021-08-07T08:13:41Z</time>
      </trkpt>
      <trkpt lat="50.79845" lon="2.49886">
        <ele>94.83</ele>
        <time>2021-08-07T08:13:44Z</time>
      </trkpt>
      <trkpt lat="50.79845" lon="2.49896">
        <ele>92.42</ele>
        <time>2021-08-07T08:13:46Z</time>
      </trkpt>
      <trkpt lat="50.79845" lon="2.499">
        <ele>91.94</ele>
        <time>2021-08-07T08:13:47Z</time>
      </trkpt>
      <trkpt lat="50.79844" lon="2.49903">
        <ele>91.94</ele>
        <time>2021-08-07T08:13:48Z</time>
      </trkpt>
      <trkpt lat="50.79844" lon="2.49905">
        <ele>91.94</ele>
        <time>2021-08-07T08:13:49Z</time>
      </trkpt>
      <trkpt lat="50.79843" lon="2.49907">
        <ele>91.94</ele>
        <time>2021-08-07T08:13:50Z</time>
      </trkpt>
      <trkpt lat="50.79841" lon="2.49908">
        <ele>91.94</ele>
        <time>2021-08-07T08:13:51Z</time>
      </trkpt>
      <trkpt lat="50.79825" lon="2.49914">
        <ele>90.02</ele>
        <time>2021-08-07T08:13:57Z</time>
      </trkpt>
      <trkpt lat="50.79784" lon="2.49924">
        <ele>87.14</ele>
        <time>2021-08-07T08:14:06Z</time>
      </trkpt>
      <trkpt lat="50.79781" lon="2.49926">
        <ele>87.14</ele>
        <time>2021-08-07T08:14:07Z</time>
      </trkpt>
      <trkpt lat="50.79778" lon="2.49929">
        <ele>87.14</ele>
        <time>2021-08-07T08:14:08Z</time>
      </trkpt>
      <trkpt lat="50.79777" lon="2.49934">
        <ele>87.14</ele>
        <time>2021-08-07T08:14:09Z</time>
      </trkpt>
      <trkpt lat="50.79784" lon="2.49963">
        <ele>85.21</ele>
        <time>2021-08-07T08:14:15Z</time>
      </trkpt>
      <trkpt lat="50.79793" lon="2.49996">
        <ele>85.21</ele>
        <time>2021-08-07T08:14:21Z</time>
      </trkpt>
      <trkpt lat="50.79794" lon="2.50002">
        <ele>85.21</ele>
        <time>2021-08-07T08:14:22Z</time>
      </trkpt>
      <trkpt lat="50.79795" lon="2.50009">
        <ele>85.21</ele>
        <time>2021-08-07T08:14:23Z</time>
      </trkpt>
      <trkpt lat="50.79795" lon="2.50015">
        <ele>85.21</ele>
        <time>2021-08-07T08:14:24Z</time>
      </trkpt>
      <trkpt lat="50.79794" lon="2.50022">
        <ele>84.25</ele>
        <time>2021-08-07T08:14:25Z</time>
      </trkpt>
      <trkpt lat="50.79793" lon="2.5003">
        <ele>83.77</ele>
        <time>2021-08-07T08:14:26Z</time>
      </trkpt>
      <trkpt lat="50.79792" lon="2.50038">
        <ele>83.77</ele>
        <time>2021-08-07T08:14:27Z</time>
      </trkpt>
      <trkpt lat="50.7979" lon="2.5006">
        <ele>81.85</ele>
        <time>2021-08-07T08:14:30Z</time>
      </trkpt>
      <trkpt lat="50.79788" lon="2.50076">
        <ele>81.85</ele>
        <time>2021-08-07T08:14:32Z</time>
      </trkpt>
      <trkpt lat="50.79787" lon="2.50083">
        <ele>81.85</ele>
        <time>2021-08-07T08:14:33Z</time>
      </trkpt>
      <trkpt lat="50.79786" lon="2.50092">
        <ele>81.85</ele>
        <time>2021-08-07T08:14:34Z</time>
      </trkpt>
      <trkpt lat="50.79786" lon="2.50099">
        <ele>82.81</ele>
        <time>2021-08-07T08:14:35Z</time>
      </trkpt>
      <trkpt lat="50.79785" lon="2.50107">
        <ele>82.81</ele>
        <time>2021-08-07T08:14:36Z</time>
      </trkpt>
      <trkpt lat="50.79775" lon="2.50161">
        <ele>80.41</ele>
        <time>2021-08-07T08:14:43Z</time>
      </trkpt>
      <trkpt lat="50.79772" lon="2.50169">
        <ele>80.41</ele>
        <time>2021-08-07T08:14:44Z</time>
      </trkpt>
      <trkpt lat="50.79759" lon="2.50199">
        <ele>81.37</ele>
        <time>2021-08-07T08:14:48Z</time>
      </trkpt>
      <trkpt lat="50.79739" lon="2.50245">
        <ele>81.37</ele>
        <time>2021-08-07T08:14:54Z</time>
      </trkpt>
      <trkpt lat="50.79733" lon="2.50259">
        <ele>81.37</ele>
        <time>2021-08-07T08:14:56Z</time>
      </trkpt>
      <trkpt lat="50.79728" lon="2.50273">
        <ele>81.37</ele>
        <time>2021-08-07T08:14:58Z</time>
      </trkpt>
      <trkpt lat="50.79726" lon="2.50281">
        <ele>81.37</ele>
        <time>2021-08-07T08:14:59Z</time>
      </trkpt>
      <trkpt lat="50.79725" lon="2.50288">
        <ele>81.37</ele>
        <time>2021-08-07T08:15:00Z</time>
      </trkpt>
      <trkpt lat="50.79725" lon="2.50295">
        <ele>81.37</ele>
        <time>2021-08-07T08:15:01Z</time>
      </trkpt>
      <trkpt lat="50.79727" lon="2.50302">
        <ele>81.85</ele>
        <time>2021-08-07T08:15:02Z</time>
      </trkpt>
      <trkpt lat="50.79729" lon="2.50308">
        <ele>81.85</ele>
        <time>2021-08-07T08:15:03Z</time>
      </trkpt>
      <trkpt lat="50.7973" lon="2.50312">
        <ele>82.33</ele>
        <time>2021-08-07T08:15:04Z</time>
      </trkpt>
      <trkpt lat="50.79731" lon="2.50316">
        <ele>83.29</ele>
        <time>2021-08-07T08:15:05Z</time>
      </trkpt>
      <trkpt lat="50.79732" lon="2.5032">
        <ele>84.25</ele>
        <time>2021-08-07T08:15:06Z</time>
      </trkpt>
      <trkpt lat="50.79732" lon="2.50323">
        <ele>84.25</ele>
        <time>2021-08-07T08:15:07Z</time>
      </trkpt>
      <trkpt lat="50.79731" lon="2.50327">
        <ele>84.25</ele>
        <time>2021-08-07T08:15:08Z</time>
      </trkpt>
      <trkpt lat="50.7973" lon="2.5033">
        <ele>84.25</ele>
        <time>2021-08-07T08:15:09Z</time>
      </trkpt>
      <trkpt lat="50.79728" lon="2.50333">
        <ele>84.25</ele>
        <time>2021-08-07T08:15:10Z</time>
      </trkpt>
      <trkpt lat="50.79725" lon="2.50337">
        <ele>84.25</ele>
        <time>2021-08-07T08:15:11Z</time>
      </trkpt>
      <trkpt lat="50.79718" lon="2.50351">
        <ele>84.25</ele>
        <time>2021-08-07T08:15:14Z</time>
      </trkpt>
      <trkpt lat="50.79718" lon="2.50358">
        <ele>84.25</ele>
        <time>2021-08-07T08:15:15Z</time>
      </trkpt>
      <trkpt lat="50.79719" lon="2.50364">
        <ele>84.25</ele>
        <time>2021-08-07T08:15:16Z</time>
      </trkpt>
      <trkpt lat="50.79721" lon="2.50368">
        <ele>84.25</ele>
        <time>2021-08-07T08:15:17Z</time>
      </trkpt>
      <trkpt lat="50.79723" lon="2.50371">
        <ele>84.25</ele>
        <time>2021-08-07T08:15:18Z</time>
      </trkpt>
      <trkpt lat="50.79725" lon="2.50374">
        <ele>84.25</ele>
        <time>2021-08-07T08:15:19Z</time>
      </trkpt>
      <trkpt lat="50.79727" lon="2.50377">
        <ele>84.25</ele>
        <time>2021-08-07T08:15:20Z</time>
      </trkpt>
      <trkpt lat="50.79732" lon="2.50388">
        <ele>84.25</ele>
        <time>2021-08-07T08:15:23Z</time>
      </trkpt>
      <trkpt lat="50.79732" lon="2.50392">
        <ele>84.73</ele>
        <time>2021-08-07T08:15:24Z</time>
      </trkpt>
      <trkpt lat="50.79732" lon="2.50395">
        <ele>84.73</ele>
        <time>2021-08-07T08:15:25Z</time>
      </trkpt>
      <trkpt lat="50.79731" lon="2.50399">
        <ele>84.73</ele>
        <time>2021-08-07T08:15:26Z</time>
      </trkpt>
      <trkpt lat="50.7973" lon="2.50404">
        <ele>84.73</ele>
        <time>2021-08-07T08:15:27Z</time>
      </trkpt>
      <trkpt lat="50.79715" lon="2.50444">
        <ele>84.73</ele>
        <time>2021-08-07T08:15:35Z</time>
      </trkpt>
      <trkpt lat="50.79702" lon="2.50485">
        <ele>86.18</ele>
        <time>2021-08-07T08:15:43Z</time>
      </trkpt>
      <trkpt lat="50.79704" lon="2.50489">
        <ele>86.66</ele>
        <time>2021-08-07T08:15:44Z</time>
      </trkpt>
      <trkpt lat="50.79706" lon="2.50491">
        <ele>86.66</ele>
        <time>2021-08-07T08:15:45Z</time>
      </trkpt>
      <trkpt lat="50.79708" lon="2.50493">
        <ele>86.66</ele>
        <time>2021-08-07T08:15:46Z</time>
      </trkpt>
      <trkpt lat="50.79711" lon="2.50495">
        <ele>86.66</ele>
        <time>2021-08-07T08:15:47Z</time>
      </trkpt>
      <trkpt lat="50.79713" lon="2.50498">
        <ele>86.66</ele>
        <time>2021-08-07T08:15:48Z</time>
      </trkpt>
      <trkpt lat="50.79715" lon="2.505">
        <ele>86.66</ele>
        <time>2021-08-07T08:15:49Z</time>
      </trkpt>
      <trkpt lat="50.79717" lon="2.50502">
        <ele>86.66</ele>
        <time>2021-08-07T08:15:50Z</time>
      </trkpt>
      <trkpt lat="50.7972" lon="2.50504">
        <ele>86.66</ele>
        <time>2021-08-07T08:15:51Z</time>
      </trkpt>
      <trkpt lat="50.79738" lon="2.50521">
        <ele>89.06</ele>
        <time>2021-08-07T08:16:00Z</time>
      </trkpt>
      <trkpt lat="50.79751" lon="2.50532">
        <ele>91.46</ele>
        <time>2021-08-07T08:16:08Z</time>
      </trkpt>
      <trkpt lat="50.79758" lon="2.50545">
        <ele>93.39</ele>
        <time>2021-08-07T08:16:15Z</time>
      </trkpt>
      <trkpt lat="50.7976" lon="2.50552">
        <ele>93.87</ele>
        <time>2021-08-07T08:16:18Z</time>
      </trkpt>
      <trkpt lat="50.79759" lon="2.50554">
        <ele>94.35</ele>
        <time>2021-08-07T08:16:19Z</time>
      </trkpt>
      <trkpt lat="50.79759" lon="2.50557">
        <ele>94.35</ele>
        <time>2021-08-07T08:16:20Z</time>
      </trkpt>
      <trkpt lat="50.7976" lon="2.5056">
        <ele>94.35</ele>
        <time>2021-08-07T08:16:21Z</time>
      </trkpt>
      <trkpt lat="50.7976" lon="2.50563">
        <ele>94.35</ele>
        <time>2021-08-07T08:16:22Z</time>
      </trkpt>
      <trkpt lat="50.7976" lon="2.50566">
        <ele>95.31</ele>
        <time>2021-08-07T08:16:23Z</time>
      </trkpt>
      <trkpt lat="50.7976" lon="2.50569">
        <ele>95.31</ele>
        <time>2021-08-07T08:16:24Z</time>
      </trkpt>
      <trkpt lat="50.7976" lon="2.50572">
        <ele>95.31</ele>
        <time>2021-08-07T08:16:25Z</time>
      </trkpt>
      <trkpt lat="50.7976" lon="2.50574">
        <ele>95.79</ele>
        <time>2021-08-07T08:16:26Z</time>
      </trkpt>
      <trkpt lat="50.7976" lon="2.50577">
        <ele>96.27</ele>
        <time>2021-08-07T08:16:27Z</time>
      </trkpt>
      <trkpt lat="50.7976" lon="2.5058">
        <ele>96.27</ele>
        <time>2021-08-07T08:16:28Z</time>
      </trkpt>
      <trkpt lat="50.79766" lon="2.50605">
        <ele>97.71</ele>
        <time>2021-08-07T08:16:36Z</time>
      </trkpt>
      <trkpt lat="50.79775" lon="2.50637">
        <ele>98.19</ele>
        <time>2021-08-07T08:16:44Z</time>
      </trkpt>
      <trkpt lat="50.79791" lon="2.50684">
        <ele>98.19</ele>
        <time>2021-08-07T08:16:52Z</time>
      </trkpt>
      <trkpt lat="50.798" lon="2.50716">
        <ele>96.27</ele>
        <time>2021-08-07T08:16:58Z</time>
      </trkpt>
      <trkpt lat="50.79802" lon="2.50722">
        <ele>96.27</ele>
        <time>2021-08-07T08:16:59Z</time>
      </trkpt>
      <trkpt lat="50.79818" lon="2.50751">
        <ele>95.31</ele>
        <time>2021-08-07T08:17:04Z</time>
      </trkpt>
      <trkpt lat="50.79821" lon="2.50758">
        <ele>95.31</ele>
        <time>2021-08-07T08:17:05Z</time>
      </trkpt>
      <trkpt lat="50.79856" lon="2.50816">
        <ele>94.83</ele>
        <time>2021-08-07T08:17:13Z</time>
      </trkpt>
      <trkpt lat="50.79883" lon="2.50848">
        <ele>96.75</ele>
        <time>2021-08-07T08:17:20Z</time>
      </trkpt>
      <trkpt lat="50.79904" lon="2.50866">
        <ele>97.23</ele>
        <time>2021-08-07T08:17:27Z</time>
      </trkpt>
      <trkpt lat="50.79913" lon="2.50881">
        <ele>97.71</ele>
        <time>2021-08-07T08:17:31Z</time>
      </trkpt>
      <trkpt lat="50.79925" lon="2.50906">
        <ele>96.27</ele>
        <time>2021-08-07T08:17:35Z</time>
      </trkpt>
      <trkpt lat="50.79928" lon="2.50914">
        <ele>96.27</ele>
        <time>2021-08-07T08:17:36Z</time>
      </trkpt>
      <trkpt lat="50.79932" lon="2.50922">
        <ele>96.27</ele>
        <time>2021-08-07T08:17:37Z</time>
      </trkpt>
      <trkpt lat="50.79936" lon="2.50929">
        <ele>96.27</ele>
        <time>2021-08-07T08:17:38Z</time>
      </trkpt>
      <trkpt lat="50.79965" lon="2.50964">
        <ele>96.27</ele>
        <time>2021-08-07T08:17:44Z</time>
      </trkpt>
      <trkpt lat="50.79986" lon="2.50992">
        <ele>97.23</ele>
        <time>2021-08-07T08:17:49Z</time>
      </trkpt>
      <trkpt lat="50.79991" lon="2.50996">
        <ele>97.23</ele>
        <time>2021-08-07T08:17:50Z</time>
      </trkpt>
      <trkpt lat="50.80014" lon="2.51012">
        <ele>98.19</ele>
        <time>2021-08-07T08:17:55Z</time>
      </trkpt>
      <trkpt lat="50.80035" lon="2.51021">
        <ele>98.67</ele>
        <time>2021-08-07T08:17:59Z</time>
      </trkpt>
      <trkpt lat="50.80051" lon="2.51016">
        <ele>100.11</ele>
        <time>2021-08-07T08:18:04Z</time>
      </trkpt>
      <trkpt lat="50.80054" lon="2.51015">
        <ele>100.11</ele>
        <time>2021-08-07T08:18:07Z</time>
      </trkpt>
      <trkpt lat="50.80056" lon="2.51015">
        <ele>100.11</ele>
        <time>2021-08-07T08:18:08Z</time>
      </trkpt>
      <trkpt lat="50.80058" lon="2.51014">
        <ele>100.6</ele>
        <time>2021-08-07T08:18:12Z</time>
      </trkpt>
      <trkpt lat="50.80057" lon="2.51014">
        <ele>100.6</ele>
        <time>2021-08-07T08:18:17Z</time>
      </trkpt>
      <trkpt lat="50.80055" lon="2.51016">
        <ele>100.6</ele>
        <time>2021-08-07T08:18:22Z</time>
      </trkpt>
      <trkpt lat="50.80052" lon="2.51016">
        <ele>100.6</ele>
        <time>2021-08-07T08:18:25Z</time>
      </trkpt>
      <trkpt lat="50.80051" lon="2.51014">
        <ele>100.6</ele>
        <time>2021-08-07T08:18:27Z</time>
      </trkpt>
      <trkpt lat="50.80051" lon="2.51011">
        <ele>100.6</ele>
        <time>2021-08-07T08:18:28Z</time>
      </trkpt>
      <trkpt lat="50.80051" lon="2.51009">
        <ele>100.6</ele>
        <time>2021-08-07T08:18:29Z</time>
      </trkpt>
      <trkpt lat="50.80052" lon="2.50999">
        <ele>102.52</ele>
        <time>2021-08-07T08:18:36Z</time>
      </trkpt>
      <trkpt lat="50.80053" lon="2.50994">
        <ele>103</ele>
        <time>2021-08-07T08:18:38Z</time>
      </trkpt>
      <trkpt lat="50.80055" lon="2.50993">
        <ele>103.48</ele>
        <time>2021-08-07T08:18:39Z</time>
      </trkpt>
      <trkpt lat="50.80057" lon="2.50992">
        <ele>103.48</ele>
        <time>2021-08-07T08:18:40Z</time>
      </trkpt>
      <trkpt lat="50.80058" lon="2.50991">
        <ele>103.48</ele>
        <time>2021-08-07T08:18:41Z</time>
      </trkpt>
      <trkpt lat="50.80059" lon="2.50989">
        <ele>103.96</ele>
        <time>2021-08-07T08:18:42Z</time>
      </trkpt>
      <trkpt lat="50.80061" lon="2.50988">
        <ele>103.96</ele>
        <time>2021-08-07T08:18:43Z</time>
      </trkpt>
      <trkpt lat="50.80062" lon="2.50987">
        <ele>103.96</ele>
        <time>2021-08-07T08:18:44Z</time>
      </trkpt>
      <trkpt lat="50.80077" lon="2.50982">
        <ele>103.96</ele>
        <time>2021-08-07T08:18:51Z</time>
      </trkpt>
      <trkpt lat="50.80088" lon="2.50981">
        <ele>103.96</ele>
        <time>2021-08-07T08:18:55Z</time>
      </trkpt>
      <trkpt lat="50.8009" lon="2.50983">
        <ele>103.96</ele>
        <time>2021-08-07T08:18:56Z</time>
      </trkpt>
      <trkpt lat="50.80107" lon="2.50994">
        <ele>102.52</ele>
        <time>2021-08-07T08:19:02Z</time>
      </trkpt>
      <trkpt lat="50.80132" lon="2.51009">
        <ele>101.08</ele>
        <time>2021-08-07T08:19:09Z</time>
      </trkpt>
      <trkpt lat="50.80143" lon="2.51017">
        <ele>101.08</ele>
        <time>2021-08-07T08:19:12Z</time>
      </trkpt>
      <trkpt lat="50.80146" lon="2.5102">
        <ele>101.08</ele>
        <time>2021-08-07T08:19:13Z</time>
      </trkpt>
      <trkpt lat="50.80176" lon="2.5105">
        <ele>102.52</ele>
        <time>2021-08-07T08:19:21Z</time>
      </trkpt>
      <trkpt lat="50.80189" lon="2.51072">
        <ele>103</ele>
        <time>2021-08-07T08:19:26Z</time>
      </trkpt>
      <trkpt lat="50.80202" lon="2.51115">
        <ele>100.11</ele>
        <time>2021-08-07T08:19:31Z</time>
      </trkpt>
      <trkpt lat="50.8022" lon="2.51156">
        <ele>96.27</ele>
        <time>2021-08-07T08:19:35Z</time>
      </trkpt>
      <trkpt lat="50.80225" lon="2.51166">
        <ele>96.27</ele>
        <time>2021-08-07T08:19:36Z</time>
      </trkpt>
      <trkpt lat="50.80248" lon="2.51207">
        <ele>94.35</ele>
        <time>2021-08-07T08:19:41Z</time>
      </trkpt>
      <trkpt lat="50.8025" lon="2.51213">
        <ele>93.87</ele>
        <time>2021-08-07T08:19:42Z</time>
      </trkpt>
      <trkpt lat="50.80252" lon="2.5122">
        <ele>93.87</ele>
        <time>2021-08-07T08:19:43Z</time>
      </trkpt>
      <trkpt lat="50.80254" lon="2.51225">
        <ele>93.87</ele>
        <time>2021-08-07T08:19:44Z</time>
      </trkpt>
      <trkpt lat="50.80258" lon="2.51235">
        <ele>93.87</ele>
        <time>2021-08-07T08:19:46Z</time>
      </trkpt>
      <trkpt lat="50.8026" lon="2.51241">
        <ele>93.39</ele>
        <time>2021-08-07T08:19:47Z</time>
      </trkpt>
      <trkpt lat="50.80262" lon="2.51247">
        <ele>92.42</ele>
        <time>2021-08-07T08:19:48Z</time>
      </trkpt>
      <trkpt lat="50.80282" lon="2.51297">
        <ele>89.06</ele>
        <time>2021-08-07T08:19:54Z</time>
      </trkpt>
      <trkpt lat="50.80302" lon="2.51353">
        <ele>86.18</ele>
        <time>2021-08-07T08:19:59Z</time>
      </trkpt>
      <trkpt lat="50.80318" lon="2.51419">
        <ele>83.29</ele>
        <time>2021-08-07T08:20:04Z</time>
      </trkpt>
      <trkpt lat="50.80331" lon="2.51475">
        <ele>79.45</ele>
        <time>2021-08-07T08:20:08Z</time>
      </trkpt>
      <trkpt lat="50.80334" lon="2.51488">
        <ele>79.45</ele>
        <time>2021-08-07T08:20:09Z</time>
      </trkpt>
      <trkpt lat="50.80348" lon="2.51545">
        <ele>76.08</ele>
        <time>2021-08-07T08:20:13Z</time>
      </trkpt>
      <trkpt lat="50.80354" lon="2.5157">
        <ele>75.6</ele>
        <time>2021-08-07T08:20:15Z</time>
      </trkpt>
      <trkpt lat="50.80361" lon="2.51598">
        <ele>74.16</ele>
        <time>2021-08-07T08:20:18Z</time>
      </trkpt>
      <trkpt lat="50.80361" lon="2.51605">
        <ele>74.64</ele>
        <time>2021-08-07T08:20:19Z</time>
      </trkpt>
      <trkpt lat="50.80359" lon="2.51611">
        <ele>74.64</ele>
        <time>2021-08-07T08:20:20Z</time>
      </trkpt>
      <trkpt lat="50.80355" lon="2.51614">
        <ele>74.64</ele>
        <time>2021-08-07T08:20:21Z</time>
      </trkpt>
      <trkpt lat="50.80351" lon="2.51616">
        <ele>74.64</ele>
        <time>2021-08-07T08:20:22Z</time>
      </trkpt>
      <trkpt lat="50.80347" lon="2.51618">
        <ele>74.64</ele>
        <time>2021-08-07T08:20:23Z</time>
      </trkpt>
      <trkpt lat="50.80342" lon="2.5162">
        <ele>74.64</ele>
        <time>2021-08-07T08:20:24Z</time>
      </trkpt>
      <trkpt lat="50.80337" lon="2.51622">
        <ele>74.16</ele>
        <time>2021-08-07T08:20:25Z</time>
      </trkpt>
      <trkpt lat="50.80332" lon="2.51625">
        <ele>73.68</ele>
        <time>2021-08-07T08:20:26Z</time>
      </trkpt>
      <trkpt lat="50.80309" lon="2.51636">
        <ele>71.27</ele>
        <time>2021-08-07T08:20:32Z</time>
      </trkpt>
      <trkpt lat="50.80309" lon="2.51636">
        <ele>71.27</ele>
        <time>2021-08-07T08:20:33Z</time>
      </trkpt>
      <trkpt lat="50.80308" lon="2.51639">
        <ele>71.27</ele>
        <time>2021-08-07T08:20:34Z</time>
      </trkpt>
      <trkpt lat="50.80299" lon="2.51669">
        <ele>68.39</ele>
        <time>2021-08-07T08:20:40Z</time>
      </trkpt>
      <trkpt lat="50.80287" lon="2.51716">
        <ele>65.51</ele>
        <time>2021-08-07T08:20:46Z</time>
      </trkpt>
      <trkpt lat="50.80285" lon="2.51724">
        <ele>65.51</ele>
        <time>2021-08-07T08:20:47Z</time>
      </trkpt>
      <trkpt lat="50.80282" lon="2.51742">
        <ele>65.03</ele>
        <time>2021-08-07T08:20:49Z</time>
      </trkpt>
      <trkpt lat="50.80282" lon="2.51752">
        <ele>65.03</ele>
        <time>2021-08-07T08:20:50Z</time>
      </trkpt>
      <trkpt lat="50.80282" lon="2.51763">
        <ele>64.55</ele>
        <time>2021-08-07T08:20:51Z</time>
      </trkpt>
      <trkpt lat="50.80285" lon="2.51823">
        <ele>63.58</ele>
        <time>2021-08-07T08:20:56Z</time>
      </trkpt>
      <trkpt lat="50.80287" lon="2.51833">
        <ele>63.58</ele>
        <time>2021-08-07T08:20:57Z</time>
      </trkpt>
      <trkpt lat="50.803" lon="2.51896">
        <ele>63.58</ele>
        <time>2021-08-07T08:21:03Z</time>
      </trkpt>
      <trkpt lat="50.80317" lon="2.51981">
        <ele>60.7</ele>
        <time>2021-08-07T08:21:11Z</time>
      </trkpt>
      <trkpt lat="50.80321" lon="2.52016">
        <ele>60.22</ele>
        <time>2021-08-07T08:21:14Z</time>
      </trkpt>
      <trkpt lat="50.80319" lon="2.52028">
        <ele>59.74</ele>
        <time>2021-08-07T08:21:15Z</time>
      </trkpt>
      <trkpt lat="50.80316" lon="2.52038">
        <ele>59.26</ele>
        <time>2021-08-07T08:21:16Z</time>
      </trkpt>
      <trkpt lat="50.80293" lon="2.521">
        <ele>56.37</ele>
        <time>2021-08-07T08:21:22Z</time>
      </trkpt>
      <trkpt lat="50.80291" lon="2.52112">
        <ele>55.41</ele>
        <time>2021-08-07T08:21:23Z</time>
      </trkpt>
      <trkpt lat="50.8029" lon="2.52124">
        <ele>55.41</ele>
        <time>2021-08-07T08:21:24Z</time>
      </trkpt>
      <trkpt lat="50.80287" lon="2.52163">
        <ele>53.97</ele>
        <time>2021-08-07T08:21:27Z</time>
      </trkpt>
      <trkpt lat="50.80285" lon="2.52202">
        <ele>52.05</ele>
        <time>2021-08-07T08:21:30Z</time>
      </trkpt>
      <trkpt lat="50.80281" lon="2.52274">
        <ele>48.68</ele>
        <time>2021-08-07T08:21:35Z</time>
      </trkpt>
      <trkpt lat="50.80281" lon="2.52289">
        <ele>48.68</ele>
        <time>2021-08-07T08:21:36Z</time>
      </trkpt>
      <trkpt lat="50.80281" lon="2.52379">
        <ele>45.8</ele>
        <time>2021-08-07T08:21:42Z</time>
      </trkpt>
      <trkpt lat="50.80289" lon="2.52538">
        <ele>44.36</ele>
        <time>2021-08-07T08:21:53Z</time>
      </trkpt>
      <trkpt lat="50.80288" lon="2.52552">
        <ele>44.36</ele>
        <time>2021-08-07T08:21:54Z</time>
      </trkpt>
      <trkpt lat="50.80285" lon="2.52562">
        <ele>43.88</ele>
        <time>2021-08-07T08:21:55Z</time>
      </trkpt>
      <trkpt lat="50.80281" lon="2.52572">
        <ele>42.92</ele>
        <time>2021-08-07T08:21:56Z</time>
      </trkpt>
      <trkpt lat="50.80275" lon="2.5258">
        <ele>42.92</ele>
        <time>2021-08-07T08:21:57Z</time>
      </trkpt>
      <trkpt lat="50.80269" lon="2.52587">
        <ele>42.44</ele>
        <time>2021-08-07T08:21:58Z</time>
      </trkpt>
      <trkpt lat="50.80262" lon="2.52594">
        <ele>42.44</ele>
        <time>2021-08-07T08:21:59Z</time>
      </trkpt>
      <trkpt lat="50.80256" lon="2.52602">
        <ele>41.95</ele>
        <time>2021-08-07T08:22:00Z</time>
      </trkpt>
      <trkpt lat="50.8025" lon="2.52612">
        <ele>41.47</ele>
        <time>2021-08-07T08:22:01Z</time>
      </trkpt>
      <trkpt lat="50.80246" lon="2.52622">
        <ele>40.51</ele>
        <time>2021-08-07T08:22:02Z</time>
      </trkpt>
      <trkpt lat="50.80242" lon="2.52632">
        <ele>40.51</ele>
        <time>2021-08-07T08:22:03Z</time>
      </trkpt>
      <trkpt lat="50.80238" lon="2.52644">
        <ele>40.03</ele>
        <time>2021-08-07T08:22:04Z</time>
      </trkpt>
      <trkpt lat="50.8022" lon="2.52698">
        <ele>39.55</ele>
        <time>2021-08-07T08:22:09Z</time>
      </trkpt>
      <trkpt lat="50.80218" lon="2.52709">
        <ele>39.55</ele>
        <time>2021-08-07T08:22:10Z</time>
      </trkpt>
      <trkpt lat="50.80197" lon="2.52809">
        <ele>39.07</ele>
        <time>2021-08-07T08:22:19Z</time>
      </trkpt>
      <trkpt lat="50.80188" lon="2.52849">
        <ele>39.07</ele>
        <time>2021-08-07T08:22:23Z</time>
      </trkpt>
      <trkpt lat="50.80187" lon="2.52859">
        <ele>39.07</ele>
        <time>2021-08-07T08:22:24Z</time>
      </trkpt>
      <trkpt lat="50.80187" lon="2.52868">
        <ele>39.07</ele>
        <time>2021-08-07T08:22:25Z</time>
      </trkpt>
      <trkpt lat="50.80187" lon="2.52878">
        <ele>39.07</ele>
        <time>2021-08-07T08:22:26Z</time>
      </trkpt>
      <trkpt lat="50.80188" lon="2.52888">
        <ele>38.59</ele>
        <time>2021-08-07T08:22:27Z</time>
      </trkpt>
      <trkpt lat="50.80189" lon="2.52906">
        <ele>38.59</ele>
        <time>2021-08-07T08:22:29Z</time>
      </trkpt>
      <trkpt lat="50.80188" lon="2.52915">
        <ele>39.55</ele>
        <time>2021-08-07T08:22:30Z</time>
      </trkpt>
      <trkpt lat="50.8018" lon="2.52968">
        <ele>38.11</ele>
        <time>2021-08-07T08:22:36Z</time>
      </trkpt>
      <trkpt lat="50.80156" lon="2.53043">
        <ele>38.11</ele>
        <time>2021-08-07T08:22:45Z</time>
      </trkpt>
      <trkpt lat="50.80123" lon="2.53113">
        <ele>37.63</ele>
        <time>2021-08-07T08:22:54Z</time>
      </trkpt>
      <trkpt lat="50.8008" lon="2.532">
        <ele>35.71</ele>
        <time>2021-08-07T08:23:05Z</time>
      </trkpt>
      <trkpt lat="50.80047" lon="2.53277">
        <ele>35.23</ele>
        <time>2021-08-07T08:23:14Z</time>
      </trkpt>
      <trkpt lat="50.80011" lon="2.5337">
        <ele>33.78</ele>
        <time>2021-08-07T08:23:24Z</time>
      </trkpt>
      <trkpt lat="50.7998" lon="2.53463">
        <ele>31.86</ele>
        <time>2021-08-07T08:23:33Z</time>
      </trkpt>
      <trkpt lat="50.79977" lon="2.53473">
        <ele>30.9</ele>
        <time>2021-08-07T08:23:34Z</time>
      </trkpt>
      <trkpt lat="50.79972" lon="2.53494">
        <ele>30.9</ele>
        <time>2021-08-07T08:23:36Z</time>
      </trkpt>
      <trkpt lat="50.79959" lon="2.53534">
        <ele>30.42</ele>
        <time>2021-08-07T08:23:40Z</time>
      </trkpt>
      <trkpt lat="50.79944" lon="2.53583">
        <ele>29.94</ele>
        <time>2021-08-07T08:23:45Z</time>
      </trkpt>
      <trkpt lat="50.7994" lon="2.53589">
        <ele>29.94</ele>
        <time>2021-08-07T08:23:46Z</time>
      </trkpt>
      <trkpt lat="50.79936" lon="2.53595">
        <ele>29.94</ele>
        <time>2021-08-07T08:23:47Z</time>
      </trkpt>
      <trkpt lat="50.79931" lon="2.536">
        <ele>29.94</ele>
        <time>2021-08-07T08:23:48Z</time>
      </trkpt>
      <trkpt lat="50.79926" lon="2.53605">
        <ele>29.94</ele>
        <time>2021-08-07T08:23:49Z</time>
      </trkpt>
      <trkpt lat="50.79899" lon="2.53631">
        <ele>32.34</ele>
        <time>2021-08-07T08:23:55Z</time>
      </trkpt>
      <trkpt lat="50.79888" lon="2.53643">
        <ele>33.3</ele>
        <time>2021-08-07T08:23:58Z</time>
      </trkpt>
      <trkpt lat="50.79884" lon="2.53647">
        <ele>33.78</ele>
        <time>2021-08-07T08:23:59Z</time>
      </trkpt>
      <trkpt lat="50.7988" lon="2.53651">
        <ele>33.78</ele>
        <time>2021-08-07T08:24:00Z</time>
      </trkpt>
      <trkpt lat="50.79877" lon="2.53655">
        <ele>33.78</ele>
        <time>2021-08-07T08:24:01Z</time>
      </trkpt>
      <trkpt lat="50.79874" lon="2.5366">
        <ele>33.78</ele>
        <time>2021-08-07T08:24:02Z</time>
      </trkpt>
      <trkpt lat="50.79872" lon="2.53665">
        <ele>33.78</ele>
        <time>2021-08-07T08:24:03Z</time>
      </trkpt>
      <trkpt lat="50.79871" lon="2.53672">
        <ele>33.78</ele>
        <time>2021-08-07T08:24:04Z</time>
      </trkpt>
      <trkpt lat="50.79871" lon="2.53678">
        <ele>33.78</ele>
        <time>2021-08-07T08:24:05Z</time>
      </trkpt>
      <trkpt lat="50.79872" lon="2.53684">
        <ele>33.78</ele>
        <time>2021-08-07T08:24:06Z</time>
      </trkpt>
      <trkpt lat="50.79872" lon="2.53691">
        <ele>33.78</ele>
        <time>2021-08-07T08:24:07Z</time>
      </trkpt>
      <trkpt lat="50.79873" lon="2.53698">
        <ele>33.78</ele>
        <time>2021-08-07T08:24:08Z</time>
      </trkpt>
      <trkpt lat="50.79884" lon="2.53768">
        <ele>33.78</ele>
        <time>2021-08-07T08:24:18Z</time>
      </trkpt>
      <trkpt lat="50.79885" lon="2.53783">
        <ele>33.78</ele>
        <time>2021-08-07T08:24:21Z</time>
      </trkpt>
      <trkpt lat="50.79887" lon="2.53784">
        <ele>33.78</ele>
        <time>2021-08-07T08:24:22Z</time>
      </trkpt>
      <trkpt lat="50.79886" lon="2.53777">
        <ele>33.78</ele>
        <time>2021-08-07T08:24:26Z</time>
      </trkpt>
      <trkpt lat="50.79885" lon="2.53778">
        <ele>33.78</ele>
        <time>2021-08-07T08:24:28Z</time>
      </trkpt>
      <trkpt lat="50.79888" lon="2.53789">
        <ele>33.78</ele>
        <time>2021-08-07T08:24:34Z</time>
      </trkpt>
      <trkpt lat="50.79888" lon="2.53793">
        <ele>33.78</ele>
        <time>2021-08-07T08:24:35Z</time>
      </trkpt>
      <trkpt lat="50.79889" lon="2.53798">
        <ele>33.78</ele>
        <time>2021-08-07T08:24:36Z</time>
      </trkpt>
      <trkpt lat="50.7989" lon="2.53804">
        <ele>33.78</ele>
        <time>2021-08-07T08:24:37Z</time>
      </trkpt>
      <trkpt lat="50.79894" lon="2.53848">
        <ele>33.78</ele>
        <time>2021-08-07T08:24:44Z</time>
      </trkpt>
      <trkpt lat="50.7989" lon="2.53855">
        <ele>33.78</ele>
        <time>2021-08-07T08:24:46Z</time>
      </trkpt>
      <trkpt lat="50.79887" lon="2.53856">
        <ele>33.78</ele>
        <time>2021-08-07T08:24:47Z</time>
      </trkpt>
      <trkpt lat="50.7987" lon="2.53861">
        <ele>33.78</ele>
        <time>2021-08-07T08:24:53Z</time>
      </trkpt>
      <trkpt lat="50.79862" lon="2.53865">
        <ele>34.26</ele>
        <time>2021-08-07T08:24:59Z</time>
      </trkpt>
      <trkpt lat="50.79863" lon="2.53865">
        <ele>34.26</ele>
        <time>2021-08-07T08:25:01Z</time>
      </trkpt>
      <trkpt lat="50.79862" lon="2.53889">
        <ele>34.26</ele>
        <time>2021-08-07T08:25:08Z</time>
      </trkpt>
      <trkpt lat="50.79863" lon="2.53925">
        <ele>34.74</ele>
        <time>2021-08-07T08:25:16Z</time>
      </trkpt>
      <trkpt lat="50.79862" lon="2.53928">
        <ele>34.74</ele>
        <time>2021-08-07T08:25:24Z</time>
      </trkpt>
      <trkpt lat="50.79864" lon="2.5393">
        <ele>34.74</ele>
        <time>2021-08-07T08:25:29Z</time>
      </trkpt>
      <trkpt lat="50.79865" lon="2.5393">
        <ele>34.74</ele>
        <time>2021-08-07T08:25:30Z</time>
      </trkpt>
      <trkpt lat="50.79867" lon="2.5393">
        <ele>34.74</ele>
        <time>2021-08-07T08:25:31Z</time>
      </trkpt>
      <trkpt lat="50.79868" lon="2.5393">
        <ele>34.74</ele>
        <time>2021-08-07T08:25:32Z</time>
      </trkpt>
      <trkpt lat="50.7987" lon="2.53929">
        <ele>34.74</ele>
        <time>2021-08-07T08:25:33Z</time>
      </trkpt>
      <trkpt lat="50.79874" lon="2.5393">
        <ele>34.74</ele>
        <time>2021-08-07T08:25:38Z</time>
      </trkpt>
      <trkpt lat="50.79874" lon="2.53931">
        <ele>35.23</ele>
        <time>2021-08-07T08:25:55Z</time>
      </trkpt>
      <trkpt lat="50.79875" lon="2.53929">
        <ele>35.23</ele>
        <time>2021-08-07T08:26:07Z</time>
      </trkpt>
      <trkpt lat="50.79875" lon="2.53927">
        <ele>35.23</ele>
        <time>2021-08-07T08:26:20Z</time>
      </trkpt>
      <trkpt lat="50.79876" lon="2.53925">
        <ele>35.23</ele>
        <time>2021-08-07T08:26:30Z</time>
      </trkpt>
      <trkpt lat="50.79876" lon="2.53925">
        <ele>35.23</ele>
        <time>2021-08-07T08:26:41Z</time>
      </trkpt>
      <trkpt lat="50.79875" lon="2.53926">
        <ele>35.23</ele>
        <time>2021-08-07T08:26:49Z</time>
      </trkpt>
      <trkpt lat="50.79874" lon="2.53927">
        <ele>35.23</ele>
        <time>2021-08-07T08:27:00Z</time>
      </trkpt>
      <trkpt lat="50.79874" lon="2.53923">
        <ele>35.71</ele>
        <time>2021-08-07T08:27:09Z</time>
      </trkpt>
      <trkpt lat="50.79873" lon="2.53922">
        <ele>35.71</ele>
        <time>2021-08-07T08:27:10Z</time>
      </trkpt>
      <trkpt lat="50.79871" lon="2.53921">
        <ele>35.71</ele>
        <time>2021-08-07T08:27:11Z</time>
      </trkpt>
      <trkpt lat="50.7987" lon="2.53921">
        <ele>35.71</ele>
        <time>2021-08-07T08:27:12Z</time>
      </trkpt>
      <trkpt lat="50.79868" lon="2.53922">
        <ele>35.71</ele>
        <time>2021-08-07T08:27:13Z</time>
      </trkpt>
      <trkpt lat="50.79866" lon="2.53922">
        <ele>34.74</ele>
        <time>2021-08-07T08:27:14Z</time>
      </trkpt>
      <trkpt lat="50.79864" lon="2.53922">
        <ele>34.74</ele>
        <time>2021-08-07T08:27:15Z</time>
      </trkpt>
      <trkpt lat="50.79862" lon="2.53919">
        <ele>34.74</ele>
        <time>2021-08-07T08:27:16Z</time>
      </trkpt>
      <trkpt lat="50.79862" lon="2.53916">
        <ele>34.26</ele>
        <time>2021-08-07T08:27:17Z</time>
      </trkpt>
      <trkpt lat="50.79861" lon="2.53912">
        <ele>34.26</ele>
        <time>2021-08-07T08:27:18Z</time>
      </trkpt>
      <trkpt lat="50.79862" lon="2.53907">
        <ele>34.26</ele>
        <time>2021-08-07T08:27:19Z</time>
      </trkpt>
      <trkpt lat="50.79862" lon="2.53902">
        <ele>34.26</ele>
        <time>2021-08-07T08:27:20Z</time>
      </trkpt>
      <trkpt lat="50.79866" lon="2.53861">
        <ele>34.26</ele>
        <time>2021-08-07T08:27:28Z</time>
      </trkpt>
      <trkpt lat="50.79868" lon="2.53859">
        <ele>34.26</ele>
        <time>2021-08-07T08:27:29Z</time>
      </trkpt>
      <trkpt lat="50.79871" lon="2.53854">
        <ele>34.26</ele>
        <time>2021-08-07T08:27:31Z</time>
      </trkpt>
      <trkpt lat="50.79871" lon="2.53852">
        <ele>34.26</ele>
        <time>2021-08-07T08:27:32Z</time>
      </trkpt>
      <trkpt lat="50.79871" lon="2.5385">
        <ele>33.78</ele>
        <time>2021-08-07T08:27:37Z</time>
      </trkpt>
      <trkpt lat="50.79872" lon="2.53833">
        <ele>33.78</ele>
        <time>2021-08-07T08:27:44Z</time>
      </trkpt>
      <trkpt lat="50.79873" lon="2.53831">
        <ele>33.78</ele>
        <time>2021-08-07T08:27:45Z</time>
      </trkpt>
      <trkpt lat="50.79874" lon="2.53832">
        <ele>33.78</ele>
        <time>2021-08-07T08:27:46Z</time>
      </trkpt>
      <trkpt lat="50.79875" lon="2.53834">
        <ele>33.78</ele>
        <time>2021-08-07T08:27:47Z</time>
      </trkpt>
      <trkpt lat="50.79874" lon="2.53836">
        <ele>33.78</ele>
        <time>2021-08-07T08:27:48Z</time>
      </trkpt>
      <trkpt lat="50.79872" lon="2.53839">
        <ele>33.78</ele>
        <time>2021-08-07T08:27:49Z</time>
      </trkpt>
      <trkpt lat="50.79869" lon="2.53848">
        <ele>33.78</ele>
        <time>2021-08-07T08:27:52Z</time>
      </trkpt>
      <trkpt lat="50.7987" lon="2.53851">
        <ele>33.78</ele>
        <time>2021-08-07T08:27:53Z</time>
      </trkpt>
      <trkpt lat="50.7987" lon="2.53853">
        <ele>33.78</ele>
        <time>2021-08-07T08:27:54Z</time>
      </trkpt>
      <trkpt lat="50.79872" lon="2.53856">
        <ele>33.78</ele>
        <time>2021-08-07T08:27:55Z</time>
      </trkpt>
      <trkpt lat="50.79875" lon="2.53858">
        <ele>33.78</ele>
        <time>2021-08-07T08:27:56Z</time>
      </trkpt>
      <trkpt lat="50.79878" lon="2.53857">
        <ele>33.78</ele>
        <time>2021-08-07T08:27:57Z</time>
      </trkpt>
      <trkpt lat="50.79881" lon="2.53855">
        <ele>33.78</ele>
        <time>2021-08-07T08:27:58Z</time>
      </trkpt>
      <trkpt lat="50.79885" lon="2.53854">
        <ele>33.78</ele>
        <time>2021-08-07T08:27:59Z</time>
      </trkpt>
      <trkpt lat="50.79905" lon="2.53852">
        <ele>33.78</ele>
        <time>2021-08-07T08:28:05Z</time>
      </trkpt>
      <trkpt lat="50.79913" lon="2.53865">
        <ele>32.82</ele>
        <time>2021-08-07T08:28:08Z</time>
      </trkpt>
      <trkpt lat="50.79915" lon="2.53871">
        <ele>32.82</ele>
        <time>2021-08-07T08:28:09Z</time>
      </trkpt>
      <trkpt lat="50.79917" lon="2.53877">
        <ele>32.82</ele>
        <time>2021-08-07T08:28:10Z</time>
      </trkpt>
      <trkpt lat="50.79918" lon="2.53884">
        <ele>32.82</ele>
        <time>2021-08-07T08:28:11Z</time>
      </trkpt>
      <trkpt lat="50.79919" lon="2.53891">
        <ele>32.82</ele>
        <time>2021-08-07T08:28:12Z</time>
      </trkpt>
      <trkpt lat="50.7992" lon="2.53899">
        <ele>32.82</ele>
        <time>2021-08-07T08:28:13Z</time>
      </trkpt>
      <trkpt lat="50.79921" lon="2.53931">
        <ele>32.34</ele>
        <time>2021-08-07T08:28:17Z</time>
      </trkpt>
      <trkpt lat="50.7992" lon="2.53938">
        <ele>32.34</ele>
        <time>2021-08-07T08:28:18Z</time>
      </trkpt>
      <trkpt lat="50.79917" lon="2.53944">
        <ele>32.34</ele>
        <time>2021-08-07T08:28:19Z</time>
      </trkpt>
      <trkpt lat="50.79913" lon="2.53948">
        <ele>32.34</ele>
        <time>2021-08-07T08:28:20Z</time>
      </trkpt>
      <trkpt lat="50.7991" lon="2.53951">
        <ele>32.34</ele>
        <time>2021-08-07T08:28:21Z</time>
      </trkpt>
      <trkpt lat="50.79881" lon="2.53971">
        <ele>33.78</ele>
        <time>2021-08-07T08:28:29Z</time>
      </trkpt>
      <trkpt lat="50.79873" lon="2.53976">
        <ele>33.78</ele>
        <time>2021-08-07T08:28:31Z</time>
      </trkpt>
      <trkpt lat="50.7987" lon="2.53978">
        <ele>34.26</ele>
        <time>2021-08-07T08:28:32Z</time>
      </trkpt>
      <trkpt lat="50.79868" lon="2.53983">
        <ele>34.26</ele>
        <time>2021-08-07T08:28:33Z</time>
      </trkpt>
      <trkpt lat="50.79867" lon="2.53989">
        <ele>34.26</ele>
        <time>2021-08-07T08:28:34Z</time>
      </trkpt>
      <trkpt lat="50.79867" lon="2.53995">
        <ele>34.26</ele>
        <time>2021-08-07T08:28:35Z</time>
      </trkpt>
      <trkpt lat="50.79866" lon="2.54002">
        <ele>34.26</ele>
        <time>2021-08-07T08:28:36Z</time>
      </trkpt>
      <trkpt lat="50.79866" lon="2.54012">
        <ele>34.26</ele>
        <time>2021-08-07T08:28:38Z</time>
      </trkpt>
      <trkpt lat="50.79864" lon="2.54017">
        <ele>34.26</ele>
        <time>2021-08-07T08:28:39Z</time>
      </trkpt>
      <trkpt lat="50.79863" lon="2.54021">
        <ele>34.74</ele>
        <time>2021-08-07T08:28:40Z</time>
      </trkpt>
      <trkpt lat="50.79863" lon="2.54024">
        <ele>35.23</ele>
        <time>2021-08-07T08:28:44Z</time>
      </trkpt>
      <trkpt lat="50.79864" lon="2.54028">
        <ele>35.23</ele>
        <time>2021-08-07T08:29:04Z</time>
      </trkpt>
      <trkpt lat="50.79864" lon="2.54029">
        <ele>35.23</ele>
        <time>2021-08-07T08:29:07Z</time>
      </trkpt>
      <trkpt lat="50.79864" lon="2.54031">
        <ele>35.23</ele>
        <time>2021-08-07T08:29:08Z</time>
      </trkpt>
      <trkpt lat="50.79865" lon="2.54032">
        <ele>33.78</ele>
        <time>2021-08-07T08:29:09Z</time>
      </trkpt>
      <trkpt lat="50.79866" lon="2.54034">
        <ele>34.26</ele>
        <time>2021-08-07T08:29:10Z</time>
      </trkpt>
      <trkpt lat="50.79867" lon="2.54034">
        <ele>34.26</ele>
        <time>2021-08-07T08:29:11Z</time>
      </trkpt>
      <trkpt lat="50.79868" lon="2.54033">
        <ele>34.26</ele>
        <time>2021-08-07T08:29:12Z</time>
      </trkpt>
      <trkpt lat="50.79869" lon="2.5403">
        <ele>33.78</ele>
        <time>2021-08-07T08:29:13Z</time>
      </trkpt>
      <trkpt lat="50.79869" lon="2.54027">
        <ele>33.78</ele>
        <time>2021-08-07T08:29:14Z</time>
      </trkpt>
      <trkpt lat="50.7987" lon="2.54024">
        <ele>33.78</ele>
        <time>2021-08-07T08:29:15Z</time>
      </trkpt>
      <trkpt lat="50.79866" lon="2.54001">
        <ele>33.78</ele>
        <time>2021-08-07T08:29:20Z</time>
      </trkpt>
      <trkpt lat="50.79861" lon="2.53975">
        <ele>34.26</ele>
        <time>2021-08-07T08:29:27Z</time>
      </trkpt>
      <trkpt lat="50.7986" lon="2.53975">
        <ele>34.26</ele>
        <time>2021-08-07T08:29:33Z</time>
      </trkpt>
      <trkpt lat="50.7986" lon="2.53971">
        <ele>34.26</ele>
        <time>2021-08-07T08:29:40Z</time>
      </trkpt>
      <trkpt lat="50.7986" lon="2.53971">
        <ele>35.23</ele>
        <time>2021-08-07T08:29:42Z</time>
      </trkpt>
      <trkpt lat="50.79861" lon="2.53973">
        <ele>35.23</ele>
        <time>2021-08-07T08:29:58Z</time>
      </trkpt>
      <trkpt lat="50.7986" lon="2.53972">
        <ele>35.23</ele>
        <time>2021-08-07T08:30:14Z</time>
      </trkpt>
      <trkpt lat="50.7986" lon="2.53971">
        <ele>35.23</ele>
        <time>2021-08-07T08:30:32Z</time>
      </trkpt>
      <trkpt lat="50.7986" lon="2.53973">
        <ele>35.23</ele>
        <time>2021-08-07T08:30:48Z</time>
      </trkpt>
      <trkpt lat="50.7986" lon="2.53972">
        <ele>35.23</ele>
        <time>2021-08-07T08:31:08Z</time>
      </trkpt>
      <trkpt lat="50.7986" lon="2.53971">
        <ele>35.23</ele>
        <time>2021-08-07T08:31:33Z</time>
      </trkpt>
      <trkpt lat="50.7986" lon="2.5397">
        <ele>35.23</ele>
        <time>2021-08-07T08:31:51Z</time>
      </trkpt>
      <trkpt lat="50.7986" lon="2.53971">
        <ele>35.23</ele>
        <time>2021-08-07T08:32:08Z</time>
      </trkpt>
      <trkpt lat="50.79859" lon="2.53971">
        <ele>35.23</ele>
        <time>2021-08-07T08:32:29Z</time>
      </trkpt>
      <trkpt lat="50.79858" lon="2.53971">
        <ele>35.71</ele>
        <time>2021-08-07T08:32:59Z</time>
      </trkpt>
      <trkpt lat="50.7986" lon="2.53972">
        <ele>35.71</ele>
        <time>2021-08-07T08:33:26Z</time>
      </trkpt>
      <trkpt lat="50.79861" lon="2.53973">
        <ele>34.26</ele>
        <time>2021-08-07T08:33:53Z</time>
      </trkpt>
      <trkpt lat="50.79862" lon="2.53974">
        <ele>34.26</ele>
        <time>2021-08-07T08:34:06Z</time>
      </trkpt>
      <trkpt lat="50.79864" lon="2.53974">
        <ele>34.26</ele>
        <time>2021-08-07T08:34:09Z</time>
      </trkpt>
      <trkpt lat="50.79865" lon="2.53975">
        <ele>34.26</ele>
        <time>2021-08-07T08:34:13Z</time>
      </trkpt>
      <trkpt lat="50.79862" lon="2.5397">
        <ele>34.26</ele>
        <time>2021-08-07T08:34:28Z</time>
      </trkpt>
      <trkpt lat="50.7986" lon="2.53974">
        <ele>34.26</ele>
        <time>2021-08-07T08:34:47Z</time>
      </trkpt>
      <trkpt lat="50.7986" lon="2.53973">
        <ele>35.71</ele>
        <time>2021-08-07T08:35:12Z</time>
      </trkpt>
      <trkpt lat="50.79861" lon="2.53973">
        <ele>35.71</ele>
        <time>2021-08-07T08:35:33Z</time>
      </trkpt>
      <trkpt lat="50.79861" lon="2.53972">
        <ele>35.71</ele>
        <time>2021-08-07T08:36:02Z</time>
      </trkpt>
      <trkpt lat="50.7986" lon="2.53973">
        <ele>35.71</ele>
        <time>2021-08-07T08:36:24Z</time>
      </trkpt>
      <trkpt lat="50.7986" lon="2.53973">
        <ele>35.23</ele>
        <time>2021-08-07T08:36:42Z</time>
      </trkpt>
      <trkpt lat="50.79859" lon="2.53972">
        <ele>35.23</ele>
        <time>2021-08-07T08:37:05Z</time>
      </trkpt>
      <trkpt lat="50.7986" lon="2.53972">
        <ele>35.23</ele>
        <time>2021-08-07T08:37:29Z</time>
      </trkpt>
      <trkpt lat="50.79859" lon="2.53974">
        <ele>35.23</ele>
        <time>2021-08-07T08:37:47Z</time>
      </trkpt>
      <trkpt lat="50.79859" lon="2.53975">
        <ele>35.23</ele>
        <time>2021-08-07T08:38:07Z</time>
      </trkpt>
      <trkpt lat="50.7986" lon="2.53973">
        <ele>35.23</ele>
        <time>2021-08-07T08:38:23Z</time>
      </trkpt>
      <trkpt lat="50.79859" lon="2.53974">
        <ele>35.23</ele>
        <time>2021-08-07T08:38:42Z</time>
      </trkpt>
      <trkpt lat="50.79858" lon="2.53974">
        <ele>35.23</ele>
        <time>2021-08-07T08:38:59Z</time>
      </trkpt>
      <trkpt lat="50.7986" lon="2.53972">
        <ele>35.23</ele>
        <time>2021-08-07T08:39:15Z</time>
      </trkpt>
      <trkpt lat="50.7986" lon="2.53971">
        <ele>35.23</ele>
        <time>2021-08-07T08:39:33Z</time>
      </trkpt>
      <trkpt lat="50.79859" lon="2.53972">
        <ele>35.23</ele>
        <time>2021-08-07T08:39:52Z</time>
      </trkpt>
      <trkpt lat="50.79859" lon="2.53972">
        <ele>34.74</ele>
        <time>2021-08-07T08:40:08Z</time>
      </trkpt>
      <trkpt lat="50.7986" lon="2.53971">
        <ele>34.74</ele>
        <time>2021-08-07T08:40:28Z</time>
      </trkpt>
      <trkpt lat="50.7986" lon="2.53971">
        <ele>34.74</ele>
        <time>2021-08-07T08:40:41Z</time>
      </trkpt>
      <trkpt lat="50.79859" lon="2.53971">
        <ele>34.74</ele>
        <time>2021-08-07T08:40:56Z</time>
      </trkpt>
      <trkpt lat="50.7986" lon="2.5397">
        <ele>34.74</ele>
        <time>2021-08-07T08:41:08Z</time>
      </trkpt>
      <trkpt lat="50.7986" lon="2.53969">
        <ele>34.74</ele>
        <time>2021-08-07T08:41:27Z</time>
      </trkpt>
      <trkpt lat="50.7986" lon="2.53972">
        <ele>34.74</ele>
        <time>2021-08-07T08:41:46Z</time>
      </trkpt>
      <trkpt lat="50.79861" lon="2.53972">
        <ele>34.74</ele>
        <time>2021-08-07T08:42:05Z</time>
      </trkpt>
      <trkpt lat="50.79861" lon="2.53972">
        <ele>34.74</ele>
        <time>2021-08-07T08:42:20Z</time>
      </trkpt>
      <trkpt lat="50.7986" lon="2.53972">
        <ele>34.74</ele>
        <time>2021-08-07T08:42:40Z</time>
      </trkpt>
      <trkpt lat="50.79859" lon="2.53973">
        <ele>34.74</ele>
        <time>2021-08-07T08:42:58Z</time>
      </trkpt>
      <trkpt lat="50.79859" lon="2.53973">
        <ele>34.74</ele>
        <time>2021-08-07T08:43:18Z</time>
      </trkpt>
      <trkpt lat="50.7986" lon="2.53972">
        <ele>34.74</ele>
        <time>2021-08-07T08:43:31Z</time>
      </trkpt>
      <trkpt lat="50.7986" lon="2.53973">
        <ele>34.74</ele>
        <time>2021-08-07T08:43:45Z</time>
      </trkpt>
      <trkpt lat="50.79861" lon="2.53973">
        <ele>34.74</ele>
        <time>2021-08-07T08:44:07Z</time>
      </trkpt>
      <trkpt lat="50.7986" lon="2.53973">
        <ele>34.74</ele>
        <time>2021-08-07T08:44:23Z</time>
      </trkpt>
      <trkpt lat="50.7986" lon="2.53974">
        <ele>34.26</ele>
        <time>2021-08-07T08:44:38Z</time>
      </trkpt>
      <trkpt lat="50.7986" lon="2.53972">
        <ele>34.26</ele>
        <time>2021-08-07T08:44:57Z</time>
      </trkpt>
      <trkpt lat="50.7986" lon="2.53972">
        <ele>34.26</ele>
        <time>2021-08-07T08:45:08Z</time>
      </trkpt>
      <trkpt lat="50.7986" lon="2.53969">
        <ele>34.26</ele>
        <time>2021-08-07T08:45:10Z</time>
      </trkpt>
      <trkpt lat="50.79861" lon="2.53966">
        <ele>34.26</ele>
        <time>2021-08-07T08:45:11Z</time>
      </trkpt>
      <trkpt lat="50.7986" lon="2.53936">
        <ele>34.26</ele>
        <time>2021-08-07T08:45:18Z</time>
      </trkpt>
      <trkpt lat="50.79858" lon="2.53932">
        <ele>34.26</ele>
        <time>2021-08-07T08:45:19Z</time>
      </trkpt>
      <trkpt lat="50.79856" lon="2.53929">
        <ele>34.26</ele>
        <time>2021-08-07T08:45:20Z</time>
      </trkpt>
      <trkpt lat="50.79854" lon="2.53927">
        <ele>34.74</ele>
        <time>2021-08-07T08:45:21Z</time>
      </trkpt>
      <trkpt lat="50.79851" lon="2.53927">
        <ele>34.74</ele>
        <time>2021-08-07T08:45:22Z</time>
      </trkpt>
      <trkpt lat="50.79849" lon="2.53927">
        <ele>35.23</ele>
        <time>2021-08-07T08:45:23Z</time>
      </trkpt>
      <trkpt lat="50.79847" lon="2.53928">
        <ele>35.23</ele>
        <time>2021-08-07T08:45:24Z</time>
      </trkpt>
      <trkpt lat="50.79845" lon="2.53929">
        <ele>35.23</ele>
        <time>2021-08-07T08:45:25Z</time>
      </trkpt>
      <trkpt lat="50.79842" lon="2.5393">
        <ele>36.19</ele>
        <time>2021-08-07T08:45:26Z</time>
      </trkpt>
      <trkpt lat="50.7984" lon="2.53931">
        <ele>36.19</ele>
        <time>2021-08-07T08:45:27Z</time>
      </trkpt>
      <trkpt lat="50.79835" lon="2.53932">
        <ele>34.74</ele>
        <time>2021-08-07T08:45:29Z</time>
      </trkpt>
      <trkpt lat="50.79829" lon="2.53932">
        <ele>34.74</ele>
        <time>2021-08-07T08:45:34Z</time>
      </trkpt>
      <trkpt lat="50.79828" lon="2.53932">
        <ele>35.71</ele>
        <time>2021-08-07T08:45:41Z</time>
      </trkpt>
      <trkpt lat="50.79827" lon="2.53931">
        <ele>35.71</ele>
        <time>2021-08-07T08:45:48Z</time>
      </trkpt>
      <trkpt lat="50.79825" lon="2.53938">
        <ele>35.71</ele>
        <time>2021-08-07T08:46:00Z</time>
      </trkpt>
      <trkpt lat="50.79823" lon="2.53941">
        <ele>35.71</ele>
        <time>2021-08-07T08:46:16Z</time>
      </trkpt>
      <trkpt lat="50.79824" lon="2.53946">
        <ele>35.71</ele>
        <time>2021-08-07T08:46:33Z</time>
      </trkpt>
      <trkpt lat="50.79823" lon="2.53948">
        <ele>35.71</ele>
        <time>2021-08-07T08:46:45Z</time>
      </trkpt>
      <trkpt lat="50.79822" lon="2.5395">
        <ele>35.71</ele>
        <time>2021-08-07T08:46:59Z</time>
      </trkpt>
      <trkpt lat="50.79821" lon="2.53948">
        <ele>35.71</ele>
        <time>2021-08-07T08:47:16Z</time>
      </trkpt>
      <trkpt lat="50.79821" lon="2.53943">
        <ele>35.71</ele>
        <time>2021-08-07T08:47:29Z</time>
      </trkpt>
      <trkpt lat="50.7982" lon="2.53944">
        <ele>35.71</ele>
        <time>2021-08-07T08:47:42Z</time>
      </trkpt>
      <trkpt lat="50.7982" lon="2.53942">
        <ele>35.71</ele>
        <time>2021-08-07T08:47:58Z</time>
      </trkpt>
      <trkpt lat="50.79821" lon="2.53943">
        <ele>35.71</ele>
        <time>2021-08-07T08:48:07Z</time>
      </trkpt>
      <trkpt lat="50.79824" lon="2.53945">
        <ele>35.71</ele>
        <time>2021-08-07T08:48:27Z</time>
      </trkpt>
      <trkpt lat="50.79823" lon="2.53946">
        <ele>35.71</ele>
        <time>2021-08-07T08:48:31Z</time>
      </trkpt>
      <trkpt lat="50.7982" lon="2.53945">
        <ele>35.71</ele>
        <time>2021-08-07T08:48:32Z</time>
      </trkpt>
      <trkpt lat="50.79818" lon="2.53944">
        <ele>35.71</ele>
        <time>2021-08-07T08:48:33Z</time>
      </trkpt>
      <trkpt lat="50.79819" lon="2.53943">
        <ele>35.71</ele>
        <time>2021-08-07T08:48:37Z</time>
      </trkpt>
      <trkpt lat="50.79819" lon="2.53945">
        <ele>34.26</ele>
        <time>2021-08-07T08:48:41Z</time>
      </trkpt>
      <trkpt lat="50.79821" lon="2.53953">
        <ele>34.26</ele>
        <time>2021-08-07T08:48:58Z</time>
      </trkpt>
      <trkpt lat="50.79823" lon="2.53946">
        <ele>34.26</ele>
        <time>2021-08-07T08:49:13Z</time>
      </trkpt>
      <trkpt lat="50.79826" lon="2.53939">
        <ele>34.26</ele>
        <time>2021-08-07T08:49:29Z</time>
      </trkpt>
      <trkpt lat="50.79827" lon="2.53943">
        <ele>34.26</ele>
        <time>2021-08-07T08:49:38Z</time>
      </trkpt>
      <trkpt lat="50.79826" lon="2.53944">
        <ele>34.26</ele>
        <time>2021-08-07T08:49:51Z</time>
      </trkpt>
      <trkpt lat="50.79825" lon="2.53946">
        <ele>34.26</ele>
        <time>2021-08-07T08:50:07Z</time>
      </trkpt>
      <trkpt lat="50.79824" lon="2.5395">
        <ele>34.26</ele>
        <time>2021-08-07T08:50:21Z</time>
      </trkpt>
      <trkpt lat="50.79826" lon="2.53947">
        <ele>34.26</ele>
        <time>2021-08-07T08:50:35Z</time>
      </trkpt>
      <trkpt lat="50.79826" lon="2.53944">
        <ele>33.78</ele>
        <time>2021-08-07T08:50:56Z</time>
      </trkpt>
      <trkpt lat="50.79826" lon="2.53946">
        <ele>33.78</ele>
        <time>2021-08-07T08:51:12Z</time>
      </trkpt>
      <trkpt lat="50.79826" lon="2.53944">
        <ele>33.78</ele>
        <time>2021-08-07T08:51:25Z</time>
      </trkpt>
      <trkpt lat="50.79825" lon="2.53942">
        <ele>33.78</ele>
        <time>2021-08-07T08:51:39Z</time>
      </trkpt>
      <trkpt lat="50.79825" lon="2.53943">
        <ele>33.78</ele>
        <time>2021-08-07T08:51:57Z</time>
      </trkpt>
      <trkpt lat="50.79826" lon="2.53945">
        <ele>33.3</ele>
        <time>2021-08-07T08:52:11Z</time>
      </trkpt>
      <trkpt lat="50.79826" lon="2.53945">
        <ele>34.74</ele>
        <time>2021-08-07T08:52:14Z</time>
      </trkpt>
      <trkpt lat="50.79826" lon="2.53944">
        <ele>34.74</ele>
        <time>2021-08-07T08:52:30Z</time>
      </trkpt>
      <trkpt lat="50.79826" lon="2.53943">
        <ele>34.74</ele>
        <time>2021-08-07T08:52:48Z</time>
      </trkpt>
      <trkpt lat="50.79827" lon="2.53942">
        <ele>34.74</ele>
        <time>2021-08-07T08:52:52Z</time>
      </trkpt>
      <trkpt lat="50.79828" lon="2.5394">
        <ele>35.23</ele>
        <time>2021-08-07T08:52:58Z</time>
      </trkpt>
      <trkpt lat="50.79834" lon="2.53935">
        <ele>33.78</ele>
        <time>2021-08-07T08:53:06Z</time>
      </trkpt>
      <trkpt lat="50.79851" lon="2.53928">
        <ele>33.78</ele>
        <time>2021-08-07T08:53:12Z</time>
      </trkpt>
      <trkpt lat="50.79855" lon="2.5393">
        <ele>33.78</ele>
        <time>2021-08-07T08:53:13Z</time>
      </trkpt>
      <trkpt lat="50.79858" lon="2.53934">
        <ele>33.3</ele>
        <time>2021-08-07T08:53:14Z</time>
      </trkpt>
      <trkpt lat="50.7986" lon="2.5394">
        <ele>33.3</ele>
        <time>2021-08-07T08:53:15Z</time>
      </trkpt>
      <trkpt lat="50.7986" lon="2.53947">
        <ele>33.3</ele>
        <time>2021-08-07T08:53:16Z</time>
      </trkpt>
      <trkpt lat="50.79861" lon="2.53954">
        <ele>33.3</ele>
        <time>2021-08-07T08:53:17Z</time>
      </trkpt>
      <trkpt lat="50.79863" lon="2.53961">
        <ele>32.34</ele>
        <time>2021-08-07T08:53:18Z</time>
      </trkpt>
      <trkpt lat="50.79869" lon="2.54018">
        <ele>32.34</ele>
        <time>2021-08-07T08:53:26Z</time>
      </trkpt>
      <trkpt lat="50.79868" lon="2.54031">
        <ele>31.86</ele>
        <time>2021-08-07T08:53:28Z</time>
      </trkpt>
      <trkpt lat="50.79866" lon="2.54037">
        <ele>31.86</ele>
        <time>2021-08-07T08:53:29Z</time>
      </trkpt>
      <trkpt lat="50.79863" lon="2.54042">
        <ele>31.86</ele>
        <time>2021-08-07T08:53:30Z</time>
      </trkpt>
      <trkpt lat="50.79838" lon="2.54056">
        <ele>31.86</ele>
        <time>2021-08-07T08:53:37Z</time>
      </trkpt>
      <trkpt lat="50.79827" lon="2.54063">
        <ele>33.3</ele>
        <time>2021-08-07T08:53:40Z</time>
      </trkpt>
      <trkpt lat="50.79823" lon="2.54065">
        <ele>33.3</ele>
        <time>2021-08-07T08:53:41Z</time>
      </trkpt>
      <trkpt lat="50.7982" lon="2.54068">
        <ele>33.3</ele>
        <time>2021-08-07T08:53:42Z</time>
      </trkpt>
      <trkpt lat="50.79787" lon="2.54091">
        <ele>33.3</ele>
        <time>2021-08-07T08:53:50Z</time>
      </trkpt>
      <trkpt lat="50.79766" lon="2.54107">
        <ele>33.3</ele>
        <time>2021-08-07T08:53:55Z</time>
      </trkpt>
      <trkpt lat="50.79729" lon="2.54149">
        <ele>33.3</ele>
        <time>2021-08-07T08:54:04Z</time>
      </trkpt>
      <trkpt lat="50.7969" lon="2.54196">
        <ele>32.34</ele>
        <time>2021-08-07T08:54:13Z</time>
      </trkpt>
      <trkpt lat="50.79648" lon="2.54244">
        <ele>31.86</ele>
        <time>2021-08-07T08:54:22Z</time>
      </trkpt>
      <trkpt lat="50.79586" lon="2.54309">
        <ele>29.94</ele>
        <time>2021-08-07T08:54:34Z</time>
      </trkpt>
      <trkpt lat="50.79572" lon="2.54327">
        <ele>29.94</ele>
        <time>2021-08-07T08:54:37Z</time>
      </trkpt>
      <trkpt lat="50.79568" lon="2.54336">
        <ele>29.94</ele>
        <time>2021-08-07T08:54:38Z</time>
      </trkpt>
      <trkpt lat="50.79566" lon="2.54344">
        <ele>29.94</ele>
        <time>2021-08-07T08:54:39Z</time>
      </trkpt>
      <trkpt lat="50.79565" lon="2.54354">
        <ele>29.94</ele>
        <time>2021-08-07T08:54:40Z</time>
      </trkpt>
      <trkpt lat="50.79566" lon="2.54363">
        <ele>29.94</ele>
        <time>2021-08-07T08:54:41Z</time>
      </trkpt>
      <trkpt lat="50.79567" lon="2.54372">
        <ele>29.94</ele>
        <time>2021-08-07T08:54:42Z</time>
      </trkpt>
      <trkpt lat="50.79568" lon="2.54381">
        <ele>29.94</ele>
        <time>2021-08-07T08:54:43Z</time>
      </trkpt>
      <trkpt lat="50.79579" lon="2.54437">
        <ele>29.94</ele>
        <time>2021-08-07T08:54:49Z</time>
      </trkpt>
      <trkpt lat="50.7958" lon="2.54446">
        <ele>29.94</ele>
        <time>2021-08-07T08:54:50Z</time>
      </trkpt>
      <trkpt lat="50.79581" lon="2.54483">
        <ele>31.38</ele>
        <time>2021-08-07T08:54:54Z</time>
      </trkpt>
      <trkpt lat="50.79579" lon="2.54492">
        <ele>31.38</ele>
        <time>2021-08-07T08:54:55Z</time>
      </trkpt>
      <trkpt lat="50.79568" lon="2.54549">
        <ele>31.86</ele>
        <time>2021-08-07T08:55:02Z</time>
      </trkpt>
      <trkpt lat="50.79559" lon="2.54608">
        <ele>32.82</ele>
        <time>2021-08-07T08:55:09Z</time>
      </trkpt>
      <trkpt lat="50.79559" lon="2.54616">
        <ele>32.82</ele>
        <time>2021-08-07T08:55:10Z</time>
      </trkpt>
      <trkpt lat="50.79559" lon="2.54625">
        <ele>32.82</ele>
        <time>2021-08-07T08:55:11Z</time>
      </trkpt>
      <trkpt lat="50.7956" lon="2.54634">
        <ele>32.82</ele>
        <time>2021-08-07T08:55:12Z</time>
      </trkpt>
      <trkpt lat="50.79561" lon="2.54642">
        <ele>32.34</ele>
        <time>2021-08-07T08:55:13Z</time>
      </trkpt>
      <trkpt lat="50.79562" lon="2.5465">
        <ele>33.3</ele>
        <time>2021-08-07T08:55:14Z</time>
      </trkpt>
      <trkpt lat="50.79564" lon="2.54659">
        <ele>33.3</ele>
        <time>2021-08-07T08:55:15Z</time>
      </trkpt>
      <trkpt lat="50.7958" lon="2.54736">
        <ele>33.3</ele>
        <time>2021-08-07T08:55:24Z</time>
      </trkpt>
      <trkpt lat="50.79598" lon="2.54833">
        <ele>33.3</ele>
        <time>2021-08-07T08:55:34Z</time>
      </trkpt>
      <trkpt lat="50.79608" lon="2.54883">
        <ele>31.86</ele>
        <time>2021-08-07T08:55:39Z</time>
      </trkpt>
      <trkpt lat="50.79628" lon="2.54983">
        <ele>31.86</ele>
        <time>2021-08-07T08:55:49Z</time>
      </trkpt>
      <trkpt lat="50.79646" lon="2.55071">
        <ele>31.86</ele>
        <time>2021-08-07T08:55:58Z</time>
      </trkpt>
      <trkpt lat="50.7966" lon="2.55149">
        <ele>31.86</ele>
        <time>2021-08-07T08:56:06Z</time>
      </trkpt>
      <trkpt lat="50.79674" lon="2.55217">
        <ele>31.38</ele>
        <time>2021-08-07T08:56:13Z</time>
      </trkpt>
      <trkpt lat="50.79688" lon="2.55445">
        <ele>30.9</ele>
        <time>2021-08-07T08:56:34Z</time>
      </trkpt>
      <trkpt lat="50.79688" lon="2.55456">
        <ele>30.9</ele>
        <time>2021-08-07T08:56:35Z</time>
      </trkpt>
      <trkpt lat="50.79695" lon="2.55567">
        <ele>30.9</ele>
        <time>2021-08-07T08:56:45Z</time>
      </trkpt>
      <trkpt lat="50.7969" lon="2.5562">
        <ele>29.94</ele>
        <time>2021-08-07T08:56:50Z</time>
      </trkpt>
      <trkpt lat="50.7968" lon="2.55675">
        <ele>31.38</ele>
        <time>2021-08-07T08:56:56Z</time>
      </trkpt>
      <trkpt lat="50.7968" lon="2.55679">
        <ele>31.86</ele>
        <time>2021-08-07T08:56:57Z</time>
      </trkpt>
      <trkpt lat="50.79681" lon="2.55678">
        <ele>31.86</ele>
        <time>2021-08-07T08:56:58Z</time>
      </trkpt>
      <trkpt lat="50.79682" lon="2.55676">
        <ele>31.86</ele>
        <time>2021-08-07T08:56:59Z</time>
      </trkpt>
      <trkpt lat="50.79682" lon="2.55672">
        <ele>31.86</ele>
        <time>2021-08-07T08:57:00Z</time>
      </trkpt>
      <trkpt lat="50.79683" lon="2.55669">
        <ele>31.86</ele>
        <time>2021-08-07T08:57:01Z</time>
      </trkpt>
      <trkpt lat="50.79684" lon="2.55665">
        <ele>31.86</ele>
        <time>2021-08-07T08:57:02Z</time>
      </trkpt>
      <trkpt lat="50.79686" lon="2.55661">
        <ele>31.86</ele>
        <time>2021-08-07T08:57:03Z</time>
      </trkpt>
      <trkpt lat="50.7969" lon="2.55657">
        <ele>31.86</ele>
        <time>2021-08-07T08:57:04Z</time>
      </trkpt>
      <trkpt lat="50.79694" lon="2.55655">
        <ele>31.86</ele>
        <time>2021-08-07T08:57:05Z</time>
      </trkpt>
      <trkpt lat="50.79699" lon="2.55653">
        <ele>30.9</ele>
        <time>2021-08-07T08:57:06Z</time>
      </trkpt>
      <trkpt lat="50.79704" lon="2.55653">
        <ele>30.9</ele>
        <time>2021-08-07T08:57:07Z</time>
      </trkpt>
      <trkpt lat="50.79709" lon="2.55654">
        <ele>30.42</ele>
        <time>2021-08-07T08:57:08Z</time>
      </trkpt>
      <trkpt lat="50.79713" lon="2.55659">
        <ele>29.94</ele>
        <time>2021-08-07T08:57:09Z</time>
      </trkpt>
      <trkpt lat="50.79716" lon="2.55667">
        <ele>29.94</ele>
        <time>2021-08-07T08:57:10Z</time>
      </trkpt>
      <trkpt lat="50.79719" lon="2.55675">
        <ele>29.46</ele>
        <time>2021-08-07T08:57:11Z</time>
      </trkpt>
      <trkpt lat="50.79721" lon="2.55683">
        <ele>29.46</ele>
        <time>2021-08-07T08:57:12Z</time>
      </trkpt>
      <trkpt lat="50.79724" lon="2.55692">
        <ele>29.46</ele>
        <time>2021-08-07T08:57:13Z</time>
      </trkpt>
      <trkpt lat="50.79748" lon="2.55769">
        <ele>29.46</ele>
        <time>2021-08-07T08:57:22Z</time>
      </trkpt>
      <trkpt lat="50.79773" lon="2.55828">
        <ele>28.98</ele>
        <time>2021-08-07T08:57:29Z</time>
      </trkpt>
      <trkpt lat="50.79806" lon="2.55908">
        <ele>28.98</ele>
        <time>2021-08-07T08:57:38Z</time>
      </trkpt>
      <trkpt lat="50.79813" lon="2.55919">
        <ele>28.98</ele>
        <time>2021-08-07T08:57:40Z</time>
      </trkpt>
      <trkpt lat="50.79816" lon="2.55924">
        <ele>28.98</ele>
        <time>2021-08-07T08:57:41Z</time>
      </trkpt>
      <trkpt lat="50.79841" lon="2.55972">
        <ele>28.98</ele>
        <time>2021-08-07T08:57:50Z</time>
      </trkpt>
      <trkpt lat="50.79864" lon="2.56028">
        <ele>28.5</ele>
        <time>2021-08-07T08:57:59Z</time>
      </trkpt>
      <trkpt lat="50.79881" lon="2.56079">
        <ele>28.5</ele>
        <time>2021-08-07T08:58:07Z</time>
      </trkpt>
      <trkpt lat="50.799" lon="2.56143">
        <ele>27.53</ele>
        <time>2021-08-07T08:58:17Z</time>
      </trkpt>
      <trkpt lat="50.79911" lon="2.56174">
        <ele>27.53</ele>
        <time>2021-08-07T08:58:22Z</time>
      </trkpt>
      <trkpt lat="50.79916" lon="2.56185">
        <ele>27.53</ele>
        <time>2021-08-07T08:58:24Z</time>
      </trkpt>
      <trkpt lat="50.79919" lon="2.56193">
        <ele>27.53</ele>
        <time>2021-08-07T08:58:26Z</time>
      </trkpt>
      <trkpt lat="50.79933" lon="2.5623">
        <ele>26.57</ele>
        <time>2021-08-07T08:58:32Z</time>
      </trkpt>
      <trkpt lat="50.79946" lon="2.56277">
        <ele>26.57</ele>
        <time>2021-08-07T08:58:40Z</time>
      </trkpt>
      <trkpt lat="50.79954" lon="2.56305">
        <ele>26.57</ele>
        <time>2021-08-07T08:58:46Z</time>
      </trkpt>
      <trkpt lat="50.79966" lon="2.56337">
        <ele>26.09</ele>
        <time>2021-08-07T08:58:53Z</time>
      </trkpt>
      <trkpt lat="50.79985" lon="2.56391">
        <ele>25.13</ele>
        <time>2021-08-07T08:59:01Z</time>
      </trkpt>
      <trkpt lat="50.80005" lon="2.56454">
        <ele>24.65</ele>
        <time>2021-08-07T08:59:09Z</time>
      </trkpt>
      <trkpt lat="50.80006" lon="2.56461">
        <ele>24.65</ele>
        <time>2021-08-07T08:59:10Z</time>
      </trkpt>
      <trkpt lat="50.80008" lon="2.5647">
        <ele>24.65</ele>
        <time>2021-08-07T08:59:11Z</time>
      </trkpt>
      <trkpt lat="50.80011" lon="2.56476">
        <ele>24.65</ele>
        <time>2021-08-07T08:59:12Z</time>
      </trkpt>
      <trkpt lat="50.80015" lon="2.56481">
        <ele>24.65</ele>
        <time>2021-08-07T08:59:13Z</time>
      </trkpt>
      <trkpt lat="50.80019" lon="2.56483">
        <ele>24.65</ele>
        <time>2021-08-07T08:59:14Z</time>
      </trkpt>
      <trkpt lat="50.80025" lon="2.56484">
        <ele>24.65</ele>
        <time>2021-08-07T08:59:15Z</time>
      </trkpt>
      <trkpt lat="50.80036" lon="2.56486">
        <ele>24.17</ele>
        <time>2021-08-07T08:59:17Z</time>
      </trkpt>
      <trkpt lat="50.8009" lon="2.56503">
        <ele>24.17</ele>
        <time>2021-08-07T08:59:26Z</time>
      </trkpt>
      <trkpt lat="50.80155" lon="2.56517">
        <ele>24.17</ele>
        <time>2021-08-07T08:59:37Z</time>
      </trkpt>
      <trkpt lat="50.80159" lon="2.56521">
        <ele>24.17</ele>
        <time>2021-08-07T08:59:38Z</time>
      </trkpt>
      <trkpt lat="50.80163" lon="2.56527">
        <ele>24.17</ele>
        <time>2021-08-07T08:59:39Z</time>
      </trkpt>
      <trkpt lat="50.80166" lon="2.56534">
        <ele>24.17</ele>
        <time>2021-08-07T08:59:40Z</time>
      </trkpt>
      <trkpt lat="50.80167" lon="2.56542">
        <ele>24.17</ele>
        <time>2021-08-07T08:59:41Z</time>
      </trkpt>
      <trkpt lat="50.80167" lon="2.5655">
        <ele>24.17</ele>
        <time>2021-08-07T08:59:42Z</time>
      </trkpt>
      <trkpt lat="50.80169" lon="2.5658">
        <ele>24.17</ele>
        <time>2021-08-07T08:59:47Z</time>
      </trkpt>
      <trkpt lat="50.80179" lon="2.56613">
        <ele>25.13</ele>
        <time>2021-08-07T08:59:55Z</time>
      </trkpt>
      <trkpt lat="50.80191" lon="2.56641">
        <ele>25.13</ele>
        <time>2021-08-07T09:00:02Z</time>
      </trkpt>
      <trkpt lat="50.8021" lon="2.56685">
        <ele>25.61</ele>
        <time>2021-08-07T09:00:12Z</time>
      </trkpt>
      <trkpt lat="50.80224" lon="2.56718">
        <ele>25.61</ele>
        <time>2021-08-07T09:00:20Z</time>
      </trkpt>
      <trkpt lat="50.80236" lon="2.56743">
        <ele>26.09</ele>
        <time>2021-08-07T09:00:28Z</time>
      </trkpt>
      <trkpt lat="50.80248" lon="2.56765">
        <ele>26.57</ele>
        <time>2021-08-07T09:00:35Z</time>
      </trkpt>
      <trkpt lat="50.80266" lon="2.568">
        <ele>26.57</ele>
        <time>2021-08-07T09:00:45Z</time>
      </trkpt>
      <trkpt lat="50.80276" lon="2.56824">
        <ele>27.05</ele>
        <time>2021-08-07T09:00:52Z</time>
      </trkpt>
      <trkpt lat="50.80288" lon="2.56859">
        <ele>27.05</ele>
        <time>2021-08-07T09:01:01Z</time>
      </trkpt>
      <trkpt lat="50.80298" lon="2.56887">
        <ele>27.05</ele>
        <time>2021-08-07T09:01:08Z</time>
      </trkpt>
      <trkpt lat="50.80311" lon="2.56925">
        <ele>27.05</ele>
        <time>2021-08-07T09:01:17Z</time>
      </trkpt>
      <trkpt lat="50.80321" lon="2.56958">
        <ele>27.05</ele>
        <time>2021-08-07T09:01:25Z</time>
      </trkpt>
      <trkpt lat="50.80328" lon="2.56977">
        <ele>27.05</ele>
        <time>2021-08-07T09:01:30Z</time>
      </trkpt>
      <trkpt lat="50.80337" lon="2.57003">
        <ele>27.05</ele>
        <time>2021-08-07T09:01:37Z</time>
      </trkpt>
      <trkpt lat="50.80348" lon="2.57036">
        <ele>27.05</ele>
        <time>2021-08-07T09:01:44Z</time>
      </trkpt>
      <trkpt lat="50.8036" lon="2.57066">
        <ele>26.57</ele>
        <time>2021-08-07T09:01:51Z</time>
      </trkpt>
      <trkpt lat="50.80363" lon="2.57076">
        <ele>25.61</ele>
        <time>2021-08-07T09:01:53Z</time>
      </trkpt>
      <trkpt lat="50.80376" lon="2.57113">
        <ele>25.61</ele>
        <time>2021-08-07T09:02:01Z</time>
      </trkpt>
      <trkpt lat="50.80392" lon="2.57156">
        <ele>25.13</ele>
        <time>2021-08-07T09:02:09Z</time>
      </trkpt>
      <trkpt lat="50.80414" lon="2.57215">
        <ele>23.21</ele>
        <time>2021-08-07T09:02:18Z</time>
      </trkpt>
      <trkpt lat="50.80429" lon="2.57254">
        <ele>22.73</ele>
        <time>2021-08-07T09:02:25Z</time>
      </trkpt>
      <trkpt lat="50.80428" lon="2.57258">
        <ele>22.73</ele>
        <time>2021-08-07T09:02:26Z</time>
      </trkpt>
      <trkpt lat="50.80425" lon="2.57262">
        <ele>22.25</ele>
        <time>2021-08-07T09:02:27Z</time>
      </trkpt>
      <trkpt lat="50.80419" lon="2.57277">
        <ele>22.25</ele>
        <time>2021-08-07T09:02:30Z</time>
      </trkpt>
      <trkpt lat="50.8042" lon="2.57282">
        <ele>21.77</ele>
        <time>2021-08-07T09:02:31Z</time>
      </trkpt>
      <trkpt lat="50.80431" lon="2.57332">
        <ele>21.29</ele>
        <time>2021-08-07T09:02:38Z</time>
      </trkpt>
      <trkpt lat="50.80438" lon="2.57352">
        <ele>21.29</ele>
        <time>2021-08-07T09:02:41Z</time>
      </trkpt>
      <trkpt lat="50.80445" lon="2.57363">
        <ele>21.29</ele>
        <time>2021-08-07T09:02:43Z</time>
      </trkpt>
      <trkpt lat="50.80481" lon="2.57407">
        <ele>21.29</ele>
        <time>2021-08-07T09:02:53Z</time>
      </trkpt>
      <trkpt lat="50.8051" lon="2.57446">
        <ele>21.29</ele>
        <time>2021-08-07T09:03:02Z</time>
      </trkpt>
      <trkpt lat="50.80513" lon="2.57451">
        <ele>21.29</ele>
        <time>2021-08-07T09:03:03Z</time>
      </trkpt>
      <trkpt lat="50.80515" lon="2.57456">
        <ele>21.29</ele>
        <time>2021-08-07T09:03:04Z</time>
      </trkpt>
      <trkpt lat="50.80519" lon="2.5746">
        <ele>21.29</ele>
        <time>2021-08-07T09:03:05Z</time>
      </trkpt>
      <trkpt lat="50.80531" lon="2.57477">
        <ele>20.81</ele>
        <time>2021-08-07T09:03:09Z</time>
      </trkpt>
      <trkpt lat="50.80534" lon="2.57481">
        <ele>20.81</ele>
        <time>2021-08-07T09:03:10Z</time>
      </trkpt>
      <trkpt lat="50.80538" lon="2.57485">
        <ele>20.81</ele>
        <time>2021-08-07T09:03:11Z</time>
      </trkpt>
      <trkpt lat="50.80574" lon="2.57511">
        <ele>20.32</ele>
        <time>2021-08-07T09:03:20Z</time>
      </trkpt>
      <trkpt lat="50.80584" lon="2.5752">
        <ele>20.32</ele>
        <time>2021-08-07T09:03:23Z</time>
      </trkpt>
      <trkpt lat="50.80585" lon="2.57525">
        <ele>20.32</ele>
        <time>2021-08-07T09:03:24Z</time>
      </trkpt>
      <trkpt lat="50.80586" lon="2.57529">
        <ele>20.32</ele>
        <time>2021-08-07T09:03:25Z</time>
      </trkpt>
      <trkpt lat="50.80595" lon="2.57548">
        <ele>20.32</ele>
        <time>2021-08-07T09:03:29Z</time>
      </trkpt>
      <trkpt lat="50.80602" lon="2.57554">
        <ele>21.29</ele>
        <time>2021-08-07T09:03:31Z</time>
      </trkpt>
      <trkpt lat="50.80605" lon="2.57551">
        <ele>21.29</ele>
        <time>2021-08-07T09:03:32Z</time>
      </trkpt>
      <trkpt lat="50.80619" lon="2.57525">
        <ele>22.73</ele>
        <time>2021-08-07T09:03:39Z</time>
      </trkpt>
      <trkpt lat="50.80626" lon="2.57517">
        <ele>23.21</ele>
        <time>2021-08-07T09:03:42Z</time>
      </trkpt>
      <trkpt lat="50.80629" lon="2.57517">
        <ele>23.69</ele>
        <time>2021-08-07T09:03:43Z</time>
      </trkpt>
      <trkpt lat="50.80631" lon="2.57519">
        <ele>23.21</ele>
        <time>2021-08-07T09:03:44Z</time>
      </trkpt>
      <trkpt lat="50.80635" lon="2.57522">
        <ele>23.69</ele>
        <time>2021-08-07T09:03:45Z</time>
      </trkpt>
      <trkpt lat="50.80638" lon="2.57525">
        <ele>23.69</ele>
        <time>2021-08-07T09:03:46Z</time>
      </trkpt>
      <trkpt lat="50.80641" lon="2.57529">
        <ele>23.69</ele>
        <time>2021-08-07T09:03:47Z</time>
      </trkpt>
      <trkpt lat="50.80643" lon="2.57533">
        <ele>23.69</ele>
        <time>2021-08-07T09:03:48Z</time>
      </trkpt>
      <trkpt lat="50.80652" lon="2.57551">
        <ele>23.69</ele>
        <time>2021-08-07T09:03:51Z</time>
      </trkpt>
      <trkpt lat="50.8066" lon="2.5758">
        <ele>23.69</ele>
        <time>2021-08-07T09:03:55Z</time>
      </trkpt>
      <trkpt lat="50.8066" lon="2.57588">
        <ele>23.69</ele>
        <time>2021-08-07T09:03:56Z</time>
      </trkpt>
      <trkpt lat="50.8066" lon="2.57596">
        <ele>23.69</ele>
        <time>2021-08-07T09:03:57Z</time>
      </trkpt>
      <trkpt lat="50.8066" lon="2.57602">
        <ele>21.77</ele>
        <time>2021-08-07T09:03:58Z</time>
      </trkpt>
      <trkpt lat="50.80662" lon="2.57607">
        <ele>21.77</ele>
        <time>2021-08-07T09:03:59Z</time>
      </trkpt>
      <trkpt lat="50.80666" lon="2.57609">
        <ele>21.77</ele>
        <time>2021-08-07T09:04:00Z</time>
      </trkpt>
      <trkpt lat="50.8067" lon="2.5761">
        <ele>21.77</ele>
        <time>2021-08-07T09:04:01Z</time>
      </trkpt>
      <trkpt lat="50.80674" lon="2.57611">
        <ele>21.77</ele>
        <time>2021-08-07T09:04:02Z</time>
      </trkpt>
      <trkpt lat="50.80716" lon="2.57628">
        <ele>21.77</ele>
        <time>2021-08-07T09:04:11Z</time>
      </trkpt>
      <trkpt lat="50.80756" lon="2.57659">
        <ele>23.21</ele>
        <time>2021-08-07T09:04:20Z</time>
      </trkpt>
      <trkpt lat="50.8076" lon="2.57664">
        <ele>23.21</ele>
        <time>2021-08-07T09:04:21Z</time>
      </trkpt>
      <trkpt lat="50.80775" lon="2.57684">
        <ele>23.21</ele>
        <time>2021-08-07T09:04:25Z</time>
      </trkpt>
      <trkpt lat="50.80777" lon="2.57688">
        <ele>23.69</ele>
        <time>2021-08-07T09:04:26Z</time>
      </trkpt>
      <trkpt lat="50.8078" lon="2.57694">
        <ele>23.21</ele>
        <time>2021-08-07T09:04:28Z</time>
      </trkpt>
      <trkpt lat="50.80782" lon="2.57696">
        <ele>23.21</ele>
        <time>2021-08-07T09:04:29Z</time>
      </trkpt>
      <trkpt lat="50.80785" lon="2.57697">
        <ele>23.69</ele>
        <time>2021-08-07T09:04:30Z</time>
      </trkpt>
      <trkpt lat="50.80814" lon="2.57698">
        <ele>23.69</ele>
        <time>2021-08-07T09:04:37Z</time>
      </trkpt>
      <trkpt lat="50.80862" lon="2.5771">
        <ele>24.65</ele>
        <time>2021-08-07T09:04:47Z</time>
      </trkpt>
      <trkpt lat="50.80897" lon="2.57724">
        <ele>25.13</ele>
        <time>2021-08-07T09:04:55Z</time>
      </trkpt>
      <trkpt lat="50.80901" lon="2.57728">
        <ele>25.13</ele>
        <time>2021-08-07T09:04:56Z</time>
      </trkpt>
      <trkpt lat="50.80904" lon="2.57734">
        <ele>25.13</ele>
        <time>2021-08-07T09:04:57Z</time>
      </trkpt>
      <trkpt lat="50.80905" lon="2.57741">
        <ele>25.13</ele>
        <time>2021-08-07T09:04:58Z</time>
      </trkpt>
      <trkpt lat="50.80906" lon="2.57747">
        <ele>25.13</ele>
        <time>2021-08-07T09:04:59Z</time>
      </trkpt>
      <trkpt lat="50.80907" lon="2.57754">
        <ele>25.13</ele>
        <time>2021-08-07T09:05:00Z</time>
      </trkpt>
      <trkpt lat="50.80909" lon="2.57798">
        <ele>23.69</ele>
        <time>2021-08-07T09:05:05Z</time>
      </trkpt>
      <trkpt lat="50.80917" lon="2.57871">
        <ele>23.69</ele>
        <time>2021-08-07T09:05:13Z</time>
      </trkpt>
      <trkpt lat="50.80924" lon="2.57942">
        <ele>23.69</ele>
        <time>2021-08-07T09:05:21Z</time>
      </trkpt>
      <trkpt lat="50.80931" lon="2.5802">
        <ele>23.21</ele>
        <time>2021-08-07T09:05:31Z</time>
      </trkpt>
      <trkpt lat="50.80934" lon="2.58062">
        <ele>23.21</ele>
        <time>2021-08-07T09:05:38Z</time>
      </trkpt>
      <trkpt lat="50.80932" lon="2.58064">
        <ele>22.73</ele>
        <time>2021-08-07T09:05:39Z</time>
      </trkpt>
      <trkpt lat="50.80929" lon="2.58065">
        <ele>22.73</ele>
        <time>2021-08-07T09:05:40Z</time>
      </trkpt>
      <trkpt lat="50.80927" lon="2.58066">
        <ele>22.73</ele>
        <time>2021-08-07T09:05:41Z</time>
      </trkpt>
      <trkpt lat="50.80924" lon="2.58067">
        <ele>22.73</ele>
        <time>2021-08-07T09:05:42Z</time>
      </trkpt>
      <trkpt lat="50.80917" lon="2.58073">
        <ele>21.77</ele>
        <time>2021-08-07T09:05:45Z</time>
      </trkpt>
      <trkpt lat="50.80916" lon="2.58077">
        <ele>21.77</ele>
        <time>2021-08-07T09:05:46Z</time>
      </trkpt>
      <trkpt lat="50.80916" lon="2.58082">
        <ele>21.77</ele>
        <time>2021-08-07T09:05:47Z</time>
      </trkpt>
      <trkpt lat="50.80916" lon="2.58086">
        <ele>21.77</ele>
        <time>2021-08-07T09:05:48Z</time>
      </trkpt>
      <trkpt lat="50.80916" lon="2.58091">
        <ele>21.77</ele>
        <time>2021-08-07T09:05:49Z</time>
      </trkpt>
      <trkpt lat="50.80916" lon="2.58096">
        <ele>21.77</ele>
        <time>2021-08-07T09:05:50Z</time>
      </trkpt>
      <trkpt lat="50.80916" lon="2.58101">
        <ele>21.77</ele>
        <time>2021-08-07T09:05:51Z</time>
      </trkpt>
      <trkpt lat="50.80917" lon="2.58105">
        <ele>21.77</ele>
        <time>2021-08-07T09:05:52Z</time>
      </trkpt>
      <trkpt lat="50.80917" lon="2.5811">
        <ele>21.77</ele>
        <time>2021-08-07T09:05:53Z</time>
      </trkpt>
      <trkpt lat="50.80919" lon="2.58121">
        <ele>21.77</ele>
        <time>2021-08-07T09:05:56Z</time>
      </trkpt>
      <trkpt lat="50.80922" lon="2.58122">
        <ele>21.77</ele>
        <time>2021-08-07T09:05:57Z</time>
      </trkpt>
      <trkpt lat="50.80924" lon="2.58122">
        <ele>21.77</ele>
        <time>2021-08-07T09:05:58Z</time>
      </trkpt>
      <trkpt lat="50.80927" lon="2.58121">
        <ele>21.77</ele>
        <time>2021-08-07T09:05:59Z</time>
      </trkpt>
      <trkpt lat="50.80929" lon="2.58121">
        <ele>21.77</ele>
        <time>2021-08-07T09:06:00Z</time>
      </trkpt>
      <trkpt lat="50.80932" lon="2.58121">
        <ele>21.77</ele>
        <time>2021-08-07T09:06:01Z</time>
      </trkpt>
      <trkpt lat="50.80935" lon="2.58124">
        <ele>21.77</ele>
        <time>2021-08-07T09:06:02Z</time>
      </trkpt>
      <trkpt lat="50.80937" lon="2.58127">
        <ele>22.25</ele>
        <time>2021-08-07T09:06:03Z</time>
      </trkpt>
      <trkpt lat="50.80938" lon="2.58132">
        <ele>21.77</ele>
        <time>2021-08-07T09:06:04Z</time>
      </trkpt>
      <trkpt lat="50.80938" lon="2.58137">
        <ele>21.77</ele>
        <time>2021-08-07T09:06:05Z</time>
      </trkpt>
      <trkpt lat="50.80939" lon="2.58142">
        <ele>21.77</ele>
        <time>2021-08-07T09:06:06Z</time>
      </trkpt>
      <trkpt lat="50.80939" lon="2.58148">
        <ele>21.77</ele>
        <time>2021-08-07T09:06:07Z</time>
      </trkpt>
      <trkpt lat="50.80939" lon="2.58153">
        <ele>22.25</ele>
        <time>2021-08-07T09:06:08Z</time>
      </trkpt>
      <trkpt lat="50.80942" lon="2.58188">
        <ele>21.77</ele>
        <time>2021-08-07T09:06:16Z</time>
      </trkpt>
      <trkpt lat="50.80945" lon="2.58233">
        <ele>21.77</ele>
        <time>2021-08-07T09:06:25Z</time>
      </trkpt>
      <trkpt lat="50.80945" lon="2.58237">
        <ele>21.77</ele>
        <time>2021-08-07T09:06:26Z</time>
      </trkpt>
      <trkpt lat="50.80943" lon="2.58241">
        <ele>21.77</ele>
        <time>2021-08-07T09:06:27Z</time>
      </trkpt>
      <trkpt lat="50.80937" lon="2.58247">
        <ele>21.77</ele>
        <time>2021-08-07T09:06:33Z</time>
      </trkpt>
      <trkpt lat="50.80937" lon="2.58242">
        <ele>21.77</ele>
        <time>2021-08-07T09:06:37Z</time>
      </trkpt>
      <trkpt lat="50.80937" lon="2.5824">
        <ele>21.77</ele>
        <time>2021-08-07T09:06:38Z</time>
      </trkpt>
      <trkpt lat="50.80937" lon="2.58238">
        <ele>21.77</ele>
        <time>2021-08-07T09:06:39Z</time>
      </trkpt>
      <trkpt lat="50.80937" lon="2.58237">
        <ele>21.77</ele>
        <time>2021-08-07T09:06:40Z</time>
      </trkpt>
      <trkpt lat="50.80938" lon="2.58233">
        <ele>21.77</ele>
        <time>2021-08-07T09:06:47Z</time>
      </trkpt>
      <trkpt lat="50.80939" lon="2.58235">
        <ele>21.77</ele>
        <time>2021-08-07T09:06:50Z</time>
      </trkpt>
      <trkpt lat="50.80944" lon="2.58235">
        <ele>21.77</ele>
        <time>2021-08-07T09:06:57Z</time>
      </trkpt>
      <trkpt lat="50.80942" lon="2.58234">
        <ele>21.77</ele>
        <time>2021-08-07T09:07:10Z</time>
      </trkpt>
      <trkpt lat="50.80944" lon="2.58234">
        <ele>21.77</ele>
        <time>2021-08-07T09:07:28Z</time>
      </trkpt>
      <trkpt lat="50.8095" lon="2.58235">
        <ele>21.77</ele>
        <time>2021-08-07T09:07:44Z</time>
      </trkpt>
      <trkpt lat="50.80947" lon="2.58235">
        <ele>21.77</ele>
        <time>2021-08-07T09:08:02Z</time>
      </trkpt>
      <trkpt lat="50.80944" lon="2.58236">
        <ele>21.77</ele>
        <time>2021-08-07T09:08:14Z</time>
      </trkpt>
      <trkpt lat="50.80941" lon="2.58233">
        <ele>21.77</ele>
        <time>2021-08-07T09:08:28Z</time>
      </trkpt>
      <trkpt lat="50.8094" lon="2.58233">
        <ele>21.77</ele>
        <time>2021-08-07T09:08:39Z</time>
      </trkpt>
      <trkpt lat="50.8094" lon="2.58232">
        <ele>21.77</ele>
        <time>2021-08-07T09:08:52Z</time>
      </trkpt>
      <trkpt lat="50.80937" lon="2.58232">
        <ele>21.77</ele>
        <time>2021-08-07T09:09:04Z</time>
      </trkpt>
      <trkpt lat="50.80936" lon="2.5823">
        <ele>21.77</ele>
        <time>2021-08-07T09:09:24Z</time>
      </trkpt>
      <trkpt lat="50.80938" lon="2.58233">
        <ele>21.77</ele>
        <time>2021-08-07T09:09:45Z</time>
      </trkpt>
      <trkpt lat="50.80932" lon="2.58234">
        <ele>22.73</ele>
        <time>2021-08-07T09:10:04Z</time>
      </trkpt>
      <trkpt lat="50.80938" lon="2.58227">
        <ele>22.73</ele>
        <time>2021-08-07T09:10:24Z</time>
      </trkpt>
      <trkpt lat="50.80936" lon="2.58228">
        <ele>22.73</ele>
        <time>2021-08-07T09:10:45Z</time>
      </trkpt>
      <trkpt lat="50.80934" lon="2.58238">
        <ele>22.73</ele>
        <time>2021-08-07T09:11:04Z</time>
      </trkpt>
      <trkpt lat="50.80942" lon="2.58235">
        <ele>22.73</ele>
        <time>2021-08-07T09:11:24Z</time>
      </trkpt>
      <trkpt lat="50.80939" lon="2.58237">
        <ele>22.73</ele>
        <time>2021-08-07T09:11:38Z</time>
      </trkpt>
      <trkpt lat="50.80939" lon="2.58237">
        <ele>22.73</ele>
        <time>2021-08-07T09:11:55Z</time>
      </trkpt>
      <trkpt lat="50.80942" lon="2.58235">
        <ele>22.73</ele>
        <time>2021-08-07T09:12:11Z</time>
      </trkpt>
      <trkpt lat="50.80937" lon="2.58235">
        <ele>22.73</ele>
        <time>2021-08-07T09:12:25Z</time>
      </trkpt>
      <trkpt lat="50.80936" lon="2.58237">
        <ele>22.73</ele>
        <time>2021-08-07T09:12:42Z</time>
      </trkpt>
      <trkpt lat="50.80937" lon="2.58236">
        <ele>22.73</ele>
        <time>2021-08-07T09:12:57Z</time>
      </trkpt>
      <trkpt lat="50.80934" lon="2.58236">
        <ele>22.73</ele>
        <time>2021-08-07T09:13:12Z</time>
      </trkpt>
      <trkpt lat="50.80934" lon="2.58236">
        <ele>22.73</ele>
        <time>2021-08-07T09:13:19Z</time>
      </trkpt>
      <trkpt lat="50.80937" lon="2.58239">
        <ele>22.73</ele>
        <time>2021-08-07T09:13:26Z</time>
      </trkpt>
      <trkpt lat="50.80939" lon="2.5824">
        <ele>22.73</ele>
        <time>2021-08-07T09:13:27Z</time>
      </trkpt>
      <trkpt lat="50.80938" lon="2.5824">
        <ele>22.73</ele>
        <time>2021-08-07T09:13:31Z</time>
      </trkpt>
      <trkpt lat="50.80936" lon="2.58237">
        <ele>22.73</ele>
        <time>2021-08-07T09:13:46Z</time>
      </trkpt>
      <trkpt lat="50.80937" lon="2.58235">
        <ele>22.73</ele>
        <time>2021-08-07T09:14:02Z</time>
      </trkpt>
      <trkpt lat="50.80939" lon="2.58236">
        <ele>22.73</ele>
        <time>2021-08-07T09:14:17Z</time>
      </trkpt>
      <trkpt lat="50.8094" lon="2.58236">
        <ele>22.73</ele>
        <time>2021-08-07T09:14:33Z</time>
      </trkpt>
      <trkpt lat="50.80939" lon="2.58238">
        <ele>22.73</ele>
        <time>2021-08-07T09:14:47Z</time>
      </trkpt>
      <trkpt lat="50.80941" lon="2.58239">
        <ele>22.73</ele>
        <time>2021-08-07T09:14:56Z</time>
      </trkpt>
      <trkpt lat="50.80943" lon="2.58248">
        <ele>21.29</ele>
        <time>2021-08-07T09:15:03Z</time>
      </trkpt>
      <trkpt lat="50.80947" lon="2.58264">
        <ele>21.29</ele>
        <time>2021-08-07T09:15:09Z</time>
      </trkpt>
      <trkpt lat="50.80942" lon="2.58293">
        <ele>20.81</ele>
        <time>2021-08-07T09:15:16Z</time>
      </trkpt>
      <trkpt lat="50.80942" lon="2.58334">
        <ele>20.81</ele>
        <time>2021-08-07T09:15:23Z</time>
      </trkpt>
      <trkpt lat="50.80946" lon="2.58393">
        <ele>20.81</ele>
        <time>2021-08-07T09:15:31Z</time>
      </trkpt>
      <trkpt lat="50.80948" lon="2.58444">
        <ele>20.81</ele>
        <time>2021-08-07T09:15:39Z</time>
      </trkpt>
      <trkpt lat="50.80949" lon="2.5845">
        <ele>20.81</ele>
        <time>2021-08-07T09:15:40Z</time>
      </trkpt>
      <trkpt lat="50.80949" lon="2.58457">
        <ele>22.25</ele>
        <time>2021-08-07T09:15:41Z</time>
      </trkpt>
      <trkpt lat="50.80956" lon="2.58526">
        <ele>23.21</ele>
        <time>2021-08-07T09:15:52Z</time>
      </trkpt>
      <trkpt lat="50.80959" lon="2.5858">
        <ele>24.65</ele>
        <time>2021-08-07T09:16:01Z</time>
      </trkpt>
      <trkpt lat="50.80963" lon="2.58642">
        <ele>25.13</ele>
        <time>2021-08-07T09:16:12Z</time>
      </trkpt>
      <trkpt lat="50.80963" lon="2.58653">
        <ele>25.13</ele>
        <time>2021-08-07T09:16:14Z</time>
      </trkpt>
      <trkpt lat="50.80963" lon="2.58658">
        <ele>25.13</ele>
        <time>2021-08-07T09:16:15Z</time>
      </trkpt>
      <trkpt lat="50.80964" lon="2.58663">
        <ele>25.13</ele>
        <time>2021-08-07T09:16:16Z</time>
      </trkpt>
      <trkpt lat="50.80965" lon="2.58667">
        <ele>25.13</ele>
        <time>2021-08-07T09:16:17Z</time>
      </trkpt>
      <trkpt lat="50.80965" lon="2.58673">
        <ele>25.13</ele>
        <time>2021-08-07T09:16:18Z</time>
      </trkpt>
      <trkpt lat="50.80966" lon="2.58678">
        <ele>25.13</ele>
        <time>2021-08-07T09:16:19Z</time>
      </trkpt>
      <trkpt lat="50.80969" lon="2.58713">
        <ele>26.57</ele>
        <time>2021-08-07T09:16:27Z</time>
      </trkpt>
      <trkpt lat="50.80969" lon="2.58722">
        <ele>27.05</ele>
        <time>2021-08-07T09:16:31Z</time>
      </trkpt>
      <trkpt lat="50.8097" lon="2.58723">
        <ele>27.05</ele>
        <time>2021-08-07T09:16:46Z</time>
      </trkpt>
      <trkpt lat="50.8097" lon="2.58724">
        <ele>27.05</ele>
        <time>2021-08-07T09:17:09Z</time>
      </trkpt>
      <trkpt lat="50.80969" lon="2.58723">
        <ele>27.05</ele>
        <time>2021-08-07T09:17:27Z</time>
      </trkpt>
      <trkpt lat="50.80969" lon="2.58723">
        <ele>27.05</ele>
        <time>2021-08-07T09:17:47Z</time>
      </trkpt>
      <trkpt lat="50.8097" lon="2.58723">
        <ele>27.05</ele>
        <time>2021-08-07T09:18:12Z</time>
      </trkpt>
      <trkpt lat="50.8097" lon="2.58723">
        <ele>27.05</ele>
        <time>2021-08-07T09:18:28Z</time>
      </trkpt>
      <trkpt lat="50.80971" lon="2.58726">
        <ele>27.05</ele>
        <time>2021-08-07T09:18:45Z</time>
      </trkpt>
      <trkpt lat="50.8097" lon="2.58726">
        <ele>27.05</ele>
        <time>2021-08-07T09:18:58Z</time>
      </trkpt>
      <trkpt lat="50.80971" lon="2.58727">
        <ele>27.05</ele>
        <time>2021-08-07T09:18:59Z</time>
      </trkpt>
      <trkpt lat="50.80972" lon="2.58729">
        <ele>27.05</ele>
        <time>2021-08-07T09:19:00Z</time>
      </trkpt>
      <trkpt lat="50.80973" lon="2.58731">
        <ele>27.05</ele>
        <time>2021-08-07T09:19:01Z</time>
      </trkpt>
      <trkpt lat="50.80974" lon="2.58734">
        <ele>27.05</ele>
        <time>2021-08-07T09:19:02Z</time>
      </trkpt>
      <trkpt lat="50.80975" lon="2.58738">
        <ele>27.05</ele>
        <time>2021-08-07T09:19:03Z</time>
      </trkpt>
      <trkpt lat="50.80975" lon="2.58743">
        <ele>27.05</ele>
        <time>2021-08-07T09:19:04Z</time>
      </trkpt>
      <trkpt lat="50.80975" lon="2.58749">
        <ele>27.05</ele>
        <time>2021-08-07T09:19:05Z</time>
      </trkpt>
      <trkpt lat="50.80976" lon="2.58762">
        <ele>27.53</ele>
        <time>2021-08-07T09:19:08Z</time>
      </trkpt>
      <trkpt lat="50.80978" lon="2.58762">
        <ele>27.53</ele>
        <time>2021-08-07T09:19:09Z</time>
      </trkpt>
      <trkpt lat="50.80979" lon="2.5876">
        <ele>27.53</ele>
        <time>2021-08-07T09:19:10Z</time>
      </trkpt>
      <trkpt lat="50.8098" lon="2.58756">
        <ele>27.53</ele>
        <time>2021-08-07T09:19:11Z</time>
      </trkpt>
      <trkpt lat="50.80979" lon="2.58751">
        <ele>27.53</ele>
        <time>2021-08-07T09:19:12Z</time>
      </trkpt>
      <trkpt lat="50.80977" lon="2.58746">
        <ele>27.53</ele>
        <time>2021-08-07T09:19:13Z</time>
      </trkpt>
      <trkpt lat="50.80971" lon="2.58714">
        <ele>27.53</ele>
        <time>2021-08-07T09:19:19Z</time>
      </trkpt>
      <trkpt lat="50.80968" lon="2.58709">
        <ele>27.53</ele>
        <time>2021-08-07T09:19:20Z</time>
      </trkpt>
      <trkpt lat="50.80965" lon="2.58709">
        <ele>27.53</ele>
        <time>2021-08-07T09:19:21Z</time>
      </trkpt>
      <trkpt lat="50.80962" lon="2.5871">
        <ele>26.09</ele>
        <time>2021-08-07T09:19:22Z</time>
      </trkpt>
      <trkpt lat="50.80959" lon="2.58712">
        <ele>25.61</ele>
        <time>2021-08-07T09:19:23Z</time>
      </trkpt>
      <trkpt lat="50.80955" lon="2.58716">
        <ele>25.61</ele>
        <time>2021-08-07T09:19:24Z</time>
      </trkpt>
      <trkpt lat="50.80953" lon="2.58719">
        <ele>25.61</ele>
        <time>2021-08-07T09:19:25Z</time>
      </trkpt>
      <trkpt lat="50.80949" lon="2.58724">
        <ele>25.13</ele>
        <time>2021-08-07T09:19:26Z</time>
      </trkpt>
      <trkpt lat="50.80938" lon="2.58741">
        <ele>26.57</ele>
        <time>2021-08-07T09:19:30Z</time>
      </trkpt>
      <trkpt lat="50.80923" lon="2.58762">
        <ele>26.57</ele>
        <time>2021-08-07T09:19:35Z</time>
      </trkpt>
      <trkpt lat="50.80914" lon="2.58775">
        <ele>27.53</ele>
        <time>2021-08-07T09:19:38Z</time>
      </trkpt>
      <trkpt lat="50.80899" lon="2.588">
        <ele>28.02</ele>
        <time>2021-08-07T09:19:43Z</time>
      </trkpt>
      <trkpt lat="50.80897" lon="2.58805">
        <ele>28.02</ele>
        <time>2021-08-07T09:19:44Z</time>
      </trkpt>
      <trkpt lat="50.80884" lon="2.58845">
        <ele>28.02</ele>
        <time>2021-08-07T09:19:50Z</time>
      </trkpt>
      <trkpt lat="50.8086" lon="2.58918">
        <ele>26.09</ele>
        <time>2021-08-07T09:20:00Z</time>
      </trkpt>
      <trkpt lat="50.80836" lon="2.58987">
        <ele>26.09</ele>
        <time>2021-08-07T09:20:09Z</time>
      </trkpt>
      <trkpt lat="50.80805" lon="2.59065">
        <ele>25.13</ele>
        <time>2021-08-07T09:20:19Z</time>
      </trkpt>
      <trkpt lat="50.80792" lon="2.59094">
        <ele>25.13</ele>
        <time>2021-08-07T09:20:23Z</time>
      </trkpt>
      <trkpt lat="50.80756" lon="2.59163">
        <ele>24.17</ele>
        <time>2021-08-07T09:20:33Z</time>
      </trkpt>
      <trkpt lat="50.80749" lon="2.59177">
        <ele>24.17</ele>
        <time>2021-08-07T09:20:35Z</time>
      </trkpt>
      <trkpt lat="50.80743" lon="2.59192">
        <ele>24.17</ele>
        <time>2021-08-07T09:20:37Z</time>
      </trkpt>
      <trkpt lat="50.80739" lon="2.59196">
        <ele>24.17</ele>
        <time>2021-08-07T09:20:38Z</time>
      </trkpt>
      <trkpt lat="50.80734" lon="2.59197">
        <ele>23.69</ele>
        <time>2021-08-07T09:20:39Z</time>
      </trkpt>
      <trkpt lat="50.80728" lon="2.59194">
        <ele>23.69</ele>
        <time>2021-08-07T09:20:40Z</time>
      </trkpt>
      <trkpt lat="50.80725" lon="2.5919">
        <ele>25.13</ele>
        <time>2021-08-07T09:20:41Z</time>
      </trkpt>
      <trkpt lat="50.80721" lon="2.59186">
        <ele>25.13</ele>
        <time>2021-08-07T09:20:42Z</time>
      </trkpt>
      <trkpt lat="50.80718" lon="2.5918">
        <ele>25.13</ele>
        <time>2021-08-07T09:20:43Z</time>
      </trkpt>
      <trkpt lat="50.80715" lon="2.59175">
        <ele>26.09</ele>
        <time>2021-08-07T09:20:44Z</time>
      </trkpt>
      <trkpt lat="50.80712" lon="2.59169">
        <ele>26.57</ele>
        <time>2021-08-07T09:20:45Z</time>
      </trkpt>
      <trkpt lat="50.80701" lon="2.5915">
        <ele>26.09</ele>
        <time>2021-08-07T09:20:49Z</time>
      </trkpt>
      <trkpt lat="50.80677" lon="2.5911">
        <ele>27.53</ele>
        <time>2021-08-07T09:20:57Z</time>
      </trkpt>
      <trkpt lat="50.80646" lon="2.59049">
        <ele>28.5</ele>
        <time>2021-08-07T09:21:08Z</time>
      </trkpt>
      <trkpt lat="50.80643" lon="2.59044">
        <ele>28.5</ele>
        <time>2021-08-07T09:21:09Z</time>
      </trkpt>
      <trkpt lat="50.80639" lon="2.5904">
        <ele>28.5</ele>
        <time>2021-08-07T09:21:10Z</time>
      </trkpt>
      <trkpt lat="50.80634" lon="2.59037">
        <ele>28.5</ele>
        <time>2021-08-07T09:21:11Z</time>
      </trkpt>
      <trkpt lat="50.8063" lon="2.59035">
        <ele>28.5</ele>
        <time>2021-08-07T09:21:12Z</time>
      </trkpt>
      <trkpt lat="50.80626" lon="2.59034">
        <ele>28.5</ele>
        <time>2021-08-07T09:21:13Z</time>
      </trkpt>
      <trkpt lat="50.80622" lon="2.59034">
        <ele>28.5</ele>
        <time>2021-08-07T09:21:14Z</time>
      </trkpt>
      <trkpt lat="50.80617" lon="2.59035">
        <ele>28.5</ele>
        <time>2021-08-07T09:21:15Z</time>
      </trkpt>
      <trkpt lat="50.80613" lon="2.59036">
        <ele>28.5</ele>
        <time>2021-08-07T09:21:16Z</time>
      </trkpt>
      <trkpt lat="50.80608" lon="2.59036">
        <ele>28.5</ele>
        <time>2021-08-07T09:21:17Z</time>
      </trkpt>
      <trkpt lat="50.80604" lon="2.59035">
        <ele>28.98</ele>
        <time>2021-08-07T09:21:18Z</time>
      </trkpt>
      <trkpt lat="50.806" lon="2.59033">
        <ele>28.98</ele>
        <time>2021-08-07T09:21:19Z</time>
      </trkpt>
      <trkpt lat="50.80596" lon="2.59029">
        <ele>28.98</ele>
        <time>2021-08-07T09:21:20Z</time>
      </trkpt>
      <trkpt lat="50.80593" lon="2.59023">
        <ele>28.98</ele>
        <time>2021-08-07T09:21:21Z</time>
      </trkpt>
      <trkpt lat="50.8059" lon="2.59017">
        <ele>28.98</ele>
        <time>2021-08-07T09:21:22Z</time>
      </trkpt>
      <trkpt lat="50.80571" lon="2.58988">
        <ele>29.46</ele>
        <time>2021-08-07T09:21:29Z</time>
      </trkpt>
      <trkpt lat="50.80568" lon="2.5899">
        <ele>29.46</ele>
        <time>2021-08-07T09:21:30Z</time>
      </trkpt>
      <trkpt lat="50.80565" lon="2.58993">
        <ele>29.46</ele>
        <time>2021-08-07T09:21:31Z</time>
      </trkpt>
      <trkpt lat="50.80562" lon="2.58998">
        <ele>29.46</ele>
        <time>2021-08-07T09:21:32Z</time>
      </trkpt>
      <trkpt lat="50.80559" lon="2.59003">
        <ele>29.46</ele>
        <time>2021-08-07T09:21:33Z</time>
      </trkpt>
      <trkpt lat="50.80556" lon="2.59008">
        <ele>29.46</ele>
        <time>2021-08-07T09:21:34Z</time>
      </trkpt>
      <trkpt lat="50.80521" lon="2.59055">
        <ele>27.53</ele>
        <time>2021-08-07T09:21:43Z</time>
      </trkpt>
      <trkpt lat="50.80509" lon="2.5907">
        <ele>27.53</ele>
        <time>2021-08-07T09:21:46Z</time>
      </trkpt>
      <trkpt lat="50.80488" lon="2.59105">
        <ele>29.46</ele>
        <time>2021-08-07T09:21:53Z</time>
      </trkpt>
      <trkpt lat="50.80487" lon="2.59109">
        <ele>29.46</ele>
        <time>2021-08-07T09:21:54Z</time>
      </trkpt>
      <trkpt lat="50.80471" lon="2.5914">
        <ele>29.46</ele>
        <time>2021-08-07T09:22:00Z</time>
      </trkpt>
      <trkpt lat="50.80468" lon="2.59146">
        <ele>29.46</ele>
        <time>2021-08-07T09:22:01Z</time>
      </trkpt>
      <trkpt lat="50.80443" lon="2.59204">
        <ele>29.46</ele>
        <time>2021-08-07T09:22:10Z</time>
      </trkpt>
      <trkpt lat="50.8044" lon="2.59209">
        <ele>29.94</ele>
        <time>2021-08-07T09:22:11Z</time>
      </trkpt>
      <trkpt lat="50.80408" lon="2.59248">
        <ele>29.94</ele>
        <time>2021-08-07T09:22:19Z</time>
      </trkpt>
      <trkpt lat="50.80377" lon="2.59286">
        <ele>30.9</ele>
        <time>2021-08-07T09:22:27Z</time>
      </trkpt>
      <trkpt lat="50.80335" lon="2.5934">
        <ele>30.9</ele>
        <time>2021-08-07T09:22:37Z</time>
      </trkpt>
      <trkpt lat="50.80322" lon="2.59357">
        <ele>29.46</ele>
        <time>2021-08-07T09:22:40Z</time>
      </trkpt>
      <trkpt lat="50.80284" lon="2.59416">
        <ele>31.38</ele>
        <time>2021-08-07T09:22:51Z</time>
      </trkpt>
      <trkpt lat="50.80257" lon="2.59473">
        <ele>32.34</ele>
        <time>2021-08-07T09:23:00Z</time>
      </trkpt>
      <trkpt lat="50.80233" lon="2.59554">
        <ele>32.34</ele>
        <time>2021-08-07T09:23:11Z</time>
      </trkpt>
      <trkpt lat="50.80218" lon="2.59588">
        <ele>30.9</ele>
        <time>2021-08-07T09:23:16Z</time>
      </trkpt>
      <trkpt lat="50.80194" lon="2.59639">
        <ele>30.9</ele>
        <time>2021-08-07T09:23:23Z</time>
      </trkpt>
      <trkpt lat="50.80162" lon="2.59717">
        <ele>29.46</ele>
        <time>2021-08-07T09:23:32Z</time>
      </trkpt>
      <trkpt lat="50.80122" lon="2.59808">
        <ele>27.53</ele>
        <time>2021-08-07T09:23:42Z</time>
      </trkpt>
      <trkpt lat="50.80091" lon="2.59864">
        <ele>27.53</ele>
        <time>2021-08-07T09:23:49Z</time>
      </trkpt>
      <trkpt lat="50.80079" lon="2.59882">
        <ele>28.98</ele>
        <time>2021-08-07T09:23:52Z</time>
      </trkpt>
      <trkpt lat="50.80061" lon="2.59909">
        <ele>30.42</ele>
        <time>2021-08-07T09:23:57Z</time>
      </trkpt>
      <trkpt lat="50.8003" lon="2.59964">
        <ele>31.38</ele>
        <time>2021-08-07T09:24:07Z</time>
      </trkpt>
      <trkpt lat="50.79995" lon="2.60006">
        <ele>31.86</ele>
        <time>2021-08-07T09:24:16Z</time>
      </trkpt>
      <trkpt lat="50.79983" lon="2.60016">
        <ele>30.9</ele>
        <time>2021-08-07T09:24:19Z</time>
      </trkpt>
      <trkpt lat="50.7996" lon="2.60029">
        <ele>32.82</ele>
        <time>2021-08-07T09:24:25Z</time>
      </trkpt>
      <trkpt lat="50.79928" lon="2.60051">
        <ele>34.26</ele>
        <time>2021-08-07T09:24:34Z</time>
      </trkpt>
      <trkpt lat="50.79892" lon="2.60077">
        <ele>34.74</ele>
        <time>2021-08-07T09:24:44Z</time>
      </trkpt>
      <trkpt lat="50.79865" lon="2.601">
        <ele>34.74</ele>
        <time>2021-08-07T09:24:52Z</time>
      </trkpt>
      <trkpt lat="50.79858" lon="2.60115">
        <ele>35.71</ele>
        <time>2021-08-07T09:24:55Z</time>
      </trkpt>
      <trkpt lat="50.79857" lon="2.60121">
        <ele>35.71</ele>
        <time>2021-08-07T09:24:56Z</time>
      </trkpt>
      <trkpt lat="50.79857" lon="2.60127">
        <ele>36.19</ele>
        <time>2021-08-07T09:24:57Z</time>
      </trkpt>
      <trkpt lat="50.79855" lon="2.60179">
        <ele>36.19</ele>
        <time>2021-08-07T09:25:04Z</time>
      </trkpt>
      <trkpt lat="50.79854" lon="2.60186">
        <ele>36.19</ele>
        <time>2021-08-07T09:25:05Z</time>
      </trkpt>
      <trkpt lat="50.79853" lon="2.60193">
        <ele>36.19</ele>
        <time>2021-08-07T09:25:06Z</time>
      </trkpt>
      <trkpt lat="50.79851" lon="2.602">
        <ele>36.19</ele>
        <time>2021-08-07T09:25:07Z</time>
      </trkpt>
      <trkpt lat="50.79849" lon="2.60207">
        <ele>36.19</ele>
        <time>2021-08-07T09:25:08Z</time>
      </trkpt>
      <trkpt lat="50.79846" lon="2.60213">
        <ele>36.19</ele>
        <time>2021-08-07T09:25:09Z</time>
      </trkpt>
      <trkpt lat="50.79844" lon="2.60219">
        <ele>36.19</ele>
        <time>2021-08-07T09:25:10Z</time>
      </trkpt>
      <trkpt lat="50.79817" lon="2.60267">
        <ele>36.67</ele>
        <time>2021-08-07T09:25:19Z</time>
      </trkpt>
      <trkpt lat="50.79792" lon="2.60304">
        <ele>38.11</ele>
        <time>2021-08-07T09:25:27Z</time>
      </trkpt>
      <trkpt lat="50.79774" lon="2.60308">
        <ele>38.11</ele>
        <time>2021-08-07T09:25:32Z</time>
      </trkpt>
      <trkpt lat="50.79736" lon="2.60324">
        <ele>38.59</ele>
        <time>2021-08-07T09:25:42Z</time>
      </trkpt>
      <trkpt lat="50.79702" lon="2.60346">
        <ele>40.03</ele>
        <time>2021-08-07T09:25:51Z</time>
      </trkpt>
      <trkpt lat="50.79661" lon="2.6038">
        <ele>38.59</ele>
        <time>2021-08-07T09:26:01Z</time>
      </trkpt>
      <trkpt lat="50.79614" lon="2.60423">
        <ele>37.15</ele>
        <time>2021-08-07T09:26:11Z</time>
      </trkpt>
      <trkpt lat="50.79567" lon="2.60467">
        <ele>35.71</ele>
        <time>2021-08-07T09:26:20Z</time>
      </trkpt>
      <trkpt lat="50.79511" lon="2.60515">
        <ele>34.74</ele>
        <time>2021-08-07T09:26:30Z</time>
      </trkpt>
      <trkpt lat="50.7946" lon="2.60535">
        <ele>33.78</ele>
        <time>2021-08-07T09:26:38Z</time>
      </trkpt>
      <trkpt lat="50.79448" lon="2.60542">
        <ele>33.3</ele>
        <time>2021-08-07T09:26:40Z</time>
      </trkpt>
      <trkpt lat="50.79442" lon="2.60546">
        <ele>33.3</ele>
        <time>2021-08-07T09:26:41Z</time>
      </trkpt>
      <trkpt lat="50.79436" lon="2.60552">
        <ele>33.3</ele>
        <time>2021-08-07T09:26:42Z</time>
      </trkpt>
      <trkpt lat="50.79426" lon="2.60563">
        <ele>34.74</ele>
        <time>2021-08-07T09:26:44Z</time>
      </trkpt>
      <trkpt lat="50.79421" lon="2.6057">
        <ele>34.74</ele>
        <time>2021-08-07T09:26:45Z</time>
      </trkpt>
      <trkpt lat="50.79417" lon="2.60578">
        <ele>34.74</ele>
        <time>2021-08-07T09:26:46Z</time>
      </trkpt>
      <trkpt lat="50.79414" lon="2.60586">
        <ele>34.74</ele>
        <time>2021-08-07T09:26:47Z</time>
      </trkpt>
      <trkpt lat="50.79411" lon="2.60595">
        <ele>34.74</ele>
        <time>2021-08-07T09:26:48Z</time>
      </trkpt>
      <trkpt lat="50.79409" lon="2.60603">
        <ele>34.74</ele>
        <time>2021-08-07T09:26:49Z</time>
      </trkpt>
      <trkpt lat="50.79407" lon="2.60611">
        <ele>34.74</ele>
        <time>2021-08-07T09:26:50Z</time>
      </trkpt>
      <trkpt lat="50.79398" lon="2.60652">
        <ele>34.74</ele>
        <time>2021-08-07T09:26:55Z</time>
      </trkpt>
      <trkpt lat="50.79396" lon="2.60658">
        <ele>34.74</ele>
        <time>2021-08-07T09:26:56Z</time>
      </trkpt>
      <trkpt lat="50.79393" lon="2.60664">
        <ele>34.74</ele>
        <time>2021-08-07T09:26:57Z</time>
      </trkpt>
      <trkpt lat="50.79389" lon="2.60669">
        <ele>34.74</ele>
        <time>2021-08-07T09:26:58Z</time>
      </trkpt>
      <trkpt lat="50.79385" lon="2.60674">
        <ele>34.74</ele>
        <time>2021-08-07T09:26:59Z</time>
      </trkpt>
      <trkpt lat="50.79381" lon="2.60677">
        <ele>34.74</ele>
        <time>2021-08-07T09:27:00Z</time>
      </trkpt>
      <trkpt lat="50.79376" lon="2.6068">
        <ele>34.74</ele>
        <time>2021-08-07T09:27:01Z</time>
      </trkpt>
      <trkpt lat="50.79372" lon="2.60682">
        <ele>35.23</ele>
        <time>2021-08-07T09:27:02Z</time>
      </trkpt>
      <trkpt lat="50.79363" lon="2.60686">
        <ele>35.23</ele>
        <time>2021-08-07T09:27:04Z</time>
      </trkpt>
      <trkpt lat="50.79359" lon="2.60688">
        <ele>35.23</ele>
        <time>2021-08-07T09:27:05Z</time>
      </trkpt>
      <trkpt lat="50.79355" lon="2.60689">
        <ele>35.23</ele>
        <time>2021-08-07T09:27:06Z</time>
      </trkpt>
      <trkpt lat="50.79351" lon="2.60694">
        <ele>36.19</ele>
        <time>2021-08-07T09:27:07Z</time>
      </trkpt>
      <trkpt lat="50.7935" lon="2.60699">
        <ele>36.67</ele>
        <time>2021-08-07T09:27:08Z</time>
      </trkpt>
      <trkpt lat="50.7935" lon="2.60706">
        <ele>36.67</ele>
        <time>2021-08-07T09:27:09Z</time>
      </trkpt>
      <trkpt lat="50.79352" lon="2.60712">
        <ele>37.15</ele>
        <time>2021-08-07T09:27:10Z</time>
      </trkpt>
      <trkpt lat="50.79354" lon="2.60719">
        <ele>37.15</ele>
        <time>2021-08-07T09:27:11Z</time>
      </trkpt>
      <trkpt lat="50.79356" lon="2.60726">
        <ele>37.15</ele>
        <time>2021-08-07T09:27:12Z</time>
      </trkpt>
      <trkpt lat="50.79382" lon="2.60799">
        <ele>35.23</ele>
        <time>2021-08-07T09:27:22Z</time>
      </trkpt>
      <trkpt lat="50.79412" lon="2.60879">
        <ele>34.26</ele>
        <time>2021-08-07T09:27:32Z</time>
      </trkpt>
      <trkpt lat="50.79436" lon="2.6094">
        <ele>33.3</ele>
        <time>2021-08-07T09:27:39Z</time>
      </trkpt>
      <trkpt lat="50.79469" lon="2.60992">
        <ele>33.3</ele>
        <time>2021-08-07T09:27:46Z</time>
      </trkpt>
      <trkpt lat="50.79483" lon="2.61017">
        <ele>32.82</ele>
        <time>2021-08-07T09:27:49Z</time>
      </trkpt>
      <trkpt lat="50.79487" lon="2.61026">
        <ele>32.34</ele>
        <time>2021-08-07T09:27:50Z</time>
      </trkpt>
      <trkpt lat="50.7949" lon="2.61036">
        <ele>32.34</ele>
        <time>2021-08-07T09:27:51Z</time>
      </trkpt>
      <trkpt lat="50.79493" lon="2.61047">
        <ele>32.34</ele>
        <time>2021-08-07T09:27:52Z</time>
      </trkpt>
      <trkpt lat="50.79496" lon="2.61056">
        <ele>32.34</ele>
        <time>2021-08-07T09:27:53Z</time>
      </trkpt>
      <trkpt lat="50.79503" lon="2.61093">
        <ele>33.78</ele>
        <time>2021-08-07T09:27:57Z</time>
      </trkpt>
      <trkpt lat="50.79517" lon="2.61164">
        <ele>37.15</ele>
        <time>2021-08-07T09:28:06Z</time>
      </trkpt>
      <trkpt lat="50.79518" lon="2.61171">
        <ele>37.15</ele>
        <time>2021-08-07T09:28:07Z</time>
      </trkpt>
      <trkpt lat="50.7952" lon="2.61178">
        <ele>37.15</ele>
        <time>2021-08-07T09:28:08Z</time>
      </trkpt>
      <trkpt lat="50.79534" lon="2.6125">
        <ele>38.11</ele>
        <time>2021-08-07T09:28:18Z</time>
      </trkpt>
      <trkpt lat="50.79539" lon="2.61282">
        <ele>38.59</ele>
        <time>2021-08-07T09:28:22Z</time>
      </trkpt>
      <trkpt lat="50.7954" lon="2.61291">
        <ele>39.07</ele>
        <time>2021-08-07T09:28:23Z</time>
      </trkpt>
      <trkpt lat="50.79556" lon="2.61371">
        <ele>37.63</ele>
        <time>2021-08-07T09:28:32Z</time>
      </trkpt>
      <trkpt lat="50.79568" lon="2.61434">
        <ele>35.71</ele>
        <time>2021-08-07T09:28:38Z</time>
      </trkpt>
      <trkpt lat="50.79585" lon="2.61519">
        <ele>32.34</ele>
        <time>2021-08-07T09:28:45Z</time>
      </trkpt>
      <trkpt lat="50.79597" lon="2.61582">
        <ele>30.42</ele>
        <time>2021-08-07T09:28:50Z</time>
      </trkpt>
      <trkpt lat="50.79609" lon="2.61645">
        <ele>28.98</ele>
        <time>2021-08-07T09:28:55Z</time>
      </trkpt>
      <trkpt lat="50.79616" lon="2.6173">
        <ele>28.98</ele>
        <time>2021-08-07T09:29:02Z</time>
      </trkpt>
      <trkpt lat="50.7962" lon="2.61798">
        <ele>31.38</ele>
        <time>2021-08-07T09:29:09Z</time>
      </trkpt>
      <trkpt lat="50.79621" lon="2.61805">
        <ele>31.86</ele>
        <time>2021-08-07T09:29:10Z</time>
      </trkpt>
      <trkpt lat="50.79622" lon="2.61812">
        <ele>31.86</ele>
        <time>2021-08-07T09:29:11Z</time>
      </trkpt>
      <trkpt lat="50.79623" lon="2.61819">
        <ele>33.3</ele>
        <time>2021-08-07T09:29:12Z</time>
      </trkpt>
      <trkpt lat="50.7964" lon="2.61902">
        <ele>35.71</ele>
        <time>2021-08-07T09:29:24Z</time>
      </trkpt>
      <trkpt lat="50.79657" lon="2.61983">
        <ele>37.63</ele>
        <time>2021-08-07T09:29:35Z</time>
      </trkpt>
      <trkpt lat="50.79659" lon="2.62047">
        <ele>38.11</ele>
        <time>2021-08-07T09:29:43Z</time>
      </trkpt>
      <trkpt lat="50.79666" lon="2.62122">
        <ele>39.07</ele>
        <time>2021-08-07T09:29:53Z</time>
      </trkpt>
      <trkpt lat="50.79668" lon="2.62197">
        <ele>40.51</ele>
        <time>2021-08-07T09:30:03Z</time>
      </trkpt>
      <trkpt lat="50.79664" lon="2.62273">
        <ele>40.99</ele>
        <time>2021-08-07T09:30:13Z</time>
      </trkpt>
      <trkpt lat="50.79666" lon="2.62335">
        <ele>41.47</ele>
        <time>2021-08-07T09:30:21Z</time>
      </trkpt>
      <trkpt lat="50.7968" lon="2.62399">
        <ele>43.88</ele>
        <time>2021-08-07T09:30:30Z</time>
      </trkpt>
      <trkpt lat="50.79704" lon="2.62466">
        <ele>45.8</ele>
        <time>2021-08-07T09:30:40Z</time>
      </trkpt>
      <trkpt lat="50.79716" lon="2.62499">
        <ele>46.28</ele>
        <time>2021-08-07T09:30:45Z</time>
      </trkpt>
      <trkpt lat="50.7973" lon="2.62565">
        <ele>47.24</ele>
        <time>2021-08-07T09:30:54Z</time>
      </trkpt>
      <trkpt lat="50.79737" lon="2.62594">
        <ele>47.24</ele>
        <time>2021-08-07T09:30:58Z</time>
      </trkpt>
      <trkpt lat="50.7974" lon="2.62599">
        <ele>48.2</ele>
        <time>2021-08-07T09:30:59Z</time>
      </trkpt>
      <trkpt lat="50.79743" lon="2.62604">
        <ele>48.68</ele>
        <time>2021-08-07T09:31:00Z</time>
      </trkpt>
      <trkpt lat="50.79747" lon="2.62607">
        <ele>48.68</ele>
        <time>2021-08-07T09:31:01Z</time>
      </trkpt>
      <trkpt lat="50.79752" lon="2.6261">
        <ele>49.16</ele>
        <time>2021-08-07T09:31:02Z</time>
      </trkpt>
      <trkpt lat="50.79757" lon="2.6261">
        <ele>49.16</ele>
        <time>2021-08-07T09:31:03Z</time>
      </trkpt>
      <trkpt lat="50.79762" lon="2.6261">
        <ele>49.16</ele>
        <time>2021-08-07T09:31:04Z</time>
      </trkpt>
      <trkpt lat="50.79791" lon="2.62614">
        <ele>47.72</ele>
        <time>2021-08-07T09:31:09Z</time>
      </trkpt>
      <trkpt lat="50.79797" lon="2.62615">
        <ele>47.72</ele>
        <time>2021-08-07T09:31:10Z</time>
      </trkpt>
      <trkpt lat="50.79824" lon="2.62618">
        <ele>44.84</ele>
        <time>2021-08-07T09:31:14Z</time>
      </trkpt>
      <trkpt lat="50.79831" lon="2.62623">
        <ele>43.88</ele>
        <time>2021-08-07T09:31:15Z</time>
      </trkpt>
      <trkpt lat="50.79837" lon="2.62632">
        <ele>42.44</ele>
        <time>2021-08-07T09:31:16Z</time>
      </trkpt>
      <trkpt lat="50.79842" lon="2.62642">
        <ele>42.44</ele>
        <time>2021-08-07T09:31:17Z</time>
      </trkpt>
      <trkpt lat="50.79844" lon="2.62652">
        <ele>42.44</ele>
        <time>2021-08-07T09:31:18Z</time>
      </trkpt>
      <trkpt lat="50.79844" lon="2.62661">
        <ele>42.44</ele>
        <time>2021-08-07T09:31:19Z</time>
      </trkpt>
      <trkpt lat="50.79842" lon="2.62671">
        <ele>42.44</ele>
        <time>2021-08-07T09:31:20Z</time>
      </trkpt>
      <trkpt lat="50.7984" lon="2.62677">
        <ele>42.44</ele>
        <time>2021-08-07T09:31:21Z</time>
      </trkpt>
      <trkpt lat="50.79838" lon="2.62683">
        <ele>43.4</ele>
        <time>2021-08-07T09:31:22Z</time>
      </trkpt>
      <trkpt lat="50.79822" lon="2.62727">
        <ele>45.8</ele>
        <time>2021-08-07T09:31:30Z</time>
      </trkpt>
      <trkpt lat="50.79802" lon="2.62778">
        <ele>48.68</ele>
        <time>2021-08-07T09:31:40Z</time>
      </trkpt>
      <trkpt lat="50.79785" lon="2.62826">
        <ele>50.61</ele>
        <time>2021-08-07T09:31:49Z</time>
      </trkpt>
      <trkpt lat="50.79767" lon="2.62875">
        <ele>52.05</ele>
        <time>2021-08-07T09:31:58Z</time>
      </trkpt>
      <trkpt lat="50.79766" lon="2.62881">
        <ele>52.05</ele>
        <time>2021-08-07T09:31:59Z</time>
      </trkpt>
      <trkpt lat="50.79741" lon="2.62956">
        <ele>53.49</ele>
        <time>2021-08-07T09:32:11Z</time>
      </trkpt>
      <trkpt lat="50.7973" lon="2.62995">
        <ele>53.97</ele>
        <time>2021-08-07T09:32:17Z</time>
      </trkpt>
      <trkpt lat="50.79708" lon="2.63064">
        <ele>52.53</ele>
        <time>2021-08-07T09:32:27Z</time>
      </trkpt>
      <trkpt lat="50.79689" lon="2.63125">
        <ele>52.05</ele>
        <time>2021-08-07T09:32:35Z</time>
      </trkpt>
      <trkpt lat="50.7966" lon="2.63214">
        <ele>50.61</ele>
        <time>2021-08-07T09:32:46Z</time>
      </trkpt>
      <trkpt lat="50.79648" lon="2.63245">
        <ele>50.61</ele>
        <time>2021-08-07T09:32:50Z</time>
      </trkpt>
      <trkpt lat="50.79617" lon="2.63328">
        <ele>49.16</ele>
        <time>2021-08-07T09:33:00Z</time>
      </trkpt>
      <trkpt lat="50.79594" lon="2.63423">
        <ele>49.16</ele>
        <time>2021-08-07T09:33:10Z</time>
      </trkpt>
      <trkpt lat="50.7959" lon="2.63442">
        <ele>49.16</ele>
        <time>2021-08-07T09:33:12Z</time>
      </trkpt>
      <trkpt lat="50.79578" lon="2.63492">
        <ele>49.16</ele>
        <time>2021-08-07T09:33:18Z</time>
      </trkpt>
      <trkpt lat="50.79576" lon="2.63499">
        <ele>49.16</ele>
        <time>2021-08-07T09:33:19Z</time>
      </trkpt>
      <trkpt lat="50.79574" lon="2.63507">
        <ele>49.16</ele>
        <time>2021-08-07T09:33:20Z</time>
      </trkpt>
      <trkpt lat="50.79566" lon="2.63539">
        <ele>50.61</ele>
        <time>2021-08-07T09:33:24Z</time>
      </trkpt>
      <trkpt lat="50.79545" lon="2.63619">
        <ele>52.05</ele>
        <time>2021-08-07T09:33:35Z</time>
      </trkpt>
      <trkpt lat="50.79543" lon="2.63627">
        <ele>52.05</ele>
        <time>2021-08-07T09:33:36Z</time>
      </trkpt>
      <trkpt lat="50.79523" lon="2.6369">
        <ele>52.53</ele>
        <time>2021-08-07T09:33:45Z</time>
      </trkpt>
      <trkpt lat="50.795" lon="2.63752">
        <ele>52.53</ele>
        <time>2021-08-07T09:33:54Z</time>
      </trkpt>
      <trkpt lat="50.79469" lon="2.6383">
        <ele>53.01</ele>
        <time>2021-08-07T09:34:05Z</time>
      </trkpt>
      <trkpt lat="50.7944" lon="2.63898">
        <ele>52.05</ele>
        <time>2021-08-07T09:34:14Z</time>
      </trkpt>
      <trkpt lat="50.79408" lon="2.63982">
        <ele>49.65</ele>
        <time>2021-08-07T09:34:24Z</time>
      </trkpt>
      <trkpt lat="50.79389" lon="2.64034">
        <ele>50.13</ele>
        <time>2021-08-07T09:34:30Z</time>
      </trkpt>
      <trkpt lat="50.79363" lon="2.64105">
        <ele>48.2</ele>
        <time>2021-08-07T09:34:38Z</time>
      </trkpt>
      <trkpt lat="50.79345" lon="2.64171">
        <ele>46.76</ele>
        <time>2021-08-07T09:34:45Z</time>
      </trkpt>
      <trkpt lat="50.79319" lon="2.64245">
        <ele>45.8</ele>
        <time>2021-08-07T09:34:54Z</time>
      </trkpt>
      <trkpt lat="50.79317" lon="2.64255">
        <ele>45.8</ele>
        <time>2021-08-07T09:34:57Z</time>
      </trkpt>
      <trkpt lat="50.79318" lon="2.64259">
        <ele>45.8</ele>
        <time>2021-08-07T09:34:58Z</time>
      </trkpt>
      <trkpt lat="50.7932" lon="2.64262">
        <ele>45.8</ele>
        <time>2021-08-07T09:34:59Z</time>
      </trkpt>
      <trkpt lat="50.79323" lon="2.64265">
        <ele>45.8</ele>
        <time>2021-08-07T09:35:00Z</time>
      </trkpt>
      <trkpt lat="50.79327" lon="2.64268">
        <ele>45.32</ele>
        <time>2021-08-07T09:35:01Z</time>
      </trkpt>
      <trkpt lat="50.7933" lon="2.6427">
        <ele>45.32</ele>
        <time>2021-08-07T09:35:02Z</time>
      </trkpt>
      <trkpt lat="50.79337" lon="2.64274">
        <ele>45.32</ele>
        <time>2021-08-07T09:35:03Z</time>
      </trkpt>
      <trkpt lat="50.79365" lon="2.64298">
        <ele>44.84</ele>
        <time>2021-08-07T09:35:09Z</time>
      </trkpt>
      <trkpt lat="50.79366" lon="2.64305">
        <ele>44.36</ele>
        <time>2021-08-07T09:35:10Z</time>
      </trkpt>
      <trkpt lat="50.79365" lon="2.64315">
        <ele>43.88</ele>
        <time>2021-08-07T09:35:11Z</time>
      </trkpt>
      <trkpt lat="50.79362" lon="2.64322">
        <ele>43.88</ele>
        <time>2021-08-07T09:35:12Z</time>
      </trkpt>
      <trkpt lat="50.7936" lon="2.64329">
        <ele>43.88</ele>
        <time>2021-08-07T09:35:13Z</time>
      </trkpt>
      <trkpt lat="50.79339" lon="2.64392">
        <ele>42.44</ele>
        <time>2021-08-07T09:35:21Z</time>
      </trkpt>
      <trkpt lat="50.7934" lon="2.64402">
        <ele>42.44</ele>
        <time>2021-08-07T09:35:22Z</time>
      </trkpt>
      <trkpt lat="50.79342" lon="2.6441">
        <ele>42.44</ele>
        <time>2021-08-07T09:35:23Z</time>
      </trkpt>
      <trkpt lat="50.79345" lon="2.64418">
        <ele>41.95</ele>
        <time>2021-08-07T09:35:24Z</time>
      </trkpt>
      <trkpt lat="50.79349" lon="2.64425">
        <ele>41.95</ele>
        <time>2021-08-07T09:35:25Z</time>
      </trkpt>
      <trkpt lat="50.79367" lon="2.64465">
        <ele>41.95</ele>
        <time>2021-08-07T09:35:31Z</time>
      </trkpt>
      <trkpt lat="50.79365" lon="2.6447">
        <ele>41.95</ele>
        <time>2021-08-07T09:35:32Z</time>
      </trkpt>
      <trkpt lat="50.79363" lon="2.64474">
        <ele>41.95</ele>
        <time>2021-08-07T09:35:33Z</time>
      </trkpt>
      <trkpt lat="50.79352" lon="2.64491">
        <ele>41.95</ele>
        <time>2021-08-07T09:35:37Z</time>
      </trkpt>
      <trkpt lat="50.79338" lon="2.64519">
        <ele>41.95</ele>
        <time>2021-08-07T09:35:42Z</time>
      </trkpt>
      <trkpt lat="50.79336" lon="2.64524">
        <ele>41.95</ele>
        <time>2021-08-07T09:35:43Z</time>
      </trkpt>
      <trkpt lat="50.79335" lon="2.64529">
        <ele>41.95</ele>
        <time>2021-08-07T09:35:44Z</time>
      </trkpt>
      <trkpt lat="50.79335" lon="2.64533">
        <ele>43.4</ele>
        <time>2021-08-07T09:35:45Z</time>
      </trkpt>
      <trkpt lat="50.79335" lon="2.64537">
        <ele>43.4</ele>
        <time>2021-08-07T09:35:46Z</time>
      </trkpt>
      <trkpt lat="50.79336" lon="2.64543">
        <ele>43.4</ele>
        <time>2021-08-07T09:35:47Z</time>
      </trkpt>
      <trkpt lat="50.79336" lon="2.64548">
        <ele>43.4</ele>
        <time>2021-08-07T09:35:48Z</time>
      </trkpt>
      <trkpt lat="50.79337" lon="2.64554">
        <ele>43.4</ele>
        <time>2021-08-07T09:35:49Z</time>
      </trkpt>
      <trkpt lat="50.79346" lon="2.64587">
        <ele>43.88</ele>
        <time>2021-08-07T09:35:55Z</time>
      </trkpt>
      <trkpt lat="50.79345" lon="2.64592">
        <ele>43.88</ele>
        <time>2021-08-07T09:35:56Z</time>
      </trkpt>
      <trkpt lat="50.79342" lon="2.64595">
        <ele>43.88</ele>
        <time>2021-08-07T09:35:57Z</time>
      </trkpt>
      <trkpt lat="50.79334" lon="2.64604">
        <ele>43.88</ele>
        <time>2021-08-07T09:36:00Z</time>
      </trkpt>
      <trkpt lat="50.79334" lon="2.64607">
        <ele>44.84</ele>
        <time>2021-08-07T09:36:01Z</time>
      </trkpt>
      <trkpt lat="50.79335" lon="2.64611">
        <ele>44.84</ele>
        <time>2021-08-07T09:36:02Z</time>
      </trkpt>
      <trkpt lat="50.79337" lon="2.64615">
        <ele>44.84</ele>
        <time>2021-08-07T09:36:03Z</time>
      </trkpt>
      <trkpt lat="50.7934" lon="2.64618">
        <ele>44.84</ele>
        <time>2021-08-07T09:36:04Z</time>
      </trkpt>
      <trkpt lat="50.79343" lon="2.64623">
        <ele>44.84</ele>
        <time>2021-08-07T09:36:05Z</time>
      </trkpt>
      <trkpt lat="50.7937" lon="2.64655">
        <ele>44.84</ele>
        <time>2021-08-07T09:36:12Z</time>
      </trkpt>
      <trkpt lat="50.79394" lon="2.64685">
        <ele>44.84</ele>
        <time>2021-08-07T09:36:18Z</time>
      </trkpt>
      <trkpt lat="50.79416" lon="2.64714">
        <ele>44.84</ele>
        <time>2021-08-07T09:36:24Z</time>
      </trkpt>
      <trkpt lat="50.79451" lon="2.64747">
        <ele>44.84</ele>
        <time>2021-08-07T09:36:31Z</time>
      </trkpt>
      <trkpt lat="50.79487" lon="2.64783">
        <ele>43.88</ele>
        <time>2021-08-07T09:36:39Z</time>
      </trkpt>
      <trkpt lat="50.79492" lon="2.64794">
        <ele>43.88</ele>
        <time>2021-08-07T09:36:43Z</time>
      </trkpt>
      <trkpt lat="50.79493" lon="2.64795">
        <ele>43.88</ele>
        <time>2021-08-07T09:36:50Z</time>
      </trkpt>
      <trkpt lat="50.79493" lon="2.64795">
        <ele>44.84</ele>
        <time>2021-08-07T09:36:52Z</time>
      </trkpt>
      <trkpt lat="50.79493" lon="2.64793">
        <ele>44.84</ele>
        <time>2021-08-07T09:36:57Z</time>
      </trkpt>
      <trkpt lat="50.79491" lon="2.64787">
        <ele>44.84</ele>
        <time>2021-08-07T09:37:02Z</time>
      </trkpt>
      <trkpt lat="50.79489" lon="2.64782">
        <ele>44.84</ele>
        <time>2021-08-07T09:37:06Z</time>
      </trkpt>
      <trkpt lat="50.79486" lon="2.64777">
        <ele>44.84</ele>
        <time>2021-08-07T09:37:12Z</time>
      </trkpt>
      <trkpt lat="50.79477" lon="2.64768">
        <ele>43.4</ele>
        <time>2021-08-07T09:37:18Z</time>
      </trkpt>
      <trkpt lat="50.7947" lon="2.64756">
        <ele>44.84</ele>
        <time>2021-08-07T09:37:22Z</time>
      </trkpt>
      <trkpt lat="50.7947" lon="2.64753">
        <ele>44.84</ele>
        <time>2021-08-07T09:37:23Z</time>
      </trkpt>
      <trkpt lat="50.79472" lon="2.6475">
        <ele>44.84</ele>
        <time>2021-08-07T09:37:28Z</time>
      </trkpt>
      <trkpt lat="50.79473" lon="2.64751">
        <ele>44.84</ele>
        <time>2021-08-07T09:37:34Z</time>
      </trkpt>
      <trkpt lat="50.79476" lon="2.64753">
        <ele>44.84</ele>
        <time>2021-08-07T09:37:37Z</time>
      </trkpt>
      <trkpt lat="50.79477" lon="2.64755">
        <ele>44.84</ele>
        <time>2021-08-07T09:37:38Z</time>
      </trkpt>
      <trkpt lat="50.79478" lon="2.64755">
        <ele>44.84</ele>
        <time>2021-08-07T09:37:39Z</time>
      </trkpt>
      <trkpt lat="50.79481" lon="2.64756">
        <ele>44.84</ele>
        <time>2021-08-07T09:37:40Z</time>
      </trkpt>
      <trkpt lat="50.79483" lon="2.64758">
        <ele>44.84</ele>
        <time>2021-08-07T09:37:41Z</time>
      </trkpt>
      <trkpt lat="50.79486" lon="2.6476">
        <ele>44.84</ele>
        <time>2021-08-07T09:37:42Z</time>
      </trkpt>
      <trkpt lat="50.79494" lon="2.64767">
        <ele>44.84</ele>
        <time>2021-08-07T09:37:44Z</time>
      </trkpt>
      <trkpt lat="50.79501" lon="2.64775">
        <ele>43.4</ele>
        <time>2021-08-07T09:37:46Z</time>
      </trkpt>
      <trkpt lat="50.79504" lon="2.6478">
        <ele>42.92</ele>
        <time>2021-08-07T09:37:47Z</time>
      </trkpt>
      <trkpt lat="50.79531" lon="2.64825">
        <ele>42.92</ele>
        <time>2021-08-07T09:37:55Z</time>
      </trkpt>
      <trkpt lat="50.79541" lon="2.64842">
        <ele>42.92</ele>
        <time>2021-08-07T09:37:58Z</time>
      </trkpt>
      <trkpt lat="50.79546" lon="2.64847">
        <ele>42.92</ele>
        <time>2021-08-07T09:37:59Z</time>
      </trkpt>
      <trkpt lat="50.79551" lon="2.64852">
        <ele>42.92</ele>
        <time>2021-08-07T09:38:00Z</time>
      </trkpt>
      <trkpt lat="50.79583" lon="2.64881">
        <ele>43.4</ele>
        <time>2021-08-07T09:38:07Z</time>
      </trkpt>
      <trkpt lat="50.79599" lon="2.64894">
        <ele>43.4</ele>
        <time>2021-08-07T09:38:12Z</time>
      </trkpt>
      <trkpt lat="50.79604" lon="2.64897">
        <ele>43.4</ele>
        <time>2021-08-07T09:38:13Z</time>
      </trkpt>
      <trkpt lat="50.79608" lon="2.649">
        <ele>43.4</ele>
        <time>2021-08-07T09:38:14Z</time>
      </trkpt>
      <trkpt lat="50.79621" lon="2.64914">
        <ele>43.4</ele>
        <time>2021-08-07T09:38:17Z</time>
      </trkpt>
      <trkpt lat="50.79625" lon="2.6492">
        <ele>43.4</ele>
        <time>2021-08-07T09:38:18Z</time>
      </trkpt>
      <trkpt lat="50.79662" lon="2.64969">
        <ele>43.4</ele>
        <time>2021-08-07T09:38:26Z</time>
      </trkpt>
      <trkpt lat="50.79673" lon="2.64981">
        <ele>43.4</ele>
        <time>2021-08-07T09:38:28Z</time>
      </trkpt>
      <trkpt lat="50.79679" lon="2.64986">
        <ele>43.4</ele>
        <time>2021-08-07T09:38:29Z</time>
      </trkpt>
      <trkpt lat="50.79689" lon="2.64994">
        <ele>43.4</ele>
        <time>2021-08-07T09:38:31Z</time>
      </trkpt>
      <trkpt lat="50.79725" lon="2.65032">
        <ele>43.4</ele>
        <time>2021-08-07T09:38:38Z</time>
      </trkpt>
      <trkpt lat="50.7974" lon="2.65055">
        <ele>43.4</ele>
        <time>2021-08-07T09:38:43Z</time>
      </trkpt>
      <trkpt lat="50.7974" lon="2.65059">
        <ele>43.4</ele>
        <time>2021-08-07T09:38:44Z</time>
      </trkpt>
      <trkpt lat="50.79738" lon="2.65063">
        <ele>43.4</ele>
        <time>2021-08-07T09:38:45Z</time>
      </trkpt>
      <trkpt lat="50.79736" lon="2.65065">
        <ele>43.4</ele>
        <time>2021-08-07T09:38:46Z</time>
      </trkpt>
      <trkpt lat="50.79734" lon="2.65068">
        <ele>43.4</ele>
        <time>2021-08-07T09:38:47Z</time>
      </trkpt>
      <trkpt lat="50.79728" lon="2.65075">
        <ele>44.84</ele>
        <time>2021-08-07T09:38:49Z</time>
      </trkpt>
      <trkpt lat="50.79703" lon="2.65113">
        <ele>45.32</ele>
        <time>2021-08-07T09:38:58Z</time>
      </trkpt>
      <trkpt lat="50.79678" lon="2.65152">
        <ele>46.28</ele>
        <time>2021-08-07T09:39:07Z</time>
      </trkpt>
      <trkpt lat="50.79657" lon="2.65186">
        <ele>47.72</ele>
        <time>2021-08-07T09:39:15Z</time>
      </trkpt>
      <trkpt lat="50.79629" lon="2.65228">
        <ele>48.68</ele>
        <time>2021-08-07T09:39:25Z</time>
      </trkpt>
      <trkpt lat="50.79605" lon="2.65264">
        <ele>50.13</ele>
        <time>2021-08-07T09:39:35Z</time>
      </trkpt>
      <trkpt lat="50.7959" lon="2.65286">
        <ele>51.57</ele>
        <time>2021-08-07T09:39:42Z</time>
      </trkpt>
      <trkpt lat="50.79573" lon="2.6529">
        <ele>52.05</ele>
        <time>2021-08-07T09:39:47Z</time>
      </trkpt>
      <trkpt lat="50.79557" lon="2.65279">
        <ele>52.05</ele>
        <time>2021-08-07T09:39:52Z</time>
      </trkpt>
      <trkpt lat="50.79552" lon="2.65265">
        <ele>50.61</ele>
        <time>2021-08-07T09:39:57Z</time>
      </trkpt>
      <trkpt lat="50.79546" lon="2.65248">
        <ele>49.65</ele>
        <time>2021-08-07T09:40:00Z</time>
      </trkpt>
      <trkpt lat="50.79542" lon="2.65243">
        <ele>49.65</ele>
        <time>2021-08-07T09:40:01Z</time>
      </trkpt>
      <trkpt lat="50.79538" lon="2.65241">
        <ele>49.65</ele>
        <time>2021-08-07T09:40:02Z</time>
      </trkpt>
      <trkpt lat="50.79533" lon="2.6524">
        <ele>48.68</ele>
        <time>2021-08-07T09:40:03Z</time>
      </trkpt>
      <trkpt lat="50.79527" lon="2.65241">
        <ele>48.2</ele>
        <time>2021-08-07T09:40:04Z</time>
      </trkpt>
      <trkpt lat="50.79523" lon="2.65243">
        <ele>48.2</ele>
        <time>2021-08-07T09:40:05Z</time>
      </trkpt>
      <trkpt lat="50.79518" lon="2.65248">
        <ele>48.2</ele>
        <time>2021-08-07T09:40:06Z</time>
      </trkpt>
      <trkpt lat="50.79514" lon="2.65252">
        <ele>47.72</ele>
        <time>2021-08-07T09:40:07Z</time>
      </trkpt>
      <trkpt lat="50.7951" lon="2.65259">
        <ele>47.72</ele>
        <time>2021-08-07T09:40:08Z</time>
      </trkpt>
      <trkpt lat="50.79494" lon="2.65278">
        <ele>47.24</ele>
        <time>2021-08-07T09:40:13Z</time>
      </trkpt>
      <trkpt lat="50.79468" lon="2.65307">
        <ele>46.76</ele>
        <time>2021-08-07T09:40:21Z</time>
      </trkpt>
      <trkpt lat="50.7946" lon="2.65325">
        <ele>47.72</ele>
        <time>2021-08-07T09:40:25Z</time>
      </trkpt>
      <trkpt lat="50.79445" lon="2.6536">
        <ele>49.65</ele>
        <time>2021-08-07T09:40:34Z</time>
      </trkpt>
      <trkpt lat="50.79426" lon="2.65389">
        <ele>51.57</ele>
        <time>2021-08-07T09:40:43Z</time>
      </trkpt>
      <trkpt lat="50.79409" lon="2.65401">
        <ele>52.53</ele>
        <time>2021-08-07T09:40:50Z</time>
      </trkpt>
      <trkpt lat="50.79381" lon="2.65419">
        <ele>53.97</ele>
        <time>2021-08-07T09:41:01Z</time>
      </trkpt>
      <trkpt lat="50.79359" lon="2.65431">
        <ele>55.41</ele>
        <time>2021-08-07T09:41:10Z</time>
      </trkpt>
      <trkpt lat="50.79339" lon="2.65442">
        <ele>55.89</ele>
        <time>2021-08-07T09:41:18Z</time>
      </trkpt>
      <trkpt lat="50.79315" lon="2.65456">
        <ele>57.34</ele>
        <time>2021-08-07T09:41:28Z</time>
      </trkpt>
      <trkpt lat="50.79297" lon="2.65466">
        <ele>58.3</ele>
        <time>2021-08-07T09:41:36Z</time>
      </trkpt>
      <trkpt lat="50.79284" lon="2.65472">
        <ele>59.74</ele>
        <time>2021-08-07T09:41:42Z</time>
      </trkpt>
      <trkpt lat="50.79268" lon="2.65482">
        <ele>60.7</ele>
        <time>2021-08-07T09:41:50Z</time>
      </trkpt>
      <trkpt lat="50.79265" lon="2.65485">
        <ele>60.7</ele>
        <time>2021-08-07T09:41:52Z</time>
      </trkpt>
      <trkpt lat="50.79262" lon="2.65486">
        <ele>61.18</ele>
        <time>2021-08-07T09:41:53Z</time>
      </trkpt>
      <trkpt lat="50.79256" lon="2.65491">
        <ele>62.14</ele>
        <time>2021-08-07T09:41:57Z</time>
      </trkpt>
      <trkpt lat="50.79254" lon="2.65491">
        <ele>62.14</ele>
        <time>2021-08-07T09:41:58Z</time>
      </trkpt>
      <trkpt lat="50.79241" lon="2.65499">
        <ele>62.62</ele>
        <time>2021-08-07T09:42:05Z</time>
      </trkpt>
      <trkpt lat="50.79223" lon="2.65511">
        <ele>64.07</ele>
        <time>2021-08-07T09:42:13Z</time>
      </trkpt>
      <trkpt lat="50.79201" lon="2.65525">
        <ele>65.51</ele>
        <time>2021-08-07T09:42:23Z</time>
      </trkpt>
      <trkpt lat="50.79182" lon="2.65539">
        <ele>66.47</ele>
        <time>2021-08-07T09:42:33Z</time>
      </trkpt>
      <trkpt lat="50.79163" lon="2.65549">
        <ele>68.39</ele>
        <time>2021-08-07T09:42:42Z</time>
      </trkpt>
      <trkpt lat="50.79147" lon="2.65559">
        <ele>70.31</ele>
        <time>2021-08-07T09:42:50Z</time>
      </trkpt>
      <trkpt lat="50.79133" lon="2.65571">
        <ele>72.24</ele>
        <time>2021-08-07T09:42:58Z</time>
      </trkpt>
      <trkpt lat="50.79118" lon="2.65586">
        <ele>74.16</ele>
        <time>2021-08-07T09:43:07Z</time>
      </trkpt>
      <trkpt lat="50.79105" lon="2.65597">
        <ele>76.08</ele>
        <time>2021-08-07T09:43:14Z</time>
      </trkpt>
      <trkpt lat="50.79103" lon="2.65598">
        <ele>76.56</ele>
        <time>2021-08-07T09:43:15Z</time>
      </trkpt>
      <trkpt lat="50.79101" lon="2.65599">
        <ele>76.56</ele>
        <time>2021-08-07T09:43:16Z</time>
      </trkpt>
      <trkpt lat="50.79099" lon="2.65601">
        <ele>76.56</ele>
        <time>2021-08-07T09:43:17Z</time>
      </trkpt>
      <trkpt lat="50.79086" lon="2.65613">
        <ele>78</ele>
        <time>2021-08-07T09:43:24Z</time>
      </trkpt>
      <trkpt lat="50.79062" lon="2.65632">
        <ele>78.48</ele>
        <time>2021-08-07T09:43:35Z</time>
      </trkpt>
      <trkpt lat="50.79033" lon="2.65652">
        <ele>78.48</ele>
        <time>2021-08-07T09:43:44Z</time>
      </trkpt>
      <trkpt lat="50.79004" lon="2.65672">
        <ele>78.97</ele>
        <time>2021-08-07T09:43:55Z</time>
      </trkpt>
      <trkpt lat="50.78992" lon="2.65682">
        <ele>79.93</ele>
        <time>2021-08-07T09:44:01Z</time>
      </trkpt>
      <trkpt lat="50.7898" lon="2.65691">
        <ele>80.89</ele>
        <time>2021-08-07T09:44:07Z</time>
      </trkpt>
      <trkpt lat="50.78963" lon="2.65699">
        <ele>82.81</ele>
        <time>2021-08-07T09:44:15Z</time>
      </trkpt>
      <trkpt lat="50.78961" lon="2.657">
        <ele>82.81</ele>
        <time>2021-08-07T09:44:16Z</time>
      </trkpt>
      <trkpt lat="50.7896" lon="2.65701">
        <ele>83.29</ele>
        <time>2021-08-07T09:44:17Z</time>
      </trkpt>
      <trkpt lat="50.78944" lon="2.65706">
        <ele>84.25</ele>
        <time>2021-08-07T09:44:24Z</time>
      </trkpt>
      <trkpt lat="50.78943" lon="2.65705">
        <ele>84.25</ele>
        <time>2021-08-07T09:44:25Z</time>
      </trkpt>
      <trkpt lat="50.7894" lon="2.65704">
        <ele>84.73</ele>
        <time>2021-08-07T09:44:28Z</time>
      </trkpt>
      <trkpt lat="50.78926" lon="2.65704">
        <ele>86.18</ele>
        <time>2021-08-07T09:44:35Z</time>
      </trkpt>
      <trkpt lat="50.78924" lon="2.65704">
        <ele>86.18</ele>
        <time>2021-08-07T09:44:36Z</time>
      </trkpt>
      <trkpt lat="50.78923" lon="2.65704">
        <ele>87.14</ele>
        <time>2021-08-07T09:44:37Z</time>
      </trkpt>
      <trkpt lat="50.78921" lon="2.65705">
        <ele>87.14</ele>
        <time>2021-08-07T09:44:38Z</time>
      </trkpt>
      <trkpt lat="50.78919" lon="2.65705">
        <ele>87.14</ele>
        <time>2021-08-07T09:44:39Z</time>
      </trkpt>
      <trkpt lat="50.78917" lon="2.65706">
        <ele>87.62</ele>
        <time>2021-08-07T09:44:40Z</time>
      </trkpt>
      <trkpt lat="50.78915" lon="2.65706">
        <ele>87.62</ele>
        <time>2021-08-07T09:44:41Z</time>
      </trkpt>
      <trkpt lat="50.78913" lon="2.65707">
        <ele>87.62</ele>
        <time>2021-08-07T09:44:42Z</time>
      </trkpt>
      <trkpt lat="50.78911" lon="2.65709">
        <ele>88.1</ele>
        <time>2021-08-07T09:44:43Z</time>
      </trkpt>
      <trkpt lat="50.78897" lon="2.65717">
        <ele>89.06</ele>
        <time>2021-08-07T09:44:50Z</time>
      </trkpt>
      <trkpt lat="50.78881" lon="2.65724">
        <ele>90.02</ele>
        <time>2021-08-07T09:44:57Z</time>
      </trkpt>
      <trkpt lat="50.78867" lon="2.65729">
        <ele>90.98</ele>
        <time>2021-08-07T09:45:03Z</time>
      </trkpt>
      <trkpt lat="50.78853" lon="2.65732">
        <ele>91.94</ele>
        <time>2021-08-07T09:45:09Z</time>
      </trkpt>
      <trkpt lat="50.78838" lon="2.6574">
        <ele>93.87</ele>
        <time>2021-08-07T09:45:17Z</time>
      </trkpt>
      <trkpt lat="50.78822" lon="2.6575">
        <ele>95.31</ele>
        <time>2021-08-07T09:45:25Z</time>
      </trkpt>
      <trkpt lat="50.7882" lon="2.6575">
        <ele>95.79</ele>
        <time>2021-08-07T09:45:26Z</time>
      </trkpt>
      <trkpt lat="50.78808" lon="2.65748">
        <ele>97.23</ele>
        <time>2021-08-07T09:45:33Z</time>
      </trkpt>
      <trkpt lat="50.78804" lon="2.65748">
        <ele>97.23</ele>
        <time>2021-08-07T09:45:35Z</time>
      </trkpt>
      <trkpt lat="50.78797" lon="2.65742">
        <ele>98.67</ele>
        <time>2021-08-07T09:45:40Z</time>
      </trkpt>
      <trkpt lat="50.78796" lon="2.65739">
        <ele>99.15</ele>
        <time>2021-08-07T09:45:41Z</time>
      </trkpt>
      <trkpt lat="50.78795" lon="2.65737">
        <ele>99.15</ele>
        <time>2021-08-07T09:45:42Z</time>
      </trkpt>
      <trkpt lat="50.78794" lon="2.65734">
        <ele>99.15</ele>
        <time>2021-08-07T09:45:43Z</time>
      </trkpt>
      <trkpt lat="50.78793" lon="2.65732">
        <ele>99.63</ele>
        <time>2021-08-07T09:45:44Z</time>
      </trkpt>
      <trkpt lat="50.7879" lon="2.65728">
        <ele>99.63</ele>
        <time>2021-08-07T09:45:46Z</time>
      </trkpt>
      <trkpt lat="50.78783" lon="2.6571">
        <ele>102.04</ele>
        <time>2021-08-07T09:45:55Z</time>
      </trkpt>
      <trkpt lat="50.78782" lon="2.65708">
        <ele>102.04</ele>
        <time>2021-08-07T09:45:56Z</time>
      </trkpt>
      <trkpt lat="50.78782" lon="2.65706">
        <ele>102.04</ele>
        <time>2021-08-07T09:45:57Z</time>
      </trkpt>
      <trkpt lat="50.78781" lon="2.65704">
        <ele>102.04</ele>
        <time>2021-08-07T09:45:58Z</time>
      </trkpt>
      <trkpt lat="50.78779" lon="2.65703">
        <ele>102.04</ele>
        <time>2021-08-07T09:45:59Z</time>
      </trkpt>
      <trkpt lat="50.78778" lon="2.65702">
        <ele>102.52</ele>
        <time>2021-08-07T09:46:00Z</time>
      </trkpt>
      <trkpt lat="50.78765" lon="2.65709">
        <ele>103.48</ele>
        <time>2021-08-07T09:46:06Z</time>
      </trkpt>
      <trkpt lat="50.78756" lon="2.65715">
        <ele>103.96</ele>
        <time>2021-08-07T09:46:12Z</time>
      </trkpt>
      <trkpt lat="50.78747" lon="2.65722">
        <ele>105.4</ele>
        <time>2021-08-07T09:46:19Z</time>
      </trkpt>
      <trkpt lat="50.78734" lon="2.65735">
        <ele>106.84</ele>
        <time>2021-08-07T09:46:28Z</time>
      </trkpt>
      <trkpt lat="50.78724" lon="2.6574">
        <ele>108.29</ele>
        <time>2021-08-07T09:46:33Z</time>
      </trkpt>
      <trkpt lat="50.78714" lon="2.65743">
        <ele>108.29</ele>
        <time>2021-08-07T09:46:40Z</time>
      </trkpt>
      <trkpt lat="50.78713" lon="2.65744">
        <ele>108.29</ele>
        <time>2021-08-07T09:46:41Z</time>
      </trkpt>
      <trkpt lat="50.78706" lon="2.65727">
        <ele>109.73</ele>
        <time>2021-08-07T09:46:50Z</time>
      </trkpt>
      <trkpt lat="50.78701" lon="2.65714">
        <ele>110.21</ele>
        <time>2021-08-07T09:46:55Z</time>
      </trkpt>
      <trkpt lat="50.78692" lon="2.65695">
        <ele>111.17</ele>
        <time>2021-08-07T09:47:02Z</time>
      </trkpt>
      <trkpt lat="50.78686" lon="2.65679">
        <ele>111.17</ele>
        <time>2021-08-07T09:47:06Z</time>
      </trkpt>
      <trkpt lat="50.78683" lon="2.65678">
        <ele>111.17</ele>
        <time>2021-08-07T09:47:07Z</time>
      </trkpt>
      <trkpt lat="50.7868" lon="2.6568">
        <ele>111.17</ele>
        <time>2021-08-07T09:47:08Z</time>
      </trkpt>
      <trkpt lat="50.78678" lon="2.65684">
        <ele>111.17</ele>
        <time>2021-08-07T09:47:09Z</time>
      </trkpt>
      <trkpt lat="50.78677" lon="2.65687">
        <ele>111.17</ele>
        <time>2021-08-07T09:47:10Z</time>
      </trkpt>
      <trkpt lat="50.78666" lon="2.6571">
        <ele>113.57</ele>
        <time>2021-08-07T09:47:20Z</time>
      </trkpt>
      <trkpt lat="50.7866" lon="2.65719">
        <ele>114.05</ele>
        <time>2021-08-07T09:47:25Z</time>
      </trkpt>
      <trkpt lat="50.78659" lon="2.6572">
        <ele>114.05</ele>
        <time>2021-08-07T09:47:26Z</time>
      </trkpt>
      <trkpt lat="50.78657" lon="2.65725">
        <ele>114.53</ele>
        <time>2021-08-07T09:47:29Z</time>
      </trkpt>
      <trkpt lat="50.78656" lon="2.65726">
        <ele>114.53</ele>
        <time>2021-08-07T09:47:30Z</time>
      </trkpt>
      <trkpt lat="50.78656" lon="2.65728">
        <ele>114.53</ele>
        <time>2021-08-07T09:47:31Z</time>
      </trkpt>
      <trkpt lat="50.78655" lon="2.6573">
        <ele>114.53</ele>
        <time>2021-08-07T09:47:32Z</time>
      </trkpt>
      <trkpt lat="50.78654" lon="2.65732">
        <ele>115.01</ele>
        <time>2021-08-07T09:47:33Z</time>
      </trkpt>
      <trkpt lat="50.78653" lon="2.65734">
        <ele>115.01</ele>
        <time>2021-08-07T09:47:34Z</time>
      </trkpt>
      <trkpt lat="50.78651" lon="2.65736">
        <ele>115.5</ele>
        <time>2021-08-07T09:47:35Z</time>
      </trkpt>
      <trkpt lat="50.78648" lon="2.65746">
        <ele>116.94</ele>
        <time>2021-08-07T09:47:40Z</time>
      </trkpt>
      <trkpt lat="50.78647" lon="2.65747">
        <ele>117.42</ele>
        <time>2021-08-07T09:47:41Z</time>
      </trkpt>
      <trkpt lat="50.78647" lon="2.6575">
        <ele>117.42</ele>
        <time>2021-08-07T09:47:42Z</time>
      </trkpt>
      <trkpt lat="50.78646" lon="2.65752">
        <ele>117.9</ele>
        <time>2021-08-07T09:47:43Z</time>
      </trkpt>
      <trkpt lat="50.78645" lon="2.65754">
        <ele>118.38</ele>
        <time>2021-08-07T09:47:44Z</time>
      </trkpt>
      <trkpt lat="50.78645" lon="2.65756">
        <ele>118.38</ele>
        <time>2021-08-07T09:47:45Z</time>
      </trkpt>
      <trkpt lat="50.78644" lon="2.65757">
        <ele>118.38</ele>
        <time>2021-08-07T09:47:46Z</time>
      </trkpt>
      <trkpt lat="50.78643" lon="2.65759">
        <ele>118.38</ele>
        <time>2021-08-07T09:47:47Z</time>
      </trkpt>
      <trkpt lat="50.78638" lon="2.65775">
        <ele>119.34</ele>
        <time>2021-08-07T09:47:54Z</time>
      </trkpt>
      <trkpt lat="50.78635" lon="2.65796">
        <ele>120.3</ele>
        <time>2021-08-07T09:48:02Z</time>
      </trkpt>
      <trkpt lat="50.7863" lon="2.65816">
        <ele>122.22</ele>
        <time>2021-08-07T09:48:11Z</time>
      </trkpt>
      <trkpt lat="50.78628" lon="2.65828">
        <ele>122.71</ele>
        <time>2021-08-07T09:48:16Z</time>
      </trkpt>
      <trkpt lat="50.78628" lon="2.65848">
        <ele>123.67</ele>
        <time>2021-08-07T09:48:23Z</time>
      </trkpt>
      <trkpt lat="50.78626" lon="2.65867">
        <ele>124.15</ele>
        <time>2021-08-07T09:48:30Z</time>
      </trkpt>
      <trkpt lat="50.78624" lon="2.6588">
        <ele>125.11</ele>
        <time>2021-08-07T09:48:35Z</time>
      </trkpt>
      <trkpt lat="50.78624" lon="2.65883">
        <ele>125.59</ele>
        <time>2021-08-07T09:48:36Z</time>
      </trkpt>
      <trkpt lat="50.78624" lon="2.65886">
        <ele>125.59</ele>
        <time>2021-08-07T09:48:37Z</time>
      </trkpt>
      <trkpt lat="50.78624" lon="2.65889">
        <ele>125.59</ele>
        <time>2021-08-07T09:48:38Z</time>
      </trkpt>
      <trkpt lat="50.78624" lon="2.65892">
        <ele>126.07</ele>
        <time>2021-08-07T09:48:39Z</time>
      </trkpt>
      <trkpt lat="50.78623" lon="2.65895">
        <ele>126.07</ele>
        <time>2021-08-07T09:48:40Z</time>
      </trkpt>
      <trkpt lat="50.7862" lon="2.65922">
        <ele>127.03</ele>
        <time>2021-08-07T09:48:48Z</time>
      </trkpt>
      <trkpt lat="50.7862" lon="2.65952">
        <ele>127.99</ele>
        <time>2021-08-07T09:48:56Z</time>
      </trkpt>
      <trkpt lat="50.78622" lon="2.65954">
        <ele>127.99</ele>
        <time>2021-08-07T09:48:57Z</time>
      </trkpt>
      <trkpt lat="50.78624" lon="2.65956">
        <ele>127.99</ele>
        <time>2021-08-07T09:48:58Z</time>
      </trkpt>
      <trkpt lat="50.78641" lon="2.65969">
        <ele>126.07</ele>
        <time>2021-08-07T09:49:04Z</time>
      </trkpt>
      <trkpt lat="50.78646" lon="2.65978">
        <ele>125.11</ele>
        <time>2021-08-07T09:49:06Z</time>
      </trkpt>
      <trkpt lat="50.78647" lon="2.65984">
        <ele>125.11</ele>
        <time>2021-08-07T09:49:07Z</time>
      </trkpt>
      <trkpt lat="50.78647" lon="2.6599">
        <ele>125.11</ele>
        <time>2021-08-07T09:49:08Z</time>
      </trkpt>
      <trkpt lat="50.78646" lon="2.65994">
        <ele>125.11</ele>
        <time>2021-08-07T09:49:09Z</time>
      </trkpt>
      <trkpt lat="50.78645" lon="2.65997">
        <ele>125.11</ele>
        <time>2021-08-07T09:49:10Z</time>
      </trkpt>
      <trkpt lat="50.78644" lon="2.66001">
        <ele>125.11</ele>
        <time>2021-08-07T09:49:11Z</time>
      </trkpt>
      <trkpt lat="50.78643" lon="2.66004">
        <ele>125.11</ele>
        <time>2021-08-07T09:49:12Z</time>
      </trkpt>
      <trkpt lat="50.78635" lon="2.6603">
        <ele>127.03</ele>
        <time>2021-08-07T09:49:20Z</time>
      </trkpt>
      <trkpt lat="50.78627" lon="2.66053">
        <ele>128.95</ele>
        <time>2021-08-07T09:49:28Z</time>
      </trkpt>
      <trkpt lat="50.78621" lon="2.66075">
        <ele>129.92</ele>
        <time>2021-08-07T09:49:35Z</time>
      </trkpt>
      <trkpt lat="50.78614" lon="2.66095">
        <ele>130.88</ele>
        <time>2021-08-07T09:49:42Z</time>
      </trkpt>
      <trkpt lat="50.78614" lon="2.66118">
        <ele>131.84</ele>
        <time>2021-08-07T09:49:49Z</time>
      </trkpt>
      <trkpt lat="50.78621" lon="2.66152">
        <ele>133.28</ele>
        <time>2021-08-07T09:49:58Z</time>
      </trkpt>
      <trkpt lat="50.78624" lon="2.66175">
        <ele>133.76</ele>
        <time>2021-08-07T09:50:04Z</time>
      </trkpt>
      <trkpt lat="50.78628" lon="2.66211">
        <ele>134.72</ele>
        <time>2021-08-07T09:50:13Z</time>
      </trkpt>
      <trkpt lat="50.78629" lon="2.66246">
        <ele>135.68</ele>
        <time>2021-08-07T09:50:21Z</time>
      </trkpt>
      <trkpt lat="50.78631" lon="2.66271">
        <ele>137.13</ele>
        <time>2021-08-07T09:50:27Z</time>
      </trkpt>
      <trkpt lat="50.78634" lon="2.66306">
        <ele>138.09</ele>
        <time>2021-08-07T09:50:35Z</time>
      </trkpt>
      <trkpt lat="50.78639" lon="2.66342">
        <ele>139.05</ele>
        <time>2021-08-07T09:50:43Z</time>
      </trkpt>
      <trkpt lat="50.78644" lon="2.66383">
        <ele>140.49</ele>
        <time>2021-08-07T09:50:53Z</time>
      </trkpt>
      <trkpt lat="50.78648" lon="2.6642">
        <ele>142.41</ele>
        <time>2021-08-07T09:51:02Z</time>
      </trkpt>
      <trkpt lat="50.78647" lon="2.66424">
        <ele>142.89</ele>
        <time>2021-08-07T09:51:03Z</time>
      </trkpt>
      <trkpt lat="50.78647" lon="2.66428">
        <ele>142.89</ele>
        <time>2021-08-07T09:51:04Z</time>
      </trkpt>
      <trkpt lat="50.78651" lon="2.66467">
        <ele>144.34</ele>
        <time>2021-08-07T09:51:14Z</time>
      </trkpt>
      <trkpt lat="50.7865" lon="2.66508">
        <ele>146.26</ele>
        <time>2021-08-07T09:51:24Z</time>
      </trkpt>
      <trkpt lat="50.78651" lon="2.66535">
        <ele>148.18</ele>
        <time>2021-08-07T09:51:31Z</time>
      </trkpt>
      <trkpt lat="50.78651" lon="2.66566">
        <ele>149.62</ele>
        <time>2021-08-07T09:51:39Z</time>
      </trkpt>
      <trkpt lat="50.78645" lon="2.66594">
        <ele>150.58</ele>
        <time>2021-08-07T09:51:47Z</time>
      </trkpt>
      <trkpt lat="50.78643" lon="2.66596">
        <ele>151.06</ele>
        <time>2021-08-07T09:51:48Z</time>
      </trkpt>
      <trkpt lat="50.78627" lon="2.66613">
        <ele>152.51</ele>
        <time>2021-08-07T09:51:56Z</time>
      </trkpt>
      <trkpt lat="50.78608" lon="2.66621">
        <ele>153.95</ele>
        <time>2021-08-07T09:52:04Z</time>
      </trkpt>
      <trkpt lat="50.78586" lon="2.66617">
        <ele>155.87</ele>
        <time>2021-08-07T09:52:13Z</time>
      </trkpt>
      <trkpt lat="50.78567" lon="2.66611">
        <ele>157.31</ele>
        <time>2021-08-07T09:52:21Z</time>
      </trkpt>
      <trkpt lat="50.78547" lon="2.66609">
        <ele>158.27</ele>
        <time>2021-08-07T09:52:29Z</time>
      </trkpt>
      <trkpt lat="50.78528" lon="2.66608">
        <ele>159.24</ele>
        <time>2021-08-07T09:52:35Z</time>
      </trkpt>
      <trkpt lat="50.78504" lon="2.6661">
        <ele>160.2</ele>
        <time>2021-08-07T09:52:43Z</time>
      </trkpt>
      <trkpt lat="50.78479" lon="2.66612">
        <ele>161.16</ele>
        <time>2021-08-07T09:52:51Z</time>
      </trkpt>
      <trkpt lat="50.78454" lon="2.66632">
        <ele>162.12</ele>
        <time>2021-08-07T09:52:59Z</time>
      </trkpt>
      <trkpt lat="50.78439" lon="2.66673">
        <ele>162.12</ele>
        <time>2021-08-07T09:53:07Z</time>
      </trkpt>
      <trkpt lat="50.78432" lon="2.66695">
        <ele>162.12</ele>
        <time>2021-08-07T09:53:11Z</time>
      </trkpt>
      <trkpt lat="50.78431" lon="2.66701">
        <ele>162.12</ele>
        <time>2021-08-07T09:53:12Z</time>
      </trkpt>
      <trkpt lat="50.7843" lon="2.66707">
        <ele>162.12</ele>
        <time>2021-08-07T09:53:13Z</time>
      </trkpt>
      <trkpt lat="50.78421" lon="2.66741">
        <ele>162.6</ele>
        <time>2021-08-07T09:53:20Z</time>
      </trkpt>
      <trkpt lat="50.78418" lon="2.66755">
        <ele>163.08</ele>
        <time>2021-08-07T09:53:23Z</time>
      </trkpt>
      <trkpt lat="50.78416" lon="2.66759">
        <ele>163.08</ele>
        <time>2021-08-07T09:53:24Z</time>
      </trkpt>
      <trkpt lat="50.78414" lon="2.66763">
        <ele>163.08</ele>
        <time>2021-08-07T09:53:25Z</time>
      </trkpt>
      <trkpt lat="50.7841" lon="2.66769">
        <ele>163.08</ele>
        <time>2021-08-07T09:53:26Z</time>
      </trkpt>
      <trkpt lat="50.78407" lon="2.66775">
        <ele>163.08</ele>
        <time>2021-08-07T09:53:27Z</time>
      </trkpt>
      <trkpt lat="50.78404" lon="2.66781">
        <ele>163.08</ele>
        <time>2021-08-07T09:53:28Z</time>
      </trkpt>
      <trkpt lat="50.784" lon="2.66793">
        <ele>162.12</ele>
        <time>2021-08-07T09:53:30Z</time>
      </trkpt>
      <trkpt lat="50.78391" lon="2.6682">
        <ele>163.08</ele>
        <time>2021-08-07T09:53:35Z</time>
      </trkpt>
      <trkpt lat="50.78377" lon="2.66872">
        <ele>163.08</ele>
        <time>2021-08-07T09:53:44Z</time>
      </trkpt>
      <trkpt lat="50.78374" lon="2.66911">
        <ele>161.64</ele>
        <time>2021-08-07T09:53:49Z</time>
      </trkpt>
      <trkpt lat="50.78372" lon="2.66928">
        <ele>161.16</ele>
        <time>2021-08-07T09:53:51Z</time>
      </trkpt>
      <trkpt lat="50.78372" lon="2.66936">
        <ele>160.68</ele>
        <time>2021-08-07T09:53:52Z</time>
      </trkpt>
      <trkpt lat="50.78373" lon="2.66943">
        <ele>160.68</ele>
        <time>2021-08-07T09:53:53Z</time>
      </trkpt>
      <trkpt lat="50.78373" lon="2.6695">
        <ele>160.68</ele>
        <time>2021-08-07T09:53:54Z</time>
      </trkpt>
      <trkpt lat="50.78373" lon="2.66956">
        <ele>160.2</ele>
        <time>2021-08-07T09:53:55Z</time>
      </trkpt>
      <trkpt lat="50.78371" lon="2.66962">
        <ele>160.68</ele>
        <time>2021-08-07T09:53:56Z</time>
      </trkpt>
      <trkpt lat="50.7837" lon="2.66968">
        <ele>159.72</ele>
        <time>2021-08-07T09:53:57Z</time>
      </trkpt>
      <trkpt lat="50.78369" lon="2.66975">
        <ele>159.24</ele>
        <time>2021-08-07T09:53:58Z</time>
      </trkpt>
      <trkpt lat="50.78369" lon="2.66988">
        <ele>158.27</ele>
        <time>2021-08-07T09:54:00Z</time>
      </trkpt>
      <trkpt lat="50.78364" lon="2.67026">
        <ele>158.27</ele>
        <time>2021-08-07T09:54:06Z</time>
      </trkpt>
      <trkpt lat="50.78362" lon="2.67039">
        <ele>158.27</ele>
        <time>2021-08-07T09:54:08Z</time>
      </trkpt>
      <trkpt lat="50.78362" lon="2.67045">
        <ele>157.79</ele>
        <time>2021-08-07T09:54:09Z</time>
      </trkpt>
      <trkpt lat="50.78361" lon="2.67057">
        <ele>157.31</ele>
        <time>2021-08-07T09:54:14Z</time>
      </trkpt>
      <trkpt lat="50.78362" lon="2.67059">
        <ele>157.31</ele>
        <time>2021-08-07T09:54:20Z</time>
      </trkpt>
      <trkpt lat="50.78363" lon="2.67059">
        <ele>157.31</ele>
        <time>2021-08-07T09:54:21Z</time>
      </trkpt>
      <trkpt lat="50.78366" lon="2.67066">
        <ele>156.83</ele>
        <time>2021-08-07T09:54:25Z</time>
      </trkpt>
      <trkpt lat="50.78366" lon="2.67069">
        <ele>155.87</ele>
        <time>2021-08-07T09:54:26Z</time>
      </trkpt>
      <trkpt lat="50.78367" lon="2.67072">
        <ele>155.39</ele>
        <time>2021-08-07T09:54:27Z</time>
      </trkpt>
      <trkpt lat="50.78367" lon="2.67075">
        <ele>155.39</ele>
        <time>2021-08-07T09:54:28Z</time>
      </trkpt>
      <trkpt lat="50.78367" lon="2.67078">
        <ele>154.43</ele>
        <time>2021-08-07T09:54:29Z</time>
      </trkpt>
      <trkpt lat="50.78366" lon="2.6708">
        <ele>153.47</ele>
        <time>2021-08-07T09:54:30Z</time>
      </trkpt>
      <trkpt lat="50.78366" lon="2.67082">
        <ele>153.47</ele>
        <time>2021-08-07T09:54:31Z</time>
      </trkpt>
      <trkpt lat="50.78365" lon="2.67083">
        <ele>153.47</ele>
        <time>2021-08-07T09:54:32Z</time>
      </trkpt>
      <trkpt lat="50.78363" lon="2.67084">
        <ele>153.47</ele>
        <time>2021-08-07T09:54:33Z</time>
      </trkpt>
      <trkpt lat="50.78361" lon="2.67085">
        <ele>153.47</ele>
        <time>2021-08-07T09:54:34Z</time>
      </trkpt>
      <trkpt lat="50.7836" lon="2.67085">
        <ele>153.47</ele>
        <time>2021-08-07T09:54:35Z</time>
      </trkpt>
      <trkpt lat="50.78358" lon="2.67086">
        <ele>153.47</ele>
        <time>2021-08-07T09:54:36Z</time>
      </trkpt>
      <trkpt lat="50.78356" lon="2.67087">
        <ele>153.47</ele>
        <time>2021-08-07T09:54:37Z</time>
      </trkpt>
      <trkpt lat="50.78354" lon="2.67088">
        <ele>153.47</ele>
        <time>2021-08-07T09:54:38Z</time>
      </trkpt>
      <trkpt lat="50.7834" lon="2.67096">
        <ele>154.91</ele>
        <time>2021-08-07T09:54:45Z</time>
      </trkpt>
      <trkpt lat="50.78311" lon="2.67103">
        <ele>154.91</ele>
        <time>2021-08-07T09:54:54Z</time>
      </trkpt>
      <trkpt lat="50.78291" lon="2.67104">
        <ele>154.91</ele>
        <time>2021-08-07T09:55:00Z</time>
      </trkpt>
      <trkpt lat="50.78272" lon="2.67093">
        <ele>153.47</ele>
        <time>2021-08-07T09:55:06Z</time>
      </trkpt>
      <trkpt lat="50.78257" lon="2.67093">
        <ele>152.99</ele>
        <time>2021-08-07T09:55:11Z</time>
      </trkpt>
      <trkpt lat="50.78255" lon="2.67096">
        <ele>152.99</ele>
        <time>2021-08-07T09:55:12Z</time>
      </trkpt>
      <trkpt lat="50.78254" lon="2.67101">
        <ele>152.03</ele>
        <time>2021-08-07T09:55:13Z</time>
      </trkpt>
      <trkpt lat="50.78253" lon="2.67105">
        <ele>152.03</ele>
        <time>2021-08-07T09:55:14Z</time>
      </trkpt>
      <trkpt lat="50.78252" lon="2.6711">
        <ele>152.03</ele>
        <time>2021-08-07T09:55:15Z</time>
      </trkpt>
      <trkpt lat="50.78252" lon="2.67115">
        <ele>152.03</ele>
        <time>2021-08-07T09:55:16Z</time>
      </trkpt>
      <trkpt lat="50.78247" lon="2.6716">
        <ele>152.03</ele>
        <time>2021-08-07T09:55:24Z</time>
      </trkpt>
      <trkpt lat="50.78241" lon="2.67199">
        <ele>151.54</ele>
        <time>2021-08-07T09:55:30Z</time>
      </trkpt>
      <trkpt lat="50.78239" lon="2.67206">
        <ele>151.06</ele>
        <time>2021-08-07T09:55:31Z</time>
      </trkpt>
      <trkpt lat="50.78238" lon="2.67211">
        <ele>151.06</ele>
        <time>2021-08-07T09:55:32Z</time>
      </trkpt>
      <trkpt lat="50.78237" lon="2.67216">
        <ele>150.58</ele>
        <time>2021-08-07T09:55:33Z</time>
      </trkpt>
      <trkpt lat="50.78236" lon="2.6722">
        <ele>150.58</ele>
        <time>2021-08-07T09:55:34Z</time>
      </trkpt>
      <trkpt lat="50.78236" lon="2.67224">
        <ele>149.62</ele>
        <time>2021-08-07T09:55:35Z</time>
      </trkpt>
      <trkpt lat="50.78225" lon="2.67249">
        <ele>146.74</ele>
        <time>2021-08-07T09:55:40Z</time>
      </trkpt>
      <trkpt lat="50.78222" lon="2.67252">
        <ele>145.78</ele>
        <time>2021-08-07T09:55:41Z</time>
      </trkpt>
      <trkpt lat="50.78218" lon="2.67254">
        <ele>145.3</ele>
        <time>2021-08-07T09:55:42Z</time>
      </trkpt>
      <trkpt lat="50.78214" lon="2.67257">
        <ele>144.82</ele>
        <time>2021-08-07T09:55:43Z</time>
      </trkpt>
      <trkpt lat="50.78199" lon="2.67261">
        <ele>141.45</ele>
        <time>2021-08-07T09:55:47Z</time>
      </trkpt>
      <trkpt lat="50.78193" lon="2.67261">
        <ele>140.49</ele>
        <time>2021-08-07T09:55:49Z</time>
      </trkpt>
      <trkpt lat="50.78191" lon="2.67261">
        <ele>140.01</ele>
        <time>2021-08-07T09:55:50Z</time>
      </trkpt>
      <trkpt lat="50.78188" lon="2.67263">
        <ele>139.05</ele>
        <time>2021-08-07T09:55:51Z</time>
      </trkpt>
      <trkpt lat="50.78186" lon="2.67268">
        <ele>138.57</ele>
        <time>2021-08-07T09:55:52Z</time>
      </trkpt>
      <trkpt lat="50.78185" lon="2.67273">
        <ele>137.61</ele>
        <time>2021-08-07T09:55:53Z</time>
      </trkpt>
      <trkpt lat="50.78183" lon="2.67277">
        <ele>136.64</ele>
        <time>2021-08-07T09:55:54Z</time>
      </trkpt>
      <trkpt lat="50.7818" lon="2.6728">
        <ele>135.68</ele>
        <time>2021-08-07T09:55:55Z</time>
      </trkpt>
      <trkpt lat="50.78177" lon="2.67282">
        <ele>134.72</ele>
        <time>2021-08-07T09:55:56Z</time>
      </trkpt>
      <trkpt lat="50.78173" lon="2.67284">
        <ele>133.76</ele>
        <time>2021-08-07T09:55:57Z</time>
      </trkpt>
      <trkpt lat="50.78168" lon="2.67287">
        <ele>131.84</ele>
        <time>2021-08-07T09:55:58Z</time>
      </trkpt>
      <trkpt lat="50.78162" lon="2.6729">
        <ele>130.88</ele>
        <time>2021-08-07T09:55:59Z</time>
      </trkpt>
      <trkpt lat="50.78146" lon="2.67297">
        <ele>127.51</ele>
        <time>2021-08-07T09:56:01Z</time>
      </trkpt>
      <trkpt lat="50.78118" lon="2.67306">
        <ele>124.63</ele>
        <time>2021-08-07T09:56:06Z</time>
      </trkpt>
      <trkpt lat="50.78113" lon="2.67309">
        <ele>124.63</ele>
        <time>2021-08-07T09:56:07Z</time>
      </trkpt>
      <trkpt lat="50.78111" lon="2.67314">
        <ele>124.63</ele>
        <time>2021-08-07T09:56:08Z</time>
      </trkpt>
      <trkpt lat="50.78109" lon="2.67321">
        <ele>123.67</ele>
        <time>2021-08-07T09:56:09Z</time>
      </trkpt>
      <trkpt lat="50.78107" lon="2.67375">
        <ele>121.74</ele>
        <time>2021-08-07T09:56:15Z</time>
      </trkpt>
      <trkpt lat="50.78108" lon="2.67397">
        <ele>119.82</ele>
        <time>2021-08-07T09:56:17Z</time>
      </trkpt>
      <trkpt lat="50.7811" lon="2.6741">
        <ele>118.86</ele>
        <time>2021-08-07T09:56:18Z</time>
      </trkpt>
      <trkpt lat="50.78112" lon="2.67424">
        <ele>118.38</ele>
        <time>2021-08-07T09:56:19Z</time>
      </trkpt>
      <trkpt lat="50.78116" lon="2.67437">
        <ele>116.94</ele>
        <time>2021-08-07T09:56:20Z</time>
      </trkpt>
      <trkpt lat="50.7812" lon="2.67451">
        <ele>115.98</ele>
        <time>2021-08-07T09:56:21Z</time>
      </trkpt>
      <trkpt lat="50.78126" lon="2.67464">
        <ele>114.53</ele>
        <time>2021-08-07T09:56:22Z</time>
      </trkpt>
      <trkpt lat="50.78133" lon="2.67477">
        <ele>113.57</ele>
        <time>2021-08-07T09:56:23Z</time>
      </trkpt>
      <trkpt lat="50.7814" lon="2.67489">
        <ele>112.61</ele>
        <time>2021-08-07T09:56:24Z</time>
      </trkpt>
      <trkpt lat="50.78148" lon="2.675">
        <ele>111.65</ele>
        <time>2021-08-07T09:56:25Z</time>
      </trkpt>
      <trkpt lat="50.78172" lon="2.67539">
        <ele>108.77</ele>
        <time>2021-08-07T09:56:28Z</time>
      </trkpt>
      <trkpt lat="50.78179" lon="2.67553">
        <ele>107.81</ele>
        <time>2021-08-07T09:56:29Z</time>
      </trkpt>
      <trkpt lat="50.78184" lon="2.6757">
        <ele>105.88</ele>
        <time>2021-08-07T09:56:30Z</time>
      </trkpt>
      <trkpt lat="50.78188" lon="2.67586">
        <ele>104.92</ele>
        <time>2021-08-07T09:56:31Z</time>
      </trkpt>
      <trkpt lat="50.7819" lon="2.67603">
        <ele>103.96</ele>
        <time>2021-08-07T09:56:32Z</time>
      </trkpt>
      <trkpt lat="50.78191" lon="2.6762">
        <ele>103.48</ele>
        <time>2021-08-07T09:56:33Z</time>
      </trkpt>
      <trkpt lat="50.78193" lon="2.6765">
        <ele>102.52</ele>
        <time>2021-08-07T09:56:35Z</time>
      </trkpt>
      <trkpt lat="50.78193" lon="2.67702">
        <ele>101.08</ele>
        <time>2021-08-07T09:56:39Z</time>
      </trkpt>
      <trkpt lat="50.78191" lon="2.67714">
        <ele>100.6</ele>
        <time>2021-08-07T09:56:40Z</time>
      </trkpt>
      <trkpt lat="50.78188" lon="2.67726">
        <ele>100.6</ele>
        <time>2021-08-07T09:56:41Z</time>
      </trkpt>
      <trkpt lat="50.78183" lon="2.67737">
        <ele>99.15</ele>
        <time>2021-08-07T09:56:42Z</time>
      </trkpt>
      <trkpt lat="50.78177" lon="2.67747">
        <ele>98.67</ele>
        <time>2021-08-07T09:56:43Z</time>
      </trkpt>
      <trkpt lat="50.78171" lon="2.67757">
        <ele>97.71</ele>
        <time>2021-08-07T09:56:44Z</time>
      </trkpt>
      <trkpt lat="50.78165" lon="2.67767">
        <ele>97.23</ele>
        <time>2021-08-07T09:56:45Z</time>
      </trkpt>
      <trkpt lat="50.78116" lon="2.67831">
        <ele>96.75</ele>
        <time>2021-08-07T09:56:53Z</time>
      </trkpt>
      <trkpt lat="50.78057" lon="2.6789">
        <ele>94.35</ele>
        <time>2021-08-07T09:57:02Z</time>
      </trkpt>
      <trkpt lat="50.78026" lon="2.67915">
        <ele>93.87</ele>
        <time>2021-08-07T09:57:07Z</time>
      </trkpt>
      <trkpt lat="50.78022" lon="2.6792">
        <ele>93.87</ele>
        <time>2021-08-07T09:57:08Z</time>
      </trkpt>
      <trkpt lat="50.7802" lon="2.67927">
        <ele>93.87</ele>
        <time>2021-08-07T09:57:09Z</time>
      </trkpt>
      <trkpt lat="50.78019" lon="2.67933">
        <ele>93.87</ele>
        <time>2021-08-07T09:57:10Z</time>
      </trkpt>
      <trkpt lat="50.7802" lon="2.67937">
        <ele>93.87</ele>
        <time>2021-08-07T09:57:11Z</time>
      </trkpt>
      <trkpt lat="50.7802" lon="2.67942">
        <ele>93.87</ele>
        <time>2021-08-07T09:57:12Z</time>
      </trkpt>
      <trkpt lat="50.78021" lon="2.67946">
        <ele>94.83</ele>
        <time>2021-08-07T09:57:13Z</time>
      </trkpt>
      <trkpt lat="50.78022" lon="2.67951">
        <ele>94.83</ele>
        <time>2021-08-07T09:57:14Z</time>
      </trkpt>
      <trkpt lat="50.78028" lon="2.67997">
        <ele>93.87</ele>
        <time>2021-08-07T09:57:22Z</time>
      </trkpt>
      <trkpt lat="50.78032" lon="2.68036">
        <ele>90.02</ele>
        <time>2021-08-07T09:57:26Z</time>
      </trkpt>
      <trkpt lat="50.78035" lon="2.68065">
        <ele>88.1</ele>
        <time>2021-08-07T09:57:29Z</time>
      </trkpt>
      <trkpt lat="50.78039" lon="2.68094">
        <ele>86.18</ele>
        <time>2021-08-07T09:57:33Z</time>
      </trkpt>
      <trkpt lat="50.78039" lon="2.68102">
        <ele>86.18</ele>
        <time>2021-08-07T09:57:34Z</time>
      </trkpt>
      <trkpt lat="50.78044" lon="2.68156">
        <ele>83.29</ele>
        <time>2021-08-07T09:57:40Z</time>
      </trkpt>
      <trkpt lat="50.78053" lon="2.68228">
        <ele>80.41</ele>
        <time>2021-08-07T09:57:47Z</time>
      </trkpt>
      <trkpt lat="50.78055" lon="2.68283">
        <ele>77.04</ele>
        <time>2021-08-07T09:57:52Z</time>
      </trkpt>
      <trkpt lat="50.78056" lon="2.68294">
        <ele>77.04</ele>
        <time>2021-08-07T09:57:53Z</time>
      </trkpt>
      <trkpt lat="50.78058" lon="2.68357">
        <ele>75.12</ele>
        <time>2021-08-07T09:57:59Z</time>
      </trkpt>
      <trkpt lat="50.78063" lon="2.68399">
        <ele>74.64</ele>
        <time>2021-08-07T09:58:04Z</time>
      </trkpt>
      <trkpt lat="50.78066" lon="2.68437">
        <ele>73.68</ele>
        <time>2021-08-07T09:58:10Z</time>
      </trkpt>
      <trkpt lat="50.78065" lon="2.68462">
        <ele>72.24</ele>
        <time>2021-08-07T09:58:14Z</time>
      </trkpt>
      <trkpt lat="50.78068" lon="2.6849">
        <ele>71.27</ele>
        <time>2021-08-07T09:58:18Z</time>
      </trkpt>
      <trkpt lat="50.78073" lon="2.68532">
        <ele>69.35</ele>
        <time>2021-08-07T09:58:24Z</time>
      </trkpt>
      <trkpt lat="50.78073" lon="2.6854">
        <ele>69.35</ele>
        <time>2021-08-07T09:58:25Z</time>
      </trkpt>
      <trkpt lat="50.78074" lon="2.68546">
        <ele>68.87</ele>
        <time>2021-08-07T09:58:26Z</time>
      </trkpt>
      <trkpt lat="50.7808" lon="2.6862">
        <ele>67.43</ele>
        <time>2021-08-07T09:58:35Z</time>
      </trkpt>
      <trkpt lat="50.78079" lon="2.6864">
        <ele>66.95</ele>
        <time>2021-08-07T09:58:37Z</time>
      </trkpt>
      <trkpt lat="50.78075" lon="2.68719">
        <ele>65.51</ele>
        <time>2021-08-07T09:58:46Z</time>
      </trkpt>
      <trkpt lat="50.78077" lon="2.68788">
        <ele>64.07</ele>
        <time>2021-08-07T09:58:54Z</time>
      </trkpt>
      <trkpt lat="50.78076" lon="2.68806">
        <ele>63.58</ele>
        <time>2021-08-07T09:58:56Z</time>
      </trkpt>
      <trkpt lat="50.7807" lon="2.68888">
        <ele>61.66</ele>
        <time>2021-08-07T09:59:04Z</time>
      </trkpt>
      <trkpt lat="50.78063" lon="2.68975">
        <ele>59.26</ele>
        <time>2021-08-07T09:59:12Z</time>
      </trkpt>
      <trkpt lat="50.78061" lon="2.68985">
        <ele>58.78</ele>
        <time>2021-08-07T09:59:13Z</time>
      </trkpt>
      <trkpt lat="50.78054" lon="2.69024">
        <ele>57.82</ele>
        <time>2021-08-07T09:59:18Z</time>
      </trkpt>
      <trkpt lat="50.78067" lon="2.69046">
        <ele>57.82</ele>
        <time>2021-08-07T09:59:23Z</time>
      </trkpt>
      <trkpt lat="50.78073" lon="2.69057">
        <ele>57.82</ele>
        <time>2021-08-07T09:59:25Z</time>
      </trkpt>
      <trkpt lat="50.78087" lon="2.69099">
        <ele>59.26</ele>
        <time>2021-08-07T09:59:33Z</time>
      </trkpt>
      <trkpt lat="50.78095" lon="2.69134">
        <ele>60.7</ele>
        <time>2021-08-07T09:59:41Z</time>
      </trkpt>
      <trkpt lat="50.78104" lon="2.69173">
        <ele>63.1</ele>
        <time>2021-08-07T09:59:51Z</time>
      </trkpt>
      <trkpt lat="50.7811" lon="2.69189">
        <ele>65.03</ele>
        <time>2021-08-07T09:59:55Z</time>
      </trkpt>
      <trkpt lat="50.78121" lon="2.69229">
        <ele>65.51</ele>
        <time>2021-08-07T10:00:03Z</time>
      </trkpt>
      <trkpt lat="50.78142" lon="2.69281">
        <ele>65.51</ele>
        <time>2021-08-07T10:00:12Z</time>
      </trkpt>
      <trkpt lat="50.78147" lon="2.69294">
        <ele>64.07</ele>
        <time>2021-08-07T10:00:14Z</time>
      </trkpt>
      <trkpt lat="50.78179" lon="2.69368">
        <ele>62.62</ele>
        <time>2021-08-07T10:00:24Z</time>
      </trkpt>
      <trkpt lat="50.78212" lon="2.6944">
        <ele>61.66</ele>
        <time>2021-08-07T10:00:33Z</time>
      </trkpt>
      <trkpt lat="50.78249" lon="2.69513">
        <ele>59.74</ele>
        <time>2021-08-07T10:00:42Z</time>
      </trkpt>
      <trkpt lat="50.78256" lon="2.69529">
        <ele>59.74</ele>
        <time>2021-08-07T10:00:45Z</time>
      </trkpt>
      <trkpt lat="50.78255" lon="2.69532">
        <ele>59.26</ele>
        <time>2021-08-07T10:00:46Z</time>
      </trkpt>
      <trkpt lat="50.78253" lon="2.69536">
        <ele>59.26</ele>
        <time>2021-08-07T10:00:47Z</time>
      </trkpt>
      <trkpt lat="50.78251" lon="2.6954">
        <ele>58.3</ele>
        <time>2021-08-07T10:00:48Z</time>
      </trkpt>
      <trkpt lat="50.78247" lon="2.69544">
        <ele>58.3</ele>
        <time>2021-08-07T10:00:49Z</time>
      </trkpt>
      <trkpt lat="50.78244" lon="2.69548">
        <ele>58.3</ele>
        <time>2021-08-07T10:00:50Z</time>
      </trkpt>
      <trkpt lat="50.78223" lon="2.69572">
        <ele>57.34</ele>
        <time>2021-08-07T10:00:55Z</time>
      </trkpt>
      <trkpt lat="50.78218" lon="2.69577">
        <ele>57.34</ele>
        <time>2021-08-07T10:00:56Z</time>
      </trkpt>
      <trkpt lat="50.78205" lon="2.69593">
        <ele>58.78</ele>
        <time>2021-08-07T10:00:59Z</time>
      </trkpt>
      <trkpt lat="50.78193" lon="2.69608">
        <ele>56.86</ele>
        <time>2021-08-07T10:01:02Z</time>
      </trkpt>
      <trkpt lat="50.78166" lon="2.6964">
        <ele>53.97</ele>
        <time>2021-08-07T10:01:09Z</time>
      </trkpt>
      <trkpt lat="50.78153" lon="2.69655">
        <ele>56.37</ele>
        <time>2021-08-07T10:01:12Z</time>
      </trkpt>
      <trkpt lat="50.78106" lon="2.69711">
        <ele>54.93</ele>
        <time>2021-08-07T10:01:22Z</time>
      </trkpt>
      <trkpt lat="50.78056" lon="2.69769">
        <ele>53.49</ele>
        <time>2021-08-07T10:01:31Z</time>
      </trkpt>
      <trkpt lat="50.77992" lon="2.69846">
        <ele>50.13</ele>
        <time>2021-08-07T10:01:42Z</time>
      </trkpt>
      <trkpt lat="50.7796" lon="2.69883">
        <ele>48.68</ele>
        <time>2021-08-07T10:01:47Z</time>
      </trkpt>
      <trkpt lat="50.77888" lon="2.69971">
        <ele>46.76</ele>
        <time>2021-08-07T10:01:58Z</time>
      </trkpt>
      <trkpt lat="50.77831" lon="2.70039">
        <ele>43.4</ele>
        <time>2021-08-07T10:02:06Z</time>
      </trkpt>
      <trkpt lat="50.77817" lon="2.70056">
        <ele>42.92</ele>
        <time>2021-08-07T10:02:08Z</time>
      </trkpt>
      <trkpt lat="50.77749" lon="2.70136">
        <ele>42.44</ele>
        <time>2021-08-07T10:02:18Z</time>
      </trkpt>
      <trkpt lat="50.7771" lon="2.7017">
        <ele>43.88</ele>
        <time>2021-08-07T10:02:24Z</time>
      </trkpt>
      <trkpt lat="50.77669" lon="2.70195">
        <ele>44.36</ele>
        <time>2021-08-07T10:02:31Z</time>
      </trkpt>
      <trkpt lat="50.77636" lon="2.70217">
        <ele>44.84</ele>
        <time>2021-08-07T10:02:38Z</time>
      </trkpt>
      <trkpt lat="50.77631" lon="2.7022">
        <ele>44.84</ele>
        <time>2021-08-07T10:02:39Z</time>
      </trkpt>
      <trkpt lat="50.77616" lon="2.70233">
        <ele>45.8</ele>
        <time>2021-08-07T10:02:43Z</time>
      </trkpt>
      <trkpt lat="50.77616" lon="2.70237">
        <ele>45.8</ele>
        <time>2021-08-07T10:02:44Z</time>
      </trkpt>
      <trkpt lat="50.77617" lon="2.70242">
        <ele>45.8</ele>
        <time>2021-08-07T10:02:45Z</time>
      </trkpt>
      <trkpt lat="50.77622" lon="2.7027">
        <ele>45.8</ele>
        <time>2021-08-07T10:02:50Z</time>
      </trkpt>
      <trkpt lat="50.77624" lon="2.70283">
        <ele>45.8</ele>
        <time>2021-08-07T10:02:52Z</time>
      </trkpt>
      <trkpt lat="50.77639" lon="2.70353">
        <ele>45.8</ele>
        <time>2021-08-07T10:03:02Z</time>
      </trkpt>
      <trkpt lat="50.77646" lon="2.7039">
        <ele>44.84</ele>
        <time>2021-08-07T10:03:07Z</time>
      </trkpt>
      <trkpt lat="50.77654" lon="2.70429">
        <ele>43.88</ele>
        <time>2021-08-07T10:03:12Z</time>
      </trkpt>
      <trkpt lat="50.77655" lon="2.70437">
        <ele>43.4</ele>
        <time>2021-08-07T10:03:13Z</time>
      </trkpt>
      <trkpt lat="50.77672" lon="2.70522">
        <ele>41.95</ele>
        <time>2021-08-07T10:03:24Z</time>
      </trkpt>
      <trkpt lat="50.77677" lon="2.70536">
        <ele>40.99</ele>
        <time>2021-08-07T10:03:26Z</time>
      </trkpt>
      <trkpt lat="50.77681" lon="2.7054">
        <ele>40.51</ele>
        <time>2021-08-07T10:03:27Z</time>
      </trkpt>
      <trkpt lat="50.77686" lon="2.70542">
        <ele>40.51</ele>
        <time>2021-08-07T10:03:28Z</time>
      </trkpt>
      <trkpt lat="50.77696" lon="2.70545">
        <ele>40.99</ele>
        <time>2021-08-07T10:03:30Z</time>
      </trkpt>
      <trkpt lat="50.777" lon="2.70551">
        <ele>40.99</ele>
        <time>2021-08-07T10:03:31Z</time>
      </trkpt>
      <trkpt lat="50.77702" lon="2.70558">
        <ele>40.03</ele>
        <time>2021-08-07T10:03:32Z</time>
      </trkpt>
      <trkpt lat="50.77704" lon="2.70566">
        <ele>40.03</ele>
        <time>2021-08-07T10:03:33Z</time>
      </trkpt>
      <trkpt lat="50.77706" lon="2.70573">
        <ele>40.03</ele>
        <time>2021-08-07T10:03:34Z</time>
      </trkpt>
      <trkpt lat="50.77708" lon="2.7058">
        <ele>39.55</ele>
        <time>2021-08-07T10:03:35Z</time>
      </trkpt>
      <trkpt lat="50.7771" lon="2.70594">
        <ele>39.55</ele>
        <time>2021-08-07T10:03:37Z</time>
      </trkpt>
      <trkpt lat="50.77711" lon="2.70602">
        <ele>39.55</ele>
        <time>2021-08-07T10:03:38Z</time>
      </trkpt>
      <trkpt lat="50.77715" lon="2.70624">
        <ele>39.07</ele>
        <time>2021-08-07T10:03:41Z</time>
      </trkpt>
      <trkpt lat="50.77724" lon="2.70652">
        <ele>39.07</ele>
        <time>2021-08-07T10:03:45Z</time>
      </trkpt>
      <trkpt lat="50.77728" lon="2.70672">
        <ele>39.07</ele>
        <time>2021-08-07T10:03:48Z</time>
      </trkpt>
      <trkpt lat="50.77733" lon="2.70725">
        <ele>40.51</ele>
        <time>2021-08-07T10:03:57Z</time>
      </trkpt>
      <trkpt lat="50.77734" lon="2.70752">
        <ele>40.51</ele>
        <time>2021-08-07T10:04:03Z</time>
      </trkpt>
      <trkpt lat="50.77734" lon="2.70755">
        <ele>40.51</ele>
        <time>2021-08-07T10:04:04Z</time>
      </trkpt>
      <trkpt lat="50.77734" lon="2.70771">
        <ele>40.99</ele>
        <time>2021-08-07T10:04:10Z</time>
      </trkpt>
      <trkpt lat="50.77734" lon="2.70772">
        <ele>40.99</ele>
        <time>2021-08-07T10:04:11Z</time>
      </trkpt>
      <trkpt lat="50.77736" lon="2.70795">
        <ele>41.95</ele>
        <time>2021-08-07T10:04:22Z</time>
      </trkpt>
      <trkpt lat="50.77736" lon="2.70797">
        <ele>41.95</ele>
        <time>2021-08-07T10:04:23Z</time>
      </trkpt>
      <trkpt lat="50.77736" lon="2.70799">
        <ele>41.95</ele>
        <time>2021-08-07T10:04:24Z</time>
      </trkpt>
      <trkpt lat="50.77736" lon="2.70801">
        <ele>41.95</ele>
        <time>2021-08-07T10:04:25Z</time>
      </trkpt>
      <trkpt lat="50.77737" lon="2.70804">
        <ele>41.95</ele>
        <time>2021-08-07T10:04:26Z</time>
      </trkpt>
      <trkpt lat="50.77737" lon="2.70806">
        <ele>42.44</ele>
        <time>2021-08-07T10:04:27Z</time>
      </trkpt>
      <trkpt lat="50.77737" lon="2.70808">
        <ele>42.44</ele>
        <time>2021-08-07T10:04:28Z</time>
      </trkpt>
      <trkpt lat="50.7774" lon="2.70823">
        <ele>43.4</ele>
        <time>2021-08-07T10:04:35Z</time>
      </trkpt>
      <trkpt lat="50.77742" lon="2.70836">
        <ele>45.8</ele>
        <time>2021-08-07T10:04:42Z</time>
      </trkpt>
      <trkpt lat="50.77743" lon="2.70838">
        <ele>45.8</ele>
        <time>2021-08-07T10:04:43Z</time>
      </trkpt>
      <trkpt lat="50.77748" lon="2.7086">
        <ele>47.72</ele>
        <time>2021-08-07T10:04:54Z</time>
      </trkpt>
      <trkpt lat="50.77754" lon="2.70879">
        <ele>50.13</ele>
        <time>2021-08-07T10:05:04Z</time>
      </trkpt>
      <trkpt lat="50.77756" lon="2.70898">
        <ele>50.61</ele>
        <time>2021-08-07T10:05:13Z</time>
      </trkpt>
      <trkpt lat="50.77756" lon="2.709">
        <ele>50.61</ele>
        <time>2021-08-07T10:05:14Z</time>
      </trkpt>
      <trkpt lat="50.7776" lon="2.7092">
        <ele>51.57</ele>
        <time>2021-08-07T10:05:23Z</time>
      </trkpt>
      <trkpt lat="50.77761" lon="2.70935">
        <ele>52.05</ele>
        <time>2021-08-07T10:05:29Z</time>
      </trkpt>
      <trkpt lat="50.77762" lon="2.70937">
        <ele>52.05</ele>
        <time>2021-08-07T10:05:30Z</time>
      </trkpt>
      <trkpt lat="50.77764" lon="2.70957">
        <ele>52.53</ele>
        <time>2021-08-07T10:05:39Z</time>
      </trkpt>
      <trkpt lat="50.77766" lon="2.70975">
        <ele>53.97</ele>
        <time>2021-08-07T10:05:47Z</time>
      </trkpt>
      <trkpt lat="50.77766" lon="2.70978">
        <ele>53.97</ele>
        <time>2021-08-07T10:05:48Z</time>
      </trkpt>
      <trkpt lat="50.77767" lon="2.7098">
        <ele>53.97</ele>
        <time>2021-08-07T10:05:49Z</time>
      </trkpt>
      <trkpt lat="50.77767" lon="2.70982">
        <ele>54.45</ele>
        <time>2021-08-07T10:05:50Z</time>
      </trkpt>
      <trkpt lat="50.77767" lon="2.70984">
        <ele>54.45</ele>
        <time>2021-08-07T10:05:51Z</time>
      </trkpt>
      <trkpt lat="50.77768" lon="2.70986">
        <ele>54.45</ele>
        <time>2021-08-07T10:05:52Z</time>
      </trkpt>
      <trkpt lat="50.77768" lon="2.70989">
        <ele>54.45</ele>
        <time>2021-08-07T10:05:53Z</time>
      </trkpt>
      <trkpt lat="50.77768" lon="2.7099">
        <ele>54.93</ele>
        <time>2021-08-07T10:05:54Z</time>
      </trkpt>
      <trkpt lat="50.77769" lon="2.70993">
        <ele>54.93</ele>
        <time>2021-08-07T10:05:55Z</time>
      </trkpt>
      <trkpt lat="50.77769" lon="2.70995">
        <ele>55.41</ele>
        <time>2021-08-07T10:05:56Z</time>
      </trkpt>
      <trkpt lat="50.7777" lon="2.70997">
        <ele>55.89</ele>
        <time>2021-08-07T10:05:57Z</time>
      </trkpt>
      <trkpt lat="50.7777" lon="2.70999">
        <ele>55.41</ele>
        <time>2021-08-07T10:05:58Z</time>
      </trkpt>
      <trkpt lat="50.77771" lon="2.71001">
        <ele>55.41</ele>
        <time>2021-08-07T10:05:59Z</time>
      </trkpt>
      <trkpt lat="50.77771" lon="2.71003">
        <ele>55.41</ele>
        <time>2021-08-07T10:06:00Z</time>
      </trkpt>
      <trkpt lat="50.77771" lon="2.71005">
        <ele>56.37</ele>
        <time>2021-08-07T10:06:01Z</time>
      </trkpt>
      <trkpt lat="50.77771" lon="2.71007">
        <ele>56.37</ele>
        <time>2021-08-07T10:06:02Z</time>
      </trkpt>
      <trkpt lat="50.77773" lon="2.71022">
        <ele>57.34</ele>
        <time>2021-08-07T10:06:09Z</time>
      </trkpt>
      <trkpt lat="50.77774" lon="2.71024">
        <ele>57.34</ele>
        <time>2021-08-07T10:06:10Z</time>
      </trkpt>
      <trkpt lat="50.77774" lon="2.71026">
        <ele>57.34</ele>
        <time>2021-08-07T10:06:11Z</time>
      </trkpt>
      <trkpt lat="50.77774" lon="2.71028">
        <ele>57.34</ele>
        <time>2021-08-07T10:06:12Z</time>
      </trkpt>
      <trkpt lat="50.77775" lon="2.7103">
        <ele>57.82</ele>
        <time>2021-08-07T10:06:13Z</time>
      </trkpt>
      <trkpt lat="50.77775" lon="2.71032">
        <ele>58.3</ele>
        <time>2021-08-07T10:06:14Z</time>
      </trkpt>
      <trkpt lat="50.77776" lon="2.71034">
        <ele>58.78</ele>
        <time>2021-08-07T10:06:15Z</time>
      </trkpt>
      <trkpt lat="50.77776" lon="2.71036">
        <ele>58.78</ele>
        <time>2021-08-07T10:06:16Z</time>
      </trkpt>
      <trkpt lat="50.77777" lon="2.71039">
        <ele>59.26</ele>
        <time>2021-08-07T10:06:18Z</time>
      </trkpt>
      <trkpt lat="50.77777" lon="2.71041">
        <ele>59.26</ele>
        <time>2021-08-07T10:06:19Z</time>
      </trkpt>
      <trkpt lat="50.77778" lon="2.71043">
        <ele>59.26</ele>
        <time>2021-08-07T10:06:20Z</time>
      </trkpt>
      <trkpt lat="50.77778" lon="2.71045">
        <ele>59.26</ele>
        <time>2021-08-07T10:06:21Z</time>
      </trkpt>
      <trkpt lat="50.77778" lon="2.71047">
        <ele>59.26</ele>
        <time>2021-08-07T10:06:22Z</time>
      </trkpt>
      <trkpt lat="50.77778" lon="2.71049">
        <ele>60.22</ele>
        <time>2021-08-07T10:06:23Z</time>
      </trkpt>
      <trkpt lat="50.77778" lon="2.71052">
        <ele>60.7</ele>
        <time>2021-08-07T10:06:24Z</time>
      </trkpt>
      <trkpt lat="50.77781" lon="2.71071">
        <ele>62.14</ele>
        <time>2021-08-07T10:06:33Z</time>
      </trkpt>
      <trkpt lat="50.77782" lon="2.71081">
        <ele>62.62</ele>
        <time>2021-08-07T10:06:38Z</time>
      </trkpt>
      <trkpt lat="50.77782" lon="2.71083">
        <ele>62.62</ele>
        <time>2021-08-07T10:06:39Z</time>
      </trkpt>
      <trkpt lat="50.77783" lon="2.7109">
        <ele>63.1</ele>
        <time>2021-08-07T10:06:42Z</time>
      </trkpt>
      <trkpt lat="50.77784" lon="2.71092">
        <ele>63.1</ele>
        <time>2021-08-07T10:06:43Z</time>
      </trkpt>
      <trkpt lat="50.77784" lon="2.71094">
        <ele>63.58</ele>
        <time>2021-08-07T10:06:44Z</time>
      </trkpt>
      <trkpt lat="50.77784" lon="2.71096">
        <ele>63.58</ele>
        <time>2021-08-07T10:06:45Z</time>
      </trkpt>
      <trkpt lat="50.77784" lon="2.71098">
        <ele>63.58</ele>
        <time>2021-08-07T10:06:46Z</time>
      </trkpt>
      <trkpt lat="50.77785" lon="2.71101">
        <ele>64.07</ele>
        <time>2021-08-07T10:06:47Z</time>
      </trkpt>
      <trkpt lat="50.77785" lon="2.71103">
        <ele>64.55</ele>
        <time>2021-08-07T10:06:48Z</time>
      </trkpt>
      <trkpt lat="50.77785" lon="2.71105">
        <ele>65.03</ele>
        <time>2021-08-07T10:06:49Z</time>
      </trkpt>
      <trkpt lat="50.77785" lon="2.71107">
        <ele>65.03</ele>
        <time>2021-08-07T10:06:50Z</time>
      </trkpt>
      <trkpt lat="50.77786" lon="2.7111">
        <ele>65.03</ele>
        <time>2021-08-07T10:06:51Z</time>
      </trkpt>
      <trkpt lat="50.77786" lon="2.71112">
        <ele>65.51</ele>
        <time>2021-08-07T10:06:52Z</time>
      </trkpt>
      <trkpt lat="50.77786" lon="2.71114">
        <ele>65.51</ele>
        <time>2021-08-07T10:06:53Z</time>
      </trkpt>
      <trkpt lat="50.77786" lon="2.71116">
        <ele>66.47</ele>
        <time>2021-08-07T10:06:54Z</time>
      </trkpt>
      <trkpt lat="50.77786" lon="2.71118">
        <ele>66.47</ele>
        <time>2021-08-07T10:06:55Z</time>
      </trkpt>
      <trkpt lat="50.77787" lon="2.71121">
        <ele>66.47</ele>
        <time>2021-08-07T10:06:56Z</time>
      </trkpt>
      <trkpt lat="50.77787" lon="2.71123">
        <ele>66.47</ele>
        <time>2021-08-07T10:06:57Z</time>
      </trkpt>
      <trkpt lat="50.77787" lon="2.71125">
        <ele>66.47</ele>
        <time>2021-08-07T10:06:58Z</time>
      </trkpt>
      <trkpt lat="50.7779" lon="2.71142">
        <ele>68.39</ele>
        <time>2021-08-07T10:07:06Z</time>
      </trkpt>
      <trkpt lat="50.77794" lon="2.71165">
        <ele>70.31</ele>
        <time>2021-08-07T10:07:16Z</time>
      </trkpt>
      <trkpt lat="50.77799" lon="2.71185">
        <ele>70.79</ele>
        <time>2021-08-07T10:07:25Z</time>
      </trkpt>
      <trkpt lat="50.77806" lon="2.71209">
        <ele>72.24</ele>
        <time>2021-08-07T10:07:34Z</time>
      </trkpt>
      <trkpt lat="50.77815" lon="2.71235">
        <ele>72.72</ele>
        <time>2021-08-07T10:07:43Z</time>
      </trkpt>
      <trkpt lat="50.77826" lon="2.71265">
        <ele>74.64</ele>
        <time>2021-08-07T10:07:54Z</time>
      </trkpt>
      <trkpt lat="50.77832" lon="2.71284">
        <ele>75.6</ele>
        <time>2021-08-07T10:08:00Z</time>
      </trkpt>
      <trkpt lat="50.7784" lon="2.71306">
        <ele>76.56</ele>
        <time>2021-08-07T10:08:07Z</time>
      </trkpt>
      <trkpt lat="50.77846" lon="2.71335">
        <ele>76.56</ele>
        <time>2021-08-07T10:08:16Z</time>
      </trkpt>
      <trkpt lat="50.77853" lon="2.71355">
        <ele>76.08</ele>
        <time>2021-08-07T10:08:23Z</time>
      </trkpt>
      <trkpt lat="50.77856" lon="2.7136">
        <ele>76.08</ele>
        <time>2021-08-07T10:08:25Z</time>
      </trkpt>
      <trkpt lat="50.77867" lon="2.7139">
        <ele>76.08</ele>
        <time>2021-08-07T10:08:33Z</time>
      </trkpt>
      <trkpt lat="50.77881" lon="2.71428">
        <ele>76.56</ele>
        <time>2021-08-07T10:08:42Z</time>
      </trkpt>
      <trkpt lat="50.77895" lon="2.71467">
        <ele>77.04</ele>
        <time>2021-08-07T10:08:51Z</time>
      </trkpt>
      <trkpt lat="50.77909" lon="2.71502">
        <ele>77.52</ele>
        <time>2021-08-07T10:08:59Z</time>
      </trkpt>
      <trkpt lat="50.7792" lon="2.71554">
        <ele>77.52</ele>
        <time>2021-08-07T10:09:09Z</time>
      </trkpt>
      <trkpt lat="50.77929" lon="2.71604">
        <ele>78</ele>
        <time>2021-08-07T10:09:20Z</time>
      </trkpt>
      <trkpt lat="50.77933" lon="2.71634">
        <ele>78.48</ele>
        <time>2021-08-07T10:09:27Z</time>
      </trkpt>
      <trkpt lat="50.77935" lon="2.71661">
        <ele>78.48</ele>
        <time>2021-08-07T10:09:33Z</time>
      </trkpt>
      <trkpt lat="50.77944" lon="2.71704">
        <ele>79.45</ele>
        <time>2021-08-07T10:09:43Z</time>
      </trkpt>
      <trkpt lat="50.77953" lon="2.71744">
        <ele>79.93</ele>
        <time>2021-08-07T10:09:53Z</time>
      </trkpt>
      <trkpt lat="50.7796" lon="2.71772">
        <ele>81.37</ele>
        <time>2021-08-07T10:10:03Z</time>
      </trkpt>
      <trkpt lat="50.77965" lon="2.71796">
        <ele>83.29</ele>
        <time>2021-08-07T10:10:14Z</time>
      </trkpt>
      <trkpt lat="50.77969" lon="2.71816">
        <ele>84.73</ele>
        <time>2021-08-07T10:10:23Z</time>
      </trkpt>
      <trkpt lat="50.77973" lon="2.7184">
        <ele>86.66</ele>
        <time>2021-08-07T10:10:34Z</time>
      </trkpt>
      <trkpt lat="50.77976" lon="2.71861">
        <ele>88.1</ele>
        <time>2021-08-07T10:10:44Z</time>
      </trkpt>
      <trkpt lat="50.7798" lon="2.71885">
        <ele>90.02</ele>
        <time>2021-08-07T10:10:55Z</time>
      </trkpt>
      <trkpt lat="50.77983" lon="2.71905">
        <ele>90.98</ele>
        <time>2021-08-07T10:11:04Z</time>
      </trkpt>
      <trkpt lat="50.77984" lon="2.71919">
        <ele>90.98</ele>
        <time>2021-08-07T10:11:10Z</time>
      </trkpt>
      <trkpt lat="50.77984" lon="2.71943">
        <ele>89.54</ele>
        <time>2021-08-07T10:11:15Z</time>
      </trkpt>
      <trkpt lat="50.77986" lon="2.71966">
        <ele>89.54</ele>
        <time>2021-08-07T10:11:22Z</time>
      </trkpt>
      <trkpt lat="50.77996" lon="2.71993">
        <ele>91.94</ele>
        <time>2021-08-07T10:11:31Z</time>
      </trkpt>
      <trkpt lat="50.78002" lon="2.72019">
        <ele>94.83</ele>
        <time>2021-08-07T10:11:40Z</time>
      </trkpt>
      <trkpt lat="50.78004" lon="2.72045">
        <ele>95.79</ele>
        <time>2021-08-07T10:11:49Z</time>
      </trkpt>
      <trkpt lat="50.78005" lon="2.72065">
        <ele>97.23</ele>
        <time>2021-08-07T10:11:56Z</time>
      </trkpt>
      <trkpt lat="50.78003" lon="2.72083">
        <ele>98.67</ele>
        <time>2021-08-07T10:12:03Z</time>
      </trkpt>
      <trkpt lat="50.78" lon="2.72104">
        <ele>99.63</ele>
        <time>2021-08-07T10:12:11Z</time>
      </trkpt>
      <trkpt lat="50.77999" lon="2.72107">
        <ele>99.63</ele>
        <time>2021-08-07T10:12:12Z</time>
      </trkpt>
      <trkpt lat="50.77999" lon="2.7211">
        <ele>100.11</ele>
        <time>2021-08-07T10:12:13Z</time>
      </trkpt>
      <trkpt lat="50.77998" lon="2.72112">
        <ele>100.11</ele>
        <time>2021-08-07T10:12:14Z</time>
      </trkpt>
      <trkpt lat="50.77998" lon="2.72115">
        <ele>100.6</ele>
        <time>2021-08-07T10:12:15Z</time>
      </trkpt>
      <trkpt lat="50.77998" lon="2.72117">
        <ele>100.6</ele>
        <time>2021-08-07T10:12:16Z</time>
      </trkpt>
      <trkpt lat="50.77998" lon="2.7212">
        <ele>101.08</ele>
        <time>2021-08-07T10:12:17Z</time>
      </trkpt>
      <trkpt lat="50.77998" lon="2.72137">
        <ele>102.52</ele>
        <time>2021-08-07T10:12:23Z</time>
      </trkpt>
      <trkpt lat="50.77998" lon="2.72141">
        <ele>102.52</ele>
        <time>2021-08-07T10:12:24Z</time>
      </trkpt>
      <trkpt lat="50.77998" lon="2.72144">
        <ele>103</ele>
        <time>2021-08-07T10:12:25Z</time>
      </trkpt>
      <trkpt lat="50.77999" lon="2.72148">
        <ele>103</ele>
        <time>2021-08-07T10:12:26Z</time>
      </trkpt>
      <trkpt lat="50.77999" lon="2.72151">
        <ele>103</ele>
        <time>2021-08-07T10:12:27Z</time>
      </trkpt>
      <trkpt lat="50.77999" lon="2.72155">
        <ele>103</ele>
        <time>2021-08-07T10:12:28Z</time>
      </trkpt>
      <trkpt lat="50.78" lon="2.72159">
        <ele>103</ele>
        <time>2021-08-07T10:12:29Z</time>
      </trkpt>
      <trkpt lat="50.78001" lon="2.72162">
        <ele>103.96</ele>
        <time>2021-08-07T10:12:30Z</time>
      </trkpt>
      <trkpt lat="50.78001" lon="2.72165">
        <ele>104.44</ele>
        <time>2021-08-07T10:12:31Z</time>
      </trkpt>
      <trkpt lat="50.78002" lon="2.72169">
        <ele>104.44</ele>
        <time>2021-08-07T10:12:32Z</time>
      </trkpt>
      <trkpt lat="50.78002" lon="2.72172">
        <ele>104.92</ele>
        <time>2021-08-07T10:12:33Z</time>
      </trkpt>
      <trkpt lat="50.78009" lon="2.72204">
        <ele>107.32</ele>
        <time>2021-08-07T10:12:43Z</time>
      </trkpt>
      <trkpt lat="50.7802" lon="2.72242">
        <ele>109.73</ele>
        <time>2021-08-07T10:12:55Z</time>
      </trkpt>
      <trkpt lat="50.78025" lon="2.72256">
        <ele>110.69</ele>
        <time>2021-08-07T10:13:00Z</time>
      </trkpt>
      <trkpt lat="50.78026" lon="2.72262">
        <ele>110.69</ele>
        <time>2021-08-07T10:13:02Z</time>
      </trkpt>
      <trkpt lat="50.78027" lon="2.72264">
        <ele>111.17</ele>
        <time>2021-08-07T10:13:03Z</time>
      </trkpt>
      <trkpt lat="50.78026" lon="2.72266">
        <ele>111.17</ele>
        <time>2021-08-07T10:13:04Z</time>
      </trkpt>
      <trkpt lat="50.78025" lon="2.72267">
        <ele>111.17</ele>
        <time>2021-08-07T10:13:05Z</time>
      </trkpt>
      <trkpt lat="50.78024" lon="2.72267">
        <ele>111.17</ele>
        <time>2021-08-07T10:13:06Z</time>
      </trkpt>
      <trkpt lat="50.78022" lon="2.72266">
        <ele>111.17</ele>
        <time>2021-08-07T10:13:07Z</time>
      </trkpt>
      <trkpt lat="50.78011" lon="2.72264">
        <ele>109.25</ele>
        <time>2021-08-07T10:13:11Z</time>
      </trkpt>
      <trkpt lat="50.77989" lon="2.72268">
        <ele>105.88</ele>
        <time>2021-08-07T10:13:16Z</time>
      </trkpt>
      <trkpt lat="50.7798" lon="2.7228">
        <ele>103.48</ele>
        <time>2021-08-07T10:13:21Z</time>
      </trkpt>
      <trkpt lat="50.77975" lon="2.72283">
        <ele>101.56</ele>
        <time>2021-08-07T10:13:25Z</time>
      </trkpt>
      <trkpt lat="50.77963" lon="2.7228">
        <ele>99.15</ele>
        <time>2021-08-07T10:13:31Z</time>
      </trkpt>
      <trkpt lat="50.77928" lon="2.72281">
        <ele>96.27</ele>
        <time>2021-08-07T10:13:38Z</time>
      </trkpt>
      <trkpt lat="50.77911" lon="2.72281">
        <ele>94.35</ele>
        <time>2021-08-07T10:13:41Z</time>
      </trkpt>
      <trkpt lat="50.77882" lon="2.7228">
        <ele>91.46</ele>
        <time>2021-08-07T10:13:45Z</time>
      </trkpt>
      <trkpt lat="50.77844" lon="2.7228">
        <ele>89.54</ele>
        <time>2021-08-07T10:13:51Z</time>
      </trkpt>
      <trkpt lat="50.7784" lon="2.72279">
        <ele>89.54</ele>
        <time>2021-08-07T10:13:52Z</time>
      </trkpt>
      <trkpt lat="50.77837" lon="2.72278">
        <ele>89.54</ele>
        <time>2021-08-07T10:13:53Z</time>
      </trkpt>
      <trkpt lat="50.77821" lon="2.72271">
        <ele>86.18</ele>
        <time>2021-08-07T10:13:57Z</time>
      </trkpt>
      <trkpt lat="50.77817" lon="2.72267">
        <ele>85.69</ele>
        <time>2021-08-07T10:13:58Z</time>
      </trkpt>
      <trkpt lat="50.77808" lon="2.72258">
        <ele>83.77</ele>
        <time>2021-08-07T10:14:00Z</time>
      </trkpt>
      <trkpt lat="50.77787" lon="2.72242">
        <ele>80.89</ele>
        <time>2021-08-07T10:14:03Z</time>
      </trkpt>
      <trkpt lat="50.77765" lon="2.72224">
        <ele>76.56</ele>
        <time>2021-08-07T10:14:06Z</time>
      </trkpt>
      <trkpt lat="50.77751" lon="2.72211">
        <ele>75.6</ele>
        <time>2021-08-07T10:14:08Z</time>
      </trkpt>
      <trkpt lat="50.77746" lon="2.72203">
        <ele>74.64</ele>
        <time>2021-08-07T10:14:09Z</time>
      </trkpt>
      <trkpt lat="50.77731" lon="2.72185">
        <ele>71.76</ele>
        <time>2021-08-07T10:14:11Z</time>
      </trkpt>
      <trkpt lat="50.77722" lon="2.72178">
        <ele>70.31</ele>
        <time>2021-08-07T10:14:12Z</time>
      </trkpt>
      <trkpt lat="50.77711" lon="2.72173">
        <ele>70.31</ele>
        <time>2021-08-07T10:14:13Z</time>
      </trkpt>
      <trkpt lat="50.7769" lon="2.72161">
        <ele>67.43</ele>
        <time>2021-08-07T10:14:15Z</time>
      </trkpt>
      <trkpt lat="50.77671" lon="2.72152">
        <ele>64.07</ele>
        <time>2021-08-07T10:14:17Z</time>
      </trkpt>
      <trkpt lat="50.77652" lon="2.72147">
        <ele>62.14</ele>
        <time>2021-08-07T10:14:19Z</time>
      </trkpt>
      <trkpt lat="50.77642" lon="2.72146">
        <ele>61.66</ele>
        <time>2021-08-07T10:14:20Z</time>
      </trkpt>
      <trkpt lat="50.77614" lon="2.72144">
        <ele>57.82</ele>
        <time>2021-08-07T10:14:23Z</time>
      </trkpt>
      <trkpt lat="50.77604" lon="2.72144">
        <ele>57.82</ele>
        <time>2021-08-07T10:14:24Z</time>
      </trkpt>
      <trkpt lat="50.77585" lon="2.72143">
        <ele>56.37</ele>
        <time>2021-08-07T10:14:26Z</time>
      </trkpt>
      <trkpt lat="50.77556" lon="2.72143">
        <ele>52.53</ele>
        <time>2021-08-07T10:14:29Z</time>
      </trkpt>
      <trkpt lat="50.77533" lon="2.72144">
        <ele>51.09</ele>
        <time>2021-08-07T10:14:32Z</time>
      </trkpt>
      <trkpt lat="50.77503" lon="2.72146">
        <ele>49.65</ele>
        <time>2021-08-07T10:14:37Z</time>
      </trkpt>
      <trkpt lat="50.77483" lon="2.72151">
        <ele>47.72</ele>
        <time>2021-08-07T10:14:40Z</time>
      </trkpt>
      <trkpt lat="50.77455" lon="2.72158">
        <ele>47.24</ele>
        <time>2021-08-07T10:14:44Z</time>
      </trkpt>
      <trkpt lat="50.77448" lon="2.72156">
        <ele>46.76</ele>
        <time>2021-08-07T10:14:45Z</time>
      </trkpt>
      <trkpt lat="50.77444" lon="2.72152">
        <ele>46.76</ele>
        <time>2021-08-07T10:14:46Z</time>
      </trkpt>
      <trkpt lat="50.7744" lon="2.72145">
        <ele>46.76</ele>
        <time>2021-08-07T10:14:47Z</time>
      </trkpt>
      <trkpt lat="50.77438" lon="2.72137">
        <ele>46.76</ele>
        <time>2021-08-07T10:14:48Z</time>
      </trkpt>
      <trkpt lat="50.77437" lon="2.72128">
        <ele>46.76</ele>
        <time>2021-08-07T10:14:49Z</time>
      </trkpt>
      <trkpt lat="50.77437" lon="2.7212">
        <ele>46.28</ele>
        <time>2021-08-07T10:14:50Z</time>
      </trkpt>
      <trkpt lat="50.77437" lon="2.72111">
        <ele>46.28</ele>
        <time>2021-08-07T10:14:51Z</time>
      </trkpt>
      <trkpt lat="50.77437" lon="2.72103">
        <ele>46.28</ele>
        <time>2021-08-07T10:14:52Z</time>
      </trkpt>
      <trkpt lat="50.77435" lon="2.72044">
        <ele>45.32</ele>
        <time>2021-08-07T10:15:00Z</time>
      </trkpt>
      <trkpt lat="50.77432" lon="2.72041">
        <ele>45.32</ele>
        <time>2021-08-07T10:15:01Z</time>
      </trkpt>
      <trkpt lat="50.77429" lon="2.7204">
        <ele>45.32</ele>
        <time>2021-08-07T10:15:02Z</time>
      </trkpt>
      <trkpt lat="50.77425" lon="2.7204">
        <ele>45.32</ele>
        <time>2021-08-07T10:15:03Z</time>
      </trkpt>
      <trkpt lat="50.77421" lon="2.72041">
        <ele>45.32</ele>
        <time>2021-08-07T10:15:04Z</time>
      </trkpt>
      <trkpt lat="50.77416" lon="2.72043">
        <ele>44.36</ele>
        <time>2021-08-07T10:15:05Z</time>
      </trkpt>
      <trkpt lat="50.77366" lon="2.72061">
        <ele>42.92</ele>
        <time>2021-08-07T10:15:14Z</time>
      </trkpt>
      <trkpt lat="50.77323" lon="2.72076">
        <ele>41.47</ele>
        <time>2021-08-07T10:15:22Z</time>
      </trkpt>
      <trkpt lat="50.77318" lon="2.72077">
        <ele>41.95</ele>
        <time>2021-08-07T10:15:23Z</time>
      </trkpt>
      <trkpt lat="50.77312" lon="2.72077">
        <ele>41.95</ele>
        <time>2021-08-07T10:15:24Z</time>
      </trkpt>
      <trkpt lat="50.77309" lon="2.72079">
        <ele>41.47</ele>
        <time>2021-08-07T10:15:25Z</time>
      </trkpt>
      <trkpt lat="50.77306" lon="2.72084">
        <ele>41.95</ele>
        <time>2021-08-07T10:15:26Z</time>
      </trkpt>
      <trkpt lat="50.77305" lon="2.7209">
        <ele>43.4</ele>
        <time>2021-08-07T10:15:27Z</time>
      </trkpt>
      <trkpt lat="50.77304" lon="2.72095">
        <ele>43.4</ele>
        <time>2021-08-07T10:15:28Z</time>
      </trkpt>
      <trkpt lat="50.77304" lon="2.721">
        <ele>43.4</ele>
        <time>2021-08-07T10:15:29Z</time>
      </trkpt>
      <trkpt lat="50.77305" lon="2.72107">
        <ele>43.4</ele>
        <time>2021-08-07T10:15:30Z</time>
      </trkpt>
      <trkpt lat="50.77304" lon="2.72126">
        <ele>43.4</ele>
        <time>2021-08-07T10:15:33Z</time>
      </trkpt>
      <trkpt lat="50.77303" lon="2.72189">
        <ele>43.4</ele>
        <time>2021-08-07T10:15:42Z</time>
      </trkpt>
      <trkpt lat="50.77301" lon="2.72211">
        <ele>43.4</ele>
        <time>2021-08-07T10:15:45Z</time>
      </trkpt>
      <trkpt lat="50.77301" lon="2.72218">
        <ele>43.4</ele>
        <time>2021-08-07T10:15:46Z</time>
      </trkpt>
      <trkpt lat="50.77303" lon="2.72225">
        <ele>43.4</ele>
        <time>2021-08-07T10:15:47Z</time>
      </trkpt>
      <trkpt lat="50.77306" lon="2.7223">
        <ele>43.4</ele>
        <time>2021-08-07T10:15:48Z</time>
      </trkpt>
      <trkpt lat="50.77309" lon="2.72234">
        <ele>43.4</ele>
        <time>2021-08-07T10:15:49Z</time>
      </trkpt>
      <trkpt lat="50.77312" lon="2.72238">
        <ele>43.4</ele>
        <time>2021-08-07T10:15:50Z</time>
      </trkpt>
      <trkpt lat="50.77315" lon="2.72243">
        <ele>43.4</ele>
        <time>2021-08-07T10:15:51Z</time>
      </trkpt>
      <trkpt lat="50.77338" lon="2.7229">
        <ele>43.88</ele>
        <time>2021-08-07T10:16:00Z</time>
      </trkpt>
      <trkpt lat="50.77348" lon="2.72347">
        <ele>44.84</ele>
        <time>2021-08-07T10:16:09Z</time>
      </trkpt>
      <trkpt lat="50.77349" lon="2.72384">
        <ele>46.28</ele>
        <time>2021-08-07T10:16:16Z</time>
      </trkpt>
      <trkpt lat="50.77351" lon="2.72432">
        <ele>46.76</ele>
        <time>2021-08-07T10:16:25Z</time>
      </trkpt>
      <trkpt lat="50.77357" lon="2.72477">
        <ele>47.72</ele>
        <time>2021-08-07T10:16:34Z</time>
      </trkpt>
      <trkpt lat="50.77361" lon="2.72529">
        <ele>49.16</ele>
        <time>2021-08-07T10:16:44Z</time>
      </trkpt>
      <trkpt lat="50.77363" lon="2.72566">
        <ele>50.61</ele>
        <time>2021-08-07T10:16:53Z</time>
      </trkpt>
      <trkpt lat="50.77374" lon="2.72597">
        <ele>51.57</ele>
        <time>2021-08-07T10:17:02Z</time>
      </trkpt>
      <trkpt lat="50.77386" lon="2.72622">
        <ele>52.53</ele>
        <time>2021-08-07T10:17:10Z</time>
      </trkpt>
      <trkpt lat="50.77396" lon="2.72646">
        <ele>53.01</ele>
        <time>2021-08-07T10:17:17Z</time>
      </trkpt>
      <trkpt lat="50.77396" lon="2.72652">
        <ele>53.49</ele>
        <time>2021-08-07T10:17:19Z</time>
      </trkpt>
      <trkpt lat="50.77396" lon="2.72655">
        <ele>53.49</ele>
        <time>2021-08-07T10:17:20Z</time>
      </trkpt>
      <trkpt lat="50.77394" lon="2.72657">
        <ele>53.97</ele>
        <time>2021-08-07T10:17:21Z</time>
      </trkpt>
      <trkpt lat="50.77393" lon="2.72658">
        <ele>53.97</ele>
        <time>2021-08-07T10:17:22Z</time>
      </trkpt>
      <trkpt lat="50.77392" lon="2.7266">
        <ele>54.45</ele>
        <time>2021-08-07T10:17:23Z</time>
      </trkpt>
      <trkpt lat="50.77391" lon="2.72661">
        <ele>54.45</ele>
        <time>2021-08-07T10:17:24Z</time>
      </trkpt>
      <trkpt lat="50.77391" lon="2.72662">
        <ele>54.45</ele>
        <time>2021-08-07T10:17:25Z</time>
      </trkpt>
      <trkpt lat="50.7739" lon="2.72664">
        <ele>55.41</ele>
        <time>2021-08-07T10:17:26Z</time>
      </trkpt>
      <trkpt lat="50.77387" lon="2.7267">
        <ele>56.37</ele>
        <time>2021-08-07T10:17:30Z</time>
      </trkpt>
      <trkpt lat="50.77386" lon="2.72671">
        <ele>56.37</ele>
        <time>2021-08-07T10:17:31Z</time>
      </trkpt>
      <trkpt lat="50.77385" lon="2.72673">
        <ele>56.37</ele>
        <time>2021-08-07T10:17:32Z</time>
      </trkpt>
      <trkpt lat="50.7738" lon="2.72691">
        <ele>57.82</ele>
        <time>2021-08-07T10:17:41Z</time>
      </trkpt>
      <trkpt lat="50.77379" lon="2.72693">
        <ele>58.3</ele>
        <time>2021-08-07T10:17:42Z</time>
      </trkpt>
      <trkpt lat="50.77379" lon="2.72696">
        <ele>58.3</ele>
        <time>2021-08-07T10:17:43Z</time>
      </trkpt>
      <trkpt lat="50.77378" lon="2.72698">
        <ele>58.78</ele>
        <time>2021-08-07T10:17:44Z</time>
      </trkpt>
      <trkpt lat="50.77378" lon="2.727">
        <ele>58.78</ele>
        <time>2021-08-07T10:17:45Z</time>
      </trkpt>
      <trkpt lat="50.77378" lon="2.72702">
        <ele>58.78</ele>
        <time>2021-08-07T10:17:46Z</time>
      </trkpt>
      <trkpt lat="50.77376" lon="2.72721">
        <ele>60.22</ele>
        <time>2021-08-07T10:17:55Z</time>
      </trkpt>
      <trkpt lat="50.77375" lon="2.72723">
        <ele>60.22</ele>
        <time>2021-08-07T10:17:56Z</time>
      </trkpt>
      <trkpt lat="50.77375" lon="2.72725">
        <ele>60.22</ele>
        <time>2021-08-07T10:17:57Z</time>
      </trkpt>
      <trkpt lat="50.77374" lon="2.72727">
        <ele>60.22</ele>
        <time>2021-08-07T10:17:58Z</time>
      </trkpt>
      <trkpt lat="50.77374" lon="2.72729">
        <ele>61.18</ele>
        <time>2021-08-07T10:17:59Z</time>
      </trkpt>
      <trkpt lat="50.77369" lon="2.72741">
        <ele>62.62</ele>
        <time>2021-08-07T10:18:07Z</time>
      </trkpt>
      <trkpt lat="50.77364" lon="2.72751">
        <ele>64.07</ele>
        <time>2021-08-07T10:18:15Z</time>
      </trkpt>
      <trkpt lat="50.77357" lon="2.72757">
        <ele>65.03</ele>
        <time>2021-08-07T10:18:22Z</time>
      </trkpt>
      <trkpt lat="50.77353" lon="2.72765">
        <ele>66.47</ele>
        <time>2021-08-07T10:18:30Z</time>
      </trkpt>
      <trkpt lat="50.77349" lon="2.72772">
        <ele>67.91</ele>
        <time>2021-08-07T10:18:37Z</time>
      </trkpt>
      <trkpt lat="50.77347" lon="2.72775">
        <ele>67.91</ele>
        <time>2021-08-07T10:18:39Z</time>
      </trkpt>
      <trkpt lat="50.77344" lon="2.72779">
        <ele>69.35</ele>
        <time>2021-08-07T10:18:42Z</time>
      </trkpt>
      <trkpt lat="50.77341" lon="2.72783">
        <ele>69.83</ele>
        <time>2021-08-07T10:18:45Z</time>
      </trkpt>
      <trkpt lat="50.7734" lon="2.72785">
        <ele>69.83</ele>
        <time>2021-08-07T10:18:46Z</time>
      </trkpt>
      <trkpt lat="50.77336" lon="2.72793">
        <ele>70.31</ele>
        <time>2021-08-07T10:18:51Z</time>
      </trkpt>
      <trkpt lat="50.77335" lon="2.72795">
        <ele>70.31</ele>
        <time>2021-08-07T10:18:52Z</time>
      </trkpt>
      <trkpt lat="50.77335" lon="2.72806">
        <ele>71.76</ele>
        <time>2021-08-07T10:18:59Z</time>
      </trkpt>
      <trkpt lat="50.77335" lon="2.72816">
        <ele>73.68</ele>
        <time>2021-08-07T10:19:05Z</time>
      </trkpt>
      <trkpt lat="50.77336" lon="2.72819">
        <ele>74.16</ele>
        <time>2021-08-07T10:19:06Z</time>
      </trkpt>
      <trkpt lat="50.77336" lon="2.72821">
        <ele>74.16</ele>
        <time>2021-08-07T10:19:07Z</time>
      </trkpt>
      <trkpt lat="50.77337" lon="2.72835">
        <ele>74.64</ele>
        <time>2021-08-07T10:19:14Z</time>
      </trkpt>
      <trkpt lat="50.77339" lon="2.72849">
        <ele>75.6</ele>
        <time>2021-08-07T10:19:22Z</time>
      </trkpt>
      <trkpt lat="50.7734" lon="2.72856">
        <ele>76.56</ele>
        <time>2021-08-07T10:19:29Z</time>
      </trkpt>
      <trkpt lat="50.7734" lon="2.72868">
        <ele>76.56</ele>
        <time>2021-08-07T10:19:43Z</time>
      </trkpt>
      <trkpt lat="50.7734" lon="2.72871">
        <ele>76.56</ele>
        <time>2021-08-07T10:19:45Z</time>
      </trkpt>
      <trkpt lat="50.7734" lon="2.72873">
        <ele>76.56</ele>
        <time>2021-08-07T10:19:46Z</time>
      </trkpt>
      <trkpt lat="50.7734" lon="2.72875">
        <ele>77.04</ele>
        <time>2021-08-07T10:19:47Z</time>
      </trkpt>
      <trkpt lat="50.77339" lon="2.72881">
        <ele>77.52</ele>
        <time>2021-08-07T10:19:50Z</time>
      </trkpt>
      <trkpt lat="50.77338" lon="2.72883">
        <ele>78</ele>
        <time>2021-08-07T10:19:51Z</time>
      </trkpt>
      <trkpt lat="50.77335" lon="2.72888">
        <ele>78.48</ele>
        <time>2021-08-07T10:19:54Z</time>
      </trkpt>
      <trkpt lat="50.77334" lon="2.7289">
        <ele>79.45</ele>
        <time>2021-08-07T10:19:55Z</time>
      </trkpt>
      <trkpt lat="50.77329" lon="2.72902">
        <ele>80.41</ele>
        <time>2021-08-07T10:20:02Z</time>
      </trkpt>
      <trkpt lat="50.77327" lon="2.72908">
        <ele>81.37</ele>
        <time>2021-08-07T10:20:06Z</time>
      </trkpt>
      <trkpt lat="50.77322" lon="2.72924">
        <ele>82.33</ele>
        <time>2021-08-07T10:20:14Z</time>
      </trkpt>
      <trkpt lat="50.77318" lon="2.72938">
        <ele>83.29</ele>
        <time>2021-08-07T10:20:21Z</time>
      </trkpt>
      <trkpt lat="50.77314" lon="2.72963">
        <ele>83.77</ele>
        <time>2021-08-07T10:20:29Z</time>
      </trkpt>
      <trkpt lat="50.7731" lon="2.72984">
        <ele>84.25</ele>
        <time>2021-08-07T10:20:35Z</time>
      </trkpt>
      <trkpt lat="50.77305" lon="2.73008">
        <ele>84.25</ele>
        <time>2021-08-07T10:20:43Z</time>
      </trkpt>
      <trkpt lat="50.77301" lon="2.73024">
        <ele>84.25</ele>
        <time>2021-08-07T10:20:49Z</time>
      </trkpt>
      <trkpt lat="50.77302" lon="2.73031">
        <ele>84.25</ele>
        <time>2021-08-07T10:20:55Z</time>
      </trkpt>
      <trkpt lat="50.77302" lon="2.73034">
        <ele>84.25</ele>
        <time>2021-08-07T10:20:56Z</time>
      </trkpt>
      <trkpt lat="50.77302" lon="2.73037">
        <ele>84.25</ele>
        <time>2021-08-07T10:20:57Z</time>
      </trkpt>
      <trkpt lat="50.77302" lon="2.73041">
        <ele>84.25</ele>
        <time>2021-08-07T10:20:58Z</time>
      </trkpt>
      <trkpt lat="50.773" lon="2.73056">
        <ele>84.25</ele>
        <time>2021-08-07T10:21:03Z</time>
      </trkpt>
      <trkpt lat="50.77301" lon="2.73088">
        <ele>84.25</ele>
        <time>2021-08-07T10:21:11Z</time>
      </trkpt>
      <trkpt lat="50.77309" lon="2.73126">
        <ele>85.69</ele>
        <time>2021-08-07T10:21:21Z</time>
      </trkpt>
      <trkpt lat="50.77315" lon="2.73158">
        <ele>87.14</ele>
        <time>2021-08-07T10:21:28Z</time>
      </trkpt>
      <trkpt lat="50.77317" lon="2.73186">
        <ele>88.1</ele>
        <time>2021-08-07T10:21:35Z</time>
      </trkpt>
      <trkpt lat="50.77322" lon="2.73225">
        <ele>89.06</ele>
        <time>2021-08-07T10:21:44Z</time>
      </trkpt>
      <trkpt lat="50.77324" lon="2.73265">
        <ele>90.02</ele>
        <time>2021-08-07T10:21:52Z</time>
      </trkpt>
      <trkpt lat="50.77325" lon="2.73299">
        <ele>90.5</ele>
        <time>2021-08-07T10:21:59Z</time>
      </trkpt>
      <trkpt lat="50.77327" lon="2.73343">
        <ele>90.5</ele>
        <time>2021-08-07T10:22:07Z</time>
      </trkpt>
      <trkpt lat="50.77323" lon="2.73376">
        <ele>91.46</ele>
        <time>2021-08-07T10:22:14Z</time>
      </trkpt>
      <trkpt lat="50.77308" lon="2.73391">
        <ele>91.46</ele>
        <time>2021-08-07T10:22:19Z</time>
      </trkpt>
      <trkpt lat="50.77304" lon="2.73414">
        <ele>91.46</ele>
        <time>2021-08-07T10:22:23Z</time>
      </trkpt>
      <trkpt lat="50.77292" lon="2.73464">
        <ele>91.46</ele>
        <time>2021-08-07T10:22:31Z</time>
      </trkpt>
      <trkpt lat="50.77268" lon="2.73526">
        <ele>91.46</ele>
        <time>2021-08-07T10:22:41Z</time>
      </trkpt>
      <trkpt lat="50.77243" lon="2.73594">
        <ele>91.94</ele>
        <time>2021-08-07T10:22:52Z</time>
      </trkpt>
      <trkpt lat="50.77234" lon="2.73633">
        <ele>92.42</ele>
        <time>2021-08-07T10:22:58Z</time>
      </trkpt>
      <trkpt lat="50.77233" lon="2.73646">
        <ele>93.87</ele>
        <time>2021-08-07T10:23:00Z</time>
      </trkpt>
      <trkpt lat="50.77228" lon="2.73668">
        <ele>92.42</ele>
        <time>2021-08-07T10:23:03Z</time>
      </trkpt>
      <trkpt lat="50.77224" lon="2.73691">
        <ele>92.42</ele>
        <time>2021-08-07T10:23:06Z</time>
      </trkpt>
      <trkpt lat="50.77213" lon="2.73754">
        <ele>93.87</ele>
        <time>2021-08-07T10:23:15Z</time>
      </trkpt>
      <trkpt lat="50.77193" lon="2.73823">
        <ele>93.87</ele>
        <time>2021-08-07T10:23:25Z</time>
      </trkpt>
      <trkpt lat="50.77191" lon="2.73839">
        <ele>93.87</ele>
        <time>2021-08-07T10:23:27Z</time>
      </trkpt>
      <trkpt lat="50.77191" lon="2.73847">
        <ele>93.87</ele>
        <time>2021-08-07T10:23:28Z</time>
      </trkpt>
      <trkpt lat="50.77193" lon="2.73893">
        <ele>93.87</ele>
        <time>2021-08-07T10:23:34Z</time>
      </trkpt>
      <trkpt lat="50.77193" lon="2.739">
        <ele>93.87</ele>
        <time>2021-08-07T10:23:35Z</time>
      </trkpt>
      <trkpt lat="50.77194" lon="2.73907">
        <ele>93.87</ele>
        <time>2021-08-07T10:23:36Z</time>
      </trkpt>
      <trkpt lat="50.77195" lon="2.73913">
        <ele>93.87</ele>
        <time>2021-08-07T10:23:37Z</time>
      </trkpt>
      <trkpt lat="50.77195" lon="2.7392">
        <ele>93.87</ele>
        <time>2021-08-07T10:23:38Z</time>
      </trkpt>
      <trkpt lat="50.77196" lon="2.73927">
        <ele>93.87</ele>
        <time>2021-08-07T10:23:39Z</time>
      </trkpt>
      <trkpt lat="50.77197" lon="2.73965">
        <ele>94.35</ele>
        <time>2021-08-07T10:23:46Z</time>
      </trkpt>
      <trkpt lat="50.77197" lon="2.73965">
        <ele>94.35</ele>
        <time>2021-08-07T10:23:50Z</time>
      </trkpt>
      <trkpt lat="50.77197" lon="2.73964">
        <ele>94.35</ele>
        <time>2021-08-07T10:24:10Z</time>
      </trkpt>
      <trkpt lat="50.77196" lon="2.73966">
        <ele>94.35</ele>
        <time>2021-08-07T10:24:18Z</time>
      </trkpt>
      <trkpt lat="50.77195" lon="2.73968">
        <ele>94.35</ele>
        <time>2021-08-07T10:24:19Z</time>
      </trkpt>
      <trkpt lat="50.77193" lon="2.7397">
        <ele>94.35</ele>
        <time>2021-08-07T10:24:20Z</time>
      </trkpt>
      <trkpt lat="50.77191" lon="2.73971">
        <ele>94.35</ele>
        <time>2021-08-07T10:24:21Z</time>
      </trkpt>
      <trkpt lat="50.77189" lon="2.73973">
        <ele>94.35</ele>
        <time>2021-08-07T10:24:22Z</time>
      </trkpt>
      <trkpt lat="50.77185" lon="2.73975">
        <ele>92.9</ele>
        <time>2021-08-07T10:24:23Z</time>
      </trkpt>
      <trkpt lat="50.77182" lon="2.73977">
        <ele>92.9</ele>
        <time>2021-08-07T10:24:24Z</time>
      </trkpt>
      <trkpt lat="50.77147" lon="2.73998">
        <ele>90.98</ele>
        <time>2021-08-07T10:24:32Z</time>
      </trkpt>
      <trkpt lat="50.77126" lon="2.74013">
        <ele>89.06</ele>
        <time>2021-08-07T10:24:36Z</time>
      </trkpt>
      <trkpt lat="50.77078" lon="2.74047">
        <ele>87.14</ele>
        <time>2021-08-07T10:24:44Z</time>
      </trkpt>
      <trkpt lat="50.77017" lon="2.74088">
        <ele>85.21</ele>
        <time>2021-08-07T10:24:53Z</time>
      </trkpt>
      <trkpt lat="50.76994" lon="2.74099">
        <ele>83.29</ele>
        <time>2021-08-07T10:24:56Z</time>
      </trkpt>
      <trkpt lat="50.76937" lon="2.74123">
        <ele>81.85</ele>
        <time>2021-08-07T10:25:04Z</time>
      </trkpt>
      <trkpt lat="50.76926" lon="2.74126">
        <ele>81.85</ele>
        <time>2021-08-07T10:25:06Z</time>
      </trkpt>
      <trkpt lat="50.76922" lon="2.74123">
        <ele>81.85</ele>
        <time>2021-08-07T10:25:07Z</time>
      </trkpt>
      <trkpt lat="50.76919" lon="2.74117">
        <ele>81.85</ele>
        <time>2021-08-07T10:25:08Z</time>
      </trkpt>
      <trkpt lat="50.76916" lon="2.74112">
        <ele>81.85</ele>
        <time>2021-08-07T10:25:09Z</time>
      </trkpt>
      <trkpt lat="50.76914" lon="2.74105">
        <ele>81.85</ele>
        <time>2021-08-07T10:25:10Z</time>
      </trkpt>
      <trkpt lat="50.76889" lon="2.74055">
        <ele>79.45</ele>
        <time>2021-08-07T10:25:17Z</time>
      </trkpt>
      <trkpt lat="50.76854" lon="2.73995">
        <ele>75.6</ele>
        <time>2021-08-07T10:25:24Z</time>
      </trkpt>
      <trkpt lat="50.76848" lon="2.73986">
        <ele>75.6</ele>
        <time>2021-08-07T10:25:25Z</time>
      </trkpt>
      <trkpt lat="50.76831" lon="2.73957">
        <ele>73.68</ele>
        <time>2021-08-07T10:25:28Z</time>
      </trkpt>
      <trkpt lat="50.76795" lon="2.73883">
        <ele>70.79</ele>
        <time>2021-08-07T10:25:35Z</time>
      </trkpt>
      <trkpt lat="50.76736" lon="2.73766">
        <ele>67.91</ele>
        <time>2021-08-07T10:25:46Z</time>
      </trkpt>
      <trkpt lat="50.76727" lon="2.73747">
        <ele>67.91</ele>
        <time>2021-08-07T10:25:48Z</time>
      </trkpt>
      <trkpt lat="50.76721" lon="2.73738">
        <ele>67.43</ele>
        <time>2021-08-07T10:25:49Z</time>
      </trkpt>
      <trkpt lat="50.76688" lon="2.73683">
        <ele>66.47</ele>
        <time>2021-08-07T10:25:56Z</time>
      </trkpt>
      <trkpt lat="50.76656" lon="2.73631">
        <ele>65.51</ele>
        <time>2021-08-07T10:26:05Z</time>
      </trkpt>
      <trkpt lat="50.76626" lon="2.73585">
        <ele>64.07</ele>
        <time>2021-08-07T10:26:13Z</time>
      </trkpt>
      <trkpt lat="50.76617" lon="2.73574">
        <ele>64.07</ele>
        <time>2021-08-07T10:26:15Z</time>
      </trkpt>
      <trkpt lat="50.76609" lon="2.73567">
        <ele>64.07</ele>
        <time>2021-08-07T10:26:17Z</time>
      </trkpt>
      <trkpt lat="50.76605" lon="2.73564">
        <ele>64.07</ele>
        <time>2021-08-07T10:26:18Z</time>
      </trkpt>
      <trkpt lat="50.76601" lon="2.7356">
        <ele>64.07</ele>
        <time>2021-08-07T10:26:19Z</time>
      </trkpt>
      <trkpt lat="50.76597" lon="2.73558">
        <ele>64.07</ele>
        <time>2021-08-07T10:26:20Z</time>
      </trkpt>
      <trkpt lat="50.76593" lon="2.73557">
        <ele>64.07</ele>
        <time>2021-08-07T10:26:21Z</time>
      </trkpt>
      <trkpt lat="50.76578" lon="2.73547">
        <ele>64.07</ele>
        <time>2021-08-07T10:26:26Z</time>
      </trkpt>
      <trkpt lat="50.76553" lon="2.73537">
        <ele>64.55</ele>
        <time>2021-08-07T10:26:33Z</time>
      </trkpt>
      <trkpt lat="50.76545" lon="2.73533">
        <ele>64.55</ele>
        <time>2021-08-07T10:26:35Z</time>
      </trkpt>
      <trkpt lat="50.76541" lon="2.73531">
        <ele>64.55</ele>
        <time>2021-08-07T10:26:36Z</time>
      </trkpt>
      <trkpt lat="50.76537" lon="2.7353">
        <ele>64.55</ele>
        <time>2021-08-07T10:26:37Z</time>
      </trkpt>
      <trkpt lat="50.76533" lon="2.73529">
        <ele>64.55</ele>
        <time>2021-08-07T10:26:38Z</time>
      </trkpt>
      <trkpt lat="50.76528" lon="2.73527">
        <ele>64.55</ele>
        <time>2021-08-07T10:26:39Z</time>
      </trkpt>
      <trkpt lat="50.76524" lon="2.73525">
        <ele>64.55</ele>
        <time>2021-08-07T10:26:40Z</time>
      </trkpt>
      <trkpt lat="50.7652" lon="2.73523">
        <ele>64.55</ele>
        <time>2021-08-07T10:26:41Z</time>
      </trkpt>
      <trkpt lat="50.76516" lon="2.73522">
        <ele>64.55</ele>
        <time>2021-08-07T10:26:42Z</time>
      </trkpt>
      <trkpt lat="50.76473" lon="2.73498">
        <ele>62.62</ele>
        <time>2021-08-07T10:26:51Z</time>
      </trkpt>
      <trkpt lat="50.76459" lon="2.73489">
        <ele>62.62</ele>
        <time>2021-08-07T10:26:54Z</time>
      </trkpt>
      <trkpt lat="50.7643" lon="2.73469">
        <ele>62.62</ele>
        <time>2021-08-07T10:27:01Z</time>
      </trkpt>
      <trkpt lat="50.76415" lon="2.73456">
        <ele>62.62</ele>
        <time>2021-08-07T10:27:05Z</time>
      </trkpt>
      <trkpt lat="50.76411" lon="2.73453">
        <ele>64.07</ele>
        <time>2021-08-07T10:27:06Z</time>
      </trkpt>
      <trkpt lat="50.76395" lon="2.73437">
        <ele>63.58</ele>
        <time>2021-08-07T10:27:12Z</time>
      </trkpt>
      <trkpt lat="50.7637" lon="2.7343">
        <ele>64.55</ele>
        <time>2021-08-07T10:27:20Z</time>
      </trkpt>
      <trkpt lat="50.76352" lon="2.7343">
        <ele>65.99</ele>
        <time>2021-08-07T10:27:27Z</time>
      </trkpt>
      <trkpt lat="50.7633" lon="2.73448">
        <ele>66.95</ele>
        <time>2021-08-07T10:27:37Z</time>
      </trkpt>
      <trkpt lat="50.76316" lon="2.7346">
        <ele>68.39</ele>
        <time>2021-08-07T10:27:44Z</time>
      </trkpt>
      <trkpt lat="50.76299" lon="2.73475">
        <ele>68.87</ele>
        <time>2021-08-07T10:27:52Z</time>
      </trkpt>
      <trkpt lat="50.7628" lon="2.73495">
        <ele>68.87</ele>
        <time>2021-08-07T10:28:00Z</time>
      </trkpt>
      <trkpt lat="50.76265" lon="2.73513">
        <ele>68.87</ele>
        <time>2021-08-07T10:28:06Z</time>
      </trkpt>
      <trkpt lat="50.76249" lon="2.73528">
        <ele>68.87</ele>
        <time>2021-08-07T10:28:11Z</time>
      </trkpt>
      <trkpt lat="50.76221" lon="2.73563">
        <ele>66.47</ele>
        <time>2021-08-07T10:28:20Z</time>
      </trkpt>
      <trkpt lat="50.7621" lon="2.73576">
        <ele>65.51</ele>
        <time>2021-08-07T10:28:23Z</time>
      </trkpt>
      <trkpt lat="50.76188" lon="2.73599">
        <ele>63.58</ele>
        <time>2021-08-07T10:28:28Z</time>
      </trkpt>
      <trkpt lat="50.76136" lon="2.73646">
        <ele>60.7</ele>
        <time>2021-08-07T10:28:37Z</time>
      </trkpt>
      <trkpt lat="50.7613" lon="2.73652">
        <ele>59.74</ele>
        <time>2021-08-07T10:28:38Z</time>
      </trkpt>
      <trkpt lat="50.76126" lon="2.73659">
        <ele>60.22</ele>
        <time>2021-08-07T10:28:39Z</time>
      </trkpt>
      <trkpt lat="50.76121" lon="2.73665">
        <ele>59.26</ele>
        <time>2021-08-07T10:28:40Z</time>
      </trkpt>
      <trkpt lat="50.76116" lon="2.7367">
        <ele>58.78</ele>
        <time>2021-08-07T10:28:41Z</time>
      </trkpt>
      <trkpt lat="50.76111" lon="2.73674">
        <ele>58.78</ele>
        <time>2021-08-07T10:28:42Z</time>
      </trkpt>
      <trkpt lat="50.76106" lon="2.73677">
        <ele>57.82</ele>
        <time>2021-08-07T10:28:43Z</time>
      </trkpt>
      <trkpt lat="50.761" lon="2.7368">
        <ele>56.86</ele>
        <time>2021-08-07T10:28:44Z</time>
      </trkpt>
      <trkpt lat="50.76093" lon="2.73681">
        <ele>56.86</ele>
        <time>2021-08-07T10:28:45Z</time>
      </trkpt>
      <trkpt lat="50.76087" lon="2.73681">
        <ele>56.86</ele>
        <time>2021-08-07T10:28:46Z</time>
      </trkpt>
      <trkpt lat="50.76081" lon="2.73681">
        <ele>56.86</ele>
        <time>2021-08-07T10:28:47Z</time>
      </trkpt>
      <trkpt lat="50.76074" lon="2.73679">
        <ele>56.86</ele>
        <time>2021-08-07T10:28:48Z</time>
      </trkpt>
      <trkpt lat="50.76028" lon="2.73658">
        <ele>54.93</ele>
        <time>2021-08-07T10:28:56Z</time>
      </trkpt>
      <trkpt lat="50.76019" lon="2.73649">
        <ele>56.37</ele>
        <time>2021-08-07T10:28:58Z</time>
      </trkpt>
      <trkpt lat="50.76013" lon="2.73644">
        <ele>56.37</ele>
        <time>2021-08-07T10:28:59Z</time>
      </trkpt>
      <trkpt lat="50.75995" lon="2.73622">
        <ele>56.37</ele>
        <time>2021-08-07T10:29:03Z</time>
      </trkpt>
      <trkpt lat="50.75991" lon="2.73615">
        <ele>56.37</ele>
        <time>2021-08-07T10:29:04Z</time>
      </trkpt>
      <trkpt lat="50.75987" lon="2.73608">
        <ele>56.37</ele>
        <time>2021-08-07T10:29:05Z</time>
      </trkpt>
      <trkpt lat="50.75978" lon="2.73594">
        <ele>54.93</ele>
        <time>2021-08-07T10:29:07Z</time>
      </trkpt>
      <trkpt lat="50.75971" lon="2.73579">
        <ele>53.49</ele>
        <time>2021-08-07T10:29:09Z</time>
      </trkpt>
      <trkpt lat="50.75968" lon="2.73571">
        <ele>53.49</ele>
        <time>2021-08-07T10:29:10Z</time>
      </trkpt>
      <trkpt lat="50.75947" lon="2.73494">
        <ele>53.01</ele>
        <time>2021-08-07T10:29:18Z</time>
      </trkpt>
      <trkpt lat="50.75934" lon="2.73442">
        <ele>51.57</ele>
        <time>2021-08-07T10:29:23Z</time>
      </trkpt>
      <trkpt lat="50.75915" lon="2.73386">
        <ele>48.68</ele>
        <time>2021-08-07T10:29:28Z</time>
      </trkpt>
      <trkpt lat="50.75885" lon="2.73323">
        <ele>45.8</ele>
        <time>2021-08-07T10:29:34Z</time>
      </trkpt>
      <trkpt lat="50.75872" lon="2.73298">
        <ele>43.88</ele>
        <time>2021-08-07T10:29:37Z</time>
      </trkpt>
      <trkpt lat="50.75868" lon="2.73294">
        <ele>43.4</ele>
        <time>2021-08-07T10:29:38Z</time>
      </trkpt>
      <trkpt lat="50.75862" lon="2.73293">
        <ele>43.88</ele>
        <time>2021-08-07T10:29:39Z</time>
      </trkpt>
      <trkpt lat="50.75857" lon="2.73293">
        <ele>43.88</ele>
        <time>2021-08-07T10:29:40Z</time>
      </trkpt>
      <trkpt lat="50.75852" lon="2.73295">
        <ele>43.88</ele>
        <time>2021-08-07T10:29:41Z</time>
      </trkpt>
      <trkpt lat="50.75847" lon="2.73297">
        <ele>43.4</ele>
        <time>2021-08-07T10:29:42Z</time>
      </trkpt>
      <trkpt lat="50.75793" lon="2.73318">
        <ele>39.55</ele>
        <time>2021-08-07T10:29:50Z</time>
      </trkpt>
      <trkpt lat="50.75786" lon="2.7332">
        <ele>39.07</ele>
        <time>2021-08-07T10:29:51Z</time>
      </trkpt>
      <trkpt lat="50.75748" lon="2.73334">
        <ele>37.15</ele>
        <time>2021-08-07T10:29:56Z</time>
      </trkpt>
      <trkpt lat="50.75703" lon="2.73348">
        <ele>35.23</ele>
        <time>2021-08-07T10:30:02Z</time>
      </trkpt>
      <trkpt lat="50.75638" lon="2.73369">
        <ele>34.26</ele>
        <time>2021-08-07T10:30:11Z</time>
      </trkpt>
      <trkpt lat="50.75596" lon="2.73382">
        <ele>31.86</ele>
        <time>2021-08-07T10:30:17Z</time>
      </trkpt>
      <trkpt lat="50.75582" lon="2.73387">
        <ele>33.3</ele>
        <time>2021-08-07T10:30:19Z</time>
      </trkpt>
      <trkpt lat="50.75538" lon="2.7341">
        <ele>34.26</ele>
        <time>2021-08-07T10:30:26Z</time>
      </trkpt>
      <trkpt lat="50.75515" lon="2.73423">
        <ele>32.82</ele>
        <time>2021-08-07T10:30:30Z</time>
      </trkpt>
      <trkpt lat="50.75463" lon="2.73451">
        <ele>32.34</ele>
        <time>2021-08-07T10:30:39Z</time>
      </trkpt>
      <trkpt lat="50.75414" lon="2.73477">
        <ele>32.34</ele>
        <time>2021-08-07T10:30:49Z</time>
      </trkpt>
      <trkpt lat="50.75401" lon="2.73486">
        <ele>34.26</ele>
        <time>2021-08-07T10:30:52Z</time>
      </trkpt>
      <trkpt lat="50.75398" lon="2.73488">
        <ele>34.26</ele>
        <time>2021-08-07T10:30:53Z</time>
      </trkpt>
      <trkpt lat="50.75365" lon="2.73513">
        <ele>36.19</ele>
        <time>2021-08-07T10:31:02Z</time>
      </trkpt>
      <trkpt lat="50.75336" lon="2.73533">
        <ele>36.67</ele>
        <time>2021-08-07T10:31:11Z</time>
      </trkpt>
      <trkpt lat="50.75313" lon="2.73552">
        <ele>38.11</ele>
        <time>2021-08-07T10:31:19Z</time>
      </trkpt>
      <trkpt lat="50.75291" lon="2.73571">
        <ele>39.07</ele>
        <time>2021-08-07T10:31:28Z</time>
      </trkpt>
      <trkpt lat="50.75273" lon="2.73587">
        <ele>40.03</ele>
        <time>2021-08-07T10:31:35Z</time>
      </trkpt>
      <trkpt lat="50.7527" lon="2.73586">
        <ele>40.03</ele>
        <time>2021-08-07T10:31:36Z</time>
      </trkpt>
      <trkpt lat="50.75267" lon="2.73582">
        <ele>40.03</ele>
        <time>2021-08-07T10:31:37Z</time>
      </trkpt>
      <trkpt lat="50.75265" lon="2.73578">
        <ele>40.03</ele>
        <time>2021-08-07T10:31:38Z</time>
      </trkpt>
      <trkpt lat="50.75262" lon="2.73574">
        <ele>40.03</ele>
        <time>2021-08-07T10:31:39Z</time>
      </trkpt>
      <trkpt lat="50.7526" lon="2.73569">
        <ele>40.03</ele>
        <time>2021-08-07T10:31:40Z</time>
      </trkpt>
      <trkpt lat="50.75241" lon="2.73539">
        <ele>40.03</ele>
        <time>2021-08-07T10:31:46Z</time>
      </trkpt>
      <trkpt lat="50.75223" lon="2.73505">
        <ele>40.03</ele>
        <time>2021-08-07T10:31:52Z</time>
      </trkpt>
      <trkpt lat="50.75219" lon="2.735">
        <ele>40.03</ele>
        <time>2021-08-07T10:31:53Z</time>
      </trkpt>
      <trkpt lat="50.75215" lon="2.73497">
        <ele>40.03</ele>
        <time>2021-08-07T10:31:54Z</time>
      </trkpt>
      <trkpt lat="50.75211" lon="2.73494">
        <ele>40.03</ele>
        <time>2021-08-07T10:31:55Z</time>
      </trkpt>
      <trkpt lat="50.75206" lon="2.73491">
        <ele>40.03</ele>
        <time>2021-08-07T10:31:56Z</time>
      </trkpt>
      <trkpt lat="50.75201" lon="2.73489">
        <ele>40.03</ele>
        <time>2021-08-07T10:31:57Z</time>
      </trkpt>
      <trkpt lat="50.75196" lon="2.73487">
        <ele>40.03</ele>
        <time>2021-08-07T10:31:58Z</time>
      </trkpt>
      <trkpt lat="50.75191" lon="2.73485">
        <ele>40.03</ele>
        <time>2021-08-07T10:31:59Z</time>
      </trkpt>
      <trkpt lat="50.75186" lon="2.73483">
        <ele>40.03</ele>
        <time>2021-08-07T10:32:00Z</time>
      </trkpt>
      <trkpt lat="50.7516" lon="2.73469">
        <ele>38.59</ele>
        <time>2021-08-07T10:32:05Z</time>
      </trkpt>
      <trkpt lat="50.75103" lon="2.73436">
        <ele>38.11</ele>
        <time>2021-08-07T10:32:16Z</time>
      </trkpt>
      <trkpt lat="50.7506" lon="2.73415">
        <ele>38.11</ele>
        <time>2021-08-07T10:32:24Z</time>
      </trkpt>
      <trkpt lat="50.75055" lon="2.73411">
        <ele>38.11</ele>
        <time>2021-08-07T10:32:25Z</time>
      </trkpt>
      <trkpt lat="50.75046" lon="2.734">
        <ele>38.11</ele>
        <time>2021-08-07T10:32:27Z</time>
      </trkpt>
      <trkpt lat="50.75038" lon="2.73387">
        <ele>37.63</ele>
        <time>2021-08-07T10:32:29Z</time>
      </trkpt>
      <trkpt lat="50.75035" lon="2.73378">
        <ele>37.63</ele>
        <time>2021-08-07T10:32:30Z</time>
      </trkpt>
      <trkpt lat="50.75032" lon="2.73368">
        <ele>37.63</ele>
        <time>2021-08-07T10:32:31Z</time>
      </trkpt>
      <trkpt lat="50.7503" lon="2.73358">
        <ele>36.67</ele>
        <time>2021-08-07T10:32:32Z</time>
      </trkpt>
      <trkpt lat="50.75029" lon="2.73346">
        <ele>36.19</ele>
        <time>2021-08-07T10:32:33Z</time>
      </trkpt>
      <trkpt lat="50.75027" lon="2.73334">
        <ele>35.23</ele>
        <time>2021-08-07T10:32:34Z</time>
      </trkpt>
      <trkpt lat="50.75021" lon="2.73296">
        <ele>33.3</ele>
        <time>2021-08-07T10:32:37Z</time>
      </trkpt>
      <trkpt lat="50.75014" lon="2.73242">
        <ele>31.38</ele>
        <time>2021-08-07T10:32:41Z</time>
      </trkpt>
      <trkpt lat="50.75008" lon="2.7321">
        <ele>30.9</ele>
        <time>2021-08-07T10:32:44Z</time>
      </trkpt>
      <trkpt lat="50.75005" lon="2.73205">
        <ele>30.9</ele>
        <time>2021-08-07T10:32:45Z</time>
      </trkpt>
      <trkpt lat="50.75002" lon="2.73203">
        <ele>29.94</ele>
        <time>2021-08-07T10:32:46Z</time>
      </trkpt>
      <trkpt lat="50.74998" lon="2.73204">
        <ele>29.94</ele>
        <time>2021-08-07T10:32:47Z</time>
      </trkpt>
      <trkpt lat="50.74995" lon="2.73207">
        <ele>29.94</ele>
        <time>2021-08-07T10:32:48Z</time>
      </trkpt>
      <trkpt lat="50.74992" lon="2.73211">
        <ele>29.94</ele>
        <time>2021-08-07T10:32:49Z</time>
      </trkpt>
      <trkpt lat="50.7499" lon="2.73216">
        <ele>29.94</ele>
        <time>2021-08-07T10:32:50Z</time>
      </trkpt>
      <trkpt lat="50.74988" lon="2.73219">
        <ele>29.94</ele>
        <time>2021-08-07T10:32:51Z</time>
      </trkpt>
      <trkpt lat="50.74985" lon="2.73222">
        <ele>29.94</ele>
        <time>2021-08-07T10:32:52Z</time>
      </trkpt>
      <trkpt lat="50.74982" lon="2.73225">
        <ele>29.94</ele>
        <time>2021-08-07T10:32:53Z</time>
      </trkpt>
      <trkpt lat="50.7498" lon="2.73227">
        <ele>29.94</ele>
        <time>2021-08-07T10:32:54Z</time>
      </trkpt>
      <trkpt lat="50.74977" lon="2.73229">
        <ele>29.94</ele>
        <time>2021-08-07T10:32:55Z</time>
      </trkpt>
      <trkpt lat="50.7497" lon="2.73233">
        <ele>31.38</ele>
        <time>2021-08-07T10:32:57Z</time>
      </trkpt>
      <trkpt lat="50.74955" lon="2.73242">
        <ele>31.38</ele>
        <time>2021-08-07T10:33:01Z</time>
      </trkpt>
      <trkpt lat="50.74952" lon="2.73245">
        <ele>31.38</ele>
        <time>2021-08-07T10:33:02Z</time>
      </trkpt>
      <trkpt lat="50.74949" lon="2.7325">
        <ele>31.38</ele>
        <time>2021-08-07T10:33:03Z</time>
      </trkpt>
      <trkpt lat="50.74947" lon="2.73255">
        <ele>31.38</ele>
        <time>2021-08-07T10:33:04Z</time>
      </trkpt>
      <trkpt lat="50.74946" lon="2.7326">
        <ele>31.38</ele>
        <time>2021-08-07T10:33:05Z</time>
      </trkpt>
      <trkpt lat="50.7494" lon="2.73271">
        <ele>32.34</ele>
        <time>2021-08-07T10:33:08Z</time>
      </trkpt>
      <trkpt lat="50.74937" lon="2.7327">
        <ele>32.34</ele>
        <time>2021-08-07T10:33:09Z</time>
      </trkpt>
      <trkpt lat="50.74934" lon="2.73268">
        <ele>32.34</ele>
        <time>2021-08-07T10:33:10Z</time>
      </trkpt>
      <trkpt lat="50.7493" lon="2.73265">
        <ele>30.9</ele>
        <time>2021-08-07T10:33:11Z</time>
      </trkpt>
      <trkpt lat="50.74926" lon="2.73262">
        <ele>30.9</ele>
        <time>2021-08-07T10:33:12Z</time>
      </trkpt>
      <trkpt lat="50.74921" lon="2.73261">
        <ele>30.9</ele>
        <time>2021-08-07T10:33:13Z</time>
      </trkpt>
      <trkpt lat="50.74917" lon="2.73261">
        <ele>30.9</ele>
        <time>2021-08-07T10:33:14Z</time>
      </trkpt>
      <trkpt lat="50.74912" lon="2.73263">
        <ele>30.9</ele>
        <time>2021-08-07T10:33:15Z</time>
      </trkpt>
      <trkpt lat="50.74869" lon="2.73281">
        <ele>30.42</ele>
        <time>2021-08-07T10:33:24Z</time>
      </trkpt>
      <trkpt lat="50.74865" lon="2.73282">
        <ele>30.42</ele>
        <time>2021-08-07T10:33:25Z</time>
      </trkpt>
      <trkpt lat="50.74841" lon="2.73287">
        <ele>30.42</ele>
        <time>2021-08-07T10:33:30Z</time>
      </trkpt>
      <trkpt lat="50.74831" lon="2.73289">
        <ele>30.42</ele>
        <time>2021-08-07T10:33:32Z</time>
      </trkpt>
      <trkpt lat="50.74822" lon="2.7329">
        <ele>30.42</ele>
        <time>2021-08-07T10:33:34Z</time>
      </trkpt>
      <trkpt lat="50.74813" lon="2.73291">
        <ele>30.42</ele>
        <time>2021-08-07T10:33:36Z</time>
      </trkpt>
      <trkpt lat="50.74775" lon="2.73305">
        <ele>30.42</ele>
        <time>2021-08-07T10:33:44Z</time>
      </trkpt>
      <trkpt lat="50.74765" lon="2.73309">
        <ele>30.42</ele>
        <time>2021-08-07T10:33:46Z</time>
      </trkpt>
      <trkpt lat="50.74756" lon="2.73314">
        <ele>30.42</ele>
        <time>2021-08-07T10:33:48Z</time>
      </trkpt>
      <trkpt lat="50.74734" lon="2.73325">
        <ele>30.42</ele>
        <time>2021-08-07T10:33:53Z</time>
      </trkpt>
      <trkpt lat="50.74725" lon="2.73332">
        <ele>30.42</ele>
        <time>2021-08-07T10:33:55Z</time>
      </trkpt>
      <trkpt lat="50.74721" lon="2.73334">
        <ele>30.42</ele>
        <time>2021-08-07T10:33:56Z</time>
      </trkpt>
      <trkpt lat="50.74716" lon="2.73335">
        <ele>30.42</ele>
        <time>2021-08-07T10:33:57Z</time>
      </trkpt>
      <trkpt lat="50.74711" lon="2.73335">
        <ele>30.42</ele>
        <time>2021-08-07T10:33:58Z</time>
      </trkpt>
      <trkpt lat="50.74707" lon="2.73336">
        <ele>30.42</ele>
        <time>2021-08-07T10:33:59Z</time>
      </trkpt>
      <trkpt lat="50.74671" lon="2.73339">
        <ele>30.42</ele>
        <time>2021-08-07T10:34:07Z</time>
      </trkpt>
      <trkpt lat="50.74663" lon="2.73341">
        <ele>30.42</ele>
        <time>2021-08-07T10:34:09Z</time>
      </trkpt>
      <trkpt lat="50.74654" lon="2.73344">
        <ele>30.42</ele>
        <time>2021-08-07T10:34:11Z</time>
      </trkpt>
      <trkpt lat="50.7465" lon="2.73347">
        <ele>30.42</ele>
        <time>2021-08-07T10:34:12Z</time>
      </trkpt>
      <trkpt lat="50.74647" lon="2.73351">
        <ele>30.42</ele>
        <time>2021-08-07T10:34:13Z</time>
      </trkpt>
      <trkpt lat="50.74629" lon="2.7337">
        <ele>30.42</ele>
        <time>2021-08-07T10:34:18Z</time>
      </trkpt>
      <trkpt lat="50.74621" lon="2.73375">
        <ele>30.42</ele>
        <time>2021-08-07T10:34:20Z</time>
      </trkpt>
      <trkpt lat="50.74606" lon="2.73379">
        <ele>30.42</ele>
        <time>2021-08-07T10:34:24Z</time>
      </trkpt>
      <trkpt lat="50.74604" lon="2.73375">
        <ele>31.38</ele>
        <time>2021-08-07T10:34:25Z</time>
      </trkpt>
      <trkpt lat="50.74602" lon="2.73372">
        <ele>31.38</ele>
        <time>2021-08-07T10:34:26Z</time>
      </trkpt>
      <trkpt lat="50.74601" lon="2.73367">
        <ele>31.38</ele>
        <time>2021-08-07T10:34:27Z</time>
      </trkpt>
      <trkpt lat="50.74601" lon="2.73361">
        <ele>31.38</ele>
        <time>2021-08-07T10:34:28Z</time>
      </trkpt>
      <trkpt lat="50.74601" lon="2.73356">
        <ele>31.38</ele>
        <time>2021-08-07T10:34:29Z</time>
      </trkpt>
      <trkpt lat="50.74601" lon="2.73353">
        <ele>31.38</ele>
        <time>2021-08-07T10:34:30Z</time>
      </trkpt>
      <trkpt lat="50.746" lon="2.73349">
        <ele>31.38</ele>
        <time>2021-08-07T10:34:35Z</time>
      </trkpt>
      <trkpt lat="50.746" lon="2.73347">
        <ele>31.38</ele>
        <time>2021-08-07T10:34:39Z</time>
      </trkpt>
      <trkpt lat="50.74595" lon="2.7334">
        <ele>29.94</ele>
        <time>2021-08-07T10:34:42Z</time>
      </trkpt>
      <trkpt lat="50.74592" lon="2.7334">
        <ele>29.94</ele>
        <time>2021-08-07T10:34:43Z</time>
      </trkpt>
      <trkpt lat="50.74563" lon="2.73351">
        <ele>29.94</ele>
        <time>2021-08-07T10:34:51Z</time>
      </trkpt>
      <trkpt lat="50.74523" lon="2.73363">
        <ele>29.94</ele>
        <time>2021-08-07T10:35:01Z</time>
      </trkpt>
      <trkpt lat="50.74489" lon="2.73367">
        <ele>31.38</ele>
        <time>2021-08-07T10:35:10Z</time>
      </trkpt>
      <trkpt lat="50.74485" lon="2.73368">
        <ele>31.38</ele>
        <time>2021-08-07T10:35:11Z</time>
      </trkpt>
      <trkpt lat="50.74449" lon="2.73372">
        <ele>31.86</ele>
        <time>2021-08-07T10:35:21Z</time>
      </trkpt>
      <trkpt lat="50.74415" lon="2.73374">
        <ele>33.3</ele>
        <time>2021-08-07T10:35:31Z</time>
      </trkpt>
      <trkpt lat="50.74382" lon="2.73377">
        <ele>34.74</ele>
        <time>2021-08-07T10:35:41Z</time>
      </trkpt>
      <trkpt lat="50.74352" lon="2.73377">
        <ele>36.67</ele>
        <time>2021-08-07T10:35:52Z</time>
      </trkpt>
      <trkpt lat="50.7433" lon="2.73378">
        <ele>37.63</ele>
        <time>2021-08-07T10:36:01Z</time>
      </trkpt>
      <trkpt lat="50.74307" lon="2.7338">
        <ele>40.03</ele>
        <time>2021-08-07T10:36:10Z</time>
      </trkpt>
      <trkpt lat="50.74282" lon="2.73383">
        <ele>41.47</ele>
        <time>2021-08-07T10:36:20Z</time>
      </trkpt>
      <trkpt lat="50.7426" lon="2.73384">
        <ele>42.92</ele>
        <time>2021-08-07T10:36:29Z</time>
      </trkpt>
      <trkpt lat="50.7424" lon="2.73385">
        <ele>43.88</ele>
        <time>2021-08-07T10:36:37Z</time>
      </trkpt>
      <trkpt lat="50.74225" lon="2.73386">
        <ele>45.32</ele>
        <time>2021-08-07T10:36:43Z</time>
      </trkpt>
      <trkpt lat="50.74203" lon="2.73388">
        <ele>46.28</ele>
        <time>2021-08-07T10:36:52Z</time>
      </trkpt>
      <trkpt lat="50.74183" lon="2.73391">
        <ele>47.24</ele>
        <time>2021-08-07T10:37:00Z</time>
      </trkpt>
      <trkpt lat="50.7416" lon="2.73399">
        <ele>48.68</ele>
        <time>2021-08-07T10:37:08Z</time>
      </trkpt>
      <trkpt lat="50.74131" lon="2.73409">
        <ele>49.16</ele>
        <time>2021-08-07T10:37:17Z</time>
      </trkpt>
      <trkpt lat="50.74114" lon="2.73417">
        <ele>49.16</ele>
        <time>2021-08-07T10:37:23Z</time>
      </trkpt>
      <trkpt lat="50.7409" lon="2.73428">
        <ele>50.61</ele>
        <time>2021-08-07T10:37:31Z</time>
      </trkpt>
      <trkpt lat="50.74075" lon="2.73435">
        <ele>50.61</ele>
        <time>2021-08-07T10:37:36Z</time>
      </trkpt>
      <trkpt lat="50.74072" lon="2.73433">
        <ele>50.61</ele>
        <time>2021-08-07T10:37:37Z</time>
      </trkpt>
      <trkpt lat="50.7407" lon="2.73431">
        <ele>50.61</ele>
        <time>2021-08-07T10:37:38Z</time>
      </trkpt>
      <trkpt lat="50.74067" lon="2.73431">
        <ele>50.61</ele>
        <time>2021-08-07T10:37:39Z</time>
      </trkpt>
      <trkpt lat="50.74064" lon="2.73432">
        <ele>50.61</ele>
        <time>2021-08-07T10:37:40Z</time>
      </trkpt>
      <trkpt lat="50.74061" lon="2.73433">
        <ele>51.09</ele>
        <time>2021-08-07T10:37:41Z</time>
      </trkpt>
      <trkpt lat="50.74045" lon="2.73433">
        <ele>51.09</ele>
        <time>2021-08-07T10:37:47Z</time>
      </trkpt>
      <trkpt lat="50.74041" lon="2.73434">
        <ele>52.05</ele>
        <time>2021-08-07T10:37:53Z</time>
      </trkpt>
      <trkpt lat="50.74043" lon="2.73433">
        <ele>52.05</ele>
        <time>2021-08-07T10:38:04Z</time>
      </trkpt>
      <trkpt lat="50.74045" lon="2.73434">
        <ele>52.05</ele>
        <time>2021-08-07T10:38:24Z</time>
      </trkpt>
      <trkpt lat="50.7404" lon="2.73428">
        <ele>52.05</ele>
        <time>2021-08-07T10:38:47Z</time>
      </trkpt>
      <trkpt lat="50.74037" lon="2.73427">
        <ele>52.05</ele>
        <time>2021-08-07T10:39:07Z</time>
      </trkpt>
      <trkpt lat="50.74039" lon="2.73429">
        <ele>52.05</ele>
        <time>2021-08-07T10:39:25Z</time>
      </trkpt>
      <trkpt lat="50.74039" lon="2.73432">
        <ele>52.05</ele>
        <time>2021-08-07T10:39:45Z</time>
      </trkpt>
      <trkpt lat="50.74036" lon="2.73431">
        <ele>52.05</ele>
        <time>2021-08-07T10:40:09Z</time>
      </trkpt>
      <trkpt lat="50.74035" lon="2.73428">
        <ele>52.05</ele>
        <time>2021-08-07T10:40:29Z</time>
      </trkpt>
      <trkpt lat="50.74039" lon="2.73433">
        <ele>52.05</ele>
        <time>2021-08-07T10:40:51Z</time>
      </trkpt>
      <trkpt lat="50.74041" lon="2.73434">
        <ele>52.05</ele>
        <time>2021-08-07T10:41:18Z</time>
      </trkpt>
      <trkpt lat="50.74039" lon="2.73431">
        <ele>52.05</ele>
        <time>2021-08-07T10:41:41Z</time>
      </trkpt>
      <trkpt lat="50.74038" lon="2.7343">
        <ele>52.05</ele>
        <time>2021-08-07T10:42:02Z</time>
      </trkpt>
      <trkpt lat="50.7404" lon="2.7343">
        <ele>51.57</ele>
        <time>2021-08-07T10:42:20Z</time>
      </trkpt>
      <trkpt lat="50.74042" lon="2.73432">
        <ele>51.57</ele>
        <time>2021-08-07T10:42:27Z</time>
      </trkpt>
      <trkpt lat="50.74043" lon="2.73431">
        <ele>51.57</ele>
        <time>2021-08-07T10:42:28Z</time>
      </trkpt>
      <trkpt lat="50.74044" lon="2.7343">
        <ele>51.57</ele>
        <time>2021-08-07T10:42:29Z</time>
      </trkpt>
      <trkpt lat="50.74046" lon="2.73429">
        <ele>51.57</ele>
        <time>2021-08-07T10:42:30Z</time>
      </trkpt>
      <trkpt lat="50.74048" lon="2.73429">
        <ele>51.57</ele>
        <time>2021-08-07T10:42:31Z</time>
      </trkpt>
      <trkpt lat="50.7405" lon="2.73429">
        <ele>51.57</ele>
        <time>2021-08-07T10:42:32Z</time>
      </trkpt>
      <trkpt lat="50.74053" lon="2.73429">
        <ele>51.57</ele>
        <time>2021-08-07T10:42:33Z</time>
      </trkpt>
      <trkpt lat="50.74056" lon="2.73428">
        <ele>51.57</ele>
        <time>2021-08-07T10:42:34Z</time>
      </trkpt>
      <trkpt lat="50.74058" lon="2.73427">
        <ele>51.57</ele>
        <time>2021-08-07T10:42:35Z</time>
      </trkpt>
      <trkpt lat="50.7406" lon="2.73424">
        <ele>51.57</ele>
        <time>2021-08-07T10:42:36Z</time>
      </trkpt>
      <trkpt lat="50.7406" lon="2.7342">
        <ele>51.57</ele>
        <time>2021-08-07T10:42:37Z</time>
      </trkpt>
      <trkpt lat="50.7406" lon="2.73416">
        <ele>51.57</ele>
        <time>2021-08-07T10:42:38Z</time>
      </trkpt>
      <trkpt lat="50.7406" lon="2.73411">
        <ele>51.57</ele>
        <time>2021-08-07T10:42:39Z</time>
      </trkpt>
      <trkpt lat="50.74059" lon="2.73406">
        <ele>51.57</ele>
        <time>2021-08-07T10:42:40Z</time>
      </trkpt>
      <trkpt lat="50.74058" lon="2.73401">
        <ele>51.57</ele>
        <time>2021-08-07T10:42:41Z</time>
      </trkpt>
      <trkpt lat="50.74057" lon="2.73396">
        <ele>51.57</ele>
        <time>2021-08-07T10:42:42Z</time>
      </trkpt>
      <trkpt lat="50.74041" lon="2.73341">
        <ele>51.57</ele>
        <time>2021-08-07T10:42:51Z</time>
      </trkpt>
      <trkpt lat="50.74036" lon="2.73328">
        <ele>50.61</ele>
        <time>2021-08-07T10:42:53Z</time>
      </trkpt>
      <trkpt lat="50.74031" lon="2.73315">
        <ele>50.13</ele>
        <time>2021-08-07T10:42:55Z</time>
      </trkpt>
      <trkpt lat="50.74027" lon="2.73309">
        <ele>50.13</ele>
        <time>2021-08-07T10:42:56Z</time>
      </trkpt>
      <trkpt lat="50.74023" lon="2.73305">
        <ele>50.13</ele>
        <time>2021-08-07T10:42:57Z</time>
      </trkpt>
      <trkpt lat="50.74018" lon="2.73304">
        <ele>50.13</ele>
        <time>2021-08-07T10:42:58Z</time>
      </trkpt>
      <trkpt lat="50.74015" lon="2.73304">
        <ele>50.13</ele>
        <time>2021-08-07T10:42:59Z</time>
      </trkpt>
      <trkpt lat="50.74011" lon="2.73304">
        <ele>50.13</ele>
        <time>2021-08-07T10:43:00Z</time>
      </trkpt>
      <trkpt lat="50.74006" lon="2.73305">
        <ele>50.13</ele>
        <time>2021-08-07T10:43:01Z</time>
      </trkpt>
      <trkpt lat="50.74003" lon="2.73306">
        <ele>50.13</ele>
        <time>2021-08-07T10:43:02Z</time>
      </trkpt>
      <trkpt lat="50.74001" lon="2.73305">
        <ele>50.13</ele>
        <time>2021-08-07T10:43:03Z</time>
      </trkpt>
      <trkpt lat="50.73999" lon="2.73303">
        <ele>50.13</ele>
        <time>2021-08-07T10:43:04Z</time>
      </trkpt>
      <trkpt lat="50.73998" lon="2.73301">
        <ele>50.13</ele>
        <time>2021-08-07T10:43:05Z</time>
      </trkpt>
      <trkpt lat="50.73996" lon="2.733">
        <ele>50.13</ele>
        <time>2021-08-07T10:43:06Z</time>
      </trkpt>
      <trkpt lat="50.73994" lon="2.73301">
        <ele>50.13</ele>
        <time>2021-08-07T10:43:07Z</time>
      </trkpt>
      <trkpt lat="50.73993" lon="2.73305">
        <ele>50.13</ele>
        <time>2021-08-07T10:43:08Z</time>
      </trkpt>
      <trkpt lat="50.73991" lon="2.73309">
        <ele>50.13</ele>
        <time>2021-08-07T10:43:09Z</time>
      </trkpt>
      <trkpt lat="50.73978" lon="2.73325">
        <ele>51.57</ele>
        <time>2021-08-07T10:43:14Z</time>
      </trkpt>
      <trkpt lat="50.73976" lon="2.73325">
        <ele>52.05</ele>
        <time>2021-08-07T10:43:15Z</time>
      </trkpt>
      <trkpt lat="50.73975" lon="2.73323">
        <ele>52.05</ele>
        <time>2021-08-07T10:43:16Z</time>
      </trkpt>
      <trkpt lat="50.73976" lon="2.73321">
        <ele>52.05</ele>
        <time>2021-08-07T10:43:17Z</time>
      </trkpt>
      <trkpt lat="50.73978" lon="2.73319">
        <ele>52.05</ele>
        <time>2021-08-07T10:43:18Z</time>
      </trkpt>
      <trkpt lat="50.73981" lon="2.73317">
        <ele>52.05</ele>
        <time>2021-08-07T10:43:19Z</time>
      </trkpt>
      <trkpt lat="50.73984" lon="2.73315">
        <ele>52.05</ele>
        <time>2021-08-07T10:43:20Z</time>
      </trkpt>
      <trkpt lat="50.73987" lon="2.73314">
        <ele>50.61</ele>
        <time>2021-08-07T10:43:21Z</time>
      </trkpt>
      <trkpt lat="50.7399" lon="2.73312">
        <ele>50.61</ele>
        <time>2021-08-07T10:43:22Z</time>
      </trkpt>
      <trkpt lat="50.73992" lon="2.73312">
        <ele>50.61</ele>
        <time>2021-08-07T10:43:23Z</time>
      </trkpt>
      <trkpt lat="50.73994" lon="2.7331">
        <ele>50.61</ele>
        <time>2021-08-07T10:43:24Z</time>
      </trkpt>
      <trkpt lat="50.73996" lon="2.73306">
        <ele>50.61</ele>
        <time>2021-08-07T10:43:25Z</time>
      </trkpt>
      <trkpt lat="50.73996" lon="2.73301">
        <ele>50.61</ele>
        <time>2021-08-07T10:43:26Z</time>
      </trkpt>
      <trkpt lat="50.73995" lon="2.73296">
        <ele>50.61</ele>
        <time>2021-08-07T10:43:27Z</time>
      </trkpt>
      <trkpt lat="50.73993" lon="2.73291">
        <ele>50.61</ele>
        <time>2021-08-07T10:43:28Z</time>
      </trkpt>
      <trkpt lat="50.73991" lon="2.73286">
        <ele>50.61</ele>
        <time>2021-08-07T10:43:29Z</time>
      </trkpt>
      <trkpt lat="50.73973" lon="2.73238">
        <ele>50.13</ele>
        <time>2021-08-07T10:43:36Z</time>
      </trkpt>
      <trkpt lat="50.73968" lon="2.73224">
        <ele>48.68</ele>
        <time>2021-08-07T10:43:38Z</time>
      </trkpt>
      <trkpt lat="50.73958" lon="2.73203">
        <ele>49.16</ele>
        <time>2021-08-07T10:43:43Z</time>
      </trkpt>
      <trkpt lat="50.73955" lon="2.73203">
        <ele>49.16</ele>
        <time>2021-08-07T10:43:44Z</time>
      </trkpt>
      <trkpt lat="50.73952" lon="2.73205">
        <ele>49.16</ele>
        <time>2021-08-07T10:43:45Z</time>
      </trkpt>
      <trkpt lat="50.7395" lon="2.73207">
        <ele>49.16</ele>
        <time>2021-08-07T10:43:46Z</time>
      </trkpt>
      <trkpt lat="50.73948" lon="2.73211">
        <ele>49.16</ele>
        <time>2021-08-07T10:43:47Z</time>
      </trkpt>
      <trkpt lat="50.73945" lon="2.73215">
        <ele>49.16</ele>
        <time>2021-08-07T10:43:48Z</time>
      </trkpt>
      <trkpt lat="50.73942" lon="2.73219">
        <ele>49.16</ele>
        <time>2021-08-07T10:43:49Z</time>
      </trkpt>
      <trkpt lat="50.73927" lon="2.73238">
        <ele>49.16</ele>
        <time>2021-08-07T10:43:54Z</time>
      </trkpt>
      <trkpt lat="50.73894" lon="2.73283">
        <ele>49.16</ele>
        <time>2021-08-07T10:44:04Z</time>
      </trkpt>
      <trkpt lat="50.73886" lon="2.73294">
        <ele>49.16</ele>
        <time>2021-08-07T10:44:08Z</time>
      </trkpt>
      <trkpt lat="50.73886" lon="2.73298">
        <ele>49.16</ele>
        <time>2021-08-07T10:44:09Z</time>
      </trkpt>
      <trkpt lat="50.73886" lon="2.73303">
        <ele>49.16</ele>
        <time>2021-08-07T10:44:10Z</time>
      </trkpt>
      <trkpt lat="50.73889" lon="2.73314">
        <ele>49.16</ele>
        <time>2021-08-07T10:44:12Z</time>
      </trkpt>
      <trkpt lat="50.73915" lon="2.7338">
        <ele>49.16</ele>
        <time>2021-08-07T10:44:23Z</time>
      </trkpt>
      <trkpt lat="50.73939" lon="2.73447">
        <ele>49.16</ele>
        <time>2021-08-07T10:44:33Z</time>
      </trkpt>
      <trkpt lat="50.73954" lon="2.73499">
        <ele>49.16</ele>
        <time>2021-08-07T10:44:41Z</time>
      </trkpt>
      <trkpt lat="50.73955" lon="2.73523">
        <ele>49.16</ele>
        <time>2021-08-07T10:44:48Z</time>
      </trkpt>
      <trkpt lat="50.73949" lon="2.73547">
        <ele>48.68</ele>
        <time>2021-08-07T10:44:53Z</time>
      </trkpt>
      <trkpt lat="50.73942" lon="2.73564">
        <ele>48.68</ele>
        <time>2021-08-07T10:44:56Z</time>
      </trkpt>
      <trkpt lat="50.73938" lon="2.73569">
        <ele>48.68</ele>
        <time>2021-08-07T10:44:57Z</time>
      </trkpt>
      <trkpt lat="50.7393" lon="2.7358">
        <ele>48.2</ele>
        <time>2021-08-07T10:44:59Z</time>
      </trkpt>
      <trkpt lat="50.73926" lon="2.73586">
        <ele>47.72</ele>
        <time>2021-08-07T10:45:00Z</time>
      </trkpt>
      <trkpt lat="50.7388" lon="2.73644">
        <ele>45.8</ele>
        <time>2021-08-07T10:45:09Z</time>
      </trkpt>
      <trkpt lat="50.73823" lon="2.7372">
        <ele>43.4</ele>
        <time>2021-08-07T10:45:19Z</time>
      </trkpt>
      <trkpt lat="50.73759" lon="2.73809">
        <ele>40.99</ele>
        <time>2021-08-07T10:45:30Z</time>
      </trkpt>
      <trkpt lat="50.73692" lon="2.73899">
        <ele>37.15</ele>
        <time>2021-08-07T10:45:41Z</time>
      </trkpt>
      <trkpt lat="50.73637" lon="2.73973">
        <ele>36.19</ele>
        <time>2021-08-07T10:45:50Z</time>
      </trkpt>
      <trkpt lat="50.73578" lon="2.74054">
        <ele>34.26</ele>
        <time>2021-08-07T10:46:00Z</time>
      </trkpt>
      <trkpt lat="50.73524" lon="2.74125">
        <ele>32.82</ele>
        <time>2021-08-07T10:46:09Z</time>
      </trkpt>
      <trkpt lat="50.73461" lon="2.74204">
        <ele>30.9</ele>
        <time>2021-08-07T10:46:19Z</time>
      </trkpt>
      <trkpt lat="50.73432" lon="2.7424">
        <ele>29.46</ele>
        <time>2021-08-07T10:46:24Z</time>
      </trkpt>
      <trkpt lat="50.73373" lon="2.74311">
        <ele>28.5</ele>
        <time>2021-08-07T10:46:34Z</time>
      </trkpt>
      <trkpt lat="50.73322" lon="2.74373">
        <ele>27.53</ele>
        <time>2021-08-07T10:46:43Z</time>
      </trkpt>
      <trkpt lat="50.73269" lon="2.74437">
        <ele>26.09</ele>
        <time>2021-08-07T10:46:53Z</time>
      </trkpt>
      <trkpt lat="50.73211" lon="2.74506">
        <ele>25.61</ele>
        <time>2021-08-07T10:47:04Z</time>
      </trkpt>
      <trkpt lat="50.73177" lon="2.74548">
        <ele>26.09</ele>
        <time>2021-08-07T10:47:11Z</time>
      </trkpt>
      <trkpt lat="50.73119" lon="2.74623">
        <ele>26.57</ele>
        <time>2021-08-07T10:47:23Z</time>
      </trkpt>
      <trkpt lat="50.7309" lon="2.74658">
        <ele>26.57</ele>
        <time>2021-08-07T10:47:29Z</time>
      </trkpt>
      <trkpt lat="50.73085" lon="2.74662">
        <ele>25.13</ele>
        <time>2021-08-07T10:47:30Z</time>
      </trkpt>
      <trkpt lat="50.73054" lon="2.74684">
        <ele>24.65</ele>
        <time>2021-08-07T10:47:36Z</time>
      </trkpt>
      <trkpt lat="50.73048" lon="2.74685">
        <ele>24.65</ele>
        <time>2021-08-07T10:47:37Z</time>
      </trkpt>
      <trkpt lat="50.73043" lon="2.74685">
        <ele>24.65</ele>
        <time>2021-08-07T10:47:38Z</time>
      </trkpt>
      <trkpt lat="50.73038" lon="2.74685">
        <ele>24.65</ele>
        <time>2021-08-07T10:47:39Z</time>
      </trkpt>
      <trkpt lat="50.73033" lon="2.74685">
        <ele>24.65</ele>
        <time>2021-08-07T10:47:40Z</time>
      </trkpt>
      <trkpt lat="50.73028" lon="2.74686">
        <ele>24.65</ele>
        <time>2021-08-07T10:47:41Z</time>
      </trkpt>
      <trkpt lat="50.73024" lon="2.74688">
        <ele>24.65</ele>
        <time>2021-08-07T10:47:42Z</time>
      </trkpt>
      <trkpt lat="50.7302" lon="2.74691">
        <ele>24.65</ele>
        <time>2021-08-07T10:47:43Z</time>
      </trkpt>
      <trkpt lat="50.73018" lon="2.74697">
        <ele>24.65</ele>
        <time>2021-08-07T10:47:44Z</time>
      </trkpt>
      <trkpt lat="50.73016" lon="2.74703">
        <ele>25.61</ele>
        <time>2021-08-07T10:47:45Z</time>
      </trkpt>
      <trkpt lat="50.73015" lon="2.7471">
        <ele>25.61</ele>
        <time>2021-08-07T10:47:46Z</time>
      </trkpt>
      <trkpt lat="50.73016" lon="2.74718">
        <ele>26.57</ele>
        <time>2021-08-07T10:47:47Z</time>
      </trkpt>
      <trkpt lat="50.73018" lon="2.74725">
        <ele>26.57</ele>
        <time>2021-08-07T10:47:48Z</time>
      </trkpt>
      <trkpt lat="50.73021" lon="2.74731">
        <ele>26.57</ele>
        <time>2021-08-07T10:47:49Z</time>
      </trkpt>
      <trkpt lat="50.73025" lon="2.74735">
        <ele>26.57</ele>
        <time>2021-08-07T10:47:50Z</time>
      </trkpt>
      <trkpt lat="50.7303" lon="2.74737">
        <ele>26.57</ele>
        <time>2021-08-07T10:47:51Z</time>
      </trkpt>
      <trkpt lat="50.73035" lon="2.74739">
        <ele>26.57</ele>
        <time>2021-08-07T10:47:52Z</time>
      </trkpt>
      <trkpt lat="50.7304" lon="2.74742">
        <ele>26.57</ele>
        <time>2021-08-07T10:47:53Z</time>
      </trkpt>
      <trkpt lat="50.73044" lon="2.74746">
        <ele>26.57</ele>
        <time>2021-08-07T10:47:54Z</time>
      </trkpt>
      <trkpt lat="50.73049" lon="2.74752">
        <ele>26.57</ele>
        <time>2021-08-07T10:47:55Z</time>
      </trkpt>
      <trkpt lat="50.73052" lon="2.74757">
        <ele>26.57</ele>
        <time>2021-08-07T10:47:56Z</time>
      </trkpt>
      <trkpt lat="50.73055" lon="2.74762">
        <ele>25.13</ele>
        <time>2021-08-07T10:47:57Z</time>
      </trkpt>
      <trkpt lat="50.73058" lon="2.74768">
        <ele>24.65</ele>
        <time>2021-08-07T10:47:58Z</time>
      </trkpt>
      <trkpt lat="50.73062" lon="2.74775">
        <ele>24.65</ele>
        <time>2021-08-07T10:47:59Z</time>
      </trkpt>
      <trkpt lat="50.73096" lon="2.74841">
        <ele>24.65</ele>
        <time>2021-08-07T10:48:09Z</time>
      </trkpt>
      <trkpt lat="50.73103" lon="2.74853">
        <ele>24.65</ele>
        <time>2021-08-07T10:48:11Z</time>
      </trkpt>
      <trkpt lat="50.73127" lon="2.74899">
        <ele>24.65</ele>
        <time>2021-08-07T10:48:19Z</time>
      </trkpt>
      <trkpt lat="50.73135" lon="2.74927">
        <ele>26.09</ele>
        <time>2021-08-07T10:48:25Z</time>
      </trkpt>
      <trkpt lat="50.73136" lon="2.7493">
        <ele>26.09</ele>
        <time>2021-08-07T10:48:26Z</time>
      </trkpt>
      <trkpt lat="50.73135" lon="2.74952">
        <ele>26.09</ele>
        <time>2021-08-07T10:48:31Z</time>
      </trkpt>
      <trkpt lat="50.73128" lon="2.74991">
        <ele>26.09</ele>
        <time>2021-08-07T10:48:38Z</time>
      </trkpt>
      <trkpt lat="50.73117" lon="2.75042">
        <ele>26.09</ele>
        <time>2021-08-07T10:48:46Z</time>
      </trkpt>
      <trkpt lat="50.73108" lon="2.75088">
        <ele>26.57</ele>
        <time>2021-08-07T10:48:53Z</time>
      </trkpt>
      <trkpt lat="50.73093" lon="2.75177">
        <ele>27.05</ele>
        <time>2021-08-07T10:49:05Z</time>
      </trkpt>
      <trkpt lat="50.73092" lon="2.75183">
        <ele>27.53</ele>
        <time>2021-08-07T10:49:06Z</time>
      </trkpt>
      <trkpt lat="50.7309" lon="2.7519">
        <ele>27.53</ele>
        <time>2021-08-07T10:49:07Z</time>
      </trkpt>
      <trkpt lat="50.73083" lon="2.75234">
        <ele>27.53</ele>
        <time>2021-08-07T10:49:13Z</time>
      </trkpt>
      <trkpt lat="50.73081" lon="2.75241">
        <ele>27.53</ele>
        <time>2021-08-07T10:49:14Z</time>
      </trkpt>
      <trkpt lat="50.73079" lon="2.75255">
        <ele>27.53</ele>
        <time>2021-08-07T10:49:16Z</time>
      </trkpt>
      <trkpt lat="50.73077" lon="2.75261">
        <ele>27.53</ele>
        <time>2021-08-07T10:49:17Z</time>
      </trkpt>
      <trkpt lat="50.73075" lon="2.75268">
        <ele>25.61</ele>
        <time>2021-08-07T10:49:18Z</time>
      </trkpt>
      <trkpt lat="50.73074" lon="2.75275">
        <ele>25.61</ele>
        <time>2021-08-07T10:49:19Z</time>
      </trkpt>
      <trkpt lat="50.73072" lon="2.75283">
        <ele>25.61</ele>
        <time>2021-08-07T10:49:20Z</time>
      </trkpt>
      <trkpt lat="50.73071" lon="2.7529">
        <ele>25.61</ele>
        <time>2021-08-07T10:49:21Z</time>
      </trkpt>
      <trkpt lat="50.7307" lon="2.75297">
        <ele>26.57</ele>
        <time>2021-08-07T10:49:22Z</time>
      </trkpt>
      <trkpt lat="50.73068" lon="2.75305">
        <ele>26.57</ele>
        <time>2021-08-07T10:49:23Z</time>
      </trkpt>
      <trkpt lat="50.73067" lon="2.75311">
        <ele>27.05</ele>
        <time>2021-08-07T10:49:24Z</time>
      </trkpt>
      <trkpt lat="50.73056" lon="2.75374">
        <ele>28.02</ele>
        <time>2021-08-07T10:49:33Z</time>
      </trkpt>
      <trkpt lat="50.73053" lon="2.75388">
        <ele>28.02</ele>
        <time>2021-08-07T10:49:35Z</time>
      </trkpt>
      <trkpt lat="50.73052" lon="2.75393">
        <ele>28.02</ele>
        <time>2021-08-07T10:49:36Z</time>
      </trkpt>
      <trkpt lat="50.73045" lon="2.75424">
        <ele>28.02</ele>
        <time>2021-08-07T10:49:42Z</time>
      </trkpt>
      <trkpt lat="50.73043" lon="2.75426">
        <ele>28.02</ele>
        <time>2021-08-07T10:49:43Z</time>
      </trkpt>
      <trkpt lat="50.73033" lon="2.75429">
        <ele>26.57</ele>
        <time>2021-08-07T10:49:46Z</time>
      </trkpt>
      <trkpt lat="50.73029" lon="2.7543">
        <ele>26.57</ele>
        <time>2021-08-07T10:49:47Z</time>
      </trkpt>
      <trkpt lat="50.73025" lon="2.75431">
        <ele>26.57</ele>
        <time>2021-08-07T10:49:48Z</time>
      </trkpt>
      <trkpt lat="50.73021" lon="2.75432">
        <ele>26.57</ele>
        <time>2021-08-07T10:49:49Z</time>
      </trkpt>
      <trkpt lat="50.73017" lon="2.75434">
        <ele>26.57</ele>
        <time>2021-08-07T10:49:50Z</time>
      </trkpt>
      <trkpt lat="50.73014" lon="2.75435">
        <ele>26.57</ele>
        <time>2021-08-07T10:49:51Z</time>
      </trkpt>
      <trkpt lat="50.7301" lon="2.75437">
        <ele>26.09</ele>
        <time>2021-08-07T10:49:52Z</time>
      </trkpt>
      <trkpt lat="50.72991" lon="2.75445">
        <ele>25.61</ele>
        <time>2021-08-07T10:49:57Z</time>
      </trkpt>
      <trkpt lat="50.72963" lon="2.75455">
        <ele>25.61</ele>
        <time>2021-08-07T10:50:04Z</time>
      </trkpt>
      <trkpt lat="50.72959" lon="2.75456">
        <ele>25.61</ele>
        <time>2021-08-07T10:50:05Z</time>
      </trkpt>
      <trkpt lat="50.72954" lon="2.75458">
        <ele>25.61</ele>
        <time>2021-08-07T10:50:06Z</time>
      </trkpt>
      <trkpt lat="50.72938" lon="2.75463">
        <ele>26.09</ele>
        <time>2021-08-07T10:50:11Z</time>
      </trkpt>
      <trkpt lat="50.72924" lon="2.75468">
        <ele>27.05</ele>
        <time>2021-08-07T10:50:17Z</time>
      </trkpt>
      <trkpt lat="50.72903" lon="2.75474">
        <ele>24.65</ele>
        <time>2021-08-07T10:50:22Z</time>
      </trkpt>
      <trkpt lat="50.72887" lon="2.75481">
        <ele>23.69</ele>
        <time>2021-08-07T10:50:26Z</time>
      </trkpt>
      <trkpt lat="50.72885" lon="2.75486">
        <ele>23.69</ele>
        <time>2021-08-07T10:50:27Z</time>
      </trkpt>
      <trkpt lat="50.72885" lon="2.75492">
        <ele>23.69</ele>
        <time>2021-08-07T10:50:28Z</time>
      </trkpt>
      <trkpt lat="50.72886" lon="2.75496">
        <ele>23.69</ele>
        <time>2021-08-07T10:50:29Z</time>
      </trkpt>
      <trkpt lat="50.72887" lon="2.75501">
        <ele>23.69</ele>
        <time>2021-08-07T10:50:30Z</time>
      </trkpt>
      <trkpt lat="50.72887" lon="2.75504">
        <ele>23.69</ele>
        <time>2021-08-07T10:50:31Z</time>
      </trkpt>
      <trkpt lat="50.72888" lon="2.75508">
        <ele>23.69</ele>
        <time>2021-08-07T10:50:32Z</time>
      </trkpt>
      <trkpt lat="50.72889" lon="2.75512">
        <ele>23.69</ele>
        <time>2021-08-07T10:50:33Z</time>
      </trkpt>
      <trkpt lat="50.72893" lon="2.75539">
        <ele>23.69</ele>
        <time>2021-08-07T10:50:40Z</time>
      </trkpt>
      <trkpt lat="50.72896" lon="2.75559">
        <ele>23.69</ele>
        <time>2021-08-07T10:50:47Z</time>
      </trkpt>
      <trkpt lat="50.72898" lon="2.75563">
        <ele>23.69</ele>
        <time>2021-08-07T10:50:49Z</time>
      </trkpt>
      <trkpt lat="50.72898" lon="2.75566">
        <ele>23.69</ele>
        <time>2021-08-07T10:50:50Z</time>
      </trkpt>
      <trkpt lat="50.72901" lon="2.75595">
        <ele>23.69</ele>
        <time>2021-08-07T10:50:57Z</time>
      </trkpt>
      <trkpt lat="50.72909" lon="2.75631">
        <ele>23.69</ele>
        <time>2021-08-07T10:51:04Z</time>
      </trkpt>
      <trkpt lat="50.72918" lon="2.75675">
        <ele>23.69</ele>
        <time>2021-08-07T10:51:12Z</time>
      </trkpt>
      <trkpt lat="50.72924" lon="2.75702">
        <ele>23.69</ele>
        <time>2021-08-07T10:51:17Z</time>
      </trkpt>
      <trkpt lat="50.72933" lon="2.75739">
        <ele>23.69</ele>
        <time>2021-08-07T10:51:24Z</time>
      </trkpt>
      <trkpt lat="50.72938" lon="2.75757">
        <ele>23.69</ele>
        <time>2021-08-07T10:51:29Z</time>
      </trkpt>
      <trkpt lat="50.7294" lon="2.75763">
        <ele>23.69</ele>
        <time>2021-08-07T10:51:31Z</time>
      </trkpt>
      <trkpt lat="50.7294" lon="2.75767">
        <ele>23.69</ele>
        <time>2021-08-07T10:51:32Z</time>
      </trkpt>
      <trkpt lat="50.7294" lon="2.7577">
        <ele>23.69</ele>
        <time>2021-08-07T10:51:33Z</time>
      </trkpt>
      <trkpt lat="50.72941" lon="2.75775">
        <ele>23.69</ele>
        <time>2021-08-07T10:51:34Z</time>
      </trkpt>
      <trkpt lat="50.72941" lon="2.7578">
        <ele>23.69</ele>
        <time>2021-08-07T10:51:35Z</time>
      </trkpt>
      <trkpt lat="50.72942" lon="2.75785">
        <ele>23.69</ele>
        <time>2021-08-07T10:51:36Z</time>
      </trkpt>
      <trkpt lat="50.72943" lon="2.75788">
        <ele>23.69</ele>
        <time>2021-08-07T10:51:37Z</time>
      </trkpt>
      <trkpt lat="50.72944" lon="2.75792">
        <ele>23.69</ele>
        <time>2021-08-07T10:51:38Z</time>
      </trkpt>
      <trkpt lat="50.72945" lon="2.75795">
        <ele>23.69</ele>
        <time>2021-08-07T10:51:39Z</time>
      </trkpt>
      <trkpt lat="50.7295" lon="2.75819">
        <ele>23.69</ele>
        <time>2021-08-07T10:51:45Z</time>
      </trkpt>
      <trkpt lat="50.72954" lon="2.75839">
        <ele>23.69</ele>
        <time>2021-08-07T10:51:52Z</time>
      </trkpt>
      <trkpt lat="50.72955" lon="2.75842">
        <ele>23.69</ele>
        <time>2021-08-07T10:51:53Z</time>
      </trkpt>
      <trkpt lat="50.72955" lon="2.75844">
        <ele>23.69</ele>
        <time>2021-08-07T10:51:54Z</time>
      </trkpt>
      <trkpt lat="50.7296" lon="2.75868">
        <ele>23.69</ele>
        <time>2021-08-07T10:52:00Z</time>
      </trkpt>
      <trkpt lat="50.72965" lon="2.75896">
        <ele>23.69</ele>
        <time>2021-08-07T10:52:06Z</time>
      </trkpt>
      <trkpt lat="50.72969" lon="2.75908">
        <ele>23.69</ele>
        <time>2021-08-07T10:52:10Z</time>
      </trkpt>
      <trkpt lat="50.72969" lon="2.7591">
        <ele>23.69</ele>
        <time>2021-08-07T10:52:11Z</time>
      </trkpt>
      <trkpt lat="50.72969" lon="2.75913">
        <ele>23.69</ele>
        <time>2021-08-07T10:52:12Z</time>
      </trkpt>
      <trkpt lat="50.7297" lon="2.75916">
        <ele>23.69</ele>
        <time>2021-08-07T10:52:13Z</time>
      </trkpt>
      <trkpt lat="50.7297" lon="2.75919">
        <ele>23.69</ele>
        <time>2021-08-07T10:52:14Z</time>
      </trkpt>
      <trkpt lat="50.72971" lon="2.75922">
        <ele>23.69</ele>
        <time>2021-08-07T10:52:15Z</time>
      </trkpt>
      <trkpt lat="50.72972" lon="2.75925">
        <ele>23.69</ele>
        <time>2021-08-07T10:52:16Z</time>
      </trkpt>
      <trkpt lat="50.72972" lon="2.75927">
        <ele>23.69</ele>
        <time>2021-08-07T10:52:17Z</time>
      </trkpt>
      <trkpt lat="50.72973" lon="2.75931">
        <ele>23.69</ele>
        <time>2021-08-07T10:52:18Z</time>
      </trkpt>
      <trkpt lat="50.72977" lon="2.75946">
        <ele>23.69</ele>
        <time>2021-08-07T10:52:23Z</time>
      </trkpt>
      <trkpt lat="50.72982" lon="2.7597">
        <ele>23.69</ele>
        <time>2021-08-07T10:52:31Z</time>
      </trkpt>
      <trkpt lat="50.72983" lon="2.75973">
        <ele>23.69</ele>
        <time>2021-08-07T10:52:32Z</time>
      </trkpt>
      <trkpt lat="50.72985" lon="2.7598">
        <ele>23.69</ele>
        <time>2021-08-07T10:52:38Z</time>
      </trkpt>
      <trkpt lat="50.72986" lon="2.75985">
        <ele>23.69</ele>
        <time>2021-08-07T10:52:44Z</time>
      </trkpt>
      <trkpt lat="50.72989" lon="2.75997">
        <ele>23.69</ele>
        <time>2021-08-07T10:52:50Z</time>
      </trkpt>
      <trkpt lat="50.72992" lon="2.76009">
        <ele>24.65</ele>
        <time>2021-08-07T10:52:56Z</time>
      </trkpt>
      <trkpt lat="50.72993" lon="2.76011">
        <ele>24.65</ele>
        <time>2021-08-07T10:52:57Z</time>
      </trkpt>
      <trkpt lat="50.72994" lon="2.76013">
        <ele>24.65</ele>
        <time>2021-08-07T10:52:58Z</time>
      </trkpt>
      <trkpt lat="50.72997" lon="2.76033">
        <ele>24.65</ele>
        <time>2021-08-07T10:53:05Z</time>
      </trkpt>
      <trkpt lat="50.72999" lon="2.76037">
        <ele>24.65</ele>
        <time>2021-08-07T10:53:10Z</time>
      </trkpt>
      <trkpt lat="50.73001" lon="2.7604">
        <ele>24.65</ele>
        <time>2021-08-07T10:53:22Z</time>
      </trkpt>
      <trkpt lat="50.73004" lon="2.76047">
        <ele>24.65</ele>
        <time>2021-08-07T10:53:33Z</time>
      </trkpt>
      <trkpt lat="50.73007" lon="2.76061">
        <ele>24.65</ele>
        <time>2021-08-07T10:53:40Z</time>
      </trkpt>
      <trkpt lat="50.73009" lon="2.7607">
        <ele>23.69</ele>
        <time>2021-08-07T10:53:44Z</time>
      </trkpt>
      <trkpt lat="50.7301" lon="2.76072">
        <ele>23.69</ele>
        <time>2021-08-07T10:53:45Z</time>
      </trkpt>
      <trkpt lat="50.7301" lon="2.76075">
        <ele>22.73</ele>
        <time>2021-08-07T10:53:46Z</time>
      </trkpt>
      <trkpt lat="50.7301" lon="2.76078">
        <ele>22.73</ele>
        <time>2021-08-07T10:53:47Z</time>
      </trkpt>
      <trkpt lat="50.7301" lon="2.76081">
        <ele>22.73</ele>
        <time>2021-08-07T10:53:48Z</time>
      </trkpt>
      <trkpt lat="50.73011" lon="2.76083">
        <ele>22.73</ele>
        <time>2021-08-07T10:53:49Z</time>
      </trkpt>
      <trkpt lat="50.73016" lon="2.76106">
        <ele>22.73</ele>
        <time>2021-08-07T10:53:56Z</time>
      </trkpt>
      <trkpt lat="50.73017" lon="2.76108">
        <ele>22.73</ele>
        <time>2021-08-07T10:53:57Z</time>
      </trkpt>
      <trkpt lat="50.73017" lon="2.76113">
        <ele>22.73</ele>
        <time>2021-08-07T10:53:59Z</time>
      </trkpt>
      <trkpt lat="50.73018" lon="2.76126">
        <ele>24.65</ele>
        <time>2021-08-07T10:54:06Z</time>
      </trkpt>
      <trkpt lat="50.73024" lon="2.76152">
        <ele>24.17</ele>
        <time>2021-08-07T10:54:14Z</time>
      </trkpt>
      <trkpt lat="50.73024" lon="2.76154">
        <ele>24.17</ele>
        <time>2021-08-07T10:54:15Z</time>
      </trkpt>
      <trkpt lat="50.73024" lon="2.76157">
        <ele>24.17</ele>
        <time>2021-08-07T10:54:16Z</time>
      </trkpt>
      <trkpt lat="50.73024" lon="2.7616">
        <ele>24.17</ele>
        <time>2021-08-07T10:54:17Z</time>
      </trkpt>
      <trkpt lat="50.73024" lon="2.76163">
        <ele>24.17</ele>
        <time>2021-08-07T10:54:18Z</time>
      </trkpt>
      <trkpt lat="50.73031" lon="2.76185">
        <ele>25.13</ele>
        <time>2021-08-07T10:54:25Z</time>
      </trkpt>
      <trkpt lat="50.73031" lon="2.76189">
        <ele>25.13</ele>
        <time>2021-08-07T10:54:26Z</time>
      </trkpt>
      <trkpt lat="50.7303" lon="2.76233">
        <ele>25.13</ele>
        <time>2021-08-07T10:54:34Z</time>
      </trkpt>
      <trkpt lat="50.73024" lon="2.76265">
        <ele>25.61</ele>
        <time>2021-08-07T10:54:39Z</time>
      </trkpt>
      <trkpt lat="50.73017" lon="2.76312">
        <ele>24.17</ele>
        <time>2021-08-07T10:54:46Z</time>
      </trkpt>
      <trkpt lat="50.73016" lon="2.76318">
        <ele>23.21</ele>
        <time>2021-08-07T10:54:47Z</time>
      </trkpt>
      <trkpt lat="50.73007" lon="2.76364">
        <ele>23.21</ele>
        <time>2021-08-07T10:54:55Z</time>
      </trkpt>
      <trkpt lat="50.73" lon="2.76418">
        <ele>23.21</ele>
        <time>2021-08-07T10:55:04Z</time>
      </trkpt>
      <trkpt lat="50.72992" lon="2.76461">
        <ele>23.21</ele>
        <time>2021-08-07T10:55:12Z</time>
      </trkpt>
      <trkpt lat="50.72991" lon="2.76467">
        <ele>23.21</ele>
        <time>2021-08-07T10:55:13Z</time>
      </trkpt>
      <trkpt lat="50.72981" lon="2.76526">
        <ele>23.21</ele>
        <time>2021-08-07T10:55:22Z</time>
      </trkpt>
      <trkpt lat="50.72969" lon="2.76587">
        <ele>22.73</ele>
        <time>2021-08-07T10:55:31Z</time>
      </trkpt>
      <trkpt lat="50.72962" lon="2.76622">
        <ele>24.17</ele>
        <time>2021-08-07T10:55:36Z</time>
      </trkpt>
      <trkpt lat="50.72959" lon="2.76637">
        <ele>22.73</ele>
        <time>2021-08-07T10:55:38Z</time>
      </trkpt>
      <trkpt lat="50.72946" lon="2.76693">
        <ele>22.73</ele>
        <time>2021-08-07T10:55:46Z</time>
      </trkpt>
      <trkpt lat="50.72944" lon="2.767">
        <ele>22.73</ele>
        <time>2021-08-07T10:55:47Z</time>
      </trkpt>
      <trkpt lat="50.72943" lon="2.76706">
        <ele>22.73</ele>
        <time>2021-08-07T10:55:48Z</time>
      </trkpt>
      <trkpt lat="50.72942" lon="2.76712">
        <ele>22.73</ele>
        <time>2021-08-07T10:55:49Z</time>
      </trkpt>
      <trkpt lat="50.72941" lon="2.76719">
        <ele>22.73</ele>
        <time>2021-08-07T10:55:50Z</time>
      </trkpt>
      <trkpt lat="50.7294" lon="2.76725">
        <ele>22.73</ele>
        <time>2021-08-07T10:55:51Z</time>
      </trkpt>
      <trkpt lat="50.72937" lon="2.76739">
        <ele>22.73</ele>
        <time>2021-08-07T10:55:53Z</time>
      </trkpt>
      <trkpt lat="50.72936" lon="2.76744">
        <ele>22.73</ele>
        <time>2021-08-07T10:55:54Z</time>
      </trkpt>
      <trkpt lat="50.72934" lon="2.76751">
        <ele>22.73</ele>
        <time>2021-08-07T10:55:55Z</time>
      </trkpt>
      <trkpt lat="50.72933" lon="2.76757">
        <ele>22.73</ele>
        <time>2021-08-07T10:55:56Z</time>
      </trkpt>
      <trkpt lat="50.72932" lon="2.76763">
        <ele>22.73</ele>
        <time>2021-08-07T10:55:57Z</time>
      </trkpt>
      <trkpt lat="50.72931" lon="2.76768">
        <ele>22.73</ele>
        <time>2021-08-07T10:55:58Z</time>
      </trkpt>
      <trkpt lat="50.7293" lon="2.76775">
        <ele>22.73</ele>
        <time>2021-08-07T10:55:59Z</time>
      </trkpt>
      <trkpt lat="50.72928" lon="2.76781">
        <ele>22.73</ele>
        <time>2021-08-07T10:56:00Z</time>
      </trkpt>
      <trkpt lat="50.72925" lon="2.76793">
        <ele>22.73</ele>
        <time>2021-08-07T10:56:02Z</time>
      </trkpt>
      <trkpt lat="50.72922" lon="2.76827">
        <ele>24.17</ele>
        <time>2021-08-07T10:56:08Z</time>
      </trkpt>
      <trkpt lat="50.72919" lon="2.76845">
        <ele>24.17</ele>
        <time>2021-08-07T10:56:11Z</time>
      </trkpt>
      <trkpt lat="50.72917" lon="2.76851">
        <ele>24.17</ele>
        <time>2021-08-07T10:56:12Z</time>
      </trkpt>
      <trkpt lat="50.72916" lon="2.76856">
        <ele>24.17</ele>
        <time>2021-08-07T10:56:13Z</time>
      </trkpt>
      <trkpt lat="50.72915" lon="2.76862">
        <ele>24.17</ele>
        <time>2021-08-07T10:56:14Z</time>
      </trkpt>
      <trkpt lat="50.72914" lon="2.76869">
        <ele>24.17</ele>
        <time>2021-08-07T10:56:15Z</time>
      </trkpt>
      <trkpt lat="50.72913" lon="2.76875">
        <ele>24.17</ele>
        <time>2021-08-07T10:56:16Z</time>
      </trkpt>
      <trkpt lat="50.72912" lon="2.76882">
        <ele>24.17</ele>
        <time>2021-08-07T10:56:17Z</time>
      </trkpt>
      <trkpt lat="50.72905" lon="2.76914">
        <ele>22.73</ele>
        <time>2021-08-07T10:56:22Z</time>
      </trkpt>
      <trkpt lat="50.72903" lon="2.76932">
        <ele>22.73</ele>
        <time>2021-08-07T10:56:25Z</time>
      </trkpt>
      <trkpt lat="50.729" lon="2.76945">
        <ele>22.73</ele>
        <time>2021-08-07T10:56:27Z</time>
      </trkpt>
      <trkpt lat="50.72898" lon="2.76951">
        <ele>22.73</ele>
        <time>2021-08-07T10:56:28Z</time>
      </trkpt>
      <trkpt lat="50.72896" lon="2.76958">
        <ele>22.73</ele>
        <time>2021-08-07T10:56:29Z</time>
      </trkpt>
      <trkpt lat="50.72895" lon="2.76964">
        <ele>22.73</ele>
        <time>2021-08-07T10:56:30Z</time>
      </trkpt>
      <trkpt lat="50.72894" lon="2.7697">
        <ele>22.73</ele>
        <time>2021-08-07T10:56:31Z</time>
      </trkpt>
      <trkpt lat="50.72883" lon="2.77039">
        <ele>22.73</ele>
        <time>2021-08-07T10:56:41Z</time>
      </trkpt>
      <trkpt lat="50.72877" lon="2.77069">
        <ele>24.17</ele>
        <time>2021-08-07T10:56:45Z</time>
      </trkpt>
      <trkpt lat="50.72863" lon="2.77147">
        <ele>24.17</ele>
        <time>2021-08-07T10:56:56Z</time>
      </trkpt>
      <trkpt lat="50.72858" lon="2.77165">
        <ele>24.17</ele>
        <time>2021-08-07T10:56:59Z</time>
      </trkpt>
      <trkpt lat="50.72855" lon="2.77171">
        <ele>24.17</ele>
        <time>2021-08-07T10:57:00Z</time>
      </trkpt>
      <trkpt lat="50.72851" lon="2.77175">
        <ele>24.17</ele>
        <time>2021-08-07T10:57:01Z</time>
      </trkpt>
      <trkpt lat="50.72848" lon="2.77179">
        <ele>24.17</ele>
        <time>2021-08-07T10:57:02Z</time>
      </trkpt>
      <trkpt lat="50.72845" lon="2.77181">
        <ele>24.17</ele>
        <time>2021-08-07T10:57:03Z</time>
      </trkpt>
      <trkpt lat="50.72843" lon="2.77183">
        <ele>24.17</ele>
        <time>2021-08-07T10:57:04Z</time>
      </trkpt>
      <trkpt lat="50.72841" lon="2.77184">
        <ele>25.13</ele>
        <time>2021-08-07T10:57:05Z</time>
      </trkpt>
      <trkpt lat="50.7284" lon="2.77185">
        <ele>25.13</ele>
        <time>2021-08-07T10:57:06Z</time>
      </trkpt>
      <trkpt lat="50.72839" lon="2.77185">
        <ele>25.13</ele>
        <time>2021-08-07T10:57:07Z</time>
      </trkpt>
      <trkpt lat="50.72838" lon="2.77187">
        <ele>25.13</ele>
        <time>2021-08-07T10:57:08Z</time>
      </trkpt>
      <trkpt lat="50.7284" lon="2.77189">
        <ele>25.13</ele>
        <time>2021-08-07T10:57:09Z</time>
      </trkpt>
      <trkpt lat="50.72841" lon="2.77189">
        <ele>25.13</ele>
        <time>2021-08-07T10:57:10Z</time>
      </trkpt>
      <trkpt lat="50.72843" lon="2.77186">
        <ele>25.13</ele>
        <time>2021-08-07T10:57:11Z</time>
      </trkpt>
      <trkpt lat="50.72845" lon="2.77181">
        <ele>25.13</ele>
        <time>2021-08-07T10:57:12Z</time>
      </trkpt>
      <trkpt lat="50.72846" lon="2.77178">
        <ele>25.13</ele>
        <time>2021-08-07T10:57:13Z</time>
      </trkpt>
      <trkpt lat="50.72847" lon="2.77173">
        <ele>25.13</ele>
        <time>2021-08-07T10:57:14Z</time>
      </trkpt>
      <trkpt lat="50.72848" lon="2.77168">
        <ele>25.13</ele>
        <time>2021-08-07T10:57:15Z</time>
      </trkpt>
      <trkpt lat="50.72849" lon="2.77163">
        <ele>25.13</ele>
        <time>2021-08-07T10:57:16Z</time>
      </trkpt>
      <trkpt lat="50.72852" lon="2.77142">
        <ele>25.13</ele>
        <time>2021-08-07T10:57:23Z</time>
      </trkpt>
      <trkpt lat="50.72851" lon="2.77139">
        <ele>25.13</ele>
        <time>2021-08-07T10:57:26Z</time>
      </trkpt>
      <trkpt lat="50.72847" lon="2.77138">
        <ele>25.13</ele>
        <time>2021-08-07T10:57:29Z</time>
      </trkpt>
      <trkpt lat="50.7285" lon="2.77143">
        <ele>25.13</ele>
        <time>2021-08-07T10:57:34Z</time>
      </trkpt>
      <trkpt lat="50.72852" lon="2.77141">
        <ele>25.13</ele>
        <time>2021-08-07T10:57:35Z</time>
      </trkpt>
      <trkpt lat="50.72857" lon="2.7714">
        <ele>25.13</ele>
        <time>2021-08-07T10:57:41Z</time>
      </trkpt>
      <trkpt lat="50.72858" lon="2.77142">
        <ele>24.17</ele>
        <time>2021-08-07T10:57:46Z</time>
      </trkpt>
      <trkpt lat="50.72859" lon="2.77144">
        <ele>24.17</ele>
        <time>2021-08-07T10:57:55Z</time>
      </trkpt>
      <trkpt lat="50.72859" lon="2.77143">
        <ele>24.17</ele>
        <time>2021-08-07T10:58:05Z</time>
      </trkpt>
      <trkpt lat="50.7286" lon="2.7714">
        <ele>24.17</ele>
        <time>2021-08-07T10:58:20Z</time>
      </trkpt>
      <trkpt lat="50.72859" lon="2.7714">
        <ele>24.17</ele>
        <time>2021-08-07T10:58:35Z</time>
      </trkpt>
      <trkpt lat="50.72859" lon="2.77142">
        <ele>24.17</ele>
        <time>2021-08-07T10:58:47Z</time>
      </trkpt>
      <trkpt lat="50.72854" lon="2.77146">
        <ele>23.69</ele>
        <time>2021-08-07T10:58:55Z</time>
      </trkpt>
      <trkpt lat="50.72853" lon="2.77147">
        <ele>24.17</ele>
        <time>2021-08-07T10:58:59Z</time>
      </trkpt>
      <trkpt lat="50.72849" lon="2.77157">
        <ele>23.69</ele>
        <time>2021-08-07T10:59:04Z</time>
      </trkpt>
      <trkpt lat="50.72849" lon="2.77161">
        <ele>23.69</ele>
        <time>2021-08-07T10:59:05Z</time>
      </trkpt>
      <trkpt lat="50.72848" lon="2.77166">
        <ele>24.17</ele>
        <time>2021-08-07T10:59:06Z</time>
      </trkpt>
      <trkpt lat="50.72848" lon="2.77172">
        <ele>23.69</ele>
        <time>2021-08-07T10:59:07Z</time>
      </trkpt>
      <trkpt lat="50.72846" lon="2.77177">
        <ele>23.69</ele>
        <time>2021-08-07T10:59:08Z</time>
      </trkpt>
      <trkpt lat="50.72844" lon="2.77182">
        <ele>23.69</ele>
        <time>2021-08-07T10:59:09Z</time>
      </trkpt>
      <trkpt lat="50.72842" lon="2.77184">
        <ele>23.69</ele>
        <time>2021-08-07T10:59:10Z</time>
      </trkpt>
      <trkpt lat="50.7284" lon="2.77186">
        <ele>25.13</ele>
        <time>2021-08-07T10:59:11Z</time>
      </trkpt>
      <trkpt lat="50.72839" lon="2.77186">
        <ele>25.13</ele>
        <time>2021-08-07T10:59:12Z</time>
      </trkpt>
      <trkpt lat="50.72835" lon="2.77189">
        <ele>25.61</ele>
        <time>2021-08-07T10:59:16Z</time>
      </trkpt>
      <trkpt lat="50.72833" lon="2.77192">
        <ele>25.61</ele>
        <time>2021-08-07T10:59:17Z</time>
      </trkpt>
      <trkpt lat="50.72831" lon="2.77198">
        <ele>25.61</ele>
        <time>2021-08-07T10:59:18Z</time>
      </trkpt>
      <trkpt lat="50.72831" lon="2.77204">
        <ele>25.61</ele>
        <time>2021-08-07T10:59:19Z</time>
      </trkpt>
      <trkpt lat="50.7283" lon="2.7721">
        <ele>25.61</ele>
        <time>2021-08-07T10:59:20Z</time>
      </trkpt>
      <trkpt lat="50.72831" lon="2.77217">
        <ele>25.61</ele>
        <time>2021-08-07T10:59:21Z</time>
      </trkpt>
      <trkpt lat="50.72831" lon="2.7724">
        <ele>25.61</ele>
        <time>2021-08-07T10:59:24Z</time>
      </trkpt>
      <trkpt lat="50.7283" lon="2.77256">
        <ele>24.17</ele>
        <time>2021-08-07T10:59:26Z</time>
      </trkpt>
      <trkpt lat="50.72826" lon="2.77273">
        <ele>24.17</ele>
        <time>2021-08-07T10:59:29Z</time>
      </trkpt>
      <trkpt lat="50.72823" lon="2.77272">
        <ele>23.69</ele>
        <time>2021-08-07T10:59:30Z</time>
      </trkpt>
      <trkpt lat="50.72819" lon="2.77269">
        <ele>23.69</ele>
        <time>2021-08-07T10:59:31Z</time>
      </trkpt>
      <trkpt lat="50.72789" lon="2.77237">
        <ele>22.73</ele>
        <time>2021-08-07T10:59:39Z</time>
      </trkpt>
      <trkpt lat="50.72781" lon="2.77228">
        <ele>24.17</ele>
        <time>2021-08-07T10:59:41Z</time>
      </trkpt>
      <trkpt lat="50.7276" lon="2.77205">
        <ele>24.17</ele>
        <time>2021-08-07T10:59:46Z</time>
      </trkpt>
      <trkpt lat="50.72725" lon="2.77169">
        <ele>24.17</ele>
        <time>2021-08-07T10:59:54Z</time>
      </trkpt>
      <trkpt lat="50.72686" lon="2.77129">
        <ele>24.17</ele>
        <time>2021-08-07T11:00:03Z</time>
      </trkpt>
      <trkpt lat="50.72653" lon="2.77074">
        <ele>24.17</ele>
        <time>2021-08-07T11:00:12Z</time>
      </trkpt>
      <trkpt lat="50.72634" lon="2.77048">
        <ele>22.73</ele>
        <time>2021-08-07T11:00:17Z</time>
      </trkpt>
      <trkpt lat="50.72629" lon="2.77047">
        <ele>22.73</ele>
        <time>2021-08-07T11:00:18Z</time>
      </trkpt>
      <trkpt lat="50.72625" lon="2.77049">
        <ele>22.73</ele>
        <time>2021-08-07T11:00:19Z</time>
      </trkpt>
      <trkpt lat="50.72621" lon="2.77053">
        <ele>22.73</ele>
        <time>2021-08-07T11:00:20Z</time>
      </trkpt>
      <trkpt lat="50.72617" lon="2.77059">
        <ele>22.25</ele>
        <time>2021-08-07T11:00:21Z</time>
      </trkpt>
      <trkpt lat="50.72613" lon="2.77064">
        <ele>22.25</ele>
        <time>2021-08-07T11:00:22Z</time>
      </trkpt>
      <trkpt lat="50.72606" lon="2.77076">
        <ele>24.17</ele>
        <time>2021-08-07T11:00:24Z</time>
      </trkpt>
      <trkpt lat="50.7257" lon="2.77125">
        <ele>22.25</ele>
        <time>2021-08-07T11:00:33Z</time>
      </trkpt>
      <trkpt lat="50.72529" lon="2.77174">
        <ele>22.25</ele>
        <time>2021-08-07T11:00:43Z</time>
      </trkpt>
      <trkpt lat="50.72494" lon="2.77198">
        <ele>22.25</ele>
        <time>2021-08-07T11:00:51Z</time>
      </trkpt>
      <trkpt lat="50.72485" lon="2.77203">
        <ele>23.21</ele>
        <time>2021-08-07T11:00:53Z</time>
      </trkpt>
      <trkpt lat="50.72451" lon="2.77221">
        <ele>22.25</ele>
        <time>2021-08-07T11:01:01Z</time>
      </trkpt>
      <trkpt lat="50.72442" lon="2.77226">
        <ele>22.25</ele>
        <time>2021-08-07T11:01:03Z</time>
      </trkpt>
      <trkpt lat="50.72392" lon="2.77261">
        <ele>21.77</ele>
        <time>2021-08-07T11:01:14Z</time>
      </trkpt>
      <trkpt lat="50.72341" lon="2.77298">
        <ele>21.77</ele>
        <time>2021-08-07T11:01:25Z</time>
      </trkpt>
      <trkpt lat="50.72303" lon="2.77325">
        <ele>22.73</ele>
        <time>2021-08-07T11:01:33Z</time>
      </trkpt>
      <trkpt lat="50.72299" lon="2.77329">
        <ele>22.73</ele>
        <time>2021-08-07T11:01:34Z</time>
      </trkpt>
      <trkpt lat="50.7225" lon="2.77363">
        <ele>22.73</ele>
        <time>2021-08-07T11:01:44Z</time>
      </trkpt>
      <trkpt lat="50.72203" lon="2.77397">
        <ele>22.73</ele>
        <time>2021-08-07T11:01:54Z</time>
      </trkpt>
      <trkpt lat="50.72151" lon="2.77433">
        <ele>22.73</ele>
        <time>2021-08-07T11:02:05Z</time>
      </trkpt>
      <trkpt lat="50.72142" lon="2.77439">
        <ele>22.73</ele>
        <time>2021-08-07T11:02:07Z</time>
      </trkpt>
      <trkpt lat="50.72137" lon="2.7744">
        <ele>22.73</ele>
        <time>2021-08-07T11:02:08Z</time>
      </trkpt>
      <trkpt lat="50.72132" lon="2.7744">
        <ele>22.73</ele>
        <time>2021-08-07T11:02:09Z</time>
      </trkpt>
      <trkpt lat="50.72127" lon="2.7744">
        <ele>22.73</ele>
        <time>2021-08-07T11:02:10Z</time>
      </trkpt>
      <trkpt lat="50.72122" lon="2.77439">
        <ele>22.73</ele>
        <time>2021-08-07T11:02:11Z</time>
      </trkpt>
      <trkpt lat="50.72081" lon="2.77431">
        <ele>22.73</ele>
        <time>2021-08-07T11:02:19Z</time>
      </trkpt>
      <trkpt lat="50.72046" lon="2.77425">
        <ele>22.73</ele>
        <time>2021-08-07T11:02:26Z</time>
      </trkpt>
      <trkpt lat="50.72029" lon="2.77422">
        <ele>23.21</ele>
        <time>2021-08-07T11:02:30Z</time>
      </trkpt>
      <trkpt lat="50.72025" lon="2.77423">
        <ele>23.21</ele>
        <time>2021-08-07T11:02:31Z</time>
      </trkpt>
      <trkpt lat="50.72022" lon="2.77426">
        <ele>23.21</ele>
        <time>2021-08-07T11:02:32Z</time>
      </trkpt>
      <trkpt lat="50.7202" lon="2.7743">
        <ele>23.21</ele>
        <time>2021-08-07T11:02:33Z</time>
      </trkpt>
      <trkpt lat="50.72019" lon="2.77436">
        <ele>23.21</ele>
        <time>2021-08-07T11:02:34Z</time>
      </trkpt>
      <trkpt lat="50.72018" lon="2.77442">
        <ele>23.21</ele>
        <time>2021-08-07T11:02:35Z</time>
      </trkpt>
      <trkpt lat="50.72018" lon="2.77449">
        <ele>23.21</ele>
        <time>2021-08-07T11:02:36Z</time>
      </trkpt>
      <trkpt lat="50.72015" lon="2.77505">
        <ele>23.21</ele>
        <time>2021-08-07T11:02:44Z</time>
      </trkpt>
      <trkpt lat="50.72012" lon="2.77565">
        <ele>23.69</ele>
        <time>2021-08-07T11:02:52Z</time>
      </trkpt>
      <trkpt lat="50.72012" lon="2.77572">
        <ele>23.69</ele>
        <time>2021-08-07T11:02:53Z</time>
      </trkpt>
      <trkpt lat="50.72009" lon="2.77604">
        <ele>23.69</ele>
        <time>2021-08-07T11:02:57Z</time>
      </trkpt>
      <trkpt lat="50.72008" lon="2.7761">
        <ele>23.69</ele>
        <time>2021-08-07T11:02:58Z</time>
      </trkpt>
      <trkpt lat="50.72006" lon="2.77616">
        <ele>22.25</ele>
        <time>2021-08-07T11:02:59Z</time>
      </trkpt>
      <trkpt lat="50.72002" lon="2.77621">
        <ele>22.25</ele>
        <time>2021-08-07T11:03:00Z</time>
      </trkpt>
      <trkpt lat="50.71997" lon="2.77624">
        <ele>21.77</ele>
        <time>2021-08-07T11:03:01Z</time>
      </trkpt>
      <trkpt lat="50.71992" lon="2.77627">
        <ele>21.77</ele>
        <time>2021-08-07T11:03:02Z</time>
      </trkpt>
      <trkpt lat="50.71987" lon="2.77628">
        <ele>21.77</ele>
        <time>2021-08-07T11:03:03Z</time>
      </trkpt>
      <trkpt lat="50.71982" lon="2.77629">
        <ele>21.77</ele>
        <time>2021-08-07T11:03:04Z</time>
      </trkpt>
      <trkpt lat="50.71977" lon="2.77632">
        <ele>21.77</ele>
        <time>2021-08-07T11:03:05Z</time>
      </trkpt>
      <trkpt lat="50.71972" lon="2.77635">
        <ele>21.77</ele>
        <time>2021-08-07T11:03:06Z</time>
      </trkpt>
      <trkpt lat="50.71968" lon="2.7764">
        <ele>21.77</ele>
        <time>2021-08-07T11:03:07Z</time>
      </trkpt>
      <trkpt lat="50.71964" lon="2.77646">
        <ele>23.21</ele>
        <time>2021-08-07T11:03:08Z</time>
      </trkpt>
      <trkpt lat="50.71962" lon="2.77654">
        <ele>23.21</ele>
        <time>2021-08-07T11:03:09Z</time>
      </trkpt>
      <trkpt lat="50.7196" lon="2.77661">
        <ele>23.21</ele>
        <time>2021-08-07T11:03:10Z</time>
      </trkpt>
      <trkpt lat="50.71959" lon="2.7767">
        <ele>23.69</ele>
        <time>2021-08-07T11:03:11Z</time>
      </trkpt>
      <trkpt lat="50.71958" lon="2.77678">
        <ele>23.69</ele>
        <time>2021-08-07T11:03:12Z</time>
      </trkpt>
      <trkpt lat="50.71952" lon="2.77746">
        <ele>23.69</ele>
        <time>2021-08-07T11:03:20Z</time>
      </trkpt>
      <trkpt lat="50.71948" lon="2.77797">
        <ele>23.69</ele>
        <time>2021-08-07T11:03:26Z</time>
      </trkpt>
      <trkpt lat="50.71947" lon="2.77868">
        <ele>22.25</ele>
        <time>2021-08-07T11:03:34Z</time>
      </trkpt>
      <trkpt lat="50.71946" lon="2.7793">
        <ele>23.21</ele>
        <time>2021-08-07T11:03:41Z</time>
      </trkpt>
      <trkpt lat="50.7194" lon="2.78025">
        <ele>23.21</ele>
        <time>2021-08-07T11:03:52Z</time>
      </trkpt>
      <trkpt lat="50.71937" lon="2.78051">
        <ele>23.21</ele>
        <time>2021-08-07T11:03:55Z</time>
      </trkpt>
      <trkpt lat="50.71933" lon="2.78128">
        <ele>23.69</ele>
        <time>2021-08-07T11:04:04Z</time>
      </trkpt>
      <trkpt lat="50.71933" lon="2.78238">
        <ele>23.69</ele>
        <time>2021-08-07T11:04:16Z</time>
      </trkpt>
      <trkpt lat="50.71935" lon="2.78306">
        <ele>23.69</ele>
        <time>2021-08-07T11:04:24Z</time>
      </trkpt>
      <trkpt lat="50.71934" lon="2.78321">
        <ele>23.69</ele>
        <time>2021-08-07T11:04:26Z</time>
      </trkpt>
      <trkpt lat="50.71931" lon="2.78329">
        <ele>23.69</ele>
        <time>2021-08-07T11:04:27Z</time>
      </trkpt>
      <trkpt lat="50.71928" lon="2.78334">
        <ele>23.69</ele>
        <time>2021-08-07T11:04:28Z</time>
      </trkpt>
      <trkpt lat="50.71923" lon="2.78338">
        <ele>23.69</ele>
        <time>2021-08-07T11:04:29Z</time>
      </trkpt>
      <trkpt lat="50.71918" lon="2.78339">
        <ele>23.69</ele>
        <time>2021-08-07T11:04:30Z</time>
      </trkpt>
      <trkpt lat="50.71913" lon="2.7834">
        <ele>22.73</ele>
        <time>2021-08-07T11:04:31Z</time>
      </trkpt>
      <trkpt lat="50.71908" lon="2.78341">
        <ele>22.73</ele>
        <time>2021-08-07T11:04:32Z</time>
      </trkpt>
      <trkpt lat="50.71857" lon="2.78346">
        <ele>22.73</ele>
        <time>2021-08-07T11:04:41Z</time>
      </trkpt>
      <trkpt lat="50.71851" lon="2.7835">
        <ele>22.73</ele>
        <time>2021-08-07T11:04:42Z</time>
      </trkpt>
      <trkpt lat="50.71847" lon="2.78354">
        <ele>22.73</ele>
        <time>2021-08-07T11:04:43Z</time>
      </trkpt>
      <trkpt lat="50.71843" lon="2.7836">
        <ele>22.73</ele>
        <time>2021-08-07T11:04:44Z</time>
      </trkpt>
      <trkpt lat="50.71839" lon="2.78366">
        <ele>22.73</ele>
        <time>2021-08-07T11:04:45Z</time>
      </trkpt>
      <trkpt lat="50.71827" lon="2.78384">
        <ele>22.73</ele>
        <time>2021-08-07T11:04:48Z</time>
      </trkpt>
      <trkpt lat="50.71821" lon="2.78389">
        <ele>22.73</ele>
        <time>2021-08-07T11:04:49Z</time>
      </trkpt>
      <trkpt lat="50.71816" lon="2.78392">
        <ele>22.73</ele>
        <time>2021-08-07T11:04:50Z</time>
      </trkpt>
      <trkpt lat="50.71812" lon="2.78395">
        <ele>22.25</ele>
        <time>2021-08-07T11:04:51Z</time>
      </trkpt>
      <trkpt lat="50.71806" lon="2.78398">
        <ele>22.25</ele>
        <time>2021-08-07T11:04:52Z</time>
      </trkpt>
      <trkpt lat="50.71758" lon="2.78417">
        <ele>22.25</ele>
        <time>2021-08-07T11:05:01Z</time>
      </trkpt>
      <trkpt lat="50.71705" lon="2.7844">
        <ele>22.25</ele>
        <time>2021-08-07T11:05:11Z</time>
      </trkpt>
      <trkpt lat="50.71644" lon="2.78463">
        <ele>21.77</ele>
        <time>2021-08-07T11:05:22Z</time>
      </trkpt>
      <trkpt lat="50.7159" lon="2.78487">
        <ele>21.29</ele>
        <time>2021-08-07T11:05:32Z</time>
      </trkpt>
      <trkpt lat="50.71559" lon="2.78518">
        <ele>21.29</ele>
        <time>2021-08-07T11:05:39Z</time>
      </trkpt>
      <trkpt lat="50.71549" lon="2.78527">
        <ele>20.81</ele>
        <time>2021-08-07T11:05:41Z</time>
      </trkpt>
      <trkpt lat="50.71544" lon="2.7853">
        <ele>21.29</ele>
        <time>2021-08-07T11:05:42Z</time>
      </trkpt>
      <trkpt lat="50.71515" lon="2.78545">
        <ele>21.29</ele>
        <time>2021-08-07T11:05:48Z</time>
      </trkpt>
      <trkpt lat="50.7147" lon="2.78567">
        <ele>21.29</ele>
        <time>2021-08-07T11:05:57Z</time>
      </trkpt>
      <trkpt lat="50.71455" lon="2.78575">
        <ele>21.29</ele>
        <time>2021-08-07T11:06:00Z</time>
      </trkpt>
      <trkpt lat="50.71451" lon="2.78579">
        <ele>21.29</ele>
        <time>2021-08-07T11:06:01Z</time>
      </trkpt>
      <trkpt lat="50.71444" lon="2.78589">
        <ele>21.29</ele>
        <time>2021-08-07T11:06:03Z</time>
      </trkpt>
      <trkpt lat="50.71428" lon="2.78613">
        <ele>21.29</ele>
        <time>2021-08-07T11:06:07Z</time>
      </trkpt>
      <trkpt lat="50.71425" lon="2.78616">
        <ele>21.29</ele>
        <time>2021-08-07T11:06:08Z</time>
      </trkpt>
      <trkpt lat="50.7142" lon="2.78619">
        <ele>21.29</ele>
        <time>2021-08-07T11:06:09Z</time>
      </trkpt>
      <trkpt lat="50.71377" lon="2.78635">
        <ele>21.29</ele>
        <time>2021-08-07T11:06:17Z</time>
      </trkpt>
      <trkpt lat="50.71353" lon="2.78644">
        <ele>21.29</ele>
        <time>2021-08-07T11:06:22Z</time>
      </trkpt>
      <trkpt lat="50.71349" lon="2.78647">
        <ele>21.29</ele>
        <time>2021-08-07T11:06:23Z</time>
      </trkpt>
      <trkpt lat="50.71345" lon="2.78651">
        <ele>21.29</ele>
        <time>2021-08-07T11:06:24Z</time>
      </trkpt>
      <trkpt lat="50.71334" lon="2.78666">
        <ele>21.29</ele>
        <time>2021-08-07T11:06:27Z</time>
      </trkpt>
      <trkpt lat="50.71308" lon="2.78718">
        <ele>22.73</ele>
        <time>2021-08-07T11:06:37Z</time>
      </trkpt>
      <trkpt lat="50.71293" lon="2.78748">
        <ele>22.73</ele>
        <time>2021-08-07T11:06:45Z</time>
      </trkpt>
      <trkpt lat="50.7129" lon="2.78753">
        <ele>23.21</ele>
        <time>2021-08-07T11:06:48Z</time>
      </trkpt>
      <trkpt lat="50.71289" lon="2.78757">
        <ele>23.21</ele>
        <time>2021-08-07T11:06:49Z</time>
      </trkpt>
      <trkpt lat="50.7129" lon="2.78762">
        <ele>23.21</ele>
        <time>2021-08-07T11:06:50Z</time>
      </trkpt>
      <trkpt lat="50.71291" lon="2.78768">
        <ele>23.21</ele>
        <time>2021-08-07T11:06:51Z</time>
      </trkpt>
      <trkpt lat="50.71293" lon="2.78773">
        <ele>23.21</ele>
        <time>2021-08-07T11:06:52Z</time>
      </trkpt>
      <trkpt lat="50.71294" lon="2.78779">
        <ele>23.21</ele>
        <time>2021-08-07T11:06:53Z</time>
      </trkpt>
      <trkpt lat="50.71295" lon="2.78786">
        <ele>23.21</ele>
        <time>2021-08-07T11:06:54Z</time>
      </trkpt>
      <trkpt lat="50.71294" lon="2.78792">
        <ele>23.21</ele>
        <time>2021-08-07T11:06:55Z</time>
      </trkpt>
      <trkpt lat="50.71293" lon="2.78798">
        <ele>22.25</ele>
        <time>2021-08-07T11:06:56Z</time>
      </trkpt>
      <trkpt lat="50.7129" lon="2.78802">
        <ele>22.25</ele>
        <time>2021-08-07T11:06:57Z</time>
      </trkpt>
      <trkpt lat="50.71287" lon="2.78803">
        <ele>22.25</ele>
        <time>2021-08-07T11:06:58Z</time>
      </trkpt>
      <trkpt lat="50.71284" lon="2.78804">
        <ele>21.77</ele>
        <time>2021-08-07T11:06:59Z</time>
      </trkpt>
      <trkpt lat="50.71281" lon="2.78804">
        <ele>22.25</ele>
        <time>2021-08-07T11:07:00Z</time>
      </trkpt>
      <trkpt lat="50.71278" lon="2.78805">
        <ele>21.77</ele>
        <time>2021-08-07T11:07:01Z</time>
      </trkpt>
      <trkpt lat="50.71275" lon="2.78806">
        <ele>21.77</ele>
        <time>2021-08-07T11:07:02Z</time>
      </trkpt>
      <trkpt lat="50.7127" lon="2.78809">
        <ele>21.29</ele>
        <time>2021-08-07T11:07:04Z</time>
      </trkpt>
      <trkpt lat="50.71268" lon="2.78811">
        <ele>21.29</ele>
        <time>2021-08-07T11:07:05Z</time>
      </trkpt>
      <trkpt lat="50.71266" lon="2.78815">
        <ele>21.29</ele>
        <time>2021-08-07T11:07:06Z</time>
      </trkpt>
      <trkpt lat="50.71265" lon="2.7882">
        <ele>21.29</ele>
        <time>2021-08-07T11:07:07Z</time>
      </trkpt>
      <trkpt lat="50.71263" lon="2.78824">
        <ele>21.29</ele>
        <time>2021-08-07T11:07:08Z</time>
      </trkpt>
      <trkpt lat="50.71261" lon="2.7883">
        <ele>21.29</ele>
        <time>2021-08-07T11:07:09Z</time>
      </trkpt>
      <trkpt lat="50.71255" lon="2.78846">
        <ele>21.29</ele>
        <time>2021-08-07T11:07:14Z</time>
      </trkpt>
      <trkpt lat="50.7125" lon="2.78862">
        <ele>20.81</ele>
        <time>2021-08-07T11:07:19Z</time>
      </trkpt>
      <trkpt lat="50.71239" lon="2.78888">
        <ele>20.32</ele>
        <time>2021-08-07T11:07:25Z</time>
      </trkpt>
      <trkpt lat="50.71226" lon="2.7892">
        <ele>20.32</ele>
        <time>2021-08-07T11:07:32Z</time>
      </trkpt>
      <trkpt lat="50.71212" lon="2.78957">
        <ele>20.32</ele>
        <time>2021-08-07T11:07:41Z</time>
      </trkpt>
      <trkpt lat="50.71204" lon="2.78984">
        <ele>20.32</ele>
        <time>2021-08-07T11:07:47Z</time>
      </trkpt>
      <trkpt lat="50.7119" lon="2.79013">
        <ele>20.32</ele>
        <time>2021-08-07T11:07:54Z</time>
      </trkpt>
      <trkpt lat="50.71178" lon="2.79041">
        <ele>20.32</ele>
        <time>2021-08-07T11:08:00Z</time>
      </trkpt>
      <trkpt lat="50.71163" lon="2.79081">
        <ele>20.32</ele>
        <time>2021-08-07T11:08:07Z</time>
      </trkpt>
      <trkpt lat="50.71148" lon="2.79122">
        <ele>20.32</ele>
        <time>2021-08-07T11:08:15Z</time>
      </trkpt>
      <trkpt lat="50.7113" lon="2.79165">
        <ele>20.32</ele>
        <time>2021-08-07T11:08:24Z</time>
      </trkpt>
      <trkpt lat="50.71117" lon="2.79204">
        <ele>20.32</ele>
        <time>2021-08-07T11:08:32Z</time>
      </trkpt>
      <trkpt lat="50.71098" lon="2.79251">
        <ele>20.32</ele>
        <time>2021-08-07T11:08:42Z</time>
      </trkpt>
      <trkpt lat="50.71081" lon="2.79295">
        <ele>20.32</ele>
        <time>2021-08-07T11:08:52Z</time>
      </trkpt>
      <trkpt lat="50.71066" lon="2.7933">
        <ele>20.32</ele>
        <time>2021-08-07T11:09:00Z</time>
      </trkpt>
      <trkpt lat="50.71054" lon="2.79362">
        <ele>21.29</ele>
        <time>2021-08-07T11:09:08Z</time>
      </trkpt>
      <trkpt lat="50.71037" lon="2.79406">
        <ele>21.29</ele>
        <time>2021-08-07T11:09:18Z</time>
      </trkpt>
      <trkpt lat="50.71021" lon="2.79444">
        <ele>21.29</ele>
        <time>2021-08-07T11:09:26Z</time>
      </trkpt>
      <trkpt lat="50.71004" lon="2.79489">
        <ele>21.77</ele>
        <time>2021-08-07T11:09:35Z</time>
      </trkpt>
      <trkpt lat="50.70984" lon="2.79541">
        <ele>21.77</ele>
        <time>2021-08-07T11:09:45Z</time>
      </trkpt>
      <trkpt lat="50.70962" lon="2.79595">
        <ele>21.77</ele>
        <time>2021-08-07T11:09:55Z</time>
      </trkpt>
      <trkpt lat="50.70937" lon="2.79659">
        <ele>22.25</ele>
        <time>2021-08-07T11:10:06Z</time>
      </trkpt>
      <trkpt lat="50.70909" lon="2.79734">
        <ele>22.25</ele>
        <time>2021-08-07T11:10:18Z</time>
      </trkpt>
      <trkpt lat="50.70883" lon="2.798">
        <ele>22.25</ele>
        <time>2021-08-07T11:10:28Z</time>
      </trkpt>
      <trkpt lat="50.70852" lon="2.79878">
        <ele>22.25</ele>
        <time>2021-08-07T11:10:40Z</time>
      </trkpt>
      <trkpt lat="50.70825" lon="2.79944">
        <ele>20.81</ele>
        <time>2021-08-07T11:10:50Z</time>
      </trkpt>
      <trkpt lat="50.7082" lon="2.79957">
        <ele>20.81</ele>
        <time>2021-08-07T11:10:52Z</time>
      </trkpt>
      <trkpt lat="50.7081" lon="2.79984">
        <ele>19.84</ele>
        <time>2021-08-07T11:10:56Z</time>
      </trkpt>
      <trkpt lat="50.70808" lon="2.79991">
        <ele>19.84</ele>
        <time>2021-08-07T11:10:57Z</time>
      </trkpt>
      <trkpt lat="50.70805" lon="2.79998">
        <ele>19.84</ele>
        <time>2021-08-07T11:10:58Z</time>
      </trkpt>
      <trkpt lat="50.70791" lon="2.80031">
        <ele>21.29</ele>
        <time>2021-08-07T11:11:03Z</time>
      </trkpt>
      <trkpt lat="50.70757" lon="2.8012">
        <ele>21.29</ele>
        <time>2021-08-07T11:11:16Z</time>
      </trkpt>
      <trkpt lat="50.70729" lon="2.80191">
        <ele>21.29</ele>
        <time>2021-08-07T11:11:26Z</time>
      </trkpt>
      <trkpt lat="50.70692" lon="2.80288">
        <ele>21.77</ele>
        <time>2021-08-07T11:11:39Z</time>
      </trkpt>
      <trkpt lat="50.70661" lon="2.80371">
        <ele>21.77</ele>
        <time>2021-08-07T11:11:50Z</time>
      </trkpt>
      <trkpt lat="50.70633" lon="2.80443">
        <ele>21.77</ele>
        <time>2021-08-07T11:12:00Z</time>
      </trkpt>
      <trkpt lat="50.70608" lon="2.80507">
        <ele>21.77</ele>
        <time>2021-08-07T11:12:09Z</time>
      </trkpt>
      <trkpt lat="50.70592" lon="2.80548">
        <ele>21.77</ele>
        <time>2021-08-07T11:12:16Z</time>
      </trkpt>
      <trkpt lat="50.70589" lon="2.80549">
        <ele>21.77</ele>
        <time>2021-08-07T11:12:17Z</time>
      </trkpt>
      <trkpt lat="50.70586" lon="2.80547">
        <ele>22.73</ele>
        <time>2021-08-07T11:12:18Z</time>
      </trkpt>
      <trkpt lat="50.70584" lon="2.80545">
        <ele>22.73</ele>
        <time>2021-08-07T11:12:19Z</time>
      </trkpt>
      <trkpt lat="50.70582" lon="2.80543">
        <ele>22.73</ele>
        <time>2021-08-07T11:12:20Z</time>
      </trkpt>
      <trkpt lat="50.7058" lon="2.8054">
        <ele>23.21</ele>
        <time>2021-08-07T11:12:21Z</time>
      </trkpt>
      <trkpt lat="50.70578" lon="2.80537">
        <ele>23.21</ele>
        <time>2021-08-07T11:12:22Z</time>
      </trkpt>
      <trkpt lat="50.70568" lon="2.80527">
        <ele>23.21</ele>
        <time>2021-08-07T11:12:25Z</time>
      </trkpt>
      <trkpt lat="50.70553" lon="2.80511">
        <ele>21.77</ele>
        <time>2021-08-07T11:12:29Z</time>
      </trkpt>
      <trkpt lat="50.70549" lon="2.80507">
        <ele>21.77</ele>
        <time>2021-08-07T11:12:30Z</time>
      </trkpt>
      <trkpt lat="50.70537" lon="2.80494">
        <ele>21.77</ele>
        <time>2021-08-07T11:12:33Z</time>
      </trkpt>
      <trkpt lat="50.70533" lon="2.80492">
        <ele>21.77</ele>
        <time>2021-08-07T11:12:34Z</time>
      </trkpt>
      <trkpt lat="50.70529" lon="2.80493">
        <ele>21.29</ele>
        <time>2021-08-07T11:12:35Z</time>
      </trkpt>
      <trkpt lat="50.70525" lon="2.80498">
        <ele>21.29</ele>
        <time>2021-08-07T11:12:36Z</time>
      </trkpt>
      <trkpt lat="50.70523" lon="2.80505">
        <ele>21.29</ele>
        <time>2021-08-07T11:12:37Z</time>
      </trkpt>
      <trkpt lat="50.70522" lon="2.80512">
        <ele>20.81</ele>
        <time>2021-08-07T11:12:38Z</time>
      </trkpt>
      <trkpt lat="50.70522" lon="2.80519">
        <ele>20.81</ele>
        <time>2021-08-07T11:12:39Z</time>
      </trkpt>
      <trkpt lat="50.70522" lon="2.80527">
        <ele>20.81</ele>
        <time>2021-08-07T11:12:40Z</time>
      </trkpt>
      <trkpt lat="50.70521" lon="2.80591">
        <ele>20.81</ele>
        <time>2021-08-07T11:12:48Z</time>
      </trkpt>
      <trkpt lat="50.70521" lon="2.80599">
        <ele>20.81</ele>
        <time>2021-08-07T11:12:49Z</time>
      </trkpt>
      <trkpt lat="50.70519" lon="2.80655">
        <ele>20.32</ele>
        <time>2021-08-07T11:12:56Z</time>
      </trkpt>
      <trkpt lat="50.70518" lon="2.80662">
        <ele>20.32</ele>
        <time>2021-08-07T11:12:57Z</time>
      </trkpt>
      <trkpt lat="50.70516" lon="2.8067">
        <ele>20.32</ele>
        <time>2021-08-07T11:12:58Z</time>
      </trkpt>
      <trkpt lat="50.70496" lon="2.80724">
        <ele>20.32</ele>
        <time>2021-08-07T11:13:06Z</time>
      </trkpt>
      <trkpt lat="50.70486" lon="2.80749">
        <ele>20.32</ele>
        <time>2021-08-07T11:13:10Z</time>
      </trkpt>
      <trkpt lat="50.70482" lon="2.80755">
        <ele>20.32</ele>
        <time>2021-08-07T11:13:11Z</time>
      </trkpt>
      <trkpt lat="50.70478" lon="2.8076">
        <ele>20.32</ele>
        <time>2021-08-07T11:13:12Z</time>
      </trkpt>
      <trkpt lat="50.70474" lon="2.80765">
        <ele>20.32</ele>
        <time>2021-08-07T11:13:13Z</time>
      </trkpt>
      <trkpt lat="50.7047" lon="2.80769">
        <ele>20.32</ele>
        <time>2021-08-07T11:13:14Z</time>
      </trkpt>
      <trkpt lat="50.70465" lon="2.80773">
        <ele>20.32</ele>
        <time>2021-08-07T11:13:15Z</time>
      </trkpt>
      <trkpt lat="50.7046" lon="2.80776">
        <ele>20.32</ele>
        <time>2021-08-07T11:13:16Z</time>
      </trkpt>
      <trkpt lat="50.70418" lon="2.80801">
        <ele>20.32</ele>
        <time>2021-08-07T11:13:25Z</time>
      </trkpt>
      <trkpt lat="50.70403" lon="2.80804">
        <ele>20.32</ele>
        <time>2021-08-07T11:13:28Z</time>
      </trkpt>
      <trkpt lat="50.70399" lon="2.80807">
        <ele>20.32</ele>
        <time>2021-08-07T11:13:29Z</time>
      </trkpt>
      <trkpt lat="50.7035" lon="2.80841">
        <ele>20.32</ele>
        <time>2021-08-07T11:13:40Z</time>
      </trkpt>
      <trkpt lat="50.70324" lon="2.80863">
        <ele>20.32</ele>
        <time>2021-08-07T11:13:47Z</time>
      </trkpt>
      <trkpt lat="50.70314" lon="2.80867">
        <ele>20.32</ele>
        <time>2021-08-07T11:13:52Z</time>
      </trkpt>
      <trkpt lat="50.70305" lon="2.80869">
        <ele>20.32</ele>
        <time>2021-08-07T11:13:57Z</time>
      </trkpt>
      <trkpt lat="50.70291" lon="2.80879">
        <ele>20.32</ele>
        <time>2021-08-07T11:14:02Z</time>
      </trkpt>
      <trkpt lat="50.70263" lon="2.8089">
        <ele>20.32</ele>
        <time>2021-08-07T11:14:10Z</time>
      </trkpt>
      <trkpt lat="50.70224" lon="2.80896">
        <ele>19.84</ele>
        <time>2021-08-07T11:14:20Z</time>
      </trkpt>
      <trkpt lat="50.70194" lon="2.80907">
        <ele>19.84</ele>
        <time>2021-08-07T11:14:28Z</time>
      </trkpt>
      <trkpt lat="50.70172" lon="2.80914">
        <ele>19.84</ele>
        <time>2021-08-07T11:14:34Z</time>
      </trkpt>
      <trkpt lat="50.70168" lon="2.80913">
        <ele>19.84</ele>
        <time>2021-08-07T11:14:35Z</time>
      </trkpt>
      <trkpt lat="50.70164" lon="2.80915">
        <ele>19.84</ele>
        <time>2021-08-07T11:14:36Z</time>
      </trkpt>
      <trkpt lat="50.70139" lon="2.80925">
        <ele>19.84</ele>
        <time>2021-08-07T11:14:43Z</time>
      </trkpt>
      <trkpt lat="50.70104" lon="2.80939">
        <ele>19.84</ele>
        <time>2021-08-07T11:14:52Z</time>
      </trkpt>
      <trkpt lat="50.7007" lon="2.80954">
        <ele>19.84</ele>
        <time>2021-08-07T11:15:01Z</time>
      </trkpt>
      <trkpt lat="50.7003" lon="2.80973">
        <ele>19.84</ele>
        <time>2021-08-07T11:15:12Z</time>
      </trkpt>
      <trkpt lat="50.70001" lon="2.80987">
        <ele>19.84</ele>
        <time>2021-08-07T11:15:20Z</time>
      </trkpt>
      <trkpt lat="50.69972" lon="2.81003">
        <ele>21.29</ele>
        <time>2021-08-07T11:15:28Z</time>
      </trkpt>
      <trkpt lat="50.69953" lon="2.81021">
        <ele>21.29</ele>
        <time>2021-08-07T11:15:35Z</time>
      </trkpt>
      <trkpt lat="50.69952" lon="2.81026">
        <ele>21.29</ele>
        <time>2021-08-07T11:15:37Z</time>
      </trkpt>
      <trkpt lat="50.69953" lon="2.8103">
        <ele>21.29</ele>
        <time>2021-08-07T11:15:38Z</time>
      </trkpt>
      <trkpt lat="50.69955" lon="2.81033">
        <ele>21.29</ele>
        <time>2021-08-07T11:15:39Z</time>
      </trkpt>
      <trkpt lat="50.69958" lon="2.81034">
        <ele>21.29</ele>
        <time>2021-08-07T11:15:40Z</time>
      </trkpt>
      <trkpt lat="50.69961" lon="2.81036">
        <ele>21.29</ele>
        <time>2021-08-07T11:15:41Z</time>
      </trkpt>
      <trkpt lat="50.69965" lon="2.81038">
        <ele>21.29</ele>
        <time>2021-08-07T11:15:42Z</time>
      </trkpt>
      <trkpt lat="50.69968" lon="2.81041">
        <ele>21.29</ele>
        <time>2021-08-07T11:15:43Z</time>
      </trkpt>
      <trkpt lat="50.69972" lon="2.81043">
        <ele>21.29</ele>
        <time>2021-08-07T11:15:44Z</time>
      </trkpt>
      <trkpt lat="50.69976" lon="2.81045">
        <ele>21.29</ele>
        <time>2021-08-07T11:15:45Z</time>
      </trkpt>
      <trkpt lat="50.69993" lon="2.81054">
        <ele>21.29</ele>
        <time>2021-08-07T11:15:49Z</time>
      </trkpt>
      <trkpt lat="50.69998" lon="2.81057">
        <ele>21.29</ele>
        <time>2021-08-07T11:15:50Z</time>
      </trkpt>
      <trkpt lat="50.70021" lon="2.81073">
        <ele>21.29</ele>
        <time>2021-08-07T11:15:55Z</time>
      </trkpt>
      <trkpt lat="50.70025" lon="2.81078">
        <ele>21.29</ele>
        <time>2021-08-07T11:15:56Z</time>
      </trkpt>
      <trkpt lat="50.70034" lon="2.81089">
        <ele>21.29</ele>
        <time>2021-08-07T11:15:58Z</time>
      </trkpt>
      <trkpt lat="50.70037" lon="2.81095">
        <ele>21.29</ele>
        <time>2021-08-07T11:15:59Z</time>
      </trkpt>
      <trkpt lat="50.70041" lon="2.81103">
        <ele>21.29</ele>
        <time>2021-08-07T11:16:00Z</time>
      </trkpt>
      <trkpt lat="50.70058" lon="2.81168">
        <ele>21.29</ele>
        <time>2021-08-07T11:16:08Z</time>
      </trkpt>
      <trkpt lat="50.70074" lon="2.81247">
        <ele>21.29</ele>
        <time>2021-08-07T11:16:17Z</time>
      </trkpt>
      <trkpt lat="50.70083" lon="2.81304">
        <ele>19.84</ele>
        <time>2021-08-07T11:16:23Z</time>
      </trkpt>
      <trkpt lat="50.70091" lon="2.81391">
        <ele>19.84</ele>
        <time>2021-08-07T11:16:32Z</time>
      </trkpt>
      <trkpt lat="50.70104" lon="2.81489">
        <ele>19.84</ele>
        <time>2021-08-07T11:16:42Z</time>
      </trkpt>
      <trkpt lat="50.70118" lon="2.81565">
        <ele>21.29</ele>
        <time>2021-08-07T11:16:50Z</time>
      </trkpt>
      <trkpt lat="50.70132" lon="2.81645">
        <ele>22.25</ele>
        <time>2021-08-07T11:16:59Z</time>
      </trkpt>
      <trkpt lat="50.70135" lon="2.81651">
        <ele>22.25</ele>
        <time>2021-08-07T11:17:00Z</time>
      </trkpt>
      <trkpt lat="50.70138" lon="2.81656">
        <ele>22.25</ele>
        <time>2021-08-07T11:17:01Z</time>
      </trkpt>
      <trkpt lat="50.7014" lon="2.81661">
        <ele>22.73</ele>
        <time>2021-08-07T11:17:02Z</time>
      </trkpt>
      <trkpt lat="50.70143" lon="2.81664">
        <ele>23.21</ele>
        <time>2021-08-07T11:17:03Z</time>
      </trkpt>
      <trkpt lat="50.70146" lon="2.81667">
        <ele>23.21</ele>
        <time>2021-08-07T11:17:04Z</time>
      </trkpt>
      <trkpt lat="50.70162" lon="2.81683">
        <ele>23.21</ele>
        <time>2021-08-07T11:17:09Z</time>
      </trkpt>
      <trkpt lat="50.70164" lon="2.8169">
        <ele>22.25</ele>
        <time>2021-08-07T11:17:10Z</time>
      </trkpt>
      <trkpt lat="50.70164" lon="2.81698">
        <ele>21.77</ele>
        <time>2021-08-07T11:17:11Z</time>
      </trkpt>
      <trkpt lat="50.70161" lon="2.81706">
        <ele>21.29</ele>
        <time>2021-08-07T11:17:12Z</time>
      </trkpt>
      <trkpt lat="50.70157" lon="2.81711">
        <ele>21.29</ele>
        <time>2021-08-07T11:17:13Z</time>
      </trkpt>
      <trkpt lat="50.70153" lon="2.81716">
        <ele>21.29</ele>
        <time>2021-08-07T11:17:14Z</time>
      </trkpt>
      <trkpt lat="50.70148" lon="2.8172">
        <ele>21.29</ele>
        <time>2021-08-07T11:17:15Z</time>
      </trkpt>
      <trkpt lat="50.70143" lon="2.81725">
        <ele>21.29</ele>
        <time>2021-08-07T11:17:16Z</time>
      </trkpt>
      <trkpt lat="50.70139" lon="2.81731">
        <ele>20.81</ele>
        <time>2021-08-07T11:17:17Z</time>
      </trkpt>
      <trkpt lat="50.70135" lon="2.81738">
        <ele>20.81</ele>
        <time>2021-08-07T11:17:18Z</time>
      </trkpt>
      <trkpt lat="50.70132" lon="2.81746">
        <ele>20.81</ele>
        <time>2021-08-07T11:17:19Z</time>
      </trkpt>
      <trkpt lat="50.70128" lon="2.81753">
        <ele>20.32</ele>
        <time>2021-08-07T11:17:20Z</time>
      </trkpt>
      <trkpt lat="50.70096" lon="2.81834">
        <ele>20.81</ele>
        <time>2021-08-07T11:17:30Z</time>
      </trkpt>
      <trkpt lat="50.70074" lon="2.81892">
        <ele>20.81</ele>
        <time>2021-08-07T11:17:38Z</time>
      </trkpt>
      <trkpt lat="50.70061" lon="2.81925">
        <ele>21.77</ele>
        <time>2021-08-07T11:17:43Z</time>
      </trkpt>
      <trkpt lat="50.70035" lon="2.81993">
        <ele>21.77</ele>
        <time>2021-08-07T11:17:53Z</time>
      </trkpt>
      <trkpt lat="50.7003" lon="2.82007">
        <ele>21.77</ele>
        <time>2021-08-07T11:17:55Z</time>
      </trkpt>
      <trkpt lat="50.70027" lon="2.82013">
        <ele>21.77</ele>
        <time>2021-08-07T11:17:56Z</time>
      </trkpt>
      <trkpt lat="50.70004" lon="2.82075">
        <ele>21.77</ele>
        <time>2021-08-07T11:18:05Z</time>
      </trkpt>
      <trkpt lat="50.69977" lon="2.82145">
        <ele>21.77</ele>
        <time>2021-08-07T11:18:15Z</time>
      </trkpt>
      <trkpt lat="50.6995" lon="2.82212">
        <ele>21.77</ele>
        <time>2021-08-07T11:18:25Z</time>
      </trkpt>
      <trkpt lat="50.69919" lon="2.82293">
        <ele>21.77</ele>
        <time>2021-08-07T11:18:36Z</time>
      </trkpt>
      <trkpt lat="50.69893" lon="2.82363">
        <ele>21.77</ele>
        <time>2021-08-07T11:18:46Z</time>
      </trkpt>
      <trkpt lat="50.69867" lon="2.82429">
        <ele>21.77</ele>
        <time>2021-08-07T11:18:56Z</time>
      </trkpt>
      <trkpt lat="50.69842" lon="2.82494">
        <ele>21.77</ele>
        <time>2021-08-07T11:19:06Z</time>
      </trkpt>
      <trkpt lat="50.69817" lon="2.82557">
        <ele>21.29</ele>
        <time>2021-08-07T11:19:16Z</time>
      </trkpt>
      <trkpt lat="50.69796" lon="2.82612">
        <ele>21.29</ele>
        <time>2021-08-07T11:19:25Z</time>
      </trkpt>
      <trkpt lat="50.69774" lon="2.8267">
        <ele>21.29</ele>
        <time>2021-08-07T11:19:35Z</time>
      </trkpt>
      <trkpt lat="50.69753" lon="2.82724">
        <ele>21.29</ele>
        <time>2021-08-07T11:19:44Z</time>
      </trkpt>
      <trkpt lat="50.69745" lon="2.82747">
        <ele>21.29</ele>
        <time>2021-08-07T11:19:48Z</time>
      </trkpt>
      <trkpt lat="50.69728" lon="2.8279">
        <ele>20.32</ele>
        <time>2021-08-07T11:19:55Z</time>
      </trkpt>
      <trkpt lat="50.69713" lon="2.82826">
        <ele>19.84</ele>
        <time>2021-08-07T11:20:01Z</time>
      </trkpt>
      <trkpt lat="50.69699" lon="2.82862">
        <ele>21.29</ele>
        <time>2021-08-07T11:20:08Z</time>
      </trkpt>
      <trkpt lat="50.69695" lon="2.82861">
        <ele>21.29</ele>
        <time>2021-08-07T11:20:09Z</time>
      </trkpt>
      <trkpt lat="50.69693" lon="2.82859">
        <ele>21.29</ele>
        <time>2021-08-07T11:20:10Z</time>
      </trkpt>
      <trkpt lat="50.69691" lon="2.82857">
        <ele>21.29</ele>
        <time>2021-08-07T11:20:11Z</time>
      </trkpt>
      <trkpt lat="50.69689" lon="2.82853">
        <ele>21.29</ele>
        <time>2021-08-07T11:20:12Z</time>
      </trkpt>
      <trkpt lat="50.69688" lon="2.8285">
        <ele>21.29</ele>
        <time>2021-08-07T11:20:13Z</time>
      </trkpt>
      <trkpt lat="50.69686" lon="2.82847">
        <ele>21.77</ele>
        <time>2021-08-07T11:20:14Z</time>
      </trkpt>
      <trkpt lat="50.69684" lon="2.82844">
        <ele>21.77</ele>
        <time>2021-08-07T11:20:15Z</time>
      </trkpt>
      <trkpt lat="50.69681" lon="2.82842">
        <ele>21.77</ele>
        <time>2021-08-07T11:20:16Z</time>
      </trkpt>
      <trkpt lat="50.69677" lon="2.82842">
        <ele>20.32</ele>
        <time>2021-08-07T11:20:17Z</time>
      </trkpt>
      <trkpt lat="50.69675" lon="2.82845">
        <ele>20.32</ele>
        <time>2021-08-07T11:20:18Z</time>
      </trkpt>
      <trkpt lat="50.69672" lon="2.82849">
        <ele>20.32</ele>
        <time>2021-08-07T11:20:19Z</time>
      </trkpt>
      <trkpt lat="50.6967" lon="2.82853">
        <ele>20.32</ele>
        <time>2021-08-07T11:20:20Z</time>
      </trkpt>
      <trkpt lat="50.69668" lon="2.82859">
        <ele>20.32</ele>
        <time>2021-08-07T11:20:21Z</time>
      </trkpt>
      <trkpt lat="50.69649" lon="2.82907">
        <ele>19.84</ele>
        <time>2021-08-07T11:20:30Z</time>
      </trkpt>
      <trkpt lat="50.6963" lon="2.82956">
        <ele>19.36</ele>
        <time>2021-08-07T11:20:39Z</time>
      </trkpt>
      <trkpt lat="50.69621" lon="2.8298">
        <ele>20.81</ele>
        <time>2021-08-07T11:20:43Z</time>
      </trkpt>
      <trkpt lat="50.69603" lon="2.83031">
        <ele>20.81</ele>
        <time>2021-08-07T11:20:52Z</time>
      </trkpt>
      <trkpt lat="50.69585" lon="2.83081">
        <ele>20.81</ele>
        <time>2021-08-07T11:21:00Z</time>
      </trkpt>
      <trkpt lat="50.69583" lon="2.83087">
        <ele>21.29</ele>
        <time>2021-08-07T11:21:01Z</time>
      </trkpt>
      <trkpt lat="50.69565" lon="2.83134">
        <ele>21.29</ele>
        <time>2021-08-07T11:21:09Z</time>
      </trkpt>
      <trkpt lat="50.69561" lon="2.83145">
        <ele>21.29</ele>
        <time>2021-08-07T11:21:11Z</time>
      </trkpt>
      <trkpt lat="50.69549" lon="2.83175">
        <ele>21.29</ele>
        <time>2021-08-07T11:21:16Z</time>
      </trkpt>
      <trkpt lat="50.69544" lon="2.83186">
        <ele>19.84</ele>
        <time>2021-08-07T11:21:18Z</time>
      </trkpt>
      <trkpt lat="50.69529" lon="2.83227">
        <ele>19.84</ele>
        <time>2021-08-07T11:21:25Z</time>
      </trkpt>
      <trkpt lat="50.69527" lon="2.83233">
        <ele>19.84</ele>
        <time>2021-08-07T11:21:26Z</time>
      </trkpt>
      <trkpt lat="50.69501" lon="2.83302">
        <ele>19.84</ele>
        <time>2021-08-07T11:21:37Z</time>
      </trkpt>
      <trkpt lat="50.69479" lon="2.8336">
        <ele>20.32</ele>
        <time>2021-08-07T11:21:46Z</time>
      </trkpt>
      <trkpt lat="50.69477" lon="2.83365">
        <ele>19.84</ele>
        <time>2021-08-07T11:21:47Z</time>
      </trkpt>
      <trkpt lat="50.69453" lon="2.83429">
        <ele>20.32</ele>
        <time>2021-08-07T11:21:57Z</time>
      </trkpt>
      <trkpt lat="50.69429" lon="2.8349">
        <ele>19.84</ele>
        <time>2021-08-07T11:22:07Z</time>
      </trkpt>
      <trkpt lat="50.69401" lon="2.83561">
        <ele>19.84</ele>
        <time>2021-08-07T11:22:19Z</time>
      </trkpt>
      <trkpt lat="50.69373" lon="2.83631">
        <ele>18.88</ele>
        <time>2021-08-07T11:22:30Z</time>
      </trkpt>
      <trkpt lat="50.69344" lon="2.83706">
        <ele>18.4</ele>
        <time>2021-08-07T11:22:41Z</time>
      </trkpt>
      <trkpt lat="50.69322" lon="2.83761">
        <ele>18.4</ele>
        <time>2021-08-07T11:22:49Z</time>
      </trkpt>
      <trkpt lat="50.69304" lon="2.83796">
        <ele>17.92</ele>
        <time>2021-08-07T11:22:55Z</time>
      </trkpt>
      <trkpt lat="50.69301" lon="2.83802">
        <ele>17.92</ele>
        <time>2021-08-07T11:22:56Z</time>
      </trkpt>
      <trkpt lat="50.69278" lon="2.83838">
        <ele>17.92</ele>
        <time>2021-08-07T11:23:03Z</time>
      </trkpt>
      <trkpt lat="50.69256" lon="2.83854">
        <ele>17.44</ele>
        <time>2021-08-07T11:23:09Z</time>
      </trkpt>
      <trkpt lat="50.69252" lon="2.83855">
        <ele>17.44</ele>
        <time>2021-08-07T11:23:10Z</time>
      </trkpt>
      <trkpt lat="50.69248" lon="2.83857">
        <ele>17.44</ele>
        <time>2021-08-07T11:23:11Z</time>
      </trkpt>
      <trkpt lat="50.69245" lon="2.8386">
        <ele>17.44</ele>
        <time>2021-08-07T11:23:12Z</time>
      </trkpt>
      <trkpt lat="50.69241" lon="2.83863">
        <ele>17.44</ele>
        <time>2021-08-07T11:23:13Z</time>
      </trkpt>
      <trkpt lat="50.69238" lon="2.83866">
        <ele>17.44</ele>
        <time>2021-08-07T11:23:14Z</time>
      </trkpt>
      <trkpt lat="50.6923" lon="2.83877">
        <ele>18.88</ele>
        <time>2021-08-07T11:23:17Z</time>
      </trkpt>
      <trkpt lat="50.69195" lon="2.83925">
        <ele>18.88</ele>
        <time>2021-08-07T11:23:29Z</time>
      </trkpt>
      <trkpt lat="50.69166" lon="2.83967">
        <ele>18.88</ele>
        <time>2021-08-07T11:23:39Z</time>
      </trkpt>
      <trkpt lat="50.69153" lon="2.83983">
        <ele>19.36</ele>
        <time>2021-08-07T11:23:43Z</time>
      </trkpt>
      <trkpt lat="50.69149" lon="2.83986">
        <ele>19.36</ele>
        <time>2021-08-07T11:23:44Z</time>
      </trkpt>
      <trkpt lat="50.69144" lon="2.83988">
        <ele>19.36</ele>
        <time>2021-08-07T11:23:45Z</time>
      </trkpt>
      <trkpt lat="50.6914" lon="2.83989">
        <ele>19.84</ele>
        <time>2021-08-07T11:23:46Z</time>
      </trkpt>
      <trkpt lat="50.69136" lon="2.8399">
        <ele>19.84</ele>
        <time>2021-08-07T11:23:47Z</time>
      </trkpt>
      <trkpt lat="50.69131" lon="2.8399">
        <ele>19.84</ele>
        <time>2021-08-07T11:23:48Z</time>
      </trkpt>
      <trkpt lat="50.69126" lon="2.83989">
        <ele>19.84</ele>
        <time>2021-08-07T11:23:49Z</time>
      </trkpt>
      <trkpt lat="50.69085" lon="2.83975">
        <ele>19.84</ele>
        <time>2021-08-07T11:23:58Z</time>
      </trkpt>
      <trkpt lat="50.69042" lon="2.8396">
        <ele>19.84</ele>
        <time>2021-08-07T11:24:07Z</time>
      </trkpt>
      <trkpt lat="50.69005" lon="2.83946">
        <ele>19.84</ele>
        <time>2021-08-07T11:24:15Z</time>
      </trkpt>
      <trkpt lat="50.69" lon="2.83948">
        <ele>18.4</ele>
        <time>2021-08-07T11:24:16Z</time>
      </trkpt>
      <trkpt lat="50.68996" lon="2.83951">
        <ele>18.4</ele>
        <time>2021-08-07T11:24:17Z</time>
      </trkpt>
      <trkpt lat="50.68991" lon="2.83955">
        <ele>18.4</ele>
        <time>2021-08-07T11:24:18Z</time>
      </trkpt>
      <trkpt lat="50.68988" lon="2.8396">
        <ele>18.4</ele>
        <time>2021-08-07T11:24:19Z</time>
      </trkpt>
      <trkpt lat="50.68984" lon="2.83965">
        <ele>18.4</ele>
        <time>2021-08-07T11:24:20Z</time>
      </trkpt>
      <trkpt lat="50.68951" lon="2.84009">
        <ele>18.4</ele>
        <time>2021-08-07T11:24:29Z</time>
      </trkpt>
      <trkpt lat="50.6894" lon="2.84023">
        <ele>18.4</ele>
        <time>2021-08-07T11:24:32Z</time>
      </trkpt>
      <trkpt lat="50.68916" lon="2.84053">
        <ele>19.84</ele>
        <time>2021-08-07T11:24:39Z</time>
      </trkpt>
      <trkpt lat="50.68898" lon="2.84058">
        <ele>19.84</ele>
        <time>2021-08-07T11:24:44Z</time>
      </trkpt>
      <trkpt lat="50.68896" lon="2.84054">
        <ele>19.84</ele>
        <time>2021-08-07T11:24:45Z</time>
      </trkpt>
      <trkpt lat="50.68894" lon="2.84048">
        <ele>19.84</ele>
        <time>2021-08-07T11:24:46Z</time>
      </trkpt>
      <trkpt lat="50.68891" lon="2.84041">
        <ele>19.84</ele>
        <time>2021-08-07T11:24:47Z</time>
      </trkpt>
      <trkpt lat="50.68889" lon="2.84035">
        <ele>19.84</ele>
        <time>2021-08-07T11:24:48Z</time>
      </trkpt>
      <trkpt lat="50.68869" lon="2.83976">
        <ele>19.84</ele>
        <time>2021-08-07T11:24:57Z</time>
      </trkpt>
      <trkpt lat="50.68864" lon="2.83962">
        <ele>19.84</ele>
        <time>2021-08-07T11:24:59Z</time>
      </trkpt>
      <trkpt lat="50.68862" lon="2.83954">
        <ele>19.84</ele>
        <time>2021-08-07T11:25:02Z</time>
      </trkpt>
      <trkpt lat="50.68859" lon="2.83944">
        <ele>19.84</ele>
        <time>2021-08-07T11:25:07Z</time>
      </trkpt>
      <trkpt lat="50.68846" lon="2.83904">
        <ele>19.84</ele>
        <time>2021-08-07T11:25:14Z</time>
      </trkpt>
      <trkpt lat="50.68841" lon="2.83891">
        <ele>19.84</ele>
        <time>2021-08-07T11:25:16Z</time>
      </trkpt>
      <trkpt lat="50.6882" lon="2.83827">
        <ele>20.32</ele>
        <time>2021-08-07T11:25:25Z</time>
      </trkpt>
      <trkpt lat="50.68804" lon="2.83775">
        <ele>20.32</ele>
        <time>2021-08-07T11:25:32Z</time>
      </trkpt>
      <trkpt lat="50.68803" lon="2.83767">
        <ele>20.32</ele>
        <time>2021-08-07T11:25:33Z</time>
      </trkpt>
      <trkpt lat="50.68789" lon="2.83696">
        <ele>20.32</ele>
        <time>2021-08-07T11:25:42Z</time>
      </trkpt>
      <trkpt lat="50.68778" lon="2.83641">
        <ele>18.88</ele>
        <time>2021-08-07T11:25:49Z</time>
      </trkpt>
      <trkpt lat="50.68764" lon="2.8357">
        <ele>20.32</ele>
        <time>2021-08-07T11:25:58Z</time>
      </trkpt>
      <trkpt lat="50.68746" lon="2.83489">
        <ele>20.32</ele>
        <time>2021-08-07T11:26:08Z</time>
      </trkpt>
      <trkpt lat="50.68727" lon="2.83419">
        <ele>20.32</ele>
        <time>2021-08-07T11:26:17Z</time>
      </trkpt>
      <trkpt lat="50.68708" lon="2.83358">
        <ele>20.32</ele>
        <time>2021-08-07T11:26:25Z</time>
      </trkpt>
      <trkpt lat="50.68698" lon="2.83321">
        <ele>20.81</ele>
        <time>2021-08-07T11:26:30Z</time>
      </trkpt>
      <trkpt lat="50.68697" lon="2.83281">
        <ele>22.73</ele>
        <time>2021-08-07T11:26:37Z</time>
      </trkpt>
      <trkpt lat="50.68707" lon="2.83254">
        <ele>24.65</ele>
        <time>2021-08-07T11:26:45Z</time>
      </trkpt>
      <trkpt lat="50.68722" lon="2.83234">
        <ele>26.09</ele>
        <time>2021-08-07T11:26:53Z</time>
      </trkpt>
      <trkpt lat="50.68735" lon="2.83209">
        <ele>26.57</ele>
        <time>2021-08-07T11:27:01Z</time>
      </trkpt>
      <trkpt lat="50.68733" lon="2.83204">
        <ele>26.57</ele>
        <time>2021-08-07T11:27:04Z</time>
      </trkpt>
      <trkpt lat="50.68732" lon="2.83202">
        <ele>26.57</ele>
        <time>2021-08-07T11:27:05Z</time>
      </trkpt>
      <trkpt lat="50.68731" lon="2.832">
        <ele>26.57</ele>
        <time>2021-08-07T11:27:06Z</time>
      </trkpt>
      <trkpt lat="50.6873" lon="2.83199">
        <ele>26.57</ele>
        <time>2021-08-07T11:27:07Z</time>
      </trkpt>
      <trkpt lat="50.68727" lon="2.83197">
        <ele>27.05</ele>
        <time>2021-08-07T11:27:08Z</time>
      </trkpt>
      <trkpt lat="50.68725" lon="2.83197">
        <ele>27.05</ele>
        <time>2021-08-07T11:27:09Z</time>
      </trkpt>
      <trkpt lat="50.68722" lon="2.83196">
        <ele>27.05</ele>
        <time>2021-08-07T11:27:10Z</time>
      </trkpt>
      <trkpt lat="50.6869" lon="2.8319">
        <ele>28.02</ele>
        <time>2021-08-07T11:27:21Z</time>
      </trkpt>
      <trkpt lat="50.68656" lon="2.83182">
        <ele>28.02</ele>
        <time>2021-08-07T11:27:29Z</time>
      </trkpt>
      <trkpt lat="50.68641" lon="2.83177">
        <ele>26.57</ele>
        <time>2021-08-07T11:27:32Z</time>
      </trkpt>
      <trkpt lat="50.68636" lon="2.83176">
        <ele>26.09</ele>
        <time>2021-08-07T11:27:33Z</time>
      </trkpt>
      <trkpt lat="50.6863" lon="2.83176">
        <ele>26.09</ele>
        <time>2021-08-07T11:27:34Z</time>
      </trkpt>
      <trkpt lat="50.68626" lon="2.83178">
        <ele>26.09</ele>
        <time>2021-08-07T11:27:35Z</time>
      </trkpt>
      <trkpt lat="50.6862" lon="2.83182">
        <ele>25.13</ele>
        <time>2021-08-07T11:27:36Z</time>
      </trkpt>
      <trkpt lat="50.68616" lon="2.83187">
        <ele>25.13</ele>
        <time>2021-08-07T11:27:37Z</time>
      </trkpt>
      <trkpt lat="50.68613" lon="2.83194">
        <ele>25.13</ele>
        <time>2021-08-07T11:27:38Z</time>
      </trkpt>
      <trkpt lat="50.6861" lon="2.83202">
        <ele>25.13</ele>
        <time>2021-08-07T11:27:39Z</time>
      </trkpt>
      <trkpt lat="50.68608" lon="2.8321">
        <ele>25.13</ele>
        <time>2021-08-07T11:27:40Z</time>
      </trkpt>
      <trkpt lat="50.68605" lon="2.83218">
        <ele>25.13</ele>
        <time>2021-08-07T11:27:41Z</time>
      </trkpt>
      <trkpt lat="50.68601" lon="2.83226">
        <ele>24.17</ele>
        <time>2021-08-07T11:27:42Z</time>
      </trkpt>
      <trkpt lat="50.68593" lon="2.83244">
        <ele>23.21</ele>
        <time>2021-08-07T11:27:44Z</time>
      </trkpt>
      <trkpt lat="50.68588" lon="2.83253">
        <ele>22.25</ele>
        <time>2021-08-07T11:27:45Z</time>
      </trkpt>
      <trkpt lat="50.68554" lon="2.83302">
        <ele>18.88</ele>
        <time>2021-08-07T11:27:51Z</time>
      </trkpt>
      <trkpt lat="50.68541" lon="2.83315">
        <ele>18.88</ele>
        <time>2021-08-07T11:27:53Z</time>
      </trkpt>
      <trkpt lat="50.68533" lon="2.8332">
        <ele>18.88</ele>
        <time>2021-08-07T11:27:54Z</time>
      </trkpt>
      <trkpt lat="50.68492" lon="2.83342">
        <ele>19.84</ele>
        <time>2021-08-07T11:28:00Z</time>
      </trkpt>
      <trkpt lat="50.68443" lon="2.83371">
        <ele>19.84</ele>
        <time>2021-08-07T11:28:08Z</time>
      </trkpt>
      <trkpt lat="50.684" lon="2.83403">
        <ele>20.32</ele>
        <time>2021-08-07T11:28:16Z</time>
      </trkpt>
      <trkpt lat="50.68354" lon="2.83442">
        <ele>19.36</ele>
        <time>2021-08-07T11:28:25Z</time>
      </trkpt>
      <trkpt lat="50.68309" lon="2.83478">
        <ele>18.88</ele>
        <time>2021-08-07T11:28:34Z</time>
      </trkpt>
      <trkpt lat="50.68263" lon="2.83512">
        <ele>18.88</ele>
        <time>2021-08-07T11:28:43Z</time>
      </trkpt>
      <trkpt lat="50.68202" lon="2.83553">
        <ele>18.88</ele>
        <time>2021-08-07T11:28:54Z</time>
      </trkpt>
      <trkpt lat="50.68133" lon="2.83587">
        <ele>18.4</ele>
        <time>2021-08-07T11:29:06Z</time>
      </trkpt>
      <trkpt lat="50.68059" lon="2.83623">
        <ele>17.92</ele>
        <time>2021-08-07T11:29:19Z</time>
      </trkpt>
      <trkpt lat="50.68003" lon="2.83652">
        <ele>17.44</ele>
        <time>2021-08-07T11:29:29Z</time>
      </trkpt>
      <trkpt lat="50.67964" lon="2.83672">
        <ele>17.44</ele>
        <time>2021-08-07T11:29:36Z</time>
      </trkpt>
      <trkpt lat="50.67954" lon="2.83676">
        <ele>17.44</ele>
        <time>2021-08-07T11:29:38Z</time>
      </trkpt>
      <trkpt lat="50.67949" lon="2.83676">
        <ele>17.44</ele>
        <time>2021-08-07T11:29:39Z</time>
      </trkpt>
      <trkpt lat="50.67943" lon="2.83677">
        <ele>17.44</ele>
        <time>2021-08-07T11:29:40Z</time>
      </trkpt>
      <trkpt lat="50.67938" lon="2.83676">
        <ele>17.44</ele>
        <time>2021-08-07T11:29:41Z</time>
      </trkpt>
      <trkpt lat="50.67933" lon="2.83674">
        <ele>17.44</ele>
        <time>2021-08-07T11:29:42Z</time>
      </trkpt>
      <trkpt lat="50.67928" lon="2.83673">
        <ele>17.44</ele>
        <time>2021-08-07T11:29:43Z</time>
      </trkpt>
      <trkpt lat="50.67923" lon="2.83672">
        <ele>17.44</ele>
        <time>2021-08-07T11:29:44Z</time>
      </trkpt>
      <trkpt lat="50.67918" lon="2.83672">
        <ele>17.44</ele>
        <time>2021-08-07T11:29:45Z</time>
      </trkpt>
      <trkpt lat="50.67914" lon="2.83673">
        <ele>18.4</ele>
        <time>2021-08-07T11:29:46Z</time>
      </trkpt>
      <trkpt lat="50.67909" lon="2.83675">
        <ele>18.4</ele>
        <time>2021-08-07T11:29:47Z</time>
      </trkpt>
      <trkpt lat="50.67905" lon="2.83678">
        <ele>18.4</ele>
        <time>2021-08-07T11:29:48Z</time>
      </trkpt>
      <trkpt lat="50.67901" lon="2.8368">
        <ele>18.4</ele>
        <time>2021-08-07T11:29:49Z</time>
      </trkpt>
      <trkpt lat="50.67896" lon="2.83681">
        <ele>18.4</ele>
        <time>2021-08-07T11:29:50Z</time>
      </trkpt>
      <trkpt lat="50.67892" lon="2.83679">
        <ele>18.4</ele>
        <time>2021-08-07T11:29:51Z</time>
      </trkpt>
      <trkpt lat="50.67889" lon="2.83677">
        <ele>18.4</ele>
        <time>2021-08-07T11:29:52Z</time>
      </trkpt>
      <trkpt lat="50.67886" lon="2.83673">
        <ele>18.4</ele>
        <time>2021-08-07T11:29:53Z</time>
      </trkpt>
      <trkpt lat="50.67883" lon="2.83669">
        <ele>18.4</ele>
        <time>2021-08-07T11:29:54Z</time>
      </trkpt>
      <trkpt lat="50.67845" lon="2.83622">
        <ele>19.84</ele>
        <time>2021-08-07T11:30:06Z</time>
      </trkpt>
      <trkpt lat="50.67805" lon="2.83575">
        <ele>21.29</ele>
        <time>2021-08-07T11:30:19Z</time>
      </trkpt>
      <trkpt lat="50.67767" lon="2.83541">
        <ele>23.21</ele>
        <time>2021-08-07T11:30:31Z</time>
      </trkpt>
      <trkpt lat="50.67731" lon="2.83517">
        <ele>23.21</ele>
        <time>2021-08-07T11:30:41Z</time>
      </trkpt>
      <trkpt lat="50.67684" lon="2.83488">
        <ele>23.21</ele>
        <time>2021-08-07T11:30:53Z</time>
      </trkpt>
      <trkpt lat="50.67643" lon="2.83463">
        <ele>21.77</ele>
        <time>2021-08-07T11:31:02Z</time>
      </trkpt>
      <trkpt lat="50.67625" lon="2.83452">
        <ele>21.77</ele>
        <time>2021-08-07T11:31:06Z</time>
      </trkpt>
      <trkpt lat="50.6759" lon="2.83429">
        <ele>20.32</ele>
        <time>2021-08-07T11:31:13Z</time>
      </trkpt>
      <trkpt lat="50.6757" lon="2.83414">
        <ele>19.84</ele>
        <time>2021-08-07T11:31:17Z</time>
      </trkpt>
      <trkpt lat="50.67565" lon="2.83409">
        <ele>19.84</ele>
        <time>2021-08-07T11:31:18Z</time>
      </trkpt>
      <trkpt lat="50.67561" lon="2.83402">
        <ele>19.84</ele>
        <time>2021-08-07T11:31:19Z</time>
      </trkpt>
      <trkpt lat="50.67557" lon="2.83396">
        <ele>19.84</ele>
        <time>2021-08-07T11:31:20Z</time>
      </trkpt>
      <trkpt lat="50.67554" lon="2.83388">
        <ele>19.84</ele>
        <time>2021-08-07T11:31:21Z</time>
      </trkpt>
      <trkpt lat="50.67552" lon="2.8338">
        <ele>19.84</ele>
        <time>2021-08-07T11:31:22Z</time>
      </trkpt>
      <trkpt lat="50.67549" lon="2.83371">
        <ele>19.84</ele>
        <time>2021-08-07T11:31:23Z</time>
      </trkpt>
      <trkpt lat="50.67543" lon="2.83356">
        <ele>19.84</ele>
        <time>2021-08-07T11:31:25Z</time>
      </trkpt>
      <trkpt lat="50.6754" lon="2.83351">
        <ele>19.84</ele>
        <time>2021-08-07T11:31:26Z</time>
      </trkpt>
      <trkpt lat="50.67536" lon="2.83347">
        <ele>19.84</ele>
        <time>2021-08-07T11:31:27Z</time>
      </trkpt>
      <trkpt lat="50.67531" lon="2.83345">
        <ele>19.84</ele>
        <time>2021-08-07T11:31:28Z</time>
      </trkpt>
      <trkpt lat="50.67526" lon="2.83345">
        <ele>19.84</ele>
        <time>2021-08-07T11:31:29Z</time>
      </trkpt>
      <trkpt lat="50.67521" lon="2.83348">
        <ele>19.84</ele>
        <time>2021-08-07T11:31:30Z</time>
      </trkpt>
      <trkpt lat="50.67517" lon="2.83352">
        <ele>19.84</ele>
        <time>2021-08-07T11:31:31Z</time>
      </trkpt>
      <trkpt lat="50.67513" lon="2.83358">
        <ele>19.84</ele>
        <time>2021-08-07T11:31:32Z</time>
      </trkpt>
      <trkpt lat="50.6751" lon="2.83364">
        <ele>19.84</ele>
        <time>2021-08-07T11:31:33Z</time>
      </trkpt>
      <trkpt lat="50.67504" lon="2.83378">
        <ele>19.84</ele>
        <time>2021-08-07T11:31:35Z</time>
      </trkpt>
      <trkpt lat="50.67499" lon="2.83384">
        <ele>19.84</ele>
        <time>2021-08-07T11:31:36Z</time>
      </trkpt>
      <trkpt lat="50.67495" lon="2.83388">
        <ele>19.84</ele>
        <time>2021-08-07T11:31:37Z</time>
      </trkpt>
      <trkpt lat="50.67449" lon="2.83417">
        <ele>19.36</ele>
        <time>2021-08-07T11:31:46Z</time>
      </trkpt>
      <trkpt lat="50.67402" lon="2.83446">
        <ele>19.36</ele>
        <time>2021-08-07T11:31:56Z</time>
      </trkpt>
      <trkpt lat="50.67388" lon="2.83455">
        <ele>20.81</ele>
        <time>2021-08-07T11:31:59Z</time>
      </trkpt>
      <trkpt lat="50.67328" lon="2.83494">
        <ele>20.81</ele>
        <time>2021-08-07T11:32:12Z</time>
      </trkpt>
      <trkpt lat="50.67286" lon="2.8352">
        <ele>21.29</ele>
        <time>2021-08-07T11:32:22Z</time>
      </trkpt>
      <trkpt lat="50.67257" lon="2.8354">
        <ele>21.29</ele>
        <time>2021-08-07T11:32:29Z</time>
      </trkpt>
      <trkpt lat="50.67214" lon="2.83568">
        <ele>21.77</ele>
        <time>2021-08-07T11:32:39Z</time>
      </trkpt>
      <trkpt lat="50.67162" lon="2.83605">
        <ele>21.77</ele>
        <time>2021-08-07T11:32:50Z</time>
      </trkpt>
      <trkpt lat="50.67114" lon="2.8364">
        <ele>21.77</ele>
        <time>2021-08-07T11:33:00Z</time>
      </trkpt>
      <trkpt lat="50.67109" lon="2.83642">
        <ele>21.77</ele>
        <time>2021-08-07T11:33:01Z</time>
      </trkpt>
      <trkpt lat="50.67105" lon="2.83641">
        <ele>21.77</ele>
        <time>2021-08-07T11:33:02Z</time>
      </trkpt>
      <trkpt lat="50.67102" lon="2.83639">
        <ele>21.77</ele>
        <time>2021-08-07T11:33:03Z</time>
      </trkpt>
      <trkpt lat="50.67101" lon="2.8364">
        <ele>22.25</ele>
        <time>2021-08-07T11:33:07Z</time>
      </trkpt>
      <trkpt lat="50.67102" lon="2.83638">
        <ele>22.25</ele>
        <time>2021-08-07T11:33:19Z</time>
      </trkpt>
      <trkpt lat="50.67102" lon="2.83639">
        <ele>22.25</ele>
        <time>2021-08-07T11:33:31Z</time>
      </trkpt>
      <trkpt lat="50.67102" lon="2.83639">
        <ele>22.73</ele>
        <time>2021-08-07T11:33:40Z</time>
      </trkpt>
      <trkpt lat="50.67102" lon="2.8364">
        <ele>22.73</ele>
        <time>2021-08-07T11:33:47Z</time>
      </trkpt>
      <trkpt lat="50.67101" lon="2.83639">
        <ele>22.73</ele>
        <time>2021-08-07T11:34:02Z</time>
      </trkpt>
      <trkpt lat="50.67101" lon="2.8364">
        <ele>22.73</ele>
        <time>2021-08-07T11:34:08Z</time>
      </trkpt>
      <trkpt lat="50.67094" lon="2.83646">
        <ele>22.73</ele>
        <time>2021-08-07T11:34:16Z</time>
      </trkpt>
      <trkpt lat="50.67094" lon="2.83646">
        <ele>22.73</ele>
        <time>2021-08-07T11:34:27Z</time>
      </trkpt>
      <trkpt lat="50.67094" lon="2.83646">
        <ele>22.73</ele>
        <time>2021-08-07T11:34:45Z</time>
      </trkpt>
      <trkpt lat="50.67094" lon="2.83647">
        <ele>22.73</ele>
        <time>2021-08-07T11:34:56Z</time>
      </trkpt>
      <trkpt lat="50.67092" lon="2.83646">
        <ele>22.25</ele>
        <time>2021-08-07T11:35:17Z</time>
      </trkpt>
      <trkpt lat="50.67093" lon="2.83647">
        <ele>22.25</ele>
        <time>2021-08-07T11:35:41Z</time>
      </trkpt>
      <trkpt lat="50.67092" lon="2.83651">
        <ele>22.25</ele>
        <time>2021-08-07T11:35:58Z</time>
      </trkpt>
      <trkpt lat="50.67089" lon="2.83658">
        <ele>22.25</ele>
        <time>2021-08-07T11:36:01Z</time>
      </trkpt>
      <trkpt lat="50.67087" lon="2.83661">
        <ele>22.25</ele>
        <time>2021-08-07T11:36:02Z</time>
      </trkpt>
      <trkpt lat="50.67085" lon="2.83663">
        <ele>22.25</ele>
        <time>2021-08-07T11:36:03Z</time>
      </trkpt>
      <trkpt lat="50.67083" lon="2.83665">
        <ele>22.25</ele>
        <time>2021-08-07T11:36:04Z</time>
      </trkpt>
      <trkpt lat="50.67081" lon="2.83667">
        <ele>22.25</ele>
        <time>2021-08-07T11:36:05Z</time>
      </trkpt>
      <trkpt lat="50.67059" lon="2.83684">
        <ele>22.25</ele>
        <time>2021-08-07T11:36:13Z</time>
      </trkpt>
      <trkpt lat="50.67035" lon="2.83709">
        <ele>22.25</ele>
        <time>2021-08-07T11:36:21Z</time>
      </trkpt>
      <trkpt lat="50.67009" lon="2.83748">
        <ele>22.25</ele>
        <time>2021-08-07T11:36:30Z</time>
      </trkpt>
      <trkpt lat="50.66993" lon="2.8378">
        <ele>22.25</ele>
        <time>2021-08-07T11:36:36Z</time>
      </trkpt>
      <trkpt lat="50.66971" lon="2.83844">
        <ele>22.73</ele>
        <time>2021-08-07T11:36:47Z</time>
      </trkpt>
      <trkpt lat="50.66976" lon="2.83872">
        <ele>22.73</ele>
        <time>2021-08-07T11:36:52Z</time>
      </trkpt>
      <trkpt lat="50.66985" lon="2.83899">
        <ele>22.73</ele>
        <time>2021-08-07T11:36:57Z</time>
      </trkpt>
      <trkpt lat="50.66998" lon="2.83936">
        <ele>22.73</ele>
        <time>2021-08-07T11:37:04Z</time>
      </trkpt>
      <trkpt lat="50.6701" lon="2.83975">
        <ele>22.73</ele>
        <time>2021-08-07T11:37:11Z</time>
      </trkpt>
      <trkpt lat="50.67015" lon="2.83985">
        <ele>22.73</ele>
        <time>2021-08-07T11:37:13Z</time>
      </trkpt>
      <trkpt lat="50.67018" lon="2.8399">
        <ele>22.73</ele>
        <time>2021-08-07T11:37:14Z</time>
      </trkpt>
      <trkpt lat="50.6702" lon="2.83995">
        <ele>22.73</ele>
        <time>2021-08-07T11:37:15Z</time>
      </trkpt>
      <trkpt lat="50.67022" lon="2.84001">
        <ele>22.73</ele>
        <time>2021-08-07T11:37:16Z</time>
      </trkpt>
      <trkpt lat="50.67023" lon="2.84006">
        <ele>22.73</ele>
        <time>2021-08-07T11:37:17Z</time>
      </trkpt>
      <trkpt lat="50.67025" lon="2.84011">
        <ele>22.73</ele>
        <time>2021-08-07T11:37:18Z</time>
      </trkpt>
      <trkpt lat="50.67027" lon="2.84017">
        <ele>23.21</ele>
        <time>2021-08-07T11:37:19Z</time>
      </trkpt>
      <trkpt lat="50.67034" lon="2.84033">
        <ele>23.21</ele>
        <time>2021-08-07T11:37:22Z</time>
      </trkpt>
      <trkpt lat="50.67036" lon="2.84039">
        <ele>23.21</ele>
        <time>2021-08-07T11:37:23Z</time>
      </trkpt>
      <trkpt lat="50.6704" lon="2.84052">
        <ele>23.21</ele>
        <time>2021-08-07T11:37:25Z</time>
      </trkpt>
      <trkpt lat="50.67053" lon="2.84086">
        <ele>22.25</ele>
        <time>2021-08-07T11:37:32Z</time>
      </trkpt>
      <trkpt lat="50.67066" lon="2.8412">
        <ele>22.25</ele>
        <time>2021-08-07T11:37:38Z</time>
      </trkpt>
      <trkpt lat="50.67076" lon="2.84149">
        <ele>22.25</ele>
        <time>2021-08-07T11:37:43Z</time>
      </trkpt>
      <trkpt lat="50.67089" lon="2.84178">
        <ele>22.25</ele>
        <time>2021-08-07T11:37:48Z</time>
      </trkpt>
      <trkpt lat="50.67091" lon="2.84184">
        <ele>22.25</ele>
        <time>2021-08-07T11:37:49Z</time>
      </trkpt>
      <trkpt lat="50.67093" lon="2.84191">
        <ele>22.25</ele>
        <time>2021-08-07T11:37:50Z</time>
      </trkpt>
      <trkpt lat="50.67095" lon="2.84197">
        <ele>22.25</ele>
        <time>2021-08-07T11:37:51Z</time>
      </trkpt>
      <trkpt lat="50.67097" lon="2.84204">
        <ele>22.25</ele>
        <time>2021-08-07T11:37:52Z</time>
      </trkpt>
      <trkpt lat="50.67102" lon="2.84221">
        <ele>21.77</ele>
        <time>2021-08-07T11:37:55Z</time>
      </trkpt>
      <trkpt lat="50.67109" lon="2.84239">
        <ele>21.77</ele>
        <time>2021-08-07T11:37:58Z</time>
      </trkpt>
      <trkpt lat="50.67111" lon="2.84246">
        <ele>21.77</ele>
        <time>2021-08-07T11:37:59Z</time>
      </trkpt>
      <trkpt lat="50.67115" lon="2.84258">
        <ele>21.77</ele>
        <time>2021-08-07T11:38:01Z</time>
      </trkpt>
      <trkpt lat="50.67118" lon="2.84264">
        <ele>21.77</ele>
        <time>2021-08-07T11:38:02Z</time>
      </trkpt>
      <trkpt lat="50.67121" lon="2.84269">
        <ele>21.77</ele>
        <time>2021-08-07T11:38:03Z</time>
      </trkpt>
      <trkpt lat="50.67123" lon="2.84275">
        <ele>21.77</ele>
        <time>2021-08-07T11:38:04Z</time>
      </trkpt>
      <trkpt lat="50.67124" lon="2.84281">
        <ele>21.77</ele>
        <time>2021-08-07T11:38:05Z</time>
      </trkpt>
      <trkpt lat="50.67126" lon="2.84287">
        <ele>21.77</ele>
        <time>2021-08-07T11:38:06Z</time>
      </trkpt>
      <trkpt lat="50.67129" lon="2.84294">
        <ele>21.77</ele>
        <time>2021-08-07T11:38:07Z</time>
      </trkpt>
      <trkpt lat="50.67144" lon="2.84333">
        <ele>21.77</ele>
        <time>2021-08-07T11:38:14Z</time>
      </trkpt>
      <trkpt lat="50.67154" lon="2.84363">
        <ele>21.77</ele>
        <time>2021-08-07T11:38:19Z</time>
      </trkpt>
      <trkpt lat="50.67163" lon="2.84388">
        <ele>21.77</ele>
        <time>2021-08-07T11:38:23Z</time>
      </trkpt>
      <trkpt lat="50.67165" lon="2.84394">
        <ele>21.77</ele>
        <time>2021-08-07T11:38:24Z</time>
      </trkpt>
      <trkpt lat="50.67181" lon="2.84436">
        <ele>21.77</ele>
        <time>2021-08-07T11:38:31Z</time>
      </trkpt>
      <trkpt lat="50.67183" lon="2.84442">
        <ele>21.77</ele>
        <time>2021-08-07T11:38:32Z</time>
      </trkpt>
      <trkpt lat="50.67206" lon="2.84504">
        <ele>21.77</ele>
        <time>2021-08-07T11:38:42Z</time>
      </trkpt>
      <trkpt lat="50.67212" lon="2.84522">
        <ele>21.77</ele>
        <time>2021-08-07T11:38:45Z</time>
      </trkpt>
      <trkpt lat="50.67215" lon="2.84528">
        <ele>21.77</ele>
        <time>2021-08-07T11:38:46Z</time>
      </trkpt>
      <trkpt lat="50.67216" lon="2.84534">
        <ele>21.77</ele>
        <time>2021-08-07T11:38:47Z</time>
      </trkpt>
      <trkpt lat="50.67218" lon="2.8454">
        <ele>21.77</ele>
        <time>2021-08-07T11:38:48Z</time>
      </trkpt>
      <trkpt lat="50.67221" lon="2.84544">
        <ele>21.77</ele>
        <time>2021-08-07T11:38:49Z</time>
      </trkpt>
      <trkpt lat="50.67223" lon="2.84548">
        <ele>21.77</ele>
        <time>2021-08-07T11:38:50Z</time>
      </trkpt>
      <trkpt lat="50.67224" lon="2.84554">
        <ele>21.77</ele>
        <time>2021-08-07T11:38:51Z</time>
      </trkpt>
      <trkpt lat="50.67233" lon="2.84579">
        <ele>21.77</ele>
        <time>2021-08-07T11:38:56Z</time>
      </trkpt>
      <trkpt lat="50.67234" lon="2.84585">
        <ele>21.77</ele>
        <time>2021-08-07T11:38:57Z</time>
      </trkpt>
      <trkpt lat="50.67248" lon="2.84625">
        <ele>21.29</ele>
        <time>2021-08-07T11:39:04Z</time>
      </trkpt>
      <trkpt lat="50.67268" lon="2.84676">
        <ele>21.29</ele>
        <time>2021-08-07T11:39:13Z</time>
      </trkpt>
      <trkpt lat="50.67283" lon="2.8472">
        <ele>21.29</ele>
        <time>2021-08-07T11:39:21Z</time>
      </trkpt>
      <trkpt lat="50.6729" lon="2.84739">
        <ele>21.29</ele>
        <time>2021-08-07T11:39:24Z</time>
      </trkpt>
      <trkpt lat="50.67298" lon="2.84765">
        <ele>21.29</ele>
        <time>2021-08-07T11:39:28Z</time>
      </trkpt>
      <trkpt lat="50.67301" lon="2.8477">
        <ele>21.29</ele>
        <time>2021-08-07T11:39:29Z</time>
      </trkpt>
      <trkpt lat="50.67304" lon="2.84776">
        <ele>21.29</ele>
        <time>2021-08-07T11:39:30Z</time>
      </trkpt>
      <trkpt lat="50.67307" lon="2.84782">
        <ele>21.29</ele>
        <time>2021-08-07T11:39:31Z</time>
      </trkpt>
      <trkpt lat="50.6731" lon="2.84789">
        <ele>21.29</ele>
        <time>2021-08-07T11:39:32Z</time>
      </trkpt>
      <trkpt lat="50.67328" lon="2.84836">
        <ele>21.29</ele>
        <time>2021-08-07T11:39:39Z</time>
      </trkpt>
      <trkpt lat="50.6733" lon="2.84843">
        <ele>21.29</ele>
        <time>2021-08-07T11:39:40Z</time>
      </trkpt>
      <trkpt lat="50.67332" lon="2.84849">
        <ele>21.29</ele>
        <time>2021-08-07T11:39:41Z</time>
      </trkpt>
      <trkpt lat="50.67339" lon="2.84874">
        <ele>21.29</ele>
        <time>2021-08-07T11:39:45Z</time>
      </trkpt>
      <trkpt lat="50.67342" lon="2.8488">
        <ele>21.29</ele>
        <time>2021-08-07T11:39:46Z</time>
      </trkpt>
      <trkpt lat="50.67347" lon="2.84891">
        <ele>21.29</ele>
        <time>2021-08-07T11:39:48Z</time>
      </trkpt>
      <trkpt lat="50.67363" lon="2.84939">
        <ele>21.29</ele>
        <time>2021-08-07T11:39:55Z</time>
      </trkpt>
      <trkpt lat="50.67376" lon="2.84974">
        <ele>20.32</ele>
        <time>2021-08-07T11:40:00Z</time>
      </trkpt>
      <trkpt lat="50.67379" lon="2.8498">
        <ele>19.84</ele>
        <time>2021-08-07T11:40:01Z</time>
      </trkpt>
      <trkpt lat="50.67382" lon="2.84986">
        <ele>19.84</ele>
        <time>2021-08-07T11:40:02Z</time>
      </trkpt>
      <trkpt lat="50.67384" lon="2.84992">
        <ele>19.84</ele>
        <time>2021-08-07T11:40:03Z</time>
      </trkpt>
      <trkpt lat="50.67386" lon="2.84998">
        <ele>19.84</ele>
        <time>2021-08-07T11:40:04Z</time>
      </trkpt>
      <trkpt lat="50.67388" lon="2.85005">
        <ele>19.84</ele>
        <time>2021-08-07T11:40:05Z</time>
      </trkpt>
      <trkpt lat="50.67396" lon="2.85023">
        <ele>19.84</ele>
        <time>2021-08-07T11:40:09Z</time>
      </trkpt>
      <trkpt lat="50.67393" lon="2.85016">
        <ele>19.84</ele>
        <time>2021-08-07T11:40:12Z</time>
      </trkpt>
      <trkpt lat="50.67391" lon="2.85014">
        <ele>19.84</ele>
        <time>2021-08-07T11:40:13Z</time>
      </trkpt>
      <trkpt lat="50.6739" lon="2.85012">
        <ele>19.84</ele>
        <time>2021-08-07T11:40:14Z</time>
      </trkpt>
      <trkpt lat="50.67389" lon="2.8501">
        <ele>19.84</ele>
        <time>2021-08-07T11:40:15Z</time>
      </trkpt>
      <trkpt lat="50.67389" lon="2.8501">
        <ele>19.84</ele>
        <time>2021-08-07T11:40:20Z</time>
      </trkpt>
      <trkpt lat="50.67389" lon="2.85012">
        <ele>19.84</ele>
        <time>2021-08-07T11:40:26Z</time>
      </trkpt>
      <trkpt lat="50.67389" lon="2.85018">
        <ele>19.84</ele>
        <time>2021-08-07T11:40:30Z</time>
      </trkpt>
      <trkpt lat="50.6739" lon="2.85019">
        <ele>19.84</ele>
        <time>2021-08-07T11:40:31Z</time>
      </trkpt>
      <trkpt lat="50.674" lon="2.85041">
        <ele>19.84</ele>
        <time>2021-08-07T11:40:38Z</time>
      </trkpt>
      <trkpt lat="50.67405" lon="2.85058">
        <ele>19.84</ele>
        <time>2021-08-07T11:40:43Z</time>
      </trkpt>
      <trkpt lat="50.67404" lon="2.85061">
        <ele>19.84</ele>
        <time>2021-08-07T11:40:44Z</time>
      </trkpt>
      <trkpt lat="50.67402" lon="2.85062">
        <ele>19.84</ele>
        <time>2021-08-07T11:40:45Z</time>
      </trkpt>
      <trkpt lat="50.674" lon="2.85063">
        <ele>19.84</ele>
        <time>2021-08-07T11:40:46Z</time>
      </trkpt>
      <trkpt lat="50.67396" lon="2.85064">
        <ele>19.84</ele>
        <time>2021-08-07T11:40:47Z</time>
      </trkpt>
      <trkpt lat="50.67388" lon="2.85066">
        <ele>19.36</ele>
        <time>2021-08-07T11:40:49Z</time>
      </trkpt>
      <trkpt lat="50.6738" lon="2.85071">
        <ele>18.88</ele>
        <time>2021-08-07T11:40:51Z</time>
      </trkpt>
      <trkpt lat="50.67376" lon="2.85074">
        <ele>18.88</ele>
        <time>2021-08-07T11:40:52Z</time>
      </trkpt>
      <trkpt lat="50.67372" lon="2.85076">
        <ele>18.88</ele>
        <time>2021-08-07T11:40:53Z</time>
      </trkpt>
      <trkpt lat="50.67364" lon="2.8508">
        <ele>18.88</ele>
        <time>2021-08-07T11:40:55Z</time>
      </trkpt>
      <trkpt lat="50.6736" lon="2.85083">
        <ele>18.88</ele>
        <time>2021-08-07T11:40:56Z</time>
      </trkpt>
      <trkpt lat="50.67356" lon="2.85086">
        <ele>18.88</ele>
        <time>2021-08-07T11:40:57Z</time>
      </trkpt>
      <trkpt lat="50.67352" lon="2.85088">
        <ele>18.88</ele>
        <time>2021-08-07T11:40:58Z</time>
      </trkpt>
      <trkpt lat="50.67348" lon="2.85089">
        <ele>18.88</ele>
        <time>2021-08-07T11:40:59Z</time>
      </trkpt>
      <trkpt lat="50.6733" lon="2.851">
        <ele>16.96</ele>
        <time>2021-08-07T11:41:03Z</time>
      </trkpt>
      <trkpt lat="50.67318" lon="2.8511">
        <ele>18.4</ele>
        <time>2021-08-07T11:41:06Z</time>
      </trkpt>
      <trkpt lat="50.67287" lon="2.85155">
        <ele>18.88</ele>
        <time>2021-08-07T11:41:15Z</time>
      </trkpt>
      <trkpt lat="50.67284" lon="2.8516">
        <ele>18.88</ele>
        <time>2021-08-07T11:41:16Z</time>
      </trkpt>
      <trkpt lat="50.67257" lon="2.85212">
        <ele>20.81</ele>
        <time>2021-08-07T11:41:25Z</time>
      </trkpt>
      <trkpt lat="50.67225" lon="2.85252">
        <ele>20.32</ele>
        <time>2021-08-07T11:41:34Z</time>
      </trkpt>
      <trkpt lat="50.67218" lon="2.8526">
        <ele>20.32</ele>
        <time>2021-08-07T11:41:36Z</time>
      </trkpt>
      <trkpt lat="50.67214" lon="2.85264">
        <ele>20.32</ele>
        <time>2021-08-07T11:41:37Z</time>
      </trkpt>
      <trkpt lat="50.6721" lon="2.85269">
        <ele>20.32</ele>
        <time>2021-08-07T11:41:38Z</time>
      </trkpt>
      <trkpt lat="50.67207" lon="2.85274">
        <ele>20.32</ele>
        <time>2021-08-07T11:41:39Z</time>
      </trkpt>
      <trkpt lat="50.67204" lon="2.85278">
        <ele>20.32</ele>
        <time>2021-08-07T11:41:40Z</time>
      </trkpt>
      <trkpt lat="50.67201" lon="2.85283">
        <ele>20.32</ele>
        <time>2021-08-07T11:41:41Z</time>
      </trkpt>
      <trkpt lat="50.67198" lon="2.85288">
        <ele>20.81</ele>
        <time>2021-08-07T11:41:42Z</time>
      </trkpt>
      <trkpt lat="50.67186" lon="2.85307">
        <ele>19.36</ele>
        <time>2021-08-07T11:41:46Z</time>
      </trkpt>
      <trkpt lat="50.67176" lon="2.85324">
        <ele>20.81</ele>
        <time>2021-08-07T11:41:49Z</time>
      </trkpt>
      <trkpt lat="50.67173" lon="2.85329">
        <ele>21.29</ele>
        <time>2021-08-07T11:41:50Z</time>
      </trkpt>
      <trkpt lat="50.67161" lon="2.85349">
        <ele>20.81</ele>
        <time>2021-08-07T11:41:54Z</time>
      </trkpt>
      <trkpt lat="50.67129" lon="2.85403">
        <ele>20.81</ele>
        <time>2021-08-07T11:42:04Z</time>
      </trkpt>
      <trkpt lat="50.67097" lon="2.85455">
        <ele>20.32</ele>
        <time>2021-08-07T11:42:14Z</time>
      </trkpt>
      <trkpt lat="50.67062" lon="2.85489">
        <ele>20.32</ele>
        <time>2021-08-07T11:42:23Z</time>
      </trkpt>
      <trkpt lat="50.67023" lon="2.8552">
        <ele>20.32</ele>
        <time>2021-08-07T11:42:32Z</time>
      </trkpt>
      <trkpt lat="50.67001" lon="2.85538">
        <ele>21.29</ele>
        <time>2021-08-07T11:42:37Z</time>
      </trkpt>
      <trkpt lat="50.66977" lon="2.85566">
        <ele>21.29</ele>
        <time>2021-08-07T11:42:43Z</time>
      </trkpt>
      <trkpt lat="50.66973" lon="2.85571">
        <ele>21.29</ele>
        <time>2021-08-07T11:42:44Z</time>
      </trkpt>
      <trkpt lat="50.6696" lon="2.85596">
        <ele>19.84</ele>
        <time>2021-08-07T11:42:48Z</time>
      </trkpt>
      <trkpt lat="50.66924" lon="2.85654">
        <ele>19.84</ele>
        <time>2021-08-07T11:42:59Z</time>
      </trkpt>
      <trkpt lat="50.66888" lon="2.85686">
        <ele>21.29</ele>
        <time>2021-08-07T11:43:08Z</time>
      </trkpt>
      <trkpt lat="50.66856" lon="2.8571">
        <ele>21.29</ele>
        <time>2021-08-07T11:43:16Z</time>
      </trkpt>
      <trkpt lat="50.66816" lon="2.85741">
        <ele>21.77</ele>
        <time>2021-08-07T11:43:26Z</time>
      </trkpt>
      <trkpt lat="50.66803" lon="2.85748">
        <ele>20.32</ele>
        <time>2021-08-07T11:43:29Z</time>
      </trkpt>
      <trkpt lat="50.6676" lon="2.85767">
        <ele>20.32</ele>
        <time>2021-08-07T11:43:39Z</time>
      </trkpt>
      <trkpt lat="50.66704" lon="2.85786">
        <ele>21.29</ele>
        <time>2021-08-07T11:43:52Z</time>
      </trkpt>
      <trkpt lat="50.66661" lon="2.85802">
        <ele>20.32</ele>
        <time>2021-08-07T11:44:02Z</time>
      </trkpt>
      <trkpt lat="50.66618" lon="2.85822">
        <ele>20.32</ele>
        <time>2021-08-07T11:44:12Z</time>
      </trkpt>
      <trkpt lat="50.66575" lon="2.85849">
        <ele>19.36</ele>
        <time>2021-08-07T11:44:22Z</time>
      </trkpt>
      <trkpt lat="50.66537" lon="2.85878">
        <ele>20.32</ele>
        <time>2021-08-07T11:44:31Z</time>
      </trkpt>
      <trkpt lat="50.66489" lon="2.85919">
        <ele>20.81</ele>
        <time>2021-08-07T11:44:43Z</time>
      </trkpt>
      <trkpt lat="50.66451" lon="2.85943">
        <ele>20.32</ele>
        <time>2021-08-07T11:44:52Z</time>
      </trkpt>
      <trkpt lat="50.66424" lon="2.85951">
        <ele>20.32</ele>
        <time>2021-08-07T11:44:58Z</time>
      </trkpt>
      <trkpt lat="50.66373" lon="2.85962">
        <ele>20.32</ele>
        <time>2021-08-07T11:45:10Z</time>
      </trkpt>
      <trkpt lat="50.66334" lon="2.85967">
        <ele>20.32</ele>
        <time>2021-08-07T11:45:19Z</time>
      </trkpt>
      <trkpt lat="50.6633" lon="2.85967">
        <ele>20.32</ele>
        <time>2021-08-07T11:45:20Z</time>
      </trkpt>
      <trkpt lat="50.66326" lon="2.85967">
        <ele>20.32</ele>
        <time>2021-08-07T11:45:21Z</time>
      </trkpt>
      <trkpt lat="50.66322" lon="2.85967">
        <ele>20.32</ele>
        <time>2021-08-07T11:45:22Z</time>
      </trkpt>
      <trkpt lat="50.66283" lon="2.85972">
        <ele>20.32</ele>
        <time>2021-08-07T11:45:32Z</time>
      </trkpt>
      <trkpt lat="50.6625" lon="2.85986">
        <ele>20.32</ele>
        <time>2021-08-07T11:45:41Z</time>
      </trkpt>
      <trkpt lat="50.66205" lon="2.86011">
        <ele>20.81</ele>
        <time>2021-08-07T11:45:53Z</time>
      </trkpt>
      <trkpt lat="50.6616" lon="2.86038">
        <ele>20.81</ele>
        <time>2021-08-07T11:46:05Z</time>
      </trkpt>
      <trkpt lat="50.66141" lon="2.86049">
        <ele>20.81</ele>
        <time>2021-08-07T11:46:10Z</time>
      </trkpt>
      <trkpt lat="50.66114" lon="2.86062">
        <ele>21.29</ele>
        <time>2021-08-07T11:46:17Z</time>
      </trkpt>
      <trkpt lat="50.66081" lon="2.86083">
        <ele>21.29</ele>
        <time>2021-08-07T11:46:26Z</time>
      </trkpt>
      <trkpt lat="50.66067" lon="2.86083">
        <ele>21.29</ele>
        <time>2021-08-07T11:46:30Z</time>
      </trkpt>
      <trkpt lat="50.66065" lon="2.8608">
        <ele>21.77</ele>
        <time>2021-08-07T11:46:31Z</time>
      </trkpt>
      <trkpt lat="50.66063" lon="2.86075">
        <ele>21.77</ele>
        <time>2021-08-07T11:46:32Z</time>
      </trkpt>
      <trkpt lat="50.66062" lon="2.86071">
        <ele>21.77</ele>
        <time>2021-08-07T11:46:33Z</time>
      </trkpt>
      <trkpt lat="50.66061" lon="2.86065">
        <ele>21.77</ele>
        <time>2021-08-07T11:46:34Z</time>
      </trkpt>
      <trkpt lat="50.66044" lon="2.86005">
        <ele>21.77</ele>
        <time>2021-08-07T11:46:44Z</time>
      </trkpt>
      <trkpt lat="50.66018" lon="2.8594">
        <ele>21.77</ele>
        <time>2021-08-07T11:46:55Z</time>
      </trkpt>
      <trkpt lat="50.65987" lon="2.8588">
        <ele>21.77</ele>
        <time>2021-08-07T11:47:06Z</time>
      </trkpt>
      <trkpt lat="50.65971" lon="2.8585">
        <ele>21.77</ele>
        <time>2021-08-07T11:47:13Z</time>
      </trkpt>
      <trkpt lat="50.65969" lon="2.85845">
        <ele>21.77</ele>
        <time>2021-08-07T11:47:14Z</time>
      </trkpt>
      <trkpt lat="50.65968" lon="2.85843">
        <ele>21.77</ele>
        <time>2021-08-07T11:47:15Z</time>
      </trkpt>
      <trkpt lat="50.65967" lon="2.85841">
        <ele>21.77</ele>
        <time>2021-08-07T11:47:16Z</time>
      </trkpt>
      <trkpt lat="50.65965" lon="2.85839">
        <ele>21.77</ele>
        <time>2021-08-07T11:47:17Z</time>
      </trkpt>
      <trkpt lat="50.65963" lon="2.85839">
        <ele>21.77</ele>
        <time>2021-08-07T11:47:18Z</time>
      </trkpt>
      <trkpt lat="50.65961" lon="2.85841">
        <ele>21.77</ele>
        <time>2021-08-07T11:47:19Z</time>
      </trkpt>
      <trkpt lat="50.65959" lon="2.85845">
        <ele>21.77</ele>
        <time>2021-08-07T11:47:20Z</time>
      </trkpt>
      <trkpt lat="50.65959" lon="2.8585">
        <ele>21.77</ele>
        <time>2021-08-07T11:47:21Z</time>
      </trkpt>
      <trkpt lat="50.6596" lon="2.85855">
        <ele>21.77</ele>
        <time>2021-08-07T11:47:22Z</time>
      </trkpt>
      <trkpt lat="50.65961" lon="2.8586">
        <ele>21.77</ele>
        <time>2021-08-07T11:47:23Z</time>
      </trkpt>
      <trkpt lat="50.65967" lon="2.85905">
        <ele>22.25</ele>
        <time>2021-08-07T11:47:31Z</time>
      </trkpt>
      <trkpt lat="50.6597" lon="2.85931">
        <ele>22.25</ele>
        <time>2021-08-07T11:47:35Z</time>
      </trkpt>
      <trkpt lat="50.6597" lon="2.85937">
        <ele>22.25</ele>
        <time>2021-08-07T11:47:36Z</time>
      </trkpt>
      <trkpt lat="50.65973" lon="2.8595">
        <ele>22.73</ele>
        <time>2021-08-07T11:47:38Z</time>
      </trkpt>
      <trkpt lat="50.65977" lon="2.85963">
        <ele>22.73</ele>
        <time>2021-08-07T11:47:40Z</time>
      </trkpt>
      <trkpt lat="50.65978" lon="2.85969">
        <ele>22.73</ele>
        <time>2021-08-07T11:47:41Z</time>
      </trkpt>
      <trkpt lat="50.6598" lon="2.85975">
        <ele>22.73</ele>
        <time>2021-08-07T11:47:42Z</time>
      </trkpt>
      <trkpt lat="50.65982" lon="2.85982">
        <ele>22.73</ele>
        <time>2021-08-07T11:47:43Z</time>
      </trkpt>
      <trkpt lat="50.65983" lon="2.85989">
        <ele>22.73</ele>
        <time>2021-08-07T11:47:44Z</time>
      </trkpt>
      <trkpt lat="50.65983" lon="2.85995">
        <ele>22.73</ele>
        <time>2021-08-07T11:47:45Z</time>
      </trkpt>
      <trkpt lat="50.65983" lon="2.86002">
        <ele>22.73</ele>
        <time>2021-08-07T11:47:46Z</time>
      </trkpt>
      <trkpt lat="50.65982" lon="2.8601">
        <ele>22.73</ele>
        <time>2021-08-07T11:47:47Z</time>
      </trkpt>
      <trkpt lat="50.65981" lon="2.86017">
        <ele>21.29</ele>
        <time>2021-08-07T11:47:48Z</time>
      </trkpt>
      <trkpt lat="50.65979" lon="2.86024">
        <ele>21.29</ele>
        <time>2021-08-07T11:47:49Z</time>
      </trkpt>
      <trkpt lat="50.65977" lon="2.86032">
        <ele>20.81</ele>
        <time>2021-08-07T11:47:50Z</time>
      </trkpt>
      <trkpt lat="50.65964" lon="2.86069">
        <ele>20.32</ele>
        <time>2021-08-07T11:47:55Z</time>
      </trkpt>
      <trkpt lat="50.6596" lon="2.86075">
        <ele>20.32</ele>
        <time>2021-08-07T11:47:56Z</time>
      </trkpt>
      <trkpt lat="50.65956" lon="2.8608">
        <ele>19.36</ele>
        <time>2021-08-07T11:47:57Z</time>
      </trkpt>
      <trkpt lat="50.65951" lon="2.86085">
        <ele>19.36</ele>
        <time>2021-08-07T11:47:58Z</time>
      </trkpt>
      <trkpt lat="50.65946" lon="2.8609">
        <ele>19.36</ele>
        <time>2021-08-07T11:47:59Z</time>
      </trkpt>
      <trkpt lat="50.65907" lon="2.86124">
        <ele>19.36</ele>
        <time>2021-08-07T11:48:08Z</time>
      </trkpt>
      <trkpt lat="50.6586" lon="2.86167">
        <ele>19.36</ele>
        <time>2021-08-07T11:48:19Z</time>
      </trkpt>
      <trkpt lat="50.65818" lon="2.86206">
        <ele>18.88</ele>
        <time>2021-08-07T11:48:29Z</time>
      </trkpt>
      <trkpt lat="50.6579" lon="2.86232">
        <ele>20.32</ele>
        <time>2021-08-07T11:48:36Z</time>
      </trkpt>
      <trkpt lat="50.6575" lon="2.86271">
        <ele>20.32</ele>
        <time>2021-08-07T11:48:46Z</time>
      </trkpt>
      <trkpt lat="50.6571" lon="2.86309">
        <ele>20.81</ele>
        <time>2021-08-07T11:48:56Z</time>
      </trkpt>
      <trkpt lat="50.65663" lon="2.86351">
        <ele>20.81</ele>
        <time>2021-08-07T11:49:07Z</time>
      </trkpt>
      <trkpt lat="50.65613" lon="2.86397">
        <ele>20.81</ele>
        <time>2021-08-07T11:49:19Z</time>
      </trkpt>
      <trkpt lat="50.65559" lon="2.86446">
        <ele>20.81</ele>
        <time>2021-08-07T11:49:32Z</time>
      </trkpt>
      <trkpt lat="50.65555" lon="2.86449">
        <ele>20.81</ele>
        <time>2021-08-07T11:49:33Z</time>
      </trkpt>
      <trkpt lat="50.65551" lon="2.86453">
        <ele>20.81</ele>
        <time>2021-08-07T11:49:34Z</time>
      </trkpt>
      <trkpt lat="50.65517" lon="2.86485">
        <ele>21.77</ele>
        <time>2021-08-07T11:49:42Z</time>
      </trkpt>
      <trkpt lat="50.65474" lon="2.86524">
        <ele>22.25</ele>
        <time>2021-08-07T11:49:52Z</time>
      </trkpt>
      <trkpt lat="50.65427" lon="2.86563">
        <ele>20.81</ele>
        <time>2021-08-07T11:50:02Z</time>
      </trkpt>
      <trkpt lat="50.65385" lon="2.86597">
        <ele>20.81</ele>
        <time>2021-08-07T11:50:11Z</time>
      </trkpt>
      <trkpt lat="50.65353" lon="2.86628">
        <ele>21.77</ele>
        <time>2021-08-07T11:50:18Z</time>
      </trkpt>
      <trkpt lat="50.65308" lon="2.86671">
        <ele>21.77</ele>
        <time>2021-08-07T11:50:28Z</time>
      </trkpt>
      <trkpt lat="50.65258" lon="2.8672">
        <ele>21.77</ele>
        <time>2021-08-07T11:50:39Z</time>
      </trkpt>
      <trkpt lat="50.6521" lon="2.86773">
        <ele>21.77</ele>
        <time>2021-08-07T11:50:50Z</time>
      </trkpt>
      <trkpt lat="50.65159" lon="2.86823">
        <ele>21.77</ele>
        <time>2021-08-07T11:51:01Z</time>
      </trkpt>
      <trkpt lat="50.65107" lon="2.86868">
        <ele>21.77</ele>
        <time>2021-08-07T11:51:12Z</time>
      </trkpt>
      <trkpt lat="50.65062" lon="2.86906">
        <ele>20.81</ele>
        <time>2021-08-07T11:51:22Z</time>
      </trkpt>
      <trkpt lat="50.65032" lon="2.86926">
        <ele>20.32</ele>
        <time>2021-08-07T11:51:30Z</time>
      </trkpt>
      <trkpt lat="50.65029" lon="2.86928">
        <ele>20.32</ele>
        <time>2021-08-07T11:51:31Z</time>
      </trkpt>
      <trkpt lat="50.65025" lon="2.86931">
        <ele>20.32</ele>
        <time>2021-08-07T11:51:32Z</time>
      </trkpt>
      <trkpt lat="50.64983" lon="2.86963">
        <ele>20.32</ele>
        <time>2021-08-07T11:51:42Z</time>
      </trkpt>
      <trkpt lat="50.64941" lon="2.86992">
        <ele>21.77</ele>
        <time>2021-08-07T11:51:52Z</time>
      </trkpt>
      <trkpt lat="50.64898" lon="2.87024">
        <ele>22.25</ele>
        <time>2021-08-07T11:52:02Z</time>
      </trkpt>
      <trkpt lat="50.64874" lon="2.87036">
        <ele>21.77</ele>
        <time>2021-08-07T11:52:09Z</time>
      </trkpt>
      <trkpt lat="50.64871" lon="2.87037">
        <ele>21.77</ele>
        <time>2021-08-07T11:52:11Z</time>
      </trkpt>
      <trkpt lat="50.64869" lon="2.87039">
        <ele>22.73</ele>
        <time>2021-08-07T11:52:12Z</time>
      </trkpt>
      <trkpt lat="50.64867" lon="2.87041">
        <ele>22.73</ele>
        <time>2021-08-07T11:52:13Z</time>
      </trkpt>
      <trkpt lat="50.6485" lon="2.8705">
        <ele>22.73</ele>
        <time>2021-08-07T11:52:18Z</time>
      </trkpt>
      <trkpt lat="50.64845" lon="2.87049">
        <ele>22.73</ele>
        <time>2021-08-07T11:52:19Z</time>
      </trkpt>
      <trkpt lat="50.64842" lon="2.87048">
        <ele>22.73</ele>
        <time>2021-08-07T11:52:20Z</time>
      </trkpt>
      <trkpt lat="50.64822" lon="2.87047">
        <ele>22.73</ele>
        <time>2021-08-07T11:52:25Z</time>
      </trkpt>
      <trkpt lat="50.64817" lon="2.8705">
        <ele>22.73</ele>
        <time>2021-08-07T11:52:26Z</time>
      </trkpt>
      <trkpt lat="50.64813" lon="2.87053">
        <ele>22.73</ele>
        <time>2021-08-07T11:52:27Z</time>
      </trkpt>
      <trkpt lat="50.64792" lon="2.87075">
        <ele>22.73</ele>
        <time>2021-08-07T11:52:33Z</time>
      </trkpt>
      <trkpt lat="50.64787" lon="2.8708">
        <ele>22.73</ele>
        <time>2021-08-07T11:52:34Z</time>
      </trkpt>
      <trkpt lat="50.64771" lon="2.87092">
        <ele>22.73</ele>
        <time>2021-08-07T11:52:38Z</time>
      </trkpt>
      <trkpt lat="50.64763" lon="2.87098">
        <ele>22.73</ele>
        <time>2021-08-07T11:52:40Z</time>
      </trkpt>
      <trkpt lat="50.64739" lon="2.87123">
        <ele>22.73</ele>
        <time>2021-08-07T11:52:46Z</time>
      </trkpt>
      <trkpt lat="50.64736" lon="2.87129">
        <ele>22.73</ele>
        <time>2021-08-07T11:52:47Z</time>
      </trkpt>
      <trkpt lat="50.64733" lon="2.87136">
        <ele>22.73</ele>
        <time>2021-08-07T11:52:48Z</time>
      </trkpt>
      <trkpt lat="50.64726" lon="2.87153">
        <ele>22.73</ele>
        <time>2021-08-07T11:52:51Z</time>
      </trkpt>
      <trkpt lat="50.64723" lon="2.87157">
        <ele>22.73</ele>
        <time>2021-08-07T11:52:52Z</time>
      </trkpt>
      <trkpt lat="50.64719" lon="2.87161">
        <ele>22.73</ele>
        <time>2021-08-07T11:52:53Z</time>
      </trkpt>
      <trkpt lat="50.6468" lon="2.87194">
        <ele>23.21</ele>
        <time>2021-08-07T11:53:03Z</time>
      </trkpt>
      <trkpt lat="50.64643" lon="2.87231">
        <ele>23.21</ele>
        <time>2021-08-07T11:53:12Z</time>
      </trkpt>
      <trkpt lat="50.6463" lon="2.87245">
        <ele>21.77</ele>
        <time>2021-08-07T11:53:15Z</time>
      </trkpt>
      <trkpt lat="50.64627" lon="2.87251">
        <ele>21.77</ele>
        <time>2021-08-07T11:53:16Z</time>
      </trkpt>
      <trkpt lat="50.64625" lon="2.87258">
        <ele>21.77</ele>
        <time>2021-08-07T11:53:17Z</time>
      </trkpt>
      <trkpt lat="50.6461" lon="2.87324">
        <ele>21.77</ele>
        <time>2021-08-07T11:53:26Z</time>
      </trkpt>
      <trkpt lat="50.64594" lon="2.87395">
        <ele>21.77</ele>
        <time>2021-08-07T11:53:36Z</time>
      </trkpt>
      <trkpt lat="50.64588" lon="2.87424">
        <ele>22.73</ele>
        <time>2021-08-07T11:53:40Z</time>
      </trkpt>
      <trkpt lat="50.64589" lon="2.87431">
        <ele>22.73</ele>
        <time>2021-08-07T11:53:41Z</time>
      </trkpt>
      <trkpt lat="50.6459" lon="2.87438">
        <ele>22.73</ele>
        <time>2021-08-07T11:53:42Z</time>
      </trkpt>
      <trkpt lat="50.64592" lon="2.87445">
        <ele>22.73</ele>
        <time>2021-08-07T11:53:43Z</time>
      </trkpt>
      <trkpt lat="50.64595" lon="2.87452">
        <ele>22.73</ele>
        <time>2021-08-07T11:53:44Z</time>
      </trkpt>
      <trkpt lat="50.64597" lon="2.87458">
        <ele>22.73</ele>
        <time>2021-08-07T11:53:45Z</time>
      </trkpt>
      <trkpt lat="50.64602" lon="2.87471">
        <ele>22.73</ele>
        <time>2021-08-07T11:53:47Z</time>
      </trkpt>
      <trkpt lat="50.64605" lon="2.87477">
        <ele>22.73</ele>
        <time>2021-08-07T11:53:48Z</time>
      </trkpt>
      <trkpt lat="50.6463" lon="2.87542">
        <ele>21.77</ele>
        <time>2021-08-07T11:53:58Z</time>
      </trkpt>
      <trkpt lat="50.64659" lon="2.87616">
        <ele>21.77</ele>
        <time>2021-08-07T11:54:09Z</time>
      </trkpt>
      <trkpt lat="50.64668" lon="2.87649">
        <ele>21.77</ele>
        <time>2021-08-07T11:54:15Z</time>
      </trkpt>
      <trkpt lat="50.64668" lon="2.87652">
        <ele>21.77</ele>
        <time>2021-08-07T11:54:17Z</time>
      </trkpt>
      <trkpt lat="50.64667" lon="2.87655">
        <ele>21.77</ele>
        <time>2021-08-07T11:54:18Z</time>
      </trkpt>
      <trkpt lat="50.64665" lon="2.87657">
        <ele>21.77</ele>
        <time>2021-08-07T11:54:19Z</time>
      </trkpt>
      <trkpt lat="50.64645" lon="2.87675">
        <ele>21.77</ele>
        <time>2021-08-07T11:54:25Z</time>
      </trkpt>
      <trkpt lat="50.64602" lon="2.87717">
        <ele>21.77</ele>
        <time>2021-08-07T11:54:36Z</time>
      </trkpt>
      <trkpt lat="50.64594" lon="2.87726">
        <ele>21.77</ele>
        <time>2021-08-07T11:54:38Z</time>
      </trkpt>
      <trkpt lat="50.64584" lon="2.8774">
        <ele>21.77</ele>
        <time>2021-08-07T11:54:41Z</time>
      </trkpt>
      <trkpt lat="50.64579" lon="2.87743">
        <ele>21.77</ele>
        <time>2021-08-07T11:54:42Z</time>
      </trkpt>
      <trkpt lat="50.64571" lon="2.8775">
        <ele>21.77</ele>
        <time>2021-08-07T11:54:44Z</time>
      </trkpt>
      <trkpt lat="50.64567" lon="2.87754">
        <ele>21.77</ele>
        <time>2021-08-07T11:54:45Z</time>
      </trkpt>
      <trkpt lat="50.64563" lon="2.87759">
        <ele>21.77</ele>
        <time>2021-08-07T11:54:46Z</time>
      </trkpt>
      <trkpt lat="50.64559" lon="2.87763">
        <ele>21.77</ele>
        <time>2021-08-07T11:54:47Z</time>
      </trkpt>
      <trkpt lat="50.64555" lon="2.87766">
        <ele>21.77</ele>
        <time>2021-08-07T11:54:48Z</time>
      </trkpt>
      <trkpt lat="50.6455" lon="2.87769">
        <ele>21.77</ele>
        <time>2021-08-07T11:54:49Z</time>
      </trkpt>
      <trkpt lat="50.64505" lon="2.87805">
        <ele>21.77</ele>
        <time>2021-08-07T11:54:59Z</time>
      </trkpt>
      <trkpt lat="50.64461" lon="2.87844">
        <ele>21.77</ele>
        <time>2021-08-07T11:55:09Z</time>
      </trkpt>
      <trkpt lat="50.64421" lon="2.87881">
        <ele>21.29</ele>
        <time>2021-08-07T11:55:18Z</time>
      </trkpt>
      <trkpt lat="50.64366" lon="2.87916">
        <ele>21.29</ele>
        <time>2021-08-07T11:55:30Z</time>
      </trkpt>
      <trkpt lat="50.64314" lon="2.87946">
        <ele>20.81</ele>
        <time>2021-08-07T11:55:41Z</time>
      </trkpt>
      <trkpt lat="50.64281" lon="2.87965">
        <ele>22.73</ele>
        <time>2021-08-07T11:55:48Z</time>
      </trkpt>
      <trkpt lat="50.64224" lon="2.87998">
        <ele>22.25</ele>
        <time>2021-08-07T11:56:00Z</time>
      </trkpt>
      <trkpt lat="50.64169" lon="2.88029">
        <ele>22.73</ele>
        <time>2021-08-07T11:56:12Z</time>
      </trkpt>
      <trkpt lat="50.64113" lon="2.88061">
        <ele>23.21</ele>
        <time>2021-08-07T11:56:24Z</time>
      </trkpt>
      <trkpt lat="50.64065" lon="2.88089">
        <ele>21.77</ele>
        <time>2021-08-07T11:56:34Z</time>
      </trkpt>
      <trkpt lat="50.6406" lon="2.88092">
        <ele>21.77</ele>
        <time>2021-08-07T11:56:35Z</time>
      </trkpt>
      <trkpt lat="50.64023" lon="2.88113">
        <ele>21.77</ele>
        <time>2021-08-07T11:56:43Z</time>
      </trkpt>
      <trkpt lat="50.64019" lon="2.88117">
        <ele>21.77</ele>
        <time>2021-08-07T11:56:44Z</time>
      </trkpt>
      <trkpt lat="50.64015" lon="2.88122">
        <ele>21.77</ele>
        <time>2021-08-07T11:56:45Z</time>
      </trkpt>
      <trkpt lat="50.64011" lon="2.88127">
        <ele>21.77</ele>
        <time>2021-08-07T11:56:46Z</time>
      </trkpt>
      <trkpt lat="50.64008" lon="2.88133">
        <ele>21.77</ele>
        <time>2021-08-07T11:56:47Z</time>
      </trkpt>
      <trkpt lat="50.64005" lon="2.88139">
        <ele>21.77</ele>
        <time>2021-08-07T11:56:48Z</time>
      </trkpt>
      <trkpt lat="50.64003" lon="2.88146">
        <ele>21.77</ele>
        <time>2021-08-07T11:56:49Z</time>
      </trkpt>
      <trkpt lat="50.64001" lon="2.88153">
        <ele>21.77</ele>
        <time>2021-08-07T11:56:50Z</time>
      </trkpt>
      <trkpt lat="50.64" lon="2.8816">
        <ele>21.77</ele>
        <time>2021-08-07T11:56:51Z</time>
      </trkpt>
      <trkpt lat="50.63994" lon="2.8819">
        <ele>21.77</ele>
        <time>2021-08-07T11:56:55Z</time>
      </trkpt>
      <trkpt lat="50.63993" lon="2.88197">
        <ele>21.77</ele>
        <time>2021-08-07T11:56:56Z</time>
      </trkpt>
      <trkpt lat="50.63976" lon="2.88289">
        <ele>21.77</ele>
        <time>2021-08-07T11:57:08Z</time>
      </trkpt>
      <trkpt lat="50.63963" lon="2.88349">
        <ele>21.77</ele>
        <time>2021-08-07T11:57:16Z</time>
      </trkpt>
      <trkpt lat="50.63941" lon="2.88421">
        <ele>21.77</ele>
        <time>2021-08-07T11:57:26Z</time>
      </trkpt>
      <trkpt lat="50.63931" lon="2.88449">
        <ele>21.77</ele>
        <time>2021-08-07T11:57:30Z</time>
      </trkpt>
      <trkpt lat="50.63925" lon="2.88463">
        <ele>21.77</ele>
        <time>2021-08-07T11:57:32Z</time>
      </trkpt>
      <trkpt lat="50.63922" lon="2.88469">
        <ele>21.77</ele>
        <time>2021-08-07T11:57:33Z</time>
      </trkpt>
      <trkpt lat="50.63905" lon="2.88499">
        <ele>21.77</ele>
        <time>2021-08-07T11:57:38Z</time>
      </trkpt>
      <trkpt lat="50.63863" lon="2.88571">
        <ele>22.73</ele>
        <time>2021-08-07T11:57:50Z</time>
      </trkpt>
      <trkpt lat="50.63827" lon="2.88631">
        <ele>23.21</ele>
        <time>2021-08-07T11:58:00Z</time>
      </trkpt>
      <trkpt lat="50.63787" lon="2.88697">
        <ele>23.21</ele>
        <time>2021-08-07T11:58:11Z</time>
      </trkpt>
      <trkpt lat="50.63742" lon="2.8877">
        <ele>22.25</ele>
        <time>2021-08-07T11:58:23Z</time>
      </trkpt>
      <trkpt lat="50.6371" lon="2.88823">
        <ele>22.25</ele>
        <time>2021-08-07T11:58:32Z</time>
      </trkpt>
      <trkpt lat="50.63671" lon="2.88887">
        <ele>23.21</ele>
        <time>2021-08-07T11:58:43Z</time>
      </trkpt>
      <trkpt lat="50.63643" lon="2.88932">
        <ele>21.29</ele>
        <time>2021-08-07T11:58:51Z</time>
      </trkpt>
      <trkpt lat="50.63597" lon="2.89007">
        <ele>22.73</ele>
        <time>2021-08-07T11:59:04Z</time>
      </trkpt>
      <trkpt lat="50.63556" lon="2.89073">
        <ele>22.25</ele>
        <time>2021-08-07T11:59:15Z</time>
      </trkpt>
      <trkpt lat="50.63521" lon="2.89131">
        <ele>21.77</ele>
        <time>2021-08-07T11:59:25Z</time>
      </trkpt>
      <trkpt lat="50.63469" lon="2.89217">
        <ele>21.77</ele>
        <time>2021-08-07T11:59:40Z</time>
      </trkpt>
      <trkpt lat="50.6343" lon="2.89279">
        <ele>23.21</ele>
        <time>2021-08-07T11:59:51Z</time>
      </trkpt>
      <trkpt lat="50.63399" lon="2.89317">
        <ele>23.21</ele>
        <time>2021-08-07T11:59:59Z</time>
      </trkpt>
      <trkpt lat="50.63362" lon="2.89348">
        <ele>23.21</ele>
        <time>2021-08-07T12:00:08Z</time>
      </trkpt>
      <trkpt lat="50.63341" lon="2.89368">
        <ele>21.29</ele>
        <time>2021-08-07T12:00:13Z</time>
      </trkpt>
      <trkpt lat="50.63313" lon="2.89396">
        <ele>20.81</ele>
        <time>2021-08-07T12:00:20Z</time>
      </trkpt>
      <trkpt lat="50.63279" lon="2.8943">
        <ele>21.29</ele>
        <time>2021-08-07T12:00:29Z</time>
      </trkpt>
      <trkpt lat="50.63242" lon="2.89468">
        <ele>21.77</ele>
        <time>2021-08-07T12:00:39Z</time>
      </trkpt>
      <trkpt lat="50.63231" lon="2.8948">
        <ele>20.32</ele>
        <time>2021-08-07T12:00:42Z</time>
      </trkpt>
      <trkpt lat="50.63186" lon="2.89524">
        <ele>21.29</ele>
        <time>2021-08-07T12:00:54Z</time>
      </trkpt>
      <trkpt lat="50.63152" lon="2.89554">
        <ele>21.77</ele>
        <time>2021-08-07T12:01:03Z</time>
      </trkpt>
      <trkpt lat="50.6312" lon="2.89583">
        <ele>22.25</ele>
        <time>2021-08-07T12:01:11Z</time>
      </trkpt>
      <trkpt lat="50.63085" lon="2.89623">
        <ele>23.21</ele>
        <time>2021-08-07T12:01:21Z</time>
      </trkpt>
      <trkpt lat="50.63054" lon="2.89666">
        <ele>22.73</ele>
        <time>2021-08-07T12:01:30Z</time>
      </trkpt>
      <trkpt lat="50.63015" lon="2.8972">
        <ele>23.21</ele>
        <time>2021-08-07T12:01:41Z</time>
      </trkpt>
      <trkpt lat="50.62983" lon="2.89763">
        <ele>23.21</ele>
        <time>2021-08-07T12:01:50Z</time>
      </trkpt>
      <trkpt lat="50.62976" lon="2.89772">
        <ele>23.21</ele>
        <time>2021-08-07T12:01:52Z</time>
      </trkpt>
      <trkpt lat="50.62972" lon="2.89776">
        <ele>23.21</ele>
        <time>2021-08-07T12:01:53Z</time>
      </trkpt>
      <trkpt lat="50.62968" lon="2.89782">
        <ele>23.21</ele>
        <time>2021-08-07T12:01:54Z</time>
      </trkpt>
      <trkpt lat="50.6293" lon="2.89836">
        <ele>23.21</ele>
        <time>2021-08-07T12:02:05Z</time>
      </trkpt>
      <trkpt lat="50.62892" lon="2.89893">
        <ele>23.21</ele>
        <time>2021-08-07T12:02:16Z</time>
      </trkpt>
      <trkpt lat="50.62861" lon="2.89943">
        <ele>23.21</ele>
        <time>2021-08-07T12:02:25Z</time>
      </trkpt>
      <trkpt lat="50.62838" lon="2.89981">
        <ele>22.25</ele>
        <time>2021-08-07T12:02:32Z</time>
      </trkpt>
      <trkpt lat="50.62834" lon="2.89988">
        <ele>22.25</ele>
        <time>2021-08-07T12:02:33Z</time>
      </trkpt>
      <trkpt lat="50.6283" lon="2.89993">
        <ele>22.25</ele>
        <time>2021-08-07T12:02:34Z</time>
      </trkpt>
      <trkpt lat="50.62814" lon="2.90019">
        <ele>22.25</ele>
        <time>2021-08-07T12:02:39Z</time>
      </trkpt>
      <trkpt lat="50.62793" lon="2.90055">
        <ele>23.21</ele>
        <time>2021-08-07T12:02:45Z</time>
      </trkpt>
      <trkpt lat="50.62769" lon="2.90094">
        <ele>23.21</ele>
        <time>2021-08-07T12:02:52Z</time>
      </trkpt>
      <trkpt lat="50.62746" lon="2.90135">
        <ele>21.77</ele>
        <time>2021-08-07T12:02:59Z</time>
      </trkpt>
      <trkpt lat="50.62742" lon="2.9014">
        <ele>21.77</ele>
        <time>2021-08-07T12:03:00Z</time>
      </trkpt>
      <trkpt lat="50.62732" lon="2.90157">
        <ele>23.21</ele>
        <time>2021-08-07T12:03:03Z</time>
      </trkpt>
      <trkpt lat="50.62693" lon="2.9022">
        <ele>23.21</ele>
        <time>2021-08-07T12:03:14Z</time>
      </trkpt>
      <trkpt lat="50.62654" lon="2.90269">
        <ele>23.21</ele>
        <time>2021-08-07T12:03:24Z</time>
      </trkpt>
      <trkpt lat="50.62617" lon="2.90309">
        <ele>23.21</ele>
        <time>2021-08-07T12:03:33Z</time>
      </trkpt>
      <trkpt lat="50.62574" lon="2.90356">
        <ele>23.69</ele>
        <time>2021-08-07T12:03:44Z</time>
      </trkpt>
      <trkpt lat="50.62544" lon="2.9039">
        <ele>22.73</ele>
        <time>2021-08-07T12:03:52Z</time>
      </trkpt>
      <trkpt lat="50.62532" lon="2.90403">
        <ele>22.25</ele>
        <time>2021-08-07T12:03:55Z</time>
      </trkpt>
      <trkpt lat="50.62524" lon="2.90411">
        <ele>22.25</ele>
        <time>2021-08-07T12:03:57Z</time>
      </trkpt>
      <trkpt lat="50.6252" lon="2.90416">
        <ele>22.25</ele>
        <time>2021-08-07T12:03:58Z</time>
      </trkpt>
      <trkpt lat="50.62477" lon="2.90459">
        <ele>22.25</ele>
        <time>2021-08-07T12:04:09Z</time>
      </trkpt>
      <trkpt lat="50.62451" lon="2.90481">
        <ele>22.25</ele>
        <time>2021-08-07T12:04:16Z</time>
      </trkpt>
      <trkpt lat="50.62447" lon="2.90484">
        <ele>22.25</ele>
        <time>2021-08-07T12:04:17Z</time>
      </trkpt>
      <trkpt lat="50.62409" lon="2.90514">
        <ele>23.69</ele>
        <time>2021-08-07T12:04:27Z</time>
      </trkpt>
      <trkpt lat="50.62397" lon="2.90521">
        <ele>22.25</ele>
        <time>2021-08-07T12:04:30Z</time>
      </trkpt>
      <trkpt lat="50.62355" lon="2.90537">
        <ele>23.69</ele>
        <time>2021-08-07T12:04:40Z</time>
      </trkpt>
      <trkpt lat="50.6232" lon="2.90548">
        <ele>23.69</ele>
        <time>2021-08-07T12:04:48Z</time>
      </trkpt>
      <trkpt lat="50.62282" lon="2.90564">
        <ele>23.69</ele>
        <time>2021-08-07T12:04:57Z</time>
      </trkpt>
      <trkpt lat="50.62237" lon="2.90594">
        <ele>23.69</ele>
        <time>2021-08-07T12:05:08Z</time>
      </trkpt>
      <trkpt lat="50.62218" lon="2.90609">
        <ele>24.17</ele>
        <time>2021-08-07T12:05:13Z</time>
      </trkpt>
      <trkpt lat="50.62191" lon="2.90641">
        <ele>24.17</ele>
        <time>2021-08-07T12:05:21Z</time>
      </trkpt>
      <trkpt lat="50.62187" lon="2.90645">
        <ele>24.17</ele>
        <time>2021-08-07T12:05:22Z</time>
      </trkpt>
      <trkpt lat="50.6218" lon="2.90651">
        <ele>24.65</ele>
        <time>2021-08-07T12:05:24Z</time>
      </trkpt>
      <trkpt lat="50.62153" lon="2.90662">
        <ele>25.61</ele>
        <time>2021-08-07T12:05:32Z</time>
      </trkpt>
      <trkpt lat="50.6214" lon="2.90666">
        <ele>26.57</ele>
        <time>2021-08-07T12:05:38Z</time>
      </trkpt>
      <trkpt lat="50.62121" lon="2.90673">
        <ele>27.53</ele>
        <time>2021-08-07T12:05:44Z</time>
      </trkpt>
      <trkpt lat="50.62094" lon="2.90683">
        <ele>28.98</ele>
        <time>2021-08-07T12:05:53Z</time>
      </trkpt>
      <trkpt lat="50.62071" lon="2.90694">
        <ele>30.42</ele>
        <time>2021-08-07T12:06:02Z</time>
      </trkpt>
      <trkpt lat="50.6205" lon="2.907">
        <ele>30.9</ele>
        <time>2021-08-07T12:06:11Z</time>
      </trkpt>
      <trkpt lat="50.62048" lon="2.90701">
        <ele>31.38</ele>
        <time>2021-08-07T12:06:12Z</time>
      </trkpt>
      <trkpt lat="50.62047" lon="2.90704">
        <ele>31.38</ele>
        <time>2021-08-07T12:06:13Z</time>
      </trkpt>
      <trkpt lat="50.62046" lon="2.90707">
        <ele>31.38</ele>
        <time>2021-08-07T12:06:14Z</time>
      </trkpt>
      <trkpt lat="50.62047" lon="2.90715">
        <ele>31.86</ele>
        <time>2021-08-07T12:06:19Z</time>
      </trkpt>
      <trkpt lat="50.62047" lon="2.90716">
        <ele>31.38</ele>
        <time>2021-08-07T12:06:25Z</time>
      </trkpt>
      <trkpt lat="50.62047" lon="2.90716">
        <ele>31.38</ele>
        <time>2021-08-07T12:06:34Z</time>
      </trkpt>
      <trkpt lat="50.6205" lon="2.90718">
        <ele>31.38</ele>
        <time>2021-08-07T12:06:46Z</time>
      </trkpt>
      <trkpt lat="50.6205" lon="2.90719">
        <ele>31.38</ele>
        <time>2021-08-07T12:07:03Z</time>
      </trkpt>
      <trkpt lat="50.62049" lon="2.90719">
        <ele>31.86</ele>
        <time>2021-08-07T12:07:25Z</time>
      </trkpt>
      <trkpt lat="50.62049" lon="2.9072">
        <ele>31.86</ele>
        <time>2021-08-07T12:07:35Z</time>
      </trkpt>
      <trkpt lat="50.62048" lon="2.90718">
        <ele>31.86</ele>
        <time>2021-08-07T12:07:52Z</time>
      </trkpt>
      <trkpt lat="50.62048" lon="2.90718">
        <ele>31.86</ele>
        <time>2021-08-07T12:08:03Z</time>
      </trkpt>
      <trkpt lat="50.62048" lon="2.90718">
        <ele>31.86</ele>
        <time>2021-08-07T12:08:18Z</time>
      </trkpt>
      <trkpt lat="50.62048" lon="2.90718">
        <ele>31.86</ele>
        <time>2021-08-07T12:08:32Z</time>
      </trkpt>
      <trkpt lat="50.62049" lon="2.90718">
        <ele>31.86</ele>
        <time>2021-08-07T12:08:51Z</time>
      </trkpt>
      <trkpt lat="50.62048" lon="2.90715">
        <ele>31.86</ele>
        <time>2021-08-07T12:09:05Z</time>
      </trkpt>
      <trkpt lat="50.62049" lon="2.90714">
        <ele>31.86</ele>
        <time>2021-08-07T12:09:20Z</time>
      </trkpt>
      <trkpt lat="50.6205" lon="2.90716">
        <ele>31.86</ele>
        <time>2021-08-07T12:09:37Z</time>
      </trkpt>
      <trkpt lat="50.62051" lon="2.90718">
        <ele>31.86</ele>
        <time>2021-08-07T12:09:50Z</time>
      </trkpt>
      <trkpt lat="50.62049" lon="2.90715">
        <ele>31.86</ele>
        <time>2021-08-07T12:10:01Z</time>
      </trkpt>
      <trkpt lat="50.62047" lon="2.90716">
        <ele>31.86</ele>
        <time>2021-08-07T12:10:14Z</time>
      </trkpt>
      <trkpt lat="50.62045" lon="2.90713">
        <ele>31.86</ele>
        <time>2021-08-07T12:10:20Z</time>
      </trkpt>
      <trkpt lat="50.62044" lon="2.90712">
        <ele>31.86</ele>
        <time>2021-08-07T12:10:21Z</time>
      </trkpt>
      <trkpt lat="50.62042" lon="2.9071">
        <ele>31.86</ele>
        <time>2021-08-07T12:10:22Z</time>
      </trkpt>
      <trkpt lat="50.62041" lon="2.9071">
        <ele>31.86</ele>
        <time>2021-08-07T12:10:23Z</time>
      </trkpt>
      <trkpt lat="50.62039" lon="2.9071">
        <ele>31.86</ele>
        <time>2021-08-07T12:10:24Z</time>
      </trkpt>
      <trkpt lat="50.62037" lon="2.90711">
        <ele>31.86</ele>
        <time>2021-08-07T12:10:25Z</time>
      </trkpt>
      <trkpt lat="50.62035" lon="2.90713">
        <ele>31.86</ele>
        <time>2021-08-07T12:10:26Z</time>
      </trkpt>
      <trkpt lat="50.62033" lon="2.90715">
        <ele>31.86</ele>
        <time>2021-08-07T12:10:27Z</time>
      </trkpt>
      <trkpt lat="50.62031" lon="2.90717">
        <ele>31.86</ele>
        <time>2021-08-07T12:10:28Z</time>
      </trkpt>
      <trkpt lat="50.62029" lon="2.90719">
        <ele>31.86</ele>
        <time>2021-08-07T12:10:29Z</time>
      </trkpt>
      <trkpt lat="50.62013" lon="2.90745">
        <ele>31.86</ele>
        <time>2021-08-07T12:10:37Z</time>
      </trkpt>
      <trkpt lat="50.61992" lon="2.90769">
        <ele>31.86</ele>
        <time>2021-08-07T12:10:45Z</time>
      </trkpt>
      <trkpt lat="50.61963" lon="2.90787">
        <ele>31.86</ele>
        <time>2021-08-07T12:10:54Z</time>
      </trkpt>
      <trkpt lat="50.61931" lon="2.90807">
        <ele>31.86</ele>
        <time>2021-08-07T12:11:03Z</time>
      </trkpt>
      <trkpt lat="50.61894" lon="2.90838">
        <ele>32.34</ele>
        <time>2021-08-07T12:11:14Z</time>
      </trkpt>
      <trkpt lat="50.61856" lon="2.90872">
        <ele>32.82</ele>
        <time>2021-08-07T12:11:25Z</time>
      </trkpt>
      <trkpt lat="50.61817" lon="2.90906">
        <ele>32.34</ele>
        <time>2021-08-07T12:11:36Z</time>
      </trkpt>
      <trkpt lat="50.6179" lon="2.90925">
        <ele>32.82</ele>
        <time>2021-08-07T12:11:43Z</time>
      </trkpt>
      <trkpt lat="50.61786" lon="2.90927">
        <ele>32.82</ele>
        <time>2021-08-07T12:11:44Z</time>
      </trkpt>
      <trkpt lat="50.61742" lon="2.90955">
        <ele>33.78</ele>
        <time>2021-08-07T12:11:55Z</time>
      </trkpt>
      <trkpt lat="50.61728" lon="2.90963">
        <ele>33.78</ele>
        <time>2021-08-07T12:11:59Z</time>
      </trkpt>
      <trkpt lat="50.61727" lon="2.90969">
        <ele>33.78</ele>
        <time>2021-08-07T12:12:00Z</time>
      </trkpt>
      <trkpt lat="50.61726" lon="2.90974">
        <ele>34.26</ele>
        <time>2021-08-07T12:12:01Z</time>
      </trkpt>
      <trkpt lat="50.61726" lon="2.90981">
        <ele>34.26</ele>
        <time>2021-08-07T12:12:02Z</time>
      </trkpt>
      <trkpt lat="50.61727" lon="2.90988">
        <ele>34.26</ele>
        <time>2021-08-07T12:12:03Z</time>
      </trkpt>
      <trkpt lat="50.61727" lon="2.90996">
        <ele>34.26</ele>
        <time>2021-08-07T12:12:04Z</time>
      </trkpt>
      <trkpt lat="50.6173" lon="2.91054">
        <ele>34.26</ele>
        <time>2021-08-07T12:12:12Z</time>
      </trkpt>
      <trkpt lat="50.61723" lon="2.91138">
        <ele>35.23</ele>
        <time>2021-08-07T12:12:23Z</time>
      </trkpt>
      <trkpt lat="50.61715" lon="2.91216">
        <ele>35.71</ele>
        <time>2021-08-07T12:12:33Z</time>
      </trkpt>
      <trkpt lat="50.61713" lon="2.91288">
        <ele>35.71</ele>
        <time>2021-08-07T12:12:42Z</time>
      </trkpt>
      <trkpt lat="50.61717" lon="2.91353">
        <ele>35.71</ele>
        <time>2021-08-07T12:12:50Z</time>
      </trkpt>
      <trkpt lat="50.61722" lon="2.91432">
        <ele>36.19</ele>
        <time>2021-08-07T12:12:59Z</time>
      </trkpt>
      <trkpt lat="50.61727" lon="2.91528">
        <ele>36.19</ele>
        <time>2021-08-07T12:13:10Z</time>
      </trkpt>
      <trkpt lat="50.61732" lon="2.91611">
        <ele>34.74</ele>
        <time>2021-08-07T12:13:19Z</time>
      </trkpt>
      <trkpt lat="50.61738" lon="2.91728">
        <ele>34.74</ele>
        <time>2021-08-07T12:13:32Z</time>
      </trkpt>
      <trkpt lat="50.61742" lon="2.91797">
        <ele>36.19</ele>
        <time>2021-08-07T12:13:40Z</time>
      </trkpt>
      <trkpt lat="50.61749" lon="2.91918">
        <ele>36.67</ele>
        <time>2021-08-07T12:13:54Z</time>
      </trkpt>
      <trkpt lat="50.61754" lon="2.92014">
        <ele>37.15</ele>
        <time>2021-08-07T12:14:05Z</time>
      </trkpt>
      <trkpt lat="50.61757" lon="2.92104">
        <ele>38.11</ele>
        <time>2021-08-07T12:14:15Z</time>
      </trkpt>
      <trkpt lat="50.6176" lon="2.92194">
        <ele>38.59</ele>
        <time>2021-08-07T12:14:25Z</time>
      </trkpt>
      <trkpt lat="50.61762" lon="2.92276">
        <ele>38.59</ele>
        <time>2021-08-07T12:14:34Z</time>
      </trkpt>
      <trkpt lat="50.61768" lon="2.92368">
        <ele>39.55</ele>
        <time>2021-08-07T12:14:45Z</time>
      </trkpt>
      <trkpt lat="50.61785" lon="2.92457">
        <ele>39.55</ele>
        <time>2021-08-07T12:14:56Z</time>
      </trkpt>
      <trkpt lat="50.6181" lon="2.92524">
        <ele>39.55</ele>
        <time>2021-08-07T12:15:05Z</time>
      </trkpt>
      <trkpt lat="50.61834" lon="2.92574">
        <ele>39.55</ele>
        <time>2021-08-07T12:15:12Z</time>
      </trkpt>
      <trkpt lat="50.61836" lon="2.92581">
        <ele>39.55</ele>
        <time>2021-08-07T12:15:13Z</time>
      </trkpt>
      <trkpt lat="50.61837" lon="2.9259">
        <ele>39.55</ele>
        <time>2021-08-07T12:15:14Z</time>
      </trkpt>
      <trkpt lat="50.61835" lon="2.92599">
        <ele>39.55</ele>
        <time>2021-08-07T12:15:15Z</time>
      </trkpt>
      <trkpt lat="50.61832" lon="2.92606">
        <ele>38.59</ele>
        <time>2021-08-07T12:15:16Z</time>
      </trkpt>
      <trkpt lat="50.61829" lon="2.9261">
        <ele>38.11</ele>
        <time>2021-08-07T12:15:17Z</time>
      </trkpt>
      <trkpt lat="50.61824" lon="2.92615">
        <ele>38.11</ele>
        <time>2021-08-07T12:15:18Z</time>
      </trkpt>
      <trkpt lat="50.6182" lon="2.92619">
        <ele>38.11</ele>
        <time>2021-08-07T12:15:19Z</time>
      </trkpt>
      <trkpt lat="50.61815" lon="2.92623">
        <ele>38.11</ele>
        <time>2021-08-07T12:15:20Z</time>
      </trkpt>
      <trkpt lat="50.61785" lon="2.92644">
        <ele>38.11</ele>
        <time>2021-08-07T12:15:27Z</time>
      </trkpt>
      <trkpt lat="50.61753" lon="2.92668">
        <ele>39.55</ele>
        <time>2021-08-07T12:15:35Z</time>
      </trkpt>
      <trkpt lat="50.61749" lon="2.92671">
        <ele>40.03</ele>
        <time>2021-08-07T12:15:36Z</time>
      </trkpt>
      <trkpt lat="50.61745" lon="2.92674">
        <ele>40.03</ele>
        <time>2021-08-07T12:15:37Z</time>
      </trkpt>
      <trkpt lat="50.61741" lon="2.92677">
        <ele>40.03</ele>
        <time>2021-08-07T12:15:38Z</time>
      </trkpt>
      <trkpt lat="50.61737" lon="2.9268">
        <ele>40.03</ele>
        <time>2021-08-07T12:15:39Z</time>
      </trkpt>
      <trkpt lat="50.61733" lon="2.92683">
        <ele>40.03</ele>
        <time>2021-08-07T12:15:40Z</time>
      </trkpt>
      <trkpt lat="50.61685" lon="2.92714">
        <ele>40.51</ele>
        <time>2021-08-07T12:15:51Z</time>
      </trkpt>
      <trkpt lat="50.61666" lon="2.92724">
        <ele>40.51</ele>
        <time>2021-08-07T12:15:55Z</time>
      </trkpt>
      <trkpt lat="50.61661" lon="2.92725">
        <ele>40.51</ele>
        <time>2021-08-07T12:15:56Z</time>
      </trkpt>
      <trkpt lat="50.61621" lon="2.92748">
        <ele>40.99</ele>
        <time>2021-08-07T12:16:05Z</time>
      </trkpt>
      <trkpt lat="50.61617" lon="2.92751">
        <ele>40.99</ele>
        <time>2021-08-07T12:16:06Z</time>
      </trkpt>
      <trkpt lat="50.61597" lon="2.92768">
        <ele>40.99</ele>
        <time>2021-08-07T12:16:11Z</time>
      </trkpt>
      <trkpt lat="50.6157" lon="2.92783">
        <ele>39.55</ele>
        <time>2021-08-07T12:16:17Z</time>
      </trkpt>
      <trkpt lat="50.61534" lon="2.92809">
        <ele>39.55</ele>
        <time>2021-08-07T12:16:26Z</time>
      </trkpt>
      <trkpt lat="50.61526" lon="2.92817">
        <ele>39.55</ele>
        <time>2021-08-07T12:16:28Z</time>
      </trkpt>
      <trkpt lat="50.61522" lon="2.92822">
        <ele>39.55</ele>
        <time>2021-08-07T12:16:29Z</time>
      </trkpt>
      <trkpt lat="50.6149" lon="2.92856">
        <ele>39.07</ele>
        <time>2021-08-07T12:16:37Z</time>
      </trkpt>
      <trkpt lat="50.61467" lon="2.92882">
        <ele>40.03</ele>
        <time>2021-08-07T12:16:43Z</time>
      </trkpt>
      <trkpt lat="50.61451" lon="2.92905">
        <ele>40.51</ele>
        <time>2021-08-07T12:16:49Z</time>
      </trkpt>
      <trkpt lat="50.61451" lon="2.9291">
        <ele>40.51</ele>
        <time>2021-08-07T12:16:50Z</time>
      </trkpt>
      <trkpt lat="50.61451" lon="2.92915">
        <ele>40.51</ele>
        <time>2021-08-07T12:16:51Z</time>
      </trkpt>
      <trkpt lat="50.61439" lon="2.92936">
        <ele>40.51</ele>
        <time>2021-08-07T12:16:57Z</time>
      </trkpt>
      <trkpt lat="50.61408" lon="2.92951">
        <ele>40.51</ele>
        <time>2021-08-07T12:17:05Z</time>
      </trkpt>
      <trkpt lat="50.61379" lon="2.92964">
        <ele>40.51</ele>
        <time>2021-08-07T12:17:13Z</time>
      </trkpt>
      <trkpt lat="50.61375" lon="2.92966">
        <ele>40.51</ele>
        <time>2021-08-07T12:17:14Z</time>
      </trkpt>
      <trkpt lat="50.61347" lon="2.92982">
        <ele>39.07</ele>
        <time>2021-08-07T12:17:22Z</time>
      </trkpt>
      <trkpt lat="50.6132" lon="2.93">
        <ele>39.07</ele>
        <time>2021-08-07T12:17:29Z</time>
      </trkpt>
      <trkpt lat="50.61311" lon="2.93003">
        <ele>39.07</ele>
        <time>2021-08-07T12:17:31Z</time>
      </trkpt>
      <trkpt lat="50.61306" lon="2.93004">
        <ele>38.11</ele>
        <time>2021-08-07T12:17:32Z</time>
      </trkpt>
      <trkpt lat="50.61301" lon="2.93007">
        <ele>38.11</ele>
        <time>2021-08-07T12:17:33Z</time>
      </trkpt>
      <trkpt lat="50.6126" lon="2.93032">
        <ele>37.15</ele>
        <time>2021-08-07T12:17:41Z</time>
      </trkpt>
      <trkpt lat="50.61255" lon="2.93034">
        <ele>37.15</ele>
        <time>2021-08-07T12:17:42Z</time>
      </trkpt>
      <trkpt lat="50.61249" lon="2.93037">
        <ele>36.67</ele>
        <time>2021-08-07T12:17:43Z</time>
      </trkpt>
      <trkpt lat="50.61193" lon="2.93066">
        <ele>34.74</ele>
        <time>2021-08-07T12:17:52Z</time>
      </trkpt>
      <trkpt lat="50.61155" lon="2.93087">
        <ele>32.34</ele>
        <time>2021-08-07T12:17:58Z</time>
      </trkpt>
      <trkpt lat="50.61105" lon="2.93114">
        <ele>32.34</ele>
        <time>2021-08-07T12:18:06Z</time>
      </trkpt>
      <trkpt lat="50.61061" lon="2.93137">
        <ele>32.34</ele>
        <time>2021-08-07T12:18:13Z</time>
      </trkpt>
      <trkpt lat="50.61036" lon="2.9315">
        <ele>32.34</ele>
        <time>2021-08-07T12:18:17Z</time>
      </trkpt>
      <trkpt lat="50.6103" lon="2.93152">
        <ele>32.34</ele>
        <time>2021-08-07T12:18:18Z</time>
      </trkpt>
      <trkpt lat="50.61016" lon="2.93154">
        <ele>31.38</ele>
        <time>2021-08-07T12:18:20Z</time>
      </trkpt>
      <trkpt lat="50.6101" lon="2.93159">
        <ele>31.38</ele>
        <time>2021-08-07T12:18:21Z</time>
      </trkpt>
      <trkpt lat="50.61004" lon="2.93162">
        <ele>31.38</ele>
        <time>2021-08-07T12:18:22Z</time>
      </trkpt>
      <trkpt lat="50.60999" lon="2.93165">
        <ele>31.38</ele>
        <time>2021-08-07T12:18:23Z</time>
      </trkpt>
      <trkpt lat="50.60994" lon="2.93167">
        <ele>31.38</ele>
        <time>2021-08-07T12:18:24Z</time>
      </trkpt>
      <trkpt lat="50.6098" lon="2.93175">
        <ele>32.34</ele>
        <time>2021-08-07T12:18:29Z</time>
      </trkpt>
      <trkpt lat="50.60959" lon="2.93192">
        <ele>32.34</ele>
        <time>2021-08-07T12:18:35Z</time>
      </trkpt>
      <trkpt lat="50.60936" lon="2.93208">
        <ele>30.9</ele>
        <time>2021-08-07T12:18:41Z</time>
      </trkpt>
      <trkpt lat="50.60895" lon="2.93231">
        <ele>30.9</ele>
        <time>2021-08-07T12:18:51Z</time>
      </trkpt>
      <trkpt lat="50.60887" lon="2.93236">
        <ele>30.9</ele>
        <time>2021-08-07T12:18:53Z</time>
      </trkpt>
      <trkpt lat="50.60878" lon="2.9324">
        <ele>29.46</ele>
        <time>2021-08-07T12:18:55Z</time>
      </trkpt>
      <trkpt lat="50.60832" lon="2.93266">
        <ele>28.5</ele>
        <time>2021-08-07T12:19:06Z</time>
      </trkpt>
      <trkpt lat="50.60818" lon="2.93275">
        <ele>29.46</ele>
        <time>2021-08-07T12:19:09Z</time>
      </trkpt>
      <trkpt lat="50.60782" lon="2.93296">
        <ele>31.38</ele>
        <time>2021-08-07T12:19:18Z</time>
      </trkpt>
      <trkpt lat="50.60746" lon="2.93316">
        <ele>30.42</ele>
        <time>2021-08-07T12:19:27Z</time>
      </trkpt>
      <trkpt lat="50.60706" lon="2.93341">
        <ele>30.42</ele>
        <time>2021-08-07T12:19:37Z</time>
      </trkpt>
      <trkpt lat="50.60666" lon="2.93364">
        <ele>30.42</ele>
        <time>2021-08-07T12:19:48Z</time>
      </trkpt>
      <trkpt lat="50.6065" lon="2.93372">
        <ele>29.94</ele>
        <time>2021-08-07T12:19:52Z</time>
      </trkpt>
      <trkpt lat="50.60647" lon="2.93375">
        <ele>29.94</ele>
        <time>2021-08-07T12:19:53Z</time>
      </trkpt>
      <trkpt lat="50.60604" lon="2.93398">
        <ele>29.94</ele>
        <time>2021-08-07T12:20:04Z</time>
      </trkpt>
      <trkpt lat="50.60588" lon="2.93407">
        <ele>28.98</ele>
        <time>2021-08-07T12:20:08Z</time>
      </trkpt>
      <trkpt lat="50.60572" lon="2.93417">
        <ele>28.98</ele>
        <time>2021-08-07T12:20:12Z</time>
      </trkpt>
      <trkpt lat="50.60569" lon="2.93419">
        <ele>28.98</ele>
        <time>2021-08-07T12:20:13Z</time>
      </trkpt>
      <trkpt lat="50.60565" lon="2.93422">
        <ele>28.98</ele>
        <time>2021-08-07T12:20:14Z</time>
      </trkpt>
      <trkpt lat="50.6056" lon="2.93425">
        <ele>28.98</ele>
        <time>2021-08-07T12:20:15Z</time>
      </trkpt>
      <trkpt lat="50.60557" lon="2.93428">
        <ele>30.42</ele>
        <time>2021-08-07T12:20:16Z</time>
      </trkpt>
      <trkpt lat="50.60553" lon="2.93431">
        <ele>30.42</ele>
        <time>2021-08-07T12:20:17Z</time>
      </trkpt>
      <trkpt lat="50.60549" lon="2.93433">
        <ele>30.42</ele>
        <time>2021-08-07T12:20:18Z</time>
      </trkpt>
      <trkpt lat="50.60545" lon="2.93435">
        <ele>30.42</ele>
        <time>2021-08-07T12:20:19Z</time>
      </trkpt>
      <trkpt lat="50.60537" lon="2.93439">
        <ele>28.98</ele>
        <time>2021-08-07T12:20:21Z</time>
      </trkpt>
      <trkpt lat="50.60521" lon="2.93448">
        <ele>30.42</ele>
        <time>2021-08-07T12:20:25Z</time>
      </trkpt>
      <trkpt lat="50.60513" lon="2.93453">
        <ele>29.46</ele>
        <time>2021-08-07T12:20:27Z</time>
      </trkpt>
      <trkpt lat="50.60476" lon="2.93473">
        <ele>28.98</ele>
        <time>2021-08-07T12:20:36Z</time>
      </trkpt>
      <trkpt lat="50.60442" lon="2.93491">
        <ele>27.53</ele>
        <time>2021-08-07T12:20:44Z</time>
      </trkpt>
      <trkpt lat="50.60418" lon="2.93506">
        <ele>28.98</ele>
        <time>2021-08-07T12:20:50Z</time>
      </trkpt>
      <trkpt lat="50.60377" lon="2.93528">
        <ele>29.46</ele>
        <time>2021-08-07T12:21:00Z</time>
      </trkpt>
      <trkpt lat="50.6034" lon="2.93546">
        <ele>27.53</ele>
        <time>2021-08-07T12:21:09Z</time>
      </trkpt>
      <trkpt lat="50.60333" lon="2.93548">
        <ele>27.53</ele>
        <time>2021-08-07T12:21:11Z</time>
      </trkpt>
      <trkpt lat="50.60329" lon="2.93546">
        <ele>29.46</ele>
        <time>2021-08-07T12:21:12Z</time>
      </trkpt>
      <trkpt lat="50.60327" lon="2.93543">
        <ele>29.94</ele>
        <time>2021-08-07T12:21:13Z</time>
      </trkpt>
      <trkpt lat="50.60325" lon="2.93539">
        <ele>29.94</ele>
        <time>2021-08-07T12:21:14Z</time>
      </trkpt>
      <trkpt lat="50.60318" lon="2.93527">
        <ele>31.86</ele>
        <time>2021-08-07T12:21:19Z</time>
      </trkpt>
      <trkpt lat="50.60316" lon="2.93523">
        <ele>32.34</ele>
        <time>2021-08-07T12:21:21Z</time>
      </trkpt>
      <trkpt lat="50.60315" lon="2.93517">
        <ele>33.3</ele>
        <time>2021-08-07T12:21:23Z</time>
      </trkpt>
      <trkpt lat="50.60314" lon="2.93515">
        <ele>31.86</ele>
        <time>2021-08-07T12:21:24Z</time>
      </trkpt>
      <trkpt lat="50.60314" lon="2.93516">
        <ele>30.9</ele>
        <time>2021-08-07T12:21:25Z</time>
      </trkpt>
      <trkpt lat="50.60314" lon="2.93518">
        <ele>30.9</ele>
        <time>2021-08-07T12:21:26Z</time>
      </trkpt>
      <trkpt lat="50.60314" lon="2.9352">
        <ele>32.82</ele>
        <time>2021-08-07T12:21:27Z</time>
      </trkpt>
      <trkpt lat="50.60315" lon="2.93523">
        <ele>32.82</ele>
        <time>2021-08-07T12:21:28Z</time>
      </trkpt>
      <trkpt lat="50.60316" lon="2.93527">
        <ele>32.82</ele>
        <time>2021-08-07T12:21:29Z</time>
      </trkpt>
      <trkpt lat="50.60316" lon="2.9353">
        <ele>33.3</ele>
        <time>2021-08-07T12:21:30Z</time>
      </trkpt>
      <trkpt lat="50.60317" lon="2.93535">
        <ele>33.3</ele>
        <time>2021-08-07T12:21:31Z</time>
      </trkpt>
      <trkpt lat="50.60317" lon="2.93539">
        <ele>33.3</ele>
        <time>2021-08-07T12:21:32Z</time>
      </trkpt>
      <trkpt lat="50.60319" lon="2.93572">
        <ele>33.3</ele>
        <time>2021-08-07T12:21:39Z</time>
      </trkpt>
      <trkpt lat="50.60317" lon="2.93574">
        <ele>33.3</ele>
        <time>2021-08-07T12:21:40Z</time>
      </trkpt>
      <trkpt lat="50.60315" lon="2.93578">
        <ele>33.3</ele>
        <time>2021-08-07T12:21:41Z</time>
      </trkpt>
      <trkpt lat="50.60312" lon="2.9358">
        <ele>33.3</ele>
        <time>2021-08-07T12:21:42Z</time>
      </trkpt>
      <trkpt lat="50.6031" lon="2.93583">
        <ele>33.3</ele>
        <time>2021-08-07T12:21:43Z</time>
      </trkpt>
      <trkpt lat="50.60307" lon="2.93585">
        <ele>31.86</ele>
        <time>2021-08-07T12:21:44Z</time>
      </trkpt>
      <trkpt lat="50.60304" lon="2.93587">
        <ele>31.86</ele>
        <time>2021-08-07T12:21:45Z</time>
      </trkpt>
      <trkpt lat="50.6029" lon="2.93596">
        <ele>31.86</ele>
        <time>2021-08-07T12:21:51Z</time>
      </trkpt>
      <trkpt lat="50.60272" lon="2.93606">
        <ele>31.86</ele>
        <time>2021-08-07T12:21:57Z</time>
      </trkpt>
      <trkpt lat="50.60249" lon="2.93619">
        <ele>33.3</ele>
        <time>2021-08-07T12:22:04Z</time>
      </trkpt>
      <trkpt lat="50.60223" lon="2.93635">
        <ele>33.3</ele>
        <time>2021-08-07T12:22:11Z</time>
      </trkpt>
      <trkpt lat="50.60215" lon="2.93639">
        <ele>31.86</ele>
        <time>2021-08-07T12:22:13Z</time>
      </trkpt>
      <trkpt lat="50.60186" lon="2.93657">
        <ele>30.9</ele>
        <time>2021-08-07T12:22:20Z</time>
      </trkpt>
      <trkpt lat="50.60178" lon="2.93663">
        <ele>30.9</ele>
        <time>2021-08-07T12:22:22Z</time>
      </trkpt>
      <trkpt lat="50.60174" lon="2.93664">
        <ele>30.9</ele>
        <time>2021-08-07T12:22:23Z</time>
      </trkpt>
      <trkpt lat="50.60154" lon="2.93673">
        <ele>29.94</ele>
        <time>2021-08-07T12:22:28Z</time>
      </trkpt>
      <trkpt lat="50.60149" lon="2.93675">
        <ele>29.94</ele>
        <time>2021-08-07T12:22:29Z</time>
      </trkpt>
      <trkpt lat="50.60145" lon="2.93677">
        <ele>29.94</ele>
        <time>2021-08-07T12:22:30Z</time>
      </trkpt>
      <trkpt lat="50.6011" lon="2.937">
        <ele>29.46</ele>
        <time>2021-08-07T12:22:39Z</time>
      </trkpt>
      <trkpt lat="50.60078" lon="2.93715">
        <ele>28.98</ele>
        <time>2021-08-07T12:22:47Z</time>
      </trkpt>
      <trkpt lat="50.60063" lon="2.93723">
        <ele>28.98</ele>
        <time>2021-08-07T12:22:51Z</time>
      </trkpt>
      <trkpt lat="50.60043" lon="2.93732">
        <ele>28.02</ele>
        <time>2021-08-07T12:22:55Z</time>
      </trkpt>
      <trkpt lat="50.6003" lon="2.9374">
        <ele>28.02</ele>
        <time>2021-08-07T12:22:58Z</time>
      </trkpt>
      <trkpt lat="50.60007" lon="2.93754">
        <ele>28.02</ele>
        <time>2021-08-07T12:23:04Z</time>
      </trkpt>
      <trkpt lat="50.6" lon="2.93758">
        <ele>28.02</ele>
        <time>2021-08-07T12:23:07Z</time>
      </trkpt>
      <trkpt lat="50.59998" lon="2.93756">
        <ele>28.02</ele>
        <time>2021-08-07T12:23:09Z</time>
      </trkpt>
      <trkpt lat="50.59996" lon="2.93755">
        <ele>28.02</ele>
        <time>2021-08-07T12:23:10Z</time>
      </trkpt>
      <trkpt lat="50.59995" lon="2.93751">
        <ele>27.53</ele>
        <time>2021-08-07T12:23:11Z</time>
      </trkpt>
      <trkpt lat="50.59992" lon="2.93748">
        <ele>27.05</ele>
        <time>2021-08-07T12:23:12Z</time>
      </trkpt>
      <trkpt lat="50.59991" lon="2.93746">
        <ele>26.57</ele>
        <time>2021-08-07T12:23:13Z</time>
      </trkpt>
      <trkpt lat="50.59991" lon="2.93744">
        <ele>26.57</ele>
        <time>2021-08-07T12:23:14Z</time>
      </trkpt>
      <trkpt lat="50.5999" lon="2.93742">
        <ele>26.57</ele>
        <time>2021-08-07T12:23:15Z</time>
      </trkpt>
      <trkpt lat="50.59987" lon="2.93742">
        <ele>26.09</ele>
        <time>2021-08-07T12:23:16Z</time>
      </trkpt>
      <trkpt lat="50.59984" lon="2.93742">
        <ele>26.09</ele>
        <time>2021-08-07T12:23:17Z</time>
      </trkpt>
      <trkpt lat="50.59981" lon="2.93743">
        <ele>25.61</ele>
        <time>2021-08-07T12:23:18Z</time>
      </trkpt>
      <trkpt lat="50.59975" lon="2.93744">
        <ele>24.65</ele>
        <time>2021-08-07T12:23:20Z</time>
      </trkpt>
      <trkpt lat="50.59971" lon="2.93744">
        <ele>24.65</ele>
        <time>2021-08-07T12:23:22Z</time>
      </trkpt>
      <trkpt lat="50.5997" lon="2.93741">
        <ele>26.09</ele>
        <time>2021-08-07T12:23:23Z</time>
      </trkpt>
      <trkpt lat="50.5997" lon="2.93737">
        <ele>26.57</ele>
        <time>2021-08-07T12:23:24Z</time>
      </trkpt>
      <trkpt lat="50.59969" lon="2.93732">
        <ele>26.57</ele>
        <time>2021-08-07T12:23:25Z</time>
      </trkpt>
      <trkpt lat="50.59969" lon="2.93727">
        <ele>26.57</ele>
        <time>2021-08-07T12:23:26Z</time>
      </trkpt>
      <trkpt lat="50.59968" lon="2.93701">
        <ele>26.57</ele>
        <time>2021-08-07T12:23:30Z</time>
      </trkpt>
      <trkpt lat="50.59964" lon="2.93655">
        <ele>26.57</ele>
        <time>2021-08-07T12:23:37Z</time>
      </trkpt>
      <trkpt lat="50.59958" lon="2.93593">
        <ele>26.57</ele>
        <time>2021-08-07T12:23:46Z</time>
      </trkpt>
      <trkpt lat="50.59952" lon="2.93526">
        <ele>27.05</ele>
        <time>2021-08-07T12:23:56Z</time>
      </trkpt>
      <trkpt lat="50.59951" lon="2.93506">
        <ele>27.05</ele>
        <time>2021-08-07T12:23:59Z</time>
      </trkpt>
      <trkpt lat="50.59949" lon="2.93499">
        <ele>27.05</ele>
        <time>2021-08-07T12:24:00Z</time>
      </trkpt>
      <trkpt lat="50.59948" lon="2.93492">
        <ele>27.05</ele>
        <time>2021-08-07T12:24:01Z</time>
      </trkpt>
      <trkpt lat="50.59946" lon="2.93459">
        <ele>27.05</ele>
        <time>2021-08-07T12:24:06Z</time>
      </trkpt>
      <trkpt lat="50.59944" lon="2.93426">
        <ele>27.05</ele>
        <time>2021-08-07T12:24:11Z</time>
      </trkpt>
      <trkpt lat="50.59942" lon="2.93385">
        <ele>27.05</ele>
        <time>2021-08-07T12:24:18Z</time>
      </trkpt>
      <trkpt lat="50.59939" lon="2.93354">
        <ele>27.05</ele>
        <time>2021-08-07T12:24:23Z</time>
      </trkpt>
      <trkpt lat="50.59939" lon="2.93348">
        <ele>27.05</ele>
        <time>2021-08-07T12:24:24Z</time>
      </trkpt>
      <trkpt lat="50.59938" lon="2.93342">
        <ele>27.05</ele>
        <time>2021-08-07T12:24:25Z</time>
      </trkpt>
      <trkpt lat="50.59937" lon="2.93336">
        <ele>24.65</ele>
        <time>2021-08-07T12:24:26Z</time>
      </trkpt>
      <trkpt lat="50.59936" lon="2.9333">
        <ele>24.65</ele>
        <time>2021-08-07T12:24:27Z</time>
      </trkpt>
      <trkpt lat="50.59936" lon="2.93325">
        <ele>24.65</ele>
        <time>2021-08-07T12:24:28Z</time>
      </trkpt>
      <trkpt lat="50.59936" lon="2.93317">
        <ele>26.09</ele>
        <time>2021-08-07T12:24:29Z</time>
      </trkpt>
      <trkpt lat="50.59936" lon="2.9331">
        <ele>26.09</ele>
        <time>2021-08-07T12:24:30Z</time>
      </trkpt>
      <trkpt lat="50.59935" lon="2.93303">
        <ele>26.09</ele>
        <time>2021-08-07T12:24:31Z</time>
      </trkpt>
      <trkpt lat="50.59932" lon="2.93271">
        <ele>26.57</ele>
        <time>2021-08-07T12:24:36Z</time>
      </trkpt>
      <trkpt lat="50.59932" lon="2.93265">
        <ele>26.57</ele>
        <time>2021-08-07T12:24:37Z</time>
      </trkpt>
      <trkpt lat="50.5993" lon="2.93218">
        <ele>26.57</ele>
        <time>2021-08-07T12:24:44Z</time>
      </trkpt>
      <trkpt lat="50.59929" lon="2.93212">
        <ele>26.57</ele>
        <time>2021-08-07T12:24:45Z</time>
      </trkpt>
      <trkpt lat="50.59928" lon="2.93206">
        <ele>26.57</ele>
        <time>2021-08-07T12:24:46Z</time>
      </trkpt>
      <trkpt lat="50.59928" lon="2.932">
        <ele>26.57</ele>
        <time>2021-08-07T12:24:47Z</time>
      </trkpt>
      <trkpt lat="50.59928" lon="2.93194">
        <ele>26.57</ele>
        <time>2021-08-07T12:24:48Z</time>
      </trkpt>
      <trkpt lat="50.59928" lon="2.93188">
        <ele>26.57</ele>
        <time>2021-08-07T12:24:49Z</time>
      </trkpt>
      <trkpt lat="50.59926" lon="2.9315">
        <ele>27.05</ele>
        <time>2021-08-07T12:24:55Z</time>
      </trkpt>
      <trkpt lat="50.59919" lon="2.93128">
        <ele>27.53</ele>
        <time>2021-08-07T12:24:59Z</time>
      </trkpt>
      <trkpt lat="50.59916" lon="2.93123">
        <ele>27.53</ele>
        <time>2021-08-07T12:25:00Z</time>
      </trkpt>
      <trkpt lat="50.59913" lon="2.93118">
        <ele>27.53</ele>
        <time>2021-08-07T12:25:01Z</time>
      </trkpt>
      <trkpt lat="50.59911" lon="2.93113">
        <ele>27.53</ele>
        <time>2021-08-07T12:25:02Z</time>
      </trkpt>
      <trkpt lat="50.59908" lon="2.93108">
        <ele>27.53</ele>
        <time>2021-08-07T12:25:03Z</time>
      </trkpt>
      <trkpt lat="50.59906" lon="2.93104">
        <ele>27.53</ele>
        <time>2021-08-07T12:25:04Z</time>
      </trkpt>
      <trkpt lat="50.59886" lon="2.93071">
        <ele>27.53</ele>
        <time>2021-08-07T12:25:12Z</time>
      </trkpt>
      <trkpt lat="50.59866" lon="2.93039">
        <ele>27.53</ele>
        <time>2021-08-07T12:25:20Z</time>
      </trkpt>
      <trkpt lat="50.59837" lon="2.92988">
        <ele>28.5</ele>
        <time>2021-08-07T12:25:32Z</time>
      </trkpt>
      <trkpt lat="50.59816" lon="2.92951">
        <ele>28.5</ele>
        <time>2021-08-07T12:25:41Z</time>
      </trkpt>
      <trkpt lat="50.59794" lon="2.92916">
        <ele>28.98</ele>
        <time>2021-08-07T12:25:50Z</time>
      </trkpt>
      <trkpt lat="50.5977" lon="2.92876">
        <ele>29.46</ele>
        <time>2021-08-07T12:26:00Z</time>
      </trkpt>
      <trkpt lat="50.59749" lon="2.92839">
        <ele>29.46</ele>
        <time>2021-08-07T12:26:09Z</time>
      </trkpt>
      <trkpt lat="50.59734" lon="2.92814">
        <ele>29.46</ele>
        <time>2021-08-07T12:26:15Z</time>
      </trkpt>
      <trkpt lat="50.5971" lon="2.92772">
        <ele>29.94</ele>
        <time>2021-08-07T12:26:25Z</time>
      </trkpt>
      <trkpt lat="50.59689" lon="2.92736">
        <ele>29.94</ele>
        <time>2021-08-07T12:26:34Z</time>
      </trkpt>
      <trkpt lat="50.59667" lon="2.92698">
        <ele>30.9</ele>
        <time>2021-08-07T12:26:43Z</time>
      </trkpt>
      <trkpt lat="50.59644" lon="2.92657">
        <ele>31.86</ele>
        <time>2021-08-07T12:26:53Z</time>
      </trkpt>
      <trkpt lat="50.59624" lon="2.92627">
        <ele>32.34</ele>
        <time>2021-08-07T12:27:01Z</time>
      </trkpt>
      <trkpt lat="50.59604" lon="2.92593">
        <ele>31.38</ele>
        <time>2021-08-07T12:27:10Z</time>
      </trkpt>
      <trkpt lat="50.59601" lon="2.92589">
        <ele>31.38</ele>
        <time>2021-08-07T12:27:11Z</time>
      </trkpt>
      <trkpt lat="50.59586" lon="2.92561">
        <ele>31.38</ele>
        <time>2021-08-07T12:27:19Z</time>
      </trkpt>
      <trkpt lat="50.59578" lon="2.92556">
        <ele>30.9</ele>
        <time>2021-08-07T12:27:22Z</time>
      </trkpt>
      <trkpt lat="50.59575" lon="2.92556">
        <ele>30.9</ele>
        <time>2021-08-07T12:27:23Z</time>
      </trkpt>
      <trkpt lat="50.59573" lon="2.92557">
        <ele>30.9</ele>
        <time>2021-08-07T12:27:24Z</time>
      </trkpt>
      <trkpt lat="50.5957" lon="2.9256">
        <ele>30.9</ele>
        <time>2021-08-07T12:27:25Z</time>
      </trkpt>
      <trkpt lat="50.59567" lon="2.92563">
        <ele>29.94</ele>
        <time>2021-08-07T12:27:26Z</time>
      </trkpt>
      <trkpt lat="50.5956" lon="2.92568">
        <ele>29.94</ele>
        <time>2021-08-07T12:27:28Z</time>
      </trkpt>
      <trkpt lat="50.59552" lon="2.92571">
        <ele>29.94</ele>
        <time>2021-08-07T12:27:30Z</time>
      </trkpt>
      <trkpt lat="50.59549" lon="2.92571">
        <ele>29.94</ele>
        <time>2021-08-07T12:27:31Z</time>
      </trkpt>
      <trkpt lat="50.59546" lon="2.92572">
        <ele>29.94</ele>
        <time>2021-08-07T12:27:32Z</time>
      </trkpt>
      <trkpt lat="50.59543" lon="2.92573">
        <ele>29.94</ele>
        <time>2021-08-07T12:27:33Z</time>
      </trkpt>
      <trkpt lat="50.5954" lon="2.92575">
        <ele>29.94</ele>
        <time>2021-08-07T12:27:34Z</time>
      </trkpt>
      <trkpt lat="50.59506" lon="2.92593">
        <ele>32.34</ele>
        <time>2021-08-07T12:27:45Z</time>
      </trkpt>
      <trkpt lat="50.59502" lon="2.92595">
        <ele>32.34</ele>
        <time>2021-08-07T12:27:47Z</time>
      </trkpt>
      <trkpt lat="50.595" lon="2.92596">
        <ele>32.34</ele>
        <time>2021-08-07T12:27:48Z</time>
      </trkpt>
      <trkpt lat="50.59498" lon="2.92597">
        <ele>32.34</ele>
        <time>2021-08-07T12:27:49Z</time>
      </trkpt>
      <trkpt lat="50.59495" lon="2.92598">
        <ele>32.34</ele>
        <time>2021-08-07T12:27:50Z</time>
      </trkpt>
      <trkpt lat="50.59492" lon="2.92599">
        <ele>32.34</ele>
        <time>2021-08-07T12:27:51Z</time>
      </trkpt>
      <trkpt lat="50.59489" lon="2.92601">
        <ele>32.34</ele>
        <time>2021-08-07T12:27:52Z</time>
      </trkpt>
      <trkpt lat="50.59466" lon="2.92613">
        <ele>30.9</ele>
        <time>2021-08-07T12:27:59Z</time>
      </trkpt>
      <trkpt lat="50.59445" lon="2.92625">
        <ele>30.9</ele>
        <time>2021-08-07T12:28:05Z</time>
      </trkpt>
      <trkpt lat="50.59399" lon="2.92645">
        <ele>30.9</ele>
        <time>2021-08-07T12:28:18Z</time>
      </trkpt>
      <trkpt lat="50.59371" lon="2.92656">
        <ele>30.9</ele>
        <time>2021-08-07T12:28:26Z</time>
      </trkpt>
      <trkpt lat="50.59334" lon="2.92671">
        <ele>32.34</ele>
        <time>2021-08-07T12:28:36Z</time>
      </trkpt>
      <trkpt lat="50.59301" lon="2.92683">
        <ele>32.82</ele>
        <time>2021-08-07T12:28:45Z</time>
      </trkpt>
      <trkpt lat="50.59261" lon="2.92695">
        <ele>33.78</ele>
        <time>2021-08-07T12:28:56Z</time>
      </trkpt>
      <trkpt lat="50.59236" lon="2.92699">
        <ele>32.34</ele>
        <time>2021-08-07T12:29:03Z</time>
      </trkpt>
      <trkpt lat="50.59229" lon="2.927">
        <ele>33.78</ele>
        <time>2021-08-07T12:29:05Z</time>
      </trkpt>
      <trkpt lat="50.59182" lon="2.92704">
        <ele>33.3</ele>
        <time>2021-08-07T12:29:17Z</time>
      </trkpt>
      <trkpt lat="50.59178" lon="2.92704">
        <ele>33.3</ele>
        <time>2021-08-07T12:29:18Z</time>
      </trkpt>
      <trkpt lat="50.59159" lon="2.92698">
        <ele>32.34</ele>
        <time>2021-08-07T12:29:23Z</time>
      </trkpt>
      <trkpt lat="50.59156" lon="2.92693">
        <ele>33.78</ele>
        <time>2021-08-07T12:29:24Z</time>
      </trkpt>
      <trkpt lat="50.59153" lon="2.92692">
        <ele>33.78</ele>
        <time>2021-08-07T12:29:25Z</time>
      </trkpt>
      <trkpt lat="50.59151" lon="2.92694">
        <ele>33.78</ele>
        <time>2021-08-07T12:29:26Z</time>
      </trkpt>
      <trkpt lat="50.59149" lon="2.92697">
        <ele>33.78</ele>
        <time>2021-08-07T12:29:27Z</time>
      </trkpt>
      <trkpt lat="50.59147" lon="2.927">
        <ele>33.78</ele>
        <time>2021-08-07T12:29:28Z</time>
      </trkpt>
      <trkpt lat="50.59144" lon="2.92703">
        <ele>33.78</ele>
        <time>2021-08-07T12:29:29Z</time>
      </trkpt>
      <trkpt lat="50.59141" lon="2.92704">
        <ele>33.78</ele>
        <time>2021-08-07T12:29:30Z</time>
      </trkpt>
      <trkpt lat="50.59138" lon="2.92703">
        <ele>33.78</ele>
        <time>2021-08-07T12:29:31Z</time>
      </trkpt>
      <trkpt lat="50.59134" lon="2.927">
        <ele>33.78</ele>
        <time>2021-08-07T12:29:32Z</time>
      </trkpt>
      <trkpt lat="50.59131" lon="2.92698">
        <ele>33.78</ele>
        <time>2021-08-07T12:29:33Z</time>
      </trkpt>
      <trkpt lat="50.59128" lon="2.92696">
        <ele>33.78</ele>
        <time>2021-08-07T12:29:34Z</time>
      </trkpt>
      <trkpt lat="50.59125" lon="2.92696">
        <ele>33.78</ele>
        <time>2021-08-07T12:29:35Z</time>
      </trkpt>
      <trkpt lat="50.59122" lon="2.92696">
        <ele>33.78</ele>
        <time>2021-08-07T12:29:36Z</time>
      </trkpt>
      <trkpt lat="50.59118" lon="2.92697">
        <ele>33.78</ele>
        <time>2021-08-07T12:29:37Z</time>
      </trkpt>
      <trkpt lat="50.59114" lon="2.92698">
        <ele>32.34</ele>
        <time>2021-08-07T12:29:38Z</time>
      </trkpt>
      <trkpt lat="50.5911" lon="2.92699">
        <ele>32.82</ele>
        <time>2021-08-07T12:29:39Z</time>
      </trkpt>
      <trkpt lat="50.59094" lon="2.92701">
        <ele>33.78</ele>
        <time>2021-08-07T12:29:43Z</time>
      </trkpt>
      <trkpt lat="50.59074" lon="2.92687">
        <ele>34.26</ele>
        <time>2021-08-07T12:29:49Z</time>
      </trkpt>
      <trkpt lat="50.59053" lon="2.92683">
        <ele>34.26</ele>
        <time>2021-08-07T12:29:55Z</time>
      </trkpt>
      <trkpt lat="50.5904" lon="2.92687">
        <ele>34.26</ele>
        <time>2021-08-07T12:29:59Z</time>
      </trkpt>
      <trkpt lat="50.59037" lon="2.9269">
        <ele>34.26</ele>
        <time>2021-08-07T12:30:00Z</time>
      </trkpt>
      <trkpt lat="50.59035" lon="2.92695">
        <ele>34.26</ele>
        <time>2021-08-07T12:30:01Z</time>
      </trkpt>
      <trkpt lat="50.59034" lon="2.92699">
        <ele>34.26</ele>
        <time>2021-08-07T12:30:02Z</time>
      </trkpt>
      <trkpt lat="50.59034" lon="2.92705">
        <ele>35.23</ele>
        <time>2021-08-07T12:30:03Z</time>
      </trkpt>
      <trkpt lat="50.59024" lon="2.92741">
        <ele>32.82</ele>
        <time>2021-08-07T12:30:10Z</time>
      </trkpt>
      <trkpt lat="50.59019" lon="2.92746">
        <ele>32.82</ele>
        <time>2021-08-07T12:30:11Z</time>
      </trkpt>
      <trkpt lat="50.58983" lon="2.92778">
        <ele>32.34</ele>
        <time>2021-08-07T12:30:20Z</time>
      </trkpt>
      <trkpt lat="50.58979" lon="2.92781">
        <ele>32.34</ele>
        <time>2021-08-07T12:30:21Z</time>
      </trkpt>
      <trkpt lat="50.58975" lon="2.92784">
        <ele>32.34</ele>
        <time>2021-08-07T12:30:22Z</time>
      </trkpt>
      <trkpt lat="50.58967" lon="2.92789">
        <ele>31.38</ele>
        <time>2021-08-07T12:30:24Z</time>
      </trkpt>
      <trkpt lat="50.58962" lon="2.92791">
        <ele>30.9</ele>
        <time>2021-08-07T12:30:25Z</time>
      </trkpt>
      <trkpt lat="50.58952" lon="2.92793">
        <ele>31.38</ele>
        <time>2021-08-07T12:30:27Z</time>
      </trkpt>
      <trkpt lat="50.58948" lon="2.9279">
        <ele>32.82</ele>
        <time>2021-08-07T12:30:28Z</time>
      </trkpt>
      <trkpt lat="50.58945" lon="2.92787">
        <ele>32.82</ele>
        <time>2021-08-07T12:30:29Z</time>
      </trkpt>
      <trkpt lat="50.58941" lon="2.92784">
        <ele>32.82</ele>
        <time>2021-08-07T12:30:30Z</time>
      </trkpt>
      <trkpt lat="50.58938" lon="2.92782">
        <ele>32.82</ele>
        <time>2021-08-07T12:30:31Z</time>
      </trkpt>
      <trkpt lat="50.58933" lon="2.9278">
        <ele>32.82</ele>
        <time>2021-08-07T12:30:32Z</time>
      </trkpt>
      <trkpt lat="50.58928" lon="2.92779">
        <ele>32.82</ele>
        <time>2021-08-07T12:30:33Z</time>
      </trkpt>
      <trkpt lat="50.58925" lon="2.9278">
        <ele>32.82</ele>
        <time>2021-08-07T12:30:34Z</time>
      </trkpt>
      <trkpt lat="50.58921" lon="2.92783">
        <ele>32.82</ele>
        <time>2021-08-07T12:30:35Z</time>
      </trkpt>
      <trkpt lat="50.58918" lon="2.92787">
        <ele>32.82</ele>
        <time>2021-08-07T12:30:36Z</time>
      </trkpt>
      <trkpt lat="50.58915" lon="2.92792">
        <ele>31.38</ele>
        <time>2021-08-07T12:30:37Z</time>
      </trkpt>
      <trkpt lat="50.58911" lon="2.92798">
        <ele>31.38</ele>
        <time>2021-08-07T12:30:38Z</time>
      </trkpt>
      <trkpt lat="50.58908" lon="2.92804">
        <ele>31.38</ele>
        <time>2021-08-07T12:30:39Z</time>
      </trkpt>
      <trkpt lat="50.58907" lon="2.9281">
        <ele>31.38</ele>
        <time>2021-08-07T12:30:40Z</time>
      </trkpt>
      <trkpt lat="50.58905" lon="2.92818">
        <ele>31.38</ele>
        <time>2021-08-07T12:30:41Z</time>
      </trkpt>
      <trkpt lat="50.589" lon="2.92832">
        <ele>31.38</ele>
        <time>2021-08-07T12:30:43Z</time>
      </trkpt>
      <trkpt lat="50.58896" lon="2.92838">
        <ele>31.38</ele>
        <time>2021-08-07T12:30:44Z</time>
      </trkpt>
      <trkpt lat="50.58892" lon="2.92843">
        <ele>30.9</ele>
        <time>2021-08-07T12:30:45Z</time>
      </trkpt>
      <trkpt lat="50.58875" lon="2.92862">
        <ele>30.42</ele>
        <time>2021-08-07T12:30:49Z</time>
      </trkpt>
      <trkpt lat="50.58868" lon="2.92874">
        <ele>30.9</ele>
        <time>2021-08-07T12:30:51Z</time>
      </trkpt>
      <trkpt lat="50.58864" lon="2.92877">
        <ele>30.42</ele>
        <time>2021-08-07T12:30:52Z</time>
      </trkpt>
      <trkpt lat="50.58859" lon="2.9288">
        <ele>30.42</ele>
        <time>2021-08-07T12:30:53Z</time>
      </trkpt>
      <trkpt lat="50.58807" lon="2.92916">
        <ele>28.98</ele>
        <time>2021-08-07T12:31:03Z</time>
      </trkpt>
      <trkpt lat="50.5877" lon="2.92929">
        <ele>28.98</ele>
        <time>2021-08-07T12:31:10Z</time>
      </trkpt>
      <trkpt lat="50.58761" lon="2.92933">
        <ele>28.98</ele>
        <time>2021-08-07T12:31:12Z</time>
      </trkpt>
      <trkpt lat="50.58757" lon="2.92938">
        <ele>28.98</ele>
        <time>2021-08-07T12:31:13Z</time>
      </trkpt>
      <trkpt lat="50.58755" lon="2.92944">
        <ele>28.98</ele>
        <time>2021-08-07T12:31:14Z</time>
      </trkpt>
      <trkpt lat="50.58754" lon="2.92952">
        <ele>28.98</ele>
        <time>2021-08-07T12:31:15Z</time>
      </trkpt>
      <trkpt lat="50.58754" lon="2.92959">
        <ele>28.98</ele>
        <time>2021-08-07T12:31:16Z</time>
      </trkpt>
      <trkpt lat="50.58756" lon="2.93035">
        <ele>28.98</ele>
        <time>2021-08-07T12:31:25Z</time>
      </trkpt>
      <trkpt lat="50.58759" lon="2.93104">
        <ele>28.98</ele>
        <time>2021-08-07T12:31:33Z</time>
      </trkpt>
      <trkpt lat="50.58762" lon="2.93177">
        <ele>28.5</ele>
        <time>2021-08-07T12:31:43Z</time>
      </trkpt>
      <trkpt lat="50.58766" lon="2.93247">
        <ele>28.5</ele>
        <time>2021-08-07T12:31:54Z</time>
      </trkpt>
      <trkpt lat="50.58771" lon="2.93294">
        <ele>28.5</ele>
        <time>2021-08-07T12:32:01Z</time>
      </trkpt>
      <trkpt lat="50.58786" lon="2.93354">
        <ele>28.5</ele>
        <time>2021-08-07T12:32:10Z</time>
      </trkpt>
      <trkpt lat="50.58804" lon="2.93406">
        <ele>28.5</ele>
        <time>2021-08-07T12:32:18Z</time>
      </trkpt>
      <trkpt lat="50.58813" lon="2.93424">
        <ele>28.5</ele>
        <time>2021-08-07T12:32:21Z</time>
      </trkpt>
      <trkpt lat="50.58844" lon="2.93462">
        <ele>28.5</ele>
        <time>2021-08-07T12:32:29Z</time>
      </trkpt>
      <trkpt lat="50.58885" lon="2.93501">
        <ele>28.02</ele>
        <time>2021-08-07T12:32:38Z</time>
      </trkpt>
      <trkpt lat="50.58924" lon="2.93546">
        <ele>27.53</ele>
        <time>2021-08-07T12:32:47Z</time>
      </trkpt>
      <trkpt lat="50.58928" lon="2.9355">
        <ele>27.53</ele>
        <time>2021-08-07T12:32:48Z</time>
      </trkpt>
      <trkpt lat="50.58933" lon="2.93556">
        <ele>27.53</ele>
        <time>2021-08-07T12:32:49Z</time>
      </trkpt>
      <trkpt lat="50.58955" lon="2.9359">
        <ele>27.05</ele>
        <time>2021-08-07T12:32:55Z</time>
      </trkpt>
      <trkpt lat="50.58993" lon="2.93653">
        <ele>27.53</ele>
        <time>2021-08-07T12:33:05Z</time>
      </trkpt>
      <trkpt lat="50.59031" lon="2.9371">
        <ele>27.53</ele>
        <time>2021-08-07T12:33:15Z</time>
      </trkpt>
      <trkpt lat="50.59045" lon="2.93731">
        <ele>28.5</ele>
        <time>2021-08-07T12:33:19Z</time>
      </trkpt>
      <trkpt lat="50.59084" lon="2.93788">
        <ele>28.98</ele>
        <time>2021-08-07T12:33:29Z</time>
      </trkpt>
      <trkpt lat="50.59115" lon="2.93825">
        <ele>27.53</ele>
        <time>2021-08-07T12:33:36Z</time>
      </trkpt>
      <trkpt lat="50.59166" lon="2.93853">
        <ele>27.05</ele>
        <time>2021-08-07T12:33:45Z</time>
      </trkpt>
      <trkpt lat="50.59216" lon="2.9388">
        <ele>27.05</ele>
        <time>2021-08-07T12:33:54Z</time>
      </trkpt>
      <trkpt lat="50.59261" lon="2.93906">
        <ele>27.05</ele>
        <time>2021-08-07T12:34:03Z</time>
      </trkpt>
      <trkpt lat="50.59285" lon="2.93922">
        <ele>27.05</ele>
        <time>2021-08-07T12:34:08Z</time>
      </trkpt>
      <trkpt lat="50.59289" lon="2.93928">
        <ele>27.05</ele>
        <time>2021-08-07T12:34:09Z</time>
      </trkpt>
      <trkpt lat="50.59291" lon="2.93934">
        <ele>27.05</ele>
        <time>2021-08-07T12:34:10Z</time>
      </trkpt>
      <trkpt lat="50.59293" lon="2.93942">
        <ele>27.05</ele>
        <time>2021-08-07T12:34:11Z</time>
      </trkpt>
      <trkpt lat="50.59293" lon="2.93951">
        <ele>27.05</ele>
        <time>2021-08-07T12:34:12Z</time>
      </trkpt>
      <trkpt lat="50.59292" lon="2.93959">
        <ele>26.57</ele>
        <time>2021-08-07T12:34:13Z</time>
      </trkpt>
      <trkpt lat="50.59291" lon="2.93967">
        <ele>26.57</ele>
        <time>2021-08-07T12:34:14Z</time>
      </trkpt>
      <trkpt lat="50.59289" lon="2.93975">
        <ele>26.57</ele>
        <time>2021-08-07T12:34:15Z</time>
      </trkpt>
      <trkpt lat="50.59288" lon="2.93982">
        <ele>27.53</ele>
        <time>2021-08-07T12:34:16Z</time>
      </trkpt>
      <trkpt lat="50.59288" lon="2.9399">
        <ele>27.53</ele>
        <time>2021-08-07T12:34:17Z</time>
      </trkpt>
      <trkpt lat="50.59287" lon="2.93997">
        <ele>27.53</ele>
        <time>2021-08-07T12:34:18Z</time>
      </trkpt>
      <trkpt lat="50.59278" lon="2.94056">
        <ele>27.53</ele>
        <time>2021-08-07T12:34:26Z</time>
      </trkpt>
      <trkpt lat="50.59275" lon="2.94079">
        <ele>26.09</ele>
        <time>2021-08-07T12:34:29Z</time>
      </trkpt>
      <trkpt lat="50.59264" lon="2.94157">
        <ele>26.57</ele>
        <time>2021-08-07T12:34:39Z</time>
      </trkpt>
      <trkpt lat="50.59259" lon="2.94188">
        <ele>25.13</ele>
        <time>2021-08-07T12:34:43Z</time>
      </trkpt>
      <trkpt lat="50.59258" lon="2.94203">
        <ele>26.57</ele>
        <time>2021-08-07T12:34:45Z</time>
      </trkpt>
      <trkpt lat="50.59258" lon="2.94211">
        <ele>26.57</ele>
        <time>2021-08-07T12:34:46Z</time>
      </trkpt>
      <trkpt lat="50.59258" lon="2.94219">
        <ele>26.57</ele>
        <time>2021-08-07T12:34:47Z</time>
      </trkpt>
      <trkpt lat="50.59259" lon="2.94227">
        <ele>26.57</ele>
        <time>2021-08-07T12:34:48Z</time>
      </trkpt>
      <trkpt lat="50.59261" lon="2.94234">
        <ele>26.57</ele>
        <time>2021-08-07T12:34:49Z</time>
      </trkpt>
      <trkpt lat="50.59262" lon="2.94242">
        <ele>26.57</ele>
        <time>2021-08-07T12:34:50Z</time>
      </trkpt>
      <trkpt lat="50.5928" lon="2.94317">
        <ele>26.57</ele>
        <time>2021-08-07T12:35:00Z</time>
      </trkpt>
      <trkpt lat="50.59295" lon="2.94385">
        <ele>26.57</ele>
        <time>2021-08-07T12:35:09Z</time>
      </trkpt>
      <trkpt lat="50.59307" lon="2.94455">
        <ele>26.57</ele>
        <time>2021-08-07T12:35:18Z</time>
      </trkpt>
      <trkpt lat="50.59318" lon="2.94522">
        <ele>26.09</ele>
        <time>2021-08-07T12:35:27Z</time>
      </trkpt>
      <trkpt lat="50.59329" lon="2.94587">
        <ele>26.09</ele>
        <time>2021-08-07T12:35:36Z</time>
      </trkpt>
      <trkpt lat="50.59329" lon="2.94594">
        <ele>26.09</ele>
        <time>2021-08-07T12:35:37Z</time>
      </trkpt>
      <trkpt lat="50.59329" lon="2.94601">
        <ele>26.09</ele>
        <time>2021-08-07T12:35:38Z</time>
      </trkpt>
      <trkpt lat="50.59328" lon="2.94608">
        <ele>26.09</ele>
        <time>2021-08-07T12:35:39Z</time>
      </trkpt>
      <trkpt lat="50.59326" lon="2.94615">
        <ele>26.09</ele>
        <time>2021-08-07T12:35:40Z</time>
      </trkpt>
      <trkpt lat="50.59323" lon="2.94619">
        <ele>24.65</ele>
        <time>2021-08-07T12:35:41Z</time>
      </trkpt>
      <trkpt lat="50.5932" lon="2.94622">
        <ele>24.65</ele>
        <time>2021-08-07T12:35:42Z</time>
      </trkpt>
      <trkpt lat="50.59316" lon="2.94626">
        <ele>24.65</ele>
        <time>2021-08-07T12:35:43Z</time>
      </trkpt>
      <trkpt lat="50.59312" lon="2.9463">
        <ele>24.65</ele>
        <time>2021-08-07T12:35:44Z</time>
      </trkpt>
      <trkpt lat="50.59285" lon="2.94654">
        <ele>24.65</ele>
        <time>2021-08-07T12:35:51Z</time>
      </trkpt>
      <trkpt lat="50.59281" lon="2.94657">
        <ele>24.65</ele>
        <time>2021-08-07T12:35:52Z</time>
      </trkpt>
      <trkpt lat="50.59277" lon="2.94661">
        <ele>24.65</ele>
        <time>2021-08-07T12:35:53Z</time>
      </trkpt>
      <trkpt lat="50.59244" lon="2.94701">
        <ele>24.17</ele>
        <time>2021-08-07T12:36:02Z</time>
      </trkpt>
      <trkpt lat="50.59212" lon="2.9474">
        <ele>23.69</ele>
        <time>2021-08-07T12:36:11Z</time>
      </trkpt>
      <trkpt lat="50.59186" lon="2.94774">
        <ele>23.21</ele>
        <time>2021-08-07T12:36:20Z</time>
      </trkpt>
      <trkpt lat="50.59177" lon="2.94787">
        <ele>25.13</ele>
        <time>2021-08-07T12:36:26Z</time>
      </trkpt>
      <trkpt lat="50.59177" lon="2.9479">
        <ele>25.13</ele>
        <time>2021-08-07T12:36:37Z</time>
      </trkpt>
      <trkpt lat="50.59174" lon="2.94792">
        <ele>23.69</ele>
        <time>2021-08-07T12:36:44Z</time>
      </trkpt>
      <trkpt lat="50.59174" lon="2.94792">
        <ele>23.21</ele>
        <time>2021-08-07T12:36:58Z</time>
      </trkpt>
      <trkpt lat="50.59175" lon="2.94792">
        <ele>23.21</ele>
        <time>2021-08-07T12:37:13Z</time>
      </trkpt>
      <trkpt lat="50.59174" lon="2.94791">
        <ele>23.21</ele>
        <time>2021-08-07T12:37:25Z</time>
      </trkpt>
      <trkpt lat="50.59174" lon="2.94791">
        <ele>23.21</ele>
        <time>2021-08-07T12:37:34Z</time>
      </trkpt>
      <trkpt lat="50.59174" lon="2.94791">
        <ele>23.21</ele>
        <time>2021-08-07T12:37:46Z</time>
      </trkpt>
      <trkpt lat="50.59174" lon="2.94792">
        <ele>23.21</ele>
        <time>2021-08-07T12:38:00Z</time>
      </trkpt>
      <trkpt lat="50.59175" lon="2.94793">
        <ele>23.21</ele>
        <time>2021-08-07T12:38:10Z</time>
      </trkpt>
      <trkpt lat="50.59174" lon="2.94793">
        <ele>23.21</ele>
        <time>2021-08-07T12:38:21Z</time>
      </trkpt>
      <trkpt lat="50.59175" lon="2.94793">
        <ele>23.21</ele>
        <time>2021-08-07T12:38:33Z</time>
      </trkpt>
      <trkpt lat="50.59174" lon="2.94792">
        <ele>23.21</ele>
        <time>2021-08-07T12:38:43Z</time>
      </trkpt>
      <trkpt lat="50.59174" lon="2.94792">
        <ele>23.21</ele>
        <time>2021-08-07T12:39:01Z</time>
      </trkpt>
      <trkpt lat="50.59174" lon="2.94792">
        <ele>23.21</ele>
        <time>2021-08-07T12:39:11Z</time>
      </trkpt>
      <trkpt lat="50.59174" lon="2.94791">
        <ele>23.21</ele>
        <time>2021-08-07T12:39:25Z</time>
      </trkpt>
      <trkpt lat="50.59174" lon="2.94791">
        <ele>23.21</ele>
        <time>2021-08-07T12:39:26Z</time>
      </trkpt>
      <trkpt lat="50.59175" lon="2.94792">
        <ele>24.65</ele>
        <time>2021-08-07T12:39:36Z</time>
      </trkpt>
      <trkpt lat="50.59175" lon="2.94797">
        <ele>24.65</ele>
        <time>2021-08-07T12:39:44Z</time>
      </trkpt>
      <trkpt lat="50.59175" lon="2.94801">
        <ele>24.65</ele>
        <time>2021-08-07T12:39:48Z</time>
      </trkpt>
      <trkpt lat="50.59175" lon="2.94803">
        <ele>24.65</ele>
        <time>2021-08-07T12:39:49Z</time>
      </trkpt>
      <trkpt lat="50.59175" lon="2.94806">
        <ele>24.65</ele>
        <time>2021-08-07T12:39:50Z</time>
      </trkpt>
      <trkpt lat="50.59175" lon="2.94809">
        <ele>24.65</ele>
        <time>2021-08-07T12:39:51Z</time>
      </trkpt>
      <trkpt lat="50.59175" lon="2.94812">
        <ele>24.65</ele>
        <time>2021-08-07T12:39:52Z</time>
      </trkpt>
      <trkpt lat="50.59175" lon="2.94814">
        <ele>24.65</ele>
        <time>2021-08-07T12:39:53Z</time>
      </trkpt>
      <trkpt lat="50.59176" lon="2.94819">
        <ele>24.65</ele>
        <time>2021-08-07T12:39:54Z</time>
      </trkpt>
      <trkpt lat="50.59177" lon="2.94824">
        <ele>24.65</ele>
        <time>2021-08-07T12:39:55Z</time>
      </trkpt>
      <trkpt lat="50.5918" lon="2.94829">
        <ele>25.13</ele>
        <time>2021-08-07T12:39:56Z</time>
      </trkpt>
      <trkpt lat="50.59182" lon="2.94832">
        <ele>25.13</ele>
        <time>2021-08-07T12:39:57Z</time>
      </trkpt>
      <trkpt lat="50.59186" lon="2.94836">
        <ele>25.13</ele>
        <time>2021-08-07T12:39:58Z</time>
      </trkpt>
      <trkpt lat="50.59188" lon="2.94841">
        <ele>25.13</ele>
        <time>2021-08-07T12:39:59Z</time>
      </trkpt>
      <trkpt lat="50.5919" lon="2.94848">
        <ele>25.13</ele>
        <time>2021-08-07T12:40:00Z</time>
      </trkpt>
      <trkpt lat="50.5919" lon="2.94854">
        <ele>25.13</ele>
        <time>2021-08-07T12:40:01Z</time>
      </trkpt>
      <trkpt lat="50.59189" lon="2.94861">
        <ele>23.69</ele>
        <time>2021-08-07T12:40:02Z</time>
      </trkpt>
      <trkpt lat="50.59187" lon="2.94867">
        <ele>23.21</ele>
        <time>2021-08-07T12:40:03Z</time>
      </trkpt>
      <trkpt lat="50.59185" lon="2.94873">
        <ele>23.21</ele>
        <time>2021-08-07T12:40:04Z</time>
      </trkpt>
      <trkpt lat="50.59182" lon="2.94879">
        <ele>23.21</ele>
        <time>2021-08-07T12:40:05Z</time>
      </trkpt>
      <trkpt lat="50.59179" lon="2.94885">
        <ele>23.21</ele>
        <time>2021-08-07T12:40:06Z</time>
      </trkpt>
      <trkpt lat="50.59175" lon="2.94891">
        <ele>23.21</ele>
        <time>2021-08-07T12:40:07Z</time>
      </trkpt>
      <trkpt lat="50.59171" lon="2.94896">
        <ele>22.73</ele>
        <time>2021-08-07T12:40:08Z</time>
      </trkpt>
      <trkpt lat="50.59131" lon="2.94941">
        <ele>21.77</ele>
        <time>2021-08-07T12:40:18Z</time>
      </trkpt>
      <trkpt lat="50.59116" lon="2.94957">
        <ele>21.77</ele>
        <time>2021-08-07T12:40:22Z</time>
      </trkpt>
      <trkpt lat="50.59112" lon="2.94961">
        <ele>21.77</ele>
        <time>2021-08-07T12:40:23Z</time>
      </trkpt>
      <trkpt lat="50.59109" lon="2.94965">
        <ele>21.77</ele>
        <time>2021-08-07T12:40:24Z</time>
      </trkpt>
      <trkpt lat="50.59073" lon="2.95015">
        <ele>23.21</ele>
        <time>2021-08-07T12:40:34Z</time>
      </trkpt>
      <trkpt lat="50.59066" lon="2.95025">
        <ele>23.21</ele>
        <time>2021-08-07T12:40:36Z</time>
      </trkpt>
      <trkpt lat="50.59053" lon="2.95048">
        <ele>23.21</ele>
        <time>2021-08-07T12:40:40Z</time>
      </trkpt>
      <trkpt lat="50.59047" lon="2.9506">
        <ele>21.29</ele>
        <time>2021-08-07T12:40:42Z</time>
      </trkpt>
      <trkpt lat="50.59044" lon="2.95065">
        <ele>21.29</ele>
        <time>2021-08-07T12:40:43Z</time>
      </trkpt>
      <trkpt lat="50.5904" lon="2.9507">
        <ele>21.29</ele>
        <time>2021-08-07T12:40:44Z</time>
      </trkpt>
      <trkpt lat="50.59023" lon="2.95103">
        <ele>22.73</ele>
        <time>2021-08-07T12:40:50Z</time>
      </trkpt>
      <trkpt lat="50.58996" lon="2.9515">
        <ele>23.21</ele>
        <time>2021-08-07T12:40:59Z</time>
      </trkpt>
      <trkpt lat="50.58959" lon="2.95199">
        <ele>23.69</ele>
        <time>2021-08-07T12:41:10Z</time>
      </trkpt>
      <trkpt lat="50.58917" lon="2.95241">
        <ele>23.69</ele>
        <time>2021-08-07T12:41:21Z</time>
      </trkpt>
      <trkpt lat="50.58883" lon="2.95275">
        <ele>23.69</ele>
        <time>2021-08-07T12:41:30Z</time>
      </trkpt>
      <trkpt lat="50.58845" lon="2.95313">
        <ele>24.17</ele>
        <time>2021-08-07T12:41:40Z</time>
      </trkpt>
      <trkpt lat="50.58804" lon="2.95348">
        <ele>24.17</ele>
        <time>2021-08-07T12:41:50Z</time>
      </trkpt>
      <trkpt lat="50.58766" lon="2.95387">
        <ele>24.17</ele>
        <time>2021-08-07T12:42:00Z</time>
      </trkpt>
      <trkpt lat="50.58743" lon="2.95419">
        <ele>23.21</ele>
        <time>2021-08-07T12:42:07Z</time>
      </trkpt>
      <trkpt lat="50.58736" lon="2.95427">
        <ele>23.21</ele>
        <time>2021-08-07T12:42:09Z</time>
      </trkpt>
      <trkpt lat="50.58732" lon="2.95431">
        <ele>23.21</ele>
        <time>2021-08-07T12:42:10Z</time>
      </trkpt>
      <trkpt lat="50.58726" lon="2.9544">
        <ele>24.65</ele>
        <time>2021-08-07T12:42:12Z</time>
      </trkpt>
      <trkpt lat="50.58701" lon="2.95476">
        <ele>24.65</ele>
        <time>2021-08-07T12:42:20Z</time>
      </trkpt>
      <trkpt lat="50.58695" lon="2.95482">
        <ele>24.65</ele>
        <time>2021-08-07T12:42:22Z</time>
      </trkpt>
      <trkpt lat="50.58692" lon="2.95485">
        <ele>24.65</ele>
        <time>2021-08-07T12:42:23Z</time>
      </trkpt>
      <trkpt lat="50.58689" lon="2.9549">
        <ele>24.65</ele>
        <time>2021-08-07T12:42:24Z</time>
      </trkpt>
      <trkpt lat="50.58685" lon="2.95495">
        <ele>24.65</ele>
        <time>2021-08-07T12:42:25Z</time>
      </trkpt>
      <trkpt lat="50.58682" lon="2.95499">
        <ele>24.65</ele>
        <time>2021-08-07T12:42:26Z</time>
      </trkpt>
      <trkpt lat="50.58678" lon="2.95503">
        <ele>24.65</ele>
        <time>2021-08-07T12:42:27Z</time>
      </trkpt>
      <trkpt lat="50.58663" lon="2.95522">
        <ele>23.21</ele>
        <time>2021-08-07T12:42:31Z</time>
      </trkpt>
      <trkpt lat="50.58659" lon="2.95527">
        <ele>23.21</ele>
        <time>2021-08-07T12:42:32Z</time>
      </trkpt>
      <trkpt lat="50.58655" lon="2.95532">
        <ele>23.21</ele>
        <time>2021-08-07T12:42:33Z</time>
      </trkpt>
      <trkpt lat="50.58651" lon="2.95536">
        <ele>22.73</ele>
        <time>2021-08-07T12:42:34Z</time>
      </trkpt>
      <trkpt lat="50.58646" lon="2.9554">
        <ele>22.73</ele>
        <time>2021-08-07T12:42:35Z</time>
      </trkpt>
      <trkpt lat="50.58632" lon="2.95551">
        <ele>22.25</ele>
        <time>2021-08-07T12:42:38Z</time>
      </trkpt>
      <trkpt lat="50.58628" lon="2.95553">
        <ele>22.25</ele>
        <time>2021-08-07T12:42:39Z</time>
      </trkpt>
      <trkpt lat="50.58623" lon="2.95554">
        <ele>22.25</ele>
        <time>2021-08-07T12:42:40Z</time>
      </trkpt>
      <trkpt lat="50.58617" lon="2.95553">
        <ele>22.25</ele>
        <time>2021-08-07T12:42:41Z</time>
      </trkpt>
      <trkpt lat="50.58613" lon="2.95551">
        <ele>22.25</ele>
        <time>2021-08-07T12:42:42Z</time>
      </trkpt>
      <trkpt lat="50.58608" lon="2.95548">
        <ele>22.25</ele>
        <time>2021-08-07T12:42:43Z</time>
      </trkpt>
      <trkpt lat="50.58604" lon="2.95544">
        <ele>22.25</ele>
        <time>2021-08-07T12:42:44Z</time>
      </trkpt>
      <trkpt lat="50.586" lon="2.95539">
        <ele>22.25</ele>
        <time>2021-08-07T12:42:45Z</time>
      </trkpt>
      <trkpt lat="50.58597" lon="2.95535">
        <ele>22.25</ele>
        <time>2021-08-07T12:42:46Z</time>
      </trkpt>
      <trkpt lat="50.58594" lon="2.9553">
        <ele>22.25</ele>
        <time>2021-08-07T12:42:47Z</time>
      </trkpt>
      <trkpt lat="50.58579" lon="2.95515">
        <ele>22.25</ele>
        <time>2021-08-07T12:42:51Z</time>
      </trkpt>
      <trkpt lat="50.58575" lon="2.95514">
        <ele>22.25</ele>
        <time>2021-08-07T12:42:52Z</time>
      </trkpt>
      <trkpt lat="50.58571" lon="2.95515">
        <ele>22.25</ele>
        <time>2021-08-07T12:42:53Z</time>
      </trkpt>
      <trkpt lat="50.58567" lon="2.95517">
        <ele>22.25</ele>
        <time>2021-08-07T12:42:54Z</time>
      </trkpt>
      <trkpt lat="50.58563" lon="2.9552">
        <ele>22.25</ele>
        <time>2021-08-07T12:42:55Z</time>
      </trkpt>
      <trkpt lat="50.5856" lon="2.95523">
        <ele>22.25</ele>
        <time>2021-08-07T12:42:56Z</time>
      </trkpt>
      <trkpt lat="50.58556" lon="2.95527">
        <ele>22.25</ele>
        <time>2021-08-07T12:42:57Z</time>
      </trkpt>
      <trkpt lat="50.58552" lon="2.95531">
        <ele>21.29</ele>
        <time>2021-08-07T12:42:58Z</time>
      </trkpt>
      <trkpt lat="50.58546" lon="2.95538">
        <ele>20.32</ele>
        <time>2021-08-07T12:43:00Z</time>
      </trkpt>
      <trkpt lat="50.58536" lon="2.95548">
        <ele>22.25</ele>
        <time>2021-08-07T12:43:03Z</time>
      </trkpt>
      <trkpt lat="50.58502" lon="2.95585">
        <ele>22.25</ele>
        <time>2021-08-07T12:43:13Z</time>
      </trkpt>
      <trkpt lat="50.58498" lon="2.95589">
        <ele>22.25</ele>
        <time>2021-08-07T12:43:14Z</time>
      </trkpt>
      <trkpt lat="50.58484" lon="2.95603">
        <ele>19.84</ele>
        <time>2021-08-07T12:43:18Z</time>
      </trkpt>
      <trkpt lat="50.58477" lon="2.9561">
        <ele>21.29</ele>
        <time>2021-08-07T12:43:20Z</time>
      </trkpt>
      <trkpt lat="50.58464" lon="2.95625">
        <ele>21.29</ele>
        <time>2021-08-07T12:43:24Z</time>
      </trkpt>
      <trkpt lat="50.58461" lon="2.95628">
        <ele>21.29</ele>
        <time>2021-08-07T12:43:25Z</time>
      </trkpt>
      <trkpt lat="50.58457" lon="2.95632">
        <ele>21.29</ele>
        <time>2021-08-07T12:43:26Z</time>
      </trkpt>
      <trkpt lat="50.58441" lon="2.95644">
        <ele>21.29</ele>
        <time>2021-08-07T12:43:30Z</time>
      </trkpt>
      <trkpt lat="50.58437" lon="2.95644">
        <ele>21.29</ele>
        <time>2021-08-07T12:43:31Z</time>
      </trkpt>
      <trkpt lat="50.58432" lon="2.95641">
        <ele>21.77</ele>
        <time>2021-08-07T12:43:32Z</time>
      </trkpt>
      <trkpt lat="50.58428" lon="2.95635">
        <ele>21.77</ele>
        <time>2021-08-07T12:43:33Z</time>
      </trkpt>
      <trkpt lat="50.58425" lon="2.9563">
        <ele>22.25</ele>
        <time>2021-08-07T12:43:34Z</time>
      </trkpt>
      <trkpt lat="50.58397" lon="2.95579">
        <ele>22.25</ele>
        <time>2021-08-07T12:43:43Z</time>
      </trkpt>
      <trkpt lat="50.58391" lon="2.95569">
        <ele>22.25</ele>
        <time>2021-08-07T12:43:45Z</time>
      </trkpt>
      <trkpt lat="50.58387" lon="2.95566">
        <ele>22.25</ele>
        <time>2021-08-07T12:43:46Z</time>
      </trkpt>
      <trkpt lat="50.58382" lon="2.95566">
        <ele>22.25</ele>
        <time>2021-08-07T12:43:47Z</time>
      </trkpt>
      <trkpt lat="50.58378" lon="2.95569">
        <ele>21.29</ele>
        <time>2021-08-07T12:43:48Z</time>
      </trkpt>
      <trkpt lat="50.58374" lon="2.95573">
        <ele>21.29</ele>
        <time>2021-08-07T12:43:49Z</time>
      </trkpt>
      <trkpt lat="50.5837" lon="2.95579">
        <ele>21.29</ele>
        <time>2021-08-07T12:43:50Z</time>
      </trkpt>
      <trkpt lat="50.58367" lon="2.95584">
        <ele>21.29</ele>
        <time>2021-08-07T12:43:51Z</time>
      </trkpt>
      <trkpt lat="50.58364" lon="2.9559">
        <ele>20.81</ele>
        <time>2021-08-07T12:43:52Z</time>
      </trkpt>
      <trkpt lat="50.58337" lon="2.9564">
        <ele>20.32</ele>
        <time>2021-08-07T12:44:01Z</time>
      </trkpt>
      <trkpt lat="50.58303" lon="2.95687">
        <ele>20.81</ele>
        <time>2021-08-07T12:44:11Z</time>
      </trkpt>
      <trkpt lat="50.58279" lon="2.95713">
        <ele>20.81</ele>
        <time>2021-08-07T12:44:17Z</time>
      </trkpt>
      <trkpt lat="50.58274" lon="2.95716">
        <ele>20.81</ele>
        <time>2021-08-07T12:44:18Z</time>
      </trkpt>
      <trkpt lat="50.58238" lon="2.9573">
        <ele>19.84</ele>
        <time>2021-08-07T12:44:26Z</time>
      </trkpt>
      <trkpt lat="50.58214" lon="2.95745">
        <ele>20.32</ele>
        <time>2021-08-07T12:44:32Z</time>
      </trkpt>
      <trkpt lat="50.58207" lon="2.95749">
        <ele>20.32</ele>
        <time>2021-08-07T12:44:34Z</time>
      </trkpt>
      <trkpt lat="50.58199" lon="2.95753">
        <ele>20.32</ele>
        <time>2021-08-07T12:44:36Z</time>
      </trkpt>
      <trkpt lat="50.58194" lon="2.95753">
        <ele>20.32</ele>
        <time>2021-08-07T12:44:37Z</time>
      </trkpt>
      <trkpt lat="50.5819" lon="2.95752">
        <ele>20.32</ele>
        <time>2021-08-07T12:44:38Z</time>
      </trkpt>
      <trkpt lat="50.58187" lon="2.95749">
        <ele>20.81</ele>
        <time>2021-08-07T12:44:39Z</time>
      </trkpt>
      <trkpt lat="50.58183" lon="2.95746">
        <ele>21.29</ele>
        <time>2021-08-07T12:44:40Z</time>
      </trkpt>
      <trkpt lat="50.5817" lon="2.95736">
        <ele>19.36</ele>
        <time>2021-08-07T12:44:44Z</time>
      </trkpt>
      <trkpt lat="50.58162" lon="2.95734">
        <ele>19.36</ele>
        <time>2021-08-07T12:44:46Z</time>
      </trkpt>
      <trkpt lat="50.58158" lon="2.95734">
        <ele>19.36</ele>
        <time>2021-08-07T12:44:47Z</time>
      </trkpt>
      <trkpt lat="50.58154" lon="2.95735">
        <ele>19.36</ele>
        <time>2021-08-07T12:44:48Z</time>
      </trkpt>
      <trkpt lat="50.5815" lon="2.95736">
        <ele>19.36</ele>
        <time>2021-08-07T12:44:49Z</time>
      </trkpt>
      <trkpt lat="50.58146" lon="2.95738">
        <ele>18.88</ele>
        <time>2021-08-07T12:44:50Z</time>
      </trkpt>
      <trkpt lat="50.58142" lon="2.9574">
        <ele>18.88</ele>
        <time>2021-08-07T12:44:51Z</time>
      </trkpt>
      <trkpt lat="50.58113" lon="2.9576">
        <ele>19.36</ele>
        <time>2021-08-07T12:44:59Z</time>
      </trkpt>
      <trkpt lat="50.58109" lon="2.95763">
        <ele>19.36</ele>
        <time>2021-08-07T12:45:00Z</time>
      </trkpt>
      <trkpt lat="50.58087" lon="2.95779">
        <ele>19.36</ele>
        <time>2021-08-07T12:45:06Z</time>
      </trkpt>
      <trkpt lat="50.58084" lon="2.95783">
        <ele>19.36</ele>
        <time>2021-08-07T12:45:07Z</time>
      </trkpt>
      <trkpt lat="50.58081" lon="2.95787">
        <ele>19.84</ele>
        <time>2021-08-07T12:45:08Z</time>
      </trkpt>
      <trkpt lat="50.58051" lon="2.95823">
        <ele>18.4</ele>
        <time>2021-08-07T12:45:17Z</time>
      </trkpt>
      <trkpt lat="50.58048" lon="2.95828">
        <ele>18.4</ele>
        <time>2021-08-07T12:45:18Z</time>
      </trkpt>
      <trkpt lat="50.58046" lon="2.95833">
        <ele>18.4</ele>
        <time>2021-08-07T12:45:19Z</time>
      </trkpt>
      <trkpt lat="50.58043" lon="2.95839">
        <ele>18.4</ele>
        <time>2021-08-07T12:45:20Z</time>
      </trkpt>
      <trkpt lat="50.5804" lon="2.9585">
        <ele>19.84</ele>
        <time>2021-08-07T12:45:22Z</time>
      </trkpt>
      <trkpt lat="50.58025" lon="2.95909">
        <ele>20.32</ele>
        <time>2021-08-07T12:45:31Z</time>
      </trkpt>
      <trkpt lat="50.58022" lon="2.95923">
        <ele>20.32</ele>
        <time>2021-08-07T12:45:33Z</time>
      </trkpt>
      <trkpt lat="50.5802" lon="2.9593">
        <ele>20.32</ele>
        <time>2021-08-07T12:45:34Z</time>
      </trkpt>
      <trkpt lat="50.58009" lon="2.95971">
        <ele>20.32</ele>
        <time>2021-08-07T12:45:41Z</time>
      </trkpt>
      <trkpt lat="50.58004" lon="2.95988">
        <ele>21.29</ele>
        <time>2021-08-07T12:45:46Z</time>
      </trkpt>
      <trkpt lat="50.58002" lon="2.95989">
        <ele>21.29</ele>
        <time>2021-08-07T12:45:47Z</time>
      </trkpt>
      <trkpt lat="50.58001" lon="2.9599">
        <ele>21.29</ele>
        <time>2021-08-07T12:45:53Z</time>
      </trkpt>
      <trkpt lat="50.58001" lon="2.95989">
        <ele>19.84</ele>
        <time>2021-08-07T12:46:07Z</time>
      </trkpt>
      <trkpt lat="50.58" lon="2.95989">
        <ele>20.81</ele>
        <time>2021-08-07T12:46:19Z</time>
      </trkpt>
      <trkpt lat="50.58001" lon="2.95989">
        <ele>21.29</ele>
        <time>2021-08-07T12:46:30Z</time>
      </trkpt>
      <trkpt lat="50.58001" lon="2.95989">
        <ele>20.81</ele>
        <time>2021-08-07T12:46:41Z</time>
      </trkpt>
      <trkpt lat="50.58002" lon="2.95993">
        <ele>20.81</ele>
        <time>2021-08-07T12:46:46Z</time>
      </trkpt>
      <trkpt lat="50.58002" lon="2.95995">
        <ele>20.81</ele>
        <time>2021-08-07T12:46:47Z</time>
      </trkpt>
      <trkpt lat="50.58001" lon="2.95997">
        <ele>20.81</ele>
        <time>2021-08-07T12:46:48Z</time>
      </trkpt>
      <trkpt lat="50.57999" lon="2.95999">
        <ele>20.81</ele>
        <time>2021-08-07T12:46:49Z</time>
      </trkpt>
      <trkpt lat="50.57998" lon="2.96002">
        <ele>20.81</ele>
        <time>2021-08-07T12:46:50Z</time>
      </trkpt>
      <trkpt lat="50.57996" lon="2.96005">
        <ele>20.81</ele>
        <time>2021-08-07T12:46:51Z</time>
      </trkpt>
      <trkpt lat="50.57995" lon="2.96009">
        <ele>20.81</ele>
        <time>2021-08-07T12:46:52Z</time>
      </trkpt>
      <trkpt lat="50.57993" lon="2.96013">
        <ele>20.81</ele>
        <time>2021-08-07T12:46:53Z</time>
      </trkpt>
      <trkpt lat="50.57991" lon="2.96019">
        <ele>20.81</ele>
        <time>2021-08-07T12:46:54Z</time>
      </trkpt>
      <trkpt lat="50.57977" lon="2.96063">
        <ele>20.81</ele>
        <time>2021-08-07T12:47:01Z</time>
      </trkpt>
      <trkpt lat="50.57969" lon="2.96082">
        <ele>21.29</ele>
        <time>2021-08-07T12:47:04Z</time>
      </trkpt>
      <trkpt lat="50.57967" lon="2.96088">
        <ele>21.29</ele>
        <time>2021-08-07T12:47:05Z</time>
      </trkpt>
      <trkpt lat="50.57965" lon="2.96094">
        <ele>21.29</ele>
        <time>2021-08-07T12:47:06Z</time>
      </trkpt>
      <trkpt lat="50.57961" lon="2.96107">
        <ele>21.29</ele>
        <time>2021-08-07T12:47:08Z</time>
      </trkpt>
      <trkpt lat="50.57959" lon="2.96113">
        <ele>21.29</ele>
        <time>2021-08-07T12:47:09Z</time>
      </trkpt>
      <trkpt lat="50.57954" lon="2.96126">
        <ele>21.29</ele>
        <time>2021-08-07T12:47:11Z</time>
      </trkpt>
      <trkpt lat="50.57951" lon="2.96132">
        <ele>21.29</ele>
        <time>2021-08-07T12:47:12Z</time>
      </trkpt>
      <trkpt lat="50.57946" lon="2.96145">
        <ele>21.29</ele>
        <time>2021-08-07T12:47:14Z</time>
      </trkpt>
      <trkpt lat="50.57943" lon="2.96151">
        <ele>21.29</ele>
        <time>2021-08-07T12:47:15Z</time>
      </trkpt>
      <trkpt lat="50.57936" lon="2.96169">
        <ele>21.29</ele>
        <time>2021-08-07T12:47:18Z</time>
      </trkpt>
      <trkpt lat="50.57933" lon="2.96174">
        <ele>21.29</ele>
        <time>2021-08-07T12:47:19Z</time>
      </trkpt>
      <trkpt lat="50.57926" lon="2.96185">
        <ele>21.29</ele>
        <time>2021-08-07T12:47:21Z</time>
      </trkpt>
      <trkpt lat="50.57908" lon="2.96214">
        <ele>21.29</ele>
        <time>2021-08-07T12:47:26Z</time>
      </trkpt>
      <trkpt lat="50.579" lon="2.96224">
        <ele>20.32</ele>
        <time>2021-08-07T12:47:28Z</time>
      </trkpt>
      <trkpt lat="50.57892" lon="2.96234">
        <ele>20.32</ele>
        <time>2021-08-07T12:47:30Z</time>
      </trkpt>
      <trkpt lat="50.57888" lon="2.96238">
        <ele>20.32</ele>
        <time>2021-08-07T12:47:31Z</time>
      </trkpt>
      <trkpt lat="50.57872" lon="2.96258">
        <ele>20.32</ele>
        <time>2021-08-07T12:47:35Z</time>
      </trkpt>
      <trkpt lat="50.57864" lon="2.96267">
        <ele>20.32</ele>
        <time>2021-08-07T12:47:37Z</time>
      </trkpt>
      <trkpt lat="50.5786" lon="2.96272">
        <ele>20.32</ele>
        <time>2021-08-07T12:47:38Z</time>
      </trkpt>
      <trkpt lat="50.57848" lon="2.96286">
        <ele>20.32</ele>
        <time>2021-08-07T12:47:41Z</time>
      </trkpt>
      <trkpt lat="50.57841" lon="2.96297">
        <ele>20.32</ele>
        <time>2021-08-07T12:47:43Z</time>
      </trkpt>
      <trkpt lat="50.57838" lon="2.96303">
        <ele>20.32</ele>
        <time>2021-08-07T12:47:44Z</time>
      </trkpt>
      <trkpt lat="50.57836" lon="2.9631">
        <ele>20.32</ele>
        <time>2021-08-07T12:47:45Z</time>
      </trkpt>
      <trkpt lat="50.57835" lon="2.96317">
        <ele>20.32</ele>
        <time>2021-08-07T12:47:46Z</time>
      </trkpt>
      <trkpt lat="50.57833" lon="2.96325">
        <ele>20.32</ele>
        <time>2021-08-07T12:47:47Z</time>
      </trkpt>
      <trkpt lat="50.57832" lon="2.96333">
        <ele>20.32</ele>
        <time>2021-08-07T12:47:48Z</time>
      </trkpt>
      <trkpt lat="50.57832" lon="2.96341">
        <ele>20.32</ele>
        <time>2021-08-07T12:47:49Z</time>
      </trkpt>
      <trkpt lat="50.57832" lon="2.96349">
        <ele>20.32</ele>
        <time>2021-08-07T12:47:50Z</time>
      </trkpt>
      <trkpt lat="50.57832" lon="2.96355">
        <ele>20.32</ele>
        <time>2021-08-07T12:47:51Z</time>
      </trkpt>
      <trkpt lat="50.57836" lon="2.9639">
        <ele>19.84</ele>
        <time>2021-08-07T12:47:56Z</time>
      </trkpt>
      <trkpt lat="50.57837" lon="2.96433">
        <ele>19.84</ele>
        <time>2021-08-07T12:48:03Z</time>
      </trkpt>
      <trkpt lat="50.57847" lon="2.96466">
        <ele>19.84</ele>
        <time>2021-08-07T12:48:09Z</time>
      </trkpt>
      <trkpt lat="50.57851" lon="2.96471">
        <ele>19.84</ele>
        <time>2021-08-07T12:48:10Z</time>
      </trkpt>
      <trkpt lat="50.57879" lon="2.96508">
        <ele>19.84</ele>
        <time>2021-08-07T12:48:18Z</time>
      </trkpt>
      <trkpt lat="50.57894" lon="2.96531">
        <ele>19.84</ele>
        <time>2021-08-07T12:48:22Z</time>
      </trkpt>
      <trkpt lat="50.57898" lon="2.96537">
        <ele>19.84</ele>
        <time>2021-08-07T12:48:23Z</time>
      </trkpt>
      <trkpt lat="50.57914" lon="2.96567">
        <ele>19.84</ele>
        <time>2021-08-07T12:48:28Z</time>
      </trkpt>
      <trkpt lat="50.57916" lon="2.96574">
        <ele>19.84</ele>
        <time>2021-08-07T12:48:29Z</time>
      </trkpt>
      <trkpt lat="50.57918" lon="2.96583">
        <ele>19.84</ele>
        <time>2021-08-07T12:48:30Z</time>
      </trkpt>
      <trkpt lat="50.57919" lon="2.96589">
        <ele>19.84</ele>
        <time>2021-08-07T12:48:31Z</time>
      </trkpt>
      <trkpt lat="50.5792" lon="2.96596">
        <ele>19.84</ele>
        <time>2021-08-07T12:48:32Z</time>
      </trkpt>
      <trkpt lat="50.5792" lon="2.96604">
        <ele>19.84</ele>
        <time>2021-08-07T12:48:33Z</time>
      </trkpt>
      <trkpt lat="50.57921" lon="2.96612">
        <ele>19.84</ele>
        <time>2021-08-07T12:48:34Z</time>
      </trkpt>
      <trkpt lat="50.57917" lon="2.96669">
        <ele>19.84</ele>
        <time>2021-08-07T12:48:41Z</time>
      </trkpt>
      <trkpt lat="50.57915" lon="2.96695">
        <ele>19.84</ele>
        <time>2021-08-07T12:48:44Z</time>
      </trkpt>
      <trkpt lat="50.57909" lon="2.96727">
        <ele>19.84</ele>
        <time>2021-08-07T12:48:48Z</time>
      </trkpt>
      <trkpt lat="50.57907" lon="2.96733">
        <ele>19.84</ele>
        <time>2021-08-07T12:48:49Z</time>
      </trkpt>
      <trkpt lat="50.57903" lon="2.9674">
        <ele>19.84</ele>
        <time>2021-08-07T12:48:50Z</time>
      </trkpt>
      <trkpt lat="50.5787" lon="2.96781">
        <ele>19.84</ele>
        <time>2021-08-07T12:48:57Z</time>
      </trkpt>
      <trkpt lat="50.57835" lon="2.96813">
        <ele>19.36</ele>
        <time>2021-08-07T12:49:04Z</time>
      </trkpt>
      <trkpt lat="50.57829" lon="2.96816">
        <ele>19.36</ele>
        <time>2021-08-07T12:49:05Z</time>
      </trkpt>
      <trkpt lat="50.57823" lon="2.9682">
        <ele>19.36</ele>
        <time>2021-08-07T12:49:06Z</time>
      </trkpt>
      <trkpt lat="50.57818" lon="2.96824">
        <ele>19.36</ele>
        <time>2021-08-07T12:49:07Z</time>
      </trkpt>
      <trkpt lat="50.57815" lon="2.9683">
        <ele>19.36</ele>
        <time>2021-08-07T12:49:08Z</time>
      </trkpt>
      <trkpt lat="50.57814" lon="2.96838">
        <ele>19.36</ele>
        <time>2021-08-07T12:49:09Z</time>
      </trkpt>
      <trkpt lat="50.57814" lon="2.96844">
        <ele>19.36</ele>
        <time>2021-08-07T12:49:10Z</time>
      </trkpt>
      <trkpt lat="50.57816" lon="2.96851">
        <ele>20.32</ele>
        <time>2021-08-07T12:49:11Z</time>
      </trkpt>
      <trkpt lat="50.57819" lon="2.96857">
        <ele>20.32</ele>
        <time>2021-08-07T12:49:12Z</time>
      </trkpt>
      <trkpt lat="50.57821" lon="2.96861">
        <ele>20.32</ele>
        <time>2021-08-07T12:49:13Z</time>
      </trkpt>
      <trkpt lat="50.57829" lon="2.96879">
        <ele>21.77</ele>
        <time>2021-08-07T12:49:19Z</time>
      </trkpt>
      <trkpt lat="50.57836" lon="2.96899">
        <ele>22.73</ele>
        <time>2021-08-07T12:49:25Z</time>
      </trkpt>
      <trkpt lat="50.57849" lon="2.96935">
        <ele>19.84</ele>
        <time>2021-08-07T12:49:31Z</time>
      </trkpt>
      <trkpt lat="50.5787" lon="2.96975">
        <ele>19.84</ele>
        <time>2021-08-07T12:49:36Z</time>
      </trkpt>
      <trkpt lat="50.5788" lon="2.96987">
        <ele>19.84</ele>
        <time>2021-08-07T12:49:38Z</time>
      </trkpt>
      <trkpt lat="50.57884" lon="2.96994">
        <ele>19.84</ele>
        <time>2021-08-07T12:49:39Z</time>
      </trkpt>
      <trkpt lat="50.57887" lon="2.97002">
        <ele>19.84</ele>
        <time>2021-08-07T12:49:40Z</time>
      </trkpt>
      <trkpt lat="50.5789" lon="2.9701">
        <ele>19.84</ele>
        <time>2021-08-07T12:49:41Z</time>
      </trkpt>
      <trkpt lat="50.57892" lon="2.97018">
        <ele>19.84</ele>
        <time>2021-08-07T12:49:42Z</time>
      </trkpt>
      <trkpt lat="50.57893" lon="2.97027">
        <ele>19.84</ele>
        <time>2021-08-07T12:49:43Z</time>
      </trkpt>
      <trkpt lat="50.57893" lon="2.97036">
        <ele>19.84</ele>
        <time>2021-08-07T12:49:44Z</time>
      </trkpt>
      <trkpt lat="50.57892" lon="2.97045">
        <ele>19.84</ele>
        <time>2021-08-07T12:49:45Z</time>
      </trkpt>
      <trkpt lat="50.5789" lon="2.97053">
        <ele>19.84</ele>
        <time>2021-08-07T12:49:46Z</time>
      </trkpt>
      <trkpt lat="50.57888" lon="2.9706">
        <ele>19.84</ele>
        <time>2021-08-07T12:49:47Z</time>
      </trkpt>
      <trkpt lat="50.57885" lon="2.97066">
        <ele>19.84</ele>
        <time>2021-08-07T12:49:48Z</time>
      </trkpt>
      <trkpt lat="50.5788" lon="2.97079">
        <ele>19.84</ele>
        <time>2021-08-07T12:49:50Z</time>
      </trkpt>
      <trkpt lat="50.57864" lon="2.97135">
        <ele>19.84</ele>
        <time>2021-08-07T12:49:58Z</time>
      </trkpt>
      <trkpt lat="50.5786" lon="2.97148">
        <ele>21.29</ele>
        <time>2021-08-07T12:50:00Z</time>
      </trkpt>
      <trkpt lat="50.57857" lon="2.97155">
        <ele>21.29</ele>
        <time>2021-08-07T12:50:01Z</time>
      </trkpt>
      <trkpt lat="50.57856" lon="2.97161">
        <ele>21.29</ele>
        <time>2021-08-07T12:50:02Z</time>
      </trkpt>
      <trkpt lat="50.57854" lon="2.97168">
        <ele>21.29</ele>
        <time>2021-08-07T12:50:03Z</time>
      </trkpt>
      <trkpt lat="50.57853" lon="2.97175">
        <ele>21.29</ele>
        <time>2021-08-07T12:50:04Z</time>
      </trkpt>
      <trkpt lat="50.57853" lon="2.97183">
        <ele>21.29</ele>
        <time>2021-08-07T12:50:05Z</time>
      </trkpt>
      <trkpt lat="50.57852" lon="2.9719">
        <ele>21.29</ele>
        <time>2021-08-07T12:50:06Z</time>
      </trkpt>
      <trkpt lat="50.57845" lon="2.97256">
        <ele>21.77</ele>
        <time>2021-08-07T12:50:15Z</time>
      </trkpt>
      <trkpt lat="50.5784" lon="2.97289">
        <ele>22.73</ele>
        <time>2021-08-07T12:50:20Z</time>
      </trkpt>
      <trkpt lat="50.57835" lon="2.9731">
        <ele>22.73</ele>
        <time>2021-08-07T12:50:23Z</time>
      </trkpt>
      <trkpt lat="50.57833" lon="2.97317">
        <ele>22.73</ele>
        <time>2021-08-07T12:50:24Z</time>
      </trkpt>
      <trkpt lat="50.57831" lon="2.97323">
        <ele>22.73</ele>
        <time>2021-08-07T12:50:25Z</time>
      </trkpt>
      <trkpt lat="50.57828" lon="2.9733">
        <ele>22.73</ele>
        <time>2021-08-07T12:50:26Z</time>
      </trkpt>
      <trkpt lat="50.57825" lon="2.97335">
        <ele>22.73</ele>
        <time>2021-08-07T12:50:27Z</time>
      </trkpt>
      <trkpt lat="50.57822" lon="2.97342">
        <ele>22.73</ele>
        <time>2021-08-07T12:50:28Z</time>
      </trkpt>
      <trkpt lat="50.57818" lon="2.97348">
        <ele>22.73</ele>
        <time>2021-08-07T12:50:29Z</time>
      </trkpt>
      <trkpt lat="50.57812" lon="2.97356">
        <ele>22.73</ele>
        <time>2021-08-07T12:50:30Z</time>
      </trkpt>
      <trkpt lat="50.57807" lon="2.97362">
        <ele>22.73</ele>
        <time>2021-08-07T12:50:31Z</time>
      </trkpt>
      <trkpt lat="50.57799" lon="2.97373">
        <ele>22.73</ele>
        <time>2021-08-07T12:50:33Z</time>
      </trkpt>
      <trkpt lat="50.57796" lon="2.9738">
        <ele>22.73</ele>
        <time>2021-08-07T12:50:34Z</time>
      </trkpt>
      <trkpt lat="50.57794" lon="2.97387">
        <ele>23.69</ele>
        <time>2021-08-07T12:50:35Z</time>
      </trkpt>
      <trkpt lat="50.57793" lon="2.97395">
        <ele>23.69</ele>
        <time>2021-08-07T12:50:36Z</time>
      </trkpt>
      <trkpt lat="50.57794" lon="2.97403">
        <ele>23.69</ele>
        <time>2021-08-07T12:50:37Z</time>
      </trkpt>
      <trkpt lat="50.57794" lon="2.97412">
        <ele>23.69</ele>
        <time>2021-08-07T12:50:38Z</time>
      </trkpt>
      <trkpt lat="50.57795" lon="2.97421">
        <ele>23.69</ele>
        <time>2021-08-07T12:50:39Z</time>
      </trkpt>
      <trkpt lat="50.57794" lon="2.97431">
        <ele>21.77</ele>
        <time>2021-08-07T12:50:40Z</time>
      </trkpt>
      <trkpt lat="50.57793" lon="2.9744">
        <ele>19.84</ele>
        <time>2021-08-07T12:50:41Z</time>
      </trkpt>
      <trkpt lat="50.5779" lon="2.97449">
        <ele>19.84</ele>
        <time>2021-08-07T12:50:42Z</time>
      </trkpt>
      <trkpt lat="50.57788" lon="2.97458">
        <ele>19.84</ele>
        <time>2021-08-07T12:50:43Z</time>
      </trkpt>
      <trkpt lat="50.57788" lon="2.97468">
        <ele>19.84</ele>
        <time>2021-08-07T12:50:44Z</time>
      </trkpt>
      <trkpt lat="50.57788" lon="2.97477">
        <ele>19.84</ele>
        <time>2021-08-07T12:50:45Z</time>
      </trkpt>
      <trkpt lat="50.57789" lon="2.97486">
        <ele>21.29</ele>
        <time>2021-08-07T12:50:46Z</time>
      </trkpt>
      <trkpt lat="50.57791" lon="2.97492">
        <ele>21.29</ele>
        <time>2021-08-07T12:50:47Z</time>
      </trkpt>
      <trkpt lat="50.57793" lon="2.97499">
        <ele>21.29</ele>
        <time>2021-08-07T12:50:48Z</time>
      </trkpt>
      <trkpt lat="50.57796" lon="2.97506">
        <ele>21.29</ele>
        <time>2021-08-07T12:50:49Z</time>
      </trkpt>
      <trkpt lat="50.57799" lon="2.97511">
        <ele>21.29</ele>
        <time>2021-08-07T12:50:50Z</time>
      </trkpt>
      <trkpt lat="50.57802" lon="2.97516">
        <ele>21.29</ele>
        <time>2021-08-07T12:50:51Z</time>
      </trkpt>
      <trkpt lat="50.57844" lon="2.97568">
        <ele>19.84</ele>
        <time>2021-08-07T12:51:01Z</time>
      </trkpt>
      <trkpt lat="50.57869" lon="2.97591">
        <ele>19.84</ele>
        <time>2021-08-07T12:51:06Z</time>
      </trkpt>
      <trkpt lat="50.57895" lon="2.97611">
        <ele>21.29</ele>
        <time>2021-08-07T12:51:11Z</time>
      </trkpt>
      <trkpt lat="50.57929" lon="2.97634">
        <ele>22.73</ele>
        <time>2021-08-07T12:51:18Z</time>
      </trkpt>
      <trkpt lat="50.5797" lon="2.97666">
        <ele>23.21</ele>
        <time>2021-08-07T12:51:28Z</time>
      </trkpt>
      <trkpt lat="50.57988" lon="2.97681">
        <ele>25.61</ele>
        <time>2021-08-07T12:51:35Z</time>
      </trkpt>
      <trkpt lat="50.5799" lon="2.97688">
        <ele>26.09</ele>
        <time>2021-08-07T12:51:37Z</time>
      </trkpt>
      <trkpt lat="50.5799" lon="2.97692">
        <ele>26.09</ele>
        <time>2021-08-07T12:51:38Z</time>
      </trkpt>
      <trkpt lat="50.5799" lon="2.97696">
        <ele>26.09</ele>
        <time>2021-08-07T12:51:39Z</time>
      </trkpt>
      <trkpt lat="50.57988" lon="2.977">
        <ele>26.09</ele>
        <time>2021-08-07T12:51:40Z</time>
      </trkpt>
      <trkpt lat="50.57987" lon="2.97703">
        <ele>26.57</ele>
        <time>2021-08-07T12:51:41Z</time>
      </trkpt>
      <trkpt lat="50.57986" lon="2.97707">
        <ele>26.57</ele>
        <time>2021-08-07T12:51:42Z</time>
      </trkpt>
      <trkpt lat="50.57987" lon="2.97711">
        <ele>26.57</ele>
        <time>2021-08-07T12:51:43Z</time>
      </trkpt>
      <trkpt lat="50.57987" lon="2.97715">
        <ele>26.57</ele>
        <time>2021-08-07T12:51:44Z</time>
      </trkpt>
      <trkpt lat="50.57988" lon="2.97724">
        <ele>27.05</ele>
        <time>2021-08-07T12:51:46Z</time>
      </trkpt>
      <trkpt lat="50.57988" lon="2.97728">
        <ele>27.05</ele>
        <time>2021-08-07T12:51:47Z</time>
      </trkpt>
      <trkpt lat="50.57979" lon="2.97769">
        <ele>28.5</ele>
        <time>2021-08-07T12:51:56Z</time>
      </trkpt>
      <trkpt lat="50.57974" lon="2.97789">
        <ele>29.94</ele>
        <time>2021-08-07T12:52:00Z</time>
      </trkpt>
      <trkpt lat="50.57964" lon="2.97833">
        <ele>28.5</ele>
        <time>2021-08-07T12:52:08Z</time>
      </trkpt>
      <trkpt lat="50.5796" lon="2.97851">
        <ele>26.57</ele>
        <time>2021-08-07T12:52:11Z</time>
      </trkpt>
      <trkpt lat="50.57958" lon="2.97863">
        <ele>26.57</ele>
        <time>2021-08-07T12:52:13Z</time>
      </trkpt>
      <trkpt lat="50.57955" lon="2.97875">
        <ele>28.5</ele>
        <time>2021-08-07T12:52:15Z</time>
      </trkpt>
      <trkpt lat="50.57952" lon="2.97888">
        <ele>27.05</ele>
        <time>2021-08-07T12:52:17Z</time>
      </trkpt>
      <trkpt lat="50.57948" lon="2.979">
        <ele>26.57</ele>
        <time>2021-08-07T12:52:19Z</time>
      </trkpt>
      <trkpt lat="50.57944" lon="2.97906">
        <ele>26.09</ele>
        <time>2021-08-07T12:52:20Z</time>
      </trkpt>
      <trkpt lat="50.5794" lon="2.97909">
        <ele>26.09</ele>
        <time>2021-08-07T12:52:21Z</time>
      </trkpt>
      <trkpt lat="50.57931" lon="2.97915">
        <ele>25.61</ele>
        <time>2021-08-07T12:52:23Z</time>
      </trkpt>
      <trkpt lat="50.57926" lon="2.97918">
        <ele>25.61</ele>
        <time>2021-08-07T12:52:24Z</time>
      </trkpt>
      <trkpt lat="50.57921" lon="2.97919">
        <ele>25.61</ele>
        <time>2021-08-07T12:52:25Z</time>
      </trkpt>
      <trkpt lat="50.57916" lon="2.97918">
        <ele>25.61</ele>
        <time>2021-08-07T12:52:26Z</time>
      </trkpt>
      <trkpt lat="50.57911" lon="2.97917">
        <ele>24.17</ele>
        <time>2021-08-07T12:52:27Z</time>
      </trkpt>
      <trkpt lat="50.57906" lon="2.97917">
        <ele>23.21</ele>
        <time>2021-08-07T12:52:28Z</time>
      </trkpt>
      <trkpt lat="50.579" lon="2.97919">
        <ele>22.25</ele>
        <time>2021-08-07T12:52:29Z</time>
      </trkpt>
      <trkpt lat="50.57894" lon="2.9792">
        <ele>21.77</ele>
        <time>2021-08-07T12:52:30Z</time>
      </trkpt>
      <trkpt lat="50.57887" lon="2.97921">
        <ele>21.29</ele>
        <time>2021-08-07T12:52:31Z</time>
      </trkpt>
      <trkpt lat="50.5788" lon="2.97921">
        <ele>21.29</ele>
        <time>2021-08-07T12:52:32Z</time>
      </trkpt>
      <trkpt lat="50.57848" lon="2.97918">
        <ele>21.29</ele>
        <time>2021-08-07T12:52:38Z</time>
      </trkpt>
      <trkpt lat="50.57843" lon="2.97917">
        <ele>21.29</ele>
        <time>2021-08-07T12:52:39Z</time>
      </trkpt>
      <trkpt lat="50.5783" lon="2.97913">
        <ele>22.25</ele>
        <time>2021-08-07T12:52:42Z</time>
      </trkpt>
      <trkpt lat="50.57781" lon="2.97891">
        <ele>22.73</ele>
        <time>2021-08-07T12:52:54Z</time>
      </trkpt>
      <trkpt lat="50.57747" lon="2.97868">
        <ele>22.25</ele>
        <time>2021-08-07T12:53:02Z</time>
      </trkpt>
      <trkpt lat="50.577" lon="2.97828">
        <ele>20.81</ele>
        <time>2021-08-07T12:53:11Z</time>
      </trkpt>
      <trkpt lat="50.57687" lon="2.97814">
        <ele>20.81</ele>
        <time>2021-08-07T12:53:14Z</time>
      </trkpt>
      <trkpt lat="50.57684" lon="2.97809">
        <ele>20.81</ele>
        <time>2021-08-07T12:53:15Z</time>
      </trkpt>
      <trkpt lat="50.57665" lon="2.97776">
        <ele>22.25</ele>
        <time>2021-08-07T12:53:22Z</time>
      </trkpt>
      <trkpt lat="50.5766" lon="2.97759">
        <ele>22.73</ele>
        <time>2021-08-07T12:53:25Z</time>
      </trkpt>
      <trkpt lat="50.57657" lon="2.97753">
        <ele>22.73</ele>
        <time>2021-08-07T12:53:26Z</time>
      </trkpt>
      <trkpt lat="50.5765" lon="2.97742">
        <ele>22.73</ele>
        <time>2021-08-07T12:53:28Z</time>
      </trkpt>
      <trkpt lat="50.57646" lon="2.97737">
        <ele>22.73</ele>
        <time>2021-08-07T12:53:29Z</time>
      </trkpt>
      <trkpt lat="50.57642" lon="2.97732">
        <ele>22.73</ele>
        <time>2021-08-07T12:53:30Z</time>
      </trkpt>
      <trkpt lat="50.57614" lon="2.97703">
        <ele>22.73</ele>
        <time>2021-08-07T12:53:37Z</time>
      </trkpt>
      <trkpt lat="50.57603" lon="2.97691">
        <ele>21.29</ele>
        <time>2021-08-07T12:53:40Z</time>
      </trkpt>
      <trkpt lat="50.576" lon="2.97685">
        <ele>21.29</ele>
        <time>2021-08-07T12:53:41Z</time>
      </trkpt>
      <trkpt lat="50.57594" lon="2.97674">
        <ele>21.29</ele>
        <time>2021-08-07T12:53:43Z</time>
      </trkpt>
      <trkpt lat="50.57574" lon="2.97641">
        <ele>21.29</ele>
        <time>2021-08-07T12:53:49Z</time>
      </trkpt>
      <trkpt lat="50.5757" lon="2.97635">
        <ele>21.29</ele>
        <time>2021-08-07T12:53:50Z</time>
      </trkpt>
      <trkpt lat="50.57566" lon="2.97629">
        <ele>21.29</ele>
        <time>2021-08-07T12:53:51Z</time>
      </trkpt>
      <trkpt lat="50.57562" lon="2.97623">
        <ele>21.29</ele>
        <time>2021-08-07T12:53:52Z</time>
      </trkpt>
      <trkpt lat="50.57559" lon="2.97618">
        <ele>21.29</ele>
        <time>2021-08-07T12:53:53Z</time>
      </trkpt>
      <trkpt lat="50.57555" lon="2.97612">
        <ele>21.29</ele>
        <time>2021-08-07T12:53:54Z</time>
      </trkpt>
      <trkpt lat="50.57522" lon="2.9757">
        <ele>20.81</ele>
        <time>2021-08-07T12:54:02Z</time>
      </trkpt>
      <trkpt lat="50.57491" lon="2.97537">
        <ele>20.81</ele>
        <time>2021-08-07T12:54:10Z</time>
      </trkpt>
      <trkpt lat="50.57461" lon="2.975">
        <ele>20.81</ele>
        <time>2021-08-07T12:54:18Z</time>
      </trkpt>
      <trkpt lat="50.57434" lon="2.97465">
        <ele>20.32</ele>
        <time>2021-08-07T12:54:26Z</time>
      </trkpt>
      <trkpt lat="50.57421" lon="2.97448">
        <ele>19.36</ele>
        <time>2021-08-07T12:54:30Z</time>
      </trkpt>
      <trkpt lat="50.57417" lon="2.97444">
        <ele>19.36</ele>
        <time>2021-08-07T12:54:31Z</time>
      </trkpt>
      <trkpt lat="50.57413" lon="2.97439">
        <ele>19.36</ele>
        <time>2021-08-07T12:54:32Z</time>
      </trkpt>
      <trkpt lat="50.57397" lon="2.97417">
        <ele>21.29</ele>
        <time>2021-08-07T12:54:37Z</time>
      </trkpt>
      <trkpt lat="50.57382" lon="2.97396">
        <ele>20.81</ele>
        <time>2021-08-07T12:54:42Z</time>
      </trkpt>
      <trkpt lat="50.57378" lon="2.97392">
        <ele>20.81</ele>
        <time>2021-08-07T12:54:43Z</time>
      </trkpt>
      <trkpt lat="50.57375" lon="2.97388">
        <ele>20.81</ele>
        <time>2021-08-07T12:54:44Z</time>
      </trkpt>
      <trkpt lat="50.57355" lon="2.97361">
        <ele>21.29</ele>
        <time>2021-08-07T12:54:50Z</time>
      </trkpt>
      <trkpt lat="50.57317" lon="2.97311">
        <ele>20.81</ele>
        <time>2021-08-07T12:55:01Z</time>
      </trkpt>
      <trkpt lat="50.57293" lon="2.97281">
        <ele>19.84</ele>
        <time>2021-08-07T12:55:08Z</time>
      </trkpt>
      <trkpt lat="50.57251" lon="2.97227">
        <ele>19.84</ele>
        <time>2021-08-07T12:55:20Z</time>
      </trkpt>
      <trkpt lat="50.5722" lon="2.97186">
        <ele>20.81</ele>
        <time>2021-08-07T12:55:29Z</time>
      </trkpt>
      <trkpt lat="50.57203" lon="2.97159">
        <ele>20.81</ele>
        <time>2021-08-07T12:55:35Z</time>
      </trkpt>
      <trkpt lat="50.57199" lon="2.97156">
        <ele>20.81</ele>
        <time>2021-08-07T12:55:36Z</time>
      </trkpt>
      <trkpt lat="50.57196" lon="2.97154">
        <ele>20.81</ele>
        <time>2021-08-07T12:55:37Z</time>
      </trkpt>
      <trkpt lat="50.57192" lon="2.97156">
        <ele>19.84</ele>
        <time>2021-08-07T12:55:38Z</time>
      </trkpt>
      <trkpt lat="50.57189" lon="2.9716">
        <ele>19.84</ele>
        <time>2021-08-07T12:55:39Z</time>
      </trkpt>
      <trkpt lat="50.57161" lon="2.97194">
        <ele>18.88</ele>
        <time>2021-08-07T12:55:47Z</time>
      </trkpt>
      <trkpt lat="50.57159" lon="2.97193">
        <ele>18.88</ele>
        <time>2021-08-07T12:55:48Z</time>
      </trkpt>
      <trkpt lat="50.57157" lon="2.97191">
        <ele>18.88</ele>
        <time>2021-08-07T12:55:49Z</time>
      </trkpt>
      <trkpt lat="50.57155" lon="2.97189">
        <ele>18.88</ele>
        <time>2021-08-07T12:55:50Z</time>
      </trkpt>
      <trkpt lat="50.57154" lon="2.97187">
        <ele>18.88</ele>
        <time>2021-08-07T12:55:51Z</time>
      </trkpt>
      <trkpt lat="50.57152" lon="2.97185">
        <ele>18.88</ele>
        <time>2021-08-07T12:55:52Z</time>
      </trkpt>
      <trkpt lat="50.57151" lon="2.97182">
        <ele>18.88</ele>
        <time>2021-08-07T12:55:53Z</time>
      </trkpt>
      <trkpt lat="50.57147" lon="2.97174">
        <ele>18.88</ele>
        <time>2021-08-07T12:55:56Z</time>
      </trkpt>
      <trkpt lat="50.57147" lon="2.9717">
        <ele>18.88</ele>
        <time>2021-08-07T12:55:57Z</time>
      </trkpt>
      <trkpt lat="50.57148" lon="2.97166">
        <ele>18.88</ele>
        <time>2021-08-07T12:55:58Z</time>
      </trkpt>
      <trkpt lat="50.57149" lon="2.97162">
        <ele>18.88</ele>
        <time>2021-08-07T12:55:59Z</time>
      </trkpt>
      <trkpt lat="50.5715" lon="2.97158">
        <ele>18.88</ele>
        <time>2021-08-07T12:56:00Z</time>
      </trkpt>
      <trkpt lat="50.57151" lon="2.97153">
        <ele>20.32</ele>
        <time>2021-08-07T12:56:01Z</time>
      </trkpt>
      <trkpt lat="50.57152" lon="2.97148">
        <ele>20.32</ele>
        <time>2021-08-07T12:56:02Z</time>
      </trkpt>
      <trkpt lat="50.57159" lon="2.97123">
        <ele>21.29</ele>
        <time>2021-08-07T12:56:09Z</time>
      </trkpt>
      <trkpt lat="50.57167" lon="2.97106">
        <ele>21.77</ele>
        <time>2021-08-07T12:56:15Z</time>
      </trkpt>
      <trkpt lat="50.57168" lon="2.97099">
        <ele>21.77</ele>
        <time>2021-08-07T12:56:16Z</time>
      </trkpt>
      <trkpt lat="50.57168" lon="2.97091">
        <ele>20.32</ele>
        <time>2021-08-07T12:56:17Z</time>
      </trkpt>
      <trkpt lat="50.57148" lon="2.97039">
        <ele>19.36</ele>
        <time>2021-08-07T12:56:24Z</time>
      </trkpt>
      <trkpt lat="50.57119" lon="2.96981">
        <ele>18.4</ele>
        <time>2021-08-07T12:56:33Z</time>
      </trkpt>
      <trkpt lat="50.57089" lon="2.96922">
        <ele>18.4</ele>
        <time>2021-08-07T12:56:43Z</time>
      </trkpt>
      <trkpt lat="50.5707" lon="2.96883">
        <ele>19.84</ele>
        <time>2021-08-07T12:56:50Z</time>
      </trkpt>
      <trkpt lat="50.57067" lon="2.96878">
        <ele>19.84</ele>
        <time>2021-08-07T12:56:51Z</time>
      </trkpt>
      <trkpt lat="50.57048" lon="2.96841">
        <ele>20.32</ele>
        <time>2021-08-07T12:56:59Z</time>
      </trkpt>
      <trkpt lat="50.57045" lon="2.96838">
        <ele>20.32</ele>
        <time>2021-08-07T12:57:01Z</time>
      </trkpt>
      <trkpt lat="50.57044" lon="2.96837">
        <ele>20.32</ele>
        <time>2021-08-07T12:57:02Z</time>
      </trkpt>
      <trkpt lat="50.57042" lon="2.96836">
        <ele>20.32</ele>
        <time>2021-08-07T12:57:03Z</time>
      </trkpt>
      <trkpt lat="50.5703" lon="2.96818">
        <ele>20.32</ele>
        <time>2021-08-07T12:57:08Z</time>
      </trkpt>
      <trkpt lat="50.57017" lon="2.96801">
        <ele>19.36</ele>
        <time>2021-08-07T12:57:12Z</time>
      </trkpt>
      <trkpt lat="50.57014" lon="2.96796">
        <ele>19.36</ele>
        <time>2021-08-07T12:57:13Z</time>
      </trkpt>
      <trkpt lat="50.57001" lon="2.96771">
        <ele>19.36</ele>
        <time>2021-08-07T12:57:18Z</time>
      </trkpt>
      <trkpt lat="50.56999" lon="2.96766">
        <ele>19.36</ele>
        <time>2021-08-07T12:57:19Z</time>
      </trkpt>
      <trkpt lat="50.56996" lon="2.96761">
        <ele>19.36</ele>
        <time>2021-08-07T12:57:20Z</time>
      </trkpt>
      <trkpt lat="50.56972" lon="2.96726">
        <ele>19.36</ele>
        <time>2021-08-07T12:57:27Z</time>
      </trkpt>
      <trkpt lat="50.56947" lon="2.96688">
        <ele>19.36</ele>
        <time>2021-08-07T12:57:35Z</time>
      </trkpt>
      <trkpt lat="50.56941" lon="2.96678">
        <ele>19.36</ele>
        <time>2021-08-07T12:57:37Z</time>
      </trkpt>
      <trkpt lat="50.56938" lon="2.96672">
        <ele>19.36</ele>
        <time>2021-08-07T12:57:38Z</time>
      </trkpt>
      <trkpt lat="50.56936" lon="2.96666">
        <ele>19.36</ele>
        <time>2021-08-07T12:57:39Z</time>
      </trkpt>
      <trkpt lat="50.56934" lon="2.96661">
        <ele>19.36</ele>
        <time>2021-08-07T12:57:40Z</time>
      </trkpt>
      <trkpt lat="50.56933" lon="2.96655">
        <ele>19.36</ele>
        <time>2021-08-07T12:57:41Z</time>
      </trkpt>
      <trkpt lat="50.56929" lon="2.96646">
        <ele>19.36</ele>
        <time>2021-08-07T12:57:43Z</time>
      </trkpt>
      <trkpt lat="50.56925" lon="2.96643">
        <ele>19.36</ele>
        <time>2021-08-07T12:57:44Z</time>
      </trkpt>
      <trkpt lat="50.56917" lon="2.9664">
        <ele>19.36</ele>
        <time>2021-08-07T12:57:46Z</time>
      </trkpt>
      <trkpt lat="50.56912" lon="2.96638">
        <ele>19.36</ele>
        <time>2021-08-07T12:57:47Z</time>
      </trkpt>
      <trkpt lat="50.56907" lon="2.96634">
        <ele>19.36</ele>
        <time>2021-08-07T12:57:48Z</time>
      </trkpt>
      <trkpt lat="50.56904" lon="2.9663">
        <ele>18.88</ele>
        <time>2021-08-07T12:57:49Z</time>
      </trkpt>
      <trkpt lat="50.569" lon="2.96625">
        <ele>19.36</ele>
        <time>2021-08-07T12:57:50Z</time>
      </trkpt>
      <trkpt lat="50.56892" lon="2.96616">
        <ele>19.36</ele>
        <time>2021-08-07T12:57:52Z</time>
      </trkpt>
      <trkpt lat="50.56888" lon="2.96612">
        <ele>19.36</ele>
        <time>2021-08-07T12:57:53Z</time>
      </trkpt>
      <trkpt lat="50.56884" lon="2.96608">
        <ele>19.36</ele>
        <time>2021-08-07T12:57:54Z</time>
      </trkpt>
      <trkpt lat="50.56881" lon="2.96604">
        <ele>19.36</ele>
        <time>2021-08-07T12:57:55Z</time>
      </trkpt>
      <trkpt lat="50.56877" lon="2.96601">
        <ele>19.36</ele>
        <time>2021-08-07T12:57:56Z</time>
      </trkpt>
      <trkpt lat="50.56873" lon="2.96596">
        <ele>19.36</ele>
        <time>2021-08-07T12:57:57Z</time>
      </trkpt>
      <trkpt lat="50.56848" lon="2.96563">
        <ele>19.36</ele>
        <time>2021-08-07T12:58:05Z</time>
      </trkpt>
      <trkpt lat="50.56816" lon="2.96523">
        <ele>19.36</ele>
        <time>2021-08-07T12:58:15Z</time>
      </trkpt>
      <trkpt lat="50.56788" lon="2.96484">
        <ele>19.36</ele>
        <time>2021-08-07T12:58:24Z</time>
      </trkpt>
      <trkpt lat="50.56756" lon="2.96439">
        <ele>19.36</ele>
        <time>2021-08-07T12:58:34Z</time>
      </trkpt>
      <trkpt lat="50.56725" lon="2.96392">
        <ele>19.36</ele>
        <time>2021-08-07T12:58:43Z</time>
      </trkpt>
      <trkpt lat="50.56711" lon="2.96371">
        <ele>18.88</ele>
        <time>2021-08-07T12:58:47Z</time>
      </trkpt>
      <trkpt lat="50.56708" lon="2.96365">
        <ele>19.36</ele>
        <time>2021-08-07T12:58:48Z</time>
      </trkpt>
      <trkpt lat="50.56704" lon="2.9636">
        <ele>18.88</ele>
        <time>2021-08-07T12:58:49Z</time>
      </trkpt>
      <trkpt lat="50.56697" lon="2.9635">
        <ele>18.88</ele>
        <time>2021-08-07T12:58:51Z</time>
      </trkpt>
      <trkpt lat="50.5668" lon="2.96321">
        <ele>19.36</ele>
        <time>2021-08-07T12:58:58Z</time>
      </trkpt>
      <trkpt lat="50.56657" lon="2.96285">
        <ele>18.88</ele>
        <time>2021-08-07T12:59:06Z</time>
      </trkpt>
      <trkpt lat="50.56634" lon="2.96251">
        <ele>19.36</ele>
        <time>2021-08-07T12:59:14Z</time>
      </trkpt>
      <trkpt lat="50.56616" lon="2.9622">
        <ele>18.88</ele>
        <time>2021-08-07T12:59:21Z</time>
      </trkpt>
      <trkpt lat="50.5659" lon="2.96178">
        <ele>18.88</ele>
        <time>2021-08-07T12:59:30Z</time>
      </trkpt>
      <trkpt lat="50.56561" lon="2.9613">
        <ele>18.88</ele>
        <time>2021-08-07T12:59:40Z</time>
      </trkpt>
      <trkpt lat="50.56557" lon="2.96124">
        <ele>18.88</ele>
        <time>2021-08-07T12:59:41Z</time>
      </trkpt>
      <trkpt lat="50.56529" lon="2.96076">
        <ele>18.4</ele>
        <time>2021-08-07T12:59:50Z</time>
      </trkpt>
      <trkpt lat="50.56509" lon="2.96042">
        <ele>18.4</ele>
        <time>2021-08-07T12:59:56Z</time>
      </trkpt>
      <trkpt lat="50.56505" lon="2.96038">
        <ele>18.4</ele>
        <time>2021-08-07T12:59:57Z</time>
      </trkpt>
      <trkpt lat="50.56501" lon="2.96033">
        <ele>18.4</ele>
        <time>2021-08-07T12:59:58Z</time>
      </trkpt>
      <trkpt lat="50.56498" lon="2.96027">
        <ele>18.4</ele>
        <time>2021-08-07T12:59:59Z</time>
      </trkpt>
      <trkpt lat="50.56495" lon="2.96022">
        <ele>18.4</ele>
        <time>2021-08-07T13:00:00Z</time>
      </trkpt>
      <trkpt lat="50.56492" lon="2.96016">
        <ele>18.4</ele>
        <time>2021-08-07T13:00:01Z</time>
      </trkpt>
      <trkpt lat="50.56489" lon="2.9601">
        <ele>18.4</ele>
        <time>2021-08-07T13:00:02Z</time>
      </trkpt>
      <trkpt lat="50.56486" lon="2.96004">
        <ele>18.4</ele>
        <time>2021-08-07T13:00:03Z</time>
      </trkpt>
      <trkpt lat="50.56479" lon="2.95994">
        <ele>18.4</ele>
        <time>2021-08-07T13:00:05Z</time>
      </trkpt>
      <trkpt lat="50.56476" lon="2.95989">
        <ele>18.4</ele>
        <time>2021-08-07T13:00:06Z</time>
      </trkpt>
      <trkpt lat="50.56472" lon="2.95984">
        <ele>18.4</ele>
        <time>2021-08-07T13:00:07Z</time>
      </trkpt>
      <trkpt lat="50.56468" lon="2.95979">
        <ele>18.4</ele>
        <time>2021-08-07T13:00:08Z</time>
      </trkpt>
      <trkpt lat="50.56465" lon="2.95974">
        <ele>18.4</ele>
        <time>2021-08-07T13:00:09Z</time>
      </trkpt>
      <trkpt lat="50.56458" lon="2.95964">
        <ele>18.4</ele>
        <time>2021-08-07T13:00:11Z</time>
      </trkpt>
      <trkpt lat="50.56455" lon="2.9596">
        <ele>18.4</ele>
        <time>2021-08-07T13:00:12Z</time>
      </trkpt>
      <trkpt lat="50.56451" lon="2.95955">
        <ele>18.4</ele>
        <time>2021-08-07T13:00:13Z</time>
      </trkpt>
      <trkpt lat="50.56417" lon="2.95904">
        <ele>18.4</ele>
        <time>2021-08-07T13:00:23Z</time>
      </trkpt>
      <trkpt lat="50.56376" lon="2.95851">
        <ele>17.92</ele>
        <time>2021-08-07T13:00:34Z</time>
      </trkpt>
      <trkpt lat="50.56349" lon="2.95817">
        <ele>17.92</ele>
        <time>2021-08-07T13:00:41Z</time>
      </trkpt>
      <trkpt lat="50.56345" lon="2.95813">
        <ele>17.92</ele>
        <time>2021-08-07T13:00:42Z</time>
      </trkpt>
      <trkpt lat="50.56323" lon="2.95786">
        <ele>17.92</ele>
        <time>2021-08-07T13:00:48Z</time>
      </trkpt>
      <trkpt lat="50.56309" lon="2.95767">
        <ele>17.92</ele>
        <time>2021-08-07T13:00:52Z</time>
      </trkpt>
      <trkpt lat="50.56278" lon="2.95734">
        <ele>17.92</ele>
        <time>2021-08-07T13:01:00Z</time>
      </trkpt>
      <trkpt lat="50.56274" lon="2.95731">
        <ele>17.92</ele>
        <time>2021-08-07T13:01:01Z</time>
      </trkpt>
      <trkpt lat="50.5627" lon="2.95727">
        <ele>17.92</ele>
        <time>2021-08-07T13:01:02Z</time>
      </trkpt>
      <trkpt lat="50.5623" lon="2.95684">
        <ele>18.88</ele>
        <time>2021-08-07T13:01:12Z</time>
      </trkpt>
      <trkpt lat="50.56206" lon="2.95658">
        <ele>17.44</ele>
        <time>2021-08-07T13:01:18Z</time>
      </trkpt>
      <trkpt lat="50.56176" lon="2.95629">
        <ele>17.44</ele>
        <time>2021-08-07T13:01:26Z</time>
      </trkpt>
      <trkpt lat="50.56172" lon="2.95625">
        <ele>17.44</ele>
        <time>2021-08-07T13:01:27Z</time>
      </trkpt>
      <trkpt lat="50.56168" lon="2.95622">
        <ele>17.44</ele>
        <time>2021-08-07T13:01:28Z</time>
      </trkpt>
      <trkpt lat="50.56135" lon="2.95592">
        <ele>18.4</ele>
        <time>2021-08-07T13:01:37Z</time>
      </trkpt>
      <trkpt lat="50.56131" lon="2.95589">
        <ele>18.4</ele>
        <time>2021-08-07T13:01:38Z</time>
      </trkpt>
      <trkpt lat="50.56118" lon="2.95574">
        <ele>18.4</ele>
        <time>2021-08-07T13:01:42Z</time>
      </trkpt>
      <trkpt lat="50.56104" lon="2.95563">
        <ele>18.4</ele>
        <time>2021-08-07T13:01:46Z</time>
      </trkpt>
      <trkpt lat="50.56082" lon="2.95544">
        <ele>18.4</ele>
        <time>2021-08-07T13:01:52Z</time>
      </trkpt>
      <trkpt lat="50.56078" lon="2.95541">
        <ele>18.4</ele>
        <time>2021-08-07T13:01:53Z</time>
      </trkpt>
      <trkpt lat="50.56074" lon="2.95538">
        <ele>18.4</ele>
        <time>2021-08-07T13:01:54Z</time>
      </trkpt>
      <trkpt lat="50.56062" lon="2.95528">
        <ele>18.88</ele>
        <time>2021-08-07T13:01:57Z</time>
      </trkpt>
      <trkpt lat="50.56058" lon="2.95524">
        <ele>18.88</ele>
        <time>2021-08-07T13:01:58Z</time>
      </trkpt>
      <trkpt lat="50.56025" lon="2.95494">
        <ele>18.88</ele>
        <time>2021-08-07T13:02:07Z</time>
      </trkpt>
      <trkpt lat="50.56013" lon="2.95484">
        <ele>18.88</ele>
        <time>2021-08-07T13:02:10Z</time>
      </trkpt>
      <trkpt lat="50.55995" lon="2.95466">
        <ele>18.88</ele>
        <time>2021-08-07T13:02:15Z</time>
      </trkpt>
      <trkpt lat="50.55991" lon="2.95463">
        <ele>18.88</ele>
        <time>2021-08-07T13:02:16Z</time>
      </trkpt>
      <trkpt lat="50.55987" lon="2.9546">
        <ele>18.88</ele>
        <time>2021-08-07T13:02:17Z</time>
      </trkpt>
      <trkpt lat="50.55979" lon="2.95453">
        <ele>18.88</ele>
        <time>2021-08-07T13:02:19Z</time>
      </trkpt>
      <trkpt lat="50.55975" lon="2.9545">
        <ele>18.88</ele>
        <time>2021-08-07T13:02:20Z</time>
      </trkpt>
      <trkpt lat="50.55972" lon="2.95446">
        <ele>18.88</ele>
        <time>2021-08-07T13:02:21Z</time>
      </trkpt>
      <trkpt lat="50.55968" lon="2.95442">
        <ele>18.88</ele>
        <time>2021-08-07T13:02:22Z</time>
      </trkpt>
      <trkpt lat="50.55965" lon="2.95438">
        <ele>18.88</ele>
        <time>2021-08-07T13:02:23Z</time>
      </trkpt>
      <trkpt lat="50.55929" lon="2.95397">
        <ele>18.88</ele>
        <time>2021-08-07T13:02:33Z</time>
      </trkpt>
      <trkpt lat="50.55905" lon="2.9537">
        <ele>18.88</ele>
        <time>2021-08-07T13:02:40Z</time>
      </trkpt>
      <trkpt lat="50.55902" lon="2.95366">
        <ele>18.88</ele>
        <time>2021-08-07T13:02:41Z</time>
      </trkpt>
      <trkpt lat="50.55895" lon="2.95359">
        <ele>18.88</ele>
        <time>2021-08-07T13:02:43Z</time>
      </trkpt>
      <trkpt lat="50.55888" lon="2.95348">
        <ele>18.88</ele>
        <time>2021-08-07T13:02:46Z</time>
      </trkpt>
      <trkpt lat="50.55886" lon="2.95348">
        <ele>18.88</ele>
        <time>2021-08-07T13:02:47Z</time>
      </trkpt>
      <trkpt lat="50.55886" lon="2.9535">
        <ele>18.88</ele>
        <time>2021-08-07T13:02:48Z</time>
      </trkpt>
      <trkpt lat="50.55883" lon="2.95361">
        <ele>18.88</ele>
        <time>2021-08-07T13:02:55Z</time>
      </trkpt>
      <trkpt lat="50.55873" lon="2.95381">
        <ele>18.88</ele>
        <time>2021-08-07T13:03:03Z</time>
      </trkpt>
      <trkpt lat="50.5586" lon="2.95397">
        <ele>18.88</ele>
        <time>2021-08-07T13:03:09Z</time>
      </trkpt>
      <trkpt lat="50.55851" lon="2.95414">
        <ele>19.36</ele>
        <time>2021-08-07T13:03:15Z</time>
      </trkpt>
      <trkpt lat="50.5584" lon="2.95433">
        <ele>19.36</ele>
        <time>2021-08-07T13:03:21Z</time>
      </trkpt>
      <trkpt lat="50.5582" lon="2.95464">
        <ele>19.36</ele>
        <time>2021-08-07T13:03:28Z</time>
      </trkpt>
      <trkpt lat="50.55815" lon="2.95472">
        <ele>19.36</ele>
        <time>2021-08-07T13:03:30Z</time>
      </trkpt>
      <trkpt lat="50.55814" lon="2.95475">
        <ele>19.36</ele>
        <time>2021-08-07T13:03:31Z</time>
      </trkpt>
      <trkpt lat="50.55811" lon="2.9549">
        <ele>19.36</ele>
        <time>2021-08-07T13:03:37Z</time>
      </trkpt>
      <trkpt lat="50.5581" lon="2.95492">
        <ele>19.36</ele>
        <time>2021-08-07T13:03:38Z</time>
      </trkpt>
      <trkpt lat="50.55809" lon="2.95496">
        <ele>19.36</ele>
        <time>2021-08-07T13:03:39Z</time>
      </trkpt>
      <trkpt lat="50.55807" lon="2.955">
        <ele>19.36</ele>
        <time>2021-08-07T13:03:40Z</time>
      </trkpt>
      <trkpt lat="50.55805" lon="2.95503">
        <ele>19.36</ele>
        <time>2021-08-07T13:03:41Z</time>
      </trkpt>
      <trkpt lat="50.55803" lon="2.95507">
        <ele>19.36</ele>
        <time>2021-08-07T13:03:42Z</time>
      </trkpt>
      <trkpt lat="50.55801" lon="2.9551">
        <ele>19.84</ele>
        <time>2021-08-07T13:03:43Z</time>
      </trkpt>
      <trkpt lat="50.55789" lon="2.95529">
        <ele>19.84</ele>
        <time>2021-08-07T13:03:49Z</time>
      </trkpt>
      <trkpt lat="50.55771" lon="2.95553">
        <ele>19.84</ele>
        <time>2021-08-07T13:03:56Z</time>
      </trkpt>
      <trkpt lat="50.55754" lon="2.95577">
        <ele>19.84</ele>
        <time>2021-08-07T13:04:02Z</time>
      </trkpt>
      <trkpt lat="50.55743" lon="2.95596">
        <ele>19.84</ele>
        <time>2021-08-07T13:04:08Z</time>
      </trkpt>
      <trkpt lat="50.55723" lon="2.95625">
        <ele>19.84</ele>
        <time>2021-08-07T13:04:16Z</time>
      </trkpt>
      <trkpt lat="50.55713" lon="2.95638">
        <ele>18.88</ele>
        <time>2021-08-07T13:04:20Z</time>
      </trkpt>
      <trkpt lat="50.55708" lon="2.95646">
        <ele>20.32</ele>
        <time>2021-08-07T13:04:22Z</time>
      </trkpt>
      <trkpt lat="50.55685" lon="2.95673">
        <ele>20.32</ele>
        <time>2021-08-07T13:04:29Z</time>
      </trkpt>
      <trkpt lat="50.55651" lon="2.95715">
        <ele>20.32</ele>
        <time>2021-08-07T13:04:39Z</time>
      </trkpt>
      <trkpt lat="50.55625" lon="2.95754">
        <ele>20.81</ele>
        <time>2021-08-07T13:04:49Z</time>
      </trkpt>
      <trkpt lat="50.55594" lon="2.958">
        <ele>20.81</ele>
        <time>2021-08-07T13:05:01Z</time>
      </trkpt>
      <trkpt lat="50.5558" lon="2.95816">
        <ele>20.81</ele>
        <time>2021-08-07T13:05:07Z</time>
      </trkpt>
      <trkpt lat="50.55578" lon="2.95814">
        <ele>20.81</ele>
        <time>2021-08-07T13:05:08Z</time>
      </trkpt>
      <trkpt lat="50.55555" lon="2.95784">
        <ele>20.81</ele>
        <time>2021-08-07T13:05:18Z</time>
      </trkpt>
      <trkpt lat="50.55529" lon="2.9575">
        <ele>21.29</ele>
        <time>2021-08-07T13:05:28Z</time>
      </trkpt>
      <trkpt lat="50.55518" lon="2.9574">
        <ele>21.29</ele>
        <time>2021-08-07T13:05:32Z</time>
      </trkpt>
      <trkpt lat="50.55516" lon="2.9574">
        <ele>21.29</ele>
        <time>2021-08-07T13:05:33Z</time>
      </trkpt>
      <trkpt lat="50.55514" lon="2.95742">
        <ele>21.29</ele>
        <time>2021-08-07T13:05:34Z</time>
      </trkpt>
      <trkpt lat="50.55512" lon="2.95743">
        <ele>21.29</ele>
        <time>2021-08-07T13:05:35Z</time>
      </trkpt>
      <trkpt lat="50.5551" lon="2.95745">
        <ele>21.29</ele>
        <time>2021-08-07T13:05:36Z</time>
      </trkpt>
      <trkpt lat="50.55493" lon="2.95754">
        <ele>21.77</ele>
        <time>2021-08-07T13:05:43Z</time>
      </trkpt>
      <trkpt lat="50.55474" lon="2.95767">
        <ele>22.25</ele>
        <time>2021-08-07T13:05:51Z</time>
      </trkpt>
      <trkpt lat="50.55453" lon="2.95778">
        <ele>20.81</ele>
        <time>2021-08-07T13:05:58Z</time>
      </trkpt>
      <trkpt lat="50.55429" lon="2.95791">
        <ele>20.81</ele>
        <time>2021-08-07T13:06:07Z</time>
      </trkpt>
      <trkpt lat="50.55411" lon="2.95803">
        <ele>20.81</ele>
        <time>2021-08-07T13:06:14Z</time>
      </trkpt>
      <trkpt lat="50.55394" lon="2.95813">
        <ele>20.81</ele>
        <time>2021-08-07T13:06:21Z</time>
      </trkpt>
      <trkpt lat="50.55379" lon="2.95823">
        <ele>20.81</ele>
        <time>2021-08-07T13:06:28Z</time>
      </trkpt>
      <trkpt lat="50.55359" lon="2.95838">
        <ele>21.77</ele>
        <time>2021-08-07T13:06:36Z</time>
      </trkpt>
      <trkpt lat="50.55332" lon="2.95857">
        <ele>21.77</ele>
        <time>2021-08-07T13:06:47Z</time>
      </trkpt>
      <trkpt lat="50.55311" lon="2.9587">
        <ele>21.77</ele>
        <time>2021-08-07T13:06:55Z</time>
      </trkpt>
      <trkpt lat="50.55288" lon="2.95878">
        <ele>21.77</ele>
        <time>2021-08-07T13:07:03Z</time>
      </trkpt>
      <trkpt lat="50.55261" lon="2.95887">
        <ele>21.77</ele>
        <time>2021-08-07T13:07:12Z</time>
      </trkpt>
      <trkpt lat="50.55242" lon="2.95893">
        <ele>21.77</ele>
        <time>2021-08-07T13:07:18Z</time>
      </trkpt>
      <trkpt lat="50.55209" lon="2.95903">
        <ele>21.77</ele>
        <time>2021-08-07T13:07:28Z</time>
      </trkpt>
      <trkpt lat="50.55179" lon="2.95912">
        <ele>21.77</ele>
        <time>2021-08-07T13:07:38Z</time>
      </trkpt>
      <trkpt lat="50.55163" lon="2.95918">
        <ele>21.77</ele>
        <time>2021-08-07T13:07:45Z</time>
      </trkpt>
      <trkpt lat="50.55156" lon="2.9592">
        <ele>21.77</ele>
        <time>2021-08-07T13:07:48Z</time>
      </trkpt>
      <trkpt lat="50.55154" lon="2.9592">
        <ele>22.25</ele>
        <time>2021-08-07T13:07:49Z</time>
      </trkpt>
      <trkpt lat="50.5513" lon="2.95926">
        <ele>22.25</ele>
        <time>2021-08-07T13:07:57Z</time>
      </trkpt>
      <trkpt lat="50.55104" lon="2.95931">
        <ele>22.25</ele>
        <time>2021-08-07T13:08:05Z</time>
      </trkpt>
      <trkpt lat="50.55077" lon="2.95937">
        <ele>22.25</ele>
        <time>2021-08-07T13:08:14Z</time>
      </trkpt>
      <trkpt lat="50.55045" lon="2.95944">
        <ele>22.25</ele>
        <time>2021-08-07T13:08:24Z</time>
      </trkpt>
      <trkpt lat="50.5502" lon="2.95952">
        <ele>22.25</ele>
        <time>2021-08-07T13:08:32Z</time>
      </trkpt>
      <trkpt lat="50.55019" lon="2.95955">
        <ele>22.25</ele>
        <time>2021-08-07T13:08:33Z</time>
      </trkpt>
      <trkpt lat="50.55017" lon="2.95958">
        <ele>22.25</ele>
        <time>2021-08-07T13:08:34Z</time>
      </trkpt>
      <trkpt lat="50.55017" lon="2.95962">
        <ele>22.25</ele>
        <time>2021-08-07T13:08:35Z</time>
      </trkpt>
      <trkpt lat="50.55017" lon="2.95967">
        <ele>22.25</ele>
        <time>2021-08-07T13:08:36Z</time>
      </trkpt>
      <trkpt lat="50.55017" lon="2.95971">
        <ele>22.25</ele>
        <time>2021-08-07T13:08:37Z</time>
      </trkpt>
      <trkpt lat="50.55018" lon="2.95976">
        <ele>22.25</ele>
        <time>2021-08-07T13:08:38Z</time>
      </trkpt>
      <trkpt lat="50.55019" lon="2.95981">
        <ele>22.25</ele>
        <time>2021-08-07T13:08:39Z</time>
      </trkpt>
      <trkpt lat="50.55023" lon="2.96009">
        <ele>22.73</ele>
        <time>2021-08-07T13:08:45Z</time>
      </trkpt>
      <trkpt lat="50.55023" lon="2.96013">
        <ele>22.73</ele>
        <time>2021-08-07T13:08:46Z</time>
      </trkpt>
      <trkpt lat="50.55023" lon="2.96017">
        <ele>22.73</ele>
        <time>2021-08-07T13:08:47Z</time>
      </trkpt>
      <trkpt lat="50.55024" lon="2.96023">
        <ele>22.73</ele>
        <time>2021-08-07T13:08:48Z</time>
      </trkpt>
      <trkpt lat="50.55025" lon="2.96028">
        <ele>22.73</ele>
        <time>2021-08-07T13:08:49Z</time>
      </trkpt>
      <trkpt lat="50.55028" lon="2.96058">
        <ele>23.21</ele>
        <time>2021-08-07T13:08:56Z</time>
      </trkpt>
      <trkpt lat="50.55033" lon="2.96097">
        <ele>23.21</ele>
        <time>2021-08-07T13:09:04Z</time>
      </trkpt>
      <trkpt lat="50.55038" lon="2.96141">
        <ele>23.21</ele>
        <time>2021-08-07T13:09:13Z</time>
      </trkpt>
      <trkpt lat="50.55031" lon="2.9616">
        <ele>23.21</ele>
        <time>2021-08-07T13:09:18Z</time>
      </trkpt>
      <trkpt lat="50.55015" lon="2.96184">
        <ele>23.21</ele>
        <time>2021-08-07T13:09:24Z</time>
      </trkpt>
      <trkpt lat="50.55" lon="2.96213">
        <ele>23.21</ele>
        <time>2021-08-07T13:09:30Z</time>
      </trkpt>
      <trkpt lat="50.5498" lon="2.96254">
        <ele>23.21</ele>
        <time>2021-08-07T13:09:39Z</time>
      </trkpt>
      <trkpt lat="50.54959" lon="2.96295">
        <ele>23.69</ele>
        <time>2021-08-07T13:09:48Z</time>
      </trkpt>
      <trkpt lat="50.5494" lon="2.96332">
        <ele>23.21</ele>
        <time>2021-08-07T13:09:56Z</time>
      </trkpt>
      <trkpt lat="50.54916" lon="2.96378">
        <ele>23.21</ele>
        <time>2021-08-07T13:10:06Z</time>
      </trkpt>
      <trkpt lat="50.54908" lon="2.96389">
        <ele>23.21</ele>
        <time>2021-08-07T13:10:10Z</time>
      </trkpt>
      <trkpt lat="50.54907" lon="2.9639">
        <ele>23.21</ele>
        <time>2021-08-07T13:10:11Z</time>
      </trkpt>
      <trkpt lat="50.54907" lon="2.96391">
        <ele>23.69</ele>
        <time>2021-08-07T13:10:18Z</time>
      </trkpt>
      <trkpt lat="50.54906" lon="2.9639">
        <ele>23.69</ele>
        <time>2021-08-07T13:10:37Z</time>
      </trkpt>
      <trkpt lat="50.54904" lon="2.96393">
        <ele>23.69</ele>
        <time>2021-08-07T13:10:53Z</time>
      </trkpt>
      <trkpt lat="50.54906" lon="2.96393">
        <ele>23.69</ele>
        <time>2021-08-07T13:11:15Z</time>
      </trkpt>
      <trkpt lat="50.54905" lon="2.96396">
        <ele>23.69</ele>
        <time>2021-08-07T13:11:34Z</time>
      </trkpt>
      <trkpt lat="50.54904" lon="2.96392">
        <ele>23.69</ele>
        <time>2021-08-07T13:11:51Z</time>
      </trkpt>
      <trkpt lat="50.54904" lon="2.96392">
        <ele>23.69</ele>
        <time>2021-08-07T13:12:06Z</time>
      </trkpt>
      <trkpt lat="50.54904" lon="2.96392">
        <ele>23.69</ele>
        <time>2021-08-07T13:12:13Z</time>
      </trkpt>
      <trkpt lat="50.54905" lon="2.96395">
        <ele>23.69</ele>
        <time>2021-08-07T13:12:27Z</time>
      </trkpt>
      <trkpt lat="50.54907" lon="2.96398">
        <ele>23.69</ele>
        <time>2021-08-07T13:12:40Z</time>
      </trkpt>
      <trkpt lat="50.54907" lon="2.96399">
        <ele>23.69</ele>
        <time>2021-08-07T13:12:41Z</time>
      </trkpt>
      <trkpt lat="50.54908" lon="2.96401">
        <ele>23.69</ele>
        <time>2021-08-07T13:12:42Z</time>
      </trkpt>
      <trkpt lat="50.54907" lon="2.96402">
        <ele>23.69</ele>
        <time>2021-08-07T13:12:43Z</time>
      </trkpt>
      <trkpt lat="50.54907" lon="2.96405">
        <ele>23.69</ele>
        <time>2021-08-07T13:12:44Z</time>
      </trkpt>
      <trkpt lat="50.54905" lon="2.96407">
        <ele>22.73</ele>
        <time>2021-08-07T13:12:45Z</time>
      </trkpt>
      <trkpt lat="50.54903" lon="2.9641">
        <ele>22.73</ele>
        <time>2021-08-07T13:12:46Z</time>
      </trkpt>
      <trkpt lat="50.54885" lon="2.96422">
        <ele>22.73</ele>
        <time>2021-08-07T13:12:52Z</time>
      </trkpt>
      <trkpt lat="50.5486" lon="2.96434">
        <ele>22.73</ele>
        <time>2021-08-07T13:12:59Z</time>
      </trkpt>
      <trkpt lat="50.54816" lon="2.96455">
        <ele>22.73</ele>
        <time>2021-08-07T13:13:10Z</time>
      </trkpt>
      <trkpt lat="50.54778" lon="2.96473">
        <ele>22.73</ele>
        <time>2021-08-07T13:13:19Z</time>
      </trkpt>
      <trkpt lat="50.5474" lon="2.96491">
        <ele>23.69</ele>
        <time>2021-08-07T13:13:28Z</time>
      </trkpt>
      <trkpt lat="50.54697" lon="2.96507">
        <ele>24.17</ele>
        <time>2021-08-07T13:13:38Z</time>
      </trkpt>
      <trkpt lat="50.54653" lon="2.96511">
        <ele>24.17</ele>
        <time>2021-08-07T13:13:48Z</time>
      </trkpt>
      <trkpt lat="50.54644" lon="2.96511">
        <ele>24.17</ele>
        <time>2021-08-07T13:13:50Z</time>
      </trkpt>
      <trkpt lat="50.54599" lon="2.96514">
        <ele>24.65</ele>
        <time>2021-08-07T13:14:00Z</time>
      </trkpt>
      <trkpt lat="50.54554" lon="2.96518">
        <ele>25.13</ele>
        <time>2021-08-07T13:14:10Z</time>
      </trkpt>
      <trkpt lat="50.54519" lon="2.9652">
        <ele>25.13</ele>
        <time>2021-08-07T13:14:18Z</time>
      </trkpt>
      <trkpt lat="50.54505" lon="2.96523">
        <ele>25.13</ele>
        <time>2021-08-07T13:14:21Z</time>
      </trkpt>
      <trkpt lat="50.54486" lon="2.96541">
        <ele>25.13</ele>
        <time>2021-08-07T13:14:26Z</time>
      </trkpt>
      <trkpt lat="50.54481" lon="2.96546">
        <ele>25.13</ele>
        <time>2021-08-07T13:14:27Z</time>
      </trkpt>
      <trkpt lat="50.54477" lon="2.9655">
        <ele>25.13</ele>
        <time>2021-08-07T13:14:28Z</time>
      </trkpt>
      <trkpt lat="50.54473" lon="2.96555">
        <ele>25.13</ele>
        <time>2021-08-07T13:14:29Z</time>
      </trkpt>
      <trkpt lat="50.54469" lon="2.96559">
        <ele>25.13</ele>
        <time>2021-08-07T13:14:30Z</time>
      </trkpt>
      <trkpt lat="50.54465" lon="2.96563">
        <ele>25.13</ele>
        <time>2021-08-07T13:14:31Z</time>
      </trkpt>
      <trkpt lat="50.54454" lon="2.96575">
        <ele>25.61</ele>
        <time>2021-08-07T13:14:34Z</time>
      </trkpt>
      <trkpt lat="50.5445" lon="2.96579">
        <ele>25.61</ele>
        <time>2021-08-07T13:14:35Z</time>
      </trkpt>
      <trkpt lat="50.54436" lon="2.96595">
        <ele>25.61</ele>
        <time>2021-08-07T13:14:39Z</time>
      </trkpt>
      <trkpt lat="50.54431" lon="2.96595">
        <ele>25.61</ele>
        <time>2021-08-07T13:14:40Z</time>
      </trkpt>
      <trkpt lat="50.54427" lon="2.96594">
        <ele>25.61</ele>
        <time>2021-08-07T13:14:41Z</time>
      </trkpt>
      <trkpt lat="50.54424" lon="2.9659">
        <ele>25.61</ele>
        <time>2021-08-07T13:14:42Z</time>
      </trkpt>
      <trkpt lat="50.54421" lon="2.96585">
        <ele>25.61</ele>
        <time>2021-08-07T13:14:43Z</time>
      </trkpt>
      <trkpt lat="50.54419" lon="2.9658">
        <ele>25.61</ele>
        <time>2021-08-07T13:14:44Z</time>
      </trkpt>
      <trkpt lat="50.54417" lon="2.96574">
        <ele>25.61</ele>
        <time>2021-08-07T13:14:45Z</time>
      </trkpt>
      <trkpt lat="50.54416" lon="2.96566">
        <ele>25.61</ele>
        <time>2021-08-07T13:14:46Z</time>
      </trkpt>
      <trkpt lat="50.54415" lon="2.96559">
        <ele>25.61</ele>
        <time>2021-08-07T13:14:47Z</time>
      </trkpt>
      <trkpt lat="50.5441" lon="2.96539">
        <ele>25.61</ele>
        <time>2021-08-07T13:14:50Z</time>
      </trkpt>
      <trkpt lat="50.54397" lon="2.96498">
        <ele>25.61</ele>
        <time>2021-08-07T13:14:57Z</time>
      </trkpt>
      <trkpt lat="50.54394" lon="2.96493">
        <ele>25.61</ele>
        <time>2021-08-07T13:14:58Z</time>
      </trkpt>
      <trkpt lat="50.54391" lon="2.96487">
        <ele>25.61</ele>
        <time>2021-08-07T13:14:59Z</time>
      </trkpt>
      <trkpt lat="50.54387" lon="2.96482">
        <ele>25.61</ele>
        <time>2021-08-07T13:15:00Z</time>
      </trkpt>
      <trkpt lat="50.54361" lon="2.96451">
        <ele>25.61</ele>
        <time>2021-08-07T13:15:07Z</time>
      </trkpt>
      <trkpt lat="50.54357" lon="2.96448">
        <ele>25.61</ele>
        <time>2021-08-07T13:15:08Z</time>
      </trkpt>
      <trkpt lat="50.54353" lon="2.96446">
        <ele>25.61</ele>
        <time>2021-08-07T13:15:09Z</time>
      </trkpt>
      <trkpt lat="50.54332" lon="2.96433">
        <ele>26.09</ele>
        <time>2021-08-07T13:15:14Z</time>
      </trkpt>
      <trkpt lat="50.54328" lon="2.96432">
        <ele>26.09</ele>
        <time>2021-08-07T13:15:15Z</time>
      </trkpt>
      <trkpt lat="50.54323" lon="2.96433">
        <ele>26.09</ele>
        <time>2021-08-07T13:15:16Z</time>
      </trkpt>
      <trkpt lat="50.54319" lon="2.96435">
        <ele>26.09</ele>
        <time>2021-08-07T13:15:17Z</time>
      </trkpt>
      <trkpt lat="50.54315" lon="2.96437">
        <ele>26.57</ele>
        <time>2021-08-07T13:15:18Z</time>
      </trkpt>
      <trkpt lat="50.54306" lon="2.96441">
        <ele>26.57</ele>
        <time>2021-08-07T13:15:20Z</time>
      </trkpt>
      <trkpt lat="50.54297" lon="2.96444">
        <ele>25.13</ele>
        <time>2021-08-07T13:15:22Z</time>
      </trkpt>
      <trkpt lat="50.54265" lon="2.96456">
        <ele>24.65</ele>
        <time>2021-08-07T13:15:30Z</time>
      </trkpt>
      <trkpt lat="50.5426" lon="2.96462">
        <ele>24.65</ele>
        <time>2021-08-07T13:15:32Z</time>
      </trkpt>
      <trkpt lat="50.5426" lon="2.96467">
        <ele>27.05</ele>
        <time>2021-08-07T13:15:33Z</time>
      </trkpt>
      <trkpt lat="50.54261" lon="2.96472">
        <ele>27.05</ele>
        <time>2021-08-07T13:15:34Z</time>
      </trkpt>
      <trkpt lat="50.54267" lon="2.96495">
        <ele>25.61</ele>
        <time>2021-08-07T13:15:38Z</time>
      </trkpt>
      <trkpt lat="50.54269" lon="2.96502">
        <ele>25.61</ele>
        <time>2021-08-07T13:15:39Z</time>
      </trkpt>
      <trkpt lat="50.5427" lon="2.96509">
        <ele>25.61</ele>
        <time>2021-08-07T13:15:40Z</time>
      </trkpt>
      <trkpt lat="50.54273" lon="2.96522">
        <ele>25.61</ele>
        <time>2021-08-07T13:15:42Z</time>
      </trkpt>
      <trkpt lat="50.54275" lon="2.96541">
        <ele>25.61</ele>
        <time>2021-08-07T13:15:45Z</time>
      </trkpt>
      <trkpt lat="50.54269" lon="2.96551">
        <ele>25.61</ele>
        <time>2021-08-07T13:15:48Z</time>
      </trkpt>
      <trkpt lat="50.5426" lon="2.96558">
        <ele>25.13</ele>
        <time>2021-08-07T13:15:50Z</time>
      </trkpt>
      <trkpt lat="50.54257" lon="2.9656">
        <ele>25.13</ele>
        <time>2021-08-07T13:15:51Z</time>
      </trkpt>
      <trkpt lat="50.54241" lon="2.96568">
        <ele>24.65</ele>
        <time>2021-08-07T13:15:55Z</time>
      </trkpt>
      <trkpt lat="50.54236" lon="2.96572">
        <ele>24.65</ele>
        <time>2021-08-07T13:15:57Z</time>
      </trkpt>
      <trkpt lat="50.5423" lon="2.96575">
        <ele>24.65</ele>
        <time>2021-08-07T13:15:58Z</time>
      </trkpt>
      <trkpt lat="50.54227" lon="2.96577">
        <ele>24.65</ele>
        <time>2021-08-07T13:15:59Z</time>
      </trkpt>
      <trkpt lat="50.54191" lon="2.966">
        <ele>26.09</ele>
        <time>2021-08-07T13:16:09Z</time>
      </trkpt>
      <trkpt lat="50.54145" lon="2.96631">
        <ele>26.57</ele>
        <time>2021-08-07T13:16:23Z</time>
      </trkpt>
      <trkpt lat="50.54103" lon="2.96652">
        <ele>25.13</ele>
        <time>2021-08-07T13:16:35Z</time>
      </trkpt>
      <trkpt lat="50.54075" lon="2.96661">
        <ele>26.57</ele>
        <time>2021-08-07T13:16:43Z</time>
      </trkpt>
      <trkpt lat="50.54046" lon="2.9667">
        <ele>26.09</ele>
        <time>2021-08-07T13:16:52Z</time>
      </trkpt>
      <trkpt lat="50.54027" lon="2.96676">
        <ele>27.05</ele>
        <time>2021-08-07T13:16:58Z</time>
      </trkpt>
      <trkpt lat="50.53997" lon="2.96683">
        <ele>26.57</ele>
        <time>2021-08-07T13:17:07Z</time>
      </trkpt>
      <trkpt lat="50.5397" lon="2.9669">
        <ele>26.09</ele>
        <time>2021-08-07T13:17:15Z</time>
      </trkpt>
      <trkpt lat="50.53947" lon="2.96697">
        <ele>26.09</ele>
        <time>2021-08-07T13:17:23Z</time>
      </trkpt>
      <trkpt lat="50.53919" lon="2.96705">
        <ele>25.13</ele>
        <time>2021-08-07T13:17:33Z</time>
      </trkpt>
      <trkpt lat="50.53891" lon="2.96713">
        <ele>25.13</ele>
        <time>2021-08-07T13:17:42Z</time>
      </trkpt>
      <trkpt lat="50.53861" lon="2.96721">
        <ele>24.65</ele>
        <time>2021-08-07T13:17:51Z</time>
      </trkpt>
      <trkpt lat="50.53856" lon="2.96722">
        <ele>25.61</ele>
        <time>2021-08-07T13:17:53Z</time>
      </trkpt>
      <trkpt lat="50.53832" lon="2.96729">
        <ele>26.09</ele>
        <time>2021-08-07T13:18:01Z</time>
      </trkpt>
      <trkpt lat="50.53807" lon="2.96734">
        <ele>25.13</ele>
        <time>2021-08-07T13:18:09Z</time>
      </trkpt>
      <trkpt lat="50.53781" lon="2.9674">
        <ele>25.13</ele>
        <time>2021-08-07T13:18:17Z</time>
      </trkpt>
      <trkpt lat="50.53765" lon="2.96744">
        <ele>25.13</ele>
        <time>2021-08-07T13:18:22Z</time>
      </trkpt>
      <trkpt lat="50.53735" lon="2.96751">
        <ele>24.65</ele>
        <time>2021-08-07T13:18:32Z</time>
      </trkpt>
      <trkpt lat="50.53708" lon="2.96757">
        <ele>25.13</ele>
        <time>2021-08-07T13:18:42Z</time>
      </trkpt>
      <trkpt lat="50.53708" lon="2.96756">
        <ele>25.13</ele>
        <time>2021-08-07T13:18:46Z</time>
      </trkpt>
      <trkpt lat="50.53708" lon="2.96756">
        <ele>26.09</ele>
        <time>2021-08-07T13:19:04Z</time>
      </trkpt>
      <trkpt lat="50.53707" lon="2.96756">
        <ele>24.65</ele>
        <time>2021-08-07T13:19:21Z</time>
      </trkpt>
      <trkpt lat="50.53707" lon="2.9676">
        <ele>24.65</ele>
        <time>2021-08-07T13:19:23Z</time>
      </trkpt>
      <trkpt lat="50.53706" lon="2.96762">
        <ele>24.65</ele>
        <time>2021-08-07T13:19:24Z</time>
      </trkpt>
      <trkpt lat="50.53707" lon="2.96784">
        <ele>23.21</ele>
        <time>2021-08-07T13:19:29Z</time>
      </trkpt>
      <trkpt lat="50.53717" lon="2.96828">
        <ele>23.21</ele>
        <time>2021-08-07T13:19:38Z</time>
      </trkpt>
      <trkpt lat="50.53728" lon="2.96865">
        <ele>23.21</ele>
        <time>2021-08-07T13:19:45Z</time>
      </trkpt>
      <trkpt lat="50.53737" lon="2.96902">
        <ele>23.21</ele>
        <time>2021-08-07T13:19:52Z</time>
      </trkpt>
      <trkpt lat="50.53747" lon="2.96952">
        <ele>21.77</ele>
        <time>2021-08-07T13:20:01Z</time>
      </trkpt>
      <trkpt lat="50.53757" lon="2.96997">
        <ele>21.77</ele>
        <time>2021-08-07T13:20:09Z</time>
      </trkpt>
      <trkpt lat="50.53759" lon="2.97004">
        <ele>21.77</ele>
        <time>2021-08-07T13:20:12Z</time>
      </trkpt>
      <trkpt lat="50.5376" lon="2.97002">
        <ele>21.29</ele>
        <time>2021-08-07T13:20:24Z</time>
      </trkpt>
      <trkpt lat="50.53759" lon="2.97004">
        <ele>21.29</ele>
        <time>2021-08-07T13:20:37Z</time>
      </trkpt>
      <trkpt lat="50.53759" lon="2.97005">
        <ele>21.29</ele>
        <time>2021-08-07T13:20:38Z</time>
      </trkpt>
      <trkpt lat="50.5376" lon="2.9701">
        <ele>21.29</ele>
        <time>2021-08-07T13:20:43Z</time>
      </trkpt>
      <trkpt lat="50.53765" lon="2.9703">
        <ele>20.32</ele>
        <time>2021-08-07T13:20:48Z</time>
      </trkpt>
      <trkpt lat="50.53777" lon="2.97085">
        <ele>19.84</ele>
        <time>2021-08-07T13:20:58Z</time>
      </trkpt>
      <trkpt lat="50.53786" lon="2.97132">
        <ele>18.88</ele>
        <time>2021-08-07T13:21:06Z</time>
      </trkpt>
      <trkpt lat="50.5379" lon="2.97175">
        <ele>19.36</ele>
        <time>2021-08-07T13:21:14Z</time>
      </trkpt>
      <trkpt lat="50.53799" lon="2.97212">
        <ele>19.36</ele>
        <time>2021-08-07T13:21:21Z</time>
      </trkpt>
      <trkpt lat="50.53815" lon="2.97282">
        <ele>19.36</ele>
        <time>2021-08-07T13:21:32Z</time>
      </trkpt>
      <trkpt lat="50.53827" lon="2.97344">
        <ele>19.36</ele>
        <time>2021-08-07T13:21:42Z</time>
      </trkpt>
      <trkpt lat="50.53838" lon="2.97389">
        <ele>19.36</ele>
        <time>2021-08-07T13:21:50Z</time>
      </trkpt>
      <trkpt lat="50.53848" lon="2.97437">
        <ele>19.36</ele>
        <time>2021-08-07T13:21:59Z</time>
      </trkpt>
      <trkpt lat="50.53848" lon="2.97435">
        <ele>20.32</ele>
        <time>2021-08-07T13:22:08Z</time>
      </trkpt>
      <trkpt lat="50.53849" lon="2.97436">
        <ele>19.36</ele>
        <time>2021-08-07T13:22:11Z</time>
      </trkpt>
      <trkpt lat="50.53848" lon="2.97437">
        <ele>18.4</ele>
        <time>2021-08-07T13:22:22Z</time>
      </trkpt>
      <trkpt lat="50.53848" lon="2.97437">
        <ele>19.36</ele>
        <time>2021-08-07T13:22:25Z</time>
      </trkpt>
      <trkpt lat="50.53847" lon="2.97437">
        <ele>19.36</ele>
        <time>2021-08-07T13:22:43Z</time>
      </trkpt>
      <trkpt lat="50.53851" lon="2.97452">
        <ele>17.92</ele>
        <time>2021-08-07T13:22:48Z</time>
      </trkpt>
      <trkpt lat="50.5386" lon="2.97493">
        <ele>17.92</ele>
        <time>2021-08-07T13:22:55Z</time>
      </trkpt>
      <trkpt lat="50.53873" lon="2.97554">
        <ele>17.92</ele>
        <time>2021-08-07T13:23:05Z</time>
      </trkpt>
      <trkpt lat="50.53882" lon="2.97592">
        <ele>17.92</ele>
        <time>2021-08-07T13:23:13Z</time>
      </trkpt>
      <trkpt lat="50.53893" lon="2.97654">
        <ele>17.92</ele>
        <time>2021-08-07T13:23:23Z</time>
      </trkpt>
      <trkpt lat="50.53905" lon="2.9773">
        <ele>17.92</ele>
        <time>2021-08-07T13:23:35Z</time>
      </trkpt>
      <trkpt lat="50.53908" lon="2.97747">
        <ele>17.92</ele>
        <time>2021-08-07T13:23:40Z</time>
      </trkpt>
      <trkpt lat="50.53914" lon="2.97776">
        <ele>16.96</ele>
        <time>2021-08-07T13:23:45Z</time>
      </trkpt>
      <trkpt lat="50.53921" lon="2.97814">
        <ele>16</ele>
        <time>2021-08-07T13:23:51Z</time>
      </trkpt>
      <trkpt lat="50.53922" lon="2.9782">
        <ele>16</ele>
        <time>2021-08-07T13:23:52Z</time>
      </trkpt>
      <trkpt lat="50.53923" lon="2.97827">
        <ele>16</ele>
        <time>2021-08-07T13:23:53Z</time>
      </trkpt>
      <trkpt lat="50.53934" lon="2.97909">
        <ele>16</ele>
        <time>2021-08-07T13:24:03Z</time>
      </trkpt>
      <trkpt lat="50.53947" lon="2.97999">
        <ele>15.04</ele>
        <time>2021-08-07T13:24:12Z</time>
      </trkpt>
      <trkpt lat="50.53957" lon="2.98098">
        <ele>15.04</ele>
        <time>2021-08-07T13:24:21Z</time>
      </trkpt>
      <trkpt lat="50.53958" lon="2.98129">
        <ele>15.04</ele>
        <time>2021-08-07T13:24:24Z</time>
      </trkpt>
      <trkpt lat="50.53959" lon="2.98138">
        <ele>15.04</ele>
        <time>2021-08-07T13:24:25Z</time>
      </trkpt>
      <trkpt lat="50.53961" lon="2.98145">
        <ele>15.04</ele>
        <time>2021-08-07T13:24:26Z</time>
      </trkpt>
      <trkpt lat="50.53963" lon="2.9815">
        <ele>15.04</ele>
        <time>2021-08-07T13:24:27Z</time>
      </trkpt>
      <trkpt lat="50.53965" lon="2.98153">
        <ele>15.04</ele>
        <time>2021-08-07T13:24:28Z</time>
      </trkpt>
      <trkpt lat="50.53969" lon="2.98156">
        <ele>15.04</ele>
        <time>2021-08-07T13:24:29Z</time>
      </trkpt>
      <trkpt lat="50.53972" lon="2.98158">
        <ele>15.04</ele>
        <time>2021-08-07T13:24:30Z</time>
      </trkpt>
      <trkpt lat="50.53976" lon="2.9816">
        <ele>15.04</ele>
        <time>2021-08-07T13:24:31Z</time>
      </trkpt>
      <trkpt lat="50.5398" lon="2.98162">
        <ele>15.04</ele>
        <time>2021-08-07T13:24:32Z</time>
      </trkpt>
      <trkpt lat="50.53984" lon="2.98165">
        <ele>15.04</ele>
        <time>2021-08-07T13:24:33Z</time>
      </trkpt>
      <trkpt lat="50.53987" lon="2.98168">
        <ele>15.04</ele>
        <time>2021-08-07T13:24:34Z</time>
      </trkpt>
      <trkpt lat="50.53989" lon="2.98172">
        <ele>15.04</ele>
        <time>2021-08-07T13:24:35Z</time>
      </trkpt>
      <trkpt lat="50.5399" lon="2.98177">
        <ele>15.04</ele>
        <time>2021-08-07T13:24:36Z</time>
      </trkpt>
      <trkpt lat="50.53989" lon="2.98182">
        <ele>15.04</ele>
        <time>2021-08-07T13:24:37Z</time>
      </trkpt>
      <trkpt lat="50.53989" lon="2.98194">
        <ele>16</ele>
        <time>2021-08-07T13:24:40Z</time>
      </trkpt>
      <trkpt lat="50.5399" lon="2.98195">
        <ele>16</ele>
        <time>2021-08-07T13:24:41Z</time>
      </trkpt>
      <trkpt lat="50.53992" lon="2.98194">
        <ele>16</ele>
        <time>2021-08-07T13:24:42Z</time>
      </trkpt>
      <trkpt lat="50.53991" lon="2.98191">
        <ele>15.04</ele>
        <time>2021-08-07T13:24:43Z</time>
      </trkpt>
      <trkpt lat="50.5399" lon="2.98187">
        <ele>15.04</ele>
        <time>2021-08-07T13:24:44Z</time>
      </trkpt>
      <trkpt lat="50.5399" lon="2.98182">
        <ele>15.04</ele>
        <time>2021-08-07T13:24:45Z</time>
      </trkpt>
      <trkpt lat="50.53989" lon="2.98177">
        <ele>15.04</ele>
        <time>2021-08-07T13:24:46Z</time>
      </trkpt>
      <trkpt lat="50.5399" lon="2.98172">
        <ele>15.04</ele>
        <time>2021-08-07T13:24:47Z</time>
      </trkpt>
      <trkpt lat="50.53992" lon="2.98168">
        <ele>16</ele>
        <time>2021-08-07T13:24:48Z</time>
      </trkpt>
      <trkpt lat="50.53995" lon="2.98167">
        <ele>16</ele>
        <time>2021-08-07T13:24:49Z</time>
      </trkpt>
      <trkpt lat="50.53999" lon="2.98168">
        <ele>16.48</ele>
        <time>2021-08-07T13:24:50Z</time>
      </trkpt>
      <trkpt lat="50.54002" lon="2.98169">
        <ele>16.48</ele>
        <time>2021-08-07T13:24:51Z</time>
      </trkpt>
      <trkpt lat="50.54016" lon="2.98174">
        <ele>15.52</ele>
        <time>2021-08-07T13:24:54Z</time>
      </trkpt>
      <trkpt lat="50.5406" lon="2.98189">
        <ele>15.52</ele>
        <time>2021-08-07T13:25:02Z</time>
      </trkpt>
      <trkpt lat="50.54104" lon="2.982">
        <ele>15.52</ele>
        <time>2021-08-07T13:25:08Z</time>
      </trkpt>
      <trkpt lat="50.5417" lon="2.98216">
        <ele>14.56</ele>
        <time>2021-08-07T13:25:17Z</time>
      </trkpt>
      <trkpt lat="50.54185" lon="2.98222">
        <ele>15.52</ele>
        <time>2021-08-07T13:25:21Z</time>
      </trkpt>
      <trkpt lat="50.54189" lon="2.98223">
        <ele>16.96</ele>
        <time>2021-08-07T13:25:23Z</time>
      </trkpt>
      <trkpt lat="50.54192" lon="2.98225">
        <ele>16</ele>
        <time>2021-08-07T13:25:29Z</time>
      </trkpt>
      <trkpt lat="50.54192" lon="2.98224">
        <ele>16</ele>
        <time>2021-08-07T13:25:38Z</time>
      </trkpt>
      <trkpt lat="50.54186" lon="2.98215">
        <ele>15.52</ele>
        <time>2021-08-07T13:25:58Z</time>
      </trkpt>
      <trkpt lat="50.5418" lon="2.98208">
        <ele>15.52</ele>
        <time>2021-08-07T13:26:19Z</time>
      </trkpt>
      <trkpt lat="50.54181" lon="2.98208">
        <ele>16</ele>
        <time>2021-08-07T13:26:39Z</time>
      </trkpt>
      <trkpt lat="50.54188" lon="2.98226">
        <ele>16</ele>
        <time>2021-08-07T13:26:45Z</time>
      </trkpt>
      <trkpt lat="50.54191" lon="2.98232">
        <ele>17.44</ele>
        <time>2021-08-07T13:26:57Z</time>
      </trkpt>
      <trkpt lat="50.54193" lon="2.98233">
        <ele>17.44</ele>
        <time>2021-08-07T13:27:15Z</time>
      </trkpt>
      <trkpt lat="50.54194" lon="2.98236">
        <ele>18.4</ele>
        <time>2021-08-07T13:27:32Z</time>
      </trkpt>
      <trkpt lat="50.54193" lon="2.98234">
        <ele>19.36</ele>
        <time>2021-08-07T13:28:00Z</time>
      </trkpt>
      <trkpt lat="50.54191" lon="2.98229">
        <ele>19.36</ele>
        <time>2021-08-07T13:28:30Z</time>
      </trkpt>
      <trkpt lat="50.54191" lon="2.98229">
        <ele>20.32</ele>
        <time>2021-08-07T13:29:01Z</time>
      </trkpt>
      <trkpt lat="50.5419" lon="2.98234">
        <ele>20.32</ele>
        <time>2021-08-07T13:29:26Z</time>
      </trkpt>
      <trkpt lat="50.54191" lon="2.9823">
        <ele>20.81</ele>
        <time>2021-08-07T13:29:52Z</time>
      </trkpt>
      <trkpt lat="50.54189" lon="2.98231">
        <ele>20.81</ele>
        <time>2021-08-07T13:30:15Z</time>
      </trkpt>
      <trkpt lat="50.54189" lon="2.98237">
        <ele>19.84</ele>
        <time>2021-08-07T13:30:44Z</time>
      </trkpt>
      <trkpt lat="50.54189" lon="2.98237">
        <ele>19.84</ele>
        <time>2021-08-07T13:30:45Z</time>
      </trkpt>
      <trkpt lat="50.54188" lon="2.98233">
        <ele>19.36</ele>
        <time>2021-08-07T13:31:11Z</time>
      </trkpt>
      <trkpt lat="50.54189" lon="2.9823">
        <ele>19.36</ele>
        <time>2021-08-07T13:31:35Z</time>
      </trkpt>
      <trkpt lat="50.5419" lon="2.98226">
        <ele>18.88</ele>
        <time>2021-08-07T13:31:59Z</time>
      </trkpt>
      <trkpt lat="50.54188" lon="2.98223">
        <ele>18.88</ele>
        <time>2021-08-07T13:32:22Z</time>
      </trkpt>
      <trkpt lat="50.54188" lon="2.98226">
        <ele>20.32</ele>
        <time>2021-08-07T13:32:42Z</time>
      </trkpt>
      <trkpt lat="50.54185" lon="2.98219">
        <ele>20.32</ele>
        <time>2021-08-07T13:33:03Z</time>
      </trkpt>
      <trkpt lat="50.5419" lon="2.98218">
        <ele>20.81</ele>
        <time>2021-08-07T13:33:20Z</time>
      </trkpt>
      <trkpt lat="50.54192" lon="2.98217">
        <ele>20.81</ele>
        <time>2021-08-07T13:33:41Z</time>
      </trkpt>
      <trkpt lat="50.54194" lon="2.98218">
        <ele>20.32</ele>
        <time>2021-08-07T13:34:02Z</time>
      </trkpt>
      <trkpt lat="50.54194" lon="2.98226">
        <ele>20.32</ele>
        <time>2021-08-07T13:34:25Z</time>
      </trkpt>
      <trkpt lat="50.54195" lon="2.9822">
        <ele>20.81</ele>
        <time>2021-08-07T13:34:41Z</time>
      </trkpt>
      <trkpt lat="50.54195" lon="2.98212">
        <ele>20.81</ele>
        <time>2021-08-07T13:34:57Z</time>
      </trkpt>
      <trkpt lat="50.54194" lon="2.98208">
        <ele>20.81</ele>
        <time>2021-08-07T13:35:20Z</time>
      </trkpt>
      <trkpt lat="50.54192" lon="2.98214">
        <ele>21.29</ele>
        <time>2021-08-07T13:35:41Z</time>
      </trkpt>
      <trkpt lat="50.54192" lon="2.98218">
        <ele>21.29</ele>
        <time>2021-08-07T13:35:55Z</time>
      </trkpt>
      <trkpt lat="50.54194" lon="2.98221">
        <ele>21.29</ele>
        <time>2021-08-07T13:36:10Z</time>
      </trkpt>
      <trkpt lat="50.54191" lon="2.9822">
        <ele>21.29</ele>
        <time>2021-08-07T13:36:28Z</time>
      </trkpt>
      <trkpt lat="50.54193" lon="2.98223">
        <ele>21.29</ele>
        <time>2021-08-07T13:36:48Z</time>
      </trkpt>
      <trkpt lat="50.5419" lon="2.98217">
        <ele>21.29</ele>
        <time>2021-08-07T13:37:04Z</time>
      </trkpt>
      <trkpt lat="50.5419" lon="2.98212">
        <ele>21.77</ele>
        <time>2021-08-07T13:37:19Z</time>
      </trkpt>
      <trkpt lat="50.54186" lon="2.9821">
        <ele>21.77</ele>
        <time>2021-08-07T13:37:36Z</time>
      </trkpt>
      <trkpt lat="50.54187" lon="2.98207">
        <ele>21.77</ele>
        <time>2021-08-07T13:37:54Z</time>
      </trkpt>
      <trkpt lat="50.54187" lon="2.98212">
        <ele>21.77</ele>
        <time>2021-08-07T13:38:07Z</time>
      </trkpt>
      <trkpt lat="50.54182" lon="2.98221">
        <ele>21.77</ele>
        <time>2021-08-07T13:38:27Z</time>
      </trkpt>
      <trkpt lat="50.54185" lon="2.98228">
        <ele>21.77</ele>
        <time>2021-08-07T13:38:53Z</time>
      </trkpt>
      <trkpt lat="50.54187" lon="2.98217">
        <ele>21.29</ele>
        <time>2021-08-07T13:39:10Z</time>
      </trkpt>
      <trkpt lat="50.54184" lon="2.9821">
        <ele>21.29</ele>
        <time>2021-08-07T13:39:28Z</time>
      </trkpt>
      <trkpt lat="50.54181" lon="2.98206">
        <ele>21.29</ele>
        <time>2021-08-07T13:39:45Z</time>
      </trkpt>
      <trkpt lat="50.5418" lon="2.98212">
        <ele>21.29</ele>
        <time>2021-08-07T13:40:05Z</time>
      </trkpt>
      <trkpt lat="50.54181" lon="2.98214">
        <ele>21.77</ele>
        <time>2021-08-07T13:40:26Z</time>
      </trkpt>
      <trkpt lat="50.54186" lon="2.98218">
        <ele>21.77</ele>
        <time>2021-08-07T13:40:41Z</time>
      </trkpt>
      <trkpt lat="50.54189" lon="2.98216">
        <ele>21.29</ele>
        <time>2021-08-07T13:41:00Z</time>
      </trkpt>
      <trkpt lat="50.54187" lon="2.98224">
        <ele>21.29</ele>
        <time>2021-08-07T13:41:14Z</time>
      </trkpt>
      <trkpt lat="50.54183" lon="2.98223">
        <ele>21.29</ele>
        <time>2021-08-07T13:41:37Z</time>
      </trkpt>
      <trkpt lat="50.54179" lon="2.98212">
        <ele>20.32</ele>
        <time>2021-08-07T13:41:54Z</time>
      </trkpt>
      <trkpt lat="50.54176" lon="2.98211">
        <ele>20.32</ele>
        <time>2021-08-07T13:42:14Z</time>
      </trkpt>
      <trkpt lat="50.5418" lon="2.98215">
        <ele>20.32</ele>
        <time>2021-08-07T13:42:34Z</time>
      </trkpt>
      <trkpt lat="50.54181" lon="2.9822">
        <ele>20.32</ele>
        <time>2021-08-07T13:42:49Z</time>
      </trkpt>
      <trkpt lat="50.54184" lon="2.98217">
        <ele>20.32</ele>
        <time>2021-08-07T13:43:10Z</time>
      </trkpt>
      <trkpt lat="50.54186" lon="2.9822">
        <ele>19.84</ele>
        <time>2021-08-07T13:43:29Z</time>
      </trkpt>
      <trkpt lat="50.54188" lon="2.98229">
        <ele>19.84</ele>
        <time>2021-08-07T13:43:48Z</time>
      </trkpt>
      <trkpt lat="50.54188" lon="2.98227">
        <ele>19.84</ele>
        <time>2021-08-07T13:44:07Z</time>
      </trkpt>
      <trkpt lat="50.54187" lon="2.98223">
        <ele>19.84</ele>
        <time>2021-08-07T13:44:17Z</time>
      </trkpt>
      <trkpt lat="50.54188" lon="2.9823">
        <ele>19.36</ele>
        <time>2021-08-07T13:44:40Z</time>
      </trkpt>
      <trkpt lat="50.54192" lon="2.98227">
        <ele>19.36</ele>
        <time>2021-08-07T13:44:59Z</time>
      </trkpt>
      <trkpt lat="50.54193" lon="2.98219">
        <ele>19.36</ele>
        <time>2021-08-07T13:45:14Z</time>
      </trkpt>
      <trkpt lat="50.54188" lon="2.98223">
        <ele>18.88</ele>
        <time>2021-08-07T13:45:19Z</time>
      </trkpt>
      <trkpt lat="50.54186" lon="2.98222">
        <ele>18.88</ele>
        <time>2021-08-07T13:45:20Z</time>
      </trkpt>
      <trkpt lat="50.54171" lon="2.98214">
        <ele>18.88</ele>
        <time>2021-08-07T13:45:27Z</time>
      </trkpt>
      <trkpt lat="50.54145" lon="2.98208">
        <ele>18.88</ele>
        <time>2021-08-07T13:45:35Z</time>
      </trkpt>
      <trkpt lat="50.54105" lon="2.98202">
        <ele>18.4</ele>
        <time>2021-08-07T13:45:45Z</time>
      </trkpt>
      <trkpt lat="50.5406" lon="2.98191">
        <ele>17.92</ele>
        <time>2021-08-07T13:45:55Z</time>
      </trkpt>
      <trkpt lat="50.54011" lon="2.98173">
        <ele>17.92</ele>
        <time>2021-08-07T13:46:06Z</time>
      </trkpt>
      <trkpt lat="50.53993" lon="2.98168">
        <ele>17.92</ele>
        <time>2021-08-07T13:46:11Z</time>
      </trkpt>
      <trkpt lat="50.5399" lon="2.98169">
        <ele>17.92</ele>
        <time>2021-08-07T13:46:12Z</time>
      </trkpt>
      <trkpt lat="50.53988" lon="2.98169">
        <ele>17.92</ele>
        <time>2021-08-07T13:46:13Z</time>
      </trkpt>
      <trkpt lat="50.53986" lon="2.98169">
        <ele>17.92</ele>
        <time>2021-08-07T13:46:14Z</time>
      </trkpt>
      <trkpt lat="50.53984" lon="2.98169">
        <ele>17.92</ele>
        <time>2021-08-07T13:46:15Z</time>
      </trkpt>
      <trkpt lat="50.53983" lon="2.98168">
        <ele>17.92</ele>
        <time>2021-08-07T13:46:16Z</time>
      </trkpt>
      <trkpt lat="50.53981" lon="2.98167">
        <ele>17.92</ele>
        <time>2021-08-07T13:46:17Z</time>
      </trkpt>
      <trkpt lat="50.53969" lon="2.98159">
        <ele>18.4</ele>
        <time>2021-08-07T13:46:22Z</time>
      </trkpt>
      <trkpt lat="50.53968" lon="2.98157">
        <ele>18.4</ele>
        <time>2021-08-07T13:46:23Z</time>
      </trkpt>
      <trkpt lat="50.53969" lon="2.98156">
        <ele>18.4</ele>
        <time>2021-08-07T13:46:24Z</time>
      </trkpt>
      <trkpt lat="50.53975" lon="2.98159">
        <ele>18.4</ele>
        <time>2021-08-07T13:46:28Z</time>
      </trkpt>
      <trkpt lat="50.53987" lon="2.98167">
        <ele>18.4</ele>
        <time>2021-08-07T13:46:33Z</time>
      </trkpt>
      <trkpt lat="50.5399" lon="2.98201">
        <ele>18.4</ele>
        <time>2021-08-07T13:46:39Z</time>
      </trkpt>
      <trkpt lat="50.53992" lon="2.98206">
        <ele>18.4</ele>
        <time>2021-08-07T13:46:40Z</time>
      </trkpt>
      <trkpt lat="50.53993" lon="2.98211">
        <ele>18.4</ele>
        <time>2021-08-07T13:46:41Z</time>
      </trkpt>
      <trkpt lat="50.53994" lon="2.98216">
        <ele>18.4</ele>
        <time>2021-08-07T13:46:42Z</time>
      </trkpt>
      <trkpt lat="50.53994" lon="2.98222">
        <ele>18.4</ele>
        <time>2021-08-07T13:46:43Z</time>
      </trkpt>
      <trkpt lat="50.53995" lon="2.98227">
        <ele>18.4</ele>
        <time>2021-08-07T13:46:44Z</time>
      </trkpt>
      <trkpt lat="50.53995" lon="2.98233">
        <ele>18.4</ele>
        <time>2021-08-07T13:46:45Z</time>
      </trkpt>
      <trkpt lat="50.54" lon="2.98278">
        <ele>18.4</ele>
        <time>2021-08-07T13:46:52Z</time>
      </trkpt>
      <trkpt lat="50.54005" lon="2.98321">
        <ele>18.4</ele>
        <time>2021-08-07T13:46:59Z</time>
      </trkpt>
      <trkpt lat="50.54006" lon="2.98327">
        <ele>18.4</ele>
        <time>2021-08-07T13:47:00Z</time>
      </trkpt>
      <trkpt lat="50.54007" lon="2.98333">
        <ele>18.4</ele>
        <time>2021-08-07T13:47:01Z</time>
      </trkpt>
      <trkpt lat="50.54007" lon="2.9834">
        <ele>18.4</ele>
        <time>2021-08-07T13:47:02Z</time>
      </trkpt>
      <trkpt lat="50.54012" lon="2.9838">
        <ele>18.4</ele>
        <time>2021-08-07T13:47:09Z</time>
      </trkpt>
      <trkpt lat="50.54012" lon="2.9841">
        <ele>18.4</ele>
        <time>2021-08-07T13:47:15Z</time>
      </trkpt>
      <trkpt lat="50.54013" lon="2.98429">
        <ele>18.4</ele>
        <time>2021-08-07T13:47:21Z</time>
      </trkpt>
      <trkpt lat="50.54011" lon="2.98431">
        <ele>18.4</ele>
        <time>2021-08-07T13:47:22Z</time>
      </trkpt>
      <trkpt lat="50.5401" lon="2.98432">
        <ele>18.4</ele>
        <time>2021-08-07T13:47:23Z</time>
      </trkpt>
      <trkpt lat="50.54008" lon="2.98433">
        <ele>18.4</ele>
        <time>2021-08-07T13:47:24Z</time>
      </trkpt>
      <trkpt lat="50.54005" lon="2.98434">
        <ele>18.4</ele>
        <time>2021-08-07T13:47:25Z</time>
      </trkpt>
      <trkpt lat="50.54002" lon="2.98437">
        <ele>18.4</ele>
        <time>2021-08-07T13:47:26Z</time>
      </trkpt>
      <trkpt lat="50.54" lon="2.98441">
        <ele>18.4</ele>
        <time>2021-08-07T13:47:27Z</time>
      </trkpt>
      <trkpt lat="50.53999" lon="2.98446">
        <ele>18.4</ele>
        <time>2021-08-07T13:47:28Z</time>
      </trkpt>
      <trkpt lat="50.53998" lon="2.9845">
        <ele>18.4</ele>
        <time>2021-08-07T13:47:29Z</time>
      </trkpt>
      <trkpt lat="50.53998" lon="2.98456">
        <ele>18.4</ele>
        <time>2021-08-07T13:47:30Z</time>
      </trkpt>
      <trkpt lat="50.53997" lon="2.98511">
        <ele>18.4</ele>
        <time>2021-08-07T13:47:39Z</time>
      </trkpt>
      <trkpt lat="50.53996" lon="2.98579">
        <ele>18.88</ele>
        <time>2021-08-07T13:47:49Z</time>
      </trkpt>
      <trkpt lat="50.53995" lon="2.98649">
        <ele>18.88</ele>
        <time>2021-08-07T13:47:59Z</time>
      </trkpt>
      <trkpt lat="50.5399" lon="2.98717">
        <ele>19.84</ele>
        <time>2021-08-07T13:48:09Z</time>
      </trkpt>
      <trkpt lat="50.5399" lon="2.9872">
        <ele>19.84</ele>
        <time>2021-08-07T13:48:10Z</time>
      </trkpt>
      <trkpt lat="50.53992" lon="2.98739">
        <ele>19.84</ele>
        <time>2021-08-07T13:48:16Z</time>
      </trkpt>
      <trkpt lat="50.53993" lon="2.98785">
        <ele>20.32</ele>
        <time>2021-08-07T13:48:24Z</time>
      </trkpt>
      <trkpt lat="50.53999" lon="2.98849">
        <ele>20.32</ele>
        <time>2021-08-07T13:48:33Z</time>
      </trkpt>
      <trkpt lat="50.54005" lon="2.98909">
        <ele>20.32</ele>
        <time>2021-08-07T13:48:41Z</time>
      </trkpt>
      <trkpt lat="50.54007" lon="2.98916">
        <ele>20.32</ele>
        <time>2021-08-07T13:48:42Z</time>
      </trkpt>
      <trkpt lat="50.54009" lon="2.98922">
        <ele>20.32</ele>
        <time>2021-08-07T13:48:43Z</time>
      </trkpt>
      <trkpt lat="50.5401" lon="2.98929">
        <ele>20.32</ele>
        <time>2021-08-07T13:48:44Z</time>
      </trkpt>
      <trkpt lat="50.54012" lon="2.98937">
        <ele>20.32</ele>
        <time>2021-08-07T13:48:45Z</time>
      </trkpt>
      <trkpt lat="50.54013" lon="2.98944">
        <ele>20.32</ele>
        <time>2021-08-07T13:48:46Z</time>
      </trkpt>
      <trkpt lat="50.54015" lon="2.98958">
        <ele>20.32</ele>
        <time>2021-08-07T13:48:48Z</time>
      </trkpt>
      <trkpt lat="50.54016" lon="2.98966">
        <ele>20.32</ele>
        <time>2021-08-07T13:48:49Z</time>
      </trkpt>
      <trkpt lat="50.54016" lon="2.98973">
        <ele>20.32</ele>
        <time>2021-08-07T13:48:50Z</time>
      </trkpt>
      <trkpt lat="50.54017" lon="2.98981">
        <ele>20.32</ele>
        <time>2021-08-07T13:48:51Z</time>
      </trkpt>
      <trkpt lat="50.54019" lon="2.98988">
        <ele>20.32</ele>
        <time>2021-08-07T13:48:52Z</time>
      </trkpt>
      <trkpt lat="50.5402" lon="2.98995">
        <ele>20.32</ele>
        <time>2021-08-07T13:48:53Z</time>
      </trkpt>
      <trkpt lat="50.54032" lon="2.99047">
        <ele>19.36</ele>
        <time>2021-08-07T13:49:00Z</time>
      </trkpt>
      <trkpt lat="50.54033" lon="2.99055">
        <ele>19.36</ele>
        <time>2021-08-07T13:49:01Z</time>
      </trkpt>
      <trkpt lat="50.54034" lon="2.99062">
        <ele>19.36</ele>
        <time>2021-08-07T13:49:02Z</time>
      </trkpt>
      <trkpt lat="50.54052" lon="2.99103">
        <ele>18.88</ele>
        <time>2021-08-07T13:49:09Z</time>
      </trkpt>
      <trkpt lat="50.54054" lon="2.99109">
        <ele>18.88</ele>
        <time>2021-08-07T13:49:10Z</time>
      </trkpt>
      <trkpt lat="50.54057" lon="2.99114">
        <ele>18.88</ele>
        <time>2021-08-07T13:49:11Z</time>
      </trkpt>
      <trkpt lat="50.54061" lon="2.99119">
        <ele>18.88</ele>
        <time>2021-08-07T13:49:12Z</time>
      </trkpt>
      <trkpt lat="50.54064" lon="2.99125">
        <ele>18.88</ele>
        <time>2021-08-07T13:49:13Z</time>
      </trkpt>
      <trkpt lat="50.54067" lon="2.99133">
        <ele>18.88</ele>
        <time>2021-08-07T13:49:14Z</time>
      </trkpt>
      <trkpt lat="50.54068" lon="2.99139">
        <ele>18.4</ele>
        <time>2021-08-07T13:49:15Z</time>
      </trkpt>
      <trkpt lat="50.54069" lon="2.99147">
        <ele>18.4</ele>
        <time>2021-08-07T13:49:16Z</time>
      </trkpt>
      <trkpt lat="50.5407" lon="2.99154">
        <ele>18.4</ele>
        <time>2021-08-07T13:49:17Z</time>
      </trkpt>
      <trkpt lat="50.54071" lon="2.99162">
        <ele>18.4</ele>
        <time>2021-08-07T13:49:18Z</time>
      </trkpt>
      <trkpt lat="50.54077" lon="2.99227">
        <ele>18.88</ele>
        <time>2021-08-07T13:49:26Z</time>
      </trkpt>
      <trkpt lat="50.54079" lon="2.99265">
        <ele>18.88</ele>
        <time>2021-08-07T13:49:31Z</time>
      </trkpt>
      <trkpt lat="50.5408" lon="2.99272">
        <ele>18.88</ele>
        <time>2021-08-07T13:49:32Z</time>
      </trkpt>
      <trkpt lat="50.54081" lon="2.99288">
        <ele>18.88</ele>
        <time>2021-08-07T13:49:34Z</time>
      </trkpt>
      <trkpt lat="50.54087" lon="2.9934">
        <ele>18.88</ele>
        <time>2021-08-07T13:49:41Z</time>
      </trkpt>
      <trkpt lat="50.54089" lon="2.99354">
        <ele>18.88</ele>
        <time>2021-08-07T13:49:43Z</time>
      </trkpt>
      <trkpt lat="50.54091" lon="2.99391">
        <ele>18.88</ele>
        <time>2021-08-07T13:49:48Z</time>
      </trkpt>
      <trkpt lat="50.54091" lon="2.99398">
        <ele>18.88</ele>
        <time>2021-08-07T13:49:49Z</time>
      </trkpt>
      <trkpt lat="50.54093" lon="2.99487">
        <ele>18.88</ele>
        <time>2021-08-07T13:50:01Z</time>
      </trkpt>
      <trkpt lat="50.54092" lon="2.99531">
        <ele>18.88</ele>
        <time>2021-08-07T13:50:07Z</time>
      </trkpt>
      <trkpt lat="50.54091" lon="2.99538">
        <ele>18.88</ele>
        <time>2021-08-07T13:50:08Z</time>
      </trkpt>
      <trkpt lat="50.54087" lon="2.9959">
        <ele>18.88</ele>
        <time>2021-08-07T13:50:15Z</time>
      </trkpt>
      <trkpt lat="50.54084" lon="2.9962">
        <ele>18.88</ele>
        <time>2021-08-07T13:50:19Z</time>
      </trkpt>
      <trkpt lat="50.54083" lon="2.99635">
        <ele>18.88</ele>
        <time>2021-08-07T13:50:21Z</time>
      </trkpt>
      <trkpt lat="50.54082" lon="2.99642">
        <ele>18.88</ele>
        <time>2021-08-07T13:50:22Z</time>
      </trkpt>
      <trkpt lat="50.54075" lon="2.99717">
        <ele>18.4</ele>
        <time>2021-08-07T13:50:32Z</time>
      </trkpt>
      <trkpt lat="50.54069" lon="2.99797">
        <ele>18.4</ele>
        <time>2021-08-07T13:50:43Z</time>
      </trkpt>
      <trkpt lat="50.54069" lon="2.9981">
        <ele>18.4</ele>
        <time>2021-08-07T13:50:45Z</time>
      </trkpt>
      <trkpt lat="50.54069" lon="2.99817">
        <ele>18.4</ele>
        <time>2021-08-07T13:50:46Z</time>
      </trkpt>
      <trkpt lat="50.54071" lon="2.9983">
        <ele>19.84</ele>
        <time>2021-08-07T13:50:48Z</time>
      </trkpt>
      <trkpt lat="50.54071" lon="2.99836">
        <ele>19.84</ele>
        <time>2021-08-07T13:50:49Z</time>
      </trkpt>
      <trkpt lat="50.5407" lon="2.99843">
        <ele>19.84</ele>
        <time>2021-08-07T13:50:50Z</time>
      </trkpt>
      <trkpt lat="50.54066" lon="2.999">
        <ele>19.84</ele>
        <time>2021-08-07T13:50:59Z</time>
      </trkpt>
      <trkpt lat="50.5406" lon="2.99966">
        <ele>19.84</ele>
        <time>2021-08-07T13:51:09Z</time>
      </trkpt>
      <trkpt lat="50.54055" lon="3.00022">
        <ele>19.84</ele>
        <time>2021-08-07T13:51:18Z</time>
      </trkpt>
      <trkpt lat="50.5405" lon="3.00078">
        <ele>19.84</ele>
        <time>2021-08-07T13:51:27Z</time>
      </trkpt>
      <trkpt lat="50.54049" lon="3.00091">
        <ele>19.84</ele>
        <time>2021-08-07T13:51:29Z</time>
      </trkpt>
      <trkpt lat="50.54046" lon="3.00128">
        <ele>20.32</ele>
        <time>2021-08-07T13:51:35Z</time>
      </trkpt>
      <trkpt lat="50.54045" lon="3.00134">
        <ele>20.32</ele>
        <time>2021-08-07T13:51:36Z</time>
      </trkpt>
      <trkpt lat="50.54044" lon="3.00141">
        <ele>20.32</ele>
        <time>2021-08-07T13:51:37Z</time>
      </trkpt>
      <trkpt lat="50.54044" lon="3.00147">
        <ele>20.32</ele>
        <time>2021-08-07T13:51:38Z</time>
      </trkpt>
      <trkpt lat="50.54043" lon="3.00153">
        <ele>20.32</ele>
        <time>2021-08-07T13:51:39Z</time>
      </trkpt>
      <trkpt lat="50.54038" lon="3.00215">
        <ele>20.32</ele>
        <time>2021-08-07T13:51:49Z</time>
      </trkpt>
      <trkpt lat="50.54034" lon="3.00262">
        <ele>20.32</ele>
        <time>2021-08-07T13:51:57Z</time>
      </trkpt>
      <trkpt lat="50.54027" lon="3.00334">
        <ele>20.32</ele>
        <time>2021-08-07T13:52:09Z</time>
      </trkpt>
      <trkpt lat="50.54022" lon="3.00389">
        <ele>20.32</ele>
        <time>2021-08-07T13:52:18Z</time>
      </trkpt>
      <trkpt lat="50.54017" lon="3.00448">
        <ele>20.32</ele>
        <time>2021-08-07T13:52:28Z</time>
      </trkpt>
      <trkpt lat="50.54011" lon="3.00506">
        <ele>20.32</ele>
        <time>2021-08-07T13:52:38Z</time>
      </trkpt>
      <trkpt lat="50.54005" lon="3.00581">
        <ele>20.32</ele>
        <time>2021-08-07T13:52:51Z</time>
      </trkpt>
      <trkpt lat="50.54" lon="3.00638">
        <ele>20.32</ele>
        <time>2021-08-07T13:53:01Z</time>
      </trkpt>
      <trkpt lat="50.53995" lon="3.00697">
        <ele>20.32</ele>
        <time>2021-08-07T13:53:11Z</time>
      </trkpt>
      <trkpt lat="50.5399" lon="3.00743">
        <ele>20.32</ele>
        <time>2021-08-07T13:53:19Z</time>
      </trkpt>
      <trkpt lat="50.53985" lon="3.00787">
        <ele>20.32</ele>
        <time>2021-08-07T13:53:27Z</time>
      </trkpt>
      <trkpt lat="50.53984" lon="3.00804">
        <ele>20.32</ele>
        <time>2021-08-07T13:53:31Z</time>
      </trkpt>
      <trkpt lat="50.53984" lon="3.00808">
        <ele>20.32</ele>
        <time>2021-08-07T13:53:32Z</time>
      </trkpt>
      <trkpt lat="50.53985" lon="3.00811">
        <ele>20.32</ele>
        <time>2021-08-07T13:53:33Z</time>
      </trkpt>
      <trkpt lat="50.53985" lon="3.00815">
        <ele>20.32</ele>
        <time>2021-08-07T13:53:34Z</time>
      </trkpt>
      <trkpt lat="50.53984" lon="3.00818">
        <ele>20.32</ele>
        <time>2021-08-07T13:53:35Z</time>
      </trkpt>
      <trkpt lat="50.53983" lon="3.00823">
        <ele>20.32</ele>
        <time>2021-08-07T13:53:36Z</time>
      </trkpt>
      <trkpt lat="50.53981" lon="3.00856">
        <ele>20.32</ele>
        <time>2021-08-07T13:53:42Z</time>
      </trkpt>
      <trkpt lat="50.53977" lon="3.00904">
        <ele>20.32</ele>
        <time>2021-08-07T13:53:50Z</time>
      </trkpt>
      <trkpt lat="50.53973" lon="3.0096">
        <ele>20.81</ele>
        <time>2021-08-07T13:53:59Z</time>
      </trkpt>
      <trkpt lat="50.53971" lon="3.00992">
        <ele>20.81</ele>
        <time>2021-08-07T13:54:04Z</time>
      </trkpt>
      <trkpt lat="50.53967" lon="3.01024">
        <ele>20.81</ele>
        <time>2021-08-07T13:54:09Z</time>
      </trkpt>
      <trkpt lat="50.53967" lon="3.0103">
        <ele>20.81</ele>
        <time>2021-08-07T13:54:10Z</time>
      </trkpt>
      <trkpt lat="50.53961" lon="3.01085">
        <ele>20.81</ele>
        <time>2021-08-07T13:54:19Z</time>
      </trkpt>
      <trkpt lat="50.53955" lon="3.01144">
        <ele>20.81</ele>
        <time>2021-08-07T13:54:29Z</time>
      </trkpt>
      <trkpt lat="50.53952" lon="3.01175">
        <ele>20.81</ele>
        <time>2021-08-07T13:54:34Z</time>
      </trkpt>
      <trkpt lat="50.53948" lon="3.01225">
        <ele>20.81</ele>
        <time>2021-08-07T13:54:42Z</time>
      </trkpt>
      <trkpt lat="50.53947" lon="3.01232">
        <ele>20.81</ele>
        <time>2021-08-07T13:54:43Z</time>
      </trkpt>
      <trkpt lat="50.53947" lon="3.01238">
        <ele>20.81</ele>
        <time>2021-08-07T13:54:44Z</time>
      </trkpt>
      <trkpt lat="50.53944" lon="3.01276">
        <ele>20.81</ele>
        <time>2021-08-07T13:54:50Z</time>
      </trkpt>
      <trkpt lat="50.53944" lon="3.01282">
        <ele>20.81</ele>
        <time>2021-08-07T13:54:51Z</time>
      </trkpt>
      <trkpt lat="50.53938" lon="3.01345">
        <ele>21.29</ele>
        <time>2021-08-07T13:55:01Z</time>
      </trkpt>
      <trkpt lat="50.53932" lon="3.01413">
        <ele>21.29</ele>
        <time>2021-08-07T13:55:12Z</time>
      </trkpt>
      <trkpt lat="50.53927" lon="3.01475">
        <ele>21.29</ele>
        <time>2021-08-07T13:55:22Z</time>
      </trkpt>
      <trkpt lat="50.53922" lon="3.01536">
        <ele>21.29</ele>
        <time>2021-08-07T13:55:32Z</time>
      </trkpt>
      <trkpt lat="50.53918" lon="3.01591">
        <ele>21.29</ele>
        <time>2021-08-07T13:55:41Z</time>
      </trkpt>
      <trkpt lat="50.53911" lon="3.01656">
        <ele>21.29</ele>
        <time>2021-08-07T13:55:51Z</time>
      </trkpt>
      <trkpt lat="50.53905" lon="3.0172">
        <ele>21.77</ele>
        <time>2021-08-07T13:56:01Z</time>
      </trkpt>
      <trkpt lat="50.53901" lon="3.01762">
        <ele>21.77</ele>
        <time>2021-08-07T13:56:08Z</time>
      </trkpt>
      <trkpt lat="50.53899" lon="3.01804">
        <ele>21.77</ele>
        <time>2021-08-07T13:56:15Z</time>
      </trkpt>
      <trkpt lat="50.53896" lon="3.01826">
        <ele>21.77</ele>
        <time>2021-08-07T13:56:19Z</time>
      </trkpt>
      <trkpt lat="50.53896" lon="3.01833">
        <ele>21.77</ele>
        <time>2021-08-07T13:56:20Z</time>
      </trkpt>
      <trkpt lat="50.53895" lon="3.01838">
        <ele>21.77</ele>
        <time>2021-08-07T13:56:21Z</time>
      </trkpt>
      <trkpt lat="50.53894" lon="3.01844">
        <ele>22.25</ele>
        <time>2021-08-07T13:56:22Z</time>
      </trkpt>
      <trkpt lat="50.53893" lon="3.01849">
        <ele>22.25</ele>
        <time>2021-08-07T13:56:23Z</time>
      </trkpt>
      <trkpt lat="50.53891" lon="3.01855">
        <ele>22.25</ele>
        <time>2021-08-07T13:56:25Z</time>
      </trkpt>
      <trkpt lat="50.53889" lon="3.01857">
        <ele>22.25</ele>
        <time>2021-08-07T13:56:26Z</time>
      </trkpt>
      <trkpt lat="50.53888" lon="3.01859">
        <ele>22.25</ele>
        <time>2021-08-07T13:56:27Z</time>
      </trkpt>
      <trkpt lat="50.53887" lon="3.01862">
        <ele>22.73</ele>
        <time>2021-08-07T13:56:28Z</time>
      </trkpt>
      <trkpt lat="50.53886" lon="3.01866">
        <ele>22.73</ele>
        <time>2021-08-07T13:56:29Z</time>
      </trkpt>
      <trkpt lat="50.53884" lon="3.0187">
        <ele>22.73</ele>
        <time>2021-08-07T13:56:30Z</time>
      </trkpt>
      <trkpt lat="50.53883" lon="3.01875">
        <ele>22.73</ele>
        <time>2021-08-07T13:56:31Z</time>
      </trkpt>
      <trkpt lat="50.53868" lon="3.01915">
        <ele>22.73</ele>
        <time>2021-08-07T13:56:39Z</time>
      </trkpt>
      <trkpt lat="50.53864" lon="3.01932">
        <ele>23.21</ele>
        <time>2021-08-07T13:56:42Z</time>
      </trkpt>
      <trkpt lat="50.53864" lon="3.01937">
        <ele>23.21</ele>
        <time>2021-08-07T13:56:43Z</time>
      </trkpt>
      <trkpt lat="50.53865" lon="3.01943">
        <ele>23.21</ele>
        <time>2021-08-07T13:56:44Z</time>
      </trkpt>
      <trkpt lat="50.53867" lon="3.01949">
        <ele>23.21</ele>
        <time>2021-08-07T13:56:45Z</time>
      </trkpt>
      <trkpt lat="50.53869" lon="3.01954">
        <ele>23.21</ele>
        <time>2021-08-07T13:56:46Z</time>
      </trkpt>
      <trkpt lat="50.53872" lon="3.01958">
        <ele>23.21</ele>
        <time>2021-08-07T13:56:47Z</time>
      </trkpt>
      <trkpt lat="50.53875" lon="3.01962">
        <ele>23.21</ele>
        <time>2021-08-07T13:56:48Z</time>
      </trkpt>
      <trkpt lat="50.53878" lon="3.01966">
        <ele>23.21</ele>
        <time>2021-08-07T13:56:49Z</time>
      </trkpt>
      <trkpt lat="50.53882" lon="3.01969">
        <ele>23.21</ele>
        <time>2021-08-07T13:56:50Z</time>
      </trkpt>
      <trkpt lat="50.53885" lon="3.01972">
        <ele>23.21</ele>
        <time>2021-08-07T13:56:51Z</time>
      </trkpt>
      <trkpt lat="50.53889" lon="3.01976">
        <ele>23.21</ele>
        <time>2021-08-07T13:56:52Z</time>
      </trkpt>
      <trkpt lat="50.53925" lon="3.02009">
        <ele>23.21</ele>
        <time>2021-08-07T13:57:01Z</time>
      </trkpt>
      <trkpt lat="50.53929" lon="3.02014">
        <ele>21.77</ele>
        <time>2021-08-07T13:57:02Z</time>
      </trkpt>
      <trkpt lat="50.53968" lon="3.02068">
        <ele>23.69</ele>
        <time>2021-08-07T13:57:12Z</time>
      </trkpt>
      <trkpt lat="50.54004" lon="3.02121">
        <ele>23.69</ele>
        <time>2021-08-07T13:57:21Z</time>
      </trkpt>
      <trkpt lat="50.54038" lon="3.02161">
        <ele>24.17</ele>
        <time>2021-08-07T13:57:29Z</time>
      </trkpt>
      <trkpt lat="50.54052" lon="3.02175">
        <ele>24.17</ele>
        <time>2021-08-07T13:57:32Z</time>
      </trkpt>
      <trkpt lat="50.54057" lon="3.02178">
        <ele>24.17</ele>
        <time>2021-08-07T13:57:33Z</time>
      </trkpt>
      <trkpt lat="50.54091" lon="3.02197">
        <ele>24.17</ele>
        <time>2021-08-07T13:57:40Z</time>
      </trkpt>
      <trkpt lat="50.54093" lon="3.02203">
        <ele>24.17</ele>
        <time>2021-08-07T13:57:41Z</time>
      </trkpt>
      <trkpt lat="50.54093" lon="3.0221">
        <ele>24.17</ele>
        <time>2021-08-07T13:57:42Z</time>
      </trkpt>
      <trkpt lat="50.54091" lon="3.02217">
        <ele>24.17</ele>
        <time>2021-08-07T13:57:43Z</time>
      </trkpt>
      <trkpt lat="50.54089" lon="3.02222">
        <ele>24.17</ele>
        <time>2021-08-07T13:57:44Z</time>
      </trkpt>
      <trkpt lat="50.54086" lon="3.02227">
        <ele>24.17</ele>
        <time>2021-08-07T13:57:45Z</time>
      </trkpt>
      <trkpt lat="50.54083" lon="3.02233">
        <ele>24.17</ele>
        <time>2021-08-07T13:57:46Z</time>
      </trkpt>
      <trkpt lat="50.54057" lon="3.02283">
        <ele>24.17</ele>
        <time>2021-08-07T13:57:54Z</time>
      </trkpt>
      <trkpt lat="50.54034" lon="3.0233">
        <ele>24.17</ele>
        <time>2021-08-07T13:58:01Z</time>
      </trkpt>
      <trkpt lat="50.54023" lon="3.02368">
        <ele>24.17</ele>
        <time>2021-08-07T13:58:06Z</time>
      </trkpt>
      <trkpt lat="50.5402" lon="3.02385">
        <ele>24.17</ele>
        <time>2021-08-07T13:58:08Z</time>
      </trkpt>
      <trkpt lat="50.5402" lon="3.02393">
        <ele>24.17</ele>
        <time>2021-08-07T13:58:09Z</time>
      </trkpt>
      <trkpt lat="50.54021" lon="3.02471">
        <ele>24.17</ele>
        <time>2021-08-07T13:58:18Z</time>
      </trkpt>
      <trkpt lat="50.54026" lon="3.02559">
        <ele>24.17</ele>
        <time>2021-08-07T13:58:28Z</time>
      </trkpt>
      <trkpt lat="50.54033" lon="3.02633">
        <ele>24.65</ele>
        <time>2021-08-07T13:58:37Z</time>
      </trkpt>
      <trkpt lat="50.54046" lon="3.02679">
        <ele>25.13</ele>
        <time>2021-08-07T13:58:43Z</time>
      </trkpt>
      <trkpt lat="50.54048" lon="3.02686">
        <ele>25.13</ele>
        <time>2021-08-07T13:58:44Z</time>
      </trkpt>
      <trkpt lat="50.54053" lon="3.02698">
        <ele>25.13</ele>
        <time>2021-08-07T13:58:46Z</time>
      </trkpt>
      <trkpt lat="50.54058" lon="3.02711">
        <ele>25.13</ele>
        <time>2021-08-07T13:58:48Z</time>
      </trkpt>
      <trkpt lat="50.54059" lon="3.02717">
        <ele>25.13</ele>
        <time>2021-08-07T13:58:49Z</time>
      </trkpt>
      <trkpt lat="50.54058" lon="3.02724">
        <ele>25.13</ele>
        <time>2021-08-07T13:58:50Z</time>
      </trkpt>
      <trkpt lat="50.54057" lon="3.0273">
        <ele>25.13</ele>
        <time>2021-08-07T13:58:51Z</time>
      </trkpt>
      <trkpt lat="50.54055" lon="3.02738">
        <ele>25.13</ele>
        <time>2021-08-07T13:58:52Z</time>
      </trkpt>
      <trkpt lat="50.54037" lon="3.02791">
        <ele>25.13</ele>
        <time>2021-08-07T13:58:59Z</time>
      </trkpt>
      <trkpt lat="50.54025" lon="3.02817">
        <ele>25.13</ele>
        <time>2021-08-07T13:59:03Z</time>
      </trkpt>
      <trkpt lat="50.54021" lon="3.02831">
        <ele>25.13</ele>
        <time>2021-08-07T13:59:05Z</time>
      </trkpt>
      <trkpt lat="50.54017" lon="3.02837">
        <ele>25.13</ele>
        <time>2021-08-07T13:59:06Z</time>
      </trkpt>
      <trkpt lat="50.54013" lon="3.02842">
        <ele>25.13</ele>
        <time>2021-08-07T13:59:07Z</time>
      </trkpt>
      <trkpt lat="50.54002" lon="3.02867">
        <ele>25.13</ele>
        <time>2021-08-07T13:59:11Z</time>
      </trkpt>
      <trkpt lat="50.53998" lon="3.02872">
        <ele>25.61</ele>
        <time>2021-08-07T13:59:12Z</time>
      </trkpt>
      <trkpt lat="50.53993" lon="3.02876">
        <ele>25.61</ele>
        <time>2021-08-07T13:59:13Z</time>
      </trkpt>
      <trkpt lat="50.53989" lon="3.02879">
        <ele>25.61</ele>
        <time>2021-08-07T13:59:14Z</time>
      </trkpt>
      <trkpt lat="50.53984" lon="3.02882">
        <ele>25.61</ele>
        <time>2021-08-07T13:59:15Z</time>
      </trkpt>
      <trkpt lat="50.5398" lon="3.02885">
        <ele>25.61</ele>
        <time>2021-08-07T13:59:16Z</time>
      </trkpt>
      <trkpt lat="50.53975" lon="3.02887">
        <ele>25.61</ele>
        <time>2021-08-07T13:59:17Z</time>
      </trkpt>
      <trkpt lat="50.5397" lon="3.02888">
        <ele>25.61</ele>
        <time>2021-08-07T13:59:18Z</time>
      </trkpt>
      <trkpt lat="50.53965" lon="3.02888">
        <ele>25.61</ele>
        <time>2021-08-07T13:59:19Z</time>
      </trkpt>
      <trkpt lat="50.5396" lon="3.02886">
        <ele>25.61</ele>
        <time>2021-08-07T13:59:20Z</time>
      </trkpt>
      <trkpt lat="50.53954" lon="3.02884">
        <ele>25.61</ele>
        <time>2021-08-07T13:59:21Z</time>
      </trkpt>
      <trkpt lat="50.5395" lon="3.02882">
        <ele>25.61</ele>
        <time>2021-08-07T13:59:22Z</time>
      </trkpt>
      <trkpt lat="50.53946" lon="3.02878">
        <ele>25.61</ele>
        <time>2021-08-07T13:59:23Z</time>
      </trkpt>
      <trkpt lat="50.53942" lon="3.02873">
        <ele>26.09</ele>
        <time>2021-08-07T13:59:24Z</time>
      </trkpt>
      <trkpt lat="50.53938" lon="3.02868">
        <ele>26.09</ele>
        <time>2021-08-07T13:59:25Z</time>
      </trkpt>
      <trkpt lat="50.53901" lon="3.02816">
        <ele>26.09</ele>
        <time>2021-08-07T13:59:35Z</time>
      </trkpt>
      <trkpt lat="50.53866" lon="3.02786">
        <ele>26.57</ele>
        <time>2021-08-07T13:59:43Z</time>
      </trkpt>
      <trkpt lat="50.53833" lon="3.02772">
        <ele>26.57</ele>
        <time>2021-08-07T13:59:50Z</time>
      </trkpt>
      <trkpt lat="50.53829" lon="3.02771">
        <ele>27.05</ele>
        <time>2021-08-07T13:59:51Z</time>
      </trkpt>
      <trkpt lat="50.53803" lon="3.02768">
        <ele>27.53</ele>
        <time>2021-08-07T13:59:58Z</time>
      </trkpt>
      <trkpt lat="50.53776" lon="3.02769">
        <ele>28.98</ele>
        <time>2021-08-07T14:00:06Z</time>
      </trkpt>
      <trkpt lat="50.53745" lon="3.02779">
        <ele>30.42</ele>
        <time>2021-08-07T14:00:15Z</time>
      </trkpt>
      <trkpt lat="50.53716" lon="3.02792">
        <ele>31.86</ele>
        <time>2021-08-07T14:00:24Z</time>
      </trkpt>
      <trkpt lat="50.53699" lon="3.02806">
        <ele>32.34</ele>
        <time>2021-08-07T14:00:30Z</time>
      </trkpt>
      <trkpt lat="50.53697" lon="3.0281">
        <ele>32.82</ele>
        <time>2021-08-07T14:00:33Z</time>
      </trkpt>
      <trkpt lat="50.53696" lon="3.02812">
        <ele>32.82</ele>
        <time>2021-08-07T14:00:34Z</time>
      </trkpt>
      <trkpt lat="50.53695" lon="3.02815">
        <ele>32.82</ele>
        <time>2021-08-07T14:00:35Z</time>
      </trkpt>
      <trkpt lat="50.53695" lon="3.0282">
        <ele>32.82</ele>
        <time>2021-08-07T14:00:36Z</time>
      </trkpt>
      <trkpt lat="50.53696" lon="3.02825">
        <ele>32.82</ele>
        <time>2021-08-07T14:00:37Z</time>
      </trkpt>
      <trkpt lat="50.53697" lon="3.0283">
        <ele>32.82</ele>
        <time>2021-08-07T14:00:38Z</time>
      </trkpt>
      <trkpt lat="50.53699" lon="3.02835">
        <ele>32.82</ele>
        <time>2021-08-07T14:00:39Z</time>
      </trkpt>
      <trkpt lat="50.53715" lon="3.02885">
        <ele>33.3</ele>
        <time>2021-08-07T14:00:47Z</time>
      </trkpt>
      <trkpt lat="50.5374" lon="3.0297">
        <ele>34.26</ele>
        <time>2021-08-07T14:00:59Z</time>
      </trkpt>
      <trkpt lat="50.53765" lon="3.03053">
        <ele>34.26</ele>
        <time>2021-08-07T14:01:10Z</time>
      </trkpt>
      <trkpt lat="50.53781" lon="3.03108">
        <ele>34.26</ele>
        <time>2021-08-07T14:01:17Z</time>
      </trkpt>
      <trkpt lat="50.53795" lon="3.03142">
        <ele>34.26</ele>
        <time>2021-08-07T14:01:22Z</time>
      </trkpt>
      <trkpt lat="50.538" lon="3.03145">
        <ele>34.26</ele>
        <time>2021-08-07T14:01:23Z</time>
      </trkpt>
      <trkpt lat="50.53804" lon="3.03145">
        <ele>34.26</ele>
        <time>2021-08-07T14:01:24Z</time>
      </trkpt>
      <trkpt lat="50.53809" lon="3.03144">
        <ele>34.26</ele>
        <time>2021-08-07T14:01:25Z</time>
      </trkpt>
      <trkpt lat="50.53814" lon="3.0314">
        <ele>34.26</ele>
        <time>2021-08-07T14:01:26Z</time>
      </trkpt>
      <trkpt lat="50.53818" lon="3.03135">
        <ele>34.26</ele>
        <time>2021-08-07T14:01:27Z</time>
      </trkpt>
      <trkpt lat="50.53828" lon="3.03126">
        <ele>32.82</ele>
        <time>2021-08-07T14:01:29Z</time>
      </trkpt>
      <trkpt lat="50.53854" lon="3.03108">
        <ele>30.42</ele>
        <time>2021-08-07T14:01:33Z</time>
      </trkpt>
      <trkpt lat="50.53862" lon="3.03105">
        <ele>29.94</ele>
        <time>2021-08-07T14:01:34Z</time>
      </trkpt>
      <trkpt lat="50.5387" lon="3.03102">
        <ele>29.94</ele>
        <time>2021-08-07T14:01:35Z</time>
      </trkpt>
      <trkpt lat="50.53904" lon="3.03094">
        <ele>27.53</ele>
        <time>2021-08-07T14:01:39Z</time>
      </trkpt>
      <trkpt lat="50.53911" lon="3.0309">
        <ele>27.05</ele>
        <time>2021-08-07T14:01:40Z</time>
      </trkpt>
      <trkpt lat="50.53917" lon="3.03085">
        <ele>27.05</ele>
        <time>2021-08-07T14:01:41Z</time>
      </trkpt>
      <trkpt lat="50.5392" lon="3.03079">
        <ele>27.05</ele>
        <time>2021-08-07T14:01:42Z</time>
      </trkpt>
      <trkpt lat="50.53922" lon="3.03073">
        <ele>27.05</ele>
        <time>2021-08-07T14:01:43Z</time>
      </trkpt>
      <trkpt lat="50.53923" lon="3.03067">
        <ele>27.05</ele>
        <time>2021-08-07T14:01:44Z</time>
      </trkpt>
      <trkpt lat="50.53922" lon="3.03062">
        <ele>27.05</ele>
        <time>2021-08-07T14:01:45Z</time>
      </trkpt>
      <trkpt lat="50.5392" lon="3.03058">
        <ele>27.05</ele>
        <time>2021-08-07T14:01:46Z</time>
      </trkpt>
      <trkpt lat="50.53917" lon="3.03055">
        <ele>26.57</ele>
        <time>2021-08-07T14:01:47Z</time>
      </trkpt>
      <trkpt lat="50.53915" lon="3.03053">
        <ele>27.05</ele>
        <time>2021-08-07T14:01:48Z</time>
      </trkpt>
      <trkpt lat="50.53911" lon="3.03051">
        <ele>27.05</ele>
        <time>2021-08-07T14:01:49Z</time>
      </trkpt>
      <trkpt lat="50.53907" lon="3.03049">
        <ele>27.05</ele>
        <time>2021-08-07T14:01:50Z</time>
      </trkpt>
      <trkpt lat="50.53871" lon="3.03033">
        <ele>27.05</ele>
        <time>2021-08-07T14:01:58Z</time>
      </trkpt>
      <trkpt lat="50.53822" lon="3.03012">
        <ele>27.05</ele>
        <time>2021-08-07T14:02:08Z</time>
      </trkpt>
      <trkpt lat="50.53782" lon="3.02992">
        <ele>27.05</ele>
        <time>2021-08-07T14:02:16Z</time>
      </trkpt>
      <trkpt lat="50.53742" lon="3.02982">
        <ele>26.57</ele>
        <time>2021-08-07T14:02:23Z</time>
      </trkpt>
      <trkpt lat="50.53706" lon="3.02992">
        <ele>26.57</ele>
        <time>2021-08-07T14:02:29Z</time>
      </trkpt>
      <trkpt lat="50.53696" lon="3.02998">
        <ele>26.57</ele>
        <time>2021-08-07T14:02:31Z</time>
      </trkpt>
      <trkpt lat="50.53672" lon="3.03022">
        <ele>26.57</ele>
        <time>2021-08-07T14:02:36Z</time>
      </trkpt>
      <trkpt lat="50.53667" lon="3.03028">
        <ele>26.57</ele>
        <time>2021-08-07T14:02:37Z</time>
      </trkpt>
      <trkpt lat="50.53659" lon="3.0304">
        <ele>26.57</ele>
        <time>2021-08-07T14:02:39Z</time>
      </trkpt>
      <trkpt lat="50.5362" lon="3.03074">
        <ele>26.57</ele>
        <time>2021-08-07T14:02:47Z</time>
      </trkpt>
      <trkpt lat="50.53572" lon="3.03112">
        <ele>28.02</ele>
        <time>2021-08-07T14:02:57Z</time>
      </trkpt>
      <trkpt lat="50.53525" lon="3.03147">
        <ele>28.5</ele>
        <time>2021-08-07T14:03:07Z</time>
      </trkpt>
      <trkpt lat="50.53475" lon="3.03174">
        <ele>28.98</ele>
        <time>2021-08-07T14:03:17Z</time>
      </trkpt>
      <trkpt lat="50.53422" lon="3.03207">
        <ele>29.94</ele>
        <time>2021-08-07T14:03:28Z</time>
      </trkpt>
      <trkpt lat="50.53413" lon="3.03212">
        <ele>29.94</ele>
        <time>2021-08-07T14:03:30Z</time>
      </trkpt>
      <trkpt lat="50.53408" lon="3.03213">
        <ele>29.94</ele>
        <time>2021-08-07T14:03:31Z</time>
      </trkpt>
      <trkpt lat="50.53403" lon="3.03214">
        <ele>29.94</ele>
        <time>2021-08-07T14:03:32Z</time>
      </trkpt>
      <trkpt lat="50.53357" lon="3.03213">
        <ele>30.9</ele>
        <time>2021-08-07T14:03:42Z</time>
      </trkpt>
      <trkpt lat="50.53312" lon="3.03212">
        <ele>31.86</ele>
        <time>2021-08-07T14:03:52Z</time>
      </trkpt>
      <trkpt lat="50.53308" lon="3.0321">
        <ele>31.86</ele>
        <time>2021-08-07T14:03:53Z</time>
      </trkpt>
      <trkpt lat="50.53304" lon="3.03208">
        <ele>31.86</ele>
        <time>2021-08-07T14:03:54Z</time>
      </trkpt>
      <trkpt lat="50.533" lon="3.03205">
        <ele>31.86</ele>
        <time>2021-08-07T14:03:55Z</time>
      </trkpt>
      <trkpt lat="50.53296" lon="3.03201">
        <ele>31.86</ele>
        <time>2021-08-07T14:03:56Z</time>
      </trkpt>
      <trkpt lat="50.53293" lon="3.03197">
        <ele>31.86</ele>
        <time>2021-08-07T14:03:57Z</time>
      </trkpt>
      <trkpt lat="50.53289" lon="3.03192">
        <ele>32.34</ele>
        <time>2021-08-07T14:03:58Z</time>
      </trkpt>
      <trkpt lat="50.53267" lon="3.0317">
        <ele>32.34</ele>
        <time>2021-08-07T14:04:04Z</time>
      </trkpt>
      <trkpt lat="50.53229" lon="3.03176">
        <ele>32.34</ele>
        <time>2021-08-07T14:04:11Z</time>
      </trkpt>
      <trkpt lat="50.53182" lon="3.03188">
        <ele>32.34</ele>
        <time>2021-08-07T14:04:20Z</time>
      </trkpt>
      <trkpt lat="50.53167" lon="3.03193">
        <ele>32.34</ele>
        <time>2021-08-07T14:04:23Z</time>
      </trkpt>
      <trkpt lat="50.53125" lon="3.03216">
        <ele>32.82</ele>
        <time>2021-08-07T14:04:32Z</time>
      </trkpt>
      <trkpt lat="50.53116" lon="3.03222">
        <ele>33.3</ele>
        <time>2021-08-07T14:04:34Z</time>
      </trkpt>
      <trkpt lat="50.53076" lon="3.03247">
        <ele>33.78</ele>
        <time>2021-08-07T14:04:43Z</time>
      </trkpt>
      <trkpt lat="50.5303" lon="3.03277">
        <ele>34.74</ele>
        <time>2021-08-07T14:04:54Z</time>
      </trkpt>
      <trkpt lat="50.52982" lon="3.03309">
        <ele>35.23</ele>
        <time>2021-08-07T14:05:05Z</time>
      </trkpt>
      <trkpt lat="50.52937" lon="3.03339">
        <ele>35.71</ele>
        <time>2021-08-07T14:05:15Z</time>
      </trkpt>
      <trkpt lat="50.52917" lon="3.03356">
        <ele>35.71</ele>
        <time>2021-08-07T14:05:20Z</time>
      </trkpt>
      <trkpt lat="50.52878" lon="3.0339">
        <ele>36.19</ele>
        <time>2021-08-07T14:05:30Z</time>
      </trkpt>
      <trkpt lat="50.52835" lon="3.03428">
        <ele>36.67</ele>
        <time>2021-08-07T14:05:41Z</time>
      </trkpt>
      <trkpt lat="50.52793" lon="3.03465">
        <ele>37.15</ele>
        <time>2021-08-07T14:05:52Z</time>
      </trkpt>
      <trkpt lat="50.52755" lon="3.03497">
        <ele>37.63</ele>
        <time>2021-08-07T14:06:02Z</time>
      </trkpt>
      <trkpt lat="50.52718" lon="3.03529">
        <ele>38.11</ele>
        <time>2021-08-07T14:06:12Z</time>
      </trkpt>
      <trkpt lat="50.52677" lon="3.03562">
        <ele>38.11</ele>
        <time>2021-08-07T14:06:23Z</time>
      </trkpt>
      <trkpt lat="50.52636" lon="3.03586">
        <ele>38.59</ele>
        <time>2021-08-07T14:06:34Z</time>
      </trkpt>
      <trkpt lat="50.52588" lon="3.03607">
        <ele>39.07</ele>
        <time>2021-08-07T14:06:46Z</time>
      </trkpt>
      <trkpt lat="50.52563" lon="3.03615">
        <ele>39.07</ele>
        <time>2021-08-07T14:06:52Z</time>
      </trkpt>
      <trkpt lat="50.52527" lon="3.03617">
        <ele>39.07</ele>
        <time>2021-08-07T14:07:01Z</time>
      </trkpt>
      <trkpt lat="50.52526" lon="3.03622">
        <ele>39.07</ele>
        <time>2021-08-07T14:07:02Z</time>
      </trkpt>
      <trkpt lat="50.52527" lon="3.03627">
        <ele>39.07</ele>
        <time>2021-08-07T14:07:03Z</time>
      </trkpt>
      <trkpt lat="50.52527" lon="3.03631">
        <ele>39.07</ele>
        <time>2021-08-07T14:07:04Z</time>
      </trkpt>
      <trkpt lat="50.52529" lon="3.03636">
        <ele>39.07</ele>
        <time>2021-08-07T14:07:05Z</time>
      </trkpt>
      <trkpt lat="50.52531" lon="3.03641">
        <ele>39.07</ele>
        <time>2021-08-07T14:07:06Z</time>
      </trkpt>
      <trkpt lat="50.52547" lon="3.03694">
        <ele>40.03</ele>
        <time>2021-08-07T14:07:15Z</time>
      </trkpt>
      <trkpt lat="50.52569" lon="3.03765">
        <ele>39.55</ele>
        <time>2021-08-07T14:07:26Z</time>
      </trkpt>
      <trkpt lat="50.5257" lon="3.03772">
        <ele>39.55</ele>
        <time>2021-08-07T14:07:27Z</time>
      </trkpt>
      <trkpt lat="50.52587" lon="3.03841">
        <ele>40.51</ele>
        <time>2021-08-07T14:07:38Z</time>
      </trkpt>
      <trkpt lat="50.52594" lon="3.03901">
        <ele>40.99</ele>
        <time>2021-08-07T14:07:47Z</time>
      </trkpt>
      <trkpt lat="50.52594" lon="3.03952">
        <ele>41.47</ele>
        <time>2021-08-07T14:07:55Z</time>
      </trkpt>
      <trkpt lat="50.5259" lon="3.03984">
        <ele>41.47</ele>
        <time>2021-08-07T14:08:00Z</time>
      </trkpt>
      <trkpt lat="50.52576" lon="3.04049">
        <ele>42.44</ele>
        <time>2021-08-07T14:08:11Z</time>
      </trkpt>
      <trkpt lat="50.52558" lon="3.04113">
        <ele>42.92</ele>
        <time>2021-08-07T14:08:22Z</time>
      </trkpt>
      <trkpt lat="50.52543" lon="3.04167">
        <ele>44.36</ele>
        <time>2021-08-07T14:08:32Z</time>
      </trkpt>
      <trkpt lat="50.5253" lon="3.04211">
        <ele>45.32</ele>
        <time>2021-08-07T14:08:41Z</time>
      </trkpt>
      <trkpt lat="50.52516" lon="3.04259">
        <ele>45.8</ele>
        <time>2021-08-07T14:08:50Z</time>
      </trkpt>
      <trkpt lat="50.52509" lon="3.04277">
        <ele>45.8</ele>
        <time>2021-08-07T14:08:53Z</time>
      </trkpt>
      <trkpt lat="50.52506" lon="3.04283">
        <ele>44.36</ele>
        <time>2021-08-07T14:08:54Z</time>
      </trkpt>
      <trkpt lat="50.52499" lon="3.04289">
        <ele>43.88</ele>
        <time>2021-08-07T14:08:56Z</time>
      </trkpt>
      <trkpt lat="50.52494" lon="3.04289">
        <ele>43.4</ele>
        <time>2021-08-07T14:08:57Z</time>
      </trkpt>
      <trkpt lat="50.52489" lon="3.04285">
        <ele>43.4</ele>
        <time>2021-08-07T14:08:58Z</time>
      </trkpt>
      <trkpt lat="50.52455" lon="3.04259">
        <ele>42.92</ele>
        <time>2021-08-07T14:09:05Z</time>
      </trkpt>
      <trkpt lat="50.52413" lon="3.04224">
        <ele>41.47</ele>
        <time>2021-08-07T14:09:14Z</time>
      </trkpt>
      <trkpt lat="50.52365" lon="3.04183">
        <ele>40.99</ele>
        <time>2021-08-07T14:09:24Z</time>
      </trkpt>
      <trkpt lat="50.52327" lon="3.0415">
        <ele>40.51</ele>
        <time>2021-08-07T14:09:32Z</time>
      </trkpt>
      <trkpt lat="50.52283" lon="3.04115">
        <ele>40.03</ele>
        <time>2021-08-07T14:09:41Z</time>
      </trkpt>
      <trkpt lat="50.52268" lon="3.04109">
        <ele>39.07</ele>
        <time>2021-08-07T14:09:46Z</time>
      </trkpt>
      <trkpt lat="50.52269" lon="3.04108">
        <ele>39.55</ele>
        <time>2021-08-07T14:09:57Z</time>
      </trkpt>
      <trkpt lat="50.52266" lon="3.0411">
        <ele>39.55</ele>
        <time>2021-08-07T14:10:07Z</time>
      </trkpt>
      <trkpt lat="50.52255" lon="3.04125">
        <ele>39.55</ele>
        <time>2021-08-07T14:10:12Z</time>
      </trkpt>
      <trkpt lat="50.52253" lon="3.04131">
        <ele>39.55</ele>
        <time>2021-08-07T14:10:13Z</time>
      </trkpt>
      <trkpt lat="50.5223" lon="3.04191">
        <ele>38.11</ele>
        <time>2021-08-07T14:10:22Z</time>
      </trkpt>
      <trkpt lat="50.52202" lon="3.04263">
        <ele>37.15</ele>
        <time>2021-08-07T14:10:32Z</time>
      </trkpt>
      <trkpt lat="50.52175" lon="3.04338">
        <ele>36.67</ele>
        <time>2021-08-07T14:10:43Z</time>
      </trkpt>
      <trkpt lat="50.52159" lon="3.04382">
        <ele>36.67</ele>
        <time>2021-08-07T14:10:51Z</time>
      </trkpt>
      <trkpt lat="50.52157" lon="3.04389">
        <ele>36.67</ele>
        <time>2021-08-07T14:10:52Z</time>
      </trkpt>
      <trkpt lat="50.52153" lon="3.044">
        <ele>36.67</ele>
        <time>2021-08-07T14:10:54Z</time>
      </trkpt>
      <trkpt lat="50.52151" lon="3.04406">
        <ele>36.67</ele>
        <time>2021-08-07T14:10:55Z</time>
      </trkpt>
      <trkpt lat="50.5215" lon="3.04412">
        <ele>36.67</ele>
        <time>2021-08-07T14:10:56Z</time>
      </trkpt>
      <trkpt lat="50.52148" lon="3.04416">
        <ele>36.67</ele>
        <time>2021-08-07T14:10:57Z</time>
      </trkpt>
      <trkpt lat="50.52144" lon="3.04418">
        <ele>36.67</ele>
        <time>2021-08-07T14:10:58Z</time>
      </trkpt>
      <trkpt lat="50.52141" lon="3.04419">
        <ele>36.67</ele>
        <time>2021-08-07T14:10:59Z</time>
      </trkpt>
      <trkpt lat="50.52138" lon="3.04419">
        <ele>36.67</ele>
        <time>2021-08-07T14:11:00Z</time>
      </trkpt>
      <trkpt lat="50.52135" lon="3.0442">
        <ele>36.67</ele>
        <time>2021-08-07T14:11:01Z</time>
      </trkpt>
      <trkpt lat="50.52133" lon="3.0442">
        <ele>36.67</ele>
        <time>2021-08-07T14:11:02Z</time>
      </trkpt>
      <trkpt lat="50.52131" lon="3.04419">
        <ele>36.67</ele>
        <time>2021-08-07T14:11:03Z</time>
      </trkpt>
      <trkpt lat="50.52129" lon="3.04418">
        <ele>36.67</ele>
        <time>2021-08-07T14:11:04Z</time>
      </trkpt>
      <trkpt lat="50.52111" lon="3.04401">
        <ele>36.67</ele>
        <time>2021-08-07T14:11:13Z</time>
      </trkpt>
      <trkpt lat="50.52106" lon="3.04396">
        <ele>36.67</ele>
        <time>2021-08-07T14:11:15Z</time>
      </trkpt>
      <trkpt lat="50.52104" lon="3.04397">
        <ele>36.67</ele>
        <time>2021-08-07T14:11:16Z</time>
      </trkpt>
      <trkpt lat="50.52101" lon="3.04411">
        <ele>36.67</ele>
        <time>2021-08-07T14:11:20Z</time>
      </trkpt>
      <trkpt lat="50.521" lon="3.04415">
        <ele>36.67</ele>
        <time>2021-08-07T14:11:21Z</time>
      </trkpt>
      <trkpt lat="50.52099" lon="3.04419">
        <ele>36.67</ele>
        <time>2021-08-07T14:11:22Z</time>
      </trkpt>
      <trkpt lat="50.52097" lon="3.04424">
        <ele>36.67</ele>
        <time>2021-08-07T14:11:23Z</time>
      </trkpt>
      <trkpt lat="50.52094" lon="3.04427">
        <ele>36.67</ele>
        <time>2021-08-07T14:11:24Z</time>
      </trkpt>
      <trkpt lat="50.52092" lon="3.0443">
        <ele>36.67</ele>
        <time>2021-08-07T14:11:25Z</time>
      </trkpt>
      <trkpt lat="50.52089" lon="3.04433">
        <ele>36.67</ele>
        <time>2021-08-07T14:11:26Z</time>
      </trkpt>
      <trkpt lat="50.52085" lon="3.04436">
        <ele>36.67</ele>
        <time>2021-08-07T14:11:27Z</time>
      </trkpt>
      <trkpt lat="50.52081" lon="3.04438">
        <ele>36.67</ele>
        <time>2021-08-07T14:11:28Z</time>
      </trkpt>
      <trkpt lat="50.52078" lon="3.0444">
        <ele>36.67</ele>
        <time>2021-08-07T14:11:29Z</time>
      </trkpt>
      <trkpt lat="50.52051" lon="3.04458">
        <ele>36.67</ele>
        <time>2021-08-07T14:11:36Z</time>
      </trkpt>
      <trkpt lat="50.52014" lon="3.04482">
        <ele>36.67</ele>
        <time>2021-08-07T14:11:45Z</time>
      </trkpt>
      <trkpt lat="50.51986" lon="3.04499">
        <ele>36.67</ele>
        <time>2021-08-07T14:11:52Z</time>
      </trkpt>
      <trkpt lat="50.51951" lon="3.04521">
        <ele>37.63</ele>
        <time>2021-08-07T14:12:01Z</time>
      </trkpt>
      <trkpt lat="50.51921" lon="3.04538">
        <ele>37.63</ele>
        <time>2021-08-07T14:12:08Z</time>
      </trkpt>
      <trkpt lat="50.51913" lon="3.04544">
        <ele>37.63</ele>
        <time>2021-08-07T14:12:10Z</time>
      </trkpt>
      <trkpt lat="50.51883" lon="3.04559">
        <ele>37.63</ele>
        <time>2021-08-07T14:12:17Z</time>
      </trkpt>
      <trkpt lat="50.51866" lon="3.04566">
        <ele>37.63</ele>
        <time>2021-08-07T14:12:21Z</time>
      </trkpt>
      <trkpt lat="50.51861" lon="3.0457">
        <ele>37.63</ele>
        <time>2021-08-07T14:12:22Z</time>
      </trkpt>
      <trkpt lat="50.51827" lon="3.04596">
        <ele>38.59</ele>
        <time>2021-08-07T14:12:31Z</time>
      </trkpt>
      <trkpt lat="50.51802" lon="3.0461">
        <ele>39.07</ele>
        <time>2021-08-07T14:12:38Z</time>
      </trkpt>
      <trkpt lat="50.51774" lon="3.0462">
        <ele>39.55</ele>
        <time>2021-08-07T14:12:45Z</time>
      </trkpt>
      <trkpt lat="50.5176" lon="3.04625">
        <ele>39.55</ele>
        <time>2021-08-07T14:12:48Z</time>
      </trkpt>
      <trkpt lat="50.51756" lon="3.04627">
        <ele>39.55</ele>
        <time>2021-08-07T14:12:49Z</time>
      </trkpt>
      <trkpt lat="50.5174" lon="3.04639">
        <ele>39.55</ele>
        <time>2021-08-07T14:12:53Z</time>
      </trkpt>
      <trkpt lat="50.51735" lon="3.04641">
        <ele>39.55</ele>
        <time>2021-08-07T14:12:54Z</time>
      </trkpt>
      <trkpt lat="50.51731" lon="3.04643">
        <ele>39.55</ele>
        <time>2021-08-07T14:12:55Z</time>
      </trkpt>
      <trkpt lat="50.51727" lon="3.04645">
        <ele>40.03</ele>
        <time>2021-08-07T14:12:56Z</time>
      </trkpt>
      <trkpt lat="50.51723" lon="3.04646">
        <ele>40.03</ele>
        <time>2021-08-07T14:12:57Z</time>
      </trkpt>
      <trkpt lat="50.51719" lon="3.04648">
        <ele>40.03</ele>
        <time>2021-08-07T14:12:58Z</time>
      </trkpt>
      <trkpt lat="50.51692" lon="3.04665">
        <ele>40.03</ele>
        <time>2021-08-07T14:13:05Z</time>
      </trkpt>
      <trkpt lat="50.51673" lon="3.04677">
        <ele>40.51</ele>
        <time>2021-08-07T14:13:10Z</time>
      </trkpt>
      <trkpt lat="50.51648" lon="3.04697">
        <ele>40.99</ele>
        <time>2021-08-07T14:13:17Z</time>
      </trkpt>
      <trkpt lat="50.51629" lon="3.04708">
        <ele>40.99</ele>
        <time>2021-08-07T14:13:23Z</time>
      </trkpt>
      <trkpt lat="50.5161" lon="3.04718">
        <ele>40.99</ele>
        <time>2021-08-07T14:13:29Z</time>
      </trkpt>
      <trkpt lat="50.51588" lon="3.04731">
        <ele>40.99</ele>
        <time>2021-08-07T14:13:35Z</time>
      </trkpt>
      <trkpt lat="50.51564" lon="3.04754">
        <ele>41.47</ele>
        <time>2021-08-07T14:13:42Z</time>
      </trkpt>
      <trkpt lat="50.51545" lon="3.04768">
        <ele>41.47</ele>
        <time>2021-08-07T14:13:48Z</time>
      </trkpt>
      <trkpt lat="50.51529" lon="3.04782">
        <ele>41.95</ele>
        <time>2021-08-07T14:13:54Z</time>
      </trkpt>
      <trkpt lat="50.51513" lon="3.04791">
        <ele>42.44</ele>
        <time>2021-08-07T14:13:59Z</time>
      </trkpt>
      <trkpt lat="50.51509" lon="3.04792">
        <ele>42.44</ele>
        <time>2021-08-07T14:14:00Z</time>
      </trkpt>
      <trkpt lat="50.51507" lon="3.04796">
        <ele>42.44</ele>
        <time>2021-08-07T14:14:01Z</time>
      </trkpt>
      <trkpt lat="50.51506" lon="3.04799">
        <ele>42.44</ele>
        <time>2021-08-07T14:14:02Z</time>
      </trkpt>
      <trkpt lat="50.51505" lon="3.04804">
        <ele>42.44</ele>
        <time>2021-08-07T14:14:03Z</time>
      </trkpt>
      <trkpt lat="50.51503" lon="3.04813">
        <ele>42.44</ele>
        <time>2021-08-07T14:14:05Z</time>
      </trkpt>
      <trkpt lat="50.51503" lon="3.04818">
        <ele>42.44</ele>
        <time>2021-08-07T14:14:06Z</time>
      </trkpt>
      <trkpt lat="50.51503" lon="3.04823">
        <ele>42.92</ele>
        <time>2021-08-07T14:14:07Z</time>
      </trkpt>
      <trkpt lat="50.51499" lon="3.04847">
        <ele>43.4</ele>
        <time>2021-08-07T14:14:13Z</time>
      </trkpt>
      <trkpt lat="50.51503" lon="3.04875">
        <ele>44.36</ele>
        <time>2021-08-07T14:14:20Z</time>
      </trkpt>
      <trkpt lat="50.51513" lon="3.04902">
        <ele>44.84</ele>
        <time>2021-08-07T14:14:27Z</time>
      </trkpt>
      <trkpt lat="50.51533" lon="3.04935">
        <ele>45.32</ele>
        <time>2021-08-07T14:14:36Z</time>
      </trkpt>
      <trkpt lat="50.51544" lon="3.04953">
        <ele>45.32</ele>
        <time>2021-08-07T14:14:41Z</time>
      </trkpt>
      <trkpt lat="50.51554" lon="3.04971">
        <ele>46.28</ele>
        <time>2021-08-07T14:14:47Z</time>
      </trkpt>
      <trkpt lat="50.51559" lon="3.04992">
        <ele>46.76</ele>
        <time>2021-08-07T14:14:54Z</time>
      </trkpt>
      <trkpt lat="50.51566" lon="3.05014">
        <ele>46.76</ele>
        <time>2021-08-07T14:15:01Z</time>
      </trkpt>
      <trkpt lat="50.51567" lon="3.05017">
        <ele>47.24</ele>
        <time>2021-08-07T14:15:02Z</time>
      </trkpt>
      <trkpt lat="50.51568" lon="3.0502">
        <ele>47.24</ele>
        <time>2021-08-07T14:15:03Z</time>
      </trkpt>
      <trkpt lat="50.5157" lon="3.05045">
        <ele>47.72</ele>
        <time>2021-08-07T14:15:11Z</time>
      </trkpt>
      <trkpt lat="50.51563" lon="3.0506">
        <ele>48.68</ele>
        <time>2021-08-07T14:15:17Z</time>
      </trkpt>
      <trkpt lat="50.51561" lon="3.05064">
        <ele>48.68</ele>
        <time>2021-08-07T14:15:19Z</time>
      </trkpt>
      <trkpt lat="50.5156" lon="3.05065">
        <ele>48.68</ele>
        <time>2021-08-07T14:15:20Z</time>
      </trkpt>
      <trkpt lat="50.51559" lon="3.05066">
        <ele>48.68</ele>
        <time>2021-08-07T14:15:21Z</time>
      </trkpt>
      <trkpt lat="50.51557" lon="3.05068">
        <ele>48.68</ele>
        <time>2021-08-07T14:15:22Z</time>
      </trkpt>
      <trkpt lat="50.51555" lon="3.05071">
        <ele>48.68</ele>
        <time>2021-08-07T14:15:23Z</time>
      </trkpt>
      <trkpt lat="50.51554" lon="3.05074">
        <ele>48.68</ele>
        <time>2021-08-07T14:15:24Z</time>
      </trkpt>
      <trkpt lat="50.51551" lon="3.05076">
        <ele>48.68</ele>
        <time>2021-08-07T14:15:25Z</time>
      </trkpt>
      <trkpt lat="50.51549" lon="3.05077">
        <ele>48.68</ele>
        <time>2021-08-07T14:15:26Z</time>
      </trkpt>
      <trkpt lat="50.51545" lon="3.05083">
        <ele>49.16</ele>
        <time>2021-08-07T14:15:29Z</time>
      </trkpt>
      <trkpt lat="50.51529" lon="3.0509">
        <ele>49.16</ele>
        <time>2021-08-07T14:15:36Z</time>
      </trkpt>
      <trkpt lat="50.51514" lon="3.051">
        <ele>49.65</ele>
        <time>2021-08-07T14:15:42Z</time>
      </trkpt>
      <trkpt lat="50.51493" lon="3.05109">
        <ele>50.13</ele>
        <time>2021-08-07T14:15:49Z</time>
      </trkpt>
      <trkpt lat="50.51464" lon="3.0512">
        <ele>51.09</ele>
        <time>2021-08-07T14:15:59Z</time>
      </trkpt>
      <trkpt lat="50.51444" lon="3.05124">
        <ele>52.05</ele>
        <time>2021-08-07T14:16:07Z</time>
      </trkpt>
      <trkpt lat="50.5142" lon="3.05124">
        <ele>52.05</ele>
        <time>2021-08-07T14:16:16Z</time>
      </trkpt>
      <trkpt lat="50.514" lon="3.05128">
        <ele>53.49</ele>
        <time>2021-08-07T14:16:24Z</time>
      </trkpt>
      <trkpt lat="50.51384" lon="3.05135">
        <ele>53.49</ele>
        <time>2021-08-07T14:16:31Z</time>
      </trkpt>
      <trkpt lat="50.51382" lon="3.05133">
        <ele>53.49</ele>
        <time>2021-08-07T14:16:32Z</time>
      </trkpt>
      <trkpt lat="50.51381" lon="3.05129">
        <ele>53.49</ele>
        <time>2021-08-07T14:16:33Z</time>
      </trkpt>
      <trkpt lat="50.5138" lon="3.05125">
        <ele>53.49</ele>
        <time>2021-08-07T14:16:34Z</time>
      </trkpt>
      <trkpt lat="50.5138" lon="3.05121">
        <ele>53.49</ele>
        <time>2021-08-07T14:16:35Z</time>
      </trkpt>
      <trkpt lat="50.51374" lon="3.05095">
        <ele>53.49</ele>
        <time>2021-08-07T14:16:41Z</time>
      </trkpt>
      <trkpt lat="50.51368" lon="3.05063">
        <ele>53.01</ele>
        <time>2021-08-07T14:16:49Z</time>
      </trkpt>
      <trkpt lat="50.5136" lon="3.05027">
        <ele>51.57</ele>
        <time>2021-08-07T14:16:56Z</time>
      </trkpt>
      <trkpt lat="50.51353" lon="3.04989">
        <ele>50.61</ele>
        <time>2021-08-07T14:17:03Z</time>
      </trkpt>
      <trkpt lat="50.51346" lon="3.04956">
        <ele>50.13</ele>
        <time>2021-08-07T14:17:09Z</time>
      </trkpt>
      <trkpt lat="50.51336" lon="3.0491">
        <ele>49.16</ele>
        <time>2021-08-07T14:17:16Z</time>
      </trkpt>
      <trkpt lat="50.5133" lon="3.04874">
        <ele>48.68</ele>
        <time>2021-08-07T14:17:21Z</time>
      </trkpt>
      <trkpt lat="50.51328" lon="3.04867">
        <ele>48.68</ele>
        <time>2021-08-07T14:17:22Z</time>
      </trkpt>
      <trkpt lat="50.51323" lon="3.04847">
        <ele>48.68</ele>
        <time>2021-08-07T14:17:25Z</time>
      </trkpt>
      <trkpt lat="50.51321" lon="3.0484">
        <ele>48.68</ele>
        <time>2021-08-07T14:17:26Z</time>
      </trkpt>
      <trkpt lat="50.51319" lon="3.04832">
        <ele>48.68</ele>
        <time>2021-08-07T14:17:27Z</time>
      </trkpt>
      <trkpt lat="50.51306" lon="3.04779">
        <ele>47.24</ele>
        <time>2021-08-07T14:17:35Z</time>
      </trkpt>
      <trkpt lat="50.51299" lon="3.04745">
        <ele>47.24</ele>
        <time>2021-08-07T14:17:41Z</time>
      </trkpt>
      <trkpt lat="50.5129" lon="3.04712">
        <ele>47.24</ele>
        <time>2021-08-07T14:17:47Z</time>
      </trkpt>
      <trkpt lat="50.51279" lon="3.04674">
        <ele>46.76</ele>
        <time>2021-08-07T14:17:54Z</time>
      </trkpt>
      <trkpt lat="50.51277" lon="3.04671">
        <ele>46.76</ele>
        <time>2021-08-07T14:17:55Z</time>
      </trkpt>
      <trkpt lat="50.51275" lon="3.0467">
        <ele>46.76</ele>
        <time>2021-08-07T14:17:56Z</time>
      </trkpt>
      <trkpt lat="50.51258" lon="3.04678">
        <ele>46.76</ele>
        <time>2021-08-07T14:18:02Z</time>
      </trkpt>
      <trkpt lat="50.5124" lon="3.04686">
        <ele>47.72</ele>
        <time>2021-08-07T14:18:09Z</time>
      </trkpt>
      <trkpt lat="50.51223" lon="3.04695">
        <ele>48.68</ele>
        <time>2021-08-07T14:18:16Z</time>
      </trkpt>
      <trkpt lat="50.51204" lon="3.04705">
        <ele>49.16</ele>
        <time>2021-08-07T14:18:23Z</time>
      </trkpt>
      <trkpt lat="50.51181" lon="3.04717">
        <ele>49.16</ele>
        <time>2021-08-07T14:18:31Z</time>
      </trkpt>
      <trkpt lat="50.51158" lon="3.04729">
        <ele>49.65</ele>
        <time>2021-08-07T14:18:39Z</time>
      </trkpt>
      <trkpt lat="50.51142" lon="3.04738">
        <ele>50.61</ele>
        <time>2021-08-07T14:18:45Z</time>
      </trkpt>
      <trkpt lat="50.51121" lon="3.04748">
        <ele>51.09</ele>
        <time>2021-08-07T14:18:52Z</time>
      </trkpt>
      <trkpt lat="50.51104" lon="3.04757">
        <ele>51.09</ele>
        <time>2021-08-07T14:18:58Z</time>
      </trkpt>
      <trkpt lat="50.51078" lon="3.04769">
        <ele>51.09</ele>
        <time>2021-08-07T14:19:06Z</time>
      </trkpt>
      <trkpt lat="50.51061" lon="3.04769">
        <ele>51.57</ele>
        <time>2021-08-07T14:19:12Z</time>
      </trkpt>
      <trkpt lat="50.51051" lon="3.0475">
        <ele>51.57</ele>
        <time>2021-08-07T14:19:18Z</time>
      </trkpt>
      <trkpt lat="50.51051" lon="3.04745">
        <ele>51.57</ele>
        <time>2021-08-07T14:19:19Z</time>
      </trkpt>
      <trkpt lat="50.51052" lon="3.0474">
        <ele>51.57</ele>
        <time>2021-08-07T14:19:20Z</time>
      </trkpt>
      <trkpt lat="50.51052" lon="3.04735">
        <ele>51.57</ele>
        <time>2021-08-07T14:19:21Z</time>
      </trkpt>
      <trkpt lat="50.51052" lon="3.0473">
        <ele>51.57</ele>
        <time>2021-08-07T14:19:22Z</time>
      </trkpt>
      <trkpt lat="50.51054" lon="3.047">
        <ele>51.57</ele>
        <time>2021-08-07T14:19:27Z</time>
      </trkpt>
      <trkpt lat="50.51053" lon="3.04692">
        <ele>51.57</ele>
        <time>2021-08-07T14:19:28Z</time>
      </trkpt>
      <trkpt lat="50.51052" lon="3.04685">
        <ele>51.57</ele>
        <time>2021-08-07T14:19:29Z</time>
      </trkpt>
      <trkpt lat="50.51051" lon="3.04678">
        <ele>50.61</ele>
        <time>2021-08-07T14:19:30Z</time>
      </trkpt>
      <trkpt lat="50.51049" lon="3.04672">
        <ele>50.61</ele>
        <time>2021-08-07T14:19:31Z</time>
      </trkpt>
      <trkpt lat="50.51041" lon="3.04638">
        <ele>49.65</ele>
        <time>2021-08-07T14:19:36Z</time>
      </trkpt>
      <trkpt lat="50.5104" lon="3.04631">
        <ele>49.65</ele>
        <time>2021-08-07T14:19:37Z</time>
      </trkpt>
      <trkpt lat="50.5103" lon="3.04592">
        <ele>49.65</ele>
        <time>2021-08-07T14:19:43Z</time>
      </trkpt>
      <trkpt lat="50.51019" lon="3.0454">
        <ele>48.2</ele>
        <time>2021-08-07T14:19:50Z</time>
      </trkpt>
      <trkpt lat="50.51016" lon="3.04529">
        <ele>48.2</ele>
        <time>2021-08-07T14:19:54Z</time>
      </trkpt>
      <trkpt lat="50.51016" lon="3.04527">
        <ele>48.2</ele>
        <time>2021-08-07T14:20:04Z</time>
      </trkpt>
      <trkpt lat="50.51016" lon="3.0452">
        <ele>48.2</ele>
        <time>2021-08-07T14:20:09Z</time>
      </trkpt>
      <trkpt lat="50.51016" lon="3.04518">
        <ele>48.2</ele>
        <time>2021-08-07T14:20:10Z</time>
      </trkpt>
      <trkpt lat="50.51016" lon="3.04516">
        <ele>48.2</ele>
        <time>2021-08-07T14:20:11Z</time>
      </trkpt>
      <trkpt lat="50.51014" lon="3.04513">
        <ele>48.2</ele>
        <time>2021-08-07T14:20:12Z</time>
      </trkpt>
      <trkpt lat="50.51012" lon="3.04511">
        <ele>48.2</ele>
        <time>2021-08-07T14:20:13Z</time>
      </trkpt>
      <trkpt lat="50.5101" lon="3.0451">
        <ele>48.2</ele>
        <time>2021-08-07T14:20:14Z</time>
      </trkpt>
      <trkpt lat="50.51007" lon="3.0451">
        <ele>48.2</ele>
        <time>2021-08-07T14:20:15Z</time>
      </trkpt>
      <trkpt lat="50.51004" lon="3.04511">
        <ele>48.2</ele>
        <time>2021-08-07T14:20:16Z</time>
      </trkpt>
      <trkpt lat="50.5098" lon="3.04518">
        <ele>48.2</ele>
        <time>2021-08-07T14:20:25Z</time>
      </trkpt>
      <trkpt lat="50.5098" lon="3.04518">
        <ele>48.2</ele>
        <time>2021-08-07T14:20:35Z</time>
      </trkpt>
      <trkpt lat="50.5098" lon="3.04518">
        <ele>48.2</ele>
        <time>2021-08-07T14:20:44Z</time>
      </trkpt>
      <trkpt lat="50.5098" lon="3.04517">
        <ele>48.2</ele>
        <time>2021-08-07T14:20:59Z</time>
      </trkpt>
      <trkpt lat="50.50981" lon="3.0452">
        <ele>48.68</ele>
        <time>2021-08-07T14:21:11Z</time>
      </trkpt>
      <trkpt lat="50.50982" lon="3.04521">
        <ele>48.2</ele>
        <time>2021-08-07T14:21:22Z</time>
      </trkpt>
      <trkpt lat="50.5098" lon="3.04522">
        <ele>48.2</ele>
        <time>2021-08-07T14:21:29Z</time>
      </trkpt>
      <trkpt lat="50.50969" lon="3.04524">
        <ele>48.2</ele>
        <time>2021-08-07T14:21:35Z</time>
      </trkpt>
      <trkpt lat="50.50946" lon="3.04531">
        <ele>48.2</ele>
        <time>2021-08-07T14:21:42Z</time>
      </trkpt>
      <trkpt lat="50.50934" lon="3.04546">
        <ele>48.2</ele>
        <time>2021-08-07T14:21:46Z</time>
      </trkpt>
      <trkpt lat="50.50928" lon="3.04555">
        <ele>48.2</ele>
        <time>2021-08-07T14:21:48Z</time>
      </trkpt>
      <trkpt lat="50.50911" lon="3.04585">
        <ele>48.2</ele>
        <time>2021-08-07T14:21:54Z</time>
      </trkpt>
      <trkpt lat="50.50909" lon="3.04591">
        <ele>48.2</ele>
        <time>2021-08-07T14:21:55Z</time>
      </trkpt>
      <trkpt lat="50.50883" lon="3.04641">
        <ele>48.2</ele>
        <time>2021-08-07T14:22:04Z</time>
      </trkpt>
      <trkpt lat="50.50854" lon="3.04695">
        <ele>49.16</ele>
        <time>2021-08-07T14:22:13Z</time>
      </trkpt>
      <trkpt lat="50.50829" lon="3.04742">
        <ele>49.16</ele>
        <time>2021-08-07T14:22:21Z</time>
      </trkpt>
      <trkpt lat="50.50802" lon="3.04791">
        <ele>49.16</ele>
        <time>2021-08-07T14:22:29Z</time>
      </trkpt>
      <trkpt lat="50.50768" lon="3.04853">
        <ele>49.16</ele>
        <time>2021-08-07T14:22:39Z</time>
      </trkpt>
      <trkpt lat="50.50738" lon="3.04911">
        <ele>49.16</ele>
        <time>2021-08-07T14:22:49Z</time>
      </trkpt>
      <trkpt lat="50.50711" lon="3.0496">
        <ele>49.65</ele>
        <time>2021-08-07T14:22:58Z</time>
      </trkpt>
      <trkpt lat="50.50678" lon="3.05023">
        <ele>50.61</ele>
        <time>2021-08-07T14:23:10Z</time>
      </trkpt>
      <trkpt lat="50.50655" lon="3.05066">
        <ele>51.57</ele>
        <time>2021-08-07T14:23:19Z</time>
      </trkpt>
      <trkpt lat="50.50633" lon="3.05108">
        <ele>52.53</ele>
        <time>2021-08-07T14:23:28Z</time>
      </trkpt>
      <trkpt lat="50.50616" lon="3.05139">
        <ele>53.01</ele>
        <time>2021-08-07T14:23:35Z</time>
      </trkpt>
      <trkpt lat="50.50603" lon="3.05164">
        <ele>53.01</ele>
        <time>2021-08-07T14:23:40Z</time>
      </trkpt>
      <trkpt lat="50.506" lon="3.05168">
        <ele>53.01</ele>
        <time>2021-08-07T14:23:41Z</time>
      </trkpt>
      <trkpt lat="50.50576" lon="3.05215">
        <ele>53.49</ele>
        <time>2021-08-07T14:23:50Z</time>
      </trkpt>
      <trkpt lat="50.50573" lon="3.0522">
        <ele>53.49</ele>
        <time>2021-08-07T14:23:51Z</time>
      </trkpt>
      <trkpt lat="50.50568" lon="3.05231">
        <ele>53.49</ele>
        <time>2021-08-07T14:23:53Z</time>
      </trkpt>
      <trkpt lat="50.50565" lon="3.05236">
        <ele>53.49</ele>
        <time>2021-08-07T14:23:54Z</time>
      </trkpt>
      <trkpt lat="50.50549" lon="3.05267">
        <ele>53.97</ele>
        <time>2021-08-07T14:24:00Z</time>
      </trkpt>
      <trkpt lat="50.50545" lon="3.05271">
        <ele>53.97</ele>
        <time>2021-08-07T14:24:01Z</time>
      </trkpt>
      <trkpt lat="50.50542" lon="3.05275">
        <ele>53.97</ele>
        <time>2021-08-07T14:24:02Z</time>
      </trkpt>
      <trkpt lat="50.50539" lon="3.05278">
        <ele>53.97</ele>
        <time>2021-08-07T14:24:03Z</time>
      </trkpt>
      <trkpt lat="50.50538" lon="3.05282">
        <ele>53.97</ele>
        <time>2021-08-07T14:24:04Z</time>
      </trkpt>
      <trkpt lat="50.50537" lon="3.05286">
        <ele>53.97</ele>
        <time>2021-08-07T14:24:05Z</time>
      </trkpt>
      <trkpt lat="50.50536" lon="3.05289">
        <ele>53.97</ele>
        <time>2021-08-07T14:24:06Z</time>
      </trkpt>
      <trkpt lat="50.50533" lon="3.05293">
        <ele>53.97</ele>
        <time>2021-08-07T14:24:07Z</time>
      </trkpt>
      <trkpt lat="50.50531" lon="3.05297">
        <ele>53.97</ele>
        <time>2021-08-07T14:24:08Z</time>
      </trkpt>
      <trkpt lat="50.50525" lon="3.05306">
        <ele>53.97</ele>
        <time>2021-08-07T14:24:11Z</time>
      </trkpt>
      <trkpt lat="50.50521" lon="3.05306">
        <ele>53.97</ele>
        <time>2021-08-07T14:24:12Z</time>
      </trkpt>
      <trkpt lat="50.50518" lon="3.05305">
        <ele>53.97</ele>
        <time>2021-08-07T14:24:13Z</time>
      </trkpt>
      <trkpt lat="50.50515" lon="3.05302">
        <ele>53.97</ele>
        <time>2021-08-07T14:24:14Z</time>
      </trkpt>
      <trkpt lat="50.50511" lon="3.05299">
        <ele>53.97</ele>
        <time>2021-08-07T14:24:15Z</time>
      </trkpt>
      <trkpt lat="50.50508" lon="3.05296">
        <ele>53.97</ele>
        <time>2021-08-07T14:24:16Z</time>
      </trkpt>
      <trkpt lat="50.50504" lon="3.05294">
        <ele>53.97</ele>
        <time>2021-08-07T14:24:17Z</time>
      </trkpt>
      <trkpt lat="50.50497" lon="3.05293">
        <ele>53.97</ele>
        <time>2021-08-07T14:24:19Z</time>
      </trkpt>
      <trkpt lat="50.50494" lon="3.05295">
        <ele>53.97</ele>
        <time>2021-08-07T14:24:20Z</time>
      </trkpt>
      <trkpt lat="50.50487" lon="3.05301">
        <ele>53.97</ele>
        <time>2021-08-07T14:24:25Z</time>
      </trkpt>
      <trkpt lat="50.50483" lon="3.05313">
        <ele>53.97</ele>
        <time>2021-08-07T14:24:32Z</time>
      </trkpt>
      <trkpt lat="50.50483" lon="3.05316">
        <ele>53.97</ele>
        <time>2021-08-07T14:24:33Z</time>
      </trkpt>
      <trkpt lat="50.5048" lon="3.05326">
        <ele>53.97</ele>
        <time>2021-08-07T14:24:38Z</time>
      </trkpt>
      <trkpt lat="50.50479" lon="3.05328">
        <ele>53.97</ele>
        <time>2021-08-07T14:24:39Z</time>
      </trkpt>
      <trkpt lat="50.50478" lon="3.0533">
        <ele>53.97</ele>
        <time>2021-08-07T14:24:40Z</time>
      </trkpt>
      <trkpt lat="50.50476" lon="3.05331">
        <ele>53.97</ele>
        <time>2021-08-07T14:24:41Z</time>
      </trkpt>
      <trkpt lat="50.50475" lon="3.05333">
        <ele>53.97</ele>
        <time>2021-08-07T14:24:42Z</time>
      </trkpt>
      <trkpt lat="50.50473" lon="3.05334">
        <ele>53.97</ele>
        <time>2021-08-07T14:24:43Z</time>
      </trkpt>
      <trkpt lat="50.50471" lon="3.05336">
        <ele>53.97</ele>
        <time>2021-08-07T14:24:44Z</time>
      </trkpt>
      <trkpt lat="50.5047" lon="3.05338">
        <ele>53.97</ele>
        <time>2021-08-07T14:24:45Z</time>
      </trkpt>
      <trkpt lat="50.50468" lon="3.05338">
        <ele>53.97</ele>
        <time>2021-08-07T14:24:46Z</time>
      </trkpt>
      <trkpt lat="50.50467" lon="3.05337">
        <ele>53.97</ele>
        <time>2021-08-07T14:24:47Z</time>
      </trkpt>
      <trkpt lat="50.50465" lon="3.05335">
        <ele>53.97</ele>
        <time>2021-08-07T14:24:48Z</time>
      </trkpt>
      <trkpt lat="50.50464" lon="3.05333">
        <ele>53.97</ele>
        <time>2021-08-07T14:24:49Z</time>
      </trkpt>
      <trkpt lat="50.50462" lon="3.05331">
        <ele>53.97</ele>
        <time>2021-08-07T14:24:50Z</time>
      </trkpt>
      <trkpt lat="50.5046" lon="3.0533">
        <ele>53.97</ele>
        <time>2021-08-07T14:24:51Z</time>
      </trkpt>
      <trkpt lat="50.50459" lon="3.0533">
        <ele>53.97</ele>
        <time>2021-08-07T14:24:52Z</time>
      </trkpt>
      <trkpt lat="50.50454" lon="3.05327">
        <ele>53.97</ele>
        <time>2021-08-07T14:24:56Z</time>
      </trkpt>
      <trkpt lat="50.5044" lon="3.0533">
        <ele>53.97</ele>
        <time>2021-08-07T14:25:03Z</time>
      </trkpt>
      <trkpt lat="50.50426" lon="3.05332">
        <ele>53.01</ele>
        <time>2021-08-07T14:25:09Z</time>
      </trkpt>
      <trkpt lat="50.50411" lon="3.05333">
        <ele>53.01</ele>
        <time>2021-08-07T14:25:15Z</time>
      </trkpt>
      <trkpt lat="50.50395" lon="3.05334">
        <ele>53.01</ele>
        <time>2021-08-07T14:25:21Z</time>
      </trkpt>
      <trkpt lat="50.5039" lon="3.05335">
        <ele>53.01</ele>
        <time>2021-08-07T14:25:25Z</time>
      </trkpt>
      <trkpt lat="50.50388" lon="3.05336">
        <ele>53.01</ele>
        <time>2021-08-07T14:25:26Z</time>
      </trkpt>
      <trkpt lat="50.50385" lon="3.05343">
        <ele>53.01</ele>
        <time>2021-08-07T14:25:31Z</time>
      </trkpt>
      <trkpt lat="50.50386" lon="3.05357">
        <ele>53.01</ele>
        <time>2021-08-07T14:25:37Z</time>
      </trkpt>
      <trkpt lat="50.50395" lon="3.05378">
        <ele>52.53</ele>
        <time>2021-08-07T14:25:44Z</time>
      </trkpt>
      <trkpt lat="50.50399" lon="3.05387">
        <ele>52.53</ele>
        <time>2021-08-07T14:25:47Z</time>
      </trkpt>
      <trkpt lat="50.50404" lon="3.05398">
        <ele>52.53</ele>
        <time>2021-08-07T14:25:50Z</time>
      </trkpt>
      <trkpt lat="50.50406" lon="3.05401">
        <ele>52.53</ele>
        <time>2021-08-07T14:25:51Z</time>
      </trkpt>
      <trkpt lat="50.50408" lon="3.05405">
        <ele>52.53</ele>
        <time>2021-08-07T14:25:52Z</time>
      </trkpt>
      <trkpt lat="50.5041" lon="3.05408">
        <ele>52.53</ele>
        <time>2021-08-07T14:25:53Z</time>
      </trkpt>
      <trkpt lat="50.50412" lon="3.05411">
        <ele>52.53</ele>
        <time>2021-08-07T14:25:54Z</time>
      </trkpt>
      <trkpt lat="50.50414" lon="3.05414">
        <ele>52.53</ele>
        <time>2021-08-07T14:25:55Z</time>
      </trkpt>
      <trkpt lat="50.50415" lon="3.05417">
        <ele>52.53</ele>
        <time>2021-08-07T14:25:56Z</time>
      </trkpt>
      <trkpt lat="50.50417" lon="3.05421">
        <ele>52.53</ele>
        <time>2021-08-07T14:25:57Z</time>
      </trkpt>
      <trkpt lat="50.50419" lon="3.05424">
        <ele>52.53</ele>
        <time>2021-08-07T14:25:58Z</time>
      </trkpt>
      <trkpt lat="50.50421" lon="3.05427">
        <ele>52.53</ele>
        <time>2021-08-07T14:25:59Z</time>
      </trkpt>
      <trkpt lat="50.50422" lon="3.0543">
        <ele>52.53</ele>
        <time>2021-08-07T14:26:00Z</time>
      </trkpt>
      <trkpt lat="50.50424" lon="3.05433">
        <ele>52.53</ele>
        <time>2021-08-07T14:26:01Z</time>
      </trkpt>
      <trkpt lat="50.50425" lon="3.05437">
        <ele>52.53</ele>
        <time>2021-08-07T14:26:02Z</time>
      </trkpt>
      <trkpt lat="50.50431" lon="3.05451">
        <ele>53.01</ele>
        <time>2021-08-07T14:26:08Z</time>
      </trkpt>
      <trkpt lat="50.50439" lon="3.05464">
        <ele>53.01</ele>
        <time>2021-08-07T14:26:13Z</time>
      </trkpt>
      <trkpt lat="50.50447" lon="3.05479">
        <ele>53.01</ele>
        <time>2021-08-07T14:26:19Z</time>
      </trkpt>
      <trkpt lat="50.50455" lon="3.05494">
        <ele>53.01</ele>
        <time>2021-08-07T14:26:26Z</time>
      </trkpt>
      <trkpt lat="50.50462" lon="3.05506">
        <ele>53.01</ele>
        <time>2021-08-07T14:26:32Z</time>
      </trkpt>
      <trkpt lat="50.50472" lon="3.05525">
        <ele>53.49</ele>
        <time>2021-08-07T14:26:40Z</time>
      </trkpt>
      <trkpt lat="50.50478" lon="3.05536">
        <ele>53.49</ele>
        <time>2021-08-07T14:26:44Z</time>
      </trkpt>
      <trkpt lat="50.50479" lon="3.05538">
        <ele>53.49</ele>
        <time>2021-08-07T14:26:45Z</time>
      </trkpt>
      <trkpt lat="50.50481" lon="3.05541">
        <ele>53.49</ele>
        <time>2021-08-07T14:26:46Z</time>
      </trkpt>
      <trkpt lat="50.50482" lon="3.05544">
        <ele>53.49</ele>
        <time>2021-08-07T14:26:47Z</time>
      </trkpt>
      <trkpt lat="50.50484" lon="3.05548">
        <ele>53.49</ele>
        <time>2021-08-07T14:26:48Z</time>
      </trkpt>
      <trkpt lat="50.50493" lon="3.05566">
        <ele>53.49</ele>
        <time>2021-08-07T14:26:54Z</time>
      </trkpt>
      <trkpt lat="50.50505" lon="3.05584">
        <ele>53.97</ele>
        <time>2021-08-07T14:27:02Z</time>
      </trkpt>
      <trkpt lat="50.50519" lon="3.05608">
        <ele>53.97</ele>
        <time>2021-08-07T14:27:11Z</time>
      </trkpt>
      <trkpt lat="50.50528" lon="3.05629">
        <ele>53.97</ele>
        <time>2021-08-07T14:27:17Z</time>
      </trkpt>
      <trkpt lat="50.50542" lon="3.0565">
        <ele>54.45</ele>
        <time>2021-08-07T14:27:23Z</time>
      </trkpt>
      <trkpt lat="50.50554" lon="3.05671">
        <ele>54.45</ele>
        <time>2021-08-07T14:27:29Z</time>
      </trkpt>
      <trkpt lat="50.50566" lon="3.05696">
        <ele>54.45</ele>
        <time>2021-08-07T14:27:35Z</time>
      </trkpt>
      <trkpt lat="50.50578" lon="3.05721">
        <ele>54.93</ele>
        <time>2021-08-07T14:27:41Z</time>
      </trkpt>
      <trkpt lat="50.50581" lon="3.0573">
        <ele>54.93</ele>
        <time>2021-08-07T14:27:43Z</time>
      </trkpt>
      <trkpt lat="50.50581" lon="3.05733">
        <ele>54.93</ele>
        <time>2021-08-07T14:27:44Z</time>
      </trkpt>
      <trkpt lat="50.5058" lon="3.05735">
        <ele>54.93</ele>
        <time>2021-08-07T14:27:45Z</time>
      </trkpt>
      <trkpt lat="50.50579" lon="3.05738">
        <ele>54.93</ele>
        <time>2021-08-07T14:27:46Z</time>
      </trkpt>
      <trkpt lat="50.50577" lon="3.05741">
        <ele>54.93</ele>
        <time>2021-08-07T14:27:47Z</time>
      </trkpt>
      <trkpt lat="50.50576" lon="3.05744">
        <ele>54.93</ele>
        <time>2021-08-07T14:27:48Z</time>
      </trkpt>
      <trkpt lat="50.50574" lon="3.05747">
        <ele>54.93</ele>
        <time>2021-08-07T14:27:49Z</time>
      </trkpt>
      <trkpt lat="50.50573" lon="3.0575">
        <ele>54.93</ele>
        <time>2021-08-07T14:27:50Z</time>
      </trkpt>
      <trkpt lat="50.5056" lon="3.0577">
        <ele>54.45</ele>
        <time>2021-08-07T14:27:55Z</time>
      </trkpt>
      <trkpt lat="50.50556" lon="3.05775">
        <ele>54.93</ele>
        <time>2021-08-07T14:27:56Z</time>
      </trkpt>
      <trkpt lat="50.50552" lon="3.05781">
        <ele>54.93</ele>
        <time>2021-08-07T14:27:57Z</time>
      </trkpt>
      <trkpt lat="50.50531" lon="3.05813">
        <ele>54.93</ele>
        <time>2021-08-07T14:28:03Z</time>
      </trkpt>
      <trkpt lat="50.50496" lon="3.05865">
        <ele>53.49</ele>
        <time>2021-08-07T14:28:12Z</time>
      </trkpt>
      <trkpt lat="50.50483" lon="3.05883">
        <ele>53.49</ele>
        <time>2021-08-07T14:28:15Z</time>
      </trkpt>
      <trkpt lat="50.50447" lon="3.05935">
        <ele>53.01</ele>
        <time>2021-08-07T14:28:23Z</time>
      </trkpt>
      <trkpt lat="50.50414" lon="3.0598">
        <ele>53.01</ele>
        <time>2021-08-07T14:28:30Z</time>
      </trkpt>
      <trkpt lat="50.50377" lon="3.06033">
        <ele>52.53</ele>
        <time>2021-08-07T14:28:38Z</time>
      </trkpt>
      <trkpt lat="50.50332" lon="3.06093">
        <ele>52.05</ele>
        <time>2021-08-07T14:28:47Z</time>
      </trkpt>
      <trkpt lat="50.50293" lon="3.06148">
        <ele>51.09</ele>
        <time>2021-08-07T14:28:55Z</time>
      </trkpt>
      <trkpt lat="50.50243" lon="3.06216">
        <ele>51.57</ele>
        <time>2021-08-07T14:29:05Z</time>
      </trkpt>
      <trkpt lat="50.50233" lon="3.06229">
        <ele>51.09</ele>
        <time>2021-08-07T14:29:07Z</time>
      </trkpt>
      <trkpt lat="50.50228" lon="3.06235">
        <ele>51.09</ele>
        <time>2021-08-07T14:29:08Z</time>
      </trkpt>
      <trkpt lat="50.50189" lon="3.06291">
        <ele>50.13</ele>
        <time>2021-08-07T14:29:16Z</time>
      </trkpt>
      <trkpt lat="50.5014" lon="3.0636">
        <ele>49.65</ele>
        <time>2021-08-07T14:29:26Z</time>
      </trkpt>
      <trkpt lat="50.50091" lon="3.06429">
        <ele>48.68</ele>
        <time>2021-08-07T14:29:36Z</time>
      </trkpt>
      <trkpt lat="50.50035" lon="3.06507">
        <ele>48.2</ele>
        <time>2021-08-07T14:29:47Z</time>
      </trkpt>
      <trkpt lat="50.49987" lon="3.06574">
        <ele>46.28</ele>
        <time>2021-08-07T14:29:56Z</time>
      </trkpt>
      <trkpt lat="50.49932" lon="3.06649">
        <ele>46.28</ele>
        <time>2021-08-07T14:30:07Z</time>
      </trkpt>
      <trkpt lat="50.49896" lon="3.067">
        <ele>46.28</ele>
        <time>2021-08-07T14:30:15Z</time>
      </trkpt>
      <trkpt lat="50.49866" lon="3.06738">
        <ele>47.72</ele>
        <time>2021-08-07T14:30:22Z</time>
      </trkpt>
      <trkpt lat="50.49862" lon="3.06744">
        <ele>47.72</ele>
        <time>2021-08-07T14:30:23Z</time>
      </trkpt>
      <trkpt lat="50.49828" lon="3.06794">
        <ele>47.72</ele>
        <time>2021-08-07T14:30:32Z</time>
      </trkpt>
      <trkpt lat="50.49809" lon="3.0682">
        <ele>47.72</ele>
        <time>2021-08-07T14:30:37Z</time>
      </trkpt>
      <trkpt lat="50.49776" lon="3.06863">
        <ele>48.2</ele>
        <time>2021-08-07T14:30:45Z</time>
      </trkpt>
      <trkpt lat="50.49739" lon="3.06913">
        <ele>48.2</ele>
        <time>2021-08-07T14:30:54Z</time>
      </trkpt>
      <trkpt lat="50.49706" lon="3.06955">
        <ele>48.2</ele>
        <time>2021-08-07T14:31:02Z</time>
      </trkpt>
      <trkpt lat="50.49675" lon="3.06999">
        <ele>48.2</ele>
        <time>2021-08-07T14:31:10Z</time>
      </trkpt>
      <trkpt lat="50.49649" lon="3.07034">
        <ele>48.2</ele>
        <time>2021-08-07T14:31:17Z</time>
      </trkpt>
      <trkpt lat="50.49646" lon="3.0704">
        <ele>48.2</ele>
        <time>2021-08-07T14:31:18Z</time>
      </trkpt>
      <trkpt lat="50.49643" lon="3.07046">
        <ele>48.2</ele>
        <time>2021-08-07T14:31:19Z</time>
      </trkpt>
      <trkpt lat="50.49638" lon="3.07058">
        <ele>48.2</ele>
        <time>2021-08-07T14:31:21Z</time>
      </trkpt>
      <trkpt lat="50.49634" lon="3.07064">
        <ele>46.76</ele>
        <time>2021-08-07T14:31:22Z</time>
      </trkpt>
      <trkpt lat="50.4963" lon="3.07068">
        <ele>46.76</ele>
        <time>2021-08-07T14:31:23Z</time>
      </trkpt>
      <trkpt lat="50.4959" lon="3.07098">
        <ele>46.28</ele>
        <time>2021-08-07T14:31:32Z</time>
      </trkpt>
      <trkpt lat="50.49552" lon="3.07141">
        <ele>46.28</ele>
        <time>2021-08-07T14:31:41Z</time>
      </trkpt>
      <trkpt lat="50.49516" lon="3.07178">
        <ele>46.28</ele>
        <time>2021-08-07T14:31:49Z</time>
      </trkpt>
      <trkpt lat="50.4951" lon="3.07181">
        <ele>46.28</ele>
        <time>2021-08-07T14:31:50Z</time>
      </trkpt>
      <trkpt lat="50.49453" lon="3.07202">
        <ele>46.28</ele>
        <time>2021-08-07T14:32:01Z</time>
      </trkpt>
      <trkpt lat="50.49422" lon="3.0722">
        <ele>46.28</ele>
        <time>2021-08-07T14:32:07Z</time>
      </trkpt>
      <trkpt lat="50.49403" lon="3.07238">
        <ele>46.28</ele>
        <time>2021-08-07T14:32:11Z</time>
      </trkpt>
      <trkpt lat="50.49362" lon="3.07291">
        <ele>45.32</ele>
        <time>2021-08-07T14:32:20Z</time>
      </trkpt>
      <trkpt lat="50.49355" lon="3.07295">
        <ele>45.32</ele>
        <time>2021-08-07T14:32:21Z</time>
      </trkpt>
      <trkpt lat="50.4935" lon="3.07296">
        <ele>45.32</ele>
        <time>2021-08-07T14:32:22Z</time>
      </trkpt>
      <trkpt lat="50.49344" lon="3.07297">
        <ele>45.32</ele>
        <time>2021-08-07T14:32:23Z</time>
      </trkpt>
      <trkpt lat="50.49338" lon="3.07298">
        <ele>45.32</ele>
        <time>2021-08-07T14:32:24Z</time>
      </trkpt>
      <trkpt lat="50.49333" lon="3.07297">
        <ele>45.32</ele>
        <time>2021-08-07T14:32:25Z</time>
      </trkpt>
      <trkpt lat="50.49327" lon="3.07297">
        <ele>45.32</ele>
        <time>2021-08-07T14:32:26Z</time>
      </trkpt>
      <trkpt lat="50.49295" lon="3.07296">
        <ele>45.32</ele>
        <time>2021-08-07T14:32:32Z</time>
      </trkpt>
      <trkpt lat="50.49291" lon="3.07296">
        <ele>45.32</ele>
        <time>2021-08-07T14:32:33Z</time>
      </trkpt>
      <trkpt lat="50.49287" lon="3.07297">
        <ele>45.32</ele>
        <time>2021-08-07T14:32:34Z</time>
      </trkpt>
      <trkpt lat="50.49283" lon="3.07302">
        <ele>45.32</ele>
        <time>2021-08-07T14:32:35Z</time>
      </trkpt>
      <trkpt lat="50.49281" lon="3.07306">
        <ele>45.32</ele>
        <time>2021-08-07T14:32:36Z</time>
      </trkpt>
      <trkpt lat="50.49279" lon="3.07313">
        <ele>45.32</ele>
        <time>2021-08-07T14:32:37Z</time>
      </trkpt>
      <trkpt lat="50.49277" lon="3.07319">
        <ele>45.32</ele>
        <time>2021-08-07T14:32:38Z</time>
      </trkpt>
      <trkpt lat="50.49276" lon="3.07326">
        <ele>45.32</ele>
        <time>2021-08-07T14:32:39Z</time>
      </trkpt>
      <trkpt lat="50.49275" lon="3.07335">
        <ele>45.32</ele>
        <time>2021-08-07T14:32:40Z</time>
      </trkpt>
      <trkpt lat="50.49275" lon="3.07342">
        <ele>45.32</ele>
        <time>2021-08-07T14:32:41Z</time>
      </trkpt>
      <trkpt lat="50.49275" lon="3.0735">
        <ele>45.32</ele>
        <time>2021-08-07T14:32:42Z</time>
      </trkpt>
      <trkpt lat="50.49268" lon="3.07446">
        <ele>45.32</ele>
        <time>2021-08-07T14:32:54Z</time>
      </trkpt>
      <trkpt lat="50.49266" lon="3.07453">
        <ele>45.32</ele>
        <time>2021-08-07T14:32:55Z</time>
      </trkpt>
      <trkpt lat="50.49263" lon="3.07459">
        <ele>45.32</ele>
        <time>2021-08-07T14:32:56Z</time>
      </trkpt>
      <trkpt lat="50.49259" lon="3.07466">
        <ele>45.32</ele>
        <time>2021-08-07T14:32:57Z</time>
      </trkpt>
      <trkpt lat="50.49255" lon="3.07471">
        <ele>45.32</ele>
        <time>2021-08-07T14:32:58Z</time>
      </trkpt>
      <trkpt lat="50.49251" lon="3.07475">
        <ele>45.32</ele>
        <time>2021-08-07T14:32:59Z</time>
      </trkpt>
      <trkpt lat="50.49211" lon="3.07524">
        <ele>45.32</ele>
        <time>2021-08-07T14:33:09Z</time>
      </trkpt>
      <trkpt lat="50.49172" lon="3.0758">
        <ele>45.32</ele>
        <time>2021-08-07T14:33:19Z</time>
      </trkpt>
      <trkpt lat="50.49132" lon="3.07644">
        <ele>45.32</ele>
        <time>2021-08-07T14:33:30Z</time>
      </trkpt>
      <trkpt lat="50.4911" lon="3.07687">
        <ele>46.76</ele>
        <time>2021-08-07T14:33:37Z</time>
      </trkpt>
      <trkpt lat="50.49084" lon="3.07754">
        <ele>47.72</ele>
        <time>2021-08-07T14:33:47Z</time>
      </trkpt>
      <trkpt lat="50.49069" lon="3.07794">
        <ele>47.72</ele>
        <time>2021-08-07T14:33:53Z</time>
      </trkpt>
      <trkpt lat="50.49068" lon="3.07801">
        <ele>47.72</ele>
        <time>2021-08-07T14:33:54Z</time>
      </trkpt>
      <trkpt lat="50.49065" lon="3.07816">
        <ele>47.72</ele>
        <time>2021-08-07T14:33:56Z</time>
      </trkpt>
      <trkpt lat="50.4906" lon="3.07882">
        <ele>48.2</ele>
        <time>2021-08-07T14:34:05Z</time>
      </trkpt>
      <trkpt lat="50.49053" lon="3.07918">
        <ele>49.16</ele>
        <time>2021-08-07T14:34:10Z</time>
      </trkpt>
      <trkpt lat="50.49052" lon="3.07932">
        <ele>49.16</ele>
        <time>2021-08-07T14:34:12Z</time>
      </trkpt>
      <trkpt lat="50.4905" lon="3.07946">
        <ele>49.16</ele>
        <time>2021-08-07T14:34:14Z</time>
      </trkpt>
      <trkpt lat="50.49049" lon="3.07954">
        <ele>49.16</ele>
        <time>2021-08-07T14:34:15Z</time>
      </trkpt>
      <trkpt lat="50.4905" lon="3.07961">
        <ele>49.16</ele>
        <time>2021-08-07T14:34:16Z</time>
      </trkpt>
      <trkpt lat="50.49051" lon="3.07976">
        <ele>48.68</ele>
        <time>2021-08-07T14:34:18Z</time>
      </trkpt>
      <trkpt lat="50.49053" lon="3.07982">
        <ele>48.68</ele>
        <time>2021-08-07T14:34:19Z</time>
      </trkpt>
      <trkpt lat="50.49072" lon="3.08057">
        <ele>49.65</ele>
        <time>2021-08-07T14:34:30Z</time>
      </trkpt>
      <trkpt lat="50.49079" lon="3.08124">
        <ele>49.65</ele>
        <time>2021-08-07T14:34:39Z</time>
      </trkpt>
      <trkpt lat="50.49079" lon="3.08131">
        <ele>49.65</ele>
        <time>2021-08-07T14:34:40Z</time>
      </trkpt>
      <trkpt lat="50.4908" lon="3.08139">
        <ele>49.65</ele>
        <time>2021-08-07T14:34:41Z</time>
      </trkpt>
      <trkpt lat="50.49082" lon="3.08153">
        <ele>49.65</ele>
        <time>2021-08-07T14:34:43Z</time>
      </trkpt>
      <trkpt lat="50.49084" lon="3.0816">
        <ele>50.61</ele>
        <time>2021-08-07T14:34:44Z</time>
      </trkpt>
      <trkpt lat="50.49086" lon="3.08167">
        <ele>50.61</ele>
        <time>2021-08-07T14:34:45Z</time>
      </trkpt>
      <trkpt lat="50.49087" lon="3.08175">
        <ele>50.61</ele>
        <time>2021-08-07T14:34:46Z</time>
      </trkpt>
      <trkpt lat="50.49088" lon="3.08183">
        <ele>50.61</ele>
        <time>2021-08-07T14:34:47Z</time>
      </trkpt>
      <trkpt lat="50.49089" lon="3.08191">
        <ele>50.61</ele>
        <time>2021-08-07T14:34:48Z</time>
      </trkpt>
      <trkpt lat="50.49093" lon="3.08224">
        <ele>50.61</ele>
        <time>2021-08-07T14:34:52Z</time>
      </trkpt>
      <trkpt lat="50.49094" lon="3.08232">
        <ele>51.09</ele>
        <time>2021-08-07T14:34:53Z</time>
      </trkpt>
      <trkpt lat="50.49094" lon="3.0824">
        <ele>51.09</ele>
        <time>2021-08-07T14:34:54Z</time>
      </trkpt>
      <trkpt lat="50.49091" lon="3.08284">
        <ele>51.09</ele>
        <time>2021-08-07T14:35:00Z</time>
      </trkpt>
      <trkpt lat="50.49089" lon="3.08291">
        <ele>51.09</ele>
        <time>2021-08-07T14:35:01Z</time>
      </trkpt>
      <trkpt lat="50.49086" lon="3.08296">
        <ele>51.09</ele>
        <time>2021-08-07T14:35:02Z</time>
      </trkpt>
      <trkpt lat="50.49083" lon="3.08301">
        <ele>51.09</ele>
        <time>2021-08-07T14:35:03Z</time>
      </trkpt>
      <trkpt lat="50.4908" lon="3.08306">
        <ele>51.57</ele>
        <time>2021-08-07T14:35:04Z</time>
      </trkpt>
      <trkpt lat="50.49051" lon="3.0836">
        <ele>51.57</ele>
        <time>2021-08-07T14:35:14Z</time>
      </trkpt>
      <trkpt lat="50.49052" lon="3.08366">
        <ele>51.57</ele>
        <time>2021-08-07T14:35:15Z</time>
      </trkpt>
      <trkpt lat="50.49054" lon="3.08371">
        <ele>51.57</ele>
        <time>2021-08-07T14:35:16Z</time>
      </trkpt>
      <trkpt lat="50.49056" lon="3.08377">
        <ele>52.05</ele>
        <time>2021-08-07T14:35:17Z</time>
      </trkpt>
      <trkpt lat="50.49058" lon="3.08382">
        <ele>52.05</ele>
        <time>2021-08-07T14:35:18Z</time>
      </trkpt>
      <trkpt lat="50.4906" lon="3.08389">
        <ele>52.05</ele>
        <time>2021-08-07T14:35:19Z</time>
      </trkpt>
      <trkpt lat="50.49062" lon="3.08395">
        <ele>52.05</ele>
        <time>2021-08-07T14:35:20Z</time>
      </trkpt>
      <trkpt lat="50.49063" lon="3.08401">
        <ele>52.05</ele>
        <time>2021-08-07T14:35:21Z</time>
      </trkpt>
      <trkpt lat="50.49071" lon="3.08425">
        <ele>52.53</ele>
        <time>2021-08-07T14:35:25Z</time>
      </trkpt>
      <trkpt lat="50.49074" lon="3.0843">
        <ele>52.53</ele>
        <time>2021-08-07T14:35:26Z</time>
      </trkpt>
      <trkpt lat="50.49077" lon="3.08435">
        <ele>52.53</ele>
        <time>2021-08-07T14:35:27Z</time>
      </trkpt>
      <trkpt lat="50.4908" lon="3.08439">
        <ele>52.53</ele>
        <time>2021-08-07T14:35:28Z</time>
      </trkpt>
      <trkpt lat="50.49083" lon="3.08443">
        <ele>52.53</ele>
        <time>2021-08-07T14:35:29Z</time>
      </trkpt>
      <trkpt lat="50.49104" lon="3.08469">
        <ele>53.49</ele>
        <time>2021-08-07T14:35:37Z</time>
      </trkpt>
      <trkpt lat="50.49129" lon="3.08497">
        <ele>53.97</ele>
        <time>2021-08-07T14:35:45Z</time>
      </trkpt>
      <trkpt lat="50.49151" lon="3.08522">
        <ele>54.45</ele>
        <time>2021-08-07T14:35:52Z</time>
      </trkpt>
      <trkpt lat="50.49184" lon="3.08557">
        <ele>55.89</ele>
        <time>2021-08-07T14:36:02Z</time>
      </trkpt>
      <trkpt lat="50.49194" lon="3.08568">
        <ele>56.37</ele>
        <time>2021-08-07T14:36:05Z</time>
      </trkpt>
      <trkpt lat="50.49209" lon="3.0859">
        <ele>56.86</ele>
        <time>2021-08-07T14:36:10Z</time>
      </trkpt>
      <trkpt lat="50.49214" lon="3.08601">
        <ele>57.34</ele>
        <time>2021-08-07T14:36:12Z</time>
      </trkpt>
      <trkpt lat="50.4922" lon="3.08618">
        <ele>57.82</ele>
        <time>2021-08-07T14:36:15Z</time>
      </trkpt>
      <trkpt lat="50.49222" lon="3.08624">
        <ele>57.82</ele>
        <time>2021-08-07T14:36:16Z</time>
      </trkpt>
      <trkpt lat="50.49225" lon="3.08637">
        <ele>58.3</ele>
        <time>2021-08-07T14:36:18Z</time>
      </trkpt>
      <trkpt lat="50.49227" lon="3.08642">
        <ele>58.3</ele>
        <time>2021-08-07T14:36:19Z</time>
      </trkpt>
      <trkpt lat="50.49239" lon="3.08701">
        <ele>60.22</ele>
        <time>2021-08-07T14:36:29Z</time>
      </trkpt>
      <trkpt lat="50.4924" lon="3.08714">
        <ele>60.22</ele>
        <time>2021-08-07T14:36:31Z</time>
      </trkpt>
      <trkpt lat="50.49234" lon="3.08789">
        <ele>62.14</ele>
        <time>2021-08-07T14:36:43Z</time>
      </trkpt>
      <trkpt lat="50.49227" lon="3.08857">
        <ele>64.07</ele>
        <time>2021-08-07T14:36:54Z</time>
      </trkpt>
      <trkpt lat="50.49227" lon="3.08863">
        <ele>64.07</ele>
        <time>2021-08-07T14:36:55Z</time>
      </trkpt>
      <trkpt lat="50.49226" lon="3.0887">
        <ele>64.07</ele>
        <time>2021-08-07T14:36:56Z</time>
      </trkpt>
      <trkpt lat="50.49224" lon="3.08889">
        <ele>64.55</ele>
        <time>2021-08-07T14:36:59Z</time>
      </trkpt>
      <trkpt lat="50.4921" lon="3.08946">
        <ele>64.55</ele>
        <time>2021-08-07T14:37:08Z</time>
      </trkpt>
      <trkpt lat="50.49189" lon="3.09015">
        <ele>63.1</ele>
        <time>2021-08-07T14:37:17Z</time>
      </trkpt>
      <trkpt lat="50.49182" lon="3.0904">
        <ele>62.62</ele>
        <time>2021-08-07T14:37:20Z</time>
      </trkpt>
      <trkpt lat="50.49182" lon="3.09049">
        <ele>62.62</ele>
        <time>2021-08-07T14:37:21Z</time>
      </trkpt>
      <trkpt lat="50.49183" lon="3.09057">
        <ele>62.62</ele>
        <time>2021-08-07T14:37:22Z</time>
      </trkpt>
      <trkpt lat="50.49186" lon="3.09065">
        <ele>62.62</ele>
        <time>2021-08-07T14:37:23Z</time>
      </trkpt>
      <trkpt lat="50.49191" lon="3.09072">
        <ele>62.62</ele>
        <time>2021-08-07T14:37:24Z</time>
      </trkpt>
      <trkpt lat="50.49196" lon="3.09076">
        <ele>62.62</ele>
        <time>2021-08-07T14:37:25Z</time>
      </trkpt>
      <trkpt lat="50.49202" lon="3.09081">
        <ele>62.62</ele>
        <time>2021-08-07T14:37:26Z</time>
      </trkpt>
      <trkpt lat="50.4926" lon="3.09127">
        <ele>61.18</ele>
        <time>2021-08-07T14:37:36Z</time>
      </trkpt>
      <trkpt lat="50.49266" lon="3.09133">
        <ele>61.18</ele>
        <time>2021-08-07T14:37:37Z</time>
      </trkpt>
      <trkpt lat="50.49271" lon="3.09141">
        <ele>60.7</ele>
        <time>2021-08-07T14:37:38Z</time>
      </trkpt>
      <trkpt lat="50.49274" lon="3.09151">
        <ele>60.7</ele>
        <time>2021-08-07T14:37:39Z</time>
      </trkpt>
      <trkpt lat="50.49276" lon="3.09161">
        <ele>60.22</ele>
        <time>2021-08-07T14:37:40Z</time>
      </trkpt>
      <trkpt lat="50.49277" lon="3.09172">
        <ele>59.74</ele>
        <time>2021-08-07T14:37:41Z</time>
      </trkpt>
      <trkpt lat="50.49278" lon="3.09183">
        <ele>59.74</ele>
        <time>2021-08-07T14:37:42Z</time>
      </trkpt>
      <trkpt lat="50.49292" lon="3.09269">
        <ele>59.26</ele>
        <time>2021-08-07T14:37:50Z</time>
      </trkpt>
      <trkpt lat="50.49315" lon="3.09372">
        <ele>58.3</ele>
        <time>2021-08-07T14:38:00Z</time>
      </trkpt>
      <trkpt lat="50.49334" lon="3.09456">
        <ele>56.86</ele>
        <time>2021-08-07T14:38:09Z</time>
      </trkpt>
      <trkpt lat="50.49334" lon="3.09464">
        <ele>56.86</ele>
        <time>2021-08-07T14:38:10Z</time>
      </trkpt>
      <trkpt lat="50.49332" lon="3.0947">
        <ele>56.86</ele>
        <time>2021-08-07T14:38:11Z</time>
      </trkpt>
      <trkpt lat="50.49328" lon="3.09474">
        <ele>56.86</ele>
        <time>2021-08-07T14:38:12Z</time>
      </trkpt>
      <trkpt lat="50.49324" lon="3.09477">
        <ele>56.86</ele>
        <time>2021-08-07T14:38:13Z</time>
      </trkpt>
      <trkpt lat="50.49293" lon="3.09508">
        <ele>56.86</ele>
        <time>2021-08-07T14:38:21Z</time>
      </trkpt>
      <trkpt lat="50.49286" lon="3.09518">
        <ele>57.82</ele>
        <time>2021-08-07T14:38:23Z</time>
      </trkpt>
      <trkpt lat="50.49284" lon="3.09524">
        <ele>57.82</ele>
        <time>2021-08-07T14:38:24Z</time>
      </trkpt>
      <trkpt lat="50.49282" lon="3.09531">
        <ele>57.82</ele>
        <time>2021-08-07T14:38:25Z</time>
      </trkpt>
      <trkpt lat="50.49281" lon="3.09538">
        <ele>57.82</ele>
        <time>2021-08-07T14:38:26Z</time>
      </trkpt>
      <trkpt lat="50.49281" lon="3.09545">
        <ele>57.82</ele>
        <time>2021-08-07T14:38:27Z</time>
      </trkpt>
      <trkpt lat="50.49282" lon="3.09553">
        <ele>57.82</ele>
        <time>2021-08-07T14:38:28Z</time>
      </trkpt>
      <trkpt lat="50.49283" lon="3.09561">
        <ele>57.82</ele>
        <time>2021-08-07T14:38:29Z</time>
      </trkpt>
      <trkpt lat="50.49284" lon="3.09569">
        <ele>57.82</ele>
        <time>2021-08-07T14:38:30Z</time>
      </trkpt>
      <trkpt lat="50.4929" lon="3.0962">
        <ele>57.82</ele>
        <time>2021-08-07T14:38:36Z</time>
      </trkpt>
      <trkpt lat="50.49288" lon="3.09627">
        <ele>57.82</ele>
        <time>2021-08-07T14:38:37Z</time>
      </trkpt>
      <trkpt lat="50.49281" lon="3.09639">
        <ele>57.82</ele>
        <time>2021-08-07T14:38:39Z</time>
      </trkpt>
      <trkpt lat="50.49276" lon="3.09643">
        <ele>57.82</ele>
        <time>2021-08-07T14:38:40Z</time>
      </trkpt>
      <trkpt lat="50.49257" lon="3.09657">
        <ele>58.3</ele>
        <time>2021-08-07T14:38:44Z</time>
      </trkpt>
      <trkpt lat="50.49253" lon="3.09662">
        <ele>58.3</ele>
        <time>2021-08-07T14:38:45Z</time>
      </trkpt>
      <trkpt lat="50.49251" lon="3.09669">
        <ele>58.3</ele>
        <time>2021-08-07T14:38:46Z</time>
      </trkpt>
      <trkpt lat="50.4925" lon="3.09677">
        <ele>58.3</ele>
        <time>2021-08-07T14:38:47Z</time>
      </trkpt>
      <trkpt lat="50.4925" lon="3.09685">
        <ele>58.3</ele>
        <time>2021-08-07T14:38:48Z</time>
      </trkpt>
      <trkpt lat="50.49251" lon="3.09694">
        <ele>58.3</ele>
        <time>2021-08-07T14:38:49Z</time>
      </trkpt>
      <trkpt lat="50.49253" lon="3.09702">
        <ele>58.78</ele>
        <time>2021-08-07T14:38:50Z</time>
      </trkpt>
      <trkpt lat="50.49255" lon="3.09711">
        <ele>58.78</ele>
        <time>2021-08-07T14:38:51Z</time>
      </trkpt>
      <trkpt lat="50.49274" lon="3.09791">
        <ele>57.34</ele>
        <time>2021-08-07T14:39:00Z</time>
      </trkpt>
      <trkpt lat="50.49276" lon="3.098">
        <ele>57.34</ele>
        <time>2021-08-07T14:39:01Z</time>
      </trkpt>
      <trkpt lat="50.4928" lon="3.09819">
        <ele>57.34</ele>
        <time>2021-08-07T14:39:03Z</time>
      </trkpt>
      <trkpt lat="50.49283" lon="3.09828">
        <ele>56.86</ele>
        <time>2021-08-07T14:39:04Z</time>
      </trkpt>
      <trkpt lat="50.49287" lon="3.09835">
        <ele>56.86</ele>
        <time>2021-08-07T14:39:05Z</time>
      </trkpt>
      <trkpt lat="50.49319" lon="3.09904">
        <ele>56.37</ele>
        <time>2021-08-07T14:39:14Z</time>
      </trkpt>
      <trkpt lat="50.49321" lon="3.09912">
        <ele>56.37</ele>
        <time>2021-08-07T14:39:15Z</time>
      </trkpt>
      <trkpt lat="50.49324" lon="3.09928">
        <ele>57.34</ele>
        <time>2021-08-07T14:39:17Z</time>
      </trkpt>
      <trkpt lat="50.49325" lon="3.09935">
        <ele>57.34</ele>
        <time>2021-08-07T14:39:18Z</time>
      </trkpt>
      <trkpt lat="50.49325" lon="3.09944">
        <ele>57.34</ele>
        <time>2021-08-07T14:39:19Z</time>
      </trkpt>
      <trkpt lat="50.49324" lon="3.09951">
        <ele>57.34</ele>
        <time>2021-08-07T14:39:20Z</time>
      </trkpt>
      <trkpt lat="50.4932" lon="3.09957">
        <ele>57.34</ele>
        <time>2021-08-07T14:39:21Z</time>
      </trkpt>
      <trkpt lat="50.49316" lon="3.09959">
        <ele>57.82</ele>
        <time>2021-08-07T14:39:22Z</time>
      </trkpt>
      <trkpt lat="50.49311" lon="3.0996">
        <ele>57.82</ele>
        <time>2021-08-07T14:39:23Z</time>
      </trkpt>
      <trkpt lat="50.49307" lon="3.09962">
        <ele>57.82</ele>
        <time>2021-08-07T14:39:24Z</time>
      </trkpt>
      <trkpt lat="50.49267" lon="3.0998">
        <ele>59.74</ele>
        <time>2021-08-07T14:39:34Z</time>
      </trkpt>
      <trkpt lat="50.49255" lon="3.09986">
        <ele>59.74</ele>
        <time>2021-08-07T14:39:37Z</time>
      </trkpt>
      <trkpt lat="50.49251" lon="3.09989">
        <ele>59.74</ele>
        <time>2021-08-07T14:39:38Z</time>
      </trkpt>
      <trkpt lat="50.49248" lon="3.09993">
        <ele>60.22</ele>
        <time>2021-08-07T14:39:39Z</time>
      </trkpt>
      <trkpt lat="50.49245" lon="3.09997">
        <ele>60.22</ele>
        <time>2021-08-07T14:39:40Z</time>
      </trkpt>
      <trkpt lat="50.49242" lon="3.1">
        <ele>60.22</ele>
        <time>2021-08-07T14:39:41Z</time>
      </trkpt>
      <trkpt lat="50.49239" lon="3.10001">
        <ele>60.7</ele>
        <time>2021-08-07T14:39:42Z</time>
      </trkpt>
      <trkpt lat="50.49236" lon="3.1">
        <ele>60.7</ele>
        <time>2021-08-07T14:39:43Z</time>
      </trkpt>
      <trkpt lat="50.49233" lon="3.09999">
        <ele>60.7</ele>
        <time>2021-08-07T14:39:44Z</time>
      </trkpt>
      <trkpt lat="50.49206" lon="3.09989">
        <ele>62.14</ele>
        <time>2021-08-07T14:39:53Z</time>
      </trkpt>
      <trkpt lat="50.49185" lon="3.09983">
        <ele>62.62</ele>
        <time>2021-08-07T14:40:00Z</time>
      </trkpt>
      <trkpt lat="50.49165" lon="3.09978">
        <ele>64.55</ele>
        <time>2021-08-07T14:40:08Z</time>
      </trkpt>
      <trkpt lat="50.49144" lon="3.09985">
        <ele>65.99</ele>
        <time>2021-08-07T14:40:16Z</time>
      </trkpt>
      <trkpt lat="50.49126" lon="3.09999">
        <ele>66.95</ele>
        <time>2021-08-07T14:40:24Z</time>
      </trkpt>
      <trkpt lat="50.49106" lon="3.10017">
        <ele>68.87</ele>
        <time>2021-08-07T14:40:35Z</time>
      </trkpt>
      <trkpt lat="50.49089" lon="3.10021">
        <ele>70.31</ele>
        <time>2021-08-07T14:40:44Z</time>
      </trkpt>
      <trkpt lat="50.49074" lon="3.10023">
        <ele>71.76</ele>
        <time>2021-08-07T14:40:54Z</time>
      </trkpt>
      <trkpt lat="50.49065" lon="3.10023">
        <ele>72.72</ele>
        <time>2021-08-07T14:41:01Z</time>
      </trkpt>
      <trkpt lat="50.49052" lon="3.10025">
        <ele>74.16</ele>
        <time>2021-08-07T14:41:10Z</time>
      </trkpt>
      <trkpt lat="50.49041" lon="3.10025">
        <ele>76.08</ele>
        <time>2021-08-07T14:41:18Z</time>
      </trkpt>
      <trkpt lat="50.4903" lon="3.10025">
        <ele>77.52</ele>
        <time>2021-08-07T14:41:26Z</time>
      </trkpt>
      <trkpt lat="50.49028" lon="3.10025">
        <ele>77.52</ele>
        <time>2021-08-07T14:41:27Z</time>
      </trkpt>
      <trkpt lat="50.49027" lon="3.10025">
        <ele>77.52</ele>
        <time>2021-08-07T14:41:28Z</time>
      </trkpt>
      <trkpt lat="50.49026" lon="3.10026">
        <ele>78</ele>
        <time>2021-08-07T14:41:29Z</time>
      </trkpt>
      <trkpt lat="50.49024" lon="3.10026">
        <ele>78</ele>
        <time>2021-08-07T14:41:30Z</time>
      </trkpt>
      <trkpt lat="50.49023" lon="3.10026">
        <ele>78.48</ele>
        <time>2021-08-07T14:41:31Z</time>
      </trkpt>
      <trkpt lat="50.49014" lon="3.10026">
        <ele>79.45</ele>
        <time>2021-08-07T14:41:38Z</time>
      </trkpt>
      <trkpt lat="50.49003" lon="3.10025">
        <ele>80.89</ele>
        <time>2021-08-07T14:41:46Z</time>
      </trkpt>
      <trkpt lat="50.48995" lon="3.10026">
        <ele>82.81</ele>
        <time>2021-08-07T14:41:53Z</time>
      </trkpt>
      <trkpt lat="50.48992" lon="3.10027">
        <ele>83.29</ele>
        <time>2021-08-07T14:42:00Z</time>
      </trkpt>
      <trkpt lat="50.48985" lon="3.10028">
        <ele>85.69</ele>
        <time>2021-08-07T14:42:08Z</time>
      </trkpt>
      <trkpt lat="50.48977" lon="3.10029">
        <ele>86.66</ele>
        <time>2021-08-07T14:42:18Z</time>
      </trkpt>
      <trkpt lat="50.4897" lon="3.10027">
        <ele>88.1</ele>
        <time>2021-08-07T14:42:26Z</time>
      </trkpt>
      <trkpt lat="50.48962" lon="3.10025">
        <ele>89.06</ele>
        <time>2021-08-07T14:42:34Z</time>
      </trkpt>
      <trkpt lat="50.48961" lon="3.10026">
        <ele>89.06</ele>
        <time>2021-08-07T14:42:35Z</time>
      </trkpt>
      <trkpt lat="50.4896" lon="3.10027">
        <ele>89.06</ele>
        <time>2021-08-07T14:42:36Z</time>
      </trkpt>
      <trkpt lat="50.48959" lon="3.10028">
        <ele>89.54</ele>
        <time>2021-08-07T14:42:37Z</time>
      </trkpt>
      <trkpt lat="50.48958" lon="3.1003">
        <ele>89.54</ele>
        <time>2021-08-07T14:42:38Z</time>
      </trkpt>
      <trkpt lat="50.48958" lon="3.10031">
        <ele>89.54</ele>
        <time>2021-08-07T14:42:39Z</time>
      </trkpt>
      <trkpt lat="50.48954" lon="3.10034">
        <ele>90.02</ele>
        <time>2021-08-07T14:42:45Z</time>
      </trkpt>
      <trkpt lat="50.48947" lon="3.10042">
        <ele>90.02</ele>
        <time>2021-08-07T14:42:52Z</time>
      </trkpt>
      <trkpt lat="50.48946" lon="3.10046">
        <ele>88.58</ele>
        <time>2021-08-07T14:42:55Z</time>
      </trkpt>
      <trkpt lat="50.48946" lon="3.1005">
        <ele>88.1</ele>
        <time>2021-08-07T14:42:58Z</time>
      </trkpt>
      <trkpt lat="50.48947" lon="3.10053">
        <ele>88.1</ele>
        <time>2021-08-07T14:42:59Z</time>
      </trkpt>
      <trkpt lat="50.48948" lon="3.10057">
        <ele>87.14</ele>
        <time>2021-08-07T14:43:00Z</time>
      </trkpt>
      <trkpt lat="50.48949" lon="3.10061">
        <ele>86.66</ele>
        <time>2021-08-07T14:43:01Z</time>
      </trkpt>
      <trkpt lat="50.48951" lon="3.10066">
        <ele>86.18</ele>
        <time>2021-08-07T14:43:02Z</time>
      </trkpt>
      <trkpt lat="50.48955" lon="3.10086">
        <ele>82.33</ele>
        <time>2021-08-07T14:43:06Z</time>
      </trkpt>
      <trkpt lat="50.48956" lon="3.10114">
        <ele>80.41</ele>
        <time>2021-08-07T14:43:11Z</time>
      </trkpt>
      <trkpt lat="50.48967" lon="3.10163">
        <ele>78</ele>
        <time>2021-08-07T14:43:17Z</time>
      </trkpt>
      <trkpt lat="50.48976" lon="3.10203">
        <ele>77.52</ele>
        <time>2021-08-07T14:43:21Z</time>
      </trkpt>
      <trkpt lat="50.48979" lon="3.10211">
        <ele>76.56</ele>
        <time>2021-08-07T14:43:22Z</time>
      </trkpt>
      <trkpt lat="50.48981" lon="3.10221">
        <ele>76.56</ele>
        <time>2021-08-07T14:43:23Z</time>
      </trkpt>
      <trkpt lat="50.48984" lon="3.10236">
        <ele>75.6</ele>
        <time>2021-08-07T14:43:25Z</time>
      </trkpt>
      <trkpt lat="50.48986" lon="3.10244">
        <ele>75.6</ele>
        <time>2021-08-07T14:43:26Z</time>
      </trkpt>
      <trkpt lat="50.48987" lon="3.10251">
        <ele>75.6</ele>
        <time>2021-08-07T14:43:27Z</time>
      </trkpt>
      <trkpt lat="50.48987" lon="3.10257">
        <ele>74.64</ele>
        <time>2021-08-07T14:43:28Z</time>
      </trkpt>
      <trkpt lat="50.48987" lon="3.10263">
        <ele>75.12</ele>
        <time>2021-08-07T14:43:29Z</time>
      </trkpt>
      <trkpt lat="50.48985" lon="3.10266">
        <ele>74.64</ele>
        <time>2021-08-07T14:43:30Z</time>
      </trkpt>
      <trkpt lat="50.48984" lon="3.10267">
        <ele>74.64</ele>
        <time>2021-08-07T14:43:34Z</time>
      </trkpt>
      <trkpt lat="50.48981" lon="3.1027">
        <ele>74.64</ele>
        <time>2021-08-07T14:43:38Z</time>
      </trkpt>
      <trkpt lat="50.48979" lon="3.10272">
        <ele>74.64</ele>
        <time>2021-08-07T14:43:39Z</time>
      </trkpt>
      <trkpt lat="50.48977" lon="3.10273">
        <ele>74.64</ele>
        <time>2021-08-07T14:43:40Z</time>
      </trkpt>
      <trkpt lat="50.48975" lon="3.10274">
        <ele>74.64</ele>
        <time>2021-08-07T14:43:41Z</time>
      </trkpt>
      <trkpt lat="50.48972" lon="3.10275">
        <ele>74.64</ele>
        <time>2021-08-07T14:43:42Z</time>
      </trkpt>
      <trkpt lat="50.48969" lon="3.10276">
        <ele>74.64</ele>
        <time>2021-08-07T14:43:43Z</time>
      </trkpt>
      <trkpt lat="50.48947" lon="3.10283">
        <ele>74.64</ele>
        <time>2021-08-07T14:43:49Z</time>
      </trkpt>
      <trkpt lat="50.48906" lon="3.10295">
        <ele>73.2</ele>
        <time>2021-08-07T14:43:57Z</time>
      </trkpt>
      <trkpt lat="50.48856" lon="3.10311">
        <ele>69.35</ele>
        <time>2021-08-07T14:44:05Z</time>
      </trkpt>
      <trkpt lat="50.48799" lon="3.10328">
        <ele>66.47</ele>
        <time>2021-08-07T14:44:13Z</time>
      </trkpt>
      <trkpt lat="50.4874" lon="3.10346">
        <ele>66.47</ele>
        <time>2021-08-07T14:44:22Z</time>
      </trkpt>
      <trkpt lat="50.48712" lon="3.10356">
        <ele>65.99</ele>
        <time>2021-08-07T14:44:28Z</time>
      </trkpt>
      <trkpt lat="50.48709" lon="3.10361">
        <ele>67.43</ele>
        <time>2021-08-07T14:44:29Z</time>
      </trkpt>
      <trkpt lat="50.48708" lon="3.10367">
        <ele>67.43</ele>
        <time>2021-08-07T14:44:30Z</time>
      </trkpt>
      <trkpt lat="50.48708" lon="3.10373">
        <ele>67.43</ele>
        <time>2021-08-07T14:44:31Z</time>
      </trkpt>
      <trkpt lat="50.48709" lon="3.10378">
        <ele>67.43</ele>
        <time>2021-08-07T14:44:32Z</time>
      </trkpt>
      <trkpt lat="50.4871" lon="3.10385">
        <ele>67.43</ele>
        <time>2021-08-07T14:44:33Z</time>
      </trkpt>
      <trkpt lat="50.48712" lon="3.10391">
        <ele>67.43</ele>
        <time>2021-08-07T14:44:34Z</time>
      </trkpt>
      <trkpt lat="50.48714" lon="3.10397">
        <ele>67.43</ele>
        <time>2021-08-07T14:44:35Z</time>
      </trkpt>
      <trkpt lat="50.4873" lon="3.10444">
        <ele>65.99</ele>
        <time>2021-08-07T14:44:41Z</time>
      </trkpt>
      <trkpt lat="50.48758" lon="3.10529">
        <ele>64.07</ele>
        <time>2021-08-07T14:44:50Z</time>
      </trkpt>
      <trkpt lat="50.48796" lon="3.10642">
        <ele>62.14</ele>
        <time>2021-08-07T14:45:01Z</time>
      </trkpt>
      <trkpt lat="50.48843" lon="3.10785">
        <ele>60.22</ele>
        <time>2021-08-07T14:45:14Z</time>
      </trkpt>
      <trkpt lat="50.4888" lon="3.10883">
        <ele>59.74</ele>
        <time>2021-08-07T14:45:24Z</time>
      </trkpt>
      <trkpt lat="50.48916" lon="3.10961">
        <ele>59.74</ele>
        <time>2021-08-07T14:45:34Z</time>
      </trkpt>
      <trkpt lat="50.48942" lon="3.11015">
        <ele>59.26</ele>
        <time>2021-08-07T14:45:42Z</time>
      </trkpt>
      <trkpt lat="50.48971" lon="3.1108">
        <ele>58.3</ele>
        <time>2021-08-07T14:45:51Z</time>
      </trkpt>
      <trkpt lat="50.49008" lon="3.11156">
        <ele>57.82</ele>
        <time>2021-08-07T14:46:01Z</time>
      </trkpt>
      <trkpt lat="50.4905" lon="3.1125">
        <ele>56.37</ele>
        <time>2021-08-07T14:46:13Z</time>
      </trkpt>
      <trkpt lat="50.49085" lon="3.11328">
        <ele>55.89</ele>
        <time>2021-08-07T14:46:23Z</time>
      </trkpt>
      <trkpt lat="50.49127" lon="3.11421">
        <ele>54.93</ele>
        <time>2021-08-07T14:46:35Z</time>
      </trkpt>
      <trkpt lat="50.49162" lon="3.11497">
        <ele>53.97</ele>
        <time>2021-08-07T14:46:45Z</time>
      </trkpt>
      <trkpt lat="50.49201" lon="3.11583">
        <ele>53.01</ele>
        <time>2021-08-07T14:46:57Z</time>
      </trkpt>
      <trkpt lat="50.49233" lon="3.11668">
        <ele>52.53</ele>
        <time>2021-08-07T14:47:08Z</time>
      </trkpt>
      <trkpt lat="50.49241" lon="3.1169">
        <ele>52.05</ele>
        <time>2021-08-07T14:47:11Z</time>
      </trkpt>
      <trkpt lat="50.49241" lon="3.11697">
        <ele>52.05</ele>
        <time>2021-08-07T14:47:12Z</time>
      </trkpt>
      <trkpt lat="50.49239" lon="3.11704">
        <ele>52.05</ele>
        <time>2021-08-07T14:47:13Z</time>
      </trkpt>
      <trkpt lat="50.49236" lon="3.11708">
        <ele>52.05</ele>
        <time>2021-08-07T14:47:14Z</time>
      </trkpt>
      <trkpt lat="50.49233" lon="3.1171">
        <ele>52.05</ele>
        <time>2021-08-07T14:47:15Z</time>
      </trkpt>
      <trkpt lat="50.49231" lon="3.1171">
        <ele>52.05</ele>
        <time>2021-08-07T14:47:16Z</time>
      </trkpt>
      <trkpt lat="50.49228" lon="3.11711">
        <ele>52.05</ele>
        <time>2021-08-07T14:47:17Z</time>
      </trkpt>
      <trkpt lat="50.49226" lon="3.11712">
        <ele>52.05</ele>
        <time>2021-08-07T14:47:18Z</time>
      </trkpt>
      <trkpt lat="50.49211" lon="3.1172">
        <ele>52.05</ele>
        <time>2021-08-07T14:47:25Z</time>
      </trkpt>
      <trkpt lat="50.49193" lon="3.11731">
        <ele>52.05</ele>
        <time>2021-08-07T14:47:32Z</time>
      </trkpt>
      <trkpt lat="50.49162" lon="3.11751">
        <ele>53.97</ele>
        <time>2021-08-07T14:47:41Z</time>
      </trkpt>
      <trkpt lat="50.49123" lon="3.11773">
        <ele>54.45</ele>
        <time>2021-08-07T14:47:51Z</time>
      </trkpt>
      <trkpt lat="50.49119" lon="3.11775">
        <ele>54.45</ele>
        <time>2021-08-07T14:47:52Z</time>
      </trkpt>
      <trkpt lat="50.49085" lon="3.11788">
        <ele>54.93</ele>
        <time>2021-08-07T14:48:00Z</time>
      </trkpt>
      <trkpt lat="50.49082" lon="3.1179">
        <ele>54.93</ele>
        <time>2021-08-07T14:48:01Z</time>
      </trkpt>
      <trkpt lat="50.49054" lon="3.11815">
        <ele>54.93</ele>
        <time>2021-08-07T14:48:09Z</time>
      </trkpt>
      <trkpt lat="50.49026" lon="3.11857">
        <ele>54.93</ele>
        <time>2021-08-07T14:48:18Z</time>
      </trkpt>
      <trkpt lat="50.48995" lon="3.11911">
        <ele>53.01</ele>
        <time>2021-08-07T14:48:27Z</time>
      </trkpt>
      <trkpt lat="50.48969" lon="3.11948">
        <ele>52.53</ele>
        <time>2021-08-07T14:48:33Z</time>
      </trkpt>
      <trkpt lat="50.48952" lon="3.1197">
        <ele>52.05</ele>
        <time>2021-08-07T14:48:37Z</time>
      </trkpt>
      <trkpt lat="50.48946" lon="3.11977">
        <ele>52.05</ele>
        <time>2021-08-07T14:48:38Z</time>
      </trkpt>
      <trkpt lat="50.48929" lon="3.11999">
        <ele>52.05</ele>
        <time>2021-08-07T14:48:42Z</time>
      </trkpt>
      <trkpt lat="50.48893" lon="3.12048">
        <ele>50.61</ele>
        <time>2021-08-07T14:48:52Z</time>
      </trkpt>
      <trkpt lat="50.48863" lon="3.1209">
        <ele>51.57</ele>
        <time>2021-08-07T14:49:02Z</time>
      </trkpt>
      <trkpt lat="50.48852" lon="3.121">
        <ele>51.57</ele>
        <time>2021-08-07T14:49:05Z</time>
      </trkpt>
      <trkpt lat="50.48841" lon="3.12107">
        <ele>51.57</ele>
        <time>2021-08-07T14:49:08Z</time>
      </trkpt>
      <trkpt lat="50.48795" lon="3.12116">
        <ele>52.53</ele>
        <time>2021-08-07T14:49:19Z</time>
      </trkpt>
      <trkpt lat="50.4875" lon="3.12111">
        <ele>52.05</ele>
        <time>2021-08-07T14:49:30Z</time>
      </trkpt>
      <trkpt lat="50.48714" lon="3.12107">
        <ele>52.05</ele>
        <time>2021-08-07T14:49:39Z</time>
      </trkpt>
      <trkpt lat="50.48671" lon="3.12113">
        <ele>53.49</ele>
        <time>2021-08-07T14:49:50Z</time>
      </trkpt>
      <trkpt lat="50.48635" lon="3.1212">
        <ele>53.97</ele>
        <time>2021-08-07T14:49:59Z</time>
      </trkpt>
      <trkpt lat="50.48615" lon="3.12128">
        <ele>53.97</ele>
        <time>2021-08-07T14:50:05Z</time>
      </trkpt>
      <trkpt lat="50.48613" lon="3.12134">
        <ele>53.97</ele>
        <time>2021-08-07T14:50:06Z</time>
      </trkpt>
      <trkpt lat="50.48614" lon="3.12139">
        <ele>54.45</ele>
        <time>2021-08-07T14:50:07Z</time>
      </trkpt>
      <trkpt lat="50.48616" lon="3.12144">
        <ele>54.45</ele>
        <time>2021-08-07T14:50:08Z</time>
      </trkpt>
      <trkpt lat="50.48618" lon="3.12147">
        <ele>54.45</ele>
        <time>2021-08-07T14:50:09Z</time>
      </trkpt>
      <trkpt lat="50.48621" lon="3.12151">
        <ele>54.45</ele>
        <time>2021-08-07T14:50:10Z</time>
      </trkpt>
      <trkpt lat="50.48654" lon="3.12201">
        <ele>54.93</ele>
        <time>2021-08-07T14:50:20Z</time>
      </trkpt>
      <trkpt lat="50.48684" lon="3.12246">
        <ele>54.93</ele>
        <time>2021-08-07T14:50:29Z</time>
      </trkpt>
      <trkpt lat="50.48693" lon="3.12258">
        <ele>54.45</ele>
        <time>2021-08-07T14:50:32Z</time>
      </trkpt>
      <trkpt lat="50.48726" lon="3.12308">
        <ele>54.93</ele>
        <time>2021-08-07T14:50:42Z</time>
      </trkpt>
      <trkpt lat="50.4876" lon="3.12358">
        <ele>55.41</ele>
        <time>2021-08-07T14:50:52Z</time>
      </trkpt>
      <trkpt lat="50.48801" lon="3.12416">
        <ele>55.89</ele>
        <time>2021-08-07T14:51:03Z</time>
      </trkpt>
      <trkpt lat="50.48817" lon="3.12441">
        <ele>55.89</ele>
        <time>2021-08-07T14:51:08Z</time>
      </trkpt>
      <trkpt lat="50.48849" lon="3.12487">
        <ele>55.89</ele>
        <time>2021-08-07T14:51:17Z</time>
      </trkpt>
      <trkpt lat="50.48892" lon="3.12535">
        <ele>55.89</ele>
        <time>2021-08-07T14:51:27Z</time>
      </trkpt>
      <trkpt lat="50.48941" lon="3.12579">
        <ele>55.89</ele>
        <time>2021-08-07T14:51:37Z</time>
      </trkpt>
      <trkpt lat="50.48951" lon="3.1259">
        <ele>54.93</ele>
        <time>2021-08-07T14:51:39Z</time>
      </trkpt>
      <trkpt lat="50.49018" lon="3.12666">
        <ele>54.45</ele>
        <time>2021-08-07T14:51:52Z</time>
      </trkpt>
      <trkpt lat="50.49066" lon="3.12722">
        <ele>53.01</ele>
        <time>2021-08-07T14:52:01Z</time>
      </trkpt>
      <trkpt lat="50.49106" lon="3.12745">
        <ele>52.53</ele>
        <time>2021-08-07T14:52:07Z</time>
      </trkpt>
      <trkpt lat="50.49148" lon="3.12765">
        <ele>52.05</ele>
        <time>2021-08-07T14:52:14Z</time>
      </trkpt>
      <trkpt lat="50.49153" lon="3.1277">
        <ele>52.05</ele>
        <time>2021-08-07T14:52:16Z</time>
      </trkpt>
      <trkpt lat="50.49154" lon="3.12773">
        <ele>52.05</ele>
        <time>2021-08-07T14:52:17Z</time>
      </trkpt>
      <trkpt lat="50.49153" lon="3.12776">
        <ele>52.05</ele>
        <time>2021-08-07T14:52:18Z</time>
      </trkpt>
      <trkpt lat="50.49152" lon="3.12778">
        <ele>52.05</ele>
        <time>2021-08-07T14:52:19Z</time>
      </trkpt>
      <trkpt lat="50.4915" lon="3.1278">
        <ele>51.57</ele>
        <time>2021-08-07T14:52:20Z</time>
      </trkpt>
      <trkpt lat="50.49148" lon="3.12782">
        <ele>51.57</ele>
        <time>2021-08-07T14:52:21Z</time>
      </trkpt>
      <trkpt lat="50.49146" lon="3.12785">
        <ele>51.57</ele>
        <time>2021-08-07T14:52:22Z</time>
      </trkpt>
      <trkpt lat="50.49143" lon="3.12788">
        <ele>51.57</ele>
        <time>2021-08-07T14:52:23Z</time>
      </trkpt>
      <trkpt lat="50.49123" lon="3.12818">
        <ele>51.57</ele>
        <time>2021-08-07T14:52:30Z</time>
      </trkpt>
      <trkpt lat="50.49108" lon="3.12839">
        <ele>53.01</ele>
        <time>2021-08-07T14:52:35Z</time>
      </trkpt>
      <trkpt lat="50.4908" lon="3.12878">
        <ele>53.49</ele>
        <time>2021-08-07T14:52:44Z</time>
      </trkpt>
      <trkpt lat="50.49077" lon="3.12883">
        <ele>53.49</ele>
        <time>2021-08-07T14:52:45Z</time>
      </trkpt>
      <trkpt lat="50.49074" lon="3.12888">
        <ele>53.49</ele>
        <time>2021-08-07T14:52:46Z</time>
      </trkpt>
      <trkpt lat="50.49061" lon="3.12905">
        <ele>53.97</ele>
        <time>2021-08-07T14:52:50Z</time>
      </trkpt>
      <trkpt lat="50.49033" lon="3.12947">
        <ele>54.45</ele>
        <time>2021-08-07T14:52:59Z</time>
      </trkpt>
      <trkpt lat="50.48997" lon="3.12994">
        <ele>54.45</ele>
        <time>2021-08-07T14:53:09Z</time>
      </trkpt>
      <trkpt lat="50.48957" lon="3.1304">
        <ele>54.45</ele>
        <time>2021-08-07T14:53:19Z</time>
      </trkpt>
      <trkpt lat="50.48931" lon="3.13062">
        <ele>54.45</ele>
        <time>2021-08-07T14:53:25Z</time>
      </trkpt>
      <trkpt lat="50.48905" lon="3.13082">
        <ele>54.45</ele>
        <time>2021-08-07T14:53:31Z</time>
      </trkpt>
      <trkpt lat="50.489" lon="3.13085">
        <ele>54.45</ele>
        <time>2021-08-07T14:53:32Z</time>
      </trkpt>
      <trkpt lat="50.48882" lon="3.13099">
        <ele>54.45</ele>
        <time>2021-08-07T14:53:36Z</time>
      </trkpt>
      <trkpt lat="50.48878" lon="3.13102">
        <ele>54.45</ele>
        <time>2021-08-07T14:53:37Z</time>
      </trkpt>
      <trkpt lat="50.48843" lon="3.13133">
        <ele>54.45</ele>
        <time>2021-08-07T14:53:45Z</time>
      </trkpt>
      <trkpt lat="50.48835" lon="3.1314">
        <ele>53.97</ele>
        <time>2021-08-07T14:53:47Z</time>
      </trkpt>
      <trkpt lat="50.4883" lon="3.13144">
        <ele>53.97</ele>
        <time>2021-08-07T14:53:48Z</time>
      </trkpt>
      <trkpt lat="50.48804" lon="3.13175">
        <ele>53.97</ele>
        <time>2021-08-07T14:53:55Z</time>
      </trkpt>
      <trkpt lat="50.488" lon="3.13179">
        <ele>53.97</ele>
        <time>2021-08-07T14:53:56Z</time>
      </trkpt>
      <trkpt lat="50.48796" lon="3.13184">
        <ele>53.97</ele>
        <time>2021-08-07T14:53:57Z</time>
      </trkpt>
      <trkpt lat="50.48774" lon="3.13214">
        <ele>55.41</ele>
        <time>2021-08-07T14:54:04Z</time>
      </trkpt>
      <trkpt lat="50.48757" lon="3.13241">
        <ele>55.41</ele>
        <time>2021-08-07T14:54:11Z</time>
      </trkpt>
      <trkpt lat="50.48744" lon="3.13258">
        <ele>55.41</ele>
        <time>2021-08-07T14:54:17Z</time>
      </trkpt>
      <trkpt lat="50.4873" lon="3.1328">
        <ele>55.41</ele>
        <time>2021-08-07T14:54:23Z</time>
      </trkpt>
      <trkpt lat="50.48727" lon="3.13282">
        <ele>55.41</ele>
        <time>2021-08-07T14:54:24Z</time>
      </trkpt>
      <trkpt lat="50.48725" lon="3.13285">
        <ele>55.41</ele>
        <time>2021-08-07T14:54:25Z</time>
      </trkpt>
      <trkpt lat="50.48722" lon="3.13289">
        <ele>55.41</ele>
        <time>2021-08-07T14:54:26Z</time>
      </trkpt>
      <trkpt lat="50.48719" lon="3.13294">
        <ele>55.41</ele>
        <time>2021-08-07T14:54:27Z</time>
      </trkpt>
      <trkpt lat="50.48711" lon="3.13306">
        <ele>55.89</ele>
        <time>2021-08-07T14:54:30Z</time>
      </trkpt>
      <trkpt lat="50.48708" lon="3.13311">
        <ele>55.89</ele>
        <time>2021-08-07T14:54:31Z</time>
      </trkpt>
      <trkpt lat="50.48705" lon="3.13314">
        <ele>55.89</ele>
        <time>2021-08-07T14:54:32Z</time>
      </trkpt>
      <trkpt lat="50.48702" lon="3.13319">
        <ele>55.89</ele>
        <time>2021-08-07T14:54:33Z</time>
      </trkpt>
      <trkpt lat="50.48699" lon="3.13324">
        <ele>55.89</ele>
        <time>2021-08-07T14:54:34Z</time>
      </trkpt>
      <trkpt lat="50.48679" lon="3.13354">
        <ele>55.89</ele>
        <time>2021-08-07T14:54:40Z</time>
      </trkpt>
      <trkpt lat="50.4865" lon="3.13403">
        <ele>56.37</ele>
        <time>2021-08-07T14:54:49Z</time>
      </trkpt>
      <trkpt lat="50.48621" lon="3.13447">
        <ele>56.86</ele>
        <time>2021-08-07T14:54:58Z</time>
      </trkpt>
      <trkpt lat="50.48619" lon="3.13451">
        <ele>56.86</ele>
        <time>2021-08-07T14:54:59Z</time>
      </trkpt>
      <trkpt lat="50.48602" lon="3.13479">
        <ele>57.34</ele>
        <time>2021-08-07T14:55:06Z</time>
      </trkpt>
      <trkpt lat="50.486" lon="3.13482">
        <ele>57.82</ele>
        <time>2021-08-07T14:55:07Z</time>
      </trkpt>
      <trkpt lat="50.48599" lon="3.13485">
        <ele>57.82</ele>
        <time>2021-08-07T14:55:08Z</time>
      </trkpt>
      <trkpt lat="50.48598" lon="3.13489">
        <ele>58.3</ele>
        <time>2021-08-07T14:55:09Z</time>
      </trkpt>
      <trkpt lat="50.48597" lon="3.13492">
        <ele>58.3</ele>
        <time>2021-08-07T14:55:10Z</time>
      </trkpt>
      <trkpt lat="50.48596" lon="3.13496">
        <ele>58.78</ele>
        <time>2021-08-07T14:55:11Z</time>
      </trkpt>
      <trkpt lat="50.48586" lon="3.13512">
        <ele>58.78</ele>
        <time>2021-08-07T14:55:16Z</time>
      </trkpt>
      <trkpt lat="50.48583" lon="3.13512">
        <ele>58.78</ele>
        <time>2021-08-07T14:55:17Z</time>
      </trkpt>
      <trkpt lat="50.4858" lon="3.13511">
        <ele>58.78</ele>
        <time>2021-08-07T14:55:18Z</time>
      </trkpt>
      <trkpt lat="50.48559" lon="3.13522">
        <ele>58.78</ele>
        <time>2021-08-07T14:55:24Z</time>
      </trkpt>
      <trkpt lat="50.48555" lon="3.13526">
        <ele>58.78</ele>
        <time>2021-08-07T14:55:25Z</time>
      </trkpt>
      <trkpt lat="50.48551" lon="3.13528">
        <ele>58.78</ele>
        <time>2021-08-07T14:55:26Z</time>
      </trkpt>
      <trkpt lat="50.48509" lon="3.13557">
        <ele>59.74</ele>
        <time>2021-08-07T14:55:37Z</time>
      </trkpt>
      <trkpt lat="50.48505" lon="3.1356">
        <ele>59.74</ele>
        <time>2021-08-07T14:55:38Z</time>
      </trkpt>
      <trkpt lat="50.48475" lon="3.13579">
        <ele>59.74</ele>
        <time>2021-08-07T14:55:46Z</time>
      </trkpt>
      <trkpt lat="50.48446" lon="3.13597">
        <ele>60.22</ele>
        <time>2021-08-07T14:55:53Z</time>
      </trkpt>
      <trkpt lat="50.48438" lon="3.13603">
        <ele>60.22</ele>
        <time>2021-08-07T14:55:55Z</time>
      </trkpt>
      <trkpt lat="50.48434" lon="3.13606">
        <ele>60.22</ele>
        <time>2021-08-07T14:55:56Z</time>
      </trkpt>
      <trkpt lat="50.48392" lon="3.13638">
        <ele>60.22</ele>
        <time>2021-08-07T14:56:05Z</time>
      </trkpt>
      <trkpt lat="50.48383" lon="3.13646">
        <ele>58.78</ele>
        <time>2021-08-07T14:56:07Z</time>
      </trkpt>
      <trkpt lat="50.4834" lon="3.13693">
        <ele>57.82</ele>
        <time>2021-08-07T14:56:16Z</time>
      </trkpt>
      <trkpt lat="50.48302" lon="3.13739">
        <ele>57.34</ele>
        <time>2021-08-07T14:56:24Z</time>
      </trkpt>
      <trkpt lat="50.48262" lon="3.13784">
        <ele>56.37</ele>
        <time>2021-08-07T14:56:32Z</time>
      </trkpt>
      <trkpt lat="50.48238" lon="3.13812">
        <ele>56.37</ele>
        <time>2021-08-07T14:56:37Z</time>
      </trkpt>
      <trkpt lat="50.48234" lon="3.13818">
        <ele>55.89</ele>
        <time>2021-08-07T14:56:38Z</time>
      </trkpt>
      <trkpt lat="50.48229" lon="3.13824">
        <ele>55.89</ele>
        <time>2021-08-07T14:56:39Z</time>
      </trkpt>
      <trkpt lat="50.48201" lon="3.13852">
        <ele>54.93</ele>
        <time>2021-08-07T14:56:45Z</time>
      </trkpt>
      <trkpt lat="50.48196" lon="3.13857">
        <ele>54.93</ele>
        <time>2021-08-07T14:56:46Z</time>
      </trkpt>
      <trkpt lat="50.48192" lon="3.13859">
        <ele>54.93</ele>
        <time>2021-08-07T14:56:47Z</time>
      </trkpt>
      <trkpt lat="50.48173" lon="3.1387">
        <ele>54.45</ele>
        <time>2021-08-07T14:56:51Z</time>
      </trkpt>
      <trkpt lat="50.48168" lon="3.13873">
        <ele>54.45</ele>
        <time>2021-08-07T14:56:52Z</time>
      </trkpt>
      <trkpt lat="50.4816" lon="3.1388">
        <ele>53.97</ele>
        <time>2021-08-07T14:56:54Z</time>
      </trkpt>
      <trkpt lat="50.4813" lon="3.13901">
        <ele>53.49</ele>
        <time>2021-08-07T14:57:01Z</time>
      </trkpt>
      <trkpt lat="50.48122" lon="3.13907">
        <ele>53.49</ele>
        <time>2021-08-07T14:57:03Z</time>
      </trkpt>
      <trkpt lat="50.48097" lon="3.13926">
        <ele>53.49</ele>
        <time>2021-08-07T14:57:09Z</time>
      </trkpt>
      <trkpt lat="50.48092" lon="3.13929">
        <ele>53.49</ele>
        <time>2021-08-07T14:57:10Z</time>
      </trkpt>
      <trkpt lat="50.48072" lon="3.13945">
        <ele>53.49</ele>
        <time>2021-08-07T14:57:15Z</time>
      </trkpt>
      <trkpt lat="50.48069" lon="3.13948">
        <ele>53.01</ele>
        <time>2021-08-07T14:57:16Z</time>
      </trkpt>
      <trkpt lat="50.48066" lon="3.13952">
        <ele>53.01</ele>
        <time>2021-08-07T14:57:17Z</time>
      </trkpt>
      <trkpt lat="50.48064" lon="3.13954">
        <ele>53.01</ele>
        <time>2021-08-07T14:57:18Z</time>
      </trkpt>
      <trkpt lat="50.48061" lon="3.13954">
        <ele>53.01</ele>
        <time>2021-08-07T14:57:19Z</time>
      </trkpt>
      <trkpt lat="50.48059" lon="3.13954">
        <ele>53.01</ele>
        <time>2021-08-07T14:57:20Z</time>
      </trkpt>
      <trkpt lat="50.48057" lon="3.13954">
        <ele>53.01</ele>
        <time>2021-08-07T14:57:21Z</time>
      </trkpt>
      <trkpt lat="50.48055" lon="3.13955">
        <ele>53.01</ele>
        <time>2021-08-07T14:57:22Z</time>
      </trkpt>
      <trkpt lat="50.48052" lon="3.13957">
        <ele>53.01</ele>
        <time>2021-08-07T14:57:23Z</time>
      </trkpt>
      <trkpt lat="50.4805" lon="3.13959">
        <ele>53.01</ele>
        <time>2021-08-07T14:57:24Z</time>
      </trkpt>
      <trkpt lat="50.48033" lon="3.13975">
        <ele>53.01</ele>
        <time>2021-08-07T14:57:30Z</time>
      </trkpt>
      <trkpt lat="50.48035" lon="3.13975">
        <ele>53.01</ele>
        <time>2021-08-07T14:57:34Z</time>
      </trkpt>
      <trkpt lat="50.48036" lon="3.13974">
        <ele>53.97</ele>
        <time>2021-08-07T14:57:35Z</time>
      </trkpt>
      <trkpt lat="50.48045" lon="3.13962">
        <ele>53.97</ele>
        <time>2021-08-07T14:57:41Z</time>
      </trkpt>
      <trkpt lat="50.48052" lon="3.13957">
        <ele>53.97</ele>
        <time>2021-08-07T14:57:45Z</time>
      </trkpt>
      <trkpt lat="50.48054" lon="3.13959">
        <ele>53.97</ele>
        <time>2021-08-07T14:57:46Z</time>
      </trkpt>
      <trkpt lat="50.48056" lon="3.13963">
        <ele>53.97</ele>
        <time>2021-08-07T14:57:47Z</time>
      </trkpt>
      <trkpt lat="50.48057" lon="3.13967">
        <ele>53.97</ele>
        <time>2021-08-07T14:57:48Z</time>
      </trkpt>
      <trkpt lat="50.48058" lon="3.13972">
        <ele>53.97</ele>
        <time>2021-08-07T14:57:49Z</time>
      </trkpt>
      <trkpt lat="50.48059" lon="3.13978">
        <ele>53.97</ele>
        <time>2021-08-07T14:57:50Z</time>
      </trkpt>
      <trkpt lat="50.48064" lon="3.14016">
        <ele>52.53</ele>
        <time>2021-08-07T14:57:55Z</time>
      </trkpt>
      <trkpt lat="50.48069" lon="3.14051">
        <ele>52.53</ele>
        <time>2021-08-07T14:57:59Z</time>
      </trkpt>
      <trkpt lat="50.4808" lon="3.14133">
        <ele>52.05</ele>
        <time>2021-08-07T14:58:08Z</time>
      </trkpt>
      <trkpt lat="50.48086" lon="3.14208">
        <ele>52.05</ele>
        <time>2021-08-07T14:58:17Z</time>
      </trkpt>
      <trkpt lat="50.48089" lon="3.14231">
        <ele>52.05</ele>
        <time>2021-08-07T14:58:20Z</time>
      </trkpt>
      <trkpt lat="50.48091" lon="3.14238">
        <ele>52.05</ele>
        <time>2021-08-07T14:58:21Z</time>
      </trkpt>
      <trkpt lat="50.48093" lon="3.14244">
        <ele>52.05</ele>
        <time>2021-08-07T14:58:22Z</time>
      </trkpt>
      <trkpt lat="50.48101" lon="3.14268">
        <ele>52.05</ele>
        <time>2021-08-07T14:58:26Z</time>
      </trkpt>
      <trkpt lat="50.48101" lon="3.14275">
        <ele>52.05</ele>
        <time>2021-08-07T14:58:27Z</time>
      </trkpt>
      <trkpt lat="50.48099" lon="3.14283">
        <ele>52.05</ele>
        <time>2021-08-07T14:58:28Z</time>
      </trkpt>
      <trkpt lat="50.48096" lon="3.14297">
        <ele>52.05</ele>
        <time>2021-08-07T14:58:30Z</time>
      </trkpt>
      <trkpt lat="50.48093" lon="3.14305">
        <ele>51.57</ele>
        <time>2021-08-07T14:58:31Z</time>
      </trkpt>
      <trkpt lat="50.48081" lon="3.14339">
        <ele>50.61</ele>
        <time>2021-08-07T14:58:35Z</time>
      </trkpt>
      <trkpt lat="50.48057" lon="3.14402">
        <ele>50.13</ele>
        <time>2021-08-07T14:58:43Z</time>
      </trkpt>
      <trkpt lat="50.48056" lon="3.14408">
        <ele>50.13</ele>
        <time>2021-08-07T14:58:44Z</time>
      </trkpt>
      <trkpt lat="50.48036" lon="3.14466">
        <ele>52.53</ele>
        <time>2021-08-07T14:58:53Z</time>
      </trkpt>
      <trkpt lat="50.48015" lon="3.1452">
        <ele>53.01</ele>
        <time>2021-08-07T14:59:02Z</time>
      </trkpt>
      <trkpt lat="50.48003" lon="3.14549">
        <ele>53.97</ele>
        <time>2021-08-07T14:59:07Z</time>
      </trkpt>
      <trkpt lat="50.47994" lon="3.1458">
        <ele>53.97</ele>
        <time>2021-08-07T14:59:12Z</time>
      </trkpt>
      <trkpt lat="50.47983" lon="3.14634">
        <ele>54.45</ele>
        <time>2021-08-07T14:59:20Z</time>
      </trkpt>
      <trkpt lat="50.47971" lon="3.14691">
        <ele>54.93</ele>
        <time>2021-08-07T14:59:29Z</time>
      </trkpt>
      <trkpt lat="50.47972" lon="3.14697">
        <ele>54.93</ele>
        <time>2021-08-07T14:59:30Z</time>
      </trkpt>
      <trkpt lat="50.47975" lon="3.14701">
        <ele>54.93</ele>
        <time>2021-08-07T14:59:31Z</time>
      </trkpt>
      <trkpt lat="50.47977" lon="3.14705">
        <ele>55.41</ele>
        <time>2021-08-07T14:59:32Z</time>
      </trkpt>
      <trkpt lat="50.4798" lon="3.14708">
        <ele>55.41</ele>
        <time>2021-08-07T14:59:33Z</time>
      </trkpt>
      <trkpt lat="50.47983" lon="3.14712">
        <ele>56.37</ele>
        <time>2021-08-07T14:59:34Z</time>
      </trkpt>
      <trkpt lat="50.48009" lon="3.14737">
        <ele>57.34</ele>
        <time>2021-08-07T14:59:43Z</time>
      </trkpt>
      <trkpt lat="50.4804" lon="3.14772">
        <ele>57.82</ele>
        <time>2021-08-07T14:59:52Z</time>
      </trkpt>
      <trkpt lat="50.48089" lon="3.14829">
        <ele>58.3</ele>
        <time>2021-08-07T15:00:05Z</time>
      </trkpt>
      <trkpt lat="50.48124" lon="3.14871">
        <ele>58.3</ele>
        <time>2021-08-07T15:00:14Z</time>
      </trkpt>
      <trkpt lat="50.48151" lon="3.14906">
        <ele>58.3</ele>
        <time>2021-08-07T15:00:21Z</time>
      </trkpt>
      <trkpt lat="50.48154" lon="3.14911">
        <ele>58.3</ele>
        <time>2021-08-07T15:00:22Z</time>
      </trkpt>
      <trkpt lat="50.48156" lon="3.14919">
        <ele>58.3</ele>
        <time>2021-08-07T15:00:23Z</time>
      </trkpt>
      <trkpt lat="50.48158" lon="3.14927">
        <ele>58.3</ele>
        <time>2021-08-07T15:00:24Z</time>
      </trkpt>
      <trkpt lat="50.4816" lon="3.14934">
        <ele>58.3</ele>
        <time>2021-08-07T15:00:25Z</time>
      </trkpt>
      <trkpt lat="50.48171" lon="3.15007">
        <ele>58.3</ele>
        <time>2021-08-07T15:00:34Z</time>
      </trkpt>
      <trkpt lat="50.48185" lon="3.15095">
        <ele>58.3</ele>
        <time>2021-08-07T15:00:44Z</time>
      </trkpt>
      <trkpt lat="50.48204" lon="3.15167">
        <ele>58.3</ele>
        <time>2021-08-07T15:00:53Z</time>
      </trkpt>
      <trkpt lat="50.48209" lon="3.15182">
        <ele>56.86</ele>
        <time>2021-08-07T15:00:55Z</time>
      </trkpt>
      <trkpt lat="50.48233" lon="3.15258">
        <ele>56.86</ele>
        <time>2021-08-07T15:01:05Z</time>
      </trkpt>
      <trkpt lat="50.48235" lon="3.15266">
        <ele>56.86</ele>
        <time>2021-08-07T15:01:06Z</time>
      </trkpt>
      <trkpt lat="50.48254" lon="3.15347">
        <ele>56.86</ele>
        <time>2021-08-07T15:01:16Z</time>
      </trkpt>
      <trkpt lat="50.48269" lon="3.15426">
        <ele>56.86</ele>
        <time>2021-08-07T15:01:25Z</time>
      </trkpt>
      <trkpt lat="50.48281" lon="3.15498">
        <ele>56.86</ele>
        <time>2021-08-07T15:01:33Z</time>
      </trkpt>
      <trkpt lat="50.48296" lon="3.15582">
        <ele>56.86</ele>
        <time>2021-08-07T15:01:43Z</time>
      </trkpt>
      <trkpt lat="50.48302" lon="3.15613">
        <ele>56.86</ele>
        <time>2021-08-07T15:01:47Z</time>
      </trkpt>
      <trkpt lat="50.48305" lon="3.15627">
        <ele>56.86</ele>
        <time>2021-08-07T15:01:49Z</time>
      </trkpt>
      <trkpt lat="50.48322" lon="3.15701">
        <ele>56.86</ele>
        <time>2021-08-07T15:02:00Z</time>
      </trkpt>
      <trkpt lat="50.48322" lon="3.15708">
        <ele>56.86</ele>
        <time>2021-08-07T15:02:01Z</time>
      </trkpt>
      <trkpt lat="50.4832" lon="3.15714">
        <ele>56.86</ele>
        <time>2021-08-07T15:02:02Z</time>
      </trkpt>
      <trkpt lat="50.48318" lon="3.15719">
        <ele>56.86</ele>
        <time>2021-08-07T15:02:03Z</time>
      </trkpt>
      <trkpt lat="50.48314" lon="3.15722">
        <ele>56.86</ele>
        <time>2021-08-07T15:02:04Z</time>
      </trkpt>
      <trkpt lat="50.48311" lon="3.15725">
        <ele>56.86</ele>
        <time>2021-08-07T15:02:05Z</time>
      </trkpt>
      <trkpt lat="50.48288" lon="3.15744">
        <ele>56.86</ele>
        <time>2021-08-07T15:02:11Z</time>
      </trkpt>
      <trkpt lat="50.48267" lon="3.15766">
        <ele>56.86</ele>
        <time>2021-08-07T15:02:16Z</time>
      </trkpt>
      <trkpt lat="50.48264" lon="3.15772">
        <ele>56.86</ele>
        <time>2021-08-07T15:02:17Z</time>
      </trkpt>
      <trkpt lat="50.48263" lon="3.15778">
        <ele>56.86</ele>
        <time>2021-08-07T15:02:18Z</time>
      </trkpt>
      <trkpt lat="50.48263" lon="3.15785">
        <ele>56.86</ele>
        <time>2021-08-07T15:02:19Z</time>
      </trkpt>
      <trkpt lat="50.48264" lon="3.15792">
        <ele>56.86</ele>
        <time>2021-08-07T15:02:20Z</time>
      </trkpt>
      <trkpt lat="50.48265" lon="3.15799">
        <ele>56.86</ele>
        <time>2021-08-07T15:02:21Z</time>
      </trkpt>
      <trkpt lat="50.4828" lon="3.15876">
        <ele>56.86</ele>
        <time>2021-08-07T15:02:32Z</time>
      </trkpt>
      <trkpt lat="50.48299" lon="3.15969">
        <ele>56.86</ele>
        <time>2021-08-07T15:02:44Z</time>
      </trkpt>
      <trkpt lat="50.48319" lon="3.16066">
        <ele>56.37</ele>
        <time>2021-08-07T15:02:56Z</time>
      </trkpt>
      <trkpt lat="50.48328" lon="3.16113">
        <ele>56.37</ele>
        <time>2021-08-07T15:03:02Z</time>
      </trkpt>
      <trkpt lat="50.48343" lon="3.16188">
        <ele>56.37</ele>
        <time>2021-08-07T15:03:12Z</time>
      </trkpt>
      <trkpt lat="50.48361" lon="3.16278">
        <ele>56.37</ele>
        <time>2021-08-07T15:03:24Z</time>
      </trkpt>
      <trkpt lat="50.48365" lon="3.16299">
        <ele>56.37</ele>
        <time>2021-08-07T15:03:27Z</time>
      </trkpt>
      <trkpt lat="50.48366" lon="3.16305">
        <ele>56.37</ele>
        <time>2021-08-07T15:03:28Z</time>
      </trkpt>
      <trkpt lat="50.48369" lon="3.16309">
        <ele>56.37</ele>
        <time>2021-08-07T15:03:29Z</time>
      </trkpt>
      <trkpt lat="50.48373" lon="3.16311">
        <ele>56.37</ele>
        <time>2021-08-07T15:03:30Z</time>
      </trkpt>
      <trkpt lat="50.48376" lon="3.16308">
        <ele>56.37</ele>
        <time>2021-08-07T15:03:31Z</time>
      </trkpt>
      <trkpt lat="50.4838" lon="3.16305">
        <ele>56.37</ele>
        <time>2021-08-07T15:03:32Z</time>
      </trkpt>
      <trkpt lat="50.48383" lon="3.16301">
        <ele>56.37</ele>
        <time>2021-08-07T15:03:33Z</time>
      </trkpt>
      <trkpt lat="50.48387" lon="3.16296">
        <ele>56.37</ele>
        <time>2021-08-07T15:03:34Z</time>
      </trkpt>
      <trkpt lat="50.48391" lon="3.16293">
        <ele>56.37</ele>
        <time>2021-08-07T15:03:35Z</time>
      </trkpt>
      <trkpt lat="50.48395" lon="3.16289">
        <ele>56.37</ele>
        <time>2021-08-07T15:03:36Z</time>
      </trkpt>
      <trkpt lat="50.48399" lon="3.16286">
        <ele>56.37</ele>
        <time>2021-08-07T15:03:37Z</time>
      </trkpt>
      <trkpt lat="50.48442" lon="3.16252">
        <ele>56.37</ele>
        <time>2021-08-07T15:03:47Z</time>
      </trkpt>
      <trkpt lat="50.48446" lon="3.16249">
        <ele>56.37</ele>
        <time>2021-08-07T15:03:48Z</time>
      </trkpt>
      <trkpt lat="50.4845" lon="3.16246">
        <ele>56.37</ele>
        <time>2021-08-07T15:03:49Z</time>
      </trkpt>
      <trkpt lat="50.48458" lon="3.16239">
        <ele>56.37</ele>
        <time>2021-08-07T15:03:51Z</time>
      </trkpt>
      <trkpt lat="50.48498" lon="3.16205">
        <ele>57.34</ele>
        <time>2021-08-07T15:04:01Z</time>
      </trkpt>
      <trkpt lat="50.48523" lon="3.16185">
        <ele>57.34</ele>
        <time>2021-08-07T15:04:07Z</time>
      </trkpt>
      <trkpt lat="50.48528" lon="3.16182">
        <ele>57.34</ele>
        <time>2021-08-07T15:04:08Z</time>
      </trkpt>
      <trkpt lat="50.48532" lon="3.16179">
        <ele>57.34</ele>
        <time>2021-08-07T15:04:09Z</time>
      </trkpt>
      <trkpt lat="50.4854" lon="3.16171">
        <ele>57.34</ele>
        <time>2021-08-07T15:04:11Z</time>
      </trkpt>
      <trkpt lat="50.48573" lon="3.16141">
        <ele>57.82</ele>
        <time>2021-08-07T15:04:19Z</time>
      </trkpt>
      <trkpt lat="50.48612" lon="3.16111">
        <ele>57.82</ele>
        <time>2021-08-07T15:04:28Z</time>
      </trkpt>
      <trkpt lat="50.48629" lon="3.16101">
        <ele>57.82</ele>
        <time>2021-08-07T15:04:32Z</time>
      </trkpt>
      <trkpt lat="50.48633" lon="3.16104">
        <ele>57.82</ele>
        <time>2021-08-07T15:04:33Z</time>
      </trkpt>
      <trkpt lat="50.48635" lon="3.16109">
        <ele>57.82</ele>
        <time>2021-08-07T15:04:34Z</time>
      </trkpt>
      <trkpt lat="50.48638" lon="3.16116">
        <ele>57.82</ele>
        <time>2021-08-07T15:04:35Z</time>
      </trkpt>
      <trkpt lat="50.48639" lon="3.16122">
        <ele>57.82</ele>
        <time>2021-08-07T15:04:36Z</time>
      </trkpt>
      <trkpt lat="50.4866" lon="3.16183">
        <ele>57.82</ele>
        <time>2021-08-07T15:04:45Z</time>
      </trkpt>
      <trkpt lat="50.48675" lon="3.16232">
        <ele>57.82</ele>
        <time>2021-08-07T15:04:52Z</time>
      </trkpt>
      <trkpt lat="50.48701" lon="3.16316">
        <ele>58.3</ele>
        <time>2021-08-07T15:05:04Z</time>
      </trkpt>
      <trkpt lat="50.48729" lon="3.16404">
        <ele>58.3</ele>
        <time>2021-08-07T15:05:16Z</time>
      </trkpt>
      <trkpt lat="50.48757" lon="3.16477">
        <ele>58.3</ele>
        <time>2021-08-07T15:05:26Z</time>
      </trkpt>
      <trkpt lat="50.48787" lon="3.16553">
        <ele>58.3</ele>
        <time>2021-08-07T15:05:36Z</time>
      </trkpt>
      <trkpt lat="50.48826" lon="3.16659">
        <ele>58.3</ele>
        <time>2021-08-07T15:05:49Z</time>
      </trkpt>
      <trkpt lat="50.48831" lon="3.16677">
        <ele>56.86</ele>
        <time>2021-08-07T15:05:51Z</time>
      </trkpt>
      <trkpt lat="50.48868" lon="3.16793">
        <ele>56.86</ele>
        <time>2021-08-07T15:06:04Z</time>
      </trkpt>
      <trkpt lat="50.48893" lon="3.16873">
        <ele>56.37</ele>
        <time>2021-08-07T15:06:13Z</time>
      </trkpt>
      <trkpt lat="50.48919" lon="3.1696">
        <ele>55.89</ele>
        <time>2021-08-07T15:06:23Z</time>
      </trkpt>
      <trkpt lat="50.48942" lon="3.17033">
        <ele>55.89</ele>
        <time>2021-08-07T15:06:33Z</time>
      </trkpt>
      <trkpt lat="50.48951" lon="3.1706">
        <ele>55.89</ele>
        <time>2021-08-07T15:06:37Z</time>
      </trkpt>
      <trkpt lat="50.48953" lon="3.17068">
        <ele>55.89</ele>
        <time>2021-08-07T15:06:38Z</time>
      </trkpt>
      <trkpt lat="50.48954" lon="3.17074">
        <ele>55.89</ele>
        <time>2021-08-07T15:06:39Z</time>
      </trkpt>
      <trkpt lat="50.48957" lon="3.17082">
        <ele>55.89</ele>
        <time>2021-08-07T15:06:40Z</time>
      </trkpt>
      <trkpt lat="50.48959" lon="3.17089">
        <ele>55.89</ele>
        <time>2021-08-07T15:06:41Z</time>
      </trkpt>
      <trkpt lat="50.48975" lon="3.17142">
        <ele>55.89</ele>
        <time>2021-08-07T15:06:50Z</time>
      </trkpt>
      <trkpt lat="50.48975" lon="3.17142">
        <ele>56.86</ele>
        <time>2021-08-07T15:06:55Z</time>
      </trkpt>
      <trkpt lat="50.48974" lon="3.17142">
        <ele>56.86</ele>
        <time>2021-08-07T15:07:16Z</time>
      </trkpt>
      <trkpt lat="50.48974" lon="3.17142">
        <ele>56.86</ele>
        <time>2021-08-07T15:07:34Z</time>
      </trkpt>
      <trkpt lat="50.48974" lon="3.17141">
        <ele>56.86</ele>
        <time>2021-08-07T15:07:44Z</time>
      </trkpt>
      <trkpt lat="50.48974" lon="3.17142">
        <ele>56.86</ele>
        <time>2021-08-07T15:07:59Z</time>
      </trkpt>
      <trkpt lat="50.48973" lon="3.17148">
        <ele>56.86</ele>
        <time>2021-08-07T15:08:05Z</time>
      </trkpt>
      <trkpt lat="50.48974" lon="3.1715">
        <ele>56.86</ele>
        <time>2021-08-07T15:08:06Z</time>
      </trkpt>
      <trkpt lat="50.48974" lon="3.17154">
        <ele>56.86</ele>
        <time>2021-08-07T15:08:07Z</time>
      </trkpt>
      <trkpt lat="50.48974" lon="3.17158">
        <ele>56.86</ele>
        <time>2021-08-07T15:08:08Z</time>
      </trkpt>
      <trkpt lat="50.48973" lon="3.17162">
        <ele>56.86</ele>
        <time>2021-08-07T15:08:09Z</time>
      </trkpt>
      <trkpt lat="50.48964" lon="3.17211">
        <ele>55.89</ele>
        <time>2021-08-07T15:08:17Z</time>
      </trkpt>
      <trkpt lat="50.48962" lon="3.17225">
        <ele>55.89</ele>
        <time>2021-08-07T15:08:19Z</time>
      </trkpt>
      <trkpt lat="50.48953" lon="3.17273">
        <ele>54.93</ele>
        <time>2021-08-07T15:08:25Z</time>
      </trkpt>
      <trkpt lat="50.48948" lon="3.1729">
        <ele>54.93</ele>
        <time>2021-08-07T15:08:27Z</time>
      </trkpt>
      <trkpt lat="50.48934" lon="3.17379">
        <ele>53.49</ele>
        <time>2021-08-07T15:08:37Z</time>
      </trkpt>
      <trkpt lat="50.48918" lon="3.17481">
        <ele>52.05</ele>
        <time>2021-08-07T15:08:48Z</time>
      </trkpt>
      <trkpt lat="50.4891" lon="3.17517">
        <ele>52.05</ele>
        <time>2021-08-07T15:08:52Z</time>
      </trkpt>
      <trkpt lat="50.48886" lon="3.17586">
        <ele>50.61</ele>
        <time>2021-08-07T15:09:00Z</time>
      </trkpt>
      <trkpt lat="50.48863" lon="3.17646">
        <ele>50.13</ele>
        <time>2021-08-07T15:09:07Z</time>
      </trkpt>
      <trkpt lat="50.4884" lon="3.17719">
        <ele>49.16</ele>
        <time>2021-08-07T15:09:15Z</time>
      </trkpt>
      <trkpt lat="50.4882" lon="3.17797">
        <ele>48.68</ele>
        <time>2021-08-07T15:09:23Z</time>
      </trkpt>
      <trkpt lat="50.48792" lon="3.1791">
        <ele>48.2</ele>
        <time>2021-08-07T15:09:35Z</time>
      </trkpt>
      <trkpt lat="50.48763" lon="3.18027">
        <ele>47.24</ele>
        <time>2021-08-07T15:09:47Z</time>
      </trkpt>
      <trkpt lat="50.48738" lon="3.18131">
        <ele>46.28</ele>
        <time>2021-08-07T15:09:58Z</time>
      </trkpt>
      <trkpt lat="50.48713" lon="3.18235">
        <ele>45.8</ele>
        <time>2021-08-07T15:10:09Z</time>
      </trkpt>
      <trkpt lat="50.48693" lon="3.18322">
        <ele>44.36</ele>
        <time>2021-08-07T15:10:18Z</time>
      </trkpt>
      <trkpt lat="50.4867" lon="3.18419">
        <ele>44.36</ele>
        <time>2021-08-07T15:10:28Z</time>
      </trkpt>
      <trkpt lat="50.48662" lon="3.18447">
        <ele>43.4</ele>
        <time>2021-08-07T15:10:31Z</time>
      </trkpt>
      <trkpt lat="50.48658" lon="3.18456">
        <ele>43.4</ele>
        <time>2021-08-07T15:10:32Z</time>
      </trkpt>
      <trkpt lat="50.48654" lon="3.18463">
        <ele>43.4</ele>
        <time>2021-08-07T15:10:33Z</time>
      </trkpt>
      <trkpt lat="50.4865" lon="3.18471">
        <ele>43.4</ele>
        <time>2021-08-07T15:10:34Z</time>
      </trkpt>
      <trkpt lat="50.48645" lon="3.18477">
        <ele>43.4</ele>
        <time>2021-08-07T15:10:35Z</time>
      </trkpt>
      <trkpt lat="50.48589" lon="3.18551">
        <ele>43.4</ele>
        <time>2021-08-07T15:10:47Z</time>
      </trkpt>
      <trkpt lat="50.48555" lon="3.1858">
        <ele>43.4</ele>
        <time>2021-08-07T15:10:54Z</time>
      </trkpt>
      <trkpt lat="50.48533" lon="3.18599">
        <ele>43.4</ele>
        <time>2021-08-07T15:10:59Z</time>
      </trkpt>
      <trkpt lat="50.48529" lon="3.18601">
        <ele>43.4</ele>
        <time>2021-08-07T15:11:00Z</time>
      </trkpt>
      <trkpt lat="50.48524" lon="3.18602">
        <ele>43.4</ele>
        <time>2021-08-07T15:11:01Z</time>
      </trkpt>
      <trkpt lat="50.48519" lon="3.186">
        <ele>42.92</ele>
        <time>2021-08-07T15:11:02Z</time>
      </trkpt>
      <trkpt lat="50.48514" lon="3.18596">
        <ele>42.92</ele>
        <time>2021-08-07T15:11:03Z</time>
      </trkpt>
      <trkpt lat="50.48509" lon="3.18592">
        <ele>42.92</ele>
        <time>2021-08-07T15:11:04Z</time>
      </trkpt>
      <trkpt lat="50.48505" lon="3.18588">
        <ele>42.92</ele>
        <time>2021-08-07T15:11:05Z</time>
      </trkpt>
      <trkpt lat="50.48499" lon="3.18584">
        <ele>42.92</ele>
        <time>2021-08-07T15:11:06Z</time>
      </trkpt>
      <trkpt lat="50.48494" lon="3.18582">
        <ele>42.92</ele>
        <time>2021-08-07T15:11:07Z</time>
      </trkpt>
      <trkpt lat="50.48489" lon="3.18581">
        <ele>42.92</ele>
        <time>2021-08-07T15:11:08Z</time>
      </trkpt>
      <trkpt lat="50.48483" lon="3.18582">
        <ele>42.92</ele>
        <time>2021-08-07T15:11:09Z</time>
      </trkpt>
      <trkpt lat="50.48477" lon="3.18584">
        <ele>42.92</ele>
        <time>2021-08-07T15:11:10Z</time>
      </trkpt>
      <trkpt lat="50.48472" lon="3.18587">
        <ele>42.44</ele>
        <time>2021-08-07T15:11:11Z</time>
      </trkpt>
      <trkpt lat="50.48461" lon="3.18594">
        <ele>42.44</ele>
        <time>2021-08-07T15:11:13Z</time>
      </trkpt>
      <trkpt lat="50.48456" lon="3.18599">
        <ele>42.44</ele>
        <time>2021-08-07T15:11:14Z</time>
      </trkpt>
      <trkpt lat="50.48451" lon="3.18605">
        <ele>42.44</ele>
        <time>2021-08-07T15:11:15Z</time>
      </trkpt>
      <trkpt lat="50.48421" lon="3.18651">
        <ele>41.95</ele>
        <time>2021-08-07T15:11:22Z</time>
      </trkpt>
      <trkpt lat="50.48417" lon="3.18659">
        <ele>41.95</ele>
        <time>2021-08-07T15:11:23Z</time>
      </trkpt>
      <trkpt lat="50.48394" lon="3.18725">
        <ele>41.95</ele>
        <time>2021-08-07T15:11:31Z</time>
      </trkpt>
      <trkpt lat="50.48384" lon="3.18762">
        <ele>41.47</ele>
        <time>2021-08-07T15:11:35Z</time>
      </trkpt>
      <trkpt lat="50.48366" lon="3.18828">
        <ele>40.99</ele>
        <time>2021-08-07T15:11:42Z</time>
      </trkpt>
      <trkpt lat="50.4834" lon="3.18907">
        <ele>40.51</ele>
        <time>2021-08-07T15:11:51Z</time>
      </trkpt>
      <trkpt lat="50.48314" lon="3.18984">
        <ele>40.51</ele>
        <time>2021-08-07T15:12:00Z</time>
      </trkpt>
      <trkpt lat="50.48301" lon="3.19015">
        <ele>40.51</ele>
        <time>2021-08-07T15:12:04Z</time>
      </trkpt>
      <trkpt lat="50.4829" lon="3.19037">
        <ele>41.47</ele>
        <time>2021-08-07T15:12:07Z</time>
      </trkpt>
      <trkpt lat="50.48282" lon="3.19051">
        <ele>41.47</ele>
        <time>2021-08-07T15:12:09Z</time>
      </trkpt>
      <trkpt lat="50.48252" lon="3.19093">
        <ele>41.47</ele>
        <time>2021-08-07T15:12:16Z</time>
      </trkpt>
      <trkpt lat="50.48232" lon="3.19151">
        <ele>41.95</ele>
        <time>2021-08-07T15:12:24Z</time>
      </trkpt>
      <trkpt lat="50.48224" lon="3.19179">
        <ele>42.92</ele>
        <time>2021-08-07T15:12:28Z</time>
      </trkpt>
      <trkpt lat="50.48223" lon="3.19187">
        <ele>42.92</ele>
        <time>2021-08-07T15:12:29Z</time>
      </trkpt>
      <trkpt lat="50.48222" lon="3.19194">
        <ele>42.92</ele>
        <time>2021-08-07T15:12:30Z</time>
      </trkpt>
      <trkpt lat="50.48219" lon="3.19209">
        <ele>42.92</ele>
        <time>2021-08-07T15:12:32Z</time>
      </trkpt>
      <trkpt lat="50.48218" lon="3.19216">
        <ele>42.92</ele>
        <time>2021-08-07T15:12:33Z</time>
      </trkpt>
      <trkpt lat="50.48217" lon="3.19224">
        <ele>42.92</ele>
        <time>2021-08-07T15:12:34Z</time>
      </trkpt>
      <trkpt lat="50.48217" lon="3.19257">
        <ele>42.92</ele>
        <time>2021-08-07T15:12:38Z</time>
      </trkpt>
      <trkpt lat="50.48221" lon="3.19328">
        <ele>43.4</ele>
        <time>2021-08-07T15:12:46Z</time>
      </trkpt>
      <trkpt lat="50.48227" lon="3.19401">
        <ele>43.88</ele>
        <time>2021-08-07T15:12:54Z</time>
      </trkpt>
      <trkpt lat="50.4823" lon="3.1941">
        <ele>43.88</ele>
        <time>2021-08-07T15:12:55Z</time>
      </trkpt>
      <trkpt lat="50.48268" lon="3.19527">
        <ele>43.88</ele>
        <time>2021-08-07T15:13:09Z</time>
      </trkpt>
      <trkpt lat="50.48281" lon="3.19567">
        <ele>43.88</ele>
        <time>2021-08-07T15:13:14Z</time>
      </trkpt>
      <trkpt lat="50.48289" lon="3.19613">
        <ele>43.88</ele>
        <time>2021-08-07T15:13:19Z</time>
      </trkpt>
      <trkpt lat="50.48288" lon="3.19622">
        <ele>43.88</ele>
        <time>2021-08-07T15:13:20Z</time>
      </trkpt>
      <trkpt lat="50.48286" lon="3.19631">
        <ele>43.88</ele>
        <time>2021-08-07T15:13:21Z</time>
      </trkpt>
      <trkpt lat="50.48284" lon="3.19639">
        <ele>43.88</ele>
        <time>2021-08-07T15:13:22Z</time>
      </trkpt>
      <trkpt lat="50.48281" lon="3.19646">
        <ele>43.88</ele>
        <time>2021-08-07T15:13:23Z</time>
      </trkpt>
      <trkpt lat="50.48275" lon="3.1966">
        <ele>43.88</ele>
        <time>2021-08-07T15:13:25Z</time>
      </trkpt>
      <trkpt lat="50.48251" lon="3.19712">
        <ele>43.88</ele>
        <time>2021-08-07T15:13:33Z</time>
      </trkpt>
      <trkpt lat="50.48222" lon="3.19771">
        <ele>45.8</ele>
        <time>2021-08-07T15:13:43Z</time>
      </trkpt>
      <trkpt lat="50.48208" lon="3.198">
        <ele>45.8</ele>
        <time>2021-08-07T15:13:48Z</time>
      </trkpt>
      <trkpt lat="50.48189" lon="3.1983">
        <ele>46.28</ele>
        <time>2021-08-07T15:13:55Z</time>
      </trkpt>
      <trkpt lat="50.48181" lon="3.1983">
        <ele>47.24</ele>
        <time>2021-08-07T15:13:59Z</time>
      </trkpt>
      <trkpt lat="50.4818" lon="3.19831">
        <ele>47.24</ele>
        <time>2021-08-07T15:14:08Z</time>
      </trkpt>
      <trkpt lat="50.48181" lon="3.1983">
        <ele>46.76</ele>
        <time>2021-08-07T15:14:15Z</time>
      </trkpt>
      <trkpt lat="50.48181" lon="3.19829">
        <ele>46.76</ele>
        <time>2021-08-07T15:14:22Z</time>
      </trkpt>
      <trkpt lat="50.48181" lon="3.19828">
        <ele>47.24</ele>
        <time>2021-08-07T15:14:46Z</time>
      </trkpt>
      <trkpt lat="50.48181" lon="3.19828">
        <ele>47.24</ele>
        <time>2021-08-07T15:15:07Z</time>
      </trkpt>
      <trkpt lat="50.48181" lon="3.19828">
        <ele>47.24</ele>
        <time>2021-08-07T15:15:21Z</time>
      </trkpt>
      <trkpt lat="50.4818" lon="3.19827">
        <ele>47.72</ele>
        <time>2021-08-07T15:15:39Z</time>
      </trkpt>
      <trkpt lat="50.4818" lon="3.19826">
        <ele>47.72</ele>
        <time>2021-08-07T15:15:54Z</time>
      </trkpt>
      <trkpt lat="50.4818" lon="3.19827">
        <ele>47.72</ele>
        <time>2021-08-07T15:16:10Z</time>
      </trkpt>
      <trkpt lat="50.4818" lon="3.19831">
        <ele>47.72</ele>
        <time>2021-08-07T15:16:34Z</time>
      </trkpt>
      <trkpt lat="50.4818" lon="3.19832">
        <ele>47.72</ele>
        <time>2021-08-07T15:16:58Z</time>
      </trkpt>
      <trkpt lat="50.4818" lon="3.19828">
        <ele>47.72</ele>
        <time>2021-08-07T15:17:36Z</time>
      </trkpt>
      <trkpt lat="50.4818" lon="3.19828">
        <ele>47.72</ele>
        <time>2021-08-07T15:17:58Z</time>
      </trkpt>
      <trkpt lat="50.48179" lon="3.19832">
        <ele>47.24</ele>
        <time>2021-08-07T15:18:22Z</time>
      </trkpt>
      <trkpt lat="50.48179" lon="3.1983">
        <ele>47.24</ele>
        <time>2021-08-07T15:18:29Z</time>
      </trkpt>
      <trkpt lat="50.48178" lon="3.19832">
        <ele>47.24</ele>
        <time>2021-08-07T15:18:42Z</time>
      </trkpt>
      <trkpt lat="50.48178" lon="3.19831">
        <ele>47.24</ele>
        <time>2021-08-07T15:19:01Z</time>
      </trkpt>
      <trkpt lat="50.48178" lon="3.1983">
        <ele>47.24</ele>
        <time>2021-08-07T15:19:21Z</time>
      </trkpt>
      <trkpt lat="50.48178" lon="3.19831">
        <ele>47.24</ele>
        <time>2021-08-07T15:19:42Z</time>
      </trkpt>
      <trkpt lat="50.48178" lon="3.19832">
        <ele>47.24</ele>
        <time>2021-08-07T15:20:03Z</time>
      </trkpt>
      <trkpt lat="50.48178" lon="3.19831">
        <ele>47.72</ele>
        <time>2021-08-07T15:20:25Z</time>
      </trkpt>
      <trkpt lat="50.48179" lon="3.1983">
        <ele>47.72</ele>
        <time>2021-08-07T15:20:34Z</time>
      </trkpt>
      <trkpt lat="50.4818" lon="3.19829">
        <ele>47.72</ele>
        <time>2021-08-07T15:20:48Z</time>
      </trkpt>
      <trkpt lat="50.48181" lon="3.19829">
        <ele>47.72</ele>
        <time>2021-08-07T15:20:51Z</time>
      </trkpt>
      <trkpt lat="50.48187" lon="3.19835">
        <ele>47.72</ele>
        <time>2021-08-07T15:20:56Z</time>
      </trkpt>
      <trkpt lat="50.48187" lon="3.19838">
        <ele>47.72</ele>
        <time>2021-08-07T15:20:57Z</time>
      </trkpt>
      <trkpt lat="50.48187" lon="3.19841">
        <ele>47.72</ele>
        <time>2021-08-07T15:20:58Z</time>
      </trkpt>
      <trkpt lat="50.48186" lon="3.19845">
        <ele>47.72</ele>
        <time>2021-08-07T15:20:59Z</time>
      </trkpt>
      <trkpt lat="50.48184" lon="3.19847">
        <ele>47.72</ele>
        <time>2021-08-07T15:21:00Z</time>
      </trkpt>
      <trkpt lat="50.48183" lon="3.1985">
        <ele>47.72</ele>
        <time>2021-08-07T15:21:01Z</time>
      </trkpt>
      <trkpt lat="50.48182" lon="3.19853">
        <ele>46.76</ele>
        <time>2021-08-07T15:21:02Z</time>
      </trkpt>
      <trkpt lat="50.4818" lon="3.19856">
        <ele>46.76</ele>
        <time>2021-08-07T15:21:03Z</time>
      </trkpt>
      <trkpt lat="50.48169" lon="3.19885">
        <ele>46.76</ele>
        <time>2021-08-07T15:21:09Z</time>
      </trkpt>
      <trkpt lat="50.48165" lon="3.19897">
        <ele>46.76</ele>
        <time>2021-08-07T15:21:11Z</time>
      </trkpt>
      <trkpt lat="50.48163" lon="3.19903">
        <ele>46.76</ele>
        <time>2021-08-07T15:21:12Z</time>
      </trkpt>
      <trkpt lat="50.48149" lon="3.1994">
        <ele>46.76</ele>
        <time>2021-08-07T15:21:18Z</time>
      </trkpt>
      <trkpt lat="50.4814" lon="3.19976">
        <ele>47.72</ele>
        <time>2021-08-07T15:21:23Z</time>
      </trkpt>
      <trkpt lat="50.48129" lon="3.20031">
        <ele>47.72</ele>
        <time>2021-08-07T15:21:30Z</time>
      </trkpt>
      <trkpt lat="50.48115" lon="3.20116">
        <ele>46.76</ele>
        <time>2021-08-07T15:21:40Z</time>
      </trkpt>
      <trkpt lat="50.4811" lon="3.20132">
        <ele>46.76</ele>
        <time>2021-08-07T15:21:42Z</time>
      </trkpt>
      <trkpt lat="50.4808" lon="3.20195">
        <ele>46.76</ele>
        <time>2021-08-07T15:21:51Z</time>
      </trkpt>
      <trkpt lat="50.48041" lon="3.20258">
        <ele>46.76</ele>
        <time>2021-08-07T15:22:02Z</time>
      </trkpt>
      <trkpt lat="50.4801" lon="3.20309">
        <ele>46.76</ele>
        <time>2021-08-07T15:22:11Z</time>
      </trkpt>
      <trkpt lat="50.47984" lon="3.20358">
        <ele>47.72</ele>
        <time>2021-08-07T15:22:19Z</time>
      </trkpt>
      <trkpt lat="50.47981" lon="3.20365">
        <ele>47.72</ele>
        <time>2021-08-07T15:22:20Z</time>
      </trkpt>
      <trkpt lat="50.4798" lon="3.20372">
        <ele>48.2</ele>
        <time>2021-08-07T15:22:21Z</time>
      </trkpt>
      <trkpt lat="50.47978" lon="3.20379">
        <ele>48.2</ele>
        <time>2021-08-07T15:22:22Z</time>
      </trkpt>
      <trkpt lat="50.47978" lon="3.20386">
        <ele>48.68</ele>
        <time>2021-08-07T15:22:23Z</time>
      </trkpt>
      <trkpt lat="50.47977" lon="3.20394">
        <ele>49.16</ele>
        <time>2021-08-07T15:22:24Z</time>
      </trkpt>
      <trkpt lat="50.47977" lon="3.204">
        <ele>49.16</ele>
        <time>2021-08-07T15:22:25Z</time>
      </trkpt>
      <trkpt lat="50.47977" lon="3.20406">
        <ele>49.16</ele>
        <time>2021-08-07T15:22:26Z</time>
      </trkpt>
      <trkpt lat="50.47977" lon="3.20413">
        <ele>49.16</ele>
        <time>2021-08-07T15:22:27Z</time>
      </trkpt>
      <trkpt lat="50.47975" lon="3.20418">
        <ele>49.16</ele>
        <time>2021-08-07T15:22:28Z</time>
      </trkpt>
      <trkpt lat="50.47973" lon="3.20423">
        <ele>49.16</ele>
        <time>2021-08-07T15:22:29Z</time>
      </trkpt>
      <trkpt lat="50.47969" lon="3.20425">
        <ele>49.16</ele>
        <time>2021-08-07T15:22:30Z</time>
      </trkpt>
      <trkpt lat="50.47965" lon="3.20428">
        <ele>49.16</ele>
        <time>2021-08-07T15:22:31Z</time>
      </trkpt>
      <trkpt lat="50.47935" lon="3.20448">
        <ele>49.16</ele>
        <time>2021-08-07T15:22:39Z</time>
      </trkpt>
      <trkpt lat="50.47908" lon="3.20456">
        <ele>49.65</ele>
        <time>2021-08-07T15:22:46Z</time>
      </trkpt>
      <trkpt lat="50.47873" lon="3.20457">
        <ele>49.65</ele>
        <time>2021-08-07T15:22:55Z</time>
      </trkpt>
      <trkpt lat="50.47867" lon="3.20459">
        <ele>49.65</ele>
        <time>2021-08-07T15:22:57Z</time>
      </trkpt>
      <trkpt lat="50.47866" lon="3.20462">
        <ele>49.65</ele>
        <time>2021-08-07T15:22:58Z</time>
      </trkpt>
      <trkpt lat="50.47867" lon="3.20464">
        <ele>49.65</ele>
        <time>2021-08-07T15:22:59Z</time>
      </trkpt>
      <trkpt lat="50.4787" lon="3.20464">
        <ele>49.65</ele>
        <time>2021-08-07T15:23:00Z</time>
      </trkpt>
      <trkpt lat="50.47872" lon="3.20463">
        <ele>49.65</ele>
        <time>2021-08-07T15:23:01Z</time>
      </trkpt>
      <trkpt lat="50.47879" lon="3.20461">
        <ele>49.65</ele>
        <time>2021-08-07T15:23:03Z</time>
      </trkpt>
      <trkpt lat="50.47884" lon="3.2046">
        <ele>49.65</ele>
        <time>2021-08-07T15:23:04Z</time>
      </trkpt>
      <trkpt lat="50.47925" lon="3.20457">
        <ele>49.65</ele>
        <time>2021-08-07T15:23:13Z</time>
      </trkpt>
      <trkpt lat="50.47936" lon="3.20458">
        <ele>49.65</ele>
        <time>2021-08-07T15:23:15Z</time>
      </trkpt>
      <trkpt lat="50.4794" lon="3.2046">
        <ele>49.65</ele>
        <time>2021-08-07T15:23:16Z</time>
      </trkpt>
      <trkpt lat="50.47944" lon="3.20463">
        <ele>49.65</ele>
        <time>2021-08-07T15:23:17Z</time>
      </trkpt>
      <trkpt lat="50.47948" lon="3.20468">
        <ele>48.68</ele>
        <time>2021-08-07T15:23:18Z</time>
      </trkpt>
      <trkpt lat="50.47952" lon="3.20473">
        <ele>48.68</ele>
        <time>2021-08-07T15:23:19Z</time>
      </trkpt>
      <trkpt lat="50.47964" lon="3.20489">
        <ele>48.68</ele>
        <time>2021-08-07T15:23:22Z</time>
      </trkpt>
      <trkpt lat="50.4797" lon="3.20492">
        <ele>48.68</ele>
        <time>2021-08-07T15:23:23Z</time>
      </trkpt>
      <trkpt lat="50.47982" lon="3.20498">
        <ele>48.2</ele>
        <time>2021-08-07T15:23:25Z</time>
      </trkpt>
      <trkpt lat="50.48001" lon="3.20505">
        <ele>47.72</ele>
        <time>2021-08-07T15:23:28Z</time>
      </trkpt>
      <trkpt lat="50.48007" lon="3.2051">
        <ele>47.72</ele>
        <time>2021-08-07T15:23:29Z</time>
      </trkpt>
      <trkpt lat="50.48018" lon="3.20522">
        <ele>47.24</ele>
        <time>2021-08-07T15:23:31Z</time>
      </trkpt>
      <trkpt lat="50.48023" lon="3.20529">
        <ele>47.24</ele>
        <time>2021-08-07T15:23:32Z</time>
      </trkpt>
      <trkpt lat="50.48056" lon="3.20581">
        <ele>46.76</ele>
        <time>2021-08-07T15:23:39Z</time>
      </trkpt>
      <trkpt lat="50.48085" lon="3.20631">
        <ele>46.28</ele>
        <time>2021-08-07T15:23:46Z</time>
      </trkpt>
      <trkpt lat="50.48098" lon="3.20661">
        <ele>46.28</ele>
        <time>2021-08-07T15:23:50Z</time>
      </trkpt>
      <trkpt lat="50.48102" lon="3.20668">
        <ele>45.8</ele>
        <time>2021-08-07T15:23:51Z</time>
      </trkpt>
      <trkpt lat="50.48118" lon="3.20709">
        <ele>45.8</ele>
        <time>2021-08-07T15:23:56Z</time>
      </trkpt>
      <trkpt lat="50.48122" lon="3.20716">
        <ele>45.8</ele>
        <time>2021-08-07T15:23:57Z</time>
      </trkpt>
      <trkpt lat="50.48127" lon="3.20723">
        <ele>45.8</ele>
        <time>2021-08-07T15:23:58Z</time>
      </trkpt>
      <trkpt lat="50.48152" lon="3.20757">
        <ele>45.8</ele>
        <time>2021-08-07T15:24:04Z</time>
      </trkpt>
      <trkpt lat="50.48153" lon="3.2076">
        <ele>45.8</ele>
        <time>2021-08-07T15:24:05Z</time>
      </trkpt>
      <trkpt lat="50.48153" lon="3.20763">
        <ele>45.8</ele>
        <time>2021-08-07T15:24:11Z</time>
      </trkpt>
      <trkpt lat="50.48154" lon="3.20765">
        <ele>45.8</ele>
        <time>2021-08-07T15:24:13Z</time>
      </trkpt>
      <trkpt lat="50.48156" lon="3.20766">
        <ele>45.8</ele>
        <time>2021-08-07T15:24:14Z</time>
      </trkpt>
      <trkpt lat="50.48157" lon="3.20767">
        <ele>45.8</ele>
        <time>2021-08-07T15:24:15Z</time>
      </trkpt>
      <trkpt lat="50.48159" lon="3.20768">
        <ele>45.8</ele>
        <time>2021-08-07T15:24:16Z</time>
      </trkpt>
      <trkpt lat="50.48162" lon="3.20768">
        <ele>45.8</ele>
        <time>2021-08-07T15:24:17Z</time>
      </trkpt>
      <trkpt lat="50.48165" lon="3.20769">
        <ele>45.8</ele>
        <time>2021-08-07T15:24:18Z</time>
      </trkpt>
      <trkpt lat="50.48169" lon="3.20771">
        <ele>45.8</ele>
        <time>2021-08-07T15:24:19Z</time>
      </trkpt>
      <trkpt lat="50.48172" lon="3.20774">
        <ele>45.8</ele>
        <time>2021-08-07T15:24:20Z</time>
      </trkpt>
      <trkpt lat="50.48176" lon="3.20777">
        <ele>45.8</ele>
        <time>2021-08-07T15:24:21Z</time>
      </trkpt>
      <trkpt lat="50.4818" lon="3.20782">
        <ele>45.8</ele>
        <time>2021-08-07T15:24:22Z</time>
      </trkpt>
      <trkpt lat="50.48184" lon="3.20786">
        <ele>45.8</ele>
        <time>2021-08-07T15:24:23Z</time>
      </trkpt>
      <trkpt lat="50.48188" lon="3.20791">
        <ele>45.8</ele>
        <time>2021-08-07T15:24:24Z</time>
      </trkpt>
      <trkpt lat="50.48223" lon="3.20824">
        <ele>45.32</ele>
        <time>2021-08-07T15:24:31Z</time>
      </trkpt>
      <trkpt lat="50.48269" lon="3.20864">
        <ele>43.88</ele>
        <time>2021-08-07T15:24:39Z</time>
      </trkpt>
      <trkpt lat="50.48326" lon="3.20913">
        <ele>43.4</ele>
        <time>2021-08-07T15:24:48Z</time>
      </trkpt>
      <trkpt lat="50.48378" lon="3.20957">
        <ele>41.95</ele>
        <time>2021-08-07T15:24:56Z</time>
      </trkpt>
      <trkpt lat="50.48398" lon="3.20972">
        <ele>41.47</ele>
        <time>2021-08-07T15:24:59Z</time>
      </trkpt>
      <trkpt lat="50.48404" lon="3.20975">
        <ele>41.47</ele>
        <time>2021-08-07T15:25:00Z</time>
      </trkpt>
      <trkpt lat="50.48411" lon="3.20978">
        <ele>41.47</ele>
        <time>2021-08-07T15:25:01Z</time>
      </trkpt>
      <trkpt lat="50.48418" lon="3.2098">
        <ele>40.99</ele>
        <time>2021-08-07T15:25:02Z</time>
      </trkpt>
      <trkpt lat="50.48425" lon="3.20981">
        <ele>40.99</ele>
        <time>2021-08-07T15:25:03Z</time>
      </trkpt>
      <trkpt lat="50.48491" lon="3.20996">
        <ele>39.55</ele>
        <time>2021-08-07T15:25:12Z</time>
      </trkpt>
      <trkpt lat="50.48512" lon="3.21003">
        <ele>39.55</ele>
        <time>2021-08-07T15:25:15Z</time>
      </trkpt>
      <trkpt lat="50.48576" lon="3.2103">
        <ele>39.55</ele>
        <time>2021-08-07T15:25:24Z</time>
      </trkpt>
      <trkpt lat="50.48647" lon="3.21049">
        <ele>38.59</ele>
        <time>2021-08-07T15:25:34Z</time>
      </trkpt>
      <trkpt lat="50.48713" lon="3.21049">
        <ele>38.11</ele>
        <time>2021-08-07T15:25:43Z</time>
      </trkpt>
      <trkpt lat="50.48761" lon="3.21061">
        <ele>37.63</ele>
        <time>2021-08-07T15:25:50Z</time>
      </trkpt>
      <trkpt lat="50.48819" lon="3.21083">
        <ele>37.63</ele>
        <time>2021-08-07T15:25:59Z</time>
      </trkpt>
      <trkpt lat="50.48869" lon="3.21109">
        <ele>37.63</ele>
        <time>2021-08-07T15:26:07Z</time>
      </trkpt>
      <trkpt lat="50.48874" lon="3.21115">
        <ele>37.63</ele>
        <time>2021-08-07T15:26:08Z</time>
      </trkpt>
      <trkpt lat="50.48877" lon="3.21123">
        <ele>37.63</ele>
        <time>2021-08-07T15:26:09Z</time>
      </trkpt>
      <trkpt lat="50.48879" lon="3.21132">
        <ele>37.63</ele>
        <time>2021-08-07T15:26:10Z</time>
      </trkpt>
      <trkpt lat="50.48879" lon="3.21144">
        <ele>37.63</ele>
        <time>2021-08-07T15:26:11Z</time>
      </trkpt>
      <trkpt lat="50.48879" lon="3.2115">
        <ele>37.63</ele>
        <time>2021-08-07T15:26:12Z</time>
      </trkpt>
      <trkpt lat="50.48877" lon="3.2116">
        <ele>37.63</ele>
        <time>2021-08-07T15:26:13Z</time>
      </trkpt>
      <trkpt lat="50.48872" lon="3.21184">
        <ele>38.59</ele>
        <time>2021-08-07T15:26:16Z</time>
      </trkpt>
      <trkpt lat="50.48867" lon="3.21251">
        <ele>41.47</ele>
        <time>2021-08-07T15:26:25Z</time>
      </trkpt>
      <trkpt lat="50.48874" lon="3.2131">
        <ele>43.88</ele>
        <time>2021-08-07T15:26:34Z</time>
      </trkpt>
      <trkpt lat="50.48889" lon="3.21365">
        <ele>45.32</ele>
        <time>2021-08-07T15:26:43Z</time>
      </trkpt>
      <trkpt lat="50.48905" lon="3.21423">
        <ele>46.28</ele>
        <time>2021-08-07T15:26:52Z</time>
      </trkpt>
      <trkpt lat="50.48927" lon="3.215">
        <ele>44.84</ele>
        <time>2021-08-07T15:27:02Z</time>
      </trkpt>
      <trkpt lat="50.48929" lon="3.2151">
        <ele>44.36</ele>
        <time>2021-08-07T15:27:03Z</time>
      </trkpt>
      <trkpt lat="50.48946" lon="3.2158">
        <ele>41.47</ele>
        <time>2021-08-07T15:27:10Z</time>
      </trkpt>
      <trkpt lat="50.48948" lon="3.21592">
        <ele>41.47</ele>
        <time>2021-08-07T15:27:11Z</time>
      </trkpt>
      <trkpt lat="50.48951" lon="3.21627">
        <ele>40.03</ele>
        <time>2021-08-07T15:27:14Z</time>
      </trkpt>
      <trkpt lat="50.48948" lon="3.21675">
        <ele>38.11</ele>
        <time>2021-08-07T15:27:18Z</time>
      </trkpt>
      <trkpt lat="50.48941" lon="3.2171">
        <ele>38.11</ele>
        <time>2021-08-07T15:27:21Z</time>
      </trkpt>
      <trkpt lat="50.48908" lon="3.21801">
        <ele>36.19</ele>
        <time>2021-08-07T15:27:30Z</time>
      </trkpt>
      <trkpt lat="50.48872" lon="3.21882">
        <ele>35.71</ele>
        <time>2021-08-07T15:27:39Z</time>
      </trkpt>
      <trkpt lat="50.4883" lon="3.21963">
        <ele>35.71</ele>
        <time>2021-08-07T15:27:49Z</time>
      </trkpt>
      <trkpt lat="50.48796" lon="3.22022">
        <ele>35.23</ele>
        <time>2021-08-07T15:27:57Z</time>
      </trkpt>
      <trkpt lat="50.48759" lon="3.22089">
        <ele>35.23</ele>
        <time>2021-08-07T15:28:06Z</time>
      </trkpt>
      <trkpt lat="50.48734" lon="3.22166">
        <ele>35.23</ele>
        <time>2021-08-07T15:28:15Z</time>
      </trkpt>
      <trkpt lat="50.48729" lon="3.22183">
        <ele>36.19</ele>
        <time>2021-08-07T15:28:17Z</time>
      </trkpt>
      <trkpt lat="50.48727" lon="3.2219">
        <ele>36.19</ele>
        <time>2021-08-07T15:28:18Z</time>
      </trkpt>
      <trkpt lat="50.48723" lon="3.22195">
        <ele>36.19</ele>
        <time>2021-08-07T15:28:19Z</time>
      </trkpt>
      <trkpt lat="50.48718" lon="3.22198">
        <ele>36.19</ele>
        <time>2021-08-07T15:28:20Z</time>
      </trkpt>
      <trkpt lat="50.48713" lon="3.22199">
        <ele>36.19</ele>
        <time>2021-08-07T15:28:21Z</time>
      </trkpt>
      <trkpt lat="50.48708" lon="3.22199">
        <ele>36.19</ele>
        <time>2021-08-07T15:28:22Z</time>
      </trkpt>
      <trkpt lat="50.48702" lon="3.222">
        <ele>36.19</ele>
        <time>2021-08-07T15:28:23Z</time>
      </trkpt>
      <trkpt lat="50.48697" lon="3.22202">
        <ele>36.19</ele>
        <time>2021-08-07T15:28:24Z</time>
      </trkpt>
      <trkpt lat="50.48692" lon="3.22206">
        <ele>36.19</ele>
        <time>2021-08-07T15:28:25Z</time>
      </trkpt>
      <trkpt lat="50.48689" lon="3.22209">
        <ele>36.19</ele>
        <time>2021-08-07T15:28:26Z</time>
      </trkpt>
      <trkpt lat="50.48685" lon="3.22215">
        <ele>36.19</ele>
        <time>2021-08-07T15:28:27Z</time>
      </trkpt>
      <trkpt lat="50.48681" lon="3.22222">
        <ele>36.19</ele>
        <time>2021-08-07T15:28:28Z</time>
      </trkpt>
      <trkpt lat="50.48679" lon="3.22229">
        <ele>36.19</ele>
        <time>2021-08-07T15:28:29Z</time>
      </trkpt>
      <trkpt lat="50.48676" lon="3.22237">
        <ele>36.19</ele>
        <time>2021-08-07T15:28:30Z</time>
      </trkpt>
      <trkpt lat="50.4866" lon="3.22297">
        <ele>35.23</ele>
        <time>2021-08-07T15:28:37Z</time>
      </trkpt>
      <trkpt lat="50.48633" lon="3.22394">
        <ele>34.26</ele>
        <time>2021-08-07T15:28:48Z</time>
      </trkpt>
      <trkpt lat="50.4863" lon="3.22403">
        <ele>34.26</ele>
        <time>2021-08-07T15:28:49Z</time>
      </trkpt>
      <trkpt lat="50.48597" lon="3.22483">
        <ele>34.26</ele>
        <time>2021-08-07T15:28:59Z</time>
      </trkpt>
      <trkpt lat="50.48557" lon="3.2257">
        <ele>34.26</ele>
        <time>2021-08-07T15:29:10Z</time>
      </trkpt>
      <trkpt lat="50.48521" lon="3.22635">
        <ele>34.26</ele>
        <time>2021-08-07T15:29:19Z</time>
      </trkpt>
      <trkpt lat="50.48479" lon="3.22685">
        <ele>34.26</ele>
        <time>2021-08-07T15:29:28Z</time>
      </trkpt>
      <trkpt lat="50.4844" lon="3.22737">
        <ele>33.78</ele>
        <time>2021-08-07T15:29:37Z</time>
      </trkpt>
      <trkpt lat="50.48407" lon="3.22793">
        <ele>33.78</ele>
        <time>2021-08-07T15:29:46Z</time>
      </trkpt>
      <trkpt lat="50.48378" lon="3.22844">
        <ele>34.74</ele>
        <time>2021-08-07T15:29:54Z</time>
      </trkpt>
      <trkpt lat="50.48344" lon="3.22902">
        <ele>34.74</ele>
        <time>2021-08-07T15:30:03Z</time>
      </trkpt>
      <trkpt lat="50.4834" lon="3.22908">
        <ele>34.74</ele>
        <time>2021-08-07T15:30:04Z</time>
      </trkpt>
      <trkpt lat="50.48316" lon="3.22952">
        <ele>35.23</ele>
        <time>2021-08-07T15:30:12Z</time>
      </trkpt>
      <trkpt lat="50.48289" lon="3.23001">
        <ele>36.19</ele>
        <time>2021-08-07T15:30:21Z</time>
      </trkpt>
      <trkpt lat="50.48255" lon="3.2306">
        <ele>36.19</ele>
        <time>2021-08-07T15:30:31Z</time>
      </trkpt>
      <trkpt lat="50.48221" lon="3.23123">
        <ele>37.63</ele>
        <time>2021-08-07T15:30:42Z</time>
      </trkpt>
      <trkpt lat="50.48215" lon="3.23134">
        <ele>37.63</ele>
        <time>2021-08-07T15:30:44Z</time>
      </trkpt>
      <trkpt lat="50.48212" lon="3.23139">
        <ele>37.63</ele>
        <time>2021-08-07T15:30:45Z</time>
      </trkpt>
      <trkpt lat="50.48181" lon="3.23197">
        <ele>38.11</ele>
        <time>2021-08-07T15:30:56Z</time>
      </trkpt>
      <trkpt lat="50.48168" lon="3.23222">
        <ele>38.59</ele>
        <time>2021-08-07T15:31:01Z</time>
      </trkpt>
      <trkpt lat="50.48157" lon="3.23244">
        <ele>39.07</ele>
        <time>2021-08-07T15:31:05Z</time>
      </trkpt>
      <trkpt lat="50.48154" lon="3.2325">
        <ele>39.55</ele>
        <time>2021-08-07T15:31:06Z</time>
      </trkpt>
      <trkpt lat="50.48146" lon="3.23265">
        <ele>38.11</ele>
        <time>2021-08-07T15:31:09Z</time>
      </trkpt>
      <trkpt lat="50.48114" lon="3.23325">
        <ele>39.55</ele>
        <time>2021-08-07T15:31:21Z</time>
      </trkpt>
      <trkpt lat="50.48084" lon="3.23383">
        <ele>40.51</ele>
        <time>2021-08-07T15:31:31Z</time>
      </trkpt>
      <trkpt lat="50.48053" lon="3.23439">
        <ele>40.51</ele>
        <time>2021-08-07T15:31:41Z</time>
      </trkpt>
      <trkpt lat="50.4803" lon="3.23482">
        <ele>40.99</ele>
        <time>2021-08-07T15:31:49Z</time>
      </trkpt>
      <trkpt lat="50.48014" lon="3.23514">
        <ele>40.99</ele>
        <time>2021-08-07T15:31:55Z</time>
      </trkpt>
      <trkpt lat="50.48012" lon="3.2352">
        <ele>40.99</ele>
        <time>2021-08-07T15:31:56Z</time>
      </trkpt>
      <trkpt lat="50.4801" lon="3.23526">
        <ele>40.99</ele>
        <time>2021-08-07T15:31:57Z</time>
      </trkpt>
      <trkpt lat="50.48007" lon="3.2353">
        <ele>40.99</ele>
        <time>2021-08-07T15:31:58Z</time>
      </trkpt>
      <trkpt lat="50.48005" lon="3.23535">
        <ele>40.99</ele>
        <time>2021-08-07T15:31:59Z</time>
      </trkpt>
      <trkpt lat="50.48002" lon="3.23539">
        <ele>40.99</ele>
        <time>2021-08-07T15:32:00Z</time>
      </trkpt>
      <trkpt lat="50.47999" lon="3.23544">
        <ele>40.99</ele>
        <time>2021-08-07T15:32:01Z</time>
      </trkpt>
      <trkpt lat="50.47991" lon="3.23555">
        <ele>40.99</ele>
        <time>2021-08-07T15:32:04Z</time>
      </trkpt>
      <trkpt lat="50.47987" lon="3.23555">
        <ele>40.99</ele>
        <time>2021-08-07T15:32:05Z</time>
      </trkpt>
      <trkpt lat="50.47983" lon="3.23553">
        <ele>40.99</ele>
        <time>2021-08-07T15:32:06Z</time>
      </trkpt>
      <trkpt lat="50.4798" lon="3.23549">
        <ele>40.99</ele>
        <time>2021-08-07T15:32:07Z</time>
      </trkpt>
      <trkpt lat="50.47977" lon="3.23545">
        <ele>40.99</ele>
        <time>2021-08-07T15:32:08Z</time>
      </trkpt>
      <trkpt lat="50.47974" lon="3.2354">
        <ele>40.99</ele>
        <time>2021-08-07T15:32:09Z</time>
      </trkpt>
      <trkpt lat="50.47959" lon="3.23515">
        <ele>40.99</ele>
        <time>2021-08-07T15:32:14Z</time>
      </trkpt>
      <trkpt lat="50.47957" lon="3.2351">
        <ele>40.99</ele>
        <time>2021-08-07T15:32:15Z</time>
      </trkpt>
      <trkpt lat="50.47955" lon="3.23503">
        <ele>40.99</ele>
        <time>2021-08-07T15:32:16Z</time>
      </trkpt>
      <trkpt lat="50.47953" lon="3.23485">
        <ele>40.99</ele>
        <time>2021-08-07T15:32:19Z</time>
      </trkpt>
      <trkpt lat="50.47954" lon="3.23479">
        <ele>40.99</ele>
        <time>2021-08-07T15:32:20Z</time>
      </trkpt>
      <trkpt lat="50.47956" lon="3.23473">
        <ele>40.99</ele>
        <time>2021-08-07T15:32:21Z</time>
      </trkpt>
      <trkpt lat="50.47956" lon="3.23468">
        <ele>40.99</ele>
        <time>2021-08-07T15:32:22Z</time>
      </trkpt>
      <trkpt lat="50.47957" lon="3.23463">
        <ele>40.99</ele>
        <time>2021-08-07T15:32:23Z</time>
      </trkpt>
      <trkpt lat="50.47959" lon="3.23458">
        <ele>40.99</ele>
        <time>2021-08-07T15:32:24Z</time>
      </trkpt>
      <trkpt lat="50.4796" lon="3.23454">
        <ele>40.99</ele>
        <time>2021-08-07T15:32:25Z</time>
      </trkpt>
      <trkpt lat="50.47964" lon="3.23441">
        <ele>40.99</ele>
        <time>2021-08-07T15:32:27Z</time>
      </trkpt>
      <trkpt lat="50.47966" lon="3.23435">
        <ele>40.99</ele>
        <time>2021-08-07T15:32:28Z</time>
      </trkpt>
      <trkpt lat="50.47966" lon="3.23428">
        <ele>40.99</ele>
        <time>2021-08-07T15:32:29Z</time>
      </trkpt>
      <trkpt lat="50.47966" lon="3.23421">
        <ele>40.99</ele>
        <time>2021-08-07T15:32:30Z</time>
      </trkpt>
      <trkpt lat="50.47965" lon="3.23414">
        <ele>40.99</ele>
        <time>2021-08-07T15:32:31Z</time>
      </trkpt>
      <trkpt lat="50.47963" lon="3.23407">
        <ele>40.99</ele>
        <time>2021-08-07T15:32:32Z</time>
      </trkpt>
      <trkpt lat="50.47944" lon="3.23344">
        <ele>40.99</ele>
        <time>2021-08-07T15:32:41Z</time>
      </trkpt>
      <trkpt lat="50.47916" lon="3.23267">
        <ele>40.99</ele>
        <time>2021-08-07T15:32:52Z</time>
      </trkpt>
      <trkpt lat="50.47887" lon="3.23199">
        <ele>40.99</ele>
        <time>2021-08-07T15:33:03Z</time>
      </trkpt>
      <trkpt lat="50.47857" lon="3.23143">
        <ele>41.47</ele>
        <time>2021-08-07T15:33:13Z</time>
      </trkpt>
      <trkpt lat="50.47818" lon="3.23084">
        <ele>41.47</ele>
        <time>2021-08-07T15:33:24Z</time>
      </trkpt>
      <trkpt lat="50.4779" lon="3.23038">
        <ele>41.47</ele>
        <time>2021-08-07T15:33:33Z</time>
      </trkpt>
      <trkpt lat="50.47755" lon="3.22982">
        <ele>42.44</ele>
        <time>2021-08-07T15:33:45Z</time>
      </trkpt>
      <trkpt lat="50.47749" lon="3.22973">
        <ele>42.44</ele>
        <time>2021-08-07T15:33:47Z</time>
      </trkpt>
      <trkpt lat="50.47747" lon="3.22968">
        <ele>42.44</ele>
        <time>2021-08-07T15:33:48Z</time>
      </trkpt>
      <trkpt lat="50.47744" lon="3.22964">
        <ele>42.44</ele>
        <time>2021-08-07T15:33:49Z</time>
      </trkpt>
      <trkpt lat="50.47726" lon="3.22938">
        <ele>42.44</ele>
        <time>2021-08-07T15:33:55Z</time>
      </trkpt>
      <trkpt lat="50.47703" lon="3.22886">
        <ele>42.44</ele>
        <time>2021-08-07T15:34:05Z</time>
      </trkpt>
      <trkpt lat="50.47687" lon="3.22834">
        <ele>42.44</ele>
        <time>2021-08-07T15:34:14Z</time>
      </trkpt>
      <trkpt lat="50.47685" lon="3.22802">
        <ele>42.44</ele>
        <time>2021-08-07T15:34:19Z</time>
      </trkpt>
      <trkpt lat="50.47685" lon="3.22796">
        <ele>42.44</ele>
        <time>2021-08-07T15:34:20Z</time>
      </trkpt>
      <trkpt lat="50.47683" lon="3.22762">
        <ele>42.44</ele>
        <time>2021-08-07T15:34:25Z</time>
      </trkpt>
      <trkpt lat="50.47668" lon="3.22717">
        <ele>42.44</ele>
        <time>2021-08-07T15:34:33Z</time>
      </trkpt>
      <trkpt lat="50.47643" lon="3.22683">
        <ele>42.44</ele>
        <time>2021-08-07T15:34:41Z</time>
      </trkpt>
      <trkpt lat="50.47635" lon="3.22676">
        <ele>40.99</ele>
        <time>2021-08-07T15:34:43Z</time>
      </trkpt>
      <trkpt lat="50.47629" lon="3.22669">
        <ele>40.99</ele>
        <time>2021-08-07T15:34:45Z</time>
      </trkpt>
      <trkpt lat="50.47618" lon="3.2266">
        <ele>40.99</ele>
        <time>2021-08-07T15:34:48Z</time>
      </trkpt>
      <trkpt lat="50.47614" lon="3.22657">
        <ele>40.99</ele>
        <time>2021-08-07T15:34:49Z</time>
      </trkpt>
      <trkpt lat="50.47611" lon="3.22654">
        <ele>40.99</ele>
        <time>2021-08-07T15:34:50Z</time>
      </trkpt>
      <trkpt lat="50.47607" lon="3.22651">
        <ele>40.99</ele>
        <time>2021-08-07T15:34:51Z</time>
      </trkpt>
      <trkpt lat="50.47603" lon="3.22648">
        <ele>40.99</ele>
        <time>2021-08-07T15:34:52Z</time>
      </trkpt>
      <trkpt lat="50.476" lon="3.22644">
        <ele>40.99</ele>
        <time>2021-08-07T15:34:53Z</time>
      </trkpt>
      <trkpt lat="50.47567" lon="3.22614">
        <ele>40.99</ele>
        <time>2021-08-07T15:35:02Z</time>
      </trkpt>
      <trkpt lat="50.47531" lon="3.22582">
        <ele>40.99</ele>
        <time>2021-08-07T15:35:12Z</time>
      </trkpt>
      <trkpt lat="50.47527" lon="3.22579">
        <ele>40.99</ele>
        <time>2021-08-07T15:35:13Z</time>
      </trkpt>
      <trkpt lat="50.47501" lon="3.22553">
        <ele>42.44</ele>
        <time>2021-08-07T15:35:21Z</time>
      </trkpt>
      <trkpt lat="50.47491" lon="3.22541">
        <ele>42.44</ele>
        <time>2021-08-07T15:35:24Z</time>
      </trkpt>
      <trkpt lat="50.47489" lon="3.22536">
        <ele>42.44</ele>
        <time>2021-08-07T15:35:25Z</time>
      </trkpt>
      <trkpt lat="50.47468" lon="3.22487">
        <ele>42.92</ele>
        <time>2021-08-07T15:35:34Z</time>
      </trkpt>
      <trkpt lat="50.47444" lon="3.22445">
        <ele>43.4</ele>
        <time>2021-08-07T15:35:43Z</time>
      </trkpt>
      <trkpt lat="50.47423" lon="3.22419">
        <ele>43.88</ele>
        <time>2021-08-07T15:35:50Z</time>
      </trkpt>
      <trkpt lat="50.47394" lon="3.22388">
        <ele>44.84</ele>
        <time>2021-08-07T15:35:59Z</time>
      </trkpt>
      <trkpt lat="50.4739" lon="3.22386">
        <ele>44.84</ele>
        <time>2021-08-07T15:36:00Z</time>
      </trkpt>
      <trkpt lat="50.47385" lon="3.22386">
        <ele>44.84</ele>
        <time>2021-08-07T15:36:01Z</time>
      </trkpt>
      <trkpt lat="50.47382" lon="3.22387">
        <ele>44.84</ele>
        <time>2021-08-07T15:36:02Z</time>
      </trkpt>
      <trkpt lat="50.47378" lon="3.22391">
        <ele>44.84</ele>
        <time>2021-08-07T15:36:03Z</time>
      </trkpt>
      <trkpt lat="50.47376" lon="3.22395">
        <ele>45.32</ele>
        <time>2021-08-07T15:36:04Z</time>
      </trkpt>
      <trkpt lat="50.47373" lon="3.224">
        <ele>45.32</ele>
        <time>2021-08-07T15:36:05Z</time>
      </trkpt>
      <trkpt lat="50.47372" lon="3.22406">
        <ele>45.32</ele>
        <time>2021-08-07T15:36:06Z</time>
      </trkpt>
      <trkpt lat="50.47371" lon="3.22412">
        <ele>45.32</ele>
        <time>2021-08-07T15:36:07Z</time>
      </trkpt>
      <trkpt lat="50.4737" lon="3.22418">
        <ele>45.32</ele>
        <time>2021-08-07T15:36:08Z</time>
      </trkpt>
      <trkpt lat="50.47369" lon="3.22423">
        <ele>45.32</ele>
        <time>2021-08-07T15:36:09Z</time>
      </trkpt>
      <trkpt lat="50.47356" lon="3.22468">
        <ele>45.8</ele>
        <time>2021-08-07T15:36:17Z</time>
      </trkpt>
      <trkpt lat="50.4735" lon="3.22492">
        <ele>46.28</ele>
        <time>2021-08-07T15:36:21Z</time>
      </trkpt>
      <trkpt lat="50.47332" lon="3.22564">
        <ele>47.24</ele>
        <time>2021-08-07T15:36:33Z</time>
      </trkpt>
      <trkpt lat="50.47315" lon="3.22632">
        <ele>47.72</ele>
        <time>2021-08-07T15:36:44Z</time>
      </trkpt>
      <trkpt lat="50.47299" lon="3.22687">
        <ele>48.68</ele>
        <time>2021-08-07T15:36:53Z</time>
      </trkpt>
      <trkpt lat="50.47281" lon="3.22756">
        <ele>48.68</ele>
        <time>2021-08-07T15:37:04Z</time>
      </trkpt>
      <trkpt lat="50.47264" lon="3.22832">
        <ele>48.68</ele>
        <time>2021-08-07T15:37:15Z</time>
      </trkpt>
      <trkpt lat="50.47263" lon="3.22902">
        <ele>48.68</ele>
        <time>2021-08-07T15:37:24Z</time>
      </trkpt>
      <trkpt lat="50.47278" lon="3.22969">
        <ele>46.76</ele>
        <time>2021-08-07T15:37:32Z</time>
      </trkpt>
      <trkpt lat="50.47303" lon="3.23074">
        <ele>46.28</ele>
        <time>2021-08-07T15:37:44Z</time>
      </trkpt>
      <trkpt lat="50.47322" lon="3.23151">
        <ele>45.8</ele>
        <time>2021-08-07T15:37:53Z</time>
      </trkpt>
      <trkpt lat="50.47329" lon="3.23184">
        <ele>45.8</ele>
        <time>2021-08-07T15:37:57Z</time>
      </trkpt>
      <trkpt lat="50.47327" lon="3.23192">
        <ele>45.8</ele>
        <time>2021-08-07T15:37:58Z</time>
      </trkpt>
      <trkpt lat="50.47324" lon="3.23198">
        <ele>45.8</ele>
        <time>2021-08-07T15:37:59Z</time>
      </trkpt>
      <trkpt lat="50.4732" lon="3.232">
        <ele>45.8</ele>
        <time>2021-08-07T15:38:00Z</time>
      </trkpt>
      <trkpt lat="50.47315" lon="3.23201">
        <ele>45.8</ele>
        <time>2021-08-07T15:38:01Z</time>
      </trkpt>
      <trkpt lat="50.47311" lon="3.232">
        <ele>45.8</ele>
        <time>2021-08-07T15:38:02Z</time>
      </trkpt>
      <trkpt lat="50.47306" lon="3.23198">
        <ele>45.8</ele>
        <time>2021-08-07T15:38:03Z</time>
      </trkpt>
      <trkpt lat="50.47301" lon="3.23197">
        <ele>44.84</ele>
        <time>2021-08-07T15:38:04Z</time>
      </trkpt>
      <trkpt lat="50.47297" lon="3.23198">
        <ele>44.84</ele>
        <time>2021-08-07T15:38:05Z</time>
      </trkpt>
      <trkpt lat="50.47293" lon="3.232">
        <ele>46.28</ele>
        <time>2021-08-07T15:38:06Z</time>
      </trkpt>
      <trkpt lat="50.4729" lon="3.23204">
        <ele>46.76</ele>
        <time>2021-08-07T15:38:07Z</time>
      </trkpt>
      <trkpt lat="50.47287" lon="3.2321">
        <ele>46.76</ele>
        <time>2021-08-07T15:38:08Z</time>
      </trkpt>
      <trkpt lat="50.47285" lon="3.23217">
        <ele>46.76</ele>
        <time>2021-08-07T15:38:09Z</time>
      </trkpt>
      <trkpt lat="50.47284" lon="3.23224">
        <ele>46.76</ele>
        <time>2021-08-07T15:38:10Z</time>
      </trkpt>
      <trkpt lat="50.47284" lon="3.23232">
        <ele>46.76</ele>
        <time>2021-08-07T15:38:11Z</time>
      </trkpt>
      <trkpt lat="50.47287" lon="3.23239">
        <ele>46.76</ele>
        <time>2021-08-07T15:38:12Z</time>
      </trkpt>
      <trkpt lat="50.47291" lon="3.23246">
        <ele>46.76</ele>
        <time>2021-08-07T15:38:13Z</time>
      </trkpt>
      <trkpt lat="50.47295" lon="3.2325">
        <ele>46.76</ele>
        <time>2021-08-07T15:38:14Z</time>
      </trkpt>
      <trkpt lat="50.47301" lon="3.23255">
        <ele>46.76</ele>
        <time>2021-08-07T15:38:15Z</time>
      </trkpt>
      <trkpt lat="50.47307" lon="3.2326">
        <ele>46.76</ele>
        <time>2021-08-07T15:38:16Z</time>
      </trkpt>
      <trkpt lat="50.4731" lon="3.23265">
        <ele>46.76</ele>
        <time>2021-08-07T15:38:17Z</time>
      </trkpt>
      <trkpt lat="50.47314" lon="3.23273">
        <ele>46.76</ele>
        <time>2021-08-07T15:38:18Z</time>
      </trkpt>
      <trkpt lat="50.47317" lon="3.23281">
        <ele>46.76</ele>
        <time>2021-08-07T15:38:19Z</time>
      </trkpt>
      <trkpt lat="50.47335" lon="3.2333">
        <ele>45.8</ele>
        <time>2021-08-07T15:38:25Z</time>
      </trkpt>
      <trkpt lat="50.47367" lon="3.23383">
        <ele>44.36</ele>
        <time>2021-08-07T15:38:32Z</time>
      </trkpt>
      <trkpt lat="50.47418" lon="3.23439">
        <ele>43.88</ele>
        <time>2021-08-07T15:38:41Z</time>
      </trkpt>
      <trkpt lat="50.47486" lon="3.23503">
        <ele>42.44</ele>
        <time>2021-08-07T15:38:52Z</time>
      </trkpt>
      <trkpt lat="50.47546" lon="3.23562">
        <ele>40.99</ele>
        <time>2021-08-07T15:39:02Z</time>
      </trkpt>
      <trkpt lat="50.4755" lon="3.2357">
        <ele>40.99</ele>
        <time>2021-08-07T15:39:03Z</time>
      </trkpt>
      <trkpt lat="50.47553" lon="3.23579">
        <ele>40.99</ele>
        <time>2021-08-07T15:39:04Z</time>
      </trkpt>
      <trkpt lat="50.4756" lon="3.23597">
        <ele>40.99</ele>
        <time>2021-08-07T15:39:06Z</time>
      </trkpt>
      <trkpt lat="50.47565" lon="3.23603">
        <ele>40.99</ele>
        <time>2021-08-07T15:39:07Z</time>
      </trkpt>
      <trkpt lat="50.4757" lon="3.23606">
        <ele>40.99</ele>
        <time>2021-08-07T15:39:08Z</time>
      </trkpt>
      <trkpt lat="50.47576" lon="3.23608">
        <ele>40.99</ele>
        <time>2021-08-07T15:39:09Z</time>
      </trkpt>
      <trkpt lat="50.47584" lon="3.23612">
        <ele>40.99</ele>
        <time>2021-08-07T15:39:10Z</time>
      </trkpt>
      <trkpt lat="50.47588" lon="3.23616">
        <ele>40.99</ele>
        <time>2021-08-07T15:39:11Z</time>
      </trkpt>
      <trkpt lat="50.47592" lon="3.23621">
        <ele>40.99</ele>
        <time>2021-08-07T15:39:12Z</time>
      </trkpt>
      <trkpt lat="50.47597" lon="3.23628">
        <ele>40.99</ele>
        <time>2021-08-07T15:39:13Z</time>
      </trkpt>
      <trkpt lat="50.47628" lon="3.23692">
        <ele>39.55</ele>
        <time>2021-08-07T15:39:20Z</time>
      </trkpt>
      <trkpt lat="50.47658" lon="3.23756">
        <ele>39.07</ele>
        <time>2021-08-07T15:39:27Z</time>
      </trkpt>
      <trkpt lat="50.47659" lon="3.23764">
        <ele>39.07</ele>
        <time>2021-08-07T15:39:28Z</time>
      </trkpt>
      <trkpt lat="50.47659" lon="3.23768">
        <ele>39.07</ele>
        <time>2021-08-07T15:39:29Z</time>
      </trkpt>
      <trkpt lat="50.47657" lon="3.23769">
        <ele>39.07</ele>
        <time>2021-08-07T15:39:30Z</time>
      </trkpt>
      <trkpt lat="50.47655" lon="3.23767">
        <ele>39.07</ele>
        <time>2021-08-07T15:39:31Z</time>
      </trkpt>
      <trkpt lat="50.47653" lon="3.23765">
        <ele>39.07</ele>
        <time>2021-08-07T15:39:32Z</time>
      </trkpt>
      <trkpt lat="50.47652" lon="3.23763">
        <ele>39.07</ele>
        <time>2021-08-07T15:39:33Z</time>
      </trkpt>
      <trkpt lat="50.47652" lon="3.23761">
        <ele>39.07</ele>
        <time>2021-08-07T15:39:38Z</time>
      </trkpt>
      <trkpt lat="50.47646" lon="3.23753">
        <ele>39.07</ele>
        <time>2021-08-07T15:39:46Z</time>
      </trkpt>
      <trkpt lat="50.4763" lon="3.23722">
        <ele>37.63</ele>
        <time>2021-08-07T15:39:53Z</time>
      </trkpt>
      <trkpt lat="50.47621" lon="3.23707">
        <ele>39.55</ele>
        <time>2021-08-07T15:39:56Z</time>
      </trkpt>
      <trkpt lat="50.47591" lon="3.2365">
        <ele>39.55</ele>
        <time>2021-08-07T15:40:07Z</time>
      </trkpt>
      <trkpt lat="50.47567" lon="3.23616">
        <ele>39.55</ele>
        <time>2021-08-07T15:40:15Z</time>
      </trkpt>
      <trkpt lat="50.47562" lon="3.23618">
        <ele>40.51</ele>
        <time>2021-08-07T15:40:17Z</time>
      </trkpt>
      <trkpt lat="50.4756" lon="3.23619">
        <ele>40.51</ele>
        <time>2021-08-07T15:40:18Z</time>
      </trkpt>
      <trkpt lat="50.47557" lon="3.23619">
        <ele>40.51</ele>
        <time>2021-08-07T15:40:19Z</time>
      </trkpt>
      <trkpt lat="50.47554" lon="3.23617">
        <ele>40.51</ele>
        <time>2021-08-07T15:40:20Z</time>
      </trkpt>
      <trkpt lat="50.47552" lon="3.23615">
        <ele>40.51</ele>
        <time>2021-08-07T15:40:21Z</time>
      </trkpt>
      <trkpt lat="50.47549" lon="3.23611">
        <ele>40.51</ele>
        <time>2021-08-07T15:40:22Z</time>
      </trkpt>
      <trkpt lat="50.47548" lon="3.23605">
        <ele>40.51</ele>
        <time>2021-08-07T15:40:23Z</time>
      </trkpt>
      <trkpt lat="50.47547" lon="3.23599">
        <ele>40.99</ele>
        <time>2021-08-07T15:40:24Z</time>
      </trkpt>
      <trkpt lat="50.47547" lon="3.23592">
        <ele>41.47</ele>
        <time>2021-08-07T15:40:25Z</time>
      </trkpt>
      <trkpt lat="50.47537" lon="3.23561">
        <ele>40.03</ele>
        <time>2021-08-07T15:40:30Z</time>
      </trkpt>
      <trkpt lat="50.47534" lon="3.23557">
        <ele>40.03</ele>
        <time>2021-08-07T15:40:31Z</time>
      </trkpt>
      <trkpt lat="50.47506" lon="3.23528">
        <ele>40.99</ele>
        <time>2021-08-07T15:40:38Z</time>
      </trkpt>
      <trkpt lat="50.4747" lon="3.23496">
        <ele>41.95</ele>
        <time>2021-08-07T15:40:47Z</time>
      </trkpt>
      <trkpt lat="50.47428" lon="3.23456">
        <ele>43.4</ele>
        <time>2021-08-07T15:40:58Z</time>
      </trkpt>
      <trkpt lat="50.47399" lon="3.23425">
        <ele>43.4</ele>
        <time>2021-08-07T15:41:06Z</time>
      </trkpt>
      <trkpt lat="50.47395" lon="3.23421">
        <ele>43.88</ele>
        <time>2021-08-07T15:41:07Z</time>
      </trkpt>
      <trkpt lat="50.4736" lon="3.23383">
        <ele>44.36</ele>
        <time>2021-08-07T15:41:17Z</time>
      </trkpt>
      <trkpt lat="50.4735" lon="3.23381">
        <ele>44.84</ele>
        <time>2021-08-07T15:41:20Z</time>
      </trkpt>
      <trkpt lat="50.47348" lon="3.23385">
        <ele>44.84</ele>
        <time>2021-08-07T15:41:21Z</time>
      </trkpt>
      <trkpt lat="50.4734" lon="3.23405">
        <ele>44.84</ele>
        <time>2021-08-07T15:41:26Z</time>
      </trkpt>
      <trkpt lat="50.47325" lon="3.23432">
        <ele>44.84</ele>
        <time>2021-08-07T15:41:33Z</time>
      </trkpt>
      <trkpt lat="50.47309" lon="3.23462">
        <ele>45.8</ele>
        <time>2021-08-07T15:41:41Z</time>
      </trkpt>
      <trkpt lat="50.47307" lon="3.23469">
        <ele>45.8</ele>
        <time>2021-08-07T15:41:43Z</time>
      </trkpt>
      <trkpt lat="50.47304" lon="3.23471">
        <ele>45.8</ele>
        <time>2021-08-07T15:41:44Z</time>
      </trkpt>
      <trkpt lat="50.47302" lon="3.23474">
        <ele>45.8</ele>
        <time>2021-08-07T15:41:45Z</time>
      </trkpt>
      <trkpt lat="50.47284" lon="3.23501">
        <ele>44.36</ele>
        <time>2021-08-07T15:41:51Z</time>
      </trkpt>
      <trkpt lat="50.47274" lon="3.23519">
        <ele>46.28</ele>
        <time>2021-08-07T15:41:54Z</time>
      </trkpt>
      <trkpt lat="50.47268" lon="3.2353">
        <ele>44.84</ele>
        <time>2021-08-07T15:41:56Z</time>
      </trkpt>
      <trkpt lat="50.47245" lon="3.23569">
        <ele>44.36</ele>
        <time>2021-08-07T15:42:04Z</time>
      </trkpt>
      <trkpt lat="50.47244" lon="3.2357">
        <ele>44.36</ele>
        <time>2021-08-07T15:42:05Z</time>
      </trkpt>
      <trkpt lat="50.47244" lon="3.23572">
        <ele>44.36</ele>
        <time>2021-08-07T15:42:06Z</time>
      </trkpt>
      <trkpt lat="50.47245" lon="3.23576">
        <ele>44.36</ele>
        <time>2021-08-07T15:42:07Z</time>
      </trkpt>
      <trkpt lat="50.47247" lon="3.23579">
        <ele>44.36</ele>
        <time>2021-08-07T15:42:08Z</time>
      </trkpt>
      <trkpt lat="50.47249" lon="3.23583">
        <ele>44.36</ele>
        <time>2021-08-07T15:42:09Z</time>
      </trkpt>
      <trkpt lat="50.47252" lon="3.23587">
        <ele>44.36</ele>
        <time>2021-08-07T15:42:10Z</time>
      </trkpt>
      <trkpt lat="50.47277" lon="3.23621">
        <ele>43.88</ele>
        <time>2021-08-07T15:42:17Z</time>
      </trkpt>
      <trkpt lat="50.47307" lon="3.23671">
        <ele>43.4</ele>
        <time>2021-08-07T15:42:25Z</time>
      </trkpt>
      <trkpt lat="50.47335" lon="3.23741">
        <ele>42.92</ele>
        <time>2021-08-07T15:42:34Z</time>
      </trkpt>
      <trkpt lat="50.47348" lon="3.238">
        <ele>42.92</ele>
        <time>2021-08-07T15:42:41Z</time>
      </trkpt>
      <trkpt lat="50.47348" lon="3.2381">
        <ele>42.92</ele>
        <time>2021-08-07T15:42:42Z</time>
      </trkpt>
      <trkpt lat="50.47348" lon="3.23819">
        <ele>42.92</ele>
        <time>2021-08-07T15:42:43Z</time>
      </trkpt>
      <trkpt lat="50.47346" lon="3.23827">
        <ele>42.92</ele>
        <time>2021-08-07T15:42:44Z</time>
      </trkpt>
      <trkpt lat="50.47344" lon="3.23835">
        <ele>42.92</ele>
        <time>2021-08-07T15:42:45Z</time>
      </trkpt>
      <trkpt lat="50.47341" lon="3.23844">
        <ele>42.92</ele>
        <time>2021-08-07T15:42:46Z</time>
      </trkpt>
      <trkpt lat="50.47325" lon="3.23892">
        <ele>42.92</ele>
        <time>2021-08-07T15:42:52Z</time>
      </trkpt>
      <trkpt lat="50.47323" lon="3.23901">
        <ele>42.92</ele>
        <time>2021-08-07T15:42:53Z</time>
      </trkpt>
      <trkpt lat="50.47322" lon="3.2391">
        <ele>42.92</ele>
        <time>2021-08-07T15:42:54Z</time>
      </trkpt>
      <trkpt lat="50.47323" lon="3.23918">
        <ele>42.44</ele>
        <time>2021-08-07T15:42:55Z</time>
      </trkpt>
      <trkpt lat="50.47326" lon="3.23926">
        <ele>42.44</ele>
        <time>2021-08-07T15:42:56Z</time>
      </trkpt>
      <trkpt lat="50.47329" lon="3.23934">
        <ele>42.44</ele>
        <time>2021-08-07T15:42:57Z</time>
      </trkpt>
      <trkpt lat="50.47333" lon="3.2394">
        <ele>42.44</ele>
        <time>2021-08-07T15:42:58Z</time>
      </trkpt>
      <trkpt lat="50.47336" lon="3.23947">
        <ele>42.44</ele>
        <time>2021-08-07T15:42:59Z</time>
      </trkpt>
      <trkpt lat="50.47339" lon="3.23956">
        <ele>42.44</ele>
        <time>2021-08-07T15:43:00Z</time>
      </trkpt>
      <trkpt lat="50.47339" lon="3.23964">
        <ele>42.44</ele>
        <time>2021-08-07T15:43:01Z</time>
      </trkpt>
      <trkpt lat="50.47335" lon="3.23978">
        <ele>42.44</ele>
        <time>2021-08-07T15:43:03Z</time>
      </trkpt>
      <trkpt lat="50.473" lon="3.24055">
        <ele>40.99</ele>
        <time>2021-08-07T15:43:13Z</time>
      </trkpt>
      <trkpt lat="50.47298" lon="3.24063">
        <ele>40.51</ele>
        <time>2021-08-07T15:43:14Z</time>
      </trkpt>
      <trkpt lat="50.47296" lon="3.24072">
        <ele>40.51</ele>
        <time>2021-08-07T15:43:15Z</time>
      </trkpt>
      <trkpt lat="50.47293" lon="3.24078">
        <ele>40.51</ele>
        <time>2021-08-07T15:43:16Z</time>
      </trkpt>
      <trkpt lat="50.47279" lon="3.24109">
        <ele>41.95</ele>
        <time>2021-08-07T15:43:20Z</time>
      </trkpt>
      <trkpt lat="50.47276" lon="3.24117">
        <ele>41.95</ele>
        <time>2021-08-07T15:43:21Z</time>
      </trkpt>
      <trkpt lat="50.47256" lon="3.24165">
        <ele>40.51</ele>
        <time>2021-08-07T15:43:27Z</time>
      </trkpt>
      <trkpt lat="50.47254" lon="3.24174">
        <ele>40.51</ele>
        <time>2021-08-07T15:43:28Z</time>
      </trkpt>
      <trkpt lat="50.47251" lon="3.24184">
        <ele>40.51</ele>
        <time>2021-08-07T15:43:29Z</time>
      </trkpt>
      <trkpt lat="50.47239" lon="3.24217">
        <ele>40.51</ele>
        <time>2021-08-07T15:43:33Z</time>
      </trkpt>
      <trkpt lat="50.47234" lon="3.24223">
        <ele>40.51</ele>
        <time>2021-08-07T15:43:34Z</time>
      </trkpt>
      <trkpt lat="50.47229" lon="3.24228">
        <ele>40.51</ele>
        <time>2021-08-07T15:43:35Z</time>
      </trkpt>
      <trkpt lat="50.47187" lon="3.24263">
        <ele>40.51</ele>
        <time>2021-08-07T15:43:43Z</time>
      </trkpt>
      <trkpt lat="50.47177" lon="3.24273">
        <ele>40.51</ele>
        <time>2021-08-07T15:43:45Z</time>
      </trkpt>
      <trkpt lat="50.47175" lon="3.24279">
        <ele>40.51</ele>
        <time>2021-08-07T15:43:46Z</time>
      </trkpt>
      <trkpt lat="50.47176" lon="3.24287">
        <ele>40.51</ele>
        <time>2021-08-07T15:43:47Z</time>
      </trkpt>
      <trkpt lat="50.47178" lon="3.24295">
        <ele>40.51</ele>
        <time>2021-08-07T15:43:48Z</time>
      </trkpt>
      <trkpt lat="50.47181" lon="3.24301">
        <ele>40.51</ele>
        <time>2021-08-07T15:43:49Z</time>
      </trkpt>
      <trkpt lat="50.47184" lon="3.24307">
        <ele>40.51</ele>
        <time>2021-08-07T15:43:50Z</time>
      </trkpt>
      <trkpt lat="50.47189" lon="3.24322">
        <ele>40.51</ele>
        <time>2021-08-07T15:43:52Z</time>
      </trkpt>
      <trkpt lat="50.47211" lon="3.2438">
        <ele>40.51</ele>
        <time>2021-08-07T15:44:00Z</time>
      </trkpt>
      <trkpt lat="50.47211" lon="3.24385">
        <ele>40.51</ele>
        <time>2021-08-07T15:44:01Z</time>
      </trkpt>
      <trkpt lat="50.47209" lon="3.2439">
        <ele>40.51</ele>
        <time>2021-08-07T15:44:02Z</time>
      </trkpt>
      <trkpt lat="50.47207" lon="3.24392">
        <ele>40.51</ele>
        <time>2021-08-07T15:44:03Z</time>
      </trkpt>
      <trkpt lat="50.47182" lon="3.24411">
        <ele>40.51</ele>
        <time>2021-08-07T15:44:09Z</time>
      </trkpt>
      <trkpt lat="50.47138" lon="3.24444">
        <ele>40.51</ele>
        <time>2021-08-07T15:44:18Z</time>
      </trkpt>
      <trkpt lat="50.47124" lon="3.24454">
        <ele>40.03</ele>
        <time>2021-08-07T15:44:21Z</time>
      </trkpt>
      <trkpt lat="50.47121" lon="3.24458">
        <ele>39.55</ele>
        <time>2021-08-07T15:44:22Z</time>
      </trkpt>
      <trkpt lat="50.47119" lon="3.24466">
        <ele>39.55</ele>
        <time>2021-08-07T15:44:23Z</time>
      </trkpt>
      <trkpt lat="50.47121" lon="3.24473">
        <ele>39.55</ele>
        <time>2021-08-07T15:44:24Z</time>
      </trkpt>
      <trkpt lat="50.47124" lon="3.24479">
        <ele>39.55</ele>
        <time>2021-08-07T15:44:25Z</time>
      </trkpt>
      <trkpt lat="50.47126" lon="3.24485">
        <ele>39.55</ele>
        <time>2021-08-07T15:44:26Z</time>
      </trkpt>
      <trkpt lat="50.47146" lon="3.24538">
        <ele>39.55</ele>
        <time>2021-08-07T15:44:33Z</time>
      </trkpt>
      <trkpt lat="50.47166" lon="3.24599">
        <ele>39.07</ele>
        <time>2021-08-07T15:44:40Z</time>
      </trkpt>
      <trkpt lat="50.47168" lon="3.24608">
        <ele>39.07</ele>
        <time>2021-08-07T15:44:41Z</time>
      </trkpt>
      <trkpt lat="50.47169" lon="3.24618">
        <ele>39.07</ele>
        <time>2021-08-07T15:44:42Z</time>
      </trkpt>
      <trkpt lat="50.47169" lon="3.24628">
        <ele>39.07</ele>
        <time>2021-08-07T15:44:43Z</time>
      </trkpt>
      <trkpt lat="50.47167" lon="3.24637">
        <ele>38.59</ele>
        <time>2021-08-07T15:44:44Z</time>
      </trkpt>
      <trkpt lat="50.47165" lon="3.24646">
        <ele>38.59</ele>
        <time>2021-08-07T15:44:45Z</time>
      </trkpt>
      <trkpt lat="50.47162" lon="3.24654">
        <ele>38.59</ele>
        <time>2021-08-07T15:44:46Z</time>
      </trkpt>
      <trkpt lat="50.47133" lon="3.24708">
        <ele>37.15</ele>
        <time>2021-08-07T15:44:53Z</time>
      </trkpt>
      <trkpt lat="50.47099" lon="3.24766">
        <ele>36.19</ele>
        <time>2021-08-07T15:45:01Z</time>
      </trkpt>
      <trkpt lat="50.47057" lon="3.2484">
        <ele>35.71</ele>
        <time>2021-08-07T15:45:11Z</time>
      </trkpt>
      <trkpt lat="50.47027" lon="3.2489">
        <ele>34.74</ele>
        <time>2021-08-07T15:45:18Z</time>
      </trkpt>
      <trkpt lat="50.46989" lon="3.24934">
        <ele>34.26</ele>
        <time>2021-08-07T15:45:25Z</time>
      </trkpt>
      <trkpt lat="50.46952" lon="3.24978">
        <ele>33.78</ele>
        <time>2021-08-07T15:45:32Z</time>
      </trkpt>
      <trkpt lat="50.46916" lon="3.25051">
        <ele>33.78</ele>
        <time>2021-08-07T15:45:41Z</time>
      </trkpt>
      <trkpt lat="50.4688" lon="3.25125">
        <ele>32.82</ele>
        <time>2021-08-07T15:45:50Z</time>
      </trkpt>
      <trkpt lat="50.46849" lon="3.2519">
        <ele>31.86</ele>
        <time>2021-08-07T15:45:58Z</time>
      </trkpt>
      <trkpt lat="50.4681" lon="3.2527">
        <ele>32.34</ele>
        <time>2021-08-07T15:46:08Z</time>
      </trkpt>
      <trkpt lat="50.46805" lon="3.25276">
        <ele>32.34</ele>
        <time>2021-08-07T15:46:09Z</time>
      </trkpt>
      <trkpt lat="50.468" lon="3.25281">
        <ele>31.38</ele>
        <time>2021-08-07T15:46:10Z</time>
      </trkpt>
      <trkpt lat="50.46794" lon="3.25284">
        <ele>31.38</ele>
        <time>2021-08-07T15:46:11Z</time>
      </trkpt>
      <trkpt lat="50.46789" lon="3.25286">
        <ele>31.38</ele>
        <time>2021-08-07T15:46:12Z</time>
      </trkpt>
      <trkpt lat="50.46784" lon="3.25288">
        <ele>31.38</ele>
        <time>2021-08-07T15:46:13Z</time>
      </trkpt>
      <trkpt lat="50.46779" lon="3.25291">
        <ele>31.38</ele>
        <time>2021-08-07T15:46:14Z</time>
      </trkpt>
      <trkpt lat="50.46775" lon="3.25296">
        <ele>31.38</ele>
        <time>2021-08-07T15:46:15Z</time>
      </trkpt>
      <trkpt lat="50.46772" lon="3.25303">
        <ele>31.38</ele>
        <time>2021-08-07T15:46:16Z</time>
      </trkpt>
      <trkpt lat="50.4677" lon="3.2531">
        <ele>31.38</ele>
        <time>2021-08-07T15:46:17Z</time>
      </trkpt>
      <trkpt lat="50.4677" lon="3.25318">
        <ele>31.38</ele>
        <time>2021-08-07T15:46:18Z</time>
      </trkpt>
      <trkpt lat="50.46771" lon="3.25327">
        <ele>31.38</ele>
        <time>2021-08-07T15:46:19Z</time>
      </trkpt>
      <trkpt lat="50.46772" lon="3.25336">
        <ele>31.38</ele>
        <time>2021-08-07T15:46:20Z</time>
      </trkpt>
      <trkpt lat="50.46772" lon="3.25346">
        <ele>31.38</ele>
        <time>2021-08-07T15:46:21Z</time>
      </trkpt>
      <trkpt lat="50.46772" lon="3.25354">
        <ele>31.38</ele>
        <time>2021-08-07T15:46:22Z</time>
      </trkpt>
      <trkpt lat="50.46771" lon="3.25365">
        <ele>31.38</ele>
        <time>2021-08-07T15:46:23Z</time>
      </trkpt>
      <trkpt lat="50.4677" lon="3.25373">
        <ele>31.38</ele>
        <time>2021-08-07T15:46:24Z</time>
      </trkpt>
      <trkpt lat="50.46768" lon="3.25383">
        <ele>31.38</ele>
        <time>2021-08-07T15:46:25Z</time>
      </trkpt>
      <trkpt lat="50.46766" lon="3.25391">
        <ele>31.38</ele>
        <time>2021-08-07T15:46:26Z</time>
      </trkpt>
      <trkpt lat="50.46763" lon="3.254">
        <ele>31.38</ele>
        <time>2021-08-07T15:46:27Z</time>
      </trkpt>
      <trkpt lat="50.46741" lon="3.25479">
        <ele>31.38</ele>
        <time>2021-08-07T15:46:36Z</time>
      </trkpt>
      <trkpt lat="50.46715" lon="3.25582">
        <ele>30.9</ele>
        <time>2021-08-07T15:46:47Z</time>
      </trkpt>
      <trkpt lat="50.46693" lon="3.25666">
        <ele>30.42</ele>
        <time>2021-08-07T15:46:56Z</time>
      </trkpt>
      <trkpt lat="50.46676" lon="3.2573">
        <ele>30.42</ele>
        <time>2021-08-07T15:47:03Z</time>
      </trkpt>
      <trkpt lat="50.46668" lon="3.25747">
        <ele>30.42</ele>
        <time>2021-08-07T15:47:05Z</time>
      </trkpt>
      <trkpt lat="50.46664" lon="3.25754">
        <ele>29.94</ele>
        <time>2021-08-07T15:47:06Z</time>
      </trkpt>
      <trkpt lat="50.46619" lon="3.25805">
        <ele>28.5</ele>
        <time>2021-08-07T15:47:14Z</time>
      </trkpt>
      <trkpt lat="50.46613" lon="3.25809">
        <ele>28.5</ele>
        <time>2021-08-07T15:47:15Z</time>
      </trkpt>
      <trkpt lat="50.46606" lon="3.25811">
        <ele>28.5</ele>
        <time>2021-08-07T15:47:16Z</time>
      </trkpt>
      <trkpt lat="50.466" lon="3.25813">
        <ele>28.5</ele>
        <time>2021-08-07T15:47:17Z</time>
      </trkpt>
      <trkpt lat="50.46593" lon="3.25814">
        <ele>28.5</ele>
        <time>2021-08-07T15:47:18Z</time>
      </trkpt>
      <trkpt lat="50.46587" lon="3.25814">
        <ele>28.5</ele>
        <time>2021-08-07T15:47:19Z</time>
      </trkpt>
      <trkpt lat="50.46536" lon="3.25821">
        <ele>28.5</ele>
        <time>2021-08-07T15:47:27Z</time>
      </trkpt>
      <trkpt lat="50.46494" lon="3.25831">
        <ele>28.5</ele>
        <time>2021-08-07T15:47:34Z</time>
      </trkpt>
      <trkpt lat="50.46489" lon="3.25834">
        <ele>28.5</ele>
        <time>2021-08-07T15:47:35Z</time>
      </trkpt>
      <trkpt lat="50.46484" lon="3.25837">
        <ele>28.5</ele>
        <time>2021-08-07T15:47:36Z</time>
      </trkpt>
      <trkpt lat="50.46479" lon="3.25842">
        <ele>28.98</ele>
        <time>2021-08-07T15:47:37Z</time>
      </trkpt>
      <trkpt lat="50.46474" lon="3.25846">
        <ele>28.98</ele>
        <time>2021-08-07T15:47:38Z</time>
      </trkpt>
      <trkpt lat="50.46447" lon="3.25873">
        <ele>28.5</ele>
        <time>2021-08-07T15:47:44Z</time>
      </trkpt>
      <trkpt lat="50.46395" lon="3.25931">
        <ele>28.98</ele>
        <time>2021-08-07T15:47:56Z</time>
      </trkpt>
      <trkpt lat="50.46354" lon="3.25981">
        <ele>28.98</ele>
        <time>2021-08-07T15:48:06Z</time>
      </trkpt>
      <trkpt lat="50.46342" lon="3.25994">
        <ele>29.94</ele>
        <time>2021-08-07T15:48:09Z</time>
      </trkpt>
      <trkpt lat="50.4631" lon="3.26034">
        <ele>30.42</ele>
        <time>2021-08-07T15:48:18Z</time>
      </trkpt>
      <trkpt lat="50.46303" lon="3.26043">
        <ele>30.42</ele>
        <time>2021-08-07T15:48:20Z</time>
      </trkpt>
      <trkpt lat="50.46278" lon="3.26078">
        <ele>30.42</ele>
        <time>2021-08-07T15:48:27Z</time>
      </trkpt>
      <trkpt lat="50.4625" lon="3.2612">
        <ele>30.9</ele>
        <time>2021-08-07T15:48:35Z</time>
      </trkpt>
      <trkpt lat="50.46207" lon="3.26176">
        <ele>30.9</ele>
        <time>2021-08-07T15:48:46Z</time>
      </trkpt>
      <trkpt lat="50.46177" lon="3.26222">
        <ele>31.38</ele>
        <time>2021-08-07T15:48:55Z</time>
      </trkpt>
      <trkpt lat="50.4615" lon="3.26278">
        <ele>31.38</ele>
        <time>2021-08-07T15:49:04Z</time>
      </trkpt>
      <trkpt lat="50.46127" lon="3.26338">
        <ele>31.38</ele>
        <time>2021-08-07T15:49:13Z</time>
      </trkpt>
      <trkpt lat="50.46105" lon="3.264">
        <ele>31.86</ele>
        <time>2021-08-07T15:49:22Z</time>
      </trkpt>
      <trkpt lat="50.46078" lon="3.26473">
        <ele>31.86</ele>
        <time>2021-08-07T15:49:33Z</time>
      </trkpt>
      <trkpt lat="50.46056" lon="3.26536">
        <ele>31.86</ele>
        <time>2021-08-07T15:49:42Z</time>
      </trkpt>
      <trkpt lat="50.46054" lon="3.26543">
        <ele>31.86</ele>
        <time>2021-08-07T15:49:43Z</time>
      </trkpt>
      <trkpt lat="50.46053" lon="3.26546">
        <ele>31.86</ele>
        <time>2021-08-07T15:49:44Z</time>
      </trkpt>
      <trkpt lat="50.46054" lon="3.26548">
        <ele>32.34</ele>
        <time>2021-08-07T15:49:47Z</time>
      </trkpt>
      <trkpt lat="50.46055" lon="3.26542">
        <ele>32.34</ele>
        <time>2021-08-07T15:49:51Z</time>
      </trkpt>
      <trkpt lat="50.46055" lon="3.26539">
        <ele>32.34</ele>
        <time>2021-08-07T15:49:52Z</time>
      </trkpt>
      <trkpt lat="50.46053" lon="3.26531">
        <ele>32.34</ele>
        <time>2021-08-07T15:49:55Z</time>
      </trkpt>
      <trkpt lat="50.46052" lon="3.26531">
        <ele>32.34</ele>
        <time>2021-08-07T15:49:56Z</time>
      </trkpt>
      <trkpt lat="50.4605" lon="3.26531">
        <ele>32.34</ele>
        <time>2021-08-07T15:49:57Z</time>
      </trkpt>
      <trkpt lat="50.46049" lon="3.2653">
        <ele>32.34</ele>
        <time>2021-08-07T15:49:58Z</time>
      </trkpt>
      <trkpt lat="50.46047" lon="3.2653">
        <ele>32.34</ele>
        <time>2021-08-07T15:49:59Z</time>
      </trkpt>
      <trkpt lat="50.46031" lon="3.26534">
        <ele>32.34</ele>
        <time>2021-08-07T15:50:05Z</time>
      </trkpt>
      <trkpt lat="50.46007" lon="3.26539">
        <ele>32.34</ele>
        <time>2021-08-07T15:50:11Z</time>
      </trkpt>
      <trkpt lat="50.46003" lon="3.26541">
        <ele>32.34</ele>
        <time>2021-08-07T15:50:12Z</time>
      </trkpt>
      <trkpt lat="50.45981" lon="3.26547">
        <ele>32.34</ele>
        <time>2021-08-07T15:50:17Z</time>
      </trkpt>
      <trkpt lat="50.45972" lon="3.26548">
        <ele>32.34</ele>
        <time>2021-08-07T15:50:18Z</time>
      </trkpt>
      <trkpt lat="50.45948" lon="3.26559">
        <ele>31.38</ele>
        <time>2021-08-07T15:50:23Z</time>
      </trkpt>
      <trkpt lat="50.45943" lon="3.26561">
        <ele>31.38</ele>
        <time>2021-08-07T15:50:24Z</time>
      </trkpt>
      <trkpt lat="50.45937" lon="3.26562">
        <ele>31.38</ele>
        <time>2021-08-07T15:50:25Z</time>
      </trkpt>
      <trkpt lat="50.45896" lon="3.26571">
        <ele>31.38</ele>
        <time>2021-08-07T15:50:32Z</time>
      </trkpt>
      <trkpt lat="50.45859" lon="3.26581">
        <ele>30.42</ele>
        <time>2021-08-07T15:50:38Z</time>
      </trkpt>
      <trkpt lat="50.45807" lon="3.26596">
        <ele>29.94</ele>
        <time>2021-08-07T15:50:46Z</time>
      </trkpt>
      <trkpt lat="50.45745" lon="3.2661">
        <ele>28.98</ele>
        <time>2021-08-07T15:50:55Z</time>
      </trkpt>
      <trkpt lat="50.45697" lon="3.26622">
        <ele>28.5</ele>
        <time>2021-08-07T15:51:02Z</time>
      </trkpt>
      <trkpt lat="50.45648" lon="3.26635">
        <ele>28.02</ele>
        <time>2021-08-07T15:51:09Z</time>
      </trkpt>
      <trkpt lat="50.45584" lon="3.26651">
        <ele>27.53</ele>
        <time>2021-08-07T15:51:18Z</time>
      </trkpt>
      <trkpt lat="50.45543" lon="3.26662">
        <ele>27.05</ele>
        <time>2021-08-07T15:51:24Z</time>
      </trkpt>
      <trkpt lat="50.45538" lon="3.26665">
        <ele>27.05</ele>
        <time>2021-08-07T15:51:25Z</time>
      </trkpt>
      <trkpt lat="50.45534" lon="3.26666">
        <ele>27.05</ele>
        <time>2021-08-07T15:51:26Z</time>
      </trkpt>
      <trkpt lat="50.45531" lon="3.26666">
        <ele>27.05</ele>
        <time>2021-08-07T15:51:27Z</time>
      </trkpt>
      <trkpt lat="50.45528" lon="3.26667">
        <ele>27.05</ele>
        <time>2021-08-07T15:51:28Z</time>
      </trkpt>
      <trkpt lat="50.45526" lon="3.26669">
        <ele>27.05</ele>
        <time>2021-08-07T15:51:29Z</time>
      </trkpt>
      <trkpt lat="50.45523" lon="3.2667">
        <ele>28.02</ele>
        <time>2021-08-07T15:51:30Z</time>
      </trkpt>
      <trkpt lat="50.45522" lon="3.26669">
        <ele>28.02</ele>
        <time>2021-08-07T15:51:31Z</time>
      </trkpt>
      <trkpt lat="50.45519" lon="3.26668">
        <ele>28.02</ele>
        <time>2021-08-07T15:51:32Z</time>
      </trkpt>
      <trkpt lat="50.45516" lon="3.26668">
        <ele>28.02</ele>
        <time>2021-08-07T15:51:33Z</time>
      </trkpt>
      <trkpt lat="50.45513" lon="3.26669">
        <ele>28.02</ele>
        <time>2021-08-07T15:51:34Z</time>
      </trkpt>
      <trkpt lat="50.45509" lon="3.2667">
        <ele>28.02</ele>
        <time>2021-08-07T15:51:35Z</time>
      </trkpt>
      <trkpt lat="50.45499" lon="3.26672">
        <ele>28.02</ele>
        <time>2021-08-07T15:51:37Z</time>
      </trkpt>
      <trkpt lat="50.45484" lon="3.26674">
        <ele>27.05</ele>
        <time>2021-08-07T15:51:40Z</time>
      </trkpt>
      <trkpt lat="50.45479" lon="3.26676">
        <ele>27.05</ele>
        <time>2021-08-07T15:51:41Z</time>
      </trkpt>
      <trkpt lat="50.45444" lon="3.26685">
        <ele>26.57</ele>
        <time>2021-08-07T15:51:47Z</time>
      </trkpt>
      <trkpt lat="50.45403" lon="3.26696">
        <ele>26.57</ele>
        <time>2021-08-07T15:51:54Z</time>
      </trkpt>
      <trkpt lat="50.45354" lon="3.26707">
        <ele>26.09</ele>
        <time>2021-08-07T15:52:02Z</time>
      </trkpt>
      <trkpt lat="50.45318" lon="3.26716">
        <ele>26.09</ele>
        <time>2021-08-07T15:52:08Z</time>
      </trkpt>
      <trkpt lat="50.45264" lon="3.26731">
        <ele>25.61</ele>
        <time>2021-08-07T15:52:16Z</time>
      </trkpt>
      <trkpt lat="50.45245" lon="3.26736">
        <ele>25.61</ele>
        <time>2021-08-07T15:52:19Z</time>
      </trkpt>
      <trkpt lat="50.45238" lon="3.26738">
        <ele>25.61</ele>
        <time>2021-08-07T15:52:20Z</time>
      </trkpt>
      <trkpt lat="50.45179" lon="3.26751">
        <ele>25.13</ele>
        <time>2021-08-07T15:52:29Z</time>
      </trkpt>
      <trkpt lat="50.45131" lon="3.26764">
        <ele>25.13</ele>
        <time>2021-08-07T15:52:36Z</time>
      </trkpt>
      <trkpt lat="50.45124" lon="3.26766">
        <ele>25.13</ele>
        <time>2021-08-07T15:52:37Z</time>
      </trkpt>
      <trkpt lat="50.45118" lon="3.26767">
        <ele>25.13</ele>
        <time>2021-08-07T15:52:38Z</time>
      </trkpt>
      <trkpt lat="50.45059" lon="3.26781">
        <ele>24.65</ele>
        <time>2021-08-07T15:52:47Z</time>
      </trkpt>
      <trkpt lat="50.45" lon="3.26798">
        <ele>24.17</ele>
        <time>2021-08-07T15:52:56Z</time>
      </trkpt>
      <trkpt lat="50.4497" lon="3.26809">
        <ele>23.21</ele>
        <time>2021-08-07T15:53:01Z</time>
      </trkpt>
      <trkpt lat="50.44965" lon="3.26812">
        <ele>23.21</ele>
        <time>2021-08-07T15:53:02Z</time>
      </trkpt>
      <trkpt lat="50.4496" lon="3.26815">
        <ele>23.21</ele>
        <time>2021-08-07T15:53:03Z</time>
      </trkpt>
      <trkpt lat="50.44955" lon="3.26817">
        <ele>23.21</ele>
        <time>2021-08-07T15:53:04Z</time>
      </trkpt>
      <trkpt lat="50.44951" lon="3.26817">
        <ele>23.21</ele>
        <time>2021-08-07T15:53:05Z</time>
      </trkpt>
      <trkpt lat="50.44947" lon="3.26816">
        <ele>24.65</ele>
        <time>2021-08-07T15:53:06Z</time>
      </trkpt>
      <trkpt lat="50.44943" lon="3.26815">
        <ele>24.65</ele>
        <time>2021-08-07T15:53:07Z</time>
      </trkpt>
      <trkpt lat="50.44938" lon="3.26814">
        <ele>24.65</ele>
        <time>2021-08-07T15:53:08Z</time>
      </trkpt>
      <trkpt lat="50.44933" lon="3.26815">
        <ele>24.65</ele>
        <time>2021-08-07T15:53:09Z</time>
      </trkpt>
      <trkpt lat="50.44928" lon="3.26816">
        <ele>24.65</ele>
        <time>2021-08-07T15:53:10Z</time>
      </trkpt>
      <trkpt lat="50.44891" lon="3.26826">
        <ele>24.65</ele>
        <time>2021-08-07T15:53:17Z</time>
      </trkpt>
      <trkpt lat="50.44833" lon="3.26843">
        <ele>23.21</ele>
        <time>2021-08-07T15:53:27Z</time>
      </trkpt>
      <trkpt lat="50.44781" lon="3.26854">
        <ele>23.21</ele>
        <time>2021-08-07T15:53:36Z</time>
      </trkpt>
      <trkpt lat="50.44749" lon="3.26866">
        <ele>23.21</ele>
        <time>2021-08-07T15:53:43Z</time>
      </trkpt>
      <trkpt lat="50.44747" lon="3.26865">
        <ele>23.21</ele>
        <time>2021-08-07T15:53:44Z</time>
      </trkpt>
      <trkpt lat="50.44746" lon="3.26865">
        <ele>23.21</ele>
        <time>2021-08-07T15:53:45Z</time>
      </trkpt>
      <trkpt lat="50.44744" lon="3.26865">
        <ele>23.21</ele>
        <time>2021-08-07T15:53:46Z</time>
      </trkpt>
      <trkpt lat="50.44742" lon="3.26866">
        <ele>23.21</ele>
        <time>2021-08-07T15:53:47Z</time>
      </trkpt>
      <trkpt lat="50.44739" lon="3.26867">
        <ele>23.21</ele>
        <time>2021-08-07T15:53:48Z</time>
      </trkpt>
      <trkpt lat="50.44714" lon="3.26873">
        <ele>23.21</ele>
        <time>2021-08-07T15:53:55Z</time>
      </trkpt>
      <trkpt lat="50.44711" lon="3.26872">
        <ele>23.21</ele>
        <time>2021-08-07T15:53:56Z</time>
      </trkpt>
      <trkpt lat="50.44709" lon="3.26871">
        <ele>23.21</ele>
        <time>2021-08-07T15:53:57Z</time>
      </trkpt>
      <trkpt lat="50.44706" lon="3.26872">
        <ele>23.21</ele>
        <time>2021-08-07T15:54:02Z</time>
      </trkpt>
      <trkpt lat="50.44704" lon="3.26873">
        <ele>23.21</ele>
        <time>2021-08-07T15:54:04Z</time>
      </trkpt>
      <trkpt lat="50.44702" lon="3.26874">
        <ele>23.21</ele>
        <time>2021-08-07T15:54:05Z</time>
      </trkpt>
      <trkpt lat="50.447" lon="3.26876">
        <ele>23.21</ele>
        <time>2021-08-07T15:54:06Z</time>
      </trkpt>
      <trkpt lat="50.44699" lon="3.26877">
        <ele>23.21</ele>
        <time>2021-08-07T15:54:07Z</time>
      </trkpt>
      <trkpt lat="50.44696" lon="3.26877">
        <ele>23.21</ele>
        <time>2021-08-07T15:54:08Z</time>
      </trkpt>
      <trkpt lat="50.44693" lon="3.26876">
        <ele>23.21</ele>
        <time>2021-08-07T15:54:09Z</time>
      </trkpt>
      <trkpt lat="50.44691" lon="3.26876">
        <ele>23.21</ele>
        <time>2021-08-07T15:54:10Z</time>
      </trkpt>
      <trkpt lat="50.44688" lon="3.26876">
        <ele>23.21</ele>
        <time>2021-08-07T15:54:11Z</time>
      </trkpt>
      <trkpt lat="50.44685" lon="3.26877">
        <ele>23.21</ele>
        <time>2021-08-07T15:54:12Z</time>
      </trkpt>
      <trkpt lat="50.4467" lon="3.26881">
        <ele>23.21</ele>
        <time>2021-08-07T15:54:16Z</time>
      </trkpt>
      <trkpt lat="50.44626" lon="3.26895">
        <ele>23.21</ele>
        <time>2021-08-07T15:54:24Z</time>
      </trkpt>
      <trkpt lat="50.44604" lon="3.26901">
        <ele>22.73</ele>
        <time>2021-08-07T15:54:28Z</time>
      </trkpt>
      <trkpt lat="50.44593" lon="3.26905">
        <ele>22.73</ele>
        <time>2021-08-07T15:54:30Z</time>
      </trkpt>
      <trkpt lat="50.44587" lon="3.26907">
        <ele>22.73</ele>
        <time>2021-08-07T15:54:31Z</time>
      </trkpt>
      <trkpt lat="50.44549" lon="3.26922">
        <ele>22.73</ele>
        <time>2021-08-07T15:54:38Z</time>
      </trkpt>
      <trkpt lat="50.44521" lon="3.26932">
        <ele>22.73</ele>
        <time>2021-08-07T15:54:43Z</time>
      </trkpt>
      <trkpt lat="50.44472" lon="3.26956">
        <ele>22.73</ele>
        <time>2021-08-07T15:54:52Z</time>
      </trkpt>
      <trkpt lat="50.44417" lon="3.26981">
        <ele>22.73</ele>
        <time>2021-08-07T15:55:02Z</time>
      </trkpt>
      <trkpt lat="50.44411" lon="3.26983">
        <ele>22.73</ele>
        <time>2021-08-07T15:55:03Z</time>
      </trkpt>
      <trkpt lat="50.44386" lon="3.26993">
        <ele>22.73</ele>
        <time>2021-08-07T15:55:08Z</time>
      </trkpt>
      <trkpt lat="50.4438" lon="3.26994">
        <ele>22.73</ele>
        <time>2021-08-07T15:55:09Z</time>
      </trkpt>
      <trkpt lat="50.44375" lon="3.26996">
        <ele>22.73</ele>
        <time>2021-08-07T15:55:10Z</time>
      </trkpt>
      <trkpt lat="50.4437" lon="3.27">
        <ele>22.73</ele>
        <time>2021-08-07T15:55:11Z</time>
      </trkpt>
      <trkpt lat="50.44366" lon="3.27003">
        <ele>22.73</ele>
        <time>2021-08-07T15:55:12Z</time>
      </trkpt>
      <trkpt lat="50.44361" lon="3.27005">
        <ele>22.73</ele>
        <time>2021-08-07T15:55:13Z</time>
      </trkpt>
      <trkpt lat="50.44356" lon="3.27007">
        <ele>22.73</ele>
        <time>2021-08-07T15:55:14Z</time>
      </trkpt>
      <trkpt lat="50.44352" lon="3.2701">
        <ele>22.73</ele>
        <time>2021-08-07T15:55:15Z</time>
      </trkpt>
      <trkpt lat="50.44313" lon="3.27027">
        <ele>22.73</ele>
        <time>2021-08-07T15:55:23Z</time>
      </trkpt>
      <trkpt lat="50.44265" lon="3.27048">
        <ele>22.73</ele>
        <time>2021-08-07T15:55:33Z</time>
      </trkpt>
      <trkpt lat="50.44226" lon="3.27066">
        <ele>22.73</ele>
        <time>2021-08-07T15:55:41Z</time>
      </trkpt>
      <trkpt lat="50.442" lon="3.27081">
        <ele>22.73</ele>
        <time>2021-08-07T15:55:48Z</time>
      </trkpt>
      <trkpt lat="50.4419" lon="3.27083">
        <ele>22.73</ele>
        <time>2021-08-07T15:55:51Z</time>
      </trkpt>
      <trkpt lat="50.44186" lon="3.27085">
        <ele>22.73</ele>
        <time>2021-08-07T15:55:52Z</time>
      </trkpt>
      <trkpt lat="50.44181" lon="3.27088">
        <ele>22.73</ele>
        <time>2021-08-07T15:55:53Z</time>
      </trkpt>
      <trkpt lat="50.44177" lon="3.2709">
        <ele>22.73</ele>
        <time>2021-08-07T15:55:54Z</time>
      </trkpt>
      <trkpt lat="50.44173" lon="3.27091">
        <ele>22.73</ele>
        <time>2021-08-07T15:55:55Z</time>
      </trkpt>
      <trkpt lat="50.44147" lon="3.27101">
        <ele>22.73</ele>
        <time>2021-08-07T15:56:01Z</time>
      </trkpt>
      <trkpt lat="50.44143" lon="3.27102">
        <ele>22.73</ele>
        <time>2021-08-07T15:56:02Z</time>
      </trkpt>
      <trkpt lat="50.44106" lon="3.2712">
        <ele>22.73</ele>
        <time>2021-08-07T15:56:09Z</time>
      </trkpt>
      <trkpt lat="50.44078" lon="3.27131">
        <ele>22.73</ele>
        <time>2021-08-07T15:56:14Z</time>
      </trkpt>
      <trkpt lat="50.44066" lon="3.27133">
        <ele>22.73</ele>
        <time>2021-08-07T15:56:16Z</time>
      </trkpt>
      <trkpt lat="50.44018" lon="3.27154">
        <ele>22.25</ele>
        <time>2021-08-07T15:56:24Z</time>
      </trkpt>
      <trkpt lat="50.43987" lon="3.27165">
        <ele>22.25</ele>
        <time>2021-08-07T15:56:30Z</time>
      </trkpt>
      <trkpt lat="50.43947" lon="3.27181">
        <ele>22.25</ele>
        <time>2021-08-07T15:56:37Z</time>
      </trkpt>
      <trkpt lat="50.43903" lon="3.27202">
        <ele>22.25</ele>
        <time>2021-08-07T15:56:45Z</time>
      </trkpt>
      <trkpt lat="50.43885" lon="3.2721">
        <ele>22.25</ele>
        <time>2021-08-07T15:56:48Z</time>
      </trkpt>
      <trkpt lat="50.4388" lon="3.27211">
        <ele>22.25</ele>
        <time>2021-08-07T15:56:49Z</time>
      </trkpt>
      <trkpt lat="50.43874" lon="3.27214">
        <ele>22.25</ele>
        <time>2021-08-07T15:56:50Z</time>
      </trkpt>
      <trkpt lat="50.43829" lon="3.27235">
        <ele>22.25</ele>
        <time>2021-08-07T15:56:58Z</time>
      </trkpt>
      <trkpt lat="50.43802" lon="3.27244">
        <ele>21.77</ele>
        <time>2021-08-07T15:57:03Z</time>
      </trkpt>
      <trkpt lat="50.43799" lon="3.27248">
        <ele>21.77</ele>
        <time>2021-08-07T15:57:04Z</time>
      </trkpt>
      <trkpt lat="50.43796" lon="3.27252">
        <ele>21.77</ele>
        <time>2021-08-07T15:57:05Z</time>
      </trkpt>
      <trkpt lat="50.43794" lon="3.27257">
        <ele>21.77</ele>
        <time>2021-08-07T15:57:06Z</time>
      </trkpt>
      <trkpt lat="50.43794" lon="3.27263">
        <ele>21.77</ele>
        <time>2021-08-07T15:57:07Z</time>
      </trkpt>
      <trkpt lat="50.43794" lon="3.27269">
        <ele>21.77</ele>
        <time>2021-08-07T15:57:08Z</time>
      </trkpt>
      <trkpt lat="50.43794" lon="3.27276">
        <ele>21.77</ele>
        <time>2021-08-07T15:57:09Z</time>
      </trkpt>
      <trkpt lat="50.43793" lon="3.27283">
        <ele>21.77</ele>
        <time>2021-08-07T15:57:10Z</time>
      </trkpt>
      <trkpt lat="50.43793" lon="3.27291">
        <ele>21.77</ele>
        <time>2021-08-07T15:57:11Z</time>
      </trkpt>
      <trkpt lat="50.43792" lon="3.27299">
        <ele>22.25</ele>
        <time>2021-08-07T15:57:12Z</time>
      </trkpt>
      <trkpt lat="50.43791" lon="3.27306">
        <ele>22.25</ele>
        <time>2021-08-07T15:57:13Z</time>
      </trkpt>
      <trkpt lat="50.43789" lon="3.27313">
        <ele>22.25</ele>
        <time>2021-08-07T15:57:14Z</time>
      </trkpt>
      <trkpt lat="50.43787" lon="3.27327">
        <ele>23.21</ele>
        <time>2021-08-07T15:57:16Z</time>
      </trkpt>
      <trkpt lat="50.43783" lon="3.27371">
        <ele>22.25</ele>
        <time>2021-08-07T15:57:21Z</time>
      </trkpt>
      <trkpt lat="50.43783" lon="3.2739">
        <ele>22.25</ele>
        <time>2021-08-07T15:57:23Z</time>
      </trkpt>
      <trkpt lat="50.43784" lon="3.27407">
        <ele>22.25</ele>
        <time>2021-08-07T15:57:25Z</time>
      </trkpt>
      <trkpt lat="50.43783" lon="3.27415">
        <ele>22.25</ele>
        <time>2021-08-07T15:57:26Z</time>
      </trkpt>
      <trkpt lat="50.43781" lon="3.27446">
        <ele>22.25</ele>
        <time>2021-08-07T15:57:30Z</time>
      </trkpt>
      <trkpt lat="50.4378" lon="3.27454">
        <ele>22.25</ele>
        <time>2021-08-07T15:57:31Z</time>
      </trkpt>
      <trkpt lat="50.4378" lon="3.27519">
        <ele>23.21</ele>
        <time>2021-08-07T15:57:39Z</time>
      </trkpt>
      <trkpt lat="50.43781" lon="3.27558">
        <ele>23.21</ele>
        <time>2021-08-07T15:57:44Z</time>
      </trkpt>
      <trkpt lat="50.43778" lon="3.27582">
        <ele>23.21</ele>
        <time>2021-08-07T15:57:47Z</time>
      </trkpt>
      <trkpt lat="50.43775" lon="3.27598">
        <ele>23.21</ele>
        <time>2021-08-07T15:57:49Z</time>
      </trkpt>
      <trkpt lat="50.43774" lon="3.27624">
        <ele>23.21</ele>
        <time>2021-08-07T15:57:52Z</time>
      </trkpt>
      <trkpt lat="50.43775" lon="3.27689">
        <ele>23.21</ele>
        <time>2021-08-07T15:58:00Z</time>
      </trkpt>
      <trkpt lat="50.43775" lon="3.27697">
        <ele>22.25</ele>
        <time>2021-08-07T15:58:01Z</time>
      </trkpt>
      <trkpt lat="50.43774" lon="3.27711">
        <ele>22.25</ele>
        <time>2021-08-07T15:58:03Z</time>
      </trkpt>
      <trkpt lat="50.43772" lon="3.27719">
        <ele>22.25</ele>
        <time>2021-08-07T15:58:04Z</time>
      </trkpt>
      <trkpt lat="50.43771" lon="3.27727">
        <ele>22.25</ele>
        <time>2021-08-07T15:58:05Z</time>
      </trkpt>
      <trkpt lat="50.43769" lon="3.2775">
        <ele>22.25</ele>
        <time>2021-08-07T15:58:08Z</time>
      </trkpt>
      <trkpt lat="50.43769" lon="3.27758">
        <ele>22.25</ele>
        <time>2021-08-07T15:58:09Z</time>
      </trkpt>
      <trkpt lat="50.43768" lon="3.27766">
        <ele>22.25</ele>
        <time>2021-08-07T15:58:10Z</time>
      </trkpt>
      <trkpt lat="50.43766" lon="3.27792">
        <ele>22.25</ele>
        <time>2021-08-07T15:58:13Z</time>
      </trkpt>
      <trkpt lat="50.43767" lon="3.27808">
        <ele>22.25</ele>
        <time>2021-08-07T15:58:15Z</time>
      </trkpt>
      <trkpt lat="50.43767" lon="3.27817">
        <ele>22.25</ele>
        <time>2021-08-07T15:58:16Z</time>
      </trkpt>
      <trkpt lat="50.43767" lon="3.27826">
        <ele>22.25</ele>
        <time>2021-08-07T15:58:17Z</time>
      </trkpt>
      <trkpt lat="50.43767" lon="3.27836">
        <ele>22.25</ele>
        <time>2021-08-07T15:58:18Z</time>
      </trkpt>
      <trkpt lat="50.43767" lon="3.27844">
        <ele>22.25</ele>
        <time>2021-08-07T15:58:19Z</time>
      </trkpt>
      <trkpt lat="50.43768" lon="3.27871">
        <ele>22.25</ele>
        <time>2021-08-07T15:58:22Z</time>
      </trkpt>
      <trkpt lat="50.43769" lon="3.27879">
        <ele>22.25</ele>
        <time>2021-08-07T15:58:23Z</time>
      </trkpt>
      <trkpt lat="50.43769" lon="3.27887">
        <ele>22.25</ele>
        <time>2021-08-07T15:58:24Z</time>
      </trkpt>
      <trkpt lat="50.4377" lon="3.27895">
        <ele>22.25</ele>
        <time>2021-08-07T15:58:25Z</time>
      </trkpt>
      <trkpt lat="50.43771" lon="3.27903">
        <ele>22.25</ele>
        <time>2021-08-07T15:58:26Z</time>
      </trkpt>
      <trkpt lat="50.43776" lon="3.27949">
        <ele>22.25</ele>
        <time>2021-08-07T15:58:33Z</time>
      </trkpt>
      <trkpt lat="50.43775" lon="3.27956">
        <ele>22.25</ele>
        <time>2021-08-07T15:58:34Z</time>
      </trkpt>
      <trkpt lat="50.43774" lon="3.27963">
        <ele>22.25</ele>
        <time>2021-08-07T15:58:35Z</time>
      </trkpt>
      <trkpt lat="50.43772" lon="3.27971">
        <ele>22.25</ele>
        <time>2021-08-07T15:58:36Z</time>
      </trkpt>
      <trkpt lat="50.43769" lon="3.27979">
        <ele>22.25</ele>
        <time>2021-08-07T15:58:37Z</time>
      </trkpt>
      <trkpt lat="50.43766" lon="3.27987">
        <ele>22.25</ele>
        <time>2021-08-07T15:58:38Z</time>
      </trkpt>
      <trkpt lat="50.43764" lon="3.27994">
        <ele>22.25</ele>
        <time>2021-08-07T15:58:39Z</time>
      </trkpt>
      <trkpt lat="50.43762" lon="3.28002">
        <ele>22.25</ele>
        <time>2021-08-07T15:58:40Z</time>
      </trkpt>
      <trkpt lat="50.43761" lon="3.28009">
        <ele>22.25</ele>
        <time>2021-08-07T15:58:41Z</time>
      </trkpt>
      <trkpt lat="50.43759" lon="3.28015">
        <ele>22.25</ele>
        <time>2021-08-07T15:58:42Z</time>
      </trkpt>
      <trkpt lat="50.43756" lon="3.2802">
        <ele>22.25</ele>
        <time>2021-08-07T15:58:43Z</time>
      </trkpt>
      <trkpt lat="50.43753" lon="3.28023">
        <ele>22.25</ele>
        <time>2021-08-07T15:58:44Z</time>
      </trkpt>
      <trkpt lat="50.4375" lon="3.28025">
        <ele>22.25</ele>
        <time>2021-08-07T15:58:45Z</time>
      </trkpt>
      <trkpt lat="50.43746" lon="3.28028">
        <ele>22.25</ele>
        <time>2021-08-07T15:58:46Z</time>
      </trkpt>
      <trkpt lat="50.43743" lon="3.28031">
        <ele>22.25</ele>
        <time>2021-08-07T15:58:47Z</time>
      </trkpt>
      <trkpt lat="50.43738" lon="3.28032">
        <ele>22.25</ele>
        <time>2021-08-07T15:58:48Z</time>
      </trkpt>
      <trkpt lat="50.43733" lon="3.28034">
        <ele>22.25</ele>
        <time>2021-08-07T15:58:49Z</time>
      </trkpt>
      <trkpt lat="50.43724" lon="3.28038">
        <ele>22.25</ele>
        <time>2021-08-07T15:58:51Z</time>
      </trkpt>
      <trkpt lat="50.4372" lon="3.2804">
        <ele>22.25</ele>
        <time>2021-08-07T15:58:52Z</time>
      </trkpt>
      <trkpt lat="50.43715" lon="3.28043">
        <ele>22.25</ele>
        <time>2021-08-07T15:58:53Z</time>
      </trkpt>
      <trkpt lat="50.43704" lon="3.28049">
        <ele>21.77</ele>
        <time>2021-08-07T15:58:55Z</time>
      </trkpt>
      <trkpt lat="50.43698" lon="3.28051">
        <ele>21.77</ele>
        <time>2021-08-07T15:58:56Z</time>
      </trkpt>
      <trkpt lat="50.43681" lon="3.28052">
        <ele>21.77</ele>
        <time>2021-08-07T15:58:59Z</time>
      </trkpt>
      <trkpt lat="50.43675" lon="3.28052">
        <ele>21.29</ele>
        <time>2021-08-07T15:59:00Z</time>
      </trkpt>
      <trkpt lat="50.43669" lon="3.28051">
        <ele>21.29</ele>
        <time>2021-08-07T15:59:01Z</time>
      </trkpt>
      <trkpt lat="50.43663" lon="3.28051">
        <ele>21.29</ele>
        <time>2021-08-07T15:59:02Z</time>
      </trkpt>
      <trkpt lat="50.43658" lon="3.28051">
        <ele>21.29</ele>
        <time>2021-08-07T15:59:03Z</time>
      </trkpt>
      <trkpt lat="50.43653" lon="3.28053">
        <ele>21.29</ele>
        <time>2021-08-07T15:59:04Z</time>
      </trkpt>
      <trkpt lat="50.43618" lon="3.28064">
        <ele>21.29</ele>
        <time>2021-08-07T15:59:11Z</time>
      </trkpt>
      <trkpt lat="50.43596" lon="3.28072">
        <ele>21.29</ele>
        <time>2021-08-07T15:59:15Z</time>
      </trkpt>
      <trkpt lat="50.43555" lon="3.2808">
        <ele>21.29</ele>
        <time>2021-08-07T15:59:22Z</time>
      </trkpt>
      <trkpt lat="50.43537" lon="3.28085">
        <ele>21.29</ele>
        <time>2021-08-07T15:59:25Z</time>
      </trkpt>
      <trkpt lat="50.43531" lon="3.28086">
        <ele>21.29</ele>
        <time>2021-08-07T15:59:26Z</time>
      </trkpt>
      <trkpt lat="50.43494" lon="3.28097">
        <ele>21.29</ele>
        <time>2021-08-07T15:59:32Z</time>
      </trkpt>
      <trkpt lat="50.43458" lon="3.28108">
        <ele>20.81</ele>
        <time>2021-08-07T15:59:38Z</time>
      </trkpt>
      <trkpt lat="50.4341" lon="3.2812">
        <ele>20.81</ele>
        <time>2021-08-07T15:59:46Z</time>
      </trkpt>
      <trkpt lat="50.43364" lon="3.2813">
        <ele>20.81</ele>
        <time>2021-08-07T15:59:53Z</time>
      </trkpt>
      <trkpt lat="50.43317" lon="3.28144">
        <ele>20.32</ele>
        <time>2021-08-07T16:00:01Z</time>
      </trkpt>
      <trkpt lat="50.43274" lon="3.28155">
        <ele>20.32</ele>
        <time>2021-08-07T16:00:09Z</time>
      </trkpt>
      <trkpt lat="50.43224" lon="3.28165">
        <ele>20.32</ele>
        <time>2021-08-07T16:00:18Z</time>
      </trkpt>
      <trkpt lat="50.43194" lon="3.28172">
        <ele>20.32</ele>
        <time>2021-08-07T16:00:23Z</time>
      </trkpt>
      <trkpt lat="50.43139" lon="3.28185">
        <ele>20.32</ele>
        <time>2021-08-07T16:00:32Z</time>
      </trkpt>
      <trkpt lat="50.431" lon="3.28195">
        <ele>20.32</ele>
        <time>2021-08-07T16:00:39Z</time>
      </trkpt>
      <trkpt lat="50.43065" lon="3.28202">
        <ele>20.32</ele>
        <time>2021-08-07T16:00:45Z</time>
      </trkpt>
      <trkpt lat="50.43029" lon="3.28212">
        <ele>20.32</ele>
        <time>2021-08-07T16:00:51Z</time>
      </trkpt>
      <trkpt lat="50.42975" lon="3.28227">
        <ele>20.81</ele>
        <time>2021-08-07T16:01:00Z</time>
      </trkpt>
      <trkpt lat="50.42947" lon="3.28235">
        <ele>20.81</ele>
        <time>2021-08-07T16:01:05Z</time>
      </trkpt>
      <trkpt lat="50.42908" lon="3.28245">
        <ele>20.81</ele>
        <time>2021-08-07T16:01:12Z</time>
      </trkpt>
      <trkpt lat="50.42867" lon="3.28256">
        <ele>20.81</ele>
        <time>2021-08-07T16:01:19Z</time>
      </trkpt>
      <trkpt lat="50.42821" lon="3.28265">
        <ele>20.32</ele>
        <time>2021-08-07T16:01:27Z</time>
      </trkpt>
      <trkpt lat="50.42809" lon="3.28267">
        <ele>20.32</ele>
        <time>2021-08-07T16:01:29Z</time>
      </trkpt>
      <trkpt lat="50.42767" lon="3.28276">
        <ele>20.32</ele>
        <time>2021-08-07T16:01:36Z</time>
      </trkpt>
      <trkpt lat="50.42749" lon="3.2828">
        <ele>20.32</ele>
        <time>2021-08-07T16:01:39Z</time>
      </trkpt>
      <trkpt lat="50.42743" lon="3.28282">
        <ele>20.32</ele>
        <time>2021-08-07T16:01:40Z</time>
      </trkpt>
      <trkpt lat="50.42691" lon="3.28295">
        <ele>20.32</ele>
        <time>2021-08-07T16:01:49Z</time>
      </trkpt>
      <trkpt lat="50.42663" lon="3.28303">
        <ele>20.32</ele>
        <time>2021-08-07T16:01:54Z</time>
      </trkpt>
      <trkpt lat="50.42635" lon="3.28311">
        <ele>20.32</ele>
        <time>2021-08-07T16:01:59Z</time>
      </trkpt>
      <trkpt lat="50.42603" lon="3.28322">
        <ele>20.32</ele>
        <time>2021-08-07T16:02:05Z</time>
      </trkpt>
      <trkpt lat="50.42563" lon="3.28333">
        <ele>20.81</ele>
        <time>2021-08-07T16:02:12Z</time>
      </trkpt>
      <trkpt lat="50.42546" lon="3.28338">
        <ele>20.81</ele>
        <time>2021-08-07T16:02:15Z</time>
      </trkpt>
      <trkpt lat="50.4254" lon="3.2834">
        <ele>20.81</ele>
        <time>2021-08-07T16:02:16Z</time>
      </trkpt>
      <trkpt lat="50.42534" lon="3.28342">
        <ele>20.81</ele>
        <time>2021-08-07T16:02:17Z</time>
      </trkpt>
      <trkpt lat="50.42529" lon="3.28343">
        <ele>20.81</ele>
        <time>2021-08-07T16:02:18Z</time>
      </trkpt>
      <trkpt lat="50.42523" lon="3.28344">
        <ele>20.81</ele>
        <time>2021-08-07T16:02:19Z</time>
      </trkpt>
      <trkpt lat="50.42517" lon="3.28345">
        <ele>20.81</ele>
        <time>2021-08-07T16:02:20Z</time>
      </trkpt>
      <trkpt lat="50.42477" lon="3.28356">
        <ele>20.81</ele>
        <time>2021-08-07T16:02:27Z</time>
      </trkpt>
      <trkpt lat="50.42437" lon="3.28366">
        <ele>20.81</ele>
        <time>2021-08-07T16:02:34Z</time>
      </trkpt>
      <trkpt lat="50.42431" lon="3.28368">
        <ele>20.81</ele>
        <time>2021-08-07T16:02:35Z</time>
      </trkpt>
      <trkpt lat="50.42425" lon="3.2837">
        <ele>20.81</ele>
        <time>2021-08-07T16:02:36Z</time>
      </trkpt>
      <trkpt lat="50.42419" lon="3.28372">
        <ele>20.81</ele>
        <time>2021-08-07T16:02:37Z</time>
      </trkpt>
      <trkpt lat="50.42374" lon="3.28387">
        <ele>20.81</ele>
        <time>2021-08-07T16:02:45Z</time>
      </trkpt>
      <trkpt lat="50.42368" lon="3.28389">
        <ele>20.81</ele>
        <time>2021-08-07T16:02:46Z</time>
      </trkpt>
      <trkpt lat="50.42362" lon="3.2839">
        <ele>20.81</ele>
        <time>2021-08-07T16:02:47Z</time>
      </trkpt>
      <trkpt lat="50.42356" lon="3.28391">
        <ele>20.81</ele>
        <time>2021-08-07T16:02:48Z</time>
      </trkpt>
      <trkpt lat="50.42351" lon="3.28392">
        <ele>20.81</ele>
        <time>2021-08-07T16:02:49Z</time>
      </trkpt>
      <trkpt lat="50.4234" lon="3.28394">
        <ele>20.81</ele>
        <time>2021-08-07T16:02:51Z</time>
      </trkpt>
      <trkpt lat="50.42334" lon="3.28397">
        <ele>20.81</ele>
        <time>2021-08-07T16:02:52Z</time>
      </trkpt>
      <trkpt lat="50.42328" lon="3.28399">
        <ele>20.81</ele>
        <time>2021-08-07T16:02:53Z</time>
      </trkpt>
      <trkpt lat="50.42299" lon="3.28408">
        <ele>20.81</ele>
        <time>2021-08-07T16:02:58Z</time>
      </trkpt>
      <trkpt lat="50.42256" lon="3.28418">
        <ele>20.81</ele>
        <time>2021-08-07T16:03:05Z</time>
      </trkpt>
      <trkpt lat="50.4225" lon="3.2842">
        <ele>20.81</ele>
        <time>2021-08-07T16:03:06Z</time>
      </trkpt>
      <trkpt lat="50.42216" lon="3.28428">
        <ele>20.32</ele>
        <time>2021-08-07T16:03:12Z</time>
      </trkpt>
      <trkpt lat="50.42162" lon="3.28438">
        <ele>20.32</ele>
        <time>2021-08-07T16:03:21Z</time>
      </trkpt>
      <trkpt lat="50.42133" lon="3.28443">
        <ele>20.32</ele>
        <time>2021-08-07T16:03:26Z</time>
      </trkpt>
      <trkpt lat="50.42126" lon="3.28445">
        <ele>20.32</ele>
        <time>2021-08-07T16:03:27Z</time>
      </trkpt>
      <trkpt lat="50.42115" lon="3.28447">
        <ele>20.32</ele>
        <time>2021-08-07T16:03:29Z</time>
      </trkpt>
      <trkpt lat="50.42109" lon="3.28448">
        <ele>20.32</ele>
        <time>2021-08-07T16:03:30Z</time>
      </trkpt>
      <trkpt lat="50.42074" lon="3.28456">
        <ele>20.32</ele>
        <time>2021-08-07T16:03:36Z</time>
      </trkpt>
      <trkpt lat="50.42067" lon="3.28456">
        <ele>20.32</ele>
        <time>2021-08-07T16:03:37Z</time>
      </trkpt>
      <trkpt lat="50.42027" lon="3.28462">
        <ele>20.32</ele>
        <time>2021-08-07T16:03:44Z</time>
      </trkpt>
      <trkpt lat="50.42" lon="3.28467">
        <ele>20.32</ele>
        <time>2021-08-07T16:03:49Z</time>
      </trkpt>
      <trkpt lat="50.41994" lon="3.28468">
        <ele>20.32</ele>
        <time>2021-08-07T16:03:50Z</time>
      </trkpt>
      <trkpt lat="50.41989" lon="3.28469">
        <ele>20.32</ele>
        <time>2021-08-07T16:03:51Z</time>
      </trkpt>
      <trkpt lat="50.41931" lon="3.28476">
        <ele>20.32</ele>
        <time>2021-08-07T16:04:01Z</time>
      </trkpt>
      <trkpt lat="50.41887" lon="3.28482">
        <ele>20.32</ele>
        <time>2021-08-07T16:04:09Z</time>
      </trkpt>
      <trkpt lat="50.41845" lon="3.28488">
        <ele>21.77</ele>
        <time>2021-08-07T16:04:17Z</time>
      </trkpt>
      <trkpt lat="50.41833" lon="3.28491">
        <ele>21.77</ele>
        <time>2021-08-07T16:04:19Z</time>
      </trkpt>
      <trkpt lat="50.4179" lon="3.28494">
        <ele>22.25</ele>
        <time>2021-08-07T16:04:27Z</time>
      </trkpt>
      <trkpt lat="50.4175" lon="3.285">
        <ele>22.25</ele>
        <time>2021-08-07T16:04:35Z</time>
      </trkpt>
      <trkpt lat="50.41701" lon="3.28509">
        <ele>22.25</ele>
        <time>2021-08-07T16:04:43Z</time>
      </trkpt>
      <trkpt lat="50.41647" lon="3.28519">
        <ele>22.25</ele>
        <time>2021-08-07T16:04:52Z</time>
      </trkpt>
      <trkpt lat="50.41586" lon="3.28528">
        <ele>21.77</ele>
        <time>2021-08-07T16:05:02Z</time>
      </trkpt>
      <trkpt lat="50.41537" lon="3.28534">
        <ele>21.77</ele>
        <time>2021-08-07T16:05:10Z</time>
      </trkpt>
      <trkpt lat="50.41526" lon="3.28536">
        <ele>20.81</ele>
        <time>2021-08-07T16:05:12Z</time>
      </trkpt>
      <trkpt lat="50.41459" lon="3.28546">
        <ele>20.81</ele>
        <time>2021-08-07T16:05:23Z</time>
      </trkpt>
      <trkpt lat="50.41428" lon="3.2855">
        <ele>20.81</ele>
        <time>2021-08-07T16:05:28Z</time>
      </trkpt>
      <trkpt lat="50.41375" lon="3.28557">
        <ele>18.88</ele>
        <time>2021-08-07T16:05:37Z</time>
      </trkpt>
      <trkpt lat="50.4134" lon="3.28561">
        <ele>18.88</ele>
        <time>2021-08-07T16:05:43Z</time>
      </trkpt>
      <trkpt lat="50.41317" lon="3.28565">
        <ele>18.88</ele>
        <time>2021-08-07T16:05:47Z</time>
      </trkpt>
      <trkpt lat="50.41268" lon="3.28571">
        <ele>18.88</ele>
        <time>2021-08-07T16:05:56Z</time>
      </trkpt>
      <trkpt lat="50.41206" lon="3.28579">
        <ele>20.81</ele>
        <time>2021-08-07T16:06:08Z</time>
      </trkpt>
      <trkpt lat="50.41162" lon="3.28586">
        <ele>20.81</ele>
        <time>2021-08-07T16:06:17Z</time>
      </trkpt>
      <trkpt lat="50.41116" lon="3.28594">
        <ele>21.29</ele>
        <time>2021-08-07T16:06:26Z</time>
      </trkpt>
      <trkpt lat="50.41112" lon="3.28596">
        <ele>21.29</ele>
        <time>2021-08-07T16:06:27Z</time>
      </trkpt>
      <trkpt lat="50.41107" lon="3.28598">
        <ele>21.29</ele>
        <time>2021-08-07T16:06:28Z</time>
      </trkpt>
      <trkpt lat="50.41103" lon="3.28599">
        <ele>21.29</ele>
        <time>2021-08-07T16:06:29Z</time>
      </trkpt>
      <trkpt lat="50.41055" lon="3.28607">
        <ele>21.77</ele>
        <time>2021-08-07T16:06:38Z</time>
      </trkpt>
      <trkpt lat="50.41012" lon="3.28614">
        <ele>21.77</ele>
        <time>2021-08-07T16:06:46Z</time>
      </trkpt>
      <trkpt lat="50.41006" lon="3.28616">
        <ele>21.77</ele>
        <time>2021-08-07T16:06:47Z</time>
      </trkpt>
      <trkpt lat="50.41001" lon="3.2862">
        <ele>21.77</ele>
        <time>2021-08-07T16:06:48Z</time>
      </trkpt>
      <trkpt lat="50.40997" lon="3.28624">
        <ele>21.77</ele>
        <time>2021-08-07T16:06:49Z</time>
      </trkpt>
      <trkpt lat="50.40992" lon="3.2863">
        <ele>21.77</ele>
        <time>2021-08-07T16:06:50Z</time>
      </trkpt>
      <trkpt lat="50.40988" lon="3.28636">
        <ele>21.77</ele>
        <time>2021-08-07T16:06:51Z</time>
      </trkpt>
      <trkpt lat="50.40984" lon="3.28642">
        <ele>21.77</ele>
        <time>2021-08-07T16:06:52Z</time>
      </trkpt>
      <trkpt lat="50.4098" lon="3.28648">
        <ele>21.77</ele>
        <time>2021-08-07T16:06:53Z</time>
      </trkpt>
      <trkpt lat="50.40977" lon="3.28654">
        <ele>21.77</ele>
        <time>2021-08-07T16:06:54Z</time>
      </trkpt>
      <trkpt lat="50.40935" lon="3.28735">
        <ele>21.77</ele>
        <time>2021-08-07T16:07:06Z</time>
      </trkpt>
      <trkpt lat="50.40932" lon="3.28741">
        <ele>21.77</ele>
        <time>2021-08-07T16:07:07Z</time>
      </trkpt>
      <trkpt lat="50.40928" lon="3.28746">
        <ele>21.77</ele>
        <time>2021-08-07T16:07:08Z</time>
      </trkpt>
      <trkpt lat="50.40925" lon="3.28748">
        <ele>21.77</ele>
        <time>2021-08-07T16:07:09Z</time>
      </trkpt>
      <trkpt lat="50.40921" lon="3.28748">
        <ele>21.77</ele>
        <time>2021-08-07T16:07:10Z</time>
      </trkpt>
      <trkpt lat="50.40918" lon="3.28747">
        <ele>21.77</ele>
        <time>2021-08-07T16:07:11Z</time>
      </trkpt>
      <trkpt lat="50.40915" lon="3.28748">
        <ele>21.77</ele>
        <time>2021-08-07T16:07:12Z</time>
      </trkpt>
      <trkpt lat="50.40914" lon="3.28749">
        <ele>21.77</ele>
        <time>2021-08-07T16:07:13Z</time>
      </trkpt>
      <trkpt lat="50.40912" lon="3.28752">
        <ele>21.77</ele>
        <time>2021-08-07T16:07:14Z</time>
      </trkpt>
      <trkpt lat="50.40911" lon="3.28754">
        <ele>21.77</ele>
        <time>2021-08-07T16:07:15Z</time>
      </trkpt>
      <trkpt lat="50.40909" lon="3.28756">
        <ele>21.77</ele>
        <time>2021-08-07T16:07:16Z</time>
      </trkpt>
      <trkpt lat="50.40907" lon="3.28758">
        <ele>21.77</ele>
        <time>2021-08-07T16:07:17Z</time>
      </trkpt>
      <trkpt lat="50.40905" lon="3.2876">
        <ele>21.77</ele>
        <time>2021-08-07T16:07:18Z</time>
      </trkpt>
      <trkpt lat="50.40904" lon="3.28764">
        <ele>21.77</ele>
        <time>2021-08-07T16:07:19Z</time>
      </trkpt>
      <trkpt lat="50.40902" lon="3.28769">
        <ele>21.77</ele>
        <time>2021-08-07T16:07:20Z</time>
      </trkpt>
      <trkpt lat="50.409" lon="3.28774">
        <ele>21.77</ele>
        <time>2021-08-07T16:07:21Z</time>
      </trkpt>
      <trkpt lat="50.40897" lon="3.28779">
        <ele>21.77</ele>
        <time>2021-08-07T16:07:22Z</time>
      </trkpt>
      <trkpt lat="50.40892" lon="3.28791">
        <ele>21.77</ele>
        <time>2021-08-07T16:07:24Z</time>
      </trkpt>
      <trkpt lat="50.40888" lon="3.28798">
        <ele>21.77</ele>
        <time>2021-08-07T16:07:25Z</time>
      </trkpt>
      <trkpt lat="50.40885" lon="3.28803">
        <ele>21.77</ele>
        <time>2021-08-07T16:07:26Z</time>
      </trkpt>
      <trkpt lat="50.40882" lon="3.2881">
        <ele>21.77</ele>
        <time>2021-08-07T16:07:27Z</time>
      </trkpt>
      <trkpt lat="50.40879" lon="3.28816">
        <ele>21.77</ele>
        <time>2021-08-07T16:07:28Z</time>
      </trkpt>
      <trkpt lat="50.40873" lon="3.28828">
        <ele>20.81</ele>
        <time>2021-08-07T16:07:30Z</time>
      </trkpt>
      <trkpt lat="50.4087" lon="3.28834">
        <ele>20.81</ele>
        <time>2021-08-07T16:07:31Z</time>
      </trkpt>
      <trkpt lat="50.40866" lon="3.28839">
        <ele>20.81</ele>
        <time>2021-08-07T16:07:32Z</time>
      </trkpt>
      <trkpt lat="50.40843" lon="3.28886">
        <ele>20.81</ele>
        <time>2021-08-07T16:07:39Z</time>
      </trkpt>
      <trkpt lat="50.40809" lon="3.28951">
        <ele>20.81</ele>
        <time>2021-08-07T16:07:48Z</time>
      </trkpt>
      <trkpt lat="50.40778" lon="3.29009">
        <ele>20.81</ele>
        <time>2021-08-07T16:07:56Z</time>
      </trkpt>
      <trkpt lat="50.40749" lon="3.29063">
        <ele>20.81</ele>
        <time>2021-08-07T16:08:04Z</time>
      </trkpt>
      <trkpt lat="50.40722" lon="3.2911">
        <ele>20.81</ele>
        <time>2021-08-07T16:08:11Z</time>
      </trkpt>
      <trkpt lat="50.40718" lon="3.29116">
        <ele>20.32</ele>
        <time>2021-08-07T16:08:12Z</time>
      </trkpt>
      <trkpt lat="50.40714" lon="3.29123">
        <ele>20.32</ele>
        <time>2021-08-07T16:08:13Z</time>
      </trkpt>
      <trkpt lat="50.407" lon="3.29152">
        <ele>20.32</ele>
        <time>2021-08-07T16:08:17Z</time>
      </trkpt>
      <trkpt lat="50.40696" lon="3.29159">
        <ele>20.32</ele>
        <time>2021-08-07T16:08:18Z</time>
      </trkpt>
      <trkpt lat="50.40662" lon="3.29227">
        <ele>20.32</ele>
        <time>2021-08-07T16:08:27Z</time>
      </trkpt>
      <trkpt lat="50.40631" lon="3.29284">
        <ele>20.32</ele>
        <time>2021-08-07T16:08:35Z</time>
      </trkpt>
      <trkpt lat="50.40595" lon="3.29333">
        <ele>20.32</ele>
        <time>2021-08-07T16:08:43Z</time>
      </trkpt>
      <trkpt lat="50.40586" lon="3.29344">
        <ele>20.32</ele>
        <time>2021-08-07T16:08:45Z</time>
      </trkpt>
      <trkpt lat="50.40577" lon="3.29354">
        <ele>20.32</ele>
        <time>2021-08-07T16:08:47Z</time>
      </trkpt>
      <trkpt lat="50.40573" lon="3.29361">
        <ele>20.32</ele>
        <time>2021-08-07T16:08:48Z</time>
      </trkpt>
      <trkpt lat="50.40561" lon="3.29381">
        <ele>20.32</ele>
        <time>2021-08-07T16:08:51Z</time>
      </trkpt>
      <trkpt lat="50.40556" lon="3.29386">
        <ele>20.32</ele>
        <time>2021-08-07T16:08:52Z</time>
      </trkpt>
      <trkpt lat="50.40542" lon="3.29401">
        <ele>21.77</ele>
        <time>2021-08-07T16:08:55Z</time>
      </trkpt>
      <trkpt lat="50.40511" lon="3.29432">
        <ele>21.77</ele>
        <time>2021-08-07T16:09:02Z</time>
      </trkpt>
      <trkpt lat="50.40478" lon="3.29461">
        <ele>21.77</ele>
        <time>2021-08-07T16:09:09Z</time>
      </trkpt>
      <trkpt lat="50.40474" lon="3.29465">
        <ele>21.77</ele>
        <time>2021-08-07T16:09:10Z</time>
      </trkpt>
      <trkpt lat="50.4046" lon="3.29473">
        <ele>22.25</ele>
        <time>2021-08-07T16:09:14Z</time>
      </trkpt>
      <trkpt lat="50.40458" lon="3.29472">
        <ele>22.25</ele>
        <time>2021-08-07T16:09:15Z</time>
      </trkpt>
      <trkpt lat="50.40455" lon="3.29473">
        <ele>22.25</ele>
        <time>2021-08-07T16:09:16Z</time>
      </trkpt>
      <trkpt lat="50.40452" lon="3.29474">
        <ele>22.25</ele>
        <time>2021-08-07T16:09:17Z</time>
      </trkpt>
      <trkpt lat="50.40449" lon="3.29475">
        <ele>22.25</ele>
        <time>2021-08-07T16:09:18Z</time>
      </trkpt>
      <trkpt lat="50.40445" lon="3.29475">
        <ele>22.25</ele>
        <time>2021-08-07T16:09:19Z</time>
      </trkpt>
      <trkpt lat="50.4044" lon="3.29476">
        <ele>22.25</ele>
        <time>2021-08-07T16:09:20Z</time>
      </trkpt>
      <trkpt lat="50.40437" lon="3.29479">
        <ele>22.25</ele>
        <time>2021-08-07T16:09:21Z</time>
      </trkpt>
      <trkpt lat="50.40432" lon="3.29482">
        <ele>22.25</ele>
        <time>2021-08-07T16:09:22Z</time>
      </trkpt>
      <trkpt lat="50.40428" lon="3.29485">
        <ele>22.25</ele>
        <time>2021-08-07T16:09:23Z</time>
      </trkpt>
      <trkpt lat="50.40424" lon="3.29487">
        <ele>22.25</ele>
        <time>2021-08-07T16:09:24Z</time>
      </trkpt>
      <trkpt lat="50.40388" lon="3.29501">
        <ele>22.25</ele>
        <time>2021-08-07T16:09:32Z</time>
      </trkpt>
      <trkpt lat="50.40355" lon="3.2952">
        <ele>22.25</ele>
        <time>2021-08-07T16:09:40Z</time>
      </trkpt>
      <trkpt lat="50.40338" lon="3.29526">
        <ele>22.73</ele>
        <time>2021-08-07T16:09:44Z</time>
      </trkpt>
      <trkpt lat="50.40304" lon="3.29533">
        <ele>22.73</ele>
        <time>2021-08-07T16:09:52Z</time>
      </trkpt>
      <trkpt lat="50.40296" lon="3.29533">
        <ele>23.21</ele>
        <time>2021-08-07T16:09:54Z</time>
      </trkpt>
      <trkpt lat="50.40291" lon="3.29533">
        <ele>23.69</ele>
        <time>2021-08-07T16:09:55Z</time>
      </trkpt>
      <trkpt lat="50.40249" lon="3.29536">
        <ele>23.69</ele>
        <time>2021-08-07T16:10:04Z</time>
      </trkpt>
      <trkpt lat="50.40245" lon="3.29535">
        <ele>23.69</ele>
        <time>2021-08-07T16:10:05Z</time>
      </trkpt>
      <trkpt lat="50.40213" lon="3.29537">
        <ele>23.69</ele>
        <time>2021-08-07T16:10:12Z</time>
      </trkpt>
      <trkpt lat="50.40176" lon="3.29533">
        <ele>24.17</ele>
        <time>2021-08-07T16:10:20Z</time>
      </trkpt>
      <trkpt lat="50.40167" lon="3.29534">
        <ele>24.65</ele>
        <time>2021-08-07T16:10:22Z</time>
      </trkpt>
      <trkpt lat="50.40163" lon="3.29535">
        <ele>24.65</ele>
        <time>2021-08-07T16:10:23Z</time>
      </trkpt>
      <trkpt lat="50.4016" lon="3.29535">
        <ele>24.65</ele>
        <time>2021-08-07T16:10:24Z</time>
      </trkpt>
      <trkpt lat="50.40156" lon="3.29536">
        <ele>24.65</ele>
        <time>2021-08-07T16:10:25Z</time>
      </trkpt>
      <trkpt lat="50.40152" lon="3.29538">
        <ele>24.65</ele>
        <time>2021-08-07T16:10:26Z</time>
      </trkpt>
      <trkpt lat="50.4015" lon="3.2954">
        <ele>24.65</ele>
        <time>2021-08-07T16:10:27Z</time>
      </trkpt>
      <trkpt lat="50.40148" lon="3.29542">
        <ele>24.65</ele>
        <time>2021-08-07T16:10:28Z</time>
      </trkpt>
      <trkpt lat="50.40147" lon="3.29544">
        <ele>24.65</ele>
        <time>2021-08-07T16:10:29Z</time>
      </trkpt>
      <trkpt lat="50.40147" lon="3.29548">
        <ele>24.65</ele>
        <time>2021-08-07T16:10:30Z</time>
      </trkpt>
      <trkpt lat="50.40147" lon="3.29553">
        <ele>21.77</ele>
        <time>2021-08-07T16:10:31Z</time>
      </trkpt>
      <trkpt lat="50.40148" lon="3.29563">
        <ele>19.84</ele>
        <time>2021-08-07T16:10:32Z</time>
      </trkpt>
      <trkpt lat="50.40148" lon="3.29573">
        <ele>19.84</ele>
        <time>2021-08-07T16:10:33Z</time>
      </trkpt>
      <trkpt lat="50.40148" lon="3.29583">
        <ele>19.84</ele>
        <time>2021-08-07T16:10:34Z</time>
      </trkpt>
      <trkpt lat="50.40147" lon="3.29593">
        <ele>19.84</ele>
        <time>2021-08-07T16:10:35Z</time>
      </trkpt>
      <trkpt lat="50.40147" lon="3.29612">
        <ele>19.84</ele>
        <time>2021-08-07T16:10:37Z</time>
      </trkpt>
      <trkpt lat="50.40148" lon="3.29647">
        <ele>19.84</ele>
        <time>2021-08-07T16:10:41Z</time>
      </trkpt>
      <trkpt lat="50.40148" lon="3.29656">
        <ele>19.84</ele>
        <time>2021-08-07T16:10:42Z</time>
      </trkpt>
      <trkpt lat="50.40148" lon="3.29665">
        <ele>19.84</ele>
        <time>2021-08-07T16:10:43Z</time>
      </trkpt>
      <trkpt lat="50.40149" lon="3.29673">
        <ele>19.84</ele>
        <time>2021-08-07T16:10:44Z</time>
      </trkpt>
      <trkpt lat="50.4015" lon="3.29681">
        <ele>19.84</ele>
        <time>2021-08-07T16:10:45Z</time>
      </trkpt>
      <trkpt lat="50.40153" lon="3.29747">
        <ele>19.84</ele>
        <time>2021-08-07T16:10:53Z</time>
      </trkpt>
      <trkpt lat="50.40158" lon="3.29803">
        <ele>19.84</ele>
        <time>2021-08-07T16:11:00Z</time>
      </trkpt>
      <trkpt lat="50.4016" lon="3.2981">
        <ele>19.84</ele>
        <time>2021-08-07T16:11:01Z</time>
      </trkpt>
      <trkpt lat="50.40167" lon="3.29851">
        <ele>19.84</ele>
        <time>2021-08-07T16:11:06Z</time>
      </trkpt>
      <trkpt lat="50.40171" lon="3.29866">
        <ele>19.84</ele>
        <time>2021-08-07T16:11:08Z</time>
      </trkpt>
      <trkpt lat="50.40175" lon="3.29882">
        <ele>19.84</ele>
        <time>2021-08-07T16:11:10Z</time>
      </trkpt>
      <trkpt lat="50.40178" lon="3.29889">
        <ele>19.84</ele>
        <time>2021-08-07T16:11:11Z</time>
      </trkpt>
      <trkpt lat="50.4018" lon="3.29897">
        <ele>19.84</ele>
        <time>2021-08-07T16:11:12Z</time>
      </trkpt>
      <trkpt lat="50.40181" lon="3.29905">
        <ele>19.84</ele>
        <time>2021-08-07T16:11:13Z</time>
      </trkpt>
      <trkpt lat="50.40183" lon="3.29913">
        <ele>19.84</ele>
        <time>2021-08-07T16:11:14Z</time>
      </trkpt>
      <trkpt lat="50.40186" lon="3.29921">
        <ele>19.84</ele>
        <time>2021-08-07T16:11:15Z</time>
      </trkpt>
      <trkpt lat="50.40188" lon="3.29927">
        <ele>19.84</ele>
        <time>2021-08-07T16:11:16Z</time>
      </trkpt>
      <trkpt lat="50.4019" lon="3.29935">
        <ele>20.81</ele>
        <time>2021-08-07T16:11:17Z</time>
      </trkpt>
      <trkpt lat="50.40192" lon="3.29943">
        <ele>20.81</ele>
        <time>2021-08-07T16:11:18Z</time>
      </trkpt>
      <trkpt lat="50.40194" lon="3.2995">
        <ele>20.81</ele>
        <time>2021-08-07T16:11:19Z</time>
      </trkpt>
      <trkpt lat="50.40196" lon="3.29958">
        <ele>20.81</ele>
        <time>2021-08-07T16:11:20Z</time>
      </trkpt>
      <trkpt lat="50.40198" lon="3.29965">
        <ele>20.81</ele>
        <time>2021-08-07T16:11:21Z</time>
      </trkpt>
      <trkpt lat="50.402" lon="3.29971">
        <ele>20.81</ele>
        <time>2021-08-07T16:11:22Z</time>
      </trkpt>
      <trkpt lat="50.40202" lon="3.29978">
        <ele>20.81</ele>
        <time>2021-08-07T16:11:23Z</time>
      </trkpt>
      <trkpt lat="50.40205" lon="3.29993">
        <ele>20.81</ele>
        <time>2021-08-07T16:11:25Z</time>
      </trkpt>
      <trkpt lat="50.40208" lon="3.29999">
        <ele>20.81</ele>
        <time>2021-08-07T16:11:26Z</time>
      </trkpt>
      <trkpt lat="50.40225" lon="3.30059">
        <ele>20.81</ele>
        <time>2021-08-07T16:11:34Z</time>
      </trkpt>
      <trkpt lat="50.40243" lon="3.30138">
        <ele>20.81</ele>
        <time>2021-08-07T16:11:44Z</time>
      </trkpt>
      <trkpt lat="50.40246" lon="3.30171">
        <ele>20.81</ele>
        <time>2021-08-07T16:11:49Z</time>
      </trkpt>
      <trkpt lat="50.40245" lon="3.30174">
        <ele>20.81</ele>
        <time>2021-08-07T16:11:50Z</time>
      </trkpt>
      <trkpt lat="50.40245" lon="3.30177">
        <ele>21.29</ele>
        <time>2021-08-07T16:11:51Z</time>
      </trkpt>
      <trkpt lat="50.40246" lon="3.3018">
        <ele>21.29</ele>
        <time>2021-08-07T16:11:52Z</time>
      </trkpt>
      <trkpt lat="50.40247" lon="3.30185">
        <ele>21.29</ele>
        <time>2021-08-07T16:11:53Z</time>
      </trkpt>
      <trkpt lat="50.40249" lon="3.30189">
        <ele>21.29</ele>
        <time>2021-08-07T16:11:54Z</time>
      </trkpt>
      <trkpt lat="50.4025" lon="3.30195">
        <ele>21.29</ele>
        <time>2021-08-07T16:11:55Z</time>
      </trkpt>
      <trkpt lat="50.40251" lon="3.30202">
        <ele>21.29</ele>
        <time>2021-08-07T16:11:56Z</time>
      </trkpt>
      <trkpt lat="50.40252" lon="3.30208">
        <ele>21.29</ele>
        <time>2021-08-07T16:11:57Z</time>
      </trkpt>
      <trkpt lat="50.40256" lon="3.30294">
        <ele>21.29</ele>
        <time>2021-08-07T16:12:08Z</time>
      </trkpt>
      <trkpt lat="50.40256" lon="3.30301">
        <ele>21.29</ele>
        <time>2021-08-07T16:12:09Z</time>
      </trkpt>
      <trkpt lat="50.40257" lon="3.30304">
        <ele>21.29</ele>
        <time>2021-08-07T16:12:10Z</time>
      </trkpt>
      <trkpt lat="50.40259" lon="3.30307">
        <ele>21.29</ele>
        <time>2021-08-07T16:12:11Z</time>
      </trkpt>
      <trkpt lat="50.4026" lon="3.30312">
        <ele>21.29</ele>
        <time>2021-08-07T16:12:12Z</time>
      </trkpt>
      <trkpt lat="50.4026" lon="3.30317">
        <ele>21.29</ele>
        <time>2021-08-07T16:12:13Z</time>
      </trkpt>
      <trkpt lat="50.40262" lon="3.30342">
        <ele>21.29</ele>
        <time>2021-08-07T16:12:17Z</time>
      </trkpt>
      <trkpt lat="50.40262" lon="3.30348">
        <ele>21.29</ele>
        <time>2021-08-07T16:12:18Z</time>
      </trkpt>
      <trkpt lat="50.40266" lon="3.30409">
        <ele>21.29</ele>
        <time>2021-08-07T16:12:26Z</time>
      </trkpt>
      <trkpt lat="50.40272" lon="3.30507">
        <ele>21.29</ele>
        <time>2021-08-07T16:12:38Z</time>
      </trkpt>
      <trkpt lat="50.40277" lon="3.30605">
        <ele>21.29</ele>
        <time>2021-08-07T16:12:50Z</time>
      </trkpt>
      <trkpt lat="50.40282" lon="3.30676">
        <ele>21.29</ele>
        <time>2021-08-07T16:12:59Z</time>
      </trkpt>
      <trkpt lat="50.40286" lon="3.30741">
        <ele>19.84</ele>
        <time>2021-08-07T16:13:07Z</time>
      </trkpt>
      <trkpt lat="50.40288" lon="3.30774">
        <ele>19.84</ele>
        <time>2021-08-07T16:13:11Z</time>
      </trkpt>
      <trkpt lat="50.40289" lon="3.30781">
        <ele>19.84</ele>
        <time>2021-08-07T16:13:12Z</time>
      </trkpt>
      <trkpt lat="50.40292" lon="3.30809">
        <ele>19.84</ele>
        <time>2021-08-07T16:13:18Z</time>
      </trkpt>
      <trkpt lat="50.40291" lon="3.30821">
        <ele>21.29</ele>
        <time>2021-08-07T16:13:23Z</time>
      </trkpt>
      <trkpt lat="50.40293" lon="3.30823">
        <ele>21.29</ele>
        <time>2021-08-07T16:13:24Z</time>
      </trkpt>
      <trkpt lat="50.40293" lon="3.30826">
        <ele>21.29</ele>
        <time>2021-08-07T16:13:25Z</time>
      </trkpt>
      <trkpt lat="50.40294" lon="3.30854">
        <ele>21.29</ele>
        <time>2021-08-07T16:13:31Z</time>
      </trkpt>
      <trkpt lat="50.40299" lon="3.3089">
        <ele>21.29</ele>
        <time>2021-08-07T16:13:36Z</time>
      </trkpt>
      <trkpt lat="50.40313" lon="3.30988">
        <ele>20.81</ele>
        <time>2021-08-07T16:13:47Z</time>
      </trkpt>
      <trkpt lat="50.40322" lon="3.31047">
        <ele>20.81</ele>
        <time>2021-08-07T16:13:54Z</time>
      </trkpt>
      <trkpt lat="50.40334" lon="3.31118">
        <ele>20.81</ele>
        <time>2021-08-07T16:14:03Z</time>
      </trkpt>
      <trkpt lat="50.40342" lon="3.31175">
        <ele>20.81</ele>
        <time>2021-08-07T16:14:10Z</time>
      </trkpt>
      <trkpt lat="50.40352" lon="3.3123">
        <ele>20.81</ele>
        <time>2021-08-07T16:14:17Z</time>
      </trkpt>
      <trkpt lat="50.40365" lon="3.31315">
        <ele>20.81</ele>
        <time>2021-08-07T16:14:27Z</time>
      </trkpt>
      <trkpt lat="50.40376" lon="3.3139">
        <ele>21.29</ele>
        <time>2021-08-07T16:14:36Z</time>
      </trkpt>
      <trkpt lat="50.40387" lon="3.31466">
        <ele>21.29</ele>
        <time>2021-08-07T16:14:45Z</time>
      </trkpt>
      <trkpt lat="50.40395" lon="3.31534">
        <ele>21.29</ele>
        <time>2021-08-07T16:14:53Z</time>
      </trkpt>
      <trkpt lat="50.40406" lon="3.3161">
        <ele>21.29</ele>
        <time>2021-08-07T16:15:02Z</time>
      </trkpt>
      <trkpt lat="50.4042" lon="3.31696">
        <ele>21.29</ele>
        <time>2021-08-07T16:15:12Z</time>
      </trkpt>
      <trkpt lat="50.40437" lon="3.31798">
        <ele>21.29</ele>
        <time>2021-08-07T16:15:24Z</time>
      </trkpt>
      <trkpt lat="50.40447" lon="3.31884">
        <ele>21.29</ele>
        <time>2021-08-07T16:15:34Z</time>
      </trkpt>
      <trkpt lat="50.40457" lon="3.31976">
        <ele>21.29</ele>
        <time>2021-08-07T16:15:45Z</time>
      </trkpt>
      <trkpt lat="50.40463" lon="3.32018">
        <ele>21.29</ele>
        <time>2021-08-07T16:15:50Z</time>
      </trkpt>
      <trkpt lat="50.40464" lon="3.32026">
        <ele>22.73</ele>
        <time>2021-08-07T16:15:51Z</time>
      </trkpt>
      <trkpt lat="50.40478" lon="3.32102">
        <ele>20.81</ele>
        <time>2021-08-07T16:16:00Z</time>
      </trkpt>
      <trkpt lat="50.40501" lon="3.32151">
        <ele>20.81</ele>
        <time>2021-08-07T16:16:07Z</time>
      </trkpt>
      <trkpt lat="50.40547" lon="3.3222">
        <ele>20.81</ele>
        <time>2021-08-07T16:16:18Z</time>
      </trkpt>
      <trkpt lat="50.40592" lon="3.32291">
        <ele>20.81</ele>
        <time>2021-08-07T16:16:29Z</time>
      </trkpt>
      <trkpt lat="50.40634" lon="3.32355">
        <ele>20.81</ele>
        <time>2021-08-07T16:16:39Z</time>
      </trkpt>
      <trkpt lat="50.40665" lon="3.32423">
        <ele>20.81</ele>
        <time>2021-08-07T16:16:48Z</time>
      </trkpt>
      <trkpt lat="50.40679" lon="3.32494">
        <ele>20.32</ele>
        <time>2021-08-07T16:16:56Z</time>
      </trkpt>
      <trkpt lat="50.4069" lon="3.32577">
        <ele>20.32</ele>
        <time>2021-08-07T16:17:05Z</time>
      </trkpt>
      <trkpt lat="50.40704" lon="3.32668">
        <ele>19.84</ele>
        <time>2021-08-07T16:17:15Z</time>
      </trkpt>
      <trkpt lat="50.40713" lon="3.32743">
        <ele>19.84</ele>
        <time>2021-08-07T16:17:23Z</time>
      </trkpt>
      <trkpt lat="50.40726" lon="3.32829">
        <ele>19.84</ele>
        <time>2021-08-07T16:17:32Z</time>
      </trkpt>
      <trkpt lat="50.40739" lon="3.32921">
        <ele>19.84</ele>
        <time>2021-08-07T16:17:42Z</time>
      </trkpt>
      <trkpt lat="50.40754" lon="3.33032">
        <ele>19.84</ele>
        <time>2021-08-07T16:17:54Z</time>
      </trkpt>
      <trkpt lat="50.40764" lon="3.33099">
        <ele>19.84</ele>
        <time>2021-08-07T16:18:02Z</time>
      </trkpt>
      <trkpt lat="50.40769" lon="3.33146">
        <ele>19.84</ele>
        <time>2021-08-07T16:18:08Z</time>
      </trkpt>
      <trkpt lat="50.40774" lon="3.33194">
        <ele>19.84</ele>
        <time>2021-08-07T16:18:14Z</time>
      </trkpt>
      <trkpt lat="50.40774" lon="3.33211">
        <ele>19.84</ele>
        <time>2021-08-07T16:18:16Z</time>
      </trkpt>
      <trkpt lat="50.40785" lon="3.33264">
        <ele>19.84</ele>
        <time>2021-08-07T16:18:23Z</time>
      </trkpt>
      <trkpt lat="50.40804" lon="3.33329">
        <ele>19.84</ele>
        <time>2021-08-07T16:18:32Z</time>
      </trkpt>
      <trkpt lat="50.40805" lon="3.33334">
        <ele>19.84</ele>
        <time>2021-08-07T16:18:33Z</time>
      </trkpt>
      <trkpt lat="50.40804" lon="3.33338">
        <ele>19.84</ele>
        <time>2021-08-07T16:18:34Z</time>
      </trkpt>
      <trkpt lat="50.40802" lon="3.33341">
        <ele>19.84</ele>
        <time>2021-08-07T16:18:35Z</time>
      </trkpt>
      <trkpt lat="50.40799" lon="3.33343">
        <ele>19.84</ele>
        <time>2021-08-07T16:18:36Z</time>
      </trkpt>
      <trkpt lat="50.40796" lon="3.33345">
        <ele>19.84</ele>
        <time>2021-08-07T16:18:37Z</time>
      </trkpt>
      <trkpt lat="50.40772" lon="3.33365">
        <ele>18.88</ele>
        <time>2021-08-07T16:18:43Z</time>
      </trkpt>
      <trkpt lat="50.40768" lon="3.33372">
        <ele>18.88</ele>
        <time>2021-08-07T16:18:44Z</time>
      </trkpt>
      <trkpt lat="50.40766" lon="3.33379">
        <ele>18.88</ele>
        <time>2021-08-07T16:18:45Z</time>
      </trkpt>
      <trkpt lat="50.40766" lon="3.33389">
        <ele>18.88</ele>
        <time>2021-08-07T16:18:46Z</time>
      </trkpt>
      <trkpt lat="50.40766" lon="3.33397">
        <ele>18.88</ele>
        <time>2021-08-07T16:18:47Z</time>
      </trkpt>
      <trkpt lat="50.40767" lon="3.33405">
        <ele>18.88</ele>
        <time>2021-08-07T16:18:48Z</time>
      </trkpt>
      <trkpt lat="50.40768" lon="3.33414">
        <ele>18.88</ele>
        <time>2021-08-07T16:18:49Z</time>
      </trkpt>
      <trkpt lat="50.40779" lon="3.33499">
        <ele>18.88</ele>
        <time>2021-08-07T16:18:59Z</time>
      </trkpt>
      <trkpt lat="50.40779" lon="3.33508">
        <ele>18.88</ele>
        <time>2021-08-07T16:19:00Z</time>
      </trkpt>
      <trkpt lat="50.40778" lon="3.33517">
        <ele>18.88</ele>
        <time>2021-08-07T16:19:01Z</time>
      </trkpt>
      <trkpt lat="50.40777" lon="3.33526">
        <ele>18.88</ele>
        <time>2021-08-07T16:19:02Z</time>
      </trkpt>
      <trkpt lat="50.40775" lon="3.33535">
        <ele>18.88</ele>
        <time>2021-08-07T16:19:03Z</time>
      </trkpt>
      <trkpt lat="50.40772" lon="3.33543">
        <ele>18.88</ele>
        <time>2021-08-07T16:19:04Z</time>
      </trkpt>
      <trkpt lat="50.40748" lon="3.33626">
        <ele>18.88</ele>
        <time>2021-08-07T16:19:14Z</time>
      </trkpt>
      <trkpt lat="50.40717" lon="3.33736">
        <ele>18.88</ele>
        <time>2021-08-07T16:19:27Z</time>
      </trkpt>
      <trkpt lat="50.40688" lon="3.33846">
        <ele>18.4</ele>
        <time>2021-08-07T16:19:40Z</time>
      </trkpt>
      <trkpt lat="50.40661" lon="3.33927">
        <ele>18.4</ele>
        <time>2021-08-07T16:19:50Z</time>
      </trkpt>
      <trkpt lat="50.4061" lon="3.34061">
        <ele>18.4</ele>
        <time>2021-08-07T16:20:07Z</time>
      </trkpt>
      <trkpt lat="50.40586" lon="3.34122">
        <ele>18.4</ele>
        <time>2021-08-07T16:20:15Z</time>
      </trkpt>
      <trkpt lat="50.40553" lon="3.34207">
        <ele>18.4</ele>
        <time>2021-08-07T16:20:26Z</time>
      </trkpt>
      <trkpt lat="50.40515" lon="3.34305">
        <ele>17.92</ele>
        <time>2021-08-07T16:20:39Z</time>
      </trkpt>
      <trkpt lat="50.40483" lon="3.34387">
        <ele>17.92</ele>
        <time>2021-08-07T16:20:50Z</time>
      </trkpt>
      <trkpt lat="50.40475" lon="3.34408">
        <ele>17.92</ele>
        <time>2021-08-07T16:20:53Z</time>
      </trkpt>
      <trkpt lat="50.40474" lon="3.34416">
        <ele>17.92</ele>
        <time>2021-08-07T16:20:54Z</time>
      </trkpt>
      <trkpt lat="50.40474" lon="3.34424">
        <ele>19.36</ele>
        <time>2021-08-07T16:20:55Z</time>
      </trkpt>
      <trkpt lat="50.40476" lon="3.34432">
        <ele>19.36</ele>
        <time>2021-08-07T16:20:56Z</time>
      </trkpt>
      <trkpt lat="50.40479" lon="3.34439">
        <ele>19.36</ele>
        <time>2021-08-07T16:20:57Z</time>
      </trkpt>
      <trkpt lat="50.40482" lon="3.34445">
        <ele>19.36</ele>
        <time>2021-08-07T16:20:58Z</time>
      </trkpt>
      <trkpt lat="50.4051" lon="3.34503">
        <ele>19.36</ele>
        <time>2021-08-07T16:21:06Z</time>
      </trkpt>
      <trkpt lat="50.40556" lon="3.34602">
        <ele>19.36</ele>
        <time>2021-08-07T16:21:19Z</time>
      </trkpt>
      <trkpt lat="50.40571" lon="3.34634">
        <ele>19.36</ele>
        <time>2021-08-07T16:21:23Z</time>
      </trkpt>
      <trkpt lat="50.40573" lon="3.34643">
        <ele>19.36</ele>
        <time>2021-08-07T16:21:24Z</time>
      </trkpt>
      <trkpt lat="50.40575" lon="3.34652">
        <ele>19.36</ele>
        <time>2021-08-07T16:21:25Z</time>
      </trkpt>
      <trkpt lat="50.40577" lon="3.34661">
        <ele>19.36</ele>
        <time>2021-08-07T16:21:26Z</time>
      </trkpt>
      <trkpt lat="50.40578" lon="3.3467">
        <ele>19.36</ele>
        <time>2021-08-07T16:21:27Z</time>
      </trkpt>
      <trkpt lat="50.40578" lon="3.3468">
        <ele>19.84</ele>
        <time>2021-08-07T16:21:28Z</time>
      </trkpt>
      <trkpt lat="50.40578" lon="3.34689">
        <ele>19.84</ele>
        <time>2021-08-07T16:21:29Z</time>
      </trkpt>
      <trkpt lat="50.40579" lon="3.34764">
        <ele>19.84</ele>
        <time>2021-08-07T16:21:37Z</time>
      </trkpt>
      <trkpt lat="50.40582" lon="3.34846">
        <ele>19.84</ele>
        <time>2021-08-07T16:21:46Z</time>
      </trkpt>
      <trkpt lat="50.40575" lon="3.34916">
        <ele>20.32</ele>
        <time>2021-08-07T16:21:54Z</time>
      </trkpt>
      <trkpt lat="50.40571" lon="3.34932">
        <ele>20.32</ele>
        <time>2021-08-07T16:21:56Z</time>
      </trkpt>
      <trkpt lat="50.40569" lon="3.34941">
        <ele>20.32</ele>
        <time>2021-08-07T16:21:57Z</time>
      </trkpt>
      <trkpt lat="50.40566" lon="3.34948">
        <ele>20.32</ele>
        <time>2021-08-07T16:21:58Z</time>
      </trkpt>
      <trkpt lat="50.40563" lon="3.34955">
        <ele>20.32</ele>
        <time>2021-08-07T16:21:59Z</time>
      </trkpt>
      <trkpt lat="50.40559" lon="3.34962">
        <ele>20.32</ele>
        <time>2021-08-07T16:22:00Z</time>
      </trkpt>
      <trkpt lat="50.40554" lon="3.34969">
        <ele>20.32</ele>
        <time>2021-08-07T16:22:01Z</time>
      </trkpt>
      <trkpt lat="50.4055" lon="3.34975">
        <ele>20.32</ele>
        <time>2021-08-07T16:22:02Z</time>
      </trkpt>
      <trkpt lat="50.40546" lon="3.34981">
        <ele>20.32</ele>
        <time>2021-08-07T16:22:03Z</time>
      </trkpt>
      <trkpt lat="50.40497" lon="3.35057">
        <ele>19.84</ele>
        <time>2021-08-07T16:22:15Z</time>
      </trkpt>
      <trkpt lat="50.40461" lon="3.35128">
        <ele>18.88</ele>
        <time>2021-08-07T16:22:25Z</time>
      </trkpt>
      <trkpt lat="50.40428" lon="3.352">
        <ele>18.88</ele>
        <time>2021-08-07T16:22:35Z</time>
      </trkpt>
      <trkpt lat="50.40394" lon="3.3528">
        <ele>18.88</ele>
        <time>2021-08-07T16:22:46Z</time>
      </trkpt>
      <trkpt lat="50.40367" lon="3.35346">
        <ele>18.88</ele>
        <time>2021-08-07T16:22:55Z</time>
      </trkpt>
      <trkpt lat="50.40363" lon="3.35364">
        <ele>18.88</ele>
        <time>2021-08-07T16:22:57Z</time>
      </trkpt>
      <trkpt lat="50.40357" lon="3.35458">
        <ele>18.88</ele>
        <time>2021-08-07T16:23:07Z</time>
      </trkpt>
      <trkpt lat="50.40359" lon="3.35515">
        <ele>18.88</ele>
        <time>2021-08-07T16:23:13Z</time>
      </trkpt>
      <trkpt lat="50.40362" lon="3.35579">
        <ele>18.88</ele>
        <time>2021-08-07T16:23:20Z</time>
      </trkpt>
      <trkpt lat="50.40364" lon="3.35622">
        <ele>18.88</ele>
        <time>2021-08-07T16:23:25Z</time>
      </trkpt>
      <trkpt lat="50.40365" lon="3.3563">
        <ele>18.88</ele>
        <time>2021-08-07T16:23:26Z</time>
      </trkpt>
      <trkpt lat="50.40368" lon="3.35639">
        <ele>18.88</ele>
        <time>2021-08-07T16:23:27Z</time>
      </trkpt>
      <trkpt lat="50.40371" lon="3.35645">
        <ele>18.88</ele>
        <time>2021-08-07T16:23:28Z</time>
      </trkpt>
      <trkpt lat="50.40376" lon="3.3565">
        <ele>18.88</ele>
        <time>2021-08-07T16:23:29Z</time>
      </trkpt>
      <trkpt lat="50.40382" lon="3.35654">
        <ele>18.88</ele>
        <time>2021-08-07T16:23:30Z</time>
      </trkpt>
      <trkpt lat="50.40387" lon="3.35657">
        <ele>18.88</ele>
        <time>2021-08-07T16:23:31Z</time>
      </trkpt>
      <trkpt lat="50.40393" lon="3.35659">
        <ele>18.88</ele>
        <time>2021-08-07T16:23:32Z</time>
      </trkpt>
      <trkpt lat="50.40399" lon="3.35661">
        <ele>18.88</ele>
        <time>2021-08-07T16:23:33Z</time>
      </trkpt>
      <trkpt lat="50.40457" lon="3.3568">
        <ele>18.88</ele>
        <time>2021-08-07T16:23:43Z</time>
      </trkpt>
      <trkpt lat="50.40485" lon="3.35692">
        <ele>18.88</ele>
        <time>2021-08-07T16:23:48Z</time>
      </trkpt>
      <trkpt lat="50.40489" lon="3.35695">
        <ele>18.88</ele>
        <time>2021-08-07T16:23:49Z</time>
      </trkpt>
      <trkpt lat="50.40491" lon="3.357">
        <ele>18.88</ele>
        <time>2021-08-07T16:23:50Z</time>
      </trkpt>
      <trkpt lat="50.40493" lon="3.35706">
        <ele>18.88</ele>
        <time>2021-08-07T16:23:51Z</time>
      </trkpt>
      <trkpt lat="50.40493" lon="3.35711">
        <ele>18.88</ele>
        <time>2021-08-07T16:23:52Z</time>
      </trkpt>
      <trkpt lat="50.40492" lon="3.35714">
        <ele>18.88</ele>
        <time>2021-08-07T16:23:53Z</time>
      </trkpt>
      <trkpt lat="50.40492" lon="3.35717">
        <ele>18.88</ele>
        <time>2021-08-07T16:23:54Z</time>
      </trkpt>
      <trkpt lat="50.4049" lon="3.35738">
        <ele>18.88</ele>
        <time>2021-08-07T16:24:00Z</time>
      </trkpt>
      <trkpt lat="50.40486" lon="3.35782">
        <ele>18.88</ele>
        <time>2021-08-07T16:24:08Z</time>
      </trkpt>
      <trkpt lat="50.40485" lon="3.35796">
        <ele>18.88</ele>
        <time>2021-08-07T16:24:10Z</time>
      </trkpt>
      <trkpt lat="50.40484" lon="3.35802">
        <ele>18.88</ele>
        <time>2021-08-07T16:24:11Z</time>
      </trkpt>
      <trkpt lat="50.40483" lon="3.35808">
        <ele>18.88</ele>
        <time>2021-08-07T16:24:12Z</time>
      </trkpt>
      <trkpt lat="50.40474" lon="3.3587">
        <ele>18.88</ele>
        <time>2021-08-07T16:24:21Z</time>
      </trkpt>
      <trkpt lat="50.40465" lon="3.3593">
        <ele>18.88</ele>
        <time>2021-08-07T16:24:30Z</time>
      </trkpt>
      <trkpt lat="50.40456" lon="3.35994">
        <ele>18.88</ele>
        <time>2021-08-07T16:24:39Z</time>
      </trkpt>
      <trkpt lat="50.40446" lon="3.3605">
        <ele>18.88</ele>
        <time>2021-08-07T16:24:47Z</time>
      </trkpt>
      <trkpt lat="50.40434" lon="3.36116">
        <ele>18.88</ele>
        <time>2021-08-07T16:24:56Z</time>
      </trkpt>
      <trkpt lat="50.40423" lon="3.36176">
        <ele>18.88</ele>
        <time>2021-08-07T16:25:04Z</time>
      </trkpt>
      <trkpt lat="50.40413" lon="3.36245">
        <ele>18.88</ele>
        <time>2021-08-07T16:25:13Z</time>
      </trkpt>
      <trkpt lat="50.40404" lon="3.36315">
        <ele>18.88</ele>
        <time>2021-08-07T16:25:22Z</time>
      </trkpt>
      <trkpt lat="50.40395" lon="3.36383">
        <ele>18.88</ele>
        <time>2021-08-07T16:25:31Z</time>
      </trkpt>
      <trkpt lat="50.40389" lon="3.36412">
        <ele>18.88</ele>
        <time>2021-08-07T16:25:35Z</time>
      </trkpt>
      <trkpt lat="50.40379" lon="3.36478">
        <ele>18.4</ele>
        <time>2021-08-07T16:25:44Z</time>
      </trkpt>
      <trkpt lat="50.40368" lon="3.36541">
        <ele>18.4</ele>
        <time>2021-08-07T16:25:53Z</time>
      </trkpt>
      <trkpt lat="50.40364" lon="3.36576">
        <ele>18.4</ele>
        <time>2021-08-07T16:25:58Z</time>
      </trkpt>
      <trkpt lat="50.40353" lon="3.36642">
        <ele>18.4</ele>
        <time>2021-08-07T16:26:07Z</time>
      </trkpt>
      <trkpt lat="50.40346" lon="3.36689">
        <ele>18.4</ele>
        <time>2021-08-07T16:26:14Z</time>
      </trkpt>
      <trkpt lat="50.40342" lon="3.36709">
        <ele>19.36</ele>
        <time>2021-08-07T16:26:17Z</time>
      </trkpt>
      <trkpt lat="50.40332" lon="3.36778">
        <ele>19.36</ele>
        <time>2021-08-07T16:26:27Z</time>
      </trkpt>
      <trkpt lat="50.40322" lon="3.36839">
        <ele>19.84</ele>
        <time>2021-08-07T16:26:35Z</time>
      </trkpt>
      <trkpt lat="50.40312" lon="3.36907">
        <ele>19.84</ele>
        <time>2021-08-07T16:26:44Z</time>
      </trkpt>
      <trkpt lat="50.40303" lon="3.36962">
        <ele>19.84</ele>
        <time>2021-08-07T16:26:52Z</time>
      </trkpt>
      <trkpt lat="50.40298" lon="3.36997">
        <ele>19.84</ele>
        <time>2021-08-07T16:26:58Z</time>
      </trkpt>
      <trkpt lat="50.40294" lon="3.3704">
        <ele>19.84</ele>
        <time>2021-08-07T16:27:05Z</time>
      </trkpt>
      <trkpt lat="50.40291" lon="3.37061">
        <ele>19.84</ele>
        <time>2021-08-07T16:27:08Z</time>
      </trkpt>
      <trkpt lat="50.40271" lon="3.37147">
        <ele>20.32</ele>
        <time>2021-08-07T16:27:20Z</time>
      </trkpt>
      <trkpt lat="50.4027" lon="3.37153">
        <ele>20.32</ele>
        <time>2021-08-07T16:27:21Z</time>
      </trkpt>
      <trkpt lat="50.40261" lon="3.37213">
        <ele>20.32</ele>
        <time>2021-08-07T16:27:30Z</time>
      </trkpt>
      <trkpt lat="50.4025" lon="3.37287">
        <ele>20.32</ele>
        <time>2021-08-07T16:27:41Z</time>
      </trkpt>
      <trkpt lat="50.40242" lon="3.37334">
        <ele>20.32</ele>
        <time>2021-08-07T16:27:48Z</time>
      </trkpt>
      <trkpt lat="50.40234" lon="3.37388">
        <ele>20.32</ele>
        <time>2021-08-07T16:27:57Z</time>
      </trkpt>
      <trkpt lat="50.40229" lon="3.37418">
        <ele>20.32</ele>
        <time>2021-08-07T16:28:02Z</time>
      </trkpt>
      <trkpt lat="50.40228" lon="3.37424">
        <ele>20.32</ele>
        <time>2021-08-07T16:28:03Z</time>
      </trkpt>
      <trkpt lat="50.40222" lon="3.37462">
        <ele>20.32</ele>
        <time>2021-08-07T16:28:09Z</time>
      </trkpt>
      <trkpt lat="50.40221" lon="3.37468">
        <ele>20.32</ele>
        <time>2021-08-07T16:28:10Z</time>
      </trkpt>
      <trkpt lat="50.40214" lon="3.3752">
        <ele>20.32</ele>
        <time>2021-08-07T16:28:18Z</time>
      </trkpt>
      <trkpt lat="50.40205" lon="3.37581">
        <ele>18.88</ele>
        <time>2021-08-07T16:28:27Z</time>
      </trkpt>
      <trkpt lat="50.40196" lon="3.3764">
        <ele>18.88</ele>
        <time>2021-08-07T16:28:36Z</time>
      </trkpt>
      <trkpt lat="50.40192" lon="3.3768">
        <ele>18.88</ele>
        <time>2021-08-07T16:28:43Z</time>
      </trkpt>
      <trkpt lat="50.40186" lon="3.37721">
        <ele>18.88</ele>
        <time>2021-08-07T16:28:51Z</time>
      </trkpt>
      <trkpt lat="50.40184" lon="3.3774">
        <ele>18.88</ele>
        <time>2021-08-07T16:28:57Z</time>
      </trkpt>
      <trkpt lat="50.40183" lon="3.37744">
        <ele>18.88</ele>
        <time>2021-08-07T16:28:59Z</time>
      </trkpt>
      <trkpt lat="50.40181" lon="3.37747">
        <ele>18.88</ele>
        <time>2021-08-07T16:29:02Z</time>
      </trkpt>
      <trkpt lat="50.4018" lon="3.37749">
        <ele>18.88</ele>
        <time>2021-08-07T16:29:03Z</time>
      </trkpt>
      <trkpt lat="50.40176" lon="3.37756">
        <ele>18.88</ele>
        <time>2021-08-07T16:29:06Z</time>
      </trkpt>
      <trkpt lat="50.40176" lon="3.3776">
        <ele>18.88</ele>
        <time>2021-08-07T16:29:07Z</time>
      </trkpt>
      <trkpt lat="50.40177" lon="3.37763">
        <ele>18.88</ele>
        <time>2021-08-07T16:29:08Z</time>
      </trkpt>
      <trkpt lat="50.40178" lon="3.37766">
        <ele>18.88</ele>
        <time>2021-08-07T16:29:09Z</time>
      </trkpt>
      <trkpt lat="50.40179" lon="3.3777">
        <ele>18.88</ele>
        <time>2021-08-07T16:29:10Z</time>
      </trkpt>
      <trkpt lat="50.40181" lon="3.37772">
        <ele>18.88</ele>
        <time>2021-08-07T16:29:11Z</time>
      </trkpt>
      <trkpt lat="50.40184" lon="3.37774">
        <ele>18.88</ele>
        <time>2021-08-07T16:29:12Z</time>
      </trkpt>
      <trkpt lat="50.40187" lon="3.37777">
        <ele>18.88</ele>
        <time>2021-08-07T16:29:13Z</time>
      </trkpt>
      <trkpt lat="50.4019" lon="3.3778">
        <ele>18.88</ele>
        <time>2021-08-07T16:29:14Z</time>
      </trkpt>
      <trkpt lat="50.40193" lon="3.37783">
        <ele>18.88</ele>
        <time>2021-08-07T16:29:15Z</time>
      </trkpt>
      <trkpt lat="50.40226" lon="3.37813">
        <ele>18.88</ele>
        <time>2021-08-07T16:29:24Z</time>
      </trkpt>
      <trkpt lat="50.40259" lon="3.37843">
        <ele>18.88</ele>
        <time>2021-08-07T16:29:32Z</time>
      </trkpt>
      <trkpt lat="50.40288" lon="3.37869">
        <ele>18.88</ele>
        <time>2021-08-07T16:29:39Z</time>
      </trkpt>
      <trkpt lat="50.403" lon="3.37881">
        <ele>18.88</ele>
        <time>2021-08-07T16:29:42Z</time>
      </trkpt>
      <trkpt lat="50.40344" lon="3.3792">
        <ele>18.88</ele>
        <time>2021-08-07T16:29:52Z</time>
      </trkpt>
      <trkpt lat="50.40385" lon="3.37957">
        <ele>18.88</ele>
        <time>2021-08-07T16:30:01Z</time>
      </trkpt>
      <trkpt lat="50.40432" lon="3.38">
        <ele>18.88</ele>
        <time>2021-08-07T16:30:11Z</time>
      </trkpt>
      <trkpt lat="50.40483" lon="3.38047">
        <ele>18.88</ele>
        <time>2021-08-07T16:30:22Z</time>
      </trkpt>
      <trkpt lat="50.40535" lon="3.38093">
        <ele>18.4</ele>
        <time>2021-08-07T16:30:33Z</time>
      </trkpt>
      <trkpt lat="50.40588" lon="3.3814">
        <ele>18.4</ele>
        <time>2021-08-07T16:30:44Z</time>
      </trkpt>
      <trkpt lat="50.40652" lon="3.38198">
        <ele>18.4</ele>
        <time>2021-08-07T16:30:57Z</time>
      </trkpt>
      <trkpt lat="50.40711" lon="3.38251">
        <ele>18.4</ele>
        <time>2021-08-07T16:31:09Z</time>
      </trkpt>
      <trkpt lat="50.40771" lon="3.38305">
        <ele>18.4</ele>
        <time>2021-08-07T16:31:21Z</time>
      </trkpt>
      <trkpt lat="50.40827" lon="3.38354">
        <ele>17.92</ele>
        <time>2021-08-07T16:31:32Z</time>
      </trkpt>
      <trkpt lat="50.40878" lon="3.38395">
        <ele>17.92</ele>
        <time>2021-08-07T16:31:42Z</time>
      </trkpt>
      <trkpt lat="50.40881" lon="3.384">
        <ele>17.92</ele>
        <time>2021-08-07T16:31:43Z</time>
      </trkpt>
      <trkpt lat="50.40883" lon="3.38407">
        <ele>17.92</ele>
        <time>2021-08-07T16:31:44Z</time>
      </trkpt>
      <trkpt lat="50.40882" lon="3.38413">
        <ele>17.92</ele>
        <time>2021-08-07T16:31:45Z</time>
      </trkpt>
      <trkpt lat="50.40879" lon="3.38419">
        <ele>17.92</ele>
        <time>2021-08-07T16:31:46Z</time>
      </trkpt>
      <trkpt lat="50.40876" lon="3.38424">
        <ele>17.92</ele>
        <time>2021-08-07T16:31:47Z</time>
      </trkpt>
      <trkpt lat="50.40845" lon="3.38468">
        <ele>17.92</ele>
        <time>2021-08-07T16:31:56Z</time>
      </trkpt>
      <trkpt lat="50.40833" lon="3.3849">
        <ele>17.44</ele>
        <time>2021-08-07T16:32:00Z</time>
      </trkpt>
      <trkpt lat="50.40831" lon="3.38497">
        <ele>17.44</ele>
        <time>2021-08-07T16:32:01Z</time>
      </trkpt>
      <trkpt lat="50.40829" lon="3.38505">
        <ele>17.44</ele>
        <time>2021-08-07T16:32:02Z</time>
      </trkpt>
      <trkpt lat="50.40829" lon="3.38512">
        <ele>17.44</ele>
        <time>2021-08-07T16:32:03Z</time>
      </trkpt>
      <trkpt lat="50.40829" lon="3.38519">
        <ele>17.44</ele>
        <time>2021-08-07T16:32:04Z</time>
      </trkpt>
      <trkpt lat="50.4083" lon="3.38527">
        <ele>17.44</ele>
        <time>2021-08-07T16:32:05Z</time>
      </trkpt>
      <trkpt lat="50.4084" lon="3.38605">
        <ele>17.44</ele>
        <time>2021-08-07T16:32:15Z</time>
      </trkpt>
      <trkpt lat="50.40848" lon="3.38673">
        <ele>17.44</ele>
        <time>2021-08-07T16:32:24Z</time>
      </trkpt>
      <trkpt lat="50.40856" lon="3.38733">
        <ele>17.44</ele>
        <time>2021-08-07T16:32:32Z</time>
      </trkpt>
      <trkpt lat="50.40858" lon="3.38755">
        <ele>17.44</ele>
        <time>2021-08-07T16:32:35Z</time>
      </trkpt>
      <trkpt lat="50.40862" lon="3.38784">
        <ele>16.96</ele>
        <time>2021-08-07T16:32:39Z</time>
      </trkpt>
      <trkpt lat="50.40863" lon="3.38791">
        <ele>16.96</ele>
        <time>2021-08-07T16:32:40Z</time>
      </trkpt>
      <trkpt lat="50.40864" lon="3.38798">
        <ele>16.96</ele>
        <time>2021-08-07T16:32:41Z</time>
      </trkpt>
      <trkpt lat="50.40866" lon="3.38813">
        <ele>16.96</ele>
        <time>2021-08-07T16:32:43Z</time>
      </trkpt>
      <trkpt lat="50.40873" lon="3.38855">
        <ele>16.96</ele>
        <time>2021-08-07T16:32:49Z</time>
      </trkpt>
      <trkpt lat="50.40875" lon="3.38885">
        <ele>16.96</ele>
        <time>2021-08-07T16:32:53Z</time>
      </trkpt>
      <trkpt lat="50.40876" lon="3.38892">
        <ele>16.96</ele>
        <time>2021-08-07T16:32:54Z</time>
      </trkpt>
      <trkpt lat="50.40877" lon="3.38906">
        <ele>16.96</ele>
        <time>2021-08-07T16:32:56Z</time>
      </trkpt>
      <trkpt lat="50.40878" lon="3.38913">
        <ele>16.96</ele>
        <time>2021-08-07T16:32:57Z</time>
      </trkpt>
      <trkpt lat="50.40878" lon="3.3892">
        <ele>16.96</ele>
        <time>2021-08-07T16:32:58Z</time>
      </trkpt>
      <trkpt lat="50.40885" lon="3.38981">
        <ele>17.92</ele>
        <time>2021-08-07T16:33:07Z</time>
      </trkpt>
      <trkpt lat="50.4089" lon="3.39041">
        <ele>16.96</ele>
        <time>2021-08-07T16:33:15Z</time>
      </trkpt>
      <trkpt lat="50.40892" lon="3.39048">
        <ele>16.96</ele>
        <time>2021-08-07T16:33:16Z</time>
      </trkpt>
      <trkpt lat="50.40893" lon="3.39063">
        <ele>16.96</ele>
        <time>2021-08-07T16:33:18Z</time>
      </trkpt>
      <trkpt lat="50.40894" lon="3.39078">
        <ele>16.96</ele>
        <time>2021-08-07T16:33:20Z</time>
      </trkpt>
      <trkpt lat="50.40895" lon="3.39085">
        <ele>16.96</ele>
        <time>2021-08-07T16:33:21Z</time>
      </trkpt>
      <trkpt lat="50.40903" lon="3.39143">
        <ele>16.96</ele>
        <time>2021-08-07T16:33:29Z</time>
      </trkpt>
      <trkpt lat="50.40909" lon="3.39206">
        <ele>16.96</ele>
        <time>2021-08-07T16:33:38Z</time>
      </trkpt>
      <trkpt lat="50.40917" lon="3.39265">
        <ele>16.96</ele>
        <time>2021-08-07T16:33:46Z</time>
      </trkpt>
      <trkpt lat="50.40919" lon="3.39272">
        <ele>16.96</ele>
        <time>2021-08-07T16:33:47Z</time>
      </trkpt>
      <trkpt lat="50.4092" lon="3.3928">
        <ele>16.96</ele>
        <time>2021-08-07T16:33:48Z</time>
      </trkpt>
      <trkpt lat="50.40921" lon="3.39288">
        <ele>16.96</ele>
        <time>2021-08-07T16:33:49Z</time>
      </trkpt>
      <trkpt lat="50.40921" lon="3.39296">
        <ele>16.96</ele>
        <time>2021-08-07T16:33:50Z</time>
      </trkpt>
      <trkpt lat="50.40922" lon="3.39311">
        <ele>16.96</ele>
        <time>2021-08-07T16:33:52Z</time>
      </trkpt>
      <trkpt lat="50.40923" lon="3.39319">
        <ele>16.96</ele>
        <time>2021-08-07T16:33:53Z</time>
      </trkpt>
      <trkpt lat="50.40924" lon="3.39327">
        <ele>16.96</ele>
        <time>2021-08-07T16:33:54Z</time>
      </trkpt>
      <trkpt lat="50.40926" lon="3.39364">
        <ele>16.96</ele>
        <time>2021-08-07T16:33:59Z</time>
      </trkpt>
      <trkpt lat="50.40926" lon="3.39378">
        <ele>16.96</ele>
        <time>2021-08-07T16:34:01Z</time>
      </trkpt>
      <trkpt lat="50.40927" lon="3.39385">
        <ele>16.96</ele>
        <time>2021-08-07T16:34:02Z</time>
      </trkpt>
      <trkpt lat="50.40929" lon="3.394">
        <ele>16.96</ele>
        <time>2021-08-07T16:34:04Z</time>
      </trkpt>
      <trkpt lat="50.40935" lon="3.39467">
        <ele>16.96</ele>
        <time>2021-08-07T16:34:13Z</time>
      </trkpt>
      <trkpt lat="50.4094" lon="3.39519">
        <ele>16.96</ele>
        <time>2021-08-07T16:34:20Z</time>
      </trkpt>
      <trkpt lat="50.40944" lon="3.39556">
        <ele>16.96</ele>
        <time>2021-08-07T16:34:25Z</time>
      </trkpt>
      <trkpt lat="50.40945" lon="3.39563">
        <ele>16.96</ele>
        <time>2021-08-07T16:34:26Z</time>
      </trkpt>
      <trkpt lat="50.40948" lon="3.39601">
        <ele>16.96</ele>
        <time>2021-08-07T16:34:31Z</time>
      </trkpt>
      <trkpt lat="50.40949" lon="3.39608">
        <ele>16.96</ele>
        <time>2021-08-07T16:34:32Z</time>
      </trkpt>
      <trkpt lat="50.4095" lon="3.39616">
        <ele>16.96</ele>
        <time>2021-08-07T16:34:33Z</time>
      </trkpt>
      <trkpt lat="50.40952" lon="3.39631">
        <ele>16.96</ele>
        <time>2021-08-07T16:34:35Z</time>
      </trkpt>
      <trkpt lat="50.40953" lon="3.39638">
        <ele>16.96</ele>
        <time>2021-08-07T16:34:36Z</time>
      </trkpt>
      <trkpt lat="50.40954" lon="3.39645">
        <ele>16.96</ele>
        <time>2021-08-07T16:34:37Z</time>
      </trkpt>
      <trkpt lat="50.40954" lon="3.3966">
        <ele>16.96</ele>
        <time>2021-08-07T16:34:39Z</time>
      </trkpt>
      <trkpt lat="50.40957" lon="3.3969">
        <ele>16.96</ele>
        <time>2021-08-07T16:34:43Z</time>
      </trkpt>
      <trkpt lat="50.40958" lon="3.39697">
        <ele>16.96</ele>
        <time>2021-08-07T16:34:44Z</time>
      </trkpt>
      <trkpt lat="50.40959" lon="3.39704">
        <ele>16.96</ele>
        <time>2021-08-07T16:34:45Z</time>
      </trkpt>
      <trkpt lat="50.40961" lon="3.39726">
        <ele>16.96</ele>
        <time>2021-08-07T16:34:48Z</time>
      </trkpt>
      <trkpt lat="50.40962" lon="3.39739">
        <ele>16.96</ele>
        <time>2021-08-07T16:34:50Z</time>
      </trkpt>
      <trkpt lat="50.40963" lon="3.39747">
        <ele>16.96</ele>
        <time>2021-08-07T16:34:51Z</time>
      </trkpt>
      <trkpt lat="50.40964" lon="3.39761">
        <ele>16.96</ele>
        <time>2021-08-07T16:34:53Z</time>
      </trkpt>
      <trkpt lat="50.40966" lon="3.39775">
        <ele>16.96</ele>
        <time>2021-08-07T16:34:55Z</time>
      </trkpt>
      <trkpt lat="50.40966" lon="3.39782">
        <ele>16.96</ele>
        <time>2021-08-07T16:34:56Z</time>
      </trkpt>
      <trkpt lat="50.40967" lon="3.39797">
        <ele>16.96</ele>
        <time>2021-08-07T16:34:58Z</time>
      </trkpt>
      <trkpt lat="50.40968" lon="3.39805">
        <ele>16.96</ele>
        <time>2021-08-07T16:34:59Z</time>
      </trkpt>
      <trkpt lat="50.40968" lon="3.39812">
        <ele>16.96</ele>
        <time>2021-08-07T16:35:00Z</time>
      </trkpt>
      <trkpt lat="50.40968" lon="3.39825">
        <ele>16.96</ele>
        <time>2021-08-07T16:35:02Z</time>
      </trkpt>
      <trkpt lat="50.40965" lon="3.39831">
        <ele>16.96</ele>
        <time>2021-08-07T16:35:03Z</time>
      </trkpt>
      <trkpt lat="50.40962" lon="3.39835">
        <ele>16.96</ele>
        <time>2021-08-07T16:35:04Z</time>
      </trkpt>
      <trkpt lat="50.4096" lon="3.3984">
        <ele>16.96</ele>
        <time>2021-08-07T16:35:05Z</time>
      </trkpt>
      <trkpt lat="50.40957" lon="3.39844">
        <ele>16.96</ele>
        <time>2021-08-07T16:35:06Z</time>
      </trkpt>
      <trkpt lat="50.40955" lon="3.39849">
        <ele>16.96</ele>
        <time>2021-08-07T16:35:07Z</time>
      </trkpt>
      <trkpt lat="50.40939" lon="3.39884">
        <ele>16.96</ele>
        <time>2021-08-07T16:35:14Z</time>
      </trkpt>
      <trkpt lat="50.40925" lon="3.39918">
        <ele>16.96</ele>
        <time>2021-08-07T16:35:20Z</time>
      </trkpt>
      <trkpt lat="50.40922" lon="3.39923">
        <ele>16.96</ele>
        <time>2021-08-07T16:35:21Z</time>
      </trkpt>
      <trkpt lat="50.40917" lon="3.39935">
        <ele>18.4</ele>
        <time>2021-08-07T16:35:23Z</time>
      </trkpt>
      <trkpt lat="50.40913" lon="3.39946">
        <ele>18.4</ele>
        <time>2021-08-07T16:35:25Z</time>
      </trkpt>
      <trkpt lat="50.40904" lon="3.3997">
        <ele>18.4</ele>
        <time>2021-08-07T16:35:29Z</time>
      </trkpt>
      <trkpt lat="50.40903" lon="3.39977">
        <ele>18.4</ele>
        <time>2021-08-07T16:35:30Z</time>
      </trkpt>
      <trkpt lat="50.40902" lon="3.39983">
        <ele>18.4</ele>
        <time>2021-08-07T16:35:31Z</time>
      </trkpt>
      <trkpt lat="50.40901" lon="3.3999">
        <ele>18.4</ele>
        <time>2021-08-07T16:35:32Z</time>
      </trkpt>
      <trkpt lat="50.40901" lon="3.39998">
        <ele>18.4</ele>
        <time>2021-08-07T16:35:33Z</time>
      </trkpt>
      <trkpt lat="50.40901" lon="3.40005">
        <ele>18.4</ele>
        <time>2021-08-07T16:35:34Z</time>
      </trkpt>
      <trkpt lat="50.40901" lon="3.40012">
        <ele>18.4</ele>
        <time>2021-08-07T16:35:35Z</time>
      </trkpt>
      <trkpt lat="50.40902" lon="3.40019">
        <ele>18.4</ele>
        <time>2021-08-07T16:35:36Z</time>
      </trkpt>
      <trkpt lat="50.40909" lon="3.40076">
        <ele>18.4</ele>
        <time>2021-08-07T16:35:44Z</time>
      </trkpt>
      <trkpt lat="50.40913" lon="3.40119">
        <ele>18.4</ele>
        <time>2021-08-07T16:35:50Z</time>
      </trkpt>
      <trkpt lat="50.40913" lon="3.40147">
        <ele>18.4</ele>
        <time>2021-08-07T16:35:54Z</time>
      </trkpt>
      <trkpt lat="50.40914" lon="3.40153">
        <ele>18.4</ele>
        <time>2021-08-07T16:35:55Z</time>
      </trkpt>
      <trkpt lat="50.40914" lon="3.4016">
        <ele>18.4</ele>
        <time>2021-08-07T16:35:56Z</time>
      </trkpt>
      <trkpt lat="50.40919" lon="3.40208">
        <ele>18.88</ele>
        <time>2021-08-07T16:36:03Z</time>
      </trkpt>
      <trkpt lat="50.40921" lon="3.40214">
        <ele>18.88</ele>
        <time>2021-08-07T16:36:04Z</time>
      </trkpt>
      <trkpt lat="50.40924" lon="3.40219">
        <ele>18.88</ele>
        <time>2021-08-07T16:36:05Z</time>
      </trkpt>
      <trkpt lat="50.40927" lon="3.40224">
        <ele>18.88</ele>
        <time>2021-08-07T16:36:06Z</time>
      </trkpt>
      <trkpt lat="50.4093" lon="3.40229">
        <ele>18.88</ele>
        <time>2021-08-07T16:36:07Z</time>
      </trkpt>
      <trkpt lat="50.40942" lon="3.40253">
        <ele>19.36</ele>
        <time>2021-08-07T16:36:13Z</time>
      </trkpt>
      <trkpt lat="50.40941" lon="3.40257">
        <ele>19.36</ele>
        <time>2021-08-07T16:36:14Z</time>
      </trkpt>
      <trkpt lat="50.4094" lon="3.4026">
        <ele>19.36</ele>
        <time>2021-08-07T16:36:15Z</time>
      </trkpt>
      <trkpt lat="50.40938" lon="3.40262">
        <ele>19.36</ele>
        <time>2021-08-07T16:36:16Z</time>
      </trkpt>
      <trkpt lat="50.40913" lon="3.40294">
        <ele>19.36</ele>
        <time>2021-08-07T16:36:24Z</time>
      </trkpt>
      <trkpt lat="50.40887" lon="3.4033">
        <ele>19.36</ele>
        <time>2021-08-07T16:36:32Z</time>
      </trkpt>
      <trkpt lat="50.40884" lon="3.40335">
        <ele>19.36</ele>
        <time>2021-08-07T16:36:33Z</time>
      </trkpt>
      <trkpt lat="50.40881" lon="3.4034">
        <ele>19.36</ele>
        <time>2021-08-07T16:36:34Z</time>
      </trkpt>
      <trkpt lat="50.4084" lon="3.40388">
        <ele>19.36</ele>
        <time>2021-08-07T16:36:46Z</time>
      </trkpt>
      <trkpt lat="50.40799" lon="3.40432">
        <ele>19.36</ele>
        <time>2021-08-07T16:36:57Z</time>
      </trkpt>
      <trkpt lat="50.40787" lon="3.40451">
        <ele>19.36</ele>
        <time>2021-08-07T16:37:01Z</time>
      </trkpt>
      <trkpt lat="50.40785" lon="3.40457">
        <ele>19.36</ele>
        <time>2021-08-07T16:37:02Z</time>
      </trkpt>
      <trkpt lat="50.40784" lon="3.40463">
        <ele>19.36</ele>
        <time>2021-08-07T16:37:03Z</time>
      </trkpt>
      <trkpt lat="50.40783" lon="3.40469">
        <ele>19.36</ele>
        <time>2021-08-07T16:37:04Z</time>
      </trkpt>
      <trkpt lat="50.40782" lon="3.40475">
        <ele>19.36</ele>
        <time>2021-08-07T16:37:05Z</time>
      </trkpt>
      <trkpt lat="50.4078" lon="3.4048">
        <ele>19.84</ele>
        <time>2021-08-07T16:37:06Z</time>
      </trkpt>
      <trkpt lat="50.40777" lon="3.40485">
        <ele>19.84</ele>
        <time>2021-08-07T16:37:07Z</time>
      </trkpt>
      <trkpt lat="50.40773" lon="3.40489">
        <ele>19.84</ele>
        <time>2021-08-07T16:37:08Z</time>
      </trkpt>
      <trkpt lat="50.40769" lon="3.40492">
        <ele>19.84</ele>
        <time>2021-08-07T16:37:09Z</time>
      </trkpt>
      <trkpt lat="50.40765" lon="3.40493">
        <ele>19.84</ele>
        <time>2021-08-07T16:37:10Z</time>
      </trkpt>
      <trkpt lat="50.40761" lon="3.40494">
        <ele>19.84</ele>
        <time>2021-08-07T16:37:11Z</time>
      </trkpt>
      <trkpt lat="50.40708" lon="3.40512">
        <ele>19.84</ele>
        <time>2021-08-07T16:37:23Z</time>
      </trkpt>
      <trkpt lat="50.40668" lon="3.40531">
        <ele>19.84</ele>
        <time>2021-08-07T16:37:32Z</time>
      </trkpt>
      <trkpt lat="50.40631" lon="3.40551">
        <ele>19.84</ele>
        <time>2021-08-07T16:37:41Z</time>
      </trkpt>
      <trkpt lat="50.40605" lon="3.40567">
        <ele>19.84</ele>
        <time>2021-08-07T16:37:48Z</time>
      </trkpt>
      <trkpt lat="50.4059" lon="3.40569">
        <ele>19.84</ele>
        <time>2021-08-07T16:37:53Z</time>
      </trkpt>
      <trkpt lat="50.40588" lon="3.40573">
        <ele>19.84</ele>
        <time>2021-08-07T16:37:54Z</time>
      </trkpt>
      <trkpt lat="50.40586" lon="3.40576">
        <ele>19.84</ele>
        <time>2021-08-07T16:37:55Z</time>
      </trkpt>
      <trkpt lat="50.40584" lon="3.4058">
        <ele>19.84</ele>
        <time>2021-08-07T16:37:56Z</time>
      </trkpt>
      <trkpt lat="50.40581" lon="3.40584">
        <ele>19.84</ele>
        <time>2021-08-07T16:37:57Z</time>
      </trkpt>
      <trkpt lat="50.40578" lon="3.40588">
        <ele>19.84</ele>
        <time>2021-08-07T16:37:58Z</time>
      </trkpt>
      <trkpt lat="50.40574" lon="3.40591">
        <ele>19.84</ele>
        <time>2021-08-07T16:37:59Z</time>
      </trkpt>
      <trkpt lat="50.40571" lon="3.40595">
        <ele>19.84</ele>
        <time>2021-08-07T16:38:00Z</time>
      </trkpt>
      <trkpt lat="50.40567" lon="3.40598">
        <ele>19.84</ele>
        <time>2021-08-07T16:38:01Z</time>
      </trkpt>
      <trkpt lat="50.40539" lon="3.40636">
        <ele>19.84</ele>
        <time>2021-08-07T16:38:09Z</time>
      </trkpt>
      <trkpt lat="50.4051" lon="3.40665">
        <ele>19.84</ele>
        <time>2021-08-07T16:38:16Z</time>
      </trkpt>
      <trkpt lat="50.40478" lon="3.40698">
        <ele>19.84</ele>
        <time>2021-08-07T16:38:24Z</time>
      </trkpt>
      <trkpt lat="50.40449" lon="3.40726">
        <ele>18.88</ele>
        <time>2021-08-07T16:38:31Z</time>
      </trkpt>
      <trkpt lat="50.40431" lon="3.4074">
        <ele>18.88</ele>
        <time>2021-08-07T16:38:35Z</time>
      </trkpt>
      <trkpt lat="50.40427" lon="3.40744">
        <ele>18.88</ele>
        <time>2021-08-07T16:38:36Z</time>
      </trkpt>
      <trkpt lat="50.40419" lon="3.40752">
        <ele>18.88</ele>
        <time>2021-08-07T16:38:38Z</time>
      </trkpt>
      <trkpt lat="50.40384" lon="3.4079">
        <ele>18.88</ele>
        <time>2021-08-07T16:38:47Z</time>
      </trkpt>
      <trkpt lat="50.40362" lon="3.40814">
        <ele>18.88</ele>
        <time>2021-08-07T16:38:53Z</time>
      </trkpt>
      <trkpt lat="50.40358" lon="3.40818">
        <ele>18.88</ele>
        <time>2021-08-07T16:38:54Z</time>
      </trkpt>
      <trkpt lat="50.40348" lon="3.40829">
        <ele>18.88</ele>
        <time>2021-08-07T16:38:57Z</time>
      </trkpt>
      <trkpt lat="50.40344" lon="3.40834">
        <ele>18.88</ele>
        <time>2021-08-07T16:38:58Z</time>
      </trkpt>
      <trkpt lat="50.40341" lon="3.40838">
        <ele>18.88</ele>
        <time>2021-08-07T16:38:59Z</time>
      </trkpt>
      <trkpt lat="50.40337" lon="3.40841">
        <ele>18.88</ele>
        <time>2021-08-07T16:39:00Z</time>
      </trkpt>
      <trkpt lat="50.40333" lon="3.40845">
        <ele>19.84</ele>
        <time>2021-08-07T16:39:01Z</time>
      </trkpt>
      <trkpt lat="50.4033" lon="3.40849">
        <ele>19.84</ele>
        <time>2021-08-07T16:39:02Z</time>
      </trkpt>
      <trkpt lat="50.40325" lon="3.40854">
        <ele>19.84</ele>
        <time>2021-08-07T16:39:03Z</time>
      </trkpt>
      <trkpt lat="50.40322" lon="3.40857">
        <ele>19.84</ele>
        <time>2021-08-07T16:39:04Z</time>
      </trkpt>
      <trkpt lat="50.40292" lon="3.40887">
        <ele>19.84</ele>
        <time>2021-08-07T16:39:12Z</time>
      </trkpt>
      <trkpt lat="50.40259" lon="3.40921">
        <ele>20.32</ele>
        <time>2021-08-07T16:39:21Z</time>
      </trkpt>
      <trkpt lat="50.4024" lon="3.40941">
        <ele>20.32</ele>
        <time>2021-08-07T16:39:28Z</time>
      </trkpt>
      <trkpt lat="50.40222" lon="3.40961">
        <ele>20.81</ele>
        <time>2021-08-07T16:39:34Z</time>
      </trkpt>
      <trkpt lat="50.40194" lon="3.4099">
        <ele>20.81</ele>
        <time>2021-08-07T16:39:42Z</time>
      </trkpt>
      <trkpt lat="50.4017" lon="3.41016">
        <ele>20.81</ele>
        <time>2021-08-07T16:39:49Z</time>
      </trkpt>
      <trkpt lat="50.40165" lon="3.41019">
        <ele>20.81</ele>
        <time>2021-08-07T16:39:50Z</time>
      </trkpt>
      <trkpt lat="50.40137" lon="3.41049">
        <ele>20.81</ele>
        <time>2021-08-07T16:39:58Z</time>
      </trkpt>
      <trkpt lat="50.40104" lon="3.41084">
        <ele>20.81</ele>
        <time>2021-08-07T16:40:07Z</time>
      </trkpt>
      <trkpt lat="50.40077" lon="3.41113">
        <ele>21.29</ele>
        <time>2021-08-07T16:40:14Z</time>
      </trkpt>
      <trkpt lat="50.40047" lon="3.41145">
        <ele>21.29</ele>
        <time>2021-08-07T16:40:22Z</time>
      </trkpt>
      <trkpt lat="50.4002" lon="3.41173">
        <ele>20.81</ele>
        <time>2021-08-07T16:40:29Z</time>
      </trkpt>
      <trkpt lat="50.40014" lon="3.41181">
        <ele>20.81</ele>
        <time>2021-08-07T16:40:31Z</time>
      </trkpt>
      <trkpt lat="50.39986" lon="3.4121">
        <ele>20.81</ele>
        <time>2021-08-07T16:40:39Z</time>
      </trkpt>
      <trkpt lat="50.39959" lon="3.41236">
        <ele>21.29</ele>
        <time>2021-08-07T16:40:47Z</time>
      </trkpt>
      <trkpt lat="50.39938" lon="3.41258">
        <ele>21.29</ele>
        <time>2021-08-07T16:40:53Z</time>
      </trkpt>
      <trkpt lat="50.39912" lon="3.41284">
        <ele>21.29</ele>
        <time>2021-08-07T16:41:00Z</time>
      </trkpt>
      <trkpt lat="50.39882" lon="3.41317">
        <ele>21.29</ele>
        <time>2021-08-07T16:41:08Z</time>
      </trkpt>
      <trkpt lat="50.39864" lon="3.41336">
        <ele>21.29</ele>
        <time>2021-08-07T16:41:13Z</time>
      </trkpt>
      <trkpt lat="50.39861" lon="3.4134">
        <ele>21.29</ele>
        <time>2021-08-07T16:41:14Z</time>
      </trkpt>
      <trkpt lat="50.39854" lon="3.41348">
        <ele>21.29</ele>
        <time>2021-08-07T16:41:16Z</time>
      </trkpt>
      <trkpt lat="50.3985" lon="3.41351">
        <ele>21.29</ele>
        <time>2021-08-07T16:41:17Z</time>
      </trkpt>
      <trkpt lat="50.39846" lon="3.41354">
        <ele>21.29</ele>
        <time>2021-08-07T16:41:18Z</time>
      </trkpt>
      <trkpt lat="50.39811" lon="3.41391">
        <ele>20.32</ele>
        <time>2021-08-07T16:41:27Z</time>
      </trkpt>
      <trkpt lat="50.39804" lon="3.41399">
        <ele>20.32</ele>
        <time>2021-08-07T16:41:29Z</time>
      </trkpt>
      <trkpt lat="50.398" lon="3.41403">
        <ele>19.84</ele>
        <time>2021-08-07T16:41:30Z</time>
      </trkpt>
      <trkpt lat="50.39797" lon="3.41406">
        <ele>19.84</ele>
        <time>2021-08-07T16:41:31Z</time>
      </trkpt>
      <trkpt lat="50.39783" lon="3.41416">
        <ele>19.84</ele>
        <time>2021-08-07T16:41:36Z</time>
      </trkpt>
      <trkpt lat="50.39785" lon="3.41416">
        <ele>19.84</ele>
        <time>2021-08-07T16:41:45Z</time>
      </trkpt>
      <trkpt lat="50.3978" lon="3.41415">
        <ele>19.84</ele>
        <time>2021-08-07T16:42:00Z</time>
      </trkpt>
      <trkpt lat="50.39778" lon="3.41418">
        <ele>19.84</ele>
        <time>2021-08-07T16:42:07Z</time>
      </trkpt>
      <trkpt lat="50.39777" lon="3.41423">
        <ele>19.84</ele>
        <time>2021-08-07T16:42:11Z</time>
      </trkpt>
      <trkpt lat="50.39775" lon="3.41425">
        <ele>19.84</ele>
        <time>2021-08-07T16:42:12Z</time>
      </trkpt>
      <trkpt lat="50.39774" lon="3.41428">
        <ele>19.84</ele>
        <time>2021-08-07T16:42:13Z</time>
      </trkpt>
      <trkpt lat="50.39753" lon="3.41448">
        <ele>19.84</ele>
        <time>2021-08-07T16:42:20Z</time>
      </trkpt>
      <trkpt lat="50.39733" lon="3.4147">
        <ele>19.84</ele>
        <time>2021-08-07T16:42:26Z</time>
      </trkpt>
      <trkpt lat="50.39718" lon="3.41485">
        <ele>19.84</ele>
        <time>2021-08-07T16:42:30Z</time>
      </trkpt>
      <trkpt lat="50.39704" lon="3.41502">
        <ele>19.84</ele>
        <time>2021-08-07T16:42:34Z</time>
      </trkpt>
      <trkpt lat="50.39701" lon="3.41505">
        <ele>19.84</ele>
        <time>2021-08-07T16:42:35Z</time>
      </trkpt>
      <trkpt lat="50.39697" lon="3.41509">
        <ele>19.84</ele>
        <time>2021-08-07T16:42:36Z</time>
      </trkpt>
      <trkpt lat="50.39693" lon="3.41513">
        <ele>19.84</ele>
        <time>2021-08-07T16:42:37Z</time>
      </trkpt>
      <trkpt lat="50.3969" lon="3.41517">
        <ele>19.84</ele>
        <time>2021-08-07T16:42:38Z</time>
      </trkpt>
      <trkpt lat="50.39686" lon="3.4152">
        <ele>19.84</ele>
        <time>2021-08-07T16:42:39Z</time>
      </trkpt>
      <trkpt lat="50.39659" lon="3.41548">
        <ele>19.84</ele>
        <time>2021-08-07T16:42:47Z</time>
      </trkpt>
      <trkpt lat="50.39631" lon="3.41577">
        <ele>19.84</ele>
        <time>2021-08-07T16:42:55Z</time>
      </trkpt>
      <trkpt lat="50.39623" lon="3.41585">
        <ele>19.84</ele>
        <time>2021-08-07T16:42:57Z</time>
      </trkpt>
      <trkpt lat="50.39617" lon="3.41591">
        <ele>19.84</ele>
        <time>2021-08-07T16:42:59Z</time>
      </trkpt>
      <trkpt lat="50.39614" lon="3.41596">
        <ele>19.84</ele>
        <time>2021-08-07T16:43:00Z</time>
      </trkpt>
      <trkpt lat="50.39599" lon="3.41613">
        <ele>19.84</ele>
        <time>2021-08-07T16:43:04Z</time>
      </trkpt>
      <trkpt lat="50.39595" lon="3.41619">
        <ele>19.84</ele>
        <time>2021-08-07T16:43:05Z</time>
      </trkpt>
      <trkpt lat="50.39591" lon="3.41623">
        <ele>19.84</ele>
        <time>2021-08-07T16:43:06Z</time>
      </trkpt>
      <trkpt lat="50.39583" lon="3.4163">
        <ele>19.84</ele>
        <time>2021-08-07T16:43:08Z</time>
      </trkpt>
      <trkpt lat="50.3958" lon="3.41634">
        <ele>19.84</ele>
        <time>2021-08-07T16:43:09Z</time>
      </trkpt>
      <trkpt lat="50.39571" lon="3.41641">
        <ele>19.84</ele>
        <time>2021-08-07T16:43:11Z</time>
      </trkpt>
      <trkpt lat="50.39559" lon="3.41652">
        <ele>19.84</ele>
        <time>2021-08-07T16:43:14Z</time>
      </trkpt>
      <trkpt lat="50.39555" lon="3.41655">
        <ele>19.84</ele>
        <time>2021-08-07T16:43:15Z</time>
      </trkpt>
      <trkpt lat="50.39547" lon="3.41663">
        <ele>19.84</ele>
        <time>2021-08-07T16:43:17Z</time>
      </trkpt>
      <trkpt lat="50.39544" lon="3.41667">
        <ele>19.84</ele>
        <time>2021-08-07T16:43:18Z</time>
      </trkpt>
      <trkpt lat="50.3954" lon="3.41671">
        <ele>19.84</ele>
        <time>2021-08-07T16:43:19Z</time>
      </trkpt>
      <trkpt lat="50.39533" lon="3.41678">
        <ele>19.84</ele>
        <time>2021-08-07T16:43:21Z</time>
      </trkpt>
      <trkpt lat="50.3951" lon="3.41702">
        <ele>19.36</ele>
        <time>2021-08-07T16:43:27Z</time>
      </trkpt>
      <trkpt lat="50.3948" lon="3.4173">
        <ele>19.36</ele>
        <time>2021-08-07T16:43:34Z</time>
      </trkpt>
      <trkpt lat="50.39476" lon="3.41734">
        <ele>19.36</ele>
        <time>2021-08-07T16:43:35Z</time>
      </trkpt>
      <trkpt lat="50.39464" lon="3.41746">
        <ele>19.36</ele>
        <time>2021-08-07T16:43:38Z</time>
      </trkpt>
      <trkpt lat="50.3946" lon="3.4175">
        <ele>19.36</ele>
        <time>2021-08-07T16:43:39Z</time>
      </trkpt>
      <trkpt lat="50.39456" lon="3.41755">
        <ele>19.36</ele>
        <time>2021-08-07T16:43:40Z</time>
      </trkpt>
      <trkpt lat="50.39452" lon="3.41759">
        <ele>19.36</ele>
        <time>2021-08-07T16:43:41Z</time>
      </trkpt>
      <trkpt lat="50.39448" lon="3.41762">
        <ele>19.36</ele>
        <time>2021-08-07T16:43:42Z</time>
      </trkpt>
      <trkpt lat="50.39416" lon="3.41798">
        <ele>18.88</ele>
        <time>2021-08-07T16:43:50Z</time>
      </trkpt>
      <trkpt lat="50.39396" lon="3.41818">
        <ele>18.88</ele>
        <time>2021-08-07T16:43:55Z</time>
      </trkpt>
      <trkpt lat="50.39393" lon="3.41822">
        <ele>18.88</ele>
        <time>2021-08-07T16:43:56Z</time>
      </trkpt>
      <trkpt lat="50.39366" lon="3.41849">
        <ele>18.88</ele>
        <time>2021-08-07T16:44:03Z</time>
      </trkpt>
      <trkpt lat="50.39337" lon="3.4188">
        <ele>18.88</ele>
        <time>2021-08-07T16:44:11Z</time>
      </trkpt>
      <trkpt lat="50.39317" lon="3.41904">
        <ele>18.88</ele>
        <time>2021-08-07T16:44:17Z</time>
      </trkpt>
      <trkpt lat="50.39287" lon="3.41934">
        <ele>18.88</ele>
        <time>2021-08-07T16:44:25Z</time>
      </trkpt>
      <trkpt lat="50.39259" lon="3.41959">
        <ele>19.84</ele>
        <time>2021-08-07T16:44:33Z</time>
      </trkpt>
      <trkpt lat="50.39236" lon="3.41983">
        <ele>19.84</ele>
        <time>2021-08-07T16:44:40Z</time>
      </trkpt>
      <trkpt lat="50.39213" lon="3.42006">
        <ele>20.32</ele>
        <time>2021-08-07T16:44:47Z</time>
      </trkpt>
      <trkpt lat="50.39195" lon="3.42025">
        <ele>20.32</ele>
        <time>2021-08-07T16:44:53Z</time>
      </trkpt>
      <trkpt lat="50.39169" lon="3.42053">
        <ele>20.81</ele>
        <time>2021-08-07T16:45:01Z</time>
      </trkpt>
      <trkpt lat="50.39141" lon="3.42082">
        <ele>20.81</ele>
        <time>2021-08-07T16:45:09Z</time>
      </trkpt>
      <trkpt lat="50.39121" lon="3.421">
        <ele>21.77</ele>
        <time>2021-08-07T16:45:15Z</time>
      </trkpt>
      <trkpt lat="50.39092" lon="3.42129">
        <ele>22.73</ele>
        <time>2021-08-07T16:45:24Z</time>
      </trkpt>
      <trkpt lat="50.39074" lon="3.42149">
        <ele>23.69</ele>
        <time>2021-08-07T16:45:30Z</time>
      </trkpt>
      <trkpt lat="50.39061" lon="3.42164">
        <ele>24.17</ele>
        <time>2021-08-07T16:45:35Z</time>
      </trkpt>
      <trkpt lat="50.39044" lon="3.42181">
        <ele>25.13</ele>
        <time>2021-08-07T16:45:41Z</time>
      </trkpt>
      <trkpt lat="50.39019" lon="3.42207">
        <ele>25.61</ele>
        <time>2021-08-07T16:45:49Z</time>
      </trkpt>
      <trkpt lat="50.39001" lon="3.42225">
        <ele>26.09</ele>
        <time>2021-08-07T16:45:56Z</time>
      </trkpt>
      <trkpt lat="50.38982" lon="3.42245">
        <ele>26.57</ele>
        <time>2021-08-07T16:46:03Z</time>
      </trkpt>
      <trkpt lat="50.3896" lon="3.42265">
        <ele>27.05</ele>
        <time>2021-08-07T16:46:10Z</time>
      </trkpt>
      <trkpt lat="50.38939" lon="3.42286">
        <ele>28.02</ele>
        <time>2021-08-07T16:46:17Z</time>
      </trkpt>
      <trkpt lat="50.38917" lon="3.42312">
        <ele>28.98</ele>
        <time>2021-08-07T16:46:24Z</time>
      </trkpt>
      <trkpt lat="50.38887" lon="3.42344">
        <ele>29.94</ele>
        <time>2021-08-07T16:46:33Z</time>
      </trkpt>
      <trkpt lat="50.38872" lon="3.4236">
        <ele>29.94</ele>
        <time>2021-08-07T16:46:37Z</time>
      </trkpt>
      <trkpt lat="50.38847" lon="3.42386">
        <ele>30.42</ele>
        <time>2021-08-07T16:46:45Z</time>
      </trkpt>
      <trkpt lat="50.38831" lon="3.42403">
        <ele>30.42</ele>
        <time>2021-08-07T16:46:51Z</time>
      </trkpt>
      <trkpt lat="50.3882" lon="3.42414">
        <ele>30.42</ele>
        <time>2021-08-07T16:46:54Z</time>
      </trkpt>
      <trkpt lat="50.3878" lon="3.42452">
        <ele>30.9</ele>
        <time>2021-08-07T16:47:05Z</time>
      </trkpt>
      <trkpt lat="50.38742" lon="3.42491">
        <ele>31.86</ele>
        <time>2021-08-07T16:47:16Z</time>
      </trkpt>
      <trkpt lat="50.38707" lon="3.42526">
        <ele>32.34</ele>
        <time>2021-08-07T16:47:26Z</time>
      </trkpt>
      <trkpt lat="50.3867" lon="3.42562">
        <ele>33.78</ele>
        <time>2021-08-07T16:47:36Z</time>
      </trkpt>
      <trkpt lat="50.38638" lon="3.42595">
        <ele>34.74</ele>
        <time>2021-08-07T16:47:45Z</time>
      </trkpt>
      <trkpt lat="50.38601" lon="3.42632">
        <ele>35.23</ele>
        <time>2021-08-07T16:47:55Z</time>
      </trkpt>
      <trkpt lat="50.3858" lon="3.42655">
        <ele>35.71</ele>
        <time>2021-08-07T16:48:01Z</time>
      </trkpt>
      <trkpt lat="50.38567" lon="3.4267">
        <ele>35.71</ele>
        <time>2021-08-07T16:48:05Z</time>
      </trkpt>
      <trkpt lat="50.3853" lon="3.42709">
        <ele>35.71</ele>
        <time>2021-08-07T16:48:14Z</time>
      </trkpt>
      <trkpt lat="50.38482" lon="3.42755">
        <ele>36.19</ele>
        <time>2021-08-07T16:48:25Z</time>
      </trkpt>
      <trkpt lat="50.38437" lon="3.42804">
        <ele>36.19</ele>
        <time>2021-08-07T16:48:36Z</time>
      </trkpt>
      <trkpt lat="50.3839" lon="3.42851">
        <ele>36.67</ele>
        <time>2021-08-07T16:48:47Z</time>
      </trkpt>
      <trkpt lat="50.3835" lon="3.42895">
        <ele>37.63</ele>
        <time>2021-08-07T16:48:57Z</time>
      </trkpt>
      <trkpt lat="50.38304" lon="3.42942">
        <ele>38.11</ele>
        <time>2021-08-07T16:49:08Z</time>
      </trkpt>
      <trkpt lat="50.38264" lon="3.42984">
        <ele>38.11</ele>
        <time>2021-08-07T16:49:17Z</time>
      </trkpt>
      <trkpt lat="50.38231" lon="3.43019">
        <ele>38.11</ele>
        <time>2021-08-07T16:49:25Z</time>
      </trkpt>
      <trkpt lat="50.38226" lon="3.43024">
        <ele>38.11</ele>
        <time>2021-08-07T16:49:26Z</time>
      </trkpt>
      <trkpt lat="50.38195" lon="3.43056">
        <ele>38.11</ele>
        <time>2021-08-07T16:49:33Z</time>
      </trkpt>
      <trkpt lat="50.38162" lon="3.43085">
        <ele>38.11</ele>
        <time>2021-08-07T16:49:40Z</time>
      </trkpt>
      <trkpt lat="50.38156" lon="3.43086">
        <ele>38.11</ele>
        <time>2021-08-07T16:49:41Z</time>
      </trkpt>
      <trkpt lat="50.38151" lon="3.43087">
        <ele>38.11</ele>
        <time>2021-08-07T16:49:42Z</time>
      </trkpt>
      <trkpt lat="50.38096" lon="3.43091">
        <ele>37.15</ele>
        <time>2021-08-07T16:49:53Z</time>
      </trkpt>
      <trkpt lat="50.38057" lon="3.43091">
        <ele>37.15</ele>
        <time>2021-08-07T16:50:02Z</time>
      </trkpt>
      <trkpt lat="50.38032" lon="3.43093">
        <ele>36.67</ele>
        <time>2021-08-07T16:50:09Z</time>
      </trkpt>
      <trkpt lat="50.38001" lon="3.43097">
        <ele>36.67</ele>
        <time>2021-08-07T16:50:17Z</time>
      </trkpt>
      <trkpt lat="50.37974" lon="3.431">
        <ele>36.67</ele>
        <time>2021-08-07T16:50:23Z</time>
      </trkpt>
      <trkpt lat="50.37934" lon="3.43103">
        <ele>36.67</ele>
        <time>2021-08-07T16:50:32Z</time>
      </trkpt>
      <trkpt lat="50.37922" lon="3.431">
        <ele>37.15</ele>
        <time>2021-08-07T16:50:36Z</time>
      </trkpt>
      <trkpt lat="50.37921" lon="3.43097">
        <ele>37.15</ele>
        <time>2021-08-07T16:50:37Z</time>
      </trkpt>
      <trkpt lat="50.3792" lon="3.43093">
        <ele>37.15</ele>
        <time>2021-08-07T16:50:38Z</time>
      </trkpt>
      <trkpt lat="50.3792" lon="3.43089">
        <ele>37.15</ele>
        <time>2021-08-07T16:50:39Z</time>
      </trkpt>
      <trkpt lat="50.37919" lon="3.43083">
        <ele>37.15</ele>
        <time>2021-08-07T16:50:40Z</time>
      </trkpt>
      <trkpt lat="50.37918" lon="3.43039">
        <ele>36.19</ele>
        <time>2021-08-07T16:50:46Z</time>
      </trkpt>
      <trkpt lat="50.3791" lon="3.42959">
        <ele>35.71</ele>
        <time>2021-08-07T16:50:55Z</time>
      </trkpt>
      <trkpt lat="50.37895" lon="3.42875">
        <ele>36.19</ele>
        <time>2021-08-07T16:51:05Z</time>
      </trkpt>
      <trkpt lat="50.37879" lon="3.42797">
        <ele>35.23</ele>
        <time>2021-08-07T16:51:14Z</time>
      </trkpt>
      <trkpt lat="50.37858" lon="3.42733">
        <ele>35.23</ele>
        <time>2021-08-07T16:51:23Z</time>
      </trkpt>
      <trkpt lat="50.37841" lon="3.42675">
        <ele>35.23</ele>
        <time>2021-08-07T16:51:32Z</time>
      </trkpt>
      <trkpt lat="50.37834" lon="3.42647">
        <ele>36.67</ele>
        <time>2021-08-07T16:51:38Z</time>
      </trkpt>
      <trkpt lat="50.37831" lon="3.42643">
        <ele>36.67</ele>
        <time>2021-08-07T16:51:43Z</time>
      </trkpt>
      <trkpt lat="50.3783" lon="3.42641">
        <ele>36.67</ele>
        <time>2021-08-07T16:51:45Z</time>
      </trkpt>
      <trkpt lat="50.37828" lon="3.4264">
        <ele>36.67</ele>
        <time>2021-08-07T16:51:46Z</time>
      </trkpt>
      <trkpt lat="50.37827" lon="3.42642">
        <ele>37.15</ele>
        <time>2021-08-07T16:51:52Z</time>
      </trkpt>
      <trkpt lat="50.37828" lon="3.42645">
        <ele>37.15</ele>
        <time>2021-08-07T16:52:00Z</time>
      </trkpt>
      <trkpt lat="50.37829" lon="3.42643">
        <ele>37.15</ele>
        <time>2021-08-07T16:52:16Z</time>
      </trkpt>
      <trkpt lat="50.37833" lon="3.42641">
        <ele>37.15</ele>
        <time>2021-08-07T16:52:29Z</time>
      </trkpt>
      <trkpt lat="50.37838" lon="3.4264">
        <ele>37.15</ele>
        <time>2021-08-07T16:52:48Z</time>
      </trkpt>
      <trkpt lat="50.37841" lon="3.42641">
        <ele>37.15</ele>
        <time>2021-08-07T16:53:01Z</time>
      </trkpt>
      <trkpt lat="50.37841" lon="3.4264">
        <ele>37.15</ele>
        <time>2021-08-07T16:53:12Z</time>
      </trkpt>
      <trkpt lat="50.37839" lon="3.42638">
        <ele>37.15</ele>
        <time>2021-08-07T16:53:24Z</time>
      </trkpt>
      <trkpt lat="50.37842" lon="3.42638">
        <ele>37.15</ele>
        <time>2021-08-07T16:53:40Z</time>
      </trkpt>
      <trkpt lat="50.37843" lon="3.42639">
        <ele>37.63</ele>
        <time>2021-08-07T16:53:51Z</time>
      </trkpt>
      <trkpt lat="50.37843" lon="3.4264">
        <ele>37.63</ele>
        <time>2021-08-07T16:54:03Z</time>
      </trkpt>
      <trkpt lat="50.37841" lon="3.42638">
        <ele>37.63</ele>
        <time>2021-08-07T16:54:17Z</time>
      </trkpt>
      <trkpt lat="50.37839" lon="3.42637">
        <ele>37.63</ele>
        <time>2021-08-07T16:54:32Z</time>
      </trkpt>
      <trkpt lat="50.3784" lon="3.42637">
        <ele>37.63</ele>
        <time>2021-08-07T16:54:41Z</time>
      </trkpt>
      <trkpt lat="50.37842" lon="3.42639">
        <ele>37.63</ele>
        <time>2021-08-07T16:54:49Z</time>
      </trkpt>
      <trkpt lat="50.37843" lon="3.42641">
        <ele>37.63</ele>
        <time>2021-08-07T16:54:57Z</time>
      </trkpt>
      <trkpt lat="50.37842" lon="3.42641">
        <ele>37.63</ele>
        <time>2021-08-07T16:55:04Z</time>
      </trkpt>
      <trkpt lat="50.37842" lon="3.4264">
        <ele>37.63</ele>
        <time>2021-08-07T16:55:13Z</time>
      </trkpt>
      <trkpt lat="50.37842" lon="3.42638">
        <ele>38.59</ele>
        <time>2021-08-07T16:55:25Z</time>
      </trkpt>
      <trkpt lat="50.37839" lon="3.42638">
        <ele>38.59</ele>
        <time>2021-08-07T16:55:35Z</time>
      </trkpt>
      <trkpt lat="50.37838" lon="3.42638">
        <ele>38.59</ele>
        <time>2021-08-07T16:55:43Z</time>
      </trkpt>
      <trkpt lat="50.37839" lon="3.42638">
        <ele>38.59</ele>
        <time>2021-08-07T16:55:56Z</time>
      </trkpt>
      <trkpt lat="50.37838" lon="3.42638">
        <ele>38.59</ele>
        <time>2021-08-07T16:56:03Z</time>
      </trkpt>
      <trkpt lat="50.37839" lon="3.42637">
        <ele>38.59</ele>
        <time>2021-08-07T16:56:13Z</time>
      </trkpt>
      <trkpt lat="50.37839" lon="3.42638">
        <ele>38.59</ele>
        <time>2021-08-07T16:56:19Z</time>
      </trkpt>
      <trkpt lat="50.37839" lon="3.42638">
        <ele>38.59</ele>
        <time>2021-08-07T16:56:29Z</time>
      </trkpt>
      <trkpt lat="50.37839" lon="3.42636">
        <ele>38.59</ele>
        <time>2021-08-07T16:56:37Z</time>
      </trkpt>
      <trkpt lat="50.37839" lon="3.42636">
        <ele>38.59</ele>
        <time>2021-08-07T16:56:47Z</time>
      </trkpt>
      <trkpt lat="50.37841" lon="3.42636">
        <ele>38.59</ele>
        <time>2021-08-07T16:56:56Z</time>
      </trkpt>
      <trkpt lat="50.37844" lon="3.42637">
        <ele>38.59</ele>
        <time>2021-08-07T16:57:08Z</time>
      </trkpt>
      <trkpt lat="50.37846" lon="3.42637">
        <ele>38.59</ele>
        <time>2021-08-07T16:57:22Z</time>
      </trkpt>
      <trkpt lat="50.37847" lon="3.42635">
        <ele>38.59</ele>
        <time>2021-08-07T16:57:37Z</time>
      </trkpt>
      <trkpt lat="50.37846" lon="3.42633">
        <ele>38.59</ele>
        <time>2021-08-07T16:57:53Z</time>
      </trkpt>
      <trkpt lat="50.37847" lon="3.4263">
        <ele>38.59</ele>
        <time>2021-08-07T16:58:02Z</time>
      </trkpt>
      <trkpt lat="50.37847" lon="3.4263">
        <ele>39.07</ele>
        <time>2021-08-07T16:58:11Z</time>
      </trkpt>
      <trkpt lat="50.37849" lon="3.42631">
        <ele>39.07</ele>
        <time>2021-08-07T16:58:26Z</time>
      </trkpt>
      <trkpt lat="50.37847" lon="3.42633">
        <ele>39.07</ele>
        <time>2021-08-07T16:58:42Z</time>
      </trkpt>
      <trkpt lat="50.37844" lon="3.42628">
        <ele>39.07</ele>
        <time>2021-08-07T16:58:59Z</time>
      </trkpt>
      <trkpt lat="50.37842" lon="3.42625">
        <ele>39.07</ele>
        <time>2021-08-07T16:59:10Z</time>
      </trkpt>
      <trkpt lat="50.37841" lon="3.42627">
        <ele>39.55</ele>
        <time>2021-08-07T16:59:23Z</time>
      </trkpt>
      <trkpt lat="50.37841" lon="3.42626">
        <ele>39.55</ele>
        <time>2021-08-07T16:59:37Z</time>
      </trkpt>
      <trkpt lat="50.37838" lon="3.42624">
        <ele>39.55</ele>
        <time>2021-08-07T16:59:51Z</time>
      </trkpt>
      <trkpt lat="50.37839" lon="3.42621">
        <ele>39.55</ele>
        <time>2021-08-07T17:00:11Z</time>
      </trkpt>
      <trkpt lat="50.37843" lon="3.42618">
        <ele>39.55</ele>
        <time>2021-08-07T17:00:30Z</time>
      </trkpt>
      <trkpt lat="50.37844" lon="3.42625">
        <ele>40.03</ele>
        <time>2021-08-07T17:00:45Z</time>
      </trkpt>
      <trkpt lat="50.37839" lon="3.42628">
        <ele>40.03</ele>
        <time>2021-08-07T17:01:03Z</time>
      </trkpt>
      <trkpt lat="50.37839" lon="3.4263">
        <ele>40.03</ele>
        <time>2021-08-07T17:01:21Z</time>
      </trkpt>
      <trkpt lat="50.37838" lon="3.42633">
        <ele>40.03</ele>
        <time>2021-08-07T17:01:36Z</time>
      </trkpt>
      <trkpt lat="50.37836" lon="3.42636">
        <ele>40.03</ele>
        <time>2021-08-07T17:01:49Z</time>
      </trkpt>
      <trkpt lat="50.3784" lon="3.42635">
        <ele>40.03</ele>
        <time>2021-08-07T17:01:58Z</time>
      </trkpt>
      <trkpt lat="50.37848" lon="3.42633">
        <ele>40.03</ele>
        <time>2021-08-07T17:02:09Z</time>
      </trkpt>
      <trkpt lat="50.37854" lon="3.42632">
        <ele>40.51</ele>
        <time>2021-08-07T17:02:19Z</time>
      </trkpt>
      <trkpt lat="50.37858" lon="3.42632">
        <ele>40.51</ele>
        <time>2021-08-07T17:02:28Z</time>
      </trkpt>
      <trkpt lat="50.37862" lon="3.42632">
        <ele>40.99</ele>
        <time>2021-08-07T17:02:38Z</time>
      </trkpt>
      <trkpt lat="50.37864" lon="3.42632">
        <ele>40.99</ele>
        <time>2021-08-07T17:02:52Z</time>
      </trkpt>
      <trkpt lat="50.37862" lon="3.4263">
        <ele>40.99</ele>
        <time>2021-08-07T17:03:05Z</time>
      </trkpt>
      <trkpt lat="50.37857" lon="3.4263">
        <ele>40.99</ele>
        <time>2021-08-07T17:03:15Z</time>
      </trkpt>
      <trkpt lat="50.37856" lon="3.42631">
        <ele>40.99</ele>
        <time>2021-08-07T17:03:22Z</time>
      </trkpt>
      <trkpt lat="50.37853" lon="3.42632">
        <ele>40.99</ele>
        <time>2021-08-07T17:03:32Z</time>
      </trkpt>
      <trkpt lat="50.37854" lon="3.42634">
        <ele>40.99</ele>
        <time>2021-08-07T17:03:40Z</time>
      </trkpt>
      <trkpt lat="50.37854" lon="3.42635">
        <ele>40.99</ele>
        <time>2021-08-07T17:03:49Z</time>
      </trkpt>
      <trkpt lat="50.37857" lon="3.42634">
        <ele>40.99</ele>
        <time>2021-08-07T17:03:59Z</time>
      </trkpt>
      <trkpt lat="50.37857" lon="3.42633">
        <ele>41.47</ele>
        <time>2021-08-07T17:04:13Z</time>
      </trkpt>
      <trkpt lat="50.37856" lon="3.42628">
        <ele>41.47</ele>
        <time>2021-08-07T17:04:24Z</time>
      </trkpt>
      <trkpt lat="50.37852" lon="3.42627">
        <ele>41.47</ele>
        <time>2021-08-07T17:04:36Z</time>
      </trkpt>
      <trkpt lat="50.37853" lon="3.42628">
        <ele>41.47</ele>
        <time>2021-08-07T17:04:44Z</time>
      </trkpt>
      <trkpt lat="50.37853" lon="3.42628">
        <ele>41.47</ele>
        <time>2021-08-07T17:04:52Z</time>
      </trkpt>
      <trkpt lat="50.37855" lon="3.42628">
        <ele>41.95</ele>
        <time>2021-08-07T17:05:02Z</time>
      </trkpt>
      <trkpt lat="50.37853" lon="3.42626">
        <ele>41.95</ele>
        <time>2021-08-07T17:05:13Z</time>
      </trkpt>
      <trkpt lat="50.37851" lon="3.42628">
        <ele>41.95</ele>
        <time>2021-08-07T17:05:28Z</time>
      </trkpt>
      <trkpt lat="50.37847" lon="3.42628">
        <ele>41.95</ele>
        <time>2021-08-07T17:05:47Z</time>
      </trkpt>
      <trkpt lat="50.37846" lon="3.42629">
        <ele>42.44</ele>
        <time>2021-08-07T17:06:05Z</time>
      </trkpt>
      <trkpt lat="50.37847" lon="3.42631">
        <ele>42.44</ele>
        <time>2021-08-07T17:06:21Z</time>
      </trkpt>
      <trkpt lat="50.37848" lon="3.42631">
        <ele>41.47</ele>
        <time>2021-08-07T17:06:40Z</time>
      </trkpt>
      <trkpt lat="50.37851" lon="3.42624">
        <ele>41.95</ele>
        <time>2021-08-07T17:06:58Z</time>
      </trkpt>
      <trkpt lat="50.37855" lon="3.42628">
        <ele>41.95</ele>
        <time>2021-08-07T17:07:13Z</time>
      </trkpt>
      <trkpt lat="50.37857" lon="3.42629">
        <ele>42.44</ele>
        <time>2021-08-07T17:07:30Z</time>
      </trkpt>
      <trkpt lat="50.37861" lon="3.42631">
        <ele>42.44</ele>
        <time>2021-08-07T17:07:45Z</time>
      </trkpt>
      <trkpt lat="50.37864" lon="3.42634">
        <ele>42.92</ele>
        <time>2021-08-07T17:08:01Z</time>
      </trkpt>
      <trkpt lat="50.37857" lon="3.4263">
        <ele>42.92</ele>
        <time>2021-08-07T17:08:17Z</time>
      </trkpt>
      <trkpt lat="50.37853" lon="3.42621">
        <ele>43.4</ele>
        <time>2021-08-07T17:08:37Z</time>
      </trkpt>
      <trkpt lat="50.37859" lon="3.42619">
        <ele>43.4</ele>
        <time>2021-08-07T17:08:53Z</time>
      </trkpt>
      <trkpt lat="50.37855" lon="3.42614">
        <ele>43.88</ele>
        <time>2021-08-07T17:09:09Z</time>
      </trkpt>
      <trkpt lat="50.37855" lon="3.42616">
        <ele>43.88</ele>
        <time>2021-08-07T17:09:20Z</time>
      </trkpt>
      <trkpt lat="50.37852" lon="3.42614">
        <ele>43.88</ele>
        <time>2021-08-07T17:09:30Z</time>
      </trkpt>
      <trkpt lat="50.37855" lon="3.42615">
        <ele>44.36</ele>
        <time>2021-08-07T17:09:42Z</time>
      </trkpt>
      <trkpt lat="50.37857" lon="3.42616">
        <ele>44.36</ele>
        <time>2021-08-07T17:09:55Z</time>
      </trkpt>
      <trkpt lat="50.37855" lon="3.42611">
        <ele>44.36</ele>
        <time>2021-08-07T17:10:02Z</time>
      </trkpt>
      <trkpt lat="50.37855" lon="3.4261">
        <ele>44.84</ele>
        <time>2021-08-07T17:10:14Z</time>
      </trkpt>
      <trkpt lat="50.37851" lon="3.4261">
        <ele>44.84</ele>
        <time>2021-08-07T17:10:26Z</time>
      </trkpt>
      <trkpt lat="50.37847" lon="3.42611">
        <ele>45.32</ele>
        <time>2021-08-07T17:10:42Z</time>
      </trkpt>
      <trkpt lat="50.37849" lon="3.42611">
        <ele>45.32</ele>
        <time>2021-08-07T17:10:57Z</time>
      </trkpt>
      <trkpt lat="50.37852" lon="3.42611">
        <ele>45.32</ele>
        <time>2021-08-07T17:11:11Z</time>
      </trkpt>
      <trkpt lat="50.3785" lon="3.42608">
        <ele>45.32</ele>
        <time>2021-08-07T17:11:27Z</time>
      </trkpt>
      <trkpt lat="50.37845" lon="3.42606">
        <ele>45.8</ele>
        <time>2021-08-07T17:11:43Z</time>
      </trkpt>
      <trkpt lat="50.37845" lon="3.42606">
        <ele>45.8</ele>
        <time>2021-08-07T17:11:56Z</time>
      </trkpt>
      <trkpt lat="50.37849" lon="3.42611">
        <ele>46.28</ele>
        <time>2021-08-07T17:12:16Z</time>
      </trkpt>
      <trkpt lat="50.37852" lon="3.42615">
        <ele>46.76</ele>
        <time>2021-08-07T17:12:36Z</time>
      </trkpt>
      <trkpt lat="50.37854" lon="3.42614">
        <ele>46.76</ele>
        <time>2021-08-07T17:12:49Z</time>
      </trkpt>
      <trkpt lat="50.37858" lon="3.42617">
        <ele>47.24</ele>
        <time>2021-08-07T17:13:06Z</time>
      </trkpt>
      <trkpt lat="50.37861" lon="3.42617">
        <ele>47.24</ele>
        <time>2021-08-07T17:13:16Z</time>
      </trkpt>
      <trkpt lat="50.37865" lon="3.42618">
        <ele>47.72</ele>
        <time>2021-08-07T17:13:31Z</time>
      </trkpt>
      <trkpt lat="50.37871" lon="3.42621">
        <ele>47.72</ele>
        <time>2021-08-07T17:13:45Z</time>
      </trkpt>
      <trkpt lat="50.37869" lon="3.42621">
        <ele>48.2</ele>
        <time>2021-08-07T17:14:00Z</time>
      </trkpt>
      <trkpt lat="50.37868" lon="3.42619">
        <ele>48.2</ele>
        <time>2021-08-07T17:14:21Z</time>
      </trkpt>
      <trkpt lat="50.37865" lon="3.42621">
        <ele>48.68</ele>
        <time>2021-08-07T17:14:39Z</time>
      </trkpt>
      <trkpt lat="50.37865" lon="3.42624">
        <ele>48.68</ele>
        <time>2021-08-07T17:14:52Z</time>
      </trkpt>
      <trkpt lat="50.37864" lon="3.42631">
        <ele>48.68</ele>
        <time>2021-08-07T17:15:09Z</time>
      </trkpt>
      <trkpt lat="50.37863" lon="3.42631">
        <ele>49.16</ele>
        <time>2021-08-07T17:15:18Z</time>
      </trkpt>
      <trkpt lat="50.37867" lon="3.4263">
        <ele>49.16</ele>
        <time>2021-08-07T17:15:36Z</time>
      </trkpt>
      <trkpt lat="50.3787" lon="3.4263">
        <ele>49.65</ele>
        <time>2021-08-07T17:15:49Z</time>
      </trkpt>
      <trkpt lat="50.37873" lon="3.42632">
        <ele>49.65</ele>
        <time>2021-08-07T17:16:00Z</time>
      </trkpt>
      <trkpt lat="50.37875" lon="3.42633">
        <ele>50.13</ele>
        <time>2021-08-07T17:16:16Z</time>
      </trkpt>
      <trkpt lat="50.37873" lon="3.42631">
        <ele>50.61</ele>
        <time>2021-08-07T17:16:34Z</time>
      </trkpt>
      <trkpt lat="50.37873" lon="3.42633">
        <ele>50.61</ele>
        <time>2021-08-07T17:16:49Z</time>
      </trkpt>
      <trkpt lat="50.37869" lon="3.42628">
        <ele>51.09</ele>
        <time>2021-08-07T17:17:02Z</time>
      </trkpt>
      <trkpt lat="50.37869" lon="3.42626">
        <ele>51.09</ele>
        <time>2021-08-07T17:17:12Z</time>
      </trkpt>
      <trkpt lat="50.3787" lon="3.42627">
        <ele>51.57</ele>
        <time>2021-08-07T17:17:21Z</time>
      </trkpt>
      <trkpt lat="50.37869" lon="3.4263">
        <ele>51.57</ele>
        <time>2021-08-07T17:17:32Z</time>
      </trkpt>
      <trkpt lat="50.37864" lon="3.42629">
        <ele>52.05</ele>
        <time>2021-08-07T17:17:43Z</time>
      </trkpt>
      <trkpt lat="50.3786" lon="3.42627">
        <ele>52.05</ele>
        <time>2021-08-07T17:17:54Z</time>
      </trkpt>
      <trkpt lat="50.3786" lon="3.42626">
        <ele>52.05</ele>
        <time>2021-08-07T17:17:59Z</time>
      </trkpt>
      <trkpt lat="50.3786" lon="3.42626">
        <ele>52.05</ele>
        <time>2021-08-07T17:18:04Z</time>
      </trkpt>
      <trkpt lat="50.37858" lon="3.42622">
        <ele>52.05</ele>
        <time>2021-08-07T17:18:12Z</time>
      </trkpt>
      <trkpt lat="50.37855" lon="3.42615">
        <ele>52.53</ele>
        <time>2021-08-07T17:18:22Z</time>
      </trkpt>
      <trkpt lat="50.37856" lon="3.42622">
        <ele>52.53</ele>
        <time>2021-08-07T17:18:32Z</time>
      </trkpt>
      <trkpt lat="50.37856" lon="3.42627">
        <ele>52.53</ele>
        <time>2021-08-07T17:18:43Z</time>
      </trkpt>
      <trkpt lat="50.37856" lon="3.42626">
        <ele>52.05</ele>
        <time>2021-08-07T17:18:51Z</time>
      </trkpt>
      <trkpt lat="50.37854" lon="3.42624">
        <ele>53.49</ele>
        <time>2021-08-07T17:19:04Z</time>
      </trkpt>
      <trkpt lat="50.37853" lon="3.4262">
        <ele>53.49</ele>
        <time>2021-08-07T17:19:14Z</time>
      </trkpt>
      <trkpt lat="50.37854" lon="3.42617">
        <ele>53.97</ele>
        <time>2021-08-07T17:19:24Z</time>
      </trkpt>
      <trkpt lat="50.37854" lon="3.42616">
        <ele>53.97</ele>
        <time>2021-08-07T17:19:33Z</time>
      </trkpt>
      <trkpt lat="50.37854" lon="3.42617">
        <ele>53.97</ele>
        <time>2021-08-07T17:19:42Z</time>
      </trkpt>
      <trkpt lat="50.37855" lon="3.42617">
        <ele>54.45</ele>
        <time>2021-08-07T17:19:54Z</time>
      </trkpt>
      <trkpt lat="50.37856" lon="3.42617">
        <ele>54.45</ele>
        <time>2021-08-07T17:20:03Z</time>
      </trkpt>
      <trkpt lat="50.37858" lon="3.42617">
        <ele>54.45</ele>
        <time>2021-08-07T17:20:14Z</time>
      </trkpt>
      <trkpt lat="50.3786" lon="3.42618">
        <ele>54.93</ele>
        <time>2021-08-07T17:20:26Z</time>
      </trkpt>
      <trkpt lat="50.3786" lon="3.42618">
        <ele>54.93</ele>
        <time>2021-08-07T17:20:37Z</time>
      </trkpt>
      <trkpt lat="50.3786" lon="3.42614">
        <ele>54.93</ele>
        <time>2021-08-07T17:20:49Z</time>
      </trkpt>
      <trkpt lat="50.3786" lon="3.42613">
        <ele>54.93</ele>
        <time>2021-08-07T17:21:00Z</time>
      </trkpt>
      <trkpt lat="50.37862" lon="3.42617">
        <ele>55.41</ele>
        <time>2021-08-07T17:21:12Z</time>
      </trkpt>
      <trkpt lat="50.37863" lon="3.42619">
        <ele>55.41</ele>
        <time>2021-08-07T17:21:19Z</time>
      </trkpt>
      <trkpt lat="50.37863" lon="3.42622">
        <ele>55.41</ele>
        <time>2021-08-07T17:21:27Z</time>
      </trkpt>
      <trkpt lat="50.37864" lon="3.42624">
        <ele>55.41</ele>
        <time>2021-08-07T17:21:34Z</time>
      </trkpt>
      <trkpt lat="50.37865" lon="3.42628">
        <ele>55.41</ele>
        <time>2021-08-07T17:21:43Z</time>
      </trkpt>
      <trkpt lat="50.37866" lon="3.4263">
        <ele>55.89</ele>
        <time>2021-08-07T17:21:54Z</time>
      </trkpt>
      <trkpt lat="50.37866" lon="3.4263">
        <ele>55.89</ele>
        <time>2021-08-07T17:22:03Z</time>
      </trkpt>
      <trkpt lat="50.37866" lon="3.42629">
        <ele>55.89</ele>
        <time>2021-08-07T17:22:10Z</time>
      </trkpt>
      <trkpt lat="50.37866" lon="3.42631">
        <ele>55.89</ele>
        <time>2021-08-07T17:22:22Z</time>
      </trkpt>
      <trkpt lat="50.37865" lon="3.42632">
        <ele>56.37</ele>
        <time>2021-08-07T17:22:28Z</time>
      </trkpt>
      <trkpt lat="50.37865" lon="3.42632">
        <ele>56.37</ele>
        <time>2021-08-07T17:22:34Z</time>
      </trkpt>
      <trkpt lat="50.37865" lon="3.42631">
        <ele>56.37</ele>
        <time>2021-08-07T17:22:45Z</time>
      </trkpt>
      <trkpt lat="50.37863" lon="3.42633">
        <ele>56.37</ele>
        <time>2021-08-07T17:22:57Z</time>
      </trkpt>
      <trkpt lat="50.3786" lon="3.42634">
        <ele>55.41</ele>
        <time>2021-08-07T17:23:10Z</time>
      </trkpt>
      <trkpt lat="50.37858" lon="3.42633">
        <ele>55.41</ele>
        <time>2021-08-07T17:23:25Z</time>
      </trkpt>
      <trkpt lat="50.37858" lon="3.42636">
        <ele>55.89</ele>
        <time>2021-08-07T17:23:44Z</time>
      </trkpt>
      <trkpt lat="50.37858" lon="3.42636">
        <ele>55.89</ele>
        <time>2021-08-07T17:24:01Z</time>
      </trkpt>
      <trkpt lat="50.37866" lon="3.42626">
        <ele>56.37</ele>
        <time>2021-08-07T17:24:24Z</time>
      </trkpt>
      <trkpt lat="50.37873" lon="3.42623">
        <ele>56.37</ele>
        <time>2021-08-07T17:24:45Z</time>
      </trkpt>
      <trkpt lat="50.37872" lon="3.42624">
        <ele>55.89</ele>
        <time>2021-08-07T17:25:00Z</time>
      </trkpt>
      <trkpt lat="50.3787" lon="3.42629">
        <ele>57.34</ele>
        <time>2021-08-07T17:25:16Z</time>
      </trkpt>
      <trkpt lat="50.3787" lon="3.42631">
        <ele>57.82</ele>
        <time>2021-08-07T17:25:32Z</time>
      </trkpt>
      <trkpt lat="50.37866" lon="3.42632">
        <ele>56.86</ele>
        <time>2021-08-07T17:25:47Z</time>
      </trkpt>
      <trkpt lat="50.37864" lon="3.4263">
        <ele>56.86</ele>
        <time>2021-08-07T17:26:04Z</time>
      </trkpt>
      <trkpt lat="50.37865" lon="3.42628">
        <ele>57.34</ele>
        <time>2021-08-07T17:26:14Z</time>
      </trkpt>
      <trkpt lat="50.37867" lon="3.42628">
        <ele>57.34</ele>
        <time>2021-08-07T17:26:26Z</time>
      </trkpt>
      <trkpt lat="50.37869" lon="3.42626">
        <ele>57.34</ele>
        <time>2021-08-07T17:26:38Z</time>
      </trkpt>
      <trkpt lat="50.37868" lon="3.42628">
        <ele>57.82</ele>
        <time>2021-08-07T17:26:54Z</time>
      </trkpt>
      <trkpt lat="50.37868" lon="3.42629">
        <ele>57.82</ele>
        <time>2021-08-07T17:27:04Z</time>
      </trkpt>
      <trkpt lat="50.3787" lon="3.4263">
        <ele>57.82</ele>
        <time>2021-08-07T17:27:12Z</time>
      </trkpt>
      <trkpt lat="50.37871" lon="3.42632">
        <ele>58.3</ele>
        <time>2021-08-07T17:27:25Z</time>
      </trkpt>
      <trkpt lat="50.37872" lon="3.42633">
        <ele>58.3</ele>
        <time>2021-08-07T17:27:37Z</time>
      </trkpt>
      <trkpt lat="50.37871" lon="3.42634">
        <ele>58.78</ele>
        <time>2021-08-07T17:27:46Z</time>
      </trkpt>
      <trkpt lat="50.3787" lon="3.42635">
        <ele>58.78</ele>
        <time>2021-08-07T17:27:56Z</time>
      </trkpt>
      <trkpt lat="50.37869" lon="3.42636">
        <ele>58.78</ele>
        <time>2021-08-07T17:28:04Z</time>
      </trkpt>
      <trkpt lat="50.37868" lon="3.42638">
        <ele>58.78</ele>
        <time>2021-08-07T17:28:14Z</time>
      </trkpt>
      <trkpt lat="50.37869" lon="3.42638">
        <ele>58.78</ele>
        <time>2021-08-07T17:28:24Z</time>
      </trkpt>
      <trkpt lat="50.37869" lon="3.42637">
        <ele>59.26</ele>
        <time>2021-08-07T17:28:36Z</time>
      </trkpt>
      <trkpt lat="50.37869" lon="3.42638">
        <ele>59.26</ele>
        <time>2021-08-07T17:28:44Z</time>
      </trkpt>
      <trkpt lat="50.37868" lon="3.4264">
        <ele>59.74</ele>
        <time>2021-08-07T17:28:56Z</time>
      </trkpt>
      <trkpt lat="50.37869" lon="3.4264">
        <ele>59.74</ele>
        <time>2021-08-07T17:29:07Z</time>
      </trkpt>
      <trkpt lat="50.3787" lon="3.42641">
        <ele>59.74</ele>
        <time>2021-08-07T17:29:16Z</time>
      </trkpt>
      <trkpt lat="50.37869" lon="3.4264">
        <ele>60.22</ele>
        <time>2021-08-07T17:29:25Z</time>
      </trkpt>
      <trkpt lat="50.37865" lon="3.42643">
        <ele>60.22</ele>
        <time>2021-08-07T17:29:38Z</time>
      </trkpt>
      <trkpt lat="50.37862" lon="3.42645">
        <ele>60.7</ele>
        <time>2021-08-07T17:29:48Z</time>
      </trkpt>
      <trkpt lat="50.37863" lon="3.42645">
        <ele>60.7</ele>
        <time>2021-08-07T17:29:59Z</time>
      </trkpt>
      <trkpt lat="50.37867" lon="3.42636">
        <ele>61.18</ele>
        <time>2021-08-07T17:30:19Z</time>
      </trkpt>
      <trkpt lat="50.37866" lon="3.42633">
        <ele>61.66</ele>
        <time>2021-08-07T17:30:34Z</time>
      </trkpt>
      <trkpt lat="50.37864" lon="3.42636">
        <ele>61.66</ele>
        <time>2021-08-07T17:30:49Z</time>
      </trkpt>
      <trkpt lat="50.37859" lon="3.42629">
        <ele>61.66</ele>
        <time>2021-08-07T17:31:05Z</time>
      </trkpt>
      <trkpt lat="50.37861" lon="3.42628">
        <ele>62.14</ele>
        <time>2021-08-07T17:31:27Z</time>
      </trkpt>
      <trkpt lat="50.37862" lon="3.42629">
        <ele>62.62</ele>
        <time>2021-08-07T17:31:47Z</time>
      </trkpt>
      <trkpt lat="50.37862" lon="3.42629">
        <ele>62.62</ele>
        <time>2021-08-07T17:31:59Z</time>
      </trkpt>
      <trkpt lat="50.3786" lon="3.42625">
        <ele>63.1</ele>
        <time>2021-08-07T17:32:18Z</time>
      </trkpt>
      <trkpt lat="50.37851" lon="3.42638">
        <ele>63.1</ele>
        <time>2021-08-07T17:32:26Z</time>
      </trkpt>
      <trkpt lat="50.37842" lon="3.42642">
        <ele>63.1</ele>
        <time>2021-08-07T17:32:36Z</time>
      </trkpt>
      <trkpt lat="50.37837" lon="3.42644">
        <ele>63.1</ele>
        <time>2021-08-07T17:32:47Z</time>
      </trkpt>
      <trkpt lat="50.37838" lon="3.42645">
        <ele>63.1</ele>
        <time>2021-08-07T17:32:53Z</time>
      </trkpt>
      <trkpt lat="50.37839" lon="3.42647">
        <ele>62.62</ele>
        <time>2021-08-07T17:32:54Z</time>
      </trkpt>
      <trkpt lat="50.37839" lon="3.42649">
        <ele>62.62</ele>
        <time>2021-08-07T17:32:55Z</time>
      </trkpt>
      <trkpt lat="50.3784" lon="3.42652">
        <ele>62.62</ele>
        <time>2021-08-07T17:32:56Z</time>
      </trkpt>
      <trkpt lat="50.3784" lon="3.42656">
        <ele>62.62</ele>
        <time>2021-08-07T17:32:57Z</time>
      </trkpt>
      <trkpt lat="50.37849" lon="3.42697">
        <ele>62.62</ele>
        <time>2021-08-07T17:33:06Z</time>
      </trkpt>
      <trkpt lat="50.37867" lon="3.42762">
        <ele>62.14</ele>
        <time>2021-08-07T17:33:17Z</time>
      </trkpt>
      <trkpt lat="50.37883" lon="3.42813">
        <ele>61.66</ele>
        <time>2021-08-07T17:33:26Z</time>
      </trkpt>
      <trkpt lat="50.37891" lon="3.42857">
        <ele>61.66</ele>
        <time>2021-08-07T17:33:34Z</time>
      </trkpt>
      <trkpt lat="50.37901" lon="3.42901">
        <ele>61.18</ele>
        <time>2021-08-07T17:33:42Z</time>
      </trkpt>
      <trkpt lat="50.37902" lon="3.42923">
        <ele>61.18</ele>
        <time>2021-08-07T17:33:47Z</time>
      </trkpt>
      <trkpt lat="50.37901" lon="3.4293">
        <ele>61.18</ele>
        <time>2021-08-07T17:33:56Z</time>
      </trkpt>
      <trkpt lat="50.37907" lon="3.42954">
        <ele>61.18</ele>
        <time>2021-08-07T17:34:02Z</time>
      </trkpt>
      <trkpt lat="50.37914" lon="3.42993">
        <ele>61.18</ele>
        <time>2021-08-07T17:34:09Z</time>
      </trkpt>
      <trkpt lat="50.37915" lon="3.42999">
        <ele>61.18</ele>
        <time>2021-08-07T17:34:10Z</time>
      </trkpt>
      <trkpt lat="50.37917" lon="3.43063">
        <ele>60.7</ele>
        <time>2021-08-07T17:34:20Z</time>
      </trkpt>
      <trkpt lat="50.37914" lon="3.43091">
        <ele>62.14</ele>
        <time>2021-08-07T17:34:25Z</time>
      </trkpt>
      <trkpt lat="50.37911" lon="3.43093">
        <ele>62.14</ele>
        <time>2021-08-07T17:34:26Z</time>
      </trkpt>
      <trkpt lat="50.37908" lon="3.43095">
        <ele>61.66</ele>
        <time>2021-08-07T17:34:27Z</time>
      </trkpt>
      <trkpt lat="50.37881" lon="3.43105">
        <ele>62.62</ele>
        <time>2021-08-07T17:34:34Z</time>
      </trkpt>
      <trkpt lat="50.37858" lon="3.4311">
        <ele>62.62</ele>
        <time>2021-08-07T17:34:40Z</time>
      </trkpt>
      <trkpt lat="50.37834" lon="3.43109">
        <ele>62.62</ele>
        <time>2021-08-07T17:34:47Z</time>
      </trkpt>
      <trkpt lat="50.37822" lon="3.43089">
        <ele>62.62</ele>
        <time>2021-08-07T17:34:52Z</time>
      </trkpt>
      <trkpt lat="50.37812" lon="3.43071">
        <ele>63.1</ele>
        <time>2021-08-07T17:34:56Z</time>
      </trkpt>
      <trkpt lat="50.378" lon="3.43034">
        <ele>63.58</ele>
        <time>2021-08-07T17:35:02Z</time>
      </trkpt>
      <trkpt lat="50.37773" lon="3.4297">
        <ele>63.58</ele>
        <time>2021-08-07T17:35:12Z</time>
      </trkpt>
      <trkpt lat="50.37768" lon="3.42966">
        <ele>63.58</ele>
        <time>2021-08-07T17:35:13Z</time>
      </trkpt>
      <trkpt lat="50.37763" lon="3.42963">
        <ele>63.58</ele>
        <time>2021-08-07T17:35:14Z</time>
      </trkpt>
      <trkpt lat="50.37757" lon="3.42963">
        <ele>63.58</ele>
        <time>2021-08-07T17:35:15Z</time>
      </trkpt>
      <trkpt lat="50.37753" lon="3.42965">
        <ele>63.58</ele>
        <time>2021-08-07T17:35:16Z</time>
      </trkpt>
      <trkpt lat="50.37747" lon="3.42968">
        <ele>63.1</ele>
        <time>2021-08-07T17:35:17Z</time>
      </trkpt>
      <trkpt lat="50.37741" lon="3.42971">
        <ele>63.1</ele>
        <time>2021-08-07T17:35:18Z</time>
      </trkpt>
      <trkpt lat="50.3769" lon="3.42991">
        <ele>63.1</ele>
        <time>2021-08-07T17:35:28Z</time>
      </trkpt>
      <trkpt lat="50.37653" lon="3.42995">
        <ele>63.1</ele>
        <time>2021-08-07T17:35:36Z</time>
      </trkpt>
      <trkpt lat="50.37641" lon="3.42994">
        <ele>63.1</ele>
        <time>2021-08-07T17:35:41Z</time>
      </trkpt>
      <trkpt lat="50.37639" lon="3.42994">
        <ele>63.58</ele>
        <time>2021-08-07T17:35:47Z</time>
      </trkpt>
      <trkpt lat="50.37637" lon="3.42994">
        <ele>63.1</ele>
        <time>2021-08-07T17:35:59Z</time>
      </trkpt>
      <trkpt lat="50.37637" lon="3.42994">
        <ele>63.1</ele>
        <time>2021-08-07T17:36:07Z</time>
      </trkpt>
      <trkpt lat="50.37637" lon="3.42995">
        <ele>62.62</ele>
        <time>2021-08-07T17:36:28Z</time>
      </trkpt>
      <trkpt lat="50.37634" lon="3.42995">
        <ele>62.62</ele>
        <time>2021-08-07T17:36:52Z</time>
      </trkpt>
      <trkpt lat="50.37634" lon="3.42995">
        <ele>62.14</ele>
        <time>2021-08-07T17:37:12Z</time>
      </trkpt>
      <trkpt lat="50.37631" lon="3.42996">
        <ele>62.14</ele>
        <time>2021-08-07T17:37:25Z</time>
      </trkpt>
      <trkpt lat="50.37627" lon="3.42997">
        <ele>62.14</ele>
        <time>2021-08-07T17:37:29Z</time>
      </trkpt>
      <trkpt lat="50.37628" lon="3.42994">
        <ele>62.14</ele>
        <time>2021-08-07T17:37:33Z</time>
      </trkpt>
      <trkpt lat="50.3763" lon="3.42994">
        <ele>62.14</ele>
        <time>2021-08-07T17:37:34Z</time>
      </trkpt>
      <trkpt lat="50.37631" lon="3.42993">
        <ele>62.14</ele>
        <time>2021-08-07T17:37:35Z</time>
      </trkpt>
      <trkpt lat="50.37633" lon="3.42993">
        <ele>62.14</ele>
        <time>2021-08-07T17:37:42Z</time>
      </trkpt>
      <trkpt lat="50.37633" lon="3.42993">
        <ele>61.66</ele>
        <time>2021-08-07T17:38:05Z</time>
      </trkpt>
      <trkpt lat="50.37633" lon="3.42993">
        <ele>61.66</ele>
        <time>2021-08-07T17:38:24Z</time>
      </trkpt>
      <trkpt lat="50.37632" lon="3.42995">
        <ele>61.66</ele>
        <time>2021-08-07T17:38:27Z</time>
      </trkpt>
      <trkpt lat="50.3763" lon="3.42996">
        <ele>61.66</ele>
        <time>2021-08-07T17:38:28Z</time>
      </trkpt>
      <trkpt lat="50.37617" lon="3.42998">
        <ele>61.66</ele>
        <time>2021-08-07T17:38:33Z</time>
      </trkpt>
      <trkpt lat="50.3759" lon="3.43003">
        <ele>61.18</ele>
        <time>2021-08-07T17:38:40Z</time>
      </trkpt>
      <trkpt lat="50.3757" lon="3.43008">
        <ele>61.18</ele>
        <time>2021-08-07T17:38:45Z</time>
      </trkpt>
      <trkpt lat="50.37514" lon="3.43028">
        <ele>61.18</ele>
        <time>2021-08-07T17:38:58Z</time>
      </trkpt>
      <trkpt lat="50.3747" lon="3.43054">
        <ele>61.18</ele>
        <time>2021-08-07T17:39:08Z</time>
      </trkpt>
      <trkpt lat="50.37425" lon="3.43067">
        <ele>61.18</ele>
        <time>2021-08-07T17:39:18Z</time>
      </trkpt>
      <trkpt lat="50.37421" lon="3.43068">
        <ele>61.18</ele>
        <time>2021-08-07T17:39:19Z</time>
      </trkpt>
      <trkpt lat="50.37407" lon="3.43067">
        <ele>60.7</ele>
        <time>2021-08-07T17:39:22Z</time>
      </trkpt>
      <trkpt lat="50.37403" lon="3.43066">
        <ele>60.7</ele>
        <time>2021-08-07T17:39:23Z</time>
      </trkpt>
      <trkpt lat="50.37359" lon="3.4306">
        <ele>61.66</ele>
        <time>2021-08-07T17:39:33Z</time>
      </trkpt>
      <trkpt lat="50.37328" lon="3.43056">
        <ele>61.66</ele>
        <time>2021-08-07T17:39:40Z</time>
      </trkpt>
      <trkpt lat="50.3728" lon="3.43052">
        <ele>61.66</ele>
        <time>2021-08-07T17:39:51Z</time>
      </trkpt>
      <trkpt lat="50.37275" lon="3.43053">
        <ele>61.66</ele>
        <time>2021-08-07T17:39:52Z</time>
      </trkpt>
      <trkpt lat="50.37241" lon="3.43059">
        <ele>61.66</ele>
        <time>2021-08-07T17:40:00Z</time>
      </trkpt>
      <trkpt lat="50.37212" lon="3.43047">
        <ele>61.66</ele>
        <time>2021-08-07T17:40:07Z</time>
      </trkpt>
      <trkpt lat="50.37208" lon="3.43044">
        <ele>61.66</ele>
        <time>2021-08-07T17:40:08Z</time>
      </trkpt>
      <trkpt lat="50.37189" lon="3.43032">
        <ele>61.66</ele>
        <time>2021-08-07T17:40:13Z</time>
      </trkpt>
      <trkpt lat="50.37184" lon="3.43032">
        <ele>61.66</ele>
        <time>2021-08-07T17:40:14Z</time>
      </trkpt>
      <trkpt lat="50.37158" lon="3.43029">
        <ele>61.66</ele>
        <time>2021-08-07T17:40:20Z</time>
      </trkpt>
      <trkpt lat="50.37154" lon="3.43027">
        <ele>61.66</ele>
        <time>2021-08-07T17:40:21Z</time>
      </trkpt>
      <trkpt lat="50.37117" lon="3.43">
        <ele>61.66</ele>
        <time>2021-08-07T17:40:30Z</time>
      </trkpt>
      <trkpt lat="50.37079" lon="3.42979">
        <ele>62.14</ele>
        <time>2021-08-07T17:40:39Z</time>
      </trkpt>
      <trkpt lat="50.37028" lon="3.42951">
        <ele>62.62</ele>
        <time>2021-08-07T17:40:51Z</time>
      </trkpt>
      <trkpt lat="50.36971" lon="3.42921">
        <ele>62.62</ele>
        <time>2021-08-07T17:41:04Z</time>
      </trkpt>
      <trkpt lat="50.36919" lon="3.42901">
        <ele>62.14</ele>
        <time>2021-08-07T17:41:15Z</time>
      </trkpt>
      <trkpt lat="50.36871" lon="3.42884">
        <ele>62.14</ele>
        <time>2021-08-07T17:41:25Z</time>
      </trkpt>
      <trkpt lat="50.36858" lon="3.42878">
        <ele>62.14</ele>
        <time>2021-08-07T17:41:28Z</time>
      </trkpt>
      <trkpt lat="50.36855" lon="3.42874">
        <ele>62.14</ele>
        <time>2021-08-07T17:41:29Z</time>
      </trkpt>
      <trkpt lat="50.36854" lon="3.42867">
        <ele>62.14</ele>
        <time>2021-08-07T17:41:30Z</time>
      </trkpt>
      <trkpt lat="50.36856" lon="3.4286">
        <ele>62.14</ele>
        <time>2021-08-07T17:41:31Z</time>
      </trkpt>
      <trkpt lat="50.36859" lon="3.42853">
        <ele>62.14</ele>
        <time>2021-08-07T17:41:32Z</time>
      </trkpt>
      <trkpt lat="50.36861" lon="3.42848">
        <ele>62.14</ele>
        <time>2021-08-07T17:41:33Z</time>
      </trkpt>
      <trkpt lat="50.36863" lon="3.42841">
        <ele>62.14</ele>
        <time>2021-08-07T17:41:34Z</time>
      </trkpt>
      <trkpt lat="50.36892" lon="3.4277">
        <ele>60.7</ele>
        <time>2021-08-07T17:41:44Z</time>
      </trkpt>
      <trkpt lat="50.36924" lon="3.42697">
        <ele>59.74</ele>
        <time>2021-08-07T17:41:54Z</time>
      </trkpt>
      <trkpt lat="50.36964" lon="3.42606">
        <ele>57.82</ele>
        <time>2021-08-07T17:42:06Z</time>
      </trkpt>
      <trkpt lat="50.36993" lon="3.42525">
        <ele>56.37</ele>
        <time>2021-08-07T17:42:16Z</time>
      </trkpt>
      <trkpt lat="50.37027" lon="3.42429">
        <ele>54.45</ele>
        <time>2021-08-07T17:42:27Z</time>
      </trkpt>
      <trkpt lat="50.3705" lon="3.4235">
        <ele>52.53</ele>
        <time>2021-08-07T17:42:36Z</time>
      </trkpt>
      <trkpt lat="50.37058" lon="3.42284">
        <ele>52.05</ele>
        <time>2021-08-07T17:42:43Z</time>
      </trkpt>
      <trkpt lat="50.37061" lon="3.42261">
        <ele>52.05</ele>
        <time>2021-08-07T17:42:46Z</time>
      </trkpt>
      <trkpt lat="50.37063" lon="3.42255">
        <ele>52.05</ele>
        <time>2021-08-07T17:42:47Z</time>
      </trkpt>
      <trkpt lat="50.37066" lon="3.42251">
        <ele>52.05</ele>
        <time>2021-08-07T17:42:48Z</time>
      </trkpt>
      <trkpt lat="50.37069" lon="3.42248">
        <ele>52.05</ele>
        <time>2021-08-07T17:42:49Z</time>
      </trkpt>
      <trkpt lat="50.37074" lon="3.42246">
        <ele>52.05</ele>
        <time>2021-08-07T17:42:50Z</time>
      </trkpt>
      <trkpt lat="50.37078" lon="3.42243">
        <ele>52.05</ele>
        <time>2021-08-07T17:42:51Z</time>
      </trkpt>
      <trkpt lat="50.37081" lon="3.42238">
        <ele>51.09</ele>
        <time>2021-08-07T17:42:52Z</time>
      </trkpt>
      <trkpt lat="50.37084" lon="3.42231">
        <ele>51.09</ele>
        <time>2021-08-07T17:42:53Z</time>
      </trkpt>
      <trkpt lat="50.37085" lon="3.42224">
        <ele>51.09</ele>
        <time>2021-08-07T17:42:54Z</time>
      </trkpt>
      <trkpt lat="50.37086" lon="3.42217">
        <ele>51.09</ele>
        <time>2021-08-07T17:42:55Z</time>
      </trkpt>
      <trkpt lat="50.37089" lon="3.42202">
        <ele>51.09</ele>
        <time>2021-08-07T17:42:57Z</time>
      </trkpt>
      <trkpt lat="50.37099" lon="3.42136">
        <ele>50.61</ele>
        <time>2021-08-07T17:43:06Z</time>
      </trkpt>
      <trkpt lat="50.37102" lon="3.42113">
        <ele>50.13</ele>
        <time>2021-08-07T17:43:09Z</time>
      </trkpt>
      <trkpt lat="50.37104" lon="3.42107">
        <ele>50.13</ele>
        <time>2021-08-07T17:43:10Z</time>
      </trkpt>
      <trkpt lat="50.37105" lon="3.42099">
        <ele>50.13</ele>
        <time>2021-08-07T17:43:11Z</time>
      </trkpt>
      <trkpt lat="50.37106" lon="3.42093">
        <ele>50.13</ele>
        <time>2021-08-07T17:43:12Z</time>
      </trkpt>
      <trkpt lat="50.37107" lon="3.42085">
        <ele>50.13</ele>
        <time>2021-08-07T17:43:13Z</time>
      </trkpt>
      <trkpt lat="50.37109" lon="3.42078">
        <ele>49.65</ele>
        <time>2021-08-07T17:43:14Z</time>
      </trkpt>
      <trkpt lat="50.37115" lon="3.42035">
        <ele>49.65</ele>
        <time>2021-08-07T17:43:21Z</time>
      </trkpt>
      <trkpt lat="50.3712" lon="3.42007">
        <ele>48.68</ele>
        <time>2021-08-07T17:43:26Z</time>
      </trkpt>
      <trkpt lat="50.37122" lon="3.42001">
        <ele>48.68</ele>
        <time>2021-08-07T17:43:27Z</time>
      </trkpt>
      <trkpt lat="50.37125" lon="3.41995">
        <ele>48.68</ele>
        <time>2021-08-07T17:43:28Z</time>
      </trkpt>
      <trkpt lat="50.37143" lon="3.41963">
        <ele>48.2</ele>
        <time>2021-08-07T17:43:34Z</time>
      </trkpt>
      <trkpt lat="50.37164" lon="3.41931">
        <ele>48.2</ele>
        <time>2021-08-07T17:43:41Z</time>
      </trkpt>
      <trkpt lat="50.3718" lon="3.41898">
        <ele>48.2</ele>
        <time>2021-08-07T17:43:48Z</time>
      </trkpt>
      <trkpt lat="50.37186" lon="3.41886">
        <ele>47.72</ele>
        <time>2021-08-07T17:43:52Z</time>
      </trkpt>
      <trkpt lat="50.37185" lon="3.41883">
        <ele>47.72</ele>
        <time>2021-08-07T17:43:53Z</time>
      </trkpt>
      <trkpt lat="50.37185" lon="3.41878">
        <ele>47.72</ele>
        <time>2021-08-07T17:43:54Z</time>
      </trkpt>
      <trkpt lat="50.37184" lon="3.41873">
        <ele>47.72</ele>
        <time>2021-08-07T17:43:55Z</time>
      </trkpt>
      <trkpt lat="50.37181" lon="3.4187">
        <ele>47.24</ele>
        <time>2021-08-07T17:43:56Z</time>
      </trkpt>
      <trkpt lat="50.37178" lon="3.41867">
        <ele>47.24</ele>
        <time>2021-08-07T17:43:57Z</time>
      </trkpt>
      <trkpt lat="50.37156" lon="3.41839">
        <ele>46.76</ele>
        <time>2021-08-07T17:44:05Z</time>
      </trkpt>
      <trkpt lat="50.37134" lon="3.41801">
        <ele>46.76</ele>
        <time>2021-08-07T17:44:13Z</time>
      </trkpt>
      <trkpt lat="50.37112" lon="3.41768">
        <ele>46.28</ele>
        <time>2021-08-07T17:44:20Z</time>
      </trkpt>
      <trkpt lat="50.37096" lon="3.41746">
        <ele>45.32</ele>
        <time>2021-08-07T17:44:25Z</time>
      </trkpt>
      <trkpt lat="50.37068" lon="3.41703">
        <ele>45.32</ele>
        <time>2021-08-07T17:44:34Z</time>
      </trkpt>
      <trkpt lat="50.37042" lon="3.4166">
        <ele>44.84</ele>
        <time>2021-08-07T17:44:42Z</time>
      </trkpt>
      <trkpt lat="50.3701" lon="3.41604">
        <ele>43.88</ele>
        <time>2021-08-07T17:44:52Z</time>
      </trkpt>
      <trkpt lat="50.36992" lon="3.41578">
        <ele>43.4</ele>
        <time>2021-08-07T17:44:57Z</time>
      </trkpt>
      <trkpt lat="50.36983" lon="3.41559">
        <ele>43.4</ele>
        <time>2021-08-07T17:45:00Z</time>
      </trkpt>
      <trkpt lat="50.36978" lon="3.41548">
        <ele>43.4</ele>
        <time>2021-08-07T17:45:02Z</time>
      </trkpt>
      <trkpt lat="50.36954" lon="3.41499">
        <ele>42.92</ele>
        <time>2021-08-07T17:45:10Z</time>
      </trkpt>
      <trkpt lat="50.36934" lon="3.41455">
        <ele>41.47</ele>
        <time>2021-08-07T17:45:17Z</time>
      </trkpt>
      <trkpt lat="50.36931" lon="3.41448">
        <ele>41.47</ele>
        <time>2021-08-07T17:45:18Z</time>
      </trkpt>
      <trkpt lat="50.36907" lon="3.41397">
        <ele>40.99</ele>
        <time>2021-08-07T17:45:26Z</time>
      </trkpt>
      <trkpt lat="50.36882" lon="3.41342">
        <ele>40.03</ele>
        <time>2021-08-07T17:45:35Z</time>
      </trkpt>
      <trkpt lat="50.36862" lon="3.41299">
        <ele>40.03</ele>
        <time>2021-08-07T17:45:42Z</time>
      </trkpt>
      <trkpt lat="50.36841" lon="3.41255">
        <ele>39.55</ele>
        <time>2021-08-07T17:45:50Z</time>
      </trkpt>
      <trkpt lat="50.36829" lon="3.41237">
        <ele>39.55</ele>
        <time>2021-08-07T17:45:55Z</time>
      </trkpt>
      <trkpt lat="50.36826" lon="3.41232">
        <ele>39.55</ele>
        <time>2021-08-07T17:45:57Z</time>
      </trkpt>
      <trkpt lat="50.36825" lon="3.41229">
        <ele>39.55</ele>
        <time>2021-08-07T17:45:58Z</time>
      </trkpt>
      <trkpt lat="50.36824" lon="3.41223">
        <ele>39.55</ele>
        <time>2021-08-07T17:45:59Z</time>
      </trkpt>
      <trkpt lat="50.36824" lon="3.41218">
        <ele>39.55</ele>
        <time>2021-08-07T17:46:00Z</time>
      </trkpt>
      <trkpt lat="50.36823" lon="3.41213">
        <ele>39.55</ele>
        <time>2021-08-07T17:46:01Z</time>
      </trkpt>
      <trkpt lat="50.36821" lon="3.41207">
        <ele>38.59</ele>
        <time>2021-08-07T17:46:02Z</time>
      </trkpt>
      <trkpt lat="50.36819" lon="3.41203">
        <ele>38.59</ele>
        <time>2021-08-07T17:46:03Z</time>
      </trkpt>
      <trkpt lat="50.36815" lon="3.412">
        <ele>38.59</ele>
        <time>2021-08-07T17:46:04Z</time>
      </trkpt>
      <trkpt lat="50.36812" lon="3.41197">
        <ele>38.59</ele>
        <time>2021-08-07T17:46:05Z</time>
      </trkpt>
      <trkpt lat="50.36788" lon="3.41178">
        <ele>38.59</ele>
        <time>2021-08-07T17:46:12Z</time>
      </trkpt>
      <trkpt lat="50.36783" lon="3.41173">
        <ele>38.59</ele>
        <time>2021-08-07T17:46:15Z</time>
      </trkpt>
      <trkpt lat="50.3678" lon="3.41173">
        <ele>38.59</ele>
        <time>2021-08-07T17:46:16Z</time>
      </trkpt>
      <trkpt lat="50.36778" lon="3.41172">
        <ele>38.59</ele>
        <time>2021-08-07T17:46:17Z</time>
      </trkpt>
      <trkpt lat="50.36755" lon="3.41152">
        <ele>38.11</ele>
        <time>2021-08-07T17:46:24Z</time>
      </trkpt>
      <trkpt lat="50.36722" lon="3.41131">
        <ele>37.63</ele>
        <time>2021-08-07T17:46:32Z</time>
      </trkpt>
      <trkpt lat="50.36684" lon="3.4111">
        <ele>37.15</ele>
        <time>2021-08-07T17:46:41Z</time>
      </trkpt>
      <trkpt lat="50.3668" lon="3.41108">
        <ele>37.15</ele>
        <time>2021-08-07T17:46:42Z</time>
      </trkpt>
      <trkpt lat="50.36659" lon="3.41096">
        <ele>37.15</ele>
        <time>2021-08-07T17:46:47Z</time>
      </trkpt>
      <trkpt lat="50.36655" lon="3.41095">
        <ele>37.15</ele>
        <time>2021-08-07T17:46:48Z</time>
      </trkpt>
      <trkpt lat="50.36619" lon="3.41089">
        <ele>37.15</ele>
        <time>2021-08-07T17:46:58Z</time>
      </trkpt>
      <trkpt lat="50.36615" lon="3.41088">
        <ele>37.15</ele>
        <time>2021-08-07T17:47:00Z</time>
      </trkpt>
      <trkpt lat="50.36614" lon="3.41088">
        <ele>37.15</ele>
        <time>2021-08-07T17:47:01Z</time>
      </trkpt>
      <trkpt lat="50.36612" lon="3.41088">
        <ele>37.15</ele>
        <time>2021-08-07T17:47:02Z</time>
      </trkpt>
      <trkpt lat="50.3661" lon="3.41088">
        <ele>36.67</ele>
        <time>2021-08-07T17:47:03Z</time>
      </trkpt>
      <trkpt lat="50.36608" lon="3.41088">
        <ele>36.67</ele>
        <time>2021-08-07T17:47:04Z</time>
      </trkpt>
      <trkpt lat="50.36607" lon="3.41087">
        <ele>36.67</ele>
        <time>2021-08-07T17:47:05Z</time>
      </trkpt>
      <trkpt lat="50.36605" lon="3.41087">
        <ele>36.67</ele>
        <time>2021-08-07T17:47:06Z</time>
      </trkpt>
      <trkpt lat="50.36586" lon="3.41086">
        <ele>36.67</ele>
        <time>2021-08-07T17:47:12Z</time>
      </trkpt>
      <trkpt lat="50.36555" lon="3.41086">
        <ele>36.19</ele>
        <time>2021-08-07T17:47:20Z</time>
      </trkpt>
      <trkpt lat="50.36533" lon="3.41084">
        <ele>36.19</ele>
        <time>2021-08-07T17:47:26Z</time>
      </trkpt>
      <trkpt lat="50.36516" lon="3.41085">
        <ele>36.19</ele>
        <time>2021-08-07T17:47:32Z</time>
      </trkpt>
      <trkpt lat="50.36497" lon="3.41085">
        <ele>36.19</ele>
        <time>2021-08-07T17:47:38Z</time>
      </trkpt>
      <trkpt lat="50.36478" lon="3.41083">
        <ele>36.19</ele>
        <time>2021-08-07T17:47:44Z</time>
      </trkpt>
      <trkpt lat="50.36463" lon="3.41083">
        <ele>35.71</ele>
        <time>2021-08-07T17:47:51Z</time>
      </trkpt>
      <trkpt lat="50.3646" lon="3.41079">
        <ele>35.71</ele>
        <time>2021-08-07T17:47:55Z</time>
      </trkpt>
      <trkpt lat="50.36459" lon="3.41077">
        <ele>35.71</ele>
        <time>2021-08-07T17:47:56Z</time>
      </trkpt>
      <trkpt lat="50.36457" lon="3.41075">
        <ele>35.23</ele>
        <time>2021-08-07T17:47:58Z</time>
      </trkpt>
      <trkpt lat="50.36455" lon="3.4107">
        <ele>35.23</ele>
        <time>2021-08-07T17:48:02Z</time>
      </trkpt>
      <trkpt lat="50.36454" lon="3.41066">
        <ele>35.23</ele>
        <time>2021-08-07T17:48:05Z</time>
      </trkpt>
      <trkpt lat="50.36447" lon="3.41066">
        <ele>34.74</ele>
        <time>2021-08-07T17:48:10Z</time>
      </trkpt>
      <trkpt lat="50.36445" lon="3.41065">
        <ele>34.74</ele>
        <time>2021-08-07T17:48:11Z</time>
      </trkpt>
      <trkpt lat="50.36444" lon="3.41065">
        <ele>34.74</ele>
        <time>2021-08-07T17:48:12Z</time>
      </trkpt>
      <trkpt lat="50.36443" lon="3.41064">
        <ele>34.74</ele>
        <time>2021-08-07T17:48:13Z</time>
      </trkpt>
      <trkpt lat="50.36436" lon="3.41062">
        <ele>34.74</ele>
        <time>2021-08-07T17:48:19Z</time>
      </trkpt>
      <trkpt lat="50.36421" lon="3.41058">
        <ele>34.74</ele>
        <time>2021-08-07T17:48:26Z</time>
      </trkpt>
      <trkpt lat="50.36395" lon="3.41046">
        <ele>34.74</ele>
        <time>2021-08-07T17:48:34Z</time>
      </trkpt>
      <trkpt lat="50.36381" lon="3.41037">
        <ele>34.74</ele>
        <time>2021-08-07T17:48:40Z</time>
      </trkpt>
      <trkpt lat="50.36373" lon="3.41027">
        <ele>34.74</ele>
        <time>2021-08-07T17:48:47Z</time>
      </trkpt>
      <trkpt lat="50.36369" lon="3.41025">
        <ele>34.74</ele>
        <time>2021-08-07T17:48:50Z</time>
      </trkpt>
      <trkpt lat="50.3636" lon="3.41035">
        <ele>34.74</ele>
        <time>2021-08-07T17:48:58Z</time>
      </trkpt>
      <trkpt lat="50.36343" lon="3.41053">
        <ele>34.74</ele>
        <time>2021-08-07T17:49:07Z</time>
      </trkpt>
      <trkpt lat="50.36327" lon="3.4106">
        <ele>34.74</ele>
        <time>2021-08-07T17:49:14Z</time>
      </trkpt>
      <trkpt lat="50.36312" lon="3.41061">
        <ele>34.74</ele>
        <time>2021-08-07T17:49:21Z</time>
      </trkpt>
      <trkpt lat="50.36299" lon="3.41057">
        <ele>34.26</ele>
        <time>2021-08-07T17:49:28Z</time>
      </trkpt>
      <trkpt lat="50.36289" lon="3.41057">
        <ele>34.26</ele>
        <time>2021-08-07T17:49:33Z</time>
      </trkpt>
      <trkpt lat="50.36276" lon="3.41055">
        <ele>34.26</ele>
        <time>2021-08-07T17:49:40Z</time>
      </trkpt>
      <trkpt lat="50.3626" lon="3.41051">
        <ele>34.26</ele>
        <time>2021-08-07T17:49:46Z</time>
      </trkpt>
      <trkpt lat="50.36248" lon="3.41048">
        <ele>34.26</ele>
        <time>2021-08-07T17:49:52Z</time>
      </trkpt>
      <trkpt lat="50.36232" lon="3.41042">
        <ele>34.26</ele>
        <time>2021-08-07T17:49:58Z</time>
      </trkpt>
      <trkpt lat="50.36201" lon="3.41033">
        <ele>34.26</ele>
        <time>2021-08-07T17:50:07Z</time>
      </trkpt>
      <trkpt lat="50.36173" lon="3.41025">
        <ele>35.23</ele>
        <time>2021-08-07T17:50:15Z</time>
      </trkpt>
      <trkpt lat="50.36146" lon="3.41018">
        <ele>35.23</ele>
        <time>2021-08-07T17:50:22Z</time>
      </trkpt>
      <trkpt lat="50.36121" lon="3.41014">
        <ele>35.23</ele>
        <time>2021-08-07T17:50:29Z</time>
      </trkpt>
      <trkpt lat="50.36103" lon="3.41011">
        <ele>35.23</ele>
        <time>2021-08-07T17:50:36Z</time>
      </trkpt>
      <trkpt lat="50.36088" lon="3.41024">
        <ele>35.23</ele>
        <time>2021-08-07T17:50:42Z</time>
      </trkpt>
      <trkpt lat="50.36073" lon="3.4104">
        <ele>35.23</ele>
        <time>2021-08-07T17:50:50Z</time>
      </trkpt>
      <trkpt lat="50.36054" lon="3.41058">
        <ele>35.23</ele>
        <time>2021-08-07T17:50:57Z</time>
      </trkpt>
      <trkpt lat="50.36043" lon="3.4107">
        <ele>35.23</ele>
        <time>2021-08-07T17:51:01Z</time>
      </trkpt>
      <trkpt lat="50.3603" lon="3.4109">
        <ele>35.23</ele>
        <time>2021-08-07T17:51:08Z</time>
      </trkpt>
      <trkpt lat="50.3601" lon="3.41091">
        <ele>35.23</ele>
        <time>2021-08-07T17:51:14Z</time>
      </trkpt>
      <trkpt lat="50.35978" lon="3.41087">
        <ele>35.23</ele>
        <time>2021-08-07T17:51:23Z</time>
      </trkpt>
      <trkpt lat="50.35953" lon="3.41085">
        <ele>35.23</ele>
        <time>2021-08-07T17:51:31Z</time>
      </trkpt>
      <trkpt lat="50.3593" lon="3.41085">
        <ele>35.23</ele>
        <time>2021-08-07T17:51:38Z</time>
      </trkpt>
      <trkpt lat="50.35903" lon="3.41087">
        <ele>35.23</ele>
        <time>2021-08-07T17:51:46Z</time>
      </trkpt>
      <trkpt lat="50.35881" lon="3.41086">
        <ele>33.78</ele>
        <time>2021-08-07T17:51:52Z</time>
      </trkpt>
      <trkpt lat="50.35846" lon="3.41086">
        <ele>33.78</ele>
        <time>2021-08-07T17:52:00Z</time>
      </trkpt>
      <trkpt lat="50.35801" lon="3.41094">
        <ele>33.78</ele>
        <time>2021-08-07T17:52:10Z</time>
      </trkpt>
      <trkpt lat="50.35796" lon="3.41096">
        <ele>33.78</ele>
        <time>2021-08-07T17:52:11Z</time>
      </trkpt>
      <trkpt lat="50.35759" lon="3.41105">
        <ele>33.78</ele>
        <time>2021-08-07T17:52:19Z</time>
      </trkpt>
      <trkpt lat="50.35725" lon="3.41113">
        <ele>33.78</ele>
        <time>2021-08-07T17:52:26Z</time>
      </trkpt>
      <trkpt lat="50.35684" lon="3.41122">
        <ele>33.3</ele>
        <time>2021-08-07T17:52:34Z</time>
      </trkpt>
      <trkpt lat="50.3565" lon="3.41131">
        <ele>33.3</ele>
        <time>2021-08-07T17:52:41Z</time>
      </trkpt>
      <trkpt lat="50.35598" lon="3.41143">
        <ele>33.3</ele>
        <time>2021-08-07T17:52:51Z</time>
      </trkpt>
      <trkpt lat="50.35594" lon="3.41144">
        <ele>33.3</ele>
        <time>2021-08-07T17:52:52Z</time>
      </trkpt>
      <trkpt lat="50.35585" lon="3.41147">
        <ele>33.3</ele>
        <time>2021-08-07T17:52:54Z</time>
      </trkpt>
      <trkpt lat="50.3558" lon="3.41148">
        <ele>33.3</ele>
        <time>2021-08-07T17:52:55Z</time>
      </trkpt>
      <trkpt lat="50.35548" lon="3.41157">
        <ele>33.3</ele>
        <time>2021-08-07T17:53:02Z</time>
      </trkpt>
      <trkpt lat="50.35517" lon="3.41163">
        <ele>32.82</ele>
        <time>2021-08-07T17:53:10Z</time>
      </trkpt>
      <trkpt lat="50.35513" lon="3.41164">
        <ele>32.82</ele>
        <time>2021-08-07T17:53:12Z</time>
      </trkpt>
      <trkpt lat="50.35513" lon="3.41167">
        <ele>32.82</ele>
        <time>2021-08-07T17:53:13Z</time>
      </trkpt>
      <trkpt lat="50.35513" lon="3.4117">
        <ele>32.82</ele>
        <time>2021-08-07T17:53:14Z</time>
      </trkpt>
      <trkpt lat="50.35511" lon="3.4117">
        <ele>32.82</ele>
        <time>2021-08-07T17:53:15Z</time>
      </trkpt>
      <trkpt lat="50.3551" lon="3.4117">
        <ele>32.82</ele>
        <time>2021-08-07T17:53:16Z</time>
      </trkpt>
      <trkpt lat="50.35509" lon="3.41171">
        <ele>32.82</ele>
        <time>2021-08-07T17:53:17Z</time>
      </trkpt>
      <trkpt lat="50.35508" lon="3.41171">
        <ele>32.82</ele>
        <time>2021-08-07T17:53:18Z</time>
      </trkpt>
      <trkpt lat="50.35506" lon="3.41172">
        <ele>32.82</ele>
        <time>2021-08-07T17:53:19Z</time>
      </trkpt>
      <trkpt lat="50.35494" lon="3.41174">
        <ele>32.82</ele>
        <time>2021-08-07T17:53:24Z</time>
      </trkpt>
      <trkpt lat="50.35475" lon="3.4118">
        <ele>32.82</ele>
        <time>2021-08-07T17:53:29Z</time>
      </trkpt>
      <trkpt lat="50.35442" lon="3.41185">
        <ele>32.82</ele>
        <time>2021-08-07T17:53:37Z</time>
      </trkpt>
      <trkpt lat="50.35407" lon="3.41195">
        <ele>32.82</ele>
        <time>2021-08-07T17:53:45Z</time>
      </trkpt>
      <trkpt lat="50.35361" lon="3.41208">
        <ele>32.82</ele>
        <time>2021-08-07T17:53:56Z</time>
      </trkpt>
      <trkpt lat="50.35356" lon="3.41209">
        <ele>32.82</ele>
        <time>2021-08-07T17:53:57Z</time>
      </trkpt>
      <trkpt lat="50.35352" lon="3.4121">
        <ele>32.82</ele>
        <time>2021-08-07T17:53:58Z</time>
      </trkpt>
      <trkpt lat="50.35311" lon="3.41214">
        <ele>32.82</ele>
        <time>2021-08-07T17:54:07Z</time>
      </trkpt>
      <trkpt lat="50.35274" lon="3.41215">
        <ele>32.34</ele>
        <time>2021-08-07T17:54:15Z</time>
      </trkpt>
      <trkpt lat="50.3527" lon="3.41215">
        <ele>32.82</ele>
        <time>2021-08-07T17:54:16Z</time>
      </trkpt>
      <trkpt lat="50.35224" lon="3.41209">
        <ele>32.34</ele>
        <time>2021-08-07T17:54:26Z</time>
      </trkpt>
      <trkpt lat="50.35202" lon="3.41205">
        <ele>32.34</ele>
        <time>2021-08-07T17:54:31Z</time>
      </trkpt>
      <trkpt lat="50.35161" lon="3.41193">
        <ele>32.34</ele>
        <time>2021-08-07T17:54:41Z</time>
      </trkpt>
      <trkpt lat="50.35111" lon="3.41175">
        <ele>31.86</ele>
        <time>2021-08-07T17:54:53Z</time>
      </trkpt>
      <trkpt lat="50.35098" lon="3.41173">
        <ele>33.3</ele>
        <time>2021-08-07T17:54:56Z</time>
      </trkpt>
      <trkpt lat="50.3509" lon="3.41172">
        <ele>33.3</ele>
        <time>2021-08-07T17:54:58Z</time>
      </trkpt>
      <trkpt lat="50.35072" lon="3.4117">
        <ele>33.3</ele>
        <time>2021-08-07T17:55:02Z</time>
      </trkpt>
      <trkpt lat="50.35068" lon="3.41171">
        <ele>33.3</ele>
        <time>2021-08-07T17:55:03Z</time>
      </trkpt>
      <trkpt lat="50.35064" lon="3.41173">
        <ele>33.3</ele>
        <time>2021-08-07T17:55:04Z</time>
      </trkpt>
      <trkpt lat="50.35049" lon="3.41177">
        <ele>33.3</ele>
        <time>2021-08-07T17:55:08Z</time>
      </trkpt>
      <trkpt lat="50.35045" lon="3.41176">
        <ele>33.3</ele>
        <time>2021-08-07T17:55:09Z</time>
      </trkpt>
      <trkpt lat="50.35041" lon="3.41176">
        <ele>33.3</ele>
        <time>2021-08-07T17:55:10Z</time>
      </trkpt>
      <trkpt lat="50.35036" lon="3.41176">
        <ele>33.3</ele>
        <time>2021-08-07T17:55:11Z</time>
      </trkpt>
      <trkpt lat="50.35032" lon="3.41177">
        <ele>33.3</ele>
        <time>2021-08-07T17:55:12Z</time>
      </trkpt>
      <trkpt lat="50.35028" lon="3.41178">
        <ele>33.3</ele>
        <time>2021-08-07T17:55:13Z</time>
      </trkpt>
      <trkpt lat="50.35024" lon="3.41176">
        <ele>33.3</ele>
        <time>2021-08-07T17:55:14Z</time>
      </trkpt>
      <trkpt lat="50.35021" lon="3.41173">
        <ele>33.3</ele>
        <time>2021-08-07T17:55:15Z</time>
      </trkpt>
      <trkpt lat="50.35018" lon="3.4117">
        <ele>33.3</ele>
        <time>2021-08-07T17:55:16Z</time>
      </trkpt>
      <trkpt lat="50.35" lon="3.41157">
        <ele>34.26</ele>
        <time>2021-08-07T17:55:21Z</time>
      </trkpt>
      <trkpt lat="50.34996" lon="3.41156">
        <ele>34.26</ele>
        <time>2021-08-07T17:55:22Z</time>
      </trkpt>
      <trkpt lat="50.34965" lon="3.41151">
        <ele>34.26</ele>
        <time>2021-08-07T17:55:30Z</time>
      </trkpt>
      <trkpt lat="50.3495" lon="3.41159">
        <ele>34.74</ele>
        <time>2021-08-07T17:55:36Z</time>
      </trkpt>
      <trkpt lat="50.34941" lon="3.41184">
        <ele>34.74</ele>
        <time>2021-08-07T17:55:41Z</time>
      </trkpt>
      <trkpt lat="50.34918" lon="3.41241">
        <ele>34.74</ele>
        <time>2021-08-07T17:55:50Z</time>
      </trkpt>
      <trkpt lat="50.34893" lon="3.41315">
        <ele>34.74</ele>
        <time>2021-08-07T17:56:00Z</time>
      </trkpt>
      <trkpt lat="50.34867" lon="3.41378">
        <ele>33.3</ele>
        <time>2021-08-07T17:56:09Z</time>
      </trkpt>
      <trkpt lat="50.34849" lon="3.41426">
        <ele>33.3</ele>
        <time>2021-08-07T17:56:16Z</time>
      </trkpt>
      <trkpt lat="50.34847" lon="3.41435">
        <ele>33.3</ele>
        <time>2021-08-07T17:56:17Z</time>
      </trkpt>
      <trkpt lat="50.34846" lon="3.41442">
        <ele>33.3</ele>
        <time>2021-08-07T17:56:18Z</time>
      </trkpt>
      <trkpt lat="50.34846" lon="3.41449">
        <ele>33.3</ele>
        <time>2021-08-07T17:56:19Z</time>
      </trkpt>
      <trkpt lat="50.34847" lon="3.41458">
        <ele>33.3</ele>
        <time>2021-08-07T17:56:20Z</time>
      </trkpt>
      <trkpt lat="50.34848" lon="3.41465">
        <ele>33.3</ele>
        <time>2021-08-07T17:56:21Z</time>
      </trkpt>
      <trkpt lat="50.34851" lon="3.41481">
        <ele>34.74</ele>
        <time>2021-08-07T17:56:23Z</time>
      </trkpt>
      <trkpt lat="50.34852" lon="3.41495">
        <ele>34.74</ele>
        <time>2021-08-07T17:56:25Z</time>
      </trkpt>
      <trkpt lat="50.34851" lon="3.41501">
        <ele>34.74</ele>
        <time>2021-08-07T17:56:26Z</time>
      </trkpt>
      <trkpt lat="50.34849" lon="3.41506">
        <ele>34.74</ele>
        <time>2021-08-07T17:56:27Z</time>
      </trkpt>
      <trkpt lat="50.34846" lon="3.4151">
        <ele>34.74</ele>
        <time>2021-08-07T17:56:28Z</time>
      </trkpt>
      <trkpt lat="50.34843" lon="3.41513">
        <ele>34.74</ele>
        <time>2021-08-07T17:56:29Z</time>
      </trkpt>
      <trkpt lat="50.34831" lon="3.41524">
        <ele>35.23</ele>
        <time>2021-08-07T17:56:32Z</time>
      </trkpt>
      <trkpt lat="50.34796" lon="3.41555">
        <ele>35.71</ele>
        <time>2021-08-07T17:56:41Z</time>
      </trkpt>
      <trkpt lat="50.34772" lon="3.4158">
        <ele>36.19</ele>
        <time>2021-08-07T17:56:48Z</time>
      </trkpt>
      <trkpt lat="50.34749" lon="3.416">
        <ele>36.19</ele>
        <time>2021-08-07T17:56:54Z</time>
      </trkpt>
      <trkpt lat="50.34734" lon="3.41614">
        <ele>36.19</ele>
        <time>2021-08-07T17:56:58Z</time>
      </trkpt>
      <trkpt lat="50.34723" lon="3.41625">
        <ele>34.74</ele>
        <time>2021-08-07T17:57:01Z</time>
      </trkpt>
      <trkpt lat="50.34695" lon="3.41653">
        <ele>34.74</ele>
        <time>2021-08-07T17:57:09Z</time>
      </trkpt>
      <trkpt lat="50.34691" lon="3.41657">
        <ele>34.74</ele>
        <time>2021-08-07T17:57:10Z</time>
      </trkpt>
      <trkpt lat="50.34688" lon="3.41661">
        <ele>34.74</ele>
        <time>2021-08-07T17:57:11Z</time>
      </trkpt>
      <trkpt lat="50.34684" lon="3.41664">
        <ele>34.74</ele>
        <time>2021-08-07T17:57:12Z</time>
      </trkpt>
      <trkpt lat="50.34681" lon="3.41668">
        <ele>34.74</ele>
        <time>2021-08-07T17:57:13Z</time>
      </trkpt>
      <trkpt lat="50.34658" lon="3.41693">
        <ele>34.74</ele>
        <time>2021-08-07T17:57:19Z</time>
      </trkpt>
      <trkpt lat="50.34654" lon="3.41697">
        <ele>34.74</ele>
        <time>2021-08-07T17:57:20Z</time>
      </trkpt>
      <trkpt lat="50.34639" lon="3.41714">
        <ele>34.74</ele>
        <time>2021-08-07T17:57:24Z</time>
      </trkpt>
      <trkpt lat="50.34636" lon="3.41719">
        <ele>34.74</ele>
        <time>2021-08-07T17:57:25Z</time>
      </trkpt>
      <trkpt lat="50.34632" lon="3.41723">
        <ele>34.74</ele>
        <time>2021-08-07T17:57:26Z</time>
      </trkpt>
      <trkpt lat="50.34607" lon="3.41757">
        <ele>34.74</ele>
        <time>2021-08-07T17:57:33Z</time>
      </trkpt>
      <trkpt lat="50.34603" lon="3.41763">
        <ele>35.71</ele>
        <time>2021-08-07T17:57:34Z</time>
      </trkpt>
      <trkpt lat="50.346" lon="3.41767">
        <ele>35.71</ele>
        <time>2021-08-07T17:57:35Z</time>
      </trkpt>
      <trkpt lat="50.34596" lon="3.41772">
        <ele>35.71</ele>
        <time>2021-08-07T17:57:36Z</time>
      </trkpt>
      <trkpt lat="50.34582" lon="3.41791">
        <ele>35.71</ele>
        <time>2021-08-07T17:57:40Z</time>
      </trkpt>
      <trkpt lat="50.34579" lon="3.41796">
        <ele>35.71</ele>
        <time>2021-08-07T17:57:41Z</time>
      </trkpt>
      <trkpt lat="50.34572" lon="3.41805">
        <ele>35.71</ele>
        <time>2021-08-07T17:57:43Z</time>
      </trkpt>
      <trkpt lat="50.34568" lon="3.41809">
        <ele>35.71</ele>
        <time>2021-08-07T17:57:44Z</time>
      </trkpt>
      <trkpt lat="50.34558" lon="3.41823">
        <ele>35.71</ele>
        <time>2021-08-07T17:57:47Z</time>
      </trkpt>
      <trkpt lat="50.34555" lon="3.41828">
        <ele>35.71</ele>
        <time>2021-08-07T17:57:48Z</time>
      </trkpt>
      <trkpt lat="50.34551" lon="3.41832">
        <ele>35.71</ele>
        <time>2021-08-07T17:57:49Z</time>
      </trkpt>
      <trkpt lat="50.34521" lon="3.41873">
        <ele>36.19</ele>
        <time>2021-08-07T17:57:59Z</time>
      </trkpt>
      <trkpt lat="50.34501" lon="3.41901">
        <ele>36.67</ele>
        <time>2021-08-07T17:58:06Z</time>
      </trkpt>
      <trkpt lat="50.3448" lon="3.4192">
        <ele>36.67</ele>
        <time>2021-08-07T17:58:12Z</time>
      </trkpt>
      <trkpt lat="50.34469" lon="3.41928">
        <ele>36.67</ele>
        <time>2021-08-07T17:58:15Z</time>
      </trkpt>
      <trkpt lat="50.34465" lon="3.41929">
        <ele>36.67</ele>
        <time>2021-08-07T17:58:16Z</time>
      </trkpt>
      <trkpt lat="50.34461" lon="3.41931">
        <ele>36.67</ele>
        <time>2021-08-07T17:58:17Z</time>
      </trkpt>
      <trkpt lat="50.34457" lon="3.41934">
        <ele>36.19</ele>
        <time>2021-08-07T17:58:18Z</time>
      </trkpt>
      <trkpt lat="50.34453" lon="3.41936">
        <ele>36.19</ele>
        <time>2021-08-07T17:58:19Z</time>
      </trkpt>
      <trkpt lat="50.3445" lon="3.41938">
        <ele>36.19</ele>
        <time>2021-08-07T17:58:20Z</time>
      </trkpt>
      <trkpt lat="50.34446" lon="3.4194">
        <ele>36.19</ele>
        <time>2021-08-07T17:58:21Z</time>
      </trkpt>
      <trkpt lat="50.34419" lon="3.41955">
        <ele>36.19</ele>
        <time>2021-08-07T17:58:28Z</time>
      </trkpt>
      <trkpt lat="50.34415" lon="3.41956">
        <ele>36.19</ele>
        <time>2021-08-07T17:58:29Z</time>
      </trkpt>
      <trkpt lat="50.34411" lon="3.41958">
        <ele>36.19</ele>
        <time>2021-08-07T17:58:30Z</time>
      </trkpt>
      <trkpt lat="50.34407" lon="3.4196">
        <ele>36.19</ele>
        <time>2021-08-07T17:58:31Z</time>
      </trkpt>
      <trkpt lat="50.34404" lon="3.41962">
        <ele>36.19</ele>
        <time>2021-08-07T17:58:32Z</time>
      </trkpt>
      <trkpt lat="50.34374" lon="3.41978">
        <ele>36.19</ele>
        <time>2021-08-07T17:58:40Z</time>
      </trkpt>
      <trkpt lat="50.34354" lon="3.41994">
        <ele>36.19</ele>
        <time>2021-08-07T17:58:46Z</time>
      </trkpt>
      <trkpt lat="50.34329" lon="3.42013">
        <ele>36.19</ele>
        <time>2021-08-07T17:58:54Z</time>
      </trkpt>
      <trkpt lat="50.34318" lon="3.42021">
        <ele>38.59</ele>
        <time>2021-08-07T17:58:59Z</time>
      </trkpt>
      <trkpt lat="50.34315" lon="3.4202">
        <ele>39.55</ele>
        <time>2021-08-07T17:59:00Z</time>
      </trkpt>
      <trkpt lat="50.34315" lon="3.42018">
        <ele>40.03</ele>
        <time>2021-08-07T17:59:01Z</time>
      </trkpt>
      <trkpt lat="50.34315" lon="3.42016">
        <ele>40.03</ele>
        <time>2021-08-07T17:59:06Z</time>
      </trkpt>
      <trkpt lat="50.34313" lon="3.42016">
        <ele>40.03</ele>
        <time>2021-08-07T17:59:08Z</time>
      </trkpt>
      <trkpt lat="50.34312" lon="3.42016">
        <ele>40.03</ele>
        <time>2021-08-07T17:59:09Z</time>
      </trkpt>
      <trkpt lat="50.3431" lon="3.42015">
        <ele>40.03</ele>
        <time>2021-08-07T17:59:10Z</time>
      </trkpt>
      <trkpt lat="50.34308" lon="3.42014">
        <ele>40.03</ele>
        <time>2021-08-07T17:59:11Z</time>
      </trkpt>
      <trkpt lat="50.34306" lon="3.42013">
        <ele>40.03</ele>
        <time>2021-08-07T17:59:12Z</time>
      </trkpt>
      <trkpt lat="50.34285" lon="3.42014">
        <ele>40.03</ele>
        <time>2021-08-07T17:59:18Z</time>
      </trkpt>
      <trkpt lat="50.34276" lon="3.42017">
        <ele>40.03</ele>
        <time>2021-08-07T17:59:21Z</time>
      </trkpt>
      <trkpt lat="50.34275" lon="3.42021">
        <ele>40.03</ele>
        <time>2021-08-07T17:59:22Z</time>
      </trkpt>
      <trkpt lat="50.34272" lon="3.4203">
        <ele>40.03</ele>
        <time>2021-08-07T17:59:24Z</time>
      </trkpt>
      <trkpt lat="50.3427" lon="3.42033">
        <ele>40.03</ele>
        <time>2021-08-07T17:59:25Z</time>
      </trkpt>
      <trkpt lat="50.34266" lon="3.42035">
        <ele>40.03</ele>
        <time>2021-08-07T17:59:26Z</time>
      </trkpt>
      <trkpt lat="50.34262" lon="3.42037">
        <ele>40.03</ele>
        <time>2021-08-07T17:59:27Z</time>
      </trkpt>
      <trkpt lat="50.34259" lon="3.42039">
        <ele>40.03</ele>
        <time>2021-08-07T17:59:28Z</time>
      </trkpt>
      <trkpt lat="50.34255" lon="3.42042">
        <ele>40.03</ele>
        <time>2021-08-07T17:59:29Z</time>
      </trkpt>
      <trkpt lat="50.34251" lon="3.42043">
        <ele>40.03</ele>
        <time>2021-08-07T17:59:30Z</time>
      </trkpt>
      <trkpt lat="50.34247" lon="3.42044">
        <ele>40.03</ele>
        <time>2021-08-07T17:59:31Z</time>
      </trkpt>
      <trkpt lat="50.34239" lon="3.42046">
        <ele>40.03</ele>
        <time>2021-08-07T17:59:33Z</time>
      </trkpt>
      <trkpt lat="50.34234" lon="3.42047">
        <ele>40.03</ele>
        <time>2021-08-07T17:59:34Z</time>
      </trkpt>
      <trkpt lat="50.3423" lon="3.42048">
        <ele>40.03</ele>
        <time>2021-08-07T17:59:35Z</time>
      </trkpt>
      <trkpt lat="50.34217" lon="3.42053">
        <ele>40.03</ele>
        <time>2021-08-07T17:59:38Z</time>
      </trkpt>
      <trkpt lat="50.34213" lon="3.42055">
        <ele>40.03</ele>
        <time>2021-08-07T17:59:39Z</time>
      </trkpt>
      <trkpt lat="50.3417" lon="3.42071">
        <ele>40.03</ele>
        <time>2021-08-07T17:59:49Z</time>
      </trkpt>
      <trkpt lat="50.34128" lon="3.42084">
        <ele>40.51</ele>
        <time>2021-08-07T17:59:59Z</time>
      </trkpt>
      <trkpt lat="50.34104" lon="3.42094">
        <ele>40.03</ele>
        <time>2021-08-07T18:00:05Z</time>
      </trkpt>
      <trkpt lat="50.34059" lon="3.42108">
        <ele>40.99</ele>
        <time>2021-08-07T18:00:16Z</time>
      </trkpt>
      <trkpt lat="50.34016" lon="3.42119">
        <ele>40.99</ele>
        <time>2021-08-07T18:00:26Z</time>
      </trkpt>
      <trkpt lat="50.34012" lon="3.42121">
        <ele>40.99</ele>
        <time>2021-08-07T18:00:27Z</time>
      </trkpt>
      <trkpt lat="50.33983" lon="3.42127">
        <ele>41.47</ele>
        <time>2021-08-07T18:00:34Z</time>
      </trkpt>
      <trkpt lat="50.33979" lon="3.42128">
        <ele>41.47</ele>
        <time>2021-08-07T18:00:35Z</time>
      </trkpt>
      <trkpt lat="50.33971" lon="3.4213">
        <ele>41.95</ele>
        <time>2021-08-07T18:00:37Z</time>
      </trkpt>
      <trkpt lat="50.3393" lon="3.42135">
        <ele>42.44</ele>
        <time>2021-08-07T18:00:47Z</time>
      </trkpt>
      <trkpt lat="50.33928" lon="3.42134">
        <ele>42.44</ele>
        <time>2021-08-07T18:00:48Z</time>
      </trkpt>
      <trkpt lat="50.33928" lon="3.42132">
        <ele>42.44</ele>
        <time>2021-08-07T18:00:49Z</time>
      </trkpt>
      <trkpt lat="50.33928" lon="3.42128">
        <ele>42.44</ele>
        <time>2021-08-07T18:00:54Z</time>
      </trkpt>
      <trkpt lat="50.33928" lon="3.42129">
        <ele>42.44</ele>
        <time>2021-08-07T18:01:08Z</time>
      </trkpt>
      <trkpt lat="50.33929" lon="3.42132">
        <ele>42.44</ele>
        <time>2021-08-07T18:01:15Z</time>
      </trkpt>
      <trkpt lat="50.33928" lon="3.42132">
        <ele>42.44</ele>
        <time>2021-08-07T18:01:32Z</time>
      </trkpt>
      <trkpt lat="50.33927" lon="3.42134">
        <ele>42.44</ele>
        <time>2021-08-07T18:01:36Z</time>
      </trkpt>
      <trkpt lat="50.33926" lon="3.42135">
        <ele>42.44</ele>
        <time>2021-08-07T18:01:37Z</time>
      </trkpt>
      <trkpt lat="50.33924" lon="3.42136">
        <ele>42.44</ele>
        <time>2021-08-07T18:01:38Z</time>
      </trkpt>
      <trkpt lat="50.33906" lon="3.42141">
        <ele>42.92</ele>
        <time>2021-08-07T18:01:44Z</time>
      </trkpt>
      <trkpt lat="50.33869" lon="3.42145">
        <ele>42.92</ele>
        <time>2021-08-07T18:01:53Z</time>
      </trkpt>
      <trkpt lat="50.33817" lon="3.42143">
        <ele>42.92</ele>
        <time>2021-08-07T18:02:05Z</time>
      </trkpt>
      <trkpt lat="50.33766" lon="3.42136">
        <ele>42.92</ele>
        <time>2021-08-07T18:02:16Z</time>
      </trkpt>
      <trkpt lat="50.33713" lon="3.42127">
        <ele>42.92</ele>
        <time>2021-08-07T18:02:27Z</time>
      </trkpt>
      <trkpt lat="50.33655" lon="3.42113">
        <ele>42.44</ele>
        <time>2021-08-07T18:02:39Z</time>
      </trkpt>
      <trkpt lat="50.3361" lon="3.42104">
        <ele>42.44</ele>
        <time>2021-08-07T18:02:48Z</time>
      </trkpt>
      <trkpt lat="50.33544" lon="3.42089">
        <ele>42.44</ele>
        <time>2021-08-07T18:03:01Z</time>
      </trkpt>
      <trkpt lat="50.33496" lon="3.42079">
        <ele>42.44</ele>
        <time>2021-08-07T18:03:11Z</time>
      </trkpt>
      <trkpt lat="50.33468" lon="3.42074">
        <ele>42.92</ele>
        <time>2021-08-07T18:03:17Z</time>
      </trkpt>
      <trkpt lat="50.33462" lon="3.42074">
        <ele>42.92</ele>
        <time>2021-08-07T18:03:18Z</time>
      </trkpt>
      <trkpt lat="50.3343" lon="3.4207">
        <ele>42.92</ele>
        <time>2021-08-07T18:03:25Z</time>
      </trkpt>
      <trkpt lat="50.33407" lon="3.42072">
        <ele>42.92</ele>
        <time>2021-08-07T18:03:31Z</time>
      </trkpt>
      <trkpt lat="50.33403" lon="3.42072">
        <ele>42.92</ele>
        <time>2021-08-07T18:03:32Z</time>
      </trkpt>
      <trkpt lat="50.33382" lon="3.42068">
        <ele>43.4</ele>
        <time>2021-08-07T18:03:37Z</time>
      </trkpt>
      <trkpt lat="50.33378" lon="3.42066">
        <ele>43.4</ele>
        <time>2021-08-07T18:03:38Z</time>
      </trkpt>
      <trkpt lat="50.33374" lon="3.42063">
        <ele>43.4</ele>
        <time>2021-08-07T18:03:39Z</time>
      </trkpt>
      <trkpt lat="50.33361" lon="3.42055">
        <ele>43.4</ele>
        <time>2021-08-07T18:03:42Z</time>
      </trkpt>
      <trkpt lat="50.33324" lon="3.42018">
        <ele>43.4</ele>
        <time>2021-08-07T18:03:51Z</time>
      </trkpt>
      <trkpt lat="50.33292" lon="3.41977">
        <ele>42.92</ele>
        <time>2021-08-07T18:03:59Z</time>
      </trkpt>
      <trkpt lat="50.33247" lon="3.41919">
        <ele>41.47</ele>
        <time>2021-08-07T18:04:10Z</time>
      </trkpt>
      <trkpt lat="50.33207" lon="3.41872">
        <ele>40.03</ele>
        <time>2021-08-07T18:04:19Z</time>
      </trkpt>
      <trkpt lat="50.33162" lon="3.4183">
        <ele>39.55</ele>
        <time>2021-08-07T18:04:29Z</time>
      </trkpt>
      <trkpt lat="50.33115" lon="3.41803">
        <ele>38.59</ele>
        <time>2021-08-07T18:04:38Z</time>
      </trkpt>
      <trkpt lat="50.33104" lon="3.41797">
        <ele>38.59</ele>
        <time>2021-08-07T18:04:40Z</time>
      </trkpt>
      <trkpt lat="50.3309" lon="3.41785">
        <ele>38.11</ele>
        <time>2021-08-07T18:04:43Z</time>
      </trkpt>
      <trkpt lat="50.33086" lon="3.4178">
        <ele>37.63</ele>
        <time>2021-08-07T18:04:44Z</time>
      </trkpt>
      <trkpt lat="50.33068" lon="3.41761">
        <ele>37.15</ele>
        <time>2021-08-07T18:04:50Z</time>
      </trkpt>
      <trkpt lat="50.33066" lon="3.41762">
        <ele>37.15</ele>
        <time>2021-08-07T18:04:51Z</time>
      </trkpt>
      <trkpt lat="50.33063" lon="3.41765">
        <ele>37.15</ele>
        <time>2021-08-07T18:04:52Z</time>
      </trkpt>
      <trkpt lat="50.33062" lon="3.41771">
        <ele>37.15</ele>
        <time>2021-08-07T18:04:53Z</time>
      </trkpt>
      <trkpt lat="50.33061" lon="3.41776">
        <ele>37.15</ele>
        <time>2021-08-07T18:04:54Z</time>
      </trkpt>
      <trkpt lat="50.3306" lon="3.41782">
        <ele>37.15</ele>
        <time>2021-08-07T18:04:55Z</time>
      </trkpt>
      <trkpt lat="50.33053" lon="3.41843">
        <ele>37.15</ele>
        <time>2021-08-07T18:05:03Z</time>
      </trkpt>
      <trkpt lat="50.33051" lon="3.4186">
        <ele>36.67</ele>
        <time>2021-08-07T18:05:05Z</time>
      </trkpt>
      <trkpt lat="50.33051" lon="3.41869">
        <ele>36.67</ele>
        <time>2021-08-07T18:05:06Z</time>
      </trkpt>
      <trkpt lat="50.33037" lon="3.41975">
        <ele>36.19</ele>
        <time>2021-08-07T18:05:18Z</time>
      </trkpt>
      <trkpt lat="50.33024" lon="3.42078">
        <ele>35.23</ele>
        <time>2021-08-07T18:05:29Z</time>
      </trkpt>
      <trkpt lat="50.33008" lon="3.42213">
        <ele>34.26</ele>
        <time>2021-08-07T18:05:43Z</time>
      </trkpt>
      <trkpt lat="50.32998" lon="3.42294">
        <ele>32.34</ele>
        <time>2021-08-07T18:05:51Z</time>
      </trkpt>
      <trkpt lat="50.32997" lon="3.42303">
        <ele>32.34</ele>
        <time>2021-08-07T18:05:52Z</time>
      </trkpt>
      <trkpt lat="50.32997" lon="3.42312">
        <ele>32.34</ele>
        <time>2021-08-07T18:05:53Z</time>
      </trkpt>
      <trkpt lat="50.32997" lon="3.42321">
        <ele>32.34</ele>
        <time>2021-08-07T18:05:54Z</time>
      </trkpt>
      <trkpt lat="50.32987" lon="3.42405">
        <ele>32.34</ele>
        <time>2021-08-07T18:06:03Z</time>
      </trkpt>
      <trkpt lat="50.32985" lon="3.42414">
        <ele>32.34</ele>
        <time>2021-08-07T18:06:04Z</time>
      </trkpt>
      <trkpt lat="50.32966" lon="3.42494">
        <ele>33.3</ele>
        <time>2021-08-07T18:06:13Z</time>
      </trkpt>
      <trkpt lat="50.32946" lon="3.42594">
        <ele>33.3</ele>
        <time>2021-08-07T18:06:24Z</time>
      </trkpt>
      <trkpt lat="50.32927" lon="3.42683">
        <ele>33.3</ele>
        <time>2021-08-07T18:06:34Z</time>
      </trkpt>
      <trkpt lat="50.32904" lon="3.42797">
        <ele>33.3</ele>
        <time>2021-08-07T18:06:47Z</time>
      </trkpt>
      <trkpt lat="50.32883" lon="3.429">
        <ele>33.3</ele>
        <time>2021-08-07T18:06:59Z</time>
      </trkpt>
      <trkpt lat="50.32865" lon="3.42993">
        <ele>33.3</ele>
        <time>2021-08-07T18:07:10Z</time>
      </trkpt>
      <trkpt lat="50.32843" lon="3.43085">
        <ele>33.3</ele>
        <time>2021-08-07T18:07:21Z</time>
      </trkpt>
      <trkpt lat="50.32821" lon="3.43157">
        <ele>33.3</ele>
        <time>2021-08-07T18:07:30Z</time>
      </trkpt>
      <trkpt lat="50.32791" lon="3.43242">
        <ele>33.3</ele>
        <time>2021-08-07T18:07:41Z</time>
      </trkpt>
      <trkpt lat="50.32766" lon="3.43301">
        <ele>33.3</ele>
        <time>2021-08-07T18:07:49Z</time>
      </trkpt>
      <trkpt lat="50.32724" lon="3.43389">
        <ele>33.3</ele>
        <time>2021-08-07T18:08:01Z</time>
      </trkpt>
      <trkpt lat="50.32685" lon="3.43465">
        <ele>33.3</ele>
        <time>2021-08-07T18:08:12Z</time>
      </trkpt>
      <trkpt lat="50.32677" lon="3.43485">
        <ele>33.3</ele>
        <time>2021-08-07T18:08:15Z</time>
      </trkpt>
      <trkpt lat="50.32672" lon="3.43499">
        <ele>33.3</ele>
        <time>2021-08-07T18:08:17Z</time>
      </trkpt>
      <trkpt lat="50.32646" lon="3.43538">
        <ele>33.3</ele>
        <time>2021-08-07T18:08:23Z</time>
      </trkpt>
      <trkpt lat="50.32601" lon="3.43617">
        <ele>33.3</ele>
        <time>2021-08-07T18:08:35Z</time>
      </trkpt>
      <trkpt lat="50.32558" lon="3.43685">
        <ele>33.3</ele>
        <time>2021-08-07T18:08:46Z</time>
      </trkpt>
      <trkpt lat="50.32548" lon="3.43697">
        <ele>33.3</ele>
        <time>2021-08-07T18:08:49Z</time>
      </trkpt>
      <trkpt lat="50.32544" lon="3.437">
        <ele>33.3</ele>
        <time>2021-08-07T18:08:50Z</time>
      </trkpt>
      <trkpt lat="50.32525" lon="3.43708">
        <ele>33.3</ele>
        <time>2021-08-07T18:08:55Z</time>
      </trkpt>
      <trkpt lat="50.32522" lon="3.43705">
        <ele>33.3</ele>
        <time>2021-08-07T18:08:56Z</time>
      </trkpt>
      <trkpt lat="50.32518" lon="3.43699">
        <ele>33.3</ele>
        <time>2021-08-07T18:08:57Z</time>
      </trkpt>
      <trkpt lat="50.32515" lon="3.43693">
        <ele>33.3</ele>
        <time>2021-08-07T18:08:58Z</time>
      </trkpt>
      <trkpt lat="50.32513" lon="3.43685">
        <ele>33.3</ele>
        <time>2021-08-07T18:08:59Z</time>
      </trkpt>
      <trkpt lat="50.3251" lon="3.43679">
        <ele>33.3</ele>
        <time>2021-08-07T18:09:00Z</time>
      </trkpt>
      <trkpt lat="50.32505" lon="3.43673">
        <ele>33.3</ele>
        <time>2021-08-07T18:09:01Z</time>
      </trkpt>
      <trkpt lat="50.32501" lon="3.43672">
        <ele>33.3</ele>
        <time>2021-08-07T18:09:02Z</time>
      </trkpt>
      <trkpt lat="50.32497" lon="3.43672">
        <ele>33.3</ele>
        <time>2021-08-07T18:09:03Z</time>
      </trkpt>
      <trkpt lat="50.32493" lon="3.43675">
        <ele>33.3</ele>
        <time>2021-08-07T18:09:04Z</time>
      </trkpt>
      <trkpt lat="50.3249" lon="3.43679">
        <ele>33.3</ele>
        <time>2021-08-07T18:09:05Z</time>
      </trkpt>
      <trkpt lat="50.32488" lon="3.43686">
        <ele>33.3</ele>
        <time>2021-08-07T18:09:06Z</time>
      </trkpt>
      <trkpt lat="50.32487" lon="3.43694">
        <ele>33.3</ele>
        <time>2021-08-07T18:09:07Z</time>
      </trkpt>
      <trkpt lat="50.32489" lon="3.43702">
        <ele>33.3</ele>
        <time>2021-08-07T18:09:08Z</time>
      </trkpt>
      <trkpt lat="50.32491" lon="3.43707">
        <ele>33.3</ele>
        <time>2021-08-07T18:09:09Z</time>
      </trkpt>
      <trkpt lat="50.32494" lon="3.43713">
        <ele>33.3</ele>
        <time>2021-08-07T18:09:10Z</time>
      </trkpt>
      <trkpt lat="50.32497" lon="3.43719">
        <ele>33.3</ele>
        <time>2021-08-07T18:09:11Z</time>
      </trkpt>
      <trkpt lat="50.32499" lon="3.43724">
        <ele>33.3</ele>
        <time>2021-08-07T18:09:12Z</time>
      </trkpt>
      <trkpt lat="50.32501" lon="3.43732">
        <ele>33.3</ele>
        <time>2021-08-07T18:09:13Z</time>
      </trkpt>
      <trkpt lat="50.325" lon="3.43741">
        <ele>33.3</ele>
        <time>2021-08-07T18:09:14Z</time>
      </trkpt>
      <trkpt lat="50.32498" lon="3.43749">
        <ele>33.3</ele>
        <time>2021-08-07T18:09:15Z</time>
      </trkpt>
      <trkpt lat="50.32496" lon="3.43755">
        <ele>33.3</ele>
        <time>2021-08-07T18:09:16Z</time>
      </trkpt>
      <trkpt lat="50.32493" lon="3.43761">
        <ele>33.3</ele>
        <time>2021-08-07T18:09:17Z</time>
      </trkpt>
      <trkpt lat="50.32489" lon="3.43767">
        <ele>33.3</ele>
        <time>2021-08-07T18:09:18Z</time>
      </trkpt>
      <trkpt lat="50.32486" lon="3.43773">
        <ele>33.3</ele>
        <time>2021-08-07T18:09:19Z</time>
      </trkpt>
      <trkpt lat="50.32447" lon="3.43836">
        <ele>33.3</ele>
        <time>2021-08-07T18:09:29Z</time>
      </trkpt>
      <trkpt lat="50.32441" lon="3.43852">
        <ele>33.3</ele>
        <time>2021-08-07T18:09:31Z</time>
      </trkpt>
      <trkpt lat="50.32439" lon="3.43861">
        <ele>33.3</ele>
        <time>2021-08-07T18:09:32Z</time>
      </trkpt>
      <trkpt lat="50.3243" lon="3.43931">
        <ele>32.34</ele>
        <time>2021-08-07T18:09:40Z</time>
      </trkpt>
      <trkpt lat="50.32424" lon="3.43993">
        <ele>32.34</ele>
        <time>2021-08-07T18:09:47Z</time>
      </trkpt>
      <trkpt lat="50.32408" lon="3.44071">
        <ele>31.86</ele>
        <time>2021-08-07T18:09:56Z</time>
      </trkpt>
      <trkpt lat="50.32381" lon="3.44139">
        <ele>31.38</ele>
        <time>2021-08-07T18:10:05Z</time>
      </trkpt>
      <trkpt lat="50.32359" lon="3.44179">
        <ele>31.38</ele>
        <time>2021-08-07T18:10:11Z</time>
      </trkpt>
      <trkpt lat="50.32318" lon="3.44238">
        <ele>31.38</ele>
        <time>2021-08-07T18:10:21Z</time>
      </trkpt>
      <trkpt lat="50.32271" lon="3.44306">
        <ele>31.38</ele>
        <time>2021-08-07T18:10:32Z</time>
      </trkpt>
      <trkpt lat="50.32231" lon="3.44368">
        <ele>30.42</ele>
        <time>2021-08-07T18:10:42Z</time>
      </trkpt>
      <trkpt lat="50.32189" lon="3.44428">
        <ele>30.42</ele>
        <time>2021-08-07T18:10:52Z</time>
      </trkpt>
      <trkpt lat="50.32147" lon="3.44483">
        <ele>31.86</ele>
        <time>2021-08-07T18:11:02Z</time>
      </trkpt>
      <trkpt lat="50.32103" lon="3.44545">
        <ele>31.86</ele>
        <time>2021-08-07T18:11:13Z</time>
      </trkpt>
      <trkpt lat="50.32084" lon="3.44575">
        <ele>31.86</ele>
        <time>2021-08-07T18:11:18Z</time>
      </trkpt>
      <trkpt lat="50.32042" lon="3.4463">
        <ele>31.86</ele>
        <time>2021-08-07T18:11:28Z</time>
      </trkpt>
      <trkpt lat="50.32009" lon="3.44674">
        <ele>31.86</ele>
        <time>2021-08-07T18:11:36Z</time>
      </trkpt>
      <trkpt lat="50.32004" lon="3.44678">
        <ele>31.86</ele>
        <time>2021-08-07T18:11:37Z</time>
      </trkpt>
      <trkpt lat="50.31953" lon="3.44716">
        <ele>31.86</ele>
        <time>2021-08-07T18:11:47Z</time>
      </trkpt>
      <trkpt lat="50.31911" lon="3.44741">
        <ele>31.38</ele>
        <time>2021-08-07T18:11:55Z</time>
      </trkpt>
      <trkpt lat="50.31873" lon="3.44766">
        <ele>32.82</ele>
        <time>2021-08-07T18:12:03Z</time>
      </trkpt>
      <trkpt lat="50.3187" lon="3.44767">
        <ele>32.82</ele>
        <time>2021-08-07T18:12:04Z</time>
      </trkpt>
      <trkpt lat="50.31855" lon="3.44771">
        <ele>32.82</ele>
        <time>2021-08-07T18:12:07Z</time>
      </trkpt>
      <trkpt lat="50.31809" lon="3.44796">
        <ele>32.82</ele>
        <time>2021-08-07T18:12:16Z</time>
      </trkpt>
      <trkpt lat="50.31762" lon="3.44817">
        <ele>31.86</ele>
        <time>2021-08-07T18:12:25Z</time>
      </trkpt>
      <trkpt lat="50.31746" lon="3.44823">
        <ele>32.82</ele>
        <time>2021-08-07T18:12:29Z</time>
      </trkpt>
      <trkpt lat="50.31715" lon="3.44841">
        <ele>33.3</ele>
        <time>2021-08-07T18:12:37Z</time>
      </trkpt>
      <trkpt lat="50.31707" lon="3.44848">
        <ele>33.78</ele>
        <time>2021-08-07T18:12:40Z</time>
      </trkpt>
      <trkpt lat="50.31707" lon="3.44852">
        <ele>33.78</ele>
        <time>2021-08-07T18:12:41Z</time>
      </trkpt>
      <trkpt lat="50.31707" lon="3.44856">
        <ele>33.78</ele>
        <time>2021-08-07T18:12:42Z</time>
      </trkpt>
      <trkpt lat="50.31708" lon="3.4486">
        <ele>34.26</ele>
        <time>2021-08-07T18:12:43Z</time>
      </trkpt>
      <trkpt lat="50.31709" lon="3.44865">
        <ele>34.26</ele>
        <time>2021-08-07T18:12:44Z</time>
      </trkpt>
      <trkpt lat="50.31715" lon="3.4491">
        <ele>36.67</ele>
        <time>2021-08-07T18:12:53Z</time>
      </trkpt>
      <trkpt lat="50.31727" lon="3.44965">
        <ele>37.15</ele>
        <time>2021-08-07T18:13:02Z</time>
      </trkpt>
      <trkpt lat="50.31729" lon="3.44971">
        <ele>37.15</ele>
        <time>2021-08-07T18:13:03Z</time>
      </trkpt>
      <trkpt lat="50.31732" lon="3.44978">
        <ele>37.15</ele>
        <time>2021-08-07T18:13:04Z</time>
      </trkpt>
      <trkpt lat="50.31735" lon="3.44983">
        <ele>37.15</ele>
        <time>2021-08-07T18:13:05Z</time>
      </trkpt>
      <trkpt lat="50.31738" lon="3.44988">
        <ele>37.15</ele>
        <time>2021-08-07T18:13:06Z</time>
      </trkpt>
      <trkpt lat="50.31748" lon="3.45002">
        <ele>37.15</ele>
        <time>2021-08-07T18:13:09Z</time>
      </trkpt>
      <trkpt lat="50.3175" lon="3.45008">
        <ele>37.15</ele>
        <time>2021-08-07T18:13:10Z</time>
      </trkpt>
      <trkpt lat="50.31751" lon="3.45015">
        <ele>37.15</ele>
        <time>2021-08-07T18:13:11Z</time>
      </trkpt>
      <trkpt lat="50.31752" lon="3.45021">
        <ele>37.15</ele>
        <time>2021-08-07T18:13:12Z</time>
      </trkpt>
      <trkpt lat="50.31752" lon="3.45029">
        <ele>37.15</ele>
        <time>2021-08-07T18:13:13Z</time>
      </trkpt>
      <trkpt lat="50.31754" lon="3.45053">
        <ele>35.71</ele>
        <time>2021-08-07T18:13:16Z</time>
      </trkpt>
      <trkpt lat="50.31755" lon="3.4507">
        <ele>35.71</ele>
        <time>2021-08-07T18:13:18Z</time>
      </trkpt>
      <trkpt lat="50.3176" lon="3.45104">
        <ele>35.23</ele>
        <time>2021-08-07T18:13:22Z</time>
      </trkpt>
      <trkpt lat="50.3177" lon="3.4516">
        <ele>33.78</ele>
        <time>2021-08-07T18:13:28Z</time>
      </trkpt>
      <trkpt lat="50.31773" lon="3.45178">
        <ele>33.78</ele>
        <time>2021-08-07T18:13:30Z</time>
      </trkpt>
      <trkpt lat="50.31773" lon="3.45188">
        <ele>33.78</ele>
        <time>2021-08-07T18:13:31Z</time>
      </trkpt>
      <trkpt lat="50.31771" lon="3.45197">
        <ele>33.78</ele>
        <time>2021-08-07T18:13:32Z</time>
      </trkpt>
      <trkpt lat="50.31769" lon="3.45206">
        <ele>33.3</ele>
        <time>2021-08-07T18:13:33Z</time>
      </trkpt>
      <trkpt lat="50.31765" lon="3.45215">
        <ele>33.3</ele>
        <time>2021-08-07T18:13:34Z</time>
      </trkpt>
      <trkpt lat="50.3176" lon="3.45223">
        <ele>32.82</ele>
        <time>2021-08-07T18:13:35Z</time>
      </trkpt>
      <trkpt lat="50.31755" lon="3.4523">
        <ele>32.82</ele>
        <time>2021-08-07T18:13:36Z</time>
      </trkpt>
      <trkpt lat="50.3171" lon="3.4529">
        <ele>31.38</ele>
        <time>2021-08-07T18:13:45Z</time>
      </trkpt>
      <trkpt lat="50.31661" lon="3.45353">
        <ele>30.42</ele>
        <time>2021-08-07T18:13:55Z</time>
      </trkpt>
      <trkpt lat="50.31612" lon="3.45417">
        <ele>29.46</ele>
        <time>2021-08-07T18:14:05Z</time>
      </trkpt>
      <trkpt lat="50.31564" lon="3.45474">
        <ele>29.46</ele>
        <time>2021-08-07T18:14:15Z</time>
      </trkpt>
      <trkpt lat="50.31532" lon="3.45509">
        <ele>30.9</ele>
        <time>2021-08-07T18:14:23Z</time>
      </trkpt>
      <trkpt lat="50.31504" lon="3.45529">
        <ele>31.38</ele>
        <time>2021-08-07T18:14:31Z</time>
      </trkpt>
      <trkpt lat="50.31494" lon="3.45532">
        <ele>31.86</ele>
        <time>2021-08-07T18:14:34Z</time>
      </trkpt>
      <trkpt lat="50.31491" lon="3.45528">
        <ele>31.86</ele>
        <time>2021-08-07T18:14:35Z</time>
      </trkpt>
      <trkpt lat="50.31489" lon="3.45523">
        <ele>31.86</ele>
        <time>2021-08-07T18:14:36Z</time>
      </trkpt>
      <trkpt lat="50.31488" lon="3.45517">
        <ele>31.86</ele>
        <time>2021-08-07T18:14:37Z</time>
      </trkpt>
      <trkpt lat="50.31486" lon="3.45509">
        <ele>31.86</ele>
        <time>2021-08-07T18:14:38Z</time>
      </trkpt>
      <trkpt lat="50.31484" lon="3.45502">
        <ele>31.86</ele>
        <time>2021-08-07T18:14:39Z</time>
      </trkpt>
      <trkpt lat="50.31476" lon="3.45473">
        <ele>30.42</ele>
        <time>2021-08-07T18:14:43Z</time>
      </trkpt>
      <trkpt lat="50.31446" lon="3.45391">
        <ele>28.98</ele>
        <time>2021-08-07T18:14:54Z</time>
      </trkpt>
      <trkpt lat="50.31422" lon="3.45322">
        <ele>28.98</ele>
        <time>2021-08-07T18:15:04Z</time>
      </trkpt>
      <trkpt lat="50.31415" lon="3.45304">
        <ele>30.42</ele>
        <time>2021-08-07T18:15:07Z</time>
      </trkpt>
      <trkpt lat="50.31397" lon="3.45256">
        <ele>31.86</ele>
        <time>2021-08-07T18:15:15Z</time>
      </trkpt>
      <trkpt lat="50.31394" lon="3.45251">
        <ele>31.86</ele>
        <time>2021-08-07T18:15:16Z</time>
      </trkpt>
      <trkpt lat="50.3139" lon="3.45247">
        <ele>31.86</ele>
        <time>2021-08-07T18:15:17Z</time>
      </trkpt>
      <trkpt lat="50.31386" lon="3.45243">
        <ele>31.86</ele>
        <time>2021-08-07T18:15:18Z</time>
      </trkpt>
      <trkpt lat="50.31382" lon="3.45239">
        <ele>31.86</ele>
        <time>2021-08-07T18:15:19Z</time>
      </trkpt>
      <trkpt lat="50.31341" lon="3.45211">
        <ele>32.82</ele>
        <time>2021-08-07T18:15:29Z</time>
      </trkpt>
      <trkpt lat="50.31283" lon="3.45173">
        <ele>33.78</ele>
        <time>2021-08-07T18:15:42Z</time>
      </trkpt>
      <trkpt lat="50.31265" lon="3.45158">
        <ele>33.78</ele>
        <time>2021-08-07T18:15:46Z</time>
      </trkpt>
      <trkpt lat="50.31261" lon="3.45152">
        <ele>33.78</ele>
        <time>2021-08-07T18:15:47Z</time>
      </trkpt>
      <trkpt lat="50.31257" lon="3.45146">
        <ele>33.78</ele>
        <time>2021-08-07T18:15:48Z</time>
      </trkpt>
      <trkpt lat="50.31223" lon="3.45079">
        <ele>30.9</ele>
        <time>2021-08-07T18:15:57Z</time>
      </trkpt>
      <trkpt lat="50.31195" lon="3.45026">
        <ele>29.46</ele>
        <time>2021-08-07T18:16:04Z</time>
      </trkpt>
      <trkpt lat="50.31157" lon="3.44958">
        <ele>29.46</ele>
        <time>2021-08-07T18:16:14Z</time>
      </trkpt>
      <trkpt lat="50.31115" lon="3.44877">
        <ele>29.46</ele>
        <time>2021-08-07T18:16:26Z</time>
      </trkpt>
      <trkpt lat="50.31107" lon="3.44866">
        <ele>28.98</ele>
        <time>2021-08-07T18:16:28Z</time>
      </trkpt>
      <trkpt lat="50.31102" lon="3.4486">
        <ele>28.98</ele>
        <time>2021-08-07T18:16:29Z</time>
      </trkpt>
      <trkpt lat="50.31098" lon="3.44856">
        <ele>28.98</ele>
        <time>2021-08-07T18:16:30Z</time>
      </trkpt>
      <trkpt lat="50.31093" lon="3.44852">
        <ele>28.98</ele>
        <time>2021-08-07T18:16:31Z</time>
      </trkpt>
      <trkpt lat="50.31088" lon="3.4485">
        <ele>28.98</ele>
        <time>2021-08-07T18:16:32Z</time>
      </trkpt>
      <trkpt lat="50.31083" lon="3.44847">
        <ele>28.98</ele>
        <time>2021-08-07T18:16:33Z</time>
      </trkpt>
      <trkpt lat="50.31078" lon="3.44845">
        <ele>28.98</ele>
        <time>2021-08-07T18:16:34Z</time>
      </trkpt>
      <trkpt lat="50.31067" lon="3.44842">
        <ele>28.98</ele>
        <time>2021-08-07T18:16:36Z</time>
      </trkpt>
      <trkpt lat="50.31062" lon="3.4484">
        <ele>28.98</ele>
        <time>2021-08-07T18:16:37Z</time>
      </trkpt>
      <trkpt lat="50.31013" lon="3.44824">
        <ele>28.98</ele>
        <time>2021-08-07T18:16:47Z</time>
      </trkpt>
      <trkpt lat="50.30958" lon="3.44807">
        <ele>28.98</ele>
        <time>2021-08-07T18:16:58Z</time>
      </trkpt>
      <trkpt lat="50.30919" lon="3.44794">
        <ele>28.98</ele>
        <time>2021-08-07T18:17:06Z</time>
      </trkpt>
      <trkpt lat="50.30876" lon="3.44781">
        <ele>29.94</ele>
        <time>2021-08-07T18:17:15Z</time>
      </trkpt>
      <trkpt lat="50.3084" lon="3.44769">
        <ele>30.9</ele>
        <time>2021-08-07T18:17:24Z</time>
      </trkpt>
      <trkpt lat="50.30799" lon="3.44757">
        <ele>32.34</ele>
        <time>2021-08-07T18:17:35Z</time>
      </trkpt>
      <trkpt lat="50.30756" lon="3.44743">
        <ele>33.78</ele>
        <time>2021-08-07T18:17:46Z</time>
      </trkpt>
      <trkpt lat="50.30715" lon="3.4473">
        <ele>35.23</ele>
        <time>2021-08-07T18:17:57Z</time>
      </trkpt>
      <trkpt lat="50.30702" lon="3.44734">
        <ele>35.23</ele>
        <time>2021-08-07T18:18:01Z</time>
      </trkpt>
      <trkpt lat="50.30701" lon="3.44739">
        <ele>35.23</ele>
        <time>2021-08-07T18:18:02Z</time>
      </trkpt>
      <trkpt lat="50.307" lon="3.44744">
        <ele>35.23</ele>
        <time>2021-08-07T18:18:03Z</time>
      </trkpt>
      <trkpt lat="50.30695" lon="3.44794">
        <ele>35.71</ele>
        <time>2021-08-07T18:18:11Z</time>
      </trkpt>
      <trkpt lat="50.30692" lon="3.44814">
        <ele>35.71</ele>
        <time>2021-08-07T18:18:14Z</time>
      </trkpt>
      <trkpt lat="50.30691" lon="3.44821">
        <ele>35.71</ele>
        <time>2021-08-07T18:18:15Z</time>
      </trkpt>
      <trkpt lat="50.30687" lon="3.4486">
        <ele>35.71</ele>
        <time>2021-08-07T18:18:20Z</time>
      </trkpt>
      <trkpt lat="50.30686" lon="3.44868">
        <ele>35.71</ele>
        <time>2021-08-07T18:18:21Z</time>
      </trkpt>
      <trkpt lat="50.30678" lon="3.44905">
        <ele>34.26</ele>
        <time>2021-08-07T18:18:27Z</time>
      </trkpt>
      <trkpt lat="50.30678" lon="3.44907">
        <ele>34.26</ele>
        <time>2021-08-07T18:18:28Z</time>
      </trkpt>
      <trkpt lat="50.30679" lon="3.44904">
        <ele>34.26</ele>
        <time>2021-08-07T18:18:32Z</time>
      </trkpt>
      <trkpt lat="50.3068" lon="3.44903">
        <ele>34.26</ele>
        <time>2021-08-07T18:18:33Z</time>
      </trkpt>
      <trkpt lat="50.3068" lon="3.44901">
        <ele>34.26</ele>
        <time>2021-08-07T18:18:34Z</time>
      </trkpt>
      <trkpt lat="50.3068" lon="3.44898">
        <ele>34.26</ele>
        <time>2021-08-07T18:18:35Z</time>
      </trkpt>
      <trkpt lat="50.30679" lon="3.44896">
        <ele>34.26</ele>
        <time>2021-08-07T18:18:36Z</time>
      </trkpt>
      <trkpt lat="50.30679" lon="3.44895">
        <ele>34.26</ele>
        <time>2021-08-07T18:18:37Z</time>
      </trkpt>
      <trkpt lat="50.30677" lon="3.44895">
        <ele>34.26</ele>
        <time>2021-08-07T18:18:38Z</time>
      </trkpt>
      <trkpt lat="50.3067" lon="3.44891">
        <ele>34.26</ele>
        <time>2021-08-07T18:18:42Z</time>
      </trkpt>
      <trkpt lat="50.30645" lon="3.44878">
        <ele>35.71</ele>
        <time>2021-08-07T18:18:50Z</time>
      </trkpt>
      <trkpt lat="50.30615" lon="3.44862">
        <ele>36.19</ele>
        <time>2021-08-07T18:18:59Z</time>
      </trkpt>
      <trkpt lat="50.30603" lon="3.44857">
        <ele>36.67</ele>
        <time>2021-08-07T18:19:02Z</time>
      </trkpt>
      <trkpt lat="50.30599" lon="3.44855">
        <ele>37.15</ele>
        <time>2021-08-07T18:19:03Z</time>
      </trkpt>
      <trkpt lat="50.30574" lon="3.4484">
        <ele>38.11</ele>
        <time>2021-08-07T18:19:11Z</time>
      </trkpt>
      <trkpt lat="50.30545" lon="3.44818">
        <ele>38.59</ele>
        <time>2021-08-07T18:19:20Z</time>
      </trkpt>
      <trkpt lat="50.30522" lon="3.44808">
        <ele>39.55</ele>
        <time>2021-08-07T18:19:27Z</time>
      </trkpt>
      <trkpt lat="50.30519" lon="3.4481">
        <ele>39.55</ele>
        <time>2021-08-07T18:19:28Z</time>
      </trkpt>
      <trkpt lat="50.30518" lon="3.44815">
        <ele>39.55</ele>
        <time>2021-08-07T18:19:29Z</time>
      </trkpt>
      <trkpt lat="50.30515" lon="3.44833">
        <ele>39.55</ele>
        <time>2021-08-07T18:19:32Z</time>
      </trkpt>
      <trkpt lat="50.30511" lon="3.44867">
        <ele>39.55</ele>
        <time>2021-08-07T18:19:37Z</time>
      </trkpt>
      <trkpt lat="50.3051" lon="3.44873">
        <ele>39.55</ele>
        <time>2021-08-07T18:19:38Z</time>
      </trkpt>
      <trkpt lat="50.30508" lon="3.4488">
        <ele>39.55</ele>
        <time>2021-08-07T18:19:39Z</time>
      </trkpt>
      <trkpt lat="50.30503" lon="3.44892">
        <ele>38.11</ele>
        <time>2021-08-07T18:19:41Z</time>
      </trkpt>
      <trkpt lat="50.305" lon="3.44897">
        <ele>38.11</ele>
        <time>2021-08-07T18:19:42Z</time>
      </trkpt>
      <trkpt lat="50.3048" lon="3.44936">
        <ele>35.23</ele>
        <time>2021-08-07T18:19:49Z</time>
      </trkpt>
      <trkpt lat="50.30473" lon="3.44944">
        <ele>34.26</ele>
        <time>2021-08-07T18:19:51Z</time>
      </trkpt>
      <trkpt lat="50.3047" lon="3.44946">
        <ele>33.78</ele>
        <time>2021-08-07T18:19:52Z</time>
      </trkpt>
      <trkpt lat="50.30465" lon="3.44948">
        <ele>33.78</ele>
        <time>2021-08-07T18:19:53Z</time>
      </trkpt>
      <trkpt lat="50.30461" lon="3.44951">
        <ele>33.78</ele>
        <time>2021-08-07T18:19:54Z</time>
      </trkpt>
      <trkpt lat="50.30457" lon="3.44955">
        <ele>33.78</ele>
        <time>2021-08-07T18:19:55Z</time>
      </trkpt>
      <trkpt lat="50.30451" lon="3.4497">
        <ele>33.78</ele>
        <time>2021-08-07T18:19:59Z</time>
      </trkpt>
      <trkpt lat="50.30452" lon="3.44975">
        <ele>33.3</ele>
        <time>2021-08-07T18:20:00Z</time>
      </trkpt>
      <trkpt lat="50.30455" lon="3.44981">
        <ele>33.3</ele>
        <time>2021-08-07T18:20:01Z</time>
      </trkpt>
      <trkpt lat="50.30457" lon="3.44987">
        <ele>32.82</ele>
        <time>2021-08-07T18:20:02Z</time>
      </trkpt>
      <trkpt lat="50.30457" lon="3.44994">
        <ele>32.82</ele>
        <time>2021-08-07T18:20:03Z</time>
      </trkpt>
      <trkpt lat="50.30457" lon="3.45002">
        <ele>32.82</ele>
        <time>2021-08-07T18:20:04Z</time>
      </trkpt>
      <trkpt lat="50.30456" lon="3.45009">
        <ele>32.82</ele>
        <time>2021-08-07T18:20:05Z</time>
      </trkpt>
      <trkpt lat="50.30454" lon="3.45035">
        <ele>31.86</ele>
        <time>2021-08-07T18:20:08Z</time>
      </trkpt>
      <trkpt lat="50.30447" lon="3.45127">
        <ele>31.38</ele>
        <time>2021-08-07T18:20:18Z</time>
      </trkpt>
      <trkpt lat="50.30441" lon="3.45211">
        <ele>30.42</ele>
        <time>2021-08-07T18:20:27Z</time>
      </trkpt>
      <trkpt lat="50.30441" lon="3.45242">
        <ele>29.94</ele>
        <time>2021-08-07T18:20:30Z</time>
      </trkpt>
      <trkpt lat="50.30442" lon="3.45252">
        <ele>29.94</ele>
        <time>2021-08-07T18:20:31Z</time>
      </trkpt>
      <trkpt lat="50.30444" lon="3.45262">
        <ele>29.94</ele>
        <time>2021-08-07T18:20:32Z</time>
      </trkpt>
      <trkpt lat="50.30447" lon="3.45271">
        <ele>28.98</ele>
        <time>2021-08-07T18:20:33Z</time>
      </trkpt>
      <trkpt lat="50.30449" lon="3.45279">
        <ele>28.98</ele>
        <time>2021-08-07T18:20:34Z</time>
      </trkpt>
      <trkpt lat="50.30455" lon="3.45304">
        <ele>28.98</ele>
        <time>2021-08-07T18:20:37Z</time>
      </trkpt>
      <trkpt lat="50.30455" lon="3.45312">
        <ele>28.98</ele>
        <time>2021-08-07T18:20:38Z</time>
      </trkpt>
      <trkpt lat="50.30454" lon="3.4532">
        <ele>28.98</ele>
        <time>2021-08-07T18:20:39Z</time>
      </trkpt>
      <trkpt lat="50.30453" lon="3.45328">
        <ele>28.98</ele>
        <time>2021-08-07T18:20:40Z</time>
      </trkpt>
      <trkpt lat="50.30452" lon="3.45335">
        <ele>28.98</ele>
        <time>2021-08-07T18:20:41Z</time>
      </trkpt>
      <trkpt lat="50.3045" lon="3.4535">
        <ele>28.98</ele>
        <time>2021-08-07T18:20:43Z</time>
      </trkpt>
      <trkpt lat="50.30447" lon="3.45357">
        <ele>28.98</ele>
        <time>2021-08-07T18:20:44Z</time>
      </trkpt>
      <trkpt lat="50.30444" lon="3.45361">
        <ele>28.98</ele>
        <time>2021-08-07T18:20:45Z</time>
      </trkpt>
      <trkpt lat="50.30439" lon="3.45363">
        <ele>28.98</ele>
        <time>2021-08-07T18:20:46Z</time>
      </trkpt>
      <trkpt lat="50.30435" lon="3.45362">
        <ele>28.98</ele>
        <time>2021-08-07T18:20:47Z</time>
      </trkpt>
      <trkpt lat="50.30431" lon="3.4536">
        <ele>28.98</ele>
        <time>2021-08-07T18:20:48Z</time>
      </trkpt>
      <trkpt lat="50.30426" lon="3.45358">
        <ele>28.98</ele>
        <time>2021-08-07T18:20:49Z</time>
      </trkpt>
      <trkpt lat="50.30384" lon="3.4534">
        <ele>28.98</ele>
        <time>2021-08-07T18:20:57Z</time>
      </trkpt>
      <trkpt lat="50.30342" lon="3.45323">
        <ele>28.98</ele>
        <time>2021-08-07T18:21:05Z</time>
      </trkpt>
      <trkpt lat="50.30313" lon="3.45308">
        <ele>28.98</ele>
        <time>2021-08-07T18:21:11Z</time>
      </trkpt>
      <trkpt lat="50.30309" lon="3.45303">
        <ele>28.98</ele>
        <time>2021-08-07T18:21:12Z</time>
      </trkpt>
      <trkpt lat="50.30304" lon="3.45298">
        <ele>28.98</ele>
        <time>2021-08-07T18:21:13Z</time>
      </trkpt>
      <trkpt lat="50.30268" lon="3.45254">
        <ele>28.98</ele>
        <time>2021-08-07T18:21:22Z</time>
      </trkpt>
      <trkpt lat="50.30227" lon="3.45228">
        <ele>28.98</ele>
        <time>2021-08-07T18:21:31Z</time>
      </trkpt>
      <trkpt lat="50.30171" lon="3.45197">
        <ele>28.98</ele>
        <time>2021-08-07T18:21:43Z</time>
      </trkpt>
      <trkpt lat="50.30114" lon="3.45171">
        <ele>28.98</ele>
        <time>2021-08-07T18:21:55Z</time>
      </trkpt>
      <trkpt lat="50.3005" lon="3.45157">
        <ele>28.98</ele>
        <time>2021-08-07T18:22:08Z</time>
      </trkpt>
      <trkpt lat="50.30003" lon="3.45152">
        <ele>30.9</ele>
        <time>2021-08-07T18:22:18Z</time>
      </trkpt>
      <trkpt lat="50.2998" lon="3.45157">
        <ele>31.86</ele>
        <time>2021-08-07T18:22:25Z</time>
      </trkpt>
      <trkpt lat="50.29976" lon="3.4516">
        <ele>31.86</ele>
        <time>2021-08-07T18:22:26Z</time>
      </trkpt>
      <trkpt lat="50.29973" lon="3.45164">
        <ele>31.86</ele>
        <time>2021-08-07T18:22:27Z</time>
      </trkpt>
      <trkpt lat="50.29971" lon="3.4517">
        <ele>31.86</ele>
        <time>2021-08-07T18:22:28Z</time>
      </trkpt>
      <trkpt lat="50.2997" lon="3.45177">
        <ele>31.86</ele>
        <time>2021-08-07T18:22:29Z</time>
      </trkpt>
      <trkpt lat="50.2997" lon="3.45185">
        <ele>31.86</ele>
        <time>2021-08-07T18:22:30Z</time>
      </trkpt>
      <trkpt lat="50.2997" lon="3.45193">
        <ele>31.86</ele>
        <time>2021-08-07T18:22:31Z</time>
      </trkpt>
      <trkpt lat="50.2997" lon="3.45202">
        <ele>30.42</ele>
        <time>2021-08-07T18:22:32Z</time>
      </trkpt>
      <trkpt lat="50.2997" lon="3.4521">
        <ele>30.42</ele>
        <time>2021-08-07T18:22:33Z</time>
      </trkpt>
      <trkpt lat="50.29968" lon="3.45219">
        <ele>29.94</ele>
        <time>2021-08-07T18:22:34Z</time>
      </trkpt>
      <trkpt lat="50.29965" lon="3.45227">
        <ele>29.94</ele>
        <time>2021-08-07T18:22:35Z</time>
      </trkpt>
      <trkpt lat="50.29962" lon="3.45234">
        <ele>29.94</ele>
        <time>2021-08-07T18:22:36Z</time>
      </trkpt>
      <trkpt lat="50.29957" lon="3.4524">
        <ele>29.94</ele>
        <time>2021-08-07T18:22:37Z</time>
      </trkpt>
      <trkpt lat="50.29952" lon="3.45244">
        <ele>29.94</ele>
        <time>2021-08-07T18:22:38Z</time>
      </trkpt>
      <trkpt lat="50.29947" lon="3.45247">
        <ele>29.94</ele>
        <time>2021-08-07T18:22:39Z</time>
      </trkpt>
      <trkpt lat="50.29942" lon="3.45248">
        <ele>29.94</ele>
        <time>2021-08-07T18:22:40Z</time>
      </trkpt>
      <trkpt lat="50.29936" lon="3.45249">
        <ele>29.94</ele>
        <time>2021-08-07T18:22:41Z</time>
      </trkpt>
      <trkpt lat="50.29882" lon="3.45252">
        <ele>29.94</ele>
        <time>2021-08-07T18:22:51Z</time>
      </trkpt>
      <trkpt lat="50.2983" lon="3.45247">
        <ele>29.94</ele>
        <time>2021-08-07T18:23:01Z</time>
      </trkpt>
      <trkpt lat="50.29789" lon="3.45238">
        <ele>29.94</ele>
        <time>2021-08-07T18:23:09Z</time>
      </trkpt>
      <trkpt lat="50.29785" lon="3.45236">
        <ele>29.46</ele>
        <time>2021-08-07T18:23:10Z</time>
      </trkpt>
      <trkpt lat="50.29759" lon="3.4523">
        <ele>29.46</ele>
        <time>2021-08-07T18:23:15Z</time>
      </trkpt>
      <trkpt lat="50.29754" lon="3.45229">
        <ele>29.46</ele>
        <time>2021-08-07T18:23:16Z</time>
      </trkpt>
      <trkpt lat="50.29705" lon="3.45223">
        <ele>29.46</ele>
        <time>2021-08-07T18:23:25Z</time>
      </trkpt>
      <trkpt lat="50.29641" lon="3.4523">
        <ele>29.46</ele>
        <time>2021-08-07T18:23:37Z</time>
      </trkpt>
      <trkpt lat="50.29582" lon="3.45239">
        <ele>29.46</ele>
        <time>2021-08-07T18:23:48Z</time>
      </trkpt>
      <trkpt lat="50.29524" lon="3.45242">
        <ele>29.46</ele>
        <time>2021-08-07T18:23:59Z</time>
      </trkpt>
      <trkpt lat="50.29478" lon="3.45245">
        <ele>30.9</ele>
        <time>2021-08-07T18:24:08Z</time>
      </trkpt>
      <trkpt lat="50.29432" lon="3.45254">
        <ele>30.9</ele>
        <time>2021-08-07T18:24:17Z</time>
      </trkpt>
      <trkpt lat="50.29378" lon="3.45264">
        <ele>31.38</ele>
        <time>2021-08-07T18:24:28Z</time>
      </trkpt>
      <trkpt lat="50.29326" lon="3.45276">
        <ele>32.34</ele>
        <time>2021-08-07T18:24:38Z</time>
      </trkpt>
      <trkpt lat="50.29256" lon="3.45298">
        <ele>32.34</ele>
        <time>2021-08-07T18:24:51Z</time>
      </trkpt>
      <trkpt lat="50.29203" lon="3.45316">
        <ele>32.34</ele>
        <time>2021-08-07T18:25:01Z</time>
      </trkpt>
      <trkpt lat="50.29156" lon="3.45332">
        <ele>32.34</ele>
        <time>2021-08-07T18:25:10Z</time>
      </trkpt>
      <trkpt lat="50.29089" lon="3.45356">
        <ele>32.34</ele>
        <time>2021-08-07T18:25:23Z</time>
      </trkpt>
      <trkpt lat="50.29051" lon="3.45381">
        <ele>32.34</ele>
        <time>2021-08-07T18:25:31Z</time>
      </trkpt>
      <trkpt lat="50.29013" lon="3.45408">
        <ele>33.3</ele>
        <time>2021-08-07T18:25:39Z</time>
      </trkpt>
      <trkpt lat="50.28964" lon="3.45448">
        <ele>32.82</ele>
        <time>2021-08-07T18:25:50Z</time>
      </trkpt>
      <trkpt lat="50.28932" lon="3.45476">
        <ele>32.82</ele>
        <time>2021-08-07T18:25:58Z</time>
      </trkpt>
      <trkpt lat="50.28903" lon="3.45498">
        <ele>32.82</ele>
        <time>2021-08-07T18:26:05Z</time>
      </trkpt>
      <trkpt lat="50.28864" lon="3.45518">
        <ele>33.3</ele>
        <time>2021-08-07T18:26:14Z</time>
      </trkpt>
      <trkpt lat="50.28851" lon="3.45528">
        <ele>33.78</ele>
        <time>2021-08-07T18:26:18Z</time>
      </trkpt>
      <trkpt lat="50.2885" lon="3.45533">
        <ele>34.26</ele>
        <time>2021-08-07T18:26:19Z</time>
      </trkpt>
      <trkpt lat="50.28851" lon="3.45535">
        <ele>34.26</ele>
        <time>2021-08-07T18:26:20Z</time>
      </trkpt>
      <trkpt lat="50.28853" lon="3.45538">
        <ele>34.26</ele>
        <time>2021-08-07T18:26:21Z</time>
      </trkpt>
      <trkpt lat="50.28855" lon="3.45539">
        <ele>34.74</ele>
        <time>2021-08-07T18:26:22Z</time>
      </trkpt>
      <trkpt lat="50.28858" lon="3.45539">
        <ele>34.74</ele>
        <time>2021-08-07T18:26:23Z</time>
      </trkpt>
      <trkpt lat="50.28861" lon="3.45539">
        <ele>34.74</ele>
        <time>2021-08-07T18:26:24Z</time>
      </trkpt>
      <trkpt lat="50.2888" lon="3.45542">
        <ele>35.23</ele>
        <time>2021-08-07T18:26:30Z</time>
      </trkpt>
      <trkpt lat="50.28914" lon="3.45548">
        <ele>36.19</ele>
        <time>2021-08-07T18:26:40Z</time>
      </trkpt>
      <trkpt lat="50.28948" lon="3.45563">
        <ele>37.63</ele>
        <time>2021-08-07T18:26:50Z</time>
      </trkpt>
      <trkpt lat="50.28963" lon="3.45574">
        <ele>38.11</ele>
        <time>2021-08-07T18:26:55Z</time>
      </trkpt>
      <trkpt lat="50.28985" lon="3.45594">
        <ele>39.55</ele>
        <time>2021-08-07T18:27:03Z</time>
      </trkpt>
      <trkpt lat="50.29003" lon="3.45612">
        <ele>40.99</ele>
        <time>2021-08-07T18:27:10Z</time>
      </trkpt>
      <trkpt lat="50.29028" lon="3.45633">
        <ele>41.95</ele>
        <time>2021-08-07T18:27:19Z</time>
      </trkpt>
      <trkpt lat="50.29047" lon="3.45651">
        <ele>43.4</ele>
        <time>2021-08-07T18:27:26Z</time>
      </trkpt>
      <trkpt lat="50.2907" lon="3.45672">
        <ele>44.36</ele>
        <time>2021-08-07T18:27:34Z</time>
      </trkpt>
      <trkpt lat="50.291" lon="3.457">
        <ele>45.8</ele>
        <time>2021-08-07T18:27:44Z</time>
      </trkpt>
      <trkpt lat="50.29128" lon="3.45725">
        <ele>46.28</ele>
        <time>2021-08-07T18:27:53Z</time>
      </trkpt>
      <trkpt lat="50.29157" lon="3.45751">
        <ele>47.72</ele>
        <time>2021-08-07T18:28:02Z</time>
      </trkpt>
      <trkpt lat="50.29182" lon="3.45775">
        <ele>47.72</ele>
        <time>2021-08-07T18:28:10Z</time>
      </trkpt>
      <trkpt lat="50.29201" lon="3.4579">
        <ele>48.68</ele>
        <time>2021-08-07T18:28:16Z</time>
      </trkpt>
      <trkpt lat="50.29236" lon="3.4582">
        <ele>48.68</ele>
        <time>2021-08-07T18:28:27Z</time>
      </trkpt>
      <trkpt lat="50.29265" lon="3.4585">
        <ele>49.16</ele>
        <time>2021-08-07T18:28:35Z</time>
      </trkpt>
      <trkpt lat="50.29268" lon="3.45854">
        <ele>49.16</ele>
        <time>2021-08-07T18:28:36Z</time>
      </trkpt>
      <trkpt lat="50.29272" lon="3.45857">
        <ele>49.16</ele>
        <time>2021-08-07T18:28:37Z</time>
      </trkpt>
      <trkpt lat="50.29275" lon="3.4586">
        <ele>49.16</ele>
        <time>2021-08-07T18:28:38Z</time>
      </trkpt>
      <trkpt lat="50.29278" lon="3.45864">
        <ele>49.16</ele>
        <time>2021-08-07T18:28:39Z</time>
      </trkpt>
      <trkpt lat="50.29281" lon="3.45869">
        <ele>49.16</ele>
        <time>2021-08-07T18:28:40Z</time>
      </trkpt>
      <trkpt lat="50.29284" lon="3.45873">
        <ele>49.16</ele>
        <time>2021-08-07T18:28:41Z</time>
      </trkpt>
      <trkpt lat="50.29291" lon="3.45882">
        <ele>49.16</ele>
        <time>2021-08-07T18:28:43Z</time>
      </trkpt>
      <trkpt lat="50.29319" lon="3.45937">
        <ele>49.16</ele>
        <time>2021-08-07T18:28:53Z</time>
      </trkpt>
      <trkpt lat="50.29322" lon="3.45943">
        <ele>49.16</ele>
        <time>2021-08-07T18:28:54Z</time>
      </trkpt>
      <trkpt lat="50.29347" lon="3.45995">
        <ele>49.65</ele>
        <time>2021-08-07T18:29:03Z</time>
      </trkpt>
      <trkpt lat="50.29356" lon="3.46012">
        <ele>49.65</ele>
        <time>2021-08-07T18:29:06Z</time>
      </trkpt>
      <trkpt lat="50.29359" lon="3.46017">
        <ele>50.13</ele>
        <time>2021-08-07T18:29:07Z</time>
      </trkpt>
      <trkpt lat="50.29361" lon="3.46023">
        <ele>50.13</ele>
        <time>2021-08-07T18:29:08Z</time>
      </trkpt>
      <trkpt lat="50.2937" lon="3.46039">
        <ele>50.13</ele>
        <time>2021-08-07T18:29:11Z</time>
      </trkpt>
      <trkpt lat="50.29393" lon="3.46065">
        <ele>50.13</ele>
        <time>2021-08-07T18:29:17Z</time>
      </trkpt>
      <trkpt lat="50.29423" lon="3.46094">
        <ele>50.61</ele>
        <time>2021-08-07T18:29:25Z</time>
      </trkpt>
      <trkpt lat="50.29427" lon="3.46098">
        <ele>50.61</ele>
        <time>2021-08-07T18:29:26Z</time>
      </trkpt>
      <trkpt lat="50.29457" lon="3.4613">
        <ele>51.09</ele>
        <time>2021-08-07T18:29:35Z</time>
      </trkpt>
      <trkpt lat="50.29486" lon="3.46161">
        <ele>51.57</ele>
        <time>2021-08-07T18:29:43Z</time>
      </trkpt>
      <trkpt lat="50.29492" lon="3.46169">
        <ele>52.05</ele>
        <time>2021-08-07T18:29:45Z</time>
      </trkpt>
      <trkpt lat="50.29493" lon="3.46173">
        <ele>52.05</ele>
        <time>2021-08-07T18:29:46Z</time>
      </trkpt>
      <trkpt lat="50.29492" lon="3.46176">
        <ele>52.05</ele>
        <time>2021-08-07T18:29:47Z</time>
      </trkpt>
      <trkpt lat="50.29491" lon="3.46179">
        <ele>52.05</ele>
        <time>2021-08-07T18:29:48Z</time>
      </trkpt>
      <trkpt lat="50.2949" lon="3.46182">
        <ele>52.05</ele>
        <time>2021-08-07T18:29:49Z</time>
      </trkpt>
      <trkpt lat="50.29488" lon="3.46184">
        <ele>52.05</ele>
        <time>2021-08-07T18:29:50Z</time>
      </trkpt>
      <trkpt lat="50.29478" lon="3.46203">
        <ele>53.01</ele>
        <time>2021-08-07T18:29:56Z</time>
      </trkpt>
      <trkpt lat="50.29457" lon="3.46243">
        <ele>53.97</ele>
        <time>2021-08-07T18:30:05Z</time>
      </trkpt>
      <trkpt lat="50.29441" lon="3.46275">
        <ele>54.45</ele>
        <time>2021-08-07T18:30:12Z</time>
      </trkpt>
      <trkpt lat="50.29415" lon="3.46328">
        <ele>54.45</ele>
        <time>2021-08-07T18:30:23Z</time>
      </trkpt>
      <trkpt lat="50.29396" lon="3.46368">
        <ele>55.41</ele>
        <time>2021-08-07T18:30:31Z</time>
      </trkpt>
      <trkpt lat="50.29363" lon="3.46431">
        <ele>56.37</ele>
        <time>2021-08-07T18:30:44Z</time>
      </trkpt>
      <trkpt lat="50.29345" lon="3.46466">
        <ele>56.37</ele>
        <time>2021-08-07T18:30:51Z</time>
      </trkpt>
      <trkpt lat="50.29319" lon="3.46517">
        <ele>56.86</ele>
        <time>2021-08-07T18:31:01Z</time>
      </trkpt>
      <trkpt lat="50.29292" lon="3.46568">
        <ele>57.34</ele>
        <time>2021-08-07T18:31:11Z</time>
      </trkpt>
      <trkpt lat="50.2927" lon="3.46612">
        <ele>57.82</ele>
        <time>2021-08-07T18:31:20Z</time>
      </trkpt>
      <trkpt lat="50.29243" lon="3.46664">
        <ele>58.78</ele>
        <time>2021-08-07T18:31:30Z</time>
      </trkpt>
      <trkpt lat="50.29212" lon="3.46725">
        <ele>59.74</ele>
        <time>2021-08-07T18:31:42Z</time>
      </trkpt>
      <trkpt lat="50.29183" lon="3.46783">
        <ele>60.7</ele>
        <time>2021-08-07T18:31:54Z</time>
      </trkpt>
      <trkpt lat="50.29161" lon="3.46827">
        <ele>62.14</ele>
        <time>2021-08-07T18:32:04Z</time>
      </trkpt>
      <trkpt lat="50.2914" lon="3.46867">
        <ele>62.14</ele>
        <time>2021-08-07T18:32:13Z</time>
      </trkpt>
      <trkpt lat="50.29108" lon="3.46932">
        <ele>64.55</ele>
        <time>2021-08-07T18:32:27Z</time>
      </trkpt>
      <trkpt lat="50.29084" lon="3.46978">
        <ele>65.03</ele>
        <time>2021-08-07T18:32:37Z</time>
      </trkpt>
      <trkpt lat="50.29061" lon="3.47026">
        <ele>65.51</ele>
        <time>2021-08-07T18:32:47Z</time>
      </trkpt>
      <trkpt lat="50.29039" lon="3.47068">
        <ele>65.99</ele>
        <time>2021-08-07T18:32:56Z</time>
      </trkpt>
      <trkpt lat="50.29031" lon="3.47083">
        <ele>65.99</ele>
        <time>2021-08-07T18:32:59Z</time>
      </trkpt>
      <trkpt lat="50.29025" lon="3.47092">
        <ele>65.99</ele>
        <time>2021-08-07T18:33:01Z</time>
      </trkpt>
      <trkpt lat="50.28993" lon="3.47157">
        <ele>65.99</ele>
        <time>2021-08-07T18:33:13Z</time>
      </trkpt>
      <trkpt lat="50.2897" lon="3.47203">
        <ele>66.95</ele>
        <time>2021-08-07T18:33:22Z</time>
      </trkpt>
      <trkpt lat="50.28943" lon="3.47255">
        <ele>67.43</ele>
        <time>2021-08-07T18:33:32Z</time>
      </trkpt>
      <trkpt lat="50.28927" lon="3.47286">
        <ele>68.39</ele>
        <time>2021-08-07T18:33:38Z</time>
      </trkpt>
      <trkpt lat="50.28924" lon="3.47291">
        <ele>68.39</ele>
        <time>2021-08-07T18:33:39Z</time>
      </trkpt>
      <trkpt lat="50.28896" lon="3.47349">
        <ele>68.39</ele>
        <time>2021-08-07T18:33:50Z</time>
      </trkpt>
      <trkpt lat="50.28865" lon="3.47409">
        <ele>69.83</ele>
        <time>2021-08-07T18:34:02Z</time>
      </trkpt>
      <trkpt lat="50.28851" lon="3.47438">
        <ele>70.31</ele>
        <time>2021-08-07T18:34:08Z</time>
      </trkpt>
      <trkpt lat="50.28848" lon="3.47443">
        <ele>70.31</ele>
        <time>2021-08-07T18:34:09Z</time>
      </trkpt>
      <trkpt lat="50.28825" lon="3.47488">
        <ele>71.27</ele>
        <time>2021-08-07T18:34:18Z</time>
      </trkpt>
      <trkpt lat="50.28797" lon="3.47543">
        <ele>72.24</ele>
        <time>2021-08-07T18:34:29Z</time>
      </trkpt>
      <trkpt lat="50.28771" lon="3.47593">
        <ele>72.24</ele>
        <time>2021-08-07T18:34:39Z</time>
      </trkpt>
      <trkpt lat="50.28769" lon="3.47598">
        <ele>72.72</ele>
        <time>2021-08-07T18:34:40Z</time>
      </trkpt>
      <trkpt lat="50.28753" lon="3.47628">
        <ele>72.72</ele>
        <time>2021-08-07T18:34:46Z</time>
      </trkpt>
      <trkpt lat="50.28752" lon="3.47634">
        <ele>72.72</ele>
        <time>2021-08-07T18:34:47Z</time>
      </trkpt>
      <trkpt lat="50.28752" lon="3.4764">
        <ele>72.72</ele>
        <time>2021-08-07T18:34:48Z</time>
      </trkpt>
      <trkpt lat="50.28754" lon="3.47645">
        <ele>72.72</ele>
        <time>2021-08-07T18:34:49Z</time>
      </trkpt>
      <trkpt lat="50.28757" lon="3.47648">
        <ele>72.72</ele>
        <time>2021-08-07T18:34:50Z</time>
      </trkpt>
      <trkpt lat="50.2876" lon="3.47652">
        <ele>72.72</ele>
        <time>2021-08-07T18:34:51Z</time>
      </trkpt>
      <trkpt lat="50.28775" lon="3.47669">
        <ele>72.72</ele>
        <time>2021-08-07T18:34:55Z</time>
      </trkpt>
      <trkpt lat="50.28778" lon="3.47674">
        <ele>72.72</ele>
        <time>2021-08-07T18:34:56Z</time>
      </trkpt>
      <trkpt lat="50.28825" lon="3.47732">
        <ele>72.72</ele>
        <time>2021-08-07T18:35:07Z</time>
      </trkpt>
      <trkpt lat="50.28868" lon="3.47787">
        <ele>71.27</ele>
        <time>2021-08-07T18:35:17Z</time>
      </trkpt>
      <trkpt lat="50.28915" lon="3.47848">
        <ele>71.27</ele>
        <time>2021-08-07T18:35:28Z</time>
      </trkpt>
      <trkpt lat="50.28932" lon="3.47867">
        <ele>70.79</ele>
        <time>2021-08-07T18:35:32Z</time>
      </trkpt>
      <trkpt lat="50.28937" lon="3.47871">
        <ele>70.79</ele>
        <time>2021-08-07T18:35:33Z</time>
      </trkpt>
      <trkpt lat="50.28942" lon="3.47873">
        <ele>70.79</ele>
        <time>2021-08-07T18:35:34Z</time>
      </trkpt>
      <trkpt lat="50.28948" lon="3.47874">
        <ele>70.79</ele>
        <time>2021-08-07T18:35:35Z</time>
      </trkpt>
      <trkpt lat="50.28953" lon="3.47875">
        <ele>70.79</ele>
        <time>2021-08-07T18:35:36Z</time>
      </trkpt>
      <trkpt lat="50.28959" lon="3.47875">
        <ele>70.31</ele>
        <time>2021-08-07T18:35:37Z</time>
      </trkpt>
      <trkpt lat="50.29017" lon="3.47881">
        <ele>67.91</ele>
        <time>2021-08-07T18:35:46Z</time>
      </trkpt>
      <trkpt lat="50.29083" lon="3.47888">
        <ele>65.03</ele>
        <time>2021-08-07T18:35:55Z</time>
      </trkpt>
      <trkpt lat="50.29113" lon="3.47891">
        <ele>63.58</ele>
        <time>2021-08-07T18:36:00Z</time>
      </trkpt>
      <trkpt lat="50.29117" lon="3.47891">
        <ele>63.58</ele>
        <time>2021-08-07T18:36:01Z</time>
      </trkpt>
      <trkpt lat="50.29132" lon="3.47887">
        <ele>63.58</ele>
        <time>2021-08-07T18:36:05Z</time>
      </trkpt>
      <trkpt lat="50.29159" lon="3.47895">
        <ele>63.58</ele>
        <time>2021-08-07T18:36:13Z</time>
      </trkpt>
      <trkpt lat="50.29164" lon="3.47898">
        <ele>64.07</ele>
        <time>2021-08-07T18:36:16Z</time>
      </trkpt>
      <trkpt lat="50.29166" lon="3.479">
        <ele>64.07</ele>
        <time>2021-08-07T18:36:17Z</time>
      </trkpt>
      <trkpt lat="50.29169" lon="3.479">
        <ele>64.07</ele>
        <time>2021-08-07T18:36:18Z</time>
      </trkpt>
      <trkpt lat="50.29171" lon="3.479">
        <ele>64.07</ele>
        <time>2021-08-07T18:36:19Z</time>
      </trkpt>
      <trkpt lat="50.29174" lon="3.479">
        <ele>64.07</ele>
        <time>2021-08-07T18:36:20Z</time>
      </trkpt>
      <trkpt lat="50.29177" lon="3.479">
        <ele>64.07</ele>
        <time>2021-08-07T18:36:21Z</time>
      </trkpt>
      <trkpt lat="50.29205" lon="3.47902">
        <ele>64.07</ele>
        <time>2021-08-07T18:36:29Z</time>
      </trkpt>
      <trkpt lat="50.29247" lon="3.47906">
        <ele>65.99</ele>
        <time>2021-08-07T18:36:39Z</time>
      </trkpt>
      <trkpt lat="50.29277" lon="3.47913">
        <ele>65.99</ele>
        <time>2021-08-07T18:36:47Z</time>
      </trkpt>
      <trkpt lat="50.29304" lon="3.47913">
        <ele>65.99</ele>
        <time>2021-08-07T18:36:54Z</time>
      </trkpt>
      <trkpt lat="50.29336" lon="3.47917">
        <ele>65.99</ele>
        <time>2021-08-07T18:37:01Z</time>
      </trkpt>
      <trkpt lat="50.29381" lon="3.47921">
        <ele>65.99</ele>
        <time>2021-08-07T18:37:10Z</time>
      </trkpt>
      <trkpt lat="50.29439" lon="3.47928">
        <ele>65.99</ele>
        <time>2021-08-07T18:37:21Z</time>
      </trkpt>
      <trkpt lat="50.29455" lon="3.4793">
        <ele>64.55</ele>
        <time>2021-08-07T18:37:24Z</time>
      </trkpt>
      <trkpt lat="50.29517" lon="3.47936">
        <ele>64.07</ele>
        <time>2021-08-07T18:37:35Z</time>
      </trkpt>
      <trkpt lat="50.29568" lon="3.47942">
        <ele>62.62</ele>
        <time>2021-08-07T18:37:44Z</time>
      </trkpt>
      <trkpt lat="50.29634" lon="3.47943">
        <ele>61.18</ele>
        <time>2021-08-07T18:37:55Z</time>
      </trkpt>
      <trkpt lat="50.29681" lon="3.47941">
        <ele>59.26</ele>
        <time>2021-08-07T18:38:02Z</time>
      </trkpt>
      <trkpt lat="50.29742" lon="3.47938">
        <ele>58.78</ele>
        <time>2021-08-07T18:38:11Z</time>
      </trkpt>
      <trkpt lat="50.298" lon="3.4795">
        <ele>57.82</ele>
        <time>2021-08-07T18:38:20Z</time>
      </trkpt>
      <trkpt lat="50.29865" lon="3.47968">
        <ele>56.86</ele>
        <time>2021-08-07T18:38:30Z</time>
      </trkpt>
      <trkpt lat="50.29916" lon="3.47999">
        <ele>54.93</ele>
        <time>2021-08-07T18:38:38Z</time>
      </trkpt>
      <trkpt lat="50.29976" lon="3.48046">
        <ele>53.49</ele>
        <time>2021-08-07T18:38:47Z</time>
      </trkpt>
      <trkpt lat="50.30032" lon="3.48082">
        <ele>51.09</ele>
        <time>2021-08-07T18:38:55Z</time>
      </trkpt>
      <trkpt lat="50.30085" lon="3.48096">
        <ele>49.16</ele>
        <time>2021-08-07T18:39:02Z</time>
      </trkpt>
      <trkpt lat="50.30149" lon="3.48098">
        <ele>46.28</ele>
        <time>2021-08-07T18:39:10Z</time>
      </trkpt>
      <trkpt lat="50.302" lon="3.48085">
        <ele>43.4</ele>
        <time>2021-08-07T18:39:16Z</time>
      </trkpt>
      <trkpt lat="50.30237" lon="3.48077">
        <ele>41.95</ele>
        <time>2021-08-07T18:39:21Z</time>
      </trkpt>
      <trkpt lat="50.30256" lon="3.48077">
        <ele>41.47</ele>
        <time>2021-08-07T18:39:25Z</time>
      </trkpt>
      <trkpt lat="50.30259" lon="3.48082">
        <ele>40.99</ele>
        <time>2021-08-07T18:39:26Z</time>
      </trkpt>
      <trkpt lat="50.30263" lon="3.48087">
        <ele>40.99</ele>
        <time>2021-08-07T18:39:27Z</time>
      </trkpt>
      <trkpt lat="50.30274" lon="3.48104">
        <ele>40.51</ele>
        <time>2021-08-07T18:39:30Z</time>
      </trkpt>
      <trkpt lat="50.30277" lon="3.4811">
        <ele>40.03</ele>
        <time>2021-08-07T18:39:31Z</time>
      </trkpt>
      <trkpt lat="50.30281" lon="3.48117">
        <ele>40.03</ele>
        <time>2021-08-07T18:39:32Z</time>
      </trkpt>
      <trkpt lat="50.30297" lon="3.48144">
        <ele>39.07</ele>
        <time>2021-08-07T18:39:36Z</time>
      </trkpt>
      <trkpt lat="50.303" lon="3.48151">
        <ele>39.07</ele>
        <time>2021-08-07T18:39:37Z</time>
      </trkpt>
      <trkpt lat="50.30302" lon="3.4816">
        <ele>39.07</ele>
        <time>2021-08-07T18:39:38Z</time>
      </trkpt>
      <trkpt lat="50.30304" lon="3.48169">
        <ele>39.07</ele>
        <time>2021-08-07T18:39:39Z</time>
      </trkpt>
      <trkpt lat="50.30304" lon="3.48176">
        <ele>39.07</ele>
        <time>2021-08-07T18:39:40Z</time>
      </trkpt>
      <trkpt lat="50.30303" lon="3.48184">
        <ele>39.07</ele>
        <time>2021-08-07T18:39:41Z</time>
      </trkpt>
      <trkpt lat="50.303" lon="3.48191">
        <ele>39.07</ele>
        <time>2021-08-07T18:39:42Z</time>
      </trkpt>
      <trkpt lat="50.30298" lon="3.48195">
        <ele>39.07</ele>
        <time>2021-08-07T18:39:43Z</time>
      </trkpt>
      <trkpt lat="50.30296" lon="3.482">
        <ele>39.07</ele>
        <time>2021-08-07T18:39:44Z</time>
      </trkpt>
      <trkpt lat="50.30294" lon="3.48205">
        <ele>39.07</ele>
        <time>2021-08-07T18:39:45Z</time>
      </trkpt>
      <trkpt lat="50.30276" lon="3.48231">
        <ele>40.51</ele>
        <time>2021-08-07T18:39:52Z</time>
      </trkpt>
      <trkpt lat="50.30264" lon="3.48248">
        <ele>40.99</ele>
        <time>2021-08-07T18:39:59Z</time>
      </trkpt>
      <trkpt lat="50.30246" lon="3.48272">
        <ele>41.47</ele>
        <time>2021-08-07T18:40:06Z</time>
      </trkpt>
      <trkpt lat="50.30227" lon="3.48294">
        <ele>41.95</ele>
        <time>2021-08-07T18:40:13Z</time>
      </trkpt>
      <trkpt lat="50.30203" lon="3.48322">
        <ele>43.4</ele>
        <time>2021-08-07T18:40:22Z</time>
      </trkpt>
      <trkpt lat="50.30181" lon="3.48344">
        <ele>44.36</ele>
        <time>2021-08-07T18:40:30Z</time>
      </trkpt>
      <trkpt lat="50.30164" lon="3.48358">
        <ele>45.32</ele>
        <time>2021-08-07T18:40:37Z</time>
      </trkpt>
      <trkpt lat="50.3014" lon="3.4838">
        <ele>45.8</ele>
        <time>2021-08-07T18:40:47Z</time>
      </trkpt>
      <trkpt lat="50.30121" lon="3.48396">
        <ele>46.76</ele>
        <time>2021-08-07T18:40:54Z</time>
      </trkpt>
      <trkpt lat="50.30098" lon="3.48417">
        <ele>48.2</ele>
        <time>2021-08-07T18:41:04Z</time>
      </trkpt>
      <trkpt lat="50.30077" lon="3.48434">
        <ele>49.16</ele>
        <time>2021-08-07T18:41:13Z</time>
      </trkpt>
      <trkpt lat="50.30067" lon="3.48441">
        <ele>50.13</ele>
        <time>2021-08-07T18:41:19Z</time>
      </trkpt>
      <trkpt lat="50.30048" lon="3.48454">
        <ele>51.09</ele>
        <time>2021-08-07T18:41:28Z</time>
      </trkpt>
      <trkpt lat="50.30032" lon="3.48467">
        <ele>52.53</ele>
        <time>2021-08-07T18:41:35Z</time>
      </trkpt>
      <trkpt lat="50.30016" lon="3.48484">
        <ele>53.49</ele>
        <time>2021-08-07T18:41:43Z</time>
      </trkpt>
      <trkpt lat="50.30002" lon="3.48505">
        <ele>54.45</ele>
        <time>2021-08-07T18:41:51Z</time>
      </trkpt>
      <trkpt lat="50.29985" lon="3.48533">
        <ele>55.41</ele>
        <time>2021-08-07T18:42:00Z</time>
      </trkpt>
      <trkpt lat="50.29963" lon="3.4857">
        <ele>56.86</ele>
        <time>2021-08-07T18:42:12Z</time>
      </trkpt>
      <trkpt lat="50.29945" lon="3.486">
        <ele>57.34</ele>
        <time>2021-08-07T18:42:21Z</time>
      </trkpt>
      <trkpt lat="50.29931" lon="3.48625">
        <ele>57.82</ele>
        <time>2021-08-07T18:42:29Z</time>
      </trkpt>
      <trkpt lat="50.29916" lon="3.48628">
        <ele>58.78</ele>
        <time>2021-08-07T18:42:35Z</time>
      </trkpt>
      <trkpt lat="50.29894" lon="3.48632">
        <ele>59.26</ele>
        <time>2021-08-07T18:42:43Z</time>
      </trkpt>
      <trkpt lat="50.29873" lon="3.48636">
        <ele>60.22</ele>
        <time>2021-08-07T18:42:50Z</time>
      </trkpt>
      <trkpt lat="50.29854" lon="3.48638">
        <ele>60.22</ele>
        <time>2021-08-07T18:42:56Z</time>
      </trkpt>
      <trkpt lat="50.2983" lon="3.48641">
        <ele>60.7</ele>
        <time>2021-08-07T18:43:03Z</time>
      </trkpt>
      <trkpt lat="50.29827" lon="3.48642">
        <ele>60.7</ele>
        <time>2021-08-07T18:43:04Z</time>
      </trkpt>
      <trkpt lat="50.29809" lon="3.48646">
        <ele>60.7</ele>
        <time>2021-08-07T18:43:10Z</time>
      </trkpt>
      <trkpt lat="50.29783" lon="3.48658">
        <ele>61.66</ele>
        <time>2021-08-07T18:43:19Z</time>
      </trkpt>
      <trkpt lat="50.29758" lon="3.48665">
        <ele>61.66</ele>
        <time>2021-08-07T18:43:28Z</time>
      </trkpt>
      <trkpt lat="50.29735" lon="3.48673">
        <ele>62.62</ele>
        <time>2021-08-07T18:43:36Z</time>
      </trkpt>
      <trkpt lat="50.2971" lon="3.48681">
        <ele>64.55</ele>
        <time>2021-08-07T18:43:45Z</time>
      </trkpt>
      <trkpt lat="50.2969" lon="3.48688">
        <ele>65.99</ele>
        <time>2021-08-07T18:43:53Z</time>
      </trkpt>
      <trkpt lat="50.29668" lon="3.48696">
        <ele>66.47</ele>
        <time>2021-08-07T18:44:02Z</time>
      </trkpt>
      <trkpt lat="50.29645" lon="3.48705">
        <ele>67.43</ele>
        <time>2021-08-07T18:44:11Z</time>
      </trkpt>
      <trkpt lat="50.29625" lon="3.48713">
        <ele>67.91</ele>
        <time>2021-08-07T18:44:19Z</time>
      </trkpt>
      <trkpt lat="50.29608" lon="3.48721">
        <ele>68.87</ele>
        <time>2021-08-07T18:44:26Z</time>
      </trkpt>
      <trkpt lat="50.29587" lon="3.48731">
        <ele>69.83</ele>
        <time>2021-08-07T18:44:35Z</time>
      </trkpt>
      <trkpt lat="50.2957" lon="3.48739">
        <ele>70.31</ele>
        <time>2021-08-07T18:44:42Z</time>
      </trkpt>
      <trkpt lat="50.29551" lon="3.48748">
        <ele>71.76</ele>
        <time>2021-08-07T18:44:50Z</time>
      </trkpt>
      <trkpt lat="50.29535" lon="3.48756">
        <ele>72.24</ele>
        <time>2021-08-07T18:44:57Z</time>
      </trkpt>
      <trkpt lat="50.2951" lon="3.48768">
        <ele>73.68</ele>
        <time>2021-08-07T18:45:06Z</time>
      </trkpt>
      <trkpt lat="50.29482" lon="3.48783">
        <ele>74.64</ele>
        <time>2021-08-07T18:45:16Z</time>
      </trkpt>
      <trkpt lat="50.29456" lon="3.48796">
        <ele>75.6</ele>
        <time>2021-08-07T18:45:25Z</time>
      </trkpt>
      <trkpt lat="50.29434" lon="3.48807">
        <ele>77.04</ele>
        <time>2021-08-07T18:45:32Z</time>
      </trkpt>
      <trkpt lat="50.29403" lon="3.48823">
        <ele>78</ele>
        <time>2021-08-07T18:45:43Z</time>
      </trkpt>
      <trkpt lat="50.29381" lon="3.48836">
        <ele>78</ele>
        <time>2021-08-07T18:45:50Z</time>
      </trkpt>
      <trkpt lat="50.29348" lon="3.48858">
        <ele>78</ele>
        <time>2021-08-07T18:46:00Z</time>
      </trkpt>
      <trkpt lat="50.29323" lon="3.48876">
        <ele>78.48</ele>
        <time>2021-08-07T18:46:08Z</time>
      </trkpt>
      <trkpt lat="50.29312" lon="3.48883">
        <ele>78.48</ele>
        <time>2021-08-07T18:46:13Z</time>
      </trkpt>
      <trkpt lat="50.29294" lon="3.48893">
        <ele>78.48</ele>
        <time>2021-08-07T18:46:19Z</time>
      </trkpt>
      <trkpt lat="50.29281" lon="3.48898">
        <ele>78.48</ele>
        <time>2021-08-07T18:46:24Z</time>
      </trkpt>
      <trkpt lat="50.29255" lon="3.48907">
        <ele>78.48</ele>
        <time>2021-08-07T18:46:31Z</time>
      </trkpt>
      <trkpt lat="50.29254" lon="3.48911">
        <ele>78.48</ele>
        <time>2021-08-07T18:46:32Z</time>
      </trkpt>
      <trkpt lat="50.29255" lon="3.48914">
        <ele>78.48</ele>
        <time>2021-08-07T18:46:33Z</time>
      </trkpt>
      <trkpt lat="50.29256" lon="3.48918">
        <ele>78.48</ele>
        <time>2021-08-07T18:46:34Z</time>
      </trkpt>
      <trkpt lat="50.29257" lon="3.48921">
        <ele>78.48</ele>
        <time>2021-08-07T18:46:35Z</time>
      </trkpt>
      <trkpt lat="50.29262" lon="3.48929">
        <ele>77.52</ele>
        <time>2021-08-07T18:46:37Z</time>
      </trkpt>
      <trkpt lat="50.29274" lon="3.4895">
        <ele>77.52</ele>
        <time>2021-08-07T18:46:42Z</time>
      </trkpt>
      <trkpt lat="50.29301" lon="3.48991">
        <ele>77.04</ele>
        <time>2021-08-07T18:46:50Z</time>
      </trkpt>
      <trkpt lat="50.29344" lon="3.49048">
        <ele>75.6</ele>
        <time>2021-08-07T18:47:00Z</time>
      </trkpt>
      <trkpt lat="50.29399" lon="3.49108">
        <ele>74.16</ele>
        <time>2021-08-07T18:47:10Z</time>
      </trkpt>
      <trkpt lat="50.29468" lon="3.49174">
        <ele>73.68</ele>
        <time>2021-08-07T18:47:22Z</time>
      </trkpt>
      <trkpt lat="50.29526" lon="3.49228">
        <ele>72.72</ele>
        <time>2021-08-07T18:47:32Z</time>
      </trkpt>
      <trkpt lat="50.29569" lon="3.4927">
        <ele>72.24</ele>
        <time>2021-08-07T18:47:40Z</time>
      </trkpt>
      <trkpt lat="50.29628" lon="3.49327">
        <ele>72.24</ele>
        <time>2021-08-07T18:47:51Z</time>
      </trkpt>
      <trkpt lat="50.29677" lon="3.49374">
        <ele>71.76</ele>
        <time>2021-08-07T18:48:00Z</time>
      </trkpt>
      <trkpt lat="50.29711" lon="3.4941">
        <ele>70.31</ele>
        <time>2021-08-07T18:48:06Z</time>
      </trkpt>
      <trkpt lat="50.29762" lon="3.49474">
        <ele>67.91</ele>
        <time>2021-08-07T18:48:15Z</time>
      </trkpt>
      <trkpt lat="50.29827" lon="3.49552">
        <ele>65.99</ele>
        <time>2021-08-07T18:48:25Z</time>
      </trkpt>
      <trkpt lat="50.29897" lon="3.49623">
        <ele>63.1</ele>
        <time>2021-08-07T18:48:35Z</time>
      </trkpt>
      <trkpt lat="50.29964" lon="3.49666">
        <ele>61.18</ele>
        <time>2021-08-07T18:48:44Z</time>
      </trkpt>
      <trkpt lat="50.30025" lon="3.49689">
        <ele>59.74</ele>
        <time>2021-08-07T18:48:52Z</time>
      </trkpt>
      <trkpt lat="50.30087" lon="3.497">
        <ele>57.82</ele>
        <time>2021-08-07T18:49:00Z</time>
      </trkpt>
      <trkpt lat="50.3016" lon="3.49711">
        <ele>56.37</ele>
        <time>2021-08-07T18:49:10Z</time>
      </trkpt>
      <trkpt lat="50.30225" lon="3.49721">
        <ele>55.41</ele>
        <time>2021-08-07T18:49:20Z</time>
      </trkpt>
      <trkpt lat="50.30242" lon="3.49723">
        <ele>55.41</ele>
        <time>2021-08-07T18:49:23Z</time>
      </trkpt>
      <trkpt lat="50.30247" lon="3.49725">
        <ele>55.41</ele>
        <time>2021-08-07T18:49:24Z</time>
      </trkpt>
      <trkpt lat="50.30251" lon="3.49727">
        <ele>54.93</ele>
        <time>2021-08-07T18:49:25Z</time>
      </trkpt>
      <trkpt lat="50.30254" lon="3.49732">
        <ele>54.93</ele>
        <time>2021-08-07T18:49:26Z</time>
      </trkpt>
      <trkpt lat="50.30255" lon="3.49737">
        <ele>54.93</ele>
        <time>2021-08-07T18:49:27Z</time>
      </trkpt>
      <trkpt lat="50.30254" lon="3.49742">
        <ele>54.93</ele>
        <time>2021-08-07T18:49:28Z</time>
      </trkpt>
      <trkpt lat="50.30253" lon="3.49746">
        <ele>54.93</ele>
        <time>2021-08-07T18:49:29Z</time>
      </trkpt>
      <trkpt lat="50.30251" lon="3.49751">
        <ele>54.93</ele>
        <time>2021-08-07T18:49:30Z</time>
      </trkpt>
      <trkpt lat="50.30237" lon="3.49787">
        <ele>54.93</ele>
        <time>2021-08-07T18:49:37Z</time>
      </trkpt>
      <trkpt lat="50.30229" lon="3.49809">
        <ele>56.37</ele>
        <time>2021-08-07T18:49:41Z</time>
      </trkpt>
      <trkpt lat="50.30207" lon="3.49868">
        <ele>57.82</ele>
        <time>2021-08-07T18:49:52Z</time>
      </trkpt>
      <trkpt lat="50.30191" lon="3.49912">
        <ele>59.74</ele>
        <time>2021-08-07T18:50:02Z</time>
      </trkpt>
      <trkpt lat="50.30173" lon="3.49962">
        <ele>61.66</ele>
        <time>2021-08-07T18:50:13Z</time>
      </trkpt>
      <trkpt lat="50.30159" lon="3.50008">
        <ele>63.1</ele>
        <time>2021-08-07T18:50:22Z</time>
      </trkpt>
      <trkpt lat="50.30144" lon="3.50066">
        <ele>64.55</ele>
        <time>2021-08-07T18:50:33Z</time>
      </trkpt>
      <trkpt lat="50.30124" lon="3.50137">
        <ele>65.03</ele>
        <time>2021-08-07T18:50:45Z</time>
      </trkpt>
      <trkpt lat="50.3012" lon="3.50156">
        <ele>62.14</ele>
        <time>2021-08-07T18:50:47Z</time>
      </trkpt>
      <trkpt lat="50.30109" lon="3.5021">
        <ele>58.78</ele>
        <time>2021-08-07T18:50:52Z</time>
      </trkpt>
      <trkpt lat="50.30104" lon="3.50233">
        <ele>57.82</ele>
        <time>2021-08-07T18:50:54Z</time>
      </trkpt>
      <trkpt lat="50.30087" lon="3.5031">
        <ele>56.86</ele>
        <time>2021-08-07T18:51:01Z</time>
      </trkpt>
      <trkpt lat="50.30073" lon="3.50353">
        <ele>57.82</ele>
        <time>2021-08-07T18:51:07Z</time>
      </trkpt>
      <trkpt lat="50.30071" lon="3.50359">
        <ele>57.82</ele>
        <time>2021-08-07T18:51:08Z</time>
      </trkpt>
      <trkpt lat="50.30059" lon="3.50395">
        <ele>60.22</ele>
        <time>2021-08-07T18:51:16Z</time>
      </trkpt>
      <trkpt lat="50.30045" lon="3.50435">
        <ele>62.14</ele>
        <time>2021-08-07T18:51:28Z</time>
      </trkpt>
      <trkpt lat="50.30034" lon="3.50464">
        <ele>63.58</ele>
        <time>2021-08-07T18:51:38Z</time>
      </trkpt>
      <trkpt lat="50.30025" lon="3.50488">
        <ele>64.55</ele>
        <time>2021-08-07T18:51:46Z</time>
      </trkpt>
      <trkpt lat="50.30015" lon="3.5052">
        <ele>65.51</ele>
        <time>2021-08-07T18:51:55Z</time>
      </trkpt>
      <trkpt lat="50.30006" lon="3.50544">
        <ele>66.47</ele>
        <time>2021-08-07T18:52:02Z</time>
      </trkpt>
      <trkpt lat="50.29995" lon="3.50574">
        <ele>66.95</ele>
        <time>2021-08-07T18:52:11Z</time>
      </trkpt>
      <trkpt lat="50.29986" lon="3.50602">
        <ele>67.91</ele>
        <time>2021-08-07T18:52:19Z</time>
      </trkpt>
      <trkpt lat="50.29977" lon="3.50627">
        <ele>68.87</ele>
        <time>2021-08-07T18:52:26Z</time>
      </trkpt>
      <trkpt lat="50.29966" lon="3.50658">
        <ele>69.35</ele>
        <time>2021-08-07T18:52:35Z</time>
      </trkpt>
      <trkpt lat="50.29953" lon="3.50692">
        <ele>70.31</ele>
        <time>2021-08-07T18:52:44Z</time>
      </trkpt>
      <trkpt lat="50.29938" lon="3.50732">
        <ele>70.79</ele>
        <time>2021-08-07T18:52:53Z</time>
      </trkpt>
      <trkpt lat="50.29922" lon="3.5078">
        <ele>71.76</ele>
        <time>2021-08-07T18:53:03Z</time>
      </trkpt>
      <trkpt lat="50.2991" lon="3.50812">
        <ele>73.2</ele>
        <time>2021-08-07T18:53:10Z</time>
      </trkpt>
      <trkpt lat="50.29893" lon="3.50859">
        <ele>73.68</ele>
        <time>2021-08-07T18:53:19Z</time>
      </trkpt>
      <trkpt lat="50.29875" lon="3.50911">
        <ele>74.64</ele>
        <time>2021-08-07T18:53:29Z</time>
      </trkpt>
      <trkpt lat="50.29854" lon="3.5097">
        <ele>75.6</ele>
        <time>2021-08-07T18:53:40Z</time>
      </trkpt>
      <trkpt lat="50.29837" lon="3.5102">
        <ele>76.56</ele>
        <time>2021-08-07T18:53:49Z</time>
      </trkpt>
      <trkpt lat="50.29815" lon="3.51078">
        <ele>76.56</ele>
        <time>2021-08-07T18:53:59Z</time>
      </trkpt>
      <trkpt lat="50.29795" lon="3.51133">
        <ele>77.04</ele>
        <time>2021-08-07T18:54:08Z</time>
      </trkpt>
      <trkpt lat="50.29773" lon="3.51195">
        <ele>77.52</ele>
        <time>2021-08-07T18:54:18Z</time>
      </trkpt>
      <trkpt lat="50.29756" lon="3.51247">
        <ele>77.52</ele>
        <time>2021-08-07T18:54:26Z</time>
      </trkpt>
      <trkpt lat="50.29734" lon="3.51307">
        <ele>76.08</ele>
        <time>2021-08-07T18:54:35Z</time>
      </trkpt>
      <trkpt lat="50.29726" lon="3.51335">
        <ele>75.6</ele>
        <time>2021-08-07T18:54:39Z</time>
      </trkpt>
      <trkpt lat="50.29726" lon="3.51342">
        <ele>75.6</ele>
        <time>2021-08-07T18:54:40Z</time>
      </trkpt>
      <trkpt lat="50.29727" lon="3.51349">
        <ele>75.6</ele>
        <time>2021-08-07T18:54:41Z</time>
      </trkpt>
      <trkpt lat="50.2973" lon="3.51355">
        <ele>75.6</ele>
        <time>2021-08-07T18:54:42Z</time>
      </trkpt>
      <trkpt lat="50.29732" lon="3.51359">
        <ele>75.6</ele>
        <time>2021-08-07T18:54:43Z</time>
      </trkpt>
      <trkpt lat="50.29736" lon="3.51365">
        <ele>75.6</ele>
        <time>2021-08-07T18:54:44Z</time>
      </trkpt>
      <trkpt lat="50.29766" lon="3.51411">
        <ele>73.68</ele>
        <time>2021-08-07T18:54:51Z</time>
      </trkpt>
      <trkpt lat="50.29785" lon="3.51443">
        <ele>71.76</ele>
        <time>2021-08-07T18:54:55Z</time>
      </trkpt>
      <trkpt lat="50.29832" lon="3.5151">
        <ele>70.31</ele>
        <time>2021-08-07T18:55:04Z</time>
      </trkpt>
      <trkpt lat="50.29844" lon="3.51527">
        <ele>69.83</ele>
        <time>2021-08-07T18:55:07Z</time>
      </trkpt>
      <trkpt lat="50.29846" lon="3.51534">
        <ele>69.83</ele>
        <time>2021-08-07T18:55:08Z</time>
      </trkpt>
      <trkpt lat="50.29846" lon="3.51539">
        <ele>70.31</ele>
        <time>2021-08-07T18:55:09Z</time>
      </trkpt>
      <trkpt lat="50.29845" lon="3.51545">
        <ele>69.35</ele>
        <time>2021-08-07T18:55:10Z</time>
      </trkpt>
      <trkpt lat="50.29843" lon="3.5155">
        <ele>69.35</ele>
        <time>2021-08-07T18:55:11Z</time>
      </trkpt>
      <trkpt lat="50.2984" lon="3.51554">
        <ele>68.87</ele>
        <time>2021-08-07T18:55:12Z</time>
      </trkpt>
      <trkpt lat="50.29837" lon="3.51557">
        <ele>68.87</ele>
        <time>2021-08-07T18:55:13Z</time>
      </trkpt>
      <trkpt lat="50.29833" lon="3.5156">
        <ele>68.87</ele>
        <time>2021-08-07T18:55:14Z</time>
      </trkpt>
      <trkpt lat="50.29828" lon="3.51565">
        <ele>68.87</ele>
        <time>2021-08-07T18:55:15Z</time>
      </trkpt>
      <trkpt lat="50.29821" lon="3.51574">
        <ele>68.87</ele>
        <time>2021-08-07T18:55:17Z</time>
      </trkpt>
      <trkpt lat="50.29819" lon="3.51578">
        <ele>68.87</ele>
        <time>2021-08-07T18:55:18Z</time>
      </trkpt>
      <trkpt lat="50.29818" lon="3.51582">
        <ele>68.87</ele>
        <time>2021-08-07T18:55:19Z</time>
      </trkpt>
      <trkpt lat="50.29818" lon="3.51585">
        <ele>68.87</ele>
        <time>2021-08-07T18:55:20Z</time>
      </trkpt>
      <trkpt lat="50.29819" lon="3.51587">
        <ele>68.87</ele>
        <time>2021-08-07T18:55:21Z</time>
      </trkpt>
      <trkpt lat="50.2982" lon="3.51589">
        <ele>68.87</ele>
        <time>2021-08-07T18:55:22Z</time>
      </trkpt>
      <trkpt lat="50.29821" lon="3.51592">
        <ele>68.87</ele>
        <time>2021-08-07T18:55:23Z</time>
      </trkpt>
      <trkpt lat="50.29823" lon="3.51593">
        <ele>67.91</ele>
        <time>2021-08-07T18:55:24Z</time>
      </trkpt>
      <trkpt lat="50.29826" lon="3.51595">
        <ele>67.91</ele>
        <time>2021-08-07T18:55:25Z</time>
      </trkpt>
      <trkpt lat="50.2983" lon="3.51597">
        <ele>67.91</ele>
        <time>2021-08-07T18:55:26Z</time>
      </trkpt>
      <trkpt lat="50.29834" lon="3.51599">
        <ele>67.91</ele>
        <time>2021-08-07T18:55:27Z</time>
      </trkpt>
      <trkpt lat="50.29843" lon="3.51602">
        <ele>69.83</ele>
        <time>2021-08-07T18:55:29Z</time>
      </trkpt>
      <trkpt lat="50.299" lon="3.51619">
        <ele>70.31</ele>
        <time>2021-08-07T18:55:40Z</time>
      </trkpt>
      <trkpt lat="50.29946" lon="3.51641">
        <ele>71.76</ele>
        <time>2021-08-07T18:55:50Z</time>
      </trkpt>
      <trkpt lat="50.29969" lon="3.51664">
        <ele>72.24</ele>
        <time>2021-08-07T18:55:56Z</time>
      </trkpt>
      <trkpt lat="50.29972" lon="3.51669">
        <ele>72.72</ele>
        <time>2021-08-07T18:55:57Z</time>
      </trkpt>
      <trkpt lat="50.29975" lon="3.51675">
        <ele>73.2</ele>
        <time>2021-08-07T18:55:58Z</time>
      </trkpt>
      <trkpt lat="50.29977" lon="3.51681">
        <ele>73.2</ele>
        <time>2021-08-07T18:55:59Z</time>
      </trkpt>
      <trkpt lat="50.29979" lon="3.51688">
        <ele>73.2</ele>
        <time>2021-08-07T18:56:00Z</time>
      </trkpt>
      <trkpt lat="50.29981" lon="3.51694">
        <ele>73.2</ele>
        <time>2021-08-07T18:56:01Z</time>
      </trkpt>
      <trkpt lat="50.29984" lon="3.517">
        <ele>74.16</ele>
        <time>2021-08-07T18:56:02Z</time>
      </trkpt>
      <trkpt lat="50.29989" lon="3.51713">
        <ele>74.16</ele>
        <time>2021-08-07T18:56:04Z</time>
      </trkpt>
      <trkpt lat="50.29991" lon="3.51721">
        <ele>73.68</ele>
        <time>2021-08-07T18:56:05Z</time>
      </trkpt>
      <trkpt lat="50.29992" lon="3.51727">
        <ele>74.16</ele>
        <time>2021-08-07T18:56:06Z</time>
      </trkpt>
      <trkpt lat="50.29994" lon="3.51734">
        <ele>74.16</ele>
        <time>2021-08-07T18:56:07Z</time>
      </trkpt>
      <trkpt lat="50.29995" lon="3.51742">
        <ele>74.64</ele>
        <time>2021-08-07T18:56:08Z</time>
      </trkpt>
      <trkpt lat="50.29998" lon="3.51789">
        <ele>75.12</ele>
        <time>2021-08-07T18:56:14Z</time>
      </trkpt>
      <trkpt lat="50.29995" lon="3.51858">
        <ele>75.12</ele>
        <time>2021-08-07T18:56:23Z</time>
      </trkpt>
      <trkpt lat="50.29991" lon="3.51949">
        <ele>75.6</ele>
        <time>2021-08-07T18:56:33Z</time>
      </trkpt>
      <trkpt lat="50.29988" lon="3.51996">
        <ele>74.16</ele>
        <time>2021-08-07T18:56:38Z</time>
      </trkpt>
      <trkpt lat="50.29984" lon="3.52088">
        <ele>74.16</ele>
        <time>2021-08-07T18:56:48Z</time>
      </trkpt>
      <trkpt lat="50.29983" lon="3.52106">
        <ele>75.6</ele>
        <time>2021-08-07T18:56:50Z</time>
      </trkpt>
      <trkpt lat="50.29978" lon="3.52195">
        <ele>76.56</ele>
        <time>2021-08-07T18:57:01Z</time>
      </trkpt>
      <trkpt lat="50.29974" lon="3.52263">
        <ele>77.52</ele>
        <time>2021-08-07T18:57:10Z</time>
      </trkpt>
      <trkpt lat="50.29969" lon="3.52343">
        <ele>78.97</ele>
        <time>2021-08-07T18:57:21Z</time>
      </trkpt>
      <trkpt lat="50.29959" lon="3.52421">
        <ele>79.45</ele>
        <time>2021-08-07T18:57:31Z</time>
      </trkpt>
      <trkpt lat="50.29948" lon="3.52477">
        <ele>78</ele>
        <time>2021-08-07T18:57:38Z</time>
      </trkpt>
      <trkpt lat="50.29939" lon="3.52503">
        <ele>78</ele>
        <time>2021-08-07T18:57:42Z</time>
      </trkpt>
      <trkpt lat="50.29938" lon="3.52503">
        <ele>78</ele>
        <time>2021-08-07T18:57:43Z</time>
      </trkpt>
      <trkpt lat="50.29937" lon="3.52501">
        <ele>78</ele>
        <time>2021-08-07T18:57:44Z</time>
      </trkpt>
      <trkpt lat="50.29936" lon="3.525">
        <ele>78</ele>
        <time>2021-08-07T18:57:45Z</time>
      </trkpt>
      <trkpt lat="50.29935" lon="3.52498">
        <ele>78</ele>
        <time>2021-08-07T18:57:46Z</time>
      </trkpt>
      <trkpt lat="50.29933" lon="3.52497">
        <ele>78</ele>
        <time>2021-08-07T18:57:47Z</time>
      </trkpt>
      <trkpt lat="50.29931" lon="3.52497">
        <ele>78</ele>
        <time>2021-08-07T18:57:48Z</time>
      </trkpt>
      <trkpt lat="50.29917" lon="3.52502">
        <ele>78</ele>
        <time>2021-08-07T18:57:54Z</time>
      </trkpt>
      <trkpt lat="50.29895" lon="3.52512">
        <ele>78</ele>
        <time>2021-08-07T18:58:02Z</time>
      </trkpt>
      <trkpt lat="50.29858" lon="3.52526">
        <ele>78</ele>
        <time>2021-08-07T18:58:12Z</time>
      </trkpt>
      <trkpt lat="50.29816" lon="3.52542">
        <ele>78</ele>
        <time>2021-08-07T18:58:23Z</time>
      </trkpt>
      <trkpt lat="50.29773" lon="3.5256">
        <ele>78.97</ele>
        <time>2021-08-07T18:58:34Z</time>
      </trkpt>
      <trkpt lat="50.29735" lon="3.52575">
        <ele>79.93</ele>
        <time>2021-08-07T18:58:44Z</time>
      </trkpt>
      <trkpt lat="50.29701" lon="3.52587">
        <ele>80.41</ele>
        <time>2021-08-07T18:58:53Z</time>
      </trkpt>
      <trkpt lat="50.29669" lon="3.526">
        <ele>80.89</ele>
        <time>2021-08-07T18:59:02Z</time>
      </trkpt>
      <trkpt lat="50.2964" lon="3.52611">
        <ele>80.89</ele>
        <time>2021-08-07T18:59:11Z</time>
      </trkpt>
      <trkpt lat="50.29598" lon="3.52627">
        <ele>82.33</ele>
        <time>2021-08-07T18:59:23Z</time>
      </trkpt>
      <trkpt lat="50.29569" lon="3.52638">
        <ele>82.81</ele>
        <time>2021-08-07T18:59:31Z</time>
      </trkpt>
      <trkpt lat="50.29526" lon="3.52655">
        <ele>82.81</ele>
        <time>2021-08-07T18:59:43Z</time>
      </trkpt>
      <trkpt lat="50.29491" lon="3.52668">
        <ele>83.29</ele>
        <time>2021-08-07T18:59:53Z</time>
      </trkpt>
      <trkpt lat="50.29462" lon="3.52682">
        <ele>83.77</ele>
        <time>2021-08-07T19:00:02Z</time>
      </trkpt>
      <trkpt lat="50.29429" lon="3.52694">
        <ele>84.25</ele>
        <time>2021-08-07T19:00:12Z</time>
      </trkpt>
      <trkpt lat="50.294" lon="3.52706">
        <ele>84.73</ele>
        <time>2021-08-07T19:00:21Z</time>
      </trkpt>
      <trkpt lat="50.29364" lon="3.52721">
        <ele>85.21</ele>
        <time>2021-08-07T19:00:32Z</time>
      </trkpt>
      <trkpt lat="50.29341" lon="3.5273">
        <ele>85.69</ele>
        <time>2021-08-07T19:00:39Z</time>
      </trkpt>
      <trkpt lat="50.29304" lon="3.52744">
        <ele>86.66</ele>
        <time>2021-08-07T19:00:50Z</time>
      </trkpt>
      <trkpt lat="50.29271" lon="3.52757">
        <ele>87.14</ele>
        <time>2021-08-07T19:01:00Z</time>
      </trkpt>
      <trkpt lat="50.29246" lon="3.52767">
        <ele>87.14</ele>
        <time>2021-08-07T19:01:08Z</time>
      </trkpt>
      <trkpt lat="50.29225" lon="3.52777">
        <ele>87.62</ele>
        <time>2021-08-07T19:01:15Z</time>
      </trkpt>
      <trkpt lat="50.292" lon="3.52795">
        <ele>88.1</ele>
        <time>2021-08-07T19:01:24Z</time>
      </trkpt>
      <trkpt lat="50.29181" lon="3.52819">
        <ele>88.58</ele>
        <time>2021-08-07T19:01:31Z</time>
      </trkpt>
      <trkpt lat="50.29157" lon="3.5285">
        <ele>89.06</ele>
        <time>2021-08-07T19:01:40Z</time>
      </trkpt>
      <trkpt lat="50.29136" lon="3.52858">
        <ele>89.54</ele>
        <time>2021-08-07T19:01:47Z</time>
      </trkpt>
      <trkpt lat="50.2912" lon="3.52845">
        <ele>90.98</ele>
        <time>2021-08-07T19:01:54Z</time>
      </trkpt>
      <trkpt lat="50.29095" lon="3.52828">
        <ele>90.98</ele>
        <time>2021-08-07T19:02:02Z</time>
      </trkpt>
      <trkpt lat="50.29091" lon="3.52829">
        <ele>90.98</ele>
        <time>2021-08-07T19:02:03Z</time>
      </trkpt>
      <trkpt lat="50.29087" lon="3.52829">
        <ele>90.98</ele>
        <time>2021-08-07T19:02:04Z</time>
      </trkpt>
      <trkpt lat="50.29052" lon="3.52842">
        <ele>89.54</ele>
        <time>2021-08-07T19:02:13Z</time>
      </trkpt>
      <trkpt lat="50.29022" lon="3.52852">
        <ele>89.54</ele>
        <time>2021-08-07T19:02:21Z</time>
      </trkpt>
      <trkpt lat="50.28984" lon="3.52865">
        <ele>89.54</ele>
        <time>2021-08-07T19:02:31Z</time>
      </trkpt>
      <trkpt lat="50.28964" lon="3.52873">
        <ele>90.98</ele>
        <time>2021-08-07T19:02:36Z</time>
      </trkpt>
      <trkpt lat="50.28921" lon="3.5289">
        <ele>90.98</ele>
        <time>2021-08-07T19:02:47Z</time>
      </trkpt>
      <trkpt lat="50.28878" lon="3.52905">
        <ele>90.98</ele>
        <time>2021-08-07T19:02:58Z</time>
      </trkpt>
      <trkpt lat="50.28849" lon="3.52914">
        <ele>91.46</ele>
        <time>2021-08-07T19:03:06Z</time>
      </trkpt>
      <trkpt lat="50.28824" lon="3.52923">
        <ele>91.94</ele>
        <time>2021-08-07T19:03:14Z</time>
      </trkpt>
      <trkpt lat="50.28805" lon="3.52928">
        <ele>90.5</ele>
        <time>2021-08-07T19:03:21Z</time>
      </trkpt>
      <trkpt lat="50.28798" lon="3.52929">
        <ele>91.94</ele>
        <time>2021-08-07T19:03:26Z</time>
      </trkpt>
      <trkpt lat="50.28798" lon="3.52928">
        <ele>90.98</ele>
        <time>2021-08-07T19:03:30Z</time>
      </trkpt>
      <trkpt lat="50.28799" lon="3.52927">
        <ele>90.5</ele>
        <time>2021-08-07T19:03:55Z</time>
      </trkpt>
      <trkpt lat="50.28799" lon="3.52927">
        <ele>90.5</ele>
        <time>2021-08-07T19:04:13Z</time>
      </trkpt>
      <trkpt lat="50.288" lon="3.52926">
        <ele>90.5</ele>
        <time>2021-08-07T19:04:27Z</time>
      </trkpt>
      <trkpt lat="50.28799" lon="3.52926">
        <ele>90.5</ele>
        <time>2021-08-07T19:04:46Z</time>
      </trkpt>
      <trkpt lat="50.28799" lon="3.52927">
        <ele>90.5</ele>
        <time>2021-08-07T19:05:11Z</time>
      </trkpt>
      <trkpt lat="50.28799" lon="3.52926">
        <ele>90.02</ele>
        <time>2021-08-07T19:05:29Z</time>
      </trkpt>
      <trkpt lat="50.28797" lon="3.52926">
        <ele>90.02</ele>
        <time>2021-08-07T19:05:49Z</time>
      </trkpt>
      <trkpt lat="50.28797" lon="3.52926">
        <ele>90.02</ele>
        <time>2021-08-07T19:06:04Z</time>
      </trkpt>
      <trkpt lat="50.28798" lon="3.52927">
        <ele>90.02</ele>
        <time>2021-08-07T19:06:21Z</time>
      </trkpt>
      <trkpt lat="50.28799" lon="3.52927">
        <ele>90.02</ele>
        <time>2021-08-07T19:06:41Z</time>
      </trkpt>
      <trkpt lat="50.288" lon="3.52926">
        <ele>89.54</ele>
        <time>2021-08-07T19:07:03Z</time>
      </trkpt>
      <trkpt lat="50.288" lon="3.52926">
        <ele>90.5</ele>
        <time>2021-08-07T19:07:19Z</time>
      </trkpt>
      <trkpt lat="50.28799" lon="3.52929">
        <ele>90.5</ele>
        <time>2021-08-07T19:07:36Z</time>
      </trkpt>
      <trkpt lat="50.288" lon="3.52929">
        <ele>90.98</ele>
        <time>2021-08-07T19:07:47Z</time>
      </trkpt>
      <trkpt lat="50.28798" lon="3.52931">
        <ele>90.02</ele>
        <time>2021-08-07T19:08:00Z</time>
      </trkpt>
      <trkpt lat="50.28796" lon="3.52933">
        <ele>90.02</ele>
        <time>2021-08-07T19:08:06Z</time>
      </trkpt>
      <trkpt lat="50.28795" lon="3.52932">
        <ele>90.02</ele>
        <time>2021-08-07T19:08:21Z</time>
      </trkpt>
      <trkpt lat="50.28795" lon="3.52932">
        <ele>90.02</ele>
        <time>2021-08-07T19:08:39Z</time>
      </trkpt>
      <trkpt lat="50.28794" lon="3.52932">
        <ele>90.02</ele>
        <time>2021-08-07T19:08:53Z</time>
      </trkpt>
      <trkpt lat="50.28794" lon="3.52932">
        <ele>90.02</ele>
        <time>2021-08-07T19:09:08Z</time>
      </trkpt>
      <trkpt lat="50.28795" lon="3.52933">
        <ele>90.02</ele>
        <time>2021-08-07T19:09:23Z</time>
      </trkpt>
      <trkpt lat="50.28796" lon="3.52932">
        <ele>90.02</ele>
        <time>2021-08-07T19:09:40Z</time>
      </trkpt>
      <trkpt lat="50.28795" lon="3.52931">
        <ele>90.02</ele>
        <time>2021-08-07T19:09:58Z</time>
      </trkpt>
      <trkpt lat="50.28793" lon="3.52931">
        <ele>90.02</ele>
        <time>2021-08-07T19:10:18Z</time>
      </trkpt>
      <trkpt lat="50.28795" lon="3.52931">
        <ele>89.54</ele>
        <time>2021-08-07T19:10:37Z</time>
      </trkpt>
      <trkpt lat="50.28794" lon="3.52931">
        <ele>90.5</ele>
        <time>2021-08-07T19:10:45Z</time>
      </trkpt>
      <trkpt lat="50.28792" lon="3.52932">
        <ele>90.5</ele>
        <time>2021-08-07T19:10:46Z</time>
      </trkpt>
      <trkpt lat="50.28791" lon="3.52933">
        <ele>90.5</ele>
        <time>2021-08-07T19:10:47Z</time>
      </trkpt>
      <trkpt lat="50.28789" lon="3.52934">
        <ele>90.5</ele>
        <time>2021-08-07T19:10:48Z</time>
      </trkpt>
      <trkpt lat="50.28786" lon="3.52935">
        <ele>90.5</ele>
        <time>2021-08-07T19:10:49Z</time>
      </trkpt>
      <trkpt lat="50.28784" lon="3.52937">
        <ele>89.06</ele>
        <time>2021-08-07T19:10:50Z</time>
      </trkpt>
      <trkpt lat="50.2878" lon="3.52938">
        <ele>89.06</ele>
        <time>2021-08-07T19:10:51Z</time>
      </trkpt>
      <trkpt lat="50.28753" lon="3.52948">
        <ele>88.1</ele>
        <time>2021-08-07T19:10:58Z</time>
      </trkpt>
      <trkpt lat="50.28707" lon="3.52965">
        <ele>86.18</ele>
        <time>2021-08-07T19:11:07Z</time>
      </trkpt>
      <trkpt lat="50.28661" lon="3.52984">
        <ele>84.73</ele>
        <time>2021-08-07T19:11:16Z</time>
      </trkpt>
      <trkpt lat="50.28615" lon="3.53007">
        <ele>82.81</ele>
        <time>2021-08-07T19:11:26Z</time>
      </trkpt>
      <trkpt lat="50.28569" lon="3.53027">
        <ele>82.81</ele>
        <time>2021-08-07T19:11:36Z</time>
      </trkpt>
      <trkpt lat="50.2851" lon="3.53055">
        <ele>82.81</ele>
        <time>2021-08-07T19:11:49Z</time>
      </trkpt>
      <trkpt lat="50.28462" lon="3.53076">
        <ele>82.33</ele>
        <time>2021-08-07T19:12:00Z</time>
      </trkpt>
      <trkpt lat="50.28431" lon="3.53088">
        <ele>81.85</ele>
        <time>2021-08-07T19:12:08Z</time>
      </trkpt>
      <trkpt lat="50.28409" lon="3.531">
        <ele>81.85</ele>
        <time>2021-08-07T19:12:14Z</time>
      </trkpt>
      <trkpt lat="50.28391" lon="3.53112">
        <ele>81.85</ele>
        <time>2021-08-07T19:12:21Z</time>
      </trkpt>
      <trkpt lat="50.28372" lon="3.53118">
        <ele>81.85</ele>
        <time>2021-08-07T19:12:28Z</time>
      </trkpt>
      <trkpt lat="50.28338" lon="3.53134">
        <ele>81.37</ele>
        <time>2021-08-07T19:12:38Z</time>
      </trkpt>
      <trkpt lat="50.28302" lon="3.5315">
        <ele>82.81</ele>
        <time>2021-08-07T19:12:49Z</time>
      </trkpt>
      <trkpt lat="50.28284" lon="3.53156">
        <ele>82.81</ele>
        <time>2021-08-07T19:12:54Z</time>
      </trkpt>
      <trkpt lat="50.28263" lon="3.53163">
        <ele>82.81</ele>
        <time>2021-08-07T19:13:00Z</time>
      </trkpt>
      <trkpt lat="50.28238" lon="3.53171">
        <ele>83.29</ele>
        <time>2021-08-07T19:13:07Z</time>
      </trkpt>
      <trkpt lat="50.282" lon="3.53183">
        <ele>83.29</ele>
        <time>2021-08-07T19:13:18Z</time>
      </trkpt>
      <trkpt lat="50.28158" lon="3.53196">
        <ele>83.77</ele>
        <time>2021-08-07T19:13:30Z</time>
      </trkpt>
      <trkpt lat="50.28121" lon="3.53208">
        <ele>85.21</ele>
        <time>2021-08-07T19:13:41Z</time>
      </trkpt>
      <trkpt lat="50.28093" lon="3.53218">
        <ele>85.21</ele>
        <time>2021-08-07T19:13:49Z</time>
      </trkpt>
      <trkpt lat="50.28059" lon="3.53228">
        <ele>85.69</ele>
        <time>2021-08-07T19:13:59Z</time>
      </trkpt>
      <trkpt lat="50.28024" lon="3.5324">
        <ele>86.18</ele>
        <time>2021-08-07T19:14:09Z</time>
      </trkpt>
      <trkpt lat="50.27982" lon="3.53257">
        <ele>87.14</ele>
        <time>2021-08-07T19:14:21Z</time>
      </trkpt>
      <trkpt lat="50.27948" lon="3.5327">
        <ele>87.14</ele>
        <time>2021-08-07T19:14:30Z</time>
      </trkpt>
      <trkpt lat="50.27915" lon="3.53282">
        <ele>85.69</ele>
        <time>2021-08-07T19:14:39Z</time>
      </trkpt>
      <trkpt lat="50.2787" lon="3.53302">
        <ele>85.21</ele>
        <time>2021-08-07T19:14:50Z</time>
      </trkpt>
      <trkpt lat="50.27829" lon="3.53319">
        <ele>85.21</ele>
        <time>2021-08-07T19:15:00Z</time>
      </trkpt>
      <trkpt lat="50.27812" lon="3.53326">
        <ele>85.21</ele>
        <time>2021-08-07T19:15:04Z</time>
      </trkpt>
      <trkpt lat="50.27783" lon="3.53336">
        <ele>85.21</ele>
        <time>2021-08-07T19:15:11Z</time>
      </trkpt>
      <trkpt lat="50.27779" lon="3.53337">
        <ele>85.21</ele>
        <time>2021-08-07T19:15:12Z</time>
      </trkpt>
      <trkpt lat="50.27745" lon="3.53352">
        <ele>86.18</ele>
        <time>2021-08-07T19:15:21Z</time>
      </trkpt>
      <trkpt lat="50.27715" lon="3.53364">
        <ele>86.66</ele>
        <time>2021-08-07T19:15:29Z</time>
      </trkpt>
      <trkpt lat="50.27668" lon="3.53383">
        <ele>88.1</ele>
        <time>2021-08-07T19:15:42Z</time>
      </trkpt>
      <trkpt lat="50.27635" lon="3.534">
        <ele>88.58</ele>
        <time>2021-08-07T19:15:52Z</time>
      </trkpt>
      <trkpt lat="50.27612" lon="3.53406">
        <ele>88.58</ele>
        <time>2021-08-07T19:15:58Z</time>
      </trkpt>
      <trkpt lat="50.27607" lon="3.53407">
        <ele>88.58</ele>
        <time>2021-08-07T19:15:59Z</time>
      </trkpt>
      <trkpt lat="50.27599" lon="3.5341">
        <ele>87.14</ele>
        <time>2021-08-07T19:16:01Z</time>
      </trkpt>
      <trkpt lat="50.27562" lon="3.53424">
        <ele>86.18</ele>
        <time>2021-08-07T19:16:09Z</time>
      </trkpt>
      <trkpt lat="50.27518" lon="3.53442">
        <ele>84.73</ele>
        <time>2021-08-07T19:16:18Z</time>
      </trkpt>
      <trkpt lat="50.27471" lon="3.53466">
        <ele>83.29</ele>
        <time>2021-08-07T19:16:27Z</time>
      </trkpt>
      <trkpt lat="50.27426" lon="3.53488">
        <ele>83.29</ele>
        <time>2021-08-07T19:16:35Z</time>
      </trkpt>
      <trkpt lat="50.27377" lon="3.53515">
        <ele>81.37</ele>
        <time>2021-08-07T19:16:44Z</time>
      </trkpt>
      <trkpt lat="50.27329" lon="3.53535">
        <ele>80.41</ele>
        <time>2021-08-07T19:16:53Z</time>
      </trkpt>
      <trkpt lat="50.27301" lon="3.5354">
        <ele>80.41</ele>
        <time>2021-08-07T19:17:00Z</time>
      </trkpt>
      <trkpt lat="50.27302" lon="3.53546">
        <ele>81.85</ele>
        <time>2021-08-07T19:17:02Z</time>
      </trkpt>
      <trkpt lat="50.27304" lon="3.53548">
        <ele>81.85</ele>
        <time>2021-08-07T19:17:03Z</time>
      </trkpt>
      <trkpt lat="50.27305" lon="3.53548">
        <ele>81.85</ele>
        <time>2021-08-07T19:17:04Z</time>
      </trkpt>
      <trkpt lat="50.27306" lon="3.53548">
        <ele>81.85</ele>
        <time>2021-08-07T19:17:09Z</time>
      </trkpt>
      <trkpt lat="50.27307" lon="3.53547">
        <ele>81.85</ele>
        <time>2021-08-07T19:17:26Z</time>
      </trkpt>
      <trkpt lat="50.27306" lon="3.53548">
        <ele>80.89</ele>
        <time>2021-08-07T19:17:45Z</time>
      </trkpt>
      <trkpt lat="50.27307" lon="3.53547">
        <ele>80.89</ele>
        <time>2021-08-07T19:18:02Z</time>
      </trkpt>
      <trkpt lat="50.27307" lon="3.53547">
        <ele>80.89</ele>
        <time>2021-08-07T19:18:18Z</time>
      </trkpt>
      <trkpt lat="50.27306" lon="3.53548">
        <ele>80.89</ele>
        <time>2021-08-07T19:18:32Z</time>
      </trkpt>
      <trkpt lat="50.27305" lon="3.53549">
        <ele>80.89</ele>
        <time>2021-08-07T19:18:34Z</time>
      </trkpt>
      <trkpt lat="50.27303" lon="3.53548">
        <ele>80.89</ele>
        <time>2021-08-07T19:18:37Z</time>
      </trkpt>
      <trkpt lat="50.27298" lon="3.53548">
        <ele>81.85</ele>
        <time>2021-08-07T19:18:41Z</time>
      </trkpt>
      <trkpt lat="50.27292" lon="3.53546">
        <ele>81.85</ele>
        <time>2021-08-07T19:18:49Z</time>
      </trkpt>
      <trkpt lat="50.27293" lon="3.53546">
        <ele>81.85</ele>
        <time>2021-08-07T19:19:00Z</time>
      </trkpt>
    </trkseg>
  </trk>
  <trk>
    <name><![CDATA[02 FD]]></name>
    <trkseg>
      <trkpt lat="50.27295" lon="3.53535">
        <ele>59.74</ele>
        <time>2021-08-08T02:48:14Z</time>
      </trkpt>
      <trkpt lat="50.27295" lon="3.53535">
        <ele>59.74</ele>
        <time>2021-08-08T02:48:15Z</time>
      </trkpt>
      <trkpt lat="50.27295" lon="3.53538">
        <ele>59.74</ele>
        <time>2021-08-08T02:48:29Z</time>
      </trkpt>
      <trkpt lat="50.27296" lon="3.53537">
        <ele>59.74</ele>
        <time>2021-08-08T02:48:34Z</time>
      </trkpt>
      <trkpt lat="50.27293" lon="3.53535">
        <ele>58.3</ele>
        <time>2021-08-08T02:48:37Z</time>
      </trkpt>
      <trkpt lat="50.27291" lon="3.53534">
        <ele>58.3</ele>
        <time>2021-08-08T02:48:38Z</time>
      </trkpt>
      <trkpt lat="50.27287" lon="3.53534">
        <ele>58.3</ele>
        <time>2021-08-08T02:48:41Z</time>
      </trkpt>
      <trkpt lat="50.27284" lon="3.53534">
        <ele>58.3</ele>
        <time>2021-08-08T02:48:42Z</time>
      </trkpt>
      <trkpt lat="50.27282" lon="3.53534">
        <ele>58.3</ele>
        <time>2021-08-08T02:48:43Z</time>
      </trkpt>
      <trkpt lat="50.27276" lon="3.5353">
        <ele>58.3</ele>
        <time>2021-08-08T02:48:45Z</time>
      </trkpt>
      <trkpt lat="50.2727" lon="3.53528">
        <ele>58.3</ele>
        <time>2021-08-08T02:48:47Z</time>
      </trkpt>
      <trkpt lat="50.27267" lon="3.53527">
        <ele>58.3</ele>
        <time>2021-08-08T02:48:48Z</time>
      </trkpt>
      <trkpt lat="50.27256" lon="3.53523">
        <ele>58.3</ele>
        <time>2021-08-08T02:48:51Z</time>
      </trkpt>
      <trkpt lat="50.27215" lon="3.53513">
        <ele>58.3</ele>
        <time>2021-08-08T02:49:00Z</time>
      </trkpt>
      <trkpt lat="50.27197" lon="3.5351">
        <ele>60.7</ele>
        <time>2021-08-08T02:49:04Z</time>
      </trkpt>
      <trkpt lat="50.2716" lon="3.53507">
        <ele>61.66</ele>
        <time>2021-08-08T02:49:13Z</time>
      </trkpt>
      <trkpt lat="50.27149" lon="3.53506">
        <ele>65.51</ele>
        <time>2021-08-08T02:49:19Z</time>
      </trkpt>
      <trkpt lat="50.27149" lon="3.53507">
        <ele>65.51</ele>
        <time>2021-08-08T02:49:22Z</time>
      </trkpt>
      <trkpt lat="50.27149" lon="3.53507">
        <ele>67.91</ele>
        <time>2021-08-08T02:49:30Z</time>
      </trkpt>
      <trkpt lat="50.2715" lon="3.53507">
        <ele>70.79</ele>
        <time>2021-08-08T02:49:43Z</time>
      </trkpt>
      <trkpt lat="50.27149" lon="3.53507">
        <ele>72.24</ele>
        <time>2021-08-08T02:49:50Z</time>
      </trkpt>
      <trkpt lat="50.27147" lon="3.53507">
        <ele>73.68</ele>
        <time>2021-08-08T02:50:01Z</time>
      </trkpt>
      <trkpt lat="50.27134" lon="3.53506">
        <ele>73.68</ele>
        <time>2021-08-08T02:50:06Z</time>
      </trkpt>
      <trkpt lat="50.27104" lon="3.53504">
        <ele>73.2</ele>
        <time>2021-08-08T02:50:14Z</time>
      </trkpt>
      <trkpt lat="50.27062" lon="3.53501">
        <ele>72.24</ele>
        <time>2021-08-08T02:50:24Z</time>
      </trkpt>
      <trkpt lat="50.27054" lon="3.535">
        <ele>72.24</ele>
        <time>2021-08-08T02:50:26Z</time>
      </trkpt>
      <trkpt lat="50.2705" lon="3.53499">
        <ele>72.24</ele>
        <time>2021-08-08T02:50:27Z</time>
      </trkpt>
      <trkpt lat="50.27046" lon="3.53498">
        <ele>72.24</ele>
        <time>2021-08-08T02:50:28Z</time>
      </trkpt>
      <trkpt lat="50.27041" lon="3.53498">
        <ele>71.76</ele>
        <time>2021-08-08T02:50:29Z</time>
      </trkpt>
      <trkpt lat="50.27037" lon="3.53497">
        <ele>72.24</ele>
        <time>2021-08-08T02:50:30Z</time>
      </trkpt>
      <trkpt lat="50.27033" lon="3.53496">
        <ele>72.24</ele>
        <time>2021-08-08T02:50:31Z</time>
      </trkpt>
      <trkpt lat="50.27029" lon="3.53496">
        <ele>72.24</ele>
        <time>2021-08-08T02:50:32Z</time>
      </trkpt>
      <trkpt lat="50.26988" lon="3.53492">
        <ele>72.72</ele>
        <time>2021-08-08T02:50:41Z</time>
      </trkpt>
      <trkpt lat="50.26979" lon="3.5349">
        <ele>72.72</ele>
        <time>2021-08-08T02:50:43Z</time>
      </trkpt>
      <trkpt lat="50.26974" lon="3.5349">
        <ele>72.72</ele>
        <time>2021-08-08T02:50:44Z</time>
      </trkpt>
      <trkpt lat="50.26928" lon="3.53487">
        <ele>73.2</ele>
        <time>2021-08-08T02:50:54Z</time>
      </trkpt>
      <trkpt lat="50.26893" lon="3.53484">
        <ele>49.16</ele>
        <time>2021-08-08T02:51:02Z</time>
      </trkpt>
      <trkpt lat="50.26889" lon="3.53483">
        <ele>73.2</ele>
        <time>2021-08-08T02:51:03Z</time>
      </trkpt>
      <trkpt lat="50.26851" lon="3.5348">
        <ele>74.16</ele>
        <time>2021-08-08T02:51:13Z</time>
      </trkpt>
      <trkpt lat="50.26818" lon="3.53478">
        <ele>76.08</ele>
        <time>2021-08-08T02:51:22Z</time>
      </trkpt>
      <trkpt lat="50.26788" lon="3.53473">
        <ele>76.08</ele>
        <time>2021-08-08T02:51:30Z</time>
      </trkpt>
      <trkpt lat="50.26747" lon="3.53458">
        <ele>77.04</ele>
        <time>2021-08-08T02:51:42Z</time>
      </trkpt>
      <trkpt lat="50.26719" lon="3.53448">
        <ele>78</ele>
        <time>2021-08-08T02:51:51Z</time>
      </trkpt>
      <trkpt lat="50.26679" lon="3.53435">
        <ele>79.45</ele>
        <time>2021-08-08T02:52:03Z</time>
      </trkpt>
      <trkpt lat="50.26644" lon="3.53425">
        <ele>78.97</ele>
        <time>2021-08-08T02:52:12Z</time>
      </trkpt>
      <trkpt lat="50.26622" lon="3.5342">
        <ele>78</ele>
        <time>2021-08-08T02:52:18Z</time>
      </trkpt>
      <trkpt lat="50.26581" lon="3.53408">
        <ele>78</ele>
        <time>2021-08-08T02:52:29Z</time>
      </trkpt>
      <trkpt lat="50.26547" lon="3.534">
        <ele>78</ele>
        <time>2021-08-08T02:52:38Z</time>
      </trkpt>
      <trkpt lat="50.26521" lon="3.53392">
        <ele>78</ele>
        <time>2021-08-08T02:52:45Z</time>
      </trkpt>
      <trkpt lat="50.26506" lon="3.53388">
        <ele>79.45</ele>
        <time>2021-08-08T02:52:49Z</time>
      </trkpt>
      <trkpt lat="50.26468" lon="3.53377">
        <ele>79.45</ele>
        <time>2021-08-08T02:52:59Z</time>
      </trkpt>
      <trkpt lat="50.26429" lon="3.53367">
        <ele>80.41</ele>
        <time>2021-08-08T02:53:10Z</time>
      </trkpt>
      <trkpt lat="50.2639" lon="3.53357">
        <ele>81.37</ele>
        <time>2021-08-08T02:53:21Z</time>
      </trkpt>
      <trkpt lat="50.26356" lon="3.53348">
        <ele>82.81</ele>
        <time>2021-08-08T02:53:31Z</time>
      </trkpt>
      <trkpt lat="50.26324" lon="3.53336">
        <ele>83.77</ele>
        <time>2021-08-08T02:53:41Z</time>
      </trkpt>
      <trkpt lat="50.26297" lon="3.53326">
        <ele>84.25</ele>
        <time>2021-08-08T02:53:49Z</time>
      </trkpt>
      <trkpt lat="50.26263" lon="3.53309">
        <ele>84.73</ele>
        <time>2021-08-08T02:53:59Z</time>
      </trkpt>
      <trkpt lat="50.26226" lon="3.53298">
        <ele>85.69</ele>
        <time>2021-08-08T02:54:10Z</time>
      </trkpt>
      <trkpt lat="50.26202" lon="3.53295">
        <ele>87.14</ele>
        <time>2021-08-08T02:54:18Z</time>
      </trkpt>
      <trkpt lat="50.2618" lon="3.53296">
        <ele>87.62</ele>
        <time>2021-08-08T02:54:27Z</time>
      </trkpt>
      <trkpt lat="50.26179" lon="3.53295">
        <ele>88.1</ele>
        <time>2021-08-08T02:54:28Z</time>
      </trkpt>
      <trkpt lat="50.26177" lon="3.53295">
        <ele>88.1</ele>
        <time>2021-08-08T02:54:29Z</time>
      </trkpt>
      <trkpt lat="50.26158" lon="3.53301">
        <ele>89.06</ele>
        <time>2021-08-08T02:54:37Z</time>
      </trkpt>
      <trkpt lat="50.26133" lon="3.53307">
        <ele>89.06</ele>
        <time>2021-08-08T02:54:45Z</time>
      </trkpt>
      <trkpt lat="50.26108" lon="3.53313">
        <ele>89.54</ele>
        <time>2021-08-08T02:54:52Z</time>
      </trkpt>
      <trkpt lat="50.2607" lon="3.5332">
        <ele>90.5</ele>
        <time>2021-08-08T02:55:02Z</time>
      </trkpt>
      <trkpt lat="50.26034" lon="3.53313">
        <ele>90.5</ele>
        <time>2021-08-08T02:55:11Z</time>
      </trkpt>
      <trkpt lat="50.25995" lon="3.5329">
        <ele>90.98</ele>
        <time>2021-08-08T02:55:21Z</time>
      </trkpt>
      <trkpt lat="50.25968" lon="3.53278">
        <ele>89.54</ele>
        <time>2021-08-08T02:55:27Z</time>
      </trkpt>
      <trkpt lat="50.25927" lon="3.53267">
        <ele>88.58</ele>
        <time>2021-08-08T02:55:35Z</time>
      </trkpt>
      <trkpt lat="50.25917" lon="3.53267">
        <ele>87.14</ele>
        <time>2021-08-08T02:55:37Z</time>
      </trkpt>
      <trkpt lat="50.25861" lon="3.53269">
        <ele>86.66</ele>
        <time>2021-08-08T02:55:47Z</time>
      </trkpt>
      <trkpt lat="50.25792" lon="3.53271">
        <ele>84.25</ele>
        <time>2021-08-08T02:55:59Z</time>
      </trkpt>
      <trkpt lat="50.25729" lon="3.53273">
        <ele>82.33</ele>
        <time>2021-08-08T02:56:10Z</time>
      </trkpt>
      <trkpt lat="50.2568" lon="3.53274">
        <ele>81.85</ele>
        <time>2021-08-08T02:56:19Z</time>
      </trkpt>
      <trkpt lat="50.25629" lon="3.53273">
        <ele>81.37</ele>
        <time>2021-08-08T02:56:28Z</time>
      </trkpt>
      <trkpt lat="50.2559" lon="3.53275">
        <ele>80.41</ele>
        <time>2021-08-08T02:56:35Z</time>
      </trkpt>
      <trkpt lat="50.25551" lon="3.53284">
        <ele>78.97</ele>
        <time>2021-08-08T02:56:42Z</time>
      </trkpt>
      <trkpt lat="50.25497" lon="3.53304">
        <ele>78.48</ele>
        <time>2021-08-08T02:56:52Z</time>
      </trkpt>
      <trkpt lat="50.25456" lon="3.53318">
        <ele>78</ele>
        <time>2021-08-08T02:57:00Z</time>
      </trkpt>
      <trkpt lat="50.2545" lon="3.53319">
        <ele>78</ele>
        <time>2021-08-08T02:57:01Z</time>
      </trkpt>
      <trkpt lat="50.25406" lon="3.53313">
        <ele>77.04</ele>
        <time>2021-08-08T02:57:09Z</time>
      </trkpt>
      <trkpt lat="50.25396" lon="3.53311">
        <ele>76.08</ele>
        <time>2021-08-08T02:57:11Z</time>
      </trkpt>
      <trkpt lat="50.25392" lon="3.5331">
        <ele>76.08</ele>
        <time>2021-08-08T02:57:12Z</time>
      </trkpt>
      <trkpt lat="50.25388" lon="3.53306">
        <ele>76.08</ele>
        <time>2021-08-08T02:57:13Z</time>
      </trkpt>
      <trkpt lat="50.25384" lon="3.53303">
        <ele>76.08</ele>
        <time>2021-08-08T02:57:14Z</time>
      </trkpt>
      <trkpt lat="50.25379" lon="3.53302">
        <ele>76.08</ele>
        <time>2021-08-08T02:57:15Z</time>
      </trkpt>
      <trkpt lat="50.25375" lon="3.53303">
        <ele>76.56</ele>
        <time>2021-08-08T02:57:16Z</time>
      </trkpt>
      <trkpt lat="50.2537" lon="3.53306">
        <ele>76.56</ele>
        <time>2021-08-08T02:57:17Z</time>
      </trkpt>
      <trkpt lat="50.25366" lon="3.53307">
        <ele>76.56</ele>
        <time>2021-08-08T02:57:18Z</time>
      </trkpt>
      <trkpt lat="50.25361" lon="3.53307">
        <ele>75.6</ele>
        <time>2021-08-08T02:57:19Z</time>
      </trkpt>
      <trkpt lat="50.25356" lon="3.53308">
        <ele>75.6</ele>
        <time>2021-08-08T02:57:20Z</time>
      </trkpt>
      <trkpt lat="50.25308" lon="3.53311">
        <ele>72.72</ele>
        <time>2021-08-08T02:57:28Z</time>
      </trkpt>
      <trkpt lat="50.25243" lon="3.53318">
        <ele>69.83</ele>
        <time>2021-08-08T02:57:38Z</time>
      </trkpt>
      <trkpt lat="50.25214" lon="3.53327">
        <ele>69.83</ele>
        <time>2021-08-08T02:57:43Z</time>
      </trkpt>
      <trkpt lat="50.25209" lon="3.53331">
        <ele>69.35</ele>
        <time>2021-08-08T02:57:44Z</time>
      </trkpt>
      <trkpt lat="50.25205" lon="3.53335">
        <ele>69.35</ele>
        <time>2021-08-08T02:57:45Z</time>
      </trkpt>
      <trkpt lat="50.25201" lon="3.53341">
        <ele>69.35</ele>
        <time>2021-08-08T02:57:46Z</time>
      </trkpt>
      <trkpt lat="50.25198" lon="3.53346">
        <ele>69.35</ele>
        <time>2021-08-08T02:57:47Z</time>
      </trkpt>
      <trkpt lat="50.25186" lon="3.5337">
        <ele>69.35</ele>
        <time>2021-08-08T02:57:51Z</time>
      </trkpt>
      <trkpt lat="50.25152" lon="3.53412">
        <ele>67.91</ele>
        <time>2021-08-08T02:57:59Z</time>
      </trkpt>
      <trkpt lat="50.25148" lon="3.53417">
        <ele>67.91</ele>
        <time>2021-08-08T02:58:00Z</time>
      </trkpt>
      <trkpt lat="50.25129" lon="3.53443">
        <ele>69.35</ele>
        <time>2021-08-08T02:58:06Z</time>
      </trkpt>
      <trkpt lat="50.25127" lon="3.53447">
        <ele>69.35</ele>
        <time>2021-08-08T02:58:07Z</time>
      </trkpt>
      <trkpt lat="50.25112" lon="3.53479">
        <ele>70.31</ele>
        <time>2021-08-08T02:58:14Z</time>
      </trkpt>
      <trkpt lat="50.25084" lon="3.53534">
        <ele>71.27</ele>
        <time>2021-08-08T02:58:26Z</time>
      </trkpt>
      <trkpt lat="50.25058" lon="3.53582">
        <ele>72.24</ele>
        <time>2021-08-08T02:58:36Z</time>
      </trkpt>
      <trkpt lat="50.25033" lon="3.53633">
        <ele>73.2</ele>
        <time>2021-08-08T02:58:46Z</time>
      </trkpt>
      <trkpt lat="50.25031" lon="3.53637">
        <ele>73.2</ele>
        <time>2021-08-08T02:58:47Z</time>
      </trkpt>
      <trkpt lat="50.25004" lon="3.53691">
        <ele>73.2</ele>
        <time>2021-08-08T02:58:57Z</time>
      </trkpt>
      <trkpt lat="50.24973" lon="3.53736">
        <ele>73.2</ele>
        <time>2021-08-08T02:59:06Z</time>
      </trkpt>
      <trkpt lat="50.2496" lon="3.53748">
        <ele>72.24</ele>
        <time>2021-08-08T02:59:10Z</time>
      </trkpt>
      <trkpt lat="50.24956" lon="3.53745">
        <ele>71.27</ele>
        <time>2021-08-08T02:59:11Z</time>
      </trkpt>
      <trkpt lat="50.24947" lon="3.53734">
        <ele>71.27</ele>
        <time>2021-08-08T02:59:14Z</time>
      </trkpt>
      <trkpt lat="50.24943" lon="3.53732">
        <ele>70.31</ele>
        <time>2021-08-08T02:59:15Z</time>
      </trkpt>
      <trkpt lat="50.24937" lon="3.53729">
        <ele>70.31</ele>
        <time>2021-08-08T02:59:16Z</time>
      </trkpt>
      <trkpt lat="50.24907" lon="3.53721">
        <ele>67.91</ele>
        <time>2021-08-08T02:59:21Z</time>
      </trkpt>
      <trkpt lat="50.249" lon="3.53721">
        <ele>66.95</ele>
        <time>2021-08-08T02:59:22Z</time>
      </trkpt>
      <trkpt lat="50.24894" lon="3.53723">
        <ele>66.95</ele>
        <time>2021-08-08T02:59:23Z</time>
      </trkpt>
      <trkpt lat="50.24889" lon="3.53725">
        <ele>66.95</ele>
        <time>2021-08-08T02:59:24Z</time>
      </trkpt>
      <trkpt lat="50.24883" lon="3.5373">
        <ele>66.47</ele>
        <time>2021-08-08T02:59:25Z</time>
      </trkpt>
      <trkpt lat="50.24879" lon="3.53735">
        <ele>66.47</ele>
        <time>2021-08-08T02:59:26Z</time>
      </trkpt>
      <trkpt lat="50.24875" lon="3.5374">
        <ele>66.47</ele>
        <time>2021-08-08T02:59:27Z</time>
      </trkpt>
      <trkpt lat="50.24871" lon="3.53746">
        <ele>66.47</ele>
        <time>2021-08-08T02:59:28Z</time>
      </trkpt>
      <trkpt lat="50.24867" lon="3.53754">
        <ele>66.47</ele>
        <time>2021-08-08T02:59:29Z</time>
      </trkpt>
      <trkpt lat="50.24837" lon="3.53807">
        <ele>65.51</ele>
        <time>2021-08-08T02:59:37Z</time>
      </trkpt>
      <trkpt lat="50.24834" lon="3.53814">
        <ele>65.51</ele>
        <time>2021-08-08T02:59:38Z</time>
      </trkpt>
      <trkpt lat="50.24804" lon="3.53867">
        <ele>62.62</ele>
        <time>2021-08-08T02:59:46Z</time>
      </trkpt>
      <trkpt lat="50.24801" lon="3.53873">
        <ele>62.62</ele>
        <time>2021-08-08T02:59:47Z</time>
      </trkpt>
      <trkpt lat="50.248" lon="3.5388">
        <ele>62.14</ele>
        <time>2021-08-08T02:59:48Z</time>
      </trkpt>
      <trkpt lat="50.24799" lon="3.53886">
        <ele>62.14</ele>
        <time>2021-08-08T02:59:49Z</time>
      </trkpt>
      <trkpt lat="50.248" lon="3.53891">
        <ele>62.14</ele>
        <time>2021-08-08T02:59:50Z</time>
      </trkpt>
      <trkpt lat="50.248" lon="3.53896">
        <ele>62.14</ele>
        <time>2021-08-08T02:59:51Z</time>
      </trkpt>
      <trkpt lat="50.24801" lon="3.53899">
        <ele>62.14</ele>
        <time>2021-08-08T02:59:52Z</time>
      </trkpt>
      <trkpt lat="50.24801" lon="3.53901">
        <ele>62.14</ele>
        <time>2021-08-08T02:59:53Z</time>
      </trkpt>
      <trkpt lat="50.248" lon="3.53904">
        <ele>62.14</ele>
        <time>2021-08-08T02:59:54Z</time>
      </trkpt>
      <trkpt lat="50.24802" lon="3.53924">
        <ele>62.14</ele>
        <time>2021-08-08T03:00:00Z</time>
      </trkpt>
      <trkpt lat="50.24806" lon="3.5398">
        <ele>63.1</ele>
        <time>2021-08-08T03:00:09Z</time>
      </trkpt>
      <trkpt lat="50.24807" lon="3.54039">
        <ele>63.1</ele>
        <time>2021-08-08T03:00:17Z</time>
      </trkpt>
      <trkpt lat="50.24799" lon="3.54108">
        <ele>60.22</ele>
        <time>2021-08-08T03:00:25Z</time>
      </trkpt>
      <trkpt lat="50.2479" lon="3.54162">
        <ele>59.26</ele>
        <time>2021-08-08T03:00:32Z</time>
      </trkpt>
      <trkpt lat="50.2478" lon="3.54199">
        <ele>61.18</ele>
        <time>2021-08-08T03:00:39Z</time>
      </trkpt>
      <trkpt lat="50.24775" lon="3.54225">
        <ele>60.22</ele>
        <time>2021-08-08T03:00:44Z</time>
      </trkpt>
      <trkpt lat="50.24765" lon="3.54256">
        <ele>56.86</ele>
        <time>2021-08-08T03:00:50Z</time>
      </trkpt>
      <trkpt lat="50.24753" lon="3.54273">
        <ele>55.41</ele>
        <time>2021-08-08T03:00:55Z</time>
      </trkpt>
      <trkpt lat="50.24745" lon="3.54294">
        <ele>56.37</ele>
        <time>2021-08-08T03:01:01Z</time>
      </trkpt>
      <trkpt lat="50.24735" lon="3.54338">
        <ele>58.78</ele>
        <time>2021-08-08T03:01:11Z</time>
      </trkpt>
      <trkpt lat="50.24724" lon="3.54379">
        <ele>58.78</ele>
        <time>2021-08-08T03:01:19Z</time>
      </trkpt>
      <trkpt lat="50.24712" lon="3.54409">
        <ele>59.26</ele>
        <time>2021-08-08T03:01:26Z</time>
      </trkpt>
      <trkpt lat="50.247" lon="3.54437">
        <ele>60.22</ele>
        <time>2021-08-08T03:01:33Z</time>
      </trkpt>
      <trkpt lat="50.24695" lon="3.54451">
        <ele>60.7</ele>
        <time>2021-08-08T03:01:40Z</time>
      </trkpt>
      <trkpt lat="50.24694" lon="3.54453">
        <ele>62.14</ele>
        <time>2021-08-08T03:01:43Z</time>
      </trkpt>
      <trkpt lat="50.24694" lon="3.54453">
        <ele>62.14</ele>
        <time>2021-08-08T03:01:44Z</time>
      </trkpt>
      <trkpt lat="50.24694" lon="3.54455">
        <ele>61.18</ele>
        <time>2021-08-08T03:01:48Z</time>
      </trkpt>
      <trkpt lat="50.24689" lon="3.54479">
        <ele>61.18</ele>
        <time>2021-08-08T03:01:53Z</time>
      </trkpt>
      <trkpt lat="50.24682" lon="3.54538">
        <ele>59.74</ele>
        <time>2021-08-08T03:02:02Z</time>
      </trkpt>
      <trkpt lat="50.2468" lon="3.54588">
        <ele>59.74</ele>
        <time>2021-08-08T03:02:09Z</time>
      </trkpt>
      <trkpt lat="50.24679" lon="3.54596">
        <ele>59.74</ele>
        <time>2021-08-08T03:02:10Z</time>
      </trkpt>
      <trkpt lat="50.24673" lon="3.54658">
        <ele>59.26</ele>
        <time>2021-08-08T03:02:18Z</time>
      </trkpt>
      <trkpt lat="50.24672" lon="3.54667">
        <ele>59.26</ele>
        <time>2021-08-08T03:02:19Z</time>
      </trkpt>
      <trkpt lat="50.24667" lon="3.54729">
        <ele>60.7</ele>
        <time>2021-08-08T03:02:26Z</time>
      </trkpt>
      <trkpt lat="50.24667" lon="3.54737">
        <ele>60.7</ele>
        <time>2021-08-08T03:02:27Z</time>
      </trkpt>
      <trkpt lat="50.24669" lon="3.54781">
        <ele>62.14</ele>
        <time>2021-08-08T03:02:34Z</time>
      </trkpt>
      <trkpt lat="50.24672" lon="3.54808">
        <ele>63.1</ele>
        <time>2021-08-08T03:02:39Z</time>
      </trkpt>
      <trkpt lat="50.24676" lon="3.54838">
        <ele>61.66</ele>
        <time>2021-08-08T03:02:43Z</time>
      </trkpt>
      <trkpt lat="50.24681" lon="3.54873">
        <ele>61.18</ele>
        <time>2021-08-08T03:02:48Z</time>
      </trkpt>
      <trkpt lat="50.24683" lon="3.5492">
        <ele>60.7</ele>
        <time>2021-08-08T03:02:55Z</time>
      </trkpt>
      <trkpt lat="50.24684" lon="3.54988">
        <ele>60.22</ele>
        <time>2021-08-08T03:03:05Z</time>
      </trkpt>
      <trkpt lat="50.24684" lon="3.54995">
        <ele>60.22</ele>
        <time>2021-08-08T03:03:06Z</time>
      </trkpt>
      <trkpt lat="50.24685" lon="3.55003">
        <ele>60.22</ele>
        <time>2021-08-08T03:03:07Z</time>
      </trkpt>
      <trkpt lat="50.24688" lon="3.55071">
        <ele>59.26</ele>
        <time>2021-08-08T03:03:16Z</time>
      </trkpt>
      <trkpt lat="50.24689" lon="3.55085">
        <ele>59.26</ele>
        <time>2021-08-08T03:03:18Z</time>
      </trkpt>
      <trkpt lat="50.24689" lon="3.55092">
        <ele>59.26</ele>
        <time>2021-08-08T03:03:19Z</time>
      </trkpt>
      <trkpt lat="50.24689" lon="3.55099">
        <ele>59.26</ele>
        <time>2021-08-08T03:03:20Z</time>
      </trkpt>
      <trkpt lat="50.24685" lon="3.5515">
        <ele>58.78</ele>
        <time>2021-08-08T03:03:27Z</time>
      </trkpt>
      <trkpt lat="50.24683" lon="3.55158">
        <ele>58.78</ele>
        <time>2021-08-08T03:03:28Z</time>
      </trkpt>
      <trkpt lat="50.24682" lon="3.55165">
        <ele>58.78</ele>
        <time>2021-08-08T03:03:29Z</time>
      </trkpt>
      <trkpt lat="50.24677" lon="3.55198">
        <ele>60.22</ele>
        <time>2021-08-08T03:03:34Z</time>
      </trkpt>
      <trkpt lat="50.24668" lon="3.55247">
        <ele>60.22</ele>
        <time>2021-08-08T03:03:41Z</time>
      </trkpt>
      <trkpt lat="50.24657" lon="3.55333">
        <ele>58.78</ele>
        <time>2021-08-08T03:03:52Z</time>
      </trkpt>
      <trkpt lat="50.24642" lon="3.5539">
        <ele>58.78</ele>
        <time>2021-08-08T03:04:00Z</time>
      </trkpt>
      <trkpt lat="50.24632" lon="3.55451">
        <ele>58.78</ele>
        <time>2021-08-08T03:04:08Z</time>
      </trkpt>
      <trkpt lat="50.24623" lon="3.55515">
        <ele>60.22</ele>
        <time>2021-08-08T03:04:17Z</time>
      </trkpt>
      <trkpt lat="50.24621" lon="3.55528">
        <ele>60.22</ele>
        <time>2021-08-08T03:04:19Z</time>
      </trkpt>
      <trkpt lat="50.2462" lon="3.55534">
        <ele>60.22</ele>
        <time>2021-08-08T03:04:20Z</time>
      </trkpt>
      <trkpt lat="50.24607" lon="3.55574">
        <ele>60.7</ele>
        <time>2021-08-08T03:04:27Z</time>
      </trkpt>
      <trkpt lat="50.24596" lon="3.55596">
        <ele>60.7</ele>
        <time>2021-08-08T03:04:31Z</time>
      </trkpt>
      <trkpt lat="50.24594" lon="3.55601">
        <ele>60.7</ele>
        <time>2021-08-08T03:04:32Z</time>
      </trkpt>
      <trkpt lat="50.24576" lon="3.55632">
        <ele>61.66</ele>
        <time>2021-08-08T03:04:39Z</time>
      </trkpt>
      <trkpt lat="50.24561" lon="3.55657">
        <ele>61.66</ele>
        <time>2021-08-08T03:04:44Z</time>
      </trkpt>
      <trkpt lat="50.24542" lon="3.55694">
        <ele>62.14</ele>
        <time>2021-08-08T03:04:53Z</time>
      </trkpt>
      <trkpt lat="50.2453" lon="3.55722">
        <ele>62.62</ele>
        <time>2021-08-08T03:05:00Z</time>
      </trkpt>
      <trkpt lat="50.24528" lon="3.55729">
        <ele>62.62</ele>
        <time>2021-08-08T03:05:01Z</time>
      </trkpt>
      <trkpt lat="50.24526" lon="3.55736">
        <ele>62.62</ele>
        <time>2021-08-08T03:05:02Z</time>
      </trkpt>
      <trkpt lat="50.24519" lon="3.55764">
        <ele>62.62</ele>
        <time>2021-08-08T03:05:06Z</time>
      </trkpt>
      <trkpt lat="50.24514" lon="3.55801">
        <ele>62.62</ele>
        <time>2021-08-08T03:05:12Z</time>
      </trkpt>
      <trkpt lat="50.24513" lon="3.55821">
        <ele>62.62</ele>
        <time>2021-08-08T03:05:15Z</time>
      </trkpt>
      <trkpt lat="50.24513" lon="3.55828">
        <ele>62.62</ele>
        <time>2021-08-08T03:05:16Z</time>
      </trkpt>
      <trkpt lat="50.24511" lon="3.5585">
        <ele>63.1</ele>
        <time>2021-08-08T03:05:19Z</time>
      </trkpt>
      <trkpt lat="50.24509" lon="3.55876">
        <ele>63.1</ele>
        <time>2021-08-08T03:05:23Z</time>
      </trkpt>
      <trkpt lat="50.24499" lon="3.55925">
        <ele>63.58</ele>
        <time>2021-08-08T03:05:31Z</time>
      </trkpt>
      <trkpt lat="50.24484" lon="3.55953">
        <ele>64.07</ele>
        <time>2021-08-08T03:05:37Z</time>
      </trkpt>
      <trkpt lat="50.24471" lon="3.55971">
        <ele>64.07</ele>
        <time>2021-08-08T03:05:41Z</time>
      </trkpt>
      <trkpt lat="50.24447" lon="3.56004">
        <ele>64.07</ele>
        <time>2021-08-08T03:05:48Z</time>
      </trkpt>
      <trkpt lat="50.24431" lon="3.5603">
        <ele>62.62</ele>
        <time>2021-08-08T03:05:53Z</time>
      </trkpt>
      <trkpt lat="50.24398" lon="3.56086">
        <ele>63.1</ele>
        <time>2021-08-08T03:06:03Z</time>
      </trkpt>
      <trkpt lat="50.24397" lon="3.56091">
        <ele>63.1</ele>
        <time>2021-08-08T03:06:04Z</time>
      </trkpt>
      <trkpt lat="50.24398" lon="3.56096">
        <ele>63.1</ele>
        <time>2021-08-08T03:06:05Z</time>
      </trkpt>
      <trkpt lat="50.24399" lon="3.56101">
        <ele>63.1</ele>
        <time>2021-08-08T03:06:06Z</time>
      </trkpt>
      <trkpt lat="50.24399" lon="3.56104">
        <ele>63.1</ele>
        <time>2021-08-08T03:06:07Z</time>
      </trkpt>
      <trkpt lat="50.244" lon="3.56108">
        <ele>64.55</ele>
        <time>2021-08-08T03:06:08Z</time>
      </trkpt>
      <trkpt lat="50.24402" lon="3.56112">
        <ele>64.55</ele>
        <time>2021-08-08T03:06:09Z</time>
      </trkpt>
      <trkpt lat="50.24404" lon="3.56115">
        <ele>64.55</ele>
        <time>2021-08-08T03:06:10Z</time>
      </trkpt>
      <trkpt lat="50.24406" lon="3.56118">
        <ele>65.03</ele>
        <time>2021-08-08T03:06:11Z</time>
      </trkpt>
      <trkpt lat="50.24414" lon="3.56141">
        <ele>66.47</ele>
        <time>2021-08-08T03:06:18Z</time>
      </trkpt>
      <trkpt lat="50.24423" lon="3.56162">
        <ele>67.43</ele>
        <time>2021-08-08T03:06:26Z</time>
      </trkpt>
      <trkpt lat="50.24434" lon="3.56181">
        <ele>69.35</ele>
        <time>2021-08-08T03:06:34Z</time>
      </trkpt>
      <trkpt lat="50.24445" lon="3.56198">
        <ele>71.27</ele>
        <time>2021-08-08T03:06:42Z</time>
      </trkpt>
      <trkpt lat="50.24456" lon="3.56211">
        <ele>73.2</ele>
        <time>2021-08-08T03:06:50Z</time>
      </trkpt>
      <trkpt lat="50.24468" lon="3.56221">
        <ele>74.64</ele>
        <time>2021-08-08T03:06:58Z</time>
      </trkpt>
      <trkpt lat="50.24482" lon="3.56232">
        <ele>75.6</ele>
        <time>2021-08-08T03:07:06Z</time>
      </trkpt>
      <trkpt lat="50.24498" lon="3.56246">
        <ele>78</ele>
        <time>2021-08-08T03:07:15Z</time>
      </trkpt>
      <trkpt lat="50.24514" lon="3.56259">
        <ele>79.45</ele>
        <time>2021-08-08T03:07:24Z</time>
      </trkpt>
      <trkpt lat="50.2453" lon="3.56267">
        <ele>80.89</ele>
        <time>2021-08-08T03:07:33Z</time>
      </trkpt>
      <trkpt lat="50.24544" lon="3.56275">
        <ele>82.33</ele>
        <time>2021-08-08T03:07:41Z</time>
      </trkpt>
      <trkpt lat="50.24559" lon="3.56286">
        <ele>83.77</ele>
        <time>2021-08-08T03:07:49Z</time>
      </trkpt>
      <trkpt lat="50.24578" lon="3.56305">
        <ele>84.73</ele>
        <time>2021-08-08T03:07:59Z</time>
      </trkpt>
      <trkpt lat="50.246" lon="3.56325">
        <ele>85.69</ele>
        <time>2021-08-08T03:08:09Z</time>
      </trkpt>
      <trkpt lat="50.24623" lon="3.56343">
        <ele>86.66</ele>
        <time>2021-08-08T03:08:19Z</time>
      </trkpt>
      <trkpt lat="50.24649" lon="3.56363">
        <ele>87.14</ele>
        <time>2021-08-08T03:08:29Z</time>
      </trkpt>
      <trkpt lat="50.24678" lon="3.56384">
        <ele>87.62</ele>
        <time>2021-08-08T03:08:39Z</time>
      </trkpt>
      <trkpt lat="50.24703" lon="3.56409">
        <ele>88.1</ele>
        <time>2021-08-08T03:08:48Z</time>
      </trkpt>
      <trkpt lat="50.24705" lon="3.56446">
        <ele>89.54</ele>
        <time>2021-08-08T03:08:55Z</time>
      </trkpt>
      <trkpt lat="50.24704" lon="3.56507">
        <ele>90.5</ele>
        <time>2021-08-08T03:09:06Z</time>
      </trkpt>
      <trkpt lat="50.24703" lon="3.56567">
        <ele>90.98</ele>
        <time>2021-08-08T03:09:16Z</time>
      </trkpt>
      <trkpt lat="50.24703" lon="3.56615">
        <ele>91.94</ele>
        <time>2021-08-08T03:09:24Z</time>
      </trkpt>
      <trkpt lat="50.24701" lon="3.56687">
        <ele>92.9</ele>
        <time>2021-08-08T03:09:36Z</time>
      </trkpt>
      <trkpt lat="50.247" lon="3.56712">
        <ele>92.9</ele>
        <time>2021-08-08T03:09:40Z</time>
      </trkpt>
      <trkpt lat="50.24701" lon="3.56717">
        <ele>92.9</ele>
        <time>2021-08-08T03:09:41Z</time>
      </trkpt>
      <trkpt lat="50.24701" lon="3.56723">
        <ele>92.9</ele>
        <time>2021-08-08T03:09:42Z</time>
      </trkpt>
      <trkpt lat="50.24696" lon="3.56786">
        <ele>93.39</ele>
        <time>2021-08-08T03:09:52Z</time>
      </trkpt>
      <trkpt lat="50.24693" lon="3.56864">
        <ele>94.83</ele>
        <time>2021-08-08T03:10:04Z</time>
      </trkpt>
      <trkpt lat="50.24691" lon="3.56927">
        <ele>95.31</ele>
        <time>2021-08-08T03:10:14Z</time>
      </trkpt>
      <trkpt lat="50.2469" lon="3.56988">
        <ele>96.27</ele>
        <time>2021-08-08T03:10:23Z</time>
      </trkpt>
      <trkpt lat="50.24689" lon="3.57051">
        <ele>96.27</ele>
        <time>2021-08-08T03:10:32Z</time>
      </trkpt>
      <trkpt lat="50.2469" lon="3.57128">
        <ele>96.75</ele>
        <time>2021-08-08T03:10:43Z</time>
      </trkpt>
      <trkpt lat="50.2469" lon="3.57197">
        <ele>97.71</ele>
        <time>2021-08-08T03:10:53Z</time>
      </trkpt>
      <trkpt lat="50.2469" lon="3.57285">
        <ele>97.71</ele>
        <time>2021-08-08T03:11:05Z</time>
      </trkpt>
      <trkpt lat="50.24689" lon="3.57367">
        <ele>98.19</ele>
        <time>2021-08-08T03:11:16Z</time>
      </trkpt>
      <trkpt lat="50.2469" lon="3.57435">
        <ele>98.19</ele>
        <time>2021-08-08T03:11:25Z</time>
      </trkpt>
      <trkpt lat="50.24691" lon="3.575">
        <ele>96.75</ele>
        <time>2021-08-08T03:11:33Z</time>
      </trkpt>
      <trkpt lat="50.24691" lon="3.5757">
        <ele>96.27</ele>
        <time>2021-08-08T03:11:41Z</time>
      </trkpt>
      <trkpt lat="50.24692" lon="3.57578">
        <ele>96.27</ele>
        <time>2021-08-08T03:11:42Z</time>
      </trkpt>
      <trkpt lat="50.24692" lon="3.57586">
        <ele>96.27</ele>
        <time>2021-08-08T03:11:43Z</time>
      </trkpt>
      <trkpt lat="50.24692" lon="3.57602">
        <ele>96.27</ele>
        <time>2021-08-08T03:11:45Z</time>
      </trkpt>
      <trkpt lat="50.2469" lon="3.57665">
        <ele>96.27</ele>
        <time>2021-08-08T03:11:53Z</time>
      </trkpt>
      <trkpt lat="50.24686" lon="3.57761">
        <ele>96.27</ele>
        <time>2021-08-08T03:12:05Z</time>
      </trkpt>
      <trkpt lat="50.24677" lon="3.57848">
        <ele>95.79</ele>
        <time>2021-08-08T03:12:15Z</time>
      </trkpt>
      <trkpt lat="50.24664" lon="3.5796">
        <ele>95.31</ele>
        <time>2021-08-08T03:12:28Z</time>
      </trkpt>
      <trkpt lat="50.24655" lon="3.58038">
        <ele>94.83</ele>
        <time>2021-08-08T03:12:37Z</time>
      </trkpt>
      <trkpt lat="50.24635" lon="3.58111">
        <ele>93.87</ele>
        <time>2021-08-08T03:12:46Z</time>
      </trkpt>
      <trkpt lat="50.24606" lon="3.58191">
        <ele>93.87</ele>
        <time>2021-08-08T03:12:57Z</time>
      </trkpt>
      <trkpt lat="50.24584" lon="3.5826">
        <ele>93.87</ele>
        <time>2021-08-08T03:13:06Z</time>
      </trkpt>
      <trkpt lat="50.24566" lon="3.58319">
        <ele>93.87</ele>
        <time>2021-08-08T03:13:14Z</time>
      </trkpt>
      <trkpt lat="50.24563" lon="3.58327">
        <ele>93.87</ele>
        <time>2021-08-08T03:13:15Z</time>
      </trkpt>
      <trkpt lat="50.24559" lon="3.58342">
        <ele>93.87</ele>
        <time>2021-08-08T03:13:17Z</time>
      </trkpt>
      <trkpt lat="50.24557" lon="3.58349">
        <ele>93.87</ele>
        <time>2021-08-08T03:13:18Z</time>
      </trkpt>
      <trkpt lat="50.24544" lon="3.58395">
        <ele>93.87</ele>
        <time>2021-08-08T03:13:24Z</time>
      </trkpt>
      <trkpt lat="50.24541" lon="3.58403">
        <ele>93.87</ele>
        <time>2021-08-08T03:13:25Z</time>
      </trkpt>
      <trkpt lat="50.2454" lon="3.58411">
        <ele>93.87</ele>
        <time>2021-08-08T03:13:26Z</time>
      </trkpt>
      <trkpt lat="50.24538" lon="3.58418">
        <ele>93.87</ele>
        <time>2021-08-08T03:13:27Z</time>
      </trkpt>
      <trkpt lat="50.24536" lon="3.58426">
        <ele>93.39</ele>
        <time>2021-08-08T03:13:28Z</time>
      </trkpt>
      <trkpt lat="50.24522" lon="3.58499">
        <ele>93.87</ele>
        <time>2021-08-08T03:13:37Z</time>
      </trkpt>
      <trkpt lat="50.24512" lon="3.58551">
        <ele>93.39</ele>
        <time>2021-08-08T03:13:44Z</time>
      </trkpt>
      <trkpt lat="50.24501" lon="3.58599">
        <ele>93.39</ele>
        <time>2021-08-08T03:13:51Z</time>
      </trkpt>
      <trkpt lat="50.24498" lon="3.58605">
        <ele>93.39</ele>
        <time>2021-08-08T03:13:52Z</time>
      </trkpt>
      <trkpt lat="50.24495" lon="3.58609">
        <ele>93.39</ele>
        <time>2021-08-08T03:13:53Z</time>
      </trkpt>
      <trkpt lat="50.2449" lon="3.58613">
        <ele>91.94</ele>
        <time>2021-08-08T03:13:54Z</time>
      </trkpt>
      <trkpt lat="50.24486" lon="3.58617">
        <ele>91.94</ele>
        <time>2021-08-08T03:13:55Z</time>
      </trkpt>
      <trkpt lat="50.24443" lon="3.58645">
        <ele>90.98</ele>
        <time>2021-08-08T03:14:04Z</time>
      </trkpt>
      <trkpt lat="50.24409" lon="3.58672">
        <ele>89.54</ele>
        <time>2021-08-08T03:14:11Z</time>
      </trkpt>
      <trkpt lat="50.24401" lon="3.5868">
        <ele>89.54</ele>
        <time>2021-08-08T03:14:13Z</time>
      </trkpt>
      <trkpt lat="50.24397" lon="3.58686">
        <ele>89.54</ele>
        <time>2021-08-08T03:14:14Z</time>
      </trkpt>
      <trkpt lat="50.2438" lon="3.58709">
        <ele>89.06</ele>
        <time>2021-08-08T03:14:18Z</time>
      </trkpt>
      <trkpt lat="50.24373" lon="3.58723">
        <ele>88.58</ele>
        <time>2021-08-08T03:14:20Z</time>
      </trkpt>
      <trkpt lat="50.24355" lon="3.58782">
        <ele>87.62</ele>
        <time>2021-08-08T03:14:27Z</time>
      </trkpt>
      <trkpt lat="50.24346" lon="3.58818">
        <ele>86.18</ele>
        <time>2021-08-08T03:14:31Z</time>
      </trkpt>
      <trkpt lat="50.24329" lon="3.58863">
        <ele>87.62</ele>
        <time>2021-08-08T03:14:37Z</time>
      </trkpt>
      <trkpt lat="50.24311" lon="3.58913">
        <ele>87.62</ele>
        <time>2021-08-08T03:14:44Z</time>
      </trkpt>
      <trkpt lat="50.24284" lon="3.58978">
        <ele>86.66</ele>
        <time>2021-08-08T03:14:53Z</time>
      </trkpt>
      <trkpt lat="50.24254" lon="3.59034">
        <ele>83.29</ele>
        <time>2021-08-08T03:15:00Z</time>
      </trkpt>
      <trkpt lat="50.24249" lon="3.5904">
        <ele>83.29</ele>
        <time>2021-08-08T03:15:01Z</time>
      </trkpt>
      <trkpt lat="50.24243" lon="3.59046">
        <ele>82.33</ele>
        <time>2021-08-08T03:15:02Z</time>
      </trkpt>
      <trkpt lat="50.24237" lon="3.59051">
        <ele>81.37</ele>
        <time>2021-08-08T03:15:03Z</time>
      </trkpt>
      <trkpt lat="50.242" lon="3.59075">
        <ele>77.04</ele>
        <time>2021-08-08T03:15:08Z</time>
      </trkpt>
      <trkpt lat="50.24168" lon="3.59097">
        <ele>75.12</ele>
        <time>2021-08-08T03:15:13Z</time>
      </trkpt>
      <trkpt lat="50.24159" lon="3.59106">
        <ele>75.12</ele>
        <time>2021-08-08T03:15:15Z</time>
      </trkpt>
      <trkpt lat="50.24155" lon="3.59112">
        <ele>75.12</ele>
        <time>2021-08-08T03:15:16Z</time>
      </trkpt>
      <trkpt lat="50.24152" lon="3.59119">
        <ele>75.12</ele>
        <time>2021-08-08T03:15:17Z</time>
      </trkpt>
      <trkpt lat="50.24127" lon="3.59191">
        <ele>74.16</ele>
        <time>2021-08-08T03:15:26Z</time>
      </trkpt>
      <trkpt lat="50.24111" lon="3.59235">
        <ele>74.16</ele>
        <time>2021-08-08T03:15:33Z</time>
      </trkpt>
      <trkpt lat="50.24105" lon="3.59249">
        <ele>75.6</ele>
        <time>2021-08-08T03:15:36Z</time>
      </trkpt>
      <trkpt lat="50.24104" lon="3.59255">
        <ele>75.6</ele>
        <time>2021-08-08T03:15:37Z</time>
      </trkpt>
      <trkpt lat="50.24105" lon="3.5926">
        <ele>76.08</ele>
        <time>2021-08-08T03:15:38Z</time>
      </trkpt>
      <trkpt lat="50.24105" lon="3.59264">
        <ele>76.08</ele>
        <time>2021-08-08T03:15:39Z</time>
      </trkpt>
      <trkpt lat="50.24106" lon="3.5927">
        <ele>76.56</ele>
        <time>2021-08-08T03:15:40Z</time>
      </trkpt>
      <trkpt lat="50.24106" lon="3.59275">
        <ele>76.56</ele>
        <time>2021-08-08T03:15:41Z</time>
      </trkpt>
      <trkpt lat="50.24116" lon="3.5932">
        <ele>77.52</ele>
        <time>2021-08-08T03:15:50Z</time>
      </trkpt>
      <trkpt lat="50.2413" lon="3.59356">
        <ele>78.48</ele>
        <time>2021-08-08T03:15:58Z</time>
      </trkpt>
      <trkpt lat="50.2415" lon="3.59386">
        <ele>79.93</ele>
        <time>2021-08-08T03:16:06Z</time>
      </trkpt>
      <trkpt lat="50.2417" lon="3.59418">
        <ele>81.37</ele>
        <time>2021-08-08T03:16:15Z</time>
      </trkpt>
      <trkpt lat="50.24188" lon="3.59451">
        <ele>83.29</ele>
        <time>2021-08-08T03:16:24Z</time>
      </trkpt>
      <trkpt lat="50.24214" lon="3.59487">
        <ele>85.21</ele>
        <time>2021-08-08T03:16:34Z</time>
      </trkpt>
      <trkpt lat="50.24237" lon="3.59523">
        <ele>86.66</ele>
        <time>2021-08-08T03:16:44Z</time>
      </trkpt>
      <trkpt lat="50.24238" lon="3.59533">
        <ele>86.66</ele>
        <time>2021-08-08T03:16:46Z</time>
      </trkpt>
      <trkpt lat="50.24237" lon="3.59537">
        <ele>86.66</ele>
        <time>2021-08-08T03:16:47Z</time>
      </trkpt>
      <trkpt lat="50.24234" lon="3.59541">
        <ele>86.66</ele>
        <time>2021-08-08T03:16:48Z</time>
      </trkpt>
      <trkpt lat="50.24232" lon="3.59544">
        <ele>87.14</ele>
        <time>2021-08-08T03:16:49Z</time>
      </trkpt>
      <trkpt lat="50.24229" lon="3.59547">
        <ele>87.14</ele>
        <time>2021-08-08T03:16:50Z</time>
      </trkpt>
      <trkpt lat="50.24205" lon="3.59567">
        <ele>88.58</ele>
        <time>2021-08-08T03:16:58Z</time>
      </trkpt>
      <trkpt lat="50.24186" lon="3.59575">
        <ele>90.02</ele>
        <time>2021-08-08T03:17:05Z</time>
      </trkpt>
      <trkpt lat="50.24166" lon="3.59584">
        <ele>91.46</ele>
        <time>2021-08-08T03:17:14Z</time>
      </trkpt>
      <trkpt lat="50.24148" lon="3.59593">
        <ele>92.9</ele>
        <time>2021-08-08T03:17:21Z</time>
      </trkpt>
      <trkpt lat="50.24123" lon="3.59608">
        <ele>94.83</ele>
        <time>2021-08-08T03:17:29Z</time>
      </trkpt>
      <trkpt lat="50.24098" lon="3.59626">
        <ele>96.27</ele>
        <time>2021-08-08T03:17:38Z</time>
      </trkpt>
      <trkpt lat="50.24066" lon="3.59652">
        <ele>97.71</ele>
        <time>2021-08-08T03:17:50Z</time>
      </trkpt>
      <trkpt lat="50.24032" lon="3.59681">
        <ele>98.67</ele>
        <time>2021-08-08T03:18:01Z</time>
      </trkpt>
      <trkpt lat="50.2399" lon="3.59713">
        <ele>98.67</ele>
        <time>2021-08-08T03:18:13Z</time>
      </trkpt>
      <trkpt lat="50.23944" lon="3.59744">
        <ele>99.63</ele>
        <time>2021-08-08T03:18:25Z</time>
      </trkpt>
      <trkpt lat="50.23899" lon="3.59775">
        <ele>102.04</ele>
        <time>2021-08-08T03:18:37Z</time>
      </trkpt>
      <trkpt lat="50.23861" lon="3.59808">
        <ele>102.04</ele>
        <time>2021-08-08T03:18:47Z</time>
      </trkpt>
      <trkpt lat="50.23814" lon="3.59851">
        <ele>102.04</ele>
        <time>2021-08-08T03:18:59Z</time>
      </trkpt>
      <trkpt lat="50.23776" lon="3.59888">
        <ele>102.04</ele>
        <time>2021-08-08T03:19:09Z</time>
      </trkpt>
      <trkpt lat="50.23771" lon="3.59899">
        <ele>102.04</ele>
        <time>2021-08-08T03:19:12Z</time>
      </trkpt>
      <trkpt lat="50.23772" lon="3.59904">
        <ele>102.04</ele>
        <time>2021-08-08T03:19:13Z</time>
      </trkpt>
      <trkpt lat="50.23789" lon="3.59934">
        <ele>103</ele>
        <time>2021-08-08T03:19:20Z</time>
      </trkpt>
      <trkpt lat="50.23824" lon="3.59988">
        <ele>103.96</ele>
        <time>2021-08-08T03:19:31Z</time>
      </trkpt>
      <trkpt lat="50.23851" lon="3.60038">
        <ele>104.44</ele>
        <time>2021-08-08T03:19:39Z</time>
      </trkpt>
      <trkpt lat="50.23877" lon="3.60097">
        <ele>104.92</ele>
        <time>2021-08-08T03:19:48Z</time>
      </trkpt>
      <trkpt lat="50.23915" lon="3.60187">
        <ele>105.88</ele>
        <time>2021-08-08T03:20:01Z</time>
      </trkpt>
      <trkpt lat="50.23945" lon="3.60256">
        <ele>107.32</ele>
        <time>2021-08-08T03:20:11Z</time>
      </trkpt>
      <trkpt lat="50.23948" lon="3.60263">
        <ele>107.32</ele>
        <time>2021-08-08T03:20:12Z</time>
      </trkpt>
      <trkpt lat="50.23994" lon="3.60329">
        <ele>108.29</ele>
        <time>2021-08-08T03:20:24Z</time>
      </trkpt>
      <trkpt lat="50.2401" lon="3.60356">
        <ele>109.25</ele>
        <time>2021-08-08T03:20:30Z</time>
      </trkpt>
      <trkpt lat="50.2401" lon="3.60359">
        <ele>109.25</ele>
        <time>2021-08-08T03:20:31Z</time>
      </trkpt>
      <trkpt lat="50.24009" lon="3.60363">
        <ele>109.25</ele>
        <time>2021-08-08T03:20:36Z</time>
      </trkpt>
      <trkpt lat="50.24009" lon="3.60363">
        <ele>109.25</ele>
        <time>2021-08-08T03:20:51Z</time>
      </trkpt>
      <trkpt lat="50.24009" lon="3.60363">
        <ele>109.25</ele>
        <time>2021-08-08T03:21:07Z</time>
      </trkpt>
      <trkpt lat="50.24009" lon="3.60363">
        <ele>109.25</ele>
        <time>2021-08-08T03:21:22Z</time>
      </trkpt>
      <trkpt lat="50.24009" lon="3.60364">
        <ele>109.73</ele>
        <time>2021-08-08T03:21:34Z</time>
      </trkpt>
      <trkpt lat="50.24009" lon="3.60365">
        <ele>109.73</ele>
        <time>2021-08-08T03:21:51Z</time>
      </trkpt>
      <trkpt lat="50.24009" lon="3.60365">
        <ele>109.73</ele>
        <time>2021-08-08T03:22:06Z</time>
      </trkpt>
      <trkpt lat="50.24009" lon="3.60369">
        <ele>109.73</ele>
        <time>2021-08-08T03:22:15Z</time>
      </trkpt>
      <trkpt lat="50.24007" lon="3.60376">
        <ele>109.73</ele>
        <time>2021-08-08T03:22:24Z</time>
      </trkpt>
      <trkpt lat="50.24004" lon="3.60392">
        <ele>109.73</ele>
        <time>2021-08-08T03:22:30Z</time>
      </trkpt>
      <trkpt lat="50.23999" lon="3.60421">
        <ele>109.73</ele>
        <time>2021-08-08T03:22:36Z</time>
      </trkpt>
      <trkpt lat="50.23994" lon="3.60463">
        <ele>109.73</ele>
        <time>2021-08-08T03:22:43Z</time>
      </trkpt>
      <trkpt lat="50.23983" lon="3.60529">
        <ele>110.69</ele>
        <time>2021-08-08T03:22:53Z</time>
      </trkpt>
      <trkpt lat="50.23967" lon="3.6059">
        <ele>111.65</ele>
        <time>2021-08-08T03:23:03Z</time>
      </trkpt>
      <trkpt lat="50.23946" lon="3.60647">
        <ele>112.13</ele>
        <time>2021-08-08T03:23:13Z</time>
      </trkpt>
      <trkpt lat="50.23927" lon="3.60689">
        <ele>113.57</ele>
        <time>2021-08-08T03:23:21Z</time>
      </trkpt>
      <trkpt lat="50.23903" lon="3.60733">
        <ele>114.05</ele>
        <time>2021-08-08T03:23:30Z</time>
      </trkpt>
      <trkpt lat="50.23881" lon="3.60775">
        <ele>115.01</ele>
        <time>2021-08-08T03:23:39Z</time>
      </trkpt>
      <trkpt lat="50.23874" lon="3.6079">
        <ele>115.5</ele>
        <time>2021-08-08T03:23:42Z</time>
      </trkpt>
      <trkpt lat="50.23872" lon="3.60795">
        <ele>115.5</ele>
        <time>2021-08-08T03:23:43Z</time>
      </trkpt>
      <trkpt lat="50.2387" lon="3.608">
        <ele>115.5</ele>
        <time>2021-08-08T03:23:44Z</time>
      </trkpt>
      <trkpt lat="50.23868" lon="3.60806">
        <ele>115.5</ele>
        <time>2021-08-08T03:23:45Z</time>
      </trkpt>
      <trkpt lat="50.23866" lon="3.60811">
        <ele>115.5</ele>
        <time>2021-08-08T03:23:46Z</time>
      </trkpt>
      <trkpt lat="50.23849" lon="3.60861">
        <ele>116.46</ele>
        <time>2021-08-08T03:23:55Z</time>
      </trkpt>
      <trkpt lat="50.23835" lon="3.60907">
        <ele>117.42</ele>
        <time>2021-08-08T03:24:03Z</time>
      </trkpt>
      <trkpt lat="50.23833" lon="3.60913">
        <ele>117.42</ele>
        <time>2021-08-08T03:24:04Z</time>
      </trkpt>
      <trkpt lat="50.23832" lon="3.60919">
        <ele>117.42</ele>
        <time>2021-08-08T03:24:05Z</time>
      </trkpt>
      <trkpt lat="50.23826" lon="3.60983">
        <ele>117.9</ele>
        <time>2021-08-08T03:24:15Z</time>
      </trkpt>
      <trkpt lat="50.23829" lon="3.61054">
        <ele>118.86</ele>
        <time>2021-08-08T03:24:26Z</time>
      </trkpt>
      <trkpt lat="50.23829" lon="3.61061">
        <ele>118.86</ele>
        <time>2021-08-08T03:24:27Z</time>
      </trkpt>
      <trkpt lat="50.23829" lon="3.61074">
        <ele>119.34</ele>
        <time>2021-08-08T03:24:29Z</time>
      </trkpt>
      <trkpt lat="50.23827" lon="3.61115">
        <ele>120.3</ele>
        <time>2021-08-08T03:24:36Z</time>
      </trkpt>
      <trkpt lat="50.23816" lon="3.61139">
        <ele>120.78</ele>
        <time>2021-08-08T03:24:41Z</time>
      </trkpt>
      <trkpt lat="50.23803" lon="3.6115">
        <ele>121.26</ele>
        <time>2021-08-08T03:24:45Z</time>
      </trkpt>
      <trkpt lat="50.23768" lon="3.61166">
        <ele>121.26</ele>
        <time>2021-08-08T03:24:54Z</time>
      </trkpt>
      <trkpt lat="50.23742" lon="3.61184">
        <ele>121.74</ele>
        <time>2021-08-08T03:25:01Z</time>
      </trkpt>
      <trkpt lat="50.23738" lon="3.61187">
        <ele>121.74</ele>
        <time>2021-08-08T03:25:02Z</time>
      </trkpt>
      <trkpt lat="50.23727" lon="3.61196">
        <ele>121.74</ele>
        <time>2021-08-08T03:25:05Z</time>
      </trkpt>
      <trkpt lat="50.23724" lon="3.61199">
        <ele>121.74</ele>
        <time>2021-08-08T03:25:06Z</time>
      </trkpt>
      <trkpt lat="50.23716" lon="3.61204">
        <ele>121.26</ele>
        <time>2021-08-08T03:25:08Z</time>
      </trkpt>
      <trkpt lat="50.23709" lon="3.61211">
        <ele>121.74</ele>
        <time>2021-08-08T03:25:10Z</time>
      </trkpt>
      <trkpt lat="50.23676" lon="3.61247">
        <ele>121.74</ele>
        <time>2021-08-08T03:25:20Z</time>
      </trkpt>
      <trkpt lat="50.23661" lon="3.61268">
        <ele>121.74</ele>
        <time>2021-08-08T03:25:25Z</time>
      </trkpt>
      <trkpt lat="50.23658" lon="3.61272">
        <ele>121.74</ele>
        <time>2021-08-08T03:25:26Z</time>
      </trkpt>
      <trkpt lat="50.23632" lon="3.6132">
        <ele>121.74</ele>
        <time>2021-08-08T03:25:36Z</time>
      </trkpt>
      <trkpt lat="50.2361" lon="3.61363">
        <ele>121.74</ele>
        <time>2021-08-08T03:25:45Z</time>
      </trkpt>
      <trkpt lat="50.23588" lon="3.61407">
        <ele>122.22</ele>
        <time>2021-08-08T03:25:54Z</time>
      </trkpt>
      <trkpt lat="50.23563" lon="3.61466">
        <ele>123.19</ele>
        <time>2021-08-08T03:26:05Z</time>
      </trkpt>
      <trkpt lat="50.23538" lon="3.61513">
        <ele>123.67</ele>
        <time>2021-08-08T03:26:15Z</time>
      </trkpt>
      <trkpt lat="50.23509" lon="3.61559">
        <ele>124.15</ele>
        <time>2021-08-08T03:26:26Z</time>
      </trkpt>
      <trkpt lat="50.23481" lon="3.61605">
        <ele>124.63</ele>
        <time>2021-08-08T03:26:36Z</time>
      </trkpt>
      <trkpt lat="50.23457" lon="3.61651">
        <ele>122.71</ele>
        <time>2021-08-08T03:26:44Z</time>
      </trkpt>
      <trkpt lat="50.23426" lon="3.61718">
        <ele>121.26</ele>
        <time>2021-08-08T03:26:54Z</time>
      </trkpt>
      <trkpt lat="50.23398" lon="3.6178">
        <ele>119.82</ele>
        <time>2021-08-08T03:27:03Z</time>
      </trkpt>
      <trkpt lat="50.23367" lon="3.61861">
        <ele>117.9</ele>
        <time>2021-08-08T03:27:13Z</time>
      </trkpt>
      <trkpt lat="50.23337" lon="3.61947">
        <ele>116.94</ele>
        <time>2021-08-08T03:27:24Z</time>
      </trkpt>
      <trkpt lat="50.23336" lon="3.61955">
        <ele>116.46</ele>
        <time>2021-08-08T03:27:25Z</time>
      </trkpt>
      <trkpt lat="50.23335" lon="3.61964">
        <ele>116.46</ele>
        <time>2021-08-08T03:27:26Z</time>
      </trkpt>
      <trkpt lat="50.23333" lon="3.61978">
        <ele>116.46</ele>
        <time>2021-08-08T03:27:28Z</time>
      </trkpt>
      <trkpt lat="50.2333" lon="3.61992">
        <ele>116.46</ele>
        <time>2021-08-08T03:27:30Z</time>
      </trkpt>
      <trkpt lat="50.23328" lon="3.61997">
        <ele>116.46</ele>
        <time>2021-08-08T03:27:31Z</time>
      </trkpt>
      <trkpt lat="50.23314" lon="3.62037">
        <ele>117.9</ele>
        <time>2021-08-08T03:27:38Z</time>
      </trkpt>
      <trkpt lat="50.23293" lon="3.621">
        <ele>118.86</ele>
        <time>2021-08-08T03:27:49Z</time>
      </trkpt>
      <trkpt lat="50.2327" lon="3.62157">
        <ele>119.82</ele>
        <time>2021-08-08T03:28:00Z</time>
      </trkpt>
      <trkpt lat="50.23241" lon="3.62208">
        <ele>120.3</ele>
        <time>2021-08-08T03:28:11Z</time>
      </trkpt>
      <trkpt lat="50.23221" lon="3.62242">
        <ele>122.22</ele>
        <time>2021-08-08T03:28:19Z</time>
      </trkpt>
      <trkpt lat="50.23205" lon="3.62269">
        <ele>123.19</ele>
        <time>2021-08-08T03:28:28Z</time>
      </trkpt>
      <trkpt lat="50.23204" lon="3.62291">
        <ele>125.59</ele>
        <time>2021-08-08T03:28:33Z</time>
      </trkpt>
      <trkpt lat="50.23211" lon="3.62299">
        <ele>126.07</ele>
        <time>2021-08-08T03:28:36Z</time>
      </trkpt>
      <trkpt lat="50.23214" lon="3.62298">
        <ele>125.59</ele>
        <time>2021-08-08T03:28:37Z</time>
      </trkpt>
      <trkpt lat="50.23217" lon="3.62298">
        <ele>126.07</ele>
        <time>2021-08-08T03:28:38Z</time>
      </trkpt>
      <trkpt lat="50.2322" lon="3.62296">
        <ele>126.07</ele>
        <time>2021-08-08T03:28:39Z</time>
      </trkpt>
      <trkpt lat="50.23223" lon="3.62294">
        <ele>125.59</ele>
        <time>2021-08-08T03:28:40Z</time>
      </trkpt>
      <trkpt lat="50.23227" lon="3.62291">
        <ele>125.59</ele>
        <time>2021-08-08T03:28:41Z</time>
      </trkpt>
      <trkpt lat="50.23264" lon="3.62273">
        <ele>124.63</ele>
        <time>2021-08-08T03:28:50Z</time>
      </trkpt>
      <trkpt lat="50.23304" lon="3.62259">
        <ele>124.15</ele>
        <time>2021-08-08T03:28:59Z</time>
      </trkpt>
      <trkpt lat="50.23348" lon="3.62252">
        <ele>124.15</ele>
        <time>2021-08-08T03:29:08Z</time>
      </trkpt>
      <trkpt lat="50.23386" lon="3.62253">
        <ele>123.67</ele>
        <time>2021-08-08T03:29:16Z</time>
      </trkpt>
      <trkpt lat="50.23439" lon="3.62261">
        <ele>123.67</ele>
        <time>2021-08-08T03:29:27Z</time>
      </trkpt>
      <trkpt lat="50.23444" lon="3.62263">
        <ele>123.67</ele>
        <time>2021-08-08T03:29:28Z</time>
      </trkpt>
      <trkpt lat="50.23479" lon="3.6227">
        <ele>123.67</ele>
        <time>2021-08-08T03:29:35Z</time>
      </trkpt>
      <trkpt lat="50.23537" lon="3.62283">
        <ele>123.67</ele>
        <time>2021-08-08T03:29:46Z</time>
      </trkpt>
      <trkpt lat="50.23585" lon="3.62291">
        <ele>121.74</ele>
        <time>2021-08-08T03:29:55Z</time>
      </trkpt>
      <trkpt lat="50.2364" lon="3.623">
        <ele>119.82</ele>
        <time>2021-08-08T03:30:04Z</time>
      </trkpt>
      <trkpt lat="50.23705" lon="3.62312">
        <ele>118.38</ele>
        <time>2021-08-08T03:30:14Z</time>
      </trkpt>
      <trkpt lat="50.23745" lon="3.6232">
        <ele>117.9</ele>
        <time>2021-08-08T03:30:21Z</time>
      </trkpt>
      <trkpt lat="50.23791" lon="3.62331">
        <ele>116.46</ele>
        <time>2021-08-08T03:30:29Z</time>
      </trkpt>
      <trkpt lat="50.23847" lon="3.62344">
        <ele>115.98</ele>
        <time>2021-08-08T03:30:39Z</time>
      </trkpt>
      <trkpt lat="50.23897" lon="3.62355">
        <ele>115.5</ele>
        <time>2021-08-08T03:30:48Z</time>
      </trkpt>
      <trkpt lat="50.23944" lon="3.62364">
        <ele>115.5</ele>
        <time>2021-08-08T03:30:57Z</time>
      </trkpt>
      <trkpt lat="50.23988" lon="3.62372">
        <ele>115.01</ele>
        <time>2021-08-08T03:31:06Z</time>
      </trkpt>
      <trkpt lat="50.2402" lon="3.62379">
        <ele>115.01</ele>
        <time>2021-08-08T03:31:14Z</time>
      </trkpt>
      <trkpt lat="50.24044" lon="3.62384">
        <ele>116.46</ele>
        <time>2021-08-08T03:31:21Z</time>
      </trkpt>
      <trkpt lat="50.24068" lon="3.62387">
        <ele>116.94</ele>
        <time>2021-08-08T03:31:28Z</time>
      </trkpt>
      <trkpt lat="50.24096" lon="3.62393">
        <ele>118.38</ele>
        <time>2021-08-08T03:31:36Z</time>
      </trkpt>
      <trkpt lat="50.24121" lon="3.62398">
        <ele>118.86</ele>
        <time>2021-08-08T03:31:43Z</time>
      </trkpt>
      <trkpt lat="50.24158" lon="3.62405">
        <ele>120.3</ele>
        <time>2021-08-08T03:31:54Z</time>
      </trkpt>
      <trkpt lat="50.24199" lon="3.62415">
        <ele>121.26</ele>
        <time>2021-08-08T03:32:05Z</time>
      </trkpt>
      <trkpt lat="50.24235" lon="3.62422">
        <ele>122.71</ele>
        <time>2021-08-08T03:32:15Z</time>
      </trkpt>
      <trkpt lat="50.24269" lon="3.62429">
        <ele>123.19</ele>
        <time>2021-08-08T03:32:24Z</time>
      </trkpt>
      <trkpt lat="50.243" lon="3.62437">
        <ele>123.67</ele>
        <time>2021-08-08T03:32:32Z</time>
      </trkpt>
      <trkpt lat="50.24333" lon="3.62444">
        <ele>124.63</ele>
        <time>2021-08-08T03:32:41Z</time>
      </trkpt>
      <trkpt lat="50.24362" lon="3.62452">
        <ele>125.11</ele>
        <time>2021-08-08T03:32:49Z</time>
      </trkpt>
      <trkpt lat="50.24391" lon="3.62458">
        <ele>125.11</ele>
        <time>2021-08-08T03:32:57Z</time>
      </trkpt>
      <trkpt lat="50.24391" lon="3.62458">
        <ele>125.59</ele>
        <time>2021-08-08T03:33:02Z</time>
      </trkpt>
      <trkpt lat="50.24391" lon="3.62458">
        <ele>125.59</ele>
        <time>2021-08-08T03:33:17Z</time>
      </trkpt>
      <trkpt lat="50.24394" lon="3.62457">
        <ele>125.59</ele>
        <time>2021-08-08T03:33:27Z</time>
      </trkpt>
      <trkpt lat="50.24405" lon="3.62461">
        <ele>125.59</ele>
        <time>2021-08-08T03:33:32Z</time>
      </trkpt>
      <trkpt lat="50.24429" lon="3.62465">
        <ele>125.59</ele>
        <time>2021-08-08T03:33:38Z</time>
      </trkpt>
      <trkpt lat="50.24438" lon="3.62466">
        <ele>125.59</ele>
        <time>2021-08-08T03:33:40Z</time>
      </trkpt>
      <trkpt lat="50.24442" lon="3.62466">
        <ele>125.59</ele>
        <time>2021-08-08T03:33:41Z</time>
      </trkpt>
      <trkpt lat="50.24447" lon="3.62468">
        <ele>125.59</ele>
        <time>2021-08-08T03:33:42Z</time>
      </trkpt>
      <trkpt lat="50.24484" lon="3.62476">
        <ele>122.71</ele>
        <time>2021-08-08T03:33:50Z</time>
      </trkpt>
      <trkpt lat="50.24485" lon="3.62478">
        <ele>122.71</ele>
        <time>2021-08-08T03:33:51Z</time>
      </trkpt>
      <trkpt lat="50.24484" lon="3.6248">
        <ele>123.19</ele>
        <time>2021-08-08T03:33:57Z</time>
      </trkpt>
      <trkpt lat="50.24483" lon="3.6248">
        <ele>123.19</ele>
        <time>2021-08-08T03:34:10Z</time>
      </trkpt>
      <trkpt lat="50.24482" lon="3.6248">
        <ele>122.71</ele>
        <time>2021-08-08T03:34:24Z</time>
      </trkpt>
      <trkpt lat="50.24482" lon="3.62478">
        <ele>122.71</ele>
        <time>2021-08-08T03:34:26Z</time>
      </trkpt>
      <trkpt lat="50.24483" lon="3.62476">
        <ele>122.71</ele>
        <time>2021-08-08T03:34:27Z</time>
      </trkpt>
      <trkpt lat="50.24484" lon="3.62476">
        <ele>122.71</ele>
        <time>2021-08-08T03:34:28Z</time>
      </trkpt>
      <trkpt lat="50.24487" lon="3.62477">
        <ele>123.19</ele>
        <time>2021-08-08T03:34:30Z</time>
      </trkpt>
      <trkpt lat="50.24496" lon="3.62494">
        <ele>124.15</ele>
        <time>2021-08-08T03:34:35Z</time>
      </trkpt>
      <trkpt lat="50.24498" lon="3.62498">
        <ele>124.15</ele>
        <time>2021-08-08T03:34:36Z</time>
      </trkpt>
      <trkpt lat="50.24512" lon="3.62521">
        <ele>123.19</ele>
        <time>2021-08-08T03:34:42Z</time>
      </trkpt>
      <trkpt lat="50.24517" lon="3.6253">
        <ele>122.22</ele>
        <time>2021-08-08T03:34:44Z</time>
      </trkpt>
      <trkpt lat="50.24541" lon="3.62563">
        <ele>119.34</ele>
        <time>2021-08-08T03:34:50Z</time>
      </trkpt>
      <trkpt lat="50.2458" lon="3.62626">
        <ele>118.38</ele>
        <time>2021-08-08T03:35:00Z</time>
      </trkpt>
      <trkpt lat="50.24605" lon="3.62662">
        <ele>118.38</ele>
        <time>2021-08-08T03:35:07Z</time>
      </trkpt>
      <trkpt lat="50.24632" lon="3.62696">
        <ele>118.38</ele>
        <time>2021-08-08T03:35:15Z</time>
      </trkpt>
      <trkpt lat="50.24673" lon="3.62741">
        <ele>117.9</ele>
        <time>2021-08-08T03:35:25Z</time>
      </trkpt>
      <trkpt lat="50.24708" lon="3.62771">
        <ele>117.9</ele>
        <time>2021-08-08T03:35:33Z</time>
      </trkpt>
      <trkpt lat="50.24726" lon="3.62783">
        <ele>117.9</ele>
        <time>2021-08-08T03:35:37Z</time>
      </trkpt>
      <trkpt lat="50.2473" lon="3.62787">
        <ele>117.9</ele>
        <time>2021-08-08T03:35:38Z</time>
      </trkpt>
      <trkpt lat="50.24745" lon="3.62795">
        <ele>117.9</ele>
        <time>2021-08-08T03:35:41Z</time>
      </trkpt>
      <trkpt lat="50.24756" lon="3.62798">
        <ele>117.9</ele>
        <time>2021-08-08T03:35:43Z</time>
      </trkpt>
      <trkpt lat="50.24761" lon="3.62798">
        <ele>117.9</ele>
        <time>2021-08-08T03:35:44Z</time>
      </trkpt>
      <trkpt lat="50.24766" lon="3.62797">
        <ele>117.9</ele>
        <time>2021-08-08T03:35:45Z</time>
      </trkpt>
      <trkpt lat="50.24772" lon="3.62796">
        <ele>117.9</ele>
        <time>2021-08-08T03:35:46Z</time>
      </trkpt>
      <trkpt lat="50.24776" lon="3.62795">
        <ele>117.9</ele>
        <time>2021-08-08T03:35:47Z</time>
      </trkpt>
      <trkpt lat="50.24781" lon="3.62793">
        <ele>117.9</ele>
        <time>2021-08-08T03:35:48Z</time>
      </trkpt>
      <trkpt lat="50.24799" lon="3.62782">
        <ele>117.9</ele>
        <time>2021-08-08T03:35:52Z</time>
      </trkpt>
      <trkpt lat="50.24803" lon="3.62779">
        <ele>117.9</ele>
        <time>2021-08-08T03:35:53Z</time>
      </trkpt>
      <trkpt lat="50.24821" lon="3.6277">
        <ele>117.9</ele>
        <time>2021-08-08T03:35:57Z</time>
      </trkpt>
      <trkpt lat="50.24826" lon="3.6277">
        <ele>117.9</ele>
        <time>2021-08-08T03:35:58Z</time>
      </trkpt>
      <trkpt lat="50.2483" lon="3.62771">
        <ele>117.9</ele>
        <time>2021-08-08T03:35:59Z</time>
      </trkpt>
      <trkpt lat="50.24835" lon="3.62773">
        <ele>117.9</ele>
        <time>2021-08-08T03:36:00Z</time>
      </trkpt>
      <trkpt lat="50.2484" lon="3.62776">
        <ele>117.9</ele>
        <time>2021-08-08T03:36:01Z</time>
      </trkpt>
      <trkpt lat="50.24853" lon="3.62785">
        <ele>117.9</ele>
        <time>2021-08-08T03:36:04Z</time>
      </trkpt>
      <trkpt lat="50.24858" lon="3.62788">
        <ele>117.9</ele>
        <time>2021-08-08T03:36:05Z</time>
      </trkpt>
      <trkpt lat="50.24862" lon="3.62791">
        <ele>117.9</ele>
        <time>2021-08-08T03:36:06Z</time>
      </trkpt>
      <trkpt lat="50.24867" lon="3.62794">
        <ele>117.9</ele>
        <time>2021-08-08T03:36:07Z</time>
      </trkpt>
      <trkpt lat="50.24872" lon="3.62797">
        <ele>117.9</ele>
        <time>2021-08-08T03:36:08Z</time>
      </trkpt>
      <trkpt lat="50.24877" lon="3.62799">
        <ele>117.9</ele>
        <time>2021-08-08T03:36:09Z</time>
      </trkpt>
      <trkpt lat="50.24902" lon="3.62812">
        <ele>117.42</ele>
        <time>2021-08-08T03:36:14Z</time>
      </trkpt>
      <trkpt lat="50.24943" lon="3.62816">
        <ele>116.94</ele>
        <time>2021-08-08T03:36:22Z</time>
      </trkpt>
      <trkpt lat="50.24963" lon="3.62813">
        <ele>116.94</ele>
        <time>2021-08-08T03:36:26Z</time>
      </trkpt>
      <trkpt lat="50.24966" lon="3.62814">
        <ele>116.94</ele>
        <time>2021-08-08T03:36:27Z</time>
      </trkpt>
      <trkpt lat="50.24969" lon="3.62815">
        <ele>116.94</ele>
        <time>2021-08-08T03:36:28Z</time>
      </trkpt>
      <trkpt lat="50.24971" lon="3.6282">
        <ele>116.94</ele>
        <time>2021-08-08T03:36:29Z</time>
      </trkpt>
      <trkpt lat="50.24972" lon="3.62824">
        <ele>116.94</ele>
        <time>2021-08-08T03:36:30Z</time>
      </trkpt>
      <trkpt lat="50.24971" lon="3.62829">
        <ele>116.94</ele>
        <time>2021-08-08T03:36:31Z</time>
      </trkpt>
      <trkpt lat="50.24969" lon="3.62834">
        <ele>116.94</ele>
        <time>2021-08-08T03:36:32Z</time>
      </trkpt>
      <trkpt lat="50.24967" lon="3.62838">
        <ele>116.46</ele>
        <time>2021-08-08T03:36:33Z</time>
      </trkpt>
      <trkpt lat="50.24952" lon="3.62886">
        <ele>115.5</ele>
        <time>2021-08-08T03:36:41Z</time>
      </trkpt>
      <trkpt lat="50.24943" lon="3.62907">
        <ele>115.5</ele>
        <time>2021-08-08T03:36:45Z</time>
      </trkpt>
      <trkpt lat="50.24939" lon="3.62907">
        <ele>115.5</ele>
        <time>2021-08-08T03:36:46Z</time>
      </trkpt>
      <trkpt lat="50.24935" lon="3.62907">
        <ele>115.5</ele>
        <time>2021-08-08T03:36:47Z</time>
      </trkpt>
      <trkpt lat="50.24931" lon="3.62906">
        <ele>115.5</ele>
        <time>2021-08-08T03:36:48Z</time>
      </trkpt>
      <trkpt lat="50.24927" lon="3.62905">
        <ele>115.5</ele>
        <time>2021-08-08T03:36:49Z</time>
      </trkpt>
      <trkpt lat="50.24923" lon="3.62905">
        <ele>115.5</ele>
        <time>2021-08-08T03:36:50Z</time>
      </trkpt>
      <trkpt lat="50.24919" lon="3.62903">
        <ele>115.5</ele>
        <time>2021-08-08T03:36:51Z</time>
      </trkpt>
      <trkpt lat="50.24916" lon="3.62902">
        <ele>116.94</ele>
        <time>2021-08-08T03:36:52Z</time>
      </trkpt>
      <trkpt lat="50.24913" lon="3.62902">
        <ele>116.94</ele>
        <time>2021-08-08T03:36:53Z</time>
      </trkpt>
      <trkpt lat="50.24892" lon="3.62896">
        <ele>117.42</ele>
        <time>2021-08-08T03:36:59Z</time>
      </trkpt>
      <trkpt lat="50.24867" lon="3.62888">
        <ele>117.42</ele>
        <time>2021-08-08T03:37:06Z</time>
      </trkpt>
      <trkpt lat="50.24859" lon="3.62884">
        <ele>117.42</ele>
        <time>2021-08-08T03:37:08Z</time>
      </trkpt>
      <trkpt lat="50.24855" lon="3.62881">
        <ele>117.42</ele>
        <time>2021-08-08T03:37:09Z</time>
      </trkpt>
      <trkpt lat="50.24851" lon="3.62877">
        <ele>117.42</ele>
        <time>2021-08-08T03:37:10Z</time>
      </trkpt>
      <trkpt lat="50.24848" lon="3.62873">
        <ele>117.42</ele>
        <time>2021-08-08T03:37:11Z</time>
      </trkpt>
      <trkpt lat="50.24845" lon="3.62869">
        <ele>117.42</ele>
        <time>2021-08-08T03:37:12Z</time>
      </trkpt>
      <trkpt lat="50.24825" lon="3.62836">
        <ele>118.38</ele>
        <time>2021-08-08T03:37:20Z</time>
      </trkpt>
      <trkpt lat="50.24809" lon="3.62814">
        <ele>118.86</ele>
        <time>2021-08-08T03:37:26Z</time>
      </trkpt>
      <trkpt lat="50.24805" lon="3.62815">
        <ele>118.86</ele>
        <time>2021-08-08T03:37:27Z</time>
      </trkpt>
      <trkpt lat="50.24802" lon="3.62817">
        <ele>118.86</ele>
        <time>2021-08-08T03:37:28Z</time>
      </trkpt>
      <trkpt lat="50.24799" lon="3.62821">
        <ele>118.86</ele>
        <time>2021-08-08T03:37:29Z</time>
      </trkpt>
      <trkpt lat="50.24781" lon="3.62839">
        <ele>118.86</ele>
        <time>2021-08-08T03:37:34Z</time>
      </trkpt>
      <trkpt lat="50.24748" lon="3.62861">
        <ele>117.42</ele>
        <time>2021-08-08T03:37:42Z</time>
      </trkpt>
      <trkpt lat="50.24724" lon="3.6287">
        <ele>117.42</ele>
        <time>2021-08-08T03:37:47Z</time>
      </trkpt>
      <trkpt lat="50.24719" lon="3.62871">
        <ele>117.42</ele>
        <time>2021-08-08T03:37:48Z</time>
      </trkpt>
      <trkpt lat="50.24698" lon="3.62867">
        <ele>118.86</ele>
        <time>2021-08-08T03:37:54Z</time>
      </trkpt>
      <trkpt lat="50.24694" lon="3.62864">
        <ele>118.86</ele>
        <time>2021-08-08T03:37:55Z</time>
      </trkpt>
      <trkpt lat="50.24677" lon="3.62851">
        <ele>118.86</ele>
        <time>2021-08-08T03:37:59Z</time>
      </trkpt>
      <trkpt lat="50.24663" lon="3.62833">
        <ele>118.86</ele>
        <time>2021-08-08T03:38:03Z</time>
      </trkpt>
      <trkpt lat="50.2466" lon="3.62828">
        <ele>118.86</ele>
        <time>2021-08-08T03:38:04Z</time>
      </trkpt>
      <trkpt lat="50.24657" lon="3.62825">
        <ele>118.86</ele>
        <time>2021-08-08T03:38:05Z</time>
      </trkpt>
      <trkpt lat="50.24655" lon="3.6282">
        <ele>118.86</ele>
        <time>2021-08-08T03:38:06Z</time>
      </trkpt>
      <trkpt lat="50.24651" lon="3.62816">
        <ele>118.86</ele>
        <time>2021-08-08T03:38:07Z</time>
      </trkpt>
      <trkpt lat="50.24648" lon="3.62812">
        <ele>118.86</ele>
        <time>2021-08-08T03:38:08Z</time>
      </trkpt>
      <trkpt lat="50.24644" lon="3.62807">
        <ele>118.86</ele>
        <time>2021-08-08T03:38:09Z</time>
      </trkpt>
      <trkpt lat="50.2464" lon="3.62802">
        <ele>118.86</ele>
        <time>2021-08-08T03:38:10Z</time>
      </trkpt>
      <trkpt lat="50.24611" lon="3.62761">
        <ele>119.82</ele>
        <time>2021-08-08T03:38:20Z</time>
      </trkpt>
      <trkpt lat="50.2459" lon="3.62739">
        <ele>120.3</ele>
        <time>2021-08-08T03:38:28Z</time>
      </trkpt>
      <trkpt lat="50.24574" lon="3.62746">
        <ele>120.3</ele>
        <time>2021-08-08T03:38:33Z</time>
      </trkpt>
      <trkpt lat="50.24562" lon="3.6276">
        <ele>118.86</ele>
        <time>2021-08-08T03:38:37Z</time>
      </trkpt>
      <trkpt lat="50.2456" lon="3.62765">
        <ele>118.38</ele>
        <time>2021-08-08T03:38:38Z</time>
      </trkpt>
      <trkpt lat="50.24557" lon="3.62771">
        <ele>118.38</ele>
        <time>2021-08-08T03:38:39Z</time>
      </trkpt>
      <trkpt lat="50.24557" lon="3.62777">
        <ele>118.38</ele>
        <time>2021-08-08T03:38:40Z</time>
      </trkpt>
      <trkpt lat="50.24558" lon="3.62781">
        <ele>118.38</ele>
        <time>2021-08-08T03:38:41Z</time>
      </trkpt>
      <trkpt lat="50.24561" lon="3.62783">
        <ele>119.34</ele>
        <time>2021-08-08T03:38:42Z</time>
      </trkpt>
      <trkpt lat="50.24564" lon="3.62785">
        <ele>119.34</ele>
        <time>2021-08-08T03:38:43Z</time>
      </trkpt>
      <trkpt lat="50.24578" lon="3.6279">
        <ele>120.78</ele>
        <time>2021-08-08T03:38:49Z</time>
      </trkpt>
      <trkpt lat="50.24583" lon="3.62798">
        <ele>119.34</ele>
        <time>2021-08-08T03:38:52Z</time>
      </trkpt>
      <trkpt lat="50.24581" lon="3.62801">
        <ele>119.34</ele>
        <time>2021-08-08T03:38:55Z</time>
      </trkpt>
      <trkpt lat="50.2458" lon="3.62802">
        <ele>119.34</ele>
        <time>2021-08-08T03:38:56Z</time>
      </trkpt>
      <trkpt lat="50.24579" lon="3.62804">
        <ele>119.34</ele>
        <time>2021-08-08T03:38:57Z</time>
      </trkpt>
      <trkpt lat="50.24578" lon="3.62806">
        <ele>119.34</ele>
        <time>2021-08-08T03:38:58Z</time>
      </trkpt>
      <trkpt lat="50.24577" lon="3.62808">
        <ele>119.34</ele>
        <time>2021-08-08T03:38:59Z</time>
      </trkpt>
      <trkpt lat="50.24576" lon="3.62812">
        <ele>119.34</ele>
        <time>2021-08-08T03:39:00Z</time>
      </trkpt>
      <trkpt lat="50.24575" lon="3.62816">
        <ele>119.34</ele>
        <time>2021-08-08T03:39:01Z</time>
      </trkpt>
      <trkpt lat="50.24574" lon="3.6282">
        <ele>119.34</ele>
        <time>2021-08-08T03:39:02Z</time>
      </trkpt>
      <trkpt lat="50.24574" lon="3.62825">
        <ele>119.34</ele>
        <time>2021-08-08T03:39:03Z</time>
      </trkpt>
      <trkpt lat="50.24568" lon="3.6287">
        <ele>118.86</ele>
        <time>2021-08-08T03:39:10Z</time>
      </trkpt>
      <trkpt lat="50.24565" lon="3.62881">
        <ele>118.86</ele>
        <time>2021-08-08T03:39:12Z</time>
      </trkpt>
      <trkpt lat="50.24562" lon="3.62888">
        <ele>118.86</ele>
        <time>2021-08-08T03:39:13Z</time>
      </trkpt>
      <trkpt lat="50.2456" lon="3.62894">
        <ele>118.86</ele>
        <time>2021-08-08T03:39:14Z</time>
      </trkpt>
      <trkpt lat="50.24559" lon="3.62898">
        <ele>118.86</ele>
        <time>2021-08-08T03:39:15Z</time>
      </trkpt>
      <trkpt lat="50.24558" lon="3.62905">
        <ele>118.86</ele>
        <time>2021-08-08T03:39:16Z</time>
      </trkpt>
      <trkpt lat="50.24557" lon="3.62912">
        <ele>118.86</ele>
        <time>2021-08-08T03:39:17Z</time>
      </trkpt>
      <trkpt lat="50.24552" lon="3.62947">
        <ele>118.86</ele>
        <time>2021-08-08T03:39:22Z</time>
      </trkpt>
      <trkpt lat="50.24551" lon="3.62955">
        <ele>118.86</ele>
        <time>2021-08-08T03:39:23Z</time>
      </trkpt>
      <trkpt lat="50.2455" lon="3.62963">
        <ele>117.9</ele>
        <time>2021-08-08T03:39:24Z</time>
      </trkpt>
      <trkpt lat="50.24541" lon="3.62997">
        <ele>119.34</ele>
        <time>2021-08-08T03:39:29Z</time>
      </trkpt>
      <trkpt lat="50.24525" lon="3.63035">
        <ele>117.9</ele>
        <time>2021-08-08T03:39:36Z</time>
      </trkpt>
      <trkpt lat="50.24515" lon="3.63064">
        <ele>117.9</ele>
        <time>2021-08-08T03:39:40Z</time>
      </trkpt>
      <trkpt lat="50.24511" lon="3.6307">
        <ele>117.9</ele>
        <time>2021-08-08T03:39:41Z</time>
      </trkpt>
      <trkpt lat="50.24507" lon="3.63074">
        <ele>117.42</ele>
        <time>2021-08-08T03:39:42Z</time>
      </trkpt>
      <trkpt lat="50.24503" lon="3.63079">
        <ele>116.94</ele>
        <time>2021-08-08T03:39:43Z</time>
      </trkpt>
      <trkpt lat="50.24499" lon="3.6308">
        <ele>117.42</ele>
        <time>2021-08-08T03:39:44Z</time>
      </trkpt>
      <trkpt lat="50.24495" lon="3.63082">
        <ele>117.42</ele>
        <time>2021-08-08T03:39:45Z</time>
      </trkpt>
      <trkpt lat="50.2449" lon="3.63082">
        <ele>117.42</ele>
        <time>2021-08-08T03:39:46Z</time>
      </trkpt>
      <trkpt lat="50.24486" lon="3.63083">
        <ele>117.42</ele>
        <time>2021-08-08T03:39:47Z</time>
      </trkpt>
      <trkpt lat="50.24461" lon="3.63083">
        <ele>117.42</ele>
        <time>2021-08-08T03:39:53Z</time>
      </trkpt>
      <trkpt lat="50.24456" lon="3.63085">
        <ele>117.42</ele>
        <time>2021-08-08T03:39:54Z</time>
      </trkpt>
      <trkpt lat="50.24438" lon="3.63088">
        <ele>117.42</ele>
        <time>2021-08-08T03:39:58Z</time>
      </trkpt>
      <trkpt lat="50.24414" lon="3.63094">
        <ele>117.42</ele>
        <time>2021-08-08T03:40:04Z</time>
      </trkpt>
      <trkpt lat="50.24413" lon="3.63098">
        <ele>117.42</ele>
        <time>2021-08-08T03:40:05Z</time>
      </trkpt>
      <trkpt lat="50.24413" lon="3.63103">
        <ele>117.42</ele>
        <time>2021-08-08T03:40:06Z</time>
      </trkpt>
      <trkpt lat="50.24419" lon="3.63127">
        <ele>117.42</ele>
        <time>2021-08-08T03:40:10Z</time>
      </trkpt>
      <trkpt lat="50.2442" lon="3.63134">
        <ele>117.42</ele>
        <time>2021-08-08T03:40:11Z</time>
      </trkpt>
      <trkpt lat="50.24423" lon="3.63154">
        <ele>117.42</ele>
        <time>2021-08-08T03:40:14Z</time>
      </trkpt>
      <trkpt lat="50.24431" lon="3.63208">
        <ele>117.9</ele>
        <time>2021-08-08T03:40:22Z</time>
      </trkpt>
      <trkpt lat="50.24433" lon="3.63221">
        <ele>117.42</ele>
        <time>2021-08-08T03:40:24Z</time>
      </trkpt>
      <trkpt lat="50.24433" lon="3.63228">
        <ele>117.42</ele>
        <time>2021-08-08T03:40:25Z</time>
      </trkpt>
      <trkpt lat="50.24435" lon="3.63234">
        <ele>117.42</ele>
        <time>2021-08-08T03:40:26Z</time>
      </trkpt>
      <trkpt lat="50.24442" lon="3.63267">
        <ele>115.98</ele>
        <time>2021-08-08T03:40:32Z</time>
      </trkpt>
      <trkpt lat="50.2444" lon="3.63276">
        <ele>115.5</ele>
        <time>2021-08-08T03:40:37Z</time>
      </trkpt>
      <trkpt lat="50.24441" lon="3.63281">
        <ele>115.5</ele>
        <time>2021-08-08T03:40:44Z</time>
      </trkpt>
      <trkpt lat="50.2444" lon="3.63286">
        <ele>119.34</ele>
        <time>2021-08-08T03:40:50Z</time>
      </trkpt>
      <trkpt lat="50.24439" lon="3.63286">
        <ele>119.34</ele>
        <time>2021-08-08T03:40:51Z</time>
      </trkpt>
      <trkpt lat="50.24439" lon="3.63289">
        <ele>120.3</ele>
        <time>2021-08-08T03:40:57Z</time>
      </trkpt>
      <trkpt lat="50.24443" lon="3.63295">
        <ele>121.26</ele>
        <time>2021-08-08T03:41:04Z</time>
      </trkpt>
      <trkpt lat="50.24448" lon="3.633">
        <ele>121.26</ele>
        <time>2021-08-08T03:41:16Z</time>
      </trkpt>
      <trkpt lat="50.24451" lon="3.63303">
        <ele>121.26</ele>
        <time>2021-08-08T03:41:20Z</time>
      </trkpt>
      <trkpt lat="50.24455" lon="3.63305">
        <ele>119.82</ele>
        <time>2021-08-08T03:41:21Z</time>
      </trkpt>
      <trkpt lat="50.24458" lon="3.63307">
        <ele>118.86</ele>
        <time>2021-08-08T03:41:22Z</time>
      </trkpt>
      <trkpt lat="50.24475" lon="3.63322">
        <ele>116.46</ele>
        <time>2021-08-08T03:41:28Z</time>
      </trkpt>
      <trkpt lat="50.24479" lon="3.6334">
        <ele>116.46</ele>
        <time>2021-08-08T03:41:34Z</time>
      </trkpt>
      <trkpt lat="50.24477" lon="3.63363">
        <ele>116.46</ele>
        <time>2021-08-08T03:41:43Z</time>
      </trkpt>
      <trkpt lat="50.24478" lon="3.63365">
        <ele>116.46</ele>
        <time>2021-08-08T03:41:48Z</time>
      </trkpt>
      <trkpt lat="50.24479" lon="3.63366">
        <ele>116.46</ele>
        <time>2021-08-08T03:41:50Z</time>
      </trkpt>
      <trkpt lat="50.2448" lon="3.63367">
        <ele>116.94</ele>
        <time>2021-08-08T03:41:51Z</time>
      </trkpt>
      <trkpt lat="50.24481" lon="3.63366">
        <ele>116.94</ele>
        <time>2021-08-08T03:41:52Z</time>
      </trkpt>
      <trkpt lat="50.24481" lon="3.63344">
        <ele>116.94</ele>
        <time>2021-08-08T03:41:58Z</time>
      </trkpt>
      <trkpt lat="50.24474" lon="3.63325">
        <ele>116.94</ele>
        <time>2021-08-08T03:42:03Z</time>
      </trkpt>
      <trkpt lat="50.24466" lon="3.633">
        <ele>116.46</ele>
        <time>2021-08-08T03:42:10Z</time>
      </trkpt>
      <trkpt lat="50.24465" lon="3.63275">
        <ele>115.98</ele>
        <time>2021-08-08T03:42:16Z</time>
      </trkpt>
      <trkpt lat="50.24462" lon="3.63239">
        <ele>115.5</ele>
        <time>2021-08-08T03:42:23Z</time>
      </trkpt>
      <trkpt lat="50.24458" lon="3.63226">
        <ele>115.5</ele>
        <time>2021-08-08T03:42:28Z</time>
      </trkpt>
      <trkpt lat="50.24458" lon="3.63217">
        <ele>115.5</ele>
        <time>2021-08-08T03:42:44Z</time>
      </trkpt>
      <trkpt lat="50.24459" lon="3.63213">
        <ele>115.5</ele>
        <time>2021-08-08T03:42:49Z</time>
      </trkpt>
      <trkpt lat="50.24466" lon="3.63212">
        <ele>115.98</ele>
        <time>2021-08-08T03:42:54Z</time>
      </trkpt>
      <trkpt lat="50.24468" lon="3.63218">
        <ele>115.98</ele>
        <time>2021-08-08T03:42:59Z</time>
      </trkpt>
      <trkpt lat="50.24461" lon="3.63213">
        <ele>115.98</ele>
        <time>2021-08-08T03:43:05Z</time>
      </trkpt>
      <trkpt lat="50.24457" lon="3.63215">
        <ele>115.98</ele>
        <time>2021-08-08T03:43:08Z</time>
      </trkpt>
      <trkpt lat="50.2446" lon="3.63221">
        <ele>115.98</ele>
        <time>2021-08-08T03:43:17Z</time>
      </trkpt>
      <trkpt lat="50.24461" lon="3.63218">
        <ele>115.98</ele>
        <time>2021-08-08T03:43:27Z</time>
      </trkpt>
      <trkpt lat="50.24462" lon="3.63234">
        <ele>115.98</ele>
        <time>2021-08-08T03:43:34Z</time>
      </trkpt>
      <trkpt lat="50.24465" lon="3.6326">
        <ele>115.98</ele>
        <time>2021-08-08T03:43:41Z</time>
      </trkpt>
      <trkpt lat="50.24469" lon="3.63272">
        <ele>115.98</ele>
        <time>2021-08-08T03:43:45Z</time>
      </trkpt>
      <trkpt lat="50.24471" lon="3.63273">
        <ele>115.98</ele>
        <time>2021-08-08T03:43:46Z</time>
      </trkpt>
      <trkpt lat="50.24473" lon="3.63275">
        <ele>115.98</ele>
        <time>2021-08-08T03:43:47Z</time>
      </trkpt>
      <trkpt lat="50.24474" lon="3.63276">
        <ele>115.98</ele>
        <time>2021-08-08T03:43:48Z</time>
      </trkpt>
      <trkpt lat="50.24476" lon="3.63277">
        <ele>115.98</ele>
        <time>2021-08-08T03:43:49Z</time>
      </trkpt>
      <trkpt lat="50.24479" lon="3.63277">
        <ele>115.98</ele>
        <time>2021-08-08T03:43:50Z</time>
      </trkpt>
      <trkpt lat="50.24482" lon="3.63277">
        <ele>115.98</ele>
        <time>2021-08-08T03:43:51Z</time>
      </trkpt>
      <trkpt lat="50.24484" lon="3.63276">
        <ele>115.98</ele>
        <time>2021-08-08T03:43:52Z</time>
      </trkpt>
      <trkpt lat="50.24497" lon="3.63277">
        <ele>115.98</ele>
        <time>2021-08-08T03:43:57Z</time>
      </trkpt>
      <trkpt lat="50.24499" lon="3.6328">
        <ele>115.98</ele>
        <time>2021-08-08T03:43:58Z</time>
      </trkpt>
      <trkpt lat="50.245" lon="3.63284">
        <ele>115.98</ele>
        <time>2021-08-08T03:43:59Z</time>
      </trkpt>
      <trkpt lat="50.24501" lon="3.63288">
        <ele>115.98</ele>
        <time>2021-08-08T03:44:00Z</time>
      </trkpt>
      <trkpt lat="50.24502" lon="3.63293">
        <ele>115.5</ele>
        <time>2021-08-08T03:44:01Z</time>
      </trkpt>
      <trkpt lat="50.24503" lon="3.63297">
        <ele>115.5</ele>
        <time>2021-08-08T03:44:02Z</time>
      </trkpt>
      <trkpt lat="50.24504" lon="3.63301">
        <ele>115.5</ele>
        <time>2021-08-08T03:44:03Z</time>
      </trkpt>
      <trkpt lat="50.24505" lon="3.63305">
        <ele>115.5</ele>
        <time>2021-08-08T03:44:04Z</time>
      </trkpt>
      <trkpt lat="50.24506" lon="3.63308">
        <ele>115.5</ele>
        <time>2021-08-08T03:44:05Z</time>
      </trkpt>
      <trkpt lat="50.24509" lon="3.63318">
        <ele>115.5</ele>
        <time>2021-08-08T03:44:09Z</time>
      </trkpt>
      <trkpt lat="50.24511" lon="3.63319">
        <ele>115.5</ele>
        <time>2021-08-08T03:44:10Z</time>
      </trkpt>
      <trkpt lat="50.24513" lon="3.63319">
        <ele>115.5</ele>
        <time>2021-08-08T03:44:11Z</time>
      </trkpt>
      <trkpt lat="50.24516" lon="3.63319">
        <ele>115.5</ele>
        <time>2021-08-08T03:44:12Z</time>
      </trkpt>
      <trkpt lat="50.24519" lon="3.6332">
        <ele>115.5</ele>
        <time>2021-08-08T03:44:13Z</time>
      </trkpt>
      <trkpt lat="50.24522" lon="3.63322">
        <ele>115.5</ele>
        <time>2021-08-08T03:44:14Z</time>
      </trkpt>
      <trkpt lat="50.24525" lon="3.63325">
        <ele>115.5</ele>
        <time>2021-08-08T03:44:15Z</time>
      </trkpt>
      <trkpt lat="50.24526" lon="3.63328">
        <ele>115.5</ele>
        <time>2021-08-08T03:44:16Z</time>
      </trkpt>
      <trkpt lat="50.24527" lon="3.63332">
        <ele>115.5</ele>
        <time>2021-08-08T03:44:17Z</time>
      </trkpt>
      <trkpt lat="50.24528" lon="3.63335">
        <ele>115.5</ele>
        <time>2021-08-08T03:44:18Z</time>
      </trkpt>
      <trkpt lat="50.24529" lon="3.63337">
        <ele>115.98</ele>
        <time>2021-08-08T03:44:19Z</time>
      </trkpt>
      <trkpt lat="50.2453" lon="3.63338">
        <ele>115.98</ele>
        <time>2021-08-08T03:44:20Z</time>
      </trkpt>
      <trkpt lat="50.24532" lon="3.63338">
        <ele>115.98</ele>
        <time>2021-08-08T03:44:21Z</time>
      </trkpt>
      <trkpt lat="50.24533" lon="3.63338">
        <ele>115.98</ele>
        <time>2021-08-08T03:44:22Z</time>
      </trkpt>
      <trkpt lat="50.24535" lon="3.63339">
        <ele>115.98</ele>
        <time>2021-08-08T03:44:23Z</time>
      </trkpt>
      <trkpt lat="50.24537" lon="3.6334">
        <ele>115.98</ele>
        <time>2021-08-08T03:44:24Z</time>
      </trkpt>
      <trkpt lat="50.24539" lon="3.63342">
        <ele>115.98</ele>
        <time>2021-08-08T03:44:25Z</time>
      </trkpt>
      <trkpt lat="50.2454" lon="3.63346">
        <ele>115.98</ele>
        <time>2021-08-08T03:44:26Z</time>
      </trkpt>
      <trkpt lat="50.24542" lon="3.6335">
        <ele>115.98</ele>
        <time>2021-08-08T03:44:27Z</time>
      </trkpt>
      <trkpt lat="50.24549" lon="3.63382">
        <ele>115.98</ele>
        <time>2021-08-08T03:44:34Z</time>
      </trkpt>
      <trkpt lat="50.24549" lon="3.63405">
        <ele>115.98</ele>
        <time>2021-08-08T03:44:40Z</time>
      </trkpt>
      <trkpt lat="50.24547" lon="3.63433">
        <ele>115.98</ele>
        <time>2021-08-08T03:44:47Z</time>
      </trkpt>
      <trkpt lat="50.24547" lon="3.63437">
        <ele>115.98</ele>
        <time>2021-08-08T03:44:51Z</time>
      </trkpt>
      <trkpt lat="50.24547" lon="3.63435">
        <ele>115.98</ele>
        <time>2021-08-08T03:44:55Z</time>
      </trkpt>
      <trkpt lat="50.24547" lon="3.63433">
        <ele>115.98</ele>
        <time>2021-08-08T03:44:56Z</time>
      </trkpt>
      <trkpt lat="50.24546" lon="3.6343">
        <ele>115.98</ele>
        <time>2021-08-08T03:44:58Z</time>
      </trkpt>
      <trkpt lat="50.24546" lon="3.63426">
        <ele>115.98</ele>
        <time>2021-08-08T03:44:59Z</time>
      </trkpt>
      <trkpt lat="50.24545" lon="3.63424">
        <ele>115.98</ele>
        <time>2021-08-08T03:45:00Z</time>
      </trkpt>
      <trkpt lat="50.24546" lon="3.63421">
        <ele>115.98</ele>
        <time>2021-08-08T03:45:01Z</time>
      </trkpt>
      <trkpt lat="50.24546" lon="3.63417">
        <ele>115.98</ele>
        <time>2021-08-08T03:45:02Z</time>
      </trkpt>
      <trkpt lat="50.24549" lon="3.63403">
        <ele>115.98</ele>
        <time>2021-08-08T03:45:06Z</time>
      </trkpt>
      <trkpt lat="50.24549" lon="3.63399">
        <ele>115.98</ele>
        <time>2021-08-08T03:45:07Z</time>
      </trkpt>
      <trkpt lat="50.24544" lon="3.63369">
        <ele>115.5</ele>
        <time>2021-08-08T03:45:14Z</time>
      </trkpt>
      <trkpt lat="50.24537" lon="3.63337">
        <ele>115.5</ele>
        <time>2021-08-08T03:45:23Z</time>
      </trkpt>
      <trkpt lat="50.24538" lon="3.63327">
        <ele>115.5</ele>
        <time>2021-08-08T03:45:29Z</time>
      </trkpt>
      <trkpt lat="50.24536" lon="3.63326">
        <ele>115.5</ele>
        <time>2021-08-08T03:45:37Z</time>
      </trkpt>
      <trkpt lat="50.24534" lon="3.63328">
        <ele>115.5</ele>
        <time>2021-08-08T03:45:50Z</time>
      </trkpt>
      <trkpt lat="50.24536" lon="3.63323">
        <ele>115.5</ele>
        <time>2021-08-08T03:46:03Z</time>
      </trkpt>
      <trkpt lat="50.24539" lon="3.63324">
        <ele>115.98</ele>
        <time>2021-08-08T03:46:12Z</time>
      </trkpt>
      <trkpt lat="50.24538" lon="3.63326">
        <ele>115.98</ele>
        <time>2021-08-08T03:46:17Z</time>
      </trkpt>
      <trkpt lat="50.24539" lon="3.63326">
        <ele>116.94</ele>
        <time>2021-08-08T03:46:25Z</time>
      </trkpt>
      <trkpt lat="50.2454" lon="3.63328">
        <ele>117.42</ele>
        <time>2021-08-08T03:46:35Z</time>
      </trkpt>
      <trkpt lat="50.24543" lon="3.63327">
        <ele>117.9</ele>
        <time>2021-08-08T03:46:42Z</time>
      </trkpt>
      <trkpt lat="50.24547" lon="3.63325">
        <ele>119.82</ele>
        <time>2021-08-08T03:46:53Z</time>
      </trkpt>
      <trkpt lat="50.24549" lon="3.63323">
        <ele>120.3</ele>
        <time>2021-08-08T03:47:00Z</time>
      </trkpt>
      <trkpt lat="50.24541" lon="3.63335">
        <ele>120.3</ele>
        <time>2021-08-08T03:47:10Z</time>
      </trkpt>
      <trkpt lat="50.24585" lon="3.63319">
        <ele>120.78</ele>
        <time>2021-08-08T03:47:36Z</time>
      </trkpt>
      <trkpt lat="50.24584" lon="3.63321">
        <ele>120.78</ele>
        <time>2021-08-08T03:47:37Z</time>
      </trkpt>
      <trkpt lat="50.24585" lon="3.63322">
        <ele>121.26</ele>
        <time>2021-08-08T03:47:38Z</time>
      </trkpt>
      <trkpt lat="50.24586" lon="3.63323">
        <ele>120.78</ele>
        <time>2021-08-08T03:47:39Z</time>
      </trkpt>
      <trkpt lat="50.24587" lon="3.63326">
        <ele>120.78</ele>
        <time>2021-08-08T03:47:40Z</time>
      </trkpt>
      <trkpt lat="50.24587" lon="3.63329">
        <ele>120.78</ele>
        <time>2021-08-08T03:47:41Z</time>
      </trkpt>
      <trkpt lat="50.24588" lon="3.63332">
        <ele>120.78</ele>
        <time>2021-08-08T03:47:42Z</time>
      </trkpt>
      <trkpt lat="50.24587" lon="3.63335">
        <ele>120.78</ele>
        <time>2021-08-08T03:47:43Z</time>
      </trkpt>
      <trkpt lat="50.24587" lon="3.63338">
        <ele>120.78</ele>
        <time>2021-08-08T03:47:44Z</time>
      </trkpt>
      <trkpt lat="50.24587" lon="3.63341">
        <ele>120.78</ele>
        <time>2021-08-08T03:47:45Z</time>
      </trkpt>
      <trkpt lat="50.24594" lon="3.63365">
        <ele>121.26</ele>
        <time>2021-08-08T03:47:52Z</time>
      </trkpt>
      <trkpt lat="50.2461" lon="3.63409">
        <ele>121.26</ele>
        <time>2021-08-08T03:48:01Z</time>
      </trkpt>
      <trkpt lat="50.2463" lon="3.63473">
        <ele>122.22</ele>
        <time>2021-08-08T03:48:12Z</time>
      </trkpt>
      <trkpt lat="50.24648" lon="3.63529">
        <ele>122.71</ele>
        <time>2021-08-08T03:48:22Z</time>
      </trkpt>
      <trkpt lat="50.24656" lon="3.63551">
        <ele>123.19</ele>
        <time>2021-08-08T03:48:26Z</time>
      </trkpt>
      <trkpt lat="50.24661" lon="3.63569">
        <ele>123.67</ele>
        <time>2021-08-08T03:48:29Z</time>
      </trkpt>
      <trkpt lat="50.24672" lon="3.6362">
        <ele>124.63</ele>
        <time>2021-08-08T03:48:37Z</time>
      </trkpt>
      <trkpt lat="50.24674" lon="3.63645">
        <ele>125.11</ele>
        <time>2021-08-08T03:48:41Z</time>
      </trkpt>
      <trkpt lat="50.24674" lon="3.63651">
        <ele>125.59</ele>
        <time>2021-08-08T03:48:42Z</time>
      </trkpt>
      <trkpt lat="50.24673" lon="3.63657">
        <ele>126.07</ele>
        <time>2021-08-08T03:48:43Z</time>
      </trkpt>
      <trkpt lat="50.24669" lon="3.63675">
        <ele>126.07</ele>
        <time>2021-08-08T03:48:46Z</time>
      </trkpt>
      <trkpt lat="50.24654" lon="3.63703">
        <ele>126.55</ele>
        <time>2021-08-08T03:48:52Z</time>
      </trkpt>
      <trkpt lat="50.24637" lon="3.63726">
        <ele>126.55</ele>
        <time>2021-08-08T03:48:59Z</time>
      </trkpt>
      <trkpt lat="50.24625" lon="3.63736">
        <ele>126.55</ele>
        <time>2021-08-08T03:49:04Z</time>
      </trkpt>
      <trkpt lat="50.24605" lon="3.63741">
        <ele>126.55</ele>
        <time>2021-08-08T03:49:11Z</time>
      </trkpt>
      <trkpt lat="50.24577" lon="3.63748">
        <ele>126.55</ele>
        <time>2021-08-08T03:49:20Z</time>
      </trkpt>
      <trkpt lat="50.24576" lon="3.63746">
        <ele>126.55</ele>
        <time>2021-08-08T03:49:21Z</time>
      </trkpt>
      <trkpt lat="50.24575" lon="3.63745">
        <ele>126.55</ele>
        <time>2021-08-08T03:49:22Z</time>
      </trkpt>
      <trkpt lat="50.24574" lon="3.63745">
        <ele>126.55</ele>
        <time>2021-08-08T03:49:23Z</time>
      </trkpt>
      <trkpt lat="50.24572" lon="3.63746">
        <ele>126.55</ele>
        <time>2021-08-08T03:49:24Z</time>
      </trkpt>
      <trkpt lat="50.24571" lon="3.63746">
        <ele>126.55</ele>
        <time>2021-08-08T03:49:25Z</time>
      </trkpt>
      <trkpt lat="50.24569" lon="3.63746">
        <ele>126.55</ele>
        <time>2021-08-08T03:49:26Z</time>
      </trkpt>
      <trkpt lat="50.24567" lon="3.63747">
        <ele>126.55</ele>
        <time>2021-08-08T03:49:27Z</time>
      </trkpt>
      <trkpt lat="50.24552" lon="3.63746">
        <ele>126.55</ele>
        <time>2021-08-08T03:49:32Z</time>
      </trkpt>
      <trkpt lat="50.24551" lon="3.63742">
        <ele>126.55</ele>
        <time>2021-08-08T03:49:33Z</time>
      </trkpt>
      <trkpt lat="50.24551" lon="3.63713">
        <ele>127.03</ele>
        <time>2021-08-08T03:49:40Z</time>
      </trkpt>
      <trkpt lat="50.24552" lon="3.63707">
        <ele>127.03</ele>
        <time>2021-08-08T03:49:42Z</time>
      </trkpt>
      <trkpt lat="50.2455" lon="3.63705">
        <ele>127.03</ele>
        <time>2021-08-08T03:49:43Z</time>
      </trkpt>
      <trkpt lat="50.24548" lon="3.63704">
        <ele>127.03</ele>
        <time>2021-08-08T03:49:44Z</time>
      </trkpt>
      <trkpt lat="50.24546" lon="3.63704">
        <ele>127.03</ele>
        <time>2021-08-08T03:49:45Z</time>
      </trkpt>
      <trkpt lat="50.24543" lon="3.63703">
        <ele>127.03</ele>
        <time>2021-08-08T03:49:46Z</time>
      </trkpt>
      <trkpt lat="50.24541" lon="3.63703">
        <ele>127.03</ele>
        <time>2021-08-08T03:49:47Z</time>
      </trkpt>
      <trkpt lat="50.2454" lon="3.63705">
        <ele>127.03</ele>
        <time>2021-08-08T03:49:48Z</time>
      </trkpt>
      <trkpt lat="50.24538" lon="3.63705">
        <ele>127.03</ele>
        <time>2021-08-08T03:49:49Z</time>
      </trkpt>
      <trkpt lat="50.24537" lon="3.63705">
        <ele>127.51</ele>
        <time>2021-08-08T03:49:53Z</time>
      </trkpt>
      <trkpt lat="50.24536" lon="3.63705">
        <ele>127.51</ele>
        <time>2021-08-08T03:50:06Z</time>
      </trkpt>
      <trkpt lat="50.24533" lon="3.63704">
        <ele>127.51</ele>
        <time>2021-08-08T03:50:12Z</time>
      </trkpt>
      <trkpt lat="50.24514" lon="3.63707">
        <ele>124.63</ele>
        <time>2021-08-08T03:50:18Z</time>
      </trkpt>
      <trkpt lat="50.24498" lon="3.6371">
        <ele>122.22</ele>
        <time>2021-08-08T03:50:22Z</time>
      </trkpt>
      <trkpt lat="50.24496" lon="3.63711">
        <ele>121.74</ele>
        <time>2021-08-08T03:50:23Z</time>
      </trkpt>
      <trkpt lat="50.24494" lon="3.63715">
        <ele>120.78</ele>
        <time>2021-08-08T03:50:24Z</time>
      </trkpt>
      <trkpt lat="50.24478" lon="3.63749">
        <ele>117.9</ele>
        <time>2021-08-08T03:50:29Z</time>
      </trkpt>
      <trkpt lat="50.24467" lon="3.63772">
        <ele>116.94</ele>
        <time>2021-08-08T03:50:32Z</time>
      </trkpt>
      <trkpt lat="50.24465" lon="3.6378">
        <ele>116.94</ele>
        <time>2021-08-08T03:50:33Z</time>
      </trkpt>
      <trkpt lat="50.24463" lon="3.63788">
        <ele>116.94</ele>
        <time>2021-08-08T03:50:34Z</time>
      </trkpt>
      <trkpt lat="50.24463" lon="3.63795">
        <ele>116.94</ele>
        <time>2021-08-08T03:50:35Z</time>
      </trkpt>
      <trkpt lat="50.24463" lon="3.63802">
        <ele>116.94</ele>
        <time>2021-08-08T03:50:36Z</time>
      </trkpt>
      <trkpt lat="50.24464" lon="3.63831">
        <ele>117.42</ele>
        <time>2021-08-08T03:50:40Z</time>
      </trkpt>
      <trkpt lat="50.24463" lon="3.63847">
        <ele>117.42</ele>
        <time>2021-08-08T03:50:42Z</time>
      </trkpt>
      <trkpt lat="50.24463" lon="3.63854">
        <ele>117.42</ele>
        <time>2021-08-08T03:50:43Z</time>
      </trkpt>
      <trkpt lat="50.24462" lon="3.63875">
        <ele>117.42</ele>
        <time>2021-08-08T03:50:46Z</time>
      </trkpt>
      <trkpt lat="50.24462" lon="3.63883">
        <ele>117.42</ele>
        <time>2021-08-08T03:50:47Z</time>
      </trkpt>
      <trkpt lat="50.24459" lon="3.63924">
        <ele>117.42</ele>
        <time>2021-08-08T03:50:53Z</time>
      </trkpt>
      <trkpt lat="50.24457" lon="3.63942">
        <ele>118.86</ele>
        <time>2021-08-08T03:50:56Z</time>
      </trkpt>
      <trkpt lat="50.24456" lon="3.63949">
        <ele>118.86</ele>
        <time>2021-08-08T03:50:57Z</time>
      </trkpt>
      <trkpt lat="50.24456" lon="3.63996">
        <ele>120.3</ele>
        <time>2021-08-08T03:51:05Z</time>
      </trkpt>
      <trkpt lat="50.24455" lon="3.6403">
        <ele>121.26</ele>
        <time>2021-08-08T03:51:12Z</time>
      </trkpt>
      <trkpt lat="50.24452" lon="3.64064">
        <ele>123.19</ele>
        <time>2021-08-08T03:51:20Z</time>
      </trkpt>
      <trkpt lat="50.24456" lon="3.6408">
        <ele>123.19</ele>
        <time>2021-08-08T03:51:24Z</time>
      </trkpt>
      <trkpt lat="50.24458" lon="3.64083">
        <ele>123.19</ele>
        <time>2021-08-08T03:51:25Z</time>
      </trkpt>
      <trkpt lat="50.24461" lon="3.64087">
        <ele>123.67</ele>
        <time>2021-08-08T03:51:26Z</time>
      </trkpt>
      <trkpt lat="50.24464" lon="3.6409">
        <ele>123.67</ele>
        <time>2021-08-08T03:51:27Z</time>
      </trkpt>
      <trkpt lat="50.24468" lon="3.64094">
        <ele>123.67</ele>
        <time>2021-08-08T03:51:28Z</time>
      </trkpt>
      <trkpt lat="50.24472" lon="3.64098">
        <ele>123.67</ele>
        <time>2021-08-08T03:51:29Z</time>
      </trkpt>
      <trkpt lat="50.24503" lon="3.64124">
        <ele>123.19</ele>
        <time>2021-08-08T03:51:37Z</time>
      </trkpt>
      <trkpt lat="50.24506" lon="3.64129">
        <ele>123.19</ele>
        <time>2021-08-08T03:51:38Z</time>
      </trkpt>
      <trkpt lat="50.24509" lon="3.64134">
        <ele>123.19</ele>
        <time>2021-08-08T03:51:39Z</time>
      </trkpt>
      <trkpt lat="50.24512" lon="3.64141">
        <ele>123.19</ele>
        <time>2021-08-08T03:51:40Z</time>
      </trkpt>
      <trkpt lat="50.24514" lon="3.64146">
        <ele>123.19</ele>
        <time>2021-08-08T03:51:41Z</time>
      </trkpt>
      <trkpt lat="50.24517" lon="3.64153">
        <ele>123.19</ele>
        <time>2021-08-08T03:51:42Z</time>
      </trkpt>
      <trkpt lat="50.2452" lon="3.64158">
        <ele>123.19</ele>
        <time>2021-08-08T03:51:43Z</time>
      </trkpt>
      <trkpt lat="50.24538" lon="3.64192">
        <ele>123.19</ele>
        <time>2021-08-08T03:51:49Z</time>
      </trkpt>
      <trkpt lat="50.24554" lon="3.64236">
        <ele>123.19</ele>
        <time>2021-08-08T03:51:56Z</time>
      </trkpt>
      <trkpt lat="50.24555" lon="3.64245">
        <ele>123.19</ele>
        <time>2021-08-08T03:51:57Z</time>
      </trkpt>
      <trkpt lat="50.24554" lon="3.64252">
        <ele>122.22</ele>
        <time>2021-08-08T03:51:58Z</time>
      </trkpt>
      <trkpt lat="50.24551" lon="3.64258">
        <ele>122.22</ele>
        <time>2021-08-08T03:51:59Z</time>
      </trkpt>
      <trkpt lat="50.24548" lon="3.64264">
        <ele>122.22</ele>
        <time>2021-08-08T03:52:00Z</time>
      </trkpt>
      <trkpt lat="50.24545" lon="3.6427">
        <ele>122.22</ele>
        <time>2021-08-08T03:52:01Z</time>
      </trkpt>
      <trkpt lat="50.24512" lon="3.64338">
        <ele>123.67</ele>
        <time>2021-08-08T03:52:12Z</time>
      </trkpt>
      <trkpt lat="50.24483" lon="3.64401">
        <ele>124.15</ele>
        <time>2021-08-08T03:52:22Z</time>
      </trkpt>
      <trkpt lat="50.24451" lon="3.64465">
        <ele>125.11</ele>
        <time>2021-08-08T03:52:32Z</time>
      </trkpt>
      <trkpt lat="50.24423" lon="3.64526">
        <ele>125.11</ele>
        <time>2021-08-08T03:52:41Z</time>
      </trkpt>
      <trkpt lat="50.24383" lon="3.64604">
        <ele>125.59</ele>
        <time>2021-08-08T03:52:53Z</time>
      </trkpt>
      <trkpt lat="50.2434" lon="3.64669">
        <ele>125.59</ele>
        <time>2021-08-08T03:53:04Z</time>
      </trkpt>
      <trkpt lat="50.24308" lon="3.6471">
        <ele>125.59</ele>
        <time>2021-08-08T03:53:12Z</time>
      </trkpt>
      <trkpt lat="50.24286" lon="3.64744">
        <ele>124.15</ele>
        <time>2021-08-08T03:53:18Z</time>
      </trkpt>
      <trkpt lat="50.24259" lon="3.64782">
        <ele>124.63</ele>
        <time>2021-08-08T03:53:26Z</time>
      </trkpt>
      <trkpt lat="50.24258" lon="3.64783">
        <ele>124.63</ele>
        <time>2021-08-08T03:53:27Z</time>
      </trkpt>
      <trkpt lat="50.24253" lon="3.64776">
        <ele>124.63</ele>
        <time>2021-08-08T03:53:30Z</time>
      </trkpt>
      <trkpt lat="50.24252" lon="3.64772">
        <ele>124.63</ele>
        <time>2021-08-08T03:53:31Z</time>
      </trkpt>
      <trkpt lat="50.24242" lon="3.64756">
        <ele>126.07</ele>
        <time>2021-08-08T03:53:36Z</time>
      </trkpt>
      <trkpt lat="50.24233" lon="3.64741">
        <ele>124.63</ele>
        <time>2021-08-08T03:53:39Z</time>
      </trkpt>
      <trkpt lat="50.242" lon="3.64698">
        <ele>124.15</ele>
        <time>2021-08-08T03:53:48Z</time>
      </trkpt>
      <trkpt lat="50.24192" lon="3.6469">
        <ele>124.15</ele>
        <time>2021-08-08T03:53:50Z</time>
      </trkpt>
      <trkpt lat="50.24188" lon="3.64687">
        <ele>124.15</ele>
        <time>2021-08-08T03:53:51Z</time>
      </trkpt>
      <trkpt lat="50.24149" lon="3.64642">
        <ele>124.15</ele>
        <time>2021-08-08T03:54:01Z</time>
      </trkpt>
      <trkpt lat="50.24109" lon="3.64597">
        <ele>123.67</ele>
        <time>2021-08-08T03:54:11Z</time>
      </trkpt>
      <trkpt lat="50.24075" lon="3.64562">
        <ele>125.11</ele>
        <time>2021-08-08T03:54:19Z</time>
      </trkpt>
      <trkpt lat="50.24029" lon="3.64508">
        <ele>123.67</ele>
        <time>2021-08-08T03:54:30Z</time>
      </trkpt>
      <trkpt lat="50.24015" lon="3.64484">
        <ele>123.67</ele>
        <time>2021-08-08T03:54:34Z</time>
      </trkpt>
      <trkpt lat="50.24013" lon="3.64477">
        <ele>123.67</ele>
        <time>2021-08-08T03:54:35Z</time>
      </trkpt>
      <trkpt lat="50.24013" lon="3.6447">
        <ele>123.67</ele>
        <time>2021-08-08T03:54:36Z</time>
      </trkpt>
      <trkpt lat="50.24012" lon="3.64453">
        <ele>123.67</ele>
        <time>2021-08-08T03:54:38Z</time>
      </trkpt>
      <trkpt lat="50.2401" lon="3.64445">
        <ele>123.67</ele>
        <time>2021-08-08T03:54:39Z</time>
      </trkpt>
      <trkpt lat="50.24008" lon="3.64438">
        <ele>123.67</ele>
        <time>2021-08-08T03:54:40Z</time>
      </trkpt>
      <trkpt lat="50.24005" lon="3.64432">
        <ele>123.67</ele>
        <time>2021-08-08T03:54:41Z</time>
      </trkpt>
      <trkpt lat="50.24001" lon="3.64427">
        <ele>123.67</ele>
        <time>2021-08-08T03:54:42Z</time>
      </trkpt>
      <trkpt lat="50.23996" lon="3.64424">
        <ele>123.67</ele>
        <time>2021-08-08T03:54:43Z</time>
      </trkpt>
      <trkpt lat="50.23991" lon="3.64423">
        <ele>123.67</ele>
        <time>2021-08-08T03:54:44Z</time>
      </trkpt>
      <trkpt lat="50.23985" lon="3.64424">
        <ele>124.15</ele>
        <time>2021-08-08T03:54:45Z</time>
      </trkpt>
      <trkpt lat="50.23981" lon="3.64427">
        <ele>124.15</ele>
        <time>2021-08-08T03:54:46Z</time>
      </trkpt>
      <trkpt lat="50.23976" lon="3.6443">
        <ele>124.15</ele>
        <time>2021-08-08T03:54:47Z</time>
      </trkpt>
      <trkpt lat="50.23971" lon="3.64431">
        <ele>124.15</ele>
        <time>2021-08-08T03:54:48Z</time>
      </trkpt>
      <trkpt lat="50.23966" lon="3.64431">
        <ele>124.15</ele>
        <time>2021-08-08T03:54:49Z</time>
      </trkpt>
      <trkpt lat="50.23961" lon="3.6443">
        <ele>123.67</ele>
        <time>2021-08-08T03:54:50Z</time>
      </trkpt>
      <trkpt lat="50.23956" lon="3.64428">
        <ele>123.67</ele>
        <time>2021-08-08T03:54:51Z</time>
      </trkpt>
      <trkpt lat="50.23952" lon="3.64425">
        <ele>123.67</ele>
        <time>2021-08-08T03:54:52Z</time>
      </trkpt>
      <trkpt lat="50.23947" lon="3.64422">
        <ele>126.07</ele>
        <time>2021-08-08T03:54:53Z</time>
      </trkpt>
      <trkpt lat="50.23943" lon="3.64419">
        <ele>126.07</ele>
        <time>2021-08-08T03:54:54Z</time>
      </trkpt>
      <trkpt lat="50.23904" lon="3.64403">
        <ele>126.07</ele>
        <time>2021-08-08T03:55:02Z</time>
      </trkpt>
      <trkpt lat="50.23894" lon="3.64401">
        <ele>124.63</ele>
        <time>2021-08-08T03:55:04Z</time>
      </trkpt>
      <trkpt lat="50.2384" lon="3.64394">
        <ele>124.63</ele>
        <time>2021-08-08T03:55:15Z</time>
      </trkpt>
      <trkpt lat="50.23817" lon="3.64392">
        <ele>126.07</ele>
        <time>2021-08-08T03:55:20Z</time>
      </trkpt>
      <trkpt lat="50.23759" lon="3.64387">
        <ele>126.55</ele>
        <time>2021-08-08T03:55:33Z</time>
      </trkpt>
      <trkpt lat="50.23747" lon="3.64387">
        <ele>126.55</ele>
        <time>2021-08-08T03:55:36Z</time>
      </trkpt>
      <trkpt lat="50.237" lon="3.6438">
        <ele>127.03</ele>
        <time>2021-08-08T03:55:47Z</time>
      </trkpt>
      <trkpt lat="50.23656" lon="3.64375">
        <ele>127.99</ele>
        <time>2021-08-08T03:55:57Z</time>
      </trkpt>
      <trkpt lat="50.23613" lon="3.6437">
        <ele>128.47</ele>
        <time>2021-08-08T03:56:07Z</time>
      </trkpt>
      <trkpt lat="50.23569" lon="3.64367">
        <ele>128.95</ele>
        <time>2021-08-08T03:56:17Z</time>
      </trkpt>
      <trkpt lat="50.2353" lon="3.6437">
        <ele>129.43</ele>
        <time>2021-08-08T03:56:26Z</time>
      </trkpt>
      <trkpt lat="50.23527" lon="3.64373">
        <ele>129.43</ele>
        <time>2021-08-08T03:56:27Z</time>
      </trkpt>
      <trkpt lat="50.23523" lon="3.64376">
        <ele>130.4</ele>
        <time>2021-08-08T03:56:28Z</time>
      </trkpt>
      <trkpt lat="50.23518" lon="3.64379">
        <ele>130.4</ele>
        <time>2021-08-08T03:56:29Z</time>
      </trkpt>
      <trkpt lat="50.23515" lon="3.64382">
        <ele>130.4</ele>
        <time>2021-08-08T03:56:30Z</time>
      </trkpt>
      <trkpt lat="50.2348" lon="3.64395">
        <ele>130.4</ele>
        <time>2021-08-08T03:56:38Z</time>
      </trkpt>
      <trkpt lat="50.23443" lon="3.6441">
        <ele>130.4</ele>
        <time>2021-08-08T03:56:47Z</time>
      </trkpt>
      <trkpt lat="50.234" lon="3.64427">
        <ele>130.4</ele>
        <time>2021-08-08T03:56:58Z</time>
      </trkpt>
      <trkpt lat="50.23361" lon="3.6444">
        <ele>131.36</ele>
        <time>2021-08-08T03:57:08Z</time>
      </trkpt>
      <trkpt lat="50.23328" lon="3.64452">
        <ele>131.36</ele>
        <time>2021-08-08T03:57:17Z</time>
      </trkpt>
      <trkpt lat="50.23291" lon="3.64462">
        <ele>131.36</ele>
        <time>2021-08-08T03:57:27Z</time>
      </trkpt>
      <trkpt lat="50.23251" lon="3.64473">
        <ele>131.84</ele>
        <time>2021-08-08T03:57:39Z</time>
      </trkpt>
      <trkpt lat="50.23229" lon="3.64479">
        <ele>132.8</ele>
        <time>2021-08-08T03:57:47Z</time>
      </trkpt>
      <trkpt lat="50.23202" lon="3.64483">
        <ele>132.8</ele>
        <time>2021-08-08T03:57:55Z</time>
      </trkpt>
      <trkpt lat="50.23164" lon="3.64491">
        <ele>132.8</ele>
        <time>2021-08-08T03:58:05Z</time>
      </trkpt>
      <trkpt lat="50.23131" lon="3.64496">
        <ele>133.28</ele>
        <time>2021-08-08T03:58:14Z</time>
      </trkpt>
      <trkpt lat="50.23101" lon="3.64501">
        <ele>133.28</ele>
        <time>2021-08-08T03:58:22Z</time>
      </trkpt>
      <trkpt lat="50.23065" lon="3.64509">
        <ele>130.88</ele>
        <time>2021-08-08T03:58:31Z</time>
      </trkpt>
      <trkpt lat="50.23025" lon="3.64519">
        <ele>130.88</ele>
        <time>2021-08-08T03:58:41Z</time>
      </trkpt>
      <trkpt lat="50.22993" lon="3.64532">
        <ele>131.36</ele>
        <time>2021-08-08T03:58:49Z</time>
      </trkpt>
      <trkpt lat="50.22963" lon="3.64546">
        <ele>131.36</ele>
        <time>2021-08-08T03:58:57Z</time>
      </trkpt>
      <trkpt lat="50.22959" lon="3.64548">
        <ele>131.36</ele>
        <time>2021-08-08T03:58:58Z</time>
      </trkpt>
      <trkpt lat="50.22955" lon="3.64551">
        <ele>131.36</ele>
        <time>2021-08-08T03:58:59Z</time>
      </trkpt>
      <trkpt lat="50.22952" lon="3.64554">
        <ele>131.36</ele>
        <time>2021-08-08T03:59:00Z</time>
      </trkpt>
      <trkpt lat="50.22948" lon="3.64556">
        <ele>131.36</ele>
        <time>2021-08-08T03:59:01Z</time>
      </trkpt>
      <trkpt lat="50.22945" lon="3.64558">
        <ele>131.36</ele>
        <time>2021-08-08T03:59:02Z</time>
      </trkpt>
      <trkpt lat="50.22941" lon="3.6456">
        <ele>131.36</ele>
        <time>2021-08-08T03:59:03Z</time>
      </trkpt>
      <trkpt lat="50.2291" lon="3.64579">
        <ele>132.32</ele>
        <time>2021-08-08T03:59:12Z</time>
      </trkpt>
      <trkpt lat="50.2289" lon="3.64587">
        <ele>132.32</ele>
        <time>2021-08-08T03:59:18Z</time>
      </trkpt>
      <trkpt lat="50.22878" lon="3.64591">
        <ele>132.32</ele>
        <time>2021-08-08T03:59:21Z</time>
      </trkpt>
      <trkpt lat="50.22874" lon="3.64593">
        <ele>132.32</ele>
        <time>2021-08-08T03:59:22Z</time>
      </trkpt>
      <trkpt lat="50.2287" lon="3.64595">
        <ele>132.32</ele>
        <time>2021-08-08T03:59:23Z</time>
      </trkpt>
      <trkpt lat="50.22866" lon="3.64596">
        <ele>132.32</ele>
        <time>2021-08-08T03:59:24Z</time>
      </trkpt>
      <trkpt lat="50.22861" lon="3.64598">
        <ele>132.32</ele>
        <time>2021-08-08T03:59:25Z</time>
      </trkpt>
      <trkpt lat="50.22854" lon="3.64601">
        <ele>132.32</ele>
        <time>2021-08-08T03:59:27Z</time>
      </trkpt>
      <trkpt lat="50.22816" lon="3.64617">
        <ele>132.8</ele>
        <time>2021-08-08T03:59:35Z</time>
      </trkpt>
      <trkpt lat="50.22762" lon="3.64638">
        <ele>132.8</ele>
        <time>2021-08-08T03:59:46Z</time>
      </trkpt>
      <trkpt lat="50.22712" lon="3.6466">
        <ele>132.8</ele>
        <time>2021-08-08T03:59:56Z</time>
      </trkpt>
      <trkpt lat="50.22689" lon="3.64677">
        <ele>131.36</ele>
        <time>2021-08-08T04:00:01Z</time>
      </trkpt>
      <trkpt lat="50.22649" lon="3.64708">
        <ele>131.84</ele>
        <time>2021-08-08T04:00:10Z</time>
      </trkpt>
      <trkpt lat="50.226" lon="3.64745">
        <ele>133.76</ele>
        <time>2021-08-08T04:00:21Z</time>
      </trkpt>
      <trkpt lat="50.22561" lon="3.64777">
        <ele>133.76</ele>
        <time>2021-08-08T04:00:29Z</time>
      </trkpt>
      <trkpt lat="50.22512" lon="3.64819">
        <ele>133.76</ele>
        <time>2021-08-08T04:00:39Z</time>
      </trkpt>
      <trkpt lat="50.22483" lon="3.64847">
        <ele>132.32</ele>
        <time>2021-08-08T04:00:45Z</time>
      </trkpt>
      <trkpt lat="50.22438" lon="3.64878">
        <ele>132.32</ele>
        <time>2021-08-08T04:00:54Z</time>
      </trkpt>
      <trkpt lat="50.22388" lon="3.64914">
        <ele>132.32</ele>
        <time>2021-08-08T04:01:04Z</time>
      </trkpt>
      <trkpt lat="50.22337" lon="3.64949">
        <ele>132.32</ele>
        <time>2021-08-08T04:01:14Z</time>
      </trkpt>
      <trkpt lat="50.22311" lon="3.64961">
        <ele>133.76</ele>
        <time>2021-08-08T04:01:19Z</time>
      </trkpt>
      <trkpt lat="50.22273" lon="3.64981">
        <ele>134.72</ele>
        <time>2021-08-08T04:01:28Z</time>
      </trkpt>
      <trkpt lat="50.2226" lon="3.64999">
        <ele>135.2</ele>
        <time>2021-08-08T04:01:33Z</time>
      </trkpt>
      <trkpt lat="50.22257" lon="3.65002">
        <ele>135.2</ele>
        <time>2021-08-08T04:01:34Z</time>
      </trkpt>
      <trkpt lat="50.22253" lon="3.65004">
        <ele>135.2</ele>
        <time>2021-08-08T04:01:35Z</time>
      </trkpt>
      <trkpt lat="50.22249" lon="3.65006">
        <ele>135.2</ele>
        <time>2021-08-08T04:01:36Z</time>
      </trkpt>
      <trkpt lat="50.22203" lon="3.65026">
        <ele>135.2</ele>
        <time>2021-08-08T04:01:46Z</time>
      </trkpt>
      <trkpt lat="50.22151" lon="3.6504">
        <ele>135.2</ele>
        <time>2021-08-08T04:01:57Z</time>
      </trkpt>
      <trkpt lat="50.22114" lon="3.65061">
        <ele>136.16</ele>
        <time>2021-08-08T04:02:05Z</time>
      </trkpt>
      <trkpt lat="50.22057" lon="3.65094">
        <ele>136.64</ele>
        <time>2021-08-08T04:02:17Z</time>
      </trkpt>
      <trkpt lat="50.22002" lon="3.65124">
        <ele>136.64</ele>
        <time>2021-08-08T04:02:27Z</time>
      </trkpt>
      <trkpt lat="50.21992" lon="3.65128">
        <ele>135.68</ele>
        <time>2021-08-08T04:02:29Z</time>
      </trkpt>
      <trkpt lat="50.21943" lon="3.65151">
        <ele>135.2</ele>
        <time>2021-08-08T04:02:38Z</time>
      </trkpt>
      <trkpt lat="50.21903" lon="3.65167">
        <ele>135.2</ele>
        <time>2021-08-08T04:02:46Z</time>
      </trkpt>
      <trkpt lat="50.21857" lon="3.65185">
        <ele>136.64</ele>
        <time>2021-08-08T04:02:56Z</time>
      </trkpt>
      <trkpt lat="50.21834" lon="3.65196">
        <ele>136.64</ele>
        <time>2021-08-08T04:03:01Z</time>
      </trkpt>
      <trkpt lat="50.21829" lon="3.65198">
        <ele>136.64</ele>
        <time>2021-08-08T04:03:02Z</time>
      </trkpt>
      <trkpt lat="50.21784" lon="3.65213">
        <ele>134.24</ele>
        <time>2021-08-08T04:03:11Z</time>
      </trkpt>
      <trkpt lat="50.2174" lon="3.65218">
        <ele>133.28</ele>
        <time>2021-08-08T04:03:19Z</time>
      </trkpt>
      <trkpt lat="50.21734" lon="3.65219">
        <ele>133.28</ele>
        <time>2021-08-08T04:03:20Z</time>
      </trkpt>
      <trkpt lat="50.21697" lon="3.65237">
        <ele>131.84</ele>
        <time>2021-08-08T04:03:27Z</time>
      </trkpt>
      <trkpt lat="50.21692" lon="3.6524">
        <ele>131.36</ele>
        <time>2021-08-08T04:03:28Z</time>
      </trkpt>
      <trkpt lat="50.21649" lon="3.65274">
        <ele>130.88</ele>
        <time>2021-08-08T04:03:37Z</time>
      </trkpt>
      <trkpt lat="50.21607" lon="3.65315">
        <ele>128.47</ele>
        <time>2021-08-08T04:03:45Z</time>
      </trkpt>
      <trkpt lat="50.21596" lon="3.65324">
        <ele>128.47</ele>
        <time>2021-08-08T04:03:47Z</time>
      </trkpt>
      <trkpt lat="50.2159" lon="3.65328">
        <ele>128.47</ele>
        <time>2021-08-08T04:03:48Z</time>
      </trkpt>
      <trkpt lat="50.21584" lon="3.6533">
        <ele>128.47</ele>
        <time>2021-08-08T04:03:49Z</time>
      </trkpt>
      <trkpt lat="50.21577" lon="3.65331">
        <ele>128.47</ele>
        <time>2021-08-08T04:03:50Z</time>
      </trkpt>
      <trkpt lat="50.21571" lon="3.65332">
        <ele>128.47</ele>
        <time>2021-08-08T04:03:51Z</time>
      </trkpt>
      <trkpt lat="50.21564" lon="3.65332">
        <ele>127.99</ele>
        <time>2021-08-08T04:03:52Z</time>
      </trkpt>
      <trkpt lat="50.21505" lon="3.65325">
        <ele>126.55</ele>
        <time>2021-08-08T04:04:01Z</time>
      </trkpt>
      <trkpt lat="50.2143" lon="3.65316">
        <ele>125.59</ele>
        <time>2021-08-08T04:04:12Z</time>
      </trkpt>
      <trkpt lat="50.21397" lon="3.65315">
        <ele>125.59</ele>
        <time>2021-08-08T04:04:17Z</time>
      </trkpt>
      <trkpt lat="50.21359" lon="3.65314">
        <ele>125.59</ele>
        <time>2021-08-08T04:04:23Z</time>
      </trkpt>
      <trkpt lat="50.21354" lon="3.65315">
        <ele>125.59</ele>
        <time>2021-08-08T04:04:24Z</time>
      </trkpt>
      <trkpt lat="50.21348" lon="3.65316">
        <ele>127.03</ele>
        <time>2021-08-08T04:04:25Z</time>
      </trkpt>
      <trkpt lat="50.21342" lon="3.65315">
        <ele>127.03</ele>
        <time>2021-08-08T04:04:26Z</time>
      </trkpt>
      <trkpt lat="50.213" lon="3.65314">
        <ele>127.03</ele>
        <time>2021-08-08T04:04:34Z</time>
      </trkpt>
      <trkpt lat="50.21258" lon="3.65314">
        <ele>128.95</ele>
        <time>2021-08-08T04:04:43Z</time>
      </trkpt>
      <trkpt lat="50.21221" lon="3.65314">
        <ele>128.95</ele>
        <time>2021-08-08T04:04:51Z</time>
      </trkpt>
      <trkpt lat="50.21216" lon="3.65315">
        <ele>129.92</ele>
        <time>2021-08-08T04:04:52Z</time>
      </trkpt>
      <trkpt lat="50.21212" lon="3.65317">
        <ele>129.92</ele>
        <time>2021-08-08T04:04:53Z</time>
      </trkpt>
      <trkpt lat="50.21208" lon="3.6532">
        <ele>129.92</ele>
        <time>2021-08-08T04:04:54Z</time>
      </trkpt>
      <trkpt lat="50.21204" lon="3.65324">
        <ele>129.92</ele>
        <time>2021-08-08T04:04:55Z</time>
      </trkpt>
      <trkpt lat="50.21202" lon="3.65328">
        <ele>129.92</ele>
        <time>2021-08-08T04:04:56Z</time>
      </trkpt>
      <trkpt lat="50.21199" lon="3.65334">
        <ele>129.92</ele>
        <time>2021-08-08T04:04:57Z</time>
      </trkpt>
      <trkpt lat="50.21197" lon="3.65341">
        <ele>130.88</ele>
        <time>2021-08-08T04:04:58Z</time>
      </trkpt>
      <trkpt lat="50.21196" lon="3.65344">
        <ele>130.88</ele>
        <time>2021-08-08T04:04:59Z</time>
      </trkpt>
      <trkpt lat="50.21194" lon="3.6535">
        <ele>130.88</ele>
        <time>2021-08-08T04:05:00Z</time>
      </trkpt>
      <trkpt lat="50.21176" lon="3.65408">
        <ele>131.84</ele>
        <time>2021-08-08T04:05:10Z</time>
      </trkpt>
      <trkpt lat="50.21153" lon="3.65489">
        <ele>132.8</ele>
        <time>2021-08-08T04:05:23Z</time>
      </trkpt>
      <trkpt lat="50.21133" lon="3.65571">
        <ele>133.76</ele>
        <time>2021-08-08T04:05:35Z</time>
      </trkpt>
      <trkpt lat="50.2111" lon="3.65666">
        <ele>135.68</ele>
        <time>2021-08-08T04:05:49Z</time>
      </trkpt>
      <trkpt lat="50.21091" lon="3.65744">
        <ele>136.64</ele>
        <time>2021-08-08T04:06:01Z</time>
      </trkpt>
      <trkpt lat="50.21074" lon="3.65815">
        <ele>138.09</ele>
        <time>2021-08-08T04:06:12Z</time>
      </trkpt>
      <trkpt lat="50.21055" lon="3.65875">
        <ele>139.05</ele>
        <time>2021-08-08T04:06:21Z</time>
      </trkpt>
      <trkpt lat="50.21026" lon="3.65949">
        <ele>139.05</ele>
        <time>2021-08-08T04:06:32Z</time>
      </trkpt>
      <trkpt lat="50.21012" lon="3.65978">
        <ele>137.61</ele>
        <time>2021-08-08T04:06:36Z</time>
      </trkpt>
      <trkpt lat="50.20975" lon="3.66049">
        <ele>136.64</ele>
        <time>2021-08-08T04:06:46Z</time>
      </trkpt>
      <trkpt lat="50.20938" lon="3.66115">
        <ele>136.64</ele>
        <time>2021-08-08T04:06:56Z</time>
      </trkpt>
      <trkpt lat="50.2092" lon="3.66146">
        <ele>137.61</ele>
        <time>2021-08-08T04:07:01Z</time>
      </trkpt>
      <trkpt lat="50.20888" lon="3.66212">
        <ele>138.09</ele>
        <time>2021-08-08T04:07:11Z</time>
      </trkpt>
      <trkpt lat="50.20866" lon="3.66269">
        <ele>139.53</ele>
        <time>2021-08-08T04:07:20Z</time>
      </trkpt>
      <trkpt lat="50.20849" lon="3.66322">
        <ele>140.01</ele>
        <time>2021-08-08T04:07:28Z</time>
      </trkpt>
      <trkpt lat="50.20847" lon="3.66328">
        <ele>140.01</ele>
        <time>2021-08-08T04:07:29Z</time>
      </trkpt>
      <trkpt lat="50.20827" lon="3.66395">
        <ele>140.97</ele>
        <time>2021-08-08T04:07:39Z</time>
      </trkpt>
      <trkpt lat="50.20814" lon="3.66449">
        <ele>141.45</ele>
        <time>2021-08-08T04:07:47Z</time>
      </trkpt>
      <trkpt lat="50.20812" lon="3.66456">
        <ele>141.45</ele>
        <time>2021-08-08T04:07:48Z</time>
      </trkpt>
      <trkpt lat="50.20804" lon="3.66482">
        <ele>142.41</ele>
        <time>2021-08-08T04:07:52Z</time>
      </trkpt>
      <trkpt lat="50.20803" lon="3.66487">
        <ele>142.41</ele>
        <time>2021-08-08T04:07:53Z</time>
      </trkpt>
      <trkpt lat="50.2079" lon="3.66542">
        <ele>142.41</ele>
        <time>2021-08-08T04:08:02Z</time>
      </trkpt>
      <trkpt lat="50.20792" lon="3.66548">
        <ele>142.41</ele>
        <time>2021-08-08T04:08:03Z</time>
      </trkpt>
      <trkpt lat="50.20795" lon="3.66553">
        <ele>142.41</ele>
        <time>2021-08-08T04:08:04Z</time>
      </trkpt>
      <trkpt lat="50.20801" lon="3.66561">
        <ele>142.41</ele>
        <time>2021-08-08T04:08:06Z</time>
      </trkpt>
      <trkpt lat="50.2083" lon="3.66598">
        <ele>143.85</ele>
        <time>2021-08-08T04:08:15Z</time>
      </trkpt>
      <trkpt lat="50.20861" lon="3.66641">
        <ele>144.82</ele>
        <time>2021-08-08T04:08:25Z</time>
      </trkpt>
      <trkpt lat="50.20893" lon="3.66684">
        <ele>145.78</ele>
        <time>2021-08-08T04:08:35Z</time>
      </trkpt>
      <trkpt lat="50.20899" lon="3.66694">
        <ele>145.78</ele>
        <time>2021-08-08T04:08:37Z</time>
      </trkpt>
      <trkpt lat="50.20901" lon="3.66701">
        <ele>145.78</ele>
        <time>2021-08-08T04:08:38Z</time>
      </trkpt>
      <trkpt lat="50.20902" lon="3.66708">
        <ele>145.78</ele>
        <time>2021-08-08T04:08:39Z</time>
      </trkpt>
      <trkpt lat="50.20901" lon="3.66715">
        <ele>145.78</ele>
        <time>2021-08-08T04:08:40Z</time>
      </trkpt>
      <trkpt lat="50.20899" lon="3.6672">
        <ele>145.78</ele>
        <time>2021-08-08T04:08:41Z</time>
      </trkpt>
      <trkpt lat="50.20896" lon="3.66725">
        <ele>145.78</ele>
        <time>2021-08-08T04:08:42Z</time>
      </trkpt>
      <trkpt lat="50.20893" lon="3.66729">
        <ele>145.78</ele>
        <time>2021-08-08T04:08:43Z</time>
      </trkpt>
      <trkpt lat="50.20883" lon="3.66742">
        <ele>145.78</ele>
        <time>2021-08-08T04:08:46Z</time>
      </trkpt>
      <trkpt lat="50.20856" lon="3.66788">
        <ele>143.85</ele>
        <time>2021-08-08T04:08:54Z</time>
      </trkpt>
      <trkpt lat="50.20807" lon="3.6687">
        <ele>141.45</ele>
        <time>2021-08-08T04:09:06Z</time>
      </trkpt>
      <trkpt lat="50.2079" lon="3.66898">
        <ele>141.45</ele>
        <time>2021-08-08T04:09:11Z</time>
      </trkpt>
      <trkpt lat="50.20786" lon="3.66904">
        <ele>141.45</ele>
        <time>2021-08-08T04:09:12Z</time>
      </trkpt>
      <trkpt lat="50.20783" lon="3.66908">
        <ele>141.45</ele>
        <time>2021-08-08T04:09:13Z</time>
      </trkpt>
      <trkpt lat="50.20773" lon="3.66921">
        <ele>142.89</ele>
        <time>2021-08-08T04:09:16Z</time>
      </trkpt>
      <trkpt lat="50.2077" lon="3.66926">
        <ele>142.89</ele>
        <time>2021-08-08T04:09:17Z</time>
      </trkpt>
      <trkpt lat="50.20761" lon="3.6694">
        <ele>143.37</ele>
        <time>2021-08-08T04:09:20Z</time>
      </trkpt>
      <trkpt lat="50.20758" lon="3.66944">
        <ele>143.37</ele>
        <time>2021-08-08T04:09:21Z</time>
      </trkpt>
      <trkpt lat="50.2074" lon="3.66979">
        <ele>144.34</ele>
        <time>2021-08-08T04:09:29Z</time>
      </trkpt>
      <trkpt lat="50.2072" lon="3.67009">
        <ele>145.78</ele>
        <time>2021-08-08T04:09:37Z</time>
      </trkpt>
      <trkpt lat="50.207" lon="3.67047">
        <ele>146.74</ele>
        <time>2021-08-08T04:09:45Z</time>
      </trkpt>
      <trkpt lat="50.20679" lon="3.67082">
        <ele>147.22</ele>
        <time>2021-08-08T04:09:53Z</time>
      </trkpt>
      <trkpt lat="50.20663" lon="3.67114">
        <ele>147.22</ele>
        <time>2021-08-08T04:10:00Z</time>
      </trkpt>
      <trkpt lat="50.20655" lon="3.67127">
        <ele>147.22</ele>
        <time>2021-08-08T04:10:03Z</time>
      </trkpt>
      <trkpt lat="50.20652" lon="3.67131">
        <ele>147.22</ele>
        <time>2021-08-08T04:10:04Z</time>
      </trkpt>
      <trkpt lat="50.20641" lon="3.6715">
        <ele>147.22</ele>
        <time>2021-08-08T04:10:08Z</time>
      </trkpt>
      <trkpt lat="50.20614" lon="3.67196">
        <ele>147.7</ele>
        <time>2021-08-08T04:10:17Z</time>
      </trkpt>
      <trkpt lat="50.20589" lon="3.67243">
        <ele>147.7</ele>
        <time>2021-08-08T04:10:26Z</time>
      </trkpt>
      <trkpt lat="50.20583" lon="3.67251">
        <ele>147.7</ele>
        <time>2021-08-08T04:10:30Z</time>
      </trkpt>
      <trkpt lat="50.20579" lon="3.67257">
        <ele>147.7</ele>
        <time>2021-08-08T04:10:33Z</time>
      </trkpt>
      <trkpt lat="50.20578" lon="3.6726">
        <ele>147.7</ele>
        <time>2021-08-08T04:10:34Z</time>
      </trkpt>
      <trkpt lat="50.20577" lon="3.67263">
        <ele>147.7</ele>
        <time>2021-08-08T04:10:35Z</time>
      </trkpt>
      <trkpt lat="50.20576" lon="3.67265">
        <ele>147.7</ele>
        <time>2021-08-08T04:10:36Z</time>
      </trkpt>
      <trkpt lat="50.20575" lon="3.67266">
        <ele>147.7</ele>
        <time>2021-08-08T04:10:37Z</time>
      </trkpt>
      <trkpt lat="50.20574" lon="3.67266">
        <ele>147.7</ele>
        <time>2021-08-08T04:10:38Z</time>
      </trkpt>
      <trkpt lat="50.20572" lon="3.67267">
        <ele>147.7</ele>
        <time>2021-08-08T04:10:39Z</time>
      </trkpt>
      <trkpt lat="50.20571" lon="3.67268">
        <ele>147.7</ele>
        <time>2021-08-08T04:10:40Z</time>
      </trkpt>
      <trkpt lat="50.20563" lon="3.6728">
        <ele>147.7</ele>
        <time>2021-08-08T04:10:45Z</time>
      </trkpt>
      <trkpt lat="50.20552" lon="3.673">
        <ele>147.7</ele>
        <time>2021-08-08T04:10:52Z</time>
      </trkpt>
      <trkpt lat="50.20543" lon="3.67323">
        <ele>146.26</ele>
        <time>2021-08-08T04:10:59Z</time>
      </trkpt>
      <trkpt lat="50.20531" lon="3.67347">
        <ele>145.78</ele>
        <time>2021-08-08T04:11:05Z</time>
      </trkpt>
      <trkpt lat="50.20507" lon="3.67388">
        <ele>144.82</ele>
        <time>2021-08-08T04:11:14Z</time>
      </trkpt>
      <trkpt lat="50.2049" lon="3.67418">
        <ele>144.34</ele>
        <time>2021-08-08T04:11:21Z</time>
      </trkpt>
      <trkpt lat="50.20465" lon="3.67456">
        <ele>141.93</ele>
        <time>2021-08-08T04:11:29Z</time>
      </trkpt>
      <trkpt lat="50.20462" lon="3.67462">
        <ele>141.93</ele>
        <time>2021-08-08T04:11:30Z</time>
      </trkpt>
      <trkpt lat="50.20458" lon="3.6747">
        <ele>141.93</ele>
        <time>2021-08-08T04:11:32Z</time>
      </trkpt>
      <trkpt lat="50.20456" lon="3.67471">
        <ele>141.93</ele>
        <time>2021-08-08T04:11:33Z</time>
      </trkpt>
      <trkpt lat="50.20454" lon="3.67469">
        <ele>141.45</ele>
        <time>2021-08-08T04:11:34Z</time>
      </trkpt>
      <trkpt lat="50.20451" lon="3.67467">
        <ele>141.45</ele>
        <time>2021-08-08T04:11:35Z</time>
      </trkpt>
      <trkpt lat="50.20449" lon="3.67464">
        <ele>141.45</ele>
        <time>2021-08-08T04:11:36Z</time>
      </trkpt>
      <trkpt lat="50.20447" lon="3.67462">
        <ele>141.45</ele>
        <time>2021-08-08T04:11:37Z</time>
      </trkpt>
      <trkpt lat="50.20444" lon="3.6746">
        <ele>141.45</ele>
        <time>2021-08-08T04:11:38Z</time>
      </trkpt>
      <trkpt lat="50.20436" lon="3.67456">
        <ele>141.45</ele>
        <time>2021-08-08T04:11:41Z</time>
      </trkpt>
      <trkpt lat="50.20435" lon="3.67454">
        <ele>141.45</ele>
        <time>2021-08-08T04:11:42Z</time>
      </trkpt>
      <trkpt lat="50.20433" lon="3.67452">
        <ele>141.45</ele>
        <time>2021-08-08T04:11:43Z</time>
      </trkpt>
      <trkpt lat="50.2042" lon="3.67441">
        <ele>141.93</ele>
        <time>2021-08-08T04:11:49Z</time>
      </trkpt>
      <trkpt lat="50.20418" lon="3.67438">
        <ele>141.93</ele>
        <time>2021-08-08T04:11:51Z</time>
      </trkpt>
      <trkpt lat="50.20418" lon="3.67435">
        <ele>141.93</ele>
        <time>2021-08-08T04:11:52Z</time>
      </trkpt>
      <trkpt lat="50.20417" lon="3.67432">
        <ele>141.93</ele>
        <time>2021-08-08T04:11:53Z</time>
      </trkpt>
      <trkpt lat="50.20415" lon="3.6743">
        <ele>141.93</ele>
        <time>2021-08-08T04:11:54Z</time>
      </trkpt>
      <trkpt lat="50.20413" lon="3.67427">
        <ele>141.93</ele>
        <time>2021-08-08T04:11:55Z</time>
      </trkpt>
      <trkpt lat="50.20411" lon="3.67425">
        <ele>141.93</ele>
        <time>2021-08-08T04:11:56Z</time>
      </trkpt>
      <trkpt lat="50.2041" lon="3.67423">
        <ele>141.93</ele>
        <time>2021-08-08T04:11:57Z</time>
      </trkpt>
      <trkpt lat="50.20408" lon="3.67421">
        <ele>141.93</ele>
        <time>2021-08-08T04:11:58Z</time>
      </trkpt>
      <trkpt lat="50.20407" lon="3.6742">
        <ele>141.93</ele>
        <time>2021-08-08T04:11:59Z</time>
      </trkpt>
      <trkpt lat="50.20406" lon="3.67419">
        <ele>141.93</ele>
        <time>2021-08-08T04:12:00Z</time>
      </trkpt>
      <trkpt lat="50.20395" lon="3.67408">
        <ele>141.93</ele>
        <time>2021-08-08T04:12:06Z</time>
      </trkpt>
      <trkpt lat="50.20386" lon="3.67392">
        <ele>141.93</ele>
        <time>2021-08-08T04:12:13Z</time>
      </trkpt>
      <trkpt lat="50.20385" lon="3.67386">
        <ele>141.93</ele>
        <time>2021-08-08T04:12:15Z</time>
      </trkpt>
      <trkpt lat="50.20383" lon="3.67383">
        <ele>141.93</ele>
        <time>2021-08-08T04:12:16Z</time>
      </trkpt>
      <trkpt lat="50.20382" lon="3.6738">
        <ele>141.93</ele>
        <time>2021-08-08T04:12:17Z</time>
      </trkpt>
      <trkpt lat="50.20375" lon="3.6737">
        <ele>141.93</ele>
        <time>2021-08-08T04:12:21Z</time>
      </trkpt>
      <trkpt lat="50.20372" lon="3.67368">
        <ele>141.93</ele>
        <time>2021-08-08T04:12:22Z</time>
      </trkpt>
      <trkpt lat="50.20364" lon="3.67354">
        <ele>142.41</ele>
        <time>2021-08-08T04:12:28Z</time>
      </trkpt>
      <trkpt lat="50.20363" lon="3.67351">
        <ele>142.41</ele>
        <time>2021-08-08T04:12:29Z</time>
      </trkpt>
      <trkpt lat="50.20362" lon="3.6735">
        <ele>142.41</ele>
        <time>2021-08-08T04:12:30Z</time>
      </trkpt>
      <trkpt lat="50.20359" lon="3.67349">
        <ele>142.41</ele>
        <time>2021-08-08T04:12:31Z</time>
      </trkpt>
      <trkpt lat="50.20347" lon="3.67337">
        <ele>142.41</ele>
        <time>2021-08-08T04:12:37Z</time>
      </trkpt>
      <trkpt lat="50.20338" lon="3.67324">
        <ele>142.41</ele>
        <time>2021-08-08T04:12:43Z</time>
      </trkpt>
      <trkpt lat="50.2033" lon="3.6731">
        <ele>142.41</ele>
        <time>2021-08-08T04:12:49Z</time>
      </trkpt>
      <trkpt lat="50.20324" lon="3.67303">
        <ele>142.41</ele>
        <time>2021-08-08T04:12:53Z</time>
      </trkpt>
      <trkpt lat="50.20323" lon="3.673">
        <ele>142.41</ele>
        <time>2021-08-08T04:12:54Z</time>
      </trkpt>
      <trkpt lat="50.20321" lon="3.67298">
        <ele>142.41</ele>
        <time>2021-08-08T04:12:55Z</time>
      </trkpt>
      <trkpt lat="50.20319" lon="3.67297">
        <ele>142.41</ele>
        <time>2021-08-08T04:12:56Z</time>
      </trkpt>
      <trkpt lat="50.20317" lon="3.67295">
        <ele>142.41</ele>
        <time>2021-08-08T04:12:57Z</time>
      </trkpt>
      <trkpt lat="50.20315" lon="3.67292">
        <ele>142.41</ele>
        <time>2021-08-08T04:12:58Z</time>
      </trkpt>
      <trkpt lat="50.20313" lon="3.6729">
        <ele>142.41</ele>
        <time>2021-08-08T04:12:59Z</time>
      </trkpt>
      <trkpt lat="50.20302" lon="3.67277">
        <ele>142.89</ele>
        <time>2021-08-08T04:13:06Z</time>
      </trkpt>
      <trkpt lat="50.20292" lon="3.67264">
        <ele>143.85</ele>
        <time>2021-08-08T04:13:12Z</time>
      </trkpt>
      <trkpt lat="50.2028" lon="3.67244">
        <ele>144.34</ele>
        <time>2021-08-08T04:13:19Z</time>
      </trkpt>
      <trkpt lat="50.2027" lon="3.67229">
        <ele>144.34</ele>
        <time>2021-08-08T04:13:25Z</time>
      </trkpt>
      <trkpt lat="50.20261" lon="3.67214">
        <ele>144.82</ele>
        <time>2021-08-08T04:13:31Z</time>
      </trkpt>
      <trkpt lat="50.2025" lon="3.67198">
        <ele>145.3</ele>
        <time>2021-08-08T04:13:38Z</time>
      </trkpt>
      <trkpt lat="50.20246" lon="3.67194">
        <ele>145.3</ele>
        <time>2021-08-08T04:13:40Z</time>
      </trkpt>
      <trkpt lat="50.20244" lon="3.67191">
        <ele>145.3</ele>
        <time>2021-08-08T04:13:41Z</time>
      </trkpt>
      <trkpt lat="50.20242" lon="3.67188">
        <ele>145.3</ele>
        <time>2021-08-08T04:13:42Z</time>
      </trkpt>
      <trkpt lat="50.20228" lon="3.67168">
        <ele>145.78</ele>
        <time>2021-08-08T04:13:49Z</time>
      </trkpt>
      <trkpt lat="50.20213" lon="3.67147">
        <ele>145.78</ele>
        <time>2021-08-08T04:13:56Z</time>
      </trkpt>
      <trkpt lat="50.20207" lon="3.67139">
        <ele>146.26</ele>
        <time>2021-08-08T04:13:58Z</time>
      </trkpt>
      <trkpt lat="50.20204" lon="3.67135">
        <ele>146.26</ele>
        <time>2021-08-08T04:13:59Z</time>
      </trkpt>
      <trkpt lat="50.20189" lon="3.67117">
        <ele>146.74</ele>
        <time>2021-08-08T04:14:05Z</time>
      </trkpt>
      <trkpt lat="50.20182" lon="3.67108">
        <ele>146.74</ele>
        <time>2021-08-08T04:14:08Z</time>
      </trkpt>
      <trkpt lat="50.20181" lon="3.67106">
        <ele>147.22</ele>
        <time>2021-08-08T04:14:09Z</time>
      </trkpt>
      <trkpt lat="50.20166" lon="3.67083">
        <ele>148.18</ele>
        <time>2021-08-08T04:14:17Z</time>
      </trkpt>
      <trkpt lat="50.20154" lon="3.67068">
        <ele>148.18</ele>
        <time>2021-08-08T04:14:23Z</time>
      </trkpt>
      <trkpt lat="50.20153" lon="3.67065">
        <ele>148.66</ele>
        <time>2021-08-08T04:14:24Z</time>
      </trkpt>
      <trkpt lat="50.20151" lon="3.67062">
        <ele>148.66</ele>
        <time>2021-08-08T04:14:25Z</time>
      </trkpt>
      <trkpt lat="50.20142" lon="3.67048">
        <ele>149.14</ele>
        <time>2021-08-08T04:14:31Z</time>
      </trkpt>
      <trkpt lat="50.20138" lon="3.67049">
        <ele>149.14</ele>
        <time>2021-08-08T04:14:33Z</time>
      </trkpt>
      <trkpt lat="50.20137" lon="3.67051">
        <ele>149.14</ele>
        <time>2021-08-08T04:14:34Z</time>
      </trkpt>
      <trkpt lat="50.20136" lon="3.67052">
        <ele>149.14</ele>
        <time>2021-08-08T04:14:35Z</time>
      </trkpt>
      <trkpt lat="50.20136" lon="3.67054">
        <ele>149.14</ele>
        <time>2021-08-08T04:14:36Z</time>
      </trkpt>
      <trkpt lat="50.20136" lon="3.67057">
        <ele>149.14</ele>
        <time>2021-08-08T04:14:37Z</time>
      </trkpt>
      <trkpt lat="50.20136" lon="3.6706">
        <ele>149.62</ele>
        <time>2021-08-08T04:14:38Z</time>
      </trkpt>
      <trkpt lat="50.20137" lon="3.67063">
        <ele>149.62</ele>
        <time>2021-08-08T04:14:39Z</time>
      </trkpt>
      <trkpt lat="50.20137" lon="3.67067">
        <ele>149.62</ele>
        <time>2021-08-08T04:14:40Z</time>
      </trkpt>
      <trkpt lat="50.20138" lon="3.6707">
        <ele>149.62</ele>
        <time>2021-08-08T04:14:41Z</time>
      </trkpt>
      <trkpt lat="50.20138" lon="3.67074">
        <ele>149.62</ele>
        <time>2021-08-08T04:14:42Z</time>
      </trkpt>
      <trkpt lat="50.20138" lon="3.67079">
        <ele>149.62</ele>
        <time>2021-08-08T04:14:43Z</time>
      </trkpt>
      <trkpt lat="50.20137" lon="3.67084">
        <ele>149.62</ele>
        <time>2021-08-08T04:14:44Z</time>
      </trkpt>
      <trkpt lat="50.20138" lon="3.67089">
        <ele>149.62</ele>
        <time>2021-08-08T04:14:45Z</time>
      </trkpt>
      <trkpt lat="50.20138" lon="3.67095">
        <ele>149.62</ele>
        <time>2021-08-08T04:14:46Z</time>
      </trkpt>
      <trkpt lat="50.20141" lon="3.67133">
        <ele>149.62</ele>
        <time>2021-08-08T04:14:52Z</time>
      </trkpt>
      <trkpt lat="50.20141" lon="3.67181">
        <ele>148.18</ele>
        <time>2021-08-08T04:14:59Z</time>
      </trkpt>
      <trkpt lat="50.20141" lon="3.67188">
        <ele>148.18</ele>
        <time>2021-08-08T04:15:00Z</time>
      </trkpt>
      <trkpt lat="50.20141" lon="3.67195">
        <ele>148.18</ele>
        <time>2021-08-08T04:15:01Z</time>
      </trkpt>
      <trkpt lat="50.20142" lon="3.67217">
        <ele>147.7</ele>
        <time>2021-08-08T04:15:04Z</time>
      </trkpt>
      <trkpt lat="50.20144" lon="3.67282">
        <ele>147.22</ele>
        <time>2021-08-08T04:15:13Z</time>
      </trkpt>
      <trkpt lat="50.20149" lon="3.6735">
        <ele>145.78</ele>
        <time>2021-08-08T04:15:22Z</time>
      </trkpt>
      <trkpt lat="50.20151" lon="3.67366">
        <ele>145.3</ele>
        <time>2021-08-08T04:15:24Z</time>
      </trkpt>
      <trkpt lat="50.20156" lon="3.6745">
        <ele>143.37</ele>
        <time>2021-08-08T04:15:34Z</time>
      </trkpt>
      <trkpt lat="50.20158" lon="3.67525">
        <ele>141.93</ele>
        <time>2021-08-08T04:15:42Z</time>
      </trkpt>
      <trkpt lat="50.20159" lon="3.67534">
        <ele>141.93</ele>
        <time>2021-08-08T04:15:43Z</time>
      </trkpt>
      <trkpt lat="50.20159" lon="3.67543">
        <ele>141.45</ele>
        <time>2021-08-08T04:15:44Z</time>
      </trkpt>
      <trkpt lat="50.20159" lon="3.67551">
        <ele>141.45</ele>
        <time>2021-08-08T04:15:45Z</time>
      </trkpt>
      <trkpt lat="50.2016" lon="3.6756">
        <ele>141.45</ele>
        <time>2021-08-08T04:15:46Z</time>
      </trkpt>
      <trkpt lat="50.20161" lon="3.67614">
        <ele>142.89</ele>
        <time>2021-08-08T04:15:54Z</time>
      </trkpt>
      <trkpt lat="50.20163" lon="3.6766">
        <ele>143.85</ele>
        <time>2021-08-08T04:16:02Z</time>
      </trkpt>
      <trkpt lat="50.20164" lon="3.67699">
        <ele>144.34</ele>
        <time>2021-08-08T04:16:09Z</time>
      </trkpt>
      <trkpt lat="50.20169" lon="3.67756">
        <ele>144.82</ele>
        <time>2021-08-08T04:16:18Z</time>
      </trkpt>
      <trkpt lat="50.20173" lon="3.67807">
        <ele>145.3</ele>
        <time>2021-08-08T04:16:26Z</time>
      </trkpt>
      <trkpt lat="50.20173" lon="3.67814">
        <ele>145.3</ele>
        <time>2021-08-08T04:16:27Z</time>
      </trkpt>
      <trkpt lat="50.20173" lon="3.6782">
        <ele>145.3</ele>
        <time>2021-08-08T04:16:28Z</time>
      </trkpt>
      <trkpt lat="50.20173" lon="3.67839">
        <ele>145.78</ele>
        <time>2021-08-08T04:16:31Z</time>
      </trkpt>
      <trkpt lat="50.20173" lon="3.67846">
        <ele>145.78</ele>
        <time>2021-08-08T04:16:32Z</time>
      </trkpt>
      <trkpt lat="50.20174" lon="3.67852">
        <ele>145.78</ele>
        <time>2021-08-08T04:16:33Z</time>
      </trkpt>
      <trkpt lat="50.20174" lon="3.67858">
        <ele>145.78</ele>
        <time>2021-08-08T04:16:34Z</time>
      </trkpt>
      <trkpt lat="50.20174" lon="3.67864">
        <ele>145.78</ele>
        <time>2021-08-08T04:16:35Z</time>
      </trkpt>
      <trkpt lat="50.20174" lon="3.67924">
        <ele>147.22</ele>
        <time>2021-08-08T04:16:45Z</time>
      </trkpt>
      <trkpt lat="50.20175" lon="3.67966">
        <ele>148.18</ele>
        <time>2021-08-08T04:16:53Z</time>
      </trkpt>
      <trkpt lat="50.20178" lon="3.68002">
        <ele>149.14</ele>
        <time>2021-08-08T04:17:00Z</time>
      </trkpt>
      <trkpt lat="50.20182" lon="3.68041">
        <ele>149.62</ele>
        <time>2021-08-08T04:17:07Z</time>
      </trkpt>
      <trkpt lat="50.20191" lon="3.68087">
        <ele>149.62</ele>
        <time>2021-08-08T04:17:15Z</time>
      </trkpt>
      <trkpt lat="50.20204" lon="3.68139">
        <ele>149.62</ele>
        <time>2021-08-08T04:17:24Z</time>
      </trkpt>
      <trkpt lat="50.20208" lon="3.68159">
        <ele>149.62</ele>
        <time>2021-08-08T04:17:27Z</time>
      </trkpt>
      <trkpt lat="50.20224" lon="3.68216">
        <ele>148.18</ele>
        <time>2021-08-08T04:17:35Z</time>
      </trkpt>
      <trkpt lat="50.20226" lon="3.68223">
        <ele>148.18</ele>
        <time>2021-08-08T04:17:36Z</time>
      </trkpt>
      <trkpt lat="50.20229" lon="3.68231">
        <ele>148.18</ele>
        <time>2021-08-08T04:17:37Z</time>
      </trkpt>
      <trkpt lat="50.20231" lon="3.68239">
        <ele>147.7</ele>
        <time>2021-08-08T04:17:38Z</time>
      </trkpt>
      <trkpt lat="50.20233" lon="3.68247">
        <ele>147.7</ele>
        <time>2021-08-08T04:17:39Z</time>
      </trkpt>
      <trkpt lat="50.20248" lon="3.68294">
        <ele>146.74</ele>
        <time>2021-08-08T04:17:45Z</time>
      </trkpt>
      <trkpt lat="50.20268" lon="3.68368">
        <ele>144.82</ele>
        <time>2021-08-08T04:17:54Z</time>
      </trkpt>
      <trkpt lat="50.20291" lon="3.68463">
        <ele>142.89</ele>
        <time>2021-08-08T04:18:05Z</time>
      </trkpt>
      <trkpt lat="50.20313" lon="3.68542">
        <ele>142.41</ele>
        <time>2021-08-08T04:18:14Z</time>
      </trkpt>
      <trkpt lat="50.20324" lon="3.68578">
        <ele>143.37</ele>
        <time>2021-08-08T04:18:19Z</time>
      </trkpt>
      <trkpt lat="50.20338" lon="3.68617">
        <ele>145.3</ele>
        <time>2021-08-08T04:18:26Z</time>
      </trkpt>
      <trkpt lat="50.20351" lon="3.6866">
        <ele>146.74</ele>
        <time>2021-08-08T04:18:34Z</time>
      </trkpt>
      <trkpt lat="50.20362" lon="3.68703">
        <ele>147.7</ele>
        <time>2021-08-08T04:18:42Z</time>
      </trkpt>
      <trkpt lat="50.20375" lon="3.68756">
        <ele>149.14</ele>
        <time>2021-08-08T04:18:52Z</time>
      </trkpt>
      <trkpt lat="50.20384" lon="3.68795">
        <ele>149.14</ele>
        <time>2021-08-08T04:18:59Z</time>
      </trkpt>
      <trkpt lat="50.20388" lon="3.68813">
        <ele>149.62</ele>
        <time>2021-08-08T04:19:02Z</time>
      </trkpt>
      <trkpt lat="50.204" lon="3.68862">
        <ele>149.62</ele>
        <time>2021-08-08T04:19:10Z</time>
      </trkpt>
      <trkpt lat="50.20403" lon="3.68866">
        <ele>149.62</ele>
        <time>2021-08-08T04:19:11Z</time>
      </trkpt>
      <trkpt lat="50.20407" lon="3.68875">
        <ele>149.62</ele>
        <time>2021-08-08T04:19:13Z</time>
      </trkpt>
      <trkpt lat="50.20409" lon="3.68892">
        <ele>149.62</ele>
        <time>2021-08-08T04:19:16Z</time>
      </trkpt>
      <trkpt lat="50.20407" lon="3.68914">
        <ele>149.62</ele>
        <time>2021-08-08T04:19:19Z</time>
      </trkpt>
      <trkpt lat="50.20408" lon="3.68921">
        <ele>149.62</ele>
        <time>2021-08-08T04:19:20Z</time>
      </trkpt>
      <trkpt lat="50.20409" lon="3.68928">
        <ele>149.62</ele>
        <time>2021-08-08T04:19:21Z</time>
      </trkpt>
      <trkpt lat="50.20412" lon="3.68944">
        <ele>149.62</ele>
        <time>2021-08-08T04:19:23Z</time>
      </trkpt>
      <trkpt lat="50.20412" lon="3.68951">
        <ele>149.62</ele>
        <time>2021-08-08T04:19:24Z</time>
      </trkpt>
      <trkpt lat="50.20412" lon="3.68957">
        <ele>149.62</ele>
        <time>2021-08-08T04:19:25Z</time>
      </trkpt>
      <trkpt lat="50.2041" lon="3.68963">
        <ele>149.62</ele>
        <time>2021-08-08T04:19:26Z</time>
      </trkpt>
      <trkpt lat="50.20409" lon="3.68965">
        <ele>149.62</ele>
        <time>2021-08-08T04:19:27Z</time>
      </trkpt>
      <trkpt lat="50.20405" lon="3.68977">
        <ele>148.66</ele>
        <time>2021-08-08T04:19:29Z</time>
      </trkpt>
      <trkpt lat="50.20382" lon="3.69014">
        <ele>148.66</ele>
        <time>2021-08-08T04:19:36Z</time>
      </trkpt>
      <trkpt lat="50.20356" lon="3.69053">
        <ele>148.66</ele>
        <time>2021-08-08T04:19:44Z</time>
      </trkpt>
      <trkpt lat="50.2034" lon="3.6908">
        <ele>148.66</ele>
        <time>2021-08-08T04:19:51Z</time>
      </trkpt>
      <trkpt lat="50.20337" lon="3.69087">
        <ele>149.62</ele>
        <time>2021-08-08T04:19:52Z</time>
      </trkpt>
      <trkpt lat="50.20317" lon="3.69118">
        <ele>150.1</ele>
        <time>2021-08-08T04:19:59Z</time>
      </trkpt>
      <trkpt lat="50.20295" lon="3.69154">
        <ele>150.58</ele>
        <time>2021-08-08T04:20:07Z</time>
      </trkpt>
      <trkpt lat="50.20274" lon="3.69187">
        <ele>151.06</ele>
        <time>2021-08-08T04:20:15Z</time>
      </trkpt>
      <trkpt lat="50.20261" lon="3.69215">
        <ele>152.03</ele>
        <time>2021-08-08T04:20:22Z</time>
      </trkpt>
      <trkpt lat="50.20244" lon="3.69247">
        <ele>152.51</ele>
        <time>2021-08-08T04:20:29Z</time>
      </trkpt>
      <trkpt lat="50.20234" lon="3.69264">
        <ele>153.47</ele>
        <time>2021-08-08T04:20:33Z</time>
      </trkpt>
      <trkpt lat="50.20213" lon="3.69294">
        <ele>153.47</ele>
        <time>2021-08-08T04:20:40Z</time>
      </trkpt>
      <trkpt lat="50.20191" lon="3.69332">
        <ele>153.95</ele>
        <time>2021-08-08T04:20:48Z</time>
      </trkpt>
      <trkpt lat="50.20174" lon="3.6937">
        <ele>154.91</ele>
        <time>2021-08-08T04:20:56Z</time>
      </trkpt>
      <trkpt lat="50.20155" lon="3.69415">
        <ele>155.39</ele>
        <time>2021-08-08T04:21:06Z</time>
      </trkpt>
      <trkpt lat="50.20134" lon="3.69453">
        <ele>155.39</ele>
        <time>2021-08-08T04:21:14Z</time>
      </trkpt>
      <trkpt lat="50.2012" lon="3.69476">
        <ele>156.35</ele>
        <time>2021-08-08T04:21:19Z</time>
      </trkpt>
      <trkpt lat="50.20104" lon="3.69499">
        <ele>156.35</ele>
        <time>2021-08-08T04:21:24Z</time>
      </trkpt>
      <trkpt lat="50.20101" lon="3.69504">
        <ele>156.35</ele>
        <time>2021-08-08T04:21:25Z</time>
      </trkpt>
      <trkpt lat="50.20092" lon="3.69518">
        <ele>156.35</ele>
        <time>2021-08-08T04:21:28Z</time>
      </trkpt>
      <trkpt lat="50.20074" lon="3.6955">
        <ele>156.83</ele>
        <time>2021-08-08T04:21:35Z</time>
      </trkpt>
      <trkpt lat="50.20071" lon="3.69555">
        <ele>157.31</ele>
        <time>2021-08-08T04:21:36Z</time>
      </trkpt>
      <trkpt lat="50.20044" lon="3.696">
        <ele>157.31</ele>
        <time>2021-08-08T04:21:46Z</time>
      </trkpt>
      <trkpt lat="50.20024" lon="3.69627">
        <ele>157.79</ele>
        <time>2021-08-08T04:21:54Z</time>
      </trkpt>
      <trkpt lat="50.20019" lon="3.6964">
        <ele>157.79</ele>
        <time>2021-08-08T04:21:58Z</time>
      </trkpt>
      <trkpt lat="50.20008" lon="3.6966">
        <ele>157.79</ele>
        <time>2021-08-08T04:22:04Z</time>
      </trkpt>
      <trkpt lat="50.19992" lon="3.69687">
        <ele>156.35</ele>
        <time>2021-08-08T04:22:11Z</time>
      </trkpt>
      <trkpt lat="50.19974" lon="3.69715">
        <ele>156.35</ele>
        <time>2021-08-08T04:22:18Z</time>
      </trkpt>
      <trkpt lat="50.19959" lon="3.69742">
        <ele>155.39</ele>
        <time>2021-08-08T04:22:25Z</time>
      </trkpt>
      <trkpt lat="50.19945" lon="3.6976">
        <ele>155.39</ele>
        <time>2021-08-08T04:22:30Z</time>
      </trkpt>
      <trkpt lat="50.19938" lon="3.69776">
        <ele>155.39</ele>
        <time>2021-08-08T04:22:36Z</time>
      </trkpt>
      <trkpt lat="50.19927" lon="3.69797">
        <ele>155.39</ele>
        <time>2021-08-08T04:22:43Z</time>
      </trkpt>
      <trkpt lat="50.19911" lon="3.69822">
        <ele>155.87</ele>
        <time>2021-08-08T04:22:49Z</time>
      </trkpt>
      <trkpt lat="50.19891" lon="3.69848">
        <ele>155.87</ele>
        <time>2021-08-08T04:22:56Z</time>
      </trkpt>
      <trkpt lat="50.19883" lon="3.69862">
        <ele>155.39</ele>
        <time>2021-08-08T04:23:01Z</time>
      </trkpt>
      <trkpt lat="50.19869" lon="3.69889">
        <ele>155.87</ele>
        <time>2021-08-08T04:23:09Z</time>
      </trkpt>
      <trkpt lat="50.1986" lon="3.69907">
        <ele>155.87</ele>
        <time>2021-08-08T04:23:15Z</time>
      </trkpt>
      <trkpt lat="50.19859" lon="3.6991">
        <ele>156.83</ele>
        <time>2021-08-08T04:23:16Z</time>
      </trkpt>
      <trkpt lat="50.19847" lon="3.6993">
        <ele>157.31</ele>
        <time>2021-08-08T04:23:23Z</time>
      </trkpt>
      <trkpt lat="50.19836" lon="3.69949">
        <ele>158.75</ele>
        <time>2021-08-08T04:23:30Z</time>
      </trkpt>
      <trkpt lat="50.19822" lon="3.69974">
        <ele>158.75</ele>
        <time>2021-08-08T04:23:37Z</time>
      </trkpt>
      <trkpt lat="50.19808" lon="3.70001">
        <ele>158.75</ele>
        <time>2021-08-08T04:23:44Z</time>
      </trkpt>
      <trkpt lat="50.19805" lon="3.70007">
        <ele>158.75</ele>
        <time>2021-08-08T04:23:46Z</time>
      </trkpt>
      <trkpt lat="50.19801" lon="3.7001">
        <ele>158.75</ele>
        <time>2021-08-08T04:23:48Z</time>
      </trkpt>
      <trkpt lat="50.198" lon="3.70012">
        <ele>158.75</ele>
        <time>2021-08-08T04:23:49Z</time>
      </trkpt>
      <trkpt lat="50.19789" lon="3.70033">
        <ele>159.24</ele>
        <time>2021-08-08T04:23:56Z</time>
      </trkpt>
      <trkpt lat="50.19774" lon="3.70064">
        <ele>159.72</ele>
        <time>2021-08-08T04:24:05Z</time>
      </trkpt>
      <trkpt lat="50.19759" lon="3.70086">
        <ele>159.72</ele>
        <time>2021-08-08T04:24:12Z</time>
      </trkpt>
      <trkpt lat="50.19747" lon="3.7011">
        <ele>159.72</ele>
        <time>2021-08-08T04:24:19Z</time>
      </trkpt>
      <trkpt lat="50.19723" lon="3.70148">
        <ele>159.72</ele>
        <time>2021-08-08T04:24:29Z</time>
      </trkpt>
      <trkpt lat="50.19706" lon="3.70176">
        <ele>160.2</ele>
        <time>2021-08-08T04:24:37Z</time>
      </trkpt>
      <trkpt lat="50.19691" lon="3.70204">
        <ele>160.2</ele>
        <time>2021-08-08T04:24:45Z</time>
      </trkpt>
      <trkpt lat="50.19676" lon="3.70233">
        <ele>160.2</ele>
        <time>2021-08-08T04:24:53Z</time>
      </trkpt>
      <trkpt lat="50.19667" lon="3.70249">
        <ele>160.2</ele>
        <time>2021-08-08T04:24:59Z</time>
      </trkpt>
      <trkpt lat="50.19659" lon="3.70261">
        <ele>158.75</ele>
        <time>2021-08-08T04:25:03Z</time>
      </trkpt>
      <trkpt lat="50.19647" lon="3.70282">
        <ele>158.27</ele>
        <time>2021-08-08T04:25:10Z</time>
      </trkpt>
      <trkpt lat="50.19639" lon="3.70294">
        <ele>158.27</ele>
        <time>2021-08-08T04:25:17Z</time>
      </trkpt>
      <trkpt lat="50.19629" lon="3.70313">
        <ele>158.27</ele>
        <time>2021-08-08T04:25:26Z</time>
      </trkpt>
      <trkpt lat="50.19623" lon="3.70323">
        <ele>158.27</ele>
        <time>2021-08-08T04:25:32Z</time>
      </trkpt>
      <trkpt lat="50.19617" lon="3.70332">
        <ele>159.72</ele>
        <time>2021-08-08T04:25:36Z</time>
      </trkpt>
      <trkpt lat="50.19608" lon="3.70349">
        <ele>160.2</ele>
        <time>2021-08-08T04:25:44Z</time>
      </trkpt>
      <trkpt lat="50.19597" lon="3.70367">
        <ele>160.68</ele>
        <time>2021-08-08T04:25:53Z</time>
      </trkpt>
      <trkpt lat="50.19588" lon="3.70387">
        <ele>161.64</ele>
        <time>2021-08-08T04:26:02Z</time>
      </trkpt>
      <trkpt lat="50.19576" lon="3.70408">
        <ele>162.6</ele>
        <time>2021-08-08T04:26:11Z</time>
      </trkpt>
      <trkpt lat="50.19567" lon="3.70428">
        <ele>163.08</ele>
        <time>2021-08-08T04:26:19Z</time>
      </trkpt>
      <trkpt lat="50.1956" lon="3.70443">
        <ele>163.56</ele>
        <time>2021-08-08T04:26:26Z</time>
      </trkpt>
      <trkpt lat="50.19548" lon="3.70463">
        <ele>163.56</ele>
        <time>2021-08-08T04:26:35Z</time>
      </trkpt>
      <trkpt lat="50.19535" lon="3.70478">
        <ele>164.04</ele>
        <time>2021-08-08T04:26:41Z</time>
      </trkpt>
      <trkpt lat="50.19521" lon="3.70495">
        <ele>164.52</ele>
        <time>2021-08-08T04:26:48Z</time>
      </trkpt>
      <trkpt lat="50.19513" lon="3.70511">
        <ele>164.52</ele>
        <time>2021-08-08T04:26:54Z</time>
      </trkpt>
      <trkpt lat="50.19512" lon="3.70522">
        <ele>164.52</ele>
        <time>2021-08-08T04:27:00Z</time>
      </trkpt>
      <trkpt lat="50.19508" lon="3.70528">
        <ele>165</ele>
        <time>2021-08-08T04:27:07Z</time>
      </trkpt>
      <trkpt lat="50.19503" lon="3.70538">
        <ele>165.48</ele>
        <time>2021-08-08T04:27:14Z</time>
      </trkpt>
      <trkpt lat="50.19502" lon="3.70539">
        <ele>165.48</ele>
        <time>2021-08-08T04:27:15Z</time>
      </trkpt>
      <trkpt lat="50.19501" lon="3.70541">
        <ele>165.48</ele>
        <time>2021-08-08T04:27:16Z</time>
      </trkpt>
      <trkpt lat="50.195" lon="3.70543">
        <ele>165.48</ele>
        <time>2021-08-08T04:27:17Z</time>
      </trkpt>
      <trkpt lat="50.19497" lon="3.7055">
        <ele>165.48</ele>
        <time>2021-08-08T04:27:21Z</time>
      </trkpt>
      <trkpt lat="50.19496" lon="3.70552">
        <ele>165.48</ele>
        <time>2021-08-08T04:27:22Z</time>
      </trkpt>
      <trkpt lat="50.19494" lon="3.70554">
        <ele>165.48</ele>
        <time>2021-08-08T04:27:24Z</time>
      </trkpt>
      <trkpt lat="50.19489" lon="3.70562">
        <ele>165.48</ele>
        <time>2021-08-08T04:27:30Z</time>
      </trkpt>
      <trkpt lat="50.19477" lon="3.70576">
        <ele>165.48</ele>
        <time>2021-08-08T04:27:37Z</time>
      </trkpt>
      <trkpt lat="50.1947" lon="3.70587">
        <ele>165.48</ele>
        <time>2021-08-08T04:27:43Z</time>
      </trkpt>
      <trkpt lat="50.19469" lon="3.70589">
        <ele>165.48</ele>
        <time>2021-08-08T04:27:44Z</time>
      </trkpt>
      <trkpt lat="50.19469" lon="3.7059">
        <ele>165.48</ele>
        <time>2021-08-08T04:27:45Z</time>
      </trkpt>
      <trkpt lat="50.19468" lon="3.70592">
        <ele>165.48</ele>
        <time>2021-08-08T04:27:46Z</time>
      </trkpt>
      <trkpt lat="50.19467" lon="3.70594">
        <ele>165.48</ele>
        <time>2021-08-08T04:27:47Z</time>
      </trkpt>
      <trkpt lat="50.19466" lon="3.70596">
        <ele>165.48</ele>
        <time>2021-08-08T04:27:48Z</time>
      </trkpt>
      <trkpt lat="50.19457" lon="3.70613">
        <ele>165.48</ele>
        <time>2021-08-08T04:27:54Z</time>
      </trkpt>
      <trkpt lat="50.19446" lon="3.70628">
        <ele>165.96</ele>
        <time>2021-08-08T04:28:01Z</time>
      </trkpt>
      <trkpt lat="50.19439" lon="3.70639">
        <ele>165.96</ele>
        <time>2021-08-08T04:28:06Z</time>
      </trkpt>
      <trkpt lat="50.19438" lon="3.70641">
        <ele>165.96</ele>
        <time>2021-08-08T04:28:07Z</time>
      </trkpt>
      <trkpt lat="50.19436" lon="3.70644">
        <ele>165.96</ele>
        <time>2021-08-08T04:28:08Z</time>
      </trkpt>
      <trkpt lat="50.19435" lon="3.70646">
        <ele>165.96</ele>
        <time>2021-08-08T04:28:09Z</time>
      </trkpt>
      <trkpt lat="50.19433" lon="3.70647">
        <ele>165.96</ele>
        <time>2021-08-08T04:28:10Z</time>
      </trkpt>
      <trkpt lat="50.19432" lon="3.70649">
        <ele>165.96</ele>
        <time>2021-08-08T04:28:11Z</time>
      </trkpt>
      <trkpt lat="50.19431" lon="3.70651">
        <ele>165.96</ele>
        <time>2021-08-08T04:28:12Z</time>
      </trkpt>
      <trkpt lat="50.1943" lon="3.70652">
        <ele>165.96</ele>
        <time>2021-08-08T04:28:13Z</time>
      </trkpt>
      <trkpt lat="50.19429" lon="3.70653">
        <ele>165.96</ele>
        <time>2021-08-08T04:28:14Z</time>
      </trkpt>
      <trkpt lat="50.19426" lon="3.70664">
        <ele>165.96</ele>
        <time>2021-08-08T04:28:19Z</time>
      </trkpt>
      <trkpt lat="50.19426" lon="3.70665">
        <ele>165.96</ele>
        <time>2021-08-08T04:28:20Z</time>
      </trkpt>
      <trkpt lat="50.19421" lon="3.70675">
        <ele>165.96</ele>
        <time>2021-08-08T04:28:25Z</time>
      </trkpt>
      <trkpt lat="50.1942" lon="3.70676">
        <ele>165.96</ele>
        <time>2021-08-08T04:28:26Z</time>
      </trkpt>
      <trkpt lat="50.19419" lon="3.70677">
        <ele>165.96</ele>
        <time>2021-08-08T04:28:27Z</time>
      </trkpt>
      <trkpt lat="50.19417" lon="3.70678">
        <ele>165.96</ele>
        <time>2021-08-08T04:28:28Z</time>
      </trkpt>
      <trkpt lat="50.19416" lon="3.7068">
        <ele>165.96</ele>
        <time>2021-08-08T04:28:29Z</time>
      </trkpt>
      <trkpt lat="50.19411" lon="3.70687">
        <ele>166.45</ele>
        <time>2021-08-08T04:28:35Z</time>
      </trkpt>
      <trkpt lat="50.19405" lon="3.70692">
        <ele>166.45</ele>
        <time>2021-08-08T04:28:39Z</time>
      </trkpt>
      <trkpt lat="50.19397" lon="3.70696">
        <ele>166.93</ele>
        <time>2021-08-08T04:28:47Z</time>
      </trkpt>
      <trkpt lat="50.19394" lon="3.70697">
        <ele>166.93</ele>
        <time>2021-08-08T04:28:57Z</time>
      </trkpt>
      <trkpt lat="50.19389" lon="3.70692">
        <ele>166.93</ele>
        <time>2021-08-08T04:29:10Z</time>
      </trkpt>
      <trkpt lat="50.19388" lon="3.70694">
        <ele>166.93</ele>
        <time>2021-08-08T04:29:18Z</time>
      </trkpt>
      <trkpt lat="50.19384" lon="3.70699">
        <ele>167.41</ele>
        <time>2021-08-08T04:29:27Z</time>
      </trkpt>
      <trkpt lat="50.19381" lon="3.70703">
        <ele>167.41</ele>
        <time>2021-08-08T04:29:30Z</time>
      </trkpt>
      <trkpt lat="50.19374" lon="3.70712">
        <ele>167.41</ele>
        <time>2021-08-08T04:29:36Z</time>
      </trkpt>
      <trkpt lat="50.19363" lon="3.70723">
        <ele>167.41</ele>
        <time>2021-08-08T04:29:43Z</time>
      </trkpt>
      <trkpt lat="50.1935" lon="3.70736">
        <ele>167.41</ele>
        <time>2021-08-08T04:29:50Z</time>
      </trkpt>
      <trkpt lat="50.19332" lon="3.70751">
        <ele>167.41</ele>
        <time>2021-08-08T04:29:56Z</time>
      </trkpt>
      <trkpt lat="50.19307" lon="3.7077">
        <ele>166.45</ele>
        <time>2021-08-08T04:30:03Z</time>
      </trkpt>
      <trkpt lat="50.19285" lon="3.70788">
        <ele>165.96</ele>
        <time>2021-08-08T04:30:10Z</time>
      </trkpt>
      <trkpt lat="50.19265" lon="3.70804">
        <ele>165.48</ele>
        <time>2021-08-08T04:30:16Z</time>
      </trkpt>
      <trkpt lat="50.19249" lon="3.70815">
        <ele>165.48</ele>
        <time>2021-08-08T04:30:22Z</time>
      </trkpt>
      <trkpt lat="50.19234" lon="3.70827">
        <ele>166.93</ele>
        <time>2021-08-08T04:30:29Z</time>
      </trkpt>
      <trkpt lat="50.19217" lon="3.70841">
        <ele>167.41</ele>
        <time>2021-08-08T04:30:37Z</time>
      </trkpt>
      <trkpt lat="50.19198" lon="3.70857">
        <ele>167.41</ele>
        <time>2021-08-08T04:30:44Z</time>
      </trkpt>
      <trkpt lat="50.19178" lon="3.70871">
        <ele>167.89</ele>
        <time>2021-08-08T04:30:51Z</time>
      </trkpt>
      <trkpt lat="50.19162" lon="3.70883">
        <ele>167.89</ele>
        <time>2021-08-08T04:30:57Z</time>
      </trkpt>
      <trkpt lat="50.19141" lon="3.70901">
        <ele>168.37</ele>
        <time>2021-08-08T04:31:04Z</time>
      </trkpt>
      <trkpt lat="50.19126" lon="3.70912">
        <ele>168.37</ele>
        <time>2021-08-08T04:31:09Z</time>
      </trkpt>
      <trkpt lat="50.19106" lon="3.70926">
        <ele>168.37</ele>
        <time>2021-08-08T04:31:16Z</time>
      </trkpt>
      <trkpt lat="50.19085" lon="3.70943">
        <ele>168.85</ele>
        <time>2021-08-08T04:31:24Z</time>
      </trkpt>
      <trkpt lat="50.19069" lon="3.70956">
        <ele>169.33</ele>
        <time>2021-08-08T04:31:31Z</time>
      </trkpt>
      <trkpt lat="50.19043" lon="3.70978">
        <ele>169.33</ele>
        <time>2021-08-08T04:31:39Z</time>
      </trkpt>
      <trkpt lat="50.19034" lon="3.70991">
        <ele>169.33</ele>
        <time>2021-08-08T04:31:44Z</time>
      </trkpt>
      <trkpt lat="50.19033" lon="3.70994">
        <ele>169.33</ele>
        <time>2021-08-08T04:31:45Z</time>
      </trkpt>
      <trkpt lat="50.19033" lon="3.71016">
        <ele>169.33</ele>
        <time>2021-08-08T04:31:52Z</time>
      </trkpt>
      <trkpt lat="50.19034" lon="3.71041">
        <ele>169.81</ele>
        <time>2021-08-08T04:32:00Z</time>
      </trkpt>
      <trkpt lat="50.19037" lon="3.71065">
        <ele>169.81</ele>
        <time>2021-08-08T04:32:06Z</time>
      </trkpt>
      <trkpt lat="50.19042" lon="3.71096">
        <ele>170.29</ele>
        <time>2021-08-08T04:32:13Z</time>
      </trkpt>
      <trkpt lat="50.19047" lon="3.71126">
        <ele>170.77</ele>
        <time>2021-08-08T04:32:20Z</time>
      </trkpt>
      <trkpt lat="50.19054" lon="3.71166">
        <ele>170.77</ele>
        <time>2021-08-08T04:32:29Z</time>
      </trkpt>
      <trkpt lat="50.19059" lon="3.71204">
        <ele>170.77</ele>
        <time>2021-08-08T04:32:37Z</time>
      </trkpt>
      <trkpt lat="50.19065" lon="3.71237">
        <ele>169.33</ele>
        <time>2021-08-08T04:32:44Z</time>
      </trkpt>
      <trkpt lat="50.19068" lon="3.71269">
        <ele>168.37</ele>
        <time>2021-08-08T04:32:51Z</time>
      </trkpt>
      <trkpt lat="50.1907" lon="3.71296">
        <ele>167.89</ele>
        <time>2021-08-08T04:32:57Z</time>
      </trkpt>
      <trkpt lat="50.19077" lon="3.7133">
        <ele>166.45</ele>
        <time>2021-08-08T04:33:05Z</time>
      </trkpt>
      <trkpt lat="50.19082" lon="3.71366">
        <ele>166.45</ele>
        <time>2021-08-08T04:33:12Z</time>
      </trkpt>
      <trkpt lat="50.19085" lon="3.71381">
        <ele>165.96</ele>
        <time>2021-08-08T04:33:15Z</time>
      </trkpt>
      <trkpt lat="50.19085" lon="3.71384">
        <ele>165.96</ele>
        <time>2021-08-08T04:33:16Z</time>
      </trkpt>
      <trkpt lat="50.19086" lon="3.71389">
        <ele>165.48</ele>
        <time>2021-08-08T04:33:17Z</time>
      </trkpt>
      <trkpt lat="50.19086" lon="3.71393">
        <ele>165.48</ele>
        <time>2021-08-08T04:33:18Z</time>
      </trkpt>
      <trkpt lat="50.19087" lon="3.71398">
        <ele>165.48</ele>
        <time>2021-08-08T04:33:19Z</time>
      </trkpt>
      <trkpt lat="50.19087" lon="3.71402">
        <ele>165.48</ele>
        <time>2021-08-08T04:33:20Z</time>
      </trkpt>
      <trkpt lat="50.19088" lon="3.71408">
        <ele>164.52</ele>
        <time>2021-08-08T04:33:21Z</time>
      </trkpt>
      <trkpt lat="50.19089" lon="3.71411">
        <ele>164.52</ele>
        <time>2021-08-08T04:33:22Z</time>
      </trkpt>
      <trkpt lat="50.19093" lon="3.71433">
        <ele>164.04</ele>
        <time>2021-08-08T04:33:27Z</time>
      </trkpt>
      <trkpt lat="50.19096" lon="3.71454">
        <ele>163.56</ele>
        <time>2021-08-08T04:33:33Z</time>
      </trkpt>
      <trkpt lat="50.19099" lon="3.71472">
        <ele>163.56</ele>
        <time>2021-08-08T04:33:41Z</time>
      </trkpt>
      <trkpt lat="50.19102" lon="3.71486">
        <ele>163.56</ele>
        <time>2021-08-08T04:33:47Z</time>
      </trkpt>
      <trkpt lat="50.19102" lon="3.71493">
        <ele>164.04</ele>
        <time>2021-08-08T04:33:50Z</time>
      </trkpt>
      <trkpt lat="50.19101" lon="3.71494">
        <ele>164.04</ele>
        <time>2021-08-08T04:33:51Z</time>
      </trkpt>
      <trkpt lat="50.191" lon="3.71496">
        <ele>164.04</ele>
        <time>2021-08-08T04:33:52Z</time>
      </trkpt>
      <trkpt lat="50.19087" lon="3.71502">
        <ele>164.04</ele>
        <time>2021-08-08T04:33:59Z</time>
      </trkpt>
      <trkpt lat="50.19085" lon="3.71501">
        <ele>164.04</ele>
        <time>2021-08-08T04:34:00Z</time>
      </trkpt>
      <trkpt lat="50.19084" lon="3.71501">
        <ele>164.04</ele>
        <time>2021-08-08T04:34:01Z</time>
      </trkpt>
      <trkpt lat="50.19082" lon="3.71501">
        <ele>164.04</ele>
        <time>2021-08-08T04:34:02Z</time>
      </trkpt>
      <trkpt lat="50.19079" lon="3.71502">
        <ele>164.04</ele>
        <time>2021-08-08T04:34:03Z</time>
      </trkpt>
      <trkpt lat="50.19062" lon="3.71505">
        <ele>164.04</ele>
        <time>2021-08-08T04:34:10Z</time>
      </trkpt>
      <trkpt lat="50.19055" lon="3.71506">
        <ele>165.48</ele>
        <time>2021-08-08T04:34:13Z</time>
      </trkpt>
      <trkpt lat="50.19037" lon="3.71507">
        <ele>165.48</ele>
        <time>2021-08-08T04:34:20Z</time>
      </trkpt>
      <trkpt lat="50.19012" lon="3.71511">
        <ele>165.48</ele>
        <time>2021-08-08T04:34:28Z</time>
      </trkpt>
      <trkpt lat="50.19001" lon="3.71518">
        <ele>165.96</ele>
        <time>2021-08-08T04:34:34Z</time>
      </trkpt>
      <trkpt lat="50.18994" lon="3.71535">
        <ele>166.93</ele>
        <time>2021-08-08T04:34:41Z</time>
      </trkpt>
      <trkpt lat="50.18988" lon="3.71544">
        <ele>167.41</ele>
        <time>2021-08-08T04:34:46Z</time>
      </trkpt>
      <trkpt lat="50.18978" lon="3.7156">
        <ele>167.89</ele>
        <time>2021-08-08T04:34:53Z</time>
      </trkpt>
      <trkpt lat="50.18976" lon="3.71567">
        <ele>167.89</ele>
        <time>2021-08-08T04:34:58Z</time>
      </trkpt>
      <trkpt lat="50.18975" lon="3.7157">
        <ele>167.89</ele>
        <time>2021-08-08T04:35:00Z</time>
      </trkpt>
      <trkpt lat="50.18968" lon="3.71591">
        <ele>168.85</ele>
        <time>2021-08-08T04:35:09Z</time>
      </trkpt>
      <trkpt lat="50.18964" lon="3.71609">
        <ele>168.85</ele>
        <time>2021-08-08T04:35:16Z</time>
      </trkpt>
      <trkpt lat="50.18956" lon="3.71628">
        <ele>169.33</ele>
        <time>2021-08-08T04:35:24Z</time>
      </trkpt>
      <trkpt lat="50.1895" lon="3.71643">
        <ele>169.81</ele>
        <time>2021-08-08T04:35:30Z</time>
      </trkpt>
      <trkpt lat="50.18947" lon="3.71654">
        <ele>169.81</ele>
        <time>2021-08-08T04:35:35Z</time>
      </trkpt>
      <trkpt lat="50.18944" lon="3.71663">
        <ele>170.29</ele>
        <time>2021-08-08T04:35:38Z</time>
      </trkpt>
      <trkpt lat="50.18937" lon="3.71674">
        <ele>170.77</ele>
        <time>2021-08-08T04:35:45Z</time>
      </trkpt>
      <trkpt lat="50.18934" lon="3.71681">
        <ele>170.77</ele>
        <time>2021-08-08T04:35:47Z</time>
      </trkpt>
      <trkpt lat="50.18933" lon="3.71685">
        <ele>170.77</ele>
        <time>2021-08-08T04:35:48Z</time>
      </trkpt>
      <trkpt lat="50.18932" lon="3.71689">
        <ele>170.77</ele>
        <time>2021-08-08T04:35:49Z</time>
      </trkpt>
      <trkpt lat="50.18931" lon="3.71699">
        <ele>170.77</ele>
        <time>2021-08-08T04:35:52Z</time>
      </trkpt>
      <trkpt lat="50.1893" lon="3.71701">
        <ele>171.25</ele>
        <time>2021-08-08T04:35:53Z</time>
      </trkpt>
      <trkpt lat="50.18929" lon="3.71704">
        <ele>171.25</ele>
        <time>2021-08-08T04:35:54Z</time>
      </trkpt>
      <trkpt lat="50.18928" lon="3.71707">
        <ele>171.25</ele>
        <time>2021-08-08T04:35:55Z</time>
      </trkpt>
      <trkpt lat="50.18927" lon="3.71709">
        <ele>171.25</ele>
        <time>2021-08-08T04:35:56Z</time>
      </trkpt>
      <trkpt lat="50.18927" lon="3.71715">
        <ele>171.25</ele>
        <time>2021-08-08T04:35:58Z</time>
      </trkpt>
      <trkpt lat="50.18927" lon="3.71718">
        <ele>171.25</ele>
        <time>2021-08-08T04:35:59Z</time>
      </trkpt>
      <trkpt lat="50.18927" lon="3.7172">
        <ele>171.73</ele>
        <time>2021-08-08T04:36:00Z</time>
      </trkpt>
      <trkpt lat="50.18927" lon="3.71735">
        <ele>171.73</ele>
        <time>2021-08-08T04:36:06Z</time>
      </trkpt>
      <trkpt lat="50.18928" lon="3.71758">
        <ele>172.69</ele>
        <time>2021-08-08T04:36:13Z</time>
      </trkpt>
      <trkpt lat="50.18928" lon="3.71784">
        <ele>173.17</ele>
        <time>2021-08-08T04:36:20Z</time>
      </trkpt>
      <trkpt lat="50.18923" lon="3.718">
        <ele>173.66</ele>
        <time>2021-08-08T04:36:26Z</time>
      </trkpt>
      <trkpt lat="50.18923" lon="3.71806">
        <ele>173.17</ele>
        <time>2021-08-08T04:36:28Z</time>
      </trkpt>
      <trkpt lat="50.18927" lon="3.71826">
        <ele>173.66</ele>
        <time>2021-08-08T04:36:36Z</time>
      </trkpt>
      <trkpt lat="50.18933" lon="3.71843">
        <ele>174.14</ele>
        <time>2021-08-08T04:36:44Z</time>
      </trkpt>
      <trkpt lat="50.18935" lon="3.71861">
        <ele>174.14</ele>
        <time>2021-08-08T04:36:51Z</time>
      </trkpt>
      <trkpt lat="50.18939" lon="3.71877">
        <ele>174.14</ele>
        <time>2021-08-08T04:36:56Z</time>
      </trkpt>
      <trkpt lat="50.18943" lon="3.71907">
        <ele>174.14</ele>
        <time>2021-08-08T04:37:04Z</time>
      </trkpt>
      <trkpt lat="50.18948" lon="3.71928">
        <ele>174.14</ele>
        <time>2021-08-08T04:37:12Z</time>
      </trkpt>
      <trkpt lat="50.18947" lon="3.71935">
        <ele>174.14</ele>
        <time>2021-08-08T04:37:15Z</time>
      </trkpt>
      <trkpt lat="50.18946" lon="3.71937">
        <ele>174.14</ele>
        <time>2021-08-08T04:37:16Z</time>
      </trkpt>
      <trkpt lat="50.18939" lon="3.71957">
        <ele>174.14</ele>
        <time>2021-08-08T04:37:23Z</time>
      </trkpt>
      <trkpt lat="50.18941" lon="3.71966">
        <ele>174.14</ele>
        <time>2021-08-08T04:37:26Z</time>
      </trkpt>
      <trkpt lat="50.18942" lon="3.71969">
        <ele>174.14</ele>
        <time>2021-08-08T04:37:27Z</time>
      </trkpt>
      <trkpt lat="50.18944" lon="3.71972">
        <ele>174.14</ele>
        <time>2021-08-08T04:37:28Z</time>
      </trkpt>
      <trkpt lat="50.18947" lon="3.71974">
        <ele>174.14</ele>
        <time>2021-08-08T04:37:29Z</time>
      </trkpt>
      <trkpt lat="50.1895" lon="3.71975">
        <ele>174.14</ele>
        <time>2021-08-08T04:37:30Z</time>
      </trkpt>
      <trkpt lat="50.18952" lon="3.71975">
        <ele>174.14</ele>
        <time>2021-08-08T04:37:31Z</time>
      </trkpt>
      <trkpt lat="50.18955" lon="3.71975">
        <ele>174.14</ele>
        <time>2021-08-08T04:37:32Z</time>
      </trkpt>
      <trkpt lat="50.18972" lon="3.71966">
        <ele>174.14</ele>
        <time>2021-08-08T04:37:40Z</time>
      </trkpt>
      <trkpt lat="50.18995" lon="3.71959">
        <ele>174.14</ele>
        <time>2021-08-08T04:37:48Z</time>
      </trkpt>
      <trkpt lat="50.1901" lon="3.71954">
        <ele>174.62</ele>
        <time>2021-08-08T04:37:55Z</time>
      </trkpt>
      <trkpt lat="50.19013" lon="3.71953">
        <ele>174.62</ele>
        <time>2021-08-08T04:38:04Z</time>
      </trkpt>
      <trkpt lat="50.19012" lon="3.71951">
        <ele>174.62</ele>
        <time>2021-08-08T04:38:05Z</time>
      </trkpt>
      <trkpt lat="50.1901" lon="3.7195">
        <ele>174.62</ele>
        <time>2021-08-08T04:38:06Z</time>
      </trkpt>
      <trkpt lat="50.19008" lon="3.71951">
        <ele>174.62</ele>
        <time>2021-08-08T04:38:07Z</time>
      </trkpt>
      <trkpt lat="50.19005" lon="3.71952">
        <ele>174.62</ele>
        <time>2021-08-08T04:38:08Z</time>
      </trkpt>
      <trkpt lat="50.19002" lon="3.71954">
        <ele>174.62</ele>
        <time>2021-08-08T04:38:09Z</time>
      </trkpt>
      <trkpt lat="50.18998" lon="3.71955">
        <ele>174.62</ele>
        <time>2021-08-08T04:38:10Z</time>
      </trkpt>
      <trkpt lat="50.18994" lon="3.71957">
        <ele>174.62</ele>
        <time>2021-08-08T04:38:11Z</time>
      </trkpt>
      <trkpt lat="50.1899" lon="3.71959">
        <ele>174.62</ele>
        <time>2021-08-08T04:38:12Z</time>
      </trkpt>
      <trkpt lat="50.18986" lon="3.71961">
        <ele>174.62</ele>
        <time>2021-08-08T04:38:13Z</time>
      </trkpt>
      <trkpt lat="50.18982" lon="3.71963">
        <ele>174.62</ele>
        <time>2021-08-08T04:38:14Z</time>
      </trkpt>
      <trkpt lat="50.18974" lon="3.71966">
        <ele>174.62</ele>
        <time>2021-08-08T04:38:16Z</time>
      </trkpt>
      <trkpt lat="50.18949" lon="3.7198">
        <ele>174.14</ele>
        <time>2021-08-08T04:38:22Z</time>
      </trkpt>
      <trkpt lat="50.18944" lon="3.71984">
        <ele>173.17</ele>
        <time>2021-08-08T04:38:23Z</time>
      </trkpt>
      <trkpt lat="50.18941" lon="3.71989">
        <ele>173.17</ele>
        <time>2021-08-08T04:38:24Z</time>
      </trkpt>
      <trkpt lat="50.18939" lon="3.71997">
        <ele>172.69</ele>
        <time>2021-08-08T04:38:25Z</time>
      </trkpt>
      <trkpt lat="50.18939" lon="3.72003">
        <ele>172.69</ele>
        <time>2021-08-08T04:38:26Z</time>
      </trkpt>
      <trkpt lat="50.18942" lon="3.7201">
        <ele>172.21</ele>
        <time>2021-08-08T04:38:27Z</time>
      </trkpt>
      <trkpt lat="50.18945" lon="3.72013">
        <ele>171.73</ele>
        <time>2021-08-08T04:38:28Z</time>
      </trkpt>
      <trkpt lat="50.18948" lon="3.72017">
        <ele>172.21</ele>
        <time>2021-08-08T04:38:29Z</time>
      </trkpt>
      <trkpt lat="50.18979" lon="3.72046">
        <ele>173.17</ele>
        <time>2021-08-08T04:38:38Z</time>
      </trkpt>
      <trkpt lat="50.1901" lon="3.72085">
        <ele>173.66</ele>
        <time>2021-08-08T04:38:48Z</time>
      </trkpt>
      <trkpt lat="50.19011" lon="3.72096">
        <ele>173.66</ele>
        <time>2021-08-08T04:38:50Z</time>
      </trkpt>
      <trkpt lat="50.19011" lon="3.72102">
        <ele>173.66</ele>
        <time>2021-08-08T04:38:51Z</time>
      </trkpt>
      <trkpt lat="50.1901" lon="3.72132">
        <ele>172.21</ele>
        <time>2021-08-08T04:38:55Z</time>
      </trkpt>
      <trkpt lat="50.19011" lon="3.72157">
        <ele>171.73</ele>
        <time>2021-08-08T04:38:58Z</time>
      </trkpt>
      <trkpt lat="50.19012" lon="3.72166">
        <ele>171.25</ele>
        <time>2021-08-08T04:38:59Z</time>
      </trkpt>
      <trkpt lat="50.19013" lon="3.72174">
        <ele>171.25</ele>
        <time>2021-08-08T04:39:00Z</time>
      </trkpt>
      <trkpt lat="50.19015" lon="3.72182">
        <ele>170.77</ele>
        <time>2021-08-08T04:39:01Z</time>
      </trkpt>
      <trkpt lat="50.19017" lon="3.72189">
        <ele>170.77</ele>
        <time>2021-08-08T04:39:02Z</time>
      </trkpt>
      <trkpt lat="50.1902" lon="3.72196">
        <ele>170.77</ele>
        <time>2021-08-08T04:39:03Z</time>
      </trkpt>
      <trkpt lat="50.19023" lon="3.72203">
        <ele>170.77</ele>
        <time>2021-08-08T04:39:04Z</time>
      </trkpt>
      <trkpt lat="50.19027" lon="3.72209">
        <ele>170.77</ele>
        <time>2021-08-08T04:39:05Z</time>
      </trkpt>
      <trkpt lat="50.19057" lon="3.72243">
        <ele>170.77</ele>
        <time>2021-08-08T04:39:12Z</time>
      </trkpt>
      <trkpt lat="50.19089" lon="3.7227">
        <ele>172.21</ele>
        <time>2021-08-08T04:39:20Z</time>
      </trkpt>
      <trkpt lat="50.19093" lon="3.72273">
        <ele>172.69</ele>
        <time>2021-08-08T04:39:21Z</time>
      </trkpt>
      <trkpt lat="50.19125" lon="3.72297">
        <ele>173.66</ele>
        <time>2021-08-08T04:39:30Z</time>
      </trkpt>
      <trkpt lat="50.19165" lon="3.72332">
        <ele>174.62</ele>
        <time>2021-08-08T04:39:41Z</time>
      </trkpt>
      <trkpt lat="50.19191" lon="3.72359">
        <ele>175.1</ele>
        <time>2021-08-08T04:39:48Z</time>
      </trkpt>
      <trkpt lat="50.19195" lon="3.72364">
        <ele>175.1</ele>
        <time>2021-08-08T04:39:49Z</time>
      </trkpt>
      <trkpt lat="50.19224" lon="3.7241">
        <ele>175.1</ele>
        <time>2021-08-08T04:39:58Z</time>
      </trkpt>
      <trkpt lat="50.19227" lon="3.72416">
        <ele>175.1</ele>
        <time>2021-08-08T04:39:59Z</time>
      </trkpt>
      <trkpt lat="50.19229" lon="3.72423">
        <ele>175.1</ele>
        <time>2021-08-08T04:40:00Z</time>
      </trkpt>
      <trkpt lat="50.19251" lon="3.7249">
        <ele>174.62</ele>
        <time>2021-08-08T04:40:09Z</time>
      </trkpt>
      <trkpt lat="50.19255" lon="3.72506">
        <ele>173.66</ele>
        <time>2021-08-08T04:40:11Z</time>
      </trkpt>
      <trkpt lat="50.19257" lon="3.72515">
        <ele>173.66</ele>
        <time>2021-08-08T04:40:12Z</time>
      </trkpt>
      <trkpt lat="50.19257" lon="3.72524">
        <ele>173.17</ele>
        <time>2021-08-08T04:40:13Z</time>
      </trkpt>
      <trkpt lat="50.19257" lon="3.72533">
        <ele>173.17</ele>
        <time>2021-08-08T04:40:14Z</time>
      </trkpt>
      <trkpt lat="50.19255" lon="3.72541">
        <ele>173.17</ele>
        <time>2021-08-08T04:40:15Z</time>
      </trkpt>
      <trkpt lat="50.19253" lon="3.72549">
        <ele>172.69</ele>
        <time>2021-08-08T04:40:16Z</time>
      </trkpt>
      <trkpt lat="50.19249" lon="3.72556">
        <ele>172.69</ele>
        <time>2021-08-08T04:40:17Z</time>
      </trkpt>
      <trkpt lat="50.19246" lon="3.72562">
        <ele>172.69</ele>
        <time>2021-08-08T04:40:18Z</time>
      </trkpt>
      <trkpt lat="50.19242" lon="3.72568">
        <ele>172.69</ele>
        <time>2021-08-08T04:40:19Z</time>
      </trkpt>
      <trkpt lat="50.19205" lon="3.72619">
        <ele>172.69</ele>
        <time>2021-08-08T04:40:28Z</time>
      </trkpt>
      <trkpt lat="50.19163" lon="3.72674">
        <ele>171.25</ele>
        <time>2021-08-08T04:40:37Z</time>
      </trkpt>
      <trkpt lat="50.19123" lon="3.72707">
        <ele>171.25</ele>
        <time>2021-08-08T04:40:45Z</time>
      </trkpt>
      <trkpt lat="50.19118" lon="3.7271">
        <ele>171.25</ele>
        <time>2021-08-08T04:40:46Z</time>
      </trkpt>
      <trkpt lat="50.19079" lon="3.72732">
        <ele>171.25</ele>
        <time>2021-08-08T04:40:54Z</time>
      </trkpt>
      <trkpt lat="50.19062" lon="3.72742">
        <ele>172.69</ele>
        <time>2021-08-08T04:40:58Z</time>
      </trkpt>
      <trkpt lat="50.19058" lon="3.72745">
        <ele>172.69</ele>
        <time>2021-08-08T04:40:59Z</time>
      </trkpt>
      <trkpt lat="50.19053" lon="3.72747">
        <ele>173.17</ele>
        <time>2021-08-08T04:41:00Z</time>
      </trkpt>
      <trkpt lat="50.19011" lon="3.72773">
        <ele>173.66</ele>
        <time>2021-08-08T04:41:10Z</time>
      </trkpt>
      <trkpt lat="50.18978" lon="3.72807">
        <ele>174.14</ele>
        <time>2021-08-08T04:41:19Z</time>
      </trkpt>
      <trkpt lat="50.18937" lon="3.72853">
        <ele>174.62</ele>
        <time>2021-08-08T04:41:30Z</time>
      </trkpt>
      <trkpt lat="50.18901" lon="3.72891">
        <ele>175.58</ele>
        <time>2021-08-08T04:41:39Z</time>
      </trkpt>
      <trkpt lat="50.18897" lon="3.72897">
        <ele>175.58</ele>
        <time>2021-08-08T04:41:40Z</time>
      </trkpt>
      <trkpt lat="50.18895" lon="3.72902">
        <ele>175.58</ele>
        <time>2021-08-08T04:41:41Z</time>
      </trkpt>
      <trkpt lat="50.18893" lon="3.72908">
        <ele>175.58</ele>
        <time>2021-08-08T04:41:42Z</time>
      </trkpt>
      <trkpt lat="50.18891" lon="3.72914">
        <ele>175.58</ele>
        <time>2021-08-08T04:41:43Z</time>
      </trkpt>
      <trkpt lat="50.18882" lon="3.72957">
        <ele>175.58</ele>
        <time>2021-08-08T04:41:50Z</time>
      </trkpt>
      <trkpt lat="50.18874" lon="3.72986">
        <ele>175.58</ele>
        <time>2021-08-08T04:41:55Z</time>
      </trkpt>
      <trkpt lat="50.1887" lon="3.72999">
        <ele>175.58</ele>
        <time>2021-08-08T04:41:57Z</time>
      </trkpt>
      <trkpt lat="50.18867" lon="3.73004">
        <ele>175.58</ele>
        <time>2021-08-08T04:41:58Z</time>
      </trkpt>
      <trkpt lat="50.18863" lon="3.73008">
        <ele>175.58</ele>
        <time>2021-08-08T04:41:59Z</time>
      </trkpt>
      <trkpt lat="50.18858" lon="3.73012">
        <ele>175.58</ele>
        <time>2021-08-08T04:42:00Z</time>
      </trkpt>
      <trkpt lat="50.18853" lon="3.73014">
        <ele>175.58</ele>
        <time>2021-08-08T04:42:01Z</time>
      </trkpt>
      <trkpt lat="50.18848" lon="3.73015">
        <ele>175.58</ele>
        <time>2021-08-08T04:42:02Z</time>
      </trkpt>
      <trkpt lat="50.18808" lon="3.73028">
        <ele>174.14</ele>
        <time>2021-08-08T04:42:10Z</time>
      </trkpt>
      <trkpt lat="50.18761" lon="3.73055">
        <ele>173.17</ele>
        <time>2021-08-08T04:42:19Z</time>
      </trkpt>
      <trkpt lat="50.18722" lon="3.73097">
        <ele>171.73</ele>
        <time>2021-08-08T04:42:27Z</time>
      </trkpt>
      <trkpt lat="50.187" lon="3.73133">
        <ele>170.77</ele>
        <time>2021-08-08T04:42:33Z</time>
      </trkpt>
      <trkpt lat="50.18697" lon="3.73138">
        <ele>169.81</ele>
        <time>2021-08-08T04:42:34Z</time>
      </trkpt>
      <trkpt lat="50.18695" lon="3.73144">
        <ele>169.81</ele>
        <time>2021-08-08T04:42:35Z</time>
      </trkpt>
      <trkpt lat="50.18692" lon="3.73152">
        <ele>169.81</ele>
        <time>2021-08-08T04:42:36Z</time>
      </trkpt>
      <trkpt lat="50.18689" lon="3.73166">
        <ele>169.81</ele>
        <time>2021-08-08T04:42:38Z</time>
      </trkpt>
      <trkpt lat="50.18687" lon="3.7317">
        <ele>168.85</ele>
        <time>2021-08-08T04:42:39Z</time>
      </trkpt>
      <trkpt lat="50.18684" lon="3.73187">
        <ele>168.85</ele>
        <time>2021-08-08T04:42:45Z</time>
      </trkpt>
      <trkpt lat="50.1868" lon="3.73201">
        <ele>168.85</ele>
        <time>2021-08-08T04:42:53Z</time>
      </trkpt>
      <trkpt lat="50.18673" lon="3.7322">
        <ele>169.81</ele>
        <time>2021-08-08T04:43:02Z</time>
      </trkpt>
      <trkpt lat="50.18662" lon="3.73236">
        <ele>169.81</ele>
        <time>2021-08-08T04:43:09Z</time>
      </trkpt>
      <trkpt lat="50.18654" lon="3.73249">
        <ele>170.29</ele>
        <time>2021-08-08T04:43:16Z</time>
      </trkpt>
      <trkpt lat="50.18649" lon="3.73259">
        <ele>170.77</ele>
        <time>2021-08-08T04:43:23Z</time>
      </trkpt>
      <trkpt lat="50.18645" lon="3.73265">
        <ele>171.25</ele>
        <time>2021-08-08T04:43:27Z</time>
      </trkpt>
      <trkpt lat="50.18636" lon="3.73272">
        <ele>171.25</ele>
        <time>2021-08-08T04:43:33Z</time>
      </trkpt>
      <trkpt lat="50.1863" lon="3.7328">
        <ele>171.73</ele>
        <time>2021-08-08T04:43:39Z</time>
      </trkpt>
      <trkpt lat="50.18629" lon="3.73281">
        <ele>171.73</ele>
        <time>2021-08-08T04:43:40Z</time>
      </trkpt>
      <trkpt lat="50.18624" lon="3.73289">
        <ele>172.21</ele>
        <time>2021-08-08T04:43:46Z</time>
      </trkpt>
      <trkpt lat="50.18617" lon="3.733">
        <ele>172.69</ele>
        <time>2021-08-08T04:43:54Z</time>
      </trkpt>
      <trkpt lat="50.18608" lon="3.73311">
        <ele>173.17</ele>
        <time>2021-08-08T04:44:01Z</time>
      </trkpt>
      <trkpt lat="50.18598" lon="3.73326">
        <ele>173.66</ele>
        <time>2021-08-08T04:44:09Z</time>
      </trkpt>
      <trkpt lat="50.18587" lon="3.73344">
        <ele>174.14</ele>
        <time>2021-08-08T04:44:17Z</time>
      </trkpt>
      <trkpt lat="50.18576" lon="3.73355">
        <ele>174.62</ele>
        <time>2021-08-08T04:44:24Z</time>
      </trkpt>
      <trkpt lat="50.18566" lon="3.73368">
        <ele>174.62</ele>
        <time>2021-08-08T04:44:32Z</time>
      </trkpt>
      <trkpt lat="50.18554" lon="3.73387">
        <ele>175.58</ele>
        <time>2021-08-08T04:44:40Z</time>
      </trkpt>
      <trkpt lat="50.18551" lon="3.73391">
        <ele>175.58</ele>
        <time>2021-08-08T04:44:42Z</time>
      </trkpt>
      <trkpt lat="50.18542" lon="3.73405">
        <ele>175.58</ele>
        <time>2021-08-08T04:44:49Z</time>
      </trkpt>
      <trkpt lat="50.18534" lon="3.73414">
        <ele>176.06</ele>
        <time>2021-08-08T04:44:54Z</time>
      </trkpt>
      <trkpt lat="50.18522" lon="3.7343">
        <ele>176.54</ele>
        <time>2021-08-08T04:45:01Z</time>
      </trkpt>
      <trkpt lat="50.18508" lon="3.73444">
        <ele>177.02</ele>
        <time>2021-08-08T04:45:07Z</time>
      </trkpt>
      <trkpt lat="50.18497" lon="3.73458">
        <ele>177.02</ele>
        <time>2021-08-08T04:45:14Z</time>
      </trkpt>
      <trkpt lat="50.1849" lon="3.73464">
        <ele>177.02</ele>
        <time>2021-08-08T04:45:17Z</time>
      </trkpt>
      <trkpt lat="50.18485" lon="3.73465">
        <ele>177.02</ele>
        <time>2021-08-08T04:45:19Z</time>
      </trkpt>
      <trkpt lat="50.18474" lon="3.73476">
        <ele>177.02</ele>
        <time>2021-08-08T04:45:25Z</time>
      </trkpt>
      <trkpt lat="50.18472" lon="3.73477">
        <ele>177.02</ele>
        <time>2021-08-08T04:45:26Z</time>
      </trkpt>
      <trkpt lat="50.1847" lon="3.73479">
        <ele>177.02</ele>
        <time>2021-08-08T04:45:27Z</time>
      </trkpt>
      <trkpt lat="50.18468" lon="3.73481">
        <ele>177.02</ele>
        <time>2021-08-08T04:45:28Z</time>
      </trkpt>
      <trkpt lat="50.18466" lon="3.73483">
        <ele>177.02</ele>
        <time>2021-08-08T04:45:29Z</time>
      </trkpt>
      <trkpt lat="50.18464" lon="3.73484">
        <ele>177.02</ele>
        <time>2021-08-08T04:45:30Z</time>
      </trkpt>
      <trkpt lat="50.18458" lon="3.73492">
        <ele>177.02</ele>
        <time>2021-08-08T04:45:35Z</time>
      </trkpt>
      <trkpt lat="50.18456" lon="3.73494">
        <ele>177.02</ele>
        <time>2021-08-08T04:45:36Z</time>
      </trkpt>
      <trkpt lat="50.18446" lon="3.73508">
        <ele>177.5</ele>
        <time>2021-08-08T04:45:43Z</time>
      </trkpt>
      <trkpt lat="50.18443" lon="3.73515">
        <ele>177.5</ele>
        <time>2021-08-08T04:45:51Z</time>
      </trkpt>
      <trkpt lat="50.18435" lon="3.73523">
        <ele>177.98</ele>
        <time>2021-08-08T04:45:56Z</time>
      </trkpt>
      <trkpt lat="50.18424" lon="3.73532">
        <ele>177.98</ele>
        <time>2021-08-08T04:46:03Z</time>
      </trkpt>
      <trkpt lat="50.18416" lon="3.73541">
        <ele>177.98</ele>
        <time>2021-08-08T04:46:08Z</time>
      </trkpt>
      <trkpt lat="50.18415" lon="3.73543">
        <ele>177.98</ele>
        <time>2021-08-08T04:46:09Z</time>
      </trkpt>
      <trkpt lat="50.18411" lon="3.73546">
        <ele>177.98</ele>
        <time>2021-08-08T04:46:12Z</time>
      </trkpt>
      <trkpt lat="50.1841" lon="3.73546">
        <ele>177.98</ele>
        <time>2021-08-08T04:46:13Z</time>
      </trkpt>
      <trkpt lat="50.18402" lon="3.73553">
        <ele>177.98</ele>
        <time>2021-08-08T04:46:19Z</time>
      </trkpt>
      <trkpt lat="50.18392" lon="3.73567">
        <ele>177.98</ele>
        <time>2021-08-08T04:46:26Z</time>
      </trkpt>
      <trkpt lat="50.18387" lon="3.73578">
        <ele>177.98</ele>
        <time>2021-08-08T04:46:32Z</time>
      </trkpt>
      <trkpt lat="50.1838" lon="3.73589">
        <ele>178.46</ele>
        <time>2021-08-08T04:46:38Z</time>
      </trkpt>
      <trkpt lat="50.1837" lon="3.73602">
        <ele>176.54</ele>
        <time>2021-08-08T04:46:44Z</time>
      </trkpt>
      <trkpt lat="50.18357" lon="3.73616">
        <ele>176.54</ele>
        <time>2021-08-08T04:46:51Z</time>
      </trkpt>
      <trkpt lat="50.18351" lon="3.73623">
        <ele>176.06</ele>
        <time>2021-08-08T04:46:55Z</time>
      </trkpt>
      <trkpt lat="50.1835" lon="3.73626">
        <ele>176.06</ele>
        <time>2021-08-08T04:46:56Z</time>
      </trkpt>
      <trkpt lat="50.18348" lon="3.73628">
        <ele>176.06</ele>
        <time>2021-08-08T04:46:57Z</time>
      </trkpt>
      <trkpt lat="50.18347" lon="3.7363">
        <ele>176.06</ele>
        <time>2021-08-08T04:46:58Z</time>
      </trkpt>
      <trkpt lat="50.1834" lon="3.73638">
        <ele>176.06</ele>
        <time>2021-08-08T04:47:04Z</time>
      </trkpt>
      <trkpt lat="50.18324" lon="3.73657">
        <ele>175.1</ele>
        <time>2021-08-08T04:47:11Z</time>
      </trkpt>
      <trkpt lat="50.18309" lon="3.73674">
        <ele>173.17</ele>
        <time>2021-08-08T04:47:17Z</time>
      </trkpt>
      <trkpt lat="50.18298" lon="3.73684">
        <ele>172.69</ele>
        <time>2021-08-08T04:47:22Z</time>
      </trkpt>
      <trkpt lat="50.18297" lon="3.73686">
        <ele>172.69</ele>
        <time>2021-08-08T04:47:23Z</time>
      </trkpt>
      <trkpt lat="50.18295" lon="3.73687">
        <ele>173.17</ele>
        <time>2021-08-08T04:47:24Z</time>
      </trkpt>
      <trkpt lat="50.18294" lon="3.73689">
        <ele>172.69</ele>
        <time>2021-08-08T04:47:25Z</time>
      </trkpt>
      <trkpt lat="50.18292" lon="3.73691">
        <ele>172.69</ele>
        <time>2021-08-08T04:47:26Z</time>
      </trkpt>
      <trkpt lat="50.18291" lon="3.73693">
        <ele>172.69</ele>
        <time>2021-08-08T04:47:27Z</time>
      </trkpt>
      <trkpt lat="50.18289" lon="3.73696">
        <ele>172.69</ele>
        <time>2021-08-08T04:47:28Z</time>
      </trkpt>
      <trkpt lat="50.18288" lon="3.73699">
        <ele>172.69</ele>
        <time>2021-08-08T04:47:29Z</time>
      </trkpt>
      <trkpt lat="50.18286" lon="3.73702">
        <ele>172.21</ele>
        <time>2021-08-08T04:47:30Z</time>
      </trkpt>
      <trkpt lat="50.18284" lon="3.73704">
        <ele>172.21</ele>
        <time>2021-08-08T04:47:31Z</time>
      </trkpt>
      <trkpt lat="50.18283" lon="3.73706">
        <ele>172.21</ele>
        <time>2021-08-08T04:47:32Z</time>
      </trkpt>
      <trkpt lat="50.18276" lon="3.7372">
        <ele>171.73</ele>
        <time>2021-08-08T04:47:39Z</time>
      </trkpt>
      <trkpt lat="50.18274" lon="3.73722">
        <ele>171.73</ele>
        <time>2021-08-08T04:47:40Z</time>
      </trkpt>
      <trkpt lat="50.18272" lon="3.73725">
        <ele>171.73</ele>
        <time>2021-08-08T04:47:41Z</time>
      </trkpt>
      <trkpt lat="50.1827" lon="3.73728">
        <ele>171.25</ele>
        <time>2021-08-08T04:47:42Z</time>
      </trkpt>
      <trkpt lat="50.18267" lon="3.73731">
        <ele>171.25</ele>
        <time>2021-08-08T04:47:43Z</time>
      </trkpt>
      <trkpt lat="50.18254" lon="3.73746">
        <ele>170.77</ele>
        <time>2021-08-08T04:47:49Z</time>
      </trkpt>
      <trkpt lat="50.18242" lon="3.73763">
        <ele>172.21</ele>
        <time>2021-08-08T04:47:56Z</time>
      </trkpt>
      <trkpt lat="50.18228" lon="3.73779">
        <ele>173.17</ele>
        <time>2021-08-08T04:48:03Z</time>
      </trkpt>
      <trkpt lat="50.18219" lon="3.73795">
        <ele>173.66</ele>
        <time>2021-08-08T04:48:10Z</time>
      </trkpt>
      <trkpt lat="50.18202" lon="3.73814">
        <ele>175.1</ele>
        <time>2021-08-08T04:48:18Z</time>
      </trkpt>
      <trkpt lat="50.18184" lon="3.73837">
        <ele>175.58</ele>
        <time>2021-08-08T04:48:27Z</time>
      </trkpt>
      <trkpt lat="50.18172" lon="3.73854">
        <ele>176.06</ele>
        <time>2021-08-08T04:48:34Z</time>
      </trkpt>
      <trkpt lat="50.18168" lon="3.73879">
        <ele>176.06</ele>
        <time>2021-08-08T04:48:41Z</time>
      </trkpt>
      <trkpt lat="50.1818" lon="3.73908">
        <ele>176.54</ele>
        <time>2021-08-08T04:48:50Z</time>
      </trkpt>
      <trkpt lat="50.18196" lon="3.73938">
        <ele>176.54</ele>
        <time>2021-08-08T04:48:58Z</time>
      </trkpt>
      <trkpt lat="50.18207" lon="3.73961">
        <ele>176.54</ele>
        <time>2021-08-08T04:49:05Z</time>
      </trkpt>
      <trkpt lat="50.18211" lon="3.73974">
        <ele>176.54</ele>
        <time>2021-08-08T04:49:10Z</time>
      </trkpt>
      <trkpt lat="50.18211" lon="3.73978">
        <ele>176.54</ele>
        <time>2021-08-08T04:49:12Z</time>
      </trkpt>
      <trkpt lat="50.18211" lon="3.73981">
        <ele>176.54</ele>
        <time>2021-08-08T04:49:13Z</time>
      </trkpt>
      <trkpt lat="50.1821" lon="3.73982">
        <ele>176.54</ele>
        <time>2021-08-08T04:49:14Z</time>
      </trkpt>
      <trkpt lat="50.1821" lon="3.73985">
        <ele>175.1</ele>
        <time>2021-08-08T04:49:15Z</time>
      </trkpt>
      <trkpt lat="50.18209" lon="3.73989">
        <ele>175.1</ele>
        <time>2021-08-08T04:49:16Z</time>
      </trkpt>
      <trkpt lat="50.18208" lon="3.73993">
        <ele>175.1</ele>
        <time>2021-08-08T04:49:17Z</time>
      </trkpt>
      <trkpt lat="50.18206" lon="3.73998">
        <ele>175.1</ele>
        <time>2021-08-08T04:49:18Z</time>
      </trkpt>
      <trkpt lat="50.18198" lon="3.7403">
        <ele>174.62</ele>
        <time>2021-08-08T04:49:25Z</time>
      </trkpt>
      <trkpt lat="50.18194" lon="3.74057">
        <ele>173.66</ele>
        <time>2021-08-08T04:49:31Z</time>
      </trkpt>
      <trkpt lat="50.18191" lon="3.74082">
        <ele>173.17</ele>
        <time>2021-08-08T04:49:37Z</time>
      </trkpt>
      <trkpt lat="50.18186" lon="3.74109">
        <ele>169.81</ele>
        <time>2021-08-08T04:49:42Z</time>
      </trkpt>
      <trkpt lat="50.18185" lon="3.74116">
        <ele>169.33</ele>
        <time>2021-08-08T04:49:43Z</time>
      </trkpt>
      <trkpt lat="50.18184" lon="3.74124">
        <ele>169.33</ele>
        <time>2021-08-08T04:49:44Z</time>
      </trkpt>
      <trkpt lat="50.18184" lon="3.74132">
        <ele>168.85</ele>
        <time>2021-08-08T04:49:45Z</time>
      </trkpt>
      <trkpt lat="50.18183" lon="3.74141">
        <ele>168.85</ele>
        <time>2021-08-08T04:49:46Z</time>
      </trkpt>
      <trkpt lat="50.18183" lon="3.74148">
        <ele>168.85</ele>
        <time>2021-08-08T04:49:47Z</time>
      </trkpt>
      <trkpt lat="50.18178" lon="3.74186">
        <ele>165.96</ele>
        <time>2021-08-08T04:49:52Z</time>
      </trkpt>
      <trkpt lat="50.18178" lon="3.74194">
        <ele>165.48</ele>
        <time>2021-08-08T04:49:53Z</time>
      </trkpt>
      <trkpt lat="50.18179" lon="3.74201">
        <ele>165.48</ele>
        <time>2021-08-08T04:49:54Z</time>
      </trkpt>
      <trkpt lat="50.18179" lon="3.74207">
        <ele>165.48</ele>
        <time>2021-08-08T04:49:55Z</time>
      </trkpt>
      <trkpt lat="50.18179" lon="3.74212">
        <ele>165.48</ele>
        <time>2021-08-08T04:49:56Z</time>
      </trkpt>
      <trkpt lat="50.1818" lon="3.74222">
        <ele>165.48</ele>
        <time>2021-08-08T04:50:01Z</time>
      </trkpt>
      <trkpt lat="50.1818" lon="3.7423">
        <ele>165.48</ele>
        <time>2021-08-08T04:50:11Z</time>
      </trkpt>
      <trkpt lat="50.18179" lon="3.74238">
        <ele>165.48</ele>
        <time>2021-08-08T04:50:18Z</time>
      </trkpt>
      <trkpt lat="50.18178" lon="3.7424">
        <ele>165.48</ele>
        <time>2021-08-08T04:50:19Z</time>
      </trkpt>
      <trkpt lat="50.18177" lon="3.74243">
        <ele>165.48</ele>
        <time>2021-08-08T04:50:20Z</time>
      </trkpt>
      <trkpt lat="50.18176" lon="3.74246">
        <ele>165.48</ele>
        <time>2021-08-08T04:50:21Z</time>
      </trkpt>
      <trkpt lat="50.18176" lon="3.74249">
        <ele>165.48</ele>
        <time>2021-08-08T04:50:22Z</time>
      </trkpt>
      <trkpt lat="50.18176" lon="3.74252">
        <ele>165.48</ele>
        <time>2021-08-08T04:50:23Z</time>
      </trkpt>
      <trkpt lat="50.18176" lon="3.74255">
        <ele>165.48</ele>
        <time>2021-08-08T04:50:24Z</time>
      </trkpt>
      <trkpt lat="50.18176" lon="3.74259">
        <ele>165.48</ele>
        <time>2021-08-08T04:50:25Z</time>
      </trkpt>
      <trkpt lat="50.18175" lon="3.74264">
        <ele>165.48</ele>
        <time>2021-08-08T04:50:26Z</time>
      </trkpt>
      <trkpt lat="50.18174" lon="3.74267">
        <ele>165.48</ele>
        <time>2021-08-08T04:50:27Z</time>
      </trkpt>
      <trkpt lat="50.18169" lon="3.74296">
        <ele>165.48</ele>
        <time>2021-08-08T04:50:34Z</time>
      </trkpt>
      <trkpt lat="50.1817" lon="3.74326">
        <ele>165.48</ele>
        <time>2021-08-08T04:50:41Z</time>
      </trkpt>
      <trkpt lat="50.18169" lon="3.74334">
        <ele>165.48</ele>
        <time>2021-08-08T04:50:43Z</time>
      </trkpt>
      <trkpt lat="50.18169" lon="3.74338">
        <ele>165.48</ele>
        <time>2021-08-08T04:50:44Z</time>
      </trkpt>
      <trkpt lat="50.18169" lon="3.74343">
        <ele>165.48</ele>
        <time>2021-08-08T04:50:45Z</time>
      </trkpt>
      <trkpt lat="50.18167" lon="3.74364">
        <ele>165.48</ele>
        <time>2021-08-08T04:50:50Z</time>
      </trkpt>
      <trkpt lat="50.18161" lon="3.74395">
        <ele>165.48</ele>
        <time>2021-08-08T04:50:57Z</time>
      </trkpt>
      <trkpt lat="50.18157" lon="3.74414">
        <ele>165.48</ele>
        <time>2021-08-08T04:51:04Z</time>
      </trkpt>
      <trkpt lat="50.18153" lon="3.74433">
        <ele>165</ele>
        <time>2021-08-08T04:51:10Z</time>
      </trkpt>
      <trkpt lat="50.18151" lon="3.74452">
        <ele>165</ele>
        <time>2021-08-08T04:51:17Z</time>
      </trkpt>
      <trkpt lat="50.18152" lon="3.74455">
        <ele>165</ele>
        <time>2021-08-08T04:51:28Z</time>
      </trkpt>
      <trkpt lat="50.18153" lon="3.74455">
        <ele>165</ele>
        <time>2021-08-08T04:51:39Z</time>
      </trkpt>
      <trkpt lat="50.18153" lon="3.74466">
        <ele>165.48</ele>
        <time>2021-08-08T04:51:46Z</time>
      </trkpt>
      <trkpt lat="50.18153" lon="3.7447">
        <ele>165.48</ele>
        <time>2021-08-08T04:51:48Z</time>
      </trkpt>
      <trkpt lat="50.18152" lon="3.74473">
        <ele>165.48</ele>
        <time>2021-08-08T04:51:49Z</time>
      </trkpt>
      <trkpt lat="50.18152" lon="3.74478">
        <ele>165.48</ele>
        <time>2021-08-08T04:51:50Z</time>
      </trkpt>
      <trkpt lat="50.18152" lon="3.74481">
        <ele>165.48</ele>
        <time>2021-08-08T04:51:51Z</time>
      </trkpt>
      <trkpt lat="50.18151" lon="3.74484">
        <ele>165.48</ele>
        <time>2021-08-08T04:51:52Z</time>
      </trkpt>
      <trkpt lat="50.1815" lon="3.74488">
        <ele>165.48</ele>
        <time>2021-08-08T04:51:53Z</time>
      </trkpt>
      <trkpt lat="50.18148" lon="3.74512">
        <ele>165</ele>
        <time>2021-08-08T04:51:59Z</time>
      </trkpt>
      <trkpt lat="50.18145" lon="3.74541">
        <ele>165</ele>
        <time>2021-08-08T04:52:07Z</time>
      </trkpt>
      <trkpt lat="50.18141" lon="3.74566">
        <ele>164.52</ele>
        <time>2021-08-08T04:52:15Z</time>
      </trkpt>
      <trkpt lat="50.18139" lon="3.74595">
        <ele>164.04</ele>
        <time>2021-08-08T04:52:22Z</time>
      </trkpt>
      <trkpt lat="50.18136" lon="3.74623">
        <ele>163.08</ele>
        <time>2021-08-08T04:52:28Z</time>
      </trkpt>
      <trkpt lat="50.1813" lon="3.74651">
        <ele>163.08</ele>
        <time>2021-08-08T04:52:34Z</time>
      </trkpt>
      <trkpt lat="50.18125" lon="3.74675">
        <ele>163.08</ele>
        <time>2021-08-08T04:52:41Z</time>
      </trkpt>
      <trkpt lat="50.18124" lon="3.74686">
        <ele>163.08</ele>
        <time>2021-08-08T04:52:44Z</time>
      </trkpt>
      <trkpt lat="50.1812" lon="3.74712">
        <ele>164.52</ele>
        <time>2021-08-08T04:52:51Z</time>
      </trkpt>
      <trkpt lat="50.18117" lon="3.74747">
        <ele>164.52</ele>
        <time>2021-08-08T04:52:59Z</time>
      </trkpt>
      <trkpt lat="50.18117" lon="3.74759">
        <ele>165</ele>
        <time>2021-08-08T04:53:03Z</time>
      </trkpt>
      <trkpt lat="50.18113" lon="3.74785">
        <ele>165</ele>
        <time>2021-08-08T04:53:11Z</time>
      </trkpt>
      <trkpt lat="50.18112" lon="3.7479">
        <ele>165</ele>
        <time>2021-08-08T04:53:13Z</time>
      </trkpt>
      <trkpt lat="50.1811" lon="3.74792">
        <ele>165</ele>
        <time>2021-08-08T04:53:14Z</time>
      </trkpt>
      <trkpt lat="50.18103" lon="3.74803">
        <ele>165</ele>
        <time>2021-08-08T04:53:21Z</time>
      </trkpt>
      <trkpt lat="50.18102" lon="3.74836">
        <ele>165</ele>
        <time>2021-08-08T04:53:27Z</time>
      </trkpt>
      <trkpt lat="50.18101" lon="3.74862">
        <ele>165.48</ele>
        <time>2021-08-08T04:53:34Z</time>
      </trkpt>
      <trkpt lat="50.18101" lon="3.74865">
        <ele>165.48</ele>
        <time>2021-08-08T04:53:35Z</time>
      </trkpt>
      <trkpt lat="50.18098" lon="3.7488">
        <ele>165.96</ele>
        <time>2021-08-08T04:53:41Z</time>
      </trkpt>
      <trkpt lat="50.18099" lon="3.74883">
        <ele>165.96</ele>
        <time>2021-08-08T04:53:42Z</time>
      </trkpt>
      <trkpt lat="50.181" lon="3.74892">
        <ele>165.96</ele>
        <time>2021-08-08T04:53:48Z</time>
      </trkpt>
      <trkpt lat="50.18101" lon="3.74901">
        <ele>165.96</ele>
        <time>2021-08-08T04:53:54Z</time>
      </trkpt>
      <trkpt lat="50.18098" lon="3.74912">
        <ele>167.41</ele>
        <time>2021-08-08T04:54:02Z</time>
      </trkpt>
      <trkpt lat="50.18098" lon="3.74925">
        <ele>167.89</ele>
        <time>2021-08-08T04:54:11Z</time>
      </trkpt>
      <trkpt lat="50.18098" lon="3.74932">
        <ele>167.89</ele>
        <time>2021-08-08T04:54:15Z</time>
      </trkpt>
      <trkpt lat="50.18098" lon="3.74934">
        <ele>167.89</ele>
        <time>2021-08-08T04:54:16Z</time>
      </trkpt>
      <trkpt lat="50.18097" lon="3.74939">
        <ele>167.89</ele>
        <time>2021-08-08T04:54:18Z</time>
      </trkpt>
      <trkpt lat="50.18096" lon="3.74943">
        <ele>167.89</ele>
        <time>2021-08-08T04:54:20Z</time>
      </trkpt>
      <trkpt lat="50.18096" lon="3.74956">
        <ele>167.89</ele>
        <time>2021-08-08T04:54:26Z</time>
      </trkpt>
      <trkpt lat="50.18093" lon="3.74968">
        <ele>167.89</ele>
        <time>2021-08-08T04:54:33Z</time>
      </trkpt>
      <trkpt lat="50.18093" lon="3.7497">
        <ele>168.37</ele>
        <time>2021-08-08T04:54:34Z</time>
      </trkpt>
      <trkpt lat="50.18092" lon="3.74972">
        <ele>168.37</ele>
        <time>2021-08-08T04:54:35Z</time>
      </trkpt>
      <trkpt lat="50.1809" lon="3.74978">
        <ele>168.37</ele>
        <time>2021-08-08T04:54:40Z</time>
      </trkpt>
      <trkpt lat="50.18087" lon="3.74996">
        <ele>169.33</ele>
        <time>2021-08-08T04:54:48Z</time>
      </trkpt>
      <trkpt lat="50.18085" lon="3.75012">
        <ele>169.81</ele>
        <time>2021-08-08T04:54:56Z</time>
      </trkpt>
      <trkpt lat="50.18084" lon="3.75031">
        <ele>170.29</ele>
        <time>2021-08-08T04:55:04Z</time>
      </trkpt>
      <trkpt lat="50.18084" lon="3.75037">
        <ele>170.77</ele>
        <time>2021-08-08T04:55:06Z</time>
      </trkpt>
      <trkpt lat="50.18084" lon="3.7504">
        <ele>170.77</ele>
        <time>2021-08-08T04:55:07Z</time>
      </trkpt>
      <trkpt lat="50.18084" lon="3.75044">
        <ele>170.77</ele>
        <time>2021-08-08T04:55:08Z</time>
      </trkpt>
      <trkpt lat="50.18081" lon="3.75061">
        <ele>170.77</ele>
        <time>2021-08-08T04:55:14Z</time>
      </trkpt>
      <trkpt lat="50.18081" lon="3.75064">
        <ele>170.77</ele>
        <time>2021-08-08T04:55:15Z</time>
      </trkpt>
      <trkpt lat="50.18081" lon="3.75068">
        <ele>170.77</ele>
        <time>2021-08-08T04:55:16Z</time>
      </trkpt>
      <trkpt lat="50.1808" lon="3.75072">
        <ele>170.77</ele>
        <time>2021-08-08T04:55:17Z</time>
      </trkpt>
      <trkpt lat="50.1808" lon="3.75074">
        <ele>171.25</ele>
        <time>2021-08-08T04:55:18Z</time>
      </trkpt>
      <trkpt lat="50.18075" lon="3.751">
        <ele>171.25</ele>
        <time>2021-08-08T04:55:27Z</time>
      </trkpt>
      <trkpt lat="50.18074" lon="3.75111">
        <ele>171.25</ele>
        <time>2021-08-08T04:55:30Z</time>
      </trkpt>
      <trkpt lat="50.18073" lon="3.75115">
        <ele>171.25</ele>
        <time>2021-08-08T04:55:31Z</time>
      </trkpt>
      <trkpt lat="50.18073" lon="3.75119">
        <ele>171.25</ele>
        <time>2021-08-08T04:55:32Z</time>
      </trkpt>
      <trkpt lat="50.18072" lon="3.75125">
        <ele>170.29</ele>
        <time>2021-08-08T04:55:33Z</time>
      </trkpt>
      <trkpt lat="50.18071" lon="3.75131">
        <ele>169.81</ele>
        <time>2021-08-08T04:55:34Z</time>
      </trkpt>
      <trkpt lat="50.1807" lon="3.75138">
        <ele>169.33</ele>
        <time>2021-08-08T04:55:35Z</time>
      </trkpt>
      <trkpt lat="50.18069" lon="3.75163">
        <ele>167.89</ele>
        <time>2021-08-08T04:55:40Z</time>
      </trkpt>
      <trkpt lat="50.18067" lon="3.75197">
        <ele>164.04</ele>
        <time>2021-08-08T04:55:45Z</time>
      </trkpt>
      <trkpt lat="50.18066" lon="3.75221">
        <ele>165.96</ele>
        <time>2021-08-08T04:55:49Z</time>
      </trkpt>
      <trkpt lat="50.18065" lon="3.75233">
        <ele>166.93</ele>
        <time>2021-08-08T04:55:53Z</time>
      </trkpt>
      <trkpt lat="50.18065" lon="3.75236">
        <ele>166.93</ele>
        <time>2021-08-08T04:55:54Z</time>
      </trkpt>
      <trkpt lat="50.18059" lon="3.75266">
        <ele>166.93</ele>
        <time>2021-08-08T04:56:02Z</time>
      </trkpt>
      <trkpt lat="50.18057" lon="3.75274">
        <ele>166.93</ele>
        <time>2021-08-08T04:56:05Z</time>
      </trkpt>
      <trkpt lat="50.18057" lon="3.75277">
        <ele>167.41</ele>
        <time>2021-08-08T04:56:06Z</time>
      </trkpt>
      <trkpt lat="50.18056" lon="3.7528">
        <ele>167.41</ele>
        <time>2021-08-08T04:56:07Z</time>
      </trkpt>
      <trkpt lat="50.18056" lon="3.75282">
        <ele>167.41</ele>
        <time>2021-08-08T04:56:08Z</time>
      </trkpt>
      <trkpt lat="50.18056" lon="3.75285">
        <ele>167.41</ele>
        <time>2021-08-08T04:56:09Z</time>
      </trkpt>
      <trkpt lat="50.18055" lon="3.75288">
        <ele>167.41</ele>
        <time>2021-08-08T04:56:10Z</time>
      </trkpt>
      <trkpt lat="50.18054" lon="3.75303">
        <ele>167.89</ele>
        <time>2021-08-08T04:56:17Z</time>
      </trkpt>
      <trkpt lat="50.18051" lon="3.75312">
        <ele>168.37</ele>
        <time>2021-08-08T04:56:23Z</time>
      </trkpt>
      <trkpt lat="50.18051" lon="3.75324">
        <ele>168.85</ele>
        <time>2021-08-08T04:56:29Z</time>
      </trkpt>
      <trkpt lat="50.18048" lon="3.75343">
        <ele>169.81</ele>
        <time>2021-08-08T04:56:37Z</time>
      </trkpt>
      <trkpt lat="50.18049" lon="3.75346">
        <ele>169.81</ele>
        <time>2021-08-08T04:56:38Z</time>
      </trkpt>
      <trkpt lat="50.18047" lon="3.75363">
        <ele>169.81</ele>
        <time>2021-08-08T04:56:46Z</time>
      </trkpt>
      <trkpt lat="50.18046" lon="3.75379">
        <ele>169.81</ele>
        <time>2021-08-08T04:56:53Z</time>
      </trkpt>
      <trkpt lat="50.18046" lon="3.75397">
        <ele>169.81</ele>
        <time>2021-08-08T04:57:00Z</time>
      </trkpt>
      <trkpt lat="50.18044" lon="3.75415">
        <ele>170.29</ele>
        <time>2021-08-08T04:57:09Z</time>
      </trkpt>
      <trkpt lat="50.18041" lon="3.75429">
        <ele>170.29</ele>
        <time>2021-08-08T04:57:16Z</time>
      </trkpt>
      <trkpt lat="50.1804" lon="3.75431">
        <ele>170.29</ele>
        <time>2021-08-08T04:57:17Z</time>
      </trkpt>
      <trkpt lat="50.1804" lon="3.75434">
        <ele>170.29</ele>
        <time>2021-08-08T04:57:18Z</time>
      </trkpt>
      <trkpt lat="50.18037" lon="3.7545">
        <ele>170.29</ele>
        <time>2021-08-08T04:57:26Z</time>
      </trkpt>
      <trkpt lat="50.18036" lon="3.75461">
        <ele>170.29</ele>
        <time>2021-08-08T04:57:30Z</time>
      </trkpt>
      <trkpt lat="50.18035" lon="3.75463">
        <ele>170.29</ele>
        <time>2021-08-08T04:57:31Z</time>
      </trkpt>
      <trkpt lat="50.18035" lon="3.75466">
        <ele>170.29</ele>
        <time>2021-08-08T04:57:32Z</time>
      </trkpt>
      <trkpt lat="50.18034" lon="3.75468">
        <ele>170.29</ele>
        <time>2021-08-08T04:57:33Z</time>
      </trkpt>
      <trkpt lat="50.18033" lon="3.75471">
        <ele>170.29</ele>
        <time>2021-08-08T04:57:34Z</time>
      </trkpt>
      <trkpt lat="50.18033" lon="3.75473">
        <ele>170.29</ele>
        <time>2021-08-08T04:57:35Z</time>
      </trkpt>
      <trkpt lat="50.18032" lon="3.75477">
        <ele>170.29</ele>
        <time>2021-08-08T04:57:36Z</time>
      </trkpt>
      <trkpt lat="50.18032" lon="3.75482">
        <ele>170.29</ele>
        <time>2021-08-08T04:57:37Z</time>
      </trkpt>
      <trkpt lat="50.18029" lon="3.75502">
        <ele>170.29</ele>
        <time>2021-08-08T04:57:42Z</time>
      </trkpt>
      <trkpt lat="50.18027" lon="3.75505">
        <ele>170.77</ele>
        <time>2021-08-08T04:57:43Z</time>
      </trkpt>
      <trkpt lat="50.1802" lon="3.75515">
        <ele>170.77</ele>
        <time>2021-08-08T04:57:48Z</time>
      </trkpt>
      <trkpt lat="50.18011" lon="3.75518">
        <ele>170.77</ele>
        <time>2021-08-08T04:57:55Z</time>
      </trkpt>
      <trkpt lat="50.1801" lon="3.75521">
        <ele>170.77</ele>
        <time>2021-08-08T04:57:57Z</time>
      </trkpt>
      <trkpt lat="50.1801" lon="3.75524">
        <ele>170.77</ele>
        <time>2021-08-08T04:57:58Z</time>
      </trkpt>
      <trkpt lat="50.18011" lon="3.75526">
        <ele>170.77</ele>
        <time>2021-08-08T04:57:59Z</time>
      </trkpt>
      <trkpt lat="50.18012" lon="3.75528">
        <ele>170.77</ele>
        <time>2021-08-08T04:58:00Z</time>
      </trkpt>
      <trkpt lat="50.18011" lon="3.75531">
        <ele>170.77</ele>
        <time>2021-08-08T04:58:01Z</time>
      </trkpt>
      <trkpt lat="50.18011" lon="3.75533">
        <ele>170.77</ele>
        <time>2021-08-08T04:58:02Z</time>
      </trkpt>
      <trkpt lat="50.18011" lon="3.75536">
        <ele>170.77</ele>
        <time>2021-08-08T04:58:03Z</time>
      </trkpt>
      <trkpt lat="50.18011" lon="3.75538">
        <ele>170.77</ele>
        <time>2021-08-08T04:58:04Z</time>
      </trkpt>
      <trkpt lat="50.18011" lon="3.7554">
        <ele>170.77</ele>
        <time>2021-08-08T04:58:05Z</time>
      </trkpt>
      <trkpt lat="50.18012" lon="3.75542">
        <ele>170.77</ele>
        <time>2021-08-08T04:58:06Z</time>
      </trkpt>
      <trkpt lat="50.18013" lon="3.75543">
        <ele>170.77</ele>
        <time>2021-08-08T04:58:07Z</time>
      </trkpt>
      <trkpt lat="50.18015" lon="3.75546">
        <ele>170.77</ele>
        <time>2021-08-08T04:58:13Z</time>
      </trkpt>
      <trkpt lat="50.18014" lon="3.75543">
        <ele>171.25</ele>
        <time>2021-08-08T04:58:30Z</time>
      </trkpt>
      <trkpt lat="50.18014" lon="3.75549">
        <ele>171.25</ele>
        <time>2021-08-08T04:58:35Z</time>
      </trkpt>
      <trkpt lat="50.18014" lon="3.7555">
        <ele>171.25</ele>
        <time>2021-08-08T04:58:36Z</time>
      </trkpt>
      <trkpt lat="50.18013" lon="3.75552">
        <ele>171.25</ele>
        <time>2021-08-08T04:58:37Z</time>
      </trkpt>
      <trkpt lat="50.18011" lon="3.75563">
        <ele>171.25</ele>
        <time>2021-08-08T04:58:44Z</time>
      </trkpt>
      <trkpt lat="50.18011" lon="3.75565">
        <ele>171.25</ele>
        <time>2021-08-08T04:58:50Z</time>
      </trkpt>
      <trkpt lat="50.1801" lon="3.75567">
        <ele>171.25</ele>
        <time>2021-08-08T04:58:56Z</time>
      </trkpt>
      <trkpt lat="50.18009" lon="3.75567">
        <ele>171.25</ele>
        <time>2021-08-08T04:59:04Z</time>
      </trkpt>
      <trkpt lat="50.1801" lon="3.75568">
        <ele>171.25</ele>
        <time>2021-08-08T04:59:13Z</time>
      </trkpt>
      <trkpt lat="50.18013" lon="3.75566">
        <ele>170.77</ele>
        <time>2021-08-08T04:59:30Z</time>
      </trkpt>
      <trkpt lat="50.18016" lon="3.7557">
        <ele>170.77</ele>
        <time>2021-08-08T04:59:45Z</time>
      </trkpt>
      <trkpt lat="50.18015" lon="3.75573">
        <ele>170.77</ele>
        <time>2021-08-08T05:00:01Z</time>
      </trkpt>
      <trkpt lat="50.18012" lon="3.75573">
        <ele>170.77</ele>
        <time>2021-08-08T05:00:19Z</time>
      </trkpt>
      <trkpt lat="50.18013" lon="3.75573">
        <ele>170.77</ele>
        <time>2021-08-08T05:00:34Z</time>
      </trkpt>
      <trkpt lat="50.18012" lon="3.75568">
        <ele>170.77</ele>
        <time>2021-08-08T05:00:48Z</time>
      </trkpt>
      <trkpt lat="50.18011" lon="3.75568">
        <ele>170.77</ele>
        <time>2021-08-08T05:01:00Z</time>
      </trkpt>
      <trkpt lat="50.18011" lon="3.75567">
        <ele>170.77</ele>
        <time>2021-08-08T05:01:22Z</time>
      </trkpt>
      <trkpt lat="50.18011" lon="3.75567">
        <ele>170.77</ele>
        <time>2021-08-08T05:01:36Z</time>
      </trkpt>
      <trkpt lat="50.18012" lon="3.75566">
        <ele>170.77</ele>
        <time>2021-08-08T05:01:49Z</time>
      </trkpt>
      <trkpt lat="50.18011" lon="3.75565">
        <ele>170.29</ele>
        <time>2021-08-08T05:02:03Z</time>
      </trkpt>
      <trkpt lat="50.18008" lon="3.75563">
        <ele>170.29</ele>
        <time>2021-08-08T05:02:16Z</time>
      </trkpt>
      <trkpt lat="50.18008" lon="3.75567">
        <ele>170.29</ele>
        <time>2021-08-08T05:02:35Z</time>
      </trkpt>
      <trkpt lat="50.18009" lon="3.75566">
        <ele>170.29</ele>
        <time>2021-08-08T05:02:52Z</time>
      </trkpt>
      <trkpt lat="50.1801" lon="3.75568">
        <ele>170.29</ele>
        <time>2021-08-08T05:03:04Z</time>
      </trkpt>
      <trkpt lat="50.18012" lon="3.75568">
        <ele>170.29</ele>
        <time>2021-08-08T05:03:13Z</time>
      </trkpt>
      <trkpt lat="50.18012" lon="3.75568">
        <ele>170.29</ele>
        <time>2021-08-08T05:03:25Z</time>
      </trkpt>
      <trkpt lat="50.18012" lon="3.75571">
        <ele>170.29</ele>
        <time>2021-08-08T05:03:27Z</time>
      </trkpt>
      <trkpt lat="50.1801" lon="3.75581">
        <ele>169.81</ele>
        <time>2021-08-08T05:03:31Z</time>
      </trkpt>
      <trkpt lat="50.18009" lon="3.75584">
        <ele>169.81</ele>
        <time>2021-08-08T05:03:32Z</time>
      </trkpt>
      <trkpt lat="50.18008" lon="3.75587">
        <ele>169.81</ele>
        <time>2021-08-08T05:03:33Z</time>
      </trkpt>
      <trkpt lat="50.18007" lon="3.75591">
        <ele>169.81</ele>
        <time>2021-08-08T05:03:34Z</time>
      </trkpt>
      <trkpt lat="50.17999" lon="3.75618">
        <ele>169.81</ele>
        <time>2021-08-08T05:03:40Z</time>
      </trkpt>
      <trkpt lat="50.17993" lon="3.75647">
        <ele>168.85</ele>
        <time>2021-08-08T05:03:45Z</time>
      </trkpt>
      <trkpt lat="50.17986" lon="3.75672">
        <ele>168.85</ele>
        <time>2021-08-08T05:03:49Z</time>
      </trkpt>
      <trkpt lat="50.17984" lon="3.75678">
        <ele>168.85</ele>
        <time>2021-08-08T05:03:50Z</time>
      </trkpt>
      <trkpt lat="50.17972" lon="3.75729">
        <ele>168.37</ele>
        <time>2021-08-08T05:03:57Z</time>
      </trkpt>
      <trkpt lat="50.17958" lon="3.75778">
        <ele>167.89</ele>
        <time>2021-08-08T05:04:03Z</time>
      </trkpt>
      <trkpt lat="50.17952" lon="3.75793">
        <ele>167.89</ele>
        <time>2021-08-08T05:04:05Z</time>
      </trkpt>
      <trkpt lat="50.1795" lon="3.75802">
        <ele>167.89</ele>
        <time>2021-08-08T05:04:06Z</time>
      </trkpt>
      <trkpt lat="50.17938" lon="3.75856">
        <ele>167.89</ele>
        <time>2021-08-08T05:04:13Z</time>
      </trkpt>
      <trkpt lat="50.17931" lon="3.75893">
        <ele>167.89</ele>
        <time>2021-08-08T05:04:18Z</time>
      </trkpt>
      <trkpt lat="50.17929" lon="3.75901">
        <ele>167.89</ele>
        <time>2021-08-08T05:04:19Z</time>
      </trkpt>
      <trkpt lat="50.17912" lon="3.75969">
        <ele>167.89</ele>
        <time>2021-08-08T05:04:28Z</time>
      </trkpt>
      <trkpt lat="50.17893" lon="3.76054">
        <ele>165</ele>
        <time>2021-08-08T05:04:38Z</time>
      </trkpt>
      <trkpt lat="50.17891" lon="3.76063">
        <ele>165.48</ele>
        <time>2021-08-08T05:04:39Z</time>
      </trkpt>
      <trkpt lat="50.17889" lon="3.76073">
        <ele>164.52</ele>
        <time>2021-08-08T05:04:40Z</time>
      </trkpt>
      <trkpt lat="50.17874" lon="3.76149">
        <ele>163.56</ele>
        <time>2021-08-08T05:04:48Z</time>
      </trkpt>
      <trkpt lat="50.17856" lon="3.76227">
        <ele>163.08</ele>
        <time>2021-08-08T05:04:56Z</time>
      </trkpt>
      <trkpt lat="50.17841" lon="3.76292">
        <ele>163.08</ele>
        <time>2021-08-08T05:05:03Z</time>
      </trkpt>
      <trkpt lat="50.17822" lon="3.76373">
        <ele>163.08</ele>
        <time>2021-08-08T05:05:12Z</time>
      </trkpt>
      <trkpt lat="50.17806" lon="3.76433">
        <ele>164.52</ele>
        <time>2021-08-08T05:05:19Z</time>
      </trkpt>
      <trkpt lat="50.17799" lon="3.76461">
        <ele>165.48</ele>
        <time>2021-08-08T05:05:23Z</time>
      </trkpt>
      <trkpt lat="50.17797" lon="3.76468">
        <ele>165.48</ele>
        <time>2021-08-08T05:05:24Z</time>
      </trkpt>
      <trkpt lat="50.1779" lon="3.76494">
        <ele>166.45</ele>
        <time>2021-08-08T05:05:28Z</time>
      </trkpt>
      <trkpt lat="50.17789" lon="3.765">
        <ele>166.45</ele>
        <time>2021-08-08T05:05:29Z</time>
      </trkpt>
      <trkpt lat="50.17787" lon="3.76507">
        <ele>166.45</ele>
        <time>2021-08-08T05:05:30Z</time>
      </trkpt>
      <trkpt lat="50.17786" lon="3.76514">
        <ele>166.45</ele>
        <time>2021-08-08T05:05:31Z</time>
      </trkpt>
      <trkpt lat="50.17785" lon="3.76521">
        <ele>166.45</ele>
        <time>2021-08-08T05:05:32Z</time>
      </trkpt>
      <trkpt lat="50.17783" lon="3.76528">
        <ele>166.45</ele>
        <time>2021-08-08T05:05:33Z</time>
      </trkpt>
      <trkpt lat="50.17772" lon="3.7657">
        <ele>165</ele>
        <time>2021-08-08T05:05:38Z</time>
      </trkpt>
      <trkpt lat="50.17752" lon="3.76651">
        <ele>162.12</ele>
        <time>2021-08-08T05:05:46Z</time>
      </trkpt>
      <trkpt lat="50.17729" lon="3.76739">
        <ele>162.12</ele>
        <time>2021-08-08T05:05:55Z</time>
      </trkpt>
      <trkpt lat="50.17719" lon="3.76781">
        <ele>163.56</ele>
        <time>2021-08-08T05:06:00Z</time>
      </trkpt>
      <trkpt lat="50.17701" lon="3.76853">
        <ele>164.52</ele>
        <time>2021-08-08T05:06:09Z</time>
      </trkpt>
      <trkpt lat="50.17686" lon="3.76915">
        <ele>165</ele>
        <time>2021-08-08T05:06:17Z</time>
      </trkpt>
      <trkpt lat="50.17672" lon="3.76968">
        <ele>163.56</ele>
        <time>2021-08-08T05:06:23Z</time>
      </trkpt>
      <trkpt lat="50.17647" lon="3.77067">
        <ele>161.64</ele>
        <time>2021-08-08T05:06:33Z</time>
      </trkpt>
      <trkpt lat="50.17624" lon="3.77167">
        <ele>160.2</ele>
        <time>2021-08-08T05:06:43Z</time>
      </trkpt>
      <trkpt lat="50.17598" lon="3.77272">
        <ele>158.75</ele>
        <time>2021-08-08T05:06:53Z</time>
      </trkpt>
      <trkpt lat="50.17578" lon="3.77356">
        <ele>158.27</ele>
        <time>2021-08-08T05:07:02Z</time>
      </trkpt>
      <trkpt lat="50.17561" lon="3.77428">
        <ele>157.79</ele>
        <time>2021-08-08T05:07:10Z</time>
      </trkpt>
      <trkpt lat="50.17545" lon="3.77495">
        <ele>157.31</ele>
        <time>2021-08-08T05:07:17Z</time>
      </trkpt>
      <trkpt lat="50.17521" lon="3.77596">
        <ele>154.91</ele>
        <time>2021-08-08T05:07:27Z</time>
      </trkpt>
      <trkpt lat="50.17494" lon="3.77702">
        <ele>153.47</ele>
        <time>2021-08-08T05:07:37Z</time>
      </trkpt>
      <trkpt lat="50.17472" lon="3.77792">
        <ele>152.03</ele>
        <time>2021-08-08T05:07:46Z</time>
      </trkpt>
      <trkpt lat="50.17448" lon="3.77887">
        <ele>150.58</ele>
        <time>2021-08-08T05:07:55Z</time>
      </trkpt>
      <trkpt lat="50.17435" lon="3.77941">
        <ele>149.14</ele>
        <time>2021-08-08T05:08:00Z</time>
      </trkpt>
      <trkpt lat="50.1741" lon="3.7805">
        <ele>148.18</ele>
        <time>2021-08-08T05:08:10Z</time>
      </trkpt>
      <trkpt lat="50.17384" lon="3.7815">
        <ele>144.82</ele>
        <time>2021-08-08T05:08:19Z</time>
      </trkpt>
      <trkpt lat="50.17378" lon="3.78172">
        <ele>144.34</ele>
        <time>2021-08-08T05:08:21Z</time>
      </trkpt>
      <trkpt lat="50.17366" lon="3.78218">
        <ele>145.78</ele>
        <time>2021-08-08T05:08:25Z</time>
      </trkpt>
      <trkpt lat="50.17344" lon="3.78302">
        <ele>142.89</ele>
        <time>2021-08-08T05:08:32Z</time>
      </trkpt>
      <trkpt lat="50.17334" lon="3.78354">
        <ele>140.01</ele>
        <time>2021-08-08T05:08:36Z</time>
      </trkpt>
      <trkpt lat="50.17333" lon="3.78371">
        <ele>140.01</ele>
        <time>2021-08-08T05:08:37Z</time>
      </trkpt>
      <trkpt lat="50.17334" lon="3.78383">
        <ele>140.01</ele>
        <time>2021-08-08T05:08:38Z</time>
      </trkpt>
      <trkpt lat="50.17336" lon="3.78398">
        <ele>140.01</ele>
        <time>2021-08-08T05:08:39Z</time>
      </trkpt>
      <trkpt lat="50.17339" lon="3.78412">
        <ele>140.01</ele>
        <time>2021-08-08T05:08:40Z</time>
      </trkpt>
      <trkpt lat="50.17341" lon="3.78423">
        <ele>140.01</ele>
        <time>2021-08-08T05:08:41Z</time>
      </trkpt>
      <trkpt lat="50.17359" lon="3.78503">
        <ele>140.01</ele>
        <time>2021-08-08T05:08:48Z</time>
      </trkpt>
      <trkpt lat="50.17371" lon="3.78549">
        <ele>142.89</ele>
        <time>2021-08-08T05:08:54Z</time>
      </trkpt>
      <trkpt lat="50.17375" lon="3.78562">
        <ele>142.89</ele>
        <time>2021-08-08T05:08:56Z</time>
      </trkpt>
      <trkpt lat="50.17377" lon="3.78568">
        <ele>142.89</ele>
        <time>2021-08-08T05:08:57Z</time>
      </trkpt>
      <trkpt lat="50.17379" lon="3.78575">
        <ele>142.89</ele>
        <time>2021-08-08T05:08:58Z</time>
      </trkpt>
      <trkpt lat="50.17387" lon="3.78603">
        <ele>143.37</ele>
        <time>2021-08-08T05:09:02Z</time>
      </trkpt>
      <trkpt lat="50.17391" lon="3.7861">
        <ele>143.37</ele>
        <time>2021-08-08T05:09:03Z</time>
      </trkpt>
      <trkpt lat="50.17402" lon="3.78637">
        <ele>144.34</ele>
        <time>2021-08-08T05:09:08Z</time>
      </trkpt>
      <trkpt lat="50.17406" lon="3.78647">
        <ele>144.34</ele>
        <time>2021-08-08T05:09:11Z</time>
      </trkpt>
      <trkpt lat="50.17405" lon="3.78651">
        <ele>144.82</ele>
        <time>2021-08-08T05:09:12Z</time>
      </trkpt>
      <trkpt lat="50.17403" lon="3.78653">
        <ele>144.82</ele>
        <time>2021-08-08T05:09:13Z</time>
      </trkpt>
      <trkpt lat="50.17401" lon="3.78653">
        <ele>144.82</ele>
        <time>2021-08-08T05:09:14Z</time>
      </trkpt>
      <trkpt lat="50.17399" lon="3.78651">
        <ele>144.82</ele>
        <time>2021-08-08T05:09:15Z</time>
      </trkpt>
      <trkpt lat="50.17396" lon="3.78648">
        <ele>144.82</ele>
        <time>2021-08-08T05:09:16Z</time>
      </trkpt>
      <trkpt lat="50.17371" lon="3.78623">
        <ele>144.82</ele>
        <time>2021-08-08T05:09:22Z</time>
      </trkpt>
      <trkpt lat="50.17363" lon="3.78615">
        <ele>143.85</ele>
        <time>2021-08-08T05:09:24Z</time>
      </trkpt>
      <trkpt lat="50.17339" lon="3.78596">
        <ele>143.37</ele>
        <time>2021-08-08T05:09:31Z</time>
      </trkpt>
      <trkpt lat="50.1731" lon="3.78594">
        <ele>140.49</ele>
        <time>2021-08-08T05:09:36Z</time>
      </trkpt>
      <trkpt lat="50.17262" lon="3.78589">
        <ele>139.05</ele>
        <time>2021-08-08T05:09:43Z</time>
      </trkpt>
      <trkpt lat="50.17257" lon="3.7859">
        <ele>139.05</ele>
        <time>2021-08-08T05:09:44Z</time>
      </trkpt>
      <trkpt lat="50.17254" lon="3.78593">
        <ele>139.05</ele>
        <time>2021-08-08T05:09:45Z</time>
      </trkpt>
      <trkpt lat="50.17253" lon="3.78599">
        <ele>139.05</ele>
        <time>2021-08-08T05:09:46Z</time>
      </trkpt>
      <trkpt lat="50.17252" lon="3.78604">
        <ele>139.05</ele>
        <time>2021-08-08T05:09:47Z</time>
      </trkpt>
      <trkpt lat="50.17252" lon="3.78609">
        <ele>139.05</ele>
        <time>2021-08-08T05:09:48Z</time>
      </trkpt>
      <trkpt lat="50.17251" lon="3.78614">
        <ele>139.05</ele>
        <time>2021-08-08T05:09:49Z</time>
      </trkpt>
      <trkpt lat="50.17249" lon="3.78632">
        <ele>139.05</ele>
        <time>2021-08-08T05:09:52Z</time>
      </trkpt>
      <trkpt lat="50.17248" lon="3.78667">
        <ele>139.05</ele>
        <time>2021-08-08T05:09:59Z</time>
      </trkpt>
      <trkpt lat="50.17248" lon="3.7867">
        <ele>139.05</ele>
        <time>2021-08-08T05:10:04Z</time>
      </trkpt>
      <trkpt lat="50.17246" lon="3.78672">
        <ele>140.49</ele>
        <time>2021-08-08T05:10:07Z</time>
      </trkpt>
      <trkpt lat="50.17246" lon="3.78677">
        <ele>140.49</ele>
        <time>2021-08-08T05:10:15Z</time>
      </trkpt>
      <trkpt lat="50.17246" lon="3.78679">
        <ele>140.49</ele>
        <time>2021-08-08T05:10:23Z</time>
      </trkpt>
      <trkpt lat="50.17245" lon="3.7868">
        <ele>140.97</ele>
        <time>2021-08-08T05:10:30Z</time>
      </trkpt>
      <trkpt lat="50.17241" lon="3.7868">
        <ele>141.45</ele>
        <time>2021-08-08T05:10:38Z</time>
      </trkpt>
      <trkpt lat="50.17237" lon="3.78681">
        <ele>142.41</ele>
        <time>2021-08-08T05:10:48Z</time>
      </trkpt>
      <trkpt lat="50.17236" lon="3.78681">
        <ele>140.97</ele>
        <time>2021-08-08T05:10:50Z</time>
      </trkpt>
      <trkpt lat="50.17233" lon="3.78675">
        <ele>140.01</ele>
        <time>2021-08-08T05:10:57Z</time>
      </trkpt>
      <trkpt lat="50.17233" lon="3.78674">
        <ele>139.53</ele>
        <time>2021-08-08T05:11:00Z</time>
      </trkpt>
      <trkpt lat="50.17232" lon="3.78672">
        <ele>139.53</ele>
        <time>2021-08-08T05:11:01Z</time>
      </trkpt>
      <trkpt lat="50.1723" lon="3.78656">
        <ele>139.05</ele>
        <time>2021-08-08T05:11:08Z</time>
      </trkpt>
      <trkpt lat="50.1723" lon="3.78648">
        <ele>139.05</ele>
        <time>2021-08-08T05:11:11Z</time>
      </trkpt>
      <trkpt lat="50.1723" lon="3.78646">
        <ele>139.05</ele>
        <time>2021-08-08T05:11:12Z</time>
      </trkpt>
      <trkpt lat="50.1723" lon="3.78639">
        <ele>139.05</ele>
        <time>2021-08-08T05:11:14Z</time>
      </trkpt>
      <trkpt lat="50.1723" lon="3.78635">
        <ele>139.05</ele>
        <time>2021-08-08T05:11:15Z</time>
      </trkpt>
      <trkpt lat="50.17229" lon="3.78596">
        <ele>138.57</ele>
        <time>2021-08-08T05:11:23Z</time>
      </trkpt>
      <trkpt lat="50.17229" lon="3.78572">
        <ele>140.01</ele>
        <time>2021-08-08T05:11:28Z</time>
      </trkpt>
      <trkpt lat="50.17225" lon="3.78541">
        <ele>140.49</ele>
        <time>2021-08-08T05:11:35Z</time>
      </trkpt>
      <trkpt lat="50.17218" lon="3.78501">
        <ele>140.49</ele>
        <time>2021-08-08T05:11:42Z</time>
      </trkpt>
      <trkpt lat="50.17227" lon="3.78466">
        <ele>140.49</ele>
        <time>2021-08-08T05:11:48Z</time>
      </trkpt>
      <trkpt lat="50.17228" lon="3.78459">
        <ele>139.05</ele>
        <time>2021-08-08T05:11:49Z</time>
      </trkpt>
      <trkpt lat="50.17228" lon="3.78452">
        <ele>139.05</ele>
        <time>2021-08-08T05:11:50Z</time>
      </trkpt>
      <trkpt lat="50.17228" lon="3.78445">
        <ele>139.05</ele>
        <time>2021-08-08T05:11:51Z</time>
      </trkpt>
      <trkpt lat="50.17223" lon="3.78395">
        <ele>139.05</ele>
        <time>2021-08-08T05:11:59Z</time>
      </trkpt>
      <trkpt lat="50.17214" lon="3.7835">
        <ele>138.57</ele>
        <time>2021-08-08T05:12:07Z</time>
      </trkpt>
      <trkpt lat="50.17202" lon="3.78304">
        <ele>138.57</ele>
        <time>2021-08-08T05:12:15Z</time>
      </trkpt>
      <trkpt lat="50.17192" lon="3.78258">
        <ele>138.57</ele>
        <time>2021-08-08T05:12:23Z</time>
      </trkpt>
      <trkpt lat="50.17182" lon="3.78211">
        <ele>138.57</ele>
        <time>2021-08-08T05:12:31Z</time>
      </trkpt>
      <trkpt lat="50.17165" lon="3.78141">
        <ele>138.57</ele>
        <time>2021-08-08T05:12:42Z</time>
      </trkpt>
      <trkpt lat="50.17151" lon="3.78085">
        <ele>138.57</ele>
        <time>2021-08-08T05:12:51Z</time>
      </trkpt>
      <trkpt lat="50.17134" lon="3.78018">
        <ele>138.09</ele>
        <time>2021-08-08T05:13:02Z</time>
      </trkpt>
      <trkpt lat="50.17121" lon="3.7798">
        <ele>138.09</ele>
        <time>2021-08-08T05:13:10Z</time>
      </trkpt>
      <trkpt lat="50.17113" lon="3.77947">
        <ele>138.09</ele>
        <time>2021-08-08T05:13:17Z</time>
      </trkpt>
      <trkpt lat="50.17104" lon="3.77921">
        <ele>138.09</ele>
        <time>2021-08-08T05:13:23Z</time>
      </trkpt>
      <trkpt lat="50.17095" lon="3.7789">
        <ele>138.09</ele>
        <time>2021-08-08T05:13:29Z</time>
      </trkpt>
      <trkpt lat="50.17081" lon="3.77842">
        <ele>138.09</ele>
        <time>2021-08-08T05:13:38Z</time>
      </trkpt>
      <trkpt lat="50.1707" lon="3.77809">
        <ele>138.09</ele>
        <time>2021-08-08T05:13:45Z</time>
      </trkpt>
      <trkpt lat="50.17065" lon="3.77791">
        <ele>138.09</ele>
        <time>2021-08-08T05:13:51Z</time>
      </trkpt>
      <trkpt lat="50.17058" lon="3.77772">
        <ele>138.09</ele>
        <time>2021-08-08T05:13:58Z</time>
      </trkpt>
      <trkpt lat="50.17049" lon="3.77746">
        <ele>138.09</ele>
        <time>2021-08-08T05:14:04Z</time>
      </trkpt>
      <trkpt lat="50.17033" lon="3.777">
        <ele>138.09</ele>
        <time>2021-08-08T05:14:13Z</time>
      </trkpt>
      <trkpt lat="50.17017" lon="3.77662">
        <ele>138.09</ele>
        <time>2021-08-08T05:14:21Z</time>
      </trkpt>
      <trkpt lat="50.17" lon="3.77628">
        <ele>138.09</ele>
        <time>2021-08-08T05:14:29Z</time>
      </trkpt>
      <trkpt lat="50.16977" lon="3.77594">
        <ele>138.09</ele>
        <time>2021-08-08T05:14:37Z</time>
      </trkpt>
      <trkpt lat="50.16954" lon="3.77569">
        <ele>138.09</ele>
        <time>2021-08-08T05:14:44Z</time>
      </trkpt>
      <trkpt lat="50.16926" lon="3.77543">
        <ele>138.09</ele>
        <time>2021-08-08T05:14:52Z</time>
      </trkpt>
      <trkpt lat="50.16891" lon="3.77521">
        <ele>138.09</ele>
        <time>2021-08-08T05:15:01Z</time>
      </trkpt>
      <trkpt lat="50.16887" lon="3.77519">
        <ele>138.09</ele>
        <time>2021-08-08T05:15:02Z</time>
      </trkpt>
      <trkpt lat="50.16883" lon="3.77518">
        <ele>138.09</ele>
        <time>2021-08-08T05:15:03Z</time>
      </trkpt>
      <trkpt lat="50.16845" lon="3.77503">
        <ele>138.09</ele>
        <time>2021-08-08T05:15:13Z</time>
      </trkpt>
      <trkpt lat="50.16815" lon="3.77497">
        <ele>138.09</ele>
        <time>2021-08-08T05:15:21Z</time>
      </trkpt>
      <trkpt lat="50.1681" lon="3.77497">
        <ele>138.09</ele>
        <time>2021-08-08T05:15:22Z</time>
      </trkpt>
      <trkpt lat="50.16781" lon="3.77499">
        <ele>138.09</ele>
        <time>2021-08-08T05:15:29Z</time>
      </trkpt>
      <trkpt lat="50.16749" lon="3.77508">
        <ele>138.09</ele>
        <time>2021-08-08T05:15:37Z</time>
      </trkpt>
      <trkpt lat="50.16718" lon="3.77521">
        <ele>138.09</ele>
        <time>2021-08-08T05:15:45Z</time>
      </trkpt>
      <trkpt lat="50.16683" lon="3.77533">
        <ele>138.09</ele>
        <time>2021-08-08T05:15:54Z</time>
      </trkpt>
      <trkpt lat="50.16667" lon="3.7754">
        <ele>138.09</ele>
        <time>2021-08-08T05:15:58Z</time>
      </trkpt>
      <trkpt lat="50.16662" lon="3.77542">
        <ele>138.09</ele>
        <time>2021-08-08T05:15:59Z</time>
      </trkpt>
      <trkpt lat="50.16632" lon="3.77554">
        <ele>138.09</ele>
        <time>2021-08-08T05:16:07Z</time>
      </trkpt>
      <trkpt lat="50.1661" lon="3.77562">
        <ele>139.05</ele>
        <time>2021-08-08T05:16:13Z</time>
      </trkpt>
      <trkpt lat="50.16607" lon="3.77563">
        <ele>139.05</ele>
        <time>2021-08-08T05:16:14Z</time>
      </trkpt>
      <trkpt lat="50.16564" lon="3.77579">
        <ele>139.05</ele>
        <time>2021-08-08T05:16:25Z</time>
      </trkpt>
      <trkpt lat="50.16524" lon="3.77593">
        <ele>139.05</ele>
        <time>2021-08-08T05:16:35Z</time>
      </trkpt>
      <trkpt lat="50.16501" lon="3.77601">
        <ele>137.61</ele>
        <time>2021-08-08T05:16:41Z</time>
      </trkpt>
      <trkpt lat="50.1647" lon="3.77615">
        <ele>137.61</ele>
        <time>2021-08-08T05:16:49Z</time>
      </trkpt>
      <trkpt lat="50.16434" lon="3.77627">
        <ele>139.05</ele>
        <time>2021-08-08T05:16:58Z</time>
      </trkpt>
      <trkpt lat="50.16398" lon="3.77629">
        <ele>139.05</ele>
        <time>2021-08-08T05:17:06Z</time>
      </trkpt>
      <trkpt lat="50.16382" lon="3.7763">
        <ele>138.57</ele>
        <time>2021-08-08T05:17:10Z</time>
      </trkpt>
      <trkpt lat="50.16355" lon="3.7763">
        <ele>138.57</ele>
        <time>2021-08-08T05:17:17Z</time>
      </trkpt>
      <trkpt lat="50.16327" lon="3.77626">
        <ele>138.57</ele>
        <time>2021-08-08T05:17:24Z</time>
      </trkpt>
      <trkpt lat="50.16295" lon="3.77621">
        <ele>138.57</ele>
        <time>2021-08-08T05:17:32Z</time>
      </trkpt>
      <trkpt lat="50.1629" lon="3.7762">
        <ele>138.57</ele>
        <time>2021-08-08T05:17:33Z</time>
      </trkpt>
      <trkpt lat="50.1626" lon="3.7761">
        <ele>138.57</ele>
        <time>2021-08-08T05:17:41Z</time>
      </trkpt>
      <trkpt lat="50.16232" lon="3.77595">
        <ele>138.57</ele>
        <time>2021-08-08T05:17:48Z</time>
      </trkpt>
      <trkpt lat="50.16201" lon="3.77577">
        <ele>138.57</ele>
        <time>2021-08-08T05:17:56Z</time>
      </trkpt>
      <trkpt lat="50.16185" lon="3.77565">
        <ele>138.57</ele>
        <time>2021-08-08T05:18:00Z</time>
      </trkpt>
      <trkpt lat="50.1615" lon="3.77538">
        <ele>139.05</ele>
        <time>2021-08-08T05:18:10Z</time>
      </trkpt>
      <trkpt lat="50.16122" lon="3.77512">
        <ele>139.05</ele>
        <time>2021-08-08T05:18:18Z</time>
      </trkpt>
      <trkpt lat="50.16091" lon="3.77477">
        <ele>139.05</ele>
        <time>2021-08-08T05:18:26Z</time>
      </trkpt>
      <trkpt lat="50.16061" lon="3.77438">
        <ele>139.05</ele>
        <time>2021-08-08T05:18:34Z</time>
      </trkpt>
      <trkpt lat="50.1603" lon="3.77387">
        <ele>139.05</ele>
        <time>2021-08-08T05:18:44Z</time>
      </trkpt>
      <trkpt lat="50.16002" lon="3.77337">
        <ele>139.05</ele>
        <time>2021-08-08T05:18:53Z</time>
      </trkpt>
      <trkpt lat="50.15983" lon="3.77294">
        <ele>137.61</ele>
        <time>2021-08-08T05:19:00Z</time>
      </trkpt>
      <trkpt lat="50.15964" lon="3.77243">
        <ele>137.61</ele>
        <time>2021-08-08T05:19:08Z</time>
      </trkpt>
      <trkpt lat="50.15955" lon="3.77218">
        <ele>137.61</ele>
        <time>2021-08-08T05:19:12Z</time>
      </trkpt>
      <trkpt lat="50.15938" lon="3.77153">
        <ele>137.61</ele>
        <time>2021-08-08T05:19:22Z</time>
      </trkpt>
      <trkpt lat="50.15922" lon="3.77083">
        <ele>137.61</ele>
        <time>2021-08-08T05:19:32Z</time>
      </trkpt>
      <trkpt lat="50.15907" lon="3.77032">
        <ele>137.61</ele>
        <time>2021-08-08T05:19:40Z</time>
      </trkpt>
      <trkpt lat="50.15886" lon="3.76973">
        <ele>137.61</ele>
        <time>2021-08-08T05:19:49Z</time>
      </trkpt>
      <trkpt lat="50.15865" lon="3.76924">
        <ele>137.61</ele>
        <time>2021-08-08T05:19:57Z</time>
      </trkpt>
      <trkpt lat="50.15861" lon="3.76912">
        <ele>137.61</ele>
        <time>2021-08-08T05:19:59Z</time>
      </trkpt>
      <trkpt lat="50.15836" lon="3.76854">
        <ele>137.13</ele>
        <time>2021-08-08T05:20:08Z</time>
      </trkpt>
      <trkpt lat="50.15834" lon="3.76848">
        <ele>137.13</ele>
        <time>2021-08-08T05:20:09Z</time>
      </trkpt>
      <trkpt lat="50.15808" lon="3.76788">
        <ele>137.13</ele>
        <time>2021-08-08T05:20:19Z</time>
      </trkpt>
      <trkpt lat="50.15781" lon="3.76729">
        <ele>137.13</ele>
        <time>2021-08-08T05:20:29Z</time>
      </trkpt>
      <trkpt lat="50.15752" lon="3.76679">
        <ele>137.13</ele>
        <time>2021-08-08T05:20:38Z</time>
      </trkpt>
      <trkpt lat="50.15725" lon="3.7664">
        <ele>137.13</ele>
        <time>2021-08-08T05:20:46Z</time>
      </trkpt>
      <trkpt lat="50.15699" lon="3.76604">
        <ele>137.13</ele>
        <time>2021-08-08T05:20:54Z</time>
      </trkpt>
      <trkpt lat="50.15672" lon="3.76561">
        <ele>137.13</ele>
        <time>2021-08-08T05:21:03Z</time>
      </trkpt>
      <trkpt lat="50.15645" lon="3.76507">
        <ele>137.13</ele>
        <time>2021-08-08T05:21:13Z</time>
      </trkpt>
      <trkpt lat="50.15615" lon="3.76437">
        <ele>136.64</ele>
        <time>2021-08-08T05:21:25Z</time>
      </trkpt>
      <trkpt lat="50.15601" lon="3.76402">
        <ele>136.64</ele>
        <time>2021-08-08T05:21:32Z</time>
      </trkpt>
      <trkpt lat="50.1558" lon="3.76348">
        <ele>136.64</ele>
        <time>2021-08-08T05:21:41Z</time>
      </trkpt>
      <trkpt lat="50.1556" lon="3.76296">
        <ele>136.64</ele>
        <time>2021-08-08T05:21:49Z</time>
      </trkpt>
      <trkpt lat="50.15555" lon="3.76267">
        <ele>136.64</ele>
        <time>2021-08-08T05:21:53Z</time>
      </trkpt>
      <trkpt lat="50.15545" lon="3.76212">
        <ele>138.57</ele>
        <time>2021-08-08T05:22:01Z</time>
      </trkpt>
      <trkpt lat="50.15544" lon="3.76177">
        <ele>139.05</ele>
        <time>2021-08-08T05:22:08Z</time>
      </trkpt>
      <trkpt lat="50.15543" lon="3.76143">
        <ele>139.05</ele>
        <time>2021-08-08T05:22:15Z</time>
      </trkpt>
      <trkpt lat="50.15541" lon="3.76122">
        <ele>138.57</ele>
        <time>2021-08-08T05:22:21Z</time>
      </trkpt>
      <trkpt lat="50.15533" lon="3.76097">
        <ele>138.57</ele>
        <time>2021-08-08T05:22:28Z</time>
      </trkpt>
      <trkpt lat="50.15522" lon="3.76048">
        <ele>138.57</ele>
        <time>2021-08-08T05:22:36Z</time>
      </trkpt>
      <trkpt lat="50.15512" lon="3.75972">
        <ele>139.53</ele>
        <time>2021-08-08T05:22:47Z</time>
      </trkpt>
      <trkpt lat="50.15508" lon="3.75944">
        <ele>138.09</ele>
        <time>2021-08-08T05:22:51Z</time>
      </trkpt>
      <trkpt lat="50.15502" lon="3.75907">
        <ele>138.09</ele>
        <time>2021-08-08T05:22:56Z</time>
      </trkpt>
      <trkpt lat="50.15484" lon="3.75855">
        <ele>138.09</ele>
        <time>2021-08-08T05:23:04Z</time>
      </trkpt>
      <trkpt lat="50.15482" lon="3.75849">
        <ele>138.09</ele>
        <time>2021-08-08T05:23:05Z</time>
      </trkpt>
      <trkpt lat="50.15481" lon="3.75842">
        <ele>138.09</ele>
        <time>2021-08-08T05:23:06Z</time>
      </trkpt>
      <trkpt lat="50.1548" lon="3.75834">
        <ele>138.09</ele>
        <time>2021-08-08T05:23:07Z</time>
      </trkpt>
      <trkpt lat="50.15479" lon="3.75827">
        <ele>138.09</ele>
        <time>2021-08-08T05:23:08Z</time>
      </trkpt>
      <trkpt lat="50.15479" lon="3.75819">
        <ele>138.09</ele>
        <time>2021-08-08T05:23:09Z</time>
      </trkpt>
      <trkpt lat="50.1548" lon="3.75812">
        <ele>138.09</ele>
        <time>2021-08-08T05:23:10Z</time>
      </trkpt>
      <trkpt lat="50.15481" lon="3.75804">
        <ele>138.09</ele>
        <time>2021-08-08T05:23:11Z</time>
      </trkpt>
      <trkpt lat="50.15483" lon="3.75797">
        <ele>138.09</ele>
        <time>2021-08-08T05:23:12Z</time>
      </trkpt>
      <trkpt lat="50.15486" lon="3.75791">
        <ele>138.09</ele>
        <time>2021-08-08T05:23:13Z</time>
      </trkpt>
      <trkpt lat="50.15489" lon="3.75784">
        <ele>138.09</ele>
        <time>2021-08-08T05:23:14Z</time>
      </trkpt>
      <trkpt lat="50.15492" lon="3.75778">
        <ele>138.09</ele>
        <time>2021-08-08T05:23:15Z</time>
      </trkpt>
      <trkpt lat="50.15501" lon="3.7576">
        <ele>138.09</ele>
        <time>2021-08-08T05:23:18Z</time>
      </trkpt>
      <trkpt lat="50.15502" lon="3.75753">
        <ele>138.09</ele>
        <time>2021-08-08T05:23:19Z</time>
      </trkpt>
      <trkpt lat="50.15503" lon="3.75746">
        <ele>138.09</ele>
        <time>2021-08-08T05:23:20Z</time>
      </trkpt>
      <trkpt lat="50.15508" lon="3.75676">
        <ele>137.61</ele>
        <time>2021-08-08T05:23:29Z</time>
      </trkpt>
      <trkpt lat="50.15514" lon="3.75608">
        <ele>137.13</ele>
        <time>2021-08-08T05:23:38Z</time>
      </trkpt>
      <trkpt lat="50.1552" lon="3.75533">
        <ele>137.13</ele>
        <time>2021-08-08T05:23:48Z</time>
      </trkpt>
      <trkpt lat="50.15525" lon="3.75464">
        <ele>137.13</ele>
        <time>2021-08-08T05:23:58Z</time>
      </trkpt>
      <trkpt lat="50.15526" lon="3.75457">
        <ele>137.13</ele>
        <time>2021-08-08T05:23:59Z</time>
      </trkpt>
      <trkpt lat="50.15526" lon="3.75442">
        <ele>137.13</ele>
        <time>2021-08-08T05:24:01Z</time>
      </trkpt>
      <trkpt lat="50.15526" lon="3.75437">
        <ele>137.13</ele>
        <time>2021-08-08T05:24:02Z</time>
      </trkpt>
      <trkpt lat="50.15528" lon="3.75408">
        <ele>137.13</ele>
        <time>2021-08-08T05:24:06Z</time>
      </trkpt>
      <trkpt lat="50.15534" lon="3.75353">
        <ele>137.13</ele>
        <time>2021-08-08T05:24:14Z</time>
      </trkpt>
      <trkpt lat="50.15536" lon="3.75332">
        <ele>137.13</ele>
        <time>2021-08-08T05:24:17Z</time>
      </trkpt>
      <trkpt lat="50.15542" lon="3.75255">
        <ele>137.13</ele>
        <time>2021-08-08T05:24:28Z</time>
      </trkpt>
      <trkpt lat="50.15548" lon="3.7519">
        <ele>137.13</ele>
        <time>2021-08-08T05:24:37Z</time>
      </trkpt>
      <trkpt lat="50.15551" lon="3.75133">
        <ele>137.13</ele>
        <time>2021-08-08T05:24:45Z</time>
      </trkpt>
      <trkpt lat="50.15556" lon="3.75062">
        <ele>137.13</ele>
        <time>2021-08-08T05:24:55Z</time>
      </trkpt>
      <trkpt lat="50.15562" lon="3.74981">
        <ele>137.13</ele>
        <time>2021-08-08T05:25:06Z</time>
      </trkpt>
      <trkpt lat="50.15568" lon="3.74912">
        <ele>137.13</ele>
        <time>2021-08-08T05:25:15Z</time>
      </trkpt>
      <trkpt lat="50.15576" lon="3.7483">
        <ele>137.13</ele>
        <time>2021-08-08T05:25:26Z</time>
      </trkpt>
      <trkpt lat="50.15581" lon="3.74755">
        <ele>136.16</ele>
        <time>2021-08-08T05:25:36Z</time>
      </trkpt>
      <trkpt lat="50.15586" lon="3.74689">
        <ele>136.16</ele>
        <time>2021-08-08T05:25:45Z</time>
      </trkpt>
      <trkpt lat="50.15593" lon="3.74603">
        <ele>136.16</ele>
        <time>2021-08-08T05:25:57Z</time>
      </trkpt>
      <trkpt lat="50.15599" lon="3.74533">
        <ele>136.16</ele>
        <time>2021-08-08T05:26:07Z</time>
      </trkpt>
      <trkpt lat="50.15606" lon="3.74459">
        <ele>137.61</ele>
        <time>2021-08-08T05:26:17Z</time>
      </trkpt>
      <trkpt lat="50.15608" lon="3.74444">
        <ele>137.61</ele>
        <time>2021-08-08T05:26:19Z</time>
      </trkpt>
      <trkpt lat="50.15613" lon="3.74392">
        <ele>137.61</ele>
        <time>2021-08-08T05:26:27Z</time>
      </trkpt>
      <trkpt lat="50.15613" lon="3.74365">
        <ele>140.01</ele>
        <time>2021-08-08T05:26:34Z</time>
      </trkpt>
      <trkpt lat="50.15611" lon="3.74363">
        <ele>140.01</ele>
        <time>2021-08-08T05:26:35Z</time>
      </trkpt>
      <trkpt lat="50.15609" lon="3.74363">
        <ele>140.01</ele>
        <time>2021-08-08T05:26:36Z</time>
      </trkpt>
      <trkpt lat="50.15607" lon="3.74363">
        <ele>140.01</ele>
        <time>2021-08-08T05:26:37Z</time>
      </trkpt>
      <trkpt lat="50.15594" lon="3.74369">
        <ele>140.01</ele>
        <time>2021-08-08T05:26:41Z</time>
      </trkpt>
      <trkpt lat="50.15582" lon="3.74376">
        <ele>140.01</ele>
        <time>2021-08-08T05:26:44Z</time>
      </trkpt>
      <trkpt lat="50.15568" lon="3.74386">
        <ele>139.53</ele>
        <time>2021-08-08T05:26:47Z</time>
      </trkpt>
      <trkpt lat="50.15563" lon="3.7439">
        <ele>138.57</ele>
        <time>2021-08-08T05:26:48Z</time>
      </trkpt>
      <trkpt lat="50.15559" lon="3.74394">
        <ele>138.57</ele>
        <time>2021-08-08T05:26:49Z</time>
      </trkpt>
      <trkpt lat="50.15533" lon="3.74421">
        <ele>137.13</ele>
        <time>2021-08-08T05:26:55Z</time>
      </trkpt>
      <trkpt lat="50.15524" lon="3.74431">
        <ele>137.13</ele>
        <time>2021-08-08T05:26:57Z</time>
      </trkpt>
      <trkpt lat="50.1552" lon="3.74435">
        <ele>137.13</ele>
        <time>2021-08-08T05:26:58Z</time>
      </trkpt>
      <trkpt lat="50.15515" lon="3.74437">
        <ele>136.16</ele>
        <time>2021-08-08T05:26:59Z</time>
      </trkpt>
      <trkpt lat="50.15509" lon="3.74438">
        <ele>136.16</ele>
        <time>2021-08-08T05:27:00Z</time>
      </trkpt>
      <trkpt lat="50.15504" lon="3.74438">
        <ele>136.16</ele>
        <time>2021-08-08T05:27:01Z</time>
      </trkpt>
      <trkpt lat="50.15499" lon="3.74437">
        <ele>136.16</ele>
        <time>2021-08-08T05:27:02Z</time>
      </trkpt>
      <trkpt lat="50.15493" lon="3.74437">
        <ele>136.16</ele>
        <time>2021-08-08T05:27:03Z</time>
      </trkpt>
      <trkpt lat="50.1545" lon="3.74427">
        <ele>135.2</ele>
        <time>2021-08-08T05:27:11Z</time>
      </trkpt>
      <trkpt lat="50.1543" lon="3.7442">
        <ele>134.72</ele>
        <time>2021-08-08T05:27:15Z</time>
      </trkpt>
      <trkpt lat="50.15376" lon="3.74396">
        <ele>135.68</ele>
        <time>2021-08-08T05:27:26Z</time>
      </trkpt>
      <trkpt lat="50.15347" lon="3.74388">
        <ele>135.68</ele>
        <time>2021-08-08T05:27:32Z</time>
      </trkpt>
      <trkpt lat="50.15341" lon="3.74389">
        <ele>135.68</ele>
        <time>2021-08-08T05:27:33Z</time>
      </trkpt>
      <trkpt lat="50.15336" lon="3.74392">
        <ele>135.68</ele>
        <time>2021-08-08T05:27:34Z</time>
      </trkpt>
      <trkpt lat="50.15298" lon="3.74422">
        <ele>135.68</ele>
        <time>2021-08-08T05:27:42Z</time>
      </trkpt>
      <trkpt lat="50.1524" lon="3.74471">
        <ele>135.68</ele>
        <time>2021-08-08T05:27:54Z</time>
      </trkpt>
      <trkpt lat="50.15197" lon="3.74511">
        <ele>135.68</ele>
        <time>2021-08-08T05:28:03Z</time>
      </trkpt>
      <trkpt lat="50.15158" lon="3.74557">
        <ele>135.68</ele>
        <time>2021-08-08T05:28:12Z</time>
      </trkpt>
      <trkpt lat="50.15115" lon="3.74595">
        <ele>135.68</ele>
        <time>2021-08-08T05:28:21Z</time>
      </trkpt>
      <trkpt lat="50.15064" lon="3.74631">
        <ele>135.68</ele>
        <time>2021-08-08T05:28:31Z</time>
      </trkpt>
      <trkpt lat="50.15015" lon="3.74685">
        <ele>134.24</ele>
        <time>2021-08-08T05:28:42Z</time>
      </trkpt>
      <trkpt lat="50.14956" lon="3.74749">
        <ele>134.24</ele>
        <time>2021-08-08T05:28:55Z</time>
      </trkpt>
      <trkpt lat="50.1492" lon="3.74787">
        <ele>134.24</ele>
        <time>2021-08-08T05:29:03Z</time>
      </trkpt>
      <trkpt lat="50.14893" lon="3.74817">
        <ele>134.24</ele>
        <time>2021-08-08T05:29:09Z</time>
      </trkpt>
      <trkpt lat="50.1489" lon="3.74823">
        <ele>134.24</ele>
        <time>2021-08-08T05:29:10Z</time>
      </trkpt>
      <trkpt lat="50.14887" lon="3.7483">
        <ele>134.24</ele>
        <time>2021-08-08T05:29:11Z</time>
      </trkpt>
      <trkpt lat="50.14885" lon="3.74837">
        <ele>134.24</ele>
        <time>2021-08-08T05:29:12Z</time>
      </trkpt>
      <trkpt lat="50.14883" lon="3.74845">
        <ele>134.24</ele>
        <time>2021-08-08T05:29:13Z</time>
      </trkpt>
      <trkpt lat="50.14882" lon="3.74854">
        <ele>134.24</ele>
        <time>2021-08-08T05:29:14Z</time>
      </trkpt>
      <trkpt lat="50.14882" lon="3.74862">
        <ele>134.24</ele>
        <time>2021-08-08T05:29:15Z</time>
      </trkpt>
      <trkpt lat="50.14883" lon="3.74871">
        <ele>134.24</ele>
        <time>2021-08-08T05:29:16Z</time>
      </trkpt>
      <trkpt lat="50.14884" lon="3.74961">
        <ele>134.24</ele>
        <time>2021-08-08T05:29:26Z</time>
      </trkpt>
      <trkpt lat="50.14884" lon="3.74994">
        <ele>134.24</ele>
        <time>2021-08-08T05:29:30Z</time>
      </trkpt>
      <trkpt lat="50.14884" lon="3.75013">
        <ele>134.24</ele>
        <time>2021-08-08T05:29:32Z</time>
      </trkpt>
      <trkpt lat="50.14884" lon="3.75021">
        <ele>134.24</ele>
        <time>2021-08-08T05:29:33Z</time>
      </trkpt>
      <trkpt lat="50.14884" lon="3.75054">
        <ele>134.24</ele>
        <time>2021-08-08T05:29:37Z</time>
      </trkpt>
      <trkpt lat="50.14882" lon="3.7509">
        <ele>135.68</ele>
        <time>2021-08-08T05:29:42Z</time>
      </trkpt>
      <trkpt lat="50.14878" lon="3.75106">
        <ele>135.68</ele>
        <time>2021-08-08T05:29:46Z</time>
      </trkpt>
      <trkpt lat="50.14875" lon="3.75119">
        <ele>135.68</ele>
        <time>2021-08-08T05:29:50Z</time>
      </trkpt>
      <trkpt lat="50.14873" lon="3.75143">
        <ele>135.68</ele>
        <time>2021-08-08T05:29:56Z</time>
      </trkpt>
      <trkpt lat="50.14869" lon="3.75173">
        <ele>135.68</ele>
        <time>2021-08-08T05:30:01Z</time>
      </trkpt>
      <trkpt lat="50.14861" lon="3.75242">
        <ele>135.68</ele>
        <time>2021-08-08T05:30:10Z</time>
      </trkpt>
      <trkpt lat="50.14861" lon="3.7525">
        <ele>135.68</ele>
        <time>2021-08-08T05:30:11Z</time>
      </trkpt>
      <trkpt lat="50.14857" lon="3.75326">
        <ele>135.68</ele>
        <time>2021-08-08T05:30:20Z</time>
      </trkpt>
      <trkpt lat="50.14852" lon="3.75402">
        <ele>135.68</ele>
        <time>2021-08-08T05:30:29Z</time>
      </trkpt>
      <trkpt lat="50.14844" lon="3.75477">
        <ele>135.68</ele>
        <time>2021-08-08T05:30:38Z</time>
      </trkpt>
      <trkpt lat="50.14838" lon="3.755">
        <ele>136.16</ele>
        <time>2021-08-08T05:30:42Z</time>
      </trkpt>
      <trkpt lat="50.14834" lon="3.75503">
        <ele>136.16</ele>
        <time>2021-08-08T05:30:43Z</time>
      </trkpt>
      <trkpt lat="50.14831" lon="3.75505">
        <ele>136.16</ele>
        <time>2021-08-08T05:30:44Z</time>
      </trkpt>
      <trkpt lat="50.14795" lon="3.75514">
        <ele>136.64</ele>
        <time>2021-08-08T05:30:52Z</time>
      </trkpt>
      <trkpt lat="50.14749" lon="3.75519">
        <ele>137.61</ele>
        <time>2021-08-08T05:31:02Z</time>
      </trkpt>
      <trkpt lat="50.14715" lon="3.75526">
        <ele>139.53</ele>
        <time>2021-08-08T05:31:11Z</time>
      </trkpt>
      <trkpt lat="50.14681" lon="3.75544">
        <ele>140.49</ele>
        <time>2021-08-08T05:31:21Z</time>
      </trkpt>
      <trkpt lat="50.14642" lon="3.75573">
        <ele>141.45</ele>
        <time>2021-08-08T05:31:33Z</time>
      </trkpt>
      <trkpt lat="50.14607" lon="3.75598">
        <ele>143.37</ele>
        <time>2021-08-08T05:31:43Z</time>
      </trkpt>
      <trkpt lat="50.14597" lon="3.75602">
        <ele>143.37</ele>
        <time>2021-08-08T05:31:46Z</time>
      </trkpt>
      <trkpt lat="50.14594" lon="3.75598">
        <ele>143.37</ele>
        <time>2021-08-08T05:31:47Z</time>
      </trkpt>
      <trkpt lat="50.14593" lon="3.75594">
        <ele>143.85</ele>
        <time>2021-08-08T05:31:48Z</time>
      </trkpt>
      <trkpt lat="50.14585" lon="3.75545">
        <ele>144.34</ele>
        <time>2021-08-08T05:31:56Z</time>
      </trkpt>
      <trkpt lat="50.14576" lon="3.75467">
        <ele>143.37</ele>
        <time>2021-08-08T05:32:07Z</time>
      </trkpt>
      <trkpt lat="50.14574" lon="3.75459">
        <ele>143.37</ele>
        <time>2021-08-08T05:32:08Z</time>
      </trkpt>
      <trkpt lat="50.14572" lon="3.75453">
        <ele>143.37</ele>
        <time>2021-08-08T05:32:09Z</time>
      </trkpt>
      <trkpt lat="50.14569" lon="3.75446">
        <ele>143.37</ele>
        <time>2021-08-08T05:32:10Z</time>
      </trkpt>
      <trkpt lat="50.14537" lon="3.75371">
        <ele>143.37</ele>
        <time>2021-08-08T05:32:21Z</time>
      </trkpt>
      <trkpt lat="50.14509" lon="3.75321">
        <ele>142.41</ele>
        <time>2021-08-08T05:32:29Z</time>
      </trkpt>
      <trkpt lat="50.14498" lon="3.753">
        <ele>142.41</ele>
        <time>2021-08-08T05:32:32Z</time>
      </trkpt>
      <trkpt lat="50.14495" lon="3.75292">
        <ele>142.41</ele>
        <time>2021-08-08T05:32:33Z</time>
      </trkpt>
      <trkpt lat="50.14492" lon="3.75284">
        <ele>142.41</ele>
        <time>2021-08-08T05:32:34Z</time>
      </trkpt>
      <trkpt lat="50.14478" lon="3.75211">
        <ele>141.93</ele>
        <time>2021-08-08T05:32:42Z</time>
      </trkpt>
      <trkpt lat="50.14461" lon="3.75129">
        <ele>140.49</ele>
        <time>2021-08-08T05:32:51Z</time>
      </trkpt>
      <trkpt lat="50.14447" lon="3.75051">
        <ele>138.57</ele>
        <time>2021-08-08T05:32:59Z</time>
      </trkpt>
      <trkpt lat="50.14429" lon="3.74957">
        <ele>138.09</ele>
        <time>2021-08-08T05:33:09Z</time>
      </trkpt>
      <trkpt lat="50.14409" lon="3.74854">
        <ele>137.13</ele>
        <time>2021-08-08T05:33:20Z</time>
      </trkpt>
      <trkpt lat="50.14401" lon="3.74764">
        <ele>135.68</ele>
        <time>2021-08-08T05:33:29Z</time>
      </trkpt>
      <trkpt lat="50.14399" lon="3.7466">
        <ele>135.68</ele>
        <time>2021-08-08T05:33:40Z</time>
      </trkpt>
      <trkpt lat="50.14393" lon="3.74595">
        <ele>135.68</ele>
        <time>2021-08-08T05:33:47Z</time>
      </trkpt>
      <trkpt lat="50.1439" lon="3.74577">
        <ele>134.72</ele>
        <time>2021-08-08T05:33:49Z</time>
      </trkpt>
      <trkpt lat="50.14376" lon="3.74534">
        <ele>134.72</ele>
        <time>2021-08-08T05:33:54Z</time>
      </trkpt>
      <trkpt lat="50.14373" lon="3.74526">
        <ele>134.72</ele>
        <time>2021-08-08T05:33:55Z</time>
      </trkpt>
      <trkpt lat="50.14358" lon="3.74483">
        <ele>134.72</ele>
        <time>2021-08-08T05:34:00Z</time>
      </trkpt>
      <trkpt lat="50.14356" lon="3.74474">
        <ele>136.16</ele>
        <time>2021-08-08T05:34:01Z</time>
      </trkpt>
      <trkpt lat="50.14357" lon="3.74465">
        <ele>136.16</ele>
        <time>2021-08-08T05:34:02Z</time>
      </trkpt>
      <trkpt lat="50.1436" lon="3.74456">
        <ele>136.16</ele>
        <time>2021-08-08T05:34:03Z</time>
      </trkpt>
      <trkpt lat="50.14363" lon="3.74448">
        <ele>136.16</ele>
        <time>2021-08-08T05:34:04Z</time>
      </trkpt>
      <trkpt lat="50.14366" lon="3.7444">
        <ele>136.16</ele>
        <time>2021-08-08T05:34:05Z</time>
      </trkpt>
      <trkpt lat="50.14368" lon="3.74431">
        <ele>136.16</ele>
        <time>2021-08-08T05:34:06Z</time>
      </trkpt>
      <trkpt lat="50.14369" lon="3.74421">
        <ele>136.16</ele>
        <time>2021-08-08T05:34:07Z</time>
      </trkpt>
      <trkpt lat="50.14369" lon="3.74412">
        <ele>136.16</ele>
        <time>2021-08-08T05:34:08Z</time>
      </trkpt>
      <trkpt lat="50.14368" lon="3.74402">
        <ele>136.16</ele>
        <time>2021-08-08T05:34:09Z</time>
      </trkpt>
      <trkpt lat="50.14367" lon="3.74392">
        <ele>136.16</ele>
        <time>2021-08-08T05:34:10Z</time>
      </trkpt>
      <trkpt lat="50.14365" lon="3.74383">
        <ele>136.16</ele>
        <time>2021-08-08T05:34:11Z</time>
      </trkpt>
      <trkpt lat="50.14346" lon="3.74303">
        <ele>136.16</ele>
        <time>2021-08-08T05:34:20Z</time>
      </trkpt>
      <trkpt lat="50.14323" lon="3.74228">
        <ele>134.24</ele>
        <time>2021-08-08T05:34:29Z</time>
      </trkpt>
      <trkpt lat="50.14302" lon="3.74155">
        <ele>134.24</ele>
        <time>2021-08-08T05:34:38Z</time>
      </trkpt>
      <trkpt lat="50.14298" lon="3.7415">
        <ele>134.24</ele>
        <time>2021-08-08T05:34:39Z</time>
      </trkpt>
      <trkpt lat="50.14293" lon="3.74146">
        <ele>134.24</ele>
        <time>2021-08-08T05:34:40Z</time>
      </trkpt>
      <trkpt lat="50.14288" lon="3.74144">
        <ele>134.24</ele>
        <time>2021-08-08T05:34:41Z</time>
      </trkpt>
      <trkpt lat="50.14283" lon="3.74143">
        <ele>134.24</ele>
        <time>2021-08-08T05:34:42Z</time>
      </trkpt>
      <trkpt lat="50.14278" lon="3.74142">
        <ele>134.24</ele>
        <time>2021-08-08T05:34:43Z</time>
      </trkpt>
      <trkpt lat="50.14237" lon="3.74129">
        <ele>135.68</ele>
        <time>2021-08-08T05:34:51Z</time>
      </trkpt>
      <trkpt lat="50.14217" lon="3.74125">
        <ele>135.68</ele>
        <time>2021-08-08T05:34:56Z</time>
      </trkpt>
      <trkpt lat="50.14214" lon="3.74128">
        <ele>135.68</ele>
        <time>2021-08-08T05:34:57Z</time>
      </trkpt>
      <trkpt lat="50.14212" lon="3.74131">
        <ele>135.68</ele>
        <time>2021-08-08T05:34:58Z</time>
      </trkpt>
      <trkpt lat="50.14209" lon="3.74136">
        <ele>135.68</ele>
        <time>2021-08-08T05:34:59Z</time>
      </trkpt>
      <trkpt lat="50.14207" lon="3.74142">
        <ele>135.68</ele>
        <time>2021-08-08T05:35:00Z</time>
      </trkpt>
      <trkpt lat="50.14205" lon="3.74147">
        <ele>135.68</ele>
        <time>2021-08-08T05:35:01Z</time>
      </trkpt>
      <trkpt lat="50.14178" lon="3.74212">
        <ele>135.68</ele>
        <time>2021-08-08T05:35:11Z</time>
      </trkpt>
      <trkpt lat="50.14146" lon="3.7429">
        <ele>136.16</ele>
        <time>2021-08-08T05:35:23Z</time>
      </trkpt>
      <trkpt lat="50.14118" lon="3.74359">
        <ele>136.64</ele>
        <time>2021-08-08T05:35:33Z</time>
      </trkpt>
      <trkpt lat="50.14116" lon="3.74365">
        <ele>136.64</ele>
        <time>2021-08-08T05:35:34Z</time>
      </trkpt>
      <trkpt lat="50.14093" lon="3.74422">
        <ele>136.64</ele>
        <time>2021-08-08T05:35:42Z</time>
      </trkpt>
      <trkpt lat="50.14058" lon="3.74497">
        <ele>137.13</ele>
        <time>2021-08-08T05:35:53Z</time>
      </trkpt>
      <trkpt lat="50.14037" lon="3.74546">
        <ele>137.13</ele>
        <time>2021-08-08T05:36:00Z</time>
      </trkpt>
      <trkpt lat="50.14007" lon="3.74619">
        <ele>137.13</ele>
        <time>2021-08-08T05:36:10Z</time>
      </trkpt>
      <trkpt lat="50.13983" lon="3.74716">
        <ele>137.13</ele>
        <time>2021-08-08T05:36:22Z</time>
      </trkpt>
      <trkpt lat="50.13957" lon="3.74792">
        <ele>137.61</ele>
        <time>2021-08-08T05:36:32Z</time>
      </trkpt>
      <trkpt lat="50.13925" lon="3.74852">
        <ele>138.09</ele>
        <time>2021-08-08T05:36:41Z</time>
      </trkpt>
      <trkpt lat="50.139" lon="3.74893">
        <ele>138.57</ele>
        <time>2021-08-08T05:36:48Z</time>
      </trkpt>
      <trkpt lat="50.13897" lon="3.749">
        <ele>138.57</ele>
        <time>2021-08-08T05:36:49Z</time>
      </trkpt>
      <trkpt lat="50.13894" lon="3.74908">
        <ele>138.57</ele>
        <time>2021-08-08T05:36:50Z</time>
      </trkpt>
      <trkpt lat="50.13891" lon="3.74917">
        <ele>138.57</ele>
        <time>2021-08-08T05:36:51Z</time>
      </trkpt>
      <trkpt lat="50.1389" lon="3.74925">
        <ele>138.57</ele>
        <time>2021-08-08T05:36:52Z</time>
      </trkpt>
      <trkpt lat="50.13888" lon="3.74933">
        <ele>138.57</ele>
        <time>2021-08-08T05:36:53Z</time>
      </trkpt>
      <trkpt lat="50.1387" lon="3.74995">
        <ele>138.57</ele>
        <time>2021-08-08T05:37:01Z</time>
      </trkpt>
      <trkpt lat="50.13844" lon="3.75039">
        <ele>138.57</ele>
        <time>2021-08-08T05:37:08Z</time>
      </trkpt>
      <trkpt lat="50.13804" lon="3.75077">
        <ele>139.05</ele>
        <time>2021-08-08T05:37:17Z</time>
      </trkpt>
      <trkpt lat="50.13791" lon="3.7509">
        <ele>139.05</ele>
        <time>2021-08-08T05:37:20Z</time>
      </trkpt>
      <trkpt lat="50.13783" lon="3.75102">
        <ele>139.53</ele>
        <time>2021-08-08T05:37:22Z</time>
      </trkpt>
      <trkpt lat="50.1378" lon="3.75108">
        <ele>139.53</ele>
        <time>2021-08-08T05:37:23Z</time>
      </trkpt>
      <trkpt lat="50.13777" lon="3.75114">
        <ele>139.53</ele>
        <time>2021-08-08T05:37:24Z</time>
      </trkpt>
      <trkpt lat="50.13774" lon="3.75122">
        <ele>140.01</ele>
        <time>2021-08-08T05:37:25Z</time>
      </trkpt>
      <trkpt lat="50.13772" lon="3.75129">
        <ele>140.01</ele>
        <time>2021-08-08T05:37:26Z</time>
      </trkpt>
      <trkpt lat="50.1377" lon="3.75137">
        <ele>140.01</ele>
        <time>2021-08-08T05:37:27Z</time>
      </trkpt>
      <trkpt lat="50.13758" lon="3.752">
        <ele>140.49</ele>
        <time>2021-08-08T05:37:35Z</time>
      </trkpt>
      <trkpt lat="50.13746" lon="3.75295">
        <ele>140.49</ele>
        <time>2021-08-08T05:37:46Z</time>
      </trkpt>
      <trkpt lat="50.13739" lon="3.75367">
        <ele>140.97</ele>
        <time>2021-08-08T05:37:55Z</time>
      </trkpt>
      <trkpt lat="50.13734" lon="3.75389">
        <ele>141.93</ele>
        <time>2021-08-08T05:37:58Z</time>
      </trkpt>
      <trkpt lat="50.13717" lon="3.75438">
        <ele>142.89</ele>
        <time>2021-08-08T05:38:06Z</time>
      </trkpt>
      <trkpt lat="50.13691" lon="3.75485">
        <ele>144.34</ele>
        <time>2021-08-08T05:38:16Z</time>
      </trkpt>
      <trkpt lat="50.1366" lon="3.7553">
        <ele>144.34</ele>
        <time>2021-08-08T05:38:25Z</time>
      </trkpt>
      <trkpt lat="50.13626" lon="3.75577">
        <ele>144.82</ele>
        <time>2021-08-08T05:38:35Z</time>
      </trkpt>
      <trkpt lat="50.13601" lon="3.75623">
        <ele>145.78</ele>
        <time>2021-08-08T05:38:45Z</time>
      </trkpt>
      <trkpt lat="50.13592" lon="3.75638">
        <ele>145.78</ele>
        <time>2021-08-08T05:38:48Z</time>
      </trkpt>
      <trkpt lat="50.1358" lon="3.75652">
        <ele>145.78</ele>
        <time>2021-08-08T05:38:51Z</time>
      </trkpt>
      <trkpt lat="50.13551" lon="3.75683">
        <ele>143.85</ele>
        <time>2021-08-08T05:38:58Z</time>
      </trkpt>
      <trkpt lat="50.13543" lon="3.75696">
        <ele>143.85</ele>
        <time>2021-08-08T05:39:00Z</time>
      </trkpt>
      <trkpt lat="50.13513" lon="3.75749">
        <ele>143.37</ele>
        <time>2021-08-08T05:39:08Z</time>
      </trkpt>
      <trkpt lat="50.13509" lon="3.75755">
        <ele>144.34</ele>
        <time>2021-08-08T05:39:09Z</time>
      </trkpt>
      <trkpt lat="50.13502" lon="3.75763">
        <ele>144.34</ele>
        <time>2021-08-08T05:39:11Z</time>
      </trkpt>
      <trkpt lat="50.13479" lon="3.75788">
        <ele>144.34</ele>
        <time>2021-08-08T05:39:17Z</time>
      </trkpt>
      <trkpt lat="50.13476" lon="3.75794">
        <ele>144.34</ele>
        <time>2021-08-08T05:39:18Z</time>
      </trkpt>
      <trkpt lat="50.13454" lon="3.75846">
        <ele>145.78</ele>
        <time>2021-08-08T05:39:27Z</time>
      </trkpt>
      <trkpt lat="50.13447" lon="3.75862">
        <ele>146.26</ele>
        <time>2021-08-08T05:39:30Z</time>
      </trkpt>
      <trkpt lat="50.13426" lon="3.75905">
        <ele>146.74</ele>
        <time>2021-08-08T05:39:39Z</time>
      </trkpt>
      <trkpt lat="50.13408" lon="3.75938">
        <ele>147.22</ele>
        <time>2021-08-08T05:39:47Z</time>
      </trkpt>
      <trkpt lat="50.13401" lon="3.75941">
        <ele>147.22</ele>
        <time>2021-08-08T05:39:51Z</time>
      </trkpt>
      <trkpt lat="50.13398" lon="3.75946">
        <ele>147.22</ele>
        <time>2021-08-08T05:39:53Z</time>
      </trkpt>
      <trkpt lat="50.13397" lon="3.7595">
        <ele>147.22</ele>
        <time>2021-08-08T05:39:54Z</time>
      </trkpt>
      <trkpt lat="50.13397" lon="3.75953">
        <ele>147.7</ele>
        <time>2021-08-08T05:39:55Z</time>
      </trkpt>
      <trkpt lat="50.13397" lon="3.75957">
        <ele>147.7</ele>
        <time>2021-08-08T05:39:56Z</time>
      </trkpt>
      <trkpt lat="50.13397" lon="3.75961">
        <ele>147.7</ele>
        <time>2021-08-08T05:39:57Z</time>
      </trkpt>
      <trkpt lat="50.13398" lon="3.75965">
        <ele>147.7</ele>
        <time>2021-08-08T05:39:58Z</time>
      </trkpt>
      <trkpt lat="50.13398" lon="3.75969">
        <ele>148.18</ele>
        <time>2021-08-08T05:39:59Z</time>
      </trkpt>
      <trkpt lat="50.13398" lon="3.75973">
        <ele>148.18</ele>
        <time>2021-08-08T05:40:00Z</time>
      </trkpt>
      <trkpt lat="50.13405" lon="3.75995">
        <ele>149.14</ele>
        <time>2021-08-08T05:40:07Z</time>
      </trkpt>
      <trkpt lat="50.13422" lon="3.76023">
        <ele>150.1</ele>
        <time>2021-08-08T05:40:16Z</time>
      </trkpt>
      <trkpt lat="50.13434" lon="3.76035">
        <ele>151.06</ele>
        <time>2021-08-08T05:40:22Z</time>
      </trkpt>
      <trkpt lat="50.13454" lon="3.7605">
        <ele>152.03</ele>
        <time>2021-08-08T05:40:30Z</time>
      </trkpt>
      <trkpt lat="50.13488" lon="3.76072">
        <ele>153.95</ele>
        <time>2021-08-08T05:40:41Z</time>
      </trkpt>
      <trkpt lat="50.13495" lon="3.76083">
        <ele>154.43</ele>
        <time>2021-08-08T05:40:47Z</time>
      </trkpt>
      <trkpt lat="50.13499" lon="3.76082">
        <ele>154.91</ele>
        <time>2021-08-08T05:40:55Z</time>
      </trkpt>
      <trkpt lat="50.13501" lon="3.76081">
        <ele>154.91</ele>
        <time>2021-08-08T05:41:02Z</time>
      </trkpt>
      <trkpt lat="50.135" lon="3.76075">
        <ele>154.91</ele>
        <time>2021-08-08T05:41:17Z</time>
      </trkpt>
      <trkpt lat="50.135" lon="3.76077">
        <ele>155.39</ele>
        <time>2021-08-08T05:41:29Z</time>
      </trkpt>
      <trkpt lat="50.135" lon="3.76079">
        <ele>155.39</ele>
        <time>2021-08-08T05:41:41Z</time>
      </trkpt>
      <trkpt lat="50.13498" lon="3.76072">
        <ele>155.39</ele>
        <time>2021-08-08T05:42:01Z</time>
      </trkpt>
      <trkpt lat="50.13495" lon="3.76064">
        <ele>155.87</ele>
        <time>2021-08-08T05:42:20Z</time>
      </trkpt>
      <trkpt lat="50.13495" lon="3.76072">
        <ele>155.87</ele>
        <time>2021-08-08T05:42:35Z</time>
      </trkpt>
      <trkpt lat="50.13495" lon="3.76069">
        <ele>155.87</ele>
        <time>2021-08-08T05:42:53Z</time>
      </trkpt>
      <trkpt lat="50.13495" lon="3.76056">
        <ele>155.87</ele>
        <time>2021-08-08T05:43:07Z</time>
      </trkpt>
      <trkpt lat="50.13495" lon="3.76059">
        <ele>156.35</ele>
        <time>2021-08-08T05:43:26Z</time>
      </trkpt>
      <trkpt lat="50.13496" lon="3.76053">
        <ele>156.35</ele>
        <time>2021-08-08T05:43:44Z</time>
      </trkpt>
      <trkpt lat="50.13495" lon="3.76051">
        <ele>156.83</ele>
        <time>2021-08-08T05:44:03Z</time>
      </trkpt>
      <trkpt lat="50.13497" lon="3.76073">
        <ele>156.83</ele>
        <time>2021-08-08T05:44:21Z</time>
      </trkpt>
      <trkpt lat="50.13499" lon="3.76069">
        <ele>157.31</ele>
        <time>2021-08-08T05:44:37Z</time>
      </trkpt>
      <trkpt lat="50.135" lon="3.76066">
        <ele>157.31</ele>
        <time>2021-08-08T05:44:59Z</time>
      </trkpt>
      <trkpt lat="50.13499" lon="3.76069">
        <ele>157.31</ele>
        <time>2021-08-08T05:45:19Z</time>
      </trkpt>
      <trkpt lat="50.13499" lon="3.76074">
        <ele>157.31</ele>
        <time>2021-08-08T05:45:36Z</time>
      </trkpt>
      <trkpt lat="50.13499" lon="3.76065">
        <ele>157.31</ele>
        <time>2021-08-08T05:45:52Z</time>
      </trkpt>
      <trkpt lat="50.135" lon="3.76054">
        <ele>157.31</ele>
        <time>2021-08-08T05:46:09Z</time>
      </trkpt>
      <trkpt lat="50.135" lon="3.7606">
        <ele>157.31</ele>
        <time>2021-08-08T05:46:24Z</time>
      </trkpt>
      <trkpt lat="50.13499" lon="3.76074">
        <ele>157.31</ele>
        <time>2021-08-08T05:46:31Z</time>
      </trkpt>
      <trkpt lat="50.13498" lon="3.76075">
        <ele>157.31</ele>
        <time>2021-08-08T05:46:32Z</time>
      </trkpt>
      <trkpt lat="50.13497" lon="3.76074">
        <ele>157.31</ele>
        <time>2021-08-08T05:46:33Z</time>
      </trkpt>
      <trkpt lat="50.13484" lon="3.76067">
        <ele>157.31</ele>
        <time>2021-08-08T05:46:42Z</time>
      </trkpt>
      <trkpt lat="50.13472" lon="3.76063">
        <ele>155.87</ele>
        <time>2021-08-08T05:46:47Z</time>
      </trkpt>
      <trkpt lat="50.13458" lon="3.76065">
        <ele>155.87</ele>
        <time>2021-08-08T05:46:53Z</time>
      </trkpt>
      <trkpt lat="50.13444" lon="3.7605">
        <ele>153.95</ele>
        <time>2021-08-08T05:47:01Z</time>
      </trkpt>
      <trkpt lat="50.13442" lon="3.76048">
        <ele>153.95</ele>
        <time>2021-08-08T05:47:02Z</time>
      </trkpt>
      <trkpt lat="50.13427" lon="3.7604">
        <ele>153.47</ele>
        <time>2021-08-08T05:47:09Z</time>
      </trkpt>
      <trkpt lat="50.13417" lon="3.76044">
        <ele>153.47</ele>
        <time>2021-08-08T05:47:15Z</time>
      </trkpt>
      <trkpt lat="50.13415" lon="3.76041">
        <ele>153.47</ele>
        <time>2021-08-08T05:47:22Z</time>
      </trkpt>
      <trkpt lat="50.13413" lon="3.7604">
        <ele>153.47</ele>
        <time>2021-08-08T05:47:35Z</time>
      </trkpt>
      <trkpt lat="50.13414" lon="3.7604">
        <ele>153.47</ele>
        <time>2021-08-08T05:47:56Z</time>
      </trkpt>
      <trkpt lat="50.13411" lon="3.76038">
        <ele>153.47</ele>
        <time>2021-08-08T05:48:07Z</time>
      </trkpt>
      <trkpt lat="50.13415" lon="3.76036">
        <ele>153.47</ele>
        <time>2021-08-08T05:48:24Z</time>
      </trkpt>
      <trkpt lat="50.13415" lon="3.76038">
        <ele>153.47</ele>
        <time>2021-08-08T05:48:44Z</time>
      </trkpt>
      <trkpt lat="50.13415" lon="3.76037">
        <ele>153.47</ele>
        <time>2021-08-08T05:48:48Z</time>
      </trkpt>
      <trkpt lat="50.13415" lon="3.76036">
        <ele>153.47</ele>
        <time>2021-08-08T05:48:49Z</time>
      </trkpt>
      <trkpt lat="50.13415" lon="3.76034">
        <ele>153.47</ele>
        <time>2021-08-08T05:48:55Z</time>
      </trkpt>
      <trkpt lat="50.13415" lon="3.7604">
        <ele>153.47</ele>
        <time>2021-08-08T05:49:17Z</time>
      </trkpt>
      <trkpt lat="50.13417" lon="3.76038">
        <ele>153.47</ele>
        <time>2021-08-08T05:49:43Z</time>
      </trkpt>
      <trkpt lat="50.13418" lon="3.76043">
        <ele>153.47</ele>
        <time>2021-08-08T05:50:06Z</time>
      </trkpt>
      <trkpt lat="50.13418" lon="3.76045">
        <ele>153.47</ele>
        <time>2021-08-08T05:50:26Z</time>
      </trkpt>
      <trkpt lat="50.13418" lon="3.76049">
        <ele>153.47</ele>
        <time>2021-08-08T05:50:46Z</time>
      </trkpt>
      <trkpt lat="50.13417" lon="3.7605">
        <ele>153.47</ele>
        <time>2021-08-08T05:51:01Z</time>
      </trkpt>
      <trkpt lat="50.13417" lon="3.76045">
        <ele>153.47</ele>
        <time>2021-08-08T05:51:16Z</time>
      </trkpt>
      <trkpt lat="50.13417" lon="3.76037">
        <ele>153.47</ele>
        <time>2021-08-08T05:51:35Z</time>
      </trkpt>
      <trkpt lat="50.13418" lon="3.76035">
        <ele>153.47</ele>
        <time>2021-08-08T05:51:51Z</time>
      </trkpt>
      <trkpt lat="50.13417" lon="3.76031">
        <ele>153.47</ele>
        <time>2021-08-08T05:52:10Z</time>
      </trkpt>
      <trkpt lat="50.13414" lon="3.76032">
        <ele>153.47</ele>
        <time>2021-08-08T05:52:35Z</time>
      </trkpt>
      <trkpt lat="50.13415" lon="3.76031">
        <ele>153.47</ele>
        <time>2021-08-08T05:52:58Z</time>
      </trkpt>
      <trkpt lat="50.13414" lon="3.76032">
        <ele>153.47</ele>
        <time>2021-08-08T05:53:12Z</time>
      </trkpt>
      <trkpt lat="50.13417" lon="3.76037">
        <ele>153.47</ele>
        <time>2021-08-08T05:53:32Z</time>
      </trkpt>
      <trkpt lat="50.13414" lon="3.76041">
        <ele>153.47</ele>
        <time>2021-08-08T05:53:49Z</time>
      </trkpt>
      <trkpt lat="50.13417" lon="3.76041">
        <ele>152.99</ele>
        <time>2021-08-08T05:53:57Z</time>
      </trkpt>
      <trkpt lat="50.13417" lon="3.76041">
        <ele>152.99</ele>
        <time>2021-08-08T05:54:18Z</time>
      </trkpt>
      <trkpt lat="50.13418" lon="3.76047">
        <ele>152.99</ele>
        <time>2021-08-08T05:54:32Z</time>
      </trkpt>
      <trkpt lat="50.13417" lon="3.7605">
        <ele>152.99</ele>
        <time>2021-08-08T05:54:45Z</time>
      </trkpt>
      <trkpt lat="50.13417" lon="3.76048">
        <ele>152.99</ele>
        <time>2021-08-08T05:55:05Z</time>
      </trkpt>
      <trkpt lat="50.13414" lon="3.7605">
        <ele>152.51</ele>
        <time>2021-08-08T05:55:24Z</time>
      </trkpt>
      <trkpt lat="50.13415" lon="3.76044">
        <ele>152.51</ele>
        <time>2021-08-08T05:55:43Z</time>
      </trkpt>
      <trkpt lat="50.13416" lon="3.76044">
        <ele>152.51</ele>
        <time>2021-08-08T05:55:59Z</time>
      </trkpt>
      <trkpt lat="50.13417" lon="3.76041">
        <ele>152.51</ele>
        <time>2021-08-08T05:56:16Z</time>
      </trkpt>
      <trkpt lat="50.13415" lon="3.76038">
        <ele>152.51</ele>
        <time>2021-08-08T05:56:40Z</time>
      </trkpt>
      <trkpt lat="50.13415" lon="3.7604">
        <ele>152.51</ele>
        <time>2021-08-08T05:56:59Z</time>
      </trkpt>
      <trkpt lat="50.13412" lon="3.76047">
        <ele>152.51</ele>
        <time>2021-08-08T05:57:20Z</time>
      </trkpt>
      <trkpt lat="50.13416" lon="3.76045">
        <ele>152.03</ele>
        <time>2021-08-08T05:57:35Z</time>
      </trkpt>
      <trkpt lat="50.13416" lon="3.76043">
        <ele>152.03</ele>
        <time>2021-08-08T05:57:49Z</time>
      </trkpt>
      <trkpt lat="50.13411" lon="3.76043">
        <ele>151.54</ele>
        <time>2021-08-08T05:58:03Z</time>
      </trkpt>
      <trkpt lat="50.13407" lon="3.7604">
        <ele>151.54</ele>
        <time>2021-08-08T05:58:20Z</time>
      </trkpt>
      <trkpt lat="50.13411" lon="3.76036">
        <ele>151.54</ele>
        <time>2021-08-08T05:58:34Z</time>
      </trkpt>
      <trkpt lat="50.1341" lon="3.76036">
        <ele>151.54</ele>
        <time>2021-08-08T05:58:42Z</time>
      </trkpt>
      <trkpt lat="50.1341" lon="3.76037">
        <ele>151.54</ele>
        <time>2021-08-08T05:58:44Z</time>
      </trkpt>
      <trkpt lat="50.1341" lon="3.7604">
        <ele>151.54</ele>
        <time>2021-08-08T05:58:51Z</time>
      </trkpt>
      <trkpt lat="50.13409" lon="3.76039">
        <ele>151.54</ele>
        <time>2021-08-08T05:59:04Z</time>
      </trkpt>
      <trkpt lat="50.13413" lon="3.76037">
        <ele>151.54</ele>
        <time>2021-08-08T05:59:27Z</time>
      </trkpt>
      <trkpt lat="50.13412" lon="3.76036">
        <ele>151.54</ele>
        <time>2021-08-08T05:59:41Z</time>
      </trkpt>
      <trkpt lat="50.13411" lon="3.76035">
        <ele>151.54</ele>
        <time>2021-08-08T06:00:03Z</time>
      </trkpt>
      <trkpt lat="50.13413" lon="3.76038">
        <ele>151.54</ele>
        <time>2021-08-08T06:00:18Z</time>
      </trkpt>
      <trkpt lat="50.13415" lon="3.76039">
        <ele>151.54</ele>
        <time>2021-08-08T06:00:40Z</time>
      </trkpt>
      <trkpt lat="50.13412" lon="3.76042">
        <ele>151.54</ele>
        <time>2021-08-08T06:01:01Z</time>
      </trkpt>
      <trkpt lat="50.13413" lon="3.7604">
        <ele>151.54</ele>
        <time>2021-08-08T06:01:28Z</time>
      </trkpt>
      <trkpt lat="50.13413" lon="3.76043">
        <ele>151.54</ele>
        <time>2021-08-08T06:01:54Z</time>
      </trkpt>
      <trkpt lat="50.13417" lon="3.76039">
        <ele>151.54</ele>
        <time>2021-08-08T06:02:17Z</time>
      </trkpt>
      <trkpt lat="50.13418" lon="3.76042">
        <ele>151.54</ele>
        <time>2021-08-08T06:02:35Z</time>
      </trkpt>
      <trkpt lat="50.13419" lon="3.76041">
        <ele>151.54</ele>
        <time>2021-08-08T06:03:01Z</time>
      </trkpt>
      <trkpt lat="50.13416" lon="3.76038">
        <ele>151.54</ele>
        <time>2021-08-08T06:03:21Z</time>
      </trkpt>
      <trkpt lat="50.13415" lon="3.76037">
        <ele>151.54</ele>
        <time>2021-08-08T06:03:40Z</time>
      </trkpt>
      <trkpt lat="50.13417" lon="3.76038">
        <ele>151.54</ele>
        <time>2021-08-08T06:04:05Z</time>
      </trkpt>
      <trkpt lat="50.13415" lon="3.76041">
        <ele>151.54</ele>
        <time>2021-08-08T06:04:27Z</time>
      </trkpt>
      <trkpt lat="50.13418" lon="3.76039">
        <ele>151.54</ele>
        <time>2021-08-08T06:04:47Z</time>
      </trkpt>
      <trkpt lat="50.13418" lon="3.76038">
        <ele>151.54</ele>
        <time>2021-08-08T06:05:07Z</time>
      </trkpt>
      <trkpt lat="50.13419" lon="3.7604">
        <ele>151.54</ele>
        <time>2021-08-08T06:05:39Z</time>
      </trkpt>
      <trkpt lat="50.1342" lon="3.76039">
        <ele>151.54</ele>
        <time>2021-08-08T06:06:00Z</time>
      </trkpt>
      <trkpt lat="50.1342" lon="3.76034">
        <ele>151.54</ele>
        <time>2021-08-08T06:06:31Z</time>
      </trkpt>
      <trkpt lat="50.13419" lon="3.76038">
        <ele>151.54</ele>
        <time>2021-08-08T06:06:54Z</time>
      </trkpt>
      <trkpt lat="50.13419" lon="3.7604">
        <ele>151.54</ele>
        <time>2021-08-08T06:07:09Z</time>
      </trkpt>
      <trkpt lat="50.13418" lon="3.76041">
        <ele>151.54</ele>
        <time>2021-08-08T06:07:23Z</time>
      </trkpt>
      <trkpt lat="50.13421" lon="3.76041">
        <ele>151.54</ele>
        <time>2021-08-08T06:07:45Z</time>
      </trkpt>
      <trkpt lat="50.13417" lon="3.76039">
        <ele>151.54</ele>
        <time>2021-08-08T06:08:05Z</time>
      </trkpt>
      <trkpt lat="50.13417" lon="3.7604">
        <ele>152.03</ele>
        <time>2021-08-08T06:08:28Z</time>
      </trkpt>
      <trkpt lat="50.1342" lon="3.76039">
        <ele>152.03</ele>
        <time>2021-08-08T06:08:51Z</time>
      </trkpt>
      <trkpt lat="50.13422" lon="3.76041">
        <ele>152.03</ele>
        <time>2021-08-08T06:09:09Z</time>
      </trkpt>
      <trkpt lat="50.13422" lon="3.7604">
        <ele>152.03</ele>
        <time>2021-08-08T06:09:28Z</time>
      </trkpt>
      <trkpt lat="50.13423" lon="3.7604">
        <ele>152.03</ele>
        <time>2021-08-08T06:09:47Z</time>
      </trkpt>
      <trkpt lat="50.13422" lon="3.76039">
        <ele>152.03</ele>
        <time>2021-08-08T06:10:01Z</time>
      </trkpt>
      <trkpt lat="50.13421" lon="3.7604">
        <ele>152.03</ele>
        <time>2021-08-08T06:10:15Z</time>
      </trkpt>
      <trkpt lat="50.13421" lon="3.76041">
        <ele>152.03</ele>
        <time>2021-08-08T06:10:32Z</time>
      </trkpt>
      <trkpt lat="50.1342" lon="3.76042">
        <ele>152.03</ele>
        <time>2021-08-08T06:10:47Z</time>
      </trkpt>
      <trkpt lat="50.13418" lon="3.76041">
        <ele>152.03</ele>
        <time>2021-08-08T06:11:00Z</time>
      </trkpt>
      <trkpt lat="50.13417" lon="3.76038">
        <ele>152.03</ele>
        <time>2021-08-08T06:11:15Z</time>
      </trkpt>
      <trkpt lat="50.13415" lon="3.76037">
        <ele>152.03</ele>
        <time>2021-08-08T06:11:28Z</time>
      </trkpt>
      <trkpt lat="50.13414" lon="3.76034">
        <ele>152.03</ele>
        <time>2021-08-08T06:11:38Z</time>
      </trkpt>
      <trkpt lat="50.13417" lon="3.76035">
        <ele>152.03</ele>
        <time>2021-08-08T06:11:46Z</time>
      </trkpt>
      <trkpt lat="50.13417" lon="3.7604">
        <ele>152.03</ele>
        <time>2021-08-08T06:12:02Z</time>
      </trkpt>
      <trkpt lat="50.1342" lon="3.76045">
        <ele>151.54</ele>
        <time>2021-08-08T06:12:22Z</time>
      </trkpt>
      <trkpt lat="50.13418" lon="3.7604">
        <ele>151.54</ele>
        <time>2021-08-08T06:12:47Z</time>
      </trkpt>
      <trkpt lat="50.13418" lon="3.76041">
        <ele>151.54</ele>
        <time>2021-08-08T06:13:00Z</time>
      </trkpt>
      <trkpt lat="50.13418" lon="3.76038">
        <ele>151.54</ele>
        <time>2021-08-08T06:13:17Z</time>
      </trkpt>
      <trkpt lat="50.1342" lon="3.76042">
        <ele>151.54</ele>
        <time>2021-08-08T06:13:33Z</time>
      </trkpt>
      <trkpt lat="50.13419" lon="3.76042">
        <ele>151.54</ele>
        <time>2021-08-08T06:13:44Z</time>
      </trkpt>
      <trkpt lat="50.13417" lon="3.76042">
        <ele>151.54</ele>
        <time>2021-08-08T06:14:04Z</time>
      </trkpt>
      <trkpt lat="50.13418" lon="3.76047">
        <ele>151.06</ele>
        <time>2021-08-08T06:14:17Z</time>
      </trkpt>
      <trkpt lat="50.13416" lon="3.76045">
        <ele>151.06</ele>
        <time>2021-08-08T06:14:28Z</time>
      </trkpt>
      <trkpt lat="50.13413" lon="3.76041">
        <ele>151.54</ele>
        <time>2021-08-08T06:14:41Z</time>
      </trkpt>
      <trkpt lat="50.13417" lon="3.76042">
        <ele>151.06</ele>
        <time>2021-08-08T06:14:55Z</time>
      </trkpt>
      <trkpt lat="50.13414" lon="3.76044">
        <ele>151.06</ele>
        <time>2021-08-08T06:15:18Z</time>
      </trkpt>
      <trkpt lat="50.13414" lon="3.76044">
        <ele>151.06</ele>
        <time>2021-08-08T06:15:33Z</time>
      </trkpt>
      <trkpt lat="50.13418" lon="3.76043">
        <ele>151.06</ele>
        <time>2021-08-08T06:15:49Z</time>
      </trkpt>
      <trkpt lat="50.13416" lon="3.76043">
        <ele>151.06</ele>
        <time>2021-08-08T06:16:11Z</time>
      </trkpt>
      <trkpt lat="50.13415" lon="3.76046">
        <ele>151.06</ele>
        <time>2021-08-08T06:16:25Z</time>
      </trkpt>
      <trkpt lat="50.13411" lon="3.76043">
        <ele>151.06</ele>
        <time>2021-08-08T06:16:38Z</time>
      </trkpt>
      <trkpt lat="50.13411" lon="3.76042">
        <ele>151.06</ele>
        <time>2021-08-08T06:16:51Z</time>
      </trkpt>
      <trkpt lat="50.13414" lon="3.76039">
        <ele>151.06</ele>
        <time>2021-08-08T06:17:03Z</time>
      </trkpt>
      <trkpt lat="50.13416" lon="3.76036">
        <ele>150.58</ele>
        <time>2021-08-08T06:17:17Z</time>
      </trkpt>
      <trkpt lat="50.13417" lon="3.76039">
        <ele>150.58</ele>
        <time>2021-08-08T06:17:31Z</time>
      </trkpt>
      <trkpt lat="50.13417" lon="3.76043">
        <ele>150.58</ele>
        <time>2021-08-08T06:17:44Z</time>
      </trkpt>
      <trkpt lat="50.13417" lon="3.76041">
        <ele>150.58</ele>
        <time>2021-08-08T06:18:02Z</time>
      </trkpt>
      <trkpt lat="50.13415" lon="3.76044">
        <ele>150.58</ele>
        <time>2021-08-08T06:18:19Z</time>
      </trkpt>
      <trkpt lat="50.13414" lon="3.76044">
        <ele>150.58</ele>
        <time>2021-08-08T06:18:39Z</time>
      </trkpt>
      <trkpt lat="50.13415" lon="3.7604">
        <ele>150.58</ele>
        <time>2021-08-08T06:18:57Z</time>
      </trkpt>
      <trkpt lat="50.13418" lon="3.7604">
        <ele>150.58</ele>
        <time>2021-08-08T06:19:10Z</time>
      </trkpt>
      <trkpt lat="50.13416" lon="3.76039">
        <ele>150.58</ele>
        <time>2021-08-08T06:19:26Z</time>
      </trkpt>
      <trkpt lat="50.13416" lon="3.7604">
        <ele>150.58</ele>
        <time>2021-08-08T06:19:42Z</time>
      </trkpt>
      <trkpt lat="50.13421" lon="3.7604">
        <ele>150.1</ele>
        <time>2021-08-08T06:19:59Z</time>
      </trkpt>
      <trkpt lat="50.13418" lon="3.76039">
        <ele>150.1</ele>
        <time>2021-08-08T06:20:13Z</time>
      </trkpt>
      <trkpt lat="50.13417" lon="3.76044">
        <ele>150.1</ele>
        <time>2021-08-08T06:20:28Z</time>
      </trkpt>
      <trkpt lat="50.13419" lon="3.76043">
        <ele>150.1</ele>
        <time>2021-08-08T06:20:39Z</time>
      </trkpt>
      <trkpt lat="50.13419" lon="3.76041">
        <ele>150.1</ele>
        <time>2021-08-08T06:20:49Z</time>
      </trkpt>
      <trkpt lat="50.1342" lon="3.76038">
        <ele>150.1</ele>
        <time>2021-08-08T06:21:03Z</time>
      </trkpt>
      <trkpt lat="50.13421" lon="3.76039">
        <ele>150.1</ele>
        <time>2021-08-08T06:21:12Z</time>
      </trkpt>
      <trkpt lat="50.1342" lon="3.7604">
        <ele>150.1</ele>
        <time>2021-08-08T06:21:33Z</time>
      </trkpt>
      <trkpt lat="50.13419" lon="3.7604">
        <ele>150.1</ele>
        <time>2021-08-08T06:21:46Z</time>
      </trkpt>
      <trkpt lat="50.13417" lon="3.76041">
        <ele>150.1</ele>
        <time>2021-08-08T06:22:03Z</time>
      </trkpt>
      <trkpt lat="50.13413" lon="3.76043">
        <ele>150.1</ele>
        <time>2021-08-08T06:22:17Z</time>
      </trkpt>
      <trkpt lat="50.13413" lon="3.76041">
        <ele>150.1</ele>
        <time>2021-08-08T06:22:31Z</time>
      </trkpt>
      <trkpt lat="50.13417" lon="3.76037">
        <ele>150.1</ele>
        <time>2021-08-08T06:22:47Z</time>
      </trkpt>
      <trkpt lat="50.13416" lon="3.76038">
        <ele>150.1</ele>
        <time>2021-08-08T06:23:05Z</time>
      </trkpt>
      <trkpt lat="50.13411" lon="3.76044">
        <ele>150.1</ele>
        <time>2021-08-08T06:23:19Z</time>
      </trkpt>
      <trkpt lat="50.13413" lon="3.76045">
        <ele>150.1</ele>
        <time>2021-08-08T06:23:33Z</time>
      </trkpt>
      <trkpt lat="50.13413" lon="3.76042">
        <ele>149.62</ele>
        <time>2021-08-08T06:23:46Z</time>
      </trkpt>
      <trkpt lat="50.13413" lon="3.76041">
        <ele>149.62</ele>
        <time>2021-08-08T06:23:50Z</time>
      </trkpt>
      <trkpt lat="50.13412" lon="3.76042">
        <ele>149.62</ele>
        <time>2021-08-08T06:23:57Z</time>
      </trkpt>
      <trkpt lat="50.13412" lon="3.76041">
        <ele>149.62</ele>
        <time>2021-08-08T06:24:04Z</time>
      </trkpt>
      <trkpt lat="50.13411" lon="3.76042">
        <ele>149.62</ele>
        <time>2021-08-08T06:24:13Z</time>
      </trkpt>
      <trkpt lat="50.13414" lon="3.76043">
        <ele>149.62</ele>
        <time>2021-08-08T06:24:25Z</time>
      </trkpt>
      <trkpt lat="50.13415" lon="3.7604">
        <ele>149.62</ele>
        <time>2021-08-08T06:24:33Z</time>
      </trkpt>
      <trkpt lat="50.13414" lon="3.76037">
        <ele>149.62</ele>
        <time>2021-08-08T06:24:34Z</time>
      </trkpt>
      <trkpt lat="50.13415" lon="3.76033">
        <ele>149.62</ele>
        <time>2021-08-08T06:24:37Z</time>
      </trkpt>
      <trkpt lat="50.13418" lon="3.76039">
        <ele>149.62</ele>
        <time>2021-08-08T06:24:42Z</time>
      </trkpt>
      <trkpt lat="50.13423" lon="3.76053">
        <ele>149.62</ele>
        <time>2021-08-08T06:24:47Z</time>
      </trkpt>
      <trkpt lat="50.13433" lon="3.76096">
        <ele>149.62</ele>
        <time>2021-08-08T06:24:55Z</time>
      </trkpt>
      <trkpt lat="50.13443" lon="3.76133">
        <ele>149.62</ele>
        <time>2021-08-08T06:25:02Z</time>
      </trkpt>
      <trkpt lat="50.1345" lon="3.7614">
        <ele>151.06</ele>
        <time>2021-08-08T06:25:07Z</time>
      </trkpt>
      <trkpt lat="50.1345" lon="3.76138">
        <ele>151.06</ele>
        <time>2021-08-08T06:25:14Z</time>
      </trkpt>
      <trkpt lat="50.13451" lon="3.76138">
        <ele>151.06</ele>
        <time>2021-08-08T06:25:27Z</time>
      </trkpt>
      <trkpt lat="50.1345" lon="3.76142">
        <ele>151.06</ele>
        <time>2021-08-08T06:25:49Z</time>
      </trkpt>
      <trkpt lat="50.13452" lon="3.76145">
        <ele>151.54</ele>
        <time>2021-08-08T06:26:08Z</time>
      </trkpt>
      <trkpt lat="50.13454" lon="3.76145">
        <ele>151.54</ele>
        <time>2021-08-08T06:26:31Z</time>
      </trkpt>
      <trkpt lat="50.13454" lon="3.76142">
        <ele>151.54</ele>
        <time>2021-08-08T06:26:55Z</time>
      </trkpt>
      <trkpt lat="50.13452" lon="3.76138">
        <ele>151.54</ele>
        <time>2021-08-08T06:27:09Z</time>
      </trkpt>
      <trkpt lat="50.13452" lon="3.76136">
        <ele>151.54</ele>
        <time>2021-08-08T06:27:28Z</time>
      </trkpt>
      <trkpt lat="50.13452" lon="3.76137">
        <ele>151.54</ele>
        <time>2021-08-08T06:27:44Z</time>
      </trkpt>
      <trkpt lat="50.13451" lon="3.76138">
        <ele>151.54</ele>
        <time>2021-08-08T06:27:56Z</time>
      </trkpt>
      <trkpt lat="50.13452" lon="3.76138">
        <ele>151.54</ele>
        <time>2021-08-08T06:28:08Z</time>
      </trkpt>
      <trkpt lat="50.13452" lon="3.76141">
        <ele>151.54</ele>
        <time>2021-08-08T06:28:21Z</time>
      </trkpt>
      <trkpt lat="50.13452" lon="3.76143">
        <ele>151.54</ele>
        <time>2021-08-08T06:28:30Z</time>
      </trkpt>
      <trkpt lat="50.13452" lon="3.76142">
        <ele>151.54</ele>
        <time>2021-08-08T06:28:35Z</time>
      </trkpt>
      <trkpt lat="50.13452" lon="3.7614">
        <ele>151.54</ele>
        <time>2021-08-08T06:28:53Z</time>
      </trkpt>
      <trkpt lat="50.13454" lon="3.76137">
        <ele>151.54</ele>
        <time>2021-08-08T06:29:16Z</time>
      </trkpt>
      <trkpt lat="50.13453" lon="3.76137">
        <ele>151.54</ele>
        <time>2021-08-08T06:29:34Z</time>
      </trkpt>
      <trkpt lat="50.13453" lon="3.76137">
        <ele>151.54</ele>
        <time>2021-08-08T06:29:53Z</time>
      </trkpt>
      <trkpt lat="50.13453" lon="3.76138">
        <ele>151.54</ele>
        <time>2021-08-08T06:30:07Z</time>
      </trkpt>
      <trkpt lat="50.13453" lon="3.76139">
        <ele>152.03</ele>
        <time>2021-08-08T06:30:20Z</time>
      </trkpt>
      <trkpt lat="50.13453" lon="3.76138">
        <ele>151.54</ele>
        <time>2021-08-08T06:30:32Z</time>
      </trkpt>
      <trkpt lat="50.13453" lon="3.76139">
        <ele>151.06</ele>
        <time>2021-08-08T06:30:51Z</time>
      </trkpt>
      <trkpt lat="50.13454" lon="3.7614">
        <ele>151.06</ele>
        <time>2021-08-08T06:31:18Z</time>
      </trkpt>
      <trkpt lat="50.13453" lon="3.76139">
        <ele>151.06</ele>
        <time>2021-08-08T06:31:46Z</time>
      </trkpt>
      <trkpt lat="50.1345" lon="3.76141">
        <ele>151.06</ele>
        <time>2021-08-08T06:32:15Z</time>
      </trkpt>
      <trkpt lat="50.13452" lon="3.76139">
        <ele>151.06</ele>
        <time>2021-08-08T06:32:41Z</time>
      </trkpt>
      <trkpt lat="50.13455" lon="3.76138">
        <ele>150.58</ele>
        <time>2021-08-08T06:33:06Z</time>
      </trkpt>
      <trkpt lat="50.13453" lon="3.76138">
        <ele>150.58</ele>
        <time>2021-08-08T06:33:18Z</time>
      </trkpt>
      <trkpt lat="50.13452" lon="3.76139">
        <ele>150.58</ele>
        <time>2021-08-08T06:33:19Z</time>
      </trkpt>
      <trkpt lat="50.13445" lon="3.76132">
        <ele>150.1</ele>
        <time>2021-08-08T06:33:26Z</time>
      </trkpt>
      <trkpt lat="50.1344" lon="3.76114">
        <ele>149.14</ele>
        <time>2021-08-08T06:33:33Z</time>
      </trkpt>
      <trkpt lat="50.13435" lon="3.76084">
        <ele>148.66</ele>
        <time>2021-08-08T06:33:41Z</time>
      </trkpt>
      <trkpt lat="50.13428" lon="3.76055">
        <ele>148.18</ele>
        <time>2021-08-08T06:33:47Z</time>
      </trkpt>
      <trkpt lat="50.1342" lon="3.76028">
        <ele>147.7</ele>
        <time>2021-08-08T06:33:53Z</time>
      </trkpt>
      <trkpt lat="50.13413" lon="3.76015">
        <ele>146.74</ele>
        <time>2021-08-08T06:33:56Z</time>
      </trkpt>
      <trkpt lat="50.1341" lon="3.76009">
        <ele>146.26</ele>
        <time>2021-08-08T06:33:57Z</time>
      </trkpt>
      <trkpt lat="50.13402" lon="3.75988">
        <ele>145.3</ele>
        <time>2021-08-08T06:34:00Z</time>
      </trkpt>
      <trkpt lat="50.13401" lon="3.75979">
        <ele>144.34</ele>
        <time>2021-08-08T06:34:01Z</time>
      </trkpt>
      <trkpt lat="50.13399" lon="3.7597">
        <ele>144.34</ele>
        <time>2021-08-08T06:34:02Z</time>
      </trkpt>
      <trkpt lat="50.13398" lon="3.75961">
        <ele>143.37</ele>
        <time>2021-08-08T06:34:03Z</time>
      </trkpt>
      <trkpt lat="50.13398" lon="3.75952">
        <ele>142.89</ele>
        <time>2021-08-08T06:34:04Z</time>
      </trkpt>
      <trkpt lat="50.13397" lon="3.75942">
        <ele>142.89</ele>
        <time>2021-08-08T06:34:05Z</time>
      </trkpt>
      <trkpt lat="50.13394" lon="3.75911">
        <ele>141.45</ele>
        <time>2021-08-08T06:34:08Z</time>
      </trkpt>
      <trkpt lat="50.1339" lon="3.75848">
        <ele>139.05</ele>
        <time>2021-08-08T06:34:14Z</time>
      </trkpt>
      <trkpt lat="50.13389" lon="3.75838">
        <ele>138.57</ele>
        <time>2021-08-08T06:34:15Z</time>
      </trkpt>
      <trkpt lat="50.13387" lon="3.75829">
        <ele>138.57</ele>
        <time>2021-08-08T06:34:16Z</time>
      </trkpt>
      <trkpt lat="50.13384" lon="3.7582">
        <ele>138.57</ele>
        <time>2021-08-08T06:34:17Z</time>
      </trkpt>
      <trkpt lat="50.1338" lon="3.75812">
        <ele>138.09</ele>
        <time>2021-08-08T06:34:18Z</time>
      </trkpt>
      <trkpt lat="50.13375" lon="3.75805">
        <ele>137.13</ele>
        <time>2021-08-08T06:34:19Z</time>
      </trkpt>
      <trkpt lat="50.13371" lon="3.75799">
        <ele>137.13</ele>
        <time>2021-08-08T06:34:20Z</time>
      </trkpt>
      <trkpt lat="50.13366" lon="3.75794">
        <ele>137.13</ele>
        <time>2021-08-08T06:34:21Z</time>
      </trkpt>
      <trkpt lat="50.13361" lon="3.7579">
        <ele>136.64</ele>
        <time>2021-08-08T06:34:22Z</time>
      </trkpt>
      <trkpt lat="50.13356" lon="3.75785">
        <ele>136.16</ele>
        <time>2021-08-08T06:34:23Z</time>
      </trkpt>
      <trkpt lat="50.1335" lon="3.75783">
        <ele>136.16</ele>
        <time>2021-08-08T06:34:24Z</time>
      </trkpt>
      <trkpt lat="50.13344" lon="3.75785">
        <ele>136.16</ele>
        <time>2021-08-08T06:34:25Z</time>
      </trkpt>
      <trkpt lat="50.13338" lon="3.75787">
        <ele>136.16</ele>
        <time>2021-08-08T06:34:26Z</time>
      </trkpt>
      <trkpt lat="50.13328" lon="3.75791">
        <ele>135.68</ele>
        <time>2021-08-08T06:34:28Z</time>
      </trkpt>
      <trkpt lat="50.13322" lon="3.75792">
        <ele>135.68</ele>
        <time>2021-08-08T06:34:29Z</time>
      </trkpt>
      <trkpt lat="50.13282" lon="3.75812">
        <ele>134.24</ele>
        <time>2021-08-08T06:34:36Z</time>
      </trkpt>
      <trkpt lat="50.13277" lon="3.75817">
        <ele>134.24</ele>
        <time>2021-08-08T06:34:37Z</time>
      </trkpt>
      <trkpt lat="50.13274" lon="3.75824">
        <ele>134.24</ele>
        <time>2021-08-08T06:34:38Z</time>
      </trkpt>
      <trkpt lat="50.13271" lon="3.75832">
        <ele>134.24</ele>
        <time>2021-08-08T06:34:39Z</time>
      </trkpt>
      <trkpt lat="50.13269" lon="3.7584">
        <ele>134.24</ele>
        <time>2021-08-08T06:34:40Z</time>
      </trkpt>
      <trkpt lat="50.13268" lon="3.75848">
        <ele>134.24</ele>
        <time>2021-08-08T06:34:41Z</time>
      </trkpt>
      <trkpt lat="50.13267" lon="3.75857">
        <ele>134.24</ele>
        <time>2021-08-08T06:34:42Z</time>
      </trkpt>
      <trkpt lat="50.13265" lon="3.7588">
        <ele>135.2</ele>
        <time>2021-08-08T06:34:45Z</time>
      </trkpt>
      <trkpt lat="50.13262" lon="3.75884">
        <ele>135.2</ele>
        <time>2021-08-08T06:34:46Z</time>
      </trkpt>
      <trkpt lat="50.13258" lon="3.75887">
        <ele>136.16</ele>
        <time>2021-08-08T06:34:47Z</time>
      </trkpt>
      <trkpt lat="50.13234" lon="3.75902">
        <ele>136.16</ele>
        <time>2021-08-08T06:34:53Z</time>
      </trkpt>
      <trkpt lat="50.13213" lon="3.75918">
        <ele>136.16</ele>
        <time>2021-08-08T06:34:58Z</time>
      </trkpt>
      <trkpt lat="50.13209" lon="3.75921">
        <ele>134.72</ele>
        <time>2021-08-08T06:34:59Z</time>
      </trkpt>
      <trkpt lat="50.13204" lon="3.75923">
        <ele>134.72</ele>
        <time>2021-08-08T06:35:00Z</time>
      </trkpt>
      <trkpt lat="50.132" lon="3.75926">
        <ele>134.72</ele>
        <time>2021-08-08T06:35:01Z</time>
      </trkpt>
      <trkpt lat="50.13164" lon="3.75942">
        <ele>134.24</ele>
        <time>2021-08-08T06:35:09Z</time>
      </trkpt>
      <trkpt lat="50.13143" lon="3.75959">
        <ele>134.24</ele>
        <time>2021-08-08T06:35:14Z</time>
      </trkpt>
      <trkpt lat="50.13139" lon="3.75963">
        <ele>134.24</ele>
        <time>2021-08-08T06:35:15Z</time>
      </trkpt>
      <trkpt lat="50.13134" lon="3.75967">
        <ele>134.24</ele>
        <time>2021-08-08T06:35:16Z</time>
      </trkpt>
      <trkpt lat="50.13114" lon="3.75985">
        <ele>134.24</ele>
        <time>2021-08-08T06:35:21Z</time>
      </trkpt>
      <trkpt lat="50.13105" lon="3.75991">
        <ele>134.24</ele>
        <time>2021-08-08T06:35:23Z</time>
      </trkpt>
      <trkpt lat="50.13101" lon="3.75993">
        <ele>134.24</ele>
        <time>2021-08-08T06:35:24Z</time>
      </trkpt>
      <trkpt lat="50.13057" lon="3.75999">
        <ele>133.76</ele>
        <time>2021-08-08T06:35:33Z</time>
      </trkpt>
      <trkpt lat="50.13001" lon="3.76005">
        <ele>133.76</ele>
        <time>2021-08-08T06:35:45Z</time>
      </trkpt>
      <trkpt lat="50.12973" lon="3.76007">
        <ele>135.2</ele>
        <time>2021-08-08T06:35:51Z</time>
      </trkpt>
      <trkpt lat="50.1293" lon="3.76005">
        <ele>134.24</ele>
        <time>2021-08-08T06:36:00Z</time>
      </trkpt>
      <trkpt lat="50.12883" lon="3.75997">
        <ele>135.2</ele>
        <time>2021-08-08T06:36:10Z</time>
      </trkpt>
      <trkpt lat="50.1287" lon="3.75992">
        <ele>135.2</ele>
        <time>2021-08-08T06:36:13Z</time>
      </trkpt>
      <trkpt lat="50.12865" lon="3.75992">
        <ele>135.68</ele>
        <time>2021-08-08T06:36:14Z</time>
      </trkpt>
      <trkpt lat="50.1286" lon="3.75993">
        <ele>135.2</ele>
        <time>2021-08-08T06:36:15Z</time>
      </trkpt>
      <trkpt lat="50.12856" lon="3.75995">
        <ele>135.2</ele>
        <time>2021-08-08T06:36:16Z</time>
      </trkpt>
      <trkpt lat="50.12851" lon="3.76">
        <ele>135.2</ele>
        <time>2021-08-08T06:36:17Z</time>
      </trkpt>
      <trkpt lat="50.12848" lon="3.76003">
        <ele>135.2</ele>
        <time>2021-08-08T06:36:18Z</time>
      </trkpt>
      <trkpt lat="50.12844" lon="3.76008">
        <ele>135.2</ele>
        <time>2021-08-08T06:36:19Z</time>
      </trkpt>
      <trkpt lat="50.1284" lon="3.76014">
        <ele>135.2</ele>
        <time>2021-08-08T06:36:20Z</time>
      </trkpt>
      <trkpt lat="50.12837" lon="3.7602">
        <ele>135.2</ele>
        <time>2021-08-08T06:36:21Z</time>
      </trkpt>
      <trkpt lat="50.12832" lon="3.76034">
        <ele>135.2</ele>
        <time>2021-08-08T06:36:23Z</time>
      </trkpt>
      <trkpt lat="50.12825" lon="3.76056">
        <ele>134.24</ele>
        <time>2021-08-08T06:36:26Z</time>
      </trkpt>
      <trkpt lat="50.12813" lon="3.76126">
        <ele>134.24</ele>
        <time>2021-08-08T06:36:35Z</time>
      </trkpt>
      <trkpt lat="50.12804" lon="3.762">
        <ele>134.24</ele>
        <time>2021-08-08T06:36:45Z</time>
      </trkpt>
      <trkpt lat="50.128" lon="3.76231">
        <ele>134.24</ele>
        <time>2021-08-08T06:36:49Z</time>
      </trkpt>
      <trkpt lat="50.12796" lon="3.76261">
        <ele>134.24</ele>
        <time>2021-08-08T06:36:53Z</time>
      </trkpt>
      <trkpt lat="50.12794" lon="3.76268">
        <ele>134.24</ele>
        <time>2021-08-08T06:36:54Z</time>
      </trkpt>
      <trkpt lat="50.12791" lon="3.76275">
        <ele>134.24</ele>
        <time>2021-08-08T06:36:55Z</time>
      </trkpt>
      <trkpt lat="50.12788" lon="3.76281">
        <ele>135.2</ele>
        <time>2021-08-08T06:36:56Z</time>
      </trkpt>
      <trkpt lat="50.12784" lon="3.76286">
        <ele>135.2</ele>
        <time>2021-08-08T06:36:57Z</time>
      </trkpt>
      <trkpt lat="50.1278" lon="3.7629">
        <ele>135.2</ele>
        <time>2021-08-08T06:36:58Z</time>
      </trkpt>
      <trkpt lat="50.12776" lon="3.76293">
        <ele>135.2</ele>
        <time>2021-08-08T06:36:59Z</time>
      </trkpt>
      <trkpt lat="50.12771" lon="3.76295">
        <ele>135.2</ele>
        <time>2021-08-08T06:37:00Z</time>
      </trkpt>
      <trkpt lat="50.12734" lon="3.76313">
        <ele>136.16</ele>
        <time>2021-08-08T06:37:09Z</time>
      </trkpt>
      <trkpt lat="50.12683" lon="3.76337">
        <ele>136.64</ele>
        <time>2021-08-08T06:37:21Z</time>
      </trkpt>
      <trkpt lat="50.12643" lon="3.76359">
        <ele>135.2</ele>
        <time>2021-08-08T06:37:30Z</time>
      </trkpt>
      <trkpt lat="50.12631" lon="3.76367">
        <ele>136.16</ele>
        <time>2021-08-08T06:37:33Z</time>
      </trkpt>
      <trkpt lat="50.1259" lon="3.76401">
        <ele>136.64</ele>
        <time>2021-08-08T06:37:43Z</time>
      </trkpt>
      <trkpt lat="50.12545" lon="3.76411">
        <ele>137.13</ele>
        <time>2021-08-08T06:37:53Z</time>
      </trkpt>
      <trkpt lat="50.12488" lon="3.76412">
        <ele>137.61</ele>
        <time>2021-08-08T06:38:05Z</time>
      </trkpt>
      <trkpt lat="50.12457" lon="3.76401">
        <ele>138.09</ele>
        <time>2021-08-08T06:38:12Z</time>
      </trkpt>
      <trkpt lat="50.12426" lon="3.76379">
        <ele>138.09</ele>
        <time>2021-08-08T06:38:19Z</time>
      </trkpt>
      <trkpt lat="50.12422" lon="3.76375">
        <ele>138.09</ele>
        <time>2021-08-08T06:38:20Z</time>
      </trkpt>
      <trkpt lat="50.12418" lon="3.7637">
        <ele>138.09</ele>
        <time>2021-08-08T06:38:21Z</time>
      </trkpt>
      <trkpt lat="50.12415" lon="3.76366">
        <ele>138.09</ele>
        <time>2021-08-08T06:38:22Z</time>
      </trkpt>
      <trkpt lat="50.12413" lon="3.7636">
        <ele>138.09</ele>
        <time>2021-08-08T06:38:23Z</time>
      </trkpt>
      <trkpt lat="50.1241" lon="3.76354">
        <ele>136.16</ele>
        <time>2021-08-08T06:38:24Z</time>
      </trkpt>
      <trkpt lat="50.12408" lon="3.76345">
        <ele>136.16</ele>
        <time>2021-08-08T06:38:25Z</time>
      </trkpt>
      <trkpt lat="50.12406" lon="3.76338">
        <ele>136.16</ele>
        <time>2021-08-08T06:38:26Z</time>
      </trkpt>
      <trkpt lat="50.12405" lon="3.7633">
        <ele>136.16</ele>
        <time>2021-08-08T06:38:27Z</time>
      </trkpt>
      <trkpt lat="50.12403" lon="3.76322">
        <ele>136.16</ele>
        <time>2021-08-08T06:38:28Z</time>
      </trkpt>
      <trkpt lat="50.12401" lon="3.76315">
        <ele>136.16</ele>
        <time>2021-08-08T06:38:29Z</time>
      </trkpt>
      <trkpt lat="50.12399" lon="3.76308">
        <ele>135.68</ele>
        <time>2021-08-08T06:38:30Z</time>
      </trkpt>
      <trkpt lat="50.12397" lon="3.76301">
        <ele>135.68</ele>
        <time>2021-08-08T06:38:31Z</time>
      </trkpt>
      <trkpt lat="50.12394" lon="3.76295">
        <ele>135.68</ele>
        <time>2021-08-08T06:38:32Z</time>
      </trkpt>
      <trkpt lat="50.1239" lon="3.76289">
        <ele>135.2</ele>
        <time>2021-08-08T06:38:33Z</time>
      </trkpt>
      <trkpt lat="50.12376" lon="3.76269">
        <ele>135.2</ele>
        <time>2021-08-08T06:38:37Z</time>
      </trkpt>
      <trkpt lat="50.12372" lon="3.76266">
        <ele>135.2</ele>
        <time>2021-08-08T06:38:38Z</time>
      </trkpt>
      <trkpt lat="50.12367" lon="3.76265">
        <ele>135.2</ele>
        <time>2021-08-08T06:38:39Z</time>
      </trkpt>
      <trkpt lat="50.12362" lon="3.76265">
        <ele>135.2</ele>
        <time>2021-08-08T06:38:40Z</time>
      </trkpt>
      <trkpt lat="50.12357" lon="3.76265">
        <ele>135.2</ele>
        <time>2021-08-08T06:38:41Z</time>
      </trkpt>
      <trkpt lat="50.12353" lon="3.76266">
        <ele>135.2</ele>
        <time>2021-08-08T06:38:42Z</time>
      </trkpt>
      <trkpt lat="50.12313" lon="3.76267">
        <ele>135.2</ele>
        <time>2021-08-08T06:38:50Z</time>
      </trkpt>
      <trkpt lat="50.12254" lon="3.76264">
        <ele>135.2</ele>
        <time>2021-08-08T06:39:02Z</time>
      </trkpt>
      <trkpt lat="50.12226" lon="3.76263">
        <ele>135.68</ele>
        <time>2021-08-08T06:39:08Z</time>
      </trkpt>
      <trkpt lat="50.12221" lon="3.76265">
        <ele>135.68</ele>
        <time>2021-08-08T06:39:09Z</time>
      </trkpt>
      <trkpt lat="50.12217" lon="3.76268">
        <ele>135.68</ele>
        <time>2021-08-08T06:39:10Z</time>
      </trkpt>
      <trkpt lat="50.12213" lon="3.76271">
        <ele>135.68</ele>
        <time>2021-08-08T06:39:11Z</time>
      </trkpt>
      <trkpt lat="50.1221" lon="3.76275">
        <ele>135.68</ele>
        <time>2021-08-08T06:39:12Z</time>
      </trkpt>
      <trkpt lat="50.12206" lon="3.7628">
        <ele>135.68</ele>
        <time>2021-08-08T06:39:13Z</time>
      </trkpt>
      <trkpt lat="50.12192" lon="3.76298">
        <ele>136.64</ele>
        <time>2021-08-08T06:39:17Z</time>
      </trkpt>
      <trkpt lat="50.12188" lon="3.76301">
        <ele>136.64</ele>
        <time>2021-08-08T06:39:18Z</time>
      </trkpt>
      <trkpt lat="50.12156" lon="3.76321">
        <ele>136.64</ele>
        <time>2021-08-08T06:39:25Z</time>
      </trkpt>
      <trkpt lat="50.12141" lon="3.7633">
        <ele>137.61</ele>
        <time>2021-08-08T06:39:29Z</time>
      </trkpt>
      <trkpt lat="50.12106" lon="3.76349">
        <ele>138.09</ele>
        <time>2021-08-08T06:39:37Z</time>
      </trkpt>
      <trkpt lat="50.12057" lon="3.76361">
        <ele>138.57</ele>
        <time>2021-08-08T06:39:47Z</time>
      </trkpt>
      <trkpt lat="50.12014" lon="3.76369">
        <ele>138.57</ele>
        <time>2021-08-08T06:39:56Z</time>
      </trkpt>
      <trkpt lat="50.11975" lon="3.76388">
        <ele>139.05</ele>
        <time>2021-08-08T06:40:05Z</time>
      </trkpt>
      <trkpt lat="50.11971" lon="3.76395">
        <ele>139.53</ele>
        <time>2021-08-08T06:40:07Z</time>
      </trkpt>
      <trkpt lat="50.11971" lon="3.76401">
        <ele>139.53</ele>
        <time>2021-08-08T06:40:08Z</time>
      </trkpt>
      <trkpt lat="50.11978" lon="3.76444">
        <ele>139.53</ele>
        <time>2021-08-08T06:40:15Z</time>
      </trkpt>
      <trkpt lat="50.11996" lon="3.76514">
        <ele>140.01</ele>
        <time>2021-08-08T06:40:26Z</time>
      </trkpt>
      <trkpt lat="50.12006" lon="3.76587">
        <ele>140.97</ele>
        <time>2021-08-08T06:40:37Z</time>
      </trkpt>
      <trkpt lat="50.12011" lon="3.76653">
        <ele>141.93</ele>
        <time>2021-08-08T06:40:46Z</time>
      </trkpt>
      <trkpt lat="50.12018" lon="3.76752">
        <ele>139.53</ele>
        <time>2021-08-08T06:40:57Z</time>
      </trkpt>
      <trkpt lat="50.12015" lon="3.76838">
        <ele>138.57</ele>
        <time>2021-08-08T06:41:06Z</time>
      </trkpt>
      <trkpt lat="50.12011" lon="3.76874">
        <ele>138.57</ele>
        <time>2021-08-08T06:41:10Z</time>
      </trkpt>
      <trkpt lat="50.11992" lon="3.76949">
        <ele>138.09</ele>
        <time>2021-08-08T06:41:19Z</time>
      </trkpt>
      <trkpt lat="50.11984" lon="3.76978">
        <ele>138.09</ele>
        <time>2021-08-08T06:41:23Z</time>
      </trkpt>
      <trkpt lat="50.11975" lon="3.7704">
        <ele>138.09</ele>
        <time>2021-08-08T06:41:31Z</time>
      </trkpt>
      <trkpt lat="50.11974" lon="3.77072">
        <ele>139.53</ele>
        <time>2021-08-08T06:41:35Z</time>
      </trkpt>
      <trkpt lat="50.11977" lon="3.77141">
        <ele>140.97</ele>
        <time>2021-08-08T06:41:44Z</time>
      </trkpt>
      <trkpt lat="50.11974" lon="3.77233">
        <ele>141.93</ele>
        <time>2021-08-08T06:41:56Z</time>
      </trkpt>
      <trkpt lat="50.11971" lon="3.77283">
        <ele>143.37</ele>
        <time>2021-08-08T06:42:03Z</time>
      </trkpt>
      <trkpt lat="50.11972" lon="3.7729">
        <ele>143.85</ele>
        <time>2021-08-08T06:42:04Z</time>
      </trkpt>
      <trkpt lat="50.11974" lon="3.77297">
        <ele>143.37</ele>
        <time>2021-08-08T06:42:05Z</time>
      </trkpt>
      <trkpt lat="50.11976" lon="3.77305">
        <ele>143.37</ele>
        <time>2021-08-08T06:42:06Z</time>
      </trkpt>
      <trkpt lat="50.11979" lon="3.77311">
        <ele>143.37</ele>
        <time>2021-08-08T06:42:07Z</time>
      </trkpt>
      <trkpt lat="50.11984" lon="3.77317">
        <ele>143.37</ele>
        <time>2021-08-08T06:42:08Z</time>
      </trkpt>
      <trkpt lat="50.11988" lon="3.77322">
        <ele>143.37</ele>
        <time>2021-08-08T06:42:09Z</time>
      </trkpt>
      <trkpt lat="50.11992" lon="3.77327">
        <ele>143.37</ele>
        <time>2021-08-08T06:42:10Z</time>
      </trkpt>
      <trkpt lat="50.11998" lon="3.77332">
        <ele>143.37</ele>
        <time>2021-08-08T06:42:11Z</time>
      </trkpt>
      <trkpt lat="50.12003" lon="3.77336">
        <ele>143.37</ele>
        <time>2021-08-08T06:42:12Z</time>
      </trkpt>
      <trkpt lat="50.12024" lon="3.77355">
        <ele>142.41</ele>
        <time>2021-08-08T06:42:16Z</time>
      </trkpt>
      <trkpt lat="50.12028" lon="3.77361">
        <ele>142.41</ele>
        <time>2021-08-08T06:42:17Z</time>
      </trkpt>
      <trkpt lat="50.12032" lon="3.77368">
        <ele>142.41</ele>
        <time>2021-08-08T06:42:18Z</time>
      </trkpt>
      <trkpt lat="50.12036" lon="3.77376">
        <ele>142.41</ele>
        <time>2021-08-08T06:42:19Z</time>
      </trkpt>
      <trkpt lat="50.12038" lon="3.77385">
        <ele>141.93</ele>
        <time>2021-08-08T06:42:20Z</time>
      </trkpt>
      <trkpt lat="50.1204" lon="3.77394">
        <ele>141.93</ele>
        <time>2021-08-08T06:42:21Z</time>
      </trkpt>
      <trkpt lat="50.1204" lon="3.77403">
        <ele>142.41</ele>
        <time>2021-08-08T06:42:22Z</time>
      </trkpt>
      <trkpt lat="50.1204" lon="3.77413">
        <ele>142.41</ele>
        <time>2021-08-08T06:42:23Z</time>
      </trkpt>
      <trkpt lat="50.1204" lon="3.77422">
        <ele>142.41</ele>
        <time>2021-08-08T06:42:24Z</time>
      </trkpt>
      <trkpt lat="50.12039" lon="3.77431">
        <ele>142.41</ele>
        <time>2021-08-08T06:42:25Z</time>
      </trkpt>
      <trkpt lat="50.1203" lon="3.77525">
        <ele>142.41</ele>
        <time>2021-08-08T06:42:36Z</time>
      </trkpt>
      <trkpt lat="50.12019" lon="3.77622">
        <ele>143.37</ele>
        <time>2021-08-08T06:42:48Z</time>
      </trkpt>
      <trkpt lat="50.12006" lon="3.77703">
        <ele>144.34</ele>
        <time>2021-08-08T06:42:58Z</time>
      </trkpt>
      <trkpt lat="50.11989" lon="3.77777">
        <ele>145.78</ele>
        <time>2021-08-08T06:43:08Z</time>
      </trkpt>
      <trkpt lat="50.11975" lon="3.7786">
        <ele>146.26</ele>
        <time>2021-08-08T06:43:19Z</time>
      </trkpt>
      <trkpt lat="50.11972" lon="3.77886">
        <ele>144.82</ele>
        <time>2021-08-08T06:43:22Z</time>
      </trkpt>
      <trkpt lat="50.11955" lon="3.77956">
        <ele>143.85</ele>
        <time>2021-08-08T06:43:30Z</time>
      </trkpt>
      <trkpt lat="50.11936" lon="3.78037">
        <ele>142.41</ele>
        <time>2021-08-08T06:43:39Z</time>
      </trkpt>
      <trkpt lat="50.11925" lon="3.78136">
        <ele>140.01</ele>
        <time>2021-08-08T06:43:48Z</time>
      </trkpt>
      <trkpt lat="50.11906" lon="3.78243">
        <ele>138.57</ele>
        <time>2021-08-08T06:43:58Z</time>
      </trkpt>
      <trkpt lat="50.11885" lon="3.78332">
        <ele>137.61</ele>
        <time>2021-08-08T06:44:07Z</time>
      </trkpt>
      <trkpt lat="50.11884" lon="3.78342">
        <ele>137.61</ele>
        <time>2021-08-08T06:44:08Z</time>
      </trkpt>
      <trkpt lat="50.11885" lon="3.78352">
        <ele>137.13</ele>
        <time>2021-08-08T06:44:09Z</time>
      </trkpt>
      <trkpt lat="50.11886" lon="3.78363">
        <ele>137.13</ele>
        <time>2021-08-08T06:44:10Z</time>
      </trkpt>
      <trkpt lat="50.11888" lon="3.78373">
        <ele>136.64</ele>
        <time>2021-08-08T06:44:11Z</time>
      </trkpt>
      <trkpt lat="50.11891" lon="3.78383">
        <ele>136.64</ele>
        <time>2021-08-08T06:44:12Z</time>
      </trkpt>
      <trkpt lat="50.119" lon="3.78424">
        <ele>136.16</ele>
        <time>2021-08-08T06:44:16Z</time>
      </trkpt>
      <trkpt lat="50.11901" lon="3.78435">
        <ele>136.16</ele>
        <time>2021-08-08T06:44:17Z</time>
      </trkpt>
      <trkpt lat="50.119" lon="3.78445">
        <ele>135.68</ele>
        <time>2021-08-08T06:44:18Z</time>
      </trkpt>
      <trkpt lat="50.11899" lon="3.78455">
        <ele>135.68</ele>
        <time>2021-08-08T06:44:19Z</time>
      </trkpt>
      <trkpt lat="50.11897" lon="3.78465">
        <ele>135.68</ele>
        <time>2021-08-08T06:44:20Z</time>
      </trkpt>
      <trkpt lat="50.11894" lon="3.78474">
        <ele>135.68</ele>
        <time>2021-08-08T06:44:21Z</time>
      </trkpt>
      <trkpt lat="50.11886" lon="3.78502">
        <ele>135.68</ele>
        <time>2021-08-08T06:44:24Z</time>
      </trkpt>
      <trkpt lat="50.11871" lon="3.78535">
        <ele>135.68</ele>
        <time>2021-08-08T06:44:28Z</time>
      </trkpt>
      <trkpt lat="50.11857" lon="3.78559">
        <ele>135.68</ele>
        <time>2021-08-08T06:44:31Z</time>
      </trkpt>
      <trkpt lat="50.11855" lon="3.78567">
        <ele>135.68</ele>
        <time>2021-08-08T06:44:32Z</time>
      </trkpt>
      <trkpt lat="50.1183" lon="3.78659">
        <ele>137.61</ele>
        <time>2021-08-08T06:44:43Z</time>
      </trkpt>
      <trkpt lat="50.11808" lon="3.78742">
        <ele>138.09</ele>
        <time>2021-08-08T06:44:53Z</time>
      </trkpt>
      <trkpt lat="50.11781" lon="3.78838">
        <ele>138.57</ele>
        <time>2021-08-08T06:45:04Z</time>
      </trkpt>
      <trkpt lat="50.11756" lon="3.78937">
        <ele>138.57</ele>
        <time>2021-08-08T06:45:15Z</time>
      </trkpt>
      <trkpt lat="50.11731" lon="3.79047">
        <ele>137.13</ele>
        <time>2021-08-08T06:45:27Z</time>
      </trkpt>
      <trkpt lat="50.11725" lon="3.79084">
        <ele>137.13</ele>
        <time>2021-08-08T06:45:31Z</time>
      </trkpt>
      <trkpt lat="50.1172" lon="3.7915">
        <ele>137.13</ele>
        <time>2021-08-08T06:45:38Z</time>
      </trkpt>
      <trkpt lat="50.1172" lon="3.79159">
        <ele>137.13</ele>
        <time>2021-08-08T06:45:39Z</time>
      </trkpt>
      <trkpt lat="50.11709" lon="3.7925">
        <ele>137.13</ele>
        <time>2021-08-08T06:45:49Z</time>
      </trkpt>
      <trkpt lat="50.11695" lon="3.79342">
        <ele>137.13</ele>
        <time>2021-08-08T06:46:00Z</time>
      </trkpt>
      <trkpt lat="50.11682" lon="3.79418">
        <ele>138.57</ele>
        <time>2021-08-08T06:46:09Z</time>
      </trkpt>
      <trkpt lat="50.11668" lon="3.79502">
        <ele>138.57</ele>
        <time>2021-08-08T06:46:18Z</time>
      </trkpt>
      <trkpt lat="50.11648" lon="3.79602">
        <ele>137.13</ele>
        <time>2021-08-08T06:46:29Z</time>
      </trkpt>
      <trkpt lat="50.11626" lon="3.79677">
        <ele>136.64</ele>
        <time>2021-08-08T06:46:38Z</time>
      </trkpt>
      <trkpt lat="50.11624" lon="3.79685">
        <ele>136.64</ele>
        <time>2021-08-08T06:46:39Z</time>
      </trkpt>
      <trkpt lat="50.11618" lon="3.797">
        <ele>137.61</ele>
        <time>2021-08-08T06:46:41Z</time>
      </trkpt>
      <trkpt lat="50.11589" lon="3.7976">
        <ele>139.05</ele>
        <time>2021-08-08T06:46:49Z</time>
      </trkpt>
      <trkpt lat="50.11568" lon="3.79804">
        <ele>140.01</ele>
        <time>2021-08-08T06:46:55Z</time>
      </trkpt>
      <trkpt lat="50.11542" lon="3.79867">
        <ele>140.01</ele>
        <time>2021-08-08T06:47:03Z</time>
      </trkpt>
      <trkpt lat="50.11513" lon="3.79931">
        <ele>140.01</ele>
        <time>2021-08-08T06:47:12Z</time>
      </trkpt>
      <trkpt lat="50.11479" lon="3.79992">
        <ele>140.01</ele>
        <time>2021-08-08T06:47:21Z</time>
      </trkpt>
      <trkpt lat="50.11428" lon="3.80059">
        <ele>140.01</ele>
        <time>2021-08-08T06:47:32Z</time>
      </trkpt>
      <trkpt lat="50.114" lon="3.80116">
        <ele>140.01</ele>
        <time>2021-08-08T06:47:40Z</time>
      </trkpt>
      <trkpt lat="50.1138" lon="3.80184">
        <ele>140.49</ele>
        <time>2021-08-08T06:47:48Z</time>
      </trkpt>
      <trkpt lat="50.11369" lon="3.80241">
        <ele>140.49</ele>
        <time>2021-08-08T06:47:54Z</time>
      </trkpt>
      <trkpt lat="50.11366" lon="3.80249">
        <ele>140.49</ele>
        <time>2021-08-08T06:47:55Z</time>
      </trkpt>
      <trkpt lat="50.11363" lon="3.80256">
        <ele>140.49</ele>
        <time>2021-08-08T06:47:56Z</time>
      </trkpt>
      <trkpt lat="50.11358" lon="3.80263">
        <ele>140.49</ele>
        <time>2021-08-08T06:47:57Z</time>
      </trkpt>
      <trkpt lat="50.11354" lon="3.80269">
        <ele>140.49</ele>
        <time>2021-08-08T06:47:58Z</time>
      </trkpt>
      <trkpt lat="50.11348" lon="3.80275">
        <ele>140.49</ele>
        <time>2021-08-08T06:47:59Z</time>
      </trkpt>
      <trkpt lat="50.11311" lon="3.80319">
        <ele>140.49</ele>
        <time>2021-08-08T06:48:07Z</time>
      </trkpt>
      <trkpt lat="50.11268" lon="3.8037">
        <ele>139.53</ele>
        <time>2021-08-08T06:48:17Z</time>
      </trkpt>
      <trkpt lat="50.11266" lon="3.80376">
        <ele>139.53</ele>
        <time>2021-08-08T06:48:18Z</time>
      </trkpt>
      <trkpt lat="50.11267" lon="3.80382">
        <ele>139.53</ele>
        <time>2021-08-08T06:48:19Z</time>
      </trkpt>
      <trkpt lat="50.11269" lon="3.80388">
        <ele>139.53</ele>
        <time>2021-08-08T06:48:20Z</time>
      </trkpt>
      <trkpt lat="50.11273" lon="3.80391">
        <ele>139.53</ele>
        <time>2021-08-08T06:48:21Z</time>
      </trkpt>
      <trkpt lat="50.11277" lon="3.80395">
        <ele>139.53</ele>
        <time>2021-08-08T06:48:22Z</time>
      </trkpt>
      <trkpt lat="50.11282" lon="3.80398">
        <ele>140.97</ele>
        <time>2021-08-08T06:48:23Z</time>
      </trkpt>
      <trkpt lat="50.11329" lon="3.80436">
        <ele>140.97</ele>
        <time>2021-08-08T06:48:32Z</time>
      </trkpt>
      <trkpt lat="50.11356" lon="3.80458">
        <ele>140.97</ele>
        <time>2021-08-08T06:48:37Z</time>
      </trkpt>
      <trkpt lat="50.11371" lon="3.80476">
        <ele>140.97</ele>
        <time>2021-08-08T06:48:40Z</time>
      </trkpt>
      <trkpt lat="50.11375" lon="3.80484">
        <ele>139.53</ele>
        <time>2021-08-08T06:48:41Z</time>
      </trkpt>
      <trkpt lat="50.11378" lon="3.80492">
        <ele>139.53</ele>
        <time>2021-08-08T06:48:42Z</time>
      </trkpt>
      <trkpt lat="50.1138" lon="3.80501">
        <ele>138.57</ele>
        <time>2021-08-08T06:48:43Z</time>
      </trkpt>
      <trkpt lat="50.11381" lon="3.8051">
        <ele>138.57</ele>
        <time>2021-08-08T06:48:44Z</time>
      </trkpt>
      <trkpt lat="50.11381" lon="3.8052">
        <ele>138.57</ele>
        <time>2021-08-08T06:48:45Z</time>
      </trkpt>
      <trkpt lat="50.11381" lon="3.80529">
        <ele>138.57</ele>
        <time>2021-08-08T06:48:46Z</time>
      </trkpt>
      <trkpt lat="50.11383" lon="3.80603">
        <ele>140.49</ele>
        <time>2021-08-08T06:48:54Z</time>
      </trkpt>
      <trkpt lat="50.11399" lon="3.80677">
        <ele>139.05</ele>
        <time>2021-08-08T06:49:02Z</time>
      </trkpt>
      <trkpt lat="50.11426" lon="3.80754">
        <ele>139.05</ele>
        <time>2021-08-08T06:49:11Z</time>
      </trkpt>
      <trkpt lat="50.11472" lon="3.8087">
        <ele>139.05</ele>
        <time>2021-08-08T06:49:25Z</time>
      </trkpt>
      <trkpt lat="50.11502" lon="3.80953">
        <ele>140.01</ele>
        <time>2021-08-08T06:49:35Z</time>
      </trkpt>
      <trkpt lat="50.11512" lon="3.8098">
        <ele>138.57</ele>
        <time>2021-08-08T06:49:38Z</time>
      </trkpt>
      <trkpt lat="50.11536" lon="3.81039">
        <ele>138.57</ele>
        <time>2021-08-08T06:49:45Z</time>
      </trkpt>
      <trkpt lat="50.11539" lon="3.81048">
        <ele>138.57</ele>
        <time>2021-08-08T06:49:46Z</time>
      </trkpt>
      <trkpt lat="50.11541" lon="3.81057">
        <ele>138.57</ele>
        <time>2021-08-08T06:49:47Z</time>
      </trkpt>
      <trkpt lat="50.11543" lon="3.81064">
        <ele>138.57</ele>
        <time>2021-08-08T06:49:48Z</time>
      </trkpt>
      <trkpt lat="50.11543" lon="3.81073">
        <ele>138.57</ele>
        <time>2021-08-08T06:49:49Z</time>
      </trkpt>
      <trkpt lat="50.11541" lon="3.81081">
        <ele>138.57</ele>
        <time>2021-08-08T06:49:50Z</time>
      </trkpt>
      <trkpt lat="50.11539" lon="3.81087">
        <ele>138.57</ele>
        <time>2021-08-08T06:49:51Z</time>
      </trkpt>
      <trkpt lat="50.11535" lon="3.81092">
        <ele>138.57</ele>
        <time>2021-08-08T06:49:52Z</time>
      </trkpt>
      <trkpt lat="50.11531" lon="3.81098">
        <ele>138.57</ele>
        <time>2021-08-08T06:49:53Z</time>
      </trkpt>
      <trkpt lat="50.11527" lon="3.81104">
        <ele>138.57</ele>
        <time>2021-08-08T06:49:54Z</time>
      </trkpt>
      <trkpt lat="50.11499" lon="3.81154">
        <ele>140.97</ele>
        <time>2021-08-08T06:50:03Z</time>
      </trkpt>
      <trkpt lat="50.11461" lon="3.8123">
        <ele>141.93</ele>
        <time>2021-08-08T06:50:16Z</time>
      </trkpt>
      <trkpt lat="50.1145" lon="3.81256">
        <ele>142.41</ele>
        <time>2021-08-08T06:50:20Z</time>
      </trkpt>
      <trkpt lat="50.11446" lon="3.81262">
        <ele>142.41</ele>
        <time>2021-08-08T06:50:21Z</time>
      </trkpt>
      <trkpt lat="50.1142" lon="3.81309">
        <ele>143.37</ele>
        <time>2021-08-08T06:50:30Z</time>
      </trkpt>
      <trkpt lat="50.11402" lon="3.81359">
        <ele>145.3</ele>
        <time>2021-08-08T06:50:39Z</time>
      </trkpt>
      <trkpt lat="50.11398" lon="3.81383">
        <ele>145.3</ele>
        <time>2021-08-08T06:50:43Z</time>
      </trkpt>
      <trkpt lat="50.11392" lon="3.81467">
        <ele>146.26</ele>
        <time>2021-08-08T06:50:56Z</time>
      </trkpt>
      <trkpt lat="50.1139" lon="3.81565">
        <ele>146.74</ele>
        <time>2021-08-08T06:51:10Z</time>
      </trkpt>
      <trkpt lat="50.11392" lon="3.81627">
        <ele>148.18</ele>
        <time>2021-08-08T06:51:19Z</time>
      </trkpt>
      <trkpt lat="50.11393" lon="3.81697">
        <ele>149.62</ele>
        <time>2021-08-08T06:51:29Z</time>
      </trkpt>
      <trkpt lat="50.11384" lon="3.81779">
        <ele>149.14</ele>
        <time>2021-08-08T06:51:39Z</time>
      </trkpt>
      <trkpt lat="50.11369" lon="3.81853">
        <ele>148.18</ele>
        <time>2021-08-08T06:51:48Z</time>
      </trkpt>
      <trkpt lat="50.1134" lon="3.81907">
        <ele>147.7</ele>
        <time>2021-08-08T06:51:56Z</time>
      </trkpt>
      <trkpt lat="50.11292" lon="3.81958">
        <ele>149.14</ele>
        <time>2021-08-08T06:52:07Z</time>
      </trkpt>
      <trkpt lat="50.11253" lon="3.82005">
        <ele>147.7</ele>
        <time>2021-08-08T06:52:16Z</time>
      </trkpt>
      <trkpt lat="50.11216" lon="3.82057">
        <ele>146.26</ele>
        <time>2021-08-08T06:52:24Z</time>
      </trkpt>
      <trkpt lat="50.1119" lon="3.82119">
        <ele>144.34</ele>
        <time>2021-08-08T06:52:31Z</time>
      </trkpt>
      <trkpt lat="50.11185" lon="3.82128">
        <ele>143.37</ele>
        <time>2021-08-08T06:52:32Z</time>
      </trkpt>
      <trkpt lat="50.11181" lon="3.82134">
        <ele>143.37</ele>
        <time>2021-08-08T06:52:33Z</time>
      </trkpt>
      <trkpt lat="50.11175" lon="3.82141">
        <ele>142.89</ele>
        <time>2021-08-08T06:52:34Z</time>
      </trkpt>
      <trkpt lat="50.1117" lon="3.82148">
        <ele>141.93</ele>
        <time>2021-08-08T06:52:35Z</time>
      </trkpt>
      <trkpt lat="50.11163" lon="3.82155">
        <ele>141.93</ele>
        <time>2021-08-08T06:52:36Z</time>
      </trkpt>
      <trkpt lat="50.11147" lon="3.82175">
        <ele>141.93</ele>
        <time>2021-08-08T06:52:39Z</time>
      </trkpt>
      <trkpt lat="50.11142" lon="3.82182">
        <ele>143.37</ele>
        <time>2021-08-08T06:52:40Z</time>
      </trkpt>
      <trkpt lat="50.11121" lon="3.82223">
        <ele>145.3</ele>
        <time>2021-08-08T06:52:46Z</time>
      </trkpt>
      <trkpt lat="50.11095" lon="3.82275">
        <ele>145.78</ele>
        <time>2021-08-08T06:52:55Z</time>
      </trkpt>
      <trkpt lat="50.11066" lon="3.82321">
        <ele>144.82</ele>
        <time>2021-08-08T06:53:02Z</time>
      </trkpt>
      <trkpt lat="50.11061" lon="3.82326">
        <ele>144.82</ele>
        <time>2021-08-08T06:53:03Z</time>
      </trkpt>
      <trkpt lat="50.11022" lon="3.82362">
        <ele>145.3</ele>
        <time>2021-08-08T06:53:11Z</time>
      </trkpt>
      <trkpt lat="50.10979" lon="3.82406">
        <ele>147.22</ele>
        <time>2021-08-08T06:53:21Z</time>
      </trkpt>
      <trkpt lat="50.10975" lon="3.82409">
        <ele>147.22</ele>
        <time>2021-08-08T06:53:22Z</time>
      </trkpt>
      <trkpt lat="50.1097" lon="3.82411">
        <ele>147.22</ele>
        <time>2021-08-08T06:53:23Z</time>
      </trkpt>
      <trkpt lat="50.10964" lon="3.82411">
        <ele>145.78</ele>
        <time>2021-08-08T06:53:24Z</time>
      </trkpt>
      <trkpt lat="50.10958" lon="3.82411">
        <ele>145.3</ele>
        <time>2021-08-08T06:53:25Z</time>
      </trkpt>
      <trkpt lat="50.10951" lon="3.82411">
        <ele>144.82</ele>
        <time>2021-08-08T06:53:26Z</time>
      </trkpt>
      <trkpt lat="50.10939" lon="3.82408">
        <ele>144.34</ele>
        <time>2021-08-08T06:53:28Z</time>
      </trkpt>
      <trkpt lat="50.10932" lon="3.82406">
        <ele>144.34</ele>
        <time>2021-08-08T06:53:29Z</time>
      </trkpt>
      <trkpt lat="50.10887" lon="3.82384">
        <ele>143.85</ele>
        <time>2021-08-08T06:53:37Z</time>
      </trkpt>
      <trkpt lat="50.10851" lon="3.82366">
        <ele>146.26</ele>
        <time>2021-08-08T06:53:45Z</time>
      </trkpt>
      <trkpt lat="50.10828" lon="3.82368">
        <ele>147.7</ele>
        <time>2021-08-08T06:53:51Z</time>
      </trkpt>
      <trkpt lat="50.108" lon="3.82398">
        <ele>148.18</ele>
        <time>2021-08-08T06:53:59Z</time>
      </trkpt>
      <trkpt lat="50.10759" lon="3.82445">
        <ele>146.74</ele>
        <time>2021-08-08T06:54:09Z</time>
      </trkpt>
      <trkpt lat="50.10714" lon="3.82486">
        <ele>146.26</ele>
        <time>2021-08-08T06:54:18Z</time>
      </trkpt>
      <trkpt lat="50.10681" lon="3.82513">
        <ele>146.26</ele>
        <time>2021-08-08T06:54:24Z</time>
      </trkpt>
      <trkpt lat="50.10651" lon="3.82545">
        <ele>145.78</ele>
        <time>2021-08-08T06:54:30Z</time>
      </trkpt>
      <trkpt lat="50.10635" lon="3.82576">
        <ele>144.82</ele>
        <time>2021-08-08T06:54:34Z</time>
      </trkpt>
      <trkpt lat="50.10631" lon="3.82584">
        <ele>143.85</ele>
        <time>2021-08-08T06:54:35Z</time>
      </trkpt>
      <trkpt lat="50.10625" lon="3.82592">
        <ele>142.89</ele>
        <time>2021-08-08T06:54:36Z</time>
      </trkpt>
      <trkpt lat="50.1062" lon="3.82598">
        <ele>142.41</ele>
        <time>2021-08-08T06:54:37Z</time>
      </trkpt>
      <trkpt lat="50.10614" lon="3.82605">
        <ele>142.41</ele>
        <time>2021-08-08T06:54:38Z</time>
      </trkpt>
      <trkpt lat="50.10608" lon="3.8261">
        <ele>142.41</ele>
        <time>2021-08-08T06:54:39Z</time>
      </trkpt>
      <trkpt lat="50.10565" lon="3.82646">
        <ele>140.49</ele>
        <time>2021-08-08T06:54:46Z</time>
      </trkpt>
      <trkpt lat="50.10515" lon="3.82687">
        <ele>141.45</ele>
        <time>2021-08-08T06:54:55Z</time>
      </trkpt>
      <trkpt lat="50.10481" lon="3.82707">
        <ele>143.37</ele>
        <time>2021-08-08T06:55:03Z</time>
      </trkpt>
      <trkpt lat="50.10469" lon="3.82712">
        <ele>144.82</ele>
        <time>2021-08-08T06:55:06Z</time>
      </trkpt>
      <trkpt lat="50.10433" lon="3.82733">
        <ele>144.82</ele>
        <time>2021-08-08T06:55:15Z</time>
      </trkpt>
      <trkpt lat="50.10406" lon="3.82738">
        <ele>142.89</ele>
        <time>2021-08-08T06:55:22Z</time>
      </trkpt>
      <trkpt lat="50.104" lon="3.8273">
        <ele>142.89</ele>
        <time>2021-08-08T06:55:24Z</time>
      </trkpt>
      <trkpt lat="50.10397" lon="3.82723">
        <ele>142.89</ele>
        <time>2021-08-08T06:55:25Z</time>
      </trkpt>
      <trkpt lat="50.10375" lon="3.82683">
        <ele>140.49</ele>
        <time>2021-08-08T06:55:31Z</time>
      </trkpt>
      <trkpt lat="50.10355" lon="3.82649">
        <ele>139.05</ele>
        <time>2021-08-08T06:55:36Z</time>
      </trkpt>
      <trkpt lat="50.10313" lon="3.82579">
        <ele>139.53</ele>
        <time>2021-08-08T06:55:47Z</time>
      </trkpt>
      <trkpt lat="50.10309" lon="3.82565">
        <ele>139.53</ele>
        <time>2021-08-08T06:55:49Z</time>
      </trkpt>
      <trkpt lat="50.10298" lon="3.8252">
        <ele>141.45</ele>
        <time>2021-08-08T06:55:55Z</time>
      </trkpt>
      <trkpt lat="50.10296" lon="3.82513">
        <ele>141.45</ele>
        <time>2021-08-08T06:55:56Z</time>
      </trkpt>
      <trkpt lat="50.10292" lon="3.82506">
        <ele>141.45</ele>
        <time>2021-08-08T06:55:57Z</time>
      </trkpt>
      <trkpt lat="50.10289" lon="3.82502">
        <ele>141.45</ele>
        <time>2021-08-08T06:55:58Z</time>
      </trkpt>
      <trkpt lat="50.10284" lon="3.82497">
        <ele>141.45</ele>
        <time>2021-08-08T06:55:59Z</time>
      </trkpt>
      <trkpt lat="50.10279" lon="3.82492">
        <ele>141.45</ele>
        <time>2021-08-08T06:56:00Z</time>
      </trkpt>
      <trkpt lat="50.10275" lon="3.82488">
        <ele>141.45</ele>
        <time>2021-08-08T06:56:01Z</time>
      </trkpt>
      <trkpt lat="50.10259" lon="3.82475">
        <ele>140.01</ele>
        <time>2021-08-08T06:56:04Z</time>
      </trkpt>
      <trkpt lat="50.10219" lon="3.82446">
        <ele>139.53</ele>
        <time>2021-08-08T06:56:12Z</time>
      </trkpt>
      <trkpt lat="50.10169" lon="3.82426">
        <ele>139.53</ele>
        <time>2021-08-08T06:56:21Z</time>
      </trkpt>
      <trkpt lat="50.10142" lon="3.82415">
        <ele>139.05</ele>
        <time>2021-08-08T06:56:26Z</time>
      </trkpt>
      <trkpt lat="50.10138" lon="3.82411">
        <ele>140.49</ele>
        <time>2021-08-08T06:56:27Z</time>
      </trkpt>
      <trkpt lat="50.10133" lon="3.82406">
        <ele>140.49</ele>
        <time>2021-08-08T06:56:28Z</time>
      </trkpt>
      <trkpt lat="50.10129" lon="3.82401">
        <ele>140.49</ele>
        <time>2021-08-08T06:56:29Z</time>
      </trkpt>
      <trkpt lat="50.10125" lon="3.82394">
        <ele>140.49</ele>
        <time>2021-08-08T06:56:30Z</time>
      </trkpt>
      <trkpt lat="50.10122" lon="3.82388">
        <ele>140.49</ele>
        <time>2021-08-08T06:56:31Z</time>
      </trkpt>
      <trkpt lat="50.10119" lon="3.82381">
        <ele>140.49</ele>
        <time>2021-08-08T06:56:32Z</time>
      </trkpt>
      <trkpt lat="50.10117" lon="3.82374">
        <ele>140.49</ele>
        <time>2021-08-08T06:56:33Z</time>
      </trkpt>
      <trkpt lat="50.10115" lon="3.82367">
        <ele>140.49</ele>
        <time>2021-08-08T06:56:34Z</time>
      </trkpt>
      <trkpt lat="50.10114" lon="3.82361">
        <ele>140.97</ele>
        <time>2021-08-08T06:56:35Z</time>
      </trkpt>
      <trkpt lat="50.10113" lon="3.82353">
        <ele>140.97</ele>
        <time>2021-08-08T06:56:36Z</time>
      </trkpt>
      <trkpt lat="50.10113" lon="3.82346">
        <ele>140.97</ele>
        <time>2021-08-08T06:56:37Z</time>
      </trkpt>
      <trkpt lat="50.10114" lon="3.82339">
        <ele>141.45</ele>
        <time>2021-08-08T06:56:38Z</time>
      </trkpt>
      <trkpt lat="50.10116" lon="3.82332">
        <ele>141.45</ele>
        <time>2021-08-08T06:56:39Z</time>
      </trkpt>
      <trkpt lat="50.10119" lon="3.82326">
        <ele>141.45</ele>
        <time>2021-08-08T06:56:40Z</time>
      </trkpt>
      <trkpt lat="50.10122" lon="3.8232">
        <ele>141.45</ele>
        <time>2021-08-08T06:56:41Z</time>
      </trkpt>
      <trkpt lat="50.10155" lon="3.82265">
        <ele>141.45</ele>
        <time>2021-08-08T06:56:50Z</time>
      </trkpt>
      <trkpt lat="50.10193" lon="3.82209">
        <ele>141.45</ele>
        <time>2021-08-08T06:56:59Z</time>
      </trkpt>
      <trkpt lat="50.10218" lon="3.82173">
        <ele>140.01</ele>
        <time>2021-08-08T06:57:05Z</time>
      </trkpt>
      <trkpt lat="50.10263" lon="3.82109">
        <ele>140.01</ele>
        <time>2021-08-08T06:57:16Z</time>
      </trkpt>
      <trkpt lat="50.10312" lon="3.82046">
        <ele>140.01</ele>
        <time>2021-08-08T06:57:27Z</time>
      </trkpt>
      <trkpt lat="50.10337" lon="3.82012">
        <ele>140.01</ele>
        <time>2021-08-08T06:57:33Z</time>
      </trkpt>
      <trkpt lat="50.10339" lon="3.82005">
        <ele>140.01</ele>
        <time>2021-08-08T06:57:34Z</time>
      </trkpt>
      <trkpt lat="50.10341" lon="3.81997">
        <ele>140.01</ele>
        <time>2021-08-08T06:57:35Z</time>
      </trkpt>
      <trkpt lat="50.10341" lon="3.81988">
        <ele>140.01</ele>
        <time>2021-08-08T06:57:36Z</time>
      </trkpt>
      <trkpt lat="50.1034" lon="3.81981">
        <ele>140.01</ele>
        <time>2021-08-08T06:57:37Z</time>
      </trkpt>
      <trkpt lat="50.10337" lon="3.81974">
        <ele>140.01</ele>
        <time>2021-08-08T06:57:38Z</time>
      </trkpt>
      <trkpt lat="50.10334" lon="3.81967">
        <ele>139.53</ele>
        <time>2021-08-08T06:57:39Z</time>
      </trkpt>
      <trkpt lat="50.10331" lon="3.8196">
        <ele>139.53</ele>
        <time>2021-08-08T06:57:40Z</time>
      </trkpt>
      <trkpt lat="50.10327" lon="3.81954">
        <ele>139.53</ele>
        <time>2021-08-08T06:57:41Z</time>
      </trkpt>
      <trkpt lat="50.10292" lon="3.81894">
        <ele>139.05</ele>
        <time>2021-08-08T06:57:51Z</time>
      </trkpt>
      <trkpt lat="50.10268" lon="3.81854">
        <ele>140.01</ele>
        <time>2021-08-08T06:57:58Z</time>
      </trkpt>
      <trkpt lat="50.10252" lon="3.81825">
        <ele>140.49</ele>
        <time>2021-08-08T06:58:03Z</time>
      </trkpt>
      <trkpt lat="50.10232" lon="3.8177">
        <ele>140.49</ele>
        <time>2021-08-08T06:58:11Z</time>
      </trkpt>
      <trkpt lat="50.10216" lon="3.8168">
        <ele>139.53</ele>
        <time>2021-08-08T06:58:22Z</time>
      </trkpt>
      <trkpt lat="50.10214" lon="3.81672">
        <ele>139.53</ele>
        <time>2021-08-08T06:58:23Z</time>
      </trkpt>
      <trkpt lat="50.102" lon="3.81595">
        <ele>139.53</ele>
        <time>2021-08-08T06:58:33Z</time>
      </trkpt>
      <trkpt lat="50.10181" lon="3.81521">
        <ele>139.53</ele>
        <time>2021-08-08T06:58:43Z</time>
      </trkpt>
      <trkpt lat="50.10168" lon="3.81475">
        <ele>140.97</ele>
        <time>2021-08-08T06:58:49Z</time>
      </trkpt>
      <trkpt lat="50.10145" lon="3.81393">
        <ele>140.97</ele>
        <time>2021-08-08T06:59:00Z</time>
      </trkpt>
      <trkpt lat="50.10136" lon="3.81375">
        <ele>141.45</ele>
        <time>2021-08-08T06:59:03Z</time>
      </trkpt>
      <trkpt lat="50.10132" lon="3.81369">
        <ele>141.45</ele>
        <time>2021-08-08T06:59:04Z</time>
      </trkpt>
      <trkpt lat="50.10098" lon="3.81327">
        <ele>141.93</ele>
        <time>2021-08-08T06:59:13Z</time>
      </trkpt>
      <trkpt lat="50.10083" lon="3.81309">
        <ele>142.41</ele>
        <time>2021-08-08T06:59:17Z</time>
      </trkpt>
      <trkpt lat="50.10075" lon="3.81299">
        <ele>142.41</ele>
        <time>2021-08-08T06:59:19Z</time>
      </trkpt>
      <trkpt lat="50.10059" lon="3.81281">
        <ele>141.45</ele>
        <time>2021-08-08T06:59:23Z</time>
      </trkpt>
      <trkpt lat="50.10054" lon="3.81277">
        <ele>141.45</ele>
        <time>2021-08-08T06:59:24Z</time>
      </trkpt>
      <trkpt lat="50.1005" lon="3.81273">
        <ele>141.45</ele>
        <time>2021-08-08T06:59:25Z</time>
      </trkpt>
      <trkpt lat="50.10036" lon="3.81254">
        <ele>142.41</ele>
        <time>2021-08-08T06:59:29Z</time>
      </trkpt>
      <trkpt lat="50.10026" lon="3.8124">
        <ele>142.41</ele>
        <time>2021-08-08T06:59:32Z</time>
      </trkpt>
      <trkpt lat="50.10023" lon="3.81234">
        <ele>142.41</ele>
        <time>2021-08-08T06:59:33Z</time>
      </trkpt>
      <trkpt lat="50.10021" lon="3.81228">
        <ele>142.41</ele>
        <time>2021-08-08T06:59:34Z</time>
      </trkpt>
      <trkpt lat="50.10019" lon="3.81221">
        <ele>142.41</ele>
        <time>2021-08-08T06:59:35Z</time>
      </trkpt>
      <trkpt lat="50.10017" lon="3.81215">
        <ele>142.41</ele>
        <time>2021-08-08T06:59:36Z</time>
      </trkpt>
      <trkpt lat="50.10016" lon="3.81207">
        <ele>142.41</ele>
        <time>2021-08-08T06:59:37Z</time>
      </trkpt>
      <trkpt lat="50.10015" lon="3.812">
        <ele>142.41</ele>
        <time>2021-08-08T06:59:38Z</time>
      </trkpt>
      <trkpt lat="50.10016" lon="3.81193">
        <ele>142.41</ele>
        <time>2021-08-08T06:59:39Z</time>
      </trkpt>
      <trkpt lat="50.10016" lon="3.81187">
        <ele>142.89</ele>
        <time>2021-08-08T06:59:40Z</time>
      </trkpt>
      <trkpt lat="50.10022" lon="3.81125">
        <ele>144.34</ele>
        <time>2021-08-08T06:59:49Z</time>
      </trkpt>
      <trkpt lat="50.10022" lon="3.81119">
        <ele>144.34</ele>
        <time>2021-08-08T06:59:50Z</time>
      </trkpt>
      <trkpt lat="50.10022" lon="3.81112">
        <ele>144.34</ele>
        <time>2021-08-08T06:59:51Z</time>
      </trkpt>
      <trkpt lat="50.10021" lon="3.81106">
        <ele>144.34</ele>
        <time>2021-08-08T06:59:52Z</time>
      </trkpt>
      <trkpt lat="50.10019" lon="3.81099">
        <ele>144.82</ele>
        <time>2021-08-08T06:59:53Z</time>
      </trkpt>
      <trkpt lat="50.10017" lon="3.81093">
        <ele>144.82</ele>
        <time>2021-08-08T06:59:54Z</time>
      </trkpt>
      <trkpt lat="50.10015" lon="3.81086">
        <ele>144.82</ele>
        <time>2021-08-08T06:59:55Z</time>
      </trkpt>
      <trkpt lat="50.1" lon="3.81043">
        <ele>145.3</ele>
        <time>2021-08-08T07:00:03Z</time>
      </trkpt>
      <trkpt lat="50.09994" lon="3.81016">
        <ele>145.78</ele>
        <time>2021-08-08T07:00:07Z</time>
      </trkpt>
      <trkpt lat="50.09993" lon="3.8101">
        <ele>145.78</ele>
        <time>2021-08-08T07:00:08Z</time>
      </trkpt>
      <trkpt lat="50.09992" lon="3.80956">
        <ele>147.22</ele>
        <time>2021-08-08T07:00:16Z</time>
      </trkpt>
      <trkpt lat="50.09991" lon="3.8095">
        <ele>147.22</ele>
        <time>2021-08-08T07:00:17Z</time>
      </trkpt>
      <trkpt lat="50.0999" lon="3.80943">
        <ele>148.18</ele>
        <time>2021-08-08T07:00:18Z</time>
      </trkpt>
      <trkpt lat="50.09988" lon="3.80937">
        <ele>148.18</ele>
        <time>2021-08-08T07:00:19Z</time>
      </trkpt>
      <trkpt lat="50.09986" lon="3.80931">
        <ele>148.18</ele>
        <time>2021-08-08T07:00:20Z</time>
      </trkpt>
      <trkpt lat="50.09984" lon="3.80925">
        <ele>148.18</ele>
        <time>2021-08-08T07:00:21Z</time>
      </trkpt>
      <trkpt lat="50.09982" lon="3.80919">
        <ele>148.18</ele>
        <time>2021-08-08T07:00:22Z</time>
      </trkpt>
      <trkpt lat="50.09979" lon="3.80915">
        <ele>148.18</ele>
        <time>2021-08-08T07:00:23Z</time>
      </trkpt>
      <trkpt lat="50.09976" lon="3.80909">
        <ele>148.18</ele>
        <time>2021-08-08T07:00:24Z</time>
      </trkpt>
      <trkpt lat="50.09962" lon="3.8089">
        <ele>148.66</ele>
        <time>2021-08-08T07:00:28Z</time>
      </trkpt>
      <trkpt lat="50.09959" lon="3.80885">
        <ele>148.66</ele>
        <time>2021-08-08T07:00:29Z</time>
      </trkpt>
      <trkpt lat="50.09945" lon="3.80866">
        <ele>148.66</ele>
        <time>2021-08-08T07:00:33Z</time>
      </trkpt>
      <trkpt lat="50.09936" lon="3.80849">
        <ele>147.7</ele>
        <time>2021-08-08T07:00:36Z</time>
      </trkpt>
      <trkpt lat="50.0992" lon="3.80801">
        <ele>149.14</ele>
        <time>2021-08-08T07:00:43Z</time>
      </trkpt>
      <trkpt lat="50.09918" lon="3.80788">
        <ele>147.7</ele>
        <time>2021-08-08T07:00:45Z</time>
      </trkpt>
      <trkpt lat="50.09904" lon="3.80721">
        <ele>147.7</ele>
        <time>2021-08-08T07:00:54Z</time>
      </trkpt>
      <trkpt lat="50.09892" lon="3.80656">
        <ele>147.7</ele>
        <time>2021-08-08T07:01:02Z</time>
      </trkpt>
      <trkpt lat="50.09876" lon="3.80592">
        <ele>147.22</ele>
        <time>2021-08-08T07:01:10Z</time>
      </trkpt>
      <trkpt lat="50.09873" lon="3.80586">
        <ele>147.22</ele>
        <time>2021-08-08T07:01:11Z</time>
      </trkpt>
      <trkpt lat="50.0987" lon="3.8058">
        <ele>147.22</ele>
        <time>2021-08-08T07:01:12Z</time>
      </trkpt>
      <trkpt lat="50.09866" lon="3.80574">
        <ele>147.22</ele>
        <time>2021-08-08T07:01:13Z</time>
      </trkpt>
      <trkpt lat="50.09862" lon="3.80569">
        <ele>146.74</ele>
        <time>2021-08-08T07:01:14Z</time>
      </trkpt>
      <trkpt lat="50.09858" lon="3.80564">
        <ele>146.74</ele>
        <time>2021-08-08T07:01:15Z</time>
      </trkpt>
      <trkpt lat="50.09819" lon="3.80516">
        <ele>146.74</ele>
        <time>2021-08-08T07:01:25Z</time>
      </trkpt>
      <trkpt lat="50.09815" lon="3.8051">
        <ele>146.74</ele>
        <time>2021-08-08T07:01:26Z</time>
      </trkpt>
      <trkpt lat="50.09804" lon="3.80483">
        <ele>146.74</ele>
        <time>2021-08-08T07:01:30Z</time>
      </trkpt>
      <trkpt lat="50.09779" lon="3.80427">
        <ele>147.7</ele>
        <time>2021-08-08T07:01:39Z</time>
      </trkpt>
      <trkpt lat="50.09749" lon="3.80372">
        <ele>148.18</ele>
        <time>2021-08-08T07:01:49Z</time>
      </trkpt>
      <trkpt lat="50.0973" lon="3.80321">
        <ele>149.62</ele>
        <time>2021-08-08T07:01:58Z</time>
      </trkpt>
      <trkpt lat="50.09716" lon="3.80272">
        <ele>150.58</ele>
        <time>2021-08-08T07:02:07Z</time>
      </trkpt>
      <trkpt lat="50.09696" lon="3.8022">
        <ele>152.03</ele>
        <time>2021-08-08T07:02:17Z</time>
      </trkpt>
      <trkpt lat="50.09674" lon="3.80172">
        <ele>152.99</ele>
        <time>2021-08-08T07:02:27Z</time>
      </trkpt>
      <trkpt lat="50.09649" lon="3.80119">
        <ele>153.95</ele>
        <time>2021-08-08T07:02:38Z</time>
      </trkpt>
      <trkpt lat="50.09627" lon="3.80073">
        <ele>155.39</ele>
        <time>2021-08-08T07:02:48Z</time>
      </trkpt>
      <trkpt lat="50.09597" lon="3.80017">
        <ele>156.83</ele>
        <time>2021-08-08T07:03:00Z</time>
      </trkpt>
      <trkpt lat="50.0957" lon="3.79973">
        <ele>157.31</ele>
        <time>2021-08-08T07:03:10Z</time>
      </trkpt>
      <trkpt lat="50.0955" lon="3.79937">
        <ele>158.75</ele>
        <time>2021-08-08T07:03:18Z</time>
      </trkpt>
      <trkpt lat="50.09528" lon="3.79896">
        <ele>159.72</ele>
        <time>2021-08-08T07:03:27Z</time>
      </trkpt>
      <trkpt lat="50.09512" lon="3.79859">
        <ele>159.72</ele>
        <time>2021-08-08T07:03:35Z</time>
      </trkpt>
      <trkpt lat="50.0949" lon="3.79815">
        <ele>160.68</ele>
        <time>2021-08-08T07:03:44Z</time>
      </trkpt>
      <trkpt lat="50.09471" lon="3.79774">
        <ele>162.12</ele>
        <time>2021-08-08T07:03:52Z</time>
      </trkpt>
      <trkpt lat="50.09443" lon="3.79721">
        <ele>162.6</ele>
        <time>2021-08-08T07:04:03Z</time>
      </trkpt>
      <trkpt lat="50.09413" lon="3.79682">
        <ele>163.08</ele>
        <time>2021-08-08T07:04:13Z</time>
      </trkpt>
      <trkpt lat="50.09407" lon="3.79675">
        <ele>163.08</ele>
        <time>2021-08-08T07:04:15Z</time>
      </trkpt>
      <trkpt lat="50.09399" lon="3.79667">
        <ele>163.08</ele>
        <time>2021-08-08T07:04:17Z</time>
      </trkpt>
      <trkpt lat="50.09382" lon="3.79644">
        <ele>163.56</ele>
        <time>2021-08-08T07:04:23Z</time>
      </trkpt>
      <trkpt lat="50.09357" lon="3.79613">
        <ele>164.52</ele>
        <time>2021-08-08T07:04:31Z</time>
      </trkpt>
      <trkpt lat="50.09327" lon="3.79577">
        <ele>165</ele>
        <time>2021-08-08T07:04:42Z</time>
      </trkpt>
      <trkpt lat="50.09325" lon="3.79577">
        <ele>165.48</ele>
        <time>2021-08-08T07:04:43Z</time>
      </trkpt>
      <trkpt lat="50.09325" lon="3.79577">
        <ele>165.48</ele>
        <time>2021-08-08T07:04:48Z</time>
      </trkpt>
      <trkpt lat="50.09325" lon="3.79577">
        <ele>165.96</ele>
        <time>2021-08-08T07:04:59Z</time>
      </trkpt>
      <trkpt lat="50.09325" lon="3.79576">
        <ele>165.96</ele>
        <time>2021-08-08T07:05:14Z</time>
      </trkpt>
      <trkpt lat="50.09324" lon="3.79576">
        <ele>165.96</ele>
        <time>2021-08-08T07:05:30Z</time>
      </trkpt>
      <trkpt lat="50.09324" lon="3.79577">
        <ele>165.96</ele>
        <time>2021-08-08T07:05:42Z</time>
      </trkpt>
      <trkpt lat="50.09324" lon="3.79576">
        <ele>165.96</ele>
        <time>2021-08-08T07:05:58Z</time>
      </trkpt>
      <trkpt lat="50.09324" lon="3.79578">
        <ele>165.96</ele>
        <time>2021-08-08T07:06:00Z</time>
      </trkpt>
      <trkpt lat="50.09323" lon="3.79581">
        <ele>165.96</ele>
        <time>2021-08-08T07:06:01Z</time>
      </trkpt>
      <trkpt lat="50.09323" lon="3.79583">
        <ele>165.96</ele>
        <time>2021-08-08T07:06:02Z</time>
      </trkpt>
      <trkpt lat="50.09322" lon="3.79586">
        <ele>165.96</ele>
        <time>2021-08-08T07:06:03Z</time>
      </trkpt>
      <trkpt lat="50.09322" lon="3.7959">
        <ele>165.96</ele>
        <time>2021-08-08T07:06:04Z</time>
      </trkpt>
      <trkpt lat="50.09321" lon="3.79595">
        <ele>165.96</ele>
        <time>2021-08-08T07:06:05Z</time>
      </trkpt>
      <trkpt lat="50.0932" lon="3.796">
        <ele>165.96</ele>
        <time>2021-08-08T07:06:06Z</time>
      </trkpt>
      <trkpt lat="50.09319" lon="3.79605">
        <ele>165.96</ele>
        <time>2021-08-08T07:06:07Z</time>
      </trkpt>
      <trkpt lat="50.09316" lon="3.79617">
        <ele>165</ele>
        <time>2021-08-08T07:06:09Z</time>
      </trkpt>
      <trkpt lat="50.09299" lon="3.79685">
        <ele>162.12</ele>
        <time>2021-08-08T07:06:18Z</time>
      </trkpt>
      <trkpt lat="50.09279" lon="3.79771">
        <ele>160.68</ele>
        <time>2021-08-08T07:06:28Z</time>
      </trkpt>
      <trkpt lat="50.09249" lon="3.79876">
        <ele>158.27</ele>
        <time>2021-08-08T07:06:40Z</time>
      </trkpt>
      <trkpt lat="50.09245" lon="3.79883">
        <ele>158.27</ele>
        <time>2021-08-08T07:06:41Z</time>
      </trkpt>
      <trkpt lat="50.09241" lon="3.79887">
        <ele>158.27</ele>
        <time>2021-08-08T07:06:42Z</time>
      </trkpt>
      <trkpt lat="50.09235" lon="3.7989">
        <ele>157.79</ele>
        <time>2021-08-08T07:06:43Z</time>
      </trkpt>
      <trkpt lat="50.09231" lon="3.7989">
        <ele>157.79</ele>
        <time>2021-08-08T07:06:44Z</time>
      </trkpt>
      <trkpt lat="50.09226" lon="3.79889">
        <ele>157.79</ele>
        <time>2021-08-08T07:06:45Z</time>
      </trkpt>
      <trkpt lat="50.09221" lon="3.79887">
        <ele>157.79</ele>
        <time>2021-08-08T07:06:46Z</time>
      </trkpt>
      <trkpt lat="50.09217" lon="3.79884">
        <ele>157.79</ele>
        <time>2021-08-08T07:06:47Z</time>
      </trkpt>
      <trkpt lat="50.09213" lon="3.79881">
        <ele>157.79</ele>
        <time>2021-08-08T07:06:48Z</time>
      </trkpt>
      <trkpt lat="50.09182" lon="3.79855">
        <ele>157.79</ele>
        <time>2021-08-08T07:06:55Z</time>
      </trkpt>
      <trkpt lat="50.09173" lon="3.79849">
        <ele>157.79</ele>
        <time>2021-08-08T07:06:57Z</time>
      </trkpt>
      <trkpt lat="50.09144" lon="3.79832">
        <ele>157.79</ele>
        <time>2021-08-08T07:07:04Z</time>
      </trkpt>
      <trkpt lat="50.0914" lon="3.79831">
        <ele>157.79</ele>
        <time>2021-08-08T07:07:05Z</time>
      </trkpt>
      <trkpt lat="50.09135" lon="3.79833">
        <ele>157.79</ele>
        <time>2021-08-08T07:07:06Z</time>
      </trkpt>
      <trkpt lat="50.09131" lon="3.79836">
        <ele>158.27</ele>
        <time>2021-08-08T07:07:07Z</time>
      </trkpt>
      <trkpt lat="50.09128" lon="3.79841">
        <ele>158.27</ele>
        <time>2021-08-08T07:07:08Z</time>
      </trkpt>
      <trkpt lat="50.09125" lon="3.79846">
        <ele>158.27</ele>
        <time>2021-08-08T07:07:09Z</time>
      </trkpt>
      <trkpt lat="50.09122" lon="3.79851">
        <ele>158.27</ele>
        <time>2021-08-08T07:07:10Z</time>
      </trkpt>
      <trkpt lat="50.0912" lon="3.79857">
        <ele>159.24</ele>
        <time>2021-08-08T07:07:11Z</time>
      </trkpt>
      <trkpt lat="50.09117" lon="3.79862">
        <ele>159.24</ele>
        <time>2021-08-08T07:07:12Z</time>
      </trkpt>
      <trkpt lat="50.09102" lon="3.79896">
        <ele>159.72</ele>
        <time>2021-08-08T07:07:19Z</time>
      </trkpt>
      <trkpt lat="50.09085" lon="3.79938">
        <ele>161.64</ele>
        <time>2021-08-08T07:07:28Z</time>
      </trkpt>
      <trkpt lat="50.09067" lon="3.79979">
        <ele>163.08</ele>
        <time>2021-08-08T07:07:37Z</time>
      </trkpt>
      <trkpt lat="50.09043" lon="3.80031">
        <ele>164.04</ele>
        <time>2021-08-08T07:07:48Z</time>
      </trkpt>
      <trkpt lat="50.09028" lon="3.80052">
        <ele>164.52</ele>
        <time>2021-08-08T07:07:53Z</time>
      </trkpt>
      <trkpt lat="50.09021" lon="3.80058">
        <ele>164.52</ele>
        <time>2021-08-08T07:07:55Z</time>
      </trkpt>
      <trkpt lat="50.09013" lon="3.80062">
        <ele>164.52</ele>
        <time>2021-08-08T07:07:57Z</time>
      </trkpt>
      <trkpt lat="50.09009" lon="3.80064">
        <ele>164.52</ele>
        <time>2021-08-08T07:07:58Z</time>
      </trkpt>
      <trkpt lat="50.09004" lon="3.80066">
        <ele>164.52</ele>
        <time>2021-08-08T07:07:59Z</time>
      </trkpt>
      <trkpt lat="50.08973" lon="3.80076">
        <ele>164.52</ele>
        <time>2021-08-08T07:08:06Z</time>
      </trkpt>
      <trkpt lat="50.08957" lon="3.8008">
        <ele>164.52</ele>
        <time>2021-08-08T07:08:10Z</time>
      </trkpt>
      <trkpt lat="50.08952" lon="3.80082">
        <ele>164.52</ele>
        <time>2021-08-08T07:08:11Z</time>
      </trkpt>
      <trkpt lat="50.08938" lon="3.80086">
        <ele>164.52</ele>
        <time>2021-08-08T07:08:14Z</time>
      </trkpt>
      <trkpt lat="50.08934" lon="3.80088">
        <ele>164.52</ele>
        <time>2021-08-08T07:08:15Z</time>
      </trkpt>
      <trkpt lat="50.08929" lon="3.8009">
        <ele>164.52</ele>
        <time>2021-08-08T07:08:16Z</time>
      </trkpt>
      <trkpt lat="50.08925" lon="3.80091">
        <ele>164.52</ele>
        <time>2021-08-08T07:08:17Z</time>
      </trkpt>
      <trkpt lat="50.0892" lon="3.80093">
        <ele>163.08</ele>
        <time>2021-08-08T07:08:18Z</time>
      </trkpt>
      <trkpt lat="50.08875" lon="3.80106">
        <ele>163.08</ele>
        <time>2021-08-08T07:08:28Z</time>
      </trkpt>
      <trkpt lat="50.08838" lon="3.80117">
        <ele>163.56</ele>
        <time>2021-08-08T07:08:36Z</time>
      </trkpt>
      <trkpt lat="50.08833" lon="3.80119">
        <ele>163.56</ele>
        <time>2021-08-08T07:08:37Z</time>
      </trkpt>
      <trkpt lat="50.08828" lon="3.8012">
        <ele>163.08</ele>
        <time>2021-08-08T07:08:38Z</time>
      </trkpt>
      <trkpt lat="50.08824" lon="3.80121">
        <ele>163.08</ele>
        <time>2021-08-08T07:08:39Z</time>
      </trkpt>
      <trkpt lat="50.08819" lon="3.80122">
        <ele>163.08</ele>
        <time>2021-08-08T07:08:40Z</time>
      </trkpt>
      <trkpt lat="50.08815" lon="3.80124">
        <ele>163.08</ele>
        <time>2021-08-08T07:08:41Z</time>
      </trkpt>
      <trkpt lat="50.08811" lon="3.80127">
        <ele>163.08</ele>
        <time>2021-08-08T07:08:42Z</time>
      </trkpt>
      <trkpt lat="50.08807" lon="3.8013">
        <ele>163.08</ele>
        <time>2021-08-08T07:08:43Z</time>
      </trkpt>
      <trkpt lat="50.08803" lon="3.80134">
        <ele>163.08</ele>
        <time>2021-08-08T07:08:44Z</time>
      </trkpt>
      <trkpt lat="50.088" lon="3.80138">
        <ele>163.08</ele>
        <time>2021-08-08T07:08:45Z</time>
      </trkpt>
      <trkpt lat="50.08796" lon="3.80143">
        <ele>163.08</ele>
        <time>2021-08-08T07:08:46Z</time>
      </trkpt>
      <trkpt lat="50.08767" lon="3.80194">
        <ele>163.08</ele>
        <time>2021-08-08T07:08:56Z</time>
      </trkpt>
      <trkpt lat="50.0876" lon="3.80203">
        <ele>164.52</ele>
        <time>2021-08-08T07:08:58Z</time>
      </trkpt>
      <trkpt lat="50.08739" lon="3.80225">
        <ele>165.48</ele>
        <time>2021-08-08T07:09:05Z</time>
      </trkpt>
      <trkpt lat="50.0872" lon="3.80227">
        <ele>165.96</ele>
        <time>2021-08-08T07:09:10Z</time>
      </trkpt>
      <trkpt lat="50.08693" lon="3.80231">
        <ele>165.96</ele>
        <time>2021-08-08T07:09:17Z</time>
      </trkpt>
      <trkpt lat="50.08651" lon="3.80241">
        <ele>162.6</ele>
        <time>2021-08-08T07:09:25Z</time>
      </trkpt>
      <trkpt lat="50.08635" lon="3.80246">
        <ele>162.6</ele>
        <time>2021-08-08T07:09:30Z</time>
      </trkpt>
      <trkpt lat="50.08617" lon="3.80251">
        <ele>164.04</ele>
        <time>2021-08-08T07:09:36Z</time>
      </trkpt>
      <trkpt lat="50.08594" lon="3.80255">
        <ele>165</ele>
        <time>2021-08-08T07:09:43Z</time>
      </trkpt>
      <trkpt lat="50.08563" lon="3.80259">
        <ele>162.6</ele>
        <time>2021-08-08T07:09:51Z</time>
      </trkpt>
      <trkpt lat="50.0854" lon="3.80265">
        <ele>161.16</ele>
        <time>2021-08-08T07:09:58Z</time>
      </trkpt>
      <trkpt lat="50.08533" lon="3.8027">
        <ele>160.68</ele>
        <time>2021-08-08T07:10:04Z</time>
      </trkpt>
      <trkpt lat="50.08531" lon="3.8027">
        <ele>160.68</ele>
        <time>2021-08-08T07:10:12Z</time>
      </trkpt>
      <trkpt lat="50.08521" lon="3.80279">
        <ele>160.2</ele>
        <time>2021-08-08T07:10:17Z</time>
      </trkpt>
      <trkpt lat="50.08509" lon="3.80297">
        <ele>160.2</ele>
        <time>2021-08-08T07:10:24Z</time>
      </trkpt>
      <trkpt lat="50.08499" lon="3.80318">
        <ele>160.2</ele>
        <time>2021-08-08T07:10:31Z</time>
      </trkpt>
      <trkpt lat="50.08499" lon="3.80322">
        <ele>160.2</ele>
        <time>2021-08-08T07:10:33Z</time>
      </trkpt>
      <trkpt lat="50.085" lon="3.80325">
        <ele>160.2</ele>
        <time>2021-08-08T07:10:34Z</time>
      </trkpt>
      <trkpt lat="50.08509" lon="3.80347">
        <ele>161.16</ele>
        <time>2021-08-08T07:10:40Z</time>
      </trkpt>
      <trkpt lat="50.0851" lon="3.80351">
        <ele>161.64</ele>
        <time>2021-08-08T07:10:41Z</time>
      </trkpt>
      <trkpt lat="50.0851" lon="3.80355">
        <ele>161.64</ele>
        <time>2021-08-08T07:10:42Z</time>
      </trkpt>
      <trkpt lat="50.08506" lon="3.80383">
        <ele>161.64</ele>
        <time>2021-08-08T07:10:49Z</time>
      </trkpt>
      <trkpt lat="50.08501" lon="3.80401">
        <ele>161.64</ele>
        <time>2021-08-08T07:10:55Z</time>
      </trkpt>
      <trkpt lat="50.08493" lon="3.80426">
        <ele>163.08</ele>
        <time>2021-08-08T07:11:02Z</time>
      </trkpt>
      <trkpt lat="50.0849" lon="3.80443">
        <ele>163.56</ele>
        <time>2021-08-08T07:11:08Z</time>
      </trkpt>
      <trkpt lat="50.08489" lon="3.80445">
        <ele>163.56</ele>
        <time>2021-08-08T07:11:09Z</time>
      </trkpt>
      <trkpt lat="50.08489" lon="3.80447">
        <ele>163.56</ele>
        <time>2021-08-08T07:11:10Z</time>
      </trkpt>
      <trkpt lat="50.08488" lon="3.80449">
        <ele>163.56</ele>
        <time>2021-08-08T07:11:11Z</time>
      </trkpt>
      <trkpt lat="50.08488" lon="3.80451">
        <ele>163.56</ele>
        <time>2021-08-08T07:11:12Z</time>
      </trkpt>
      <trkpt lat="50.08487" lon="3.80454">
        <ele>163.56</ele>
        <time>2021-08-08T07:11:13Z</time>
      </trkpt>
      <trkpt lat="50.08487" lon="3.80456">
        <ele>163.56</ele>
        <time>2021-08-08T07:11:14Z</time>
      </trkpt>
      <trkpt lat="50.08486" lon="3.80459">
        <ele>164.52</ele>
        <time>2021-08-08T07:11:15Z</time>
      </trkpt>
      <trkpt lat="50.08486" lon="3.80461">
        <ele>164.52</ele>
        <time>2021-08-08T07:11:16Z</time>
      </trkpt>
      <trkpt lat="50.08483" lon="3.80467">
        <ele>164.52</ele>
        <time>2021-08-08T07:11:19Z</time>
      </trkpt>
      <trkpt lat="50.0848" lon="3.80477">
        <ele>165.48</ele>
        <time>2021-08-08T07:11:25Z</time>
      </trkpt>
      <trkpt lat="50.08475" lon="3.80489">
        <ele>165.96</ele>
        <time>2021-08-08T07:11:33Z</time>
      </trkpt>
      <trkpt lat="50.08469" lon="3.80493">
        <ele>166.45</ele>
        <time>2021-08-08T07:11:38Z</time>
      </trkpt>
      <trkpt lat="50.08468" lon="3.80493">
        <ele>166.93</ele>
        <time>2021-08-08T07:11:39Z</time>
      </trkpt>
      <trkpt lat="50.08467" lon="3.80494">
        <ele>166.93</ele>
        <time>2021-08-08T07:11:40Z</time>
      </trkpt>
      <trkpt lat="50.08465" lon="3.80494">
        <ele>166.93</ele>
        <time>2021-08-08T07:11:41Z</time>
      </trkpt>
      <trkpt lat="50.08459" lon="3.80494">
        <ele>167.41</ele>
        <time>2021-08-08T07:11:47Z</time>
      </trkpt>
      <trkpt lat="50.08447" lon="3.80492">
        <ele>167.89</ele>
        <time>2021-08-08T07:11:56Z</time>
      </trkpt>
      <trkpt lat="50.08445" lon="3.80491">
        <ele>167.89</ele>
        <time>2021-08-08T07:11:57Z</time>
      </trkpt>
      <trkpt lat="50.08438" lon="3.8049">
        <ele>167.89</ele>
        <time>2021-08-08T07:12:02Z</time>
      </trkpt>
      <trkpt lat="50.08437" lon="3.80489">
        <ele>167.89</ele>
        <time>2021-08-08T07:12:03Z</time>
      </trkpt>
      <trkpt lat="50.08436" lon="3.80489">
        <ele>167.89</ele>
        <time>2021-08-08T07:12:04Z</time>
      </trkpt>
      <trkpt lat="50.08434" lon="3.80488">
        <ele>167.89</ele>
        <time>2021-08-08T07:12:05Z</time>
      </trkpt>
      <trkpt lat="50.08433" lon="3.80488">
        <ele>167.89</ele>
        <time>2021-08-08T07:12:06Z</time>
      </trkpt>
      <trkpt lat="50.08424" lon="3.80486">
        <ele>168.85</ele>
        <time>2021-08-08T07:12:13Z</time>
      </trkpt>
      <trkpt lat="50.08422" lon="3.80486">
        <ele>168.85</ele>
        <time>2021-08-08T07:12:15Z</time>
      </trkpt>
      <trkpt lat="50.08421" lon="3.80486">
        <ele>168.85</ele>
        <time>2021-08-08T07:12:16Z</time>
      </trkpt>
      <trkpt lat="50.08419" lon="3.80486">
        <ele>168.85</ele>
        <time>2021-08-08T07:12:17Z</time>
      </trkpt>
      <trkpt lat="50.08418" lon="3.80486">
        <ele>168.85</ele>
        <time>2021-08-08T07:12:18Z</time>
      </trkpt>
      <trkpt lat="50.08416" lon="3.80487">
        <ele>168.85</ele>
        <time>2021-08-08T07:12:19Z</time>
      </trkpt>
      <trkpt lat="50.08415" lon="3.80487">
        <ele>169.33</ele>
        <time>2021-08-08T07:12:20Z</time>
      </trkpt>
      <trkpt lat="50.08413" lon="3.80487">
        <ele>169.33</ele>
        <time>2021-08-08T07:12:21Z</time>
      </trkpt>
      <trkpt lat="50.08411" lon="3.80488">
        <ele>169.33</ele>
        <time>2021-08-08T07:12:22Z</time>
      </trkpt>
      <trkpt lat="50.08409" lon="3.80488">
        <ele>169.33</ele>
        <time>2021-08-08T07:12:23Z</time>
      </trkpt>
      <trkpt lat="50.08407" lon="3.80489">
        <ele>169.33</ele>
        <time>2021-08-08T07:12:24Z</time>
      </trkpt>
      <trkpt lat="50.08392" lon="3.80494">
        <ele>169.81</ele>
        <time>2021-08-08T07:12:32Z</time>
      </trkpt>
      <trkpt lat="50.08376" lon="3.805">
        <ele>169.81</ele>
        <time>2021-08-08T07:12:40Z</time>
      </trkpt>
      <trkpt lat="50.08357" lon="3.80511">
        <ele>170.77</ele>
        <time>2021-08-08T07:12:49Z</time>
      </trkpt>
      <trkpt lat="50.08339" lon="3.80521">
        <ele>171.73</ele>
        <time>2021-08-08T07:12:58Z</time>
      </trkpt>
      <trkpt lat="50.08319" lon="3.80537">
        <ele>172.69</ele>
        <time>2021-08-08T07:13:09Z</time>
      </trkpt>
      <trkpt lat="50.08312" lon="3.8055">
        <ele>173.17</ele>
        <time>2021-08-08T07:13:15Z</time>
      </trkpt>
      <trkpt lat="50.08311" lon="3.80552">
        <ele>173.17</ele>
        <time>2021-08-08T07:13:16Z</time>
      </trkpt>
      <trkpt lat="50.08309" lon="3.80554">
        <ele>173.17</ele>
        <time>2021-08-08T07:13:17Z</time>
      </trkpt>
      <trkpt lat="50.08308" lon="3.80556">
        <ele>173.66</ele>
        <time>2021-08-08T07:13:18Z</time>
      </trkpt>
      <trkpt lat="50.08307" lon="3.80559">
        <ele>173.66</ele>
        <time>2021-08-08T07:13:19Z</time>
      </trkpt>
      <trkpt lat="50.08306" lon="3.80561">
        <ele>173.66</ele>
        <time>2021-08-08T07:13:20Z</time>
      </trkpt>
      <trkpt lat="50.08304" lon="3.80563">
        <ele>173.66</ele>
        <time>2021-08-08T07:13:21Z</time>
      </trkpt>
      <trkpt lat="50.08303" lon="3.80566">
        <ele>173.66</ele>
        <time>2021-08-08T07:13:22Z</time>
      </trkpt>
      <trkpt lat="50.08293" lon="3.80593">
        <ele>174.62</ele>
        <time>2021-08-08T07:13:32Z</time>
      </trkpt>
      <trkpt lat="50.08287" lon="3.80613">
        <ele>174.62</ele>
        <time>2021-08-08T07:13:39Z</time>
      </trkpt>
      <trkpt lat="50.08281" lon="3.80642">
        <ele>175.58</ele>
        <time>2021-08-08T07:13:49Z</time>
      </trkpt>
      <trkpt lat="50.08276" lon="3.80669">
        <ele>176.54</ele>
        <time>2021-08-08T07:13:59Z</time>
      </trkpt>
      <trkpt lat="50.08276" lon="3.80672">
        <ele>176.54</ele>
        <time>2021-08-08T07:14:00Z</time>
      </trkpt>
      <trkpt lat="50.08275" lon="3.80675">
        <ele>176.54</ele>
        <time>2021-08-08T07:14:01Z</time>
      </trkpt>
      <trkpt lat="50.08273" lon="3.80689">
        <ele>177.02</ele>
        <time>2021-08-08T07:14:06Z</time>
      </trkpt>
      <trkpt lat="50.08273" lon="3.80692">
        <ele>177.02</ele>
        <time>2021-08-08T07:14:07Z</time>
      </trkpt>
      <trkpt lat="50.08273" lon="3.80695">
        <ele>177.02</ele>
        <time>2021-08-08T07:14:08Z</time>
      </trkpt>
      <trkpt lat="50.08273" lon="3.80698">
        <ele>177.02</ele>
        <time>2021-08-08T07:14:09Z</time>
      </trkpt>
      <trkpt lat="50.08272" lon="3.80701">
        <ele>177.02</ele>
        <time>2021-08-08T07:14:10Z</time>
      </trkpt>
      <trkpt lat="50.08272" lon="3.80704">
        <ele>177.02</ele>
        <time>2021-08-08T07:14:11Z</time>
      </trkpt>
      <trkpt lat="50.08272" lon="3.80707">
        <ele>177.02</ele>
        <time>2021-08-08T07:14:12Z</time>
      </trkpt>
      <trkpt lat="50.08271" lon="3.8071">
        <ele>177.02</ele>
        <time>2021-08-08T07:14:13Z</time>
      </trkpt>
      <trkpt lat="50.0827" lon="3.80723">
        <ele>177.02</ele>
        <time>2021-08-08T07:14:17Z</time>
      </trkpt>
      <trkpt lat="50.0827" lon="3.80726">
        <ele>177.02</ele>
        <time>2021-08-08T07:14:18Z</time>
      </trkpt>
      <trkpt lat="50.0827" lon="3.80729">
        <ele>177.02</ele>
        <time>2021-08-08T07:14:19Z</time>
      </trkpt>
      <trkpt lat="50.08265" lon="3.8075">
        <ele>178.46</ele>
        <time>2021-08-08T07:14:27Z</time>
      </trkpt>
      <trkpt lat="50.08259" lon="3.8077">
        <ele>179.42</ele>
        <time>2021-08-08T07:14:35Z</time>
      </trkpt>
      <trkpt lat="50.0825" lon="3.80792">
        <ele>179.9</ele>
        <time>2021-08-08T07:14:44Z</time>
      </trkpt>
      <trkpt lat="50.0824" lon="3.80807">
        <ele>180.38</ele>
        <time>2021-08-08T07:14:52Z</time>
      </trkpt>
      <trkpt lat="50.08235" lon="3.80815">
        <ele>180.87</ele>
        <time>2021-08-08T07:14:57Z</time>
      </trkpt>
      <trkpt lat="50.08234" lon="3.80817">
        <ele>180.87</ele>
        <time>2021-08-08T07:14:58Z</time>
      </trkpt>
      <trkpt lat="50.08232" lon="3.80819">
        <ele>180.87</ele>
        <time>2021-08-08T07:14:59Z</time>
      </trkpt>
      <trkpt lat="50.08219" lon="3.80837">
        <ele>181.83</ele>
        <time>2021-08-08T07:15:08Z</time>
      </trkpt>
      <trkpt lat="50.0821" lon="3.80851">
        <ele>181.83</ele>
        <time>2021-08-08T07:15:15Z</time>
      </trkpt>
      <trkpt lat="50.08206" lon="3.80856">
        <ele>181.83</ele>
        <time>2021-08-08T07:15:18Z</time>
      </trkpt>
      <trkpt lat="50.08205" lon="3.80858">
        <ele>182.31</ele>
        <time>2021-08-08T07:15:19Z</time>
      </trkpt>
      <trkpt lat="50.08204" lon="3.8086">
        <ele>182.31</ele>
        <time>2021-08-08T07:15:20Z</time>
      </trkpt>
      <trkpt lat="50.08202" lon="3.80863">
        <ele>182.31</ele>
        <time>2021-08-08T07:15:21Z</time>
      </trkpt>
      <trkpt lat="50.08201" lon="3.80865">
        <ele>182.31</ele>
        <time>2021-08-08T07:15:22Z</time>
      </trkpt>
      <trkpt lat="50.082" lon="3.80867">
        <ele>182.31</ele>
        <time>2021-08-08T07:15:23Z</time>
      </trkpt>
      <trkpt lat="50.08199" lon="3.80869">
        <ele>182.31</ele>
        <time>2021-08-08T07:15:24Z</time>
      </trkpt>
      <trkpt lat="50.08198" lon="3.80871">
        <ele>182.31</ele>
        <time>2021-08-08T07:15:25Z</time>
      </trkpt>
      <trkpt lat="50.08197" lon="3.80873">
        <ele>182.31</ele>
        <time>2021-08-08T07:15:26Z</time>
      </trkpt>
      <trkpt lat="50.08196" lon="3.80875">
        <ele>183.27</ele>
        <time>2021-08-08T07:15:27Z</time>
      </trkpt>
      <trkpt lat="50.08195" lon="3.80877">
        <ele>183.27</ele>
        <time>2021-08-08T07:15:28Z</time>
      </trkpt>
      <trkpt lat="50.08194" lon="3.80879">
        <ele>183.27</ele>
        <time>2021-08-08T07:15:29Z</time>
      </trkpt>
      <trkpt lat="50.08192" lon="3.80882">
        <ele>183.27</ele>
        <time>2021-08-08T07:15:30Z</time>
      </trkpt>
      <trkpt lat="50.08191" lon="3.80884">
        <ele>183.27</ele>
        <time>2021-08-08T07:15:31Z</time>
      </trkpt>
      <trkpt lat="50.0819" lon="3.80886">
        <ele>183.27</ele>
        <time>2021-08-08T07:15:32Z</time>
      </trkpt>
      <trkpt lat="50.08181" lon="3.80902">
        <ele>183.75</ele>
        <time>2021-08-08T07:15:39Z</time>
      </trkpt>
      <trkpt lat="50.0817" lon="3.80922">
        <ele>184.23</ele>
        <time>2021-08-08T07:15:48Z</time>
      </trkpt>
      <trkpt lat="50.0816" lon="3.8094">
        <ele>185.19</ele>
        <time>2021-08-08T07:15:56Z</time>
      </trkpt>
      <trkpt lat="50.08147" lon="3.80952">
        <ele>185.19</ele>
        <time>2021-08-08T07:16:04Z</time>
      </trkpt>
      <trkpt lat="50.08134" lon="3.8096">
        <ele>185.19</ele>
        <time>2021-08-08T07:16:12Z</time>
      </trkpt>
      <trkpt lat="50.08116" lon="3.8097">
        <ele>186.15</ele>
        <time>2021-08-08T07:16:22Z</time>
      </trkpt>
      <trkpt lat="50.08097" lon="3.80978">
        <ele>186.63</ele>
        <time>2021-08-08T07:16:33Z</time>
      </trkpt>
      <trkpt lat="50.08086" lon="3.80983">
        <ele>186.63</ele>
        <time>2021-08-08T07:16:40Z</time>
      </trkpt>
      <trkpt lat="50.08074" lon="3.80989">
        <ele>187.11</ele>
        <time>2021-08-08T07:16:48Z</time>
      </trkpt>
      <trkpt lat="50.08062" lon="3.80996">
        <ele>187.59</ele>
        <time>2021-08-08T07:16:56Z</time>
      </trkpt>
      <trkpt lat="50.08053" lon="3.81005">
        <ele>188.08</ele>
        <time>2021-08-08T07:17:03Z</time>
      </trkpt>
      <trkpt lat="50.08043" lon="3.81023">
        <ele>189.04</ele>
        <time>2021-08-08T07:17:12Z</time>
      </trkpt>
      <trkpt lat="50.08036" lon="3.81042">
        <ele>189.52</ele>
        <time>2021-08-08T07:17:20Z</time>
      </trkpt>
      <trkpt lat="50.08029" lon="3.81057">
        <ele>190</ele>
        <time>2021-08-08T07:17:27Z</time>
      </trkpt>
      <trkpt lat="50.08024" lon="3.81075">
        <ele>190</ele>
        <time>2021-08-08T07:17:34Z</time>
      </trkpt>
      <trkpt lat="50.08017" lon="3.81094">
        <ele>190.48</ele>
        <time>2021-08-08T07:17:41Z</time>
      </trkpt>
      <trkpt lat="50.08017" lon="3.81096">
        <ele>190.96</ele>
        <time>2021-08-08T07:17:42Z</time>
      </trkpt>
      <trkpt lat="50.08006" lon="3.8112">
        <ele>190.96</ele>
        <time>2021-08-08T07:17:51Z</time>
      </trkpt>
      <trkpt lat="50.07999" lon="3.81131">
        <ele>190.96</ele>
        <time>2021-08-08T07:17:56Z</time>
      </trkpt>
      <trkpt lat="50.07998" lon="3.81132">
        <ele>190.96</ele>
        <time>2021-08-08T07:17:57Z</time>
      </trkpt>
      <trkpt lat="50.07996" lon="3.81132">
        <ele>190</ele>
        <time>2021-08-08T07:17:58Z</time>
      </trkpt>
      <trkpt lat="50.07994" lon="3.81132">
        <ele>190</ele>
        <time>2021-08-08T07:17:59Z</time>
      </trkpt>
      <trkpt lat="50.07992" lon="3.81131">
        <ele>190</ele>
        <time>2021-08-08T07:18:00Z</time>
      </trkpt>
      <trkpt lat="50.0799" lon="3.81129">
        <ele>190</ele>
        <time>2021-08-08T07:18:01Z</time>
      </trkpt>
      <trkpt lat="50.07977" lon="3.81121">
        <ele>190.96</ele>
        <time>2021-08-08T07:18:06Z</time>
      </trkpt>
      <trkpt lat="50.07952" lon="3.811">
        <ele>190.96</ele>
        <time>2021-08-08T07:18:15Z</time>
      </trkpt>
      <trkpt lat="50.07914" lon="3.81069">
        <ele>192.4</ele>
        <time>2021-08-08T07:18:26Z</time>
      </trkpt>
      <trkpt lat="50.07874" lon="3.81041">
        <ele>193.84</ele>
        <time>2021-08-08T07:18:36Z</time>
      </trkpt>
      <trkpt lat="50.0787" lon="3.81038">
        <ele>193.84</ele>
        <time>2021-08-08T07:18:37Z</time>
      </trkpt>
      <trkpt lat="50.07866" lon="3.81035">
        <ele>193.84</ele>
        <time>2021-08-08T07:18:38Z</time>
      </trkpt>
      <trkpt lat="50.07822" lon="3.81007">
        <ele>193.84</ele>
        <time>2021-08-08T07:18:48Z</time>
      </trkpt>
      <trkpt lat="50.07813" lon="3.81">
        <ele>192.4</ele>
        <time>2021-08-08T07:18:50Z</time>
      </trkpt>
      <trkpt lat="50.0777" lon="3.80971">
        <ele>191.44</ele>
        <time>2021-08-08T07:18:59Z</time>
      </trkpt>
      <trkpt lat="50.07715" lon="3.80941">
        <ele>190.96</ele>
        <time>2021-08-08T07:19:09Z</time>
      </trkpt>
      <trkpt lat="50.07656" lon="3.80919">
        <ele>189.52</ele>
        <time>2021-08-08T07:19:19Z</time>
      </trkpt>
      <trkpt lat="50.07601" lon="3.80897">
        <ele>189.52</ele>
        <time>2021-08-08T07:19:29Z</time>
      </trkpt>
      <trkpt lat="50.0756" lon="3.80878">
        <ele>191.92</ele>
        <time>2021-08-08T07:19:38Z</time>
      </trkpt>
      <trkpt lat="50.07515" lon="3.80857">
        <ele>192.88</ele>
        <time>2021-08-08T07:19:48Z</time>
      </trkpt>
      <trkpt lat="50.07467" lon="3.80836">
        <ele>194.32</ele>
        <time>2021-08-08T07:19:59Z</time>
      </trkpt>
      <trkpt lat="50.07463" lon="3.80834">
        <ele>194.8</ele>
        <time>2021-08-08T07:20:00Z</time>
      </trkpt>
      <trkpt lat="50.07459" lon="3.80832">
        <ele>194.8</ele>
        <time>2021-08-08T07:20:01Z</time>
      </trkpt>
      <trkpt lat="50.0742" lon="3.80817">
        <ele>195.77</ele>
        <time>2021-08-08T07:20:10Z</time>
      </trkpt>
      <trkpt lat="50.0738" lon="3.80801">
        <ele>196.25</ele>
        <time>2021-08-08T07:20:20Z</time>
      </trkpt>
      <trkpt lat="50.07339" lon="3.80784">
        <ele>197.21</ele>
        <time>2021-08-08T07:20:30Z</time>
      </trkpt>
      <trkpt lat="50.07289" lon="3.80766">
        <ele>197.69</ele>
        <time>2021-08-08T07:20:42Z</time>
      </trkpt>
      <trkpt lat="50.07238" lon="3.80748">
        <ele>199.13</ele>
        <time>2021-08-08T07:20:54Z</time>
      </trkpt>
      <trkpt lat="50.0719" lon="3.8073">
        <ele>199.13</ele>
        <time>2021-08-08T07:21:05Z</time>
      </trkpt>
      <trkpt lat="50.07139" lon="3.80707">
        <ele>200.09</ele>
        <time>2021-08-08T07:21:16Z</time>
      </trkpt>
      <trkpt lat="50.07111" lon="3.80691">
        <ele>199.13</ele>
        <time>2021-08-08T07:21:22Z</time>
      </trkpt>
      <trkpt lat="50.07089" lon="3.8068">
        <ele>200.57</ele>
        <time>2021-08-08T07:21:27Z</time>
      </trkpt>
      <trkpt lat="50.07066" lon="3.80666">
        <ele>201.05</ele>
        <time>2021-08-08T07:21:32Z</time>
      </trkpt>
      <trkpt lat="50.07058" lon="3.80656">
        <ele>201.05</ele>
        <time>2021-08-08T07:21:34Z</time>
      </trkpt>
      <trkpt lat="50.07054" lon="3.80649">
        <ele>201.05</ele>
        <time>2021-08-08T07:21:35Z</time>
      </trkpt>
      <trkpt lat="50.07052" lon="3.80644">
        <ele>201.05</ele>
        <time>2021-08-08T07:21:36Z</time>
      </trkpt>
      <trkpt lat="50.07049" lon="3.80636">
        <ele>199.13</ele>
        <time>2021-08-08T07:21:37Z</time>
      </trkpt>
      <trkpt lat="50.07047" lon="3.80629">
        <ele>199.13</ele>
        <time>2021-08-08T07:21:38Z</time>
      </trkpt>
      <trkpt lat="50.07029" lon="3.80563">
        <ele>198.17</ele>
        <time>2021-08-08T07:21:46Z</time>
      </trkpt>
      <trkpt lat="50.07" lon="3.80461">
        <ele>195.28</ele>
        <time>2021-08-08T07:21:58Z</time>
      </trkpt>
      <trkpt lat="50.06969" lon="3.80385">
        <ele>194.8</ele>
        <time>2021-08-08T07:22:08Z</time>
      </trkpt>
      <trkpt lat="50.06935" lon="3.80325">
        <ele>194.8</ele>
        <time>2021-08-08T07:22:17Z</time>
      </trkpt>
      <trkpt lat="50.06902" lon="3.80282">
        <ele>195.28</ele>
        <time>2021-08-08T07:22:25Z</time>
      </trkpt>
      <trkpt lat="50.06893" lon="3.80272">
        <ele>196.25</ele>
        <time>2021-08-08T07:22:27Z</time>
      </trkpt>
      <trkpt lat="50.06855" lon="3.80228">
        <ele>196.73</ele>
        <time>2021-08-08T07:22:37Z</time>
      </trkpt>
      <trkpt lat="50.0685" lon="3.80223">
        <ele>196.73</ele>
        <time>2021-08-08T07:22:38Z</time>
      </trkpt>
      <trkpt lat="50.06806" lon="3.80168">
        <ele>198.65</ele>
        <time>2021-08-08T07:22:50Z</time>
      </trkpt>
      <trkpt lat="50.06788" lon="3.80139">
        <ele>199.13</ele>
        <time>2021-08-08T07:22:56Z</time>
      </trkpt>
      <trkpt lat="50.06772" lon="3.80093">
        <ele>201.05</ele>
        <time>2021-08-08T07:23:04Z</time>
      </trkpt>
      <trkpt lat="50.0675" lon="3.80035">
        <ele>202.49</ele>
        <time>2021-08-08T07:23:14Z</time>
      </trkpt>
      <trkpt lat="50.06748" lon="3.8003">
        <ele>202.49</ele>
        <time>2021-08-08T07:23:15Z</time>
      </trkpt>
      <trkpt lat="50.06718" lon="3.79996">
        <ele>202.49</ele>
        <time>2021-08-08T07:23:23Z</time>
      </trkpt>
      <trkpt lat="50.06678" lon="3.79963">
        <ele>202.98</ele>
        <time>2021-08-08T07:23:32Z</time>
      </trkpt>
      <trkpt lat="50.0663" lon="3.79913">
        <ele>200.57</ele>
        <time>2021-08-08T07:23:43Z</time>
      </trkpt>
      <trkpt lat="50.06592" lon="3.79869">
        <ele>200.57</ele>
        <time>2021-08-08T07:23:52Z</time>
      </trkpt>
      <trkpt lat="50.0655" lon="3.79824">
        <ele>198.65</ele>
        <time>2021-08-08T07:24:01Z</time>
      </trkpt>
      <trkpt lat="50.065" lon="3.79768">
        <ele>197.69</ele>
        <time>2021-08-08T07:24:11Z</time>
      </trkpt>
      <trkpt lat="50.06464" lon="3.79715">
        <ele>197.69</ele>
        <time>2021-08-08T07:24:19Z</time>
      </trkpt>
      <trkpt lat="50.06454" lon="3.79692">
        <ele>197.69</ele>
        <time>2021-08-08T07:24:22Z</time>
      </trkpt>
      <trkpt lat="50.06436" lon="3.79632">
        <ele>197.21</ele>
        <time>2021-08-08T07:24:29Z</time>
      </trkpt>
      <trkpt lat="50.06424" lon="3.7959">
        <ele>196.73</ele>
        <time>2021-08-08T07:24:34Z</time>
      </trkpt>
      <trkpt lat="50.06421" lon="3.79582">
        <ele>196.73</ele>
        <time>2021-08-08T07:24:35Z</time>
      </trkpt>
      <trkpt lat="50.06417" lon="3.79575">
        <ele>196.73</ele>
        <time>2021-08-08T07:24:36Z</time>
      </trkpt>
      <trkpt lat="50.06412" lon="3.79569">
        <ele>196.73</ele>
        <time>2021-08-08T07:24:37Z</time>
      </trkpt>
      <trkpt lat="50.06407" lon="3.79562">
        <ele>195.77</ele>
        <time>2021-08-08T07:24:38Z</time>
      </trkpt>
      <trkpt lat="50.06401" lon="3.79557">
        <ele>195.28</ele>
        <time>2021-08-08T07:24:39Z</time>
      </trkpt>
      <trkpt lat="50.06396" lon="3.79553">
        <ele>195.28</ele>
        <time>2021-08-08T07:24:40Z</time>
      </trkpt>
      <trkpt lat="50.06343" lon="3.79511">
        <ele>192.88</ele>
        <time>2021-08-08T07:24:49Z</time>
      </trkpt>
      <trkpt lat="50.06278" lon="3.79455">
        <ele>190.48</ele>
        <time>2021-08-08T07:25:00Z</time>
      </trkpt>
      <trkpt lat="50.06225" lon="3.79407">
        <ele>188.56</ele>
        <time>2021-08-08T07:25:09Z</time>
      </trkpt>
      <trkpt lat="50.06212" lon="3.7939">
        <ele>188.56</ele>
        <time>2021-08-08T07:25:13Z</time>
      </trkpt>
      <trkpt lat="50.06205" lon="3.79382">
        <ele>188.56</ele>
        <time>2021-08-08T07:25:18Z</time>
      </trkpt>
      <trkpt lat="50.06203" lon="3.79383">
        <ele>188.56</ele>
        <time>2021-08-08T07:25:19Z</time>
      </trkpt>
      <trkpt lat="50.06201" lon="3.79385">
        <ele>188.56</ele>
        <time>2021-08-08T07:25:20Z</time>
      </trkpt>
      <trkpt lat="50.062" lon="3.79388">
        <ele>188.56</ele>
        <time>2021-08-08T07:25:21Z</time>
      </trkpt>
      <trkpt lat="50.06198" lon="3.79392">
        <ele>188.56</ele>
        <time>2021-08-08T07:25:22Z</time>
      </trkpt>
      <trkpt lat="50.06196" lon="3.79396">
        <ele>188.56</ele>
        <time>2021-08-08T07:25:23Z</time>
      </trkpt>
      <trkpt lat="50.06194" lon="3.794">
        <ele>188.56</ele>
        <time>2021-08-08T07:25:24Z</time>
      </trkpt>
      <trkpt lat="50.06183" lon="3.79424">
        <ele>188.56</ele>
        <time>2021-08-08T07:25:29Z</time>
      </trkpt>
      <trkpt lat="50.06156" lon="3.79472">
        <ele>188.56</ele>
        <time>2021-08-08T07:25:38Z</time>
      </trkpt>
      <trkpt lat="50.06123" lon="3.79531">
        <ele>188.56</ele>
        <time>2021-08-08T07:25:48Z</time>
      </trkpt>
      <trkpt lat="50.06092" lon="3.79589">
        <ele>188.56</ele>
        <time>2021-08-08T07:25:57Z</time>
      </trkpt>
      <trkpt lat="50.06054" lon="3.79657">
        <ele>188.56</ele>
        <time>2021-08-08T07:26:08Z</time>
      </trkpt>
      <trkpt lat="50.06047" lon="3.79663">
        <ele>188.56</ele>
        <time>2021-08-08T07:26:10Z</time>
      </trkpt>
      <trkpt lat="50.06042" lon="3.79664">
        <ele>188.56</ele>
        <time>2021-08-08T07:26:11Z</time>
      </trkpt>
      <trkpt lat="50.06037" lon="3.79662">
        <ele>188.08</ele>
        <time>2021-08-08T07:26:12Z</time>
      </trkpt>
      <trkpt lat="50.06" lon="3.7964">
        <ele>187.11</ele>
        <time>2021-08-08T07:26:19Z</time>
      </trkpt>
      <trkpt lat="50.05964" lon="3.79619">
        <ele>186.63</ele>
        <time>2021-08-08T07:26:26Z</time>
      </trkpt>
      <trkpt lat="50.05959" lon="3.79616">
        <ele>186.63</ele>
        <time>2021-08-08T07:26:27Z</time>
      </trkpt>
      <trkpt lat="50.05956" lon="3.79611">
        <ele>186.63</ele>
        <time>2021-08-08T07:26:28Z</time>
      </trkpt>
      <trkpt lat="50.05952" lon="3.79606">
        <ele>186.63</ele>
        <time>2021-08-08T07:26:29Z</time>
      </trkpt>
      <trkpt lat="50.05949" lon="3.796">
        <ele>186.63</ele>
        <time>2021-08-08T07:26:30Z</time>
      </trkpt>
      <trkpt lat="50.05946" lon="3.79594">
        <ele>186.63</ele>
        <time>2021-08-08T07:26:31Z</time>
      </trkpt>
      <trkpt lat="50.05929" lon="3.79563">
        <ele>186.15</ele>
        <time>2021-08-08T07:26:36Z</time>
      </trkpt>
      <trkpt lat="50.05924" lon="3.79558">
        <ele>186.15</ele>
        <time>2021-08-08T07:26:37Z</time>
      </trkpt>
      <trkpt lat="50.0592" lon="3.79555">
        <ele>186.15</ele>
        <time>2021-08-08T07:26:38Z</time>
      </trkpt>
      <trkpt lat="50.05915" lon="3.79552">
        <ele>186.15</ele>
        <time>2021-08-08T07:26:39Z</time>
      </trkpt>
      <trkpt lat="50.0591" lon="3.79551">
        <ele>186.15</ele>
        <time>2021-08-08T07:26:40Z</time>
      </trkpt>
      <trkpt lat="50.05906" lon="3.7955">
        <ele>186.15</ele>
        <time>2021-08-08T07:26:41Z</time>
      </trkpt>
      <trkpt lat="50.05901" lon="3.7955">
        <ele>186.15</ele>
        <time>2021-08-08T07:26:42Z</time>
      </trkpt>
      <trkpt lat="50.05897" lon="3.79551">
        <ele>187.59</ele>
        <time>2021-08-08T07:26:43Z</time>
      </trkpt>
      <trkpt lat="50.05892" lon="3.79552">
        <ele>187.59</ele>
        <time>2021-08-08T07:26:44Z</time>
      </trkpt>
      <trkpt lat="50.05846" lon="3.79572">
        <ele>189.52</ele>
        <time>2021-08-08T07:26:55Z</time>
      </trkpt>
      <trkpt lat="50.05842" lon="3.79574">
        <ele>189.52</ele>
        <time>2021-08-08T07:26:56Z</time>
      </trkpt>
      <trkpt lat="50.05794" lon="3.79596">
        <ele>190</ele>
        <time>2021-08-08T07:27:08Z</time>
      </trkpt>
      <trkpt lat="50.05786" lon="3.79598">
        <ele>190.48</ele>
        <time>2021-08-08T07:27:10Z</time>
      </trkpt>
      <trkpt lat="50.05745" lon="3.79595">
        <ele>192.88</ele>
        <time>2021-08-08T07:27:20Z</time>
      </trkpt>
      <trkpt lat="50.05712" lon="3.79581">
        <ele>194.32</ele>
        <time>2021-08-08T07:27:29Z</time>
      </trkpt>
      <trkpt lat="50.05678" lon="3.79573">
        <ele>195.28</ele>
        <time>2021-08-08T07:27:38Z</time>
      </trkpt>
      <trkpt lat="50.05638" lon="3.79577">
        <ele>197.21</ele>
        <time>2021-08-08T07:27:48Z</time>
      </trkpt>
      <trkpt lat="50.05634" lon="3.79577">
        <ele>197.69</ele>
        <time>2021-08-08T07:27:49Z</time>
      </trkpt>
      <trkpt lat="50.0563" lon="3.79578">
        <ele>197.69</ele>
        <time>2021-08-08T07:27:50Z</time>
      </trkpt>
      <trkpt lat="50.05604" lon="3.79592">
        <ele>198.65</ele>
        <time>2021-08-08T07:27:57Z</time>
      </trkpt>
      <trkpt lat="50.0558" lon="3.79627">
        <ele>197.21</ele>
        <time>2021-08-08T07:28:04Z</time>
      </trkpt>
      <trkpt lat="50.05572" lon="3.79638">
        <ele>196.25</ele>
        <time>2021-08-08T07:28:06Z</time>
      </trkpt>
      <trkpt lat="50.05568" lon="3.79644">
        <ele>196.25</ele>
        <time>2021-08-08T07:28:07Z</time>
      </trkpt>
      <trkpt lat="50.05564" lon="3.79648">
        <ele>195.28</ele>
        <time>2021-08-08T07:28:08Z</time>
      </trkpt>
      <trkpt lat="50.0556" lon="3.79653">
        <ele>195.28</ele>
        <time>2021-08-08T07:28:09Z</time>
      </trkpt>
      <trkpt lat="50.05554" lon="3.79657">
        <ele>196.73</ele>
        <time>2021-08-08T07:28:10Z</time>
      </trkpt>
      <trkpt lat="50.05549" lon="3.7966">
        <ele>196.73</ele>
        <time>2021-08-08T07:28:11Z</time>
      </trkpt>
      <trkpt lat="50.055" lon="3.79686">
        <ele>196.73</ele>
        <time>2021-08-08T07:28:20Z</time>
      </trkpt>
      <trkpt lat="50.05446" lon="3.79706">
        <ele>196.73</ele>
        <time>2021-08-08T07:28:30Z</time>
      </trkpt>
      <trkpt lat="50.0539" lon="3.79732">
        <ele>198.17</ele>
        <time>2021-08-08T07:28:41Z</time>
      </trkpt>
      <trkpt lat="50.0534" lon="3.79759">
        <ele>199.13</ele>
        <time>2021-08-08T07:28:52Z</time>
      </trkpt>
      <trkpt lat="50.05303" lon="3.79781">
        <ele>200.09</ele>
        <time>2021-08-08T07:29:01Z</time>
      </trkpt>
      <trkpt lat="50.05299" lon="3.79784">
        <ele>200.09</ele>
        <time>2021-08-08T07:29:02Z</time>
      </trkpt>
      <trkpt lat="50.05295" lon="3.79786">
        <ele>200.09</ele>
        <time>2021-08-08T07:29:03Z</time>
      </trkpt>
      <trkpt lat="50.05271" lon="3.79794">
        <ele>201.05</ele>
        <time>2021-08-08T07:29:09Z</time>
      </trkpt>
      <trkpt lat="50.05236" lon="3.79806">
        <ele>202.49</ele>
        <time>2021-08-08T07:29:17Z</time>
      </trkpt>
      <trkpt lat="50.05195" lon="3.79818">
        <ele>202.49</ele>
        <time>2021-08-08T07:29:26Z</time>
      </trkpt>
      <trkpt lat="50.05134" lon="3.79839">
        <ele>202.49</ele>
        <time>2021-08-08T07:29:39Z</time>
      </trkpt>
      <trkpt lat="50.05087" lon="3.79865">
        <ele>202.98</ele>
        <time>2021-08-08T07:29:49Z</time>
      </trkpt>
      <trkpt lat="50.05039" lon="3.79897">
        <ele>202.01</ele>
        <time>2021-08-08T07:29:59Z</time>
      </trkpt>
      <trkpt lat="50.04989" lon="3.79924">
        <ele>201.05</ele>
        <time>2021-08-08T07:30:08Z</time>
      </trkpt>
      <trkpt lat="50.04935" lon="3.7995">
        <ele>198.65</ele>
        <time>2021-08-08T07:30:17Z</time>
      </trkpt>
      <trkpt lat="50.04929" lon="3.79953">
        <ele>198.65</ele>
        <time>2021-08-08T07:30:18Z</time>
      </trkpt>
      <trkpt lat="50.04877" lon="3.79977">
        <ele>197.21</ele>
        <time>2021-08-08T07:30:26Z</time>
      </trkpt>
      <trkpt lat="50.0482" lon="3.79991">
        <ele>197.21</ele>
        <time>2021-08-08T07:30:35Z</time>
      </trkpt>
      <trkpt lat="50.04771" lon="3.7999">
        <ele>196.25</ele>
        <time>2021-08-08T07:30:43Z</time>
      </trkpt>
      <trkpt lat="50.04749" lon="3.79986">
        <ele>195.28</ele>
        <time>2021-08-08T07:30:47Z</time>
      </trkpt>
      <trkpt lat="50.04719" lon="3.79971">
        <ele>196.73</ele>
        <time>2021-08-08T07:30:53Z</time>
      </trkpt>
      <trkpt lat="50.04678" lon="3.79939">
        <ele>196.73</ele>
        <time>2021-08-08T07:31:02Z</time>
      </trkpt>
      <trkpt lat="50.04633" lon="3.79906">
        <ele>197.21</ele>
        <time>2021-08-08T07:31:12Z</time>
      </trkpt>
      <trkpt lat="50.04588" lon="3.79876">
        <ele>199.61</ele>
        <time>2021-08-08T07:31:23Z</time>
      </trkpt>
      <trkpt lat="50.04558" lon="3.79852">
        <ele>201.05</ele>
        <time>2021-08-08T07:31:32Z</time>
      </trkpt>
      <trkpt lat="50.04532" lon="3.79825">
        <ele>202.01</ele>
        <time>2021-08-08T07:31:41Z</time>
      </trkpt>
      <trkpt lat="50.04506" lon="3.79795">
        <ele>202.49</ele>
        <time>2021-08-08T07:31:50Z</time>
      </trkpt>
      <trkpt lat="50.04475" lon="3.79759">
        <ele>203.46</ele>
        <time>2021-08-08T07:32:00Z</time>
      </trkpt>
      <trkpt lat="50.04444" lon="3.79725">
        <ele>203.94</ele>
        <time>2021-08-08T07:32:10Z</time>
      </trkpt>
      <trkpt lat="50.04411" lon="3.79692">
        <ele>204.42</ele>
        <time>2021-08-08T07:32:19Z</time>
      </trkpt>
      <trkpt lat="50.04403" lon="3.79685">
        <ele>202.98</ele>
        <time>2021-08-08T07:32:21Z</time>
      </trkpt>
      <trkpt lat="50.04385" lon="3.79666">
        <ele>204.9</ele>
        <time>2021-08-08T07:32:26Z</time>
      </trkpt>
      <trkpt lat="50.04354" lon="3.79636">
        <ele>204.9</ele>
        <time>2021-08-08T07:32:34Z</time>
      </trkpt>
      <trkpt lat="50.04312" lon="3.79597">
        <ele>204.9</ele>
        <time>2021-08-08T07:32:44Z</time>
      </trkpt>
      <trkpt lat="50.04264" lon="3.79567">
        <ele>205.38</ele>
        <time>2021-08-08T07:32:55Z</time>
      </trkpt>
      <trkpt lat="50.04219" lon="3.79556">
        <ele>206.34</ele>
        <time>2021-08-08T07:33:05Z</time>
      </trkpt>
      <trkpt lat="50.04192" lon="3.79552">
        <ele>207.3</ele>
        <time>2021-08-08T07:33:11Z</time>
      </trkpt>
      <trkpt lat="50.04142" lon="3.79547">
        <ele>207.3</ele>
        <time>2021-08-08T07:33:22Z</time>
      </trkpt>
      <trkpt lat="50.04097" lon="3.79546">
        <ele>208.26</ele>
        <time>2021-08-08T07:33:32Z</time>
      </trkpt>
      <trkpt lat="50.04056" lon="3.79552">
        <ele>208.26</ele>
        <time>2021-08-08T07:33:41Z</time>
      </trkpt>
      <trkpt lat="50.0401" lon="3.79558">
        <ele>208.26</ele>
        <time>2021-08-08T07:33:51Z</time>
      </trkpt>
      <trkpt lat="50.03966" lon="3.79557">
        <ele>208.74</ele>
        <time>2021-08-08T07:34:00Z</time>
      </trkpt>
      <trkpt lat="50.03931" lon="3.79557">
        <ele>207.3</ele>
        <time>2021-08-08T07:34:07Z</time>
      </trkpt>
      <trkpt lat="50.03915" lon="3.79558">
        <ele>207.3</ele>
        <time>2021-08-08T07:34:10Z</time>
      </trkpt>
      <trkpt lat="50.03909" lon="3.79558">
        <ele>207.3</ele>
        <time>2021-08-08T07:34:11Z</time>
      </trkpt>
      <trkpt lat="50.03856" lon="3.79561">
        <ele>207.78</ele>
        <time>2021-08-08T07:34:21Z</time>
      </trkpt>
      <trkpt lat="50.03851" lon="3.79562">
        <ele>207.78</ele>
        <time>2021-08-08T07:34:22Z</time>
      </trkpt>
      <trkpt lat="50.03803" lon="3.79572">
        <ele>207.78</ele>
        <time>2021-08-08T07:34:31Z</time>
      </trkpt>
      <trkpt lat="50.03777" lon="3.79576">
        <ele>206.34</ele>
        <time>2021-08-08T07:34:36Z</time>
      </trkpt>
      <trkpt lat="50.03724" lon="3.7958">
        <ele>206.34</ele>
        <time>2021-08-08T07:34:46Z</time>
      </trkpt>
      <trkpt lat="50.03658" lon="3.79591">
        <ele>205.86</ele>
        <time>2021-08-08T07:34:58Z</time>
      </trkpt>
      <trkpt lat="50.03608" lon="3.79589">
        <ele>205.38</ele>
        <time>2021-08-08T07:35:07Z</time>
      </trkpt>
      <trkpt lat="50.0359" lon="3.79583">
        <ele>204.9</ele>
        <time>2021-08-08T07:35:10Z</time>
      </trkpt>
      <trkpt lat="50.0354" lon="3.79555">
        <ele>203.46</ele>
        <time>2021-08-08T07:35:19Z</time>
      </trkpt>
      <trkpt lat="50.03486" lon="3.79518">
        <ele>200.57</ele>
        <time>2021-08-08T07:35:28Z</time>
      </trkpt>
      <trkpt lat="50.03436" lon="3.79494">
        <ele>199.61</ele>
        <time>2021-08-08T07:35:36Z</time>
      </trkpt>
      <trkpt lat="50.03423" lon="3.79492">
        <ele>199.61</ele>
        <time>2021-08-08T07:35:38Z</time>
      </trkpt>
      <trkpt lat="50.03374" lon="3.79485">
        <ele>199.13</ele>
        <time>2021-08-08T07:35:46Z</time>
      </trkpt>
      <trkpt lat="50.03334" lon="3.79465">
        <ele>199.13</ele>
        <time>2021-08-08T07:35:54Z</time>
      </trkpt>
      <trkpt lat="50.03326" lon="3.7946">
        <ele>201.05</ele>
        <time>2021-08-08T07:35:56Z</time>
      </trkpt>
      <trkpt lat="50.03301" lon="3.79443">
        <ele>201.05</ele>
        <time>2021-08-08T07:36:02Z</time>
      </trkpt>
      <trkpt lat="50.03261" lon="3.79428">
        <ele>202.01</ele>
        <time>2021-08-08T07:36:11Z</time>
      </trkpt>
      <trkpt lat="50.03223" lon="3.7942">
        <ele>202.49</ele>
        <time>2021-08-08T07:36:20Z</time>
      </trkpt>
      <trkpt lat="50.0319" lon="3.79413">
        <ele>203.94</ele>
        <time>2021-08-08T07:36:29Z</time>
      </trkpt>
      <trkpt lat="50.03174" lon="3.79411">
        <ele>203.94</ele>
        <time>2021-08-08T07:36:33Z</time>
      </trkpt>
      <trkpt lat="50.03161" lon="3.7941">
        <ele>204.42</ele>
        <time>2021-08-08T07:36:36Z</time>
      </trkpt>
      <trkpt lat="50.03109" lon="3.79394">
        <ele>204.9</ele>
        <time>2021-08-08T07:36:48Z</time>
      </trkpt>
      <trkpt lat="50.031" lon="3.79393">
        <ele>203.46</ele>
        <time>2021-08-08T07:36:50Z</time>
      </trkpt>
      <trkpt lat="50.03091" lon="3.79393">
        <ele>205.38</ele>
        <time>2021-08-08T07:36:52Z</time>
      </trkpt>
      <trkpt lat="50.03069" lon="3.79398">
        <ele>205.86</ele>
        <time>2021-08-08T07:36:57Z</time>
      </trkpt>
      <trkpt lat="50.03027" lon="3.7943">
        <ele>205.86</ele>
        <time>2021-08-08T07:37:07Z</time>
      </trkpt>
      <trkpt lat="50.03007" lon="3.79444">
        <ele>206.82</ele>
        <time>2021-08-08T07:37:12Z</time>
      </trkpt>
      <trkpt lat="50.0297" lon="3.7945">
        <ele>207.3</ele>
        <time>2021-08-08T07:37:21Z</time>
      </trkpt>
      <trkpt lat="50.02936" lon="3.79436">
        <ele>208.26</ele>
        <time>2021-08-08T07:37:30Z</time>
      </trkpt>
      <trkpt lat="50.02919" lon="3.79424">
        <ele>209.7</ele>
        <time>2021-08-08T07:37:35Z</time>
      </trkpt>
      <trkpt lat="50.02916" lon="3.79421">
        <ele>209.7</ele>
        <time>2021-08-08T07:37:36Z</time>
      </trkpt>
      <trkpt lat="50.02884" lon="3.79393">
        <ele>207.3</ele>
        <time>2021-08-08T07:37:44Z</time>
      </trkpt>
      <trkpt lat="50.02878" lon="3.79389">
        <ele>206.82</ele>
        <time>2021-08-08T07:37:45Z</time>
      </trkpt>
      <trkpt lat="50.02834" lon="3.79361">
        <ele>204.9</ele>
        <time>2021-08-08T07:37:53Z</time>
      </trkpt>
      <trkpt lat="50.02762" lon="3.79329">
        <ele>203.46</ele>
        <time>2021-08-08T07:38:04Z</time>
      </trkpt>
      <trkpt lat="50.02711" lon="3.79322">
        <ele>202.98</ele>
        <time>2021-08-08T07:38:12Z</time>
      </trkpt>
      <trkpt lat="50.02651" lon="3.79327">
        <ele>202.49</ele>
        <time>2021-08-08T07:38:22Z</time>
      </trkpt>
      <trkpt lat="50.02607" lon="3.79329">
        <ele>203.94</ele>
        <time>2021-08-08T07:38:30Z</time>
      </trkpt>
      <trkpt lat="50.02601" lon="3.79329">
        <ele>203.94</ele>
        <time>2021-08-08T07:38:31Z</time>
      </trkpt>
      <trkpt lat="50.02581" lon="3.79332">
        <ele>204.9</ele>
        <time>2021-08-08T07:38:35Z</time>
      </trkpt>
      <trkpt lat="50.02576" lon="3.79333">
        <ele>204.9</ele>
        <time>2021-08-08T07:38:36Z</time>
      </trkpt>
      <trkpt lat="50.02572" lon="3.79335">
        <ele>204.9</ele>
        <time>2021-08-08T07:38:37Z</time>
      </trkpt>
      <trkpt lat="50.02567" lon="3.79336">
        <ele>204.9</ele>
        <time>2021-08-08T07:38:38Z</time>
      </trkpt>
      <trkpt lat="50.02563" lon="3.79338">
        <ele>205.38</ele>
        <time>2021-08-08T07:38:39Z</time>
      </trkpt>
      <trkpt lat="50.02535" lon="3.79353">
        <ele>206.34</ele>
        <time>2021-08-08T07:38:46Z</time>
      </trkpt>
      <trkpt lat="50.02507" lon="3.79364">
        <ele>206.82</ele>
        <time>2021-08-08T07:38:53Z</time>
      </trkpt>
      <trkpt lat="50.02476" lon="3.79368">
        <ele>207.3</ele>
        <time>2021-08-08T07:39:01Z</time>
      </trkpt>
      <trkpt lat="50.02455" lon="3.79363">
        <ele>208.74</ele>
        <time>2021-08-08T07:39:07Z</time>
      </trkpt>
      <trkpt lat="50.02412" lon="3.79341">
        <ele>210.67</ele>
        <time>2021-08-08T07:39:19Z</time>
      </trkpt>
      <trkpt lat="50.02373" lon="3.79319">
        <ele>210.67</ele>
        <time>2021-08-08T07:39:29Z</time>
      </trkpt>
      <trkpt lat="50.02346" lon="3.79303">
        <ele>209.22</ele>
        <time>2021-08-08T07:39:35Z</time>
      </trkpt>
      <trkpt lat="50.02288" lon="3.79266">
        <ele>206.82</ele>
        <time>2021-08-08T07:39:47Z</time>
      </trkpt>
      <trkpt lat="50.02228" lon="3.79221">
        <ele>206.34</ele>
        <time>2021-08-08T07:39:59Z</time>
      </trkpt>
      <trkpt lat="50.02189" lon="3.79196">
        <ele>203.46</ele>
        <time>2021-08-08T07:40:06Z</time>
      </trkpt>
      <trkpt lat="50.02136" lon="3.79172">
        <ele>200.09</ele>
        <time>2021-08-08T07:40:14Z</time>
      </trkpt>
      <trkpt lat="50.02075" lon="3.79133">
        <ele>197.69</ele>
        <time>2021-08-08T07:40:23Z</time>
      </trkpt>
      <trkpt lat="50.02069" lon="3.79128">
        <ele>197.69</ele>
        <time>2021-08-08T07:40:24Z</time>
      </trkpt>
      <trkpt lat="50.02027" lon="3.79091">
        <ele>194.8</ele>
        <time>2021-08-08T07:40:30Z</time>
      </trkpt>
      <trkpt lat="50.01975" lon="3.79051">
        <ele>191.44</ele>
        <time>2021-08-08T07:40:37Z</time>
      </trkpt>
      <trkpt lat="50.01967" lon="3.79047">
        <ele>191.44</ele>
        <time>2021-08-08T07:40:38Z</time>
      </trkpt>
      <trkpt lat="50.01959" lon="3.79045">
        <ele>190.96</ele>
        <time>2021-08-08T07:40:39Z</time>
      </trkpt>
      <trkpt lat="50.0195" lon="3.79043">
        <ele>190</ele>
        <time>2021-08-08T07:40:40Z</time>
      </trkpt>
      <trkpt lat="50.01906" lon="3.79041">
        <ele>186.63</ele>
        <time>2021-08-08T07:40:45Z</time>
      </trkpt>
      <trkpt lat="50.01849" lon="3.79039">
        <ele>184.23</ele>
        <time>2021-08-08T07:40:51Z</time>
      </trkpt>
      <trkpt lat="50.0182" lon="3.79037">
        <ele>182.79</ele>
        <time>2021-08-08T07:40:54Z</time>
      </trkpt>
      <trkpt lat="50.01764" lon="3.79034">
        <ele>182.31</ele>
        <time>2021-08-08T07:41:01Z</time>
      </trkpt>
      <trkpt lat="50.01743" lon="3.79033">
        <ele>180.38</ele>
        <time>2021-08-08T07:41:06Z</time>
      </trkpt>
      <trkpt lat="50.01741" lon="3.79033">
        <ele>180.38</ele>
        <time>2021-08-08T07:41:07Z</time>
      </trkpt>
      <trkpt lat="50.01739" lon="3.79031">
        <ele>180.38</ele>
        <time>2021-08-08T07:41:08Z</time>
      </trkpt>
      <trkpt lat="50.01737" lon="3.79026">
        <ele>180.38</ele>
        <time>2021-08-08T07:41:12Z</time>
      </trkpt>
      <trkpt lat="50.01737" lon="3.79023">
        <ele>180.38</ele>
        <time>2021-08-08T07:41:13Z</time>
      </trkpt>
      <trkpt lat="50.01737" lon="3.79019">
        <ele>180.38</ele>
        <time>2021-08-08T07:41:14Z</time>
      </trkpt>
      <trkpt lat="50.01738" lon="3.79014">
        <ele>179.9</ele>
        <time>2021-08-08T07:41:15Z</time>
      </trkpt>
      <trkpt lat="50.01738" lon="3.79008">
        <ele>179.9</ele>
        <time>2021-08-08T07:41:16Z</time>
      </trkpt>
      <trkpt lat="50.01736" lon="3.78961">
        <ele>178.94</ele>
        <time>2021-08-08T07:41:22Z</time>
      </trkpt>
      <trkpt lat="50.01724" lon="3.78881">
        <ele>178.46</ele>
        <time>2021-08-08T07:41:32Z</time>
      </trkpt>
      <trkpt lat="50.01721" lon="3.78866">
        <ele>179.9</ele>
        <time>2021-08-08T07:41:34Z</time>
      </trkpt>
      <trkpt lat="50.01703" lon="3.78796">
        <ele>178.94</ele>
        <time>2021-08-08T07:41:44Z</time>
      </trkpt>
      <trkpt lat="50.01683" lon="3.78739">
        <ele>178.46</ele>
        <time>2021-08-08T07:41:52Z</time>
      </trkpt>
      <trkpt lat="50.01675" lon="3.78707">
        <ele>177.5</ele>
        <time>2021-08-08T07:41:56Z</time>
      </trkpt>
      <trkpt lat="50.01674" lon="3.78699">
        <ele>177.5</ele>
        <time>2021-08-08T07:41:57Z</time>
      </trkpt>
      <trkpt lat="50.01671" lon="3.78624">
        <ele>178.94</ele>
        <time>2021-08-08T07:42:06Z</time>
      </trkpt>
      <trkpt lat="50.01671" lon="3.78567">
        <ele>179.9</ele>
        <time>2021-08-08T07:42:15Z</time>
      </trkpt>
      <trkpt lat="50.0167" lon="3.78528">
        <ele>180.87</ele>
        <time>2021-08-08T07:42:22Z</time>
      </trkpt>
      <trkpt lat="50.01669" lon="3.78475">
        <ele>182.79</ele>
        <time>2021-08-08T07:42:31Z</time>
      </trkpt>
      <trkpt lat="50.01669" lon="3.78468">
        <ele>182.79</ele>
        <time>2021-08-08T07:42:32Z</time>
      </trkpt>
      <trkpt lat="50.01669" lon="3.78406">
        <ele>183.27</ele>
        <time>2021-08-08T07:42:42Z</time>
      </trkpt>
      <trkpt lat="50.0167" lon="3.78398">
        <ele>183.27</ele>
        <time>2021-08-08T07:42:43Z</time>
      </trkpt>
      <trkpt lat="50.0167" lon="3.78392">
        <ele>183.27</ele>
        <time>2021-08-08T07:42:44Z</time>
      </trkpt>
      <trkpt lat="50.01671" lon="3.78386">
        <ele>183.27</ele>
        <time>2021-08-08T07:42:45Z</time>
      </trkpt>
      <trkpt lat="50.01671" lon="3.78365">
        <ele>183.27</ele>
        <time>2021-08-08T07:42:48Z</time>
      </trkpt>
      <trkpt lat="50.0168" lon="3.78304">
        <ele>181.83</ele>
        <time>2021-08-08T07:42:57Z</time>
      </trkpt>
      <trkpt lat="50.01687" lon="3.78278">
        <ele>181.83</ele>
        <time>2021-08-08T07:43:02Z</time>
      </trkpt>
      <trkpt lat="50.01689" lon="3.78275">
        <ele>181.83</ele>
        <time>2021-08-08T07:43:03Z</time>
      </trkpt>
      <trkpt lat="50.01689" lon="3.78274">
        <ele>181.83</ele>
        <time>2021-08-08T07:43:07Z</time>
      </trkpt>
      <trkpt lat="50.01689" lon="3.78275">
        <ele>183.27</ele>
        <time>2021-08-08T07:43:26Z</time>
      </trkpt>
      <trkpt lat="50.01687" lon="3.78274">
        <ele>183.27</ele>
        <time>2021-08-08T07:43:39Z</time>
      </trkpt>
      <trkpt lat="50.01687" lon="3.78276">
        <ele>183.27</ele>
        <time>2021-08-08T07:43:40Z</time>
      </trkpt>
      <trkpt lat="50.01686" lon="3.78277">
        <ele>183.27</ele>
        <time>2021-08-08T07:43:41Z</time>
      </trkpt>
      <trkpt lat="50.01684" lon="3.7828">
        <ele>183.27</ele>
        <time>2021-08-08T07:43:42Z</time>
      </trkpt>
      <trkpt lat="50.01683" lon="3.78281">
        <ele>183.27</ele>
        <time>2021-08-08T07:43:43Z</time>
      </trkpt>
      <trkpt lat="50.01682" lon="3.78285">
        <ele>183.27</ele>
        <time>2021-08-08T07:43:44Z</time>
      </trkpt>
      <trkpt lat="50.01681" lon="3.7829">
        <ele>183.27</ele>
        <time>2021-08-08T07:43:45Z</time>
      </trkpt>
      <trkpt lat="50.01679" lon="3.78295">
        <ele>183.27</ele>
        <time>2021-08-08T07:43:46Z</time>
      </trkpt>
      <trkpt lat="50.01678" lon="3.78301">
        <ele>183.27</ele>
        <time>2021-08-08T07:43:47Z</time>
      </trkpt>
      <trkpt lat="50.01675" lon="3.7833">
        <ele>183.27</ele>
        <time>2021-08-08T07:43:52Z</time>
      </trkpt>
      <trkpt lat="50.01677" lon="3.7833">
        <ele>183.27</ele>
        <time>2021-08-08T07:43:53Z</time>
      </trkpt>
      <trkpt lat="50.01678" lon="3.7833">
        <ele>183.27</ele>
        <time>2021-08-08T07:43:54Z</time>
      </trkpt>
      <trkpt lat="50.01681" lon="3.78332">
        <ele>183.27</ele>
        <time>2021-08-08T07:43:58Z</time>
      </trkpt>
      <trkpt lat="50.01678" lon="3.78334">
        <ele>183.27</ele>
        <time>2021-08-08T07:44:02Z</time>
      </trkpt>
      <trkpt lat="50.01675" lon="3.78331">
        <ele>183.27</ele>
        <time>2021-08-08T07:44:07Z</time>
      </trkpt>
      <trkpt lat="50.01672" lon="3.78325">
        <ele>183.27</ele>
        <time>2021-08-08T07:44:11Z</time>
      </trkpt>
      <trkpt lat="50.01672" lon="3.78321">
        <ele>183.27</ele>
        <time>2021-08-08T07:44:19Z</time>
      </trkpt>
      <trkpt lat="50.01669" lon="3.78326">
        <ele>183.27</ele>
        <time>2021-08-08T07:44:23Z</time>
      </trkpt>
      <trkpt lat="50.01668" lon="3.78331">
        <ele>183.27</ele>
        <time>2021-08-08T07:44:24Z</time>
      </trkpt>
      <trkpt lat="50.01667" lon="3.78335">
        <ele>182.31</ele>
        <time>2021-08-08T07:44:25Z</time>
      </trkpt>
      <trkpt lat="50.01664" lon="3.7838">
        <ele>182.31</ele>
        <time>2021-08-08T07:44:33Z</time>
      </trkpt>
      <trkpt lat="50.01663" lon="3.78389">
        <ele>182.31</ele>
        <time>2021-08-08T07:44:35Z</time>
      </trkpt>
      <trkpt lat="50.01661" lon="3.78392">
        <ele>182.31</ele>
        <time>2021-08-08T07:44:36Z</time>
      </trkpt>
      <trkpt lat="50.01658" lon="3.78393">
        <ele>182.31</ele>
        <time>2021-08-08T07:44:37Z</time>
      </trkpt>
      <trkpt lat="50.01655" lon="3.78394">
        <ele>182.31</ele>
        <time>2021-08-08T07:44:38Z</time>
      </trkpt>
      <trkpt lat="50.01651" lon="3.78394">
        <ele>182.31</ele>
        <time>2021-08-08T07:44:39Z</time>
      </trkpt>
      <trkpt lat="50.01642" lon="3.78394">
        <ele>181.35</ele>
        <time>2021-08-08T07:44:41Z</time>
      </trkpt>
      <trkpt lat="50.01621" lon="3.78396">
        <ele>178.46</ele>
        <time>2021-08-08T07:44:45Z</time>
      </trkpt>
      <trkpt lat="50.01615" lon="3.78395">
        <ele>177.98</ele>
        <time>2021-08-08T07:44:46Z</time>
      </trkpt>
      <trkpt lat="50.01587" lon="3.78391">
        <ele>177.02</ele>
        <time>2021-08-08T07:44:50Z</time>
      </trkpt>
      <trkpt lat="50.01579" lon="3.78391">
        <ele>176.06</ele>
        <time>2021-08-08T07:44:51Z</time>
      </trkpt>
      <trkpt lat="50.01572" lon="3.78392">
        <ele>175.1</ele>
        <time>2021-08-08T07:44:52Z</time>
      </trkpt>
      <trkpt lat="50.01566" lon="3.78393">
        <ele>175.1</ele>
        <time>2021-08-08T07:44:53Z</time>
      </trkpt>
      <trkpt lat="50.01545" lon="3.78395">
        <ele>173.66</ele>
        <time>2021-08-08T07:44:57Z</time>
      </trkpt>
      <trkpt lat="50.01541" lon="3.78391">
        <ele>172.69</ele>
        <time>2021-08-08T07:44:58Z</time>
      </trkpt>
      <trkpt lat="50.01539" lon="3.78385">
        <ele>172.69</ele>
        <time>2021-08-08T07:44:59Z</time>
      </trkpt>
      <trkpt lat="50.01537" lon="3.78378">
        <ele>172.69</ele>
        <time>2021-08-08T07:45:00Z</time>
      </trkpt>
      <trkpt lat="50.01537" lon="3.7837">
        <ele>172.21</ele>
        <time>2021-08-08T07:45:01Z</time>
      </trkpt>
      <trkpt lat="50.01536" lon="3.78363">
        <ele>171.25</ele>
        <time>2021-08-08T07:45:02Z</time>
      </trkpt>
      <trkpt lat="50.01536" lon="3.78354">
        <ele>171.25</ele>
        <time>2021-08-08T07:45:03Z</time>
      </trkpt>
      <trkpt lat="50.01532" lon="3.78304">
        <ele>170.77</ele>
        <time>2021-08-08T07:45:09Z</time>
      </trkpt>
      <trkpt lat="50.01533" lon="3.78295">
        <ele>170.29</ele>
        <time>2021-08-08T07:45:10Z</time>
      </trkpt>
      <trkpt lat="50.01534" lon="3.78287">
        <ele>170.29</ele>
        <time>2021-08-08T07:45:11Z</time>
      </trkpt>
      <trkpt lat="50.01536" lon="3.7828">
        <ele>170.29</ele>
        <time>2021-08-08T07:45:12Z</time>
      </trkpt>
      <trkpt lat="50.01538" lon="3.78272">
        <ele>171.73</ele>
        <time>2021-08-08T07:45:13Z</time>
      </trkpt>
      <trkpt lat="50.01539" lon="3.78265">
        <ele>171.73</ele>
        <time>2021-08-08T07:45:14Z</time>
      </trkpt>
      <trkpt lat="50.0155" lon="3.7822">
        <ele>172.21</ele>
        <time>2021-08-08T07:45:20Z</time>
      </trkpt>
      <trkpt lat="50.01562" lon="3.78183">
        <ele>173.66</ele>
        <time>2021-08-08T07:45:27Z</time>
      </trkpt>
      <trkpt lat="50.01564" lon="3.78151">
        <ele>175.1</ele>
        <time>2021-08-08T07:45:33Z</time>
      </trkpt>
      <trkpt lat="50.01559" lon="3.78143">
        <ele>175.1</ele>
        <time>2021-08-08T07:45:35Z</time>
      </trkpt>
      <trkpt lat="50.01555" lon="3.78139">
        <ele>173.17</ele>
        <time>2021-08-08T07:45:36Z</time>
      </trkpt>
      <trkpt lat="50.01551" lon="3.78136">
        <ele>173.17</ele>
        <time>2021-08-08T07:45:37Z</time>
      </trkpt>
      <trkpt lat="50.01512" lon="3.78107">
        <ele>171.25</ele>
        <time>2021-08-08T07:45:44Z</time>
      </trkpt>
      <trkpt lat="50.01463" lon="3.78072">
        <ele>169.81</ele>
        <time>2021-08-08T07:45:52Z</time>
      </trkpt>
      <trkpt lat="50.0142" lon="3.78043">
        <ele>169.81</ele>
        <time>2021-08-08T07:46:00Z</time>
      </trkpt>
      <trkpt lat="50.01393" lon="3.78025">
        <ele>169.81</ele>
        <time>2021-08-08T07:46:06Z</time>
      </trkpt>
      <trkpt lat="50.01363" lon="3.78004">
        <ele>171.73</ele>
        <time>2021-08-08T07:46:13Z</time>
      </trkpt>
      <trkpt lat="50.01332" lon="3.77984">
        <ele>172.21</ele>
        <time>2021-08-08T07:46:21Z</time>
      </trkpt>
      <trkpt lat="50.01314" lon="3.77974">
        <ele>173.17</ele>
        <time>2021-08-08T07:46:27Z</time>
      </trkpt>
      <trkpt lat="50.01311" lon="3.77977">
        <ele>173.17</ele>
        <time>2021-08-08T07:46:28Z</time>
      </trkpt>
      <trkpt lat="50.01308" lon="3.77983">
        <ele>173.66</ele>
        <time>2021-08-08T07:46:29Z</time>
      </trkpt>
      <trkpt lat="50.01307" lon="3.77988">
        <ele>173.66</ele>
        <time>2021-08-08T07:46:30Z</time>
      </trkpt>
      <trkpt lat="50.01305" lon="3.77993">
        <ele>173.66</ele>
        <time>2021-08-08T07:46:31Z</time>
      </trkpt>
      <trkpt lat="50.01299" lon="3.7802">
        <ele>175.58</ele>
        <time>2021-08-08T07:46:37Z</time>
      </trkpt>
      <trkpt lat="50.01298" lon="3.78028">
        <ele>175.58</ele>
        <time>2021-08-08T07:46:39Z</time>
      </trkpt>
      <trkpt lat="50.01296" lon="3.78031">
        <ele>175.58</ele>
        <time>2021-08-08T07:46:40Z</time>
      </trkpt>
      <trkpt lat="50.01293" lon="3.78032">
        <ele>175.58</ele>
        <time>2021-08-08T07:46:41Z</time>
      </trkpt>
      <trkpt lat="50.01291" lon="3.78033">
        <ele>175.58</ele>
        <time>2021-08-08T07:46:42Z</time>
      </trkpt>
      <trkpt lat="50.01288" lon="3.78034">
        <ele>176.06</ele>
        <time>2021-08-08T07:46:43Z</time>
      </trkpt>
      <trkpt lat="50.01277" lon="3.78042">
        <ele>176.54</ele>
        <time>2021-08-08T07:46:48Z</time>
      </trkpt>
      <trkpt lat="50.01278" lon="3.78042">
        <ele>176.54</ele>
        <time>2021-08-08T07:46:55Z</time>
      </trkpt>
      <trkpt lat="50.01279" lon="3.78042">
        <ele>176.54</ele>
        <time>2021-08-08T07:47:10Z</time>
      </trkpt>
      <trkpt lat="50.01282" lon="3.78043">
        <ele>176.54</ele>
        <time>2021-08-08T07:47:30Z</time>
      </trkpt>
      <trkpt lat="50.01283" lon="3.78043">
        <ele>176.54</ele>
        <time>2021-08-08T07:47:52Z</time>
      </trkpt>
      <trkpt lat="50.01282" lon="3.78043">
        <ele>176.54</ele>
        <time>2021-08-08T07:48:10Z</time>
      </trkpt>
      <trkpt lat="50.01282" lon="3.78042">
        <ele>176.54</ele>
        <time>2021-08-08T07:48:26Z</time>
      </trkpt>
      <trkpt lat="50.01281" lon="3.78041">
        <ele>176.54</ele>
        <time>2021-08-08T07:48:44Z</time>
      </trkpt>
      <trkpt lat="50.01281" lon="3.78041">
        <ele>176.54</ele>
        <time>2021-08-08T07:48:57Z</time>
      </trkpt>
      <trkpt lat="50.0128" lon="3.7804">
        <ele>176.54</ele>
        <time>2021-08-08T07:49:16Z</time>
      </trkpt>
      <trkpt lat="50.01279" lon="3.7804">
        <ele>176.54</ele>
        <time>2021-08-08T07:49:33Z</time>
      </trkpt>
      <trkpt lat="50.01278" lon="3.78039">
        <ele>176.54</ele>
        <time>2021-08-08T07:49:39Z</time>
      </trkpt>
      <trkpt lat="50.01279" lon="3.7804">
        <ele>176.54</ele>
        <time>2021-08-08T07:49:47Z</time>
      </trkpt>
      <trkpt lat="50.0128" lon="3.7804">
        <ele>177.02</ele>
        <time>2021-08-08T07:50:04Z</time>
      </trkpt>
      <trkpt lat="50.0128" lon="3.7804">
        <ele>177.02</ele>
        <time>2021-08-08T07:50:22Z</time>
      </trkpt>
      <trkpt lat="50.01279" lon="3.78041">
        <ele>177.02</ele>
        <time>2021-08-08T07:50:43Z</time>
      </trkpt>
      <trkpt lat="50.01279" lon="3.78041">
        <ele>177.02</ele>
        <time>2021-08-08T07:50:59Z</time>
      </trkpt>
      <trkpt lat="50.0128" lon="3.7804">
        <ele>177.02</ele>
        <time>2021-08-08T07:51:16Z</time>
      </trkpt>
      <trkpt lat="50.0128" lon="3.7804">
        <ele>177.02</ele>
        <time>2021-08-08T07:51:29Z</time>
      </trkpt>
      <trkpt lat="50.0128" lon="3.78041">
        <ele>177.02</ele>
        <time>2021-08-08T07:51:48Z</time>
      </trkpt>
      <trkpt lat="50.01279" lon="3.7804">
        <ele>177.02</ele>
        <time>2021-08-08T07:52:07Z</time>
      </trkpt>
      <trkpt lat="50.01277" lon="3.7804">
        <ele>177.02</ele>
        <time>2021-08-08T07:52:26Z</time>
      </trkpt>
      <trkpt lat="50.01277" lon="3.78041">
        <ele>177.02</ele>
        <time>2021-08-08T07:52:44Z</time>
      </trkpt>
      <trkpt lat="50.01278" lon="3.7804">
        <ele>177.02</ele>
        <time>2021-08-08T07:53:03Z</time>
      </trkpt>
      <trkpt lat="50.01279" lon="3.78041">
        <ele>177.02</ele>
        <time>2021-08-08T07:53:21Z</time>
      </trkpt>
      <trkpt lat="50.0128" lon="3.78039">
        <ele>177.02</ele>
        <time>2021-08-08T07:53:39Z</time>
      </trkpt>
      <trkpt lat="50.01279" lon="3.7804">
        <ele>177.5</ele>
        <time>2021-08-08T07:54:01Z</time>
      </trkpt>
      <trkpt lat="50.01278" lon="3.78039">
        <ele>177.5</ele>
        <time>2021-08-08T07:54:14Z</time>
      </trkpt>
      <trkpt lat="50.01279" lon="3.78041">
        <ele>177.5</ele>
        <time>2021-08-08T07:54:32Z</time>
      </trkpt>
      <trkpt lat="50.01279" lon="3.78041">
        <ele>177.5</ele>
        <time>2021-08-08T07:54:53Z</time>
      </trkpt>
      <trkpt lat="50.01279" lon="3.78043">
        <ele>176.06</ele>
        <time>2021-08-08T07:55:09Z</time>
      </trkpt>
      <trkpt lat="50.01279" lon="3.78043">
        <ele>176.06</ele>
        <time>2021-08-08T07:55:24Z</time>
      </trkpt>
      <trkpt lat="50.01279" lon="3.78045">
        <ele>176.06</ele>
        <time>2021-08-08T07:55:40Z</time>
      </trkpt>
      <trkpt lat="50.01277" lon="3.78044">
        <ele>176.06</ele>
        <time>2021-08-08T07:56:01Z</time>
      </trkpt>
      <trkpt lat="50.01277" lon="3.78043">
        <ele>176.06</ele>
        <time>2021-08-08T07:56:16Z</time>
      </trkpt>
      <trkpt lat="50.01278" lon="3.78042">
        <ele>176.06</ele>
        <time>2021-08-08T07:56:34Z</time>
      </trkpt>
      <trkpt lat="50.01279" lon="3.78043">
        <ele>176.06</ele>
        <time>2021-08-08T07:56:59Z</time>
      </trkpt>
      <trkpt lat="50.01279" lon="3.78043">
        <ele>176.06</ele>
        <time>2021-08-08T07:57:16Z</time>
      </trkpt>
      <trkpt lat="50.01278" lon="3.78042">
        <ele>176.06</ele>
        <time>2021-08-08T07:57:33Z</time>
      </trkpt>
      <trkpt lat="50.01276" lon="3.78042">
        <ele>176.06</ele>
        <time>2021-08-08T07:57:52Z</time>
      </trkpt>
      <trkpt lat="50.01276" lon="3.7804">
        <ele>176.06</ele>
        <time>2021-08-08T07:58:12Z</time>
      </trkpt>
      <trkpt lat="50.01276" lon="3.78038">
        <ele>177.5</ele>
        <time>2021-08-08T07:58:32Z</time>
      </trkpt>
      <trkpt lat="50.01276" lon="3.78039">
        <ele>177.5</ele>
        <time>2021-08-08T07:58:56Z</time>
      </trkpt>
      <trkpt lat="50.01275" lon="3.78036">
        <ele>177.5</ele>
        <time>2021-08-08T07:59:05Z</time>
      </trkpt>
      <trkpt lat="50.01275" lon="3.7804">
        <ele>177.5</ele>
        <time>2021-08-08T07:59:28Z</time>
      </trkpt>
      <trkpt lat="50.01275" lon="3.7804">
        <ele>177.5</ele>
        <time>2021-08-08T07:59:47Z</time>
      </trkpt>
      <trkpt lat="50.01276" lon="3.78041">
        <ele>177.5</ele>
        <time>2021-08-08T08:00:14Z</time>
      </trkpt>
      <trkpt lat="50.01275" lon="3.78044">
        <ele>177.5</ele>
        <time>2021-08-08T08:00:24Z</time>
      </trkpt>
      <trkpt lat="50.01275" lon="3.78045">
        <ele>177.5</ele>
        <time>2021-08-08T08:00:35Z</time>
      </trkpt>
      <trkpt lat="50.01276" lon="3.78045">
        <ele>177.5</ele>
        <time>2021-08-08T08:00:59Z</time>
      </trkpt>
      <trkpt lat="50.01277" lon="3.78046">
        <ele>176.06</ele>
        <time>2021-08-08T08:01:22Z</time>
      </trkpt>
      <trkpt lat="50.01277" lon="3.78046">
        <ele>176.06</ele>
        <time>2021-08-08T08:01:44Z</time>
      </trkpt>
      <trkpt lat="50.01276" lon="3.78047">
        <ele>176.06</ele>
        <time>2021-08-08T08:02:00Z</time>
      </trkpt>
      <trkpt lat="50.01275" lon="3.78047">
        <ele>176.06</ele>
        <time>2021-08-08T08:02:08Z</time>
      </trkpt>
      <trkpt lat="50.01274" lon="3.78049">
        <ele>176.06</ele>
        <time>2021-08-08T08:02:09Z</time>
      </trkpt>
      <trkpt lat="50.01274" lon="3.78052">
        <ele>176.06</ele>
        <time>2021-08-08T08:02:12Z</time>
      </trkpt>
      <trkpt lat="50.01275" lon="3.78047">
        <ele>176.06</ele>
        <time>2021-08-08T08:02:18Z</time>
      </trkpt>
      <trkpt lat="50.01274" lon="3.78046">
        <ele>177.02</ele>
        <time>2021-08-08T08:02:37Z</time>
      </trkpt>
      <trkpt lat="50.01278" lon="3.78042">
        <ele>177.02</ele>
        <time>2021-08-08T08:02:46Z</time>
      </trkpt>
      <trkpt lat="50.01281" lon="3.78037">
        <ele>176.06</ele>
        <time>2021-08-08T08:02:49Z</time>
      </trkpt>
      <trkpt lat="50.01296" lon="3.78027">
        <ele>176.06</ele>
        <time>2021-08-08T08:02:58Z</time>
      </trkpt>
      <trkpt lat="50.01297" lon="3.78024">
        <ele>175.58</ele>
        <time>2021-08-08T08:02:59Z</time>
      </trkpt>
      <trkpt lat="50.01298" lon="3.78021">
        <ele>175.58</ele>
        <time>2021-08-08T08:03:00Z</time>
      </trkpt>
      <trkpt lat="50.01298" lon="3.78017">
        <ele>175.58</ele>
        <time>2021-08-08T08:03:01Z</time>
      </trkpt>
      <trkpt lat="50.01298" lon="3.78013">
        <ele>175.58</ele>
        <time>2021-08-08T08:03:02Z</time>
      </trkpt>
      <trkpt lat="50.01298" lon="3.78009">
        <ele>175.58</ele>
        <time>2021-08-08T08:03:03Z</time>
      </trkpt>
      <trkpt lat="50.013" lon="3.78006">
        <ele>175.58</ele>
        <time>2021-08-08T08:03:04Z</time>
      </trkpt>
      <trkpt lat="50.01301" lon="3.78002">
        <ele>175.58</ele>
        <time>2021-08-08T08:03:05Z</time>
      </trkpt>
      <trkpt lat="50.01311" lon="3.77976">
        <ele>174.14</ele>
        <time>2021-08-08T08:03:11Z</time>
      </trkpt>
      <trkpt lat="50.01313" lon="3.77976">
        <ele>174.14</ele>
        <time>2021-08-08T08:03:12Z</time>
      </trkpt>
      <trkpt lat="50.01329" lon="3.77987">
        <ele>173.66</ele>
        <time>2021-08-08T08:03:17Z</time>
      </trkpt>
      <trkpt lat="50.01359" lon="3.78007">
        <ele>172.21</ele>
        <time>2021-08-08T08:03:23Z</time>
      </trkpt>
      <trkpt lat="50.01403" lon="3.78039">
        <ele>171.25</ele>
        <time>2021-08-08T08:03:31Z</time>
      </trkpt>
      <trkpt lat="50.01441" lon="3.78064">
        <ele>171.25</ele>
        <time>2021-08-08T08:03:38Z</time>
      </trkpt>
      <trkpt lat="50.01446" lon="3.78068">
        <ele>171.73</ele>
        <time>2021-08-08T08:03:39Z</time>
      </trkpt>
      <trkpt lat="50.01452" lon="3.78072">
        <ele>171.73</ele>
        <time>2021-08-08T08:03:40Z</time>
      </trkpt>
      <trkpt lat="50.01509" lon="3.78111">
        <ele>171.25</ele>
        <time>2021-08-08T08:03:51Z</time>
      </trkpt>
      <trkpt lat="50.01535" lon="3.78129">
        <ele>172.69</ele>
        <time>2021-08-08T08:03:57Z</time>
      </trkpt>
      <trkpt lat="50.01539" lon="3.78132">
        <ele>172.69</ele>
        <time>2021-08-08T08:03:58Z</time>
      </trkpt>
      <trkpt lat="50.01561" lon="3.78148">
        <ele>174.62</ele>
        <time>2021-08-08T08:04:05Z</time>
      </trkpt>
      <trkpt lat="50.01566" lon="3.78159">
        <ele>175.58</ele>
        <time>2021-08-08T08:04:08Z</time>
      </trkpt>
      <trkpt lat="50.01566" lon="3.78163">
        <ele>176.06</ele>
        <time>2021-08-08T08:04:09Z</time>
      </trkpt>
      <trkpt lat="50.01565" lon="3.78168">
        <ele>176.06</ele>
        <time>2021-08-08T08:04:10Z</time>
      </trkpt>
      <trkpt lat="50.01563" lon="3.78173">
        <ele>176.06</ele>
        <time>2021-08-08T08:04:11Z</time>
      </trkpt>
      <trkpt lat="50.01562" lon="3.78178">
        <ele>176.06</ele>
        <time>2021-08-08T08:04:12Z</time>
      </trkpt>
      <trkpt lat="50.01559" lon="3.78184">
        <ele>176.06</ele>
        <time>2021-08-08T08:04:13Z</time>
      </trkpt>
      <trkpt lat="50.01548" lon="3.78217">
        <ele>174.62</ele>
        <time>2021-08-08T08:04:18Z</time>
      </trkpt>
      <trkpt lat="50.01538" lon="3.7826">
        <ele>172.21</ele>
        <time>2021-08-08T08:04:23Z</time>
      </trkpt>
      <trkpt lat="50.01531" lon="3.78293">
        <ele>171.25</ele>
        <time>2021-08-08T08:04:27Z</time>
      </trkpt>
      <trkpt lat="50.0153" lon="3.78301">
        <ele>171.25</ele>
        <time>2021-08-08T08:04:28Z</time>
      </trkpt>
      <trkpt lat="50.0153" lon="3.7831">
        <ele>172.69</ele>
        <time>2021-08-08T08:04:29Z</time>
      </trkpt>
      <trkpt lat="50.01531" lon="3.78317">
        <ele>172.69</ele>
        <time>2021-08-08T08:04:30Z</time>
      </trkpt>
      <trkpt lat="50.01531" lon="3.78333">
        <ele>172.69</ele>
        <time>2021-08-08T08:04:32Z</time>
      </trkpt>
      <trkpt lat="50.01536" lon="3.78381">
        <ele>173.66</ele>
        <time>2021-08-08T08:04:39Z</time>
      </trkpt>
      <trkpt lat="50.01537" lon="3.78395">
        <ele>174.14</ele>
        <time>2021-08-08T08:04:41Z</time>
      </trkpt>
      <trkpt lat="50.01537" lon="3.78401">
        <ele>174.14</ele>
        <time>2021-08-08T08:04:42Z</time>
      </trkpt>
      <trkpt lat="50.01545" lon="3.78463">
        <ele>174.14</ele>
        <time>2021-08-08T08:04:50Z</time>
      </trkpt>
      <trkpt lat="50.01548" lon="3.78491">
        <ele>172.69</ele>
        <time>2021-08-08T08:04:53Z</time>
      </trkpt>
      <trkpt lat="50.01557" lon="3.78542">
        <ele>173.17</ele>
        <time>2021-08-08T08:04:59Z</time>
      </trkpt>
      <trkpt lat="50.01567" lon="3.78574">
        <ele>173.17</ele>
        <time>2021-08-08T08:05:03Z</time>
      </trkpt>
      <trkpt lat="50.01575" lon="3.78595">
        <ele>173.17</ele>
        <time>2021-08-08T08:05:06Z</time>
      </trkpt>
      <trkpt lat="50.01575" lon="3.78602">
        <ele>173.66</ele>
        <time>2021-08-08T08:05:07Z</time>
      </trkpt>
      <trkpt lat="50.01574" lon="3.78609">
        <ele>173.66</ele>
        <time>2021-08-08T08:05:08Z</time>
      </trkpt>
      <trkpt lat="50.01572" lon="3.78613">
        <ele>174.14</ele>
        <time>2021-08-08T08:05:09Z</time>
      </trkpt>
      <trkpt lat="50.0157" lon="3.78618">
        <ele>174.14</ele>
        <time>2021-08-08T08:05:10Z</time>
      </trkpt>
      <trkpt lat="50.01568" lon="3.78623">
        <ele>174.14</ele>
        <time>2021-08-08T08:05:11Z</time>
      </trkpt>
      <trkpt lat="50.01567" lon="3.78628">
        <ele>174.62</ele>
        <time>2021-08-08T08:05:12Z</time>
      </trkpt>
      <trkpt lat="50.01566" lon="3.78635">
        <ele>174.62</ele>
        <time>2021-08-08T08:05:13Z</time>
      </trkpt>
      <trkpt lat="50.01566" lon="3.78641">
        <ele>174.62</ele>
        <time>2021-08-08T08:05:14Z</time>
      </trkpt>
      <trkpt lat="50.01566" lon="3.78649">
        <ele>175.1</ele>
        <time>2021-08-08T08:05:15Z</time>
      </trkpt>
      <trkpt lat="50.01565" lon="3.78691">
        <ele>175.58</ele>
        <time>2021-08-08T08:05:21Z</time>
      </trkpt>
      <trkpt lat="50.01564" lon="3.78698">
        <ele>175.58</ele>
        <time>2021-08-08T08:05:22Z</time>
      </trkpt>
      <trkpt lat="50.01562" lon="3.78705">
        <ele>175.58</ele>
        <time>2021-08-08T08:05:23Z</time>
      </trkpt>
      <trkpt lat="50.01559" lon="3.78711">
        <ele>175.58</ele>
        <time>2021-08-08T08:05:24Z</time>
      </trkpt>
      <trkpt lat="50.01555" lon="3.78717">
        <ele>175.58</ele>
        <time>2021-08-08T08:05:25Z</time>
      </trkpt>
      <trkpt lat="50.01552" lon="3.78722">
        <ele>175.58</ele>
        <time>2021-08-08T08:05:26Z</time>
      </trkpt>
      <trkpt lat="50.01507" lon="3.78789">
        <ele>176.06</ele>
        <time>2021-08-08T08:05:38Z</time>
      </trkpt>
      <trkpt lat="50.01504" lon="3.78794">
        <ele>176.06</ele>
        <time>2021-08-08T08:05:39Z</time>
      </trkpt>
      <trkpt lat="50.01501" lon="3.78802">
        <ele>176.06</ele>
        <time>2021-08-08T08:05:40Z</time>
      </trkpt>
      <trkpt lat="50.01499" lon="3.78808">
        <ele>176.06</ele>
        <time>2021-08-08T08:05:41Z</time>
      </trkpt>
      <trkpt lat="50.01499" lon="3.78816">
        <ele>176.06</ele>
        <time>2021-08-08T08:05:42Z</time>
      </trkpt>
      <trkpt lat="50.015" lon="3.78823">
        <ele>176.06</ele>
        <time>2021-08-08T08:05:43Z</time>
      </trkpt>
      <trkpt lat="50.01502" lon="3.7883">
        <ele>176.06</ele>
        <time>2021-08-08T08:05:44Z</time>
      </trkpt>
      <trkpt lat="50.01504" lon="3.78838">
        <ele>176.06</ele>
        <time>2021-08-08T08:05:45Z</time>
      </trkpt>
      <trkpt lat="50.01519" lon="3.7889">
        <ele>176.06</ele>
        <time>2021-08-08T08:05:53Z</time>
      </trkpt>
      <trkpt lat="50.0152" lon="3.78889">
        <ele>176.06</ele>
        <time>2021-08-08T08:05:54Z</time>
      </trkpt>
      <trkpt lat="50.01518" lon="3.78882">
        <ele>176.06</ele>
        <time>2021-08-08T08:05:57Z</time>
      </trkpt>
      <trkpt lat="50.01517" lon="3.78879">
        <ele>176.06</ele>
        <time>2021-08-08T08:05:58Z</time>
      </trkpt>
      <trkpt lat="50.01516" lon="3.78875">
        <ele>176.06</ele>
        <time>2021-08-08T08:05:59Z</time>
      </trkpt>
      <trkpt lat="50.01515" lon="3.78869">
        <ele>176.06</ele>
        <time>2021-08-08T08:06:00Z</time>
      </trkpt>
      <trkpt lat="50.01512" lon="3.78856">
        <ele>176.06</ele>
        <time>2021-08-08T08:06:02Z</time>
      </trkpt>
      <trkpt lat="50.01497" lon="3.78806">
        <ele>176.06</ele>
        <time>2021-08-08T08:06:10Z</time>
      </trkpt>
      <trkpt lat="50.01479" lon="3.78761">
        <ele>176.06</ele>
        <time>2021-08-08T08:06:19Z</time>
      </trkpt>
      <trkpt lat="50.01463" lon="3.78726">
        <ele>175.58</ele>
        <time>2021-08-08T08:06:27Z</time>
      </trkpt>
      <trkpt lat="50.01446" lon="3.78717">
        <ele>173.17</ele>
        <time>2021-08-08T08:06:33Z</time>
      </trkpt>
      <trkpt lat="50.01438" lon="3.7872">
        <ele>172.69</ele>
        <time>2021-08-08T08:06:38Z</time>
      </trkpt>
      <trkpt lat="50.0143" lon="3.78742">
        <ele>172.69</ele>
        <time>2021-08-08T08:06:43Z</time>
      </trkpt>
      <trkpt lat="50.01417" lon="3.78779">
        <ele>174.14</ele>
        <time>2021-08-08T08:06:51Z</time>
      </trkpt>
      <trkpt lat="50.01399" lon="3.78804">
        <ele>175.58</ele>
        <time>2021-08-08T08:06:59Z</time>
      </trkpt>
      <trkpt lat="50.0137" lon="3.78818">
        <ele>176.54</ele>
        <time>2021-08-08T08:07:10Z</time>
      </trkpt>
      <trkpt lat="50.01352" lon="3.78826">
        <ele>179.42</ele>
        <time>2021-08-08T08:07:18Z</time>
      </trkpt>
      <trkpt lat="50.01334" lon="3.78834">
        <ele>179.9</ele>
        <time>2021-08-08T08:07:26Z</time>
      </trkpt>
      <trkpt lat="50.01307" lon="3.78846">
        <ele>181.83</ele>
        <time>2021-08-08T08:07:37Z</time>
      </trkpt>
      <trkpt lat="50.01285" lon="3.78855">
        <ele>183.27</ele>
        <time>2021-08-08T08:07:46Z</time>
      </trkpt>
      <trkpt lat="50.01254" lon="3.78867">
        <ele>185.67</ele>
        <time>2021-08-08T08:07:58Z</time>
      </trkpt>
      <trkpt lat="50.01231" lon="3.78877">
        <ele>186.15</ele>
        <time>2021-08-08T08:08:07Z</time>
      </trkpt>
      <trkpt lat="50.01195" lon="3.78891">
        <ele>189.04</ele>
        <time>2021-08-08T08:08:21Z</time>
      </trkpt>
      <trkpt lat="50.01165" lon="3.789">
        <ele>190.96</ele>
        <time>2021-08-08T08:08:32Z</time>
      </trkpt>
      <trkpt lat="50.01137" lon="3.78904">
        <ele>191.44</ele>
        <time>2021-08-08T08:08:41Z</time>
      </trkpt>
      <trkpt lat="50.01107" lon="3.78907">
        <ele>193.84</ele>
        <time>2021-08-08T08:08:51Z</time>
      </trkpt>
      <trkpt lat="50.01085" lon="3.78908">
        <ele>194.32</ele>
        <time>2021-08-08T08:08:58Z</time>
      </trkpt>
      <trkpt lat="50.01067" lon="3.78909">
        <ele>194.8</ele>
        <time>2021-08-08T08:09:04Z</time>
      </trkpt>
      <trkpt lat="50.01036" lon="3.7891">
        <ele>196.25</ele>
        <time>2021-08-08T08:09:14Z</time>
      </trkpt>
      <trkpt lat="50.01005" lon="3.78914">
        <ele>197.21</ele>
        <time>2021-08-08T08:09:24Z</time>
      </trkpt>
      <trkpt lat="50.00967" lon="3.78917">
        <ele>198.17</ele>
        <time>2021-08-08T08:09:36Z</time>
      </trkpt>
      <trkpt lat="50.00938" lon="3.7892">
        <ele>199.61</ele>
        <time>2021-08-08T08:09:45Z</time>
      </trkpt>
      <trkpt lat="50.00907" lon="3.78924">
        <ele>201.05</ele>
        <time>2021-08-08T08:09:55Z</time>
      </trkpt>
      <trkpt lat="50.00879" lon="3.78932">
        <ele>201.53</ele>
        <time>2021-08-08T08:10:04Z</time>
      </trkpt>
      <trkpt lat="50.00854" lon="3.78936">
        <ele>201.53</ele>
        <time>2021-08-08T08:10:11Z</time>
      </trkpt>
      <trkpt lat="50.00827" lon="3.78944">
        <ele>201.53</ele>
        <time>2021-08-08T08:10:19Z</time>
      </trkpt>
      <trkpt lat="50.00787" lon="3.78955">
        <ele>200.09</ele>
        <time>2021-08-08T08:10:29Z</time>
      </trkpt>
      <trkpt lat="50.00744" lon="3.78964">
        <ele>199.13</ele>
        <time>2021-08-08T08:10:39Z</time>
      </trkpt>
      <trkpt lat="50.00727" lon="3.78968">
        <ele>198.65</ele>
        <time>2021-08-08T08:10:43Z</time>
      </trkpt>
      <trkpt lat="50.00698" lon="3.78975">
        <ele>197.21</ele>
        <time>2021-08-08T08:10:49Z</time>
      </trkpt>
      <trkpt lat="50.00694" lon="3.78975">
        <ele>197.21</ele>
        <time>2021-08-08T08:10:50Z</time>
      </trkpt>
      <trkpt lat="50.0069" lon="3.78973">
        <ele>197.21</ele>
        <time>2021-08-08T08:10:51Z</time>
      </trkpt>
      <trkpt lat="50.00687" lon="3.78968">
        <ele>197.21</ele>
        <time>2021-08-08T08:10:52Z</time>
      </trkpt>
      <trkpt lat="50.00685" lon="3.78963">
        <ele>197.21</ele>
        <time>2021-08-08T08:10:53Z</time>
      </trkpt>
      <trkpt lat="50.00683" lon="3.78956">
        <ele>196.73</ele>
        <time>2021-08-08T08:10:54Z</time>
      </trkpt>
      <trkpt lat="50.00682" lon="3.78949">
        <ele>196.73</ele>
        <time>2021-08-08T08:10:55Z</time>
      </trkpt>
      <trkpt lat="50.0067" lon="3.78891">
        <ele>194.8</ele>
        <time>2021-08-08T08:11:03Z</time>
      </trkpt>
      <trkpt lat="50.00659" lon="3.78836">
        <ele>192.4</ele>
        <time>2021-08-08T08:11:10Z</time>
      </trkpt>
      <trkpt lat="50.00655" lon="3.7882">
        <ele>191.44</ele>
        <time>2021-08-08T08:11:12Z</time>
      </trkpt>
      <trkpt lat="50.00654" lon="3.78784">
        <ele>190.96</ele>
        <time>2021-08-08T08:11:18Z</time>
      </trkpt>
      <trkpt lat="50.00656" lon="3.78779">
        <ele>190.48</ele>
        <time>2021-08-08T08:11:19Z</time>
      </trkpt>
      <trkpt lat="50.00658" lon="3.78773">
        <ele>190.48</ele>
        <time>2021-08-08T08:11:20Z</time>
      </trkpt>
      <trkpt lat="50.00661" lon="3.78767">
        <ele>190</ele>
        <time>2021-08-08T08:11:21Z</time>
      </trkpt>
      <trkpt lat="50.00662" lon="3.7876">
        <ele>190</ele>
        <time>2021-08-08T08:11:22Z</time>
      </trkpt>
      <trkpt lat="50.00664" lon="3.78753">
        <ele>189.52</ele>
        <time>2021-08-08T08:11:23Z</time>
      </trkpt>
      <trkpt lat="50.00665" lon="3.78746">
        <ele>189.52</ele>
        <time>2021-08-08T08:11:24Z</time>
      </trkpt>
      <trkpt lat="50.00664" lon="3.78738">
        <ele>189.04</ele>
        <time>2021-08-08T08:11:25Z</time>
      </trkpt>
      <trkpt lat="50.00663" lon="3.78731">
        <ele>188.56</ele>
        <time>2021-08-08T08:11:26Z</time>
      </trkpt>
      <trkpt lat="50.00661" lon="3.78724">
        <ele>188.56</ele>
        <time>2021-08-08T08:11:27Z</time>
      </trkpt>
      <trkpt lat="50.00658" lon="3.78719">
        <ele>188.56</ele>
        <time>2021-08-08T08:11:28Z</time>
      </trkpt>
      <trkpt lat="50.00655" lon="3.78716">
        <ele>187.59</ele>
        <time>2021-08-08T08:11:29Z</time>
      </trkpt>
      <trkpt lat="50.00652" lon="3.78714">
        <ele>187.59</ele>
        <time>2021-08-08T08:11:30Z</time>
      </trkpt>
      <trkpt lat="50.00649" lon="3.78713">
        <ele>187.59</ele>
        <time>2021-08-08T08:11:31Z</time>
      </trkpt>
      <trkpt lat="50.00648" lon="3.78713">
        <ele>187.59</ele>
        <time>2021-08-08T08:11:32Z</time>
      </trkpt>
      <trkpt lat="50.00646" lon="3.78714">
        <ele>187.59</ele>
        <time>2021-08-08T08:11:33Z</time>
      </trkpt>
      <trkpt lat="50.00646" lon="3.78715">
        <ele>187.59</ele>
        <time>2021-08-08T08:11:39Z</time>
      </trkpt>
      <trkpt lat="50.00646" lon="3.78715">
        <ele>187.59</ele>
        <time>2021-08-08T08:11:47Z</time>
      </trkpt>
      <trkpt lat="50.00644" lon="3.78715">
        <ele>187.59</ele>
        <time>2021-08-08T08:11:55Z</time>
      </trkpt>
      <trkpt lat="50.00641" lon="3.78718">
        <ele>187.59</ele>
        <time>2021-08-08T08:12:04Z</time>
      </trkpt>
      <trkpt lat="50.0064" lon="3.78725">
        <ele>187.59</ele>
        <time>2021-08-08T08:12:10Z</time>
      </trkpt>
      <trkpt lat="50.00636" lon="3.78739">
        <ele>187.59</ele>
        <time>2021-08-08T08:12:16Z</time>
      </trkpt>
      <trkpt lat="50.00627" lon="3.78761">
        <ele>187.59</ele>
        <time>2021-08-08T08:12:22Z</time>
      </trkpt>
      <trkpt lat="50.00613" lon="3.78794">
        <ele>187.59</ele>
        <time>2021-08-08T08:12:29Z</time>
      </trkpt>
      <trkpt lat="50.00604" lon="3.78823">
        <ele>187.59</ele>
        <time>2021-08-08T08:12:34Z</time>
      </trkpt>
      <trkpt lat="50.00592" lon="3.78857">
        <ele>189.04</ele>
        <time>2021-08-08T08:12:40Z</time>
      </trkpt>
      <trkpt lat="50.00577" lon="3.78903">
        <ele>189.52</ele>
        <time>2021-08-08T08:12:48Z</time>
      </trkpt>
      <trkpt lat="50.00571" lon="3.78927">
        <ele>189.52</ele>
        <time>2021-08-08T08:12:52Z</time>
      </trkpt>
      <trkpt lat="50.00569" lon="3.78934">
        <ele>189.52</ele>
        <time>2021-08-08T08:12:53Z</time>
      </trkpt>
      <trkpt lat="50.00556" lon="3.78984">
        <ele>189.52</ele>
        <time>2021-08-08T08:13:01Z</time>
      </trkpt>
      <trkpt lat="50.00546" lon="3.79019">
        <ele>190</ele>
        <time>2021-08-08T08:13:07Z</time>
      </trkpt>
      <trkpt lat="50.00534" lon="3.79063">
        <ele>190.48</ele>
        <time>2021-08-08T08:13:14Z</time>
      </trkpt>
      <trkpt lat="50.00517" lon="3.79123">
        <ele>190.96</ele>
        <time>2021-08-08T08:13:24Z</time>
      </trkpt>
      <trkpt lat="50.00515" lon="3.7913">
        <ele>190.96</ele>
        <time>2021-08-08T08:13:25Z</time>
      </trkpt>
      <trkpt lat="50.00514" lon="3.79136">
        <ele>191.44</ele>
        <time>2021-08-08T08:13:26Z</time>
      </trkpt>
      <trkpt lat="50.00495" lon="3.79199">
        <ele>191.92</ele>
        <time>2021-08-08T08:13:37Z</time>
      </trkpt>
      <trkpt lat="50.00482" lon="3.79243">
        <ele>192.4</ele>
        <time>2021-08-08T08:13:45Z</time>
      </trkpt>
      <trkpt lat="50.00471" lon="3.79279">
        <ele>192.4</ele>
        <time>2021-08-08T08:13:52Z</time>
      </trkpt>
      <trkpt lat="50.00462" lon="3.79306">
        <ele>193.36</ele>
        <time>2021-08-08T08:13:58Z</time>
      </trkpt>
      <trkpt lat="50.00451" lon="3.7934">
        <ele>193.36</ele>
        <time>2021-08-08T08:14:05Z</time>
      </trkpt>
      <trkpt lat="50.0044" lon="3.79369">
        <ele>193.36</ele>
        <time>2021-08-08T08:14:11Z</time>
      </trkpt>
      <trkpt lat="50.00434" lon="3.79394">
        <ele>193.84</ele>
        <time>2021-08-08T08:14:16Z</time>
      </trkpt>
      <trkpt lat="50.0042" lon="3.79433">
        <ele>193.84</ele>
        <time>2021-08-08T08:14:24Z</time>
      </trkpt>
      <trkpt lat="50.00403" lon="3.79478">
        <ele>194.32</ele>
        <time>2021-08-08T08:14:33Z</time>
      </trkpt>
      <trkpt lat="50.00388" lon="3.7951">
        <ele>194.8</ele>
        <time>2021-08-08T08:14:40Z</time>
      </trkpt>
      <trkpt lat="50.00372" lon="3.79541">
        <ele>195.28</ele>
        <time>2021-08-08T08:14:47Z</time>
      </trkpt>
      <trkpt lat="50.00357" lon="3.79572">
        <ele>195.77</ele>
        <time>2021-08-08T08:14:53Z</time>
      </trkpt>
      <trkpt lat="50.00343" lon="3.79599">
        <ele>195.77</ele>
        <time>2021-08-08T08:14:59Z</time>
      </trkpt>
      <trkpt lat="50.00326" lon="3.79627">
        <ele>195.77</ele>
        <time>2021-08-08T08:15:05Z</time>
      </trkpt>
      <trkpt lat="50.00303" lon="3.79661">
        <ele>196.25</ele>
        <time>2021-08-08T08:15:13Z</time>
      </trkpt>
      <trkpt lat="50.00281" lon="3.79692">
        <ele>196.73</ele>
        <time>2021-08-08T08:15:20Z</time>
      </trkpt>
      <trkpt lat="50.00259" lon="3.79721">
        <ele>197.21</ele>
        <time>2021-08-08T08:15:27Z</time>
      </trkpt>
      <trkpt lat="50.00234" lon="3.79752">
        <ele>197.69</ele>
        <time>2021-08-08T08:15:35Z</time>
      </trkpt>
      <trkpt lat="50.00212" lon="3.79776">
        <ele>197.69</ele>
        <time>2021-08-08T08:15:42Z</time>
      </trkpt>
      <trkpt lat="50.00187" lon="3.79801">
        <ele>198.17</ele>
        <time>2021-08-08T08:15:50Z</time>
      </trkpt>
      <trkpt lat="50.00162" lon="3.79823">
        <ele>198.65</ele>
        <time>2021-08-08T08:15:58Z</time>
      </trkpt>
      <trkpt lat="50.0014" lon="3.79844">
        <ele>199.13</ele>
        <time>2021-08-08T08:16:05Z</time>
      </trkpt>
      <trkpt lat="50.00121" lon="3.79863">
        <ele>199.13</ele>
        <time>2021-08-08T08:16:12Z</time>
      </trkpt>
      <trkpt lat="50.001" lon="3.79879">
        <ele>199.13</ele>
        <time>2021-08-08T08:16:19Z</time>
      </trkpt>
      <trkpt lat="50.0007" lon="3.79898">
        <ele>199.61</ele>
        <time>2021-08-08T08:16:28Z</time>
      </trkpt>
      <trkpt lat="50.00042" lon="3.79915">
        <ele>200.09</ele>
        <time>2021-08-08T08:16:36Z</time>
      </trkpt>
      <trkpt lat="50.00011" lon="3.7993">
        <ele>200.09</ele>
        <time>2021-08-08T08:16:45Z</time>
      </trkpt>
      <trkpt lat="49.99976" lon="3.79946">
        <ele>201.53</ele>
        <time>2021-08-08T08:16:55Z</time>
      </trkpt>
      <trkpt lat="49.99954" lon="3.79955">
        <ele>201.53</ele>
        <time>2021-08-08T08:17:03Z</time>
      </trkpt>
      <trkpt lat="49.99951" lon="3.79956">
        <ele>201.53</ele>
        <time>2021-08-08T08:17:09Z</time>
      </trkpt>
      <trkpt lat="49.9995" lon="3.79956">
        <ele>201.53</ele>
        <time>2021-08-08T08:17:22Z</time>
      </trkpt>
      <trkpt lat="49.99949" lon="3.79957">
        <ele>201.53</ele>
        <time>2021-08-08T08:17:32Z</time>
      </trkpt>
      <trkpt lat="49.99949" lon="3.7996">
        <ele>202.49</ele>
        <time>2021-08-08T08:17:40Z</time>
      </trkpt>
      <trkpt lat="49.99947" lon="3.79959">
        <ele>202.98</ele>
        <time>2021-08-08T08:17:47Z</time>
      </trkpt>
      <trkpt lat="49.99943" lon="3.79954">
        <ele>201.53</ele>
        <time>2021-08-08T08:17:54Z</time>
      </trkpt>
      <trkpt lat="49.99934" lon="3.79959">
        <ele>201.53</ele>
        <time>2021-08-08T08:18:01Z</time>
      </trkpt>
      <trkpt lat="49.99905" lon="3.79966">
        <ele>201.53</ele>
        <time>2021-08-08T08:18:10Z</time>
      </trkpt>
      <trkpt lat="49.9988" lon="3.79972">
        <ele>201.53</ele>
        <time>2021-08-08T08:18:17Z</time>
      </trkpt>
      <trkpt lat="49.99858" lon="3.79977">
        <ele>201.53</ele>
        <time>2021-08-08T08:18:23Z</time>
      </trkpt>
      <trkpt lat="49.99829" lon="3.79983">
        <ele>202.49</ele>
        <time>2021-08-08T08:18:31Z</time>
      </trkpt>
      <trkpt lat="49.99809" lon="3.79988">
        <ele>202.98</ele>
        <time>2021-08-08T08:18:37Z</time>
      </trkpt>
      <trkpt lat="49.99787" lon="3.79991">
        <ele>202.98</ele>
        <time>2021-08-08T08:18:44Z</time>
      </trkpt>
      <trkpt lat="49.99768" lon="3.79995">
        <ele>202.98</ele>
        <time>2021-08-08T08:18:50Z</time>
      </trkpt>
      <trkpt lat="49.99753" lon="3.79999">
        <ele>203.46</ele>
        <time>2021-08-08T08:18:55Z</time>
      </trkpt>
      <trkpt lat="49.99752" lon="3.80002">
        <ele>203.94</ele>
        <time>2021-08-08T08:18:56Z</time>
      </trkpt>
      <trkpt lat="49.99748" lon="3.80008">
        <ele>204.9</ele>
        <time>2021-08-08T08:19:01Z</time>
      </trkpt>
      <trkpt lat="49.99735" lon="3.80019">
        <ele>204.9</ele>
        <time>2021-08-08T08:19:07Z</time>
      </trkpt>
      <trkpt lat="49.99709" lon="3.80031">
        <ele>205.86</ele>
        <time>2021-08-08T08:19:15Z</time>
      </trkpt>
      <trkpt lat="49.99671" lon="3.80049">
        <ele>206.34</ele>
        <time>2021-08-08T08:19:25Z</time>
      </trkpt>
      <trkpt lat="49.99643" lon="3.80063">
        <ele>204.9</ele>
        <time>2021-08-08T08:19:31Z</time>
      </trkpt>
      <trkpt lat="49.99628" lon="3.80069">
        <ele>204.42</ele>
        <time>2021-08-08T08:19:34Z</time>
      </trkpt>
      <trkpt lat="49.99587" lon="3.80097">
        <ele>202.49</ele>
        <time>2021-08-08T08:19:42Z</time>
      </trkpt>
      <trkpt lat="49.99558" lon="3.80123">
        <ele>201.53</ele>
        <time>2021-08-08T08:19:48Z</time>
      </trkpt>
      <trkpt lat="49.99524" lon="3.80157">
        <ele>201.53</ele>
        <time>2021-08-08T08:19:55Z</time>
      </trkpt>
      <trkpt lat="49.99492" lon="3.80189">
        <ele>201.53</ele>
        <time>2021-08-08T08:20:02Z</time>
      </trkpt>
      <trkpt lat="49.99471" lon="3.80217">
        <ele>202.98</ele>
        <time>2021-08-08T08:20:08Z</time>
      </trkpt>
      <trkpt lat="49.99464" lon="3.80227">
        <ele>203.46</ele>
        <time>2021-08-08T08:20:10Z</time>
      </trkpt>
      <trkpt lat="49.99461" lon="3.80232">
        <ele>203.46</ele>
        <time>2021-08-08T08:20:11Z</time>
      </trkpt>
      <trkpt lat="49.9944" lon="3.80264">
        <ele>203.94</ele>
        <time>2021-08-08T08:20:18Z</time>
      </trkpt>
      <trkpt lat="49.99432" lon="3.80272">
        <ele>203.94</ele>
        <time>2021-08-08T08:20:20Z</time>
      </trkpt>
      <trkpt lat="49.99429" lon="3.80276">
        <ele>204.42</ele>
        <time>2021-08-08T08:20:21Z</time>
      </trkpt>
      <trkpt lat="49.99426" lon="3.80281">
        <ele>204.42</ele>
        <time>2021-08-08T08:20:22Z</time>
      </trkpt>
      <trkpt lat="49.99408" lon="3.80306">
        <ele>204.42</ele>
        <time>2021-08-08T08:20:28Z</time>
      </trkpt>
      <trkpt lat="49.99399" lon="3.80321">
        <ele>204.9</ele>
        <time>2021-08-08T08:20:31Z</time>
      </trkpt>
      <trkpt lat="49.99382" lon="3.80354">
        <ele>205.38</ele>
        <time>2021-08-08T08:20:37Z</time>
      </trkpt>
      <trkpt lat="49.99381" lon="3.80362">
        <ele>205.38</ele>
        <time>2021-08-08T08:20:38Z</time>
      </trkpt>
      <trkpt lat="49.9938" lon="3.8037">
        <ele>205.38</ele>
        <time>2021-08-08T08:20:39Z</time>
      </trkpt>
      <trkpt lat="49.99378" lon="3.80377">
        <ele>205.38</ele>
        <time>2021-08-08T08:20:40Z</time>
      </trkpt>
      <trkpt lat="49.99377" lon="3.80384">
        <ele>205.38</ele>
        <time>2021-08-08T08:20:41Z</time>
      </trkpt>
      <trkpt lat="49.99376" lon="3.80391">
        <ele>205.38</ele>
        <time>2021-08-08T08:20:42Z</time>
      </trkpt>
      <trkpt lat="49.99375" lon="3.80398">
        <ele>205.38</ele>
        <time>2021-08-08T08:20:43Z</time>
      </trkpt>
      <trkpt lat="49.99373" lon="3.80404">
        <ele>205.38</ele>
        <time>2021-08-08T08:20:44Z</time>
      </trkpt>
      <trkpt lat="49.99365" lon="3.80429">
        <ele>205.38</ele>
        <time>2021-08-08T08:20:48Z</time>
      </trkpt>
      <trkpt lat="49.99363" lon="3.80435">
        <ele>204.9</ele>
        <time>2021-08-08T08:20:49Z</time>
      </trkpt>
      <trkpt lat="49.99354" lon="3.80449">
        <ele>204.9</ele>
        <time>2021-08-08T08:20:52Z</time>
      </trkpt>
      <trkpt lat="49.99351" lon="3.80454">
        <ele>204.9</ele>
        <time>2021-08-08T08:20:53Z</time>
      </trkpt>
      <trkpt lat="49.9934" lon="3.80477">
        <ele>204.9</ele>
        <time>2021-08-08T08:20:57Z</time>
      </trkpt>
      <trkpt lat="49.99336" lon="3.80483">
        <ele>204.9</ele>
        <time>2021-08-08T08:20:58Z</time>
      </trkpt>
      <trkpt lat="49.99333" lon="3.8049">
        <ele>203.46</ele>
        <time>2021-08-08T08:20:59Z</time>
      </trkpt>
      <trkpt lat="49.99329" lon="3.80495">
        <ele>202.98</ele>
        <time>2021-08-08T08:21:00Z</time>
      </trkpt>
      <trkpt lat="49.99324" lon="3.80501">
        <ele>202.98</ele>
        <time>2021-08-08T08:21:01Z</time>
      </trkpt>
      <trkpt lat="49.99314" lon="3.8051">
        <ele>202.49</ele>
        <time>2021-08-08T08:21:03Z</time>
      </trkpt>
      <trkpt lat="49.99276" lon="3.80537">
        <ele>199.61</ele>
        <time>2021-08-08T08:21:10Z</time>
      </trkpt>
      <trkpt lat="49.9927" lon="3.80542">
        <ele>199.61</ele>
        <time>2021-08-08T08:21:11Z</time>
      </trkpt>
      <trkpt lat="49.99265" lon="3.80548">
        <ele>199.13</ele>
        <time>2021-08-08T08:21:12Z</time>
      </trkpt>
      <trkpt lat="49.9926" lon="3.80555">
        <ele>198.65</ele>
        <time>2021-08-08T08:21:13Z</time>
      </trkpt>
      <trkpt lat="49.99255" lon="3.80562">
        <ele>198.65</ele>
        <time>2021-08-08T08:21:14Z</time>
      </trkpt>
      <trkpt lat="49.9925" lon="3.80571">
        <ele>197.69</ele>
        <time>2021-08-08T08:21:15Z</time>
      </trkpt>
      <trkpt lat="49.9924" lon="3.80587">
        <ele>197.21</ele>
        <time>2021-08-08T08:21:17Z</time>
      </trkpt>
      <trkpt lat="49.9921" lon="3.80631">
        <ele>197.21</ele>
        <time>2021-08-08T08:21:24Z</time>
      </trkpt>
      <trkpt lat="49.99187" lon="3.80668">
        <ele>196.73</ele>
        <time>2021-08-08T08:21:30Z</time>
      </trkpt>
      <trkpt lat="49.99183" lon="3.80673">
        <ele>196.73</ele>
        <time>2021-08-08T08:21:31Z</time>
      </trkpt>
      <trkpt lat="49.99153" lon="3.80729">
        <ele>195.28</ele>
        <time>2021-08-08T08:21:39Z</time>
      </trkpt>
      <trkpt lat="49.99126" lon="3.8078">
        <ele>193.36</ele>
        <time>2021-08-08T08:21:46Z</time>
      </trkpt>
      <trkpt lat="49.99088" lon="3.80847">
        <ele>191.92</ele>
        <time>2021-08-08T08:21:55Z</time>
      </trkpt>
      <trkpt lat="49.99057" lon="3.80895">
        <ele>190.96</ele>
        <time>2021-08-08T08:22:02Z</time>
      </trkpt>
      <trkpt lat="49.99053" lon="3.80901">
        <ele>190.96</ele>
        <time>2021-08-08T08:22:03Z</time>
      </trkpt>
      <trkpt lat="49.9903" lon="3.80941">
        <ele>190.96</ele>
        <time>2021-08-08T08:22:09Z</time>
      </trkpt>
      <trkpt lat="49.99026" lon="3.80948">
        <ele>190.96</ele>
        <time>2021-08-08T08:22:10Z</time>
      </trkpt>
      <trkpt lat="49.99023" lon="3.80954">
        <ele>190.96</ele>
        <time>2021-08-08T08:22:11Z</time>
      </trkpt>
      <trkpt lat="49.9902" lon="3.80959">
        <ele>190.96</ele>
        <time>2021-08-08T08:22:12Z</time>
      </trkpt>
      <trkpt lat="49.99018" lon="3.80965">
        <ele>192.4</ele>
        <time>2021-08-08T08:22:13Z</time>
      </trkpt>
      <trkpt lat="49.99015" lon="3.80971">
        <ele>193.36</ele>
        <time>2021-08-08T08:22:14Z</time>
      </trkpt>
      <trkpt lat="49.99012" lon="3.80976">
        <ele>193.36</ele>
        <time>2021-08-08T08:22:15Z</time>
      </trkpt>
      <trkpt lat="49.99009" lon="3.80981">
        <ele>193.36</ele>
        <time>2021-08-08T08:22:16Z</time>
      </trkpt>
      <trkpt lat="49.99007" lon="3.80987">
        <ele>193.36</ele>
        <time>2021-08-08T08:22:17Z</time>
      </trkpt>
      <trkpt lat="49.99006" lon="3.80994">
        <ele>193.84</ele>
        <time>2021-08-08T08:22:18Z</time>
      </trkpt>
      <trkpt lat="49.99005" lon="3.80998">
        <ele>193.84</ele>
        <time>2021-08-08T08:22:19Z</time>
      </trkpt>
      <trkpt lat="49.98992" lon="3.81039">
        <ele>193.84</ele>
        <time>2021-08-08T08:22:25Z</time>
      </trkpt>
      <trkpt lat="49.98991" lon="3.81042">
        <ele>193.84</ele>
        <time>2021-08-08T08:22:26Z</time>
      </trkpt>
      <trkpt lat="49.98975" lon="3.81064">
        <ele>194.8</ele>
        <time>2021-08-08T08:22:31Z</time>
      </trkpt>
      <trkpt lat="49.98954" lon="3.81094">
        <ele>194.8</ele>
        <time>2021-08-08T08:22:38Z</time>
      </trkpt>
      <trkpt lat="49.98928" lon="3.81118">
        <ele>195.77</ele>
        <time>2021-08-08T08:22:45Z</time>
      </trkpt>
      <trkpt lat="49.98908" lon="3.81135">
        <ele>196.25</ele>
        <time>2021-08-08T08:22:50Z</time>
      </trkpt>
      <trkpt lat="49.98904" lon="3.8114">
        <ele>196.25</ele>
        <time>2021-08-08T08:22:51Z</time>
      </trkpt>
      <trkpt lat="49.98894" lon="3.81154">
        <ele>196.25</ele>
        <time>2021-08-08T08:22:54Z</time>
      </trkpt>
      <trkpt lat="49.98891" lon="3.81159">
        <ele>196.25</ele>
        <time>2021-08-08T08:22:55Z</time>
      </trkpt>
      <trkpt lat="49.98889" lon="3.81164">
        <ele>196.25</ele>
        <time>2021-08-08T08:22:56Z</time>
      </trkpt>
      <trkpt lat="49.98883" lon="3.81174">
        <ele>196.25</ele>
        <time>2021-08-08T08:22:58Z</time>
      </trkpt>
      <trkpt lat="49.98859" lon="3.81214">
        <ele>196.73</ele>
        <time>2021-08-08T08:23:06Z</time>
      </trkpt>
      <trkpt lat="49.98838" lon="3.81247">
        <ele>197.21</ele>
        <time>2021-08-08T08:23:13Z</time>
      </trkpt>
      <trkpt lat="49.98834" lon="3.81254">
        <ele>197.21</ele>
        <time>2021-08-08T08:23:14Z</time>
      </trkpt>
      <trkpt lat="49.98828" lon="3.81263">
        <ele>197.69</ele>
        <time>2021-08-08T08:23:16Z</time>
      </trkpt>
      <trkpt lat="49.98816" lon="3.81282">
        <ele>197.69</ele>
        <time>2021-08-08T08:23:20Z</time>
      </trkpt>
      <trkpt lat="49.98793" lon="3.81314">
        <ele>199.13</ele>
        <time>2021-08-08T08:23:28Z</time>
      </trkpt>
      <trkpt lat="49.98778" lon="3.8134">
        <ele>200.09</ele>
        <time>2021-08-08T08:23:35Z</time>
      </trkpt>
      <trkpt lat="49.9877" lon="3.81373">
        <ele>200.57</ele>
        <time>2021-08-08T08:23:40Z</time>
      </trkpt>
      <trkpt lat="49.98763" lon="3.81409">
        <ele>201.53</ele>
        <time>2021-08-08T08:23:47Z</time>
      </trkpt>
      <trkpt lat="49.98754" lon="3.81437">
        <ele>202.01</ele>
        <time>2021-08-08T08:23:53Z</time>
      </trkpt>
      <trkpt lat="49.98735" lon="3.81474">
        <ele>203.46</ele>
        <time>2021-08-08T08:24:02Z</time>
      </trkpt>
      <trkpt lat="49.98718" lon="3.81509">
        <ele>203.94</ele>
        <time>2021-08-08T08:24:08Z</time>
      </trkpt>
      <trkpt lat="49.98712" lon="3.81521">
        <ele>203.94</ele>
        <time>2021-08-08T08:24:10Z</time>
      </trkpt>
      <trkpt lat="49.98708" lon="3.81525">
        <ele>203.94</ele>
        <time>2021-08-08T08:24:11Z</time>
      </trkpt>
      <trkpt lat="49.98695" lon="3.81533">
        <ele>203.94</ele>
        <time>2021-08-08T08:24:14Z</time>
      </trkpt>
      <trkpt lat="49.98691" lon="3.81535">
        <ele>203.94</ele>
        <time>2021-08-08T08:24:15Z</time>
      </trkpt>
      <trkpt lat="49.98673" lon="3.81545">
        <ele>203.94</ele>
        <time>2021-08-08T08:24:19Z</time>
      </trkpt>
      <trkpt lat="49.98652" lon="3.81565">
        <ele>203.94</ele>
        <time>2021-08-08T08:24:24Z</time>
      </trkpt>
      <trkpt lat="49.98641" lon="3.81582">
        <ele>203.94</ele>
        <time>2021-08-08T08:24:27Z</time>
      </trkpt>
      <trkpt lat="49.98628" lon="3.81607">
        <ele>203.94</ele>
        <time>2021-08-08T08:24:31Z</time>
      </trkpt>
      <trkpt lat="49.98601" lon="3.81659">
        <ele>202.49</ele>
        <time>2021-08-08T08:24:39Z</time>
      </trkpt>
      <trkpt lat="49.98567" lon="3.81728">
        <ele>201.53</ele>
        <time>2021-08-08T08:24:49Z</time>
      </trkpt>
      <trkpt lat="49.9854" lon="3.81785">
        <ele>201.05</ele>
        <time>2021-08-08T08:24:57Z</time>
      </trkpt>
      <trkpt lat="49.98537" lon="3.81792">
        <ele>201.05</ele>
        <time>2021-08-08T08:24:58Z</time>
      </trkpt>
      <trkpt lat="49.98509" lon="3.81852">
        <ele>201.05</ele>
        <time>2021-08-08T08:25:07Z</time>
      </trkpt>
      <trkpt lat="49.98506" lon="3.81858">
        <ele>201.05</ele>
        <time>2021-08-08T08:25:08Z</time>
      </trkpt>
      <trkpt lat="49.98493" lon="3.81889">
        <ele>202.49</ele>
        <time>2021-08-08T08:25:13Z</time>
      </trkpt>
      <trkpt lat="49.9849" lon="3.81893">
        <ele>202.49</ele>
        <time>2021-08-08T08:25:14Z</time>
      </trkpt>
      <trkpt lat="49.98476" lon="3.81922">
        <ele>202.49</ele>
        <time>2021-08-08T08:25:19Z</time>
      </trkpt>
      <trkpt lat="49.98474" lon="3.81926">
        <ele>202.49</ele>
        <time>2021-08-08T08:25:20Z</time>
      </trkpt>
      <trkpt lat="49.98461" lon="3.81956">
        <ele>202.98</ele>
        <time>2021-08-08T08:25:25Z</time>
      </trkpt>
      <trkpt lat="49.98442" lon="3.82013">
        <ele>202.98</ele>
        <time>2021-08-08T08:25:34Z</time>
      </trkpt>
      <trkpt lat="49.98433" lon="3.82033">
        <ele>202.98</ele>
        <time>2021-08-08T08:25:37Z</time>
      </trkpt>
      <trkpt lat="49.98416" lon="3.82073">
        <ele>201.53</ele>
        <time>2021-08-08T08:25:43Z</time>
      </trkpt>
      <trkpt lat="49.98398" lon="3.82128">
        <ele>200.57</ele>
        <time>2021-08-08T08:25:50Z</time>
      </trkpt>
      <trkpt lat="49.98391" lon="3.82152">
        <ele>200.57</ele>
        <time>2021-08-08T08:25:53Z</time>
      </trkpt>
      <trkpt lat="49.98382" lon="3.82174">
        <ele>200.57</ele>
        <time>2021-08-08T08:25:56Z</time>
      </trkpt>
      <trkpt lat="49.98379" lon="3.82181">
        <ele>200.57</ele>
        <time>2021-08-08T08:25:57Z</time>
      </trkpt>
      <trkpt lat="49.98363" lon="3.82217">
        <ele>200.57</ele>
        <time>2021-08-08T08:26:03Z</time>
      </trkpt>
      <trkpt lat="49.9835" lon="3.82254">
        <ele>202.01</ele>
        <time>2021-08-08T08:26:09Z</time>
      </trkpt>
      <trkpt lat="49.98337" lon="3.82287">
        <ele>202.49</ele>
        <time>2021-08-08T08:26:15Z</time>
      </trkpt>
      <trkpt lat="49.98332" lon="3.82306">
        <ele>202.98</ele>
        <time>2021-08-08T08:26:19Z</time>
      </trkpt>
      <trkpt lat="49.98315" lon="3.82347">
        <ele>203.94</ele>
        <time>2021-08-08T08:26:27Z</time>
      </trkpt>
      <trkpt lat="49.983" lon="3.8238">
        <ele>204.42</ele>
        <time>2021-08-08T08:26:33Z</time>
      </trkpt>
      <trkpt lat="49.98284" lon="3.82426">
        <ele>204.9</ele>
        <time>2021-08-08T08:26:41Z</time>
      </trkpt>
      <trkpt lat="49.9827" lon="3.82455">
        <ele>204.9</ele>
        <time>2021-08-08T08:26:47Z</time>
      </trkpt>
      <trkpt lat="49.98257" lon="3.82489">
        <ele>205.86</ele>
        <time>2021-08-08T08:26:53Z</time>
      </trkpt>
      <trkpt lat="49.9824" lon="3.82537">
        <ele>206.34</ele>
        <time>2021-08-08T08:27:01Z</time>
      </trkpt>
      <trkpt lat="49.98219" lon="3.82583">
        <ele>206.34</ele>
        <time>2021-08-08T08:27:09Z</time>
      </trkpt>
      <trkpt lat="49.98209" lon="3.82608">
        <ele>206.82</ele>
        <time>2021-08-08T08:27:13Z</time>
      </trkpt>
      <trkpt lat="49.98207" lon="3.82613">
        <ele>206.82</ele>
        <time>2021-08-08T08:27:14Z</time>
      </trkpt>
      <trkpt lat="49.98188" lon="3.8266">
        <ele>206.82</ele>
        <time>2021-08-08T08:27:22Z</time>
      </trkpt>
      <trkpt lat="49.98164" lon="3.82719">
        <ele>206.82</ele>
        <time>2021-08-08T08:27:31Z</time>
      </trkpt>
      <trkpt lat="49.98161" lon="3.82724">
        <ele>206.82</ele>
        <time>2021-08-08T08:27:32Z</time>
      </trkpt>
      <trkpt lat="49.98144" lon="3.82769">
        <ele>206.82</ele>
        <time>2021-08-08T08:27:39Z</time>
      </trkpt>
      <trkpt lat="49.98142" lon="3.82776">
        <ele>206.82</ele>
        <time>2021-08-08T08:27:40Z</time>
      </trkpt>
      <trkpt lat="49.98125" lon="3.82814">
        <ele>206.82</ele>
        <time>2021-08-08T08:27:46Z</time>
      </trkpt>
      <trkpt lat="49.98109" lon="3.82855">
        <ele>206.82</ele>
        <time>2021-08-08T08:27:53Z</time>
      </trkpt>
      <trkpt lat="49.98106" lon="3.82861">
        <ele>206.82</ele>
        <time>2021-08-08T08:27:54Z</time>
      </trkpt>
      <trkpt lat="49.98079" lon="3.8293">
        <ele>206.82</ele>
        <time>2021-08-08T08:28:04Z</time>
      </trkpt>
      <trkpt lat="49.98069" lon="3.82958">
        <ele>206.82</ele>
        <time>2021-08-08T08:28:08Z</time>
      </trkpt>
      <trkpt lat="49.98066" lon="3.82965">
        <ele>206.82</ele>
        <time>2021-08-08T08:28:09Z</time>
      </trkpt>
      <trkpt lat="49.98052" lon="3.82996">
        <ele>206.82</ele>
        <time>2021-08-08T08:28:15Z</time>
      </trkpt>
      <trkpt lat="49.98041" lon="3.83028">
        <ele>207.78</ele>
        <time>2021-08-08T08:28:21Z</time>
      </trkpt>
      <trkpt lat="49.9803" lon="3.83062">
        <ele>208.26</ele>
        <time>2021-08-08T08:28:28Z</time>
      </trkpt>
      <trkpt lat="49.98016" lon="3.83104">
        <ele>209.22</ele>
        <time>2021-08-08T08:28:35Z</time>
      </trkpt>
      <trkpt lat="49.97998" lon="3.83153">
        <ele>209.22</ele>
        <time>2021-08-08T08:28:43Z</time>
      </trkpt>
      <trkpt lat="49.97995" lon="3.83165">
        <ele>209.7</ele>
        <time>2021-08-08T08:28:45Z</time>
      </trkpt>
      <trkpt lat="49.9799" lon="3.8322">
        <ele>209.7</ele>
        <time>2021-08-08T08:28:53Z</time>
      </trkpt>
      <trkpt lat="49.97985" lon="3.83255">
        <ele>209.7</ele>
        <time>2021-08-08T08:28:58Z</time>
      </trkpt>
      <trkpt lat="49.97971" lon="3.83276">
        <ele>209.7</ele>
        <time>2021-08-08T08:29:03Z</time>
      </trkpt>
      <trkpt lat="49.97959" lon="3.83275">
        <ele>209.7</ele>
        <time>2021-08-08T08:29:06Z</time>
      </trkpt>
      <trkpt lat="49.97954" lon="3.83272">
        <ele>209.7</ele>
        <time>2021-08-08T08:29:07Z</time>
      </trkpt>
      <trkpt lat="49.97917" lon="3.83241">
        <ele>208.26</ele>
        <time>2021-08-08T08:29:15Z</time>
      </trkpt>
      <trkpt lat="49.97881" lon="3.83209">
        <ele>207.3</ele>
        <time>2021-08-08T08:29:22Z</time>
      </trkpt>
      <trkpt lat="49.97841" lon="3.83173">
        <ele>204.9</ele>
        <time>2021-08-08T08:29:29Z</time>
      </trkpt>
      <trkpt lat="49.97789" lon="3.83125">
        <ele>204.42</ele>
        <time>2021-08-08T08:29:38Z</time>
      </trkpt>
      <trkpt lat="49.97753" lon="3.83092">
        <ele>204.42</ele>
        <time>2021-08-08T08:29:45Z</time>
      </trkpt>
      <trkpt lat="49.97714" lon="3.83057">
        <ele>204.42</ele>
        <time>2021-08-08T08:29:53Z</time>
      </trkpt>
      <trkpt lat="49.97682" lon="3.83025">
        <ele>204.9</ele>
        <time>2021-08-08T08:30:01Z</time>
      </trkpt>
      <trkpt lat="49.97649" lon="3.82996">
        <ele>204.9</ele>
        <time>2021-08-08T08:30:08Z</time>
      </trkpt>
      <trkpt lat="49.97616" lon="3.82966">
        <ele>204.9</ele>
        <time>2021-08-08T08:30:15Z</time>
      </trkpt>
      <trkpt lat="49.97578" lon="3.82934">
        <ele>206.34</ele>
        <time>2021-08-08T08:30:23Z</time>
      </trkpt>
      <trkpt lat="49.97547" lon="3.82904">
        <ele>204.42</ele>
        <time>2021-08-08T08:30:30Z</time>
      </trkpt>
      <trkpt lat="49.97542" lon="3.829">
        <ele>204.42</ele>
        <time>2021-08-08T08:30:31Z</time>
      </trkpt>
      <trkpt lat="49.97539" lon="3.82897">
        <ele>204.42</ele>
        <time>2021-08-08T08:30:32Z</time>
      </trkpt>
      <trkpt lat="49.97533" lon="3.82888">
        <ele>204.42</ele>
        <time>2021-08-08T08:30:36Z</time>
      </trkpt>
      <trkpt lat="49.97517" lon="3.82877">
        <ele>202.98</ele>
        <time>2021-08-08T08:30:42Z</time>
      </trkpt>
      <trkpt lat="49.97512" lon="3.82873">
        <ele>202.01</ele>
        <time>2021-08-08T08:30:43Z</time>
      </trkpt>
      <trkpt lat="49.97508" lon="3.82869">
        <ele>202.01</ele>
        <time>2021-08-08T08:30:44Z</time>
      </trkpt>
      <trkpt lat="49.97494" lon="3.82861">
        <ele>202.01</ele>
        <time>2021-08-08T08:30:47Z</time>
      </trkpt>
      <trkpt lat="49.97489" lon="3.82859">
        <ele>201.05</ele>
        <time>2021-08-08T08:30:48Z</time>
      </trkpt>
      <trkpt lat="49.97484" lon="3.82859">
        <ele>201.05</ele>
        <time>2021-08-08T08:30:49Z</time>
      </trkpt>
      <trkpt lat="49.97473" lon="3.82861">
        <ele>200.09</ele>
        <time>2021-08-08T08:30:51Z</time>
      </trkpt>
      <trkpt lat="49.97425" lon="3.82884">
        <ele>200.57</ele>
        <time>2021-08-08T08:31:00Z</time>
      </trkpt>
      <trkpt lat="49.97415" lon="3.82889">
        <ele>201.53</ele>
        <time>2021-08-08T08:31:02Z</time>
      </trkpt>
      <trkpt lat="49.9741" lon="3.82891">
        <ele>201.53</ele>
        <time>2021-08-08T08:31:03Z</time>
      </trkpt>
      <trkpt lat="49.97392" lon="3.829">
        <ele>202.01</ele>
        <time>2021-08-08T08:31:07Z</time>
      </trkpt>
      <trkpt lat="49.97351" lon="3.82919">
        <ele>203.46</ele>
        <time>2021-08-08T08:31:17Z</time>
      </trkpt>
      <trkpt lat="49.9731" lon="3.8294">
        <ele>204.42</ele>
        <time>2021-08-08T08:31:27Z</time>
      </trkpt>
      <trkpt lat="49.97271" lon="3.82959">
        <ele>205.86</ele>
        <time>2021-08-08T08:31:36Z</time>
      </trkpt>
      <trkpt lat="49.97234" lon="3.82982">
        <ele>204.42</ele>
        <time>2021-08-08T08:31:44Z</time>
      </trkpt>
      <trkpt lat="49.97198" lon="3.83008">
        <ele>203.94</ele>
        <time>2021-08-08T08:31:51Z</time>
      </trkpt>
      <trkpt lat="49.97148" lon="3.83045">
        <ele>203.46</ele>
        <time>2021-08-08T08:32:01Z</time>
      </trkpt>
      <trkpt lat="49.97101" lon="3.8308">
        <ele>203.94</ele>
        <time>2021-08-08T08:32:11Z</time>
      </trkpt>
      <trkpt lat="49.97066" lon="3.83107">
        <ele>203.94</ele>
        <time>2021-08-08T08:32:19Z</time>
      </trkpt>
      <trkpt lat="49.97022" lon="3.83146">
        <ele>203.94</ele>
        <time>2021-08-08T08:32:28Z</time>
      </trkpt>
      <trkpt lat="49.9701" lon="3.83155">
        <ele>202.01</ele>
        <time>2021-08-08T08:32:30Z</time>
      </trkpt>
      <trkpt lat="49.96979" lon="3.83183">
        <ele>199.61</ele>
        <time>2021-08-08T08:32:35Z</time>
      </trkpt>
      <trkpt lat="49.96922" lon="3.83248">
        <ele>197.69</ele>
        <time>2021-08-08T08:32:44Z</time>
      </trkpt>
      <trkpt lat="49.96867" lon="3.83316">
        <ele>196.73</ele>
        <time>2021-08-08T08:32:54Z</time>
      </trkpt>
      <trkpt lat="49.96859" lon="3.83326">
        <ele>196.25</ele>
        <time>2021-08-08T08:32:56Z</time>
      </trkpt>
      <trkpt lat="49.96854" lon="3.83327">
        <ele>195.28</ele>
        <time>2021-08-08T08:32:57Z</time>
      </trkpt>
      <trkpt lat="49.96851" lon="3.83325">
        <ele>195.28</ele>
        <time>2021-08-08T08:32:58Z</time>
      </trkpt>
      <trkpt lat="49.96849" lon="3.83321">
        <ele>195.28</ele>
        <time>2021-08-08T08:32:59Z</time>
      </trkpt>
      <trkpt lat="49.96845" lon="3.83315">
        <ele>195.28</ele>
        <time>2021-08-08T08:33:00Z</time>
      </trkpt>
      <trkpt lat="49.96821" lon="3.83274">
        <ele>193.84</ele>
        <time>2021-08-08T08:33:07Z</time>
      </trkpt>
      <trkpt lat="49.96812" lon="3.83262">
        <ele>192.88</ele>
        <time>2021-08-08T08:33:09Z</time>
      </trkpt>
      <trkpt lat="49.96807" lon="3.8326">
        <ele>192.4</ele>
        <time>2021-08-08T08:33:10Z</time>
      </trkpt>
      <trkpt lat="49.96802" lon="3.83261">
        <ele>191.92</ele>
        <time>2021-08-08T08:33:11Z</time>
      </trkpt>
      <trkpt lat="49.96796" lon="3.83266">
        <ele>191.92</ele>
        <time>2021-08-08T08:33:12Z</time>
      </trkpt>
      <trkpt lat="49.96791" lon="3.83273">
        <ele>190.96</ele>
        <time>2021-08-08T08:33:13Z</time>
      </trkpt>
      <trkpt lat="49.96787" lon="3.83278">
        <ele>190.48</ele>
        <time>2021-08-08T08:33:14Z</time>
      </trkpt>
      <trkpt lat="49.96777" lon="3.83294">
        <ele>189.52</ele>
        <time>2021-08-08T08:33:16Z</time>
      </trkpt>
      <trkpt lat="49.96734" lon="3.83355">
        <ele>188.56</ele>
        <time>2021-08-08T08:33:24Z</time>
      </trkpt>
      <trkpt lat="49.96712" lon="3.83388">
        <ele>191.44</ele>
        <time>2021-08-08T08:33:29Z</time>
      </trkpt>
      <trkpt lat="49.96694" lon="3.83415">
        <ele>192.4</ele>
        <time>2021-08-08T08:33:35Z</time>
      </trkpt>
      <trkpt lat="49.96677" lon="3.83441">
        <ele>194.8</ele>
        <time>2021-08-08T08:33:43Z</time>
      </trkpt>
      <trkpt lat="49.96672" lon="3.8345">
        <ele>195.28</ele>
        <time>2021-08-08T08:33:46Z</time>
      </trkpt>
      <trkpt lat="49.96669" lon="3.83452">
        <ele>195.28</ele>
        <time>2021-08-08T08:33:47Z</time>
      </trkpt>
      <trkpt lat="49.96667" lon="3.83453">
        <ele>194.8</ele>
        <time>2021-08-08T08:33:48Z</time>
      </trkpt>
      <trkpt lat="49.96664" lon="3.83453">
        <ele>195.77</ele>
        <time>2021-08-08T08:33:49Z</time>
      </trkpt>
      <trkpt lat="49.96662" lon="3.83451">
        <ele>195.77</ele>
        <time>2021-08-08T08:33:50Z</time>
      </trkpt>
      <trkpt lat="49.96659" lon="3.83449">
        <ele>195.77</ele>
        <time>2021-08-08T08:33:51Z</time>
      </trkpt>
      <trkpt lat="49.96657" lon="3.83446">
        <ele>195.77</ele>
        <time>2021-08-08T08:33:52Z</time>
      </trkpt>
      <trkpt lat="49.96654" lon="3.83444">
        <ele>196.25</ele>
        <time>2021-08-08T08:33:53Z</time>
      </trkpt>
      <trkpt lat="49.96651" lon="3.83443">
        <ele>196.25</ele>
        <time>2021-08-08T08:33:54Z</time>
      </trkpt>
      <trkpt lat="49.96648" lon="3.83442">
        <ele>196.25</ele>
        <time>2021-08-08T08:33:55Z</time>
      </trkpt>
      <trkpt lat="49.96645" lon="3.83443">
        <ele>196.73</ele>
        <time>2021-08-08T08:33:56Z</time>
      </trkpt>
      <trkpt lat="49.96629" lon="3.83454">
        <ele>198.65</ele>
        <time>2021-08-08T08:34:03Z</time>
      </trkpt>
      <trkpt lat="49.96614" lon="3.83476">
        <ele>199.13</ele>
        <time>2021-08-08T08:34:11Z</time>
      </trkpt>
      <trkpt lat="49.96603" lon="3.83513">
        <ele>200.57</ele>
        <time>2021-08-08T08:34:20Z</time>
      </trkpt>
      <trkpt lat="49.9659" lon="3.83544">
        <ele>200.57</ele>
        <time>2021-08-08T08:34:27Z</time>
      </trkpt>
      <trkpt lat="49.96576" lon="3.8358">
        <ele>201.53</ele>
        <time>2021-08-08T08:34:34Z</time>
      </trkpt>
      <trkpt lat="49.96574" lon="3.83586">
        <ele>201.53</ele>
        <time>2021-08-08T08:34:35Z</time>
      </trkpt>
      <trkpt lat="49.96572" lon="3.83591">
        <ele>201.53</ele>
        <time>2021-08-08T08:34:36Z</time>
      </trkpt>
      <trkpt lat="49.96557" lon="3.83645">
        <ele>202.49</ele>
        <time>2021-08-08T08:34:45Z</time>
      </trkpt>
      <trkpt lat="49.96545" lon="3.837">
        <ele>202.98</ele>
        <time>2021-08-08T08:34:54Z</time>
      </trkpt>
      <trkpt lat="49.96524" lon="3.83777">
        <ele>202.98</ele>
        <time>2021-08-08T08:35:06Z</time>
      </trkpt>
      <trkpt lat="49.9652" lon="3.83779">
        <ele>202.98</ele>
        <time>2021-08-08T08:35:07Z</time>
      </trkpt>
      <trkpt lat="49.96517" lon="3.8378">
        <ele>202.98</ele>
        <time>2021-08-08T08:35:08Z</time>
      </trkpt>
      <trkpt lat="49.96513" lon="3.83779">
        <ele>202.98</ele>
        <time>2021-08-08T08:35:09Z</time>
      </trkpt>
      <trkpt lat="49.96509" lon="3.83778">
        <ele>202.98</ele>
        <time>2021-08-08T08:35:10Z</time>
      </trkpt>
      <trkpt lat="49.96505" lon="3.83778">
        <ele>202.98</ele>
        <time>2021-08-08T08:35:11Z</time>
      </trkpt>
      <trkpt lat="49.96466" lon="3.83771">
        <ele>202.98</ele>
        <time>2021-08-08T08:35:20Z</time>
      </trkpt>
      <trkpt lat="49.96445" lon="3.83768">
        <ele>202.98</ele>
        <time>2021-08-08T08:35:26Z</time>
      </trkpt>
      <trkpt lat="49.96443" lon="3.83764">
        <ele>202.98</ele>
        <time>2021-08-08T08:35:27Z</time>
      </trkpt>
      <trkpt lat="49.96442" lon="3.8376">
        <ele>202.98</ele>
        <time>2021-08-08T08:35:28Z</time>
      </trkpt>
      <trkpt lat="49.96427" lon="3.8371">
        <ele>202.01</ele>
        <time>2021-08-08T08:35:36Z</time>
      </trkpt>
      <trkpt lat="49.96425" lon="3.83703">
        <ele>202.01</ele>
        <time>2021-08-08T08:35:37Z</time>
      </trkpt>
      <trkpt lat="49.96406" lon="3.83636">
        <ele>201.53</ele>
        <time>2021-08-08T08:35:46Z</time>
      </trkpt>
      <trkpt lat="49.96403" lon="3.8363">
        <ele>201.53</ele>
        <time>2021-08-08T08:35:47Z</time>
      </trkpt>
      <trkpt lat="49.964" lon="3.83625">
        <ele>201.53</ele>
        <time>2021-08-08T08:35:48Z</time>
      </trkpt>
      <trkpt lat="49.96395" lon="3.83623">
        <ele>201.53</ele>
        <time>2021-08-08T08:35:49Z</time>
      </trkpt>
      <trkpt lat="49.96391" lon="3.83624">
        <ele>201.53</ele>
        <time>2021-08-08T08:35:50Z</time>
      </trkpt>
      <trkpt lat="49.96387" lon="3.83628">
        <ele>201.53</ele>
        <time>2021-08-08T08:35:51Z</time>
      </trkpt>
      <trkpt lat="49.96385" lon="3.83633">
        <ele>201.53</ele>
        <time>2021-08-08T08:35:52Z</time>
      </trkpt>
      <trkpt lat="49.96382" lon="3.83639">
        <ele>201.53</ele>
        <time>2021-08-08T08:35:53Z</time>
      </trkpt>
      <trkpt lat="49.96377" lon="3.83652">
        <ele>201.53</ele>
        <time>2021-08-08T08:35:55Z</time>
      </trkpt>
      <trkpt lat="49.96354" lon="3.83713">
        <ele>203.46</ele>
        <time>2021-08-08T08:36:05Z</time>
      </trkpt>
      <trkpt lat="49.96325" lon="3.83786">
        <ele>204.9</ele>
        <time>2021-08-08T08:36:17Z</time>
      </trkpt>
      <trkpt lat="49.9631" lon="3.83818">
        <ele>204.9</ele>
        <time>2021-08-08T08:36:22Z</time>
      </trkpt>
      <trkpt lat="49.96306" lon="3.83823">
        <ele>203.94</ele>
        <time>2021-08-08T08:36:23Z</time>
      </trkpt>
      <trkpt lat="49.96301" lon="3.83828">
        <ele>203.94</ele>
        <time>2021-08-08T08:36:24Z</time>
      </trkpt>
      <trkpt lat="49.96289" lon="3.83838">
        <ele>203.94</ele>
        <time>2021-08-08T08:36:27Z</time>
      </trkpt>
      <trkpt lat="49.96275" lon="3.83844">
        <ele>203.94</ele>
        <time>2021-08-08T08:36:30Z</time>
      </trkpt>
      <trkpt lat="49.9627" lon="3.83845">
        <ele>203.94</ele>
        <time>2021-08-08T08:36:31Z</time>
      </trkpt>
      <trkpt lat="49.96224" lon="3.83847">
        <ele>203.94</ele>
        <time>2021-08-08T08:36:40Z</time>
      </trkpt>
      <trkpt lat="49.96173" lon="3.83848">
        <ele>202.49</ele>
        <time>2021-08-08T08:36:49Z</time>
      </trkpt>
      <trkpt lat="49.9611" lon="3.83854">
        <ele>202.01</ele>
        <time>2021-08-08T08:37:00Z</time>
      </trkpt>
      <trkpt lat="49.96062" lon="3.83856">
        <ele>202.01</ele>
        <time>2021-08-08T08:37:09Z</time>
      </trkpt>
      <trkpt lat="49.96017" lon="3.83855">
        <ele>204.42</ele>
        <time>2021-08-08T08:37:18Z</time>
      </trkpt>
      <trkpt lat="49.96007" lon="3.83853">
        <ele>202.98</ele>
        <time>2021-08-08T08:37:20Z</time>
      </trkpt>
      <trkpt lat="49.95953" lon="3.83844">
        <ele>200.57</ele>
        <time>2021-08-08T08:37:29Z</time>
      </trkpt>
      <trkpt lat="49.9594" lon="3.83841">
        <ele>199.61</ele>
        <time>2021-08-08T08:37:31Z</time>
      </trkpt>
      <trkpt lat="49.9588" lon="3.83834">
        <ele>199.61</ele>
        <time>2021-08-08T08:37:40Z</time>
      </trkpt>
      <trkpt lat="49.95821" lon="3.83831">
        <ele>199.61</ele>
        <time>2021-08-08T08:37:50Z</time>
      </trkpt>
      <trkpt lat="49.95805" lon="3.83829">
        <ele>198.17</ele>
        <time>2021-08-08T08:37:53Z</time>
      </trkpt>
      <trkpt lat="49.95783" lon="3.83823">
        <ele>200.09</ele>
        <time>2021-08-08T08:37:58Z</time>
      </trkpt>
      <trkpt lat="49.95758" lon="3.83812">
        <ele>201.05</ele>
        <time>2021-08-08T08:38:05Z</time>
      </trkpt>
      <trkpt lat="49.95729" lon="3.83795">
        <ele>202.98</ele>
        <time>2021-08-08T08:38:14Z</time>
      </trkpt>
      <trkpt lat="49.95699" lon="3.83779">
        <ele>203.46</ele>
        <time>2021-08-08T08:38:23Z</time>
      </trkpt>
      <trkpt lat="49.95662" lon="3.83762">
        <ele>204.42</ele>
        <time>2021-08-08T08:38:33Z</time>
      </trkpt>
      <trkpt lat="49.95624" lon="3.83762">
        <ele>204.42</ele>
        <time>2021-08-08T08:38:41Z</time>
      </trkpt>
      <trkpt lat="49.95614" lon="3.83764">
        <ele>202.49</ele>
        <time>2021-08-08T08:38:43Z</time>
      </trkpt>
      <trkpt lat="49.95588" lon="3.83778">
        <ele>202.49</ele>
        <time>2021-08-08T08:38:48Z</time>
      </trkpt>
      <trkpt lat="49.95563" lon="3.83801">
        <ele>202.49</ele>
        <time>2021-08-08T08:38:53Z</time>
      </trkpt>
      <trkpt lat="49.95543" lon="3.8382">
        <ele>202.49</ele>
        <time>2021-08-08T08:38:57Z</time>
      </trkpt>
      <trkpt lat="49.95502" lon="3.83847">
        <ele>202.49</ele>
        <time>2021-08-08T08:39:05Z</time>
      </trkpt>
      <trkpt lat="49.95464" lon="3.83865">
        <ele>204.42</ele>
        <time>2021-08-08T08:39:14Z</time>
      </trkpt>
      <trkpt lat="49.9543" lon="3.83884">
        <ele>205.38</ele>
        <time>2021-08-08T08:39:23Z</time>
      </trkpt>
      <trkpt lat="49.95379" lon="3.8391">
        <ele>204.9</ele>
        <time>2021-08-08T08:39:35Z</time>
      </trkpt>
      <trkpt lat="49.95331" lon="3.83935">
        <ele>202.49</ele>
        <time>2021-08-08T08:39:45Z</time>
      </trkpt>
      <trkpt lat="49.95296" lon="3.83953">
        <ele>200.57</ele>
        <time>2021-08-08T08:39:51Z</time>
      </trkpt>
      <trkpt lat="49.9529" lon="3.83954">
        <ele>200.57</ele>
        <time>2021-08-08T08:39:52Z</time>
      </trkpt>
      <trkpt lat="49.95284" lon="3.83955">
        <ele>200.57</ele>
        <time>2021-08-08T08:39:53Z</time>
      </trkpt>
      <trkpt lat="49.95278" lon="3.83953">
        <ele>200.57</ele>
        <time>2021-08-08T08:39:54Z</time>
      </trkpt>
      <trkpt lat="49.95271" lon="3.8395">
        <ele>200.09</ele>
        <time>2021-08-08T08:39:55Z</time>
      </trkpt>
      <trkpt lat="49.95266" lon="3.83946">
        <ele>200.57</ele>
        <time>2021-08-08T08:39:56Z</time>
      </trkpt>
      <trkpt lat="49.95261" lon="3.83942">
        <ele>200.09</ele>
        <time>2021-08-08T08:39:57Z</time>
      </trkpt>
      <trkpt lat="49.9522" lon="3.839">
        <ele>200.09</ele>
        <time>2021-08-08T08:40:05Z</time>
      </trkpt>
      <trkpt lat="49.95205" lon="3.83891">
        <ele>200.09</ele>
        <time>2021-08-08T08:40:08Z</time>
      </trkpt>
      <trkpt lat="49.95195" lon="3.83887">
        <ele>200.09</ele>
        <time>2021-08-08T08:40:10Z</time>
      </trkpt>
      <trkpt lat="49.9519" lon="3.83887">
        <ele>200.09</ele>
        <time>2021-08-08T08:40:11Z</time>
      </trkpt>
      <trkpt lat="49.95175" lon="3.83887">
        <ele>201.53</ele>
        <time>2021-08-08T08:40:14Z</time>
      </trkpt>
      <trkpt lat="49.9517" lon="3.83888">
        <ele>201.53</ele>
        <time>2021-08-08T08:40:15Z</time>
      </trkpt>
      <trkpt lat="49.95131" lon="3.839">
        <ele>202.98</ele>
        <time>2021-08-08T08:40:24Z</time>
      </trkpt>
      <trkpt lat="49.95092" lon="3.83915">
        <ele>203.94</ele>
        <time>2021-08-08T08:40:34Z</time>
      </trkpt>
      <trkpt lat="49.95064" lon="3.83936">
        <ele>204.9</ele>
        <time>2021-08-08T08:40:42Z</time>
      </trkpt>
      <trkpt lat="49.95037" lon="3.83956">
        <ele>204.9</ele>
        <time>2021-08-08T08:40:50Z</time>
      </trkpt>
      <trkpt lat="49.95001" lon="3.83954">
        <ele>205.86</ele>
        <time>2021-08-08T08:41:00Z</time>
      </trkpt>
      <trkpt lat="49.94967" lon="3.83947">
        <ele>205.38</ele>
        <time>2021-08-08T08:41:08Z</time>
      </trkpt>
      <trkpt lat="49.94922" lon="3.83939">
        <ele>204.42</ele>
        <time>2021-08-08T08:41:17Z</time>
      </trkpt>
      <trkpt lat="49.94868" lon="3.83924">
        <ele>202.49</ele>
        <time>2021-08-08T08:41:27Z</time>
      </trkpt>
      <trkpt lat="49.94815" lon="3.83901">
        <ele>199.13</ele>
        <time>2021-08-08T08:41:37Z</time>
      </trkpt>
      <trkpt lat="49.94783" lon="3.83888">
        <ele>201.53</ele>
        <time>2021-08-08T08:41:43Z</time>
      </trkpt>
      <trkpt lat="49.94778" lon="3.83888">
        <ele>201.53</ele>
        <time>2021-08-08T08:41:44Z</time>
      </trkpt>
      <trkpt lat="49.94773" lon="3.83888">
        <ele>200.09</ele>
        <time>2021-08-08T08:41:45Z</time>
      </trkpt>
      <trkpt lat="49.94769" lon="3.83891">
        <ele>200.09</ele>
        <time>2021-08-08T08:41:46Z</time>
      </trkpt>
      <trkpt lat="49.94765" lon="3.83895">
        <ele>200.09</ele>
        <time>2021-08-08T08:41:47Z</time>
      </trkpt>
      <trkpt lat="49.94762" lon="3.839">
        <ele>200.09</ele>
        <time>2021-08-08T08:41:48Z</time>
      </trkpt>
      <trkpt lat="49.94758" lon="3.83905">
        <ele>200.09</ele>
        <time>2021-08-08T08:41:49Z</time>
      </trkpt>
      <trkpt lat="49.94756" lon="3.8391">
        <ele>200.09</ele>
        <time>2021-08-08T08:41:50Z</time>
      </trkpt>
      <trkpt lat="49.94753" lon="3.83915">
        <ele>202.49</ele>
        <time>2021-08-08T08:41:51Z</time>
      </trkpt>
      <trkpt lat="49.9475" lon="3.83921">
        <ele>202.98</ele>
        <time>2021-08-08T08:41:52Z</time>
      </trkpt>
      <trkpt lat="49.94737" lon="3.83944">
        <ele>201.05</ele>
        <time>2021-08-08T08:41:57Z</time>
      </trkpt>
      <trkpt lat="49.94731" lon="3.83955">
        <ele>204.9</ele>
        <time>2021-08-08T08:42:00Z</time>
      </trkpt>
      <trkpt lat="49.9473" lon="3.83959">
        <ele>204.9</ele>
        <time>2021-08-08T08:42:01Z</time>
      </trkpt>
      <trkpt lat="49.94726" lon="3.83965">
        <ele>203.46</ele>
        <time>2021-08-08T08:42:03Z</time>
      </trkpt>
      <trkpt lat="49.94719" lon="3.83978">
        <ele>204.9</ele>
        <time>2021-08-08T08:42:07Z</time>
      </trkpt>
      <trkpt lat="49.94696" lon="3.84004">
        <ele>205.86</ele>
        <time>2021-08-08T08:42:17Z</time>
      </trkpt>
      <trkpt lat="49.94678" lon="3.84006">
        <ele>203.94</ele>
        <time>2021-08-08T08:42:23Z</time>
      </trkpt>
      <trkpt lat="49.94658" lon="3.84002">
        <ele>206.82</ele>
        <time>2021-08-08T08:42:29Z</time>
      </trkpt>
      <trkpt lat="49.94623" lon="3.83995">
        <ele>204.42</ele>
        <time>2021-08-08T08:42:37Z</time>
      </trkpt>
      <trkpt lat="49.94587" lon="3.83989">
        <ele>202.01</ele>
        <time>2021-08-08T08:42:44Z</time>
      </trkpt>
      <trkpt lat="49.94554" lon="3.83983">
        <ele>201.05</ele>
        <time>2021-08-08T08:42:50Z</time>
      </trkpt>
      <trkpt lat="49.94503" lon="3.83972">
        <ele>201.53</ele>
        <time>2021-08-08T08:42:59Z</time>
      </trkpt>
      <trkpt lat="49.9447" lon="3.83972">
        <ele>203.46</ele>
        <time>2021-08-08T08:43:07Z</time>
      </trkpt>
      <trkpt lat="49.94443" lon="3.83985">
        <ele>204.42</ele>
        <time>2021-08-08T08:43:15Z</time>
      </trkpt>
      <trkpt lat="49.94418" lon="3.83999">
        <ele>204.9</ele>
        <time>2021-08-08T08:43:23Z</time>
      </trkpt>
      <trkpt lat="49.9439" lon="3.84014">
        <ele>206.82</ele>
        <time>2021-08-08T08:43:32Z</time>
      </trkpt>
      <trkpt lat="49.94364" lon="3.84029">
        <ele>208.26</ele>
        <time>2021-08-08T08:43:41Z</time>
      </trkpt>
      <trkpt lat="49.94356" lon="3.84035">
        <ele>208.74</ele>
        <time>2021-08-08T08:43:43Z</time>
      </trkpt>
      <trkpt lat="49.94353" lon="3.84037">
        <ele>208.74</ele>
        <time>2021-08-08T08:43:44Z</time>
      </trkpt>
      <trkpt lat="49.9433" lon="3.8405">
        <ele>209.22</ele>
        <time>2021-08-08T08:43:51Z</time>
      </trkpt>
      <trkpt lat="49.943" lon="3.84066">
        <ele>209.22</ele>
        <time>2021-08-08T08:43:59Z</time>
      </trkpt>
      <trkpt lat="49.94288" lon="3.84071">
        <ele>207.78</ele>
        <time>2021-08-08T08:44:02Z</time>
      </trkpt>
      <trkpt lat="49.94264" lon="3.84085">
        <ele>208.26</ele>
        <time>2021-08-08T08:44:08Z</time>
      </trkpt>
      <trkpt lat="49.9422" lon="3.84109">
        <ele>209.22</ele>
        <time>2021-08-08T08:44:18Z</time>
      </trkpt>
      <trkpt lat="49.94216" lon="3.84111">
        <ele>209.22</ele>
        <time>2021-08-08T08:44:19Z</time>
      </trkpt>
      <trkpt lat="49.9418" lon="3.8413">
        <ele>209.22</ele>
        <time>2021-08-08T08:44:27Z</time>
      </trkpt>
      <trkpt lat="49.94141" lon="3.84152">
        <ele>206.82</ele>
        <time>2021-08-08T08:44:35Z</time>
      </trkpt>
      <trkpt lat="49.94093" lon="3.84179">
        <ele>204.42</ele>
        <time>2021-08-08T08:44:43Z</time>
      </trkpt>
      <trkpt lat="49.94045" lon="3.84208">
        <ele>202.49</ele>
        <time>2021-08-08T08:44:51Z</time>
      </trkpt>
      <trkpt lat="49.94039" lon="3.84212">
        <ele>202.49</ele>
        <time>2021-08-08T08:44:52Z</time>
      </trkpt>
      <trkpt lat="49.94033" lon="3.84216">
        <ele>202.49</ele>
        <time>2021-08-08T08:44:53Z</time>
      </trkpt>
      <trkpt lat="49.93975" lon="3.84248">
        <ele>201.53</ele>
        <time>2021-08-08T08:45:02Z</time>
      </trkpt>
      <trkpt lat="49.93969" lon="3.84252">
        <ele>200.57</ele>
        <time>2021-08-08T08:45:03Z</time>
      </trkpt>
      <trkpt lat="49.93963" lon="3.84257">
        <ele>200.57</ele>
        <time>2021-08-08T08:45:04Z</time>
      </trkpt>
      <trkpt lat="49.93958" lon="3.84264">
        <ele>200.57</ele>
        <time>2021-08-08T08:45:05Z</time>
      </trkpt>
      <trkpt lat="49.93954" lon="3.84273">
        <ele>200.57</ele>
        <time>2021-08-08T08:45:06Z</time>
      </trkpt>
      <trkpt lat="49.93951" lon="3.84281">
        <ele>200.09</ele>
        <time>2021-08-08T08:45:07Z</time>
      </trkpt>
      <trkpt lat="49.93949" lon="3.8429">
        <ele>200.09</ele>
        <time>2021-08-08T08:45:08Z</time>
      </trkpt>
      <trkpt lat="49.93947" lon="3.84299">
        <ele>200.09</ele>
        <time>2021-08-08T08:45:09Z</time>
      </trkpt>
      <trkpt lat="49.9394" lon="3.84368">
        <ele>201.05</ele>
        <time>2021-08-08T08:45:17Z</time>
      </trkpt>
      <trkpt lat="49.93943" lon="3.84418">
        <ele>202.49</ele>
        <time>2021-08-08T08:45:24Z</time>
      </trkpt>
      <trkpt lat="49.93947" lon="3.84453">
        <ele>203.94</ele>
        <time>2021-08-08T08:45:31Z</time>
      </trkpt>
      <trkpt lat="49.93952" lon="3.84496">
        <ele>206.34</ele>
        <time>2021-08-08T08:45:41Z</time>
      </trkpt>
      <trkpt lat="49.93951" lon="3.84523">
        <ele>207.3</ele>
        <time>2021-08-08T08:45:47Z</time>
      </trkpt>
      <trkpt lat="49.93951" lon="3.84554">
        <ele>208.26</ele>
        <time>2021-08-08T08:45:54Z</time>
      </trkpt>
      <trkpt lat="49.93956" lon="3.84615">
        <ele>209.22</ele>
        <time>2021-08-08T08:46:04Z</time>
      </trkpt>
      <trkpt lat="49.9396" lon="3.84661">
        <ele>209.7</ele>
        <time>2021-08-08T08:46:11Z</time>
      </trkpt>
      <trkpt lat="49.93963" lon="3.84689">
        <ele>209.22</ele>
        <time>2021-08-08T08:46:15Z</time>
      </trkpt>
      <trkpt lat="49.93964" lon="3.84696">
        <ele>209.22</ele>
        <time>2021-08-08T08:46:16Z</time>
      </trkpt>
      <trkpt lat="49.93965" lon="3.84703">
        <ele>209.22</ele>
        <time>2021-08-08T08:46:17Z</time>
      </trkpt>
      <trkpt lat="49.93969" lon="3.84766">
        <ele>208.26</ele>
        <time>2021-08-08T08:46:26Z</time>
      </trkpt>
      <trkpt lat="49.93969" lon="3.84774">
        <ele>208.26</ele>
        <time>2021-08-08T08:46:27Z</time>
      </trkpt>
      <trkpt lat="49.9397" lon="3.84781">
        <ele>207.78</ele>
        <time>2021-08-08T08:46:28Z</time>
      </trkpt>
      <trkpt lat="49.93971" lon="3.84789">
        <ele>207.3</ele>
        <time>2021-08-08T08:46:29Z</time>
      </trkpt>
      <trkpt lat="49.93976" lon="3.84855">
        <ele>205.86</ele>
        <time>2021-08-08T08:46:37Z</time>
      </trkpt>
      <trkpt lat="49.93977" lon="3.84864">
        <ele>205.86</ele>
        <time>2021-08-08T08:46:38Z</time>
      </trkpt>
      <trkpt lat="49.93983" lon="3.84946">
        <ele>203.94</ele>
        <time>2021-08-08T08:46:46Z</time>
      </trkpt>
      <trkpt lat="49.93988" lon="3.85022">
        <ele>203.46</ele>
        <time>2021-08-08T08:46:54Z</time>
      </trkpt>
      <trkpt lat="49.9399" lon="3.85048">
        <ele>203.46</ele>
        <time>2021-08-08T08:46:57Z</time>
      </trkpt>
      <trkpt lat="49.93991" lon="3.85057">
        <ele>203.46</ele>
        <time>2021-08-08T08:46:58Z</time>
      </trkpt>
      <trkpt lat="49.93995" lon="3.85096">
        <ele>204.9</ele>
        <time>2021-08-08T08:47:03Z</time>
      </trkpt>
      <trkpt lat="49.93998" lon="3.85142">
        <ele>206.34</ele>
        <time>2021-08-08T08:47:10Z</time>
      </trkpt>
      <trkpt lat="49.94003" lon="3.85197">
        <ele>207.78</ele>
        <time>2021-08-08T08:47:19Z</time>
      </trkpt>
      <trkpt lat="49.94007" lon="3.85238">
        <ele>207.78</ele>
        <time>2021-08-08T08:47:25Z</time>
      </trkpt>
      <trkpt lat="49.94011" lon="3.85303">
        <ele>208.26</ele>
        <time>2021-08-08T08:47:34Z</time>
      </trkpt>
      <trkpt lat="49.94015" lon="3.8537">
        <ele>209.22</ele>
        <time>2021-08-08T08:47:43Z</time>
      </trkpt>
      <trkpt lat="49.94019" lon="3.85435">
        <ele>209.22</ele>
        <time>2021-08-08T08:47:52Z</time>
      </trkpt>
      <trkpt lat="49.9402" lon="3.85458">
        <ele>209.22</ele>
        <time>2021-08-08T08:47:55Z</time>
      </trkpt>
      <trkpt lat="49.94021" lon="3.85472">
        <ele>209.22</ele>
        <time>2021-08-08T08:47:57Z</time>
      </trkpt>
      <trkpt lat="49.94021" lon="3.8548">
        <ele>209.22</ele>
        <time>2021-08-08T08:47:58Z</time>
      </trkpt>
      <trkpt lat="49.94025" lon="3.85552">
        <ele>209.22</ele>
        <time>2021-08-08T08:48:07Z</time>
      </trkpt>
      <trkpt lat="49.94031" lon="3.85629">
        <ele>209.22</ele>
        <time>2021-08-08T08:48:16Z</time>
      </trkpt>
      <trkpt lat="49.94034" lon="3.8567">
        <ele>209.22</ele>
        <time>2021-08-08T08:48:21Z</time>
      </trkpt>
      <trkpt lat="49.94035" lon="3.85679">
        <ele>209.22</ele>
        <time>2021-08-08T08:48:22Z</time>
      </trkpt>
      <trkpt lat="49.9404" lon="3.85751">
        <ele>207.78</ele>
        <time>2021-08-08T08:48:30Z</time>
      </trkpt>
      <trkpt lat="49.94047" lon="3.85829">
        <ele>206.34</ele>
        <time>2021-08-08T08:48:38Z</time>
      </trkpt>
      <trkpt lat="49.94053" lon="3.85918">
        <ele>203.46</ele>
        <time>2021-08-08T08:48:46Z</time>
      </trkpt>
      <trkpt lat="49.94057" lon="3.85992">
        <ele>203.46</ele>
        <time>2021-08-08T08:48:53Z</time>
      </trkpt>
      <trkpt lat="49.9406" lon="3.8602">
        <ele>205.38</ele>
        <time>2021-08-08T08:48:56Z</time>
      </trkpt>
      <trkpt lat="49.94062" lon="3.86058">
        <ele>206.34</ele>
        <time>2021-08-08T08:49:01Z</time>
      </trkpt>
      <trkpt lat="49.94063" lon="3.86121">
        <ele>206.82</ele>
        <time>2021-08-08T08:49:08Z</time>
      </trkpt>
      <trkpt lat="49.94064" lon="3.86132">
        <ele>207.78</ele>
        <time>2021-08-08T08:49:09Z</time>
      </trkpt>
      <trkpt lat="49.94088" lon="3.86196">
        <ele>206.34</ele>
        <time>2021-08-08T08:49:17Z</time>
      </trkpt>
      <trkpt lat="49.94124" lon="3.86268">
        <ele>204.42</ele>
        <time>2021-08-08T08:49:26Z</time>
      </trkpt>
      <trkpt lat="49.94167" lon="3.8635">
        <ele>203.46</ele>
        <time>2021-08-08T08:49:36Z</time>
      </trkpt>
      <trkpt lat="49.94171" lon="3.86358">
        <ele>203.46</ele>
        <time>2021-08-08T08:49:37Z</time>
      </trkpt>
      <trkpt lat="49.94198" lon="3.8641">
        <ele>202.98</ele>
        <time>2021-08-08T08:49:43Z</time>
      </trkpt>
      <trkpt lat="49.94244" lon="3.86516">
        <ele>199.61</ele>
        <time>2021-08-08T08:49:54Z</time>
      </trkpt>
      <trkpt lat="49.9427" lon="3.86579">
        <ele>198.17</ele>
        <time>2021-08-08T08:50:01Z</time>
      </trkpt>
      <trkpt lat="49.94273" lon="3.86588">
        <ele>198.17</ele>
        <time>2021-08-08T08:50:02Z</time>
      </trkpt>
      <trkpt lat="49.943" lon="3.86656">
        <ele>194.8</ele>
        <time>2021-08-08T08:50:09Z</time>
      </trkpt>
      <trkpt lat="49.94323" lon="3.86721">
        <ele>192.88</ele>
        <time>2021-08-08T08:50:15Z</time>
      </trkpt>
      <trkpt lat="49.94326" lon="3.86733">
        <ele>191.92</ele>
        <time>2021-08-08T08:50:16Z</time>
      </trkpt>
      <trkpt lat="49.94328" lon="3.86746">
        <ele>191.44</ele>
        <time>2021-08-08T08:50:17Z</time>
      </trkpt>
      <trkpt lat="49.9433" lon="3.8676">
        <ele>190.48</ele>
        <time>2021-08-08T08:50:18Z</time>
      </trkpt>
      <trkpt lat="49.94331" lon="3.86774">
        <ele>190</ele>
        <time>2021-08-08T08:50:19Z</time>
      </trkpt>
      <trkpt lat="49.9433" lon="3.86787">
        <ele>190</ele>
        <time>2021-08-08T08:50:20Z</time>
      </trkpt>
      <trkpt lat="49.9433" lon="3.86799">
        <ele>190</ele>
        <time>2021-08-08T08:50:21Z</time>
      </trkpt>
      <trkpt lat="49.94329" lon="3.86811">
        <ele>189.04</ele>
        <time>2021-08-08T08:50:22Z</time>
      </trkpt>
      <trkpt lat="49.94329" lon="3.86821">
        <ele>189.04</ele>
        <time>2021-08-08T08:50:23Z</time>
      </trkpt>
      <trkpt lat="49.94331" lon="3.86831">
        <ele>189.04</ele>
        <time>2021-08-08T08:50:24Z</time>
      </trkpt>
      <trkpt lat="49.94332" lon="3.86839">
        <ele>189.04</ele>
        <time>2021-08-08T08:50:25Z</time>
      </trkpt>
      <trkpt lat="49.94334" lon="3.86848">
        <ele>189.04</ele>
        <time>2021-08-08T08:50:26Z</time>
      </trkpt>
      <trkpt lat="49.94335" lon="3.86855">
        <ele>190.48</ele>
        <time>2021-08-08T08:50:27Z</time>
      </trkpt>
      <trkpt lat="49.94337" lon="3.86869">
        <ele>190.96</ele>
        <time>2021-08-08T08:50:29Z</time>
      </trkpt>
      <trkpt lat="49.94339" lon="3.86875">
        <ele>191.44</ele>
        <time>2021-08-08T08:50:30Z</time>
      </trkpt>
      <trkpt lat="49.94353" lon="3.86914">
        <ele>194.32</ele>
        <time>2021-08-08T08:50:38Z</time>
      </trkpt>
      <trkpt lat="49.94362" lon="3.86932">
        <ele>194.32</ele>
        <time>2021-08-08T08:50:42Z</time>
      </trkpt>
      <trkpt lat="49.94364" lon="3.86936">
        <ele>194.32</ele>
        <time>2021-08-08T08:50:43Z</time>
      </trkpt>
      <trkpt lat="49.94367" lon="3.86942">
        <ele>194.8</ele>
        <time>2021-08-08T08:50:44Z</time>
      </trkpt>
      <trkpt lat="49.94389" lon="3.86987">
        <ele>192.88</ele>
        <time>2021-08-08T08:50:52Z</time>
      </trkpt>
      <trkpt lat="49.94398" lon="3.87003">
        <ele>192.4</ele>
        <time>2021-08-08T08:50:55Z</time>
      </trkpt>
      <trkpt lat="49.94406" lon="3.87017">
        <ele>191.92</ele>
        <time>2021-08-08T08:50:58Z</time>
      </trkpt>
      <trkpt lat="49.94406" lon="3.87024">
        <ele>191.44</ele>
        <time>2021-08-08T08:50:59Z</time>
      </trkpt>
      <trkpt lat="49.94404" lon="3.87029">
        <ele>191.44</ele>
        <time>2021-08-08T08:51:00Z</time>
      </trkpt>
      <trkpt lat="49.94402" lon="3.87034">
        <ele>190.96</ele>
        <time>2021-08-08T08:51:01Z</time>
      </trkpt>
      <trkpt lat="49.94399" lon="3.8704">
        <ele>190.96</ele>
        <time>2021-08-08T08:51:02Z</time>
      </trkpt>
      <trkpt lat="49.94396" lon="3.87047">
        <ele>190</ele>
        <time>2021-08-08T08:51:03Z</time>
      </trkpt>
      <trkpt lat="49.94393" lon="3.87055">
        <ele>189.52</ele>
        <time>2021-08-08T08:51:04Z</time>
      </trkpt>
      <trkpt lat="49.9438" lon="3.87102">
        <ele>186.63</ele>
        <time>2021-08-08T08:51:09Z</time>
      </trkpt>
      <trkpt lat="49.94375" lon="3.87134">
        <ele>183.75</ele>
        <time>2021-08-08T08:51:12Z</time>
      </trkpt>
      <trkpt lat="49.94373" lon="3.8717">
        <ele>180.87</ele>
        <time>2021-08-08T08:51:15Z</time>
      </trkpt>
      <trkpt lat="49.94375" lon="3.87207">
        <ele>177.5</ele>
        <time>2021-08-08T08:51:18Z</time>
      </trkpt>
      <trkpt lat="49.94381" lon="3.87247">
        <ele>174.62</ele>
        <time>2021-08-08T08:51:21Z</time>
      </trkpt>
      <trkpt lat="49.94387" lon="3.87302">
        <ele>170.77</ele>
        <time>2021-08-08T08:51:25Z</time>
      </trkpt>
      <trkpt lat="49.94389" lon="3.87358">
        <ele>166.93</ele>
        <time>2021-08-08T08:51:29Z</time>
      </trkpt>
      <trkpt lat="49.9439" lon="3.874">
        <ele>165</ele>
        <time>2021-08-08T08:51:32Z</time>
      </trkpt>
      <trkpt lat="49.94393" lon="3.87451">
        <ele>162.12</ele>
        <time>2021-08-08T08:51:36Z</time>
      </trkpt>
      <trkpt lat="49.94396" lon="3.87485">
        <ele>159.24</ele>
        <time>2021-08-08T08:51:39Z</time>
      </trkpt>
      <trkpt lat="49.94398" lon="3.87494">
        <ele>159.72</ele>
        <time>2021-08-08T08:51:40Z</time>
      </trkpt>
      <trkpt lat="49.94401" lon="3.87502">
        <ele>158.75</ele>
        <time>2021-08-08T08:51:41Z</time>
      </trkpt>
      <trkpt lat="49.94406" lon="3.87509">
        <ele>158.75</ele>
        <time>2021-08-08T08:51:42Z</time>
      </trkpt>
      <trkpt lat="49.94411" lon="3.87515">
        <ele>157.79</ele>
        <time>2021-08-08T08:51:43Z</time>
      </trkpt>
      <trkpt lat="49.94416" lon="3.87522">
        <ele>157.79</ele>
        <time>2021-08-08T08:51:44Z</time>
      </trkpt>
      <trkpt lat="49.94421" lon="3.8753">
        <ele>157.79</ele>
        <time>2021-08-08T08:51:45Z</time>
      </trkpt>
      <trkpt lat="49.94425" lon="3.8754">
        <ele>157.79</ele>
        <time>2021-08-08T08:51:46Z</time>
      </trkpt>
      <trkpt lat="49.94429" lon="3.87549">
        <ele>157.79</ele>
        <time>2021-08-08T08:51:47Z</time>
      </trkpt>
      <trkpt lat="49.94431" lon="3.87559">
        <ele>157.79</ele>
        <time>2021-08-08T08:51:48Z</time>
      </trkpt>
      <trkpt lat="49.9444" lon="3.87622">
        <ele>156.83</ele>
        <time>2021-08-08T08:51:54Z</time>
      </trkpt>
      <trkpt lat="49.94447" lon="3.87695">
        <ele>158.75</ele>
        <time>2021-08-08T08:52:02Z</time>
      </trkpt>
      <trkpt lat="49.94447" lon="3.87756">
        <ele>160.2</ele>
        <time>2021-08-08T08:52:10Z</time>
      </trkpt>
      <trkpt lat="49.94442" lon="3.87835">
        <ele>160.68</ele>
        <time>2021-08-08T08:52:21Z</time>
      </trkpt>
      <trkpt lat="49.94444" lon="3.87866">
        <ele>162.12</ele>
        <time>2021-08-08T08:52:26Z</time>
      </trkpt>
      <trkpt lat="49.94451" lon="3.87892">
        <ele>162.6</ele>
        <time>2021-08-08T08:52:31Z</time>
      </trkpt>
      <trkpt lat="49.94458" lon="3.87922">
        <ele>161.16</ele>
        <time>2021-08-08T08:52:35Z</time>
      </trkpt>
      <trkpt lat="49.9446" lon="3.87933">
        <ele>160.2</ele>
        <time>2021-08-08T08:52:36Z</time>
      </trkpt>
      <trkpt lat="49.94461" lon="3.87944">
        <ele>159.24</ele>
        <time>2021-08-08T08:52:37Z</time>
      </trkpt>
      <trkpt lat="49.9446" lon="3.87958">
        <ele>158.27</ele>
        <time>2021-08-08T08:52:38Z</time>
      </trkpt>
      <trkpt lat="49.94459" lon="3.87971">
        <ele>157.31</ele>
        <time>2021-08-08T08:52:39Z</time>
      </trkpt>
      <trkpt lat="49.94456" lon="3.87985">
        <ele>156.35</ele>
        <time>2021-08-08T08:52:40Z</time>
      </trkpt>
      <trkpt lat="49.94447" lon="3.88028">
        <ele>152.51</ele>
        <time>2021-08-08T08:52:43Z</time>
      </trkpt>
      <trkpt lat="49.94435" lon="3.88074">
        <ele>148.18</ele>
        <time>2021-08-08T08:52:46Z</time>
      </trkpt>
      <trkpt lat="49.94426" lon="3.88103">
        <ele>145.3</ele>
        <time>2021-08-08T08:52:48Z</time>
      </trkpt>
      <trkpt lat="49.94422" lon="3.88122">
        <ele>145.3</ele>
        <time>2021-08-08T08:52:49Z</time>
      </trkpt>
      <trkpt lat="49.94419" lon="3.88135">
        <ele>144.34</ele>
        <time>2021-08-08T08:52:50Z</time>
      </trkpt>
      <trkpt lat="49.94417" lon="3.88155">
        <ele>144.82</ele>
        <time>2021-08-08T08:52:51Z</time>
      </trkpt>
      <trkpt lat="49.94406" lon="3.88265">
        <ele>145.78</ele>
        <time>2021-08-08T08:52:58Z</time>
      </trkpt>
      <trkpt lat="49.94403" lon="3.88293">
        <ele>144.34</ele>
        <time>2021-08-08T08:53:00Z</time>
      </trkpt>
      <trkpt lat="49.944" lon="3.88331">
        <ele>145.78</ele>
        <time>2021-08-08T08:53:03Z</time>
      </trkpt>
      <trkpt lat="49.94401" lon="3.88342">
        <ele>145.78</ele>
        <time>2021-08-08T08:53:04Z</time>
      </trkpt>
      <trkpt lat="49.94404" lon="3.88354">
        <ele>145.78</ele>
        <time>2021-08-08T08:53:05Z</time>
      </trkpt>
      <trkpt lat="49.94407" lon="3.88362">
        <ele>145.78</ele>
        <time>2021-08-08T08:53:06Z</time>
      </trkpt>
      <trkpt lat="49.94411" lon="3.88368">
        <ele>146.74</ele>
        <time>2021-08-08T08:53:07Z</time>
      </trkpt>
      <trkpt lat="49.94414" lon="3.88374">
        <ele>147.22</ele>
        <time>2021-08-08T08:53:08Z</time>
      </trkpt>
      <trkpt lat="49.94432" lon="3.88405">
        <ele>150.1</ele>
        <time>2021-08-08T08:53:15Z</time>
      </trkpt>
      <trkpt lat="49.94449" lon="3.88427">
        <ele>152.03</ele>
        <time>2021-08-08T08:53:23Z</time>
      </trkpt>
      <trkpt lat="49.94467" lon="3.88444">
        <ele>152.51</ele>
        <time>2021-08-08T08:53:31Z</time>
      </trkpt>
      <trkpt lat="49.94482" lon="3.88457">
        <ele>153.95</ele>
        <time>2021-08-08T08:53:38Z</time>
      </trkpt>
      <trkpt lat="49.94498" lon="3.88469">
        <ele>155.39</ele>
        <time>2021-08-08T08:53:45Z</time>
      </trkpt>
      <trkpt lat="49.9452" lon="3.88486">
        <ele>157.31</ele>
        <time>2021-08-08T08:53:55Z</time>
      </trkpt>
      <trkpt lat="49.94542" lon="3.88503">
        <ele>158.75</ele>
        <time>2021-08-08T08:54:05Z</time>
      </trkpt>
      <trkpt lat="49.94562" lon="3.88523">
        <ele>160.2</ele>
        <time>2021-08-08T08:54:15Z</time>
      </trkpt>
      <trkpt lat="49.94577" lon="3.88543">
        <ele>162.12</ele>
        <time>2021-08-08T08:54:23Z</time>
      </trkpt>
      <trkpt lat="49.94591" lon="3.88563">
        <ele>163.56</ele>
        <time>2021-08-08T08:54:31Z</time>
      </trkpt>
      <trkpt lat="49.94612" lon="3.88592">
        <ele>165.48</ele>
        <time>2021-08-08T08:54:42Z</time>
      </trkpt>
      <trkpt lat="49.9463" lon="3.88618">
        <ele>166.93</ele>
        <time>2021-08-08T08:54:52Z</time>
      </trkpt>
      <trkpt lat="49.94647" lon="3.88642">
        <ele>168.37</ele>
        <time>2021-08-08T08:55:02Z</time>
      </trkpt>
      <trkpt lat="49.94662" lon="3.88662">
        <ele>169.33</ele>
        <time>2021-08-08T08:55:10Z</time>
      </trkpt>
      <trkpt lat="49.94674" lon="3.88681">
        <ele>170.77</ele>
        <time>2021-08-08T08:55:17Z</time>
      </trkpt>
      <trkpt lat="49.9469" lon="3.88705">
        <ele>171.73</ele>
        <time>2021-08-08T08:55:26Z</time>
      </trkpt>
      <trkpt lat="49.94707" lon="3.88737">
        <ele>174.14</ele>
        <time>2021-08-08T08:55:37Z</time>
      </trkpt>
      <trkpt lat="49.94724" lon="3.88766">
        <ele>175.58</ele>
        <time>2021-08-08T08:55:47Z</time>
      </trkpt>
      <trkpt lat="49.94737" lon="3.8879">
        <ele>177.02</ele>
        <time>2021-08-08T08:55:55Z</time>
      </trkpt>
      <trkpt lat="49.9475" lon="3.88818">
        <ele>178.46</ele>
        <time>2021-08-08T08:56:04Z</time>
      </trkpt>
      <trkpt lat="49.94762" lon="3.88848">
        <ele>180.38</ele>
        <time>2021-08-08T08:56:13Z</time>
      </trkpt>
      <trkpt lat="49.94769" lon="3.88869">
        <ele>180.87</ele>
        <time>2021-08-08T08:56:19Z</time>
      </trkpt>
      <trkpt lat="49.9478" lon="3.88908">
        <ele>182.79</ele>
        <time>2021-08-08T08:56:30Z</time>
      </trkpt>
      <trkpt lat="49.94788" lon="3.88945">
        <ele>185.19</ele>
        <time>2021-08-08T08:56:40Z</time>
      </trkpt>
      <trkpt lat="49.94793" lon="3.88969">
        <ele>185.67</ele>
        <time>2021-08-08T08:56:47Z</time>
      </trkpt>
      <trkpt lat="49.94798" lon="3.89001">
        <ele>187.11</ele>
        <time>2021-08-08T08:56:56Z</time>
      </trkpt>
      <trkpt lat="49.94796" lon="3.89003">
        <ele>188.08</ele>
        <time>2021-08-08T08:56:57Z</time>
      </trkpt>
      <trkpt lat="49.94794" lon="3.89005">
        <ele>188.08</ele>
        <time>2021-08-08T08:56:58Z</time>
      </trkpt>
      <trkpt lat="49.94792" lon="3.89004">
        <ele>188.08</ele>
        <time>2021-08-08T08:56:59Z</time>
      </trkpt>
      <trkpt lat="49.9479" lon="3.89003">
        <ele>187.59</ele>
        <time>2021-08-08T08:57:00Z</time>
      </trkpt>
      <trkpt lat="49.94772" lon="3.88987">
        <ele>187.59</ele>
        <time>2021-08-08T08:57:06Z</time>
      </trkpt>
      <trkpt lat="49.94743" lon="3.88958">
        <ele>187.59</ele>
        <time>2021-08-08T08:57:15Z</time>
      </trkpt>
      <trkpt lat="49.94731" lon="3.88945">
        <ele>187.59</ele>
        <time>2021-08-08T08:57:19Z</time>
      </trkpt>
      <trkpt lat="49.94727" lon="3.88945">
        <ele>186.15</ele>
        <time>2021-08-08T08:57:20Z</time>
      </trkpt>
      <trkpt lat="49.94724" lon="3.88947">
        <ele>186.15</ele>
        <time>2021-08-08T08:57:21Z</time>
      </trkpt>
      <trkpt lat="49.94721" lon="3.88949">
        <ele>188.08</ele>
        <time>2021-08-08T08:57:22Z</time>
      </trkpt>
      <trkpt lat="49.94719" lon="3.88953">
        <ele>188.08</ele>
        <time>2021-08-08T08:57:23Z</time>
      </trkpt>
      <trkpt lat="49.94718" lon="3.88957">
        <ele>188.08</ele>
        <time>2021-08-08T08:57:24Z</time>
      </trkpt>
      <trkpt lat="49.94717" lon="3.88961">
        <ele>188.08</ele>
        <time>2021-08-08T08:57:25Z</time>
      </trkpt>
      <trkpt lat="49.94717" lon="3.88965">
        <ele>188.08</ele>
        <time>2021-08-08T08:57:26Z</time>
      </trkpt>
      <trkpt lat="49.94712" lon="3.88994">
        <ele>189.04</ele>
        <time>2021-08-08T08:57:34Z</time>
      </trkpt>
      <trkpt lat="49.94706" lon="3.89026">
        <ele>190.48</ele>
        <time>2021-08-08T08:57:43Z</time>
      </trkpt>
      <trkpt lat="49.94695" lon="3.89039">
        <ele>190.96</ele>
        <time>2021-08-08T08:57:49Z</time>
      </trkpt>
      <trkpt lat="49.94669" lon="3.89032">
        <ele>192.88</ele>
        <time>2021-08-08T08:57:58Z</time>
      </trkpt>
      <trkpt lat="49.94642" lon="3.89024">
        <ele>193.84</ele>
        <time>2021-08-08T08:58:07Z</time>
      </trkpt>
      <trkpt lat="49.94618" lon="3.89019">
        <ele>193.84</ele>
        <time>2021-08-08T08:58:15Z</time>
      </trkpt>
      <trkpt lat="49.94602" lon="3.8902">
        <ele>194.32</ele>
        <time>2021-08-08T08:58:21Z</time>
      </trkpt>
      <trkpt lat="49.94587" lon="3.89019">
        <ele>194.32</ele>
        <time>2021-08-08T08:58:27Z</time>
      </trkpt>
      <trkpt lat="49.94568" lon="3.89021">
        <ele>195.28</ele>
        <time>2021-08-08T08:58:34Z</time>
      </trkpt>
      <trkpt lat="49.94563" lon="3.89023">
        <ele>195.28</ele>
        <time>2021-08-08T08:58:36Z</time>
      </trkpt>
      <trkpt lat="49.94562" lon="3.89025">
        <ele>195.28</ele>
        <time>2021-08-08T08:58:37Z</time>
      </trkpt>
      <trkpt lat="49.94559" lon="3.89025">
        <ele>195.28</ele>
        <time>2021-08-08T08:58:38Z</time>
      </trkpt>
      <trkpt lat="49.94557" lon="3.89025">
        <ele>195.28</ele>
        <time>2021-08-08T08:58:39Z</time>
      </trkpt>
      <trkpt lat="49.94555" lon="3.89024">
        <ele>195.28</ele>
        <time>2021-08-08T08:58:40Z</time>
      </trkpt>
      <trkpt lat="49.94552" lon="3.89024">
        <ele>195.28</ele>
        <time>2021-08-08T08:58:41Z</time>
      </trkpt>
      <trkpt lat="49.9453" lon="3.89026">
        <ele>195.28</ele>
        <time>2021-08-08T08:58:48Z</time>
      </trkpt>
      <trkpt lat="49.94527" lon="3.89025">
        <ele>195.28</ele>
        <time>2021-08-08T08:58:49Z</time>
      </trkpt>
      <trkpt lat="49.94525" lon="3.89025">
        <ele>195.28</ele>
        <time>2021-08-08T08:58:50Z</time>
      </trkpt>
      <trkpt lat="49.94522" lon="3.89025">
        <ele>195.28</ele>
        <time>2021-08-08T08:58:51Z</time>
      </trkpt>
      <trkpt lat="49.9452" lon="3.89026">
        <ele>195.77</ele>
        <time>2021-08-08T08:58:52Z</time>
      </trkpt>
      <trkpt lat="49.94518" lon="3.89027">
        <ele>195.77</ele>
        <time>2021-08-08T08:58:53Z</time>
      </trkpt>
      <trkpt lat="49.94516" lon="3.89027">
        <ele>195.77</ele>
        <time>2021-08-08T08:58:54Z</time>
      </trkpt>
      <trkpt lat="49.94514" lon="3.89028">
        <ele>195.77</ele>
        <time>2021-08-08T08:58:55Z</time>
      </trkpt>
      <trkpt lat="49.94497" lon="3.8903">
        <ele>195.77</ele>
        <time>2021-08-08T08:59:04Z</time>
      </trkpt>
      <trkpt lat="49.94487" lon="3.89032">
        <ele>196.25</ele>
        <time>2021-08-08T08:59:11Z</time>
      </trkpt>
      <trkpt lat="49.9447" lon="3.89038">
        <ele>196.25</ele>
        <time>2021-08-08T08:59:20Z</time>
      </trkpt>
      <trkpt lat="49.94447" lon="3.89048">
        <ele>196.25</ele>
        <time>2021-08-08T08:59:30Z</time>
      </trkpt>
      <trkpt lat="49.94429" lon="3.89057">
        <ele>196.25</ele>
        <time>2021-08-08T08:59:38Z</time>
      </trkpt>
      <trkpt lat="49.94405" lon="3.8907">
        <ele>196.25</ele>
        <time>2021-08-08T08:59:48Z</time>
      </trkpt>
      <trkpt lat="49.94403" lon="3.89071">
        <ele>196.25</ele>
        <time>2021-08-08T08:59:52Z</time>
      </trkpt>
      <trkpt lat="49.944" lon="3.89073">
        <ele>196.25</ele>
        <time>2021-08-08T08:59:59Z</time>
      </trkpt>
      <trkpt lat="49.94396" lon="3.89075">
        <ele>196.25</ele>
        <time>2021-08-08T09:00:03Z</time>
      </trkpt>
      <trkpt lat="49.94395" lon="3.89075">
        <ele>196.25</ele>
        <time>2021-08-08T09:00:04Z</time>
      </trkpt>
      <trkpt lat="49.94394" lon="3.89076">
        <ele>196.25</ele>
        <time>2021-08-08T09:00:05Z</time>
      </trkpt>
      <trkpt lat="49.94392" lon="3.89077">
        <ele>196.25</ele>
        <time>2021-08-08T09:00:06Z</time>
      </trkpt>
      <trkpt lat="49.9439" lon="3.89079">
        <ele>196.25</ele>
        <time>2021-08-08T09:00:07Z</time>
      </trkpt>
      <trkpt lat="49.94389" lon="3.8908">
        <ele>196.25</ele>
        <time>2021-08-08T09:00:08Z</time>
      </trkpt>
      <trkpt lat="49.94387" lon="3.89081">
        <ele>196.25</ele>
        <time>2021-08-08T09:00:09Z</time>
      </trkpt>
      <trkpt lat="49.94385" lon="3.89081">
        <ele>196.25</ele>
        <time>2021-08-08T09:00:10Z</time>
      </trkpt>
      <trkpt lat="49.94384" lon="3.89083">
        <ele>196.25</ele>
        <time>2021-08-08T09:00:11Z</time>
      </trkpt>
      <trkpt lat="49.94382" lon="3.89084">
        <ele>196.25</ele>
        <time>2021-08-08T09:00:12Z</time>
      </trkpt>
      <trkpt lat="49.94374" lon="3.89087">
        <ele>195.28</ele>
        <time>2021-08-08T09:00:19Z</time>
      </trkpt>
      <trkpt lat="49.94373" lon="3.89086">
        <ele>195.28</ele>
        <time>2021-08-08T09:00:20Z</time>
      </trkpt>
      <trkpt lat="49.94372" lon="3.89085">
        <ele>195.28</ele>
        <time>2021-08-08T09:00:21Z</time>
      </trkpt>
      <trkpt lat="49.94371" lon="3.89085">
        <ele>195.28</ele>
        <time>2021-08-08T09:00:22Z</time>
      </trkpt>
      <trkpt lat="49.94369" lon="3.89087">
        <ele>195.28</ele>
        <time>2021-08-08T09:00:23Z</time>
      </trkpt>
      <trkpt lat="49.94368" lon="3.89089">
        <ele>194.8</ele>
        <time>2021-08-08T09:00:24Z</time>
      </trkpt>
      <trkpt lat="49.94358" lon="3.89095">
        <ele>194.8</ele>
        <time>2021-08-08T09:00:29Z</time>
      </trkpt>
      <trkpt lat="49.94357" lon="3.89097">
        <ele>194.32</ele>
        <time>2021-08-08T09:00:30Z</time>
      </trkpt>
      <trkpt lat="49.94355" lon="3.89098">
        <ele>194.32</ele>
        <time>2021-08-08T09:00:31Z</time>
      </trkpt>
      <trkpt lat="49.94354" lon="3.89098">
        <ele>194.32</ele>
        <time>2021-08-08T09:00:32Z</time>
      </trkpt>
      <trkpt lat="49.94351" lon="3.89099">
        <ele>194.32</ele>
        <time>2021-08-08T09:00:35Z</time>
      </trkpt>
      <trkpt lat="49.94336" lon="3.89108">
        <ele>194.32</ele>
        <time>2021-08-08T09:00:42Z</time>
      </trkpt>
      <trkpt lat="49.94318" lon="3.89115">
        <ele>193.84</ele>
        <time>2021-08-08T09:00:49Z</time>
      </trkpt>
      <trkpt lat="49.94297" lon="3.89118">
        <ele>193.84</ele>
        <time>2021-08-08T09:00:58Z</time>
      </trkpt>
      <trkpt lat="49.94275" lon="3.89125">
        <ele>195.28</ele>
        <time>2021-08-08T09:01:06Z</time>
      </trkpt>
      <trkpt lat="49.94257" lon="3.89129">
        <ele>195.77</ele>
        <time>2021-08-08T09:01:13Z</time>
      </trkpt>
      <trkpt lat="49.94244" lon="3.8913">
        <ele>195.77</ele>
        <time>2021-08-08T09:01:19Z</time>
      </trkpt>
      <trkpt lat="49.94219" lon="3.89133">
        <ele>197.21</ele>
        <time>2021-08-08T09:01:28Z</time>
      </trkpt>
      <trkpt lat="49.94194" lon="3.89138">
        <ele>197.69</ele>
        <time>2021-08-08T09:01:37Z</time>
      </trkpt>
      <trkpt lat="49.94176" lon="3.89146">
        <ele>199.13</ele>
        <time>2021-08-08T09:01:45Z</time>
      </trkpt>
      <trkpt lat="49.94157" lon="3.89155">
        <ele>198.65</ele>
        <time>2021-08-08T09:01:52Z</time>
      </trkpt>
      <trkpt lat="49.94138" lon="3.89165">
        <ele>199.13</ele>
        <time>2021-08-08T09:02:00Z</time>
      </trkpt>
      <trkpt lat="49.94123" lon="3.89163">
        <ele>197.69</ele>
        <time>2021-08-08T09:02:05Z</time>
      </trkpt>
      <trkpt lat="49.94101" lon="3.89162">
        <ele>197.21</ele>
        <time>2021-08-08T09:02:13Z</time>
      </trkpt>
      <trkpt lat="49.94094" lon="3.89162">
        <ele>196.25</ele>
        <time>2021-08-08T09:02:17Z</time>
      </trkpt>
      <trkpt lat="49.94078" lon="3.8916">
        <ele>196.25</ele>
        <time>2021-08-08T09:02:23Z</time>
      </trkpt>
      <trkpt lat="49.94064" lon="3.89159">
        <ele>195.77</ele>
        <time>2021-08-08T09:02:29Z</time>
      </trkpt>
      <trkpt lat="49.94051" lon="3.89155">
        <ele>195.28</ele>
        <time>2021-08-08T09:02:36Z</time>
      </trkpt>
      <trkpt lat="49.94044" lon="3.89153">
        <ele>195.28</ele>
        <time>2021-08-08T09:02:41Z</time>
      </trkpt>
      <trkpt lat="49.94042" lon="3.89153">
        <ele>195.28</ele>
        <time>2021-08-08T09:02:42Z</time>
      </trkpt>
      <trkpt lat="49.94029" lon="3.89149">
        <ele>195.28</ele>
        <time>2021-08-08T09:02:48Z</time>
      </trkpt>
      <trkpt lat="49.94025" lon="3.89147">
        <ele>195.28</ele>
        <time>2021-08-08T09:02:50Z</time>
      </trkpt>
      <trkpt lat="49.9401" lon="3.8914">
        <ele>194.8</ele>
        <time>2021-08-08T09:02:56Z</time>
      </trkpt>
      <trkpt lat="49.93989" lon="3.89132">
        <ele>193.84</ele>
        <time>2021-08-08T09:03:03Z</time>
      </trkpt>
      <trkpt lat="49.93964" lon="3.89125">
        <ele>193.84</ele>
        <time>2021-08-08T09:03:11Z</time>
      </trkpt>
      <trkpt lat="49.93953" lon="3.89118">
        <ele>193.84</ele>
        <time>2021-08-08T09:03:17Z</time>
      </trkpt>
      <trkpt lat="49.93948" lon="3.89112">
        <ele>192.88</ele>
        <time>2021-08-08T09:03:23Z</time>
      </trkpt>
      <trkpt lat="49.93947" lon="3.89113">
        <ele>192.88</ele>
        <time>2021-08-08T09:03:27Z</time>
      </trkpt>
      <trkpt lat="49.93947" lon="3.89113">
        <ele>192.88</ele>
        <time>2021-08-08T09:03:33Z</time>
      </trkpt>
      <trkpt lat="49.93948" lon="3.89112">
        <ele>192.88</ele>
        <time>2021-08-08T09:03:46Z</time>
      </trkpt>
      <trkpt lat="49.93948" lon="3.89112">
        <ele>192.88</ele>
        <time>2021-08-08T09:03:49Z</time>
      </trkpt>
      <trkpt lat="49.93934" lon="3.8911">
        <ele>192.4</ele>
        <time>2021-08-08T09:03:54Z</time>
      </trkpt>
      <trkpt lat="49.939" lon="3.89095">
        <ele>191.92</ele>
        <time>2021-08-08T09:04:03Z</time>
      </trkpt>
      <trkpt lat="49.93861" lon="3.89081">
        <ele>191.92</ele>
        <time>2021-08-08T09:04:12Z</time>
      </trkpt>
      <trkpt lat="49.93809" lon="3.89075">
        <ele>191.92</ele>
        <time>2021-08-08T09:04:23Z</time>
      </trkpt>
      <trkpt lat="49.9377" lon="3.89079">
        <ele>193.36</ele>
        <time>2021-08-08T09:04:32Z</time>
      </trkpt>
      <trkpt lat="49.93727" lon="3.89092">
        <ele>194.32</ele>
        <time>2021-08-08T09:04:42Z</time>
      </trkpt>
      <trkpt lat="49.93679" lon="3.89105">
        <ele>194.32</ele>
        <time>2021-08-08T09:04:53Z</time>
      </trkpt>
      <trkpt lat="49.93637" lon="3.89104">
        <ele>194.32</ele>
        <time>2021-08-08T09:05:02Z</time>
      </trkpt>
      <trkpt lat="49.93585" lon="3.89084">
        <ele>192.4</ele>
        <time>2021-08-08T09:05:12Z</time>
      </trkpt>
      <trkpt lat="49.93543" lon="3.8907">
        <ele>191.92</ele>
        <time>2021-08-08T09:05:19Z</time>
      </trkpt>
      <trkpt lat="49.93538" lon="3.89066">
        <ele>191.44</ele>
        <time>2021-08-08T09:05:20Z</time>
      </trkpt>
      <trkpt lat="49.93533" lon="3.89058">
        <ele>190.48</ele>
        <time>2021-08-08T09:05:21Z</time>
      </trkpt>
      <trkpt lat="49.93529" lon="3.89051">
        <ele>189.52</ele>
        <time>2021-08-08T09:05:22Z</time>
      </trkpt>
      <trkpt lat="49.93527" lon="3.89044">
        <ele>189.52</ele>
        <time>2021-08-08T09:05:23Z</time>
      </trkpt>
      <trkpt lat="49.93524" lon="3.89035">
        <ele>189.52</ele>
        <time>2021-08-08T09:05:24Z</time>
      </trkpt>
      <trkpt lat="49.93522" lon="3.89029">
        <ele>190.48</ele>
        <time>2021-08-08T09:05:25Z</time>
      </trkpt>
      <trkpt lat="49.9352" lon="3.89023">
        <ele>190.48</ele>
        <time>2021-08-08T09:05:26Z</time>
      </trkpt>
      <trkpt lat="49.93497" lon="3.88978">
        <ele>190.48</ele>
        <time>2021-08-08T09:05:33Z</time>
      </trkpt>
      <trkpt lat="49.93493" lon="3.88972">
        <ele>190.48</ele>
        <time>2021-08-08T09:05:34Z</time>
      </trkpt>
      <trkpt lat="49.93489" lon="3.88967">
        <ele>190.48</ele>
        <time>2021-08-08T09:05:35Z</time>
      </trkpt>
      <trkpt lat="49.93448" lon="3.88935">
        <ele>189.04</ele>
        <time>2021-08-08T09:05:43Z</time>
      </trkpt>
      <trkpt lat="49.93389" lon="3.88891">
        <ele>187.11</ele>
        <time>2021-08-08T09:05:54Z</time>
      </trkpt>
      <trkpt lat="49.93337" lon="3.88851">
        <ele>186.15</ele>
        <time>2021-08-08T09:06:04Z</time>
      </trkpt>
      <trkpt lat="49.93273" lon="3.888">
        <ele>183.75</ele>
        <time>2021-08-08T09:06:16Z</time>
      </trkpt>
      <trkpt lat="49.93219" lon="3.88758">
        <ele>181.83</ele>
        <time>2021-08-08T09:06:25Z</time>
      </trkpt>
      <trkpt lat="49.9319" lon="3.88735">
        <ele>179.9</ele>
        <time>2021-08-08T09:06:30Z</time>
      </trkpt>
      <trkpt lat="49.93183" lon="3.88732">
        <ele>178.94</ele>
        <time>2021-08-08T09:06:31Z</time>
      </trkpt>
      <trkpt lat="49.93178" lon="3.8873">
        <ele>178.94</ele>
        <time>2021-08-08T09:06:32Z</time>
      </trkpt>
      <trkpt lat="49.93166" lon="3.88728">
        <ele>178.94</ele>
        <time>2021-08-08T09:06:34Z</time>
      </trkpt>
      <trkpt lat="49.9316" lon="3.88728">
        <ele>178.94</ele>
        <time>2021-08-08T09:06:35Z</time>
      </trkpt>
      <trkpt lat="49.93153" lon="3.88727">
        <ele>178.94</ele>
        <time>2021-08-08T09:06:36Z</time>
      </trkpt>
      <trkpt lat="49.93105" lon="3.88713">
        <ele>179.42</ele>
        <time>2021-08-08T09:06:44Z</time>
      </trkpt>
      <trkpt lat="49.93078" lon="3.88706">
        <ele>178.46</ele>
        <time>2021-08-08T09:06:49Z</time>
      </trkpt>
      <trkpt lat="49.93035" lon="3.88709">
        <ele>177.5</ele>
        <time>2021-08-08T09:06:57Z</time>
      </trkpt>
      <trkpt lat="49.92978" lon="3.88723">
        <ele>176.06</ele>
        <time>2021-08-08T09:07:08Z</time>
      </trkpt>
      <trkpt lat="49.92938" lon="3.88729">
        <ele>177.5</ele>
        <time>2021-08-08T09:07:16Z</time>
      </trkpt>
      <trkpt lat="49.92933" lon="3.88729">
        <ele>177.5</ele>
        <time>2021-08-08T09:07:17Z</time>
      </trkpt>
      <trkpt lat="49.92928" lon="3.88728">
        <ele>177.5</ele>
        <time>2021-08-08T09:07:18Z</time>
      </trkpt>
      <trkpt lat="49.92884" lon="3.88727">
        <ele>176.06</ele>
        <time>2021-08-08T09:07:26Z</time>
      </trkpt>
      <trkpt lat="49.92838" lon="3.88737">
        <ele>176.06</ele>
        <time>2021-08-08T09:07:34Z</time>
      </trkpt>
      <trkpt lat="49.92791" lon="3.88753">
        <ele>175.1</ele>
        <time>2021-08-08T09:07:43Z</time>
      </trkpt>
      <trkpt lat="49.92786" lon="3.88756">
        <ele>175.1</ele>
        <time>2021-08-08T09:07:44Z</time>
      </trkpt>
      <trkpt lat="49.92782" lon="3.88758">
        <ele>175.1</ele>
        <time>2021-08-08T09:07:45Z</time>
      </trkpt>
      <trkpt lat="49.92751" lon="3.88782">
        <ele>174.62</ele>
        <time>2021-08-08T09:07:54Z</time>
      </trkpt>
      <trkpt lat="49.92729" lon="3.88806">
        <ele>175.1</ele>
        <time>2021-08-08T09:08:02Z</time>
      </trkpt>
      <trkpt lat="49.92706" lon="3.88831">
        <ele>175.1</ele>
        <time>2021-08-08T09:08:10Z</time>
      </trkpt>
      <trkpt lat="49.9269" lon="3.88849">
        <ele>175.1</ele>
        <time>2021-08-08T09:08:16Z</time>
      </trkpt>
      <trkpt lat="49.92666" lon="3.88868">
        <ele>173.66</ele>
        <time>2021-08-08T09:08:23Z</time>
      </trkpt>
      <trkpt lat="49.92632" lon="3.8888">
        <ele>171.73</ele>
        <time>2021-08-08T09:08:31Z</time>
      </trkpt>
      <trkpt lat="49.92628" lon="3.8888">
        <ele>171.73</ele>
        <time>2021-08-08T09:08:32Z</time>
      </trkpt>
      <trkpt lat="49.92623" lon="3.88881">
        <ele>171.73</ele>
        <time>2021-08-08T09:08:33Z</time>
      </trkpt>
      <trkpt lat="49.9259" lon="3.88888">
        <ele>168.85</ele>
        <time>2021-08-08T09:08:40Z</time>
      </trkpt>
      <trkpt lat="49.92578" lon="3.88891">
        <ele>167.41</ele>
        <time>2021-08-08T09:08:43Z</time>
      </trkpt>
      <trkpt lat="49.92565" lon="3.88894">
        <ele>168.85</ele>
        <time>2021-08-08T09:08:46Z</time>
      </trkpt>
      <trkpt lat="49.92535" lon="3.88903">
        <ele>167.41</ele>
        <time>2021-08-08T09:08:53Z</time>
      </trkpt>
      <trkpt lat="49.9252" lon="3.88911">
        <ele>166.93</ele>
        <time>2021-08-08T09:08:57Z</time>
      </trkpt>
      <trkpt lat="49.92517" lon="3.88915">
        <ele>166.93</ele>
        <time>2021-08-08T09:08:58Z</time>
      </trkpt>
      <trkpt lat="49.92513" lon="3.88919">
        <ele>166.93</ele>
        <time>2021-08-08T09:08:59Z</time>
      </trkpt>
      <trkpt lat="49.92488" lon="3.8895">
        <ele>166.93</ele>
        <time>2021-08-08T09:09:07Z</time>
      </trkpt>
      <trkpt lat="49.92467" lon="3.88983">
        <ele>166.93</ele>
        <time>2021-08-08T09:09:15Z</time>
      </trkpt>
      <trkpt lat="49.92451" lon="3.89007">
        <ele>165.96</ele>
        <time>2021-08-08T09:09:21Z</time>
      </trkpt>
      <trkpt lat="49.92436" lon="3.89032">
        <ele>165.48</ele>
        <time>2021-08-08T09:09:27Z</time>
      </trkpt>
      <trkpt lat="49.92418" lon="3.89061">
        <ele>165.48</ele>
        <time>2021-08-08T09:09:34Z</time>
      </trkpt>
      <trkpt lat="49.92396" lon="3.89096">
        <ele>164.04</ele>
        <time>2021-08-08T09:09:43Z</time>
      </trkpt>
      <trkpt lat="49.92373" lon="3.89131">
        <ele>161.16</ele>
        <time>2021-08-08T09:09:51Z</time>
      </trkpt>
      <trkpt lat="49.92354" lon="3.89163">
        <ele>159.24</ele>
        <time>2021-08-08T09:09:58Z</time>
      </trkpt>
      <trkpt lat="49.92339" lon="3.89202">
        <ele>157.79</ele>
        <time>2021-08-08T09:10:06Z</time>
      </trkpt>
      <trkpt lat="49.92329" lon="3.89225">
        <ele>155.39</ele>
        <time>2021-08-08T09:10:12Z</time>
      </trkpt>
      <trkpt lat="49.92322" lon="3.89237">
        <ele>152.51</ele>
        <time>2021-08-08T09:10:17Z</time>
      </trkpt>
      <trkpt lat="49.92313" lon="3.89243">
        <ele>149.14</ele>
        <time>2021-08-08T09:10:20Z</time>
      </trkpt>
      <trkpt lat="49.923" lon="3.89255">
        <ele>146.26</ele>
        <time>2021-08-08T09:10:25Z</time>
      </trkpt>
      <trkpt lat="49.92296" lon="3.89258">
        <ele>145.78</ele>
        <time>2021-08-08T09:10:27Z</time>
      </trkpt>
      <trkpt lat="49.92289" lon="3.89264">
        <ele>142.41</ele>
        <time>2021-08-08T09:10:32Z</time>
      </trkpt>
      <trkpt lat="49.92273" lon="3.89272">
        <ele>139.53</ele>
        <time>2021-08-08T09:10:36Z</time>
      </trkpt>
      <trkpt lat="49.92258" lon="3.89277">
        <ele>136.64</ele>
        <time>2021-08-08T09:10:41Z</time>
      </trkpt>
      <trkpt lat="49.92257" lon="3.8928">
        <ele>136.64</ele>
        <time>2021-08-08T09:10:42Z</time>
      </trkpt>
      <trkpt lat="49.92254" lon="3.89288">
        <ele>137.61</ele>
        <time>2021-08-08T09:10:48Z</time>
      </trkpt>
      <trkpt lat="49.92256" lon="3.8929">
        <ele>137.61</ele>
        <time>2021-08-08T09:10:50Z</time>
      </trkpt>
      <trkpt lat="49.9226" lon="3.89295">
        <ele>138.57</ele>
        <time>2021-08-08T09:10:55Z</time>
      </trkpt>
      <trkpt lat="49.92261" lon="3.89297">
        <ele>138.57</ele>
        <time>2021-08-08T09:10:56Z</time>
      </trkpt>
      <trkpt lat="49.92262" lon="3.89299">
        <ele>138.57</ele>
        <time>2021-08-08T09:10:57Z</time>
      </trkpt>
      <trkpt lat="49.92267" lon="3.89303">
        <ele>139.05</ele>
        <time>2021-08-08T09:11:03Z</time>
      </trkpt>
      <trkpt lat="49.92276" lon="3.8931">
        <ele>140.01</ele>
        <time>2021-08-08T09:11:12Z</time>
      </trkpt>
      <trkpt lat="49.92284" lon="3.89314">
        <ele>140.97</ele>
        <time>2021-08-08T09:11:19Z</time>
      </trkpt>
      <trkpt lat="49.92291" lon="3.89318">
        <ele>141.93</ele>
        <time>2021-08-08T09:11:25Z</time>
      </trkpt>
      <trkpt lat="49.92299" lon="3.89322">
        <ele>143.37</ele>
        <time>2021-08-08T09:11:33Z</time>
      </trkpt>
      <trkpt lat="49.92308" lon="3.89327">
        <ele>143.85</ele>
        <time>2021-08-08T09:11:40Z</time>
      </trkpt>
      <trkpt lat="49.92315" lon="3.89331">
        <ele>144.34</ele>
        <time>2021-08-08T09:11:46Z</time>
      </trkpt>
      <trkpt lat="49.92321" lon="3.89335">
        <ele>145.78</ele>
        <time>2021-08-08T09:11:53Z</time>
      </trkpt>
      <trkpt lat="49.92325" lon="3.89339">
        <ele>146.26</ele>
        <time>2021-08-08T09:12:00Z</time>
      </trkpt>
      <trkpt lat="49.92327" lon="3.8934">
        <ele>146.26</ele>
        <time>2021-08-08T09:12:01Z</time>
      </trkpt>
      <trkpt lat="49.92331" lon="3.89342">
        <ele>146.74</ele>
        <time>2021-08-08T09:12:05Z</time>
      </trkpt>
      <trkpt lat="49.92332" lon="3.89343">
        <ele>146.74</ele>
        <time>2021-08-08T09:12:06Z</time>
      </trkpt>
      <trkpt lat="49.92339" lon="3.89346">
        <ele>147.22</ele>
        <time>2021-08-08T09:12:12Z</time>
      </trkpt>
      <trkpt lat="49.92347" lon="3.8935">
        <ele>148.18</ele>
        <time>2021-08-08T09:12:18Z</time>
      </trkpt>
      <trkpt lat="49.92357" lon="3.89354">
        <ele>150.1</ele>
        <time>2021-08-08T09:12:27Z</time>
      </trkpt>
      <trkpt lat="49.92367" lon="3.89359">
        <ele>151.06</ele>
        <time>2021-08-08T09:12:35Z</time>
      </trkpt>
      <trkpt lat="49.92375" lon="3.89364">
        <ele>152.03</ele>
        <time>2021-08-08T09:12:42Z</time>
      </trkpt>
      <trkpt lat="49.92382" lon="3.8937">
        <ele>152.51</ele>
        <time>2021-08-08T09:12:48Z</time>
      </trkpt>
      <trkpt lat="49.92394" lon="3.89375">
        <ele>152.99</ele>
        <time>2021-08-08T09:12:56Z</time>
      </trkpt>
      <trkpt lat="49.92407" lon="3.89384">
        <ele>153.95</ele>
        <time>2021-08-08T09:13:03Z</time>
      </trkpt>
      <trkpt lat="49.92415" lon="3.8939">
        <ele>154.91</ele>
        <time>2021-08-08T09:13:08Z</time>
      </trkpt>
      <trkpt lat="49.92427" lon="3.89401">
        <ele>155.87</ele>
        <time>2021-08-08T09:13:16Z</time>
      </trkpt>
      <trkpt lat="49.92429" lon="3.89402">
        <ele>155.87</ele>
        <time>2021-08-08T09:13:17Z</time>
      </trkpt>
      <trkpt lat="49.9243" lon="3.89403">
        <ele>156.35</ele>
        <time>2021-08-08T09:13:18Z</time>
      </trkpt>
      <trkpt lat="49.92432" lon="3.89404">
        <ele>156.35</ele>
        <time>2021-08-08T09:13:19Z</time>
      </trkpt>
      <trkpt lat="49.92433" lon="3.89406">
        <ele>156.35</ele>
        <time>2021-08-08T09:13:20Z</time>
      </trkpt>
      <trkpt lat="49.92435" lon="3.89407">
        <ele>156.35</ele>
        <time>2021-08-08T09:13:21Z</time>
      </trkpt>
      <trkpt lat="49.92443" lon="3.89413">
        <ele>158.27</ele>
        <time>2021-08-08T09:13:28Z</time>
      </trkpt>
      <trkpt lat="49.92449" lon="3.89415">
        <ele>159.72</ele>
        <time>2021-08-08T09:13:35Z</time>
      </trkpt>
      <trkpt lat="49.92458" lon="3.89418">
        <ele>160.68</ele>
        <time>2021-08-08T09:13:43Z</time>
      </trkpt>
      <trkpt lat="49.92467" lon="3.89426">
        <ele>162.6</ele>
        <time>2021-08-08T09:13:51Z</time>
      </trkpt>
      <trkpt lat="49.92474" lon="3.8943">
        <ele>164.04</ele>
        <time>2021-08-08T09:13:59Z</time>
      </trkpt>
      <trkpt lat="49.92484" lon="3.89437">
        <ele>165.96</ele>
        <time>2021-08-08T09:14:08Z</time>
      </trkpt>
      <trkpt lat="49.92494" lon="3.89443">
        <ele>166.45</ele>
        <time>2021-08-08T09:14:15Z</time>
      </trkpt>
      <trkpt lat="49.92502" lon="3.8945">
        <ele>166.93</ele>
        <time>2021-08-08T09:14:21Z</time>
      </trkpt>
      <trkpt lat="49.92514" lon="3.89462">
        <ele>167.41</ele>
        <time>2021-08-08T09:14:28Z</time>
      </trkpt>
      <trkpt lat="49.92528" lon="3.89474">
        <ele>167.89</ele>
        <time>2021-08-08T09:14:35Z</time>
      </trkpt>
      <trkpt lat="49.92543" lon="3.89477">
        <ele>169.33</ele>
        <time>2021-08-08T09:14:43Z</time>
      </trkpt>
      <trkpt lat="49.92555" lon="3.89476">
        <ele>169.81</ele>
        <time>2021-08-08T09:14:50Z</time>
      </trkpt>
      <trkpt lat="49.92563" lon="3.89476">
        <ele>171.25</ele>
        <time>2021-08-08T09:14:56Z</time>
      </trkpt>
      <trkpt lat="49.92571" lon="3.89478">
        <ele>171.73</ele>
        <time>2021-08-08T09:15:01Z</time>
      </trkpt>
      <trkpt lat="49.92573" lon="3.89478">
        <ele>171.73</ele>
        <time>2021-08-08T09:15:02Z</time>
      </trkpt>
      <trkpt lat="49.92583" lon="3.89482">
        <ele>172.21</ele>
        <time>2021-08-08T09:15:09Z</time>
      </trkpt>
      <trkpt lat="49.92597" lon="3.8949">
        <ele>172.69</ele>
        <time>2021-08-08T09:15:16Z</time>
      </trkpt>
      <trkpt lat="49.92598" lon="3.89491">
        <ele>173.17</ele>
        <time>2021-08-08T09:15:17Z</time>
      </trkpt>
      <trkpt lat="49.926" lon="3.89493">
        <ele>173.17</ele>
        <time>2021-08-08T09:15:18Z</time>
      </trkpt>
      <trkpt lat="49.9261" lon="3.89498">
        <ele>174.14</ele>
        <time>2021-08-08T09:15:23Z</time>
      </trkpt>
      <trkpt lat="49.92611" lon="3.89499">
        <ele>174.14</ele>
        <time>2021-08-08T09:15:24Z</time>
      </trkpt>
      <trkpt lat="49.92612" lon="3.89499">
        <ele>174.62</ele>
        <time>2021-08-08T09:15:25Z</time>
      </trkpt>
      <trkpt lat="49.92614" lon="3.895">
        <ele>174.62</ele>
        <time>2021-08-08T09:15:26Z</time>
      </trkpt>
      <trkpt lat="49.92616" lon="3.89501">
        <ele>175.1</ele>
        <time>2021-08-08T09:15:27Z</time>
      </trkpt>
      <trkpt lat="49.92628" lon="3.89509">
        <ele>176.06</ele>
        <time>2021-08-08T09:15:34Z</time>
      </trkpt>
      <trkpt lat="49.92636" lon="3.89516">
        <ele>176.54</ele>
        <time>2021-08-08T09:15:38Z</time>
      </trkpt>
      <trkpt lat="49.92638" lon="3.89518">
        <ele>176.54</ele>
        <time>2021-08-08T09:15:39Z</time>
      </trkpt>
      <trkpt lat="49.92639" lon="3.89519">
        <ele>176.54</ele>
        <time>2021-08-08T09:15:40Z</time>
      </trkpt>
      <trkpt lat="49.9264" lon="3.8952">
        <ele>177.02</ele>
        <time>2021-08-08T09:15:41Z</time>
      </trkpt>
      <trkpt lat="49.92641" lon="3.89521">
        <ele>177.02</ele>
        <time>2021-08-08T09:15:42Z</time>
      </trkpt>
      <trkpt lat="49.92643" lon="3.89522">
        <ele>176.54</ele>
        <time>2021-08-08T09:15:43Z</time>
      </trkpt>
      <trkpt lat="49.92644" lon="3.89523">
        <ele>176.54</ele>
        <time>2021-08-08T09:15:44Z</time>
      </trkpt>
      <trkpt lat="49.92645" lon="3.89524">
        <ele>177.02</ele>
        <time>2021-08-08T09:15:45Z</time>
      </trkpt>
      <trkpt lat="49.92646" lon="3.89525">
        <ele>177.02</ele>
        <time>2021-08-08T09:15:46Z</time>
      </trkpt>
      <trkpt lat="49.92647" lon="3.89526">
        <ele>177.02</ele>
        <time>2021-08-08T09:15:47Z</time>
      </trkpt>
      <trkpt lat="49.92649" lon="3.89527">
        <ele>177.02</ele>
        <time>2021-08-08T09:15:48Z</time>
      </trkpt>
      <trkpt lat="49.9265" lon="3.89528">
        <ele>177.02</ele>
        <time>2021-08-08T09:15:49Z</time>
      </trkpt>
      <trkpt lat="49.92651" lon="3.89529">
        <ele>177.5</ele>
        <time>2021-08-08T09:15:50Z</time>
      </trkpt>
      <trkpt lat="49.92652" lon="3.8953">
        <ele>177.5</ele>
        <time>2021-08-08T09:15:51Z</time>
      </trkpt>
      <trkpt lat="49.92653" lon="3.89532">
        <ele>177.5</ele>
        <time>2021-08-08T09:15:52Z</time>
      </trkpt>
      <trkpt lat="49.92655" lon="3.89534">
        <ele>177.5</ele>
        <time>2021-08-08T09:15:54Z</time>
      </trkpt>
      <trkpt lat="49.92658" lon="3.89537">
        <ele>177.98</ele>
        <time>2021-08-08T09:15:57Z</time>
      </trkpt>
      <trkpt lat="49.92659" lon="3.89538">
        <ele>177.98</ele>
        <time>2021-08-08T09:15:58Z</time>
      </trkpt>
      <trkpt lat="49.92661" lon="3.89539">
        <ele>177.98</ele>
        <time>2021-08-08T09:15:59Z</time>
      </trkpt>
      <trkpt lat="49.92662" lon="3.8954">
        <ele>177.98</ele>
        <time>2021-08-08T09:16:00Z</time>
      </trkpt>
      <trkpt lat="49.92663" lon="3.89542">
        <ele>177.98</ele>
        <time>2021-08-08T09:16:01Z</time>
      </trkpt>
      <trkpt lat="49.92665" lon="3.89543">
        <ele>177.98</ele>
        <time>2021-08-08T09:16:02Z</time>
      </trkpt>
      <trkpt lat="49.92665" lon="3.89544">
        <ele>177.98</ele>
        <time>2021-08-08T09:16:03Z</time>
      </trkpt>
      <trkpt lat="49.92667" lon="3.89545">
        <ele>177.98</ele>
        <time>2021-08-08T09:16:04Z</time>
      </trkpt>
      <trkpt lat="49.92668" lon="3.89546">
        <ele>177.98</ele>
        <time>2021-08-08T09:16:05Z</time>
      </trkpt>
      <trkpt lat="49.92669" lon="3.89547">
        <ele>177.98</ele>
        <time>2021-08-08T09:16:06Z</time>
      </trkpt>
      <trkpt lat="49.9267" lon="3.89548">
        <ele>178.46</ele>
        <time>2021-08-08T09:16:07Z</time>
      </trkpt>
      <trkpt lat="49.92671" lon="3.89549">
        <ele>178.46</ele>
        <time>2021-08-08T09:16:08Z</time>
      </trkpt>
      <trkpt lat="49.92672" lon="3.8955">
        <ele>178.46</ele>
        <time>2021-08-08T09:16:09Z</time>
      </trkpt>
      <trkpt lat="49.92674" lon="3.89552">
        <ele>178.46</ele>
        <time>2021-08-08T09:16:10Z</time>
      </trkpt>
      <trkpt lat="49.92683" lon="3.89561">
        <ele>179.42</ele>
        <time>2021-08-08T09:16:19Z</time>
      </trkpt>
      <trkpt lat="49.92687" lon="3.89565">
        <ele>179.9</ele>
        <time>2021-08-08T09:16:23Z</time>
      </trkpt>
      <trkpt lat="49.92688" lon="3.89567">
        <ele>179.9</ele>
        <time>2021-08-08T09:16:24Z</time>
      </trkpt>
      <trkpt lat="49.92689" lon="3.89569">
        <ele>179.9</ele>
        <time>2021-08-08T09:16:25Z</time>
      </trkpt>
      <trkpt lat="49.9269" lon="3.89571">
        <ele>180.38</ele>
        <time>2021-08-08T09:16:26Z</time>
      </trkpt>
      <trkpt lat="49.9269" lon="3.89573">
        <ele>180.38</ele>
        <time>2021-08-08T09:16:27Z</time>
      </trkpt>
      <trkpt lat="49.92695" lon="3.89596">
        <ele>181.35</ele>
        <time>2021-08-08T09:16:36Z</time>
      </trkpt>
      <trkpt lat="49.92696" lon="3.8961">
        <ele>181.83</ele>
        <time>2021-08-08T09:16:41Z</time>
      </trkpt>
      <trkpt lat="49.92695" lon="3.89612">
        <ele>181.83</ele>
        <time>2021-08-08T09:16:42Z</time>
      </trkpt>
      <trkpt lat="49.92693" lon="3.89613">
        <ele>181.83</ele>
        <time>2021-08-08T09:16:43Z</time>
      </trkpt>
      <trkpt lat="49.92692" lon="3.89614">
        <ele>181.83</ele>
        <time>2021-08-08T09:16:44Z</time>
      </trkpt>
      <trkpt lat="49.92691" lon="3.89613">
        <ele>181.83</ele>
        <time>2021-08-08T09:16:45Z</time>
      </trkpt>
      <trkpt lat="49.92689" lon="3.89613">
        <ele>181.83</ele>
        <time>2021-08-08T09:16:46Z</time>
      </trkpt>
      <trkpt lat="49.92688" lon="3.89612">
        <ele>181.83</ele>
        <time>2021-08-08T09:16:51Z</time>
      </trkpt>
      <trkpt lat="49.92683" lon="3.89612">
        <ele>181.83</ele>
        <time>2021-08-08T09:16:59Z</time>
      </trkpt>
      <trkpt lat="49.92662" lon="3.89611">
        <ele>179.9</ele>
        <time>2021-08-08T09:17:07Z</time>
      </trkpt>
      <trkpt lat="49.92634" lon="3.89607">
        <ele>178.94</ele>
        <time>2021-08-08T09:17:15Z</time>
      </trkpt>
      <trkpt lat="49.92604" lon="3.89602">
        <ele>177.5</ele>
        <time>2021-08-08T09:17:22Z</time>
      </trkpt>
      <trkpt lat="49.926" lon="3.89601">
        <ele>177.5</ele>
        <time>2021-08-08T09:17:23Z</time>
      </trkpt>
      <trkpt lat="49.92595" lon="3.89599">
        <ele>177.5</ele>
        <time>2021-08-08T09:17:24Z</time>
      </trkpt>
      <trkpt lat="49.92591" lon="3.89597">
        <ele>177.5</ele>
        <time>2021-08-08T09:17:25Z</time>
      </trkpt>
      <trkpt lat="49.92586" lon="3.89596">
        <ele>176.06</ele>
        <time>2021-08-08T09:17:26Z</time>
      </trkpt>
      <trkpt lat="49.92581" lon="3.89595">
        <ele>176.06</ele>
        <time>2021-08-08T09:17:27Z</time>
      </trkpt>
      <trkpt lat="49.92548" lon="3.89593">
        <ele>174.62</ele>
        <time>2021-08-08T09:17:34Z</time>
      </trkpt>
      <trkpt lat="49.92532" lon="3.89593">
        <ele>174.14</ele>
        <time>2021-08-08T09:17:37Z</time>
      </trkpt>
      <trkpt lat="49.92506" lon="3.89592">
        <ele>173.66</ele>
        <time>2021-08-08T09:17:42Z</time>
      </trkpt>
      <trkpt lat="49.92503" lon="3.89593">
        <ele>173.66</ele>
        <time>2021-08-08T09:17:43Z</time>
      </trkpt>
      <trkpt lat="49.92501" lon="3.89594">
        <ele>173.66</ele>
        <time>2021-08-08T09:17:44Z</time>
      </trkpt>
      <trkpt lat="49.92499" lon="3.89594">
        <ele>173.66</ele>
        <time>2021-08-08T09:17:45Z</time>
      </trkpt>
      <trkpt lat="49.92498" lon="3.89593">
        <ele>173.66</ele>
        <time>2021-08-08T09:17:46Z</time>
      </trkpt>
      <trkpt lat="49.92496" lon="3.89593">
        <ele>173.66</ele>
        <time>2021-08-08T09:17:47Z</time>
      </trkpt>
      <trkpt lat="49.92484" lon="3.89593">
        <ele>173.17</ele>
        <time>2021-08-08T09:17:53Z</time>
      </trkpt>
      <trkpt lat="49.92471" lon="3.89599">
        <ele>172.69</ele>
        <time>2021-08-08T09:17:59Z</time>
      </trkpt>
      <trkpt lat="49.92464" lon="3.89599">
        <ele>172.69</ele>
        <time>2021-08-08T09:18:03Z</time>
      </trkpt>
      <trkpt lat="49.92462" lon="3.89598">
        <ele>172.69</ele>
        <time>2021-08-08T09:18:05Z</time>
      </trkpt>
      <trkpt lat="49.9246" lon="3.89599">
        <ele>172.21</ele>
        <time>2021-08-08T09:18:06Z</time>
      </trkpt>
      <trkpt lat="49.92459" lon="3.89599">
        <ele>172.21</ele>
        <time>2021-08-08T09:18:07Z</time>
      </trkpt>
      <trkpt lat="49.92447" lon="3.89596">
        <ele>171.73</ele>
        <time>2021-08-08T09:18:14Z</time>
      </trkpt>
      <trkpt lat="49.92439" lon="3.89596">
        <ele>171.73</ele>
        <time>2021-08-08T09:18:20Z</time>
      </trkpt>
      <trkpt lat="49.92437" lon="3.89596">
        <ele>171.73</ele>
        <time>2021-08-08T09:18:22Z</time>
      </trkpt>
      <trkpt lat="49.92435" lon="3.89596">
        <ele>171.73</ele>
        <time>2021-08-08T09:18:23Z</time>
      </trkpt>
      <trkpt lat="49.92429" lon="3.89595">
        <ele>171.25</ele>
        <time>2021-08-08T09:18:29Z</time>
      </trkpt>
      <trkpt lat="49.92428" lon="3.89594">
        <ele>171.73</ele>
        <time>2021-08-08T09:18:34Z</time>
      </trkpt>
      <trkpt lat="49.92426" lon="3.89592">
        <ele>171.73</ele>
        <time>2021-08-08T09:18:41Z</time>
      </trkpt>
      <trkpt lat="49.92414" lon="3.8959">
        <ele>171.25</ele>
        <time>2021-08-08T09:18:48Z</time>
      </trkpt>
      <trkpt lat="49.92411" lon="3.89587">
        <ele>171.25</ele>
        <time>2021-08-08T09:18:50Z</time>
      </trkpt>
      <trkpt lat="49.92408" lon="3.89586">
        <ele>171.25</ele>
        <time>2021-08-08T09:18:51Z</time>
      </trkpt>
      <trkpt lat="49.92401" lon="3.89581">
        <ele>171.25</ele>
        <time>2021-08-08T09:18:55Z</time>
      </trkpt>
      <trkpt lat="49.924" lon="3.89579">
        <ele>171.25</ele>
        <time>2021-08-08T09:18:56Z</time>
      </trkpt>
      <trkpt lat="49.92399" lon="3.89576">
        <ele>171.25</ele>
        <time>2021-08-08T09:18:57Z</time>
      </trkpt>
      <trkpt lat="49.92397" lon="3.89573">
        <ele>171.25</ele>
        <time>2021-08-08T09:18:58Z</time>
      </trkpt>
      <trkpt lat="49.92396" lon="3.8957">
        <ele>170.77</ele>
        <time>2021-08-08T09:18:59Z</time>
      </trkpt>
      <trkpt lat="49.92381" lon="3.89543">
        <ele>169.33</ele>
        <time>2021-08-08T09:19:06Z</time>
      </trkpt>
      <trkpt lat="49.92379" lon="3.89542">
        <ele>168.85</ele>
        <time>2021-08-08T09:19:07Z</time>
      </trkpt>
      <trkpt lat="49.92375" lon="3.8954">
        <ele>168.85</ele>
        <time>2021-08-08T09:19:08Z</time>
      </trkpt>
      <trkpt lat="49.92371" lon="3.89539">
        <ele>168.37</ele>
        <time>2021-08-08T09:19:09Z</time>
      </trkpt>
      <trkpt lat="49.92365" lon="3.89539">
        <ele>168.37</ele>
        <time>2021-08-08T09:19:10Z</time>
      </trkpt>
      <trkpt lat="49.92361" lon="3.8954">
        <ele>167.89</ele>
        <time>2021-08-08T09:19:11Z</time>
      </trkpt>
      <trkpt lat="49.92357" lon="3.8954">
        <ele>167.89</ele>
        <time>2021-08-08T09:19:12Z</time>
      </trkpt>
      <trkpt lat="49.92353" lon="3.8954">
        <ele>167.41</ele>
        <time>2021-08-08T09:19:13Z</time>
      </trkpt>
      <trkpt lat="49.92337" lon="3.89543">
        <ele>166.93</ele>
        <time>2021-08-08T09:19:18Z</time>
      </trkpt>
      <trkpt lat="49.92323" lon="3.89547">
        <ele>166.93</ele>
        <time>2021-08-08T09:19:25Z</time>
      </trkpt>
      <trkpt lat="49.92303" lon="3.89552">
        <ele>165.48</ele>
        <time>2021-08-08T09:19:31Z</time>
      </trkpt>
      <trkpt lat="49.92281" lon="3.89554">
        <ele>165.48</ele>
        <time>2021-08-08T09:19:38Z</time>
      </trkpt>
      <trkpt lat="49.92262" lon="3.89558">
        <ele>164.52</ele>
        <time>2021-08-08T09:19:45Z</time>
      </trkpt>
      <trkpt lat="49.92246" lon="3.89562">
        <ele>165</ele>
        <time>2021-08-08T09:19:52Z</time>
      </trkpt>
      <trkpt lat="49.92234" lon="3.89565">
        <ele>164.52</ele>
        <time>2021-08-08T09:19:58Z</time>
      </trkpt>
      <trkpt lat="49.9222" lon="3.89567">
        <ele>164.52</ele>
        <time>2021-08-08T09:20:04Z</time>
      </trkpt>
      <trkpt lat="49.92205" lon="3.89571">
        <ele>164.04</ele>
        <time>2021-08-08T09:20:10Z</time>
      </trkpt>
      <trkpt lat="49.92188" lon="3.89574">
        <ele>163.56</ele>
        <time>2021-08-08T09:20:17Z</time>
      </trkpt>
      <trkpt lat="49.9217" lon="3.89578">
        <ele>163.08</ele>
        <time>2021-08-08T09:20:24Z</time>
      </trkpt>
      <trkpt lat="49.92154" lon="3.89582">
        <ele>163.08</ele>
        <time>2021-08-08T09:20:30Z</time>
      </trkpt>
      <trkpt lat="49.92136" lon="3.89585">
        <ele>162.6</ele>
        <time>2021-08-08T09:20:37Z</time>
      </trkpt>
      <trkpt lat="49.92116" lon="3.89593">
        <ele>162.6</ele>
        <time>2021-08-08T09:20:45Z</time>
      </trkpt>
      <trkpt lat="49.92089" lon="3.89614">
        <ele>161.64</ele>
        <time>2021-08-08T09:20:52Z</time>
      </trkpt>
      <trkpt lat="49.92072" lon="3.8963">
        <ele>161.16</ele>
        <time>2021-08-08T09:20:57Z</time>
      </trkpt>
      <trkpt lat="49.92068" lon="3.89635">
        <ele>161.16</ele>
        <time>2021-08-08T09:20:58Z</time>
      </trkpt>
      <trkpt lat="49.92046" lon="3.89657">
        <ele>161.16</ele>
        <time>2021-08-08T09:21:05Z</time>
      </trkpt>
      <trkpt lat="49.92018" lon="3.89685">
        <ele>160.2</ele>
        <time>2021-08-08T09:21:13Z</time>
      </trkpt>
      <trkpt lat="49.9199" lon="3.89708">
        <ele>158.75</ele>
        <time>2021-08-08T09:21:20Z</time>
      </trkpt>
      <trkpt lat="49.91985" lon="3.8971">
        <ele>157.79</ele>
        <time>2021-08-08T09:21:21Z</time>
      </trkpt>
      <trkpt lat="49.91947" lon="3.89724">
        <ele>154.91</ele>
        <time>2021-08-08T09:21:28Z</time>
      </trkpt>
      <trkpt lat="49.91936" lon="3.89724">
        <ele>153.95</ele>
        <time>2021-08-08T09:21:30Z</time>
      </trkpt>
      <trkpt lat="49.91931" lon="3.89723">
        <ele>153.47</ele>
        <time>2021-08-08T09:21:31Z</time>
      </trkpt>
      <trkpt lat="49.91918" lon="3.89717">
        <ele>151.06</ele>
        <time>2021-08-08T09:21:34Z</time>
      </trkpt>
      <trkpt lat="49.91913" lon="3.89713">
        <ele>151.06</ele>
        <time>2021-08-08T09:21:35Z</time>
      </trkpt>
      <trkpt lat="49.919" lon="3.89701">
        <ele>148.66</ele>
        <time>2021-08-08T09:21:39Z</time>
      </trkpt>
      <trkpt lat="49.9189" lon="3.89693">
        <ele>147.7</ele>
        <time>2021-08-08T09:21:42Z</time>
      </trkpt>
      <trkpt lat="49.91885" lon="3.8969">
        <ele>146.74</ele>
        <time>2021-08-08T09:21:43Z</time>
      </trkpt>
      <trkpt lat="49.91874" lon="3.89685">
        <ele>145.78</ele>
        <time>2021-08-08T09:21:45Z</time>
      </trkpt>
      <trkpt lat="49.91868" lon="3.89681">
        <ele>145.3</ele>
        <time>2021-08-08T09:21:46Z</time>
      </trkpt>
      <trkpt lat="49.91863" lon="3.89679">
        <ele>144.82</ele>
        <time>2021-08-08T09:21:47Z</time>
      </trkpt>
      <trkpt lat="49.91837" lon="3.89672">
        <ele>142.41</ele>
        <time>2021-08-08T09:21:51Z</time>
      </trkpt>
      <trkpt lat="49.91829" lon="3.89672">
        <ele>141.93</ele>
        <time>2021-08-08T09:21:52Z</time>
      </trkpt>
      <trkpt lat="49.91823" lon="3.89674">
        <ele>141.45</ele>
        <time>2021-08-08T09:21:53Z</time>
      </trkpt>
      <trkpt lat="49.91817" lon="3.89676">
        <ele>140.97</ele>
        <time>2021-08-08T09:21:54Z</time>
      </trkpt>
      <trkpt lat="49.91811" lon="3.89679">
        <ele>140.01</ele>
        <time>2021-08-08T09:21:55Z</time>
      </trkpt>
      <trkpt lat="49.91793" lon="3.89688">
        <ele>138.09</ele>
        <time>2021-08-08T09:21:58Z</time>
      </trkpt>
      <trkpt lat="49.91783" lon="3.89692">
        <ele>137.61</ele>
        <time>2021-08-08T09:22:00Z</time>
      </trkpt>
      <trkpt lat="49.91769" lon="3.89688">
        <ele>136.16</ele>
        <time>2021-08-08T09:22:04Z</time>
      </trkpt>
      <trkpt lat="49.91764" lon="3.89678">
        <ele>135.2</ele>
        <time>2021-08-08T09:22:06Z</time>
      </trkpt>
      <trkpt lat="49.9176" lon="3.8967">
        <ele>134.24</ele>
        <time>2021-08-08T09:22:07Z</time>
      </trkpt>
      <trkpt lat="49.9175" lon="3.89646">
        <ele>131.84</ele>
        <time>2021-08-08T09:22:10Z</time>
      </trkpt>
      <trkpt lat="49.91746" lon="3.89639">
        <ele>130.88</ele>
        <time>2021-08-08T09:22:11Z</time>
      </trkpt>
      <trkpt lat="49.91741" lon="3.89635">
        <ele>130.4</ele>
        <time>2021-08-08T09:22:12Z</time>
      </trkpt>
      <trkpt lat="49.91736" lon="3.89631">
        <ele>130.4</ele>
        <time>2021-08-08T09:22:13Z</time>
      </trkpt>
      <trkpt lat="49.91731" lon="3.89627">
        <ele>129.92</ele>
        <time>2021-08-08T09:22:14Z</time>
      </trkpt>
      <trkpt lat="49.91725" lon="3.89622">
        <ele>129.92</ele>
        <time>2021-08-08T09:22:15Z</time>
      </trkpt>
      <trkpt lat="49.9172" lon="3.89616">
        <ele>129.92</ele>
        <time>2021-08-08T09:22:16Z</time>
      </trkpt>
      <trkpt lat="49.917" lon="3.89596">
        <ele>128.95</ele>
        <time>2021-08-08T09:22:21Z</time>
      </trkpt>
      <trkpt lat="49.91685" lon="3.89601">
        <ele>128.95</ele>
        <time>2021-08-08T09:22:26Z</time>
      </trkpt>
      <trkpt lat="49.91666" lon="3.89612">
        <ele>130.4</ele>
        <time>2021-08-08T09:22:33Z</time>
      </trkpt>
      <trkpt lat="49.91665" lon="3.89614">
        <ele>130.88</ele>
        <time>2021-08-08T09:22:37Z</time>
      </trkpt>
      <trkpt lat="49.91664" lon="3.89612">
        <ele>130.88</ele>
        <time>2021-08-08T09:23:02Z</time>
      </trkpt>
      <trkpt lat="49.91665" lon="3.89612">
        <ele>130.88</ele>
        <time>2021-08-08T09:23:27Z</time>
      </trkpt>
      <trkpt lat="49.91661" lon="3.89611">
        <ele>130.88</ele>
        <time>2021-08-08T09:23:33Z</time>
      </trkpt>
      <trkpt lat="49.91662" lon="3.89612">
        <ele>130.88</ele>
        <time>2021-08-08T09:23:39Z</time>
      </trkpt>
      <trkpt lat="49.91655" lon="3.89616">
        <ele>130.88</ele>
        <time>2021-08-08T09:23:44Z</time>
      </trkpt>
      <trkpt lat="49.91635" lon="3.89622">
        <ele>130.88</ele>
        <time>2021-08-08T09:23:52Z</time>
      </trkpt>
      <trkpt lat="49.91612" lon="3.89619">
        <ele>131.36</ele>
        <time>2021-08-08T09:24:00Z</time>
      </trkpt>
      <trkpt lat="49.91598" lon="3.89617">
        <ele>132.32</ele>
        <time>2021-08-08T09:24:06Z</time>
      </trkpt>
      <trkpt lat="49.91584" lon="3.89621">
        <ele>134.24</ele>
        <time>2021-08-08T09:24:13Z</time>
      </trkpt>
      <trkpt lat="49.91573" lon="3.89636">
        <ele>136.64</ele>
        <time>2021-08-08T09:24:22Z</time>
      </trkpt>
      <trkpt lat="49.91569" lon="3.8965">
        <ele>138.09</ele>
        <time>2021-08-08T09:24:29Z</time>
      </trkpt>
      <trkpt lat="49.91569" lon="3.89652">
        <ele>138.09</ele>
        <time>2021-08-08T09:24:30Z</time>
      </trkpt>
      <trkpt lat="49.91569" lon="3.89654">
        <ele>138.57</ele>
        <time>2021-08-08T09:24:31Z</time>
      </trkpt>
      <trkpt lat="49.91569" lon="3.89656">
        <ele>138.57</ele>
        <time>2021-08-08T09:24:32Z</time>
      </trkpt>
      <trkpt lat="49.91568" lon="3.89658">
        <ele>138.57</ele>
        <time>2021-08-08T09:24:33Z</time>
      </trkpt>
      <trkpt lat="49.91567" lon="3.8966">
        <ele>139.05</ele>
        <time>2021-08-08T09:24:34Z</time>
      </trkpt>
      <trkpt lat="49.91567" lon="3.89662">
        <ele>139.05</ele>
        <time>2021-08-08T09:24:35Z</time>
      </trkpt>
      <trkpt lat="49.91567" lon="3.89664">
        <ele>139.05</ele>
        <time>2021-08-08T09:24:36Z</time>
      </trkpt>
      <trkpt lat="49.91566" lon="3.89666">
        <ele>139.53</ele>
        <time>2021-08-08T09:24:37Z</time>
      </trkpt>
      <trkpt lat="49.91566" lon="3.89668">
        <ele>139.53</ele>
        <time>2021-08-08T09:24:38Z</time>
      </trkpt>
      <trkpt lat="49.91566" lon="3.89673">
        <ele>140.01</ele>
        <time>2021-08-08T09:24:40Z</time>
      </trkpt>
      <trkpt lat="49.91565" lon="3.89675">
        <ele>140.01</ele>
        <time>2021-08-08T09:24:41Z</time>
      </trkpt>
      <trkpt lat="49.91565" lon="3.89678">
        <ele>140.49</ele>
        <time>2021-08-08T09:24:42Z</time>
      </trkpt>
      <trkpt lat="49.91561" lon="3.89701">
        <ele>141.93</ele>
        <time>2021-08-08T09:24:52Z</time>
      </trkpt>
      <trkpt lat="49.91557" lon="3.8972">
        <ele>143.85</ele>
        <time>2021-08-08T09:25:01Z</time>
      </trkpt>
      <trkpt lat="49.91554" lon="3.8973">
        <ele>144.82</ele>
        <time>2021-08-08T09:25:07Z</time>
      </trkpt>
      <trkpt lat="49.9155" lon="3.89743">
        <ele>145.78</ele>
        <time>2021-08-08T09:25:14Z</time>
      </trkpt>
      <trkpt lat="49.9154" lon="3.89761">
        <ele>147.22</ele>
        <time>2021-08-08T09:25:24Z</time>
      </trkpt>
      <trkpt lat="49.91528" lon="3.89775">
        <ele>148.66</ele>
        <time>2021-08-08T09:25:32Z</time>
      </trkpt>
      <trkpt lat="49.91512" lon="3.89789">
        <ele>149.62</ele>
        <time>2021-08-08T09:25:38Z</time>
      </trkpt>
      <trkpt lat="49.91496" lon="3.89797">
        <ele>150.58</ele>
        <time>2021-08-08T09:25:43Z</time>
      </trkpt>
      <trkpt lat="49.91472" lon="3.89805">
        <ele>150.58</ele>
        <time>2021-08-08T09:25:52Z</time>
      </trkpt>
      <trkpt lat="49.91453" lon="3.89813">
        <ele>150.58</ele>
        <time>2021-08-08T09:25:59Z</time>
      </trkpt>
      <trkpt lat="49.91447" lon="3.89815">
        <ele>151.06</ele>
        <time>2021-08-08T09:26:02Z</time>
      </trkpt>
      <trkpt lat="49.91446" lon="3.89814">
        <ele>151.06</ele>
        <time>2021-08-08T09:26:03Z</time>
      </trkpt>
      <trkpt lat="49.91444" lon="3.89813">
        <ele>151.06</ele>
        <time>2021-08-08T09:26:04Z</time>
      </trkpt>
      <trkpt lat="49.91443" lon="3.89811">
        <ele>151.06</ele>
        <time>2021-08-08T09:26:05Z</time>
      </trkpt>
      <trkpt lat="49.91441" lon="3.89809">
        <ele>151.06</ele>
        <time>2021-08-08T09:26:06Z</time>
      </trkpt>
      <trkpt lat="49.91439" lon="3.89807">
        <ele>151.06</ele>
        <time>2021-08-08T09:26:07Z</time>
      </trkpt>
      <trkpt lat="49.91437" lon="3.89804">
        <ele>151.06</ele>
        <time>2021-08-08T09:26:08Z</time>
      </trkpt>
      <trkpt lat="49.91435" lon="3.89801">
        <ele>151.06</ele>
        <time>2021-08-08T09:26:09Z</time>
      </trkpt>
      <trkpt lat="49.91432" lon="3.89798">
        <ele>151.06</ele>
        <time>2021-08-08T09:26:10Z</time>
      </trkpt>
      <trkpt lat="49.91405" lon="3.89778">
        <ele>151.06</ele>
        <time>2021-08-08T09:26:18Z</time>
      </trkpt>
      <trkpt lat="49.91366" lon="3.89758">
        <ele>151.06</ele>
        <time>2021-08-08T09:26:28Z</time>
      </trkpt>
      <trkpt lat="49.91321" lon="3.89737">
        <ele>149.62</ele>
        <time>2021-08-08T09:26:38Z</time>
      </trkpt>
      <trkpt lat="49.91316" lon="3.89734">
        <ele>149.62</ele>
        <time>2021-08-08T09:26:39Z</time>
      </trkpt>
      <trkpt lat="49.9127" lon="3.89709">
        <ele>147.7</ele>
        <time>2021-08-08T09:26:48Z</time>
      </trkpt>
      <trkpt lat="49.91234" lon="3.89685">
        <ele>146.74</ele>
        <time>2021-08-08T09:26:55Z</time>
      </trkpt>
      <trkpt lat="49.91224" lon="3.89677">
        <ele>146.74</ele>
        <time>2021-08-08T09:26:57Z</time>
      </trkpt>
      <trkpt lat="49.9122" lon="3.89671">
        <ele>146.74</ele>
        <time>2021-08-08T09:26:58Z</time>
      </trkpt>
      <trkpt lat="49.91216" lon="3.89664">
        <ele>146.74</ele>
        <time>2021-08-08T09:26:59Z</time>
      </trkpt>
      <trkpt lat="49.91212" lon="3.89657">
        <ele>145.78</ele>
        <time>2021-08-08T09:27:00Z</time>
      </trkpt>
      <trkpt lat="49.91208" lon="3.89648">
        <ele>145.78</ele>
        <time>2021-08-08T09:27:01Z</time>
      </trkpt>
      <trkpt lat="49.91205" lon="3.89639">
        <ele>145.3</ele>
        <time>2021-08-08T09:27:02Z</time>
      </trkpt>
      <trkpt lat="49.91182" lon="3.8958">
        <ele>142.89</ele>
        <time>2021-08-08T09:27:08Z</time>
      </trkpt>
      <trkpt lat="49.91167" lon="3.89547">
        <ele>140.01</ele>
        <time>2021-08-08T09:27:11Z</time>
      </trkpt>
      <trkpt lat="49.91161" lon="3.89538">
        <ele>139.05</ele>
        <time>2021-08-08T09:27:12Z</time>
      </trkpt>
      <trkpt lat="49.91155" lon="3.89531">
        <ele>138.57</ele>
        <time>2021-08-08T09:27:13Z</time>
      </trkpt>
      <trkpt lat="49.91147" lon="3.89525">
        <ele>138.09</ele>
        <time>2021-08-08T09:27:14Z</time>
      </trkpt>
      <trkpt lat="49.91138" lon="3.89522">
        <ele>138.09</ele>
        <time>2021-08-08T09:27:15Z</time>
      </trkpt>
      <trkpt lat="49.91129" lon="3.89522">
        <ele>137.13</ele>
        <time>2021-08-08T09:27:16Z</time>
      </trkpt>
      <trkpt lat="49.9112" lon="3.89524">
        <ele>135.68</ele>
        <time>2021-08-08T09:27:17Z</time>
      </trkpt>
      <trkpt lat="49.91111" lon="3.89528">
        <ele>134.72</ele>
        <time>2021-08-08T09:27:18Z</time>
      </trkpt>
      <trkpt lat="49.91101" lon="3.89532">
        <ele>134.72</ele>
        <time>2021-08-08T09:27:19Z</time>
      </trkpt>
      <trkpt lat="49.91076" lon="3.89539">
        <ele>132.32</ele>
        <time>2021-08-08T09:27:22Z</time>
      </trkpt>
      <trkpt lat="49.91067" lon="3.89538">
        <ele>131.84</ele>
        <time>2021-08-08T09:27:23Z</time>
      </trkpt>
      <trkpt lat="49.91058" lon="3.89536">
        <ele>131.84</ele>
        <time>2021-08-08T09:27:24Z</time>
      </trkpt>
      <trkpt lat="49.91049" lon="3.89531">
        <ele>131.84</ele>
        <time>2021-08-08T09:27:25Z</time>
      </trkpt>
      <trkpt lat="49.91041" lon="3.89527">
        <ele>130.88</ele>
        <time>2021-08-08T09:27:26Z</time>
      </trkpt>
      <trkpt lat="49.90978" lon="3.89501">
        <ele>127.51</ele>
        <time>2021-08-08T09:27:33Z</time>
      </trkpt>
      <trkpt lat="49.90969" lon="3.89498">
        <ele>127.51</ele>
        <time>2021-08-08T09:27:34Z</time>
      </trkpt>
      <trkpt lat="49.90902" lon="3.89477">
        <ele>125.11</ele>
        <time>2021-08-08T09:27:42Z</time>
      </trkpt>
      <trkpt lat="49.90849" lon="3.89469">
        <ele>124.15</ele>
        <time>2021-08-08T09:27:49Z</time>
      </trkpt>
      <trkpt lat="49.90818" lon="3.89463">
        <ele>124.15</ele>
        <time>2021-08-08T09:27:54Z</time>
      </trkpt>
      <trkpt lat="49.90806" lon="3.89461">
        <ele>124.15</ele>
        <time>2021-08-08T09:27:56Z</time>
      </trkpt>
      <trkpt lat="49.90792" lon="3.89456">
        <ele>124.15</ele>
        <time>2021-08-08T09:27:59Z</time>
      </trkpt>
      <trkpt lat="49.90779" lon="3.89448">
        <ele>123.67</ele>
        <time>2021-08-08T09:28:02Z</time>
      </trkpt>
      <trkpt lat="49.90775" lon="3.89443">
        <ele>123.67</ele>
        <time>2021-08-08T09:28:03Z</time>
      </trkpt>
      <trkpt lat="49.90771" lon="3.89437">
        <ele>123.67</ele>
        <time>2021-08-08T09:28:04Z</time>
      </trkpt>
      <trkpt lat="49.90767" lon="3.8943">
        <ele>123.67</ele>
        <time>2021-08-08T09:28:05Z</time>
      </trkpt>
      <trkpt lat="49.90765" lon="3.89421">
        <ele>123.67</ele>
        <time>2021-08-08T09:28:06Z</time>
      </trkpt>
      <trkpt lat="49.90763" lon="3.89413">
        <ele>123.67</ele>
        <time>2021-08-08T09:28:07Z</time>
      </trkpt>
      <trkpt lat="49.90762" lon="3.89404">
        <ele>123.67</ele>
        <time>2021-08-08T09:28:08Z</time>
      </trkpt>
      <trkpt lat="49.90761" lon="3.89395">
        <ele>122.22</ele>
        <time>2021-08-08T09:28:09Z</time>
      </trkpt>
      <trkpt lat="49.9076" lon="3.89386">
        <ele>122.22</ele>
        <time>2021-08-08T09:28:10Z</time>
      </trkpt>
      <trkpt lat="49.90753" lon="3.89312">
        <ele>123.67</ele>
        <time>2021-08-08T09:28:19Z</time>
      </trkpt>
      <trkpt lat="49.90749" lon="3.89259">
        <ele>123.67</ele>
        <time>2021-08-08T09:28:26Z</time>
      </trkpt>
      <trkpt lat="49.90748" lon="3.8925">
        <ele>122.22</ele>
        <time>2021-08-08T09:28:27Z</time>
      </trkpt>
      <trkpt lat="49.90747" lon="3.89241">
        <ele>122.22</ele>
        <time>2021-08-08T09:28:28Z</time>
      </trkpt>
      <trkpt lat="49.90746" lon="3.89232">
        <ele>122.22</ele>
        <time>2021-08-08T09:28:29Z</time>
      </trkpt>
      <trkpt lat="49.90747" lon="3.89195">
        <ele>123.19</ele>
        <time>2021-08-08T09:28:35Z</time>
      </trkpt>
      <trkpt lat="49.90749" lon="3.89192">
        <ele>123.19</ele>
        <time>2021-08-08T09:28:36Z</time>
      </trkpt>
      <trkpt lat="49.90752" lon="3.89192">
        <ele>123.19</ele>
        <time>2021-08-08T09:28:37Z</time>
      </trkpt>
      <trkpt lat="49.90756" lon="3.89194">
        <ele>123.19</ele>
        <time>2021-08-08T09:28:38Z</time>
      </trkpt>
      <trkpt lat="49.90759" lon="3.89196">
        <ele>123.19</ele>
        <time>2021-08-08T09:28:39Z</time>
      </trkpt>
      <trkpt lat="49.90789" lon="3.89207">
        <ele>123.67</ele>
        <time>2021-08-08T09:28:46Z</time>
      </trkpt>
      <trkpt lat="49.90829" lon="3.8922">
        <ele>123.19</ele>
        <time>2021-08-08T09:28:54Z</time>
      </trkpt>
      <trkpt lat="49.90866" lon="3.89225">
        <ele>123.67</ele>
        <time>2021-08-08T09:29:02Z</time>
      </trkpt>
      <trkpt lat="49.90884" lon="3.89221">
        <ele>124.15</ele>
        <time>2021-08-08T09:29:06Z</time>
      </trkpt>
      <trkpt lat="49.90887" lon="3.89219">
        <ele>124.15</ele>
        <time>2021-08-08T09:29:07Z</time>
      </trkpt>
      <trkpt lat="49.90892" lon="3.89216">
        <ele>124.15</ele>
        <time>2021-08-08T09:29:08Z</time>
      </trkpt>
      <trkpt lat="49.90927" lon="3.89197">
        <ele>125.59</ele>
        <time>2021-08-08T09:29:17Z</time>
      </trkpt>
      <trkpt lat="49.90956" lon="3.89182">
        <ele>126.07</ele>
        <time>2021-08-08T09:29:25Z</time>
      </trkpt>
      <trkpt lat="49.9096" lon="3.89181">
        <ele>126.07</ele>
        <time>2021-08-08T09:29:26Z</time>
      </trkpt>
      <trkpt lat="49.90977" lon="3.89177">
        <ele>126.55</ele>
        <time>2021-08-08T09:29:30Z</time>
      </trkpt>
      <trkpt lat="49.91011" lon="3.89173">
        <ele>127.03</ele>
        <time>2021-08-08T09:29:38Z</time>
      </trkpt>
      <trkpt lat="49.91015" lon="3.89172">
        <ele>127.03</ele>
        <time>2021-08-08T09:29:39Z</time>
      </trkpt>
      <trkpt lat="49.91053" lon="3.89143">
        <ele>127.99</ele>
        <time>2021-08-08T09:29:49Z</time>
      </trkpt>
      <trkpt lat="49.91056" lon="3.89138">
        <ele>127.99</ele>
        <time>2021-08-08T09:29:50Z</time>
      </trkpt>
      <trkpt lat="49.91086" lon="3.89096">
        <ele>129.92</ele>
        <time>2021-08-08T09:30:00Z</time>
      </trkpt>
      <trkpt lat="49.91107" lon="3.89093">
        <ele>130.4</ele>
        <time>2021-08-08T09:30:06Z</time>
      </trkpt>
      <trkpt lat="49.91131" lon="3.8909">
        <ele>131.36</ele>
        <time>2021-08-08T09:30:13Z</time>
      </trkpt>
      <trkpt lat="49.91166" lon="3.89086">
        <ele>133.28</ele>
        <time>2021-08-08T09:30:24Z</time>
      </trkpt>
      <trkpt lat="49.91184" lon="3.89071">
        <ele>135.2</ele>
        <time>2021-08-08T09:30:33Z</time>
      </trkpt>
      <trkpt lat="49.91193" lon="3.89045">
        <ele>136.64</ele>
        <time>2021-08-08T09:30:42Z</time>
      </trkpt>
      <trkpt lat="49.91198" lon="3.89016">
        <ele>139.05</ele>
        <time>2021-08-08T09:30:51Z</time>
      </trkpt>
      <trkpt lat="49.91202" lon="3.88987">
        <ele>139.53</ele>
        <time>2021-08-08T09:31:00Z</time>
      </trkpt>
      <trkpt lat="49.91203" lon="3.88955">
        <ele>141.45</ele>
        <time>2021-08-08T09:31:10Z</time>
      </trkpt>
      <trkpt lat="49.91204" lon="3.88931">
        <ele>142.89</ele>
        <time>2021-08-08T09:31:18Z</time>
      </trkpt>
      <trkpt lat="49.9121" lon="3.88904">
        <ele>144.34</ele>
        <time>2021-08-08T09:31:27Z</time>
      </trkpt>
      <trkpt lat="49.91216" lon="3.88883">
        <ele>145.3</ele>
        <time>2021-08-08T09:31:35Z</time>
      </trkpt>
      <trkpt lat="49.91222" lon="3.88858">
        <ele>147.22</ele>
        <time>2021-08-08T09:31:44Z</time>
      </trkpt>
      <trkpt lat="49.91229" lon="3.88838">
        <ele>148.18</ele>
        <time>2021-08-08T09:31:52Z</time>
      </trkpt>
      <trkpt lat="49.91238" lon="3.88813">
        <ele>150.1</ele>
        <time>2021-08-08T09:32:01Z</time>
      </trkpt>
      <trkpt lat="49.91255" lon="3.88793">
        <ele>150.58</ele>
        <time>2021-08-08T09:32:10Z</time>
      </trkpt>
      <trkpt lat="49.9128" lon="3.88774">
        <ele>152.51</ele>
        <time>2021-08-08T09:32:20Z</time>
      </trkpt>
      <trkpt lat="49.91293" lon="3.88749">
        <ele>152.99</ele>
        <time>2021-08-08T09:32:27Z</time>
      </trkpt>
      <trkpt lat="49.91292" lon="3.88713">
        <ele>152.99</ele>
        <time>2021-08-08T09:32:34Z</time>
      </trkpt>
      <trkpt lat="49.91282" lon="3.88661">
        <ele>152.99</ele>
        <time>2021-08-08T09:32:43Z</time>
      </trkpt>
      <trkpt lat="49.91279" lon="3.88642">
        <ele>152.99</ele>
        <time>2021-08-08T09:32:46Z</time>
      </trkpt>
      <trkpt lat="49.91279" lon="3.88629">
        <ele>152.03</ele>
        <time>2021-08-08T09:32:48Z</time>
      </trkpt>
      <trkpt lat="49.9128" lon="3.88623">
        <ele>152.03</ele>
        <time>2021-08-08T09:32:49Z</time>
      </trkpt>
      <trkpt lat="49.91281" lon="3.88617">
        <ele>152.03</ele>
        <time>2021-08-08T09:32:50Z</time>
      </trkpt>
      <trkpt lat="49.91283" lon="3.8861">
        <ele>152.03</ele>
        <time>2021-08-08T09:32:51Z</time>
      </trkpt>
      <trkpt lat="49.91284" lon="3.88605">
        <ele>152.03</ele>
        <time>2021-08-08T09:32:52Z</time>
      </trkpt>
      <trkpt lat="49.91286" lon="3.886">
        <ele>152.03</ele>
        <time>2021-08-08T09:32:53Z</time>
      </trkpt>
      <trkpt lat="49.91289" lon="3.88594">
        <ele>152.03</ele>
        <time>2021-08-08T09:32:54Z</time>
      </trkpt>
      <trkpt lat="49.91299" lon="3.88573">
        <ele>153.47</ele>
        <time>2021-08-08T09:32:58Z</time>
      </trkpt>
      <trkpt lat="49.91302" lon="3.88569">
        <ele>154.43</ele>
        <time>2021-08-08T09:32:59Z</time>
      </trkpt>
      <trkpt lat="49.91329" lon="3.88518">
        <ele>153.95</ele>
        <time>2021-08-08T09:33:10Z</time>
      </trkpt>
      <trkpt lat="49.91343" lon="3.88473">
        <ele>154.43</ele>
        <time>2021-08-08T09:33:19Z</time>
      </trkpt>
      <trkpt lat="49.91345" lon="3.88447">
        <ele>155.39</ele>
        <time>2021-08-08T09:33:24Z</time>
      </trkpt>
      <trkpt lat="49.9134" lon="3.88421">
        <ele>155.87</ele>
        <time>2021-08-08T09:33:29Z</time>
      </trkpt>
      <trkpt lat="49.91324" lon="3.88409">
        <ele>156.83</ele>
        <time>2021-08-08T09:33:34Z</time>
      </trkpt>
      <trkpt lat="49.91297" lon="3.88402">
        <ele>156.83</ele>
        <time>2021-08-08T09:33:41Z</time>
      </trkpt>
      <trkpt lat="49.91293" lon="3.884">
        <ele>156.83</ele>
        <time>2021-08-08T09:33:42Z</time>
      </trkpt>
      <trkpt lat="49.91289" lon="3.88397">
        <ele>156.83</ele>
        <time>2021-08-08T09:33:43Z</time>
      </trkpt>
      <trkpt lat="49.91286" lon="3.88394">
        <ele>156.83</ele>
        <time>2021-08-08T09:33:44Z</time>
      </trkpt>
      <trkpt lat="49.91283" lon="3.8839">
        <ele>156.83</ele>
        <time>2021-08-08T09:33:45Z</time>
      </trkpt>
      <trkpt lat="49.9128" lon="3.88385">
        <ele>156.83</ele>
        <time>2021-08-08T09:33:46Z</time>
      </trkpt>
      <trkpt lat="49.91278" lon="3.88379">
        <ele>157.31</ele>
        <time>2021-08-08T09:33:47Z</time>
      </trkpt>
      <trkpt lat="49.91276" lon="3.88373">
        <ele>157.31</ele>
        <time>2021-08-08T09:33:48Z</time>
      </trkpt>
      <trkpt lat="49.91275" lon="3.88367">
        <ele>157.31</ele>
        <time>2021-08-08T09:33:49Z</time>
      </trkpt>
      <trkpt lat="49.91265" lon="3.88326">
        <ele>157.31</ele>
        <time>2021-08-08T09:33:55Z</time>
      </trkpt>
      <trkpt lat="49.91247" lon="3.88255">
        <ele>154.91</ele>
        <time>2021-08-08T09:34:05Z</time>
      </trkpt>
      <trkpt lat="49.91219" lon="3.88176">
        <ele>153.95</ele>
        <time>2021-08-08T09:34:16Z</time>
      </trkpt>
      <trkpt lat="49.91209" lon="3.88123">
        <ele>153.95</ele>
        <time>2021-08-08T09:34:23Z</time>
      </trkpt>
      <trkpt lat="49.91203" lon="3.8805">
        <ele>155.39</ele>
        <time>2021-08-08T09:34:33Z</time>
      </trkpt>
      <trkpt lat="49.91198" lon="3.8798">
        <ele>155.39</ele>
        <time>2021-08-08T09:34:42Z</time>
      </trkpt>
      <trkpt lat="49.91196" lon="3.87948">
        <ele>153.95</ele>
        <time>2021-08-08T09:34:46Z</time>
      </trkpt>
      <trkpt lat="49.9119" lon="3.87879">
        <ele>152.51</ele>
        <time>2021-08-08T09:34:54Z</time>
      </trkpt>
      <trkpt lat="49.91186" lon="3.87824">
        <ele>150.58</ele>
        <time>2021-08-08T09:35:00Z</time>
      </trkpt>
      <trkpt lat="49.91181" lon="3.87754">
        <ele>149.14</ele>
        <time>2021-08-08T09:35:07Z</time>
      </trkpt>
      <trkpt lat="49.91177" lon="3.87711">
        <ele>147.7</ele>
        <time>2021-08-08T09:35:11Z</time>
      </trkpt>
      <trkpt lat="49.91174" lon="3.87699">
        <ele>147.7</ele>
        <time>2021-08-08T09:35:12Z</time>
      </trkpt>
      <trkpt lat="49.91155" lon="3.87633">
        <ele>143.85</ele>
        <time>2021-08-08T09:35:18Z</time>
      </trkpt>
      <trkpt lat="49.91148" lon="3.87611">
        <ele>142.89</ele>
        <time>2021-08-08T09:35:20Z</time>
      </trkpt>
      <trkpt lat="49.91134" lon="3.87565">
        <ele>141.45</ele>
        <time>2021-08-08T09:35:24Z</time>
      </trkpt>
      <trkpt lat="49.91132" lon="3.87554">
        <ele>141.45</ele>
        <time>2021-08-08T09:35:25Z</time>
      </trkpt>
      <trkpt lat="49.91131" lon="3.87541">
        <ele>140.49</ele>
        <time>2021-08-08T09:35:26Z</time>
      </trkpt>
      <trkpt lat="49.91132" lon="3.87533">
        <ele>140.01</ele>
        <time>2021-08-08T09:35:27Z</time>
      </trkpt>
      <trkpt lat="49.91134" lon="3.87524">
        <ele>140.01</ele>
        <time>2021-08-08T09:35:28Z</time>
      </trkpt>
      <trkpt lat="49.91138" lon="3.87517">
        <ele>139.53</ele>
        <time>2021-08-08T09:35:29Z</time>
      </trkpt>
      <trkpt lat="49.91144" lon="3.87511">
        <ele>139.05</ele>
        <time>2021-08-08T09:35:30Z</time>
      </trkpt>
      <trkpt lat="49.9115" lon="3.87508">
        <ele>138.57</ele>
        <time>2021-08-08T09:35:31Z</time>
      </trkpt>
      <trkpt lat="49.91157" lon="3.87508">
        <ele>137.61</ele>
        <time>2021-08-08T09:35:32Z</time>
      </trkpt>
      <trkpt lat="49.91164" lon="3.87509">
        <ele>137.61</ele>
        <time>2021-08-08T09:35:33Z</time>
      </trkpt>
      <trkpt lat="49.9119" lon="3.87515">
        <ele>136.64</ele>
        <time>2021-08-08T09:35:36Z</time>
      </trkpt>
      <trkpt lat="49.91217" lon="3.87504">
        <ele>134.24</ele>
        <time>2021-08-08T09:35:40Z</time>
      </trkpt>
      <trkpt lat="49.91223" lon="3.87481">
        <ele>133.76</ele>
        <time>2021-08-08T09:35:42Z</time>
      </trkpt>
      <trkpt lat="49.91223" lon="3.8747">
        <ele>132.8</ele>
        <time>2021-08-08T09:35:43Z</time>
      </trkpt>
      <trkpt lat="49.91222" lon="3.8746">
        <ele>132.32</ele>
        <time>2021-08-08T09:35:44Z</time>
      </trkpt>
      <trkpt lat="49.91219" lon="3.87449">
        <ele>132.32</ele>
        <time>2021-08-08T09:35:45Z</time>
      </trkpt>
      <trkpt lat="49.91214" lon="3.8744">
        <ele>131.84</ele>
        <time>2021-08-08T09:35:46Z</time>
      </trkpt>
      <trkpt lat="49.91208" lon="3.8743">
        <ele>131.36</ele>
        <time>2021-08-08T09:35:47Z</time>
      </trkpt>
      <trkpt lat="49.91203" lon="3.87423">
        <ele>130.4</ele>
        <time>2021-08-08T09:35:48Z</time>
      </trkpt>
      <trkpt lat="49.91197" lon="3.87413">
        <ele>129.92</ele>
        <time>2021-08-08T09:35:49Z</time>
      </trkpt>
      <trkpt lat="49.91192" lon="3.87406">
        <ele>130.4</ele>
        <time>2021-08-08T09:35:50Z</time>
      </trkpt>
      <trkpt lat="49.91167" lon="3.87372">
        <ele>128.47</ele>
        <time>2021-08-08T09:35:54Z</time>
      </trkpt>
      <trkpt lat="49.91133" lon="3.87308">
        <ele>128.47</ele>
        <time>2021-08-08T09:36:01Z</time>
      </trkpt>
      <trkpt lat="49.9113" lon="3.87299">
        <ele>128.47</ele>
        <time>2021-08-08T09:36:02Z</time>
      </trkpt>
      <trkpt lat="49.91129" lon="3.8729">
        <ele>128.47</ele>
        <time>2021-08-08T09:36:03Z</time>
      </trkpt>
      <trkpt lat="49.91128" lon="3.87281">
        <ele>128.47</ele>
        <time>2021-08-08T09:36:04Z</time>
      </trkpt>
      <trkpt lat="49.91127" lon="3.87271">
        <ele>128.47</ele>
        <time>2021-08-08T09:36:05Z</time>
      </trkpt>
      <trkpt lat="49.91129" lon="3.87262">
        <ele>128.47</ele>
        <time>2021-08-08T09:36:06Z</time>
      </trkpt>
      <trkpt lat="49.9113" lon="3.87253">
        <ele>129.92</ele>
        <time>2021-08-08T09:36:07Z</time>
      </trkpt>
      <trkpt lat="49.91131" lon="3.87244">
        <ele>129.92</ele>
        <time>2021-08-08T09:36:08Z</time>
      </trkpt>
      <trkpt lat="49.91133" lon="3.87235">
        <ele>129.92</ele>
        <time>2021-08-08T09:36:09Z</time>
      </trkpt>
      <trkpt lat="49.91136" lon="3.87228">
        <ele>130.4</ele>
        <time>2021-08-08T09:36:10Z</time>
      </trkpt>
      <trkpt lat="49.91151" lon="3.87184">
        <ele>130.88</ele>
        <time>2021-08-08T09:36:17Z</time>
      </trkpt>
      <trkpt lat="49.91162" lon="3.87158">
        <ele>130.88</ele>
        <time>2021-08-08T09:36:22Z</time>
      </trkpt>
      <trkpt lat="49.91172" lon="3.87129">
        <ele>131.84</ele>
        <time>2021-08-08T09:36:28Z</time>
      </trkpt>
      <trkpt lat="49.91181" lon="3.87083">
        <ele>132.32</ele>
        <time>2021-08-08T09:36:37Z</time>
      </trkpt>
      <trkpt lat="49.91185" lon="3.87043">
        <ele>132.8</ele>
        <time>2021-08-08T09:36:45Z</time>
      </trkpt>
      <trkpt lat="49.91187" lon="3.8701">
        <ele>133.28</ele>
        <time>2021-08-08T09:36:51Z</time>
      </trkpt>
      <trkpt lat="49.9119" lon="3.86975">
        <ele>134.72</ele>
        <time>2021-08-08T09:36:58Z</time>
      </trkpt>
      <trkpt lat="49.91195" lon="3.86935">
        <ele>135.2</ele>
        <time>2021-08-08T09:37:06Z</time>
      </trkpt>
      <trkpt lat="49.91199" lon="3.86905">
        <ele>135.68</ele>
        <time>2021-08-08T09:37:12Z</time>
      </trkpt>
      <trkpt lat="49.91207" lon="3.86865">
        <ele>135.68</ele>
        <time>2021-08-08T09:37:19Z</time>
      </trkpt>
      <trkpt lat="49.91226" lon="3.86822">
        <ele>136.16</ele>
        <time>2021-08-08T09:37:28Z</time>
      </trkpt>
      <trkpt lat="49.91245" lon="3.86786">
        <ele>136.64</ele>
        <time>2021-08-08T09:37:36Z</time>
      </trkpt>
      <trkpt lat="49.91264" lon="3.86751">
        <ele>137.13</ele>
        <time>2021-08-08T09:37:44Z</time>
      </trkpt>
      <trkpt lat="49.91279" lon="3.86724">
        <ele>137.61</ele>
        <time>2021-08-08T09:37:51Z</time>
      </trkpt>
      <trkpt lat="49.91297" lon="3.8669">
        <ele>138.09</ele>
        <time>2021-08-08T09:37:59Z</time>
      </trkpt>
      <trkpt lat="49.91312" lon="3.86661">
        <ele>139.05</ele>
        <time>2021-08-08T09:38:06Z</time>
      </trkpt>
      <trkpt lat="49.91327" lon="3.86635">
        <ele>139.05</ele>
        <time>2021-08-08T09:38:13Z</time>
      </trkpt>
      <trkpt lat="49.91345" lon="3.86606">
        <ele>139.53</ele>
        <time>2021-08-08T09:38:21Z</time>
      </trkpt>
      <trkpt lat="49.91359" lon="3.86583">
        <ele>139.53</ele>
        <time>2021-08-08T09:38:27Z</time>
      </trkpt>
      <trkpt lat="49.91376" lon="3.86543">
        <ele>140.01</ele>
        <time>2021-08-08T09:38:34Z</time>
      </trkpt>
      <trkpt lat="49.91388" lon="3.86508">
        <ele>140.01</ele>
        <time>2021-08-08T09:38:40Z</time>
      </trkpt>
      <trkpt lat="49.91399" lon="3.8646">
        <ele>140.01</ele>
        <time>2021-08-08T09:38:47Z</time>
      </trkpt>
      <trkpt lat="49.914" lon="3.86446">
        <ele>138.57</ele>
        <time>2021-08-08T09:38:49Z</time>
      </trkpt>
      <trkpt lat="49.91402" lon="3.86423">
        <ele>138.09</ele>
        <time>2021-08-08T09:38:52Z</time>
      </trkpt>
      <trkpt lat="49.91403" lon="3.86415">
        <ele>137.61</ele>
        <time>2021-08-08T09:38:53Z</time>
      </trkpt>
      <trkpt lat="49.91404" lon="3.86391">
        <ele>137.61</ele>
        <time>2021-08-08T09:38:56Z</time>
      </trkpt>
      <trkpt lat="49.9141" lon="3.86319">
        <ele>134.72</ele>
        <time>2021-08-08T09:39:04Z</time>
      </trkpt>
      <trkpt lat="49.91411" lon="3.8631">
        <ele>134.72</ele>
        <time>2021-08-08T09:39:05Z</time>
      </trkpt>
      <trkpt lat="49.91418" lon="3.86233">
        <ele>133.28</ele>
        <time>2021-08-08T09:39:13Z</time>
      </trkpt>
      <trkpt lat="49.91423" lon="3.86183">
        <ele>131.84</ele>
        <time>2021-08-08T09:39:18Z</time>
      </trkpt>
      <trkpt lat="49.9143" lon="3.86104">
        <ele>128.95</ele>
        <time>2021-08-08T09:39:26Z</time>
      </trkpt>
      <trkpt lat="49.91433" lon="3.86053">
        <ele>128.47</ele>
        <time>2021-08-08T09:39:31Z</time>
      </trkpt>
      <trkpt lat="49.9143" lon="3.8598">
        <ele>128.47</ele>
        <time>2021-08-08T09:39:39Z</time>
      </trkpt>
      <trkpt lat="49.91427" lon="3.85963">
        <ele>128.47</ele>
        <time>2021-08-08T09:39:41Z</time>
      </trkpt>
      <trkpt lat="49.91425" lon="3.85946">
        <ele>128.47</ele>
        <time>2021-08-08T09:39:43Z</time>
      </trkpt>
      <trkpt lat="49.91423" lon="3.8593">
        <ele>128.47</ele>
        <time>2021-08-08T09:39:45Z</time>
      </trkpt>
      <trkpt lat="49.91421" lon="3.85887">
        <ele>129.92</ele>
        <time>2021-08-08T09:39:50Z</time>
      </trkpt>
      <trkpt lat="49.91418" lon="3.85817">
        <ele>128.47</ele>
        <time>2021-08-08T09:39:58Z</time>
      </trkpt>
      <trkpt lat="49.91416" lon="3.85746">
        <ele>127.99</ele>
        <time>2021-08-08T09:40:06Z</time>
      </trkpt>
      <trkpt lat="49.91415" lon="3.85704">
        <ele>126.55</ele>
        <time>2021-08-08T09:40:11Z</time>
      </trkpt>
      <trkpt lat="49.91415" lon="3.85695">
        <ele>126.07</ele>
        <time>2021-08-08T09:40:12Z</time>
      </trkpt>
      <trkpt lat="49.91414" lon="3.8568">
        <ele>127.51</ele>
        <time>2021-08-08T09:40:14Z</time>
      </trkpt>
      <trkpt lat="49.91414" lon="3.85673">
        <ele>127.51</ele>
        <time>2021-08-08T09:40:15Z</time>
      </trkpt>
      <trkpt lat="49.91414" lon="3.85664">
        <ele>127.51</ele>
        <time>2021-08-08T09:40:16Z</time>
      </trkpt>
      <trkpt lat="49.91411" lon="3.85618">
        <ele>127.51</ele>
        <time>2021-08-08T09:40:23Z</time>
      </trkpt>
      <trkpt lat="49.91408" lon="3.85615">
        <ele>127.51</ele>
        <time>2021-08-08T09:40:24Z</time>
      </trkpt>
      <trkpt lat="49.91405" lon="3.85614">
        <ele>126.07</ele>
        <time>2021-08-08T09:40:25Z</time>
      </trkpt>
      <trkpt lat="49.91401" lon="3.85615">
        <ele>126.07</ele>
        <time>2021-08-08T09:40:26Z</time>
      </trkpt>
      <trkpt lat="49.91395" lon="3.85617">
        <ele>125.11</ele>
        <time>2021-08-08T09:40:27Z</time>
      </trkpt>
      <trkpt lat="49.91389" lon="3.85618">
        <ele>124.63</ele>
        <time>2021-08-08T09:40:28Z</time>
      </trkpt>
      <trkpt lat="49.91376" lon="3.8562">
        <ele>123.67</ele>
        <time>2021-08-08T09:40:30Z</time>
      </trkpt>
      <trkpt lat="49.91355" lon="3.85623">
        <ele>122.22</ele>
        <time>2021-08-08T09:40:33Z</time>
      </trkpt>
      <trkpt lat="49.91291" lon="3.85631">
        <ele>120.3</ele>
        <time>2021-08-08T09:40:42Z</time>
      </trkpt>
      <trkpt lat="49.91237" lon="3.8564">
        <ele>118.38</ele>
        <time>2021-08-08T09:40:50Z</time>
      </trkpt>
      <trkpt lat="49.91189" lon="3.85647">
        <ele>117.42</ele>
        <time>2021-08-08T09:40:58Z</time>
      </trkpt>
      <trkpt lat="49.91126" lon="3.85655">
        <ele>117.42</ele>
        <time>2021-08-08T09:41:09Z</time>
      </trkpt>
      <trkpt lat="49.91088" lon="3.8566">
        <ele>117.42</ele>
        <time>2021-08-08T09:41:17Z</time>
      </trkpt>
      <trkpt lat="49.91041" lon="3.85666">
        <ele>116.94</ele>
        <time>2021-08-08T09:41:27Z</time>
      </trkpt>
      <trkpt lat="49.91026" lon="3.85667">
        <ele>118.38</ele>
        <time>2021-08-08T09:41:30Z</time>
      </trkpt>
      <trkpt lat="49.90981" lon="3.85673">
        <ele>118.38</ele>
        <time>2021-08-08T09:41:39Z</time>
      </trkpt>
      <trkpt lat="49.90942" lon="3.85678">
        <ele>116.94</ele>
        <time>2021-08-08T09:41:47Z</time>
      </trkpt>
      <trkpt lat="49.90882" lon="3.85689">
        <ele>116.94</ele>
        <time>2021-08-08T09:41:59Z</time>
      </trkpt>
      <trkpt lat="49.90836" lon="3.85698">
        <ele>116.94</ele>
        <time>2021-08-08T09:42:08Z</time>
      </trkpt>
      <trkpt lat="49.90797" lon="3.85707">
        <ele>116.94</ele>
        <time>2021-08-08T09:42:16Z</time>
      </trkpt>
      <trkpt lat="49.90791" lon="3.85708">
        <ele>116.94</ele>
        <time>2021-08-08T09:42:17Z</time>
      </trkpt>
      <trkpt lat="49.9074" lon="3.85719">
        <ele>116.94</ele>
        <time>2021-08-08T09:42:27Z</time>
      </trkpt>
      <trkpt lat="49.90702" lon="3.85729">
        <ele>116.94</ele>
        <time>2021-08-08T09:42:35Z</time>
      </trkpt>
      <trkpt lat="49.90694" lon="3.8573">
        <ele>118.38</ele>
        <time>2021-08-08T09:42:37Z</time>
      </trkpt>
      <trkpt lat="49.90662" lon="3.85733">
        <ele>118.86</ele>
        <time>2021-08-08T09:42:45Z</time>
      </trkpt>
      <trkpt lat="49.90658" lon="3.8573">
        <ele>118.86</ele>
        <time>2021-08-08T09:42:47Z</time>
      </trkpt>
      <trkpt lat="49.90657" lon="3.85708">
        <ele>119.34</ele>
        <time>2021-08-08T09:42:53Z</time>
      </trkpt>
      <trkpt lat="49.90655" lon="3.85685">
        <ele>119.82</ele>
        <time>2021-08-08T09:43:00Z</time>
      </trkpt>
      <trkpt lat="49.90655" lon="3.85685">
        <ele>119.82</ele>
        <time>2021-08-08T09:43:08Z</time>
      </trkpt>
      <trkpt lat="49.90655" lon="3.85684">
        <ele>119.82</ele>
        <time>2021-08-08T09:43:15Z</time>
      </trkpt>
      <trkpt lat="49.90655" lon="3.85684">
        <ele>119.82</ele>
        <time>2021-08-08T09:43:20Z</time>
      </trkpt>
      <trkpt lat="49.90655" lon="3.85683">
        <ele>119.82</ele>
        <time>2021-08-08T09:43:21Z</time>
      </trkpt>
      <trkpt lat="49.90653" lon="3.8567">
        <ele>117.9</ele>
        <time>2021-08-08T09:43:27Z</time>
      </trkpt>
      <trkpt lat="49.90648" lon="3.85677">
        <ele>117.9</ele>
        <time>2021-08-08T09:43:31Z</time>
      </trkpt>
      <trkpt lat="49.90647" lon="3.85686">
        <ele>117.9</ele>
        <time>2021-08-08T09:43:39Z</time>
      </trkpt>
      <trkpt lat="49.90645" lon="3.85687">
        <ele>117.9</ele>
        <time>2021-08-08T09:43:57Z</time>
      </trkpt>
      <trkpt lat="49.90646" lon="3.85686">
        <ele>117.9</ele>
        <time>2021-08-08T09:44:18Z</time>
      </trkpt>
      <trkpt lat="49.90645" lon="3.85689">
        <ele>117.9</ele>
        <time>2021-08-08T09:44:41Z</time>
      </trkpt>
      <trkpt lat="49.90645" lon="3.85689">
        <ele>117.9</ele>
        <time>2021-08-08T09:45:06Z</time>
      </trkpt>
      <trkpt lat="49.90645" lon="3.85688">
        <ele>117.9</ele>
        <time>2021-08-08T09:45:24Z</time>
      </trkpt>
      <trkpt lat="49.90644" lon="3.85688">
        <ele>117.9</ele>
        <time>2021-08-08T09:45:40Z</time>
      </trkpt>
      <trkpt lat="49.90645" lon="3.85689">
        <ele>118.38</ele>
        <time>2021-08-08T09:46:02Z</time>
      </trkpt>
      <trkpt lat="49.90645" lon="3.85689">
        <ele>118.38</ele>
        <time>2021-08-08T09:46:20Z</time>
      </trkpt>
      <trkpt lat="49.90645" lon="3.85689">
        <ele>118.38</ele>
        <time>2021-08-08T09:46:36Z</time>
      </trkpt>
      <trkpt lat="49.90645" lon="3.85687">
        <ele>118.38</ele>
        <time>2021-08-08T09:46:56Z</time>
      </trkpt>
      <trkpt lat="49.90645" lon="3.85685">
        <ele>118.38</ele>
        <time>2021-08-08T09:47:19Z</time>
      </trkpt>
      <trkpt lat="49.90645" lon="3.85685">
        <ele>119.82</ele>
        <time>2021-08-08T09:47:31Z</time>
      </trkpt>
      <trkpt lat="49.90646" lon="3.85687">
        <ele>119.82</ele>
        <time>2021-08-08T09:47:51Z</time>
      </trkpt>
      <trkpt lat="49.90646" lon="3.85687">
        <ele>119.82</ele>
        <time>2021-08-08T09:48:13Z</time>
      </trkpt>
      <trkpt lat="49.90645" lon="3.85687">
        <ele>119.82</ele>
        <time>2021-08-08T09:48:34Z</time>
      </trkpt>
      <trkpt lat="49.90645" lon="3.85686">
        <ele>119.82</ele>
        <time>2021-08-08T09:48:40Z</time>
      </trkpt>
      <trkpt lat="49.90645" lon="3.85688">
        <ele>119.82</ele>
        <time>2021-08-08T09:48:46Z</time>
      </trkpt>
      <trkpt lat="49.90644" lon="3.85689">
        <ele>119.82</ele>
        <time>2021-08-08T09:49:04Z</time>
      </trkpt>
      <trkpt lat="49.90643" lon="3.8569">
        <ele>119.82</ele>
        <time>2021-08-08T09:49:19Z</time>
      </trkpt>
      <trkpt lat="49.90643" lon="3.8569">
        <ele>119.82</ele>
        <time>2021-08-08T09:49:30Z</time>
      </trkpt>
      <trkpt lat="49.90643" lon="3.85689">
        <ele>119.82</ele>
        <time>2021-08-08T09:49:44Z</time>
      </trkpt>
      <trkpt lat="49.90644" lon="3.85689">
        <ele>120.3</ele>
        <time>2021-08-08T09:50:00Z</time>
      </trkpt>
      <trkpt lat="49.90644" lon="3.85687">
        <ele>120.3</ele>
        <time>2021-08-08T09:50:21Z</time>
      </trkpt>
      <trkpt lat="49.90644" lon="3.85687">
        <ele>118.86</ele>
        <time>2021-08-08T09:50:24Z</time>
      </trkpt>
      <trkpt lat="49.90645" lon="3.85687">
        <ele>119.34</ele>
        <time>2021-08-08T09:50:43Z</time>
      </trkpt>
      <trkpt lat="49.90645" lon="3.85687">
        <ele>119.34</ele>
        <time>2021-08-08T09:50:56Z</time>
      </trkpt>
      <trkpt lat="49.90645" lon="3.8569">
        <ele>119.34</ele>
        <time>2021-08-08T09:51:11Z</time>
      </trkpt>
      <trkpt lat="49.90645" lon="3.85689">
        <ele>119.34</ele>
        <time>2021-08-08T09:51:28Z</time>
      </trkpt>
      <trkpt lat="49.90644" lon="3.85689">
        <ele>119.34</ele>
        <time>2021-08-08T09:51:43Z</time>
      </trkpt>
      <trkpt lat="49.90644" lon="3.85688">
        <ele>119.34</ele>
        <time>2021-08-08T09:51:56Z</time>
      </trkpt>
      <trkpt lat="49.90644" lon="3.85688">
        <ele>118.86</ele>
        <time>2021-08-08T09:52:09Z</time>
      </trkpt>
      <trkpt lat="49.90644" lon="3.85688">
        <ele>120.3</ele>
        <time>2021-08-08T09:52:11Z</time>
      </trkpt>
      <trkpt lat="49.90644" lon="3.85689">
        <ele>120.3</ele>
        <time>2021-08-08T09:52:32Z</time>
      </trkpt>
      <trkpt lat="49.90644" lon="3.85688">
        <ele>120.3</ele>
        <time>2021-08-08T09:52:46Z</time>
      </trkpt>
      <trkpt lat="49.90643" lon="3.85688">
        <ele>120.3</ele>
        <time>2021-08-08T09:53:04Z</time>
      </trkpt>
      <trkpt lat="49.90643" lon="3.85688">
        <ele>120.3</ele>
        <time>2021-08-08T09:53:17Z</time>
      </trkpt>
      <trkpt lat="49.90643" lon="3.8569">
        <ele>120.3</ele>
        <time>2021-08-08T09:53:24Z</time>
      </trkpt>
      <trkpt lat="49.90644" lon="3.85688">
        <ele>120.3</ele>
        <time>2021-08-08T09:53:42Z</time>
      </trkpt>
      <trkpt lat="49.90644" lon="3.85685">
        <ele>120.78</ele>
        <time>2021-08-08T09:54:07Z</time>
      </trkpt>
      <trkpt lat="49.90644" lon="3.85684">
        <ele>120.78</ele>
        <time>2021-08-08T09:54:26Z</time>
      </trkpt>
      <trkpt lat="49.90645" lon="3.85687">
        <ele>120.78</ele>
        <time>2021-08-08T09:54:45Z</time>
      </trkpt>
      <trkpt lat="49.90646" lon="3.85686">
        <ele>119.34</ele>
        <time>2021-08-08T09:55:00Z</time>
      </trkpt>
      <trkpt lat="49.90645" lon="3.85687">
        <ele>119.34</ele>
        <time>2021-08-08T09:55:22Z</time>
      </trkpt>
      <trkpt lat="49.90645" lon="3.85686">
        <ele>119.34</ele>
        <time>2021-08-08T09:55:36Z</time>
      </trkpt>
      <trkpt lat="49.90644" lon="3.85685">
        <ele>119.34</ele>
        <time>2021-08-08T09:55:58Z</time>
      </trkpt>
      <trkpt lat="49.90643" lon="3.85683">
        <ele>119.34</ele>
        <time>2021-08-08T09:56:22Z</time>
      </trkpt>
      <trkpt lat="49.90645" lon="3.85683">
        <ele>119.82</ele>
        <time>2021-08-08T09:56:45Z</time>
      </trkpt>
      <trkpt lat="49.90645" lon="3.85682">
        <ele>119.82</ele>
        <time>2021-08-08T09:57:03Z</time>
      </trkpt>
      <trkpt lat="49.90645" lon="3.85683">
        <ele>121.26</ele>
        <time>2021-08-08T09:57:18Z</time>
      </trkpt>
      <trkpt lat="49.90645" lon="3.85684">
        <ele>119.82</ele>
        <time>2021-08-08T09:57:23Z</time>
      </trkpt>
      <trkpt lat="49.90645" lon="3.85683">
        <ele>119.82</ele>
        <time>2021-08-08T09:57:39Z</time>
      </trkpt>
      <trkpt lat="49.90644" lon="3.85683">
        <ele>119.82</ele>
        <time>2021-08-08T09:57:55Z</time>
      </trkpt>
      <trkpt lat="49.90645" lon="3.85684">
        <ele>119.82</ele>
        <time>2021-08-08T09:58:13Z</time>
      </trkpt>
      <trkpt lat="49.90647" lon="3.85684">
        <ele>119.34</ele>
        <time>2021-08-08T09:58:22Z</time>
      </trkpt>
      <trkpt lat="49.90648" lon="3.85686">
        <ele>119.34</ele>
        <time>2021-08-08T09:58:42Z</time>
      </trkpt>
      <trkpt lat="49.90646" lon="3.85686">
        <ele>120.3</ele>
        <time>2021-08-08T09:59:03Z</time>
      </trkpt>
      <trkpt lat="49.90646" lon="3.85685">
        <ele>120.78</ele>
        <time>2021-08-08T09:59:23Z</time>
      </trkpt>
      <trkpt lat="49.90646" lon="3.85686">
        <ele>120.78</ele>
        <time>2021-08-08T09:59:43Z</time>
      </trkpt>
      <trkpt lat="49.90647" lon="3.85687">
        <ele>120.78</ele>
        <time>2021-08-08T10:00:04Z</time>
      </trkpt>
      <trkpt lat="49.90647" lon="3.85687">
        <ele>119.34</ele>
        <time>2021-08-08T10:00:24Z</time>
      </trkpt>
      <trkpt lat="49.90647" lon="3.85686">
        <ele>119.34</ele>
        <time>2021-08-08T10:00:40Z</time>
      </trkpt>
      <trkpt lat="49.90645" lon="3.85687">
        <ele>119.34</ele>
        <time>2021-08-08T10:00:58Z</time>
      </trkpt>
      <trkpt lat="49.90645" lon="3.85687">
        <ele>119.34</ele>
        <time>2021-08-08T10:01:17Z</time>
      </trkpt>
      <trkpt lat="49.90645" lon="3.85686">
        <ele>119.34</ele>
        <time>2021-08-08T10:01:34Z</time>
      </trkpt>
      <trkpt lat="49.90645" lon="3.85685">
        <ele>119.34</ele>
        <time>2021-08-08T10:01:48Z</time>
      </trkpt>
      <trkpt lat="49.90647" lon="3.85684">
        <ele>119.34</ele>
        <time>2021-08-08T10:02:10Z</time>
      </trkpt>
      <trkpt lat="49.90647" lon="3.85684">
        <ele>119.34</ele>
        <time>2021-08-08T10:02:28Z</time>
      </trkpt>
      <trkpt lat="49.90648" lon="3.85684">
        <ele>119.82</ele>
        <time>2021-08-08T10:02:41Z</time>
      </trkpt>
      <trkpt lat="49.90649" lon="3.85683">
        <ele>119.82</ele>
        <time>2021-08-08T10:02:57Z</time>
      </trkpt>
      <trkpt lat="49.90648" lon="3.85683">
        <ele>119.82</ele>
        <time>2021-08-08T10:03:12Z</time>
      </trkpt>
      <trkpt lat="49.90647" lon="3.85686">
        <ele>119.82</ele>
        <time>2021-08-08T10:03:29Z</time>
      </trkpt>
      <trkpt lat="49.90647" lon="3.85685">
        <ele>120.78</ele>
        <time>2021-08-08T10:03:46Z</time>
      </trkpt>
      <trkpt lat="49.90647" lon="3.85683">
        <ele>120.78</ele>
        <time>2021-08-08T10:04:04Z</time>
      </trkpt>
      <trkpt lat="49.90647" lon="3.85685">
        <ele>120.78</ele>
        <time>2021-08-08T10:04:23Z</time>
      </trkpt>
      <trkpt lat="49.90647" lon="3.85685">
        <ele>120.78</ele>
        <time>2021-08-08T10:04:33Z</time>
      </trkpt>
      <trkpt lat="49.90647" lon="3.85685">
        <ele>120.78</ele>
        <time>2021-08-08T10:04:47Z</time>
      </trkpt>
      <trkpt lat="49.90646" lon="3.85684">
        <ele>119.34</ele>
        <time>2021-08-08T10:05:00Z</time>
      </trkpt>
      <trkpt lat="49.90646" lon="3.85684">
        <ele>119.34</ele>
        <time>2021-08-08T10:05:17Z</time>
      </trkpt>
      <trkpt lat="49.90646" lon="3.85683">
        <ele>119.34</ele>
        <time>2021-08-08T10:05:37Z</time>
      </trkpt>
      <trkpt lat="49.90646" lon="3.85684">
        <ele>119.34</ele>
        <time>2021-08-08T10:05:55Z</time>
      </trkpt>
      <trkpt lat="49.90647" lon="3.85682">
        <ele>119.34</ele>
        <time>2021-08-08T10:06:07Z</time>
      </trkpt>
      <trkpt lat="49.90647" lon="3.85684">
        <ele>119.34</ele>
        <time>2021-08-08T10:06:26Z</time>
      </trkpt>
      <trkpt lat="49.90647" lon="3.85684">
        <ele>119.34</ele>
        <time>2021-08-08T10:06:46Z</time>
      </trkpt>
      <trkpt lat="49.90648" lon="3.85685">
        <ele>119.34</ele>
        <time>2021-08-08T10:07:06Z</time>
      </trkpt>
      <trkpt lat="49.90649" lon="3.85683">
        <ele>119.34</ele>
        <time>2021-08-08T10:07:23Z</time>
      </trkpt>
      <trkpt lat="49.90648" lon="3.85684">
        <ele>120.78</ele>
        <time>2021-08-08T10:07:43Z</time>
      </trkpt>
      <trkpt lat="49.90648" lon="3.85684">
        <ele>119.34</ele>
        <time>2021-08-08T10:07:48Z</time>
      </trkpt>
      <trkpt lat="49.90647" lon="3.85684">
        <ele>119.82</ele>
        <time>2021-08-08T10:07:54Z</time>
      </trkpt>
      <trkpt lat="49.90647" lon="3.85686">
        <ele>121.26</ele>
        <time>2021-08-08T10:08:10Z</time>
      </trkpt>
      <trkpt lat="49.90647" lon="3.85687">
        <ele>121.26</ele>
        <time>2021-08-08T10:08:29Z</time>
      </trkpt>
      <trkpt lat="49.90647" lon="3.85686">
        <ele>121.26</ele>
        <time>2021-08-08T10:08:43Z</time>
      </trkpt>
      <trkpt lat="49.90648" lon="3.85686">
        <ele>119.82</ele>
        <time>2021-08-08T10:09:01Z</time>
      </trkpt>
      <trkpt lat="49.90649" lon="3.85687">
        <ele>119.82</ele>
        <time>2021-08-08T10:09:19Z</time>
      </trkpt>
      <trkpt lat="49.9065" lon="3.85687">
        <ele>119.34</ele>
        <time>2021-08-08T10:09:42Z</time>
      </trkpt>
      <trkpt lat="49.90649" lon="3.85687">
        <ele>120.78</ele>
        <time>2021-08-08T10:10:01Z</time>
      </trkpt>
      <trkpt lat="49.9065" lon="3.85687">
        <ele>120.3</ele>
        <time>2021-08-08T10:10:22Z</time>
      </trkpt>
      <trkpt lat="49.9065" lon="3.85687">
        <ele>120.3</ele>
        <time>2021-08-08T10:10:41Z</time>
      </trkpt>
      <trkpt lat="49.90649" lon="3.85688">
        <ele>120.3</ele>
        <time>2021-08-08T10:10:55Z</time>
      </trkpt>
      <trkpt lat="49.90649" lon="3.85687">
        <ele>119.34</ele>
        <time>2021-08-08T10:11:11Z</time>
      </trkpt>
      <trkpt lat="49.90648" lon="3.85687">
        <ele>120.78</ele>
        <time>2021-08-08T10:11:28Z</time>
      </trkpt>
      <trkpt lat="49.90646" lon="3.85686">
        <ele>119.82</ele>
        <time>2021-08-08T10:11:46Z</time>
      </trkpt>
      <trkpt lat="49.90646" lon="3.85687">
        <ele>119.82</ele>
        <time>2021-08-08T10:12:09Z</time>
      </trkpt>
      <trkpt lat="49.90647" lon="3.85686">
        <ele>119.82</ele>
        <time>2021-08-08T10:12:30Z</time>
      </trkpt>
      <trkpt lat="49.90647" lon="3.85684">
        <ele>119.82</ele>
        <time>2021-08-08T10:12:51Z</time>
      </trkpt>
      <trkpt lat="49.90648" lon="3.85685">
        <ele>119.82</ele>
        <time>2021-08-08T10:13:18Z</time>
      </trkpt>
      <trkpt lat="49.90648" lon="3.85685">
        <ele>119.82</ele>
        <time>2021-08-08T10:13:40Z</time>
      </trkpt>
      <trkpt lat="49.90648" lon="3.85685">
        <ele>119.82</ele>
        <time>2021-08-08T10:13:58Z</time>
      </trkpt>
      <trkpt lat="49.90647" lon="3.85685">
        <ele>119.82</ele>
        <time>2021-08-08T10:14:17Z</time>
      </trkpt>
      <trkpt lat="49.90647" lon="3.85685">
        <ele>119.82</ele>
        <time>2021-08-08T10:14:39Z</time>
      </trkpt>
      <trkpt lat="49.90647" lon="3.85685">
        <ele>119.82</ele>
        <time>2021-08-08T10:15:01Z</time>
      </trkpt>
      <trkpt lat="49.90646" lon="3.85684">
        <ele>119.82</ele>
        <time>2021-08-08T10:15:23Z</time>
      </trkpt>
      <trkpt lat="49.90644" lon="3.85684">
        <ele>119.82</ele>
        <time>2021-08-08T10:15:42Z</time>
      </trkpt>
      <trkpt lat="49.90644" lon="3.85686">
        <ele>119.82</ele>
        <time>2021-08-08T10:16:04Z</time>
      </trkpt>
      <trkpt lat="49.90645" lon="3.85685">
        <ele>119.82</ele>
        <time>2021-08-08T10:16:25Z</time>
      </trkpt>
      <trkpt lat="49.90645" lon="3.85686">
        <ele>119.82</ele>
        <time>2021-08-08T10:16:50Z</time>
      </trkpt>
      <trkpt lat="49.90645" lon="3.85686">
        <ele>119.82</ele>
        <time>2021-08-08T10:17:07Z</time>
      </trkpt>
      <trkpt lat="49.90646" lon="3.85686">
        <ele>119.82</ele>
        <time>2021-08-08T10:17:28Z</time>
      </trkpt>
      <trkpt lat="49.90646" lon="3.85687">
        <ele>120.3</ele>
        <time>2021-08-08T10:17:50Z</time>
      </trkpt>
      <trkpt lat="49.90646" lon="3.85686">
        <ele>120.3</ele>
        <time>2021-08-08T10:18:08Z</time>
      </trkpt>
      <trkpt lat="49.90644" lon="3.85686">
        <ele>120.3</ele>
        <time>2021-08-08T10:18:30Z</time>
      </trkpt>
      <trkpt lat="49.90645" lon="3.85687">
        <ele>120.3</ele>
        <time>2021-08-08T10:18:52Z</time>
      </trkpt>
      <trkpt lat="49.90646" lon="3.85684">
        <ele>119.82</ele>
        <time>2021-08-08T10:19:07Z</time>
      </trkpt>
      <trkpt lat="49.90646" lon="3.85685">
        <ele>120.78</ele>
        <time>2021-08-08T10:19:26Z</time>
      </trkpt>
      <trkpt lat="49.90646" lon="3.85685">
        <ele>120.78</ele>
        <time>2021-08-08T10:19:33Z</time>
      </trkpt>
      <trkpt lat="49.90646" lon="3.85684">
        <ele>120.78</ele>
        <time>2021-08-08T10:19:55Z</time>
      </trkpt>
      <trkpt lat="49.90644" lon="3.85684">
        <ele>120.3</ele>
        <time>2021-08-08T10:20:09Z</time>
      </trkpt>
      <trkpt lat="49.90645" lon="3.85685">
        <ele>119.82</ele>
        <time>2021-08-08T10:20:29Z</time>
      </trkpt>
      <trkpt lat="49.90645" lon="3.85684">
        <ele>121.26</ele>
        <time>2021-08-08T10:20:50Z</time>
      </trkpt>
      <trkpt lat="49.90645" lon="3.85683">
        <ele>121.26</ele>
        <time>2021-08-08T10:21:14Z</time>
      </trkpt>
      <trkpt lat="49.90646" lon="3.85683">
        <ele>121.26</ele>
        <time>2021-08-08T10:21:33Z</time>
      </trkpt>
      <trkpt lat="49.90645" lon="3.85684">
        <ele>121.26</ele>
        <time>2021-08-08T10:21:55Z</time>
      </trkpt>
      <trkpt lat="49.90646" lon="3.85685">
        <ele>121.74</ele>
        <time>2021-08-08T10:22:12Z</time>
      </trkpt>
      <trkpt lat="49.90643" lon="3.85685">
        <ele>121.74</ele>
        <time>2021-08-08T10:22:32Z</time>
      </trkpt>
      <trkpt lat="49.90643" lon="3.85687">
        <ele>121.74</ele>
        <time>2021-08-08T10:22:49Z</time>
      </trkpt>
      <trkpt lat="49.90644" lon="3.85688">
        <ele>121.74</ele>
        <time>2021-08-08T10:23:02Z</time>
      </trkpt>
      <trkpt lat="49.90644" lon="3.85688">
        <ele>121.74</ele>
        <time>2021-08-08T10:23:16Z</time>
      </trkpt>
      <trkpt lat="49.90644" lon="3.85688">
        <ele>121.74</ele>
        <time>2021-08-08T10:23:33Z</time>
      </trkpt>
      <trkpt lat="49.90643" lon="3.85689">
        <ele>121.74</ele>
        <time>2021-08-08T10:23:47Z</time>
      </trkpt>
      <trkpt lat="49.90642" lon="3.85688">
        <ele>121.74</ele>
        <time>2021-08-08T10:24:04Z</time>
      </trkpt>
      <trkpt lat="49.90643" lon="3.85687">
        <ele>122.22</ele>
        <time>2021-08-08T10:24:23Z</time>
      </trkpt>
      <trkpt lat="49.90645" lon="3.85686">
        <ele>122.22</ele>
        <time>2021-08-08T10:24:37Z</time>
      </trkpt>
      <trkpt lat="49.90645" lon="3.85685">
        <ele>122.22</ele>
        <time>2021-08-08T10:24:54Z</time>
      </trkpt>
      <trkpt lat="49.90647" lon="3.85685">
        <ele>122.22</ele>
        <time>2021-08-08T10:25:06Z</time>
      </trkpt>
      <trkpt lat="49.90647" lon="3.85685">
        <ele>122.22</ele>
        <time>2021-08-08T10:25:21Z</time>
      </trkpt>
      <trkpt lat="49.90648" lon="3.85685">
        <ele>122.22</ele>
        <time>2021-08-08T10:25:30Z</time>
      </trkpt>
      <trkpt lat="49.90647" lon="3.85685">
        <ele>122.22</ele>
        <time>2021-08-08T10:25:45Z</time>
      </trkpt>
      <trkpt lat="49.90647" lon="3.85686">
        <ele>122.22</ele>
        <time>2021-08-08T10:25:54Z</time>
      </trkpt>
      <trkpt lat="49.90648" lon="3.85688">
        <ele>122.22</ele>
        <time>2021-08-08T10:26:02Z</time>
      </trkpt>
      <trkpt lat="49.90648" lon="3.85689">
        <ele>120.78</ele>
        <time>2021-08-08T10:26:11Z</time>
      </trkpt>
      <trkpt lat="49.90648" lon="3.85689">
        <ele>120.3</ele>
        <time>2021-08-08T10:26:22Z</time>
      </trkpt>
      <trkpt lat="49.90647" lon="3.85692">
        <ele>120.3</ele>
        <time>2021-08-08T10:26:26Z</time>
      </trkpt>
      <trkpt lat="49.9065" lon="3.85701">
        <ele>122.22</ele>
        <time>2021-08-08T10:26:33Z</time>
      </trkpt>
      <trkpt lat="49.90652" lon="3.8571">
        <ele>122.71</ele>
        <time>2021-08-08T10:26:40Z</time>
      </trkpt>
      <trkpt lat="49.90653" lon="3.85729">
        <ele>122.71</ele>
        <time>2021-08-08T10:26:46Z</time>
      </trkpt>
      <trkpt lat="49.90647" lon="3.85733">
        <ele>122.71</ele>
        <time>2021-08-08T10:26:50Z</time>
      </trkpt>
      <trkpt lat="49.90644" lon="3.85732">
        <ele>122.71</ele>
        <time>2021-08-08T10:26:51Z</time>
      </trkpt>
      <trkpt lat="49.90642" lon="3.8573">
        <ele>122.71</ele>
        <time>2021-08-08T10:26:52Z</time>
      </trkpt>
      <trkpt lat="49.9064" lon="3.85728">
        <ele>123.19</ele>
        <time>2021-08-08T10:26:53Z</time>
      </trkpt>
      <trkpt lat="49.90614" lon="3.85713">
        <ele>123.19</ele>
        <time>2021-08-08T10:27:03Z</time>
      </trkpt>
      <trkpt lat="49.90595" lon="3.85709">
        <ele>123.19</ele>
        <time>2021-08-08T10:27:10Z</time>
      </trkpt>
      <trkpt lat="49.90594" lon="3.85711">
        <ele>123.19</ele>
        <time>2021-08-08T10:27:11Z</time>
      </trkpt>
      <trkpt lat="49.90587" lon="3.85723">
        <ele>123.19</ele>
        <time>2021-08-08T10:27:16Z</time>
      </trkpt>
      <trkpt lat="49.90585" lon="3.85724">
        <ele>123.19</ele>
        <time>2021-08-08T10:27:22Z</time>
      </trkpt>
      <trkpt lat="49.90585" lon="3.85725">
        <ele>123.19</ele>
        <time>2021-08-08T10:27:30Z</time>
      </trkpt>
      <trkpt lat="49.90586" lon="3.85723">
        <ele>123.19</ele>
        <time>2021-08-08T10:27:44Z</time>
      </trkpt>
      <trkpt lat="49.90588" lon="3.85726">
        <ele>123.19</ele>
        <time>2021-08-08T10:27:51Z</time>
      </trkpt>
      <trkpt lat="49.90589" lon="3.85726">
        <ele>123.19</ele>
        <time>2021-08-08T10:27:52Z</time>
      </trkpt>
      <trkpt lat="49.9059" lon="3.85725">
        <ele>123.19</ele>
        <time>2021-08-08T10:27:53Z</time>
      </trkpt>
      <trkpt lat="49.90592" lon="3.85723">
        <ele>123.19</ele>
        <time>2021-08-08T10:27:54Z</time>
      </trkpt>
      <trkpt lat="49.90593" lon="3.85721">
        <ele>123.19</ele>
        <time>2021-08-08T10:27:55Z</time>
      </trkpt>
      <trkpt lat="49.90593" lon="3.85718">
        <ele>123.19</ele>
        <time>2021-08-08T10:27:56Z</time>
      </trkpt>
      <trkpt lat="49.90593" lon="3.85715">
        <ele>123.19</ele>
        <time>2021-08-08T10:27:57Z</time>
      </trkpt>
      <trkpt lat="49.90592" lon="3.85712">
        <ele>123.19</ele>
        <time>2021-08-08T10:27:58Z</time>
      </trkpt>
      <trkpt lat="49.90592" lon="3.8571">
        <ele>123.19</ele>
        <time>2021-08-08T10:27:59Z</time>
      </trkpt>
      <trkpt lat="49.9059" lon="3.85708">
        <ele>123.19</ele>
        <time>2021-08-08T10:28:00Z</time>
      </trkpt>
      <trkpt lat="49.90589" lon="3.85707">
        <ele>123.19</ele>
        <time>2021-08-08T10:28:01Z</time>
      </trkpt>
      <trkpt lat="49.90588" lon="3.85707">
        <ele>123.67</ele>
        <time>2021-08-08T10:28:02Z</time>
      </trkpt>
      <trkpt lat="49.90587" lon="3.85706">
        <ele>123.67</ele>
        <time>2021-08-08T10:28:03Z</time>
      </trkpt>
      <trkpt lat="49.90583" lon="3.85704">
        <ele>123.67</ele>
        <time>2021-08-08T10:28:07Z</time>
      </trkpt>
      <trkpt lat="49.90582" lon="3.85706">
        <ele>123.67</ele>
        <time>2021-08-08T10:28:08Z</time>
      </trkpt>
      <trkpt lat="49.90581" lon="3.85708">
        <ele>123.67</ele>
        <time>2021-08-08T10:28:09Z</time>
      </trkpt>
      <trkpt lat="49.90581" lon="3.8571">
        <ele>123.67</ele>
        <time>2021-08-08T10:28:10Z</time>
      </trkpt>
      <trkpt lat="49.90579" lon="3.85714">
        <ele>123.67</ele>
        <time>2021-08-08T10:28:16Z</time>
      </trkpt>
      <trkpt lat="49.90578" lon="3.8572">
        <ele>123.67</ele>
        <time>2021-08-08T10:28:32Z</time>
      </trkpt>
      <trkpt lat="49.90577" lon="3.85739">
        <ele>123.67</ele>
        <time>2021-08-08T10:28:37Z</time>
      </trkpt>
      <trkpt lat="49.90572" lon="3.8578">
        <ele>123.67</ele>
        <time>2021-08-08T10:28:46Z</time>
      </trkpt>
      <trkpt lat="49.90563" lon="3.85826">
        <ele>123.67</ele>
        <time>2021-08-08T10:28:55Z</time>
      </trkpt>
      <trkpt lat="49.9055" lon="3.85875">
        <ele>123.67</ele>
        <time>2021-08-08T10:29:04Z</time>
      </trkpt>
      <trkpt lat="49.90538" lon="3.85909">
        <ele>123.67</ele>
        <time>2021-08-08T10:29:11Z</time>
      </trkpt>
      <trkpt lat="49.90522" lon="3.85945">
        <ele>124.15</ele>
        <time>2021-08-08T10:29:18Z</time>
      </trkpt>
      <trkpt lat="49.90501" lon="3.8598">
        <ele>124.63</ele>
        <time>2021-08-08T10:29:26Z</time>
      </trkpt>
      <trkpt lat="49.90483" lon="3.8601">
        <ele>124.63</ele>
        <time>2021-08-08T10:29:32Z</time>
      </trkpt>
      <trkpt lat="49.90463" lon="3.86044">
        <ele>125.11</ele>
        <time>2021-08-08T10:29:39Z</time>
      </trkpt>
      <trkpt lat="49.90444" lon="3.86083">
        <ele>125.11</ele>
        <time>2021-08-08T10:29:47Z</time>
      </trkpt>
      <trkpt lat="49.90428" lon="3.86122">
        <ele>125.11</ele>
        <time>2021-08-08T10:29:54Z</time>
      </trkpt>
      <trkpt lat="49.9041" lon="3.86188">
        <ele>126.07</ele>
        <time>2021-08-08T10:30:05Z</time>
      </trkpt>
      <trkpt lat="49.90399" lon="3.86234">
        <ele>126.07</ele>
        <time>2021-08-08T10:30:13Z</time>
      </trkpt>
      <trkpt lat="49.90386" lon="3.86291">
        <ele>126.07</ele>
        <time>2021-08-08T10:30:22Z</time>
      </trkpt>
      <trkpt lat="49.90374" lon="3.8634">
        <ele>126.07</ele>
        <time>2021-08-08T10:30:30Z</time>
      </trkpt>
      <trkpt lat="49.90357" lon="3.86405">
        <ele>126.07</ele>
        <time>2021-08-08T10:30:41Z</time>
      </trkpt>
      <trkpt lat="49.9034" lon="3.86471">
        <ele>126.55</ele>
        <time>2021-08-08T10:30:52Z</time>
      </trkpt>
      <trkpt lat="49.90325" lon="3.86533">
        <ele>126.55</ele>
        <time>2021-08-08T10:31:02Z</time>
      </trkpt>
      <trkpt lat="49.90309" lon="3.86594">
        <ele>127.03</ele>
        <time>2021-08-08T10:31:12Z</time>
      </trkpt>
      <trkpt lat="49.90291" lon="3.86662">
        <ele>127.03</ele>
        <time>2021-08-08T10:31:23Z</time>
      </trkpt>
      <trkpt lat="49.90273" lon="3.86739">
        <ele>127.51</ele>
        <time>2021-08-08T10:31:35Z</time>
      </trkpt>
      <trkpt lat="49.90257" lon="3.86797">
        <ele>127.99</ele>
        <time>2021-08-08T10:31:44Z</time>
      </trkpt>
      <trkpt lat="49.90237" lon="3.86875">
        <ele>127.99</ele>
        <time>2021-08-08T10:31:56Z</time>
      </trkpt>
      <trkpt lat="49.9022" lon="3.86942">
        <ele>128.47</ele>
        <time>2021-08-08T10:32:06Z</time>
      </trkpt>
      <trkpt lat="49.90204" lon="3.87001">
        <ele>127.03</ele>
        <time>2021-08-08T10:32:14Z</time>
      </trkpt>
      <trkpt lat="49.90189" lon="3.87052">
        <ele>126.55</ele>
        <time>2021-08-08T10:32:21Z</time>
      </trkpt>
      <trkpt lat="49.90167" lon="3.87109">
        <ele>126.07</ele>
        <time>2021-08-08T10:32:29Z</time>
      </trkpt>
      <trkpt lat="49.90134" lon="3.87177">
        <ele>125.11</ele>
        <time>2021-08-08T10:32:39Z</time>
      </trkpt>
      <trkpt lat="49.90103" lon="3.87235">
        <ele>124.63</ele>
        <time>2021-08-08T10:32:47Z</time>
      </trkpt>
      <trkpt lat="49.90072" lon="3.87294">
        <ele>123.67</ele>
        <time>2021-08-08T10:32:56Z</time>
      </trkpt>
      <trkpt lat="49.90056" lon="3.87336">
        <ele>123.67</ele>
        <time>2021-08-08T10:33:02Z</time>
      </trkpt>
      <trkpt lat="49.9005" lon="3.87356">
        <ele>123.67</ele>
        <time>2021-08-08T10:33:06Z</time>
      </trkpt>
      <trkpt lat="49.90049" lon="3.87358">
        <ele>124.15</ele>
        <time>2021-08-08T10:33:07Z</time>
      </trkpt>
      <trkpt lat="49.90047" lon="3.87358">
        <ele>125.11</ele>
        <time>2021-08-08T10:33:08Z</time>
      </trkpt>
      <trkpt lat="49.90046" lon="3.87358">
        <ele>125.11</ele>
        <time>2021-08-08T10:33:09Z</time>
      </trkpt>
      <trkpt lat="49.90038" lon="3.87359">
        <ele>128.47</ele>
        <time>2021-08-08T10:33:17Z</time>
      </trkpt>
      <trkpt lat="49.90034" lon="3.8736">
        <ele>129.43</ele>
        <time>2021-08-08T10:33:21Z</time>
      </trkpt>
      <trkpt lat="49.90027" lon="3.87359">
        <ele>131.36</ele>
        <time>2021-08-08T10:33:25Z</time>
      </trkpt>
      <trkpt lat="49.90026" lon="3.87358">
        <ele>132.32</ele>
        <time>2021-08-08T10:33:26Z</time>
      </trkpt>
      <trkpt lat="49.90026" lon="3.87356">
        <ele>132.32</ele>
        <time>2021-08-08T10:33:27Z</time>
      </trkpt>
      <trkpt lat="49.90019" lon="3.87347">
        <ele>132.8</ele>
        <time>2021-08-08T10:33:34Z</time>
      </trkpt>
      <trkpt lat="49.90018" lon="3.87346">
        <ele>132.8</ele>
        <time>2021-08-08T10:33:45Z</time>
      </trkpt>
      <trkpt lat="49.90018" lon="3.87346">
        <ele>132.8</ele>
        <time>2021-08-08T10:34:01Z</time>
      </trkpt>
      <trkpt lat="49.90017" lon="3.87346">
        <ele>132.8</ele>
        <time>2021-08-08T10:34:15Z</time>
      </trkpt>
      <trkpt lat="49.90015" lon="3.87344">
        <ele>132.8</ele>
        <time>2021-08-08T10:34:21Z</time>
      </trkpt>
      <trkpt lat="49.90014" lon="3.87344">
        <ele>132.8</ele>
        <time>2021-08-08T10:34:22Z</time>
      </trkpt>
      <trkpt lat="49.90013" lon="3.87343">
        <ele>132.8</ele>
        <time>2021-08-08T10:34:23Z</time>
      </trkpt>
      <trkpt lat="49.90012" lon="3.87343">
        <ele>132.8</ele>
        <time>2021-08-08T10:34:24Z</time>
      </trkpt>
      <trkpt lat="49.90011" lon="3.87343">
        <ele>133.76</ele>
        <time>2021-08-08T10:34:25Z</time>
      </trkpt>
      <trkpt lat="49.90009" lon="3.87342">
        <ele>133.76</ele>
        <time>2021-08-08T10:34:26Z</time>
      </trkpt>
      <trkpt lat="49.90008" lon="3.87341">
        <ele>133.76</ele>
        <time>2021-08-08T10:34:27Z</time>
      </trkpt>
      <trkpt lat="49.90007" lon="3.8734">
        <ele>134.72</ele>
        <time>2021-08-08T10:34:28Z</time>
      </trkpt>
      <trkpt lat="49.90006" lon="3.87339">
        <ele>134.24</ele>
        <time>2021-08-08T10:34:29Z</time>
      </trkpt>
      <trkpt lat="49.90004" lon="3.87338">
        <ele>134.24</ele>
        <time>2021-08-08T10:34:30Z</time>
      </trkpt>
      <trkpt lat="49.90003" lon="3.87337">
        <ele>134.72</ele>
        <time>2021-08-08T10:34:31Z</time>
      </trkpt>
      <trkpt lat="49.90001" lon="3.87336">
        <ele>135.2</ele>
        <time>2021-08-08T10:34:32Z</time>
      </trkpt>
      <trkpt lat="49.9" lon="3.87336">
        <ele>135.2</ele>
        <time>2021-08-08T10:34:33Z</time>
      </trkpt>
      <trkpt lat="49.89998" lon="3.87335">
        <ele>135.68</ele>
        <time>2021-08-08T10:34:34Z</time>
      </trkpt>
      <trkpt lat="49.89997" lon="3.87334">
        <ele>135.68</ele>
        <time>2021-08-08T10:34:35Z</time>
      </trkpt>
      <trkpt lat="49.89995" lon="3.87333">
        <ele>136.64</ele>
        <time>2021-08-08T10:34:36Z</time>
      </trkpt>
      <trkpt lat="49.89994" lon="3.87332">
        <ele>136.64</ele>
        <time>2021-08-08T10:34:37Z</time>
      </trkpt>
      <trkpt lat="49.89992" lon="3.87331">
        <ele>137.13</ele>
        <time>2021-08-08T10:34:38Z</time>
      </trkpt>
      <trkpt lat="49.89991" lon="3.8733">
        <ele>137.13</ele>
        <time>2021-08-08T10:34:39Z</time>
      </trkpt>
      <trkpt lat="49.89985" lon="3.87326">
        <ele>138.09</ele>
        <time>2021-08-08T10:34:43Z</time>
      </trkpt>
      <trkpt lat="49.89984" lon="3.87326">
        <ele>138.09</ele>
        <time>2021-08-08T10:34:44Z</time>
      </trkpt>
      <trkpt lat="49.89974" lon="3.87321">
        <ele>139.53</ele>
        <time>2021-08-08T10:34:51Z</time>
      </trkpt>
      <trkpt lat="49.89973" lon="3.87321">
        <ele>139.53</ele>
        <time>2021-08-08T10:34:52Z</time>
      </trkpt>
      <trkpt lat="49.89967" lon="3.8732">
        <ele>141.45</ele>
        <time>2021-08-08T10:34:58Z</time>
      </trkpt>
      <trkpt lat="49.89958" lon="3.87319">
        <ele>143.37</ele>
        <time>2021-08-08T10:35:06Z</time>
      </trkpt>
      <trkpt lat="49.8995" lon="3.87318">
        <ele>144.82</ele>
        <time>2021-08-08T10:35:13Z</time>
      </trkpt>
      <trkpt lat="49.89945" lon="3.87317">
        <ele>146.26</ele>
        <time>2021-08-08T10:35:17Z</time>
      </trkpt>
      <trkpt lat="49.89944" lon="3.87317">
        <ele>146.26</ele>
        <time>2021-08-08T10:35:18Z</time>
      </trkpt>
      <trkpt lat="49.8993" lon="3.87316">
        <ele>148.18</ele>
        <time>2021-08-08T10:35:29Z</time>
      </trkpt>
      <trkpt lat="49.89924" lon="3.87316">
        <ele>149.62</ele>
        <time>2021-08-08T10:35:34Z</time>
      </trkpt>
      <trkpt lat="49.89923" lon="3.87316">
        <ele>149.62</ele>
        <time>2021-08-08T10:35:35Z</time>
      </trkpt>
      <trkpt lat="49.89913" lon="3.87315">
        <ele>151.54</ele>
        <time>2021-08-08T10:35:43Z</time>
      </trkpt>
      <trkpt lat="49.89912" lon="3.87314">
        <ele>152.03</ele>
        <time>2021-08-08T10:35:44Z</time>
      </trkpt>
      <trkpt lat="49.89911" lon="3.87314">
        <ele>152.03</ele>
        <time>2021-08-08T10:35:45Z</time>
      </trkpt>
      <trkpt lat="49.8991" lon="3.87314">
        <ele>152.03</ele>
        <time>2021-08-08T10:35:46Z</time>
      </trkpt>
      <trkpt lat="49.89909" lon="3.87314">
        <ele>152.03</ele>
        <time>2021-08-08T10:35:47Z</time>
      </trkpt>
      <trkpt lat="49.89901" lon="3.87314">
        <ele>153.47</ele>
        <time>2021-08-08T10:35:54Z</time>
      </trkpt>
      <trkpt lat="49.89899" lon="3.87315">
        <ele>153.95</ele>
        <time>2021-08-08T10:35:56Z</time>
      </trkpt>
      <trkpt lat="49.89896" lon="3.87319">
        <ele>154.43</ele>
        <time>2021-08-08T10:35:59Z</time>
      </trkpt>
      <trkpt lat="49.89895" lon="3.87321">
        <ele>154.43</ele>
        <time>2021-08-08T10:36:00Z</time>
      </trkpt>
      <trkpt lat="49.89894" lon="3.87322">
        <ele>154.91</ele>
        <time>2021-08-08T10:36:01Z</time>
      </trkpt>
      <trkpt lat="49.89893" lon="3.87324">
        <ele>154.91</ele>
        <time>2021-08-08T10:36:02Z</time>
      </trkpt>
      <trkpt lat="49.89892" lon="3.87326">
        <ele>154.91</ele>
        <time>2021-08-08T10:36:03Z</time>
      </trkpt>
      <trkpt lat="49.89891" lon="3.87327">
        <ele>154.91</ele>
        <time>2021-08-08T10:36:04Z</time>
      </trkpt>
      <trkpt lat="49.8989" lon="3.87329">
        <ele>154.91</ele>
        <time>2021-08-08T10:36:05Z</time>
      </trkpt>
      <trkpt lat="49.89889" lon="3.8733">
        <ele>155.39</ele>
        <time>2021-08-08T10:36:06Z</time>
      </trkpt>
      <trkpt lat="49.89879" lon="3.87345">
        <ele>155.87</ele>
        <time>2021-08-08T10:36:15Z</time>
      </trkpt>
      <trkpt lat="49.89875" lon="3.8735">
        <ele>156.83</ele>
        <time>2021-08-08T10:36:18Z</time>
      </trkpt>
      <trkpt lat="49.89873" lon="3.87351">
        <ele>156.83</ele>
        <time>2021-08-08T10:36:19Z</time>
      </trkpt>
      <trkpt lat="49.89872" lon="3.87352">
        <ele>157.31</ele>
        <time>2021-08-08T10:36:20Z</time>
      </trkpt>
      <trkpt lat="49.89871" lon="3.87354">
        <ele>157.31</ele>
        <time>2021-08-08T10:36:21Z</time>
      </trkpt>
      <trkpt lat="49.89869" lon="3.87355">
        <ele>157.31</ele>
        <time>2021-08-08T10:36:22Z</time>
      </trkpt>
      <trkpt lat="49.89868" lon="3.87355">
        <ele>157.79</ele>
        <time>2021-08-08T10:36:23Z</time>
      </trkpt>
      <trkpt lat="49.89859" lon="3.87357">
        <ele>158.75</ele>
        <time>2021-08-08T10:36:30Z</time>
      </trkpt>
      <trkpt lat="49.89852" lon="3.87356">
        <ele>160.2</ele>
        <time>2021-08-08T10:36:36Z</time>
      </trkpt>
      <trkpt lat="49.8985" lon="3.87356">
        <ele>160.68</ele>
        <time>2021-08-08T10:36:38Z</time>
      </trkpt>
      <trkpt lat="49.89849" lon="3.87355">
        <ele>161.16</ele>
        <time>2021-08-08T10:36:39Z</time>
      </trkpt>
      <trkpt lat="49.89848" lon="3.87355">
        <ele>161.16</ele>
        <time>2021-08-08T10:36:40Z</time>
      </trkpt>
      <trkpt lat="49.89846" lon="3.87355">
        <ele>161.64</ele>
        <time>2021-08-08T10:36:41Z</time>
      </trkpt>
      <trkpt lat="49.89845" lon="3.87354">
        <ele>161.64</ele>
        <time>2021-08-08T10:36:42Z</time>
      </trkpt>
      <trkpt lat="49.89844" lon="3.87354">
        <ele>161.64</ele>
        <time>2021-08-08T10:36:43Z</time>
      </trkpt>
      <trkpt lat="49.89836" lon="3.87352">
        <ele>163.56</ele>
        <time>2021-08-08T10:36:50Z</time>
      </trkpt>
      <trkpt lat="49.89829" lon="3.8735">
        <ele>164.52</ele>
        <time>2021-08-08T10:36:57Z</time>
      </trkpt>
      <trkpt lat="49.89822" lon="3.8735">
        <ele>165.96</ele>
        <time>2021-08-08T10:37:04Z</time>
      </trkpt>
      <trkpt lat="49.89821" lon="3.87351">
        <ele>165.96</ele>
        <time>2021-08-08T10:37:05Z</time>
      </trkpt>
      <trkpt lat="49.8982" lon="3.87352">
        <ele>165.96</ele>
        <time>2021-08-08T10:37:06Z</time>
      </trkpt>
      <trkpt lat="49.89813" lon="3.87372">
        <ele>166.45</ele>
        <time>2021-08-08T10:37:15Z</time>
      </trkpt>
      <trkpt lat="49.89804" lon="3.87397">
        <ele>167.89</ele>
        <time>2021-08-08T10:37:23Z</time>
      </trkpt>
      <trkpt lat="49.898" lon="3.87411">
        <ele>168.37</ele>
        <time>2021-08-08T10:37:27Z</time>
      </trkpt>
      <trkpt lat="49.89799" lon="3.87414">
        <ele>168.37</ele>
        <time>2021-08-08T10:37:28Z</time>
      </trkpt>
      <trkpt lat="49.89798" lon="3.87417">
        <ele>168.37</ele>
        <time>2021-08-08T10:37:29Z</time>
      </trkpt>
      <trkpt lat="49.89797" lon="3.8742">
        <ele>168.37</ele>
        <time>2021-08-08T10:37:30Z</time>
      </trkpt>
      <trkpt lat="49.89797" lon="3.87424">
        <ele>168.37</ele>
        <time>2021-08-08T10:37:31Z</time>
      </trkpt>
      <trkpt lat="49.89796" lon="3.87428">
        <ele>168.37</ele>
        <time>2021-08-08T10:37:32Z</time>
      </trkpt>
      <trkpt lat="49.89795" lon="3.87439">
        <ele>168.37</ele>
        <time>2021-08-08T10:37:35Z</time>
      </trkpt>
      <trkpt lat="49.89791" lon="3.87449">
        <ele>168.85</ele>
        <time>2021-08-08T10:37:38Z</time>
      </trkpt>
      <trkpt lat="49.89783" lon="3.87473">
        <ele>169.33</ele>
        <time>2021-08-08T10:37:44Z</time>
      </trkpt>
      <trkpt lat="49.89778" lon="3.87504">
        <ele>169.33</ele>
        <time>2021-08-08T10:37:53Z</time>
      </trkpt>
      <trkpt lat="49.89774" lon="3.87528">
        <ele>170.77</ele>
        <time>2021-08-08T10:37:59Z</time>
      </trkpt>
      <trkpt lat="49.89768" lon="3.87561">
        <ele>171.73</ele>
        <time>2021-08-08T10:38:07Z</time>
      </trkpt>
      <trkpt lat="49.89768" lon="3.8759">
        <ele>172.69</ele>
        <time>2021-08-08T10:38:13Z</time>
      </trkpt>
      <trkpt lat="49.89765" lon="3.87615">
        <ele>173.17</ele>
        <time>2021-08-08T10:38:19Z</time>
      </trkpt>
      <trkpt lat="49.89761" lon="3.8763">
        <ele>175.1</ele>
        <time>2021-08-08T10:38:26Z</time>
      </trkpt>
      <trkpt lat="49.89758" lon="3.87637">
        <ele>175.58</ele>
        <time>2021-08-08T10:38:29Z</time>
      </trkpt>
      <trkpt lat="49.89756" lon="3.87639">
        <ele>175.58</ele>
        <time>2021-08-08T10:38:30Z</time>
      </trkpt>
      <trkpt lat="49.89754" lon="3.8764">
        <ele>175.58</ele>
        <time>2021-08-08T10:38:31Z</time>
      </trkpt>
      <trkpt lat="49.89751" lon="3.87642">
        <ele>176.06</ele>
        <time>2021-08-08T10:38:32Z</time>
      </trkpt>
      <trkpt lat="49.89749" lon="3.87644">
        <ele>176.54</ele>
        <time>2021-08-08T10:38:33Z</time>
      </trkpt>
      <trkpt lat="49.89748" lon="3.87645">
        <ele>176.54</ele>
        <time>2021-08-08T10:38:34Z</time>
      </trkpt>
      <trkpt lat="49.89745" lon="3.87647">
        <ele>177.02</ele>
        <time>2021-08-08T10:38:35Z</time>
      </trkpt>
      <trkpt lat="49.89735" lon="3.87664">
        <ele>178.94</ele>
        <time>2021-08-08T10:38:43Z</time>
      </trkpt>
      <trkpt lat="49.89732" lon="3.87678">
        <ele>179.9</ele>
        <time>2021-08-08T10:38:50Z</time>
      </trkpt>
      <trkpt lat="49.89725" lon="3.87698">
        <ele>180.38</ele>
        <time>2021-08-08T10:38:57Z</time>
      </trkpt>
      <trkpt lat="49.89722" lon="3.87715">
        <ele>181.35</ele>
        <time>2021-08-08T10:39:03Z</time>
      </trkpt>
      <trkpt lat="49.89722" lon="3.87731">
        <ele>181.35</ele>
        <time>2021-08-08T10:39:08Z</time>
      </trkpt>
      <trkpt lat="49.8972" lon="3.87758">
        <ele>181.35</ele>
        <time>2021-08-08T10:39:14Z</time>
      </trkpt>
      <trkpt lat="49.89715" lon="3.87816">
        <ele>181.83</ele>
        <time>2021-08-08T10:39:24Z</time>
      </trkpt>
      <trkpt lat="49.89709" lon="3.87856">
        <ele>182.31</ele>
        <time>2021-08-08T10:39:31Z</time>
      </trkpt>
      <trkpt lat="49.89692" lon="3.87894">
        <ele>183.27</ele>
        <time>2021-08-08T10:39:39Z</time>
      </trkpt>
      <trkpt lat="49.89675" lon="3.87932">
        <ele>184.71</ele>
        <time>2021-08-08T10:39:47Z</time>
      </trkpt>
      <trkpt lat="49.8966" lon="3.8796">
        <ele>185.67</ele>
        <time>2021-08-08T10:39:55Z</time>
      </trkpt>
      <trkpt lat="49.89643" lon="3.87991">
        <ele>186.15</ele>
        <time>2021-08-08T10:40:04Z</time>
      </trkpt>
      <trkpt lat="49.89622" lon="3.88029">
        <ele>187.11</ele>
        <time>2021-08-08T10:40:15Z</time>
      </trkpt>
      <trkpt lat="49.89601" lon="3.88066">
        <ele>187.59</ele>
        <time>2021-08-08T10:40:26Z</time>
      </trkpt>
      <trkpt lat="49.89575" lon="3.88099">
        <ele>189.52</ele>
        <time>2021-08-08T10:40:38Z</time>
      </trkpt>
      <trkpt lat="49.89557" lon="3.88123">
        <ele>190</ele>
        <time>2021-08-08T10:40:47Z</time>
      </trkpt>
      <trkpt lat="49.89543" lon="3.88145">
        <ele>191.44</ele>
        <time>2021-08-08T10:40:55Z</time>
      </trkpt>
      <trkpt lat="49.89532" lon="3.88171">
        <ele>192.4</ele>
        <time>2021-08-08T10:41:03Z</time>
      </trkpt>
      <trkpt lat="49.89522" lon="3.88199">
        <ele>192.88</ele>
        <time>2021-08-08T10:41:11Z</time>
      </trkpt>
      <trkpt lat="49.89512" lon="3.8823">
        <ele>193.84</ele>
        <time>2021-08-08T10:41:20Z</time>
      </trkpt>
      <trkpt lat="49.89501" lon="3.88267">
        <ele>194.32</ele>
        <time>2021-08-08T10:41:30Z</time>
      </trkpt>
      <trkpt lat="49.89488" lon="3.88298">
        <ele>194.8</ele>
        <time>2021-08-08T10:41:38Z</time>
      </trkpt>
      <trkpt lat="49.8947" lon="3.88332">
        <ele>194.8</ele>
        <time>2021-08-08T10:41:47Z</time>
      </trkpt>
      <trkpt lat="49.89454" lon="3.88362">
        <ele>195.28</ele>
        <time>2021-08-08T10:41:55Z</time>
      </trkpt>
      <trkpt lat="49.8944" lon="3.88384">
        <ele>194.32</ele>
        <time>2021-08-08T10:42:01Z</time>
      </trkpt>
      <trkpt lat="49.89433" lon="3.88398">
        <ele>195.28</ele>
        <time>2021-08-08T10:42:04Z</time>
      </trkpt>
      <trkpt lat="49.89416" lon="3.88421">
        <ele>193.84</ele>
        <time>2021-08-08T10:42:11Z</time>
      </trkpt>
      <trkpt lat="49.89399" lon="3.88443">
        <ele>193.84</ele>
        <time>2021-08-08T10:42:17Z</time>
      </trkpt>
      <trkpt lat="49.89379" lon="3.88471">
        <ele>193.36</ele>
        <time>2021-08-08T10:42:24Z</time>
      </trkpt>
      <trkpt lat="49.89356" lon="3.88495">
        <ele>192.4</ele>
        <time>2021-08-08T10:42:31Z</time>
      </trkpt>
      <trkpt lat="49.89334" lon="3.88505">
        <ele>192.88</ele>
        <time>2021-08-08T10:42:37Z</time>
      </trkpt>
      <trkpt lat="49.89316" lon="3.88534">
        <ele>192.88</ele>
        <time>2021-08-08T10:42:44Z</time>
      </trkpt>
      <trkpt lat="49.89313" lon="3.88544">
        <ele>193.84</ele>
        <time>2021-08-08T10:42:46Z</time>
      </trkpt>
      <trkpt lat="49.89305" lon="3.88583">
        <ele>194.8</ele>
        <time>2021-08-08T10:42:53Z</time>
      </trkpt>
      <trkpt lat="49.89302" lon="3.88587">
        <ele>194.8</ele>
        <time>2021-08-08T10:42:54Z</time>
      </trkpt>
      <trkpt lat="49.89299" lon="3.88591">
        <ele>194.8</ele>
        <time>2021-08-08T10:42:55Z</time>
      </trkpt>
      <trkpt lat="49.89295" lon="3.88593">
        <ele>194.8</ele>
        <time>2021-08-08T10:42:56Z</time>
      </trkpt>
      <trkpt lat="49.89291" lon="3.88595">
        <ele>194.8</ele>
        <time>2021-08-08T10:42:57Z</time>
      </trkpt>
      <trkpt lat="49.89287" lon="3.88596">
        <ele>194.8</ele>
        <time>2021-08-08T10:42:58Z</time>
      </trkpt>
      <trkpt lat="49.89282" lon="3.88597">
        <ele>194.8</ele>
        <time>2021-08-08T10:42:59Z</time>
      </trkpt>
      <trkpt lat="49.89244" lon="3.88611">
        <ele>196.73</ele>
        <time>2021-08-08T10:43:08Z</time>
      </trkpt>
      <trkpt lat="49.89235" lon="3.88614">
        <ele>195.28</ele>
        <time>2021-08-08T10:43:10Z</time>
      </trkpt>
      <trkpt lat="49.89188" lon="3.88631">
        <ele>195.77</ele>
        <time>2021-08-08T10:43:20Z</time>
      </trkpt>
      <trkpt lat="49.89146" lon="3.88642">
        <ele>195.77</ele>
        <time>2021-08-08T10:43:29Z</time>
      </trkpt>
      <trkpt lat="49.89142" lon="3.88641">
        <ele>195.77</ele>
        <time>2021-08-08T10:43:30Z</time>
      </trkpt>
      <trkpt lat="49.89132" lon="3.88639">
        <ele>195.77</ele>
        <time>2021-08-08T10:43:32Z</time>
      </trkpt>
      <trkpt lat="49.89127" lon="3.88637">
        <ele>195.77</ele>
        <time>2021-08-08T10:43:33Z</time>
      </trkpt>
      <trkpt lat="49.89123" lon="3.88635">
        <ele>195.77</ele>
        <time>2021-08-08T10:43:34Z</time>
      </trkpt>
      <trkpt lat="49.89118" lon="3.88632">
        <ele>195.77</ele>
        <time>2021-08-08T10:43:35Z</time>
      </trkpt>
      <trkpt lat="49.89115" lon="3.88628">
        <ele>195.77</ele>
        <time>2021-08-08T10:43:36Z</time>
      </trkpt>
      <trkpt lat="49.89111" lon="3.88625">
        <ele>195.77</ele>
        <time>2021-08-08T10:43:37Z</time>
      </trkpt>
      <trkpt lat="49.89093" lon="3.88606">
        <ele>196.25</ele>
        <time>2021-08-08T10:43:42Z</time>
      </trkpt>
      <trkpt lat="49.89089" lon="3.88603">
        <ele>196.25</ele>
        <time>2021-08-08T10:43:43Z</time>
      </trkpt>
      <trkpt lat="49.89085" lon="3.88601">
        <ele>196.25</ele>
        <time>2021-08-08T10:43:44Z</time>
      </trkpt>
      <trkpt lat="49.89081" lon="3.88599">
        <ele>197.21</ele>
        <time>2021-08-08T10:43:45Z</time>
      </trkpt>
      <trkpt lat="49.89077" lon="3.88598">
        <ele>197.21</ele>
        <time>2021-08-08T10:43:46Z</time>
      </trkpt>
      <trkpt lat="49.89073" lon="3.88597">
        <ele>197.21</ele>
        <time>2021-08-08T10:43:47Z</time>
      </trkpt>
      <trkpt lat="49.89068" lon="3.88597">
        <ele>197.21</ele>
        <time>2021-08-08T10:43:48Z</time>
      </trkpt>
      <trkpt lat="49.89025" lon="3.88596">
        <ele>195.77</ele>
        <time>2021-08-08T10:43:58Z</time>
      </trkpt>
      <trkpt lat="49.88987" lon="3.88595">
        <ele>197.69</ele>
        <time>2021-08-08T10:44:07Z</time>
      </trkpt>
      <trkpt lat="49.88941" lon="3.88594">
        <ele>199.13</ele>
        <time>2021-08-08T10:44:18Z</time>
      </trkpt>
      <trkpt lat="49.88933" lon="3.88594">
        <ele>199.13</ele>
        <time>2021-08-08T10:44:20Z</time>
      </trkpt>
      <trkpt lat="49.88928" lon="3.88594">
        <ele>199.61</ele>
        <time>2021-08-08T10:44:21Z</time>
      </trkpt>
      <trkpt lat="49.88892" lon="3.88611">
        <ele>201.53</ele>
        <time>2021-08-08T10:44:31Z</time>
      </trkpt>
      <trkpt lat="49.88864" lon="3.88638">
        <ele>202.49</ele>
        <time>2021-08-08T10:44:40Z</time>
      </trkpt>
      <trkpt lat="49.88833" lon="3.88668">
        <ele>203.94</ele>
        <time>2021-08-08T10:44:50Z</time>
      </trkpt>
      <trkpt lat="49.88799" lon="3.887">
        <ele>201.05</ele>
        <time>2021-08-08T10:44:58Z</time>
      </trkpt>
      <trkpt lat="49.88754" lon="3.88741">
        <ele>200.57</ele>
        <time>2021-08-08T10:45:08Z</time>
      </trkpt>
      <trkpt lat="49.88725" lon="3.88758">
        <ele>200.57</ele>
        <time>2021-08-08T10:45:15Z</time>
      </trkpt>
      <trkpt lat="49.8872" lon="3.8876">
        <ele>200.57</ele>
        <time>2021-08-08T10:45:16Z</time>
      </trkpt>
      <trkpt lat="49.88684" lon="3.88768">
        <ele>200.57</ele>
        <time>2021-08-08T10:45:24Z</time>
      </trkpt>
      <trkpt lat="49.88667" lon="3.88771">
        <ele>200.09</ele>
        <time>2021-08-08T10:45:28Z</time>
      </trkpt>
      <trkpt lat="49.88663" lon="3.88772">
        <ele>200.09</ele>
        <time>2021-08-08T10:45:29Z</time>
      </trkpt>
      <trkpt lat="49.88659" lon="3.88772">
        <ele>200.09</ele>
        <time>2021-08-08T10:45:30Z</time>
      </trkpt>
      <trkpt lat="49.88656" lon="3.88772">
        <ele>201.53</ele>
        <time>2021-08-08T10:45:31Z</time>
      </trkpt>
      <trkpt lat="49.88652" lon="3.88773">
        <ele>201.53</ele>
        <time>2021-08-08T10:45:32Z</time>
      </trkpt>
      <trkpt lat="49.88649" lon="3.88773">
        <ele>201.53</ele>
        <time>2021-08-08T10:45:33Z</time>
      </trkpt>
      <trkpt lat="49.88645" lon="3.88773">
        <ele>201.53</ele>
        <time>2021-08-08T10:45:34Z</time>
      </trkpt>
      <trkpt lat="49.88612" lon="3.88775">
        <ele>202.01</ele>
        <time>2021-08-08T10:45:43Z</time>
      </trkpt>
      <trkpt lat="49.88562" lon="3.88781">
        <ele>202.49</ele>
        <time>2021-08-08T10:45:55Z</time>
      </trkpt>
      <trkpt lat="49.88507" lon="3.88787">
        <ele>204.42</ele>
        <time>2021-08-08T10:46:08Z</time>
      </trkpt>
      <trkpt lat="49.8847" lon="3.88803">
        <ele>205.38</ele>
        <time>2021-08-08T10:46:18Z</time>
      </trkpt>
      <trkpt lat="49.8847" lon="3.88807">
        <ele>205.38</ele>
        <time>2021-08-08T10:46:19Z</time>
      </trkpt>
      <trkpt lat="49.8847" lon="3.88813">
        <ele>205.38</ele>
        <time>2021-08-08T10:46:20Z</time>
      </trkpt>
      <trkpt lat="49.88471" lon="3.88816">
        <ele>205.86</ele>
        <time>2021-08-08T10:46:21Z</time>
      </trkpt>
      <trkpt lat="49.88474" lon="3.88821">
        <ele>205.86</ele>
        <time>2021-08-08T10:46:22Z</time>
      </trkpt>
      <trkpt lat="49.88476" lon="3.88824">
        <ele>206.34</ele>
        <time>2021-08-08T10:46:23Z</time>
      </trkpt>
      <trkpt lat="49.885" lon="3.88847">
        <ele>206.82</ele>
        <time>2021-08-08T10:46:30Z</time>
      </trkpt>
      <trkpt lat="49.88519" lon="3.88864">
        <ele>205.86</ele>
        <time>2021-08-08T10:46:34Z</time>
      </trkpt>
      <trkpt lat="49.88552" lon="3.88893">
        <ele>203.94</ele>
        <time>2021-08-08T10:46:40Z</time>
      </trkpt>
      <trkpt lat="49.88599" lon="3.88938">
        <ele>202.49</ele>
        <time>2021-08-08T10:46:48Z</time>
      </trkpt>
      <trkpt lat="49.88644" lon="3.88974">
        <ele>200.57</ele>
        <time>2021-08-08T10:46:55Z</time>
      </trkpt>
      <trkpt lat="49.88705" lon="3.89016">
        <ele>199.13</ele>
        <time>2021-08-08T10:47:04Z</time>
      </trkpt>
      <trkpt lat="49.88767" lon="3.89068">
        <ele>198.65</ele>
        <time>2021-08-08T10:47:14Z</time>
      </trkpt>
      <trkpt lat="49.88808" lon="3.8911">
        <ele>199.13</ele>
        <time>2021-08-08T10:47:22Z</time>
      </trkpt>
      <trkpt lat="49.88812" lon="3.89116">
        <ele>199.13</ele>
        <time>2021-08-08T10:47:23Z</time>
      </trkpt>
      <trkpt lat="49.88816" lon="3.89125">
        <ele>199.13</ele>
        <time>2021-08-08T10:47:24Z</time>
      </trkpt>
      <trkpt lat="49.88819" lon="3.89132">
        <ele>199.13</ele>
        <time>2021-08-08T10:47:25Z</time>
      </trkpt>
      <trkpt lat="49.88822" lon="3.89141">
        <ele>199.13</ele>
        <time>2021-08-08T10:47:26Z</time>
      </trkpt>
      <trkpt lat="49.88835" lon="3.89181">
        <ele>200.57</ele>
        <time>2021-08-08T10:47:31Z</time>
      </trkpt>
      <trkpt lat="49.8885" lon="3.89229">
        <ele>201.05</ele>
        <time>2021-08-08T10:47:38Z</time>
      </trkpt>
      <trkpt lat="49.8888" lon="3.8931">
        <ele>202.01</ele>
        <time>2021-08-08T10:47:49Z</time>
      </trkpt>
      <trkpt lat="49.88901" lon="3.89364">
        <ele>203.46</ele>
        <time>2021-08-08T10:47:57Z</time>
      </trkpt>
      <trkpt lat="49.88939" lon="3.89458">
        <ele>204.42</ele>
        <time>2021-08-08T10:48:12Z</time>
      </trkpt>
      <trkpt lat="49.88948" lon="3.89482">
        <ele>204.42</ele>
        <time>2021-08-08T10:48:16Z</time>
      </trkpt>
      <trkpt lat="49.88951" lon="3.89487">
        <ele>204.42</ele>
        <time>2021-08-08T10:48:17Z</time>
      </trkpt>
      <trkpt lat="49.88954" lon="3.89494">
        <ele>204.42</ele>
        <time>2021-08-08T10:48:18Z</time>
      </trkpt>
      <trkpt lat="49.88961" lon="3.8952">
        <ele>205.38</ele>
        <time>2021-08-08T10:48:22Z</time>
      </trkpt>
      <trkpt lat="49.88962" lon="3.89526">
        <ele>205.38</ele>
        <time>2021-08-08T10:48:23Z</time>
      </trkpt>
      <trkpt lat="49.88964" lon="3.89532">
        <ele>205.38</ele>
        <time>2021-08-08T10:48:24Z</time>
      </trkpt>
      <trkpt lat="49.88986" lon="3.89599">
        <ele>205.86</ele>
        <time>2021-08-08T10:48:34Z</time>
      </trkpt>
      <trkpt lat="49.89015" lon="3.89688">
        <ele>206.34</ele>
        <time>2021-08-08T10:48:47Z</time>
      </trkpt>
      <trkpt lat="49.89042" lon="3.89766">
        <ele>204.9</ele>
        <time>2021-08-08T10:48:57Z</time>
      </trkpt>
      <trkpt lat="49.89074" lon="3.89862">
        <ele>203.46</ele>
        <time>2021-08-08T10:49:08Z</time>
      </trkpt>
      <trkpt lat="49.891" lon="3.89929">
        <ele>199.61</ele>
        <time>2021-08-08T10:49:15Z</time>
      </trkpt>
      <trkpt lat="49.89104" lon="3.89938">
        <ele>199.61</ele>
        <time>2021-08-08T10:49:16Z</time>
      </trkpt>
      <trkpt lat="49.89129" lon="3.90028">
        <ele>197.69</ele>
        <time>2021-08-08T10:49:24Z</time>
      </trkpt>
      <trkpt lat="49.89161" lon="3.90124">
        <ele>195.28</ele>
        <time>2021-08-08T10:49:33Z</time>
      </trkpt>
      <trkpt lat="49.89166" lon="3.90133">
        <ele>195.28</ele>
        <time>2021-08-08T10:49:34Z</time>
      </trkpt>
      <trkpt lat="49.89181" lon="3.90158">
        <ele>194.32</ele>
        <time>2021-08-08T10:49:37Z</time>
      </trkpt>
      <trkpt lat="49.89184" lon="3.90164">
        <ele>194.32</ele>
        <time>2021-08-08T10:49:39Z</time>
      </trkpt>
      <trkpt lat="49.89185" lon="3.90163">
        <ele>194.32</ele>
        <time>2021-08-08T10:49:40Z</time>
      </trkpt>
      <trkpt lat="49.89181" lon="3.90157">
        <ele>194.32</ele>
        <time>2021-08-08T10:49:43Z</time>
      </trkpt>
      <trkpt lat="49.89179" lon="3.90154">
        <ele>194.32</ele>
        <time>2021-08-08T10:49:44Z</time>
      </trkpt>
      <trkpt lat="49.89176" lon="3.90151">
        <ele>194.32</ele>
        <time>2021-08-08T10:49:45Z</time>
      </trkpt>
      <trkpt lat="49.89173" lon="3.90149">
        <ele>194.32</ele>
        <time>2021-08-08T10:49:46Z</time>
      </trkpt>
      <trkpt lat="49.89169" lon="3.9015">
        <ele>194.32</ele>
        <time>2021-08-08T10:49:47Z</time>
      </trkpt>
      <trkpt lat="49.89165" lon="3.90152">
        <ele>194.32</ele>
        <time>2021-08-08T10:49:48Z</time>
      </trkpt>
      <trkpt lat="49.89162" lon="3.90155">
        <ele>194.32</ele>
        <time>2021-08-08T10:49:49Z</time>
      </trkpt>
      <trkpt lat="49.89158" lon="3.90158">
        <ele>195.77</ele>
        <time>2021-08-08T10:49:50Z</time>
      </trkpt>
      <trkpt lat="49.89154" lon="3.90161">
        <ele>195.77</ele>
        <time>2021-08-08T10:49:51Z</time>
      </trkpt>
      <trkpt lat="49.89128" lon="3.90178">
        <ele>196.73</ele>
        <time>2021-08-08T10:49:59Z</time>
      </trkpt>
      <trkpt lat="49.89103" lon="3.90194">
        <ele>197.69</ele>
        <time>2021-08-08T10:50:07Z</time>
      </trkpt>
      <trkpt lat="49.89066" lon="3.90215">
        <ele>197.69</ele>
        <time>2021-08-08T10:50:16Z</time>
      </trkpt>
      <trkpt lat="49.89016" lon="3.90244">
        <ele>198.17</ele>
        <time>2021-08-08T10:50:27Z</time>
      </trkpt>
      <trkpt lat="49.89001" lon="3.90252">
        <ele>196.73</ele>
        <time>2021-08-08T10:50:30Z</time>
      </trkpt>
      <trkpt lat="49.88985" lon="3.90261">
        <ele>194.8</ele>
        <time>2021-08-08T10:50:33Z</time>
      </trkpt>
      <trkpt lat="49.88969" lon="3.9027">
        <ele>197.21</ele>
        <time>2021-08-08T10:50:36Z</time>
      </trkpt>
      <trkpt lat="49.88923" lon="3.90301">
        <ele>197.21</ele>
        <time>2021-08-08T10:50:46Z</time>
      </trkpt>
      <trkpt lat="49.88894" lon="3.90319">
        <ele>197.69</ele>
        <time>2021-08-08T10:50:53Z</time>
      </trkpt>
      <trkpt lat="49.8889" lon="3.90321">
        <ele>198.65</ele>
        <time>2021-08-08T10:50:54Z</time>
      </trkpt>
      <trkpt lat="49.88861" lon="3.90339">
        <ele>199.13</ele>
        <time>2021-08-08T10:51:02Z</time>
      </trkpt>
      <trkpt lat="49.88836" lon="3.90356">
        <ele>199.61</ele>
        <time>2021-08-08T10:51:09Z</time>
      </trkpt>
      <trkpt lat="49.8881" lon="3.90372">
        <ele>201.05</ele>
        <time>2021-08-08T10:51:17Z</time>
      </trkpt>
      <trkpt lat="49.88782" lon="3.90382">
        <ele>202.49</ele>
        <time>2021-08-08T10:51:26Z</time>
      </trkpt>
      <trkpt lat="49.88761" lon="3.90383">
        <ele>202.98</ele>
        <time>2021-08-08T10:51:33Z</time>
      </trkpt>
      <trkpt lat="49.88726" lon="3.90381">
        <ele>203.94</ele>
        <time>2021-08-08T10:51:44Z</time>
      </trkpt>
      <trkpt lat="49.88691" lon="3.9039">
        <ele>203.94</ele>
        <time>2021-08-08T10:51:53Z</time>
      </trkpt>
      <trkpt lat="49.88642" lon="3.90407">
        <ele>201.05</ele>
        <time>2021-08-08T10:52:03Z</time>
      </trkpt>
      <trkpt lat="49.88626" lon="3.90412">
        <ele>200.09</ele>
        <time>2021-08-08T10:52:06Z</time>
      </trkpt>
      <trkpt lat="49.88616" lon="3.90413">
        <ele>199.13</ele>
        <time>2021-08-08T10:52:08Z</time>
      </trkpt>
      <trkpt lat="49.8861" lon="3.90417">
        <ele>198.65</ele>
        <time>2021-08-08T10:52:09Z</time>
      </trkpt>
      <trkpt lat="49.88592" lon="3.9043">
        <ele>198.17</ele>
        <time>2021-08-08T10:52:12Z</time>
      </trkpt>
      <trkpt lat="49.88581" lon="3.90438">
        <ele>198.17</ele>
        <time>2021-08-08T10:52:14Z</time>
      </trkpt>
      <trkpt lat="49.88566" lon="3.90455">
        <ele>199.61</ele>
        <time>2021-08-08T10:52:17Z</time>
      </trkpt>
      <trkpt lat="49.88537" lon="3.9048">
        <ele>201.05</ele>
        <time>2021-08-08T10:52:24Z</time>
      </trkpt>
      <trkpt lat="49.88504" lon="3.90497">
        <ele>202.01</ele>
        <time>2021-08-08T10:52:32Z</time>
      </trkpt>
      <trkpt lat="49.88476" lon="3.90503">
        <ele>203.46</ele>
        <time>2021-08-08T10:52:40Z</time>
      </trkpt>
      <trkpt lat="49.88445" lon="3.90507">
        <ele>205.38</ele>
        <time>2021-08-08T10:52:50Z</time>
      </trkpt>
      <trkpt lat="49.88425" lon="3.90513">
        <ele>205.86</ele>
        <time>2021-08-08T10:52:57Z</time>
      </trkpt>
      <trkpt lat="49.88399" lon="3.90533">
        <ele>206.34</ele>
        <time>2021-08-08T10:53:06Z</time>
      </trkpt>
      <trkpt lat="49.88371" lon="3.90576">
        <ele>207.3</ele>
        <time>2021-08-08T10:53:18Z</time>
      </trkpt>
      <trkpt lat="49.88358" lon="3.90598">
        <ele>208.74</ele>
        <time>2021-08-08T10:53:24Z</time>
      </trkpt>
      <trkpt lat="49.88343" lon="3.90629">
        <ele>209.7</ele>
        <time>2021-08-08T10:53:32Z</time>
      </trkpt>
      <trkpt lat="49.88322" lon="3.90674">
        <ele>210.67</ele>
        <time>2021-08-08T10:53:43Z</time>
      </trkpt>
      <trkpt lat="49.8831" lon="3.90712">
        <ele>210.67</ele>
        <time>2021-08-08T10:53:51Z</time>
      </trkpt>
      <trkpt lat="49.88303" lon="3.90734">
        <ele>212.11</ele>
        <time>2021-08-08T10:53:57Z</time>
      </trkpt>
      <trkpt lat="49.883" lon="3.90734">
        <ele>209.22</ele>
        <time>2021-08-08T10:53:58Z</time>
      </trkpt>
      <trkpt lat="49.88298" lon="3.90734">
        <ele>209.22</ele>
        <time>2021-08-08T10:53:59Z</time>
      </trkpt>
      <trkpt lat="49.88289" lon="3.90732">
        <ele>210.67</ele>
        <time>2021-08-08T10:54:02Z</time>
      </trkpt>
      <trkpt lat="49.88263" lon="3.90728">
        <ele>211.63</ele>
        <time>2021-08-08T10:54:10Z</time>
      </trkpt>
      <trkpt lat="49.88237" lon="3.90727">
        <ele>212.11</ele>
        <time>2021-08-08T10:54:18Z</time>
      </trkpt>
      <trkpt lat="49.88235" lon="3.90731">
        <ele>213.07</ele>
        <time>2021-08-08T10:54:19Z</time>
      </trkpt>
      <trkpt lat="49.88234" lon="3.90736">
        <ele>213.07</ele>
        <time>2021-08-08T10:54:20Z</time>
      </trkpt>
      <trkpt lat="49.88233" lon="3.90741">
        <ele>213.07</ele>
        <time>2021-08-08T10:54:21Z</time>
      </trkpt>
      <trkpt lat="49.88232" lon="3.90747">
        <ele>212.11</ele>
        <time>2021-08-08T10:54:22Z</time>
      </trkpt>
      <trkpt lat="49.88232" lon="3.90755">
        <ele>211.15</ele>
        <time>2021-08-08T10:54:23Z</time>
      </trkpt>
      <trkpt lat="49.88232" lon="3.90762">
        <ele>211.15</ele>
        <time>2021-08-08T10:54:24Z</time>
      </trkpt>
      <trkpt lat="49.88233" lon="3.90775">
        <ele>211.15</ele>
        <time>2021-08-08T10:54:26Z</time>
      </trkpt>
      <trkpt lat="49.88235" lon="3.90783">
        <ele>211.15</ele>
        <time>2021-08-08T10:54:27Z</time>
      </trkpt>
      <trkpt lat="49.88237" lon="3.9079">
        <ele>211.15</ele>
        <time>2021-08-08T10:54:28Z</time>
      </trkpt>
      <trkpt lat="49.8824" lon="3.90797">
        <ele>211.15</ele>
        <time>2021-08-08T10:54:29Z</time>
      </trkpt>
      <trkpt lat="49.88243" lon="3.90803">
        <ele>211.15</ele>
        <time>2021-08-08T10:54:30Z</time>
      </trkpt>
      <trkpt lat="49.88273" lon="3.9086">
        <ele>209.7</ele>
        <time>2021-08-08T10:54:38Z</time>
      </trkpt>
      <trkpt lat="49.88296" lon="3.90912">
        <ele>207.78</ele>
        <time>2021-08-08T10:54:44Z</time>
      </trkpt>
      <trkpt lat="49.88329" lon="3.90994">
        <ele>205.38</ele>
        <time>2021-08-08T10:54:52Z</time>
      </trkpt>
      <trkpt lat="49.8838" lon="3.91112">
        <ele>203.94</ele>
        <time>2021-08-08T10:55:03Z</time>
      </trkpt>
      <trkpt lat="49.88426" lon="3.91217">
        <ele>204.42</ele>
        <time>2021-08-08T10:55:13Z</time>
      </trkpt>
      <trkpt lat="49.88462" lon="3.91297">
        <ele>204.42</ele>
        <time>2021-08-08T10:55:21Z</time>
      </trkpt>
      <trkpt lat="49.88499" lon="3.91378">
        <ele>205.38</ele>
        <time>2021-08-08T10:55:30Z</time>
      </trkpt>
      <trkpt lat="49.88531" lon="3.91449">
        <ele>206.34</ele>
        <time>2021-08-08T10:55:39Z</time>
      </trkpt>
      <trkpt lat="49.88572" lon="3.9154">
        <ele>206.82</ele>
        <time>2021-08-08T10:55:51Z</time>
      </trkpt>
      <trkpt lat="49.88589" lon="3.91578">
        <ele>205.38</ele>
        <time>2021-08-08T10:55:56Z</time>
      </trkpt>
      <trkpt lat="49.88596" lon="3.91599">
        <ele>205.38</ele>
        <time>2021-08-08T10:55:59Z</time>
      </trkpt>
      <trkpt lat="49.88596" lon="3.91606">
        <ele>205.38</ele>
        <time>2021-08-08T10:56:00Z</time>
      </trkpt>
      <trkpt lat="49.88593" lon="3.91612">
        <ele>204.9</ele>
        <time>2021-08-08T10:56:01Z</time>
      </trkpt>
      <trkpt lat="49.8859" lon="3.91614">
        <ele>204.9</ele>
        <time>2021-08-08T10:56:02Z</time>
      </trkpt>
      <trkpt lat="49.88585" lon="3.91615">
        <ele>204.42</ele>
        <time>2021-08-08T10:56:03Z</time>
      </trkpt>
      <trkpt lat="49.88579" lon="3.91615">
        <ele>204.42</ele>
        <time>2021-08-08T10:56:04Z</time>
      </trkpt>
      <trkpt lat="49.88575" lon="3.91615">
        <ele>204.42</ele>
        <time>2021-08-08T10:56:05Z</time>
      </trkpt>
      <trkpt lat="49.88553" lon="3.91613">
        <ele>203.94</ele>
        <time>2021-08-08T10:56:09Z</time>
      </trkpt>
      <trkpt lat="49.88548" lon="3.91613">
        <ele>203.94</ele>
        <time>2021-08-08T10:56:10Z</time>
      </trkpt>
      <trkpt lat="49.88543" lon="3.91614">
        <ele>203.94</ele>
        <time>2021-08-08T10:56:11Z</time>
      </trkpt>
      <trkpt lat="49.88537" lon="3.91616">
        <ele>203.94</ele>
        <time>2021-08-08T10:56:12Z</time>
      </trkpt>
      <trkpt lat="49.88532" lon="3.91619">
        <ele>203.94</ele>
        <time>2021-08-08T10:56:13Z</time>
      </trkpt>
      <trkpt lat="49.88527" lon="3.91624">
        <ele>203.94</ele>
        <time>2021-08-08T10:56:14Z</time>
      </trkpt>
      <trkpt lat="49.88523" lon="3.91629">
        <ele>203.94</ele>
        <time>2021-08-08T10:56:15Z</time>
      </trkpt>
      <trkpt lat="49.88499" lon="3.9166">
        <ele>200.57</ele>
        <time>2021-08-08T10:56:20Z</time>
      </trkpt>
      <trkpt lat="49.88455" lon="3.91718">
        <ele>199.61</ele>
        <time>2021-08-08T10:56:29Z</time>
      </trkpt>
      <trkpt lat="49.88446" lon="3.9173">
        <ele>200.57</ele>
        <time>2021-08-08T10:56:31Z</time>
      </trkpt>
      <trkpt lat="49.88406" lon="3.91782">
        <ele>202.01</ele>
        <time>2021-08-08T10:56:40Z</time>
      </trkpt>
      <trkpt lat="49.88378" lon="3.91818">
        <ele>203.94</ele>
        <time>2021-08-08T10:56:48Z</time>
      </trkpt>
      <trkpt lat="49.88344" lon="3.91862">
        <ele>204.42</ele>
        <time>2021-08-08T10:56:59Z</time>
      </trkpt>
      <trkpt lat="49.88324" lon="3.91888">
        <ele>202.98</ele>
        <time>2021-08-08T10:57:05Z</time>
      </trkpt>
      <trkpt lat="49.8829" lon="3.91932">
        <ele>202.01</ele>
        <time>2021-08-08T10:57:13Z</time>
      </trkpt>
      <trkpt lat="49.88281" lon="3.91943">
        <ele>201.05</ele>
        <time>2021-08-08T10:57:15Z</time>
      </trkpt>
      <trkpt lat="49.8826" lon="3.91958">
        <ele>200.57</ele>
        <time>2021-08-08T10:57:19Z</time>
      </trkpt>
      <trkpt lat="49.88255" lon="3.91961">
        <ele>200.09</ele>
        <time>2021-08-08T10:57:20Z</time>
      </trkpt>
      <trkpt lat="49.88239" lon="3.91968">
        <ele>200.09</ele>
        <time>2021-08-08T10:57:23Z</time>
      </trkpt>
      <trkpt lat="49.88234" lon="3.91971">
        <ele>198.17</ele>
        <time>2021-08-08T10:57:24Z</time>
      </trkpt>
      <trkpt lat="49.88229" lon="3.91975">
        <ele>198.17</ele>
        <time>2021-08-08T10:57:25Z</time>
      </trkpt>
      <trkpt lat="49.88226" lon="3.9198">
        <ele>198.17</ele>
        <time>2021-08-08T10:57:26Z</time>
      </trkpt>
      <trkpt lat="49.88222" lon="3.91986">
        <ele>200.09</ele>
        <time>2021-08-08T10:57:27Z</time>
      </trkpt>
      <trkpt lat="49.88219" lon="3.91992">
        <ele>200.09</ele>
        <time>2021-08-08T10:57:28Z</time>
      </trkpt>
      <trkpt lat="49.88217" lon="3.91998">
        <ele>200.09</ele>
        <time>2021-08-08T10:57:29Z</time>
      </trkpt>
      <trkpt lat="49.88215" lon="3.92004">
        <ele>201.05</ele>
        <time>2021-08-08T10:57:30Z</time>
      </trkpt>
      <trkpt lat="49.88215" lon="3.92011">
        <ele>201.53</ele>
        <time>2021-08-08T10:57:31Z</time>
      </trkpt>
      <trkpt lat="49.88215" lon="3.92017">
        <ele>202.01</ele>
        <time>2021-08-08T10:57:32Z</time>
      </trkpt>
      <trkpt lat="49.88216" lon="3.92023">
        <ele>202.01</ele>
        <time>2021-08-08T10:57:33Z</time>
      </trkpt>
      <trkpt lat="49.88218" lon="3.92028">
        <ele>202.49</ele>
        <time>2021-08-08T10:57:34Z</time>
      </trkpt>
      <trkpt lat="49.88221" lon="3.92033">
        <ele>202.49</ele>
        <time>2021-08-08T10:57:35Z</time>
      </trkpt>
      <trkpt lat="49.8825" lon="3.92075">
        <ele>202.98</ele>
        <time>2021-08-08T10:57:43Z</time>
      </trkpt>
      <trkpt lat="49.88282" lon="3.92122">
        <ele>202.01</ele>
        <time>2021-08-08T10:57:51Z</time>
      </trkpt>
      <trkpt lat="49.88321" lon="3.92185">
        <ele>200.09</ele>
        <time>2021-08-08T10:58:00Z</time>
      </trkpt>
      <trkpt lat="49.8837" lon="3.92273">
        <ele>201.05</ele>
        <time>2021-08-08T10:58:12Z</time>
      </trkpt>
      <trkpt lat="49.88414" lon="3.92358">
        <ele>201.53</ele>
        <time>2021-08-08T10:58:24Z</time>
      </trkpt>
      <trkpt lat="49.88455" lon="3.92436">
        <ele>199.61</ele>
        <time>2021-08-08T10:58:34Z</time>
      </trkpt>
      <trkpt lat="49.88496" lon="3.92514">
        <ele>199.13</ele>
        <time>2021-08-08T10:58:44Z</time>
      </trkpt>
      <trkpt lat="49.88532" lon="3.92582">
        <ele>199.13</ele>
        <time>2021-08-08T10:58:53Z</time>
      </trkpt>
      <trkpt lat="49.88575" lon="3.92663">
        <ele>200.57</ele>
        <time>2021-08-08T10:59:04Z</time>
      </trkpt>
      <trkpt lat="49.88617" lon="3.92743">
        <ele>200.57</ele>
        <time>2021-08-08T10:59:15Z</time>
      </trkpt>
      <trkpt lat="49.88652" lon="3.92793">
        <ele>201.05</ele>
        <time>2021-08-08T10:59:23Z</time>
      </trkpt>
      <trkpt lat="49.88688" lon="3.9281">
        <ele>201.05</ele>
        <time>2021-08-08T10:59:29Z</time>
      </trkpt>
      <trkpt lat="49.88721" lon="3.92818">
        <ele>199.61</ele>
        <time>2021-08-08T10:59:34Z</time>
      </trkpt>
      <trkpt lat="49.88792" lon="3.92839">
        <ele>197.69</ele>
        <time>2021-08-08T10:59:45Z</time>
      </trkpt>
      <trkpt lat="49.88844" lon="3.92857">
        <ele>196.73</ele>
        <time>2021-08-08T10:59:53Z</time>
      </trkpt>
      <trkpt lat="49.88902" lon="3.92872">
        <ele>194.32</ele>
        <time>2021-08-08T11:00:01Z</time>
      </trkpt>
      <trkpt lat="49.88978" lon="3.92882">
        <ele>191.92</ele>
        <time>2021-08-08T11:00:11Z</time>
      </trkpt>
      <trkpt lat="49.89045" lon="3.92901">
        <ele>190</ele>
        <time>2021-08-08T11:00:20Z</time>
      </trkpt>
      <trkpt lat="49.89065" lon="3.92914">
        <ele>188.56</ele>
        <time>2021-08-08T11:00:23Z</time>
      </trkpt>
      <trkpt lat="49.89071" lon="3.92921">
        <ele>188.56</ele>
        <time>2021-08-08T11:00:24Z</time>
      </trkpt>
      <trkpt lat="49.89076" lon="3.92928">
        <ele>188.08</ele>
        <time>2021-08-08T11:00:25Z</time>
      </trkpt>
      <trkpt lat="49.89078" lon="3.92934">
        <ele>188.08</ele>
        <time>2021-08-08T11:00:26Z</time>
      </trkpt>
      <trkpt lat="49.89081" lon="3.92943">
        <ele>188.08</ele>
        <time>2021-08-08T11:00:27Z</time>
      </trkpt>
      <trkpt lat="49.89081" lon="3.92949">
        <ele>188.08</ele>
        <time>2021-08-08T11:00:28Z</time>
      </trkpt>
      <trkpt lat="49.8908" lon="3.92956">
        <ele>188.08</ele>
        <time>2021-08-08T11:00:29Z</time>
      </trkpt>
      <trkpt lat="49.89078" lon="3.92963">
        <ele>188.08</ele>
        <time>2021-08-08T11:00:30Z</time>
      </trkpt>
      <trkpt lat="49.89077" lon="3.9297">
        <ele>188.08</ele>
        <time>2021-08-08T11:00:31Z</time>
      </trkpt>
      <trkpt lat="49.89065" lon="3.9303">
        <ele>186.63</ele>
        <time>2021-08-08T11:00:39Z</time>
      </trkpt>
      <trkpt lat="49.89065" lon="3.93037">
        <ele>186.15</ele>
        <time>2021-08-08T11:00:40Z</time>
      </trkpt>
      <trkpt lat="49.89067" lon="3.93044">
        <ele>186.15</ele>
        <time>2021-08-08T11:00:41Z</time>
      </trkpt>
      <trkpt lat="49.8907" lon="3.93049">
        <ele>185.19</ele>
        <time>2021-08-08T11:00:42Z</time>
      </trkpt>
      <trkpt lat="49.89074" lon="3.93054">
        <ele>184.71</ele>
        <time>2021-08-08T11:00:43Z</time>
      </trkpt>
      <trkpt lat="49.89079" lon="3.93059">
        <ele>184.23</ele>
        <time>2021-08-08T11:00:44Z</time>
      </trkpt>
      <trkpt lat="49.89085" lon="3.93063">
        <ele>183.27</ele>
        <time>2021-08-08T11:00:45Z</time>
      </trkpt>
      <trkpt lat="49.89091" lon="3.93067">
        <ele>183.27</ele>
        <time>2021-08-08T11:00:46Z</time>
      </trkpt>
      <trkpt lat="49.89104" lon="3.93073">
        <ele>182.31</ele>
        <time>2021-08-08T11:00:48Z</time>
      </trkpt>
      <trkpt lat="49.89134" lon="3.93085">
        <ele>179.9</ele>
        <time>2021-08-08T11:00:52Z</time>
      </trkpt>
      <trkpt lat="49.89161" lon="3.93098">
        <ele>176.54</ele>
        <time>2021-08-08T11:00:55Z</time>
      </trkpt>
      <trkpt lat="49.89178" lon="3.9311">
        <ele>176.06</ele>
        <time>2021-08-08T11:00:57Z</time>
      </trkpt>
      <trkpt lat="49.89194" lon="3.93124">
        <ele>174.62</ele>
        <time>2021-08-08T11:00:59Z</time>
      </trkpt>
      <trkpt lat="49.89217" lon="3.93145">
        <ele>173.66</ele>
        <time>2021-08-08T11:01:03Z</time>
      </trkpt>
      <trkpt lat="49.89225" lon="3.93153">
        <ele>173.66</ele>
        <time>2021-08-08T11:01:05Z</time>
      </trkpt>
      <trkpt lat="49.89226" lon="3.93158">
        <ele>173.66</ele>
        <time>2021-08-08T11:01:06Z</time>
      </trkpt>
      <trkpt lat="49.89227" lon="3.93162">
        <ele>172.69</ele>
        <time>2021-08-08T11:01:07Z</time>
      </trkpt>
      <trkpt lat="49.89226" lon="3.93168">
        <ele>173.17</ele>
        <time>2021-08-08T11:01:08Z</time>
      </trkpt>
      <trkpt lat="49.89225" lon="3.93175">
        <ele>172.69</ele>
        <time>2021-08-08T11:01:09Z</time>
      </trkpt>
      <trkpt lat="49.89223" lon="3.93181">
        <ele>172.21</ele>
        <time>2021-08-08T11:01:10Z</time>
      </trkpt>
      <trkpt lat="49.89216" lon="3.93208">
        <ele>170.77</ele>
        <time>2021-08-08T11:01:16Z</time>
      </trkpt>
      <trkpt lat="49.89216" lon="3.93223">
        <ele>170.77</ele>
        <time>2021-08-08T11:01:22Z</time>
      </trkpt>
      <trkpt lat="49.89224" lon="3.93239">
        <ele>169.81</ele>
        <time>2021-08-08T11:01:28Z</time>
      </trkpt>
      <trkpt lat="49.89234" lon="3.93262">
        <ele>168.37</ele>
        <time>2021-08-08T11:01:35Z</time>
      </trkpt>
      <trkpt lat="49.89247" lon="3.93301">
        <ele>166.45</ele>
        <time>2021-08-08T11:01:43Z</time>
      </trkpt>
      <trkpt lat="49.89254" lon="3.93336">
        <ele>164.52</ele>
        <time>2021-08-08T11:01:51Z</time>
      </trkpt>
      <trkpt lat="49.89259" lon="3.9336">
        <ele>163.08</ele>
        <time>2021-08-08T11:01:56Z</time>
      </trkpt>
      <trkpt lat="49.89266" lon="3.93375">
        <ele>161.64</ele>
        <time>2021-08-08T11:01:59Z</time>
      </trkpt>
      <trkpt lat="49.89269" lon="3.93381">
        <ele>161.16</ele>
        <time>2021-08-08T11:02:00Z</time>
      </trkpt>
      <trkpt lat="49.8929" lon="3.9341">
        <ele>157.79</ele>
        <time>2021-08-08T11:02:06Z</time>
      </trkpt>
      <trkpt lat="49.89309" lon="3.93438">
        <ele>154.91</ele>
        <time>2021-08-08T11:02:12Z</time>
      </trkpt>
      <trkpt lat="49.8931" lon="3.93442">
        <ele>154.91</ele>
        <time>2021-08-08T11:02:13Z</time>
      </trkpt>
      <trkpt lat="49.89318" lon="3.93455">
        <ele>153.47</ele>
        <time>2021-08-08T11:02:17Z</time>
      </trkpt>
      <trkpt lat="49.89319" lon="3.93457">
        <ele>153.47</ele>
        <time>2021-08-08T11:02:18Z</time>
      </trkpt>
      <trkpt lat="49.89322" lon="3.93459">
        <ele>152.99</ele>
        <time>2021-08-08T11:02:23Z</time>
      </trkpt>
      <trkpt lat="49.89323" lon="3.93464">
        <ele>152.99</ele>
        <time>2021-08-08T11:02:32Z</time>
      </trkpt>
      <trkpt lat="49.89326" lon="3.93471">
        <ele>152.51</ele>
        <time>2021-08-08T11:02:38Z</time>
      </trkpt>
      <trkpt lat="49.89334" lon="3.93486">
        <ele>150.58</ele>
        <time>2021-08-08T11:02:44Z</time>
      </trkpt>
      <trkpt lat="49.89343" lon="3.93505">
        <ele>149.14</ele>
        <time>2021-08-08T11:02:50Z</time>
      </trkpt>
      <trkpt lat="49.89349" lon="3.93522">
        <ele>147.7</ele>
        <time>2021-08-08T11:02:55Z</time>
      </trkpt>
      <trkpt lat="49.89357" lon="3.9354">
        <ele>146.26</ele>
        <time>2021-08-08T11:03:02Z</time>
      </trkpt>
      <trkpt lat="49.89363" lon="3.93549">
        <ele>145.78</ele>
        <time>2021-08-08T11:03:07Z</time>
      </trkpt>
      <trkpt lat="49.89364" lon="3.93551">
        <ele>145.3</ele>
        <time>2021-08-08T11:03:08Z</time>
      </trkpt>
      <trkpt lat="49.89366" lon="3.93555">
        <ele>145.3</ele>
        <time>2021-08-08T11:03:09Z</time>
      </trkpt>
      <trkpt lat="49.89377" lon="3.93583">
        <ele>143.85</ele>
        <time>2021-08-08T11:03:16Z</time>
      </trkpt>
      <trkpt lat="49.89387" lon="3.93616">
        <ele>142.89</ele>
        <time>2021-08-08T11:03:22Z</time>
      </trkpt>
      <trkpt lat="49.89392" lon="3.93624">
        <ele>142.89</ele>
        <time>2021-08-08T11:03:27Z</time>
      </trkpt>
      <trkpt lat="49.89396" lon="3.93632">
        <ele>142.89</ele>
        <time>2021-08-08T11:03:35Z</time>
      </trkpt>
      <trkpt lat="49.89398" lon="3.93637">
        <ele>142.89</ele>
        <time>2021-08-08T11:03:41Z</time>
      </trkpt>
      <trkpt lat="49.89396" lon="3.9364">
        <ele>142.89</ele>
        <time>2021-08-08T11:03:48Z</time>
      </trkpt>
      <trkpt lat="49.89395" lon="3.93645">
        <ele>143.37</ele>
        <time>2021-08-08T11:03:55Z</time>
      </trkpt>
      <trkpt lat="49.89394" lon="3.93647">
        <ele>143.37</ele>
        <time>2021-08-08T11:03:56Z</time>
      </trkpt>
      <trkpt lat="49.89394" lon="3.93649">
        <ele>143.37</ele>
        <time>2021-08-08T11:03:57Z</time>
      </trkpt>
      <trkpt lat="49.89394" lon="3.93651">
        <ele>143.37</ele>
        <time>2021-08-08T11:03:58Z</time>
      </trkpt>
      <trkpt lat="49.89388" lon="3.93666">
        <ele>143.37</ele>
        <time>2021-08-08T11:04:04Z</time>
      </trkpt>
      <trkpt lat="49.89379" lon="3.9369">
        <ele>143.37</ele>
        <time>2021-08-08T11:04:12Z</time>
      </trkpt>
      <trkpt lat="49.89368" lon="3.93713">
        <ele>144.34</ele>
        <time>2021-08-08T11:04:18Z</time>
      </trkpt>
      <trkpt lat="49.89355" lon="3.93741">
        <ele>144.34</ele>
        <time>2021-08-08T11:04:25Z</time>
      </trkpt>
      <trkpt lat="49.89338" lon="3.93776">
        <ele>144.34</ele>
        <time>2021-08-08T11:04:33Z</time>
      </trkpt>
      <trkpt lat="49.89323" lon="3.93811">
        <ele>142.41</ele>
        <time>2021-08-08T11:04:40Z</time>
      </trkpt>
      <trkpt lat="49.89316" lon="3.93829">
        <ele>141.93</ele>
        <time>2021-08-08T11:04:43Z</time>
      </trkpt>
      <trkpt lat="49.89306" lon="3.93852">
        <ele>141.45</ele>
        <time>2021-08-08T11:04:47Z</time>
      </trkpt>
      <trkpt lat="49.89304" lon="3.93858">
        <ele>141.45</ele>
        <time>2021-08-08T11:04:48Z</time>
      </trkpt>
      <trkpt lat="49.89283" lon="3.9391">
        <ele>140.97</ele>
        <time>2021-08-08T11:04:56Z</time>
      </trkpt>
      <trkpt lat="49.89279" lon="3.93923">
        <ele>140.49</ele>
        <time>2021-08-08T11:04:58Z</time>
      </trkpt>
      <trkpt lat="49.89266" lon="3.93957">
        <ele>140.49</ele>
        <time>2021-08-08T11:05:03Z</time>
      </trkpt>
      <trkpt lat="49.89257" lon="3.93993">
        <ele>140.01</ele>
        <time>2021-08-08T11:05:08Z</time>
      </trkpt>
      <trkpt lat="49.89255" lon="3.94009">
        <ele>139.53</ele>
        <time>2021-08-08T11:05:10Z</time>
      </trkpt>
      <trkpt lat="49.89255" lon="3.94018">
        <ele>139.05</ele>
        <time>2021-08-08T11:05:11Z</time>
      </trkpt>
      <trkpt lat="49.89256" lon="3.94026">
        <ele>139.05</ele>
        <time>2021-08-08T11:05:12Z</time>
      </trkpt>
      <trkpt lat="49.89258" lon="3.94032">
        <ele>139.05</ele>
        <time>2021-08-08T11:05:13Z</time>
      </trkpt>
      <trkpt lat="49.89259" lon="3.94038">
        <ele>139.05</ele>
        <time>2021-08-08T11:05:14Z</time>
      </trkpt>
      <trkpt lat="49.89261" lon="3.94042">
        <ele>139.05</ele>
        <time>2021-08-08T11:05:15Z</time>
      </trkpt>
      <trkpt lat="49.89263" lon="3.94046">
        <ele>139.05</ele>
        <time>2021-08-08T11:05:16Z</time>
      </trkpt>
      <trkpt lat="49.89281" lon="3.94081">
        <ele>138.57</ele>
        <time>2021-08-08T11:05:24Z</time>
      </trkpt>
      <trkpt lat="49.89292" lon="3.9411">
        <ele>138.57</ele>
        <time>2021-08-08T11:05:31Z</time>
      </trkpt>
      <trkpt lat="49.89291" lon="3.94126">
        <ele>138.09</ele>
        <time>2021-08-08T11:05:36Z</time>
      </trkpt>
      <trkpt lat="49.89285" lon="3.94149">
        <ele>138.09</ele>
        <time>2021-08-08T11:05:44Z</time>
      </trkpt>
      <trkpt lat="49.89279" lon="3.94166">
        <ele>138.09</ele>
        <time>2021-08-08T11:05:49Z</time>
      </trkpt>
      <trkpt lat="49.89279" lon="3.94169">
        <ele>138.09</ele>
        <time>2021-08-08T11:05:50Z</time>
      </trkpt>
      <trkpt lat="49.89278" lon="3.94172">
        <ele>138.09</ele>
        <time>2021-08-08T11:05:51Z</time>
      </trkpt>
      <trkpt lat="49.89273" lon="3.94197">
        <ele>138.09</ele>
        <time>2021-08-08T11:05:59Z</time>
      </trkpt>
      <trkpt lat="49.89271" lon="3.94217">
        <ele>137.61</ele>
        <time>2021-08-08T11:06:05Z</time>
      </trkpt>
      <trkpt lat="49.89268" lon="3.94229">
        <ele>137.61</ele>
        <time>2021-08-08T11:06:10Z</time>
      </trkpt>
      <trkpt lat="49.89258" lon="3.94252">
        <ele>137.61</ele>
        <time>2021-08-08T11:06:17Z</time>
      </trkpt>
      <trkpt lat="49.89246" lon="3.94262">
        <ele>139.05</ele>
        <time>2021-08-08T11:06:22Z</time>
      </trkpt>
      <trkpt lat="49.89229" lon="3.94286">
        <ele>139.53</ele>
        <time>2021-08-08T11:06:30Z</time>
      </trkpt>
      <trkpt lat="49.89224" lon="3.94324">
        <ele>138.09</ele>
        <time>2021-08-08T11:06:36Z</time>
      </trkpt>
      <trkpt lat="49.89219" lon="3.94392">
        <ele>135.2</ele>
        <time>2021-08-08T11:06:44Z</time>
      </trkpt>
      <trkpt lat="49.89216" lon="3.94421">
        <ele>134.72</ele>
        <time>2021-08-08T11:06:47Z</time>
      </trkpt>
      <trkpt lat="49.89215" lon="3.94429">
        <ele>134.72</ele>
        <time>2021-08-08T11:06:48Z</time>
      </trkpt>
      <trkpt lat="49.89214" lon="3.94438">
        <ele>134.72</ele>
        <time>2021-08-08T11:06:49Z</time>
      </trkpt>
      <trkpt lat="49.89198" lon="3.94495">
        <ele>135.2</ele>
        <time>2021-08-08T11:06:56Z</time>
      </trkpt>
      <trkpt lat="49.89195" lon="3.94502">
        <ele>135.2</ele>
        <time>2021-08-08T11:06:57Z</time>
      </trkpt>
      <trkpt lat="49.89192" lon="3.94508">
        <ele>135.2</ele>
        <time>2021-08-08T11:06:58Z</time>
      </trkpt>
      <trkpt lat="49.89188" lon="3.94514">
        <ele>135.2</ele>
        <time>2021-08-08T11:06:59Z</time>
      </trkpt>
      <trkpt lat="49.89184" lon="3.94519">
        <ele>135.2</ele>
        <time>2021-08-08T11:07:00Z</time>
      </trkpt>
      <trkpt lat="49.8918" lon="3.94525">
        <ele>135.2</ele>
        <time>2021-08-08T11:07:01Z</time>
      </trkpt>
      <trkpt lat="49.89176" lon="3.94529">
        <ele>135.2</ele>
        <time>2021-08-08T11:07:02Z</time>
      </trkpt>
      <trkpt lat="49.89155" lon="3.94549">
        <ele>136.64</ele>
        <time>2021-08-08T11:07:07Z</time>
      </trkpt>
      <trkpt lat="49.89132" lon="3.94577">
        <ele>136.64</ele>
        <time>2021-08-08T11:07:13Z</time>
      </trkpt>
      <trkpt lat="49.89107" lon="3.94601">
        <ele>138.57</ele>
        <time>2021-08-08T11:07:21Z</time>
      </trkpt>
      <trkpt lat="49.89085" lon="3.94626">
        <ele>139.53</ele>
        <time>2021-08-08T11:07:30Z</time>
      </trkpt>
      <trkpt lat="49.89063" lon="3.94653">
        <ele>140.49</ele>
        <time>2021-08-08T11:07:40Z</time>
      </trkpt>
      <trkpt lat="49.89041" lon="3.94675">
        <ele>142.41</ele>
        <time>2021-08-08T11:07:49Z</time>
      </trkpt>
      <trkpt lat="49.89032" lon="3.94684">
        <ele>143.85</ele>
        <time>2021-08-08T11:07:57Z</time>
      </trkpt>
      <trkpt lat="49.89032" lon="3.94684">
        <ele>143.37</ele>
        <time>2021-08-08T11:08:14Z</time>
      </trkpt>
      <trkpt lat="49.89033" lon="3.94684">
        <ele>143.37</ele>
        <time>2021-08-08T11:08:37Z</time>
      </trkpt>
      <trkpt lat="49.89031" lon="3.94689">
        <ele>142.89</ele>
        <time>2021-08-08T11:08:43Z</time>
      </trkpt>
      <trkpt lat="49.89028" lon="3.94693">
        <ele>142.89</ele>
        <time>2021-08-08T11:08:46Z</time>
      </trkpt>
      <trkpt lat="49.89012" lon="3.94711">
        <ele>142.89</ele>
        <time>2021-08-08T11:08:54Z</time>
      </trkpt>
      <trkpt lat="49.89005" lon="3.94718">
        <ele>146.26</ele>
        <time>2021-08-08T11:08:57Z</time>
      </trkpt>
      <trkpt lat="49.89003" lon="3.94721">
        <ele>146.26</ele>
        <time>2021-08-08T11:08:58Z</time>
      </trkpt>
      <trkpt lat="49.88997" lon="3.94728">
        <ele>144.82</ele>
        <time>2021-08-08T11:09:01Z</time>
      </trkpt>
      <trkpt lat="49.88974" lon="3.94754">
        <ele>147.22</ele>
        <time>2021-08-08T11:09:12Z</time>
      </trkpt>
      <trkpt lat="49.88955" lon="3.94776">
        <ele>149.62</ele>
        <time>2021-08-08T11:09:22Z</time>
      </trkpt>
      <trkpt lat="49.88938" lon="3.94796">
        <ele>151.06</ele>
        <time>2021-08-08T11:09:32Z</time>
      </trkpt>
      <trkpt lat="49.88921" lon="3.94817">
        <ele>151.06</ele>
        <time>2021-08-08T11:09:42Z</time>
      </trkpt>
      <trkpt lat="49.88904" lon="3.94836">
        <ele>152.51</ele>
        <time>2021-08-08T11:09:51Z</time>
      </trkpt>
      <trkpt lat="49.88886" lon="3.94857">
        <ele>154.43</ele>
        <time>2021-08-08T11:10:01Z</time>
      </trkpt>
      <trkpt lat="49.8887" lon="3.94876">
        <ele>155.39</ele>
        <time>2021-08-08T11:10:10Z</time>
      </trkpt>
      <trkpt lat="49.88852" lon="3.94898">
        <ele>156.35</ele>
        <time>2021-08-08T11:10:20Z</time>
      </trkpt>
      <trkpt lat="49.88834" lon="3.94915">
        <ele>158.27</ele>
        <time>2021-08-08T11:10:29Z</time>
      </trkpt>
      <trkpt lat="49.88815" lon="3.94917">
        <ele>159.72</ele>
        <time>2021-08-08T11:10:38Z</time>
      </trkpt>
      <trkpt lat="49.88804" lon="3.949">
        <ele>161.16</ele>
        <time>2021-08-08T11:10:45Z</time>
      </trkpt>
      <trkpt lat="49.88797" lon="3.94867">
        <ele>162.12</ele>
        <time>2021-08-08T11:10:54Z</time>
      </trkpt>
      <trkpt lat="49.8879" lon="3.9484">
        <ele>165.48</ele>
        <time>2021-08-08T11:11:02Z</time>
      </trkpt>
      <trkpt lat="49.88776" lon="3.94821">
        <ele>165</ele>
        <time>2021-08-08T11:11:10Z</time>
      </trkpt>
      <trkpt lat="49.88755" lon="3.94811">
        <ele>165.96</ele>
        <time>2021-08-08T11:11:19Z</time>
      </trkpt>
      <trkpt lat="49.88734" lon="3.94801">
        <ele>167.89</ele>
        <time>2021-08-08T11:11:28Z</time>
      </trkpt>
      <trkpt lat="49.88711" lon="3.94793">
        <ele>169.33</ele>
        <time>2021-08-08T11:11:38Z</time>
      </trkpt>
      <trkpt lat="49.88692" lon="3.94781">
        <ele>170.29</ele>
        <time>2021-08-08T11:11:47Z</time>
      </trkpt>
      <trkpt lat="49.88677" lon="3.94763">
        <ele>170.29</ele>
        <time>2021-08-08T11:11:55Z</time>
      </trkpt>
      <trkpt lat="49.88666" lon="3.94742">
        <ele>171.25</ele>
        <time>2021-08-08T11:12:03Z</time>
      </trkpt>
      <trkpt lat="49.88655" lon="3.94722">
        <ele>172.69</ele>
        <time>2021-08-08T11:12:10Z</time>
      </trkpt>
      <trkpt lat="49.88633" lon="3.94701">
        <ele>174.14</ele>
        <time>2021-08-08T11:12:21Z</time>
      </trkpt>
      <trkpt lat="49.88612" lon="3.94698">
        <ele>175.58</ele>
        <time>2021-08-08T11:12:30Z</time>
      </trkpt>
      <trkpt lat="49.8859" lon="3.94701">
        <ele>177.5</ele>
        <time>2021-08-08T11:12:39Z</time>
      </trkpt>
      <trkpt lat="49.88566" lon="3.94708">
        <ele>178.46</ele>
        <time>2021-08-08T11:12:49Z</time>
      </trkpt>
      <trkpt lat="49.88532" lon="3.94723">
        <ele>180.87</ele>
        <time>2021-08-08T11:13:02Z</time>
      </trkpt>
      <trkpt lat="49.88509" lon="3.94732">
        <ele>180.38</ele>
        <time>2021-08-08T11:13:10Z</time>
      </trkpt>
      <trkpt lat="49.88503" lon="3.94735">
        <ele>181.83</ele>
        <time>2021-08-08T11:13:12Z</time>
      </trkpt>
      <trkpt lat="49.8848" lon="3.94748">
        <ele>181.83</ele>
        <time>2021-08-08T11:13:20Z</time>
      </trkpt>
      <trkpt lat="49.88454" lon="3.94768">
        <ele>182.31</ele>
        <time>2021-08-08T11:13:29Z</time>
      </trkpt>
      <trkpt lat="49.88429" lon="3.94806">
        <ele>184.23</ele>
        <time>2021-08-08T11:13:40Z</time>
      </trkpt>
      <trkpt lat="49.88408" lon="3.94842">
        <ele>184.23</ele>
        <time>2021-08-08T11:13:50Z</time>
      </trkpt>
      <trkpt lat="49.88393" lon="3.94867">
        <ele>185.19</ele>
        <time>2021-08-08T11:13:57Z</time>
      </trkpt>
      <trkpt lat="49.88369" lon="3.949">
        <ele>184.23</ele>
        <time>2021-08-08T11:14:07Z</time>
      </trkpt>
      <trkpt lat="49.88364" lon="3.94906">
        <ele>185.67</ele>
        <time>2021-08-08T11:14:09Z</time>
      </trkpt>
      <trkpt lat="49.88336" lon="3.94932">
        <ele>186.63</ele>
        <time>2021-08-08T11:14:19Z</time>
      </trkpt>
      <trkpt lat="49.88308" lon="3.94956">
        <ele>187.59</ele>
        <time>2021-08-08T11:14:29Z</time>
      </trkpt>
      <trkpt lat="49.88278" lon="3.9498">
        <ele>188.08</ele>
        <time>2021-08-08T11:14:39Z</time>
      </trkpt>
      <trkpt lat="49.88247" lon="3.95002">
        <ele>190</ele>
        <time>2021-08-08T11:14:49Z</time>
      </trkpt>
      <trkpt lat="49.88208" lon="3.95026">
        <ele>190.48</ele>
        <time>2021-08-08T11:15:01Z</time>
      </trkpt>
      <trkpt lat="49.88182" lon="3.95041">
        <ele>190.48</ele>
        <time>2021-08-08T11:15:09Z</time>
      </trkpt>
      <trkpt lat="49.88151" lon="3.95064">
        <ele>191.44</ele>
        <time>2021-08-08T11:15:19Z</time>
      </trkpt>
      <trkpt lat="49.8812" lon="3.95093">
        <ele>192.88</ele>
        <time>2021-08-08T11:15:29Z</time>
      </trkpt>
      <trkpt lat="49.88092" lon="3.95128">
        <ele>193.36</ele>
        <time>2021-08-08T11:15:39Z</time>
      </trkpt>
      <trkpt lat="49.88066" lon="3.95158">
        <ele>193.84</ele>
        <time>2021-08-08T11:15:48Z</time>
      </trkpt>
      <trkpt lat="49.88037" lon="3.95192">
        <ele>193.84</ele>
        <time>2021-08-08T11:15:58Z</time>
      </trkpt>
      <trkpt lat="49.88012" lon="3.95223">
        <ele>195.28</ele>
        <time>2021-08-08T11:16:07Z</time>
      </trkpt>
      <trkpt lat="49.87982" lon="3.9526">
        <ele>196.25</ele>
        <time>2021-08-08T11:16:18Z</time>
      </trkpt>
      <trkpt lat="49.87955" lon="3.95291">
        <ele>196.73</ele>
        <time>2021-08-08T11:16:27Z</time>
      </trkpt>
      <trkpt lat="49.87922" lon="3.9533">
        <ele>197.69</ele>
        <time>2021-08-08T11:16:38Z</time>
      </trkpt>
      <trkpt lat="49.879" lon="3.95358">
        <ele>198.17</ele>
        <time>2021-08-08T11:16:45Z</time>
      </trkpt>
      <trkpt lat="49.87898" lon="3.95364">
        <ele>198.17</ele>
        <time>2021-08-08T11:16:46Z</time>
      </trkpt>
      <trkpt lat="49.87899" lon="3.9537">
        <ele>198.17</ele>
        <time>2021-08-08T11:16:47Z</time>
      </trkpt>
      <trkpt lat="49.87901" lon="3.95376">
        <ele>198.17</ele>
        <time>2021-08-08T11:16:48Z</time>
      </trkpt>
      <trkpt lat="49.87904" lon="3.95381">
        <ele>198.17</ele>
        <time>2021-08-08T11:16:49Z</time>
      </trkpt>
      <trkpt lat="49.87907" lon="3.95386">
        <ele>198.17</ele>
        <time>2021-08-08T11:16:50Z</time>
      </trkpt>
      <trkpt lat="49.87917" lon="3.95406">
        <ele>196.73</ele>
        <time>2021-08-08T11:16:53Z</time>
      </trkpt>
      <trkpt lat="49.87943" lon="3.95453">
        <ele>193.84</ele>
        <time>2021-08-08T11:16:59Z</time>
      </trkpt>
      <trkpt lat="49.87975" lon="3.95511">
        <ele>191.92</ele>
        <time>2021-08-08T11:17:05Z</time>
      </trkpt>
      <trkpt lat="49.87987" lon="3.95533">
        <ele>190.96</ele>
        <time>2021-08-08T11:17:07Z</time>
      </trkpt>
      <trkpt lat="49.88" lon="3.95568">
        <ele>190</ele>
        <time>2021-08-08T11:17:10Z</time>
      </trkpt>
      <trkpt lat="49.88003" lon="3.9558">
        <ele>189.52</ele>
        <time>2021-08-08T11:17:11Z</time>
      </trkpt>
      <trkpt lat="49.88007" lon="3.95602">
        <ele>188.56</ele>
        <time>2021-08-08T11:17:13Z</time>
      </trkpt>
      <trkpt lat="49.88016" lon="3.95632">
        <ele>188.56</ele>
        <time>2021-08-08T11:17:17Z</time>
      </trkpt>
      <trkpt lat="49.88019" lon="3.95639">
        <ele>188.56</ele>
        <time>2021-08-08T11:17:18Z</time>
      </trkpt>
      <trkpt lat="49.88024" lon="3.95644">
        <ele>187.59</ele>
        <time>2021-08-08T11:17:19Z</time>
      </trkpt>
      <trkpt lat="49.8803" lon="3.95651">
        <ele>187.11</ele>
        <time>2021-08-08T11:17:20Z</time>
      </trkpt>
      <trkpt lat="49.88071" lon="3.95698">
        <ele>184.23</ele>
        <time>2021-08-08T11:17:27Z</time>
      </trkpt>
      <trkpt lat="49.88122" lon="3.95757">
        <ele>181.35</ele>
        <time>2021-08-08T11:17:34Z</time>
      </trkpt>
      <trkpt lat="49.88174" lon="3.95814">
        <ele>177.02</ele>
        <time>2021-08-08T11:17:40Z</time>
      </trkpt>
      <trkpt lat="49.88194" lon="3.9583">
        <ele>176.54</ele>
        <time>2021-08-08T11:17:42Z</time>
      </trkpt>
      <trkpt lat="49.88227" lon="3.95848">
        <ele>172.69</ele>
        <time>2021-08-08T11:17:45Z</time>
      </trkpt>
      <trkpt lat="49.88251" lon="3.95858">
        <ele>172.21</ele>
        <time>2021-08-08T11:17:47Z</time>
      </trkpt>
      <trkpt lat="49.88311" lon="3.95881">
        <ele>168.37</ele>
        <time>2021-08-08T11:17:52Z</time>
      </trkpt>
      <trkpt lat="49.88361" lon="3.95903">
        <ele>165</ele>
        <time>2021-08-08T11:17:56Z</time>
      </trkpt>
      <trkpt lat="49.88386" lon="3.95918">
        <ele>163.56</ele>
        <time>2021-08-08T11:17:58Z</time>
      </trkpt>
      <trkpt lat="49.88409" lon="3.95937">
        <ele>162.12</ele>
        <time>2021-08-08T11:18:00Z</time>
      </trkpt>
      <trkpt lat="49.88498" lon="3.96004">
        <ele>158.75</ele>
        <time>2021-08-08T11:18:08Z</time>
      </trkpt>
      <trkpt lat="49.88535" lon="3.96021">
        <ele>158.75</ele>
        <time>2021-08-08T11:18:13Z</time>
      </trkpt>
      <trkpt lat="49.88539" lon="3.96024">
        <ele>158.75</ele>
        <time>2021-08-08T11:18:14Z</time>
      </trkpt>
      <trkpt lat="49.88541" lon="3.96028">
        <ele>158.27</ele>
        <time>2021-08-08T11:18:15Z</time>
      </trkpt>
      <trkpt lat="49.88541" lon="3.96033">
        <ele>158.27</ele>
        <time>2021-08-08T11:18:16Z</time>
      </trkpt>
      <trkpt lat="49.8854" lon="3.96037">
        <ele>158.27</ele>
        <time>2021-08-08T11:18:17Z</time>
      </trkpt>
      <trkpt lat="49.88539" lon="3.96041">
        <ele>158.27</ele>
        <time>2021-08-08T11:18:18Z</time>
      </trkpt>
      <trkpt lat="49.88538" lon="3.96046">
        <ele>158.27</ele>
        <time>2021-08-08T11:18:19Z</time>
      </trkpt>
      <trkpt lat="49.88536" lon="3.9605">
        <ele>158.27</ele>
        <time>2021-08-08T11:18:20Z</time>
      </trkpt>
      <trkpt lat="49.88535" lon="3.96054">
        <ele>158.27</ele>
        <time>2021-08-08T11:18:21Z</time>
      </trkpt>
      <trkpt lat="49.88529" lon="3.96074">
        <ele>159.72</ele>
        <time>2021-08-08T11:18:26Z</time>
      </trkpt>
      <trkpt lat="49.88515" lon="3.96125">
        <ele>161.64</ele>
        <time>2021-08-08T11:18:37Z</time>
      </trkpt>
      <trkpt lat="49.88503" lon="3.96166">
        <ele>161.64</ele>
        <time>2021-08-08T11:18:44Z</time>
      </trkpt>
      <trkpt lat="49.88487" lon="3.96221">
        <ele>159.24</ele>
        <time>2021-08-08T11:18:53Z</time>
      </trkpt>
      <trkpt lat="49.88471" lon="3.96277">
        <ele>156.83</ele>
        <time>2021-08-08T11:19:00Z</time>
      </trkpt>
      <trkpt lat="49.88461" lon="3.96314">
        <ele>153.95</ele>
        <time>2021-08-08T11:19:04Z</time>
      </trkpt>
      <trkpt lat="49.88459" lon="3.96324">
        <ele>153.95</ele>
        <time>2021-08-08T11:19:05Z</time>
      </trkpt>
      <trkpt lat="49.88439" lon="3.96401">
        <ele>150.1</ele>
        <time>2021-08-08T11:19:12Z</time>
      </trkpt>
      <trkpt lat="49.88436" lon="3.96413">
        <ele>150.1</ele>
        <time>2021-08-08T11:19:13Z</time>
      </trkpt>
      <trkpt lat="49.88427" lon="3.96449">
        <ele>146.74</ele>
        <time>2021-08-08T11:19:16Z</time>
      </trkpt>
      <trkpt lat="49.88423" lon="3.96461">
        <ele>146.74</ele>
        <time>2021-08-08T11:19:17Z</time>
      </trkpt>
      <trkpt lat="49.88409" lon="3.96513">
        <ele>146.26</ele>
        <time>2021-08-08T11:19:22Z</time>
      </trkpt>
      <trkpt lat="49.88407" lon="3.9652">
        <ele>145.78</ele>
        <time>2021-08-08T11:19:23Z</time>
      </trkpt>
      <trkpt lat="49.88404" lon="3.96525">
        <ele>146.26</ele>
        <time>2021-08-08T11:19:24Z</time>
      </trkpt>
      <trkpt lat="49.88401" lon="3.96528">
        <ele>145.78</ele>
        <time>2021-08-08T11:19:25Z</time>
      </trkpt>
      <trkpt lat="49.88397" lon="3.96528">
        <ele>145.78</ele>
        <time>2021-08-08T11:19:26Z</time>
      </trkpt>
      <trkpt lat="49.88394" lon="3.96527">
        <ele>145.78</ele>
        <time>2021-08-08T11:19:27Z</time>
      </trkpt>
      <trkpt lat="49.8839" lon="3.96524">
        <ele>145.78</ele>
        <time>2021-08-08T11:19:28Z</time>
      </trkpt>
      <trkpt lat="49.88387" lon="3.96522">
        <ele>145.78</ele>
        <time>2021-08-08T11:19:29Z</time>
      </trkpt>
      <trkpt lat="49.88361" lon="3.96504">
        <ele>145.3</ele>
        <time>2021-08-08T11:19:36Z</time>
      </trkpt>
      <trkpt lat="49.88338" lon="3.96488">
        <ele>145.3</ele>
        <time>2021-08-08T11:19:43Z</time>
      </trkpt>
      <trkpt lat="49.8833" lon="3.96482">
        <ele>146.74</ele>
        <time>2021-08-08T11:19:46Z</time>
      </trkpt>
      <trkpt lat="49.88312" lon="3.96471">
        <ele>147.7</ele>
        <time>2021-08-08T11:19:54Z</time>
      </trkpt>
      <trkpt lat="49.88286" lon="3.96456">
        <ele>147.7</ele>
        <time>2021-08-08T11:20:03Z</time>
      </trkpt>
      <trkpt lat="49.88251" lon="3.96441">
        <ele>147.7</ele>
        <time>2021-08-08T11:20:12Z</time>
      </trkpt>
      <trkpt lat="49.88234" lon="3.96437">
        <ele>146.26</ele>
        <time>2021-08-08T11:20:16Z</time>
      </trkpt>
      <trkpt lat="49.882" lon="3.96439">
        <ele>146.26</ele>
        <time>2021-08-08T11:20:25Z</time>
      </trkpt>
      <trkpt lat="49.88175" lon="3.96449">
        <ele>145.3</ele>
        <time>2021-08-08T11:20:32Z</time>
      </trkpt>
      <trkpt lat="49.8815" lon="3.96466">
        <ele>144.34</ele>
        <time>2021-08-08T11:20:40Z</time>
      </trkpt>
      <trkpt lat="49.88138" lon="3.96469">
        <ele>144.34</ele>
        <time>2021-08-08T11:20:47Z</time>
      </trkpt>
      <trkpt lat="49.88136" lon="3.9647">
        <ele>144.34</ele>
        <time>2021-08-08T11:20:48Z</time>
      </trkpt>
      <trkpt lat="49.88134" lon="3.96471">
        <ele>144.34</ele>
        <time>2021-08-08T11:20:49Z</time>
      </trkpt>
      <trkpt lat="49.88119" lon="3.96474">
        <ele>145.78</ele>
        <time>2021-08-08T11:20:55Z</time>
      </trkpt>
      <trkpt lat="49.881" lon="3.96479">
        <ele>146.26</ele>
        <time>2021-08-08T11:21:03Z</time>
      </trkpt>
      <trkpt lat="49.88085" lon="3.96482">
        <ele>146.26</ele>
        <time>2021-08-08T11:21:09Z</time>
      </trkpt>
      <trkpt lat="49.88066" lon="3.96484">
        <ele>147.22</ele>
        <time>2021-08-08T11:21:17Z</time>
      </trkpt>
      <trkpt lat="49.88048" lon="3.96483">
        <ele>147.7</ele>
        <time>2021-08-08T11:21:26Z</time>
      </trkpt>
      <trkpt lat="49.88044" lon="3.96484">
        <ele>147.7</ele>
        <time>2021-08-08T11:21:28Z</time>
      </trkpt>
      <trkpt lat="49.88034" lon="3.96482">
        <ele>148.18</ele>
        <time>2021-08-08T11:21:33Z</time>
      </trkpt>
      <trkpt lat="49.88015" lon="3.96483">
        <ele>149.62</ele>
        <time>2021-08-08T11:21:42Z</time>
      </trkpt>
      <trkpt lat="49.87999" lon="3.96484">
        <ele>149.62</ele>
        <time>2021-08-08T11:21:49Z</time>
      </trkpt>
      <trkpt lat="49.87981" lon="3.96484">
        <ele>150.58</ele>
        <time>2021-08-08T11:21:57Z</time>
      </trkpt>
      <trkpt lat="49.87966" lon="3.96484">
        <ele>150.58</ele>
        <time>2021-08-08T11:22:04Z</time>
      </trkpt>
      <trkpt lat="49.87949" lon="3.96489">
        <ele>151.06</ele>
        <time>2021-08-08T11:22:11Z</time>
      </trkpt>
      <trkpt lat="49.87927" lon="3.96492">
        <ele>152.03</ele>
        <time>2021-08-08T11:22:20Z</time>
      </trkpt>
      <trkpt lat="49.87906" lon="3.96494">
        <ele>152.99</ele>
        <time>2021-08-08T11:22:28Z</time>
      </trkpt>
      <trkpt lat="49.87888" lon="3.96494">
        <ele>152.99</ele>
        <time>2021-08-08T11:22:35Z</time>
      </trkpt>
      <trkpt lat="49.87866" lon="3.96493">
        <ele>153.95</ele>
        <time>2021-08-08T11:22:43Z</time>
      </trkpt>
      <trkpt lat="49.87861" lon="3.96494">
        <ele>153.95</ele>
        <time>2021-08-08T11:22:45Z</time>
      </trkpt>
      <trkpt lat="49.87858" lon="3.96494">
        <ele>153.95</ele>
        <time>2021-08-08T11:22:46Z</time>
      </trkpt>
      <trkpt lat="49.87837" lon="3.96494">
        <ele>154.43</ele>
        <time>2021-08-08T11:22:53Z</time>
      </trkpt>
      <trkpt lat="49.87819" lon="3.96493">
        <ele>155.87</ele>
        <time>2021-08-08T11:23:00Z</time>
      </trkpt>
      <trkpt lat="49.87811" lon="3.96494">
        <ele>155.87</ele>
        <time>2021-08-08T11:23:04Z</time>
      </trkpt>
      <trkpt lat="49.87808" lon="3.96495">
        <ele>155.87</ele>
        <time>2021-08-08T11:23:05Z</time>
      </trkpt>
      <trkpt lat="49.87806" lon="3.96495">
        <ele>155.87</ele>
        <time>2021-08-08T11:23:06Z</time>
      </trkpt>
      <trkpt lat="49.87805" lon="3.96495">
        <ele>155.87</ele>
        <time>2021-08-08T11:23:07Z</time>
      </trkpt>
      <trkpt lat="49.87802" lon="3.96496">
        <ele>156.35</ele>
        <time>2021-08-08T11:23:08Z</time>
      </trkpt>
      <trkpt lat="49.87789" lon="3.96496">
        <ele>156.83</ele>
        <time>2021-08-08T11:23:15Z</time>
      </trkpt>
      <trkpt lat="49.87771" lon="3.96496">
        <ele>158.27</ele>
        <time>2021-08-08T11:23:24Z</time>
      </trkpt>
      <trkpt lat="49.87759" lon="3.96497">
        <ele>158.75</ele>
        <time>2021-08-08T11:23:30Z</time>
      </trkpt>
      <trkpt lat="49.87744" lon="3.965">
        <ele>159.72</ele>
        <time>2021-08-08T11:23:38Z</time>
      </trkpt>
      <trkpt lat="49.87735" lon="3.96502">
        <ele>160.2</ele>
        <time>2021-08-08T11:23:44Z</time>
      </trkpt>
      <trkpt lat="49.87734" lon="3.96504">
        <ele>160.68</ele>
        <time>2021-08-08T11:23:45Z</time>
      </trkpt>
      <trkpt lat="49.87723" lon="3.96513">
        <ele>161.64</ele>
        <time>2021-08-08T11:23:53Z</time>
      </trkpt>
      <trkpt lat="49.87713" lon="3.96519">
        <ele>162.6</ele>
        <time>2021-08-08T11:23:59Z</time>
      </trkpt>
      <trkpt lat="49.87711" lon="3.96521">
        <ele>162.6</ele>
        <time>2021-08-08T11:24:00Z</time>
      </trkpt>
      <trkpt lat="49.8771" lon="3.96522">
        <ele>163.08</ele>
        <time>2021-08-08T11:24:01Z</time>
      </trkpt>
      <trkpt lat="49.87708" lon="3.96524">
        <ele>163.08</ele>
        <time>2021-08-08T11:24:02Z</time>
      </trkpt>
      <trkpt lat="49.87707" lon="3.96525">
        <ele>163.56</ele>
        <time>2021-08-08T11:24:03Z</time>
      </trkpt>
      <trkpt lat="49.87706" lon="3.96526">
        <ele>163.56</ele>
        <time>2021-08-08T11:24:04Z</time>
      </trkpt>
      <trkpt lat="49.87704" lon="3.96527">
        <ele>163.56</ele>
        <time>2021-08-08T11:24:05Z</time>
      </trkpt>
      <trkpt lat="49.87694" lon="3.9654">
        <ele>165</ele>
        <time>2021-08-08T11:24:13Z</time>
      </trkpt>
      <trkpt lat="49.87691" lon="3.96543">
        <ele>165.48</ele>
        <time>2021-08-08T11:24:15Z</time>
      </trkpt>
      <trkpt lat="49.87689" lon="3.96545">
        <ele>166.45</ele>
        <time>2021-08-08T11:24:16Z</time>
      </trkpt>
      <trkpt lat="49.87687" lon="3.96546">
        <ele>166.45</ele>
        <time>2021-08-08T11:24:17Z</time>
      </trkpt>
      <trkpt lat="49.87686" lon="3.96548">
        <ele>166.93</ele>
        <time>2021-08-08T11:24:18Z</time>
      </trkpt>
      <trkpt lat="49.87684" lon="3.96549">
        <ele>166.93</ele>
        <time>2021-08-08T11:24:19Z</time>
      </trkpt>
      <trkpt lat="49.87682" lon="3.96551">
        <ele>166.93</ele>
        <time>2021-08-08T11:24:20Z</time>
      </trkpt>
      <trkpt lat="49.8768" lon="3.96552">
        <ele>167.41</ele>
        <time>2021-08-08T11:24:21Z</time>
      </trkpt>
      <trkpt lat="49.87664" lon="3.96569">
        <ele>170.29</ele>
        <time>2021-08-08T11:24:30Z</time>
      </trkpt>
      <trkpt lat="49.87653" lon="3.96577">
        <ele>171.25</ele>
        <time>2021-08-08T11:24:37Z</time>
      </trkpt>
      <trkpt lat="49.87638" lon="3.96587">
        <ele>173.17</ele>
        <time>2021-08-08T11:24:48Z</time>
      </trkpt>
      <trkpt lat="49.87625" lon="3.96593">
        <ele>174.62</ele>
        <time>2021-08-08T11:24:57Z</time>
      </trkpt>
      <trkpt lat="49.87622" lon="3.96595">
        <ele>174.62</ele>
        <time>2021-08-08T11:24:59Z</time>
      </trkpt>
      <trkpt lat="49.87621" lon="3.96595">
        <ele>174.62</ele>
        <time>2021-08-08T11:25:00Z</time>
      </trkpt>
      <trkpt lat="49.8762" lon="3.96595">
        <ele>175.1</ele>
        <time>2021-08-08T11:25:01Z</time>
      </trkpt>
      <trkpt lat="49.87612" lon="3.96595">
        <ele>176.06</ele>
        <time>2021-08-08T11:25:08Z</time>
      </trkpt>
      <trkpt lat="49.8761" lon="3.96596">
        <ele>176.54</ele>
        <time>2021-08-08T11:25:10Z</time>
      </trkpt>
      <trkpt lat="49.876" lon="3.966">
        <ele>177.5</ele>
        <time>2021-08-08T11:25:18Z</time>
      </trkpt>
      <trkpt lat="49.87593" lon="3.96601">
        <ele>177.98</ele>
        <time>2021-08-08T11:25:24Z</time>
      </trkpt>
      <trkpt lat="49.8758" lon="3.96607">
        <ele>179.42</ele>
        <time>2021-08-08T11:25:32Z</time>
      </trkpt>
      <trkpt lat="49.8757" lon="3.96609">
        <ele>180.38</ele>
        <time>2021-08-08T11:25:38Z</time>
      </trkpt>
      <trkpt lat="49.87568" lon="3.9661">
        <ele>180.87</ele>
        <time>2021-08-08T11:25:39Z</time>
      </trkpt>
      <trkpt lat="49.87566" lon="3.9661">
        <ele>180.87</ele>
        <time>2021-08-08T11:25:40Z</time>
      </trkpt>
      <trkpt lat="49.8755" lon="3.96614">
        <ele>181.83</ele>
        <time>2021-08-08T11:25:49Z</time>
      </trkpt>
      <trkpt lat="49.87538" lon="3.96619">
        <ele>182.79</ele>
        <time>2021-08-08T11:25:56Z</time>
      </trkpt>
      <trkpt lat="49.87527" lon="3.96622">
        <ele>183.75</ele>
        <time>2021-08-08T11:26:03Z</time>
      </trkpt>
      <trkpt lat="49.87512" lon="3.96628">
        <ele>184.71</ele>
        <time>2021-08-08T11:26:12Z</time>
      </trkpt>
      <trkpt lat="49.87499" lon="3.96633">
        <ele>185.67</ele>
        <time>2021-08-08T11:26:20Z</time>
      </trkpt>
      <trkpt lat="49.87483" lon="3.96637">
        <ele>187.11</ele>
        <time>2021-08-08T11:26:30Z</time>
      </trkpt>
      <trkpt lat="49.8747" lon="3.9664">
        <ele>187.59</ele>
        <time>2021-08-08T11:26:37Z</time>
      </trkpt>
      <trkpt lat="49.87468" lon="3.96641">
        <ele>188.08</ele>
        <time>2021-08-08T11:26:39Z</time>
      </trkpt>
      <trkpt lat="49.87466" lon="3.96641">
        <ele>188.08</ele>
        <time>2021-08-08T11:26:40Z</time>
      </trkpt>
      <trkpt lat="49.87464" lon="3.96641">
        <ele>188.08</ele>
        <time>2021-08-08T11:26:41Z</time>
      </trkpt>
      <trkpt lat="49.8745" lon="3.96643">
        <ele>189.04</ele>
        <time>2021-08-08T11:26:49Z</time>
      </trkpt>
      <trkpt lat="49.87437" lon="3.96646">
        <ele>189.52</ele>
        <time>2021-08-08T11:26:56Z</time>
      </trkpt>
      <trkpt lat="49.8742" lon="3.96651">
        <ele>190.96</ele>
        <time>2021-08-08T11:27:04Z</time>
      </trkpt>
      <trkpt lat="49.87418" lon="3.96652">
        <ele>190.96</ele>
        <time>2021-08-08T11:27:05Z</time>
      </trkpt>
      <trkpt lat="49.87087" lon="3.96797">
        <ele>206.34</ele>
        <time>2021-08-08T11:32:27Z</time>
      </trkpt>
      <trkpt lat="49.87083" lon="3.96791">
        <ele>207.3</ele>
        <time>2021-08-08T11:32:38Z</time>
      </trkpt>
      <trkpt lat="49.87082" lon="3.96789">
        <ele>208.26</ele>
        <time>2021-08-08T11:32:43Z</time>
      </trkpt>
      <trkpt lat="49.87081" lon="3.96792">
        <ele>210.19</ele>
        <time>2021-08-08T11:32:51Z</time>
      </trkpt>
      <trkpt lat="49.87081" lon="3.96794">
        <ele>212.11</ele>
        <time>2021-08-08T11:33:01Z</time>
      </trkpt>
      <trkpt lat="49.87072" lon="3.96798">
        <ele>213.55</ele>
        <time>2021-08-08T11:33:09Z</time>
      </trkpt>
      <trkpt lat="49.8707" lon="3.96796">
        <ele>206.82</ele>
        <time>2021-08-08T11:33:13Z</time>
      </trkpt>
      <trkpt lat="49.87069" lon="3.96796">
        <ele>214.03</ele>
        <time>2021-08-08T11:33:14Z</time>
      </trkpt>
      <trkpt lat="49.87068" lon="3.96796">
        <ele>214.03</ele>
        <time>2021-08-08T11:33:16Z</time>
      </trkpt>
      <trkpt lat="49.8706" lon="3.968">
        <ele>214.03</ele>
        <time>2021-08-08T11:33:21Z</time>
      </trkpt>
      <trkpt lat="49.87058" lon="3.96801">
        <ele>214.03</ele>
        <time>2021-08-08T11:33:22Z</time>
      </trkpt>
      <trkpt lat="49.87056" lon="3.96802">
        <ele>214.03</ele>
        <time>2021-08-08T11:33:23Z</time>
      </trkpt>
      <trkpt lat="49.87054" lon="3.96802">
        <ele>214.03</ele>
        <time>2021-08-08T11:33:24Z</time>
      </trkpt>
      <trkpt lat="49.87031" lon="3.96811">
        <ele>214.99</ele>
        <time>2021-08-08T11:33:33Z</time>
      </trkpt>
      <trkpt lat="49.8701" lon="3.9682">
        <ele>214.99</ele>
        <time>2021-08-08T11:33:39Z</time>
      </trkpt>
      <trkpt lat="49.86994" lon="3.96826">
        <ele>213.55</ele>
        <time>2021-08-08T11:33:43Z</time>
      </trkpt>
      <trkpt lat="49.86989" lon="3.96829">
        <ele>213.55</ele>
        <time>2021-08-08T11:33:44Z</time>
      </trkpt>
      <trkpt lat="49.86949" lon="3.96857">
        <ele>213.55</ele>
        <time>2021-08-08T11:33:54Z</time>
      </trkpt>
      <trkpt lat="49.86933" lon="3.96867">
        <ele>214.99</ele>
        <time>2021-08-08T11:33:58Z</time>
      </trkpt>
      <trkpt lat="49.86886" lon="3.96896">
        <ele>215.47</ele>
        <time>2021-08-08T11:34:09Z</time>
      </trkpt>
      <trkpt lat="49.86842" lon="3.96916">
        <ele>216.43</ele>
        <time>2021-08-08T11:34:19Z</time>
      </trkpt>
      <trkpt lat="49.86806" lon="3.96935">
        <ele>216.43</ele>
        <time>2021-08-08T11:34:28Z</time>
      </trkpt>
      <trkpt lat="49.86798" lon="3.96939">
        <ele>216.43</ele>
        <time>2021-08-08T11:34:30Z</time>
      </trkpt>
      <trkpt lat="49.86774" lon="3.96938">
        <ele>216.43</ele>
        <time>2021-08-08T11:34:36Z</time>
      </trkpt>
      <trkpt lat="49.86747" lon="3.96923">
        <ele>217.4</ele>
        <time>2021-08-08T11:34:44Z</time>
      </trkpt>
      <trkpt lat="49.8672" lon="3.96913">
        <ele>218.36</ele>
        <time>2021-08-08T11:34:52Z</time>
      </trkpt>
      <trkpt lat="49.8669" lon="3.96907">
        <ele>219.8</ele>
        <time>2021-08-08T11:35:01Z</time>
      </trkpt>
      <trkpt lat="49.86662" lon="3.96913">
        <ele>220.28</ele>
        <time>2021-08-08T11:35:08Z</time>
      </trkpt>
      <trkpt lat="49.86648" lon="3.96919">
        <ele>218.84</ele>
        <time>2021-08-08T11:35:11Z</time>
      </trkpt>
      <trkpt lat="49.86594" lon="3.96938">
        <ele>217.4</ele>
        <time>2021-08-08T11:35:22Z</time>
      </trkpt>
      <trkpt lat="49.8656" lon="3.96944">
        <ele>217.4</ele>
        <time>2021-08-08T11:35:29Z</time>
      </trkpt>
      <trkpt lat="49.86555" lon="3.96944">
        <ele>217.4</ele>
        <time>2021-08-08T11:35:30Z</time>
      </trkpt>
      <trkpt lat="49.8655" lon="3.96945">
        <ele>217.4</ele>
        <time>2021-08-08T11:35:31Z</time>
      </trkpt>
      <trkpt lat="49.86545" lon="3.96945">
        <ele>217.4</ele>
        <time>2021-08-08T11:35:32Z</time>
      </trkpt>
      <trkpt lat="49.86541" lon="3.96946">
        <ele>217.4</ele>
        <time>2021-08-08T11:35:33Z</time>
      </trkpt>
      <trkpt lat="49.86537" lon="3.96947">
        <ele>217.4</ele>
        <time>2021-08-08T11:35:34Z</time>
      </trkpt>
      <trkpt lat="49.86532" lon="3.96947">
        <ele>217.4</ele>
        <time>2021-08-08T11:35:35Z</time>
      </trkpt>
      <trkpt lat="49.86529" lon="3.96947">
        <ele>217.4</ele>
        <time>2021-08-08T11:35:36Z</time>
      </trkpt>
      <trkpt lat="49.8651" lon="3.96956">
        <ele>217.4</ele>
        <time>2021-08-08T11:35:42Z</time>
      </trkpt>
      <trkpt lat="49.86484" lon="3.96969">
        <ele>216.91</ele>
        <time>2021-08-08T11:35:50Z</time>
      </trkpt>
      <trkpt lat="49.86456" lon="3.96986">
        <ele>216.91</ele>
        <time>2021-08-08T11:35:58Z</time>
      </trkpt>
      <trkpt lat="49.86452" lon="3.96989">
        <ele>216.91</ele>
        <time>2021-08-08T11:35:59Z</time>
      </trkpt>
      <trkpt lat="49.86416" lon="3.97011">
        <ele>216.91</ele>
        <time>2021-08-08T11:36:08Z</time>
      </trkpt>
      <trkpt lat="49.86409" lon="3.97017">
        <ele>218.36</ele>
        <time>2021-08-08T11:36:10Z</time>
      </trkpt>
      <trkpt lat="49.86373" lon="3.97041">
        <ele>218.36</ele>
        <time>2021-08-08T11:36:19Z</time>
      </trkpt>
      <trkpt lat="49.86339" lon="3.9706">
        <ele>218.84</ele>
        <time>2021-08-08T11:36:28Z</time>
      </trkpt>
      <trkpt lat="49.86319" lon="3.97068">
        <ele>218.84</ele>
        <time>2021-08-08T11:36:34Z</time>
      </trkpt>
      <trkpt lat="49.86293" lon="3.9708">
        <ele>219.8</ele>
        <time>2021-08-08T11:36:43Z</time>
      </trkpt>
      <trkpt lat="49.86273" lon="3.97085">
        <ele>221.24</ele>
        <time>2021-08-08T11:36:51Z</time>
      </trkpt>
      <trkpt lat="49.86251" lon="3.97093">
        <ele>222.2</ele>
        <time>2021-08-08T11:36:59Z</time>
      </trkpt>
      <trkpt lat="49.86234" lon="3.9711">
        <ele>222.2</ele>
        <time>2021-08-08T11:37:06Z</time>
      </trkpt>
      <trkpt lat="49.86219" lon="3.97121">
        <ele>222.2</ele>
        <time>2021-08-08T11:37:12Z</time>
      </trkpt>
      <trkpt lat="49.86199" lon="3.97139">
        <ele>222.2</ele>
        <time>2021-08-08T11:37:20Z</time>
      </trkpt>
      <trkpt lat="49.86185" lon="3.9715">
        <ele>222.2</ele>
        <time>2021-08-08T11:37:27Z</time>
      </trkpt>
      <trkpt lat="49.86181" lon="3.97155">
        <ele>222.68</ele>
        <time>2021-08-08T11:37:32Z</time>
      </trkpt>
      <trkpt lat="49.86179" lon="3.97155">
        <ele>222.68</ele>
        <time>2021-08-08T11:37:38Z</time>
      </trkpt>
      <trkpt lat="49.86179" lon="3.97156">
        <ele>222.68</ele>
        <time>2021-08-08T11:38:01Z</time>
      </trkpt>
      <trkpt lat="49.86179" lon="3.97154">
        <ele>222.68</ele>
        <time>2021-08-08T11:38:19Z</time>
      </trkpt>
      <trkpt lat="49.8618" lon="3.97154">
        <ele>222.68</ele>
        <time>2021-08-08T11:38:33Z</time>
      </trkpt>
      <trkpt lat="49.86179" lon="3.97155">
        <ele>222.68</ele>
        <time>2021-08-08T11:38:53Z</time>
      </trkpt>
      <trkpt lat="49.86179" lon="3.97154">
        <ele>222.2</ele>
        <time>2021-08-08T11:39:09Z</time>
      </trkpt>
      <trkpt lat="49.86179" lon="3.97155">
        <ele>222.2</ele>
        <time>2021-08-08T11:39:27Z</time>
      </trkpt>
      <trkpt lat="49.8618" lon="3.97153">
        <ele>222.2</ele>
        <time>2021-08-08T11:39:42Z</time>
      </trkpt>
      <trkpt lat="49.8618" lon="3.97154">
        <ele>222.2</ele>
        <time>2021-08-08T11:39:54Z</time>
      </trkpt>
      <trkpt lat="49.86179" lon="3.97156">
        <ele>222.2</ele>
        <time>2021-08-08T11:40:07Z</time>
      </trkpt>
      <trkpt lat="49.86179" lon="3.97157">
        <ele>222.2</ele>
        <time>2021-08-08T11:40:12Z</time>
      </trkpt>
      <trkpt lat="49.86177" lon="3.9716">
        <ele>222.2</ele>
        <time>2021-08-08T11:40:14Z</time>
      </trkpt>
      <trkpt lat="49.86176" lon="3.97162">
        <ele>222.2</ele>
        <time>2021-08-08T11:40:15Z</time>
      </trkpt>
      <trkpt lat="49.86174" lon="3.97164">
        <ele>222.2</ele>
        <time>2021-08-08T11:40:16Z</time>
      </trkpt>
      <trkpt lat="49.86173" lon="3.97167">
        <ele>222.2</ele>
        <time>2021-08-08T11:40:17Z</time>
      </trkpt>
      <trkpt lat="49.86171" lon="3.97169">
        <ele>222.2</ele>
        <time>2021-08-08T11:40:18Z</time>
      </trkpt>
      <trkpt lat="49.86169" lon="3.97172">
        <ele>222.2</ele>
        <time>2021-08-08T11:40:19Z</time>
      </trkpt>
      <trkpt lat="49.86151" lon="3.97191">
        <ele>222.2</ele>
        <time>2021-08-08T11:40:26Z</time>
      </trkpt>
      <trkpt lat="49.86128" lon="3.97211">
        <ele>222.2</ele>
        <time>2021-08-08T11:40:33Z</time>
      </trkpt>
      <trkpt lat="49.86106" lon="3.97226">
        <ele>222.2</ele>
        <time>2021-08-08T11:40:39Z</time>
      </trkpt>
      <trkpt lat="49.86094" lon="3.97233">
        <ele>222.2</ele>
        <time>2021-08-08T11:40:42Z</time>
      </trkpt>
      <trkpt lat="49.86076" lon="3.97241">
        <ele>220.76</ele>
        <time>2021-08-08T11:40:46Z</time>
      </trkpt>
      <trkpt lat="49.86069" lon="3.97248">
        <ele>220.28</ele>
        <time>2021-08-08T11:40:48Z</time>
      </trkpt>
      <trkpt lat="49.86065" lon="3.97251">
        <ele>220.28</ele>
        <time>2021-08-08T11:40:49Z</time>
      </trkpt>
      <trkpt lat="49.8606" lon="3.97253">
        <ele>219.8</ele>
        <time>2021-08-08T11:40:50Z</time>
      </trkpt>
      <trkpt lat="49.86056" lon="3.97256">
        <ele>219.8</ele>
        <time>2021-08-08T11:40:51Z</time>
      </trkpt>
      <trkpt lat="49.86051" lon="3.97258">
        <ele>219.8</ele>
        <time>2021-08-08T11:40:52Z</time>
      </trkpt>
      <trkpt lat="49.86047" lon="3.97261">
        <ele>219.8</ele>
        <time>2021-08-08T11:40:53Z</time>
      </trkpt>
      <trkpt lat="49.86017" lon="3.97277">
        <ele>219.8</ele>
        <time>2021-08-08T11:41:00Z</time>
      </trkpt>
      <trkpt lat="49.8599" lon="3.97293">
        <ele>221.24</ele>
        <time>2021-08-08T11:41:07Z</time>
      </trkpt>
      <trkpt lat="49.85955" lon="3.97312">
        <ele>221.24</ele>
        <time>2021-08-08T11:41:15Z</time>
      </trkpt>
      <trkpt lat="49.8593" lon="3.97324">
        <ele>219.8</ele>
        <time>2021-08-08T11:41:22Z</time>
      </trkpt>
      <trkpt lat="49.85922" lon="3.97334">
        <ele>218.84</ele>
        <time>2021-08-08T11:41:26Z</time>
      </trkpt>
      <trkpt lat="49.85921" lon="3.97338">
        <ele>218.84</ele>
        <time>2021-08-08T11:41:27Z</time>
      </trkpt>
      <trkpt lat="49.85921" lon="3.97341">
        <ele>218.84</ele>
        <time>2021-08-08T11:41:28Z</time>
      </trkpt>
      <trkpt lat="49.85921" lon="3.97346">
        <ele>218.84</ele>
        <time>2021-08-08T11:41:29Z</time>
      </trkpt>
      <trkpt lat="49.85921" lon="3.9735">
        <ele>218.84</ele>
        <time>2021-08-08T11:41:30Z</time>
      </trkpt>
      <trkpt lat="49.85922" lon="3.97356">
        <ele>218.84</ele>
        <time>2021-08-08T11:41:31Z</time>
      </trkpt>
      <trkpt lat="49.85925" lon="3.97397">
        <ele>218.84</ele>
        <time>2021-08-08T11:41:39Z</time>
      </trkpt>
      <trkpt lat="49.85932" lon="3.9746">
        <ele>218.84</ele>
        <time>2021-08-08T11:41:48Z</time>
      </trkpt>
      <trkpt lat="49.85934" lon="3.97476">
        <ele>218.84</ele>
        <time>2021-08-08T11:41:50Z</time>
      </trkpt>
      <trkpt lat="49.85934" lon="3.97484">
        <ele>218.84</ele>
        <time>2021-08-08T11:41:51Z</time>
      </trkpt>
      <trkpt lat="49.85932" lon="3.97491">
        <ele>218.84</ele>
        <time>2021-08-08T11:41:52Z</time>
      </trkpt>
      <trkpt lat="49.85928" lon="3.97498">
        <ele>218.84</ele>
        <time>2021-08-08T11:41:53Z</time>
      </trkpt>
      <trkpt lat="49.85923" lon="3.97502">
        <ele>218.84</ele>
        <time>2021-08-08T11:41:54Z</time>
      </trkpt>
      <trkpt lat="49.85919" lon="3.97506">
        <ele>218.84</ele>
        <time>2021-08-08T11:41:55Z</time>
      </trkpt>
      <trkpt lat="49.85914" lon="3.97511">
        <ele>218.36</ele>
        <time>2021-08-08T11:41:56Z</time>
      </trkpt>
      <trkpt lat="49.85908" lon="3.97514">
        <ele>218.36</ele>
        <time>2021-08-08T11:41:57Z</time>
      </trkpt>
      <trkpt lat="49.85856" lon="3.97547">
        <ele>217.4</ele>
        <time>2021-08-08T11:42:07Z</time>
      </trkpt>
      <trkpt lat="49.85806" lon="3.97584">
        <ele>218.36</ele>
        <time>2021-08-08T11:42:17Z</time>
      </trkpt>
      <trkpt lat="49.85759" lon="3.9762">
        <ele>218.36</ele>
        <time>2021-08-08T11:42:27Z</time>
      </trkpt>
      <trkpt lat="49.85715" lon="3.97651">
        <ele>216.43</ele>
        <time>2021-08-08T11:42:36Z</time>
      </trkpt>
      <trkpt lat="49.85688" lon="3.97671">
        <ele>215.95</ele>
        <time>2021-08-08T11:42:42Z</time>
      </trkpt>
      <trkpt lat="49.85683" lon="3.97671">
        <ele>215.95</ele>
        <time>2021-08-08T11:42:43Z</time>
      </trkpt>
      <trkpt lat="49.85679" lon="3.97669">
        <ele>216.43</ele>
        <time>2021-08-08T11:42:44Z</time>
      </trkpt>
      <trkpt lat="49.85676" lon="3.97665">
        <ele>215.95</ele>
        <time>2021-08-08T11:42:45Z</time>
      </trkpt>
      <trkpt lat="49.85673" lon="3.97659">
        <ele>216.43</ele>
        <time>2021-08-08T11:42:46Z</time>
      </trkpt>
      <trkpt lat="49.85672" lon="3.97654">
        <ele>216.43</ele>
        <time>2021-08-08T11:42:47Z</time>
      </trkpt>
      <trkpt lat="49.8567" lon="3.97648">
        <ele>217.4</ele>
        <time>2021-08-08T11:42:48Z</time>
      </trkpt>
      <trkpt lat="49.85668" lon="3.97642">
        <ele>217.4</ele>
        <time>2021-08-08T11:42:49Z</time>
      </trkpt>
      <trkpt lat="49.85655" lon="3.97606">
        <ele>217.88</ele>
        <time>2021-08-08T11:42:57Z</time>
      </trkpt>
      <trkpt lat="49.85637" lon="3.97561">
        <ele>218.84</ele>
        <time>2021-08-08T11:43:07Z</time>
      </trkpt>
      <trkpt lat="49.85618" lon="3.97519">
        <ele>219.32</ele>
        <time>2021-08-08T11:43:16Z</time>
      </trkpt>
      <trkpt lat="49.85606" lon="3.97494">
        <ele>219.32</ele>
        <time>2021-08-08T11:43:21Z</time>
      </trkpt>
      <trkpt lat="49.85604" lon="3.97488">
        <ele>217.88</ele>
        <time>2021-08-08T11:43:22Z</time>
      </trkpt>
      <trkpt lat="49.85601" lon="3.97483">
        <ele>217.88</ele>
        <time>2021-08-08T11:43:23Z</time>
      </trkpt>
      <trkpt lat="49.85599" lon="3.97477">
        <ele>217.88</ele>
        <time>2021-08-08T11:43:24Z</time>
      </trkpt>
      <trkpt lat="49.85596" lon="3.97472">
        <ele>217.88</ele>
        <time>2021-08-08T11:43:25Z</time>
      </trkpt>
      <trkpt lat="49.85593" lon="3.97467">
        <ele>217.88</ele>
        <time>2021-08-08T11:43:26Z</time>
      </trkpt>
      <trkpt lat="49.85576" lon="3.97434">
        <ele>217.4</ele>
        <time>2021-08-08T11:43:34Z</time>
      </trkpt>
      <trkpt lat="49.8555" lon="3.97385">
        <ele>218.84</ele>
        <time>2021-08-08T11:43:46Z</time>
      </trkpt>
      <trkpt lat="49.85538" lon="3.9736">
        <ele>217.88</ele>
        <time>2021-08-08T11:43:51Z</time>
      </trkpt>
      <trkpt lat="49.85531" lon="3.97345">
        <ele>216.43</ele>
        <time>2021-08-08T11:43:54Z</time>
      </trkpt>
      <trkpt lat="49.85528" lon="3.97339">
        <ele>216.43</ele>
        <time>2021-08-08T11:43:55Z</time>
      </trkpt>
      <trkpt lat="49.85514" lon="3.97315">
        <ele>215.47</ele>
        <time>2021-08-08T11:44:00Z</time>
      </trkpt>
      <trkpt lat="49.85512" lon="3.97309">
        <ele>215.47</ele>
        <time>2021-08-08T11:44:01Z</time>
      </trkpt>
      <trkpt lat="49.85488" lon="3.9726">
        <ele>213.07</ele>
        <time>2021-08-08T11:44:09Z</time>
      </trkpt>
      <trkpt lat="49.85482" lon="3.97247">
        <ele>212.59</ele>
        <time>2021-08-08T11:44:11Z</time>
      </trkpt>
      <trkpt lat="49.85479" lon="3.9724">
        <ele>211.63</ele>
        <time>2021-08-08T11:44:12Z</time>
      </trkpt>
      <trkpt lat="49.85445" lon="3.97176">
        <ele>209.7</ele>
        <time>2021-08-08T11:44:21Z</time>
      </trkpt>
      <trkpt lat="49.85413" lon="3.97119">
        <ele>208.74</ele>
        <time>2021-08-08T11:44:30Z</time>
      </trkpt>
      <trkpt lat="49.85385" lon="3.97069">
        <ele>206.82</ele>
        <time>2021-08-08T11:44:39Z</time>
      </trkpt>
      <trkpt lat="49.85379" lon="3.9706">
        <ele>206.82</ele>
        <time>2021-08-08T11:44:41Z</time>
      </trkpt>
      <trkpt lat="49.85376" lon="3.97055">
        <ele>206.82</ele>
        <time>2021-08-08T11:44:42Z</time>
      </trkpt>
      <trkpt lat="49.85373" lon="3.9705">
        <ele>206.82</ele>
        <time>2021-08-08T11:44:43Z</time>
      </trkpt>
      <trkpt lat="49.85364" lon="3.97029">
        <ele>206.82</ele>
        <time>2021-08-08T11:44:47Z</time>
      </trkpt>
      <trkpt lat="49.85362" lon="3.97023">
        <ele>206.82</ele>
        <time>2021-08-08T11:44:48Z</time>
      </trkpt>
      <trkpt lat="49.85345" lon="3.96988">
        <ele>206.34</ele>
        <time>2021-08-08T11:44:56Z</time>
      </trkpt>
      <trkpt lat="49.85324" lon="3.96947">
        <ele>206.34</ele>
        <time>2021-08-08T11:45:06Z</time>
      </trkpt>
      <trkpt lat="49.85313" lon="3.96922">
        <ele>207.78</ele>
        <time>2021-08-08T11:45:13Z</time>
      </trkpt>
      <trkpt lat="49.85297" lon="3.96887">
        <ele>208.26</ele>
        <time>2021-08-08T11:45:23Z</time>
      </trkpt>
      <trkpt lat="49.85282" lon="3.96855">
        <ele>209.7</ele>
        <time>2021-08-08T11:45:33Z</time>
      </trkpt>
      <trkpt lat="49.85272" lon="3.96827">
        <ele>210.67</ele>
        <time>2021-08-08T11:45:42Z</time>
      </trkpt>
      <trkpt lat="49.85259" lon="3.968">
        <ele>211.63</ele>
        <time>2021-08-08T11:45:52Z</time>
      </trkpt>
      <trkpt lat="49.85247" lon="3.96777">
        <ele>212.11</ele>
        <time>2021-08-08T11:46:00Z</time>
      </trkpt>
      <trkpt lat="49.85233" lon="3.96749">
        <ele>212.11</ele>
        <time>2021-08-08T11:46:10Z</time>
      </trkpt>
      <trkpt lat="49.85219" lon="3.96723">
        <ele>212.11</ele>
        <time>2021-08-08T11:46:18Z</time>
      </trkpt>
      <trkpt lat="49.85201" lon="3.96688">
        <ele>212.11</ele>
        <time>2021-08-08T11:46:28Z</time>
      </trkpt>
      <trkpt lat="49.85187" lon="3.9666">
        <ele>212.11</ele>
        <time>2021-08-08T11:46:36Z</time>
      </trkpt>
      <trkpt lat="49.8517" lon="3.96628">
        <ele>212.59</ele>
        <time>2021-08-08T11:46:45Z</time>
      </trkpt>
      <trkpt lat="49.85158" lon="3.96608">
        <ele>212.59</ele>
        <time>2021-08-08T11:46:51Z</time>
      </trkpt>
      <trkpt lat="49.85146" lon="3.9658">
        <ele>212.59</ele>
        <time>2021-08-08T11:46:59Z</time>
      </trkpt>
      <trkpt lat="49.85133" lon="3.96555">
        <ele>212.59</ele>
        <time>2021-08-08T11:47:06Z</time>
      </trkpt>
      <trkpt lat="49.85118" lon="3.96526">
        <ele>212.59</ele>
        <time>2021-08-08T11:47:13Z</time>
      </trkpt>
      <trkpt lat="49.85104" lon="3.96497">
        <ele>212.59</ele>
        <time>2021-08-08T11:47:20Z</time>
      </trkpt>
      <trkpt lat="49.8509" lon="3.9647">
        <ele>212.59</ele>
        <time>2021-08-08T11:47:27Z</time>
      </trkpt>
      <trkpt lat="49.85078" lon="3.96446">
        <ele>212.59</ele>
        <time>2021-08-08T11:47:35Z</time>
      </trkpt>
      <trkpt lat="49.85068" lon="3.96425">
        <ele>212.59</ele>
        <time>2021-08-08T11:47:41Z</time>
      </trkpt>
      <trkpt lat="49.85051" lon="3.96394">
        <ele>211.15</ele>
        <time>2021-08-08T11:47:50Z</time>
      </trkpt>
      <trkpt lat="49.85034" lon="3.96362">
        <ele>211.15</ele>
        <time>2021-08-08T11:47:58Z</time>
      </trkpt>
      <trkpt lat="49.85006" lon="3.96308">
        <ele>210.67</ele>
        <time>2021-08-08T11:48:09Z</time>
      </trkpt>
      <trkpt lat="49.84984" lon="3.96266">
        <ele>210.67</ele>
        <time>2021-08-08T11:48:18Z</time>
      </trkpt>
      <trkpt lat="49.84975" lon="3.96249">
        <ele>210.67</ele>
        <time>2021-08-08T11:48:23Z</time>
      </trkpt>
      <trkpt lat="49.84963" lon="3.96223">
        <ele>210.19</ele>
        <time>2021-08-08T11:48:30Z</time>
      </trkpt>
      <trkpt lat="49.84952" lon="3.96201">
        <ele>210.19</ele>
        <time>2021-08-08T11:48:38Z</time>
      </trkpt>
      <trkpt lat="49.84936" lon="3.96164">
        <ele>210.19</ele>
        <time>2021-08-08T11:48:46Z</time>
      </trkpt>
      <trkpt lat="49.84911" lon="3.96113">
        <ele>208.26</ele>
        <time>2021-08-08T11:48:56Z</time>
      </trkpt>
      <trkpt lat="49.84908" lon="3.96107">
        <ele>208.26</ele>
        <time>2021-08-08T11:48:57Z</time>
      </trkpt>
      <trkpt lat="49.849" lon="3.96092">
        <ele>207.78</ele>
        <time>2021-08-08T11:49:00Z</time>
      </trkpt>
      <trkpt lat="49.84876" lon="3.96045">
        <ele>206.34</ele>
        <time>2021-08-08T11:49:08Z</time>
      </trkpt>
      <trkpt lat="49.84868" lon="3.96029">
        <ele>206.34</ele>
        <time>2021-08-08T11:49:11Z</time>
      </trkpt>
      <trkpt lat="49.84848" lon="3.95992">
        <ele>206.34</ele>
        <time>2021-08-08T11:49:19Z</time>
      </trkpt>
      <trkpt lat="49.84833" lon="3.95962">
        <ele>206.34</ele>
        <time>2021-08-08T11:49:26Z</time>
      </trkpt>
      <trkpt lat="49.84815" lon="3.95933">
        <ele>205.86</ele>
        <time>2021-08-08T11:49:33Z</time>
      </trkpt>
      <trkpt lat="49.848" lon="3.95904">
        <ele>204.9</ele>
        <time>2021-08-08T11:49:39Z</time>
      </trkpt>
      <trkpt lat="49.84772" lon="3.95853">
        <ele>203.46</ele>
        <time>2021-08-08T11:49:49Z</time>
      </trkpt>
      <trkpt lat="49.84757" lon="3.95825">
        <ele>202.49</ele>
        <time>2021-08-08T11:49:55Z</time>
      </trkpt>
      <trkpt lat="49.84753" lon="3.9582">
        <ele>202.49</ele>
        <time>2021-08-08T11:49:56Z</time>
      </trkpt>
      <trkpt lat="49.84749" lon="3.95817">
        <ele>202.49</ele>
        <time>2021-08-08T11:49:57Z</time>
      </trkpt>
      <trkpt lat="49.84745" lon="3.95814">
        <ele>202.49</ele>
        <time>2021-08-08T11:49:58Z</time>
      </trkpt>
      <trkpt lat="49.8474" lon="3.95812">
        <ele>202.49</ele>
        <time>2021-08-08T11:49:59Z</time>
      </trkpt>
      <trkpt lat="49.84736" lon="3.95811">
        <ele>202.49</ele>
        <time>2021-08-08T11:50:00Z</time>
      </trkpt>
      <trkpt lat="49.84731" lon="3.95811">
        <ele>202.49</ele>
        <time>2021-08-08T11:50:01Z</time>
      </trkpt>
      <trkpt lat="49.84727" lon="3.95811">
        <ele>202.49</ele>
        <time>2021-08-08T11:50:02Z</time>
      </trkpt>
      <trkpt lat="49.84722" lon="3.95812">
        <ele>202.49</ele>
        <time>2021-08-08T11:50:03Z</time>
      </trkpt>
      <trkpt lat="49.84687" lon="3.95831">
        <ele>202.49</ele>
        <time>2021-08-08T11:50:11Z</time>
      </trkpt>
      <trkpt lat="49.84636" lon="3.9586">
        <ele>201.53</ele>
        <time>2021-08-08T11:50:21Z</time>
      </trkpt>
      <trkpt lat="49.84593" lon="3.95884">
        <ele>199.13</ele>
        <time>2021-08-08T11:50:29Z</time>
      </trkpt>
      <trkpt lat="49.84559" lon="3.95902">
        <ele>196.73</ele>
        <time>2021-08-08T11:50:34Z</time>
      </trkpt>
      <trkpt lat="49.84527" lon="3.95917">
        <ele>195.28</ele>
        <time>2021-08-08T11:50:38Z</time>
      </trkpt>
      <trkpt lat="49.84503" lon="3.95927">
        <ele>193.84</ele>
        <time>2021-08-08T11:50:41Z</time>
      </trkpt>
      <trkpt lat="49.84456" lon="3.95944">
        <ele>190</ele>
        <time>2021-08-08T11:50:46Z</time>
      </trkpt>
      <trkpt lat="49.8437" lon="3.95976">
        <ele>189.04</ele>
        <time>2021-08-08T11:50:56Z</time>
      </trkpt>
      <trkpt lat="49.84328" lon="3.95978">
        <ele>190</ele>
        <time>2021-08-08T11:51:02Z</time>
      </trkpt>
      <trkpt lat="49.84321" lon="3.95976">
        <ele>190.96</ele>
        <time>2021-08-08T11:51:03Z</time>
      </trkpt>
      <trkpt lat="49.84315" lon="3.95974">
        <ele>190.96</ele>
        <time>2021-08-08T11:51:04Z</time>
      </trkpt>
      <trkpt lat="49.84268" lon="3.95955">
        <ele>190.96</ele>
        <time>2021-08-08T11:51:12Z</time>
      </trkpt>
      <trkpt lat="49.84217" lon="3.95935">
        <ele>190.96</ele>
        <time>2021-08-08T11:51:21Z</time>
      </trkpt>
      <trkpt lat="49.84193" lon="3.95921">
        <ele>189.04</ele>
        <time>2021-08-08T11:51:25Z</time>
      </trkpt>
      <trkpt lat="49.84132" lon="3.95879">
        <ele>188.08</ele>
        <time>2021-08-08T11:51:36Z</time>
      </trkpt>
      <trkpt lat="49.841" lon="3.9586">
        <ele>188.08</ele>
        <time>2021-08-08T11:51:42Z</time>
      </trkpt>
      <trkpt lat="49.84095" lon="3.95859">
        <ele>188.08</ele>
        <time>2021-08-08T11:51:43Z</time>
      </trkpt>
      <trkpt lat="49.84089" lon="3.9586">
        <ele>188.08</ele>
        <time>2021-08-08T11:51:44Z</time>
      </trkpt>
      <trkpt lat="49.84083" lon="3.95863">
        <ele>188.08</ele>
        <time>2021-08-08T11:51:45Z</time>
      </trkpt>
      <trkpt lat="49.84077" lon="3.95867">
        <ele>188.08</ele>
        <time>2021-08-08T11:51:46Z</time>
      </trkpt>
      <trkpt lat="49.84072" lon="3.95871">
        <ele>187.11</ele>
        <time>2021-08-08T11:51:47Z</time>
      </trkpt>
      <trkpt lat="49.84066" lon="3.95876">
        <ele>186.63</ele>
        <time>2021-08-08T11:51:48Z</time>
      </trkpt>
      <trkpt lat="49.84021" lon="3.95914">
        <ele>184.23</ele>
        <time>2021-08-08T11:51:55Z</time>
      </trkpt>
      <trkpt lat="49.83993" lon="3.95934">
        <ele>181.35</ele>
        <time>2021-08-08T11:51:59Z</time>
      </trkpt>
      <trkpt lat="49.83986" lon="3.95936">
        <ele>180.38</ele>
        <time>2021-08-08T11:52:00Z</time>
      </trkpt>
      <trkpt lat="49.83972" lon="3.95941">
        <ele>179.9</ele>
        <time>2021-08-08T11:52:02Z</time>
      </trkpt>
      <trkpt lat="49.83962" lon="3.95947">
        <ele>179.9</ele>
        <time>2021-08-08T11:52:05Z</time>
      </trkpt>
      <trkpt lat="49.8396" lon="3.9595">
        <ele>179.9</ele>
        <time>2021-08-08T11:52:06Z</time>
      </trkpt>
      <trkpt lat="49.8396" lon="3.95954">
        <ele>179.9</ele>
        <time>2021-08-08T11:52:07Z</time>
      </trkpt>
      <trkpt lat="49.8396" lon="3.95958">
        <ele>179.9</ele>
        <time>2021-08-08T11:52:08Z</time>
      </trkpt>
      <trkpt lat="49.83962" lon="3.95964">
        <ele>179.42</ele>
        <time>2021-08-08T11:52:09Z</time>
      </trkpt>
      <trkpt lat="49.83963" lon="3.9597">
        <ele>178.94</ele>
        <time>2021-08-08T11:52:10Z</time>
      </trkpt>
      <trkpt lat="49.83975" lon="3.96025">
        <ele>176.54</ele>
        <time>2021-08-08T11:52:17Z</time>
      </trkpt>
      <trkpt lat="49.83994" lon="3.96103">
        <ele>173.66</ele>
        <time>2021-08-08T11:52:24Z</time>
      </trkpt>
      <trkpt lat="49.84009" lon="3.96168">
        <ele>170.29</ele>
        <time>2021-08-08T11:52:29Z</time>
      </trkpt>
      <trkpt lat="49.84018" lon="3.96233">
        <ele>166.45</ele>
        <time>2021-08-08T11:52:33Z</time>
      </trkpt>
      <trkpt lat="49.84023" lon="3.96302">
        <ele>164.04</ele>
        <time>2021-08-08T11:52:37Z</time>
      </trkpt>
      <trkpt lat="49.84021" lon="3.96319">
        <ele>164.04</ele>
        <time>2021-08-08T11:52:38Z</time>
      </trkpt>
      <trkpt lat="49.84019" lon="3.96334">
        <ele>164.04</ele>
        <time>2021-08-08T11:52:39Z</time>
      </trkpt>
      <trkpt lat="49.84012" lon="3.96387">
        <ele>166.93</ele>
        <time>2021-08-08T11:52:43Z</time>
      </trkpt>
      <trkpt lat="49.84011" lon="3.96397">
        <ele>167.41</ele>
        <time>2021-08-08T11:52:44Z</time>
      </trkpt>
      <trkpt lat="49.84012" lon="3.96406">
        <ele>167.89</ele>
        <time>2021-08-08T11:52:45Z</time>
      </trkpt>
      <trkpt lat="49.84013" lon="3.96416">
        <ele>168.85</ele>
        <time>2021-08-08T11:52:46Z</time>
      </trkpt>
      <trkpt lat="49.84014" lon="3.96424">
        <ele>169.33</ele>
        <time>2021-08-08T11:52:47Z</time>
      </trkpt>
      <trkpt lat="49.84015" lon="3.96431">
        <ele>169.81</ele>
        <time>2021-08-08T11:52:48Z</time>
      </trkpt>
      <trkpt lat="49.84017" lon="3.96442">
        <ele>170.77</ele>
        <time>2021-08-08T11:52:50Z</time>
      </trkpt>
      <trkpt lat="49.84024" lon="3.96465">
        <ele>172.69</ele>
        <time>2021-08-08T11:52:56Z</time>
      </trkpt>
      <trkpt lat="49.84031" lon="3.96489">
        <ele>174.62</ele>
        <time>2021-08-08T11:53:03Z</time>
      </trkpt>
      <trkpt lat="49.8404" lon="3.96512">
        <ele>176.06</ele>
        <time>2021-08-08T11:53:10Z</time>
      </trkpt>
      <trkpt lat="49.84048" lon="3.96539">
        <ele>177.02</ele>
        <time>2021-08-08T11:53:17Z</time>
      </trkpt>
      <trkpt lat="49.84056" lon="3.9657">
        <ele>178.94</ele>
        <time>2021-08-08T11:53:25Z</time>
      </trkpt>
      <trkpt lat="49.84062" lon="3.96625">
        <ele>180.38</ele>
        <time>2021-08-08T11:53:36Z</time>
      </trkpt>
      <trkpt lat="49.84066" lon="3.96687">
        <ele>180.38</ele>
        <time>2021-08-08T11:53:47Z</time>
      </trkpt>
      <trkpt lat="49.8407" lon="3.96734">
        <ele>181.35</ele>
        <time>2021-08-08T11:53:55Z</time>
      </trkpt>
      <trkpt lat="49.84074" lon="3.96797">
        <ele>182.31</ele>
        <time>2021-08-08T11:54:05Z</time>
      </trkpt>
      <trkpt lat="49.84075" lon="3.96804">
        <ele>182.31</ele>
        <time>2021-08-08T11:54:06Z</time>
      </trkpt>
      <trkpt lat="49.84081" lon="3.96871">
        <ele>182.79</ele>
        <time>2021-08-08T11:54:16Z</time>
      </trkpt>
      <trkpt lat="49.84088" lon="3.96955">
        <ele>182.79</ele>
        <time>2021-08-08T11:54:26Z</time>
      </trkpt>
      <trkpt lat="49.84097" lon="3.97044">
        <ele>181.35</ele>
        <time>2021-08-08T11:54:35Z</time>
      </trkpt>
      <trkpt lat="49.84114" lon="3.97121">
        <ele>181.35</ele>
        <time>2021-08-08T11:54:43Z</time>
      </trkpt>
      <trkpt lat="49.84119" lon="3.97139">
        <ele>182.79</ele>
        <time>2021-08-08T11:54:45Z</time>
      </trkpt>
      <trkpt lat="49.84145" lon="3.97222">
        <ele>183.75</ele>
        <time>2021-08-08T11:54:55Z</time>
      </trkpt>
      <trkpt lat="49.84164" lon="3.97276">
        <ele>184.71</ele>
        <time>2021-08-08T11:55:02Z</time>
      </trkpt>
      <trkpt lat="49.84203" lon="3.97364">
        <ele>186.15</ele>
        <time>2021-08-08T11:55:14Z</time>
      </trkpt>
      <trkpt lat="49.84231" lon="3.97427">
        <ele>186.15</ele>
        <time>2021-08-08T11:55:22Z</time>
      </trkpt>
      <trkpt lat="49.84259" lon="3.97487">
        <ele>184.23</ele>
        <time>2021-08-08T11:55:29Z</time>
      </trkpt>
      <trkpt lat="49.84287" lon="3.97565">
        <ele>183.27</ele>
        <time>2021-08-08T11:55:37Z</time>
      </trkpt>
      <trkpt lat="49.84316" lon="3.97667">
        <ele>180.38</ele>
        <time>2021-08-08T11:55:46Z</time>
      </trkpt>
      <trkpt lat="49.84337" lon="3.97714">
        <ele>179.42</ele>
        <time>2021-08-08T11:55:51Z</time>
      </trkpt>
      <trkpt lat="49.8434" lon="3.97721">
        <ele>179.42</ele>
        <time>2021-08-08T11:55:52Z</time>
      </trkpt>
      <trkpt lat="49.8434" lon="3.97729">
        <ele>178.94</ele>
        <time>2021-08-08T11:55:53Z</time>
      </trkpt>
      <trkpt lat="49.84339" lon="3.97738">
        <ele>177.98</ele>
        <time>2021-08-08T11:55:54Z</time>
      </trkpt>
      <trkpt lat="49.84336" lon="3.97746">
        <ele>177.5</ele>
        <time>2021-08-08T11:55:55Z</time>
      </trkpt>
      <trkpt lat="49.84333" lon="3.97754">
        <ele>177.98</ele>
        <time>2021-08-08T11:55:56Z</time>
      </trkpt>
      <trkpt lat="49.84329" lon="3.97763">
        <ele>177.02</ele>
        <time>2021-08-08T11:55:57Z</time>
      </trkpt>
      <trkpt lat="49.84315" lon="3.97792">
        <ele>175.1</ele>
        <time>2021-08-08T11:56:00Z</time>
      </trkpt>
      <trkpt lat="49.84304" lon="3.97811">
        <ele>173.17</ele>
        <time>2021-08-08T11:56:02Z</time>
      </trkpt>
      <trkpt lat="49.84297" lon="3.97821">
        <ele>173.17</ele>
        <time>2021-08-08T11:56:03Z</time>
      </trkpt>
      <trkpt lat="49.8429" lon="3.97829">
        <ele>173.17</ele>
        <time>2021-08-08T11:56:04Z</time>
      </trkpt>
      <trkpt lat="49.84283" lon="3.97835">
        <ele>172.21</ele>
        <time>2021-08-08T11:56:05Z</time>
      </trkpt>
      <trkpt lat="49.84274" lon="3.97841">
        <ele>172.21</ele>
        <time>2021-08-08T11:56:06Z</time>
      </trkpt>
      <trkpt lat="49.84266" lon="3.97846">
        <ele>170.77</ele>
        <time>2021-08-08T11:56:07Z</time>
      </trkpt>
      <trkpt lat="49.84257" lon="3.97852">
        <ele>169.81</ele>
        <time>2021-08-08T11:56:08Z</time>
      </trkpt>
      <trkpt lat="49.84248" lon="3.97856">
        <ele>169.81</ele>
        <time>2021-08-08T11:56:09Z</time>
      </trkpt>
      <trkpt lat="49.84211" lon="3.97876">
        <ele>165.48</ele>
        <time>2021-08-08T11:56:13Z</time>
      </trkpt>
      <trkpt lat="49.84203" lon="3.97881">
        <ele>165.48</ele>
        <time>2021-08-08T11:56:14Z</time>
      </trkpt>
      <trkpt lat="49.84181" lon="3.97894">
        <ele>165.48</ele>
        <time>2021-08-08T11:56:17Z</time>
      </trkpt>
      <trkpt lat="49.84175" lon="3.979">
        <ele>164.52</ele>
        <time>2021-08-08T11:56:18Z</time>
      </trkpt>
      <trkpt lat="49.84171" lon="3.97907">
        <ele>164.04</ele>
        <time>2021-08-08T11:56:19Z</time>
      </trkpt>
      <trkpt lat="49.8416" lon="3.97927">
        <ele>162.12</ele>
        <time>2021-08-08T11:56:21Z</time>
      </trkpt>
      <trkpt lat="49.84153" lon="3.97935">
        <ele>161.64</ele>
        <time>2021-08-08T11:56:22Z</time>
      </trkpt>
      <trkpt lat="49.84146" lon="3.97943">
        <ele>161.16</ele>
        <time>2021-08-08T11:56:23Z</time>
      </trkpt>
      <trkpt lat="49.84139" lon="3.97949">
        <ele>160.2</ele>
        <time>2021-08-08T11:56:24Z</time>
      </trkpt>
      <trkpt lat="49.84132" lon="3.97953">
        <ele>160.68</ele>
        <time>2021-08-08T11:56:25Z</time>
      </trkpt>
      <trkpt lat="49.84126" lon="3.97956">
        <ele>160.68</ele>
        <time>2021-08-08T11:56:26Z</time>
      </trkpt>
      <trkpt lat="49.84112" lon="3.97961">
        <ele>160.68</ele>
        <time>2021-08-08T11:56:30Z</time>
      </trkpt>
      <trkpt lat="49.84112" lon="3.97963">
        <ele>160.68</ele>
        <time>2021-08-08T11:56:31Z</time>
      </trkpt>
      <trkpt lat="49.8411" lon="3.97964">
        <ele>160.68</ele>
        <time>2021-08-08T11:56:33Z</time>
      </trkpt>
      <trkpt lat="49.84109" lon="3.97964">
        <ele>160.68</ele>
        <time>2021-08-08T11:56:34Z</time>
      </trkpt>
      <trkpt lat="49.84107" lon="3.97964">
        <ele>160.68</ele>
        <time>2021-08-08T11:56:35Z</time>
      </trkpt>
      <trkpt lat="49.84101" lon="3.97968">
        <ele>160.68</ele>
        <time>2021-08-08T11:56:41Z</time>
      </trkpt>
      <trkpt lat="49.84098" lon="3.9797">
        <ele>160.68</ele>
        <time>2021-08-08T11:56:47Z</time>
      </trkpt>
      <trkpt lat="49.84093" lon="3.97976">
        <ele>160.68</ele>
        <time>2021-08-08T11:56:55Z</time>
      </trkpt>
      <trkpt lat="49.84093" lon="3.97977">
        <ele>162.12</ele>
        <time>2021-08-08T11:57:01Z</time>
      </trkpt>
      <trkpt lat="49.84093" lon="3.9798">
        <ele>162.12</ele>
        <time>2021-08-08T11:57:05Z</time>
      </trkpt>
      <trkpt lat="49.84092" lon="3.97983">
        <ele>162.12</ele>
        <time>2021-08-08T11:57:06Z</time>
      </trkpt>
      <trkpt lat="49.84092" lon="3.97985">
        <ele>162.12</ele>
        <time>2021-08-08T11:57:07Z</time>
      </trkpt>
      <trkpt lat="49.84091" lon="3.97988">
        <ele>162.6</ele>
        <time>2021-08-08T11:57:08Z</time>
      </trkpt>
      <trkpt lat="49.84091" lon="3.9799">
        <ele>162.6</ele>
        <time>2021-08-08T11:57:09Z</time>
      </trkpt>
      <trkpt lat="49.84087" lon="3.98014">
        <ele>164.04</ele>
        <time>2021-08-08T11:57:18Z</time>
      </trkpt>
      <trkpt lat="49.84077" lon="3.98036">
        <ele>165.96</ele>
        <time>2021-08-08T11:57:28Z</time>
      </trkpt>
      <trkpt lat="49.84063" lon="3.98049">
        <ele>166.93</ele>
        <time>2021-08-08T11:57:37Z</time>
      </trkpt>
      <trkpt lat="49.84061" lon="3.98051">
        <ele>167.89</ele>
        <time>2021-08-08T11:57:38Z</time>
      </trkpt>
      <trkpt lat="49.8406" lon="3.98052">
        <ele>167.89</ele>
        <time>2021-08-08T11:57:39Z</time>
      </trkpt>
      <trkpt lat="49.84059" lon="3.98053">
        <ele>167.89</ele>
        <time>2021-08-08T11:57:40Z</time>
      </trkpt>
      <trkpt lat="49.84057" lon="3.98054">
        <ele>167.89</ele>
        <time>2021-08-08T11:57:41Z</time>
      </trkpt>
      <trkpt lat="49.84056" lon="3.98056">
        <ele>167.41</ele>
        <time>2021-08-08T11:57:42Z</time>
      </trkpt>
      <trkpt lat="49.84055" lon="3.98057">
        <ele>167.41</ele>
        <time>2021-08-08T11:57:43Z</time>
      </trkpt>
      <trkpt lat="49.84053" lon="3.98058">
        <ele>167.41</ele>
        <time>2021-08-08T11:57:44Z</time>
      </trkpt>
      <trkpt lat="49.84052" lon="3.98059">
        <ele>167.41</ele>
        <time>2021-08-08T11:57:45Z</time>
      </trkpt>
      <trkpt lat="49.8405" lon="3.9806">
        <ele>167.41</ele>
        <time>2021-08-08T11:57:46Z</time>
      </trkpt>
      <trkpt lat="49.84045" lon="3.98062">
        <ele>168.37</ele>
        <time>2021-08-08T11:57:49Z</time>
      </trkpt>
      <trkpt lat="49.84029" lon="3.98058">
        <ele>169.81</ele>
        <time>2021-08-08T11:57:58Z</time>
      </trkpt>
      <trkpt lat="49.84012" lon="3.98049">
        <ele>170.77</ele>
        <time>2021-08-08T11:58:06Z</time>
      </trkpt>
      <trkpt lat="49.8399" lon="3.98035">
        <ele>171.73</ele>
        <time>2021-08-08T11:58:17Z</time>
      </trkpt>
      <trkpt lat="49.83973" lon="3.98024">
        <ele>172.69</ele>
        <time>2021-08-08T11:58:26Z</time>
      </trkpt>
      <trkpt lat="49.83951" lon="3.9801">
        <ele>173.17</ele>
        <time>2021-08-08T11:58:36Z</time>
      </trkpt>
      <trkpt lat="49.83932" lon="3.97994">
        <ele>174.14</ele>
        <time>2021-08-08T11:58:44Z</time>
      </trkpt>
      <trkpt lat="49.83919" lon="3.97975">
        <ele>175.1</ele>
        <time>2021-08-08T11:58:51Z</time>
      </trkpt>
      <trkpt lat="49.83909" lon="3.97959">
        <ele>175.58</ele>
        <time>2021-08-08T11:58:58Z</time>
      </trkpt>
      <trkpt lat="49.83896" lon="3.97946">
        <ele>177.98</ele>
        <time>2021-08-08T11:59:06Z</time>
      </trkpt>
      <trkpt lat="49.83886" lon="3.97944">
        <ele>178.46</ele>
        <time>2021-08-08T11:59:12Z</time>
      </trkpt>
      <trkpt lat="49.83884" lon="3.97945">
        <ele>178.94</ele>
        <time>2021-08-08T11:59:13Z</time>
      </trkpt>
      <trkpt lat="49.83882" lon="3.97945">
        <ele>179.42</ele>
        <time>2021-08-08T11:59:14Z</time>
      </trkpt>
      <trkpt lat="49.8388" lon="3.97946">
        <ele>179.42</ele>
        <time>2021-08-08T11:59:15Z</time>
      </trkpt>
      <trkpt lat="49.83879" lon="3.97948">
        <ele>179.42</ele>
        <time>2021-08-08T11:59:16Z</time>
      </trkpt>
      <trkpt lat="49.83877" lon="3.97949">
        <ele>179.9</ele>
        <time>2021-08-08T11:59:17Z</time>
      </trkpt>
      <trkpt lat="49.83875" lon="3.97951">
        <ele>179.9</ele>
        <time>2021-08-08T11:59:18Z</time>
      </trkpt>
      <trkpt lat="49.83868" lon="3.9796">
        <ele>181.35</ele>
        <time>2021-08-08T11:59:23Z</time>
      </trkpt>
      <trkpt lat="49.83858" lon="3.97975">
        <ele>183.27</ele>
        <time>2021-08-08T11:59:31Z</time>
      </trkpt>
      <trkpt lat="49.83847" lon="3.97992">
        <ele>184.71</ele>
        <time>2021-08-08T11:59:40Z</time>
      </trkpt>
      <trkpt lat="49.83836" lon="3.9801">
        <ele>186.15</ele>
        <time>2021-08-08T11:59:48Z</time>
      </trkpt>
      <trkpt lat="49.83821" lon="3.98031">
        <ele>188.08</ele>
        <time>2021-08-08T11:59:57Z</time>
      </trkpt>
      <trkpt lat="49.83812" lon="3.98034">
        <ele>188.56</ele>
        <time>2021-08-08T12:00:02Z</time>
      </trkpt>
      <trkpt lat="49.8381" lon="3.98033">
        <ele>188.56</ele>
        <time>2021-08-08T12:00:03Z</time>
      </trkpt>
      <trkpt lat="49.83808" lon="3.9803">
        <ele>188.56</ele>
        <time>2021-08-08T12:00:04Z</time>
      </trkpt>
      <trkpt lat="49.83806" lon="3.98027">
        <ele>188.56</ele>
        <time>2021-08-08T12:00:05Z</time>
      </trkpt>
      <trkpt lat="49.83805" lon="3.98024">
        <ele>188.56</ele>
        <time>2021-08-08T12:00:06Z</time>
      </trkpt>
      <trkpt lat="49.83804" lon="3.9802">
        <ele>188.56</ele>
        <time>2021-08-08T12:00:07Z</time>
      </trkpt>
      <trkpt lat="49.83787" lon="3.97975">
        <ele>188.56</ele>
        <time>2021-08-08T12:00:16Z</time>
      </trkpt>
      <trkpt lat="49.83783" lon="3.97963">
        <ele>186.63</ele>
        <time>2021-08-08T12:00:18Z</time>
      </trkpt>
      <trkpt lat="49.83758" lon="3.97916">
        <ele>185.67</ele>
        <time>2021-08-08T12:00:27Z</time>
      </trkpt>
      <trkpt lat="49.83734" lon="3.97884">
        <ele>186.15</ele>
        <time>2021-08-08T12:00:35Z</time>
      </trkpt>
      <trkpt lat="49.8373" lon="3.9788">
        <ele>187.11</ele>
        <time>2021-08-08T12:00:39Z</time>
      </trkpt>
      <trkpt lat="49.83731" lon="3.97882">
        <ele>187.11</ele>
        <time>2021-08-08T12:00:52Z</time>
      </trkpt>
      <trkpt lat="49.8373" lon="3.97881">
        <ele>187.11</ele>
        <time>2021-08-08T12:00:57Z</time>
      </trkpt>
      <trkpt lat="49.8373" lon="3.9788">
        <ele>187.11</ele>
        <time>2021-08-08T12:01:04Z</time>
      </trkpt>
      <trkpt lat="49.8373" lon="3.9788">
        <ele>187.11</ele>
        <time>2021-08-08T12:01:14Z</time>
      </trkpt>
      <trkpt lat="49.83727" lon="3.97876">
        <ele>187.11</ele>
        <time>2021-08-08T12:01:21Z</time>
      </trkpt>
      <trkpt lat="49.83713" lon="3.97869">
        <ele>187.11</ele>
        <time>2021-08-08T12:01:29Z</time>
      </trkpt>
      <trkpt lat="49.83699" lon="3.97863">
        <ele>187.11</ele>
        <time>2021-08-08T12:01:37Z</time>
      </trkpt>
      <trkpt lat="49.83678" lon="3.97858">
        <ele>187.59</ele>
        <time>2021-08-08T12:01:44Z</time>
      </trkpt>
      <trkpt lat="49.83671" lon="3.97855">
        <ele>187.59</ele>
        <time>2021-08-08T12:01:46Z</time>
      </trkpt>
      <trkpt lat="49.83668" lon="3.97853">
        <ele>187.59</ele>
        <time>2021-08-08T12:01:47Z</time>
      </trkpt>
      <trkpt lat="49.83664" lon="3.97853">
        <ele>187.59</ele>
        <time>2021-08-08T12:01:48Z</time>
      </trkpt>
      <trkpt lat="49.83648" lon="3.97852">
        <ele>187.59</ele>
        <time>2021-08-08T12:01:52Z</time>
      </trkpt>
      <trkpt lat="49.83643" lon="3.97852">
        <ele>187.59</ele>
        <time>2021-08-08T12:01:53Z</time>
      </trkpt>
      <trkpt lat="49.8361" lon="3.97851">
        <ele>188.08</ele>
        <time>2021-08-08T12:02:01Z</time>
      </trkpt>
      <trkpt lat="49.83572" lon="3.97859">
        <ele>188.56</ele>
        <time>2021-08-08T12:02:11Z</time>
      </trkpt>
      <trkpt lat="49.83536" lon="3.97867">
        <ele>190</ele>
        <time>2021-08-08T12:02:21Z</time>
      </trkpt>
      <trkpt lat="49.83511" lon="3.97884">
        <ele>190.96</ele>
        <time>2021-08-08T12:02:29Z</time>
      </trkpt>
      <trkpt lat="49.83483" lon="3.979">
        <ele>192.88</ele>
        <time>2021-08-08T12:02:38Z</time>
      </trkpt>
      <trkpt lat="49.83476" lon="3.97928">
        <ele>193.36</ele>
        <time>2021-08-08T12:02:44Z</time>
      </trkpt>
      <trkpt lat="49.83468" lon="3.97958">
        <ele>194.32</ele>
        <time>2021-08-08T12:02:51Z</time>
      </trkpt>
      <trkpt lat="49.83458" lon="3.97985">
        <ele>195.77</ele>
        <time>2021-08-08T12:02:58Z</time>
      </trkpt>
      <trkpt lat="49.83449" lon="3.98014">
        <ele>196.73</ele>
        <time>2021-08-08T12:03:05Z</time>
      </trkpt>
      <trkpt lat="49.83437" lon="3.98044">
        <ele>197.21</ele>
        <time>2021-08-08T12:03:13Z</time>
      </trkpt>
      <trkpt lat="49.8342" lon="3.98073">
        <ele>198.65</ele>
        <time>2021-08-08T12:03:22Z</time>
      </trkpt>
      <trkpt lat="49.83409" lon="3.98088">
        <ele>198.65</ele>
        <time>2021-08-08T12:03:28Z</time>
      </trkpt>
      <trkpt lat="49.83394" lon="3.98112">
        <ele>199.13</ele>
        <time>2021-08-08T12:03:36Z</time>
      </trkpt>
      <trkpt lat="49.83373" lon="3.98144">
        <ele>200.57</ele>
        <time>2021-08-08T12:03:45Z</time>
      </trkpt>
      <trkpt lat="49.83352" lon="3.98182">
        <ele>201.05</ele>
        <time>2021-08-08T12:03:54Z</time>
      </trkpt>
      <trkpt lat="49.83334" lon="3.9821">
        <ele>201.53</ele>
        <time>2021-08-08T12:04:01Z</time>
      </trkpt>
      <trkpt lat="49.83315" lon="3.98243">
        <ele>202.49</ele>
        <time>2021-08-08T12:04:09Z</time>
      </trkpt>
      <trkpt lat="49.83292" lon="3.9828">
        <ele>202.98</ele>
        <time>2021-08-08T12:04:18Z</time>
      </trkpt>
      <trkpt lat="49.83271" lon="3.98317">
        <ele>204.42</ele>
        <time>2021-08-08T12:04:27Z</time>
      </trkpt>
      <trkpt lat="49.83253" lon="3.98355">
        <ele>204.9</ele>
        <time>2021-08-08T12:04:36Z</time>
      </trkpt>
      <trkpt lat="49.83237" lon="3.98392">
        <ele>208.26</ele>
        <time>2021-08-08T12:04:45Z</time>
      </trkpt>
      <trkpt lat="49.83223" lon="3.98427">
        <ele>208.26</ele>
        <time>2021-08-08T12:04:53Z</time>
      </trkpt>
      <trkpt lat="49.832" lon="3.98483">
        <ele>208.26</ele>
        <time>2021-08-08T12:05:04Z</time>
      </trkpt>
      <trkpt lat="49.83177" lon="3.9854">
        <ele>210.19</ele>
        <time>2021-08-08T12:05:15Z</time>
      </trkpt>
      <trkpt lat="49.83159" lon="3.98584">
        <ele>210.67</ele>
        <time>2021-08-08T12:05:24Z</time>
      </trkpt>
      <trkpt lat="49.83139" lon="3.98632">
        <ele>211.63</ele>
        <time>2021-08-08T12:05:34Z</time>
      </trkpt>
      <trkpt lat="49.83109" lon="3.98706">
        <ele>211.63</ele>
        <time>2021-08-08T12:05:46Z</time>
      </trkpt>
      <trkpt lat="49.83077" lon="3.98785">
        <ele>210.67</ele>
        <time>2021-08-08T12:05:58Z</time>
      </trkpt>
      <trkpt lat="49.83053" lon="3.98838">
        <ele>210.67</ele>
        <time>2021-08-08T12:06:07Z</time>
      </trkpt>
      <trkpt lat="49.83025" lon="3.98896">
        <ele>210.67</ele>
        <time>2021-08-08T12:06:17Z</time>
      </trkpt>
      <trkpt lat="49.83003" lon="3.98944">
        <ele>210.67</ele>
        <time>2021-08-08T12:06:25Z</time>
      </trkpt>
      <trkpt lat="49.82977" lon="3.99">
        <ele>208.74</ele>
        <time>2021-08-08T12:06:33Z</time>
      </trkpt>
      <trkpt lat="49.82944" lon="3.99076">
        <ele>206.82</ele>
        <time>2021-08-08T12:06:42Z</time>
      </trkpt>
      <trkpt lat="49.82923" lon="3.99129">
        <ele>205.38</ele>
        <time>2021-08-08T12:06:48Z</time>
      </trkpt>
      <trkpt lat="49.82914" lon="3.99152">
        <ele>205.38</ele>
        <time>2021-08-08T12:06:51Z</time>
      </trkpt>
      <trkpt lat="49.82912" lon="3.99159">
        <ele>204.42</ele>
        <time>2021-08-08T12:06:52Z</time>
      </trkpt>
      <trkpt lat="49.82909" lon="3.99166">
        <ele>203.46</ele>
        <time>2021-08-08T12:06:53Z</time>
      </trkpt>
      <trkpt lat="49.82907" lon="3.99172">
        <ele>203.46</ele>
        <time>2021-08-08T12:06:54Z</time>
      </trkpt>
      <trkpt lat="49.82902" lon="3.99184">
        <ele>203.46</ele>
        <time>2021-08-08T12:06:56Z</time>
      </trkpt>
      <trkpt lat="49.82898" lon="3.99187">
        <ele>202.98</ele>
        <time>2021-08-08T12:06:57Z</time>
      </trkpt>
      <trkpt lat="49.82895" lon="3.99187">
        <ele>203.46</ele>
        <time>2021-08-08T12:06:58Z</time>
      </trkpt>
      <trkpt lat="49.82855" lon="3.99188">
        <ele>202.49</ele>
        <time>2021-08-08T12:07:07Z</time>
      </trkpt>
      <trkpt lat="49.82827" lon="3.99188">
        <ele>202.01</ele>
        <time>2021-08-08T12:07:13Z</time>
      </trkpt>
      <trkpt lat="49.82812" lon="3.99188">
        <ele>201.53</ele>
        <time>2021-08-08T12:07:16Z</time>
      </trkpt>
      <trkpt lat="49.82808" lon="3.99189">
        <ele>201.53</ele>
        <time>2021-08-08T12:07:17Z</time>
      </trkpt>
      <trkpt lat="49.8279" lon="3.99188">
        <ele>201.05</ele>
        <time>2021-08-08T12:07:20Z</time>
      </trkpt>
      <trkpt lat="49.82785" lon="3.99186">
        <ele>200.09</ele>
        <time>2021-08-08T12:07:21Z</time>
      </trkpt>
      <trkpt lat="49.8278" lon="3.99183">
        <ele>200.09</ele>
        <time>2021-08-08T12:07:22Z</time>
      </trkpt>
      <trkpt lat="49.82769" lon="3.99175">
        <ele>199.61</ele>
        <time>2021-08-08T12:07:24Z</time>
      </trkpt>
      <trkpt lat="49.82764" lon="3.9917">
        <ele>198.17</ele>
        <time>2021-08-08T12:07:25Z</time>
      </trkpt>
      <trkpt lat="49.8276" lon="3.99165">
        <ele>198.17</ele>
        <time>2021-08-08T12:07:26Z</time>
      </trkpt>
      <trkpt lat="49.82751" lon="3.99154">
        <ele>198.17</ele>
        <time>2021-08-08T12:07:28Z</time>
      </trkpt>
      <trkpt lat="49.82715" lon="3.99117">
        <ele>197.69</ele>
        <time>2021-08-08T12:07:36Z</time>
      </trkpt>
      <trkpt lat="49.82672" lon="3.99072">
        <ele>197.21</ele>
        <time>2021-08-08T12:07:46Z</time>
      </trkpt>
      <trkpt lat="49.82633" lon="3.99029">
        <ele>195.28</ele>
        <time>2021-08-08T12:07:55Z</time>
      </trkpt>
      <trkpt lat="49.82624" lon="3.99019">
        <ele>194.32</ele>
        <time>2021-08-08T12:07:57Z</time>
      </trkpt>
      <trkpt lat="49.82592" lon="3.98987">
        <ele>192.88</ele>
        <time>2021-08-08T12:08:04Z</time>
      </trkpt>
      <trkpt lat="49.82573" lon="3.98966">
        <ele>191.92</ele>
        <time>2021-08-08T12:08:08Z</time>
      </trkpt>
      <trkpt lat="49.82533" lon="3.98925">
        <ele>188.08</ele>
        <time>2021-08-08T12:08:16Z</time>
      </trkpt>
      <trkpt lat="49.82528" lon="3.98919">
        <ele>188.08</ele>
        <time>2021-08-08T12:08:17Z</time>
      </trkpt>
      <trkpt lat="49.8249" lon="3.9888">
        <ele>184.71</ele>
        <time>2021-08-08T12:08:23Z</time>
      </trkpt>
      <trkpt lat="49.82451" lon="3.98839">
        <ele>182.79</ele>
        <time>2021-08-08T12:08:29Z</time>
      </trkpt>
      <trkpt lat="49.82438" lon="3.98825">
        <ele>182.31</ele>
        <time>2021-08-08T12:08:31Z</time>
      </trkpt>
      <trkpt lat="49.82431" lon="3.9882">
        <ele>181.35</ele>
        <time>2021-08-08T12:08:32Z</time>
      </trkpt>
      <trkpt lat="49.82424" lon="3.98817">
        <ele>181.35</ele>
        <time>2021-08-08T12:08:33Z</time>
      </trkpt>
      <trkpt lat="49.82382" lon="3.98803">
        <ele>181.83</ele>
        <time>2021-08-08T12:08:40Z</time>
      </trkpt>
      <trkpt lat="49.82355" lon="3.98798">
        <ele>181.83</ele>
        <time>2021-08-08T12:08:45Z</time>
      </trkpt>
      <trkpt lat="49.8235" lon="3.98798">
        <ele>181.83</ele>
        <time>2021-08-08T12:08:46Z</time>
      </trkpt>
      <trkpt lat="49.82345" lon="3.98797">
        <ele>181.83</ele>
        <time>2021-08-08T12:08:47Z</time>
      </trkpt>
      <trkpt lat="49.82316" lon="3.98787">
        <ele>183.27</ele>
        <time>2021-08-08T12:08:54Z</time>
      </trkpt>
      <trkpt lat="49.82289" lon="3.98779">
        <ele>183.27</ele>
        <time>2021-08-08T12:09:02Z</time>
      </trkpt>
      <trkpt lat="49.82269" lon="3.98773">
        <ele>184.71</ele>
        <time>2021-08-08T12:09:09Z</time>
      </trkpt>
      <trkpt lat="49.82239" lon="3.98764">
        <ele>186.15</ele>
        <time>2021-08-08T12:09:21Z</time>
      </trkpt>
      <trkpt lat="49.82216" lon="3.98757">
        <ele>187.11</ele>
        <time>2021-08-08T12:09:30Z</time>
      </trkpt>
      <trkpt lat="49.82184" lon="3.98749">
        <ele>188.08</ele>
        <time>2021-08-08T12:09:40Z</time>
      </trkpt>
      <trkpt lat="49.82151" lon="3.98741">
        <ele>189.52</ele>
        <time>2021-08-08T12:09:50Z</time>
      </trkpt>
      <trkpt lat="49.8212" lon="3.98734">
        <ele>190.96</ele>
        <time>2021-08-08T12:10:00Z</time>
      </trkpt>
      <trkpt lat="49.82093" lon="3.98727">
        <ele>191.44</ele>
        <time>2021-08-08T12:10:09Z</time>
      </trkpt>
      <trkpt lat="49.82066" lon="3.98717">
        <ele>192.4</ele>
        <time>2021-08-08T12:10:18Z</time>
      </trkpt>
      <trkpt lat="49.82044" lon="3.98712">
        <ele>193.36</ele>
        <time>2021-08-08T12:10:25Z</time>
      </trkpt>
      <trkpt lat="49.82016" lon="3.98705">
        <ele>194.8</ele>
        <time>2021-08-08T12:10:35Z</time>
      </trkpt>
      <trkpt lat="49.81988" lon="3.98697">
        <ele>196.25</ele>
        <time>2021-08-08T12:10:45Z</time>
      </trkpt>
      <trkpt lat="49.8196" lon="3.9869">
        <ele>197.69</ele>
        <time>2021-08-08T12:10:55Z</time>
      </trkpt>
      <trkpt lat="49.81929" lon="3.98681">
        <ele>198.17</ele>
        <time>2021-08-08T12:11:05Z</time>
      </trkpt>
      <trkpt lat="49.81906" lon="3.98675">
        <ele>196.73</ele>
        <time>2021-08-08T12:11:11Z</time>
      </trkpt>
      <trkpt lat="49.81878" lon="3.98668">
        <ele>194.32</ele>
        <time>2021-08-08T12:11:16Z</time>
      </trkpt>
      <trkpt lat="49.8186" lon="3.98663">
        <ele>193.36</ele>
        <time>2021-08-08T12:11:19Z</time>
      </trkpt>
      <trkpt lat="49.81811" lon="3.9865">
        <ele>190</ele>
        <time>2021-08-08T12:11:26Z</time>
      </trkpt>
      <trkpt lat="49.81793" lon="3.98645">
        <ele>189.04</ele>
        <time>2021-08-08T12:11:28Z</time>
      </trkpt>
      <trkpt lat="49.81755" lon="3.98635">
        <ele>185.67</ele>
        <time>2021-08-08T12:11:32Z</time>
      </trkpt>
      <trkpt lat="49.81726" lon="3.98629">
        <ele>183.75</ele>
        <time>2021-08-08T12:11:35Z</time>
      </trkpt>
      <trkpt lat="49.81688" lon="3.9863">
        <ele>180.87</ele>
        <time>2021-08-08T12:11:39Z</time>
      </trkpt>
      <trkpt lat="49.81653" lon="3.98631">
        <ele>178.46</ele>
        <time>2021-08-08T12:11:43Z</time>
      </trkpt>
      <trkpt lat="49.81633" lon="3.98633">
        <ele>177.5</ele>
        <time>2021-08-08T12:11:46Z</time>
      </trkpt>
      <trkpt lat="49.81627" lon="3.98636">
        <ele>177.5</ele>
        <time>2021-08-08T12:11:47Z</time>
      </trkpt>
      <trkpt lat="49.81621" lon="3.9864">
        <ele>177.02</ele>
        <time>2021-08-08T12:11:48Z</time>
      </trkpt>
      <trkpt lat="49.81616" lon="3.98645">
        <ele>177.02</ele>
        <time>2021-08-08T12:11:49Z</time>
      </trkpt>
      <trkpt lat="49.81611" lon="3.9865">
        <ele>177.02</ele>
        <time>2021-08-08T12:11:50Z</time>
      </trkpt>
      <trkpt lat="49.81606" lon="3.98656">
        <ele>176.54</ele>
        <time>2021-08-08T12:11:51Z</time>
      </trkpt>
      <trkpt lat="49.81603" lon="3.98662">
        <ele>176.54</ele>
        <time>2021-08-08T12:11:52Z</time>
      </trkpt>
      <trkpt lat="49.81601" lon="3.98671">
        <ele>176.54</ele>
        <time>2021-08-08T12:11:53Z</time>
      </trkpt>
      <trkpt lat="49.81599" lon="3.98681">
        <ele>176.06</ele>
        <time>2021-08-08T12:11:54Z</time>
      </trkpt>
      <trkpt lat="49.81598" lon="3.98691">
        <ele>175.1</ele>
        <time>2021-08-08T12:11:55Z</time>
      </trkpt>
      <trkpt lat="49.81597" lon="3.98701">
        <ele>175.1</ele>
        <time>2021-08-08T12:11:56Z</time>
      </trkpt>
      <trkpt lat="49.81586" lon="3.98794">
        <ele>172.21</ele>
        <time>2021-08-08T12:12:04Z</time>
      </trkpt>
      <trkpt lat="49.81578" lon="3.98848">
        <ele>170.29</ele>
        <time>2021-08-08T12:12:08Z</time>
      </trkpt>
      <trkpt lat="49.81575" lon="3.98861">
        <ele>170.29</ele>
        <time>2021-08-08T12:12:09Z</time>
      </trkpt>
      <trkpt lat="49.8157" lon="3.98875">
        <ele>168.37</ele>
        <time>2021-08-08T12:12:10Z</time>
      </trkpt>
      <trkpt lat="49.81564" lon="3.98887">
        <ele>167.89</ele>
        <time>2021-08-08T12:12:11Z</time>
      </trkpt>
      <trkpt lat="49.81557" lon="3.98897">
        <ele>166.93</ele>
        <time>2021-08-08T12:12:12Z</time>
      </trkpt>
      <trkpt lat="49.8155" lon="3.98905">
        <ele>166.93</ele>
        <time>2021-08-08T12:12:13Z</time>
      </trkpt>
      <trkpt lat="49.81543" lon="3.98911">
        <ele>166.45</ele>
        <time>2021-08-08T12:12:14Z</time>
      </trkpt>
      <trkpt lat="49.81538" lon="3.98915">
        <ele>166.45</ele>
        <time>2021-08-08T12:12:15Z</time>
      </trkpt>
      <trkpt lat="49.81534" lon="3.98917">
        <ele>166.45</ele>
        <time>2021-08-08T12:12:16Z</time>
      </trkpt>
      <trkpt lat="49.81521" lon="3.98925">
        <ele>166.45</ele>
        <time>2021-08-08T12:12:20Z</time>
      </trkpt>
      <trkpt lat="49.81493" lon="3.98929">
        <ele>165.96</ele>
        <time>2021-08-08T12:12:26Z</time>
      </trkpt>
      <trkpt lat="49.81488" lon="3.98928">
        <ele>165.96</ele>
        <time>2021-08-08T12:12:27Z</time>
      </trkpt>
      <trkpt lat="49.81468" lon="3.98917">
        <ele>165.96</ele>
        <time>2021-08-08T12:12:31Z</time>
      </trkpt>
      <trkpt lat="49.81463" lon="3.98913">
        <ele>165.96</ele>
        <time>2021-08-08T12:12:32Z</time>
      </trkpt>
      <trkpt lat="49.81436" lon="3.98878">
        <ele>167.41</ele>
        <time>2021-08-08T12:12:40Z</time>
      </trkpt>
      <trkpt lat="49.81434" lon="3.98873">
        <ele>167.41</ele>
        <time>2021-08-08T12:12:41Z</time>
      </trkpt>
      <trkpt lat="49.81405" lon="3.98825">
        <ele>169.33</ele>
        <time>2021-08-08T12:12:53Z</time>
      </trkpt>
      <trkpt lat="49.81381" lon="3.98787">
        <ele>170.77</ele>
        <time>2021-08-08T12:13:04Z</time>
      </trkpt>
      <trkpt lat="49.81362" lon="3.98755">
        <ele>172.21</ele>
        <time>2021-08-08T12:13:14Z</time>
      </trkpt>
      <trkpt lat="49.81338" lon="3.9872">
        <ele>174.14</ele>
        <time>2021-08-08T12:13:26Z</time>
      </trkpt>
      <trkpt lat="49.81316" lon="3.98699">
        <ele>176.54</ele>
        <time>2021-08-08T12:13:36Z</time>
      </trkpt>
      <trkpt lat="49.81291" lon="3.9869">
        <ele>177.98</ele>
        <time>2021-08-08T12:13:46Z</time>
      </trkpt>
      <trkpt lat="49.81261" lon="3.98692">
        <ele>180.38</ele>
        <time>2021-08-08T12:13:57Z</time>
      </trkpt>
      <trkpt lat="49.81235" lon="3.98693">
        <ele>182.31</ele>
        <time>2021-08-08T12:14:07Z</time>
      </trkpt>
      <trkpt lat="49.81232" lon="3.9869">
        <ele>182.31</ele>
        <time>2021-08-08T12:14:08Z</time>
      </trkpt>
      <trkpt lat="49.81231" lon="3.98686">
        <ele>181.83</ele>
        <time>2021-08-08T12:14:09Z</time>
      </trkpt>
      <trkpt lat="49.81231" lon="3.98682">
        <ele>182.31</ele>
        <time>2021-08-08T12:14:10Z</time>
      </trkpt>
      <trkpt lat="49.81231" lon="3.98678">
        <ele>182.31</ele>
        <time>2021-08-08T12:14:11Z</time>
      </trkpt>
      <trkpt lat="49.81232" lon="3.98673">
        <ele>182.31</ele>
        <time>2021-08-08T12:14:12Z</time>
      </trkpt>
      <trkpt lat="49.81237" lon="3.98634">
        <ele>182.31</ele>
        <time>2021-08-08T12:14:20Z</time>
      </trkpt>
      <trkpt lat="49.8124" lon="3.98605">
        <ele>182.31</ele>
        <time>2021-08-08T12:14:25Z</time>
      </trkpt>
      <trkpt lat="49.81243" lon="3.9858">
        <ele>182.31</ele>
        <time>2021-08-08T12:14:29Z</time>
      </trkpt>
      <trkpt lat="49.81251" lon="3.98507">
        <ele>181.35</ele>
        <time>2021-08-08T12:14:39Z</time>
      </trkpt>
      <trkpt lat="49.81262" lon="3.9841">
        <ele>179.9</ele>
        <time>2021-08-08T12:14:51Z</time>
      </trkpt>
      <trkpt lat="49.81274" lon="3.98307">
        <ele>178.94</ele>
        <time>2021-08-08T12:15:03Z</time>
      </trkpt>
      <trkpt lat="49.81283" lon="3.98218">
        <ele>176.06</ele>
        <time>2021-08-08T12:15:12Z</time>
      </trkpt>
      <trkpt lat="49.81295" lon="3.98113">
        <ele>175.1</ele>
        <time>2021-08-08T12:15:22Z</time>
      </trkpt>
      <trkpt lat="49.81309" lon="3.97983">
        <ele>173.17</ele>
        <time>2021-08-08T12:15:34Z</time>
      </trkpt>
      <trkpt lat="49.81327" lon="3.97898">
        <ele>171.73</ele>
        <time>2021-08-08T12:15:42Z</time>
      </trkpt>
      <trkpt lat="49.81354" lon="3.97809">
        <ele>170.77</ele>
        <time>2021-08-08T12:15:51Z</time>
      </trkpt>
      <trkpt lat="49.81362" lon="3.97737">
        <ele>169.81</ele>
        <time>2021-08-08T12:15:58Z</time>
      </trkpt>
      <trkpt lat="49.81358" lon="3.9764">
        <ele>168.85</ele>
        <time>2021-08-08T12:16:07Z</time>
      </trkpt>
      <trkpt lat="49.81348" lon="3.97533">
        <ele>166.93</ele>
        <time>2021-08-08T12:16:18Z</time>
      </trkpt>
      <trkpt lat="49.81343" lon="3.97472">
        <ele>165.96</ele>
        <time>2021-08-08T12:16:25Z</time>
      </trkpt>
      <trkpt lat="49.81341" lon="3.97465">
        <ele>165.96</ele>
        <time>2021-08-08T12:16:26Z</time>
      </trkpt>
      <trkpt lat="49.81338" lon="3.97461">
        <ele>165.96</ele>
        <time>2021-08-08T12:16:27Z</time>
      </trkpt>
      <trkpt lat="49.81335" lon="3.97458">
        <ele>165.96</ele>
        <time>2021-08-08T12:16:28Z</time>
      </trkpt>
      <trkpt lat="49.81332" lon="3.97458">
        <ele>165.96</ele>
        <time>2021-08-08T12:16:29Z</time>
      </trkpt>
      <trkpt lat="49.81329" lon="3.97459">
        <ele>166.93</ele>
        <time>2021-08-08T12:16:30Z</time>
      </trkpt>
      <trkpt lat="49.81326" lon="3.9746">
        <ele>167.41</ele>
        <time>2021-08-08T12:16:31Z</time>
      </trkpt>
      <trkpt lat="49.81306" lon="3.97466">
        <ele>169.81</ele>
        <time>2021-08-08T12:16:39Z</time>
      </trkpt>
      <trkpt lat="49.8129" lon="3.9747">
        <ele>171.25</ele>
        <time>2021-08-08T12:16:47Z</time>
      </trkpt>
      <trkpt lat="49.81278" lon="3.97474">
        <ele>171.73</ele>
        <time>2021-08-08T12:16:54Z</time>
      </trkpt>
      <trkpt lat="49.81273" lon="3.97475">
        <ele>172.69</ele>
        <time>2021-08-08T12:16:57Z</time>
      </trkpt>
      <trkpt lat="49.81271" lon="3.97476">
        <ele>172.69</ele>
        <time>2021-08-08T12:16:58Z</time>
      </trkpt>
      <trkpt lat="49.8127" lon="3.97476">
        <ele>172.69</ele>
        <time>2021-08-08T12:16:59Z</time>
      </trkpt>
      <trkpt lat="49.81252" lon="3.97481">
        <ele>174.14</ele>
        <time>2021-08-08T12:17:08Z</time>
      </trkpt>
      <trkpt lat="49.81246" lon="3.97482">
        <ele>174.14</ele>
        <time>2021-08-08T12:17:11Z</time>
      </trkpt>
      <trkpt lat="49.81244" lon="3.97482">
        <ele>174.62</ele>
        <time>2021-08-08T12:17:12Z</time>
      </trkpt>
      <trkpt lat="49.81238" lon="3.97482">
        <ele>174.62</ele>
        <time>2021-08-08T12:17:16Z</time>
      </trkpt>
      <trkpt lat="49.81227" lon="3.97483">
        <ele>175.58</ele>
        <time>2021-08-08T12:17:24Z</time>
      </trkpt>
      <trkpt lat="49.81211" lon="3.97493">
        <ele>176.54</ele>
        <time>2021-08-08T12:17:32Z</time>
      </trkpt>
      <trkpt lat="49.81195" lon="3.97499">
        <ele>177.02</ele>
        <time>2021-08-08T12:17:40Z</time>
      </trkpt>
      <trkpt lat="49.81178" lon="3.97506">
        <ele>178.94</ele>
        <time>2021-08-08T12:17:49Z</time>
      </trkpt>
      <trkpt lat="49.81164" lon="3.97511">
        <ele>180.87</ele>
        <time>2021-08-08T12:17:58Z</time>
      </trkpt>
      <trkpt lat="49.81152" lon="3.97518">
        <ele>181.83</ele>
        <time>2021-08-08T12:18:06Z</time>
      </trkpt>
      <trkpt lat="49.8114" lon="3.97524">
        <ele>182.79</ele>
        <time>2021-08-08T12:18:14Z</time>
      </trkpt>
      <trkpt lat="49.81138" lon="3.97525">
        <ele>183.75</ele>
        <time>2021-08-08T12:18:15Z</time>
      </trkpt>
      <trkpt lat="49.81121" lon="3.97535">
        <ele>185.19</ele>
        <time>2021-08-08T12:18:25Z</time>
      </trkpt>
      <trkpt lat="49.81099" lon="3.97553">
        <ele>185.67</ele>
        <time>2021-08-08T12:18:37Z</time>
      </trkpt>
      <trkpt lat="49.81082" lon="3.97569">
        <ele>186.15</ele>
        <time>2021-08-08T12:18:45Z</time>
      </trkpt>
      <trkpt lat="49.81063" lon="3.97588">
        <ele>186.63</ele>
        <time>2021-08-08T12:18:55Z</time>
      </trkpt>
      <trkpt lat="49.81051" lon="3.97601">
        <ele>188.56</ele>
        <time>2021-08-08T12:19:02Z</time>
      </trkpt>
      <trkpt lat="49.81035" lon="3.9762">
        <ele>190.48</ele>
        <time>2021-08-08T12:19:13Z</time>
      </trkpt>
      <trkpt lat="49.81021" lon="3.97636">
        <ele>190.96</ele>
        <time>2021-08-08T12:19:22Z</time>
      </trkpt>
      <trkpt lat="49.8101" lon="3.97652">
        <ele>192.4</ele>
        <time>2021-08-08T12:19:30Z</time>
      </trkpt>
      <trkpt lat="49.80994" lon="3.97676">
        <ele>192.88</ele>
        <time>2021-08-08T12:19:41Z</time>
      </trkpt>
      <trkpt lat="49.80983" lon="3.97692">
        <ele>193.84</ele>
        <time>2021-08-08T12:19:49Z</time>
      </trkpt>
      <trkpt lat="49.80973" lon="3.97708">
        <ele>195.77</ele>
        <time>2021-08-08T12:19:57Z</time>
      </trkpt>
      <trkpt lat="49.80972" lon="3.97709">
        <ele>195.77</ele>
        <time>2021-08-08T12:19:58Z</time>
      </trkpt>
      <trkpt lat="49.8097" lon="3.97711">
        <ele>195.77</ele>
        <time>2021-08-08T12:19:59Z</time>
      </trkpt>
      <trkpt lat="49.80969" lon="3.97713">
        <ele>195.77</ele>
        <time>2021-08-08T12:20:00Z</time>
      </trkpt>
      <trkpt lat="49.80968" lon="3.97715">
        <ele>195.77</ele>
        <time>2021-08-08T12:20:01Z</time>
      </trkpt>
      <trkpt lat="49.80966" lon="3.97717">
        <ele>196.25</ele>
        <time>2021-08-08T12:20:02Z</time>
      </trkpt>
      <trkpt lat="49.80965" lon="3.97719">
        <ele>196.25</ele>
        <time>2021-08-08T12:20:03Z</time>
      </trkpt>
      <trkpt lat="49.80963" lon="3.97721">
        <ele>196.25</ele>
        <time>2021-08-08T12:20:04Z</time>
      </trkpt>
      <trkpt lat="49.80962" lon="3.97723">
        <ele>196.25</ele>
        <time>2021-08-08T12:20:05Z</time>
      </trkpt>
      <trkpt lat="49.8096" lon="3.97725">
        <ele>196.25</ele>
        <time>2021-08-08T12:20:06Z</time>
      </trkpt>
      <trkpt lat="49.80959" lon="3.97727">
        <ele>196.25</ele>
        <time>2021-08-08T12:20:07Z</time>
      </trkpt>
      <trkpt lat="49.80957" lon="3.97729">
        <ele>196.25</ele>
        <time>2021-08-08T12:20:08Z</time>
      </trkpt>
      <trkpt lat="49.80944" lon="3.97747">
        <ele>197.69</ele>
        <time>2021-08-08T12:20:16Z</time>
      </trkpt>
      <trkpt lat="49.80927" lon="3.97767">
        <ele>198.65</ele>
        <time>2021-08-08T12:20:26Z</time>
      </trkpt>
      <trkpt lat="49.8091" lon="3.9778">
        <ele>200.09</ele>
        <time>2021-08-08T12:20:35Z</time>
      </trkpt>
      <trkpt lat="49.80893" lon="3.9779">
        <ele>200.57</ele>
        <time>2021-08-08T12:20:42Z</time>
      </trkpt>
      <trkpt lat="49.80871" lon="3.978">
        <ele>201.05</ele>
        <time>2021-08-08T12:20:51Z</time>
      </trkpt>
      <trkpt lat="49.80849" lon="3.9781">
        <ele>201.53</ele>
        <time>2021-08-08T12:21:00Z</time>
      </trkpt>
      <trkpt lat="49.80832" lon="3.97819">
        <ele>202.01</ele>
        <time>2021-08-08T12:21:07Z</time>
      </trkpt>
      <trkpt lat="49.80807" lon="3.97831">
        <ele>202.01</ele>
        <time>2021-08-08T12:21:16Z</time>
      </trkpt>
      <trkpt lat="49.80774" lon="3.9785">
        <ele>202.49</ele>
        <time>2021-08-08T12:21:27Z</time>
      </trkpt>
      <trkpt lat="49.80742" lon="3.97868">
        <ele>203.94</ele>
        <time>2021-08-08T12:21:37Z</time>
      </trkpt>
      <trkpt lat="49.80718" lon="3.9788">
        <ele>204.42</ele>
        <time>2021-08-08T12:21:45Z</time>
      </trkpt>
      <trkpt lat="49.80694" lon="3.97892">
        <ele>204.42</ele>
        <time>2021-08-08T12:21:53Z</time>
      </trkpt>
      <trkpt lat="49.80665" lon="3.97911">
        <ele>204.9</ele>
        <time>2021-08-08T12:22:03Z</time>
      </trkpt>
      <trkpt lat="49.8064" lon="3.97924">
        <ele>204.9</ele>
        <time>2021-08-08T12:22:11Z</time>
      </trkpt>
      <trkpt lat="49.80613" lon="3.97939">
        <ele>206.34</ele>
        <time>2021-08-08T12:22:20Z</time>
      </trkpt>
      <trkpt lat="49.80584" lon="3.97955">
        <ele>206.82</ele>
        <time>2021-08-08T12:22:30Z</time>
      </trkpt>
      <trkpt lat="49.80563" lon="3.97966">
        <ele>205.86</ele>
        <time>2021-08-08T12:22:36Z</time>
      </trkpt>
      <trkpt lat="49.80547" lon="3.97974">
        <ele>205.86</ele>
        <time>2021-08-08T12:22:40Z</time>
      </trkpt>
      <trkpt lat="49.80515" lon="3.97983">
        <ele>203.94</ele>
        <time>2021-08-08T12:22:46Z</time>
      </trkpt>
      <trkpt lat="49.80504" lon="3.97984">
        <ele>203.46</ele>
        <time>2021-08-08T12:22:48Z</time>
      </trkpt>
      <trkpt lat="49.80475" lon="3.97991">
        <ele>201.53</ele>
        <time>2021-08-08T12:22:53Z</time>
      </trkpt>
      <trkpt lat="49.80463" lon="3.97995">
        <ele>200.57</ele>
        <time>2021-08-08T12:22:55Z</time>
      </trkpt>
      <trkpt lat="49.80457" lon="3.97998">
        <ele>200.57</ele>
        <time>2021-08-08T12:22:56Z</time>
      </trkpt>
      <trkpt lat="49.80418" lon="3.9803">
        <ele>200.57</ele>
        <time>2021-08-08T12:23:04Z</time>
      </trkpt>
      <trkpt lat="49.8038" lon="3.98064">
        <ele>200.09</ele>
        <time>2021-08-08T12:23:13Z</time>
      </trkpt>
      <trkpt lat="49.80347" lon="3.98094">
        <ele>199.61</ele>
        <time>2021-08-08T12:23:21Z</time>
      </trkpt>
      <trkpt lat="49.80319" lon="3.98118">
        <ele>199.61</ele>
        <time>2021-08-08T12:23:28Z</time>
      </trkpt>
      <trkpt lat="49.80281" lon="3.9815">
        <ele>199.61</ele>
        <time>2021-08-08T12:23:37Z</time>
      </trkpt>
      <trkpt lat="49.80247" lon="3.98174">
        <ele>199.13</ele>
        <time>2021-08-08T12:23:45Z</time>
      </trkpt>
      <trkpt lat="49.80243" lon="3.98175">
        <ele>199.13</ele>
        <time>2021-08-08T12:23:46Z</time>
      </trkpt>
      <trkpt lat="49.80239" lon="3.98176">
        <ele>199.13</ele>
        <time>2021-08-08T12:23:47Z</time>
      </trkpt>
      <trkpt lat="49.80208" lon="3.98177">
        <ele>200.57</ele>
        <time>2021-08-08T12:23:55Z</time>
      </trkpt>
      <trkpt lat="49.80186" lon="3.98175">
        <ele>200.09</ele>
        <time>2021-08-08T12:24:01Z</time>
      </trkpt>
      <trkpt lat="49.80167" lon="3.98178">
        <ele>199.13</ele>
        <time>2021-08-08T12:24:05Z</time>
      </trkpt>
      <trkpt lat="49.80148" lon="3.98184">
        <ele>198.65</ele>
        <time>2021-08-08T12:24:09Z</time>
      </trkpt>
      <trkpt lat="49.80143" lon="3.98186">
        <ele>198.65</ele>
        <time>2021-08-08T12:24:10Z</time>
      </trkpt>
      <trkpt lat="49.80129" lon="3.98192">
        <ele>197.69</ele>
        <time>2021-08-08T12:24:13Z</time>
      </trkpt>
      <trkpt lat="49.80101" lon="3.98215">
        <ele>197.21</ele>
        <time>2021-08-08T12:24:19Z</time>
      </trkpt>
      <trkpt lat="49.80096" lon="3.9822">
        <ele>197.21</ele>
        <time>2021-08-08T12:24:20Z</time>
      </trkpt>
      <trkpt lat="49.80072" lon="3.98234">
        <ele>196.25</ele>
        <time>2021-08-08T12:24:25Z</time>
      </trkpt>
      <trkpt lat="49.80067" lon="3.98236">
        <ele>196.25</ele>
        <time>2021-08-08T12:24:26Z</time>
      </trkpt>
      <trkpt lat="49.80063" lon="3.98238">
        <ele>196.25</ele>
        <time>2021-08-08T12:24:27Z</time>
      </trkpt>
      <trkpt lat="49.80049" lon="3.98239">
        <ele>195.28</ele>
        <time>2021-08-08T12:24:30Z</time>
      </trkpt>
      <trkpt lat="49.80027" lon="3.98233">
        <ele>193.36</ele>
        <time>2021-08-08T12:24:34Z</time>
      </trkpt>
      <trkpt lat="49.80016" lon="3.98226">
        <ele>192.4</ele>
        <time>2021-08-08T12:24:36Z</time>
      </trkpt>
      <trkpt lat="49.79979" lon="3.98196">
        <ele>189.52</ele>
        <time>2021-08-08T12:24:41Z</time>
      </trkpt>
      <trkpt lat="49.79937" lon="3.98166">
        <ele>185.67</ele>
        <time>2021-08-08T12:24:46Z</time>
      </trkpt>
      <trkpt lat="49.79912" lon="3.9815">
        <ele>183.27</ele>
        <time>2021-08-08T12:24:49Z</time>
      </trkpt>
      <trkpt lat="49.79903" lon="3.98148">
        <ele>182.31</ele>
        <time>2021-08-08T12:24:50Z</time>
      </trkpt>
      <trkpt lat="49.79894" lon="3.98149">
        <ele>181.83</ele>
        <time>2021-08-08T12:24:51Z</time>
      </trkpt>
      <trkpt lat="49.79833" lon="3.9816">
        <ele>178.46</ele>
        <time>2021-08-08T12:24:57Z</time>
      </trkpt>
      <trkpt lat="49.79823" lon="3.98162">
        <ele>178.46</ele>
        <time>2021-08-08T12:24:58Z</time>
      </trkpt>
      <trkpt lat="49.79804" lon="3.98164">
        <ele>177.02</ele>
        <time>2021-08-08T12:25:00Z</time>
      </trkpt>
      <trkpt lat="49.79795" lon="3.98163">
        <ele>177.02</ele>
        <time>2021-08-08T12:25:01Z</time>
      </trkpt>
      <trkpt lat="49.79786" lon="3.9816">
        <ele>175.58</ele>
        <time>2021-08-08T12:25:02Z</time>
      </trkpt>
      <trkpt lat="49.79776" lon="3.98157">
        <ele>175.1</ele>
        <time>2021-08-08T12:25:03Z</time>
      </trkpt>
      <trkpt lat="49.79767" lon="3.98153">
        <ele>175.1</ele>
        <time>2021-08-08T12:25:04Z</time>
      </trkpt>
      <trkpt lat="49.79722" lon="3.98132">
        <ele>173.66</ele>
        <time>2021-08-08T12:25:10Z</time>
      </trkpt>
      <trkpt lat="49.79717" lon="3.98129">
        <ele>174.14</ele>
        <time>2021-08-08T12:25:11Z</time>
      </trkpt>
      <trkpt lat="49.79713" lon="3.98124">
        <ele>173.66</ele>
        <time>2021-08-08T12:25:12Z</time>
      </trkpt>
      <trkpt lat="49.79711" lon="3.98118">
        <ele>173.66</ele>
        <time>2021-08-08T12:25:13Z</time>
      </trkpt>
      <trkpt lat="49.79712" lon="3.98112">
        <ele>173.66</ele>
        <time>2021-08-08T12:25:14Z</time>
      </trkpt>
      <trkpt lat="49.79713" lon="3.98106">
        <ele>173.66</ele>
        <time>2021-08-08T12:25:15Z</time>
      </trkpt>
      <trkpt lat="49.79714" lon="3.981">
        <ele>173.66</ele>
        <time>2021-08-08T12:25:16Z</time>
      </trkpt>
      <trkpt lat="49.79715" lon="3.98095">
        <ele>175.1</ele>
        <time>2021-08-08T12:25:17Z</time>
      </trkpt>
      <trkpt lat="49.79724" lon="3.98041">
        <ele>175.1</ele>
        <time>2021-08-08T12:25:26Z</time>
      </trkpt>
      <trkpt lat="49.79735" lon="3.97981">
        <ele>175.1</ele>
        <time>2021-08-08T12:25:35Z</time>
      </trkpt>
      <trkpt lat="49.79738" lon="3.9796">
        <ele>175.1</ele>
        <time>2021-08-08T12:25:38Z</time>
      </trkpt>
      <trkpt lat="49.79742" lon="3.97941">
        <ele>175.1</ele>
        <time>2021-08-08T12:25:41Z</time>
      </trkpt>
      <trkpt lat="49.79748" lon="3.97917">
        <ele>175.1</ele>
        <time>2021-08-08T12:25:45Z</time>
      </trkpt>
      <trkpt lat="49.79748" lon="3.9791">
        <ele>175.1</ele>
        <time>2021-08-08T12:25:46Z</time>
      </trkpt>
      <trkpt lat="49.79748" lon="3.97903">
        <ele>175.1</ele>
        <time>2021-08-08T12:25:47Z</time>
      </trkpt>
      <trkpt lat="49.79749" lon="3.97829">
        <ele>174.62</ele>
        <time>2021-08-08T12:25:57Z</time>
      </trkpt>
      <trkpt lat="49.79753" lon="3.97768">
        <ele>173.17</ele>
        <time>2021-08-08T12:26:05Z</time>
      </trkpt>
      <trkpt lat="49.79752" lon="3.9776">
        <ele>173.17</ele>
        <time>2021-08-08T12:26:06Z</time>
      </trkpt>
      <trkpt lat="49.79752" lon="3.97752">
        <ele>172.69</ele>
        <time>2021-08-08T12:26:07Z</time>
      </trkpt>
      <trkpt lat="49.7974" lon="3.97688">
        <ele>171.25</ele>
        <time>2021-08-08T12:26:14Z</time>
      </trkpt>
      <trkpt lat="49.79728" lon="3.9762">
        <ele>169.81</ele>
        <time>2021-08-08T12:26:21Z</time>
      </trkpt>
      <trkpt lat="49.7972" lon="3.97555">
        <ele>169.33</ele>
        <time>2021-08-08T12:26:28Z</time>
      </trkpt>
      <trkpt lat="49.79715" lon="3.97488">
        <ele>167.89</ele>
        <time>2021-08-08T12:26:35Z</time>
      </trkpt>
      <trkpt lat="49.79712" lon="3.97467">
        <ele>167.89</ele>
        <time>2021-08-08T12:26:37Z</time>
      </trkpt>
      <trkpt lat="49.79707" lon="3.97436">
        <ele>166.93</ele>
        <time>2021-08-08T12:26:40Z</time>
      </trkpt>
      <trkpt lat="49.79706" lon="3.97426">
        <ele>166.93</ele>
        <time>2021-08-08T12:26:41Z</time>
      </trkpt>
      <trkpt lat="49.79703" lon="3.97413">
        <ele>165.96</ele>
        <time>2021-08-08T12:26:42Z</time>
      </trkpt>
      <trkpt lat="49.797" lon="3.97404">
        <ele>165</ele>
        <time>2021-08-08T12:26:43Z</time>
      </trkpt>
      <trkpt lat="49.79697" lon="3.97394">
        <ele>165</ele>
        <time>2021-08-08T12:26:44Z</time>
      </trkpt>
      <trkpt lat="49.79679" lon="3.97335">
        <ele>161.64</ele>
        <time>2021-08-08T12:26:49Z</time>
      </trkpt>
      <trkpt lat="49.79672" lon="3.97305">
        <ele>160.68</ele>
        <time>2021-08-08T12:26:53Z</time>
      </trkpt>
      <trkpt lat="49.79671" lon="3.9728">
        <ele>160.68</ele>
        <time>2021-08-08T12:26:59Z</time>
      </trkpt>
      <trkpt lat="49.79668" lon="3.9727">
        <ele>160.68</ele>
        <time>2021-08-08T12:27:01Z</time>
      </trkpt>
      <trkpt lat="49.7966" lon="3.97249">
        <ele>160.2</ele>
        <time>2021-08-08T12:27:04Z</time>
      </trkpt>
      <trkpt lat="49.79659" lon="3.97242">
        <ele>159.24</ele>
        <time>2021-08-08T12:27:05Z</time>
      </trkpt>
      <trkpt lat="49.79644" lon="3.97167">
        <ele>156.35</ele>
        <time>2021-08-08T12:27:13Z</time>
      </trkpt>
      <trkpt lat="49.79633" lon="3.97115">
        <ele>152.99</ele>
        <time>2021-08-08T12:27:18Z</time>
      </trkpt>
      <trkpt lat="49.79623" lon="3.97079">
        <ele>152.03</ele>
        <time>2021-08-08T12:27:22Z</time>
      </trkpt>
      <trkpt lat="49.79619" lon="3.9706">
        <ele>152.03</ele>
        <time>2021-08-08T12:27:25Z</time>
      </trkpt>
      <trkpt lat="49.79617" lon="3.97053">
        <ele>152.03</ele>
        <time>2021-08-08T12:27:26Z</time>
      </trkpt>
      <trkpt lat="49.79595" lon="3.97">
        <ele>148.18</ele>
        <time>2021-08-08T12:27:33Z</time>
      </trkpt>
      <trkpt lat="49.79571" lon="3.96964">
        <ele>143.37</ele>
        <time>2021-08-08T12:27:37Z</time>
      </trkpt>
      <trkpt lat="49.79565" lon="3.96957">
        <ele>142.89</ele>
        <time>2021-08-08T12:27:38Z</time>
      </trkpt>
      <trkpt lat="49.79549" lon="3.96941">
        <ele>141.45</ele>
        <time>2021-08-08T12:27:40Z</time>
      </trkpt>
      <trkpt lat="49.79531" lon="3.96926">
        <ele>138.09</ele>
        <time>2021-08-08T12:27:42Z</time>
      </trkpt>
      <trkpt lat="49.795" lon="3.96904">
        <ele>134.24</ele>
        <time>2021-08-08T12:27:45Z</time>
      </trkpt>
      <trkpt lat="49.79469" lon="3.96879">
        <ele>131.36</ele>
        <time>2021-08-08T12:27:48Z</time>
      </trkpt>
      <trkpt lat="49.79432" lon="3.96838">
        <ele>129.92</ele>
        <time>2021-08-08T12:27:52Z</time>
      </trkpt>
      <trkpt lat="49.79422" lon="3.96829">
        <ele>128.95</ele>
        <time>2021-08-08T12:27:53Z</time>
      </trkpt>
      <trkpt lat="49.79412" lon="3.96821">
        <ele>128.47</ele>
        <time>2021-08-08T12:27:54Z</time>
      </trkpt>
      <trkpt lat="49.79402" lon="3.96815">
        <ele>127.51</ele>
        <time>2021-08-08T12:27:55Z</time>
      </trkpt>
      <trkpt lat="49.7939" lon="3.9681">
        <ele>127.51</ele>
        <time>2021-08-08T12:27:56Z</time>
      </trkpt>
      <trkpt lat="49.7938" lon="3.96807">
        <ele>127.51</ele>
        <time>2021-08-08T12:27:57Z</time>
      </trkpt>
      <trkpt lat="49.7937" lon="3.96805">
        <ele>127.51</ele>
        <time>2021-08-08T12:27:58Z</time>
      </trkpt>
      <trkpt lat="49.7936" lon="3.96804">
        <ele>127.51</ele>
        <time>2021-08-08T12:27:59Z</time>
      </trkpt>
      <trkpt lat="49.79307" lon="3.96804">
        <ele>127.51</ele>
        <time>2021-08-08T12:28:05Z</time>
      </trkpt>
      <trkpt lat="49.79279" lon="3.96806">
        <ele>129.92</ele>
        <time>2021-08-08T12:28:09Z</time>
      </trkpt>
      <trkpt lat="49.79254" lon="3.96806">
        <ele>132.8</ele>
        <time>2021-08-08T12:28:14Z</time>
      </trkpt>
      <trkpt lat="49.79238" lon="3.96805">
        <ele>134.24</ele>
        <time>2021-08-08T12:28:21Z</time>
      </trkpt>
      <trkpt lat="49.79221" lon="3.96803">
        <ele>136.64</ele>
        <time>2021-08-08T12:28:28Z</time>
      </trkpt>
      <trkpt lat="49.79204" lon="3.96804">
        <ele>137.61</ele>
        <time>2021-08-08T12:28:36Z</time>
      </trkpt>
      <trkpt lat="49.79186" lon="3.96806">
        <ele>139.53</ele>
        <time>2021-08-08T12:28:45Z</time>
      </trkpt>
      <trkpt lat="49.79169" lon="3.96808">
        <ele>140.97</ele>
        <time>2021-08-08T12:28:55Z</time>
      </trkpt>
      <trkpt lat="49.79155" lon="3.96813">
        <ele>142.41</ele>
        <time>2021-08-08T12:29:03Z</time>
      </trkpt>
      <trkpt lat="49.7914" lon="3.96824">
        <ele>144.34</ele>
        <time>2021-08-08T12:29:13Z</time>
      </trkpt>
      <trkpt lat="49.79129" lon="3.96839">
        <ele>145.78</ele>
        <time>2021-08-08T12:29:21Z</time>
      </trkpt>
      <trkpt lat="49.79117" lon="3.96859">
        <ele>147.22</ele>
        <time>2021-08-08T12:29:29Z</time>
      </trkpt>
      <trkpt lat="49.79107" lon="3.96881">
        <ele>148.18</ele>
        <time>2021-08-08T12:29:38Z</time>
      </trkpt>
      <trkpt lat="49.7909" lon="3.96895">
        <ele>150.1</ele>
        <time>2021-08-08T12:29:47Z</time>
      </trkpt>
      <trkpt lat="49.79074" lon="3.96899">
        <ele>151.54</ele>
        <time>2021-08-08T12:29:56Z</time>
      </trkpt>
      <trkpt lat="49.7906" lon="3.96902">
        <ele>153.47</ele>
        <time>2021-08-08T12:30:03Z</time>
      </trkpt>
      <trkpt lat="49.79042" lon="3.96906">
        <ele>154.43</ele>
        <time>2021-08-08T12:30:12Z</time>
      </trkpt>
      <trkpt lat="49.79023" lon="3.96911">
        <ele>156.35</ele>
        <time>2021-08-08T12:30:22Z</time>
      </trkpt>
      <trkpt lat="49.79006" lon="3.96916">
        <ele>157.31</ele>
        <time>2021-08-08T12:30:31Z</time>
      </trkpt>
      <trkpt lat="49.78992" lon="3.96919">
        <ele>159.24</ele>
        <time>2021-08-08T12:30:39Z</time>
      </trkpt>
      <trkpt lat="49.78977" lon="3.96925">
        <ele>159.72</ele>
        <time>2021-08-08T12:30:46Z</time>
      </trkpt>
      <trkpt lat="49.78961" lon="3.96928">
        <ele>161.16</ele>
        <time>2021-08-08T12:30:54Z</time>
      </trkpt>
      <trkpt lat="49.78941" lon="3.96933">
        <ele>163.08</ele>
        <time>2021-08-08T12:31:04Z</time>
      </trkpt>
      <trkpt lat="49.78939" lon="3.96932">
        <ele>163.08</ele>
        <time>2021-08-08T12:31:05Z</time>
      </trkpt>
      <trkpt lat="49.7892" lon="3.96936">
        <ele>164.52</ele>
        <time>2021-08-08T12:31:14Z</time>
      </trkpt>
      <trkpt lat="49.78906" lon="3.96938">
        <ele>165.96</ele>
        <time>2021-08-08T12:31:22Z</time>
      </trkpt>
      <trkpt lat="49.78886" lon="3.96944">
        <ele>167.89</ele>
        <time>2021-08-08T12:31:33Z</time>
      </trkpt>
      <trkpt lat="49.78874" lon="3.96946">
        <ele>169.33</ele>
        <time>2021-08-08T12:31:40Z</time>
      </trkpt>
      <trkpt lat="49.7887" lon="3.96948">
        <ele>169.33</ele>
        <time>2021-08-08T12:31:42Z</time>
      </trkpt>
      <trkpt lat="49.78868" lon="3.9695">
        <ele>169.33</ele>
        <time>2021-08-08T12:31:43Z</time>
      </trkpt>
      <trkpt lat="49.78866" lon="3.96951">
        <ele>169.81</ele>
        <time>2021-08-08T12:31:44Z</time>
      </trkpt>
      <trkpt lat="49.78864" lon="3.96952">
        <ele>169.81</ele>
        <time>2021-08-08T12:31:45Z</time>
      </trkpt>
      <trkpt lat="49.78862" lon="3.96953">
        <ele>169.81</ele>
        <time>2021-08-08T12:31:46Z</time>
      </trkpt>
      <trkpt lat="49.7885" lon="3.96958">
        <ele>170.77</ele>
        <time>2021-08-08T12:31:53Z</time>
      </trkpt>
      <trkpt lat="49.78826" lon="3.96969">
        <ele>171.73</ele>
        <time>2021-08-08T12:32:03Z</time>
      </trkpt>
      <trkpt lat="49.788" lon="3.96965">
        <ele>169.81</ele>
        <time>2021-08-08T12:32:12Z</time>
      </trkpt>
      <trkpt lat="49.78796" lon="3.96962">
        <ele>169.33</ele>
        <time>2021-08-08T12:32:13Z</time>
      </trkpt>
      <trkpt lat="49.78793" lon="3.96958">
        <ele>169.33</ele>
        <time>2021-08-08T12:32:14Z</time>
      </trkpt>
      <trkpt lat="49.78756" lon="3.9691">
        <ele>166.45</ele>
        <time>2021-08-08T12:32:24Z</time>
      </trkpt>
      <trkpt lat="49.78728" lon="3.9687">
        <ele>163.08</ele>
        <time>2021-08-08T12:32:30Z</time>
      </trkpt>
      <trkpt lat="49.78693" lon="3.96823">
        <ele>159.72</ele>
        <time>2021-08-08T12:32:36Z</time>
      </trkpt>
      <trkpt lat="49.78687" lon="3.96814">
        <ele>159.72</ele>
        <time>2021-08-08T12:32:37Z</time>
      </trkpt>
      <trkpt lat="49.78668" lon="3.96788">
        <ele>158.27</ele>
        <time>2021-08-08T12:32:40Z</time>
      </trkpt>
      <trkpt lat="49.78655" lon="3.96771">
        <ele>156.83</ele>
        <time>2021-08-08T12:32:42Z</time>
      </trkpt>
      <trkpt lat="49.78614" lon="3.96716">
        <ele>153.47</ele>
        <time>2021-08-08T12:32:48Z</time>
      </trkpt>
      <trkpt lat="49.78607" lon="3.96706">
        <ele>153.47</ele>
        <time>2021-08-08T12:32:49Z</time>
      </trkpt>
      <trkpt lat="49.78582" lon="3.96659">
        <ele>150.58</ele>
        <time>2021-08-08T12:32:53Z</time>
      </trkpt>
      <trkpt lat="49.78562" lon="3.96589">
        <ele>147.7</ele>
        <time>2021-08-08T12:32:58Z</time>
      </trkpt>
      <trkpt lat="49.78548" lon="3.96528">
        <ele>144.34</ele>
        <time>2021-08-08T12:33:02Z</time>
      </trkpt>
      <trkpt lat="49.78527" lon="3.96453">
        <ele>141.45</ele>
        <time>2021-08-08T12:33:07Z</time>
      </trkpt>
      <trkpt lat="49.78521" lon="3.96441">
        <ele>140.49</ele>
        <time>2021-08-08T12:33:08Z</time>
      </trkpt>
      <trkpt lat="49.78513" lon="3.9643">
        <ele>140.01</ele>
        <time>2021-08-08T12:33:09Z</time>
      </trkpt>
      <trkpt lat="49.78505" lon="3.96422">
        <ele>139.53</ele>
        <time>2021-08-08T12:33:10Z</time>
      </trkpt>
      <trkpt lat="49.78496" lon="3.96418">
        <ele>138.09</ele>
        <time>2021-08-08T12:33:11Z</time>
      </trkpt>
      <trkpt lat="49.78486" lon="3.96417">
        <ele>137.13</ele>
        <time>2021-08-08T12:33:12Z</time>
      </trkpt>
      <trkpt lat="49.78476" lon="3.9642">
        <ele>137.13</ele>
        <time>2021-08-08T12:33:13Z</time>
      </trkpt>
      <trkpt lat="49.78467" lon="3.96426">
        <ele>136.16</ele>
        <time>2021-08-08T12:33:14Z</time>
      </trkpt>
      <trkpt lat="49.78458" lon="3.96436">
        <ele>136.16</ele>
        <time>2021-08-08T12:33:15Z</time>
      </trkpt>
      <trkpt lat="49.78451" lon="3.96448">
        <ele>135.2</ele>
        <time>2021-08-08T12:33:16Z</time>
      </trkpt>
      <trkpt lat="49.78444" lon="3.9646">
        <ele>134.24</ele>
        <time>2021-08-08T12:33:17Z</time>
      </trkpt>
      <trkpt lat="49.78438" lon="3.96473">
        <ele>133.76</ele>
        <time>2021-08-08T12:33:18Z</time>
      </trkpt>
      <trkpt lat="49.78432" lon="3.96486">
        <ele>133.76</ele>
        <time>2021-08-08T12:33:19Z</time>
      </trkpt>
      <trkpt lat="49.78408" lon="3.96543">
        <ele>130.4</ele>
        <time>2021-08-08T12:33:23Z</time>
      </trkpt>
      <trkpt lat="49.78401" lon="3.96557">
        <ele>130.4</ele>
        <time>2021-08-08T12:33:24Z</time>
      </trkpt>
      <trkpt lat="49.78383" lon="3.96599">
        <ele>127.03</ele>
        <time>2021-08-08T12:33:27Z</time>
      </trkpt>
      <trkpt lat="49.78369" lon="3.96625">
        <ele>125.59</ele>
        <time>2021-08-08T12:33:29Z</time>
      </trkpt>
      <trkpt lat="49.7836" lon="3.96636">
        <ele>125.11</ele>
        <time>2021-08-08T12:33:30Z</time>
      </trkpt>
      <trkpt lat="49.78351" lon="3.96644">
        <ele>123.19</ele>
        <time>2021-08-08T12:33:31Z</time>
      </trkpt>
      <trkpt lat="49.7834" lon="3.96647">
        <ele>122.71</ele>
        <time>2021-08-08T12:33:32Z</time>
      </trkpt>
      <trkpt lat="49.78329" lon="3.96647">
        <ele>125.11</ele>
        <time>2021-08-08T12:33:33Z</time>
      </trkpt>
      <trkpt lat="49.78318" lon="3.96643">
        <ele>125.11</ele>
        <time>2021-08-08T12:33:34Z</time>
      </trkpt>
      <trkpt lat="49.78309" lon="3.96639">
        <ele>125.11</ele>
        <time>2021-08-08T12:33:35Z</time>
      </trkpt>
      <trkpt lat="49.7825" lon="3.96615">
        <ele>125.59</ele>
        <time>2021-08-08T12:33:42Z</time>
      </trkpt>
      <trkpt lat="49.78192" lon="3.96595">
        <ele>126.55</ele>
        <time>2021-08-08T12:33:50Z</time>
      </trkpt>
      <trkpt lat="49.7815" lon="3.96582">
        <ele>127.03</ele>
        <time>2021-08-08T12:33:57Z</time>
      </trkpt>
      <trkpt lat="49.78134" lon="3.96577">
        <ele>127.03</ele>
        <time>2021-08-08T12:34:00Z</time>
      </trkpt>
      <trkpt lat="49.7813" lon="3.96574">
        <ele>127.03</ele>
        <time>2021-08-08T12:34:01Z</time>
      </trkpt>
      <trkpt lat="49.78126" lon="3.96571">
        <ele>127.51</ele>
        <time>2021-08-08T12:34:02Z</time>
      </trkpt>
      <trkpt lat="49.78123" lon="3.96567">
        <ele>127.51</ele>
        <time>2021-08-08T12:34:03Z</time>
      </trkpt>
      <trkpt lat="49.7812" lon="3.96562">
        <ele>127.51</ele>
        <time>2021-08-08T12:34:04Z</time>
      </trkpt>
      <trkpt lat="49.78117" lon="3.96557">
        <ele>127.51</ele>
        <time>2021-08-08T12:34:05Z</time>
      </trkpt>
      <trkpt lat="49.78103" lon="3.96522">
        <ele>127.99</ele>
        <time>2021-08-08T12:34:12Z</time>
      </trkpt>
      <trkpt lat="49.78091" lon="3.9648">
        <ele>129.92</ele>
        <time>2021-08-08T12:34:21Z</time>
      </trkpt>
      <trkpt lat="49.78081" lon="3.96452">
        <ele>131.36</ele>
        <time>2021-08-08T12:34:28Z</time>
      </trkpt>
      <trkpt lat="49.78065" lon="3.96421">
        <ele>132.32</ele>
        <time>2021-08-08T12:34:37Z</time>
      </trkpt>
      <trkpt lat="49.78052" lon="3.96403">
        <ele>133.76</ele>
        <time>2021-08-08T12:34:44Z</time>
      </trkpt>
      <trkpt lat="49.78034" lon="3.96381">
        <ele>135.2</ele>
        <time>2021-08-08T12:34:53Z</time>
      </trkpt>
      <trkpt lat="49.78024" lon="3.96357">
        <ele>136.16</ele>
        <time>2021-08-08T12:35:00Z</time>
      </trkpt>
      <trkpt lat="49.78022" lon="3.96351">
        <ele>136.16</ele>
        <time>2021-08-08T12:35:02Z</time>
      </trkpt>
      <trkpt lat="49.78022" lon="3.96355">
        <ele>136.64</ele>
        <time>2021-08-08T12:35:05Z</time>
      </trkpt>
      <trkpt lat="49.78024" lon="3.96357">
        <ele>136.64</ele>
        <time>2021-08-08T12:35:06Z</time>
      </trkpt>
      <trkpt lat="49.78025" lon="3.96361">
        <ele>136.64</ele>
        <time>2021-08-08T12:35:07Z</time>
      </trkpt>
      <trkpt lat="49.78026" lon="3.96364">
        <ele>136.64</ele>
        <time>2021-08-08T12:35:08Z</time>
      </trkpt>
      <trkpt lat="49.78026" lon="3.9637">
        <ele>136.64</ele>
        <time>2021-08-08T12:35:09Z</time>
      </trkpt>
      <trkpt lat="49.78026" lon="3.96375">
        <ele>136.64</ele>
        <time>2021-08-08T12:35:10Z</time>
      </trkpt>
      <trkpt lat="49.78025" lon="3.9638">
        <ele>136.64</ele>
        <time>2021-08-08T12:35:11Z</time>
      </trkpt>
      <trkpt lat="49.78022" lon="3.96397">
        <ele>137.13</ele>
        <time>2021-08-08T12:35:16Z</time>
      </trkpt>
      <trkpt lat="49.7802" lon="3.96398">
        <ele>137.13</ele>
        <time>2021-08-08T12:35:17Z</time>
      </trkpt>
      <trkpt lat="49.78018" lon="3.96398">
        <ele>137.13</ele>
        <time>2021-08-08T12:35:18Z</time>
      </trkpt>
      <trkpt lat="49.78016" lon="3.96397">
        <ele>137.13</ele>
        <time>2021-08-08T12:35:19Z</time>
      </trkpt>
      <trkpt lat="49.78014" lon="3.96396">
        <ele>137.13</ele>
        <time>2021-08-08T12:35:20Z</time>
      </trkpt>
      <trkpt lat="49.78013" lon="3.96396">
        <ele>137.13</ele>
        <time>2021-08-08T12:35:21Z</time>
      </trkpt>
      <trkpt lat="49.78012" lon="3.96396">
        <ele>138.09</ele>
        <time>2021-08-08T12:35:22Z</time>
      </trkpt>
      <trkpt lat="49.77999" lon="3.96391">
        <ele>140.97</ele>
        <time>2021-08-08T12:35:31Z</time>
      </trkpt>
      <trkpt lat="49.77987" lon="3.96387">
        <ele>141.45</ele>
        <time>2021-08-08T12:35:39Z</time>
      </trkpt>
      <trkpt lat="49.77968" lon="3.96382">
        <ele>141.93</ele>
        <time>2021-08-08T12:35:49Z</time>
      </trkpt>
      <trkpt lat="49.77962" lon="3.96386">
        <ele>142.89</ele>
        <time>2021-08-08T12:35:53Z</time>
      </trkpt>
      <trkpt lat="49.77961" lon="3.96388">
        <ele>142.89</ele>
        <time>2021-08-08T12:35:54Z</time>
      </trkpt>
      <trkpt lat="49.77957" lon="3.96422">
        <ele>143.37</ele>
        <time>2021-08-08T12:36:04Z</time>
      </trkpt>
      <trkpt lat="49.77954" lon="3.96448">
        <ele>144.34</ele>
        <time>2021-08-08T12:36:11Z</time>
      </trkpt>
      <trkpt lat="49.7795" lon="3.96484">
        <ele>144.34</ele>
        <time>2021-08-08T12:36:19Z</time>
      </trkpt>
      <trkpt lat="49.77945" lon="3.96525">
        <ele>144.82</ele>
        <time>2021-08-08T12:36:27Z</time>
      </trkpt>
      <trkpt lat="49.77936" lon="3.96581">
        <ele>145.78</ele>
        <time>2021-08-08T12:36:37Z</time>
      </trkpt>
      <trkpt lat="49.77925" lon="3.96627">
        <ele>146.74</ele>
        <time>2021-08-08T12:36:45Z</time>
      </trkpt>
      <trkpt lat="49.77913" lon="3.96681">
        <ele>147.7</ele>
        <time>2021-08-08T12:36:55Z</time>
      </trkpt>
      <trkpt lat="49.77897" lon="3.96757">
        <ele>148.18</ele>
        <time>2021-08-08T12:37:08Z</time>
      </trkpt>
      <trkpt lat="49.77878" lon="3.96824">
        <ele>149.14</ele>
        <time>2021-08-08T12:37:19Z</time>
      </trkpt>
      <trkpt lat="49.77871" lon="3.96846">
        <ele>147.7</ele>
        <time>2021-08-08T12:37:22Z</time>
      </trkpt>
      <trkpt lat="49.77849" lon="3.96935">
        <ele>146.26</ele>
        <time>2021-08-08T12:37:33Z</time>
      </trkpt>
      <trkpt lat="49.77845" lon="3.9698">
        <ele>146.26</ele>
        <time>2021-08-08T12:37:38Z</time>
      </trkpt>
      <trkpt lat="49.77847" lon="3.9703">
        <ele>149.14</ele>
        <time>2021-08-08T12:37:45Z</time>
      </trkpt>
      <trkpt lat="49.77851" lon="3.97094">
        <ele>151.54</ele>
        <time>2021-08-08T12:37:57Z</time>
      </trkpt>
      <trkpt lat="49.77855" lon="3.97154">
        <ele>153.95</ele>
        <time>2021-08-08T12:38:09Z</time>
      </trkpt>
      <trkpt lat="49.77857" lon="3.97203">
        <ele>154.91</ele>
        <time>2021-08-08T12:38:19Z</time>
      </trkpt>
      <trkpt lat="49.77859" lon="3.97252">
        <ele>156.83</ele>
        <time>2021-08-08T12:38:29Z</time>
      </trkpt>
      <trkpt lat="49.77862" lon="3.97304">
        <ele>157.79</ele>
        <time>2021-08-08T12:38:39Z</time>
      </trkpt>
      <trkpt lat="49.77865" lon="3.97379">
        <ele>158.27</ele>
        <time>2021-08-08T12:38:51Z</time>
      </trkpt>
      <trkpt lat="49.7787" lon="3.97467">
        <ele>159.24</ele>
        <time>2021-08-08T12:39:04Z</time>
      </trkpt>
      <trkpt lat="49.77874" lon="3.97539">
        <ele>159.72</ele>
        <time>2021-08-08T12:39:14Z</time>
      </trkpt>
      <trkpt lat="49.77875" lon="3.97577">
        <ele>160.2</ele>
        <time>2021-08-08T12:39:19Z</time>
      </trkpt>
      <trkpt lat="49.7788" lon="3.97648">
        <ele>161.64</ele>
        <time>2021-08-08T12:39:29Z</time>
      </trkpt>
      <trkpt lat="49.77883" lon="3.97715">
        <ele>161.64</ele>
        <time>2021-08-08T12:39:38Z</time>
      </trkpt>
      <trkpt lat="49.77882" lon="3.97758">
        <ele>162.12</ele>
        <time>2021-08-08T12:39:44Z</time>
      </trkpt>
      <trkpt lat="49.77882" lon="3.97766">
        <ele>162.12</ele>
        <time>2021-08-08T12:39:45Z</time>
      </trkpt>
      <trkpt lat="49.77879" lon="3.97815">
        <ele>163.08</ele>
        <time>2021-08-08T12:39:53Z</time>
      </trkpt>
      <trkpt lat="49.77876" lon="3.97858">
        <ele>163.08</ele>
        <time>2021-08-08T12:40:00Z</time>
      </trkpt>
      <trkpt lat="49.77872" lon="3.97906">
        <ele>163.08</ele>
        <time>2021-08-08T12:40:07Z</time>
      </trkpt>
      <trkpt lat="49.77871" lon="3.97913">
        <ele>163.08</ele>
        <time>2021-08-08T12:40:08Z</time>
      </trkpt>
      <trkpt lat="49.77866" lon="3.97985">
        <ele>163.56</ele>
        <time>2021-08-08T12:40:18Z</time>
      </trkpt>
      <trkpt lat="49.77854" lon="3.98056">
        <ele>164.52</ele>
        <time>2021-08-08T12:40:29Z</time>
      </trkpt>
      <trkpt lat="49.77842" lon="3.9811">
        <ele>166.45</ele>
        <time>2021-08-08T12:40:39Z</time>
      </trkpt>
      <trkpt lat="49.7783" lon="3.98158">
        <ele>167.41</ele>
        <time>2021-08-08T12:40:49Z</time>
      </trkpt>
      <trkpt lat="49.77818" lon="3.98172">
        <ele>168.85</ele>
        <time>2021-08-08T12:40:55Z</time>
      </trkpt>
      <trkpt lat="49.77807" lon="3.98177">
        <ele>170.29</ele>
        <time>2021-08-08T12:41:02Z</time>
      </trkpt>
      <trkpt lat="49.778" lon="3.98182">
        <ele>171.73</ele>
        <time>2021-08-08T12:41:08Z</time>
      </trkpt>
      <trkpt lat="49.77788" lon="3.98189">
        <ele>172.69</ele>
        <time>2021-08-08T12:41:15Z</time>
      </trkpt>
      <trkpt lat="49.77775" lon="3.98203">
        <ele>173.66</ele>
        <time>2021-08-08T12:41:21Z</time>
      </trkpt>
      <trkpt lat="49.77764" lon="3.98212">
        <ele>175.1</ele>
        <time>2021-08-08T12:41:28Z</time>
      </trkpt>
      <trkpt lat="49.77753" lon="3.98219">
        <ele>175.58</ele>
        <time>2021-08-08T12:41:34Z</time>
      </trkpt>
      <trkpt lat="49.77737" lon="3.98234">
        <ele>177.5</ele>
        <time>2021-08-08T12:41:41Z</time>
      </trkpt>
      <trkpt lat="49.77723" lon="3.98245">
        <ele>178.46</ele>
        <time>2021-08-08T12:41:48Z</time>
      </trkpt>
      <trkpt lat="49.77718" lon="3.98247">
        <ele>178.94</ele>
        <time>2021-08-08T12:41:51Z</time>
      </trkpt>
      <trkpt lat="49.7771" lon="3.98253">
        <ele>179.9</ele>
        <time>2021-08-08T12:41:57Z</time>
      </trkpt>
      <trkpt lat="49.77696" lon="3.98267">
        <ele>180.87</ele>
        <time>2021-08-08T12:42:05Z</time>
      </trkpt>
      <trkpt lat="49.77678" lon="3.98281">
        <ele>181.83</ele>
        <time>2021-08-08T12:42:12Z</time>
      </trkpt>
      <trkpt lat="49.77653" lon="3.983">
        <ele>182.79</ele>
        <time>2021-08-08T12:42:20Z</time>
      </trkpt>
      <trkpt lat="49.77632" lon="3.98316">
        <ele>183.27</ele>
        <time>2021-08-08T12:42:27Z</time>
      </trkpt>
      <trkpt lat="49.77616" lon="3.98328">
        <ele>183.75</ele>
        <time>2021-08-08T12:42:32Z</time>
      </trkpt>
      <trkpt lat="49.77583" lon="3.98351">
        <ele>183.75</ele>
        <time>2021-08-08T12:42:41Z</time>
      </trkpt>
      <trkpt lat="49.77558" lon="3.98372">
        <ele>184.71</ele>
        <time>2021-08-08T12:42:48Z</time>
      </trkpt>
      <trkpt lat="49.77543" lon="3.98386">
        <ele>185.19</ele>
        <time>2021-08-08T12:42:53Z</time>
      </trkpt>
      <trkpt lat="49.77524" lon="3.98401">
        <ele>186.15</ele>
        <time>2021-08-08T12:43:01Z</time>
      </trkpt>
      <trkpt lat="49.7751" lon="3.98412">
        <ele>187.11</ele>
        <time>2021-08-08T12:43:08Z</time>
      </trkpt>
      <trkpt lat="49.77491" lon="3.98427">
        <ele>188.56</ele>
        <time>2021-08-08T12:43:15Z</time>
      </trkpt>
      <trkpt lat="49.77477" lon="3.98438">
        <ele>189.52</ele>
        <time>2021-08-08T12:43:21Z</time>
      </trkpt>
      <trkpt lat="49.77459" lon="3.98452">
        <ele>190</ele>
        <time>2021-08-08T12:43:29Z</time>
      </trkpt>
      <trkpt lat="49.7744" lon="3.98466">
        <ele>191.44</ele>
        <time>2021-08-08T12:43:37Z</time>
      </trkpt>
      <trkpt lat="49.77404" lon="3.98492">
        <ele>191.92</ele>
        <time>2021-08-08T12:43:46Z</time>
      </trkpt>
      <trkpt lat="49.77386" lon="3.98505">
        <ele>192.88</ele>
        <time>2021-08-08T12:43:53Z</time>
      </trkpt>
      <trkpt lat="49.77366" lon="3.98519">
        <ele>194.32</ele>
        <time>2021-08-08T12:44:01Z</time>
      </trkpt>
      <trkpt lat="49.77337" lon="3.98541">
        <ele>194.32</ele>
        <time>2021-08-08T12:44:11Z</time>
      </trkpt>
      <trkpt lat="49.77304" lon="3.98565">
        <ele>195.77</ele>
        <time>2021-08-08T12:44:21Z</time>
      </trkpt>
      <trkpt lat="49.77281" lon="3.98585">
        <ele>194.32</ele>
        <time>2021-08-08T12:44:27Z</time>
      </trkpt>
      <trkpt lat="49.77247" lon="3.98611">
        <ele>191.92</ele>
        <time>2021-08-08T12:44:35Z</time>
      </trkpt>
      <trkpt lat="49.7721" lon="3.9864">
        <ele>190.48</ele>
        <time>2021-08-08T12:44:42Z</time>
      </trkpt>
      <trkpt lat="49.77172" lon="3.98668">
        <ele>190.48</ele>
        <time>2021-08-08T12:44:49Z</time>
      </trkpt>
      <trkpt lat="49.77131" lon="3.987">
        <ele>186.63</ele>
        <time>2021-08-08T12:44:55Z</time>
      </trkpt>
      <trkpt lat="49.77085" lon="3.98739">
        <ele>182.79</ele>
        <time>2021-08-08T12:45:01Z</time>
      </trkpt>
      <trkpt lat="49.77018" lon="3.98793">
        <ele>178.94</ele>
        <time>2021-08-08T12:45:09Z</time>
      </trkpt>
      <trkpt lat="49.77001" lon="3.98806">
        <ele>177.98</ele>
        <time>2021-08-08T12:45:11Z</time>
      </trkpt>
      <trkpt lat="49.76971" lon="3.98824">
        <ele>176.06</ele>
        <time>2021-08-08T12:45:14Z</time>
      </trkpt>
      <trkpt lat="49.76962" lon="3.98827">
        <ele>175.58</ele>
        <time>2021-08-08T12:45:15Z</time>
      </trkpt>
      <trkpt lat="49.76934" lon="3.98834">
        <ele>175.1</ele>
        <time>2021-08-08T12:45:18Z</time>
      </trkpt>
      <trkpt lat="49.76926" lon="3.98834">
        <ele>175.1</ele>
        <time>2021-08-08T12:45:19Z</time>
      </trkpt>
      <trkpt lat="49.76906" lon="3.98832">
        <ele>178.46</ele>
        <time>2021-08-08T12:45:22Z</time>
      </trkpt>
      <trkpt lat="49.76876" lon="3.98828">
        <ele>180.87</ele>
        <time>2021-08-08T12:45:28Z</time>
      </trkpt>
      <trkpt lat="49.76872" lon="3.98827">
        <ele>180.87</ele>
        <time>2021-08-08T12:45:29Z</time>
      </trkpt>
      <trkpt lat="49.76868" lon="3.98826">
        <ele>181.35</ele>
        <time>2021-08-08T12:45:30Z</time>
      </trkpt>
      <trkpt lat="49.76865" lon="3.98825">
        <ele>181.35</ele>
        <time>2021-08-08T12:45:31Z</time>
      </trkpt>
      <trkpt lat="49.76861" lon="3.98824">
        <ele>181.83</ele>
        <time>2021-08-08T12:45:32Z</time>
      </trkpt>
      <trkpt lat="49.76857" lon="3.98824">
        <ele>181.83</ele>
        <time>2021-08-08T12:45:33Z</time>
      </trkpt>
      <trkpt lat="49.76854" lon="3.98823">
        <ele>181.83</ele>
        <time>2021-08-08T12:45:34Z</time>
      </trkpt>
      <trkpt lat="49.76828" lon="3.98819">
        <ele>183.27</ele>
        <time>2021-08-08T12:45:41Z</time>
      </trkpt>
      <trkpt lat="49.76808" lon="3.98815">
        <ele>184.71</ele>
        <time>2021-08-08T12:45:48Z</time>
      </trkpt>
      <trkpt lat="49.76783" lon="3.98811">
        <ele>185.67</ele>
        <time>2021-08-08T12:45:56Z</time>
      </trkpt>
      <trkpt lat="49.76751" lon="3.98804">
        <ele>186.15</ele>
        <time>2021-08-08T12:46:05Z</time>
      </trkpt>
      <trkpt lat="49.76731" lon="3.98801">
        <ele>186.15</ele>
        <time>2021-08-08T12:46:11Z</time>
      </trkpt>
      <trkpt lat="49.76702" lon="3.98795">
        <ele>186.15</ele>
        <time>2021-08-08T12:46:20Z</time>
      </trkpt>
      <trkpt lat="49.76664" lon="3.98789">
        <ele>186.63</ele>
        <time>2021-08-08T12:46:31Z</time>
      </trkpt>
      <trkpt lat="49.76642" lon="3.98784">
        <ele>187.59</ele>
        <time>2021-08-08T12:46:37Z</time>
      </trkpt>
      <trkpt lat="49.76607" lon="3.98778">
        <ele>189.04</ele>
        <time>2021-08-08T12:46:46Z</time>
      </trkpt>
      <trkpt lat="49.76572" lon="3.98772">
        <ele>190.96</ele>
        <time>2021-08-08T12:46:56Z</time>
      </trkpt>
      <trkpt lat="49.7654" lon="3.98765">
        <ele>191.92</ele>
        <time>2021-08-08T12:47:06Z</time>
      </trkpt>
      <trkpt lat="49.76521" lon="3.98762">
        <ele>193.36</ele>
        <time>2021-08-08T12:47:12Z</time>
      </trkpt>
      <trkpt lat="49.76489" lon="3.98758">
        <ele>194.32</ele>
        <time>2021-08-08T12:47:23Z</time>
      </trkpt>
      <trkpt lat="49.76463" lon="3.98753">
        <ele>194.8</ele>
        <time>2021-08-08T12:47:32Z</time>
      </trkpt>
      <trkpt lat="49.76445" lon="3.9875">
        <ele>193.36</ele>
        <time>2021-08-08T12:47:37Z</time>
      </trkpt>
      <trkpt lat="49.76417" lon="3.98745">
        <ele>192.4</ele>
        <time>2021-08-08T12:47:45Z</time>
      </trkpt>
      <trkpt lat="49.76394" lon="3.98739">
        <ele>190.96</ele>
        <time>2021-08-08T12:47:50Z</time>
      </trkpt>
      <trkpt lat="49.76358" lon="3.98733">
        <ele>188.08</ele>
        <time>2021-08-08T12:47:56Z</time>
      </trkpt>
      <trkpt lat="49.76307" lon="3.98723">
        <ele>187.59</ele>
        <time>2021-08-08T12:48:04Z</time>
      </trkpt>
      <trkpt lat="49.76255" lon="3.98714">
        <ele>187.11</ele>
        <time>2021-08-08T12:48:12Z</time>
      </trkpt>
      <trkpt lat="49.76231" lon="3.9871">
        <ele>188.56</ele>
        <time>2021-08-08T12:48:16Z</time>
      </trkpt>
      <trkpt lat="49.76203" lon="3.98705">
        <ele>187.11</ele>
        <time>2021-08-08T12:48:20Z</time>
      </trkpt>
      <trkpt lat="49.76184" lon="3.98699">
        <ele>187.11</ele>
        <time>2021-08-08T12:48:23Z</time>
      </trkpt>
      <trkpt lat="49.76178" lon="3.98698">
        <ele>186.63</ele>
        <time>2021-08-08T12:48:24Z</time>
      </trkpt>
      <trkpt lat="49.76171" lon="3.98699">
        <ele>186.63</ele>
        <time>2021-08-08T12:48:25Z</time>
      </trkpt>
      <trkpt lat="49.76167" lon="3.98701">
        <ele>186.63</ele>
        <time>2021-08-08T12:48:26Z</time>
      </trkpt>
      <trkpt lat="49.76161" lon="3.98704">
        <ele>186.63</ele>
        <time>2021-08-08T12:48:27Z</time>
      </trkpt>
      <trkpt lat="49.76155" lon="3.98707">
        <ele>186.63</ele>
        <time>2021-08-08T12:48:28Z</time>
      </trkpt>
      <trkpt lat="49.76107" lon="3.98744">
        <ele>186.63</ele>
        <time>2021-08-08T12:48:37Z</time>
      </trkpt>
      <trkpt lat="49.76077" lon="3.98769">
        <ele>188.08</ele>
        <time>2021-08-08T12:48:44Z</time>
      </trkpt>
      <trkpt lat="49.76046" lon="3.98798">
        <ele>188.08</ele>
        <time>2021-08-08T12:48:53Z</time>
      </trkpt>
      <trkpt lat="49.76026" lon="3.98821">
        <ele>189.52</ele>
        <time>2021-08-08T12:49:00Z</time>
      </trkpt>
      <trkpt lat="49.76006" lon="3.98856">
        <ele>190</ele>
        <time>2021-08-08T12:49:10Z</time>
      </trkpt>
      <trkpt lat="49.75986" lon="3.9889">
        <ele>191.44</ele>
        <time>2021-08-08T12:49:21Z</time>
      </trkpt>
      <trkpt lat="49.75971" lon="3.98913">
        <ele>192.88</ele>
        <time>2021-08-08T12:49:30Z</time>
      </trkpt>
      <trkpt lat="49.75951" lon="3.98935">
        <ele>194.8</ele>
        <time>2021-08-08T12:49:40Z</time>
      </trkpt>
      <trkpt lat="49.75935" lon="3.98952">
        <ele>195.77</ele>
        <time>2021-08-08T12:49:48Z</time>
      </trkpt>
      <trkpt lat="49.75912" lon="3.98971">
        <ele>197.21</ele>
        <time>2021-08-08T12:49:58Z</time>
      </trkpt>
      <trkpt lat="49.75882" lon="3.98992">
        <ele>196.73</ele>
        <time>2021-08-08T12:50:09Z</time>
      </trkpt>
      <trkpt lat="49.75862" lon="3.99006">
        <ele>195.77</ele>
        <time>2021-08-08T12:50:15Z</time>
      </trkpt>
      <trkpt lat="49.75826" lon="3.99032">
        <ele>193.84</ele>
        <time>2021-08-08T12:50:24Z</time>
      </trkpt>
      <trkpt lat="49.75804" lon="3.99048">
        <ele>193.36</ele>
        <time>2021-08-08T12:50:29Z</time>
      </trkpt>
      <trkpt lat="49.75799" lon="3.99051">
        <ele>192.88</ele>
        <time>2021-08-08T12:50:30Z</time>
      </trkpt>
      <trkpt lat="49.75756" lon="3.99082">
        <ele>190.48</ele>
        <time>2021-08-08T12:50:38Z</time>
      </trkpt>
      <trkpt lat="49.75715" lon="3.99113">
        <ele>187.11</ele>
        <time>2021-08-08T12:50:45Z</time>
      </trkpt>
      <trkpt lat="49.7571" lon="3.99117">
        <ele>187.11</ele>
        <time>2021-08-08T12:50:46Z</time>
      </trkpt>
      <trkpt lat="49.75666" lon="3.99154">
        <ele>183.75</ele>
        <time>2021-08-08T12:50:54Z</time>
      </trkpt>
      <trkpt lat="49.75661" lon="3.99159">
        <ele>183.75</ele>
        <time>2021-08-08T12:50:55Z</time>
      </trkpt>
      <trkpt lat="49.75626" lon="3.99188">
        <ele>182.31</ele>
        <time>2021-08-08T12:51:02Z</time>
      </trkpt>
      <trkpt lat="49.75607" lon="3.99204">
        <ele>181.83</ele>
        <time>2021-08-08T12:51:06Z</time>
      </trkpt>
      <trkpt lat="49.75602" lon="3.99208">
        <ele>181.83</ele>
        <time>2021-08-08T12:51:07Z</time>
      </trkpt>
      <trkpt lat="49.75575" lon="3.99232">
        <ele>181.83</ele>
        <time>2021-08-08T12:51:14Z</time>
      </trkpt>
      <trkpt lat="49.75567" lon="3.99238">
        <ele>181.83</ele>
        <time>2021-08-08T12:51:16Z</time>
      </trkpt>
      <trkpt lat="49.75564" lon="3.99241">
        <ele>181.83</ele>
        <time>2021-08-08T12:51:17Z</time>
      </trkpt>
      <trkpt lat="49.75542" lon="3.9926">
        <ele>181.83</ele>
        <time>2021-08-08T12:51:23Z</time>
      </trkpt>
      <trkpt lat="49.75539" lon="3.99263">
        <ele>181.83</ele>
        <time>2021-08-08T12:51:24Z</time>
      </trkpt>
      <trkpt lat="49.75535" lon="3.99267">
        <ele>181.35</ele>
        <time>2021-08-08T12:51:25Z</time>
      </trkpt>
      <trkpt lat="49.75516" lon="3.99301">
        <ele>181.35</ele>
        <time>2021-08-08T12:51:33Z</time>
      </trkpt>
      <trkpt lat="49.75511" lon="3.99316">
        <ele>181.35</ele>
        <time>2021-08-08T12:51:36Z</time>
      </trkpt>
      <trkpt lat="49.75509" lon="3.99319">
        <ele>181.35</ele>
        <time>2021-08-08T12:51:37Z</time>
      </trkpt>
      <trkpt lat="49.75507" lon="3.99325">
        <ele>181.35</ele>
        <time>2021-08-08T12:51:38Z</time>
      </trkpt>
      <trkpt lat="49.75501" lon="3.99356">
        <ele>181.35</ele>
        <time>2021-08-08T12:51:43Z</time>
      </trkpt>
      <trkpt lat="49.75486" lon="3.99435">
        <ele>182.79</ele>
        <time>2021-08-08T12:51:54Z</time>
      </trkpt>
      <trkpt lat="49.75485" lon="3.99443">
        <ele>182.79</ele>
        <time>2021-08-08T12:51:55Z</time>
      </trkpt>
      <trkpt lat="49.75473" lon="3.99494">
        <ele>182.79</ele>
        <time>2021-08-08T12:52:03Z</time>
      </trkpt>
      <trkpt lat="49.7547" lon="3.99495">
        <ele>182.79</ele>
        <time>2021-08-08T12:52:04Z</time>
      </trkpt>
      <trkpt lat="49.75466" lon="3.99495">
        <ele>182.79</ele>
        <time>2021-08-08T12:52:05Z</time>
      </trkpt>
      <trkpt lat="49.75459" lon="3.99493">
        <ele>180.38</ele>
        <time>2021-08-08T12:52:07Z</time>
      </trkpt>
      <trkpt lat="49.75437" lon="3.9949">
        <ele>180.38</ele>
        <time>2021-08-08T12:52:15Z</time>
      </trkpt>
      <trkpt lat="49.75426" lon="3.99487">
        <ele>181.35</ele>
        <time>2021-08-08T12:52:20Z</time>
      </trkpt>
      <trkpt lat="49.75409" lon="3.99481">
        <ele>182.31</ele>
        <time>2021-08-08T12:52:27Z</time>
      </trkpt>
      <trkpt lat="49.75389" lon="3.99476">
        <ele>182.31</ele>
        <time>2021-08-08T12:52:35Z</time>
      </trkpt>
      <trkpt lat="49.75364" lon="3.99469">
        <ele>182.79</ele>
        <time>2021-08-08T12:52:45Z</time>
      </trkpt>
      <trkpt lat="49.75348" lon="3.99466">
        <ele>183.75</ele>
        <time>2021-08-08T12:52:51Z</time>
      </trkpt>
      <trkpt lat="49.7533" lon="3.9946">
        <ele>183.75</ele>
        <time>2021-08-08T12:52:59Z</time>
      </trkpt>
      <trkpt lat="49.7531" lon="3.99452">
        <ele>183.75</ele>
        <time>2021-08-08T12:53:07Z</time>
      </trkpt>
      <trkpt lat="49.75297" lon="3.99447">
        <ele>184.23</ele>
        <time>2021-08-08T12:53:12Z</time>
      </trkpt>
      <trkpt lat="49.75276" lon="3.99439">
        <ele>184.23</ele>
        <time>2021-08-08T12:53:21Z</time>
      </trkpt>
      <trkpt lat="49.75255" lon="3.99433">
        <ele>185.19</ele>
        <time>2021-08-08T12:53:30Z</time>
      </trkpt>
      <trkpt lat="49.75236" lon="3.99431">
        <ele>185.19</ele>
        <time>2021-08-08T12:53:39Z</time>
      </trkpt>
      <trkpt lat="49.75227" lon="3.9943">
        <ele>186.15</ele>
        <time>2021-08-08T12:53:43Z</time>
      </trkpt>
      <trkpt lat="49.75225" lon="3.9943">
        <ele>186.15</ele>
        <time>2021-08-08T12:53:44Z</time>
      </trkpt>
      <trkpt lat="49.75223" lon="3.9943">
        <ele>186.15</ele>
        <time>2021-08-08T12:53:45Z</time>
      </trkpt>
      <trkpt lat="49.75203" lon="3.99428">
        <ele>186.15</ele>
        <time>2021-08-08T12:53:54Z</time>
      </trkpt>
      <trkpt lat="49.75176" lon="3.99427">
        <ele>188.08</ele>
        <time>2021-08-08T12:54:06Z</time>
      </trkpt>
      <trkpt lat="49.7515" lon="3.9943">
        <ele>189.04</ele>
        <time>2021-08-08T12:54:17Z</time>
      </trkpt>
      <trkpt lat="49.75131" lon="3.99434">
        <ele>189.52</ele>
        <time>2021-08-08T12:54:25Z</time>
      </trkpt>
      <trkpt lat="49.75104" lon="3.99438">
        <ele>190.96</ele>
        <time>2021-08-08T12:54:36Z</time>
      </trkpt>
      <trkpt lat="49.75075" lon="3.99438">
        <ele>190.96</ele>
        <time>2021-08-08T12:54:48Z</time>
      </trkpt>
      <trkpt lat="49.75057" lon="3.99435">
        <ele>191.92</ele>
        <time>2021-08-08T12:54:56Z</time>
      </trkpt>
      <trkpt lat="49.75038" lon="3.99423">
        <ele>192.88</ele>
        <time>2021-08-08T12:55:05Z</time>
      </trkpt>
      <trkpt lat="49.75022" lon="3.99411">
        <ele>193.36</ele>
        <time>2021-08-08T12:55:13Z</time>
      </trkpt>
      <trkpt lat="49.75008" lon="3.99397">
        <ele>193.84</ele>
        <time>2021-08-08T12:55:21Z</time>
      </trkpt>
      <trkpt lat="49.74989" lon="3.99377">
        <ele>192.4</ele>
        <time>2021-08-08T12:55:28Z</time>
      </trkpt>
      <trkpt lat="49.74985" lon="3.99372">
        <ele>190.96</ele>
        <time>2021-08-08T12:55:29Z</time>
      </trkpt>
      <trkpt lat="49.74981" lon="3.99367">
        <ele>190.48</ele>
        <time>2021-08-08T12:55:30Z</time>
      </trkpt>
      <trkpt lat="49.74977" lon="3.99363">
        <ele>190.48</ele>
        <time>2021-08-08T12:55:31Z</time>
      </trkpt>
      <trkpt lat="49.74941" lon="3.99323">
        <ele>188.08</ele>
        <time>2021-08-08T12:55:40Z</time>
      </trkpt>
      <trkpt lat="49.74937" lon="3.9932">
        <ele>187.59</ele>
        <time>2021-08-08T12:55:41Z</time>
      </trkpt>
      <trkpt lat="49.74933" lon="3.99317">
        <ele>187.59</ele>
        <time>2021-08-08T12:55:42Z</time>
      </trkpt>
      <trkpt lat="49.7493" lon="3.99315">
        <ele>187.59</ele>
        <time>2021-08-08T12:55:43Z</time>
      </trkpt>
      <trkpt lat="49.74926" lon="3.99312">
        <ele>186.15</ele>
        <time>2021-08-08T12:55:44Z</time>
      </trkpt>
      <trkpt lat="49.74922" lon="3.99309">
        <ele>186.15</ele>
        <time>2021-08-08T12:55:45Z</time>
      </trkpt>
      <trkpt lat="49.74901" lon="3.99292">
        <ele>185.67</ele>
        <time>2021-08-08T12:55:51Z</time>
      </trkpt>
      <trkpt lat="49.74897" lon="3.9929">
        <ele>185.67</ele>
        <time>2021-08-08T12:55:52Z</time>
      </trkpt>
      <trkpt lat="49.74893" lon="3.99288">
        <ele>185.19</ele>
        <time>2021-08-08T12:55:53Z</time>
      </trkpt>
      <trkpt lat="49.74862" lon="3.99262">
        <ele>185.67</ele>
        <time>2021-08-08T12:56:02Z</time>
      </trkpt>
      <trkpt lat="49.74855" lon="3.99257">
        <ele>185.19</ele>
        <time>2021-08-08T12:56:04Z</time>
      </trkpt>
      <trkpt lat="49.74825" lon="3.99234">
        <ele>185.19</ele>
        <time>2021-08-08T12:56:13Z</time>
      </trkpt>
      <trkpt lat="49.74809" lon="3.99206">
        <ele>185.67</ele>
        <time>2021-08-08T12:56:20Z</time>
      </trkpt>
      <trkpt lat="49.74802" lon="3.99194">
        <ele>184.23</ele>
        <time>2021-08-08T12:56:23Z</time>
      </trkpt>
      <trkpt lat="49.74792" lon="3.99178">
        <ele>185.67</ele>
        <time>2021-08-08T12:56:27Z</time>
      </trkpt>
      <trkpt lat="49.7478" lon="3.99163">
        <ele>185.67</ele>
        <time>2021-08-08T12:56:32Z</time>
      </trkpt>
      <trkpt lat="49.74766" lon="3.9914">
        <ele>185.67</ele>
        <time>2021-08-08T12:56:38Z</time>
      </trkpt>
      <trkpt lat="49.74746" lon="3.99107">
        <ele>186.15</ele>
        <time>2021-08-08T12:56:46Z</time>
      </trkpt>
      <trkpt lat="49.74721" lon="3.99065">
        <ele>185.67</ele>
        <time>2021-08-08T12:56:57Z</time>
      </trkpt>
      <trkpt lat="49.74697" lon="3.99023">
        <ele>187.59</ele>
        <time>2021-08-08T12:57:08Z</time>
      </trkpt>
      <trkpt lat="49.74674" lon="3.98985">
        <ele>189.04</ele>
        <time>2021-08-08T12:57:19Z</time>
      </trkpt>
      <trkpt lat="49.74657" lon="3.98955">
        <ele>191.44</ele>
        <time>2021-08-08T12:57:29Z</time>
      </trkpt>
      <trkpt lat="49.74641" lon="3.9893">
        <ele>192.88</ele>
        <time>2021-08-08T12:57:39Z</time>
      </trkpt>
      <trkpt lat="49.74626" lon="3.98903">
        <ele>192.88</ele>
        <time>2021-08-08T12:57:49Z</time>
      </trkpt>
      <trkpt lat="49.74614" lon="3.98883">
        <ele>193.36</ele>
        <time>2021-08-08T12:57:57Z</time>
      </trkpt>
      <trkpt lat="49.74613" lon="3.98881">
        <ele>193.84</ele>
        <time>2021-08-08T12:57:58Z</time>
      </trkpt>
      <trkpt lat="49.74612" lon="3.98878">
        <ele>193.84</ele>
        <time>2021-08-08T12:57:59Z</time>
      </trkpt>
      <trkpt lat="49.74611" lon="3.98876">
        <ele>193.84</ele>
        <time>2021-08-08T12:58:00Z</time>
      </trkpt>
      <trkpt lat="49.7461" lon="3.98874">
        <ele>193.84</ele>
        <time>2021-08-08T12:58:01Z</time>
      </trkpt>
      <trkpt lat="49.7461" lon="3.98872">
        <ele>193.84</ele>
        <time>2021-08-08T12:58:02Z</time>
      </trkpt>
      <trkpt lat="49.74609" lon="3.9887">
        <ele>194.32</ele>
        <time>2021-08-08T12:58:07Z</time>
      </trkpt>
      <trkpt lat="49.74609" lon="3.9887">
        <ele>193.36</ele>
        <time>2021-08-08T12:58:22Z</time>
      </trkpt>
      <trkpt lat="49.7461" lon="3.9887">
        <ele>193.36</ele>
        <time>2021-08-08T12:58:49Z</time>
      </trkpt>
      <trkpt lat="49.7461" lon="3.98871">
        <ele>192.88</ele>
        <time>2021-08-08T12:59:04Z</time>
      </trkpt>
      <trkpt lat="49.7461" lon="3.98872">
        <ele>193.84</ele>
        <time>2021-08-08T12:59:22Z</time>
      </trkpt>
      <trkpt lat="49.7461" lon="3.98872">
        <ele>193.84</ele>
        <time>2021-08-08T12:59:42Z</time>
      </trkpt>
      <trkpt lat="49.7461" lon="3.98871">
        <ele>192.4</ele>
        <time>2021-08-08T12:59:51Z</time>
      </trkpt>
      <trkpt lat="49.74609" lon="3.98871">
        <ele>192.4</ele>
        <time>2021-08-08T13:00:06Z</time>
      </trkpt>
      <trkpt lat="49.74609" lon="3.98871">
        <ele>193.84</ele>
        <time>2021-08-08T13:00:17Z</time>
      </trkpt>
      <trkpt lat="49.74609" lon="3.98871">
        <ele>193.84</ele>
        <time>2021-08-08T13:00:31Z</time>
      </trkpt>
      <trkpt lat="49.7461" lon="3.98871">
        <ele>192.88</ele>
        <time>2021-08-08T13:00:48Z</time>
      </trkpt>
      <trkpt lat="49.7461" lon="3.98871">
        <ele>192.88</ele>
        <time>2021-08-08T13:01:04Z</time>
      </trkpt>
      <trkpt lat="49.7461" lon="3.9887">
        <ele>193.84</ele>
        <time>2021-08-08T13:01:10Z</time>
      </trkpt>
      <trkpt lat="49.74609" lon="3.98871">
        <ele>192.88</ele>
        <time>2021-08-08T13:01:19Z</time>
      </trkpt>
      <trkpt lat="49.7461" lon="3.9887">
        <ele>192.4</ele>
        <time>2021-08-08T13:01:32Z</time>
      </trkpt>
      <trkpt lat="49.74609" lon="3.9887">
        <ele>192.4</ele>
        <time>2021-08-08T13:01:36Z</time>
      </trkpt>
      <trkpt lat="49.74609" lon="3.9887">
        <ele>191.44</ele>
        <time>2021-08-08T13:01:42Z</time>
      </trkpt>
      <trkpt lat="49.7461" lon="3.98871">
        <ele>192.88</ele>
        <time>2021-08-08T13:02:02Z</time>
      </trkpt>
      <trkpt lat="49.7461" lon="3.98871">
        <ele>193.36</ele>
        <time>2021-08-08T13:02:14Z</time>
      </trkpt>
      <trkpt lat="49.74609" lon="3.98871">
        <ele>193.36</ele>
        <time>2021-08-08T13:02:30Z</time>
      </trkpt>
      <trkpt lat="49.7461" lon="3.98871">
        <ele>194.32</ele>
        <time>2021-08-08T13:02:41Z</time>
      </trkpt>
      <trkpt lat="49.7461" lon="3.98871">
        <ele>192.88</ele>
        <time>2021-08-08T13:02:51Z</time>
      </trkpt>
      <trkpt lat="49.7461" lon="3.98871">
        <ele>192.88</ele>
        <time>2021-08-08T13:03:04Z</time>
      </trkpt>
      <trkpt lat="49.74609" lon="3.98872">
        <ele>192.88</ele>
        <time>2021-08-08T13:03:18Z</time>
      </trkpt>
      <trkpt lat="49.7461" lon="3.98871">
        <ele>192.88</ele>
        <time>2021-08-08T13:03:29Z</time>
      </trkpt>
      <trkpt lat="49.74609" lon="3.98871">
        <ele>192.88</ele>
        <time>2021-08-08T13:03:41Z</time>
      </trkpt>
      <trkpt lat="49.74608" lon="3.98871">
        <ele>192.88</ele>
        <time>2021-08-08T13:03:50Z</time>
      </trkpt>
      <trkpt lat="49.74609" lon="3.98871">
        <ele>192.88</ele>
        <time>2021-08-08T13:04:01Z</time>
      </trkpt>
      <trkpt lat="49.74608" lon="3.98871">
        <ele>192.88</ele>
        <time>2021-08-08T13:04:17Z</time>
      </trkpt>
      <trkpt lat="49.74609" lon="3.98871">
        <ele>192.88</ele>
        <time>2021-08-08T13:04:33Z</time>
      </trkpt>
      <trkpt lat="49.74609" lon="3.98871">
        <ele>192.88</ele>
        <time>2021-08-08T13:04:46Z</time>
      </trkpt>
      <trkpt lat="49.7461" lon="3.98871">
        <ele>194.32</ele>
        <time>2021-08-08T13:04:55Z</time>
      </trkpt>
      <trkpt lat="49.74609" lon="3.98871">
        <ele>194.8</ele>
        <time>2021-08-08T13:05:10Z</time>
      </trkpt>
      <trkpt lat="49.74609" lon="3.98871">
        <ele>194.32</ele>
        <time>2021-08-08T13:05:28Z</time>
      </trkpt>
      <trkpt lat="49.74609" lon="3.98871">
        <ele>192.88</ele>
        <time>2021-08-08T13:05:47Z</time>
      </trkpt>
      <trkpt lat="49.7461" lon="3.9887">
        <ele>191.92</ele>
        <time>2021-08-08T13:06:06Z</time>
      </trkpt>
      <trkpt lat="49.7461" lon="3.98871">
        <ele>193.36</ele>
        <time>2021-08-08T13:06:15Z</time>
      </trkpt>
      <trkpt lat="49.74608" lon="3.98873">
        <ele>193.84</ele>
        <time>2021-08-08T13:06:20Z</time>
      </trkpt>
      <trkpt lat="49.74609" lon="3.98876">
        <ele>193.84</ele>
        <time>2021-08-08T13:06:22Z</time>
      </trkpt>
      <trkpt lat="49.74612" lon="3.98878">
        <ele>193.84</ele>
        <time>2021-08-08T13:06:29Z</time>
      </trkpt>
      <trkpt lat="49.74613" lon="3.98879">
        <ele>192.4</ele>
        <time>2021-08-08T13:06:37Z</time>
      </trkpt>
      <trkpt lat="49.74611" lon="3.98879">
        <ele>192.4</ele>
        <time>2021-08-08T13:06:51Z</time>
      </trkpt>
      <trkpt lat="49.74611" lon="3.98879">
        <ele>192.4</ele>
        <time>2021-08-08T13:07:12Z</time>
      </trkpt>
      <trkpt lat="49.74611" lon="3.98877">
        <ele>192.4</ele>
        <time>2021-08-08T13:07:24Z</time>
      </trkpt>
      <trkpt lat="49.74611" lon="3.98876">
        <ele>192.4</ele>
        <time>2021-08-08T13:07:34Z</time>
      </trkpt>
      <trkpt lat="49.74612" lon="3.98876">
        <ele>192.4</ele>
        <time>2021-08-08T13:07:52Z</time>
      </trkpt>
      <trkpt lat="49.74612" lon="3.98876">
        <ele>192.88</ele>
        <time>2021-08-08T13:08:00Z</time>
      </trkpt>
      <trkpt lat="49.74612" lon="3.98876">
        <ele>192.88</ele>
        <time>2021-08-08T13:08:20Z</time>
      </trkpt>
      <trkpt lat="49.74611" lon="3.98875">
        <ele>192.88</ele>
        <time>2021-08-08T13:08:32Z</time>
      </trkpt>
      <trkpt lat="49.7461" lon="3.98873">
        <ele>192.88</ele>
        <time>2021-08-08T13:08:34Z</time>
      </trkpt>
      <trkpt lat="49.746" lon="3.98856">
        <ele>192.88</ele>
        <time>2021-08-08T13:08:41Z</time>
      </trkpt>
      <trkpt lat="49.74582" lon="3.98827">
        <ele>192.88</ele>
        <time>2021-08-08T13:08:50Z</time>
      </trkpt>
      <trkpt lat="49.74572" lon="3.98806">
        <ele>191.92</ele>
        <time>2021-08-08T13:08:56Z</time>
      </trkpt>
      <trkpt lat="49.74555" lon="3.98773">
        <ele>191.92</ele>
        <time>2021-08-08T13:09:04Z</time>
      </trkpt>
      <trkpt lat="49.74541" lon="3.98734">
        <ele>190.48</ele>
        <time>2021-08-08T13:09:12Z</time>
      </trkpt>
      <trkpt lat="49.74532" lon="3.9869">
        <ele>190</ele>
        <time>2021-08-08T13:09:20Z</time>
      </trkpt>
      <trkpt lat="49.74522" lon="3.98631">
        <ele>189.04</ele>
        <time>2021-08-08T13:09:30Z</time>
      </trkpt>
      <trkpt lat="49.74508" lon="3.98588">
        <ele>187.11</ele>
        <time>2021-08-08T13:09:38Z</time>
      </trkpt>
      <trkpt lat="49.74505" lon="3.98588">
        <ele>187.11</ele>
        <time>2021-08-08T13:09:39Z</time>
      </trkpt>
      <trkpt lat="49.74502" lon="3.9859">
        <ele>187.11</ele>
        <time>2021-08-08T13:09:40Z</time>
      </trkpt>
      <trkpt lat="49.745" lon="3.98593">
        <ele>187.11</ele>
        <time>2021-08-08T13:09:41Z</time>
      </trkpt>
      <trkpt lat="49.74499" lon="3.98598">
        <ele>187.11</ele>
        <time>2021-08-08T13:09:42Z</time>
      </trkpt>
      <trkpt lat="49.74482" lon="3.98628">
        <ele>184.23</ele>
        <time>2021-08-08T13:09:48Z</time>
      </trkpt>
      <trkpt lat="49.74455" lon="3.98668">
        <ele>183.27</ele>
        <time>2021-08-08T13:09:56Z</time>
      </trkpt>
      <trkpt lat="49.74418" lon="3.98707">
        <ele>181.83</ele>
        <time>2021-08-08T13:10:06Z</time>
      </trkpt>
      <trkpt lat="49.74387" lon="3.98746">
        <ele>180.87</ele>
        <time>2021-08-08T13:10:15Z</time>
      </trkpt>
      <trkpt lat="49.7436" lon="3.988">
        <ele>178.94</ele>
        <time>2021-08-08T13:10:24Z</time>
      </trkpt>
      <trkpt lat="49.74336" lon="3.98849">
        <ele>175.58</ele>
        <time>2021-08-08T13:10:31Z</time>
      </trkpt>
      <trkpt lat="49.74332" lon="3.98857">
        <ele>175.58</ele>
        <time>2021-08-08T13:10:32Z</time>
      </trkpt>
      <trkpt lat="49.74311" lon="3.98892">
        <ele>173.66</ele>
        <time>2021-08-08T13:10:37Z</time>
      </trkpt>
      <trkpt lat="49.74304" lon="3.98906">
        <ele>172.69</ele>
        <time>2021-08-08T13:10:39Z</time>
      </trkpt>
      <trkpt lat="49.743" lon="3.98913">
        <ele>172.69</ele>
        <time>2021-08-08T13:10:40Z</time>
      </trkpt>
      <trkpt lat="49.74281" lon="3.98948">
        <ele>169.81</ele>
        <time>2021-08-08T13:10:45Z</time>
      </trkpt>
      <trkpt lat="49.74267" lon="3.98973">
        <ele>168.37</ele>
        <time>2021-08-08T13:10:48Z</time>
      </trkpt>
      <trkpt lat="49.74254" lon="3.98998">
        <ele>166.45</ele>
        <time>2021-08-08T13:10:51Z</time>
      </trkpt>
      <trkpt lat="49.74235" lon="3.99035">
        <ele>165</ele>
        <time>2021-08-08T13:10:55Z</time>
      </trkpt>
      <trkpt lat="49.74222" lon="3.99064">
        <ele>163.08</ele>
        <time>2021-08-08T13:10:58Z</time>
      </trkpt>
      <trkpt lat="49.74213" lon="3.9908">
        <ele>163.08</ele>
        <time>2021-08-08T13:11:00Z</time>
      </trkpt>
      <trkpt lat="49.74186" lon="3.99125">
        <ele>163.08</ele>
        <time>2021-08-08T13:11:07Z</time>
      </trkpt>
      <trkpt lat="49.74177" lon="3.9914">
        <ele>163.08</ele>
        <time>2021-08-08T13:11:10Z</time>
      </trkpt>
      <trkpt lat="49.74174" lon="3.99147">
        <ele>163.08</ele>
        <time>2021-08-08T13:11:11Z</time>
      </trkpt>
      <trkpt lat="49.74162" lon="3.99179">
        <ele>159.72</ele>
        <time>2021-08-08T13:11:15Z</time>
      </trkpt>
      <trkpt lat="49.74155" lon="3.99202">
        <ele>159.24</ele>
        <time>2021-08-08T13:11:17Z</time>
      </trkpt>
      <trkpt lat="49.74139" lon="3.99244">
        <ele>157.31</ele>
        <time>2021-08-08T13:11:22Z</time>
      </trkpt>
      <trkpt lat="49.74136" lon="3.99249">
        <ele>157.31</ele>
        <time>2021-08-08T13:11:23Z</time>
      </trkpt>
      <trkpt lat="49.74133" lon="3.99252">
        <ele>156.83</ele>
        <time>2021-08-08T13:11:24Z</time>
      </trkpt>
      <trkpt lat="49.74131" lon="3.99254">
        <ele>156.83</ele>
        <time>2021-08-08T13:11:25Z</time>
      </trkpt>
      <trkpt lat="49.74127" lon="3.99254">
        <ele>156.83</ele>
        <time>2021-08-08T13:11:26Z</time>
      </trkpt>
      <trkpt lat="49.74124" lon="3.99252">
        <ele>156.83</ele>
        <time>2021-08-08T13:11:27Z</time>
      </trkpt>
      <trkpt lat="49.7412" lon="3.99249">
        <ele>156.83</ele>
        <time>2021-08-08T13:11:28Z</time>
      </trkpt>
      <trkpt lat="49.74115" lon="3.99247">
        <ele>156.83</ele>
        <time>2021-08-08T13:11:29Z</time>
      </trkpt>
      <trkpt lat="49.7408" lon="3.99236">
        <ele>153.95</ele>
        <time>2021-08-08T13:11:35Z</time>
      </trkpt>
      <trkpt lat="49.74043" lon="3.9922">
        <ele>151.54</ele>
        <time>2021-08-08T13:11:42Z</time>
      </trkpt>
      <trkpt lat="49.74035" lon="3.99212">
        <ele>151.06</ele>
        <time>2021-08-08T13:11:44Z</time>
      </trkpt>
      <trkpt lat="49.74016" lon="3.992">
        <ele>149.62</ele>
        <time>2021-08-08T13:11:48Z</time>
      </trkpt>
      <trkpt lat="49.74006" lon="3.9919">
        <ele>148.66</ele>
        <time>2021-08-08T13:11:50Z</time>
      </trkpt>
      <trkpt lat="49.73998" lon="3.99182">
        <ele>147.7</ele>
        <time>2021-08-08T13:11:52Z</time>
      </trkpt>
      <trkpt lat="49.73994" lon="3.99176">
        <ele>146.74</ele>
        <time>2021-08-08T13:11:53Z</time>
      </trkpt>
      <trkpt lat="49.73988" lon="3.99168">
        <ele>146.26</ele>
        <time>2021-08-08T13:11:55Z</time>
      </trkpt>
      <trkpt lat="49.73986" lon="3.99165">
        <ele>145.78</ele>
        <time>2021-08-08T13:11:56Z</time>
      </trkpt>
      <trkpt lat="49.73986" lon="3.99161">
        <ele>145.78</ele>
        <time>2021-08-08T13:11:57Z</time>
      </trkpt>
      <trkpt lat="49.73987" lon="3.9916">
        <ele>145.78</ele>
        <time>2021-08-08T13:11:58Z</time>
      </trkpt>
      <trkpt lat="49.73987" lon="3.99156">
        <ele>148.18</ele>
        <time>2021-08-08T13:12:04Z</time>
      </trkpt>
      <trkpt lat="49.73988" lon="3.99159">
        <ele>147.22</ele>
        <time>2021-08-08T13:12:10Z</time>
      </trkpt>
      <trkpt lat="49.73989" lon="3.9916">
        <ele>147.22</ele>
        <time>2021-08-08T13:12:18Z</time>
      </trkpt>
      <trkpt lat="49.73988" lon="3.99161">
        <ele>147.22</ele>
        <time>2021-08-08T13:12:43Z</time>
      </trkpt>
      <trkpt lat="49.73986" lon="3.99161">
        <ele>147.22</ele>
        <time>2021-08-08T13:13:07Z</time>
      </trkpt>
      <trkpt lat="49.73985" lon="3.99163">
        <ele>147.22</ele>
        <time>2021-08-08T13:13:25Z</time>
      </trkpt>
      <trkpt lat="49.73982" lon="3.99161">
        <ele>147.7</ele>
        <time>2021-08-08T13:13:44Z</time>
      </trkpt>
      <trkpt lat="49.73979" lon="3.99163">
        <ele>147.7</ele>
        <time>2021-08-08T13:13:58Z</time>
      </trkpt>
      <trkpt lat="49.73978" lon="3.99164">
        <ele>147.22</ele>
        <time>2021-08-08T13:14:14Z</time>
      </trkpt>
      <trkpt lat="49.73978" lon="3.99164">
        <ele>147.22</ele>
        <time>2021-08-08T13:14:32Z</time>
      </trkpt>
      <trkpt lat="49.73978" lon="3.99164">
        <ele>147.22</ele>
        <time>2021-08-08T13:14:49Z</time>
      </trkpt>
      <trkpt lat="49.73979" lon="3.99165">
        <ele>147.7</ele>
        <time>2021-08-08T13:15:09Z</time>
      </trkpt>
      <trkpt lat="49.73979" lon="3.99167">
        <ele>147.22</ele>
        <time>2021-08-08T13:15:29Z</time>
      </trkpt>
      <trkpt lat="49.73979" lon="3.99167">
        <ele>148.66</ele>
        <time>2021-08-08T13:15:40Z</time>
      </trkpt>
      <trkpt lat="49.73978" lon="3.99168">
        <ele>148.66</ele>
        <time>2021-08-08T13:15:54Z</time>
      </trkpt>
      <trkpt lat="49.73976" lon="3.9917">
        <ele>148.66</ele>
        <time>2021-08-08T13:16:06Z</time>
      </trkpt>
      <trkpt lat="49.73975" lon="3.9917">
        <ele>148.66</ele>
        <time>2021-08-08T13:16:19Z</time>
      </trkpt>
      <trkpt lat="49.73973" lon="3.9917">
        <ele>149.14</ele>
        <time>2021-08-08T13:16:30Z</time>
      </trkpt>
      <trkpt lat="49.73975" lon="3.99168">
        <ele>149.14</ele>
        <time>2021-08-08T13:16:35Z</time>
      </trkpt>
      <trkpt lat="49.73976" lon="3.99168">
        <ele>149.14</ele>
        <time>2021-08-08T13:16:39Z</time>
      </trkpt>
      <trkpt lat="49.73976" lon="3.99167">
        <ele>149.14</ele>
        <time>2021-08-08T13:16:48Z</time>
      </trkpt>
      <trkpt lat="49.73978" lon="3.99167">
        <ele>149.14</ele>
        <time>2021-08-08T13:17:01Z</time>
      </trkpt>
      <trkpt lat="49.73979" lon="3.99167">
        <ele>149.62</ele>
        <time>2021-08-08T13:17:07Z</time>
      </trkpt>
      <trkpt lat="49.73983" lon="3.99168">
        <ele>148.18</ele>
        <time>2021-08-08T13:17:16Z</time>
      </trkpt>
      <trkpt lat="49.73986" lon="3.99166">
        <ele>148.18</ele>
        <time>2021-08-08T13:17:25Z</time>
      </trkpt>
      <trkpt lat="49.73988" lon="3.99166">
        <ele>148.18</ele>
        <time>2021-08-08T13:17:38Z</time>
      </trkpt>
      <trkpt lat="49.73988" lon="3.99166">
        <ele>150.1</ele>
        <time>2021-08-08T13:17:55Z</time>
      </trkpt>
      <trkpt lat="49.73989" lon="3.99165">
        <ele>148.66</ele>
        <time>2021-08-08T13:18:11Z</time>
      </trkpt>
      <trkpt lat="49.7399" lon="3.99165">
        <ele>148.66</ele>
        <time>2021-08-08T13:18:21Z</time>
      </trkpt>
      <trkpt lat="49.73989" lon="3.99166">
        <ele>148.66</ele>
        <time>2021-08-08T13:18:33Z</time>
      </trkpt>
      <trkpt lat="49.7399" lon="3.99166">
        <ele>149.62</ele>
        <time>2021-08-08T13:18:49Z</time>
      </trkpt>
      <trkpt lat="49.7399" lon="3.99166">
        <ele>149.62</ele>
        <time>2021-08-08T13:19:02Z</time>
      </trkpt>
      <trkpt lat="49.7399" lon="3.99167">
        <ele>149.62</ele>
        <time>2021-08-08T13:19:13Z</time>
      </trkpt>
      <trkpt lat="49.73988" lon="3.99167">
        <ele>149.62</ele>
        <time>2021-08-08T13:19:14Z</time>
      </trkpt>
      <trkpt lat="49.73987" lon="3.99167">
        <ele>149.62</ele>
        <time>2021-08-08T13:19:15Z</time>
      </trkpt>
      <trkpt lat="49.73983" lon="3.99167">
        <ele>149.62</ele>
        <time>2021-08-08T13:19:17Z</time>
      </trkpt>
      <trkpt lat="49.73981" lon="3.99164">
        <ele>149.62</ele>
        <time>2021-08-08T13:19:18Z</time>
      </trkpt>
      <trkpt lat="49.73979" lon="3.99161">
        <ele>148.66</ele>
        <time>2021-08-08T13:19:19Z</time>
      </trkpt>
      <trkpt lat="49.73977" lon="3.99157">
        <ele>148.66</ele>
        <time>2021-08-08T13:19:20Z</time>
      </trkpt>
      <trkpt lat="49.73961" lon="3.99125">
        <ele>145.3</ele>
        <time>2021-08-08T13:19:26Z</time>
      </trkpt>
      <trkpt lat="49.73959" lon="3.99118">
        <ele>145.3</ele>
        <time>2021-08-08T13:19:27Z</time>
      </trkpt>
      <trkpt lat="49.73947" lon="3.99078">
        <ele>144.82</ele>
        <time>2021-08-08T13:19:32Z</time>
      </trkpt>
      <trkpt lat="49.73944" lon="3.99069">
        <ele>144.34</ele>
        <time>2021-08-08T13:19:33Z</time>
      </trkpt>
      <trkpt lat="49.73929" lon="3.9902">
        <ele>143.37</ele>
        <time>2021-08-08T13:19:40Z</time>
      </trkpt>
      <trkpt lat="49.73922" lon="3.99007">
        <ele>143.37</ele>
        <time>2021-08-08T13:19:44Z</time>
      </trkpt>
      <trkpt lat="49.7392" lon="3.99007">
        <ele>143.37</ele>
        <time>2021-08-08T13:19:45Z</time>
      </trkpt>
      <trkpt lat="49.73917" lon="3.99009">
        <ele>143.37</ele>
        <time>2021-08-08T13:19:46Z</time>
      </trkpt>
      <trkpt lat="49.73915" lon="3.99011">
        <ele>143.37</ele>
        <time>2021-08-08T13:19:47Z</time>
      </trkpt>
      <trkpt lat="49.73912" lon="3.99014">
        <ele>143.37</ele>
        <time>2021-08-08T13:19:48Z</time>
      </trkpt>
      <trkpt lat="49.73909" lon="3.99018">
        <ele>142.89</ele>
        <time>2021-08-08T13:19:49Z</time>
      </trkpt>
      <trkpt lat="49.73875" lon="3.99041">
        <ele>140.97</ele>
        <time>2021-08-08T13:19:57Z</time>
      </trkpt>
      <trkpt lat="49.7387" lon="3.99044">
        <ele>140.97</ele>
        <time>2021-08-08T13:19:58Z</time>
      </trkpt>
      <trkpt lat="49.73839" lon="3.99063">
        <ele>137.61</ele>
        <time>2021-08-08T13:20:04Z</time>
      </trkpt>
      <trkpt lat="49.73834" lon="3.99067">
        <ele>141.93</ele>
        <time>2021-08-08T13:20:05Z</time>
      </trkpt>
      <trkpt lat="49.73796" lon="3.99096">
        <ele>139.53</ele>
        <time>2021-08-08T13:20:13Z</time>
      </trkpt>
      <trkpt lat="49.73778" lon="3.99119">
        <ele>139.53</ele>
        <time>2021-08-08T13:20:18Z</time>
      </trkpt>
      <trkpt lat="49.73774" lon="3.99122">
        <ele>139.53</ele>
        <time>2021-08-08T13:20:19Z</time>
      </trkpt>
      <trkpt lat="49.7377" lon="3.99123">
        <ele>140.97</ele>
        <time>2021-08-08T13:20:20Z</time>
      </trkpt>
      <trkpt lat="49.73766" lon="3.99123">
        <ele>140.97</ele>
        <time>2021-08-08T13:20:21Z</time>
      </trkpt>
      <trkpt lat="49.73761" lon="3.99124">
        <ele>139.53</ele>
        <time>2021-08-08T13:20:22Z</time>
      </trkpt>
      <trkpt lat="49.73757" lon="3.99127">
        <ele>139.53</ele>
        <time>2021-08-08T13:20:23Z</time>
      </trkpt>
      <trkpt lat="49.73753" lon="3.9913">
        <ele>139.53</ele>
        <time>2021-08-08T13:20:24Z</time>
      </trkpt>
      <trkpt lat="49.73743" lon="3.9914">
        <ele>141.45</ele>
        <time>2021-08-08T13:20:27Z</time>
      </trkpt>
      <trkpt lat="49.73716" lon="3.99163">
        <ele>142.41</ele>
        <time>2021-08-08T13:20:37Z</time>
      </trkpt>
      <trkpt lat="49.73695" lon="3.99178">
        <ele>144.34</ele>
        <time>2021-08-08T13:20:46Z</time>
      </trkpt>
      <trkpt lat="49.7368" lon="3.99181">
        <ele>145.3</ele>
        <time>2021-08-08T13:20:53Z</time>
      </trkpt>
      <trkpt lat="49.73666" lon="3.99185">
        <ele>145.78</ele>
        <time>2021-08-08T13:21:01Z</time>
      </trkpt>
      <trkpt lat="49.73651" lon="3.99193">
        <ele>148.18</ele>
        <time>2021-08-08T13:21:10Z</time>
      </trkpt>
      <trkpt lat="49.73646" lon="3.99198">
        <ele>148.66</ele>
        <time>2021-08-08T13:21:14Z</time>
      </trkpt>
      <trkpt lat="49.73644" lon="3.99199">
        <ele>148.66</ele>
        <time>2021-08-08T13:21:15Z</time>
      </trkpt>
      <trkpt lat="49.73634" lon="3.99211">
        <ele>150.1</ele>
        <time>2021-08-08T13:21:23Z</time>
      </trkpt>
      <trkpt lat="49.73624" lon="3.99221">
        <ele>151.06</ele>
        <time>2021-08-08T13:21:31Z</time>
      </trkpt>
      <trkpt lat="49.73624" lon="3.99223">
        <ele>151.06</ele>
        <time>2021-08-08T13:21:32Z</time>
      </trkpt>
      <trkpt lat="49.73622" lon="3.99224">
        <ele>151.06</ele>
        <time>2021-08-08T13:21:33Z</time>
      </trkpt>
      <trkpt lat="49.73607" lon="3.99241">
        <ele>152.99</ele>
        <time>2021-08-08T13:21:43Z</time>
      </trkpt>
      <trkpt lat="49.73593" lon="3.99252">
        <ele>154.43</ele>
        <time>2021-08-08T13:21:51Z</time>
      </trkpt>
      <trkpt lat="49.73578" lon="3.99264">
        <ele>155.39</ele>
        <time>2021-08-08T13:22:00Z</time>
      </trkpt>
      <trkpt lat="49.73565" lon="3.99272">
        <ele>157.31</ele>
        <time>2021-08-08T13:22:09Z</time>
      </trkpt>
      <trkpt lat="49.73556" lon="3.99279">
        <ele>157.79</ele>
        <time>2021-08-08T13:22:15Z</time>
      </trkpt>
      <trkpt lat="49.73538" lon="3.99286">
        <ele>159.72</ele>
        <time>2021-08-08T13:22:24Z</time>
      </trkpt>
      <trkpt lat="49.73536" lon="3.99288">
        <ele>159.72</ele>
        <time>2021-08-08T13:22:25Z</time>
      </trkpt>
      <trkpt lat="49.73535" lon="3.99289">
        <ele>159.72</ele>
        <time>2021-08-08T13:22:26Z</time>
      </trkpt>
      <trkpt lat="49.73533" lon="3.99291">
        <ele>160.2</ele>
        <time>2021-08-08T13:22:27Z</time>
      </trkpt>
      <trkpt lat="49.73531" lon="3.99292">
        <ele>160.2</ele>
        <time>2021-08-08T13:22:28Z</time>
      </trkpt>
      <trkpt lat="49.73529" lon="3.99294">
        <ele>160.2</ele>
        <time>2021-08-08T13:22:29Z</time>
      </trkpt>
      <trkpt lat="49.73528" lon="3.99295">
        <ele>160.2</ele>
        <time>2021-08-08T13:22:30Z</time>
      </trkpt>
      <trkpt lat="49.73516" lon="3.99315">
        <ele>161.64</ele>
        <time>2021-08-08T13:22:39Z</time>
      </trkpt>
      <trkpt lat="49.73508" lon="3.99333">
        <ele>162.12</ele>
        <time>2021-08-08T13:22:46Z</time>
      </trkpt>
      <trkpt lat="49.73494" lon="3.99361">
        <ele>163.56</ele>
        <time>2021-08-08T13:22:58Z</time>
      </trkpt>
      <trkpt lat="49.73484" lon="3.99382">
        <ele>164.52</ele>
        <time>2021-08-08T13:23:07Z</time>
      </trkpt>
      <trkpt lat="49.73473" lon="3.99402">
        <ele>165</ele>
        <time>2021-08-08T13:23:16Z</time>
      </trkpt>
      <trkpt lat="49.73462" lon="3.99422">
        <ele>166.45</ele>
        <time>2021-08-08T13:23:25Z</time>
      </trkpt>
      <trkpt lat="49.73452" lon="3.99444">
        <ele>167.89</ele>
        <time>2021-08-08T13:23:34Z</time>
      </trkpt>
      <trkpt lat="49.73444" lon="3.9947">
        <ele>169.33</ele>
        <time>2021-08-08T13:23:43Z</time>
      </trkpt>
      <trkpt lat="49.73438" lon="3.99489">
        <ele>169.81</ele>
        <time>2021-08-08T13:23:50Z</time>
      </trkpt>
      <trkpt lat="49.73427" lon="3.99522">
        <ele>172.21</ele>
        <time>2021-08-08T13:24:01Z</time>
      </trkpt>
      <trkpt lat="49.73412" lon="3.99554">
        <ele>173.17</ele>
        <time>2021-08-08T13:24:12Z</time>
      </trkpt>
      <trkpt lat="49.734" lon="3.99572">
        <ele>174.14</ele>
        <time>2021-08-08T13:24:19Z</time>
      </trkpt>
      <trkpt lat="49.73387" lon="3.99588">
        <ele>175.1</ele>
        <time>2021-08-08T13:24:26Z</time>
      </trkpt>
      <trkpt lat="49.73369" lon="3.9961">
        <ele>175.1</ele>
        <time>2021-08-08T13:24:35Z</time>
      </trkpt>
      <trkpt lat="49.7335" lon="3.9963">
        <ele>175.58</ele>
        <time>2021-08-08T13:24:43Z</time>
      </trkpt>
      <trkpt lat="49.73331" lon="3.99647">
        <ele>176.54</ele>
        <time>2021-08-08T13:24:51Z</time>
      </trkpt>
      <trkpt lat="49.73309" lon="3.9967">
        <ele>178.46</ele>
        <time>2021-08-08T13:25:01Z</time>
      </trkpt>
      <trkpt lat="49.73284" lon="3.99697">
        <ele>179.9</ele>
        <time>2021-08-08T13:25:12Z</time>
      </trkpt>
      <trkpt lat="49.73268" lon="3.99713">
        <ele>180.38</ele>
        <time>2021-08-08T13:25:19Z</time>
      </trkpt>
      <trkpt lat="49.73246" lon="3.99733">
        <ele>181.83</ele>
        <time>2021-08-08T13:25:28Z</time>
      </trkpt>
      <trkpt lat="49.73228" lon="3.99745">
        <ele>182.79</ele>
        <time>2021-08-08T13:25:35Z</time>
      </trkpt>
      <trkpt lat="49.73208" lon="3.99759">
        <ele>183.27</ele>
        <time>2021-08-08T13:25:43Z</time>
      </trkpt>
      <trkpt lat="49.73189" lon="3.9977">
        <ele>184.23</ele>
        <time>2021-08-08T13:25:50Z</time>
      </trkpt>
      <trkpt lat="49.73159" lon="3.99785">
        <ele>185.67</ele>
        <time>2021-08-08T13:26:00Z</time>
      </trkpt>
      <trkpt lat="49.73129" lon="3.99801">
        <ele>184.71</ele>
        <time>2021-08-08T13:26:09Z</time>
      </trkpt>
      <trkpt lat="49.73109" lon="3.99811">
        <ele>184.23</ele>
        <time>2021-08-08T13:26:16Z</time>
      </trkpt>
      <trkpt lat="49.73089" lon="3.99823">
        <ele>183.75</ele>
        <time>2021-08-08T13:26:22Z</time>
      </trkpt>
      <trkpt lat="49.73055" lon="3.99844">
        <ele>183.27</ele>
        <time>2021-08-08T13:26:31Z</time>
      </trkpt>
      <trkpt lat="49.73023" lon="3.99864">
        <ele>183.75</ele>
        <time>2021-08-08T13:26:40Z</time>
      </trkpt>
      <trkpt lat="49.72983" lon="3.99887">
        <ele>184.71</ele>
        <time>2021-08-08T13:26:52Z</time>
      </trkpt>
      <trkpt lat="49.72955" lon="3.99904">
        <ele>184.71</ele>
        <time>2021-08-08T13:27:01Z</time>
      </trkpt>
      <trkpt lat="49.72927" lon="3.99922">
        <ele>184.71</ele>
        <time>2021-08-08T13:27:09Z</time>
      </trkpt>
      <trkpt lat="49.72897" lon="3.99941">
        <ele>184.71</ele>
        <time>2021-08-08T13:27:18Z</time>
      </trkpt>
      <trkpt lat="49.72861" lon="3.99964">
        <ele>184.71</ele>
        <time>2021-08-08T13:27:28Z</time>
      </trkpt>
      <trkpt lat="49.72838" lon="3.9998">
        <ele>183.75</ele>
        <time>2021-08-08T13:27:34Z</time>
      </trkpt>
      <trkpt lat="49.72811" lon="3.99996">
        <ele>183.27</ele>
        <time>2021-08-08T13:27:41Z</time>
      </trkpt>
      <trkpt lat="49.72785" lon="4.00011">
        <ele>183.27</ele>
        <time>2021-08-08T13:27:49Z</time>
      </trkpt>
      <trkpt lat="49.72753" lon="4.00029">
        <ele>185.19</ele>
        <time>2021-08-08T13:27:59Z</time>
      </trkpt>
      <trkpt lat="49.72717" lon="4.00038">
        <ele>183.27</ele>
        <time>2021-08-08T13:28:07Z</time>
      </trkpt>
      <trkpt lat="49.72672" lon="4.00045">
        <ele>181.83</ele>
        <time>2021-08-08T13:28:16Z</time>
      </trkpt>
      <trkpt lat="49.72666" lon="4.00048">
        <ele>181.83</ele>
        <time>2021-08-08T13:28:17Z</time>
      </trkpt>
      <trkpt lat="49.72661" lon="4.00053">
        <ele>181.35</ele>
        <time>2021-08-08T13:28:18Z</time>
      </trkpt>
      <trkpt lat="49.72658" lon="4.00059">
        <ele>181.35</ele>
        <time>2021-08-08T13:28:19Z</time>
      </trkpt>
      <trkpt lat="49.72656" lon="4.00065">
        <ele>181.35</ele>
        <time>2021-08-08T13:28:20Z</time>
      </trkpt>
      <trkpt lat="49.72656" lon="4.00072">
        <ele>181.35</ele>
        <time>2021-08-08T13:28:21Z</time>
      </trkpt>
      <trkpt lat="49.72657" lon="4.00079">
        <ele>181.35</ele>
        <time>2021-08-08T13:28:22Z</time>
      </trkpt>
      <trkpt lat="49.7266" lon="4.00096">
        <ele>183.27</ele>
        <time>2021-08-08T13:28:25Z</time>
      </trkpt>
      <trkpt lat="49.72666" lon="4.00149">
        <ele>184.71</ele>
        <time>2021-08-08T13:28:35Z</time>
      </trkpt>
      <trkpt lat="49.7267" lon="4.00196">
        <ele>185.19</ele>
        <time>2021-08-08T13:28:44Z</time>
      </trkpt>
      <trkpt lat="49.72676" lon="4.00247">
        <ele>185.67</ele>
        <time>2021-08-08T13:28:53Z</time>
      </trkpt>
      <trkpt lat="49.72684" lon="4.00298">
        <ele>186.15</ele>
        <time>2021-08-08T13:29:02Z</time>
      </trkpt>
      <trkpt lat="49.72692" lon="4.00351">
        <ele>187.11</ele>
        <time>2021-08-08T13:29:12Z</time>
      </trkpt>
      <trkpt lat="49.72694" lon="4.0037">
        <ele>187.59</ele>
        <time>2021-08-08T13:29:16Z</time>
      </trkpt>
      <trkpt lat="49.72692" lon="4.00373">
        <ele>188.56</ele>
        <time>2021-08-08T13:29:17Z</time>
      </trkpt>
      <trkpt lat="49.72689" lon="4.00373">
        <ele>188.08</ele>
        <time>2021-08-08T13:29:18Z</time>
      </trkpt>
      <trkpt lat="49.72686" lon="4.00373">
        <ele>188.56</ele>
        <time>2021-08-08T13:29:19Z</time>
      </trkpt>
      <trkpt lat="49.72683" lon="4.00372">
        <ele>187.59</ele>
        <time>2021-08-08T13:29:20Z</time>
      </trkpt>
      <trkpt lat="49.7268" lon="4.00372">
        <ele>187.59</ele>
        <time>2021-08-08T13:29:21Z</time>
      </trkpt>
      <trkpt lat="49.72669" lon="4.00371">
        <ele>186.15</ele>
        <time>2021-08-08T13:29:25Z</time>
      </trkpt>
      <trkpt lat="49.72666" lon="4.00372">
        <ele>186.15</ele>
        <time>2021-08-08T13:29:30Z</time>
      </trkpt>
      <trkpt lat="49.7266" lon="4.00372">
        <ele>185.19</ele>
        <time>2021-08-08T13:29:37Z</time>
      </trkpt>
      <trkpt lat="49.72645" lon="4.00373">
        <ele>183.27</ele>
        <time>2021-08-08T13:29:41Z</time>
      </trkpt>
      <trkpt lat="49.72609" lon="4.00373">
        <ele>180.87</ele>
        <time>2021-08-08T13:29:49Z</time>
      </trkpt>
      <trkpt lat="49.72599" lon="4.00373">
        <ele>180.38</ele>
        <time>2021-08-08T13:29:51Z</time>
      </trkpt>
      <trkpt lat="49.72541" lon="4.00372">
        <ele>177.5</ele>
        <time>2021-08-08T13:30:02Z</time>
      </trkpt>
      <trkpt lat="49.72498" lon="4.00371">
        <ele>174.62</ele>
        <time>2021-08-08T13:30:10Z</time>
      </trkpt>
      <trkpt lat="49.72458" lon="4.00373">
        <ele>171.73</ele>
        <time>2021-08-08T13:30:17Z</time>
      </trkpt>
      <trkpt lat="49.72433" lon="4.00374">
        <ele>169.33</ele>
        <time>2021-08-08T13:30:21Z</time>
      </trkpt>
      <trkpt lat="49.72407" lon="4.00375">
        <ele>166.93</ele>
        <time>2021-08-08T13:30:25Z</time>
      </trkpt>
      <trkpt lat="49.72402" lon="4.00375">
        <ele>166.93</ele>
        <time>2021-08-08T13:30:26Z</time>
      </trkpt>
      <trkpt lat="49.72396" lon="4.00376">
        <ele>165.48</ele>
        <time>2021-08-08T13:30:27Z</time>
      </trkpt>
      <trkpt lat="49.72384" lon="4.00378">
        <ele>165</ele>
        <time>2021-08-08T13:30:29Z</time>
      </trkpt>
      <trkpt lat="49.72374" lon="4.0038">
        <ele>164.04</ele>
        <time>2021-08-08T13:30:31Z</time>
      </trkpt>
      <trkpt lat="49.72337" lon="4.00396">
        <ele>161.16</ele>
        <time>2021-08-08T13:30:39Z</time>
      </trkpt>
      <trkpt lat="49.72314" lon="4.00407">
        <ele>158.27</ele>
        <time>2021-08-08T13:30:44Z</time>
      </trkpt>
      <trkpt lat="49.72309" lon="4.00409">
        <ele>158.27</ele>
        <time>2021-08-08T13:30:45Z</time>
      </trkpt>
      <trkpt lat="49.72305" lon="4.00412">
        <ele>158.27</ele>
        <time>2021-08-08T13:30:46Z</time>
      </trkpt>
      <trkpt lat="49.72296" lon="4.00418">
        <ele>157.31</ele>
        <time>2021-08-08T13:30:48Z</time>
      </trkpt>
      <trkpt lat="49.72291" lon="4.00421">
        <ele>156.35</ele>
        <time>2021-08-08T13:30:49Z</time>
      </trkpt>
      <trkpt lat="49.72287" lon="4.00425">
        <ele>155.87</ele>
        <time>2021-08-08T13:30:50Z</time>
      </trkpt>
      <trkpt lat="49.72264" lon="4.00451">
        <ele>152.51</ele>
        <time>2021-08-08T13:30:56Z</time>
      </trkpt>
      <trkpt lat="49.72251" lon="4.00464">
        <ele>151.54</ele>
        <time>2021-08-08T13:30:59Z</time>
      </trkpt>
      <trkpt lat="49.72241" lon="4.00474">
        <ele>150.1</ele>
        <time>2021-08-08T13:31:01Z</time>
      </trkpt>
      <trkpt lat="49.72221" lon="4.00496">
        <ele>148.18</ele>
        <time>2021-08-08T13:31:05Z</time>
      </trkpt>
      <trkpt lat="49.72195" lon="4.00522">
        <ele>145.3</ele>
        <time>2021-08-08T13:31:10Z</time>
      </trkpt>
      <trkpt lat="49.72165" lon="4.00556">
        <ele>140.97</ele>
        <time>2021-08-08T13:31:15Z</time>
      </trkpt>
      <trkpt lat="49.72159" lon="4.00565">
        <ele>140.97</ele>
        <time>2021-08-08T13:31:16Z</time>
      </trkpt>
      <trkpt lat="49.72154" lon="4.00574">
        <ele>139.53</ele>
        <time>2021-08-08T13:31:17Z</time>
      </trkpt>
      <trkpt lat="49.72149" lon="4.00585">
        <ele>140.01</ele>
        <time>2021-08-08T13:31:18Z</time>
      </trkpt>
      <trkpt lat="49.72145" lon="4.00595">
        <ele>139.53</ele>
        <time>2021-08-08T13:31:19Z</time>
      </trkpt>
      <trkpt lat="49.72142" lon="4.00606">
        <ele>138.09</ele>
        <time>2021-08-08T13:31:20Z</time>
      </trkpt>
      <trkpt lat="49.7214" lon="4.00617">
        <ele>136.64</ele>
        <time>2021-08-08T13:31:21Z</time>
      </trkpt>
      <trkpt lat="49.72138" lon="4.00629">
        <ele>134.72</ele>
        <time>2021-08-08T13:31:22Z</time>
      </trkpt>
      <trkpt lat="49.72137" lon="4.00642">
        <ele>134.72</ele>
        <time>2021-08-08T13:31:23Z</time>
      </trkpt>
      <trkpt lat="49.72136" lon="4.00652">
        <ele>133.76</ele>
        <time>2021-08-08T13:31:24Z</time>
      </trkpt>
      <trkpt lat="49.72135" lon="4.00658">
        <ele>132.8</ele>
        <time>2021-08-08T13:31:25Z</time>
      </trkpt>
      <trkpt lat="49.72131" lon="4.00663">
        <ele>132.32</ele>
        <time>2021-08-08T13:31:26Z</time>
      </trkpt>
      <trkpt lat="49.72121" lon="4.00671">
        <ele>131.36</ele>
        <time>2021-08-08T13:31:28Z</time>
      </trkpt>
      <trkpt lat="49.72102" lon="4.00672">
        <ele>129.43</ele>
        <time>2021-08-08T13:31:30Z</time>
      </trkpt>
      <trkpt lat="49.72093" lon="4.00673">
        <ele>129.43</ele>
        <time>2021-08-08T13:31:31Z</time>
      </trkpt>
      <trkpt lat="49.72079" lon="4.00678">
        <ele>129.43</ele>
        <time>2021-08-08T13:31:33Z</time>
      </trkpt>
      <trkpt lat="49.72074" lon="4.00683">
        <ele>129.43</ele>
        <time>2021-08-08T13:31:34Z</time>
      </trkpt>
      <trkpt lat="49.72069" lon="4.00689">
        <ele>130.4</ele>
        <time>2021-08-08T13:31:35Z</time>
      </trkpt>
      <trkpt lat="49.72066" lon="4.00693">
        <ele>131.36</ele>
        <time>2021-08-08T13:31:36Z</time>
      </trkpt>
      <trkpt lat="49.72062" lon="4.00697">
        <ele>131.36</ele>
        <time>2021-08-08T13:31:37Z</time>
      </trkpt>
      <trkpt lat="49.72042" lon="4.00711">
        <ele>130.4</ele>
        <time>2021-08-08T13:31:43Z</time>
      </trkpt>
      <trkpt lat="49.72024" lon="4.00727">
        <ele>132.32</ele>
        <time>2021-08-08T13:31:51Z</time>
      </trkpt>
      <trkpt lat="49.72012" lon="4.00739">
        <ele>132.8</ele>
        <time>2021-08-08T13:31:57Z</time>
      </trkpt>
      <trkpt lat="49.71998" lon="4.00751">
        <ele>133.28</ele>
        <time>2021-08-08T13:32:04Z</time>
      </trkpt>
      <trkpt lat="49.71978" lon="4.00771">
        <ele>133.76</ele>
        <time>2021-08-08T13:32:14Z</time>
      </trkpt>
      <trkpt lat="49.71954" lon="4.00792">
        <ele>134.72</ele>
        <time>2021-08-08T13:32:26Z</time>
      </trkpt>
      <trkpt lat="49.71936" lon="4.00804">
        <ele>135.2</ele>
        <time>2021-08-08T13:32:36Z</time>
      </trkpt>
      <trkpt lat="49.71935" lon="4.00803">
        <ele>135.2</ele>
        <time>2021-08-08T13:32:37Z</time>
      </trkpt>
      <trkpt lat="49.71933" lon="4.008">
        <ele>135.2</ele>
        <time>2021-08-08T13:32:38Z</time>
      </trkpt>
      <trkpt lat="49.71933" lon="4.00797">
        <ele>135.2</ele>
        <time>2021-08-08T13:32:39Z</time>
      </trkpt>
      <trkpt lat="49.71932" lon="4.00795">
        <ele>135.68</ele>
        <time>2021-08-08T13:32:40Z</time>
      </trkpt>
      <trkpt lat="49.71931" lon="4.00792">
        <ele>135.68</ele>
        <time>2021-08-08T13:32:41Z</time>
      </trkpt>
      <trkpt lat="49.7193" lon="4.00788">
        <ele>135.68</ele>
        <time>2021-08-08T13:32:42Z</time>
      </trkpt>
      <trkpt lat="49.71929" lon="4.00785">
        <ele>135.68</ele>
        <time>2021-08-08T13:32:43Z</time>
      </trkpt>
      <trkpt lat="49.71929" lon="4.00782">
        <ele>135.68</ele>
        <time>2021-08-08T13:32:44Z</time>
      </trkpt>
      <trkpt lat="49.71918" lon="4.00762">
        <ele>136.16</ele>
        <time>2021-08-08T13:32:52Z</time>
      </trkpt>
      <trkpt lat="49.71905" lon="4.00757">
        <ele>136.64</ele>
        <time>2021-08-08T13:32:59Z</time>
      </trkpt>
      <trkpt lat="49.7189" lon="4.00751">
        <ele>138.57</ele>
        <time>2021-08-08T13:33:08Z</time>
      </trkpt>
      <trkpt lat="49.71876" lon="4.00746">
        <ele>139.05</ele>
        <time>2021-08-08T13:33:16Z</time>
      </trkpt>
      <trkpt lat="49.71861" lon="4.00739">
        <ele>140.01</ele>
        <time>2021-08-08T13:33:25Z</time>
      </trkpt>
      <trkpt lat="49.71851" lon="4.00735">
        <ele>141.45</ele>
        <time>2021-08-08T13:33:31Z</time>
      </trkpt>
      <trkpt lat="49.7184" lon="4.0073">
        <ele>141.93</ele>
        <time>2021-08-08T13:33:38Z</time>
      </trkpt>
      <trkpt lat="49.71824" lon="4.00724">
        <ele>142.89</ele>
        <time>2021-08-08T13:33:48Z</time>
      </trkpt>
      <trkpt lat="49.7181" lon="4.00718">
        <ele>144.82</ele>
        <time>2021-08-08T13:33:57Z</time>
      </trkpt>
      <trkpt lat="49.718" lon="4.00715">
        <ele>145.78</ele>
        <time>2021-08-08T13:34:03Z</time>
      </trkpt>
      <trkpt lat="49.71783" lon="4.00713">
        <ele>147.22</ele>
        <time>2021-08-08T13:34:12Z</time>
      </trkpt>
      <trkpt lat="49.71767" lon="4.00711">
        <ele>147.7</ele>
        <time>2021-08-08T13:34:20Z</time>
      </trkpt>
      <trkpt lat="49.71751" lon="4.00708">
        <ele>148.66</ele>
        <time>2021-08-08T13:34:28Z</time>
      </trkpt>
      <trkpt lat="49.71735" lon="4.00704">
        <ele>149.14</ele>
        <time>2021-08-08T13:34:36Z</time>
      </trkpt>
      <trkpt lat="49.71713" lon="4.00699">
        <ele>151.06</ele>
        <time>2021-08-08T13:34:47Z</time>
      </trkpt>
      <trkpt lat="49.71698" lon="4.00698">
        <ele>152.51</ele>
        <time>2021-08-08T13:34:55Z</time>
      </trkpt>
      <trkpt lat="49.71675" lon="4.00695">
        <ele>153.47</ele>
        <time>2021-08-08T13:35:06Z</time>
      </trkpt>
      <trkpt lat="49.71654" lon="4.00693">
        <ele>154.91</ele>
        <time>2021-08-08T13:35:16Z</time>
      </trkpt>
      <trkpt lat="49.71635" lon="4.00689">
        <ele>155.87</ele>
        <time>2021-08-08T13:35:25Z</time>
      </trkpt>
      <trkpt lat="49.71617" lon="4.00686">
        <ele>157.31</ele>
        <time>2021-08-08T13:35:33Z</time>
      </trkpt>
      <trkpt lat="49.71592" lon="4.00679">
        <ele>157.79</ele>
        <time>2021-08-08T13:35:44Z</time>
      </trkpt>
      <trkpt lat="49.71574" lon="4.00675">
        <ele>158.75</ele>
        <time>2021-08-08T13:35:52Z</time>
      </trkpt>
      <trkpt lat="49.71554" lon="4.00663">
        <ele>159.72</ele>
        <time>2021-08-08T13:36:01Z</time>
      </trkpt>
      <trkpt lat="49.71537" lon="4.0065">
        <ele>161.16</ele>
        <time>2021-08-08T13:36:09Z</time>
      </trkpt>
      <trkpt lat="49.71522" lon="4.00638">
        <ele>162.12</ele>
        <time>2021-08-08T13:36:17Z</time>
      </trkpt>
      <trkpt lat="49.71508" lon="4.00627">
        <ele>163.08</ele>
        <time>2021-08-08T13:36:24Z</time>
      </trkpt>
      <trkpt lat="49.71501" lon="4.00624">
        <ele>164.04</ele>
        <time>2021-08-08T13:36:28Z</time>
      </trkpt>
      <trkpt lat="49.71496" lon="4.00621">
        <ele>164.04</ele>
        <time>2021-08-08T13:36:30Z</time>
      </trkpt>
      <trkpt lat="49.71493" lon="4.00619">
        <ele>164.04</ele>
        <time>2021-08-08T13:36:31Z</time>
      </trkpt>
      <trkpt lat="49.71491" lon="4.00617">
        <ele>164.52</ele>
        <time>2021-08-08T13:36:32Z</time>
      </trkpt>
      <trkpt lat="49.71489" lon="4.00615">
        <ele>164.52</ele>
        <time>2021-08-08T13:36:33Z</time>
      </trkpt>
      <trkpt lat="49.71487" lon="4.00613">
        <ele>164.52</ele>
        <time>2021-08-08T13:36:34Z</time>
      </trkpt>
      <trkpt lat="49.71484" lon="4.00611">
        <ele>164.52</ele>
        <time>2021-08-08T13:36:35Z</time>
      </trkpt>
      <trkpt lat="49.71482" lon="4.0061">
        <ele>164.52</ele>
        <time>2021-08-08T13:36:36Z</time>
      </trkpt>
      <trkpt lat="49.71463" lon="4.00597">
        <ele>165.96</ele>
        <time>2021-08-08T13:36:45Z</time>
      </trkpt>
      <trkpt lat="49.71444" lon="4.00584">
        <ele>167.41</ele>
        <time>2021-08-08T13:36:54Z</time>
      </trkpt>
      <trkpt lat="49.7142" lon="4.00566">
        <ele>168.37</ele>
        <time>2021-08-08T13:37:04Z</time>
      </trkpt>
      <trkpt lat="49.71406" lon="4.00558">
        <ele>169.33</ele>
        <time>2021-08-08T13:37:10Z</time>
      </trkpt>
      <trkpt lat="49.71404" lon="4.00559">
        <ele>170.29</ele>
        <time>2021-08-08T13:37:11Z</time>
      </trkpt>
      <trkpt lat="49.71403" lon="4.00562">
        <ele>171.25</ele>
        <time>2021-08-08T13:37:12Z</time>
      </trkpt>
      <trkpt lat="49.71403" lon="4.00566">
        <ele>171.73</ele>
        <time>2021-08-08T13:37:13Z</time>
      </trkpt>
      <trkpt lat="49.71405" lon="4.0057">
        <ele>170.29</ele>
        <time>2021-08-08T13:37:14Z</time>
      </trkpt>
      <trkpt lat="49.71407" lon="4.00574">
        <ele>169.33</ele>
        <time>2021-08-08T13:37:15Z</time>
      </trkpt>
      <trkpt lat="49.7141" lon="4.00578">
        <ele>169.81</ele>
        <time>2021-08-08T13:37:16Z</time>
      </trkpt>
      <trkpt lat="49.71433" lon="4.00616">
        <ele>168.37</ele>
        <time>2021-08-08T13:37:22Z</time>
      </trkpt>
      <trkpt lat="49.71446" lon="4.00641">
        <ele>166.93</ele>
        <time>2021-08-08T13:37:25Z</time>
      </trkpt>
      <trkpt lat="49.7148" lon="4.007">
        <ele>163.56</ele>
        <time>2021-08-08T13:37:31Z</time>
      </trkpt>
      <trkpt lat="49.71526" lon="4.00781">
        <ele>160.2</ele>
        <time>2021-08-08T13:37:38Z</time>
      </trkpt>
      <trkpt lat="49.71577" lon="4.00872">
        <ele>161.64</ele>
        <time>2021-08-08T13:37:46Z</time>
      </trkpt>
      <trkpt lat="49.71583" lon="4.00882">
        <ele>161.64</ele>
        <time>2021-08-08T13:37:47Z</time>
      </trkpt>
      <trkpt lat="49.71609" lon="4.0092">
        <ele>163.08</ele>
        <time>2021-08-08T13:37:52Z</time>
      </trkpt>
      <trkpt lat="49.71646" lon="4.00961">
        <ele>161.16</ele>
        <time>2021-08-08T13:37:58Z</time>
      </trkpt>
      <trkpt lat="49.71704" lon="4.01016">
        <ele>158.27</ele>
        <time>2021-08-08T13:38:06Z</time>
      </trkpt>
      <trkpt lat="49.71712" lon="4.01024">
        <ele>158.27</ele>
        <time>2021-08-08T13:38:07Z</time>
      </trkpt>
      <trkpt lat="49.71758" lon="4.01083">
        <ele>155.39</ele>
        <time>2021-08-08T13:38:13Z</time>
      </trkpt>
      <trkpt lat="49.71774" lon="4.01108">
        <ele>154.91</ele>
        <time>2021-08-08T13:38:15Z</time>
      </trkpt>
      <trkpt lat="49.71789" lon="4.01134">
        <ele>153.47</ele>
        <time>2021-08-08T13:38:17Z</time>
      </trkpt>
      <trkpt lat="49.71816" lon="4.01196">
        <ele>149.62</ele>
        <time>2021-08-08T13:38:21Z</time>
      </trkpt>
      <trkpt lat="49.71834" lon="4.01249">
        <ele>148.18</ele>
        <time>2021-08-08T13:38:24Z</time>
      </trkpt>
      <trkpt lat="49.71858" lon="4.01323">
        <ele>145.3</ele>
        <time>2021-08-08T13:38:28Z</time>
      </trkpt>
      <trkpt lat="49.71877" lon="4.01382">
        <ele>141.45</ele>
        <time>2021-08-08T13:38:31Z</time>
      </trkpt>
      <trkpt lat="49.7189" lon="4.01421">
        <ele>140.49</ele>
        <time>2021-08-08T13:38:33Z</time>
      </trkpt>
      <trkpt lat="49.71912" lon="4.01489">
        <ele>140.49</ele>
        <time>2021-08-08T13:38:37Z</time>
      </trkpt>
      <trkpt lat="49.7192" lon="4.01513">
        <ele>143.85</ele>
        <time>2021-08-08T13:38:39Z</time>
      </trkpt>
      <trkpt lat="49.71922" lon="4.01521">
        <ele>144.34</ele>
        <time>2021-08-08T13:38:40Z</time>
      </trkpt>
      <trkpt lat="49.71923" lon="4.01529">
        <ele>145.3</ele>
        <time>2021-08-08T13:38:41Z</time>
      </trkpt>
      <trkpt lat="49.71922" lon="4.01534">
        <ele>145.78</ele>
        <time>2021-08-08T13:38:42Z</time>
      </trkpt>
      <trkpt lat="49.7192" lon="4.01538">
        <ele>146.74</ele>
        <time>2021-08-08T13:38:43Z</time>
      </trkpt>
      <trkpt lat="49.71918" lon="4.01541">
        <ele>146.74</ele>
        <time>2021-08-08T13:38:44Z</time>
      </trkpt>
      <trkpt lat="49.71916" lon="4.01542">
        <ele>147.7</ele>
        <time>2021-08-08T13:38:45Z</time>
      </trkpt>
      <trkpt lat="49.71914" lon="4.01543">
        <ele>147.7</ele>
        <time>2021-08-08T13:38:46Z</time>
      </trkpt>
      <trkpt lat="49.71911" lon="4.01544">
        <ele>147.7</ele>
        <time>2021-08-08T13:38:47Z</time>
      </trkpt>
      <trkpt lat="49.71894" lon="4.01555">
        <ele>148.18</ele>
        <time>2021-08-08T13:38:54Z</time>
      </trkpt>
      <trkpt lat="49.71869" lon="4.01573">
        <ele>148.66</ele>
        <time>2021-08-08T13:39:05Z</time>
      </trkpt>
      <trkpt lat="49.71848" lon="4.01593">
        <ele>149.62</ele>
        <time>2021-08-08T13:39:13Z</time>
      </trkpt>
      <trkpt lat="49.71822" lon="4.01623">
        <ele>151.54</ele>
        <time>2021-08-08T13:39:24Z</time>
      </trkpt>
      <trkpt lat="49.718" lon="4.01646">
        <ele>153.47</ele>
        <time>2021-08-08T13:39:33Z</time>
      </trkpt>
      <trkpt lat="49.71774" lon="4.01676">
        <ele>154.43</ele>
        <time>2021-08-08T13:39:44Z</time>
      </trkpt>
      <trkpt lat="49.7175" lon="4.01705">
        <ele>156.35</ele>
        <time>2021-08-08T13:39:55Z</time>
      </trkpt>
      <trkpt lat="49.71725" lon="4.01732">
        <ele>158.75</ele>
        <time>2021-08-08T13:40:06Z</time>
      </trkpt>
      <trkpt lat="49.71698" lon="4.01762">
        <ele>160.2</ele>
        <time>2021-08-08T13:40:18Z</time>
      </trkpt>
      <trkpt lat="49.71671" lon="4.01792">
        <ele>162.6</ele>
        <time>2021-08-08T13:40:30Z</time>
      </trkpt>
      <trkpt lat="49.71651" lon="4.01815">
        <ele>163.56</ele>
        <time>2021-08-08T13:40:39Z</time>
      </trkpt>
      <trkpt lat="49.71629" lon="4.01841">
        <ele>165</ele>
        <time>2021-08-08T13:40:49Z</time>
      </trkpt>
      <trkpt lat="49.71607" lon="4.01865">
        <ele>166.93</ele>
        <time>2021-08-08T13:40:59Z</time>
      </trkpt>
      <trkpt lat="49.71584" lon="4.01889">
        <ele>167.89</ele>
        <time>2021-08-08T13:41:09Z</time>
      </trkpt>
      <trkpt lat="49.71558" lon="4.01915">
        <ele>169.81</ele>
        <time>2021-08-08T13:41:20Z</time>
      </trkpt>
      <trkpt lat="49.71538" lon="4.01926">
        <ele>171.25</ele>
        <time>2021-08-08T13:41:27Z</time>
      </trkpt>
      <trkpt lat="49.71509" lon="4.01933">
        <ele>172.69</ele>
        <time>2021-08-08T13:41:37Z</time>
      </trkpt>
      <trkpt lat="49.71481" lon="4.0193">
        <ele>173.17</ele>
        <time>2021-08-08T13:41:47Z</time>
      </trkpt>
      <trkpt lat="49.71454" lon="4.01916">
        <ele>175.58</ele>
        <time>2021-08-08T13:41:57Z</time>
      </trkpt>
      <trkpt lat="49.71421" lon="4.019">
        <ele>177.02</ele>
        <time>2021-08-08T13:42:09Z</time>
      </trkpt>
      <trkpt lat="49.7139" lon="4.01885">
        <ele>178.94</ele>
        <time>2021-08-08T13:42:20Z</time>
      </trkpt>
      <trkpt lat="49.71363" lon="4.01871">
        <ele>180.87</ele>
        <time>2021-08-08T13:42:30Z</time>
      </trkpt>
      <trkpt lat="49.71338" lon="4.01857">
        <ele>181.83</ele>
        <time>2021-08-08T13:42:39Z</time>
      </trkpt>
      <trkpt lat="49.71306" lon="4.01836">
        <ele>183.27</ele>
        <time>2021-08-08T13:42:51Z</time>
      </trkpt>
      <trkpt lat="49.7128" lon="4.01817">
        <ele>184.23</ele>
        <time>2021-08-08T13:43:01Z</time>
      </trkpt>
      <trkpt lat="49.71253" lon="4.018">
        <ele>183.75</ele>
        <time>2021-08-08T13:43:09Z</time>
      </trkpt>
      <trkpt lat="49.71248" lon="4.01797">
        <ele>183.75</ele>
        <time>2021-08-08T13:43:10Z</time>
      </trkpt>
      <trkpt lat="49.71223" lon="4.0178">
        <ele>181.83</ele>
        <time>2021-08-08T13:43:15Z</time>
      </trkpt>
      <trkpt lat="49.71199" lon="4.01763">
        <ele>179.9</ele>
        <time>2021-08-08T13:43:19Z</time>
      </trkpt>
      <trkpt lat="49.71171" lon="4.01745">
        <ele>177.98</ele>
        <time>2021-08-08T13:43:23Z</time>
      </trkpt>
      <trkpt lat="49.71127" lon="4.01713">
        <ele>174.62</ele>
        <time>2021-08-08T13:43:29Z</time>
      </trkpt>
      <trkpt lat="49.71086" lon="4.01687">
        <ele>174.14</ele>
        <time>2021-08-08T13:43:34Z</time>
      </trkpt>
      <trkpt lat="49.71028" lon="4.01648">
        <ele>171.25</ele>
        <time>2021-08-08T13:43:41Z</time>
      </trkpt>
      <trkpt lat="49.7102" lon="4.01643">
        <ele>171.25</ele>
        <time>2021-08-08T13:43:42Z</time>
      </trkpt>
      <trkpt lat="49.70959" lon="4.01602">
        <ele>171.25</ele>
        <time>2021-08-08T13:43:50Z</time>
      </trkpt>
      <trkpt lat="49.70908" lon="4.01567">
        <ele>172.21</ele>
        <time>2021-08-08T13:43:58Z</time>
      </trkpt>
      <trkpt lat="49.70848" lon="4.01531">
        <ele>172.21</ele>
        <time>2021-08-08T13:44:08Z</time>
      </trkpt>
      <trkpt lat="49.70818" lon="4.01517">
        <ele>169.33</ele>
        <time>2021-08-08T13:44:12Z</time>
      </trkpt>
      <trkpt lat="49.70802" lon="4.01509">
        <ele>168.37</ele>
        <time>2021-08-08T13:44:14Z</time>
      </trkpt>
      <trkpt lat="49.70778" lon="4.01498">
        <ele>163.56</ele>
        <time>2021-08-08T13:44:17Z</time>
      </trkpt>
      <trkpt lat="49.7077" lon="4.01494">
        <ele>163.56</ele>
        <time>2021-08-08T13:44:18Z</time>
      </trkpt>
      <trkpt lat="49.70736" lon="4.01478">
        <ele>161.16</ele>
        <time>2021-08-08T13:44:22Z</time>
      </trkpt>
      <trkpt lat="49.70652" lon="4.01438">
        <ele>158.27</ele>
        <time>2021-08-08T13:44:32Z</time>
      </trkpt>
      <trkpt lat="49.70635" lon="4.0143">
        <ele>157.31</ele>
        <time>2021-08-08T13:44:34Z</time>
      </trkpt>
      <trkpt lat="49.7061" lon="4.01418">
        <ele>153.95</ele>
        <time>2021-08-08T13:44:37Z</time>
      </trkpt>
      <trkpt lat="49.70601" lon="4.01415">
        <ele>153.95</ele>
        <time>2021-08-08T13:44:38Z</time>
      </trkpt>
      <trkpt lat="49.70548" lon="4.01402">
        <ele>151.54</ele>
        <time>2021-08-08T13:44:44Z</time>
      </trkpt>
      <trkpt lat="49.70507" lon="4.01401">
        <ele>148.66</ele>
        <time>2021-08-08T13:44:48Z</time>
      </trkpt>
      <trkpt lat="49.70464" lon="4.01407">
        <ele>145.3</ele>
        <time>2021-08-08T13:44:52Z</time>
      </trkpt>
      <trkpt lat="49.7043" lon="4.0141">
        <ele>142.41</ele>
        <time>2021-08-08T13:44:55Z</time>
      </trkpt>
      <trkpt lat="49.70394" lon="4.01416">
        <ele>138.57</ele>
        <time>2021-08-08T13:44:58Z</time>
      </trkpt>
      <trkpt lat="49.70383" lon="4.01418">
        <ele>138.57</ele>
        <time>2021-08-08T13:44:59Z</time>
      </trkpt>
      <trkpt lat="49.70346" lon="4.01423">
        <ele>134.72</ele>
        <time>2021-08-08T13:45:02Z</time>
      </trkpt>
      <trkpt lat="49.70298" lon="4.01431">
        <ele>131.84</ele>
        <time>2021-08-08T13:45:06Z</time>
      </trkpt>
      <trkpt lat="49.70249" lon="4.01439">
        <ele>127.03</ele>
        <time>2021-08-08T13:45:10Z</time>
      </trkpt>
      <trkpt lat="49.70225" lon="4.01442">
        <ele>125.59</ele>
        <time>2021-08-08T13:45:12Z</time>
      </trkpt>
      <trkpt lat="49.70189" lon="4.01447">
        <ele>121.74</ele>
        <time>2021-08-08T13:45:15Z</time>
      </trkpt>
      <trkpt lat="49.70177" lon="4.01449">
        <ele>122.22</ele>
        <time>2021-08-08T13:45:16Z</time>
      </trkpt>
      <trkpt lat="49.70153" lon="4.01453">
        <ele>119.82</ele>
        <time>2021-08-08T13:45:18Z</time>
      </trkpt>
      <trkpt lat="49.70118" lon="4.01458">
        <ele>118.38</ele>
        <time>2021-08-08T13:45:21Z</time>
      </trkpt>
      <trkpt lat="49.70061" lon="4.01465">
        <ele>115.5</ele>
        <time>2021-08-08T13:45:26Z</time>
      </trkpt>
      <trkpt lat="49.70029" lon="4.0147">
        <ele>114.53</ele>
        <time>2021-08-08T13:45:29Z</time>
      </trkpt>
      <trkpt lat="49.70011" lon="4.01472">
        <ele>115.5</ele>
        <time>2021-08-08T13:45:31Z</time>
      </trkpt>
      <trkpt lat="49.69984" lon="4.01475">
        <ele>116.94</ele>
        <time>2021-08-08T13:45:34Z</time>
      </trkpt>
      <trkpt lat="49.69916" lon="4.01485">
        <ele>115.5</ele>
        <time>2021-08-08T13:45:42Z</time>
      </trkpt>
      <trkpt lat="49.69866" lon="4.01492">
        <ele>115.98</ele>
        <time>2021-08-08T13:45:49Z</time>
      </trkpt>
      <trkpt lat="49.69809" lon="4.01501">
        <ele>114.53</ele>
        <time>2021-08-08T13:45:58Z</time>
      </trkpt>
      <trkpt lat="49.6976" lon="4.0152">
        <ele>113.57</ele>
        <time>2021-08-08T13:46:07Z</time>
      </trkpt>
      <trkpt lat="49.6971" lon="4.01537">
        <ele>113.57</ele>
        <time>2021-08-08T13:46:15Z</time>
      </trkpt>
      <trkpt lat="49.69666" lon="4.01551">
        <ele>114.53</ele>
        <time>2021-08-08T13:46:22Z</time>
      </trkpt>
      <trkpt lat="49.69633" lon="4.0155">
        <ele>116.46</ele>
        <time>2021-08-08T13:46:29Z</time>
      </trkpt>
      <trkpt lat="49.69629" lon="4.0155">
        <ele>116.46</ele>
        <time>2021-08-08T13:46:30Z</time>
      </trkpt>
      <trkpt lat="49.69599" lon="4.01549">
        <ele>116.94</ele>
        <time>2021-08-08T13:46:38Z</time>
      </trkpt>
      <trkpt lat="49.6957" lon="4.01549">
        <ele>119.34</ele>
        <time>2021-08-08T13:46:47Z</time>
      </trkpt>
      <trkpt lat="49.69559" lon="4.01542">
        <ele>119.34</ele>
        <time>2021-08-08T13:46:51Z</time>
      </trkpt>
      <trkpt lat="49.69552" lon="4.01529">
        <ele>119.34</ele>
        <time>2021-08-08T13:46:54Z</time>
      </trkpt>
      <trkpt lat="49.69539" lon="4.01478">
        <ele>116.46</ele>
        <time>2021-08-08T13:47:01Z</time>
      </trkpt>
      <trkpt lat="49.69522" lon="4.01392">
        <ele>115.5</ele>
        <time>2021-08-08T13:47:10Z</time>
      </trkpt>
      <trkpt lat="49.69501" lon="4.013">
        <ele>115.98</ele>
        <time>2021-08-08T13:47:20Z</time>
      </trkpt>
      <trkpt lat="49.69484" lon="4.01218">
        <ele>115.01</ele>
        <time>2021-08-08T13:47:30Z</time>
      </trkpt>
      <trkpt lat="49.69468" lon="4.01142">
        <ele>114.53</ele>
        <time>2021-08-08T13:47:39Z</time>
      </trkpt>
      <trkpt lat="49.69459" lon="4.01106">
        <ele>114.53</ele>
        <time>2021-08-08T13:47:44Z</time>
      </trkpt>
      <trkpt lat="49.69455" lon="4.01093">
        <ele>114.53</ele>
        <time>2021-08-08T13:47:46Z</time>
      </trkpt>
      <trkpt lat="49.69452" lon="4.01087">
        <ele>114.53</ele>
        <time>2021-08-08T13:47:47Z</time>
      </trkpt>
      <trkpt lat="49.69449" lon="4.01081">
        <ele>114.53</ele>
        <time>2021-08-08T13:47:48Z</time>
      </trkpt>
      <trkpt lat="49.69446" lon="4.01076">
        <ele>114.53</ele>
        <time>2021-08-08T13:47:49Z</time>
      </trkpt>
      <trkpt lat="49.69442" lon="4.01072">
        <ele>114.53</ele>
        <time>2021-08-08T13:47:50Z</time>
      </trkpt>
      <trkpt lat="49.69438" lon="4.01068">
        <ele>114.53</ele>
        <time>2021-08-08T13:47:51Z</time>
      </trkpt>
      <trkpt lat="49.69433" lon="4.01064">
        <ele>114.53</ele>
        <time>2021-08-08T13:47:52Z</time>
      </trkpt>
      <trkpt lat="49.69429" lon="4.01062">
        <ele>114.05</ele>
        <time>2021-08-08T13:47:53Z</time>
      </trkpt>
      <trkpt lat="49.69402" lon="4.0105">
        <ele>114.05</ele>
        <time>2021-08-08T13:47:59Z</time>
      </trkpt>
      <trkpt lat="49.69398" lon="4.01047">
        <ele>114.05</ele>
        <time>2021-08-08T13:48:00Z</time>
      </trkpt>
      <trkpt lat="49.69378" lon="4.01024">
        <ele>115.5</ele>
        <time>2021-08-08T13:48:07Z</time>
      </trkpt>
      <trkpt lat="49.69364" lon="4.01008">
        <ele>115.5</ele>
        <time>2021-08-08T13:48:12Z</time>
      </trkpt>
      <trkpt lat="49.6933" lon="4.00973">
        <ele>116.46</ele>
        <time>2021-08-08T13:48:23Z</time>
      </trkpt>
      <trkpt lat="49.69308" lon="4.00949">
        <ele>116.46</ele>
        <time>2021-08-08T13:48:31Z</time>
      </trkpt>
      <trkpt lat="49.69295" lon="4.00934">
        <ele>117.42</ele>
        <time>2021-08-08T13:48:37Z</time>
      </trkpt>
      <trkpt lat="49.69274" lon="4.00909">
        <ele>117.9</ele>
        <time>2021-08-08T13:48:46Z</time>
      </trkpt>
      <trkpt lat="49.69256" lon="4.00884">
        <ele>119.34</ele>
        <time>2021-08-08T13:48:55Z</time>
      </trkpt>
      <trkpt lat="49.69241" lon="4.00863">
        <ele>120.3</ele>
        <time>2021-08-08T13:49:02Z</time>
      </trkpt>
      <trkpt lat="49.69229" lon="4.00847">
        <ele>120.3</ele>
        <time>2021-08-08T13:49:08Z</time>
      </trkpt>
      <trkpt lat="49.69216" lon="4.00831">
        <ele>121.74</ele>
        <time>2021-08-08T13:49:15Z</time>
      </trkpt>
      <trkpt lat="49.69203" lon="4.00817">
        <ele>122.71</ele>
        <time>2021-08-08T13:49:22Z</time>
      </trkpt>
      <trkpt lat="49.69195" lon="4.00809">
        <ele>123.67</ele>
        <time>2021-08-08T13:49:28Z</time>
      </trkpt>
      <trkpt lat="49.69184" lon="4.00795">
        <ele>125.11</ele>
        <time>2021-08-08T13:49:36Z</time>
      </trkpt>
      <trkpt lat="49.69173" lon="4.00784">
        <ele>125.59</ele>
        <time>2021-08-08T13:49:43Z</time>
      </trkpt>
      <trkpt lat="49.69164" lon="4.00774">
        <ele>127.03</ele>
        <time>2021-08-08T13:49:49Z</time>
      </trkpt>
      <trkpt lat="49.69153" lon="4.00761">
        <ele>128.47</ele>
        <time>2021-08-08T13:49:57Z</time>
      </trkpt>
      <trkpt lat="49.69141" lon="4.00749">
        <ele>130.4</ele>
        <time>2021-08-08T13:50:05Z</time>
      </trkpt>
      <trkpt lat="49.69132" lon="4.00742">
        <ele>131.36</ele>
        <time>2021-08-08T13:50:13Z</time>
      </trkpt>
      <trkpt lat="49.69125" lon="4.00734">
        <ele>132.32</ele>
        <time>2021-08-08T13:50:20Z</time>
      </trkpt>
      <trkpt lat="49.6912" lon="4.00728">
        <ele>132.8</ele>
        <time>2021-08-08T13:50:25Z</time>
      </trkpt>
      <trkpt lat="49.69118" lon="4.00725">
        <ele>133.76</ele>
        <time>2021-08-08T13:50:26Z</time>
      </trkpt>
      <trkpt lat="49.69108" lon="4.00713">
        <ele>134.24</ele>
        <time>2021-08-08T13:50:35Z</time>
      </trkpt>
      <trkpt lat="49.69095" lon="4.00699">
        <ele>136.16</ele>
        <time>2021-08-08T13:50:44Z</time>
      </trkpt>
      <trkpt lat="49.69085" lon="4.00685">
        <ele>137.61</ele>
        <time>2021-08-08T13:50:53Z</time>
      </trkpt>
      <trkpt lat="49.69076" lon="4.00669">
        <ele>139.05</ele>
        <time>2021-08-08T13:51:01Z</time>
      </trkpt>
      <trkpt lat="49.69065" lon="4.00651">
        <ele>140.01</ele>
        <time>2021-08-08T13:51:10Z</time>
      </trkpt>
      <trkpt lat="49.69063" lon="4.00647">
        <ele>140.97</ele>
        <time>2021-08-08T13:51:12Z</time>
      </trkpt>
      <trkpt lat="49.69054" lon="4.00632">
        <ele>141.93</ele>
        <time>2021-08-08T13:51:20Z</time>
      </trkpt>
      <trkpt lat="49.69041" lon="4.00614">
        <ele>142.89</ele>
        <time>2021-08-08T13:51:30Z</time>
      </trkpt>
      <trkpt lat="49.69029" lon="4.00602">
        <ele>144.34</ele>
        <time>2021-08-08T13:51:37Z</time>
      </trkpt>
      <trkpt lat="49.69012" lon="4.00583">
        <ele>145.78</ele>
        <time>2021-08-08T13:51:46Z</time>
      </trkpt>
      <trkpt lat="49.68995" lon="4.00567">
        <ele>146.26</ele>
        <time>2021-08-08T13:51:54Z</time>
      </trkpt>
      <trkpt lat="49.6898" lon="4.00553">
        <ele>147.22</ele>
        <time>2021-08-08T13:52:01Z</time>
      </trkpt>
      <trkpt lat="49.68966" lon="4.00542">
        <ele>149.14</ele>
        <time>2021-08-08T13:52:08Z</time>
      </trkpt>
      <trkpt lat="49.6895" lon="4.00527">
        <ele>150.58</ele>
        <time>2021-08-08T13:52:16Z</time>
      </trkpt>
      <trkpt lat="49.68936" lon="4.00514">
        <ele>152.03</ele>
        <time>2021-08-08T13:52:23Z</time>
      </trkpt>
      <trkpt lat="49.68922" lon="4.005">
        <ele>153.95</ele>
        <time>2021-08-08T13:52:30Z</time>
      </trkpt>
      <trkpt lat="49.68906" lon="4.00482">
        <ele>154.91</ele>
        <time>2021-08-08T13:52:39Z</time>
      </trkpt>
      <trkpt lat="49.68893" lon="4.00466">
        <ele>155.87</ele>
        <time>2021-08-08T13:52:46Z</time>
      </trkpt>
      <trkpt lat="49.68882" lon="4.00453">
        <ele>156.35</ele>
        <time>2021-08-08T13:52:53Z</time>
      </trkpt>
      <trkpt lat="49.68871" lon="4.00441">
        <ele>157.31</ele>
        <time>2021-08-08T13:52:59Z</time>
      </trkpt>
      <trkpt lat="49.68861" lon="4.00427">
        <ele>157.31</ele>
        <time>2021-08-08T13:53:04Z</time>
      </trkpt>
      <trkpt lat="49.68841" lon="4.00405">
        <ele>155.87</ele>
        <time>2021-08-08T13:53:10Z</time>
      </trkpt>
      <trkpt lat="49.68838" lon="4.00401">
        <ele>155.87</ele>
        <time>2021-08-08T13:53:11Z</time>
      </trkpt>
      <trkpt lat="49.68808" lon="4.00371">
        <ele>154.91</ele>
        <time>2021-08-08T13:53:18Z</time>
      </trkpt>
      <trkpt lat="49.68771" lon="4.00333">
        <ele>153.95</ele>
        <time>2021-08-08T13:53:27Z</time>
      </trkpt>
      <trkpt lat="49.68737" lon="4.00297">
        <ele>153.95</ele>
        <time>2021-08-08T13:53:35Z</time>
      </trkpt>
      <trkpt lat="49.68711" lon="4.00271">
        <ele>152.51</ele>
        <time>2021-08-08T13:53:41Z</time>
      </trkpt>
      <trkpt lat="49.6867" lon="4.00223">
        <ele>152.99</ele>
        <time>2021-08-08T13:53:51Z</time>
      </trkpt>
      <trkpt lat="49.68628" lon="4.00179">
        <ele>152.99</ele>
        <time>2021-08-08T13:54:01Z</time>
      </trkpt>
      <trkpt lat="49.68596" lon="4.00157">
        <ele>152.99</ele>
        <time>2021-08-08T13:54:08Z</time>
      </trkpt>
      <trkpt lat="49.68592" lon="4.00155">
        <ele>152.99</ele>
        <time>2021-08-08T13:54:09Z</time>
      </trkpt>
      <trkpt lat="49.68587" lon="4.00152">
        <ele>153.47</ele>
        <time>2021-08-08T13:54:10Z</time>
      </trkpt>
      <trkpt lat="49.6855" lon="4.00132">
        <ele>153.47</ele>
        <time>2021-08-08T13:54:18Z</time>
      </trkpt>
      <trkpt lat="49.68504" lon="4.00106">
        <ele>154.43</ele>
        <time>2021-08-08T13:54:28Z</time>
      </trkpt>
      <trkpt lat="49.68459" lon="4.00071">
        <ele>155.87</ele>
        <time>2021-08-08T13:54:39Z</time>
      </trkpt>
      <trkpt lat="49.68426" lon="4.00035">
        <ele>155.39</ele>
        <time>2021-08-08T13:54:49Z</time>
      </trkpt>
      <trkpt lat="49.68419" lon="4.00028">
        <ele>155.39</ele>
        <time>2021-08-08T13:54:51Z</time>
      </trkpt>
      <trkpt lat="49.6841" lon="4.00017">
        <ele>153.47</ele>
        <time>2021-08-08T13:54:54Z</time>
      </trkpt>
      <trkpt lat="49.68387" lon="3.99994">
        <ele>153.47</ele>
        <time>2021-08-08T13:55:02Z</time>
      </trkpt>
      <trkpt lat="49.68359" lon="3.99955">
        <ele>153.47</ele>
        <time>2021-08-08T13:55:13Z</time>
      </trkpt>
      <trkpt lat="49.68324" lon="3.99916">
        <ele>153.47</ele>
        <time>2021-08-08T13:55:24Z</time>
      </trkpt>
      <trkpt lat="49.68317" lon="3.99908">
        <ele>153.47</ele>
        <time>2021-08-08T13:55:26Z</time>
      </trkpt>
      <trkpt lat="49.68278" lon="3.99869">
        <ele>152.99</ele>
        <time>2021-08-08T13:55:37Z</time>
      </trkpt>
      <trkpt lat="49.68246" lon="3.99839">
        <ele>152.99</ele>
        <time>2021-08-08T13:55:45Z</time>
      </trkpt>
      <trkpt lat="49.68235" lon="3.99825">
        <ele>152.99</ele>
        <time>2021-08-08T13:55:48Z</time>
      </trkpt>
      <trkpt lat="49.68205" lon="3.99792">
        <ele>150.1</ele>
        <time>2021-08-08T13:55:55Z</time>
      </trkpt>
      <trkpt lat="49.68184" lon="3.99769">
        <ele>150.1</ele>
        <time>2021-08-08T13:56:00Z</time>
      </trkpt>
      <trkpt lat="49.68174" lon="3.99757">
        <ele>150.1</ele>
        <time>2021-08-08T13:56:04Z</time>
      </trkpt>
      <trkpt lat="49.68173" lon="3.99753">
        <ele>150.1</ele>
        <time>2021-08-08T13:56:05Z</time>
      </trkpt>
      <trkpt lat="49.68181" lon="3.99737">
        <ele>150.1</ele>
        <time>2021-08-08T13:56:10Z</time>
      </trkpt>
      <trkpt lat="49.68183" lon="3.99733">
        <ele>150.1</ele>
        <time>2021-08-08T13:56:11Z</time>
      </trkpt>
      <trkpt lat="49.68198" lon="3.997">
        <ele>149.62</ele>
        <time>2021-08-08T13:56:19Z</time>
      </trkpt>
      <trkpt lat="49.682" lon="3.99678">
        <ele>149.62</ele>
        <time>2021-08-08T13:56:24Z</time>
      </trkpt>
      <trkpt lat="49.68195" lon="3.99647">
        <ele>149.62</ele>
        <time>2021-08-08T13:56:31Z</time>
      </trkpt>
      <trkpt lat="49.68182" lon="3.99628">
        <ele>149.14</ele>
        <time>2021-08-08T13:56:37Z</time>
      </trkpt>
      <trkpt lat="49.68163" lon="3.99625">
        <ele>148.18</ele>
        <time>2021-08-08T13:56:44Z</time>
      </trkpt>
      <trkpt lat="49.68144" lon="3.99629">
        <ele>148.18</ele>
        <time>2021-08-08T13:56:51Z</time>
      </trkpt>
      <trkpt lat="49.68126" lon="3.99635">
        <ele>147.7</ele>
        <time>2021-08-08T13:56:58Z</time>
      </trkpt>
      <trkpt lat="49.68121" lon="3.99637">
        <ele>149.14</ele>
        <time>2021-08-08T13:57:00Z</time>
      </trkpt>
      <trkpt lat="49.68102" lon="3.99643">
        <ele>149.62</ele>
        <time>2021-08-08T13:57:08Z</time>
      </trkpt>
      <trkpt lat="49.68099" lon="3.99641">
        <ele>150.1</ele>
        <time>2021-08-08T13:57:13Z</time>
      </trkpt>
      <trkpt lat="49.68099" lon="3.9964">
        <ele>150.1</ele>
        <time>2021-08-08T13:57:25Z</time>
      </trkpt>
      <trkpt lat="49.68099" lon="3.9964">
        <ele>150.1</ele>
        <time>2021-08-08T13:57:34Z</time>
      </trkpt>
      <trkpt lat="49.68099" lon="3.99639">
        <ele>150.1</ele>
        <time>2021-08-08T13:57:45Z</time>
      </trkpt>
      <trkpt lat="49.68099" lon="3.9964">
        <ele>150.58</ele>
        <time>2021-08-08T13:57:55Z</time>
      </trkpt>
      <trkpt lat="49.68099" lon="3.9964">
        <ele>150.58</ele>
        <time>2021-08-08T13:58:03Z</time>
      </trkpt>
      <trkpt lat="49.68099" lon="3.99639">
        <ele>150.58</ele>
        <time>2021-08-08T13:58:11Z</time>
      </trkpt>
      <trkpt lat="49.68094" lon="3.99637">
        <ele>150.58</ele>
        <time>2021-08-08T13:58:17Z</time>
      </trkpt>
      <trkpt lat="49.68084" lon="3.99626">
        <ele>150.58</ele>
        <time>2021-08-08T13:58:24Z</time>
      </trkpt>
      <trkpt lat="49.68066" lon="3.99605">
        <ele>151.06</ele>
        <time>2021-08-08T13:58:32Z</time>
      </trkpt>
      <trkpt lat="49.68047" lon="3.99576">
        <ele>151.06</ele>
        <time>2021-08-08T13:58:41Z</time>
      </trkpt>
      <trkpt lat="49.68032" lon="3.99556">
        <ele>151.54</ele>
        <time>2021-08-08T13:58:48Z</time>
      </trkpt>
      <trkpt lat="49.68011" lon="3.99523">
        <ele>152.03</ele>
        <time>2021-08-08T13:58:58Z</time>
      </trkpt>
      <trkpt lat="49.68001" lon="3.99507">
        <ele>151.06</ele>
        <time>2021-08-08T13:59:03Z</time>
      </trkpt>
      <trkpt lat="49.67984" lon="3.99473">
        <ele>149.62</ele>
        <time>2021-08-08T13:59:12Z</time>
      </trkpt>
      <trkpt lat="49.67966" lon="3.99426">
        <ele>148.66</ele>
        <time>2021-08-08T13:59:23Z</time>
      </trkpt>
      <trkpt lat="49.6795" lon="3.99389">
        <ele>147.7</ele>
        <time>2021-08-08T13:59:31Z</time>
      </trkpt>
      <trkpt lat="49.67931" lon="3.99344">
        <ele>147.7</ele>
        <time>2021-08-08T13:59:41Z</time>
      </trkpt>
      <trkpt lat="49.6791" lon="3.99294">
        <ele>147.7</ele>
        <time>2021-08-08T13:59:53Z</time>
      </trkpt>
      <trkpt lat="49.67902" lon="3.99289">
        <ele>147.7</ele>
        <time>2021-08-08T13:59:56Z</time>
      </trkpt>
      <trkpt lat="49.67899" lon="3.9929">
        <ele>147.7</ele>
        <time>2021-08-08T13:59:57Z</time>
      </trkpt>
      <trkpt lat="49.67896" lon="3.99291">
        <ele>147.7</ele>
        <time>2021-08-08T13:59:58Z</time>
      </trkpt>
      <trkpt lat="49.6789" lon="3.99296">
        <ele>149.62</ele>
        <time>2021-08-08T14:00:00Z</time>
      </trkpt>
      <trkpt lat="49.67873" lon="3.99308">
        <ele>150.1</ele>
        <time>2021-08-08T14:00:06Z</time>
      </trkpt>
      <trkpt lat="49.6786" lon="3.99318">
        <ele>151.54</ele>
        <time>2021-08-08T14:00:12Z</time>
      </trkpt>
      <trkpt lat="49.67839" lon="3.99333">
        <ele>150.1</ele>
        <time>2021-08-08T14:00:19Z</time>
      </trkpt>
      <trkpt lat="49.67836" lon="3.99335">
        <ele>150.1</ele>
        <time>2021-08-08T14:00:20Z</time>
      </trkpt>
      <trkpt lat="49.67814" lon="3.99348">
        <ele>151.06</ele>
        <time>2021-08-08T14:00:27Z</time>
      </trkpt>
      <trkpt lat="49.67798" lon="3.99358">
        <ele>149.62</ele>
        <time>2021-08-08T14:00:32Z</time>
      </trkpt>
      <trkpt lat="49.67764" lon="3.99377">
        <ele>151.54</ele>
        <time>2021-08-08T14:00:42Z</time>
      </trkpt>
      <trkpt lat="49.67728" lon="3.99398">
        <ele>151.54</ele>
        <time>2021-08-08T14:00:52Z</time>
      </trkpt>
      <trkpt lat="49.67717" lon="3.99404">
        <ele>149.62</ele>
        <time>2021-08-08T14:00:55Z</time>
      </trkpt>
      <trkpt lat="49.67686" lon="3.99421">
        <ele>149.62</ele>
        <time>2021-08-08T14:01:04Z</time>
      </trkpt>
      <trkpt lat="49.67645" lon="3.99442">
        <ele>147.7</ele>
        <time>2021-08-08T14:01:14Z</time>
      </trkpt>
      <trkpt lat="49.6764" lon="3.99444">
        <ele>147.7</ele>
        <time>2021-08-08T14:01:15Z</time>
      </trkpt>
      <trkpt lat="49.67601" lon="3.99461">
        <ele>144.82</ele>
        <time>2021-08-08T14:01:23Z</time>
      </trkpt>
      <trkpt lat="49.67592" lon="3.99465">
        <ele>146.26</ele>
        <time>2021-08-08T14:01:25Z</time>
      </trkpt>
      <trkpt lat="49.67575" lon="3.99469">
        <ele>145.3</ele>
        <time>2021-08-08T14:01:30Z</time>
      </trkpt>
      <trkpt lat="49.67573" lon="3.99467">
        <ele>145.3</ele>
        <time>2021-08-08T14:01:31Z</time>
      </trkpt>
      <trkpt lat="49.67571" lon="3.99464">
        <ele>145.3</ele>
        <time>2021-08-08T14:01:32Z</time>
      </trkpt>
      <trkpt lat="49.67569" lon="3.9946">
        <ele>145.3</ele>
        <time>2021-08-08T14:01:33Z</time>
      </trkpt>
      <trkpt lat="49.67567" lon="3.99456">
        <ele>145.3</ele>
        <time>2021-08-08T14:01:34Z</time>
      </trkpt>
      <trkpt lat="49.67565" lon="3.99453">
        <ele>145.3</ele>
        <time>2021-08-08T14:01:35Z</time>
      </trkpt>
      <trkpt lat="49.67549" lon="3.99425">
        <ele>146.26</ele>
        <time>2021-08-08T14:01:42Z</time>
      </trkpt>
      <trkpt lat="49.67529" lon="3.99395">
        <ele>146.74</ele>
        <time>2021-08-08T14:01:50Z</time>
      </trkpt>
      <trkpt lat="49.6751" lon="3.99364">
        <ele>147.22</ele>
        <time>2021-08-08T14:01:58Z</time>
      </trkpt>
      <trkpt lat="49.67484" lon="3.99325">
        <ele>146.26</ele>
        <time>2021-08-08T14:02:08Z</time>
      </trkpt>
      <trkpt lat="49.67479" lon="3.99317">
        <ele>147.7</ele>
        <time>2021-08-08T14:02:10Z</time>
      </trkpt>
      <trkpt lat="49.67462" lon="3.99292">
        <ele>146.26</ele>
        <time>2021-08-08T14:02:16Z</time>
      </trkpt>
      <trkpt lat="49.6744" lon="3.99258">
        <ele>145.78</ele>
        <time>2021-08-08T14:02:24Z</time>
      </trkpt>
      <trkpt lat="49.67434" lon="3.99249">
        <ele>147.7</ele>
        <time>2021-08-08T14:02:26Z</time>
      </trkpt>
      <trkpt lat="49.674" lon="3.99197">
        <ele>147.7</ele>
        <time>2021-08-08T14:02:37Z</time>
      </trkpt>
      <trkpt lat="49.67366" lon="3.99146">
        <ele>148.18</ele>
        <time>2021-08-08T14:02:48Z</time>
      </trkpt>
      <trkpt lat="49.67359" lon="3.99138">
        <ele>148.18</ele>
        <time>2021-08-08T14:02:50Z</time>
      </trkpt>
      <trkpt lat="49.67355" lon="3.99136">
        <ele>148.18</ele>
        <time>2021-08-08T14:02:51Z</time>
      </trkpt>
      <trkpt lat="49.67334" lon="3.99127">
        <ele>147.22</ele>
        <time>2021-08-08T14:02:56Z</time>
      </trkpt>
      <trkpt lat="49.67294" lon="3.99109">
        <ele>147.22</ele>
        <time>2021-08-08T14:03:05Z</time>
      </trkpt>
      <trkpt lat="49.67247" lon="3.99073">
        <ele>145.3</ele>
        <time>2021-08-08T14:03:14Z</time>
      </trkpt>
      <trkpt lat="49.67194" lon="3.99018">
        <ele>143.85</ele>
        <time>2021-08-08T14:03:24Z</time>
      </trkpt>
      <trkpt lat="49.67147" lon="3.98976">
        <ele>140.97</ele>
        <time>2021-08-08T14:03:32Z</time>
      </trkpt>
      <trkpt lat="49.67085" lon="3.98923">
        <ele>140.49</ele>
        <time>2021-08-08T14:03:42Z</time>
      </trkpt>
      <trkpt lat="49.67069" lon="3.98904">
        <ele>140.49</ele>
        <time>2021-08-08T14:03:45Z</time>
      </trkpt>
      <trkpt lat="49.6706" lon="3.98889">
        <ele>140.49</ele>
        <time>2021-08-08T14:03:47Z</time>
      </trkpt>
      <trkpt lat="49.67056" lon="3.98881">
        <ele>140.49</ele>
        <time>2021-08-08T14:03:48Z</time>
      </trkpt>
      <trkpt lat="49.67053" lon="3.98872">
        <ele>140.49</ele>
        <time>2021-08-08T14:03:49Z</time>
      </trkpt>
      <trkpt lat="49.6705" lon="3.98863">
        <ele>140.49</ele>
        <time>2021-08-08T14:03:50Z</time>
      </trkpt>
      <trkpt lat="49.67048" lon="3.98854">
        <ele>140.49</ele>
        <time>2021-08-08T14:03:51Z</time>
      </trkpt>
      <trkpt lat="49.67034" lon="3.98787">
        <ele>138.09</ele>
        <time>2021-08-08T14:03:58Z</time>
      </trkpt>
      <trkpt lat="49.67019" lon="3.98723">
        <ele>135.68</ele>
        <time>2021-08-08T14:04:04Z</time>
      </trkpt>
      <trkpt lat="49.67001" lon="3.98667">
        <ele>134.72</ele>
        <time>2021-08-08T14:04:10Z</time>
      </trkpt>
      <trkpt lat="49.66997" lon="3.9866">
        <ele>134.72</ele>
        <time>2021-08-08T14:04:11Z</time>
      </trkpt>
      <trkpt lat="49.66993" lon="3.98653">
        <ele>134.72</ele>
        <time>2021-08-08T14:04:12Z</time>
      </trkpt>
      <trkpt lat="49.66989" lon="3.98648">
        <ele>134.72</ele>
        <time>2021-08-08T14:04:13Z</time>
      </trkpt>
      <trkpt lat="49.66983" lon="3.98642">
        <ele>136.64</ele>
        <time>2021-08-08T14:04:14Z</time>
      </trkpt>
      <trkpt lat="49.66979" lon="3.98638">
        <ele>137.61</ele>
        <time>2021-08-08T14:04:15Z</time>
      </trkpt>
      <trkpt lat="49.66975" lon="3.98634">
        <ele>137.61</ele>
        <time>2021-08-08T14:04:16Z</time>
      </trkpt>
      <trkpt lat="49.66943" lon="3.98604">
        <ele>138.57</ele>
        <time>2021-08-08T14:04:24Z</time>
      </trkpt>
      <trkpt lat="49.66921" lon="3.98583">
        <ele>139.05</ele>
        <time>2021-08-08T14:04:31Z</time>
      </trkpt>
      <trkpt lat="49.66896" lon="3.98561">
        <ele>141.45</ele>
        <time>2021-08-08T14:04:40Z</time>
      </trkpt>
      <trkpt lat="49.66872" lon="3.98539">
        <ele>143.37</ele>
        <time>2021-08-08T14:04:50Z</time>
      </trkpt>
      <trkpt lat="49.66853" lon="3.98521">
        <ele>143.85</ele>
        <time>2021-08-08T14:04:58Z</time>
      </trkpt>
      <trkpt lat="49.66833" lon="3.98501">
        <ele>146.74</ele>
        <time>2021-08-08T14:05:06Z</time>
      </trkpt>
      <trkpt lat="49.6683" lon="3.98499">
        <ele>146.74</ele>
        <time>2021-08-08T14:05:07Z</time>
      </trkpt>
      <trkpt lat="49.66812" lon="3.98481">
        <ele>146.74</ele>
        <time>2021-08-08T14:05:14Z</time>
      </trkpt>
      <trkpt lat="49.66798" lon="3.98468">
        <ele>147.22</ele>
        <time>2021-08-08T14:05:20Z</time>
      </trkpt>
      <trkpt lat="49.66774" lon="3.98446">
        <ele>148.18</ele>
        <time>2021-08-08T14:05:31Z</time>
      </trkpt>
      <trkpt lat="49.66767" lon="3.98438">
        <ele>148.66</ele>
        <time>2021-08-08T14:05:35Z</time>
      </trkpt>
      <trkpt lat="49.66766" lon="3.98434">
        <ele>148.66</ele>
        <time>2021-08-08T14:05:36Z</time>
      </trkpt>
      <trkpt lat="49.66766" lon="3.9843">
        <ele>148.66</ele>
        <time>2021-08-08T14:05:37Z</time>
      </trkpt>
      <trkpt lat="49.66766" lon="3.98425">
        <ele>149.14</ele>
        <time>2021-08-08T14:05:38Z</time>
      </trkpt>
      <trkpt lat="49.66767" lon="3.98421">
        <ele>149.14</ele>
        <time>2021-08-08T14:05:39Z</time>
      </trkpt>
      <trkpt lat="49.66777" lon="3.98392">
        <ele>149.14</ele>
        <time>2021-08-08T14:05:46Z</time>
      </trkpt>
      <trkpt lat="49.66776" lon="3.98378">
        <ele>147.7</ele>
        <time>2021-08-08T14:05:49Z</time>
      </trkpt>
      <trkpt lat="49.66774" lon="3.98375">
        <ele>147.7</ele>
        <time>2021-08-08T14:05:50Z</time>
      </trkpt>
      <trkpt lat="49.66767" lon="3.9837">
        <ele>149.14</ele>
        <time>2021-08-08T14:05:53Z</time>
      </trkpt>
      <trkpt lat="49.66765" lon="3.98369">
        <ele>149.14</ele>
        <time>2021-08-08T14:05:54Z</time>
      </trkpt>
      <trkpt lat="49.66762" lon="3.98368">
        <ele>149.14</ele>
        <time>2021-08-08T14:05:55Z</time>
      </trkpt>
      <trkpt lat="49.66759" lon="3.98366">
        <ele>149.14</ele>
        <time>2021-08-08T14:05:56Z</time>
      </trkpt>
      <trkpt lat="49.66731" lon="3.98347">
        <ele>149.14</ele>
        <time>2021-08-08T14:06:04Z</time>
      </trkpt>
      <trkpt lat="49.66695" lon="3.98325">
        <ele>149.62</ele>
        <time>2021-08-08T14:06:14Z</time>
      </trkpt>
      <trkpt lat="49.66667" lon="3.98307">
        <ele>148.18</ele>
        <time>2021-08-08T14:06:21Z</time>
      </trkpt>
      <trkpt lat="49.66649" lon="3.98295">
        <ele>147.7</ele>
        <time>2021-08-08T14:06:26Z</time>
      </trkpt>
      <trkpt lat="49.66611" lon="3.98269">
        <ele>148.18</ele>
        <time>2021-08-08T14:06:36Z</time>
      </trkpt>
      <trkpt lat="49.66564" lon="3.98238">
        <ele>149.14</ele>
        <time>2021-08-08T14:06:49Z</time>
      </trkpt>
      <trkpt lat="49.6656" lon="3.98235">
        <ele>149.14</ele>
        <time>2021-08-08T14:06:50Z</time>
      </trkpt>
      <trkpt lat="49.66525" lon="3.98212">
        <ele>147.7</ele>
        <time>2021-08-08T14:06:59Z</time>
      </trkpt>
      <trkpt lat="49.66488" lon="3.98187">
        <ele>147.7</ele>
        <time>2021-08-08T14:07:08Z</time>
      </trkpt>
      <trkpt lat="49.66439" lon="3.98155">
        <ele>146.26</ele>
        <time>2021-08-08T14:07:19Z</time>
      </trkpt>
      <trkpt lat="49.66426" lon="3.98146">
        <ele>146.26</ele>
        <time>2021-08-08T14:07:22Z</time>
      </trkpt>
      <trkpt lat="49.66422" lon="3.98144">
        <ele>146.26</ele>
        <time>2021-08-08T14:07:23Z</time>
      </trkpt>
      <trkpt lat="49.66387" lon="3.9812">
        <ele>144.34</ele>
        <time>2021-08-08T14:07:32Z</time>
      </trkpt>
      <trkpt lat="49.66382" lon="3.98118">
        <ele>144.34</ele>
        <time>2021-08-08T14:07:33Z</time>
      </trkpt>
      <trkpt lat="49.66378" lon="3.98117">
        <ele>144.34</ele>
        <time>2021-08-08T14:07:34Z</time>
      </trkpt>
      <trkpt lat="49.66374" lon="3.98117">
        <ele>144.34</ele>
        <time>2021-08-08T14:07:35Z</time>
      </trkpt>
      <trkpt lat="49.66371" lon="3.98119">
        <ele>146.26</ele>
        <time>2021-08-08T14:07:36Z</time>
      </trkpt>
      <trkpt lat="49.66368" lon="3.98122">
        <ele>146.26</ele>
        <time>2021-08-08T14:07:37Z</time>
      </trkpt>
      <trkpt lat="49.66366" lon="3.98125">
        <ele>146.26</ele>
        <time>2021-08-08T14:07:38Z</time>
      </trkpt>
      <trkpt lat="49.66363" lon="3.98128">
        <ele>146.26</ele>
        <time>2021-08-08T14:07:39Z</time>
      </trkpt>
      <trkpt lat="49.66361" lon="3.9813">
        <ele>146.26</ele>
        <time>2021-08-08T14:07:40Z</time>
      </trkpt>
      <trkpt lat="49.66359" lon="3.9813">
        <ele>144.82</ele>
        <time>2021-08-08T14:07:41Z</time>
      </trkpt>
      <trkpt lat="49.66357" lon="3.98128">
        <ele>144.82</ele>
        <time>2021-08-08T14:07:42Z</time>
      </trkpt>
      <trkpt lat="49.66355" lon="3.98125">
        <ele>144.82</ele>
        <time>2021-08-08T14:07:43Z</time>
      </trkpt>
      <trkpt lat="49.66354" lon="3.98122">
        <ele>144.82</ele>
        <time>2021-08-08T14:07:44Z</time>
      </trkpt>
      <trkpt lat="49.66353" lon="3.9812">
        <ele>144.82</ele>
        <time>2021-08-08T14:07:45Z</time>
      </trkpt>
      <trkpt lat="49.66351" lon="3.98117">
        <ele>144.82</ele>
        <time>2021-08-08T14:07:46Z</time>
      </trkpt>
      <trkpt lat="49.66346" lon="3.98112">
        <ele>144.82</ele>
        <time>2021-08-08T14:07:50Z</time>
      </trkpt>
      <trkpt lat="49.66345" lon="3.98113">
        <ele>144.82</ele>
        <time>2021-08-08T14:07:51Z</time>
      </trkpt>
      <trkpt lat="49.66345" lon="3.98115">
        <ele>146.26</ele>
        <time>2021-08-08T14:07:52Z</time>
      </trkpt>
      <trkpt lat="49.66347" lon="3.98116">
        <ele>146.26</ele>
        <time>2021-08-08T14:07:53Z</time>
      </trkpt>
      <trkpt lat="49.66348" lon="3.98115">
        <ele>146.26</ele>
        <time>2021-08-08T14:07:54Z</time>
      </trkpt>
      <trkpt lat="49.66348" lon="3.98113">
        <ele>146.26</ele>
        <time>2021-08-08T14:07:55Z</time>
      </trkpt>
      <trkpt lat="49.66348" lon="3.98111">
        <ele>146.26</ele>
        <time>2021-08-08T14:07:56Z</time>
      </trkpt>
      <trkpt lat="49.6634" lon="3.98105">
        <ele>144.82</ele>
        <time>2021-08-08T14:08:01Z</time>
      </trkpt>
      <trkpt lat="49.66319" lon="3.98094">
        <ele>143.85</ele>
        <time>2021-08-08T14:08:09Z</time>
      </trkpt>
      <trkpt lat="49.66305" lon="3.98088">
        <ele>142.41</ele>
        <time>2021-08-08T14:08:13Z</time>
      </trkpt>
      <trkpt lat="49.6629" lon="3.98081">
        <ele>143.37</ele>
        <time>2021-08-08T14:08:17Z</time>
      </trkpt>
      <trkpt lat="49.66273" lon="3.98072">
        <ele>142.41</ele>
        <time>2021-08-08T14:08:22Z</time>
      </trkpt>
      <trkpt lat="49.66239" lon="3.98048">
        <ele>143.37</ele>
        <time>2021-08-08T14:08:32Z</time>
      </trkpt>
      <trkpt lat="49.66205" lon="3.98008">
        <ele>142.89</ele>
        <time>2021-08-08T14:08:44Z</time>
      </trkpt>
      <trkpt lat="49.66175" lon="3.9797">
        <ele>144.34</ele>
        <time>2021-08-08T14:08:55Z</time>
      </trkpt>
      <trkpt lat="49.66159" lon="3.97949">
        <ele>142.89</ele>
        <time>2021-08-08T14:09:01Z</time>
      </trkpt>
      <trkpt lat="49.66136" lon="3.97916">
        <ele>144.34</ele>
        <time>2021-08-08T14:09:10Z</time>
      </trkpt>
      <trkpt lat="49.66108" lon="3.9788">
        <ele>144.82</ele>
        <time>2021-08-08T14:09:20Z</time>
      </trkpt>
      <trkpt lat="49.66082" lon="3.97842">
        <ele>143.85</ele>
        <time>2021-08-08T14:09:30Z</time>
      </trkpt>
      <trkpt lat="49.66076" lon="3.97833">
        <ele>144.82</ele>
        <time>2021-08-08T14:09:32Z</time>
      </trkpt>
      <trkpt lat="49.66071" lon="3.97824">
        <ele>143.85</ele>
        <time>2021-08-08T14:09:34Z</time>
      </trkpt>
      <trkpt lat="49.66042" lon="3.97772">
        <ele>143.37</ele>
        <time>2021-08-08T14:09:45Z</time>
      </trkpt>
      <trkpt lat="49.66019" lon="3.97721">
        <ele>143.37</ele>
        <time>2021-08-08T14:09:55Z</time>
      </trkpt>
      <trkpt lat="49.65989" lon="3.97661">
        <ele>143.37</ele>
        <time>2021-08-08T14:10:07Z</time>
      </trkpt>
      <trkpt lat="49.65986" lon="3.97656">
        <ele>143.37</ele>
        <time>2021-08-08T14:10:08Z</time>
      </trkpt>
      <trkpt lat="49.65951" lon="3.97607">
        <ele>142.41</ele>
        <time>2021-08-08T14:10:19Z</time>
      </trkpt>
      <trkpt lat="49.65922" lon="3.97567">
        <ele>142.41</ele>
        <time>2021-08-08T14:10:29Z</time>
      </trkpt>
      <trkpt lat="49.6591" lon="3.9755">
        <ele>143.37</ele>
        <time>2021-08-08T14:10:33Z</time>
      </trkpt>
      <trkpt lat="49.65874" lon="3.97501">
        <ele>142.89</ele>
        <time>2021-08-08T14:10:45Z</time>
      </trkpt>
      <trkpt lat="49.65865" lon="3.9749">
        <ele>144.34</ele>
        <time>2021-08-08T14:10:48Z</time>
      </trkpt>
      <trkpt lat="49.65831" lon="3.97446">
        <ele>144.34</ele>
        <time>2021-08-08T14:10:59Z</time>
      </trkpt>
      <trkpt lat="49.65799" lon="3.97409">
        <ele>142.89</ele>
        <time>2021-08-08T14:11:09Z</time>
      </trkpt>
      <trkpt lat="49.65792" lon="3.97401">
        <ele>144.34</ele>
        <time>2021-08-08T14:11:11Z</time>
      </trkpt>
      <trkpt lat="49.65764" lon="3.97375">
        <ele>144.34</ele>
        <time>2021-08-08T14:11:19Z</time>
      </trkpt>
      <trkpt lat="49.6574" lon="3.97353">
        <ele>143.37</ele>
        <time>2021-08-08T14:11:25Z</time>
      </trkpt>
      <trkpt lat="49.65715" lon="3.9733">
        <ele>141.45</ele>
        <time>2021-08-08T14:11:31Z</time>
      </trkpt>
      <trkpt lat="49.65673" lon="3.97289">
        <ele>142.41</ele>
        <time>2021-08-08T14:11:41Z</time>
      </trkpt>
      <trkpt lat="49.65634" lon="3.97244">
        <ele>140.49</ele>
        <time>2021-08-08T14:11:51Z</time>
      </trkpt>
      <trkpt lat="49.65597" lon="3.97198">
        <ele>140.49</ele>
        <time>2021-08-08T14:12:01Z</time>
      </trkpt>
      <trkpt lat="49.65587" lon="3.97186">
        <ele>140.49</ele>
        <time>2021-08-08T14:12:04Z</time>
      </trkpt>
      <trkpt lat="49.65565" lon="3.97159">
        <ele>140.49</ele>
        <time>2021-08-08T14:12:10Z</time>
      </trkpt>
      <trkpt lat="49.65554" lon="3.97145">
        <ele>139.53</ele>
        <time>2021-08-08T14:12:13Z</time>
      </trkpt>
      <trkpt lat="49.65521" lon="3.97095">
        <ele>139.53</ele>
        <time>2021-08-08T14:12:23Z</time>
      </trkpt>
      <trkpt lat="49.65495" lon="3.9704">
        <ele>138.57</ele>
        <time>2021-08-08T14:12:33Z</time>
      </trkpt>
      <trkpt lat="49.65474" lon="3.96996">
        <ele>137.61</ele>
        <time>2021-08-08T14:12:41Z</time>
      </trkpt>
      <trkpt lat="49.65444" lon="3.96934">
        <ele>137.13</ele>
        <time>2021-08-08T14:12:52Z</time>
      </trkpt>
      <trkpt lat="49.65428" lon="3.969">
        <ele>137.13</ele>
        <time>2021-08-08T14:12:58Z</time>
      </trkpt>
      <trkpt lat="49.65409" lon="3.96864">
        <ele>135.68</ele>
        <time>2021-08-08T14:13:05Z</time>
      </trkpt>
      <trkpt lat="49.65383" lon="3.96818">
        <ele>136.16</ele>
        <time>2021-08-08T14:13:15Z</time>
      </trkpt>
      <trkpt lat="49.65358" lon="3.96771">
        <ele>135.2</ele>
        <time>2021-08-08T14:13:26Z</time>
      </trkpt>
      <trkpt lat="49.65332" lon="3.96724">
        <ele>138.09</ele>
        <time>2021-08-08T14:13:37Z</time>
      </trkpt>
      <trkpt lat="49.65309" lon="3.96681">
        <ele>138.57</ele>
        <time>2021-08-08T14:13:47Z</time>
      </trkpt>
      <trkpt lat="49.65287" lon="3.96638">
        <ele>138.57</ele>
        <time>2021-08-08T14:13:57Z</time>
      </trkpt>
      <trkpt lat="49.65271" lon="3.9661">
        <ele>139.05</ele>
        <time>2021-08-08T14:14:04Z</time>
      </trkpt>
      <trkpt lat="49.65255" lon="3.96581">
        <ele>139.05</ele>
        <time>2021-08-08T14:14:11Z</time>
      </trkpt>
      <trkpt lat="49.65239" lon="3.9655">
        <ele>139.05</ele>
        <time>2021-08-08T14:14:19Z</time>
      </trkpt>
      <trkpt lat="49.65227" lon="3.96528">
        <ele>137.61</ele>
        <time>2021-08-08T14:14:24Z</time>
      </trkpt>
      <trkpt lat="49.65205" lon="3.96489">
        <ele>137.61</ele>
        <time>2021-08-08T14:14:34Z</time>
      </trkpt>
      <trkpt lat="49.65182" lon="3.96447">
        <ele>137.61</ele>
        <time>2021-08-08T14:14:42Z</time>
      </trkpt>
      <trkpt lat="49.65175" lon="3.96435">
        <ele>137.13</ele>
        <time>2021-08-08T14:14:44Z</time>
      </trkpt>
      <trkpt lat="49.65172" lon="3.96429">
        <ele>136.64</ele>
        <time>2021-08-08T14:14:45Z</time>
      </trkpt>
      <trkpt lat="49.65145" lon="3.96382">
        <ele>135.68</ele>
        <time>2021-08-08T14:14:53Z</time>
      </trkpt>
      <trkpt lat="49.65102" lon="3.96325">
        <ele>135.68</ele>
        <time>2021-08-08T14:15:03Z</time>
      </trkpt>
      <trkpt lat="49.65065" lon="3.96277">
        <ele>134.24</ele>
        <time>2021-08-08T14:15:11Z</time>
      </trkpt>
      <trkpt lat="49.65028" lon="3.96227">
        <ele>134.24</ele>
        <time>2021-08-08T14:15:19Z</time>
      </trkpt>
      <trkpt lat="49.64991" lon="3.96177">
        <ele>133.28</ele>
        <time>2021-08-08T14:15:27Z</time>
      </trkpt>
      <trkpt lat="49.64953" lon="3.9613">
        <ele>133.28</ele>
        <time>2021-08-08T14:15:35Z</time>
      </trkpt>
      <trkpt lat="49.64908" lon="3.96082">
        <ele>133.28</ele>
        <time>2021-08-08T14:15:44Z</time>
      </trkpt>
      <trkpt lat="49.64863" lon="3.96052">
        <ele>132.32</ele>
        <time>2021-08-08T14:15:52Z</time>
      </trkpt>
      <trkpt lat="49.6485" lon="3.96047">
        <ele>132.32</ele>
        <time>2021-08-08T14:15:54Z</time>
      </trkpt>
      <trkpt lat="49.64844" lon="3.96045">
        <ele>131.84</ele>
        <time>2021-08-08T14:15:55Z</time>
      </trkpt>
      <trkpt lat="49.6479" lon="3.96032">
        <ele>131.84</ele>
        <time>2021-08-08T14:16:04Z</time>
      </trkpt>
      <trkpt lat="49.64751" lon="3.96021">
        <ele>131.84</ele>
        <time>2021-08-08T14:16:11Z</time>
      </trkpt>
      <trkpt lat="49.64746" lon="3.96019">
        <ele>131.84</ele>
        <time>2021-08-08T14:16:12Z</time>
      </trkpt>
      <trkpt lat="49.64701" lon="3.95994">
        <ele>131.36</ele>
        <time>2021-08-08T14:16:21Z</time>
      </trkpt>
      <trkpt lat="49.64662" lon="3.95969">
        <ele>130.4</ele>
        <time>2021-08-08T14:16:29Z</time>
      </trkpt>
      <trkpt lat="49.64653" lon="3.95963">
        <ele>131.84</ele>
        <time>2021-08-08T14:16:31Z</time>
      </trkpt>
      <trkpt lat="49.64636" lon="3.95951">
        <ele>130.4</ele>
        <time>2021-08-08T14:16:35Z</time>
      </trkpt>
      <trkpt lat="49.64623" lon="3.95943">
        <ele>128.95</ele>
        <time>2021-08-08T14:16:38Z</time>
      </trkpt>
      <trkpt lat="49.64577" lon="3.95908">
        <ele>128.47</ele>
        <time>2021-08-08T14:16:48Z</time>
      </trkpt>
      <trkpt lat="49.64527" lon="3.95871">
        <ele>127.03</ele>
        <time>2021-08-08T14:16:58Z</time>
      </trkpt>
      <trkpt lat="49.64517" lon="3.95863">
        <ele>126.07</ele>
        <time>2021-08-08T14:17:00Z</time>
      </trkpt>
      <trkpt lat="49.64512" lon="3.9586">
        <ele>126.07</ele>
        <time>2021-08-08T14:17:01Z</time>
      </trkpt>
      <trkpt lat="49.64483" lon="3.9584">
        <ele>124.15</ele>
        <time>2021-08-08T14:17:07Z</time>
      </trkpt>
      <trkpt lat="49.64437" lon="3.95817">
        <ele>123.19</ele>
        <time>2021-08-08T14:17:17Z</time>
      </trkpt>
      <trkpt lat="49.64423" lon="3.95811">
        <ele>124.63</ele>
        <time>2021-08-08T14:17:20Z</time>
      </trkpt>
      <trkpt lat="49.64396" lon="3.95801">
        <ele>123.19</ele>
        <time>2021-08-08T14:17:26Z</time>
      </trkpt>
      <trkpt lat="49.64351" lon="3.95787">
        <ele>122.71</ele>
        <time>2021-08-08T14:17:36Z</time>
      </trkpt>
      <trkpt lat="49.6433" lon="3.95782">
        <ele>122.22</ele>
        <time>2021-08-08T14:17:41Z</time>
      </trkpt>
      <trkpt lat="49.64307" lon="3.95771">
        <ele>122.22</ele>
        <time>2021-08-08T14:17:47Z</time>
      </trkpt>
      <trkpt lat="49.64269" lon="3.9574">
        <ele>122.22</ele>
        <time>2021-08-08T14:17:57Z</time>
      </trkpt>
      <trkpt lat="49.64233" lon="3.95706">
        <ele>122.22</ele>
        <time>2021-08-08T14:18:07Z</time>
      </trkpt>
      <trkpt lat="49.64195" lon="3.9567">
        <ele>122.71</ele>
        <time>2021-08-08T14:18:17Z</time>
      </trkpt>
      <trkpt lat="49.64173" lon="3.95647">
        <ele>122.71</ele>
        <time>2021-08-08T14:18:23Z</time>
      </trkpt>
      <trkpt lat="49.64169" lon="3.95644">
        <ele>122.71</ele>
        <time>2021-08-08T14:18:24Z</time>
      </trkpt>
      <trkpt lat="49.64166" lon="3.95641">
        <ele>122.71</ele>
        <time>2021-08-08T14:18:25Z</time>
      </trkpt>
      <trkpt lat="49.64162" lon="3.95638">
        <ele>121.26</ele>
        <time>2021-08-08T14:18:26Z</time>
      </trkpt>
      <trkpt lat="49.64159" lon="3.95635">
        <ele>121.26</ele>
        <time>2021-08-08T14:18:27Z</time>
      </trkpt>
      <trkpt lat="49.64155" lon="3.95632">
        <ele>121.26</ele>
        <time>2021-08-08T14:18:28Z</time>
      </trkpt>
      <trkpt lat="49.64124" lon="3.95602">
        <ele>120.3</ele>
        <time>2021-08-08T14:18:36Z</time>
      </trkpt>
      <trkpt lat="49.64084" lon="3.95568">
        <ele>118.86</ele>
        <time>2021-08-08T14:18:45Z</time>
      </trkpt>
      <trkpt lat="49.64069" lon="3.95556">
        <ele>117.42</ele>
        <time>2021-08-08T14:18:48Z</time>
      </trkpt>
      <trkpt lat="49.64037" lon="3.95528">
        <ele>114.05</ele>
        <time>2021-08-08T14:18:54Z</time>
      </trkpt>
      <trkpt lat="49.64032" lon="3.95524">
        <ele>114.05</ele>
        <time>2021-08-08T14:18:55Z</time>
      </trkpt>
      <trkpt lat="49.63984" lon="3.95481">
        <ele>111.65</ele>
        <time>2021-08-08T14:19:04Z</time>
      </trkpt>
      <trkpt lat="49.63954" lon="3.95455">
        <ele>108.29</ele>
        <time>2021-08-08T14:19:09Z</time>
      </trkpt>
      <trkpt lat="49.63947" lon="3.9545">
        <ele>108.29</ele>
        <time>2021-08-08T14:19:10Z</time>
      </trkpt>
      <trkpt lat="49.63922" lon="3.95429">
        <ele>106.84</ele>
        <time>2021-08-08T14:19:14Z</time>
      </trkpt>
      <trkpt lat="49.63864" lon="3.95387">
        <ele>105.4</ele>
        <time>2021-08-08T14:19:23Z</time>
      </trkpt>
      <trkpt lat="49.63821" lon="3.95365">
        <ele>105.4</ele>
        <time>2021-08-08T14:19:31Z</time>
      </trkpt>
      <trkpt lat="49.63794" lon="3.95355">
        <ele>105.4</ele>
        <time>2021-08-08T14:19:37Z</time>
      </trkpt>
      <trkpt lat="49.63754" lon="3.95338">
        <ele>104.92</ele>
        <time>2021-08-08T14:19:46Z</time>
      </trkpt>
      <trkpt lat="49.63724" lon="3.95327">
        <ele>105.88</ele>
        <time>2021-08-08T14:19:53Z</time>
      </trkpt>
      <trkpt lat="49.63713" lon="3.95323">
        <ele>105.88</ele>
        <time>2021-08-08T14:19:56Z</time>
      </trkpt>
      <trkpt lat="49.63705" lon="3.9532">
        <ele>105.88</ele>
        <time>2021-08-08T14:19:58Z</time>
      </trkpt>
      <trkpt lat="49.63701" lon="3.95319">
        <ele>105.88</ele>
        <time>2021-08-08T14:19:59Z</time>
      </trkpt>
      <trkpt lat="49.63678" lon="3.95311">
        <ele>105.88</ele>
        <time>2021-08-08T14:20:06Z</time>
      </trkpt>
      <trkpt lat="49.63648" lon="3.95299">
        <ele>106.36</ele>
        <time>2021-08-08T14:20:14Z</time>
      </trkpt>
      <trkpt lat="49.63634" lon="3.95293">
        <ele>104.92</ele>
        <time>2021-08-08T14:20:18Z</time>
      </trkpt>
      <trkpt lat="49.63611" lon="3.95285">
        <ele>104.44</ele>
        <time>2021-08-08T14:20:25Z</time>
      </trkpt>
      <trkpt lat="49.63586" lon="3.95274">
        <ele>104.44</ele>
        <time>2021-08-08T14:20:33Z</time>
      </trkpt>
      <trkpt lat="49.63572" lon="3.95268">
        <ele>105.88</ele>
        <time>2021-08-08T14:20:38Z</time>
      </trkpt>
      <trkpt lat="49.63545" lon="3.95255">
        <ele>106.36</ele>
        <time>2021-08-08T14:20:47Z</time>
      </trkpt>
      <trkpt lat="49.63513" lon="3.95239">
        <ele>107.32</ele>
        <time>2021-08-08T14:20:58Z</time>
      </trkpt>
      <trkpt lat="49.63508" lon="3.95237">
        <ele>107.32</ele>
        <time>2021-08-08T14:21:00Z</time>
      </trkpt>
      <trkpt lat="49.63505" lon="3.95235">
        <ele>107.32</ele>
        <time>2021-08-08T14:21:01Z</time>
      </trkpt>
      <trkpt lat="49.63502" lon="3.95234">
        <ele>107.32</ele>
        <time>2021-08-08T14:21:02Z</time>
      </trkpt>
      <trkpt lat="49.63479" lon="3.95223">
        <ele>108.29</ele>
        <time>2021-08-08T14:21:11Z</time>
      </trkpt>
      <trkpt lat="49.63464" lon="3.95214">
        <ele>109.25</ele>
        <time>2021-08-08T14:21:18Z</time>
      </trkpt>
      <trkpt lat="49.63441" lon="3.95203">
        <ele>109.73</ele>
        <time>2021-08-08T14:21:27Z</time>
      </trkpt>
      <trkpt lat="49.63416" lon="3.95191">
        <ele>111.17</ele>
        <time>2021-08-08T14:21:37Z</time>
      </trkpt>
      <trkpt lat="49.63387" lon="3.95178">
        <ele>112.13</ele>
        <time>2021-08-08T14:21:48Z</time>
      </trkpt>
      <trkpt lat="49.63363" lon="3.95166">
        <ele>112.61</ele>
        <time>2021-08-08T14:21:57Z</time>
      </trkpt>
      <trkpt lat="49.63341" lon="3.95156">
        <ele>114.05</ele>
        <time>2021-08-08T14:22:05Z</time>
      </trkpt>
      <trkpt lat="49.63315" lon="3.95144">
        <ele>114.53</ele>
        <time>2021-08-08T14:22:14Z</time>
      </trkpt>
      <trkpt lat="49.63287" lon="3.95131">
        <ele>114.53</ele>
        <time>2021-08-08T14:22:23Z</time>
      </trkpt>
      <trkpt lat="49.63254" lon="3.95115">
        <ele>114.53</ele>
        <time>2021-08-08T14:22:34Z</time>
      </trkpt>
      <trkpt lat="49.63237" lon="3.95106">
        <ele>114.53</ele>
        <time>2021-08-08T14:22:40Z</time>
      </trkpt>
      <trkpt lat="49.63213" lon="3.95094">
        <ele>114.53</ele>
        <time>2021-08-08T14:22:48Z</time>
      </trkpt>
      <trkpt lat="49.63185" lon="3.95079">
        <ele>114.53</ele>
        <time>2021-08-08T14:22:57Z</time>
      </trkpt>
      <trkpt lat="49.63152" lon="3.95064">
        <ele>115.5</ele>
        <time>2021-08-08T14:23:07Z</time>
      </trkpt>
      <trkpt lat="49.63128" lon="3.95053">
        <ele>115.5</ele>
        <time>2021-08-08T14:23:14Z</time>
      </trkpt>
      <trkpt lat="49.63092" lon="3.95035">
        <ele>115.5</ele>
        <time>2021-08-08T14:23:25Z</time>
      </trkpt>
      <trkpt lat="49.63059" lon="3.95018">
        <ele>115.98</ele>
        <time>2021-08-08T14:23:35Z</time>
      </trkpt>
      <trkpt lat="49.63036" lon="3.95008">
        <ele>115.98</ele>
        <time>2021-08-08T14:23:42Z</time>
      </trkpt>
      <trkpt lat="49.63015" lon="3.94997">
        <ele>116.46</ele>
        <time>2021-08-08T14:23:49Z</time>
      </trkpt>
      <trkpt lat="49.62985" lon="3.94983">
        <ele>116.46</ele>
        <time>2021-08-08T14:23:58Z</time>
      </trkpt>
      <trkpt lat="49.62953" lon="3.94969">
        <ele>116.94</ele>
        <time>2021-08-08T14:24:07Z</time>
      </trkpt>
      <trkpt lat="49.6292" lon="3.94949">
        <ele>117.9</ele>
        <time>2021-08-08T14:24:17Z</time>
      </trkpt>
      <trkpt lat="49.62896" lon="3.94932">
        <ele>118.38</ele>
        <time>2021-08-08T14:24:25Z</time>
      </trkpt>
      <trkpt lat="49.62869" lon="3.94911">
        <ele>119.34</ele>
        <time>2021-08-08T14:24:35Z</time>
      </trkpt>
      <trkpt lat="49.62855" lon="3.949">
        <ele>120.3</ele>
        <time>2021-08-08T14:24:41Z</time>
      </trkpt>
      <trkpt lat="49.62832" lon="3.94882">
        <ele>121.26</ele>
        <time>2021-08-08T14:24:51Z</time>
      </trkpt>
      <trkpt lat="49.6281" lon="3.94867">
        <ele>121.74</ele>
        <time>2021-08-08T14:24:59Z</time>
      </trkpt>
      <trkpt lat="49.62785" lon="3.94853">
        <ele>122.22</ele>
        <time>2021-08-08T14:25:08Z</time>
      </trkpt>
      <trkpt lat="49.62755" lon="3.94842">
        <ele>122.22</ele>
        <time>2021-08-08T14:25:16Z</time>
      </trkpt>
      <trkpt lat="49.62721" lon="3.94828">
        <ele>117.9</ele>
        <time>2021-08-08T14:25:23Z</time>
      </trkpt>
      <trkpt lat="49.62711" lon="3.94825">
        <ele>117.42</ele>
        <time>2021-08-08T14:25:25Z</time>
      </trkpt>
      <trkpt lat="49.62664" lon="3.94814">
        <ele>117.42</ele>
        <time>2021-08-08T14:25:35Z</time>
      </trkpt>
      <trkpt lat="49.6261" lon="3.94807">
        <ele>116.94</ele>
        <time>2021-08-08T14:25:46Z</time>
      </trkpt>
      <trkpt lat="49.62581" lon="3.94804">
        <ele>117.9</ele>
        <time>2021-08-08T14:25:52Z</time>
      </trkpt>
      <trkpt lat="49.6253" lon="3.94798">
        <ele>118.86</ele>
        <time>2021-08-08T14:26:03Z</time>
      </trkpt>
      <trkpt lat="49.62495" lon="3.9479">
        <ele>116.46</ele>
        <time>2021-08-08T14:26:11Z</time>
      </trkpt>
      <trkpt lat="49.62485" lon="3.94788">
        <ele>116.46</ele>
        <time>2021-08-08T14:26:13Z</time>
      </trkpt>
      <trkpt lat="49.62481" lon="3.94788">
        <ele>116.46</ele>
        <time>2021-08-08T14:26:14Z</time>
      </trkpt>
      <trkpt lat="49.62475" lon="3.94787">
        <ele>116.46</ele>
        <time>2021-08-08T14:26:15Z</time>
      </trkpt>
      <trkpt lat="49.62471" lon="3.94786">
        <ele>116.46</ele>
        <time>2021-08-08T14:26:16Z</time>
      </trkpt>
      <trkpt lat="49.62466" lon="3.94785">
        <ele>115.98</ele>
        <time>2021-08-08T14:26:17Z</time>
      </trkpt>
      <trkpt lat="49.62418" lon="3.94774">
        <ele>115.5</ele>
        <time>2021-08-08T14:26:27Z</time>
      </trkpt>
      <trkpt lat="49.62384" lon="3.94767">
        <ele>114.53</ele>
        <time>2021-08-08T14:26:35Z</time>
      </trkpt>
      <trkpt lat="49.62376" lon="3.94764">
        <ele>114.53</ele>
        <time>2021-08-08T14:26:37Z</time>
      </trkpt>
      <trkpt lat="49.62371" lon="3.94763">
        <ele>114.53</ele>
        <time>2021-08-08T14:26:38Z</time>
      </trkpt>
      <trkpt lat="49.62363" lon="3.94761">
        <ele>115.98</ele>
        <time>2021-08-08T14:26:40Z</time>
      </trkpt>
      <trkpt lat="49.62354" lon="3.94759">
        <ele>114.05</ele>
        <time>2021-08-08T14:26:42Z</time>
      </trkpt>
      <trkpt lat="49.62322" lon="3.94751">
        <ele>114.05</ele>
        <time>2021-08-08T14:26:50Z</time>
      </trkpt>
      <trkpt lat="49.62293" lon="3.94745">
        <ele>114.05</ele>
        <time>2021-08-08T14:26:58Z</time>
      </trkpt>
      <trkpt lat="49.62261" lon="3.94737">
        <ele>115.5</ele>
        <time>2021-08-08T14:27:07Z</time>
      </trkpt>
      <trkpt lat="49.62228" lon="3.94731">
        <ele>116.46</ele>
        <time>2021-08-08T14:27:17Z</time>
      </trkpt>
      <trkpt lat="49.62197" lon="3.94726">
        <ele>116.46</ele>
        <time>2021-08-08T14:27:25Z</time>
      </trkpt>
      <trkpt lat="49.62193" lon="3.94725">
        <ele>115.5</ele>
        <time>2021-08-08T14:27:26Z</time>
      </trkpt>
      <trkpt lat="49.62189" lon="3.94724">
        <ele>115.01</ele>
        <time>2021-08-08T14:27:27Z</time>
      </trkpt>
      <trkpt lat="49.62149" lon="3.94719">
        <ele>114.53</ele>
        <time>2021-08-08T14:27:36Z</time>
      </trkpt>
      <trkpt lat="49.62099" lon="3.94713">
        <ele>113.57</ele>
        <time>2021-08-08T14:27:47Z</time>
      </trkpt>
      <trkpt lat="49.6205" lon="3.94706">
        <ele>113.57</ele>
        <time>2021-08-08T14:27:58Z</time>
      </trkpt>
      <trkpt lat="49.62029" lon="3.94703">
        <ele>113.09</ele>
        <time>2021-08-08T14:28:03Z</time>
      </trkpt>
      <trkpt lat="49.61993" lon="3.94698">
        <ele>113.09</ele>
        <time>2021-08-08T14:28:12Z</time>
      </trkpt>
      <trkpt lat="49.61988" lon="3.94698">
        <ele>113.09</ele>
        <time>2021-08-08T14:28:13Z</time>
      </trkpt>
      <trkpt lat="49.61971" lon="3.94697">
        <ele>113.09</ele>
        <time>2021-08-08T14:28:17Z</time>
      </trkpt>
      <trkpt lat="49.61967" lon="3.94696">
        <ele>113.09</ele>
        <time>2021-08-08T14:28:18Z</time>
      </trkpt>
      <trkpt lat="49.61963" lon="3.94696">
        <ele>114.53</ele>
        <time>2021-08-08T14:28:19Z</time>
      </trkpt>
      <trkpt lat="49.61958" lon="3.94695">
        <ele>114.53</ele>
        <time>2021-08-08T14:28:20Z</time>
      </trkpt>
      <trkpt lat="49.61954" lon="3.94693">
        <ele>114.53</ele>
        <time>2021-08-08T14:28:21Z</time>
      </trkpt>
      <trkpt lat="49.6195" lon="3.9469">
        <ele>114.53</ele>
        <time>2021-08-08T14:28:22Z</time>
      </trkpt>
      <trkpt lat="49.61947" lon="3.94688">
        <ele>114.53</ele>
        <time>2021-08-08T14:28:23Z</time>
      </trkpt>
      <trkpt lat="49.61944" lon="3.94687">
        <ele>114.53</ele>
        <time>2021-08-08T14:28:24Z</time>
      </trkpt>
      <trkpt lat="49.6194" lon="3.94687">
        <ele>114.53</ele>
        <time>2021-08-08T14:28:25Z</time>
      </trkpt>
      <trkpt lat="49.61936" lon="3.94687">
        <ele>114.53</ele>
        <time>2021-08-08T14:28:26Z</time>
      </trkpt>
      <trkpt lat="49.61932" lon="3.94687">
        <ele>114.53</ele>
        <time>2021-08-08T14:28:27Z</time>
      </trkpt>
      <trkpt lat="49.61928" lon="3.94686">
        <ele>114.53</ele>
        <time>2021-08-08T14:28:28Z</time>
      </trkpt>
      <trkpt lat="49.61906" lon="3.94681">
        <ele>115.01</ele>
        <time>2021-08-08T14:28:34Z</time>
      </trkpt>
      <trkpt lat="49.61878" lon="3.9468">
        <ele>115.5</ele>
        <time>2021-08-08T14:28:41Z</time>
      </trkpt>
      <trkpt lat="49.6184" lon="3.94681">
        <ele>116.46</ele>
        <time>2021-08-08T14:28:51Z</time>
      </trkpt>
      <trkpt lat="49.61813" lon="3.94678">
        <ele>116.94</ele>
        <time>2021-08-08T14:28:59Z</time>
      </trkpt>
      <trkpt lat="49.61788" lon="3.94673">
        <ele>118.38</ele>
        <time>2021-08-08T14:29:08Z</time>
      </trkpt>
      <trkpt lat="49.61781" lon="3.94676">
        <ele>119.34</ele>
        <time>2021-08-08T14:29:12Z</time>
      </trkpt>
      <trkpt lat="49.61765" lon="3.94687">
        <ele>119.82</ele>
        <time>2021-08-08T14:29:19Z</time>
      </trkpt>
      <trkpt lat="49.61739" lon="3.94691">
        <ele>120.3</ele>
        <time>2021-08-08T14:29:27Z</time>
      </trkpt>
      <trkpt lat="49.61708" lon="3.947">
        <ele>118.38</ele>
        <time>2021-08-08T14:29:34Z</time>
      </trkpt>
      <trkpt lat="49.61691" lon="3.94705">
        <ele>117.42</ele>
        <time>2021-08-08T14:29:37Z</time>
      </trkpt>
      <trkpt lat="49.61685" lon="3.94704">
        <ele>115.98</ele>
        <time>2021-08-08T14:29:38Z</time>
      </trkpt>
      <trkpt lat="49.6168" lon="3.94702">
        <ele>115.98</ele>
        <time>2021-08-08T14:29:39Z</time>
      </trkpt>
      <trkpt lat="49.61674" lon="3.94699">
        <ele>115.5</ele>
        <time>2021-08-08T14:29:40Z</time>
      </trkpt>
      <trkpt lat="49.61668" lon="3.94696">
        <ele>115.5</ele>
        <time>2021-08-08T14:29:41Z</time>
      </trkpt>
      <trkpt lat="49.61657" lon="3.94688">
        <ele>114.05</ele>
        <time>2021-08-08T14:29:43Z</time>
      </trkpt>
      <trkpt lat="49.61638" lon="3.94679">
        <ele>112.61</ele>
        <time>2021-08-08T14:29:46Z</time>
      </trkpt>
      <trkpt lat="49.61622" lon="3.94668">
        <ele>110.21</ele>
        <time>2021-08-08T14:29:50Z</time>
      </trkpt>
      <trkpt lat="49.61618" lon="3.94664">
        <ele>110.21</ele>
        <time>2021-08-08T14:29:51Z</time>
      </trkpt>
      <trkpt lat="49.61615" lon="3.94661">
        <ele>109.73</ele>
        <time>2021-08-08T14:29:52Z</time>
      </trkpt>
      <trkpt lat="49.61612" lon="3.9466">
        <ele>109.25</ele>
        <time>2021-08-08T14:29:53Z</time>
      </trkpt>
      <trkpt lat="49.61608" lon="3.94659">
        <ele>109.25</ele>
        <time>2021-08-08T14:29:54Z</time>
      </trkpt>
      <trkpt lat="49.61583" lon="3.94657">
        <ele>107.32</ele>
        <time>2021-08-08T14:29:59Z</time>
      </trkpt>
      <trkpt lat="49.61557" lon="3.94653">
        <ele>104.92</ele>
        <time>2021-08-08T14:30:03Z</time>
      </trkpt>
      <trkpt lat="49.61532" lon="3.9465">
        <ele>101.56</ele>
        <time>2021-08-08T14:30:06Z</time>
      </trkpt>
      <trkpt lat="49.61505" lon="3.94644">
        <ele>99.15</ele>
        <time>2021-08-08T14:30:09Z</time>
      </trkpt>
      <trkpt lat="49.61475" lon="3.94639">
        <ele>95.79</ele>
        <time>2021-08-08T14:30:12Z</time>
      </trkpt>
      <trkpt lat="49.61444" lon="3.94629">
        <ele>92.9</ele>
        <time>2021-08-08T14:30:16Z</time>
      </trkpt>
      <trkpt lat="49.61442" lon="3.94623">
        <ele>92.9</ele>
        <time>2021-08-08T14:30:17Z</time>
      </trkpt>
      <trkpt lat="49.61441" lon="3.94616">
        <ele>92.9</ele>
        <time>2021-08-08T14:30:18Z</time>
      </trkpt>
      <trkpt lat="49.61441" lon="3.94609">
        <ele>92.9</ele>
        <time>2021-08-08T14:30:19Z</time>
      </trkpt>
      <trkpt lat="49.61442" lon="3.94602">
        <ele>92.9</ele>
        <time>2021-08-08T14:30:20Z</time>
      </trkpt>
      <trkpt lat="49.61443" lon="3.94596">
        <ele>93.39</ele>
        <time>2021-08-08T14:30:21Z</time>
      </trkpt>
      <trkpt lat="49.6145" lon="3.9457">
        <ele>94.83</ele>
        <time>2021-08-08T14:30:26Z</time>
      </trkpt>
      <trkpt lat="49.61459" lon="3.94532">
        <ele>94.83</ele>
        <time>2021-08-08T14:30:34Z</time>
      </trkpt>
      <trkpt lat="49.61459" lon="3.94531">
        <ele>94.83</ele>
        <time>2021-08-08T14:30:39Z</time>
      </trkpt>
      <trkpt lat="49.61462" lon="3.94515">
        <ele>94.83</ele>
        <time>2021-08-08T14:30:44Z</time>
      </trkpt>
      <trkpt lat="49.61462" lon="3.94508">
        <ele>94.83</ele>
        <time>2021-08-08T14:30:46Z</time>
      </trkpt>
      <trkpt lat="49.61462" lon="3.94505">
        <ele>94.83</ele>
        <time>2021-08-08T14:30:47Z</time>
      </trkpt>
      <trkpt lat="49.6146" lon="3.94502">
        <ele>94.83</ele>
        <time>2021-08-08T14:30:48Z</time>
      </trkpt>
      <trkpt lat="49.61458" lon="3.945">
        <ele>94.83</ele>
        <time>2021-08-08T14:30:49Z</time>
      </trkpt>
      <trkpt lat="49.61455" lon="3.94497">
        <ele>92.9</ele>
        <time>2021-08-08T14:30:50Z</time>
      </trkpt>
      <trkpt lat="49.61452" lon="3.94494">
        <ele>92.42</ele>
        <time>2021-08-08T14:30:51Z</time>
      </trkpt>
      <trkpt lat="49.61448" lon="3.94492">
        <ele>90.98</ele>
        <time>2021-08-08T14:30:52Z</time>
      </trkpt>
      <trkpt lat="49.61444" lon="3.94488">
        <ele>90.5</ele>
        <time>2021-08-08T14:30:53Z</time>
      </trkpt>
      <trkpt lat="49.6144" lon="3.94484">
        <ele>90.5</ele>
        <time>2021-08-08T14:30:54Z</time>
      </trkpt>
      <trkpt lat="49.61405" lon="3.9445">
        <ele>88.1</ele>
        <time>2021-08-08T14:31:01Z</time>
      </trkpt>
      <trkpt lat="49.614" lon="3.94445">
        <ele>88.1</ele>
        <time>2021-08-08T14:31:02Z</time>
      </trkpt>
      <trkpt lat="49.61396" lon="3.94437">
        <ele>88.1</ele>
        <time>2021-08-08T14:31:03Z</time>
      </trkpt>
      <trkpt lat="49.61393" lon="3.9443">
        <ele>88.1</ele>
        <time>2021-08-08T14:31:04Z</time>
      </trkpt>
      <trkpt lat="49.6139" lon="3.94416">
        <ele>88.1</ele>
        <time>2021-08-08T14:31:06Z</time>
      </trkpt>
      <trkpt lat="49.61388" lon="3.94409">
        <ele>88.1</ele>
        <time>2021-08-08T14:31:07Z</time>
      </trkpt>
      <trkpt lat="49.61385" lon="3.94403">
        <ele>88.1</ele>
        <time>2021-08-08T14:31:08Z</time>
      </trkpt>
      <trkpt lat="49.61382" lon="3.94397">
        <ele>88.1</ele>
        <time>2021-08-08T14:31:09Z</time>
      </trkpt>
      <trkpt lat="49.61379" lon="3.94391">
        <ele>88.1</ele>
        <time>2021-08-08T14:31:10Z</time>
      </trkpt>
      <trkpt lat="49.61365" lon="3.9437">
        <ele>89.06</ele>
        <time>2021-08-08T14:31:15Z</time>
      </trkpt>
      <trkpt lat="49.61363" lon="3.9437">
        <ele>89.06</ele>
        <time>2021-08-08T14:31:16Z</time>
      </trkpt>
      <trkpt lat="49.61361" lon="3.94372">
        <ele>89.06</ele>
        <time>2021-08-08T14:31:17Z</time>
      </trkpt>
      <trkpt lat="49.61359" lon="3.94374">
        <ele>89.06</ele>
        <time>2021-08-08T14:31:18Z</time>
      </trkpt>
      <trkpt lat="49.61358" lon="3.94375">
        <ele>89.54</ele>
        <time>2021-08-08T14:31:19Z</time>
      </trkpt>
      <trkpt lat="49.61357" lon="3.94376">
        <ele>90.02</ele>
        <time>2021-08-08T14:31:20Z</time>
      </trkpt>
      <trkpt lat="49.61356" lon="3.94378">
        <ele>90.02</ele>
        <time>2021-08-08T14:31:26Z</time>
      </trkpt>
      <trkpt lat="49.61356" lon="3.9438">
        <ele>90.02</ele>
        <time>2021-08-08T14:31:33Z</time>
      </trkpt>
      <trkpt lat="49.61356" lon="3.94382">
        <ele>90.02</ele>
        <time>2021-08-08T14:31:34Z</time>
      </trkpt>
      <trkpt lat="49.61357" lon="3.94388">
        <ele>90.02</ele>
        <time>2021-08-08T14:31:42Z</time>
      </trkpt>
      <trkpt lat="49.61356" lon="3.94387">
        <ele>90.5</ele>
        <time>2021-08-08T14:31:58Z</time>
      </trkpt>
      <trkpt lat="49.61357" lon="3.94387">
        <ele>90.98</ele>
        <time>2021-08-08T14:32:09Z</time>
      </trkpt>
      <trkpt lat="49.61357" lon="3.94387">
        <ele>90.98</ele>
        <time>2021-08-08T14:32:24Z</time>
      </trkpt>
      <trkpt lat="49.61359" lon="3.94389">
        <ele>90.98</ele>
        <time>2021-08-08T14:32:29Z</time>
      </trkpt>
      <trkpt lat="49.61359" lon="3.94389">
        <ele>90.98</ele>
        <time>2021-08-08T14:32:37Z</time>
      </trkpt>
      <trkpt lat="49.61359" lon="3.9439">
        <ele>90.98</ele>
        <time>2021-08-08T14:32:50Z</time>
      </trkpt>
      <trkpt lat="49.61359" lon="3.94388">
        <ele>90.98</ele>
        <time>2021-08-08T14:33:17Z</time>
      </trkpt>
      <trkpt lat="49.61359" lon="3.9439">
        <ele>90.98</ele>
        <time>2021-08-08T14:33:50Z</time>
      </trkpt>
      <trkpt lat="49.61359" lon="3.9439">
        <ele>90.98</ele>
        <time>2021-08-08T14:34:13Z</time>
      </trkpt>
      <trkpt lat="49.6136" lon="3.94389">
        <ele>90.98</ele>
        <time>2021-08-08T14:34:33Z</time>
      </trkpt>
      <trkpt lat="49.6136" lon="3.94389">
        <ele>90.98</ele>
        <time>2021-08-08T14:34:51Z</time>
      </trkpt>
      <trkpt lat="49.6136" lon="3.94387">
        <ele>90.98</ele>
        <time>2021-08-08T14:35:10Z</time>
      </trkpt>
      <trkpt lat="49.61359" lon="3.94386">
        <ele>90.98</ele>
        <time>2021-08-08T14:35:29Z</time>
      </trkpt>
      <trkpt lat="49.61359" lon="3.94387">
        <ele>90.98</ele>
        <time>2021-08-08T14:35:47Z</time>
      </trkpt>
      <trkpt lat="49.61358" lon="3.94388">
        <ele>90.98</ele>
        <time>2021-08-08T14:36:02Z</time>
      </trkpt>
      <trkpt lat="49.61359" lon="3.94387">
        <ele>90.98</ele>
        <time>2021-08-08T14:36:05Z</time>
      </trkpt>
      <trkpt lat="49.6136" lon="3.94386">
        <ele>90.98</ele>
        <time>2021-08-08T14:36:11Z</time>
      </trkpt>
      <trkpt lat="49.6136" lon="3.94386">
        <ele>90.98</ele>
        <time>2021-08-08T14:36:23Z</time>
      </trkpt>
      <trkpt lat="49.6136" lon="3.94386">
        <ele>90.98</ele>
        <time>2021-08-08T14:36:39Z</time>
      </trkpt>
      <trkpt lat="49.6136" lon="3.94387">
        <ele>91.46</ele>
        <time>2021-08-08T14:36:59Z</time>
      </trkpt>
      <trkpt lat="49.6136" lon="3.94388">
        <ele>91.46</ele>
        <time>2021-08-08T14:37:14Z</time>
      </trkpt>
      <trkpt lat="49.6136" lon="3.94389">
        <ele>91.46</ele>
        <time>2021-08-08T14:37:30Z</time>
      </trkpt>
      <trkpt lat="49.6136" lon="3.94389">
        <ele>91.46</ele>
        <time>2021-08-08T14:37:45Z</time>
      </trkpt>
      <trkpt lat="49.61359" lon="3.94388">
        <ele>91.46</ele>
        <time>2021-08-08T14:38:03Z</time>
      </trkpt>
      <trkpt lat="49.61359" lon="3.94388">
        <ele>91.46</ele>
        <time>2021-08-08T14:38:18Z</time>
      </trkpt>
      <trkpt lat="49.61359" lon="3.94389">
        <ele>91.46</ele>
        <time>2021-08-08T14:38:32Z</time>
      </trkpt>
      <trkpt lat="49.61358" lon="3.94389">
        <ele>91.46</ele>
        <time>2021-08-08T14:38:43Z</time>
      </trkpt>
      <trkpt lat="49.61359" lon="3.9439">
        <ele>91.46</ele>
        <time>2021-08-08T14:39:01Z</time>
      </trkpt>
      <trkpt lat="49.61359" lon="3.94389">
        <ele>91.46</ele>
        <time>2021-08-08T14:39:18Z</time>
      </trkpt>
      <trkpt lat="49.61358" lon="3.9439">
        <ele>90.02</ele>
        <time>2021-08-08T14:39:32Z</time>
      </trkpt>
      <trkpt lat="49.61359" lon="3.94389">
        <ele>90.02</ele>
        <time>2021-08-08T14:39:53Z</time>
      </trkpt>
      <trkpt lat="49.6136" lon="3.94389">
        <ele>90.02</ele>
        <time>2021-08-08T14:40:15Z</time>
      </trkpt>
      <trkpt lat="49.6136" lon="3.94389">
        <ele>90.02</ele>
        <time>2021-08-08T14:40:31Z</time>
      </trkpt>
      <trkpt lat="49.6136" lon="3.94389">
        <ele>90.02</ele>
        <time>2021-08-08T14:40:51Z</time>
      </trkpt>
      <trkpt lat="49.6136" lon="3.94389">
        <ele>90.02</ele>
        <time>2021-08-08T14:41:06Z</time>
      </trkpt>
      <trkpt lat="49.61361" lon="3.9439">
        <ele>90.02</ele>
        <time>2021-08-08T14:41:13Z</time>
      </trkpt>
      <trkpt lat="49.6136" lon="3.94389">
        <ele>90.02</ele>
        <time>2021-08-08T14:41:32Z</time>
      </trkpt>
      <trkpt lat="49.61359" lon="3.94389">
        <ele>90.02</ele>
        <time>2021-08-08T14:41:49Z</time>
      </trkpt>
      <trkpt lat="49.61358" lon="3.94389">
        <ele>89.54</ele>
        <time>2021-08-08T14:42:04Z</time>
      </trkpt>
      <trkpt lat="49.61358" lon="3.94388">
        <ele>89.54</ele>
        <time>2021-08-08T14:42:21Z</time>
      </trkpt>
      <trkpt lat="49.61358" lon="3.94388">
        <ele>89.54</ele>
        <time>2021-08-08T14:42:35Z</time>
      </trkpt>
      <trkpt lat="49.61359" lon="3.94388">
        <ele>89.54</ele>
        <time>2021-08-08T14:42:54Z</time>
      </trkpt>
      <trkpt lat="49.61359" lon="3.94389">
        <ele>89.54</ele>
        <time>2021-08-08T14:43:11Z</time>
      </trkpt>
      <trkpt lat="49.6136" lon="3.94389">
        <ele>89.54</ele>
        <time>2021-08-08T14:43:27Z</time>
      </trkpt>
      <trkpt lat="49.61359" lon="3.94387">
        <ele>89.54</ele>
        <time>2021-08-08T14:43:44Z</time>
      </trkpt>
      <trkpt lat="49.61359" lon="3.94387">
        <ele>89.06</ele>
        <time>2021-08-08T14:43:59Z</time>
      </trkpt>
      <trkpt lat="49.61359" lon="3.94388">
        <ele>89.06</ele>
        <time>2021-08-08T14:44:24Z</time>
      </trkpt>
      <trkpt lat="49.6136" lon="3.94388">
        <ele>89.06</ele>
        <time>2021-08-08T14:44:39Z</time>
      </trkpt>
      <trkpt lat="49.6136" lon="3.94388">
        <ele>89.06</ele>
        <time>2021-08-08T14:44:58Z</time>
      </trkpt>
      <trkpt lat="49.6136" lon="3.94388">
        <ele>89.06</ele>
        <time>2021-08-08T14:45:15Z</time>
      </trkpt>
      <trkpt lat="49.6136" lon="3.94388">
        <ele>89.06</ele>
        <time>2021-08-08T14:45:32Z</time>
      </trkpt>
      <trkpt lat="49.6136" lon="3.94388">
        <ele>89.06</ele>
        <time>2021-08-08T14:45:50Z</time>
      </trkpt>
      <trkpt lat="49.6136" lon="3.94388">
        <ele>89.06</ele>
        <time>2021-08-08T14:46:07Z</time>
      </trkpt>
      <trkpt lat="49.61359" lon="3.94387">
        <ele>89.06</ele>
        <time>2021-08-08T14:46:26Z</time>
      </trkpt>
      <trkpt lat="49.61357" lon="3.94386">
        <ele>89.06</ele>
        <time>2021-08-08T14:46:37Z</time>
      </trkpt>
      <trkpt lat="49.61358" lon="3.94386">
        <ele>89.06</ele>
        <time>2021-08-08T14:46:47Z</time>
      </trkpt>
      <trkpt lat="49.61358" lon="3.94388">
        <ele>89.06</ele>
        <time>2021-08-08T14:47:11Z</time>
      </trkpt>
      <trkpt lat="49.61358" lon="3.94387">
        <ele>89.06</ele>
        <time>2021-08-08T14:47:31Z</time>
      </trkpt>
      <trkpt lat="49.61358" lon="3.94386">
        <ele>89.06</ele>
        <time>2021-08-08T14:47:48Z</time>
      </trkpt>
      <trkpt lat="49.61359" lon="3.94388">
        <ele>89.06</ele>
        <time>2021-08-08T14:48:07Z</time>
      </trkpt>
      <trkpt lat="49.61359" lon="3.94388">
        <ele>89.06</ele>
        <time>2021-08-08T14:48:27Z</time>
      </trkpt>
      <trkpt lat="49.61359" lon="3.94388">
        <ele>89.06</ele>
        <time>2021-08-08T14:48:44Z</time>
      </trkpt>
      <trkpt lat="49.61359" lon="3.94388">
        <ele>89.06</ele>
        <time>2021-08-08T14:49:01Z</time>
      </trkpt>
      <trkpt lat="49.61359" lon="3.94389">
        <ele>89.06</ele>
        <time>2021-08-08T14:49:20Z</time>
      </trkpt>
      <trkpt lat="49.61359" lon="3.94389">
        <ele>89.06</ele>
        <time>2021-08-08T14:49:40Z</time>
      </trkpt>
      <trkpt lat="49.61359" lon="3.94387">
        <ele>89.06</ele>
        <time>2021-08-08T14:50:01Z</time>
      </trkpt>
      <trkpt lat="49.61359" lon="3.94387">
        <ele>89.06</ele>
        <time>2021-08-08T14:50:17Z</time>
      </trkpt>
      <trkpt lat="49.6136" lon="3.94388">
        <ele>89.06</ele>
        <time>2021-08-08T14:50:34Z</time>
      </trkpt>
      <trkpt lat="49.6136" lon="3.94389">
        <ele>89.06</ele>
        <time>2021-08-08T14:50:51Z</time>
      </trkpt>
      <trkpt lat="49.61361" lon="3.94389">
        <ele>89.06</ele>
        <time>2021-08-08T14:51:07Z</time>
      </trkpt>
      <trkpt lat="49.6136" lon="3.94387">
        <ele>89.06</ele>
        <time>2021-08-08T14:51:32Z</time>
      </trkpt>
      <trkpt lat="49.61359" lon="3.94387">
        <ele>89.06</ele>
        <time>2021-08-08T14:51:55Z</time>
      </trkpt>
      <trkpt lat="49.61359" lon="3.94389">
        <ele>89.06</ele>
        <time>2021-08-08T14:52:19Z</time>
      </trkpt>
      <trkpt lat="49.6136" lon="3.94388">
        <ele>89.54</ele>
        <time>2021-08-08T14:52:43Z</time>
      </trkpt>
      <trkpt lat="49.6136" lon="3.94388">
        <ele>89.54</ele>
        <time>2021-08-08T14:53:00Z</time>
      </trkpt>
      <trkpt lat="49.6136" lon="3.94387">
        <ele>89.54</ele>
        <time>2021-08-08T14:53:18Z</time>
      </trkpt>
      <trkpt lat="49.6136" lon="3.94387">
        <ele>89.54</ele>
        <time>2021-08-08T14:53:41Z</time>
      </trkpt>
      <trkpt lat="49.61359" lon="3.94387">
        <ele>89.54</ele>
        <time>2021-08-08T14:53:57Z</time>
      </trkpt>
      <trkpt lat="49.61359" lon="3.94387">
        <ele>89.54</ele>
        <time>2021-08-08T14:54:16Z</time>
      </trkpt>
      <trkpt lat="49.61359" lon="3.94388">
        <ele>89.54</ele>
        <time>2021-08-08T14:54:29Z</time>
      </trkpt>
      <trkpt lat="49.61359" lon="3.94388">
        <ele>89.54</ele>
        <time>2021-08-08T14:54:47Z</time>
      </trkpt>
      <trkpt lat="49.6136" lon="3.94389">
        <ele>89.06</ele>
        <time>2021-08-08T14:55:13Z</time>
      </trkpt>
      <trkpt lat="49.6136" lon="3.94389">
        <ele>89.06</ele>
        <time>2021-08-08T14:55:25Z</time>
      </trkpt>
      <trkpt lat="49.6136" lon="3.9439">
        <ele>90.5</ele>
        <time>2021-08-08T14:55:39Z</time>
      </trkpt>
      <trkpt lat="49.61359" lon="3.94388">
        <ele>90.5</ele>
        <time>2021-08-08T14:55:53Z</time>
      </trkpt>
      <trkpt lat="49.61359" lon="3.94388">
        <ele>90.5</ele>
        <time>2021-08-08T14:56:11Z</time>
      </trkpt>
      <trkpt lat="49.61358" lon="3.94391">
        <ele>90.5</ele>
        <time>2021-08-08T14:56:27Z</time>
      </trkpt>
      <trkpt lat="49.61357" lon="3.94391">
        <ele>88.1</ele>
        <time>2021-08-08T14:56:29Z</time>
      </trkpt>
      <trkpt lat="49.61356" lon="3.94392">
        <ele>88.1</ele>
        <time>2021-08-08T14:56:38Z</time>
      </trkpt>
      <trkpt lat="49.61356" lon="3.94391">
        <ele>89.54</ele>
        <time>2021-08-08T14:56:40Z</time>
      </trkpt>
      <trkpt lat="49.61355" lon="3.94389">
        <ele>89.54</ele>
        <time>2021-08-08T14:56:46Z</time>
      </trkpt>
      <trkpt lat="49.61355" lon="3.94388">
        <ele>90.02</ele>
        <time>2021-08-08T14:56:53Z</time>
      </trkpt>
      <trkpt lat="49.61354" lon="3.9439">
        <ele>89.06</ele>
        <time>2021-08-08T14:57:03Z</time>
      </trkpt>
      <trkpt lat="49.61353" lon="3.94386">
        <ele>89.06</ele>
        <time>2021-08-08T14:57:05Z</time>
      </trkpt>
      <trkpt lat="49.61353" lon="3.94386">
        <ele>89.06</ele>
        <time>2021-08-08T14:57:09Z</time>
      </trkpt>
      <trkpt lat="49.61353" lon="3.94389">
        <ele>89.06</ele>
        <time>2021-08-08T14:57:21Z</time>
      </trkpt>
      <trkpt lat="49.61353" lon="3.94389">
        <ele>89.06</ele>
        <time>2021-08-08T14:57:34Z</time>
      </trkpt>
      <trkpt lat="49.61353" lon="3.94388">
        <ele>89.06</ele>
        <time>2021-08-08T14:57:47Z</time>
      </trkpt>
      <trkpt lat="49.61354" lon="3.94389">
        <ele>89.06</ele>
        <time>2021-08-08T14:58:01Z</time>
      </trkpt>
      <trkpt lat="49.61354" lon="3.94389">
        <ele>89.06</ele>
        <time>2021-08-08T14:58:09Z</time>
      </trkpt>
      <trkpt lat="49.61353" lon="3.9439">
        <ele>89.06</ele>
        <time>2021-08-08T14:58:15Z</time>
      </trkpt>
      <trkpt lat="49.61353" lon="3.94389">
        <ele>89.06</ele>
        <time>2021-08-08T14:58:22Z</time>
      </trkpt>
      <trkpt lat="49.61347" lon="3.9438">
        <ele>89.06</ele>
        <time>2021-08-08T14:58:28Z</time>
      </trkpt>
      <trkpt lat="49.6133" lon="3.94362">
        <ele>88.58</ele>
        <time>2021-08-08T14:58:35Z</time>
      </trkpt>
      <trkpt lat="49.61302" lon="3.9433">
        <ele>88.1</ele>
        <time>2021-08-08T14:58:44Z</time>
      </trkpt>
      <trkpt lat="49.61266" lon="3.94292">
        <ele>88.1</ele>
        <time>2021-08-08T14:58:55Z</time>
      </trkpt>
      <trkpt lat="49.61254" lon="3.94278">
        <ele>89.54</ele>
        <time>2021-08-08T14:58:59Z</time>
      </trkpt>
      <trkpt lat="49.61228" lon="3.94256">
        <ele>89.54</ele>
        <time>2021-08-08T14:59:07Z</time>
      </trkpt>
      <trkpt lat="49.61202" lon="3.94233">
        <ele>90.5</ele>
        <time>2021-08-08T14:59:16Z</time>
      </trkpt>
      <trkpt lat="49.61174" lon="3.94204">
        <ele>91.46</ele>
        <time>2021-08-08T14:59:27Z</time>
      </trkpt>
      <trkpt lat="49.61165" lon="3.94193">
        <ele>93.87</ele>
        <time>2021-08-08T14:59:32Z</time>
      </trkpt>
      <trkpt lat="49.61157" lon="3.94167">
        <ele>94.35</ele>
        <time>2021-08-08T14:59:40Z</time>
      </trkpt>
      <trkpt lat="49.61158" lon="3.94139">
        <ele>95.79</ele>
        <time>2021-08-08T14:59:47Z</time>
      </trkpt>
      <trkpt lat="49.61162" lon="3.94103">
        <ele>96.27</ele>
        <time>2021-08-08T14:59:56Z</time>
      </trkpt>
      <trkpt lat="49.61165" lon="3.94072">
        <ele>97.23</ele>
        <time>2021-08-08T15:00:06Z</time>
      </trkpt>
      <trkpt lat="49.61169" lon="3.94043">
        <ele>98.19</ele>
        <time>2021-08-08T15:00:15Z</time>
      </trkpt>
      <trkpt lat="49.61172" lon="3.94012">
        <ele>99.63</ele>
        <time>2021-08-08T15:00:24Z</time>
      </trkpt>
      <trkpt lat="49.61175" lon="3.93991">
        <ele>100.11</ele>
        <time>2021-08-08T15:00:30Z</time>
      </trkpt>
      <trkpt lat="49.6118" lon="3.93947">
        <ele>100.11</ele>
        <time>2021-08-08T15:00:39Z</time>
      </trkpt>
      <trkpt lat="49.61188" lon="3.93898">
        <ele>100.11</ele>
        <time>2021-08-08T15:00:49Z</time>
      </trkpt>
      <trkpt lat="49.61198" lon="3.93848">
        <ele>100.11</ele>
        <time>2021-08-08T15:00:59Z</time>
      </trkpt>
      <trkpt lat="49.61211" lon="3.93791">
        <ele>100.11</ele>
        <time>2021-08-08T15:01:10Z</time>
      </trkpt>
      <trkpt lat="49.61224" lon="3.93735">
        <ele>100.6</ele>
        <time>2021-08-08T15:01:21Z</time>
      </trkpt>
      <trkpt lat="49.61233" lon="3.93695">
        <ele>101.56</ele>
        <time>2021-08-08T15:01:29Z</time>
      </trkpt>
      <trkpt lat="49.61242" lon="3.93652">
        <ele>101.56</ele>
        <time>2021-08-08T15:01:38Z</time>
      </trkpt>
      <trkpt lat="49.61248" lon="3.93612">
        <ele>103</ele>
        <time>2021-08-08T15:01:47Z</time>
      </trkpt>
      <trkpt lat="49.61254" lon="3.93564">
        <ele>103.96</ele>
        <time>2021-08-08T15:01:58Z</time>
      </trkpt>
      <trkpt lat="49.61258" lon="3.93527">
        <ele>104.92</ele>
        <time>2021-08-08T15:02:06Z</time>
      </trkpt>
      <trkpt lat="49.61263" lon="3.93475">
        <ele>105.88</ele>
        <time>2021-08-08T15:02:17Z</time>
      </trkpt>
      <trkpt lat="49.61269" lon="3.93423">
        <ele>106.36</ele>
        <time>2021-08-08T15:02:28Z</time>
      </trkpt>
      <trkpt lat="49.61273" lon="3.93381">
        <ele>106.84</ele>
        <time>2021-08-08T15:02:37Z</time>
      </trkpt>
      <trkpt lat="49.61278" lon="3.93327">
        <ele>107.32</ele>
        <time>2021-08-08T15:02:48Z</time>
      </trkpt>
      <trkpt lat="49.61281" lon="3.9329">
        <ele>107.32</ele>
        <time>2021-08-08T15:02:56Z</time>
      </trkpt>
      <trkpt lat="49.61283" lon="3.93255">
        <ele>107.32</ele>
        <time>2021-08-08T15:03:03Z</time>
      </trkpt>
      <trkpt lat="49.61282" lon="3.93207">
        <ele>106.36</ele>
        <time>2021-08-08T15:03:11Z</time>
      </trkpt>
      <trkpt lat="49.61282" lon="3.932">
        <ele>106.36</ele>
        <time>2021-08-08T15:03:12Z</time>
      </trkpt>
      <trkpt lat="49.61278" lon="3.93131">
        <ele>103.48</ele>
        <time>2021-08-08T15:03:21Z</time>
      </trkpt>
      <trkpt lat="49.61276" lon="3.93112">
        <ele>102.04</ele>
        <time>2021-08-08T15:03:23Z</time>
      </trkpt>
      <trkpt lat="49.61272" lon="3.93058">
        <ele>99.15</ele>
        <time>2021-08-08T15:03:28Z</time>
      </trkpt>
      <trkpt lat="49.61272" lon="3.93046">
        <ele>99.15</ele>
        <time>2021-08-08T15:03:29Z</time>
      </trkpt>
      <trkpt lat="49.61274" lon="3.9301">
        <ele>96.75</ele>
        <time>2021-08-08T15:03:32Z</time>
      </trkpt>
      <trkpt lat="49.61276" lon="3.92999">
        <ele>97.23</ele>
        <time>2021-08-08T15:03:33Z</time>
      </trkpt>
      <trkpt lat="49.61281" lon="3.92977">
        <ele>96.27</ele>
        <time>2021-08-08T15:03:35Z</time>
      </trkpt>
      <trkpt lat="49.61284" lon="3.92969">
        <ele>96.75</ele>
        <time>2021-08-08T15:03:36Z</time>
      </trkpt>
      <trkpt lat="49.61316" lon="3.92896">
        <ele>95.79</ele>
        <time>2021-08-08T15:03:45Z</time>
      </trkpt>
      <trkpt lat="49.61341" lon="3.92834">
        <ele>94.35</ele>
        <time>2021-08-08T15:03:53Z</time>
      </trkpt>
      <trkpt lat="49.61343" lon="3.92826">
        <ele>94.35</ele>
        <time>2021-08-08T15:03:54Z</time>
      </trkpt>
      <trkpt lat="49.61353" lon="3.92786">
        <ele>93.87</ele>
        <time>2021-08-08T15:03:59Z</time>
      </trkpt>
      <trkpt lat="49.61355" lon="3.92779">
        <ele>93.87</ele>
        <time>2021-08-08T15:04:00Z</time>
      </trkpt>
      <trkpt lat="49.61358" lon="3.92749">
        <ele>93.87</ele>
        <time>2021-08-08T15:04:04Z</time>
      </trkpt>
      <trkpt lat="49.61361" lon="3.92728">
        <ele>93.39</ele>
        <time>2021-08-08T15:04:07Z</time>
      </trkpt>
      <trkpt lat="49.61366" lon="3.92713">
        <ele>92.9</ele>
        <time>2021-08-08T15:04:09Z</time>
      </trkpt>
      <trkpt lat="49.61368" lon="3.92705">
        <ele>92.42</ele>
        <time>2021-08-08T15:04:10Z</time>
      </trkpt>
      <trkpt lat="49.61387" lon="3.92647">
        <ele>90.5</ele>
        <time>2021-08-08T15:04:17Z</time>
      </trkpt>
      <trkpt lat="49.61406" lon="3.9259">
        <ele>90.5</ele>
        <time>2021-08-08T15:04:25Z</time>
      </trkpt>
      <trkpt lat="49.61429" lon="3.92522">
        <ele>90.5</ele>
        <time>2021-08-08T15:04:36Z</time>
      </trkpt>
      <trkpt lat="49.6144" lon="3.92491">
        <ele>92.9</ele>
        <time>2021-08-08T15:04:43Z</time>
      </trkpt>
      <trkpt lat="49.61448" lon="3.92471">
        <ele>94.35</ele>
        <time>2021-08-08T15:04:50Z</time>
      </trkpt>
      <trkpt lat="49.61455" lon="3.92454">
        <ele>95.31</ele>
        <time>2021-08-08T15:04:57Z</time>
      </trkpt>
      <trkpt lat="49.61465" lon="3.92426">
        <ele>96.27</ele>
        <time>2021-08-08T15:05:06Z</time>
      </trkpt>
      <trkpt lat="49.61477" lon="3.92392">
        <ele>97.71</ele>
        <time>2021-08-08T15:05:16Z</time>
      </trkpt>
      <trkpt lat="49.61488" lon="3.92359">
        <ele>98.19</ele>
        <time>2021-08-08T15:05:25Z</time>
      </trkpt>
      <trkpt lat="49.61501" lon="3.92324">
        <ele>98.67</ele>
        <time>2021-08-08T15:05:34Z</time>
      </trkpt>
      <trkpt lat="49.61516" lon="3.92281">
        <ele>99.15</ele>
        <time>2021-08-08T15:05:43Z</time>
      </trkpt>
      <trkpt lat="49.6153" lon="3.92234">
        <ele>98.19</ele>
        <time>2021-08-08T15:05:51Z</time>
      </trkpt>
      <trkpt lat="49.61548" lon="3.92175">
        <ele>97.23</ele>
        <time>2021-08-08T15:05:59Z</time>
      </trkpt>
      <trkpt lat="49.61551" lon="3.92167">
        <ele>96.27</ele>
        <time>2021-08-08T15:06:00Z</time>
      </trkpt>
      <trkpt lat="49.61554" lon="3.9216">
        <ele>96.27</ele>
        <time>2021-08-08T15:06:01Z</time>
      </trkpt>
      <trkpt lat="49.61557" lon="3.92151">
        <ele>95.31</ele>
        <time>2021-08-08T15:06:02Z</time>
      </trkpt>
      <trkpt lat="49.61559" lon="3.92142">
        <ele>95.79</ele>
        <time>2021-08-08T15:06:03Z</time>
      </trkpt>
      <trkpt lat="49.61561" lon="3.92133">
        <ele>95.79</ele>
        <time>2021-08-08T15:06:04Z</time>
      </trkpt>
      <trkpt lat="49.61563" lon="3.92124">
        <ele>95.79</ele>
        <time>2021-08-08T15:06:05Z</time>
      </trkpt>
      <trkpt lat="49.61585" lon="3.92046">
        <ele>94.83</ele>
        <time>2021-08-08T15:06:14Z</time>
      </trkpt>
      <trkpt lat="49.616" lon="3.91996">
        <ele>94.83</ele>
        <time>2021-08-08T15:06:21Z</time>
      </trkpt>
      <trkpt lat="49.61613" lon="3.91956">
        <ele>96.75</ele>
        <time>2021-08-08T15:06:28Z</time>
      </trkpt>
      <trkpt lat="49.61627" lon="3.91913">
        <ele>98.19</ele>
        <time>2021-08-08T15:06:37Z</time>
      </trkpt>
      <trkpt lat="49.61638" lon="3.91875">
        <ele>98.19</ele>
        <time>2021-08-08T15:06:44Z</time>
      </trkpt>
      <trkpt lat="49.6164" lon="3.91869">
        <ele>98.19</ele>
        <time>2021-08-08T15:06:45Z</time>
      </trkpt>
      <trkpt lat="49.61648" lon="3.91834">
        <ele>98.67</ele>
        <time>2021-08-08T15:06:51Z</time>
      </trkpt>
      <trkpt lat="49.61649" lon="3.91828">
        <ele>98.67</ele>
        <time>2021-08-08T15:06:52Z</time>
      </trkpt>
      <trkpt lat="49.61651" lon="3.91821">
        <ele>98.67</ele>
        <time>2021-08-08T15:06:53Z</time>
      </trkpt>
      <trkpt lat="49.61652" lon="3.91814">
        <ele>98.67</ele>
        <time>2021-08-08T15:06:54Z</time>
      </trkpt>
      <trkpt lat="49.61653" lon="3.91807">
        <ele>98.67</ele>
        <time>2021-08-08T15:06:55Z</time>
      </trkpt>
      <trkpt lat="49.61654" lon="3.91801">
        <ele>98.67</ele>
        <time>2021-08-08T15:06:56Z</time>
      </trkpt>
      <trkpt lat="49.61657" lon="3.91778">
        <ele>98.67</ele>
        <time>2021-08-08T15:07:00Z</time>
      </trkpt>
      <trkpt lat="49.61657" lon="3.91772">
        <ele>98.67</ele>
        <time>2021-08-08T15:07:01Z</time>
      </trkpt>
      <trkpt lat="49.6166" lon="3.91738">
        <ele>97.23</ele>
        <time>2021-08-08T15:07:07Z</time>
      </trkpt>
      <trkpt lat="49.61666" lon="3.91676">
        <ele>95.31</ele>
        <time>2021-08-08T15:07:16Z</time>
      </trkpt>
      <trkpt lat="49.6167" lon="3.91612">
        <ele>91.94</ele>
        <time>2021-08-08T15:07:23Z</time>
      </trkpt>
      <trkpt lat="49.61677" lon="3.91528">
        <ele>88.58</ele>
        <time>2021-08-08T15:07:31Z</time>
      </trkpt>
      <trkpt lat="49.6168" lon="3.91507">
        <ele>88.1</ele>
        <time>2021-08-08T15:07:33Z</time>
      </trkpt>
      <trkpt lat="49.61688" lon="3.91415">
        <ele>85.21</ele>
        <time>2021-08-08T15:07:42Z</time>
      </trkpt>
      <trkpt lat="49.61694" lon="3.91316">
        <ele>82.81</ele>
        <time>2021-08-08T15:07:52Z</time>
      </trkpt>
      <trkpt lat="49.61693" lon="3.91305">
        <ele>82.81</ele>
        <time>2021-08-08T15:07:53Z</time>
      </trkpt>
      <trkpt lat="49.61687" lon="3.91235">
        <ele>82.33</ele>
        <time>2021-08-08T15:08:01Z</time>
      </trkpt>
      <trkpt lat="49.6168" lon="3.91153">
        <ele>83.77</ele>
        <time>2021-08-08T15:08:11Z</time>
      </trkpt>
      <trkpt lat="49.61681" lon="3.91146">
        <ele>83.77</ele>
        <time>2021-08-08T15:08:12Z</time>
      </trkpt>
      <trkpt lat="49.61684" lon="3.9114">
        <ele>84.25</ele>
        <time>2021-08-08T15:08:13Z</time>
      </trkpt>
      <trkpt lat="49.61686" lon="3.91137">
        <ele>85.21</ele>
        <time>2021-08-08T15:08:14Z</time>
      </trkpt>
      <trkpt lat="49.6169" lon="3.91135">
        <ele>85.21</ele>
        <time>2021-08-08T15:08:15Z</time>
      </trkpt>
      <trkpt lat="49.61694" lon="3.91133">
        <ele>85.21</ele>
        <time>2021-08-08T15:08:16Z</time>
      </trkpt>
      <trkpt lat="49.61698" lon="3.91131">
        <ele>85.21</ele>
        <time>2021-08-08T15:08:17Z</time>
      </trkpt>
      <trkpt lat="49.61701" lon="3.91127">
        <ele>85.21</ele>
        <time>2021-08-08T15:08:18Z</time>
      </trkpt>
      <trkpt lat="49.61704" lon="3.91121">
        <ele>85.21</ele>
        <time>2021-08-08T15:08:19Z</time>
      </trkpt>
      <trkpt lat="49.61706" lon="3.91114">
        <ele>83.77</ele>
        <time>2021-08-08T15:08:20Z</time>
      </trkpt>
      <trkpt lat="49.61707" lon="3.91106">
        <ele>83.77</ele>
        <time>2021-08-08T15:08:21Z</time>
      </trkpt>
      <trkpt lat="49.61706" lon="3.91099">
        <ele>83.29</ele>
        <time>2021-08-08T15:08:22Z</time>
      </trkpt>
      <trkpt lat="49.61704" lon="3.91093">
        <ele>83.29</ele>
        <time>2021-08-08T15:08:23Z</time>
      </trkpt>
      <trkpt lat="49.61702" lon="3.91087">
        <ele>83.29</ele>
        <time>2021-08-08T15:08:24Z</time>
      </trkpt>
      <trkpt lat="49.61699" lon="3.91081">
        <ele>83.29</ele>
        <time>2021-08-08T15:08:25Z</time>
      </trkpt>
      <trkpt lat="49.61697" lon="3.91075">
        <ele>83.29</ele>
        <time>2021-08-08T15:08:26Z</time>
      </trkpt>
      <trkpt lat="49.61694" lon="3.91069">
        <ele>83.29</ele>
        <time>2021-08-08T15:08:27Z</time>
      </trkpt>
      <trkpt lat="49.61662" lon="3.91019">
        <ele>83.77</ele>
        <time>2021-08-08T15:08:37Z</time>
      </trkpt>
      <trkpt lat="49.61651" lon="3.91005">
        <ele>83.77</ele>
        <time>2021-08-08T15:08:40Z</time>
      </trkpt>
      <trkpt lat="49.61636" lon="3.90991">
        <ele>83.77</ele>
        <time>2021-08-08T15:08:44Z</time>
      </trkpt>
      <trkpt lat="49.61627" lon="3.90986">
        <ele>81.85</ele>
        <time>2021-08-08T15:08:46Z</time>
      </trkpt>
      <trkpt lat="49.61618" lon="3.9098">
        <ele>82.81</ele>
        <time>2021-08-08T15:08:48Z</time>
      </trkpt>
      <trkpt lat="49.61598" lon="3.90963">
        <ele>83.29</ele>
        <time>2021-08-08T15:08:53Z</time>
      </trkpt>
      <trkpt lat="49.61595" lon="3.90959">
        <ele>83.29</ele>
        <time>2021-08-08T15:08:54Z</time>
      </trkpt>
      <trkpt lat="49.61591" lon="3.90953">
        <ele>83.29</ele>
        <time>2021-08-08T15:08:55Z</time>
      </trkpt>
      <trkpt lat="49.61588" lon="3.90948">
        <ele>83.29</ele>
        <time>2021-08-08T15:08:56Z</time>
      </trkpt>
      <trkpt lat="49.61586" lon="3.90942">
        <ele>83.29</ele>
        <time>2021-08-08T15:08:57Z</time>
      </trkpt>
      <trkpt lat="49.61583" lon="3.90936">
        <ele>83.29</ele>
        <time>2021-08-08T15:08:58Z</time>
      </trkpt>
      <trkpt lat="49.61578" lon="3.90916">
        <ele>83.29</ele>
        <time>2021-08-08T15:09:01Z</time>
      </trkpt>
      <trkpt lat="49.61573" lon="3.90849">
        <ele>83.29</ele>
        <time>2021-08-08T15:09:10Z</time>
      </trkpt>
      <trkpt lat="49.61569" lon="3.90767">
        <ele>83.29</ele>
        <time>2021-08-08T15:09:21Z</time>
      </trkpt>
      <trkpt lat="49.61563" lon="3.90693">
        <ele>83.29</ele>
        <time>2021-08-08T15:09:31Z</time>
      </trkpt>
      <trkpt lat="49.61562" lon="3.90654">
        <ele>83.29</ele>
        <time>2021-08-08T15:09:36Z</time>
      </trkpt>
      <trkpt lat="49.61563" lon="3.90647">
        <ele>83.29</ele>
        <time>2021-08-08T15:09:37Z</time>
      </trkpt>
      <trkpt lat="49.61564" lon="3.90639">
        <ele>83.29</ele>
        <time>2021-08-08T15:09:38Z</time>
      </trkpt>
      <trkpt lat="49.61566" lon="3.90632">
        <ele>83.29</ele>
        <time>2021-08-08T15:09:39Z</time>
      </trkpt>
      <trkpt lat="49.61568" lon="3.90624">
        <ele>83.29</ele>
        <time>2021-08-08T15:09:40Z</time>
      </trkpt>
      <trkpt lat="49.6157" lon="3.90618">
        <ele>83.29</ele>
        <time>2021-08-08T15:09:41Z</time>
      </trkpt>
      <trkpt lat="49.61573" lon="3.90612">
        <ele>83.29</ele>
        <time>2021-08-08T15:09:42Z</time>
      </trkpt>
      <trkpt lat="49.61577" lon="3.90607">
        <ele>83.29</ele>
        <time>2021-08-08T15:09:43Z</time>
      </trkpt>
      <trkpt lat="49.6158" lon="3.90602">
        <ele>83.29</ele>
        <time>2021-08-08T15:09:44Z</time>
      </trkpt>
      <trkpt lat="49.61592" lon="3.90588">
        <ele>83.29</ele>
        <time>2021-08-08T15:09:47Z</time>
      </trkpt>
      <trkpt lat="49.61633" lon="3.90554">
        <ele>83.29</ele>
        <time>2021-08-08T15:09:57Z</time>
      </trkpt>
      <trkpt lat="49.61645" lon="3.90544">
        <ele>83.29</ele>
        <time>2021-08-08T15:10:00Z</time>
      </trkpt>
      <trkpt lat="49.61649" lon="3.9054">
        <ele>83.29</ele>
        <time>2021-08-08T15:10:01Z</time>
      </trkpt>
      <trkpt lat="49.61653" lon="3.90537">
        <ele>83.29</ele>
        <time>2021-08-08T15:10:02Z</time>
      </trkpt>
      <trkpt lat="49.61661" lon="3.9053">
        <ele>83.29</ele>
        <time>2021-08-08T15:10:04Z</time>
      </trkpt>
      <trkpt lat="49.61665" lon="3.90527">
        <ele>83.29</ele>
        <time>2021-08-08T15:10:05Z</time>
      </trkpt>
      <trkpt lat="49.61705" lon="3.90488">
        <ele>83.29</ele>
        <time>2021-08-08T15:10:15Z</time>
      </trkpt>
      <trkpt lat="49.61712" lon="3.9048">
        <ele>83.29</ele>
        <time>2021-08-08T15:10:17Z</time>
      </trkpt>
      <trkpt lat="49.61715" lon="3.90475">
        <ele>83.29</ele>
        <time>2021-08-08T15:10:18Z</time>
      </trkpt>
      <trkpt lat="49.61741" lon="3.90435">
        <ele>83.29</ele>
        <time>2021-08-08T15:10:27Z</time>
      </trkpt>
      <trkpt lat="49.61744" lon="3.90418">
        <ele>83.29</ele>
        <time>2021-08-08T15:10:30Z</time>
      </trkpt>
      <trkpt lat="49.61742" lon="3.90366">
        <ele>83.29</ele>
        <time>2021-08-08T15:10:39Z</time>
      </trkpt>
      <trkpt lat="49.61731" lon="3.90329">
        <ele>83.29</ele>
        <time>2021-08-08T15:10:46Z</time>
      </trkpt>
      <trkpt lat="49.61706" lon="3.90269">
        <ele>83.29</ele>
        <time>2021-08-08T15:10:57Z</time>
      </trkpt>
      <trkpt lat="49.61697" lon="3.90246">
        <ele>81.85</ele>
        <time>2021-08-08T15:11:01Z</time>
      </trkpt>
      <trkpt lat="49.61695" lon="3.90241">
        <ele>81.85</ele>
        <time>2021-08-08T15:11:02Z</time>
      </trkpt>
      <trkpt lat="49.61693" lon="3.90236">
        <ele>81.85</ele>
        <time>2021-08-08T15:11:03Z</time>
      </trkpt>
      <trkpt lat="49.61691" lon="3.9023">
        <ele>81.85</ele>
        <time>2021-08-08T15:11:04Z</time>
      </trkpt>
      <trkpt lat="49.61688" lon="3.90225">
        <ele>81.85</ele>
        <time>2021-08-08T15:11:05Z</time>
      </trkpt>
      <trkpt lat="49.61669" lon="3.90174">
        <ele>81.85</ele>
        <time>2021-08-08T15:11:14Z</time>
      </trkpt>
      <trkpt lat="49.61646" lon="3.90111">
        <ele>81.85</ele>
        <time>2021-08-08T15:11:24Z</time>
      </trkpt>
      <trkpt lat="49.61623" lon="3.90047">
        <ele>81.85</ele>
        <time>2021-08-08T15:11:34Z</time>
      </trkpt>
      <trkpt lat="49.61601" lon="3.89997">
        <ele>81.85</ele>
        <time>2021-08-08T15:11:43Z</time>
      </trkpt>
      <trkpt lat="49.61577" lon="3.89955">
        <ele>84.73</ele>
        <time>2021-08-08T15:11:53Z</time>
      </trkpt>
      <trkpt lat="49.61568" lon="3.8994">
        <ele>85.21</ele>
        <time>2021-08-08T15:11:58Z</time>
      </trkpt>
      <trkpt lat="49.61566" lon="3.89939">
        <ele>85.69</ele>
        <time>2021-08-08T15:11:59Z</time>
      </trkpt>
      <trkpt lat="49.61565" lon="3.89936">
        <ele>85.69</ele>
        <time>2021-08-08T15:12:00Z</time>
      </trkpt>
      <trkpt lat="49.6155" lon="3.89904">
        <ele>87.14</ele>
        <time>2021-08-08T15:12:09Z</time>
      </trkpt>
      <trkpt lat="49.61531" lon="3.8987">
        <ele>88.58</ele>
        <time>2021-08-08T15:12:20Z</time>
      </trkpt>
      <trkpt lat="49.61517" lon="3.8984">
        <ele>89.54</ele>
        <time>2021-08-08T15:12:29Z</time>
      </trkpt>
      <trkpt lat="49.61496" lon="3.898">
        <ele>90.5</ele>
        <time>2021-08-08T15:12:41Z</time>
      </trkpt>
      <trkpt lat="49.61478" lon="3.89766">
        <ele>90.98</ele>
        <time>2021-08-08T15:12:51Z</time>
      </trkpt>
      <trkpt lat="49.6146" lon="3.89731">
        <ele>91.46</ele>
        <time>2021-08-08T15:13:01Z</time>
      </trkpt>
      <trkpt lat="49.61438" lon="3.89692">
        <ele>92.42</ele>
        <time>2021-08-08T15:13:12Z</time>
      </trkpt>
      <trkpt lat="49.61427" lon="3.89667">
        <ele>92.42</ele>
        <time>2021-08-08T15:13:18Z</time>
      </trkpt>
      <trkpt lat="49.6141" lon="3.89631">
        <ele>91.46</ele>
        <time>2021-08-08T15:13:25Z</time>
      </trkpt>
      <trkpt lat="49.61395" lon="3.896">
        <ele>90.98</ele>
        <time>2021-08-08T15:13:31Z</time>
      </trkpt>
      <trkpt lat="49.61392" lon="3.89595">
        <ele>90.98</ele>
        <time>2021-08-08T15:13:32Z</time>
      </trkpt>
      <trkpt lat="49.61379" lon="3.89572">
        <ele>90.5</ele>
        <time>2021-08-08T15:13:36Z</time>
      </trkpt>
      <trkpt lat="49.61363" lon="3.89529">
        <ele>91.46</ele>
        <time>2021-08-08T15:13:43Z</time>
      </trkpt>
      <trkpt lat="49.61346" lon="3.89498">
        <ele>92.42</ele>
        <time>2021-08-08T15:13:49Z</time>
      </trkpt>
      <trkpt lat="49.6133" lon="3.89469">
        <ele>93.39</ele>
        <time>2021-08-08T15:13:55Z</time>
      </trkpt>
      <trkpt lat="49.61306" lon="3.89427">
        <ele>95.31</ele>
        <time>2021-08-08T15:14:04Z</time>
      </trkpt>
      <trkpt lat="49.61279" lon="3.89377">
        <ele>96.75</ele>
        <time>2021-08-08T15:14:12Z</time>
      </trkpt>
      <trkpt lat="49.61263" lon="3.89344">
        <ele>97.23</ele>
        <time>2021-08-08T15:14:19Z</time>
      </trkpt>
      <trkpt lat="49.61263" lon="3.89316">
        <ele>97.71</ele>
        <time>2021-08-08T15:14:25Z</time>
      </trkpt>
      <trkpt lat="49.61269" lon="3.89281">
        <ele>97.71</ele>
        <time>2021-08-08T15:14:31Z</time>
      </trkpt>
      <trkpt lat="49.61287" lon="3.89215">
        <ele>95.31</ele>
        <time>2021-08-08T15:14:40Z</time>
      </trkpt>
      <trkpt lat="49.61297" lon="3.89179">
        <ele>93.87</ele>
        <time>2021-08-08T15:14:44Z</time>
      </trkpt>
      <trkpt lat="49.61299" lon="3.89168">
        <ele>93.39</ele>
        <time>2021-08-08T15:14:45Z</time>
      </trkpt>
      <trkpt lat="49.61301" lon="3.89149">
        <ele>93.39</ele>
        <time>2021-08-08T15:14:47Z</time>
      </trkpt>
      <trkpt lat="49.61307" lon="3.89118">
        <ele>93.39</ele>
        <time>2021-08-08T15:14:50Z</time>
      </trkpt>
      <trkpt lat="49.61327" lon="3.89037">
        <ele>93.87</ele>
        <time>2021-08-08T15:14:58Z</time>
      </trkpt>
      <trkpt lat="49.61347" lon="3.88967">
        <ele>93.87</ele>
        <time>2021-08-08T15:15:06Z</time>
      </trkpt>
      <trkpt lat="49.61359" lon="3.88909">
        <ele>95.31</ele>
        <time>2021-08-08T15:15:14Z</time>
      </trkpt>
      <trkpt lat="49.61361" lon="3.88894">
        <ele>93.87</ele>
        <time>2021-08-08T15:15:16Z</time>
      </trkpt>
      <trkpt lat="49.61363" lon="3.88886">
        <ele>93.87</ele>
        <time>2021-08-08T15:15:17Z</time>
      </trkpt>
      <trkpt lat="49.61371" lon="3.88849">
        <ele>93.87</ele>
        <time>2021-08-08T15:15:22Z</time>
      </trkpt>
      <trkpt lat="49.61388" lon="3.88781">
        <ele>93.39</ele>
        <time>2021-08-08T15:15:31Z</time>
      </trkpt>
      <trkpt lat="49.61404" lon="3.8871">
        <ele>90.5</ele>
        <time>2021-08-08T15:15:40Z</time>
      </trkpt>
      <trkpt lat="49.61406" lon="3.88701">
        <ele>90.5</ele>
        <time>2021-08-08T15:15:41Z</time>
      </trkpt>
      <trkpt lat="49.61416" lon="3.8866">
        <ele>89.54</ele>
        <time>2021-08-08T15:15:46Z</time>
      </trkpt>
      <trkpt lat="49.61428" lon="3.88599">
        <ele>89.54</ele>
        <time>2021-08-08T15:15:54Z</time>
      </trkpt>
      <trkpt lat="49.61445" lon="3.88531">
        <ele>88.1</ele>
        <time>2021-08-08T15:16:02Z</time>
      </trkpt>
      <trkpt lat="49.61461" lon="3.88456">
        <ele>89.06</ele>
        <time>2021-08-08T15:16:11Z</time>
      </trkpt>
      <trkpt lat="49.61476" lon="3.8838">
        <ele>87.62</ele>
        <time>2021-08-08T15:16:21Z</time>
      </trkpt>
      <trkpt lat="49.61486" lon="3.88328">
        <ele>88.58</ele>
        <time>2021-08-08T15:16:29Z</time>
      </trkpt>
      <trkpt lat="49.61487" lon="3.88322">
        <ele>88.58</ele>
        <time>2021-08-08T15:16:30Z</time>
      </trkpt>
      <trkpt lat="49.61489" lon="3.88316">
        <ele>88.58</ele>
        <time>2021-08-08T15:16:31Z</time>
      </trkpt>
      <trkpt lat="49.6149" lon="3.88311">
        <ele>88.58</ele>
        <time>2021-08-08T15:16:32Z</time>
      </trkpt>
      <trkpt lat="49.61491" lon="3.88305">
        <ele>88.58</ele>
        <time>2021-08-08T15:16:33Z</time>
      </trkpt>
      <trkpt lat="49.61491" lon="3.883">
        <ele>89.54</ele>
        <time>2021-08-08T15:16:34Z</time>
      </trkpt>
      <trkpt lat="49.61491" lon="3.88295">
        <ele>89.54</ele>
        <time>2021-08-08T15:16:35Z</time>
      </trkpt>
      <trkpt lat="49.6149" lon="3.88291">
        <ele>89.54</ele>
        <time>2021-08-08T15:16:36Z</time>
      </trkpt>
      <trkpt lat="49.61488" lon="3.88287">
        <ele>89.54</ele>
        <time>2021-08-08T15:16:37Z</time>
      </trkpt>
      <trkpt lat="49.61486" lon="3.88284">
        <ele>89.54</ele>
        <time>2021-08-08T15:16:38Z</time>
      </trkpt>
      <trkpt lat="49.61484" lon="3.8828">
        <ele>90.02</ele>
        <time>2021-08-08T15:16:39Z</time>
      </trkpt>
      <trkpt lat="49.61474" lon="3.8825">
        <ele>90.5</ele>
        <time>2021-08-08T15:16:46Z</time>
      </trkpt>
      <trkpt lat="49.61475" lon="3.88215">
        <ele>90.98</ele>
        <time>2021-08-08T15:16:53Z</time>
      </trkpt>
      <trkpt lat="49.61478" lon="3.88175">
        <ele>90.98</ele>
        <time>2021-08-08T15:17:00Z</time>
      </trkpt>
      <trkpt lat="49.61462" lon="3.88132">
        <ele>90.98</ele>
        <time>2021-08-08T15:17:08Z</time>
      </trkpt>
      <trkpt lat="49.61437" lon="3.88074">
        <ele>90.98</ele>
        <time>2021-08-08T15:17:19Z</time>
      </trkpt>
      <trkpt lat="49.61409" lon="3.88009">
        <ele>91.46</ele>
        <time>2021-08-08T15:17:31Z</time>
      </trkpt>
      <trkpt lat="49.61382" lon="3.87942">
        <ele>91.46</ele>
        <time>2021-08-08T15:17:42Z</time>
      </trkpt>
      <trkpt lat="49.6136" lon="3.8789">
        <ele>91.46</ele>
        <time>2021-08-08T15:17:50Z</time>
      </trkpt>
      <trkpt lat="49.61358" lon="3.87882">
        <ele>91.46</ele>
        <time>2021-08-08T15:17:51Z</time>
      </trkpt>
      <trkpt lat="49.61357" lon="3.87874">
        <ele>91.46</ele>
        <time>2021-08-08T15:17:52Z</time>
      </trkpt>
      <trkpt lat="49.61357" lon="3.87866">
        <ele>90.02</ele>
        <time>2021-08-08T15:17:53Z</time>
      </trkpt>
      <trkpt lat="49.61359" lon="3.87859">
        <ele>90.02</ele>
        <time>2021-08-08T15:17:54Z</time>
      </trkpt>
      <trkpt lat="49.61362" lon="3.87853">
        <ele>90.02</ele>
        <time>2021-08-08T15:17:55Z</time>
      </trkpt>
      <trkpt lat="49.61365" lon="3.87849">
        <ele>90.02</ele>
        <time>2021-08-08T15:17:56Z</time>
      </trkpt>
      <trkpt lat="49.61369" lon="3.87847">
        <ele>90.02</ele>
        <time>2021-08-08T15:17:57Z</time>
      </trkpt>
      <trkpt lat="49.61373" lon="3.87845">
        <ele>90.02</ele>
        <time>2021-08-08T15:17:58Z</time>
      </trkpt>
      <trkpt lat="49.61378" lon="3.87844">
        <ele>90.02</ele>
        <time>2021-08-08T15:17:59Z</time>
      </trkpt>
      <trkpt lat="49.61382" lon="3.87842">
        <ele>90.02</ele>
        <time>2021-08-08T15:18:00Z</time>
      </trkpt>
      <trkpt lat="49.61413" lon="3.87835">
        <ele>91.46</ele>
        <time>2021-08-08T15:18:07Z</time>
      </trkpt>
      <trkpt lat="49.61421" lon="3.87833">
        <ele>91.46</ele>
        <time>2021-08-08T15:18:09Z</time>
      </trkpt>
      <trkpt lat="49.61426" lon="3.87832">
        <ele>91.46</ele>
        <time>2021-08-08T15:18:10Z</time>
      </trkpt>
      <trkpt lat="49.61467" lon="3.87823">
        <ele>90.02</ele>
        <time>2021-08-08T15:18:18Z</time>
      </trkpt>
      <trkpt lat="49.61501" lon="3.87815">
        <ele>87.62</ele>
        <time>2021-08-08T15:18:23Z</time>
      </trkpt>
      <trkpt lat="49.61529" lon="3.87808">
        <ele>86.18</ele>
        <time>2021-08-08T15:18:27Z</time>
      </trkpt>
      <trkpt lat="49.61563" lon="3.87799">
        <ele>84.25</ele>
        <time>2021-08-08T15:18:31Z</time>
      </trkpt>
      <trkpt lat="49.61606" lon="3.8779">
        <ele>80.89</ele>
        <time>2021-08-08T15:18:36Z</time>
      </trkpt>
      <trkpt lat="49.61614" lon="3.87789">
        <ele>80.41</ele>
        <time>2021-08-08T15:18:37Z</time>
      </trkpt>
      <trkpt lat="49.61652" lon="3.87811">
        <ele>79.45</ele>
        <time>2021-08-08T15:18:42Z</time>
      </trkpt>
      <trkpt lat="49.61664" lon="3.87836">
        <ele>79.45</ele>
        <time>2021-08-08T15:18:45Z</time>
      </trkpt>
      <trkpt lat="49.61686" lon="3.87895">
        <ele>79.93</ele>
        <time>2021-08-08T15:18:52Z</time>
      </trkpt>
      <trkpt lat="49.61691" lon="3.87901">
        <ele>79.93</ele>
        <time>2021-08-08T15:18:53Z</time>
      </trkpt>
      <trkpt lat="49.61698" lon="3.87905">
        <ele>79.93</ele>
        <time>2021-08-08T15:18:54Z</time>
      </trkpt>
      <trkpt lat="49.61704" lon="3.87906">
        <ele>79.93</ele>
        <time>2021-08-08T15:18:55Z</time>
      </trkpt>
      <trkpt lat="49.61711" lon="3.87906">
        <ele>79.93</ele>
        <time>2021-08-08T15:18:56Z</time>
      </trkpt>
      <trkpt lat="49.61764" lon="3.87899">
        <ele>79.93</ele>
        <time>2021-08-08T15:19:04Z</time>
      </trkpt>
      <trkpt lat="49.61803" lon="3.87895">
        <ele>78.97</ele>
        <time>2021-08-08T15:19:11Z</time>
      </trkpt>
      <trkpt lat="49.61814" lon="3.87897">
        <ele>78.97</ele>
        <time>2021-08-08T15:19:13Z</time>
      </trkpt>
      <trkpt lat="49.6182" lon="3.87898">
        <ele>78.97</ele>
        <time>2021-08-08T15:19:14Z</time>
      </trkpt>
      <trkpt lat="49.6185" lon="3.87917">
        <ele>78.97</ele>
        <time>2021-08-08T15:19:20Z</time>
      </trkpt>
      <trkpt lat="49.61903" lon="3.87949">
        <ele>78.97</ele>
        <time>2021-08-08T15:19:29Z</time>
      </trkpt>
      <trkpt lat="49.61955" lon="3.87976">
        <ele>78.97</ele>
        <time>2021-08-08T15:19:38Z</time>
      </trkpt>
      <trkpt lat="49.61964" lon="3.87982">
        <ele>80.41</ele>
        <time>2021-08-08T15:19:40Z</time>
      </trkpt>
      <trkpt lat="49.61969" lon="3.87984">
        <ele>80.41</ele>
        <time>2021-08-08T15:19:41Z</time>
      </trkpt>
      <trkpt lat="49.61992" lon="3.87999">
        <ele>83.77</ele>
        <time>2021-08-08T15:19:48Z</time>
      </trkpt>
      <trkpt lat="49.62007" lon="3.8801">
        <ele>85.21</ele>
        <time>2021-08-08T15:19:53Z</time>
      </trkpt>
      <trkpt lat="49.62009" lon="3.88008">
        <ele>85.21</ele>
        <time>2021-08-08T15:19:54Z</time>
      </trkpt>
      <trkpt lat="49.6201" lon="3.88004">
        <ele>85.21</ele>
        <time>2021-08-08T15:19:55Z</time>
      </trkpt>
      <trkpt lat="49.6201" lon="3.88">
        <ele>85.21</ele>
        <time>2021-08-08T15:19:56Z</time>
      </trkpt>
      <trkpt lat="49.62009" lon="3.87995">
        <ele>85.21</ele>
        <time>2021-08-08T15:19:57Z</time>
      </trkpt>
      <trkpt lat="49.62008" lon="3.8799">
        <ele>85.21</ele>
        <time>2021-08-08T15:19:58Z</time>
      </trkpt>
      <trkpt lat="49.62008" lon="3.87985">
        <ele>85.21</ele>
        <time>2021-08-08T15:19:59Z</time>
      </trkpt>
      <trkpt lat="49.62007" lon="3.87979">
        <ele>85.21</ele>
        <time>2021-08-08T15:20:00Z</time>
      </trkpt>
      <trkpt lat="49.62002" lon="3.87936">
        <ele>85.69</ele>
        <time>2021-08-08T15:20:08Z</time>
      </trkpt>
      <trkpt lat="49.61998" lon="3.8788">
        <ele>86.18</ele>
        <time>2021-08-08T15:20:18Z</time>
      </trkpt>
      <trkpt lat="49.61998" lon="3.87827">
        <ele>86.66</ele>
        <time>2021-08-08T15:20:28Z</time>
      </trkpt>
      <trkpt lat="49.62002" lon="3.87789">
        <ele>86.66</ele>
        <time>2021-08-08T15:20:36Z</time>
      </trkpt>
      <trkpt lat="49.62007" lon="3.87753">
        <ele>87.14</ele>
        <time>2021-08-08T15:20:44Z</time>
      </trkpt>
      <trkpt lat="49.62015" lon="3.87701">
        <ele>87.62</ele>
        <time>2021-08-08T15:20:55Z</time>
      </trkpt>
      <trkpt lat="49.6202" lon="3.87657">
        <ele>88.58</ele>
        <time>2021-08-08T15:21:04Z</time>
      </trkpt>
      <trkpt lat="49.62024" lon="3.87602">
        <ele>88.58</ele>
        <time>2021-08-08T15:21:14Z</time>
      </trkpt>
      <trkpt lat="49.62031" lon="3.87544">
        <ele>87.14</ele>
        <time>2021-08-08T15:21:24Z</time>
      </trkpt>
      <trkpt lat="49.62033" lon="3.87495">
        <ele>86.66</ele>
        <time>2021-08-08T15:21:32Z</time>
      </trkpt>
      <trkpt lat="49.62033" lon="3.87489">
        <ele>85.69</ele>
        <time>2021-08-08T15:21:33Z</time>
      </trkpt>
      <trkpt lat="49.62035" lon="3.87452">
        <ele>85.21</ele>
        <time>2021-08-08T15:21:39Z</time>
      </trkpt>
      <trkpt lat="49.62036" lon="3.87445">
        <ele>85.21</ele>
        <time>2021-08-08T15:21:40Z</time>
      </trkpt>
      <trkpt lat="49.62039" lon="3.87394">
        <ele>84.73</ele>
        <time>2021-08-08T15:21:48Z</time>
      </trkpt>
      <trkpt lat="49.62042" lon="3.87345">
        <ele>84.25</ele>
        <time>2021-08-08T15:21:56Z</time>
      </trkpt>
      <trkpt lat="49.62046" lon="3.87297">
        <ele>83.77</ele>
        <time>2021-08-08T15:22:04Z</time>
      </trkpt>
      <trkpt lat="49.6205" lon="3.87241">
        <ele>82.81</ele>
        <time>2021-08-08T15:22:13Z</time>
      </trkpt>
      <trkpt lat="49.62055" lon="3.87193">
        <ele>82.81</ele>
        <time>2021-08-08T15:22:21Z</time>
      </trkpt>
      <trkpt lat="49.62058" lon="3.87168">
        <ele>81.37</ele>
        <time>2021-08-08T15:22:25Z</time>
      </trkpt>
      <trkpt lat="49.62062" lon="3.87122">
        <ele>80.41</ele>
        <time>2021-08-08T15:22:33Z</time>
      </trkpt>
      <trkpt lat="49.62066" lon="3.87076">
        <ele>81.37</ele>
        <time>2021-08-08T15:22:41Z</time>
      </trkpt>
      <trkpt lat="49.62071" lon="3.87031">
        <ele>78.97</ele>
        <time>2021-08-08T15:22:49Z</time>
      </trkpt>
      <trkpt lat="49.62073" lon="3.8701">
        <ele>80.89</ele>
        <time>2021-08-08T15:22:53Z</time>
      </trkpt>
      <trkpt lat="49.62078" lon="3.86963">
        <ele>80.89</ele>
        <time>2021-08-08T15:23:01Z</time>
      </trkpt>
      <trkpt lat="49.62088" lon="3.86897">
        <ele>78.97</ele>
        <time>2021-08-08T15:23:11Z</time>
      </trkpt>
      <trkpt lat="49.62104" lon="3.86844">
        <ele>78.48</ele>
        <time>2021-08-08T15:23:20Z</time>
      </trkpt>
      <trkpt lat="49.6212" lon="3.86793">
        <ele>78</ele>
        <time>2021-08-08T15:23:29Z</time>
      </trkpt>
      <trkpt lat="49.62133" lon="3.86757">
        <ele>78</ele>
        <time>2021-08-08T15:23:36Z</time>
      </trkpt>
      <trkpt lat="49.62137" lon="3.86745">
        <ele>77.52</ele>
        <time>2021-08-08T15:23:38Z</time>
      </trkpt>
      <trkpt lat="49.62149" lon="3.86698">
        <ele>78</ele>
        <time>2021-08-08T15:23:46Z</time>
      </trkpt>
      <trkpt lat="49.62157" lon="3.86652">
        <ele>78.97</ele>
        <time>2021-08-08T15:23:54Z</time>
      </trkpt>
      <trkpt lat="49.62163" lon="3.86595">
        <ele>79.45</ele>
        <time>2021-08-08T15:24:04Z</time>
      </trkpt>
      <trkpt lat="49.62166" lon="3.86549">
        <ele>79.93</ele>
        <time>2021-08-08T15:24:12Z</time>
      </trkpt>
      <trkpt lat="49.62173" lon="3.86491">
        <ele>79.93</ele>
        <time>2021-08-08T15:24:22Z</time>
      </trkpt>
      <trkpt lat="49.62189" lon="3.8647">
        <ele>80.41</ele>
        <time>2021-08-08T15:24:28Z</time>
      </trkpt>
      <trkpt lat="49.62203" lon="3.86444">
        <ele>81.85</ele>
        <time>2021-08-08T15:24:35Z</time>
      </trkpt>
      <trkpt lat="49.62208" lon="3.86404">
        <ele>82.81</ele>
        <time>2021-08-08T15:24:43Z</time>
      </trkpt>
      <trkpt lat="49.62208" lon="3.86374">
        <ele>81.37</ele>
        <time>2021-08-08T15:24:48Z</time>
      </trkpt>
      <trkpt lat="49.62213" lon="3.86331">
        <ele>82.33</ele>
        <time>2021-08-08T15:24:56Z</time>
      </trkpt>
      <trkpt lat="49.62222" lon="3.86285">
        <ele>83.77</ele>
        <time>2021-08-08T15:25:06Z</time>
      </trkpt>
      <trkpt lat="49.62229" lon="3.86248">
        <ele>83.29</ele>
        <time>2021-08-08T15:25:14Z</time>
      </trkpt>
      <trkpt lat="49.62235" lon="3.86208">
        <ele>84.25</ele>
        <time>2021-08-08T15:25:23Z</time>
      </trkpt>
      <trkpt lat="49.62231" lon="3.86162">
        <ele>84.73</ele>
        <time>2021-08-08T15:25:32Z</time>
      </trkpt>
      <trkpt lat="49.6222" lon="3.8611">
        <ele>83.77</ele>
        <time>2021-08-08T15:25:41Z</time>
      </trkpt>
      <trkpt lat="49.62209" lon="3.86052">
        <ele>83.77</ele>
        <time>2021-08-08T15:25:50Z</time>
      </trkpt>
      <trkpt lat="49.62198" lon="3.85992">
        <ele>82.33</ele>
        <time>2021-08-08T15:25:59Z</time>
      </trkpt>
      <trkpt lat="49.62185" lon="3.85929">
        <ele>81.37</ele>
        <time>2021-08-08T15:26:09Z</time>
      </trkpt>
      <trkpt lat="49.62184" lon="3.85923">
        <ele>81.37</ele>
        <time>2021-08-08T15:26:10Z</time>
      </trkpt>
      <trkpt lat="49.62172" lon="3.85868">
        <ele>80.89</ele>
        <time>2021-08-08T15:26:18Z</time>
      </trkpt>
      <trkpt lat="49.62159" lon="3.85797">
        <ele>79.45</ele>
        <time>2021-08-08T15:26:28Z</time>
      </trkpt>
      <trkpt lat="49.62144" lon="3.85717">
        <ele>78.97</ele>
        <time>2021-08-08T15:26:39Z</time>
      </trkpt>
      <trkpt lat="49.62138" lon="3.85689">
        <ele>78</ele>
        <time>2021-08-08T15:26:44Z</time>
      </trkpt>
      <trkpt lat="49.62136" lon="3.85687">
        <ele>78</ele>
        <time>2021-08-08T15:26:45Z</time>
      </trkpt>
      <trkpt lat="49.62133" lon="3.85686">
        <ele>77.52</ele>
        <time>2021-08-08T15:26:46Z</time>
      </trkpt>
      <trkpt lat="49.6213" lon="3.85686">
        <ele>77.52</ele>
        <time>2021-08-08T15:26:47Z</time>
      </trkpt>
      <trkpt lat="49.62126" lon="3.85685">
        <ele>77.52</ele>
        <time>2021-08-08T15:26:48Z</time>
      </trkpt>
      <trkpt lat="49.62123" lon="3.85683">
        <ele>77.04</ele>
        <time>2021-08-08T15:26:49Z</time>
      </trkpt>
      <trkpt lat="49.62119" lon="3.8568">
        <ele>77.04</ele>
        <time>2021-08-08T15:26:50Z</time>
      </trkpt>
      <trkpt lat="49.62115" lon="3.85676">
        <ele>77.04</ele>
        <time>2021-08-08T15:26:51Z</time>
      </trkpt>
      <trkpt lat="49.62111" lon="3.85672">
        <ele>77.04</ele>
        <time>2021-08-08T15:26:52Z</time>
      </trkpt>
      <trkpt lat="49.62102" lon="3.85664">
        <ele>77.04</ele>
        <time>2021-08-08T15:26:54Z</time>
      </trkpt>
      <trkpt lat="49.62095" lon="3.85657">
        <ele>77.04</ele>
        <time>2021-08-08T15:26:56Z</time>
      </trkpt>
      <trkpt lat="49.62056" lon="3.85615">
        <ele>76.08</ele>
        <time>2021-08-08T15:27:05Z</time>
      </trkpt>
      <trkpt lat="49.62027" lon="3.85586">
        <ele>76.08</ele>
        <time>2021-08-08T15:27:12Z</time>
      </trkpt>
      <trkpt lat="49.62002" lon="3.85565">
        <ele>76.08</ele>
        <time>2021-08-08T15:27:18Z</time>
      </trkpt>
      <trkpt lat="49.61974" lon="3.85539">
        <ele>76.08</ele>
        <time>2021-08-08T15:27:24Z</time>
      </trkpt>
      <trkpt lat="49.61929" lon="3.85512">
        <ele>74.64</ele>
        <time>2021-08-08T15:27:33Z</time>
      </trkpt>
      <trkpt lat="49.61918" lon="3.85508">
        <ele>74.64</ele>
        <time>2021-08-08T15:27:35Z</time>
      </trkpt>
      <trkpt lat="49.61897" lon="3.85502">
        <ele>74.64</ele>
        <time>2021-08-08T15:27:39Z</time>
      </trkpt>
      <trkpt lat="49.61886" lon="3.85501">
        <ele>74.64</ele>
        <time>2021-08-08T15:27:41Z</time>
      </trkpt>
      <trkpt lat="49.61881" lon="3.85501">
        <ele>74.16</ele>
        <time>2021-08-08T15:27:42Z</time>
      </trkpt>
      <trkpt lat="49.61826" lon="3.85507">
        <ele>74.16</ele>
        <time>2021-08-08T15:27:53Z</time>
      </trkpt>
      <trkpt lat="49.61778" lon="3.8551">
        <ele>75.6</ele>
        <time>2021-08-08T15:28:03Z</time>
      </trkpt>
      <trkpt lat="49.61734" lon="3.8551">
        <ele>76.56</ele>
        <time>2021-08-08T15:28:13Z</time>
      </trkpt>
      <trkpt lat="49.6168" lon="3.85507">
        <ele>76.08</ele>
        <time>2021-08-08T15:28:25Z</time>
      </trkpt>
      <trkpt lat="49.61645" lon="3.85503">
        <ele>76.08</ele>
        <time>2021-08-08T15:28:34Z</time>
      </trkpt>
      <trkpt lat="49.61619" lon="3.855">
        <ele>76.56</ele>
        <time>2021-08-08T15:28:40Z</time>
      </trkpt>
      <trkpt lat="49.61575" lon="3.85495">
        <ele>76.56</ele>
        <time>2021-08-08T15:28:49Z</time>
      </trkpt>
      <trkpt lat="49.61571" lon="3.85493">
        <ele>76.56</ele>
        <time>2021-08-08T15:28:50Z</time>
      </trkpt>
      <trkpt lat="49.61567" lon="3.85489">
        <ele>76.56</ele>
        <time>2021-08-08T15:28:51Z</time>
      </trkpt>
      <trkpt lat="49.61564" lon="3.85483">
        <ele>76.56</ele>
        <time>2021-08-08T15:28:52Z</time>
      </trkpt>
      <trkpt lat="49.61564" lon="3.85478">
        <ele>76.56</ele>
        <time>2021-08-08T15:28:53Z</time>
      </trkpt>
      <trkpt lat="49.61564" lon="3.85473">
        <ele>76.56</ele>
        <time>2021-08-08T15:28:54Z</time>
      </trkpt>
      <trkpt lat="49.61565" lon="3.85468">
        <ele>76.56</ele>
        <time>2021-08-08T15:28:55Z</time>
      </trkpt>
      <trkpt lat="49.61566" lon="3.85462">
        <ele>76.56</ele>
        <time>2021-08-08T15:28:56Z</time>
      </trkpt>
      <trkpt lat="49.61573" lon="3.85438">
        <ele>75.6</ele>
        <time>2021-08-08T15:29:02Z</time>
      </trkpt>
      <trkpt lat="49.61572" lon="3.85441">
        <ele>75.6</ele>
        <time>2021-08-08T15:29:07Z</time>
      </trkpt>
      <trkpt lat="49.61571" lon="3.85447">
        <ele>75.6</ele>
        <time>2021-08-08T15:29:10Z</time>
      </trkpt>
      <trkpt lat="49.6157" lon="3.8545">
        <ele>75.6</ele>
        <time>2021-08-08T15:29:11Z</time>
      </trkpt>
      <trkpt lat="49.61566" lon="3.85463">
        <ele>75.6</ele>
        <time>2021-08-08T15:29:16Z</time>
      </trkpt>
      <trkpt lat="49.61566" lon="3.85466">
        <ele>75.6</ele>
        <time>2021-08-08T15:29:17Z</time>
      </trkpt>
      <trkpt lat="49.61565" lon="3.85474">
        <ele>75.6</ele>
        <time>2021-08-08T15:29:20Z</time>
      </trkpt>
      <trkpt lat="49.61565" lon="3.85476">
        <ele>75.6</ele>
        <time>2021-08-08T15:29:21Z</time>
      </trkpt>
      <trkpt lat="49.61565" lon="3.85488">
        <ele>75.6</ele>
        <time>2021-08-08T15:29:25Z</time>
      </trkpt>
      <trkpt lat="49.61564" lon="3.8549">
        <ele>75.6</ele>
        <time>2021-08-08T15:29:26Z</time>
      </trkpt>
      <trkpt lat="49.61562" lon="3.85491">
        <ele>75.6</ele>
        <time>2021-08-08T15:29:27Z</time>
      </trkpt>
      <trkpt lat="49.6156" lon="3.8549">
        <ele>75.6</ele>
        <time>2021-08-08T15:29:28Z</time>
      </trkpt>
      <trkpt lat="49.61558" lon="3.8549">
        <ele>75.6</ele>
        <time>2021-08-08T15:29:29Z</time>
      </trkpt>
      <trkpt lat="49.61541" lon="3.85478">
        <ele>75.6</ele>
        <time>2021-08-08T15:29:35Z</time>
      </trkpt>
      <trkpt lat="49.61522" lon="3.85459">
        <ele>75.6</ele>
        <time>2021-08-08T15:29:42Z</time>
      </trkpt>
      <trkpt lat="49.61497" lon="3.85434">
        <ele>74.64</ele>
        <time>2021-08-08T15:29:50Z</time>
      </trkpt>
      <trkpt lat="49.61477" lon="3.85413">
        <ele>74.16</ele>
        <time>2021-08-08T15:29:57Z</time>
      </trkpt>
      <trkpt lat="49.61457" lon="3.85393">
        <ele>73.68</ele>
        <time>2021-08-08T15:30:04Z</time>
      </trkpt>
      <trkpt lat="49.6143" lon="3.85364">
        <ele>73.68</ele>
        <time>2021-08-08T15:30:13Z</time>
      </trkpt>
      <trkpt lat="49.61402" lon="3.85338">
        <ele>73.2</ele>
        <time>2021-08-08T15:30:21Z</time>
      </trkpt>
      <trkpt lat="49.61372" lon="3.85306">
        <ele>73.2</ele>
        <time>2021-08-08T15:30:29Z</time>
      </trkpt>
      <trkpt lat="49.61341" lon="3.85272">
        <ele>73.2</ele>
        <time>2021-08-08T15:30:38Z</time>
      </trkpt>
      <trkpt lat="49.61313" lon="3.85242">
        <ele>73.2</ele>
        <time>2021-08-08T15:30:47Z</time>
      </trkpt>
      <trkpt lat="49.61288" lon="3.85215">
        <ele>73.2</ele>
        <time>2021-08-08T15:30:55Z</time>
      </trkpt>
      <trkpt lat="49.61266" lon="3.85191">
        <ele>73.2</ele>
        <time>2021-08-08T15:31:02Z</time>
      </trkpt>
      <trkpt lat="49.61234" lon="3.85157">
        <ele>73.2</ele>
        <time>2021-08-08T15:31:12Z</time>
      </trkpt>
      <trkpt lat="49.61208" lon="3.85129">
        <ele>73.2</ele>
        <time>2021-08-08T15:31:20Z</time>
      </trkpt>
      <trkpt lat="49.61183" lon="3.85101">
        <ele>73.2</ele>
        <time>2021-08-08T15:31:28Z</time>
      </trkpt>
      <trkpt lat="49.61154" lon="3.8507">
        <ele>73.2</ele>
        <time>2021-08-08T15:31:37Z</time>
      </trkpt>
      <trkpt lat="49.61124" lon="3.8504">
        <ele>73.2</ele>
        <time>2021-08-08T15:31:46Z</time>
      </trkpt>
      <trkpt lat="49.61117" lon="3.85034">
        <ele>73.2</ele>
        <time>2021-08-08T15:31:48Z</time>
      </trkpt>
      <trkpt lat="49.61113" lon="3.85031">
        <ele>73.2</ele>
        <time>2021-08-08T15:31:49Z</time>
      </trkpt>
      <trkpt lat="49.61092" lon="3.8501">
        <ele>73.2</ele>
        <time>2021-08-08T15:31:55Z</time>
      </trkpt>
      <trkpt lat="49.61071" lon="3.84988">
        <ele>73.2</ele>
        <time>2021-08-08T15:32:02Z</time>
      </trkpt>
      <trkpt lat="49.6105" lon="3.8496">
        <ele>73.2</ele>
        <time>2021-08-08T15:32:10Z</time>
      </trkpt>
      <trkpt lat="49.61035" lon="3.84943">
        <ele>73.2</ele>
        <time>2021-08-08T15:32:15Z</time>
      </trkpt>
      <trkpt lat="49.61005" lon="3.84915">
        <ele>73.2</ele>
        <time>2021-08-08T15:32:23Z</time>
      </trkpt>
      <trkpt lat="49.60972" lon="3.84882">
        <ele>73.2</ele>
        <time>2021-08-08T15:32:31Z</time>
      </trkpt>
      <trkpt lat="49.60952" lon="3.84861">
        <ele>73.2</ele>
        <time>2021-08-08T15:32:37Z</time>
      </trkpt>
      <trkpt lat="49.60922" lon="3.84827">
        <ele>73.2</ele>
        <time>2021-08-08T15:32:45Z</time>
      </trkpt>
      <trkpt lat="49.60907" lon="3.84812">
        <ele>73.2</ele>
        <time>2021-08-08T15:32:48Z</time>
      </trkpt>
      <trkpt lat="49.60902" lon="3.84807">
        <ele>73.2</ele>
        <time>2021-08-08T15:32:49Z</time>
      </trkpt>
      <trkpt lat="49.60857" lon="3.84758">
        <ele>72.24</ele>
        <time>2021-08-08T15:32:58Z</time>
      </trkpt>
      <trkpt lat="49.60808" lon="3.84706">
        <ele>72.24</ele>
        <time>2021-08-08T15:33:08Z</time>
      </trkpt>
      <trkpt lat="49.60773" lon="3.84672">
        <ele>71.76</ele>
        <time>2021-08-08T15:33:15Z</time>
      </trkpt>
      <trkpt lat="49.60738" lon="3.84637">
        <ele>71.76</ele>
        <time>2021-08-08T15:33:22Z</time>
      </trkpt>
      <trkpt lat="49.60698" lon="3.84594">
        <ele>71.76</ele>
        <time>2021-08-08T15:33:30Z</time>
      </trkpt>
      <trkpt lat="49.60674" lon="3.84568">
        <ele>71.76</ele>
        <time>2021-08-08T15:33:35Z</time>
      </trkpt>
      <trkpt lat="49.6067" lon="3.84562">
        <ele>71.76</ele>
        <time>2021-08-08T15:33:36Z</time>
      </trkpt>
      <trkpt lat="49.60662" lon="3.84549">
        <ele>71.76</ele>
        <time>2021-08-08T15:33:38Z</time>
      </trkpt>
      <trkpt lat="49.60653" lon="3.84526">
        <ele>71.76</ele>
        <time>2021-08-08T15:33:41Z</time>
      </trkpt>
      <trkpt lat="49.60651" lon="3.84518">
        <ele>71.76</ele>
        <time>2021-08-08T15:33:42Z</time>
      </trkpt>
      <trkpt lat="49.6065" lon="3.8451">
        <ele>71.76</ele>
        <time>2021-08-08T15:33:43Z</time>
      </trkpt>
      <trkpt lat="49.60637" lon="3.84429">
        <ele>71.76</ele>
        <time>2021-08-08T15:33:53Z</time>
      </trkpt>
      <trkpt lat="49.60631" lon="3.844">
        <ele>73.2</ele>
        <time>2021-08-08T15:33:57Z</time>
      </trkpt>
      <trkpt lat="49.60616" lon="3.8436">
        <ele>71.76</ele>
        <time>2021-08-08T15:34:03Z</time>
      </trkpt>
      <trkpt lat="49.6061" lon="3.84349">
        <ele>73.2</ele>
        <time>2021-08-08T15:34:05Z</time>
      </trkpt>
      <trkpt lat="49.60594" lon="3.84305">
        <ele>72.24</ele>
        <time>2021-08-08T15:34:13Z</time>
      </trkpt>
      <trkpt lat="49.60591" lon="3.84298">
        <ele>72.24</ele>
        <time>2021-08-08T15:34:14Z</time>
      </trkpt>
      <trkpt lat="49.60588" lon="3.84293">
        <ele>72.24</ele>
        <time>2021-08-08T15:34:15Z</time>
      </trkpt>
      <trkpt lat="49.60565" lon="3.84242">
        <ele>73.2</ele>
        <time>2021-08-08T15:34:24Z</time>
      </trkpt>
      <trkpt lat="49.60555" lon="3.84218">
        <ele>73.2</ele>
        <time>2021-08-08T15:34:28Z</time>
      </trkpt>
      <trkpt lat="49.60549" lon="3.842">
        <ele>73.2</ele>
        <time>2021-08-08T15:34:31Z</time>
      </trkpt>
      <trkpt lat="49.6054" lon="3.84182">
        <ele>73.2</ele>
        <time>2021-08-08T15:34:34Z</time>
      </trkpt>
      <trkpt lat="49.60521" lon="3.84129">
        <ele>74.64</ele>
        <time>2021-08-08T15:34:43Z</time>
      </trkpt>
      <trkpt lat="49.60504" lon="3.84083">
        <ele>74.64</ele>
        <time>2021-08-08T15:34:51Z</time>
      </trkpt>
      <trkpt lat="49.60493" lon="3.84047">
        <ele>75.6</ele>
        <time>2021-08-08T15:34:58Z</time>
      </trkpt>
      <trkpt lat="49.60478" lon="3.84">
        <ele>77.04</ele>
        <time>2021-08-08T15:35:07Z</time>
      </trkpt>
      <trkpt lat="49.60472" lon="3.83947">
        <ele>78</ele>
        <time>2021-08-08T15:35:16Z</time>
      </trkpt>
      <trkpt lat="49.60479" lon="3.83893">
        <ele>78.48</ele>
        <time>2021-08-08T15:35:25Z</time>
      </trkpt>
      <trkpt lat="49.6049" lon="3.83849">
        <ele>78.48</ele>
        <time>2021-08-08T15:35:32Z</time>
      </trkpt>
      <trkpt lat="49.60492" lon="3.83843">
        <ele>78.48</ele>
        <time>2021-08-08T15:35:33Z</time>
      </trkpt>
      <trkpt lat="49.60493" lon="3.83836">
        <ele>78.48</ele>
        <time>2021-08-08T15:35:34Z</time>
      </trkpt>
      <trkpt lat="49.60495" lon="3.83829">
        <ele>78.48</ele>
        <time>2021-08-08T15:35:35Z</time>
      </trkpt>
      <trkpt lat="49.60497" lon="3.83822">
        <ele>78.48</ele>
        <time>2021-08-08T15:35:36Z</time>
      </trkpt>
      <trkpt lat="49.60516" lon="3.8375">
        <ele>77.04</ele>
        <time>2021-08-08T15:35:46Z</time>
      </trkpt>
      <trkpt lat="49.60532" lon="3.83689">
        <ele>76.56</ele>
        <time>2021-08-08T15:35:54Z</time>
      </trkpt>
      <trkpt lat="49.60534" lon="3.83682">
        <ele>76.08</ele>
        <time>2021-08-08T15:35:55Z</time>
      </trkpt>
      <trkpt lat="49.60536" lon="3.83674">
        <ele>76.08</ele>
        <time>2021-08-08T15:35:56Z</time>
      </trkpt>
      <trkpt lat="49.60538" lon="3.83666">
        <ele>76.08</ele>
        <time>2021-08-08T15:35:57Z</time>
      </trkpt>
      <trkpt lat="49.6054" lon="3.83659">
        <ele>76.08</ele>
        <time>2021-08-08T15:35:58Z</time>
      </trkpt>
      <trkpt lat="49.60541" lon="3.83651">
        <ele>76.08</ele>
        <time>2021-08-08T15:35:59Z</time>
      </trkpt>
      <trkpt lat="49.60559" lon="3.83582">
        <ele>75.6</ele>
        <time>2021-08-08T15:36:08Z</time>
      </trkpt>
      <trkpt lat="49.60581" lon="3.83499">
        <ele>75.6</ele>
        <time>2021-08-08T15:36:18Z</time>
      </trkpt>
      <trkpt lat="49.60607" lon="3.834">
        <ele>74.16</ele>
        <time>2021-08-08T15:36:29Z</time>
      </trkpt>
      <trkpt lat="49.60628" lon="3.83318">
        <ele>73.68</ele>
        <time>2021-08-08T15:36:38Z</time>
      </trkpt>
      <trkpt lat="49.60634" lon="3.83293">
        <ele>73.68</ele>
        <time>2021-08-08T15:36:41Z</time>
      </trkpt>
      <trkpt lat="49.60636" lon="3.83286">
        <ele>73.68</ele>
        <time>2021-08-08T15:36:42Z</time>
      </trkpt>
      <trkpt lat="49.60653" lon="3.83225">
        <ele>74.64</ele>
        <time>2021-08-08T15:36:50Z</time>
      </trkpt>
      <trkpt lat="49.60655" lon="3.83219">
        <ele>74.64</ele>
        <time>2021-08-08T15:36:51Z</time>
      </trkpt>
      <trkpt lat="49.60657" lon="3.83213">
        <ele>74.64</ele>
        <time>2021-08-08T15:36:52Z</time>
      </trkpt>
      <trkpt lat="49.60659" lon="3.83205">
        <ele>74.64</ele>
        <time>2021-08-08T15:36:53Z</time>
      </trkpt>
      <trkpt lat="49.60661" lon="3.83198">
        <ele>75.12</ele>
        <time>2021-08-08T15:36:54Z</time>
      </trkpt>
      <trkpt lat="49.60666" lon="3.8318">
        <ele>75.6</ele>
        <time>2021-08-08T15:36:57Z</time>
      </trkpt>
      <trkpt lat="49.60668" lon="3.83173">
        <ele>75.6</ele>
        <time>2021-08-08T15:36:58Z</time>
      </trkpt>
      <trkpt lat="49.60683" lon="3.83106">
        <ele>77.04</ele>
        <time>2021-08-08T15:37:08Z</time>
      </trkpt>
      <trkpt lat="49.6069" lon="3.83052">
        <ele>77.04</ele>
        <time>2021-08-08T15:37:17Z</time>
      </trkpt>
      <trkpt lat="49.60695" lon="3.83022">
        <ele>77.04</ele>
        <time>2021-08-08T15:37:22Z</time>
      </trkpt>
      <trkpt lat="49.60697" lon="3.83003">
        <ele>77.04</ele>
        <time>2021-08-08T15:37:25Z</time>
      </trkpt>
      <trkpt lat="49.60698" lon="3.82996">
        <ele>77.04</ele>
        <time>2021-08-08T15:37:26Z</time>
      </trkpt>
      <trkpt lat="49.607" lon="3.82969">
        <ele>77.04</ele>
        <time>2021-08-08T15:37:30Z</time>
      </trkpt>
      <trkpt lat="49.60701" lon="3.82956">
        <ele>77.04</ele>
        <time>2021-08-08T15:37:32Z</time>
      </trkpt>
      <trkpt lat="49.60706" lon="3.82918">
        <ele>77.04</ele>
        <time>2021-08-08T15:37:38Z</time>
      </trkpt>
      <trkpt lat="49.60711" lon="3.82884">
        <ele>77.04</ele>
        <time>2021-08-08T15:37:43Z</time>
      </trkpt>
      <trkpt lat="49.60712" lon="3.82876">
        <ele>77.04</ele>
        <time>2021-08-08T15:37:44Z</time>
      </trkpt>
      <trkpt lat="49.60713" lon="3.82869">
        <ele>77.04</ele>
        <time>2021-08-08T15:37:45Z</time>
      </trkpt>
      <trkpt lat="49.60719" lon="3.82814">
        <ele>77.04</ele>
        <time>2021-08-08T15:37:52Z</time>
      </trkpt>
      <trkpt lat="49.6072" lon="3.82806">
        <ele>77.04</ele>
        <time>2021-08-08T15:37:53Z</time>
      </trkpt>
      <trkpt lat="49.60721" lon="3.82799">
        <ele>77.52</ele>
        <time>2021-08-08T15:37:54Z</time>
      </trkpt>
      <trkpt lat="49.60721" lon="3.82791">
        <ele>77.52</ele>
        <time>2021-08-08T15:37:55Z</time>
      </trkpt>
      <trkpt lat="49.60722" lon="3.82784">
        <ele>77.52</ele>
        <time>2021-08-08T15:37:56Z</time>
      </trkpt>
      <trkpt lat="49.60722" lon="3.82778">
        <ele>76.08</ele>
        <time>2021-08-08T15:37:57Z</time>
      </trkpt>
      <trkpt lat="49.60723" lon="3.82771">
        <ele>76.08</ele>
        <time>2021-08-08T15:37:58Z</time>
      </trkpt>
      <trkpt lat="49.60729" lon="3.82736">
        <ele>77.52</ele>
        <time>2021-08-08T15:38:05Z</time>
      </trkpt>
      <trkpt lat="49.6073" lon="3.8273">
        <ele>77.52</ele>
        <time>2021-08-08T15:38:07Z</time>
      </trkpt>
      <trkpt lat="49.6073" lon="3.82727">
        <ele>77.52</ele>
        <time>2021-08-08T15:38:08Z</time>
      </trkpt>
      <trkpt lat="49.60732" lon="3.82696">
        <ele>77.52</ele>
        <time>2021-08-08T15:38:15Z</time>
      </trkpt>
      <trkpt lat="49.60738" lon="3.82647">
        <ele>78.48</ele>
        <time>2021-08-08T15:38:23Z</time>
      </trkpt>
      <trkpt lat="49.60741" lon="3.82622">
        <ele>78.48</ele>
        <time>2021-08-08T15:38:27Z</time>
      </trkpt>
      <trkpt lat="49.60748" lon="3.82559">
        <ele>78.48</ele>
        <time>2021-08-08T15:38:37Z</time>
      </trkpt>
      <trkpt lat="49.60756" lon="3.82502">
        <ele>78.48</ele>
        <time>2021-08-08T15:38:46Z</time>
      </trkpt>
      <trkpt lat="49.60758" lon="3.82482">
        <ele>78.97</ele>
        <time>2021-08-08T15:38:49Z</time>
      </trkpt>
      <trkpt lat="49.60766" lon="3.82427">
        <ele>77.52</ele>
        <time>2021-08-08T15:38:57Z</time>
      </trkpt>
      <trkpt lat="49.60768" lon="3.82413">
        <ele>77.52</ele>
        <time>2021-08-08T15:38:59Z</time>
      </trkpt>
      <trkpt lat="49.60769" lon="3.82405">
        <ele>77.52</ele>
        <time>2021-08-08T15:39:00Z</time>
      </trkpt>
      <trkpt lat="49.60773" lon="3.82373">
        <ele>77.52</ele>
        <time>2021-08-08T15:39:04Z</time>
      </trkpt>
      <trkpt lat="49.60781" lon="3.82308">
        <ele>77.52</ele>
        <time>2021-08-08T15:39:12Z</time>
      </trkpt>
      <trkpt lat="49.60785" lon="3.82277">
        <ele>77.52</ele>
        <time>2021-08-08T15:39:16Z</time>
      </trkpt>
      <trkpt lat="49.60796" lon="3.82198">
        <ele>76.08</ele>
        <time>2021-08-08T15:39:26Z</time>
      </trkpt>
      <trkpt lat="49.60797" lon="3.82191">
        <ele>76.08</ele>
        <time>2021-08-08T15:39:27Z</time>
      </trkpt>
      <trkpt lat="49.60798" lon="3.82175">
        <ele>76.08</ele>
        <time>2021-08-08T15:39:29Z</time>
      </trkpt>
      <trkpt lat="49.60803" lon="3.82145">
        <ele>76.08</ele>
        <time>2021-08-08T15:39:33Z</time>
      </trkpt>
      <trkpt lat="49.60804" lon="3.82137">
        <ele>76.08</ele>
        <time>2021-08-08T15:39:34Z</time>
      </trkpt>
      <trkpt lat="49.60807" lon="3.82094">
        <ele>76.08</ele>
        <time>2021-08-08T15:39:39Z</time>
      </trkpt>
      <trkpt lat="49.60818" lon="3.82013">
        <ele>76.08</ele>
        <time>2021-08-08T15:39:49Z</time>
      </trkpt>
      <trkpt lat="49.60829" lon="3.81922">
        <ele>76.08</ele>
        <time>2021-08-08T15:40:00Z</time>
      </trkpt>
      <trkpt lat="49.60839" lon="3.81843">
        <ele>76.08</ele>
        <time>2021-08-08T15:40:10Z</time>
      </trkpt>
      <trkpt lat="49.60849" lon="3.81767">
        <ele>76.08</ele>
        <time>2021-08-08T15:40:18Z</time>
      </trkpt>
      <trkpt lat="49.6086" lon="3.8168">
        <ele>74.16</ele>
        <time>2021-08-08T15:40:27Z</time>
      </trkpt>
      <trkpt lat="49.60871" lon="3.8159">
        <ele>74.16</ele>
        <time>2021-08-08T15:40:37Z</time>
      </trkpt>
      <trkpt lat="49.60882" lon="3.81499">
        <ele>74.16</ele>
        <time>2021-08-08T15:40:47Z</time>
      </trkpt>
      <trkpt lat="49.60891" lon="3.8143">
        <ele>75.6</ele>
        <time>2021-08-08T15:40:55Z</time>
      </trkpt>
      <trkpt lat="49.609" lon="3.81359">
        <ele>74.16</ele>
        <time>2021-08-08T15:41:03Z</time>
      </trkpt>
      <trkpt lat="49.60911" lon="3.81271">
        <ele>73.68</ele>
        <time>2021-08-08T15:41:13Z</time>
      </trkpt>
      <trkpt lat="49.60923" lon="3.81183">
        <ele>73.2</ele>
        <time>2021-08-08T15:41:23Z</time>
      </trkpt>
      <trkpt lat="49.60932" lon="3.81111">
        <ele>73.2</ele>
        <time>2021-08-08T15:41:31Z</time>
      </trkpt>
      <trkpt lat="49.60944" lon="3.81024">
        <ele>72.72</ele>
        <time>2021-08-08T15:41:41Z</time>
      </trkpt>
      <trkpt lat="49.60956" lon="3.80934">
        <ele>72.72</ele>
        <time>2021-08-08T15:41:51Z</time>
      </trkpt>
      <trkpt lat="49.60964" lon="3.80868">
        <ele>72.72</ele>
        <time>2021-08-08T15:41:59Z</time>
      </trkpt>
      <trkpt lat="49.60965" lon="3.80862">
        <ele>72.72</ele>
        <time>2021-08-08T15:42:00Z</time>
      </trkpt>
      <trkpt lat="49.60967" lon="3.80838">
        <ele>74.16</ele>
        <time>2021-08-08T15:42:04Z</time>
      </trkpt>
      <trkpt lat="49.60968" lon="3.80832">
        <ele>74.16</ele>
        <time>2021-08-08T15:42:05Z</time>
      </trkpt>
      <trkpt lat="49.60975" lon="3.80772">
        <ele>74.16</ele>
        <time>2021-08-08T15:42:13Z</time>
      </trkpt>
      <trkpt lat="49.60983" lon="3.80729">
        <ele>74.16</ele>
        <time>2021-08-08T15:42:19Z</time>
      </trkpt>
      <trkpt lat="49.60997" lon="3.80668">
        <ele>74.16</ele>
        <time>2021-08-08T15:42:27Z</time>
      </trkpt>
      <trkpt lat="49.61008" lon="3.80606">
        <ele>74.16</ele>
        <time>2021-08-08T15:42:35Z</time>
      </trkpt>
      <trkpt lat="49.6101" lon="3.80589">
        <ele>74.16</ele>
        <time>2021-08-08T15:42:38Z</time>
      </trkpt>
      <trkpt lat="49.61013" lon="3.80586">
        <ele>74.16</ele>
        <time>2021-08-08T15:42:39Z</time>
      </trkpt>
      <trkpt lat="49.61016" lon="3.80585">
        <ele>74.16</ele>
        <time>2021-08-08T15:42:40Z</time>
      </trkpt>
      <trkpt lat="49.6102" lon="3.80585">
        <ele>74.16</ele>
        <time>2021-08-08T15:42:41Z</time>
      </trkpt>
      <trkpt lat="49.61023" lon="3.80585">
        <ele>74.16</ele>
        <time>2021-08-08T15:42:42Z</time>
      </trkpt>
      <trkpt lat="49.61042" lon="3.80578">
        <ele>74.16</ele>
        <time>2021-08-08T15:42:48Z</time>
      </trkpt>
      <trkpt lat="49.61042" lon="3.80575">
        <ele>74.16</ele>
        <time>2021-08-08T15:42:49Z</time>
      </trkpt>
      <trkpt lat="49.6104" lon="3.8057">
        <ele>74.16</ele>
        <time>2021-08-08T15:42:50Z</time>
      </trkpt>
      <trkpt lat="49.61039" lon="3.80566">
        <ele>74.16</ele>
        <time>2021-08-08T15:42:51Z</time>
      </trkpt>
      <trkpt lat="49.61037" lon="3.80562">
        <ele>74.16</ele>
        <time>2021-08-08T15:42:52Z</time>
      </trkpt>
      <trkpt lat="49.61035" lon="3.80557">
        <ele>74.16</ele>
        <time>2021-08-08T15:42:53Z</time>
      </trkpt>
      <trkpt lat="49.61025" lon="3.80534">
        <ele>72.72</ele>
        <time>2021-08-08T15:42:57Z</time>
      </trkpt>
      <trkpt lat="49.61023" lon="3.80527">
        <ele>72.72</ele>
        <time>2021-08-08T15:42:58Z</time>
      </trkpt>
      <trkpt lat="49.61022" lon="3.8052">
        <ele>72.72</ele>
        <time>2021-08-08T15:42:59Z</time>
      </trkpt>
      <trkpt lat="49.61021" lon="3.80507">
        <ele>72.72</ele>
        <time>2021-08-08T15:43:01Z</time>
      </trkpt>
      <trkpt lat="49.61021" lon="3.80501">
        <ele>74.16</ele>
        <time>2021-08-08T15:43:02Z</time>
      </trkpt>
      <trkpt lat="49.61021" lon="3.80495">
        <ele>74.16</ele>
        <time>2021-08-08T15:43:03Z</time>
      </trkpt>
      <trkpt lat="49.61017" lon="3.80453">
        <ele>74.16</ele>
        <time>2021-08-08T15:43:10Z</time>
      </trkpt>
      <trkpt lat="49.61014" lon="3.80413">
        <ele>74.16</ele>
        <time>2021-08-08T15:43:16Z</time>
      </trkpt>
      <trkpt lat="49.61014" lon="3.80407">
        <ele>74.16</ele>
        <time>2021-08-08T15:43:17Z</time>
      </trkpt>
      <trkpt lat="49.61014" lon="3.804">
        <ele>74.16</ele>
        <time>2021-08-08T15:43:18Z</time>
      </trkpt>
      <trkpt lat="49.6101" lon="3.80364">
        <ele>74.64</ele>
        <time>2021-08-08T15:43:25Z</time>
      </trkpt>
      <trkpt lat="49.61008" lon="3.80363">
        <ele>74.64</ele>
        <time>2021-08-08T15:43:26Z</time>
      </trkpt>
      <trkpt lat="49.61005" lon="3.80364">
        <ele>74.64</ele>
        <time>2021-08-08T15:43:27Z</time>
      </trkpt>
      <trkpt lat="49.60987" lon="3.80371">
        <ele>74.64</ele>
        <time>2021-08-08T15:43:33Z</time>
      </trkpt>
      <trkpt lat="49.60982" lon="3.80376">
        <ele>74.64</ele>
        <time>2021-08-08T15:43:37Z</time>
      </trkpt>
      <trkpt lat="49.6098" lon="3.80379">
        <ele>74.64</ele>
        <time>2021-08-08T15:43:44Z</time>
      </trkpt>
      <trkpt lat="49.60979" lon="3.80382">
        <ele>74.64</ele>
        <time>2021-08-08T15:43:51Z</time>
      </trkpt>
      <trkpt lat="49.60977" lon="3.80384">
        <ele>74.64</ele>
        <time>2021-08-08T15:43:52Z</time>
      </trkpt>
      <trkpt lat="49.60976" lon="3.80385">
        <ele>74.64</ele>
        <time>2021-08-08T15:43:53Z</time>
      </trkpt>
      <trkpt lat="49.60974" lon="3.80384">
        <ele>75.12</ele>
        <time>2021-08-08T15:43:55Z</time>
      </trkpt>
      <trkpt lat="49.60974" lon="3.80382">
        <ele>75.12</ele>
        <time>2021-08-08T15:43:56Z</time>
      </trkpt>
      <trkpt lat="49.60975" lon="3.80381">
        <ele>75.12</ele>
        <time>2021-08-08T15:43:57Z</time>
      </trkpt>
      <trkpt lat="49.60976" lon="3.80381">
        <ele>75.12</ele>
        <time>2021-08-08T15:43:58Z</time>
      </trkpt>
      <trkpt lat="49.60977" lon="3.80379">
        <ele>75.12</ele>
        <time>2021-08-08T15:43:59Z</time>
      </trkpt>
      <trkpt lat="49.60979" lon="3.80379">
        <ele>75.12</ele>
        <time>2021-08-08T15:44:00Z</time>
      </trkpt>
      <trkpt lat="49.6098" lon="3.80378">
        <ele>75.12</ele>
        <time>2021-08-08T15:44:01Z</time>
      </trkpt>
      <trkpt lat="49.60982" lon="3.80378">
        <ele>75.12</ele>
        <time>2021-08-08T15:44:02Z</time>
      </trkpt>
      <trkpt lat="49.60986" lon="3.80374">
        <ele>75.12</ele>
        <time>2021-08-08T15:44:05Z</time>
      </trkpt>
      <trkpt lat="49.60988" lon="3.8037">
        <ele>75.12</ele>
        <time>2021-08-08T15:44:08Z</time>
      </trkpt>
      <trkpt lat="49.60987" lon="3.80371">
        <ele>75.12</ele>
        <time>2021-08-08T15:44:09Z</time>
      </trkpt>
      <trkpt lat="49.60985" lon="3.80372">
        <ele>75.12</ele>
        <time>2021-08-08T15:44:10Z</time>
      </trkpt>
      <trkpt lat="49.60984" lon="3.80372">
        <ele>75.12</ele>
        <time>2021-08-08T15:44:11Z</time>
      </trkpt>
      <trkpt lat="49.60983" lon="3.80373">
        <ele>75.12</ele>
        <time>2021-08-08T15:44:12Z</time>
      </trkpt>
      <trkpt lat="49.60981" lon="3.80374">
        <ele>75.12</ele>
        <time>2021-08-08T15:44:13Z</time>
      </trkpt>
      <trkpt lat="49.60969" lon="3.80379">
        <ele>75.12</ele>
        <time>2021-08-08T15:44:19Z</time>
      </trkpt>
      <trkpt lat="49.60957" lon="3.80387">
        <ele>75.12</ele>
        <time>2021-08-08T15:44:25Z</time>
      </trkpt>
      <trkpt lat="49.60955" lon="3.80389">
        <ele>75.6</ele>
        <time>2021-08-08T15:44:33Z</time>
      </trkpt>
      <trkpt lat="49.60959" lon="3.804">
        <ele>75.6</ele>
        <time>2021-08-08T15:44:49Z</time>
      </trkpt>
      <trkpt lat="49.60965" lon="3.80406">
        <ele>76.08</ele>
        <time>2021-08-08T15:45:11Z</time>
      </trkpt>
      <trkpt lat="49.60966" lon="3.80415">
        <ele>76.08</ele>
        <time>2021-08-08T15:45:30Z</time>
      </trkpt>
      <trkpt lat="49.60969" lon="3.80416">
        <ele>76.56</ele>
        <time>2021-08-08T15:45:49Z</time>
      </trkpt>
      <trkpt lat="49.60972" lon="3.80414">
        <ele>76.56</ele>
        <time>2021-08-08T15:46:07Z</time>
      </trkpt>
      <trkpt lat="49.60976" lon="3.80418">
        <ele>76.56</ele>
        <time>2021-08-08T15:46:31Z</time>
      </trkpt>
      <trkpt lat="49.60975" lon="3.80418">
        <ele>76.56</ele>
        <time>2021-08-08T15:46:50Z</time>
      </trkpt>
      <trkpt lat="49.60972" lon="3.80414">
        <ele>77.04</ele>
        <time>2021-08-08T15:47:07Z</time>
      </trkpt>
      <trkpt lat="49.60974" lon="3.8041">
        <ele>77.04</ele>
        <time>2021-08-08T15:47:15Z</time>
      </trkpt>
      <trkpt lat="49.60972" lon="3.80409">
        <ele>77.52</ele>
        <time>2021-08-08T15:47:31Z</time>
      </trkpt>
      <trkpt lat="49.6097" lon="3.80411">
        <ele>76.56</ele>
        <time>2021-08-08T15:47:58Z</time>
      </trkpt>
      <trkpt lat="49.60965" lon="3.80415">
        <ele>77.04</ele>
        <time>2021-08-08T15:48:20Z</time>
      </trkpt>
      <trkpt lat="49.60966" lon="3.80418">
        <ele>77.04</ele>
        <time>2021-08-08T15:48:41Z</time>
      </trkpt>
      <trkpt lat="49.60964" lon="3.8042">
        <ele>77.52</ele>
        <time>2021-08-08T15:49:03Z</time>
      </trkpt>
      <trkpt lat="49.60965" lon="3.8042">
        <ele>78.48</ele>
        <time>2021-08-08T15:49:05Z</time>
      </trkpt>
      <trkpt lat="49.60966" lon="3.80421">
        <ele>77.04</ele>
        <time>2021-08-08T15:49:10Z</time>
      </trkpt>
      <trkpt lat="49.60967" lon="3.80418">
        <ele>77.52</ele>
        <time>2021-08-08T15:49:30Z</time>
      </trkpt>
      <trkpt lat="49.60974" lon="3.80418">
        <ele>77.52</ele>
        <time>2021-08-08T15:49:50Z</time>
      </trkpt>
      <trkpt lat="49.60972" lon="3.80414">
        <ele>78</ele>
        <time>2021-08-08T15:50:07Z</time>
      </trkpt>
      <trkpt lat="49.60969" lon="3.80416">
        <ele>78</ele>
        <time>2021-08-08T15:50:26Z</time>
      </trkpt>
      <trkpt lat="49.60963" lon="3.80416">
        <ele>78.48</ele>
        <time>2021-08-08T15:50:44Z</time>
      </trkpt>
      <trkpt lat="49.60961" lon="3.80417">
        <ele>78</ele>
        <time>2021-08-08T15:51:03Z</time>
      </trkpt>
      <trkpt lat="49.60962" lon="3.80417">
        <ele>78.48</ele>
        <time>2021-08-08T15:51:15Z</time>
      </trkpt>
      <trkpt lat="49.60966" lon="3.80415">
        <ele>78.48</ele>
        <time>2021-08-08T15:51:33Z</time>
      </trkpt>
      <trkpt lat="49.60965" lon="3.80411">
        <ele>78.97</ele>
        <time>2021-08-08T15:51:52Z</time>
      </trkpt>
      <trkpt lat="49.60966" lon="3.80412">
        <ele>78.97</ele>
        <time>2021-08-08T15:52:08Z</time>
      </trkpt>
      <trkpt lat="49.60967" lon="3.80418">
        <ele>78.97</ele>
        <time>2021-08-08T15:52:27Z</time>
      </trkpt>
      <trkpt lat="49.60965" lon="3.80418">
        <ele>79.45</ele>
        <time>2021-08-08T15:52:39Z</time>
      </trkpt>
      <trkpt lat="49.60968" lon="3.80417">
        <ele>79.45</ele>
        <time>2021-08-08T15:52:52Z</time>
      </trkpt>
      <trkpt lat="49.60969" lon="3.80417">
        <ele>79.45</ele>
        <time>2021-08-08T15:53:04Z</time>
      </trkpt>
      <trkpt lat="49.60973" lon="3.80417">
        <ele>79.93</ele>
        <time>2021-08-08T15:53:17Z</time>
      </trkpt>
      <trkpt lat="49.60972" lon="3.80416">
        <ele>79.93</ele>
        <time>2021-08-08T15:53:31Z</time>
      </trkpt>
      <trkpt lat="49.60965" lon="3.80414">
        <ele>80.41</ele>
        <time>2021-08-08T15:53:49Z</time>
      </trkpt>
      <trkpt lat="49.60956" lon="3.80412">
        <ele>80.41</ele>
        <time>2021-08-08T15:53:57Z</time>
      </trkpt>
      <trkpt lat="49.60955" lon="3.80405">
        <ele>80.41</ele>
        <time>2021-08-08T15:54:08Z</time>
      </trkpt>
      <trkpt lat="49.60957" lon="3.80401">
        <ele>80.41</ele>
        <time>2021-08-08T15:54:18Z</time>
      </trkpt>
      <trkpt lat="49.60962" lon="3.80399">
        <ele>80.89</ele>
        <time>2021-08-08T15:54:23Z</time>
      </trkpt>
      <trkpt lat="49.60964" lon="3.80397">
        <ele>80.89</ele>
        <time>2021-08-08T15:54:24Z</time>
      </trkpt>
      <trkpt lat="49.6098" lon="3.80389">
        <ele>80.89</ele>
        <time>2021-08-08T15:54:31Z</time>
      </trkpt>
      <trkpt lat="49.61005" lon="3.80374">
        <ele>80.41</ele>
        <time>2021-08-08T15:54:39Z</time>
      </trkpt>
      <trkpt lat="49.61013" lon="3.80369">
        <ele>80.41</ele>
        <time>2021-08-08T15:54:42Z</time>
      </trkpt>
      <trkpt lat="49.61022" lon="3.8036">
        <ele>80.41</ele>
        <time>2021-08-08T15:54:48Z</time>
      </trkpt>
      <trkpt lat="49.61035" lon="3.80347">
        <ele>80.41</ele>
        <time>2021-08-08T15:54:54Z</time>
      </trkpt>
      <trkpt lat="49.61048" lon="3.80328">
        <ele>80.89</ele>
        <time>2021-08-08T15:55:01Z</time>
      </trkpt>
      <trkpt lat="49.61056" lon="3.80289">
        <ele>80.89</ele>
        <time>2021-08-08T15:55:09Z</time>
      </trkpt>
      <trkpt lat="49.61067" lon="3.80237">
        <ele>80.41</ele>
        <time>2021-08-08T15:55:19Z</time>
      </trkpt>
      <trkpt lat="49.6107" lon="3.80225">
        <ele>80.41</ele>
        <time>2021-08-08T15:55:21Z</time>
      </trkpt>
      <trkpt lat="49.61077" lon="3.80187">
        <ele>79.93</ele>
        <time>2021-08-08T15:55:27Z</time>
      </trkpt>
      <trkpt lat="49.61078" lon="3.8018">
        <ele>79.93</ele>
        <time>2021-08-08T15:55:28Z</time>
      </trkpt>
      <trkpt lat="49.61079" lon="3.80173">
        <ele>79.45</ele>
        <time>2021-08-08T15:55:29Z</time>
      </trkpt>
      <trkpt lat="49.61083" lon="3.80133">
        <ele>79.45</ele>
        <time>2021-08-08T15:55:35Z</time>
      </trkpt>
      <trkpt lat="49.61082" lon="3.80127">
        <ele>79.45</ele>
        <time>2021-08-08T15:55:36Z</time>
      </trkpt>
      <trkpt lat="49.6108" lon="3.8012">
        <ele>79.45</ele>
        <time>2021-08-08T15:55:37Z</time>
      </trkpt>
      <trkpt lat="49.61078" lon="3.80114">
        <ele>79.45</ele>
        <time>2021-08-08T15:55:38Z</time>
      </trkpt>
      <trkpt lat="49.61076" lon="3.80109">
        <ele>79.45</ele>
        <time>2021-08-08T15:55:39Z</time>
      </trkpt>
      <trkpt lat="49.61048" lon="3.80053">
        <ele>78.48</ele>
        <time>2021-08-08T15:55:48Z</time>
      </trkpt>
      <trkpt lat="49.61017" lon="3.79976">
        <ele>78</ele>
        <time>2021-08-08T15:55:59Z</time>
      </trkpt>
      <trkpt lat="49.60988" lon="3.79898">
        <ele>78</ele>
        <time>2021-08-08T15:56:10Z</time>
      </trkpt>
      <trkpt lat="49.60974" lon="3.79832">
        <ele>78</ele>
        <time>2021-08-08T15:56:18Z</time>
      </trkpt>
      <trkpt lat="49.60966" lon="3.79748">
        <ele>78</ele>
        <time>2021-08-08T15:56:28Z</time>
      </trkpt>
      <trkpt lat="49.60956" lon="3.79643">
        <ele>79.45</ele>
        <time>2021-08-08T15:56:40Z</time>
      </trkpt>
      <trkpt lat="49.60948" lon="3.79555">
        <ele>79.93</ele>
        <time>2021-08-08T15:56:50Z</time>
      </trkpt>
      <trkpt lat="49.60945" lon="3.79518">
        <ele>78.48</ele>
        <time>2021-08-08T15:56:54Z</time>
      </trkpt>
      <trkpt lat="49.60939" lon="3.79454">
        <ele>78.48</ele>
        <time>2021-08-08T15:57:01Z</time>
      </trkpt>
      <trkpt lat="49.60935" lon="3.79428">
        <ele>78.48</ele>
        <time>2021-08-08T15:57:04Z</time>
      </trkpt>
      <trkpt lat="49.60933" lon="3.7942">
        <ele>78.48</ele>
        <time>2021-08-08T15:57:05Z</time>
      </trkpt>
      <trkpt lat="49.6093" lon="3.79412">
        <ele>78.48</ele>
        <time>2021-08-08T15:57:06Z</time>
      </trkpt>
      <trkpt lat="49.60924" lon="3.79396">
        <ele>78.48</ele>
        <time>2021-08-08T15:57:08Z</time>
      </trkpt>
      <trkpt lat="49.60921" lon="3.79389">
        <ele>78.48</ele>
        <time>2021-08-08T15:57:09Z</time>
      </trkpt>
      <trkpt lat="49.60886" lon="3.79332">
        <ele>78</ele>
        <time>2021-08-08T15:57:18Z</time>
      </trkpt>
      <trkpt lat="49.60848" lon="3.79272">
        <ele>78</ele>
        <time>2021-08-08T15:57:28Z</time>
      </trkpt>
      <trkpt lat="49.60803" lon="3.79201">
        <ele>78</ele>
        <time>2021-08-08T15:57:40Z</time>
      </trkpt>
      <trkpt lat="49.60761" lon="3.79136">
        <ele>78</ele>
        <time>2021-08-08T15:57:51Z</time>
      </trkpt>
      <trkpt lat="49.6073" lon="3.79088">
        <ele>78</ele>
        <time>2021-08-08T15:57:59Z</time>
      </trkpt>
      <trkpt lat="49.60689" lon="3.79025">
        <ele>78</ele>
        <time>2021-08-08T15:58:10Z</time>
      </trkpt>
      <trkpt lat="49.60655" lon="3.7897">
        <ele>77.52</ele>
        <time>2021-08-08T15:58:19Z</time>
      </trkpt>
      <trkpt lat="49.60615" lon="3.78907">
        <ele>77.52</ele>
        <time>2021-08-08T15:58:30Z</time>
      </trkpt>
      <trkpt lat="49.60579" lon="3.7885">
        <ele>78.48</ele>
        <time>2021-08-08T15:58:40Z</time>
      </trkpt>
      <trkpt lat="49.60575" lon="3.78845">
        <ele>78</ele>
        <time>2021-08-08T15:58:41Z</time>
      </trkpt>
      <trkpt lat="49.60535" lon="3.78782">
        <ele>78.48</ele>
        <time>2021-08-08T15:58:53Z</time>
      </trkpt>
      <trkpt lat="49.60504" lon="3.78733">
        <ele>78.97</ele>
        <time>2021-08-08T15:59:03Z</time>
      </trkpt>
      <trkpt lat="49.60474" lon="3.78686">
        <ele>78</ele>
        <time>2021-08-08T15:59:12Z</time>
      </trkpt>
      <trkpt lat="49.60448" lon="3.78644">
        <ele>78.97</ele>
        <time>2021-08-08T15:59:20Z</time>
      </trkpt>
      <trkpt lat="49.60407" lon="3.7858">
        <ele>78.97</ele>
        <time>2021-08-08T15:59:32Z</time>
      </trkpt>
      <trkpt lat="49.60377" lon="3.78532">
        <ele>77.52</ele>
        <time>2021-08-08T15:59:41Z</time>
      </trkpt>
      <trkpt lat="49.60332" lon="3.78461">
        <ele>77.52</ele>
        <time>2021-08-08T15:59:54Z</time>
      </trkpt>
      <trkpt lat="49.60296" lon="3.78404">
        <ele>77.52</ele>
        <time>2021-08-08T16:00:05Z</time>
      </trkpt>
      <trkpt lat="49.6026" lon="3.78347">
        <ele>79.45</ele>
        <time>2021-08-08T16:00:16Z</time>
      </trkpt>
      <trkpt lat="49.6022" lon="3.78285">
        <ele>79.45</ele>
        <time>2021-08-08T16:00:28Z</time>
      </trkpt>
      <trkpt lat="49.60186" lon="3.78232">
        <ele>79.45</ele>
        <time>2021-08-08T16:00:38Z</time>
      </trkpt>
      <trkpt lat="49.60152" lon="3.78178">
        <ele>79.45</ele>
        <time>2021-08-08T16:00:48Z</time>
      </trkpt>
      <trkpt lat="49.60109" lon="3.78111">
        <ele>79.45</ele>
        <time>2021-08-08T16:01:00Z</time>
      </trkpt>
      <trkpt lat="49.60072" lon="3.78054">
        <ele>79.45</ele>
        <time>2021-08-08T16:01:10Z</time>
      </trkpt>
      <trkpt lat="49.60038" lon="3.77999">
        <ele>79.45</ele>
        <time>2021-08-08T16:01:20Z</time>
      </trkpt>
      <trkpt lat="49.6" lon="3.7794">
        <ele>79.45</ele>
        <time>2021-08-08T16:01:31Z</time>
      </trkpt>
      <trkpt lat="49.59981" lon="3.77902">
        <ele>79.45</ele>
        <time>2021-08-08T16:01:37Z</time>
      </trkpt>
      <trkpt lat="49.59978" lon="3.77895">
        <ele>79.45</ele>
        <time>2021-08-08T16:01:38Z</time>
      </trkpt>
      <trkpt lat="49.59974" lon="3.7788">
        <ele>79.45</ele>
        <time>2021-08-08T16:01:40Z</time>
      </trkpt>
      <trkpt lat="49.59972" lon="3.77873">
        <ele>79.45</ele>
        <time>2021-08-08T16:01:41Z</time>
      </trkpt>
      <trkpt lat="49.59971" lon="3.77866">
        <ele>79.45</ele>
        <time>2021-08-08T16:01:42Z</time>
      </trkpt>
      <trkpt lat="49.5997" lon="3.77856">
        <ele>79.45</ele>
        <time>2021-08-08T16:01:43Z</time>
      </trkpt>
      <trkpt lat="49.59969" lon="3.77849">
        <ele>79.45</ele>
        <time>2021-08-08T16:01:44Z</time>
      </trkpt>
      <trkpt lat="49.59968" lon="3.77842">
        <ele>79.45</ele>
        <time>2021-08-08T16:01:45Z</time>
      </trkpt>
      <trkpt lat="49.59965" lon="3.77779">
        <ele>79.45</ele>
        <time>2021-08-08T16:01:53Z</time>
      </trkpt>
      <trkpt lat="49.59961" lon="3.77677">
        <ele>79.45</ele>
        <time>2021-08-08T16:02:06Z</time>
      </trkpt>
      <trkpt lat="49.59957" lon="3.77592">
        <ele>79.93</ele>
        <time>2021-08-08T16:02:17Z</time>
      </trkpt>
      <trkpt lat="49.59954" lon="3.77537">
        <ele>78.48</ele>
        <time>2021-08-08T16:02:24Z</time>
      </trkpt>
      <trkpt lat="49.59949" lon="3.77484">
        <ele>79.93</ele>
        <time>2021-08-08T16:02:31Z</time>
      </trkpt>
      <trkpt lat="49.59938" lon="3.77404">
        <ele>80.41</ele>
        <time>2021-08-08T16:02:42Z</time>
      </trkpt>
      <trkpt lat="49.59927" lon="3.77337">
        <ele>80.41</ele>
        <time>2021-08-08T16:02:51Z</time>
      </trkpt>
      <trkpt lat="49.5991" lon="3.7726">
        <ele>80.41</ele>
        <time>2021-08-08T16:03:02Z</time>
      </trkpt>
      <trkpt lat="49.59886" lon="3.77171">
        <ele>80.89</ele>
        <time>2021-08-08T16:03:15Z</time>
      </trkpt>
      <trkpt lat="49.59862" lon="3.77081">
        <ele>80.89</ele>
        <time>2021-08-08T16:03:28Z</time>
      </trkpt>
      <trkpt lat="49.59837" lon="3.77006">
        <ele>81.37</ele>
        <time>2021-08-08T16:03:39Z</time>
      </trkpt>
      <trkpt lat="49.59804" lon="3.76945">
        <ele>79.93</ele>
        <time>2021-08-08T16:03:49Z</time>
      </trkpt>
      <trkpt lat="49.59758" lon="3.76862">
        <ele>79.93</ele>
        <time>2021-08-08T16:04:02Z</time>
      </trkpt>
      <trkpt lat="49.59715" lon="3.76785">
        <ele>78.97</ele>
        <time>2021-08-08T16:04:14Z</time>
      </trkpt>
      <trkpt lat="49.59679" lon="3.76711">
        <ele>78.97</ele>
        <time>2021-08-08T16:04:25Z</time>
      </trkpt>
      <trkpt lat="49.59646" lon="3.76628">
        <ele>78.97</ele>
        <time>2021-08-08T16:04:37Z</time>
      </trkpt>
      <trkpt lat="49.59608" lon="3.76527">
        <ele>78.97</ele>
        <time>2021-08-08T16:04:51Z</time>
      </trkpt>
      <trkpt lat="49.59578" lon="3.76447">
        <ele>78.97</ele>
        <time>2021-08-08T16:05:02Z</time>
      </trkpt>
      <trkpt lat="49.59549" lon="3.76371">
        <ele>78.97</ele>
        <time>2021-08-08T16:05:13Z</time>
      </trkpt>
      <trkpt lat="49.59522" lon="3.76298">
        <ele>80.41</ele>
        <time>2021-08-08T16:05:24Z</time>
      </trkpt>
      <trkpt lat="49.59493" lon="3.76221">
        <ele>80.41</ele>
        <time>2021-08-08T16:05:36Z</time>
      </trkpt>
      <trkpt lat="49.59465" lon="3.76147">
        <ele>80.89</ele>
        <time>2021-08-08T16:05:46Z</time>
      </trkpt>
      <trkpt lat="49.59435" lon="3.76071">
        <ele>79.93</ele>
        <time>2021-08-08T16:05:56Z</time>
      </trkpt>
      <trkpt lat="49.59407" lon="3.76002">
        <ele>79.93</ele>
        <time>2021-08-08T16:06:05Z</time>
      </trkpt>
      <trkpt lat="49.59394" lon="3.75964">
        <ele>79.93</ele>
        <time>2021-08-08T16:06:10Z</time>
      </trkpt>
      <trkpt lat="49.59365" lon="3.75898">
        <ele>79.93</ele>
        <time>2021-08-08T16:06:19Z</time>
      </trkpt>
      <trkpt lat="49.59362" lon="3.7589">
        <ele>79.93</ele>
        <time>2021-08-08T16:06:20Z</time>
      </trkpt>
      <trkpt lat="49.5933" lon="3.75806">
        <ele>79.93</ele>
        <time>2021-08-08T16:06:31Z</time>
      </trkpt>
      <trkpt lat="49.59303" lon="3.75733">
        <ele>79.93</ele>
        <time>2021-08-08T16:06:40Z</time>
      </trkpt>
      <trkpt lat="49.59273" lon="3.75658">
        <ele>78.48</ele>
        <time>2021-08-08T16:06:49Z</time>
      </trkpt>
      <trkpt lat="49.59235" lon="3.75557">
        <ele>78.48</ele>
        <time>2021-08-08T16:07:01Z</time>
      </trkpt>
      <trkpt lat="49.59204" lon="3.75479">
        <ele>78.48</ele>
        <time>2021-08-08T16:07:11Z</time>
      </trkpt>
      <trkpt lat="49.59192" lon="3.75449">
        <ele>79.93</ele>
        <time>2021-08-08T16:07:15Z</time>
      </trkpt>
      <trkpt lat="49.5916" lon="3.75364">
        <ele>79.93</ele>
        <time>2021-08-08T16:07:26Z</time>
      </trkpt>
      <trkpt lat="49.59136" lon="3.75294">
        <ele>79.93</ele>
        <time>2021-08-08T16:07:35Z</time>
      </trkpt>
      <trkpt lat="49.59112" lon="3.75227">
        <ele>79.93</ele>
        <time>2021-08-08T16:07:44Z</time>
      </trkpt>
      <trkpt lat="49.59085" lon="3.7516">
        <ele>80.41</ele>
        <time>2021-08-08T16:07:53Z</time>
      </trkpt>
      <trkpt lat="49.59052" lon="3.75079">
        <ele>80.41</ele>
        <time>2021-08-08T16:08:04Z</time>
      </trkpt>
      <trkpt lat="49.59017" lon="3.74991">
        <ele>80.41</ele>
        <time>2021-08-08T16:08:15Z</time>
      </trkpt>
      <trkpt lat="49.58989" lon="3.74921">
        <ele>79.93</ele>
        <time>2021-08-08T16:08:24Z</time>
      </trkpt>
      <trkpt lat="49.58953" lon="3.74832">
        <ele>79.93</ele>
        <time>2021-08-08T16:08:35Z</time>
      </trkpt>
      <trkpt lat="49.58912" lon="3.74735">
        <ele>79.93</ele>
        <time>2021-08-08T16:08:47Z</time>
      </trkpt>
      <trkpt lat="49.58878" lon="3.74649">
        <ele>79.93</ele>
        <time>2021-08-08T16:08:58Z</time>
      </trkpt>
      <trkpt lat="49.58843" lon="3.74566">
        <ele>79.93</ele>
        <time>2021-08-08T16:09:09Z</time>
      </trkpt>
      <trkpt lat="49.58817" lon="3.745">
        <ele>79.93</ele>
        <time>2021-08-08T16:09:18Z</time>
      </trkpt>
      <trkpt lat="49.58784" lon="3.74418">
        <ele>79.93</ele>
        <time>2021-08-08T16:09:29Z</time>
      </trkpt>
      <trkpt lat="49.58754" lon="3.74346">
        <ele>80.41</ele>
        <time>2021-08-08T16:09:39Z</time>
      </trkpt>
      <trkpt lat="49.58721" lon="3.74264">
        <ele>80.41</ele>
        <time>2021-08-08T16:09:50Z</time>
      </trkpt>
      <trkpt lat="49.58687" lon="3.74179">
        <ele>78.97</ele>
        <time>2021-08-08T16:10:01Z</time>
      </trkpt>
      <trkpt lat="49.58657" lon="3.74103">
        <ele>78</ele>
        <time>2021-08-08T16:10:11Z</time>
      </trkpt>
      <trkpt lat="49.58634" lon="3.74029">
        <ele>78</ele>
        <time>2021-08-08T16:10:20Z</time>
      </trkpt>
      <trkpt lat="49.58617" lon="3.73939">
        <ele>78</ele>
        <time>2021-08-08T16:10:30Z</time>
      </trkpt>
      <trkpt lat="49.58598" lon="3.73825">
        <ele>77.52</ele>
        <time>2021-08-08T16:10:42Z</time>
      </trkpt>
      <trkpt lat="49.58592" lon="3.73787">
        <ele>76.56</ele>
        <time>2021-08-08T16:10:46Z</time>
      </trkpt>
      <trkpt lat="49.58585" lon="3.73744">
        <ele>77.52</ele>
        <time>2021-08-08T16:10:51Z</time>
      </trkpt>
      <trkpt lat="49.5857" lon="3.73656">
        <ele>78</ele>
        <time>2021-08-08T16:11:01Z</time>
      </trkpt>
      <trkpt lat="49.58557" lon="3.7357">
        <ele>76.56</ele>
        <time>2021-08-08T16:11:11Z</time>
      </trkpt>
      <trkpt lat="49.58553" lon="3.73546">
        <ele>78</ele>
        <time>2021-08-08T16:11:14Z</time>
      </trkpt>
      <trkpt lat="49.58538" lon="3.73457">
        <ele>78.97</ele>
        <time>2021-08-08T16:11:26Z</time>
      </trkpt>
      <trkpt lat="49.58536" lon="3.7345">
        <ele>78.97</ele>
        <time>2021-08-08T16:11:27Z</time>
      </trkpt>
      <trkpt lat="49.58534" lon="3.73446">
        <ele>78.97</ele>
        <time>2021-08-08T16:11:28Z</time>
      </trkpt>
      <trkpt lat="49.5853" lon="3.73443">
        <ele>78.97</ele>
        <time>2021-08-08T16:11:29Z</time>
      </trkpt>
      <trkpt lat="49.58526" lon="3.73442">
        <ele>78.97</ele>
        <time>2021-08-08T16:11:30Z</time>
      </trkpt>
      <trkpt lat="49.58522" lon="3.73443">
        <ele>78.97</ele>
        <time>2021-08-08T16:11:31Z</time>
      </trkpt>
      <trkpt lat="49.58517" lon="3.73444">
        <ele>78.97</ele>
        <time>2021-08-08T16:11:32Z</time>
      </trkpt>
      <trkpt lat="49.5847" lon="3.73449">
        <ele>78.48</ele>
        <time>2021-08-08T16:11:41Z</time>
      </trkpt>
      <trkpt lat="49.58461" lon="3.73448">
        <ele>78.48</ele>
        <time>2021-08-08T16:11:43Z</time>
      </trkpt>
      <trkpt lat="49.58448" lon="3.73443">
        <ele>78.48</ele>
        <time>2021-08-08T16:11:46Z</time>
      </trkpt>
      <trkpt lat="49.58444" lon="3.7344">
        <ele>78.48</ele>
        <time>2021-08-08T16:11:47Z</time>
      </trkpt>
      <trkpt lat="49.58415" lon="3.73406">
        <ele>77.52</ele>
        <time>2021-08-08T16:11:54Z</time>
      </trkpt>
      <trkpt lat="49.58411" lon="3.73401">
        <ele>77.52</ele>
        <time>2021-08-08T16:11:55Z</time>
      </trkpt>
      <trkpt lat="49.58378" lon="3.73348">
        <ele>77.04</ele>
        <time>2021-08-08T16:12:04Z</time>
      </trkpt>
      <trkpt lat="49.58353" lon="3.7331">
        <ele>77.04</ele>
        <time>2021-08-08T16:12:11Z</time>
      </trkpt>
      <trkpt lat="49.58349" lon="3.73303">
        <ele>77.04</ele>
        <time>2021-08-08T16:12:12Z</time>
      </trkpt>
      <trkpt lat="49.58347" lon="3.73297">
        <ele>77.04</ele>
        <time>2021-08-08T16:12:13Z</time>
      </trkpt>
      <trkpt lat="49.58345" lon="3.73289">
        <ele>77.04</ele>
        <time>2021-08-08T16:12:14Z</time>
      </trkpt>
      <trkpt lat="49.58343" lon="3.73282">
        <ele>77.04</ele>
        <time>2021-08-08T16:12:15Z</time>
      </trkpt>
      <trkpt lat="49.58342" lon="3.73274">
        <ele>77.04</ele>
        <time>2021-08-08T16:12:16Z</time>
      </trkpt>
      <trkpt lat="49.58326" lon="3.73194">
        <ele>77.04</ele>
        <time>2021-08-08T16:12:26Z</time>
      </trkpt>
      <trkpt lat="49.58322" lon="3.73179">
        <ele>76.56</ele>
        <time>2021-08-08T16:12:28Z</time>
      </trkpt>
      <trkpt lat="49.5832" lon="3.73172">
        <ele>76.56</ele>
        <time>2021-08-08T16:12:29Z</time>
      </trkpt>
      <trkpt lat="49.58317" lon="3.73165">
        <ele>76.56</ele>
        <time>2021-08-08T16:12:30Z</time>
      </trkpt>
      <trkpt lat="49.58313" lon="3.73157">
        <ele>76.56</ele>
        <time>2021-08-08T16:12:31Z</time>
      </trkpt>
      <trkpt lat="49.58309" lon="3.73151">
        <ele>76.56</ele>
        <time>2021-08-08T16:12:32Z</time>
      </trkpt>
      <trkpt lat="49.58306" lon="3.73145">
        <ele>76.56</ele>
        <time>2021-08-08T16:12:33Z</time>
      </trkpt>
      <trkpt lat="49.58301" lon="3.73139">
        <ele>76.56</ele>
        <time>2021-08-08T16:12:34Z</time>
      </trkpt>
      <trkpt lat="49.58257" lon="3.73086">
        <ele>76.08</ele>
        <time>2021-08-08T16:12:44Z</time>
      </trkpt>
      <trkpt lat="49.5822" lon="3.73041">
        <ele>76.08</ele>
        <time>2021-08-08T16:12:53Z</time>
      </trkpt>
      <trkpt lat="49.58207" lon="3.73028">
        <ele>76.08</ele>
        <time>2021-08-08T16:12:56Z</time>
      </trkpt>
      <trkpt lat="49.58186" lon="3.73002">
        <ele>77.04</ele>
        <time>2021-08-08T16:13:01Z</time>
      </trkpt>
      <trkpt lat="49.58183" lon="3.72995">
        <ele>77.04</ele>
        <time>2021-08-08T16:13:02Z</time>
      </trkpt>
      <trkpt lat="49.5818" lon="3.7299">
        <ele>77.04</ele>
        <time>2021-08-08T16:13:03Z</time>
      </trkpt>
      <trkpt lat="49.58176" lon="3.72985">
        <ele>77.04</ele>
        <time>2021-08-08T16:13:04Z</time>
      </trkpt>
      <trkpt lat="49.58173" lon="3.72983">
        <ele>77.04</ele>
        <time>2021-08-08T16:13:05Z</time>
      </trkpt>
      <trkpt lat="49.58168" lon="3.72981">
        <ele>77.04</ele>
        <time>2021-08-08T16:13:06Z</time>
      </trkpt>
      <trkpt lat="49.58164" lon="3.72981">
        <ele>77.04</ele>
        <time>2021-08-08T16:13:07Z</time>
      </trkpt>
      <trkpt lat="49.58159" lon="3.72982">
        <ele>77.04</ele>
        <time>2021-08-08T16:13:08Z</time>
      </trkpt>
      <trkpt lat="49.58123" lon="3.72988">
        <ele>77.04</ele>
        <time>2021-08-08T16:13:15Z</time>
      </trkpt>
      <trkpt lat="49.5807" lon="3.72992">
        <ele>78</ele>
        <time>2021-08-08T16:13:26Z</time>
      </trkpt>
      <trkpt lat="49.58066" lon="3.72991">
        <ele>78.48</ele>
        <time>2021-08-08T16:13:27Z</time>
      </trkpt>
      <trkpt lat="49.58061" lon="3.72989">
        <ele>78.97</ele>
        <time>2021-08-08T16:13:28Z</time>
      </trkpt>
      <trkpt lat="49.58027" lon="3.72974">
        <ele>79.45</ele>
        <time>2021-08-08T16:13:36Z</time>
      </trkpt>
      <trkpt lat="49.57996" lon="3.72958">
        <ele>79.93</ele>
        <time>2021-08-08T16:13:43Z</time>
      </trkpt>
      <trkpt lat="49.57966" lon="3.72943">
        <ele>81.37</ele>
        <time>2021-08-08T16:13:51Z</time>
      </trkpt>
      <trkpt lat="49.57951" lon="3.72934">
        <ele>81.37</ele>
        <time>2021-08-08T16:13:55Z</time>
      </trkpt>
      <trkpt lat="49.57947" lon="3.72931">
        <ele>81.37</ele>
        <time>2021-08-08T16:13:56Z</time>
      </trkpt>
      <trkpt lat="49.57944" lon="3.72926">
        <ele>81.37</ele>
        <time>2021-08-08T16:13:57Z</time>
      </trkpt>
      <trkpt lat="49.57942" lon="3.72921">
        <ele>81.37</ele>
        <time>2021-08-08T16:13:58Z</time>
      </trkpt>
      <trkpt lat="49.5794" lon="3.72915">
        <ele>81.37</ele>
        <time>2021-08-08T16:13:59Z</time>
      </trkpt>
      <trkpt lat="49.57932" lon="3.72885">
        <ele>81.37</ele>
        <time>2021-08-08T16:14:05Z</time>
      </trkpt>
      <trkpt lat="49.57928" lon="3.72872">
        <ele>79.93</ele>
        <time>2021-08-08T16:14:07Z</time>
      </trkpt>
      <trkpt lat="49.57926" lon="3.72865">
        <ele>79.93</ele>
        <time>2021-08-08T16:14:08Z</time>
      </trkpt>
      <trkpt lat="49.57924" lon="3.72858">
        <ele>78.97</ele>
        <time>2021-08-08T16:14:09Z</time>
      </trkpt>
      <trkpt lat="49.57921" lon="3.72843">
        <ele>78.48</ele>
        <time>2021-08-08T16:14:11Z</time>
      </trkpt>
      <trkpt lat="49.5792" lon="3.72835">
        <ele>78.48</ele>
        <time>2021-08-08T16:14:12Z</time>
      </trkpt>
      <trkpt lat="49.57918" lon="3.72828">
        <ele>78.48</ele>
        <time>2021-08-08T16:14:13Z</time>
      </trkpt>
      <trkpt lat="49.57914" lon="3.72815">
        <ele>78</ele>
        <time>2021-08-08T16:14:15Z</time>
      </trkpt>
      <trkpt lat="49.57907" lon="3.72794">
        <ele>77.52</ele>
        <time>2021-08-08T16:14:18Z</time>
      </trkpt>
      <trkpt lat="49.57892" lon="3.72729">
        <ele>77.04</ele>
        <time>2021-08-08T16:14:26Z</time>
      </trkpt>
      <trkpt lat="49.57882" lon="3.72692">
        <ele>77.04</ele>
        <time>2021-08-08T16:14:31Z</time>
      </trkpt>
      <trkpt lat="49.5788" lon="3.72684">
        <ele>77.04</ele>
        <time>2021-08-08T16:14:32Z</time>
      </trkpt>
      <trkpt lat="49.57879" lon="3.72677">
        <ele>77.04</ele>
        <time>2021-08-08T16:14:33Z</time>
      </trkpt>
      <trkpt lat="49.57869" lon="3.72632">
        <ele>77.04</ele>
        <time>2021-08-08T16:14:39Z</time>
      </trkpt>
      <trkpt lat="49.57857" lon="3.72589">
        <ele>77.04</ele>
        <time>2021-08-08T16:14:45Z</time>
      </trkpt>
      <trkpt lat="49.57855" lon="3.72582">
        <ele>77.04</ele>
        <time>2021-08-08T16:14:46Z</time>
      </trkpt>
      <trkpt lat="49.57851" lon="3.72566">
        <ele>77.04</ele>
        <time>2021-08-08T16:14:48Z</time>
      </trkpt>
      <trkpt lat="49.5785" lon="3.72559">
        <ele>77.04</ele>
        <time>2021-08-08T16:14:49Z</time>
      </trkpt>
      <trkpt lat="49.57847" lon="3.72551">
        <ele>77.52</ele>
        <time>2021-08-08T16:14:50Z</time>
      </trkpt>
      <trkpt lat="49.57846" lon="3.72544">
        <ele>77.52</ele>
        <time>2021-08-08T16:14:51Z</time>
      </trkpt>
      <trkpt lat="49.57843" lon="3.72537">
        <ele>77.52</ele>
        <time>2021-08-08T16:14:52Z</time>
      </trkpt>
      <trkpt lat="49.57838" lon="3.72515">
        <ele>78.48</ele>
        <time>2021-08-08T16:14:55Z</time>
      </trkpt>
      <trkpt lat="49.57821" lon="3.72446">
        <ele>78.48</ele>
        <time>2021-08-08T16:15:04Z</time>
      </trkpt>
      <trkpt lat="49.57806" lon="3.7238">
        <ele>78.48</ele>
        <time>2021-08-08T16:15:13Z</time>
      </trkpt>
      <trkpt lat="49.57788" lon="3.72307">
        <ele>79.45</ele>
        <time>2021-08-08T16:15:23Z</time>
      </trkpt>
      <trkpt lat="49.57786" lon="3.723">
        <ele>79.45</ele>
        <time>2021-08-08T16:15:24Z</time>
      </trkpt>
      <trkpt lat="49.57784" lon="3.72293">
        <ele>79.45</ele>
        <time>2021-08-08T16:15:25Z</time>
      </trkpt>
      <trkpt lat="49.57769" lon="3.72244">
        <ele>79.45</ele>
        <time>2021-08-08T16:15:32Z</time>
      </trkpt>
      <trkpt lat="49.5775" lon="3.72165">
        <ele>79.45</ele>
        <time>2021-08-08T16:15:42Z</time>
      </trkpt>
      <trkpt lat="49.57748" lon="3.72157">
        <ele>79.45</ele>
        <time>2021-08-08T16:15:43Z</time>
      </trkpt>
      <trkpt lat="49.57746" lon="3.72149">
        <ele>79.93</ele>
        <time>2021-08-08T16:15:44Z</time>
      </trkpt>
      <trkpt lat="49.5773" lon="3.72081">
        <ele>78.48</ele>
        <time>2021-08-08T16:15:52Z</time>
      </trkpt>
      <trkpt lat="49.57714" lon="3.72011">
        <ele>78.97</ele>
        <time>2021-08-08T16:16:00Z</time>
      </trkpt>
      <trkpt lat="49.57704" lon="3.71979">
        <ele>78.97</ele>
        <time>2021-08-08T16:16:04Z</time>
      </trkpt>
      <trkpt lat="49.57702" lon="3.71971">
        <ele>78.97</ele>
        <time>2021-08-08T16:16:05Z</time>
      </trkpt>
      <trkpt lat="49.577" lon="3.71964">
        <ele>78.97</ele>
        <time>2021-08-08T16:16:06Z</time>
      </trkpt>
      <trkpt lat="49.57699" lon="3.71957">
        <ele>78.97</ele>
        <time>2021-08-08T16:16:07Z</time>
      </trkpt>
      <trkpt lat="49.57697" lon="3.71949">
        <ele>78.97</ele>
        <time>2021-08-08T16:16:08Z</time>
      </trkpt>
      <trkpt lat="49.57696" lon="3.71941">
        <ele>78.97</ele>
        <time>2021-08-08T16:16:09Z</time>
      </trkpt>
      <trkpt lat="49.57694" lon="3.71933">
        <ele>78.97</ele>
        <time>2021-08-08T16:16:10Z</time>
      </trkpt>
      <trkpt lat="49.57692" lon="3.71926">
        <ele>78.97</ele>
        <time>2021-08-08T16:16:11Z</time>
      </trkpt>
      <trkpt lat="49.5769" lon="3.71918">
        <ele>78.97</ele>
        <time>2021-08-08T16:16:12Z</time>
      </trkpt>
      <trkpt lat="49.57679" lon="3.71852">
        <ele>78.97</ele>
        <time>2021-08-08T16:16:20Z</time>
      </trkpt>
      <trkpt lat="49.57675" lon="3.71839">
        <ele>78.97</ele>
        <time>2021-08-08T16:16:22Z</time>
      </trkpt>
      <trkpt lat="49.57674" lon="3.71833">
        <ele>78.97</ele>
        <time>2021-08-08T16:16:23Z</time>
      </trkpt>
      <trkpt lat="49.57673" lon="3.71826">
        <ele>78.97</ele>
        <time>2021-08-08T16:16:24Z</time>
      </trkpt>
      <trkpt lat="49.57668" lon="3.71807">
        <ele>78.48</ele>
        <time>2021-08-08T16:16:27Z</time>
      </trkpt>
      <trkpt lat="49.57666" lon="3.71801">
        <ele>78.48</ele>
        <time>2021-08-08T16:16:28Z</time>
      </trkpt>
      <trkpt lat="49.57663" lon="3.71795">
        <ele>78.48</ele>
        <time>2021-08-08T16:16:29Z</time>
      </trkpt>
      <trkpt lat="49.5766" lon="3.71789">
        <ele>78</ele>
        <time>2021-08-08T16:16:30Z</time>
      </trkpt>
      <trkpt lat="49.57657" lon="3.71783">
        <ele>78</ele>
        <time>2021-08-08T16:16:31Z</time>
      </trkpt>
      <trkpt lat="49.57645" lon="3.71767">
        <ele>78</ele>
        <time>2021-08-08T16:16:34Z</time>
      </trkpt>
      <trkpt lat="49.57639" lon="3.71763">
        <ele>78</ele>
        <time>2021-08-08T16:16:35Z</time>
      </trkpt>
      <trkpt lat="49.57625" lon="3.71747">
        <ele>78</ele>
        <time>2021-08-08T16:16:38Z</time>
      </trkpt>
      <trkpt lat="49.57605" lon="3.71713">
        <ele>78</ele>
        <time>2021-08-08T16:16:44Z</time>
      </trkpt>
      <trkpt lat="49.5758" lon="3.71669">
        <ele>78.48</ele>
        <time>2021-08-08T16:16:51Z</time>
      </trkpt>
      <trkpt lat="49.57557" lon="3.71616">
        <ele>78.48</ele>
        <time>2021-08-08T16:16:58Z</time>
      </trkpt>
      <trkpt lat="49.57549" lon="3.71592">
        <ele>78.48</ele>
        <time>2021-08-08T16:17:01Z</time>
      </trkpt>
      <trkpt lat="49.57547" lon="3.71584">
        <ele>78.48</ele>
        <time>2021-08-08T16:17:02Z</time>
      </trkpt>
      <trkpt lat="49.57548" lon="3.71576">
        <ele>78.48</ele>
        <time>2021-08-08T16:17:03Z</time>
      </trkpt>
      <trkpt lat="49.57551" lon="3.71525">
        <ele>78.48</ele>
        <time>2021-08-08T16:17:10Z</time>
      </trkpt>
      <trkpt lat="49.57548" lon="3.71483">
        <ele>79.93</ele>
        <time>2021-08-08T16:17:15Z</time>
      </trkpt>
      <trkpt lat="49.57537" lon="3.71409">
        <ele>81.37</ele>
        <time>2021-08-08T16:17:26Z</time>
      </trkpt>
      <trkpt lat="49.5753" lon="3.71331">
        <ele>80.89</ele>
        <time>2021-08-08T16:17:38Z</time>
      </trkpt>
      <trkpt lat="49.57525" lon="3.71258">
        <ele>81.37</ele>
        <time>2021-08-08T16:17:50Z</time>
      </trkpt>
      <trkpt lat="49.57522" lon="3.71201">
        <ele>81.37</ele>
        <time>2021-08-08T16:17:59Z</time>
      </trkpt>
      <trkpt lat="49.57518" lon="3.71144">
        <ele>81.37</ele>
        <time>2021-08-08T16:18:09Z</time>
      </trkpt>
      <trkpt lat="49.57515" lon="3.71093">
        <ele>81.37</ele>
        <time>2021-08-08T16:18:18Z</time>
      </trkpt>
      <trkpt lat="49.57514" lon="3.71071">
        <ele>81.37</ele>
        <time>2021-08-08T16:18:23Z</time>
      </trkpt>
      <trkpt lat="49.57512" lon="3.71069">
        <ele>81.37</ele>
        <time>2021-08-08T16:18:24Z</time>
      </trkpt>
      <trkpt lat="49.5751" lon="3.71068">
        <ele>81.37</ele>
        <time>2021-08-08T16:18:25Z</time>
      </trkpt>
      <trkpt lat="49.57509" lon="3.71068">
        <ele>81.85</ele>
        <time>2021-08-08T16:18:26Z</time>
      </trkpt>
      <trkpt lat="49.57506" lon="3.71069">
        <ele>81.85</ele>
        <time>2021-08-08T16:18:27Z</time>
      </trkpt>
      <trkpt lat="49.57504" lon="3.71069">
        <ele>81.85</ele>
        <time>2021-08-08T16:18:28Z</time>
      </trkpt>
      <trkpt lat="49.57502" lon="3.7107">
        <ele>81.85</ele>
        <time>2021-08-08T16:18:29Z</time>
      </trkpt>
      <trkpt lat="49.57499" lon="3.71072">
        <ele>81.85</ele>
        <time>2021-08-08T16:18:30Z</time>
      </trkpt>
      <trkpt lat="49.57496" lon="3.71073">
        <ele>81.85</ele>
        <time>2021-08-08T16:18:31Z</time>
      </trkpt>
      <trkpt lat="49.57493" lon="3.71074">
        <ele>81.85</ele>
        <time>2021-08-08T16:18:32Z</time>
      </trkpt>
      <trkpt lat="49.5749" lon="3.71076">
        <ele>81.85</ele>
        <time>2021-08-08T16:18:33Z</time>
      </trkpt>
      <trkpt lat="49.57465" lon="3.71088">
        <ele>82.33</ele>
        <time>2021-08-08T16:18:41Z</time>
      </trkpt>
      <trkpt lat="49.57424" lon="3.71107">
        <ele>83.77</ele>
        <time>2021-08-08T16:18:52Z</time>
      </trkpt>
      <trkpt lat="49.57402" lon="3.71116">
        <ele>83.77</ele>
        <time>2021-08-08T16:18:58Z</time>
      </trkpt>
      <trkpt lat="49.5738" lon="3.71129">
        <ele>84.25</ele>
        <time>2021-08-08T16:19:04Z</time>
      </trkpt>
      <trkpt lat="49.57373" lon="3.71137">
        <ele>84.25</ele>
        <time>2021-08-08T16:19:06Z</time>
      </trkpt>
      <trkpt lat="49.57347" lon="3.71178">
        <ele>85.21</ele>
        <time>2021-08-08T16:19:16Z</time>
      </trkpt>
      <trkpt lat="49.57326" lon="3.712">
        <ele>87.14</ele>
        <time>2021-08-08T16:19:24Z</time>
      </trkpt>
      <trkpt lat="49.57303" lon="3.712">
        <ele>87.62</ele>
        <time>2021-08-08T16:19:31Z</time>
      </trkpt>
      <trkpt lat="49.57275" lon="3.71188">
        <ele>88.58</ele>
        <time>2021-08-08T16:19:39Z</time>
      </trkpt>
      <trkpt lat="49.57237" lon="3.71172">
        <ele>88.58</ele>
        <time>2021-08-08T16:19:48Z</time>
      </trkpt>
      <trkpt lat="49.57218" lon="3.71164">
        <ele>87.62</ele>
        <time>2021-08-08T16:19:52Z</time>
      </trkpt>
      <trkpt lat="49.57212" lon="3.71164">
        <ele>87.62</ele>
        <time>2021-08-08T16:19:53Z</time>
      </trkpt>
      <trkpt lat="49.57206" lon="3.71164">
        <ele>86.66</ele>
        <time>2021-08-08T16:19:54Z</time>
      </trkpt>
      <trkpt lat="49.57199" lon="3.71166">
        <ele>85.69</ele>
        <time>2021-08-08T16:19:55Z</time>
      </trkpt>
      <trkpt lat="49.57193" lon="3.71168">
        <ele>85.69</ele>
        <time>2021-08-08T16:19:56Z</time>
      </trkpt>
      <trkpt lat="49.57187" lon="3.71173">
        <ele>85.69</ele>
        <time>2021-08-08T16:19:57Z</time>
      </trkpt>
      <trkpt lat="49.57181" lon="3.71179">
        <ele>84.73</ele>
        <time>2021-08-08T16:19:58Z</time>
      </trkpt>
      <trkpt lat="49.57176" lon="3.71186">
        <ele>84.25</ele>
        <time>2021-08-08T16:19:59Z</time>
      </trkpt>
      <trkpt lat="49.57172" lon="3.71196">
        <ele>83.29</ele>
        <time>2021-08-08T16:20:00Z</time>
      </trkpt>
      <trkpt lat="49.57168" lon="3.71206">
        <ele>82.33</ele>
        <time>2021-08-08T16:20:01Z</time>
      </trkpt>
      <trkpt lat="49.57152" lon="3.71246">
        <ele>79.93</ele>
        <time>2021-08-08T16:20:05Z</time>
      </trkpt>
      <trkpt lat="49.57148" lon="3.71254">
        <ele>78.97</ele>
        <time>2021-08-08T16:20:06Z</time>
      </trkpt>
      <trkpt lat="49.57142" lon="3.71261">
        <ele>78.97</ele>
        <time>2021-08-08T16:20:07Z</time>
      </trkpt>
      <trkpt lat="49.57137" lon="3.71266">
        <ele>78.97</ele>
        <time>2021-08-08T16:20:08Z</time>
      </trkpt>
      <trkpt lat="49.57133" lon="3.71268">
        <ele>78.97</ele>
        <time>2021-08-08T16:20:09Z</time>
      </trkpt>
      <trkpt lat="49.57129" lon="3.71268">
        <ele>78.97</ele>
        <time>2021-08-08T16:20:10Z</time>
      </trkpt>
      <trkpt lat="49.57127" lon="3.71266">
        <ele>78.97</ele>
        <time>2021-08-08T16:20:11Z</time>
      </trkpt>
      <trkpt lat="49.57126" lon="3.71262">
        <ele>78.97</ele>
        <time>2021-08-08T16:20:12Z</time>
      </trkpt>
      <trkpt lat="49.57127" lon="3.71259">
        <ele>78.97</ele>
        <time>2021-08-08T16:20:13Z</time>
      </trkpt>
      <trkpt lat="49.57128" lon="3.71256">
        <ele>78.97</ele>
        <time>2021-08-08T16:20:14Z</time>
      </trkpt>
      <trkpt lat="49.57131" lon="3.71253">
        <ele>78.97</ele>
        <time>2021-08-08T16:20:15Z</time>
      </trkpt>
      <trkpt lat="49.57133" lon="3.7125">
        <ele>78.97</ele>
        <time>2021-08-08T16:20:16Z</time>
      </trkpt>
      <trkpt lat="49.57136" lon="3.71247">
        <ele>78.97</ele>
        <time>2021-08-08T16:20:17Z</time>
      </trkpt>
      <trkpt lat="49.57139" lon="3.71244">
        <ele>78.97</ele>
        <time>2021-08-08T16:20:18Z</time>
      </trkpt>
      <trkpt lat="49.57141" lon="3.7124">
        <ele>78.97</ele>
        <time>2021-08-08T16:20:19Z</time>
      </trkpt>
      <trkpt lat="49.57144" lon="3.71235">
        <ele>78.97</ele>
        <time>2021-08-08T16:20:20Z</time>
      </trkpt>
      <trkpt lat="49.57146" lon="3.7123">
        <ele>78.97</ele>
        <time>2021-08-08T16:20:21Z</time>
      </trkpt>
      <trkpt lat="49.57149" lon="3.71224">
        <ele>78.97</ele>
        <time>2021-08-08T16:20:22Z</time>
      </trkpt>
      <trkpt lat="49.57153" lon="3.71213">
        <ele>80.41</ele>
        <time>2021-08-08T16:20:24Z</time>
      </trkpt>
      <trkpt lat="49.57164" lon="3.71172">
        <ele>79.93</ele>
        <time>2021-08-08T16:20:31Z</time>
      </trkpt>
      <trkpt lat="49.57167" lon="3.71167">
        <ele>79.93</ele>
        <time>2021-08-08T16:20:32Z</time>
      </trkpt>
      <trkpt lat="49.5717" lon="3.71162">
        <ele>79.93</ele>
        <time>2021-08-08T16:20:33Z</time>
      </trkpt>
      <trkpt lat="49.57173" lon="3.71156">
        <ele>79.93</ele>
        <time>2021-08-08T16:20:34Z</time>
      </trkpt>
      <trkpt lat="49.57176" lon="3.71151">
        <ele>79.93</ele>
        <time>2021-08-08T16:20:35Z</time>
      </trkpt>
      <trkpt lat="49.5718" lon="3.71146">
        <ele>79.93</ele>
        <time>2021-08-08T16:20:36Z</time>
      </trkpt>
      <trkpt lat="49.57183" lon="3.71143">
        <ele>79.93</ele>
        <time>2021-08-08T16:20:37Z</time>
      </trkpt>
      <trkpt lat="49.57187" lon="3.7114">
        <ele>79.93</ele>
        <time>2021-08-08T16:20:38Z</time>
      </trkpt>
      <trkpt lat="49.57215" lon="3.71133">
        <ele>81.37</ele>
        <time>2021-08-08T16:20:45Z</time>
      </trkpt>
      <trkpt lat="49.57241" lon="3.71139">
        <ele>81.85</ele>
        <time>2021-08-08T16:20:52Z</time>
      </trkpt>
      <trkpt lat="49.57251" lon="3.71134">
        <ele>81.85</ele>
        <time>2021-08-08T16:20:55Z</time>
      </trkpt>
      <trkpt lat="49.57255" lon="3.7113">
        <ele>81.85</ele>
        <time>2021-08-08T16:20:56Z</time>
      </trkpt>
      <trkpt lat="49.57258" lon="3.71125">
        <ele>81.85</ele>
        <time>2021-08-08T16:20:57Z</time>
      </trkpt>
      <trkpt lat="49.57282" lon="3.71073">
        <ele>81.85</ele>
        <time>2021-08-08T16:21:06Z</time>
      </trkpt>
      <trkpt lat="49.5731" lon="3.71016">
        <ele>82.81</ele>
        <time>2021-08-08T16:21:16Z</time>
      </trkpt>
      <trkpt lat="49.57316" lon="3.71005">
        <ele>82.81</ele>
        <time>2021-08-08T16:21:18Z</time>
      </trkpt>
      <trkpt lat="49.57326" lon="3.70989">
        <ele>82.81</ele>
        <time>2021-08-08T16:21:21Z</time>
      </trkpt>
      <trkpt lat="49.57329" lon="3.70983">
        <ele>82.81</ele>
        <time>2021-08-08T16:21:22Z</time>
      </trkpt>
      <trkpt lat="49.57341" lon="3.7096">
        <ele>82.81</ele>
        <time>2021-08-08T16:21:26Z</time>
      </trkpt>
      <trkpt lat="49.57343" lon="3.70954">
        <ele>82.81</ele>
        <time>2021-08-08T16:21:27Z</time>
      </trkpt>
      <trkpt lat="49.57344" lon="3.70948">
        <ele>82.81</ele>
        <time>2021-08-08T16:21:28Z</time>
      </trkpt>
      <trkpt lat="49.57345" lon="3.70941">
        <ele>82.81</ele>
        <time>2021-08-08T16:21:29Z</time>
      </trkpt>
      <trkpt lat="49.57346" lon="3.70933">
        <ele>82.81</ele>
        <time>2021-08-08T16:21:30Z</time>
      </trkpt>
      <trkpt lat="49.57346" lon="3.70925">
        <ele>82.81</ele>
        <time>2021-08-08T16:21:31Z</time>
      </trkpt>
      <trkpt lat="49.57342" lon="3.70891">
        <ele>82.81</ele>
        <time>2021-08-08T16:21:36Z</time>
      </trkpt>
      <trkpt lat="49.57335" lon="3.70813">
        <ele>81.37</ele>
        <time>2021-08-08T16:21:45Z</time>
      </trkpt>
      <trkpt lat="49.5733" lon="3.70764">
        <ele>80.41</ele>
        <time>2021-08-08T16:21:50Z</time>
      </trkpt>
      <trkpt lat="49.57327" lon="3.70684">
        <ele>79.93</ele>
        <time>2021-08-08T16:21:58Z</time>
      </trkpt>
      <trkpt lat="49.57319" lon="3.70592">
        <ele>79.45</ele>
        <time>2021-08-08T16:22:07Z</time>
      </trkpt>
      <trkpt lat="49.57318" lon="3.70582">
        <ele>79.45</ele>
        <time>2021-08-08T16:22:08Z</time>
      </trkpt>
      <trkpt lat="49.57318" lon="3.70573">
        <ele>79.45</ele>
        <time>2021-08-08T16:22:09Z</time>
      </trkpt>
      <trkpt lat="49.57319" lon="3.70564">
        <ele>79.45</ele>
        <time>2021-08-08T16:22:10Z</time>
      </trkpt>
      <trkpt lat="49.57321" lon="3.70557">
        <ele>79.45</ele>
        <time>2021-08-08T16:22:11Z</time>
      </trkpt>
      <trkpt lat="49.57325" lon="3.70552">
        <ele>79.45</ele>
        <time>2021-08-08T16:22:12Z</time>
      </trkpt>
      <trkpt lat="49.5733" lon="3.7055">
        <ele>79.45</ele>
        <time>2021-08-08T16:22:13Z</time>
      </trkpt>
      <trkpt lat="49.57335" lon="3.70548">
        <ele>79.45</ele>
        <time>2021-08-08T16:22:14Z</time>
      </trkpt>
      <trkpt lat="49.5734" lon="3.70547">
        <ele>79.45</ele>
        <time>2021-08-08T16:22:15Z</time>
      </trkpt>
      <trkpt lat="49.57353" lon="3.70546">
        <ele>78.97</ele>
        <time>2021-08-08T16:22:18Z</time>
      </trkpt>
      <trkpt lat="49.57358" lon="3.70545">
        <ele>78.97</ele>
        <time>2021-08-08T16:22:19Z</time>
      </trkpt>
      <trkpt lat="49.57362" lon="3.70544">
        <ele>78.97</ele>
        <time>2021-08-08T16:22:20Z</time>
      </trkpt>
      <trkpt lat="49.57397" lon="3.70529">
        <ele>78.97</ele>
        <time>2021-08-08T16:22:28Z</time>
      </trkpt>
      <trkpt lat="49.5741" lon="3.70521">
        <ele>78.97</ele>
        <time>2021-08-08T16:22:31Z</time>
      </trkpt>
      <trkpt lat="49.57433" lon="3.70494">
        <ele>78.97</ele>
        <time>2021-08-08T16:22:37Z</time>
      </trkpt>
      <trkpt lat="49.57446" lon="3.70472">
        <ele>78.97</ele>
        <time>2021-08-08T16:22:41Z</time>
      </trkpt>
      <trkpt lat="49.57452" lon="3.70459">
        <ele>78</ele>
        <time>2021-08-08T16:22:43Z</time>
      </trkpt>
      <trkpt lat="49.57454" lon="3.70451">
        <ele>78</ele>
        <time>2021-08-08T16:22:44Z</time>
      </trkpt>
      <trkpt lat="49.57455" lon="3.70444">
        <ele>78</ele>
        <time>2021-08-08T16:22:45Z</time>
      </trkpt>
      <trkpt lat="49.57456" lon="3.70436">
        <ele>78</ele>
        <time>2021-08-08T16:22:46Z</time>
      </trkpt>
      <trkpt lat="49.57456" lon="3.70429">
        <ele>78</ele>
        <time>2021-08-08T16:22:47Z</time>
      </trkpt>
      <trkpt lat="49.57456" lon="3.70421">
        <ele>78</ele>
        <time>2021-08-08T16:22:48Z</time>
      </trkpt>
      <trkpt lat="49.57456" lon="3.70414">
        <ele>78</ele>
        <time>2021-08-08T16:22:49Z</time>
      </trkpt>
      <trkpt lat="49.57455" lon="3.70406">
        <ele>78</ele>
        <time>2021-08-08T16:22:50Z</time>
      </trkpt>
      <trkpt lat="49.57454" lon="3.704">
        <ele>78</ele>
        <time>2021-08-08T16:22:51Z</time>
      </trkpt>
      <trkpt lat="49.57452" lon="3.70392">
        <ele>78</ele>
        <time>2021-08-08T16:22:52Z</time>
      </trkpt>
      <trkpt lat="49.57445" lon="3.70358">
        <ele>78</ele>
        <time>2021-08-08T16:22:57Z</time>
      </trkpt>
      <trkpt lat="49.57444" lon="3.70351">
        <ele>78</ele>
        <time>2021-08-08T16:22:58Z</time>
      </trkpt>
      <trkpt lat="49.57441" lon="3.70336">
        <ele>78</ele>
        <time>2021-08-08T16:23:00Z</time>
      </trkpt>
      <trkpt lat="49.57436" lon="3.70303">
        <ele>77.52</ele>
        <time>2021-08-08T16:23:05Z</time>
      </trkpt>
      <trkpt lat="49.57435" lon="3.70296">
        <ele>77.52</ele>
        <time>2021-08-08T16:23:06Z</time>
      </trkpt>
      <trkpt lat="49.57435" lon="3.70289">
        <ele>77.52</ele>
        <time>2021-08-08T16:23:07Z</time>
      </trkpt>
      <trkpt lat="49.57434" lon="3.70282">
        <ele>77.52</ele>
        <time>2021-08-08T16:23:08Z</time>
      </trkpt>
      <trkpt lat="49.57434" lon="3.70275">
        <ele>77.52</ele>
        <time>2021-08-08T16:23:09Z</time>
      </trkpt>
      <trkpt lat="49.57433" lon="3.70267">
        <ele>77.04</ele>
        <time>2021-08-08T16:23:10Z</time>
      </trkpt>
      <trkpt lat="49.57431" lon="3.70259">
        <ele>77.04</ele>
        <time>2021-08-08T16:23:11Z</time>
      </trkpt>
      <trkpt lat="49.57429" lon="3.70242">
        <ele>77.04</ele>
        <time>2021-08-08T16:23:13Z</time>
      </trkpt>
      <trkpt lat="49.57429" lon="3.70235">
        <ele>77.04</ele>
        <time>2021-08-08T16:23:14Z</time>
      </trkpt>
      <trkpt lat="49.57431" lon="3.70174">
        <ele>77.04</ele>
        <time>2021-08-08T16:23:23Z</time>
      </trkpt>
      <trkpt lat="49.57434" lon="3.70131">
        <ele>77.04</ele>
        <time>2021-08-08T16:23:30Z</time>
      </trkpt>
      <trkpt lat="49.57434" lon="3.70059">
        <ele>77.04</ele>
        <time>2021-08-08T16:23:40Z</time>
      </trkpt>
      <trkpt lat="49.57434" lon="3.69988">
        <ele>77.04</ele>
        <time>2021-08-08T16:23:50Z</time>
      </trkpt>
      <trkpt lat="49.57435" lon="3.69973">
        <ele>77.04</ele>
        <time>2021-08-08T16:23:52Z</time>
      </trkpt>
      <trkpt lat="49.57435" lon="3.69965">
        <ele>77.04</ele>
        <time>2021-08-08T16:23:53Z</time>
      </trkpt>
      <trkpt lat="49.57433" lon="3.69915">
        <ele>77.04</ele>
        <time>2021-08-08T16:24:00Z</time>
      </trkpt>
      <trkpt lat="49.57427" lon="3.69875">
        <ele>77.04</ele>
        <time>2021-08-08T16:24:07Z</time>
      </trkpt>
      <trkpt lat="49.57424" lon="3.69871">
        <ele>77.04</ele>
        <time>2021-08-08T16:24:08Z</time>
      </trkpt>
      <trkpt lat="49.5742" lon="3.69867">
        <ele>77.04</ele>
        <time>2021-08-08T16:24:09Z</time>
      </trkpt>
      <trkpt lat="49.57417" lon="3.69866">
        <ele>77.04</ele>
        <time>2021-08-08T16:24:10Z</time>
      </trkpt>
      <trkpt lat="49.57413" lon="3.69866">
        <ele>77.04</ele>
        <time>2021-08-08T16:24:11Z</time>
      </trkpt>
      <trkpt lat="49.57408" lon="3.69867">
        <ele>77.04</ele>
        <time>2021-08-08T16:24:12Z</time>
      </trkpt>
      <trkpt lat="49.57404" lon="3.69867">
        <ele>77.04</ele>
        <time>2021-08-08T16:24:13Z</time>
      </trkpt>
      <trkpt lat="49.57395" lon="3.69869">
        <ele>77.04</ele>
        <time>2021-08-08T16:24:15Z</time>
      </trkpt>
      <trkpt lat="49.57381" lon="3.69871">
        <ele>77.04</ele>
        <time>2021-08-08T16:24:18Z</time>
      </trkpt>
      <trkpt lat="49.57346" lon="3.69875">
        <ele>77.04</ele>
        <time>2021-08-08T16:24:26Z</time>
      </trkpt>
      <trkpt lat="49.57341" lon="3.69874">
        <ele>77.04</ele>
        <time>2021-08-08T16:24:27Z</time>
      </trkpt>
      <trkpt lat="49.57337" lon="3.6987">
        <ele>77.04</ele>
        <time>2021-08-08T16:24:28Z</time>
      </trkpt>
      <trkpt lat="49.57334" lon="3.69864">
        <ele>77.04</ele>
        <time>2021-08-08T16:24:29Z</time>
      </trkpt>
      <trkpt lat="49.57332" lon="3.69857">
        <ele>77.04</ele>
        <time>2021-08-08T16:24:30Z</time>
      </trkpt>
      <trkpt lat="49.57332" lon="3.6985">
        <ele>77.04</ele>
        <time>2021-08-08T16:24:31Z</time>
      </trkpt>
      <trkpt lat="49.57332" lon="3.69842">
        <ele>77.04</ele>
        <time>2021-08-08T16:24:32Z</time>
      </trkpt>
      <trkpt lat="49.57332" lon="3.69834">
        <ele>77.04</ele>
        <time>2021-08-08T16:24:33Z</time>
      </trkpt>
      <trkpt lat="49.57332" lon="3.69825">
        <ele>76.56</ele>
        <time>2021-08-08T16:24:34Z</time>
      </trkpt>
      <trkpt lat="49.57333" lon="3.69817">
        <ele>76.56</ele>
        <time>2021-08-08T16:24:35Z</time>
      </trkpt>
      <trkpt lat="49.57332" lon="3.69801">
        <ele>76.56</ele>
        <time>2021-08-08T16:24:37Z</time>
      </trkpt>
      <trkpt lat="49.57332" lon="3.69793">
        <ele>76.56</ele>
        <time>2021-08-08T16:24:38Z</time>
      </trkpt>
      <trkpt lat="49.5733" lon="3.69785">
        <ele>76.56</ele>
        <time>2021-08-08T16:24:39Z</time>
      </trkpt>
      <trkpt lat="49.57327" lon="3.69778">
        <ele>76.56</ele>
        <time>2021-08-08T16:24:40Z</time>
      </trkpt>
      <trkpt lat="49.57323" lon="3.69772">
        <ele>76.56</ele>
        <time>2021-08-08T16:24:41Z</time>
      </trkpt>
      <trkpt lat="49.57319" lon="3.69767">
        <ele>76.56</ele>
        <time>2021-08-08T16:24:42Z</time>
      </trkpt>
      <trkpt lat="49.57315" lon="3.69761">
        <ele>76.56</ele>
        <time>2021-08-08T16:24:43Z</time>
      </trkpt>
      <trkpt lat="49.57312" lon="3.69755">
        <ele>76.56</ele>
        <time>2021-08-08T16:24:44Z</time>
      </trkpt>
      <trkpt lat="49.57308" lon="3.6975">
        <ele>76.08</ele>
        <time>2021-08-08T16:24:45Z</time>
      </trkpt>
      <trkpt lat="49.57304" lon="3.69744">
        <ele>76.08</ele>
        <time>2021-08-08T16:24:46Z</time>
      </trkpt>
      <trkpt lat="49.57283" lon="3.69709">
        <ele>76.08</ele>
        <time>2021-08-08T16:24:52Z</time>
      </trkpt>
      <trkpt lat="49.57279" lon="3.69703">
        <ele>76.08</ele>
        <time>2021-08-08T16:24:53Z</time>
      </trkpt>
      <trkpt lat="49.57275" lon="3.69698">
        <ele>76.08</ele>
        <time>2021-08-08T16:24:54Z</time>
      </trkpt>
      <trkpt lat="49.5725" lon="3.69655">
        <ele>76.08</ele>
        <time>2021-08-08T16:25:01Z</time>
      </trkpt>
      <trkpt lat="49.57247" lon="3.69649">
        <ele>75.6</ele>
        <time>2021-08-08T16:25:02Z</time>
      </trkpt>
      <trkpt lat="49.57243" lon="3.69642">
        <ele>75.6</ele>
        <time>2021-08-08T16:25:03Z</time>
      </trkpt>
      <trkpt lat="49.57241" lon="3.69635">
        <ele>75.6</ele>
        <time>2021-08-08T16:25:04Z</time>
      </trkpt>
      <trkpt lat="49.57239" lon="3.69627">
        <ele>75.6</ele>
        <time>2021-08-08T16:25:05Z</time>
      </trkpt>
      <trkpt lat="49.57238" lon="3.69618">
        <ele>75.6</ele>
        <time>2021-08-08T16:25:06Z</time>
      </trkpt>
      <trkpt lat="49.57239" lon="3.6961">
        <ele>77.04</ele>
        <time>2021-08-08T16:25:07Z</time>
      </trkpt>
      <trkpt lat="49.57239" lon="3.69602">
        <ele>77.04</ele>
        <time>2021-08-08T16:25:08Z</time>
      </trkpt>
      <trkpt lat="49.5724" lon="3.69578">
        <ele>77.04</ele>
        <time>2021-08-08T16:25:11Z</time>
      </trkpt>
      <trkpt lat="49.57238" lon="3.69509">
        <ele>77.04</ele>
        <time>2021-08-08T16:25:20Z</time>
      </trkpt>
      <trkpt lat="49.57242" lon="3.69438">
        <ele>77.04</ele>
        <time>2021-08-08T16:25:30Z</time>
      </trkpt>
      <trkpt lat="49.57249" lon="3.694">
        <ele>77.04</ele>
        <time>2021-08-08T16:25:35Z</time>
      </trkpt>
      <trkpt lat="49.5727" lon="3.69338">
        <ele>77.04</ele>
        <time>2021-08-08T16:25:44Z</time>
      </trkpt>
      <trkpt lat="49.57294" lon="3.69265">
        <ele>77.04</ele>
        <time>2021-08-08T16:25:54Z</time>
      </trkpt>
      <trkpt lat="49.57296" lon="3.69258">
        <ele>77.04</ele>
        <time>2021-08-08T16:25:55Z</time>
      </trkpt>
      <trkpt lat="49.57297" lon="3.6925">
        <ele>77.04</ele>
        <time>2021-08-08T16:25:56Z</time>
      </trkpt>
      <trkpt lat="49.57297" lon="3.69167">
        <ele>77.52</ele>
        <time>2021-08-08T16:26:06Z</time>
      </trkpt>
      <trkpt lat="49.57295" lon="3.69089">
        <ele>77.52</ele>
        <time>2021-08-08T16:26:16Z</time>
      </trkpt>
      <trkpt lat="49.57291" lon="3.69006">
        <ele>77.52</ele>
        <time>2021-08-08T16:26:26Z</time>
      </trkpt>
      <trkpt lat="49.57286" lon="3.68939">
        <ele>77.52</ele>
        <time>2021-08-08T16:26:34Z</time>
      </trkpt>
      <trkpt lat="49.57279" lon="3.689">
        <ele>77.52</ele>
        <time>2021-08-08T16:26:39Z</time>
      </trkpt>
      <trkpt lat="49.57277" lon="3.68894">
        <ele>77.52</ele>
        <time>2021-08-08T16:26:40Z</time>
      </trkpt>
      <trkpt lat="49.57275" lon="3.68888">
        <ele>77.52</ele>
        <time>2021-08-08T16:26:41Z</time>
      </trkpt>
      <trkpt lat="49.57275" lon="3.68883">
        <ele>77.52</ele>
        <time>2021-08-08T16:26:42Z</time>
      </trkpt>
      <trkpt lat="49.57278" lon="3.68879">
        <ele>77.52</ele>
        <time>2021-08-08T16:26:43Z</time>
      </trkpt>
      <trkpt lat="49.57282" lon="3.68878">
        <ele>77.52</ele>
        <time>2021-08-08T16:26:44Z</time>
      </trkpt>
      <trkpt lat="49.57285" lon="3.68879">
        <ele>77.52</ele>
        <time>2021-08-08T16:26:45Z</time>
      </trkpt>
      <trkpt lat="49.5729" lon="3.6888">
        <ele>77.52</ele>
        <time>2021-08-08T16:26:46Z</time>
      </trkpt>
      <trkpt lat="49.57294" lon="3.68881">
        <ele>77.52</ele>
        <time>2021-08-08T16:26:47Z</time>
      </trkpt>
      <trkpt lat="49.57304" lon="3.68881">
        <ele>77.52</ele>
        <time>2021-08-08T16:26:49Z</time>
      </trkpt>
      <trkpt lat="49.57313" lon="3.68878">
        <ele>77.52</ele>
        <time>2021-08-08T16:26:51Z</time>
      </trkpt>
      <trkpt lat="49.57348" lon="3.68856">
        <ele>77.52</ele>
        <time>2021-08-08T16:26:58Z</time>
      </trkpt>
      <trkpt lat="49.57381" lon="3.68831">
        <ele>77.52</ele>
        <time>2021-08-08T16:27:06Z</time>
      </trkpt>
      <trkpt lat="49.57396" lon="3.68818">
        <ele>77.52</ele>
        <time>2021-08-08T16:27:10Z</time>
      </trkpt>
      <trkpt lat="49.57412" lon="3.68801">
        <ele>77.52</ele>
        <time>2021-08-08T16:27:14Z</time>
      </trkpt>
      <trkpt lat="49.57442" lon="3.68756">
        <ele>76.08</ele>
        <time>2021-08-08T16:27:22Z</time>
      </trkpt>
      <trkpt lat="49.57446" lon="3.68751">
        <ele>76.08</ele>
        <time>2021-08-08T16:27:23Z</time>
      </trkpt>
      <trkpt lat="49.5745" lon="3.68746">
        <ele>76.08</ele>
        <time>2021-08-08T16:27:24Z</time>
      </trkpt>
      <trkpt lat="49.57467" lon="3.68724">
        <ele>75.6</ele>
        <time>2021-08-08T16:27:28Z</time>
      </trkpt>
      <trkpt lat="49.57472" lon="3.6872">
        <ele>75.6</ele>
        <time>2021-08-08T16:27:29Z</time>
      </trkpt>
      <trkpt lat="49.5751" lon="3.68685">
        <ele>75.12</ele>
        <time>2021-08-08T16:27:37Z</time>
      </trkpt>
      <trkpt lat="49.57515" lon="3.68682">
        <ele>75.12</ele>
        <time>2021-08-08T16:27:38Z</time>
      </trkpt>
      <trkpt lat="49.5752" lon="3.68678">
        <ele>75.12</ele>
        <time>2021-08-08T16:27:39Z</time>
      </trkpt>
      <trkpt lat="49.57526" lon="3.68674">
        <ele>75.12</ele>
        <time>2021-08-08T16:27:40Z</time>
      </trkpt>
      <trkpt lat="49.57531" lon="3.6867">
        <ele>75.12</ele>
        <time>2021-08-08T16:27:41Z</time>
      </trkpt>
      <trkpt lat="49.57536" lon="3.68666">
        <ele>75.12</ele>
        <time>2021-08-08T16:27:42Z</time>
      </trkpt>
      <trkpt lat="49.57566" lon="3.68643">
        <ele>75.12</ele>
        <time>2021-08-08T16:27:48Z</time>
      </trkpt>
      <trkpt lat="49.57596" lon="3.68614">
        <ele>76.56</ele>
        <time>2021-08-08T16:27:55Z</time>
      </trkpt>
      <trkpt lat="49.57603" lon="3.68607">
        <ele>77.04</ele>
        <time>2021-08-08T16:27:57Z</time>
      </trkpt>
      <trkpt lat="49.57615" lon="3.68593">
        <ele>77.04</ele>
        <time>2021-08-08T16:28:01Z</time>
      </trkpt>
      <trkpt lat="49.57614" lon="3.68588">
        <ele>77.04</ele>
        <time>2021-08-08T16:28:02Z</time>
      </trkpt>
      <trkpt lat="49.57613" lon="3.68585">
        <ele>77.04</ele>
        <time>2021-08-08T16:28:03Z</time>
      </trkpt>
      <trkpt lat="49.5761" lon="3.68582">
        <ele>77.04</ele>
        <time>2021-08-08T16:28:04Z</time>
      </trkpt>
      <trkpt lat="49.57607" lon="3.6858">
        <ele>77.04</ele>
        <time>2021-08-08T16:28:05Z</time>
      </trkpt>
      <trkpt lat="49.57604" lon="3.68576">
        <ele>77.04</ele>
        <time>2021-08-08T16:28:06Z</time>
      </trkpt>
      <trkpt lat="49.576" lon="3.68572">
        <ele>77.04</ele>
        <time>2021-08-08T16:28:07Z</time>
      </trkpt>
      <trkpt lat="49.57597" lon="3.68567">
        <ele>77.04</ele>
        <time>2021-08-08T16:28:08Z</time>
      </trkpt>
      <trkpt lat="49.57595" lon="3.68562">
        <ele>77.04</ele>
        <time>2021-08-08T16:28:09Z</time>
      </trkpt>
      <trkpt lat="49.57594" lon="3.68555">
        <ele>75.6</ele>
        <time>2021-08-08T16:28:10Z</time>
      </trkpt>
      <trkpt lat="49.57592" lon="3.68548">
        <ele>75.6</ele>
        <time>2021-08-08T16:28:11Z</time>
      </trkpt>
      <trkpt lat="49.57592" lon="3.68541">
        <ele>75.6</ele>
        <time>2021-08-08T16:28:12Z</time>
      </trkpt>
      <trkpt lat="49.57579" lon="3.68479">
        <ele>75.6</ele>
        <time>2021-08-08T16:28:21Z</time>
      </trkpt>
      <trkpt lat="49.57565" lon="3.68406">
        <ele>77.04</ele>
        <time>2021-08-08T16:28:31Z</time>
      </trkpt>
      <trkpt lat="49.57551" lon="3.68353">
        <ele>77.04</ele>
        <time>2021-08-08T16:28:39Z</time>
      </trkpt>
      <trkpt lat="49.57549" lon="3.68348">
        <ele>77.04</ele>
        <time>2021-08-08T16:28:40Z</time>
      </trkpt>
      <trkpt lat="49.57545" lon="3.68331">
        <ele>77.04</ele>
        <time>2021-08-08T16:28:43Z</time>
      </trkpt>
      <trkpt lat="49.57546" lon="3.68325">
        <ele>77.04</ele>
        <time>2021-08-08T16:28:44Z</time>
      </trkpt>
      <trkpt lat="49.57546" lon="3.68321">
        <ele>77.04</ele>
        <time>2021-08-08T16:28:45Z</time>
      </trkpt>
      <trkpt lat="49.57547" lon="3.68317">
        <ele>77.04</ele>
        <time>2021-08-08T16:28:46Z</time>
      </trkpt>
      <trkpt lat="49.57546" lon="3.68313">
        <ele>77.04</ele>
        <time>2021-08-08T16:28:47Z</time>
      </trkpt>
      <trkpt lat="49.57546" lon="3.6831">
        <ele>77.04</ele>
        <time>2021-08-08T16:28:48Z</time>
      </trkpt>
      <trkpt lat="49.57546" lon="3.68306">
        <ele>77.04</ele>
        <time>2021-08-08T16:28:49Z</time>
      </trkpt>
      <trkpt lat="49.57546" lon="3.68303">
        <ele>77.52</ele>
        <time>2021-08-08T16:28:50Z</time>
      </trkpt>
      <trkpt lat="49.57543" lon="3.68275">
        <ele>77.52</ele>
        <time>2021-08-08T16:28:55Z</time>
      </trkpt>
      <trkpt lat="49.57545" lon="3.6827">
        <ele>77.52</ele>
        <time>2021-08-08T16:28:56Z</time>
      </trkpt>
      <trkpt lat="49.57547" lon="3.68266">
        <ele>77.52</ele>
        <time>2021-08-08T16:28:57Z</time>
      </trkpt>
      <trkpt lat="49.5757" lon="3.68249">
        <ele>77.52</ele>
        <time>2021-08-08T16:29:04Z</time>
      </trkpt>
      <trkpt lat="49.57597" lon="3.68228">
        <ele>78</ele>
        <time>2021-08-08T16:29:11Z</time>
      </trkpt>
      <trkpt lat="49.57609" lon="3.68218">
        <ele>78</ele>
        <time>2021-08-08T16:29:14Z</time>
      </trkpt>
      <trkpt lat="49.57611" lon="3.68214">
        <ele>78</ele>
        <time>2021-08-08T16:29:15Z</time>
      </trkpt>
      <trkpt lat="49.57611" lon="3.68208">
        <ele>78</ele>
        <time>2021-08-08T16:29:16Z</time>
      </trkpt>
      <trkpt lat="49.5761" lon="3.68203">
        <ele>78.48</ele>
        <time>2021-08-08T16:29:17Z</time>
      </trkpt>
      <trkpt lat="49.5761" lon="3.68198">
        <ele>78.48</ele>
        <time>2021-08-08T16:29:18Z</time>
      </trkpt>
      <trkpt lat="49.5761" lon="3.68194">
        <ele>78.48</ele>
        <time>2021-08-08T16:29:19Z</time>
      </trkpt>
      <trkpt lat="49.5761" lon="3.6819">
        <ele>78.48</ele>
        <time>2021-08-08T16:29:20Z</time>
      </trkpt>
      <trkpt lat="49.57612" lon="3.68188">
        <ele>78.48</ele>
        <time>2021-08-08T16:29:21Z</time>
      </trkpt>
      <trkpt lat="49.57614" lon="3.68186">
        <ele>78.48</ele>
        <time>2021-08-08T16:29:22Z</time>
      </trkpt>
      <trkpt lat="49.57635" lon="3.68168">
        <ele>78.48</ele>
        <time>2021-08-08T16:29:30Z</time>
      </trkpt>
      <trkpt lat="49.57637" lon="3.68163">
        <ele>78.48</ele>
        <time>2021-08-08T16:29:32Z</time>
      </trkpt>
      <trkpt lat="49.57637" lon="3.68158">
        <ele>78.48</ele>
        <time>2021-08-08T16:29:33Z</time>
      </trkpt>
      <trkpt lat="49.57636" lon="3.68154">
        <ele>78.48</ele>
        <time>2021-08-08T16:29:34Z</time>
      </trkpt>
      <trkpt lat="49.57628" lon="3.6813">
        <ele>77.04</ele>
        <time>2021-08-08T16:29:39Z</time>
      </trkpt>
      <trkpt lat="49.57609" lon="3.68079">
        <ele>76.56</ele>
        <time>2021-08-08T16:29:48Z</time>
      </trkpt>
      <trkpt lat="49.57602" lon="3.68057">
        <ele>78.48</ele>
        <time>2021-08-08T16:29:54Z</time>
      </trkpt>
      <trkpt lat="49.57602" lon="3.68057">
        <ele>78.48</ele>
        <time>2021-08-08T16:30:00Z</time>
      </trkpt>
      <trkpt lat="49.57602" lon="3.68058">
        <ele>78.48</ele>
        <time>2021-08-08T16:30:17Z</time>
      </trkpt>
      <trkpt lat="49.57601" lon="3.68057">
        <ele>78.48</ele>
        <time>2021-08-08T16:30:28Z</time>
      </trkpt>
      <trkpt lat="49.57603" lon="3.68056">
        <ele>78.97</ele>
        <time>2021-08-08T16:30:43Z</time>
      </trkpt>
      <trkpt lat="49.57604" lon="3.68055">
        <ele>78.97</ele>
        <time>2021-08-08T16:31:04Z</time>
      </trkpt>
      <trkpt lat="49.57603" lon="3.68053">
        <ele>78.97</ele>
        <time>2021-08-08T16:31:21Z</time>
      </trkpt>
      <trkpt lat="49.576" lon="3.68054">
        <ele>78.97</ele>
        <time>2021-08-08T16:31:35Z</time>
      </trkpt>
      <trkpt lat="49.57599" lon="3.68055">
        <ele>78.97</ele>
        <time>2021-08-08T16:31:39Z</time>
      </trkpt>
      <trkpt lat="49.57599" lon="3.68055">
        <ele>78.97</ele>
        <time>2021-08-08T16:32:01Z</time>
      </trkpt>
      <trkpt lat="49.57601" lon="3.68056">
        <ele>78.97</ele>
        <time>2021-08-08T16:32:22Z</time>
      </trkpt>
      <trkpt lat="49.57603" lon="3.68054">
        <ele>78.97</ele>
        <time>2021-08-08T16:32:48Z</time>
      </trkpt>
      <trkpt lat="49.57602" lon="3.68055">
        <ele>78.97</ele>
        <time>2021-08-08T16:33:00Z</time>
      </trkpt>
      <trkpt lat="49.57603" lon="3.68054">
        <ele>78.97</ele>
        <time>2021-08-08T16:33:11Z</time>
      </trkpt>
      <trkpt lat="49.57601" lon="3.68056">
        <ele>78.97</ele>
        <time>2021-08-08T16:33:17Z</time>
      </trkpt>
      <trkpt lat="49.57602" lon="3.68058">
        <ele>78.97</ele>
        <time>2021-08-08T16:33:18Z</time>
      </trkpt>
      <trkpt lat="49.57604" lon="3.68063">
        <ele>78.97</ele>
        <time>2021-08-08T16:33:21Z</time>
      </trkpt>
      <trkpt lat="49.57605" lon="3.68063">
        <ele>78.97</ele>
        <time>2021-08-08T16:33:22Z</time>
      </trkpt>
      <trkpt lat="49.57605" lon="3.68059">
        <ele>78.97</ele>
        <time>2021-08-08T16:33:24Z</time>
      </trkpt>
      <trkpt lat="49.57601" lon="3.6805">
        <ele>78.97</ele>
        <time>2021-08-08T16:33:30Z</time>
      </trkpt>
      <trkpt lat="49.57599" lon="3.6804">
        <ele>78.97</ele>
        <time>2021-08-08T16:33:35Z</time>
      </trkpt>
      <trkpt lat="49.57592" lon="3.68026">
        <ele>78.97</ele>
        <time>2021-08-08T16:33:44Z</time>
      </trkpt>
      <trkpt lat="49.57591" lon="3.68022">
        <ele>78.48</ele>
        <time>2021-08-08T16:33:46Z</time>
      </trkpt>
      <trkpt lat="49.57588" lon="3.68016">
        <ele>78.97</ele>
        <time>2021-08-08T16:33:50Z</time>
      </trkpt>
      <trkpt lat="49.57584" lon="3.68002">
        <ele>78.48</ele>
        <time>2021-08-08T16:33:58Z</time>
      </trkpt>
      <trkpt lat="49.57582" lon="3.67993">
        <ele>78.48</ele>
        <time>2021-08-08T16:34:04Z</time>
      </trkpt>
      <trkpt lat="49.57581" lon="3.67991">
        <ele>78.48</ele>
        <time>2021-08-08T16:34:08Z</time>
      </trkpt>
      <trkpt lat="49.57578" lon="3.67986">
        <ele>78.48</ele>
        <time>2021-08-08T16:34:12Z</time>
      </trkpt>
      <trkpt lat="49.57571" lon="3.67961">
        <ele>77.04</ele>
        <time>2021-08-08T16:34:18Z</time>
      </trkpt>
      <trkpt lat="49.57572" lon="3.67955">
        <ele>77.04</ele>
        <time>2021-08-08T16:34:19Z</time>
      </trkpt>
      <trkpt lat="49.57574" lon="3.6795">
        <ele>77.04</ele>
        <time>2021-08-08T16:34:20Z</time>
      </trkpt>
      <trkpt lat="49.57576" lon="3.67945">
        <ele>77.04</ele>
        <time>2021-08-08T16:34:21Z</time>
      </trkpt>
      <trkpt lat="49.57578" lon="3.67939">
        <ele>77.04</ele>
        <time>2021-08-08T16:34:22Z</time>
      </trkpt>
      <trkpt lat="49.5758" lon="3.67934">
        <ele>77.04</ele>
        <time>2021-08-08T16:34:23Z</time>
      </trkpt>
      <trkpt lat="49.57581" lon="3.67927">
        <ele>77.04</ele>
        <time>2021-08-08T16:34:24Z</time>
      </trkpt>
      <trkpt lat="49.57581" lon="3.6792">
        <ele>77.04</ele>
        <time>2021-08-08T16:34:25Z</time>
      </trkpt>
      <trkpt lat="49.57579" lon="3.67914">
        <ele>77.04</ele>
        <time>2021-08-08T16:34:26Z</time>
      </trkpt>
      <trkpt lat="49.57577" lon="3.67909">
        <ele>77.04</ele>
        <time>2021-08-08T16:34:27Z</time>
      </trkpt>
      <trkpt lat="49.57573" lon="3.67905">
        <ele>77.04</ele>
        <time>2021-08-08T16:34:28Z</time>
      </trkpt>
      <trkpt lat="49.57569" lon="3.67902">
        <ele>77.04</ele>
        <time>2021-08-08T16:34:29Z</time>
      </trkpt>
      <trkpt lat="49.57565" lon="3.679">
        <ele>77.04</ele>
        <time>2021-08-08T16:34:30Z</time>
      </trkpt>
      <trkpt lat="49.5756" lon="3.67898">
        <ele>77.04</ele>
        <time>2021-08-08T16:34:31Z</time>
      </trkpt>
      <trkpt lat="49.57552" lon="3.67894">
        <ele>76.56</ele>
        <time>2021-08-08T16:34:33Z</time>
      </trkpt>
      <trkpt lat="49.57548" lon="3.67891">
        <ele>76.56</ele>
        <time>2021-08-08T16:34:34Z</time>
      </trkpt>
      <trkpt lat="49.57544" lon="3.67885">
        <ele>76.56</ele>
        <time>2021-08-08T16:34:35Z</time>
      </trkpt>
      <trkpt lat="49.57541" lon="3.67878">
        <ele>76.56</ele>
        <time>2021-08-08T16:34:36Z</time>
      </trkpt>
      <trkpt lat="49.5754" lon="3.67872">
        <ele>76.56</ele>
        <time>2021-08-08T16:34:37Z</time>
      </trkpt>
      <trkpt lat="49.57538" lon="3.67866">
        <ele>76.56</ele>
        <time>2021-08-08T16:34:38Z</time>
      </trkpt>
      <trkpt lat="49.57524" lon="3.6782">
        <ele>78</ele>
        <time>2021-08-08T16:34:45Z</time>
      </trkpt>
      <trkpt lat="49.57506" lon="3.67763">
        <ele>78</ele>
        <time>2021-08-08T16:34:54Z</time>
      </trkpt>
      <trkpt lat="49.57482" lon="3.67698">
        <ele>78</ele>
        <time>2021-08-08T16:35:04Z</time>
      </trkpt>
      <trkpt lat="49.57453" lon="3.67624">
        <ele>78</ele>
        <time>2021-08-08T16:35:15Z</time>
      </trkpt>
      <trkpt lat="49.57416" lon="3.67532">
        <ele>78</ele>
        <time>2021-08-08T16:35:28Z</time>
      </trkpt>
      <trkpt lat="49.57385" lon="3.67456">
        <ele>78</ele>
        <time>2021-08-08T16:35:38Z</time>
      </trkpt>
      <trkpt lat="49.57351" lon="3.67363">
        <ele>76.56</ele>
        <time>2021-08-08T16:35:50Z</time>
      </trkpt>
      <trkpt lat="49.57327" lon="3.67278">
        <ele>76.56</ele>
        <time>2021-08-08T16:36:01Z</time>
      </trkpt>
      <trkpt lat="49.57308" lon="3.67199">
        <ele>76.56</ele>
        <time>2021-08-08T16:36:11Z</time>
      </trkpt>
      <trkpt lat="49.57294" lon="3.67131">
        <ele>78</ele>
        <time>2021-08-08T16:36:20Z</time>
      </trkpt>
      <trkpt lat="49.57281" lon="3.67072">
        <ele>76.56</ele>
        <time>2021-08-08T16:36:28Z</time>
      </trkpt>
      <trkpt lat="49.57267" lon="3.67013">
        <ele>76.56</ele>
        <time>2021-08-08T16:36:36Z</time>
      </trkpt>
      <trkpt lat="49.57261" lon="3.66984">
        <ele>78</ele>
        <time>2021-08-08T16:36:40Z</time>
      </trkpt>
      <trkpt lat="49.57249" lon="3.66929">
        <ele>78</ele>
        <time>2021-08-08T16:36:48Z</time>
      </trkpt>
      <trkpt lat="49.57228" lon="3.66838">
        <ele>78.97</ele>
        <time>2021-08-08T16:37:01Z</time>
      </trkpt>
      <trkpt lat="49.5721" lon="3.66755">
        <ele>79.45</ele>
        <time>2021-08-08T16:37:13Z</time>
      </trkpt>
      <trkpt lat="49.57196" lon="3.6669">
        <ele>80.41</ele>
        <time>2021-08-08T16:37:23Z</time>
      </trkpt>
      <trkpt lat="49.57178" lon="3.66609">
        <ele>80.41</ele>
        <time>2021-08-08T16:37:35Z</time>
      </trkpt>
      <trkpt lat="49.57159" lon="3.66527">
        <ele>79.93</ele>
        <time>2021-08-08T16:37:47Z</time>
      </trkpt>
      <trkpt lat="49.57145" lon="3.66459">
        <ele>81.37</ele>
        <time>2021-08-08T16:37:57Z</time>
      </trkpt>
      <trkpt lat="49.57144" lon="3.66451">
        <ele>81.37</ele>
        <time>2021-08-08T16:37:58Z</time>
      </trkpt>
      <trkpt lat="49.57142" lon="3.66414">
        <ele>80.89</ele>
        <time>2021-08-08T16:38:03Z</time>
      </trkpt>
      <trkpt lat="49.57143" lon="3.66407">
        <ele>80.89</ele>
        <time>2021-08-08T16:38:04Z</time>
      </trkpt>
      <trkpt lat="49.57146" lon="3.664">
        <ele>80.89</ele>
        <time>2021-08-08T16:38:05Z</time>
      </trkpt>
      <trkpt lat="49.57149" lon="3.66394">
        <ele>81.37</ele>
        <time>2021-08-08T16:38:06Z</time>
      </trkpt>
      <trkpt lat="49.57152" lon="3.66389">
        <ele>81.37</ele>
        <time>2021-08-08T16:38:07Z</time>
      </trkpt>
      <trkpt lat="49.57154" lon="3.66383">
        <ele>81.37</ele>
        <time>2021-08-08T16:38:08Z</time>
      </trkpt>
      <trkpt lat="49.57156" lon="3.66377">
        <ele>81.37</ele>
        <time>2021-08-08T16:38:09Z</time>
      </trkpt>
      <trkpt lat="49.57156" lon="3.66368">
        <ele>81.37</ele>
        <time>2021-08-08T16:38:10Z</time>
      </trkpt>
      <trkpt lat="49.57155" lon="3.66362">
        <ele>81.37</ele>
        <time>2021-08-08T16:38:11Z</time>
      </trkpt>
      <trkpt lat="49.57152" lon="3.66354">
        <ele>81.37</ele>
        <time>2021-08-08T16:38:12Z</time>
      </trkpt>
      <trkpt lat="49.57149" lon="3.66349">
        <ele>81.37</ele>
        <time>2021-08-08T16:38:13Z</time>
      </trkpt>
      <trkpt lat="49.57144" lon="3.66342">
        <ele>81.37</ele>
        <time>2021-08-08T16:38:14Z</time>
      </trkpt>
      <trkpt lat="49.57141" lon="3.66337">
        <ele>81.37</ele>
        <time>2021-08-08T16:38:15Z</time>
      </trkpt>
      <trkpt lat="49.57138" lon="3.66331">
        <ele>81.37</ele>
        <time>2021-08-08T16:38:16Z</time>
      </trkpt>
      <trkpt lat="49.57136" lon="3.66324">
        <ele>81.37</ele>
        <time>2021-08-08T16:38:17Z</time>
      </trkpt>
      <trkpt lat="49.57134" lon="3.66315">
        <ele>81.37</ele>
        <time>2021-08-08T16:38:18Z</time>
      </trkpt>
      <trkpt lat="49.57132" lon="3.66291">
        <ele>81.37</ele>
        <time>2021-08-08T16:38:21Z</time>
      </trkpt>
      <trkpt lat="49.57133" lon="3.66253">
        <ele>81.37</ele>
        <time>2021-08-08T16:38:26Z</time>
      </trkpt>
      <trkpt lat="49.57134" lon="3.66245">
        <ele>81.37</ele>
        <time>2021-08-08T16:38:27Z</time>
      </trkpt>
      <trkpt lat="49.57135" lon="3.66238">
        <ele>81.37</ele>
        <time>2021-08-08T16:38:28Z</time>
      </trkpt>
      <trkpt lat="49.57135" lon="3.66229">
        <ele>81.37</ele>
        <time>2021-08-08T16:38:29Z</time>
      </trkpt>
      <trkpt lat="49.57135" lon="3.66221">
        <ele>81.37</ele>
        <time>2021-08-08T16:38:30Z</time>
      </trkpt>
      <trkpt lat="49.57132" lon="3.66132">
        <ele>81.85</ele>
        <time>2021-08-08T16:38:41Z</time>
      </trkpt>
      <trkpt lat="49.57131" lon="3.66044">
        <ele>81.85</ele>
        <time>2021-08-08T16:38:52Z</time>
      </trkpt>
      <trkpt lat="49.57131" lon="3.66013">
        <ele>82.81</ele>
        <time>2021-08-08T16:38:56Z</time>
      </trkpt>
      <trkpt lat="49.57128" lon="3.65951">
        <ele>82.33</ele>
        <time>2021-08-08T16:39:04Z</time>
      </trkpt>
      <trkpt lat="49.57127" lon="3.65897">
        <ele>83.29</ele>
        <time>2021-08-08T16:39:11Z</time>
      </trkpt>
      <trkpt lat="49.57124" lon="3.65804">
        <ele>83.77</ele>
        <time>2021-08-08T16:39:22Z</time>
      </trkpt>
      <trkpt lat="49.57123" lon="3.65786">
        <ele>82.33</ele>
        <time>2021-08-08T16:39:24Z</time>
      </trkpt>
      <trkpt lat="49.5712" lon="3.65688">
        <ele>81.85</ele>
        <time>2021-08-08T16:39:35Z</time>
      </trkpt>
      <trkpt lat="49.57123" lon="3.65606">
        <ele>81.37</ele>
        <time>2021-08-08T16:39:44Z</time>
      </trkpt>
      <trkpt lat="49.57125" lon="3.65599">
        <ele>81.37</ele>
        <time>2021-08-08T16:39:45Z</time>
      </trkpt>
      <trkpt lat="49.57135" lon="3.65558">
        <ele>81.37</ele>
        <time>2021-08-08T16:39:50Z</time>
      </trkpt>
      <trkpt lat="49.57136" lon="3.6555">
        <ele>81.37</ele>
        <time>2021-08-08T16:39:51Z</time>
      </trkpt>
      <trkpt lat="49.57136" lon="3.65541">
        <ele>81.37</ele>
        <time>2021-08-08T16:39:52Z</time>
      </trkpt>
      <trkpt lat="49.57134" lon="3.65533">
        <ele>81.37</ele>
        <time>2021-08-08T16:39:53Z</time>
      </trkpt>
      <trkpt lat="49.57131" lon="3.65525">
        <ele>81.37</ele>
        <time>2021-08-08T16:39:54Z</time>
      </trkpt>
      <trkpt lat="49.57127" lon="3.65519">
        <ele>81.37</ele>
        <time>2021-08-08T16:39:55Z</time>
      </trkpt>
      <trkpt lat="49.57123" lon="3.65515">
        <ele>81.37</ele>
        <time>2021-08-08T16:39:56Z</time>
      </trkpt>
      <trkpt lat="49.57117" lon="3.65512">
        <ele>81.37</ele>
        <time>2021-08-08T16:39:57Z</time>
      </trkpt>
      <trkpt lat="49.57112" lon="3.65511">
        <ele>81.37</ele>
        <time>2021-08-08T16:39:58Z</time>
      </trkpt>
      <trkpt lat="49.57107" lon="3.65511">
        <ele>81.37</ele>
        <time>2021-08-08T16:39:59Z</time>
      </trkpt>
      <trkpt lat="49.57101" lon="3.65513">
        <ele>81.37</ele>
        <time>2021-08-08T16:40:00Z</time>
      </trkpt>
      <trkpt lat="49.57095" lon="3.65516">
        <ele>81.37</ele>
        <time>2021-08-08T16:40:01Z</time>
      </trkpt>
      <trkpt lat="49.5709" lon="3.65519">
        <ele>81.37</ele>
        <time>2021-08-08T16:40:02Z</time>
      </trkpt>
      <trkpt lat="49.57086" lon="3.65522">
        <ele>81.37</ele>
        <time>2021-08-08T16:40:03Z</time>
      </trkpt>
      <trkpt lat="49.57081" lon="3.65524">
        <ele>80.89</ele>
        <time>2021-08-08T16:40:04Z</time>
      </trkpt>
      <trkpt lat="49.57076" lon="3.65523">
        <ele>80.89</ele>
        <time>2021-08-08T16:40:05Z</time>
      </trkpt>
      <trkpt lat="49.57057" lon="3.65518">
        <ele>81.85</ele>
        <time>2021-08-08T16:40:09Z</time>
      </trkpt>
      <trkpt lat="49.57034" lon="3.65512">
        <ele>84.25</ele>
        <time>2021-08-08T16:40:15Z</time>
      </trkpt>
      <trkpt lat="49.57004" lon="3.65503">
        <ele>86.18</ele>
        <time>2021-08-08T16:40:23Z</time>
      </trkpt>
      <trkpt lat="49.56967" lon="3.6549">
        <ele>86.66</ele>
        <time>2021-08-08T16:40:32Z</time>
      </trkpt>
      <trkpt lat="49.56924" lon="3.65475">
        <ele>86.66</ele>
        <time>2021-08-08T16:40:41Z</time>
      </trkpt>
      <trkpt lat="49.56907" lon="3.65469">
        <ele>85.21</ele>
        <time>2021-08-08T16:40:44Z</time>
      </trkpt>
      <trkpt lat="49.56874" lon="3.65457">
        <ele>83.29</ele>
        <time>2021-08-08T16:40:49Z</time>
      </trkpt>
      <trkpt lat="49.56838" lon="3.65442">
        <ele>79.93</ele>
        <time>2021-08-08T16:40:54Z</time>
      </trkpt>
      <trkpt lat="49.56815" lon="3.65431">
        <ele>78</ele>
        <time>2021-08-08T16:40:57Z</time>
      </trkpt>
      <trkpt lat="49.56806" lon="3.65425">
        <ele>76.56</ele>
        <time>2021-08-08T16:40:58Z</time>
      </trkpt>
      <trkpt lat="49.568" lon="3.65418">
        <ele>76.56</ele>
        <time>2021-08-08T16:40:59Z</time>
      </trkpt>
      <trkpt lat="49.56795" lon="3.6541">
        <ele>76.08</ele>
        <time>2021-08-08T16:41:00Z</time>
      </trkpt>
      <trkpt lat="49.56791" lon="3.654">
        <ele>75.6</ele>
        <time>2021-08-08T16:41:01Z</time>
      </trkpt>
      <trkpt lat="49.56786" lon="3.65389">
        <ele>76.08</ele>
        <time>2021-08-08T16:41:02Z</time>
      </trkpt>
      <trkpt lat="49.56783" lon="3.6538">
        <ele>76.08</ele>
        <time>2021-08-08T16:41:03Z</time>
      </trkpt>
      <trkpt lat="49.5678" lon="3.65373">
        <ele>76.08</ele>
        <time>2021-08-08T16:41:04Z</time>
      </trkpt>
      <trkpt lat="49.56776" lon="3.65364">
        <ele>76.08</ele>
        <time>2021-08-08T16:41:05Z</time>
      </trkpt>
      <trkpt lat="49.56776" lon="3.65352">
        <ele>76.08</ele>
        <time>2021-08-08T16:41:06Z</time>
      </trkpt>
      <trkpt lat="49.56777" lon="3.65344">
        <ele>76.08</ele>
        <time>2021-08-08T16:41:07Z</time>
      </trkpt>
      <trkpt lat="49.56778" lon="3.65333">
        <ele>76.08</ele>
        <time>2021-08-08T16:41:08Z</time>
      </trkpt>
      <trkpt lat="49.56784" lon="3.65291">
        <ele>76.08</ele>
        <time>2021-08-08T16:41:12Z</time>
      </trkpt>
      <trkpt lat="49.56783" lon="3.65282">
        <ele>76.08</ele>
        <time>2021-08-08T16:41:13Z</time>
      </trkpt>
      <trkpt lat="49.56778" lon="3.6524">
        <ele>75.6</ele>
        <time>2021-08-08T16:41:18Z</time>
      </trkpt>
      <trkpt lat="49.56779" lon="3.6523">
        <ele>75.6</ele>
        <time>2021-08-08T16:41:19Z</time>
      </trkpt>
      <trkpt lat="49.56788" lon="3.65175">
        <ele>76.56</ele>
        <time>2021-08-08T16:41:26Z</time>
      </trkpt>
      <trkpt lat="49.56789" lon="3.6517">
        <ele>76.56</ele>
        <time>2021-08-08T16:41:27Z</time>
      </trkpt>
      <trkpt lat="49.56797" lon="3.65115">
        <ele>76.56</ele>
        <time>2021-08-08T16:41:35Z</time>
      </trkpt>
      <trkpt lat="49.56806" lon="3.65053">
        <ele>76.56</ele>
        <time>2021-08-08T16:41:44Z</time>
      </trkpt>
      <trkpt lat="49.56814" lon="3.65026">
        <ele>76.56</ele>
        <time>2021-08-08T16:41:50Z</time>
      </trkpt>
      <trkpt lat="49.56815" lon="3.64997">
        <ele>77.52</ele>
        <time>2021-08-08T16:41:57Z</time>
      </trkpt>
      <trkpt lat="49.56816" lon="3.64995">
        <ele>77.04</ele>
        <time>2021-08-08T16:42:01Z</time>
      </trkpt>
      <trkpt lat="49.56816" lon="3.64993">
        <ele>77.04</ele>
        <time>2021-08-08T16:42:11Z</time>
      </trkpt>
      <trkpt lat="49.56815" lon="3.64991">
        <ele>77.04</ele>
        <time>2021-08-08T16:42:12Z</time>
      </trkpt>
      <trkpt lat="49.56815" lon="3.64989">
        <ele>77.04</ele>
        <time>2021-08-08T16:42:13Z</time>
      </trkpt>
      <trkpt lat="49.56815" lon="3.64986">
        <ele>77.04</ele>
        <time>2021-08-08T16:42:14Z</time>
      </trkpt>
      <trkpt lat="49.56816" lon="3.64983">
        <ele>77.04</ele>
        <time>2021-08-08T16:42:15Z</time>
      </trkpt>
      <trkpt lat="49.56821" lon="3.64954">
        <ele>77.04</ele>
        <time>2021-08-08T16:42:22Z</time>
      </trkpt>
      <trkpt lat="49.56827" lon="3.64898">
        <ele>77.04</ele>
        <time>2021-08-08T16:42:31Z</time>
      </trkpt>
      <trkpt lat="49.56832" lon="3.64861">
        <ele>77.04</ele>
        <time>2021-08-08T16:42:37Z</time>
      </trkpt>
      <trkpt lat="49.56839" lon="3.64817">
        <ele>78</ele>
        <time>2021-08-08T16:42:44Z</time>
      </trkpt>
      <trkpt lat="49.56845" lon="3.64762">
        <ele>78</ele>
        <time>2021-08-08T16:42:52Z</time>
      </trkpt>
      <trkpt lat="49.56846" lon="3.64746">
        <ele>78</ele>
        <time>2021-08-08T16:42:54Z</time>
      </trkpt>
      <trkpt lat="49.56845" lon="3.64739">
        <ele>78</ele>
        <time>2021-08-08T16:42:55Z</time>
      </trkpt>
      <trkpt lat="49.56843" lon="3.64733">
        <ele>78</ele>
        <time>2021-08-08T16:42:56Z</time>
      </trkpt>
      <trkpt lat="49.56839" lon="3.64702">
        <ele>78.48</ele>
        <time>2021-08-08T16:43:01Z</time>
      </trkpt>
      <trkpt lat="49.56836" lon="3.64676">
        <ele>78.97</ele>
        <time>2021-08-08T16:43:06Z</time>
      </trkpt>
      <trkpt lat="49.56835" lon="3.64669">
        <ele>78.97</ele>
        <time>2021-08-08T16:43:08Z</time>
      </trkpt>
      <trkpt lat="49.56834" lon="3.64666">
        <ele>78.97</ele>
        <time>2021-08-08T16:43:09Z</time>
      </trkpt>
      <trkpt lat="49.56832" lon="3.64663">
        <ele>78.97</ele>
        <time>2021-08-08T16:43:10Z</time>
      </trkpt>
      <trkpt lat="49.56831" lon="3.6466">
        <ele>78.97</ele>
        <time>2021-08-08T16:43:11Z</time>
      </trkpt>
      <trkpt lat="49.5683" lon="3.64658">
        <ele>78.97</ele>
        <time>2021-08-08T16:43:12Z</time>
      </trkpt>
      <trkpt lat="49.56829" lon="3.64655">
        <ele>78.97</ele>
        <time>2021-08-08T16:43:13Z</time>
      </trkpt>
      <trkpt lat="49.56817" lon="3.64632">
        <ele>79.45</ele>
        <time>2021-08-08T16:43:20Z</time>
      </trkpt>
      <trkpt lat="49.56818" lon="3.6463">
        <ele>79.45</ele>
        <time>2021-08-08T16:43:21Z</time>
      </trkpt>
      <trkpt lat="49.5682" lon="3.64627">
        <ele>79.45</ele>
        <time>2021-08-08T16:43:22Z</time>
      </trkpt>
      <trkpt lat="49.56833" lon="3.64617">
        <ele>79.45</ele>
        <time>2021-08-08T16:43:27Z</time>
      </trkpt>
      <trkpt lat="49.56834" lon="3.64615">
        <ele>79.45</ele>
        <time>2021-08-08T16:43:28Z</time>
      </trkpt>
      <trkpt lat="49.56835" lon="3.64613">
        <ele>79.45</ele>
        <time>2021-08-08T16:43:29Z</time>
      </trkpt>
      <trkpt lat="49.56835" lon="3.64609">
        <ele>79.45</ele>
        <time>2021-08-08T16:43:30Z</time>
      </trkpt>
      <trkpt lat="49.56836" lon="3.64604">
        <ele>79.45</ele>
        <time>2021-08-08T16:43:31Z</time>
      </trkpt>
      <trkpt lat="49.56836" lon="3.64597">
        <ele>79.45</ele>
        <time>2021-08-08T16:43:32Z</time>
      </trkpt>
      <trkpt lat="49.56836" lon="3.64589">
        <ele>79.45</ele>
        <time>2021-08-08T16:43:33Z</time>
      </trkpt>
      <trkpt lat="49.56835" lon="3.64582">
        <ele>79.45</ele>
        <time>2021-08-08T16:43:34Z</time>
      </trkpt>
      <trkpt lat="49.56827" lon="3.64514">
        <ele>79.93</ele>
        <time>2021-08-08T16:43:43Z</time>
      </trkpt>
      <trkpt lat="49.56821" lon="3.64456">
        <ele>80.89</ele>
        <time>2021-08-08T16:43:51Z</time>
      </trkpt>
      <trkpt lat="49.5682" lon="3.64448">
        <ele>80.89</ele>
        <time>2021-08-08T16:43:52Z</time>
      </trkpt>
      <trkpt lat="49.56817" lon="3.6442">
        <ele>81.37</ele>
        <time>2021-08-08T16:43:56Z</time>
      </trkpt>
      <trkpt lat="49.56812" lon="3.64353">
        <ele>81.85</ele>
        <time>2021-08-08T16:44:06Z</time>
      </trkpt>
      <trkpt lat="49.56809" lon="3.64322">
        <ele>81.85</ele>
        <time>2021-08-08T16:44:11Z</time>
      </trkpt>
      <trkpt lat="49.56808" lon="3.64316">
        <ele>81.85</ele>
        <time>2021-08-08T16:44:12Z</time>
      </trkpt>
      <trkpt lat="49.56807" lon="3.64303">
        <ele>81.85</ele>
        <time>2021-08-08T16:44:14Z</time>
      </trkpt>
      <trkpt lat="49.56801" lon="3.64244">
        <ele>81.37</ele>
        <time>2021-08-08T16:44:23Z</time>
      </trkpt>
      <trkpt lat="49.56795" lon="3.64166">
        <ele>80.89</ele>
        <time>2021-08-08T16:44:34Z</time>
      </trkpt>
      <trkpt lat="49.56789" lon="3.64082">
        <ele>80.89</ele>
        <time>2021-08-08T16:44:46Z</time>
      </trkpt>
      <trkpt lat="49.56788" lon="3.64075">
        <ele>80.89</ele>
        <time>2021-08-08T16:44:47Z</time>
      </trkpt>
      <trkpt lat="49.56784" lon="3.64035">
        <ele>79.93</ele>
        <time>2021-08-08T16:44:53Z</time>
      </trkpt>
      <trkpt lat="49.56777" lon="3.63971">
        <ele>79.93</ele>
        <time>2021-08-08T16:45:02Z</time>
      </trkpt>
      <trkpt lat="49.56771" lon="3.63909">
        <ele>79.45</ele>
        <time>2021-08-08T16:45:11Z</time>
      </trkpt>
      <trkpt lat="49.56762" lon="3.63825">
        <ele>79.45</ele>
        <time>2021-08-08T16:45:23Z</time>
      </trkpt>
      <trkpt lat="49.56755" lon="3.63768">
        <ele>79.45</ele>
        <time>2021-08-08T16:45:31Z</time>
      </trkpt>
      <trkpt lat="49.56749" lon="3.63729">
        <ele>80.89</ele>
        <time>2021-08-08T16:45:37Z</time>
      </trkpt>
      <trkpt lat="49.56741" lon="3.63686">
        <ele>82.33</ele>
        <time>2021-08-08T16:45:46Z</time>
      </trkpt>
      <trkpt lat="49.5674" lon="3.63659">
        <ele>84.73</ele>
        <time>2021-08-08T16:45:53Z</time>
      </trkpt>
      <trkpt lat="49.56745" lon="3.63625">
        <ele>84.73</ele>
        <time>2021-08-08T16:46:01Z</time>
      </trkpt>
      <trkpt lat="49.56744" lon="3.63607">
        <ele>85.21</ele>
        <time>2021-08-08T16:46:06Z</time>
      </trkpt>
      <trkpt lat="49.56741" lon="3.63605">
        <ele>85.21</ele>
        <time>2021-08-08T16:46:07Z</time>
      </trkpt>
      <trkpt lat="49.56738" lon="3.63603">
        <ele>85.21</ele>
        <time>2021-08-08T16:46:08Z</time>
      </trkpt>
      <trkpt lat="49.56709" lon="3.63603">
        <ele>85.21</ele>
        <time>2021-08-08T16:46:16Z</time>
      </trkpt>
      <trkpt lat="49.56668" lon="3.63606">
        <ele>84.25</ele>
        <time>2021-08-08T16:46:25Z</time>
      </trkpt>
      <trkpt lat="49.56617" lon="3.63609">
        <ele>84.73</ele>
        <time>2021-08-08T16:46:36Z</time>
      </trkpt>
      <trkpt lat="49.56584" lon="3.63607">
        <ele>85.69</ele>
        <time>2021-08-08T16:46:45Z</time>
      </trkpt>
      <trkpt lat="49.56559" lon="3.63599">
        <ele>87.62</ele>
        <time>2021-08-08T16:46:55Z</time>
      </trkpt>
      <trkpt lat="49.56539" lon="3.63586">
        <ele>89.06</ele>
        <time>2021-08-08T16:47:04Z</time>
      </trkpt>
      <trkpt lat="49.56532" lon="3.63571">
        <ele>90.5</ele>
        <time>2021-08-08T16:47:10Z</time>
      </trkpt>
      <trkpt lat="49.56532" lon="3.63552">
        <ele>90.98</ele>
        <time>2021-08-08T16:47:16Z</time>
      </trkpt>
      <trkpt lat="49.56537" lon="3.63543">
        <ele>91.46</ele>
        <time>2021-08-08T16:47:20Z</time>
      </trkpt>
      <trkpt lat="49.56537" lon="3.6354">
        <ele>91.46</ele>
        <time>2021-08-08T16:47:21Z</time>
      </trkpt>
      <trkpt lat="49.56537" lon="3.63536">
        <ele>91.46</ele>
        <time>2021-08-08T16:47:22Z</time>
      </trkpt>
      <trkpt lat="49.56536" lon="3.63534">
        <ele>91.46</ele>
        <time>2021-08-08T16:47:23Z</time>
      </trkpt>
      <trkpt lat="49.56536" lon="3.63531">
        <ele>91.46</ele>
        <time>2021-08-08T16:47:24Z</time>
      </trkpt>
      <trkpt lat="49.56529" lon="3.63506">
        <ele>92.42</ele>
        <time>2021-08-08T16:47:34Z</time>
      </trkpt>
      <trkpt lat="49.56525" lon="3.6349">
        <ele>93.39</ele>
        <time>2021-08-08T16:47:41Z</time>
      </trkpt>
      <trkpt lat="49.56524" lon="3.63489">
        <ele>93.39</ele>
        <time>2021-08-08T16:47:42Z</time>
      </trkpt>
      <trkpt lat="49.56523" lon="3.63487">
        <ele>93.39</ele>
        <time>2021-08-08T16:47:43Z</time>
      </trkpt>
      <trkpt lat="49.56523" lon="3.63484">
        <ele>93.87</ele>
        <time>2021-08-08T16:47:44Z</time>
      </trkpt>
      <trkpt lat="49.56522" lon="3.63482">
        <ele>93.87</ele>
        <time>2021-08-08T16:47:45Z</time>
      </trkpt>
      <trkpt lat="49.56522" lon="3.6348">
        <ele>93.87</ele>
        <time>2021-08-08T16:47:46Z</time>
      </trkpt>
      <trkpt lat="49.56521" lon="3.63477">
        <ele>94.83</ele>
        <time>2021-08-08T16:47:47Z</time>
      </trkpt>
      <trkpt lat="49.56521" lon="3.63475">
        <ele>94.83</ele>
        <time>2021-08-08T16:47:48Z</time>
      </trkpt>
      <trkpt lat="49.5652" lon="3.63473">
        <ele>94.83</ele>
        <time>2021-08-08T16:47:49Z</time>
      </trkpt>
      <trkpt lat="49.56519" lon="3.63471">
        <ele>95.31</ele>
        <time>2021-08-08T16:47:50Z</time>
      </trkpt>
      <trkpt lat="49.56519" lon="3.63468">
        <ele>95.31</ele>
        <time>2021-08-08T16:47:51Z</time>
      </trkpt>
      <trkpt lat="49.56518" lon="3.63466">
        <ele>96.27</ele>
        <time>2021-08-08T16:47:52Z</time>
      </trkpt>
      <trkpt lat="49.56517" lon="3.63464">
        <ele>96.27</ele>
        <time>2021-08-08T16:47:53Z</time>
      </trkpt>
      <trkpt lat="49.56517" lon="3.63461">
        <ele>96.75</ele>
        <time>2021-08-08T16:47:54Z</time>
      </trkpt>
      <trkpt lat="49.56514" lon="3.63452">
        <ele>97.71</ele>
        <time>2021-08-08T16:47:59Z</time>
      </trkpt>
      <trkpt lat="49.56513" lon="3.6345">
        <ele>97.71</ele>
        <time>2021-08-08T16:48:00Z</time>
      </trkpt>
      <trkpt lat="49.56513" lon="3.63448">
        <ele>97.71</ele>
        <time>2021-08-08T16:48:01Z</time>
      </trkpt>
      <trkpt lat="49.56513" lon="3.63447">
        <ele>98.19</ele>
        <time>2021-08-08T16:48:02Z</time>
      </trkpt>
      <trkpt lat="49.56512" lon="3.63445">
        <ele>98.19</ele>
        <time>2021-08-08T16:48:03Z</time>
      </trkpt>
      <trkpt lat="49.56511" lon="3.63443">
        <ele>98.67</ele>
        <time>2021-08-08T16:48:04Z</time>
      </trkpt>
      <trkpt lat="49.56511" lon="3.63441">
        <ele>98.67</ele>
        <time>2021-08-08T16:48:05Z</time>
      </trkpt>
      <trkpt lat="49.5651" lon="3.6344">
        <ele>98.67</ele>
        <time>2021-08-08T16:48:06Z</time>
      </trkpt>
      <trkpt lat="49.56509" lon="3.63438">
        <ele>99.63</ele>
        <time>2021-08-08T16:48:07Z</time>
      </trkpt>
      <trkpt lat="49.56509" lon="3.63436">
        <ele>99.63</ele>
        <time>2021-08-08T16:48:08Z</time>
      </trkpt>
      <trkpt lat="49.56508" lon="3.63435">
        <ele>99.63</ele>
        <time>2021-08-08T16:48:09Z</time>
      </trkpt>
      <trkpt lat="49.56505" lon="3.6342">
        <ele>102.52</ele>
        <time>2021-08-08T16:48:17Z</time>
      </trkpt>
      <trkpt lat="49.56503" lon="3.63402">
        <ele>104.92</ele>
        <time>2021-08-08T16:48:26Z</time>
      </trkpt>
      <trkpt lat="49.56504" lon="3.63388">
        <ele>106.36</ele>
        <time>2021-08-08T16:48:33Z</time>
      </trkpt>
      <trkpt lat="49.56502" lon="3.63371">
        <ele>108.29</ele>
        <time>2021-08-08T16:48:42Z</time>
      </trkpt>
      <trkpt lat="49.56502" lon="3.63365">
        <ele>108.29</ele>
        <time>2021-08-08T16:48:45Z</time>
      </trkpt>
      <trkpt lat="49.56501" lon="3.63351">
        <ele>111.17</ele>
        <time>2021-08-08T16:48:54Z</time>
      </trkpt>
      <trkpt lat="49.56501" lon="3.63341">
        <ele>113.57</ele>
        <time>2021-08-08T16:49:03Z</time>
      </trkpt>
      <trkpt lat="49.56503" lon="3.63338">
        <ele>114.05</ele>
        <time>2021-08-08T16:49:05Z</time>
      </trkpt>
      <trkpt lat="49.5651" lon="3.63326">
        <ele>115.5</ele>
        <time>2021-08-08T16:49:13Z</time>
      </trkpt>
      <trkpt lat="49.56517" lon="3.63324">
        <ele>117.42</ele>
        <time>2021-08-08T16:49:20Z</time>
      </trkpt>
      <trkpt lat="49.56528" lon="3.63325">
        <ele>119.34</ele>
        <time>2021-08-08T16:49:29Z</time>
      </trkpt>
      <trkpt lat="49.56528" lon="3.6332">
        <ele>120.3</ele>
        <time>2021-08-08T16:49:34Z</time>
      </trkpt>
      <trkpt lat="49.56527" lon="3.63317">
        <ele>120.78</ele>
        <time>2021-08-08T16:49:36Z</time>
      </trkpt>
      <trkpt lat="49.56523" lon="3.63311">
        <ele>122.22</ele>
        <time>2021-08-08T16:49:44Z</time>
      </trkpt>
      <trkpt lat="49.5652" lon="3.63305">
        <ele>124.63</ele>
        <time>2021-08-08T16:49:52Z</time>
      </trkpt>
      <trkpt lat="49.56512" lon="3.63298">
        <ele>126.07</ele>
        <time>2021-08-08T16:49:59Z</time>
      </trkpt>
      <trkpt lat="49.56505" lon="3.63293">
        <ele>127.51</ele>
        <time>2021-08-08T16:50:07Z</time>
      </trkpt>
      <trkpt lat="49.56497" lon="3.63287">
        <ele>129.43</ele>
        <time>2021-08-08T16:50:15Z</time>
      </trkpt>
      <trkpt lat="49.56489" lon="3.63282">
        <ele>131.36</ele>
        <time>2021-08-08T16:50:22Z</time>
      </trkpt>
      <trkpt lat="49.56487" lon="3.63281">
        <ele>132.32</ele>
        <time>2021-08-08T16:50:24Z</time>
      </trkpt>
      <trkpt lat="49.56473" lon="3.63276">
        <ele>134.72</ele>
        <time>2021-08-08T16:50:34Z</time>
      </trkpt>
      <trkpt lat="49.56469" lon="3.63273">
        <ele>135.2</ele>
        <time>2021-08-08T16:50:37Z</time>
      </trkpt>
      <trkpt lat="49.56467" lon="3.63271">
        <ele>135.68</ele>
        <time>2021-08-08T16:50:38Z</time>
      </trkpt>
      <trkpt lat="49.56458" lon="3.63264">
        <ele>138.09</ele>
        <time>2021-08-08T16:50:45Z</time>
      </trkpt>
      <trkpt lat="49.56445" lon="3.63256">
        <ele>140.01</ele>
        <time>2021-08-08T16:50:54Z</time>
      </trkpt>
      <trkpt lat="49.56434" lon="3.63249">
        <ele>142.41</ele>
        <time>2021-08-08T16:51:02Z</time>
      </trkpt>
      <trkpt lat="49.56415" lon="3.63242">
        <ele>145.3</ele>
        <time>2021-08-08T16:51:14Z</time>
      </trkpt>
      <trkpt lat="49.56402" lon="3.63242">
        <ele>145.78</ele>
        <time>2021-08-08T16:51:22Z</time>
      </trkpt>
      <trkpt lat="49.56399" lon="3.63242">
        <ele>146.26</ele>
        <time>2021-08-08T16:51:24Z</time>
      </trkpt>
      <trkpt lat="49.56386" lon="3.63242">
        <ele>146.26</ele>
        <time>2021-08-08T16:51:31Z</time>
      </trkpt>
      <trkpt lat="49.56383" lon="3.6324">
        <ele>146.74</ele>
        <time>2021-08-08T16:51:34Z</time>
      </trkpt>
      <trkpt lat="49.56376" lon="3.63228">
        <ele>148.18</ele>
        <time>2021-08-08T16:51:40Z</time>
      </trkpt>
      <trkpt lat="49.56374" lon="3.63208">
        <ele>150.58</ele>
        <time>2021-08-08T16:51:50Z</time>
      </trkpt>
      <trkpt lat="49.56373" lon="3.63193">
        <ele>152.99</ele>
        <time>2021-08-08T16:51:58Z</time>
      </trkpt>
      <trkpt lat="49.56371" lon="3.63176">
        <ele>155.39</ele>
        <time>2021-08-08T16:52:07Z</time>
      </trkpt>
      <trkpt lat="49.5637" lon="3.63164">
        <ele>157.79</ele>
        <time>2021-08-08T16:52:14Z</time>
      </trkpt>
      <trkpt lat="49.5637" lon="3.63153">
        <ele>158.75</ele>
        <time>2021-08-08T16:52:19Z</time>
      </trkpt>
      <trkpt lat="49.56368" lon="3.63132">
        <ele>159.24</ele>
        <time>2021-08-08T16:52:28Z</time>
      </trkpt>
      <trkpt lat="49.56368" lon="3.63131">
        <ele>159.72</ele>
        <time>2021-08-08T16:52:29Z</time>
      </trkpt>
      <trkpt lat="49.56366" lon="3.63113">
        <ele>161.64</ele>
        <time>2021-08-08T16:52:38Z</time>
      </trkpt>
      <trkpt lat="49.56365" lon="3.63101">
        <ele>163.08</ele>
        <time>2021-08-08T16:52:44Z</time>
      </trkpt>
      <trkpt lat="49.56363" lon="3.63085">
        <ele>165</ele>
        <time>2021-08-08T16:52:52Z</time>
      </trkpt>
      <trkpt lat="49.56362" lon="3.6308">
        <ele>165.48</ele>
        <time>2021-08-08T16:52:55Z</time>
      </trkpt>
      <trkpt lat="49.56357" lon="3.63062">
        <ele>166.45</ele>
        <time>2021-08-08T16:53:03Z</time>
      </trkpt>
      <trkpt lat="49.56344" lon="3.6303">
        <ele>166.45</ele>
        <time>2021-08-08T16:53:13Z</time>
      </trkpt>
      <trkpt lat="49.56335" lon="3.63009">
        <ele>167.89</ele>
        <time>2021-08-08T16:53:20Z</time>
      </trkpt>
      <trkpt lat="49.56333" lon="3.63003">
        <ele>168.37</ele>
        <time>2021-08-08T16:53:22Z</time>
      </trkpt>
      <trkpt lat="49.56333" lon="3.63">
        <ele>168.37</ele>
        <time>2021-08-08T16:53:23Z</time>
      </trkpt>
      <trkpt lat="49.56334" lon="3.62997">
        <ele>168.85</ele>
        <time>2021-08-08T16:53:24Z</time>
      </trkpt>
      <trkpt lat="49.56336" lon="3.62995">
        <ele>168.85</ele>
        <time>2021-08-08T16:53:25Z</time>
      </trkpt>
      <trkpt lat="49.56337" lon="3.62993">
        <ele>168.85</ele>
        <time>2021-08-08T16:53:26Z</time>
      </trkpt>
      <trkpt lat="49.56339" lon="3.62992">
        <ele>169.33</ele>
        <time>2021-08-08T16:53:27Z</time>
      </trkpt>
      <trkpt lat="49.5634" lon="3.62991">
        <ele>169.33</ele>
        <time>2021-08-08T16:53:28Z</time>
      </trkpt>
      <trkpt lat="49.56352" lon="3.6299">
        <ele>170.29</ele>
        <time>2021-08-08T16:53:34Z</time>
      </trkpt>
      <trkpt lat="49.56353" lon="3.62991">
        <ele>170.29</ele>
        <time>2021-08-08T16:53:35Z</time>
      </trkpt>
      <trkpt lat="49.56354" lon="3.62993">
        <ele>170.29</ele>
        <time>2021-08-08T16:53:36Z</time>
      </trkpt>
      <trkpt lat="49.56354" lon="3.62995">
        <ele>170.29</ele>
        <time>2021-08-08T16:53:37Z</time>
      </trkpt>
      <trkpt lat="49.56355" lon="3.62998">
        <ele>170.29</ele>
        <time>2021-08-08T16:53:38Z</time>
      </trkpt>
      <trkpt lat="49.56356" lon="3.63002">
        <ele>170.29</ele>
        <time>2021-08-08T16:53:39Z</time>
      </trkpt>
      <trkpt lat="49.56365" lon="3.63027">
        <ele>168.85</ele>
        <time>2021-08-08T16:53:44Z</time>
      </trkpt>
      <trkpt lat="49.56381" lon="3.63084">
        <ele>165.96</ele>
        <time>2021-08-08T16:53:51Z</time>
      </trkpt>
      <trkpt lat="49.56397" lon="3.63158">
        <ele>163.08</ele>
        <time>2021-08-08T16:53:58Z</time>
      </trkpt>
      <trkpt lat="49.56407" lon="3.6319">
        <ele>163.08</ele>
        <time>2021-08-08T16:54:02Z</time>
      </trkpt>
      <trkpt lat="49.56411" lon="3.63193">
        <ele>163.08</ele>
        <time>2021-08-08T16:54:03Z</time>
      </trkpt>
      <trkpt lat="49.56414" lon="3.63194">
        <ele>162.6</ele>
        <time>2021-08-08T16:54:04Z</time>
      </trkpt>
      <trkpt lat="49.56443" lon="3.632">
        <ele>162.6</ele>
        <time>2021-08-08T16:54:11Z</time>
      </trkpt>
      <trkpt lat="49.56456" lon="3.63204">
        <ele>162.6</ele>
        <time>2021-08-08T16:54:14Z</time>
      </trkpt>
      <trkpt lat="49.56465" lon="3.63206">
        <ele>162.6</ele>
        <time>2021-08-08T16:54:16Z</time>
      </trkpt>
      <trkpt lat="49.56488" lon="3.63214">
        <ele>162.6</ele>
        <time>2021-08-08T16:54:23Z</time>
      </trkpt>
      <trkpt lat="49.56501" lon="3.6322">
        <ele>163.08</ele>
        <time>2021-08-08T16:54:31Z</time>
      </trkpt>
      <trkpt lat="49.56518" lon="3.63211">
        <ele>162.6</ele>
        <time>2021-08-08T16:54:40Z</time>
      </trkpt>
      <trkpt lat="49.56521" lon="3.63209">
        <ele>162.6</ele>
        <time>2021-08-08T16:54:42Z</time>
      </trkpt>
      <trkpt lat="49.56523" lon="3.63208">
        <ele>162.6</ele>
        <time>2021-08-08T16:54:43Z</time>
      </trkpt>
      <trkpt lat="49.56532" lon="3.63203">
        <ele>164.04</ele>
        <time>2021-08-08T16:54:50Z</time>
      </trkpt>
      <trkpt lat="49.56533" lon="3.63202">
        <ele>164.04</ele>
        <time>2021-08-08T16:55:00Z</time>
      </trkpt>
      <trkpt lat="49.56533" lon="3.63203">
        <ele>164.52</ele>
        <time>2021-08-08T16:55:15Z</time>
      </trkpt>
      <trkpt lat="49.56534" lon="3.63202">
        <ele>164.52</ele>
        <time>2021-08-08T16:55:16Z</time>
      </trkpt>
      <trkpt lat="49.56544" lon="3.63193">
        <ele>164.52</ele>
        <time>2021-08-08T16:55:23Z</time>
      </trkpt>
      <trkpt lat="49.5656" lon="3.63184">
        <ele>164.52</ele>
        <time>2021-08-08T16:55:31Z</time>
      </trkpt>
      <trkpt lat="49.56583" lon="3.63175">
        <ele>165</ele>
        <time>2021-08-08T16:55:39Z</time>
      </trkpt>
      <trkpt lat="49.56587" lon="3.63166">
        <ele>165</ele>
        <time>2021-08-08T16:55:41Z</time>
      </trkpt>
      <trkpt lat="49.56587" lon="3.63162">
        <ele>165</ele>
        <time>2021-08-08T16:55:42Z</time>
      </trkpt>
      <trkpt lat="49.56586" lon="3.63157">
        <ele>165</ele>
        <time>2021-08-08T16:55:43Z</time>
      </trkpt>
      <trkpt lat="49.56584" lon="3.63152">
        <ele>165</ele>
        <time>2021-08-08T16:55:44Z</time>
      </trkpt>
      <trkpt lat="49.56583" lon="3.63149">
        <ele>165</ele>
        <time>2021-08-08T16:55:45Z</time>
      </trkpt>
      <trkpt lat="49.56571" lon="3.63115">
        <ele>165.96</ele>
        <time>2021-08-08T16:55:53Z</time>
      </trkpt>
      <trkpt lat="49.5656" lon="3.63082">
        <ele>166.93</ele>
        <time>2021-08-08T16:56:01Z</time>
      </trkpt>
      <trkpt lat="49.56552" lon="3.63045">
        <ele>167.41</ele>
        <time>2021-08-08T16:56:09Z</time>
      </trkpt>
      <trkpt lat="49.56545" lon="3.63013">
        <ele>167.89</ele>
        <time>2021-08-08T16:56:16Z</time>
      </trkpt>
      <trkpt lat="49.56535" lon="3.62974">
        <ele>168.85</ele>
        <time>2021-08-08T16:56:24Z</time>
      </trkpt>
      <trkpt lat="49.56526" lon="3.62941">
        <ele>168.85</ele>
        <time>2021-08-08T16:56:31Z</time>
      </trkpt>
      <trkpt lat="49.56519" lon="3.62905">
        <ele>170.29</ele>
        <time>2021-08-08T16:56:37Z</time>
      </trkpt>
      <trkpt lat="49.56508" lon="3.62871">
        <ele>170.77</ele>
        <time>2021-08-08T16:56:44Z</time>
      </trkpt>
      <trkpt lat="49.56505" lon="3.62863">
        <ele>171.73</ele>
        <time>2021-08-08T16:56:46Z</time>
      </trkpt>
      <trkpt lat="49.56502" lon="3.62856">
        <ele>171.73</ele>
        <time>2021-08-08T16:56:48Z</time>
      </trkpt>
      <trkpt lat="49.56501" lon="3.6283">
        <ele>172.21</ele>
        <time>2021-08-08T16:56:55Z</time>
      </trkpt>
      <trkpt lat="49.56493" lon="3.62819">
        <ele>174.14</ele>
        <time>2021-08-08T16:57:02Z</time>
      </trkpt>
      <trkpt lat="49.56493" lon="3.62815">
        <ele>173.66</ele>
        <time>2021-08-08T16:57:03Z</time>
      </trkpt>
      <trkpt lat="49.56492" lon="3.62812">
        <ele>174.14</ele>
        <time>2021-08-08T16:57:04Z</time>
      </trkpt>
      <trkpt lat="49.56488" lon="3.62771">
        <ele>173.66</ele>
        <time>2021-08-08T16:57:12Z</time>
      </trkpt>
      <trkpt lat="49.5648" lon="3.62711">
        <ele>173.66</ele>
        <time>2021-08-08T16:57:22Z</time>
      </trkpt>
      <trkpt lat="49.56482" lon="3.62665">
        <ele>174.14</ele>
        <time>2021-08-08T16:57:30Z</time>
      </trkpt>
      <trkpt lat="49.56488" lon="3.62628">
        <ele>174.62</ele>
        <time>2021-08-08T16:57:38Z</time>
      </trkpt>
      <trkpt lat="49.56489" lon="3.62627">
        <ele>174.62</ele>
        <time>2021-08-08T16:57:39Z</time>
      </trkpt>
      <trkpt lat="49.56489" lon="3.62625">
        <ele>174.62</ele>
        <time>2021-08-08T16:57:40Z</time>
      </trkpt>
      <trkpt lat="49.56494" lon="3.62603">
        <ele>174.62</ele>
        <time>2021-08-08T16:57:46Z</time>
      </trkpt>
      <trkpt lat="49.56498" lon="3.62583">
        <ele>175.1</ele>
        <time>2021-08-08T16:57:51Z</time>
      </trkpt>
      <trkpt lat="49.56502" lon="3.62566">
        <ele>175.1</ele>
        <time>2021-08-08T16:57:54Z</time>
      </trkpt>
      <trkpt lat="49.56517" lon="3.62509">
        <ele>176.06</ele>
        <time>2021-08-08T16:58:03Z</time>
      </trkpt>
      <trkpt lat="49.56533" lon="3.62444">
        <ele>176.06</ele>
        <time>2021-08-08T16:58:13Z</time>
      </trkpt>
      <trkpt lat="49.56551" lon="3.62378">
        <ele>177.02</ele>
        <time>2021-08-08T16:58:23Z</time>
      </trkpt>
      <trkpt lat="49.56553" lon="3.62366">
        <ele>177.02</ele>
        <time>2021-08-08T16:58:25Z</time>
      </trkpt>
      <trkpt lat="49.56562" lon="3.6231">
        <ele>177.02</ele>
        <time>2021-08-08T16:58:35Z</time>
      </trkpt>
      <trkpt lat="49.56566" lon="3.62273">
        <ele>177.5</ele>
        <time>2021-08-08T16:58:43Z</time>
      </trkpt>
      <trkpt lat="49.56565" lon="3.62248">
        <ele>177.5</ele>
        <time>2021-08-08T16:58:48Z</time>
      </trkpt>
      <trkpt lat="49.56564" lon="3.62241">
        <ele>177.5</ele>
        <time>2021-08-08T16:58:49Z</time>
      </trkpt>
      <trkpt lat="49.56563" lon="3.62235">
        <ele>176.06</ele>
        <time>2021-08-08T16:58:50Z</time>
      </trkpt>
      <trkpt lat="49.56561" lon="3.62228">
        <ele>176.06</ele>
        <time>2021-08-08T16:58:51Z</time>
      </trkpt>
      <trkpt lat="49.56544" lon="3.62163">
        <ele>175.58</ele>
        <time>2021-08-08T16:59:00Z</time>
      </trkpt>
      <trkpt lat="49.56538" lon="3.62145">
        <ele>177.5</ele>
        <time>2021-08-08T16:59:05Z</time>
      </trkpt>
      <trkpt lat="49.5653" lon="3.62118">
        <ele>179.42</ele>
        <time>2021-08-08T16:59:13Z</time>
      </trkpt>
      <trkpt lat="49.56519" lon="3.62101">
        <ele>180.38</ele>
        <time>2021-08-08T16:59:20Z</time>
      </trkpt>
      <trkpt lat="49.56511" lon="3.62095">
        <ele>180.38</ele>
        <time>2021-08-08T16:59:26Z</time>
      </trkpt>
      <trkpt lat="49.56513" lon="3.62094">
        <ele>180.38</ele>
        <time>2021-08-08T16:59:34Z</time>
      </trkpt>
      <trkpt lat="49.56515" lon="3.62094">
        <ele>180.38</ele>
        <time>2021-08-08T16:59:42Z</time>
      </trkpt>
      <trkpt lat="49.56515" lon="3.62095">
        <ele>180.38</ele>
        <time>2021-08-08T16:59:43Z</time>
      </trkpt>
      <trkpt lat="49.56514" lon="3.62096">
        <ele>180.38</ele>
        <time>2021-08-08T16:59:44Z</time>
      </trkpt>
      <trkpt lat="49.56512" lon="3.62096">
        <ele>180.38</ele>
        <time>2021-08-08T16:59:45Z</time>
      </trkpt>
      <trkpt lat="49.56511" lon="3.62096">
        <ele>180.38</ele>
        <time>2021-08-08T16:59:46Z</time>
      </trkpt>
      <trkpt lat="49.56509" lon="3.62095">
        <ele>180.38</ele>
        <time>2021-08-08T16:59:47Z</time>
      </trkpt>
      <trkpt lat="49.56507" lon="3.62094">
        <ele>180.38</ele>
        <time>2021-08-08T16:59:48Z</time>
      </trkpt>
      <trkpt lat="49.56506" lon="3.62093">
        <ele>180.38</ele>
        <time>2021-08-08T16:59:49Z</time>
      </trkpt>
      <trkpt lat="49.56504" lon="3.62091">
        <ele>180.38</ele>
        <time>2021-08-08T16:59:50Z</time>
      </trkpt>
      <trkpt lat="49.56501" lon="3.62089">
        <ele>180.38</ele>
        <time>2021-08-08T16:59:51Z</time>
      </trkpt>
      <trkpt lat="49.56499" lon="3.62087">
        <ele>180.38</ele>
        <time>2021-08-08T16:59:52Z</time>
      </trkpt>
      <trkpt lat="49.56497" lon="3.62083">
        <ele>179.42</ele>
        <time>2021-08-08T16:59:53Z</time>
      </trkpt>
      <trkpt lat="49.56496" lon="3.62079">
        <ele>179.42</ele>
        <time>2021-08-08T16:59:54Z</time>
      </trkpt>
      <trkpt lat="49.56492" lon="3.62073">
        <ele>179.42</ele>
        <time>2021-08-08T16:59:56Z</time>
      </trkpt>
      <trkpt lat="49.5649" lon="3.62072">
        <ele>179.42</ele>
        <time>2021-08-08T16:59:57Z</time>
      </trkpt>
      <trkpt lat="49.56487" lon="3.62072">
        <ele>179.42</ele>
        <time>2021-08-08T16:59:58Z</time>
      </trkpt>
      <trkpt lat="49.56484" lon="3.62071">
        <ele>179.42</ele>
        <time>2021-08-08T16:59:59Z</time>
      </trkpt>
      <trkpt lat="49.56481" lon="3.62072">
        <ele>179.42</ele>
        <time>2021-08-08T17:00:00Z</time>
      </trkpt>
      <trkpt lat="49.56478" lon="3.62072">
        <ele>179.42</ele>
        <time>2021-08-08T17:00:01Z</time>
      </trkpt>
      <trkpt lat="49.56476" lon="3.62073">
        <ele>179.42</ele>
        <time>2021-08-08T17:00:02Z</time>
      </trkpt>
      <trkpt lat="49.56463" lon="3.62071">
        <ele>178.46</ele>
        <time>2021-08-08T17:00:08Z</time>
      </trkpt>
      <trkpt lat="49.56463" lon="3.62068">
        <ele>178.46</ele>
        <time>2021-08-08T17:00:09Z</time>
      </trkpt>
      <trkpt lat="49.56456" lon="3.62052">
        <ele>177.98</ele>
        <time>2021-08-08T17:00:15Z</time>
      </trkpt>
      <trkpt lat="49.56452" lon="3.62046">
        <ele>177.5</ele>
        <time>2021-08-08T17:00:18Z</time>
      </trkpt>
      <trkpt lat="49.5645" lon="3.62042">
        <ele>177.5</ele>
        <time>2021-08-08T17:00:20Z</time>
      </trkpt>
      <trkpt lat="49.56449" lon="3.62033">
        <ele>177.02</ele>
        <time>2021-08-08T17:00:23Z</time>
      </trkpt>
      <trkpt lat="49.56447" lon="3.6203">
        <ele>176.54</ele>
        <time>2021-08-08T17:00:24Z</time>
      </trkpt>
      <trkpt lat="49.56446" lon="3.62029">
        <ele>176.54</ele>
        <time>2021-08-08T17:00:25Z</time>
      </trkpt>
      <trkpt lat="49.56444" lon="3.62028">
        <ele>176.54</ele>
        <time>2021-08-08T17:00:26Z</time>
      </trkpt>
      <trkpt lat="49.56442" lon="3.62027">
        <ele>176.06</ele>
        <time>2021-08-08T17:00:27Z</time>
      </trkpt>
      <trkpt lat="49.56441" lon="3.62026">
        <ele>176.06</ele>
        <time>2021-08-08T17:00:28Z</time>
      </trkpt>
      <trkpt lat="49.56429" lon="3.62025">
        <ele>174.14</ele>
        <time>2021-08-08T17:00:35Z</time>
      </trkpt>
      <trkpt lat="49.56426" lon="3.62022">
        <ele>173.66</ele>
        <time>2021-08-08T17:00:37Z</time>
      </trkpt>
      <trkpt lat="49.56423" lon="3.62018">
        <ele>173.17</ele>
        <time>2021-08-08T17:00:39Z</time>
      </trkpt>
      <trkpt lat="49.56421" lon="3.62012">
        <ele>172.69</ele>
        <time>2021-08-08T17:00:44Z</time>
      </trkpt>
      <trkpt lat="49.56417" lon="3.62">
        <ele>171.25</ele>
        <time>2021-08-08T17:00:48Z</time>
      </trkpt>
      <trkpt lat="49.5641" lon="3.61979">
        <ele>168.85</ele>
        <time>2021-08-08T17:00:52Z</time>
      </trkpt>
      <trkpt lat="49.56408" lon="3.61971">
        <ele>168.37</ele>
        <time>2021-08-08T17:00:54Z</time>
      </trkpt>
      <trkpt lat="49.56409" lon="3.6197">
        <ele>167.89</ele>
        <time>2021-08-08T17:00:59Z</time>
      </trkpt>
      <trkpt lat="49.56407" lon="3.6197">
        <ele>167.89</ele>
        <time>2021-08-08T17:01:12Z</time>
      </trkpt>
      <trkpt lat="49.56406" lon="3.61969">
        <ele>167.89</ele>
        <time>2021-08-08T17:01:13Z</time>
      </trkpt>
      <trkpt lat="49.56405" lon="3.61966">
        <ele>167.89</ele>
        <time>2021-08-08T17:01:14Z</time>
      </trkpt>
      <trkpt lat="49.56398" lon="3.61938">
        <ele>165.48</ele>
        <time>2021-08-08T17:01:19Z</time>
      </trkpt>
      <trkpt lat="49.56398" lon="3.6193">
        <ele>164.52</ele>
        <time>2021-08-08T17:01:20Z</time>
      </trkpt>
      <trkpt lat="49.56397" lon="3.61923">
        <ele>164.52</ele>
        <time>2021-08-08T17:01:21Z</time>
      </trkpt>
      <trkpt lat="49.56397" lon="3.61886">
        <ele>165</ele>
        <time>2021-08-08T17:01:27Z</time>
      </trkpt>
      <trkpt lat="49.56399" lon="3.61866">
        <ele>166.45</ele>
        <time>2021-08-08T17:01:33Z</time>
      </trkpt>
      <trkpt lat="49.564" lon="3.61841">
        <ele>168.85</ele>
        <time>2021-08-08T17:01:40Z</time>
      </trkpt>
      <trkpt lat="49.56385" lon="3.61808">
        <ele>170.77</ele>
        <time>2021-08-08T17:01:50Z</time>
      </trkpt>
      <trkpt lat="49.56378" lon="3.61774">
        <ele>171.73</ele>
        <time>2021-08-08T17:01:58Z</time>
      </trkpt>
      <trkpt lat="49.56368" lon="3.6173">
        <ele>173.17</ele>
        <time>2021-08-08T17:02:07Z</time>
      </trkpt>
      <trkpt lat="49.5636" lon="3.61683">
        <ele>174.62</ele>
        <time>2021-08-08T17:02:17Z</time>
      </trkpt>
      <trkpt lat="49.56355" lon="3.6165">
        <ele>175.1</ele>
        <time>2021-08-08T17:02:24Z</time>
      </trkpt>
      <trkpt lat="49.5635" lon="3.61617">
        <ele>175.1</ele>
        <time>2021-08-08T17:02:31Z</time>
      </trkpt>
      <trkpt lat="49.56352" lon="3.61613">
        <ele>175.58</ele>
        <time>2021-08-08T17:02:35Z</time>
      </trkpt>
      <trkpt lat="49.56352" lon="3.61615">
        <ele>175.58</ele>
        <time>2021-08-08T17:02:36Z</time>
      </trkpt>
      <trkpt lat="49.56353" lon="3.61618">
        <ele>175.58</ele>
        <time>2021-08-08T17:02:37Z</time>
      </trkpt>
      <trkpt lat="49.56359" lon="3.61639">
        <ele>176.54</ele>
        <time>2021-08-08T17:02:45Z</time>
      </trkpt>
      <trkpt lat="49.56362" lon="3.61657">
        <ele>177.5</ele>
        <time>2021-08-08T17:02:53Z</time>
      </trkpt>
      <trkpt lat="49.56365" lon="3.61673">
        <ele>179.42</ele>
        <time>2021-08-08T17:03:00Z</time>
      </trkpt>
      <trkpt lat="49.56368" lon="3.61686">
        <ele>180.38</ele>
        <time>2021-08-08T17:03:07Z</time>
      </trkpt>
      <trkpt lat="49.56371" lon="3.61691">
        <ele>180.87</ele>
        <time>2021-08-08T17:03:11Z</time>
      </trkpt>
      <trkpt lat="49.56373" lon="3.61691">
        <ele>180.87</ele>
        <time>2021-08-08T17:03:12Z</time>
      </trkpt>
      <trkpt lat="49.56375" lon="3.6169">
        <ele>180.87</ele>
        <time>2021-08-08T17:03:13Z</time>
      </trkpt>
      <trkpt lat="49.56377" lon="3.6169">
        <ele>180.87</ele>
        <time>2021-08-08T17:03:14Z</time>
      </trkpt>
      <trkpt lat="49.56379" lon="3.6169">
        <ele>180.87</ele>
        <time>2021-08-08T17:03:15Z</time>
      </trkpt>
      <trkpt lat="49.56399" lon="3.61681">
        <ele>181.83</ele>
        <time>2021-08-08T17:03:23Z</time>
      </trkpt>
      <trkpt lat="49.56411" lon="3.61687">
        <ele>181.35</ele>
        <time>2021-08-08T17:03:28Z</time>
      </trkpt>
      <trkpt lat="49.56412" lon="3.61691">
        <ele>181.35</ele>
        <time>2021-08-08T17:03:29Z</time>
      </trkpt>
      <trkpt lat="49.56419" lon="3.61704">
        <ele>181.35</ele>
        <time>2021-08-08T17:03:33Z</time>
      </trkpt>
      <trkpt lat="49.56422" lon="3.61704">
        <ele>181.35</ele>
        <time>2021-08-08T17:03:34Z</time>
      </trkpt>
      <trkpt lat="49.56428" lon="3.61703">
        <ele>181.35</ele>
        <time>2021-08-08T17:03:37Z</time>
      </trkpt>
      <trkpt lat="49.56428" lon="3.61701">
        <ele>181.35</ele>
        <time>2021-08-08T17:03:38Z</time>
      </trkpt>
      <trkpt lat="49.56428" lon="3.61689">
        <ele>181.35</ele>
        <time>2021-08-08T17:03:44Z</time>
      </trkpt>
      <trkpt lat="49.56425" lon="3.61673">
        <ele>181.83</ele>
        <time>2021-08-08T17:03:51Z</time>
      </trkpt>
      <trkpt lat="49.56424" lon="3.61671">
        <ele>181.83</ele>
        <time>2021-08-08T17:03:52Z</time>
      </trkpt>
      <trkpt lat="49.56423" lon="3.61669">
        <ele>181.83</ele>
        <time>2021-08-08T17:03:53Z</time>
      </trkpt>
      <trkpt lat="49.56422" lon="3.61667">
        <ele>181.83</ele>
        <time>2021-08-08T17:03:54Z</time>
      </trkpt>
      <trkpt lat="49.56422" lon="3.61665">
        <ele>181.83</ele>
        <time>2021-08-08T17:03:55Z</time>
      </trkpt>
      <trkpt lat="49.56422" lon="3.61662">
        <ele>181.83</ele>
        <time>2021-08-08T17:03:56Z</time>
      </trkpt>
      <trkpt lat="49.56423" lon="3.61655">
        <ele>181.83</ele>
        <time>2021-08-08T17:04:02Z</time>
      </trkpt>
      <trkpt lat="49.56425" lon="3.61655">
        <ele>181.83</ele>
        <time>2021-08-08T17:04:07Z</time>
      </trkpt>
      <trkpt lat="49.56435" lon="3.6164">
        <ele>171.73</ele>
        <time>2021-08-08T18:08:11Z</time>
      </trkpt>
      <trkpt lat="49.56434" lon="3.61641">
        <ele>171.73</ele>
        <time>2021-08-08T18:08:12Z</time>
      </trkpt>
      <trkpt lat="49.56433" lon="3.61647">
        <ele>171.73</ele>
        <time>2021-08-08T18:08:24Z</time>
      </trkpt>
      <trkpt lat="49.56424" lon="3.61643">
        <ele>171.73</ele>
        <time>2021-08-08T18:08:36Z</time>
      </trkpt>
      <trkpt lat="49.56419" lon="3.61642">
        <ele>171.73</ele>
        <time>2021-08-08T18:08:47Z</time>
      </trkpt>
      <trkpt lat="49.56419" lon="3.6164">
        <ele>171.73</ele>
        <time>2021-08-08T18:09:02Z</time>
      </trkpt>
      <trkpt lat="49.56421" lon="3.61642">
        <ele>171.73</ele>
        <time>2021-08-08T18:09:16Z</time>
      </trkpt>
      <trkpt lat="49.56421" lon="3.61642">
        <ele>176.54</ele>
        <time>2021-08-08T18:09:21Z</time>
      </trkpt>
      <trkpt lat="49.56421" lon="3.61642">
        <ele>176.54</ele>
        <time>2021-08-08T18:09:22Z</time>
      </trkpt>
      <trkpt lat="49.56422" lon="3.61643">
        <ele>179.9</ele>
        <time>2021-08-08T18:09:25Z</time>
      </trkpt>
      <trkpt lat="49.56422" lon="3.61643">
        <ele>182.79</ele>
        <time>2021-08-08T18:09:28Z</time>
      </trkpt>
      <trkpt lat="49.56422" lon="3.61643">
        <ele>186.63</ele>
        <time>2021-08-08T18:09:32Z</time>
      </trkpt>
      <trkpt lat="49.56422" lon="3.61643">
        <ele>190</ele>
        <time>2021-08-08T18:09:36Z</time>
      </trkpt>
      <trkpt lat="49.56423" lon="3.61642">
        <ele>193.84</ele>
        <time>2021-08-08T18:09:41Z</time>
      </trkpt>
      <trkpt lat="49.56423" lon="3.61643">
        <ele>197.21</ele>
        <time>2021-08-08T18:09:46Z</time>
      </trkpt>
      <trkpt lat="49.56422" lon="3.61642">
        <ele>200.57</ele>
        <time>2021-08-08T18:09:54Z</time>
      </trkpt>
      <trkpt lat="49.56422" lon="3.61642">
        <ele>203.94</ele>
        <time>2021-08-08T18:10:02Z</time>
      </trkpt>
      <trkpt lat="49.56424" lon="3.61646">
        <ele>205.38</ele>
        <time>2021-08-08T18:10:20Z</time>
      </trkpt>
      <trkpt lat="49.56423" lon="3.61645">
        <ele>205.38</ele>
        <time>2021-08-08T18:10:33Z</time>
      </trkpt>
      <trkpt lat="49.56421" lon="3.61644">
        <ele>205.38</ele>
        <time>2021-08-08T18:10:45Z</time>
      </trkpt>
      <trkpt lat="49.56417" lon="3.61645">
        <ele>204.9</ele>
        <time>2021-08-08T18:10:59Z</time>
      </trkpt>
      <trkpt lat="49.56416" lon="3.61647">
        <ele>204.9</ele>
        <time>2021-08-08T18:11:09Z</time>
      </trkpt>
      <trkpt lat="49.56416" lon="3.61647">
        <ele>204.9</ele>
        <time>2021-08-08T18:11:24Z</time>
      </trkpt>
      <trkpt lat="49.56419" lon="3.61647">
        <ele>204.9</ele>
        <time>2021-08-08T18:11:35Z</time>
      </trkpt>
      <trkpt lat="49.56421" lon="3.61647">
        <ele>204.9</ele>
        <time>2021-08-08T18:11:44Z</time>
      </trkpt>
      <trkpt lat="49.56423" lon="3.61645">
        <ele>204.42</ele>
        <time>2021-08-08T18:11:58Z</time>
      </trkpt>
      <trkpt lat="49.56421" lon="3.61645">
        <ele>204.42</ele>
        <time>2021-08-08T18:12:21Z</time>
      </trkpt>
      <trkpt lat="49.56422" lon="3.61646">
        <ele>204.42</ele>
        <time>2021-08-08T18:12:33Z</time>
      </trkpt>
      <trkpt lat="49.56423" lon="3.61647">
        <ele>204.42</ele>
        <time>2021-08-08T18:12:44Z</time>
      </trkpt>
      <trkpt lat="49.56421" lon="3.61649">
        <ele>203.94</ele>
        <time>2021-08-08T18:13:01Z</time>
      </trkpt>
      <trkpt lat="49.56419" lon="3.61648">
        <ele>203.94</ele>
        <time>2021-08-08T18:13:17Z</time>
      </trkpt>
      <trkpt lat="49.56417" lon="3.61647">
        <ele>203.94</ele>
        <time>2021-08-08T18:13:28Z</time>
      </trkpt>
      <trkpt lat="49.56415" lon="3.61647">
        <ele>203.94</ele>
        <time>2021-08-08T18:13:43Z</time>
      </trkpt>
      <trkpt lat="49.56419" lon="3.61645">
        <ele>203.94</ele>
        <time>2021-08-08T18:14:01Z</time>
      </trkpt>
      <trkpt lat="49.56421" lon="3.61645">
        <ele>203.46</ele>
        <time>2021-08-08T18:14:11Z</time>
      </trkpt>
      <trkpt lat="49.56421" lon="3.61645">
        <ele>203.46</ele>
        <time>2021-08-08T18:14:23Z</time>
      </trkpt>
      <trkpt lat="49.5642" lon="3.61647">
        <ele>203.46</ele>
        <time>2021-08-08T18:14:35Z</time>
      </trkpt>
      <trkpt lat="49.56421" lon="3.61645">
        <ele>203.46</ele>
        <time>2021-08-08T18:14:46Z</time>
      </trkpt>
      <trkpt lat="49.56422" lon="3.61642">
        <ele>202.98</ele>
        <time>2021-08-08T18:15:00Z</time>
      </trkpt>
      <trkpt lat="49.56422" lon="3.61644">
        <ele>202.98</ele>
        <time>2021-08-08T18:15:08Z</time>
      </trkpt>
      <trkpt lat="49.56423" lon="3.61647">
        <ele>202.98</ele>
        <time>2021-08-08T18:15:14Z</time>
      </trkpt>
      <trkpt lat="49.56423" lon="3.6165">
        <ele>202.98</ele>
        <time>2021-08-08T18:15:28Z</time>
      </trkpt>
      <trkpt lat="49.56424" lon="3.61651">
        <ele>202.98</ele>
        <time>2021-08-08T18:15:41Z</time>
      </trkpt>
      <trkpt lat="49.56424" lon="3.61651">
        <ele>202.49</ele>
        <time>2021-08-08T18:15:52Z</time>
      </trkpt>
      <trkpt lat="49.56423" lon="3.61651">
        <ele>202.49</ele>
        <time>2021-08-08T18:15:59Z</time>
      </trkpt>
      <trkpt lat="49.56423" lon="3.61651">
        <ele>201.53</ele>
        <time>2021-08-08T18:16:08Z</time>
      </trkpt>
      <trkpt lat="49.56423" lon="3.61651">
        <ele>201.53</ele>
        <time>2021-08-08T18:16:09Z</time>
      </trkpt>
      <trkpt lat="49.56422" lon="3.61649">
        <ele>201.05</ele>
        <time>2021-08-08T18:16:18Z</time>
      </trkpt>
      <trkpt lat="49.5642" lon="3.61649">
        <ele>201.05</ele>
        <time>2021-08-08T18:16:34Z</time>
      </trkpt>
      <trkpt lat="49.56421" lon="3.6165">
        <ele>201.05</ele>
        <time>2021-08-08T18:16:43Z</time>
      </trkpt>
      <trkpt lat="49.5642" lon="3.6165">
        <ele>201.05</ele>
        <time>2021-08-08T18:16:52Z</time>
      </trkpt>
      <trkpt lat="49.56421" lon="3.61652">
        <ele>200.57</ele>
        <time>2021-08-08T18:17:06Z</time>
      </trkpt>
      <trkpt lat="49.56421" lon="3.61652">
        <ele>200.57</ele>
        <time>2021-08-08T18:17:18Z</time>
      </trkpt>
      <trkpt lat="49.56422" lon="3.61653">
        <ele>200.57</ele>
        <time>2021-08-08T18:17:29Z</time>
      </trkpt>
      <trkpt lat="49.56422" lon="3.61653">
        <ele>200.09</ele>
        <time>2021-08-08T18:17:40Z</time>
      </trkpt>
      <trkpt lat="49.56424" lon="3.61653">
        <ele>200.09</ele>
        <time>2021-08-08T18:17:54Z</time>
      </trkpt>
      <trkpt lat="49.56425" lon="3.61653">
        <ele>200.09</ele>
        <time>2021-08-08T18:18:06Z</time>
      </trkpt>
      <trkpt lat="49.56426" lon="3.61654">
        <ele>200.09</ele>
        <time>2021-08-08T18:18:15Z</time>
      </trkpt>
      <trkpt lat="49.56426" lon="3.61654">
        <ele>199.61</ele>
        <time>2021-08-08T18:18:28Z</time>
      </trkpt>
      <trkpt lat="49.56428" lon="3.61658">
        <ele>199.61</ele>
        <time>2021-08-08T18:18:34Z</time>
      </trkpt>
      <trkpt lat="49.56428" lon="3.61659">
        <ele>199.61</ele>
        <time>2021-08-08T18:18:41Z</time>
      </trkpt>
      <trkpt lat="49.56428" lon="3.6166">
        <ele>199.61</ele>
        <time>2021-08-08T18:18:50Z</time>
      </trkpt>
      <trkpt lat="49.56426" lon="3.6166">
        <ele>199.61</ele>
        <time>2021-08-08T18:19:00Z</time>
      </trkpt>
      <trkpt lat="49.56426" lon="3.6166">
        <ele>199.61</ele>
        <time>2021-08-08T18:19:08Z</time>
      </trkpt>
      <trkpt lat="49.56425" lon="3.6166">
        <ele>199.13</ele>
        <time>2021-08-08T18:19:22Z</time>
      </trkpt>
      <trkpt lat="49.56426" lon="3.61661">
        <ele>199.13</ele>
        <time>2021-08-08T18:19:25Z</time>
      </trkpt>
      <trkpt lat="49.56431" lon="3.61687">
        <ele>198.65</ele>
        <time>2021-08-08T18:19:33Z</time>
      </trkpt>
      <trkpt lat="49.56435" lon="3.61711">
        <ele>197.69</ele>
        <time>2021-08-08T18:19:40Z</time>
      </trkpt>
      <trkpt lat="49.56439" lon="3.61722">
        <ele>197.69</ele>
        <time>2021-08-08T18:19:46Z</time>
      </trkpt>
      <trkpt lat="49.56445" lon="3.61742">
        <ele>197.21</ele>
        <time>2021-08-08T18:19:52Z</time>
      </trkpt>
      <trkpt lat="49.56447" lon="3.61744">
        <ele>197.21</ele>
        <time>2021-08-08T18:19:53Z</time>
      </trkpt>
      <trkpt lat="49.5645" lon="3.61744">
        <ele>197.21</ele>
        <time>2021-08-08T18:19:54Z</time>
      </trkpt>
      <trkpt lat="49.56452" lon="3.61744">
        <ele>197.21</ele>
        <time>2021-08-08T18:19:55Z</time>
      </trkpt>
      <trkpt lat="49.56455" lon="3.61744">
        <ele>197.21</ele>
        <time>2021-08-08T18:19:56Z</time>
      </trkpt>
      <trkpt lat="49.56457" lon="3.61743">
        <ele>197.21</ele>
        <time>2021-08-08T18:19:57Z</time>
      </trkpt>
      <trkpt lat="49.5646" lon="3.61741">
        <ele>197.21</ele>
        <time>2021-08-08T18:19:58Z</time>
      </trkpt>
      <trkpt lat="49.56472" lon="3.61732">
        <ele>196.73</ele>
        <time>2021-08-08T18:20:04Z</time>
      </trkpt>
      <trkpt lat="49.56474" lon="3.61727">
        <ele>196.73</ele>
        <time>2021-08-08T18:20:05Z</time>
      </trkpt>
      <trkpt lat="49.56475" lon="3.61723">
        <ele>196.73</ele>
        <time>2021-08-08T18:20:06Z</time>
      </trkpt>
      <trkpt lat="49.56475" lon="3.61719">
        <ele>196.73</ele>
        <time>2021-08-08T18:20:07Z</time>
      </trkpt>
      <trkpt lat="49.56475" lon="3.61714">
        <ele>196.73</ele>
        <time>2021-08-08T18:20:08Z</time>
      </trkpt>
      <trkpt lat="49.56475" lon="3.61709">
        <ele>196.73</ele>
        <time>2021-08-08T18:20:09Z</time>
      </trkpt>
      <trkpt lat="49.56475" lon="3.61681">
        <ele>199.13</ele>
        <time>2021-08-08T18:20:16Z</time>
      </trkpt>
      <trkpt lat="49.5648" lon="3.61662">
        <ele>198.65</ele>
        <time>2021-08-08T18:20:21Z</time>
      </trkpt>
      <trkpt lat="49.56482" lon="3.6166">
        <ele>198.65</ele>
        <time>2021-08-08T18:20:22Z</time>
      </trkpt>
      <trkpt lat="49.565" lon="3.61654">
        <ele>198.65</ele>
        <time>2021-08-08T18:20:28Z</time>
      </trkpt>
      <trkpt lat="49.5651" lon="3.6165">
        <ele>197.21</ele>
        <time>2021-08-08T18:20:31Z</time>
      </trkpt>
      <trkpt lat="49.5653" lon="3.61652">
        <ele>195.77</ele>
        <time>2021-08-08T18:20:37Z</time>
      </trkpt>
      <trkpt lat="49.56536" lon="3.61652">
        <ele>195.77</ele>
        <time>2021-08-08T18:20:39Z</time>
      </trkpt>
      <trkpt lat="49.56539" lon="3.61649">
        <ele>195.77</ele>
        <time>2021-08-08T18:20:40Z</time>
      </trkpt>
      <trkpt lat="49.5654" lon="3.61645">
        <ele>195.77</ele>
        <time>2021-08-08T18:20:41Z</time>
      </trkpt>
      <trkpt lat="49.56547" lon="3.61609">
        <ele>197.21</ele>
        <time>2021-08-08T18:20:49Z</time>
      </trkpt>
      <trkpt lat="49.56554" lon="3.61568">
        <ele>198.65</ele>
        <time>2021-08-08T18:20:59Z</time>
      </trkpt>
      <trkpt lat="49.56557" lon="3.61533">
        <ele>198.65</ele>
        <time>2021-08-08T18:21:07Z</time>
      </trkpt>
      <trkpt lat="49.56555" lon="3.61501">
        <ele>198.65</ele>
        <time>2021-08-08T18:21:13Z</time>
      </trkpt>
      <trkpt lat="49.56543" lon="3.61431">
        <ele>199.13</ele>
        <time>2021-08-08T18:21:25Z</time>
      </trkpt>
      <trkpt lat="49.56539" lon="3.61416">
        <ele>199.13</ele>
        <time>2021-08-08T18:21:30Z</time>
      </trkpt>
      <trkpt lat="49.5654" lon="3.61414">
        <ele>198.65</ele>
        <time>2021-08-08T18:21:31Z</time>
      </trkpt>
      <trkpt lat="49.5654" lon="3.61413">
        <ele>198.65</ele>
        <time>2021-08-08T18:21:32Z</time>
      </trkpt>
      <trkpt lat="49.56542" lon="3.61412">
        <ele>199.61</ele>
        <time>2021-08-08T18:21:33Z</time>
      </trkpt>
      <trkpt lat="49.56543" lon="3.61412">
        <ele>199.61</ele>
        <time>2021-08-08T18:21:34Z</time>
      </trkpt>
      <trkpt lat="49.56544" lon="3.61407">
        <ele>199.61</ele>
        <time>2021-08-08T18:21:37Z</time>
      </trkpt>
      <trkpt lat="49.56543" lon="3.61405">
        <ele>199.61</ele>
        <time>2021-08-08T18:21:38Z</time>
      </trkpt>
      <trkpt lat="49.56543" lon="3.61401">
        <ele>197.69</ele>
        <time>2021-08-08T18:21:39Z</time>
      </trkpt>
      <trkpt lat="49.56543" lon="3.61395">
        <ele>197.69</ele>
        <time>2021-08-08T18:21:40Z</time>
      </trkpt>
      <trkpt lat="49.56542" lon="3.61389">
        <ele>196.73</ele>
        <time>2021-08-08T18:21:41Z</time>
      </trkpt>
      <trkpt lat="49.56542" lon="3.61373">
        <ele>195.28</ele>
        <time>2021-08-08T18:21:43Z</time>
      </trkpt>
      <trkpt lat="49.56543" lon="3.61367">
        <ele>194.32</ele>
        <time>2021-08-08T18:21:44Z</time>
      </trkpt>
      <trkpt lat="49.56545" lon="3.61359">
        <ele>193.36</ele>
        <time>2021-08-08T18:21:45Z</time>
      </trkpt>
      <trkpt lat="49.56547" lon="3.61352">
        <ele>193.36</ele>
        <time>2021-08-08T18:21:46Z</time>
      </trkpt>
      <trkpt lat="49.56548" lon="3.61344">
        <ele>193.36</ele>
        <time>2021-08-08T18:21:47Z</time>
      </trkpt>
      <trkpt lat="49.56548" lon="3.61336">
        <ele>193.36</ele>
        <time>2021-08-08T18:21:48Z</time>
      </trkpt>
      <trkpt lat="49.56547" lon="3.61328">
        <ele>193.36</ele>
        <time>2021-08-08T18:21:49Z</time>
      </trkpt>
      <trkpt lat="49.56546" lon="3.61288">
        <ele>192.88</ele>
        <time>2021-08-08T18:21:54Z</time>
      </trkpt>
      <trkpt lat="49.56548" lon="3.61272">
        <ele>192.88</ele>
        <time>2021-08-08T18:21:56Z</time>
      </trkpt>
      <trkpt lat="49.56553" lon="3.6124">
        <ele>192.88</ele>
        <time>2021-08-08T18:22:00Z</time>
      </trkpt>
      <trkpt lat="49.56568" lon="3.61169">
        <ele>191.92</ele>
        <time>2021-08-08T18:22:09Z</time>
      </trkpt>
      <trkpt lat="49.5658" lon="3.61088">
        <ele>191.92</ele>
        <time>2021-08-08T18:22:19Z</time>
      </trkpt>
      <trkpt lat="49.56593" lon="3.60989">
        <ele>191.92</ele>
        <time>2021-08-08T18:22:31Z</time>
      </trkpt>
      <trkpt lat="49.56605" lon="3.60907">
        <ele>190.96</ele>
        <time>2021-08-08T18:22:41Z</time>
      </trkpt>
      <trkpt lat="49.56618" lon="3.60844">
        <ele>190.48</ele>
        <time>2021-08-08T18:22:49Z</time>
      </trkpt>
      <trkpt lat="49.56633" lon="3.60777">
        <ele>188.08</ele>
        <time>2021-08-08T18:22:57Z</time>
      </trkpt>
      <trkpt lat="49.56638" lon="3.6073">
        <ele>187.11</ele>
        <time>2021-08-08T18:23:02Z</time>
      </trkpt>
      <trkpt lat="49.56642" lon="3.60645">
        <ele>186.15</ele>
        <time>2021-08-08T18:23:11Z</time>
      </trkpt>
      <trkpt lat="49.5664" lon="3.60565">
        <ele>186.15</ele>
        <time>2021-08-08T18:23:20Z</time>
      </trkpt>
      <trkpt lat="49.56639" lon="3.60557">
        <ele>186.15</ele>
        <time>2021-08-08T18:23:21Z</time>
      </trkpt>
      <trkpt lat="49.56638" lon="3.60549">
        <ele>186.15</ele>
        <time>2021-08-08T18:23:22Z</time>
      </trkpt>
      <trkpt lat="49.56628" lon="3.60473">
        <ele>184.71</ele>
        <time>2021-08-08T18:23:31Z</time>
      </trkpt>
      <trkpt lat="49.56614" lon="3.60418">
        <ele>184.71</ele>
        <time>2021-08-08T18:23:39Z</time>
      </trkpt>
      <trkpt lat="49.56599" lon="3.60358">
        <ele>183.27</ele>
        <time>2021-08-08T18:23:47Z</time>
      </trkpt>
      <trkpt lat="49.56589" lon="3.60315">
        <ele>182.79</ele>
        <time>2021-08-08T18:23:54Z</time>
      </trkpt>
      <trkpt lat="49.56594" lon="3.603">
        <ele>180.38</ele>
        <time>2021-08-08T18:24:01Z</time>
      </trkpt>
      <trkpt lat="49.56595" lon="3.60294">
        <ele>179.42</ele>
        <time>2021-08-08T18:24:02Z</time>
      </trkpt>
      <trkpt lat="49.56595" lon="3.60275">
        <ele>176.54</ele>
        <time>2021-08-08T18:24:05Z</time>
      </trkpt>
      <trkpt lat="49.56594" lon="3.60268">
        <ele>175.1</ele>
        <time>2021-08-08T18:24:06Z</time>
      </trkpt>
      <trkpt lat="49.5659" lon="3.60247">
        <ele>170.77</ele>
        <time>2021-08-08T18:24:09Z</time>
      </trkpt>
      <trkpt lat="49.56586" lon="3.60227">
        <ele>167.41</ele>
        <time>2021-08-08T18:24:12Z</time>
      </trkpt>
      <trkpt lat="49.5658" lon="3.60205">
        <ele>163.08</ele>
        <time>2021-08-08T18:24:15Z</time>
      </trkpt>
      <trkpt lat="49.56579" lon="3.60198">
        <ele>162.12</ele>
        <time>2021-08-08T18:24:16Z</time>
      </trkpt>
      <trkpt lat="49.56575" lon="3.60184">
        <ele>159.72</ele>
        <time>2021-08-08T18:24:18Z</time>
      </trkpt>
      <trkpt lat="49.56574" lon="3.60177">
        <ele>158.27</ele>
        <time>2021-08-08T18:24:19Z</time>
      </trkpt>
      <trkpt lat="49.56569" lon="3.6015">
        <ele>154.43</ele>
        <time>2021-08-08T18:24:22Z</time>
      </trkpt>
      <trkpt lat="49.56562" lon="3.60121">
        <ele>151.06</ele>
        <time>2021-08-08T18:24:26Z</time>
      </trkpt>
      <trkpt lat="49.5656" lon="3.60105">
        <ele>149.62</ele>
        <time>2021-08-08T18:24:31Z</time>
      </trkpt>
      <trkpt lat="49.56558" lon="3.60089">
        <ele>146.74</ele>
        <time>2021-08-08T18:24:37Z</time>
      </trkpt>
      <trkpt lat="49.56558" lon="3.6008">
        <ele>146.26</ele>
        <time>2021-08-08T18:24:40Z</time>
      </trkpt>
      <trkpt lat="49.56559" lon="3.60074">
        <ele>144.82</ele>
        <time>2021-08-08T18:24:42Z</time>
      </trkpt>
      <trkpt lat="49.56562" lon="3.60057">
        <ele>141.93</ele>
        <time>2021-08-08T18:24:47Z</time>
      </trkpt>
      <trkpt lat="49.56562" lon="3.6005">
        <ele>141.45</ele>
        <time>2021-08-08T18:24:49Z</time>
      </trkpt>
      <trkpt lat="49.56562" lon="3.6004">
        <ele>140.01</ele>
        <time>2021-08-08T18:24:52Z</time>
      </trkpt>
      <trkpt lat="49.56561" lon="3.60024">
        <ele>138.09</ele>
        <time>2021-08-08T18:24:57Z</time>
      </trkpt>
      <trkpt lat="49.56564" lon="3.60004">
        <ele>134.72</ele>
        <time>2021-08-08T18:25:03Z</time>
      </trkpt>
      <trkpt lat="49.56566" lon="3.59985">
        <ele>131.84</ele>
        <time>2021-08-08T18:25:06Z</time>
      </trkpt>
      <trkpt lat="49.56566" lon="3.59979">
        <ele>130.88</ele>
        <time>2021-08-08T18:25:07Z</time>
      </trkpt>
      <trkpt lat="49.56565" lon="3.59975">
        <ele>130.88</ele>
        <time>2021-08-08T18:25:08Z</time>
      </trkpt>
      <trkpt lat="49.56564" lon="3.59972">
        <ele>130.88</ele>
        <time>2021-08-08T18:25:09Z</time>
      </trkpt>
      <trkpt lat="49.56565" lon="3.5997">
        <ele>129.43</ele>
        <time>2021-08-08T18:25:10Z</time>
      </trkpt>
      <trkpt lat="49.56566" lon="3.59967">
        <ele>128.47</ele>
        <time>2021-08-08T18:25:11Z</time>
      </trkpt>
      <trkpt lat="49.56567" lon="3.59961">
        <ele>127.99</ele>
        <time>2021-08-08T18:25:12Z</time>
      </trkpt>
      <trkpt lat="49.56568" lon="3.59954">
        <ele>126.55</ele>
        <time>2021-08-08T18:25:13Z</time>
      </trkpt>
      <trkpt lat="49.56569" lon="3.59944">
        <ele>126.07</ele>
        <time>2021-08-08T18:25:14Z</time>
      </trkpt>
      <trkpt lat="49.5657" lon="3.59934">
        <ele>125.59</ele>
        <time>2021-08-08T18:25:15Z</time>
      </trkpt>
      <trkpt lat="49.56571" lon="3.59923">
        <ele>124.63</ele>
        <time>2021-08-08T18:25:16Z</time>
      </trkpt>
      <trkpt lat="49.56572" lon="3.599">
        <ele>123.67</ele>
        <time>2021-08-08T18:25:18Z</time>
      </trkpt>
      <trkpt lat="49.56569" lon="3.59876">
        <ele>123.67</ele>
        <time>2021-08-08T18:25:21Z</time>
      </trkpt>
      <trkpt lat="49.56566" lon="3.59868">
        <ele>124.15</ele>
        <time>2021-08-08T18:25:27Z</time>
      </trkpt>
      <trkpt lat="49.56565" lon="3.59858">
        <ele>124.15</ele>
        <time>2021-08-08T18:25:33Z</time>
      </trkpt>
      <trkpt lat="49.56565" lon="3.59856">
        <ele>123.19</ele>
        <time>2021-08-08T18:25:34Z</time>
      </trkpt>
      <trkpt lat="49.56569" lon="3.5983">
        <ele>119.34</ele>
        <time>2021-08-08T18:25:38Z</time>
      </trkpt>
      <trkpt lat="49.56571" lon="3.59794">
        <ele>115.98</ele>
        <time>2021-08-08T18:25:41Z</time>
      </trkpt>
      <trkpt lat="49.56578" lon="3.59732">
        <ele>112.13</ele>
        <time>2021-08-08T18:25:46Z</time>
      </trkpt>
      <trkpt lat="49.56584" lon="3.59698">
        <ele>110.69</ele>
        <time>2021-08-08T18:25:49Z</time>
      </trkpt>
      <trkpt lat="49.56587" lon="3.59669">
        <ele>108.77</ele>
        <time>2021-08-08T18:25:53Z</time>
      </trkpt>
      <trkpt lat="49.56585" lon="3.59663">
        <ele>108.29</ele>
        <time>2021-08-08T18:25:55Z</time>
      </trkpt>
      <trkpt lat="49.56584" lon="3.59662">
        <ele>108.29</ele>
        <time>2021-08-08T18:25:56Z</time>
      </trkpt>
      <trkpt lat="49.56582" lon="3.59662">
        <ele>108.29</ele>
        <time>2021-08-08T18:25:57Z</time>
      </trkpt>
      <trkpt lat="49.56563" lon="3.59656">
        <ele>108.29</ele>
        <time>2021-08-08T18:26:05Z</time>
      </trkpt>
      <trkpt lat="49.56547" lon="3.59647">
        <ele>109.73</ele>
        <time>2021-08-08T18:26:13Z</time>
      </trkpt>
      <trkpt lat="49.5653" lon="3.59641">
        <ele>109.73</ele>
        <time>2021-08-08T18:26:20Z</time>
      </trkpt>
      <trkpt lat="49.56514" lon="3.59636">
        <ele>108.29</ele>
        <time>2021-08-08T18:26:25Z</time>
      </trkpt>
      <trkpt lat="49.56488" lon="3.59631">
        <ele>107.81</ele>
        <time>2021-08-08T18:26:33Z</time>
      </trkpt>
      <trkpt lat="49.5646" lon="3.59628">
        <ele>107.32</ele>
        <time>2021-08-08T18:26:41Z</time>
      </trkpt>
      <trkpt lat="49.56436" lon="3.59631">
        <ele>107.32</ele>
        <time>2021-08-08T18:26:49Z</time>
      </trkpt>
      <trkpt lat="49.56412" lon="3.59634">
        <ele>107.32</ele>
        <time>2021-08-08T18:26:58Z</time>
      </trkpt>
      <trkpt lat="49.56409" lon="3.59639">
        <ele>107.32</ele>
        <time>2021-08-08T18:27:00Z</time>
      </trkpt>
      <trkpt lat="49.56409" lon="3.59641">
        <ele>108.29</ele>
        <time>2021-08-08T18:27:01Z</time>
      </trkpt>
      <trkpt lat="49.56404" lon="3.59665">
        <ele>108.77</ele>
        <time>2021-08-08T18:27:08Z</time>
      </trkpt>
      <trkpt lat="49.56402" lon="3.59667">
        <ele>108.77</ele>
        <time>2021-08-08T18:27:09Z</time>
      </trkpt>
      <trkpt lat="49.564" lon="3.59668">
        <ele>109.25</ele>
        <time>2021-08-08T18:27:10Z</time>
      </trkpt>
      <trkpt lat="49.56398" lon="3.59669">
        <ele>109.25</ele>
        <time>2021-08-08T18:27:11Z</time>
      </trkpt>
      <trkpt lat="49.56396" lon="3.5967">
        <ele>109.25</ele>
        <time>2021-08-08T18:27:12Z</time>
      </trkpt>
      <trkpt lat="49.56394" lon="3.5967">
        <ele>109.73</ele>
        <time>2021-08-08T18:27:13Z</time>
      </trkpt>
      <trkpt lat="49.56381" lon="3.59668">
        <ele>111.65</ele>
        <time>2021-08-08T18:27:21Z</time>
      </trkpt>
      <trkpt lat="49.56367" lon="3.59673">
        <ele>112.61</ele>
        <time>2021-08-08T18:27:28Z</time>
      </trkpt>
      <trkpt lat="49.56344" lon="3.59684">
        <ele>112.61</ele>
        <time>2021-08-08T18:27:37Z</time>
      </trkpt>
      <trkpt lat="49.56336" lon="3.59702">
        <ele>112.61</ele>
        <time>2021-08-08T18:27:42Z</time>
      </trkpt>
      <trkpt lat="49.56322" lon="3.59738">
        <ele>112.61</ele>
        <time>2021-08-08T18:27:50Z</time>
      </trkpt>
      <trkpt lat="49.56302" lon="3.59777">
        <ele>113.09</ele>
        <time>2021-08-08T18:28:00Z</time>
      </trkpt>
      <trkpt lat="49.56282" lon="3.59806">
        <ele>113.57</ele>
        <time>2021-08-08T18:28:09Z</time>
      </trkpt>
      <trkpt lat="49.56248" lon="3.59814">
        <ele>113.09</ele>
        <time>2021-08-08T18:28:17Z</time>
      </trkpt>
      <trkpt lat="49.56236" lon="3.59816">
        <ele>113.09</ele>
        <time>2021-08-08T18:28:20Z</time>
      </trkpt>
      <trkpt lat="49.56194" lon="3.59828">
        <ele>113.09</ele>
        <time>2021-08-08T18:28:30Z</time>
      </trkpt>
      <trkpt lat="49.56174" lon="3.59832">
        <ele>113.09</ele>
        <time>2021-08-08T18:28:35Z</time>
      </trkpt>
      <trkpt lat="49.56172" lon="3.59828">
        <ele>113.09</ele>
        <time>2021-08-08T18:28:36Z</time>
      </trkpt>
      <trkpt lat="49.5617" lon="3.59821">
        <ele>111.65</ele>
        <time>2021-08-08T18:28:37Z</time>
      </trkpt>
      <trkpt lat="49.56163" lon="3.59791">
        <ele>108.29</ele>
        <time>2021-08-08T18:28:40Z</time>
      </trkpt>
      <trkpt lat="49.56154" lon="3.59754">
        <ele>104.92</ele>
        <time>2021-08-08T18:28:43Z</time>
      </trkpt>
      <trkpt lat="49.56149" lon="3.59731">
        <ele>104.44</ele>
        <time>2021-08-08T18:28:45Z</time>
      </trkpt>
      <trkpt lat="49.56139" lon="3.5969">
        <ele>102.52</ele>
        <time>2021-08-08T18:28:51Z</time>
      </trkpt>
      <trkpt lat="49.56138" lon="3.59687">
        <ele>102.52</ele>
        <time>2021-08-08T18:28:52Z</time>
      </trkpt>
      <trkpt lat="49.56137" lon="3.59686">
        <ele>102.52</ele>
        <time>2021-08-08T18:28:53Z</time>
      </trkpt>
      <trkpt lat="49.56135" lon="3.59683">
        <ele>102.52</ele>
        <time>2021-08-08T18:28:54Z</time>
      </trkpt>
      <trkpt lat="49.56135" lon="3.59679">
        <ele>102.52</ele>
        <time>2021-08-08T18:28:55Z</time>
      </trkpt>
      <trkpt lat="49.56134" lon="3.59675">
        <ele>102.52</ele>
        <time>2021-08-08T18:28:56Z</time>
      </trkpt>
      <trkpt lat="49.56133" lon="3.59671">
        <ele>102.04</ele>
        <time>2021-08-08T18:28:57Z</time>
      </trkpt>
      <trkpt lat="49.56131" lon="3.59669">
        <ele>102.04</ele>
        <time>2021-08-08T18:28:58Z</time>
      </trkpt>
      <trkpt lat="49.56128" lon="3.59667">
        <ele>102.04</ele>
        <time>2021-08-08T18:28:59Z</time>
      </trkpt>
      <trkpt lat="49.56125" lon="3.59666">
        <ele>101.56</ele>
        <time>2021-08-08T18:29:00Z</time>
      </trkpt>
      <trkpt lat="49.56121" lon="3.59667">
        <ele>101.56</ele>
        <time>2021-08-08T18:29:01Z</time>
      </trkpt>
      <trkpt lat="49.56118" lon="3.59669">
        <ele>101.56</ele>
        <time>2021-08-08T18:29:02Z</time>
      </trkpt>
      <trkpt lat="49.56115" lon="3.59671">
        <ele>101.56</ele>
        <time>2021-08-08T18:29:03Z</time>
      </trkpt>
      <trkpt lat="49.56112" lon="3.59675">
        <ele>101.56</ele>
        <time>2021-08-08T18:29:04Z</time>
      </trkpt>
      <trkpt lat="49.56109" lon="3.59678">
        <ele>101.56</ele>
        <time>2021-08-08T18:29:05Z</time>
      </trkpt>
      <trkpt lat="49.56107" lon="3.59681">
        <ele>101.56</ele>
        <time>2021-08-08T18:29:06Z</time>
      </trkpt>
      <trkpt lat="49.56104" lon="3.59686">
        <ele>101.56</ele>
        <time>2021-08-08T18:29:07Z</time>
      </trkpt>
      <trkpt lat="49.56101" lon="3.59689">
        <ele>101.56</ele>
        <time>2021-08-08T18:29:08Z</time>
      </trkpt>
      <trkpt lat="49.56098" lon="3.59693">
        <ele>101.56</ele>
        <time>2021-08-08T18:29:09Z</time>
      </trkpt>
      <trkpt lat="49.56072" lon="3.59721">
        <ele>101.56</ele>
        <time>2021-08-08T18:29:18Z</time>
      </trkpt>
      <trkpt lat="49.56048" lon="3.59752">
        <ele>101.56</ele>
        <time>2021-08-08T18:29:27Z</time>
      </trkpt>
      <trkpt lat="49.56017" lon="3.59791">
        <ele>101.56</ele>
        <time>2021-08-08T18:29:37Z</time>
      </trkpt>
      <trkpt lat="49.55992" lon="3.59815">
        <ele>103</ele>
        <time>2021-08-08T18:29:45Z</time>
      </trkpt>
      <trkpt lat="49.55985" lon="3.59821">
        <ele>103</ele>
        <time>2021-08-08T18:29:47Z</time>
      </trkpt>
      <trkpt lat="49.55964" lon="3.59839">
        <ele>103.48</ele>
        <time>2021-08-08T18:29:53Z</time>
      </trkpt>
      <trkpt lat="49.55943" lon="3.59867">
        <ele>103.48</ele>
        <time>2021-08-08T18:30:00Z</time>
      </trkpt>
      <trkpt lat="49.55916" lon="3.59903">
        <ele>103.96</ele>
        <time>2021-08-08T18:30:09Z</time>
      </trkpt>
      <trkpt lat="49.55886" lon="3.59945">
        <ele>103.96</ele>
        <time>2021-08-08T18:30:19Z</time>
      </trkpt>
      <trkpt lat="49.55843" lon="3.60001">
        <ele>103.48</ele>
        <time>2021-08-08T18:30:31Z</time>
      </trkpt>
      <trkpt lat="49.55804" lon="3.60052">
        <ele>103.48</ele>
        <time>2021-08-08T18:30:42Z</time>
      </trkpt>
      <trkpt lat="49.55786" lon="3.60077">
        <ele>103.48</ele>
        <time>2021-08-08T18:30:47Z</time>
      </trkpt>
      <trkpt lat="49.55763" lon="3.60125">
        <ele>103.48</ele>
        <time>2021-08-08T18:30:56Z</time>
      </trkpt>
      <trkpt lat="49.55742" lon="3.60169">
        <ele>103.96</ele>
        <time>2021-08-08T18:31:05Z</time>
      </trkpt>
      <trkpt lat="49.55738" lon="3.60196">
        <ele>104.92</ele>
        <time>2021-08-08T18:31:11Z</time>
      </trkpt>
      <trkpt lat="49.55733" lon="3.60235">
        <ele>105.4</ele>
        <time>2021-08-08T18:31:19Z</time>
      </trkpt>
      <trkpt lat="49.55724" lon="3.60253">
        <ele>105.4</ele>
        <time>2021-08-08T18:31:23Z</time>
      </trkpt>
      <trkpt lat="49.5572" lon="3.60256">
        <ele>105.4</ele>
        <time>2021-08-08T18:31:24Z</time>
      </trkpt>
      <trkpt lat="49.5569" lon="3.60281">
        <ele>103.96</ele>
        <time>2021-08-08T18:31:31Z</time>
      </trkpt>
      <trkpt lat="49.55655" lon="3.60324">
        <ele>103.48</ele>
        <time>2021-08-08T18:31:39Z</time>
      </trkpt>
      <trkpt lat="49.55619" lon="3.60377">
        <ele>102.52</ele>
        <time>2021-08-08T18:31:48Z</time>
      </trkpt>
      <trkpt lat="49.55564" lon="3.60448">
        <ele>102.04</ele>
        <time>2021-08-08T18:32:01Z</time>
      </trkpt>
      <trkpt lat="49.5552" lon="3.60526">
        <ele>101.08</ele>
        <time>2021-08-08T18:32:13Z</time>
      </trkpt>
      <trkpt lat="49.55479" lon="3.60598">
        <ele>100.6</ele>
        <time>2021-08-08T18:32:24Z</time>
      </trkpt>
      <trkpt lat="49.55455" lon="3.60635">
        <ele>100.11</ele>
        <time>2021-08-08T18:32:30Z</time>
      </trkpt>
      <trkpt lat="49.5541" lon="3.60672">
        <ele>99.63</ele>
        <time>2021-08-08T18:32:39Z</time>
      </trkpt>
      <trkpt lat="49.55399" lon="3.60676">
        <ele>98.67</ele>
        <time>2021-08-08T18:32:41Z</time>
      </trkpt>
      <trkpt lat="49.55394" lon="3.60677">
        <ele>98.67</ele>
        <time>2021-08-08T18:32:42Z</time>
      </trkpt>
      <trkpt lat="49.55388" lon="3.60677">
        <ele>98.67</ele>
        <time>2021-08-08T18:32:43Z</time>
      </trkpt>
      <trkpt lat="49.55382" lon="3.60676">
        <ele>98.19</ele>
        <time>2021-08-08T18:32:44Z</time>
      </trkpt>
      <trkpt lat="49.55376" lon="3.60675">
        <ele>98.19</ele>
        <time>2021-08-08T18:32:45Z</time>
      </trkpt>
      <trkpt lat="49.5537" lon="3.60672">
        <ele>98.19</ele>
        <time>2021-08-08T18:32:46Z</time>
      </trkpt>
      <trkpt lat="49.55365" lon="3.6067">
        <ele>97.71</ele>
        <time>2021-08-08T18:32:47Z</time>
      </trkpt>
      <trkpt lat="49.55354" lon="3.60666">
        <ele>97.71</ele>
        <time>2021-08-08T18:32:49Z</time>
      </trkpt>
      <trkpt lat="49.55347" lon="3.60668">
        <ele>96.75</ele>
        <time>2021-08-08T18:32:50Z</time>
      </trkpt>
      <trkpt lat="49.55343" lon="3.60671">
        <ele>96.75</ele>
        <time>2021-08-08T18:32:51Z</time>
      </trkpt>
      <trkpt lat="49.55306" lon="3.60693">
        <ele>96.75</ele>
        <time>2021-08-08T18:32:59Z</time>
      </trkpt>
      <trkpt lat="49.55301" lon="3.60698">
        <ele>96.27</ele>
        <time>2021-08-08T18:33:00Z</time>
      </trkpt>
      <trkpt lat="49.55297" lon="3.60703">
        <ele>96.27</ele>
        <time>2021-08-08T18:33:01Z</time>
      </trkpt>
      <trkpt lat="49.55294" lon="3.60709">
        <ele>96.27</ele>
        <time>2021-08-08T18:33:02Z</time>
      </trkpt>
      <trkpt lat="49.55291" lon="3.60716">
        <ele>96.27</ele>
        <time>2021-08-08T18:33:03Z</time>
      </trkpt>
      <trkpt lat="49.55252" lon="3.60798">
        <ele>95.31</ele>
        <time>2021-08-08T18:33:15Z</time>
      </trkpt>
      <trkpt lat="49.55248" lon="3.60803">
        <ele>95.31</ele>
        <time>2021-08-08T18:33:16Z</time>
      </trkpt>
      <trkpt lat="49.55244" lon="3.60808">
        <ele>95.31</ele>
        <time>2021-08-08T18:33:17Z</time>
      </trkpt>
      <trkpt lat="49.55206" lon="3.60843">
        <ele>95.31</ele>
        <time>2021-08-08T18:33:25Z</time>
      </trkpt>
      <trkpt lat="49.55176" lon="3.60886">
        <ele>95.31</ele>
        <time>2021-08-08T18:33:33Z</time>
      </trkpt>
      <trkpt lat="49.55165" lon="3.60905">
        <ele>94.35</ele>
        <time>2021-08-08T18:33:36Z</time>
      </trkpt>
      <trkpt lat="49.55121" lon="3.60962">
        <ele>93.87</ele>
        <time>2021-08-08T18:33:46Z</time>
      </trkpt>
      <trkpt lat="49.55097" lon="3.60996">
        <ele>93.39</ele>
        <time>2021-08-08T18:33:52Z</time>
      </trkpt>
      <trkpt lat="49.55093" lon="3.61003">
        <ele>93.39</ele>
        <time>2021-08-08T18:33:53Z</time>
      </trkpt>
      <trkpt lat="49.55067" lon="3.61061">
        <ele>91.46</ele>
        <time>2021-08-08T18:34:00Z</time>
      </trkpt>
      <trkpt lat="49.55063" lon="3.61071">
        <ele>90.98</ele>
        <time>2021-08-08T18:34:01Z</time>
      </trkpt>
      <trkpt lat="49.55058" lon="3.61079">
        <ele>90.5</ele>
        <time>2021-08-08T18:34:02Z</time>
      </trkpt>
      <trkpt lat="49.55052" lon="3.61086">
        <ele>89.54</ele>
        <time>2021-08-08T18:34:03Z</time>
      </trkpt>
      <trkpt lat="49.55025" lon="3.61115">
        <ele>88.1</ele>
        <time>2021-08-08T18:34:07Z</time>
      </trkpt>
      <trkpt lat="49.5502" lon="3.61125">
        <ele>87.14</ele>
        <time>2021-08-08T18:34:08Z</time>
      </trkpt>
      <trkpt lat="49.55015" lon="3.61135">
        <ele>87.14</ele>
        <time>2021-08-08T18:34:09Z</time>
      </trkpt>
      <trkpt lat="49.55011" lon="3.61146">
        <ele>87.14</ele>
        <time>2021-08-08T18:34:10Z</time>
      </trkpt>
      <trkpt lat="49.55008" lon="3.61158">
        <ele>86.18</ele>
        <time>2021-08-08T18:34:11Z</time>
      </trkpt>
      <trkpt lat="49.55005" lon="3.61171">
        <ele>86.18</ele>
        <time>2021-08-08T18:34:12Z</time>
      </trkpt>
      <trkpt lat="49.55004" lon="3.61183">
        <ele>86.18</ele>
        <time>2021-08-08T18:34:13Z</time>
      </trkpt>
      <trkpt lat="49.55003" lon="3.61196">
        <ele>85.69</ele>
        <time>2021-08-08T18:34:14Z</time>
      </trkpt>
      <trkpt lat="49.55002" lon="3.6122">
        <ele>85.69</ele>
        <time>2021-08-08T18:34:16Z</time>
      </trkpt>
      <trkpt lat="49.55003" lon="3.61288">
        <ele>85.69</ele>
        <time>2021-08-08T18:34:22Z</time>
      </trkpt>
      <trkpt lat="49.55002" lon="3.61362">
        <ele>85.69</ele>
        <time>2021-08-08T18:34:30Z</time>
      </trkpt>
      <trkpt lat="49.54998" lon="3.61437">
        <ele>85.69</ele>
        <time>2021-08-08T18:34:39Z</time>
      </trkpt>
      <trkpt lat="49.54992" lon="3.61496">
        <ele>85.69</ele>
        <time>2021-08-08T18:34:46Z</time>
      </trkpt>
      <trkpt lat="49.5499" lon="3.61512">
        <ele>85.69</ele>
        <time>2021-08-08T18:34:48Z</time>
      </trkpt>
      <trkpt lat="49.54988" lon="3.61519">
        <ele>85.69</ele>
        <time>2021-08-08T18:34:49Z</time>
      </trkpt>
      <trkpt lat="49.54987" lon="3.61528">
        <ele>85.69</ele>
        <time>2021-08-08T18:34:50Z</time>
      </trkpt>
      <trkpt lat="49.54977" lon="3.61634">
        <ele>84.73</ele>
        <time>2021-08-08T18:35:02Z</time>
      </trkpt>
      <trkpt lat="49.5497" lon="3.617">
        <ele>84.73</ele>
        <time>2021-08-08T18:35:10Z</time>
      </trkpt>
      <trkpt lat="49.54969" lon="3.61707">
        <ele>84.73</ele>
        <time>2021-08-08T18:35:11Z</time>
      </trkpt>
      <trkpt lat="49.54966" lon="3.61716">
        <ele>84.73</ele>
        <time>2021-08-08T18:35:12Z</time>
      </trkpt>
      <trkpt lat="49.54964" lon="3.61723">
        <ele>84.73</ele>
        <time>2021-08-08T18:35:13Z</time>
      </trkpt>
      <trkpt lat="49.54963" lon="3.61731">
        <ele>83.77</ele>
        <time>2021-08-08T18:35:14Z</time>
      </trkpt>
      <trkpt lat="49.54962" lon="3.61738">
        <ele>83.77</ele>
        <time>2021-08-08T18:35:15Z</time>
      </trkpt>
      <trkpt lat="49.54964" lon="3.61747">
        <ele>83.77</ele>
        <time>2021-08-08T18:35:16Z</time>
      </trkpt>
      <trkpt lat="49.54966" lon="3.61755">
        <ele>83.77</ele>
        <time>2021-08-08T18:35:17Z</time>
      </trkpt>
      <trkpt lat="49.54978" lon="3.61816">
        <ele>83.77</ele>
        <time>2021-08-08T18:35:25Z</time>
      </trkpt>
      <trkpt lat="49.54999" lon="3.61868">
        <ele>83.77</ele>
        <time>2021-08-08T18:35:33Z</time>
      </trkpt>
      <trkpt lat="49.55012" lon="3.61887">
        <ele>83.77</ele>
        <time>2021-08-08T18:35:37Z</time>
      </trkpt>
      <trkpt lat="49.55041" lon="3.61913">
        <ele>85.21</ele>
        <time>2021-08-08T18:35:45Z</time>
      </trkpt>
      <trkpt lat="49.55044" lon="3.61915">
        <ele>85.21</ele>
        <time>2021-08-08T18:35:46Z</time>
      </trkpt>
      <trkpt lat="49.55083" lon="3.61929">
        <ele>86.18</ele>
        <time>2021-08-08T18:35:56Z</time>
      </trkpt>
      <trkpt lat="49.55111" lon="3.61945">
        <ele>86.66</ele>
        <time>2021-08-08T18:36:04Z</time>
      </trkpt>
      <trkpt lat="49.55135" lon="3.61972">
        <ele>87.62</ele>
        <time>2021-08-08T18:36:12Z</time>
      </trkpt>
      <trkpt lat="49.55154" lon="3.62003">
        <ele>87.62</ele>
        <time>2021-08-08T18:36:20Z</time>
      </trkpt>
      <trkpt lat="49.55177" lon="3.62045">
        <ele>87.62</ele>
        <time>2021-08-08T18:36:28Z</time>
      </trkpt>
      <trkpt lat="49.55205" lon="3.62098">
        <ele>86.66</ele>
        <time>2021-08-08T18:36:37Z</time>
      </trkpt>
      <trkpt lat="49.55223" lon="3.62144">
        <ele>86.18</ele>
        <time>2021-08-08T18:36:44Z</time>
      </trkpt>
      <trkpt lat="49.55238" lon="3.62204">
        <ele>84.73</ele>
        <time>2021-08-08T18:36:52Z</time>
      </trkpt>
      <trkpt lat="49.55252" lon="3.62276">
        <ele>84.25</ele>
        <time>2021-08-08T18:37:01Z</time>
      </trkpt>
      <trkpt lat="49.55267" lon="3.62358">
        <ele>83.29</ele>
        <time>2021-08-08T18:37:11Z</time>
      </trkpt>
      <trkpt lat="49.55283" lon="3.62435">
        <ele>82.33</ele>
        <time>2021-08-08T18:37:20Z</time>
      </trkpt>
      <trkpt lat="49.55292" lon="3.62484">
        <ele>82.33</ele>
        <time>2021-08-08T18:37:27Z</time>
      </trkpt>
      <trkpt lat="49.55291" lon="3.62487">
        <ele>82.33</ele>
        <time>2021-08-08T18:37:28Z</time>
      </trkpt>
      <trkpt lat="49.55291" lon="3.62489">
        <ele>82.33</ele>
        <time>2021-08-08T18:37:29Z</time>
      </trkpt>
      <trkpt lat="49.55291" lon="3.62492">
        <ele>82.33</ele>
        <time>2021-08-08T18:37:30Z</time>
      </trkpt>
      <trkpt lat="49.55292" lon="3.62495">
        <ele>82.33</ele>
        <time>2021-08-08T18:37:31Z</time>
      </trkpt>
      <trkpt lat="49.55293" lon="3.62499">
        <ele>82.33</ele>
        <time>2021-08-08T18:37:32Z</time>
      </trkpt>
      <trkpt lat="49.55293" lon="3.62504">
        <ele>82.33</ele>
        <time>2021-08-08T18:37:33Z</time>
      </trkpt>
      <trkpt lat="49.55292" lon="3.62508">
        <ele>82.33</ele>
        <time>2021-08-08T18:37:34Z</time>
      </trkpt>
      <trkpt lat="49.55291" lon="3.62511">
        <ele>82.33</ele>
        <time>2021-08-08T18:37:35Z</time>
      </trkpt>
      <trkpt lat="49.55289" lon="3.62513">
        <ele>82.33</ele>
        <time>2021-08-08T18:37:36Z</time>
      </trkpt>
      <trkpt lat="49.55286" lon="3.62516">
        <ele>82.33</ele>
        <time>2021-08-08T18:37:37Z</time>
      </trkpt>
      <trkpt lat="49.55271" lon="3.62532">
        <ele>82.33</ele>
        <time>2021-08-08T18:37:43Z</time>
      </trkpt>
      <trkpt lat="49.55269" lon="3.62533">
        <ele>82.33</ele>
        <time>2021-08-08T18:37:44Z</time>
      </trkpt>
      <trkpt lat="49.55255" lon="3.62544">
        <ele>79.93</ele>
        <time>2021-08-08T18:37:48Z</time>
      </trkpt>
      <trkpt lat="49.55241" lon="3.62553">
        <ele>79.93</ele>
        <time>2021-08-08T18:37:51Z</time>
      </trkpt>
      <trkpt lat="49.55222" lon="3.62571">
        <ele>80.89</ele>
        <time>2021-08-08T18:37:56Z</time>
      </trkpt>
      <trkpt lat="49.55196" lon="3.62595">
        <ele>80.89</ele>
        <time>2021-08-08T18:38:03Z</time>
      </trkpt>
      <trkpt lat="49.55178" lon="3.62609">
        <ele>80.89</ele>
        <time>2021-08-08T18:38:09Z</time>
      </trkpt>
      <trkpt lat="49.55171" lon="3.62615">
        <ele>80.89</ele>
        <time>2021-08-08T18:38:11Z</time>
      </trkpt>
      <trkpt lat="49.55167" lon="3.62618">
        <ele>80.89</ele>
        <time>2021-08-08T18:38:12Z</time>
      </trkpt>
      <trkpt lat="49.55163" lon="3.62622">
        <ele>80.89</ele>
        <time>2021-08-08T18:38:13Z</time>
      </trkpt>
      <trkpt lat="49.55159" lon="3.62625">
        <ele>80.89</ele>
        <time>2021-08-08T18:38:14Z</time>
      </trkpt>
      <trkpt lat="49.55155" lon="3.62628">
        <ele>80.89</ele>
        <time>2021-08-08T18:38:15Z</time>
      </trkpt>
      <trkpt lat="49.55125" lon="3.62654">
        <ele>79.93</ele>
        <time>2021-08-08T18:38:23Z</time>
      </trkpt>
      <trkpt lat="49.55095" lon="3.62681">
        <ele>79.93</ele>
        <time>2021-08-08T18:38:32Z</time>
      </trkpt>
      <trkpt lat="49.55091" lon="3.62686">
        <ele>79.93</ele>
        <time>2021-08-08T18:38:34Z</time>
      </trkpt>
      <trkpt lat="49.55083" lon="3.627">
        <ele>79.93</ele>
        <time>2021-08-08T18:38:38Z</time>
      </trkpt>
      <trkpt lat="49.55078" lon="3.62701">
        <ele>79.93</ele>
        <time>2021-08-08T18:38:39Z</time>
      </trkpt>
      <trkpt lat="49.55074" lon="3.62701">
        <ele>79.93</ele>
        <time>2021-08-08T18:38:40Z</time>
      </trkpt>
      <trkpt lat="49.5507" lon="3.62701">
        <ele>79.93</ele>
        <time>2021-08-08T18:38:41Z</time>
      </trkpt>
      <trkpt lat="49.55022" lon="3.62695">
        <ele>78.48</ele>
        <time>2021-08-08T18:38:51Z</time>
      </trkpt>
      <trkpt lat="49.54967" lon="3.62679">
        <ele>78</ele>
        <time>2021-08-08T18:39:02Z</time>
      </trkpt>
      <trkpt lat="49.54952" lon="3.62674">
        <ele>77.52</ele>
        <time>2021-08-08T18:39:05Z</time>
      </trkpt>
      <trkpt lat="49.54907" lon="3.62655">
        <ele>77.52</ele>
        <time>2021-08-08T18:39:14Z</time>
      </trkpt>
      <trkpt lat="49.54866" lon="3.62642">
        <ele>77.52</ele>
        <time>2021-08-08T18:39:22Z</time>
      </trkpt>
      <trkpt lat="49.5484" lon="3.62639">
        <ele>77.52</ele>
        <time>2021-08-08T18:39:27Z</time>
      </trkpt>
      <trkpt lat="49.54831" lon="3.62642">
        <ele>77.52</ele>
        <time>2021-08-08T18:39:29Z</time>
      </trkpt>
      <trkpt lat="49.54828" lon="3.62647">
        <ele>77.52</ele>
        <time>2021-08-08T18:39:30Z</time>
      </trkpt>
      <trkpt lat="49.54827" lon="3.62652">
        <ele>77.52</ele>
        <time>2021-08-08T18:39:31Z</time>
      </trkpt>
      <trkpt lat="49.54827" lon="3.62658">
        <ele>77.52</ele>
        <time>2021-08-08T18:39:32Z</time>
      </trkpt>
      <trkpt lat="49.54827" lon="3.62664">
        <ele>77.52</ele>
        <time>2021-08-08T18:39:33Z</time>
      </trkpt>
      <trkpt lat="49.54827" lon="3.62671">
        <ele>77.52</ele>
        <time>2021-08-08T18:39:34Z</time>
      </trkpt>
      <trkpt lat="49.54831" lon="3.62702">
        <ele>78.48</ele>
        <time>2021-08-08T18:39:40Z</time>
      </trkpt>
      <trkpt lat="49.54832" lon="3.62706">
        <ele>78.48</ele>
        <time>2021-08-08T18:39:41Z</time>
      </trkpt>
      <trkpt lat="49.54835" lon="3.62721">
        <ele>78.48</ele>
        <time>2021-08-08T18:39:44Z</time>
      </trkpt>
      <trkpt lat="49.54837" lon="3.62724">
        <ele>78.48</ele>
        <time>2021-08-08T18:39:45Z</time>
      </trkpt>
      <trkpt lat="49.54849" lon="3.62752">
        <ele>78.48</ele>
        <time>2021-08-08T18:39:51Z</time>
      </trkpt>
      <trkpt lat="49.54857" lon="3.62762">
        <ele>78.48</ele>
        <time>2021-08-08T18:39:54Z</time>
      </trkpt>
      <trkpt lat="49.5486" lon="3.62763">
        <ele>78.48</ele>
        <time>2021-08-08T18:39:55Z</time>
      </trkpt>
      <trkpt lat="49.54891" lon="3.6277">
        <ele>78.48</ele>
        <time>2021-08-08T18:40:03Z</time>
      </trkpt>
      <trkpt lat="49.549" lon="3.62776">
        <ele>78.48</ele>
        <time>2021-08-08T18:40:06Z</time>
      </trkpt>
      <trkpt lat="49.54901" lon="3.62782">
        <ele>78.48</ele>
        <time>2021-08-08T18:40:07Z</time>
      </trkpt>
      <trkpt lat="49.54901" lon="3.62787">
        <ele>78.48</ele>
        <time>2021-08-08T18:40:08Z</time>
      </trkpt>
      <trkpt lat="49.54889" lon="3.62848">
        <ele>78.48</ele>
        <time>2021-08-08T18:40:18Z</time>
      </trkpt>
      <trkpt lat="49.5488" lon="3.62893">
        <ele>78.48</ele>
        <time>2021-08-08T18:40:25Z</time>
      </trkpt>
      <trkpt lat="49.54877" lon="3.62904">
        <ele>78.48</ele>
        <time>2021-08-08T18:40:27Z</time>
      </trkpt>
      <trkpt lat="49.54874" lon="3.62908">
        <ele>78.48</ele>
        <time>2021-08-08T18:40:28Z</time>
      </trkpt>
      <trkpt lat="49.5487" lon="3.62911">
        <ele>78</ele>
        <time>2021-08-08T18:40:29Z</time>
      </trkpt>
      <trkpt lat="49.54867" lon="3.62915">
        <ele>78.48</ele>
        <time>2021-08-08T18:40:30Z</time>
      </trkpt>
      <trkpt lat="49.54865" lon="3.62922">
        <ele>78</ele>
        <time>2021-08-08T18:40:31Z</time>
      </trkpt>
      <trkpt lat="49.54864" lon="3.62928">
        <ele>78</ele>
        <time>2021-08-08T18:40:32Z</time>
      </trkpt>
      <trkpt lat="49.54864" lon="3.62934">
        <ele>78</ele>
        <time>2021-08-08T18:40:33Z</time>
      </trkpt>
      <trkpt lat="49.54864" lon="3.62941">
        <ele>78</ele>
        <time>2021-08-08T18:40:34Z</time>
      </trkpt>
      <trkpt lat="49.54865" lon="3.62948">
        <ele>78</ele>
        <time>2021-08-08T18:40:35Z</time>
      </trkpt>
      <trkpt lat="49.54861" lon="3.62967">
        <ele>78</ele>
        <time>2021-08-08T18:40:39Z</time>
      </trkpt>
      <trkpt lat="49.54858" lon="3.6297">
        <ele>78</ele>
        <time>2021-08-08T18:40:40Z</time>
      </trkpt>
      <trkpt lat="49.54831" lon="3.62992">
        <ele>77.04</ele>
        <time>2021-08-08T18:40:47Z</time>
      </trkpt>
      <trkpt lat="49.5479" lon="3.63012">
        <ele>76.56</ele>
        <time>2021-08-08T18:40:56Z</time>
      </trkpt>
      <trkpt lat="49.54738" lon="3.63028">
        <ele>76.56</ele>
        <time>2021-08-08T18:41:07Z</time>
      </trkpt>
      <trkpt lat="49.54686" lon="3.63049">
        <ele>76.08</ele>
        <time>2021-08-08T18:41:18Z</time>
      </trkpt>
      <trkpt lat="49.54641" lon="3.63072">
        <ele>76.08</ele>
        <time>2021-08-08T18:41:28Z</time>
      </trkpt>
      <trkpt lat="49.54604" lon="3.63095">
        <ele>76.08</ele>
        <time>2021-08-08T18:41:37Z</time>
      </trkpt>
      <trkpt lat="49.54576" lon="3.63133">
        <ele>77.04</ele>
        <time>2021-08-08T18:41:46Z</time>
      </trkpt>
      <trkpt lat="49.54569" lon="3.63155">
        <ele>77.04</ele>
        <time>2021-08-08T18:41:50Z</time>
      </trkpt>
      <trkpt lat="49.5457" lon="3.63161">
        <ele>77.04</ele>
        <time>2021-08-08T18:41:51Z</time>
      </trkpt>
      <trkpt lat="49.5457" lon="3.63174">
        <ele>77.04</ele>
        <time>2021-08-08T18:41:53Z</time>
      </trkpt>
      <trkpt lat="49.5457" lon="3.63181">
        <ele>77.04</ele>
        <time>2021-08-08T18:41:54Z</time>
      </trkpt>
      <trkpt lat="49.54569" lon="3.63188">
        <ele>77.04</ele>
        <time>2021-08-08T18:41:55Z</time>
      </trkpt>
      <trkpt lat="49.54558" lon="3.63263">
        <ele>77.52</ele>
        <time>2021-08-08T18:42:06Z</time>
      </trkpt>
      <trkpt lat="49.54548" lon="3.63335">
        <ele>78</ele>
        <time>2021-08-08T18:42:17Z</time>
      </trkpt>
      <trkpt lat="49.54538" lon="3.63407">
        <ele>78.48</ele>
        <time>2021-08-08T18:42:28Z</time>
      </trkpt>
      <trkpt lat="49.54525" lon="3.63482">
        <ele>79.45</ele>
        <time>2021-08-08T18:42:40Z</time>
      </trkpt>
      <trkpt lat="49.54512" lon="3.6354">
        <ele>80.41</ele>
        <time>2021-08-08T18:42:50Z</time>
      </trkpt>
      <trkpt lat="49.54499" lon="3.63604">
        <ele>81.85</ele>
        <time>2021-08-08T18:43:02Z</time>
      </trkpt>
      <trkpt lat="49.54488" lon="3.63653">
        <ele>82.81</ele>
        <time>2021-08-08T18:43:11Z</time>
      </trkpt>
      <trkpt lat="49.54478" lon="3.63707">
        <ele>84.25</ele>
        <time>2021-08-08T18:43:21Z</time>
      </trkpt>
      <trkpt lat="49.54476" lon="3.63745">
        <ele>84.25</ele>
        <time>2021-08-08T18:43:28Z</time>
      </trkpt>
      <trkpt lat="49.54474" lon="3.63794">
        <ele>84.25</ele>
        <time>2021-08-08T18:43:36Z</time>
      </trkpt>
      <trkpt lat="49.54472" lon="3.63813">
        <ele>84.25</ele>
        <time>2021-08-08T18:43:39Z</time>
      </trkpt>
      <trkpt lat="49.54472" lon="3.6382">
        <ele>84.25</ele>
        <time>2021-08-08T18:43:40Z</time>
      </trkpt>
      <trkpt lat="49.54461" lon="3.63881">
        <ele>81.85</ele>
        <time>2021-08-08T18:43:48Z</time>
      </trkpt>
      <trkpt lat="49.54446" lon="3.63948">
        <ele>78.97</ele>
        <time>2021-08-08T18:43:55Z</time>
      </trkpt>
      <trkpt lat="49.54443" lon="3.64023">
        <ele>77.04</ele>
        <time>2021-08-08T18:44:02Z</time>
      </trkpt>
      <trkpt lat="49.54446" lon="3.64072">
        <ele>76.56</ele>
        <time>2021-08-08T18:44:07Z</time>
      </trkpt>
      <trkpt lat="49.54444" lon="3.64079">
        <ele>76.56</ele>
        <time>2021-08-08T18:44:08Z</time>
      </trkpt>
      <trkpt lat="49.5444" lon="3.64085">
        <ele>76.56</ele>
        <time>2021-08-08T18:44:09Z</time>
      </trkpt>
      <trkpt lat="49.54436" lon="3.64087">
        <ele>75.6</ele>
        <time>2021-08-08T18:44:10Z</time>
      </trkpt>
      <trkpt lat="49.54431" lon="3.6409">
        <ele>75.6</ele>
        <time>2021-08-08T18:44:11Z</time>
      </trkpt>
      <trkpt lat="49.54426" lon="3.64092">
        <ele>75.6</ele>
        <time>2021-08-08T18:44:12Z</time>
      </trkpt>
      <trkpt lat="49.54421" lon="3.64094">
        <ele>75.6</ele>
        <time>2021-08-08T18:44:13Z</time>
      </trkpt>
      <trkpt lat="49.54416" lon="3.64097">
        <ele>75.6</ele>
        <time>2021-08-08T18:44:14Z</time>
      </trkpt>
      <trkpt lat="49.54411" lon="3.641">
        <ele>75.6</ele>
        <time>2021-08-08T18:44:15Z</time>
      </trkpt>
      <trkpt lat="49.54394" lon="3.64115">
        <ele>75.6</ele>
        <time>2021-08-08T18:44:19Z</time>
      </trkpt>
      <trkpt lat="49.5439" lon="3.64119">
        <ele>75.6</ele>
        <time>2021-08-08T18:44:20Z</time>
      </trkpt>
      <trkpt lat="49.54377" lon="3.6414">
        <ele>75.6</ele>
        <time>2021-08-08T18:44:24Z</time>
      </trkpt>
      <trkpt lat="49.54375" lon="3.64146">
        <ele>75.6</ele>
        <time>2021-08-08T18:44:25Z</time>
      </trkpt>
      <trkpt lat="49.54372" lon="3.64154">
        <ele>75.6</ele>
        <time>2021-08-08T18:44:26Z</time>
      </trkpt>
      <trkpt lat="49.54369" lon="3.64167">
        <ele>75.6</ele>
        <time>2021-08-08T18:44:28Z</time>
      </trkpt>
      <trkpt lat="49.54367" lon="3.64175">
        <ele>75.6</ele>
        <time>2021-08-08T18:44:29Z</time>
      </trkpt>
      <trkpt lat="49.54366" lon="3.64183">
        <ele>75.6</ele>
        <time>2021-08-08T18:44:30Z</time>
      </trkpt>
      <trkpt lat="49.54365" lon="3.64206">
        <ele>75.6</ele>
        <time>2021-08-08T18:44:33Z</time>
      </trkpt>
      <trkpt lat="49.54368" lon="3.64263">
        <ele>75.6</ele>
        <time>2021-08-08T18:44:41Z</time>
      </trkpt>
      <trkpt lat="49.54369" lon="3.6427">
        <ele>75.6</ele>
        <time>2021-08-08T18:44:42Z</time>
      </trkpt>
      <trkpt lat="49.54368" lon="3.64279">
        <ele>75.6</ele>
        <time>2021-08-08T18:44:43Z</time>
      </trkpt>
      <trkpt lat="49.54368" lon="3.64285">
        <ele>75.6</ele>
        <time>2021-08-08T18:44:44Z</time>
      </trkpt>
      <trkpt lat="49.54366" lon="3.64292">
        <ele>75.6</ele>
        <time>2021-08-08T18:44:45Z</time>
      </trkpt>
      <trkpt lat="49.54364" lon="3.64299">
        <ele>75.6</ele>
        <time>2021-08-08T18:44:46Z</time>
      </trkpt>
      <trkpt lat="49.54362" lon="3.64306">
        <ele>75.6</ele>
        <time>2021-08-08T18:44:47Z</time>
      </trkpt>
      <trkpt lat="49.54359" lon="3.64313">
        <ele>75.6</ele>
        <time>2021-08-08T18:44:48Z</time>
      </trkpt>
      <trkpt lat="49.54357" lon="3.64318">
        <ele>75.6</ele>
        <time>2021-08-08T18:44:49Z</time>
      </trkpt>
      <trkpt lat="49.54353" lon="3.64323">
        <ele>75.6</ele>
        <time>2021-08-08T18:44:50Z</time>
      </trkpt>
      <trkpt lat="49.5435" lon="3.64328">
        <ele>75.6</ele>
        <time>2021-08-08T18:44:51Z</time>
      </trkpt>
      <trkpt lat="49.54347" lon="3.64333">
        <ele>75.6</ele>
        <time>2021-08-08T18:44:52Z</time>
      </trkpt>
      <trkpt lat="49.54324" lon="3.64397">
        <ele>75.6</ele>
        <time>2021-08-08T18:45:02Z</time>
      </trkpt>
      <trkpt lat="49.54303" lon="3.64462">
        <ele>75.6</ele>
        <time>2021-08-08T18:45:12Z</time>
      </trkpt>
      <trkpt lat="49.54281" lon="3.64533">
        <ele>75.6</ele>
        <time>2021-08-08T18:45:23Z</time>
      </trkpt>
      <trkpt lat="49.54273" lon="3.64557">
        <ele>75.6</ele>
        <time>2021-08-08T18:45:27Z</time>
      </trkpt>
      <trkpt lat="49.54265" lon="3.64588">
        <ele>75.6</ele>
        <time>2021-08-08T18:45:32Z</time>
      </trkpt>
      <trkpt lat="49.54263" lon="3.64594">
        <ele>75.6</ele>
        <time>2021-08-08T18:45:33Z</time>
      </trkpt>
      <trkpt lat="49.54262" lon="3.646">
        <ele>75.6</ele>
        <time>2021-08-08T18:45:34Z</time>
      </trkpt>
      <trkpt lat="49.54261" lon="3.64607">
        <ele>75.6</ele>
        <time>2021-08-08T18:45:35Z</time>
      </trkpt>
      <trkpt lat="49.54259" lon="3.64613">
        <ele>75.6</ele>
        <time>2021-08-08T18:45:36Z</time>
      </trkpt>
      <trkpt lat="49.54246" lon="3.64651">
        <ele>75.12</ele>
        <time>2021-08-08T18:45:43Z</time>
      </trkpt>
      <trkpt lat="49.54224" lon="3.64687">
        <ele>75.12</ele>
        <time>2021-08-08T18:45:51Z</time>
      </trkpt>
      <trkpt lat="49.54209" lon="3.64709">
        <ele>75.12</ele>
        <time>2021-08-08T18:45:56Z</time>
      </trkpt>
      <trkpt lat="49.54204" lon="3.64719">
        <ele>75.12</ele>
        <time>2021-08-08T18:45:58Z</time>
      </trkpt>
      <trkpt lat="49.542" lon="3.64723">
        <ele>75.12</ele>
        <time>2021-08-08T18:45:59Z</time>
      </trkpt>
      <trkpt lat="49.54196" lon="3.64727">
        <ele>75.12</ele>
        <time>2021-08-08T18:46:00Z</time>
      </trkpt>
      <trkpt lat="49.54193" lon="3.64731">
        <ele>75.12</ele>
        <time>2021-08-08T18:46:01Z</time>
      </trkpt>
      <trkpt lat="49.54191" lon="3.64736">
        <ele>75.12</ele>
        <time>2021-08-08T18:46:02Z</time>
      </trkpt>
      <trkpt lat="49.54188" lon="3.64741">
        <ele>75.12</ele>
        <time>2021-08-08T18:46:03Z</time>
      </trkpt>
      <trkpt lat="49.54187" lon="3.64747">
        <ele>75.12</ele>
        <time>2021-08-08T18:46:04Z</time>
      </trkpt>
      <trkpt lat="49.54186" lon="3.64753">
        <ele>75.12</ele>
        <time>2021-08-08T18:46:05Z</time>
      </trkpt>
      <trkpt lat="49.54187" lon="3.64759">
        <ele>75.12</ele>
        <time>2021-08-08T18:46:06Z</time>
      </trkpt>
      <trkpt lat="49.54187" lon="3.64766">
        <ele>75.12</ele>
        <time>2021-08-08T18:46:07Z</time>
      </trkpt>
      <trkpt lat="49.54189" lon="3.64812">
        <ele>75.12</ele>
        <time>2021-08-08T18:46:15Z</time>
      </trkpt>
      <trkpt lat="49.54201" lon="3.64843">
        <ele>75.12</ele>
        <time>2021-08-08T18:46:21Z</time>
      </trkpt>
      <trkpt lat="49.54217" lon="3.64866">
        <ele>75.12</ele>
        <time>2021-08-08T18:46:27Z</time>
      </trkpt>
      <trkpt lat="49.54237" lon="3.64896">
        <ele>75.12</ele>
        <time>2021-08-08T18:46:35Z</time>
      </trkpt>
      <trkpt lat="49.54255" lon="3.64921">
        <ele>76.56</ele>
        <time>2021-08-08T18:46:42Z</time>
      </trkpt>
      <trkpt lat="49.54268" lon="3.64952">
        <ele>76.56</ele>
        <time>2021-08-08T18:46:49Z</time>
      </trkpt>
      <trkpt lat="49.54261" lon="3.64972">
        <ele>76.56</ele>
        <time>2021-08-08T18:46:53Z</time>
      </trkpt>
      <trkpt lat="49.54245" lon="3.65001">
        <ele>77.04</ele>
        <time>2021-08-08T18:47:00Z</time>
      </trkpt>
      <trkpt lat="49.54228" lon="3.65029">
        <ele>77.04</ele>
        <time>2021-08-08T18:47:07Z</time>
      </trkpt>
      <trkpt lat="49.5421" lon="3.65061">
        <ele>77.04</ele>
        <time>2021-08-08T18:47:14Z</time>
      </trkpt>
      <trkpt lat="49.54189" lon="3.65111">
        <ele>77.52</ele>
        <time>2021-08-08T18:47:23Z</time>
      </trkpt>
      <trkpt lat="49.54169" lon="3.65166">
        <ele>77.52</ele>
        <time>2021-08-08T18:47:33Z</time>
      </trkpt>
      <trkpt lat="49.54149" lon="3.65216">
        <ele>77.52</ele>
        <time>2021-08-08T18:47:43Z</time>
      </trkpt>
      <trkpt lat="49.54133" lon="3.6526">
        <ele>77.52</ele>
        <time>2021-08-08T18:47:52Z</time>
      </trkpt>
      <trkpt lat="49.5412" lon="3.65299">
        <ele>77.52</ele>
        <time>2021-08-08T18:48:00Z</time>
      </trkpt>
      <trkpt lat="49.54107" lon="3.65333">
        <ele>77.52</ele>
        <time>2021-08-08T18:48:08Z</time>
      </trkpt>
      <trkpt lat="49.54088" lon="3.65378">
        <ele>78.48</ele>
        <time>2021-08-08T18:48:19Z</time>
      </trkpt>
      <trkpt lat="49.54074" lon="3.65409">
        <ele>78.48</ele>
        <time>2021-08-08T18:48:27Z</time>
      </trkpt>
      <trkpt lat="49.5406" lon="3.65433">
        <ele>78.48</ele>
        <time>2021-08-08T18:48:34Z</time>
      </trkpt>
      <trkpt lat="49.54042" lon="3.65453">
        <ele>78.48</ele>
        <time>2021-08-08T18:48:41Z</time>
      </trkpt>
      <trkpt lat="49.54016" lon="3.65469">
        <ele>78.48</ele>
        <time>2021-08-08T18:48:49Z</time>
      </trkpt>
      <trkpt lat="49.53985" lon="3.65491">
        <ele>78.97</ele>
        <time>2021-08-08T18:48:59Z</time>
      </trkpt>
      <trkpt lat="49.53956" lon="3.65514">
        <ele>78.97</ele>
        <time>2021-08-08T18:49:09Z</time>
      </trkpt>
      <trkpt lat="49.53941" lon="3.65532">
        <ele>78.97</ele>
        <time>2021-08-08T18:49:15Z</time>
      </trkpt>
      <trkpt lat="49.5393" lon="3.65562">
        <ele>79.45</ele>
        <time>2021-08-08T18:49:22Z</time>
      </trkpt>
      <trkpt lat="49.53923" lon="3.65596">
        <ele>79.45</ele>
        <time>2021-08-08T18:49:29Z</time>
      </trkpt>
      <trkpt lat="49.5391" lon="3.65614">
        <ele>79.45</ele>
        <time>2021-08-08T18:49:35Z</time>
      </trkpt>
      <trkpt lat="49.53897" lon="3.65621">
        <ele>79.45</ele>
        <time>2021-08-08T18:49:42Z</time>
      </trkpt>
      <trkpt lat="49.53886" lon="3.65629">
        <ele>79.93</ele>
        <time>2021-08-08T18:49:47Z</time>
      </trkpt>
      <trkpt lat="49.53868" lon="3.65647">
        <ele>79.93</ele>
        <time>2021-08-08T18:49:54Z</time>
      </trkpt>
      <trkpt lat="49.53846" lon="3.6566">
        <ele>79.93</ele>
        <time>2021-08-08T18:50:00Z</time>
      </trkpt>
      <trkpt lat="49.53823" lon="3.65676">
        <ele>79.93</ele>
        <time>2021-08-08T18:50:07Z</time>
      </trkpt>
      <trkpt lat="49.53807" lon="3.65685">
        <ele>80.41</ele>
        <time>2021-08-08T18:50:12Z</time>
      </trkpt>
      <trkpt lat="49.53787" lon="3.65701">
        <ele>80.41</ele>
        <time>2021-08-08T18:50:19Z</time>
      </trkpt>
      <trkpt lat="49.53771" lon="3.65712">
        <ele>80.89</ele>
        <time>2021-08-08T18:50:24Z</time>
      </trkpt>
      <trkpt lat="49.53753" lon="3.65738">
        <ele>80.89</ele>
        <time>2021-08-08T18:50:31Z</time>
      </trkpt>
      <trkpt lat="49.53734" lon="3.6577">
        <ele>81.37</ele>
        <time>2021-08-08T18:50:39Z</time>
      </trkpt>
      <trkpt lat="49.5372" lon="3.65793">
        <ele>81.85</ele>
        <time>2021-08-08T18:50:45Z</time>
      </trkpt>
      <trkpt lat="49.53704" lon="3.65807">
        <ele>81.85</ele>
        <time>2021-08-08T18:50:51Z</time>
      </trkpt>
      <trkpt lat="49.53677" lon="3.65808">
        <ele>81.85</ele>
        <time>2021-08-08T18:50:58Z</time>
      </trkpt>
      <trkpt lat="49.53653" lon="3.65808">
        <ele>81.85</ele>
        <time>2021-08-08T18:51:05Z</time>
      </trkpt>
      <trkpt lat="49.53628" lon="3.65808">
        <ele>81.85</ele>
        <time>2021-08-08T18:51:12Z</time>
      </trkpt>
      <trkpt lat="49.53604" lon="3.65816">
        <ele>82.33</ele>
        <time>2021-08-08T18:51:19Z</time>
      </trkpt>
      <trkpt lat="49.53594" lon="3.65829">
        <ele>82.33</ele>
        <time>2021-08-08T18:51:24Z</time>
      </trkpt>
      <trkpt lat="49.53577" lon="3.65856">
        <ele>82.33</ele>
        <time>2021-08-08T18:51:31Z</time>
      </trkpt>
      <trkpt lat="49.53562" lon="3.6588">
        <ele>82.33</ele>
        <time>2021-08-08T18:51:37Z</time>
      </trkpt>
      <trkpt lat="49.53543" lon="3.65907">
        <ele>82.81</ele>
        <time>2021-08-08T18:51:44Z</time>
      </trkpt>
      <trkpt lat="49.53519" lon="3.65925">
        <ele>82.81</ele>
        <time>2021-08-08T18:51:51Z</time>
      </trkpt>
      <trkpt lat="49.53493" lon="3.65926">
        <ele>83.29</ele>
        <time>2021-08-08T18:51:58Z</time>
      </trkpt>
      <trkpt lat="49.5347" lon="3.65926">
        <ele>83.29</ele>
        <time>2021-08-08T18:52:04Z</time>
      </trkpt>
      <trkpt lat="49.53443" lon="3.65929">
        <ele>83.29</ele>
        <time>2021-08-08T18:52:11Z</time>
      </trkpt>
      <trkpt lat="49.53415" lon="3.65929">
        <ele>83.29</ele>
        <time>2021-08-08T18:52:18Z</time>
      </trkpt>
      <trkpt lat="49.53384" lon="3.6593">
        <ele>83.29</ele>
        <time>2021-08-08T18:52:26Z</time>
      </trkpt>
      <trkpt lat="49.53359" lon="3.65929">
        <ele>83.29</ele>
        <time>2021-08-08T18:52:33Z</time>
      </trkpt>
      <trkpt lat="49.5332" lon="3.65924">
        <ele>83.77</ele>
        <time>2021-08-08T18:52:42Z</time>
      </trkpt>
      <trkpt lat="49.53295" lon="3.65923">
        <ele>83.77</ele>
        <time>2021-08-08T18:52:48Z</time>
      </trkpt>
      <trkpt lat="49.53262" lon="3.65926">
        <ele>83.77</ele>
        <time>2021-08-08T18:52:56Z</time>
      </trkpt>
      <trkpt lat="49.53227" lon="3.65944">
        <ele>84.73</ele>
        <time>2021-08-08T18:53:05Z</time>
      </trkpt>
      <trkpt lat="49.53198" lon="3.65967">
        <ele>84.73</ele>
        <time>2021-08-08T18:53:13Z</time>
      </trkpt>
      <trkpt lat="49.53173" lon="3.66001">
        <ele>84.73</ele>
        <time>2021-08-08T18:53:22Z</time>
      </trkpt>
      <trkpt lat="49.53153" lon="3.66029">
        <ele>84.73</ele>
        <time>2021-08-08T18:53:29Z</time>
      </trkpt>
      <trkpt lat="49.53131" lon="3.66066">
        <ele>84.73</ele>
        <time>2021-08-08T18:53:37Z</time>
      </trkpt>
      <trkpt lat="49.53115" lon="3.66095">
        <ele>85.21</ele>
        <time>2021-08-08T18:53:43Z</time>
      </trkpt>
      <trkpt lat="49.5309" lon="3.66145">
        <ele>85.21</ele>
        <time>2021-08-08T18:53:53Z</time>
      </trkpt>
      <trkpt lat="49.53076" lon="3.66174">
        <ele>85.21</ele>
        <time>2021-08-08T18:53:59Z</time>
      </trkpt>
      <trkpt lat="49.53057" lon="3.66219">
        <ele>85.69</ele>
        <time>2021-08-08T18:54:08Z</time>
      </trkpt>
      <trkpt lat="49.53039" lon="3.66236">
        <ele>85.69</ele>
        <time>2021-08-08T18:54:14Z</time>
      </trkpt>
      <trkpt lat="49.53017" lon="3.6624">
        <ele>85.69</ele>
        <time>2021-08-08T18:54:20Z</time>
      </trkpt>
      <trkpt lat="49.52985" lon="3.66244">
        <ele>86.66</ele>
        <time>2021-08-08T18:54:28Z</time>
      </trkpt>
      <trkpt lat="49.52952" lon="3.66243">
        <ele>86.66</ele>
        <time>2021-08-08T18:54:37Z</time>
      </trkpt>
      <trkpt lat="49.52912" lon="3.66247">
        <ele>87.14</ele>
        <time>2021-08-08T18:54:47Z</time>
      </trkpt>
      <trkpt lat="49.52891" lon="3.6625">
        <ele>87.14</ele>
        <time>2021-08-08T18:54:52Z</time>
      </trkpt>
      <trkpt lat="49.52862" lon="3.66259">
        <ele>87.14</ele>
        <time>2021-08-08T18:54:59Z</time>
      </trkpt>
      <trkpt lat="49.52836" lon="3.66272">
        <ele>87.14</ele>
        <time>2021-08-08T18:55:06Z</time>
      </trkpt>
      <trkpt lat="49.52801" lon="3.66296">
        <ele>87.62</ele>
        <time>2021-08-08T18:55:16Z</time>
      </trkpt>
      <trkpt lat="49.52796" lon="3.66306">
        <ele>87.62</ele>
        <time>2021-08-08T18:55:18Z</time>
      </trkpt>
      <trkpt lat="49.52793" lon="3.66311">
        <ele>87.62</ele>
        <time>2021-08-08T18:55:19Z</time>
      </trkpt>
      <trkpt lat="49.52773" lon="3.6635">
        <ele>87.62</ele>
        <time>2021-08-08T18:55:27Z</time>
      </trkpt>
      <trkpt lat="49.52768" lon="3.66367">
        <ele>87.62</ele>
        <time>2021-08-08T18:55:30Z</time>
      </trkpt>
      <trkpt lat="49.52766" lon="3.66373">
        <ele>87.62</ele>
        <time>2021-08-08T18:55:31Z</time>
      </trkpt>
      <trkpt lat="49.52765" lon="3.66379">
        <ele>87.62</ele>
        <time>2021-08-08T18:55:32Z</time>
      </trkpt>
      <trkpt lat="49.52752" lon="3.66434">
        <ele>87.62</ele>
        <time>2021-08-08T18:55:41Z</time>
      </trkpt>
      <trkpt lat="49.52751" lon="3.6644">
        <ele>87.62</ele>
        <time>2021-08-08T18:55:42Z</time>
      </trkpt>
      <trkpt lat="49.52743" lon="3.6646">
        <ele>87.62</ele>
        <time>2021-08-08T18:55:46Z</time>
      </trkpt>
      <trkpt lat="49.52725" lon="3.66485">
        <ele>87.62</ele>
        <time>2021-08-08T18:55:53Z</time>
      </trkpt>
      <trkpt lat="49.527" lon="3.6651">
        <ele>87.62</ele>
        <time>2021-08-08T18:56:01Z</time>
      </trkpt>
      <trkpt lat="49.52686" lon="3.66524">
        <ele>87.62</ele>
        <time>2021-08-08T18:56:07Z</time>
      </trkpt>
      <trkpt lat="49.52685" lon="3.66528">
        <ele>87.62</ele>
        <time>2021-08-08T18:56:08Z</time>
      </trkpt>
      <trkpt lat="49.52683" lon="3.66533">
        <ele>87.62</ele>
        <time>2021-08-08T18:56:09Z</time>
      </trkpt>
      <trkpt lat="49.52683" lon="3.66538">
        <ele>87.62</ele>
        <time>2021-08-08T18:56:10Z</time>
      </trkpt>
      <trkpt lat="49.52687" lon="3.6659">
        <ele>87.62</ele>
        <time>2021-08-08T18:56:19Z</time>
      </trkpt>
      <trkpt lat="49.52693" lon="3.66629">
        <ele>87.62</ele>
        <time>2021-08-08T18:56:26Z</time>
      </trkpt>
      <trkpt lat="49.52691" lon="3.66657">
        <ele>88.1</ele>
        <time>2021-08-08T18:56:31Z</time>
      </trkpt>
      <trkpt lat="49.52688" lon="3.66659">
        <ele>88.1</ele>
        <time>2021-08-08T18:56:32Z</time>
      </trkpt>
      <trkpt lat="49.52684" lon="3.66662">
        <ele>88.1</ele>
        <time>2021-08-08T18:56:33Z</time>
      </trkpt>
      <trkpt lat="49.52681" lon="3.66663">
        <ele>88.1</ele>
        <time>2021-08-08T18:56:34Z</time>
      </trkpt>
      <trkpt lat="49.52677" lon="3.66665">
        <ele>88.58</ele>
        <time>2021-08-08T18:56:35Z</time>
      </trkpt>
      <trkpt lat="49.52673" lon="3.66666">
        <ele>88.58</ele>
        <time>2021-08-08T18:56:36Z</time>
      </trkpt>
      <trkpt lat="49.52669" lon="3.66667">
        <ele>88.58</ele>
        <time>2021-08-08T18:56:37Z</time>
      </trkpt>
      <trkpt lat="49.52637" lon="3.66684">
        <ele>89.06</ele>
        <time>2021-08-08T18:56:46Z</time>
      </trkpt>
      <trkpt lat="49.52635" lon="3.6669">
        <ele>89.06</ele>
        <time>2021-08-08T18:56:47Z</time>
      </trkpt>
      <trkpt lat="49.52634" lon="3.66695">
        <ele>89.06</ele>
        <time>2021-08-08T18:56:48Z</time>
      </trkpt>
      <trkpt lat="49.52634" lon="3.66702">
        <ele>89.06</ele>
        <time>2021-08-08T18:56:49Z</time>
      </trkpt>
      <trkpt lat="49.52635" lon="3.66708">
        <ele>89.06</ele>
        <time>2021-08-08T18:56:50Z</time>
      </trkpt>
      <trkpt lat="49.52636" lon="3.66714">
        <ele>89.06</ele>
        <time>2021-08-08T18:56:51Z</time>
      </trkpt>
      <trkpt lat="49.52643" lon="3.66771">
        <ele>89.54</ele>
        <time>2021-08-08T18:57:01Z</time>
      </trkpt>
      <trkpt lat="49.52637" lon="3.6679">
        <ele>89.54</ele>
        <time>2021-08-08T18:57:05Z</time>
      </trkpt>
      <trkpt lat="49.5263" lon="3.66809">
        <ele>89.54</ele>
        <time>2021-08-08T18:57:10Z</time>
      </trkpt>
      <trkpt lat="49.52632" lon="3.66814">
        <ele>89.54</ele>
        <time>2021-08-08T18:57:11Z</time>
      </trkpt>
      <trkpt lat="49.52634" lon="3.66817">
        <ele>89.54</ele>
        <time>2021-08-08T18:57:12Z</time>
      </trkpt>
      <trkpt lat="49.52636" lon="3.66822">
        <ele>89.54</ele>
        <time>2021-08-08T18:57:13Z</time>
      </trkpt>
      <trkpt lat="49.52639" lon="3.66826">
        <ele>89.54</ele>
        <time>2021-08-08T18:57:14Z</time>
      </trkpt>
      <trkpt lat="49.52669" lon="3.66873">
        <ele>89.54</ele>
        <time>2021-08-08T18:57:25Z</time>
      </trkpt>
      <trkpt lat="49.52682" lon="3.6689">
        <ele>90.02</ele>
        <time>2021-08-08T18:57:29Z</time>
      </trkpt>
      <trkpt lat="49.52685" lon="3.66894">
        <ele>90.02</ele>
        <time>2021-08-08T18:57:30Z</time>
      </trkpt>
      <trkpt lat="49.52716" lon="3.66917">
        <ele>90.02</ele>
        <time>2021-08-08T18:57:38Z</time>
      </trkpt>
      <trkpt lat="49.52728" lon="3.66924">
        <ele>90.02</ele>
        <time>2021-08-08T18:57:41Z</time>
      </trkpt>
      <trkpt lat="49.52732" lon="3.66928">
        <ele>90.02</ele>
        <time>2021-08-08T18:57:42Z</time>
      </trkpt>
      <trkpt lat="49.52738" lon="3.66938">
        <ele>90.02</ele>
        <time>2021-08-08T18:57:44Z</time>
      </trkpt>
      <trkpt lat="49.52741" lon="3.66943">
        <ele>90.02</ele>
        <time>2021-08-08T18:57:45Z</time>
      </trkpt>
      <trkpt lat="49.52743" lon="3.66948">
        <ele>90.02</ele>
        <time>2021-08-08T18:57:46Z</time>
      </trkpt>
      <trkpt lat="49.52762" lon="3.6699">
        <ele>90.98</ele>
        <time>2021-08-08T18:57:55Z</time>
      </trkpt>
      <trkpt lat="49.52773" lon="3.67031">
        <ele>91.46</ele>
        <time>2021-08-08T18:58:03Z</time>
      </trkpt>
      <trkpt lat="49.52785" lon="3.67071">
        <ele>92.42</ele>
        <time>2021-08-08T18:58:11Z</time>
      </trkpt>
      <trkpt lat="49.52798" lon="3.67102">
        <ele>93.39</ele>
        <time>2021-08-08T18:58:19Z</time>
      </trkpt>
      <trkpt lat="49.528" lon="3.67105">
        <ele>93.87</ele>
        <time>2021-08-08T18:58:25Z</time>
      </trkpt>
      <trkpt lat="49.52802" lon="3.67104">
        <ele>93.87</ele>
        <time>2021-08-08T18:58:31Z</time>
      </trkpt>
      <trkpt lat="49.52803" lon="3.67105">
        <ele>93.87</ele>
        <time>2021-08-08T18:58:32Z</time>
      </trkpt>
      <trkpt lat="49.52804" lon="3.67108">
        <ele>93.87</ele>
        <time>2021-08-08T18:58:33Z</time>
      </trkpt>
      <trkpt lat="49.52805" lon="3.67111">
        <ele>93.87</ele>
        <time>2021-08-08T18:58:34Z</time>
      </trkpt>
      <trkpt lat="49.52806" lon="3.67113">
        <ele>93.87</ele>
        <time>2021-08-08T18:58:35Z</time>
      </trkpt>
      <trkpt lat="49.5282" lon="3.67137">
        <ele>93.87</ele>
        <time>2021-08-08T18:58:43Z</time>
      </trkpt>
      <trkpt lat="49.52839" lon="3.67162">
        <ele>95.31</ele>
        <time>2021-08-08T18:58:52Z</time>
      </trkpt>
      <trkpt lat="49.52855" lon="3.67175">
        <ele>96.75</ele>
        <time>2021-08-08T18:59:01Z</time>
      </trkpt>
      <trkpt lat="49.52872" lon="3.67187">
        <ele>97.71</ele>
        <time>2021-08-08T18:59:10Z</time>
      </trkpt>
      <trkpt lat="49.52888" lon="3.67199">
        <ele>99.15</ele>
        <time>2021-08-08T18:59:19Z</time>
      </trkpt>
      <trkpt lat="49.52894" lon="3.67202">
        <ele>99.63</ele>
        <time>2021-08-08T18:59:26Z</time>
      </trkpt>
      <trkpt lat="49.52891" lon="3.672">
        <ele>99.63</ele>
        <time>2021-08-08T18:59:33Z</time>
      </trkpt>
      <trkpt lat="49.5289" lon="3.67199">
        <ele>99.63</ele>
        <time>2021-08-08T18:59:34Z</time>
      </trkpt>
      <trkpt lat="49.52888" lon="3.67198">
        <ele>99.63</ele>
        <time>2021-08-08T18:59:35Z</time>
      </trkpt>
      <trkpt lat="49.52887" lon="3.67197">
        <ele>99.63</ele>
        <time>2021-08-08T18:59:36Z</time>
      </trkpt>
      <trkpt lat="49.52885" lon="3.67195">
        <ele>99.63</ele>
        <time>2021-08-08T18:59:37Z</time>
      </trkpt>
      <trkpt lat="49.52884" lon="3.67193">
        <ele>99.63</ele>
        <time>2021-08-08T18:59:38Z</time>
      </trkpt>
      <trkpt lat="49.52882" lon="3.67191">
        <ele>98.67</ele>
        <time>2021-08-08T18:59:39Z</time>
      </trkpt>
      <trkpt lat="49.5288" lon="3.67189">
        <ele>98.67</ele>
        <time>2021-08-08T18:59:40Z</time>
      </trkpt>
      <trkpt lat="49.52877" lon="3.67187">
        <ele>97.71</ele>
        <time>2021-08-08T18:59:41Z</time>
      </trkpt>
      <trkpt lat="49.52857" lon="3.67173">
        <ele>96.27</ele>
        <time>2021-08-08T18:59:47Z</time>
      </trkpt>
      <trkpt lat="49.52839" lon="3.67157">
        <ele>95.31</ele>
        <time>2021-08-08T18:59:53Z</time>
      </trkpt>
      <trkpt lat="49.52837" lon="3.67155">
        <ele>94.83</ele>
        <time>2021-08-08T18:59:56Z</time>
      </trkpt>
      <trkpt lat="49.52837" lon="3.67158">
        <ele>94.83</ele>
        <time>2021-08-08T18:59:58Z</time>
      </trkpt>
      <trkpt lat="49.52837" lon="3.67159">
        <ele>94.83</ele>
        <time>2021-08-08T18:59:59Z</time>
      </trkpt>
      <trkpt lat="49.52838" lon="3.6716">
        <ele>94.83</ele>
        <time>2021-08-08T19:00:00Z</time>
      </trkpt>
      <trkpt lat="49.5284" lon="3.67163">
        <ele>94.83</ele>
        <time>2021-08-08T19:00:07Z</time>
      </trkpt>
      <trkpt lat="49.5284" lon="3.67165">
        <ele>94.83</ele>
        <time>2021-08-08T19:00:08Z</time>
      </trkpt>
      <trkpt lat="49.52839" lon="3.67167">
        <ele>94.83</ele>
        <time>2021-08-08T19:00:09Z</time>
      </trkpt>
      <trkpt lat="49.52838" lon="3.67168">
        <ele>94.83</ele>
        <time>2021-08-08T19:00:10Z</time>
      </trkpt>
      <trkpt lat="49.52838" lon="3.6717">
        <ele>96.27</ele>
        <time>2021-08-08T19:00:11Z</time>
      </trkpt>
      <trkpt lat="49.52838" lon="3.67172">
        <ele>96.27</ele>
        <time>2021-08-08T19:00:12Z</time>
      </trkpt>
      <trkpt lat="49.52838" lon="3.67173">
        <ele>96.27</ele>
        <time>2021-08-08T19:00:13Z</time>
      </trkpt>
      <trkpt lat="49.52838" lon="3.67175">
        <ele>96.27</ele>
        <time>2021-08-08T19:00:14Z</time>
      </trkpt>
      <trkpt lat="49.52838" lon="3.67177">
        <ele>96.75</ele>
        <time>2021-08-08T19:00:15Z</time>
      </trkpt>
      <trkpt lat="49.52839" lon="3.67191">
        <ele>97.23</ele>
        <time>2021-08-08T19:00:21Z</time>
      </trkpt>
      <trkpt lat="49.52839" lon="3.67193">
        <ele>97.23</ele>
        <time>2021-08-08T19:00:22Z</time>
      </trkpt>
      <trkpt lat="49.52839" lon="3.67195">
        <ele>97.71</ele>
        <time>2021-08-08T19:00:23Z</time>
      </trkpt>
      <trkpt lat="49.52839" lon="3.67213">
        <ele>99.15</ele>
        <time>2021-08-08T19:00:32Z</time>
      </trkpt>
      <trkpt lat="49.52841" lon="3.67219">
        <ele>99.63</ele>
        <time>2021-08-08T19:00:35Z</time>
      </trkpt>
      <trkpt lat="49.52842" lon="3.67223">
        <ele>99.63</ele>
        <time>2021-08-08T19:00:37Z</time>
      </trkpt>
      <trkpt lat="49.52842" lon="3.67225">
        <ele>100.6</ele>
        <time>2021-08-08T19:00:38Z</time>
      </trkpt>
      <trkpt lat="49.52843" lon="3.67239">
        <ele>102.04</ele>
        <time>2021-08-08T19:00:45Z</time>
      </trkpt>
      <trkpt lat="49.5284" lon="3.67244">
        <ele>103</ele>
        <time>2021-08-08T19:00:51Z</time>
      </trkpt>
      <trkpt lat="49.5284" lon="3.67247">
        <ele>103</ele>
        <time>2021-08-08T19:01:01Z</time>
      </trkpt>
      <trkpt lat="49.52843" lon="3.67247">
        <ele>103</ele>
        <time>2021-08-08T19:01:09Z</time>
      </trkpt>
      <trkpt lat="49.52845" lon="3.67247">
        <ele>103</ele>
        <time>2021-08-08T19:01:11Z</time>
      </trkpt>
      <trkpt lat="49.52846" lon="3.67247">
        <ele>103</ele>
        <time>2021-08-08T19:01:12Z</time>
      </trkpt>
      <trkpt lat="49.52853" lon="3.67247">
        <ele>103.48</ele>
        <time>2021-08-08T19:01:20Z</time>
      </trkpt>
      <trkpt lat="49.52861" lon="3.67249">
        <ele>103.96</ele>
        <time>2021-08-08T19:01:26Z</time>
      </trkpt>
      <trkpt lat="49.52862" lon="3.6725">
        <ele>103.96</ele>
        <time>2021-08-08T19:01:27Z</time>
      </trkpt>
      <trkpt lat="49.52874" lon="3.67259">
        <ele>105.4</ele>
        <time>2021-08-08T19:01:36Z</time>
      </trkpt>
      <trkpt lat="49.52875" lon="3.6726">
        <ele>105.4</ele>
        <time>2021-08-08T19:01:37Z</time>
      </trkpt>
      <trkpt lat="49.52876" lon="3.67261">
        <ele>105.88</ele>
        <time>2021-08-08T19:01:38Z</time>
      </trkpt>
      <trkpt lat="49.52877" lon="3.67263">
        <ele>105.88</ele>
        <time>2021-08-08T19:01:39Z</time>
      </trkpt>
      <trkpt lat="49.52883" lon="3.67274">
        <ele>106.84</ele>
        <time>2021-08-08T19:01:46Z</time>
      </trkpt>
      <trkpt lat="49.52889" lon="3.67289">
        <ele>108.77</ele>
        <time>2021-08-08T19:01:53Z</time>
      </trkpt>
      <trkpt lat="49.52891" lon="3.67291">
        <ele>108.77</ele>
        <time>2021-08-08T19:01:54Z</time>
      </trkpt>
      <trkpt lat="49.52892" lon="3.67293">
        <ele>108.77</ele>
        <time>2021-08-08T19:01:55Z</time>
      </trkpt>
      <trkpt lat="49.52893" lon="3.67295">
        <ele>108.77</ele>
        <time>2021-08-08T19:01:56Z</time>
      </trkpt>
      <trkpt lat="49.52899" lon="3.67309">
        <ele>110.69</ele>
        <time>2021-08-08T19:02:04Z</time>
      </trkpt>
      <trkpt lat="49.52899" lon="3.67312">
        <ele>110.69</ele>
        <time>2021-08-08T19:02:05Z</time>
      </trkpt>
      <trkpt lat="49.529" lon="3.67313">
        <ele>110.69</ele>
        <time>2021-08-08T19:02:06Z</time>
      </trkpt>
      <trkpt lat="49.52904" lon="3.67325">
        <ele>112.13</ele>
        <time>2021-08-08T19:02:13Z</time>
      </trkpt>
      <trkpt lat="49.52905" lon="3.67327">
        <ele>112.13</ele>
        <time>2021-08-08T19:02:14Z</time>
      </trkpt>
      <trkpt lat="49.52905" lon="3.67329">
        <ele>112.13</ele>
        <time>2021-08-08T19:02:15Z</time>
      </trkpt>
      <trkpt lat="49.52909" lon="3.67347">
        <ele>114.05</ele>
        <time>2021-08-08T19:02:26Z</time>
      </trkpt>
      <trkpt lat="49.5291" lon="3.67367">
        <ele>115.5</ele>
        <time>2021-08-08T19:02:35Z</time>
      </trkpt>
      <trkpt lat="49.5291" lon="3.67372">
        <ele>116.94</ele>
        <time>2021-08-08T19:02:37Z</time>
      </trkpt>
      <trkpt lat="49.5291" lon="3.67374">
        <ele>116.94</ele>
        <time>2021-08-08T19:02:38Z</time>
      </trkpt>
      <trkpt lat="49.52908" lon="3.67387">
        <ele>118.86</ele>
        <time>2021-08-08T19:02:46Z</time>
      </trkpt>
      <trkpt lat="49.52911" lon="3.67377">
        <ele>118.86</ele>
        <time>2021-08-08T19:02:50Z</time>
      </trkpt>
      <trkpt lat="49.52906" lon="3.674">
        <ele>121.26</ele>
        <time>2021-08-08T19:02:53Z</time>
      </trkpt>
      <trkpt lat="49.52907" lon="3.67408">
        <ele>120.3</ele>
        <time>2021-08-08T19:03:00Z</time>
      </trkpt>
      <trkpt lat="49.52911" lon="3.67377">
        <ele>122.22</ele>
        <time>2021-08-08T19:03:08Z</time>
      </trkpt>
      <trkpt lat="49.5291" lon="3.67377">
        <ele>129.43</ele>
        <time>2021-08-08T19:03:57Z</time>
      </trkpt>
      <trkpt lat="49.5291" lon="3.67377">
        <ele>131.36</ele>
        <time>2021-08-08T19:04:15Z</time>
      </trkpt>
      <trkpt lat="49.52862" lon="3.67465">
        <ele>132.8</ele>
        <time>2021-08-08T19:04:21Z</time>
      </trkpt>
      <trkpt lat="49.5286" lon="3.67471">
        <ele>133.76</ele>
        <time>2021-08-08T19:04:28Z</time>
      </trkpt>
      <trkpt lat="49.52858" lon="3.67477">
        <ele>134.72</ele>
        <time>2021-08-08T19:04:35Z</time>
      </trkpt>
      <trkpt lat="49.52855" lon="3.67484">
        <ele>135.68</ele>
        <time>2021-08-08T19:04:41Z</time>
      </trkpt>
      <trkpt lat="49.52854" lon="3.6749">
        <ele>136.64</ele>
        <time>2021-08-08T19:04:47Z</time>
      </trkpt>
      <trkpt lat="49.52854" lon="3.67493">
        <ele>137.61</ele>
        <time>2021-08-08T19:04:53Z</time>
      </trkpt>
      <trkpt lat="49.52854" lon="3.67499">
        <ele>139.05</ele>
        <time>2021-08-08T19:05:01Z</time>
      </trkpt>
      <trkpt lat="49.52854" lon="3.67513">
        <ele>140.49</ele>
        <time>2021-08-08T19:05:10Z</time>
      </trkpt>
      <trkpt lat="49.52855" lon="3.67527">
        <ele>141.45</ele>
        <time>2021-08-08T19:05:19Z</time>
      </trkpt>
      <trkpt lat="49.52856" lon="3.67538">
        <ele>142.89</ele>
        <time>2021-08-08T19:05:26Z</time>
      </trkpt>
      <trkpt lat="49.52859" lon="3.67559">
        <ele>144.34</ele>
        <time>2021-08-08T19:05:36Z</time>
      </trkpt>
      <trkpt lat="49.52862" lon="3.67574">
        <ele>144.82</ele>
        <time>2021-08-08T19:05:43Z</time>
      </trkpt>
      <trkpt lat="49.52863" lon="3.67582">
        <ele>145.3</ele>
        <time>2021-08-08T19:05:50Z</time>
      </trkpt>
      <trkpt lat="49.52864" lon="3.67584">
        <ele>145.3</ele>
        <time>2021-08-08T19:06:06Z</time>
      </trkpt>
      <trkpt lat="49.52863" lon="3.67584">
        <ele>145.3</ele>
        <time>2021-08-08T19:06:23Z</time>
      </trkpt>
      <trkpt lat="49.52867" lon="3.67578">
        <ele>145.3</ele>
        <time>2021-08-08T19:06:44Z</time>
      </trkpt>
      <trkpt lat="49.52865" lon="3.67583">
        <ele>145.3</ele>
        <time>2021-08-08T19:06:58Z</time>
      </trkpt>
      <trkpt lat="49.52859" lon="3.67582">
        <ele>145.3</ele>
        <time>2021-08-08T19:07:06Z</time>
      </trkpt>
      <trkpt lat="49.52859" lon="3.67583">
        <ele>145.78</ele>
        <time>2021-08-08T19:07:12Z</time>
      </trkpt>
      <trkpt lat="49.5286" lon="3.67583">
        <ele>145.78</ele>
        <time>2021-08-08T19:07:29Z</time>
      </trkpt>
      <trkpt lat="49.52858" lon="3.67581">
        <ele>145.78</ele>
        <time>2021-08-08T19:07:49Z</time>
      </trkpt>
      <trkpt lat="49.52852" lon="3.67583">
        <ele>145.78</ele>
        <time>2021-08-08T19:08:05Z</time>
      </trkpt>
    </trkseg>
  </trk>
  <trk>
    <name><![CDATA[03 FD]]></name>
    <trkseg>
      <trkpt lat="49.52863" lon="3.6759">
        <ele>147.22</ele>
        <time>2021-08-09T03:58:12Z</time>
      </trkpt>
      <trkpt lat="49.52869" lon="3.67598">
        <ele>148.18</ele>
        <time>2021-08-09T03:58:21Z</time>
      </trkpt>
      <trkpt lat="49.52869" lon="3.676">
        <ele>148.18</ele>
        <time>2021-08-09T03:58:22Z</time>
      </trkpt>
      <trkpt lat="49.52875" lon="3.67604">
        <ele>149.14</ele>
        <time>2021-08-09T03:58:29Z</time>
      </trkpt>
      <trkpt lat="49.52879" lon="3.67606">
        <ele>149.62</ele>
        <time>2021-08-09T03:58:40Z</time>
      </trkpt>
      <trkpt lat="49.5288" lon="3.67611">
        <ele>150.58</ele>
        <time>2021-08-09T03:58:46Z</time>
      </trkpt>
      <trkpt lat="49.52884" lon="3.67615">
        <ele>151.54</ele>
        <time>2021-08-09T03:58:53Z</time>
      </trkpt>
      <trkpt lat="49.52888" lon="3.67621">
        <ele>152.51</ele>
        <time>2021-08-09T03:59:01Z</time>
      </trkpt>
      <trkpt lat="49.52891" lon="3.67627">
        <ele>154.43</ele>
        <time>2021-08-09T03:59:11Z</time>
      </trkpt>
      <trkpt lat="49.52895" lon="3.67634">
        <ele>155.87</ele>
        <time>2021-08-09T03:59:19Z</time>
      </trkpt>
      <trkpt lat="49.529" lon="3.67641">
        <ele>156.83</ele>
        <time>2021-08-09T03:59:27Z</time>
      </trkpt>
      <trkpt lat="49.52904" lon="3.67647">
        <ele>157.79</ele>
        <time>2021-08-09T03:59:34Z</time>
      </trkpt>
      <trkpt lat="49.52911" lon="3.67652">
        <ele>159.24</ele>
        <time>2021-08-09T03:59:43Z</time>
      </trkpt>
      <trkpt lat="49.52916" lon="3.67659">
        <ele>159.72</ele>
        <time>2021-08-09T03:59:50Z</time>
      </trkpt>
      <trkpt lat="49.52924" lon="3.67668">
        <ele>160.2</ele>
        <time>2021-08-09T03:59:57Z</time>
      </trkpt>
      <trkpt lat="49.5293" lon="3.67676">
        <ele>161.64</ele>
        <time>2021-08-09T04:00:05Z</time>
      </trkpt>
      <trkpt lat="49.52936" lon="3.67683">
        <ele>162.12</ele>
        <time>2021-08-09T04:00:12Z</time>
      </trkpt>
      <trkpt lat="49.52942" lon="3.67692">
        <ele>163.08</ele>
        <time>2021-08-09T04:00:19Z</time>
      </trkpt>
      <trkpt lat="49.52946" lon="3.67701">
        <ele>163.56</ele>
        <time>2021-08-09T04:00:27Z</time>
      </trkpt>
      <trkpt lat="49.5295" lon="3.67709">
        <ele>164.04</ele>
        <time>2021-08-09T04:00:33Z</time>
      </trkpt>
      <trkpt lat="49.52957" lon="3.67724">
        <ele>166.45</ele>
        <time>2021-08-09T04:00:42Z</time>
      </trkpt>
      <trkpt lat="49.52962" lon="3.67737">
        <ele>166.93</ele>
        <time>2021-08-09T04:00:48Z</time>
      </trkpt>
      <trkpt lat="49.52971" lon="3.67756">
        <ele>166.93</ele>
        <time>2021-08-09T04:00:56Z</time>
      </trkpt>
      <trkpt lat="49.52978" lon="3.67789">
        <ele>168.37</ele>
        <time>2021-08-09T04:01:07Z</time>
      </trkpt>
      <trkpt lat="49.52985" lon="3.67824">
        <ele>168.85</ele>
        <time>2021-08-09T04:01:18Z</time>
      </trkpt>
      <trkpt lat="49.5299" lon="3.6785">
        <ele>168.85</ele>
        <time>2021-08-09T04:01:26Z</time>
      </trkpt>
      <trkpt lat="49.52995" lon="3.67883">
        <ele>168.85</ele>
        <time>2021-08-09T04:01:34Z</time>
      </trkpt>
      <trkpt lat="49.53004" lon="3.6793">
        <ele>168.85</ele>
        <time>2021-08-09T04:01:43Z</time>
      </trkpt>
      <trkpt lat="49.53009" lon="3.67977">
        <ele>167.89</ele>
        <time>2021-08-09T04:01:53Z</time>
      </trkpt>
      <trkpt lat="49.53011" lon="3.68023">
        <ele>167.89</ele>
        <time>2021-08-09T04:02:05Z</time>
      </trkpt>
      <trkpt lat="49.53011" lon="3.68068">
        <ele>167.89</ele>
        <time>2021-08-09T04:02:15Z</time>
      </trkpt>
      <trkpt lat="49.53009" lon="3.68118">
        <ele>166.93</ele>
        <time>2021-08-09T04:02:25Z</time>
      </trkpt>
      <trkpt lat="49.52997" lon="3.68173">
        <ele>166.93</ele>
        <time>2021-08-09T04:02:36Z</time>
      </trkpt>
      <trkpt lat="49.52989" lon="3.68206">
        <ele>166.93</ele>
        <time>2021-08-09T04:02:43Z</time>
      </trkpt>
      <trkpt lat="49.52976" lon="3.68252">
        <ele>166.93</ele>
        <time>2021-08-09T04:02:53Z</time>
      </trkpt>
      <trkpt lat="49.52971" lon="3.68274">
        <ele>166.93</ele>
        <time>2021-08-09T04:02:59Z</time>
      </trkpt>
      <trkpt lat="49.52955" lon="3.68295">
        <ele>166.45</ele>
        <time>2021-08-09T04:03:06Z</time>
      </trkpt>
      <trkpt lat="49.52938" lon="3.68313">
        <ele>166.45</ele>
        <time>2021-08-09T04:03:13Z</time>
      </trkpt>
      <trkpt lat="49.52926" lon="3.68326">
        <ele>167.89</ele>
        <time>2021-08-09T04:03:20Z</time>
      </trkpt>
      <trkpt lat="49.52914" lon="3.68337">
        <ele>167.89</ele>
        <time>2021-08-09T04:03:25Z</time>
      </trkpt>
      <trkpt lat="49.52892" lon="3.68352">
        <ele>167.89</ele>
        <time>2021-08-09T04:03:32Z</time>
      </trkpt>
      <trkpt lat="49.52864" lon="3.68365">
        <ele>166.45</ele>
        <time>2021-08-09T04:03:41Z</time>
      </trkpt>
      <trkpt lat="49.52832" lon="3.68369">
        <ele>165.96</ele>
        <time>2021-08-09T04:03:50Z</time>
      </trkpt>
      <trkpt lat="49.52799" lon="3.68363">
        <ele>165.96</ele>
        <time>2021-08-09T04:03:59Z</time>
      </trkpt>
      <trkpt lat="49.52764" lon="3.68359">
        <ele>165.96</ele>
        <time>2021-08-09T04:04:09Z</time>
      </trkpt>
      <trkpt lat="49.5272" lon="3.68359">
        <ele>167.41</ele>
        <time>2021-08-09T04:04:21Z</time>
      </trkpt>
      <trkpt lat="49.52684" lon="3.68362">
        <ele>167.89</ele>
        <time>2021-08-09T04:04:31Z</time>
      </trkpt>
      <trkpt lat="49.52641" lon="3.68368">
        <ele>167.89</ele>
        <time>2021-08-09T04:04:42Z</time>
      </trkpt>
      <trkpt lat="49.52604" lon="3.68373">
        <ele>167.89</ele>
        <time>2021-08-09T04:04:52Z</time>
      </trkpt>
      <trkpt lat="49.5257" lon="3.68372">
        <ele>167.89</ele>
        <time>2021-08-09T04:05:01Z</time>
      </trkpt>
      <trkpt lat="49.52548" lon="3.68357">
        <ele>167.89</ele>
        <time>2021-08-09T04:05:08Z</time>
      </trkpt>
      <trkpt lat="49.52523" lon="3.68342">
        <ele>167.89</ele>
        <time>2021-08-09T04:05:16Z</time>
      </trkpt>
      <trkpt lat="49.52503" lon="3.68332">
        <ele>167.89</ele>
        <time>2021-08-09T04:05:22Z</time>
      </trkpt>
      <trkpt lat="49.52472" lon="3.68324">
        <ele>167.89</ele>
        <time>2021-08-09T04:05:31Z</time>
      </trkpt>
      <trkpt lat="49.52435" lon="3.68326">
        <ele>167.89</ele>
        <time>2021-08-09T04:05:42Z</time>
      </trkpt>
      <trkpt lat="49.52394" lon="3.68335">
        <ele>167.89</ele>
        <time>2021-08-09T04:05:54Z</time>
      </trkpt>
      <trkpt lat="49.52357" lon="3.68354">
        <ele>165.96</ele>
        <time>2021-08-09T04:06:04Z</time>
      </trkpt>
      <trkpt lat="49.5233" lon="3.68371">
        <ele>164.04</ele>
        <time>2021-08-09T04:06:10Z</time>
      </trkpt>
      <trkpt lat="49.52321" lon="3.68373">
        <ele>163.56</ele>
        <time>2021-08-09T04:06:12Z</time>
      </trkpt>
      <trkpt lat="49.52317" lon="3.68374">
        <ele>163.56</ele>
        <time>2021-08-09T04:06:13Z</time>
      </trkpt>
      <trkpt lat="49.52286" lon="3.68366">
        <ele>163.56</ele>
        <time>2021-08-09T04:06:21Z</time>
      </trkpt>
      <trkpt lat="49.52252" lon="3.68353">
        <ele>165.48</ele>
        <time>2021-08-09T04:06:32Z</time>
      </trkpt>
      <trkpt lat="49.52222" lon="3.68339">
        <ele>165.96</ele>
        <time>2021-08-09T04:06:44Z</time>
      </trkpt>
      <trkpt lat="49.52191" lon="3.68325">
        <ele>166.45</ele>
        <time>2021-08-09T04:06:55Z</time>
      </trkpt>
      <trkpt lat="49.52161" lon="3.68316">
        <ele>166.45</ele>
        <time>2021-08-09T04:07:06Z</time>
      </trkpt>
      <trkpt lat="49.52135" lon="3.6831">
        <ele>166.93</ele>
        <time>2021-08-09T04:07:15Z</time>
      </trkpt>
      <trkpt lat="49.52126" lon="3.68306">
        <ele>166.93</ele>
        <time>2021-08-09T04:07:18Z</time>
      </trkpt>
      <trkpt lat="49.52086" lon="3.68297">
        <ele>166.93</ele>
        <time>2021-08-09T04:07:31Z</time>
      </trkpt>
      <trkpt lat="49.52073" lon="3.68294">
        <ele>167.89</ele>
        <time>2021-08-09T04:07:38Z</time>
      </trkpt>
      <trkpt lat="49.52073" lon="3.68296">
        <ele>167.89</ele>
        <time>2021-08-09T04:07:39Z</time>
      </trkpt>
      <trkpt lat="49.52074" lon="3.68297">
        <ele>167.89</ele>
        <time>2021-08-09T04:07:40Z</time>
      </trkpt>
      <trkpt lat="49.52075" lon="3.683">
        <ele>167.89</ele>
        <time>2021-08-09T04:07:41Z</time>
      </trkpt>
      <trkpt lat="49.52075" lon="3.68303">
        <ele>167.89</ele>
        <time>2021-08-09T04:07:42Z</time>
      </trkpt>
      <trkpt lat="49.52076" lon="3.68306">
        <ele>167.89</ele>
        <time>2021-08-09T04:07:43Z</time>
      </trkpt>
      <trkpt lat="49.52076" lon="3.68312">
        <ele>167.89</ele>
        <time>2021-08-09T04:07:45Z</time>
      </trkpt>
      <trkpt lat="49.52076" lon="3.68315">
        <ele>167.89</ele>
        <time>2021-08-09T04:07:46Z</time>
      </trkpt>
      <trkpt lat="49.52075" lon="3.68317">
        <ele>167.89</ele>
        <time>2021-08-09T04:07:47Z</time>
      </trkpt>
      <trkpt lat="49.52075" lon="3.6832">
        <ele>167.89</ele>
        <time>2021-08-09T04:07:48Z</time>
      </trkpt>
      <trkpt lat="49.52074" lon="3.68323">
        <ele>167.89</ele>
        <time>2021-08-09T04:07:49Z</time>
      </trkpt>
      <trkpt lat="49.52074" lon="3.68326">
        <ele>167.89</ele>
        <time>2021-08-09T04:07:50Z</time>
      </trkpt>
      <trkpt lat="49.52073" lon="3.68328">
        <ele>167.89</ele>
        <time>2021-08-09T04:07:51Z</time>
      </trkpt>
      <trkpt lat="49.52073" lon="3.68331">
        <ele>168.37</ele>
        <time>2021-08-09T04:07:52Z</time>
      </trkpt>
      <trkpt lat="49.52072" lon="3.68333">
        <ele>168.37</ele>
        <time>2021-08-09T04:07:53Z</time>
      </trkpt>
      <trkpt lat="49.52072" lon="3.68336">
        <ele>168.37</ele>
        <time>2021-08-09T04:07:54Z</time>
      </trkpt>
      <trkpt lat="49.52071" lon="3.68339">
        <ele>168.37</ele>
        <time>2021-08-09T04:07:55Z</time>
      </trkpt>
      <trkpt lat="49.52067" lon="3.6837">
        <ele>168.85</ele>
        <time>2021-08-09T04:08:04Z</time>
      </trkpt>
      <trkpt lat="49.52061" lon="3.68417">
        <ele>169.81</ele>
        <time>2021-08-09T04:08:16Z</time>
      </trkpt>
      <trkpt lat="49.52054" lon="3.6847">
        <ele>170.77</ele>
        <time>2021-08-09T04:08:29Z</time>
      </trkpt>
      <trkpt lat="49.52049" lon="3.68508">
        <ele>171.25</ele>
        <time>2021-08-09T04:08:38Z</time>
      </trkpt>
      <trkpt lat="49.52042" lon="3.6855">
        <ele>171.25</ele>
        <time>2021-08-09T04:08:48Z</time>
      </trkpt>
      <trkpt lat="49.52034" lon="3.68587">
        <ele>171.25</ele>
        <time>2021-08-09T04:08:57Z</time>
      </trkpt>
      <trkpt lat="49.52027" lon="3.68623">
        <ele>171.25</ele>
        <time>2021-08-09T04:09:06Z</time>
      </trkpt>
      <trkpt lat="49.52019" lon="3.68655">
        <ele>169.81</ele>
        <time>2021-08-09T04:09:14Z</time>
      </trkpt>
      <trkpt lat="49.52009" lon="3.6869">
        <ele>169.33</ele>
        <time>2021-08-09T04:09:22Z</time>
      </trkpt>
      <trkpt lat="49.51993" lon="3.68739">
        <ele>168.37</ele>
        <time>2021-08-09T04:09:32Z</time>
      </trkpt>
      <trkpt lat="49.51978" lon="3.68788">
        <ele>166.93</ele>
        <time>2021-08-09T04:09:41Z</time>
      </trkpt>
      <trkpt lat="49.51964" lon="3.68851">
        <ele>166.45</ele>
        <time>2021-08-09T04:09:52Z</time>
      </trkpt>
      <trkpt lat="49.51956" lon="3.68891">
        <ele>165.96</ele>
        <time>2021-08-09T04:10:00Z</time>
      </trkpt>
      <trkpt lat="49.51951" lon="3.68905">
        <ele>165.96</ele>
        <time>2021-08-09T04:10:04Z</time>
      </trkpt>
      <trkpt lat="49.51948" lon="3.68906">
        <ele>165.48</ele>
        <time>2021-08-09T04:10:05Z</time>
      </trkpt>
      <trkpt lat="49.51946" lon="3.68904">
        <ele>165.48</ele>
        <time>2021-08-09T04:10:06Z</time>
      </trkpt>
      <trkpt lat="49.51946" lon="3.68901">
        <ele>165.48</ele>
        <time>2021-08-09T04:10:07Z</time>
      </trkpt>
      <trkpt lat="49.51946" lon="3.68898">
        <ele>165.48</ele>
        <time>2021-08-09T04:10:08Z</time>
      </trkpt>
      <trkpt lat="49.51947" lon="3.68878">
        <ele>163.56</ele>
        <time>2021-08-09T04:10:13Z</time>
      </trkpt>
      <trkpt lat="49.51938" lon="3.68846">
        <ele>161.16</ele>
        <time>2021-08-09T04:10:20Z</time>
      </trkpt>
      <trkpt lat="49.51922" lon="3.68824">
        <ele>157.31</ele>
        <time>2021-08-09T04:10:26Z</time>
      </trkpt>
      <trkpt lat="49.51907" lon="3.68805">
        <ele>154.43</ele>
        <time>2021-08-09T04:10:30Z</time>
      </trkpt>
      <trkpt lat="49.51903" lon="3.68801">
        <ele>152.99</ele>
        <time>2021-08-09T04:10:31Z</time>
      </trkpt>
      <trkpt lat="49.51899" lon="3.68797">
        <ele>152.51</ele>
        <time>2021-08-09T04:10:32Z</time>
      </trkpt>
      <trkpt lat="49.51891" lon="3.68789">
        <ele>151.06</ele>
        <time>2021-08-09T04:10:34Z</time>
      </trkpt>
      <trkpt lat="49.51887" lon="3.68785">
        <ele>150.1</ele>
        <time>2021-08-09T04:10:35Z</time>
      </trkpt>
      <trkpt lat="49.51879" lon="3.68777">
        <ele>149.14</ele>
        <time>2021-08-09T04:10:37Z</time>
      </trkpt>
      <trkpt lat="49.51874" lon="3.68772">
        <ele>148.18</ele>
        <time>2021-08-09T04:10:38Z</time>
      </trkpt>
      <trkpt lat="49.51871" lon="3.68766">
        <ele>147.22</ele>
        <time>2021-08-09T04:10:39Z</time>
      </trkpt>
      <trkpt lat="49.51867" lon="3.68761">
        <ele>146.26</ele>
        <time>2021-08-09T04:10:40Z</time>
      </trkpt>
      <trkpt lat="49.51864" lon="3.68756">
        <ele>146.26</ele>
        <time>2021-08-09T04:10:41Z</time>
      </trkpt>
      <trkpt lat="49.51857" lon="3.68746">
        <ele>145.3</ele>
        <time>2021-08-09T04:10:44Z</time>
      </trkpt>
      <trkpt lat="49.51847" lon="3.68729">
        <ele>141.45</ele>
        <time>2021-08-09T04:10:48Z</time>
      </trkpt>
      <trkpt lat="49.51844" lon="3.68725">
        <ele>140.97</ele>
        <time>2021-08-09T04:10:49Z</time>
      </trkpt>
      <trkpt lat="49.51839" lon="3.68721">
        <ele>140.01</ele>
        <time>2021-08-09T04:10:50Z</time>
      </trkpt>
      <trkpt lat="49.51829" lon="3.68711">
        <ele>139.05</ele>
        <time>2021-08-09T04:10:52Z</time>
      </trkpt>
      <trkpt lat="49.51817" lon="3.687">
        <ele>137.13</ele>
        <time>2021-08-09T04:10:54Z</time>
      </trkpt>
      <trkpt lat="49.51805" lon="3.6869">
        <ele>136.64</ele>
        <time>2021-08-09T04:10:56Z</time>
      </trkpt>
      <trkpt lat="49.51799" lon="3.68684">
        <ele>134.72</ele>
        <time>2021-08-09T04:10:57Z</time>
      </trkpt>
      <trkpt lat="49.51779" lon="3.68668">
        <ele>133.28</ele>
        <time>2021-08-09T04:11:00Z</time>
      </trkpt>
      <trkpt lat="49.51744" lon="3.68646">
        <ele>130.4</ele>
        <time>2021-08-09T04:11:05Z</time>
      </trkpt>
      <trkpt lat="49.51731" lon="3.68639">
        <ele>129.43</ele>
        <time>2021-08-09T04:11:07Z</time>
      </trkpt>
      <trkpt lat="49.51721" lon="3.68635">
        <ele>128.95</ele>
        <time>2021-08-09T04:11:09Z</time>
      </trkpt>
      <trkpt lat="49.51698" lon="3.68622">
        <ele>127.99</ele>
        <time>2021-08-09T04:11:13Z</time>
      </trkpt>
      <trkpt lat="49.51678" lon="3.68611">
        <ele>125.59</ele>
        <time>2021-08-09T04:11:16Z</time>
      </trkpt>
      <trkpt lat="49.5166" lon="3.68605">
        <ele>124.15</ele>
        <time>2021-08-09T04:11:19Z</time>
      </trkpt>
      <trkpt lat="49.51639" lon="3.68599">
        <ele>122.71</ele>
        <time>2021-08-09T04:11:22Z</time>
      </trkpt>
      <trkpt lat="49.51592" lon="3.68576">
        <ele>119.82</ele>
        <time>2021-08-09T04:11:29Z</time>
      </trkpt>
      <trkpt lat="49.51549" lon="3.68551">
        <ele>118.38</ele>
        <time>2021-08-09T04:11:36Z</time>
      </trkpt>
      <trkpt lat="49.51527" lon="3.68535">
        <ele>117.9</ele>
        <time>2021-08-09T04:11:42Z</time>
      </trkpt>
      <trkpt lat="49.51502" lon="3.68521">
        <ele>117.42</ele>
        <time>2021-08-09T04:11:48Z</time>
      </trkpt>
      <trkpt lat="49.51485" lon="3.68509">
        <ele>116.46</ele>
        <time>2021-08-09T04:11:53Z</time>
      </trkpt>
      <trkpt lat="49.51485" lon="3.68504">
        <ele>116.46</ele>
        <time>2021-08-09T04:11:54Z</time>
      </trkpt>
      <trkpt lat="49.51484" lon="3.68497">
        <ele>115.98</ele>
        <time>2021-08-09T04:11:55Z</time>
      </trkpt>
      <trkpt lat="49.51485" lon="3.68492">
        <ele>115.98</ele>
        <time>2021-08-09T04:11:56Z</time>
      </trkpt>
      <trkpt lat="49.51485" lon="3.68486">
        <ele>115.98</ele>
        <time>2021-08-09T04:11:57Z</time>
      </trkpt>
      <trkpt lat="49.51488" lon="3.68435">
        <ele>115.5</ele>
        <time>2021-08-09T04:12:06Z</time>
      </trkpt>
      <trkpt lat="49.51493" lon="3.68386">
        <ele>115.5</ele>
        <time>2021-08-09T04:12:15Z</time>
      </trkpt>
      <trkpt lat="49.51495" lon="3.68358">
        <ele>115.5</ele>
        <time>2021-08-09T04:12:21Z</time>
      </trkpt>
      <trkpt lat="49.51492" lon="3.68357">
        <ele>115.5</ele>
        <time>2021-08-09T04:12:22Z</time>
      </trkpt>
      <trkpt lat="49.51489" lon="3.68356">
        <ele>115.5</ele>
        <time>2021-08-09T04:12:23Z</time>
      </trkpt>
      <trkpt lat="49.51485" lon="3.68357">
        <ele>115.5</ele>
        <time>2021-08-09T04:12:24Z</time>
      </trkpt>
      <trkpt lat="49.51481" lon="3.68357">
        <ele>114.53</ele>
        <time>2021-08-09T04:12:25Z</time>
      </trkpt>
      <trkpt lat="49.51477" lon="3.68357">
        <ele>114.53</ele>
        <time>2021-08-09T04:12:26Z</time>
      </trkpt>
      <trkpt lat="49.51443" lon="3.68359">
        <ele>114.05</ele>
        <time>2021-08-09T04:12:34Z</time>
      </trkpt>
      <trkpt lat="49.51437" lon="3.68358">
        <ele>114.05</ele>
        <time>2021-08-09T04:12:36Z</time>
      </trkpt>
      <trkpt lat="49.51434" lon="3.68355">
        <ele>114.05</ele>
        <time>2021-08-09T04:12:37Z</time>
      </trkpt>
      <trkpt lat="49.51432" lon="3.6835">
        <ele>114.05</ele>
        <time>2021-08-09T04:12:38Z</time>
      </trkpt>
      <trkpt lat="49.51432" lon="3.68346">
        <ele>114.05</ele>
        <time>2021-08-09T04:12:39Z</time>
      </trkpt>
      <trkpt lat="49.5143" lon="3.68341">
        <ele>114.05</ele>
        <time>2021-08-09T04:12:40Z</time>
      </trkpt>
      <trkpt lat="49.51429" lon="3.68335">
        <ele>114.05</ele>
        <time>2021-08-09T04:12:41Z</time>
      </trkpt>
      <trkpt lat="49.51424" lon="3.68314">
        <ele>115.5</ele>
        <time>2021-08-09T04:12:45Z</time>
      </trkpt>
      <trkpt lat="49.51416" lon="3.68287">
        <ele>115.98</ele>
        <time>2021-08-09T04:12:51Z</time>
      </trkpt>
      <trkpt lat="49.51404" lon="3.68268">
        <ele>115.98</ele>
        <time>2021-08-09T04:12:56Z</time>
      </trkpt>
      <trkpt lat="49.51377" lon="3.68245">
        <ele>115.98</ele>
        <time>2021-08-09T04:13:04Z</time>
      </trkpt>
      <trkpt lat="49.51372" lon="3.68242">
        <ele>114.53</ele>
        <time>2021-08-09T04:13:05Z</time>
      </trkpt>
      <trkpt lat="49.51368" lon="3.6824">
        <ele>114.53</ele>
        <time>2021-08-09T04:13:06Z</time>
      </trkpt>
      <trkpt lat="49.51323" lon="3.68204">
        <ele>113.57</ele>
        <time>2021-08-09T04:13:16Z</time>
      </trkpt>
      <trkpt lat="49.51292" lon="3.68158">
        <ele>113.09</ele>
        <time>2021-08-09T04:13:25Z</time>
      </trkpt>
      <trkpt lat="49.51281" lon="3.68147">
        <ele>113.09</ele>
        <time>2021-08-09T04:13:28Z</time>
      </trkpt>
      <trkpt lat="49.51277" lon="3.68144">
        <ele>113.09</ele>
        <time>2021-08-09T04:13:29Z</time>
      </trkpt>
      <trkpt lat="49.51273" lon="3.68142">
        <ele>113.09</ele>
        <time>2021-08-09T04:13:30Z</time>
      </trkpt>
      <trkpt lat="49.51269" lon="3.6814">
        <ele>113.09</ele>
        <time>2021-08-09T04:13:31Z</time>
      </trkpt>
      <trkpt lat="49.51264" lon="3.68138">
        <ele>113.09</ele>
        <time>2021-08-09T04:13:32Z</time>
      </trkpt>
      <trkpt lat="49.51218" lon="3.68124">
        <ele>113.09</ele>
        <time>2021-08-09T04:13:42Z</time>
      </trkpt>
      <trkpt lat="49.51188" lon="3.68111">
        <ele>113.09</ele>
        <time>2021-08-09T04:13:49Z</time>
      </trkpt>
      <trkpt lat="49.51158" lon="3.68095">
        <ele>113.09</ele>
        <time>2021-08-09T04:13:57Z</time>
      </trkpt>
      <trkpt lat="49.51151" lon="3.68089">
        <ele>113.09</ele>
        <time>2021-08-09T04:13:59Z</time>
      </trkpt>
      <trkpt lat="49.51149" lon="3.68085">
        <ele>113.09</ele>
        <time>2021-08-09T04:14:00Z</time>
      </trkpt>
      <trkpt lat="49.51147" lon="3.68079">
        <ele>113.09</ele>
        <time>2021-08-09T04:14:01Z</time>
      </trkpt>
      <trkpt lat="49.51146" lon="3.68072">
        <ele>113.09</ele>
        <time>2021-08-09T04:14:02Z</time>
      </trkpt>
      <trkpt lat="49.51146" lon="3.68066">
        <ele>113.09</ele>
        <time>2021-08-09T04:14:03Z</time>
      </trkpt>
      <trkpt lat="49.51146" lon="3.6806">
        <ele>113.09</ele>
        <time>2021-08-09T04:14:04Z</time>
      </trkpt>
      <trkpt lat="49.51155" lon="3.68">
        <ele>112.61</ele>
        <time>2021-08-09T04:14:13Z</time>
      </trkpt>
      <trkpt lat="49.51157" lon="3.67966">
        <ele>112.61</ele>
        <time>2021-08-09T04:14:19Z</time>
      </trkpt>
      <trkpt lat="49.51153" lon="3.67928">
        <ele>112.61</ele>
        <time>2021-08-09T04:14:27Z</time>
      </trkpt>
      <trkpt lat="49.51149" lon="3.6791">
        <ele>114.05</ele>
        <time>2021-08-09T04:14:32Z</time>
      </trkpt>
      <trkpt lat="49.51145" lon="3.67883">
        <ele>114.53</ele>
        <time>2021-08-09T04:14:41Z</time>
      </trkpt>
      <trkpt lat="49.5114" lon="3.67857">
        <ele>116.46</ele>
        <time>2021-08-09T04:14:51Z</time>
      </trkpt>
      <trkpt lat="49.51138" lon="3.67848">
        <ele>116.46</ele>
        <time>2021-08-09T04:14:55Z</time>
      </trkpt>
      <trkpt lat="49.51138" lon="3.67846">
        <ele>116.94</ele>
        <time>2021-08-09T04:14:56Z</time>
      </trkpt>
      <trkpt lat="49.51135" lon="3.67834">
        <ele>118.38</ele>
        <time>2021-08-09T04:15:02Z</time>
      </trkpt>
      <trkpt lat="49.51135" lon="3.67832">
        <ele>118.38</ele>
        <time>2021-08-09T04:15:03Z</time>
      </trkpt>
      <trkpt lat="49.51134" lon="3.6783">
        <ele>118.38</ele>
        <time>2021-08-09T04:15:04Z</time>
      </trkpt>
      <trkpt lat="49.51134" lon="3.67828">
        <ele>118.86</ele>
        <time>2021-08-09T04:15:05Z</time>
      </trkpt>
      <trkpt lat="49.51133" lon="3.67827">
        <ele>118.86</ele>
        <time>2021-08-09T04:15:06Z</time>
      </trkpt>
      <trkpt lat="49.51133" lon="3.67825">
        <ele>119.34</ele>
        <time>2021-08-09T04:15:07Z</time>
      </trkpt>
      <trkpt lat="49.51132" lon="3.67823">
        <ele>119.34</ele>
        <time>2021-08-09T04:15:08Z</time>
      </trkpt>
      <trkpt lat="49.51132" lon="3.67821">
        <ele>119.34</ele>
        <time>2021-08-09T04:15:09Z</time>
      </trkpt>
      <trkpt lat="49.51126" lon="3.67802">
        <ele>119.82</ele>
        <time>2021-08-09T04:15:17Z</time>
      </trkpt>
      <trkpt lat="49.51121" lon="3.67786">
        <ele>121.26</ele>
        <time>2021-08-09T04:15:25Z</time>
      </trkpt>
      <trkpt lat="49.51116" lon="3.67769">
        <ele>122.22</ele>
        <time>2021-08-09T04:15:34Z</time>
      </trkpt>
      <trkpt lat="49.51111" lon="3.6775">
        <ele>123.67</ele>
        <time>2021-08-09T04:15:45Z</time>
      </trkpt>
      <trkpt lat="49.51109" lon="3.67747">
        <ele>123.67</ele>
        <time>2021-08-09T04:15:52Z</time>
      </trkpt>
      <trkpt lat="49.51111" lon="3.67749">
        <ele>123.67</ele>
        <time>2021-08-09T04:16:05Z</time>
      </trkpt>
      <trkpt lat="49.5111" lon="3.67747">
        <ele>123.67</ele>
        <time>2021-08-09T04:16:18Z</time>
      </trkpt>
      <trkpt lat="49.51109" lon="3.67746">
        <ele>123.67</ele>
        <time>2021-08-09T04:16:29Z</time>
      </trkpt>
      <trkpt lat="49.51108" lon="3.67747">
        <ele>123.67</ele>
        <time>2021-08-09T04:16:38Z</time>
      </trkpt>
      <trkpt lat="49.5111" lon="3.67747">
        <ele>123.67</ele>
        <time>2021-08-09T04:16:56Z</time>
      </trkpt>
      <trkpt lat="49.51111" lon="3.67747">
        <ele>123.67</ele>
        <time>2021-08-09T04:17:06Z</time>
      </trkpt>
      <trkpt lat="49.5111" lon="3.67749">
        <ele>123.67</ele>
        <time>2021-08-09T04:17:20Z</time>
      </trkpt>
      <trkpt lat="49.5111" lon="3.67748">
        <ele>123.67</ele>
        <time>2021-08-09T04:17:27Z</time>
      </trkpt>
      <trkpt lat="49.5111" lon="3.67753">
        <ele>123.67</ele>
        <time>2021-08-09T04:17:32Z</time>
      </trkpt>
      <trkpt lat="49.51109" lon="3.67752">
        <ele>123.67</ele>
        <time>2021-08-09T04:17:37Z</time>
      </trkpt>
      <trkpt lat="49.51109" lon="3.67747">
        <ele>123.67</ele>
        <time>2021-08-09T04:17:41Z</time>
      </trkpt>
      <trkpt lat="49.51108" lon="3.67748">
        <ele>123.67</ele>
        <time>2021-08-09T04:17:56Z</time>
      </trkpt>
      <trkpt lat="49.51111" lon="3.67749">
        <ele>123.67</ele>
        <time>2021-08-09T04:18:12Z</time>
      </trkpt>
      <trkpt lat="49.51109" lon="3.67746">
        <ele>123.67</ele>
        <time>2021-08-09T04:18:24Z</time>
      </trkpt>
      <trkpt lat="49.51108" lon="3.67746">
        <ele>123.67</ele>
        <time>2021-08-09T04:18:32Z</time>
      </trkpt>
      <trkpt lat="49.5111" lon="3.67749">
        <ele>123.67</ele>
        <time>2021-08-09T04:18:47Z</time>
      </trkpt>
      <trkpt lat="49.51109" lon="3.67748">
        <ele>123.67</ele>
        <time>2021-08-09T04:18:58Z</time>
      </trkpt>
      <trkpt lat="49.5111" lon="3.67749">
        <ele>123.67</ele>
        <time>2021-08-09T04:19:13Z</time>
      </trkpt>
      <trkpt lat="49.51109" lon="3.6775">
        <ele>123.67</ele>
        <time>2021-08-09T04:19:31Z</time>
      </trkpt>
      <trkpt lat="49.51107" lon="3.67751">
        <ele>123.67</ele>
        <time>2021-08-09T04:19:33Z</time>
      </trkpt>
      <trkpt lat="49.51105" lon="3.67751">
        <ele>123.67</ele>
        <time>2021-08-09T04:19:34Z</time>
      </trkpt>
      <trkpt lat="49.51088" lon="3.67761">
        <ele>123.67</ele>
        <time>2021-08-09T04:19:41Z</time>
      </trkpt>
      <trkpt lat="49.51075" lon="3.67773">
        <ele>123.67</ele>
        <time>2021-08-09T04:19:48Z</time>
      </trkpt>
      <trkpt lat="49.51056" lon="3.67793">
        <ele>122.22</ele>
        <time>2021-08-09T04:19:57Z</time>
      </trkpt>
      <trkpt lat="49.5104" lon="3.67792">
        <ele>122.22</ele>
        <time>2021-08-09T04:20:04Z</time>
      </trkpt>
      <trkpt lat="49.51036" lon="3.6779">
        <ele>123.67</ele>
        <time>2021-08-09T04:20:06Z</time>
      </trkpt>
      <trkpt lat="49.5102" lon="3.67785">
        <ele>125.11</ele>
        <time>2021-08-09T04:20:15Z</time>
      </trkpt>
      <trkpt lat="49.51" lon="3.67788">
        <ele>125.11</ele>
        <time>2021-08-09T04:20:24Z</time>
      </trkpt>
      <trkpt lat="49.50988" lon="3.67789">
        <ele>125.59</ele>
        <time>2021-08-09T04:20:30Z</time>
      </trkpt>
      <trkpt lat="49.50973" lon="3.67786">
        <ele>126.55</ele>
        <time>2021-08-09T04:20:38Z</time>
      </trkpt>
      <trkpt lat="49.50961" lon="3.67784">
        <ele>127.99</ele>
        <time>2021-08-09T04:20:46Z</time>
      </trkpt>
      <trkpt lat="49.50954" lon="3.67783">
        <ele>128.95</ele>
        <time>2021-08-09T04:20:52Z</time>
      </trkpt>
      <trkpt lat="49.50944" lon="3.67782">
        <ele>130.88</ele>
        <time>2021-08-09T04:21:02Z</time>
      </trkpt>
      <trkpt lat="49.50938" lon="3.67782">
        <ele>132.8</ele>
        <time>2021-08-09T04:21:09Z</time>
      </trkpt>
      <trkpt lat="49.5093" lon="3.67786">
        <ele>134.24</ele>
        <time>2021-08-09T04:21:16Z</time>
      </trkpt>
      <trkpt lat="49.50923" lon="3.67788">
        <ele>135.68</ele>
        <time>2021-08-09T04:21:22Z</time>
      </trkpt>
      <trkpt lat="49.50914" lon="3.67791">
        <ele>137.61</ele>
        <time>2021-08-09T04:21:29Z</time>
      </trkpt>
      <trkpt lat="49.50906" lon="3.67792">
        <ele>138.57</ele>
        <time>2021-08-09T04:21:37Z</time>
      </trkpt>
      <trkpt lat="49.50904" lon="3.67792">
        <ele>138.57</ele>
        <time>2021-08-09T04:21:38Z</time>
      </trkpt>
      <trkpt lat="49.50897" lon="3.67789">
        <ele>140.01</ele>
        <time>2021-08-09T04:21:46Z</time>
      </trkpt>
      <trkpt lat="49.50887" lon="3.67789">
        <ele>141.45</ele>
        <time>2021-08-09T04:21:53Z</time>
      </trkpt>
      <trkpt lat="49.50875" lon="3.67786">
        <ele>143.37</ele>
        <time>2021-08-09T04:22:01Z</time>
      </trkpt>
      <trkpt lat="49.50862" lon="3.67783">
        <ele>144.82</ele>
        <time>2021-08-09T04:22:09Z</time>
      </trkpt>
      <trkpt lat="49.50848" lon="3.67779">
        <ele>146.26</ele>
        <time>2021-08-09T04:22:16Z</time>
      </trkpt>
      <trkpt lat="49.50835" lon="3.67779">
        <ele>147.7</ele>
        <time>2021-08-09T04:22:25Z</time>
      </trkpt>
      <trkpt lat="49.50829" lon="3.67775">
        <ele>149.62</ele>
        <time>2021-08-09T04:22:33Z</time>
      </trkpt>
      <trkpt lat="49.50826" lon="3.67776">
        <ele>151.06</ele>
        <time>2021-08-09T04:22:39Z</time>
      </trkpt>
      <trkpt lat="49.5082" lon="3.67782">
        <ele>152.51</ele>
        <time>2021-08-09T04:22:45Z</time>
      </trkpt>
      <trkpt lat="49.50814" lon="3.67786">
        <ele>153.95</ele>
        <time>2021-08-09T04:22:52Z</time>
      </trkpt>
      <trkpt lat="49.5081" lon="3.6779">
        <ele>155.87</ele>
        <time>2021-08-09T04:22:58Z</time>
      </trkpt>
      <trkpt lat="49.50804" lon="3.67798">
        <ele>157.31</ele>
        <time>2021-08-09T04:23:05Z</time>
      </trkpt>
      <trkpt lat="49.508" lon="3.67811">
        <ele>157.79</ele>
        <time>2021-08-09T04:23:12Z</time>
      </trkpt>
      <trkpt lat="49.50794" lon="3.67819">
        <ele>159.24</ele>
        <time>2021-08-09T04:23:18Z</time>
      </trkpt>
      <trkpt lat="49.50787" lon="3.67827">
        <ele>161.16</ele>
        <time>2021-08-09T04:23:24Z</time>
      </trkpt>
      <trkpt lat="49.50778" lon="3.67838">
        <ele>162.6</ele>
        <time>2021-08-09T04:23:31Z</time>
      </trkpt>
      <trkpt lat="49.50773" lon="3.67849">
        <ele>163.08</ele>
        <time>2021-08-09T04:23:37Z</time>
      </trkpt>
      <trkpt lat="49.50759" lon="3.67868">
        <ele>164.04</ele>
        <time>2021-08-09T04:23:45Z</time>
      </trkpt>
      <trkpt lat="49.5075" lon="3.67888">
        <ele>164.52</ele>
        <time>2021-08-09T04:23:53Z</time>
      </trkpt>
      <trkpt lat="49.5074" lon="3.67903">
        <ele>165</ele>
        <time>2021-08-09T04:23:59Z</time>
      </trkpt>
      <trkpt lat="49.50731" lon="3.67914">
        <ele>165.96</ele>
        <time>2021-08-09T04:24:05Z</time>
      </trkpt>
      <trkpt lat="49.50722" lon="3.67922">
        <ele>167.41</ele>
        <time>2021-08-09T04:24:12Z</time>
      </trkpt>
      <trkpt lat="49.50711" lon="3.67928">
        <ele>168.37</ele>
        <time>2021-08-09T04:24:20Z</time>
      </trkpt>
      <trkpt lat="49.50698" lon="3.67931">
        <ele>168.85</ele>
        <time>2021-08-09T04:24:28Z</time>
      </trkpt>
      <trkpt lat="49.50689" lon="3.6793">
        <ele>169.81</ele>
        <time>2021-08-09T04:24:33Z</time>
      </trkpt>
      <trkpt lat="49.50673" lon="3.67931">
        <ele>170.29</ele>
        <time>2021-08-09T04:24:41Z</time>
      </trkpt>
      <trkpt lat="49.5067" lon="3.67929">
        <ele>171.25</ele>
        <time>2021-08-09T04:24:45Z</time>
      </trkpt>
      <trkpt lat="49.50662" lon="3.6792">
        <ele>171.25</ele>
        <time>2021-08-09T04:24:50Z</time>
      </trkpt>
      <trkpt lat="49.50654" lon="3.67916">
        <ele>171.73</ele>
        <time>2021-08-09T04:24:54Z</time>
      </trkpt>
      <trkpt lat="49.5065" lon="3.67917">
        <ele>171.73</ele>
        <time>2021-08-09T04:24:56Z</time>
      </trkpt>
      <trkpt lat="49.50643" lon="3.67918">
        <ele>171.73</ele>
        <time>2021-08-09T04:25:02Z</time>
      </trkpt>
      <trkpt lat="49.50627" lon="3.67917">
        <ele>170.77</ele>
        <time>2021-08-09T04:25:09Z</time>
      </trkpt>
      <trkpt lat="49.50605" lon="3.67915">
        <ele>170.77</ele>
        <time>2021-08-09T04:25:18Z</time>
      </trkpt>
      <trkpt lat="49.5059" lon="3.67911">
        <ele>171.73</ele>
        <time>2021-08-09T04:25:25Z</time>
      </trkpt>
      <trkpt lat="49.50572" lon="3.67903">
        <ele>172.69</ele>
        <time>2021-08-09T04:25:32Z</time>
      </trkpt>
      <trkpt lat="49.50562" lon="3.67895">
        <ele>173.66</ele>
        <time>2021-08-09T04:25:38Z</time>
      </trkpt>
      <trkpt lat="49.5055" lon="3.67885">
        <ele>174.62</ele>
        <time>2021-08-09T04:25:45Z</time>
      </trkpt>
      <trkpt lat="49.50549" lon="3.67884">
        <ele>174.62</ele>
        <time>2021-08-09T04:25:46Z</time>
      </trkpt>
      <trkpt lat="49.50547" lon="3.67882">
        <ele>175.1</ele>
        <time>2021-08-09T04:25:47Z</time>
      </trkpt>
      <trkpt lat="49.50535" lon="3.67875">
        <ele>175.58</ele>
        <time>2021-08-09T04:25:54Z</time>
      </trkpt>
      <trkpt lat="49.50519" lon="3.67866">
        <ele>177.02</ele>
        <time>2021-08-09T04:26:01Z</time>
      </trkpt>
      <trkpt lat="49.50503" lon="3.67855">
        <ele>177.5</ele>
        <time>2021-08-09T04:26:07Z</time>
      </trkpt>
      <trkpt lat="49.5049" lon="3.67837">
        <ele>177.98</ele>
        <time>2021-08-09T04:26:13Z</time>
      </trkpt>
      <trkpt lat="49.5049" lon="3.67827">
        <ele>178.46</ele>
        <time>2021-08-09T04:26:16Z</time>
      </trkpt>
      <trkpt lat="49.50494" lon="3.67812">
        <ele>178.94</ele>
        <time>2021-08-09T04:26:23Z</time>
      </trkpt>
      <trkpt lat="49.50494" lon="3.678">
        <ele>179.9</ele>
        <time>2021-08-09T04:26:29Z</time>
      </trkpt>
      <trkpt lat="49.50513" lon="3.67784">
        <ele>180.87</ele>
        <time>2021-08-09T04:26:39Z</time>
      </trkpt>
      <trkpt lat="49.50533" lon="3.67767">
        <ele>182.31</ele>
        <time>2021-08-09T04:26:49Z</time>
      </trkpt>
      <trkpt lat="49.50553" lon="3.67745">
        <ele>182.79</ele>
        <time>2021-08-09T04:26:59Z</time>
      </trkpt>
      <trkpt lat="49.50579" lon="3.67713">
        <ele>181.35</ele>
        <time>2021-08-09T04:27:09Z</time>
      </trkpt>
      <trkpt lat="49.50582" lon="3.6771">
        <ele>181.35</ele>
        <time>2021-08-09T04:27:10Z</time>
      </trkpt>
      <trkpt lat="49.50611" lon="3.67673">
        <ele>179.9</ele>
        <time>2021-08-09T04:27:19Z</time>
      </trkpt>
      <trkpt lat="49.50643" lon="3.67633">
        <ele>178.46</ele>
        <time>2021-08-09T04:27:28Z</time>
      </trkpt>
      <trkpt lat="49.50665" lon="3.67605">
        <ele>177.98</ele>
        <time>2021-08-09T04:27:35Z</time>
      </trkpt>
      <trkpt lat="49.50675" lon="3.67587">
        <ele>176.54</ele>
        <time>2021-08-09T04:27:39Z</time>
      </trkpt>
      <trkpt lat="49.50677" lon="3.67581">
        <ele>176.54</ele>
        <time>2021-08-09T04:27:40Z</time>
      </trkpt>
      <trkpt lat="49.50677" lon="3.67575">
        <ele>176.54</ele>
        <time>2021-08-09T04:27:41Z</time>
      </trkpt>
      <trkpt lat="49.50675" lon="3.67568">
        <ele>176.54</ele>
        <time>2021-08-09T04:27:42Z</time>
      </trkpt>
      <trkpt lat="49.50673" lon="3.67563">
        <ele>175.58</ele>
        <time>2021-08-09T04:27:43Z</time>
      </trkpt>
      <trkpt lat="49.50671" lon="3.67559">
        <ele>175.58</ele>
        <time>2021-08-09T04:27:44Z</time>
      </trkpt>
      <trkpt lat="49.50651" lon="3.67516">
        <ele>177.02</ele>
        <time>2021-08-09T04:27:54Z</time>
      </trkpt>
      <trkpt lat="49.50633" lon="3.67481">
        <ele>177.98</ele>
        <time>2021-08-09T04:28:03Z</time>
      </trkpt>
      <trkpt lat="49.50614" lon="3.67447">
        <ele>177.98</ele>
        <time>2021-08-09T04:28:11Z</time>
      </trkpt>
      <trkpt lat="49.50594" lon="3.67416">
        <ele>177.98</ele>
        <time>2021-08-09T04:28:18Z</time>
      </trkpt>
      <trkpt lat="49.5058" lon="3.67385">
        <ele>177.98</ele>
        <time>2021-08-09T04:28:25Z</time>
      </trkpt>
      <trkpt lat="49.50581" lon="3.67381">
        <ele>178.46</ele>
        <time>2021-08-09T04:28:26Z</time>
      </trkpt>
      <trkpt lat="49.50584" lon="3.67378">
        <ele>178.46</ele>
        <time>2021-08-09T04:28:27Z</time>
      </trkpt>
      <trkpt lat="49.50618" lon="3.67357">
        <ele>178.46</ele>
        <time>2021-08-09T04:28:36Z</time>
      </trkpt>
      <trkpt lat="49.50643" lon="3.67338">
        <ele>177.98</ele>
        <time>2021-08-09T04:28:43Z</time>
      </trkpt>
      <trkpt lat="49.50655" lon="3.67326">
        <ele>177.02</ele>
        <time>2021-08-09T04:28:46Z</time>
      </trkpt>
      <trkpt lat="49.50665" lon="3.67318">
        <ele>177.02</ele>
        <time>2021-08-09T04:28:49Z</time>
      </trkpt>
      <trkpt lat="49.50669" lon="3.67316">
        <ele>177.02</ele>
        <time>2021-08-09T04:28:50Z</time>
      </trkpt>
      <trkpt lat="49.50673" lon="3.67313">
        <ele>177.02</ele>
        <time>2021-08-09T04:28:51Z</time>
      </trkpt>
      <trkpt lat="49.50681" lon="3.67309">
        <ele>176.54</ele>
        <time>2021-08-09T04:28:53Z</time>
      </trkpt>
      <trkpt lat="49.50684" lon="3.67307">
        <ele>176.54</ele>
        <time>2021-08-09T04:28:54Z</time>
      </trkpt>
      <trkpt lat="49.50692" lon="3.67302">
        <ele>176.54</ele>
        <time>2021-08-09T04:28:56Z</time>
      </trkpt>
      <trkpt lat="49.50701" lon="3.67298">
        <ele>176.54</ele>
        <time>2021-08-09T04:28:58Z</time>
      </trkpt>
      <trkpt lat="49.50705" lon="3.67295">
        <ele>176.54</ele>
        <time>2021-08-09T04:28:59Z</time>
      </trkpt>
      <trkpt lat="49.50733" lon="3.67279">
        <ele>176.06</ele>
        <time>2021-08-09T04:29:06Z</time>
      </trkpt>
      <trkpt lat="49.50737" lon="3.67277">
        <ele>176.06</ele>
        <time>2021-08-09T04:29:07Z</time>
      </trkpt>
      <trkpt lat="49.50781" lon="3.67258">
        <ele>175.58</ele>
        <time>2021-08-09T04:29:17Z</time>
      </trkpt>
      <trkpt lat="49.50798" lon="3.67249">
        <ele>175.1</ele>
        <time>2021-08-09T04:29:21Z</time>
      </trkpt>
      <trkpt lat="49.508" lon="3.67245">
        <ele>175.1</ele>
        <time>2021-08-09T04:29:22Z</time>
      </trkpt>
      <trkpt lat="49.50802" lon="3.67238">
        <ele>175.1</ele>
        <time>2021-08-09T04:29:23Z</time>
      </trkpt>
      <trkpt lat="49.50802" lon="3.67234">
        <ele>175.1</ele>
        <time>2021-08-09T04:29:24Z</time>
      </trkpt>
      <trkpt lat="49.50801" lon="3.67229">
        <ele>175.1</ele>
        <time>2021-08-09T04:29:25Z</time>
      </trkpt>
      <trkpt lat="49.50799" lon="3.67223">
        <ele>174.62</ele>
        <time>2021-08-09T04:29:26Z</time>
      </trkpt>
      <trkpt lat="49.50775" lon="3.67155">
        <ele>174.62</ele>
        <time>2021-08-09T04:29:37Z</time>
      </trkpt>
      <trkpt lat="49.50753" lon="3.67087">
        <ele>173.17</ele>
        <time>2021-08-09T04:29:47Z</time>
      </trkpt>
      <trkpt lat="49.5073" lon="3.6702">
        <ele>171.73</ele>
        <time>2021-08-09T04:29:56Z</time>
      </trkpt>
      <trkpt lat="49.50704" lon="3.66941">
        <ele>168.85</ele>
        <time>2021-08-09T04:30:05Z</time>
      </trkpt>
      <trkpt lat="49.507" lon="3.66927">
        <ele>168.85</ele>
        <time>2021-08-09T04:30:07Z</time>
      </trkpt>
      <trkpt lat="49.50697" lon="3.66923">
        <ele>168.85</ele>
        <time>2021-08-09T04:30:08Z</time>
      </trkpt>
      <trkpt lat="49.50693" lon="3.6692">
        <ele>168.85</ele>
        <time>2021-08-09T04:30:09Z</time>
      </trkpt>
      <trkpt lat="49.5069" lon="3.6692">
        <ele>168.37</ele>
        <time>2021-08-09T04:30:10Z</time>
      </trkpt>
      <trkpt lat="49.50686" lon="3.66921">
        <ele>168.37</ele>
        <time>2021-08-09T04:30:11Z</time>
      </trkpt>
      <trkpt lat="49.50683" lon="3.66923">
        <ele>168.37</ele>
        <time>2021-08-09T04:30:12Z</time>
      </trkpt>
      <trkpt lat="49.50679" lon="3.66925">
        <ele>168.37</ele>
        <time>2021-08-09T04:30:13Z</time>
      </trkpt>
      <trkpt lat="49.50675" lon="3.66927">
        <ele>168.37</ele>
        <time>2021-08-09T04:30:14Z</time>
      </trkpt>
      <trkpt lat="49.50638" lon="3.66948">
        <ele>167.89</ele>
        <time>2021-08-09T04:30:23Z</time>
      </trkpt>
      <trkpt lat="49.50599" lon="3.66958">
        <ele>167.89</ele>
        <time>2021-08-09T04:30:33Z</time>
      </trkpt>
      <trkpt lat="49.50571" lon="3.66958">
        <ele>169.33</ele>
        <time>2021-08-09T04:30:42Z</time>
      </trkpt>
      <trkpt lat="49.50547" lon="3.66954">
        <ele>169.81</ele>
        <time>2021-08-09T04:30:50Z</time>
      </trkpt>
      <trkpt lat="49.50511" lon="3.66946">
        <ele>169.33</ele>
        <time>2021-08-09T04:30:59Z</time>
      </trkpt>
      <trkpt lat="49.50473" lon="3.66943">
        <ele>169.33</ele>
        <time>2021-08-09T04:31:09Z</time>
      </trkpt>
      <trkpt lat="49.50458" lon="3.66944">
        <ele>170.77</ele>
        <time>2021-08-09T04:31:15Z</time>
      </trkpt>
      <trkpt lat="49.50428" lon="3.6695">
        <ele>170.77</ele>
        <time>2021-08-09T04:31:24Z</time>
      </trkpt>
      <trkpt lat="49.50392" lon="3.66955">
        <ele>171.25</ele>
        <time>2021-08-09T04:31:34Z</time>
      </trkpt>
      <trkpt lat="49.50358" lon="3.66961">
        <ele>169.81</ele>
        <time>2021-08-09T04:31:42Z</time>
      </trkpt>
      <trkpt lat="49.50329" lon="3.66954">
        <ele>169.81</ele>
        <time>2021-08-09T04:31:50Z</time>
      </trkpt>
      <trkpt lat="49.50304" lon="3.6694">
        <ele>169.81</ele>
        <time>2021-08-09T04:31:58Z</time>
      </trkpt>
      <trkpt lat="49.5027" lon="3.66922">
        <ele>171.25</ele>
        <time>2021-08-09T04:32:09Z</time>
      </trkpt>
      <trkpt lat="49.50246" lon="3.66909">
        <ele>172.21</ele>
        <time>2021-08-09T04:32:18Z</time>
      </trkpt>
      <trkpt lat="49.50227" lon="3.66895">
        <ele>173.17</ele>
        <time>2021-08-09T04:32:26Z</time>
      </trkpt>
      <trkpt lat="49.50212" lon="3.66879">
        <ele>174.62</ele>
        <time>2021-08-09T04:32:35Z</time>
      </trkpt>
      <trkpt lat="49.50199" lon="3.66866">
        <ele>175.58</ele>
        <time>2021-08-09T04:32:42Z</time>
      </trkpt>
      <trkpt lat="49.50187" lon="3.66848">
        <ele>177.02</ele>
        <time>2021-08-09T04:32:51Z</time>
      </trkpt>
      <trkpt lat="49.5018" lon="3.6684">
        <ele>177.98</ele>
        <time>2021-08-09T04:32:56Z</time>
      </trkpt>
      <trkpt lat="49.50165" lon="3.6682">
        <ele>178.94</ele>
        <time>2021-08-09T04:33:06Z</time>
      </trkpt>
      <trkpt lat="49.50156" lon="3.66808">
        <ele>179.9</ele>
        <time>2021-08-09T04:33:12Z</time>
      </trkpt>
      <trkpt lat="49.50148" lon="3.66798">
        <ele>180.87</ele>
        <time>2021-08-09T04:33:18Z</time>
      </trkpt>
      <trkpt lat="49.50136" lon="3.66783">
        <ele>181.83</ele>
        <time>2021-08-09T04:33:27Z</time>
      </trkpt>
      <trkpt lat="49.5012" lon="3.66767">
        <ele>183.27</ele>
        <time>2021-08-09T04:33:37Z</time>
      </trkpt>
      <trkpt lat="49.50107" lon="3.66754">
        <ele>184.23</ele>
        <time>2021-08-09T04:33:45Z</time>
      </trkpt>
      <trkpt lat="49.50095" lon="3.66748">
        <ele>184.71</ele>
        <time>2021-08-09T04:33:52Z</time>
      </trkpt>
      <trkpt lat="49.50094" lon="3.66747">
        <ele>184.71</ele>
        <time>2021-08-09T04:33:53Z</time>
      </trkpt>
      <trkpt lat="49.50093" lon="3.66746">
        <ele>184.71</ele>
        <time>2021-08-09T04:33:54Z</time>
      </trkpt>
      <trkpt lat="49.50087" lon="3.66742">
        <ele>184.71</ele>
        <time>2021-08-09T04:34:01Z</time>
      </trkpt>
      <trkpt lat="49.50086" lon="3.66742">
        <ele>184.71</ele>
        <time>2021-08-09T04:34:15Z</time>
      </trkpt>
      <trkpt lat="49.50087" lon="3.66742">
        <ele>184.71</ele>
        <time>2021-08-09T04:34:31Z</time>
      </trkpt>
      <trkpt lat="49.50088" lon="3.66742">
        <ele>184.71</ele>
        <time>2021-08-09T04:34:47Z</time>
      </trkpt>
      <trkpt lat="49.50087" lon="3.66742">
        <ele>184.71</ele>
        <time>2021-08-09T04:35:04Z</time>
      </trkpt>
      <trkpt lat="49.50086" lon="3.66742">
        <ele>184.71</ele>
        <time>2021-08-09T04:35:20Z</time>
      </trkpt>
      <trkpt lat="49.50085" lon="3.66743">
        <ele>184.71</ele>
        <time>2021-08-09T04:35:37Z</time>
      </trkpt>
      <trkpt lat="49.50084" lon="3.66742">
        <ele>184.71</ele>
        <time>2021-08-09T04:35:53Z</time>
      </trkpt>
      <trkpt lat="49.50082" lon="3.66743">
        <ele>184.71</ele>
        <time>2021-08-09T04:35:56Z</time>
      </trkpt>
      <trkpt lat="49.5008" lon="3.66743">
        <ele>184.71</ele>
        <time>2021-08-09T04:35:58Z</time>
      </trkpt>
      <trkpt lat="49.50078" lon="3.66743">
        <ele>184.71</ele>
        <time>2021-08-09T04:35:59Z</time>
      </trkpt>
      <trkpt lat="49.50077" lon="3.66742">
        <ele>184.71</ele>
        <time>2021-08-09T04:36:00Z</time>
      </trkpt>
      <trkpt lat="49.50075" lon="3.66742">
        <ele>184.71</ele>
        <time>2021-08-09T04:36:01Z</time>
      </trkpt>
      <trkpt lat="49.50074" lon="3.66741">
        <ele>184.71</ele>
        <time>2021-08-09T04:36:02Z</time>
      </trkpt>
      <trkpt lat="49.50072" lon="3.6674">
        <ele>184.71</ele>
        <time>2021-08-09T04:36:03Z</time>
      </trkpt>
      <trkpt lat="49.50052" lon="3.66735">
        <ele>185.67</ele>
        <time>2021-08-09T04:36:13Z</time>
      </trkpt>
      <trkpt lat="49.50035" lon="3.66737">
        <ele>186.15</ele>
        <time>2021-08-09T04:36:22Z</time>
      </trkpt>
      <trkpt lat="49.50015" lon="3.66748">
        <ele>186.63</ele>
        <time>2021-08-09T04:36:32Z</time>
      </trkpt>
      <trkpt lat="49.49997" lon="3.6676">
        <ele>188.08</ele>
        <time>2021-08-09T04:36:41Z</time>
      </trkpt>
      <trkpt lat="49.49977" lon="3.66766">
        <ele>188.08</ele>
        <time>2021-08-09T04:36:49Z</time>
      </trkpt>
      <trkpt lat="49.49953" lon="3.66775">
        <ele>189.04</ele>
        <time>2021-08-09T04:36:59Z</time>
      </trkpt>
      <trkpt lat="49.49931" lon="3.66783">
        <ele>189.04</ele>
        <time>2021-08-09T04:37:08Z</time>
      </trkpt>
      <trkpt lat="49.49924" lon="3.66793">
        <ele>189.52</ele>
        <time>2021-08-09T04:37:13Z</time>
      </trkpt>
      <trkpt lat="49.49922" lon="3.66795">
        <ele>189.52</ele>
        <time>2021-08-09T04:37:14Z</time>
      </trkpt>
      <trkpt lat="49.49919" lon="3.66796">
        <ele>189.52</ele>
        <time>2021-08-09T04:37:15Z</time>
      </trkpt>
      <trkpt lat="49.49902" lon="3.66802">
        <ele>190</ele>
        <time>2021-08-09T04:37:22Z</time>
      </trkpt>
      <trkpt lat="49.49886" lon="3.66805">
        <ele>190.96</ele>
        <time>2021-08-09T04:37:29Z</time>
      </trkpt>
      <trkpt lat="49.49867" lon="3.66794">
        <ele>191.44</ele>
        <time>2021-08-09T04:37:35Z</time>
      </trkpt>
      <trkpt lat="49.49863" lon="3.66791">
        <ele>191.44</ele>
        <time>2021-08-09T04:37:36Z</time>
      </trkpt>
      <trkpt lat="49.49859" lon="3.66789">
        <ele>190.48</ele>
        <time>2021-08-09T04:37:37Z</time>
      </trkpt>
      <trkpt lat="49.49855" lon="3.66787">
        <ele>190.48</ele>
        <time>2021-08-09T04:37:38Z</time>
      </trkpt>
      <trkpt lat="49.49826" lon="3.6678">
        <ele>190.48</ele>
        <time>2021-08-09T04:37:45Z</time>
      </trkpt>
      <trkpt lat="49.49822" lon="3.6678">
        <ele>190.48</ele>
        <time>2021-08-09T04:37:46Z</time>
      </trkpt>
      <trkpt lat="49.49814" lon="3.66781">
        <ele>190</ele>
        <time>2021-08-09T04:37:48Z</time>
      </trkpt>
      <trkpt lat="49.49782" lon="3.66795">
        <ele>190</ele>
        <time>2021-08-09T04:37:56Z</time>
      </trkpt>
      <trkpt lat="49.49748" lon="3.6681">
        <ele>190</ele>
        <time>2021-08-09T04:38:06Z</time>
      </trkpt>
      <trkpt lat="49.49718" lon="3.66822">
        <ele>190.96</ele>
        <time>2021-08-09T04:38:16Z</time>
      </trkpt>
      <trkpt lat="49.49687" lon="3.66834">
        <ele>191.92</ele>
        <time>2021-08-09T04:38:26Z</time>
      </trkpt>
      <trkpt lat="49.49661" lon="3.66842">
        <ele>192.88</ele>
        <time>2021-08-09T04:38:36Z</time>
      </trkpt>
      <trkpt lat="49.49638" lon="3.66849">
        <ele>192.88</ele>
        <time>2021-08-09T04:38:44Z</time>
      </trkpt>
      <trkpt lat="49.49613" lon="3.66854">
        <ele>193.84</ele>
        <time>2021-08-09T04:38:54Z</time>
      </trkpt>
      <trkpt lat="49.49596" lon="3.66845">
        <ele>194.32</ele>
        <time>2021-08-09T04:39:01Z</time>
      </trkpt>
      <trkpt lat="49.49575" lon="3.66835">
        <ele>194.8</ele>
        <time>2021-08-09T04:39:09Z</time>
      </trkpt>
      <trkpt lat="49.49554" lon="3.66824">
        <ele>195.77</ele>
        <time>2021-08-09T04:39:18Z</time>
      </trkpt>
      <trkpt lat="49.49535" lon="3.66814">
        <ele>197.21</ele>
        <time>2021-08-09T04:39:27Z</time>
      </trkpt>
      <trkpt lat="49.49519" lon="3.66807">
        <ele>198.17</ele>
        <time>2021-08-09T04:39:35Z</time>
      </trkpt>
      <trkpt lat="49.49496" lon="3.668">
        <ele>199.13</ele>
        <time>2021-08-09T04:39:44Z</time>
      </trkpt>
      <trkpt lat="49.49476" lon="3.66791">
        <ele>200.09</ele>
        <time>2021-08-09T04:39:52Z</time>
      </trkpt>
      <trkpt lat="49.49455" lon="3.66783">
        <ele>200.57</ele>
        <time>2021-08-09T04:40:01Z</time>
      </trkpt>
      <trkpt lat="49.49434" lon="3.66777">
        <ele>200.57</ele>
        <time>2021-08-09T04:40:09Z</time>
      </trkpt>
      <trkpt lat="49.49411" lon="3.66773">
        <ele>198.65</ele>
        <time>2021-08-09T04:40:15Z</time>
      </trkpt>
      <trkpt lat="49.49375" lon="3.66764">
        <ele>197.69</ele>
        <time>2021-08-09T04:40:24Z</time>
      </trkpt>
      <trkpt lat="49.49343" lon="3.6675">
        <ele>196.73</ele>
        <time>2021-08-09T04:40:32Z</time>
      </trkpt>
      <trkpt lat="49.4934" lon="3.66745">
        <ele>196.73</ele>
        <time>2021-08-09T04:40:33Z</time>
      </trkpt>
      <trkpt lat="49.49339" lon="3.6674">
        <ele>196.73</ele>
        <time>2021-08-09T04:40:34Z</time>
      </trkpt>
      <trkpt lat="49.49329" lon="3.66687">
        <ele>194.32</ele>
        <time>2021-08-09T04:40:41Z</time>
      </trkpt>
      <trkpt lat="49.49317" lon="3.6663">
        <ele>192.4</ele>
        <time>2021-08-09T04:40:47Z</time>
      </trkpt>
      <trkpt lat="49.49297" lon="3.66527">
        <ele>190.96</ele>
        <time>2021-08-09T04:40:58Z</time>
      </trkpt>
      <trkpt lat="49.49283" lon="3.66456">
        <ele>190</ele>
        <time>2021-08-09T04:41:07Z</time>
      </trkpt>
      <trkpt lat="49.4927" lon="3.6639">
        <ele>189.04</ele>
        <time>2021-08-09T04:41:15Z</time>
      </trkpt>
      <trkpt lat="49.49248" lon="3.66309">
        <ele>187.11</ele>
        <time>2021-08-09T04:41:25Z</time>
      </trkpt>
      <trkpt lat="49.49224" lon="3.66233">
        <ele>185.19</ele>
        <time>2021-08-09T04:41:34Z</time>
      </trkpt>
      <trkpt lat="49.49211" lon="3.66195">
        <ele>184.23</ele>
        <time>2021-08-09T04:41:39Z</time>
      </trkpt>
      <trkpt lat="49.49206" lon="3.66192">
        <ele>184.23</ele>
        <time>2021-08-09T04:41:40Z</time>
      </trkpt>
      <trkpt lat="49.49201" lon="3.66192">
        <ele>184.23</ele>
        <time>2021-08-09T04:41:41Z</time>
      </trkpt>
      <trkpt lat="49.49197" lon="3.66193">
        <ele>183.27</ele>
        <time>2021-08-09T04:41:42Z</time>
      </trkpt>
      <trkpt lat="49.49192" lon="3.66196">
        <ele>182.79</ele>
        <time>2021-08-09T04:41:43Z</time>
      </trkpt>
      <trkpt lat="49.49186" lon="3.66199">
        <ele>181.83</ele>
        <time>2021-08-09T04:41:44Z</time>
      </trkpt>
      <trkpt lat="49.4918" lon="3.66204">
        <ele>181.83</ele>
        <time>2021-08-09T04:41:45Z</time>
      </trkpt>
      <trkpt lat="49.49157" lon="3.66228">
        <ele>180.38</ele>
        <time>2021-08-09T04:41:49Z</time>
      </trkpt>
      <trkpt lat="49.49152" lon="3.66235">
        <ele>179.9</ele>
        <time>2021-08-09T04:41:50Z</time>
      </trkpt>
      <trkpt lat="49.49142" lon="3.66251">
        <ele>179.42</ele>
        <time>2021-08-09T04:41:52Z</time>
      </trkpt>
      <trkpt lat="49.49127" lon="3.66274">
        <ele>178.46</ele>
        <time>2021-08-09T04:41:56Z</time>
      </trkpt>
      <trkpt lat="49.4911" lon="3.66298">
        <ele>177.98</ele>
        <time>2021-08-09T04:42:02Z</time>
      </trkpt>
      <trkpt lat="49.49089" lon="3.66346">
        <ele>177.5</ele>
        <time>2021-08-09T04:42:10Z</time>
      </trkpt>
      <trkpt lat="49.49082" lon="3.66356">
        <ele>177.5</ele>
        <time>2021-08-09T04:42:12Z</time>
      </trkpt>
      <trkpt lat="49.49051" lon="3.66392">
        <ele>178.46</ele>
        <time>2021-08-09T04:42:21Z</time>
      </trkpt>
      <trkpt lat="49.49044" lon="3.66399">
        <ele>178.46</ele>
        <time>2021-08-09T04:42:23Z</time>
      </trkpt>
      <trkpt lat="49.49041" lon="3.66402">
        <ele>178.94</ele>
        <time>2021-08-09T04:42:24Z</time>
      </trkpt>
      <trkpt lat="49.49018" lon="3.66426">
        <ele>179.9</ele>
        <time>2021-08-09T04:42:33Z</time>
      </trkpt>
      <trkpt lat="49.48993" lon="3.66455">
        <ele>181.83</ele>
        <time>2021-08-09T04:42:44Z</time>
      </trkpt>
      <trkpt lat="49.48978" lon="3.66483">
        <ele>181.83</ele>
        <time>2021-08-09T04:42:52Z</time>
      </trkpt>
      <trkpt lat="49.48957" lon="3.66515">
        <ele>182.31</ele>
        <time>2021-08-09T04:43:02Z</time>
      </trkpt>
      <trkpt lat="49.48933" lon="3.66544">
        <ele>182.79</ele>
        <time>2021-08-09T04:43:11Z</time>
      </trkpt>
      <trkpt lat="49.48902" lon="3.66568">
        <ele>182.79</ele>
        <time>2021-08-09T04:43:21Z</time>
      </trkpt>
      <trkpt lat="49.48871" lon="3.66589">
        <ele>183.75</ele>
        <time>2021-08-09T04:43:31Z</time>
      </trkpt>
      <trkpt lat="49.48837" lon="3.66606">
        <ele>184.23</ele>
        <time>2021-08-09T04:43:40Z</time>
      </trkpt>
      <trkpt lat="49.48791" lon="3.66621">
        <ele>181.83</ele>
        <time>2021-08-09T04:43:50Z</time>
      </trkpt>
      <trkpt lat="49.48766" lon="3.66627">
        <ele>181.35</ele>
        <time>2021-08-09T04:43:56Z</time>
      </trkpt>
      <trkpt lat="49.48753" lon="3.66631">
        <ele>181.35</ele>
        <time>2021-08-09T04:43:59Z</time>
      </trkpt>
      <trkpt lat="49.48729" lon="3.66639">
        <ele>180.87</ele>
        <time>2021-08-09T04:44:04Z</time>
      </trkpt>
      <trkpt lat="49.48686" lon="3.66659">
        <ele>180.38</ele>
        <time>2021-08-09T04:44:13Z</time>
      </trkpt>
      <trkpt lat="49.48645" lon="3.66682">
        <ele>179.9</ele>
        <time>2021-08-09T04:44:22Z</time>
      </trkpt>
      <trkpt lat="49.48622" lon="3.66695">
        <ele>178.94</ele>
        <time>2021-08-09T04:44:27Z</time>
      </trkpt>
      <trkpt lat="49.48594" lon="3.66711">
        <ele>176.54</ele>
        <time>2021-08-09T04:44:32Z</time>
      </trkpt>
      <trkpt lat="49.48567" lon="3.66748">
        <ele>171.73</ele>
        <time>2021-08-09T04:44:37Z</time>
      </trkpt>
      <trkpt lat="49.48561" lon="3.66757">
        <ele>171.25</ele>
        <time>2021-08-09T04:44:38Z</time>
      </trkpt>
      <trkpt lat="49.48555" lon="3.66767">
        <ele>170.29</ele>
        <time>2021-08-09T04:44:39Z</time>
      </trkpt>
      <trkpt lat="49.4855" lon="3.66773">
        <ele>168.85</ele>
        <time>2021-08-09T04:44:40Z</time>
      </trkpt>
      <trkpt lat="49.48543" lon="3.66779">
        <ele>168.85</ele>
        <time>2021-08-09T04:44:41Z</time>
      </trkpt>
      <trkpt lat="49.48538" lon="3.66781">
        <ele>168.37</ele>
        <time>2021-08-09T04:44:42Z</time>
      </trkpt>
      <trkpt lat="49.48531" lon="3.66783">
        <ele>166.93</ele>
        <time>2021-08-09T04:44:43Z</time>
      </trkpt>
      <trkpt lat="49.48525" lon="3.66785">
        <ele>165.96</ele>
        <time>2021-08-09T04:44:44Z</time>
      </trkpt>
      <trkpt lat="49.48519" lon="3.66787">
        <ele>164.52</ele>
        <time>2021-08-09T04:44:45Z</time>
      </trkpt>
      <trkpt lat="49.48498" lon="3.66791">
        <ele>162.12</ele>
        <time>2021-08-09T04:44:48Z</time>
      </trkpt>
      <trkpt lat="49.48493" lon="3.66791">
        <ele>161.16</ele>
        <time>2021-08-09T04:44:49Z</time>
      </trkpt>
      <trkpt lat="49.48486" lon="3.6679">
        <ele>161.64</ele>
        <time>2021-08-09T04:44:50Z</time>
      </trkpt>
      <trkpt lat="49.48481" lon="3.6679">
        <ele>160.68</ele>
        <time>2021-08-09T04:44:51Z</time>
      </trkpt>
      <trkpt lat="49.48476" lon="3.66789">
        <ele>159.72</ele>
        <time>2021-08-09T04:44:52Z</time>
      </trkpt>
      <trkpt lat="49.48452" lon="3.66783">
        <ele>156.35</ele>
        <time>2021-08-09T04:44:57Z</time>
      </trkpt>
      <trkpt lat="49.48444" lon="3.66781">
        <ele>154.91</ele>
        <time>2021-08-09T04:44:59Z</time>
      </trkpt>
      <trkpt lat="49.4844" lon="3.66782">
        <ele>153.95</ele>
        <time>2021-08-09T04:45:00Z</time>
      </trkpt>
      <trkpt lat="49.48435" lon="3.66786">
        <ele>152.51</ele>
        <time>2021-08-09T04:45:01Z</time>
      </trkpt>
      <trkpt lat="49.48418" lon="3.66797">
        <ele>149.14</ele>
        <time>2021-08-09T04:45:04Z</time>
      </trkpt>
      <trkpt lat="49.48399" lon="3.66809">
        <ele>145.3</ele>
        <time>2021-08-09T04:45:07Z</time>
      </trkpt>
      <trkpt lat="49.4838" lon="3.66822">
        <ele>141.93</ele>
        <time>2021-08-09T04:45:10Z</time>
      </trkpt>
      <trkpt lat="49.4836" lon="3.66836">
        <ele>138.57</ele>
        <time>2021-08-09T04:45:13Z</time>
      </trkpt>
      <trkpt lat="49.48354" lon="3.66841">
        <ele>137.61</ele>
        <time>2021-08-09T04:45:14Z</time>
      </trkpt>
      <trkpt lat="49.48347" lon="3.66846">
        <ele>137.13</ele>
        <time>2021-08-09T04:45:15Z</time>
      </trkpt>
      <trkpt lat="49.48341" lon="3.66849">
        <ele>137.13</ele>
        <time>2021-08-09T04:45:16Z</time>
      </trkpt>
      <trkpt lat="49.48326" lon="3.66859">
        <ele>133.76</ele>
        <time>2021-08-09T04:45:19Z</time>
      </trkpt>
      <trkpt lat="49.48316" lon="3.66865">
        <ele>131.84</ele>
        <time>2021-08-09T04:45:21Z</time>
      </trkpt>
      <trkpt lat="49.48311" lon="3.66868">
        <ele>131.36</ele>
        <time>2021-08-09T04:45:22Z</time>
      </trkpt>
      <trkpt lat="49.48307" lon="3.66871">
        <ele>130.88</ele>
        <time>2021-08-09T04:45:23Z</time>
      </trkpt>
      <trkpt lat="49.48293" lon="3.66878">
        <ele>129.92</ele>
        <time>2021-08-09T04:45:28Z</time>
      </trkpt>
      <trkpt lat="49.48284" lon="3.66882">
        <ele>130.4</ele>
        <time>2021-08-09T04:45:33Z</time>
      </trkpt>
      <trkpt lat="49.48282" lon="3.66882">
        <ele>129.43</ele>
        <time>2021-08-09T04:45:34Z</time>
      </trkpt>
      <trkpt lat="49.4828" lon="3.66883">
        <ele>128.95</ele>
        <time>2021-08-09T04:45:35Z</time>
      </trkpt>
      <trkpt lat="49.48279" lon="3.66883">
        <ele>128.95</ele>
        <time>2021-08-09T04:45:36Z</time>
      </trkpt>
      <trkpt lat="49.48273" lon="3.66887">
        <ele>127.99</ele>
        <time>2021-08-09T04:45:41Z</time>
      </trkpt>
      <trkpt lat="49.48269" lon="3.66889">
        <ele>127.99</ele>
        <time>2021-08-09T04:45:46Z</time>
      </trkpt>
      <trkpt lat="49.48264" lon="3.66892">
        <ele>127.51</ele>
        <time>2021-08-09T04:45:54Z</time>
      </trkpt>
      <trkpt lat="49.48255" lon="3.66898">
        <ele>126.55</ele>
        <time>2021-08-09T04:46:00Z</time>
      </trkpt>
      <trkpt lat="49.48237" lon="3.66909">
        <ele>124.63</ele>
        <time>2021-08-09T04:46:05Z</time>
      </trkpt>
      <trkpt lat="49.48232" lon="3.66913">
        <ele>124.15</ele>
        <time>2021-08-09T04:46:06Z</time>
      </trkpt>
      <trkpt lat="49.48229" lon="3.66917">
        <ele>123.67</ele>
        <time>2021-08-09T04:46:07Z</time>
      </trkpt>
      <trkpt lat="49.48224" lon="3.66925">
        <ele>123.67</ele>
        <time>2021-08-09T04:46:08Z</time>
      </trkpt>
      <trkpt lat="49.482" lon="3.6697">
        <ele>120.3</ele>
        <time>2021-08-09T04:46:14Z</time>
      </trkpt>
      <trkpt lat="49.48187" lon="3.66992">
        <ele>118.86</ele>
        <time>2021-08-09T04:46:17Z</time>
      </trkpt>
      <trkpt lat="49.4818" lon="3.67008">
        <ele>117.9</ele>
        <time>2021-08-09T04:46:19Z</time>
      </trkpt>
      <trkpt lat="49.48175" lon="3.67027">
        <ele>116.94</ele>
        <time>2021-08-09T04:46:21Z</time>
      </trkpt>
      <trkpt lat="49.4816" lon="3.67097">
        <ele>114.53</ele>
        <time>2021-08-09T04:46:28Z</time>
      </trkpt>
      <trkpt lat="49.48149" lon="3.67187">
        <ele>112.61</ele>
        <time>2021-08-09T04:46:37Z</time>
      </trkpt>
      <trkpt lat="49.4813" lon="3.6728">
        <ele>109.73</ele>
        <time>2021-08-09T04:46:47Z</time>
      </trkpt>
      <trkpt lat="49.48113" lon="3.6734">
        <ele>107.81</ele>
        <time>2021-08-09T04:46:54Z</time>
      </trkpt>
      <trkpt lat="49.48093" lon="3.67397">
        <ele>106.84</ele>
        <time>2021-08-09T04:47:01Z</time>
      </trkpt>
      <trkpt lat="49.4807" lon="3.67458">
        <ele>105.4</ele>
        <time>2021-08-09T04:47:09Z</time>
      </trkpt>
      <trkpt lat="49.48049" lon="3.67511">
        <ele>103.96</ele>
        <time>2021-08-09T04:47:17Z</time>
      </trkpt>
      <trkpt lat="49.48029" lon="3.67566">
        <ele>103</ele>
        <time>2021-08-09T04:47:25Z</time>
      </trkpt>
      <trkpt lat="49.48021" lon="3.67587">
        <ele>101.56</ele>
        <time>2021-08-09T04:47:28Z</time>
      </trkpt>
      <trkpt lat="49.48019" lon="3.67595">
        <ele>101.08</ele>
        <time>2021-08-09T04:47:29Z</time>
      </trkpt>
      <trkpt lat="49.48018" lon="3.67604">
        <ele>101.08</ele>
        <time>2021-08-09T04:47:30Z</time>
      </trkpt>
      <trkpt lat="49.48008" lon="3.67681">
        <ele>98.19</ele>
        <time>2021-08-09T04:47:38Z</time>
      </trkpt>
      <trkpt lat="49.48" lon="3.67761">
        <ele>96.27</ele>
        <time>2021-08-09T04:47:46Z</time>
      </trkpt>
      <trkpt lat="49.47995" lon="3.67796">
        <ele>96.27</ele>
        <time>2021-08-09T04:47:50Z</time>
      </trkpt>
      <trkpt lat="49.47976" lon="3.67866">
        <ele>95.79</ele>
        <time>2021-08-09T04:47:59Z</time>
      </trkpt>
      <trkpt lat="49.4796" lon="3.67915">
        <ele>95.79</ele>
        <time>2021-08-09T04:48:07Z</time>
      </trkpt>
      <trkpt lat="49.47947" lon="3.67972">
        <ele>95.79</ele>
        <time>2021-08-09T04:48:17Z</time>
      </trkpt>
      <trkpt lat="49.47939" lon="3.68029">
        <ele>95.79</ele>
        <time>2021-08-09T04:48:26Z</time>
      </trkpt>
      <trkpt lat="49.4793" lon="3.68086">
        <ele>94.83</ele>
        <time>2021-08-09T04:48:35Z</time>
      </trkpt>
      <trkpt lat="49.47928" lon="3.6809">
        <ele>94.35</ele>
        <time>2021-08-09T04:48:36Z</time>
      </trkpt>
      <trkpt lat="49.47925" lon="3.68092">
        <ele>94.35</ele>
        <time>2021-08-09T04:48:37Z</time>
      </trkpt>
      <trkpt lat="49.4792" lon="3.68093">
        <ele>94.35</ele>
        <time>2021-08-09T04:48:38Z</time>
      </trkpt>
      <trkpt lat="49.47918" lon="3.68092">
        <ele>93.87</ele>
        <time>2021-08-09T04:48:39Z</time>
      </trkpt>
      <trkpt lat="49.47913" lon="3.68091">
        <ele>93.39</ele>
        <time>2021-08-09T04:48:40Z</time>
      </trkpt>
      <trkpt lat="49.47881" lon="3.68076">
        <ele>90.98</ele>
        <time>2021-08-09T04:48:46Z</time>
      </trkpt>
      <trkpt lat="49.4784" lon="3.68046">
        <ele>89.06</ele>
        <time>2021-08-09T04:48:52Z</time>
      </trkpt>
      <trkpt lat="49.47788" lon="3.67993">
        <ele>85.21</ele>
        <time>2021-08-09T04:48:59Z</time>
      </trkpt>
      <trkpt lat="49.47738" lon="3.67947">
        <ele>85.69</ele>
        <time>2021-08-09T04:49:06Z</time>
      </trkpt>
      <trkpt lat="49.47726" lon="3.67934">
        <ele>85.69</ele>
        <time>2021-08-09T04:49:08Z</time>
      </trkpt>
      <trkpt lat="49.47722" lon="3.67928">
        <ele>85.69</ele>
        <time>2021-08-09T04:49:09Z</time>
      </trkpt>
      <trkpt lat="49.47706" lon="3.67899">
        <ele>86.66</ele>
        <time>2021-08-09T04:49:13Z</time>
      </trkpt>
      <trkpt lat="49.4768" lon="3.67848">
        <ele>88.1</ele>
        <time>2021-08-09T04:49:21Z</time>
      </trkpt>
      <trkpt lat="49.47658" lon="3.67805">
        <ele>89.54</ele>
        <time>2021-08-09T04:49:30Z</time>
      </trkpt>
      <trkpt lat="49.47639" lon="3.67768">
        <ele>90.98</ele>
        <time>2021-08-09T04:49:39Z</time>
      </trkpt>
      <trkpt lat="49.47616" lon="3.67724">
        <ele>93.39</ele>
        <time>2021-08-09T04:49:50Z</time>
      </trkpt>
      <trkpt lat="49.47602" lon="3.67697">
        <ele>94.35</ele>
        <time>2021-08-09T04:49:57Z</time>
      </trkpt>
      <trkpt lat="49.47586" lon="3.67665">
        <ele>95.31</ele>
        <time>2021-08-09T04:50:05Z</time>
      </trkpt>
      <trkpt lat="49.47562" lon="3.67618">
        <ele>96.27</ele>
        <time>2021-08-09T04:50:16Z</time>
      </trkpt>
      <trkpt lat="49.47551" lon="3.67598">
        <ele>96.27</ele>
        <time>2021-08-09T04:50:20Z</time>
      </trkpt>
      <trkpt lat="49.47548" lon="3.67594">
        <ele>96.27</ele>
        <time>2021-08-09T04:50:21Z</time>
      </trkpt>
      <trkpt lat="49.47544" lon="3.6759">
        <ele>96.27</ele>
        <time>2021-08-09T04:50:22Z</time>
      </trkpt>
      <trkpt lat="49.4754" lon="3.67586">
        <ele>96.27</ele>
        <time>2021-08-09T04:50:23Z</time>
      </trkpt>
      <trkpt lat="49.47536" lon="3.67583">
        <ele>94.83</ele>
        <time>2021-08-09T04:50:24Z</time>
      </trkpt>
      <trkpt lat="49.47531" lon="3.6758">
        <ele>94.83</ele>
        <time>2021-08-09T04:50:25Z</time>
      </trkpt>
      <trkpt lat="49.47522" lon="3.67576">
        <ele>94.35</ele>
        <time>2021-08-09T04:50:27Z</time>
      </trkpt>
      <trkpt lat="49.47518" lon="3.67577">
        <ele>94.35</ele>
        <time>2021-08-09T04:50:28Z</time>
      </trkpt>
      <trkpt lat="49.47513" lon="3.67581">
        <ele>93.39</ele>
        <time>2021-08-09T04:50:29Z</time>
      </trkpt>
      <trkpt lat="49.47511" lon="3.67588">
        <ele>93.39</ele>
        <time>2021-08-09T04:50:30Z</time>
      </trkpt>
      <trkpt lat="49.4751" lon="3.67594">
        <ele>92.9</ele>
        <time>2021-08-09T04:50:31Z</time>
      </trkpt>
      <trkpt lat="49.47509" lon="3.67602">
        <ele>92.9</ele>
        <time>2021-08-09T04:50:32Z</time>
      </trkpt>
      <trkpt lat="49.475" lon="3.67664">
        <ele>90.02</ele>
        <time>2021-08-09T04:50:39Z</time>
      </trkpt>
      <trkpt lat="49.4749" lon="3.67702">
        <ele>89.06</ele>
        <time>2021-08-09T04:50:43Z</time>
      </trkpt>
      <trkpt lat="49.47485" lon="3.67718">
        <ele>89.06</ele>
        <time>2021-08-09T04:50:45Z</time>
      </trkpt>
      <trkpt lat="49.47482" lon="3.67722">
        <ele>88.58</ele>
        <time>2021-08-09T04:50:46Z</time>
      </trkpt>
      <trkpt lat="49.4748" lon="3.67724">
        <ele>88.58</ele>
        <time>2021-08-09T04:50:47Z</time>
      </trkpt>
      <trkpt lat="49.47476" lon="3.67724">
        <ele>88.1</ele>
        <time>2021-08-09T04:50:48Z</time>
      </trkpt>
      <trkpt lat="49.47472" lon="3.67722">
        <ele>87.62</ele>
        <time>2021-08-09T04:50:49Z</time>
      </trkpt>
      <trkpt lat="49.47468" lon="3.67721">
        <ele>87.62</ele>
        <time>2021-08-09T04:50:50Z</time>
      </trkpt>
      <trkpt lat="49.47464" lon="3.6772">
        <ele>86.66</ele>
        <time>2021-08-09T04:50:51Z</time>
      </trkpt>
      <trkpt lat="49.47455" lon="3.67717">
        <ele>86.18</ele>
        <time>2021-08-09T04:50:53Z</time>
      </trkpt>
      <trkpt lat="49.47449" lon="3.67717">
        <ele>85.21</ele>
        <time>2021-08-09T04:50:54Z</time>
      </trkpt>
      <trkpt lat="49.47445" lon="3.67721">
        <ele>84.73</ele>
        <time>2021-08-09T04:50:55Z</time>
      </trkpt>
      <trkpt lat="49.47443" lon="3.67726">
        <ele>84.73</ele>
        <time>2021-08-09T04:50:56Z</time>
      </trkpt>
      <trkpt lat="49.47442" lon="3.67732">
        <ele>84.25</ele>
        <time>2021-08-09T04:50:57Z</time>
      </trkpt>
      <trkpt lat="49.47442" lon="3.67738">
        <ele>84.25</ele>
        <time>2021-08-09T04:50:58Z</time>
      </trkpt>
      <trkpt lat="49.47441" lon="3.67745">
        <ele>84.25</ele>
        <time>2021-08-09T04:50:59Z</time>
      </trkpt>
      <trkpt lat="49.4744" lon="3.6775">
        <ele>84.25</ele>
        <time>2021-08-09T04:51:00Z</time>
      </trkpt>
      <trkpt lat="49.47436" lon="3.67762">
        <ele>84.25</ele>
        <time>2021-08-09T04:51:02Z</time>
      </trkpt>
      <trkpt lat="49.47434" lon="3.67768">
        <ele>84.25</ele>
        <time>2021-08-09T04:51:03Z</time>
      </trkpt>
      <trkpt lat="49.47426" lon="3.6779">
        <ele>83.77</ele>
        <time>2021-08-09T04:51:07Z</time>
      </trkpt>
      <trkpt lat="49.47412" lon="3.67831">
        <ele>84.25</ele>
        <time>2021-08-09T04:51:15Z</time>
      </trkpt>
      <trkpt lat="49.47412" lon="3.67835">
        <ele>84.25</ele>
        <time>2021-08-09T04:51:16Z</time>
      </trkpt>
      <trkpt lat="49.47413" lon="3.67837">
        <ele>84.25</ele>
        <time>2021-08-09T04:51:17Z</time>
      </trkpt>
      <trkpt lat="49.47415" lon="3.67838">
        <ele>84.25</ele>
        <time>2021-08-09T04:51:18Z</time>
      </trkpt>
      <trkpt lat="49.47417" lon="3.6784">
        <ele>84.25</ele>
        <time>2021-08-09T04:51:19Z</time>
      </trkpt>
      <trkpt lat="49.47419" lon="3.67843">
        <ele>84.25</ele>
        <time>2021-08-09T04:51:20Z</time>
      </trkpt>
      <trkpt lat="49.47421" lon="3.67845">
        <ele>83.77</ele>
        <time>2021-08-09T04:51:21Z</time>
      </trkpt>
      <trkpt lat="49.47424" lon="3.67848">
        <ele>83.77</ele>
        <time>2021-08-09T04:51:22Z</time>
      </trkpt>
      <trkpt lat="49.47434" lon="3.67861">
        <ele>83.77</ele>
        <time>2021-08-09T04:51:28Z</time>
      </trkpt>
      <trkpt lat="49.47434" lon="3.67864">
        <ele>83.77</ele>
        <time>2021-08-09T04:51:29Z</time>
      </trkpt>
      <trkpt lat="49.47433" lon="3.67867">
        <ele>83.77</ele>
        <time>2021-08-09T04:51:30Z</time>
      </trkpt>
      <trkpt lat="49.47431" lon="3.6787">
        <ele>83.77</ele>
        <time>2021-08-09T04:51:31Z</time>
      </trkpt>
      <trkpt lat="49.4743" lon="3.67874">
        <ele>83.77</ele>
        <time>2021-08-09T04:51:32Z</time>
      </trkpt>
      <trkpt lat="49.47428" lon="3.67879">
        <ele>83.77</ele>
        <time>2021-08-09T04:51:33Z</time>
      </trkpt>
      <trkpt lat="49.47426" lon="3.67883">
        <ele>83.77</ele>
        <time>2021-08-09T04:51:34Z</time>
      </trkpt>
      <trkpt lat="49.47425" lon="3.67888">
        <ele>83.77</ele>
        <time>2021-08-09T04:51:35Z</time>
      </trkpt>
      <trkpt lat="49.47422" lon="3.67923">
        <ele>83.77</ele>
        <time>2021-08-09T04:51:42Z</time>
      </trkpt>
      <trkpt lat="49.47422" lon="3.67951">
        <ele>83.77</ele>
        <time>2021-08-09T04:51:48Z</time>
      </trkpt>
      <trkpt lat="49.4742" lon="3.67954">
        <ele>83.77</ele>
        <time>2021-08-09T04:51:49Z</time>
      </trkpt>
      <trkpt lat="49.47417" lon="3.67956">
        <ele>84.73</ele>
        <time>2021-08-09T04:51:50Z</time>
      </trkpt>
      <trkpt lat="49.47415" lon="3.67957">
        <ele>84.73</ele>
        <time>2021-08-09T04:51:51Z</time>
      </trkpt>
      <trkpt lat="49.47413" lon="3.67958">
        <ele>84.73</ele>
        <time>2021-08-09T04:51:52Z</time>
      </trkpt>
      <trkpt lat="49.47411" lon="3.67957">
        <ele>85.21</ele>
        <time>2021-08-09T04:51:53Z</time>
      </trkpt>
      <trkpt lat="49.47409" lon="3.67957">
        <ele>85.21</ele>
        <time>2021-08-09T04:51:54Z</time>
      </trkpt>
      <trkpt lat="49.47407" lon="3.67956">
        <ele>85.69</ele>
        <time>2021-08-09T04:51:55Z</time>
      </trkpt>
      <trkpt lat="49.47391" lon="3.6796">
        <ele>86.66</ele>
        <time>2021-08-09T04:52:03Z</time>
      </trkpt>
      <trkpt lat="49.47382" lon="3.67968">
        <ele>88.1</ele>
        <time>2021-08-09T04:52:10Z</time>
      </trkpt>
      <trkpt lat="49.47378" lon="3.67976">
        <ele>89.06</ele>
        <time>2021-08-09T04:52:18Z</time>
      </trkpt>
      <trkpt lat="49.47377" lon="3.6798">
        <ele>89.54</ele>
        <time>2021-08-09T04:52:31Z</time>
      </trkpt>
      <trkpt lat="49.47379" lon="3.6798">
        <ele>89.54</ele>
        <time>2021-08-09T04:52:50Z</time>
      </trkpt>
      <trkpt lat="49.4738" lon="3.67978">
        <ele>89.54</ele>
        <time>2021-08-09T04:53:09Z</time>
      </trkpt>
      <trkpt lat="49.47378" lon="3.6798">
        <ele>89.54</ele>
        <time>2021-08-09T04:53:20Z</time>
      </trkpt>
      <trkpt lat="49.47372" lon="3.67988">
        <ele>90.02</ele>
        <time>2021-08-09T04:53:27Z</time>
      </trkpt>
      <trkpt lat="49.47367" lon="3.67993">
        <ele>90.98</ele>
        <time>2021-08-09T04:53:32Z</time>
      </trkpt>
      <trkpt lat="49.47366" lon="3.67995">
        <ele>90.98</ele>
        <time>2021-08-09T04:53:33Z</time>
      </trkpt>
      <trkpt lat="49.47365" lon="3.67997">
        <ele>90.98</ele>
        <time>2021-08-09T04:53:34Z</time>
      </trkpt>
      <trkpt lat="49.47364" lon="3.67998">
        <ele>91.46</ele>
        <time>2021-08-09T04:53:35Z</time>
      </trkpt>
      <trkpt lat="49.47363" lon="3.68">
        <ele>91.46</ele>
        <time>2021-08-09T04:53:36Z</time>
      </trkpt>
      <trkpt lat="49.47361" lon="3.68001">
        <ele>91.46</ele>
        <time>2021-08-09T04:53:37Z</time>
      </trkpt>
      <trkpt lat="49.4736" lon="3.68005">
        <ele>91.94</ele>
        <time>2021-08-09T04:53:39Z</time>
      </trkpt>
      <trkpt lat="49.47359" lon="3.68007">
        <ele>92.42</ele>
        <time>2021-08-09T04:53:40Z</time>
      </trkpt>
      <trkpt lat="49.47358" lon="3.6801">
        <ele>92.42</ele>
        <time>2021-08-09T04:53:41Z</time>
      </trkpt>
      <trkpt lat="49.47357" lon="3.68013">
        <ele>92.9</ele>
        <time>2021-08-09T04:53:42Z</time>
      </trkpt>
      <trkpt lat="49.47356" lon="3.68015">
        <ele>92.9</ele>
        <time>2021-08-09T04:53:43Z</time>
      </trkpt>
      <trkpt lat="49.47354" lon="3.68018">
        <ele>93.39</ele>
        <time>2021-08-09T04:53:44Z</time>
      </trkpt>
      <trkpt lat="49.47353" lon="3.6802">
        <ele>93.39</ele>
        <time>2021-08-09T04:53:45Z</time>
      </trkpt>
      <trkpt lat="49.47352" lon="3.68022">
        <ele>93.87</ele>
        <time>2021-08-09T04:53:46Z</time>
      </trkpt>
      <trkpt lat="49.47348" lon="3.68026">
        <ele>93.87</ele>
        <time>2021-08-09T04:53:52Z</time>
      </trkpt>
      <trkpt lat="49.47345" lon="3.68033">
        <ele>93.87</ele>
        <time>2021-08-09T04:54:05Z</time>
      </trkpt>
      <trkpt lat="49.47344" lon="3.68035">
        <ele>93.87</ele>
        <time>2021-08-09T04:54:06Z</time>
      </trkpt>
      <trkpt lat="49.47344" lon="3.68036">
        <ele>93.87</ele>
        <time>2021-08-09T04:54:07Z</time>
      </trkpt>
      <trkpt lat="49.47343" lon="3.68038">
        <ele>93.87</ele>
        <time>2021-08-09T04:54:08Z</time>
      </trkpt>
      <trkpt lat="49.47341" lon="3.68041">
        <ele>94.35</ele>
        <time>2021-08-09T04:54:09Z</time>
      </trkpt>
      <trkpt lat="49.4734" lon="3.68043">
        <ele>94.35</ele>
        <time>2021-08-09T04:54:10Z</time>
      </trkpt>
      <trkpt lat="49.47339" lon="3.68046">
        <ele>94.35</ele>
        <time>2021-08-09T04:54:11Z</time>
      </trkpt>
      <trkpt lat="49.47338" lon="3.68049">
        <ele>94.35</ele>
        <time>2021-08-09T04:54:12Z</time>
      </trkpt>
      <trkpt lat="49.47329" lon="3.68068">
        <ele>94.35</ele>
        <time>2021-08-09T04:54:18Z</time>
      </trkpt>
      <trkpt lat="49.47316" lon="3.68094">
        <ele>94.35</ele>
        <time>2021-08-09T04:54:26Z</time>
      </trkpt>
      <trkpt lat="49.47299" lon="3.68132">
        <ele>94.35</ele>
        <time>2021-08-09T04:54:33Z</time>
      </trkpt>
      <trkpt lat="49.47299" lon="3.68171">
        <ele>94.83</ele>
        <time>2021-08-09T04:54:40Z</time>
      </trkpt>
      <trkpt lat="49.4729" lon="3.68204">
        <ele>96.27</ele>
        <time>2021-08-09T04:54:49Z</time>
      </trkpt>
      <trkpt lat="49.47281" lon="3.68224">
        <ele>96.75</ele>
        <time>2021-08-09T04:54:55Z</time>
      </trkpt>
      <trkpt lat="49.47259" lon="3.68246">
        <ele>98.19</ele>
        <time>2021-08-09T04:55:04Z</time>
      </trkpt>
      <trkpt lat="49.47243" lon="3.68247">
        <ele>99.15</ele>
        <time>2021-08-09T04:55:11Z</time>
      </trkpt>
      <trkpt lat="49.47233" lon="3.68248">
        <ele>99.63</ele>
        <time>2021-08-09T04:55:16Z</time>
      </trkpt>
      <trkpt lat="49.47231" lon="3.68249">
        <ele>100.11</ele>
        <time>2021-08-09T04:55:17Z</time>
      </trkpt>
      <trkpt lat="49.4723" lon="3.68251">
        <ele>100.11</ele>
        <time>2021-08-09T04:55:18Z</time>
      </trkpt>
      <trkpt lat="49.47228" lon="3.68253">
        <ele>100.11</ele>
        <time>2021-08-09T04:55:19Z</time>
      </trkpt>
      <trkpt lat="49.47227" lon="3.68255">
        <ele>100.11</ele>
        <time>2021-08-09T04:55:20Z</time>
      </trkpt>
      <trkpt lat="49.47226" lon="3.68258">
        <ele>100.11</ele>
        <time>2021-08-09T04:55:21Z</time>
      </trkpt>
      <trkpt lat="49.47225" lon="3.68261">
        <ele>100.6</ele>
        <time>2021-08-09T04:55:22Z</time>
      </trkpt>
      <trkpt lat="49.47224" lon="3.68263">
        <ele>100.6</ele>
        <time>2021-08-09T04:55:23Z</time>
      </trkpt>
      <trkpt lat="49.47223" lon="3.68265">
        <ele>100.6</ele>
        <time>2021-08-09T04:55:24Z</time>
      </trkpt>
      <trkpt lat="49.47222" lon="3.68267">
        <ele>101.08</ele>
        <time>2021-08-09T04:55:25Z</time>
      </trkpt>
      <trkpt lat="49.47221" lon="3.68269">
        <ele>101.08</ele>
        <time>2021-08-09T04:55:26Z</time>
      </trkpt>
      <trkpt lat="49.47219" lon="3.6827">
        <ele>101.08</ele>
        <time>2021-08-09T04:55:27Z</time>
      </trkpt>
      <trkpt lat="49.47217" lon="3.68272">
        <ele>101.08</ele>
        <time>2021-08-09T04:55:28Z</time>
      </trkpt>
      <trkpt lat="49.47216" lon="3.68273">
        <ele>101.08</ele>
        <time>2021-08-09T04:55:29Z</time>
      </trkpt>
      <trkpt lat="49.47214" lon="3.68274">
        <ele>101.08</ele>
        <time>2021-08-09T04:55:30Z</time>
      </trkpt>
      <trkpt lat="49.47213" lon="3.68275">
        <ele>102.04</ele>
        <time>2021-08-09T04:55:31Z</time>
      </trkpt>
      <trkpt lat="49.47197" lon="3.68284">
        <ele>103</ele>
        <time>2021-08-09T04:55:41Z</time>
      </trkpt>
      <trkpt lat="49.47181" lon="3.68296">
        <ele>104.92</ele>
        <time>2021-08-09T04:55:52Z</time>
      </trkpt>
      <trkpt lat="49.47168" lon="3.68303">
        <ele>106.84</ele>
        <time>2021-08-09T04:56:01Z</time>
      </trkpt>
      <trkpt lat="49.47153" lon="3.68303">
        <ele>108.29</ele>
        <time>2021-08-09T04:56:11Z</time>
      </trkpt>
      <trkpt lat="49.47138" lon="3.68299">
        <ele>110.21</ele>
        <time>2021-08-09T04:56:20Z</time>
      </trkpt>
      <trkpt lat="49.47122" lon="3.68291">
        <ele>111.65</ele>
        <time>2021-08-09T04:56:30Z</time>
      </trkpt>
      <trkpt lat="49.47103" lon="3.68282">
        <ele>112.61</ele>
        <time>2021-08-09T04:56:39Z</time>
      </trkpt>
      <trkpt lat="49.47075" lon="3.68271">
        <ele>111.17</ele>
        <time>2021-08-09T04:56:47Z</time>
      </trkpt>
      <trkpt lat="49.4707" lon="3.68269">
        <ele>111.17</ele>
        <time>2021-08-09T04:56:48Z</time>
      </trkpt>
      <trkpt lat="49.47061" lon="3.68267">
        <ele>110.69</ele>
        <time>2021-08-09T04:56:50Z</time>
      </trkpt>
      <trkpt lat="49.47036" lon="3.68264">
        <ele>110.69</ele>
        <time>2021-08-09T04:56:56Z</time>
      </trkpt>
      <trkpt lat="49.47007" lon="3.68272">
        <ele>110.69</ele>
        <time>2021-08-09T04:57:04Z</time>
      </trkpt>
      <trkpt lat="49.46978" lon="3.68289">
        <ele>110.69</ele>
        <time>2021-08-09T04:57:13Z</time>
      </trkpt>
      <trkpt lat="49.4697" lon="3.68296">
        <ele>109.73</ele>
        <time>2021-08-09T04:57:15Z</time>
      </trkpt>
      <trkpt lat="49.46953" lon="3.68306">
        <ele>107.81</ele>
        <time>2021-08-09T04:57:18Z</time>
      </trkpt>
      <trkpt lat="49.46947" lon="3.68308">
        <ele>106.84</ele>
        <time>2021-08-09T04:57:19Z</time>
      </trkpt>
      <trkpt lat="49.4694" lon="3.6831">
        <ele>106.36</ele>
        <time>2021-08-09T04:57:20Z</time>
      </trkpt>
      <trkpt lat="49.46933" lon="3.68311">
        <ele>105.88</ele>
        <time>2021-08-09T04:57:21Z</time>
      </trkpt>
      <trkpt lat="49.46926" lon="3.68312">
        <ele>105.88</ele>
        <time>2021-08-09T04:57:22Z</time>
      </trkpt>
      <trkpt lat="49.46887" lon="3.68313">
        <ele>103.48</ele>
        <time>2021-08-09T04:57:28Z</time>
      </trkpt>
      <trkpt lat="49.46877" lon="3.68313">
        <ele>103.48</ele>
        <time>2021-08-09T04:57:30Z</time>
      </trkpt>
      <trkpt lat="49.46855" lon="3.68314">
        <ele>103</ele>
        <time>2021-08-09T04:57:35Z</time>
      </trkpt>
      <trkpt lat="49.4682" lon="3.68316">
        <ele>101.08</ele>
        <time>2021-08-09T04:57:42Z</time>
      </trkpt>
      <trkpt lat="49.4681" lon="3.6832">
        <ele>100.6</ele>
        <time>2021-08-09T04:57:44Z</time>
      </trkpt>
      <trkpt lat="49.46801" lon="3.68325">
        <ele>100.6</ele>
        <time>2021-08-09T04:57:46Z</time>
      </trkpt>
      <trkpt lat="49.46797" lon="3.68329">
        <ele>100.6</ele>
        <time>2021-08-09T04:57:47Z</time>
      </trkpt>
      <trkpt lat="49.46784" lon="3.68342">
        <ele>100.6</ele>
        <time>2021-08-09T04:57:52Z</time>
      </trkpt>
      <trkpt lat="49.4677" lon="3.68358">
        <ele>101.56</ele>
        <time>2021-08-09T04:57:58Z</time>
      </trkpt>
      <trkpt lat="49.46755" lon="3.68385">
        <ele>102.04</ele>
        <time>2021-08-09T04:58:05Z</time>
      </trkpt>
      <trkpt lat="49.46753" lon="3.68406">
        <ele>103</ele>
        <time>2021-08-09T04:58:10Z</time>
      </trkpt>
      <trkpt lat="49.46752" lon="3.68424">
        <ele>104.44</ele>
        <time>2021-08-09T04:58:17Z</time>
      </trkpt>
      <trkpt lat="49.46751" lon="3.68433">
        <ele>104.92</ele>
        <time>2021-08-09T04:58:21Z</time>
      </trkpt>
      <trkpt lat="49.4675" lon="3.68435">
        <ele>105.4</ele>
        <time>2021-08-09T04:58:22Z</time>
      </trkpt>
      <trkpt lat="49.4675" lon="3.68437">
        <ele>105.4</ele>
        <time>2021-08-09T04:58:23Z</time>
      </trkpt>
      <trkpt lat="49.4675" lon="3.68439">
        <ele>105.88</ele>
        <time>2021-08-09T04:58:24Z</time>
      </trkpt>
      <trkpt lat="49.46746" lon="3.68455">
        <ele>107.32</ele>
        <time>2021-08-09T04:58:32Z</time>
      </trkpt>
      <trkpt lat="49.46741" lon="3.68463">
        <ele>108.77</ele>
        <time>2021-08-09T04:58:38Z</time>
      </trkpt>
      <trkpt lat="49.46733" lon="3.68472">
        <ele>110.69</ele>
        <time>2021-08-09T04:58:45Z</time>
      </trkpt>
      <trkpt lat="49.46725" lon="3.6848">
        <ele>113.09</ele>
        <time>2021-08-09T04:58:52Z</time>
      </trkpt>
      <trkpt lat="49.46715" lon="3.68487">
        <ele>115.5</ele>
        <time>2021-08-09T04:59:00Z</time>
      </trkpt>
      <trkpt lat="49.46711" lon="3.68489">
        <ele>115.98</ele>
        <time>2021-08-09T04:59:03Z</time>
      </trkpt>
      <trkpt lat="49.467" lon="3.68488">
        <ele>116.94</ele>
        <time>2021-08-09T04:59:09Z</time>
      </trkpt>
      <trkpt lat="49.46692" lon="3.68491">
        <ele>116.94</ele>
        <time>2021-08-09T04:59:12Z</time>
      </trkpt>
      <trkpt lat="49.4669" lon="3.68493">
        <ele>116.94</ele>
        <time>2021-08-09T04:59:13Z</time>
      </trkpt>
      <trkpt lat="49.46689" lon="3.68495">
        <ele>116.94</ele>
        <time>2021-08-09T04:59:14Z</time>
      </trkpt>
      <trkpt lat="49.46674" lon="3.68518">
        <ele>117.9</ele>
        <time>2021-08-09T04:59:23Z</time>
      </trkpt>
      <trkpt lat="49.46661" lon="3.68539">
        <ele>118.86</ele>
        <time>2021-08-09T04:59:31Z</time>
      </trkpt>
      <trkpt lat="49.46654" lon="3.68554">
        <ele>119.34</ele>
        <time>2021-08-09T04:59:36Z</time>
      </trkpt>
      <trkpt lat="49.46653" lon="3.68559">
        <ele>119.34</ele>
        <time>2021-08-09T04:59:38Z</time>
      </trkpt>
      <trkpt lat="49.46652" lon="3.68561">
        <ele>119.82</ele>
        <time>2021-08-09T04:59:39Z</time>
      </trkpt>
      <trkpt lat="49.46643" lon="3.6858">
        <ele>121.74</ele>
        <time>2021-08-09T04:59:47Z</time>
      </trkpt>
      <trkpt lat="49.46628" lon="3.68604">
        <ele>123.19</ele>
        <time>2021-08-09T04:59:56Z</time>
      </trkpt>
      <trkpt lat="49.46627" lon="3.68607">
        <ele>123.19</ele>
        <time>2021-08-09T04:59:57Z</time>
      </trkpt>
      <trkpt lat="49.46626" lon="3.6861">
        <ele>123.19</ele>
        <time>2021-08-09T04:59:58Z</time>
      </trkpt>
      <trkpt lat="49.46624" lon="3.68613">
        <ele>123.19</ele>
        <time>2021-08-09T04:59:59Z</time>
      </trkpt>
      <trkpt lat="49.46623" lon="3.68615">
        <ele>124.15</ele>
        <time>2021-08-09T05:00:00Z</time>
      </trkpt>
      <trkpt lat="49.46621" lon="3.68619">
        <ele>123.67</ele>
        <time>2021-08-09T05:00:01Z</time>
      </trkpt>
      <trkpt lat="49.46607" lon="3.68656">
        <ele>123.67</ele>
        <time>2021-08-09T05:00:11Z</time>
      </trkpt>
      <trkpt lat="49.46602" lon="3.68674">
        <ele>124.15</ele>
        <time>2021-08-09T05:00:16Z</time>
      </trkpt>
      <trkpt lat="49.46603" lon="3.68675">
        <ele>124.15</ele>
        <time>2021-08-09T05:00:17Z</time>
      </trkpt>
      <trkpt lat="49.46604" lon="3.68677">
        <ele>124.15</ele>
        <time>2021-08-09T05:00:18Z</time>
      </trkpt>
      <trkpt lat="49.46605" lon="3.6868">
        <ele>124.15</ele>
        <time>2021-08-09T05:00:19Z</time>
      </trkpt>
      <trkpt lat="49.46605" lon="3.68683">
        <ele>125.11</ele>
        <time>2021-08-09T05:00:20Z</time>
      </trkpt>
      <trkpt lat="49.46605" lon="3.68685">
        <ele>125.11</ele>
        <time>2021-08-09T05:00:21Z</time>
      </trkpt>
      <trkpt lat="49.46604" lon="3.68687">
        <ele>125.11</ele>
        <time>2021-08-09T05:00:22Z</time>
      </trkpt>
      <trkpt lat="49.46603" lon="3.6869">
        <ele>125.11</ele>
        <time>2021-08-09T05:00:23Z</time>
      </trkpt>
      <trkpt lat="49.46601" lon="3.68693">
        <ele>125.11</ele>
        <time>2021-08-09T05:00:24Z</time>
      </trkpt>
      <trkpt lat="49.46592" lon="3.68722">
        <ele>123.67</ele>
        <time>2021-08-09T05:00:30Z</time>
      </trkpt>
      <trkpt lat="49.46589" lon="3.68735">
        <ele>122.22</ele>
        <time>2021-08-09T05:00:32Z</time>
      </trkpt>
      <trkpt lat="49.46582" lon="3.68761">
        <ele>120.3</ele>
        <time>2021-08-09T05:00:35Z</time>
      </trkpt>
      <trkpt lat="49.46574" lon="3.68792">
        <ele>116.46</ele>
        <time>2021-08-09T05:00:38Z</time>
      </trkpt>
      <trkpt lat="49.46569" lon="3.68826">
        <ele>115.01</ele>
        <time>2021-08-09T05:00:41Z</time>
      </trkpt>
      <trkpt lat="49.46567" lon="3.68846">
        <ele>113.57</ele>
        <time>2021-08-09T05:00:43Z</time>
      </trkpt>
      <trkpt lat="49.46567" lon="3.68882">
        <ele>110.69</ele>
        <time>2021-08-09T05:00:46Z</time>
      </trkpt>
      <trkpt lat="49.46568" lon="3.68894">
        <ele>109.73</ele>
        <time>2021-08-09T05:00:47Z</time>
      </trkpt>
      <trkpt lat="49.46572" lon="3.68934">
        <ele>106.36</ele>
        <time>2021-08-09T05:00:50Z</time>
      </trkpt>
      <trkpt lat="49.46578" lon="3.68975">
        <ele>103.48</ele>
        <time>2021-08-09T05:00:53Z</time>
      </trkpt>
      <trkpt lat="49.46584" lon="3.69001">
        <ele>102.04</ele>
        <time>2021-08-09T05:00:55Z</time>
      </trkpt>
      <trkpt lat="49.46597" lon="3.69075">
        <ele>100.6</ele>
        <time>2021-08-09T05:01:01Z</time>
      </trkpt>
      <trkpt lat="49.466" lon="3.69095">
        <ele>100.6</ele>
        <time>2021-08-09T05:01:03Z</time>
      </trkpt>
      <trkpt lat="49.46599" lon="3.69102">
        <ele>101.08</ele>
        <time>2021-08-09T05:01:04Z</time>
      </trkpt>
      <trkpt lat="49.46598" lon="3.69109">
        <ele>101.08</ele>
        <time>2021-08-09T05:01:05Z</time>
      </trkpt>
      <trkpt lat="49.46597" lon="3.69115">
        <ele>101.08</ele>
        <time>2021-08-09T05:01:06Z</time>
      </trkpt>
      <trkpt lat="49.46596" lon="3.69121">
        <ele>101.08</ele>
        <time>2021-08-09T05:01:07Z</time>
      </trkpt>
      <trkpt lat="49.46594" lon="3.69126">
        <ele>101.08</ele>
        <time>2021-08-09T05:01:08Z</time>
      </trkpt>
      <trkpt lat="49.46592" lon="3.69131">
        <ele>101.08</ele>
        <time>2021-08-09T05:01:09Z</time>
      </trkpt>
      <trkpt lat="49.46592" lon="3.69136">
        <ele>100.6</ele>
        <time>2021-08-09T05:01:10Z</time>
      </trkpt>
      <trkpt lat="49.46592" lon="3.69141">
        <ele>100.6</ele>
        <time>2021-08-09T05:01:11Z</time>
      </trkpt>
      <trkpt lat="49.46593" lon="3.69146">
        <ele>100.6</ele>
        <time>2021-08-09T05:01:12Z</time>
      </trkpt>
      <trkpt lat="49.46606" lon="3.69198">
        <ele>100.6</ele>
        <time>2021-08-09T05:01:22Z</time>
      </trkpt>
      <trkpt lat="49.46608" lon="3.6925">
        <ele>100.6</ele>
        <time>2021-08-09T05:01:31Z</time>
      </trkpt>
      <trkpt lat="49.46606" lon="3.69291">
        <ele>102.52</ele>
        <time>2021-08-09T05:01:39Z</time>
      </trkpt>
      <trkpt lat="49.46599" lon="3.69331">
        <ele>103.48</ele>
        <time>2021-08-09T05:01:47Z</time>
      </trkpt>
      <trkpt lat="49.46592" lon="3.69379">
        <ele>104.44</ele>
        <time>2021-08-09T05:01:57Z</time>
      </trkpt>
      <trkpt lat="49.46589" lon="3.6939">
        <ele>104.44</ele>
        <time>2021-08-09T05:02:01Z</time>
      </trkpt>
      <trkpt lat="49.46587" lon="3.69393">
        <ele>104.44</ele>
        <time>2021-08-09T05:02:02Z</time>
      </trkpt>
      <trkpt lat="49.46585" lon="3.69393">
        <ele>104.44</ele>
        <time>2021-08-09T05:02:03Z</time>
      </trkpt>
      <trkpt lat="49.46582" lon="3.69394">
        <ele>104.44</ele>
        <time>2021-08-09T05:02:04Z</time>
      </trkpt>
      <trkpt lat="49.46579" lon="3.69395">
        <ele>104.44</ele>
        <time>2021-08-09T05:02:05Z</time>
      </trkpt>
      <trkpt lat="49.46575" lon="3.69398">
        <ele>104.44</ele>
        <time>2021-08-09T05:02:06Z</time>
      </trkpt>
      <trkpt lat="49.46571" lon="3.69402">
        <ele>102.52</ele>
        <time>2021-08-09T05:02:07Z</time>
      </trkpt>
      <trkpt lat="49.46567" lon="3.69405">
        <ele>101.56</ele>
        <time>2021-08-09T05:02:08Z</time>
      </trkpt>
      <trkpt lat="49.46563" lon="3.69411">
        <ele>101.08</ele>
        <time>2021-08-09T05:02:09Z</time>
      </trkpt>
      <trkpt lat="49.46558" lon="3.69418">
        <ele>100.6</ele>
        <time>2021-08-09T05:02:10Z</time>
      </trkpt>
      <trkpt lat="49.4653" lon="3.6947">
        <ele>97.23</ele>
        <time>2021-08-09T05:02:16Z</time>
      </trkpt>
      <trkpt lat="49.4649" lon="3.6956">
        <ele>94.83</ele>
        <time>2021-08-09T05:02:25Z</time>
      </trkpt>
      <trkpt lat="49.46475" lon="3.69632">
        <ele>94.83</ele>
        <time>2021-08-09T05:02:32Z</time>
      </trkpt>
      <trkpt lat="49.46471" lon="3.69658">
        <ele>94.83</ele>
        <time>2021-08-09T05:02:35Z</time>
      </trkpt>
      <trkpt lat="49.46464" lon="3.69689">
        <ele>94.83</ele>
        <time>2021-08-09T05:02:39Z</time>
      </trkpt>
      <trkpt lat="49.46461" lon="3.69696">
        <ele>94.35</ele>
        <time>2021-08-09T05:02:40Z</time>
      </trkpt>
      <trkpt lat="49.46456" lon="3.69701">
        <ele>94.35</ele>
        <time>2021-08-09T05:02:41Z</time>
      </trkpt>
      <trkpt lat="49.46451" lon="3.69705">
        <ele>94.35</ele>
        <time>2021-08-09T05:02:42Z</time>
      </trkpt>
      <trkpt lat="49.46446" lon="3.69709">
        <ele>94.35</ele>
        <time>2021-08-09T05:02:43Z</time>
      </trkpt>
      <trkpt lat="49.46397" lon="3.6974">
        <ele>92.42</ele>
        <time>2021-08-09T05:02:52Z</time>
      </trkpt>
      <trkpt lat="49.46382" lon="3.6975">
        <ele>91.46</ele>
        <time>2021-08-09T05:02:55Z</time>
      </trkpt>
      <trkpt lat="49.46378" lon="3.6975">
        <ele>91.94</ele>
        <time>2021-08-09T05:02:56Z</time>
      </trkpt>
      <trkpt lat="49.46374" lon="3.69747">
        <ele>91.94</ele>
        <time>2021-08-09T05:02:57Z</time>
      </trkpt>
      <trkpt lat="49.46372" lon="3.69743">
        <ele>91.94</ele>
        <time>2021-08-09T05:02:58Z</time>
      </trkpt>
      <trkpt lat="49.4637" lon="3.69738">
        <ele>91.94</ele>
        <time>2021-08-09T05:02:59Z</time>
      </trkpt>
      <trkpt lat="49.46369" lon="3.69731">
        <ele>90.98</ele>
        <time>2021-08-09T05:03:00Z</time>
      </trkpt>
      <trkpt lat="49.46368" lon="3.69725">
        <ele>90.98</ele>
        <time>2021-08-09T05:03:01Z</time>
      </trkpt>
      <trkpt lat="49.46368" lon="3.69718">
        <ele>90.98</ele>
        <time>2021-08-09T05:03:02Z</time>
      </trkpt>
      <trkpt lat="49.46368" lon="3.69711">
        <ele>90.98</ele>
        <time>2021-08-09T05:03:03Z</time>
      </trkpt>
      <trkpt lat="49.46367" lon="3.69705">
        <ele>90.98</ele>
        <time>2021-08-09T05:03:04Z</time>
      </trkpt>
      <trkpt lat="49.46363" lon="3.69686">
        <ele>90.98</ele>
        <time>2021-08-09T05:03:07Z</time>
      </trkpt>
      <trkpt lat="49.46363" lon="3.6968">
        <ele>90.98</ele>
        <time>2021-08-09T05:03:08Z</time>
      </trkpt>
      <trkpt lat="49.46361" lon="3.69656">
        <ele>90.98</ele>
        <time>2021-08-09T05:03:12Z</time>
      </trkpt>
      <trkpt lat="49.46358" lon="3.69653">
        <ele>90.98</ele>
        <time>2021-08-09T05:03:13Z</time>
      </trkpt>
      <trkpt lat="49.46354" lon="3.69652">
        <ele>90.02</ele>
        <time>2021-08-09T05:03:14Z</time>
      </trkpt>
      <trkpt lat="49.46349" lon="3.69651">
        <ele>90.02</ele>
        <time>2021-08-09T05:03:15Z</time>
      </trkpt>
      <trkpt lat="49.46344" lon="3.69652">
        <ele>89.54</ele>
        <time>2021-08-09T05:03:16Z</time>
      </trkpt>
      <trkpt lat="49.46339" lon="3.69653">
        <ele>89.54</ele>
        <time>2021-08-09T05:03:17Z</time>
      </trkpt>
      <trkpt lat="49.463" lon="3.69656">
        <ele>86.66</ele>
        <time>2021-08-09T05:03:23Z</time>
      </trkpt>
      <trkpt lat="49.46279" lon="3.69657">
        <ele>85.21</ele>
        <time>2021-08-09T05:03:26Z</time>
      </trkpt>
      <trkpt lat="49.46213" lon="3.69665">
        <ele>83.29</ele>
        <time>2021-08-09T05:03:35Z</time>
      </trkpt>
      <trkpt lat="49.46163" lon="3.69672">
        <ele>83.29</ele>
        <time>2021-08-09T05:03:43Z</time>
      </trkpt>
      <trkpt lat="49.46115" lon="3.69676">
        <ele>83.29</ele>
        <time>2021-08-09T05:03:52Z</time>
      </trkpt>
      <trkpt lat="49.46109" lon="3.69677">
        <ele>83.29</ele>
        <time>2021-08-09T05:03:53Z</time>
      </trkpt>
      <trkpt lat="49.46089" lon="3.69684">
        <ele>83.29</ele>
        <time>2021-08-09T05:03:57Z</time>
      </trkpt>
      <trkpt lat="49.46079" lon="3.69685">
        <ele>83.29</ele>
        <time>2021-08-09T05:03:59Z</time>
      </trkpt>
      <trkpt lat="49.46074" lon="3.69684">
        <ele>83.29</ele>
        <time>2021-08-09T05:04:00Z</time>
      </trkpt>
      <trkpt lat="49.4606" lon="3.69677">
        <ele>83.29</ele>
        <time>2021-08-09T05:04:03Z</time>
      </trkpt>
      <trkpt lat="49.46044" lon="3.69665">
        <ele>84.25</ele>
        <time>2021-08-09T05:04:07Z</time>
      </trkpt>
      <trkpt lat="49.46018" lon="3.69646">
        <ele>84.25</ele>
        <time>2021-08-09T05:04:14Z</time>
      </trkpt>
      <trkpt lat="49.46002" lon="3.69633">
        <ele>84.25</ele>
        <time>2021-08-09T05:04:18Z</time>
      </trkpt>
      <trkpt lat="49.45985" lon="3.69612">
        <ele>84.73</ele>
        <time>2021-08-09T05:04:24Z</time>
      </trkpt>
      <trkpt lat="49.4596" lon="3.69586">
        <ele>84.73</ele>
        <time>2021-08-09T05:04:31Z</time>
      </trkpt>
      <trkpt lat="49.45931" lon="3.69561">
        <ele>85.69</ele>
        <time>2021-08-09T05:04:38Z</time>
      </trkpt>
      <trkpt lat="49.4591" lon="3.69543">
        <ele>85.69</ele>
        <time>2021-08-09T05:04:43Z</time>
      </trkpt>
      <trkpt lat="49.45881" lon="3.69522">
        <ele>84.73</ele>
        <time>2021-08-09T05:04:49Z</time>
      </trkpt>
      <trkpt lat="49.45872" lon="3.69515">
        <ele>84.25</ele>
        <time>2021-08-09T05:04:51Z</time>
      </trkpt>
      <trkpt lat="49.45838" lon="3.69493">
        <ele>83.77</ele>
        <time>2021-08-09T05:04:58Z</time>
      </trkpt>
      <trkpt lat="49.45834" lon="3.69491">
        <ele>83.77</ele>
        <time>2021-08-09T05:04:59Z</time>
      </trkpt>
      <trkpt lat="49.45825" lon="3.69486">
        <ele>83.77</ele>
        <time>2021-08-09T05:05:01Z</time>
      </trkpt>
      <trkpt lat="49.4582" lon="3.69484">
        <ele>83.77</ele>
        <time>2021-08-09T05:05:02Z</time>
      </trkpt>
      <trkpt lat="49.45815" lon="3.69482">
        <ele>83.77</ele>
        <time>2021-08-09T05:05:03Z</time>
      </trkpt>
      <trkpt lat="49.45806" lon="3.69478">
        <ele>83.77</ele>
        <time>2021-08-09T05:05:05Z</time>
      </trkpt>
      <trkpt lat="49.45801" lon="3.69475">
        <ele>83.77</ele>
        <time>2021-08-09T05:05:06Z</time>
      </trkpt>
      <trkpt lat="49.45798" lon="3.69472">
        <ele>83.77</ele>
        <time>2021-08-09T05:05:07Z</time>
      </trkpt>
      <trkpt lat="49.45794" lon="3.6947">
        <ele>83.77</ele>
        <time>2021-08-09T05:05:08Z</time>
      </trkpt>
      <trkpt lat="49.4579" lon="3.69468">
        <ele>83.77</ele>
        <time>2021-08-09T05:05:09Z</time>
      </trkpt>
      <trkpt lat="49.45786" lon="3.69466">
        <ele>84.25</ele>
        <time>2021-08-09T05:05:10Z</time>
      </trkpt>
      <trkpt lat="49.45764" lon="3.69456">
        <ele>84.25</ele>
        <time>2021-08-09T05:05:16Z</time>
      </trkpt>
      <trkpt lat="49.45757" lon="3.69452">
        <ele>85.21</ele>
        <time>2021-08-09T05:05:18Z</time>
      </trkpt>
      <trkpt lat="49.45731" lon="3.6944">
        <ele>85.69</ele>
        <time>2021-08-09T05:05:25Z</time>
      </trkpt>
      <trkpt lat="49.45706" lon="3.6943">
        <ele>86.18</ele>
        <time>2021-08-09T05:05:32Z</time>
      </trkpt>
      <trkpt lat="49.45687" lon="3.69422">
        <ele>87.14</ele>
        <time>2021-08-09T05:05:39Z</time>
      </trkpt>
      <trkpt lat="49.45664" lon="3.69415">
        <ele>88.1</ele>
        <time>2021-08-09T05:05:46Z</time>
      </trkpt>
      <trkpt lat="49.45639" lon="3.69404">
        <ele>89.06</ele>
        <time>2021-08-09T05:05:54Z</time>
      </trkpt>
      <trkpt lat="49.45617" lon="3.69393">
        <ele>90.02</ele>
        <time>2021-08-09T05:06:02Z</time>
      </trkpt>
      <trkpt lat="49.4559" lon="3.6938">
        <ele>90.98</ele>
        <time>2021-08-09T05:06:11Z</time>
      </trkpt>
      <trkpt lat="49.45569" lon="3.69372">
        <ele>92.42</ele>
        <time>2021-08-09T05:06:19Z</time>
      </trkpt>
      <trkpt lat="49.45547" lon="3.69365">
        <ele>93.87</ele>
        <time>2021-08-09T05:06:28Z</time>
      </trkpt>
      <trkpt lat="49.45534" lon="3.69365">
        <ele>95.31</ele>
        <time>2021-08-09T05:06:35Z</time>
      </trkpt>
      <trkpt lat="49.45521" lon="3.69369">
        <ele>96.27</ele>
        <time>2021-08-09T05:06:41Z</time>
      </trkpt>
      <trkpt lat="49.4551" lon="3.69378">
        <ele>96.75</ele>
        <time>2021-08-09T05:06:47Z</time>
      </trkpt>
      <trkpt lat="49.45488" lon="3.69406">
        <ele>98.19</ele>
        <time>2021-08-09T05:06:57Z</time>
      </trkpt>
      <trkpt lat="49.4547" lon="3.6944">
        <ele>99.63</ele>
        <time>2021-08-09T05:07:07Z</time>
      </trkpt>
      <trkpt lat="49.4546" lon="3.69467">
        <ele>101.08</ele>
        <time>2021-08-09T05:07:15Z</time>
      </trkpt>
      <trkpt lat="49.45452" lon="3.69502">
        <ele>101.56</ele>
        <time>2021-08-09T05:07:25Z</time>
      </trkpt>
      <trkpt lat="49.45444" lon="3.69521">
        <ele>102.52</ele>
        <time>2021-08-09T05:07:32Z</time>
      </trkpt>
      <trkpt lat="49.45433" lon="3.69542">
        <ele>103.48</ele>
        <time>2021-08-09T05:07:40Z</time>
      </trkpt>
      <trkpt lat="49.45419" lon="3.69568">
        <ele>104.92</ele>
        <time>2021-08-09T05:07:50Z</time>
      </trkpt>
      <trkpt lat="49.45411" lon="3.69591">
        <ele>105.88</ele>
        <time>2021-08-09T05:07:58Z</time>
      </trkpt>
      <trkpt lat="49.45405" lon="3.69611">
        <ele>107.32</ele>
        <time>2021-08-09T05:08:06Z</time>
      </trkpt>
      <trkpt lat="49.45401" lon="3.69632">
        <ele>108.29</ele>
        <time>2021-08-09T05:08:14Z</time>
      </trkpt>
      <trkpt lat="49.45396" lon="3.69655">
        <ele>109.73</ele>
        <time>2021-08-09T05:08:22Z</time>
      </trkpt>
      <trkpt lat="49.45392" lon="3.69676">
        <ele>110.21</ele>
        <time>2021-08-09T05:08:29Z</time>
      </trkpt>
      <trkpt lat="49.45385" lon="3.69705">
        <ele>112.13</ele>
        <time>2021-08-09T05:08:38Z</time>
      </trkpt>
      <trkpt lat="49.45374" lon="3.69728">
        <ele>112.61</ele>
        <time>2021-08-09T05:08:46Z</time>
      </trkpt>
      <trkpt lat="49.45359" lon="3.69755">
        <ele>114.05</ele>
        <time>2021-08-09T05:08:56Z</time>
      </trkpt>
      <trkpt lat="49.45341" lon="3.69778">
        <ele>114.53</ele>
        <time>2021-08-09T05:09:06Z</time>
      </trkpt>
      <trkpt lat="49.4532" lon="3.69791">
        <ele>115.5</ele>
        <time>2021-08-09T05:09:16Z</time>
      </trkpt>
      <trkpt lat="49.45302" lon="3.69798">
        <ele>116.46</ele>
        <time>2021-08-09T05:09:24Z</time>
      </trkpt>
      <trkpt lat="49.45279" lon="3.69796">
        <ele>116.94</ele>
        <time>2021-08-09T05:09:33Z</time>
      </trkpt>
      <trkpt lat="49.4525" lon="3.69788">
        <ele>117.9</ele>
        <time>2021-08-09T05:09:43Z</time>
      </trkpt>
      <trkpt lat="49.45222" lon="3.69781">
        <ele>117.9</ele>
        <time>2021-08-09T05:09:52Z</time>
      </trkpt>
      <trkpt lat="49.45203" lon="3.69775">
        <ele>117.42</ele>
        <time>2021-08-09T05:09:57Z</time>
      </trkpt>
      <trkpt lat="49.45174" lon="3.69769">
        <ele>117.42</ele>
        <time>2021-08-09T05:10:05Z</time>
      </trkpt>
      <trkpt lat="49.45139" lon="3.6976">
        <ele>117.9</ele>
        <time>2021-08-09T05:10:16Z</time>
      </trkpt>
      <trkpt lat="49.45107" lon="3.69749">
        <ele>117.9</ele>
        <time>2021-08-09T05:10:26Z</time>
      </trkpt>
      <trkpt lat="49.45104" lon="3.69747">
        <ele>118.38</ele>
        <time>2021-08-09T05:10:27Z</time>
      </trkpt>
      <trkpt lat="49.45101" lon="3.69747">
        <ele>118.38</ele>
        <time>2021-08-09T05:10:28Z</time>
      </trkpt>
      <trkpt lat="49.45097" lon="3.69747">
        <ele>118.38</ele>
        <time>2021-08-09T05:10:29Z</time>
      </trkpt>
      <trkpt lat="49.45067" lon="3.6974">
        <ele>118.38</ele>
        <time>2021-08-09T05:10:38Z</time>
      </trkpt>
      <trkpt lat="49.45035" lon="3.69732">
        <ele>118.86</ele>
        <time>2021-08-09T05:10:47Z</time>
      </trkpt>
      <trkpt lat="49.4501" lon="3.69721">
        <ele>120.3</ele>
        <time>2021-08-09T05:10:56Z</time>
      </trkpt>
      <trkpt lat="49.44999" lon="3.69709">
        <ele>121.26</ele>
        <time>2021-08-09T05:11:03Z</time>
      </trkpt>
      <trkpt lat="49.44993" lon="3.69698">
        <ele>122.22</ele>
        <time>2021-08-09T05:11:08Z</time>
      </trkpt>
      <trkpt lat="49.44991" lon="3.69695">
        <ele>122.22</ele>
        <time>2021-08-09T05:11:09Z</time>
      </trkpt>
      <trkpt lat="49.4499" lon="3.69692">
        <ele>122.22</ele>
        <time>2021-08-09T05:11:10Z</time>
      </trkpt>
      <trkpt lat="49.44988" lon="3.6969">
        <ele>122.71</ele>
        <time>2021-08-09T05:11:11Z</time>
      </trkpt>
      <trkpt lat="49.44986" lon="3.69689">
        <ele>122.71</ele>
        <time>2021-08-09T05:11:12Z</time>
      </trkpt>
      <trkpt lat="49.44984" lon="3.69688">
        <ele>122.71</ele>
        <time>2021-08-09T05:11:13Z</time>
      </trkpt>
      <trkpt lat="49.44982" lon="3.69688">
        <ele>122.71</ele>
        <time>2021-08-09T05:11:14Z</time>
      </trkpt>
      <trkpt lat="49.4498" lon="3.69688">
        <ele>123.19</ele>
        <time>2021-08-09T05:11:15Z</time>
      </trkpt>
      <trkpt lat="49.44978" lon="3.69689">
        <ele>123.19</ele>
        <time>2021-08-09T05:11:16Z</time>
      </trkpt>
      <trkpt lat="49.44975" lon="3.69691">
        <ele>123.67</ele>
        <time>2021-08-09T05:11:17Z</time>
      </trkpt>
      <trkpt lat="49.44973" lon="3.69692">
        <ele>123.67</ele>
        <time>2021-08-09T05:11:18Z</time>
      </trkpt>
      <trkpt lat="49.44949" lon="3.69717">
        <ele>124.63</ele>
        <time>2021-08-09T05:11:29Z</time>
      </trkpt>
      <trkpt lat="49.44931" lon="3.6972">
        <ele>125.11</ele>
        <time>2021-08-09T05:11:35Z</time>
      </trkpt>
      <trkpt lat="49.44912" lon="3.6971">
        <ele>125.59</ele>
        <time>2021-08-09T05:11:42Z</time>
      </trkpt>
      <trkpt lat="49.44883" lon="3.69705">
        <ele>126.07</ele>
        <time>2021-08-09T05:11:52Z</time>
      </trkpt>
      <trkpt lat="49.44856" lon="3.69711">
        <ele>126.07</ele>
        <time>2021-08-09T05:12:00Z</time>
      </trkpt>
      <trkpt lat="49.44827" lon="3.69721">
        <ele>126.07</ele>
        <time>2021-08-09T05:12:08Z</time>
      </trkpt>
      <trkpt lat="49.44822" lon="3.69723">
        <ele>126.07</ele>
        <time>2021-08-09T05:12:09Z</time>
      </trkpt>
      <trkpt lat="49.44801" lon="3.6973">
        <ele>126.55</ele>
        <time>2021-08-09T05:12:16Z</time>
      </trkpt>
      <trkpt lat="49.44771" lon="3.69739">
        <ele>127.99</ele>
        <time>2021-08-09T05:12:27Z</time>
      </trkpt>
      <trkpt lat="49.44743" lon="3.69756">
        <ele>128.47</ele>
        <time>2021-08-09T05:12:37Z</time>
      </trkpt>
      <trkpt lat="49.44718" lon="3.69774">
        <ele>128.95</ele>
        <time>2021-08-09T05:12:46Z</time>
      </trkpt>
      <trkpt lat="49.44695" lon="3.69793">
        <ele>130.4</ele>
        <time>2021-08-09T05:12:55Z</time>
      </trkpt>
      <trkpt lat="49.44672" lon="3.69812">
        <ele>131.36</ele>
        <time>2021-08-09T05:13:04Z</time>
      </trkpt>
      <trkpt lat="49.44655" lon="3.6983">
        <ele>132.32</ele>
        <time>2021-08-09T05:13:12Z</time>
      </trkpt>
      <trkpt lat="49.44639" lon="3.6985">
        <ele>133.28</ele>
        <time>2021-08-09T05:13:22Z</time>
      </trkpt>
      <trkpt lat="49.44626" lon="3.69865">
        <ele>135.2</ele>
        <time>2021-08-09T05:13:30Z</time>
      </trkpt>
      <trkpt lat="49.44613" lon="3.69881">
        <ele>136.16</ele>
        <time>2021-08-09T05:13:38Z</time>
      </trkpt>
      <trkpt lat="49.44601" lon="3.699">
        <ele>137.13</ele>
        <time>2021-08-09T05:13:47Z</time>
      </trkpt>
      <trkpt lat="49.44599" lon="3.69905">
        <ele>138.09</ele>
        <time>2021-08-09T05:13:50Z</time>
      </trkpt>
      <trkpt lat="49.44598" lon="3.69908">
        <ele>138.09</ele>
        <time>2021-08-09T05:13:51Z</time>
      </trkpt>
      <trkpt lat="49.44598" lon="3.6991">
        <ele>138.09</ele>
        <time>2021-08-09T05:13:52Z</time>
      </trkpt>
      <trkpt lat="49.4459" lon="3.69935">
        <ele>139.53</ele>
        <time>2021-08-09T05:14:02Z</time>
      </trkpt>
      <trkpt lat="49.44584" lon="3.69962">
        <ele>140.97</ele>
        <time>2021-08-09T05:14:11Z</time>
      </trkpt>
      <trkpt lat="49.4458" lon="3.69991">
        <ele>142.41</ele>
        <time>2021-08-09T05:14:21Z</time>
      </trkpt>
      <trkpt lat="49.44577" lon="3.70012">
        <ele>143.37</ele>
        <time>2021-08-09T05:14:28Z</time>
      </trkpt>
      <trkpt lat="49.44579" lon="3.70035">
        <ele>143.85</ele>
        <time>2021-08-09T05:14:37Z</time>
      </trkpt>
      <trkpt lat="49.4458" lon="3.70051">
        <ele>145.3</ele>
        <time>2021-08-09T05:14:43Z</time>
      </trkpt>
      <trkpt lat="49.44585" lon="3.70075">
        <ele>146.26</ele>
        <time>2021-08-09T05:14:51Z</time>
      </trkpt>
      <trkpt lat="49.44587" lon="3.7009">
        <ele>147.7</ele>
        <time>2021-08-09T05:14:56Z</time>
      </trkpt>
      <trkpt lat="49.44586" lon="3.70092">
        <ele>147.7</ele>
        <time>2021-08-09T05:14:57Z</time>
      </trkpt>
      <trkpt lat="49.44586" lon="3.70095">
        <ele>147.7</ele>
        <time>2021-08-09T05:14:58Z</time>
      </trkpt>
      <trkpt lat="49.44581" lon="3.70122">
        <ele>149.14</ele>
        <time>2021-08-09T05:15:07Z</time>
      </trkpt>
      <trkpt lat="49.44574" lon="3.70142">
        <ele>151.06</ele>
        <time>2021-08-09T05:15:15Z</time>
      </trkpt>
      <trkpt lat="49.44573" lon="3.70145">
        <ele>151.06</ele>
        <time>2021-08-09T05:15:16Z</time>
      </trkpt>
      <trkpt lat="49.44573" lon="3.70147">
        <ele>151.06</ele>
        <time>2021-08-09T05:15:17Z</time>
      </trkpt>
      <trkpt lat="49.4457" lon="3.70166">
        <ele>152.51</ele>
        <time>2021-08-09T05:15:26Z</time>
      </trkpt>
      <trkpt lat="49.44566" lon="3.70188">
        <ele>154.43</ele>
        <time>2021-08-09T05:15:36Z</time>
      </trkpt>
      <trkpt lat="49.44564" lon="3.70206">
        <ele>155.87</ele>
        <time>2021-08-09T05:15:44Z</time>
      </trkpt>
      <trkpt lat="49.44563" lon="3.70215">
        <ele>156.35</ele>
        <time>2021-08-09T05:15:48Z</time>
      </trkpt>
      <trkpt lat="49.4456" lon="3.70242">
        <ele>157.79</ele>
        <time>2021-08-09T05:15:58Z</time>
      </trkpt>
      <trkpt lat="49.44564" lon="3.70261">
        <ele>159.24</ele>
        <time>2021-08-09T05:16:06Z</time>
      </trkpt>
      <trkpt lat="49.44566" lon="3.70267">
        <ele>160.2</ele>
        <time>2021-08-09T05:16:09Z</time>
      </trkpt>
      <trkpt lat="49.44567" lon="3.70269">
        <ele>160.68</ele>
        <time>2021-08-09T05:16:10Z</time>
      </trkpt>
      <trkpt lat="49.44567" lon="3.70271">
        <ele>160.68</ele>
        <time>2021-08-09T05:16:11Z</time>
      </trkpt>
      <trkpt lat="49.44567" lon="3.70286">
        <ele>161.64</ele>
        <time>2021-08-09T05:16:18Z</time>
      </trkpt>
      <trkpt lat="49.44567" lon="3.70287">
        <ele>162.12</ele>
        <time>2021-08-09T05:16:19Z</time>
      </trkpt>
      <trkpt lat="49.44566" lon="3.70289">
        <ele>162.12</ele>
        <time>2021-08-09T05:16:20Z</time>
      </trkpt>
      <trkpt lat="49.44566" lon="3.70291">
        <ele>162.6</ele>
        <time>2021-08-09T05:16:21Z</time>
      </trkpt>
      <trkpt lat="49.44566" lon="3.70294">
        <ele>162.6</ele>
        <time>2021-08-09T05:16:22Z</time>
      </trkpt>
      <trkpt lat="49.44566" lon="3.70296">
        <ele>163.08</ele>
        <time>2021-08-09T05:16:23Z</time>
      </trkpt>
      <trkpt lat="49.44566" lon="3.70299">
        <ele>163.08</ele>
        <time>2021-08-09T05:16:24Z</time>
      </trkpt>
      <trkpt lat="49.44567" lon="3.70301">
        <ele>163.08</ele>
        <time>2021-08-09T05:16:25Z</time>
      </trkpt>
      <trkpt lat="49.44572" lon="3.70322">
        <ele>165.48</ele>
        <time>2021-08-09T05:16:33Z</time>
      </trkpt>
      <trkpt lat="49.44572" lon="3.70341">
        <ele>166.45</ele>
        <time>2021-08-09T05:16:41Z</time>
      </trkpt>
      <trkpt lat="49.44571" lon="3.70343">
        <ele>166.45</ele>
        <time>2021-08-09T05:16:42Z</time>
      </trkpt>
      <trkpt lat="49.44571" lon="3.70346">
        <ele>166.45</ele>
        <time>2021-08-09T05:16:43Z</time>
      </trkpt>
      <trkpt lat="49.44571" lon="3.70349">
        <ele>166.45</ele>
        <time>2021-08-09T05:16:44Z</time>
      </trkpt>
      <trkpt lat="49.4457" lon="3.70351">
        <ele>167.41</ele>
        <time>2021-08-09T05:16:45Z</time>
      </trkpt>
      <trkpt lat="49.4457" lon="3.70354">
        <ele>167.41</ele>
        <time>2021-08-09T05:16:46Z</time>
      </trkpt>
      <trkpt lat="49.44569" lon="3.70357">
        <ele>167.41</ele>
        <time>2021-08-09T05:16:47Z</time>
      </trkpt>
      <trkpt lat="49.44568" lon="3.70359">
        <ele>167.41</ele>
        <time>2021-08-09T05:16:48Z</time>
      </trkpt>
      <trkpt lat="49.44568" lon="3.70361">
        <ele>167.41</ele>
        <time>2021-08-09T05:16:49Z</time>
      </trkpt>
      <trkpt lat="49.44567" lon="3.70364">
        <ele>167.89</ele>
        <time>2021-08-09T05:16:50Z</time>
      </trkpt>
      <trkpt lat="49.44566" lon="3.70366">
        <ele>167.89</ele>
        <time>2021-08-09T05:16:51Z</time>
      </trkpt>
      <trkpt lat="49.44566" lon="3.70368">
        <ele>168.37</ele>
        <time>2021-08-09T05:16:52Z</time>
      </trkpt>
      <trkpt lat="49.44565" lon="3.7037">
        <ele>168.37</ele>
        <time>2021-08-09T05:16:53Z</time>
      </trkpt>
      <trkpt lat="49.4456" lon="3.70391">
        <ele>169.33</ele>
        <time>2021-08-09T05:17:01Z</time>
      </trkpt>
      <trkpt lat="49.44554" lon="3.70405">
        <ele>170.29</ele>
        <time>2021-08-09T05:17:07Z</time>
      </trkpt>
      <trkpt lat="49.44554" lon="3.7041">
        <ele>170.77</ele>
        <time>2021-08-09T05:17:09Z</time>
      </trkpt>
      <trkpt lat="49.44554" lon="3.70413">
        <ele>170.77</ele>
        <time>2021-08-09T05:17:10Z</time>
      </trkpt>
      <trkpt lat="49.44554" lon="3.70416">
        <ele>170.77</ele>
        <time>2021-08-09T05:17:11Z</time>
      </trkpt>
      <trkpt lat="49.44553" lon="3.70418">
        <ele>171.73</ele>
        <time>2021-08-09T05:17:12Z</time>
      </trkpt>
      <trkpt lat="49.44552" lon="3.70421">
        <ele>171.73</ele>
        <time>2021-08-09T05:17:13Z</time>
      </trkpt>
      <trkpt lat="49.44552" lon="3.70424">
        <ele>171.73</ele>
        <time>2021-08-09T05:17:14Z</time>
      </trkpt>
      <trkpt lat="49.44551" lon="3.70427">
        <ele>172.21</ele>
        <time>2021-08-09T05:17:15Z</time>
      </trkpt>
      <trkpt lat="49.44551" lon="3.7043">
        <ele>172.21</ele>
        <time>2021-08-09T05:17:16Z</time>
      </trkpt>
      <trkpt lat="49.4455" lon="3.70433">
        <ele>172.21</ele>
        <time>2021-08-09T05:17:17Z</time>
      </trkpt>
      <trkpt lat="49.44549" lon="3.70435">
        <ele>172.21</ele>
        <time>2021-08-09T05:17:18Z</time>
      </trkpt>
      <trkpt lat="49.44548" lon="3.70438">
        <ele>172.21</ele>
        <time>2021-08-09T05:17:19Z</time>
      </trkpt>
      <trkpt lat="49.44547" lon="3.7044">
        <ele>172.69</ele>
        <time>2021-08-09T05:17:20Z</time>
      </trkpt>
      <trkpt lat="49.44539" lon="3.70456">
        <ele>174.14</ele>
        <time>2021-08-09T05:17:28Z</time>
      </trkpt>
      <trkpt lat="49.44534" lon="3.70477">
        <ele>175.1</ele>
        <time>2021-08-09T05:17:36Z</time>
      </trkpt>
      <trkpt lat="49.44531" lon="3.70499">
        <ele>176.06</ele>
        <time>2021-08-09T05:17:44Z</time>
      </trkpt>
      <trkpt lat="49.4453" lon="3.7051">
        <ele>176.54</ele>
        <time>2021-08-09T05:17:48Z</time>
      </trkpt>
      <trkpt lat="49.44529" lon="3.70513">
        <ele>177.02</ele>
        <time>2021-08-09T05:17:49Z</time>
      </trkpt>
      <trkpt lat="49.44527" lon="3.70539">
        <ele>178.94</ele>
        <time>2021-08-09T05:17:59Z</time>
      </trkpt>
      <trkpt lat="49.44525" lon="3.70561">
        <ele>179.9</ele>
        <time>2021-08-09T05:18:06Z</time>
      </trkpt>
      <trkpt lat="49.44517" lon="3.70585">
        <ele>180.87</ele>
        <time>2021-08-09T05:18:15Z</time>
      </trkpt>
      <trkpt lat="49.44514" lon="3.70586">
        <ele>180.87</ele>
        <time>2021-08-09T05:18:16Z</time>
      </trkpt>
      <trkpt lat="49.44501" lon="3.70586">
        <ele>181.35</ele>
        <time>2021-08-09T05:18:22Z</time>
      </trkpt>
      <trkpt lat="49.44473" lon="3.70583">
        <ele>182.31</ele>
        <time>2021-08-09T05:18:33Z</time>
      </trkpt>
      <trkpt lat="49.44452" lon="3.7058">
        <ele>182.79</ele>
        <time>2021-08-09T05:18:41Z</time>
      </trkpt>
      <trkpt lat="49.4442" lon="3.70579">
        <ele>184.23</ele>
        <time>2021-08-09T05:18:53Z</time>
      </trkpt>
      <trkpt lat="49.44388" lon="3.7058">
        <ele>185.67</ele>
        <time>2021-08-09T05:19:05Z</time>
      </trkpt>
      <trkpt lat="49.44359" lon="3.70589">
        <ele>186.63</ele>
        <time>2021-08-09T05:19:16Z</time>
      </trkpt>
      <trkpt lat="49.44331" lon="3.70598">
        <ele>188.56</ele>
        <time>2021-08-09T05:19:27Z</time>
      </trkpt>
      <trkpt lat="49.44305" lon="3.70607">
        <ele>189.52</ele>
        <time>2021-08-09T05:19:37Z</time>
      </trkpt>
      <trkpt lat="49.44283" lon="3.70615">
        <ele>190.96</ele>
        <time>2021-08-09T05:19:46Z</time>
      </trkpt>
      <trkpt lat="49.44252" lon="3.70626">
        <ele>193.36</ele>
        <time>2021-08-09T05:19:58Z</time>
      </trkpt>
      <trkpt lat="49.44218" lon="3.70638">
        <ele>194.8</ele>
        <time>2021-08-09T05:20:11Z</time>
      </trkpt>
      <trkpt lat="49.44187" lon="3.70647">
        <ele>196.25</ele>
        <time>2021-08-09T05:20:22Z</time>
      </trkpt>
      <trkpt lat="49.44154" lon="3.70659">
        <ele>197.69</ele>
        <time>2021-08-09T05:20:33Z</time>
      </trkpt>
      <trkpt lat="49.44121" lon="3.70669">
        <ele>198.65</ele>
        <time>2021-08-09T05:20:44Z</time>
      </trkpt>
      <trkpt lat="49.44084" lon="3.7068">
        <ele>199.61</ele>
        <time>2021-08-09T05:20:56Z</time>
      </trkpt>
      <trkpt lat="49.4405" lon="3.70687">
        <ele>200.09</ele>
        <time>2021-08-09T05:21:06Z</time>
      </trkpt>
      <trkpt lat="49.4402" lon="3.70694">
        <ele>200.09</ele>
        <time>2021-08-09T05:21:14Z</time>
      </trkpt>
      <trkpt lat="49.43992" lon="3.70702">
        <ele>200.09</ele>
        <time>2021-08-09T05:21:21Z</time>
      </trkpt>
      <trkpt lat="49.43967" lon="3.70707">
        <ele>200.09</ele>
        <time>2021-08-09T05:21:27Z</time>
      </trkpt>
      <trkpt lat="49.43928" lon="3.70716">
        <ele>198.65</ele>
        <time>2021-08-09T05:21:36Z</time>
      </trkpt>
      <trkpt lat="49.43887" lon="3.70725">
        <ele>195.77</ele>
        <time>2021-08-09T05:21:43Z</time>
      </trkpt>
      <trkpt lat="49.43852" lon="3.70733">
        <ele>194.32</ele>
        <time>2021-08-09T05:21:48Z</time>
      </trkpt>
      <trkpt lat="49.43829" lon="3.70739">
        <ele>192.88</ele>
        <time>2021-08-09T05:21:51Z</time>
      </trkpt>
      <trkpt lat="49.43787" lon="3.70749">
        <ele>189.52</ele>
        <time>2021-08-09T05:21:56Z</time>
      </trkpt>
      <trkpt lat="49.43723" lon="3.70771">
        <ele>186.63</ele>
        <time>2021-08-09T05:22:03Z</time>
      </trkpt>
      <trkpt lat="49.43694" lon="3.70786">
        <ele>185.67</ele>
        <time>2021-08-09T05:22:07Z</time>
      </trkpt>
      <trkpt lat="49.43688" lon="3.70786">
        <ele>185.19</ele>
        <time>2021-08-09T05:22:08Z</time>
      </trkpt>
      <trkpt lat="49.43683" lon="3.70781">
        <ele>185.19</ele>
        <time>2021-08-09T05:22:09Z</time>
      </trkpt>
      <trkpt lat="49.43681" lon="3.70776">
        <ele>184.23</ele>
        <time>2021-08-09T05:22:10Z</time>
      </trkpt>
      <trkpt lat="49.43679" lon="3.70768">
        <ele>184.23</ele>
        <time>2021-08-09T05:22:11Z</time>
      </trkpt>
      <trkpt lat="49.43677" lon="3.7076">
        <ele>184.23</ele>
        <time>2021-08-09T05:22:12Z</time>
      </trkpt>
      <trkpt lat="49.43676" lon="3.70751">
        <ele>184.23</ele>
        <time>2021-08-09T05:22:13Z</time>
      </trkpt>
      <trkpt lat="49.43668" lon="3.70685">
        <ele>182.79</ele>
        <time>2021-08-09T05:22:20Z</time>
      </trkpt>
      <trkpt lat="49.43663" lon="3.70658">
        <ele>182.31</ele>
        <time>2021-08-09T05:22:23Z</time>
      </trkpt>
      <trkpt lat="49.4366" lon="3.7065">
        <ele>182.31</ele>
        <time>2021-08-09T05:22:24Z</time>
      </trkpt>
      <trkpt lat="49.43657" lon="3.70642">
        <ele>182.31</ele>
        <time>2021-08-09T05:22:25Z</time>
      </trkpt>
      <trkpt lat="49.43651" lon="3.70627">
        <ele>182.31</ele>
        <time>2021-08-09T05:22:27Z</time>
      </trkpt>
      <trkpt lat="49.43634" lon="3.70572">
        <ele>184.23</ele>
        <time>2021-08-09T05:22:35Z</time>
      </trkpt>
      <trkpt lat="49.43616" lon="3.70504">
        <ele>186.63</ele>
        <time>2021-08-09T05:22:46Z</time>
      </trkpt>
      <trkpt lat="49.43612" lon="3.70478">
        <ele>186.15</ele>
        <time>2021-08-09T05:22:50Z</time>
      </trkpt>
      <trkpt lat="49.43608" lon="3.70405">
        <ele>187.11</ele>
        <time>2021-08-09T05:23:00Z</time>
      </trkpt>
      <trkpt lat="49.43606" lon="3.70339">
        <ele>187.11</ele>
        <time>2021-08-09T05:23:09Z</time>
      </trkpt>
      <trkpt lat="49.43605" lon="3.70283">
        <ele>187.11</ele>
        <time>2021-08-09T05:23:16Z</time>
      </trkpt>
      <trkpt lat="49.43604" lon="3.70275">
        <ele>187.11</ele>
        <time>2021-08-09T05:23:17Z</time>
      </trkpt>
      <trkpt lat="49.43604" lon="3.70266">
        <ele>186.15</ele>
        <time>2021-08-09T05:23:18Z</time>
      </trkpt>
      <trkpt lat="49.43603" lon="3.70258">
        <ele>186.15</ele>
        <time>2021-08-09T05:23:19Z</time>
      </trkpt>
      <trkpt lat="49.436" lon="3.70186">
        <ele>187.59</ele>
        <time>2021-08-09T05:23:28Z</time>
      </trkpt>
      <trkpt lat="49.43599" lon="3.70135">
        <ele>188.56</ele>
        <time>2021-08-09T05:23:35Z</time>
      </trkpt>
      <trkpt lat="49.43596" lon="3.7006">
        <ele>189.04</ele>
        <time>2021-08-09T05:23:46Z</time>
      </trkpt>
      <trkpt lat="49.43595" lon="3.70027">
        <ele>189.04</ele>
        <time>2021-08-09T05:23:51Z</time>
      </trkpt>
      <trkpt lat="49.43594" lon="3.7002">
        <ele>189.04</ele>
        <time>2021-08-09T05:23:52Z</time>
      </trkpt>
      <trkpt lat="49.43594" lon="3.70014">
        <ele>189.04</ele>
        <time>2021-08-09T05:23:53Z</time>
      </trkpt>
      <trkpt lat="49.43594" lon="3.70007">
        <ele>189.04</ele>
        <time>2021-08-09T05:23:54Z</time>
      </trkpt>
      <trkpt lat="49.43594" lon="3.70001">
        <ele>189.04</ele>
        <time>2021-08-09T05:23:55Z</time>
      </trkpt>
      <trkpt lat="49.43593" lon="3.69994">
        <ele>189.04</ele>
        <time>2021-08-09T05:23:56Z</time>
      </trkpt>
      <trkpt lat="49.43591" lon="3.69935">
        <ele>190</ele>
        <time>2021-08-09T05:24:05Z</time>
      </trkpt>
      <trkpt lat="49.43587" lon="3.6986">
        <ele>190.96</ele>
        <time>2021-08-09T05:24:17Z</time>
      </trkpt>
      <trkpt lat="49.43585" lon="3.69855">
        <ele>190.96</ele>
        <time>2021-08-09T05:24:18Z</time>
      </trkpt>
      <trkpt lat="49.43582" lon="3.69853">
        <ele>190.96</ele>
        <time>2021-08-09T05:24:19Z</time>
      </trkpt>
      <trkpt lat="49.43578" lon="3.69853">
        <ele>190.96</ele>
        <time>2021-08-09T05:24:20Z</time>
      </trkpt>
      <trkpt lat="49.43574" lon="3.69853">
        <ele>190.96</ele>
        <time>2021-08-09T05:24:21Z</time>
      </trkpt>
      <trkpt lat="49.43569" lon="3.69853">
        <ele>190.96</ele>
        <time>2021-08-09T05:24:22Z</time>
      </trkpt>
      <trkpt lat="49.43564" lon="3.69854">
        <ele>189.04</ele>
        <time>2021-08-09T05:24:23Z</time>
      </trkpt>
      <trkpt lat="49.43559" lon="3.69854">
        <ele>189.04</ele>
        <time>2021-08-09T05:24:24Z</time>
      </trkpt>
      <trkpt lat="49.43522" lon="3.69856">
        <ele>186.15</ele>
        <time>2021-08-09T05:24:30Z</time>
      </trkpt>
      <trkpt lat="49.43471" lon="3.69857">
        <ele>182.31</ele>
        <time>2021-08-09T05:24:37Z</time>
      </trkpt>
      <trkpt lat="49.43439" lon="3.69856">
        <ele>179.9</ele>
        <time>2021-08-09T05:24:41Z</time>
      </trkpt>
      <trkpt lat="49.43397" lon="3.69857">
        <ele>176.54</ele>
        <time>2021-08-09T05:24:46Z</time>
      </trkpt>
      <trkpt lat="49.43381" lon="3.69856">
        <ele>175.1</ele>
        <time>2021-08-09T05:24:48Z</time>
      </trkpt>
      <trkpt lat="49.43375" lon="3.69852">
        <ele>175.1</ele>
        <time>2021-08-09T05:24:49Z</time>
      </trkpt>
      <trkpt lat="49.43371" lon="3.69846">
        <ele>175.1</ele>
        <time>2021-08-09T05:24:50Z</time>
      </trkpt>
      <trkpt lat="49.43368" lon="3.6984">
        <ele>175.1</ele>
        <time>2021-08-09T05:24:51Z</time>
      </trkpt>
      <trkpt lat="49.43366" lon="3.69835">
        <ele>175.1</ele>
        <time>2021-08-09T05:24:52Z</time>
      </trkpt>
      <trkpt lat="49.43364" lon="3.69828">
        <ele>175.1</ele>
        <time>2021-08-09T05:24:53Z</time>
      </trkpt>
      <trkpt lat="49.43362" lon="3.69821">
        <ele>175.58</ele>
        <time>2021-08-09T05:24:54Z</time>
      </trkpt>
      <trkpt lat="49.43361" lon="3.69815">
        <ele>175.58</ele>
        <time>2021-08-09T05:24:55Z</time>
      </trkpt>
      <trkpt lat="49.4336" lon="3.69807">
        <ele>175.58</ele>
        <time>2021-08-09T05:24:56Z</time>
      </trkpt>
      <trkpt lat="49.43349" lon="3.69755">
        <ele>177.02</ele>
        <time>2021-08-09T05:25:04Z</time>
      </trkpt>
      <trkpt lat="49.4334" lon="3.69705">
        <ele>178.46</ele>
        <time>2021-08-09T05:25:13Z</time>
      </trkpt>
      <trkpt lat="49.43334" lon="3.69673">
        <ele>178.46</ele>
        <time>2021-08-09T05:25:18Z</time>
      </trkpt>
      <trkpt lat="49.43333" lon="3.69661">
        <ele>177.02</ele>
        <time>2021-08-09T05:25:20Z</time>
      </trkpt>
      <trkpt lat="49.43331" lon="3.69655">
        <ele>177.02</ele>
        <time>2021-08-09T05:25:21Z</time>
      </trkpt>
      <trkpt lat="49.43331" lon="3.69648">
        <ele>177.02</ele>
        <time>2021-08-09T05:25:22Z</time>
      </trkpt>
      <trkpt lat="49.43331" lon="3.69642">
        <ele>177.02</ele>
        <time>2021-08-09T05:25:23Z</time>
      </trkpt>
      <trkpt lat="49.4333" lon="3.69635">
        <ele>177.02</ele>
        <time>2021-08-09T05:25:24Z</time>
      </trkpt>
      <trkpt lat="49.43319" lon="3.69581">
        <ele>177.02</ele>
        <time>2021-08-09T05:25:33Z</time>
      </trkpt>
      <trkpt lat="49.43307" lon="3.6953">
        <ele>176.54</ele>
        <time>2021-08-09T05:25:41Z</time>
      </trkpt>
      <trkpt lat="49.43297" lon="3.69492">
        <ele>177.98</ele>
        <time>2021-08-09T05:25:48Z</time>
      </trkpt>
      <trkpt lat="49.43284" lon="3.6944">
        <ele>177.98</ele>
        <time>2021-08-09T05:25:57Z</time>
      </trkpt>
      <trkpt lat="49.43272" lon="3.6938">
        <ele>177.98</ele>
        <time>2021-08-09T05:26:07Z</time>
      </trkpt>
      <trkpt lat="49.43266" lon="3.69357">
        <ele>177.98</ele>
        <time>2021-08-09T05:26:11Z</time>
      </trkpt>
      <trkpt lat="49.43265" lon="3.6935">
        <ele>177.98</ele>
        <time>2021-08-09T05:26:12Z</time>
      </trkpt>
      <trkpt lat="49.43263" lon="3.69344">
        <ele>177.98</ele>
        <time>2021-08-09T05:26:13Z</time>
      </trkpt>
      <trkpt lat="49.43253" lon="3.69296">
        <ele>176.54</ele>
        <time>2021-08-09T05:26:20Z</time>
      </trkpt>
      <trkpt lat="49.43247" lon="3.69272">
        <ele>176.54</ele>
        <time>2021-08-09T05:26:23Z</time>
      </trkpt>
      <trkpt lat="49.43225" lon="3.69224">
        <ele>174.14</ele>
        <time>2021-08-09T05:26:30Z</time>
      </trkpt>
      <trkpt lat="49.43202" lon="3.69174">
        <ele>170.29</ele>
        <time>2021-08-09T05:26:36Z</time>
      </trkpt>
      <trkpt lat="49.43199" lon="3.69166">
        <ele>170.29</ele>
        <time>2021-08-09T05:26:37Z</time>
      </trkpt>
      <trkpt lat="49.43182" lon="3.69116">
        <ele>167.41</ele>
        <time>2021-08-09T05:26:42Z</time>
      </trkpt>
      <trkpt lat="49.43178" lon="3.69106">
        <ele>165.48</ele>
        <time>2021-08-09T05:26:43Z</time>
      </trkpt>
      <trkpt lat="49.43173" lon="3.69095">
        <ele>165</ele>
        <time>2021-08-09T05:26:44Z</time>
      </trkpt>
      <trkpt lat="49.4315" lon="3.69035">
        <ele>161.64</ele>
        <time>2021-08-09T05:26:49Z</time>
      </trkpt>
      <trkpt lat="49.43134" lon="3.69001">
        <ele>159.24</ele>
        <time>2021-08-09T05:26:52Z</time>
      </trkpt>
      <trkpt lat="49.43112" lon="3.68963">
        <ele>154.91</ele>
        <time>2021-08-09T05:26:56Z</time>
      </trkpt>
      <trkpt lat="49.43106" lon="3.68954">
        <ele>153.95</ele>
        <time>2021-08-09T05:26:57Z</time>
      </trkpt>
      <trkpt lat="49.43085" lon="3.68931">
        <ele>150.58</ele>
        <time>2021-08-09T05:27:00Z</time>
      </trkpt>
      <trkpt lat="49.43064" lon="3.68905">
        <ele>147.7</ele>
        <time>2021-08-09T05:27:03Z</time>
      </trkpt>
      <trkpt lat="49.4305" lon="3.68891">
        <ele>145.78</ele>
        <time>2021-08-09T05:27:05Z</time>
      </trkpt>
      <trkpt lat="49.43039" lon="3.68876">
        <ele>143.85</ele>
        <time>2021-08-09T05:27:07Z</time>
      </trkpt>
      <trkpt lat="49.4302" lon="3.68852">
        <ele>142.41</ele>
        <time>2021-08-09T05:27:12Z</time>
      </trkpt>
      <trkpt lat="49.43017" lon="3.68852">
        <ele>142.41</ele>
        <time>2021-08-09T05:27:13Z</time>
      </trkpt>
      <trkpt lat="49.43015" lon="3.68852">
        <ele>141.93</ele>
        <time>2021-08-09T05:27:14Z</time>
      </trkpt>
      <trkpt lat="49.43013" lon="3.68851">
        <ele>141.45</ele>
        <time>2021-08-09T05:27:15Z</time>
      </trkpt>
      <trkpt lat="49.43011" lon="3.68849">
        <ele>140.97</ele>
        <time>2021-08-09T05:27:16Z</time>
      </trkpt>
      <trkpt lat="49.43012" lon="3.68845">
        <ele>141.45</ele>
        <time>2021-08-09T05:27:19Z</time>
      </trkpt>
      <trkpt lat="49.43012" lon="3.68843">
        <ele>141.45</ele>
        <time>2021-08-09T05:27:20Z</time>
      </trkpt>
      <trkpt lat="49.43012" lon="3.68839">
        <ele>141.45</ele>
        <time>2021-08-09T05:27:23Z</time>
      </trkpt>
      <trkpt lat="49.43011" lon="3.68838">
        <ele>141.45</ele>
        <time>2021-08-09T05:27:24Z</time>
      </trkpt>
      <trkpt lat="49.43009" lon="3.68835">
        <ele>141.45</ele>
        <time>2021-08-09T05:27:25Z</time>
      </trkpt>
      <trkpt lat="49.42991" lon="3.6882">
        <ele>140.97</ele>
        <time>2021-08-09T05:27:30Z</time>
      </trkpt>
      <trkpt lat="49.42963" lon="3.68797">
        <ele>139.05</ele>
        <time>2021-08-09T05:27:36Z</time>
      </trkpt>
      <trkpt lat="49.42953" lon="3.68787">
        <ele>139.05</ele>
        <time>2021-08-09T05:27:38Z</time>
      </trkpt>
      <trkpt lat="49.42948" lon="3.68782">
        <ele>138.57</ele>
        <time>2021-08-09T05:27:39Z</time>
      </trkpt>
      <trkpt lat="49.42899" lon="3.68734">
        <ele>136.16</ele>
        <time>2021-08-09T05:27:49Z</time>
      </trkpt>
      <trkpt lat="49.42849" lon="3.68701">
        <ele>134.72</ele>
        <time>2021-08-09T05:27:58Z</time>
      </trkpt>
      <trkpt lat="49.42802" lon="3.68689">
        <ele>132.8</ele>
        <time>2021-08-09T05:28:06Z</time>
      </trkpt>
      <trkpt lat="49.42753" lon="3.68675">
        <ele>131.36</ele>
        <time>2021-08-09T05:28:15Z</time>
      </trkpt>
      <trkpt lat="49.42711" lon="3.68643">
        <ele>130.4</ele>
        <time>2021-08-09T05:28:23Z</time>
      </trkpt>
      <trkpt lat="49.42672" lon="3.6861">
        <ele>130.4</ele>
        <time>2021-08-09T05:28:31Z</time>
      </trkpt>
      <trkpt lat="49.42668" lon="3.68606">
        <ele>130.4</ele>
        <time>2021-08-09T05:28:32Z</time>
      </trkpt>
      <trkpt lat="49.4263" lon="3.68576">
        <ele>129.43</ele>
        <time>2021-08-09T05:28:40Z</time>
      </trkpt>
      <trkpt lat="49.4262" lon="3.6857">
        <ele>127.99</ele>
        <time>2021-08-09T05:28:42Z</time>
      </trkpt>
      <trkpt lat="49.42615" lon="3.68566">
        <ele>127.99</ele>
        <time>2021-08-09T05:28:43Z</time>
      </trkpt>
      <trkpt lat="49.42603" lon="3.68557">
        <ele>126.07</ele>
        <time>2021-08-09T05:28:45Z</time>
      </trkpt>
      <trkpt lat="49.42562" lon="3.68519">
        <ele>122.71</ele>
        <time>2021-08-09T05:28:52Z</time>
      </trkpt>
      <trkpt lat="49.42525" lon="3.68499">
        <ele>120.3</ele>
        <time>2021-08-09T05:28:57Z</time>
      </trkpt>
      <trkpt lat="49.42504" lon="3.68488">
        <ele>117.9</ele>
        <time>2021-08-09T05:29:00Z</time>
      </trkpt>
      <trkpt lat="49.42497" lon="3.68486">
        <ele>117.42</ele>
        <time>2021-08-09T05:29:01Z</time>
      </trkpt>
      <trkpt lat="49.42489" lon="3.68486">
        <ele>116.46</ele>
        <time>2021-08-09T05:29:02Z</time>
      </trkpt>
      <trkpt lat="49.42482" lon="3.68486">
        <ele>115.98</ele>
        <time>2021-08-09T05:29:03Z</time>
      </trkpt>
      <trkpt lat="49.42474" lon="3.68487">
        <ele>115.5</ele>
        <time>2021-08-09T05:29:04Z</time>
      </trkpt>
      <trkpt lat="49.42451" lon="3.68487">
        <ele>114.05</ele>
        <time>2021-08-09T05:29:07Z</time>
      </trkpt>
      <trkpt lat="49.42419" lon="3.68478">
        <ele>110.21</ele>
        <time>2021-08-09T05:29:11Z</time>
      </trkpt>
      <trkpt lat="49.42372" lon="3.68443">
        <ele>106.84</ele>
        <time>2021-08-09T05:29:17Z</time>
      </trkpt>
      <trkpt lat="49.42335" lon="3.68415">
        <ele>103.48</ele>
        <time>2021-08-09T05:29:23Z</time>
      </trkpt>
      <trkpt lat="49.42329" lon="3.68406">
        <ele>102.52</ele>
        <time>2021-08-09T05:29:26Z</time>
      </trkpt>
      <trkpt lat="49.42329" lon="3.68403">
        <ele>103</ele>
        <time>2021-08-09T05:29:30Z</time>
      </trkpt>
      <trkpt lat="49.4233" lon="3.68403">
        <ele>102.04</ele>
        <time>2021-08-09T05:29:39Z</time>
      </trkpt>
      <trkpt lat="49.4233" lon="3.68402">
        <ele>102.52</ele>
        <time>2021-08-09T05:29:56Z</time>
      </trkpt>
      <trkpt lat="49.42331" lon="3.68403">
        <ele>102.52</ele>
        <time>2021-08-09T05:30:11Z</time>
      </trkpt>
      <trkpt lat="49.4233" lon="3.68403">
        <ele>102.04</ele>
        <time>2021-08-09T05:30:26Z</time>
      </trkpt>
      <trkpt lat="49.42329" lon="3.68403">
        <ele>102.04</ele>
        <time>2021-08-09T05:30:28Z</time>
      </trkpt>
      <trkpt lat="49.42328" lon="3.68403">
        <ele>102.04</ele>
        <time>2021-08-09T05:30:29Z</time>
      </trkpt>
      <trkpt lat="49.42312" lon="3.68402">
        <ele>100.6</ele>
        <time>2021-08-09T05:30:35Z</time>
      </trkpt>
      <trkpt lat="49.42283" lon="3.68409">
        <ele>100.11</ele>
        <time>2021-08-09T05:30:41Z</time>
      </trkpt>
      <trkpt lat="49.42264" lon="3.68423">
        <ele>99.63</ele>
        <time>2021-08-09T05:30:45Z</time>
      </trkpt>
      <trkpt lat="49.4226" lon="3.68427">
        <ele>99.63</ele>
        <time>2021-08-09T05:30:46Z</time>
      </trkpt>
      <trkpt lat="49.42226" lon="3.68469">
        <ele>97.71</ele>
        <time>2021-08-09T05:30:54Z</time>
      </trkpt>
      <trkpt lat="49.42185" lon="3.68504">
        <ele>95.31</ele>
        <time>2021-08-09T05:31:01Z</time>
      </trkpt>
      <trkpt lat="49.42148" lon="3.68531">
        <ele>92.42</ele>
        <time>2021-08-09T05:31:06Z</time>
      </trkpt>
      <trkpt lat="49.42111" lon="3.68557">
        <ele>90.02</ele>
        <time>2021-08-09T05:31:12Z</time>
      </trkpt>
      <trkpt lat="49.42108" lon="3.68562">
        <ele>90.02</ele>
        <time>2021-08-09T05:31:13Z</time>
      </trkpt>
      <trkpt lat="49.42106" lon="3.68567">
        <ele>90.02</ele>
        <time>2021-08-09T05:31:14Z</time>
      </trkpt>
      <trkpt lat="49.42105" lon="3.68572">
        <ele>90.02</ele>
        <time>2021-08-09T05:31:15Z</time>
      </trkpt>
      <trkpt lat="49.42106" lon="3.68577">
        <ele>90.02</ele>
        <time>2021-08-09T05:31:16Z</time>
      </trkpt>
      <trkpt lat="49.42108" lon="3.68582">
        <ele>90.02</ele>
        <time>2021-08-09T05:31:17Z</time>
      </trkpt>
      <trkpt lat="49.42109" lon="3.68586">
        <ele>90.02</ele>
        <time>2021-08-09T05:31:18Z</time>
      </trkpt>
      <trkpt lat="49.42111" lon="3.68589">
        <ele>90.02</ele>
        <time>2021-08-09T05:31:19Z</time>
      </trkpt>
      <trkpt lat="49.42135" lon="3.68636">
        <ele>92.9</ele>
        <time>2021-08-09T05:31:30Z</time>
      </trkpt>
      <trkpt lat="49.4216" lon="3.68684">
        <ele>93.87</ele>
        <time>2021-08-09T05:31:40Z</time>
      </trkpt>
      <trkpt lat="49.42184" lon="3.68727">
        <ele>93.87</ele>
        <time>2021-08-09T05:31:48Z</time>
      </trkpt>
      <trkpt lat="49.42195" lon="3.68744">
        <ele>92.42</ele>
        <time>2021-08-09T05:31:51Z</time>
      </trkpt>
      <trkpt lat="49.42206" lon="3.68758">
        <ele>91.94</ele>
        <time>2021-08-09T05:31:54Z</time>
      </trkpt>
      <trkpt lat="49.42217" lon="3.68767">
        <ele>91.46</ele>
        <time>2021-08-09T05:31:58Z</time>
      </trkpt>
      <trkpt lat="49.42222" lon="3.68768">
        <ele>91.46</ele>
        <time>2021-08-09T05:32:05Z</time>
      </trkpt>
      <trkpt lat="49.42244" lon="3.68777">
        <ele>91.46</ele>
        <time>2021-08-09T05:32:12Z</time>
      </trkpt>
      <trkpt lat="49.42268" lon="3.68787">
        <ele>91.46</ele>
        <time>2021-08-09T05:32:20Z</time>
      </trkpt>
      <trkpt lat="49.42288" lon="3.68785">
        <ele>91.46</ele>
        <time>2021-08-09T05:32:26Z</time>
      </trkpt>
      <trkpt lat="49.42304" lon="3.68788">
        <ele>91.46</ele>
        <time>2021-08-09T05:32:31Z</time>
      </trkpt>
      <trkpt lat="49.4231" lon="3.68788">
        <ele>92.9</ele>
        <time>2021-08-09T05:32:33Z</time>
      </trkpt>
      <trkpt lat="49.42337" lon="3.68795">
        <ele>92.9</ele>
        <time>2021-08-09T05:32:41Z</time>
      </trkpt>
      <trkpt lat="49.42373" lon="3.68815">
        <ele>93.87</ele>
        <time>2021-08-09T05:32:52Z</time>
      </trkpt>
      <trkpt lat="49.42406" lon="3.68851">
        <ele>94.35</ele>
        <time>2021-08-09T05:33:03Z</time>
      </trkpt>
      <trkpt lat="49.42436" lon="3.68884">
        <ele>94.83</ele>
        <time>2021-08-09T05:33:13Z</time>
      </trkpt>
      <trkpt lat="49.42466" lon="3.68916">
        <ele>95.31</ele>
        <time>2021-08-09T05:33:23Z</time>
      </trkpt>
      <trkpt lat="49.42488" lon="3.68933">
        <ele>95.79</ele>
        <time>2021-08-09T05:33:30Z</time>
      </trkpt>
      <trkpt lat="49.42512" lon="3.68954">
        <ele>96.75</ele>
        <time>2021-08-09T05:33:39Z</time>
      </trkpt>
      <trkpt lat="49.42529" lon="3.68968">
        <ele>97.23</ele>
        <time>2021-08-09T05:33:46Z</time>
      </trkpt>
      <trkpt lat="49.42555" lon="3.68988">
        <ele>97.71</ele>
        <time>2021-08-09T05:33:56Z</time>
      </trkpt>
      <trkpt lat="49.42584" lon="3.6901">
        <ele>98.67</ele>
        <time>2021-08-09T05:34:07Z</time>
      </trkpt>
      <trkpt lat="49.42614" lon="3.69025">
        <ele>98.67</ele>
        <time>2021-08-09T05:34:16Z</time>
      </trkpt>
      <trkpt lat="49.42649" lon="3.69034">
        <ele>98.67</ele>
        <time>2021-08-09T05:34:25Z</time>
      </trkpt>
      <trkpt lat="49.42661" lon="3.69046">
        <ele>98.67</ele>
        <time>2021-08-09T05:34:30Z</time>
      </trkpt>
      <trkpt lat="49.4266" lon="3.69052">
        <ele>97.23</ele>
        <time>2021-08-09T05:34:31Z</time>
      </trkpt>
      <trkpt lat="49.42658" lon="3.69056">
        <ele>97.23</ele>
        <time>2021-08-09T05:34:32Z</time>
      </trkpt>
      <trkpt lat="49.42648" lon="3.6907">
        <ele>96.27</ele>
        <time>2021-08-09T05:34:35Z</time>
      </trkpt>
      <trkpt lat="49.42645" lon="3.69075">
        <ele>96.27</ele>
        <time>2021-08-09T05:34:36Z</time>
      </trkpt>
      <trkpt lat="49.42623" lon="3.69115">
        <ele>95.79</ele>
        <time>2021-08-09T05:34:43Z</time>
      </trkpt>
      <trkpt lat="49.42619" lon="3.6912">
        <ele>95.31</ele>
        <time>2021-08-09T05:34:44Z</time>
      </trkpt>
      <trkpt lat="49.42585" lon="3.69162">
        <ele>92.42</ele>
        <time>2021-08-09T05:34:51Z</time>
      </trkpt>
      <trkpt lat="49.42557" lon="3.69212">
        <ele>91.94</ele>
        <time>2021-08-09T05:34:58Z</time>
      </trkpt>
      <trkpt lat="49.42548" lon="3.69233">
        <ele>94.35</ele>
        <time>2021-08-09T05:35:03Z</time>
      </trkpt>
      <trkpt lat="49.42542" lon="3.69247">
        <ele>96.27</ele>
        <time>2021-08-09T05:35:10Z</time>
      </trkpt>
      <trkpt lat="49.42531" lon="3.69256">
        <ele>97.71</ele>
        <time>2021-08-09T05:35:17Z</time>
      </trkpt>
      <trkpt lat="49.4252" lon="3.69264">
        <ele>98.67</ele>
        <time>2021-08-09T05:35:24Z</time>
      </trkpt>
      <trkpt lat="49.42504" lon="3.69275">
        <ele>99.15</ele>
        <time>2021-08-09T05:35:33Z</time>
      </trkpt>
      <trkpt lat="49.42486" lon="3.69293">
        <ele>99.15</ele>
        <time>2021-08-09T05:35:41Z</time>
      </trkpt>
      <trkpt lat="49.42466" lon="3.69314">
        <ele>99.15</ele>
        <time>2021-08-09T05:35:48Z</time>
      </trkpt>
      <trkpt lat="49.42455" lon="3.69324">
        <ele>98.19</ele>
        <time>2021-08-09T05:35:51Z</time>
      </trkpt>
      <trkpt lat="49.42451" lon="3.69328">
        <ele>98.19</ele>
        <time>2021-08-09T05:35:52Z</time>
      </trkpt>
      <trkpt lat="49.42448" lon="3.69332">
        <ele>98.19</ele>
        <time>2021-08-09T05:35:53Z</time>
      </trkpt>
      <trkpt lat="49.42444" lon="3.69335">
        <ele>97.71</ele>
        <time>2021-08-09T05:35:54Z</time>
      </trkpt>
      <trkpt lat="49.4244" lon="3.69339">
        <ele>97.71</ele>
        <time>2021-08-09T05:35:55Z</time>
      </trkpt>
      <trkpt lat="49.42436" lon="3.69342">
        <ele>97.71</ele>
        <time>2021-08-09T05:35:56Z</time>
      </trkpt>
      <trkpt lat="49.42407" lon="3.69374">
        <ele>97.23</ele>
        <time>2021-08-09T05:36:05Z</time>
      </trkpt>
      <trkpt lat="49.4239" lon="3.69393">
        <ele>96.75</ele>
        <time>2021-08-09T05:36:10Z</time>
      </trkpt>
      <trkpt lat="49.42386" lon="3.69397">
        <ele>96.27</ele>
        <time>2021-08-09T05:36:11Z</time>
      </trkpt>
      <trkpt lat="49.42348" lon="3.6943">
        <ele>95.79</ele>
        <time>2021-08-09T05:36:20Z</time>
      </trkpt>
      <trkpt lat="49.42343" lon="3.69433">
        <ele>95.79</ele>
        <time>2021-08-09T05:36:21Z</time>
      </trkpt>
      <trkpt lat="49.42304" lon="3.69457">
        <ele>95.79</ele>
        <time>2021-08-09T05:36:30Z</time>
      </trkpt>
      <trkpt lat="49.42287" lon="3.69468">
        <ele>95.79</ele>
        <time>2021-08-09T05:36:34Z</time>
      </trkpt>
      <trkpt lat="49.42283" lon="3.69472">
        <ele>95.79</ele>
        <time>2021-08-09T05:36:35Z</time>
      </trkpt>
      <trkpt lat="49.42252" lon="3.69519">
        <ele>95.79</ele>
        <time>2021-08-09T05:36:44Z</time>
      </trkpt>
      <trkpt lat="49.42248" lon="3.69523">
        <ele>95.79</ele>
        <time>2021-08-09T05:36:45Z</time>
      </trkpt>
      <trkpt lat="49.42244" lon="3.69527">
        <ele>95.79</ele>
        <time>2021-08-09T05:36:46Z</time>
      </trkpt>
      <trkpt lat="49.4224" lon="3.6953">
        <ele>95.79</ele>
        <time>2021-08-09T05:36:47Z</time>
      </trkpt>
      <trkpt lat="49.42236" lon="3.69532">
        <ele>95.79</ele>
        <time>2021-08-09T05:36:48Z</time>
      </trkpt>
      <trkpt lat="49.42231" lon="3.69534">
        <ele>95.79</ele>
        <time>2021-08-09T05:36:49Z</time>
      </trkpt>
      <trkpt lat="49.42227" lon="3.69536">
        <ele>95.79</ele>
        <time>2021-08-09T05:36:50Z</time>
      </trkpt>
      <trkpt lat="49.4222" lon="3.6954">
        <ele>95.79</ele>
        <time>2021-08-09T05:36:52Z</time>
      </trkpt>
      <trkpt lat="49.42217" lon="3.69544">
        <ele>95.79</ele>
        <time>2021-08-09T05:36:53Z</time>
      </trkpt>
      <trkpt lat="49.42217" lon="3.69548">
        <ele>95.79</ele>
        <time>2021-08-09T05:36:54Z</time>
      </trkpt>
      <trkpt lat="49.42217" lon="3.69554">
        <ele>95.79</ele>
        <time>2021-08-09T05:36:55Z</time>
      </trkpt>
      <trkpt lat="49.42218" lon="3.69559">
        <ele>95.79</ele>
        <time>2021-08-09T05:36:56Z</time>
      </trkpt>
      <trkpt lat="49.42218" lon="3.69565">
        <ele>95.79</ele>
        <time>2021-08-09T05:36:57Z</time>
      </trkpt>
      <trkpt lat="49.42219" lon="3.6957">
        <ele>97.23</ele>
        <time>2021-08-09T05:36:58Z</time>
      </trkpt>
      <trkpt lat="49.42221" lon="3.69575">
        <ele>97.23</ele>
        <time>2021-08-09T05:36:59Z</time>
      </trkpt>
      <trkpt lat="49.42238" lon="3.69628">
        <ele>98.19</ele>
        <time>2021-08-09T05:37:09Z</time>
      </trkpt>
      <trkpt lat="49.42256" lon="3.69663">
        <ele>98.67</ele>
        <time>2021-08-09T05:37:17Z</time>
      </trkpt>
      <trkpt lat="49.4227" lon="3.6969">
        <ele>99.63</ele>
        <time>2021-08-09T05:37:24Z</time>
      </trkpt>
      <trkpt lat="49.42269" lon="3.69699">
        <ele>99.63</ele>
        <time>2021-08-09T05:37:26Z</time>
      </trkpt>
      <trkpt lat="49.42267" lon="3.69702">
        <ele>99.63</ele>
        <time>2021-08-09T05:37:27Z</time>
      </trkpt>
      <trkpt lat="49.42265" lon="3.69705">
        <ele>99.63</ele>
        <time>2021-08-09T05:37:28Z</time>
      </trkpt>
      <trkpt lat="49.42262" lon="3.69708">
        <ele>99.63</ele>
        <time>2021-08-09T05:37:29Z</time>
      </trkpt>
      <trkpt lat="49.42259" lon="3.6971">
        <ele>99.63</ele>
        <time>2021-08-09T05:37:30Z</time>
      </trkpt>
      <trkpt lat="49.42255" lon="3.69712">
        <ele>99.63</ele>
        <time>2021-08-09T05:37:31Z</time>
      </trkpt>
      <trkpt lat="49.42251" lon="3.69714">
        <ele>99.63</ele>
        <time>2021-08-09T05:37:32Z</time>
      </trkpt>
      <trkpt lat="49.42247" lon="3.69716">
        <ele>99.63</ele>
        <time>2021-08-09T05:37:33Z</time>
      </trkpt>
      <trkpt lat="49.42243" lon="3.69719">
        <ele>99.63</ele>
        <time>2021-08-09T05:37:34Z</time>
      </trkpt>
      <trkpt lat="49.4224" lon="3.69721">
        <ele>99.63</ele>
        <time>2021-08-09T05:37:35Z</time>
      </trkpt>
      <trkpt lat="49.42228" lon="3.69734">
        <ele>99.63</ele>
        <time>2021-08-09T05:37:39Z</time>
      </trkpt>
      <trkpt lat="49.42227" lon="3.69739">
        <ele>99.63</ele>
        <time>2021-08-09T05:37:40Z</time>
      </trkpt>
      <trkpt lat="49.42227" lon="3.69744">
        <ele>100.11</ele>
        <time>2021-08-09T05:37:41Z</time>
      </trkpt>
      <trkpt lat="49.42227" lon="3.69749">
        <ele>100.11</ele>
        <time>2021-08-09T05:37:42Z</time>
      </trkpt>
      <trkpt lat="49.42228" lon="3.69753">
        <ele>100.11</ele>
        <time>2021-08-09T05:37:43Z</time>
      </trkpt>
      <trkpt lat="49.42232" lon="3.6978">
        <ele>101.08</ele>
        <time>2021-08-09T05:37:50Z</time>
      </trkpt>
      <trkpt lat="49.42234" lon="3.6981">
        <ele>103</ele>
        <time>2021-08-09T05:38:00Z</time>
      </trkpt>
      <trkpt lat="49.42238" lon="3.6985">
        <ele>104.92</ele>
        <time>2021-08-09T05:38:14Z</time>
      </trkpt>
      <trkpt lat="49.42243" lon="3.69889">
        <ele>105.4</ele>
        <time>2021-08-09T05:38:23Z</time>
      </trkpt>
      <trkpt lat="49.42249" lon="3.69938">
        <ele>105.88</ele>
        <time>2021-08-09T05:38:34Z</time>
      </trkpt>
      <trkpt lat="49.42257" lon="3.69994">
        <ele>106.84</ele>
        <time>2021-08-09T05:38:46Z</time>
      </trkpt>
      <trkpt lat="49.42268" lon="3.70038">
        <ele>107.32</ele>
        <time>2021-08-09T05:38:56Z</time>
      </trkpt>
      <trkpt lat="49.42282" lon="3.70073">
        <ele>108.77</ele>
        <time>2021-08-09T05:39:06Z</time>
      </trkpt>
      <trkpt lat="49.42295" lon="3.70108">
        <ele>110.21</ele>
        <time>2021-08-09T05:39:17Z</time>
      </trkpt>
      <trkpt lat="49.42303" lon="3.70137">
        <ele>112.61</ele>
        <time>2021-08-09T05:39:27Z</time>
      </trkpt>
      <trkpt lat="49.42306" lon="3.70156">
        <ele>114.05</ele>
        <time>2021-08-09T05:39:33Z</time>
      </trkpt>
      <trkpt lat="49.42307" lon="3.70159">
        <ele>114.05</ele>
        <time>2021-08-09T05:39:34Z</time>
      </trkpt>
      <trkpt lat="49.42307" lon="3.70162">
        <ele>114.53</ele>
        <time>2021-08-09T05:39:35Z</time>
      </trkpt>
      <trkpt lat="49.42307" lon="3.70165">
        <ele>114.53</ele>
        <time>2021-08-09T05:39:36Z</time>
      </trkpt>
      <trkpt lat="49.42307" lon="3.70168">
        <ele>114.53</ele>
        <time>2021-08-09T05:39:37Z</time>
      </trkpt>
      <trkpt lat="49.42308" lon="3.70171">
        <ele>114.53</ele>
        <time>2021-08-09T05:39:38Z</time>
      </trkpt>
      <trkpt lat="49.42308" lon="3.70173">
        <ele>114.53</ele>
        <time>2021-08-09T05:39:39Z</time>
      </trkpt>
      <trkpt lat="49.42308" lon="3.70176">
        <ele>115.01</ele>
        <time>2021-08-09T05:39:40Z</time>
      </trkpt>
      <trkpt lat="49.42308" lon="3.70179">
        <ele>115.01</ele>
        <time>2021-08-09T05:39:41Z</time>
      </trkpt>
      <trkpt lat="49.42308" lon="3.70182">
        <ele>115.01</ele>
        <time>2021-08-09T05:39:42Z</time>
      </trkpt>
      <trkpt lat="49.42309" lon="3.70206">
        <ele>115.98</ele>
        <time>2021-08-09T05:39:50Z</time>
      </trkpt>
      <trkpt lat="49.42308" lon="3.70235">
        <ele>116.94</ele>
        <time>2021-08-09T05:39:59Z</time>
      </trkpt>
      <trkpt lat="49.42306" lon="3.70271">
        <ele>116.94</ele>
        <time>2021-08-09T05:40:09Z</time>
      </trkpt>
      <trkpt lat="49.42307" lon="3.70312">
        <ele>117.42</ele>
        <time>2021-08-09T05:40:18Z</time>
      </trkpt>
      <trkpt lat="49.42306" lon="3.70363">
        <ele>117.9</ele>
        <time>2021-08-09T05:40:29Z</time>
      </trkpt>
      <trkpt lat="49.42304" lon="3.70398">
        <ele>118.38</ele>
        <time>2021-08-09T05:40:38Z</time>
      </trkpt>
      <trkpt lat="49.42301" lon="3.70433">
        <ele>119.34</ele>
        <time>2021-08-09T05:40:49Z</time>
      </trkpt>
      <trkpt lat="49.42297" lon="3.70453">
        <ele>120.78</ele>
        <time>2021-08-09T05:40:57Z</time>
      </trkpt>
      <trkpt lat="49.42294" lon="3.70456">
        <ele>121.26</ele>
        <time>2021-08-09T05:40:59Z</time>
      </trkpt>
      <trkpt lat="49.42293" lon="3.70457">
        <ele>121.26</ele>
        <time>2021-08-09T05:41:00Z</time>
      </trkpt>
      <trkpt lat="49.42292" lon="3.70457">
        <ele>121.26</ele>
        <time>2021-08-09T05:41:01Z</time>
      </trkpt>
      <trkpt lat="49.42291" lon="3.70458">
        <ele>121.26</ele>
        <time>2021-08-09T05:41:02Z</time>
      </trkpt>
      <trkpt lat="49.4229" lon="3.70459">
        <ele>121.74</ele>
        <time>2021-08-09T05:41:03Z</time>
      </trkpt>
      <trkpt lat="49.42288" lon="3.70459">
        <ele>121.74</ele>
        <time>2021-08-09T05:41:04Z</time>
      </trkpt>
      <trkpt lat="49.42287" lon="3.70459">
        <ele>121.74</ele>
        <time>2021-08-09T05:41:05Z</time>
      </trkpt>
      <trkpt lat="49.42285" lon="3.70459">
        <ele>121.74</ele>
        <time>2021-08-09T05:41:06Z</time>
      </trkpt>
      <trkpt lat="49.42278" lon="3.70459">
        <ele>122.22</ele>
        <time>2021-08-09T05:41:11Z</time>
      </trkpt>
      <trkpt lat="49.42277" lon="3.7046">
        <ele>122.22</ele>
        <time>2021-08-09T05:41:12Z</time>
      </trkpt>
      <trkpt lat="49.42275" lon="3.7046">
        <ele>122.22</ele>
        <time>2021-08-09T05:41:13Z</time>
      </trkpt>
      <trkpt lat="49.42274" lon="3.70461">
        <ele>122.22</ele>
        <time>2021-08-09T05:41:14Z</time>
      </trkpt>
      <trkpt lat="49.42272" lon="3.70461">
        <ele>122.71</ele>
        <time>2021-08-09T05:41:15Z</time>
      </trkpt>
      <trkpt lat="49.42271" lon="3.70461">
        <ele>123.19</ele>
        <time>2021-08-09T05:41:16Z</time>
      </trkpt>
      <trkpt lat="49.4227" lon="3.70461">
        <ele>123.19</ele>
        <time>2021-08-09T05:41:17Z</time>
      </trkpt>
      <trkpt lat="49.42268" lon="3.70461">
        <ele>123.19</ele>
        <time>2021-08-09T05:41:18Z</time>
      </trkpt>
      <trkpt lat="49.42267" lon="3.70461">
        <ele>123.67</ele>
        <time>2021-08-09T05:41:19Z</time>
      </trkpt>
      <trkpt lat="49.42265" lon="3.70461">
        <ele>123.67</ele>
        <time>2021-08-09T05:41:20Z</time>
      </trkpt>
      <trkpt lat="49.42252" lon="3.70461">
        <ele>125.11</ele>
        <time>2021-08-09T05:41:30Z</time>
      </trkpt>
      <trkpt lat="49.42242" lon="3.70463">
        <ele>126.55</ele>
        <time>2021-08-09T05:41:38Z</time>
      </trkpt>
      <trkpt lat="49.42241" lon="3.70463">
        <ele>127.51</ele>
        <time>2021-08-09T05:41:39Z</time>
      </trkpt>
      <trkpt lat="49.42228" lon="3.70464">
        <ele>129.92</ele>
        <time>2021-08-09T05:41:49Z</time>
      </trkpt>
      <trkpt lat="49.42225" lon="3.70462">
        <ele>130.4</ele>
        <time>2021-08-09T05:41:51Z</time>
      </trkpt>
      <trkpt lat="49.42224" lon="3.70461">
        <ele>130.88</ele>
        <time>2021-08-09T05:41:52Z</time>
      </trkpt>
      <trkpt lat="49.42222" lon="3.7046">
        <ele>131.36</ele>
        <time>2021-08-09T05:41:54Z</time>
      </trkpt>
      <trkpt lat="49.42218" lon="3.70459">
        <ele>131.84</ele>
        <time>2021-08-09T05:41:59Z</time>
      </trkpt>
      <trkpt lat="49.4221" lon="3.70461">
        <ele>133.76</ele>
        <time>2021-08-09T05:42:08Z</time>
      </trkpt>
      <trkpt lat="49.42208" lon="3.70464">
        <ele>134.24</ele>
        <time>2021-08-09T05:42:11Z</time>
      </trkpt>
      <trkpt lat="49.42207" lon="3.70465">
        <ele>134.24</ele>
        <time>2021-08-09T05:42:12Z</time>
      </trkpt>
      <trkpt lat="49.42206" lon="3.70471">
        <ele>135.2</ele>
        <time>2021-08-09T05:42:17Z</time>
      </trkpt>
      <trkpt lat="49.42206" lon="3.70477">
        <ele>135.68</ele>
        <time>2021-08-09T05:42:23Z</time>
      </trkpt>
      <trkpt lat="49.42208" lon="3.70494">
        <ele>136.16</ele>
        <time>2021-08-09T05:42:30Z</time>
      </trkpt>
      <trkpt lat="49.4221" lon="3.70512">
        <ele>136.64</ele>
        <time>2021-08-09T05:42:36Z</time>
      </trkpt>
      <trkpt lat="49.42213" lon="3.70534">
        <ele>137.13</ele>
        <time>2021-08-09T05:42:44Z</time>
      </trkpt>
      <trkpt lat="49.42215" lon="3.7055">
        <ele>138.57</ele>
        <time>2021-08-09T05:42:51Z</time>
      </trkpt>
      <trkpt lat="49.42219" lon="3.7057">
        <ele>140.01</ele>
        <time>2021-08-09T05:43:00Z</time>
      </trkpt>
      <trkpt lat="49.42221" lon="3.70592">
        <ele>141.93</ele>
        <time>2021-08-09T05:43:10Z</time>
      </trkpt>
      <trkpt lat="49.42222" lon="3.70614">
        <ele>143.37</ele>
        <time>2021-08-09T05:43:19Z</time>
      </trkpt>
      <trkpt lat="49.42222" lon="3.7063">
        <ele>144.82</ele>
        <time>2021-08-09T05:43:26Z</time>
      </trkpt>
      <trkpt lat="49.42223" lon="3.70648">
        <ele>145.78</ele>
        <time>2021-08-09T05:43:33Z</time>
      </trkpt>
      <trkpt lat="49.42226" lon="3.70667">
        <ele>147.22</ele>
        <time>2021-08-09T05:43:41Z</time>
      </trkpt>
      <trkpt lat="49.42228" lon="3.70685">
        <ele>148.18</ele>
        <time>2021-08-09T05:43:48Z</time>
      </trkpt>
      <trkpt lat="49.42234" lon="3.70709">
        <ele>148.66</ele>
        <time>2021-08-09T05:43:55Z</time>
      </trkpt>
      <trkpt lat="49.4225" lon="3.70756">
        <ele>148.66</ele>
        <time>2021-08-09T05:44:05Z</time>
      </trkpt>
      <trkpt lat="49.42266" lon="3.70777">
        <ele>148.66</ele>
        <time>2021-08-09T05:44:12Z</time>
      </trkpt>
      <trkpt lat="49.42285" lon="3.70783">
        <ele>149.14</ele>
        <time>2021-08-09T05:44:19Z</time>
      </trkpt>
      <trkpt lat="49.42308" lon="3.70792">
        <ele>149.62</ele>
        <time>2021-08-09T05:44:27Z</time>
      </trkpt>
      <trkpt lat="49.42334" lon="3.70805">
        <ele>150.58</ele>
        <time>2021-08-09T05:44:36Z</time>
      </trkpt>
      <trkpt lat="49.42366" lon="3.70822">
        <ele>151.06</ele>
        <time>2021-08-09T05:44:46Z</time>
      </trkpt>
      <trkpt lat="49.42399" lon="3.70836">
        <ele>152.03</ele>
        <time>2021-08-09T05:44:56Z</time>
      </trkpt>
      <trkpt lat="49.42415" lon="3.70846">
        <ele>153.47</ele>
        <time>2021-08-09T05:45:04Z</time>
      </trkpt>
      <trkpt lat="49.42416" lon="3.70848">
        <ele>153.95</ele>
        <time>2021-08-09T05:45:05Z</time>
      </trkpt>
      <trkpt lat="49.42417" lon="3.70851">
        <ele>153.95</ele>
        <time>2021-08-09T05:45:06Z</time>
      </trkpt>
      <trkpt lat="49.42417" lon="3.70854">
        <ele>153.95</ele>
        <time>2021-08-09T05:45:07Z</time>
      </trkpt>
      <trkpt lat="49.42418" lon="3.70857">
        <ele>154.91</ele>
        <time>2021-08-09T05:45:08Z</time>
      </trkpt>
      <trkpt lat="49.42418" lon="3.7086">
        <ele>154.91</ele>
        <time>2021-08-09T05:45:09Z</time>
      </trkpt>
      <trkpt lat="49.42418" lon="3.70862">
        <ele>154.91</ele>
        <time>2021-08-09T05:45:10Z</time>
      </trkpt>
      <trkpt lat="49.42419" lon="3.70865">
        <ele>155.39</ele>
        <time>2021-08-09T05:45:11Z</time>
      </trkpt>
      <trkpt lat="49.42422" lon="3.7089">
        <ele>156.83</ele>
        <time>2021-08-09T05:45:20Z</time>
      </trkpt>
      <trkpt lat="49.4242" lon="3.70915">
        <ele>158.75</ele>
        <time>2021-08-09T05:45:29Z</time>
      </trkpt>
      <trkpt lat="49.42408" lon="3.70918">
        <ele>160.2</ele>
        <time>2021-08-09T05:45:36Z</time>
      </trkpt>
      <trkpt lat="49.42398" lon="3.70903">
        <ele>161.16</ele>
        <time>2021-08-09T05:45:44Z</time>
      </trkpt>
      <trkpt lat="49.42381" lon="3.70887">
        <ele>162.6</ele>
        <time>2021-08-09T05:45:54Z</time>
      </trkpt>
      <trkpt lat="49.42367" lon="3.7088">
        <ele>163.56</ele>
        <time>2021-08-09T05:46:02Z</time>
      </trkpt>
      <trkpt lat="49.42353" lon="3.70875">
        <ele>165</ele>
        <time>2021-08-09T05:46:10Z</time>
      </trkpt>
      <trkpt lat="49.42335" lon="3.70871">
        <ele>165.96</ele>
        <time>2021-08-09T05:46:19Z</time>
      </trkpt>
      <trkpt lat="49.42316" lon="3.7087">
        <ele>167.89</ele>
        <time>2021-08-09T05:46:28Z</time>
      </trkpt>
      <trkpt lat="49.42295" lon="3.70867">
        <ele>169.33</ele>
        <time>2021-08-09T05:46:37Z</time>
      </trkpt>
      <trkpt lat="49.42273" lon="3.70869">
        <ele>171.73</ele>
        <time>2021-08-09T05:46:46Z</time>
      </trkpt>
      <trkpt lat="49.4227" lon="3.70871">
        <ele>171.73</ele>
        <time>2021-08-09T05:46:47Z</time>
      </trkpt>
      <trkpt lat="49.42267" lon="3.70872">
        <ele>171.73</ele>
        <time>2021-08-09T05:46:48Z</time>
      </trkpt>
      <trkpt lat="49.42264" lon="3.70873">
        <ele>172.21</ele>
        <time>2021-08-09T05:46:49Z</time>
      </trkpt>
      <trkpt lat="49.42254" lon="3.70876">
        <ele>172.21</ele>
        <time>2021-08-09T05:46:53Z</time>
      </trkpt>
      <trkpt lat="49.4225" lon="3.70877">
        <ele>172.69</ele>
        <time>2021-08-09T05:46:54Z</time>
      </trkpt>
      <trkpt lat="49.42248" lon="3.70878">
        <ele>172.69</ele>
        <time>2021-08-09T05:46:55Z</time>
      </trkpt>
      <trkpt lat="49.42222" lon="3.70897">
        <ele>175.1</ele>
        <time>2021-08-09T05:47:06Z</time>
      </trkpt>
      <trkpt lat="49.42213" lon="3.709">
        <ele>175.58</ele>
        <time>2021-08-09T05:47:10Z</time>
      </trkpt>
      <trkpt lat="49.4221" lon="3.70899">
        <ele>175.58</ele>
        <time>2021-08-09T05:47:11Z</time>
      </trkpt>
      <trkpt lat="49.42208" lon="3.70897">
        <ele>175.58</ele>
        <time>2021-08-09T05:47:12Z</time>
      </trkpt>
      <trkpt lat="49.42195" lon="3.70875">
        <ele>175.58</ele>
        <time>2021-08-09T05:47:19Z</time>
      </trkpt>
      <trkpt lat="49.42183" lon="3.70853">
        <ele>175.58</ele>
        <time>2021-08-09T05:47:26Z</time>
      </trkpt>
      <trkpt lat="49.42172" lon="3.70823">
        <ele>175.58</ele>
        <time>2021-08-09T05:47:34Z</time>
      </trkpt>
      <trkpt lat="49.42167" lon="3.70782">
        <ele>175.58</ele>
        <time>2021-08-09T05:47:42Z</time>
      </trkpt>
      <trkpt lat="49.42161" lon="3.70722">
        <ele>174.14</ele>
        <time>2021-08-09T05:47:52Z</time>
      </trkpt>
      <trkpt lat="49.42159" lon="3.70709">
        <ele>174.14</ele>
        <time>2021-08-09T05:47:54Z</time>
      </trkpt>
      <trkpt lat="49.42157" lon="3.70703">
        <ele>174.14</ele>
        <time>2021-08-09T05:47:55Z</time>
      </trkpt>
      <trkpt lat="49.42156" lon="3.70698">
        <ele>174.14</ele>
        <time>2021-08-09T05:47:56Z</time>
      </trkpt>
      <trkpt lat="49.42154" lon="3.70691">
        <ele>173.66</ele>
        <time>2021-08-09T05:47:57Z</time>
      </trkpt>
      <trkpt lat="49.42152" lon="3.70687">
        <ele>173.66</ele>
        <time>2021-08-09T05:47:58Z</time>
      </trkpt>
      <trkpt lat="49.4213" lon="3.7064">
        <ele>173.17</ele>
        <time>2021-08-09T05:48:07Z</time>
      </trkpt>
      <trkpt lat="49.42111" lon="3.70603">
        <ele>173.17</ele>
        <time>2021-08-09T05:48:15Z</time>
      </trkpt>
      <trkpt lat="49.42086" lon="3.70567">
        <ele>174.14</ele>
        <time>2021-08-09T05:48:25Z</time>
      </trkpt>
      <trkpt lat="49.4206" lon="3.70527">
        <ele>175.1</ele>
        <time>2021-08-09T05:48:36Z</time>
      </trkpt>
      <trkpt lat="49.42035" lon="3.70491">
        <ele>175.58</ele>
        <time>2021-08-09T05:48:47Z</time>
      </trkpt>
      <trkpt lat="49.42003" lon="3.70463">
        <ele>176.54</ele>
        <time>2021-08-09T05:48:59Z</time>
      </trkpt>
      <trkpt lat="49.41971" lon="3.70446">
        <ele>177.02</ele>
        <time>2021-08-09T05:49:10Z</time>
      </trkpt>
      <trkpt lat="49.41949" lon="3.70426">
        <ele>177.5</ele>
        <time>2021-08-09T05:49:18Z</time>
      </trkpt>
      <trkpt lat="49.41926" lon="3.70401">
        <ele>177.98</ele>
        <time>2021-08-09T05:49:26Z</time>
      </trkpt>
      <trkpt lat="49.41906" lon="3.70376">
        <ele>178.94</ele>
        <time>2021-08-09T05:49:35Z</time>
      </trkpt>
      <trkpt lat="49.41889" lon="3.70346">
        <ele>179.9</ele>
        <time>2021-08-09T05:49:45Z</time>
      </trkpt>
      <trkpt lat="49.41875" lon="3.70314">
        <ele>179.9</ele>
        <time>2021-08-09T05:49:53Z</time>
      </trkpt>
      <trkpt lat="49.41853" lon="3.70273">
        <ele>179.9</ele>
        <time>2021-08-09T05:50:03Z</time>
      </trkpt>
      <trkpt lat="49.41828" lon="3.70239">
        <ele>178.94</ele>
        <time>2021-08-09T05:50:12Z</time>
      </trkpt>
      <trkpt lat="49.41807" lon="3.70214">
        <ele>178.94</ele>
        <time>2021-08-09T05:50:20Z</time>
      </trkpt>
      <trkpt lat="49.41778" lon="3.70187">
        <ele>178.94</ele>
        <time>2021-08-09T05:50:30Z</time>
      </trkpt>
      <trkpt lat="49.41759" lon="3.70174">
        <ele>178.94</ele>
        <time>2021-08-09T05:50:36Z</time>
      </trkpt>
      <trkpt lat="49.41732" lon="3.70148">
        <ele>178.94</ele>
        <time>2021-08-09T05:50:45Z</time>
      </trkpt>
      <trkpt lat="49.41712" lon="3.70131">
        <ele>179.9</ele>
        <time>2021-08-09T05:50:52Z</time>
      </trkpt>
      <trkpt lat="49.41687" lon="3.70117">
        <ele>180.87</ele>
        <time>2021-08-09T05:51:01Z</time>
      </trkpt>
      <trkpt lat="49.41659" lon="3.70104">
        <ele>181.83</ele>
        <time>2021-08-09T05:51:12Z</time>
      </trkpt>
      <trkpt lat="49.41632" lon="3.70087">
        <ele>182.79</ele>
        <time>2021-08-09T05:51:23Z</time>
      </trkpt>
      <trkpt lat="49.41612" lon="3.70069">
        <ele>183.27</ele>
        <time>2021-08-09T05:51:31Z</time>
      </trkpt>
      <trkpt lat="49.41585" lon="3.70046">
        <ele>183.27</ele>
        <time>2021-08-09T05:51:40Z</time>
      </trkpt>
      <trkpt lat="49.41554" lon="3.7002">
        <ele>181.35</ele>
        <time>2021-08-09T05:51:49Z</time>
      </trkpt>
      <trkpt lat="49.41543" lon="3.70012">
        <ele>181.35</ele>
        <time>2021-08-09T05:51:52Z</time>
      </trkpt>
      <trkpt lat="49.4154" lon="3.70009">
        <ele>181.35</ele>
        <time>2021-08-09T05:51:53Z</time>
      </trkpt>
      <trkpt lat="49.41502" lon="3.69984">
        <ele>180.38</ele>
        <time>2021-08-09T05:52:03Z</time>
      </trkpt>
      <trkpt lat="49.41467" lon="3.69968">
        <ele>178.46</ele>
        <time>2021-08-09T05:52:12Z</time>
      </trkpt>
      <trkpt lat="49.41441" lon="3.69962">
        <ele>178.46</ele>
        <time>2021-08-09T05:52:19Z</time>
      </trkpt>
      <trkpt lat="49.41421" lon="3.69955">
        <ele>177.98</ele>
        <time>2021-08-09T05:52:24Z</time>
      </trkpt>
      <trkpt lat="49.41396" lon="3.69944">
        <ele>177.98</ele>
        <time>2021-08-09T05:52:31Z</time>
      </trkpt>
      <trkpt lat="49.41353" lon="3.69929">
        <ele>176.54</ele>
        <time>2021-08-09T05:52:43Z</time>
      </trkpt>
      <trkpt lat="49.41331" lon="3.69921">
        <ele>175.1</ele>
        <time>2021-08-09T05:52:48Z</time>
      </trkpt>
      <trkpt lat="49.41308" lon="3.69914">
        <ele>171.25</ele>
        <time>2021-08-09T05:52:52Z</time>
      </trkpt>
      <trkpt lat="49.41288" lon="3.69906">
        <ele>168.37</ele>
        <time>2021-08-09T05:52:55Z</time>
      </trkpt>
      <trkpt lat="49.41267" lon="3.69897">
        <ele>165.48</ele>
        <time>2021-08-09T05:52:59Z</time>
      </trkpt>
      <trkpt lat="49.41262" lon="3.69895">
        <ele>164.52</ele>
        <time>2021-08-09T05:53:00Z</time>
      </trkpt>
      <trkpt lat="49.41245" lon="3.69887">
        <ele>161.16</ele>
        <time>2021-08-09T05:53:03Z</time>
      </trkpt>
      <trkpt lat="49.41232" lon="3.69883">
        <ele>159.72</ele>
        <time>2021-08-09T05:53:05Z</time>
      </trkpt>
      <trkpt lat="49.41226" lon="3.69883">
        <ele>159.72</ele>
        <time>2021-08-09T05:53:06Z</time>
      </trkpt>
      <trkpt lat="49.41221" lon="3.69887">
        <ele>158.75</ele>
        <time>2021-08-09T05:53:07Z</time>
      </trkpt>
      <trkpt lat="49.41218" lon="3.69893">
        <ele>158.27</ele>
        <time>2021-08-09T05:53:08Z</time>
      </trkpt>
      <trkpt lat="49.41215" lon="3.69901">
        <ele>158.27</ele>
        <time>2021-08-09T05:53:09Z</time>
      </trkpt>
      <trkpt lat="49.41213" lon="3.69909">
        <ele>158.27</ele>
        <time>2021-08-09T05:53:10Z</time>
      </trkpt>
      <trkpt lat="49.4119" lon="3.69986">
        <ele>157.31</ele>
        <time>2021-08-09T05:53:20Z</time>
      </trkpt>
      <trkpt lat="49.41167" lon="3.70039">
        <ele>156.83</ele>
        <time>2021-08-09T05:53:30Z</time>
      </trkpt>
      <trkpt lat="49.41141" lon="3.70077">
        <ele>156.83</ele>
        <time>2021-08-09T05:53:39Z</time>
      </trkpt>
      <trkpt lat="49.41107" lon="3.701">
        <ele>154.91</ele>
        <time>2021-08-09T05:53:47Z</time>
      </trkpt>
      <trkpt lat="49.41103" lon="3.70103">
        <ele>154.91</ele>
        <time>2021-08-09T05:53:48Z</time>
      </trkpt>
      <trkpt lat="49.411" lon="3.70107">
        <ele>154.91</ele>
        <time>2021-08-09T05:53:49Z</time>
      </trkpt>
      <trkpt lat="49.41096" lon="3.7011">
        <ele>154.43</ele>
        <time>2021-08-09T05:53:50Z</time>
      </trkpt>
      <trkpt lat="49.41092" lon="3.70114">
        <ele>153.95</ele>
        <time>2021-08-09T05:53:51Z</time>
      </trkpt>
      <trkpt lat="49.41087" lon="3.70117">
        <ele>153.47</ele>
        <time>2021-08-09T05:53:52Z</time>
      </trkpt>
      <trkpt lat="49.41082" lon="3.70122">
        <ele>152.03</ele>
        <time>2021-08-09T05:53:53Z</time>
      </trkpt>
      <trkpt lat="49.41077" lon="3.70129">
        <ele>151.06</ele>
        <time>2021-08-09T05:53:54Z</time>
      </trkpt>
      <trkpt lat="49.41071" lon="3.70137">
        <ele>150.1</ele>
        <time>2021-08-09T05:53:55Z</time>
      </trkpt>
      <trkpt lat="49.41052" lon="3.70162">
        <ele>147.7</ele>
        <time>2021-08-09T05:53:58Z</time>
      </trkpt>
      <trkpt lat="49.41036" lon="3.70176">
        <ele>146.26</ele>
        <time>2021-08-09T05:54:00Z</time>
      </trkpt>
      <trkpt lat="49.41028" lon="3.70182">
        <ele>146.26</ele>
        <time>2021-08-09T05:54:01Z</time>
      </trkpt>
      <trkpt lat="49.41019" lon="3.70187">
        <ele>146.26</ele>
        <time>2021-08-09T05:54:02Z</time>
      </trkpt>
      <trkpt lat="49.41011" lon="3.70189">
        <ele>146.26</ele>
        <time>2021-08-09T05:54:03Z</time>
      </trkpt>
      <trkpt lat="49.41002" lon="3.70188">
        <ele>145.3</ele>
        <time>2021-08-09T05:54:04Z</time>
      </trkpt>
      <trkpt lat="49.40994" lon="3.70186">
        <ele>145.3</ele>
        <time>2021-08-09T05:54:05Z</time>
      </trkpt>
      <trkpt lat="49.40986" lon="3.70182">
        <ele>145.3</ele>
        <time>2021-08-09T05:54:06Z</time>
      </trkpt>
      <trkpt lat="49.40979" lon="3.70178">
        <ele>145.3</ele>
        <time>2021-08-09T05:54:07Z</time>
      </trkpt>
      <trkpt lat="49.40973" lon="3.70172">
        <ele>145.3</ele>
        <time>2021-08-09T05:54:08Z</time>
      </trkpt>
      <trkpt lat="49.40966" lon="3.70166">
        <ele>145.3</ele>
        <time>2021-08-09T05:54:09Z</time>
      </trkpt>
      <trkpt lat="49.40932" lon="3.70137">
        <ele>145.78</ele>
        <time>2021-08-09T05:54:15Z</time>
      </trkpt>
      <trkpt lat="49.40926" lon="3.70136">
        <ele>145.78</ele>
        <time>2021-08-09T05:54:16Z</time>
      </trkpt>
      <trkpt lat="49.40921" lon="3.70137">
        <ele>145.78</ele>
        <time>2021-08-09T05:54:17Z</time>
      </trkpt>
      <trkpt lat="49.40917" lon="3.7014">
        <ele>145.78</ele>
        <time>2021-08-09T05:54:18Z</time>
      </trkpt>
      <trkpt lat="49.40914" lon="3.70146">
        <ele>145.78</ele>
        <time>2021-08-09T05:54:19Z</time>
      </trkpt>
      <trkpt lat="49.40911" lon="3.70152">
        <ele>145.78</ele>
        <time>2021-08-09T05:54:20Z</time>
      </trkpt>
      <trkpt lat="49.4091" lon="3.7016">
        <ele>145.78</ele>
        <time>2021-08-09T05:54:21Z</time>
      </trkpt>
      <trkpt lat="49.40909" lon="3.70167">
        <ele>145.78</ele>
        <time>2021-08-09T05:54:22Z</time>
      </trkpt>
      <trkpt lat="49.40908" lon="3.70175">
        <ele>145.78</ele>
        <time>2021-08-09T05:54:23Z</time>
      </trkpt>
      <trkpt lat="49.40908" lon="3.70182">
        <ele>145.78</ele>
        <time>2021-08-09T05:54:24Z</time>
      </trkpt>
      <trkpt lat="49.40907" lon="3.7019">
        <ele>145.78</ele>
        <time>2021-08-09T05:54:25Z</time>
      </trkpt>
      <trkpt lat="49.40905" lon="3.70225">
        <ele>145.78</ele>
        <time>2021-08-09T05:54:30Z</time>
      </trkpt>
      <trkpt lat="49.40904" lon="3.70232">
        <ele>145.78</ele>
        <time>2021-08-09T05:54:31Z</time>
      </trkpt>
      <trkpt lat="49.40902" lon="3.70239">
        <ele>145.78</ele>
        <time>2021-08-09T05:54:32Z</time>
      </trkpt>
      <trkpt lat="49.40893" lon="3.70274">
        <ele>143.85</ele>
        <time>2021-08-09T05:54:36Z</time>
      </trkpt>
      <trkpt lat="49.40891" lon="3.70285">
        <ele>142.89</ele>
        <time>2021-08-09T05:54:37Z</time>
      </trkpt>
      <trkpt lat="49.40889" lon="3.70295">
        <ele>142.41</ele>
        <time>2021-08-09T05:54:38Z</time>
      </trkpt>
      <trkpt lat="49.40886" lon="3.70304">
        <ele>141.45</ele>
        <time>2021-08-09T05:54:39Z</time>
      </trkpt>
      <trkpt lat="49.40881" lon="3.70313">
        <ele>140.97</ele>
        <time>2021-08-09T05:54:40Z</time>
      </trkpt>
      <trkpt lat="49.40876" lon="3.70321">
        <ele>140.97</ele>
        <time>2021-08-09T05:54:41Z</time>
      </trkpt>
      <trkpt lat="49.40863" lon="3.70339">
        <ele>143.37</ele>
        <time>2021-08-09T05:54:44Z</time>
      </trkpt>
      <trkpt lat="49.40859" lon="3.70342">
        <ele>143.37</ele>
        <time>2021-08-09T05:54:45Z</time>
      </trkpt>
      <trkpt lat="49.40856" lon="3.70344">
        <ele>143.85</ele>
        <time>2021-08-09T05:54:46Z</time>
      </trkpt>
      <trkpt lat="49.40852" lon="3.70345">
        <ele>143.85</ele>
        <time>2021-08-09T05:54:47Z</time>
      </trkpt>
      <trkpt lat="49.40849" lon="3.70346">
        <ele>143.85</ele>
        <time>2021-08-09T05:54:48Z</time>
      </trkpt>
      <trkpt lat="49.40829" lon="3.7034">
        <ele>144.82</ele>
        <time>2021-08-09T05:54:54Z</time>
      </trkpt>
      <trkpt lat="49.40798" lon="3.70315">
        <ele>144.82</ele>
        <time>2021-08-09T05:55:03Z</time>
      </trkpt>
      <trkpt lat="49.40767" lon="3.70283">
        <ele>146.26</ele>
        <time>2021-08-09T05:55:13Z</time>
      </trkpt>
      <trkpt lat="49.40742" lon="3.70249">
        <ele>146.74</ele>
        <time>2021-08-09T05:55:23Z</time>
      </trkpt>
      <trkpt lat="49.40714" lon="3.70211">
        <ele>146.74</ele>
        <time>2021-08-09T05:55:33Z</time>
      </trkpt>
      <trkpt lat="49.40684" lon="3.70166">
        <ele>147.22</ele>
        <time>2021-08-09T05:55:44Z</time>
      </trkpt>
      <trkpt lat="49.40671" lon="3.70147">
        <ele>145.78</ele>
        <time>2021-08-09T05:55:48Z</time>
      </trkpt>
      <trkpt lat="49.40668" lon="3.70141">
        <ele>145.78</ele>
        <time>2021-08-09T05:55:49Z</time>
      </trkpt>
      <trkpt lat="49.40662" lon="3.70126">
        <ele>144.82</ele>
        <time>2021-08-09T05:55:51Z</time>
      </trkpt>
      <trkpt lat="49.40645" lon="3.70076">
        <ele>141.45</ele>
        <time>2021-08-09T05:55:56Z</time>
      </trkpt>
      <trkpt lat="49.40641" lon="3.70064">
        <ele>140.01</ele>
        <time>2021-08-09T05:55:57Z</time>
      </trkpt>
      <trkpt lat="49.40636" lon="3.70054">
        <ele>139.53</ele>
        <time>2021-08-09T05:55:58Z</time>
      </trkpt>
      <trkpt lat="49.4063" lon="3.70043">
        <ele>138.57</ele>
        <time>2021-08-09T05:55:59Z</time>
      </trkpt>
      <trkpt lat="49.40623" lon="3.70033">
        <ele>138.57</ele>
        <time>2021-08-09T05:56:00Z</time>
      </trkpt>
      <trkpt lat="49.40593" lon="3.69984">
        <ele>136.64</ele>
        <time>2021-08-09T05:56:05Z</time>
      </trkpt>
      <trkpt lat="49.40589" lon="3.69973">
        <ele>136.64</ele>
        <time>2021-08-09T05:56:06Z</time>
      </trkpt>
      <trkpt lat="49.40587" lon="3.69962">
        <ele>136.64</ele>
        <time>2021-08-09T05:56:07Z</time>
      </trkpt>
      <trkpt lat="49.40585" lon="3.69951">
        <ele>136.64</ele>
        <time>2021-08-09T05:56:08Z</time>
      </trkpt>
      <trkpt lat="49.40583" lon="3.6994">
        <ele>136.64</ele>
        <time>2021-08-09T05:56:09Z</time>
      </trkpt>
      <trkpt lat="49.40583" lon="3.6993">
        <ele>136.64</ele>
        <time>2021-08-09T05:56:10Z</time>
      </trkpt>
      <trkpt lat="49.4058" lon="3.69899">
        <ele>138.09</ele>
        <time>2021-08-09T05:56:14Z</time>
      </trkpt>
      <trkpt lat="49.40578" lon="3.69883">
        <ele>140.01</ele>
        <time>2021-08-09T05:56:19Z</time>
      </trkpt>
      <trkpt lat="49.40577" lon="3.69866">
        <ele>140.97</ele>
        <time>2021-08-09T05:56:25Z</time>
      </trkpt>
      <trkpt lat="49.40576" lon="3.69863">
        <ele>140.97</ele>
        <time>2021-08-09T05:56:26Z</time>
      </trkpt>
      <trkpt lat="49.40574" lon="3.69861">
        <ele>140.97</ele>
        <time>2021-08-09T05:56:27Z</time>
      </trkpt>
      <trkpt lat="49.40559" lon="3.6984">
        <ele>140.97</ele>
        <time>2021-08-09T05:56:34Z</time>
      </trkpt>
      <trkpt lat="49.40556" lon="3.69836">
        <ele>140.97</ele>
        <time>2021-08-09T05:56:35Z</time>
      </trkpt>
      <trkpt lat="49.40543" lon="3.69816">
        <ele>139.53</ele>
        <time>2021-08-09T05:56:39Z</time>
      </trkpt>
      <trkpt lat="49.40525" lon="3.69781">
        <ele>138.09</ele>
        <time>2021-08-09T05:56:45Z</time>
      </trkpt>
      <trkpt lat="49.40506" lon="3.69731">
        <ele>138.09</ele>
        <time>2021-08-09T05:56:54Z</time>
      </trkpt>
      <trkpt lat="49.40492" lon="3.69693">
        <ele>139.53</ele>
        <time>2021-08-09T05:57:02Z</time>
      </trkpt>
      <trkpt lat="49.40491" lon="3.69688">
        <ele>139.53</ele>
        <time>2021-08-09T05:57:03Z</time>
      </trkpt>
      <trkpt lat="49.4048" lon="3.69658">
        <ele>140.49</ele>
        <time>2021-08-09T05:57:11Z</time>
      </trkpt>
      <trkpt lat="49.40463" lon="3.69635">
        <ele>140.97</ele>
        <time>2021-08-09T05:57:19Z</time>
      </trkpt>
      <trkpt lat="49.40429" lon="3.69602">
        <ele>139.53</ele>
        <time>2021-08-09T05:57:29Z</time>
      </trkpt>
      <trkpt lat="49.40411" lon="3.69572">
        <ele>139.53</ele>
        <time>2021-08-09T05:57:36Z</time>
      </trkpt>
      <trkpt lat="49.40388" lon="3.6954">
        <ele>139.53</ele>
        <time>2021-08-09T05:57:45Z</time>
      </trkpt>
      <trkpt lat="49.4038" lon="3.69531">
        <ele>140.49</ele>
        <time>2021-08-09T05:57:48Z</time>
      </trkpt>
      <trkpt lat="49.40359" lon="3.69512">
        <ele>140.97</ele>
        <time>2021-08-09T05:57:56Z</time>
      </trkpt>
      <trkpt lat="49.4034" lon="3.69495">
        <ele>141.93</ele>
        <time>2021-08-09T05:58:04Z</time>
      </trkpt>
      <trkpt lat="49.40319" lon="3.69478">
        <ele>142.89</ele>
        <time>2021-08-09T05:58:13Z</time>
      </trkpt>
      <trkpt lat="49.40297" lon="3.69467">
        <ele>143.85</ele>
        <time>2021-08-09T05:58:23Z</time>
      </trkpt>
      <trkpt lat="49.4028" lon="3.69452">
        <ele>146.26</ele>
        <time>2021-08-09T05:58:33Z</time>
      </trkpt>
      <trkpt lat="49.40269" lon="3.69438">
        <ele>146.74</ele>
        <time>2021-08-09T05:58:41Z</time>
      </trkpt>
      <trkpt lat="49.40259" lon="3.6942">
        <ele>147.7</ele>
        <time>2021-08-09T05:58:49Z</time>
      </trkpt>
      <trkpt lat="49.40246" lon="3.69397">
        <ele>148.66</ele>
        <time>2021-08-09T05:58:59Z</time>
      </trkpt>
      <trkpt lat="49.40235" lon="3.69379">
        <ele>150.58</ele>
        <time>2021-08-09T05:59:09Z</time>
      </trkpt>
      <trkpt lat="49.40232" lon="3.69361">
        <ele>151.06</ele>
        <time>2021-08-09T05:59:16Z</time>
      </trkpt>
      <trkpt lat="49.40234" lon="3.69336">
        <ele>149.62</ele>
        <time>2021-08-09T05:59:21Z</time>
      </trkpt>
      <trkpt lat="49.40233" lon="3.69322">
        <ele>149.62</ele>
        <time>2021-08-09T05:59:23Z</time>
      </trkpt>
      <trkpt lat="49.40231" lon="3.69302">
        <ele>149.62</ele>
        <time>2021-08-09T05:59:26Z</time>
      </trkpt>
      <trkpt lat="49.40221" lon="3.6926">
        <ele>149.62</ele>
        <time>2021-08-09T05:59:33Z</time>
      </trkpt>
      <trkpt lat="49.40208" lon="3.69206">
        <ele>149.62</ele>
        <time>2021-08-09T05:59:43Z</time>
      </trkpt>
      <trkpt lat="49.40204" lon="3.69175">
        <ele>148.66</ele>
        <time>2021-08-09T05:59:48Z</time>
      </trkpt>
      <trkpt lat="49.40188" lon="3.69145">
        <ele>148.18</ele>
        <time>2021-08-09T05:59:53Z</time>
      </trkpt>
      <trkpt lat="49.40183" lon="3.6914">
        <ele>148.18</ele>
        <time>2021-08-09T05:59:54Z</time>
      </trkpt>
      <trkpt lat="49.40178" lon="3.69136">
        <ele>147.7</ele>
        <time>2021-08-09T05:59:55Z</time>
      </trkpt>
      <trkpt lat="49.40173" lon="3.69132">
        <ele>147.7</ele>
        <time>2021-08-09T05:59:56Z</time>
      </trkpt>
      <trkpt lat="49.4017" lon="3.6913">
        <ele>147.7</ele>
        <time>2021-08-09T05:59:57Z</time>
      </trkpt>
      <trkpt lat="49.40164" lon="3.69124">
        <ele>149.14</ele>
        <time>2021-08-09T05:59:59Z</time>
      </trkpt>
      <trkpt lat="49.40151" lon="3.69097">
        <ele>149.62</ele>
        <time>2021-08-09T06:00:05Z</time>
      </trkpt>
      <trkpt lat="49.40144" lon="3.69066">
        <ele>149.62</ele>
        <time>2021-08-09T06:00:10Z</time>
      </trkpt>
      <trkpt lat="49.40136" lon="3.69041">
        <ele>149.62</ele>
        <time>2021-08-09T06:00:14Z</time>
      </trkpt>
      <trkpt lat="49.40133" lon="3.69038">
        <ele>149.62</ele>
        <time>2021-08-09T06:00:15Z</time>
      </trkpt>
      <trkpt lat="49.4013" lon="3.69038">
        <ele>150.1</ele>
        <time>2021-08-09T06:00:16Z</time>
      </trkpt>
      <trkpt lat="49.40127" lon="3.69039">
        <ele>150.1</ele>
        <time>2021-08-09T06:00:17Z</time>
      </trkpt>
      <trkpt lat="49.40123" lon="3.69041">
        <ele>150.1</ele>
        <time>2021-08-09T06:00:18Z</time>
      </trkpt>
      <trkpt lat="49.40097" lon="3.69055">
        <ele>150.1</ele>
        <time>2021-08-09T06:00:26Z</time>
      </trkpt>
      <trkpt lat="49.4009" lon="3.69058">
        <ele>150.1</ele>
        <time>2021-08-09T06:00:28Z</time>
      </trkpt>
      <trkpt lat="49.40086" lon="3.6906">
        <ele>149.14</ele>
        <time>2021-08-09T06:00:29Z</time>
      </trkpt>
      <trkpt lat="49.40078" lon="3.69063">
        <ele>148.18</ele>
        <time>2021-08-09T06:00:31Z</time>
      </trkpt>
      <trkpt lat="49.40068" lon="3.69067">
        <ele>147.7</ele>
        <time>2021-08-09T06:00:33Z</time>
      </trkpt>
      <trkpt lat="49.40064" lon="3.69067">
        <ele>147.22</ele>
        <time>2021-08-09T06:00:34Z</time>
      </trkpt>
      <trkpt lat="49.40056" lon="3.69068">
        <ele>146.74</ele>
        <time>2021-08-09T06:00:36Z</time>
      </trkpt>
      <trkpt lat="49.40053" lon="3.69071">
        <ele>146.26</ele>
        <time>2021-08-09T06:00:37Z</time>
      </trkpt>
      <trkpt lat="49.4005" lon="3.69073">
        <ele>145.78</ele>
        <time>2021-08-09T06:00:38Z</time>
      </trkpt>
      <trkpt lat="49.40035" lon="3.6908">
        <ele>141.93</ele>
        <time>2021-08-09T06:00:42Z</time>
      </trkpt>
      <trkpt lat="49.40022" lon="3.69087">
        <ele>138.57</ele>
        <time>2021-08-09T06:00:45Z</time>
      </trkpt>
      <trkpt lat="49.40014" lon="3.6909">
        <ele>136.64</ele>
        <time>2021-08-09T06:00:48Z</time>
      </trkpt>
      <trkpt lat="49.40013" lon="3.6909">
        <ele>136.64</ele>
        <time>2021-08-09T06:00:49Z</time>
      </trkpt>
      <trkpt lat="49.40012" lon="3.69089">
        <ele>136.16</ele>
        <time>2021-08-09T06:00:50Z</time>
      </trkpt>
      <trkpt lat="49.4001" lon="3.69087">
        <ele>136.16</ele>
        <time>2021-08-09T06:00:51Z</time>
      </trkpt>
      <trkpt lat="49.40009" lon="3.69086">
        <ele>136.16</ele>
        <time>2021-08-09T06:00:52Z</time>
      </trkpt>
      <trkpt lat="49.40007" lon="3.69083">
        <ele>136.16</ele>
        <time>2021-08-09T06:00:57Z</time>
      </trkpt>
      <trkpt lat="49.40007" lon="3.69082">
        <ele>136.64</ele>
        <time>2021-08-09T06:01:06Z</time>
      </trkpt>
      <trkpt lat="49.40006" lon="3.69082">
        <ele>136.64</ele>
        <time>2021-08-09T06:01:25Z</time>
      </trkpt>
      <trkpt lat="49.40006" lon="3.69082">
        <ele>136.64</ele>
        <time>2021-08-09T06:01:49Z</time>
      </trkpt>
      <trkpt lat="49.40006" lon="3.69083">
        <ele>136.16</ele>
        <time>2021-08-09T06:02:05Z</time>
      </trkpt>
      <trkpt lat="49.40006" lon="3.6908">
        <ele>136.16</ele>
        <time>2021-08-09T06:02:26Z</time>
      </trkpt>
      <trkpt lat="49.40007" lon="3.69082">
        <ele>136.16</ele>
        <time>2021-08-09T06:02:50Z</time>
      </trkpt>
      <trkpt lat="49.40007" lon="3.69082">
        <ele>136.16</ele>
        <time>2021-08-09T06:03:08Z</time>
      </trkpt>
      <trkpt lat="49.40009" lon="3.69081">
        <ele>136.16</ele>
        <time>2021-08-09T06:03:23Z</time>
      </trkpt>
      <trkpt lat="49.4001" lon="3.69082">
        <ele>136.16</ele>
        <time>2021-08-09T06:03:28Z</time>
      </trkpt>
      <trkpt lat="49.40011" lon="3.69082">
        <ele>136.16</ele>
        <time>2021-08-09T06:03:29Z</time>
      </trkpt>
      <trkpt lat="49.40012" lon="3.69079">
        <ele>136.16</ele>
        <time>2021-08-09T06:03:31Z</time>
      </trkpt>
      <trkpt lat="49.40011" lon="3.69077">
        <ele>136.16</ele>
        <time>2021-08-09T06:03:32Z</time>
      </trkpt>
      <trkpt lat="49.40011" lon="3.69075">
        <ele>136.16</ele>
        <time>2021-08-09T06:03:33Z</time>
      </trkpt>
      <trkpt lat="49.40006" lon="3.69053">
        <ele>135.68</ele>
        <time>2021-08-09T06:03:39Z</time>
      </trkpt>
      <trkpt lat="49.40004" lon="3.69031">
        <ele>135.68</ele>
        <time>2021-08-09T06:03:43Z</time>
      </trkpt>
      <trkpt lat="49.39995" lon="3.6897">
        <ele>135.2</ele>
        <time>2021-08-09T06:03:52Z</time>
      </trkpt>
      <trkpt lat="49.39983" lon="3.68904">
        <ele>135.2</ele>
        <time>2021-08-09T06:04:02Z</time>
      </trkpt>
      <trkpt lat="49.39968" lon="3.6883">
        <ele>135.2</ele>
        <time>2021-08-09T06:04:13Z</time>
      </trkpt>
      <trkpt lat="49.39965" lon="3.68817">
        <ele>134.72</ele>
        <time>2021-08-09T06:04:15Z</time>
      </trkpt>
      <trkpt lat="49.39963" lon="3.68811">
        <ele>134.72</ele>
        <time>2021-08-09T06:04:16Z</time>
      </trkpt>
      <trkpt lat="49.3996" lon="3.68805">
        <ele>134.72</ele>
        <time>2021-08-09T06:04:17Z</time>
      </trkpt>
      <trkpt lat="49.39943" lon="3.68753">
        <ele>134.72</ele>
        <time>2021-08-09T06:04:25Z</time>
      </trkpt>
      <trkpt lat="49.39939" lon="3.68721">
        <ele>136.16</ele>
        <time>2021-08-09T06:04:30Z</time>
      </trkpt>
      <trkpt lat="49.39937" lon="3.68695">
        <ele>137.61</ele>
        <time>2021-08-09T06:04:37Z</time>
      </trkpt>
      <trkpt lat="49.39933" lon="3.68675">
        <ele>139.05</ele>
        <time>2021-08-09T06:04:44Z</time>
      </trkpt>
      <trkpt lat="49.39926" lon="3.68647">
        <ele>140.49</ele>
        <time>2021-08-09T06:04:53Z</time>
      </trkpt>
      <trkpt lat="49.39915" lon="3.68619">
        <ele>140.97</ele>
        <time>2021-08-09T06:05:02Z</time>
      </trkpt>
      <trkpt lat="49.39906" lon="3.68598">
        <ele>141.45</ele>
        <time>2021-08-09T06:05:08Z</time>
      </trkpt>
      <trkpt lat="49.3989" lon="3.68566">
        <ele>141.45</ele>
        <time>2021-08-09T06:05:16Z</time>
      </trkpt>
      <trkpt lat="49.3987" lon="3.68529">
        <ele>141.93</ele>
        <time>2021-08-09T06:05:25Z</time>
      </trkpt>
      <trkpt lat="49.39848" lon="3.68491">
        <ele>142.41</ele>
        <time>2021-08-09T06:05:34Z</time>
      </trkpt>
      <trkpt lat="49.39838" lon="3.68476">
        <ele>142.41</ele>
        <time>2021-08-09T06:05:37Z</time>
      </trkpt>
      <trkpt lat="49.39831" lon="3.68467">
        <ele>140.97</ele>
        <time>2021-08-09T06:05:39Z</time>
      </trkpt>
      <trkpt lat="49.39824" lon="3.6846">
        <ele>140.97</ele>
        <time>2021-08-09T06:05:41Z</time>
      </trkpt>
      <trkpt lat="49.39814" lon="3.68448">
        <ele>140.49</ele>
        <time>2021-08-09T06:05:44Z</time>
      </trkpt>
      <trkpt lat="49.39779" lon="3.68405">
        <ele>139.05</ele>
        <time>2021-08-09T06:05:53Z</time>
      </trkpt>
      <trkpt lat="49.39774" lon="3.68401">
        <ele>138.57</ele>
        <time>2021-08-09T06:05:54Z</time>
      </trkpt>
      <trkpt lat="49.39769" lon="3.68397">
        <ele>138.57</ele>
        <time>2021-08-09T06:05:55Z</time>
      </trkpt>
      <trkpt lat="49.39764" lon="3.68395">
        <ele>138.57</ele>
        <time>2021-08-09T06:05:56Z</time>
      </trkpt>
      <trkpt lat="49.3976" lon="3.68393">
        <ele>138.57</ele>
        <time>2021-08-09T06:05:57Z</time>
      </trkpt>
      <trkpt lat="49.3972" lon="3.68383">
        <ele>136.64</ele>
        <time>2021-08-09T06:06:04Z</time>
      </trkpt>
      <trkpt lat="49.39715" lon="3.68382">
        <ele>136.64</ele>
        <time>2021-08-09T06:06:05Z</time>
      </trkpt>
      <trkpt lat="49.39692" lon="3.6838">
        <ele>136.16</ele>
        <time>2021-08-09T06:06:09Z</time>
      </trkpt>
      <trkpt lat="49.39687" lon="3.6838">
        <ele>135.2</ele>
        <time>2021-08-09T06:06:10Z</time>
      </trkpt>
      <trkpt lat="49.39684" lon="3.68381">
        <ele>135.2</ele>
        <time>2021-08-09T06:06:11Z</time>
      </trkpt>
      <trkpt lat="49.39682" lon="3.68382">
        <ele>135.2</ele>
        <time>2021-08-09T06:06:12Z</time>
      </trkpt>
      <trkpt lat="49.39678" lon="3.68381">
        <ele>134.72</ele>
        <time>2021-08-09T06:06:16Z</time>
      </trkpt>
      <trkpt lat="49.39677" lon="3.68381">
        <ele>134.72</ele>
        <time>2021-08-09T06:06:17Z</time>
      </trkpt>
      <trkpt lat="49.39661" lon="3.68379">
        <ele>133.76</ele>
        <time>2021-08-09T06:06:23Z</time>
      </trkpt>
      <trkpt lat="49.39642" lon="3.68379">
        <ele>132.32</ele>
        <time>2021-08-09T06:06:28Z</time>
      </trkpt>
      <trkpt lat="49.39638" lon="3.68379">
        <ele>132.32</ele>
        <time>2021-08-09T06:06:29Z</time>
      </trkpt>
      <trkpt lat="49.39633" lon="3.68377">
        <ele>131.84</ele>
        <time>2021-08-09T06:06:30Z</time>
      </trkpt>
      <trkpt lat="49.39628" lon="3.68377">
        <ele>130.88</ele>
        <time>2021-08-09T06:06:31Z</time>
      </trkpt>
      <trkpt lat="49.39623" lon="3.68377">
        <ele>130.4</ele>
        <time>2021-08-09T06:06:32Z</time>
      </trkpt>
      <trkpt lat="49.39617" lon="3.68377">
        <ele>129.43</ele>
        <time>2021-08-09T06:06:33Z</time>
      </trkpt>
      <trkpt lat="49.39611" lon="3.68378">
        <ele>128.95</ele>
        <time>2021-08-09T06:06:34Z</time>
      </trkpt>
      <trkpt lat="49.39601" lon="3.68379">
        <ele>127.99</ele>
        <time>2021-08-09T06:06:36Z</time>
      </trkpt>
      <trkpt lat="49.39591" lon="3.6838">
        <ele>127.03</ele>
        <time>2021-08-09T06:06:38Z</time>
      </trkpt>
      <trkpt lat="49.39564" lon="3.68374">
        <ele>123.67</ele>
        <time>2021-08-09T06:06:43Z</time>
      </trkpt>
      <trkpt lat="49.39547" lon="3.68371">
        <ele>120.3</ele>
        <time>2021-08-09T06:06:46Z</time>
      </trkpt>
      <trkpt lat="49.3954" lon="3.68372">
        <ele>119.34</ele>
        <time>2021-08-09T06:06:47Z</time>
      </trkpt>
      <trkpt lat="49.39533" lon="3.68375">
        <ele>117.9</ele>
        <time>2021-08-09T06:06:48Z</time>
      </trkpt>
      <trkpt lat="49.39528" lon="3.68379">
        <ele>116.46</ele>
        <time>2021-08-09T06:06:49Z</time>
      </trkpt>
      <trkpt lat="49.39524" lon="3.68386">
        <ele>115.5</ele>
        <time>2021-08-09T06:06:50Z</time>
      </trkpt>
      <trkpt lat="49.39519" lon="3.68394">
        <ele>114.05</ele>
        <time>2021-08-09T06:06:51Z</time>
      </trkpt>
      <trkpt lat="49.39514" lon="3.68401">
        <ele>114.05</ele>
        <time>2021-08-09T06:06:52Z</time>
      </trkpt>
      <trkpt lat="49.3951" lon="3.6841">
        <ele>113.09</ele>
        <time>2021-08-09T06:06:53Z</time>
      </trkpt>
      <trkpt lat="49.39504" lon="3.68425">
        <ele>111.17</ele>
        <time>2021-08-09T06:06:55Z</time>
      </trkpt>
      <trkpt lat="49.39499" lon="3.6843">
        <ele>109.73</ele>
        <time>2021-08-09T06:06:56Z</time>
      </trkpt>
      <trkpt lat="49.39494" lon="3.68433">
        <ele>108.77</ele>
        <time>2021-08-09T06:06:57Z</time>
      </trkpt>
      <trkpt lat="49.39488" lon="3.68436">
        <ele>107.81</ele>
        <time>2021-08-09T06:06:58Z</time>
      </trkpt>
      <trkpt lat="49.39483" lon="3.68437">
        <ele>106.84</ele>
        <time>2021-08-09T06:06:59Z</time>
      </trkpt>
      <trkpt lat="49.39477" lon="3.68439">
        <ele>105.88</ele>
        <time>2021-08-09T06:07:00Z</time>
      </trkpt>
      <trkpt lat="49.39474" lon="3.68441">
        <ele>105.4</ele>
        <time>2021-08-09T06:07:01Z</time>
      </trkpt>
      <trkpt lat="49.39471" lon="3.68443">
        <ele>104.92</ele>
        <time>2021-08-09T06:07:02Z</time>
      </trkpt>
      <trkpt lat="49.39469" lon="3.68445">
        <ele>103.96</ele>
        <time>2021-08-09T06:07:03Z</time>
      </trkpt>
      <trkpt lat="49.39467" lon="3.68446">
        <ele>103.48</ele>
        <time>2021-08-09T06:07:04Z</time>
      </trkpt>
      <trkpt lat="49.39465" lon="3.68446">
        <ele>102.52</ele>
        <time>2021-08-09T06:07:05Z</time>
      </trkpt>
      <trkpt lat="49.39457" lon="3.68445">
        <ele>99.15</ele>
        <time>2021-08-09T06:07:09Z</time>
      </trkpt>
      <trkpt lat="49.39447" lon="3.68441">
        <ele>95.79</ele>
        <time>2021-08-09T06:07:12Z</time>
      </trkpt>
      <trkpt lat="49.39443" lon="3.68439">
        <ele>94.83</ele>
        <time>2021-08-09T06:07:13Z</time>
      </trkpt>
      <trkpt lat="49.39439" lon="3.68439">
        <ele>94.35</ele>
        <time>2021-08-09T06:07:14Z</time>
      </trkpt>
      <trkpt lat="49.39434" lon="3.6844">
        <ele>93.87</ele>
        <time>2021-08-09T06:07:15Z</time>
      </trkpt>
      <trkpt lat="49.39421" lon="3.68444">
        <ele>90.98</ele>
        <time>2021-08-09T06:07:18Z</time>
      </trkpt>
      <trkpt lat="49.39416" lon="3.68448">
        <ele>90.02</ele>
        <time>2021-08-09T06:07:19Z</time>
      </trkpt>
      <trkpt lat="49.39411" lon="3.68452">
        <ele>88.58</ele>
        <time>2021-08-09T06:07:20Z</time>
      </trkpt>
      <trkpt lat="49.39407" lon="3.68457">
        <ele>87.62</ele>
        <time>2021-08-09T06:07:21Z</time>
      </trkpt>
      <trkpt lat="49.39402" lon="3.68462">
        <ele>87.14</ele>
        <time>2021-08-09T06:07:22Z</time>
      </trkpt>
      <trkpt lat="49.39397" lon="3.68466">
        <ele>87.14</ele>
        <time>2021-08-09T06:07:23Z</time>
      </trkpt>
      <trkpt lat="49.39391" lon="3.68481">
        <ele>85.69</ele>
        <time>2021-08-09T06:07:26Z</time>
      </trkpt>
      <trkpt lat="49.39391" lon="3.68487">
        <ele>85.21</ele>
        <time>2021-08-09T06:07:27Z</time>
      </trkpt>
      <trkpt lat="49.39394" lon="3.68513">
        <ele>81.85</ele>
        <time>2021-08-09T06:07:30Z</time>
      </trkpt>
      <trkpt lat="49.39395" lon="3.68521">
        <ele>81.37</ele>
        <time>2021-08-09T06:07:31Z</time>
      </trkpt>
      <trkpt lat="49.39396" lon="3.68528">
        <ele>80.89</ele>
        <time>2021-08-09T06:07:32Z</time>
      </trkpt>
      <trkpt lat="49.39396" lon="3.68545">
        <ele>78.97</ele>
        <time>2021-08-09T06:07:35Z</time>
      </trkpt>
      <trkpt lat="49.39394" lon="3.68554">
        <ele>78.97</ele>
        <time>2021-08-09T06:07:36Z</time>
      </trkpt>
      <trkpt lat="49.39393" lon="3.6856">
        <ele>78.48</ele>
        <time>2021-08-09T06:07:37Z</time>
      </trkpt>
      <trkpt lat="49.3939" lon="3.68567">
        <ele>77.52</ele>
        <time>2021-08-09T06:07:38Z</time>
      </trkpt>
      <trkpt lat="49.39386" lon="3.68574">
        <ele>77.04</ele>
        <time>2021-08-09T06:07:39Z</time>
      </trkpt>
      <trkpt lat="49.39382" lon="3.6858">
        <ele>76.56</ele>
        <time>2021-08-09T06:07:40Z</time>
      </trkpt>
      <trkpt lat="49.39364" lon="3.68602">
        <ele>73.2</ele>
        <time>2021-08-09T06:07:44Z</time>
      </trkpt>
      <trkpt lat="49.39359" lon="3.68607">
        <ele>72.72</ele>
        <time>2021-08-09T06:07:45Z</time>
      </trkpt>
      <trkpt lat="49.39322" lon="3.68644">
        <ele>69.35</ele>
        <time>2021-08-09T06:07:51Z</time>
      </trkpt>
      <trkpt lat="49.39309" lon="3.6866">
        <ele>68.39</ele>
        <time>2021-08-09T06:07:53Z</time>
      </trkpt>
      <trkpt lat="49.39271" lon="3.68709">
        <ele>65.51</ele>
        <time>2021-08-09T06:08:00Z</time>
      </trkpt>
      <trkpt lat="49.39266" lon="3.68711">
        <ele>65.51</ele>
        <time>2021-08-09T06:08:01Z</time>
      </trkpt>
      <trkpt lat="49.39261" lon="3.6871">
        <ele>64.55</ele>
        <time>2021-08-09T06:08:02Z</time>
      </trkpt>
      <trkpt lat="49.39256" lon="3.68708">
        <ele>64.55</ele>
        <time>2021-08-09T06:08:03Z</time>
      </trkpt>
      <trkpt lat="49.39252" lon="3.68705">
        <ele>64.07</ele>
        <time>2021-08-09T06:08:04Z</time>
      </trkpt>
      <trkpt lat="49.3922" lon="3.68684">
        <ele>62.62</ele>
        <time>2021-08-09T06:08:10Z</time>
      </trkpt>
      <trkpt lat="49.39214" lon="3.68684">
        <ele>61.66</ele>
        <time>2021-08-09T06:08:11Z</time>
      </trkpt>
      <trkpt lat="49.39207" lon="3.68684">
        <ele>60.7</ele>
        <time>2021-08-09T06:08:12Z</time>
      </trkpt>
      <trkpt lat="49.39201" lon="3.68686">
        <ele>60.7</ele>
        <time>2021-08-09T06:08:13Z</time>
      </trkpt>
      <trkpt lat="49.39175" lon="3.68694">
        <ele>59.74</ele>
        <time>2021-08-09T06:08:17Z</time>
      </trkpt>
      <trkpt lat="49.3917" lon="3.68693">
        <ele>59.74</ele>
        <time>2021-08-09T06:08:18Z</time>
      </trkpt>
      <trkpt lat="49.39165" lon="3.68689">
        <ele>59.26</ele>
        <time>2021-08-09T06:08:19Z</time>
      </trkpt>
      <trkpt lat="49.3916" lon="3.68684">
        <ele>59.26</ele>
        <time>2021-08-09T06:08:20Z</time>
      </trkpt>
      <trkpt lat="49.39157" lon="3.68677">
        <ele>59.26</ele>
        <time>2021-08-09T06:08:21Z</time>
      </trkpt>
      <trkpt lat="49.39154" lon="3.68671">
        <ele>58.78</ele>
        <time>2021-08-09T06:08:22Z</time>
      </trkpt>
      <trkpt lat="49.3915" lon="3.68664">
        <ele>58.78</ele>
        <time>2021-08-09T06:08:23Z</time>
      </trkpt>
      <trkpt lat="49.39146" lon="3.68658">
        <ele>58.78</ele>
        <time>2021-08-09T06:08:24Z</time>
      </trkpt>
      <trkpt lat="49.39142" lon="3.68654">
        <ele>58.78</ele>
        <time>2021-08-09T06:08:25Z</time>
      </trkpt>
      <trkpt lat="49.39138" lon="3.6865">
        <ele>58.78</ele>
        <time>2021-08-09T06:08:26Z</time>
      </trkpt>
      <trkpt lat="49.39134" lon="3.68649">
        <ele>58.3</ele>
        <time>2021-08-09T06:08:27Z</time>
      </trkpt>
      <trkpt lat="49.39131" lon="3.6865">
        <ele>58.3</ele>
        <time>2021-08-09T06:08:28Z</time>
      </trkpt>
      <trkpt lat="49.39128" lon="3.68651">
        <ele>58.3</ele>
        <time>2021-08-09T06:08:29Z</time>
      </trkpt>
      <trkpt lat="49.39112" lon="3.68667">
        <ele>57.34</ele>
        <time>2021-08-09T06:08:34Z</time>
      </trkpt>
      <trkpt lat="49.39108" lon="3.6867">
        <ele>57.34</ele>
        <time>2021-08-09T06:08:35Z</time>
      </trkpt>
      <trkpt lat="49.39104" lon="3.68673">
        <ele>56.86</ele>
        <time>2021-08-09T06:08:36Z</time>
      </trkpt>
      <trkpt lat="49.39072" lon="3.6869">
        <ele>55.41</ele>
        <time>2021-08-09T06:08:43Z</time>
      </trkpt>
      <trkpt lat="49.39071" lon="3.68693">
        <ele>55.41</ele>
        <time>2021-08-09T06:08:44Z</time>
      </trkpt>
      <trkpt lat="49.39072" lon="3.68696">
        <ele>55.41</ele>
        <time>2021-08-09T06:08:45Z</time>
      </trkpt>
      <trkpt lat="49.39075" lon="3.68696">
        <ele>55.41</ele>
        <time>2021-08-09T06:08:46Z</time>
      </trkpt>
      <trkpt lat="49.39077" lon="3.68695">
        <ele>55.41</ele>
        <time>2021-08-09T06:08:47Z</time>
      </trkpt>
      <trkpt lat="49.39079" lon="3.68692">
        <ele>55.41</ele>
        <time>2021-08-09T06:08:48Z</time>
      </trkpt>
      <trkpt lat="49.39081" lon="3.6869">
        <ele>55.41</ele>
        <time>2021-08-09T06:08:49Z</time>
      </trkpt>
      <trkpt lat="49.39084" lon="3.68688">
        <ele>55.41</ele>
        <time>2021-08-09T06:08:50Z</time>
      </trkpt>
      <trkpt lat="49.39086" lon="3.68686">
        <ele>55.41</ele>
        <time>2021-08-09T06:08:51Z</time>
      </trkpt>
      <trkpt lat="49.39101" lon="3.68674">
        <ele>56.86</ele>
        <time>2021-08-09T06:08:58Z</time>
      </trkpt>
      <trkpt lat="49.39121" lon="3.68646">
        <ele>57.34</ele>
        <time>2021-08-09T06:09:06Z</time>
      </trkpt>
      <trkpt lat="49.39121" lon="3.68639">
        <ele>57.82</ele>
        <time>2021-08-09T06:09:07Z</time>
      </trkpt>
      <trkpt lat="49.3912" lon="3.68634">
        <ele>57.82</ele>
        <time>2021-08-09T06:09:08Z</time>
      </trkpt>
      <trkpt lat="49.39118" lon="3.68631">
        <ele>57.82</ele>
        <time>2021-08-09T06:09:09Z</time>
      </trkpt>
      <trkpt lat="49.39115" lon="3.68627">
        <ele>57.82</ele>
        <time>2021-08-09T06:09:10Z</time>
      </trkpt>
      <trkpt lat="49.39112" lon="3.68622">
        <ele>57.82</ele>
        <time>2021-08-09T06:09:11Z</time>
      </trkpt>
      <trkpt lat="49.39109" lon="3.68619">
        <ele>57.82</ele>
        <time>2021-08-09T06:09:12Z</time>
      </trkpt>
      <trkpt lat="49.39105" lon="3.68616">
        <ele>57.82</ele>
        <time>2021-08-09T06:09:13Z</time>
      </trkpt>
      <trkpt lat="49.39102" lon="3.68614">
        <ele>57.82</ele>
        <time>2021-08-09T06:09:14Z</time>
      </trkpt>
      <trkpt lat="49.39097" lon="3.68613">
        <ele>57.82</ele>
        <time>2021-08-09T06:09:15Z</time>
      </trkpt>
      <trkpt lat="49.39092" lon="3.68613">
        <ele>57.82</ele>
        <time>2021-08-09T06:09:16Z</time>
      </trkpt>
      <trkpt lat="49.39087" lon="3.68613">
        <ele>57.82</ele>
        <time>2021-08-09T06:09:17Z</time>
      </trkpt>
      <trkpt lat="49.39075" lon="3.68616">
        <ele>55.89</ele>
        <time>2021-08-09T06:09:19Z</time>
      </trkpt>
      <trkpt lat="49.39058" lon="3.68617">
        <ele>54.45</ele>
        <time>2021-08-09T06:09:22Z</time>
      </trkpt>
      <trkpt lat="49.39047" lon="3.68616">
        <ele>54.45</ele>
        <time>2021-08-09T06:09:24Z</time>
      </trkpt>
      <trkpt lat="49.39041" lon="3.68612">
        <ele>54.45</ele>
        <time>2021-08-09T06:09:25Z</time>
      </trkpt>
      <trkpt lat="49.39037" lon="3.68608">
        <ele>54.45</ele>
        <time>2021-08-09T06:09:26Z</time>
      </trkpt>
      <trkpt lat="49.39034" lon="3.68604">
        <ele>53.97</ele>
        <time>2021-08-09T06:09:27Z</time>
      </trkpt>
      <trkpt lat="49.3903" lon="3.686">
        <ele>53.97</ele>
        <time>2021-08-09T06:09:28Z</time>
      </trkpt>
      <trkpt lat="49.39022" lon="3.68591">
        <ele>53.49</ele>
        <time>2021-08-09T06:09:30Z</time>
      </trkpt>
      <trkpt lat="49.39005" lon="3.68574">
        <ele>53.49</ele>
        <time>2021-08-09T06:09:36Z</time>
      </trkpt>
      <trkpt lat="49.39008" lon="3.68575">
        <ele>53.49</ele>
        <time>2021-08-09T06:09:52Z</time>
      </trkpt>
      <trkpt lat="49.39006" lon="3.68575">
        <ele>53.49</ele>
        <time>2021-08-09T06:09:53Z</time>
      </trkpt>
      <trkpt lat="49.39005" lon="3.68574">
        <ele>53.49</ele>
        <time>2021-08-09T06:09:54Z</time>
      </trkpt>
      <trkpt lat="49.39003" lon="3.68573">
        <ele>53.49</ele>
        <time>2021-08-09T06:09:55Z</time>
      </trkpt>
      <trkpt lat="49.39" lon="3.68571">
        <ele>53.49</ele>
        <time>2021-08-09T06:09:56Z</time>
      </trkpt>
      <trkpt lat="49.38997" lon="3.68569">
        <ele>53.01</ele>
        <time>2021-08-09T06:09:57Z</time>
      </trkpt>
      <trkpt lat="49.38993" lon="3.68567">
        <ele>53.01</ele>
        <time>2021-08-09T06:09:58Z</time>
      </trkpt>
      <trkpt lat="49.38961" lon="3.68542">
        <ele>52.05</ele>
        <time>2021-08-09T06:10:07Z</time>
      </trkpt>
      <trkpt lat="49.38949" lon="3.68533">
        <ele>51.57</ele>
        <time>2021-08-09T06:10:10Z</time>
      </trkpt>
      <trkpt lat="49.38946" lon="3.68531">
        <ele>51.57</ele>
        <time>2021-08-09T06:10:11Z</time>
      </trkpt>
      <trkpt lat="49.38941" lon="3.68531">
        <ele>51.57</ele>
        <time>2021-08-09T06:10:12Z</time>
      </trkpt>
      <trkpt lat="49.38937" lon="3.68531">
        <ele>51.57</ele>
        <time>2021-08-09T06:10:13Z</time>
      </trkpt>
      <trkpt lat="49.38931" lon="3.68531">
        <ele>51.57</ele>
        <time>2021-08-09T06:10:14Z</time>
      </trkpt>
      <trkpt lat="49.38891" lon="3.68531">
        <ele>50.61</ele>
        <time>2021-08-09T06:10:23Z</time>
      </trkpt>
      <trkpt lat="49.38841" lon="3.68526">
        <ele>50.61</ele>
        <time>2021-08-09T06:10:35Z</time>
      </trkpt>
      <trkpt lat="49.38799" lon="3.68522">
        <ele>50.61</ele>
        <time>2021-08-09T06:10:45Z</time>
      </trkpt>
      <trkpt lat="49.38773" lon="3.6852">
        <ele>50.61</ele>
        <time>2021-08-09T06:10:51Z</time>
      </trkpt>
      <trkpt lat="49.38769" lon="3.68522">
        <ele>49.65</ele>
        <time>2021-08-09T06:10:52Z</time>
      </trkpt>
      <trkpt lat="49.38766" lon="3.68527">
        <ele>49.65</ele>
        <time>2021-08-09T06:10:53Z</time>
      </trkpt>
      <trkpt lat="49.38766" lon="3.68533">
        <ele>49.65</ele>
        <time>2021-08-09T06:10:54Z</time>
      </trkpt>
      <trkpt lat="49.38766" lon="3.68537">
        <ele>49.65</ele>
        <time>2021-08-09T06:10:55Z</time>
      </trkpt>
      <trkpt lat="49.38766" lon="3.68543">
        <ele>49.65</ele>
        <time>2021-08-09T06:10:56Z</time>
      </trkpt>
      <trkpt lat="49.38767" lon="3.68548">
        <ele>49.65</ele>
        <time>2021-08-09T06:10:57Z</time>
      </trkpt>
      <trkpt lat="49.38768" lon="3.68554">
        <ele>49.65</ele>
        <time>2021-08-09T06:10:58Z</time>
      </trkpt>
      <trkpt lat="49.38768" lon="3.6856">
        <ele>49.65</ele>
        <time>2021-08-09T06:10:59Z</time>
      </trkpt>
      <trkpt lat="49.38768" lon="3.68566">
        <ele>50.13</ele>
        <time>2021-08-09T06:11:00Z</time>
      </trkpt>
      <trkpt lat="49.3877" lon="3.6863">
        <ele>49.65</ele>
        <time>2021-08-09T06:11:10Z</time>
      </trkpt>
      <trkpt lat="49.38771" lon="3.68705">
        <ele>51.09</ele>
        <time>2021-08-09T06:11:22Z</time>
      </trkpt>
      <trkpt lat="49.3877" lon="3.68762">
        <ele>51.09</ele>
        <time>2021-08-09T06:11:31Z</time>
      </trkpt>
      <trkpt lat="49.38766" lon="3.68776">
        <ele>51.09</ele>
        <time>2021-08-09T06:11:34Z</time>
      </trkpt>
      <trkpt lat="49.38763" lon="3.68778">
        <ele>51.09</ele>
        <time>2021-08-09T06:11:35Z</time>
      </trkpt>
      <trkpt lat="49.3876" lon="3.68779">
        <ele>51.09</ele>
        <time>2021-08-09T06:11:36Z</time>
      </trkpt>
      <trkpt lat="49.38757" lon="3.68779">
        <ele>51.09</ele>
        <time>2021-08-09T06:11:37Z</time>
      </trkpt>
      <trkpt lat="49.38754" lon="3.68778">
        <ele>51.09</ele>
        <time>2021-08-09T06:11:38Z</time>
      </trkpt>
      <trkpt lat="49.3875" lon="3.68778">
        <ele>51.09</ele>
        <time>2021-08-09T06:11:39Z</time>
      </trkpt>
      <trkpt lat="49.38738" lon="3.68778">
        <ele>51.09</ele>
        <time>2021-08-09T06:11:42Z</time>
      </trkpt>
      <trkpt lat="49.38734" lon="3.68779">
        <ele>51.09</ele>
        <time>2021-08-09T06:11:43Z</time>
      </trkpt>
      <trkpt lat="49.38729" lon="3.68778">
        <ele>49.65</ele>
        <time>2021-08-09T06:11:44Z</time>
      </trkpt>
      <trkpt lat="49.38724" lon="3.68779">
        <ele>49.65</ele>
        <time>2021-08-09T06:11:45Z</time>
      </trkpt>
      <trkpt lat="49.38719" lon="3.68779">
        <ele>49.65</ele>
        <time>2021-08-09T06:11:46Z</time>
      </trkpt>
      <trkpt lat="49.38691" lon="3.6878">
        <ele>49.65</ele>
        <time>2021-08-09T06:11:52Z</time>
      </trkpt>
      <trkpt lat="49.38656" lon="3.68787">
        <ele>51.09</ele>
        <time>2021-08-09T06:12:00Z</time>
      </trkpt>
      <trkpt lat="49.38613" lon="3.68803">
        <ele>51.57</ele>
        <time>2021-08-09T06:12:10Z</time>
      </trkpt>
      <trkpt lat="49.38584" lon="3.68813">
        <ele>50.13</ele>
        <time>2021-08-09T06:12:16Z</time>
      </trkpt>
      <trkpt lat="49.38568" lon="3.68816">
        <ele>48.68</ele>
        <time>2021-08-09T06:12:19Z</time>
      </trkpt>
      <trkpt lat="49.38562" lon="3.68815">
        <ele>48.68</ele>
        <time>2021-08-09T06:12:20Z</time>
      </trkpt>
      <trkpt lat="49.38556" lon="3.68814">
        <ele>48.68</ele>
        <time>2021-08-09T06:12:21Z</time>
      </trkpt>
      <trkpt lat="49.38503" lon="3.68791">
        <ele>48.2</ele>
        <time>2021-08-09T06:12:30Z</time>
      </trkpt>
      <trkpt lat="49.38453" lon="3.68765">
        <ele>48.2</ele>
        <time>2021-08-09T06:12:39Z</time>
      </trkpt>
      <trkpt lat="49.38405" lon="3.68738">
        <ele>49.65</ele>
        <time>2021-08-09T06:12:49Z</time>
      </trkpt>
      <trkpt lat="49.38363" lon="3.68715">
        <ele>49.65</ele>
        <time>2021-08-09T06:12:58Z</time>
      </trkpt>
      <trkpt lat="49.38351" lon="3.68708">
        <ele>50.13</ele>
        <time>2021-08-09T06:13:01Z</time>
      </trkpt>
      <trkpt lat="49.38326" lon="3.68696">
        <ele>50.61</ele>
        <time>2021-08-09T06:13:07Z</time>
      </trkpt>
      <trkpt lat="49.38322" lon="3.68693">
        <ele>50.61</ele>
        <time>2021-08-09T06:13:08Z</time>
      </trkpt>
      <trkpt lat="49.38273" lon="3.68668">
        <ele>51.09</ele>
        <time>2021-08-09T06:13:20Z</time>
      </trkpt>
      <trkpt lat="49.38231" lon="3.68649">
        <ele>52.05</ele>
        <time>2021-08-09T06:13:31Z</time>
      </trkpt>
      <trkpt lat="49.38185" lon="3.68628">
        <ele>52.53</ele>
        <time>2021-08-09T06:13:43Z</time>
      </trkpt>
      <trkpt lat="49.38129" lon="3.68604">
        <ele>53.49</ele>
        <time>2021-08-09T06:13:57Z</time>
      </trkpt>
      <trkpt lat="49.38107" lon="3.68597">
        <ele>54.93</ele>
        <time>2021-08-09T06:14:04Z</time>
      </trkpt>
      <trkpt lat="49.38084" lon="3.6859">
        <ele>55.89</ele>
        <time>2021-08-09T06:14:12Z</time>
      </trkpt>
      <trkpt lat="49.38049" lon="3.68581">
        <ele>56.86</ele>
        <time>2021-08-09T06:14:22Z</time>
      </trkpt>
      <trkpt lat="49.38014" lon="3.68575">
        <ele>57.82</ele>
        <time>2021-08-09T06:14:32Z</time>
      </trkpt>
      <trkpt lat="49.37984" lon="3.68568">
        <ele>57.82</ele>
        <time>2021-08-09T06:14:39Z</time>
      </trkpt>
      <trkpt lat="49.37973" lon="3.68566">
        <ele>56.37</ele>
        <time>2021-08-09T06:14:41Z</time>
      </trkpt>
      <trkpt lat="49.37944" lon="3.6856">
        <ele>53.97</ele>
        <time>2021-08-09T06:14:46Z</time>
      </trkpt>
      <trkpt lat="49.37887" lon="3.6855">
        <ele>53.97</ele>
        <time>2021-08-09T06:14:56Z</time>
      </trkpt>
      <trkpt lat="49.37819" lon="3.68538">
        <ele>53.97</ele>
        <time>2021-08-09T06:15:09Z</time>
      </trkpt>
      <trkpt lat="49.37791" lon="3.68527">
        <ele>53.97</ele>
        <time>2021-08-09T06:15:15Z</time>
      </trkpt>
      <trkpt lat="49.37786" lon="3.68524">
        <ele>53.97</ele>
        <time>2021-08-09T06:15:16Z</time>
      </trkpt>
      <trkpt lat="49.37765" lon="3.68503">
        <ele>55.89</ele>
        <time>2021-08-09T06:15:22Z</time>
      </trkpt>
      <trkpt lat="49.37762" lon="3.68498">
        <ele>55.89</ele>
        <time>2021-08-09T06:15:23Z</time>
      </trkpt>
      <trkpt lat="49.37754" lon="3.68483">
        <ele>55.89</ele>
        <time>2021-08-09T06:15:26Z</time>
      </trkpt>
      <trkpt lat="49.3773" lon="3.68415">
        <ele>56.86</ele>
        <time>2021-08-09T06:15:37Z</time>
      </trkpt>
      <trkpt lat="49.3771" lon="3.68359">
        <ele>56.86</ele>
        <time>2021-08-09T06:15:47Z</time>
      </trkpt>
      <trkpt lat="49.37711" lon="3.68354">
        <ele>57.82</ele>
        <time>2021-08-09T06:15:48Z</time>
      </trkpt>
      <trkpt lat="49.37713" lon="3.6835">
        <ele>58.3</ele>
        <time>2021-08-09T06:15:49Z</time>
      </trkpt>
      <trkpt lat="49.37731" lon="3.68338">
        <ele>58.3</ele>
        <time>2021-08-09T06:15:54Z</time>
      </trkpt>
      <trkpt lat="49.37735" lon="3.68336">
        <ele>58.3</ele>
        <time>2021-08-09T06:15:55Z</time>
      </trkpt>
      <trkpt lat="49.37739" lon="3.68333">
        <ele>58.3</ele>
        <time>2021-08-09T06:15:56Z</time>
      </trkpt>
      <trkpt lat="49.37774" lon="3.68301">
        <ele>58.3</ele>
        <time>2021-08-09T06:16:04Z</time>
      </trkpt>
      <trkpt lat="49.37778" lon="3.68295">
        <ele>58.3</ele>
        <time>2021-08-09T06:16:05Z</time>
      </trkpt>
      <trkpt lat="49.37793" lon="3.68271">
        <ele>56.86</ele>
        <time>2021-08-09T06:16:09Z</time>
      </trkpt>
      <trkpt lat="49.3783" lon="3.68214">
        <ele>55.89</ele>
        <time>2021-08-09T06:16:18Z</time>
      </trkpt>
      <trkpt lat="49.37842" lon="3.68195">
        <ele>56.37</ele>
        <time>2021-08-09T06:16:21Z</time>
      </trkpt>
      <trkpt lat="49.37846" lon="3.68188">
        <ele>55.89</ele>
        <time>2021-08-09T06:16:22Z</time>
      </trkpt>
      <trkpt lat="49.37875" lon="3.68143">
        <ele>54.93</ele>
        <time>2021-08-09T06:16:29Z</time>
      </trkpt>
      <trkpt lat="49.37879" lon="3.68136">
        <ele>54.93</ele>
        <time>2021-08-09T06:16:30Z</time>
      </trkpt>
      <trkpt lat="49.37912" lon="3.68083">
        <ele>54.45</ele>
        <time>2021-08-09T06:16:38Z</time>
      </trkpt>
      <trkpt lat="49.37923" lon="3.68066">
        <ele>54.45</ele>
        <time>2021-08-09T06:16:41Z</time>
      </trkpt>
      <trkpt lat="49.37927" lon="3.6806">
        <ele>54.45</ele>
        <time>2021-08-09T06:16:42Z</time>
      </trkpt>
      <trkpt lat="49.3793" lon="3.68055">
        <ele>54.45</ele>
        <time>2021-08-09T06:16:43Z</time>
      </trkpt>
      <trkpt lat="49.37933" lon="3.68051">
        <ele>54.45</ele>
        <time>2021-08-09T06:16:44Z</time>
      </trkpt>
      <trkpt lat="49.37937" lon="3.68045">
        <ele>54.45</ele>
        <time>2021-08-09T06:16:45Z</time>
      </trkpt>
      <trkpt lat="49.37952" lon="3.68021">
        <ele>54.45</ele>
        <time>2021-08-09T06:16:49Z</time>
      </trkpt>
      <trkpt lat="49.37955" lon="3.68016">
        <ele>54.45</ele>
        <time>2021-08-09T06:16:50Z</time>
      </trkpt>
      <trkpt lat="49.37959" lon="3.68009">
        <ele>54.45</ele>
        <time>2021-08-09T06:16:51Z</time>
      </trkpt>
      <trkpt lat="49.37962" lon="3.68003">
        <ele>54.45</ele>
        <time>2021-08-09T06:16:52Z</time>
      </trkpt>
      <trkpt lat="49.37965" lon="3.67997">
        <ele>54.45</ele>
        <time>2021-08-09T06:16:53Z</time>
      </trkpt>
      <trkpt lat="49.37968" lon="3.6799">
        <ele>54.45</ele>
        <time>2021-08-09T06:16:54Z</time>
      </trkpt>
      <trkpt lat="49.37988" lon="3.6794">
        <ele>54.45</ele>
        <time>2021-08-09T06:17:01Z</time>
      </trkpt>
      <trkpt lat="49.38009" lon="3.67869">
        <ele>53.97</ele>
        <time>2021-08-09T06:17:10Z</time>
      </trkpt>
      <trkpt lat="49.3803" lon="3.67797">
        <ele>53.49</ele>
        <time>2021-08-09T06:17:19Z</time>
      </trkpt>
      <trkpt lat="49.38042" lon="3.67745">
        <ele>53.49</ele>
        <time>2021-08-09T06:17:26Z</time>
      </trkpt>
      <trkpt lat="49.38041" lon="3.67739">
        <ele>53.49</ele>
        <time>2021-08-09T06:17:27Z</time>
      </trkpt>
      <trkpt lat="49.3804" lon="3.67733">
        <ele>53.49</ele>
        <time>2021-08-09T06:17:28Z</time>
      </trkpt>
      <trkpt lat="49.38037" lon="3.67728">
        <ele>53.49</ele>
        <time>2021-08-09T06:17:29Z</time>
      </trkpt>
      <trkpt lat="49.38035" lon="3.67724">
        <ele>53.49</ele>
        <time>2021-08-09T06:17:30Z</time>
      </trkpt>
      <trkpt lat="49.38032" lon="3.67721">
        <ele>53.49</ele>
        <time>2021-08-09T06:17:31Z</time>
      </trkpt>
      <trkpt lat="49.38028" lon="3.67718">
        <ele>53.49</ele>
        <time>2021-08-09T06:17:32Z</time>
      </trkpt>
      <trkpt lat="49.38025" lon="3.67715">
        <ele>53.49</ele>
        <time>2021-08-09T06:17:33Z</time>
      </trkpt>
      <trkpt lat="49.38021" lon="3.67711">
        <ele>53.49</ele>
        <time>2021-08-09T06:17:34Z</time>
      </trkpt>
      <trkpt lat="49.38018" lon="3.67706">
        <ele>53.49</ele>
        <time>2021-08-09T06:17:35Z</time>
      </trkpt>
      <trkpt lat="49.38015" lon="3.67701">
        <ele>53.49</ele>
        <time>2021-08-09T06:17:36Z</time>
      </trkpt>
      <trkpt lat="49.38004" lon="3.67685">
        <ele>54.45</ele>
        <time>2021-08-09T06:17:40Z</time>
      </trkpt>
      <trkpt lat="49.37984" lon="3.67667">
        <ele>55.89</ele>
        <time>2021-08-09T06:17:47Z</time>
      </trkpt>
      <trkpt lat="49.37962" lon="3.67661">
        <ele>57.34</ele>
        <time>2021-08-09T06:17:56Z</time>
      </trkpt>
      <trkpt lat="49.37945" lon="3.67657">
        <ele>58.78</ele>
        <time>2021-08-09T06:18:05Z</time>
      </trkpt>
      <trkpt lat="49.37928" lon="3.67656">
        <ele>60.7</ele>
        <time>2021-08-09T06:18:14Z</time>
      </trkpt>
      <trkpt lat="49.37911" lon="3.67653">
        <ele>62.14</ele>
        <time>2021-08-09T06:18:22Z</time>
      </trkpt>
      <trkpt lat="49.37894" lon="3.67648">
        <ele>63.58</ele>
        <time>2021-08-09T06:18:31Z</time>
      </trkpt>
      <trkpt lat="49.37877" lon="3.67645">
        <ele>65.03</ele>
        <time>2021-08-09T06:18:40Z</time>
      </trkpt>
      <trkpt lat="49.3786" lon="3.67641">
        <ele>65.99</ele>
        <time>2021-08-09T06:18:48Z</time>
      </trkpt>
      <trkpt lat="49.37843" lon="3.67636">
        <ele>66.47</ele>
        <time>2021-08-09T06:18:55Z</time>
      </trkpt>
      <trkpt lat="49.37826" lon="3.67632">
        <ele>66.95</ele>
        <time>2021-08-09T06:19:02Z</time>
      </trkpt>
      <trkpt lat="49.3781" lon="3.67639">
        <ele>67.43</ele>
        <time>2021-08-09T06:19:09Z</time>
      </trkpt>
      <trkpt lat="49.37799" lon="3.6766">
        <ele>67.43</ele>
        <time>2021-08-09T06:19:15Z</time>
      </trkpt>
      <trkpt lat="49.37791" lon="3.67669">
        <ele>67.43</ele>
        <time>2021-08-09T06:19:18Z</time>
      </trkpt>
      <trkpt lat="49.37787" lon="3.67668">
        <ele>67.43</ele>
        <time>2021-08-09T06:19:19Z</time>
      </trkpt>
      <trkpt lat="49.37785" lon="3.67667">
        <ele>67.43</ele>
        <time>2021-08-09T06:19:20Z</time>
      </trkpt>
      <trkpt lat="49.37768" lon="3.67646">
        <ele>68.39</ele>
        <time>2021-08-09T06:19:27Z</time>
      </trkpt>
      <trkpt lat="49.37743" lon="3.67625">
        <ele>68.87</ele>
        <time>2021-08-09T06:19:35Z</time>
      </trkpt>
      <trkpt lat="49.37718" lon="3.67619">
        <ele>68.87</ele>
        <time>2021-08-09T06:19:42Z</time>
      </trkpt>
      <trkpt lat="49.37699" lon="3.67617">
        <ele>69.35</ele>
        <time>2021-08-09T06:19:48Z</time>
      </trkpt>
      <trkpt lat="49.37665" lon="3.67612">
        <ele>69.83</ele>
        <time>2021-08-09T06:19:57Z</time>
      </trkpt>
      <trkpt lat="49.37636" lon="3.67606">
        <ele>70.79</ele>
        <time>2021-08-09T06:20:04Z</time>
      </trkpt>
      <trkpt lat="49.37599" lon="3.676">
        <ele>70.79</ele>
        <time>2021-08-09T06:20:13Z</time>
      </trkpt>
      <trkpt lat="49.37586" lon="3.67597">
        <ele>70.79</ele>
        <time>2021-08-09T06:20:16Z</time>
      </trkpt>
      <trkpt lat="49.37582" lon="3.67596">
        <ele>70.79</ele>
        <time>2021-08-09T06:20:17Z</time>
      </trkpt>
      <trkpt lat="49.37579" lon="3.67595">
        <ele>70.79</ele>
        <time>2021-08-09T06:20:18Z</time>
      </trkpt>
      <trkpt lat="49.37543" lon="3.67582">
        <ele>70.79</ele>
        <time>2021-08-09T06:20:27Z</time>
      </trkpt>
      <trkpt lat="49.37508" lon="3.67565">
        <ele>70.79</ele>
        <time>2021-08-09T06:20:37Z</time>
      </trkpt>
      <trkpt lat="49.37476" lon="3.6755">
        <ele>70.79</ele>
        <time>2021-08-09T06:20:46Z</time>
      </trkpt>
      <trkpt lat="49.37436" lon="3.67531">
        <ele>71.76</ele>
        <time>2021-08-09T06:20:57Z</time>
      </trkpt>
      <trkpt lat="49.37396" lon="3.67515">
        <ele>72.72</ele>
        <time>2021-08-09T06:21:08Z</time>
      </trkpt>
      <trkpt lat="49.37361" lon="3.67501">
        <ele>73.68</ele>
        <time>2021-08-09T06:21:17Z</time>
      </trkpt>
      <trkpt lat="49.37315" lon="3.67483">
        <ele>73.68</ele>
        <time>2021-08-09T06:21:29Z</time>
      </trkpt>
      <trkpt lat="49.3727" lon="3.67466">
        <ele>74.64</ele>
        <time>2021-08-09T06:21:41Z</time>
      </trkpt>
      <trkpt lat="49.37254" lon="3.6746">
        <ele>74.64</ele>
        <time>2021-08-09T06:21:45Z</time>
      </trkpt>
      <trkpt lat="49.37207" lon="3.67441">
        <ele>75.6</ele>
        <time>2021-08-09T06:21:57Z</time>
      </trkpt>
      <trkpt lat="49.37171" lon="3.67425">
        <ele>76.56</ele>
        <time>2021-08-09T06:22:07Z</time>
      </trkpt>
      <trkpt lat="49.37138" lon="3.67405">
        <ele>77.04</ele>
        <time>2021-08-09T06:22:16Z</time>
      </trkpt>
      <trkpt lat="49.37106" lon="3.67383">
        <ele>78</ele>
        <time>2021-08-09T06:22:25Z</time>
      </trkpt>
      <trkpt lat="49.37077" lon="3.6737">
        <ele>78.48</ele>
        <time>2021-08-09T06:22:33Z</time>
      </trkpt>
      <trkpt lat="49.37041" lon="3.67351">
        <ele>78.48</ele>
        <time>2021-08-09T06:22:42Z</time>
      </trkpt>
      <trkpt lat="49.3702" lon="3.67335">
        <ele>78.48</ele>
        <time>2021-08-09T06:22:47Z</time>
      </trkpt>
      <trkpt lat="49.36972" lon="3.67306">
        <ele>78.48</ele>
        <time>2021-08-09T06:22:58Z</time>
      </trkpt>
      <trkpt lat="49.36935" lon="3.67287">
        <ele>78.97</ele>
        <time>2021-08-09T06:23:07Z</time>
      </trkpt>
      <trkpt lat="49.36911" lon="3.67276">
        <ele>79.93</ele>
        <time>2021-08-09T06:23:14Z</time>
      </trkpt>
      <trkpt lat="49.36887" lon="3.67269">
        <ele>80.41</ele>
        <time>2021-08-09T06:23:20Z</time>
      </trkpt>
      <trkpt lat="49.36883" lon="3.67267">
        <ele>80.41</ele>
        <time>2021-08-09T06:23:21Z</time>
      </trkpt>
      <trkpt lat="49.36848" lon="3.67257">
        <ele>81.85</ele>
        <time>2021-08-09T06:23:30Z</time>
      </trkpt>
      <trkpt lat="49.36812" lon="3.67246">
        <ele>83.77</ele>
        <time>2021-08-09T06:23:39Z</time>
      </trkpt>
      <trkpt lat="49.36796" lon="3.67236">
        <ele>84.73</ele>
        <time>2021-08-09T06:23:45Z</time>
      </trkpt>
      <trkpt lat="49.36786" lon="3.67222">
        <ele>85.69</ele>
        <time>2021-08-09T06:23:52Z</time>
      </trkpt>
      <trkpt lat="49.36777" lon="3.67208">
        <ele>86.66</ele>
        <time>2021-08-09T06:24:00Z</time>
      </trkpt>
      <trkpt lat="49.36775" lon="3.67207">
        <ele>87.14</ele>
        <time>2021-08-09T06:24:01Z</time>
      </trkpt>
      <trkpt lat="49.36774" lon="3.67206">
        <ele>87.14</ele>
        <time>2021-08-09T06:24:02Z</time>
      </trkpt>
      <trkpt lat="49.36772" lon="3.67205">
        <ele>87.14</ele>
        <time>2021-08-09T06:24:03Z</time>
      </trkpt>
      <trkpt lat="49.36763" lon="3.67195">
        <ele>88.1</ele>
        <time>2021-08-09T06:24:11Z</time>
      </trkpt>
      <trkpt lat="49.36755" lon="3.67185">
        <ele>89.54</ele>
        <time>2021-08-09T06:24:19Z</time>
      </trkpt>
      <trkpt lat="49.36748" lon="3.67177">
        <ele>90.98</ele>
        <time>2021-08-09T06:24:27Z</time>
      </trkpt>
      <trkpt lat="49.36747" lon="3.67175">
        <ele>90.98</ele>
        <time>2021-08-09T06:24:28Z</time>
      </trkpt>
      <trkpt lat="49.36741" lon="3.67163">
        <ele>92.42</ele>
        <time>2021-08-09T06:24:36Z</time>
      </trkpt>
      <trkpt lat="49.36734" lon="3.67147">
        <ele>93.87</ele>
        <time>2021-08-09T06:24:45Z</time>
      </trkpt>
      <trkpt lat="49.36724" lon="3.67136">
        <ele>94.35</ele>
        <time>2021-08-09T06:24:54Z</time>
      </trkpt>
      <trkpt lat="49.36714" lon="3.67128">
        <ele>95.79</ele>
        <time>2021-08-09T06:25:02Z</time>
      </trkpt>
      <trkpt lat="49.36713" lon="3.67127">
        <ele>96.27</ele>
        <time>2021-08-09T06:25:03Z</time>
      </trkpt>
      <trkpt lat="49.36703" lon="3.67119">
        <ele>96.75</ele>
        <time>2021-08-09T06:25:12Z</time>
      </trkpt>
      <trkpt lat="49.36693" lon="3.67109">
        <ele>98.19</ele>
        <time>2021-08-09T06:25:21Z</time>
      </trkpt>
      <trkpt lat="49.36683" lon="3.67102">
        <ele>99.63</ele>
        <time>2021-08-09T06:25:28Z</time>
      </trkpt>
      <trkpt lat="49.3668" lon="3.671">
        <ele>100.11</ele>
        <time>2021-08-09T06:25:30Z</time>
      </trkpt>
      <trkpt lat="49.36674" lon="3.67093">
        <ele>101.08</ele>
        <time>2021-08-09T06:25:38Z</time>
      </trkpt>
      <trkpt lat="49.36669" lon="3.67086">
        <ele>101.08</ele>
        <time>2021-08-09T06:25:49Z</time>
      </trkpt>
      <trkpt lat="49.3667" lon="3.67086">
        <ele>101.08</ele>
        <time>2021-08-09T06:25:54Z</time>
      </trkpt>
      <trkpt lat="49.36679" lon="3.67094">
        <ele>99.63</ele>
        <time>2021-08-09T06:25:59Z</time>
      </trkpt>
      <trkpt lat="49.36686" lon="3.67099">
        <ele>98.67</ele>
        <time>2021-08-09T06:26:05Z</time>
      </trkpt>
      <trkpt lat="49.36686" lon="3.671">
        <ele>98.67</ele>
        <time>2021-08-09T06:26:20Z</time>
      </trkpt>
      <trkpt lat="49.36684" lon="3.67099">
        <ele>98.67</ele>
        <time>2021-08-09T06:26:33Z</time>
      </trkpt>
      <trkpt lat="49.36684" lon="3.67098">
        <ele>98.67</ele>
        <time>2021-08-09T06:26:39Z</time>
      </trkpt>
      <trkpt lat="49.36683" lon="3.67098">
        <ele>98.67</ele>
        <time>2021-08-09T06:26:40Z</time>
      </trkpt>
      <trkpt lat="49.36675" lon="3.6709">
        <ele>100.11</ele>
        <time>2021-08-09T06:26:48Z</time>
      </trkpt>
      <trkpt lat="49.36669" lon="3.67083">
        <ele>101.56</ele>
        <time>2021-08-09T06:26:56Z</time>
      </trkpt>
      <trkpt lat="49.36664" lon="3.67073">
        <ele>102.52</ele>
        <time>2021-08-09T06:27:02Z</time>
      </trkpt>
      <trkpt lat="49.36659" lon="3.67055">
        <ele>104.44</ele>
        <time>2021-08-09T06:27:12Z</time>
      </trkpt>
      <trkpt lat="49.36658" lon="3.67049">
        <ele>105.4</ele>
        <time>2021-08-09T06:27:16Z</time>
      </trkpt>
      <trkpt lat="49.36658" lon="3.67032">
        <ele>106.36</ele>
        <time>2021-08-09T06:27:24Z</time>
      </trkpt>
      <trkpt lat="49.36657" lon="3.67014">
        <ele>107.81</ele>
        <time>2021-08-09T06:27:33Z</time>
      </trkpt>
      <trkpt lat="49.36658" lon="3.67">
        <ele>109.73</ele>
        <time>2021-08-09T06:27:41Z</time>
      </trkpt>
      <trkpt lat="49.36657" lon="3.6699">
        <ele>110.21</ele>
        <time>2021-08-09T06:27:45Z</time>
      </trkpt>
      <trkpt lat="49.36653" lon="3.66974">
        <ele>112.13</ele>
        <time>2021-08-09T06:27:52Z</time>
      </trkpt>
      <trkpt lat="49.36653" lon="3.66961">
        <ele>113.09</ele>
        <time>2021-08-09T06:27:59Z</time>
      </trkpt>
      <trkpt lat="49.36653" lon="3.66949">
        <ele>114.05</ele>
        <time>2021-08-09T06:28:05Z</time>
      </trkpt>
      <trkpt lat="49.36653" lon="3.66939">
        <ele>115.5</ele>
        <time>2021-08-09T06:28:10Z</time>
      </trkpt>
      <trkpt lat="49.36654" lon="3.66922">
        <ele>117.42</ele>
        <time>2021-08-09T06:28:19Z</time>
      </trkpt>
      <trkpt lat="49.36653" lon="3.66908">
        <ele>118.86</ele>
        <time>2021-08-09T06:28:27Z</time>
      </trkpt>
      <trkpt lat="49.36653" lon="3.66894">
        <ele>120.3</ele>
        <time>2021-08-09T06:28:35Z</time>
      </trkpt>
      <trkpt lat="49.36651" lon="3.6688">
        <ele>121.74</ele>
        <time>2021-08-09T06:28:43Z</time>
      </trkpt>
      <trkpt lat="49.36647" lon="3.66864">
        <ele>123.67</ele>
        <time>2021-08-09T06:28:51Z</time>
      </trkpt>
      <trkpt lat="49.36646" lon="3.66851">
        <ele>125.11</ele>
        <time>2021-08-09T06:28:58Z</time>
      </trkpt>
      <trkpt lat="49.36646" lon="3.66834">
        <ele>127.03</ele>
        <time>2021-08-09T06:29:07Z</time>
      </trkpt>
      <trkpt lat="49.36646" lon="3.66815">
        <ele>128.95</ele>
        <time>2021-08-09T06:29:15Z</time>
      </trkpt>
      <trkpt lat="49.36646" lon="3.66813">
        <ele>128.95</ele>
        <time>2021-08-09T06:29:16Z</time>
      </trkpt>
      <trkpt lat="49.36645" lon="3.66797">
        <ele>129.92</ele>
        <time>2021-08-09T06:29:23Z</time>
      </trkpt>
      <trkpt lat="49.36643" lon="3.66783">
        <ele>130.88</ele>
        <time>2021-08-09T06:29:29Z</time>
      </trkpt>
      <trkpt lat="49.36642" lon="3.66771">
        <ele>131.36</ele>
        <time>2021-08-09T06:29:34Z</time>
      </trkpt>
      <trkpt lat="49.36639" lon="3.66764">
        <ele>131.36</ele>
        <time>2021-08-09T06:29:37Z</time>
      </trkpt>
      <trkpt lat="49.36634" lon="3.66743">
        <ele>131.36</ele>
        <time>2021-08-09T06:29:45Z</time>
      </trkpt>
      <trkpt lat="49.36626" lon="3.66721">
        <ele>131.84</ele>
        <time>2021-08-09T06:29:52Z</time>
      </trkpt>
      <trkpt lat="49.36613" lon="3.66686">
        <ele>132.32</ele>
        <time>2021-08-09T06:30:01Z</time>
      </trkpt>
      <trkpt lat="49.36598" lon="3.66658">
        <ele>132.32</ele>
        <time>2021-08-09T06:30:09Z</time>
      </trkpt>
      <trkpt lat="49.36587" lon="3.66641">
        <ele>132.32</ele>
        <time>2021-08-09T06:30:15Z</time>
      </trkpt>
      <trkpt lat="49.36579" lon="3.66624">
        <ele>132.32</ele>
        <time>2021-08-09T06:30:20Z</time>
      </trkpt>
      <trkpt lat="49.36565" lon="3.66604">
        <ele>133.28</ele>
        <time>2021-08-09T06:30:26Z</time>
      </trkpt>
      <trkpt lat="49.36552" lon="3.66584">
        <ele>133.76</ele>
        <time>2021-08-09T06:30:32Z</time>
      </trkpt>
      <trkpt lat="49.36536" lon="3.66565">
        <ele>134.24</ele>
        <time>2021-08-09T06:30:39Z</time>
      </trkpt>
      <trkpt lat="49.36518" lon="3.66548">
        <ele>134.24</ele>
        <time>2021-08-09T06:30:46Z</time>
      </trkpt>
      <trkpt lat="49.36501" lon="3.66526">
        <ele>132.8</ele>
        <time>2021-08-09T06:30:53Z</time>
      </trkpt>
      <trkpt lat="49.36484" lon="3.66506">
        <ele>133.28</ele>
        <time>2021-08-09T06:30:59Z</time>
      </trkpt>
      <trkpt lat="49.3645" lon="3.66477">
        <ele>132.8</ele>
        <time>2021-08-09T06:31:10Z</time>
      </trkpt>
      <trkpt lat="49.36429" lon="3.66466">
        <ele>134.24</ele>
        <time>2021-08-09T06:31:17Z</time>
      </trkpt>
      <trkpt lat="49.36404" lon="3.66452">
        <ele>134.72</ele>
        <time>2021-08-09T06:31:26Z</time>
      </trkpt>
      <trkpt lat="49.36374" lon="3.66447">
        <ele>135.2</ele>
        <time>2021-08-09T06:31:35Z</time>
      </trkpt>
      <trkpt lat="49.36348" lon="3.66452">
        <ele>135.2</ele>
        <time>2021-08-09T06:31:43Z</time>
      </trkpt>
      <trkpt lat="49.36323" lon="3.66452">
        <ele>135.68</ele>
        <time>2021-08-09T06:31:51Z</time>
      </trkpt>
      <trkpt lat="49.363" lon="3.66453">
        <ele>135.68</ele>
        <time>2021-08-09T06:31:58Z</time>
      </trkpt>
      <trkpt lat="49.36268" lon="3.66455">
        <ele>136.16</ele>
        <time>2021-08-09T06:32:08Z</time>
      </trkpt>
      <trkpt lat="49.36244" lon="3.66455">
        <ele>136.64</ele>
        <time>2021-08-09T06:32:15Z</time>
      </trkpt>
      <trkpt lat="49.36235" lon="3.6646">
        <ele>137.13</ele>
        <time>2021-08-09T06:32:19Z</time>
      </trkpt>
      <trkpt lat="49.36234" lon="3.66463">
        <ele>137.13</ele>
        <time>2021-08-09T06:32:20Z</time>
      </trkpt>
      <trkpt lat="49.36232" lon="3.66465">
        <ele>137.13</ele>
        <time>2021-08-09T06:32:21Z</time>
      </trkpt>
      <trkpt lat="49.36229" lon="3.66468">
        <ele>137.13</ele>
        <time>2021-08-09T06:32:22Z</time>
      </trkpt>
      <trkpt lat="49.36227" lon="3.6647">
        <ele>137.13</ele>
        <time>2021-08-09T06:32:23Z</time>
      </trkpt>
      <trkpt lat="49.36214" lon="3.66481">
        <ele>136.16</ele>
        <time>2021-08-09T06:32:27Z</time>
      </trkpt>
      <trkpt lat="49.36204" lon="3.66489">
        <ele>135.68</ele>
        <time>2021-08-09T06:32:30Z</time>
      </trkpt>
      <trkpt lat="49.36181" lon="3.66509">
        <ele>135.68</ele>
        <time>2021-08-09T06:32:37Z</time>
      </trkpt>
      <trkpt lat="49.36168" lon="3.66518">
        <ele>137.13</ele>
        <time>2021-08-09T06:32:42Z</time>
      </trkpt>
      <trkpt lat="49.3615" lon="3.66527">
        <ele>137.61</ele>
        <time>2021-08-09T06:32:50Z</time>
      </trkpt>
      <trkpt lat="49.36126" lon="3.66539">
        <ele>137.61</ele>
        <time>2021-08-09T06:32:59Z</time>
      </trkpt>
      <trkpt lat="49.36104" lon="3.66547">
        <ele>137.61</ele>
        <time>2021-08-09T06:33:06Z</time>
      </trkpt>
      <trkpt lat="49.36085" lon="3.66557">
        <ele>137.61</ele>
        <time>2021-08-09T06:33:13Z</time>
      </trkpt>
      <trkpt lat="49.36067" lon="3.66572">
        <ele>135.68</ele>
        <time>2021-08-09T06:33:20Z</time>
      </trkpt>
      <trkpt lat="49.36056" lon="3.66586">
        <ele>135.68</ele>
        <time>2021-08-09T06:33:25Z</time>
      </trkpt>
      <trkpt lat="49.36043" lon="3.66615">
        <ele>135.68</ele>
        <time>2021-08-09T06:33:32Z</time>
      </trkpt>
      <trkpt lat="49.36036" lon="3.66651">
        <ele>135.2</ele>
        <time>2021-08-09T06:33:38Z</time>
      </trkpt>
      <trkpt lat="49.36033" lon="3.66679">
        <ele>135.2</ele>
        <time>2021-08-09T06:33:43Z</time>
      </trkpt>
      <trkpt lat="49.36033" lon="3.66693">
        <ele>133.76</ele>
        <time>2021-08-09T06:33:45Z</time>
      </trkpt>
      <trkpt lat="49.36033" lon="3.66702">
        <ele>133.76</ele>
        <time>2021-08-09T06:33:46Z</time>
      </trkpt>
      <trkpt lat="49.36028" lon="3.6674">
        <ele>131.84</ele>
        <time>2021-08-09T06:33:50Z</time>
      </trkpt>
      <trkpt lat="49.36011" lon="3.66823">
        <ele>129.92</ele>
        <time>2021-08-09T06:33:58Z</time>
      </trkpt>
      <trkpt lat="49.36003" lon="3.66851">
        <ele>129.92</ele>
        <time>2021-08-09T06:34:01Z</time>
      </trkpt>
      <trkpt lat="49.35999" lon="3.66859">
        <ele>129.43</ele>
        <time>2021-08-09T06:34:02Z</time>
      </trkpt>
      <trkpt lat="49.35995" lon="3.66865">
        <ele>129.92</ele>
        <time>2021-08-09T06:34:03Z</time>
      </trkpt>
      <trkpt lat="49.3599" lon="3.66871">
        <ele>129.92</ele>
        <time>2021-08-09T06:34:04Z</time>
      </trkpt>
      <trkpt lat="49.35986" lon="3.66875">
        <ele>129.92</ele>
        <time>2021-08-09T06:34:05Z</time>
      </trkpt>
      <trkpt lat="49.35981" lon="3.66879">
        <ele>129.92</ele>
        <time>2021-08-09T06:34:06Z</time>
      </trkpt>
      <trkpt lat="49.35957" lon="3.669">
        <ele>129.92</ele>
        <time>2021-08-09T06:34:11Z</time>
      </trkpt>
      <trkpt lat="49.3594" lon="3.66925">
        <ele>129.92</ele>
        <time>2021-08-09T06:34:15Z</time>
      </trkpt>
      <trkpt lat="49.35931" lon="3.66949">
        <ele>129.92</ele>
        <time>2021-08-09T06:34:18Z</time>
      </trkpt>
      <trkpt lat="49.3593" lon="3.66957">
        <ele>129.92</ele>
        <time>2021-08-09T06:34:19Z</time>
      </trkpt>
      <trkpt lat="49.35927" lon="3.66975">
        <ele>129.92</ele>
        <time>2021-08-09T06:34:21Z</time>
      </trkpt>
      <trkpt lat="49.35924" lon="3.67023">
        <ele>128.95</ele>
        <time>2021-08-09T06:34:26Z</time>
      </trkpt>
      <trkpt lat="49.35922" lon="3.67033">
        <ele>128.47</ele>
        <time>2021-08-09T06:34:27Z</time>
      </trkpt>
      <trkpt lat="49.35894" lon="3.67104">
        <ele>126.07</ele>
        <time>2021-08-09T06:34:35Z</time>
      </trkpt>
      <trkpt lat="49.3589" lon="3.67112">
        <ele>126.07</ele>
        <time>2021-08-09T06:34:36Z</time>
      </trkpt>
      <trkpt lat="49.35867" lon="3.67144">
        <ele>127.51</ele>
        <time>2021-08-09T06:34:41Z</time>
      </trkpt>
      <trkpt lat="49.35839" lon="3.67178">
        <ele>128.95</ele>
        <time>2021-08-09T06:34:48Z</time>
      </trkpt>
      <trkpt lat="49.35823" lon="3.67201">
        <ele>130.4</ele>
        <time>2021-08-09T06:34:55Z</time>
      </trkpt>
      <trkpt lat="49.35814" lon="3.67225">
        <ele>131.36</ele>
        <time>2021-08-09T06:35:02Z</time>
      </trkpt>
      <trkpt lat="49.35816" lon="3.67242">
        <ele>131.36</ele>
        <time>2021-08-09T06:35:05Z</time>
      </trkpt>
      <trkpt lat="49.35818" lon="3.67248">
        <ele>131.36</ele>
        <time>2021-08-09T06:35:06Z</time>
      </trkpt>
      <trkpt lat="49.35821" lon="3.6726">
        <ele>130.4</ele>
        <time>2021-08-09T06:35:08Z</time>
      </trkpt>
      <trkpt lat="49.3584" lon="3.67302">
        <ele>130.4</ele>
        <time>2021-08-09T06:35:16Z</time>
      </trkpt>
      <trkpt lat="49.35859" lon="3.6734">
        <ele>130.4</ele>
        <time>2021-08-09T06:35:24Z</time>
      </trkpt>
      <trkpt lat="49.35862" lon="3.67344">
        <ele>130.4</ele>
        <time>2021-08-09T06:35:25Z</time>
      </trkpt>
      <trkpt lat="49.35892" lon="3.67387">
        <ele>129.92</ele>
        <time>2021-08-09T06:35:34Z</time>
      </trkpt>
      <trkpt lat="49.35925" lon="3.67413">
        <ele>127.99</ele>
        <time>2021-08-09T06:35:41Z</time>
      </trkpt>
      <trkpt lat="49.35929" lon="3.67417">
        <ele>127.99</ele>
        <time>2021-08-09T06:35:42Z</time>
      </trkpt>
      <trkpt lat="49.35939" lon="3.67426">
        <ele>127.99</ele>
        <time>2021-08-09T06:35:44Z</time>
      </trkpt>
      <trkpt lat="49.35943" lon="3.67432">
        <ele>127.51</ele>
        <time>2021-08-09T06:35:45Z</time>
      </trkpt>
      <trkpt lat="49.35947" lon="3.67438">
        <ele>127.51</ele>
        <time>2021-08-09T06:35:46Z</time>
      </trkpt>
      <trkpt lat="49.3595" lon="3.67443">
        <ele>127.51</ele>
        <time>2021-08-09T06:35:47Z</time>
      </trkpt>
      <trkpt lat="49.35954" lon="3.67448">
        <ele>127.51</ele>
        <time>2021-08-09T06:35:48Z</time>
      </trkpt>
      <trkpt lat="49.35957" lon="3.67451">
        <ele>128.95</ele>
        <time>2021-08-09T06:35:49Z</time>
      </trkpt>
      <trkpt lat="49.35969" lon="3.67459">
        <ele>130.4</ele>
        <time>2021-08-09T06:35:55Z</time>
      </trkpt>
      <trkpt lat="49.35984" lon="3.67469">
        <ele>131.84</ele>
        <time>2021-08-09T06:36:04Z</time>
      </trkpt>
      <trkpt lat="49.35993" lon="3.67476">
        <ele>133.28</ele>
        <time>2021-08-09T06:36:11Z</time>
      </trkpt>
      <trkpt lat="49.35994" lon="3.67477">
        <ele>133.76</ele>
        <time>2021-08-09T06:36:12Z</time>
      </trkpt>
      <trkpt lat="49.35996" lon="3.67479">
        <ele>133.76</ele>
        <time>2021-08-09T06:36:13Z</time>
      </trkpt>
      <trkpt lat="49.36001" lon="3.67486">
        <ele>135.2</ele>
        <time>2021-08-09T06:36:18Z</time>
      </trkpt>
      <trkpt lat="49.36002" lon="3.67488">
        <ele>135.68</ele>
        <time>2021-08-09T06:36:19Z</time>
      </trkpt>
      <trkpt lat="49.36003" lon="3.6749">
        <ele>135.68</ele>
        <time>2021-08-09T06:36:20Z</time>
      </trkpt>
      <trkpt lat="49.36004" lon="3.67491">
        <ele>136.16</ele>
        <time>2021-08-09T06:36:21Z</time>
      </trkpt>
      <trkpt lat="49.36005" lon="3.67492">
        <ele>136.16</ele>
        <time>2021-08-09T06:36:22Z</time>
      </trkpt>
      <trkpt lat="49.36011" lon="3.67512">
        <ele>138.09</ele>
        <time>2021-08-09T06:36:31Z</time>
      </trkpt>
      <trkpt lat="49.36013" lon="3.6753">
        <ele>139.05</ele>
        <time>2021-08-09T06:36:38Z</time>
      </trkpt>
      <trkpt lat="49.36008" lon="3.67545">
        <ele>139.53</ele>
        <time>2021-08-09T06:36:45Z</time>
      </trkpt>
      <trkpt lat="49.35997" lon="3.67553">
        <ele>140.49</ele>
        <time>2021-08-09T06:36:52Z</time>
      </trkpt>
      <trkpt lat="49.35981" lon="3.67547">
        <ele>141.45</ele>
        <time>2021-08-09T06:37:01Z</time>
      </trkpt>
      <trkpt lat="49.35969" lon="3.67538">
        <ele>142.89</ele>
        <time>2021-08-09T06:37:08Z</time>
      </trkpt>
      <trkpt lat="49.35964" lon="3.67535">
        <ele>143.85</ele>
        <time>2021-08-09T06:37:11Z</time>
      </trkpt>
      <trkpt lat="49.35944" lon="3.67524">
        <ele>144.82</ele>
        <time>2021-08-09T06:37:21Z</time>
      </trkpt>
      <trkpt lat="49.3592" lon="3.6751">
        <ele>146.26</ele>
        <time>2021-08-09T06:37:33Z</time>
      </trkpt>
      <trkpt lat="49.35898" lon="3.67496">
        <ele>147.7</ele>
        <time>2021-08-09T06:37:43Z</time>
      </trkpt>
      <trkpt lat="49.35873" lon="3.67477">
        <ele>148.66</ele>
        <time>2021-08-09T06:37:54Z</time>
      </trkpt>
      <trkpt lat="49.35846" lon="3.67441">
        <ele>148.66</ele>
        <time>2021-08-09T06:38:06Z</time>
      </trkpt>
      <trkpt lat="49.35834" lon="3.67417">
        <ele>148.66</ele>
        <time>2021-08-09T06:38:13Z</time>
      </trkpt>
      <trkpt lat="49.35814" lon="3.67379">
        <ele>149.62</ele>
        <time>2021-08-09T06:38:23Z</time>
      </trkpt>
      <trkpt lat="49.35799" lon="3.67348">
        <ele>149.62</ele>
        <time>2021-08-09T06:38:31Z</time>
      </trkpt>
      <trkpt lat="49.35781" lon="3.67313">
        <ele>149.62</ele>
        <time>2021-08-09T06:38:39Z</time>
      </trkpt>
      <trkpt lat="49.35778" lon="3.67311">
        <ele>150.1</ele>
        <time>2021-08-09T06:38:40Z</time>
      </trkpt>
      <trkpt lat="49.35775" lon="3.67311">
        <ele>150.1</ele>
        <time>2021-08-09T06:38:41Z</time>
      </trkpt>
      <trkpt lat="49.35774" lon="3.67312">
        <ele>150.1</ele>
        <time>2021-08-09T06:38:42Z</time>
      </trkpt>
      <trkpt lat="49.35762" lon="3.67324">
        <ele>152.03</ele>
        <time>2021-08-09T06:38:51Z</time>
      </trkpt>
      <trkpt lat="49.35752" lon="3.67337">
        <ele>153.47</ele>
        <time>2021-08-09T06:38:59Z</time>
      </trkpt>
      <trkpt lat="49.35743" lon="3.67349">
        <ele>154.43</ele>
        <time>2021-08-09T06:39:06Z</time>
      </trkpt>
      <trkpt lat="49.35731" lon="3.67363">
        <ele>156.35</ele>
        <time>2021-08-09T06:39:15Z</time>
      </trkpt>
      <trkpt lat="49.3572" lon="3.67377">
        <ele>157.79</ele>
        <time>2021-08-09T06:39:24Z</time>
      </trkpt>
      <trkpt lat="49.35709" lon="3.67392">
        <ele>159.24</ele>
        <time>2021-08-09T06:39:33Z</time>
      </trkpt>
      <trkpt lat="49.35697" lon="3.67407">
        <ele>160.2</ele>
        <time>2021-08-09T06:39:42Z</time>
      </trkpt>
      <trkpt lat="49.35681" lon="3.67427">
        <ele>161.64</ele>
        <time>2021-08-09T06:39:53Z</time>
      </trkpt>
      <trkpt lat="49.35665" lon="3.67448">
        <ele>162.6</ele>
        <time>2021-08-09T06:40:03Z</time>
      </trkpt>
      <trkpt lat="49.35652" lon="3.67467">
        <ele>163.56</ele>
        <time>2021-08-09T06:40:12Z</time>
      </trkpt>
      <trkpt lat="49.35636" lon="3.67488">
        <ele>165.48</ele>
        <time>2021-08-09T06:40:22Z</time>
      </trkpt>
      <trkpt lat="49.35616" lon="3.67511">
        <ele>165.48</ele>
        <time>2021-08-09T06:40:33Z</time>
      </trkpt>
      <trkpt lat="49.35594" lon="3.67542">
        <ele>165.48</ele>
        <time>2021-08-09T06:40:44Z</time>
      </trkpt>
      <trkpt lat="49.35574" lon="3.67579">
        <ele>165.48</ele>
        <time>2021-08-09T06:40:54Z</time>
      </trkpt>
      <trkpt lat="49.35556" lon="3.67621">
        <ele>164.52</ele>
        <time>2021-08-09T06:41:02Z</time>
      </trkpt>
      <trkpt lat="49.35527" lon="3.67683">
        <ele>161.16</ele>
        <time>2021-08-09T06:41:13Z</time>
      </trkpt>
      <trkpt lat="49.35509" lon="3.6772">
        <ele>157.79</ele>
        <time>2021-08-09T06:41:19Z</time>
      </trkpt>
      <trkpt lat="49.35506" lon="3.67728">
        <ele>157.79</ele>
        <time>2021-08-09T06:41:20Z</time>
      </trkpt>
      <trkpt lat="49.35491" lon="3.67758">
        <ele>155.39</ele>
        <time>2021-08-09T06:41:24Z</time>
      </trkpt>
      <trkpt lat="49.35474" lon="3.67794">
        <ele>152.03</ele>
        <time>2021-08-09T06:41:28Z</time>
      </trkpt>
      <trkpt lat="49.35459" lon="3.67823">
        <ele>148.18</ele>
        <time>2021-08-09T06:41:31Z</time>
      </trkpt>
      <trkpt lat="49.35454" lon="3.67833">
        <ele>148.18</ele>
        <time>2021-08-09T06:41:32Z</time>
      </trkpt>
      <trkpt lat="49.35441" lon="3.6786">
        <ele>144.82</ele>
        <time>2021-08-09T06:41:35Z</time>
      </trkpt>
      <trkpt lat="49.35436" lon="3.6787">
        <ele>143.85</ele>
        <time>2021-08-09T06:41:37Z</time>
      </trkpt>
      <trkpt lat="49.35431" lon="3.67879">
        <ele>144.34</ele>
        <time>2021-08-09T06:41:42Z</time>
      </trkpt>
      <trkpt lat="49.3543" lon="3.67879">
        <ele>144.34</ele>
        <time>2021-08-09T06:41:43Z</time>
      </trkpt>
      <trkpt lat="49.35428" lon="3.67879">
        <ele>143.85</ele>
        <time>2021-08-09T06:41:44Z</time>
      </trkpt>
      <trkpt lat="49.35428" lon="3.67882">
        <ele>142.89</ele>
        <time>2021-08-09T06:41:49Z</time>
      </trkpt>
      <trkpt lat="49.35429" lon="3.67881">
        <ele>141.93</ele>
        <time>2021-08-09T06:41:58Z</time>
      </trkpt>
      <trkpt lat="49.35428" lon="3.67883">
        <ele>141.93</ele>
        <time>2021-08-09T06:42:04Z</time>
      </trkpt>
      <trkpt lat="49.35426" lon="3.67884">
        <ele>141.93</ele>
        <time>2021-08-09T06:42:07Z</time>
      </trkpt>
      <trkpt lat="49.35426" lon="3.67885">
        <ele>141.93</ele>
        <time>2021-08-09T06:42:08Z</time>
      </trkpt>
      <trkpt lat="49.35428" lon="3.67886">
        <ele>140.97</ele>
        <time>2021-08-09T06:42:13Z</time>
      </trkpt>
      <trkpt lat="49.3543" lon="3.67888">
        <ele>140.97</ele>
        <time>2021-08-09T06:42:16Z</time>
      </trkpt>
      <trkpt lat="49.35431" lon="3.6789">
        <ele>140.97</ele>
        <time>2021-08-09T06:42:17Z</time>
      </trkpt>
      <trkpt lat="49.35447" lon="3.67909">
        <ele>139.53</ele>
        <time>2021-08-09T06:42:23Z</time>
      </trkpt>
      <trkpt lat="49.35459" lon="3.67923">
        <ele>139.05</ele>
        <time>2021-08-09T06:42:27Z</time>
      </trkpt>
      <trkpt lat="49.35479" lon="3.67947">
        <ele>139.05</ele>
        <time>2021-08-09T06:42:34Z</time>
      </trkpt>
      <trkpt lat="49.35493" lon="3.67963">
        <ele>139.05</ele>
        <time>2021-08-09T06:42:40Z</time>
      </trkpt>
      <trkpt lat="49.35509" lon="3.67987">
        <ele>138.09</ele>
        <time>2021-08-09T06:42:46Z</time>
      </trkpt>
      <trkpt lat="49.35512" lon="3.67992">
        <ele>138.09</ele>
        <time>2021-08-09T06:42:47Z</time>
      </trkpt>
      <trkpt lat="49.35539" lon="3.68026">
        <ele>136.64</ele>
        <time>2021-08-09T06:42:53Z</time>
      </trkpt>
      <trkpt lat="49.3557" lon="3.68062">
        <ele>136.16</ele>
        <time>2021-08-09T06:43:01Z</time>
      </trkpt>
      <trkpt lat="49.35591" lon="3.68084">
        <ele>136.16</ele>
        <time>2021-08-09T06:43:08Z</time>
      </trkpt>
      <trkpt lat="49.35615" lon="3.6811">
        <ele>136.16</ele>
        <time>2021-08-09T06:43:15Z</time>
      </trkpt>
      <trkpt lat="49.35641" lon="3.68146">
        <ele>135.2</ele>
        <time>2021-08-09T06:43:22Z</time>
      </trkpt>
      <trkpt lat="49.35645" lon="3.68152">
        <ele>135.2</ele>
        <time>2021-08-09T06:43:23Z</time>
      </trkpt>
      <trkpt lat="49.35648" lon="3.68157">
        <ele>135.2</ele>
        <time>2021-08-09T06:43:24Z</time>
      </trkpt>
      <trkpt lat="49.35679" lon="3.68208">
        <ele>134.24</ele>
        <time>2021-08-09T06:43:33Z</time>
      </trkpt>
      <trkpt lat="49.35705" lon="3.68262">
        <ele>133.76</ele>
        <time>2021-08-09T06:43:42Z</time>
      </trkpt>
      <trkpt lat="49.35722" lon="3.68313">
        <ele>130.88</ele>
        <time>2021-08-09T06:43:49Z</time>
      </trkpt>
      <trkpt lat="49.35735" lon="3.68368">
        <ele>127.99</ele>
        <time>2021-08-09T06:43:55Z</time>
      </trkpt>
      <trkpt lat="49.35736" lon="3.68376">
        <ele>127.51</ele>
        <time>2021-08-09T06:43:57Z</time>
      </trkpt>
      <trkpt lat="49.35744" lon="3.684">
        <ele>127.03</ele>
        <time>2021-08-09T06:44:03Z</time>
      </trkpt>
      <trkpt lat="49.35742" lon="3.684">
        <ele>126.55</ele>
        <time>2021-08-09T06:44:04Z</time>
      </trkpt>
      <trkpt lat="49.3574" lon="3.68399">
        <ele>125.59</ele>
        <time>2021-08-09T06:44:05Z</time>
      </trkpt>
      <trkpt lat="49.35737" lon="3.68398">
        <ele>125.11</ele>
        <time>2021-08-09T06:44:06Z</time>
      </trkpt>
      <trkpt lat="49.35733" lon="3.68396">
        <ele>123.67</ele>
        <time>2021-08-09T06:44:07Z</time>
      </trkpt>
      <trkpt lat="49.35728" lon="3.68393">
        <ele>122.71</ele>
        <time>2021-08-09T06:44:08Z</time>
      </trkpt>
      <trkpt lat="49.35724" lon="3.68387">
        <ele>120.78</ele>
        <time>2021-08-09T06:44:09Z</time>
      </trkpt>
      <trkpt lat="49.3572" lon="3.68379">
        <ele>119.82</ele>
        <time>2021-08-09T06:44:10Z</time>
      </trkpt>
      <trkpt lat="49.35717" lon="3.68371">
        <ele>119.34</ele>
        <time>2021-08-09T06:44:11Z</time>
      </trkpt>
      <trkpt lat="49.35714" lon="3.68365">
        <ele>118.38</ele>
        <time>2021-08-09T06:44:12Z</time>
      </trkpt>
      <trkpt lat="49.35709" lon="3.6836">
        <ele>117.42</ele>
        <time>2021-08-09T06:44:13Z</time>
      </trkpt>
      <trkpt lat="49.35704" lon="3.68357">
        <ele>115.98</ele>
        <time>2021-08-09T06:44:14Z</time>
      </trkpt>
      <trkpt lat="49.35697" lon="3.68354">
        <ele>115.01</ele>
        <time>2021-08-09T06:44:15Z</time>
      </trkpt>
      <trkpt lat="49.35691" lon="3.6835">
        <ele>114.05</ele>
        <time>2021-08-09T06:44:16Z</time>
      </trkpt>
      <trkpt lat="49.35684" lon="3.68345">
        <ele>113.09</ele>
        <time>2021-08-09T06:44:17Z</time>
      </trkpt>
      <trkpt lat="49.35678" lon="3.68339">
        <ele>112.13</ele>
        <time>2021-08-09T06:44:18Z</time>
      </trkpt>
      <trkpt lat="49.35663" lon="3.68326">
        <ele>109.25</ele>
        <time>2021-08-09T06:44:20Z</time>
      </trkpt>
      <trkpt lat="49.35656" lon="3.68323">
        <ele>108.29</ele>
        <time>2021-08-09T06:44:21Z</time>
      </trkpt>
      <trkpt lat="49.35641" lon="3.68315">
        <ele>105.4</ele>
        <time>2021-08-09T06:44:23Z</time>
      </trkpt>
      <trkpt lat="49.35634" lon="3.6831">
        <ele>104.44</ele>
        <time>2021-08-09T06:44:24Z</time>
      </trkpt>
      <trkpt lat="49.35619" lon="3.68299">
        <ele>102.52</ele>
        <time>2021-08-09T06:44:26Z</time>
      </trkpt>
      <trkpt lat="49.35613" lon="3.68296">
        <ele>101.56</ele>
        <time>2021-08-09T06:44:27Z</time>
      </trkpt>
      <trkpt lat="49.35609" lon="3.68296">
        <ele>101.56</ele>
        <time>2021-08-09T06:44:28Z</time>
      </trkpt>
      <trkpt lat="49.35603" lon="3.68296">
        <ele>101.08</ele>
        <time>2021-08-09T06:44:32Z</time>
      </trkpt>
      <trkpt lat="49.35593" lon="3.68295">
        <ele>100.6</ele>
        <time>2021-08-09T06:44:36Z</time>
      </trkpt>
      <trkpt lat="49.35589" lon="3.68293">
        <ele>100.6</ele>
        <time>2021-08-09T06:44:37Z</time>
      </trkpt>
      <trkpt lat="49.3556" lon="3.68276">
        <ele>98.67</ele>
        <time>2021-08-09T06:44:44Z</time>
      </trkpt>
      <trkpt lat="49.35556" lon="3.68273">
        <ele>98.19</ele>
        <time>2021-08-09T06:44:45Z</time>
      </trkpt>
      <trkpt lat="49.3554" lon="3.68257">
        <ele>98.19</ele>
        <time>2021-08-09T06:44:49Z</time>
      </trkpt>
      <trkpt lat="49.35536" lon="3.68257">
        <ele>98.19</ele>
        <time>2021-08-09T06:44:50Z</time>
      </trkpt>
      <trkpt lat="49.35531" lon="3.68261">
        <ele>97.23</ele>
        <time>2021-08-09T06:44:51Z</time>
      </trkpt>
      <trkpt lat="49.35528" lon="3.68266">
        <ele>97.23</ele>
        <time>2021-08-09T06:44:52Z</time>
      </trkpt>
      <trkpt lat="49.35524" lon="3.68272">
        <ele>96.27</ele>
        <time>2021-08-09T06:44:53Z</time>
      </trkpt>
      <trkpt lat="49.35516" lon="3.68285">
        <ele>95.79</ele>
        <time>2021-08-09T06:44:55Z</time>
      </trkpt>
      <trkpt lat="49.35499" lon="3.68312">
        <ele>94.35</ele>
        <time>2021-08-09T06:44:59Z</time>
      </trkpt>
      <trkpt lat="49.35475" lon="3.6835">
        <ele>93.87</ele>
        <time>2021-08-09T06:45:05Z</time>
      </trkpt>
      <trkpt lat="49.35472" lon="3.68356">
        <ele>93.39</ele>
        <time>2021-08-09T06:45:06Z</time>
      </trkpt>
      <trkpt lat="49.35466" lon="3.68372">
        <ele>92.9</ele>
        <time>2021-08-09T06:45:08Z</time>
      </trkpt>
      <trkpt lat="49.35454" lon="3.68399">
        <ele>93.87</ele>
        <time>2021-08-09T06:45:13Z</time>
      </trkpt>
      <trkpt lat="49.35445" lon="3.68418">
        <ele>95.31</ele>
        <time>2021-08-09T06:45:20Z</time>
      </trkpt>
      <trkpt lat="49.35437" lon="3.68435">
        <ele>96.75</ele>
        <time>2021-08-09T06:45:29Z</time>
      </trkpt>
      <trkpt lat="49.35433" lon="3.68455">
        <ele>98.19</ele>
        <time>2021-08-09T06:45:38Z</time>
      </trkpt>
      <trkpt lat="49.35439" lon="3.68472">
        <ele>98.67</ele>
        <time>2021-08-09T06:45:45Z</time>
      </trkpt>
      <trkpt lat="49.35443" lon="3.68481">
        <ele>98.67</ele>
        <time>2021-08-09T06:45:48Z</time>
      </trkpt>
      <trkpt lat="49.35442" lon="3.68485">
        <ele>98.19</ele>
        <time>2021-08-09T06:45:49Z</time>
      </trkpt>
      <trkpt lat="49.35442" lon="3.68488">
        <ele>98.19</ele>
        <time>2021-08-09T06:45:50Z</time>
      </trkpt>
      <trkpt lat="49.35442" lon="3.68491">
        <ele>98.67</ele>
        <time>2021-08-09T06:45:55Z</time>
      </trkpt>
      <trkpt lat="49.3544" lon="3.68489">
        <ele>98.67</ele>
        <time>2021-08-09T06:46:14Z</time>
      </trkpt>
      <trkpt lat="49.35442" lon="3.68488">
        <ele>98.67</ele>
        <time>2021-08-09T06:46:33Z</time>
      </trkpt>
      <trkpt lat="49.35443" lon="3.68489">
        <ele>98.67</ele>
        <time>2021-08-09T06:46:39Z</time>
      </trkpt>
      <trkpt lat="49.35444" lon="3.68491">
        <ele>98.67</ele>
        <time>2021-08-09T06:46:45Z</time>
      </trkpt>
      <trkpt lat="49.35445" lon="3.68491">
        <ele>98.67</ele>
        <time>2021-08-09T06:46:48Z</time>
      </trkpt>
      <trkpt lat="49.35446" lon="3.6849">
        <ele>98.67</ele>
        <time>2021-08-09T06:46:49Z</time>
      </trkpt>
      <trkpt lat="49.35449" lon="3.68491">
        <ele>98.67</ele>
        <time>2021-08-09T06:46:51Z</time>
      </trkpt>
      <trkpt lat="49.35451" lon="3.68492">
        <ele>98.67</ele>
        <time>2021-08-09T06:46:52Z</time>
      </trkpt>
      <trkpt lat="49.35453" lon="3.68494">
        <ele>97.23</ele>
        <time>2021-08-09T06:46:53Z</time>
      </trkpt>
      <trkpt lat="49.35455" lon="3.68497">
        <ele>97.23</ele>
        <time>2021-08-09T06:46:54Z</time>
      </trkpt>
      <trkpt lat="49.3547" lon="3.68519">
        <ele>95.31</ele>
        <time>2021-08-09T06:47:01Z</time>
      </trkpt>
      <trkpt lat="49.35481" lon="3.68545">
        <ele>94.35</ele>
        <time>2021-08-09T06:47:07Z</time>
      </trkpt>
      <trkpt lat="49.35486" lon="3.68564">
        <ele>93.39</ele>
        <time>2021-08-09T06:47:10Z</time>
      </trkpt>
      <trkpt lat="49.35492" lon="3.68625">
        <ele>91.94</ele>
        <time>2021-08-09T06:47:18Z</time>
      </trkpt>
      <trkpt lat="49.35498" lon="3.68672">
        <ele>91.46</ele>
        <time>2021-08-09T06:47:25Z</time>
      </trkpt>
      <trkpt lat="49.35506" lon="3.68736">
        <ele>91.46</ele>
        <time>2021-08-09T06:47:34Z</time>
      </trkpt>
      <trkpt lat="49.35502" lon="3.68801">
        <ele>90.98</ele>
        <time>2021-08-09T06:47:42Z</time>
      </trkpt>
      <trkpt lat="49.35489" lon="3.68873">
        <ele>90.98</ele>
        <time>2021-08-09T06:47:53Z</time>
      </trkpt>
      <trkpt lat="49.35487" lon="3.68883">
        <ele>92.42</ele>
        <time>2021-08-09T06:47:55Z</time>
      </trkpt>
      <trkpt lat="49.35469" lon="3.68927">
        <ele>92.9</ele>
        <time>2021-08-09T06:48:05Z</time>
      </trkpt>
      <trkpt lat="49.35441" lon="3.68969">
        <ele>93.39</ele>
        <time>2021-08-09T06:48:16Z</time>
      </trkpt>
      <trkpt lat="49.35418" lon="3.68999">
        <ele>93.39</ele>
        <time>2021-08-09T06:48:24Z</time>
      </trkpt>
      <trkpt lat="49.35396" lon="3.69029">
        <ele>93.39</ele>
        <time>2021-08-09T06:48:32Z</time>
      </trkpt>
      <trkpt lat="49.35361" lon="3.69065">
        <ele>91.94</ele>
        <time>2021-08-09T06:48:42Z</time>
      </trkpt>
      <trkpt lat="49.3534" lon="3.6909">
        <ele>91.94</ele>
        <time>2021-08-09T06:48:49Z</time>
      </trkpt>
      <trkpt lat="49.35324" lon="3.69118">
        <ele>90.5</ele>
        <time>2021-08-09T06:48:56Z</time>
      </trkpt>
      <trkpt lat="49.35309" lon="3.69141">
        <ele>89.54</ele>
        <time>2021-08-09T06:49:02Z</time>
      </trkpt>
      <trkpt lat="49.35303" lon="3.69168">
        <ele>88.58</ele>
        <time>2021-08-09T06:49:08Z</time>
      </trkpt>
      <trkpt lat="49.35307" lon="3.69197">
        <ele>88.1</ele>
        <time>2021-08-09T06:49:14Z</time>
      </trkpt>
      <trkpt lat="49.35313" lon="3.69228">
        <ele>87.62</ele>
        <time>2021-08-09T06:49:20Z</time>
      </trkpt>
      <trkpt lat="49.35317" lon="3.69255">
        <ele>87.14</ele>
        <time>2021-08-09T06:49:26Z</time>
      </trkpt>
      <trkpt lat="49.35318" lon="3.69294">
        <ele>86.66</ele>
        <time>2021-08-09T06:49:33Z</time>
      </trkpt>
      <trkpt lat="49.35319" lon="3.69329">
        <ele>86.66</ele>
        <time>2021-08-09T06:49:39Z</time>
      </trkpt>
      <trkpt lat="49.35318" lon="3.69346">
        <ele>86.66</ele>
        <time>2021-08-09T06:49:43Z</time>
      </trkpt>
      <trkpt lat="49.35319" lon="3.69349">
        <ele>86.66</ele>
        <time>2021-08-09T06:49:44Z</time>
      </trkpt>
      <trkpt lat="49.35319" lon="3.69352">
        <ele>86.66</ele>
        <time>2021-08-09T06:49:45Z</time>
      </trkpt>
      <trkpt lat="49.35319" lon="3.69354">
        <ele>88.1</ele>
        <time>2021-08-09T06:49:46Z</time>
      </trkpt>
      <trkpt lat="49.35319" lon="3.69357">
        <ele>88.1</ele>
        <time>2021-08-09T06:49:47Z</time>
      </trkpt>
      <trkpt lat="49.35318" lon="3.69379">
        <ele>88.58</ele>
        <time>2021-08-09T06:49:56Z</time>
      </trkpt>
      <trkpt lat="49.35322" lon="3.69404">
        <ele>89.54</ele>
        <time>2021-08-09T06:50:06Z</time>
      </trkpt>
      <trkpt lat="49.35323" lon="3.69408">
        <ele>90.02</ele>
        <time>2021-08-09T06:50:08Z</time>
      </trkpt>
      <trkpt lat="49.35324" lon="3.6941">
        <ele>90.5</ele>
        <time>2021-08-09T06:50:09Z</time>
      </trkpt>
      <trkpt lat="49.35324" lon="3.69412">
        <ele>90.5</ele>
        <time>2021-08-09T06:50:10Z</time>
      </trkpt>
      <trkpt lat="49.35324" lon="3.69429">
        <ele>91.46</ele>
        <time>2021-08-09T06:50:17Z</time>
      </trkpt>
      <trkpt lat="49.35321" lon="3.69446">
        <ele>92.9</ele>
        <time>2021-08-09T06:50:24Z</time>
      </trkpt>
      <trkpt lat="49.35321" lon="3.6945">
        <ele>93.39</ele>
        <time>2021-08-09T06:50:26Z</time>
      </trkpt>
      <trkpt lat="49.35322" lon="3.69451">
        <ele>93.39</ele>
        <time>2021-08-09T06:50:27Z</time>
      </trkpt>
      <trkpt lat="49.35323" lon="3.69451">
        <ele>93.39</ele>
        <time>2021-08-09T06:50:28Z</time>
      </trkpt>
      <trkpt lat="49.35331" lon="3.6945">
        <ele>93.39</ele>
        <time>2021-08-09T06:50:34Z</time>
      </trkpt>
      <trkpt lat="49.35332" lon="3.6945">
        <ele>93.39</ele>
        <time>2021-08-09T06:50:35Z</time>
      </trkpt>
      <trkpt lat="49.3535" lon="3.69443">
        <ele>93.39</ele>
        <time>2021-08-09T06:50:43Z</time>
      </trkpt>
      <trkpt lat="49.35377" lon="3.69434">
        <ele>93.87</ele>
        <time>2021-08-09T06:50:52Z</time>
      </trkpt>
      <trkpt lat="49.35407" lon="3.69423">
        <ele>92.42</ele>
        <time>2021-08-09T06:51:00Z</time>
      </trkpt>
      <trkpt lat="49.35452" lon="3.69408">
        <ele>90.98</ele>
        <time>2021-08-09T06:51:09Z</time>
      </trkpt>
      <trkpt lat="49.35502" lon="3.69389">
        <ele>90.5</ele>
        <time>2021-08-09T06:51:20Z</time>
      </trkpt>
      <trkpt lat="49.35537" lon="3.69378">
        <ele>90.5</ele>
        <time>2021-08-09T06:51:29Z</time>
      </trkpt>
      <trkpt lat="49.35561" lon="3.69377">
        <ele>91.46</ele>
        <time>2021-08-09T06:51:36Z</time>
      </trkpt>
      <trkpt lat="49.35588" lon="3.69382">
        <ele>91.94</ele>
        <time>2021-08-09T06:51:44Z</time>
      </trkpt>
      <trkpt lat="49.3561" lon="3.69401">
        <ele>92.9</ele>
        <time>2021-08-09T06:51:52Z</time>
      </trkpt>
      <trkpt lat="49.35624" lon="3.69431">
        <ele>93.87</ele>
        <time>2021-08-09T06:52:00Z</time>
      </trkpt>
      <trkpt lat="49.35634" lon="3.69458">
        <ele>95.31</ele>
        <time>2021-08-09T06:52:08Z</time>
      </trkpt>
      <trkpt lat="49.35642" lon="3.69486">
        <ele>96.27</ele>
        <time>2021-08-09T06:52:17Z</time>
      </trkpt>
      <trkpt lat="49.3565" lon="3.69527">
        <ele>96.75</ele>
        <time>2021-08-09T06:52:28Z</time>
      </trkpt>
      <trkpt lat="49.35656" lon="3.69563">
        <ele>98.19</ele>
        <time>2021-08-09T06:52:38Z</time>
      </trkpt>
      <trkpt lat="49.3566" lon="3.69602">
        <ele>99.63</ele>
        <time>2021-08-09T06:52:49Z</time>
      </trkpt>
      <trkpt lat="49.35663" lon="3.69629">
        <ele>100.6</ele>
        <time>2021-08-09T06:52:58Z</time>
      </trkpt>
      <trkpt lat="49.35665" lon="3.69649">
        <ele>102.04</ele>
        <time>2021-08-09T06:53:05Z</time>
      </trkpt>
      <trkpt lat="49.35669" lon="3.6967">
        <ele>103.48</ele>
        <time>2021-08-09T06:53:13Z</time>
      </trkpt>
      <trkpt lat="49.35672" lon="3.69691">
        <ele>104.44</ele>
        <time>2021-08-09T06:53:21Z</time>
      </trkpt>
      <trkpt lat="49.3568" lon="3.69715">
        <ele>105.4</ele>
        <time>2021-08-09T06:53:29Z</time>
      </trkpt>
      <trkpt lat="49.35695" lon="3.69743">
        <ele>105.88</ele>
        <time>2021-08-09T06:53:39Z</time>
      </trkpt>
      <trkpt lat="49.35703" lon="3.69767">
        <ele>106.84</ele>
        <time>2021-08-09T06:53:46Z</time>
      </trkpt>
      <trkpt lat="49.35708" lon="3.69775">
        <ele>106.84</ele>
        <time>2021-08-09T06:53:48Z</time>
      </trkpt>
      <trkpt lat="49.35712" lon="3.69779">
        <ele>106.84</ele>
        <time>2021-08-09T06:53:49Z</time>
      </trkpt>
      <trkpt lat="49.3572" lon="3.69787">
        <ele>105.4</ele>
        <time>2021-08-09T06:53:51Z</time>
      </trkpt>
      <trkpt lat="49.35749" lon="3.69823">
        <ele>102.52</ele>
        <time>2021-08-09T06:53:57Z</time>
      </trkpt>
      <trkpt lat="49.35781" lon="3.69878">
        <ele>99.15</ele>
        <time>2021-08-09T06:54:03Z</time>
      </trkpt>
      <trkpt lat="49.35798" lon="3.69905">
        <ele>97.71</ele>
        <time>2021-08-09T06:54:06Z</time>
      </trkpt>
      <trkpt lat="49.35828" lon="3.69958">
        <ele>95.31</ele>
        <time>2021-08-09T06:54:12Z</time>
      </trkpt>
      <trkpt lat="49.35832" lon="3.69967">
        <ele>95.31</ele>
        <time>2021-08-09T06:54:13Z</time>
      </trkpt>
      <trkpt lat="49.35833" lon="3.69977">
        <ele>95.31</ele>
        <time>2021-08-09T06:54:14Z</time>
      </trkpt>
      <trkpt lat="49.35833" lon="3.69984">
        <ele>95.31</ele>
        <time>2021-08-09T06:54:15Z</time>
      </trkpt>
      <trkpt lat="49.35831" lon="3.69991">
        <ele>95.31</ele>
        <time>2021-08-09T06:54:16Z</time>
      </trkpt>
      <trkpt lat="49.35828" lon="3.69996">
        <ele>95.31</ele>
        <time>2021-08-09T06:54:17Z</time>
      </trkpt>
      <trkpt lat="49.35826" lon="3.7">
        <ele>95.31</ele>
        <time>2021-08-09T06:54:18Z</time>
      </trkpt>
      <trkpt lat="49.35824" lon="3.70003">
        <ele>95.31</ele>
        <time>2021-08-09T06:54:19Z</time>
      </trkpt>
      <trkpt lat="49.35822" lon="3.70007">
        <ele>96.75</ele>
        <time>2021-08-09T06:54:20Z</time>
      </trkpt>
      <trkpt lat="49.3582" lon="3.7001">
        <ele>96.75</ele>
        <time>2021-08-09T06:54:21Z</time>
      </trkpt>
      <trkpt lat="49.3581" lon="3.70032">
        <ele>97.23</ele>
        <time>2021-08-09T06:54:27Z</time>
      </trkpt>
      <trkpt lat="49.35799" lon="3.70063">
        <ele>95.79</ele>
        <time>2021-08-09T06:54:33Z</time>
      </trkpt>
      <trkpt lat="49.35795" lon="3.70079">
        <ele>95.31</ele>
        <time>2021-08-09T06:54:35Z</time>
      </trkpt>
      <trkpt lat="49.35788" lon="3.70105">
        <ele>93.87</ele>
        <time>2021-08-09T06:54:38Z</time>
      </trkpt>
      <trkpt lat="49.35778" lon="3.70145">
        <ele>90.5</ele>
        <time>2021-08-09T06:54:42Z</time>
      </trkpt>
      <trkpt lat="49.35769" lon="3.70178">
        <ele>87.14</ele>
        <time>2021-08-09T06:54:45Z</time>
      </trkpt>
      <trkpt lat="49.35766" lon="3.70188">
        <ele>87.14</ele>
        <time>2021-08-09T06:54:46Z</time>
      </trkpt>
      <trkpt lat="49.35757" lon="3.70221">
        <ele>85.21</ele>
        <time>2021-08-09T06:54:49Z</time>
      </trkpt>
      <trkpt lat="49.35744" lon="3.70268">
        <ele>82.81</ele>
        <time>2021-08-09T06:54:53Z</time>
      </trkpt>
      <trkpt lat="49.35736" lon="3.70303">
        <ele>81.37</ele>
        <time>2021-08-09T06:54:56Z</time>
      </trkpt>
      <trkpt lat="49.35734" lon="3.70314">
        <ele>81.37</ele>
        <time>2021-08-09T06:54:57Z</time>
      </trkpt>
      <trkpt lat="49.35724" lon="3.7038">
        <ele>80.41</ele>
        <time>2021-08-09T06:55:04Z</time>
      </trkpt>
      <trkpt lat="49.35724" lon="3.70388">
        <ele>80.41</ele>
        <time>2021-08-09T06:55:05Z</time>
      </trkpt>
      <trkpt lat="49.35726" lon="3.7042">
        <ele>81.85</ele>
        <time>2021-08-09T06:55:10Z</time>
      </trkpt>
      <trkpt lat="49.35726" lon="3.70448">
        <ele>84.25</ele>
        <time>2021-08-09T06:55:17Z</time>
      </trkpt>
      <trkpt lat="49.35726" lon="3.70466">
        <ele>85.21</ele>
        <time>2021-08-09T06:55:24Z</time>
      </trkpt>
      <trkpt lat="49.35725" lon="3.70468">
        <ele>85.69</ele>
        <time>2021-08-09T06:55:25Z</time>
      </trkpt>
      <trkpt lat="49.35725" lon="3.70471">
        <ele>86.18</ele>
        <time>2021-08-09T06:55:26Z</time>
      </trkpt>
      <trkpt lat="49.35725" lon="3.70472">
        <ele>86.18</ele>
        <time>2021-08-09T06:55:27Z</time>
      </trkpt>
      <trkpt lat="49.35725" lon="3.70474">
        <ele>86.18</ele>
        <time>2021-08-09T06:55:28Z</time>
      </trkpt>
      <trkpt lat="49.35724" lon="3.70483">
        <ele>87.14</ele>
        <time>2021-08-09T06:55:32Z</time>
      </trkpt>
      <trkpt lat="49.35724" lon="3.70485">
        <ele>87.14</ele>
        <time>2021-08-09T06:55:33Z</time>
      </trkpt>
      <trkpt lat="49.35724" lon="3.70487">
        <ele>87.14</ele>
        <time>2021-08-09T06:55:34Z</time>
      </trkpt>
      <trkpt lat="49.35724" lon="3.70489">
        <ele>88.1</ele>
        <time>2021-08-09T06:55:35Z</time>
      </trkpt>
      <trkpt lat="49.35723" lon="3.70491">
        <ele>88.1</ele>
        <time>2021-08-09T06:55:36Z</time>
      </trkpt>
      <trkpt lat="49.35722" lon="3.705">
        <ele>88.58</ele>
        <time>2021-08-09T06:55:40Z</time>
      </trkpt>
      <trkpt lat="49.35722" lon="3.70502">
        <ele>89.06</ele>
        <time>2021-08-09T06:55:41Z</time>
      </trkpt>
      <trkpt lat="49.3572" lon="3.70517">
        <ele>90.5</ele>
        <time>2021-08-09T06:55:49Z</time>
      </trkpt>
      <trkpt lat="49.35719" lon="3.70519">
        <ele>90.5</ele>
        <time>2021-08-09T06:55:50Z</time>
      </trkpt>
      <trkpt lat="49.35719" lon="3.70521">
        <ele>90.5</ele>
        <time>2021-08-09T06:55:51Z</time>
      </trkpt>
      <trkpt lat="49.35718" lon="3.70523">
        <ele>90.5</ele>
        <time>2021-08-09T06:55:52Z</time>
      </trkpt>
      <trkpt lat="49.35718" lon="3.70525">
        <ele>90.98</ele>
        <time>2021-08-09T06:55:53Z</time>
      </trkpt>
      <trkpt lat="49.35718" lon="3.70527">
        <ele>91.46</ele>
        <time>2021-08-09T06:55:54Z</time>
      </trkpt>
      <trkpt lat="49.35717" lon="3.70529">
        <ele>91.46</ele>
        <time>2021-08-09T06:55:55Z</time>
      </trkpt>
      <trkpt lat="49.35717" lon="3.70531">
        <ele>91.46</ele>
        <time>2021-08-09T06:55:56Z</time>
      </trkpt>
      <trkpt lat="49.35716" lon="3.70533">
        <ele>91.46</ele>
        <time>2021-08-09T06:55:57Z</time>
      </trkpt>
      <trkpt lat="49.35716" lon="3.70535">
        <ele>91.46</ele>
        <time>2021-08-09T06:55:58Z</time>
      </trkpt>
      <trkpt lat="49.35709" lon="3.70557">
        <ele>92.42</ele>
        <time>2021-08-09T06:56:09Z</time>
      </trkpt>
      <trkpt lat="49.35701" lon="3.70575">
        <ele>93.39</ele>
        <time>2021-08-09T06:56:18Z</time>
      </trkpt>
      <trkpt lat="49.35688" lon="3.70598">
        <ele>94.83</ele>
        <time>2021-08-09T06:56:30Z</time>
      </trkpt>
      <trkpt lat="49.35678" lon="3.70612">
        <ele>95.79</ele>
        <time>2021-08-09T06:56:38Z</time>
      </trkpt>
      <trkpt lat="49.35667" lon="3.70622">
        <ele>96.75</ele>
        <time>2021-08-09T06:56:46Z</time>
      </trkpt>
      <trkpt lat="49.35655" lon="3.70635">
        <ele>97.23</ele>
        <time>2021-08-09T06:56:54Z</time>
      </trkpt>
      <trkpt lat="49.3564" lon="3.70653">
        <ele>99.63</ele>
        <time>2021-08-09T06:57:05Z</time>
      </trkpt>
      <trkpt lat="49.35631" lon="3.70667">
        <ele>100.6</ele>
        <time>2021-08-09T06:57:13Z</time>
      </trkpt>
      <trkpt lat="49.35636" lon="3.70689">
        <ele>100.6</ele>
        <time>2021-08-09T06:57:20Z</time>
      </trkpt>
      <trkpt lat="49.35651" lon="3.70724">
        <ele>100.6</ele>
        <time>2021-08-09T06:57:28Z</time>
      </trkpt>
      <trkpt lat="49.35668" lon="3.70769">
        <ele>100.6</ele>
        <time>2021-08-09T06:57:36Z</time>
      </trkpt>
      <trkpt lat="49.35674" lon="3.70788">
        <ele>100.6</ele>
        <time>2021-08-09T06:57:39Z</time>
      </trkpt>
      <trkpt lat="49.35674" lon="3.70794">
        <ele>100.6</ele>
        <time>2021-08-09T06:57:40Z</time>
      </trkpt>
      <trkpt lat="49.35674" lon="3.70801">
        <ele>100.6</ele>
        <time>2021-08-09T06:57:41Z</time>
      </trkpt>
      <trkpt lat="49.3567" lon="3.70864">
        <ele>100.6</ele>
        <time>2021-08-09T06:57:50Z</time>
      </trkpt>
      <trkpt lat="49.35669" lon="3.70872">
        <ele>100.6</ele>
        <time>2021-08-09T06:57:51Z</time>
      </trkpt>
      <trkpt lat="49.35668" lon="3.70879">
        <ele>100.6</ele>
        <time>2021-08-09T06:57:52Z</time>
      </trkpt>
      <trkpt lat="49.35668" lon="3.70929">
        <ele>99.63</ele>
        <time>2021-08-09T06:57:59Z</time>
      </trkpt>
      <trkpt lat="49.35667" lon="3.70936">
        <ele>99.63</ele>
        <time>2021-08-09T06:58:00Z</time>
      </trkpt>
      <trkpt lat="49.35665" lon="3.70958">
        <ele>99.63</ele>
        <time>2021-08-09T06:58:03Z</time>
      </trkpt>
      <trkpt lat="49.35668" lon="3.71027">
        <ele>99.15</ele>
        <time>2021-08-09T06:58:12Z</time>
      </trkpt>
      <trkpt lat="49.35673" lon="3.71111">
        <ele>98.19</ele>
        <time>2021-08-09T06:58:22Z</time>
      </trkpt>
      <trkpt lat="49.35673" lon="3.7112">
        <ele>97.71</ele>
        <time>2021-08-09T06:58:23Z</time>
      </trkpt>
      <trkpt lat="49.35671" lon="3.7113">
        <ele>97.23</ele>
        <time>2021-08-09T06:58:24Z</time>
      </trkpt>
      <trkpt lat="49.35668" lon="3.71139">
        <ele>97.23</ele>
        <time>2021-08-09T06:58:25Z</time>
      </trkpt>
      <trkpt lat="49.35646" lon="3.71192">
        <ele>96.27</ele>
        <time>2021-08-09T06:58:32Z</time>
      </trkpt>
      <trkpt lat="49.35617" lon="3.71255">
        <ele>96.27</ele>
        <time>2021-08-09T06:58:42Z</time>
      </trkpt>
      <trkpt lat="49.35599" lon="3.71293">
        <ele>97.71</ele>
        <time>2021-08-09T06:58:50Z</time>
      </trkpt>
      <trkpt lat="49.35589" lon="3.71316">
        <ele>100.11</ele>
        <time>2021-08-09T06:58:57Z</time>
      </trkpt>
      <trkpt lat="49.35577" lon="3.7134">
        <ele>100.6</ele>
        <time>2021-08-09T06:59:05Z</time>
      </trkpt>
      <trkpt lat="49.35562" lon="3.71376">
        <ele>103</ele>
        <time>2021-08-09T06:59:16Z</time>
      </trkpt>
      <trkpt lat="49.35542" lon="3.71404">
        <ele>103.96</ele>
        <time>2021-08-09T06:59:25Z</time>
      </trkpt>
      <trkpt lat="49.35522" lon="3.71431">
        <ele>103.96</ele>
        <time>2021-08-09T06:59:33Z</time>
      </trkpt>
      <trkpt lat="49.35501" lon="3.7146">
        <ele>104.44</ele>
        <time>2021-08-09T06:59:41Z</time>
      </trkpt>
      <trkpt lat="49.35477" lon="3.71487">
        <ele>104.44</ele>
        <time>2021-08-09T06:59:49Z</time>
      </trkpt>
      <trkpt lat="49.3545" lon="3.71517">
        <ele>104.92</ele>
        <time>2021-08-09T06:59:59Z</time>
      </trkpt>
      <trkpt lat="49.35444" lon="3.71519">
        <ele>104.92</ele>
        <time>2021-08-09T07:00:01Z</time>
      </trkpt>
      <trkpt lat="49.35441" lon="3.71517">
        <ele>105.4</ele>
        <time>2021-08-09T07:00:02Z</time>
      </trkpt>
      <trkpt lat="49.3544" lon="3.71516">
        <ele>105.88</ele>
        <time>2021-08-09T07:00:03Z</time>
      </trkpt>
      <trkpt lat="49.35437" lon="3.71515">
        <ele>105.88</ele>
        <time>2021-08-09T07:00:04Z</time>
      </trkpt>
      <trkpt lat="49.35436" lon="3.71514">
        <ele>106.36</ele>
        <time>2021-08-09T07:00:05Z</time>
      </trkpt>
      <trkpt lat="49.35423" lon="3.71495">
        <ele>107.81</ele>
        <time>2021-08-09T07:00:14Z</time>
      </trkpt>
      <trkpt lat="49.3541" lon="3.71469">
        <ele>109.73</ele>
        <time>2021-08-09T07:00:25Z</time>
      </trkpt>
      <trkpt lat="49.354" lon="3.71448">
        <ele>111.17</ele>
        <time>2021-08-09T07:00:34Z</time>
      </trkpt>
      <trkpt lat="49.35389" lon="3.71428">
        <ele>112.61</ele>
        <time>2021-08-09T07:00:44Z</time>
      </trkpt>
      <trkpt lat="49.3538" lon="3.7141">
        <ele>114.05</ele>
        <time>2021-08-09T07:00:54Z</time>
      </trkpt>
      <trkpt lat="49.35373" lon="3.71391">
        <ele>115.01</ele>
        <time>2021-08-09T07:01:03Z</time>
      </trkpt>
      <trkpt lat="49.35369" lon="3.7138">
        <ele>116.46</ele>
        <time>2021-08-09T07:01:10Z</time>
      </trkpt>
      <trkpt lat="49.35363" lon="3.71365">
        <ele>118.38</ele>
        <time>2021-08-09T07:01:22Z</time>
      </trkpt>
      <trkpt lat="49.35359" lon="3.71356">
        <ele>119.82</ele>
        <time>2021-08-09T07:01:31Z</time>
      </trkpt>
      <trkpt lat="49.35357" lon="3.71351">
        <ele>120.78</ele>
        <time>2021-08-09T07:01:36Z</time>
      </trkpt>
      <trkpt lat="49.35352" lon="3.71343">
        <ele>121.74</ele>
        <time>2021-08-09T07:01:45Z</time>
      </trkpt>
      <trkpt lat="49.35347" lon="3.71334">
        <ele>123.19</ele>
        <time>2021-08-09T07:01:54Z</time>
      </trkpt>
      <trkpt lat="49.35343" lon="3.71327">
        <ele>124.15</ele>
        <time>2021-08-09T07:02:02Z</time>
      </trkpt>
      <trkpt lat="49.35339" lon="3.7132">
        <ele>125.59</ele>
        <time>2021-08-09T07:02:10Z</time>
      </trkpt>
      <trkpt lat="49.35335" lon="3.71309">
        <ele>127.03</ele>
        <time>2021-08-09T07:02:20Z</time>
      </trkpt>
      <trkpt lat="49.35333" lon="3.71298">
        <ele>127.99</ele>
        <time>2021-08-09T07:02:29Z</time>
      </trkpt>
      <trkpt lat="49.35333" lon="3.71294">
        <ele>127.99</ele>
        <time>2021-08-09T07:02:36Z</time>
      </trkpt>
      <trkpt lat="49.35333" lon="3.71292">
        <ele>128.47</ele>
        <time>2021-08-09T07:02:37Z</time>
      </trkpt>
      <trkpt lat="49.35333" lon="3.71277">
        <ele>129.43</ele>
        <time>2021-08-09T07:02:46Z</time>
      </trkpt>
      <trkpt lat="49.35334" lon="3.71275">
        <ele>129.43</ele>
        <time>2021-08-09T07:02:48Z</time>
      </trkpt>
      <trkpt lat="49.35335" lon="3.71276">
        <ele>129.43</ele>
        <time>2021-08-09T07:02:49Z</time>
      </trkpt>
      <trkpt lat="49.35334" lon="3.71279">
        <ele>129.43</ele>
        <time>2021-08-09T07:02:51Z</time>
      </trkpt>
      <trkpt lat="49.35328" lon="3.7127">
        <ele>129.92</ele>
        <time>2021-08-09T07:02:59Z</time>
      </trkpt>
      <trkpt lat="49.3533" lon="3.7125">
        <ele>131.36</ele>
        <time>2021-08-09T07:03:10Z</time>
      </trkpt>
      <trkpt lat="49.35331" lon="3.71242">
        <ele>132.32</ele>
        <time>2021-08-09T07:03:15Z</time>
      </trkpt>
      <trkpt lat="49.35332" lon="3.71225">
        <ele>133.28</ele>
        <time>2021-08-09T07:03:24Z</time>
      </trkpt>
      <trkpt lat="49.35334" lon="3.71222">
        <ele>133.76</ele>
        <time>2021-08-09T07:03:26Z</time>
      </trkpt>
      <trkpt lat="49.35338" lon="3.71202">
        <ele>135.68</ele>
        <time>2021-08-09T07:03:38Z</time>
      </trkpt>
      <trkpt lat="49.35339" lon="3.71196">
        <ele>136.16</ele>
        <time>2021-08-09T07:03:44Z</time>
      </trkpt>
      <trkpt lat="49.35339" lon="3.71186">
        <ele>138.09</ele>
        <time>2021-08-09T07:03:53Z</time>
      </trkpt>
      <trkpt lat="49.35339" lon="3.71176">
        <ele>138.57</ele>
        <time>2021-08-09T07:04:03Z</time>
      </trkpt>
      <trkpt lat="49.35337" lon="3.71167">
        <ele>140.49</ele>
        <time>2021-08-09T07:04:12Z</time>
      </trkpt>
      <trkpt lat="49.35334" lon="3.71158">
        <ele>141.45</ele>
        <time>2021-08-09T07:04:22Z</time>
      </trkpt>
      <trkpt lat="49.35331" lon="3.71151">
        <ele>142.41</ele>
        <time>2021-08-09T07:04:28Z</time>
      </trkpt>
      <trkpt lat="49.35326" lon="3.71141">
        <ele>143.37</ele>
        <time>2021-08-09T07:04:38Z</time>
      </trkpt>
      <trkpt lat="49.35325" lon="3.71138">
        <ele>143.85</ele>
        <time>2021-08-09T07:04:43Z</time>
      </trkpt>
      <trkpt lat="49.3532" lon="3.71131">
        <ele>144.34</ele>
        <time>2021-08-09T07:04:48Z</time>
      </trkpt>
      <trkpt lat="49.3531" lon="3.7112">
        <ele>146.26</ele>
        <time>2021-08-09T07:04:58Z</time>
      </trkpt>
      <trkpt lat="49.35302" lon="3.71111">
        <ele>147.22</ele>
        <time>2021-08-09T07:05:06Z</time>
      </trkpt>
      <trkpt lat="49.35299" lon="3.71108">
        <ele>147.7</ele>
        <time>2021-08-09T07:05:09Z</time>
      </trkpt>
      <trkpt lat="49.35291" lon="3.71103">
        <ele>149.14</ele>
        <time>2021-08-09T07:05:17Z</time>
      </trkpt>
      <trkpt lat="49.35281" lon="3.71094">
        <ele>150.58</ele>
        <time>2021-08-09T07:05:26Z</time>
      </trkpt>
      <trkpt lat="49.35269" lon="3.71086">
        <ele>151.06</ele>
        <time>2021-08-09T07:05:35Z</time>
      </trkpt>
      <trkpt lat="49.35252" lon="3.71074">
        <ele>152.03</ele>
        <time>2021-08-09T07:05:47Z</time>
      </trkpt>
      <trkpt lat="49.35232" lon="3.7106">
        <ele>152.51</ele>
        <time>2021-08-09T07:06:00Z</time>
      </trkpt>
      <trkpt lat="49.35218" lon="3.71051">
        <ele>153.47</ele>
        <time>2021-08-09T07:06:09Z</time>
      </trkpt>
      <trkpt lat="49.35202" lon="3.71041">
        <ele>153.95</ele>
        <time>2021-08-09T07:06:19Z</time>
      </trkpt>
      <trkpt lat="49.35192" lon="3.71033">
        <ele>154.43</ele>
        <time>2021-08-09T07:06:25Z</time>
      </trkpt>
      <trkpt lat="49.35191" lon="3.7103">
        <ele>154.43</ele>
        <time>2021-08-09T07:06:26Z</time>
      </trkpt>
      <trkpt lat="49.3519" lon="3.71029">
        <ele>154.43</ele>
        <time>2021-08-09T07:06:27Z</time>
      </trkpt>
      <trkpt lat="49.3518" lon="3.71022">
        <ele>155.39</ele>
        <time>2021-08-09T07:06:33Z</time>
      </trkpt>
      <trkpt lat="49.35179" lon="3.71022">
        <ele>155.39</ele>
        <time>2021-08-09T07:06:34Z</time>
      </trkpt>
      <trkpt lat="49.35177" lon="3.71021">
        <ele>155.39</ele>
        <time>2021-08-09T07:06:35Z</time>
      </trkpt>
      <trkpt lat="49.35175" lon="3.7102">
        <ele>155.39</ele>
        <time>2021-08-09T07:06:36Z</time>
      </trkpt>
      <trkpt lat="49.35173" lon="3.71019">
        <ele>155.39</ele>
        <time>2021-08-09T07:06:37Z</time>
      </trkpt>
      <trkpt lat="49.35156" lon="3.7101">
        <ele>155.87</ele>
        <time>2021-08-09T07:06:46Z</time>
      </trkpt>
      <trkpt lat="49.35139" lon="3.71001">
        <ele>156.83</ele>
        <time>2021-08-09T07:06:55Z</time>
      </trkpt>
      <trkpt lat="49.35116" lon="3.70991">
        <ele>157.79</ele>
        <time>2021-08-09T07:07:06Z</time>
      </trkpt>
      <trkpt lat="49.35097" lon="3.70983">
        <ele>157.79</ele>
        <time>2021-08-09T07:07:14Z</time>
      </trkpt>
      <trkpt lat="49.35085" lon="3.70978">
        <ele>157.79</ele>
        <time>2021-08-09T07:07:19Z</time>
      </trkpt>
      <trkpt lat="49.35082" lon="3.70977">
        <ele>158.27</ele>
        <time>2021-08-09T07:07:24Z</time>
      </trkpt>
      <trkpt lat="49.3508" lon="3.70976">
        <ele>158.27</ele>
        <time>2021-08-09T07:07:26Z</time>
      </trkpt>
      <trkpt lat="49.35065" lon="3.7097">
        <ele>158.27</ele>
        <time>2021-08-09T07:07:32Z</time>
      </trkpt>
      <trkpt lat="49.35035" lon="3.70959">
        <ele>156.83</ele>
        <time>2021-08-09T07:07:42Z</time>
      </trkpt>
      <trkpt lat="49.34995" lon="3.70942">
        <ele>156.83</ele>
        <time>2021-08-09T07:07:55Z</time>
      </trkpt>
      <trkpt lat="49.34966" lon="3.70929">
        <ele>156.83</ele>
        <time>2021-08-09T07:08:05Z</time>
      </trkpt>
      <trkpt lat="49.34928" lon="3.70918">
        <ele>158.75</ele>
        <time>2021-08-09T07:08:18Z</time>
      </trkpt>
      <trkpt lat="49.34901" lon="3.70909">
        <ele>158.75</ele>
        <time>2021-08-09T07:08:27Z</time>
      </trkpt>
      <trkpt lat="49.34875" lon="3.70896">
        <ele>158.75</ele>
        <time>2021-08-09T07:08:35Z</time>
      </trkpt>
      <trkpt lat="49.34844" lon="3.70878">
        <ele>158.75</ele>
        <time>2021-08-09T07:08:45Z</time>
      </trkpt>
      <trkpt lat="49.34832" lon="3.7087">
        <ele>158.75</ele>
        <time>2021-08-09T07:08:52Z</time>
      </trkpt>
      <trkpt lat="49.34832" lon="3.7087">
        <ele>159.24</ele>
        <time>2021-08-09T07:09:05Z</time>
      </trkpt>
      <trkpt lat="49.34828" lon="3.70868">
        <ele>159.24</ele>
        <time>2021-08-09T07:09:16Z</time>
      </trkpt>
      <trkpt lat="49.34815" lon="3.7086">
        <ele>159.24</ele>
        <time>2021-08-09T07:09:22Z</time>
      </trkpt>
      <trkpt lat="49.34793" lon="3.70848">
        <ele>159.24</ele>
        <time>2021-08-09T07:09:29Z</time>
      </trkpt>
      <trkpt lat="49.3477" lon="3.70841">
        <ele>160.2</ele>
        <time>2021-08-09T07:09:37Z</time>
      </trkpt>
      <trkpt lat="49.34747" lon="3.70842">
        <ele>160.68</ele>
        <time>2021-08-09T07:09:45Z</time>
      </trkpt>
      <trkpt lat="49.3473" lon="3.70842">
        <ele>161.16</ele>
        <time>2021-08-09T07:09:51Z</time>
      </trkpt>
      <trkpt lat="49.34698" lon="3.70844">
        <ele>161.16</ele>
        <time>2021-08-09T07:10:02Z</time>
      </trkpt>
      <trkpt lat="49.34673" lon="3.70844">
        <ele>161.64</ele>
        <time>2021-08-09T07:10:12Z</time>
      </trkpt>
      <trkpt lat="49.34648" lon="3.70834">
        <ele>161.64</ele>
        <time>2021-08-09T07:10:21Z</time>
      </trkpt>
      <trkpt lat="49.34627" lon="3.7082">
        <ele>161.64</ele>
        <time>2021-08-09T07:10:28Z</time>
      </trkpt>
      <trkpt lat="49.34611" lon="3.70808">
        <ele>161.64</ele>
        <time>2021-08-09T07:10:34Z</time>
      </trkpt>
      <trkpt lat="49.34579" lon="3.70789">
        <ele>161.64</ele>
        <time>2021-08-09T07:10:45Z</time>
      </trkpt>
      <trkpt lat="49.34552" lon="3.70775">
        <ele>162.6</ele>
        <time>2021-08-09T07:10:55Z</time>
      </trkpt>
      <trkpt lat="49.34527" lon="3.70765">
        <ele>163.08</ele>
        <time>2021-08-09T07:11:05Z</time>
      </trkpt>
      <trkpt lat="49.34506" lon="3.70758">
        <ele>163.56</ele>
        <time>2021-08-09T07:11:13Z</time>
      </trkpt>
      <trkpt lat="49.34476" lon="3.70749">
        <ele>163.56</ele>
        <time>2021-08-09T07:11:21Z</time>
      </trkpt>
      <trkpt lat="49.34459" lon="3.70743">
        <ele>162.12</ele>
        <time>2021-08-09T07:11:25Z</time>
      </trkpt>
      <trkpt lat="49.34454" lon="3.70742">
        <ele>162.12</ele>
        <time>2021-08-09T07:11:26Z</time>
      </trkpt>
      <trkpt lat="49.3441" lon="3.7073">
        <ele>161.64</ele>
        <time>2021-08-09T07:11:35Z</time>
      </trkpt>
      <trkpt lat="49.34372" lon="3.70724">
        <ele>161.64</ele>
        <time>2021-08-09T07:11:43Z</time>
      </trkpt>
      <trkpt lat="49.34356" lon="3.70724">
        <ele>161.64</ele>
        <time>2021-08-09T07:11:48Z</time>
      </trkpt>
      <trkpt lat="49.34345" lon="3.70722">
        <ele>163.08</ele>
        <time>2021-08-09T07:11:52Z</time>
      </trkpt>
      <trkpt lat="49.34333" lon="3.70708">
        <ele>163.56</ele>
        <time>2021-08-09T07:11:59Z</time>
      </trkpt>
      <trkpt lat="49.34317" lon="3.70701">
        <ele>164.04</ele>
        <time>2021-08-09T07:12:06Z</time>
      </trkpt>
      <trkpt lat="49.34292" lon="3.70683">
        <ele>165</ele>
        <time>2021-08-09T07:12:17Z</time>
      </trkpt>
      <trkpt lat="49.34277" lon="3.70663">
        <ele>165.96</ele>
        <time>2021-08-09T07:12:26Z</time>
      </trkpt>
      <trkpt lat="49.34263" lon="3.70647">
        <ele>166.93</ele>
        <time>2021-08-09T07:12:36Z</time>
      </trkpt>
      <trkpt lat="49.34253" lon="3.70635">
        <ele>167.89</ele>
        <time>2021-08-09T07:12:43Z</time>
      </trkpt>
      <trkpt lat="49.3424" lon="3.70618">
        <ele>168.37</ele>
        <time>2021-08-09T07:12:51Z</time>
      </trkpt>
      <trkpt lat="49.34226" lon="3.706">
        <ele>168.85</ele>
        <time>2021-08-09T07:13:00Z</time>
      </trkpt>
      <trkpt lat="49.34208" lon="3.70573">
        <ele>170.29</ele>
        <time>2021-08-09T07:13:13Z</time>
      </trkpt>
      <trkpt lat="49.34196" lon="3.70554">
        <ele>172.21</ele>
        <time>2021-08-09T07:13:22Z</time>
      </trkpt>
      <trkpt lat="49.34184" lon="3.70538">
        <ele>172.69</ele>
        <time>2021-08-09T07:13:30Z</time>
      </trkpt>
      <trkpt lat="49.3417" lon="3.7052">
        <ele>173.66</ele>
        <time>2021-08-09T07:13:39Z</time>
      </trkpt>
      <trkpt lat="49.34156" lon="3.70504">
        <ele>174.62</ele>
        <time>2021-08-09T07:13:47Z</time>
      </trkpt>
      <trkpt lat="49.34143" lon="3.70488">
        <ele>174.62</ele>
        <time>2021-08-09T07:13:54Z</time>
      </trkpt>
      <trkpt lat="49.34125" lon="3.70469">
        <ele>175.58</ele>
        <time>2021-08-09T07:14:03Z</time>
      </trkpt>
      <trkpt lat="49.34106" lon="3.70448">
        <ele>176.06</ele>
        <time>2021-08-09T07:14:12Z</time>
      </trkpt>
      <trkpt lat="49.34082" lon="3.70421">
        <ele>176.54</ele>
        <time>2021-08-09T07:14:24Z</time>
      </trkpt>
      <trkpt lat="49.34065" lon="3.70404">
        <ele>176.54</ele>
        <time>2021-08-09T07:14:32Z</time>
      </trkpt>
      <trkpt lat="49.34048" lon="3.70384">
        <ele>177.02</ele>
        <time>2021-08-09T07:14:40Z</time>
      </trkpt>
      <trkpt lat="49.34024" lon="3.70359">
        <ele>177.5</ele>
        <time>2021-08-09T07:14:50Z</time>
      </trkpt>
      <trkpt lat="49.34007" lon="3.70341">
        <ele>177.5</ele>
        <time>2021-08-09T07:14:57Z</time>
      </trkpt>
      <trkpt lat="49.33983" lon="3.70316">
        <ele>177.98</ele>
        <time>2021-08-09T07:15:07Z</time>
      </trkpt>
      <trkpt lat="49.33963" lon="3.70293">
        <ele>177.98</ele>
        <time>2021-08-09T07:15:15Z</time>
      </trkpt>
      <trkpt lat="49.33937" lon="3.70265">
        <ele>177.98</ele>
        <time>2021-08-09T07:15:25Z</time>
      </trkpt>
      <trkpt lat="49.3391" lon="3.70236">
        <ele>177.98</ele>
        <time>2021-08-09T07:15:35Z</time>
      </trkpt>
      <trkpt lat="49.33881" lon="3.70204">
        <ele>177.98</ele>
        <time>2021-08-09T07:15:46Z</time>
      </trkpt>
      <trkpt lat="49.33853" lon="3.70173">
        <ele>177.98</ele>
        <time>2021-08-09T07:15:57Z</time>
      </trkpt>
      <trkpt lat="49.33832" lon="3.7015">
        <ele>176.54</ele>
        <time>2021-08-09T07:16:05Z</time>
      </trkpt>
      <trkpt lat="49.3381" lon="3.70128">
        <ele>176.06</ele>
        <time>2021-08-09T07:16:12Z</time>
      </trkpt>
      <trkpt lat="49.33799" lon="3.70116">
        <ele>175.58</ele>
        <time>2021-08-09T07:16:15Z</time>
      </trkpt>
      <trkpt lat="49.33796" lon="3.70112">
        <ele>175.58</ele>
        <time>2021-08-09T07:16:16Z</time>
      </trkpt>
      <trkpt lat="49.33792" lon="3.70108">
        <ele>175.1</ele>
        <time>2021-08-09T07:16:17Z</time>
      </trkpt>
      <trkpt lat="49.33767" lon="3.70084">
        <ele>174.14</ele>
        <time>2021-08-09T07:16:25Z</time>
      </trkpt>
      <trkpt lat="49.33747" lon="3.70062">
        <ele>173.66</ele>
        <time>2021-08-09T07:16:32Z</time>
      </trkpt>
      <trkpt lat="49.33708" lon="3.70028">
        <ele>172.69</ele>
        <time>2021-08-09T07:16:42Z</time>
      </trkpt>
      <trkpt lat="49.33661" lon="3.69986">
        <ele>170.29</ele>
        <time>2021-08-09T07:16:53Z</time>
      </trkpt>
      <trkpt lat="49.33616" lon="3.69942">
        <ele>167.41</ele>
        <time>2021-08-09T07:17:02Z</time>
      </trkpt>
      <trkpt lat="49.33602" lon="3.69921">
        <ele>167.41</ele>
        <time>2021-08-09T07:17:06Z</time>
      </trkpt>
      <trkpt lat="49.33598" lon="3.69918">
        <ele>167.41</ele>
        <time>2021-08-09T07:17:07Z</time>
      </trkpt>
      <trkpt lat="49.33585" lon="3.69911">
        <ele>166.45</ele>
        <time>2021-08-09T07:17:10Z</time>
      </trkpt>
      <trkpt lat="49.33568" lon="3.699">
        <ele>165.48</ele>
        <time>2021-08-09T07:17:14Z</time>
      </trkpt>
      <trkpt lat="49.33558" lon="3.69896">
        <ele>165</ele>
        <time>2021-08-09T07:17:16Z</time>
      </trkpt>
      <trkpt lat="49.33553" lon="3.69897">
        <ele>165</ele>
        <time>2021-08-09T07:17:17Z</time>
      </trkpt>
      <trkpt lat="49.33548" lon="3.69899">
        <ele>164.52</ele>
        <time>2021-08-09T07:17:18Z</time>
      </trkpt>
      <trkpt lat="49.33544" lon="3.69903">
        <ele>164.52</ele>
        <time>2021-08-09T07:17:19Z</time>
      </trkpt>
      <trkpt lat="49.3354" lon="3.69907">
        <ele>164.52</ele>
        <time>2021-08-09T07:17:20Z</time>
      </trkpt>
      <trkpt lat="49.33537" lon="3.6991">
        <ele>164.52</ele>
        <time>2021-08-09T07:17:21Z</time>
      </trkpt>
      <trkpt lat="49.33533" lon="3.69914">
        <ele>164.52</ele>
        <time>2021-08-09T07:17:22Z</time>
      </trkpt>
      <trkpt lat="49.33511" lon="3.69941">
        <ele>162.6</ele>
        <time>2021-08-09T07:17:29Z</time>
      </trkpt>
      <trkpt lat="49.33492" lon="3.69957">
        <ele>161.16</ele>
        <time>2021-08-09T07:17:37Z</time>
      </trkpt>
      <trkpt lat="49.3348" lon="3.69966">
        <ele>160.68</ele>
        <time>2021-08-09T07:17:44Z</time>
      </trkpt>
      <trkpt lat="49.33467" lon="3.69972">
        <ele>160.2</ele>
        <time>2021-08-09T07:17:51Z</time>
      </trkpt>
      <trkpt lat="49.33454" lon="3.69984">
        <ele>160.2</ele>
        <time>2021-08-09T07:17:58Z</time>
      </trkpt>
      <trkpt lat="49.33452" lon="3.69985">
        <ele>160.2</ele>
        <time>2021-08-09T07:18:02Z</time>
      </trkpt>
      <trkpt lat="49.33444" lon="3.69993">
        <ele>160.2</ele>
        <time>2021-08-09T07:18:09Z</time>
      </trkpt>
      <trkpt lat="49.33436" lon="3.70001">
        <ele>160.2</ele>
        <time>2021-08-09T07:18:15Z</time>
      </trkpt>
      <trkpt lat="49.3343" lon="3.70006">
        <ele>161.64</ele>
        <time>2021-08-09T07:18:18Z</time>
      </trkpt>
      <trkpt lat="49.33414" lon="3.70021">
        <ele>162.12</ele>
        <time>2021-08-09T07:18:26Z</time>
      </trkpt>
      <trkpt lat="49.334" lon="3.70035">
        <ele>163.08</ele>
        <time>2021-08-09T07:18:34Z</time>
      </trkpt>
      <trkpt lat="49.33386" lon="3.70048">
        <ele>163.08</ele>
        <time>2021-08-09T07:18:42Z</time>
      </trkpt>
      <trkpt lat="49.33382" lon="3.70051">
        <ele>163.08</ele>
        <time>2021-08-09T07:18:44Z</time>
      </trkpt>
      <trkpt lat="49.33381" lon="3.70053">
        <ele>163.08</ele>
        <time>2021-08-09T07:18:45Z</time>
      </trkpt>
      <trkpt lat="49.33368" lon="3.70071">
        <ele>163.08</ele>
        <time>2021-08-09T07:18:53Z</time>
      </trkpt>
      <trkpt lat="49.33352" lon="3.70093">
        <ele>163.08</ele>
        <time>2021-08-09T07:19:02Z</time>
      </trkpt>
      <trkpt lat="49.33339" lon="3.70119">
        <ele>163.08</ele>
        <time>2021-08-09T07:19:09Z</time>
      </trkpt>
      <trkpt lat="49.33324" lon="3.7016">
        <ele>162.12</ele>
        <time>2021-08-09T07:19:19Z</time>
      </trkpt>
      <trkpt lat="49.33316" lon="3.7019">
        <ele>161.16</ele>
        <time>2021-08-09T07:19:26Z</time>
      </trkpt>
      <trkpt lat="49.3331" lon="3.70214">
        <ele>161.16</ele>
        <time>2021-08-09T07:19:32Z</time>
      </trkpt>
      <trkpt lat="49.33302" lon="3.70254">
        <ele>161.16</ele>
        <time>2021-08-09T07:19:41Z</time>
      </trkpt>
      <trkpt lat="49.33298" lon="3.70278">
        <ele>163.08</ele>
        <time>2021-08-09T07:19:49Z</time>
      </trkpt>
      <trkpt lat="49.33297" lon="3.70286">
        <ele>163.56</ele>
        <time>2021-08-09T07:19:52Z</time>
      </trkpt>
      <trkpt lat="49.33298" lon="3.70289">
        <ele>163.56</ele>
        <time>2021-08-09T07:19:53Z</time>
      </trkpt>
      <trkpt lat="49.33298" lon="3.70292">
        <ele>163.56</ele>
        <time>2021-08-09T07:19:54Z</time>
      </trkpt>
      <trkpt lat="49.33297" lon="3.70295">
        <ele>163.56</ele>
        <time>2021-08-09T07:19:55Z</time>
      </trkpt>
      <trkpt lat="49.33297" lon="3.70297">
        <ele>163.56</ele>
        <time>2021-08-09T07:19:56Z</time>
      </trkpt>
      <trkpt lat="49.33297" lon="3.70299">
        <ele>163.56</ele>
        <time>2021-08-09T07:19:57Z</time>
      </trkpt>
      <trkpt lat="49.33296" lon="3.70301">
        <ele>163.56</ele>
        <time>2021-08-09T07:19:58Z</time>
      </trkpt>
      <trkpt lat="49.33294" lon="3.70303">
        <ele>163.56</ele>
        <time>2021-08-09T07:19:59Z</time>
      </trkpt>
      <trkpt lat="49.33293" lon="3.70304">
        <ele>163.56</ele>
        <time>2021-08-09T07:20:00Z</time>
      </trkpt>
      <trkpt lat="49.33279" lon="3.70302">
        <ele>163.56</ele>
        <time>2021-08-09T07:20:07Z</time>
      </trkpt>
      <trkpt lat="49.33256" lon="3.70293">
        <ele>163.56</ele>
        <time>2021-08-09T07:20:17Z</time>
      </trkpt>
      <trkpt lat="49.33235" lon="3.70284">
        <ele>164.04</ele>
        <time>2021-08-09T07:20:26Z</time>
      </trkpt>
      <trkpt lat="49.33205" lon="3.7027">
        <ele>164.52</ele>
        <time>2021-08-09T07:20:38Z</time>
      </trkpt>
      <trkpt lat="49.33185" lon="3.70262">
        <ele>165</ele>
        <time>2021-08-09T07:20:47Z</time>
      </trkpt>
      <trkpt lat="49.33161" lon="3.70252">
        <ele>165.48</ele>
        <time>2021-08-09T07:20:57Z</time>
      </trkpt>
      <trkpt lat="49.33133" lon="3.70244">
        <ele>166.45</ele>
        <time>2021-08-09T07:21:08Z</time>
      </trkpt>
      <trkpt lat="49.33101" lon="3.7024">
        <ele>166.45</ele>
        <time>2021-08-09T07:21:20Z</time>
      </trkpt>
      <trkpt lat="49.33077" lon="3.70239">
        <ele>166.45</ele>
        <time>2021-08-09T07:21:29Z</time>
      </trkpt>
      <trkpt lat="49.33051" lon="3.70239">
        <ele>167.41</ele>
        <time>2021-08-09T07:21:39Z</time>
      </trkpt>
      <trkpt lat="49.33029" lon="3.70241">
        <ele>167.89</ele>
        <time>2021-08-09T07:21:48Z</time>
      </trkpt>
      <trkpt lat="49.33002" lon="3.70244">
        <ele>168.37</ele>
        <time>2021-08-09T07:21:59Z</time>
      </trkpt>
      <trkpt lat="49.32979" lon="3.70248">
        <ele>168.85</ele>
        <time>2021-08-09T07:22:08Z</time>
      </trkpt>
      <trkpt lat="49.32953" lon="3.70253">
        <ele>169.33</ele>
        <time>2021-08-09T07:22:18Z</time>
      </trkpt>
      <trkpt lat="49.32923" lon="3.70261">
        <ele>169.33</ele>
        <time>2021-08-09T07:22:29Z</time>
      </trkpt>
      <trkpt lat="49.32887" lon="3.70273">
        <ele>169.33</ele>
        <time>2021-08-09T07:22:41Z</time>
      </trkpt>
      <trkpt lat="49.32853" lon="3.7029">
        <ele>169.33</ele>
        <time>2021-08-09T07:22:53Z</time>
      </trkpt>
      <trkpt lat="49.32827" lon="3.70306">
        <ele>169.81</ele>
        <time>2021-08-09T07:23:03Z</time>
      </trkpt>
      <trkpt lat="49.32803" lon="3.70322">
        <ele>169.81</ele>
        <time>2021-08-09T07:23:13Z</time>
      </trkpt>
      <trkpt lat="49.32783" lon="3.70336">
        <ele>170.77</ele>
        <time>2021-08-09T07:23:22Z</time>
      </trkpt>
      <trkpt lat="49.32759" lon="3.70352">
        <ele>170.77</ele>
        <time>2021-08-09T07:23:30Z</time>
      </trkpt>
      <trkpt lat="49.32734" lon="3.70368">
        <ele>170.77</ele>
        <time>2021-08-09T07:23:38Z</time>
      </trkpt>
      <trkpt lat="49.32713" lon="3.70382">
        <ele>169.81</ele>
        <time>2021-08-09T07:23:44Z</time>
      </trkpt>
      <trkpt lat="49.32669" lon="3.70411">
        <ele>168.37</ele>
        <time>2021-08-09T07:23:56Z</time>
      </trkpt>
      <trkpt lat="49.32633" lon="3.7044">
        <ele>165.96</ele>
        <time>2021-08-09T07:24:06Z</time>
      </trkpt>
      <trkpt lat="49.32594" lon="3.70466">
        <ele>164.04</ele>
        <time>2021-08-09T07:24:15Z</time>
      </trkpt>
      <trkpt lat="49.32585" lon="3.70469">
        <ele>162.6</ele>
        <time>2021-08-09T07:24:17Z</time>
      </trkpt>
      <trkpt lat="49.3258" lon="3.70469">
        <ele>162.6</ele>
        <time>2021-08-09T07:24:18Z</time>
      </trkpt>
      <trkpt lat="49.32576" lon="3.70467">
        <ele>162.6</ele>
        <time>2021-08-09T07:24:19Z</time>
      </trkpt>
      <trkpt lat="49.32572" lon="3.70465">
        <ele>162.6</ele>
        <time>2021-08-09T07:24:20Z</time>
      </trkpt>
      <trkpt lat="49.32568" lon="3.70462">
        <ele>162.6</ele>
        <time>2021-08-09T07:24:21Z</time>
      </trkpt>
      <trkpt lat="49.32564" lon="3.70461">
        <ele>162.6</ele>
        <time>2021-08-09T07:24:22Z</time>
      </trkpt>
      <trkpt lat="49.3252" lon="3.70444">
        <ele>159.72</ele>
        <time>2021-08-09T07:24:30Z</time>
      </trkpt>
      <trkpt lat="49.3247" lon="3.70425">
        <ele>155.87</ele>
        <time>2021-08-09T07:24:38Z</time>
      </trkpt>
      <trkpt lat="49.32431" lon="3.7041">
        <ele>152.99</ele>
        <time>2021-08-09T07:24:44Z</time>
      </trkpt>
      <trkpt lat="49.32399" lon="3.70399">
        <ele>149.14</ele>
        <time>2021-08-09T07:24:48Z</time>
      </trkpt>
      <trkpt lat="49.32391" lon="3.70399">
        <ele>148.66</ele>
        <time>2021-08-09T07:24:49Z</time>
      </trkpt>
      <trkpt lat="49.32383" lon="3.704">
        <ele>148.18</ele>
        <time>2021-08-09T07:24:50Z</time>
      </trkpt>
      <trkpt lat="49.32375" lon="3.70402">
        <ele>147.22</ele>
        <time>2021-08-09T07:24:51Z</time>
      </trkpt>
      <trkpt lat="49.32368" lon="3.70405">
        <ele>147.22</ele>
        <time>2021-08-09T07:24:52Z</time>
      </trkpt>
      <trkpt lat="49.3236" lon="3.7041">
        <ele>146.74</ele>
        <time>2021-08-09T07:24:53Z</time>
      </trkpt>
      <trkpt lat="49.32354" lon="3.70417">
        <ele>146.74</ele>
        <time>2021-08-09T07:24:54Z</time>
      </trkpt>
      <trkpt lat="49.3235" lon="3.70426">
        <ele>145.78</ele>
        <time>2021-08-09T07:24:55Z</time>
      </trkpt>
      <trkpt lat="49.32346" lon="3.70436">
        <ele>145.78</ele>
        <time>2021-08-09T07:24:56Z</time>
      </trkpt>
      <trkpt lat="49.32344" lon="3.70446">
        <ele>144.82</ele>
        <time>2021-08-09T07:24:57Z</time>
      </trkpt>
      <trkpt lat="49.32343" lon="3.70457">
        <ele>144.82</ele>
        <time>2021-08-09T07:24:58Z</time>
      </trkpt>
      <trkpt lat="49.32343" lon="3.70468">
        <ele>143.37</ele>
        <time>2021-08-09T07:24:59Z</time>
      </trkpt>
      <trkpt lat="49.32344" lon="3.70479">
        <ele>142.89</ele>
        <time>2021-08-09T07:25:00Z</time>
      </trkpt>
      <trkpt lat="49.32345" lon="3.70491">
        <ele>141.93</ele>
        <time>2021-08-09T07:25:01Z</time>
      </trkpt>
      <trkpt lat="49.32347" lon="3.70502">
        <ele>140.97</ele>
        <time>2021-08-09T07:25:02Z</time>
      </trkpt>
      <trkpt lat="49.3235" lon="3.70512">
        <ele>140.97</ele>
        <time>2021-08-09T07:25:03Z</time>
      </trkpt>
      <trkpt lat="49.32354" lon="3.70522">
        <ele>140.01</ele>
        <time>2021-08-09T07:25:04Z</time>
      </trkpt>
      <trkpt lat="49.32358" lon="3.70532">
        <ele>139.05</ele>
        <time>2021-08-09T07:25:05Z</time>
      </trkpt>
      <trkpt lat="49.32364" lon="3.70542">
        <ele>138.57</ele>
        <time>2021-08-09T07:25:06Z</time>
      </trkpt>
      <trkpt lat="49.32369" lon="3.7055">
        <ele>137.61</ele>
        <time>2021-08-09T07:25:07Z</time>
      </trkpt>
      <trkpt lat="49.32375" lon="3.70557">
        <ele>137.13</ele>
        <time>2021-08-09T07:25:08Z</time>
      </trkpt>
      <trkpt lat="49.32382" lon="3.70565">
        <ele>136.16</ele>
        <time>2021-08-09T07:25:09Z</time>
      </trkpt>
      <trkpt lat="49.32405" lon="3.70585">
        <ele>132.8</ele>
        <time>2021-08-09T07:25:12Z</time>
      </trkpt>
      <trkpt lat="49.32431" lon="3.70606">
        <ele>129.92</ele>
        <time>2021-08-09T07:25:15Z</time>
      </trkpt>
      <trkpt lat="49.3244" lon="3.70613">
        <ele>129.92</ele>
        <time>2021-08-09T07:25:16Z</time>
      </trkpt>
      <trkpt lat="49.32459" lon="3.70625">
        <ele>128.47</ele>
        <time>2021-08-09T07:25:18Z</time>
      </trkpt>
      <trkpt lat="49.32477" lon="3.70636">
        <ele>127.03</ele>
        <time>2021-08-09T07:25:20Z</time>
      </trkpt>
      <trkpt lat="49.32535" lon="3.70683">
        <ele>125.59</ele>
        <time>2021-08-09T07:25:27Z</time>
      </trkpt>
      <trkpt lat="49.32574" lon="3.70723">
        <ele>125.11</ele>
        <time>2021-08-09T07:25:33Z</time>
      </trkpt>
      <trkpt lat="49.32608" lon="3.70772">
        <ele>125.11</ele>
        <time>2021-08-09T07:25:40Z</time>
      </trkpt>
      <trkpt lat="49.3264" lon="3.70828">
        <ele>124.63</ele>
        <time>2021-08-09T07:25:49Z</time>
      </trkpt>
      <trkpt lat="49.32642" lon="3.70833">
        <ele>124.63</ele>
        <time>2021-08-09T07:25:50Z</time>
      </trkpt>
      <trkpt lat="49.32642" lon="3.7084">
        <ele>124.63</ele>
        <time>2021-08-09T07:25:51Z</time>
      </trkpt>
      <trkpt lat="49.32641" lon="3.70846">
        <ele>124.15</ele>
        <time>2021-08-09T07:25:52Z</time>
      </trkpt>
      <trkpt lat="49.32639" lon="3.70854">
        <ele>123.67</ele>
        <time>2021-08-09T07:25:53Z</time>
      </trkpt>
      <trkpt lat="49.32636" lon="3.70861">
        <ele>123.19</ele>
        <time>2021-08-09T07:25:54Z</time>
      </trkpt>
      <trkpt lat="49.32632" lon="3.70868">
        <ele>122.71</ele>
        <time>2021-08-09T07:25:55Z</time>
      </trkpt>
      <trkpt lat="49.32613" lon="3.70899">
        <ele>118.38</ele>
        <time>2021-08-09T07:25:59Z</time>
      </trkpt>
      <trkpt lat="49.32608" lon="3.70906">
        <ele>118.38</ele>
        <time>2021-08-09T07:26:00Z</time>
      </trkpt>
      <trkpt lat="49.32587" lon="3.70939">
        <ele>115.01</ele>
        <time>2021-08-09T07:26:04Z</time>
      </trkpt>
      <trkpt lat="49.32582" lon="3.70949">
        <ele>114.53</ele>
        <time>2021-08-09T07:26:05Z</time>
      </trkpt>
      <trkpt lat="49.32579" lon="3.70957">
        <ele>114.53</ele>
        <time>2021-08-09T07:26:06Z</time>
      </trkpt>
      <trkpt lat="49.32577" lon="3.70966">
        <ele>114.53</ele>
        <time>2021-08-09T07:26:07Z</time>
      </trkpt>
      <trkpt lat="49.32576" lon="3.70973">
        <ele>113.57</ele>
        <time>2021-08-09T07:26:08Z</time>
      </trkpt>
      <trkpt lat="49.32576" lon="3.7098">
        <ele>113.57</ele>
        <time>2021-08-09T07:26:09Z</time>
      </trkpt>
      <trkpt lat="49.32578" lon="3.70987">
        <ele>113.09</ele>
        <time>2021-08-09T07:26:10Z</time>
      </trkpt>
      <trkpt lat="49.32579" lon="3.70994">
        <ele>112.13</ele>
        <time>2021-08-09T07:26:11Z</time>
      </trkpt>
      <trkpt lat="49.32581" lon="3.71001">
        <ele>111.65</ele>
        <time>2021-08-09T07:26:12Z</time>
      </trkpt>
      <trkpt lat="49.32584" lon="3.71007">
        <ele>111.65</ele>
        <time>2021-08-09T07:26:13Z</time>
      </trkpt>
      <trkpt lat="49.32585" lon="3.71014">
        <ele>111.17</ele>
        <time>2021-08-09T07:26:14Z</time>
      </trkpt>
      <trkpt lat="49.32586" lon="3.7102">
        <ele>110.69</ele>
        <time>2021-08-09T07:26:15Z</time>
      </trkpt>
      <trkpt lat="49.32585" lon="3.71025">
        <ele>110.69</ele>
        <time>2021-08-09T07:26:16Z</time>
      </trkpt>
      <trkpt lat="49.32583" lon="3.71031">
        <ele>109.73</ele>
        <time>2021-08-09T07:26:17Z</time>
      </trkpt>
      <trkpt lat="49.3258" lon="3.71036">
        <ele>109.73</ele>
        <time>2021-08-09T07:26:18Z</time>
      </trkpt>
      <trkpt lat="49.32577" lon="3.71041">
        <ele>108.77</ele>
        <time>2021-08-09T07:26:19Z</time>
      </trkpt>
      <trkpt lat="49.32551" lon="3.7108">
        <ele>107.32</ele>
        <time>2021-08-09T07:26:27Z</time>
      </trkpt>
      <trkpt lat="49.32547" lon="3.71091">
        <ele>106.84</ele>
        <time>2021-08-09T07:26:30Z</time>
      </trkpt>
      <trkpt lat="49.32546" lon="3.71098">
        <ele>106.36</ele>
        <time>2021-08-09T07:26:32Z</time>
      </trkpt>
      <trkpt lat="49.32536" lon="3.71121">
        <ele>105.4</ele>
        <time>2021-08-09T07:26:39Z</time>
      </trkpt>
      <trkpt lat="49.32532" lon="3.7113">
        <ele>104.92</ele>
        <time>2021-08-09T07:26:41Z</time>
      </trkpt>
      <trkpt lat="49.32529" lon="3.71136">
        <ele>103.96</ele>
        <time>2021-08-09T07:26:42Z</time>
      </trkpt>
      <trkpt lat="49.32522" lon="3.71148">
        <ele>103</ele>
        <time>2021-08-09T07:26:44Z</time>
      </trkpt>
      <trkpt lat="49.3251" lon="3.71177">
        <ele>102.04</ele>
        <time>2021-08-09T07:26:49Z</time>
      </trkpt>
      <trkpt lat="49.32503" lon="3.7121">
        <ele>99.63</ele>
        <time>2021-08-09T07:26:55Z</time>
      </trkpt>
      <trkpt lat="49.325" lon="3.71217">
        <ele>99.15</ele>
        <time>2021-08-09T07:26:56Z</time>
      </trkpt>
      <trkpt lat="49.32496" lon="3.71223">
        <ele>98.67</ele>
        <time>2021-08-09T07:26:57Z</time>
      </trkpt>
      <trkpt lat="49.3249" lon="3.71228">
        <ele>98.19</ele>
        <time>2021-08-09T07:26:58Z</time>
      </trkpt>
      <trkpt lat="49.32484" lon="3.71231">
        <ele>97.23</ele>
        <time>2021-08-09T07:26:59Z</time>
      </trkpt>
      <trkpt lat="49.32478" lon="3.71234">
        <ele>97.23</ele>
        <time>2021-08-09T07:27:00Z</time>
      </trkpt>
      <trkpt lat="49.32471" lon="3.71236">
        <ele>96.75</ele>
        <time>2021-08-09T07:27:01Z</time>
      </trkpt>
      <trkpt lat="49.32464" lon="3.71235">
        <ele>95.79</ele>
        <time>2021-08-09T07:27:02Z</time>
      </trkpt>
      <trkpt lat="49.32457" lon="3.7123">
        <ele>95.79</ele>
        <time>2021-08-09T07:27:03Z</time>
      </trkpt>
      <trkpt lat="49.32452" lon="3.71223">
        <ele>95.79</ele>
        <time>2021-08-09T07:27:04Z</time>
      </trkpt>
      <trkpt lat="49.32447" lon="3.71216">
        <ele>95.31</ele>
        <time>2021-08-09T07:27:05Z</time>
      </trkpt>
      <trkpt lat="49.32443" lon="3.71208">
        <ele>94.83</ele>
        <time>2021-08-09T07:27:06Z</time>
      </trkpt>
      <trkpt lat="49.32425" lon="3.71176">
        <ele>92.42</ele>
        <time>2021-08-09T07:27:11Z</time>
      </trkpt>
      <trkpt lat="49.32404" lon="3.71122">
        <ele>90.98</ele>
        <time>2021-08-09T07:27:18Z</time>
      </trkpt>
      <trkpt lat="49.32402" lon="3.71114">
        <ele>90.98</ele>
        <time>2021-08-09T07:27:19Z</time>
      </trkpt>
      <trkpt lat="49.32401" lon="3.71105">
        <ele>90.98</ele>
        <time>2021-08-09T07:27:20Z</time>
      </trkpt>
      <trkpt lat="49.32401" lon="3.71096">
        <ele>90.98</ele>
        <time>2021-08-09T07:27:21Z</time>
      </trkpt>
      <trkpt lat="49.32401" lon="3.71073">
        <ele>92.42</ele>
        <time>2021-08-09T07:27:24Z</time>
      </trkpt>
      <trkpt lat="49.324" lon="3.71066">
        <ele>92.42</ele>
        <time>2021-08-09T07:27:25Z</time>
      </trkpt>
      <trkpt lat="49.32397" lon="3.71059">
        <ele>92.42</ele>
        <time>2021-08-09T07:27:26Z</time>
      </trkpt>
      <trkpt lat="49.32394" lon="3.71054">
        <ele>92.42</ele>
        <time>2021-08-09T07:27:27Z</time>
      </trkpt>
      <trkpt lat="49.3239" lon="3.71049">
        <ele>92.42</ele>
        <time>2021-08-09T07:27:28Z</time>
      </trkpt>
      <trkpt lat="49.32377" lon="3.71029">
        <ele>92.9</ele>
        <time>2021-08-09T07:27:32Z</time>
      </trkpt>
      <trkpt lat="49.32375" lon="3.71023">
        <ele>92.9</ele>
        <time>2021-08-09T07:27:33Z</time>
      </trkpt>
      <trkpt lat="49.32374" lon="3.71018">
        <ele>92.9</ele>
        <time>2021-08-09T07:27:34Z</time>
      </trkpt>
      <trkpt lat="49.32373" lon="3.71012">
        <ele>92.9</ele>
        <time>2021-08-09T07:27:35Z</time>
      </trkpt>
      <trkpt lat="49.32372" lon="3.71006">
        <ele>92.9</ele>
        <time>2021-08-09T07:27:36Z</time>
      </trkpt>
      <trkpt lat="49.32362" lon="3.7098">
        <ele>93.39</ele>
        <time>2021-08-09T07:27:42Z</time>
      </trkpt>
      <trkpt lat="49.32346" lon="3.70956">
        <ele>95.31</ele>
        <time>2021-08-09T07:27:50Z</time>
      </trkpt>
      <trkpt lat="49.32328" lon="3.70929">
        <ele>96.75</ele>
        <time>2021-08-09T07:28:00Z</time>
      </trkpt>
      <trkpt lat="49.32308" lon="3.70912">
        <ele>97.71</ele>
        <time>2021-08-09T07:28:09Z</time>
      </trkpt>
      <trkpt lat="49.32288" lon="3.70892">
        <ele>97.71</ele>
        <time>2021-08-09T07:28:17Z</time>
      </trkpt>
      <trkpt lat="49.32273" lon="3.70877">
        <ele>98.19</ele>
        <time>2021-08-09T07:28:23Z</time>
      </trkpt>
      <trkpt lat="49.3227" lon="3.70877">
        <ele>98.19</ele>
        <time>2021-08-09T07:28:24Z</time>
      </trkpt>
      <trkpt lat="49.32268" lon="3.7088">
        <ele>98.19</ele>
        <time>2021-08-09T07:28:25Z</time>
      </trkpt>
      <trkpt lat="49.32266" lon="3.70882">
        <ele>98.19</ele>
        <time>2021-08-09T07:28:26Z</time>
      </trkpt>
      <trkpt lat="49.32264" lon="3.70885">
        <ele>98.19</ele>
        <time>2021-08-09T07:28:27Z</time>
      </trkpt>
      <trkpt lat="49.32262" lon="3.70889">
        <ele>98.19</ele>
        <time>2021-08-09T07:28:28Z</time>
      </trkpt>
      <trkpt lat="49.32259" lon="3.70894">
        <ele>98.19</ele>
        <time>2021-08-09T07:28:29Z</time>
      </trkpt>
      <trkpt lat="49.32257" lon="3.70899">
        <ele>96.75</ele>
        <time>2021-08-09T07:28:30Z</time>
      </trkpt>
      <trkpt lat="49.32255" lon="3.70905">
        <ele>96.75</ele>
        <time>2021-08-09T07:28:31Z</time>
      </trkpt>
      <trkpt lat="49.32247" lon="3.70928">
        <ele>94.83</ele>
        <time>2021-08-09T07:28:34Z</time>
      </trkpt>
      <trkpt lat="49.32245" lon="3.70938">
        <ele>93.87</ele>
        <time>2021-08-09T07:28:35Z</time>
      </trkpt>
      <trkpt lat="49.32236" lon="3.70982">
        <ele>90.02</ele>
        <time>2021-08-09T07:28:39Z</time>
      </trkpt>
      <trkpt lat="49.32231" lon="3.71007">
        <ele>89.54</ele>
        <time>2021-08-09T07:28:41Z</time>
      </trkpt>
      <trkpt lat="49.3222" lon="3.71051">
        <ele>89.06</ele>
        <time>2021-08-09T07:28:45Z</time>
      </trkpt>
      <trkpt lat="49.32202" lon="3.71112">
        <ele>87.62</ele>
        <time>2021-08-09T07:28:51Z</time>
      </trkpt>
      <trkpt lat="49.322" lon="3.71123">
        <ele>87.62</ele>
        <time>2021-08-09T07:28:52Z</time>
      </trkpt>
      <trkpt lat="49.32196" lon="3.71145">
        <ele>87.14</ele>
        <time>2021-08-09T07:28:54Z</time>
      </trkpt>
      <trkpt lat="49.32193" lon="3.71155">
        <ele>87.14</ele>
        <time>2021-08-09T07:28:55Z</time>
      </trkpt>
      <trkpt lat="49.32189" lon="3.71163">
        <ele>87.14</ele>
        <time>2021-08-09T07:28:56Z</time>
      </trkpt>
      <trkpt lat="49.32186" lon="3.71171">
        <ele>87.14</ele>
        <time>2021-08-09T07:28:57Z</time>
      </trkpt>
      <trkpt lat="49.32182" lon="3.71176">
        <ele>87.14</ele>
        <time>2021-08-09T07:28:58Z</time>
      </trkpt>
      <trkpt lat="49.32171" lon="3.71192">
        <ele>89.06</ele>
        <time>2021-08-09T07:29:03Z</time>
      </trkpt>
      <trkpt lat="49.32154" lon="3.71221">
        <ele>90.02</ele>
        <time>2021-08-09T07:29:13Z</time>
      </trkpt>
      <trkpt lat="49.32136" lon="3.71254">
        <ele>91.46</ele>
        <time>2021-08-09T07:29:24Z</time>
      </trkpt>
      <trkpt lat="49.32135" lon="3.71254">
        <ele>91.46</ele>
        <time>2021-08-09T07:29:25Z</time>
      </trkpt>
      <trkpt lat="49.32133" lon="3.71253">
        <ele>91.46</ele>
        <time>2021-08-09T07:29:26Z</time>
      </trkpt>
      <trkpt lat="49.32131" lon="3.71252">
        <ele>91.46</ele>
        <time>2021-08-09T07:29:27Z</time>
      </trkpt>
      <trkpt lat="49.32129" lon="3.7125">
        <ele>91.46</ele>
        <time>2021-08-09T07:29:28Z</time>
      </trkpt>
      <trkpt lat="49.32126" lon="3.71248">
        <ele>91.46</ele>
        <time>2021-08-09T07:29:29Z</time>
      </trkpt>
      <trkpt lat="49.32123" lon="3.71246">
        <ele>91.46</ele>
        <time>2021-08-09T07:29:30Z</time>
      </trkpt>
      <trkpt lat="49.32116" lon="3.71241">
        <ele>90.02</ele>
        <time>2021-08-09T07:29:32Z</time>
      </trkpt>
      <trkpt lat="49.32097" lon="3.71232">
        <ele>88.58</ele>
        <time>2021-08-09T07:29:36Z</time>
      </trkpt>
      <trkpt lat="49.32087" lon="3.71228">
        <ele>88.1</ele>
        <time>2021-08-09T07:29:38Z</time>
      </trkpt>
      <trkpt lat="49.32081" lon="3.71227">
        <ele>87.62</ele>
        <time>2021-08-09T07:29:39Z</time>
      </trkpt>
      <trkpt lat="49.32076" lon="3.71228">
        <ele>87.62</ele>
        <time>2021-08-09T07:29:40Z</time>
      </trkpt>
      <trkpt lat="49.32071" lon="3.71231">
        <ele>86.66</ele>
        <time>2021-08-09T07:29:41Z</time>
      </trkpt>
      <trkpt lat="49.32066" lon="3.71235">
        <ele>86.66</ele>
        <time>2021-08-09T07:29:42Z</time>
      </trkpt>
      <trkpt lat="49.32039" lon="3.71253">
        <ele>84.73</ele>
        <time>2021-08-09T07:29:47Z</time>
      </trkpt>
      <trkpt lat="49.32016" lon="3.7126">
        <ele>83.77</ele>
        <time>2021-08-09T07:29:51Z</time>
      </trkpt>
      <trkpt lat="49.32003" lon="3.71264">
        <ele>83.29</ele>
        <time>2021-08-09T07:29:53Z</time>
      </trkpt>
      <trkpt lat="49.31969" lon="3.71269">
        <ele>80.89</ele>
        <time>2021-08-09T07:29:58Z</time>
      </trkpt>
      <trkpt lat="49.31962" lon="3.71267">
        <ele>80.89</ele>
        <time>2021-08-09T07:29:59Z</time>
      </trkpt>
      <trkpt lat="49.31914" lon="3.71249">
        <ele>79.93</ele>
        <time>2021-08-09T07:30:07Z</time>
      </trkpt>
      <trkpt lat="49.3191" lon="3.71247">
        <ele>79.93</ele>
        <time>2021-08-09T07:30:08Z</time>
      </trkpt>
      <trkpt lat="49.31877" lon="3.71229">
        <ele>80.41</ele>
        <time>2021-08-09T07:30:16Z</time>
      </trkpt>
      <trkpt lat="49.31836" lon="3.71206">
        <ele>79.45</ele>
        <time>2021-08-09T07:30:26Z</time>
      </trkpt>
      <trkpt lat="49.3181" lon="3.71189">
        <ele>79.93</ele>
        <time>2021-08-09T07:30:34Z</time>
      </trkpt>
      <trkpt lat="49.31781" lon="3.71171">
        <ele>78.97</ele>
        <time>2021-08-09T07:30:42Z</time>
      </trkpt>
      <trkpt lat="49.31752" lon="3.71154">
        <ele>78.48</ele>
        <time>2021-08-09T07:30:50Z</time>
      </trkpt>
      <trkpt lat="49.31715" lon="3.71134">
        <ele>78.48</ele>
        <time>2021-08-09T07:31:01Z</time>
      </trkpt>
      <trkpt lat="49.31686" lon="3.71125">
        <ele>78.48</ele>
        <time>2021-08-09T07:31:10Z</time>
      </trkpt>
      <trkpt lat="49.31653" lon="3.71118">
        <ele>78</ele>
        <time>2021-08-09T07:31:19Z</time>
      </trkpt>
      <trkpt lat="49.31625" lon="3.71106">
        <ele>77.52</ele>
        <time>2021-08-09T07:31:27Z</time>
      </trkpt>
      <trkpt lat="49.31592" lon="3.71092">
        <ele>75.6</ele>
        <time>2021-08-09T07:31:35Z</time>
      </trkpt>
      <trkpt lat="49.31581" lon="3.71089">
        <ele>75.12</ele>
        <time>2021-08-09T07:31:37Z</time>
      </trkpt>
      <trkpt lat="49.31576" lon="3.71088">
        <ele>75.12</ele>
        <time>2021-08-09T07:31:38Z</time>
      </trkpt>
      <trkpt lat="49.31552" lon="3.71084">
        <ele>73.2</ele>
        <time>2021-08-09T07:31:44Z</time>
      </trkpt>
      <trkpt lat="49.31529" lon="3.71088">
        <ele>71.27</ele>
        <time>2021-08-09T07:31:50Z</time>
      </trkpt>
      <trkpt lat="49.31525" lon="3.71089">
        <ele>71.27</ele>
        <time>2021-08-09T07:31:51Z</time>
      </trkpt>
      <trkpt lat="49.31521" lon="3.7109">
        <ele>71.27</ele>
        <time>2021-08-09T07:31:52Z</time>
      </trkpt>
      <trkpt lat="49.31517" lon="3.7109">
        <ele>70.79</ele>
        <time>2021-08-09T07:31:53Z</time>
      </trkpt>
      <trkpt lat="49.31513" lon="3.7109">
        <ele>70.79</ele>
        <time>2021-08-09T07:31:54Z</time>
      </trkpt>
      <trkpt lat="49.31508" lon="3.71089">
        <ele>70.31</ele>
        <time>2021-08-09T07:31:55Z</time>
      </trkpt>
      <trkpt lat="49.31503" lon="3.71088">
        <ele>70.31</ele>
        <time>2021-08-09T07:31:56Z</time>
      </trkpt>
      <trkpt lat="49.31497" lon="3.71088">
        <ele>70.31</ele>
        <time>2021-08-09T07:31:57Z</time>
      </trkpt>
      <trkpt lat="49.31492" lon="3.71087">
        <ele>69.83</ele>
        <time>2021-08-09T07:31:58Z</time>
      </trkpt>
      <trkpt lat="49.31451" lon="3.71081">
        <ele>68.87</ele>
        <time>2021-08-09T07:32:06Z</time>
      </trkpt>
      <trkpt lat="49.31409" lon="3.71074">
        <ele>67.91</ele>
        <time>2021-08-09T07:32:14Z</time>
      </trkpt>
      <trkpt lat="49.31362" lon="3.71067">
        <ele>66.95</ele>
        <time>2021-08-09T07:32:24Z</time>
      </trkpt>
      <trkpt lat="49.3134" lon="3.71063">
        <ele>66.47</ele>
        <time>2021-08-09T07:32:29Z</time>
      </trkpt>
      <trkpt lat="49.31336" lon="3.71063">
        <ele>66.47</ele>
        <time>2021-08-09T07:32:30Z</time>
      </trkpt>
      <trkpt lat="49.31332" lon="3.71062">
        <ele>66.47</ele>
        <time>2021-08-09T07:32:31Z</time>
      </trkpt>
      <trkpt lat="49.31328" lon="3.71061">
        <ele>66.47</ele>
        <time>2021-08-09T07:32:32Z</time>
      </trkpt>
      <trkpt lat="49.31324" lon="3.71059">
        <ele>66.47</ele>
        <time>2021-08-09T07:32:33Z</time>
      </trkpt>
      <trkpt lat="49.31322" lon="3.71055">
        <ele>66.47</ele>
        <time>2021-08-09T07:32:34Z</time>
      </trkpt>
      <trkpt lat="49.31319" lon="3.71051">
        <ele>66.47</ele>
        <time>2021-08-09T07:32:35Z</time>
      </trkpt>
      <trkpt lat="49.31318" lon="3.71045">
        <ele>66.47</ele>
        <time>2021-08-09T07:32:36Z</time>
      </trkpt>
      <trkpt lat="49.31319" lon="3.7104">
        <ele>66.47</ele>
        <time>2021-08-09T07:32:37Z</time>
      </trkpt>
      <trkpt lat="49.3132" lon="3.71034">
        <ele>66.47</ele>
        <time>2021-08-09T07:32:38Z</time>
      </trkpt>
      <trkpt lat="49.31322" lon="3.71">
        <ele>67.43</ele>
        <time>2021-08-09T07:32:44Z</time>
      </trkpt>
      <trkpt lat="49.31324" lon="3.70941">
        <ele>68.39</ele>
        <time>2021-08-09T07:32:54Z</time>
      </trkpt>
      <trkpt lat="49.31328" lon="3.70854">
        <ele>68.39</ele>
        <time>2021-08-09T07:33:08Z</time>
      </trkpt>
      <trkpt lat="49.3133" lon="3.70806">
        <ele>68.87</ele>
        <time>2021-08-09T07:33:16Z</time>
      </trkpt>
      <trkpt lat="49.31333" lon="3.70744">
        <ele>68.87</ele>
        <time>2021-08-09T07:33:26Z</time>
      </trkpt>
      <trkpt lat="49.31336" lon="3.70678">
        <ele>69.35</ele>
        <time>2021-08-09T07:33:37Z</time>
      </trkpt>
      <trkpt lat="49.31339" lon="3.70637">
        <ele>70.31</ele>
        <time>2021-08-09T07:33:44Z</time>
      </trkpt>
      <trkpt lat="49.31346" lon="3.70582">
        <ele>71.27</ele>
        <time>2021-08-09T07:33:54Z</time>
      </trkpt>
      <trkpt lat="49.3135" lon="3.70564">
        <ele>71.27</ele>
        <time>2021-08-09T07:33:58Z</time>
      </trkpt>
      <trkpt lat="49.3135" lon="3.70559">
        <ele>71.76</ele>
        <time>2021-08-09T07:33:59Z</time>
      </trkpt>
      <trkpt lat="49.31352" lon="3.70506">
        <ele>70.31</ele>
        <time>2021-08-09T07:34:07Z</time>
      </trkpt>
      <trkpt lat="49.31352" lon="3.70437">
        <ele>69.83</ele>
        <time>2021-08-09T07:34:17Z</time>
      </trkpt>
      <trkpt lat="49.31354" lon="3.70364">
        <ele>69.83</ele>
        <time>2021-08-09T07:34:27Z</time>
      </trkpt>
      <trkpt lat="49.31355" lon="3.7032">
        <ele>69.83</ele>
        <time>2021-08-09T07:34:33Z</time>
      </trkpt>
      <trkpt lat="49.31355" lon="3.70312">
        <ele>69.83</ele>
        <time>2021-08-09T07:34:34Z</time>
      </trkpt>
      <trkpt lat="49.31355" lon="3.70306">
        <ele>69.83</ele>
        <time>2021-08-09T07:34:35Z</time>
      </trkpt>
      <trkpt lat="49.31355" lon="3.70284">
        <ele>69.83</ele>
        <time>2021-08-09T07:34:38Z</time>
      </trkpt>
      <trkpt lat="49.31358" lon="3.70237">
        <ele>69.83</ele>
        <time>2021-08-09T07:34:45Z</time>
      </trkpt>
      <trkpt lat="49.31358" lon="3.70215">
        <ele>69.83</ele>
        <time>2021-08-09T07:34:48Z</time>
      </trkpt>
      <trkpt lat="49.31358" lon="3.70207">
        <ele>69.35</ele>
        <time>2021-08-09T07:34:49Z</time>
      </trkpt>
      <trkpt lat="49.3136" lon="3.70171">
        <ele>69.35</ele>
        <time>2021-08-09T07:34:54Z</time>
      </trkpt>
      <trkpt lat="49.3136" lon="3.70163">
        <ele>69.35</ele>
        <time>2021-08-09T07:34:55Z</time>
      </trkpt>
      <trkpt lat="49.31361" lon="3.70156">
        <ele>69.35</ele>
        <time>2021-08-09T07:34:56Z</time>
      </trkpt>
      <trkpt lat="49.31361" lon="3.70149">
        <ele>69.35</ele>
        <time>2021-08-09T07:34:57Z</time>
      </trkpt>
      <trkpt lat="49.31363" lon="3.70142">
        <ele>69.35</ele>
        <time>2021-08-09T07:34:58Z</time>
      </trkpt>
      <trkpt lat="49.31363" lon="3.70135">
        <ele>69.35</ele>
        <time>2021-08-09T07:34:59Z</time>
      </trkpt>
      <trkpt lat="49.31363" lon="3.70128">
        <ele>69.35</ele>
        <time>2021-08-09T07:35:00Z</time>
      </trkpt>
      <trkpt lat="49.31363" lon="3.7012">
        <ele>68.87</ele>
        <time>2021-08-09T07:35:01Z</time>
      </trkpt>
      <trkpt lat="49.31365" lon="3.70049">
        <ele>68.87</ele>
        <time>2021-08-09T07:35:10Z</time>
      </trkpt>
      <trkpt lat="49.31368" lon="3.69964">
        <ele>67.91</ele>
        <time>2021-08-09T07:35:20Z</time>
      </trkpt>
      <trkpt lat="49.3137" lon="3.6994">
        <ele>67.91</ele>
        <time>2021-08-09T07:35:23Z</time>
      </trkpt>
      <trkpt lat="49.31374" lon="3.69874">
        <ele>66.95</ele>
        <time>2021-08-09T07:35:31Z</time>
      </trkpt>
      <trkpt lat="49.31375" lon="3.69859">
        <ele>66.95</ele>
        <time>2021-08-09T07:35:33Z</time>
      </trkpt>
      <trkpt lat="49.31375" lon="3.69851">
        <ele>66.95</ele>
        <time>2021-08-09T07:35:34Z</time>
      </trkpt>
      <trkpt lat="49.31374" lon="3.69844">
        <ele>66.95</ele>
        <time>2021-08-09T07:35:35Z</time>
      </trkpt>
      <trkpt lat="49.31375" lon="3.69836">
        <ele>66.95</ele>
        <time>2021-08-09T07:35:36Z</time>
      </trkpt>
      <trkpt lat="49.31375" lon="3.6983">
        <ele>66.95</ele>
        <time>2021-08-09T07:35:37Z</time>
      </trkpt>
      <trkpt lat="49.31378" lon="3.69759">
        <ele>67.43</ele>
        <time>2021-08-09T07:35:47Z</time>
      </trkpt>
      <trkpt lat="49.31382" lon="3.6969">
        <ele>67.43</ele>
        <time>2021-08-09T07:35:56Z</time>
      </trkpt>
      <trkpt lat="49.31385" lon="3.69629">
        <ele>67.43</ele>
        <time>2021-08-09T07:36:04Z</time>
      </trkpt>
      <trkpt lat="49.31389" lon="3.69566">
        <ele>66.47</ele>
        <time>2021-08-09T07:36:12Z</time>
      </trkpt>
      <trkpt lat="49.31394" lon="3.69469">
        <ele>65.99</ele>
        <time>2021-08-09T07:36:23Z</time>
      </trkpt>
      <trkpt lat="49.31396" lon="3.69406">
        <ele>65.99</ele>
        <time>2021-08-09T07:36:30Z</time>
      </trkpt>
      <trkpt lat="49.31399" lon="3.69311">
        <ele>65.51</ele>
        <time>2021-08-09T07:36:41Z</time>
      </trkpt>
      <trkpt lat="49.31404" lon="3.69215">
        <ele>65.51</ele>
        <time>2021-08-09T07:36:52Z</time>
      </trkpt>
      <trkpt lat="49.31409" lon="3.69118">
        <ele>65.03</ele>
        <time>2021-08-09T07:37:03Z</time>
      </trkpt>
      <trkpt lat="49.31413" lon="3.69048">
        <ele>65.03</ele>
        <time>2021-08-09T07:37:11Z</time>
      </trkpt>
      <trkpt lat="49.31418" lon="3.6896">
        <ele>63.58</ele>
        <time>2021-08-09T07:37:21Z</time>
      </trkpt>
      <trkpt lat="49.3142" lon="3.68889">
        <ele>63.58</ele>
        <time>2021-08-09T07:37:29Z</time>
      </trkpt>
      <trkpt lat="49.31422" lon="3.68812">
        <ele>63.58</ele>
        <time>2021-08-09T07:37:38Z</time>
      </trkpt>
      <trkpt lat="49.31425" lon="3.68749">
        <ele>63.58</ele>
        <time>2021-08-09T07:37:46Z</time>
      </trkpt>
      <trkpt lat="49.31428" lon="3.68686">
        <ele>63.58</ele>
        <time>2021-08-09T07:37:54Z</time>
      </trkpt>
      <trkpt lat="49.31432" lon="3.68625">
        <ele>63.58</ele>
        <time>2021-08-09T07:38:02Z</time>
      </trkpt>
      <trkpt lat="49.31433" lon="3.68596">
        <ele>63.58</ele>
        <time>2021-08-09T07:38:06Z</time>
      </trkpt>
      <trkpt lat="49.31433" lon="3.68589">
        <ele>63.58</ele>
        <time>2021-08-09T07:38:07Z</time>
      </trkpt>
      <trkpt lat="49.31434" lon="3.6853">
        <ele>64.55</ele>
        <time>2021-08-09T07:38:15Z</time>
      </trkpt>
      <trkpt lat="49.31432" lon="3.68445">
        <ele>64.55</ele>
        <time>2021-08-09T07:38:26Z</time>
      </trkpt>
      <trkpt lat="49.31427" lon="3.68396">
        <ele>65.03</ele>
        <time>2021-08-09T07:38:33Z</time>
      </trkpt>
      <trkpt lat="49.31426" lon="3.68382">
        <ele>65.51</ele>
        <time>2021-08-09T07:38:35Z</time>
      </trkpt>
      <trkpt lat="49.31426" lon="3.68375">
        <ele>65.51</ele>
        <time>2021-08-09T07:38:36Z</time>
      </trkpt>
      <trkpt lat="49.3143" lon="3.68323">
        <ele>66.95</ele>
        <time>2021-08-09T07:38:45Z</time>
      </trkpt>
      <trkpt lat="49.31433" lon="3.68287">
        <ele>67.91</ele>
        <time>2021-08-09T07:38:53Z</time>
      </trkpt>
      <trkpt lat="49.31438" lon="3.68248">
        <ele>69.83</ele>
        <time>2021-08-09T07:39:03Z</time>
      </trkpt>
      <trkpt lat="49.3144" lon="3.68222">
        <ele>71.27</ele>
        <time>2021-08-09T07:39:11Z</time>
      </trkpt>
      <trkpt lat="49.3144" lon="3.68218">
        <ele>71.27</ele>
        <time>2021-08-09T07:39:12Z</time>
      </trkpt>
      <trkpt lat="49.3144" lon="3.68215">
        <ele>71.27</ele>
        <time>2021-08-09T07:39:13Z</time>
      </trkpt>
      <trkpt lat="49.31439" lon="3.6821">
        <ele>71.27</ele>
        <time>2021-08-09T07:39:14Z</time>
      </trkpt>
      <trkpt lat="49.31438" lon="3.68204">
        <ele>71.27</ele>
        <time>2021-08-09T07:39:15Z</time>
      </trkpt>
      <trkpt lat="49.31436" lon="3.68199">
        <ele>71.27</ele>
        <time>2021-08-09T07:39:16Z</time>
      </trkpt>
      <trkpt lat="49.31434" lon="3.68196">
        <ele>71.27</ele>
        <time>2021-08-09T07:39:17Z</time>
      </trkpt>
      <trkpt lat="49.3143" lon="3.68185">
        <ele>70.31</ele>
        <time>2021-08-09T07:39:19Z</time>
      </trkpt>
      <trkpt lat="49.31406" lon="3.6814">
        <ele>67.91</ele>
        <time>2021-08-09T07:39:26Z</time>
      </trkpt>
      <trkpt lat="49.31398" lon="3.68125">
        <ele>66.95</ele>
        <time>2021-08-09T07:39:28Z</time>
      </trkpt>
      <trkpt lat="49.31369" lon="3.68064">
        <ele>64.07</ele>
        <time>2021-08-09T07:39:35Z</time>
      </trkpt>
      <trkpt lat="49.31355" lon="3.68036">
        <ele>62.62</ele>
        <time>2021-08-09T07:39:38Z</time>
      </trkpt>
      <trkpt lat="49.3133" lon="3.67987">
        <ele>61.18</ele>
        <time>2021-08-09T07:39:45Z</time>
      </trkpt>
      <trkpt lat="49.31325" lon="3.6797">
        <ele>61.18</ele>
        <time>2021-08-09T07:39:48Z</time>
      </trkpt>
      <trkpt lat="49.31326" lon="3.67966">
        <ele>61.18</ele>
        <time>2021-08-09T07:39:49Z</time>
      </trkpt>
      <trkpt lat="49.31328" lon="3.67947">
        <ele>61.18</ele>
        <time>2021-08-09T07:39:55Z</time>
      </trkpt>
      <trkpt lat="49.31329" lon="3.67946">
        <ele>61.18</ele>
        <time>2021-08-09T07:40:02Z</time>
      </trkpt>
      <trkpt lat="49.3133" lon="3.67944">
        <ele>61.18</ele>
        <time>2021-08-09T07:40:11Z</time>
      </trkpt>
      <trkpt lat="49.3133" lon="3.67945">
        <ele>61.18</ele>
        <time>2021-08-09T07:40:23Z</time>
      </trkpt>
      <trkpt lat="49.31331" lon="3.67951">
        <ele>61.66</ele>
        <time>2021-08-09T07:40:39Z</time>
      </trkpt>
      <trkpt lat="49.31331" lon="3.67953">
        <ele>61.66</ele>
        <time>2021-08-09T07:40:46Z</time>
      </trkpt>
      <trkpt lat="49.31331" lon="3.67954">
        <ele>61.66</ele>
        <time>2021-08-09T07:40:55Z</time>
      </trkpt>
      <trkpt lat="49.31332" lon="3.67954">
        <ele>61.66</ele>
        <time>2021-08-09T07:41:06Z</time>
      </trkpt>
      <trkpt lat="49.31332" lon="3.67953">
        <ele>61.66</ele>
        <time>2021-08-09T07:41:16Z</time>
      </trkpt>
      <trkpt lat="49.31331" lon="3.67953">
        <ele>61.66</ele>
        <time>2021-08-09T07:41:21Z</time>
      </trkpt>
      <trkpt lat="49.31332" lon="3.67947">
        <ele>61.66</ele>
        <time>2021-08-09T07:41:26Z</time>
      </trkpt>
      <trkpt lat="49.31333" lon="3.67948">
        <ele>61.66</ele>
        <time>2021-08-09T07:41:35Z</time>
      </trkpt>
      <trkpt lat="49.31333" lon="3.67948">
        <ele>61.66</ele>
        <time>2021-08-09T07:41:43Z</time>
      </trkpt>
      <trkpt lat="49.31333" lon="3.67947">
        <ele>61.66</ele>
        <time>2021-08-09T07:41:55Z</time>
      </trkpt>
      <trkpt lat="49.31333" lon="3.67947">
        <ele>61.66</ele>
        <time>2021-08-09T07:42:04Z</time>
      </trkpt>
      <trkpt lat="49.31333" lon="3.6795">
        <ele>61.66</ele>
        <time>2021-08-09T07:42:23Z</time>
      </trkpt>
      <trkpt lat="49.31332" lon="3.67952">
        <ele>61.66</ele>
        <time>2021-08-09T07:42:35Z</time>
      </trkpt>
      <trkpt lat="49.31332" lon="3.67952">
        <ele>61.66</ele>
        <time>2021-08-09T07:42:45Z</time>
      </trkpt>
      <trkpt lat="49.31332" lon="3.67952">
        <ele>61.66</ele>
        <time>2021-08-09T07:42:54Z</time>
      </trkpt>
      <trkpt lat="49.31332" lon="3.67953">
        <ele>61.66</ele>
        <time>2021-08-09T07:43:02Z</time>
      </trkpt>
      <trkpt lat="49.31332" lon="3.67953">
        <ele>61.66</ele>
        <time>2021-08-09T07:43:11Z</time>
      </trkpt>
      <trkpt lat="49.31332" lon="3.67953">
        <ele>61.66</ele>
        <time>2021-08-09T07:43:20Z</time>
      </trkpt>
      <trkpt lat="49.31332" lon="3.67952">
        <ele>61.66</ele>
        <time>2021-08-09T07:43:34Z</time>
      </trkpt>
      <trkpt lat="49.31332" lon="3.6795">
        <ele>61.66</ele>
        <time>2021-08-09T07:43:50Z</time>
      </trkpt>
      <trkpt lat="49.31332" lon="3.67951">
        <ele>62.14</ele>
        <time>2021-08-09T07:44:06Z</time>
      </trkpt>
      <trkpt lat="49.31332" lon="3.67952">
        <ele>62.14</ele>
        <time>2021-08-09T07:44:19Z</time>
      </trkpt>
      <trkpt lat="49.31332" lon="3.67951">
        <ele>62.14</ele>
        <time>2021-08-09T07:44:34Z</time>
      </trkpt>
      <trkpt lat="49.31332" lon="3.67951">
        <ele>62.14</ele>
        <time>2021-08-09T07:44:46Z</time>
      </trkpt>
      <trkpt lat="49.31332" lon="3.67953">
        <ele>62.14</ele>
        <time>2021-08-09T07:44:55Z</time>
      </trkpt>
      <trkpt lat="49.31332" lon="3.67953">
        <ele>62.14</ele>
        <time>2021-08-09T07:45:09Z</time>
      </trkpt>
      <trkpt lat="49.31331" lon="3.67954">
        <ele>62.14</ele>
        <time>2021-08-09T07:45:22Z</time>
      </trkpt>
      <trkpt lat="49.31332" lon="3.67953">
        <ele>62.62</ele>
        <time>2021-08-09T07:45:34Z</time>
      </trkpt>
      <trkpt lat="49.31332" lon="3.67952">
        <ele>62.62</ele>
        <time>2021-08-09T07:45:42Z</time>
      </trkpt>
      <trkpt lat="49.31331" lon="3.67952">
        <ele>62.62</ele>
        <time>2021-08-09T07:45:52Z</time>
      </trkpt>
      <trkpt lat="49.31331" lon="3.67955">
        <ele>62.62</ele>
        <time>2021-08-09T07:46:06Z</time>
      </trkpt>
      <trkpt lat="49.31332" lon="3.67955">
        <ele>62.62</ele>
        <time>2021-08-09T07:46:16Z</time>
      </trkpt>
      <trkpt lat="49.31331" lon="3.67956">
        <ele>62.62</ele>
        <time>2021-08-09T07:46:22Z</time>
      </trkpt>
      <trkpt lat="49.31332" lon="3.67956">
        <ele>62.62</ele>
        <time>2021-08-09T07:46:27Z</time>
      </trkpt>
      <trkpt lat="49.31332" lon="3.6795">
        <ele>62.62</ele>
        <time>2021-08-09T07:46:39Z</time>
      </trkpt>
      <trkpt lat="49.31332" lon="3.67949">
        <ele>63.1</ele>
        <time>2021-08-09T07:46:47Z</time>
      </trkpt>
      <trkpt lat="49.31332" lon="3.67948">
        <ele>63.1</ele>
        <time>2021-08-09T07:46:58Z</time>
      </trkpt>
      <trkpt lat="49.31332" lon="3.6795">
        <ele>63.1</ele>
        <time>2021-08-09T07:47:07Z</time>
      </trkpt>
      <trkpt lat="49.31331" lon="3.6795">
        <ele>63.1</ele>
        <time>2021-08-09T07:47:21Z</time>
      </trkpt>
      <trkpt lat="49.3133" lon="3.67953">
        <ele>63.1</ele>
        <time>2021-08-09T07:47:32Z</time>
      </trkpt>
      <trkpt lat="49.3133" lon="3.67953">
        <ele>63.58</ele>
        <time>2021-08-09T07:47:42Z</time>
      </trkpt>
      <trkpt lat="49.31331" lon="3.67953">
        <ele>63.58</ele>
        <time>2021-08-09T07:47:59Z</time>
      </trkpt>
      <trkpt lat="49.31331" lon="3.67955">
        <ele>63.58</ele>
        <time>2021-08-09T07:48:08Z</time>
      </trkpt>
      <trkpt lat="49.31332" lon="3.67957">
        <ele>63.58</ele>
        <time>2021-08-09T07:48:19Z</time>
      </trkpt>
      <trkpt lat="49.31331" lon="3.67957">
        <ele>64.07</ele>
        <time>2021-08-09T07:48:28Z</time>
      </trkpt>
      <trkpt lat="49.31327" lon="3.67957">
        <ele>64.07</ele>
        <time>2021-08-09T07:48:34Z</time>
      </trkpt>
      <trkpt lat="49.31325" lon="3.67954">
        <ele>64.07</ele>
        <time>2021-08-09T07:48:41Z</time>
      </trkpt>
      <trkpt lat="49.31325" lon="3.67953">
        <ele>64.07</ele>
        <time>2021-08-09T07:48:50Z</time>
      </trkpt>
      <trkpt lat="49.31325" lon="3.67951">
        <ele>64.07</ele>
        <time>2021-08-09T07:49:03Z</time>
      </trkpt>
      <trkpt lat="49.31324" lon="3.6795">
        <ele>64.55</ele>
        <time>2021-08-09T07:49:13Z</time>
      </trkpt>
      <trkpt lat="49.31324" lon="3.67949">
        <ele>64.55</ele>
        <time>2021-08-09T07:49:14Z</time>
      </trkpt>
      <trkpt lat="49.31323" lon="3.67947">
        <ele>64.55</ele>
        <time>2021-08-09T07:49:15Z</time>
      </trkpt>
      <trkpt lat="49.31322" lon="3.67945">
        <ele>64.55</ele>
        <time>2021-08-09T07:49:16Z</time>
      </trkpt>
      <trkpt lat="49.3132" lon="3.67944">
        <ele>64.55</ele>
        <time>2021-08-09T07:49:17Z</time>
      </trkpt>
      <trkpt lat="49.31318" lon="3.67944">
        <ele>64.55</ele>
        <time>2021-08-09T07:49:18Z</time>
      </trkpt>
      <trkpt lat="49.31316" lon="3.67944">
        <ele>64.55</ele>
        <time>2021-08-09T07:49:19Z</time>
      </trkpt>
      <trkpt lat="49.31314" lon="3.67945">
        <ele>64.55</ele>
        <time>2021-08-09T07:49:20Z</time>
      </trkpt>
      <trkpt lat="49.31289" lon="3.67955">
        <ele>64.55</ele>
        <time>2021-08-09T07:49:28Z</time>
      </trkpt>
      <trkpt lat="49.31249" lon="3.67956">
        <ele>64.55</ele>
        <time>2021-08-09T07:49:39Z</time>
      </trkpt>
      <trkpt lat="49.31221" lon="3.67957">
        <ele>66.47</ele>
        <time>2021-08-09T07:49:47Z</time>
      </trkpt>
      <trkpt lat="49.312" lon="3.67957">
        <ele>67.43</ele>
        <time>2021-08-09T07:49:54Z</time>
      </trkpt>
      <trkpt lat="49.31159" lon="3.6796">
        <ele>69.83</ele>
        <time>2021-08-09T07:50:06Z</time>
      </trkpt>
      <trkpt lat="49.31122" lon="3.67962">
        <ele>70.79</ele>
        <time>2021-08-09T07:50:17Z</time>
      </trkpt>
      <trkpt lat="49.31091" lon="3.67963">
        <ele>71.27</ele>
        <time>2021-08-09T07:50:25Z</time>
      </trkpt>
      <trkpt lat="49.31067" lon="3.67964">
        <ele>69.83</ele>
        <time>2021-08-09T07:50:30Z</time>
      </trkpt>
      <trkpt lat="49.31016" lon="3.67966">
        <ele>67.91</ele>
        <time>2021-08-09T07:50:39Z</time>
      </trkpt>
      <trkpt lat="49.31" lon="3.67963">
        <ele>67.43</ele>
        <time>2021-08-09T07:50:42Z</time>
      </trkpt>
      <trkpt lat="49.30995" lon="3.67963">
        <ele>67.43</ele>
        <time>2021-08-09T07:50:43Z</time>
      </trkpt>
      <trkpt lat="49.30989" lon="3.67964">
        <ele>67.43</ele>
        <time>2021-08-09T07:50:44Z</time>
      </trkpt>
      <trkpt lat="49.30983" lon="3.67966">
        <ele>67.91</ele>
        <time>2021-08-09T07:50:45Z</time>
      </trkpt>
      <trkpt lat="49.3098" lon="3.67967">
        <ele>67.43</ele>
        <time>2021-08-09T07:50:46Z</time>
      </trkpt>
      <trkpt lat="49.3097" lon="3.67969">
        <ele>67.43</ele>
        <time>2021-08-09T07:50:48Z</time>
      </trkpt>
      <trkpt lat="49.30966" lon="3.67969">
        <ele>67.43</ele>
        <time>2021-08-09T07:50:49Z</time>
      </trkpt>
      <trkpt lat="49.30949" lon="3.67971">
        <ele>69.35</ele>
        <time>2021-08-09T07:50:53Z</time>
      </trkpt>
      <trkpt lat="49.30916" lon="3.67973">
        <ele>70.31</ele>
        <time>2021-08-09T07:51:02Z</time>
      </trkpt>
      <trkpt lat="49.30887" lon="3.67974">
        <ele>72.24</ele>
        <time>2021-08-09T07:51:11Z</time>
      </trkpt>
      <trkpt lat="49.30883" lon="3.67973">
        <ele>72.24</ele>
        <time>2021-08-09T07:51:12Z</time>
      </trkpt>
      <trkpt lat="49.30879" lon="3.67973">
        <ele>72.24</ele>
        <time>2021-08-09T07:51:13Z</time>
      </trkpt>
      <trkpt lat="49.30862" lon="3.67972">
        <ele>73.2</ele>
        <time>2021-08-09T07:51:19Z</time>
      </trkpt>
      <trkpt lat="49.30843" lon="3.67975">
        <ele>74.16</ele>
        <time>2021-08-09T07:51:26Z</time>
      </trkpt>
      <trkpt lat="49.30822" lon="3.67978">
        <ele>75.6</ele>
        <time>2021-08-09T07:51:34Z</time>
      </trkpt>
      <trkpt lat="49.30787" lon="3.67982">
        <ele>78</ele>
        <time>2021-08-09T07:51:46Z</time>
      </trkpt>
      <trkpt lat="49.30754" lon="3.67986">
        <ele>79.45</ele>
        <time>2021-08-09T07:51:57Z</time>
      </trkpt>
      <trkpt lat="49.30737" lon="3.67985">
        <ele>80.41</ele>
        <time>2021-08-09T07:52:05Z</time>
      </trkpt>
      <trkpt lat="49.30735" lon="3.67985">
        <ele>80.89</ele>
        <time>2021-08-09T07:52:11Z</time>
      </trkpt>
      <trkpt lat="49.30721" lon="3.67979">
        <ele>80.89</ele>
        <time>2021-08-09T07:52:18Z</time>
      </trkpt>
      <trkpt lat="49.30696" lon="3.67988">
        <ele>80.89</ele>
        <time>2021-08-09T07:52:26Z</time>
      </trkpt>
      <trkpt lat="49.30665" lon="3.68012">
        <ele>81.37</ele>
        <time>2021-08-09T07:52:35Z</time>
      </trkpt>
      <trkpt lat="49.30625" lon="3.68041">
        <ele>81.37</ele>
        <time>2021-08-09T07:52:44Z</time>
      </trkpt>
      <trkpt lat="49.30606" lon="3.68056">
        <ele>80.41</ele>
        <time>2021-08-09T07:52:48Z</time>
      </trkpt>
      <trkpt lat="49.30562" lon="3.68089">
        <ele>79.45</ele>
        <time>2021-08-09T07:52:57Z</time>
      </trkpt>
      <trkpt lat="49.30557" lon="3.68093">
        <ele>79.45</ele>
        <time>2021-08-09T07:52:58Z</time>
      </trkpt>
      <trkpt lat="49.30552" lon="3.68097">
        <ele>79.45</ele>
        <time>2021-08-09T07:52:59Z</time>
      </trkpt>
      <trkpt lat="49.30514" lon="3.6813">
        <ele>78.48</ele>
        <time>2021-08-09T07:53:07Z</time>
      </trkpt>
      <trkpt lat="49.30477" lon="3.68156">
        <ele>77.52</ele>
        <time>2021-08-09T07:53:14Z</time>
      </trkpt>
      <trkpt lat="49.3044" lon="3.68167">
        <ele>78</ele>
        <time>2021-08-09T07:53:22Z</time>
      </trkpt>
      <trkpt lat="49.30425" lon="3.68165">
        <ele>79.45</ele>
        <time>2021-08-09T07:53:26Z</time>
      </trkpt>
      <trkpt lat="49.30423" lon="3.68161">
        <ele>79.45</ele>
        <time>2021-08-09T07:53:27Z</time>
      </trkpt>
      <trkpt lat="49.30423" lon="3.68156">
        <ele>79.45</ele>
        <time>2021-08-09T07:53:28Z</time>
      </trkpt>
      <trkpt lat="49.30422" lon="3.68153">
        <ele>79.45</ele>
        <time>2021-08-09T07:53:29Z</time>
      </trkpt>
      <trkpt lat="49.30422" lon="3.68147">
        <ele>79.45</ele>
        <time>2021-08-09T07:53:30Z</time>
      </trkpt>
      <trkpt lat="49.30421" lon="3.68143">
        <ele>79.45</ele>
        <time>2021-08-09T07:53:31Z</time>
      </trkpt>
      <trkpt lat="49.30416" lon="3.68104">
        <ele>78</ele>
        <time>2021-08-09T07:53:37Z</time>
      </trkpt>
      <trkpt lat="49.30412" lon="3.68089">
        <ele>78</ele>
        <time>2021-08-09T07:53:39Z</time>
      </trkpt>
      <trkpt lat="49.304" lon="3.68051">
        <ele>77.04</ele>
        <time>2021-08-09T07:53:45Z</time>
      </trkpt>
      <trkpt lat="49.30399" lon="3.68044">
        <ele>77.04</ele>
        <time>2021-08-09T07:53:48Z</time>
      </trkpt>
      <trkpt lat="49.30389" lon="3.68022">
        <ele>76.56</ele>
        <time>2021-08-09T07:53:54Z</time>
      </trkpt>
      <trkpt lat="49.30381" lon="3.67995">
        <ele>76.08</ele>
        <time>2021-08-09T07:53:59Z</time>
      </trkpt>
      <trkpt lat="49.30362" lon="3.67956">
        <ele>75.6</ele>
        <time>2021-08-09T07:54:07Z</time>
      </trkpt>
      <trkpt lat="49.30359" lon="3.67951">
        <ele>75.6</ele>
        <time>2021-08-09T07:54:08Z</time>
      </trkpt>
      <trkpt lat="49.30357" lon="3.67946">
        <ele>75.12</ele>
        <time>2021-08-09T07:54:09Z</time>
      </trkpt>
      <trkpt lat="49.30355" lon="3.6794">
        <ele>75.12</ele>
        <time>2021-08-09T07:54:10Z</time>
      </trkpt>
      <trkpt lat="49.30352" lon="3.67935">
        <ele>75.12</ele>
        <time>2021-08-09T07:54:11Z</time>
      </trkpt>
      <trkpt lat="49.3035" lon="3.67931">
        <ele>75.12</ele>
        <time>2021-08-09T07:54:12Z</time>
      </trkpt>
      <trkpt lat="49.30321" lon="3.67894">
        <ele>75.12</ele>
        <time>2021-08-09T07:54:21Z</time>
      </trkpt>
      <trkpt lat="49.30285" lon="3.67861">
        <ele>75.12</ele>
        <time>2021-08-09T07:54:30Z</time>
      </trkpt>
      <trkpt lat="49.30281" lon="3.67857">
        <ele>75.12</ele>
        <time>2021-08-09T07:54:31Z</time>
      </trkpt>
      <trkpt lat="49.30277" lon="3.67855">
        <ele>75.12</ele>
        <time>2021-08-09T07:54:32Z</time>
      </trkpt>
      <trkpt lat="49.3024" lon="3.67842">
        <ele>74.16</ele>
        <time>2021-08-09T07:54:40Z</time>
      </trkpt>
      <trkpt lat="49.3021" lon="3.67839">
        <ele>74.16</ele>
        <time>2021-08-09T07:54:47Z</time>
      </trkpt>
      <trkpt lat="49.3018" lon="3.67845">
        <ele>73.68</ele>
        <time>2021-08-09T07:54:55Z</time>
      </trkpt>
      <trkpt lat="49.30144" lon="3.67855">
        <ele>73.68</ele>
        <time>2021-08-09T07:55:03Z</time>
      </trkpt>
      <trkpt lat="49.30135" lon="3.67858">
        <ele>73.2</ele>
        <time>2021-08-09T07:55:05Z</time>
      </trkpt>
      <trkpt lat="49.3011" lon="3.67868">
        <ele>73.2</ele>
        <time>2021-08-09T07:55:11Z</time>
      </trkpt>
      <trkpt lat="49.30092" lon="3.67873">
        <ele>73.2</ele>
        <time>2021-08-09T07:55:15Z</time>
      </trkpt>
      <trkpt lat="49.30088" lon="3.67874">
        <ele>73.2</ele>
        <time>2021-08-09T07:55:16Z</time>
      </trkpt>
      <trkpt lat="49.30047" lon="3.67887">
        <ele>74.16</ele>
        <time>2021-08-09T07:55:26Z</time>
      </trkpt>
      <trkpt lat="49.30023" lon="3.67901">
        <ele>74.16</ele>
        <time>2021-08-09T07:55:32Z</time>
      </trkpt>
      <trkpt lat="49.30019" lon="3.67902">
        <ele>74.16</ele>
        <time>2021-08-09T07:55:33Z</time>
      </trkpt>
      <trkpt lat="49.30015" lon="3.67904">
        <ele>74.16</ele>
        <time>2021-08-09T07:55:34Z</time>
      </trkpt>
      <trkpt lat="49.30011" lon="3.67906">
        <ele>74.16</ele>
        <time>2021-08-09T07:55:35Z</time>
      </trkpt>
      <trkpt lat="49.30007" lon="3.67909">
        <ele>74.16</ele>
        <time>2021-08-09T07:55:36Z</time>
      </trkpt>
      <trkpt lat="49.29972" lon="3.67934">
        <ele>74.16</ele>
        <time>2021-08-09T07:55:45Z</time>
      </trkpt>
      <trkpt lat="49.29944" lon="3.67955">
        <ele>74.16</ele>
        <time>2021-08-09T07:55:53Z</time>
      </trkpt>
      <trkpt lat="49.29922" lon="3.67971">
        <ele>72.72</ele>
        <time>2021-08-09T07:55:59Z</time>
      </trkpt>
      <trkpt lat="49.29919" lon="3.67974">
        <ele>72.72</ele>
        <time>2021-08-09T07:56:00Z</time>
      </trkpt>
      <trkpt lat="49.29893" lon="3.67994">
        <ele>72.72</ele>
        <time>2021-08-09T07:56:07Z</time>
      </trkpt>
      <trkpt lat="49.29871" lon="3.68008">
        <ele>72.72</ele>
        <time>2021-08-09T07:56:12Z</time>
      </trkpt>
      <trkpt lat="49.29865" lon="3.68011">
        <ele>72.24</ele>
        <time>2021-08-09T07:56:13Z</time>
      </trkpt>
      <trkpt lat="49.29861" lon="3.68013">
        <ele>72.24</ele>
        <time>2021-08-09T07:56:14Z</time>
      </trkpt>
      <trkpt lat="49.29855" lon="3.68013">
        <ele>72.24</ele>
        <time>2021-08-09T07:56:15Z</time>
      </trkpt>
      <trkpt lat="49.29851" lon="3.68012">
        <ele>72.24</ele>
        <time>2021-08-09T07:56:16Z</time>
      </trkpt>
      <trkpt lat="49.29846" lon="3.68012">
        <ele>71.76</ele>
        <time>2021-08-09T07:56:17Z</time>
      </trkpt>
      <trkpt lat="49.29829" lon="3.68013">
        <ele>71.27</ele>
        <time>2021-08-09T07:56:20Z</time>
      </trkpt>
      <trkpt lat="49.29824" lon="3.68013">
        <ele>71.27</ele>
        <time>2021-08-09T07:56:21Z</time>
      </trkpt>
      <trkpt lat="49.29783" lon="3.68015">
        <ele>71.27</ele>
        <time>2021-08-09T07:56:28Z</time>
      </trkpt>
      <trkpt lat="49.29735" lon="3.68015">
        <ele>70.79</ele>
        <time>2021-08-09T07:56:36Z</time>
      </trkpt>
      <trkpt lat="49.29706" lon="3.68014">
        <ele>70.31</ele>
        <time>2021-08-09T07:56:43Z</time>
      </trkpt>
      <trkpt lat="49.29692" lon="3.68015">
        <ele>70.31</ele>
        <time>2021-08-09T07:56:49Z</time>
      </trkpt>
      <trkpt lat="49.29668" lon="3.68014">
        <ele>70.31</ele>
        <time>2021-08-09T07:56:56Z</time>
      </trkpt>
      <trkpt lat="49.29645" lon="3.68012">
        <ele>69.83</ele>
        <time>2021-08-09T07:57:02Z</time>
      </trkpt>
      <trkpt lat="49.29642" lon="3.68012">
        <ele>69.83</ele>
        <time>2021-08-09T07:57:06Z</time>
      </trkpt>
      <trkpt lat="49.29639" lon="3.68014">
        <ele>69.83</ele>
        <time>2021-08-09T07:57:23Z</time>
      </trkpt>
      <trkpt lat="49.29638" lon="3.68016">
        <ele>70.31</ele>
        <time>2021-08-09T07:57:39Z</time>
      </trkpt>
      <trkpt lat="49.29638" lon="3.68016">
        <ele>70.31</ele>
        <time>2021-08-09T07:57:57Z</time>
      </trkpt>
      <trkpt lat="49.29637" lon="3.68017">
        <ele>70.31</ele>
        <time>2021-08-09T07:58:14Z</time>
      </trkpt>
      <trkpt lat="49.29637" lon="3.68018">
        <ele>70.31</ele>
        <time>2021-08-09T07:58:23Z</time>
      </trkpt>
      <trkpt lat="49.29637" lon="3.68019">
        <ele>70.31</ele>
        <time>2021-08-09T07:58:38Z</time>
      </trkpt>
      <trkpt lat="49.29636" lon="3.68019">
        <ele>70.79</ele>
        <time>2021-08-09T07:58:49Z</time>
      </trkpt>
      <trkpt lat="49.29635" lon="3.68019">
        <ele>70.79</ele>
        <time>2021-08-09T07:58:50Z</time>
      </trkpt>
      <trkpt lat="49.29621" lon="3.6802">
        <ele>70.79</ele>
        <time>2021-08-09T07:58:55Z</time>
      </trkpt>
      <trkpt lat="49.29587" lon="3.68018">
        <ele>70.79</ele>
        <time>2021-08-09T07:59:03Z</time>
      </trkpt>
      <trkpt lat="49.29579" lon="3.68017">
        <ele>70.79</ele>
        <time>2021-08-09T07:59:05Z</time>
      </trkpt>
      <trkpt lat="49.2954" lon="3.68014">
        <ele>70.79</ele>
        <time>2021-08-09T07:59:14Z</time>
      </trkpt>
      <trkpt lat="49.295" lon="3.68011">
        <ele>70.79</ele>
        <time>2021-08-09T07:59:24Z</time>
      </trkpt>
      <trkpt lat="49.2948" lon="3.6801">
        <ele>71.76</ele>
        <time>2021-08-09T07:59:30Z</time>
      </trkpt>
      <trkpt lat="49.2946" lon="3.68004">
        <ele>71.76</ele>
        <time>2021-08-09T07:59:36Z</time>
      </trkpt>
      <trkpt lat="49.29436" lon="3.67995">
        <ele>72.24</ele>
        <time>2021-08-09T07:59:43Z</time>
      </trkpt>
      <trkpt lat="49.2942" lon="3.67984">
        <ele>72.24</ele>
        <time>2021-08-09T07:59:49Z</time>
      </trkpt>
      <trkpt lat="49.29403" lon="3.67967">
        <ele>72.24</ele>
        <time>2021-08-09T07:59:55Z</time>
      </trkpt>
      <trkpt lat="49.29376" lon="3.67947">
        <ele>72.24</ele>
        <time>2021-08-09T08:00:02Z</time>
      </trkpt>
      <trkpt lat="49.29357" lon="3.67929">
        <ele>72.72</ele>
        <time>2021-08-09T08:00:08Z</time>
      </trkpt>
      <trkpt lat="49.29345" lon="3.67919">
        <ele>72.72</ele>
        <time>2021-08-09T08:00:15Z</time>
      </trkpt>
      <trkpt lat="49.29325" lon="3.67904">
        <ele>73.2</ele>
        <time>2021-08-09T08:00:21Z</time>
      </trkpt>
      <trkpt lat="49.29303" lon="3.67882">
        <ele>73.2</ele>
        <time>2021-08-09T08:00:27Z</time>
      </trkpt>
      <trkpt lat="49.29281" lon="3.67864">
        <ele>73.2</ele>
        <time>2021-08-09T08:00:32Z</time>
      </trkpt>
      <trkpt lat="49.29277" lon="3.6786">
        <ele>73.2</ele>
        <time>2021-08-09T08:00:33Z</time>
      </trkpt>
      <trkpt lat="49.29249" lon="3.67836">
        <ele>73.68</ele>
        <time>2021-08-09T08:00:40Z</time>
      </trkpt>
      <trkpt lat="49.29223" lon="3.67817">
        <ele>73.68</ele>
        <time>2021-08-09T08:00:47Z</time>
      </trkpt>
      <trkpt lat="49.2919" lon="3.67792">
        <ele>73.68</ele>
        <time>2021-08-09T08:00:55Z</time>
      </trkpt>
      <trkpt lat="49.29161" lon="3.67767">
        <ele>73.68</ele>
        <time>2021-08-09T08:01:03Z</time>
      </trkpt>
      <trkpt lat="49.29142" lon="3.67752">
        <ele>72.72</ele>
        <time>2021-08-09T08:01:09Z</time>
      </trkpt>
      <trkpt lat="49.29122" lon="3.6774">
        <ele>72.72</ele>
        <time>2021-08-09T08:01:15Z</time>
      </trkpt>
      <trkpt lat="49.29097" lon="3.67736">
        <ele>72.72</ele>
        <time>2021-08-09T08:01:21Z</time>
      </trkpt>
      <trkpt lat="49.29062" lon="3.67729">
        <ele>72.72</ele>
        <time>2021-08-09T08:01:30Z</time>
      </trkpt>
      <trkpt lat="49.29021" lon="3.67721">
        <ele>72.72</ele>
        <time>2021-08-09T08:01:40Z</time>
      </trkpt>
      <trkpt lat="49.28992" lon="3.67715">
        <ele>72.72</ele>
        <time>2021-08-09T08:01:48Z</time>
      </trkpt>
      <trkpt lat="49.28961" lon="3.67717">
        <ele>72.72</ele>
        <time>2021-08-09T08:01:57Z</time>
      </trkpt>
      <trkpt lat="49.28935" lon="3.67724">
        <ele>74.16</ele>
        <time>2021-08-09T08:02:05Z</time>
      </trkpt>
      <trkpt lat="49.28911" lon="3.67736">
        <ele>74.64</ele>
        <time>2021-08-09T08:02:13Z</time>
      </trkpt>
      <trkpt lat="49.28879" lon="3.67751">
        <ele>74.64</ele>
        <time>2021-08-09T08:02:23Z</time>
      </trkpt>
      <trkpt lat="49.28847" lon="3.67761">
        <ele>75.6</ele>
        <time>2021-08-09T08:02:33Z</time>
      </trkpt>
      <trkpt lat="49.28845" lon="3.67762">
        <ele>75.6</ele>
        <time>2021-08-09T08:02:34Z</time>
      </trkpt>
      <trkpt lat="49.28842" lon="3.67764">
        <ele>75.6</ele>
        <time>2021-08-09T08:02:35Z</time>
      </trkpt>
      <trkpt lat="49.28839" lon="3.67765">
        <ele>75.6</ele>
        <time>2021-08-09T08:02:36Z</time>
      </trkpt>
      <trkpt lat="49.28837" lon="3.67766">
        <ele>75.6</ele>
        <time>2021-08-09T08:02:37Z</time>
      </trkpt>
      <trkpt lat="49.28834" lon="3.67766">
        <ele>75.6</ele>
        <time>2021-08-09T08:02:38Z</time>
      </trkpt>
      <trkpt lat="49.28831" lon="3.67768">
        <ele>75.6</ele>
        <time>2021-08-09T08:02:39Z</time>
      </trkpt>
      <trkpt lat="49.28828" lon="3.6777">
        <ele>75.6</ele>
        <time>2021-08-09T08:02:40Z</time>
      </trkpt>
      <trkpt lat="49.28808" lon="3.67779">
        <ele>76.56</ele>
        <time>2021-08-09T08:02:47Z</time>
      </trkpt>
      <trkpt lat="49.28791" lon="3.67786">
        <ele>76.56</ele>
        <time>2021-08-09T08:02:53Z</time>
      </trkpt>
      <trkpt lat="49.28769" lon="3.67794">
        <ele>76.56</ele>
        <time>2021-08-09T08:03:00Z</time>
      </trkpt>
      <trkpt lat="49.28755" lon="3.67802">
        <ele>76.08</ele>
        <time>2021-08-09T08:03:05Z</time>
      </trkpt>
      <trkpt lat="49.28738" lon="3.67808">
        <ele>76.08</ele>
        <time>2021-08-09T08:03:10Z</time>
      </trkpt>
      <trkpt lat="49.28718" lon="3.67817">
        <ele>76.08</ele>
        <time>2021-08-09T08:03:16Z</time>
      </trkpt>
      <trkpt lat="49.28671" lon="3.67833">
        <ele>76.08</ele>
        <time>2021-08-09T08:03:27Z</time>
      </trkpt>
      <trkpt lat="49.28643" lon="3.67841">
        <ele>76.56</ele>
        <time>2021-08-09T08:03:34Z</time>
      </trkpt>
      <trkpt lat="49.28597" lon="3.67844">
        <ele>77.04</ele>
        <time>2021-08-09T08:03:45Z</time>
      </trkpt>
      <trkpt lat="49.28563" lon="3.67846">
        <ele>77.04</ele>
        <time>2021-08-09T08:03:54Z</time>
      </trkpt>
      <trkpt lat="49.28529" lon="3.67847">
        <ele>77.04</ele>
        <time>2021-08-09T08:04:03Z</time>
      </trkpt>
      <trkpt lat="49.28502" lon="3.67846">
        <ele>77.04</ele>
        <time>2021-08-09T08:04:10Z</time>
      </trkpt>
      <trkpt lat="49.28452" lon="3.67844">
        <ele>77.04</ele>
        <time>2021-08-09T08:04:22Z</time>
      </trkpt>
      <trkpt lat="49.28418" lon="3.67851">
        <ele>77.52</ele>
        <time>2021-08-09T08:04:30Z</time>
      </trkpt>
      <trkpt lat="49.28414" lon="3.67852">
        <ele>77.52</ele>
        <time>2021-08-09T08:04:31Z</time>
      </trkpt>
      <trkpt lat="49.28388" lon="3.67866">
        <ele>77.52</ele>
        <time>2021-08-09T08:04:38Z</time>
      </trkpt>
      <trkpt lat="49.28374" lon="3.67879">
        <ele>77.52</ele>
        <time>2021-08-09T08:04:42Z</time>
      </trkpt>
      <trkpt lat="49.2834" lon="3.6791">
        <ele>76.08</ele>
        <time>2021-08-09T08:04:52Z</time>
      </trkpt>
      <trkpt lat="49.28336" lon="3.67914">
        <ele>76.08</ele>
        <time>2021-08-09T08:04:53Z</time>
      </trkpt>
      <trkpt lat="49.28333" lon="3.67918">
        <ele>76.08</ele>
        <time>2021-08-09T08:04:54Z</time>
      </trkpt>
      <trkpt lat="49.28326" lon="3.67926">
        <ele>75.6</ele>
        <time>2021-08-09T08:04:56Z</time>
      </trkpt>
      <trkpt lat="49.28294" lon="3.67955">
        <ele>74.64</ele>
        <time>2021-08-09T08:05:04Z</time>
      </trkpt>
      <trkpt lat="49.28286" lon="3.67964">
        <ele>74.64</ele>
        <time>2021-08-09T08:05:06Z</time>
      </trkpt>
      <trkpt lat="49.28274" lon="3.67979">
        <ele>74.16</ele>
        <time>2021-08-09T08:05:09Z</time>
      </trkpt>
      <trkpt lat="49.28267" lon="3.67989">
        <ele>73.68</ele>
        <time>2021-08-09T08:05:11Z</time>
      </trkpt>
      <trkpt lat="49.28264" lon="3.67995">
        <ele>73.68</ele>
        <time>2021-08-09T08:05:12Z</time>
      </trkpt>
      <trkpt lat="49.28262" lon="3.68001">
        <ele>73.68</ele>
        <time>2021-08-09T08:05:13Z</time>
      </trkpt>
      <trkpt lat="49.28259" lon="3.68006">
        <ele>73.68</ele>
        <time>2021-08-09T08:05:14Z</time>
      </trkpt>
      <trkpt lat="49.28257" lon="3.6801">
        <ele>73.68</ele>
        <time>2021-08-09T08:05:15Z</time>
      </trkpt>
      <trkpt lat="49.28255" lon="3.68012">
        <ele>73.68</ele>
        <time>2021-08-09T08:05:16Z</time>
      </trkpt>
      <trkpt lat="49.28252" lon="3.68012">
        <ele>73.68</ele>
        <time>2021-08-09T08:05:17Z</time>
      </trkpt>
      <trkpt lat="49.28249" lon="3.6801">
        <ele>73.68</ele>
        <time>2021-08-09T08:05:18Z</time>
      </trkpt>
      <trkpt lat="49.28247" lon="3.68007">
        <ele>73.2</ele>
        <time>2021-08-09T08:05:19Z</time>
      </trkpt>
      <trkpt lat="49.28244" lon="3.68002">
        <ele>73.2</ele>
        <time>2021-08-09T08:05:20Z</time>
      </trkpt>
      <trkpt lat="49.28241" lon="3.67997">
        <ele>73.2</ele>
        <time>2021-08-09T08:05:21Z</time>
      </trkpt>
      <trkpt lat="49.28239" lon="3.67991">
        <ele>73.2</ele>
        <time>2021-08-09T08:05:22Z</time>
      </trkpt>
      <trkpt lat="49.28236" lon="3.67985">
        <ele>72.24</ele>
        <time>2021-08-09T08:05:23Z</time>
      </trkpt>
      <trkpt lat="49.28208" lon="3.67926">
        <ele>72.72</ele>
        <time>2021-08-09T08:05:32Z</time>
      </trkpt>
      <trkpt lat="49.28185" lon="3.67885">
        <ele>71.76</ele>
        <time>2021-08-09T08:05:38Z</time>
      </trkpt>
      <trkpt lat="49.28167" lon="3.67865">
        <ele>71.76</ele>
        <time>2021-08-09T08:05:42Z</time>
      </trkpt>
      <trkpt lat="49.28134" lon="3.67841">
        <ele>71.27</ele>
        <time>2021-08-09T08:05:49Z</time>
      </trkpt>
      <trkpt lat="49.28121" lon="3.67828">
        <ele>72.72</ele>
        <time>2021-08-09T08:05:52Z</time>
      </trkpt>
      <trkpt lat="49.28117" lon="3.67824">
        <ele>72.72</ele>
        <time>2021-08-09T08:05:53Z</time>
      </trkpt>
      <trkpt lat="49.28095" lon="3.67791">
        <ele>74.64</ele>
        <time>2021-08-09T08:06:01Z</time>
      </trkpt>
      <trkpt lat="49.28074" lon="3.67762">
        <ele>75.6</ele>
        <time>2021-08-09T08:06:10Z</time>
      </trkpt>
      <trkpt lat="49.28064" lon="3.67751">
        <ele>76.56</ele>
        <time>2021-08-09T08:06:15Z</time>
      </trkpt>
      <trkpt lat="49.28059" lon="3.6775">
        <ele>77.52</ele>
        <time>2021-08-09T08:06:17Z</time>
      </trkpt>
      <trkpt lat="49.28057" lon="3.67748">
        <ele>77.52</ele>
        <time>2021-08-09T08:06:18Z</time>
      </trkpt>
      <trkpt lat="49.28056" lon="3.67747">
        <ele>77.52</ele>
        <time>2021-08-09T08:06:19Z</time>
      </trkpt>
      <trkpt lat="49.28038" lon="3.67732">
        <ele>79.45</ele>
        <time>2021-08-09T08:06:29Z</time>
      </trkpt>
      <trkpt lat="49.28024" lon="3.67726">
        <ele>80.89</ele>
        <time>2021-08-09T08:06:37Z</time>
      </trkpt>
      <trkpt lat="49.28007" lon="3.67721">
        <ele>82.81</ele>
        <time>2021-08-09T08:06:47Z</time>
      </trkpt>
      <trkpt lat="49.28005" lon="3.67722">
        <ele>82.81</ele>
        <time>2021-08-09T08:06:48Z</time>
      </trkpt>
      <trkpt lat="49.28003" lon="3.67724">
        <ele>82.81</ele>
        <time>2021-08-09T08:06:49Z</time>
      </trkpt>
      <trkpt lat="49.28002" lon="3.67725">
        <ele>82.81</ele>
        <time>2021-08-09T08:06:50Z</time>
      </trkpt>
      <trkpt lat="49.28" lon="3.67728">
        <ele>83.29</ele>
        <time>2021-08-09T08:06:51Z</time>
      </trkpt>
      <trkpt lat="49.27999" lon="3.6773">
        <ele>83.29</ele>
        <time>2021-08-09T08:06:52Z</time>
      </trkpt>
      <trkpt lat="49.27997" lon="3.67732">
        <ele>83.29</ele>
        <time>2021-08-09T08:06:53Z</time>
      </trkpt>
      <trkpt lat="49.2798" lon="3.6776">
        <ele>83.29</ele>
        <time>2021-08-09T08:07:01Z</time>
      </trkpt>
      <trkpt lat="49.2797" lon="3.67776">
        <ele>81.85</ele>
        <time>2021-08-09T08:07:04Z</time>
      </trkpt>
      <trkpt lat="49.27947" lon="3.67811">
        <ele>78</ele>
        <time>2021-08-09T08:07:09Z</time>
      </trkpt>
      <trkpt lat="49.27942" lon="3.67819">
        <ele>78</ele>
        <time>2021-08-09T08:07:10Z</time>
      </trkpt>
      <trkpt lat="49.27924" lon="3.67847">
        <ele>75.12</ele>
        <time>2021-08-09T08:07:13Z</time>
      </trkpt>
      <trkpt lat="49.27918" lon="3.67857">
        <ele>74.64</ele>
        <time>2021-08-09T08:07:14Z</time>
      </trkpt>
      <trkpt lat="49.27884" lon="3.67917">
        <ele>72.24</ele>
        <time>2021-08-09T08:07:20Z</time>
      </trkpt>
      <trkpt lat="49.27849" lon="3.67978">
        <ele>71.27</ele>
        <time>2021-08-09T08:07:27Z</time>
      </trkpt>
      <trkpt lat="49.27835" lon="3.67999">
        <ele>72.72</ele>
        <time>2021-08-09T08:07:30Z</time>
      </trkpt>
      <trkpt lat="49.27799" lon="3.68054">
        <ele>72.72</ele>
        <time>2021-08-09T08:07:38Z</time>
      </trkpt>
      <trkpt lat="49.27763" lon="3.68114">
        <ele>73.68</ele>
        <time>2021-08-09T08:07:47Z</time>
      </trkpt>
      <trkpt lat="49.27738" lon="3.68151">
        <ele>74.64</ele>
        <time>2021-08-09T08:07:55Z</time>
      </trkpt>
      <trkpt lat="49.27725" lon="3.6818">
        <ele>75.6</ele>
        <time>2021-08-09T08:08:02Z</time>
      </trkpt>
      <trkpt lat="49.27702" lon="3.6821">
        <ele>76.56</ele>
        <time>2021-08-09T08:08:12Z</time>
      </trkpt>
      <trkpt lat="49.27685" lon="3.68221">
        <ele>77.52</ele>
        <time>2021-08-09T08:08:19Z</time>
      </trkpt>
      <trkpt lat="49.27683" lon="3.68222">
        <ele>77.52</ele>
        <time>2021-08-09T08:08:20Z</time>
      </trkpt>
      <trkpt lat="49.2768" lon="3.68223">
        <ele>77.52</ele>
        <time>2021-08-09T08:08:21Z</time>
      </trkpt>
      <trkpt lat="49.27653" lon="3.68237">
        <ele>78.97</ele>
        <time>2021-08-09T08:08:32Z</time>
      </trkpt>
      <trkpt lat="49.27626" lon="3.68258">
        <ele>79.93</ele>
        <time>2021-08-09T08:08:44Z</time>
      </trkpt>
      <trkpt lat="49.276" lon="3.68279">
        <ele>79.93</ele>
        <time>2021-08-09T08:08:55Z</time>
      </trkpt>
      <trkpt lat="49.27577" lon="3.683">
        <ele>80.89</ele>
        <time>2021-08-09T08:09:05Z</time>
      </trkpt>
      <trkpt lat="49.27551" lon="3.68324">
        <ele>81.37</ele>
        <time>2021-08-09T08:09:17Z</time>
      </trkpt>
      <trkpt lat="49.27534" lon="3.6834">
        <ele>82.81</ele>
        <time>2021-08-09T08:09:25Z</time>
      </trkpt>
      <trkpt lat="49.27514" lon="3.68354">
        <ele>83.77</ele>
        <time>2021-08-09T08:09:35Z</time>
      </trkpt>
      <trkpt lat="49.27497" lon="3.68363">
        <ele>84.73</ele>
        <time>2021-08-09T08:09:44Z</time>
      </trkpt>
      <trkpt lat="49.2748" lon="3.6837">
        <ele>85.69</ele>
        <time>2021-08-09T08:09:53Z</time>
      </trkpt>
      <trkpt lat="49.27463" lon="3.68381">
        <ele>86.66</ele>
        <time>2021-08-09T08:10:02Z</time>
      </trkpt>
      <trkpt lat="49.27445" lon="3.68399">
        <ele>87.14</ele>
        <time>2021-08-09T08:10:11Z</time>
      </trkpt>
      <trkpt lat="49.27423" lon="3.68431">
        <ele>87.14</ele>
        <time>2021-08-09T08:10:20Z</time>
      </trkpt>
      <trkpt lat="49.27402" lon="3.68466">
        <ele>87.14</ele>
        <time>2021-08-09T08:10:28Z</time>
      </trkpt>
      <trkpt lat="49.27388" lon="3.68488">
        <ele>86.66</ele>
        <time>2021-08-09T08:10:34Z</time>
      </trkpt>
      <trkpt lat="49.27375" lon="3.68515">
        <ele>87.14</ele>
        <time>2021-08-09T08:10:41Z</time>
      </trkpt>
      <trkpt lat="49.27366" lon="3.68543">
        <ele>87.14</ele>
        <time>2021-08-09T08:10:47Z</time>
      </trkpt>
      <trkpt lat="49.27346" lon="3.68587">
        <ele>87.14</ele>
        <time>2021-08-09T08:10:56Z</time>
      </trkpt>
      <trkpt lat="49.27325" lon="3.68616">
        <ele>87.14</ele>
        <time>2021-08-09T08:11:04Z</time>
      </trkpt>
      <trkpt lat="49.27299" lon="3.68648">
        <ele>87.14</ele>
        <time>2021-08-09T08:11:14Z</time>
      </trkpt>
      <trkpt lat="49.27284" lon="3.68668">
        <ele>87.62</ele>
        <time>2021-08-09T08:11:20Z</time>
      </trkpt>
      <trkpt lat="49.27273" lon="3.68689">
        <ele>88.58</ele>
        <time>2021-08-09T08:11:27Z</time>
      </trkpt>
      <trkpt lat="49.27268" lon="3.68712">
        <ele>90.02</ele>
        <time>2021-08-09T08:11:35Z</time>
      </trkpt>
      <trkpt lat="49.27267" lon="3.68734">
        <ele>90.98</ele>
        <time>2021-08-09T08:11:42Z</time>
      </trkpt>
      <trkpt lat="49.27266" lon="3.68772">
        <ele>92.9</ele>
        <time>2021-08-09T08:11:54Z</time>
      </trkpt>
      <trkpt lat="49.27256" lon="3.68803">
        <ele>94.35</ele>
        <time>2021-08-09T08:12:05Z</time>
      </trkpt>
      <trkpt lat="49.27245" lon="3.6882">
        <ele>95.31</ele>
        <time>2021-08-09T08:12:13Z</time>
      </trkpt>
      <trkpt lat="49.27229" lon="3.68834">
        <ele>97.23</ele>
        <time>2021-08-09T08:12:22Z</time>
      </trkpt>
      <trkpt lat="49.2721" lon="3.68848">
        <ele>98.67</ele>
        <time>2021-08-09T08:12:32Z</time>
      </trkpt>
      <trkpt lat="49.27194" lon="3.68855">
        <ele>99.63</ele>
        <time>2021-08-09T08:12:41Z</time>
      </trkpt>
      <trkpt lat="49.2718" lon="3.68858">
        <ele>101.56</ele>
        <time>2021-08-09T08:12:49Z</time>
      </trkpt>
      <trkpt lat="49.27165" lon="3.68855">
        <ele>102.52</ele>
        <time>2021-08-09T08:12:57Z</time>
      </trkpt>
      <trkpt lat="49.27147" lon="3.68852">
        <ele>104.44</ele>
        <time>2021-08-09T08:13:08Z</time>
      </trkpt>
      <trkpt lat="49.27134" lon="3.6885">
        <ele>105.88</ele>
        <time>2021-08-09T08:13:17Z</time>
      </trkpt>
      <trkpt lat="49.27118" lon="3.68847">
        <ele>106.84</ele>
        <time>2021-08-09T08:13:27Z</time>
      </trkpt>
      <trkpt lat="49.27097" lon="3.68845">
        <ele>108.29</ele>
        <time>2021-08-09T08:13:37Z</time>
      </trkpt>
      <trkpt lat="49.27072" lon="3.68848">
        <ele>108.77</ele>
        <time>2021-08-09T08:13:46Z</time>
      </trkpt>
      <trkpt lat="49.27052" lon="3.68857">
        <ele>108.77</ele>
        <time>2021-08-09T08:13:54Z</time>
      </trkpt>
      <trkpt lat="49.27032" lon="3.68867">
        <ele>108.77</ele>
        <time>2021-08-09T08:14:01Z</time>
      </trkpt>
      <trkpt lat="49.2701" lon="3.6888">
        <ele>108.77</ele>
        <time>2021-08-09T08:14:09Z</time>
      </trkpt>
      <trkpt lat="49.26994" lon="3.68888">
        <ele>109.25</ele>
        <time>2021-08-09T08:14:15Z</time>
      </trkpt>
      <trkpt lat="49.26973" lon="3.68898">
        <ele>109.73</ele>
        <time>2021-08-09T08:14:22Z</time>
      </trkpt>
      <trkpt lat="49.26954" lon="3.68914">
        <ele>110.69</ele>
        <time>2021-08-09T08:14:29Z</time>
      </trkpt>
      <trkpt lat="49.26935" lon="3.68935">
        <ele>110.69</ele>
        <time>2021-08-09T08:14:36Z</time>
      </trkpt>
      <trkpt lat="49.26908" lon="3.68971">
        <ele>110.69</ele>
        <time>2021-08-09T08:14:45Z</time>
      </trkpt>
      <trkpt lat="49.26891" lon="3.6899">
        <ele>109.25</ele>
        <time>2021-08-09T08:14:50Z</time>
      </trkpt>
      <trkpt lat="49.26888" lon="3.68994">
        <ele>109.25</ele>
        <time>2021-08-09T08:14:51Z</time>
      </trkpt>
      <trkpt lat="49.26885" lon="3.68998">
        <ele>109.25</ele>
        <time>2021-08-09T08:14:52Z</time>
      </trkpt>
      <trkpt lat="49.26862" lon="3.69023">
        <ele>108.29</ele>
        <time>2021-08-09T08:14:59Z</time>
      </trkpt>
      <trkpt lat="49.26851" lon="3.6904">
        <ele>106.84</ele>
        <time>2021-08-09T08:15:03Z</time>
      </trkpt>
      <trkpt lat="49.26849" lon="3.69045">
        <ele>105.88</ele>
        <time>2021-08-09T08:15:04Z</time>
      </trkpt>
      <trkpt lat="49.26847" lon="3.69051">
        <ele>105.4</ele>
        <time>2021-08-09T08:15:05Z</time>
      </trkpt>
      <trkpt lat="49.26845" lon="3.69057">
        <ele>104.92</ele>
        <time>2021-08-09T08:15:06Z</time>
      </trkpt>
      <trkpt lat="49.26843" lon="3.69063">
        <ele>104.44</ele>
        <time>2021-08-09T08:15:07Z</time>
      </trkpt>
      <trkpt lat="49.26839" lon="3.69077">
        <ele>102.52</ele>
        <time>2021-08-09T08:15:09Z</time>
      </trkpt>
      <trkpt lat="49.26835" lon="3.69083">
        <ele>102.52</ele>
        <time>2021-08-09T08:15:10Z</time>
      </trkpt>
      <trkpt lat="49.2683" lon="3.69088">
        <ele>101.56</ele>
        <time>2021-08-09T08:15:11Z</time>
      </trkpt>
      <trkpt lat="49.26826" lon="3.69092">
        <ele>100.6</ele>
        <time>2021-08-09T08:15:12Z</time>
      </trkpt>
      <trkpt lat="49.2682" lon="3.69096">
        <ele>100.11</ele>
        <time>2021-08-09T08:15:13Z</time>
      </trkpt>
      <trkpt lat="49.26808" lon="3.69101">
        <ele>99.15</ele>
        <time>2021-08-09T08:15:15Z</time>
      </trkpt>
      <trkpt lat="49.26802" lon="3.69104">
        <ele>98.19</ele>
        <time>2021-08-09T08:15:16Z</time>
      </trkpt>
      <trkpt lat="49.26798" lon="3.69108">
        <ele>98.67</ele>
        <time>2021-08-09T08:15:17Z</time>
      </trkpt>
      <trkpt lat="49.26794" lon="3.69113">
        <ele>98.19</ele>
        <time>2021-08-09T08:15:18Z</time>
      </trkpt>
      <trkpt lat="49.26791" lon="3.69119">
        <ele>97.71</ele>
        <time>2021-08-09T08:15:19Z</time>
      </trkpt>
      <trkpt lat="49.26788" lon="3.69124">
        <ele>97.23</ele>
        <time>2021-08-09T08:15:20Z</time>
      </trkpt>
      <trkpt lat="49.26787" lon="3.6913">
        <ele>97.23</ele>
        <time>2021-08-09T08:15:21Z</time>
      </trkpt>
      <trkpt lat="49.26787" lon="3.69136">
        <ele>97.23</ele>
        <time>2021-08-09T08:15:22Z</time>
      </trkpt>
      <trkpt lat="49.26788" lon="3.69142">
        <ele>97.23</ele>
        <time>2021-08-09T08:15:23Z</time>
      </trkpt>
      <trkpt lat="49.2679" lon="3.69149">
        <ele>97.23</ele>
        <time>2021-08-09T08:15:24Z</time>
      </trkpt>
      <trkpt lat="49.26793" lon="3.69157">
        <ele>96.27</ele>
        <time>2021-08-09T08:15:25Z</time>
      </trkpt>
      <trkpt lat="49.26796" lon="3.69165">
        <ele>96.27</ele>
        <time>2021-08-09T08:15:26Z</time>
      </trkpt>
      <trkpt lat="49.26799" lon="3.69174">
        <ele>95.79</ele>
        <time>2021-08-09T08:15:27Z</time>
      </trkpt>
      <trkpt lat="49.26805" lon="3.69192">
        <ele>95.79</ele>
        <time>2021-08-09T08:15:29Z</time>
      </trkpt>
      <trkpt lat="49.26819" lon="3.69239">
        <ele>92.9</ele>
        <time>2021-08-09T08:15:34Z</time>
      </trkpt>
      <trkpt lat="49.26818" lon="3.6925">
        <ele>92.9</ele>
        <time>2021-08-09T08:15:35Z</time>
      </trkpt>
      <trkpt lat="49.26816" lon="3.69258">
        <ele>92.42</ele>
        <time>2021-08-09T08:15:36Z</time>
      </trkpt>
      <trkpt lat="49.26811" lon="3.69277">
        <ele>92.42</ele>
        <time>2021-08-09T08:15:38Z</time>
      </trkpt>
      <trkpt lat="49.26811" lon="3.69286">
        <ele>91.94</ele>
        <time>2021-08-09T08:15:39Z</time>
      </trkpt>
      <trkpt lat="49.26811" lon="3.69295">
        <ele>91.46</ele>
        <time>2021-08-09T08:15:40Z</time>
      </trkpt>
      <trkpt lat="49.26812" lon="3.69313">
        <ele>90.98</ele>
        <time>2021-08-09T08:15:42Z</time>
      </trkpt>
      <trkpt lat="49.26809" lon="3.69323">
        <ele>90.02</ele>
        <time>2021-08-09T08:15:43Z</time>
      </trkpt>
      <trkpt lat="49.26788" lon="3.69389">
        <ele>87.14</ele>
        <time>2021-08-09T08:15:50Z</time>
      </trkpt>
      <trkpt lat="49.2678" lon="3.69418">
        <ele>86.66</ele>
        <time>2021-08-09T08:15:53Z</time>
      </trkpt>
      <trkpt lat="49.2678" lon="3.69429">
        <ele>85.69</ele>
        <time>2021-08-09T08:15:54Z</time>
      </trkpt>
      <trkpt lat="49.26781" lon="3.6944">
        <ele>85.69</ele>
        <time>2021-08-09T08:15:55Z</time>
      </trkpt>
      <trkpt lat="49.26797" lon="3.69536">
        <ele>84.73</ele>
        <time>2021-08-09T08:16:04Z</time>
      </trkpt>
      <trkpt lat="49.26813" lon="3.69593">
        <ele>82.81</ele>
        <time>2021-08-09T08:16:10Z</time>
      </trkpt>
      <trkpt lat="49.26817" lon="3.6961">
        <ele>82.81</ele>
        <time>2021-08-09T08:16:12Z</time>
      </trkpt>
      <trkpt lat="49.26817" lon="3.69626">
        <ele>82.33</ele>
        <time>2021-08-09T08:16:14Z</time>
      </trkpt>
      <trkpt lat="49.26814" lon="3.69632">
        <ele>82.33</ele>
        <time>2021-08-09T08:16:15Z</time>
      </trkpt>
      <trkpt lat="49.26789" lon="3.6969">
        <ele>78.97</ele>
        <time>2021-08-09T08:16:22Z</time>
      </trkpt>
      <trkpt lat="49.2676" lon="3.6978">
        <ele>76.08</ele>
        <time>2021-08-09T08:16:30Z</time>
      </trkpt>
      <trkpt lat="49.26733" lon="3.69848">
        <ele>75.6</ele>
        <time>2021-08-09T08:16:37Z</time>
      </trkpt>
      <trkpt lat="49.26699" lon="3.6991">
        <ele>76.56</ele>
        <time>2021-08-09T08:16:46Z</time>
      </trkpt>
      <trkpt lat="49.26678" lon="3.69953">
        <ele>78</ele>
        <time>2021-08-09T08:16:53Z</time>
      </trkpt>
      <trkpt lat="49.26659" lon="3.69988">
        <ele>79.45</ele>
        <time>2021-08-09T08:17:01Z</time>
      </trkpt>
      <trkpt lat="49.26644" lon="3.70018">
        <ele>80.41</ele>
        <time>2021-08-09T08:17:09Z</time>
      </trkpt>
      <trkpt lat="49.26621" lon="3.70061">
        <ele>82.33</ele>
        <time>2021-08-09T08:17:21Z</time>
      </trkpt>
      <trkpt lat="49.26603" lon="3.70095">
        <ele>84.25</ele>
        <time>2021-08-09T08:17:31Z</time>
      </trkpt>
      <trkpt lat="49.26593" lon="3.70131">
        <ele>84.73</ele>
        <time>2021-08-09T08:17:40Z</time>
      </trkpt>
      <trkpt lat="49.26586" lon="3.70176">
        <ele>85.69</ele>
        <time>2021-08-09T08:17:50Z</time>
      </trkpt>
      <trkpt lat="49.26579" lon="3.7021">
        <ele>86.66</ele>
        <time>2021-08-09T08:17:58Z</time>
      </trkpt>
      <trkpt lat="49.2657" lon="3.70255">
        <ele>88.1</ele>
        <time>2021-08-09T08:18:08Z</time>
      </trkpt>
      <trkpt lat="49.26559" lon="3.70306">
        <ele>88.58</ele>
        <time>2021-08-09T08:18:19Z</time>
      </trkpt>
      <trkpt lat="49.26554" lon="3.70336">
        <ele>89.06</ele>
        <time>2021-08-09T08:18:25Z</time>
      </trkpt>
      <trkpt lat="49.26547" lon="3.70366">
        <ele>89.06</ele>
        <time>2021-08-09T08:18:32Z</time>
      </trkpt>
      <trkpt lat="49.2654" lon="3.70398">
        <ele>89.54</ele>
        <time>2021-08-09T08:18:38Z</time>
      </trkpt>
      <trkpt lat="49.2653" lon="3.70434">
        <ele>89.54</ele>
        <time>2021-08-09T08:18:44Z</time>
      </trkpt>
      <trkpt lat="49.26519" lon="3.70463">
        <ele>89.54</ele>
        <time>2021-08-09T08:18:49Z</time>
      </trkpt>
      <trkpt lat="49.26517" lon="3.7047">
        <ele>89.54</ele>
        <time>2021-08-09T08:18:50Z</time>
      </trkpt>
      <trkpt lat="49.26515" lon="3.70475">
        <ele>89.54</ele>
        <time>2021-08-09T08:18:51Z</time>
      </trkpt>
      <trkpt lat="49.26513" lon="3.70481">
        <ele>89.54</ele>
        <time>2021-08-09T08:18:52Z</time>
      </trkpt>
      <trkpt lat="49.2651" lon="3.70487">
        <ele>88.58</ele>
        <time>2021-08-09T08:18:53Z</time>
      </trkpt>
      <trkpt lat="49.26508" lon="3.70494">
        <ele>88.58</ele>
        <time>2021-08-09T08:18:54Z</time>
      </trkpt>
      <trkpt lat="49.26486" lon="3.70541">
        <ele>87.62</ele>
        <time>2021-08-09T08:19:02Z</time>
      </trkpt>
      <trkpt lat="49.26457" lon="3.70608">
        <ele>86.18</ele>
        <time>2021-08-09T08:19:12Z</time>
      </trkpt>
      <trkpt lat="49.26426" lon="3.70679">
        <ele>83.77</ele>
        <time>2021-08-09T08:19:22Z</time>
      </trkpt>
      <trkpt lat="49.26407" lon="3.70732">
        <ele>82.81</ele>
        <time>2021-08-09T08:19:29Z</time>
      </trkpt>
      <trkpt lat="49.26404" lon="3.70748">
        <ele>82.81</ele>
        <time>2021-08-09T08:19:31Z</time>
      </trkpt>
      <trkpt lat="49.26402" lon="3.70769">
        <ele>82.33</ele>
        <time>2021-08-09T08:19:34Z</time>
      </trkpt>
      <trkpt lat="49.264" lon="3.7081">
        <ele>82.33</ele>
        <time>2021-08-09T08:19:41Z</time>
      </trkpt>
      <trkpt lat="49.26402" lon="3.70846">
        <ele>83.77</ele>
        <time>2021-08-09T08:19:49Z</time>
      </trkpt>
      <trkpt lat="49.26404" lon="3.70877">
        <ele>84.73</ele>
        <time>2021-08-09T08:19:58Z</time>
      </trkpt>
      <trkpt lat="49.26406" lon="3.7091">
        <ele>86.18</ele>
        <time>2021-08-09T08:20:08Z</time>
      </trkpt>
      <trkpt lat="49.26407" lon="3.70938">
        <ele>87.14</ele>
        <time>2021-08-09T08:20:17Z</time>
      </trkpt>
      <trkpt lat="49.26408" lon="3.70965">
        <ele>88.58</ele>
        <time>2021-08-09T08:20:26Z</time>
      </trkpt>
      <trkpt lat="49.2641" lon="3.70992">
        <ele>89.06</ele>
        <time>2021-08-09T08:20:35Z</time>
      </trkpt>
      <trkpt lat="49.26412" lon="3.71023">
        <ele>90.5</ele>
        <time>2021-08-09T08:20:45Z</time>
      </trkpt>
      <trkpt lat="49.26411" lon="3.71054">
        <ele>90.98</ele>
        <time>2021-08-09T08:20:54Z</time>
      </trkpt>
      <trkpt lat="49.26407" lon="3.7108">
        <ele>91.94</ele>
        <time>2021-08-09T08:21:02Z</time>
      </trkpt>
      <trkpt lat="49.26402" lon="3.71104">
        <ele>92.42</ele>
        <time>2021-08-09T08:21:09Z</time>
      </trkpt>
      <trkpt lat="49.26395" lon="3.71126">
        <ele>92.9</ele>
        <time>2021-08-09T08:21:15Z</time>
      </trkpt>
      <trkpt lat="49.26377" lon="3.71164">
        <ele>93.39</ele>
        <time>2021-08-09T08:21:26Z</time>
      </trkpt>
      <trkpt lat="49.2636" lon="3.71198">
        <ele>93.87</ele>
        <time>2021-08-09T08:21:35Z</time>
      </trkpt>
      <trkpt lat="49.26337" lon="3.71241">
        <ele>93.87</ele>
        <time>2021-08-09T08:21:45Z</time>
      </trkpt>
      <trkpt lat="49.26311" lon="3.71294">
        <ele>92.9</ele>
        <time>2021-08-09T08:21:54Z</time>
      </trkpt>
      <trkpt lat="49.26273" lon="3.71368">
        <ele>90.02</ele>
        <time>2021-08-09T08:22:05Z</time>
      </trkpt>
      <trkpt lat="49.26231" lon="3.71449">
        <ele>87.62</ele>
        <time>2021-08-09T08:22:16Z</time>
      </trkpt>
      <trkpt lat="49.26196" lon="3.71517">
        <ele>85.21</ele>
        <time>2021-08-09T08:22:26Z</time>
      </trkpt>
      <trkpt lat="49.26162" lon="3.71584">
        <ele>84.25</ele>
        <time>2021-08-09T08:22:35Z</time>
      </trkpt>
      <trkpt lat="49.26123" lon="3.71659">
        <ele>81.85</ele>
        <time>2021-08-09T08:22:45Z</time>
      </trkpt>
      <trkpt lat="49.26097" lon="3.7171">
        <ele>81.37</ele>
        <time>2021-08-09T08:22:53Z</time>
      </trkpt>
      <trkpt lat="49.26094" lon="3.71715">
        <ele>81.37</ele>
        <time>2021-08-09T08:22:54Z</time>
      </trkpt>
      <trkpt lat="49.26062" lon="3.71779">
        <ele>80.41</ele>
        <time>2021-08-09T08:23:04Z</time>
      </trkpt>
      <trkpt lat="49.26022" lon="3.71858">
        <ele>80.41</ele>
        <time>2021-08-09T08:23:17Z</time>
      </trkpt>
      <trkpt lat="49.26002" lon="3.71896">
        <ele>80.41</ele>
        <time>2021-08-09T08:23:25Z</time>
      </trkpt>
      <trkpt lat="49.25995" lon="3.71911">
        <ele>81.85</ele>
        <time>2021-08-09T08:23:29Z</time>
      </trkpt>
      <trkpt lat="49.25981" lon="3.71938">
        <ele>82.81</ele>
        <time>2021-08-09T08:23:37Z</time>
      </trkpt>
      <trkpt lat="49.2597" lon="3.71958">
        <ele>83.77</ele>
        <time>2021-08-09T08:23:44Z</time>
      </trkpt>
      <trkpt lat="49.25958" lon="3.71978">
        <ele>84.73</ele>
        <time>2021-08-09T08:23:51Z</time>
      </trkpt>
      <trkpt lat="49.25945" lon="3.72002">
        <ele>85.21</ele>
        <time>2021-08-09T08:24:00Z</time>
      </trkpt>
      <trkpt lat="49.25927" lon="3.72037">
        <ele>85.21</ele>
        <time>2021-08-09T08:24:09Z</time>
      </trkpt>
      <trkpt lat="49.25909" lon="3.72069">
        <ele>85.21</ele>
        <time>2021-08-09T08:24:17Z</time>
      </trkpt>
      <trkpt lat="49.25894" lon="3.72098">
        <ele>85.21</ele>
        <time>2021-08-09T08:24:24Z</time>
      </trkpt>
      <trkpt lat="49.25893" lon="3.72098">
        <ele>85.21</ele>
        <time>2021-08-09T08:24:29Z</time>
      </trkpt>
      <trkpt lat="49.25892" lon="3.72096">
        <ele>85.21</ele>
        <time>2021-08-09T08:24:40Z</time>
      </trkpt>
      <trkpt lat="49.25894" lon="3.72099">
        <ele>85.21</ele>
        <time>2021-08-09T08:24:54Z</time>
      </trkpt>
      <trkpt lat="49.25894" lon="3.72098">
        <ele>85.21</ele>
        <time>2021-08-09T08:25:06Z</time>
      </trkpt>
      <trkpt lat="49.25894" lon="3.72098">
        <ele>85.21</ele>
        <time>2021-08-09T08:25:22Z</time>
      </trkpt>
      <trkpt lat="49.25895" lon="3.72099">
        <ele>85.21</ele>
        <time>2021-08-09T08:25:38Z</time>
      </trkpt>
      <trkpt lat="49.25895" lon="3.721">
        <ele>85.21</ele>
        <time>2021-08-09T08:25:57Z</time>
      </trkpt>
      <trkpt lat="49.25893" lon="3.72097">
        <ele>85.21</ele>
        <time>2021-08-09T08:26:06Z</time>
      </trkpt>
      <trkpt lat="49.25891" lon="3.72098">
        <ele>85.21</ele>
        <time>2021-08-09T08:26:13Z</time>
      </trkpt>
      <trkpt lat="49.25896" lon="3.72101">
        <ele>85.21</ele>
        <time>2021-08-09T08:26:37Z</time>
      </trkpt>
      <trkpt lat="49.25895" lon="3.721">
        <ele>85.21</ele>
        <time>2021-08-09T08:26:49Z</time>
      </trkpt>
      <trkpt lat="49.25893" lon="3.721">
        <ele>85.21</ele>
        <time>2021-08-09T08:26:58Z</time>
      </trkpt>
      <trkpt lat="49.25893" lon="3.72099">
        <ele>85.21</ele>
        <time>2021-08-09T08:27:15Z</time>
      </trkpt>
      <trkpt lat="49.25894" lon="3.72099">
        <ele>85.21</ele>
        <time>2021-08-09T08:27:29Z</time>
      </trkpt>
      <trkpt lat="49.25895" lon="3.72097">
        <ele>85.21</ele>
        <time>2021-08-09T08:27:45Z</time>
      </trkpt>
      <trkpt lat="49.25895" lon="3.72099">
        <ele>85.21</ele>
        <time>2021-08-09T08:28:02Z</time>
      </trkpt>
      <trkpt lat="49.25899" lon="3.72103">
        <ele>85.21</ele>
        <time>2021-08-09T08:28:19Z</time>
      </trkpt>
      <trkpt lat="49.25898" lon="3.72103">
        <ele>85.21</ele>
        <time>2021-08-09T08:28:40Z</time>
      </trkpt>
      <trkpt lat="49.25898" lon="3.72105">
        <ele>85.21</ele>
        <time>2021-08-09T08:28:57Z</time>
      </trkpt>
      <trkpt lat="49.25897" lon="3.72105">
        <ele>85.21</ele>
        <time>2021-08-09T08:29:11Z</time>
      </trkpt>
      <trkpt lat="49.25897" lon="3.72104">
        <ele>85.21</ele>
        <time>2021-08-09T08:29:27Z</time>
      </trkpt>
      <trkpt lat="49.25897" lon="3.72103">
        <ele>84.73</ele>
        <time>2021-08-09T08:29:53Z</time>
      </trkpt>
      <trkpt lat="49.25897" lon="3.72102">
        <ele>84.73</ele>
        <time>2021-08-09T08:30:10Z</time>
      </trkpt>
      <trkpt lat="49.25896" lon="3.72102">
        <ele>84.73</ele>
        <time>2021-08-09T08:30:33Z</time>
      </trkpt>
      <trkpt lat="49.25897" lon="3.72103">
        <ele>84.73</ele>
        <time>2021-08-09T08:30:49Z</time>
      </trkpt>
      <trkpt lat="49.25896" lon="3.72105">
        <ele>84.73</ele>
        <time>2021-08-09T08:31:06Z</time>
      </trkpt>
      <trkpt lat="49.25897" lon="3.72102">
        <ele>84.73</ele>
        <time>2021-08-09T08:31:29Z</time>
      </trkpt>
      <trkpt lat="49.25898" lon="3.72101">
        <ele>84.73</ele>
        <time>2021-08-09T08:31:37Z</time>
      </trkpt>
      <trkpt lat="49.25898" lon="3.72101">
        <ele>84.73</ele>
        <time>2021-08-09T08:31:40Z</time>
      </trkpt>
      <trkpt lat="49.25898" lon="3.72103">
        <ele>84.73</ele>
        <time>2021-08-09T08:31:47Z</time>
      </trkpt>
      <trkpt lat="49.25899" lon="3.72107">
        <ele>84.73</ele>
        <time>2021-08-09T08:32:05Z</time>
      </trkpt>
      <trkpt lat="49.259" lon="3.72106">
        <ele>84.73</ele>
        <time>2021-08-09T08:32:21Z</time>
      </trkpt>
      <trkpt lat="49.25898" lon="3.72104">
        <ele>84.73</ele>
        <time>2021-08-09T08:32:40Z</time>
      </trkpt>
      <trkpt lat="49.25898" lon="3.72104">
        <ele>84.73</ele>
        <time>2021-08-09T08:33:02Z</time>
      </trkpt>
      <trkpt lat="49.25897" lon="3.721">
        <ele>84.73</ele>
        <time>2021-08-09T08:33:16Z</time>
      </trkpt>
      <trkpt lat="49.25896" lon="3.72099">
        <ele>84.73</ele>
        <time>2021-08-09T08:33:33Z</time>
      </trkpt>
      <trkpt lat="49.25895" lon="3.72102">
        <ele>84.73</ele>
        <time>2021-08-09T08:33:54Z</time>
      </trkpt>
      <trkpt lat="49.25897" lon="3.72103">
        <ele>84.73</ele>
        <time>2021-08-09T08:34:06Z</time>
      </trkpt>
      <trkpt lat="49.25896" lon="3.72102">
        <ele>84.73</ele>
        <time>2021-08-09T08:34:21Z</time>
      </trkpt>
      <trkpt lat="49.25895" lon="3.721">
        <ele>84.73</ele>
        <time>2021-08-09T08:34:32Z</time>
      </trkpt>
      <trkpt lat="49.25895" lon="3.72102">
        <ele>84.73</ele>
        <time>2021-08-09T08:34:55Z</time>
      </trkpt>
      <trkpt lat="49.25897" lon="3.72101">
        <ele>84.25</ele>
        <time>2021-08-09T08:35:20Z</time>
      </trkpt>
      <trkpt lat="49.25897" lon="3.72101">
        <ele>84.25</ele>
        <time>2021-08-09T08:35:33Z</time>
      </trkpt>
      <trkpt lat="49.25897" lon="3.72104">
        <ele>84.25</ele>
        <time>2021-08-09T08:35:39Z</time>
      </trkpt>
      <trkpt lat="49.25896" lon="3.72106">
        <ele>84.25</ele>
        <time>2021-08-09T08:35:40Z</time>
      </trkpt>
      <trkpt lat="49.25891" lon="3.72119">
        <ele>84.25</ele>
        <time>2021-08-09T08:35:46Z</time>
      </trkpt>
      <trkpt lat="49.2588" lon="3.7214">
        <ele>84.25</ele>
        <time>2021-08-09T08:35:54Z</time>
      </trkpt>
      <trkpt lat="49.25872" lon="3.72159">
        <ele>84.25</ele>
        <time>2021-08-09T08:36:01Z</time>
      </trkpt>
      <trkpt lat="49.2587" lon="3.72165">
        <ele>84.25</ele>
        <time>2021-08-09T08:36:06Z</time>
      </trkpt>
      <trkpt lat="49.2587" lon="3.72166">
        <ele>84.25</ele>
        <time>2021-08-09T08:36:08Z</time>
      </trkpt>
      <trkpt lat="49.25869" lon="3.72168">
        <ele>84.25</ele>
        <time>2021-08-09T08:36:09Z</time>
      </trkpt>
      <trkpt lat="49.25869" lon="3.7217">
        <ele>84.25</ele>
        <time>2021-08-09T08:36:10Z</time>
      </trkpt>
      <trkpt lat="49.25864" lon="3.72181">
        <ele>83.29</ele>
        <time>2021-08-09T08:36:13Z</time>
      </trkpt>
      <trkpt lat="49.25851" lon="3.72212">
        <ele>83.29</ele>
        <time>2021-08-09T08:36:20Z</time>
      </trkpt>
      <trkpt lat="49.25841" lon="3.72243">
        <ele>83.29</ele>
        <time>2021-08-09T08:36:27Z</time>
      </trkpt>
      <trkpt lat="49.25828" lon="3.72273">
        <ele>83.29</ele>
        <time>2021-08-09T08:36:34Z</time>
      </trkpt>
      <trkpt lat="49.2581" lon="3.72318">
        <ele>83.29</ele>
        <time>2021-08-09T08:36:44Z</time>
      </trkpt>
      <trkpt lat="49.25797" lon="3.72356">
        <ele>83.29</ele>
        <time>2021-08-09T08:36:52Z</time>
      </trkpt>
      <trkpt lat="49.25786" lon="3.72388">
        <ele>83.29</ele>
        <time>2021-08-09T08:36:59Z</time>
      </trkpt>
      <trkpt lat="49.25771" lon="3.72424">
        <ele>84.25</ele>
        <time>2021-08-09T08:37:08Z</time>
      </trkpt>
      <trkpt lat="49.25756" lon="3.72461">
        <ele>84.73</ele>
        <time>2021-08-09T08:37:17Z</time>
      </trkpt>
      <trkpt lat="49.25734" lon="3.72508">
        <ele>85.69</ele>
        <time>2021-08-09T08:37:28Z</time>
      </trkpt>
      <trkpt lat="49.25724" lon="3.72531">
        <ele>84.25</ele>
        <time>2021-08-09T08:37:32Z</time>
      </trkpt>
      <trkpt lat="49.25711" lon="3.72559">
        <ele>83.29</ele>
        <time>2021-08-09T08:37:37Z</time>
      </trkpt>
      <trkpt lat="49.25709" lon="3.72566">
        <ele>83.29</ele>
        <time>2021-08-09T08:37:38Z</time>
      </trkpt>
      <trkpt lat="49.25707" lon="3.72571">
        <ele>83.29</ele>
        <time>2021-08-09T08:37:39Z</time>
      </trkpt>
      <trkpt lat="49.25704" lon="3.72576">
        <ele>83.29</ele>
        <time>2021-08-09T08:37:40Z</time>
      </trkpt>
      <trkpt lat="49.25701" lon="3.72582">
        <ele>83.29</ele>
        <time>2021-08-09T08:37:41Z</time>
      </trkpt>
      <trkpt lat="49.25691" lon="3.72603">
        <ele>85.21</ele>
        <time>2021-08-09T08:37:46Z</time>
      </trkpt>
      <trkpt lat="49.25676" lon="3.72634">
        <ele>85.69</ele>
        <time>2021-08-09T08:37:54Z</time>
      </trkpt>
      <trkpt lat="49.25661" lon="3.72664">
        <ele>86.66</ele>
        <time>2021-08-09T08:38:02Z</time>
      </trkpt>
      <trkpt lat="49.25645" lon="3.72698">
        <ele>88.1</ele>
        <time>2021-08-09T08:38:12Z</time>
      </trkpt>
      <trkpt lat="49.25627" lon="3.72735">
        <ele>88.58</ele>
        <time>2021-08-09T08:38:23Z</time>
      </trkpt>
      <trkpt lat="49.2561" lon="3.72771">
        <ele>90.5</ele>
        <time>2021-08-09T08:38:34Z</time>
      </trkpt>
      <trkpt lat="49.25592" lon="3.72808">
        <ele>91.46</ele>
        <time>2021-08-09T08:38:45Z</time>
      </trkpt>
      <trkpt lat="49.25573" lon="3.72847">
        <ele>92.42</ele>
        <time>2021-08-09T08:38:56Z</time>
      </trkpt>
      <trkpt lat="49.25557" lon="3.72879">
        <ele>92.9</ele>
        <time>2021-08-09T08:39:05Z</time>
      </trkpt>
      <trkpt lat="49.25538" lon="3.7292">
        <ele>93.87</ele>
        <time>2021-08-09T08:39:16Z</time>
      </trkpt>
      <trkpt lat="49.25522" lon="3.72955">
        <ele>94.35</ele>
        <time>2021-08-09T08:39:25Z</time>
      </trkpt>
      <trkpt lat="49.25505" lon="3.72986">
        <ele>94.35</ele>
        <time>2021-08-09T08:39:32Z</time>
      </trkpt>
      <trkpt lat="49.25492" lon="3.73014">
        <ele>92.9</ele>
        <time>2021-08-09T08:39:37Z</time>
      </trkpt>
      <trkpt lat="49.25483" lon="3.73034">
        <ele>91.94</ele>
        <time>2021-08-09T08:39:40Z</time>
      </trkpt>
      <trkpt lat="49.2548" lon="3.73042">
        <ele>91.46</ele>
        <time>2021-08-09T08:39:41Z</time>
      </trkpt>
      <trkpt lat="49.25469" lon="3.73099">
        <ele>89.54</ele>
        <time>2021-08-09T08:39:47Z</time>
      </trkpt>
      <trkpt lat="49.2546" lon="3.73158">
        <ele>87.14</ele>
        <time>2021-08-09T08:39:52Z</time>
      </trkpt>
      <trkpt lat="49.2545" lon="3.73225">
        <ele>82.81</ele>
        <time>2021-08-09T08:39:57Z</time>
      </trkpt>
      <trkpt lat="49.25437" lon="3.73313">
        <ele>79.93</ele>
        <time>2021-08-09T08:40:03Z</time>
      </trkpt>
      <trkpt lat="49.25432" lon="3.73343">
        <ele>78.97</ele>
        <time>2021-08-09T08:40:05Z</time>
      </trkpt>
      <trkpt lat="49.25412" lon="3.73486">
        <ele>76.56</ele>
        <time>2021-08-09T08:40:15Z</time>
      </trkpt>
      <trkpt lat="49.25398" lon="3.73556">
        <ele>76.56</ele>
        <time>2021-08-09T08:40:21Z</time>
      </trkpt>
      <trkpt lat="49.25378" lon="3.7361">
        <ele>78</ele>
        <time>2021-08-09T08:40:27Z</time>
      </trkpt>
      <trkpt lat="49.25372" lon="3.73626">
        <ele>78</ele>
        <time>2021-08-09T08:40:29Z</time>
      </trkpt>
      <trkpt lat="49.25369" lon="3.73634">
        <ele>78.48</ele>
        <time>2021-08-09T08:40:30Z</time>
      </trkpt>
      <trkpt lat="49.25361" lon="3.73654">
        <ele>79.45</ele>
        <time>2021-08-09T08:40:33Z</time>
      </trkpt>
      <trkpt lat="49.25361" lon="3.7366">
        <ele>79.45</ele>
        <time>2021-08-09T08:40:34Z</time>
      </trkpt>
      <trkpt lat="49.25361" lon="3.73667">
        <ele>79.45</ele>
        <time>2021-08-09T08:40:35Z</time>
      </trkpt>
      <trkpt lat="49.25363" lon="3.73672">
        <ele>79.45</ele>
        <time>2021-08-09T08:40:36Z</time>
      </trkpt>
      <trkpt lat="49.25365" lon="3.73676">
        <ele>79.45</ele>
        <time>2021-08-09T08:40:37Z</time>
      </trkpt>
      <trkpt lat="49.25367" lon="3.73682">
        <ele>79.45</ele>
        <time>2021-08-09T08:40:38Z</time>
      </trkpt>
      <trkpt lat="49.2538" lon="3.73733">
        <ele>79.93</ele>
        <time>2021-08-09T08:40:46Z</time>
      </trkpt>
      <trkpt lat="49.25384" lon="3.73754">
        <ele>79.93</ele>
        <time>2021-08-09T08:40:49Z</time>
      </trkpt>
      <trkpt lat="49.25387" lon="3.73761">
        <ele>79.93</ele>
        <time>2021-08-09T08:40:50Z</time>
      </trkpt>
      <trkpt lat="49.2539" lon="3.73767">
        <ele>79.93</ele>
        <time>2021-08-09T08:40:51Z</time>
      </trkpt>
      <trkpt lat="49.25394" lon="3.73772">
        <ele>79.93</ele>
        <time>2021-08-09T08:40:52Z</time>
      </trkpt>
      <trkpt lat="49.25398" lon="3.73776">
        <ele>79.93</ele>
        <time>2021-08-09T08:40:53Z</time>
      </trkpt>
      <trkpt lat="49.25402" lon="3.73781">
        <ele>79.93</ele>
        <time>2021-08-09T08:40:54Z</time>
      </trkpt>
      <trkpt lat="49.25415" lon="3.73795">
        <ele>79.93</ele>
        <time>2021-08-09T08:40:57Z</time>
      </trkpt>
      <trkpt lat="49.25419" lon="3.73802">
        <ele>79.93</ele>
        <time>2021-08-09T08:40:58Z</time>
      </trkpt>
      <trkpt lat="49.25422" lon="3.73809">
        <ele>78.97</ele>
        <time>2021-08-09T08:40:59Z</time>
      </trkpt>
      <trkpt lat="49.25425" lon="3.73817">
        <ele>78.97</ele>
        <time>2021-08-09T08:41:00Z</time>
      </trkpt>
      <trkpt lat="49.25426" lon="3.73825">
        <ele>78.97</ele>
        <time>2021-08-09T08:41:01Z</time>
      </trkpt>
      <trkpt lat="49.25428" lon="3.73834">
        <ele>78.97</ele>
        <time>2021-08-09T08:41:02Z</time>
      </trkpt>
      <trkpt lat="49.25429" lon="3.73851">
        <ele>78.97</ele>
        <time>2021-08-09T08:41:04Z</time>
      </trkpt>
      <trkpt lat="49.25429" lon="3.73861">
        <ele>78.97</ele>
        <time>2021-08-09T08:41:05Z</time>
      </trkpt>
      <trkpt lat="49.25427" lon="3.73883">
        <ele>78.97</ele>
        <time>2021-08-09T08:41:08Z</time>
      </trkpt>
      <trkpt lat="49.25426" lon="3.7389">
        <ele>78.97</ele>
        <time>2021-08-09T08:41:09Z</time>
      </trkpt>
      <trkpt lat="49.25425" lon="3.73902">
        <ele>78.97</ele>
        <time>2021-08-09T08:41:11Z</time>
      </trkpt>
      <trkpt lat="49.25424" lon="3.73907">
        <ele>78.97</ele>
        <time>2021-08-09T08:41:12Z</time>
      </trkpt>
      <trkpt lat="49.25422" lon="3.73913">
        <ele>78.97</ele>
        <time>2021-08-09T08:41:13Z</time>
      </trkpt>
      <trkpt lat="49.2542" lon="3.73918">
        <ele>78.97</ele>
        <time>2021-08-09T08:41:14Z</time>
      </trkpt>
      <trkpt lat="49.25418" lon="3.73924">
        <ele>78.97</ele>
        <time>2021-08-09T08:41:15Z</time>
      </trkpt>
      <trkpt lat="49.25416" lon="3.73929">
        <ele>79.93</ele>
        <time>2021-08-09T08:41:16Z</time>
      </trkpt>
      <trkpt lat="49.25404" lon="3.73963">
        <ele>80.89</ele>
        <time>2021-08-09T08:41:23Z</time>
      </trkpt>
      <trkpt lat="49.25389" lon="3.73998">
        <ele>81.37</ele>
        <time>2021-08-09T08:41:31Z</time>
      </trkpt>
      <trkpt lat="49.25371" lon="3.7404">
        <ele>82.33</ele>
        <time>2021-08-09T08:41:41Z</time>
      </trkpt>
      <trkpt lat="49.25355" lon="3.74052">
        <ele>83.29</ele>
        <time>2021-08-09T08:41:47Z</time>
      </trkpt>
      <trkpt lat="49.25336" lon="3.74053">
        <ele>84.25</ele>
        <time>2021-08-09T08:41:54Z</time>
      </trkpt>
      <trkpt lat="49.25314" lon="3.74055">
        <ele>84.73</ele>
        <time>2021-08-09T08:42:03Z</time>
      </trkpt>
      <trkpt lat="49.25301" lon="3.7407">
        <ele>85.69</ele>
        <time>2021-08-09T08:42:10Z</time>
      </trkpt>
      <trkpt lat="49.25288" lon="3.74088">
        <ele>87.14</ele>
        <time>2021-08-09T08:42:19Z</time>
      </trkpt>
      <trkpt lat="49.25272" lon="3.74098">
        <ele>88.58</ele>
        <time>2021-08-09T08:42:28Z</time>
      </trkpt>
      <trkpt lat="49.25249" lon="3.74113">
        <ele>89.54</ele>
        <time>2021-08-09T08:42:38Z</time>
      </trkpt>
      <trkpt lat="49.25229" lon="3.74127">
        <ele>90.98</ele>
        <time>2021-08-09T08:42:47Z</time>
      </trkpt>
      <trkpt lat="49.25206" lon="3.7416">
        <ele>91.94</ele>
        <time>2021-08-09T08:42:59Z</time>
      </trkpt>
      <trkpt lat="49.2519" lon="3.74202">
        <ele>92.42</ele>
        <time>2021-08-09T08:43:08Z</time>
      </trkpt>
      <trkpt lat="49.25174" lon="3.74251">
        <ele>92.42</ele>
        <time>2021-08-09T08:43:17Z</time>
      </trkpt>
      <trkpt lat="49.25159" lon="3.74288">
        <ele>90.98</ele>
        <time>2021-08-09T08:43:23Z</time>
      </trkpt>
      <trkpt lat="49.25132" lon="3.74341">
        <ele>90.98</ele>
        <time>2021-08-09T08:43:31Z</time>
      </trkpt>
      <trkpt lat="49.25102" lon="3.7439">
        <ele>90.02</ele>
        <time>2021-08-09T08:43:39Z</time>
      </trkpt>
      <trkpt lat="49.25094" lon="3.744">
        <ele>90.02</ele>
        <time>2021-08-09T08:43:41Z</time>
      </trkpt>
      <trkpt lat="49.2509" lon="3.74406">
        <ele>90.02</ele>
        <time>2021-08-09T08:43:42Z</time>
      </trkpt>
      <trkpt lat="49.25084" lon="3.74417">
        <ele>90.02</ele>
        <time>2021-08-09T08:43:44Z</time>
      </trkpt>
      <trkpt lat="49.25077" lon="3.74427">
        <ele>90.02</ele>
        <time>2021-08-09T08:43:46Z</time>
      </trkpt>
      <trkpt lat="49.25074" lon="3.74432">
        <ele>90.02</ele>
        <time>2021-08-09T08:43:47Z</time>
      </trkpt>
      <trkpt lat="49.25054" lon="3.74455">
        <ele>90.02</ele>
        <time>2021-08-09T08:43:52Z</time>
      </trkpt>
      <trkpt lat="49.25046" lon="3.74461">
        <ele>90.02</ele>
        <time>2021-08-09T08:43:54Z</time>
      </trkpt>
      <trkpt lat="49.25037" lon="3.74466">
        <ele>90.02</ele>
        <time>2021-08-09T08:43:56Z</time>
      </trkpt>
      <trkpt lat="49.25033" lon="3.74466">
        <ele>91.46</ele>
        <time>2021-08-09T08:43:57Z</time>
      </trkpt>
      <trkpt lat="49.25028" lon="3.74468">
        <ele>91.46</ele>
        <time>2021-08-09T08:43:58Z</time>
      </trkpt>
      <trkpt lat="49.25014" lon="3.7447">
        <ele>91.46</ele>
        <time>2021-08-09T08:44:01Z</time>
      </trkpt>
      <trkpt lat="49.2501" lon="3.7447">
        <ele>91.46</ele>
        <time>2021-08-09T08:44:02Z</time>
      </trkpt>
      <trkpt lat="49.25" lon="3.7447">
        <ele>91.46</ele>
        <time>2021-08-09T08:44:04Z</time>
      </trkpt>
      <trkpt lat="49.24996" lon="3.7447">
        <ele>91.46</ele>
        <time>2021-08-09T08:44:05Z</time>
      </trkpt>
      <trkpt lat="49.24991" lon="3.7447">
        <ele>91.46</ele>
        <time>2021-08-09T08:44:06Z</time>
      </trkpt>
      <trkpt lat="49.24977" lon="3.74471">
        <ele>91.46</ele>
        <time>2021-08-09T08:44:09Z</time>
      </trkpt>
      <trkpt lat="49.24954" lon="3.74479">
        <ele>91.46</ele>
        <time>2021-08-09T08:44:14Z</time>
      </trkpt>
      <trkpt lat="49.2495" lon="3.74482">
        <ele>91.46</ele>
        <time>2021-08-09T08:44:15Z</time>
      </trkpt>
      <trkpt lat="49.24946" lon="3.74486">
        <ele>91.46</ele>
        <time>2021-08-09T08:44:16Z</time>
      </trkpt>
      <trkpt lat="49.24942" lon="3.74491">
        <ele>90.02</ele>
        <time>2021-08-09T08:44:17Z</time>
      </trkpt>
      <trkpt lat="49.24938" lon="3.74496">
        <ele>90.02</ele>
        <time>2021-08-09T08:44:18Z</time>
      </trkpt>
      <trkpt lat="49.24924" lon="3.74522">
        <ele>90.02</ele>
        <time>2021-08-09T08:44:22Z</time>
      </trkpt>
      <trkpt lat="49.24921" lon="3.74529">
        <ele>90.02</ele>
        <time>2021-08-09T08:44:23Z</time>
      </trkpt>
      <trkpt lat="49.24905" lon="3.74595">
        <ele>89.54</ele>
        <time>2021-08-09T08:44:32Z</time>
      </trkpt>
      <trkpt lat="49.24888" lon="3.7467">
        <ele>89.54</ele>
        <time>2021-08-09T08:44:43Z</time>
      </trkpt>
      <trkpt lat="49.24886" lon="3.74683">
        <ele>90.98</ele>
        <time>2021-08-09T08:44:45Z</time>
      </trkpt>
      <trkpt lat="49.24883" lon="3.74703">
        <ele>90.98</ele>
        <time>2021-08-09T08:44:48Z</time>
      </trkpt>
      <trkpt lat="49.24882" lon="3.74709">
        <ele>90.98</ele>
        <time>2021-08-09T08:44:49Z</time>
      </trkpt>
      <trkpt lat="49.2488" lon="3.74716">
        <ele>90.98</ele>
        <time>2021-08-09T08:44:50Z</time>
      </trkpt>
      <trkpt lat="49.24878" lon="3.74723">
        <ele>90.98</ele>
        <time>2021-08-09T08:44:51Z</time>
      </trkpt>
      <trkpt lat="49.24876" lon="3.7473">
        <ele>90.98</ele>
        <time>2021-08-09T08:44:52Z</time>
      </trkpt>
      <trkpt lat="49.24874" lon="3.74736">
        <ele>90.98</ele>
        <time>2021-08-09T08:44:53Z</time>
      </trkpt>
      <trkpt lat="49.24869" lon="3.74749">
        <ele>90.98</ele>
        <time>2021-08-09T08:44:55Z</time>
      </trkpt>
      <trkpt lat="49.24863" lon="3.74762">
        <ele>90.98</ele>
        <time>2021-08-09T08:44:57Z</time>
      </trkpt>
      <trkpt lat="49.24859" lon="3.74768">
        <ele>90.98</ele>
        <time>2021-08-09T08:44:58Z</time>
      </trkpt>
      <trkpt lat="49.24827" lon="3.74835">
        <ele>90.98</ele>
        <time>2021-08-09T08:45:09Z</time>
      </trkpt>
      <trkpt lat="49.2482" lon="3.74848">
        <ele>89.54</ele>
        <time>2021-08-09T08:45:11Z</time>
      </trkpt>
      <trkpt lat="49.24799" lon="3.74878">
        <ele>88.58</ele>
        <time>2021-08-09T08:45:16Z</time>
      </trkpt>
      <trkpt lat="49.24764" lon="3.74911">
        <ele>85.21</ele>
        <time>2021-08-09T08:45:22Z</time>
      </trkpt>
      <trkpt lat="49.24716" lon="3.74954">
        <ele>82.81</ele>
        <time>2021-08-09T08:45:30Z</time>
      </trkpt>
      <trkpt lat="49.24696" lon="3.74974">
        <ele>82.81</ele>
        <time>2021-08-09T08:45:34Z</time>
      </trkpt>
      <trkpt lat="49.24668" lon="3.7501">
        <ele>82.81</ele>
        <time>2021-08-09T08:45:41Z</time>
      </trkpt>
      <trkpt lat="49.24649" lon="3.75036">
        <ele>83.77</ele>
        <time>2021-08-09T08:45:46Z</time>
      </trkpt>
      <trkpt lat="49.24621" lon="3.75072">
        <ele>84.73</ele>
        <time>2021-08-09T08:45:54Z</time>
      </trkpt>
      <trkpt lat="49.24595" lon="3.75108">
        <ele>84.73</ele>
        <time>2021-08-09T08:46:02Z</time>
      </trkpt>
      <trkpt lat="49.24564" lon="3.75153">
        <ele>84.73</ele>
        <time>2021-08-09T08:46:11Z</time>
      </trkpt>
      <trkpt lat="49.24556" lon="3.75169">
        <ele>84.73</ele>
        <time>2021-08-09T08:46:14Z</time>
      </trkpt>
      <trkpt lat="49.24543" lon="3.75203">
        <ele>85.21</ele>
        <time>2021-08-09T08:46:20Z</time>
      </trkpt>
      <trkpt lat="49.2453" lon="3.75237">
        <ele>85.69</ele>
        <time>2021-08-09T08:46:27Z</time>
      </trkpt>
      <trkpt lat="49.24517" lon="3.75269">
        <ele>86.18</ele>
        <time>2021-08-09T08:46:34Z</time>
      </trkpt>
      <trkpt lat="49.24496" lon="3.75314">
        <ele>86.66</ele>
        <time>2021-08-09T08:46:44Z</time>
      </trkpt>
      <trkpt lat="49.2448" lon="3.75347">
        <ele>87.62</ele>
        <time>2021-08-09T08:46:52Z</time>
      </trkpt>
      <trkpt lat="49.24464" lon="3.75378">
        <ele>88.1</ele>
        <time>2021-08-09T08:47:00Z</time>
      </trkpt>
      <trkpt lat="49.2445" lon="3.75406">
        <ele>89.54</ele>
        <time>2021-08-09T08:47:08Z</time>
      </trkpt>
      <trkpt lat="49.2444" lon="3.75424">
        <ele>90.02</ele>
        <time>2021-08-09T08:47:15Z</time>
      </trkpt>
      <trkpt lat="49.24439" lon="3.75427">
        <ele>90.02</ele>
        <time>2021-08-09T08:47:16Z</time>
      </trkpt>
      <trkpt lat="49.24431" lon="3.75446">
        <ele>90.98</ele>
        <time>2021-08-09T08:47:23Z</time>
      </trkpt>
      <trkpt lat="49.24426" lon="3.75455">
        <ele>91.46</ele>
        <time>2021-08-09T08:47:27Z</time>
      </trkpt>
      <trkpt lat="49.24421" lon="3.75478">
        <ele>92.42</ele>
        <time>2021-08-09T08:47:34Z</time>
      </trkpt>
      <trkpt lat="49.24419" lon="3.75482">
        <ele>92.42</ele>
        <time>2021-08-09T08:47:36Z</time>
      </trkpt>
      <trkpt lat="49.24417" lon="3.75484">
        <ele>92.9</ele>
        <time>2021-08-09T08:47:37Z</time>
      </trkpt>
      <trkpt lat="49.24403" lon="3.75516">
        <ele>92.9</ele>
        <time>2021-08-09T08:47:46Z</time>
      </trkpt>
      <trkpt lat="49.24385" lon="3.75566">
        <ele>93.39</ele>
        <time>2021-08-09T08:47:57Z</time>
      </trkpt>
      <trkpt lat="49.24367" lon="3.75607">
        <ele>94.35</ele>
        <time>2021-08-09T08:48:07Z</time>
      </trkpt>
      <trkpt lat="49.24355" lon="3.75636">
        <ele>95.31</ele>
        <time>2021-08-09T08:48:16Z</time>
      </trkpt>
      <trkpt lat="49.24343" lon="3.75664">
        <ele>96.75</ele>
        <time>2021-08-09T08:48:26Z</time>
      </trkpt>
      <trkpt lat="49.24334" lon="3.75693">
        <ele>98.67</ele>
        <time>2021-08-09T08:48:36Z</time>
      </trkpt>
      <trkpt lat="49.24328" lon="3.75717">
        <ele>98.67</ele>
        <time>2021-08-09T08:48:44Z</time>
      </trkpt>
      <trkpt lat="49.24319" lon="3.75747">
        <ele>99.63</ele>
        <time>2021-08-09T08:48:52Z</time>
      </trkpt>
      <trkpt lat="49.24305" lon="3.7579">
        <ele>99.63</ele>
        <time>2021-08-09T08:49:01Z</time>
      </trkpt>
      <trkpt lat="49.24293" lon="3.75828">
        <ele>100.6</ele>
        <time>2021-08-09T08:49:09Z</time>
      </trkpt>
      <trkpt lat="49.2428" lon="3.75867">
        <ele>101.08</ele>
        <time>2021-08-09T08:49:17Z</time>
      </trkpt>
      <trkpt lat="49.24266" lon="3.75904">
        <ele>101.56</ele>
        <time>2021-08-09T08:49:25Z</time>
      </trkpt>
      <trkpt lat="49.24264" lon="3.7592">
        <ele>101.56</ele>
        <time>2021-08-09T08:49:28Z</time>
      </trkpt>
      <trkpt lat="49.24266" lon="3.75927">
        <ele>101.56</ele>
        <time>2021-08-09T08:49:29Z</time>
      </trkpt>
      <trkpt lat="49.24268" lon="3.75933">
        <ele>99.63</ele>
        <time>2021-08-09T08:49:30Z</time>
      </trkpt>
      <trkpt lat="49.2427" lon="3.75939">
        <ele>99.63</ele>
        <time>2021-08-09T08:49:31Z</time>
      </trkpt>
      <trkpt lat="49.2428" lon="3.75961">
        <ele>98.19</ele>
        <time>2021-08-09T08:49:34Z</time>
      </trkpt>
      <trkpt lat="49.24284" lon="3.75969">
        <ele>98.19</ele>
        <time>2021-08-09T08:49:35Z</time>
      </trkpt>
      <trkpt lat="49.24287" lon="3.75977">
        <ele>97.71</ele>
        <time>2021-08-09T08:49:36Z</time>
      </trkpt>
      <trkpt lat="49.24289" lon="3.75986">
        <ele>97.23</ele>
        <time>2021-08-09T08:49:37Z</time>
      </trkpt>
      <trkpt lat="49.24291" lon="3.75997">
        <ele>97.23</ele>
        <time>2021-08-09T08:49:38Z</time>
      </trkpt>
      <trkpt lat="49.24291" lon="3.76008">
        <ele>95.79</ele>
        <time>2021-08-09T08:49:39Z</time>
      </trkpt>
      <trkpt lat="49.2429" lon="3.76019">
        <ele>95.31</ele>
        <time>2021-08-09T08:49:40Z</time>
      </trkpt>
      <trkpt lat="49.24289" lon="3.76031">
        <ele>95.31</ele>
        <time>2021-08-09T08:49:41Z</time>
      </trkpt>
      <trkpt lat="49.24278" lon="3.7609">
        <ele>91.94</ele>
        <time>2021-08-09T08:49:46Z</time>
      </trkpt>
      <trkpt lat="49.24264" lon="3.7614">
        <ele>89.06</ele>
        <time>2021-08-09T08:49:50Z</time>
      </trkpt>
      <trkpt lat="49.24262" lon="3.76151">
        <ele>88.58</ele>
        <time>2021-08-09T08:49:51Z</time>
      </trkpt>
      <trkpt lat="49.24261" lon="3.76164">
        <ele>88.58</ele>
        <time>2021-08-09T08:49:52Z</time>
      </trkpt>
      <trkpt lat="49.24262" lon="3.76176">
        <ele>87.62</ele>
        <time>2021-08-09T08:49:53Z</time>
      </trkpt>
      <trkpt lat="49.24264" lon="3.76186">
        <ele>87.62</ele>
        <time>2021-08-09T08:49:54Z</time>
      </trkpt>
      <trkpt lat="49.24268" lon="3.76196">
        <ele>87.62</ele>
        <time>2021-08-09T08:49:55Z</time>
      </trkpt>
      <trkpt lat="49.24273" lon="3.76205">
        <ele>87.14</ele>
        <time>2021-08-09T08:49:56Z</time>
      </trkpt>
      <trkpt lat="49.24278" lon="3.76213">
        <ele>87.14</ele>
        <time>2021-08-09T08:49:57Z</time>
      </trkpt>
      <trkpt lat="49.24284" lon="3.76221">
        <ele>86.66</ele>
        <time>2021-08-09T08:49:58Z</time>
      </trkpt>
      <trkpt lat="49.24328" lon="3.76281">
        <ele>84.73</ele>
        <time>2021-08-09T08:50:06Z</time>
      </trkpt>
      <trkpt lat="49.24368" lon="3.76329">
        <ele>83.29</ele>
        <time>2021-08-09T08:50:13Z</time>
      </trkpt>
      <trkpt lat="49.2438" lon="3.7634">
        <ele>82.33</ele>
        <time>2021-08-09T08:50:15Z</time>
      </trkpt>
      <trkpt lat="49.24384" lon="3.76345">
        <ele>82.33</ele>
        <time>2021-08-09T08:50:16Z</time>
      </trkpt>
      <trkpt lat="49.24386" lon="3.7635">
        <ele>82.33</ele>
        <time>2021-08-09T08:50:17Z</time>
      </trkpt>
      <trkpt lat="49.24386" lon="3.76356">
        <ele>82.33</ele>
        <time>2021-08-09T08:50:18Z</time>
      </trkpt>
      <trkpt lat="49.24386" lon="3.76361">
        <ele>82.33</ele>
        <time>2021-08-09T08:50:19Z</time>
      </trkpt>
      <trkpt lat="49.24385" lon="3.76365">
        <ele>82.33</ele>
        <time>2021-08-09T08:50:20Z</time>
      </trkpt>
      <trkpt lat="49.24383" lon="3.76369">
        <ele>82.33</ele>
        <time>2021-08-09T08:50:21Z</time>
      </trkpt>
      <trkpt lat="49.24381" lon="3.76373">
        <ele>82.33</ele>
        <time>2021-08-09T08:50:22Z</time>
      </trkpt>
      <trkpt lat="49.2438" lon="3.76378">
        <ele>82.33</ele>
        <time>2021-08-09T08:50:23Z</time>
      </trkpt>
      <trkpt lat="49.24379" lon="3.76382">
        <ele>82.33</ele>
        <time>2021-08-09T08:50:24Z</time>
      </trkpt>
      <trkpt lat="49.24376" lon="3.76394">
        <ele>83.77</ele>
        <time>2021-08-09T08:50:27Z</time>
      </trkpt>
      <trkpt lat="49.2437" lon="3.76415">
        <ele>83.77</ele>
        <time>2021-08-09T08:50:32Z</time>
      </trkpt>
      <trkpt lat="49.24358" lon="3.76445">
        <ele>85.69</ele>
        <time>2021-08-09T08:50:40Z</time>
      </trkpt>
      <trkpt lat="49.24342" lon="3.76469">
        <ele>86.18</ele>
        <time>2021-08-09T08:50:48Z</time>
      </trkpt>
      <trkpt lat="49.24323" lon="3.76487">
        <ele>86.66</ele>
        <time>2021-08-09T08:50:55Z</time>
      </trkpt>
      <trkpt lat="49.24301" lon="3.76507">
        <ele>88.1</ele>
        <time>2021-08-09T08:51:03Z</time>
      </trkpt>
      <trkpt lat="49.24282" lon="3.76523">
        <ele>89.54</ele>
        <time>2021-08-09T08:51:11Z</time>
      </trkpt>
      <trkpt lat="49.24258" lon="3.7654">
        <ele>92.42</ele>
        <time>2021-08-09T08:51:23Z</time>
      </trkpt>
      <trkpt lat="49.24238" lon="3.76553">
        <ele>93.87</ele>
        <time>2021-08-09T08:51:33Z</time>
      </trkpt>
      <trkpt lat="49.24222" lon="3.76564">
        <ele>94.83</ele>
        <time>2021-08-09T08:51:41Z</time>
      </trkpt>
      <trkpt lat="49.24198" lon="3.76579">
        <ele>96.27</ele>
        <time>2021-08-09T08:51:53Z</time>
      </trkpt>
      <trkpt lat="49.24182" lon="3.7659">
        <ele>97.71</ele>
        <time>2021-08-09T08:52:01Z</time>
      </trkpt>
      <trkpt lat="49.24162" lon="3.76603">
        <ele>99.15</ele>
        <time>2021-08-09T08:52:11Z</time>
      </trkpt>
      <trkpt lat="49.24142" lon="3.76616">
        <ele>100.11</ele>
        <time>2021-08-09T08:52:21Z</time>
      </trkpt>
      <trkpt lat="49.24123" lon="3.7663">
        <ele>101.08</ele>
        <time>2021-08-09T08:52:30Z</time>
      </trkpt>
      <trkpt lat="49.24096" lon="3.76649">
        <ele>101.56</ele>
        <time>2021-08-09T08:52:40Z</time>
      </trkpt>
      <trkpt lat="49.24066" lon="3.7667">
        <ele>102.04</ele>
        <time>2021-08-09T08:52:49Z</time>
      </trkpt>
      <trkpt lat="49.24038" lon="3.76691">
        <ele>102.52</ele>
        <time>2021-08-09T08:52:59Z</time>
      </trkpt>
      <trkpt lat="49.24014" lon="3.7671">
        <ele>103.96</ele>
        <time>2021-08-09T08:53:10Z</time>
      </trkpt>
      <trkpt lat="49.23993" lon="3.76719">
        <ele>105.88</ele>
        <time>2021-08-09T08:53:20Z</time>
      </trkpt>
      <trkpt lat="49.2397" lon="3.76722">
        <ele>107.81</ele>
        <time>2021-08-09T08:53:30Z</time>
      </trkpt>
      <trkpt lat="49.23943" lon="3.76727">
        <ele>109.25</ele>
        <time>2021-08-09T08:53:41Z</time>
      </trkpt>
      <trkpt lat="49.2392" lon="3.76748">
        <ele>110.21</ele>
        <time>2021-08-09T08:53:50Z</time>
      </trkpt>
      <trkpt lat="49.23896" lon="3.76789">
        <ele>110.21</ele>
        <time>2021-08-09T08:53:59Z</time>
      </trkpt>
      <trkpt lat="49.23868" lon="3.76843">
        <ele>110.21</ele>
        <time>2021-08-09T08:54:09Z</time>
      </trkpt>
      <trkpt lat="49.2384" lon="3.76899">
        <ele>110.69</ele>
        <time>2021-08-09T08:54:19Z</time>
      </trkpt>
      <trkpt lat="49.23818" lon="3.76942">
        <ele>111.65</ele>
        <time>2021-08-09T08:54:27Z</time>
      </trkpt>
      <trkpt lat="49.23784" lon="3.77001">
        <ele>112.61</ele>
        <time>2021-08-09T08:54:38Z</time>
      </trkpt>
      <trkpt lat="49.23764" lon="3.77035">
        <ele>110.69</ele>
        <time>2021-08-09T08:54:44Z</time>
      </trkpt>
      <trkpt lat="49.23737" lon="3.77076">
        <ele>108.77</ele>
        <time>2021-08-09T08:54:50Z</time>
      </trkpt>
      <trkpt lat="49.23708" lon="3.77112">
        <ele>104.92</ele>
        <time>2021-08-09T08:54:55Z</time>
      </trkpt>
      <trkpt lat="49.23669" lon="3.7716">
        <ele>103.96</ele>
        <time>2021-08-09T08:55:02Z</time>
      </trkpt>
      <trkpt lat="49.23645" lon="3.7719">
        <ele>103</ele>
        <time>2021-08-09T08:55:07Z</time>
      </trkpt>
      <trkpt lat="49.23641" lon="3.77197">
        <ele>103</ele>
        <time>2021-08-09T08:55:08Z</time>
      </trkpt>
      <trkpt lat="49.23636" lon="3.77205">
        <ele>102.52</ele>
        <time>2021-08-09T08:55:09Z</time>
      </trkpt>
      <trkpt lat="49.23632" lon="3.77213">
        <ele>102.52</ele>
        <time>2021-08-09T08:55:10Z</time>
      </trkpt>
      <trkpt lat="49.23629" lon="3.77222">
        <ele>102.04</ele>
        <time>2021-08-09T08:55:11Z</time>
      </trkpt>
      <trkpt lat="49.23617" lon="3.7725">
        <ele>100.6</ele>
        <time>2021-08-09T08:55:14Z</time>
      </trkpt>
      <trkpt lat="49.23604" lon="3.7729">
        <ele>99.63</ele>
        <time>2021-08-09T08:55:18Z</time>
      </trkpt>
      <trkpt lat="49.23581" lon="3.77381">
        <ele>99.15</ele>
        <time>2021-08-09T08:55:27Z</time>
      </trkpt>
      <trkpt lat="49.23577" lon="3.7739">
        <ele>99.15</ele>
        <time>2021-08-09T08:55:28Z</time>
      </trkpt>
      <trkpt lat="49.23544" lon="3.77429">
        <ele>98.19</ele>
        <time>2021-08-09T08:55:34Z</time>
      </trkpt>
      <trkpt lat="49.23538" lon="3.77437">
        <ele>97.71</ele>
        <time>2021-08-09T08:55:35Z</time>
      </trkpt>
      <trkpt lat="49.23521" lon="3.77467">
        <ele>95.79</ele>
        <time>2021-08-09T08:55:38Z</time>
      </trkpt>
      <trkpt lat="49.23517" lon="3.77479">
        <ele>94.83</ele>
        <time>2021-08-09T08:55:39Z</time>
      </trkpt>
      <trkpt lat="49.23509" lon="3.77504">
        <ele>93.87</ele>
        <time>2021-08-09T08:55:41Z</time>
      </trkpt>
      <trkpt lat="49.23489" lon="3.77577">
        <ele>93.39</ele>
        <time>2021-08-09T08:55:47Z</time>
      </trkpt>
      <trkpt lat="49.2348" lon="3.77597">
        <ele>93.39</ele>
        <time>2021-08-09T08:55:49Z</time>
      </trkpt>
      <trkpt lat="49.23476" lon="3.77607">
        <ele>93.39</ele>
        <time>2021-08-09T08:55:50Z</time>
      </trkpt>
      <trkpt lat="49.23471" lon="3.77615">
        <ele>93.39</ele>
        <time>2021-08-09T08:55:51Z</time>
      </trkpt>
      <trkpt lat="49.23433" lon="3.7766">
        <ele>91.94</ele>
        <time>2021-08-09T08:55:58Z</time>
      </trkpt>
      <trkpt lat="49.2339" lon="3.77727">
        <ele>91.46</ele>
        <time>2021-08-09T08:56:07Z</time>
      </trkpt>
      <trkpt lat="49.23374" lon="3.77755">
        <ele>92.9</ele>
        <time>2021-08-09T08:56:11Z</time>
      </trkpt>
      <trkpt lat="49.23338" lon="3.77812">
        <ele>94.35</ele>
        <time>2021-08-09T08:56:20Z</time>
      </trkpt>
      <trkpt lat="49.23335" lon="3.77816">
        <ele>94.35</ele>
        <time>2021-08-09T08:56:21Z</time>
      </trkpt>
      <trkpt lat="49.23333" lon="3.77819">
        <ele>94.83</ele>
        <time>2021-08-09T08:56:22Z</time>
      </trkpt>
      <trkpt lat="49.23331" lon="3.77821">
        <ele>94.83</ele>
        <time>2021-08-09T08:56:26Z</time>
      </trkpt>
      <trkpt lat="49.23329" lon="3.77822">
        <ele>94.83</ele>
        <time>2021-08-09T08:56:44Z</time>
      </trkpt>
      <trkpt lat="49.23331" lon="3.77821">
        <ele>94.83</ele>
        <time>2021-08-09T08:57:05Z</time>
      </trkpt>
      <trkpt lat="49.23327" lon="3.77828">
        <ele>94.83</ele>
        <time>2021-08-09T08:57:11Z</time>
      </trkpt>
      <trkpt lat="49.23317" lon="3.77844">
        <ele>95.31</ele>
        <time>2021-08-09T08:57:18Z</time>
      </trkpt>
      <trkpt lat="49.23302" lon="3.77872">
        <ele>96.27</ele>
        <time>2021-08-09T08:57:27Z</time>
      </trkpt>
      <trkpt lat="49.23288" lon="3.77898">
        <ele>97.71</ele>
        <time>2021-08-09T08:57:35Z</time>
      </trkpt>
      <trkpt lat="49.23275" lon="3.77928">
        <ele>99.15</ele>
        <time>2021-08-09T08:57:43Z</time>
      </trkpt>
      <trkpt lat="49.23259" lon="3.77964">
        <ele>100.11</ele>
        <time>2021-08-09T08:57:52Z</time>
      </trkpt>
      <trkpt lat="49.23247" lon="3.77993">
        <ele>100.6</ele>
        <time>2021-08-09T08:57:59Z</time>
      </trkpt>
      <trkpt lat="49.23233" lon="3.7803">
        <ele>100.6</ele>
        <time>2021-08-09T08:58:07Z</time>
      </trkpt>
      <trkpt lat="49.23221" lon="3.78062">
        <ele>99.63</ele>
        <time>2021-08-09T08:58:13Z</time>
      </trkpt>
      <trkpt lat="49.23218" lon="3.78068">
        <ele>99.63</ele>
        <time>2021-08-09T08:58:14Z</time>
      </trkpt>
      <trkpt lat="49.23215" lon="3.78074">
        <ele>99.15</ele>
        <time>2021-08-09T08:58:15Z</time>
      </trkpt>
      <trkpt lat="49.23212" lon="3.7808">
        <ele>98.19</ele>
        <time>2021-08-09T08:58:16Z</time>
      </trkpt>
      <trkpt lat="49.23202" lon="3.78102">
        <ele>97.71</ele>
        <time>2021-08-09T08:58:19Z</time>
      </trkpt>
      <trkpt lat="49.23175" lon="3.78165">
        <ele>94.83</ele>
        <time>2021-08-09T08:58:26Z</time>
      </trkpt>
      <trkpt lat="49.23151" lon="3.7824">
        <ele>93.39</ele>
        <time>2021-08-09T08:58:33Z</time>
      </trkpt>
      <trkpt lat="49.23139" lon="3.78302">
        <ele>93.87</ele>
        <time>2021-08-09T08:58:39Z</time>
      </trkpt>
      <trkpt lat="49.23127" lon="3.78361">
        <ele>94.83</ele>
        <time>2021-08-09T08:58:46Z</time>
      </trkpt>
      <trkpt lat="49.2312" lon="3.78385">
        <ele>93.39</ele>
        <time>2021-08-09T08:58:49Z</time>
      </trkpt>
      <trkpt lat="49.23095" lon="3.78458">
        <ele>91.46</ele>
        <time>2021-08-09T08:58:57Z</time>
      </trkpt>
      <trkpt lat="49.23068" lon="3.78531">
        <ele>90.5</ele>
        <time>2021-08-09T08:59:05Z</time>
      </trkpt>
      <trkpt lat="49.23043" lon="3.78599">
        <ele>90.98</ele>
        <time>2021-08-09T08:59:13Z</time>
      </trkpt>
      <trkpt lat="49.23025" lon="3.7864">
        <ele>93.87</ele>
        <time>2021-08-09T08:59:20Z</time>
      </trkpt>
      <trkpt lat="49.23003" lon="3.78691">
        <ele>95.31</ele>
        <time>2021-08-09T08:59:30Z</time>
      </trkpt>
      <trkpt lat="49.22977" lon="3.78739">
        <ele>95.79</ele>
        <time>2021-08-09T08:59:39Z</time>
      </trkpt>
      <trkpt lat="49.22964" lon="3.78757">
        <ele>94.35</ele>
        <time>2021-08-09T08:59:43Z</time>
      </trkpt>
      <trkpt lat="49.2296" lon="3.78759">
        <ele>94.35</ele>
        <time>2021-08-09T08:59:44Z</time>
      </trkpt>
      <trkpt lat="49.22956" lon="3.7876">
        <ele>94.35</ele>
        <time>2021-08-09T08:59:45Z</time>
      </trkpt>
      <trkpt lat="49.22947" lon="3.7876">
        <ele>94.35</ele>
        <time>2021-08-09T08:59:47Z</time>
      </trkpt>
      <trkpt lat="49.2293" lon="3.78758">
        <ele>94.35</ele>
        <time>2021-08-09T08:59:51Z</time>
      </trkpt>
      <trkpt lat="49.22925" lon="3.78759">
        <ele>94.35</ele>
        <time>2021-08-09T08:59:52Z</time>
      </trkpt>
      <trkpt lat="49.22921" lon="3.7876">
        <ele>94.35</ele>
        <time>2021-08-09T08:59:53Z</time>
      </trkpt>
      <trkpt lat="49.22912" lon="3.78761">
        <ele>95.79</ele>
        <time>2021-08-09T08:59:55Z</time>
      </trkpt>
      <trkpt lat="49.22867" lon="3.78768">
        <ele>95.79</ele>
        <time>2021-08-09T09:00:05Z</time>
      </trkpt>
      <trkpt lat="49.22835" lon="3.78773">
        <ele>96.75</ele>
        <time>2021-08-09T09:00:13Z</time>
      </trkpt>
      <trkpt lat="49.22801" lon="3.78778">
        <ele>97.23</ele>
        <time>2021-08-09T09:00:23Z</time>
      </trkpt>
      <trkpt lat="49.22777" lon="3.78781">
        <ele>98.67</ele>
        <time>2021-08-09T09:00:32Z</time>
      </trkpt>
      <trkpt lat="49.22755" lon="3.78783">
        <ele>99.63</ele>
        <time>2021-08-09T09:00:41Z</time>
      </trkpt>
      <trkpt lat="49.22742" lon="3.78792">
        <ele>100.6</ele>
        <time>2021-08-09T09:00:48Z</time>
      </trkpt>
      <trkpt lat="49.22727" lon="3.78795">
        <ele>102.04</ele>
        <time>2021-08-09T09:00:55Z</time>
      </trkpt>
      <trkpt lat="49.22709" lon="3.788">
        <ele>103</ele>
        <time>2021-08-09T09:01:05Z</time>
      </trkpt>
      <trkpt lat="49.22687" lon="3.78805">
        <ele>103.96</ele>
        <time>2021-08-09T09:01:16Z</time>
      </trkpt>
      <trkpt lat="49.22669" lon="3.78811">
        <ele>104.92</ele>
        <time>2021-08-09T09:01:26Z</time>
      </trkpt>
      <trkpt lat="49.22649" lon="3.78815">
        <ele>105.88</ele>
        <time>2021-08-09T09:01:36Z</time>
      </trkpt>
      <trkpt lat="49.22638" lon="3.78817">
        <ele>105.88</ele>
        <time>2021-08-09T09:01:42Z</time>
      </trkpt>
      <trkpt lat="49.22623" lon="3.78822">
        <ele>106.84</ele>
        <time>2021-08-09T09:01:50Z</time>
      </trkpt>
      <trkpt lat="49.22603" lon="3.78827">
        <ele>107.32</ele>
        <time>2021-08-09T09:02:00Z</time>
      </trkpt>
      <trkpt lat="49.22583" lon="3.78832">
        <ele>108.77</ele>
        <time>2021-08-09T09:02:11Z</time>
      </trkpt>
      <trkpt lat="49.22564" lon="3.78836">
        <ele>109.73</ele>
        <time>2021-08-09T09:02:21Z</time>
      </trkpt>
      <trkpt lat="49.22544" lon="3.78839">
        <ele>111.17</ele>
        <time>2021-08-09T09:02:32Z</time>
      </trkpt>
      <trkpt lat="49.22518" lon="3.78845">
        <ele>112.61</ele>
        <time>2021-08-09T09:02:44Z</time>
      </trkpt>
      <trkpt lat="49.225" lon="3.78849">
        <ele>112.61</ele>
        <time>2021-08-09T09:02:53Z</time>
      </trkpt>
      <trkpt lat="49.22489" lon="3.7885">
        <ele>114.05</ele>
        <time>2021-08-09T09:02:59Z</time>
      </trkpt>
      <trkpt lat="49.22484" lon="3.78851">
        <ele>114.05</ele>
        <time>2021-08-09T09:03:02Z</time>
      </trkpt>
      <trkpt lat="49.22483" lon="3.78854">
        <ele>114.53</ele>
        <time>2021-08-09T09:03:03Z</time>
      </trkpt>
      <trkpt lat="49.22482" lon="3.78856">
        <ele>114.53</ele>
        <time>2021-08-09T09:03:04Z</time>
      </trkpt>
      <trkpt lat="49.22481" lon="3.78858">
        <ele>114.53</ele>
        <time>2021-08-09T09:03:05Z</time>
      </trkpt>
      <trkpt lat="49.2248" lon="3.7886">
        <ele>114.53</ele>
        <time>2021-08-09T09:03:06Z</time>
      </trkpt>
      <trkpt lat="49.22479" lon="3.78862">
        <ele>114.53</ele>
        <time>2021-08-09T09:03:07Z</time>
      </trkpt>
      <trkpt lat="49.22477" lon="3.78864">
        <ele>115.5</ele>
        <time>2021-08-09T09:03:08Z</time>
      </trkpt>
      <trkpt lat="49.22476" lon="3.78865">
        <ele>115.5</ele>
        <time>2021-08-09T09:03:09Z</time>
      </trkpt>
      <trkpt lat="49.22475" lon="3.78866">
        <ele>115.5</ele>
        <time>2021-08-09T09:03:10Z</time>
      </trkpt>
      <trkpt lat="49.22473" lon="3.78868">
        <ele>115.5</ele>
        <time>2021-08-09T09:03:11Z</time>
      </trkpt>
      <trkpt lat="49.22473" lon="3.78869">
        <ele>115.5</ele>
        <time>2021-08-09T09:03:12Z</time>
      </trkpt>
      <trkpt lat="49.22472" lon="3.78871">
        <ele>115.5</ele>
        <time>2021-08-09T09:03:13Z</time>
      </trkpt>
      <trkpt lat="49.22471" lon="3.78873">
        <ele>115.5</ele>
        <time>2021-08-09T09:03:14Z</time>
      </trkpt>
      <trkpt lat="49.22469" lon="3.78875">
        <ele>115.5</ele>
        <time>2021-08-09T09:03:15Z</time>
      </trkpt>
      <trkpt lat="49.22461" lon="3.7889">
        <ele>115.5</ele>
        <time>2021-08-09T09:03:21Z</time>
      </trkpt>
      <trkpt lat="49.22445" lon="3.78912">
        <ele>116.46</ele>
        <time>2021-08-09T09:03:29Z</time>
      </trkpt>
      <trkpt lat="49.22439" lon="3.78916">
        <ele>116.46</ele>
        <time>2021-08-09T09:03:31Z</time>
      </trkpt>
      <trkpt lat="49.22435" lon="3.78919">
        <ele>116.46</ele>
        <time>2021-08-09T09:03:32Z</time>
      </trkpt>
      <trkpt lat="49.22408" lon="3.78945">
        <ele>116.46</ele>
        <time>2021-08-09T09:03:40Z</time>
      </trkpt>
      <trkpt lat="49.22378" lon="3.78963">
        <ele>116.46</ele>
        <time>2021-08-09T09:03:48Z</time>
      </trkpt>
      <trkpt lat="49.2237" lon="3.78966">
        <ele>116.46</ele>
        <time>2021-08-09T09:03:50Z</time>
      </trkpt>
      <trkpt lat="49.22366" lon="3.78966">
        <ele>116.46</ele>
        <time>2021-08-09T09:03:51Z</time>
      </trkpt>
      <trkpt lat="49.22363" lon="3.78966">
        <ele>116.46</ele>
        <time>2021-08-09T09:03:52Z</time>
      </trkpt>
      <trkpt lat="49.22359" lon="3.78966">
        <ele>116.46</ele>
        <time>2021-08-09T09:03:53Z</time>
      </trkpt>
      <trkpt lat="49.22355" lon="3.78967">
        <ele>116.46</ele>
        <time>2021-08-09T09:03:54Z</time>
      </trkpt>
      <trkpt lat="49.22327" lon="3.7897">
        <ele>116.46</ele>
        <time>2021-08-09T09:04:01Z</time>
      </trkpt>
      <trkpt lat="49.22293" lon="3.78987">
        <ele>116.94</ele>
        <time>2021-08-09T09:04:10Z</time>
      </trkpt>
      <trkpt lat="49.22283" lon="3.78992">
        <ele>116.94</ele>
        <time>2021-08-09T09:04:13Z</time>
      </trkpt>
      <trkpt lat="49.22278" lon="3.78993">
        <ele>116.94</ele>
        <time>2021-08-09T09:04:14Z</time>
      </trkpt>
      <trkpt lat="49.22275" lon="3.78994">
        <ele>116.94</ele>
        <time>2021-08-09T09:04:15Z</time>
      </trkpt>
      <trkpt lat="49.22271" lon="3.78994">
        <ele>116.94</ele>
        <time>2021-08-09T09:04:16Z</time>
      </trkpt>
      <trkpt lat="49.22267" lon="3.78993">
        <ele>116.94</ele>
        <time>2021-08-09T09:04:17Z</time>
      </trkpt>
      <trkpt lat="49.2225" lon="3.7899">
        <ele>116.94</ele>
        <time>2021-08-09T09:04:21Z</time>
      </trkpt>
      <trkpt lat="49.2223" lon="3.7899">
        <ele>116.94</ele>
        <time>2021-08-09T09:04:26Z</time>
      </trkpt>
      <trkpt lat="49.22226" lon="3.78992">
        <ele>116.94</ele>
        <time>2021-08-09T09:04:27Z</time>
      </trkpt>
      <trkpt lat="49.22222" lon="3.78995">
        <ele>116.94</ele>
        <time>2021-08-09T09:04:28Z</time>
      </trkpt>
      <trkpt lat="49.22203" lon="3.79011">
        <ele>116.94</ele>
        <time>2021-08-09T09:04:33Z</time>
      </trkpt>
      <trkpt lat="49.22177" lon="3.79038">
        <ele>117.9</ele>
        <time>2021-08-09T09:04:42Z</time>
      </trkpt>
      <trkpt lat="49.22154" lon="3.79054">
        <ele>118.38</ele>
        <time>2021-08-09T09:04:50Z</time>
      </trkpt>
      <trkpt lat="49.22121" lon="3.79057">
        <ele>118.38</ele>
        <time>2021-08-09T09:04:58Z</time>
      </trkpt>
      <trkpt lat="49.22092" lon="3.79068">
        <ele>117.42</ele>
        <time>2021-08-09T09:05:06Z</time>
      </trkpt>
      <trkpt lat="49.22068" lon="3.79093">
        <ele>118.38</ele>
        <time>2021-08-09T09:05:14Z</time>
      </trkpt>
      <trkpt lat="49.22055" lon="3.79112">
        <ele>118.38</ele>
        <time>2021-08-09T09:05:21Z</time>
      </trkpt>
      <trkpt lat="49.22046" lon="3.79129">
        <ele>120.78</ele>
        <time>2021-08-09T09:05:28Z</time>
      </trkpt>
      <trkpt lat="49.22036" lon="3.79148">
        <ele>120.78</ele>
        <time>2021-08-09T09:05:35Z</time>
      </trkpt>
      <trkpt lat="49.2202" lon="3.79176">
        <ele>120.78</ele>
        <time>2021-08-09T09:05:43Z</time>
      </trkpt>
      <trkpt lat="49.22005" lon="3.79199">
        <ele>120.78</ele>
        <time>2021-08-09T09:05:50Z</time>
      </trkpt>
      <trkpt lat="49.21986" lon="3.79222">
        <ele>119.82</ele>
        <time>2021-08-09T09:05:56Z</time>
      </trkpt>
      <trkpt lat="49.21962" lon="3.7926">
        <ele>118.86</ele>
        <time>2021-08-09T09:06:03Z</time>
      </trkpt>
      <trkpt lat="49.21959" lon="3.79265">
        <ele>118.86</ele>
        <time>2021-08-09T09:06:04Z</time>
      </trkpt>
      <trkpt lat="49.2194" lon="3.79296">
        <ele>118.86</ele>
        <time>2021-08-09T09:06:11Z</time>
      </trkpt>
      <trkpt lat="49.21933" lon="3.79309">
        <ele>120.3</ele>
        <time>2021-08-09T09:06:14Z</time>
      </trkpt>
      <trkpt lat="49.21921" lon="3.79334">
        <ele>120.78</ele>
        <time>2021-08-09T09:06:20Z</time>
      </trkpt>
      <trkpt lat="49.21902" lon="3.79361">
        <ele>122.71</ele>
        <time>2021-08-09T09:06:28Z</time>
      </trkpt>
      <trkpt lat="49.21887" lon="3.79387">
        <ele>124.15</ele>
        <time>2021-08-09T09:06:36Z</time>
      </trkpt>
      <trkpt lat="49.21869" lon="3.79415">
        <ele>125.11</ele>
        <time>2021-08-09T09:06:45Z</time>
      </trkpt>
      <trkpt lat="49.21853" lon="3.7944">
        <ele>125.11</ele>
        <time>2021-08-09T09:06:52Z</time>
      </trkpt>
      <trkpt lat="49.21833" lon="3.79469">
        <ele>123.19</ele>
        <time>2021-08-09T09:06:59Z</time>
      </trkpt>
      <trkpt lat="49.21829" lon="3.79475">
        <ele>123.19</ele>
        <time>2021-08-09T09:07:00Z</time>
      </trkpt>
      <trkpt lat="49.21815" lon="3.79496">
        <ele>121.26</ele>
        <time>2021-08-09T09:07:03Z</time>
      </trkpt>
      <trkpt lat="49.21807" lon="3.79514">
        <ele>119.34</ele>
        <time>2021-08-09T09:07:05Z</time>
      </trkpt>
      <trkpt lat="49.2178" lon="3.79581">
        <ele>118.86</ele>
        <time>2021-08-09T09:07:13Z</time>
      </trkpt>
      <trkpt lat="49.2177" lon="3.79607">
        <ele>118.86</ele>
        <time>2021-08-09T09:07:17Z</time>
      </trkpt>
      <trkpt lat="49.21768" lon="3.79613">
        <ele>118.86</ele>
        <time>2021-08-09T09:07:18Z</time>
      </trkpt>
      <trkpt lat="49.21768" lon="3.7962">
        <ele>118.86</ele>
        <time>2021-08-09T09:07:19Z</time>
      </trkpt>
      <trkpt lat="49.21769" lon="3.79625">
        <ele>118.86</ele>
        <time>2021-08-09T09:07:20Z</time>
      </trkpt>
      <trkpt lat="49.2177" lon="3.7963">
        <ele>118.86</ele>
        <time>2021-08-09T09:07:21Z</time>
      </trkpt>
      <trkpt lat="49.21772" lon="3.79635">
        <ele>118.86</ele>
        <time>2021-08-09T09:07:22Z</time>
      </trkpt>
      <trkpt lat="49.21775" lon="3.7964">
        <ele>118.86</ele>
        <time>2021-08-09T09:07:23Z</time>
      </trkpt>
      <trkpt lat="49.21793" lon="3.79682">
        <ele>118.86</ele>
        <time>2021-08-09T09:07:30Z</time>
      </trkpt>
      <trkpt lat="49.21819" lon="3.79747">
        <ele>117.9</ele>
        <time>2021-08-09T09:07:39Z</time>
      </trkpt>
      <trkpt lat="49.21842" lon="3.79804">
        <ele>117.9</ele>
        <time>2021-08-09T09:07:47Z</time>
      </trkpt>
      <trkpt lat="49.21867" lon="3.79872">
        <ele>117.9</ele>
        <time>2021-08-09T09:07:57Z</time>
      </trkpt>
      <trkpt lat="49.21879" lon="3.79902">
        <ele>117.9</ele>
        <time>2021-08-09T09:08:01Z</time>
      </trkpt>
      <trkpt lat="49.21888" lon="3.79916">
        <ele>117.42</ele>
        <time>2021-08-09T09:08:03Z</time>
      </trkpt>
      <trkpt lat="49.21893" lon="3.79922">
        <ele>117.42</ele>
        <time>2021-08-09T09:08:04Z</time>
      </trkpt>
      <trkpt lat="49.21898" lon="3.79928">
        <ele>117.42</ele>
        <time>2021-08-09T09:08:05Z</time>
      </trkpt>
      <trkpt lat="49.21903" lon="3.79933">
        <ele>117.42</ele>
        <time>2021-08-09T09:08:06Z</time>
      </trkpt>
      <trkpt lat="49.21908" lon="3.79937">
        <ele>117.42</ele>
        <time>2021-08-09T09:08:07Z</time>
      </trkpt>
      <trkpt lat="49.21952" lon="3.7997">
        <ele>117.42</ele>
        <time>2021-08-09T09:08:15Z</time>
      </trkpt>
      <trkpt lat="49.21991" lon="3.80011">
        <ele>117.42</ele>
        <time>2021-08-09T09:08:23Z</time>
      </trkpt>
      <trkpt lat="49.22036" lon="3.80063">
        <ele>114.53</ele>
        <time>2021-08-09T09:08:31Z</time>
      </trkpt>
      <trkpt lat="49.22085" lon="3.80136">
        <ele>112.61</ele>
        <time>2021-08-09T09:08:40Z</time>
      </trkpt>
      <trkpt lat="49.22134" lon="3.80202">
        <ele>111.17</ele>
        <time>2021-08-09T09:08:48Z</time>
      </trkpt>
      <trkpt lat="49.22185" lon="3.80266">
        <ele>108.29</ele>
        <time>2021-08-09T09:08:56Z</time>
      </trkpt>
      <trkpt lat="49.2224" lon="3.80318">
        <ele>108.29</ele>
        <time>2021-08-09T09:09:04Z</time>
      </trkpt>
      <trkpt lat="49.22248" lon="3.80322">
        <ele>108.29</ele>
        <time>2021-08-09T09:09:05Z</time>
      </trkpt>
      <trkpt lat="49.22255" lon="3.80325">
        <ele>108.29</ele>
        <time>2021-08-09T09:09:06Z</time>
      </trkpt>
      <trkpt lat="49.22307" lon="3.80335">
        <ele>107.32</ele>
        <time>2021-08-09T09:09:13Z</time>
      </trkpt>
      <trkpt lat="49.22335" lon="3.80341">
        <ele>106.36</ele>
        <time>2021-08-09T09:09:17Z</time>
      </trkpt>
      <trkpt lat="49.22342" lon="3.80345">
        <ele>106.36</ele>
        <time>2021-08-09T09:09:18Z</time>
      </trkpt>
      <trkpt lat="49.22394" lon="3.80383">
        <ele>105.4</ele>
        <time>2021-08-09T09:09:26Z</time>
      </trkpt>
      <trkpt lat="49.22399" lon="3.80388">
        <ele>105.4</ele>
        <time>2021-08-09T09:09:27Z</time>
      </trkpt>
      <trkpt lat="49.22403" lon="3.80392">
        <ele>104.92</ele>
        <time>2021-08-09T09:09:28Z</time>
      </trkpt>
      <trkpt lat="49.22405" lon="3.80397">
        <ele>104.92</ele>
        <time>2021-08-09T09:09:29Z</time>
      </trkpt>
      <trkpt lat="49.22407" lon="3.80401">
        <ele>104.92</ele>
        <time>2021-08-09T09:09:30Z</time>
      </trkpt>
      <trkpt lat="49.2241" lon="3.80404">
        <ele>104.92</ele>
        <time>2021-08-09T09:09:31Z</time>
      </trkpt>
      <trkpt lat="49.22412" lon="3.80409">
        <ele>104.92</ele>
        <time>2021-08-09T09:09:32Z</time>
      </trkpt>
      <trkpt lat="49.22415" lon="3.80413">
        <ele>104.92</ele>
        <time>2021-08-09T09:09:33Z</time>
      </trkpt>
      <trkpt lat="49.22418" lon="3.80418">
        <ele>104.92</ele>
        <time>2021-08-09T09:09:34Z</time>
      </trkpt>
      <trkpt lat="49.22421" lon="3.80425">
        <ele>103.48</ele>
        <time>2021-08-09T09:09:35Z</time>
      </trkpt>
      <trkpt lat="49.22436" lon="3.80461">
        <ele>100.11</ele>
        <time>2021-08-09T09:09:39Z</time>
      </trkpt>
      <trkpt lat="49.22446" lon="3.80485">
        <ele>98.19</ele>
        <time>2021-08-09T09:09:41Z</time>
      </trkpt>
      <trkpt lat="49.22461" lon="3.80525">
        <ele>94.35</ele>
        <time>2021-08-09T09:09:44Z</time>
      </trkpt>
      <trkpt lat="49.22479" lon="3.80565">
        <ele>92.42</ele>
        <time>2021-08-09T09:09:47Z</time>
      </trkpt>
      <trkpt lat="49.22486" lon="3.80577">
        <ele>91.94</ele>
        <time>2021-08-09T09:09:48Z</time>
      </trkpt>
      <trkpt lat="49.22493" lon="3.80586">
        <ele>91.46</ele>
        <time>2021-08-09T09:09:49Z</time>
      </trkpt>
      <trkpt lat="49.22537" lon="3.80639">
        <ele>91.46</ele>
        <time>2021-08-09T09:09:55Z</time>
      </trkpt>
      <trkpt lat="49.22576" lon="3.80692">
        <ele>91.94</ele>
        <time>2021-08-09T09:10:02Z</time>
      </trkpt>
      <trkpt lat="49.22603" lon="3.80747">
        <ele>91.94</ele>
        <time>2021-08-09T09:10:09Z</time>
      </trkpt>
      <trkpt lat="49.22633" lon="3.80804">
        <ele>91.94</ele>
        <time>2021-08-09T09:10:17Z</time>
      </trkpt>
      <trkpt lat="49.22645" lon="3.80825">
        <ele>91.94</ele>
        <time>2021-08-09T09:10:21Z</time>
      </trkpt>
      <trkpt lat="49.22652" lon="3.80835">
        <ele>93.39</ele>
        <time>2021-08-09T09:10:23Z</time>
      </trkpt>
      <trkpt lat="49.22674" lon="3.80873">
        <ele>93.87</ele>
        <time>2021-08-09T09:10:31Z</time>
      </trkpt>
      <trkpt lat="49.22687" lon="3.80898">
        <ele>94.83</ele>
        <time>2021-08-09T09:10:37Z</time>
      </trkpt>
      <trkpt lat="49.22686" lon="3.80902">
        <ele>94.83</ele>
        <time>2021-08-09T09:10:38Z</time>
      </trkpt>
      <trkpt lat="49.22685" lon="3.80906">
        <ele>95.31</ele>
        <time>2021-08-09T09:10:39Z</time>
      </trkpt>
      <trkpt lat="49.22684" lon="3.80909">
        <ele>95.31</ele>
        <time>2021-08-09T09:10:40Z</time>
      </trkpt>
      <trkpt lat="49.22682" lon="3.80912">
        <ele>95.31</ele>
        <time>2021-08-09T09:10:41Z</time>
      </trkpt>
      <trkpt lat="49.2268" lon="3.80914">
        <ele>95.31</ele>
        <time>2021-08-09T09:10:42Z</time>
      </trkpt>
      <trkpt lat="49.22663" lon="3.80936">
        <ele>95.31</ele>
        <time>2021-08-09T09:10:50Z</time>
      </trkpt>
      <trkpt lat="49.22662" lon="3.80937">
        <ele>95.31</ele>
        <time>2021-08-09T09:10:51Z</time>
      </trkpt>
      <trkpt lat="49.2266" lon="3.80938">
        <ele>94.83</ele>
        <time>2021-08-09T09:10:52Z</time>
      </trkpt>
      <trkpt lat="49.22658" lon="3.8094">
        <ele>94.83</ele>
        <time>2021-08-09T09:10:53Z</time>
      </trkpt>
      <trkpt lat="49.22656" lon="3.80944">
        <ele>94.83</ele>
        <time>2021-08-09T09:10:54Z</time>
      </trkpt>
      <trkpt lat="49.22654" lon="3.80948">
        <ele>94.83</ele>
        <time>2021-08-09T09:10:55Z</time>
      </trkpt>
      <trkpt lat="49.2263" lon="3.80985">
        <ele>94.83</ele>
        <time>2021-08-09T09:11:06Z</time>
      </trkpt>
      <trkpt lat="49.2262" lon="3.81004">
        <ele>93.87</ele>
        <time>2021-08-09T09:11:12Z</time>
      </trkpt>
      <trkpt lat="49.22604" lon="3.81041">
        <ele>93.87</ele>
        <time>2021-08-09T09:11:22Z</time>
      </trkpt>
      <trkpt lat="49.22593" lon="3.81077">
        <ele>93.87</ele>
        <time>2021-08-09T09:11:31Z</time>
      </trkpt>
      <trkpt lat="49.22584" lon="3.81113">
        <ele>93.87</ele>
        <time>2021-08-09T09:11:40Z</time>
      </trkpt>
      <trkpt lat="49.22579" lon="3.81138">
        <ele>93.87</ele>
        <time>2021-08-09T09:11:47Z</time>
      </trkpt>
      <trkpt lat="49.22572" lon="3.81173">
        <ele>93.87</ele>
        <time>2021-08-09T09:11:56Z</time>
      </trkpt>
      <trkpt lat="49.22566" lon="3.81201">
        <ele>93.87</ele>
        <time>2021-08-09T09:12:03Z</time>
      </trkpt>
      <trkpt lat="49.22559" lon="3.81235">
        <ele>93.87</ele>
        <time>2021-08-09T09:12:10Z</time>
      </trkpt>
      <trkpt lat="49.22556" lon="3.81262">
        <ele>93.87</ele>
        <time>2021-08-09T09:12:15Z</time>
      </trkpt>
      <trkpt lat="49.22548" lon="3.81296">
        <ele>93.87</ele>
        <time>2021-08-09T09:12:22Z</time>
      </trkpt>
      <trkpt lat="49.22542" lon="3.81324">
        <ele>93.87</ele>
        <time>2021-08-09T09:12:28Z</time>
      </trkpt>
      <trkpt lat="49.22537" lon="3.81347">
        <ele>93.87</ele>
        <time>2021-08-09T09:12:33Z</time>
      </trkpt>
      <trkpt lat="49.22532" lon="3.81369">
        <ele>93.87</ele>
        <time>2021-08-09T09:12:38Z</time>
      </trkpt>
      <trkpt lat="49.22531" lon="3.81375">
        <ele>93.87</ele>
        <time>2021-08-09T09:12:39Z</time>
      </trkpt>
      <trkpt lat="49.22529" lon="3.8138">
        <ele>93.87</ele>
        <time>2021-08-09T09:12:40Z</time>
      </trkpt>
      <trkpt lat="49.22528" lon="3.81385">
        <ele>93.87</ele>
        <time>2021-08-09T09:12:41Z</time>
      </trkpt>
      <trkpt lat="49.22527" lon="3.81394">
        <ele>94.35</ele>
        <time>2021-08-09T09:12:46Z</time>
      </trkpt>
      <trkpt lat="49.22528" lon="3.814">
        <ele>94.35</ele>
        <time>2021-08-09T09:12:53Z</time>
      </trkpt>
      <trkpt lat="49.22527" lon="3.81401">
        <ele>95.31</ele>
        <time>2021-08-09T09:12:55Z</time>
      </trkpt>
      <trkpt lat="49.22526" lon="3.81406">
        <ele>95.79</ele>
        <time>2021-08-09T09:13:03Z</time>
      </trkpt>
      <trkpt lat="49.22526" lon="3.81412">
        <ele>95.79</ele>
        <time>2021-08-09T09:13:12Z</time>
      </trkpt>
      <trkpt lat="49.22524" lon="3.81413">
        <ele>95.79</ele>
        <time>2021-08-09T09:13:18Z</time>
      </trkpt>
      <trkpt lat="49.22521" lon="3.8142">
        <ele>95.79</ele>
        <time>2021-08-09T09:13:25Z</time>
      </trkpt>
      <trkpt lat="49.2252" lon="3.81421">
        <ele>95.79</ele>
        <time>2021-08-09T09:13:31Z</time>
      </trkpt>
      <trkpt lat="49.22518" lon="3.81423">
        <ele>96.27</ele>
        <time>2021-08-09T09:13:39Z</time>
      </trkpt>
      <trkpt lat="49.22516" lon="3.81426">
        <ele>96.27</ele>
        <time>2021-08-09T09:13:46Z</time>
      </trkpt>
      <trkpt lat="49.22516" lon="3.81425">
        <ele>95.31</ele>
        <time>2021-08-09T09:13:52Z</time>
      </trkpt>
      <trkpt lat="49.22517" lon="3.81424">
        <ele>95.31</ele>
        <time>2021-08-09T09:14:00Z</time>
      </trkpt>
      <trkpt lat="49.22517" lon="3.81423">
        <ele>95.31</ele>
        <time>2021-08-09T09:14:10Z</time>
      </trkpt>
      <trkpt lat="49.22516" lon="3.81423">
        <ele>95.31</ele>
        <time>2021-08-09T09:14:19Z</time>
      </trkpt>
      <trkpt lat="49.22515" lon="3.81426">
        <ele>95.31</ele>
        <time>2021-08-09T09:14:25Z</time>
      </trkpt>
      <trkpt lat="49.22516" lon="3.81428">
        <ele>96.75</ele>
        <time>2021-08-09T09:14:35Z</time>
      </trkpt>
      <trkpt lat="49.22516" lon="3.81433">
        <ele>96.75</ele>
        <time>2021-08-09T09:14:42Z</time>
      </trkpt>
      <trkpt lat="49.22512" lon="3.81447">
        <ele>96.75</ele>
        <time>2021-08-09T09:14:51Z</time>
      </trkpt>
      <trkpt lat="49.2251" lon="3.8146">
        <ele>96.75</ele>
        <time>2021-08-09T09:14:59Z</time>
      </trkpt>
      <trkpt lat="49.22511" lon="3.81465">
        <ele>96.75</ele>
        <time>2021-08-09T09:15:07Z</time>
      </trkpt>
      <trkpt lat="49.22511" lon="3.81465">
        <ele>96.75</ele>
        <time>2021-08-09T09:15:14Z</time>
      </trkpt>
      <trkpt lat="49.2251" lon="3.81466">
        <ele>97.23</ele>
        <time>2021-08-09T09:15:25Z</time>
      </trkpt>
      <trkpt lat="49.22508" lon="3.81466">
        <ele>97.23</ele>
        <time>2021-08-09T09:15:32Z</time>
      </trkpt>
      <trkpt lat="49.22507" lon="3.81469">
        <ele>97.23</ele>
        <time>2021-08-09T09:15:37Z</time>
      </trkpt>
      <trkpt lat="49.22507" lon="3.81472">
        <ele>97.23</ele>
        <time>2021-08-09T09:15:43Z</time>
      </trkpt>
      <trkpt lat="49.22506" lon="3.81473">
        <ele>97.23</ele>
        <time>2021-08-09T09:15:45Z</time>
      </trkpt>
      <trkpt lat="49.22506" lon="3.81473">
        <ele>97.23</ele>
        <time>2021-08-09T09:15:51Z</time>
      </trkpt>
      <trkpt lat="49.22506" lon="3.81473">
        <ele>97.23</ele>
        <time>2021-08-09T09:15:58Z</time>
      </trkpt>
      <trkpt lat="49.22512" lon="3.81475">
        <ele>97.23</ele>
        <time>2021-08-09T09:16:20Z</time>
      </trkpt>
      <trkpt lat="49.22509" lon="3.81475">
        <ele>97.23</ele>
        <time>2021-08-09T09:16:40Z</time>
      </trkpt>
      <trkpt lat="49.22507" lon="3.81477">
        <ele>97.23</ele>
        <time>2021-08-09T09:16:49Z</time>
      </trkpt>
      <trkpt lat="49.22505" lon="3.81481">
        <ele>97.23</ele>
        <time>2021-08-09T09:16:55Z</time>
      </trkpt>
      <trkpt lat="49.22505" lon="3.81483">
        <ele>97.23</ele>
        <time>2021-08-09T09:16:56Z</time>
      </trkpt>
      <trkpt lat="49.22505" lon="3.81485">
        <ele>97.23</ele>
        <time>2021-08-09T09:16:57Z</time>
      </trkpt>
      <trkpt lat="49.22504" lon="3.81488">
        <ele>97.23</ele>
        <time>2021-08-09T09:16:58Z</time>
      </trkpt>
      <trkpt lat="49.22504" lon="3.8149">
        <ele>97.71</ele>
        <time>2021-08-09T09:16:59Z</time>
      </trkpt>
      <trkpt lat="49.22503" lon="3.81493">
        <ele>97.71</ele>
        <time>2021-08-09T09:17:00Z</time>
      </trkpt>
      <trkpt lat="49.22503" lon="3.81495">
        <ele>97.71</ele>
        <time>2021-08-09T09:17:01Z</time>
      </trkpt>
      <trkpt lat="49.22502" lon="3.81497">
        <ele>97.71</ele>
        <time>2021-08-09T09:17:02Z</time>
      </trkpt>
      <trkpt lat="49.22497" lon="3.81516">
        <ele>97.71</ele>
        <time>2021-08-09T09:17:08Z</time>
      </trkpt>
      <trkpt lat="49.22495" lon="3.81526">
        <ele>96.27</ele>
        <time>2021-08-09T09:17:12Z</time>
      </trkpt>
      <trkpt lat="49.22489" lon="3.81537">
        <ele>96.27</ele>
        <time>2021-08-09T09:17:16Z</time>
      </trkpt>
      <trkpt lat="49.22478" lon="3.81543">
        <ele>95.79</ele>
        <time>2021-08-09T09:17:22Z</time>
      </trkpt>
      <trkpt lat="49.22471" lon="3.81546">
        <ele>95.31</ele>
        <time>2021-08-09T09:17:25Z</time>
      </trkpt>
      <trkpt lat="49.22462" lon="3.81546">
        <ele>95.31</ele>
        <time>2021-08-09T09:17:32Z</time>
      </trkpt>
      <trkpt lat="49.22461" lon="3.81545">
        <ele>95.31</ele>
        <time>2021-08-09T09:17:33Z</time>
      </trkpt>
      <trkpt lat="49.22459" lon="3.81544">
        <ele>95.31</ele>
        <time>2021-08-09T09:17:34Z</time>
      </trkpt>
      <trkpt lat="49.22447" lon="3.8154">
        <ele>95.31</ele>
        <time>2021-08-09T09:17:40Z</time>
      </trkpt>
      <trkpt lat="49.22435" lon="3.81541">
        <ele>95.79</ele>
        <time>2021-08-09T09:17:46Z</time>
      </trkpt>
      <trkpt lat="49.22423" lon="3.81543">
        <ele>95.79</ele>
        <time>2021-08-09T09:17:52Z</time>
      </trkpt>
      <trkpt lat="49.22421" lon="3.81543">
        <ele>95.79</ele>
        <time>2021-08-09T09:17:53Z</time>
      </trkpt>
      <trkpt lat="49.22419" lon="3.81543">
        <ele>95.79</ele>
        <time>2021-08-09T09:17:54Z</time>
      </trkpt>
      <trkpt lat="49.22416" lon="3.81544">
        <ele>95.31</ele>
        <time>2021-08-09T09:17:55Z</time>
      </trkpt>
      <trkpt lat="49.22414" lon="3.81545">
        <ele>95.31</ele>
        <time>2021-08-09T09:17:56Z</time>
      </trkpt>
      <trkpt lat="49.22412" lon="3.81547">
        <ele>95.31</ele>
        <time>2021-08-09T09:17:57Z</time>
      </trkpt>
      <trkpt lat="49.2241" lon="3.81548">
        <ele>95.31</ele>
        <time>2021-08-09T09:17:58Z</time>
      </trkpt>
      <trkpt lat="49.22409" lon="3.81549">
        <ele>95.31</ele>
        <time>2021-08-09T09:17:59Z</time>
      </trkpt>
      <trkpt lat="49.22408" lon="3.8155">
        <ele>95.79</ele>
        <time>2021-08-09T09:18:00Z</time>
      </trkpt>
      <trkpt lat="49.22396" lon="3.8156">
        <ele>95.79</ele>
        <time>2021-08-09T09:18:07Z</time>
      </trkpt>
      <trkpt lat="49.22385" lon="3.81572">
        <ele>95.79</ele>
        <time>2021-08-09T09:18:13Z</time>
      </trkpt>
      <trkpt lat="49.22379" lon="3.81574">
        <ele>95.79</ele>
        <time>2021-08-09T09:18:18Z</time>
      </trkpt>
      <trkpt lat="49.22378" lon="3.81574">
        <ele>95.79</ele>
        <time>2021-08-09T09:18:19Z</time>
      </trkpt>
      <trkpt lat="49.22367" lon="3.81586">
        <ele>95.31</ele>
        <time>2021-08-09T09:18:26Z</time>
      </trkpt>
      <trkpt lat="49.22359" lon="3.816">
        <ele>95.31</ele>
        <time>2021-08-09T09:18:31Z</time>
      </trkpt>
      <trkpt lat="49.22354" lon="3.81619">
        <ele>95.31</ele>
        <time>2021-08-09T09:18:36Z</time>
      </trkpt>
      <trkpt lat="49.22353" lon="3.81622">
        <ele>95.31</ele>
        <time>2021-08-09T09:18:37Z</time>
      </trkpt>
      <trkpt lat="49.22352" lon="3.81626">
        <ele>95.31</ele>
        <time>2021-08-09T09:18:38Z</time>
      </trkpt>
      <trkpt lat="49.22353" lon="3.8163">
        <ele>95.31</ele>
        <time>2021-08-09T09:18:39Z</time>
      </trkpt>
      <trkpt lat="49.22353" lon="3.81633">
        <ele>95.31</ele>
        <time>2021-08-09T09:18:40Z</time>
      </trkpt>
      <trkpt lat="49.22354" lon="3.81636">
        <ele>95.31</ele>
        <time>2021-08-09T09:18:41Z</time>
      </trkpt>
      <trkpt lat="49.22354" lon="3.81647">
        <ele>95.31</ele>
        <time>2021-08-09T09:18:45Z</time>
      </trkpt>
      <trkpt lat="49.22355" lon="3.81649">
        <ele>95.31</ele>
        <time>2021-08-09T09:18:46Z</time>
      </trkpt>
      <trkpt lat="49.22356" lon="3.81651">
        <ele>95.31</ele>
        <time>2021-08-09T09:18:47Z</time>
      </trkpt>
      <trkpt lat="49.22357" lon="3.81652">
        <ele>95.31</ele>
        <time>2021-08-09T09:18:48Z</time>
      </trkpt>
      <trkpt lat="49.22358" lon="3.81654">
        <ele>95.31</ele>
        <time>2021-08-09T09:18:49Z</time>
      </trkpt>
      <trkpt lat="49.22358" lon="3.81657">
        <ele>95.31</ele>
        <time>2021-08-09T09:18:50Z</time>
      </trkpt>
      <trkpt lat="49.22357" lon="3.8166">
        <ele>95.31</ele>
        <time>2021-08-09T09:18:51Z</time>
      </trkpt>
      <trkpt lat="49.22357" lon="3.81666">
        <ele>95.31</ele>
        <time>2021-08-09T09:18:53Z</time>
      </trkpt>
      <trkpt lat="49.22358" lon="3.81669">
        <ele>95.31</ele>
        <time>2021-08-09T09:18:54Z</time>
      </trkpt>
      <trkpt lat="49.22359" lon="3.81672">
        <ele>95.31</ele>
        <time>2021-08-09T09:18:55Z</time>
      </trkpt>
      <trkpt lat="49.22359" lon="3.81674">
        <ele>95.31</ele>
        <time>2021-08-09T09:18:56Z</time>
      </trkpt>
      <trkpt lat="49.2236" lon="3.81678">
        <ele>95.31</ele>
        <time>2021-08-09T09:18:57Z</time>
      </trkpt>
      <trkpt lat="49.2236" lon="3.81682">
        <ele>95.31</ele>
        <time>2021-08-09T09:18:58Z</time>
      </trkpt>
      <trkpt lat="49.22361" lon="3.81685">
        <ele>95.31</ele>
        <time>2021-08-09T09:18:59Z</time>
      </trkpt>
      <trkpt lat="49.22362" lon="3.81689">
        <ele>95.31</ele>
        <time>2021-08-09T09:19:00Z</time>
      </trkpt>
      <trkpt lat="49.22366" lon="3.8171">
        <ele>95.31</ele>
        <time>2021-08-09T09:19:07Z</time>
      </trkpt>
      <trkpt lat="49.22369" lon="3.81732">
        <ele>95.31</ele>
        <time>2021-08-09T09:19:14Z</time>
      </trkpt>
      <trkpt lat="49.22369" lon="3.81738">
        <ele>95.31</ele>
        <time>2021-08-09T09:19:16Z</time>
      </trkpt>
      <trkpt lat="49.2237" lon="3.81741">
        <ele>95.31</ele>
        <time>2021-08-09T09:19:17Z</time>
      </trkpt>
      <trkpt lat="49.2237" lon="3.81744">
        <ele>95.31</ele>
        <time>2021-08-09T09:19:18Z</time>
      </trkpt>
      <trkpt lat="49.22371" lon="3.81746">
        <ele>95.31</ele>
        <time>2021-08-09T09:19:19Z</time>
      </trkpt>
      <trkpt lat="49.22371" lon="3.81749">
        <ele>95.31</ele>
        <time>2021-08-09T09:19:20Z</time>
      </trkpt>
      <trkpt lat="49.2237" lon="3.81752">
        <ele>95.31</ele>
        <time>2021-08-09T09:19:21Z</time>
      </trkpt>
      <trkpt lat="49.2237" lon="3.81755">
        <ele>95.31</ele>
        <time>2021-08-09T09:19:22Z</time>
      </trkpt>
      <trkpt lat="49.2237" lon="3.81758">
        <ele>95.31</ele>
        <time>2021-08-09T09:19:23Z</time>
      </trkpt>
      <trkpt lat="49.22371" lon="3.81761">
        <ele>96.75</ele>
        <time>2021-08-09T09:19:24Z</time>
      </trkpt>
      <trkpt lat="49.22371" lon="3.81763">
        <ele>96.75</ele>
        <time>2021-08-09T09:19:25Z</time>
      </trkpt>
      <trkpt lat="49.2237" lon="3.81765">
        <ele>97.23</ele>
        <time>2021-08-09T09:19:26Z</time>
      </trkpt>
      <trkpt lat="49.22371" lon="3.81767">
        <ele>97.23</ele>
        <time>2021-08-09T09:19:27Z</time>
      </trkpt>
      <trkpt lat="49.22371" lon="3.81769">
        <ele>97.23</ele>
        <time>2021-08-09T09:19:28Z</time>
      </trkpt>
      <trkpt lat="49.2237" lon="3.81771">
        <ele>97.71</ele>
        <time>2021-08-09T09:19:29Z</time>
      </trkpt>
      <trkpt lat="49.2237" lon="3.81773">
        <ele>97.71</ele>
        <time>2021-08-09T09:19:30Z</time>
      </trkpt>
      <trkpt lat="49.22369" lon="3.81775">
        <ele>97.71</ele>
        <time>2021-08-09T09:19:31Z</time>
      </trkpt>
      <trkpt lat="49.22368" lon="3.81777">
        <ele>97.71</ele>
        <time>2021-08-09T09:19:32Z</time>
      </trkpt>
      <trkpt lat="49.22368" lon="3.81779">
        <ele>97.71</ele>
        <time>2021-08-09T09:19:33Z</time>
      </trkpt>
      <trkpt lat="49.22368" lon="3.81781">
        <ele>97.71</ele>
        <time>2021-08-09T09:19:34Z</time>
      </trkpt>
      <trkpt lat="49.22368" lon="3.81785">
        <ele>97.71</ele>
        <time>2021-08-09T09:19:35Z</time>
      </trkpt>
      <trkpt lat="49.2237" lon="3.81788">
        <ele>96.75</ele>
        <time>2021-08-09T09:19:36Z</time>
      </trkpt>
      <trkpt lat="49.22371" lon="3.81791">
        <ele>96.75</ele>
        <time>2021-08-09T09:19:37Z</time>
      </trkpt>
      <trkpt lat="49.22372" lon="3.81793">
        <ele>96.75</ele>
        <time>2021-08-09T09:19:38Z</time>
      </trkpt>
      <trkpt lat="49.22374" lon="3.81794">
        <ele>96.75</ele>
        <time>2021-08-09T09:19:39Z</time>
      </trkpt>
      <trkpt lat="49.22375" lon="3.81796">
        <ele>96.75</ele>
        <time>2021-08-09T09:19:40Z</time>
      </trkpt>
      <trkpt lat="49.22376" lon="3.81798">
        <ele>96.75</ele>
        <time>2021-08-09T09:19:41Z</time>
      </trkpt>
      <trkpt lat="49.22377" lon="3.81799">
        <ele>96.75</ele>
        <time>2021-08-09T09:19:42Z</time>
      </trkpt>
      <trkpt lat="49.22378" lon="3.81801">
        <ele>97.71</ele>
        <time>2021-08-09T09:19:43Z</time>
      </trkpt>
      <trkpt lat="49.22379" lon="3.81802">
        <ele>97.71</ele>
        <time>2021-08-09T09:19:44Z</time>
      </trkpt>
      <trkpt lat="49.2238" lon="3.81804">
        <ele>97.71</ele>
        <time>2021-08-09T09:19:45Z</time>
      </trkpt>
      <trkpt lat="49.22382" lon="3.81806">
        <ele>97.71</ele>
        <time>2021-08-09T09:19:46Z</time>
      </trkpt>
      <trkpt lat="49.22383" lon="3.81808">
        <ele>97.71</ele>
        <time>2021-08-09T09:19:47Z</time>
      </trkpt>
      <trkpt lat="49.22384" lon="3.8181">
        <ele>97.71</ele>
        <time>2021-08-09T09:19:48Z</time>
      </trkpt>
      <trkpt lat="49.22385" lon="3.81811">
        <ele>97.71</ele>
        <time>2021-08-09T09:19:49Z</time>
      </trkpt>
      <trkpt lat="49.22386" lon="3.81813">
        <ele>97.71</ele>
        <time>2021-08-09T09:19:50Z</time>
      </trkpt>
      <trkpt lat="49.22387" lon="3.81815">
        <ele>97.71</ele>
        <time>2021-08-09T09:19:51Z</time>
      </trkpt>
      <trkpt lat="49.22388" lon="3.81817">
        <ele>98.67</ele>
        <time>2021-08-09T09:19:52Z</time>
      </trkpt>
      <trkpt lat="49.22389" lon="3.81819">
        <ele>98.67</ele>
        <time>2021-08-09T09:19:53Z</time>
      </trkpt>
      <trkpt lat="49.22392" lon="3.81828">
        <ele>99.15</ele>
        <time>2021-08-09T09:19:59Z</time>
      </trkpt>
      <trkpt lat="49.22386" lon="3.81842">
        <ele>99.15</ele>
        <time>2021-08-09T09:20:06Z</time>
      </trkpt>
      <trkpt lat="49.22382" lon="3.81846">
        <ele>99.15</ele>
        <time>2021-08-09T09:20:08Z</time>
      </trkpt>
      <trkpt lat="49.22379" lon="3.81846">
        <ele>99.15</ele>
        <time>2021-08-09T09:20:09Z</time>
      </trkpt>
      <trkpt lat="49.22377" lon="3.81846">
        <ele>99.15</ele>
        <time>2021-08-09T09:20:10Z</time>
      </trkpt>
      <trkpt lat="49.22374" lon="3.81845">
        <ele>99.15</ele>
        <time>2021-08-09T09:20:11Z</time>
      </trkpt>
      <trkpt lat="49.22373" lon="3.81844">
        <ele>99.15</ele>
        <time>2021-08-09T09:20:12Z</time>
      </trkpt>
      <trkpt lat="49.22371" lon="3.81843">
        <ele>99.15</ele>
        <time>2021-08-09T09:20:13Z</time>
      </trkpt>
      <trkpt lat="49.22362" lon="3.81851">
        <ele>99.15</ele>
        <time>2021-08-09T09:20:22Z</time>
      </trkpt>
      <trkpt lat="49.22362" lon="3.81862">
        <ele>99.15</ele>
        <time>2021-08-09T09:20:23Z</time>
      </trkpt>
      <trkpt lat="49.22352" lon="3.81913">
        <ele>99.15</ele>
        <time>2021-08-09T09:20:29Z</time>
      </trkpt>
      <trkpt lat="49.22334" lon="3.81953">
        <ele>99.15</ele>
        <time>2021-08-09T09:20:38Z</time>
      </trkpt>
      <trkpt lat="49.2233" lon="3.81956">
        <ele>99.15</ele>
        <time>2021-08-09T09:20:40Z</time>
      </trkpt>
      <trkpt lat="49.22319" lon="3.81951">
        <ele>99.15</ele>
        <time>2021-08-09T09:20:44Z</time>
      </trkpt>
      <trkpt lat="49.22315" lon="3.81948">
        <ele>97.71</ele>
        <time>2021-08-09T09:20:45Z</time>
      </trkpt>
      <trkpt lat="49.22311" lon="3.81945">
        <ele>97.71</ele>
        <time>2021-08-09T09:20:46Z</time>
      </trkpt>
      <trkpt lat="49.22296" lon="3.81931">
        <ele>97.23</ele>
        <time>2021-08-09T09:20:50Z</time>
      </trkpt>
      <trkpt lat="49.22289" lon="3.81922">
        <ele>97.23</ele>
        <time>2021-08-09T09:20:52Z</time>
      </trkpt>
      <trkpt lat="49.22285" lon="3.81918">
        <ele>97.23</ele>
        <time>2021-08-09T09:20:53Z</time>
      </trkpt>
      <trkpt lat="49.22251" lon="3.8189">
        <ele>94.83</ele>
        <time>2021-08-09T09:21:01Z</time>
      </trkpt>
      <trkpt lat="49.22247" lon="3.81886">
        <ele>94.83</ele>
        <time>2021-08-09T09:21:02Z</time>
      </trkpt>
      <trkpt lat="49.22243" lon="3.81882">
        <ele>94.83</ele>
        <time>2021-08-09T09:21:03Z</time>
      </trkpt>
      <trkpt lat="49.22231" lon="3.8187">
        <ele>94.35</ele>
        <time>2021-08-09T09:21:06Z</time>
      </trkpt>
      <trkpt lat="49.22227" lon="3.81866">
        <ele>94.35</ele>
        <time>2021-08-09T09:21:07Z</time>
      </trkpt>
      <trkpt lat="49.22222" lon="3.81862">
        <ele>94.35</ele>
        <time>2021-08-09T09:21:08Z</time>
      </trkpt>
      <trkpt lat="49.2221" lon="3.81852">
        <ele>94.35</ele>
        <time>2021-08-09T09:21:11Z</time>
      </trkpt>
      <trkpt lat="49.22207" lon="3.81848">
        <ele>94.35</ele>
        <time>2021-08-09T09:21:12Z</time>
      </trkpt>
      <trkpt lat="49.22203" lon="3.81844">
        <ele>95.79</ele>
        <time>2021-08-09T09:21:13Z</time>
      </trkpt>
      <trkpt lat="49.222" lon="3.81841">
        <ele>95.79</ele>
        <time>2021-08-09T09:21:14Z</time>
      </trkpt>
      <trkpt lat="49.22164" lon="3.81814">
        <ele>96.27</ele>
        <time>2021-08-09T09:21:24Z</time>
      </trkpt>
      <trkpt lat="49.22145" lon="3.81816">
        <ele>97.71</ele>
        <time>2021-08-09T09:21:29Z</time>
      </trkpt>
      <trkpt lat="49.22138" lon="3.81821">
        <ele>97.71</ele>
        <time>2021-08-09T09:21:31Z</time>
      </trkpt>
      <trkpt lat="49.22135" lon="3.81824">
        <ele>97.71</ele>
        <time>2021-08-09T09:21:32Z</time>
      </trkpt>
      <trkpt lat="49.22101" lon="3.81845">
        <ele>98.19</ele>
        <time>2021-08-09T09:21:41Z</time>
      </trkpt>
      <trkpt lat="49.22069" lon="3.81863">
        <ele>99.63</ele>
        <time>2021-08-09T09:21:50Z</time>
      </trkpt>
      <trkpt lat="49.22033" lon="3.8188">
        <ele>100.6</ele>
        <time>2021-08-09T09:22:02Z</time>
      </trkpt>
      <trkpt lat="49.22007" lon="3.81895">
        <ele>101.08</ele>
        <time>2021-08-09T09:22:11Z</time>
      </trkpt>
      <trkpt lat="49.21973" lon="3.81915">
        <ele>101.56</ele>
        <time>2021-08-09T09:22:22Z</time>
      </trkpt>
      <trkpt lat="49.21944" lon="3.81927">
        <ele>101.56</ele>
        <time>2021-08-09T09:22:31Z</time>
      </trkpt>
      <trkpt lat="49.21937" lon="3.81934">
        <ele>101.56</ele>
        <time>2021-08-09T09:22:34Z</time>
      </trkpt>
      <trkpt lat="49.21937" lon="3.81941">
        <ele>103</ele>
        <time>2021-08-09T09:22:36Z</time>
      </trkpt>
      <trkpt lat="49.21938" lon="3.81944">
        <ele>103</ele>
        <time>2021-08-09T09:22:37Z</time>
      </trkpt>
      <trkpt lat="49.2194" lon="3.81946">
        <ele>103</ele>
        <time>2021-08-09T09:22:38Z</time>
      </trkpt>
      <trkpt lat="49.21943" lon="3.81948">
        <ele>103</ele>
        <time>2021-08-09T09:22:39Z</time>
      </trkpt>
      <trkpt lat="49.21947" lon="3.81951">
        <ele>103</ele>
        <time>2021-08-09T09:22:40Z</time>
      </trkpt>
      <trkpt lat="49.21966" lon="3.81965">
        <ele>101.56</ele>
        <time>2021-08-09T09:22:45Z</time>
      </trkpt>
      <trkpt lat="49.2198" lon="3.81979">
        <ele>100.6</ele>
        <time>2021-08-09T09:22:48Z</time>
      </trkpt>
      <trkpt lat="49.21984" lon="3.81985">
        <ele>100.6</ele>
        <time>2021-08-09T09:22:49Z</time>
      </trkpt>
      <trkpt lat="49.21988" lon="3.81992">
        <ele>100.11</ele>
        <time>2021-08-09T09:22:50Z</time>
      </trkpt>
      <trkpt lat="49.21995" lon="3.82008">
        <ele>99.63</ele>
        <time>2021-08-09T09:22:52Z</time>
      </trkpt>
      <trkpt lat="49.22001" lon="3.82024">
        <ele>99.63</ele>
        <time>2021-08-09T09:22:54Z</time>
      </trkpt>
      <trkpt lat="49.22022" lon="3.82103">
        <ele>99.15</ele>
        <time>2021-08-09T09:23:03Z</time>
      </trkpt>
      <trkpt lat="49.22039" lon="3.82175">
        <ele>98.67</ele>
        <time>2021-08-09T09:23:11Z</time>
      </trkpt>
      <trkpt lat="49.2204" lon="3.82185">
        <ele>98.67</ele>
        <time>2021-08-09T09:23:12Z</time>
      </trkpt>
      <trkpt lat="49.2204" lon="3.82194">
        <ele>98.67</ele>
        <time>2021-08-09T09:23:13Z</time>
      </trkpt>
      <trkpt lat="49.22033" lon="3.82271">
        <ele>97.71</ele>
        <time>2021-08-09T09:23:21Z</time>
      </trkpt>
      <trkpt lat="49.22025" lon="3.8236">
        <ele>97.71</ele>
        <time>2021-08-09T09:23:31Z</time>
      </trkpt>
      <trkpt lat="49.22023" lon="3.82375">
        <ele>97.71</ele>
        <time>2021-08-09T09:23:33Z</time>
      </trkpt>
      <trkpt lat="49.22021" lon="3.82381">
        <ele>97.71</ele>
        <time>2021-08-09T09:23:34Z</time>
      </trkpt>
      <trkpt lat="49.22017" lon="3.82385">
        <ele>97.71</ele>
        <time>2021-08-09T09:23:35Z</time>
      </trkpt>
      <trkpt lat="49.22013" lon="3.82387">
        <ele>97.71</ele>
        <time>2021-08-09T09:23:36Z</time>
      </trkpt>
      <trkpt lat="49.22008" lon="3.82386">
        <ele>97.71</ele>
        <time>2021-08-09T09:23:37Z</time>
      </trkpt>
      <trkpt lat="49.22004" lon="3.82385">
        <ele>97.71</ele>
        <time>2021-08-09T09:23:38Z</time>
      </trkpt>
      <trkpt lat="49.21963" lon="3.82379">
        <ele>97.23</ele>
        <time>2021-08-09T09:23:47Z</time>
      </trkpt>
      <trkpt lat="49.21911" lon="3.82382">
        <ele>96.75</ele>
        <time>2021-08-09T09:23:57Z</time>
      </trkpt>
      <trkpt lat="49.21864" lon="3.82385">
        <ele>96.75</ele>
        <time>2021-08-09T09:24:06Z</time>
      </trkpt>
      <trkpt lat="49.21821" lon="3.82385">
        <ele>98.19</ele>
        <time>2021-08-09T09:24:15Z</time>
      </trkpt>
      <trkpt lat="49.21816" lon="3.82387">
        <ele>98.19</ele>
        <time>2021-08-09T09:24:16Z</time>
      </trkpt>
      <trkpt lat="49.21812" lon="3.82389">
        <ele>98.19</ele>
        <time>2021-08-09T09:24:17Z</time>
      </trkpt>
      <trkpt lat="49.21808" lon="3.82392">
        <ele>98.67</ele>
        <time>2021-08-09T09:24:18Z</time>
      </trkpt>
      <trkpt lat="49.21805" lon="3.82394">
        <ele>98.67</ele>
        <time>2021-08-09T09:24:19Z</time>
      </trkpt>
      <trkpt lat="49.21801" lon="3.82396">
        <ele>98.67</ele>
        <time>2021-08-09T09:24:20Z</time>
      </trkpt>
      <trkpt lat="49.21774" lon="3.82409">
        <ele>97.23</ele>
        <time>2021-08-09T09:24:27Z</time>
      </trkpt>
      <trkpt lat="49.21759" lon="3.82417">
        <ele>97.23</ele>
        <time>2021-08-09T09:24:31Z</time>
      </trkpt>
      <trkpt lat="49.21755" lon="3.8242">
        <ele>97.23</ele>
        <time>2021-08-09T09:24:32Z</time>
      </trkpt>
      <trkpt lat="49.21734" lon="3.82431">
        <ele>97.23</ele>
        <time>2021-08-09T09:24:37Z</time>
      </trkpt>
      <trkpt lat="49.21706" lon="3.82448">
        <ele>97.23</ele>
        <time>2021-08-09T09:24:44Z</time>
      </trkpt>
      <trkpt lat="49.21683" lon="3.82463">
        <ele>97.23</ele>
        <time>2021-08-09T09:24:50Z</time>
      </trkpt>
      <trkpt lat="49.21658" lon="3.82478">
        <ele>97.23</ele>
        <time>2021-08-09T09:24:57Z</time>
      </trkpt>
      <trkpt lat="49.21654" lon="3.82484">
        <ele>97.23</ele>
        <time>2021-08-09T09:25:02Z</time>
      </trkpt>
      <trkpt lat="49.2165" lon="3.82487">
        <ele>97.23</ele>
        <time>2021-08-09T09:25:10Z</time>
      </trkpt>
      <trkpt lat="49.21647" lon="3.82489">
        <ele>97.23</ele>
        <time>2021-08-09T09:25:19Z</time>
      </trkpt>
      <trkpt lat="49.21645" lon="3.82492">
        <ele>97.23</ele>
        <time>2021-08-09T09:25:27Z</time>
      </trkpt>
      <trkpt lat="49.21643" lon="3.82492">
        <ele>97.23</ele>
        <time>2021-08-09T09:25:38Z</time>
      </trkpt>
      <trkpt lat="49.21641" lon="3.82493">
        <ele>97.23</ele>
        <time>2021-08-09T09:25:40Z</time>
      </trkpt>
      <trkpt lat="49.2164" lon="3.82494">
        <ele>97.23</ele>
        <time>2021-08-09T09:25:41Z</time>
      </trkpt>
      <trkpt lat="49.21638" lon="3.82495">
        <ele>97.23</ele>
        <time>2021-08-09T09:25:42Z</time>
      </trkpt>
      <trkpt lat="49.21636" lon="3.82497">
        <ele>97.23</ele>
        <time>2021-08-09T09:25:43Z</time>
      </trkpt>
      <trkpt lat="49.21635" lon="3.82499">
        <ele>97.23</ele>
        <time>2021-08-09T09:25:44Z</time>
      </trkpt>
      <trkpt lat="49.21633" lon="3.82501">
        <ele>97.23</ele>
        <time>2021-08-09T09:25:45Z</time>
      </trkpt>
      <trkpt lat="49.21631" lon="3.82503">
        <ele>97.23</ele>
        <time>2021-08-09T09:25:46Z</time>
      </trkpt>
      <trkpt lat="49.2162" lon="3.8251">
        <ele>97.23</ele>
        <time>2021-08-09T09:25:52Z</time>
      </trkpt>
      <trkpt lat="49.21614" lon="3.82512">
        <ele>97.23</ele>
        <time>2021-08-09T09:25:58Z</time>
      </trkpt>
      <trkpt lat="49.21609" lon="3.82516">
        <ele>97.23</ele>
        <time>2021-08-09T09:26:07Z</time>
      </trkpt>
      <trkpt lat="49.21606" lon="3.82518">
        <ele>97.23</ele>
        <time>2021-08-09T09:26:09Z</time>
      </trkpt>
      <trkpt lat="49.216" lon="3.82521">
        <ele>97.23</ele>
        <time>2021-08-09T09:26:17Z</time>
      </trkpt>
      <trkpt lat="49.21598" lon="3.82522">
        <ele>98.67</ele>
        <time>2021-08-09T09:26:28Z</time>
      </trkpt>
      <trkpt lat="49.21595" lon="3.82526">
        <ele>98.67</ele>
        <time>2021-08-09T09:26:36Z</time>
      </trkpt>
      <trkpt lat="49.21594" lon="3.82527">
        <ele>98.67</ele>
        <time>2021-08-09T09:26:37Z</time>
      </trkpt>
      <trkpt lat="49.21593" lon="3.82528">
        <ele>98.67</ele>
        <time>2021-08-09T09:26:38Z</time>
      </trkpt>
      <trkpt lat="49.21586" lon="3.82533">
        <ele>98.67</ele>
        <time>2021-08-09T09:26:45Z</time>
      </trkpt>
      <trkpt lat="49.21582" lon="3.82534">
        <ele>98.67</ele>
        <time>2021-08-09T09:26:51Z</time>
      </trkpt>
      <trkpt lat="49.21578" lon="3.82537">
        <ele>98.67</ele>
        <time>2021-08-09T09:27:00Z</time>
      </trkpt>
      <trkpt lat="49.21577" lon="3.82538">
        <ele>98.67</ele>
        <time>2021-08-09T09:27:12Z</time>
      </trkpt>
      <trkpt lat="49.21579" lon="3.82536">
        <ele>98.67</ele>
        <time>2021-08-09T09:27:23Z</time>
      </trkpt>
      <trkpt lat="49.21576" lon="3.82537">
        <ele>98.67</ele>
        <time>2021-08-09T09:27:31Z</time>
      </trkpt>
      <trkpt lat="49.21573" lon="3.82541">
        <ele>98.67</ele>
        <time>2021-08-09T09:27:39Z</time>
      </trkpt>
      <trkpt lat="49.21572" lon="3.82542">
        <ele>98.67</ele>
        <time>2021-08-09T09:27:40Z</time>
      </trkpt>
      <trkpt lat="49.21566" lon="3.82549">
        <ele>98.67</ele>
        <time>2021-08-09T09:27:45Z</time>
      </trkpt>
      <trkpt lat="49.21566" lon="3.82553">
        <ele>98.67</ele>
        <time>2021-08-09T09:27:47Z</time>
      </trkpt>
      <trkpt lat="49.21564" lon="3.82565">
        <ele>98.67</ele>
        <time>2021-08-09T09:27:52Z</time>
      </trkpt>
      <trkpt lat="49.2156" lon="3.82566">
        <ele>98.67</ele>
        <time>2021-08-09T09:27:54Z</time>
      </trkpt>
      <trkpt lat="49.21549" lon="3.82572">
        <ele>98.67</ele>
        <time>2021-08-09T09:28:00Z</time>
      </trkpt>
      <trkpt lat="49.21547" lon="3.82572">
        <ele>98.67</ele>
        <time>2021-08-09T09:28:01Z</time>
      </trkpt>
      <trkpt lat="49.21541" lon="3.82571">
        <ele>98.67</ele>
        <time>2021-08-09T09:28:05Z</time>
      </trkpt>
      <trkpt lat="49.21528" lon="3.82579">
        <ele>98.67</ele>
        <time>2021-08-09T09:28:12Z</time>
      </trkpt>
      <trkpt lat="49.21515" lon="3.8259">
        <ele>98.67</ele>
        <time>2021-08-09T09:28:19Z</time>
      </trkpt>
      <trkpt lat="49.21496" lon="3.82602">
        <ele>98.67</ele>
        <time>2021-08-09T09:28:27Z</time>
      </trkpt>
      <trkpt lat="49.21475" lon="3.82616">
        <ele>98.67</ele>
        <time>2021-08-09T09:28:36Z</time>
      </trkpt>
      <trkpt lat="49.21463" lon="3.82629">
        <ele>98.67</ele>
        <time>2021-08-09T09:28:43Z</time>
      </trkpt>
      <trkpt lat="49.21448" lon="3.82639">
        <ele>99.15</ele>
        <time>2021-08-09T09:28:50Z</time>
      </trkpt>
      <trkpt lat="49.21437" lon="3.82641">
        <ele>99.15</ele>
        <time>2021-08-09T09:28:56Z</time>
      </trkpt>
      <trkpt lat="49.21424" lon="3.8265">
        <ele>99.15</ele>
        <time>2021-08-09T09:29:03Z</time>
      </trkpt>
      <trkpt lat="49.21421" lon="3.8265">
        <ele>99.15</ele>
        <time>2021-08-09T09:29:04Z</time>
      </trkpt>
      <trkpt lat="49.21419" lon="3.82651">
        <ele>99.15</ele>
        <time>2021-08-09T09:29:05Z</time>
      </trkpt>
      <trkpt lat="49.21418" lon="3.82652">
        <ele>99.15</ele>
        <time>2021-08-09T09:29:06Z</time>
      </trkpt>
      <trkpt lat="49.21416" lon="3.82653">
        <ele>99.15</ele>
        <time>2021-08-09T09:29:07Z</time>
      </trkpt>
      <trkpt lat="49.21414" lon="3.82654">
        <ele>99.15</ele>
        <time>2021-08-09T09:29:08Z</time>
      </trkpt>
      <trkpt lat="49.21412" lon="3.82656">
        <ele>99.15</ele>
        <time>2021-08-09T09:29:09Z</time>
      </trkpt>
      <trkpt lat="49.2141" lon="3.82658">
        <ele>99.63</ele>
        <time>2021-08-09T09:29:10Z</time>
      </trkpt>
      <trkpt lat="49.21408" lon="3.8266">
        <ele>99.63</ele>
        <time>2021-08-09T09:29:11Z</time>
      </trkpt>
      <trkpt lat="49.21406" lon="3.82662">
        <ele>99.63</ele>
        <time>2021-08-09T09:29:12Z</time>
      </trkpt>
      <trkpt lat="49.21405" lon="3.82664">
        <ele>99.63</ele>
        <time>2021-08-09T09:29:13Z</time>
      </trkpt>
      <trkpt lat="49.21393" lon="3.82671">
        <ele>99.63</ele>
        <time>2021-08-09T09:29:20Z</time>
      </trkpt>
      <trkpt lat="49.21391" lon="3.82672">
        <ele>99.63</ele>
        <time>2021-08-09T09:29:21Z</time>
      </trkpt>
      <trkpt lat="49.21389" lon="3.82673">
        <ele>99.63</ele>
        <time>2021-08-09T09:29:22Z</time>
      </trkpt>
      <trkpt lat="49.21387" lon="3.82674">
        <ele>99.63</ele>
        <time>2021-08-09T09:29:23Z</time>
      </trkpt>
      <trkpt lat="49.21385" lon="3.82676">
        <ele>99.63</ele>
        <time>2021-08-09T09:29:24Z</time>
      </trkpt>
      <trkpt lat="49.21383" lon="3.82677">
        <ele>99.63</ele>
        <time>2021-08-09T09:29:25Z</time>
      </trkpt>
      <trkpt lat="49.21382" lon="3.82679">
        <ele>99.63</ele>
        <time>2021-08-09T09:29:26Z</time>
      </trkpt>
      <trkpt lat="49.2136" lon="3.82694">
        <ele>99.63</ele>
        <time>2021-08-09T09:29:36Z</time>
      </trkpt>
      <trkpt lat="49.21343" lon="3.82705">
        <ele>99.63</ele>
        <time>2021-08-09T09:29:44Z</time>
      </trkpt>
      <trkpt lat="49.21323" lon="3.82718">
        <ele>99.63</ele>
        <time>2021-08-09T09:29:53Z</time>
      </trkpt>
      <trkpt lat="49.21304" lon="3.82729">
        <ele>100.11</ele>
        <time>2021-08-09T09:30:02Z</time>
      </trkpt>
      <trkpt lat="49.21288" lon="3.8274">
        <ele>100.11</ele>
        <time>2021-08-09T09:30:09Z</time>
      </trkpt>
      <trkpt lat="49.2127" lon="3.82754">
        <ele>100.11</ele>
        <time>2021-08-09T09:30:17Z</time>
      </trkpt>
      <trkpt lat="49.21253" lon="3.82768">
        <ele>100.6</ele>
        <time>2021-08-09T09:30:25Z</time>
      </trkpt>
      <trkpt lat="49.21236" lon="3.82783">
        <ele>100.11</ele>
        <time>2021-08-09T09:30:33Z</time>
      </trkpt>
      <trkpt lat="49.21234" lon="3.82784">
        <ele>100.11</ele>
        <time>2021-08-09T09:30:34Z</time>
      </trkpt>
      <trkpt lat="49.21232" lon="3.82784">
        <ele>100.11</ele>
        <time>2021-08-09T09:30:35Z</time>
      </trkpt>
      <trkpt lat="49.2123" lon="3.82785">
        <ele>100.11</ele>
        <time>2021-08-09T09:30:36Z</time>
      </trkpt>
      <trkpt lat="49.21229" lon="3.82787">
        <ele>100.11</ele>
        <time>2021-08-09T09:30:37Z</time>
      </trkpt>
      <trkpt lat="49.21227" lon="3.82789">
        <ele>100.11</ele>
        <time>2021-08-09T09:30:38Z</time>
      </trkpt>
      <trkpt lat="49.21227" lon="3.82791">
        <ele>100.11</ele>
        <time>2021-08-09T09:30:39Z</time>
      </trkpt>
      <trkpt lat="49.21226" lon="3.82793">
        <ele>100.11</ele>
        <time>2021-08-09T09:30:40Z</time>
      </trkpt>
      <trkpt lat="49.21226" lon="3.82795">
        <ele>100.11</ele>
        <time>2021-08-09T09:30:41Z</time>
      </trkpt>
      <trkpt lat="49.21225" lon="3.82796">
        <ele>100.11</ele>
        <time>2021-08-09T09:30:42Z</time>
      </trkpt>
      <trkpt lat="49.21223" lon="3.82797">
        <ele>100.11</ele>
        <time>2021-08-09T09:30:43Z</time>
      </trkpt>
      <trkpt lat="49.21222" lon="3.82797">
        <ele>100.11</ele>
        <time>2021-08-09T09:30:44Z</time>
      </trkpt>
      <trkpt lat="49.2122" lon="3.82796">
        <ele>100.11</ele>
        <time>2021-08-09T09:30:45Z</time>
      </trkpt>
      <trkpt lat="49.21219" lon="3.82795">
        <ele>100.11</ele>
        <time>2021-08-09T09:30:46Z</time>
      </trkpt>
      <trkpt lat="49.21218" lon="3.82796">
        <ele>100.11</ele>
        <time>2021-08-09T09:30:47Z</time>
      </trkpt>
      <trkpt lat="49.21216" lon="3.82796">
        <ele>100.11</ele>
        <time>2021-08-09T09:30:48Z</time>
      </trkpt>
      <trkpt lat="49.21215" lon="3.82797">
        <ele>100.11</ele>
        <time>2021-08-09T09:30:49Z</time>
      </trkpt>
      <trkpt lat="49.21213" lon="3.82798">
        <ele>100.11</ele>
        <time>2021-08-09T09:30:50Z</time>
      </trkpt>
      <trkpt lat="49.21211" lon="3.82799">
        <ele>100.11</ele>
        <time>2021-08-09T09:30:51Z</time>
      </trkpt>
      <trkpt lat="49.2121" lon="3.828">
        <ele>100.6</ele>
        <time>2021-08-09T09:30:52Z</time>
      </trkpt>
      <trkpt lat="49.21208" lon="3.82801">
        <ele>100.6</ele>
        <time>2021-08-09T09:30:53Z</time>
      </trkpt>
      <trkpt lat="49.21188" lon="3.82815">
        <ele>100.6</ele>
        <time>2021-08-09T09:31:03Z</time>
      </trkpt>
      <trkpt lat="49.21178" lon="3.82822">
        <ele>101.08</ele>
        <time>2021-08-09T09:31:09Z</time>
      </trkpt>
      <trkpt lat="49.21178" lon="3.82831">
        <ele>100.6</ele>
        <time>2021-08-09T09:31:13Z</time>
      </trkpt>
      <trkpt lat="49.21171" lon="3.82839">
        <ele>101.08</ele>
        <time>2021-08-09T09:31:19Z</time>
      </trkpt>
      <trkpt lat="49.21167" lon="3.82829">
        <ele>100.6</ele>
        <time>2021-08-09T09:31:24Z</time>
      </trkpt>
      <trkpt lat="49.21161" lon="3.82833">
        <ele>101.08</ele>
        <time>2021-08-09T09:31:29Z</time>
      </trkpt>
      <trkpt lat="49.21157" lon="3.82835">
        <ele>101.08</ele>
        <time>2021-08-09T09:31:32Z</time>
      </trkpt>
      <trkpt lat="49.21152" lon="3.82839">
        <ele>101.56</ele>
        <time>2021-08-09T09:31:35Z</time>
      </trkpt>
      <trkpt lat="49.21152" lon="3.82849">
        <ele>101.56</ele>
        <time>2021-08-09T09:31:39Z</time>
      </trkpt>
      <trkpt lat="49.21154" lon="3.82852">
        <ele>101.56</ele>
        <time>2021-08-09T09:31:40Z</time>
      </trkpt>
      <trkpt lat="49.21155" lon="3.82853">
        <ele>101.56</ele>
        <time>2021-08-09T09:31:41Z</time>
      </trkpt>
      <trkpt lat="49.21156" lon="3.82856">
        <ele>101.56</ele>
        <time>2021-08-09T09:31:42Z</time>
      </trkpt>
      <trkpt lat="49.21158" lon="3.82859">
        <ele>101.56</ele>
        <time>2021-08-09T09:31:43Z</time>
      </trkpt>
      <trkpt lat="49.21174" lon="3.82888">
        <ele>102.04</ele>
        <time>2021-08-09T09:31:53Z</time>
      </trkpt>
      <trkpt lat="49.21185" lon="3.8291">
        <ele>103.48</ele>
        <time>2021-08-09T09:32:01Z</time>
      </trkpt>
      <trkpt lat="49.21198" lon="3.82928">
        <ele>103.96</ele>
        <time>2021-08-09T09:32:08Z</time>
      </trkpt>
      <trkpt lat="49.21208" lon="3.82946">
        <ele>104.92</ele>
        <time>2021-08-09T09:32:16Z</time>
      </trkpt>
      <trkpt lat="49.21216" lon="3.82958">
        <ele>106.36</ele>
        <time>2021-08-09T09:32:24Z</time>
      </trkpt>
      <trkpt lat="49.21223" lon="3.82971">
        <ele>107.32</ele>
        <time>2021-08-09T09:32:33Z</time>
      </trkpt>
      <trkpt lat="49.21229" lon="3.82984">
        <ele>108.29</ele>
        <time>2021-08-09T09:32:42Z</time>
      </trkpt>
      <trkpt lat="49.2123" lon="3.82986">
        <ele>108.77</ele>
        <time>2021-08-09T09:32:43Z</time>
      </trkpt>
      <trkpt lat="49.21231" lon="3.82987">
        <ele>108.77</ele>
        <time>2021-08-09T09:32:44Z</time>
      </trkpt>
      <trkpt lat="49.21231" lon="3.82989">
        <ele>108.77</ele>
        <time>2021-08-09T09:32:45Z</time>
      </trkpt>
      <trkpt lat="49.21232" lon="3.8299">
        <ele>108.77</ele>
        <time>2021-08-09T09:32:46Z</time>
      </trkpt>
      <trkpt lat="49.21233" lon="3.82991">
        <ele>108.77</ele>
        <time>2021-08-09T09:32:47Z</time>
      </trkpt>
      <trkpt lat="49.21234" lon="3.82992">
        <ele>109.73</ele>
        <time>2021-08-09T09:32:48Z</time>
      </trkpt>
      <trkpt lat="49.21234" lon="3.82994">
        <ele>109.73</ele>
        <time>2021-08-09T09:32:49Z</time>
      </trkpt>
      <trkpt lat="49.21237" lon="3.82998">
        <ele>110.21</ele>
        <time>2021-08-09T09:32:52Z</time>
      </trkpt>
      <trkpt lat="49.21238" lon="3.82999">
        <ele>110.21</ele>
        <time>2021-08-09T09:32:53Z</time>
      </trkpt>
      <trkpt lat="49.21244" lon="3.83008">
        <ele>111.17</ele>
        <time>2021-08-09T09:33:00Z</time>
      </trkpt>
      <trkpt lat="49.21244" lon="3.8301">
        <ele>111.17</ele>
        <time>2021-08-09T09:33:01Z</time>
      </trkpt>
      <trkpt lat="49.21245" lon="3.83011">
        <ele>111.17</ele>
        <time>2021-08-09T09:33:02Z</time>
      </trkpt>
      <trkpt lat="49.21252" lon="3.83023">
        <ele>112.13</ele>
        <time>2021-08-09T09:33:11Z</time>
      </trkpt>
      <trkpt lat="49.21259" lon="3.83036">
        <ele>113.09</ele>
        <time>2021-08-09T09:33:20Z</time>
      </trkpt>
      <trkpt lat="49.21264" lon="3.83043">
        <ele>114.05</ele>
        <time>2021-08-09T09:33:26Z</time>
      </trkpt>
      <trkpt lat="49.21271" lon="3.83058">
        <ele>115.01</ele>
        <time>2021-08-09T09:33:36Z</time>
      </trkpt>
      <trkpt lat="49.21272" lon="3.8306">
        <ele>115.01</ele>
        <time>2021-08-09T09:33:37Z</time>
      </trkpt>
      <trkpt lat="49.21273" lon="3.83061">
        <ele>115.01</ele>
        <time>2021-08-09T09:33:38Z</time>
      </trkpt>
      <trkpt lat="49.21279" lon="3.83078">
        <ele>116.94</ele>
        <time>2021-08-09T09:33:48Z</time>
      </trkpt>
      <trkpt lat="49.21279" lon="3.8308">
        <ele>116.94</ele>
        <time>2021-08-09T09:33:49Z</time>
      </trkpt>
      <trkpt lat="49.2128" lon="3.83082">
        <ele>116.94</ele>
        <time>2021-08-09T09:33:50Z</time>
      </trkpt>
      <trkpt lat="49.21287" lon="3.83097">
        <ele>117.9</ele>
        <time>2021-08-09T09:33:59Z</time>
      </trkpt>
      <trkpt lat="49.2129" lon="3.83103">
        <ele>118.38</ele>
        <time>2021-08-09T09:34:03Z</time>
      </trkpt>
      <trkpt lat="49.21291" lon="3.83105">
        <ele>118.38</ele>
        <time>2021-08-09T09:34:04Z</time>
      </trkpt>
      <trkpt lat="49.21292" lon="3.83107">
        <ele>118.38</ele>
        <time>2021-08-09T09:34:05Z</time>
      </trkpt>
      <trkpt lat="49.21292" lon="3.8311">
        <ele>119.34</ele>
        <time>2021-08-09T09:34:06Z</time>
      </trkpt>
      <trkpt lat="49.21293" lon="3.83111">
        <ele>118.86</ele>
        <time>2021-08-09T09:34:07Z</time>
      </trkpt>
      <trkpt lat="49.21302" lon="3.83136">
        <ele>119.82</ele>
        <time>2021-08-09T09:34:19Z</time>
      </trkpt>
      <trkpt lat="49.21309" lon="3.83156">
        <ele>120.78</ele>
        <time>2021-08-09T09:34:29Z</time>
      </trkpt>
      <trkpt lat="49.21316" lon="3.83178">
        <ele>122.22</ele>
        <time>2021-08-09T09:34:40Z</time>
      </trkpt>
      <trkpt lat="49.21324" lon="3.83198">
        <ele>123.19</ele>
        <time>2021-08-09T09:34:50Z</time>
      </trkpt>
      <trkpt lat="49.21329" lon="3.83214">
        <ele>123.67</ele>
        <time>2021-08-09T09:34:58Z</time>
      </trkpt>
      <trkpt lat="49.21332" lon="3.83225">
        <ele>124.63</ele>
        <time>2021-08-09T09:35:03Z</time>
      </trkpt>
      <trkpt lat="49.21333" lon="3.83226">
        <ele>124.63</ele>
        <time>2021-08-09T09:35:04Z</time>
      </trkpt>
      <trkpt lat="49.21334" lon="3.83228">
        <ele>124.63</ele>
        <time>2021-08-09T09:35:05Z</time>
      </trkpt>
      <trkpt lat="49.21334" lon="3.8323">
        <ele>125.11</ele>
        <time>2021-08-09T09:35:06Z</time>
      </trkpt>
      <trkpt lat="49.21335" lon="3.83233">
        <ele>125.11</ele>
        <time>2021-08-09T09:35:07Z</time>
      </trkpt>
      <trkpt lat="49.21342" lon="3.83256">
        <ele>126.55</ele>
        <time>2021-08-09T09:35:18Z</time>
      </trkpt>
      <trkpt lat="49.21349" lon="3.83273">
        <ele>127.51</ele>
        <time>2021-08-09T09:35:27Z</time>
      </trkpt>
      <trkpt lat="49.21356" lon="3.83288">
        <ele>128.47</ele>
        <time>2021-08-09T09:35:35Z</time>
      </trkpt>
      <trkpt lat="49.21363" lon="3.83303">
        <ele>129.43</ele>
        <time>2021-08-09T09:35:43Z</time>
      </trkpt>
      <trkpt lat="49.21373" lon="3.83323">
        <ele>130.4</ele>
        <time>2021-08-09T09:35:53Z</time>
      </trkpt>
      <trkpt lat="49.21386" lon="3.83348">
        <ele>131.36</ele>
        <time>2021-08-09T09:36:03Z</time>
      </trkpt>
      <trkpt lat="49.21397" lon="3.83372">
        <ele>132.32</ele>
        <time>2021-08-09T09:36:12Z</time>
      </trkpt>
      <trkpt lat="49.21408" lon="3.83394">
        <ele>132.8</ele>
        <time>2021-08-09T09:36:21Z</time>
      </trkpt>
      <trkpt lat="49.21416" lon="3.8341">
        <ele>134.24</ele>
        <time>2021-08-09T09:36:28Z</time>
      </trkpt>
      <trkpt lat="49.21423" lon="3.83425">
        <ele>135.2</ele>
        <time>2021-08-09T09:36:35Z</time>
      </trkpt>
      <trkpt lat="49.2143" lon="3.8344">
        <ele>136.64</ele>
        <time>2021-08-09T09:36:43Z</time>
      </trkpt>
      <trkpt lat="49.21437" lon="3.83454">
        <ele>137.61</ele>
        <time>2021-08-09T09:36:52Z</time>
      </trkpt>
      <trkpt lat="49.21447" lon="3.83469">
        <ele>139.05</ele>
        <time>2021-08-09T09:37:02Z</time>
      </trkpt>
      <trkpt lat="49.21458" lon="3.83483">
        <ele>140.49</ele>
        <time>2021-08-09T09:37:12Z</time>
      </trkpt>
      <trkpt lat="49.21467" lon="3.8349">
        <ele>141.45</ele>
        <time>2021-08-09T09:37:20Z</time>
      </trkpt>
      <trkpt lat="49.21468" lon="3.83491">
        <ele>141.45</ele>
        <time>2021-08-09T09:37:21Z</time>
      </trkpt>
      <trkpt lat="49.21469" lon="3.83491">
        <ele>141.45</ele>
        <time>2021-08-09T09:37:22Z</time>
      </trkpt>
      <trkpt lat="49.2147" lon="3.83491">
        <ele>141.45</ele>
        <time>2021-08-09T09:37:23Z</time>
      </trkpt>
      <trkpt lat="49.21471" lon="3.83491">
        <ele>141.93</ele>
        <time>2021-08-09T09:37:24Z</time>
      </trkpt>
      <trkpt lat="49.21473" lon="3.83491">
        <ele>141.93</ele>
        <time>2021-08-09T09:37:25Z</time>
      </trkpt>
      <trkpt lat="49.21474" lon="3.83491">
        <ele>141.93</ele>
        <time>2021-08-09T09:37:26Z</time>
      </trkpt>
      <trkpt lat="49.21475" lon="3.83492">
        <ele>141.93</ele>
        <time>2021-08-09T09:37:27Z</time>
      </trkpt>
      <trkpt lat="49.2148" lon="3.83495">
        <ele>142.41</ele>
        <time>2021-08-09T09:37:31Z</time>
      </trkpt>
      <trkpt lat="49.21481" lon="3.83495">
        <ele>142.41</ele>
        <time>2021-08-09T09:37:32Z</time>
      </trkpt>
      <trkpt lat="49.21483" lon="3.83495">
        <ele>142.89</ele>
        <time>2021-08-09T09:37:33Z</time>
      </trkpt>
      <trkpt lat="49.21494" lon="3.835">
        <ele>143.37</ele>
        <time>2021-08-09T09:37:41Z</time>
      </trkpt>
      <trkpt lat="49.21508" lon="3.83508">
        <ele>145.3</ele>
        <time>2021-08-09T09:37:51Z</time>
      </trkpt>
      <trkpt lat="49.2152" lon="3.83512">
        <ele>146.26</ele>
        <time>2021-08-09T09:37:59Z</time>
      </trkpt>
      <trkpt lat="49.21535" lon="3.83518">
        <ele>148.18</ele>
        <time>2021-08-09T09:38:08Z</time>
      </trkpt>
      <trkpt lat="49.21555" lon="3.83526">
        <ele>149.62</ele>
        <time>2021-08-09T09:38:20Z</time>
      </trkpt>
      <trkpt lat="49.21572" lon="3.83534">
        <ele>150.58</ele>
        <time>2021-08-09T09:38:30Z</time>
      </trkpt>
      <trkpt lat="49.21581" lon="3.83539">
        <ele>151.06</ele>
        <time>2021-08-09T09:38:37Z</time>
      </trkpt>
      <trkpt lat="49.21581" lon="3.83539">
        <ele>151.06</ele>
        <time>2021-08-09T09:38:44Z</time>
      </trkpt>
      <trkpt lat="49.21581" lon="3.8354">
        <ele>151.54</ele>
        <time>2021-08-09T09:39:00Z</time>
      </trkpt>
      <trkpt lat="49.21581" lon="3.83541">
        <ele>151.54</ele>
        <time>2021-08-09T09:39:11Z</time>
      </trkpt>
      <trkpt lat="49.21581" lon="3.8354">
        <ele>151.54</ele>
        <time>2021-08-09T09:39:25Z</time>
      </trkpt>
      <trkpt lat="49.21581" lon="3.8354">
        <ele>151.54</ele>
        <time>2021-08-09T09:39:46Z</time>
      </trkpt>
      <trkpt lat="49.21582" lon="3.8354">
        <ele>151.54</ele>
        <time>2021-08-09T09:40:02Z</time>
      </trkpt>
      <trkpt lat="49.21584" lon="3.83541">
        <ele>151.54</ele>
        <time>2021-08-09T09:40:13Z</time>
      </trkpt>
      <trkpt lat="49.21585" lon="3.83542">
        <ele>151.54</ele>
        <time>2021-08-09T09:40:14Z</time>
      </trkpt>
      <trkpt lat="49.21586" lon="3.83543">
        <ele>151.54</ele>
        <time>2021-08-09T09:40:15Z</time>
      </trkpt>
      <trkpt lat="49.21588" lon="3.83543">
        <ele>151.54</ele>
        <time>2021-08-09T09:40:16Z</time>
      </trkpt>
      <trkpt lat="49.2159" lon="3.83545">
        <ele>151.54</ele>
        <time>2021-08-09T09:40:17Z</time>
      </trkpt>
      <trkpt lat="49.21604" lon="3.83557">
        <ele>151.54</ele>
        <time>2021-08-09T09:40:25Z</time>
      </trkpt>
      <trkpt lat="49.21619" lon="3.83572">
        <ele>149.62</ele>
        <time>2021-08-09T09:40:32Z</time>
      </trkpt>
      <trkpt lat="49.21638" lon="3.83592">
        <ele>148.66</ele>
        <time>2021-08-09T09:40:39Z</time>
      </trkpt>
      <trkpt lat="49.21648" lon="3.83604">
        <ele>147.7</ele>
        <time>2021-08-09T09:40:44Z</time>
      </trkpt>
      <trkpt lat="49.21664" lon="3.83621">
        <ele>147.22</ele>
        <time>2021-08-09T09:40:49Z</time>
      </trkpt>
      <trkpt lat="49.2169" lon="3.8365">
        <ele>144.82</ele>
        <time>2021-08-09T09:40:55Z</time>
      </trkpt>
      <trkpt lat="49.21717" lon="3.83682">
        <ele>141.93</ele>
        <time>2021-08-09T09:41:00Z</time>
      </trkpt>
      <trkpt lat="49.21765" lon="3.83738">
        <ele>139.05</ele>
        <time>2021-08-09T09:41:08Z</time>
      </trkpt>
      <trkpt lat="49.21806" lon="3.83787">
        <ele>135.68</ele>
        <time>2021-08-09T09:41:14Z</time>
      </trkpt>
      <trkpt lat="49.21836" lon="3.83822">
        <ele>132.8</ele>
        <time>2021-08-09T09:41:18Z</time>
      </trkpt>
      <trkpt lat="49.21859" lon="3.83848">
        <ele>131.36</ele>
        <time>2021-08-09T09:41:22Z</time>
      </trkpt>
      <trkpt lat="49.21874" lon="3.83864">
        <ele>129.92</ele>
        <time>2021-08-09T09:41:27Z</time>
      </trkpt>
      <trkpt lat="49.21878" lon="3.83873">
        <ele>129.43</ele>
        <time>2021-08-09T09:41:29Z</time>
      </trkpt>
      <trkpt lat="49.21878" lon="3.83877">
        <ele>129.43</ele>
        <time>2021-08-09T09:41:30Z</time>
      </trkpt>
      <trkpt lat="49.21877" lon="3.83882">
        <ele>129.43</ele>
        <time>2021-08-09T09:41:31Z</time>
      </trkpt>
      <trkpt lat="49.21871" lon="3.83909">
        <ele>129.43</ele>
        <time>2021-08-09T09:41:39Z</time>
      </trkpt>
      <trkpt lat="49.21865" lon="3.83941">
        <ele>129.43</ele>
        <time>2021-08-09T09:41:48Z</time>
      </trkpt>
      <trkpt lat="49.21858" lon="3.83981">
        <ele>129.43</ele>
        <time>2021-08-09T09:41:56Z</time>
      </trkpt>
      <trkpt lat="49.21846" lon="3.84032">
        <ele>127.99</ele>
        <time>2021-08-09T09:42:06Z</time>
      </trkpt>
      <trkpt lat="49.21834" lon="3.84083">
        <ele>126.55</ele>
        <time>2021-08-09T09:42:15Z</time>
      </trkpt>
      <trkpt lat="49.21824" lon="3.84125">
        <ele>126.55</ele>
        <time>2021-08-09T09:42:24Z</time>
      </trkpt>
      <trkpt lat="49.21816" lon="3.84159">
        <ele>126.55</ele>
        <time>2021-08-09T09:42:33Z</time>
      </trkpt>
      <trkpt lat="49.21808" lon="3.84188">
        <ele>126.55</ele>
        <time>2021-08-09T09:42:42Z</time>
      </trkpt>
      <trkpt lat="49.21801" lon="3.84215">
        <ele>127.99</ele>
        <time>2021-08-09T09:42:52Z</time>
      </trkpt>
      <trkpt lat="49.21796" lon="3.84232">
        <ele>128.95</ele>
        <time>2021-08-09T09:43:00Z</time>
      </trkpt>
      <trkpt lat="49.21789" lon="3.84256">
        <ele>130.4</ele>
        <time>2021-08-09T09:43:10Z</time>
      </trkpt>
      <trkpt lat="49.21785" lon="3.84271">
        <ele>132.32</ele>
        <time>2021-08-09T09:43:18Z</time>
      </trkpt>
      <trkpt lat="49.21783" lon="3.84279">
        <ele>132.8</ele>
        <time>2021-08-09T09:43:22Z</time>
      </trkpt>
      <trkpt lat="49.21778" lon="3.8429">
        <ele>133.76</ele>
        <time>2021-08-09T09:43:29Z</time>
      </trkpt>
      <trkpt lat="49.21775" lon="3.84299">
        <ele>134.24</ele>
        <time>2021-08-09T09:43:34Z</time>
      </trkpt>
      <trkpt lat="49.21775" lon="3.84301">
        <ele>134.72</ele>
        <time>2021-08-09T09:43:35Z</time>
      </trkpt>
      <trkpt lat="49.21772" lon="3.84319">
        <ele>136.16</ele>
        <time>2021-08-09T09:43:43Z</time>
      </trkpt>
      <trkpt lat="49.21769" lon="3.8434">
        <ele>137.13</ele>
        <time>2021-08-09T09:43:50Z</time>
      </trkpt>
      <trkpt lat="49.21764" lon="3.84368">
        <ele>136.64</ele>
        <time>2021-08-09T09:43:57Z</time>
      </trkpt>
      <trkpt lat="49.21757" lon="3.84404">
        <ele>137.13</ele>
        <time>2021-08-09T09:44:04Z</time>
      </trkpt>
      <trkpt lat="49.21745" lon="3.84458">
        <ele>135.68</ele>
        <time>2021-08-09T09:44:13Z</time>
      </trkpt>
      <trkpt lat="49.21743" lon="3.84464">
        <ele>135.68</ele>
        <time>2021-08-09T09:44:14Z</time>
      </trkpt>
      <trkpt lat="49.21728" lon="3.84526">
        <ele>131.84</ele>
        <time>2021-08-09T09:44:23Z</time>
      </trkpt>
      <trkpt lat="49.21727" lon="3.84535">
        <ele>131.84</ele>
        <time>2021-08-09T09:44:24Z</time>
      </trkpt>
      <trkpt lat="49.21705" lon="3.84604">
        <ele>128.47</ele>
        <time>2021-08-09T09:44:32Z</time>
      </trkpt>
      <trkpt lat="49.21688" lon="3.84659">
        <ele>127.03</ele>
        <time>2021-08-09T09:44:38Z</time>
      </trkpt>
      <trkpt lat="49.21676" lon="3.84714">
        <ele>126.55</ele>
        <time>2021-08-09T09:44:45Z</time>
      </trkpt>
      <trkpt lat="49.21669" lon="3.84746">
        <ele>127.03</ele>
        <time>2021-08-09T09:44:51Z</time>
      </trkpt>
      <trkpt lat="49.21667" lon="3.84769">
        <ele>127.99</ele>
        <time>2021-08-09T09:44:58Z</time>
      </trkpt>
      <trkpt lat="49.21665" lon="3.84788">
        <ele>128.95</ele>
        <time>2021-08-09T09:45:05Z</time>
      </trkpt>
      <trkpt lat="49.21661" lon="3.84817">
        <ele>130.4</ele>
        <time>2021-08-09T09:45:15Z</time>
      </trkpt>
      <trkpt lat="49.21658" lon="3.84848">
        <ele>130.4</ele>
        <time>2021-08-09T09:45:22Z</time>
      </trkpt>
      <trkpt lat="49.21655" lon="3.84894">
        <ele>127.99</ele>
        <time>2021-08-09T09:45:29Z</time>
      </trkpt>
      <trkpt lat="49.21649" lon="3.84958">
        <ele>126.07</ele>
        <time>2021-08-09T09:45:36Z</time>
      </trkpt>
      <trkpt lat="49.21644" lon="3.85021">
        <ele>125.59</ele>
        <time>2021-08-09T09:45:43Z</time>
      </trkpt>
      <trkpt lat="49.21643" lon="3.85043">
        <ele>125.59</ele>
        <time>2021-08-09T09:45:46Z</time>
      </trkpt>
      <trkpt lat="49.21643" lon="3.85049">
        <ele>125.59</ele>
        <time>2021-08-09T09:45:47Z</time>
      </trkpt>
      <trkpt lat="49.21644" lon="3.85078">
        <ele>125.59</ele>
        <time>2021-08-09T09:45:53Z</time>
      </trkpt>
      <trkpt lat="49.21643" lon="3.85109">
        <ele>125.59</ele>
        <time>2021-08-09T09:46:00Z</time>
      </trkpt>
      <trkpt lat="49.21639" lon="3.85141">
        <ele>125.59</ele>
        <time>2021-08-09T09:46:08Z</time>
      </trkpt>
      <trkpt lat="49.21633" lon="3.85166">
        <ele>126.55</ele>
        <time>2021-08-09T09:46:15Z</time>
      </trkpt>
      <trkpt lat="49.21631" lon="3.8517">
        <ele>126.55</ele>
        <time>2021-08-09T09:46:16Z</time>
      </trkpt>
      <trkpt lat="49.21621" lon="3.85201">
        <ele>126.55</ele>
        <time>2021-08-09T09:46:24Z</time>
      </trkpt>
      <trkpt lat="49.2161" lon="3.85223">
        <ele>127.03</ele>
        <time>2021-08-09T09:46:30Z</time>
      </trkpt>
      <trkpt lat="49.21606" lon="3.85247">
        <ele>127.99</ele>
        <time>2021-08-09T09:46:37Z</time>
      </trkpt>
      <trkpt lat="49.21599" lon="3.8528">
        <ele>127.99</ele>
        <time>2021-08-09T09:46:47Z</time>
      </trkpt>
      <trkpt lat="49.21598" lon="3.85304">
        <ele>128.95</ele>
        <time>2021-08-09T09:46:54Z</time>
      </trkpt>
      <trkpt lat="49.21593" lon="3.85335">
        <ele>130.4</ele>
        <time>2021-08-09T09:47:02Z</time>
      </trkpt>
      <trkpt lat="49.21585" lon="3.85371">
        <ele>130.4</ele>
        <time>2021-08-09T09:47:10Z</time>
      </trkpt>
      <trkpt lat="49.21566" lon="3.85421">
        <ele>128.95</ele>
        <time>2021-08-09T09:47:18Z</time>
      </trkpt>
      <trkpt lat="49.2156" lon="3.85432">
        <ele>128.95</ele>
        <time>2021-08-09T09:47:20Z</time>
      </trkpt>
      <trkpt lat="49.21556" lon="3.85443">
        <ele>128.47</ele>
        <time>2021-08-09T09:47:22Z</time>
      </trkpt>
      <trkpt lat="49.21553" lon="3.85448">
        <ele>128.47</ele>
        <time>2021-08-09T09:47:23Z</time>
      </trkpt>
      <trkpt lat="49.21534" lon="3.85476">
        <ele>127.99</ele>
        <time>2021-08-09T09:47:30Z</time>
      </trkpt>
      <trkpt lat="49.2151" lon="3.85473">
        <ele>127.99</ele>
        <time>2021-08-09T09:47:36Z</time>
      </trkpt>
      <trkpt lat="49.21482" lon="3.85474">
        <ele>126.55</ele>
        <time>2021-08-09T09:47:42Z</time>
      </trkpt>
      <trkpt lat="49.21477" lon="3.85476">
        <ele>126.55</ele>
        <time>2021-08-09T09:47:43Z</time>
      </trkpt>
      <trkpt lat="49.21472" lon="3.85479">
        <ele>126.55</ele>
        <time>2021-08-09T09:47:44Z</time>
      </trkpt>
      <trkpt lat="49.21468" lon="3.85482">
        <ele>126.55</ele>
        <time>2021-08-09T09:47:45Z</time>
      </trkpt>
      <trkpt lat="49.21463" lon="3.85485">
        <ele>126.07</ele>
        <time>2021-08-09T09:47:46Z</time>
      </trkpt>
      <trkpt lat="49.21459" lon="3.8549">
        <ele>126.07</ele>
        <time>2021-08-09T09:47:47Z</time>
      </trkpt>
      <trkpt lat="49.21454" lon="3.85494">
        <ele>126.07</ele>
        <time>2021-08-09T09:47:48Z</time>
      </trkpt>
      <trkpt lat="49.21449" lon="3.85499">
        <ele>126.07</ele>
        <time>2021-08-09T09:47:49Z</time>
      </trkpt>
      <trkpt lat="49.21445" lon="3.85504">
        <ele>126.07</ele>
        <time>2021-08-09T09:47:50Z</time>
      </trkpt>
      <trkpt lat="49.21441" lon="3.8551">
        <ele>125.59</ele>
        <time>2021-08-09T09:47:51Z</time>
      </trkpt>
      <trkpt lat="49.21425" lon="3.85542">
        <ele>125.59</ele>
        <time>2021-08-09T09:47:56Z</time>
      </trkpt>
      <trkpt lat="49.21419" lon="3.85556">
        <ele>126.07</ele>
        <time>2021-08-09T09:47:58Z</time>
      </trkpt>
      <trkpt lat="49.21418" lon="3.85562">
        <ele>126.07</ele>
        <time>2021-08-09T09:47:59Z</time>
      </trkpt>
      <trkpt lat="49.21413" lon="3.85581">
        <ele>126.07</ele>
        <time>2021-08-09T09:48:02Z</time>
      </trkpt>
      <trkpt lat="49.2141" lon="3.85592">
        <ele>127.51</ele>
        <time>2021-08-09T09:48:04Z</time>
      </trkpt>
      <trkpt lat="49.21397" lon="3.85633">
        <ele>128.47</ele>
        <time>2021-08-09T09:48:12Z</time>
      </trkpt>
      <trkpt lat="49.21377" lon="3.85683">
        <ele>128.95</ele>
        <time>2021-08-09T09:48:22Z</time>
      </trkpt>
      <trkpt lat="49.2136" lon="3.85715">
        <ele>130.4</ele>
        <time>2021-08-09T09:48:30Z</time>
      </trkpt>
      <trkpt lat="49.21343" lon="3.85733">
        <ele>131.36</ele>
        <time>2021-08-09T09:48:38Z</time>
      </trkpt>
      <trkpt lat="49.21325" lon="3.85755">
        <ele>132.8</ele>
        <time>2021-08-09T09:48:46Z</time>
      </trkpt>
      <trkpt lat="49.21316" lon="3.85777">
        <ele>133.76</ele>
        <time>2021-08-09T09:48:52Z</time>
      </trkpt>
      <trkpt lat="49.21314" lon="3.85797">
        <ele>133.76</ele>
        <time>2021-08-09T09:48:57Z</time>
      </trkpt>
      <trkpt lat="49.21319" lon="3.85836">
        <ele>132.32</ele>
        <time>2021-08-09T09:49:04Z</time>
      </trkpt>
      <trkpt lat="49.2132" lon="3.85842">
        <ele>132.32</ele>
        <time>2021-08-09T09:49:05Z</time>
      </trkpt>
      <trkpt lat="49.21322" lon="3.85856">
        <ele>132.32</ele>
        <time>2021-08-09T09:49:07Z</time>
      </trkpt>
      <trkpt lat="49.2133" lon="3.85909">
        <ele>131.36</ele>
        <time>2021-08-09T09:49:15Z</time>
      </trkpt>
      <trkpt lat="49.21331" lon="3.85916">
        <ele>130.88</ele>
        <time>2021-08-09T09:49:16Z</time>
      </trkpt>
      <trkpt lat="49.21333" lon="3.85923">
        <ele>130.88</ele>
        <time>2021-08-09T09:49:17Z</time>
      </trkpt>
      <trkpt lat="49.21336" lon="3.85929">
        <ele>130.88</ele>
        <time>2021-08-09T09:49:18Z</time>
      </trkpt>
      <trkpt lat="49.21339" lon="3.85935">
        <ele>130.88</ele>
        <time>2021-08-09T09:49:19Z</time>
      </trkpt>
      <trkpt lat="49.21343" lon="3.85939">
        <ele>130.88</ele>
        <time>2021-08-09T09:49:20Z</time>
      </trkpt>
      <trkpt lat="49.21347" lon="3.85944">
        <ele>130.4</ele>
        <time>2021-08-09T09:49:21Z</time>
      </trkpt>
      <trkpt lat="49.21351" lon="3.85949">
        <ele>130.4</ele>
        <time>2021-08-09T09:49:22Z</time>
      </trkpt>
      <trkpt lat="49.21355" lon="3.85954">
        <ele>130.4</ele>
        <time>2021-08-09T09:49:23Z</time>
      </trkpt>
      <trkpt lat="49.21359" lon="3.85957">
        <ele>130.4</ele>
        <time>2021-08-09T09:49:24Z</time>
      </trkpt>
      <trkpt lat="49.21363" lon="3.85961">
        <ele>130.4</ele>
        <time>2021-08-09T09:49:25Z</time>
      </trkpt>
      <trkpt lat="49.21368" lon="3.85965">
        <ele>129.92</ele>
        <time>2021-08-09T09:49:26Z</time>
      </trkpt>
      <trkpt lat="49.2139" lon="3.85984">
        <ele>129.43</ele>
        <time>2021-08-09T09:49:31Z</time>
      </trkpt>
      <trkpt lat="49.21394" lon="3.85989">
        <ele>129.43</ele>
        <time>2021-08-09T09:49:32Z</time>
      </trkpt>
      <trkpt lat="49.21398" lon="3.85996">
        <ele>129.43</ele>
        <time>2021-08-09T09:49:33Z</time>
      </trkpt>
      <trkpt lat="49.21401" lon="3.86004">
        <ele>129.43</ele>
        <time>2021-08-09T09:49:34Z</time>
      </trkpt>
      <trkpt lat="49.21403" lon="3.86013">
        <ele>129.43</ele>
        <time>2021-08-09T09:49:35Z</time>
      </trkpt>
      <trkpt lat="49.21404" lon="3.86021">
        <ele>129.43</ele>
        <time>2021-08-09T09:49:36Z</time>
      </trkpt>
      <trkpt lat="49.21405" lon="3.8603">
        <ele>128.95</ele>
        <time>2021-08-09T09:49:37Z</time>
      </trkpt>
      <trkpt lat="49.21414" lon="3.8608">
        <ele>128.95</ele>
        <time>2021-08-09T09:49:43Z</time>
      </trkpt>
      <trkpt lat="49.21415" lon="3.86089">
        <ele>128.95</ele>
        <time>2021-08-09T09:49:44Z</time>
      </trkpt>
      <trkpt lat="49.21428" lon="3.86184">
        <ele>125.59</ele>
        <time>2021-08-09T09:49:54Z</time>
      </trkpt>
      <trkpt lat="49.2143" lon="3.86196">
        <ele>125.59</ele>
        <time>2021-08-09T09:49:55Z</time>
      </trkpt>
      <trkpt lat="49.21439" lon="3.86259">
        <ele>122.71</ele>
        <time>2021-08-09T09:50:00Z</time>
      </trkpt>
      <trkpt lat="49.21448" lon="3.86315">
        <ele>120.78</ele>
        <time>2021-08-09T09:50:04Z</time>
      </trkpt>
      <trkpt lat="49.21453" lon="3.86361">
        <ele>118.86</ele>
        <time>2021-08-09T09:50:07Z</time>
      </trkpt>
      <trkpt lat="49.21453" lon="3.86375">
        <ele>118.38</ele>
        <time>2021-08-09T09:50:08Z</time>
      </trkpt>
      <trkpt lat="49.21452" lon="3.8639">
        <ele>118.38</ele>
        <time>2021-08-09T09:50:09Z</time>
      </trkpt>
      <trkpt lat="49.2145" lon="3.86404">
        <ele>118.38</ele>
        <time>2021-08-09T09:50:10Z</time>
      </trkpt>
      <trkpt lat="49.21448" lon="3.86417">
        <ele>118.38</ele>
        <time>2021-08-09T09:50:11Z</time>
      </trkpt>
      <trkpt lat="49.21438" lon="3.86459">
        <ele>120.78</ele>
        <time>2021-08-09T09:50:15Z</time>
      </trkpt>
      <trkpt lat="49.21429" lon="3.86502">
        <ele>123.67</ele>
        <time>2021-08-09T09:50:21Z</time>
      </trkpt>
      <trkpt lat="49.2142" lon="3.86545">
        <ele>125.11</ele>
        <time>2021-08-09T09:50:30Z</time>
      </trkpt>
      <trkpt lat="49.21413" lon="3.86575">
        <ele>125.59</ele>
        <time>2021-08-09T09:50:36Z</time>
      </trkpt>
      <trkpt lat="49.21405" lon="3.86609">
        <ele>126.07</ele>
        <time>2021-08-09T09:50:43Z</time>
      </trkpt>
      <trkpt lat="49.21394" lon="3.86656">
        <ele>126.55</ele>
        <time>2021-08-09T09:50:52Z</time>
      </trkpt>
      <trkpt lat="49.21384" lon="3.867">
        <ele>127.99</ele>
        <time>2021-08-09T09:51:01Z</time>
      </trkpt>
      <trkpt lat="49.21374" lon="3.86744">
        <ele>128.47</ele>
        <time>2021-08-09T09:51:10Z</time>
      </trkpt>
      <trkpt lat="49.21364" lon="3.86791">
        <ele>129.43</ele>
        <time>2021-08-09T09:51:20Z</time>
      </trkpt>
      <trkpt lat="49.21353" lon="3.86845">
        <ele>129.92</ele>
        <time>2021-08-09T09:51:31Z</time>
      </trkpt>
      <trkpt lat="49.21346" lon="3.86901">
        <ele>130.4</ele>
        <time>2021-08-09T09:51:41Z</time>
      </trkpt>
      <trkpt lat="49.21335" lon="3.86962">
        <ele>130.88</ele>
        <time>2021-08-09T09:51:51Z</time>
      </trkpt>
      <trkpt lat="49.21326" lon="3.87031">
        <ele>131.36</ele>
        <time>2021-08-09T09:52:02Z</time>
      </trkpt>
      <trkpt lat="49.21322" lon="3.87101">
        <ele>131.36</ele>
        <time>2021-08-09T09:52:12Z</time>
      </trkpt>
      <trkpt lat="49.21323" lon="3.87152">
        <ele>129.92</ele>
        <time>2021-08-09T09:52:20Z</time>
      </trkpt>
      <trkpt lat="49.21321" lon="3.87189">
        <ele>129.92</ele>
        <time>2021-08-09T09:52:25Z</time>
      </trkpt>
      <trkpt lat="49.21321" lon="3.87256">
        <ele>129.43</ele>
        <time>2021-08-09T09:52:34Z</time>
      </trkpt>
      <trkpt lat="49.2132" lon="3.87283">
        <ele>129.43</ele>
        <time>2021-08-09T09:52:38Z</time>
      </trkpt>
      <trkpt lat="49.21315" lon="3.87343">
        <ele>128.47</ele>
        <time>2021-08-09T09:52:46Z</time>
      </trkpt>
      <trkpt lat="49.21312" lon="3.87365">
        <ele>128.47</ele>
        <time>2021-08-09T09:52:49Z</time>
      </trkpt>
      <trkpt lat="49.21312" lon="3.87371">
        <ele>128.47</ele>
        <time>2021-08-09T09:52:50Z</time>
      </trkpt>
      <trkpt lat="49.21311" lon="3.87379">
        <ele>128.47</ele>
        <time>2021-08-09T09:52:51Z</time>
      </trkpt>
      <trkpt lat="49.21304" lon="3.87459">
        <ele>127.03</ele>
        <time>2021-08-09T09:53:01Z</time>
      </trkpt>
      <trkpt lat="49.21298" lon="3.87535">
        <ele>124.15</ele>
        <time>2021-08-09T09:53:08Z</time>
      </trkpt>
      <trkpt lat="49.21298" lon="3.87624">
        <ele>122.22</ele>
        <time>2021-08-09T09:53:15Z</time>
      </trkpt>
      <trkpt lat="49.21306" lon="3.8768">
        <ele>120.3</ele>
        <time>2021-08-09T09:53:19Z</time>
      </trkpt>
      <trkpt lat="49.21327" lon="3.87832">
        <ele>117.9</ele>
        <time>2021-08-09T09:53:30Z</time>
      </trkpt>
      <trkpt lat="49.21329" lon="3.87909">
        <ele>116.46</ele>
        <time>2021-08-09T09:53:36Z</time>
      </trkpt>
      <trkpt lat="49.21325" lon="3.87939">
        <ele>118.38</ele>
        <time>2021-08-09T09:53:39Z</time>
      </trkpt>
      <trkpt lat="49.21323" lon="3.87947">
        <ele>118.86</ele>
        <time>2021-08-09T09:53:40Z</time>
      </trkpt>
      <trkpt lat="49.21319" lon="3.8796">
        <ele>119.34</ele>
        <time>2021-08-09T09:53:42Z</time>
      </trkpt>
      <trkpt lat="49.21305" lon="3.88004">
        <ele>121.26</ele>
        <time>2021-08-09T09:53:50Z</time>
      </trkpt>
      <trkpt lat="49.21296" lon="3.88029">
        <ele>122.22</ele>
        <time>2021-08-09T09:53:56Z</time>
      </trkpt>
      <trkpt lat="49.21282" lon="3.88062">
        <ele>123.19</ele>
        <time>2021-08-09T09:54:05Z</time>
      </trkpt>
      <trkpt lat="49.21264" lon="3.88095">
        <ele>124.15</ele>
        <time>2021-08-09T09:54:14Z</time>
      </trkpt>
      <trkpt lat="49.21244" lon="3.88135">
        <ele>124.15</ele>
        <time>2021-08-09T09:54:24Z</time>
      </trkpt>
      <trkpt lat="49.21218" lon="3.88186">
        <ele>124.15</ele>
        <time>2021-08-09T09:54:35Z</time>
      </trkpt>
      <trkpt lat="49.212" lon="3.8823">
        <ele>125.11</ele>
        <time>2021-08-09T09:54:44Z</time>
      </trkpt>
      <trkpt lat="49.21192" lon="3.88266">
        <ele>125.11</ele>
        <time>2021-08-09T09:54:51Z</time>
      </trkpt>
      <trkpt lat="49.21192" lon="3.88297">
        <ele>126.07</ele>
        <time>2021-08-09T09:54:58Z</time>
      </trkpt>
      <trkpt lat="49.21195" lon="3.88329">
        <ele>127.03</ele>
        <time>2021-08-09T09:55:06Z</time>
      </trkpt>
      <trkpt lat="49.21201" lon="3.88358">
        <ele>127.99</ele>
        <time>2021-08-09T09:55:13Z</time>
      </trkpt>
      <trkpt lat="49.21203" lon="3.88391">
        <ele>128.47</ele>
        <time>2021-08-09T09:55:21Z</time>
      </trkpt>
      <trkpt lat="49.212" lon="3.88428">
        <ele>128.95</ele>
        <time>2021-08-09T09:55:30Z</time>
      </trkpt>
      <trkpt lat="49.21189" lon="3.88468">
        <ele>128.95</ele>
        <time>2021-08-09T09:55:38Z</time>
      </trkpt>
      <trkpt lat="49.21187" lon="3.88475">
        <ele>128.95</ele>
        <time>2021-08-09T09:55:39Z</time>
      </trkpt>
      <trkpt lat="49.21185" lon="3.88481">
        <ele>128.95</ele>
        <time>2021-08-09T09:55:40Z</time>
      </trkpt>
      <trkpt lat="49.21183" lon="3.88488">
        <ele>128.95</ele>
        <time>2021-08-09T09:55:41Z</time>
      </trkpt>
      <trkpt lat="49.21181" lon="3.88495">
        <ele>128.95</ele>
        <time>2021-08-09T09:55:42Z</time>
      </trkpt>
      <trkpt lat="49.21181" lon="3.88503">
        <ele>128.95</ele>
        <time>2021-08-09T09:55:43Z</time>
      </trkpt>
      <trkpt lat="49.21181" lon="3.8851">
        <ele>127.99</ele>
        <time>2021-08-09T09:55:44Z</time>
      </trkpt>
      <trkpt lat="49.21182" lon="3.88518">
        <ele>127.99</ele>
        <time>2021-08-09T09:55:45Z</time>
      </trkpt>
      <trkpt lat="49.21183" lon="3.88524">
        <ele>127.99</ele>
        <time>2021-08-09T09:55:46Z</time>
      </trkpt>
      <trkpt lat="49.21185" lon="3.88551">
        <ele>128.95</ele>
        <time>2021-08-09T09:55:52Z</time>
      </trkpt>
      <trkpt lat="49.21186" lon="3.88553">
        <ele>128.95</ele>
        <time>2021-08-09T09:55:53Z</time>
      </trkpt>
      <trkpt lat="49.21187" lon="3.88555">
        <ele>128.95</ele>
        <time>2021-08-09T09:55:54Z</time>
      </trkpt>
      <trkpt lat="49.21189" lon="3.88556">
        <ele>128.95</ele>
        <time>2021-08-09T09:55:55Z</time>
      </trkpt>
      <trkpt lat="49.2119" lon="3.88557">
        <ele>129.43</ele>
        <time>2021-08-09T09:56:00Z</time>
      </trkpt>
      <trkpt lat="49.21188" lon="3.8856">
        <ele>129.43</ele>
        <time>2021-08-09T09:56:06Z</time>
      </trkpt>
      <trkpt lat="49.21188" lon="3.88562">
        <ele>129.43</ele>
        <time>2021-08-09T09:56:07Z</time>
      </trkpt>
      <trkpt lat="49.21187" lon="3.88563">
        <ele>129.43</ele>
        <time>2021-08-09T09:56:08Z</time>
      </trkpt>
      <trkpt lat="49.21187" lon="3.88566">
        <ele>129.43</ele>
        <time>2021-08-09T09:56:09Z</time>
      </trkpt>
      <trkpt lat="49.21187" lon="3.88568">
        <ele>129.43</ele>
        <time>2021-08-09T09:56:10Z</time>
      </trkpt>
      <trkpt lat="49.21187" lon="3.88571">
        <ele>129.43</ele>
        <time>2021-08-09T09:56:11Z</time>
      </trkpt>
      <trkpt lat="49.21186" lon="3.88573">
        <ele>130.4</ele>
        <time>2021-08-09T09:56:12Z</time>
      </trkpt>
      <trkpt lat="49.21186" lon="3.88576">
        <ele>130.4</ele>
        <time>2021-08-09T09:56:13Z</time>
      </trkpt>
      <trkpt lat="49.21186" lon="3.8858">
        <ele>130.4</ele>
        <time>2021-08-09T09:56:14Z</time>
      </trkpt>
      <trkpt lat="49.21185" lon="3.88583">
        <ele>130.88</ele>
        <time>2021-08-09T09:56:15Z</time>
      </trkpt>
      <trkpt lat="49.21184" lon="3.88586">
        <ele>130.88</ele>
        <time>2021-08-09T09:56:16Z</time>
      </trkpt>
      <trkpt lat="49.21173" lon="3.88609">
        <ele>131.36</ele>
        <time>2021-08-09T09:56:23Z</time>
      </trkpt>
      <trkpt lat="49.21161" lon="3.88638">
        <ele>131.84</ele>
        <time>2021-08-09T09:56:31Z</time>
      </trkpt>
      <trkpt lat="49.21142" lon="3.88682">
        <ele>131.36</ele>
        <time>2021-08-09T09:56:40Z</time>
      </trkpt>
      <trkpt lat="49.21136" lon="3.887">
        <ele>131.36</ele>
        <time>2021-08-09T09:56:43Z</time>
      </trkpt>
      <trkpt lat="49.21122" lon="3.88759">
        <ele>130.4</ele>
        <time>2021-08-09T09:56:52Z</time>
      </trkpt>
      <trkpt lat="49.21112" lon="3.8882">
        <ele>129.92</ele>
        <time>2021-08-09T09:57:00Z</time>
      </trkpt>
      <trkpt lat="49.21108" lon="3.88884">
        <ele>129.92</ele>
        <time>2021-08-09T09:57:08Z</time>
      </trkpt>
      <trkpt lat="49.2111" lon="3.88906">
        <ele>129.92</ele>
        <time>2021-08-09T09:57:11Z</time>
      </trkpt>
      <trkpt lat="49.21112" lon="3.88977">
        <ele>129.92</ele>
        <time>2021-08-09T09:57:20Z</time>
      </trkpt>
      <trkpt lat="49.21114" lon="3.89032">
        <ele>129.92</ele>
        <time>2021-08-09T09:57:27Z</time>
      </trkpt>
      <trkpt lat="49.21115" lon="3.8904">
        <ele>129.43</ele>
        <time>2021-08-09T09:57:28Z</time>
      </trkpt>
      <trkpt lat="49.21118" lon="3.89109">
        <ele>129.43</ele>
        <time>2021-08-09T09:57:37Z</time>
      </trkpt>
      <trkpt lat="49.21123" lon="3.89172">
        <ele>127.99</ele>
        <time>2021-08-09T09:57:44Z</time>
      </trkpt>
      <trkpt lat="49.21129" lon="3.89212">
        <ele>127.03</ele>
        <time>2021-08-09T09:57:48Z</time>
      </trkpt>
      <trkpt lat="49.21129" lon="3.8922">
        <ele>126.55</ele>
        <time>2021-08-09T09:57:49Z</time>
      </trkpt>
      <trkpt lat="49.21128" lon="3.89229">
        <ele>126.07</ele>
        <time>2021-08-09T09:57:50Z</time>
      </trkpt>
      <trkpt lat="49.21128" lon="3.89238">
        <ele>126.55</ele>
        <time>2021-08-09T09:57:51Z</time>
      </trkpt>
      <trkpt lat="49.21129" lon="3.89246">
        <ele>126.55</ele>
        <time>2021-08-09T09:57:52Z</time>
      </trkpt>
      <trkpt lat="49.2113" lon="3.89254">
        <ele>126.55</ele>
        <time>2021-08-09T09:57:53Z</time>
      </trkpt>
      <trkpt lat="49.21132" lon="3.89259">
        <ele>126.55</ele>
        <time>2021-08-09T09:57:54Z</time>
      </trkpt>
      <trkpt lat="49.21134" lon="3.89261">
        <ele>126.55</ele>
        <time>2021-08-09T09:57:55Z</time>
      </trkpt>
      <trkpt lat="49.21136" lon="3.8926">
        <ele>126.55</ele>
        <time>2021-08-09T09:57:56Z</time>
      </trkpt>
      <trkpt lat="49.21137" lon="3.89259">
        <ele>126.55</ele>
        <time>2021-08-09T09:57:57Z</time>
      </trkpt>
      <trkpt lat="49.21138" lon="3.89257">
        <ele>126.55</ele>
        <time>2021-08-09T09:57:58Z</time>
      </trkpt>
      <trkpt lat="49.21139" lon="3.89255">
        <ele>126.55</ele>
        <time>2021-08-09T09:57:59Z</time>
      </trkpt>
      <trkpt lat="49.2114" lon="3.89254">
        <ele>126.55</ele>
        <time>2021-08-09T09:58:00Z</time>
      </trkpt>
      <trkpt lat="49.21142" lon="3.89253">
        <ele>126.55</ele>
        <time>2021-08-09T09:58:01Z</time>
      </trkpt>
      <trkpt lat="49.21144" lon="3.89253">
        <ele>126.55</ele>
        <time>2021-08-09T09:58:02Z</time>
      </trkpt>
      <trkpt lat="49.21145" lon="3.89254">
        <ele>126.55</ele>
        <time>2021-08-09T09:58:03Z</time>
      </trkpt>
      <trkpt lat="49.21145" lon="3.89257">
        <ele>127.99</ele>
        <time>2021-08-09T09:58:04Z</time>
      </trkpt>
      <trkpt lat="49.21146" lon="3.8926">
        <ele>127.99</ele>
        <time>2021-08-09T09:58:05Z</time>
      </trkpt>
      <trkpt lat="49.21147" lon="3.89263">
        <ele>127.99</ele>
        <time>2021-08-09T09:58:06Z</time>
      </trkpt>
      <trkpt lat="49.21147" lon="3.89266">
        <ele>127.99</ele>
        <time>2021-08-09T09:58:07Z</time>
      </trkpt>
      <trkpt lat="49.21148" lon="3.89269">
        <ele>127.99</ele>
        <time>2021-08-09T09:58:08Z</time>
      </trkpt>
      <trkpt lat="49.21149" lon="3.89273">
        <ele>127.99</ele>
        <time>2021-08-09T09:58:09Z</time>
      </trkpt>
      <trkpt lat="49.2115" lon="3.89278">
        <ele>127.99</ele>
        <time>2021-08-09T09:58:10Z</time>
      </trkpt>
      <trkpt lat="49.21152" lon="3.89282">
        <ele>127.99</ele>
        <time>2021-08-09T09:58:11Z</time>
      </trkpt>
      <trkpt lat="49.21153" lon="3.89287">
        <ele>128.47</ele>
        <time>2021-08-09T09:58:12Z</time>
      </trkpt>
      <trkpt lat="49.21153" lon="3.89292">
        <ele>128.47</ele>
        <time>2021-08-09T09:58:13Z</time>
      </trkpt>
      <trkpt lat="49.21154" lon="3.89296">
        <ele>128.47</ele>
        <time>2021-08-09T09:58:14Z</time>
      </trkpt>
      <trkpt lat="49.21155" lon="3.893">
        <ele>128.47</ele>
        <time>2021-08-09T09:58:15Z</time>
      </trkpt>
      <trkpt lat="49.21161" lon="3.8934">
        <ele>128.47</ele>
        <time>2021-08-09T09:58:23Z</time>
      </trkpt>
      <trkpt lat="49.21163" lon="3.89374">
        <ele>129.43</ele>
        <time>2021-08-09T09:58:30Z</time>
      </trkpt>
      <trkpt lat="49.21165" lon="3.89415">
        <ele>130.88</ele>
        <time>2021-08-09T09:58:40Z</time>
      </trkpt>
      <trkpt lat="49.21164" lon="3.89453">
        <ele>131.36</ele>
        <time>2021-08-09T09:58:49Z</time>
      </trkpt>
      <trkpt lat="49.21163" lon="3.8948">
        <ele>131.84</ele>
        <time>2021-08-09T09:58:55Z</time>
      </trkpt>
      <trkpt lat="49.21154" lon="3.89511">
        <ele>131.84</ele>
        <time>2021-08-09T09:59:01Z</time>
      </trkpt>
      <trkpt lat="49.21152" lon="3.89524">
        <ele>130.4</ele>
        <time>2021-08-09T09:59:03Z</time>
      </trkpt>
      <trkpt lat="49.2115" lon="3.89546">
        <ele>130.4</ele>
        <time>2021-08-09T09:59:07Z</time>
      </trkpt>
      <trkpt lat="49.21149" lon="3.89603">
        <ele>130.4</ele>
        <time>2021-08-09T09:59:16Z</time>
      </trkpt>
      <trkpt lat="49.21149" lon="3.89613">
        <ele>131.84</ele>
        <time>2021-08-09T09:59:18Z</time>
      </trkpt>
      <trkpt lat="49.21151" lon="3.89653">
        <ele>132.32</ele>
        <time>2021-08-09T09:59:25Z</time>
      </trkpt>
      <trkpt lat="49.21151" lon="3.89688">
        <ele>132.32</ele>
        <time>2021-08-09T09:59:32Z</time>
      </trkpt>
      <trkpt lat="49.21151" lon="3.89729">
        <ele>132.32</ele>
        <time>2021-08-09T09:59:40Z</time>
      </trkpt>
      <trkpt lat="49.21154" lon="3.89772">
        <ele>132.32</ele>
        <time>2021-08-09T09:59:47Z</time>
      </trkpt>
      <trkpt lat="49.21157" lon="3.89818">
        <ele>132.8</ele>
        <time>2021-08-09T09:59:55Z</time>
      </trkpt>
      <trkpt lat="49.21166" lon="3.89855">
        <ele>132.8</ele>
        <time>2021-08-09T10:00:02Z</time>
      </trkpt>
      <trkpt lat="49.21178" lon="3.89883">
        <ele>132.8</ele>
        <time>2021-08-09T10:00:10Z</time>
      </trkpt>
      <trkpt lat="49.21187" lon="3.899">
        <ele>132.8</ele>
        <time>2021-08-09T10:00:16Z</time>
      </trkpt>
      <trkpt lat="49.21202" lon="3.89927">
        <ele>133.28</ele>
        <time>2021-08-09T10:00:25Z</time>
      </trkpt>
      <trkpt lat="49.21218" lon="3.89954">
        <ele>134.24</ele>
        <time>2021-08-09T10:00:35Z</time>
      </trkpt>
      <trkpt lat="49.21227" lon="3.89967">
        <ele>134.24</ele>
        <time>2021-08-09T10:00:41Z</time>
      </trkpt>
      <trkpt lat="49.21236" lon="3.89984">
        <ele>134.72</ele>
        <time>2021-08-09T10:00:48Z</time>
      </trkpt>
      <trkpt lat="49.21249" lon="3.90004">
        <ele>134.72</ele>
        <time>2021-08-09T10:00:56Z</time>
      </trkpt>
      <trkpt lat="49.21257" lon="3.90024">
        <ele>135.2</ele>
        <time>2021-08-09T10:01:05Z</time>
      </trkpt>
      <trkpt lat="49.21262" lon="3.90041">
        <ele>136.16</ele>
        <time>2021-08-09T10:01:12Z</time>
      </trkpt>
      <trkpt lat="49.21272" lon="3.90062">
        <ele>136.16</ele>
        <time>2021-08-09T10:01:20Z</time>
      </trkpt>
      <trkpt lat="49.21278" lon="3.90085">
        <ele>136.16</ele>
        <time>2021-08-09T10:01:27Z</time>
      </trkpt>
      <trkpt lat="49.21285" lon="3.90117">
        <ele>136.64</ele>
        <time>2021-08-09T10:01:36Z</time>
      </trkpt>
      <trkpt lat="49.21288" lon="3.90151">
        <ele>137.13</ele>
        <time>2021-08-09T10:01:45Z</time>
      </trkpt>
      <trkpt lat="49.2129" lon="3.90182">
        <ele>137.61</ele>
        <time>2021-08-09T10:01:54Z</time>
      </trkpt>
      <trkpt lat="49.21291" lon="3.90202">
        <ele>138.57</ele>
        <time>2021-08-09T10:02:00Z</time>
      </trkpt>
      <trkpt lat="49.21293" lon="3.90235">
        <ele>139.05</ele>
        <time>2021-08-09T10:02:09Z</time>
      </trkpt>
      <trkpt lat="49.21293" lon="3.90239">
        <ele>139.05</ele>
        <time>2021-08-09T10:02:10Z</time>
      </trkpt>
      <trkpt lat="49.21296" lon="3.90279">
        <ele>140.01</ele>
        <time>2021-08-09T10:02:21Z</time>
      </trkpt>
      <trkpt lat="49.21299" lon="3.90315">
        <ele>140.97</ele>
        <time>2021-08-09T10:02:32Z</time>
      </trkpt>
      <trkpt lat="49.213" lon="3.90348">
        <ele>141.93</ele>
        <time>2021-08-09T10:02:42Z</time>
      </trkpt>
      <trkpt lat="49.21302" lon="3.90375">
        <ele>141.93</ele>
        <time>2021-08-09T10:02:50Z</time>
      </trkpt>
      <trkpt lat="49.21304" lon="3.90395">
        <ele>141.93</ele>
        <time>2021-08-09T10:02:56Z</time>
      </trkpt>
      <trkpt lat="49.21306" lon="3.90431">
        <ele>142.89</ele>
        <time>2021-08-09T10:03:06Z</time>
      </trkpt>
      <trkpt lat="49.21308" lon="3.90455">
        <ele>143.37</ele>
        <time>2021-08-09T10:03:14Z</time>
      </trkpt>
      <trkpt lat="49.21309" lon="3.9047">
        <ele>143.85</ele>
        <time>2021-08-09T10:03:19Z</time>
      </trkpt>
      <trkpt lat="49.21309" lon="3.9049">
        <ele>143.85</ele>
        <time>2021-08-09T10:03:26Z</time>
      </trkpt>
      <trkpt lat="49.21308" lon="3.90493">
        <ele>144.34</ele>
        <time>2021-08-09T10:03:32Z</time>
      </trkpt>
      <trkpt lat="49.21307" lon="3.90494">
        <ele>144.34</ele>
        <time>2021-08-09T10:03:49Z</time>
      </trkpt>
      <trkpt lat="49.21308" lon="3.90495">
        <ele>144.34</ele>
        <time>2021-08-09T10:03:59Z</time>
      </trkpt>
      <trkpt lat="49.21308" lon="3.90496">
        <ele>144.34</ele>
        <time>2021-08-09T10:04:00Z</time>
      </trkpt>
      <trkpt lat="49.21308" lon="3.90505">
        <ele>144.34</ele>
        <time>2021-08-09T10:04:09Z</time>
      </trkpt>
      <trkpt lat="49.21308" lon="3.90508">
        <ele>144.34</ele>
        <time>2021-08-09T10:04:13Z</time>
      </trkpt>
      <trkpt lat="49.21307" lon="3.90517">
        <ele>144.34</ele>
        <time>2021-08-09T10:04:17Z</time>
      </trkpt>
      <trkpt lat="49.21305" lon="3.90542">
        <ele>144.82</ele>
        <time>2021-08-09T10:04:25Z</time>
      </trkpt>
      <trkpt lat="49.21294" lon="3.90587">
        <ele>146.26</ele>
        <time>2021-08-09T10:04:37Z</time>
      </trkpt>
      <trkpt lat="49.21284" lon="3.9062">
        <ele>146.74</ele>
        <time>2021-08-09T10:04:47Z</time>
      </trkpt>
      <trkpt lat="49.21276" lon="3.90649">
        <ele>147.22</ele>
        <time>2021-08-09T10:04:56Z</time>
      </trkpt>
      <trkpt lat="49.21268" lon="3.90685">
        <ele>148.18</ele>
        <time>2021-08-09T10:05:07Z</time>
      </trkpt>
      <trkpt lat="49.2126" lon="3.90717">
        <ele>149.62</ele>
        <time>2021-08-09T10:05:16Z</time>
      </trkpt>
      <trkpt lat="49.2125" lon="3.90757">
        <ele>150.1</ele>
        <time>2021-08-09T10:05:27Z</time>
      </trkpt>
      <trkpt lat="49.21246" lon="3.90777">
        <ele>150.58</ele>
        <time>2021-08-09T10:05:32Z</time>
      </trkpt>
      <trkpt lat="49.21241" lon="3.908">
        <ele>150.58</ele>
        <time>2021-08-09T10:05:38Z</time>
      </trkpt>
      <trkpt lat="49.21229" lon="3.9084">
        <ele>152.03</ele>
        <time>2021-08-09T10:05:50Z</time>
      </trkpt>
      <trkpt lat="49.21222" lon="3.90871">
        <ele>152.03</ele>
        <time>2021-08-09T10:05:59Z</time>
      </trkpt>
      <trkpt lat="49.21214" lon="3.90905">
        <ele>152.99</ele>
        <time>2021-08-09T10:06:09Z</time>
      </trkpt>
      <trkpt lat="49.21209" lon="3.90938">
        <ele>152.99</ele>
        <time>2021-08-09T10:06:19Z</time>
      </trkpt>
      <trkpt lat="49.21206" lon="3.90974">
        <ele>153.47</ele>
        <time>2021-08-09T10:06:29Z</time>
      </trkpt>
      <trkpt lat="49.21203" lon="3.91005">
        <ele>154.91</ele>
        <time>2021-08-09T10:06:38Z</time>
      </trkpt>
      <trkpt lat="49.21201" lon="3.91034">
        <ele>155.87</ele>
        <time>2021-08-09T10:06:47Z</time>
      </trkpt>
      <trkpt lat="49.212" lon="3.9107">
        <ele>156.35</ele>
        <time>2021-08-09T10:06:57Z</time>
      </trkpt>
      <trkpt lat="49.212" lon="3.91101">
        <ele>157.31</ele>
        <time>2021-08-09T10:07:05Z</time>
      </trkpt>
      <trkpt lat="49.21199" lon="3.91137">
        <ele>158.75</ele>
        <time>2021-08-09T10:07:13Z</time>
      </trkpt>
      <trkpt lat="49.21199" lon="3.91177">
        <ele>159.24</ele>
        <time>2021-08-09T10:07:22Z</time>
      </trkpt>
      <trkpt lat="49.21198" lon="3.91221">
        <ele>160.2</ele>
        <time>2021-08-09T10:07:33Z</time>
      </trkpt>
      <trkpt lat="49.21198" lon="3.91259">
        <ele>161.64</ele>
        <time>2021-08-09T10:07:43Z</time>
      </trkpt>
      <trkpt lat="49.21193" lon="3.91308">
        <ele>162.6</ele>
        <time>2021-08-09T10:07:55Z</time>
      </trkpt>
      <trkpt lat="49.21186" lon="3.91349">
        <ele>163.56</ele>
        <time>2021-08-09T10:08:05Z</time>
      </trkpt>
      <trkpt lat="49.21176" lon="3.91384">
        <ele>164.52</ele>
        <time>2021-08-09T10:08:14Z</time>
      </trkpt>
      <trkpt lat="49.21162" lon="3.91433">
        <ele>165.48</ele>
        <time>2021-08-09T10:08:27Z</time>
      </trkpt>
      <trkpt lat="49.21148" lon="3.91472">
        <ele>166.45</ele>
        <time>2021-08-09T10:08:37Z</time>
      </trkpt>
      <trkpt lat="49.21138" lon="3.91503">
        <ele>166.93</ele>
        <time>2021-08-09T10:08:45Z</time>
      </trkpt>
      <trkpt lat="49.21129" lon="3.91537">
        <ele>167.89</ele>
        <time>2021-08-09T10:08:54Z</time>
      </trkpt>
      <trkpt lat="49.21118" lon="3.91571">
        <ele>169.33</ele>
        <time>2021-08-09T10:09:03Z</time>
      </trkpt>
      <trkpt lat="49.21103" lon="3.91602">
        <ele>169.81</ele>
        <time>2021-08-09T10:09:12Z</time>
      </trkpt>
      <trkpt lat="49.21086" lon="3.91623">
        <ele>170.29</ele>
        <time>2021-08-09T10:09:20Z</time>
      </trkpt>
      <trkpt lat="49.21071" lon="3.91637">
        <ele>170.77</ele>
        <time>2021-08-09T10:09:26Z</time>
      </trkpt>
      <trkpt lat="49.21051" lon="3.91652">
        <ele>172.21</ele>
        <time>2021-08-09T10:09:34Z</time>
      </trkpt>
      <trkpt lat="49.21037" lon="3.91657">
        <ele>172.69</ele>
        <time>2021-08-09T10:09:40Z</time>
      </trkpt>
      <trkpt lat="49.21013" lon="3.91671">
        <ele>173.17</ele>
        <time>2021-08-09T10:09:49Z</time>
      </trkpt>
      <trkpt lat="49.20994" lon="3.9168">
        <ele>173.66</ele>
        <time>2021-08-09T10:09:56Z</time>
      </trkpt>
      <trkpt lat="49.20978" lon="3.91688">
        <ele>174.62</ele>
        <time>2021-08-09T10:10:03Z</time>
      </trkpt>
      <trkpt lat="49.20953" lon="3.91702">
        <ele>175.58</ele>
        <time>2021-08-09T10:10:12Z</time>
      </trkpt>
      <trkpt lat="49.20938" lon="3.9171">
        <ele>176.06</ele>
        <time>2021-08-09T10:10:18Z</time>
      </trkpt>
      <trkpt lat="49.20925" lon="3.91717">
        <ele>176.54</ele>
        <time>2021-08-09T10:10:23Z</time>
      </trkpt>
      <trkpt lat="49.20902" lon="3.91736">
        <ele>177.5</ele>
        <time>2021-08-09T10:10:32Z</time>
      </trkpt>
      <trkpt lat="49.20881" lon="3.9175">
        <ele>178.46</ele>
        <time>2021-08-09T10:10:38Z</time>
      </trkpt>
      <trkpt lat="49.20853" lon="3.9177">
        <ele>178.46</ele>
        <time>2021-08-09T10:10:47Z</time>
      </trkpt>
      <trkpt lat="49.20831" lon="3.91789">
        <ele>180.38</ele>
        <time>2021-08-09T10:10:54Z</time>
      </trkpt>
      <trkpt lat="49.20827" lon="3.91791">
        <ele>180.38</ele>
        <time>2021-08-09T10:10:55Z</time>
      </trkpt>
      <trkpt lat="49.20823" lon="3.91792">
        <ele>180.38</ele>
        <time>2021-08-09T10:10:56Z</time>
      </trkpt>
      <trkpt lat="49.20815" lon="3.91797">
        <ele>180.38</ele>
        <time>2021-08-09T10:10:58Z</time>
      </trkpt>
      <trkpt lat="49.20786" lon="3.91819">
        <ele>180.38</ele>
        <time>2021-08-09T10:11:06Z</time>
      </trkpt>
      <trkpt lat="49.2077" lon="3.91833">
        <ele>181.35</ele>
        <time>2021-08-09T10:11:11Z</time>
      </trkpt>
      <trkpt lat="49.20747" lon="3.91866">
        <ele>181.35</ele>
        <time>2021-08-09T10:11:20Z</time>
      </trkpt>
      <trkpt lat="49.20732" lon="3.91906">
        <ele>182.31</ele>
        <time>2021-08-09T10:11:29Z</time>
      </trkpt>
      <trkpt lat="49.20726" lon="3.91939">
        <ele>183.27</ele>
        <time>2021-08-09T10:11:37Z</time>
      </trkpt>
      <trkpt lat="49.20724" lon="3.91973">
        <ele>184.23</ele>
        <time>2021-08-09T10:11:45Z</time>
      </trkpt>
      <trkpt lat="49.20729" lon="3.92005">
        <ele>186.15</ele>
        <time>2021-08-09T10:11:54Z</time>
      </trkpt>
      <trkpt lat="49.2074" lon="3.92015">
        <ele>186.63</ele>
        <time>2021-08-09T10:11:59Z</time>
      </trkpt>
      <trkpt lat="49.20748" lon="3.92021">
        <ele>188.08</ele>
        <time>2021-08-09T10:12:02Z</time>
      </trkpt>
      <trkpt lat="49.20773" lon="3.92044">
        <ele>188.08</ele>
        <time>2021-08-09T10:12:12Z</time>
      </trkpt>
      <trkpt lat="49.20796" lon="3.92067">
        <ele>188.56</ele>
        <time>2021-08-09T10:12:21Z</time>
      </trkpt>
      <trkpt lat="49.20797" lon="3.92072">
        <ele>188.56</ele>
        <time>2021-08-09T10:12:22Z</time>
      </trkpt>
      <trkpt lat="49.20798" lon="3.92077">
        <ele>188.56</ele>
        <time>2021-08-09T10:12:23Z</time>
      </trkpt>
      <trkpt lat="49.20796" lon="3.92082">
        <ele>189.04</ele>
        <time>2021-08-09T10:12:24Z</time>
      </trkpt>
      <trkpt lat="49.20795" lon="3.92085">
        <ele>189.52</ele>
        <time>2021-08-09T10:12:25Z</time>
      </trkpt>
      <trkpt lat="49.20793" lon="3.92088">
        <ele>189.52</ele>
        <time>2021-08-09T10:12:26Z</time>
      </trkpt>
      <trkpt lat="49.20791" lon="3.92091">
        <ele>190</ele>
        <time>2021-08-09T10:12:27Z</time>
      </trkpt>
      <trkpt lat="49.2079" lon="3.92094">
        <ele>190.96</ele>
        <time>2021-08-09T10:12:28Z</time>
      </trkpt>
      <trkpt lat="49.20763" lon="3.92142">
        <ele>193.36</ele>
        <time>2021-08-09T10:12:42Z</time>
      </trkpt>
      <trkpt lat="49.2075" lon="3.92175">
        <ele>194.32</ele>
        <time>2021-08-09T10:12:51Z</time>
      </trkpt>
      <trkpt lat="49.20742" lon="3.92194">
        <ele>195.28</ele>
        <time>2021-08-09T10:12:58Z</time>
      </trkpt>
      <trkpt lat="49.2073" lon="3.9222">
        <ele>195.77</ele>
        <time>2021-08-09T10:13:08Z</time>
      </trkpt>
      <trkpt lat="49.20717" lon="3.9225">
        <ele>197.21</ele>
        <time>2021-08-09T10:13:19Z</time>
      </trkpt>
      <trkpt lat="49.20709" lon="3.92271">
        <ele>198.17</ele>
        <time>2021-08-09T10:13:27Z</time>
      </trkpt>
      <trkpt lat="49.20697" lon="3.92293">
        <ele>199.61</ele>
        <time>2021-08-09T10:13:36Z</time>
      </trkpt>
      <trkpt lat="49.2069" lon="3.92311">
        <ele>200.57</ele>
        <time>2021-08-09T10:13:43Z</time>
      </trkpt>
      <trkpt lat="49.20686" lon="3.92327">
        <ele>200.57</ele>
        <time>2021-08-09T10:13:48Z</time>
      </trkpt>
      <trkpt lat="49.20678" lon="3.92348">
        <ele>201.53</ele>
        <time>2021-08-09T10:13:56Z</time>
      </trkpt>
      <trkpt lat="49.20665" lon="3.92379">
        <ele>202.98</ele>
        <time>2021-08-09T10:14:07Z</time>
      </trkpt>
      <trkpt lat="49.20657" lon="3.92395">
        <ele>202.98</ele>
        <time>2021-08-09T10:14:13Z</time>
      </trkpt>
      <trkpt lat="49.20644" lon="3.92421">
        <ele>204.42</ele>
        <time>2021-08-09T10:14:22Z</time>
      </trkpt>
      <trkpt lat="49.20631" lon="3.92441">
        <ele>204.42</ele>
        <time>2021-08-09T10:14:30Z</time>
      </trkpt>
      <trkpt lat="49.20619" lon="3.92454">
        <ele>204.9</ele>
        <time>2021-08-09T10:14:36Z</time>
      </trkpt>
      <trkpt lat="49.20603" lon="3.92474">
        <ele>205.38</ele>
        <time>2021-08-09T10:14:45Z</time>
      </trkpt>
      <trkpt lat="49.20587" lon="3.92502">
        <ele>206.34</ele>
        <time>2021-08-09T10:14:55Z</time>
      </trkpt>
      <trkpt lat="49.20579" lon="3.92539">
        <ele>205.86</ele>
        <time>2021-08-09T10:15:04Z</time>
      </trkpt>
      <trkpt lat="49.20571" lon="3.92574">
        <ele>205.86</ele>
        <time>2021-08-09T10:15:12Z</time>
      </trkpt>
      <trkpt lat="49.20565" lon="3.92604">
        <ele>207.78</ele>
        <time>2021-08-09T10:15:19Z</time>
      </trkpt>
      <trkpt lat="49.20577" lon="3.92617">
        <ele>208.26</ele>
        <time>2021-08-09T10:15:25Z</time>
      </trkpt>
      <trkpt lat="49.20589" lon="3.9263">
        <ele>208.74</ele>
        <time>2021-08-09T10:15:31Z</time>
      </trkpt>
      <trkpt lat="49.20603" lon="3.92648">
        <ele>208.74</ele>
        <time>2021-08-09T10:15:37Z</time>
      </trkpt>
      <trkpt lat="49.20624" lon="3.92673">
        <ele>206.82</ele>
        <time>2021-08-09T10:15:45Z</time>
      </trkpt>
      <trkpt lat="49.20632" lon="3.92685">
        <ele>206.34</ele>
        <time>2021-08-09T10:15:51Z</time>
      </trkpt>
      <trkpt lat="49.20632" lon="3.92685">
        <ele>206.34</ele>
        <time>2021-08-09T10:15:58Z</time>
      </trkpt>
      <trkpt lat="49.20632" lon="3.92686">
        <ele>206.34</ele>
        <time>2021-08-09T10:16:11Z</time>
      </trkpt>
      <trkpt lat="49.20633" lon="3.92687">
        <ele>206.34</ele>
        <time>2021-08-09T10:16:27Z</time>
      </trkpt>
      <trkpt lat="49.20634" lon="3.92685">
        <ele>206.34</ele>
        <time>2021-08-09T10:16:46Z</time>
      </trkpt>
      <trkpt lat="49.20633" lon="3.92684">
        <ele>206.34</ele>
        <time>2021-08-09T10:17:06Z</time>
      </trkpt>
      <trkpt lat="49.20632" lon="3.92686">
        <ele>206.34</ele>
        <time>2021-08-09T10:17:18Z</time>
      </trkpt>
      <trkpt lat="49.20633" lon="3.92684">
        <ele>206.34</ele>
        <time>2021-08-09T10:17:33Z</time>
      </trkpt>
      <trkpt lat="49.20633" lon="3.92685">
        <ele>206.34</ele>
        <time>2021-08-09T10:17:49Z</time>
      </trkpt>
      <trkpt lat="49.20639" lon="3.92689">
        <ele>206.34</ele>
        <time>2021-08-09T10:18:00Z</time>
      </trkpt>
      <trkpt lat="49.20653" lon="3.92708">
        <ele>203.94</ele>
        <time>2021-08-09T10:18:05Z</time>
      </trkpt>
      <trkpt lat="49.20671" lon="3.92727">
        <ele>201.05</ele>
        <time>2021-08-09T10:18:10Z</time>
      </trkpt>
      <trkpt lat="49.20676" lon="3.92736">
        <ele>199.61</ele>
        <time>2021-08-09T10:18:13Z</time>
      </trkpt>
      <trkpt lat="49.20677" lon="3.9274">
        <ele>199.13</ele>
        <time>2021-08-09T10:18:14Z</time>
      </trkpt>
      <trkpt lat="49.20676" lon="3.92743">
        <ele>199.13</ele>
        <time>2021-08-09T10:18:15Z</time>
      </trkpt>
      <trkpt lat="49.20676" lon="3.92745">
        <ele>199.13</ele>
        <time>2021-08-09T10:18:16Z</time>
      </trkpt>
      <trkpt lat="49.20676" lon="3.92748">
        <ele>199.13</ele>
        <time>2021-08-09T10:18:17Z</time>
      </trkpt>
      <trkpt lat="49.20675" lon="3.9275">
        <ele>199.13</ele>
        <time>2021-08-09T10:18:18Z</time>
      </trkpt>
      <trkpt lat="49.20674" lon="3.92752">
        <ele>199.13</ele>
        <time>2021-08-09T10:18:19Z</time>
      </trkpt>
      <trkpt lat="49.20673" lon="3.92754">
        <ele>199.13</ele>
        <time>2021-08-09T10:18:20Z</time>
      </trkpt>
      <trkpt lat="49.20672" lon="3.92756">
        <ele>200.57</ele>
        <time>2021-08-09T10:18:21Z</time>
      </trkpt>
      <trkpt lat="49.20671" lon="3.92758">
        <ele>200.57</ele>
        <time>2021-08-09T10:18:22Z</time>
      </trkpt>
      <trkpt lat="49.2067" lon="3.9276">
        <ele>200.57</ele>
        <time>2021-08-09T10:18:23Z</time>
      </trkpt>
      <trkpt lat="49.20669" lon="3.92763">
        <ele>201.05</ele>
        <time>2021-08-09T10:18:24Z</time>
      </trkpt>
      <trkpt lat="49.20665" lon="3.92777">
        <ele>202.49</ele>
        <time>2021-08-09T10:18:31Z</time>
      </trkpt>
      <trkpt lat="49.20658" lon="3.92796">
        <ele>203.94</ele>
        <time>2021-08-09T10:18:39Z</time>
      </trkpt>
      <trkpt lat="49.2065" lon="3.92816">
        <ele>204.9</ele>
        <time>2021-08-09T10:18:47Z</time>
      </trkpt>
      <trkpt lat="49.20646" lon="3.92825">
        <ele>205.38</ele>
        <time>2021-08-09T10:18:51Z</time>
      </trkpt>
      <trkpt lat="49.20632" lon="3.92841">
        <ele>206.82</ele>
        <time>2021-08-09T10:19:01Z</time>
      </trkpt>
      <trkpt lat="49.20622" lon="3.92861">
        <ele>207.78</ele>
        <time>2021-08-09T10:19:08Z</time>
      </trkpt>
      <trkpt lat="49.2061" lon="3.92892">
        <ele>209.22</ele>
        <time>2021-08-09T10:19:18Z</time>
      </trkpt>
      <trkpt lat="49.20595" lon="3.92919">
        <ele>210.19</ele>
        <time>2021-08-09T10:19:28Z</time>
      </trkpt>
      <trkpt lat="49.20582" lon="3.9293">
        <ele>211.15</ele>
        <time>2021-08-09T10:19:37Z</time>
      </trkpt>
      <trkpt lat="49.20571" lon="3.92936">
        <ele>213.07</ele>
        <time>2021-08-09T10:19:46Z</time>
      </trkpt>
      <trkpt lat="49.20559" lon="3.92949">
        <ele>215.47</ele>
        <time>2021-08-09T10:19:56Z</time>
      </trkpt>
      <trkpt lat="49.20558" lon="3.92951">
        <ele>215.95</ele>
        <time>2021-08-09T10:19:57Z</time>
      </trkpt>
      <trkpt lat="49.20557" lon="3.92952">
        <ele>215.95</ele>
        <time>2021-08-09T10:19:58Z</time>
      </trkpt>
      <trkpt lat="49.20556" lon="3.92954">
        <ele>215.95</ele>
        <time>2021-08-09T10:19:59Z</time>
      </trkpt>
      <trkpt lat="49.20555" lon="3.92955">
        <ele>215.95</ele>
        <time>2021-08-09T10:20:00Z</time>
      </trkpt>
      <trkpt lat="49.20554" lon="3.92957">
        <ele>216.43</ele>
        <time>2021-08-09T10:20:01Z</time>
      </trkpt>
      <trkpt lat="49.20553" lon="3.92958">
        <ele>216.43</ele>
        <time>2021-08-09T10:20:02Z</time>
      </trkpt>
      <trkpt lat="49.20552" lon="3.92959">
        <ele>216.91</ele>
        <time>2021-08-09T10:20:03Z</time>
      </trkpt>
      <trkpt lat="49.20551" lon="3.92961">
        <ele>216.91</ele>
        <time>2021-08-09T10:20:04Z</time>
      </trkpt>
      <trkpt lat="49.2055" lon="3.92963">
        <ele>217.4</ele>
        <time>2021-08-09T10:20:05Z</time>
      </trkpt>
      <trkpt lat="49.20549" lon="3.92964">
        <ele>217.4</ele>
        <time>2021-08-09T10:20:06Z</time>
      </trkpt>
      <trkpt lat="49.20548" lon="3.92966">
        <ele>217.4</ele>
        <time>2021-08-09T10:20:07Z</time>
      </trkpt>
      <trkpt lat="49.20547" lon="3.92968">
        <ele>217.4</ele>
        <time>2021-08-09T10:20:08Z</time>
      </trkpt>
      <trkpt lat="49.20546" lon="3.9297">
        <ele>217.88</ele>
        <time>2021-08-09T10:20:09Z</time>
      </trkpt>
      <trkpt lat="49.20545" lon="3.92971">
        <ele>217.88</ele>
        <time>2021-08-09T10:20:10Z</time>
      </trkpt>
      <trkpt lat="49.20544" lon="3.92973">
        <ele>217.88</ele>
        <time>2021-08-09T10:20:11Z</time>
      </trkpt>
      <trkpt lat="49.20543" lon="3.92975">
        <ele>218.36</ele>
        <time>2021-08-09T10:20:12Z</time>
      </trkpt>
      <trkpt lat="49.20542" lon="3.92976">
        <ele>218.36</ele>
        <time>2021-08-09T10:20:13Z</time>
      </trkpt>
      <trkpt lat="49.2054" lon="3.92978">
        <ele>218.36</ele>
        <time>2021-08-09T10:20:14Z</time>
      </trkpt>
      <trkpt lat="49.20527" lon="3.92996">
        <ele>219.32</ele>
        <time>2021-08-09T10:20:24Z</time>
      </trkpt>
      <trkpt lat="49.20517" lon="3.93001">
        <ele>221.24</ele>
        <time>2021-08-09T10:20:31Z</time>
      </trkpt>
      <trkpt lat="49.20499" lon="3.93015">
        <ele>222.2</ele>
        <time>2021-08-09T10:20:41Z</time>
      </trkpt>
      <trkpt lat="49.20482" lon="3.93023">
        <ele>223.16</ele>
        <time>2021-08-09T10:20:50Z</time>
      </trkpt>
      <trkpt lat="49.20475" lon="3.93024">
        <ele>223.64</ele>
        <time>2021-08-09T10:20:54Z</time>
      </trkpt>
      <trkpt lat="49.20473" lon="3.93022">
        <ele>223.64</ele>
        <time>2021-08-09T10:20:55Z</time>
      </trkpt>
      <trkpt lat="49.20473" lon="3.9302">
        <ele>223.64</ele>
        <time>2021-08-09T10:20:56Z</time>
      </trkpt>
      <trkpt lat="49.20474" lon="3.93019">
        <ele>224.12</ele>
        <time>2021-08-09T10:20:57Z</time>
      </trkpt>
      <trkpt lat="49.20476" lon="3.93017">
        <ele>224.12</ele>
        <time>2021-08-09T10:20:58Z</time>
      </trkpt>
      <trkpt lat="49.20477" lon="3.93016">
        <ele>224.12</ele>
        <time>2021-08-09T10:20:59Z</time>
      </trkpt>
      <trkpt lat="49.20478" lon="3.93015">
        <ele>224.12</ele>
        <time>2021-08-09T10:21:00Z</time>
      </trkpt>
      <trkpt lat="49.2048" lon="3.93013">
        <ele>224.61</ele>
        <time>2021-08-09T10:21:01Z</time>
      </trkpt>
      <trkpt lat="49.20481" lon="3.93012">
        <ele>224.61</ele>
        <time>2021-08-09T10:21:02Z</time>
      </trkpt>
      <trkpt lat="49.20482" lon="3.93011">
        <ele>224.61</ele>
        <time>2021-08-09T10:21:03Z</time>
      </trkpt>
      <trkpt lat="49.20484" lon="3.9301">
        <ele>224.61</ele>
        <time>2021-08-09T10:21:04Z</time>
      </trkpt>
      <trkpt lat="49.20486" lon="3.9301">
        <ele>224.61</ele>
        <time>2021-08-09T10:21:09Z</time>
      </trkpt>
      <trkpt lat="49.20486" lon="3.9301">
        <ele>224.61</ele>
        <time>2021-08-09T10:21:25Z</time>
      </trkpt>
      <trkpt lat="49.20488" lon="3.9301">
        <ele>225.09</ele>
        <time>2021-08-09T10:21:42Z</time>
      </trkpt>
      <trkpt lat="49.20492" lon="3.93003">
        <ele>224.61</ele>
        <time>2021-08-09T10:21:51Z</time>
      </trkpt>
      <trkpt lat="49.20495" lon="3.92985">
        <ele>226.05</ele>
        <time>2021-08-09T10:21:58Z</time>
      </trkpt>
      <trkpt lat="49.20493" lon="3.92962">
        <ele>227.49</ele>
        <time>2021-08-09T10:22:07Z</time>
      </trkpt>
      <trkpt lat="49.20491" lon="3.92941">
        <ele>228.45</ele>
        <time>2021-08-09T10:22:14Z</time>
      </trkpt>
      <trkpt lat="49.20484" lon="3.92912">
        <ele>228.93</ele>
        <time>2021-08-09T10:22:23Z</time>
      </trkpt>
      <trkpt lat="49.20475" lon="3.92894">
        <ele>229.89</ele>
        <time>2021-08-09T10:22:29Z</time>
      </trkpt>
      <trkpt lat="49.20473" lon="3.92893">
        <ele>229.89</ele>
        <time>2021-08-09T10:22:30Z</time>
      </trkpt>
      <trkpt lat="49.20458" lon="3.92895">
        <ele>231.81</ele>
        <time>2021-08-09T10:22:38Z</time>
      </trkpt>
      <trkpt lat="49.20448" lon="3.92902">
        <ele>232.3</ele>
        <time>2021-08-09T10:22:44Z</time>
      </trkpt>
      <trkpt lat="49.20447" lon="3.92905">
        <ele>232.3</ele>
        <time>2021-08-09T10:22:45Z</time>
      </trkpt>
      <trkpt lat="49.20441" lon="3.92914">
        <ele>234.22</ele>
        <time>2021-08-09T10:22:53Z</time>
      </trkpt>
      <trkpt lat="49.20439" lon="3.92914">
        <ele>234.22</ele>
        <time>2021-08-09T10:22:59Z</time>
      </trkpt>
      <trkpt lat="49.20441" lon="3.92913">
        <ele>234.22</ele>
        <time>2021-08-09T10:23:02Z</time>
      </trkpt>
      <trkpt lat="49.20442" lon="3.92911">
        <ele>234.22</ele>
        <time>2021-08-09T10:23:03Z</time>
      </trkpt>
      <trkpt lat="49.20443" lon="3.92909">
        <ele>234.22</ele>
        <time>2021-08-09T10:23:04Z</time>
      </trkpt>
      <trkpt lat="49.20442" lon="3.92905">
        <ele>232.78</ele>
        <time>2021-08-09T10:23:06Z</time>
      </trkpt>
      <trkpt lat="49.2044" lon="3.92903">
        <ele>232.78</ele>
        <time>2021-08-09T10:23:08Z</time>
      </trkpt>
      <trkpt lat="49.2043" lon="3.92907">
        <ele>231.81</ele>
        <time>2021-08-09T10:23:14Z</time>
      </trkpt>
      <trkpt lat="49.20422" lon="3.92912">
        <ele>230.37</ele>
        <time>2021-08-09T10:23:17Z</time>
      </trkpt>
      <trkpt lat="49.20418" lon="3.92917">
        <ele>229.89</ele>
        <time>2021-08-09T10:23:18Z</time>
      </trkpt>
      <trkpt lat="49.20416" lon="3.92923">
        <ele>229.89</ele>
        <time>2021-08-09T10:23:19Z</time>
      </trkpt>
      <trkpt lat="49.20414" lon="3.92929">
        <ele>229.89</ele>
        <time>2021-08-09T10:23:20Z</time>
      </trkpt>
      <trkpt lat="49.20413" lon="3.92936">
        <ele>229.89</ele>
        <time>2021-08-09T10:23:21Z</time>
      </trkpt>
      <trkpt lat="49.20412" lon="3.92942">
        <ele>229.41</ele>
        <time>2021-08-09T10:23:22Z</time>
      </trkpt>
      <trkpt lat="49.20412" lon="3.92949">
        <ele>229.41</ele>
        <time>2021-08-09T10:23:23Z</time>
      </trkpt>
      <trkpt lat="49.20412" lon="3.92955">
        <ele>228.45</ele>
        <time>2021-08-09T10:23:24Z</time>
      </trkpt>
      <trkpt lat="49.20412" lon="3.92969">
        <ele>227.97</ele>
        <time>2021-08-09T10:23:26Z</time>
      </trkpt>
      <trkpt lat="49.20411" lon="3.92996">
        <ele>224.61</ele>
        <time>2021-08-09T10:23:30Z</time>
      </trkpt>
      <trkpt lat="49.20403" lon="3.93019">
        <ele>222.2</ele>
        <time>2021-08-09T10:23:35Z</time>
      </trkpt>
      <trkpt lat="49.20402" lon="3.93023">
        <ele>221.72</ele>
        <time>2021-08-09T10:23:37Z</time>
      </trkpt>
      <trkpt lat="49.20402" lon="3.93027">
        <ele>221.24</ele>
        <time>2021-08-09T10:23:38Z</time>
      </trkpt>
      <trkpt lat="49.20403" lon="3.9303">
        <ele>221.24</ele>
        <time>2021-08-09T10:23:39Z</time>
      </trkpt>
      <trkpt lat="49.20405" lon="3.93032">
        <ele>220.76</ele>
        <time>2021-08-09T10:23:40Z</time>
      </trkpt>
      <trkpt lat="49.20407" lon="3.93032">
        <ele>220.76</ele>
        <time>2021-08-09T10:23:41Z</time>
      </trkpt>
      <trkpt lat="49.2041" lon="3.93032">
        <ele>220.76</ele>
        <time>2021-08-09T10:23:42Z</time>
      </trkpt>
      <trkpt lat="49.20411" lon="3.93032">
        <ele>220.76</ele>
        <time>2021-08-09T10:23:43Z</time>
      </trkpt>
      <trkpt lat="49.20413" lon="3.93033">
        <ele>220.76</ele>
        <time>2021-08-09T10:23:44Z</time>
      </trkpt>
      <trkpt lat="49.20413" lon="3.93036">
        <ele>220.76</ele>
        <time>2021-08-09T10:23:45Z</time>
      </trkpt>
      <trkpt lat="49.20413" lon="3.93039">
        <ele>220.76</ele>
        <time>2021-08-09T10:23:46Z</time>
      </trkpt>
      <trkpt lat="49.20413" lon="3.93041">
        <ele>220.76</ele>
        <time>2021-08-09T10:23:47Z</time>
      </trkpt>
      <trkpt lat="49.20412" lon="3.93047">
        <ele>219.8</ele>
        <time>2021-08-09T10:23:53Z</time>
      </trkpt>
      <trkpt lat="49.20405" lon="3.93077">
        <ele>216.43</ele>
        <time>2021-08-09T10:23:58Z</time>
      </trkpt>
      <trkpt lat="49.20403" lon="3.93084">
        <ele>215.95</ele>
        <time>2021-08-09T10:23:59Z</time>
      </trkpt>
      <trkpt lat="49.20396" lon="3.9311">
        <ele>214.03</ele>
        <time>2021-08-09T10:24:02Z</time>
      </trkpt>
      <trkpt lat="49.20391" lon="3.93129">
        <ele>212.11</ele>
        <time>2021-08-09T10:24:04Z</time>
      </trkpt>
      <trkpt lat="49.20382" lon="3.93162">
        <ele>209.22</ele>
        <time>2021-08-09T10:24:08Z</time>
      </trkpt>
      <trkpt lat="49.2038" lon="3.9317">
        <ele>209.22</ele>
        <time>2021-08-09T10:24:09Z</time>
      </trkpt>
      <trkpt lat="49.20374" lon="3.93196">
        <ele>205.38</ele>
        <time>2021-08-09T10:24:12Z</time>
      </trkpt>
      <trkpt lat="49.20366" lon="3.93228">
        <ele>202.49</ele>
        <time>2021-08-09T10:24:17Z</time>
      </trkpt>
      <trkpt lat="49.20361" lon="3.93247">
        <ele>200.09</ele>
        <time>2021-08-09T10:24:21Z</time>
      </trkpt>
      <trkpt lat="49.20355" lon="3.93269">
        <ele>196.73</ele>
        <time>2021-08-09T10:24:26Z</time>
      </trkpt>
      <trkpt lat="49.20349" lon="3.93288">
        <ele>192.88</ele>
        <time>2021-08-09T10:24:29Z</time>
      </trkpt>
      <trkpt lat="49.20344" lon="3.93311">
        <ele>190.48</ele>
        <time>2021-08-09T10:24:32Z</time>
      </trkpt>
      <trkpt lat="49.20342" lon="3.93317">
        <ele>189.52</ele>
        <time>2021-08-09T10:24:33Z</time>
      </trkpt>
      <trkpt lat="49.20338" lon="3.93327">
        <ele>188.56</ele>
        <time>2021-08-09T10:24:35Z</time>
      </trkpt>
      <trkpt lat="49.20336" lon="3.93332">
        <ele>188.08</ele>
        <time>2021-08-09T10:24:36Z</time>
      </trkpt>
      <trkpt lat="49.20319" lon="3.93359">
        <ele>184.23</ele>
        <time>2021-08-09T10:24:41Z</time>
      </trkpt>
      <trkpt lat="49.20307" lon="3.93379">
        <ele>180.87</ele>
        <time>2021-08-09T10:24:44Z</time>
      </trkpt>
      <trkpt lat="49.20293" lon="3.93403">
        <ele>178.94</ele>
        <time>2021-08-09T10:24:48Z</time>
      </trkpt>
      <trkpt lat="49.20282" lon="3.93422">
        <ele>176.54</ele>
        <time>2021-08-09T10:24:51Z</time>
      </trkpt>
      <trkpt lat="49.20269" lon="3.93446">
        <ele>173.66</ele>
        <time>2021-08-09T10:24:54Z</time>
      </trkpt>
      <trkpt lat="49.20253" lon="3.93472">
        <ele>170.29</ele>
        <time>2021-08-09T10:24:59Z</time>
      </trkpt>
      <trkpt lat="49.20249" lon="3.93474">
        <ele>170.29</ele>
        <time>2021-08-09T10:25:00Z</time>
      </trkpt>
      <trkpt lat="49.20245" lon="3.93475">
        <ele>169.81</ele>
        <time>2021-08-09T10:25:01Z</time>
      </trkpt>
      <trkpt lat="49.20241" lon="3.93476">
        <ele>169.81</ele>
        <time>2021-08-09T10:25:02Z</time>
      </trkpt>
      <trkpt lat="49.20236" lon="3.93476">
        <ele>169.33</ele>
        <time>2021-08-09T10:25:03Z</time>
      </trkpt>
      <trkpt lat="49.20214" lon="3.93475">
        <ele>169.33</ele>
        <time>2021-08-09T10:25:08Z</time>
      </trkpt>
      <trkpt lat="49.2021" lon="3.93474">
        <ele>169.33</ele>
        <time>2021-08-09T10:25:09Z</time>
      </trkpt>
      <trkpt lat="49.20206" lon="3.93473">
        <ele>169.33</ele>
        <time>2021-08-09T10:25:10Z</time>
      </trkpt>
      <trkpt lat="49.20202" lon="3.93472">
        <ele>169.33</ele>
        <time>2021-08-09T10:25:11Z</time>
      </trkpt>
      <trkpt lat="49.20198" lon="3.93472">
        <ele>169.33</ele>
        <time>2021-08-09T10:25:12Z</time>
      </trkpt>
      <trkpt lat="49.20194" lon="3.93471">
        <ele>169.33</ele>
        <time>2021-08-09T10:25:13Z</time>
      </trkpt>
      <trkpt lat="49.20191" lon="3.9347">
        <ele>169.33</ele>
        <time>2021-08-09T10:25:14Z</time>
      </trkpt>
      <trkpt lat="49.20188" lon="3.9347">
        <ele>169.33</ele>
        <time>2021-08-09T10:25:15Z</time>
      </trkpt>
      <trkpt lat="49.20184" lon="3.93469">
        <ele>169.33</ele>
        <time>2021-08-09T10:25:16Z</time>
      </trkpt>
      <trkpt lat="49.20181" lon="3.93469">
        <ele>169.33</ele>
        <time>2021-08-09T10:25:17Z</time>
      </trkpt>
      <trkpt lat="49.20177" lon="3.93469">
        <ele>169.33</ele>
        <time>2021-08-09T10:25:18Z</time>
      </trkpt>
      <trkpt lat="49.20165" lon="3.93468">
        <ele>170.77</ele>
        <time>2021-08-09T10:25:22Z</time>
      </trkpt>
      <trkpt lat="49.20162" lon="3.93469">
        <ele>170.77</ele>
        <time>2021-08-09T10:25:23Z</time>
      </trkpt>
      <trkpt lat="49.2014" lon="3.93466">
        <ele>170.77</ele>
        <time>2021-08-09T10:25:30Z</time>
      </trkpt>
      <trkpt lat="49.20122" lon="3.93457">
        <ele>172.21</ele>
        <time>2021-08-09T10:25:37Z</time>
      </trkpt>
      <trkpt lat="49.20112" lon="3.93457">
        <ele>173.17</ele>
        <time>2021-08-09T10:25:43Z</time>
      </trkpt>
      <trkpt lat="49.2011" lon="3.93455">
        <ele>173.17</ele>
        <time>2021-08-09T10:25:44Z</time>
      </trkpt>
      <trkpt lat="49.20108" lon="3.93454">
        <ele>173.17</ele>
        <time>2021-08-09T10:25:45Z</time>
      </trkpt>
      <trkpt lat="49.20106" lon="3.93455">
        <ele>173.17</ele>
        <time>2021-08-09T10:25:46Z</time>
      </trkpt>
      <trkpt lat="49.20104" lon="3.93456">
        <ele>173.66</ele>
        <time>2021-08-09T10:25:47Z</time>
      </trkpt>
      <trkpt lat="49.20102" lon="3.93457">
        <ele>173.66</ele>
        <time>2021-08-09T10:25:48Z</time>
      </trkpt>
      <trkpt lat="49.20101" lon="3.93458">
        <ele>173.66</ele>
        <time>2021-08-09T10:25:49Z</time>
      </trkpt>
      <trkpt lat="49.201" lon="3.93459">
        <ele>173.66</ele>
        <time>2021-08-09T10:25:50Z</time>
      </trkpt>
      <trkpt lat="49.20099" lon="3.93461">
        <ele>174.14</ele>
        <time>2021-08-09T10:25:51Z</time>
      </trkpt>
      <trkpt lat="49.20098" lon="3.93462">
        <ele>174.14</ele>
        <time>2021-08-09T10:25:52Z</time>
      </trkpt>
      <trkpt lat="49.20084" lon="3.9348">
        <ele>174.14</ele>
        <time>2021-08-09T10:26:00Z</time>
      </trkpt>
      <trkpt lat="49.20073" lon="3.93495">
        <ele>173.17</ele>
        <time>2021-08-09T10:26:04Z</time>
      </trkpt>
      <trkpt lat="49.2007" lon="3.93499">
        <ele>173.17</ele>
        <time>2021-08-09T10:26:05Z</time>
      </trkpt>
      <trkpt lat="49.20064" lon="3.9351">
        <ele>172.69</ele>
        <time>2021-08-09T10:26:07Z</time>
      </trkpt>
      <trkpt lat="49.20061" lon="3.93515">
        <ele>171.73</ele>
        <time>2021-08-09T10:26:08Z</time>
      </trkpt>
      <trkpt lat="49.20059" lon="3.9352">
        <ele>171.73</ele>
        <time>2021-08-09T10:26:09Z</time>
      </trkpt>
      <trkpt lat="49.20057" lon="3.93523">
        <ele>171.73</ele>
        <time>2021-08-09T10:26:10Z</time>
      </trkpt>
      <trkpt lat="49.20056" lon="3.93526">
        <ele>171.73</ele>
        <time>2021-08-09T10:26:11Z</time>
      </trkpt>
      <trkpt lat="49.20055" lon="3.93527">
        <ele>171.73</ele>
        <time>2021-08-09T10:26:12Z</time>
      </trkpt>
      <trkpt lat="49.20054" lon="3.93528">
        <ele>171.73</ele>
        <time>2021-08-09T10:26:13Z</time>
      </trkpt>
      <trkpt lat="49.20053" lon="3.93528">
        <ele>171.73</ele>
        <time>2021-08-09T10:26:20Z</time>
      </trkpt>
      <trkpt lat="49.20052" lon="3.93528">
        <ele>171.73</ele>
        <time>2021-08-09T10:26:35Z</time>
      </trkpt>
      <trkpt lat="49.20051" lon="3.93529">
        <ele>171.73</ele>
        <time>2021-08-09T10:26:49Z</time>
      </trkpt>
      <trkpt lat="49.20051" lon="3.93528">
        <ele>171.73</ele>
        <time>2021-08-09T10:27:08Z</time>
      </trkpt>
      <trkpt lat="49.2005" lon="3.93528">
        <ele>171.73</ele>
        <time>2021-08-09T10:27:24Z</time>
      </trkpt>
      <trkpt lat="49.20049" lon="3.93529">
        <ele>171.73</ele>
        <time>2021-08-09T10:27:33Z</time>
      </trkpt>
      <trkpt lat="49.20048" lon="3.93529">
        <ele>171.73</ele>
        <time>2021-08-09T10:27:37Z</time>
      </trkpt>
      <trkpt lat="49.20046" lon="3.93529">
        <ele>171.73</ele>
        <time>2021-08-09T10:27:39Z</time>
      </trkpt>
      <trkpt lat="49.20044" lon="3.93526">
        <ele>172.21</ele>
        <time>2021-08-09T10:27:41Z</time>
      </trkpt>
      <trkpt lat="49.20043" lon="3.93524">
        <ele>171.73</ele>
        <time>2021-08-09T10:27:42Z</time>
      </trkpt>
      <trkpt lat="49.20038" lon="3.93515">
        <ele>173.17</ele>
        <time>2021-08-09T10:27:46Z</time>
      </trkpt>
      <trkpt lat="49.20027" lon="3.93501">
        <ele>174.62</ele>
        <time>2021-08-09T10:27:54Z</time>
      </trkpt>
      <trkpt lat="49.20013" lon="3.93485">
        <ele>175.1</ele>
        <time>2021-08-09T10:28:04Z</time>
      </trkpt>
      <trkpt lat="49.20001" lon="3.93481">
        <ele>177.02</ele>
        <time>2021-08-09T10:28:11Z</time>
      </trkpt>
      <trkpt lat="49.19983" lon="3.93484">
        <ele>178.46</ele>
        <time>2021-08-09T10:28:22Z</time>
      </trkpt>
      <trkpt lat="49.19972" lon="3.93488">
        <ele>178.46</ele>
        <time>2021-08-09T10:28:30Z</time>
      </trkpt>
      <trkpt lat="49.19956" lon="3.93494">
        <ele>179.42</ele>
        <time>2021-08-09T10:28:38Z</time>
      </trkpt>
      <trkpt lat="49.1994" lon="3.93495">
        <ele>181.35</ele>
        <time>2021-08-09T10:28:46Z</time>
      </trkpt>
      <trkpt lat="49.19928" lon="3.93485">
        <ele>183.27</ele>
        <time>2021-08-09T10:28:54Z</time>
      </trkpt>
      <trkpt lat="49.19917" lon="3.9348">
        <ele>184.23</ele>
        <time>2021-08-09T10:29:01Z</time>
      </trkpt>
      <trkpt lat="49.19903" lon="3.93476">
        <ele>185.67</ele>
        <time>2021-08-09T10:29:10Z</time>
      </trkpt>
      <trkpt lat="49.19893" lon="3.93462">
        <ele>187.59</ele>
        <time>2021-08-09T10:29:19Z</time>
      </trkpt>
      <trkpt lat="49.19886" lon="3.93442">
        <ele>189.52</ele>
        <time>2021-08-09T10:29:29Z</time>
      </trkpt>
      <trkpt lat="49.19877" lon="3.93423">
        <ele>191.92</ele>
        <time>2021-08-09T10:29:39Z</time>
      </trkpt>
      <trkpt lat="49.19869" lon="3.93403">
        <ele>193.36</ele>
        <time>2021-08-09T10:29:49Z</time>
      </trkpt>
      <trkpt lat="49.19858" lon="3.93396">
        <ele>194.32</ele>
        <time>2021-08-09T10:29:58Z</time>
      </trkpt>
      <trkpt lat="49.19848" lon="3.93395">
        <ele>195.77</ele>
        <time>2021-08-09T10:30:05Z</time>
      </trkpt>
      <trkpt lat="49.19847" lon="3.93395">
        <ele>195.77</ele>
        <time>2021-08-09T10:30:06Z</time>
      </trkpt>
      <trkpt lat="49.19845" lon="3.93395">
        <ele>195.77</ele>
        <time>2021-08-09T10:30:07Z</time>
      </trkpt>
      <trkpt lat="49.1983" lon="3.93394">
        <ele>197.21</ele>
        <time>2021-08-09T10:30:18Z</time>
      </trkpt>
      <trkpt lat="49.19816" lon="3.93392">
        <ele>199.61</ele>
        <time>2021-08-09T10:30:29Z</time>
      </trkpt>
      <trkpt lat="49.19803" lon="3.93391">
        <ele>200.09</ele>
        <time>2021-08-09T10:30:39Z</time>
      </trkpt>
      <trkpt lat="49.19802" lon="3.9339">
        <ele>200.09</ele>
        <time>2021-08-09T10:30:40Z</time>
      </trkpt>
      <trkpt lat="49.19801" lon="3.9339">
        <ele>200.57</ele>
        <time>2021-08-09T10:30:41Z</time>
      </trkpt>
      <trkpt lat="49.19791" lon="3.93389">
        <ele>201.05</ele>
        <time>2021-08-09T10:30:49Z</time>
      </trkpt>
      <trkpt lat="49.19784" lon="3.93389">
        <ele>202.49</ele>
        <time>2021-08-09T10:30:54Z</time>
      </trkpt>
      <trkpt lat="49.19771" lon="3.93387">
        <ele>203.94</ele>
        <time>2021-08-09T10:31:04Z</time>
      </trkpt>
      <trkpt lat="49.19759" lon="3.93388">
        <ele>205.86</ele>
        <time>2021-08-09T10:31:13Z</time>
      </trkpt>
      <trkpt lat="49.19748" lon="3.93388">
        <ele>206.34</ele>
        <time>2021-08-09T10:31:22Z</time>
      </trkpt>
      <trkpt lat="49.19742" lon="3.93388">
        <ele>206.82</ele>
        <time>2021-08-09T10:31:26Z</time>
      </trkpt>
      <trkpt lat="49.19741" lon="3.93388">
        <ele>206.82</ele>
        <time>2021-08-09T10:31:27Z</time>
      </trkpt>
      <trkpt lat="49.19739" lon="3.93388">
        <ele>206.82</ele>
        <time>2021-08-09T10:31:28Z</time>
      </trkpt>
      <trkpt lat="49.19727" lon="3.9339">
        <ele>208.26</ele>
        <time>2021-08-09T10:31:37Z</time>
      </trkpt>
      <trkpt lat="49.19716" lon="3.93389">
        <ele>210.19</ele>
        <time>2021-08-09T10:31:44Z</time>
      </trkpt>
      <trkpt lat="49.19703" lon="3.93388">
        <ele>212.59</ele>
        <time>2021-08-09T10:31:53Z</time>
      </trkpt>
      <trkpt lat="49.19692" lon="3.93388">
        <ele>213.07</ele>
        <time>2021-08-09T10:32:00Z</time>
      </trkpt>
      <trkpt lat="49.19683" lon="3.93384">
        <ele>214.03</ele>
        <time>2021-08-09T10:32:07Z</time>
      </trkpt>
      <trkpt lat="49.19673" lon="3.93382">
        <ele>215.47</ele>
        <time>2021-08-09T10:32:15Z</time>
      </trkpt>
      <trkpt lat="49.19664" lon="3.93379">
        <ele>217.4</ele>
        <time>2021-08-09T10:32:22Z</time>
      </trkpt>
      <trkpt lat="49.19661" lon="3.93378">
        <ele>217.88</ele>
        <time>2021-08-09T10:32:24Z</time>
      </trkpt>
      <trkpt lat="49.1966" lon="3.93378">
        <ele>217.88</ele>
        <time>2021-08-09T10:32:25Z</time>
      </trkpt>
      <trkpt lat="49.19658" lon="3.93377">
        <ele>218.36</ele>
        <time>2021-08-09T10:32:26Z</time>
      </trkpt>
      <trkpt lat="49.19657" lon="3.93377">
        <ele>218.36</ele>
        <time>2021-08-09T10:32:27Z</time>
      </trkpt>
      <trkpt lat="49.19656" lon="3.93376">
        <ele>218.36</ele>
        <time>2021-08-09T10:32:28Z</time>
      </trkpt>
      <trkpt lat="49.19655" lon="3.93376">
        <ele>219.32</ele>
        <time>2021-08-09T10:32:29Z</time>
      </trkpt>
      <trkpt lat="49.19653" lon="3.93375">
        <ele>219.32</ele>
        <time>2021-08-09T10:32:30Z</time>
      </trkpt>
      <trkpt lat="49.19652" lon="3.93375">
        <ele>219.32</ele>
        <time>2021-08-09T10:32:31Z</time>
      </trkpt>
      <trkpt lat="49.19651" lon="3.93375">
        <ele>219.32</ele>
        <time>2021-08-09T10:32:32Z</time>
      </trkpt>
      <trkpt lat="49.1965" lon="3.93374">
        <ele>219.32</ele>
        <time>2021-08-09T10:32:33Z</time>
      </trkpt>
      <trkpt lat="49.19648" lon="3.93374">
        <ele>219.32</ele>
        <time>2021-08-09T10:32:34Z</time>
      </trkpt>
      <trkpt lat="49.19647" lon="3.93374">
        <ele>219.8</ele>
        <time>2021-08-09T10:32:35Z</time>
      </trkpt>
      <trkpt lat="49.19646" lon="3.93373">
        <ele>220.28</ele>
        <time>2021-08-09T10:32:36Z</time>
      </trkpt>
      <trkpt lat="49.19645" lon="3.93373">
        <ele>220.28</ele>
        <time>2021-08-09T10:32:37Z</time>
      </trkpt>
      <trkpt lat="49.19644" lon="3.93373">
        <ele>220.28</ele>
        <time>2021-08-09T10:32:38Z</time>
      </trkpt>
      <trkpt lat="49.19643" lon="3.93372">
        <ele>221.24</ele>
        <time>2021-08-09T10:32:39Z</time>
      </trkpt>
      <trkpt lat="49.19631" lon="3.93369">
        <ele>222.68</ele>
        <time>2021-08-09T10:32:48Z</time>
      </trkpt>
      <trkpt lat="49.1962" lon="3.93365">
        <ele>225.09</ele>
        <time>2021-08-09T10:32:57Z</time>
      </trkpt>
      <trkpt lat="49.19611" lon="3.93364">
        <ele>226.53</ele>
        <time>2021-08-09T10:33:04Z</time>
      </trkpt>
      <trkpt lat="49.1961" lon="3.93364">
        <ele>227.01</ele>
        <time>2021-08-09T10:33:05Z</time>
      </trkpt>
      <trkpt lat="49.19609" lon="3.93365">
        <ele>227.01</ele>
        <time>2021-08-09T10:33:06Z</time>
      </trkpt>
      <trkpt lat="49.19608" lon="3.93364">
        <ele>227.01</ele>
        <time>2021-08-09T10:33:07Z</time>
      </trkpt>
      <trkpt lat="49.19607" lon="3.93364">
        <ele>227.49</ele>
        <time>2021-08-09T10:33:08Z</time>
      </trkpt>
      <trkpt lat="49.19606" lon="3.93363">
        <ele>227.49</ele>
        <time>2021-08-09T10:33:09Z</time>
      </trkpt>
      <trkpt lat="49.19605" lon="3.93362">
        <ele>227.49</ele>
        <time>2021-08-09T10:33:10Z</time>
      </trkpt>
      <trkpt lat="49.19603" lon="3.93362">
        <ele>227.49</ele>
        <time>2021-08-09T10:33:11Z</time>
      </trkpt>
      <trkpt lat="49.196" lon="3.93362">
        <ele>228.93</ele>
        <time>2021-08-09T10:33:14Z</time>
      </trkpt>
      <trkpt lat="49.19599" lon="3.93362">
        <ele>228.93</ele>
        <time>2021-08-09T10:33:15Z</time>
      </trkpt>
      <trkpt lat="49.19598" lon="3.93362">
        <ele>229.41</ele>
        <time>2021-08-09T10:33:16Z</time>
      </trkpt>
      <trkpt lat="49.19596" lon="3.93361">
        <ele>229.41</ele>
        <time>2021-08-09T10:33:17Z</time>
      </trkpt>
      <trkpt lat="49.19595" lon="3.9336">
        <ele>229.41</ele>
        <time>2021-08-09T10:33:18Z</time>
      </trkpt>
      <trkpt lat="49.19594" lon="3.93359">
        <ele>229.89</ele>
        <time>2021-08-09T10:33:19Z</time>
      </trkpt>
      <trkpt lat="49.19593" lon="3.93359">
        <ele>230.85</ele>
        <time>2021-08-09T10:33:20Z</time>
      </trkpt>
      <trkpt lat="49.19592" lon="3.93358">
        <ele>230.85</ele>
        <time>2021-08-09T10:33:21Z</time>
      </trkpt>
      <trkpt lat="49.19591" lon="3.93358">
        <ele>230.85</ele>
        <time>2021-08-09T10:33:22Z</time>
      </trkpt>
      <trkpt lat="49.19588" lon="3.93358">
        <ele>231.33</ele>
        <time>2021-08-09T10:33:24Z</time>
      </trkpt>
      <trkpt lat="49.19575" lon="3.93355">
        <ele>232.78</ele>
        <time>2021-08-09T10:33:34Z</time>
      </trkpt>
      <trkpt lat="49.19574" lon="3.93355">
        <ele>232.78</ele>
        <time>2021-08-09T10:33:35Z</time>
      </trkpt>
      <trkpt lat="49.19573" lon="3.93355">
        <ele>232.78</ele>
        <time>2021-08-09T10:33:36Z</time>
      </trkpt>
      <trkpt lat="49.19559" lon="3.93355">
        <ele>235.18</ele>
        <time>2021-08-09T10:33:47Z</time>
      </trkpt>
      <trkpt lat="49.19549" lon="3.93355">
        <ele>236.62</ele>
        <time>2021-08-09T10:33:55Z</time>
      </trkpt>
      <trkpt lat="49.19541" lon="3.93357">
        <ele>237.1</ele>
        <time>2021-08-09T10:34:02Z</time>
      </trkpt>
      <trkpt lat="49.19534" lon="3.9336">
        <ele>238.54</ele>
        <time>2021-08-09T10:34:07Z</time>
      </trkpt>
      <trkpt lat="49.19533" lon="3.9336">
        <ele>238.54</ele>
        <time>2021-08-09T10:34:08Z</time>
      </trkpt>
      <trkpt lat="49.19532" lon="3.93361">
        <ele>238.54</ele>
        <time>2021-08-09T10:34:09Z</time>
      </trkpt>
      <trkpt lat="49.19531" lon="3.93362">
        <ele>238.54</ele>
        <time>2021-08-09T10:34:10Z</time>
      </trkpt>
      <trkpt lat="49.19523" lon="3.93364">
        <ele>239.02</ele>
        <time>2021-08-09T10:34:16Z</time>
      </trkpt>
      <trkpt lat="49.1951" lon="3.93368">
        <ele>240.47</ele>
        <time>2021-08-09T10:34:24Z</time>
      </trkpt>
      <trkpt lat="49.19509" lon="3.93369">
        <ele>240.47</ele>
        <time>2021-08-09T10:34:25Z</time>
      </trkpt>
      <trkpt lat="49.19507" lon="3.9337">
        <ele>240.47</ele>
        <time>2021-08-09T10:34:26Z</time>
      </trkpt>
      <trkpt lat="49.19505" lon="3.93371">
        <ele>240.95</ele>
        <time>2021-08-09T10:34:27Z</time>
      </trkpt>
      <trkpt lat="49.19503" lon="3.93373">
        <ele>240.95</ele>
        <time>2021-08-09T10:34:28Z</time>
      </trkpt>
      <trkpt lat="49.195" lon="3.93375">
        <ele>240.95</ele>
        <time>2021-08-09T10:34:29Z</time>
      </trkpt>
      <trkpt lat="49.19484" lon="3.93385">
        <ele>241.43</ele>
        <time>2021-08-09T10:34:36Z</time>
      </trkpt>
      <trkpt lat="49.19467" lon="3.93394">
        <ele>242.39</ele>
        <time>2021-08-09T10:34:43Z</time>
      </trkpt>
      <trkpt lat="49.19452" lon="3.93403">
        <ele>242.87</ele>
        <time>2021-08-09T10:34:51Z</time>
      </trkpt>
      <trkpt lat="49.19435" lon="3.93416">
        <ele>243.35</ele>
        <time>2021-08-09T10:34:58Z</time>
      </trkpt>
      <trkpt lat="49.19412" lon="3.93437">
        <ele>243.35</ele>
        <time>2021-08-09T10:35:05Z</time>
      </trkpt>
      <trkpt lat="49.19397" lon="3.9345">
        <ele>243.35</ele>
        <time>2021-08-09T10:35:11Z</time>
      </trkpt>
      <trkpt lat="49.19384" lon="3.9346">
        <ele>243.35</ele>
        <time>2021-08-09T10:35:16Z</time>
      </trkpt>
      <trkpt lat="49.19382" lon="3.93463">
        <ele>243.35</ele>
        <time>2021-08-09T10:35:17Z</time>
      </trkpt>
      <trkpt lat="49.19369" lon="3.93478">
        <ele>243.35</ele>
        <time>2021-08-09T10:35:23Z</time>
      </trkpt>
      <trkpt lat="49.19349" lon="3.935">
        <ele>243.35</ele>
        <time>2021-08-09T10:35:29Z</time>
      </trkpt>
      <trkpt lat="49.19328" lon="3.93523">
        <ele>243.35</ele>
        <time>2021-08-09T10:35:35Z</time>
      </trkpt>
      <trkpt lat="49.19324" lon="3.93526">
        <ele>243.35</ele>
        <time>2021-08-09T10:35:36Z</time>
      </trkpt>
      <trkpt lat="49.19321" lon="3.93528">
        <ele>243.35</ele>
        <time>2021-08-09T10:35:37Z</time>
      </trkpt>
      <trkpt lat="49.19318" lon="3.9353">
        <ele>243.35</ele>
        <time>2021-08-09T10:35:38Z</time>
      </trkpt>
      <trkpt lat="49.19298" lon="3.93551">
        <ele>243.35</ele>
        <time>2021-08-09T10:35:45Z</time>
      </trkpt>
      <trkpt lat="49.19281" lon="3.93572">
        <ele>243.83</ele>
        <time>2021-08-09T10:35:52Z</time>
      </trkpt>
      <trkpt lat="49.19264" lon="3.93592">
        <ele>243.83</ele>
        <time>2021-08-09T10:35:59Z</time>
      </trkpt>
      <trkpt lat="49.19242" lon="3.93612">
        <ele>243.83</ele>
        <time>2021-08-09T10:36:07Z</time>
      </trkpt>
      <trkpt lat="49.19218" lon="3.93634">
        <ele>244.31</ele>
        <time>2021-08-09T10:36:14Z</time>
      </trkpt>
      <trkpt lat="49.19199" lon="3.93651">
        <ele>244.31</ele>
        <time>2021-08-09T10:36:21Z</time>
      </trkpt>
      <trkpt lat="49.19188" lon="3.93655">
        <ele>244.31</ele>
        <time>2021-08-09T10:36:26Z</time>
      </trkpt>
      <trkpt lat="49.1917" lon="3.93659">
        <ele>244.79</ele>
        <time>2021-08-09T10:36:32Z</time>
      </trkpt>
      <trkpt lat="49.19167" lon="3.9366">
        <ele>245.27</ele>
        <time>2021-08-09T10:36:33Z</time>
      </trkpt>
      <trkpt lat="49.19165" lon="3.93663">
        <ele>245.27</ele>
        <time>2021-08-09T10:36:34Z</time>
      </trkpt>
      <trkpt lat="49.19163" lon="3.93665">
        <ele>245.27</ele>
        <time>2021-08-09T10:36:35Z</time>
      </trkpt>
      <trkpt lat="49.19161" lon="3.93668">
        <ele>245.27</ele>
        <time>2021-08-09T10:36:36Z</time>
      </trkpt>
      <trkpt lat="49.19158" lon="3.9367">
        <ele>245.27</ele>
        <time>2021-08-09T10:36:37Z</time>
      </trkpt>
      <trkpt lat="49.19154" lon="3.93673">
        <ele>245.27</ele>
        <time>2021-08-09T10:36:38Z</time>
      </trkpt>
      <trkpt lat="49.19152" lon="3.93677">
        <ele>245.27</ele>
        <time>2021-08-09T10:36:39Z</time>
      </trkpt>
      <trkpt lat="49.19149" lon="3.93681">
        <ele>245.27</ele>
        <time>2021-08-09T10:36:40Z</time>
      </trkpt>
      <trkpt lat="49.19133" lon="3.93704">
        <ele>245.75</ele>
        <time>2021-08-09T10:36:47Z</time>
      </trkpt>
      <trkpt lat="49.19128" lon="3.93716">
        <ele>245.75</ele>
        <time>2021-08-09T10:36:51Z</time>
      </trkpt>
      <trkpt lat="49.19126" lon="3.93718">
        <ele>245.75</ele>
        <time>2021-08-09T10:36:52Z</time>
      </trkpt>
      <trkpt lat="49.19123" lon="3.93722">
        <ele>245.75</ele>
        <time>2021-08-09T10:36:57Z</time>
      </trkpt>
      <trkpt lat="49.19119" lon="3.93728">
        <ele>245.75</ele>
        <time>2021-08-09T10:37:06Z</time>
      </trkpt>
      <trkpt lat="49.19107" lon="3.93754">
        <ele>245.75</ele>
        <time>2021-08-09T10:37:12Z</time>
      </trkpt>
      <trkpt lat="49.19089" lon="3.93789">
        <ele>245.75</ele>
        <time>2021-08-09T10:37:20Z</time>
      </trkpt>
      <trkpt lat="49.19068" lon="3.93808">
        <ele>246.72</ele>
        <time>2021-08-09T10:37:27Z</time>
      </trkpt>
      <trkpt lat="49.19046" lon="3.93824">
        <ele>248.16</ele>
        <time>2021-08-09T10:37:35Z</time>
      </trkpt>
      <trkpt lat="49.19025" lon="3.93837">
        <ele>249.6</ele>
        <time>2021-08-09T10:37:43Z</time>
      </trkpt>
      <trkpt lat="49.19009" lon="3.93848">
        <ele>250.08</ele>
        <time>2021-08-09T10:37:49Z</time>
      </trkpt>
      <trkpt lat="49.1899" lon="3.93859">
        <ele>250.56</ele>
        <time>2021-08-09T10:37:56Z</time>
      </trkpt>
      <trkpt lat="49.18969" lon="3.93875">
        <ele>250.56</ele>
        <time>2021-08-09T10:38:03Z</time>
      </trkpt>
      <trkpt lat="49.18957" lon="3.93882">
        <ele>251.04</ele>
        <time>2021-08-09T10:38:08Z</time>
      </trkpt>
      <trkpt lat="49.18941" lon="3.93893">
        <ele>251.04</ele>
        <time>2021-08-09T10:38:13Z</time>
      </trkpt>
      <trkpt lat="49.1894" lon="3.93896">
        <ele>251.04</ele>
        <time>2021-08-09T10:38:14Z</time>
      </trkpt>
      <trkpt lat="49.18939" lon="3.93899">
        <ele>251.04</ele>
        <time>2021-08-09T10:38:15Z</time>
      </trkpt>
      <trkpt lat="49.18939" lon="3.939">
        <ele>251.04</ele>
        <time>2021-08-09T10:38:16Z</time>
      </trkpt>
      <trkpt lat="49.18942" lon="3.93911">
        <ele>251.04</ele>
        <time>2021-08-09T10:38:20Z</time>
      </trkpt>
      <trkpt lat="49.18944" lon="3.93924">
        <ele>251.04</ele>
        <time>2021-08-09T10:38:25Z</time>
      </trkpt>
      <trkpt lat="49.18947" lon="3.93924">
        <ele>249.6</ele>
        <time>2021-08-09T10:38:27Z</time>
      </trkpt>
      <trkpt lat="49.18957" lon="3.93928">
        <ele>248.64</ele>
        <time>2021-08-09T10:38:31Z</time>
      </trkpt>
      <trkpt lat="49.1896" lon="3.93926">
        <ele>248.64</ele>
        <time>2021-08-09T10:38:32Z</time>
      </trkpt>
      <trkpt lat="49.18962" lon="3.93925">
        <ele>248.64</ele>
        <time>2021-08-09T10:38:33Z</time>
      </trkpt>
      <trkpt lat="49.18967" lon="3.93923">
        <ele>248.64</ele>
        <time>2021-08-09T10:38:34Z</time>
      </trkpt>
      <trkpt lat="49.1897" lon="3.93922">
        <ele>248.64</ele>
        <time>2021-08-09T10:38:35Z</time>
      </trkpt>
      <trkpt lat="49.18973" lon="3.93922">
        <ele>248.64</ele>
        <time>2021-08-09T10:38:36Z</time>
      </trkpt>
      <trkpt lat="49.18977" lon="3.93922">
        <ele>248.64</ele>
        <time>2021-08-09T10:38:37Z</time>
      </trkpt>
      <trkpt lat="49.18981" lon="3.93923">
        <ele>249.12</ele>
        <time>2021-08-09T10:38:38Z</time>
      </trkpt>
      <trkpt lat="49.18983" lon="3.93924">
        <ele>248.64</ele>
        <time>2021-08-09T10:38:39Z</time>
      </trkpt>
      <trkpt lat="49.18985" lon="3.93927">
        <ele>248.64</ele>
        <time>2021-08-09T10:38:40Z</time>
      </trkpt>
      <trkpt lat="49.18987" lon="3.93928">
        <ele>247.68</ele>
        <time>2021-08-09T10:38:41Z</time>
      </trkpt>
      <trkpt lat="49.19001" lon="3.93929">
        <ele>247.2</ele>
        <time>2021-08-09T10:38:46Z</time>
      </trkpt>
      <trkpt lat="49.19003" lon="3.9393">
        <ele>247.2</ele>
        <time>2021-08-09T10:38:47Z</time>
      </trkpt>
      <trkpt lat="49.19006" lon="3.93932">
        <ele>246.72</ele>
        <time>2021-08-09T10:38:48Z</time>
      </trkpt>
      <trkpt lat="49.19009" lon="3.93933">
        <ele>246.72</ele>
        <time>2021-08-09T10:38:49Z</time>
      </trkpt>
      <trkpt lat="49.19011" lon="3.93934">
        <ele>246.23</ele>
        <time>2021-08-09T10:38:50Z</time>
      </trkpt>
      <trkpt lat="49.19014" lon="3.93936">
        <ele>246.23</ele>
        <time>2021-08-09T10:38:51Z</time>
      </trkpt>
      <trkpt lat="49.19016" lon="3.93937">
        <ele>245.27</ele>
        <time>2021-08-09T10:38:52Z</time>
      </trkpt>
      <trkpt lat="49.19018" lon="3.93938">
        <ele>245.27</ele>
        <time>2021-08-09T10:38:53Z</time>
      </trkpt>
      <trkpt lat="49.19021" lon="3.93939">
        <ele>244.79</ele>
        <time>2021-08-09T10:38:54Z</time>
      </trkpt>
      <trkpt lat="49.19025" lon="3.9394">
        <ele>244.79</ele>
        <time>2021-08-09T10:38:55Z</time>
      </trkpt>
      <trkpt lat="49.19029" lon="3.93942">
        <ele>243.83</ele>
        <time>2021-08-09T10:38:56Z</time>
      </trkpt>
      <trkpt lat="49.19033" lon="3.93943">
        <ele>243.83</ele>
        <time>2021-08-09T10:38:57Z</time>
      </trkpt>
      <trkpt lat="49.19037" lon="3.93943">
        <ele>242.87</ele>
        <time>2021-08-09T10:38:58Z</time>
      </trkpt>
      <trkpt lat="49.19044" lon="3.93947">
        <ele>242.39</ele>
        <time>2021-08-09T10:38:59Z</time>
      </trkpt>
      <trkpt lat="49.19048" lon="3.93948">
        <ele>241.91</ele>
        <time>2021-08-09T10:39:00Z</time>
      </trkpt>
      <trkpt lat="49.1905" lon="3.9395">
        <ele>241.43</ele>
        <time>2021-08-09T10:39:01Z</time>
      </trkpt>
      <trkpt lat="49.19054" lon="3.93952">
        <ele>240.47</ele>
        <time>2021-08-09T10:39:02Z</time>
      </trkpt>
      <trkpt lat="49.19061" lon="3.93954">
        <ele>240.47</ele>
        <time>2021-08-09T10:39:03Z</time>
      </trkpt>
      <trkpt lat="49.19069" lon="3.93956">
        <ele>239.99</ele>
        <time>2021-08-09T10:39:04Z</time>
      </trkpt>
      <trkpt lat="49.19077" lon="3.93957">
        <ele>239.02</ele>
        <time>2021-08-09T10:39:06Z</time>
      </trkpt>
      <trkpt lat="49.1908" lon="3.9396">
        <ele>239.02</ele>
        <time>2021-08-09T10:39:07Z</time>
      </trkpt>
      <trkpt lat="49.19083" lon="3.93983">
        <ele>238.54</ele>
        <time>2021-08-09T10:39:12Z</time>
      </trkpt>
      <trkpt lat="49.19077" lon="3.94018">
        <ele>238.06</ele>
        <time>2021-08-09T10:39:19Z</time>
      </trkpt>
      <trkpt lat="49.19068" lon="3.94052">
        <ele>237.58</ele>
        <time>2021-08-09T10:39:26Z</time>
      </trkpt>
      <trkpt lat="49.19062" lon="3.94061">
        <ele>237.58</ele>
        <time>2021-08-09T10:39:28Z</time>
      </trkpt>
      <trkpt lat="49.19043" lon="3.94085">
        <ele>237.58</ele>
        <time>2021-08-09T10:39:33Z</time>
      </trkpt>
      <trkpt lat="49.19022" lon="3.9412">
        <ele>237.1</ele>
        <time>2021-08-09T10:39:40Z</time>
      </trkpt>
      <trkpt lat="49.19018" lon="3.94122">
        <ele>236.62</ele>
        <time>2021-08-09T10:39:44Z</time>
      </trkpt>
      <trkpt lat="49.19018" lon="3.94121">
        <ele>236.62</ele>
        <time>2021-08-09T10:39:49Z</time>
      </trkpt>
      <trkpt lat="49.19021" lon="3.94121">
        <ele>236.62</ele>
        <time>2021-08-09T10:39:56Z</time>
      </trkpt>
      <trkpt lat="49.19019" lon="3.94119">
        <ele>236.62</ele>
        <time>2021-08-09T10:40:02Z</time>
      </trkpt>
      <trkpt lat="49.19019" lon="3.94119">
        <ele>236.62</ele>
        <time>2021-08-09T10:40:17Z</time>
      </trkpt>
      <trkpt lat="49.1901" lon="3.94118">
        <ele>238.06</ele>
        <time>2021-08-09T10:40:24Z</time>
      </trkpt>
      <trkpt lat="49.19005" lon="3.94116">
        <ele>239.51</ele>
        <time>2021-08-09T10:40:30Z</time>
      </trkpt>
      <trkpt lat="49.1899" lon="3.94119">
        <ele>239.51</ele>
        <time>2021-08-09T10:40:37Z</time>
      </trkpt>
      <trkpt lat="49.18984" lon="3.94115">
        <ele>240.47</ele>
        <time>2021-08-09T10:40:44Z</time>
      </trkpt>
      <trkpt lat="49.18982" lon="3.94108">
        <ele>240.95</ele>
        <time>2021-08-09T10:40:49Z</time>
      </trkpt>
      <trkpt lat="49.18977" lon="3.94105">
        <ele>241.43</ele>
        <time>2021-08-09T10:40:51Z</time>
      </trkpt>
      <trkpt lat="49.18973" lon="3.94108">
        <ele>241.43</ele>
        <time>2021-08-09T10:40:55Z</time>
      </trkpt>
      <trkpt lat="49.18959" lon="3.94112">
        <ele>241.91</ele>
        <time>2021-08-09T10:41:03Z</time>
      </trkpt>
      <trkpt lat="49.18958" lon="3.94112">
        <ele>242.39</ele>
        <time>2021-08-09T10:41:04Z</time>
      </trkpt>
      <trkpt lat="49.18952" lon="3.94116">
        <ele>242.39</ele>
        <time>2021-08-09T10:41:08Z</time>
      </trkpt>
      <trkpt lat="49.18948" lon="3.94118">
        <ele>242.87</ele>
        <time>2021-08-09T10:41:10Z</time>
      </trkpt>
      <trkpt lat="49.18945" lon="3.94119">
        <ele>242.87</ele>
        <time>2021-08-09T10:41:11Z</time>
      </trkpt>
      <trkpt lat="49.18943" lon="3.9412">
        <ele>242.87</ele>
        <time>2021-08-09T10:41:12Z</time>
      </trkpt>
      <trkpt lat="49.18941" lon="3.94121">
        <ele>242.87</ele>
        <time>2021-08-09T10:41:13Z</time>
      </trkpt>
      <trkpt lat="49.18939" lon="3.94122">
        <ele>242.87</ele>
        <time>2021-08-09T10:41:14Z</time>
      </trkpt>
      <trkpt lat="49.18937" lon="3.94122">
        <ele>243.35</ele>
        <time>2021-08-09T10:41:15Z</time>
      </trkpt>
      <trkpt lat="49.18935" lon="3.94122">
        <ele>243.35</ele>
        <time>2021-08-09T10:41:16Z</time>
      </trkpt>
      <trkpt lat="49.18933" lon="3.94123">
        <ele>243.35</ele>
        <time>2021-08-09T10:41:17Z</time>
      </trkpt>
      <trkpt lat="49.18931" lon="3.94124">
        <ele>243.35</ele>
        <time>2021-08-09T10:41:18Z</time>
      </trkpt>
      <trkpt lat="49.18929" lon="3.94126">
        <ele>243.35</ele>
        <time>2021-08-09T10:41:19Z</time>
      </trkpt>
      <trkpt lat="49.18927" lon="3.94128">
        <ele>243.35</ele>
        <time>2021-08-09T10:41:20Z</time>
      </trkpt>
      <trkpt lat="49.18926" lon="3.94131">
        <ele>243.35</ele>
        <time>2021-08-09T10:41:21Z</time>
      </trkpt>
      <trkpt lat="49.18923" lon="3.94133">
        <ele>243.35</ele>
        <time>2021-08-09T10:41:22Z</time>
      </trkpt>
      <trkpt lat="49.18921" lon="3.94135">
        <ele>243.35</ele>
        <time>2021-08-09T10:41:23Z</time>
      </trkpt>
      <trkpt lat="49.18919" lon="3.94137">
        <ele>243.35</ele>
        <time>2021-08-09T10:41:24Z</time>
      </trkpt>
      <trkpt lat="49.18917" lon="3.9414">
        <ele>243.35</ele>
        <time>2021-08-09T10:41:25Z</time>
      </trkpt>
      <trkpt lat="49.18916" lon="3.94142">
        <ele>243.35</ele>
        <time>2021-08-09T10:41:26Z</time>
      </trkpt>
      <trkpt lat="49.18915" lon="3.94145">
        <ele>243.35</ele>
        <time>2021-08-09T10:41:27Z</time>
      </trkpt>
      <trkpt lat="49.18914" lon="3.94148">
        <ele>243.35</ele>
        <time>2021-08-09T10:41:28Z</time>
      </trkpt>
      <trkpt lat="49.18913" lon="3.94151">
        <ele>243.35</ele>
        <time>2021-08-09T10:41:29Z</time>
      </trkpt>
      <trkpt lat="49.18912" lon="3.94155">
        <ele>241.91</ele>
        <time>2021-08-09T10:41:30Z</time>
      </trkpt>
      <trkpt lat="49.1891" lon="3.94159">
        <ele>241.91</ele>
        <time>2021-08-09T10:41:31Z</time>
      </trkpt>
      <trkpt lat="49.18908" lon="3.94162">
        <ele>241.91</ele>
        <time>2021-08-09T10:41:32Z</time>
      </trkpt>
      <trkpt lat="49.18906" lon="3.94165">
        <ele>241.91</ele>
        <time>2021-08-09T10:41:33Z</time>
      </trkpt>
      <trkpt lat="49.18905" lon="3.94169">
        <ele>241.91</ele>
        <time>2021-08-09T10:41:34Z</time>
      </trkpt>
      <trkpt lat="49.18903" lon="3.94173">
        <ele>242.39</ele>
        <time>2021-08-09T10:41:35Z</time>
      </trkpt>
      <trkpt lat="49.18902" lon="3.94177">
        <ele>241.43</ele>
        <time>2021-08-09T10:41:36Z</time>
      </trkpt>
      <trkpt lat="49.18903" lon="3.94181">
        <ele>240.95</ele>
        <time>2021-08-09T10:41:37Z</time>
      </trkpt>
      <trkpt lat="49.18903" lon="3.94183">
        <ele>240.47</ele>
        <time>2021-08-09T10:41:38Z</time>
      </trkpt>
      <trkpt lat="49.18901" lon="3.94189">
        <ele>240.47</ele>
        <time>2021-08-09T10:41:39Z</time>
      </trkpt>
      <trkpt lat="49.18899" lon="3.94193">
        <ele>240.47</ele>
        <time>2021-08-09T10:41:40Z</time>
      </trkpt>
      <trkpt lat="49.18898" lon="3.94198">
        <ele>240.47</ele>
        <time>2021-08-09T10:41:41Z</time>
      </trkpt>
      <trkpt lat="49.18896" lon="3.94204">
        <ele>239.51</ele>
        <time>2021-08-09T10:41:42Z</time>
      </trkpt>
      <trkpt lat="49.18894" lon="3.94209">
        <ele>239.51</ele>
        <time>2021-08-09T10:41:43Z</time>
      </trkpt>
      <trkpt lat="49.18893" lon="3.94213">
        <ele>238.54</ele>
        <time>2021-08-09T10:41:44Z</time>
      </trkpt>
      <trkpt lat="49.18891" lon="3.94219">
        <ele>238.54</ele>
        <time>2021-08-09T10:41:45Z</time>
      </trkpt>
      <trkpt lat="49.18889" lon="3.94222">
        <ele>238.54</ele>
        <time>2021-08-09T10:41:46Z</time>
      </trkpt>
      <trkpt lat="49.1888" lon="3.94242">
        <ele>237.1</ele>
        <time>2021-08-09T10:41:51Z</time>
      </trkpt>
      <trkpt lat="49.18874" lon="3.9427">
        <ele>234.22</ele>
        <time>2021-08-09T10:41:55Z</time>
      </trkpt>
      <trkpt lat="49.18868" lon="3.94295">
        <ele>233.26</ele>
        <time>2021-08-09T10:42:01Z</time>
      </trkpt>
      <trkpt lat="49.18854" lon="3.94305">
        <ele>234.22</ele>
        <time>2021-08-09T10:42:07Z</time>
      </trkpt>
      <trkpt lat="49.18833" lon="3.94304">
        <ele>236.14</ele>
        <time>2021-08-09T10:42:15Z</time>
      </trkpt>
      <trkpt lat="49.18826" lon="3.94301">
        <ele>236.14</ele>
        <time>2021-08-09T10:42:18Z</time>
      </trkpt>
      <trkpt lat="49.18805" lon="3.9429">
        <ele>237.58</ele>
        <time>2021-08-09T10:42:28Z</time>
      </trkpt>
      <trkpt lat="49.18793" lon="3.94282">
        <ele>238.54</ele>
        <time>2021-08-09T10:42:36Z</time>
      </trkpt>
      <trkpt lat="49.1878" lon="3.94273">
        <ele>239.51</ele>
        <time>2021-08-09T10:42:45Z</time>
      </trkpt>
      <trkpt lat="49.1877" lon="3.94264">
        <ele>241.43</ele>
        <time>2021-08-09T10:42:53Z</time>
      </trkpt>
      <trkpt lat="49.1876" lon="3.94255">
        <ele>241.91</ele>
        <time>2021-08-09T10:42:59Z</time>
      </trkpt>
      <trkpt lat="49.18749" lon="3.94245">
        <ele>242.87</ele>
        <time>2021-08-09T10:43:07Z</time>
      </trkpt>
      <trkpt lat="49.18746" lon="3.94241">
        <ele>243.83</ele>
        <time>2021-08-09T10:43:09Z</time>
      </trkpt>
      <trkpt lat="49.1874" lon="3.94234">
        <ele>243.83</ele>
        <time>2021-08-09T10:43:13Z</time>
      </trkpt>
      <trkpt lat="49.18727" lon="3.94221">
        <ele>244.79</ele>
        <time>2021-08-09T10:43:21Z</time>
      </trkpt>
      <trkpt lat="49.18717" lon="3.94213">
        <ele>244.79</ele>
        <time>2021-08-09T10:43:26Z</time>
      </trkpt>
      <trkpt lat="49.18709" lon="3.94207">
        <ele>245.75</ele>
        <time>2021-08-09T10:43:31Z</time>
      </trkpt>
      <trkpt lat="49.18703" lon="3.94202">
        <ele>246.23</ele>
        <time>2021-08-09T10:43:36Z</time>
      </trkpt>
      <trkpt lat="49.18697" lon="3.94196">
        <ele>246.23</ele>
        <time>2021-08-09T10:43:41Z</time>
      </trkpt>
      <trkpt lat="49.18678" lon="3.94183">
        <ele>247.2</ele>
        <time>2021-08-09T10:43:49Z</time>
      </trkpt>
      <trkpt lat="49.1867" lon="3.94178">
        <ele>248.64</ele>
        <time>2021-08-09T10:43:54Z</time>
      </trkpt>
      <trkpt lat="49.18653" lon="3.94177">
        <ele>248.64</ele>
        <time>2021-08-09T10:43:58Z</time>
      </trkpt>
      <trkpt lat="49.18654" lon="3.94179">
        <ele>248.64</ele>
        <time>2021-08-09T10:43:59Z</time>
      </trkpt>
      <trkpt lat="49.18655" lon="3.94182">
        <ele>248.64</ele>
        <time>2021-08-09T10:44:00Z</time>
      </trkpt>
      <trkpt lat="49.18659" lon="3.94188">
        <ele>247.2</ele>
        <time>2021-08-09T10:44:02Z</time>
      </trkpt>
      <trkpt lat="49.18661" lon="3.94193">
        <ele>246.23</ele>
        <time>2021-08-09T10:44:03Z</time>
      </trkpt>
      <trkpt lat="49.18664" lon="3.94198">
        <ele>245.75</ele>
        <time>2021-08-09T10:44:04Z</time>
      </trkpt>
      <trkpt lat="49.18676" lon="3.94219">
        <ele>242.39</ele>
        <time>2021-08-09T10:44:08Z</time>
      </trkpt>
      <trkpt lat="49.18699" lon="3.94255">
        <ele>239.02</ele>
        <time>2021-08-09T10:44:15Z</time>
      </trkpt>
      <trkpt lat="49.18719" lon="3.94283">
        <ele>235.66</ele>
        <time>2021-08-09T10:44:20Z</time>
      </trkpt>
      <trkpt lat="49.18739" lon="3.94307">
        <ele>232.3</ele>
        <time>2021-08-09T10:44:25Z</time>
      </trkpt>
      <trkpt lat="49.18747" lon="3.94324">
        <ele>229.89</ele>
        <time>2021-08-09T10:44:29Z</time>
      </trkpt>
      <trkpt lat="49.18755" lon="3.94341">
        <ele>226.53</ele>
        <time>2021-08-09T10:44:32Z</time>
      </trkpt>
      <trkpt lat="49.18759" lon="3.94346">
        <ele>225.09</ele>
        <time>2021-08-09T10:44:33Z</time>
      </trkpt>
      <trkpt lat="49.18763" lon="3.94352">
        <ele>224.12</ele>
        <time>2021-08-09T10:44:34Z</time>
      </trkpt>
      <trkpt lat="49.18774" lon="3.94362">
        <ele>222.2</ele>
        <time>2021-08-09T10:44:36Z</time>
      </trkpt>
      <trkpt lat="49.18779" lon="3.94367">
        <ele>220.76</ele>
        <time>2021-08-09T10:44:37Z</time>
      </trkpt>
      <trkpt lat="49.18782" lon="3.94373">
        <ele>219.8</ele>
        <time>2021-08-09T10:44:38Z</time>
      </trkpt>
      <trkpt lat="49.18784" lon="3.94377">
        <ele>219.32</ele>
        <time>2021-08-09T10:44:39Z</time>
      </trkpt>
      <trkpt lat="49.18784" lon="3.94382">
        <ele>218.84</ele>
        <time>2021-08-09T10:44:40Z</time>
      </trkpt>
      <trkpt lat="49.18782" lon="3.94386">
        <ele>217.88</ele>
        <time>2021-08-09T10:44:41Z</time>
      </trkpt>
      <trkpt lat="49.18778" lon="3.94388">
        <ele>217.88</ele>
        <time>2021-08-09T10:44:42Z</time>
      </trkpt>
      <trkpt lat="49.18774" lon="3.94388">
        <ele>217.88</ele>
        <time>2021-08-09T10:44:43Z</time>
      </trkpt>
      <trkpt lat="49.18771" lon="3.94387">
        <ele>217.4</ele>
        <time>2021-08-09T10:44:44Z</time>
      </trkpt>
      <trkpt lat="49.18767" lon="3.94386">
        <ele>217.4</ele>
        <time>2021-08-09T10:44:45Z</time>
      </trkpt>
      <trkpt lat="49.18746" lon="3.94386">
        <ele>217.4</ele>
        <time>2021-08-09T10:44:52Z</time>
      </trkpt>
      <trkpt lat="49.18724" lon="3.9439">
        <ele>214.03</ele>
        <time>2021-08-09T10:44:57Z</time>
      </trkpt>
      <trkpt lat="49.18717" lon="3.9439">
        <ele>213.07</ele>
        <time>2021-08-09T10:44:58Z</time>
      </trkpt>
      <trkpt lat="49.18696" lon="3.94389">
        <ele>211.63</ele>
        <time>2021-08-09T10:45:01Z</time>
      </trkpt>
      <trkpt lat="49.18654" lon="3.94388">
        <ele>208.26</ele>
        <time>2021-08-09T10:45:07Z</time>
      </trkpt>
      <trkpt lat="49.18597" lon="3.94393">
        <ele>206.82</ele>
        <time>2021-08-09T10:45:15Z</time>
      </trkpt>
      <trkpt lat="49.1859" lon="3.94394">
        <ele>206.82</ele>
        <time>2021-08-09T10:45:16Z</time>
      </trkpt>
      <trkpt lat="49.18584" lon="3.94395">
        <ele>206.82</ele>
        <time>2021-08-09T10:45:17Z</time>
      </trkpt>
      <trkpt lat="49.18556" lon="3.94395">
        <ele>208.26</ele>
        <time>2021-08-09T10:45:23Z</time>
      </trkpt>
      <trkpt lat="49.18535" lon="3.94394">
        <ele>209.7</ele>
        <time>2021-08-09T10:45:31Z</time>
      </trkpt>
      <trkpt lat="49.18519" lon="3.94394">
        <ele>211.15</ele>
        <time>2021-08-09T10:45:39Z</time>
      </trkpt>
      <trkpt lat="49.18502" lon="3.94393">
        <ele>212.59</ele>
        <time>2021-08-09T10:45:48Z</time>
      </trkpt>
      <trkpt lat="49.18481" lon="3.94399">
        <ele>214.03</ele>
        <time>2021-08-09T10:45:58Z</time>
      </trkpt>
      <trkpt lat="49.18466" lon="3.94414">
        <ele>214.03</ele>
        <time>2021-08-09T10:46:05Z</time>
      </trkpt>
      <trkpt lat="49.1846" lon="3.94444">
        <ele>211.15</ele>
        <time>2021-08-09T10:46:10Z</time>
      </trkpt>
      <trkpt lat="49.18457" lon="3.94473">
        <ele>206.82</ele>
        <time>2021-08-09T10:46:13Z</time>
      </trkpt>
      <trkpt lat="49.18456" lon="3.94483">
        <ele>203.94</ele>
        <time>2021-08-09T10:46:14Z</time>
      </trkpt>
      <trkpt lat="49.18456" lon="3.94493">
        <ele>202.49</ele>
        <time>2021-08-09T10:46:15Z</time>
      </trkpt>
      <trkpt lat="49.18458" lon="3.94504">
        <ele>200.57</ele>
        <time>2021-08-09T10:46:16Z</time>
      </trkpt>
      <trkpt lat="49.18461" lon="3.94516">
        <ele>198.65</ele>
        <time>2021-08-09T10:46:17Z</time>
      </trkpt>
      <trkpt lat="49.18465" lon="3.9453">
        <ele>196.25</ele>
        <time>2021-08-09T10:46:18Z</time>
      </trkpt>
      <trkpt lat="49.18471" lon="3.94545">
        <ele>193.84</ele>
        <time>2021-08-09T10:46:19Z</time>
      </trkpt>
      <trkpt lat="49.18478" lon="3.94562">
        <ele>191.92</ele>
        <time>2021-08-09T10:46:20Z</time>
      </trkpt>
      <trkpt lat="49.1849" lon="3.94593">
        <ele>189.04</ele>
        <time>2021-08-09T10:46:22Z</time>
      </trkpt>
      <trkpt lat="49.18511" lon="3.94644">
        <ele>186.63</ele>
        <time>2021-08-09T10:46:26Z</time>
      </trkpt>
      <trkpt lat="49.18516" lon="3.94651">
        <ele>186.15</ele>
        <time>2021-08-09T10:46:27Z</time>
      </trkpt>
      <trkpt lat="49.18531" lon="3.94673">
        <ele>184.71</ele>
        <time>2021-08-09T10:46:31Z</time>
      </trkpt>
      <trkpt lat="49.18539" lon="3.94695">
        <ele>182.79</ele>
        <time>2021-08-09T10:46:34Z</time>
      </trkpt>
      <trkpt lat="49.18541" lon="3.94702">
        <ele>182.79</ele>
        <time>2021-08-09T10:46:35Z</time>
      </trkpt>
      <trkpt lat="49.18543" lon="3.94708">
        <ele>185.67</ele>
        <time>2021-08-09T10:46:36Z</time>
      </trkpt>
      <trkpt lat="49.18543" lon="3.94711">
        <ele>185.19</ele>
        <time>2021-08-09T10:46:37Z</time>
      </trkpt>
      <trkpt lat="49.18544" lon="3.94714">
        <ele>185.67</ele>
        <time>2021-08-09T10:46:38Z</time>
      </trkpt>
      <trkpt lat="49.18543" lon="3.94716">
        <ele>186.63</ele>
        <time>2021-08-09T10:46:42Z</time>
      </trkpt>
      <trkpt lat="49.18544" lon="3.94715">
        <ele>186.63</ele>
        <time>2021-08-09T10:46:56Z</time>
      </trkpt>
      <trkpt lat="49.18544" lon="3.94716">
        <ele>186.63</ele>
        <time>2021-08-09T10:47:22Z</time>
      </trkpt>
      <trkpt lat="49.18544" lon="3.94716">
        <ele>186.63</ele>
        <time>2021-08-09T10:47:43Z</time>
      </trkpt>
      <trkpt lat="49.18544" lon="3.94716">
        <ele>186.63</ele>
        <time>2021-08-09T10:48:01Z</time>
      </trkpt>
      <trkpt lat="49.18545" lon="3.94716">
        <ele>187.11</ele>
        <time>2021-08-09T10:48:20Z</time>
      </trkpt>
      <trkpt lat="49.18545" lon="3.94717">
        <ele>187.11</ele>
        <time>2021-08-09T10:48:34Z</time>
      </trkpt>
      <trkpt lat="49.18545" lon="3.94717">
        <ele>187.11</ele>
        <time>2021-08-09T10:48:48Z</time>
      </trkpt>
      <trkpt lat="49.18545" lon="3.94716">
        <ele>185.67</ele>
        <time>2021-08-09T10:49:06Z</time>
      </trkpt>
      <trkpt lat="49.18545" lon="3.94715">
        <ele>185.67</ele>
        <time>2021-08-09T10:49:22Z</time>
      </trkpt>
      <trkpt lat="49.18542" lon="3.94714">
        <ele>185.67</ele>
        <time>2021-08-09T10:49:42Z</time>
      </trkpt>
      <trkpt lat="49.18542" lon="3.94714">
        <ele>185.67</ele>
        <time>2021-08-09T10:50:02Z</time>
      </trkpt>
      <trkpt lat="49.18546" lon="3.94718">
        <ele>185.67</ele>
        <time>2021-08-09T10:50:15Z</time>
      </trkpt>
      <trkpt lat="49.18547" lon="3.94717">
        <ele>185.67</ele>
        <time>2021-08-09T10:50:20Z</time>
      </trkpt>
      <trkpt lat="49.18545" lon="3.94716">
        <ele>185.67</ele>
        <time>2021-08-09T10:50:32Z</time>
      </trkpt>
      <trkpt lat="49.18545" lon="3.94713">
        <ele>185.67</ele>
        <time>2021-08-09T10:50:44Z</time>
      </trkpt>
      <trkpt lat="49.18545" lon="3.94711">
        <ele>185.67</ele>
        <time>2021-08-09T10:50:45Z</time>
      </trkpt>
      <trkpt lat="49.18542" lon="3.94696">
        <ele>184.71</ele>
        <time>2021-08-09T10:50:55Z</time>
      </trkpt>
      <trkpt lat="49.18544" lon="3.94694">
        <ele>183.75</ele>
        <time>2021-08-09T10:51:02Z</time>
      </trkpt>
      <trkpt lat="49.18544" lon="3.94694">
        <ele>183.75</ele>
        <time>2021-08-09T10:51:09Z</time>
      </trkpt>
      <trkpt lat="49.18543" lon="3.94694">
        <ele>183.75</ele>
        <time>2021-08-09T10:51:22Z</time>
      </trkpt>
      <trkpt lat="49.18543" lon="3.94694">
        <ele>183.75</ele>
        <time>2021-08-09T10:51:39Z</time>
      </trkpt>
      <trkpt lat="49.18542" lon="3.94693">
        <ele>183.75</ele>
        <time>2021-08-09T10:51:57Z</time>
      </trkpt>
      <trkpt lat="49.18542" lon="3.94693">
        <ele>183.75</ele>
        <time>2021-08-09T10:52:10Z</time>
      </trkpt>
      <trkpt lat="49.18542" lon="3.94693">
        <ele>183.75</ele>
        <time>2021-08-09T10:52:20Z</time>
      </trkpt>
      <trkpt lat="49.18543" lon="3.94694">
        <ele>183.75</ele>
        <time>2021-08-09T10:52:32Z</time>
      </trkpt>
      <trkpt lat="49.18543" lon="3.94695">
        <ele>183.75</ele>
        <time>2021-08-09T10:52:45Z</time>
      </trkpt>
      <trkpt lat="49.18543" lon="3.94695">
        <ele>183.75</ele>
        <time>2021-08-09T10:52:57Z</time>
      </trkpt>
      <trkpt lat="49.18543" lon="3.94694">
        <ele>183.27</ele>
        <time>2021-08-09T10:53:11Z</time>
      </trkpt>
      <trkpt lat="49.18542" lon="3.94692">
        <ele>183.27</ele>
        <time>2021-08-09T10:53:27Z</time>
      </trkpt>
      <trkpt lat="49.18542" lon="3.94693">
        <ele>183.27</ele>
        <time>2021-08-09T10:53:40Z</time>
      </trkpt>
      <trkpt lat="49.18542" lon="3.94694">
        <ele>183.27</ele>
        <time>2021-08-09T10:53:54Z</time>
      </trkpt>
      <trkpt lat="49.18542" lon="3.94695">
        <ele>183.27</ele>
        <time>2021-08-09T10:54:05Z</time>
      </trkpt>
      <trkpt lat="49.18542" lon="3.94696">
        <ele>183.27</ele>
        <time>2021-08-09T10:54:20Z</time>
      </trkpt>
      <trkpt lat="49.18542" lon="3.94696">
        <ele>183.27</ele>
        <time>2021-08-09T10:54:34Z</time>
      </trkpt>
      <trkpt lat="49.18542" lon="3.94695">
        <ele>183.27</ele>
        <time>2021-08-09T10:54:51Z</time>
      </trkpt>
      <trkpt lat="49.18541" lon="3.94694">
        <ele>183.27</ele>
        <time>2021-08-09T10:55:06Z</time>
      </trkpt>
      <trkpt lat="49.18541" lon="3.94694">
        <ele>183.27</ele>
        <time>2021-08-09T10:55:12Z</time>
      </trkpt>
      <trkpt lat="49.1854" lon="3.94695">
        <ele>183.27</ele>
        <time>2021-08-09T10:55:18Z</time>
      </trkpt>
      <trkpt lat="49.1854" lon="3.94695">
        <ele>183.27</ele>
        <time>2021-08-09T10:55:25Z</time>
      </trkpt>
      <trkpt lat="49.18541" lon="3.94695">
        <ele>183.27</ele>
        <time>2021-08-09T10:55:44Z</time>
      </trkpt>
      <trkpt lat="49.18542" lon="3.94694">
        <ele>183.27</ele>
        <time>2021-08-09T10:56:01Z</time>
      </trkpt>
      <trkpt lat="49.18543" lon="3.94693">
        <ele>183.27</ele>
        <time>2021-08-09T10:56:13Z</time>
      </trkpt>
      <trkpt lat="49.18543" lon="3.94694">
        <ele>183.27</ele>
        <time>2021-08-09T10:56:28Z</time>
      </trkpt>
      <trkpt lat="49.18542" lon="3.94693">
        <ele>183.27</ele>
        <time>2021-08-09T10:56:43Z</time>
      </trkpt>
      <trkpt lat="49.18543" lon="3.94692">
        <ele>183.27</ele>
        <time>2021-08-09T10:56:58Z</time>
      </trkpt>
      <trkpt lat="49.18543" lon="3.94692">
        <ele>183.27</ele>
        <time>2021-08-09T10:57:17Z</time>
      </trkpt>
      <trkpt lat="49.18543" lon="3.94692">
        <ele>184.71</ele>
        <time>2021-08-09T10:57:32Z</time>
      </trkpt>
      <trkpt lat="49.18543" lon="3.94691">
        <ele>184.71</ele>
        <time>2021-08-09T10:57:50Z</time>
      </trkpt>
      <trkpt lat="49.18542" lon="3.94691">
        <ele>184.71</ele>
        <time>2021-08-09T10:58:03Z</time>
      </trkpt>
      <trkpt lat="49.18542" lon="3.94692">
        <ele>184.71</ele>
        <time>2021-08-09T10:58:18Z</time>
      </trkpt>
      <trkpt lat="49.18543" lon="3.94693">
        <ele>184.23</ele>
        <time>2021-08-09T10:58:37Z</time>
      </trkpt>
      <trkpt lat="49.18543" lon="3.94693">
        <ele>184.23</ele>
        <time>2021-08-09T10:58:48Z</time>
      </trkpt>
      <trkpt lat="49.18542" lon="3.94694">
        <ele>184.23</ele>
        <time>2021-08-09T10:59:05Z</time>
      </trkpt>
      <trkpt lat="49.18541" lon="3.94694">
        <ele>184.23</ele>
        <time>2021-08-09T10:59:22Z</time>
      </trkpt>
      <trkpt lat="49.18539" lon="3.94693">
        <ele>184.23</ele>
        <time>2021-08-09T10:59:45Z</time>
      </trkpt>
      <trkpt lat="49.18539" lon="3.94692">
        <ele>184.23</ele>
        <time>2021-08-09T10:59:59Z</time>
      </trkpt>
      <trkpt lat="49.1854" lon="3.94694">
        <ele>184.23</ele>
        <time>2021-08-09T11:00:12Z</time>
      </trkpt>
      <trkpt lat="49.18541" lon="3.94694">
        <ele>184.23</ele>
        <time>2021-08-09T11:00:17Z</time>
      </trkpt>
      <trkpt lat="49.18542" lon="3.94695">
        <ele>184.23</ele>
        <time>2021-08-09T11:00:18Z</time>
      </trkpt>
      <trkpt lat="49.18542" lon="3.94694">
        <ele>184.23</ele>
        <time>2021-08-09T11:00:24Z</time>
      </trkpt>
      <trkpt lat="49.18541" lon="3.94692">
        <ele>184.23</ele>
        <time>2021-08-09T11:00:48Z</time>
      </trkpt>
      <trkpt lat="49.1854" lon="3.94689">
        <ele>184.23</ele>
        <time>2021-08-09T11:00:54Z</time>
      </trkpt>
      <trkpt lat="49.18539" lon="3.94689">
        <ele>184.23</ele>
        <time>2021-08-09T11:00:56Z</time>
      </trkpt>
      <trkpt lat="49.18537" lon="3.94689">
        <ele>182.79</ele>
        <time>2021-08-09T11:00:58Z</time>
      </trkpt>
      <trkpt lat="49.18536" lon="3.94689">
        <ele>182.79</ele>
        <time>2021-08-09T11:00:59Z</time>
      </trkpt>
      <trkpt lat="49.18531" lon="3.94696">
        <ele>182.79</ele>
        <time>2021-08-09T11:01:03Z</time>
      </trkpt>
      <trkpt lat="49.1853" lon="3.947">
        <ele>182.31</ele>
        <time>2021-08-09T11:01:04Z</time>
      </trkpt>
      <trkpt lat="49.18528" lon="3.94704">
        <ele>181.83</ele>
        <time>2021-08-09T11:01:05Z</time>
      </trkpt>
      <trkpt lat="49.18519" lon="3.94717">
        <ele>181.35</ele>
        <time>2021-08-09T11:01:09Z</time>
      </trkpt>
      <trkpt lat="49.18516" lon="3.94716">
        <ele>181.35</ele>
        <time>2021-08-09T11:01:10Z</time>
      </trkpt>
      <trkpt lat="49.18514" lon="3.94714">
        <ele>181.35</ele>
        <time>2021-08-09T11:01:11Z</time>
      </trkpt>
      <trkpt lat="49.18512" lon="3.94712">
        <ele>181.35</ele>
        <time>2021-08-09T11:01:12Z</time>
      </trkpt>
      <trkpt lat="49.18512" lon="3.9471">
        <ele>181.35</ele>
        <time>2021-08-09T11:01:13Z</time>
      </trkpt>
      <trkpt lat="49.1851" lon="3.94707">
        <ele>181.35</ele>
        <time>2021-08-09T11:01:14Z</time>
      </trkpt>
      <trkpt lat="49.1851" lon="3.94705">
        <ele>181.35</ele>
        <time>2021-08-09T11:01:15Z</time>
      </trkpt>
      <trkpt lat="49.18509" lon="3.94702">
        <ele>182.31</ele>
        <time>2021-08-09T11:01:16Z</time>
      </trkpt>
      <trkpt lat="49.18508" lon="3.947">
        <ele>182.31</ele>
        <time>2021-08-09T11:01:17Z</time>
      </trkpt>
      <trkpt lat="49.18503" lon="3.94684">
        <ele>184.23</ele>
        <time>2021-08-09T11:01:23Z</time>
      </trkpt>
      <trkpt lat="49.18494" lon="3.94667">
        <ele>185.19</ele>
        <time>2021-08-09T11:01:30Z</time>
      </trkpt>
      <trkpt lat="49.18483" lon="3.94667">
        <ele>185.19</ele>
        <time>2021-08-09T11:01:35Z</time>
      </trkpt>
      <trkpt lat="49.18464" lon="3.94677">
        <ele>186.15</ele>
        <time>2021-08-09T11:01:43Z</time>
      </trkpt>
      <trkpt lat="49.18445" lon="3.94684">
        <ele>186.63</ele>
        <time>2021-08-09T11:01:52Z</time>
      </trkpt>
      <trkpt lat="49.18426" lon="3.94692">
        <ele>186.63</ele>
        <time>2021-08-09T11:01:59Z</time>
      </trkpt>
      <trkpt lat="49.184" lon="3.94705">
        <ele>187.11</ele>
        <time>2021-08-09T11:02:09Z</time>
      </trkpt>
      <trkpt lat="49.18382" lon="3.94716">
        <ele>188.08</ele>
        <time>2021-08-09T11:02:17Z</time>
      </trkpt>
      <trkpt lat="49.18368" lon="3.94725">
        <ele>188.56</ele>
        <time>2021-08-09T11:02:24Z</time>
      </trkpt>
      <trkpt lat="49.18345" lon="3.94741">
        <ele>189.52</ele>
        <time>2021-08-09T11:02:35Z</time>
      </trkpt>
      <trkpt lat="49.18326" lon="3.94751">
        <ele>190.48</ele>
        <time>2021-08-09T11:02:44Z</time>
      </trkpt>
      <trkpt lat="49.18305" lon="3.94759">
        <ele>191.92</ele>
        <time>2021-08-09T11:02:54Z</time>
      </trkpt>
      <trkpt lat="49.18287" lon="3.94764">
        <ele>193.84</ele>
        <time>2021-08-09T11:03:04Z</time>
      </trkpt>
      <trkpt lat="49.18273" lon="3.94767">
        <ele>194.8</ele>
        <time>2021-08-09T11:03:12Z</time>
      </trkpt>
      <trkpt lat="49.18255" lon="3.94773">
        <ele>195.28</ele>
        <time>2021-08-09T11:03:20Z</time>
      </trkpt>
      <trkpt lat="49.18233" lon="3.9478">
        <ele>197.21</ele>
        <time>2021-08-09T11:03:30Z</time>
      </trkpt>
      <trkpt lat="49.18214" lon="3.94786">
        <ele>198.65</ele>
        <time>2021-08-09T11:03:40Z</time>
      </trkpt>
      <trkpt lat="49.18198" lon="3.94783">
        <ele>199.61</ele>
        <time>2021-08-09T11:03:48Z</time>
      </trkpt>
      <trkpt lat="49.18196" lon="3.94782">
        <ele>199.61</ele>
        <time>2021-08-09T11:03:49Z</time>
      </trkpt>
      <trkpt lat="49.18194" lon="3.94782">
        <ele>200.09</ele>
        <time>2021-08-09T11:03:50Z</time>
      </trkpt>
      <trkpt lat="49.18192" lon="3.94782">
        <ele>200.09</ele>
        <time>2021-08-09T11:03:51Z</time>
      </trkpt>
      <trkpt lat="49.1819" lon="3.94782">
        <ele>200.09</ele>
        <time>2021-08-09T11:03:52Z</time>
      </trkpt>
      <trkpt lat="49.18172" lon="3.94776">
        <ele>201.53</ele>
        <time>2021-08-09T11:04:02Z</time>
      </trkpt>
      <trkpt lat="49.18157" lon="3.94774">
        <ele>203.46</ele>
        <time>2021-08-09T11:04:12Z</time>
      </trkpt>
      <trkpt lat="49.18143" lon="3.94771">
        <ele>204.9</ele>
        <time>2021-08-09T11:04:22Z</time>
      </trkpt>
      <trkpt lat="49.1813" lon="3.94771">
        <ele>206.34</ele>
        <time>2021-08-09T11:04:32Z</time>
      </trkpt>
      <trkpt lat="49.18128" lon="3.94771">
        <ele>206.34</ele>
        <time>2021-08-09T11:04:34Z</time>
      </trkpt>
      <trkpt lat="49.18127" lon="3.9477">
        <ele>207.3</ele>
        <time>2021-08-09T11:04:35Z</time>
      </trkpt>
      <trkpt lat="49.18125" lon="3.9477">
        <ele>207.3</ele>
        <time>2021-08-09T11:04:36Z</time>
      </trkpt>
      <trkpt lat="49.18124" lon="3.9477">
        <ele>207.78</ele>
        <time>2021-08-09T11:04:37Z</time>
      </trkpt>
      <trkpt lat="49.18123" lon="3.9477">
        <ele>207.78</ele>
        <time>2021-08-09T11:04:38Z</time>
      </trkpt>
      <trkpt lat="49.18122" lon="3.9477">
        <ele>207.78</ele>
        <time>2021-08-09T11:04:39Z</time>
      </trkpt>
      <trkpt lat="49.18121" lon="3.9477">
        <ele>207.78</ele>
        <time>2021-08-09T11:04:40Z</time>
      </trkpt>
      <trkpt lat="49.18119" lon="3.94769">
        <ele>208.74</ele>
        <time>2021-08-09T11:04:42Z</time>
      </trkpt>
      <trkpt lat="49.18118" lon="3.94768">
        <ele>208.74</ele>
        <time>2021-08-09T11:04:43Z</time>
      </trkpt>
      <trkpt lat="49.18116" lon="3.94767">
        <ele>208.74</ele>
        <time>2021-08-09T11:04:45Z</time>
      </trkpt>
      <trkpt lat="49.18105" lon="3.94766">
        <ele>211.15</ele>
        <time>2021-08-09T11:04:55Z</time>
      </trkpt>
      <trkpt lat="49.18096" lon="3.94765">
        <ele>212.59</ele>
        <time>2021-08-09T11:05:02Z</time>
      </trkpt>
      <trkpt lat="49.18087" lon="3.94763">
        <ele>214.51</ele>
        <time>2021-08-09T11:05:10Z</time>
      </trkpt>
      <trkpt lat="49.18078" lon="3.94762">
        <ele>215.95</ele>
        <time>2021-08-09T11:05:17Z</time>
      </trkpt>
      <trkpt lat="49.18076" lon="3.94761">
        <ele>216.43</ele>
        <time>2021-08-09T11:05:18Z</time>
      </trkpt>
      <trkpt lat="49.18071" lon="3.9476">
        <ele>216.43</ele>
        <time>2021-08-09T11:05:22Z</time>
      </trkpt>
      <trkpt lat="49.18069" lon="3.94759">
        <ele>217.4</ele>
        <time>2021-08-09T11:05:23Z</time>
      </trkpt>
      <trkpt lat="49.18068" lon="3.94759">
        <ele>217.4</ele>
        <time>2021-08-09T11:05:24Z</time>
      </trkpt>
      <trkpt lat="49.18066" lon="3.94759">
        <ele>217.4</ele>
        <time>2021-08-09T11:05:25Z</time>
      </trkpt>
      <trkpt lat="49.18064" lon="3.94759">
        <ele>217.4</ele>
        <time>2021-08-09T11:05:26Z</time>
      </trkpt>
      <trkpt lat="49.18063" lon="3.94758">
        <ele>217.4</ele>
        <time>2021-08-09T11:05:27Z</time>
      </trkpt>
      <trkpt lat="49.18061" lon="3.94758">
        <ele>217.4</ele>
        <time>2021-08-09T11:05:28Z</time>
      </trkpt>
      <trkpt lat="49.18059" lon="3.94757">
        <ele>217.88</ele>
        <time>2021-08-09T11:05:29Z</time>
      </trkpt>
      <trkpt lat="49.18057" lon="3.94757">
        <ele>217.88</ele>
        <time>2021-08-09T11:05:30Z</time>
      </trkpt>
      <trkpt lat="49.18056" lon="3.94757">
        <ele>217.88</ele>
        <time>2021-08-09T11:05:31Z</time>
      </trkpt>
      <trkpt lat="49.18045" lon="3.94755">
        <ele>218.36</ele>
        <time>2021-08-09T11:05:37Z</time>
      </trkpt>
      <trkpt lat="49.1803" lon="3.94743">
        <ele>219.8</ele>
        <time>2021-08-09T11:05:47Z</time>
      </trkpt>
      <trkpt lat="49.18018" lon="3.94726">
        <ele>220.76</ele>
        <time>2021-08-09T11:05:56Z</time>
      </trkpt>
      <trkpt lat="49.18003" lon="3.94708">
        <ele>222.68</ele>
        <time>2021-08-09T11:06:07Z</time>
      </trkpt>
      <trkpt lat="49.17993" lon="3.94693">
        <ele>223.16</ele>
        <time>2021-08-09T11:06:15Z</time>
      </trkpt>
      <trkpt lat="49.17986" lon="3.94677">
        <ele>225.09</ele>
        <time>2021-08-09T11:06:23Z</time>
      </trkpt>
      <trkpt lat="49.17979" lon="3.94659">
        <ele>225.09</ele>
        <time>2021-08-09T11:06:30Z</time>
      </trkpt>
      <trkpt lat="49.1797" lon="3.94635">
        <ele>226.05</ele>
        <time>2021-08-09T11:06:39Z</time>
      </trkpt>
      <trkpt lat="49.17961" lon="3.9461">
        <ele>226.53</ele>
        <time>2021-08-09T11:06:48Z</time>
      </trkpt>
      <trkpt lat="49.17955" lon="3.9459">
        <ele>226.53</ele>
        <time>2021-08-09T11:06:57Z</time>
      </trkpt>
      <trkpt lat="49.17951" lon="3.94577">
        <ele>228.45</ele>
        <time>2021-08-09T11:07:03Z</time>
      </trkpt>
      <trkpt lat="49.17945" lon="3.94561">
        <ele>229.41</ele>
        <time>2021-08-09T11:07:11Z</time>
      </trkpt>
      <trkpt lat="49.17942" lon="3.94542">
        <ele>229.89</ele>
        <time>2021-08-09T11:07:19Z</time>
      </trkpt>
      <trkpt lat="49.17942" lon="3.94535">
        <ele>231.81</ele>
        <time>2021-08-09T11:07:22Z</time>
      </trkpt>
      <trkpt lat="49.17937" lon="3.94517">
        <ele>232.3</ele>
        <time>2021-08-09T11:07:32Z</time>
      </trkpt>
      <trkpt lat="49.17936" lon="3.94508">
        <ele>233.74</ele>
        <time>2021-08-09T11:07:36Z</time>
      </trkpt>
      <trkpt lat="49.17935" lon="3.94505">
        <ele>233.26</ele>
        <time>2021-08-09T11:07:37Z</time>
      </trkpt>
      <trkpt lat="49.17934" lon="3.94497">
        <ele>234.7</ele>
        <time>2021-08-09T11:07:40Z</time>
      </trkpt>
      <trkpt lat="49.17933" lon="3.94492">
        <ele>234.22</ele>
        <time>2021-08-09T11:07:42Z</time>
      </trkpt>
      <trkpt lat="49.17933" lon="3.94487">
        <ele>234.22</ele>
        <time>2021-08-09T11:07:44Z</time>
      </trkpt>
      <trkpt lat="49.17928" lon="3.94466">
        <ele>234.7</ele>
        <time>2021-08-09T11:07:52Z</time>
      </trkpt>
      <trkpt lat="49.17922" lon="3.94436">
        <ele>236.14</ele>
        <time>2021-08-09T11:08:03Z</time>
      </trkpt>
      <trkpt lat="49.17917" lon="3.94415">
        <ele>236.62</ele>
        <time>2021-08-09T11:08:09Z</time>
      </trkpt>
      <trkpt lat="49.17911" lon="3.94388">
        <ele>236.62</ele>
        <time>2021-08-09T11:08:16Z</time>
      </trkpt>
      <trkpt lat="49.17907" lon="3.94358">
        <ele>237.58</ele>
        <time>2021-08-09T11:08:23Z</time>
      </trkpt>
      <trkpt lat="49.17903" lon="3.94328">
        <ele>238.54</ele>
        <time>2021-08-09T11:08:30Z</time>
      </trkpt>
      <trkpt lat="49.17903" lon="3.94326">
        <ele>238.54</ele>
        <time>2021-08-09T11:08:31Z</time>
      </trkpt>
      <trkpt lat="49.17903" lon="3.94323">
        <ele>239.02</ele>
        <time>2021-08-09T11:08:32Z</time>
      </trkpt>
      <trkpt lat="49.17902" lon="3.94319">
        <ele>239.02</ele>
        <time>2021-08-09T11:08:33Z</time>
      </trkpt>
      <trkpt lat="49.17901" lon="3.94313">
        <ele>239.99</ele>
        <time>2021-08-09T11:08:35Z</time>
      </trkpt>
      <trkpt lat="49.17901" lon="3.94307">
        <ele>240.47</ele>
        <time>2021-08-09T11:08:38Z</time>
      </trkpt>
      <trkpt lat="49.17901" lon="3.94305">
        <ele>240.47</ele>
        <time>2021-08-09T11:08:39Z</time>
      </trkpt>
      <trkpt lat="49.17901" lon="3.94302">
        <ele>240.47</ele>
        <time>2021-08-09T11:08:40Z</time>
      </trkpt>
      <trkpt lat="49.17901" lon="3.94299">
        <ele>240.95</ele>
        <time>2021-08-09T11:08:41Z</time>
      </trkpt>
      <trkpt lat="49.17899" lon="3.94284">
        <ele>240.95</ele>
        <time>2021-08-09T11:08:46Z</time>
      </trkpt>
      <trkpt lat="49.17898" lon="3.9428">
        <ele>241.43</ele>
        <time>2021-08-09T11:08:47Z</time>
      </trkpt>
      <trkpt lat="49.17898" lon="3.94277">
        <ele>241.43</ele>
        <time>2021-08-09T11:08:48Z</time>
      </trkpt>
      <trkpt lat="49.17898" lon="3.94274">
        <ele>241.43</ele>
        <time>2021-08-09T11:08:49Z</time>
      </trkpt>
      <trkpt lat="49.17898" lon="3.94271">
        <ele>241.43</ele>
        <time>2021-08-09T11:08:50Z</time>
      </trkpt>
      <trkpt lat="49.17897" lon="3.94268">
        <ele>241.91</ele>
        <time>2021-08-09T11:08:51Z</time>
      </trkpt>
      <trkpt lat="49.17895" lon="3.94259">
        <ele>241.91</ele>
        <time>2021-08-09T11:08:54Z</time>
      </trkpt>
      <trkpt lat="49.17894" lon="3.94257">
        <ele>242.39</ele>
        <time>2021-08-09T11:08:55Z</time>
      </trkpt>
      <trkpt lat="49.17893" lon="3.94255">
        <ele>242.39</ele>
        <time>2021-08-09T11:08:56Z</time>
      </trkpt>
      <trkpt lat="49.17892" lon="3.94252">
        <ele>242.87</ele>
        <time>2021-08-09T11:08:57Z</time>
      </trkpt>
      <trkpt lat="49.17891" lon="3.9425">
        <ele>242.87</ele>
        <time>2021-08-09T11:08:58Z</time>
      </trkpt>
      <trkpt lat="49.17889" lon="3.94241">
        <ele>242.87</ele>
        <time>2021-08-09T11:09:02Z</time>
      </trkpt>
      <trkpt lat="49.17888" lon="3.94235">
        <ele>243.35</ele>
        <time>2021-08-09T11:09:05Z</time>
      </trkpt>
      <trkpt lat="49.17885" lon="3.94223">
        <ele>243.83</ele>
        <time>2021-08-09T11:09:12Z</time>
      </trkpt>
      <trkpt lat="49.17884" lon="3.94211">
        <ele>244.79</ele>
        <time>2021-08-09T11:09:20Z</time>
      </trkpt>
      <trkpt lat="49.17879" lon="3.942">
        <ele>244.79</ele>
        <time>2021-08-09T11:09:22Z</time>
      </trkpt>
      <trkpt lat="49.17877" lon="3.94195">
        <ele>244.79</ele>
        <time>2021-08-09T11:09:23Z</time>
      </trkpt>
      <trkpt lat="49.17875" lon="3.94189">
        <ele>244.79</ele>
        <time>2021-08-09T11:09:25Z</time>
      </trkpt>
      <trkpt lat="49.17874" lon="3.94185">
        <ele>244.79</ele>
        <time>2021-08-09T11:09:26Z</time>
      </trkpt>
      <trkpt lat="49.17872" lon="3.94182">
        <ele>244.79</ele>
        <time>2021-08-09T11:09:27Z</time>
      </trkpt>
      <trkpt lat="49.17865" lon="3.94165">
        <ele>244.79</ele>
        <time>2021-08-09T11:09:34Z</time>
      </trkpt>
      <trkpt lat="49.17862" lon="3.94154">
        <ele>245.27</ele>
        <time>2021-08-09T11:09:40Z</time>
      </trkpt>
      <trkpt lat="49.17861" lon="3.94138">
        <ele>246.23</ele>
        <time>2021-08-09T11:09:48Z</time>
      </trkpt>
      <trkpt lat="49.1786" lon="3.94135">
        <ele>246.23</ele>
        <time>2021-08-09T11:09:49Z</time>
      </trkpt>
      <trkpt lat="49.17858" lon="3.94127">
        <ele>246.72</ele>
        <time>2021-08-09T11:09:51Z</time>
      </trkpt>
      <trkpt lat="49.17857" lon="3.94123">
        <ele>246.72</ele>
        <time>2021-08-09T11:09:52Z</time>
      </trkpt>
      <trkpt lat="49.17852" lon="3.94101">
        <ele>247.2</ele>
        <time>2021-08-09T11:09:59Z</time>
      </trkpt>
      <trkpt lat="49.17848" lon="3.94087">
        <ele>247.68</ele>
        <time>2021-08-09T11:10:05Z</time>
      </trkpt>
      <trkpt lat="49.17845" lon="3.94084">
        <ele>247.68</ele>
        <time>2021-08-09T11:10:11Z</time>
      </trkpt>
      <trkpt lat="49.17843" lon="3.94079">
        <ele>247.68</ele>
        <time>2021-08-09T11:10:17Z</time>
      </trkpt>
      <trkpt lat="49.17841" lon="3.94071">
        <ele>248.16</ele>
        <time>2021-08-09T11:10:24Z</time>
      </trkpt>
      <trkpt lat="49.17841" lon="3.9407">
        <ele>248.16</ele>
        <time>2021-08-09T11:10:25Z</time>
      </trkpt>
      <trkpt lat="49.17838" lon="3.94058">
        <ele>248.16</ele>
        <time>2021-08-09T11:10:30Z</time>
      </trkpt>
      <trkpt lat="49.17833" lon="3.94047">
        <ele>248.16</ele>
        <time>2021-08-09T11:10:34Z</time>
      </trkpt>
      <trkpt lat="49.17822" lon="3.94027">
        <ele>248.16</ele>
        <time>2021-08-09T11:10:41Z</time>
      </trkpt>
      <trkpt lat="49.17821" lon="3.94024">
        <ele>248.16</ele>
        <time>2021-08-09T11:10:42Z</time>
      </trkpt>
      <trkpt lat="49.1782" lon="3.94021">
        <ele>248.16</ele>
        <time>2021-08-09T11:10:43Z</time>
      </trkpt>
      <trkpt lat="49.17818" lon="3.94017">
        <ele>248.16</ele>
        <time>2021-08-09T11:10:45Z</time>
      </trkpt>
      <trkpt lat="49.17817" lon="3.94014">
        <ele>248.16</ele>
        <time>2021-08-09T11:10:46Z</time>
      </trkpt>
      <trkpt lat="49.17814" lon="3.94001">
        <ele>248.16</ele>
        <time>2021-08-09T11:10:52Z</time>
      </trkpt>
      <trkpt lat="49.17806" lon="3.93987">
        <ele>248.64</ele>
        <time>2021-08-09T11:10:56Z</time>
      </trkpt>
      <trkpt lat="49.17803" lon="3.93985">
        <ele>248.64</ele>
        <time>2021-08-09T11:10:57Z</time>
      </trkpt>
      <trkpt lat="49.17801" lon="3.93982">
        <ele>248.64</ele>
        <time>2021-08-09T11:10:58Z</time>
      </trkpt>
      <trkpt lat="49.178" lon="3.93979">
        <ele>248.64</ele>
        <time>2021-08-09T11:10:59Z</time>
      </trkpt>
      <trkpt lat="49.17799" lon="3.93975">
        <ele>248.64</ele>
        <time>2021-08-09T11:11:00Z</time>
      </trkpt>
      <trkpt lat="49.17799" lon="3.93971">
        <ele>248.64</ele>
        <time>2021-08-09T11:11:01Z</time>
      </trkpt>
      <trkpt lat="49.17797" lon="3.93968">
        <ele>248.64</ele>
        <time>2021-08-09T11:11:02Z</time>
      </trkpt>
      <trkpt lat="49.17796" lon="3.93965">
        <ele>248.64</ele>
        <time>2021-08-09T11:11:03Z</time>
      </trkpt>
      <trkpt lat="49.17795" lon="3.93962">
        <ele>248.64</ele>
        <time>2021-08-09T11:11:04Z</time>
      </trkpt>
      <trkpt lat="49.17787" lon="3.9394">
        <ele>249.12</ele>
        <time>2021-08-09T11:11:11Z</time>
      </trkpt>
      <trkpt lat="49.17782" lon="3.93929">
        <ele>249.6</ele>
        <time>2021-08-09T11:11:16Z</time>
      </trkpt>
      <trkpt lat="49.17774" lon="3.93923">
        <ele>250.08</ele>
        <time>2021-08-09T11:11:31Z</time>
      </trkpt>
      <trkpt lat="49.17772" lon="3.93907">
        <ele>250.56</ele>
        <time>2021-08-09T11:11:42Z</time>
      </trkpt>
      <trkpt lat="49.17765" lon="3.93888">
        <ele>251.04</ele>
        <time>2021-08-09T11:11:48Z</time>
      </trkpt>
      <trkpt lat="49.17759" lon="3.93869">
        <ele>251.52</ele>
        <time>2021-08-09T11:11:55Z</time>
      </trkpt>
      <trkpt lat="49.17747" lon="3.93837">
        <ele>252</ele>
        <time>2021-08-09T11:12:04Z</time>
      </trkpt>
      <trkpt lat="49.17738" lon="3.93816">
        <ele>252.48</ele>
        <time>2021-08-09T11:12:11Z</time>
      </trkpt>
      <trkpt lat="49.17736" lon="3.9381">
        <ele>252.96</ele>
        <time>2021-08-09T11:12:13Z</time>
      </trkpt>
      <trkpt lat="49.17734" lon="3.93808">
        <ele>252.96</ele>
        <time>2021-08-09T11:12:14Z</time>
      </trkpt>
      <trkpt lat="49.17714" lon="3.93789">
        <ele>252.96</ele>
        <time>2021-08-09T11:12:23Z</time>
      </trkpt>
      <trkpt lat="49.17689" lon="3.93777">
        <ele>253.44</ele>
        <time>2021-08-09T11:12:30Z</time>
      </trkpt>
      <trkpt lat="49.17668" lon="3.93767">
        <ele>253.93</ele>
        <time>2021-08-09T11:12:36Z</time>
      </trkpt>
      <trkpt lat="49.17664" lon="3.93765">
        <ele>253.93</ele>
        <time>2021-08-09T11:12:37Z</time>
      </trkpt>
      <trkpt lat="49.17661" lon="3.93763">
        <ele>253.93</ele>
        <time>2021-08-09T11:12:38Z</time>
      </trkpt>
      <trkpt lat="49.17639" lon="3.93751">
        <ele>254.41</ele>
        <time>2021-08-09T11:12:45Z</time>
      </trkpt>
      <trkpt lat="49.1762" lon="3.93743">
        <ele>254.41</ele>
        <time>2021-08-09T11:12:51Z</time>
      </trkpt>
      <trkpt lat="49.17601" lon="3.93733">
        <ele>254.89</ele>
        <time>2021-08-09T11:12:57Z</time>
      </trkpt>
      <trkpt lat="49.17583" lon="3.93722">
        <ele>255.37</ele>
        <time>2021-08-09T11:13:02Z</time>
      </trkpt>
      <trkpt lat="49.17561" lon="3.9371">
        <ele>255.37</ele>
        <time>2021-08-09T11:13:08Z</time>
      </trkpt>
      <trkpt lat="49.1754" lon="3.93698">
        <ele>255.37</ele>
        <time>2021-08-09T11:13:14Z</time>
      </trkpt>
      <trkpt lat="49.17523" lon="3.93687">
        <ele>255.37</ele>
        <time>2021-08-09T11:13:20Z</time>
      </trkpt>
      <trkpt lat="49.175" lon="3.93681">
        <ele>256.33</ele>
        <time>2021-08-09T11:13:26Z</time>
      </trkpt>
      <trkpt lat="49.17482" lon="3.93679">
        <ele>256.81</ele>
        <time>2021-08-09T11:13:32Z</time>
      </trkpt>
      <trkpt lat="49.1746" lon="3.93678">
        <ele>257.29</ele>
        <time>2021-08-09T11:13:39Z</time>
      </trkpt>
      <trkpt lat="49.17436" lon="3.93674">
        <ele>257.77</ele>
        <time>2021-08-09T11:13:46Z</time>
      </trkpt>
      <trkpt lat="49.1741" lon="3.93668">
        <ele>258.25</ele>
        <time>2021-08-09T11:13:54Z</time>
      </trkpt>
      <trkpt lat="49.17393" lon="3.93671">
        <ele>258.25</ele>
        <time>2021-08-09T11:13:59Z</time>
      </trkpt>
      <trkpt lat="49.17376" lon="3.93668">
        <ele>258.25</ele>
        <time>2021-08-09T11:14:04Z</time>
      </trkpt>
      <trkpt lat="49.17368" lon="3.93659">
        <ele>258.25</ele>
        <time>2021-08-09T11:14:08Z</time>
      </trkpt>
      <trkpt lat="49.17365" lon="3.93657">
        <ele>258.25</ele>
        <time>2021-08-09T11:14:09Z</time>
      </trkpt>
      <trkpt lat="49.17363" lon="3.93655">
        <ele>258.25</ele>
        <time>2021-08-09T11:14:10Z</time>
      </trkpt>
      <trkpt lat="49.1736" lon="3.93654">
        <ele>258.25</ele>
        <time>2021-08-09T11:14:11Z</time>
      </trkpt>
      <trkpt lat="49.17357" lon="3.93653">
        <ele>258.25</ele>
        <time>2021-08-09T11:14:12Z</time>
      </trkpt>
      <trkpt lat="49.17354" lon="3.93651">
        <ele>258.25</ele>
        <time>2021-08-09T11:14:13Z</time>
      </trkpt>
      <trkpt lat="49.17351" lon="3.93649">
        <ele>258.25</ele>
        <time>2021-08-09T11:14:14Z</time>
      </trkpt>
      <trkpt lat="49.1735" lon="3.93646">
        <ele>258.73</ele>
        <time>2021-08-09T11:14:15Z</time>
      </trkpt>
      <trkpt lat="49.17349" lon="3.93643">
        <ele>258.73</ele>
        <time>2021-08-09T11:14:16Z</time>
      </trkpt>
      <trkpt lat="49.17349" lon="3.93631">
        <ele>259.69</ele>
        <time>2021-08-09T11:14:20Z</time>
      </trkpt>
      <trkpt lat="49.17352" lon="3.93602">
        <ele>260.65</ele>
        <time>2021-08-09T11:14:28Z</time>
      </trkpt>
      <trkpt lat="49.17361" lon="3.93583">
        <ele>261.62</ele>
        <time>2021-08-09T11:14:35Z</time>
      </trkpt>
      <trkpt lat="49.1737" lon="3.93559">
        <ele>262.58</ele>
        <time>2021-08-09T11:14:43Z</time>
      </trkpt>
      <trkpt lat="49.17381" lon="3.93538">
        <ele>263.54</ele>
        <time>2021-08-09T11:14:49Z</time>
      </trkpt>
      <trkpt lat="49.1739" lon="3.93516">
        <ele>264.02</ele>
        <time>2021-08-09T11:14:56Z</time>
      </trkpt>
      <trkpt lat="49.17404" lon="3.93484">
        <ele>264.02</ele>
        <time>2021-08-09T11:15:04Z</time>
      </trkpt>
      <trkpt lat="49.17413" lon="3.93458">
        <ele>264.5</ele>
        <time>2021-08-09T11:15:11Z</time>
      </trkpt>
      <trkpt lat="49.17415" lon="3.93433">
        <ele>265.46</ele>
        <time>2021-08-09T11:15:17Z</time>
      </trkpt>
      <trkpt lat="49.17415" lon="3.93402">
        <ele>265.94</ele>
        <time>2021-08-09T11:15:24Z</time>
      </trkpt>
      <trkpt lat="49.17414" lon="3.93374">
        <ele>266.9</ele>
        <time>2021-08-09T11:15:31Z</time>
      </trkpt>
      <trkpt lat="49.17415" lon="3.93337">
        <ele>266.9</ele>
        <time>2021-08-09T11:15:39Z</time>
      </trkpt>
      <trkpt lat="49.17416" lon="3.93293">
        <ele>267.38</ele>
        <time>2021-08-09T11:15:48Z</time>
      </trkpt>
      <trkpt lat="49.17415" lon="3.93263">
        <ele>268.35</ele>
        <time>2021-08-09T11:15:54Z</time>
      </trkpt>
      <trkpt lat="49.17413" lon="3.93255">
        <ele>268.35</ele>
        <time>2021-08-09T11:15:56Z</time>
      </trkpt>
      <trkpt lat="49.17411" lon="3.93252">
        <ele>268.35</ele>
        <time>2021-08-09T11:15:57Z</time>
      </trkpt>
      <trkpt lat="49.174" lon="3.93228">
        <ele>268.35</ele>
        <time>2021-08-09T11:16:03Z</time>
      </trkpt>
      <trkpt lat="49.17395" lon="3.93217">
        <ele>268.35</ele>
        <time>2021-08-09T11:16:06Z</time>
      </trkpt>
      <trkpt lat="49.17392" lon="3.93215">
        <ele>268.35</ele>
        <time>2021-08-09T11:16:07Z</time>
      </trkpt>
      <trkpt lat="49.1739" lon="3.93212">
        <ele>268.35</ele>
        <time>2021-08-09T11:16:08Z</time>
      </trkpt>
      <trkpt lat="49.17378" lon="3.9319">
        <ele>268.35</ele>
        <time>2021-08-09T11:16:15Z</time>
      </trkpt>
      <trkpt lat="49.17358" lon="3.93163">
        <ele>269.31</ele>
        <time>2021-08-09T11:16:23Z</time>
      </trkpt>
      <trkpt lat="49.17339" lon="3.93131">
        <ele>269.31</ele>
        <time>2021-08-09T11:16:31Z</time>
      </trkpt>
      <trkpt lat="49.17323" lon="3.93107">
        <ele>269.79</ele>
        <time>2021-08-09T11:16:37Z</time>
      </trkpt>
      <trkpt lat="49.17302" lon="3.93081">
        <ele>269.31</ele>
        <time>2021-08-09T11:16:43Z</time>
      </trkpt>
      <trkpt lat="49.17299" lon="3.93077">
        <ele>269.31</ele>
        <time>2021-08-09T11:16:44Z</time>
      </trkpt>
      <trkpt lat="49.17272" lon="3.93043">
        <ele>268.35</ele>
        <time>2021-08-09T11:16:52Z</time>
      </trkpt>
      <trkpt lat="49.17256" lon="3.93016">
        <ele>268.35</ele>
        <time>2021-08-09T11:16:59Z</time>
      </trkpt>
      <trkpt lat="49.17255" lon="3.93015">
        <ele>268.35</ele>
        <time>2021-08-09T11:17:00Z</time>
      </trkpt>
      <trkpt lat="49.17253" lon="3.93013">
        <ele>268.35</ele>
        <time>2021-08-09T11:17:02Z</time>
      </trkpt>
      <trkpt lat="49.17252" lon="3.93013">
        <ele>268.35</ele>
        <time>2021-08-09T11:17:03Z</time>
      </trkpt>
      <trkpt lat="49.17243" lon="3.93003">
        <ele>268.35</ele>
        <time>2021-08-09T11:17:09Z</time>
      </trkpt>
      <trkpt lat="49.17226" lon="3.92979">
        <ele>267.86</ele>
        <time>2021-08-09T11:17:15Z</time>
      </trkpt>
      <trkpt lat="49.17213" lon="3.92964">
        <ele>267.86</ele>
        <time>2021-08-09T11:17:19Z</time>
      </trkpt>
      <trkpt lat="49.17191" lon="3.92933">
        <ele>267.38</ele>
        <time>2021-08-09T11:17:27Z</time>
      </trkpt>
      <trkpt lat="49.17175" lon="3.92901">
        <ele>267.38</ele>
        <time>2021-08-09T11:17:34Z</time>
      </trkpt>
      <trkpt lat="49.17173" lon="3.92895">
        <ele>267.38</ele>
        <time>2021-08-09T11:17:35Z</time>
      </trkpt>
      <trkpt lat="49.1717" lon="3.92891">
        <ele>267.38</ele>
        <time>2021-08-09T11:17:36Z</time>
      </trkpt>
      <trkpt lat="49.17141" lon="3.92853">
        <ele>266.9</ele>
        <time>2021-08-09T11:17:44Z</time>
      </trkpt>
      <trkpt lat="49.17126" lon="3.92819">
        <ele>266.42</ele>
        <time>2021-08-09T11:17:50Z</time>
      </trkpt>
      <trkpt lat="49.17124" lon="3.92812">
        <ele>266.42</ele>
        <time>2021-08-09T11:17:51Z</time>
      </trkpt>
      <trkpt lat="49.17122" lon="3.92807">
        <ele>266.42</ele>
        <time>2021-08-09T11:17:52Z</time>
      </trkpt>
      <trkpt lat="49.17119" lon="3.928">
        <ele>266.42</ele>
        <time>2021-08-09T11:17:53Z</time>
      </trkpt>
      <trkpt lat="49.17117" lon="3.92794">
        <ele>266.42</ele>
        <time>2021-08-09T11:17:54Z</time>
      </trkpt>
      <trkpt lat="49.17116" lon="3.92788">
        <ele>266.42</ele>
        <time>2021-08-09T11:17:55Z</time>
      </trkpt>
      <trkpt lat="49.17114" lon="3.92783">
        <ele>266.42</ele>
        <time>2021-08-09T11:17:56Z</time>
      </trkpt>
      <trkpt lat="49.17112" lon="3.92777">
        <ele>266.42</ele>
        <time>2021-08-09T11:17:57Z</time>
      </trkpt>
      <trkpt lat="49.17101" lon="3.92743">
        <ele>265.46</ele>
        <time>2021-08-09T11:18:03Z</time>
      </trkpt>
      <trkpt lat="49.17091" lon="3.92714">
        <ele>265.46</ele>
        <time>2021-08-09T11:18:07Z</time>
      </trkpt>
      <trkpt lat="49.17088" lon="3.92706">
        <ele>264.98</ele>
        <time>2021-08-09T11:18:08Z</time>
      </trkpt>
      <trkpt lat="49.17085" lon="3.92699">
        <ele>264.98</ele>
        <time>2021-08-09T11:18:09Z</time>
      </trkpt>
      <trkpt lat="49.17065" lon="3.92646">
        <ele>264.02</ele>
        <time>2021-08-09T11:18:16Z</time>
      </trkpt>
      <trkpt lat="49.17063" lon="3.92638">
        <ele>264.02</ele>
        <time>2021-08-09T11:18:17Z</time>
      </trkpt>
      <trkpt lat="49.17042" lon="3.92585">
        <ele>263.54</ele>
        <time>2021-08-09T11:18:24Z</time>
      </trkpt>
      <trkpt lat="49.17028" lon="3.92553">
        <ele>263.54</ele>
        <time>2021-08-09T11:18:29Z</time>
      </trkpt>
      <trkpt lat="49.17014" lon="3.92519">
        <ele>262.58</ele>
        <time>2021-08-09T11:18:35Z</time>
      </trkpt>
      <trkpt lat="49.17011" lon="3.92514">
        <ele>262.58</ele>
        <time>2021-08-09T11:18:36Z</time>
      </trkpt>
      <trkpt lat="49.17008" lon="3.9251">
        <ele>262.58</ele>
        <time>2021-08-09T11:18:37Z</time>
      </trkpt>
      <trkpt lat="49.17001" lon="3.925">
        <ele>262.58</ele>
        <time>2021-08-09T11:18:39Z</time>
      </trkpt>
      <trkpt lat="49.1699" lon="3.9248">
        <ele>262.1</ele>
        <time>2021-08-09T11:18:43Z</time>
      </trkpt>
      <trkpt lat="49.16968" lon="3.92462">
        <ele>261.62</ele>
        <time>2021-08-09T11:18:48Z</time>
      </trkpt>
      <trkpt lat="49.16964" lon="3.92455">
        <ele>261.62</ele>
        <time>2021-08-09T11:18:49Z</time>
      </trkpt>
      <trkpt lat="49.16961" lon="3.9245">
        <ele>261.62</ele>
        <time>2021-08-09T11:18:50Z</time>
      </trkpt>
      <trkpt lat="49.16958" lon="3.92445">
        <ele>261.62</ele>
        <time>2021-08-09T11:18:51Z</time>
      </trkpt>
      <trkpt lat="49.16955" lon="3.92442">
        <ele>261.62</ele>
        <time>2021-08-09T11:18:52Z</time>
      </trkpt>
      <trkpt lat="49.16952" lon="3.92442">
        <ele>261.62</ele>
        <time>2021-08-09T11:18:53Z</time>
      </trkpt>
      <trkpt lat="49.16949" lon="3.92443">
        <ele>261.62</ele>
        <time>2021-08-09T11:18:54Z</time>
      </trkpt>
      <trkpt lat="49.16945" lon="3.92445">
        <ele>261.62</ele>
        <time>2021-08-09T11:18:55Z</time>
      </trkpt>
      <trkpt lat="49.16943" lon="3.92448">
        <ele>261.62</ele>
        <time>2021-08-09T11:18:56Z</time>
      </trkpt>
      <trkpt lat="49.16939" lon="3.92452">
        <ele>261.62</ele>
        <time>2021-08-09T11:18:57Z</time>
      </trkpt>
      <trkpt lat="49.16908" lon="3.92486">
        <ele>261.62</ele>
        <time>2021-08-09T11:19:06Z</time>
      </trkpt>
      <trkpt lat="49.16898" lon="3.92497">
        <ele>261.62</ele>
        <time>2021-08-09T11:19:09Z</time>
      </trkpt>
      <trkpt lat="49.16894" lon="3.925">
        <ele>261.62</ele>
        <time>2021-08-09T11:19:10Z</time>
      </trkpt>
      <trkpt lat="49.1689" lon="3.92504">
        <ele>261.62</ele>
        <time>2021-08-09T11:19:11Z</time>
      </trkpt>
      <trkpt lat="49.16886" lon="3.92508">
        <ele>261.62</ele>
        <time>2021-08-09T11:19:12Z</time>
      </trkpt>
      <trkpt lat="49.16883" lon="3.92512">
        <ele>261.62</ele>
        <time>2021-08-09T11:19:13Z</time>
      </trkpt>
      <trkpt lat="49.16856" lon="3.9254">
        <ele>261.62</ele>
        <time>2021-08-09T11:19:20Z</time>
      </trkpt>
      <trkpt lat="49.16814" lon="3.92583">
        <ele>261.62</ele>
        <time>2021-08-09T11:19:30Z</time>
      </trkpt>
      <trkpt lat="49.16785" lon="3.92615">
        <ele>261.62</ele>
        <time>2021-08-09T11:19:37Z</time>
      </trkpt>
      <trkpt lat="49.16742" lon="3.92661">
        <ele>260.65</ele>
        <time>2021-08-09T11:19:46Z</time>
      </trkpt>
      <trkpt lat="49.16699" lon="3.92706">
        <ele>260.65</ele>
        <time>2021-08-09T11:19:55Z</time>
      </trkpt>
      <trkpt lat="49.16665" lon="3.92741">
        <ele>260.65</ele>
        <time>2021-08-09T11:20:03Z</time>
      </trkpt>
      <trkpt lat="49.16633" lon="3.92776">
        <ele>260.65</ele>
        <time>2021-08-09T11:20:10Z</time>
      </trkpt>
      <trkpt lat="49.1663" lon="3.92782">
        <ele>260.65</ele>
        <time>2021-08-09T11:20:11Z</time>
      </trkpt>
      <trkpt lat="49.16627" lon="3.92789">
        <ele>260.65</ele>
        <time>2021-08-09T11:20:12Z</time>
      </trkpt>
      <trkpt lat="49.16628" lon="3.92796">
        <ele>260.65</ele>
        <time>2021-08-09T11:20:13Z</time>
      </trkpt>
      <trkpt lat="49.1663" lon="3.92805">
        <ele>260.65</ele>
        <time>2021-08-09T11:20:14Z</time>
      </trkpt>
      <trkpt lat="49.16632" lon="3.92812">
        <ele>260.65</ele>
        <time>2021-08-09T11:20:15Z</time>
      </trkpt>
      <trkpt lat="49.16634" lon="3.92818">
        <ele>260.65</ele>
        <time>2021-08-09T11:20:16Z</time>
      </trkpt>
      <trkpt lat="49.1665" lon="3.92842">
        <ele>260.65</ele>
        <time>2021-08-09T11:20:20Z</time>
      </trkpt>
      <trkpt lat="49.16676" lon="3.92876">
        <ele>262.1</ele>
        <time>2021-08-09T11:20:27Z</time>
      </trkpt>
      <trkpt lat="49.16679" lon="3.92881">
        <ele>262.1</ele>
        <time>2021-08-09T11:20:28Z</time>
      </trkpt>
      <trkpt lat="49.1671" lon="3.92919">
        <ele>262.58</ele>
        <time>2021-08-09T11:20:37Z</time>
      </trkpt>
      <trkpt lat="49.16742" lon="3.92962">
        <ele>264.5</ele>
        <time>2021-08-09T11:20:48Z</time>
      </trkpt>
      <trkpt lat="49.16766" lon="3.92996">
        <ele>264.98</ele>
        <time>2021-08-09T11:20:57Z</time>
      </trkpt>
      <trkpt lat="49.16794" lon="3.93035">
        <ele>265.94</ele>
        <time>2021-08-09T11:21:07Z</time>
      </trkpt>
      <trkpt lat="49.16819" lon="3.93072">
        <ele>266.42</ele>
        <time>2021-08-09T11:21:16Z</time>
      </trkpt>
      <trkpt lat="49.16848" lon="3.93112">
        <ele>267.38</ele>
        <time>2021-08-09T11:21:26Z</time>
      </trkpt>
      <trkpt lat="49.16856" lon="3.93143">
        <ele>267.38</ele>
        <time>2021-08-09T11:21:32Z</time>
      </trkpt>
      <trkpt lat="49.16853" lon="3.9316">
        <ele>267.38</ele>
        <time>2021-08-09T11:21:35Z</time>
      </trkpt>
      <trkpt lat="49.1685" lon="3.93164">
        <ele>267.86</ele>
        <time>2021-08-09T11:21:36Z</time>
      </trkpt>
      <trkpt lat="49.16847" lon="3.93168">
        <ele>267.86</ele>
        <time>2021-08-09T11:21:37Z</time>
      </trkpt>
      <trkpt lat="49.16833" lon="3.93183">
        <ele>267.86</ele>
        <time>2021-08-09T11:21:41Z</time>
      </trkpt>
      <trkpt lat="49.1683" lon="3.93187">
        <ele>267.86</ele>
        <time>2021-08-09T11:21:42Z</time>
      </trkpt>
      <trkpt lat="49.16826" lon="3.93191">
        <ele>267.86</ele>
        <time>2021-08-09T11:21:43Z</time>
      </trkpt>
      <trkpt lat="49.16822" lon="3.93195">
        <ele>267.38</ele>
        <time>2021-08-09T11:21:44Z</time>
      </trkpt>
      <trkpt lat="49.16819" lon="3.932">
        <ele>267.38</ele>
        <time>2021-08-09T11:21:45Z</time>
      </trkpt>
      <trkpt lat="49.16772" lon="3.93249">
        <ele>267.38</ele>
        <time>2021-08-09T11:21:57Z</time>
      </trkpt>
      <trkpt lat="49.16736" lon="3.9329">
        <ele>267.38</ele>
        <time>2021-08-09T11:22:06Z</time>
      </trkpt>
      <trkpt lat="49.1669" lon="3.9334">
        <ele>266.42</ele>
        <time>2021-08-09T11:22:17Z</time>
      </trkpt>
      <trkpt lat="49.16658" lon="3.93377">
        <ele>265.46</ele>
        <time>2021-08-09T11:22:25Z</time>
      </trkpt>
      <trkpt lat="49.16625" lon="3.93413">
        <ele>264.5</ele>
        <time>2021-08-09T11:22:33Z</time>
      </trkpt>
      <trkpt lat="49.16621" lon="3.93417">
        <ele>264.5</ele>
        <time>2021-08-09T11:22:34Z</time>
      </trkpt>
      <trkpt lat="49.16589" lon="3.93441">
        <ele>264.5</ele>
        <time>2021-08-09T11:22:41Z</time>
      </trkpt>
      <trkpt lat="49.16546" lon="3.93466">
        <ele>263.54</ele>
        <time>2021-08-09T11:22:50Z</time>
      </trkpt>
      <trkpt lat="49.1653" lon="3.93471">
        <ele>263.54</ele>
        <time>2021-08-09T11:22:53Z</time>
      </trkpt>
      <trkpt lat="49.16489" lon="3.93476">
        <ele>263.54</ele>
        <time>2021-08-09T11:23:01Z</time>
      </trkpt>
      <trkpt lat="49.16442" lon="3.93483">
        <ele>262.1</ele>
        <time>2021-08-09T11:23:09Z</time>
      </trkpt>
      <trkpt lat="49.16387" lon="3.93504">
        <ele>261.62</ele>
        <time>2021-08-09T11:23:18Z</time>
      </trkpt>
      <trkpt lat="49.16353" lon="3.93525">
        <ele>261.14</ele>
        <time>2021-08-09T11:23:24Z</time>
      </trkpt>
      <trkpt lat="49.16347" lon="3.93529">
        <ele>261.14</ele>
        <time>2021-08-09T11:23:25Z</time>
      </trkpt>
      <trkpt lat="49.16303" lon="3.93558">
        <ele>261.14</ele>
        <time>2021-08-09T11:23:34Z</time>
      </trkpt>
      <trkpt lat="49.16259" lon="3.9359">
        <ele>260.65</ele>
        <time>2021-08-09T11:23:43Z</time>
      </trkpt>
      <trkpt lat="49.16255" lon="3.93594">
        <ele>260.65</ele>
        <time>2021-08-09T11:23:44Z</time>
      </trkpt>
      <trkpt lat="49.1625" lon="3.93599">
        <ele>260.65</ele>
        <time>2021-08-09T11:23:45Z</time>
      </trkpt>
      <trkpt lat="49.16244" lon="3.93604">
        <ele>260.65</ele>
        <time>2021-08-09T11:23:46Z</time>
      </trkpt>
      <trkpt lat="49.16241" lon="3.93608">
        <ele>260.65</ele>
        <time>2021-08-09T11:23:47Z</time>
      </trkpt>
      <trkpt lat="49.16218" lon="3.93625">
        <ele>259.69</ele>
        <time>2021-08-09T11:23:52Z</time>
      </trkpt>
      <trkpt lat="49.16213" lon="3.93627">
        <ele>259.69</ele>
        <time>2021-08-09T11:23:53Z</time>
      </trkpt>
      <trkpt lat="49.16208" lon="3.93628">
        <ele>259.69</ele>
        <time>2021-08-09T11:23:54Z</time>
      </trkpt>
      <trkpt lat="49.16202" lon="3.93628">
        <ele>259.69</ele>
        <time>2021-08-09T11:23:55Z</time>
      </trkpt>
      <trkpt lat="49.16196" lon="3.93628">
        <ele>259.69</ele>
        <time>2021-08-09T11:23:56Z</time>
      </trkpt>
      <trkpt lat="49.16171" lon="3.93626">
        <ele>258.73</ele>
        <time>2021-08-09T11:24:01Z</time>
      </trkpt>
      <trkpt lat="49.16161" lon="3.93625">
        <ele>258.73</ele>
        <time>2021-08-09T11:24:06Z</time>
      </trkpt>
      <trkpt lat="49.16163" lon="3.93627">
        <ele>258.73</ele>
        <time>2021-08-09T11:24:10Z</time>
      </trkpt>
      <trkpt lat="49.16171" lon="3.93624">
        <ele>258.73</ele>
        <time>2021-08-09T11:24:16Z</time>
      </trkpt>
      <trkpt lat="49.16179" lon="3.93626">
        <ele>258.73</ele>
        <time>2021-08-09T11:24:19Z</time>
      </trkpt>
      <trkpt lat="49.16181" lon="3.93627">
        <ele>258.73</ele>
        <time>2021-08-09T11:24:20Z</time>
      </trkpt>
      <trkpt lat="49.16183" lon="3.93629">
        <ele>258.73</ele>
        <time>2021-08-09T11:24:21Z</time>
      </trkpt>
      <trkpt lat="49.16185" lon="3.93631">
        <ele>258.73</ele>
        <time>2021-08-09T11:24:22Z</time>
      </trkpt>
      <trkpt lat="49.16187" lon="3.93634">
        <ele>258.73</ele>
        <time>2021-08-09T11:24:23Z</time>
      </trkpt>
      <trkpt lat="49.162" lon="3.93652">
        <ele>259.69</ele>
        <time>2021-08-09T11:24:31Z</time>
      </trkpt>
      <trkpt lat="49.16203" lon="3.93657">
        <ele>260.17</ele>
        <time>2021-08-09T11:24:38Z</time>
      </trkpt>
      <trkpt lat="49.16203" lon="3.93656">
        <ele>260.17</ele>
        <time>2021-08-09T11:24:48Z</time>
      </trkpt>
      <trkpt lat="49.16205" lon="3.93658">
        <ele>260.17</ele>
        <time>2021-08-09T11:24:57Z</time>
      </trkpt>
      <trkpt lat="49.16205" lon="3.9366">
        <ele>260.17</ele>
        <time>2021-08-09T11:24:59Z</time>
      </trkpt>
      <trkpt lat="49.16215" lon="3.93675">
        <ele>260.17</ele>
        <time>2021-08-09T11:25:07Z</time>
      </trkpt>
      <trkpt lat="49.16217" lon="3.93684">
        <ele>260.17</ele>
        <time>2021-08-09T11:25:11Z</time>
      </trkpt>
      <trkpt lat="49.16229" lon="3.93711">
        <ele>260.17</ele>
        <time>2021-08-09T11:25:20Z</time>
      </trkpt>
      <trkpt lat="49.16237" lon="3.93729">
        <ele>261.14</ele>
        <time>2021-08-09T11:25:26Z</time>
      </trkpt>
      <trkpt lat="49.16242" lon="3.93749">
        <ele>261.62</ele>
        <time>2021-08-09T11:25:32Z</time>
      </trkpt>
      <trkpt lat="49.16247" lon="3.93766">
        <ele>262.1</ele>
        <time>2021-08-09T11:25:38Z</time>
      </trkpt>
      <trkpt lat="49.16261" lon="3.93782">
        <ele>262.58</ele>
        <time>2021-08-09T11:25:46Z</time>
      </trkpt>
      <trkpt lat="49.16274" lon="3.93803">
        <ele>263.06</ele>
        <time>2021-08-09T11:25:54Z</time>
      </trkpt>
      <trkpt lat="49.16278" lon="3.93815">
        <ele>263.54</ele>
        <time>2021-08-09T11:25:57Z</time>
      </trkpt>
      <trkpt lat="49.16282" lon="3.93833">
        <ele>263.54</ele>
        <time>2021-08-09T11:26:03Z</time>
      </trkpt>
      <trkpt lat="49.16281" lon="3.93837">
        <ele>263.54</ele>
        <time>2021-08-09T11:26:05Z</time>
      </trkpt>
      <trkpt lat="49.16284" lon="3.93848">
        <ele>263.54</ele>
        <time>2021-08-09T11:26:09Z</time>
      </trkpt>
      <trkpt lat="49.16288" lon="3.93864">
        <ele>263.54</ele>
        <time>2021-08-09T11:26:15Z</time>
      </trkpt>
      <trkpt lat="49.16294" lon="3.93885">
        <ele>263.54</ele>
        <time>2021-08-09T11:26:23Z</time>
      </trkpt>
      <trkpt lat="49.16305" lon="3.93913">
        <ele>264.02</ele>
        <time>2021-08-09T11:26:31Z</time>
      </trkpt>
      <trkpt lat="49.16317" lon="3.93938">
        <ele>264.5</ele>
        <time>2021-08-09T11:26:38Z</time>
      </trkpt>
      <trkpt lat="49.16324" lon="3.93961">
        <ele>264.5</ele>
        <time>2021-08-09T11:26:44Z</time>
      </trkpt>
      <trkpt lat="49.16325" lon="3.93964">
        <ele>264.5</ele>
        <time>2021-08-09T11:26:45Z</time>
      </trkpt>
      <trkpt lat="49.16332" lon="3.93971">
        <ele>264.5</ele>
        <time>2021-08-09T11:26:50Z</time>
      </trkpt>
      <trkpt lat="49.16333" lon="3.93991">
        <ele>264.5</ele>
        <time>2021-08-09T11:26:57Z</time>
      </trkpt>
      <trkpt lat="49.16343" lon="3.94008">
        <ele>265.46</ele>
        <time>2021-08-09T11:26:59Z</time>
      </trkpt>
      <trkpt lat="49.16346" lon="3.94011">
        <ele>265.46</ele>
        <time>2021-08-09T11:27:00Z</time>
      </trkpt>
      <trkpt lat="49.16349" lon="3.94012">
        <ele>265.46</ele>
        <time>2021-08-09T11:27:01Z</time>
      </trkpt>
      <trkpt lat="49.16351" lon="3.94013">
        <ele>265.46</ele>
        <time>2021-08-09T11:27:02Z</time>
      </trkpt>
      <trkpt lat="49.16377" lon="3.94033">
        <ele>265.46</ele>
        <time>2021-08-09T11:27:09Z</time>
      </trkpt>
      <trkpt lat="49.16407" lon="3.94056">
        <ele>265.94</ele>
        <time>2021-08-09T11:27:17Z</time>
      </trkpt>
      <trkpt lat="49.16437" lon="3.94077">
        <ele>266.42</ele>
        <time>2021-08-09T11:27:25Z</time>
      </trkpt>
      <trkpt lat="49.16463" lon="3.94098">
        <ele>266.42</ele>
        <time>2021-08-09T11:27:32Z</time>
      </trkpt>
      <trkpt lat="49.16498" lon="3.94122">
        <ele>266.9</ele>
        <time>2021-08-09T11:27:41Z</time>
      </trkpt>
      <trkpt lat="49.16514" lon="3.94133">
        <ele>266.9</ele>
        <time>2021-08-09T11:27:45Z</time>
      </trkpt>
      <trkpt lat="49.16517" lon="3.94137">
        <ele>266.9</ele>
        <time>2021-08-09T11:27:46Z</time>
      </trkpt>
      <trkpt lat="49.16519" lon="3.94142">
        <ele>266.9</ele>
        <time>2021-08-09T11:27:47Z</time>
      </trkpt>
      <trkpt lat="49.16519" lon="3.94148">
        <ele>266.9</ele>
        <time>2021-08-09T11:27:48Z</time>
      </trkpt>
      <trkpt lat="49.16518" lon="3.94229">
        <ele>266.9</ele>
        <time>2021-08-09T11:28:00Z</time>
      </trkpt>
      <trkpt lat="49.16516" lon="3.94291">
        <ele>266.42</ele>
        <time>2021-08-09T11:28:09Z</time>
      </trkpt>
      <trkpt lat="49.16511" lon="3.94355">
        <ele>266.42</ele>
        <time>2021-08-09T11:28:18Z</time>
      </trkpt>
      <trkpt lat="49.16509" lon="3.94397">
        <ele>266.42</ele>
        <time>2021-08-09T11:28:24Z</time>
      </trkpt>
      <trkpt lat="49.16512" lon="3.94438">
        <ele>265.46</ele>
        <time>2021-08-09T11:28:30Z</time>
      </trkpt>
      <trkpt lat="49.16517" lon="3.94465">
        <ele>264.98</ele>
        <time>2021-08-09T11:28:34Z</time>
      </trkpt>
      <trkpt lat="49.16514" lon="3.94485">
        <ele>264.5</ele>
        <time>2021-08-09T11:28:38Z</time>
      </trkpt>
      <trkpt lat="49.16507" lon="3.94512">
        <ele>264.5</ele>
        <time>2021-08-09T11:28:44Z</time>
      </trkpt>
      <trkpt lat="49.16498" lon="3.94558">
        <ele>264.5</ele>
        <time>2021-08-09T11:28:52Z</time>
      </trkpt>
      <trkpt lat="49.16495" lon="3.94572">
        <ele>263.54</ele>
        <time>2021-08-09T11:28:54Z</time>
      </trkpt>
      <trkpt lat="49.16492" lon="3.94586">
        <ele>263.54</ele>
        <time>2021-08-09T11:28:56Z</time>
      </trkpt>
      <trkpt lat="49.16484" lon="3.9461">
        <ele>263.54</ele>
        <time>2021-08-09T11:29:00Z</time>
      </trkpt>
      <trkpt lat="49.16479" lon="3.94651">
        <ele>263.54</ele>
        <time>2021-08-09T11:29:06Z</time>
      </trkpt>
      <trkpt lat="49.16485" lon="3.94674">
        <ele>263.54</ele>
        <time>2021-08-09T11:29:11Z</time>
      </trkpt>
      <trkpt lat="49.16488" lon="3.94678">
        <ele>263.54</ele>
        <time>2021-08-09T11:29:12Z</time>
      </trkpt>
      <trkpt lat="49.16511" lon="3.9469">
        <ele>262.58</ele>
        <time>2021-08-09T11:29:19Z</time>
      </trkpt>
      <trkpt lat="49.16529" lon="3.94683">
        <ele>261.14</ele>
        <time>2021-08-09T11:29:25Z</time>
      </trkpt>
      <trkpt lat="49.16553" lon="3.94685">
        <ele>257.77</ele>
        <time>2021-08-09T11:29:31Z</time>
      </trkpt>
      <trkpt lat="49.16559" lon="3.94688">
        <ele>256.81</ele>
        <time>2021-08-09T11:29:32Z</time>
      </trkpt>
      <trkpt lat="49.16563" lon="3.94691">
        <ele>255.85</ele>
        <time>2021-08-09T11:29:33Z</time>
      </trkpt>
      <trkpt lat="49.16567" lon="3.94697">
        <ele>255.37</ele>
        <time>2021-08-09T11:29:34Z</time>
      </trkpt>
      <trkpt lat="49.16569" lon="3.94701">
        <ele>253.93</ele>
        <time>2021-08-09T11:29:35Z</time>
      </trkpt>
      <trkpt lat="49.16573" lon="3.94704">
        <ele>253.44</ele>
        <time>2021-08-09T11:29:36Z</time>
      </trkpt>
      <trkpt lat="49.16577" lon="3.94708">
        <ele>252.48</ele>
        <time>2021-08-09T11:29:37Z</time>
      </trkpt>
      <trkpt lat="49.1659" lon="3.94722">
        <ele>249.6</ele>
        <time>2021-08-09T11:29:41Z</time>
      </trkpt>
      <trkpt lat="49.16604" lon="3.94735">
        <ele>245.75</ele>
        <time>2021-08-09T11:29:45Z</time>
      </trkpt>
      <trkpt lat="49.16617" lon="3.94747">
        <ele>241.91</ele>
        <time>2021-08-09T11:29:49Z</time>
      </trkpt>
      <trkpt lat="49.1662" lon="3.9475">
        <ele>241.91</ele>
        <time>2021-08-09T11:29:50Z</time>
      </trkpt>
      <trkpt lat="49.16626" lon="3.94758">
        <ele>240.95</ele>
        <time>2021-08-09T11:29:52Z</time>
      </trkpt>
      <trkpt lat="49.16634" lon="3.94767">
        <ele>237.58</ele>
        <time>2021-08-09T11:29:55Z</time>
      </trkpt>
      <trkpt lat="49.16648" lon="3.94776">
        <ele>233.74</ele>
        <time>2021-08-09T11:29:59Z</time>
      </trkpt>
      <trkpt lat="49.16652" lon="3.94779">
        <ele>232.78</ele>
        <time>2021-08-09T11:30:00Z</time>
      </trkpt>
      <trkpt lat="49.16655" lon="3.94781">
        <ele>232.78</ele>
        <time>2021-08-09T11:30:01Z</time>
      </trkpt>
      <trkpt lat="49.16676" lon="3.94794">
        <ele>229.41</ele>
        <time>2021-08-09T11:30:06Z</time>
      </trkpt>
      <trkpt lat="49.16693" lon="3.94818">
        <ele>226.05</ele>
        <time>2021-08-09T11:30:11Z</time>
      </trkpt>
      <trkpt lat="49.1671" lon="3.94844">
        <ele>223.64</ele>
        <time>2021-08-09T11:30:14Z</time>
      </trkpt>
      <trkpt lat="49.16713" lon="3.94848">
        <ele>223.16</ele>
        <time>2021-08-09T11:30:15Z</time>
      </trkpt>
      <trkpt lat="49.16729" lon="3.94882">
        <ele>219.8</ele>
        <time>2021-08-09T11:30:20Z</time>
      </trkpt>
      <trkpt lat="49.1674" lon="3.94917">
        <ele>215.47</ele>
        <time>2021-08-09T11:30:23Z</time>
      </trkpt>
      <trkpt lat="49.16745" lon="3.94951">
        <ele>211.63</ele>
        <time>2021-08-09T11:30:26Z</time>
      </trkpt>
      <trkpt lat="49.16751" lon="3.94983">
        <ele>208.26</ele>
        <time>2021-08-09T11:30:29Z</time>
      </trkpt>
      <trkpt lat="49.16756" lon="3.95015">
        <ele>204.9</ele>
        <time>2021-08-09T11:30:32Z</time>
      </trkpt>
      <trkpt lat="49.16761" lon="3.95042">
        <ele>201.53</ele>
        <time>2021-08-09T11:30:35Z</time>
      </trkpt>
      <trkpt lat="49.16764" lon="3.9506">
        <ele>201.05</ele>
        <time>2021-08-09T11:30:37Z</time>
      </trkpt>
      <trkpt lat="49.16771" lon="3.95088">
        <ele>198.17</ele>
        <time>2021-08-09T11:30:40Z</time>
      </trkpt>
      <trkpt lat="49.16773" lon="3.95096">
        <ele>198.17</ele>
        <time>2021-08-09T11:30:41Z</time>
      </trkpt>
      <trkpt lat="49.16782" lon="3.9512">
        <ele>196.73</ele>
        <time>2021-08-09T11:30:44Z</time>
      </trkpt>
      <trkpt lat="49.16798" lon="3.95158">
        <ele>193.84</ele>
        <time>2021-08-09T11:30:49Z</time>
      </trkpt>
      <trkpt lat="49.16802" lon="3.95164">
        <ele>193.36</ele>
        <time>2021-08-09T11:30:50Z</time>
      </trkpt>
      <trkpt lat="49.16823" lon="3.95191">
        <ele>191.92</ele>
        <time>2021-08-09T11:30:55Z</time>
      </trkpt>
      <trkpt lat="49.16826" lon="3.95195">
        <ele>191.92</ele>
        <time>2021-08-09T11:30:56Z</time>
      </trkpt>
      <trkpt lat="49.16828" lon="3.952">
        <ele>191.44</ele>
        <time>2021-08-09T11:30:57Z</time>
      </trkpt>
      <trkpt lat="49.1683" lon="3.95204">
        <ele>191.44</ele>
        <time>2021-08-09T11:30:58Z</time>
      </trkpt>
      <trkpt lat="49.16831" lon="3.95208">
        <ele>191.44</ele>
        <time>2021-08-09T11:30:59Z</time>
      </trkpt>
      <trkpt lat="49.16833" lon="3.95211">
        <ele>191.44</ele>
        <time>2021-08-09T11:31:00Z</time>
      </trkpt>
      <trkpt lat="49.16835" lon="3.95213">
        <ele>192.88</ele>
        <time>2021-08-09T11:31:01Z</time>
      </trkpt>
      <trkpt lat="49.16837" lon="3.95216">
        <ele>192.88</ele>
        <time>2021-08-09T11:31:02Z</time>
      </trkpt>
      <trkpt lat="49.1684" lon="3.95219">
        <ele>193.36</ele>
        <time>2021-08-09T11:31:03Z</time>
      </trkpt>
      <trkpt lat="49.16841" lon="3.95222">
        <ele>193.36</ele>
        <time>2021-08-09T11:31:04Z</time>
      </trkpt>
      <trkpt lat="49.16841" lon="3.95223">
        <ele>194.32</ele>
        <time>2021-08-09T11:31:10Z</time>
      </trkpt>
      <trkpt lat="49.16839" lon="3.95223">
        <ele>193.84</ele>
        <time>2021-08-09T11:31:29Z</time>
      </trkpt>
      <trkpt lat="49.16841" lon="3.95226">
        <ele>193.84</ele>
        <time>2021-08-09T11:31:43Z</time>
      </trkpt>
      <trkpt lat="49.16844" lon="3.95228">
        <ele>193.84</ele>
        <time>2021-08-09T11:31:45Z</time>
      </trkpt>
      <trkpt lat="49.16846" lon="3.95229">
        <ele>193.84</ele>
        <time>2021-08-09T11:31:46Z</time>
      </trkpt>
      <trkpt lat="49.16849" lon="3.95231">
        <ele>193.84</ele>
        <time>2021-08-09T11:31:47Z</time>
      </trkpt>
      <trkpt lat="49.16866" lon="3.95244">
        <ele>192.88</ele>
        <time>2021-08-09T11:31:53Z</time>
      </trkpt>
      <trkpt lat="49.16869" lon="3.95251">
        <ele>192.4</ele>
        <time>2021-08-09T11:31:59Z</time>
      </trkpt>
      <trkpt lat="49.16867" lon="3.95249">
        <ele>192.4</ele>
        <time>2021-08-09T11:32:07Z</time>
      </trkpt>
      <trkpt lat="49.16862" lon="3.9524">
        <ele>192.4</ele>
        <time>2021-08-09T11:32:12Z</time>
      </trkpt>
      <trkpt lat="49.16848" lon="3.9523">
        <ele>192.4</ele>
        <time>2021-08-09T11:32:19Z</time>
      </trkpt>
      <trkpt lat="49.1684" lon="3.95222">
        <ele>193.84</ele>
        <time>2021-08-09T11:32:23Z</time>
      </trkpt>
      <trkpt lat="49.16827" lon="3.952">
        <ele>191.44</ele>
        <time>2021-08-09T11:32:28Z</time>
      </trkpt>
      <trkpt lat="49.1681" lon="3.95176">
        <ele>192.4</ele>
        <time>2021-08-09T11:32:34Z</time>
      </trkpt>
      <trkpt lat="49.16795" lon="3.95163">
        <ele>193.84</ele>
        <time>2021-08-09T11:32:41Z</time>
      </trkpt>
      <trkpt lat="49.16785" lon="3.95172">
        <ele>194.32</ele>
        <time>2021-08-09T11:32:47Z</time>
      </trkpt>
      <trkpt lat="49.16771" lon="3.95188">
        <ele>196.73</ele>
        <time>2021-08-09T11:32:56Z</time>
      </trkpt>
      <trkpt lat="49.16758" lon="3.95205">
        <ele>198.17</ele>
        <time>2021-08-09T11:33:05Z</time>
      </trkpt>
      <trkpt lat="49.16748" lon="3.95221">
        <ele>198.17</ele>
        <time>2021-08-09T11:33:12Z</time>
      </trkpt>
      <trkpt lat="49.16727" lon="3.95253">
        <ele>199.13</ele>
        <time>2021-08-09T11:33:23Z</time>
      </trkpt>
      <trkpt lat="49.16707" lon="3.9529">
        <ele>199.13</ele>
        <time>2021-08-09T11:33:33Z</time>
      </trkpt>
      <trkpt lat="49.16698" lon="3.9531">
        <ele>199.13</ele>
        <time>2021-08-09T11:33:37Z</time>
      </trkpt>
      <trkpt lat="49.16681" lon="3.95357">
        <ele>199.13</ele>
        <time>2021-08-09T11:33:46Z</time>
      </trkpt>
      <trkpt lat="49.16667" lon="3.95406">
        <ele>199.61</ele>
        <time>2021-08-09T11:33:56Z</time>
      </trkpt>
      <trkpt lat="49.16662" lon="3.95448">
        <ele>198.65</ele>
        <time>2021-08-09T11:34:04Z</time>
      </trkpt>
      <trkpt lat="49.16666" lon="3.95471">
        <ele>197.21</ele>
        <time>2021-08-09T11:34:09Z</time>
      </trkpt>
      <trkpt lat="49.16669" lon="3.95474">
        <ele>196.73</ele>
        <time>2021-08-09T11:34:10Z</time>
      </trkpt>
      <trkpt lat="49.16673" lon="3.95476">
        <ele>195.77</ele>
        <time>2021-08-09T11:34:11Z</time>
      </trkpt>
      <trkpt lat="49.16677" lon="3.95479">
        <ele>194.8</ele>
        <time>2021-08-09T11:34:12Z</time>
      </trkpt>
      <trkpt lat="49.16681" lon="3.95484">
        <ele>194.32</ele>
        <time>2021-08-09T11:34:13Z</time>
      </trkpt>
      <trkpt lat="49.16701" lon="3.95502">
        <ele>190.96</ele>
        <time>2021-08-09T11:34:17Z</time>
      </trkpt>
      <trkpt lat="49.16723" lon="3.95523">
        <ele>188.56</ele>
        <time>2021-08-09T11:34:22Z</time>
      </trkpt>
      <trkpt lat="49.16727" lon="3.9553">
        <ele>187.59</ele>
        <time>2021-08-09T11:34:24Z</time>
      </trkpt>
      <trkpt lat="49.16727" lon="3.95532">
        <ele>187.59</ele>
        <time>2021-08-09T11:34:25Z</time>
      </trkpt>
      <trkpt lat="49.16727" lon="3.95534">
        <ele>188.08</ele>
        <time>2021-08-09T11:34:31Z</time>
      </trkpt>
      <trkpt lat="49.16726" lon="3.95538">
        <ele>187.59</ele>
        <time>2021-08-09T11:34:45Z</time>
      </trkpt>
      <trkpt lat="49.16725" lon="3.9554">
        <ele>187.59</ele>
        <time>2021-08-09T11:34:46Z</time>
      </trkpt>
      <trkpt lat="49.16716" lon="3.95558">
        <ele>189.04</ele>
        <time>2021-08-09T11:34:54Z</time>
      </trkpt>
      <trkpt lat="49.16713" lon="3.95562">
        <ele>189.52</ele>
        <time>2021-08-09T11:34:56Z</time>
      </trkpt>
      <trkpt lat="49.16712" lon="3.95563">
        <ele>189.52</ele>
        <time>2021-08-09T11:34:57Z</time>
      </trkpt>
      <trkpt lat="49.1671" lon="3.95565">
        <ele>190</ele>
        <time>2021-08-09T11:34:58Z</time>
      </trkpt>
      <trkpt lat="49.16709" lon="3.95567">
        <ele>190</ele>
        <time>2021-08-09T11:34:59Z</time>
      </trkpt>
      <trkpt lat="49.16708" lon="3.95569">
        <ele>190.48</ele>
        <time>2021-08-09T11:35:00Z</time>
      </trkpt>
      <trkpt lat="49.16708" lon="3.95572">
        <ele>190.48</ele>
        <time>2021-08-09T11:35:01Z</time>
      </trkpt>
      <trkpt lat="49.16707" lon="3.95575">
        <ele>191.44</ele>
        <time>2021-08-09T11:35:02Z</time>
      </trkpt>
      <trkpt lat="49.16706" lon="3.95577">
        <ele>191.44</ele>
        <time>2021-08-09T11:35:03Z</time>
      </trkpt>
      <trkpt lat="49.16705" lon="3.95579">
        <ele>191.44</ele>
        <time>2021-08-09T11:35:04Z</time>
      </trkpt>
      <trkpt lat="49.16703" lon="3.95584">
        <ele>192.4</ele>
        <time>2021-08-09T11:35:07Z</time>
      </trkpt>
      <trkpt lat="49.16702" lon="3.95585">
        <ele>192.88</ele>
        <time>2021-08-09T11:35:08Z</time>
      </trkpt>
      <trkpt lat="49.16702" lon="3.95587">
        <ele>192.88</ele>
        <time>2021-08-09T11:35:09Z</time>
      </trkpt>
      <trkpt lat="49.16701" lon="3.95588">
        <ele>192.88</ele>
        <time>2021-08-09T11:35:10Z</time>
      </trkpt>
      <trkpt lat="49.167" lon="3.95589">
        <ele>193.36</ele>
        <time>2021-08-09T11:35:11Z</time>
      </trkpt>
      <trkpt lat="49.16699" lon="3.9559">
        <ele>193.36</ele>
        <time>2021-08-09T11:35:12Z</time>
      </trkpt>
      <trkpt lat="49.16698" lon="3.95592">
        <ele>193.36</ele>
        <time>2021-08-09T11:35:13Z</time>
      </trkpt>
      <trkpt lat="49.16697" lon="3.95594">
        <ele>193.84</ele>
        <time>2021-08-09T11:35:15Z</time>
      </trkpt>
      <trkpt lat="49.16696" lon="3.95596">
        <ele>194.32</ele>
        <time>2021-08-09T11:35:16Z</time>
      </trkpt>
      <trkpt lat="49.16695" lon="3.95597">
        <ele>194.32</ele>
        <time>2021-08-09T11:35:17Z</time>
      </trkpt>
      <trkpt lat="49.16694" lon="3.95599">
        <ele>194.32</ele>
        <time>2021-08-09T11:35:18Z</time>
      </trkpt>
      <trkpt lat="49.16694" lon="3.956">
        <ele>194.32</ele>
        <time>2021-08-09T11:35:19Z</time>
      </trkpt>
      <trkpt lat="49.16692" lon="3.95605">
        <ele>195.28</ele>
        <time>2021-08-09T11:35:22Z</time>
      </trkpt>
      <trkpt lat="49.16691" lon="3.95606">
        <ele>195.28</ele>
        <time>2021-08-09T11:35:23Z</time>
      </trkpt>
      <trkpt lat="49.1669" lon="3.95608">
        <ele>195.28</ele>
        <time>2021-08-09T11:35:24Z</time>
      </trkpt>
      <trkpt lat="49.16689" lon="3.9561">
        <ele>195.28</ele>
        <time>2021-08-09T11:35:25Z</time>
      </trkpt>
      <trkpt lat="49.16688" lon="3.95611">
        <ele>195.28</ele>
        <time>2021-08-09T11:35:26Z</time>
      </trkpt>
      <trkpt lat="49.16681" lon="3.95623">
        <ele>197.21</ele>
        <time>2021-08-09T11:35:34Z</time>
      </trkpt>
      <trkpt lat="49.16672" lon="3.95637">
        <ele>197.21</ele>
        <time>2021-08-09T11:35:42Z</time>
      </trkpt>
      <trkpt lat="49.1667" lon="3.95638">
        <ele>197.21</ele>
        <time>2021-08-09T11:35:43Z</time>
      </trkpt>
      <trkpt lat="49.16668" lon="3.95638">
        <ele>197.69</ele>
        <time>2021-08-09T11:35:44Z</time>
      </trkpt>
      <trkpt lat="49.16667" lon="3.95637">
        <ele>198.17</ele>
        <time>2021-08-09T11:35:45Z</time>
      </trkpt>
      <trkpt lat="49.16666" lon="3.95636">
        <ele>198.17</ele>
        <time>2021-08-09T11:35:46Z</time>
      </trkpt>
      <trkpt lat="49.16657" lon="3.95629">
        <ele>199.13</ele>
        <time>2021-08-09T11:35:53Z</time>
      </trkpt>
      <trkpt lat="49.16648" lon="3.95622">
        <ele>200.09</ele>
        <time>2021-08-09T11:36:01Z</time>
      </trkpt>
      <trkpt lat="49.16646" lon="3.95621">
        <ele>200.57</ele>
        <time>2021-08-09T11:36:03Z</time>
      </trkpt>
      <trkpt lat="49.16645" lon="3.9562">
        <ele>200.57</ele>
        <time>2021-08-09T11:36:04Z</time>
      </trkpt>
      <trkpt lat="49.16644" lon="3.95618">
        <ele>200.57</ele>
        <time>2021-08-09T11:36:05Z</time>
      </trkpt>
      <trkpt lat="49.16643" lon="3.95618">
        <ele>200.57</ele>
        <time>2021-08-09T11:36:06Z</time>
      </trkpt>
      <trkpt lat="49.16642" lon="3.95617">
        <ele>201.53</ele>
        <time>2021-08-09T11:36:07Z</time>
      </trkpt>
      <trkpt lat="49.16641" lon="3.95615">
        <ele>201.53</ele>
        <time>2021-08-09T11:36:08Z</time>
      </trkpt>
      <trkpt lat="49.1664" lon="3.95614">
        <ele>201.53</ele>
        <time>2021-08-09T11:36:09Z</time>
      </trkpt>
      <trkpt lat="49.16639" lon="3.95614">
        <ele>201.53</ele>
        <time>2021-08-09T11:36:10Z</time>
      </trkpt>
      <trkpt lat="49.16638" lon="3.95614">
        <ele>202.01</ele>
        <time>2021-08-09T11:36:11Z</time>
      </trkpt>
      <trkpt lat="49.16637" lon="3.95613">
        <ele>202.01</ele>
        <time>2021-08-09T11:36:12Z</time>
      </trkpt>
      <trkpt lat="49.16635" lon="3.95615">
        <ele>202.49</ele>
        <time>2021-08-09T11:36:15Z</time>
      </trkpt>
      <trkpt lat="49.16638" lon="3.95617">
        <ele>202.49</ele>
        <time>2021-08-09T11:36:17Z</time>
      </trkpt>
      <trkpt lat="49.16642" lon="3.95618">
        <ele>202.49</ele>
        <time>2021-08-09T11:36:18Z</time>
      </trkpt>
      <trkpt lat="49.16645" lon="3.95619">
        <ele>201.05</ele>
        <time>2021-08-09T11:36:19Z</time>
      </trkpt>
      <trkpt lat="49.16649" lon="3.95621">
        <ele>200.57</ele>
        <time>2021-08-09T11:36:20Z</time>
      </trkpt>
      <trkpt lat="49.16653" lon="3.95624">
        <ele>200.09</ele>
        <time>2021-08-09T11:36:21Z</time>
      </trkpt>
      <trkpt lat="49.16657" lon="3.95628">
        <ele>199.61</ele>
        <time>2021-08-09T11:36:22Z</time>
      </trkpt>
      <trkpt lat="49.1666" lon="3.95631">
        <ele>199.13</ele>
        <time>2021-08-09T11:36:23Z</time>
      </trkpt>
      <trkpt lat="49.16662" lon="3.95635">
        <ele>198.65</ele>
        <time>2021-08-09T11:36:24Z</time>
      </trkpt>
      <trkpt lat="49.16663" lon="3.9564">
        <ele>198.17</ele>
        <time>2021-08-09T11:36:25Z</time>
      </trkpt>
      <trkpt lat="49.16662" lon="3.95643">
        <ele>198.17</ele>
        <time>2021-08-09T11:36:26Z</time>
      </trkpt>
      <trkpt lat="49.1666" lon="3.95647">
        <ele>198.17</ele>
        <time>2021-08-09T11:36:27Z</time>
      </trkpt>
      <trkpt lat="49.16658" lon="3.95649">
        <ele>198.17</ele>
        <time>2021-08-09T11:36:28Z</time>
      </trkpt>
      <trkpt lat="49.16656" lon="3.95651">
        <ele>198.17</ele>
        <time>2021-08-09T11:36:29Z</time>
      </trkpt>
      <trkpt lat="49.16654" lon="3.95653">
        <ele>198.17</ele>
        <time>2021-08-09T11:36:30Z</time>
      </trkpt>
      <trkpt lat="49.16652" lon="3.95655">
        <ele>198.17</ele>
        <time>2021-08-09T11:36:31Z</time>
      </trkpt>
      <trkpt lat="49.1665" lon="3.95658">
        <ele>198.17</ele>
        <time>2021-08-09T11:36:32Z</time>
      </trkpt>
      <trkpt lat="49.16648" lon="3.95661">
        <ele>198.17</ele>
        <time>2021-08-09T11:36:33Z</time>
      </trkpt>
      <trkpt lat="49.16646" lon="3.95663">
        <ele>198.17</ele>
        <time>2021-08-09T11:36:34Z</time>
      </trkpt>
      <trkpt lat="49.16644" lon="3.95666">
        <ele>198.17</ele>
        <time>2021-08-09T11:36:35Z</time>
      </trkpt>
      <trkpt lat="49.16642" lon="3.95669">
        <ele>198.17</ele>
        <time>2021-08-09T11:36:36Z</time>
      </trkpt>
      <trkpt lat="49.1662" lon="3.95698">
        <ele>198.17</ele>
        <time>2021-08-09T11:36:45Z</time>
      </trkpt>
      <trkpt lat="49.16596" lon="3.95728">
        <ele>199.61</ele>
        <time>2021-08-09T11:36:54Z</time>
      </trkpt>
      <trkpt lat="49.16572" lon="3.95762">
        <ele>200.57</ele>
        <time>2021-08-09T11:37:04Z</time>
      </trkpt>
      <trkpt lat="49.16549" lon="3.95783">
        <ele>201.53</ele>
        <time>2021-08-09T11:37:13Z</time>
      </trkpt>
      <trkpt lat="49.1654" lon="3.95789">
        <ele>202.98</ele>
        <time>2021-08-09T11:37:17Z</time>
      </trkpt>
      <trkpt lat="49.16539" lon="3.95792">
        <ele>202.98</ele>
        <time>2021-08-09T11:37:18Z</time>
      </trkpt>
      <trkpt lat="49.16539" lon="3.95797">
        <ele>202.98</ele>
        <time>2021-08-09T11:37:19Z</time>
      </trkpt>
      <trkpt lat="49.16539" lon="3.95809">
        <ele>201.05</ele>
        <time>2021-08-09T11:37:21Z</time>
      </trkpt>
      <trkpt lat="49.1654" lon="3.95816">
        <ele>201.05</ele>
        <time>2021-08-09T11:37:22Z</time>
      </trkpt>
      <trkpt lat="49.16542" lon="3.95824">
        <ele>199.61</ele>
        <time>2021-08-09T11:37:23Z</time>
      </trkpt>
      <trkpt lat="49.16544" lon="3.95831">
        <ele>199.13</ele>
        <time>2021-08-09T11:37:24Z</time>
      </trkpt>
      <trkpt lat="49.16547" lon="3.95838">
        <ele>198.17</ele>
        <time>2021-08-09T11:37:25Z</time>
      </trkpt>
      <trkpt lat="49.16551" lon="3.95845">
        <ele>197.21</ele>
        <time>2021-08-09T11:37:26Z</time>
      </trkpt>
      <trkpt lat="49.16555" lon="3.95853">
        <ele>194.32</ele>
        <time>2021-08-09T11:37:27Z</time>
      </trkpt>
      <trkpt lat="49.16559" lon="3.95859">
        <ele>194.32</ele>
        <time>2021-08-09T11:37:28Z</time>
      </trkpt>
      <trkpt lat="49.16568" lon="3.95872">
        <ele>190.96</ele>
        <time>2021-08-09T11:37:30Z</time>
      </trkpt>
      <trkpt lat="49.16571" lon="3.95877">
        <ele>190.96</ele>
        <time>2021-08-09T11:37:31Z</time>
      </trkpt>
      <trkpt lat="49.16573" lon="3.95881">
        <ele>190</ele>
        <time>2021-08-09T11:37:32Z</time>
      </trkpt>
      <trkpt lat="49.16572" lon="3.95886">
        <ele>189.52</ele>
        <time>2021-08-09T11:37:33Z</time>
      </trkpt>
      <trkpt lat="49.16569" lon="3.9589">
        <ele>189.52</ele>
        <time>2021-08-09T11:37:34Z</time>
      </trkpt>
      <trkpt lat="49.16567" lon="3.95892">
        <ele>189.52</ele>
        <time>2021-08-09T11:37:35Z</time>
      </trkpt>
      <trkpt lat="49.16564" lon="3.95895">
        <ele>189.04</ele>
        <time>2021-08-09T11:37:36Z</time>
      </trkpt>
      <trkpt lat="49.16546" lon="3.95911">
        <ele>189.04</ele>
        <time>2021-08-09T11:37:42Z</time>
      </trkpt>
      <trkpt lat="49.16507" lon="3.9595">
        <ele>189.52</ele>
        <time>2021-08-09T11:37:53Z</time>
      </trkpt>
      <trkpt lat="49.16479" lon="3.95973">
        <ele>189.52</ele>
        <time>2021-08-09T11:38:01Z</time>
      </trkpt>
      <trkpt lat="49.16476" lon="3.95975">
        <ele>190.48</ele>
        <time>2021-08-09T11:38:02Z</time>
      </trkpt>
      <trkpt lat="49.16461" lon="3.95987">
        <ele>190.48</ele>
        <time>2021-08-09T11:38:06Z</time>
      </trkpt>
      <trkpt lat="49.16458" lon="3.95988">
        <ele>190.48</ele>
        <time>2021-08-09T11:38:07Z</time>
      </trkpt>
      <trkpt lat="49.16453" lon="3.9599">
        <ele>190.48</ele>
        <time>2021-08-09T11:38:08Z</time>
      </trkpt>
      <trkpt lat="49.16449" lon="3.95992">
        <ele>190.48</ele>
        <time>2021-08-09T11:38:09Z</time>
      </trkpt>
      <trkpt lat="49.16446" lon="3.95993">
        <ele>190.48</ele>
        <time>2021-08-09T11:38:10Z</time>
      </trkpt>
      <trkpt lat="49.16421" lon="3.96003">
        <ele>191.44</ele>
        <time>2021-08-09T11:38:17Z</time>
      </trkpt>
      <trkpt lat="49.16403" lon="3.96014">
        <ele>191.92</ele>
        <time>2021-08-09T11:38:23Z</time>
      </trkpt>
      <trkpt lat="49.16382" lon="3.96026">
        <ele>193.36</ele>
        <time>2021-08-09T11:38:31Z</time>
      </trkpt>
      <trkpt lat="49.16352" lon="3.96045">
        <ele>194.8</ele>
        <time>2021-08-09T11:38:42Z</time>
      </trkpt>
      <trkpt lat="49.16321" lon="3.96069">
        <ele>195.28</ele>
        <time>2021-08-09T11:38:53Z</time>
      </trkpt>
      <trkpt lat="49.16288" lon="3.96099">
        <ele>195.77</ele>
        <time>2021-08-09T11:39:04Z</time>
      </trkpt>
      <trkpt lat="49.16269" lon="3.96117">
        <ele>194.8</ele>
        <time>2021-08-09T11:39:10Z</time>
      </trkpt>
      <trkpt lat="49.16262" lon="3.96129">
        <ele>194.8</ele>
        <time>2021-08-09T11:39:13Z</time>
      </trkpt>
      <trkpt lat="49.16262" lon="3.96134">
        <ele>194.8</ele>
        <time>2021-08-09T11:39:14Z</time>
      </trkpt>
      <trkpt lat="49.16264" lon="3.9614">
        <ele>194.8</ele>
        <time>2021-08-09T11:39:15Z</time>
      </trkpt>
      <trkpt lat="49.16265" lon="3.96142">
        <ele>194.8</ele>
        <time>2021-08-09T11:39:16Z</time>
      </trkpt>
      <trkpt lat="49.16266" lon="3.96145">
        <ele>194.8</ele>
        <time>2021-08-09T11:39:17Z</time>
      </trkpt>
      <trkpt lat="49.16265" lon="3.96148">
        <ele>194.32</ele>
        <time>2021-08-09T11:39:18Z</time>
      </trkpt>
      <trkpt lat="49.16264" lon="3.9615">
        <ele>194.32</ele>
        <time>2021-08-09T11:39:19Z</time>
      </trkpt>
      <trkpt lat="49.16263" lon="3.96153">
        <ele>194.32</ele>
        <time>2021-08-09T11:39:20Z</time>
      </trkpt>
      <trkpt lat="49.1625" lon="3.96173">
        <ele>194.32</ele>
        <time>2021-08-09T11:39:27Z</time>
      </trkpt>
      <trkpt lat="49.16245" lon="3.96182">
        <ele>194.32</ele>
        <time>2021-08-09T11:39:29Z</time>
      </trkpt>
      <trkpt lat="49.1624" lon="3.96196">
        <ele>193.84</ele>
        <time>2021-08-09T11:39:31Z</time>
      </trkpt>
      <trkpt lat="49.16237" lon="3.96204">
        <ele>193.36</ele>
        <time>2021-08-09T11:39:32Z</time>
      </trkpt>
      <trkpt lat="49.16233" lon="3.9621">
        <ele>192.4</ele>
        <time>2021-08-09T11:39:33Z</time>
      </trkpt>
      <trkpt lat="49.16223" lon="3.96221">
        <ele>190.96</ele>
        <time>2021-08-09T11:39:35Z</time>
      </trkpt>
      <trkpt lat="49.16217" lon="3.96225">
        <ele>191.44</ele>
        <time>2021-08-09T11:39:36Z</time>
      </trkpt>
      <trkpt lat="49.16211" lon="3.96228">
        <ele>191.44</ele>
        <time>2021-08-09T11:39:37Z</time>
      </trkpt>
      <trkpt lat="49.16205" lon="3.96231">
        <ele>191.44</ele>
        <time>2021-08-09T11:39:38Z</time>
      </trkpt>
      <trkpt lat="49.162" lon="3.96233">
        <ele>191.44</ele>
        <time>2021-08-09T11:39:39Z</time>
      </trkpt>
      <trkpt lat="49.16154" lon="3.96255">
        <ele>190.48</ele>
        <time>2021-08-09T11:39:48Z</time>
      </trkpt>
      <trkpt lat="49.1615" lon="3.96257">
        <ele>190</ele>
        <time>2021-08-09T11:39:49Z</time>
      </trkpt>
      <trkpt lat="49.16137" lon="3.96267">
        <ele>190</ele>
        <time>2021-08-09T11:39:52Z</time>
      </trkpt>
      <trkpt lat="49.16133" lon="3.96273">
        <ele>189.04</ele>
        <time>2021-08-09T11:39:53Z</time>
      </trkpt>
      <trkpt lat="49.16129" lon="3.96279">
        <ele>189.04</ele>
        <time>2021-08-09T11:39:54Z</time>
      </trkpt>
      <trkpt lat="49.16123" lon="3.96294">
        <ele>187.59</ele>
        <time>2021-08-09T11:39:56Z</time>
      </trkpt>
      <trkpt lat="49.16109" lon="3.96329">
        <ele>184.71</ele>
        <time>2021-08-09T11:40:00Z</time>
      </trkpt>
      <trkpt lat="49.16104" lon="3.96337">
        <ele>184.71</ele>
        <time>2021-08-09T11:40:01Z</time>
      </trkpt>
      <trkpt lat="49.16098" lon="3.96343">
        <ele>184.23</ele>
        <time>2021-08-09T11:40:02Z</time>
      </trkpt>
      <trkpt lat="49.16092" lon="3.96348">
        <ele>184.23</ele>
        <time>2021-08-09T11:40:03Z</time>
      </trkpt>
      <trkpt lat="49.16085" lon="3.96353">
        <ele>184.23</ele>
        <time>2021-08-09T11:40:04Z</time>
      </trkpt>
      <trkpt lat="49.16068" lon="3.96373">
        <ele>183.27</ele>
        <time>2021-08-09T11:40:07Z</time>
      </trkpt>
      <trkpt lat="49.16064" lon="3.96382">
        <ele>182.79</ele>
        <time>2021-08-09T11:40:08Z</time>
      </trkpt>
      <trkpt lat="49.16055" lon="3.96402">
        <ele>181.83</ele>
        <time>2021-08-09T11:40:10Z</time>
      </trkpt>
      <trkpt lat="49.16038" lon="3.96447">
        <ele>178.94</ele>
        <time>2021-08-09T11:40:14Z</time>
      </trkpt>
      <trkpt lat="49.16038" lon="3.96459">
        <ele>178.46</ele>
        <time>2021-08-09T11:40:15Z</time>
      </trkpt>
      <trkpt lat="49.16039" lon="3.96484">
        <ele>177.02</ele>
        <time>2021-08-09T11:40:17Z</time>
      </trkpt>
      <trkpt lat="49.16037" lon="3.96498">
        <ele>175.58</ele>
        <time>2021-08-09T11:40:18Z</time>
      </trkpt>
      <trkpt lat="49.16032" lon="3.96523">
        <ele>175.1</ele>
        <time>2021-08-09T11:40:20Z</time>
      </trkpt>
      <trkpt lat="49.16008" lon="3.96642">
        <ele>173.66</ele>
        <time>2021-08-09T11:40:30Z</time>
      </trkpt>
      <trkpt lat="49.15992" lon="3.967">
        <ele>173.17</ele>
        <time>2021-08-09T11:40:36Z</time>
      </trkpt>
      <trkpt lat="49.15984" lon="3.96718">
        <ele>174.62</ele>
        <time>2021-08-09T11:40:39Z</time>
      </trkpt>
      <trkpt lat="49.15977" lon="3.96735">
        <ele>176.06</ele>
        <time>2021-08-09T11:40:45Z</time>
      </trkpt>
      <trkpt lat="49.15967" lon="3.9676">
        <ele>178.94</ele>
        <time>2021-08-09T11:40:56Z</time>
      </trkpt>
      <trkpt lat="49.1596" lon="3.96776">
        <ele>180.87</ele>
        <time>2021-08-09T11:41:04Z</time>
      </trkpt>
      <trkpt lat="49.15954" lon="3.96792">
        <ele>182.31</ele>
        <time>2021-08-09T11:41:12Z</time>
      </trkpt>
      <trkpt lat="49.15947" lon="3.96812">
        <ele>183.75</ele>
        <time>2021-08-09T11:41:21Z</time>
      </trkpt>
      <trkpt lat="49.15941" lon="3.9683">
        <ele>184.23</ele>
        <time>2021-08-09T11:41:29Z</time>
      </trkpt>
      <trkpt lat="49.15933" lon="3.96851">
        <ele>184.23</ele>
        <time>2021-08-09T11:41:35Z</time>
      </trkpt>
      <trkpt lat="49.1593" lon="3.96852">
        <ele>184.23</ele>
        <time>2021-08-09T11:41:36Z</time>
      </trkpt>
      <trkpt lat="49.15928" lon="3.96851">
        <ele>184.23</ele>
        <time>2021-08-09T11:41:37Z</time>
      </trkpt>
      <trkpt lat="49.15926" lon="3.96849">
        <ele>184.23</ele>
        <time>2021-08-09T11:41:38Z</time>
      </trkpt>
      <trkpt lat="49.15925" lon="3.96848">
        <ele>184.23</ele>
        <time>2021-08-09T11:41:39Z</time>
      </trkpt>
      <trkpt lat="49.15923" lon="3.96847">
        <ele>184.23</ele>
        <time>2021-08-09T11:41:40Z</time>
      </trkpt>
      <trkpt lat="49.15922" lon="3.96846">
        <ele>184.71</ele>
        <time>2021-08-09T11:41:41Z</time>
      </trkpt>
      <trkpt lat="49.15921" lon="3.96846">
        <ele>184.71</ele>
        <time>2021-08-09T11:41:42Z</time>
      </trkpt>
      <trkpt lat="49.15919" lon="3.96844">
        <ele>185.67</ele>
        <time>2021-08-09T11:41:43Z</time>
      </trkpt>
      <trkpt lat="49.15918" lon="3.96843">
        <ele>185.67</ele>
        <time>2021-08-09T11:41:44Z</time>
      </trkpt>
      <trkpt lat="49.15917" lon="3.96842">
        <ele>185.67</ele>
        <time>2021-08-09T11:41:45Z</time>
      </trkpt>
      <trkpt lat="49.15904" lon="3.96833">
        <ele>187.11</ele>
        <time>2021-08-09T11:41:54Z</time>
      </trkpt>
      <trkpt lat="49.15886" lon="3.96824">
        <ele>188.56</ele>
        <time>2021-08-09T11:42:05Z</time>
      </trkpt>
      <trkpt lat="49.15883" lon="3.96823">
        <ele>188.56</ele>
        <time>2021-08-09T11:42:07Z</time>
      </trkpt>
      <trkpt lat="49.15878" lon="3.96822">
        <ele>189.04</ele>
        <time>2021-08-09T11:42:11Z</time>
      </trkpt>
      <trkpt lat="49.15877" lon="3.96821">
        <ele>189.04</ele>
        <time>2021-08-09T11:42:12Z</time>
      </trkpt>
      <trkpt lat="49.15875" lon="3.96819">
        <ele>189.52</ele>
        <time>2021-08-09T11:42:13Z</time>
      </trkpt>
      <trkpt lat="49.15874" lon="3.96819">
        <ele>189.52</ele>
        <time>2021-08-09T11:42:14Z</time>
      </trkpt>
      <trkpt lat="49.15872" lon="3.96818">
        <ele>189.52</ele>
        <time>2021-08-09T11:42:15Z</time>
      </trkpt>
      <trkpt lat="49.15871" lon="3.96817">
        <ele>190</ele>
        <time>2021-08-09T11:42:16Z</time>
      </trkpt>
      <trkpt lat="49.15869" lon="3.96816">
        <ele>190</ele>
        <time>2021-08-09T11:42:17Z</time>
      </trkpt>
      <trkpt lat="49.15868" lon="3.96816">
        <ele>190</ele>
        <time>2021-08-09T11:42:18Z</time>
      </trkpt>
      <trkpt lat="49.15866" lon="3.96816">
        <ele>190.48</ele>
        <time>2021-08-09T11:42:19Z</time>
      </trkpt>
      <trkpt lat="49.15865" lon="3.96815">
        <ele>190.48</ele>
        <time>2021-08-09T11:42:20Z</time>
      </trkpt>
      <trkpt lat="49.15863" lon="3.96815">
        <ele>190.96</ele>
        <time>2021-08-09T11:42:21Z</time>
      </trkpt>
      <trkpt lat="49.15861" lon="3.96815">
        <ele>191.92</ele>
        <time>2021-08-09T11:42:22Z</time>
      </trkpt>
      <trkpt lat="49.15855" lon="3.96816">
        <ele>192.4</ele>
        <time>2021-08-09T11:42:26Z</time>
      </trkpt>
      <trkpt lat="49.15853" lon="3.96817">
        <ele>192.4</ele>
        <time>2021-08-09T11:42:27Z</time>
      </trkpt>
      <trkpt lat="49.15851" lon="3.96817">
        <ele>192.4</ele>
        <time>2021-08-09T11:42:28Z</time>
      </trkpt>
      <trkpt lat="49.15849" lon="3.96818">
        <ele>192.4</ele>
        <time>2021-08-09T11:42:29Z</time>
      </trkpt>
      <trkpt lat="49.15847" lon="3.96818">
        <ele>192.4</ele>
        <time>2021-08-09T11:42:30Z</time>
      </trkpt>
      <trkpt lat="49.15846" lon="3.96818">
        <ele>192.4</ele>
        <time>2021-08-09T11:42:31Z</time>
      </trkpt>
      <trkpt lat="49.15844" lon="3.96818">
        <ele>192.4</ele>
        <time>2021-08-09T11:42:32Z</time>
      </trkpt>
      <trkpt lat="49.15826" lon="3.96826">
        <ele>194.32</ele>
        <time>2021-08-09T11:42:42Z</time>
      </trkpt>
      <trkpt lat="49.15813" lon="3.96838">
        <ele>195.77</ele>
        <time>2021-08-09T11:42:50Z</time>
      </trkpt>
      <trkpt lat="49.15797" lon="3.96859">
        <ele>196.25</ele>
        <time>2021-08-09T11:42:59Z</time>
      </trkpt>
      <trkpt lat="49.1579" lon="3.96871">
        <ele>197.21</ele>
        <time>2021-08-09T11:43:04Z</time>
      </trkpt>
      <trkpt lat="49.1579" lon="3.96874">
        <ele>197.21</ele>
        <time>2021-08-09T11:43:05Z</time>
      </trkpt>
      <trkpt lat="49.15792" lon="3.96877">
        <ele>197.21</ele>
        <time>2021-08-09T11:43:06Z</time>
      </trkpt>
      <trkpt lat="49.15805" lon="3.96895">
        <ele>197.69</ele>
        <time>2021-08-09T11:43:13Z</time>
      </trkpt>
      <trkpt lat="49.15807" lon="3.96907">
        <ele>196.25</ele>
        <time>2021-08-09T11:43:15Z</time>
      </trkpt>
      <trkpt lat="49.15805" lon="3.96913">
        <ele>196.25</ele>
        <time>2021-08-09T11:43:16Z</time>
      </trkpt>
      <trkpt lat="49.15802" lon="3.96918">
        <ele>196.25</ele>
        <time>2021-08-09T11:43:17Z</time>
      </trkpt>
      <trkpt lat="49.15785" lon="3.96944">
        <ele>194.8</ele>
        <time>2021-08-09T11:43:22Z</time>
      </trkpt>
      <trkpt lat="49.1576" lon="3.96993">
        <ele>192.4</ele>
        <time>2021-08-09T11:43:30Z</time>
      </trkpt>
      <trkpt lat="49.15746" lon="3.97016">
        <ele>190.48</ele>
        <time>2021-08-09T11:43:33Z</time>
      </trkpt>
      <trkpt lat="49.15741" lon="3.97023">
        <ele>190.48</ele>
        <time>2021-08-09T11:43:34Z</time>
      </trkpt>
      <trkpt lat="49.15708" lon="3.97065">
        <ele>189.04</ele>
        <time>2021-08-09T11:43:41Z</time>
      </trkpt>
      <trkpt lat="49.15701" lon="3.97075">
        <ele>189.04</ele>
        <time>2021-08-09T11:43:43Z</time>
      </trkpt>
      <trkpt lat="49.15696" lon="3.97086">
        <ele>189.04</ele>
        <time>2021-08-09T11:43:45Z</time>
      </trkpt>
      <trkpt lat="49.15694" lon="3.97091">
        <ele>189.04</ele>
        <time>2021-08-09T11:43:46Z</time>
      </trkpt>
      <trkpt lat="49.15692" lon="3.97096">
        <ele>189.04</ele>
        <time>2021-08-09T11:43:47Z</time>
      </trkpt>
      <trkpt lat="49.1569" lon="3.97101">
        <ele>189.04</ele>
        <time>2021-08-09T11:43:48Z</time>
      </trkpt>
      <trkpt lat="49.15688" lon="3.97105">
        <ele>190</ele>
        <time>2021-08-09T11:43:49Z</time>
      </trkpt>
      <trkpt lat="49.15686" lon="3.97109">
        <ele>190</ele>
        <time>2021-08-09T11:43:50Z</time>
      </trkpt>
      <trkpt lat="49.15676" lon="3.97142">
        <ele>191.44</ele>
        <time>2021-08-09T11:43:58Z</time>
      </trkpt>
      <trkpt lat="49.15662" lon="3.97176">
        <ele>192.88</ele>
        <time>2021-08-09T11:44:07Z</time>
      </trkpt>
      <trkpt lat="49.15649" lon="3.97196">
        <ele>194.32</ele>
        <time>2021-08-09T11:44:15Z</time>
      </trkpt>
      <trkpt lat="49.15642" lon="3.97206">
        <ele>194.8</ele>
        <time>2021-08-09T11:44:22Z</time>
      </trkpt>
      <trkpt lat="49.15641" lon="3.97207">
        <ele>195.28</ele>
        <time>2021-08-09T11:44:23Z</time>
      </trkpt>
      <trkpt lat="49.15631" lon="3.97222">
        <ele>195.77</ele>
        <time>2021-08-09T11:44:32Z</time>
      </trkpt>
      <trkpt lat="49.1562" lon="3.97238">
        <ele>196.73</ele>
        <time>2021-08-09T11:44:42Z</time>
      </trkpt>
      <trkpt lat="49.15613" lon="3.97248">
        <ele>198.17</ele>
        <time>2021-08-09T11:44:49Z</time>
      </trkpt>
      <trkpt lat="49.15612" lon="3.97249">
        <ele>198.65</ele>
        <time>2021-08-09T11:44:50Z</time>
      </trkpt>
      <trkpt lat="49.15611" lon="3.97251">
        <ele>198.65</ele>
        <time>2021-08-09T11:44:51Z</time>
      </trkpt>
      <trkpt lat="49.1561" lon="3.97252">
        <ele>198.65</ele>
        <time>2021-08-09T11:44:52Z</time>
      </trkpt>
      <trkpt lat="49.15607" lon="3.97257">
        <ele>199.13</ele>
        <time>2021-08-09T11:44:56Z</time>
      </trkpt>
      <trkpt lat="49.15606" lon="3.97258">
        <ele>199.61</ele>
        <time>2021-08-09T11:44:57Z</time>
      </trkpt>
      <trkpt lat="49.15605" lon="3.97258">
        <ele>199.61</ele>
        <time>2021-08-09T11:44:58Z</time>
      </trkpt>
      <trkpt lat="49.15603" lon="3.97259">
        <ele>200.09</ele>
        <time>2021-08-09T11:44:59Z</time>
      </trkpt>
      <trkpt lat="49.15603" lon="3.97261">
        <ele>200.09</ele>
        <time>2021-08-09T11:45:00Z</time>
      </trkpt>
      <trkpt lat="49.15603" lon="3.97262">
        <ele>200.09</ele>
        <time>2021-08-09T11:45:01Z</time>
      </trkpt>
      <trkpt lat="49.15602" lon="3.97264">
        <ele>200.57</ele>
        <time>2021-08-09T11:45:02Z</time>
      </trkpt>
      <trkpt lat="49.15602" lon="3.97266">
        <ele>200.57</ele>
        <time>2021-08-09T11:45:03Z</time>
      </trkpt>
      <trkpt lat="49.15601" lon="3.97268">
        <ele>200.57</ele>
        <time>2021-08-09T11:45:04Z</time>
      </trkpt>
      <trkpt lat="49.156" lon="3.97269">
        <ele>200.57</ele>
        <time>2021-08-09T11:45:05Z</time>
      </trkpt>
      <trkpt lat="49.156" lon="3.97271">
        <ele>201.05</ele>
        <time>2021-08-09T11:45:06Z</time>
      </trkpt>
      <trkpt lat="49.156" lon="3.97274">
        <ele>201.05</ele>
        <time>2021-08-09T11:45:07Z</time>
      </trkpt>
      <trkpt lat="49.15599" lon="3.97276">
        <ele>201.05</ele>
        <time>2021-08-09T11:45:08Z</time>
      </trkpt>
      <trkpt lat="49.15599" lon="3.97279">
        <ele>201.05</ele>
        <time>2021-08-09T11:45:09Z</time>
      </trkpt>
      <trkpt lat="49.15599" lon="3.97281">
        <ele>201.05</ele>
        <time>2021-08-09T11:45:10Z</time>
      </trkpt>
      <trkpt lat="49.15596" lon="3.97303">
        <ele>202.01</ele>
        <time>2021-08-09T11:45:19Z</time>
      </trkpt>
      <trkpt lat="49.15596" lon="3.97311">
        <ele>202.49</ele>
        <time>2021-08-09T11:45:23Z</time>
      </trkpt>
      <trkpt lat="49.15596" lon="3.97313">
        <ele>202.49</ele>
        <time>2021-08-09T11:45:24Z</time>
      </trkpt>
      <trkpt lat="49.15597" lon="3.97315">
        <ele>202.98</ele>
        <time>2021-08-09T11:45:25Z</time>
      </trkpt>
      <trkpt lat="49.15597" lon="3.97317">
        <ele>202.98</ele>
        <time>2021-08-09T11:45:26Z</time>
      </trkpt>
      <trkpt lat="49.15596" lon="3.97319">
        <ele>202.98</ele>
        <time>2021-08-09T11:45:27Z</time>
      </trkpt>
      <trkpt lat="49.15596" lon="3.97321">
        <ele>203.46</ele>
        <time>2021-08-09T11:45:28Z</time>
      </trkpt>
      <trkpt lat="49.15596" lon="3.97323">
        <ele>203.94</ele>
        <time>2021-08-09T11:45:29Z</time>
      </trkpt>
      <trkpt lat="49.15596" lon="3.97326">
        <ele>203.94</ele>
        <time>2021-08-09T11:45:30Z</time>
      </trkpt>
      <trkpt lat="49.15596" lon="3.97329">
        <ele>203.94</ele>
        <time>2021-08-09T11:45:31Z</time>
      </trkpt>
      <trkpt lat="49.15595" lon="3.97356">
        <ele>204.9</ele>
        <time>2021-08-09T11:45:40Z</time>
      </trkpt>
      <trkpt lat="49.15594" lon="3.97384">
        <ele>204.9</ele>
        <time>2021-08-09T11:45:47Z</time>
      </trkpt>
      <trkpt lat="49.15595" lon="3.974">
        <ele>204.9</ele>
        <time>2021-08-09T11:45:52Z</time>
      </trkpt>
      <trkpt lat="49.15598" lon="3.97421">
        <ele>205.38</ele>
        <time>2021-08-09T11:45:59Z</time>
      </trkpt>
      <trkpt lat="49.15601" lon="3.97442">
        <ele>203.94</ele>
        <time>2021-08-09T11:46:04Z</time>
      </trkpt>
      <trkpt lat="49.15603" lon="3.97472">
        <ele>201.53</ele>
        <time>2021-08-09T11:46:12Z</time>
      </trkpt>
      <trkpt lat="49.15605" lon="3.97495">
        <ele>200.57</ele>
        <time>2021-08-09T11:46:18Z</time>
      </trkpt>
      <trkpt lat="49.15603" lon="3.97541">
        <ele>198.65</ele>
        <time>2021-08-09T11:46:24Z</time>
      </trkpt>
      <trkpt lat="49.15599" lon="3.97606">
        <ele>196.25</ele>
        <time>2021-08-09T11:46:31Z</time>
      </trkpt>
      <trkpt lat="49.15598" lon="3.97633">
        <ele>196.25</ele>
        <time>2021-08-09T11:46:36Z</time>
      </trkpt>
      <trkpt lat="49.15597" lon="3.97644">
        <ele>195.77</ele>
        <time>2021-08-09T11:46:42Z</time>
      </trkpt>
      <trkpt lat="49.15598" lon="3.97641">
        <ele>195.77</ele>
        <time>2021-08-09T11:46:45Z</time>
      </trkpt>
      <trkpt lat="49.15598" lon="3.97635">
        <ele>195.77</ele>
        <time>2021-08-09T11:46:50Z</time>
      </trkpt>
      <trkpt lat="49.15598" lon="3.97627">
        <ele>195.28</ele>
        <time>2021-08-09T11:46:55Z</time>
      </trkpt>
      <trkpt lat="49.15595" lon="3.97622">
        <ele>196.73</ele>
        <time>2021-08-09T11:47:00Z</time>
      </trkpt>
      <trkpt lat="49.15592" lon="3.9762">
        <ele>195.28</ele>
        <time>2021-08-09T11:47:07Z</time>
      </trkpt>
      <trkpt lat="49.15592" lon="3.9762">
        <ele>194.8</ele>
        <time>2021-08-09T11:47:19Z</time>
      </trkpt>
      <trkpt lat="49.15591" lon="3.97621">
        <ele>194.8</ele>
        <time>2021-08-09T11:47:33Z</time>
      </trkpt>
      <trkpt lat="49.1559" lon="3.97621">
        <ele>196.25</ele>
        <time>2021-08-09T11:47:42Z</time>
      </trkpt>
      <trkpt lat="49.15589" lon="3.97622">
        <ele>194.8</ele>
        <time>2021-08-09T11:47:57Z</time>
      </trkpt>
      <trkpt lat="49.15589" lon="3.97621">
        <ele>196.25</ele>
        <time>2021-08-09T11:48:15Z</time>
      </trkpt>
      <trkpt lat="49.1559" lon="3.97621">
        <ele>196.25</ele>
        <time>2021-08-09T11:48:37Z</time>
      </trkpt>
      <trkpt lat="49.15589" lon="3.97622">
        <ele>194.8</ele>
        <time>2021-08-09T11:48:57Z</time>
      </trkpt>
      <trkpt lat="49.15588" lon="3.97623">
        <ele>194.8</ele>
        <time>2021-08-09T11:49:18Z</time>
      </trkpt>
      <trkpt lat="49.15589" lon="3.97623">
        <ele>195.77</ele>
        <time>2021-08-09T11:49:43Z</time>
      </trkpt>
      <trkpt lat="49.15591" lon="3.97622">
        <ele>195.77</ele>
        <time>2021-08-09T11:50:01Z</time>
      </trkpt>
      <trkpt lat="49.1559" lon="3.97622">
        <ele>195.77</ele>
        <time>2021-08-09T11:50:15Z</time>
      </trkpt>
      <trkpt lat="49.1559" lon="3.9762">
        <ele>194.8</ele>
        <time>2021-08-09T11:50:35Z</time>
      </trkpt>
      <trkpt lat="49.15592" lon="3.97619">
        <ele>194.8</ele>
        <time>2021-08-09T11:50:52Z</time>
      </trkpt>
      <trkpt lat="49.15592" lon="3.97621">
        <ele>194.8</ele>
        <time>2021-08-09T11:51:14Z</time>
      </trkpt>
      <trkpt lat="49.15591" lon="3.97621">
        <ele>194.8</ele>
        <time>2021-08-09T11:51:35Z</time>
      </trkpt>
      <trkpt lat="49.15591" lon="3.97621">
        <ele>194.8</ele>
        <time>2021-08-09T11:51:57Z</time>
      </trkpt>
      <trkpt lat="49.15588" lon="3.97624">
        <ele>194.8</ele>
        <time>2021-08-09T11:52:24Z</time>
      </trkpt>
      <trkpt lat="49.15588" lon="3.97625">
        <ele>194.8</ele>
        <time>2021-08-09T11:52:47Z</time>
      </trkpt>
      <trkpt lat="49.15587" lon="3.97624">
        <ele>194.8</ele>
        <time>2021-08-09T11:53:08Z</time>
      </trkpt>
      <trkpt lat="49.15588" lon="3.97623">
        <ele>194.8</ele>
        <time>2021-08-09T11:53:22Z</time>
      </trkpt>
      <trkpt lat="49.15591" lon="3.97622">
        <ele>194.8</ele>
        <time>2021-08-09T11:53:49Z</time>
      </trkpt>
      <trkpt lat="49.15589" lon="3.97624">
        <ele>195.28</ele>
        <time>2021-08-09T11:54:06Z</time>
      </trkpt>
      <trkpt lat="49.1559" lon="3.97623">
        <ele>195.28</ele>
        <time>2021-08-09T11:54:26Z</time>
      </trkpt>
      <trkpt lat="49.15591" lon="3.97623">
        <ele>194.8</ele>
        <time>2021-08-09T11:54:50Z</time>
      </trkpt>
      <trkpt lat="49.15591" lon="3.97623">
        <ele>194.8</ele>
        <time>2021-08-09T11:55:05Z</time>
      </trkpt>
      <trkpt lat="49.15589" lon="3.97624">
        <ele>194.8</ele>
        <time>2021-08-09T11:55:21Z</time>
      </trkpt>
      <trkpt lat="49.15589" lon="3.97623">
        <ele>194.8</ele>
        <time>2021-08-09T11:55:39Z</time>
      </trkpt>
      <trkpt lat="49.1559" lon="3.97622">
        <ele>194.8</ele>
        <time>2021-08-09T11:56:00Z</time>
      </trkpt>
      <trkpt lat="49.15591" lon="3.97622">
        <ele>194.8</ele>
        <time>2021-08-09T11:56:28Z</time>
      </trkpt>
      <trkpt lat="49.15591" lon="3.97621">
        <ele>194.32</ele>
        <time>2021-08-09T11:56:51Z</time>
      </trkpt>
      <trkpt lat="49.15593" lon="3.9762">
        <ele>194.32</ele>
        <time>2021-08-09T11:57:11Z</time>
      </trkpt>
      <trkpt lat="49.15593" lon="3.97619">
        <ele>194.32</ele>
        <time>2021-08-09T11:57:30Z</time>
      </trkpt>
      <trkpt lat="49.15592" lon="3.9762">
        <ele>194.32</ele>
        <time>2021-08-09T11:57:52Z</time>
      </trkpt>
      <trkpt lat="49.15591" lon="3.9762">
        <ele>194.32</ele>
        <time>2021-08-09T11:58:16Z</time>
      </trkpt>
      <trkpt lat="49.1559" lon="3.97621">
        <ele>194.32</ele>
        <time>2021-08-09T11:58:37Z</time>
      </trkpt>
      <trkpt lat="49.15589" lon="3.97622">
        <ele>194.32</ele>
        <time>2021-08-09T11:58:54Z</time>
      </trkpt>
      <trkpt lat="49.15591" lon="3.97624">
        <ele>194.32</ele>
        <time>2021-08-09T11:59:12Z</time>
      </trkpt>
      <trkpt lat="49.15591" lon="3.97619">
        <ele>195.28</ele>
        <time>2021-08-09T11:59:28Z</time>
      </trkpt>
      <trkpt lat="49.15591" lon="3.9762">
        <ele>195.28</ele>
        <time>2021-08-09T11:59:45Z</time>
      </trkpt>
      <trkpt lat="49.1559" lon="3.97621">
        <ele>195.28</ele>
        <time>2021-08-09T12:00:04Z</time>
      </trkpt>
      <trkpt lat="49.15592" lon="3.97622">
        <ele>195.28</ele>
        <time>2021-08-09T12:00:17Z</time>
      </trkpt>
      <trkpt lat="49.15593" lon="3.97621">
        <ele>195.28</ele>
        <time>2021-08-09T12:00:25Z</time>
      </trkpt>
      <trkpt lat="49.15593" lon="3.97621">
        <ele>195.28</ele>
        <time>2021-08-09T12:00:44Z</time>
      </trkpt>
      <trkpt lat="49.1559" lon="3.97623">
        <ele>195.28</ele>
        <time>2021-08-09T12:00:59Z</time>
      </trkpt>
      <trkpt lat="49.15589" lon="3.97624">
        <ele>195.28</ele>
        <time>2021-08-09T12:01:13Z</time>
      </trkpt>
      <trkpt lat="49.1559" lon="3.97623">
        <ele>195.28</ele>
        <time>2021-08-09T12:01:27Z</time>
      </trkpt>
      <trkpt lat="49.15592" lon="3.97622">
        <ele>195.28</ele>
        <time>2021-08-09T12:01:44Z</time>
      </trkpt>
      <trkpt lat="49.15591" lon="3.9762">
        <ele>194.32</ele>
        <time>2021-08-09T12:01:58Z</time>
      </trkpt>
      <trkpt lat="49.15591" lon="3.9762">
        <ele>195.77</ele>
        <time>2021-08-09T12:02:00Z</time>
      </trkpt>
      <trkpt lat="49.15591" lon="3.97621">
        <ele>195.77</ele>
        <time>2021-08-09T12:02:09Z</time>
      </trkpt>
      <trkpt lat="49.15589" lon="3.97622">
        <ele>195.77</ele>
        <time>2021-08-09T12:02:24Z</time>
      </trkpt>
      <trkpt lat="49.15588" lon="3.97624">
        <ele>195.77</ele>
        <time>2021-08-09T12:02:36Z</time>
      </trkpt>
      <trkpt lat="49.15587" lon="3.97623">
        <ele>195.77</ele>
        <time>2021-08-09T12:02:50Z</time>
      </trkpt>
      <trkpt lat="49.15587" lon="3.97622">
        <ele>195.77</ele>
        <time>2021-08-09T12:03:08Z</time>
      </trkpt>
      <trkpt lat="49.15587" lon="3.97622">
        <ele>195.77</ele>
        <time>2021-08-09T12:03:23Z</time>
      </trkpt>
      <trkpt lat="49.15589" lon="3.97622">
        <ele>195.77</ele>
        <time>2021-08-09T12:03:42Z</time>
      </trkpt>
      <trkpt lat="49.15591" lon="3.97621">
        <ele>194.8</ele>
        <time>2021-08-09T12:04:02Z</time>
      </trkpt>
      <trkpt lat="49.1559" lon="3.97622">
        <ele>195.77</ele>
        <time>2021-08-09T12:04:17Z</time>
      </trkpt>
      <trkpt lat="49.1559" lon="3.97621">
        <ele>195.28</ele>
        <time>2021-08-09T12:04:27Z</time>
      </trkpt>
      <trkpt lat="49.15591" lon="3.9762">
        <ele>194.8</ele>
        <time>2021-08-09T12:04:43Z</time>
      </trkpt>
      <trkpt lat="49.15594" lon="3.97619">
        <ele>194.8</ele>
        <time>2021-08-09T12:04:58Z</time>
      </trkpt>
      <trkpt lat="49.15593" lon="3.97621">
        <ele>194.8</ele>
        <time>2021-08-09T12:05:15Z</time>
      </trkpt>
      <trkpt lat="49.15592" lon="3.97622">
        <ele>194.8</ele>
        <time>2021-08-09T12:05:33Z</time>
      </trkpt>
      <trkpt lat="49.15589" lon="3.97623">
        <ele>194.8</ele>
        <time>2021-08-09T12:05:51Z</time>
      </trkpt>
      <trkpt lat="49.15588" lon="3.97623">
        <ele>194.8</ele>
        <time>2021-08-09T12:06:11Z</time>
      </trkpt>
      <trkpt lat="49.15588" lon="3.97623">
        <ele>194.8</ele>
        <time>2021-08-09T12:06:28Z</time>
      </trkpt>
      <trkpt lat="49.15592" lon="3.97622">
        <ele>194.8</ele>
        <time>2021-08-09T12:06:46Z</time>
      </trkpt>
      <trkpt lat="49.15591" lon="3.97623">
        <ele>196.25</ele>
        <time>2021-08-09T12:06:55Z</time>
      </trkpt>
      <trkpt lat="49.1559" lon="3.97625">
        <ele>196.25</ele>
        <time>2021-08-09T12:07:15Z</time>
      </trkpt>
      <trkpt lat="49.1559" lon="3.97623">
        <ele>196.73</ele>
        <time>2021-08-09T12:07:28Z</time>
      </trkpt>
      <trkpt lat="49.15591" lon="3.97621">
        <ele>196.25</ele>
        <time>2021-08-09T12:07:46Z</time>
      </trkpt>
      <trkpt lat="49.15591" lon="3.9762">
        <ele>196.25</ele>
        <time>2021-08-09T12:08:01Z</time>
      </trkpt>
      <trkpt lat="49.1559" lon="3.97622">
        <ele>196.25</ele>
        <time>2021-08-09T12:08:08Z</time>
      </trkpt>
      <trkpt lat="49.15591" lon="3.97621">
        <ele>196.25</ele>
        <time>2021-08-09T12:08:13Z</time>
      </trkpt>
      <trkpt lat="49.15591" lon="3.9762">
        <ele>196.25</ele>
        <time>2021-08-09T12:08:18Z</time>
      </trkpt>
      <trkpt lat="49.1559" lon="3.97621">
        <ele>196.25</ele>
        <time>2021-08-09T12:08:31Z</time>
      </trkpt>
      <trkpt lat="49.1559" lon="3.9762">
        <ele>196.25</ele>
        <time>2021-08-09T12:08:43Z</time>
      </trkpt>
      <trkpt lat="49.15591" lon="3.97619">
        <ele>196.25</ele>
        <time>2021-08-09T12:08:49Z</time>
      </trkpt>
      <trkpt lat="49.1559" lon="3.97621">
        <ele>196.25</ele>
        <time>2021-08-09T12:08:57Z</time>
      </trkpt>
      <trkpt lat="49.1559" lon="3.97622">
        <ele>196.25</ele>
        <time>2021-08-09T12:09:09Z</time>
      </trkpt>
      <trkpt lat="49.1559" lon="3.97623">
        <ele>196.25</ele>
        <time>2021-08-09T12:09:27Z</time>
      </trkpt>
      <trkpt lat="49.1559" lon="3.97622">
        <ele>196.25</ele>
        <time>2021-08-09T12:09:42Z</time>
      </trkpt>
      <trkpt lat="49.15591" lon="3.97621">
        <ele>196.25</ele>
        <time>2021-08-09T12:09:52Z</time>
      </trkpt>
      <trkpt lat="49.15591" lon="3.97621">
        <ele>196.25</ele>
        <time>2021-08-09T12:10:05Z</time>
      </trkpt>
      <trkpt lat="49.15593" lon="3.97621">
        <ele>196.25</ele>
        <time>2021-08-09T12:10:16Z</time>
      </trkpt>
      <trkpt lat="49.15595" lon="3.97621">
        <ele>196.25</ele>
        <time>2021-08-09T12:10:19Z</time>
      </trkpt>
      <trkpt lat="49.15596" lon="3.97622">
        <ele>196.25</ele>
        <time>2021-08-09T12:10:20Z</time>
      </trkpt>
      <trkpt lat="49.15596" lon="3.97625">
        <ele>196.25</ele>
        <time>2021-08-09T12:10:21Z</time>
      </trkpt>
      <trkpt lat="49.15596" lon="3.97627">
        <ele>196.25</ele>
        <time>2021-08-09T12:10:22Z</time>
      </trkpt>
      <trkpt lat="49.15597" lon="3.9763">
        <ele>196.25</ele>
        <time>2021-08-09T12:10:23Z</time>
      </trkpt>
      <trkpt lat="49.15597" lon="3.97632">
        <ele>196.25</ele>
        <time>2021-08-09T12:10:24Z</time>
      </trkpt>
      <trkpt lat="49.15597" lon="3.97635">
        <ele>196.25</ele>
        <time>2021-08-09T12:10:25Z</time>
      </trkpt>
      <trkpt lat="49.15596" lon="3.97656">
        <ele>195.28</ele>
        <time>2021-08-09T12:10:32Z</time>
      </trkpt>
      <trkpt lat="49.15596" lon="3.97661">
        <ele>195.28</ele>
        <time>2021-08-09T12:10:33Z</time>
      </trkpt>
      <trkpt lat="49.15594" lon="3.97684">
        <ele>195.28</ele>
        <time>2021-08-09T12:10:39Z</time>
      </trkpt>
      <trkpt lat="49.15595" lon="3.97687">
        <ele>195.28</ele>
        <time>2021-08-09T12:10:44Z</time>
      </trkpt>
      <trkpt lat="49.15596" lon="3.97686">
        <ele>195.28</ele>
        <time>2021-08-09T12:10:45Z</time>
      </trkpt>
      <trkpt lat="49.15596" lon="3.97683">
        <ele>195.28</ele>
        <time>2021-08-09T12:10:46Z</time>
      </trkpt>
      <trkpt lat="49.15596" lon="3.9768">
        <ele>195.28</ele>
        <time>2021-08-09T12:10:47Z</time>
      </trkpt>
      <trkpt lat="49.15596" lon="3.97677">
        <ele>195.28</ele>
        <time>2021-08-09T12:10:48Z</time>
      </trkpt>
      <trkpt lat="49.15596" lon="3.97672">
        <ele>195.28</ele>
        <time>2021-08-09T12:10:49Z</time>
      </trkpt>
      <trkpt lat="49.15596" lon="3.97668">
        <ele>195.28</ele>
        <time>2021-08-09T12:10:50Z</time>
      </trkpt>
      <trkpt lat="49.15596" lon="3.97664">
        <ele>195.28</ele>
        <time>2021-08-09T12:10:51Z</time>
      </trkpt>
      <trkpt lat="49.15598" lon="3.97631">
        <ele>195.28</ele>
        <time>2021-08-09T12:10:58Z</time>
      </trkpt>
      <trkpt lat="49.15596" lon="3.97619">
        <ele>195.28</ele>
        <time>2021-08-09T12:11:02Z</time>
      </trkpt>
      <trkpt lat="49.15595" lon="3.97618">
        <ele>195.28</ele>
        <time>2021-08-09T12:11:03Z</time>
      </trkpt>
      <trkpt lat="49.15593" lon="3.97619">
        <ele>195.28</ele>
        <time>2021-08-09T12:11:04Z</time>
      </trkpt>
      <trkpt lat="49.15593" lon="3.9762">
        <ele>195.28</ele>
        <time>2021-08-09T12:11:05Z</time>
      </trkpt>
      <trkpt lat="49.15593" lon="3.97622">
        <ele>195.28</ele>
        <time>2021-08-09T12:11:06Z</time>
      </trkpt>
      <trkpt lat="49.15595" lon="3.97624">
        <ele>195.28</ele>
        <time>2021-08-09T12:11:07Z</time>
      </trkpt>
      <trkpt lat="49.15596" lon="3.97625">
        <ele>195.28</ele>
        <time>2021-08-09T12:11:08Z</time>
      </trkpt>
      <trkpt lat="49.15597" lon="3.97628">
        <ele>195.28</ele>
        <time>2021-08-09T12:11:09Z</time>
      </trkpt>
      <trkpt lat="49.15598" lon="3.97632">
        <ele>195.28</ele>
        <time>2021-08-09T12:11:10Z</time>
      </trkpt>
      <trkpt lat="49.15598" lon="3.97636">
        <ele>195.28</ele>
        <time>2021-08-09T12:11:11Z</time>
      </trkpt>
      <trkpt lat="49.15598" lon="3.9764">
        <ele>195.28</ele>
        <time>2021-08-09T12:11:12Z</time>
      </trkpt>
      <trkpt lat="49.15597" lon="3.97644">
        <ele>195.28</ele>
        <time>2021-08-09T12:11:13Z</time>
      </trkpt>
      <trkpt lat="49.15597" lon="3.97649">
        <ele>195.28</ele>
        <time>2021-08-09T12:11:14Z</time>
      </trkpt>
      <trkpt lat="49.15595" lon="3.97683">
        <ele>195.28</ele>
        <time>2021-08-09T12:11:21Z</time>
      </trkpt>
      <trkpt lat="49.15594" lon="3.97709">
        <ele>196.73</ele>
        <time>2021-08-09T12:11:27Z</time>
      </trkpt>
      <trkpt lat="49.15595" lon="3.9773">
        <ele>197.21</ele>
        <time>2021-08-09T12:11:33Z</time>
      </trkpt>
      <trkpt lat="49.15596" lon="3.97758">
        <ele>198.17</ele>
        <time>2021-08-09T12:11:40Z</time>
      </trkpt>
      <trkpt lat="49.15599" lon="3.9779">
        <ele>199.13</ele>
        <time>2021-08-09T12:11:48Z</time>
      </trkpt>
      <trkpt lat="49.156" lon="3.97818">
        <ele>199.61</ele>
        <time>2021-08-09T12:11:54Z</time>
      </trkpt>
      <trkpt lat="49.15594" lon="3.9786">
        <ele>200.57</ele>
        <time>2021-08-09T12:12:03Z</time>
      </trkpt>
      <trkpt lat="49.15588" lon="3.97891">
        <ele>201.53</ele>
        <time>2021-08-09T12:12:12Z</time>
      </trkpt>
      <trkpt lat="49.15581" lon="3.97926">
        <ele>202.98</ele>
        <time>2021-08-09T12:12:22Z</time>
      </trkpt>
      <trkpt lat="49.15574" lon="3.97954">
        <ele>203.94</ele>
        <time>2021-08-09T12:12:31Z</time>
      </trkpt>
      <trkpt lat="49.15571" lon="3.9798">
        <ele>205.38</ele>
        <time>2021-08-09T12:12:39Z</time>
      </trkpt>
      <trkpt lat="49.15572" lon="3.97987">
        <ele>205.38</ele>
        <time>2021-08-09T12:12:41Z</time>
      </trkpt>
      <trkpt lat="49.15574" lon="3.97991">
        <ele>205.38</ele>
        <time>2021-08-09T12:12:42Z</time>
      </trkpt>
      <trkpt lat="49.15576" lon="3.97993">
        <ele>205.38</ele>
        <time>2021-08-09T12:12:43Z</time>
      </trkpt>
      <trkpt lat="49.15578" lon="3.97997">
        <ele>205.38</ele>
        <time>2021-08-09T12:12:44Z</time>
      </trkpt>
      <trkpt lat="49.15581" lon="3.98">
        <ele>205.38</ele>
        <time>2021-08-09T12:12:45Z</time>
      </trkpt>
      <trkpt lat="49.15595" lon="3.98014">
        <ele>203.94</ele>
        <time>2021-08-09T12:12:49Z</time>
      </trkpt>
      <trkpt lat="49.15614" lon="3.98034">
        <ele>202.01</ele>
        <time>2021-08-09T12:12:53Z</time>
      </trkpt>
      <trkpt lat="49.15638" lon="3.98059">
        <ele>199.61</ele>
        <time>2021-08-09T12:12:57Z</time>
      </trkpt>
      <trkpt lat="49.15664" lon="3.98085">
        <ele>197.69</ele>
        <time>2021-08-09T12:13:01Z</time>
      </trkpt>
      <trkpt lat="49.15697" lon="3.98119">
        <ele>193.84</ele>
        <time>2021-08-09T12:13:06Z</time>
      </trkpt>
      <trkpt lat="49.15702" lon="3.98125">
        <ele>192.88</ele>
        <time>2021-08-09T12:13:07Z</time>
      </trkpt>
      <trkpt lat="49.15706" lon="3.98132">
        <ele>192.88</ele>
        <time>2021-08-09T12:13:08Z</time>
      </trkpt>
      <trkpt lat="49.15709" lon="3.98139">
        <ele>192.88</ele>
        <time>2021-08-09T12:13:09Z</time>
      </trkpt>
      <trkpt lat="49.15711" lon="3.98147">
        <ele>192.4</ele>
        <time>2021-08-09T12:13:10Z</time>
      </trkpt>
      <trkpt lat="49.15712" lon="3.98156">
        <ele>192.4</ele>
        <time>2021-08-09T12:13:11Z</time>
      </trkpt>
      <trkpt lat="49.15711" lon="3.98165">
        <ele>191.92</ele>
        <time>2021-08-09T12:13:12Z</time>
      </trkpt>
      <trkpt lat="49.15711" lon="3.98174">
        <ele>190.96</ele>
        <time>2021-08-09T12:13:13Z</time>
      </trkpt>
      <trkpt lat="49.15708" lon="3.98184">
        <ele>190.48</ele>
        <time>2021-08-09T12:13:14Z</time>
      </trkpt>
      <trkpt lat="49.15706" lon="3.98194">
        <ele>190.48</ele>
        <time>2021-08-09T12:13:15Z</time>
      </trkpt>
      <trkpt lat="49.15702" lon="3.98215">
        <ele>189.52</ele>
        <time>2021-08-09T12:13:17Z</time>
      </trkpt>
      <trkpt lat="49.15701" lon="3.98227">
        <ele>188.56</ele>
        <time>2021-08-09T12:13:18Z</time>
      </trkpt>
      <trkpt lat="49.15701" lon="3.98238">
        <ele>188.08</ele>
        <time>2021-08-09T12:13:19Z</time>
      </trkpt>
      <trkpt lat="49.15703" lon="3.9825">
        <ele>187.11</ele>
        <time>2021-08-09T12:13:20Z</time>
      </trkpt>
      <trkpt lat="49.15705" lon="3.98261">
        <ele>186.15</ele>
        <time>2021-08-09T12:13:21Z</time>
      </trkpt>
      <trkpt lat="49.15709" lon="3.98274">
        <ele>186.15</ele>
        <time>2021-08-09T12:13:22Z</time>
      </trkpt>
      <trkpt lat="49.15712" lon="3.98284">
        <ele>185.67</ele>
        <time>2021-08-09T12:13:23Z</time>
      </trkpt>
      <trkpt lat="49.15731" lon="3.98332">
        <ele>181.83</ele>
        <time>2021-08-09T12:13:28Z</time>
      </trkpt>
      <trkpt lat="49.1574" lon="3.98349">
        <ele>180.87</ele>
        <time>2021-08-09T12:13:30Z</time>
      </trkpt>
      <trkpt lat="49.15746" lon="3.98357">
        <ele>179.9</ele>
        <time>2021-08-09T12:13:31Z</time>
      </trkpt>
      <trkpt lat="49.15753" lon="3.98363">
        <ele>178.94</ele>
        <time>2021-08-09T12:13:32Z</time>
      </trkpt>
      <trkpt lat="49.1576" lon="3.98368">
        <ele>177.98</ele>
        <time>2021-08-09T12:13:33Z</time>
      </trkpt>
      <trkpt lat="49.15767" lon="3.98372">
        <ele>177.02</ele>
        <time>2021-08-09T12:13:34Z</time>
      </trkpt>
      <trkpt lat="49.15774" lon="3.98375">
        <ele>176.54</ele>
        <time>2021-08-09T12:13:35Z</time>
      </trkpt>
      <trkpt lat="49.15802" lon="3.98387">
        <ele>173.66</ele>
        <time>2021-08-09T12:13:39Z</time>
      </trkpt>
      <trkpt lat="49.15816" lon="3.98393">
        <ele>172.69</ele>
        <time>2021-08-09T12:13:41Z</time>
      </trkpt>
      <trkpt lat="49.15821" lon="3.98397">
        <ele>171.73</ele>
        <time>2021-08-09T12:13:42Z</time>
      </trkpt>
      <trkpt lat="49.15826" lon="3.98403">
        <ele>171.73</ele>
        <time>2021-08-09T12:13:43Z</time>
      </trkpt>
      <trkpt lat="49.15829" lon="3.9841">
        <ele>170.77</ele>
        <time>2021-08-09T12:13:44Z</time>
      </trkpt>
      <trkpt lat="49.1583" lon="3.98418">
        <ele>170.29</ele>
        <time>2021-08-09T12:13:45Z</time>
      </trkpt>
      <trkpt lat="49.15829" lon="3.98425">
        <ele>170.29</ele>
        <time>2021-08-09T12:13:46Z</time>
      </trkpt>
      <trkpt lat="49.15828" lon="3.98433">
        <ele>170.29</ele>
        <time>2021-08-09T12:13:47Z</time>
      </trkpt>
      <trkpt lat="49.15826" lon="3.98456">
        <ele>169.81</ele>
        <time>2021-08-09T12:13:51Z</time>
      </trkpt>
      <trkpt lat="49.15823" lon="3.98461">
        <ele>168.85</ele>
        <time>2021-08-09T12:13:52Z</time>
      </trkpt>
      <trkpt lat="49.15821" lon="3.98464">
        <ele>169.33</ele>
        <time>2021-08-09T12:13:53Z</time>
      </trkpt>
      <trkpt lat="49.15817" lon="3.98465">
        <ele>169.33</ele>
        <time>2021-08-09T12:13:54Z</time>
      </trkpt>
      <trkpt lat="49.15814" lon="3.98467">
        <ele>169.33</ele>
        <time>2021-08-09T12:13:55Z</time>
      </trkpt>
      <trkpt lat="49.15811" lon="3.98468">
        <ele>169.33</ele>
        <time>2021-08-09T12:13:56Z</time>
      </trkpt>
      <trkpt lat="49.15809" lon="3.98469">
        <ele>169.33</ele>
        <time>2021-08-09T12:13:57Z</time>
      </trkpt>
      <trkpt lat="49.15807" lon="3.98469">
        <ele>169.33</ele>
        <time>2021-08-09T12:13:58Z</time>
      </trkpt>
      <trkpt lat="49.15806" lon="3.98471">
        <ele>169.33</ele>
        <time>2021-08-09T12:14:01Z</time>
      </trkpt>
      <trkpt lat="49.15822" lon="3.98466">
        <ele>168.85</ele>
        <time>2021-08-09T12:14:08Z</time>
      </trkpt>
      <trkpt lat="49.15848" lon="3.98466">
        <ele>168.37</ele>
        <time>2021-08-09T12:14:16Z</time>
      </trkpt>
      <trkpt lat="49.15868" lon="3.98475">
        <ele>167.89</ele>
        <time>2021-08-09T12:14:21Z</time>
      </trkpt>
      <trkpt lat="49.159" lon="3.98493">
        <ele>167.41</ele>
        <time>2021-08-09T12:14:28Z</time>
      </trkpt>
      <trkpt lat="49.15923" lon="3.98507">
        <ele>165.48</ele>
        <time>2021-08-09T12:14:34Z</time>
      </trkpt>
      <trkpt lat="49.15926" lon="3.98511">
        <ele>164.52</ele>
        <time>2021-08-09T12:14:35Z</time>
      </trkpt>
      <trkpt lat="49.1593" lon="3.98516">
        <ele>164.52</ele>
        <time>2021-08-09T12:14:36Z</time>
      </trkpt>
      <trkpt lat="49.15946" lon="3.98546">
        <ele>162.12</ele>
        <time>2021-08-09T12:14:41Z</time>
      </trkpt>
      <trkpt lat="49.1595" lon="3.98551">
        <ele>161.64</ele>
        <time>2021-08-09T12:14:42Z</time>
      </trkpt>
      <trkpt lat="49.15955" lon="3.98556">
        <ele>161.16</ele>
        <time>2021-08-09T12:14:43Z</time>
      </trkpt>
      <trkpt lat="49.1596" lon="3.98559">
        <ele>160.68</ele>
        <time>2021-08-09T12:14:44Z</time>
      </trkpt>
      <trkpt lat="49.15967" lon="3.98561">
        <ele>160.2</ele>
        <time>2021-08-09T12:14:45Z</time>
      </trkpt>
      <trkpt lat="49.15973" lon="3.98564">
        <ele>159.24</ele>
        <time>2021-08-09T12:14:46Z</time>
      </trkpt>
      <trkpt lat="49.15979" lon="3.98566">
        <ele>159.24</ele>
        <time>2021-08-09T12:14:47Z</time>
      </trkpt>
      <trkpt lat="49.15986" lon="3.98568">
        <ele>158.75</ele>
        <time>2021-08-09T12:14:48Z</time>
      </trkpt>
      <trkpt lat="49.16043" lon="3.98583">
        <ele>156.35</ele>
        <time>2021-08-09T12:14:56Z</time>
      </trkpt>
      <trkpt lat="49.1611" lon="3.98588">
        <ele>154.43</ele>
        <time>2021-08-09T12:15:04Z</time>
      </trkpt>
      <trkpt lat="49.16188" lon="3.98592">
        <ele>152.51</ele>
        <time>2021-08-09T12:15:13Z</time>
      </trkpt>
      <trkpt lat="49.16275" lon="3.9861">
        <ele>149.14</ele>
        <time>2021-08-09T12:15:23Z</time>
      </trkpt>
      <trkpt lat="49.16337" lon="3.98607">
        <ele>147.7</ele>
        <time>2021-08-09T12:15:30Z</time>
      </trkpt>
      <trkpt lat="49.16393" lon="3.98575">
        <ele>147.22</ele>
        <time>2021-08-09T12:15:37Z</time>
      </trkpt>
      <trkpt lat="49.16461" lon="3.98532">
        <ele>145.78</ele>
        <time>2021-08-09T12:15:46Z</time>
      </trkpt>
      <trkpt lat="49.16473" lon="3.98525">
        <ele>145.3</ele>
        <time>2021-08-09T12:15:48Z</time>
      </trkpt>
      <trkpt lat="49.16481" lon="3.98523">
        <ele>145.3</ele>
        <time>2021-08-09T12:15:49Z</time>
      </trkpt>
      <trkpt lat="49.16489" lon="3.98523">
        <ele>145.3</ele>
        <time>2021-08-09T12:15:50Z</time>
      </trkpt>
      <trkpt lat="49.16495" lon="3.98524">
        <ele>145.3</ele>
        <time>2021-08-09T12:15:51Z</time>
      </trkpt>
      <trkpt lat="49.16501" lon="3.98525">
        <ele>145.3</ele>
        <time>2021-08-09T12:15:52Z</time>
      </trkpt>
      <trkpt lat="49.16545" lon="3.98528">
        <ele>146.74</ele>
        <time>2021-08-09T12:15:59Z</time>
      </trkpt>
      <trkpt lat="49.16561" lon="3.98522">
        <ele>146.74</ele>
        <time>2021-08-09T12:16:02Z</time>
      </trkpt>
      <trkpt lat="49.16565" lon="3.98522">
        <ele>146.74</ele>
        <time>2021-08-09T12:16:03Z</time>
      </trkpt>
      <trkpt lat="49.16569" lon="3.98524">
        <ele>146.74</ele>
        <time>2021-08-09T12:16:04Z</time>
      </trkpt>
      <trkpt lat="49.16572" lon="3.98529">
        <ele>147.22</ele>
        <time>2021-08-09T12:16:05Z</time>
      </trkpt>
      <trkpt lat="49.16574" lon="3.98534">
        <ele>147.22</ele>
        <time>2021-08-09T12:16:06Z</time>
      </trkpt>
      <trkpt lat="49.16574" lon="3.98538">
        <ele>147.22</ele>
        <time>2021-08-09T12:16:07Z</time>
      </trkpt>
      <trkpt lat="49.16575" lon="3.98542">
        <ele>147.22</ele>
        <time>2021-08-09T12:16:08Z</time>
      </trkpt>
      <trkpt lat="49.16574" lon="3.98546">
        <ele>147.22</ele>
        <time>2021-08-09T12:16:09Z</time>
      </trkpt>
      <trkpt lat="49.16572" lon="3.98571">
        <ele>149.14</ele>
        <time>2021-08-09T12:16:17Z</time>
      </trkpt>
      <trkpt lat="49.16572" lon="3.98593">
        <ele>150.58</ele>
        <time>2021-08-09T12:16:25Z</time>
      </trkpt>
      <trkpt lat="49.16572" lon="3.98609">
        <ele>151.06</ele>
        <time>2021-08-09T12:16:32Z</time>
      </trkpt>
      <trkpt lat="49.16573" lon="3.98625">
        <ele>152.51</ele>
        <time>2021-08-09T12:16:39Z</time>
      </trkpt>
      <trkpt lat="49.16573" lon="3.98627">
        <ele>152.51</ele>
        <time>2021-08-09T12:16:40Z</time>
      </trkpt>
      <trkpt lat="49.16573" lon="3.9863">
        <ele>152.51</ele>
        <time>2021-08-09T12:16:41Z</time>
      </trkpt>
      <trkpt lat="49.16573" lon="3.98632">
        <ele>152.51</ele>
        <time>2021-08-09T12:16:42Z</time>
      </trkpt>
      <trkpt lat="49.16573" lon="3.98634">
        <ele>152.99</ele>
        <time>2021-08-09T12:16:43Z</time>
      </trkpt>
      <trkpt lat="49.16573" lon="3.98635">
        <ele>152.99</ele>
        <time>2021-08-09T12:16:44Z</time>
      </trkpt>
      <trkpt lat="49.16573" lon="3.98637">
        <ele>152.99</ele>
        <time>2021-08-09T12:16:45Z</time>
      </trkpt>
      <trkpt lat="49.16573" lon="3.98639">
        <ele>152.99</ele>
        <time>2021-08-09T12:16:46Z</time>
      </trkpt>
      <trkpt lat="49.16573" lon="3.98641">
        <ele>152.99</ele>
        <time>2021-08-09T12:16:47Z</time>
      </trkpt>
      <trkpt lat="49.16574" lon="3.98649">
        <ele>153.95</ele>
        <time>2021-08-09T12:16:52Z</time>
      </trkpt>
      <trkpt lat="49.16575" lon="3.98651">
        <ele>153.95</ele>
        <time>2021-08-09T12:16:53Z</time>
      </trkpt>
      <trkpt lat="49.16576" lon="3.98656">
        <ele>154.43</ele>
        <time>2021-08-09T12:16:56Z</time>
      </trkpt>
      <trkpt lat="49.16576" lon="3.98658">
        <ele>154.43</ele>
        <time>2021-08-09T12:16:57Z</time>
      </trkpt>
      <trkpt lat="49.16576" lon="3.9866">
        <ele>154.91</ele>
        <time>2021-08-09T12:16:58Z</time>
      </trkpt>
      <trkpt lat="49.16577" lon="3.98662">
        <ele>154.91</ele>
        <time>2021-08-09T12:16:59Z</time>
      </trkpt>
      <trkpt lat="49.16577" lon="3.98663">
        <ele>154.91</ele>
        <time>2021-08-09T12:17:00Z</time>
      </trkpt>
      <trkpt lat="49.16577" lon="3.98665">
        <ele>154.91</ele>
        <time>2021-08-09T12:17:01Z</time>
      </trkpt>
      <trkpt lat="49.16577" lon="3.98667">
        <ele>155.39</ele>
        <time>2021-08-09T12:17:02Z</time>
      </trkpt>
      <trkpt lat="49.16578" lon="3.98668">
        <ele>155.39</ele>
        <time>2021-08-09T12:17:03Z</time>
      </trkpt>
      <trkpt lat="49.16578" lon="3.98669">
        <ele>155.87</ele>
        <time>2021-08-09T12:17:04Z</time>
      </trkpt>
      <trkpt lat="49.16578" lon="3.98671">
        <ele>155.87</ele>
        <time>2021-08-09T12:17:05Z</time>
      </trkpt>
      <trkpt lat="49.16578" lon="3.98673">
        <ele>155.87</ele>
        <time>2021-08-09T12:17:06Z</time>
      </trkpt>
      <trkpt lat="49.16579" lon="3.98674">
        <ele>156.35</ele>
        <time>2021-08-09T12:17:07Z</time>
      </trkpt>
      <trkpt lat="49.16579" lon="3.98676">
        <ele>156.35</ele>
        <time>2021-08-09T12:17:08Z</time>
      </trkpt>
      <trkpt lat="49.1658" lon="3.98678">
        <ele>155.87</ele>
        <time>2021-08-09T12:17:09Z</time>
      </trkpt>
      <trkpt lat="49.1658" lon="3.9868">
        <ele>156.83</ele>
        <time>2021-08-09T12:17:10Z</time>
      </trkpt>
      <trkpt lat="49.1658" lon="3.98681">
        <ele>156.83</ele>
        <time>2021-08-09T12:17:11Z</time>
      </trkpt>
      <trkpt lat="49.1658" lon="3.98683">
        <ele>156.83</ele>
        <time>2021-08-09T12:17:12Z</time>
      </trkpt>
      <trkpt lat="49.16581" lon="3.98685">
        <ele>156.83</ele>
        <time>2021-08-09T12:17:13Z</time>
      </trkpt>
      <trkpt lat="49.16581" lon="3.98686">
        <ele>156.83</ele>
        <time>2021-08-09T12:17:14Z</time>
      </trkpt>
      <trkpt lat="49.16582" lon="3.98688">
        <ele>157.79</ele>
        <time>2021-08-09T12:17:15Z</time>
      </trkpt>
      <trkpt lat="49.16588" lon="3.98708">
        <ele>158.27</ele>
        <time>2021-08-09T12:17:24Z</time>
      </trkpt>
      <trkpt lat="49.16594" lon="3.98734">
        <ele>159.24</ele>
        <time>2021-08-09T12:17:33Z</time>
      </trkpt>
      <trkpt lat="49.166" lon="3.98764">
        <ele>159.24</ele>
        <time>2021-08-09T12:17:40Z</time>
      </trkpt>
      <trkpt lat="49.16606" lon="3.98815">
        <ele>157.31</ele>
        <time>2021-08-09T12:17:48Z</time>
      </trkpt>
      <trkpt lat="49.16611" lon="3.98885">
        <ele>154.43</ele>
        <time>2021-08-09T12:17:56Z</time>
      </trkpt>
      <trkpt lat="49.16618" lon="3.9896">
        <ele>152.03</ele>
        <time>2021-08-09T12:18:03Z</time>
      </trkpt>
      <trkpt lat="49.16624" lon="3.98993">
        <ele>152.03</ele>
        <time>2021-08-09T12:18:06Z</time>
      </trkpt>
      <trkpt lat="49.16631" lon="3.99022">
        <ele>150.58</ele>
        <time>2021-08-09T12:18:09Z</time>
      </trkpt>
      <trkpt lat="49.16656" lon="3.99098">
        <ele>147.7</ele>
        <time>2021-08-09T12:18:16Z</time>
      </trkpt>
      <trkpt lat="49.16682" lon="3.99182">
        <ele>144.82</ele>
        <time>2021-08-09T12:18:23Z</time>
      </trkpt>
      <trkpt lat="49.16721" lon="3.99303">
        <ele>142.41</ele>
        <time>2021-08-09T12:18:33Z</time>
      </trkpt>
      <trkpt lat="49.16758" lon="3.99415">
        <ele>140.49</ele>
        <time>2021-08-09T12:18:43Z</time>
      </trkpt>
      <trkpt lat="49.16785" lon="3.99506">
        <ele>140.01</ele>
        <time>2021-08-09T12:18:52Z</time>
      </trkpt>
      <trkpt lat="49.16801" lon="3.99584">
        <ele>140.01</ele>
        <time>2021-08-09T12:19:01Z</time>
      </trkpt>
      <trkpt lat="49.16802" lon="3.99592">
        <ele>140.01</ele>
        <time>2021-08-09T12:19:02Z</time>
      </trkpt>
      <trkpt lat="49.16802" lon="3.99646">
        <ele>140.01</ele>
        <time>2021-08-09T12:19:10Z</time>
      </trkpt>
      <trkpt lat="49.16803" lon="3.99679">
        <ele>141.93</ele>
        <time>2021-08-09T12:19:17Z</time>
      </trkpt>
      <trkpt lat="49.16804" lon="3.99711">
        <ele>142.41</ele>
        <time>2021-08-09T12:19:27Z</time>
      </trkpt>
      <trkpt lat="49.16805" lon="3.99751">
        <ele>144.34</ele>
        <time>2021-08-09T12:19:40Z</time>
      </trkpt>
      <trkpt lat="49.16805" lon="3.9978">
        <ele>145.3</ele>
        <time>2021-08-09T12:19:49Z</time>
      </trkpt>
      <trkpt lat="49.16803" lon="3.99812">
        <ele>145.3</ele>
        <time>2021-08-09T12:19:57Z</time>
      </trkpt>
      <trkpt lat="49.16802" lon="3.99846">
        <ele>146.26</ele>
        <time>2021-08-09T12:20:06Z</time>
      </trkpt>
      <trkpt lat="49.168" lon="3.99894">
        <ele>146.74</ele>
        <time>2021-08-09T12:20:17Z</time>
      </trkpt>
      <trkpt lat="49.16798" lon="3.99938">
        <ele>147.22</ele>
        <time>2021-08-09T12:20:27Z</time>
      </trkpt>
      <trkpt lat="49.16796" lon="3.99979">
        <ele>147.7</ele>
        <time>2021-08-09T12:20:36Z</time>
      </trkpt>
      <trkpt lat="49.16797" lon="4.00019">
        <ele>149.14</ele>
        <time>2021-08-09T12:20:46Z</time>
      </trkpt>
      <trkpt lat="49.16806" lon="4.00058">
        <ele>149.62</ele>
        <time>2021-08-09T12:20:56Z</time>
      </trkpt>
      <trkpt lat="49.16819" lon="4.00096">
        <ele>150.58</ele>
        <time>2021-08-09T12:21:07Z</time>
      </trkpt>
      <trkpt lat="49.16829" lon="4.0013">
        <ele>151.54</ele>
        <time>2021-08-09T12:21:17Z</time>
      </trkpt>
      <trkpt lat="49.1684" lon="4.00166">
        <ele>152.51</ele>
        <time>2021-08-09T12:21:27Z</time>
      </trkpt>
      <trkpt lat="49.16851" lon="4.00205">
        <ele>153.47</ele>
        <time>2021-08-09T12:21:38Z</time>
      </trkpt>
      <trkpt lat="49.16855" lon="4.00231">
        <ele>155.39</ele>
        <time>2021-08-09T12:21:46Z</time>
      </trkpt>
      <trkpt lat="49.16856" lon="4.00257">
        <ele>156.35</ele>
        <time>2021-08-09T12:21:54Z</time>
      </trkpt>
      <trkpt lat="49.16853" lon="4.00284">
        <ele>156.83</ele>
        <time>2021-08-09T12:22:02Z</time>
      </trkpt>
      <trkpt lat="49.16848" lon="4.00311">
        <ele>157.79</ele>
        <time>2021-08-09T12:22:10Z</time>
      </trkpt>
      <trkpt lat="49.16838" lon="4.00344">
        <ele>157.79</ele>
        <time>2021-08-09T12:22:20Z</time>
      </trkpt>
      <trkpt lat="49.16828" lon="4.00375">
        <ele>158.27</ele>
        <time>2021-08-09T12:22:29Z</time>
      </trkpt>
      <trkpt lat="49.16816" lon="4.00413">
        <ele>159.24</ele>
        <time>2021-08-09T12:22:41Z</time>
      </trkpt>
      <trkpt lat="49.16808" lon="4.0044">
        <ele>160.2</ele>
        <time>2021-08-09T12:22:51Z</time>
      </trkpt>
      <trkpt lat="49.16805" lon="4.00452">
        <ele>161.16</ele>
        <time>2021-08-09T12:22:57Z</time>
      </trkpt>
      <trkpt lat="49.16802" lon="4.00468">
        <ele>162.12</ele>
        <time>2021-08-09T12:23:04Z</time>
      </trkpt>
      <trkpt lat="49.16797" lon="4.00482">
        <ele>163.56</ele>
        <time>2021-08-09T12:23:10Z</time>
      </trkpt>
      <trkpt lat="49.1679" lon="4.005">
        <ele>164.04</ele>
        <time>2021-08-09T12:23:18Z</time>
      </trkpt>
      <trkpt lat="49.16782" lon="4.00519">
        <ele>164.52</ele>
        <time>2021-08-09T12:23:26Z</time>
      </trkpt>
      <trkpt lat="49.16775" lon="4.00542">
        <ele>164.52</ele>
        <time>2021-08-09T12:23:33Z</time>
      </trkpt>
      <trkpt lat="49.16765" lon="4.00576">
        <ele>164.04</ele>
        <time>2021-08-09T12:23:42Z</time>
      </trkpt>
      <trkpt lat="49.16764" lon="4.00581">
        <ele>164.04</ele>
        <time>2021-08-09T12:23:43Z</time>
      </trkpt>
      <trkpt lat="49.16757" lon="4.00606">
        <ele>165.48</ele>
        <time>2021-08-09T12:23:50Z</time>
      </trkpt>
      <trkpt lat="49.16753" lon="4.00644">
        <ele>165</ele>
        <time>2021-08-09T12:23:59Z</time>
      </trkpt>
      <trkpt lat="49.16748" lon="4.00672">
        <ele>165</ele>
        <time>2021-08-09T12:24:05Z</time>
      </trkpt>
      <trkpt lat="49.16737" lon="4.00698">
        <ele>165</ele>
        <time>2021-08-09T12:24:13Z</time>
      </trkpt>
      <trkpt lat="49.16723" lon="4.00722">
        <ele>165</ele>
        <time>2021-08-09T12:24:20Z</time>
      </trkpt>
      <trkpt lat="49.16712" lon="4.0075">
        <ele>165.96</ele>
        <time>2021-08-09T12:24:28Z</time>
      </trkpt>
      <trkpt lat="49.16721" lon="4.0078">
        <ele>166.45</ele>
        <time>2021-08-09T12:24:35Z</time>
      </trkpt>
      <trkpt lat="49.16736" lon="4.00818">
        <ele>167.41</ele>
        <time>2021-08-09T12:24:45Z</time>
      </trkpt>
      <trkpt lat="49.16745" lon="4.00844">
        <ele>168.85</ele>
        <time>2021-08-09T12:24:54Z</time>
      </trkpt>
      <trkpt lat="49.16751" lon="4.00864">
        <ele>171.73</ele>
        <time>2021-08-09T12:25:01Z</time>
      </trkpt>
      <trkpt lat="49.16752" lon="4.00867">
        <ele>171.73</ele>
        <time>2021-08-09T12:25:02Z</time>
      </trkpt>
      <trkpt lat="49.16758" lon="4.00886">
        <ele>172.21</ele>
        <time>2021-08-09T12:25:10Z</time>
      </trkpt>
      <trkpt lat="49.16762" lon="4.00903">
        <ele>174.14</ele>
        <time>2021-08-09T12:25:17Z</time>
      </trkpt>
      <trkpt lat="49.16766" lon="4.0092">
        <ele>176.06</ele>
        <time>2021-08-09T12:25:24Z</time>
      </trkpt>
      <trkpt lat="49.16769" lon="4.00946">
        <ele>177.02</ele>
        <time>2021-08-09T12:25:33Z</time>
      </trkpt>
      <trkpt lat="49.16772" lon="4.00977">
        <ele>177.98</ele>
        <time>2021-08-09T12:25:42Z</time>
      </trkpt>
      <trkpt lat="49.16771" lon="4.01008">
        <ele>179.42</ele>
        <time>2021-08-09T12:25:50Z</time>
      </trkpt>
      <trkpt lat="49.1677" lon="4.0105">
        <ele>179.9</ele>
        <time>2021-08-09T12:26:00Z</time>
      </trkpt>
      <trkpt lat="49.16769" lon="4.01093">
        <ele>181.35</ele>
        <time>2021-08-09T12:26:10Z</time>
      </trkpt>
      <trkpt lat="49.16768" lon="4.01124">
        <ele>183.27</ele>
        <time>2021-08-09T12:26:18Z</time>
      </trkpt>
      <trkpt lat="49.16765" lon="4.01143">
        <ele>184.23</ele>
        <time>2021-08-09T12:26:26Z</time>
      </trkpt>
      <trkpt lat="49.16764" lon="4.01144">
        <ele>184.23</ele>
        <time>2021-08-09T12:26:35Z</time>
      </trkpt>
      <trkpt lat="49.16763" lon="4.01147">
        <ele>184.23</ele>
        <time>2021-08-09T12:26:48Z</time>
      </trkpt>
      <trkpt lat="49.16761" lon="4.0115">
        <ele>184.23</ele>
        <time>2021-08-09T12:26:49Z</time>
      </trkpt>
      <trkpt lat="49.16759" lon="4.01154">
        <ele>184.23</ele>
        <time>2021-08-09T12:26:51Z</time>
      </trkpt>
      <trkpt lat="49.16758" lon="4.01157">
        <ele>184.23</ele>
        <time>2021-08-09T12:26:52Z</time>
      </trkpt>
      <trkpt lat="49.16758" lon="4.0116">
        <ele>184.23</ele>
        <time>2021-08-09T12:26:53Z</time>
      </trkpt>
      <trkpt lat="49.16758" lon="4.01164">
        <ele>184.23</ele>
        <time>2021-08-09T12:26:54Z</time>
      </trkpt>
      <trkpt lat="49.16758" lon="4.01168">
        <ele>185.19</ele>
        <time>2021-08-09T12:26:55Z</time>
      </trkpt>
      <trkpt lat="49.16758" lon="4.01172">
        <ele>185.19</ele>
        <time>2021-08-09T12:26:56Z</time>
      </trkpt>
      <trkpt lat="49.16758" lon="4.01177">
        <ele>185.19</ele>
        <time>2021-08-09T12:26:57Z</time>
      </trkpt>
      <trkpt lat="49.16757" lon="4.01182">
        <ele>185.19</ele>
        <time>2021-08-09T12:26:58Z</time>
      </trkpt>
      <trkpt lat="49.16756" lon="4.01187">
        <ele>185.19</ele>
        <time>2021-08-09T12:26:59Z</time>
      </trkpt>
      <trkpt lat="49.16754" lon="4.01191">
        <ele>185.19</ele>
        <time>2021-08-09T12:27:00Z</time>
      </trkpt>
      <trkpt lat="49.16753" lon="4.01196">
        <ele>185.19</ele>
        <time>2021-08-09T12:27:01Z</time>
      </trkpt>
      <trkpt lat="49.16743" lon="4.0123">
        <ele>185.19</ele>
        <time>2021-08-09T12:27:08Z</time>
      </trkpt>
      <trkpt lat="49.16727" lon="4.01271">
        <ele>185.19</ele>
        <time>2021-08-09T12:27:16Z</time>
      </trkpt>
      <trkpt lat="49.16706" lon="4.01314">
        <ele>181.83</ele>
        <time>2021-08-09T12:27:23Z</time>
      </trkpt>
      <trkpt lat="49.16697" lon="4.01331">
        <ele>180.87</ele>
        <time>2021-08-09T12:27:25Z</time>
      </trkpt>
      <trkpt lat="49.16679" lon="4.01371">
        <ele>177.5</ele>
        <time>2021-08-09T12:27:29Z</time>
      </trkpt>
      <trkpt lat="49.16662" lon="4.01406">
        <ele>174.14</ele>
        <time>2021-08-09T12:27:32Z</time>
      </trkpt>
      <trkpt lat="49.16622" lon="4.01497">
        <ele>172.69</ele>
        <time>2021-08-09T12:27:40Z</time>
      </trkpt>
      <trkpt lat="49.16611" lon="4.01528">
        <ele>174.14</ele>
        <time>2021-08-09T12:27:43Z</time>
      </trkpt>
      <trkpt lat="49.16595" lon="4.01573">
        <ele>175.1</ele>
        <time>2021-08-09T12:27:50Z</time>
      </trkpt>
      <trkpt lat="49.16577" lon="4.01636">
        <ele>173.17</ele>
        <time>2021-08-09T12:27:58Z</time>
      </trkpt>
      <trkpt lat="49.16563" lon="4.01688">
        <ele>170.77</ele>
        <time>2021-08-09T12:28:03Z</time>
      </trkpt>
      <trkpt lat="49.16545" lon="4.01764">
        <ele>169.33</ele>
        <time>2021-08-09T12:28:10Z</time>
      </trkpt>
      <trkpt lat="49.16538" lon="4.01832">
        <ele>168.85</ele>
        <time>2021-08-09T12:28:17Z</time>
      </trkpt>
      <trkpt lat="49.16535" lon="4.01875">
        <ele>170.29</ele>
        <time>2021-08-09T12:28:23Z</time>
      </trkpt>
      <trkpt lat="49.16531" lon="4.01896">
        <ele>171.73</ele>
        <time>2021-08-09T12:28:29Z</time>
      </trkpt>
      <trkpt lat="49.16527" lon="4.01916">
        <ele>173.17</ele>
        <time>2021-08-09T12:28:39Z</time>
      </trkpt>
      <trkpt lat="49.16526" lon="4.01945">
        <ele>174.62</ele>
        <time>2021-08-09T12:28:50Z</time>
      </trkpt>
      <trkpt lat="49.16522" lon="4.01971">
        <ele>177.02</ele>
        <time>2021-08-09T12:29:00Z</time>
      </trkpt>
      <trkpt lat="49.16519" lon="4.01995">
        <ele>177.98</ele>
        <time>2021-08-09T12:29:09Z</time>
      </trkpt>
      <trkpt lat="49.16518" lon="4.02">
        <ele>178.94</ele>
        <time>2021-08-09T12:29:11Z</time>
      </trkpt>
      <trkpt lat="49.16513" lon="4.02021">
        <ele>180.38</ele>
        <time>2021-08-09T12:29:19Z</time>
      </trkpt>
      <trkpt lat="49.1651" lon="4.02032">
        <ele>180.87</ele>
        <time>2021-08-09T12:29:24Z</time>
      </trkpt>
      <trkpt lat="49.16511" lon="4.02034">
        <ele>180.87</ele>
        <time>2021-08-09T12:29:25Z</time>
      </trkpt>
      <trkpt lat="49.16511" lon="4.02035">
        <ele>180.87</ele>
        <time>2021-08-09T12:29:26Z</time>
      </trkpt>
      <trkpt lat="49.16512" lon="4.02037">
        <ele>181.35</ele>
        <time>2021-08-09T12:29:27Z</time>
      </trkpt>
      <trkpt lat="49.16512" lon="4.02039">
        <ele>181.35</ele>
        <time>2021-08-09T12:29:28Z</time>
      </trkpt>
      <trkpt lat="49.16513" lon="4.02041">
        <ele>181.35</ele>
        <time>2021-08-09T12:29:29Z</time>
      </trkpt>
      <trkpt lat="49.16514" lon="4.02048">
        <ele>181.83</ele>
        <time>2021-08-09T12:29:32Z</time>
      </trkpt>
      <trkpt lat="49.16514" lon="4.02051">
        <ele>181.83</ele>
        <time>2021-08-09T12:29:33Z</time>
      </trkpt>
      <trkpt lat="49.16514" lon="4.02055">
        <ele>181.83</ele>
        <time>2021-08-09T12:29:34Z</time>
      </trkpt>
      <trkpt lat="49.16521" lon="4.02098">
        <ele>182.79</ele>
        <time>2021-08-09T12:29:45Z</time>
      </trkpt>
      <trkpt lat="49.16528" lon="4.02143">
        <ele>183.75</ele>
        <time>2021-08-09T12:29:56Z</time>
      </trkpt>
      <trkpt lat="49.1653" lon="4.02201">
        <ele>184.23</ele>
        <time>2021-08-09T12:30:07Z</time>
      </trkpt>
      <trkpt lat="49.16532" lon="4.02254">
        <ele>184.23</ele>
        <time>2021-08-09T12:30:16Z</time>
      </trkpt>
      <trkpt lat="49.16533" lon="4.02295">
        <ele>184.23</ele>
        <time>2021-08-09T12:30:23Z</time>
      </trkpt>
      <trkpt lat="49.16534" lon="4.02309">
        <ele>184.23</ele>
        <time>2021-08-09T12:30:25Z</time>
      </trkpt>
      <trkpt lat="49.16535" lon="4.02316">
        <ele>184.23</ele>
        <time>2021-08-09T12:30:26Z</time>
      </trkpt>
      <trkpt lat="49.16538" lon="4.0233">
        <ele>183.27</ele>
        <time>2021-08-09T12:30:28Z</time>
      </trkpt>
      <trkpt lat="49.16541" lon="4.02337">
        <ele>183.27</ele>
        <time>2021-08-09T12:30:29Z</time>
      </trkpt>
      <trkpt lat="49.16546" lon="4.0235">
        <ele>182.79</ele>
        <time>2021-08-09T12:30:31Z</time>
      </trkpt>
      <trkpt lat="49.16576" lon="4.02415">
        <ele>182.31</ele>
        <time>2021-08-09T12:30:41Z</time>
      </trkpt>
      <trkpt lat="49.16586" lon="4.02439">
        <ele>182.31</ele>
        <time>2021-08-09T12:30:45Z</time>
      </trkpt>
      <trkpt lat="49.16592" lon="4.02449">
        <ele>183.27</ele>
        <time>2021-08-09T12:30:47Z</time>
      </trkpt>
      <trkpt lat="49.16599" lon="4.0247">
        <ele>183.75</ele>
        <time>2021-08-09T12:30:51Z</time>
      </trkpt>
      <trkpt lat="49.16598" lon="4.02475">
        <ele>183.75</ele>
        <time>2021-08-09T12:30:52Z</time>
      </trkpt>
      <trkpt lat="49.16596" lon="4.02479">
        <ele>183.75</ele>
        <time>2021-08-09T12:30:53Z</time>
      </trkpt>
      <trkpt lat="49.16594" lon="4.02481">
        <ele>184.23</ele>
        <time>2021-08-09T12:30:54Z</time>
      </trkpt>
      <trkpt lat="49.16591" lon="4.02485">
        <ele>184.23</ele>
        <time>2021-08-09T12:30:55Z</time>
      </trkpt>
      <trkpt lat="49.16588" lon="4.02488">
        <ele>184.23</ele>
        <time>2021-08-09T12:30:56Z</time>
      </trkpt>
      <trkpt lat="49.1657" lon="4.02501">
        <ele>184.71</ele>
        <time>2021-08-09T12:31:03Z</time>
      </trkpt>
      <trkpt lat="49.16556" lon="4.02508">
        <ele>185.67</ele>
        <time>2021-08-09T12:31:10Z</time>
      </trkpt>
      <trkpt lat="49.16554" lon="4.02509">
        <ele>185.67</ele>
        <time>2021-08-09T12:31:11Z</time>
      </trkpt>
      <trkpt lat="49.16553" lon="4.02511">
        <ele>185.67</ele>
        <time>2021-08-09T12:31:12Z</time>
      </trkpt>
      <trkpt lat="49.16555" lon="4.0251">
        <ele>185.67</ele>
        <time>2021-08-09T12:31:14Z</time>
      </trkpt>
      <trkpt lat="49.16556" lon="4.02509">
        <ele>185.67</ele>
        <time>2021-08-09T12:31:15Z</time>
      </trkpt>
      <trkpt lat="49.16558" lon="4.02507">
        <ele>185.67</ele>
        <time>2021-08-09T12:31:16Z</time>
      </trkpt>
      <trkpt lat="49.1656" lon="4.02506">
        <ele>185.67</ele>
        <time>2021-08-09T12:31:17Z</time>
      </trkpt>
      <trkpt lat="49.16563" lon="4.02505">
        <ele>185.67</ele>
        <time>2021-08-09T12:31:18Z</time>
      </trkpt>
      <trkpt lat="49.16565" lon="4.02504">
        <ele>185.67</ele>
        <time>2021-08-09T12:31:19Z</time>
      </trkpt>
      <trkpt lat="49.16568" lon="4.02503">
        <ele>185.67</ele>
        <time>2021-08-09T12:31:20Z</time>
      </trkpt>
      <trkpt lat="49.16572" lon="4.02503">
        <ele>185.67</ele>
        <time>2021-08-09T12:31:21Z</time>
      </trkpt>
      <trkpt lat="49.16575" lon="4.02503">
        <ele>185.67</ele>
        <time>2021-08-09T12:31:22Z</time>
      </trkpt>
      <trkpt lat="49.16579" lon="4.02504">
        <ele>184.71</ele>
        <time>2021-08-09T12:31:23Z</time>
      </trkpt>
      <trkpt lat="49.16582" lon="4.02507">
        <ele>184.71</ele>
        <time>2021-08-09T12:31:24Z</time>
      </trkpt>
      <trkpt lat="49.16584" lon="4.0251">
        <ele>184.71</ele>
        <time>2021-08-09T12:31:25Z</time>
      </trkpt>
      <trkpt lat="49.16586" lon="4.02513">
        <ele>184.71</ele>
        <time>2021-08-09T12:31:26Z</time>
      </trkpt>
      <trkpt lat="49.16589" lon="4.0252">
        <ele>184.71</ele>
        <time>2021-08-09T12:31:28Z</time>
      </trkpt>
      <trkpt lat="49.16588" lon="4.02522">
        <ele>184.71</ele>
        <time>2021-08-09T12:31:29Z</time>
      </trkpt>
      <trkpt lat="49.16585" lon="4.02516">
        <ele>184.71</ele>
        <time>2021-08-09T12:31:32Z</time>
      </trkpt>
      <trkpt lat="49.16584" lon="4.02513">
        <ele>184.71</ele>
        <time>2021-08-09T12:31:33Z</time>
      </trkpt>
      <trkpt lat="49.16583" lon="4.02509">
        <ele>184.71</ele>
        <time>2021-08-09T12:31:34Z</time>
      </trkpt>
      <trkpt lat="49.16572" lon="4.02502">
        <ele>184.71</ele>
        <time>2021-08-09T12:31:40Z</time>
      </trkpt>
      <trkpt lat="49.16569" lon="4.02501">
        <ele>184.71</ele>
        <time>2021-08-09T12:31:46Z</time>
      </trkpt>
      <trkpt lat="49.16563" lon="4.02504">
        <ele>186.15</ele>
        <time>2021-08-09T12:31:55Z</time>
      </trkpt>
      <trkpt lat="49.16561" lon="4.02505">
        <ele>186.15</ele>
        <time>2021-08-09T12:31:56Z</time>
      </trkpt>
      <trkpt lat="49.16543" lon="4.02512">
        <ele>186.15</ele>
        <time>2021-08-09T12:32:03Z</time>
      </trkpt>
      <trkpt lat="49.16531" lon="4.02524">
        <ele>187.59</ele>
        <time>2021-08-09T12:32:09Z</time>
      </trkpt>
      <trkpt lat="49.16516" lon="4.02542">
        <ele>188.08</ele>
        <time>2021-08-09T12:32:16Z</time>
      </trkpt>
      <trkpt lat="49.16497" lon="4.0256">
        <ele>189.04</ele>
        <time>2021-08-09T12:32:25Z</time>
      </trkpt>
      <trkpt lat="49.16476" lon="4.02573">
        <ele>190.48</ele>
        <time>2021-08-09T12:32:35Z</time>
      </trkpt>
      <trkpt lat="49.16458" lon="4.02578">
        <ele>191.44</ele>
        <time>2021-08-09T12:32:43Z</time>
      </trkpt>
      <trkpt lat="49.16437" lon="4.0258">
        <ele>193.36</ele>
        <time>2021-08-09T12:32:53Z</time>
      </trkpt>
      <trkpt lat="49.16429" lon="4.02593">
        <ele>193.84</ele>
        <time>2021-08-09T12:32:59Z</time>
      </trkpt>
      <trkpt lat="49.16428" lon="4.0262">
        <ele>195.28</ele>
        <time>2021-08-09T12:33:07Z</time>
      </trkpt>
      <trkpt lat="49.16424" lon="4.02638">
        <ele>195.77</ele>
        <time>2021-08-09T12:33:15Z</time>
      </trkpt>
      <trkpt lat="49.16419" lon="4.02661">
        <ele>197.69</ele>
        <time>2021-08-09T12:33:25Z</time>
      </trkpt>
      <trkpt lat="49.16415" lon="4.02679">
        <ele>198.17</ele>
        <time>2021-08-09T12:33:33Z</time>
      </trkpt>
      <trkpt lat="49.16412" lon="4.02696">
        <ele>199.13</ele>
        <time>2021-08-09T12:33:40Z</time>
      </trkpt>
      <trkpt lat="49.16409" lon="4.0271">
        <ele>200.09</ele>
        <time>2021-08-09T12:33:48Z</time>
      </trkpt>
      <trkpt lat="49.16404" lon="4.0273">
        <ele>201.53</ele>
        <time>2021-08-09T12:33:58Z</time>
      </trkpt>
      <trkpt lat="49.16401" lon="4.0275">
        <ele>203.46</ele>
        <time>2021-08-09T12:34:08Z</time>
      </trkpt>
      <trkpt lat="49.16398" lon="4.02765">
        <ele>204.42</ele>
        <time>2021-08-09T12:34:16Z</time>
      </trkpt>
      <trkpt lat="49.16398" lon="4.02767">
        <ele>204.42</ele>
        <time>2021-08-09T12:34:17Z</time>
      </trkpt>
      <trkpt lat="49.16397" lon="4.02769">
        <ele>204.9</ele>
        <time>2021-08-09T12:34:18Z</time>
      </trkpt>
      <trkpt lat="49.16394" lon="4.02782">
        <ele>205.86</ele>
        <time>2021-08-09T12:34:25Z</time>
      </trkpt>
      <trkpt lat="49.16393" lon="4.02784">
        <ele>205.86</ele>
        <time>2021-08-09T12:34:26Z</time>
      </trkpt>
      <trkpt lat="49.16393" lon="4.02786">
        <ele>206.34</ele>
        <time>2021-08-09T12:34:27Z</time>
      </trkpt>
      <trkpt lat="49.16393" lon="4.02788">
        <ele>206.34</ele>
        <time>2021-08-09T12:34:28Z</time>
      </trkpt>
      <trkpt lat="49.16393" lon="4.0279">
        <ele>206.34</ele>
        <time>2021-08-09T12:34:29Z</time>
      </trkpt>
      <trkpt lat="49.16392" lon="4.02791">
        <ele>206.34</ele>
        <time>2021-08-09T12:34:30Z</time>
      </trkpt>
      <trkpt lat="49.16392" lon="4.02793">
        <ele>206.82</ele>
        <time>2021-08-09T12:34:31Z</time>
      </trkpt>
      <trkpt lat="49.16392" lon="4.02795">
        <ele>206.82</ele>
        <time>2021-08-09T12:34:32Z</time>
      </trkpt>
      <trkpt lat="49.1639" lon="4.02805">
        <ele>207.3</ele>
        <time>2021-08-09T12:34:37Z</time>
      </trkpt>
      <trkpt lat="49.16385" lon="4.02825">
        <ele>209.22</ele>
        <time>2021-08-09T12:34:48Z</time>
      </trkpt>
      <trkpt lat="49.16383" lon="4.02838">
        <ele>210.67</ele>
        <time>2021-08-09T12:34:55Z</time>
      </trkpt>
      <trkpt lat="49.16383" lon="4.02839">
        <ele>210.67</ele>
        <time>2021-08-09T12:34:56Z</time>
      </trkpt>
      <trkpt lat="49.16379" lon="4.02861">
        <ele>212.11</ele>
        <time>2021-08-09T12:35:08Z</time>
      </trkpt>
      <trkpt lat="49.16375" lon="4.02878">
        <ele>213.55</ele>
        <time>2021-08-09T12:35:17Z</time>
      </trkpt>
      <trkpt lat="49.16375" lon="4.02881">
        <ele>214.03</ele>
        <time>2021-08-09T12:35:19Z</time>
      </trkpt>
      <trkpt lat="49.16373" lon="4.02896">
        <ele>214.99</ele>
        <time>2021-08-09T12:35:27Z</time>
      </trkpt>
      <trkpt lat="49.1637" lon="4.02907">
        <ele>215.95</ele>
        <time>2021-08-09T12:35:35Z</time>
      </trkpt>
      <trkpt lat="49.16364" lon="4.02922">
        <ele>216.91</ele>
        <time>2021-08-09T12:35:43Z</time>
      </trkpt>
      <trkpt lat="49.1636" lon="4.02927">
        <ele>217.88</ele>
        <time>2021-08-09T12:35:48Z</time>
      </trkpt>
      <trkpt lat="49.16357" lon="4.02932">
        <ele>218.36</ele>
        <time>2021-08-09T12:35:51Z</time>
      </trkpt>
      <trkpt lat="49.16356" lon="4.02934">
        <ele>218.36</ele>
        <time>2021-08-09T12:35:52Z</time>
      </trkpt>
      <trkpt lat="49.16355" lon="4.02936">
        <ele>218.36</ele>
        <time>2021-08-09T12:35:53Z</time>
      </trkpt>
      <trkpt lat="49.16354" lon="4.02937">
        <ele>218.36</ele>
        <time>2021-08-09T12:35:54Z</time>
      </trkpt>
      <trkpt lat="49.16353" lon="4.02939">
        <ele>218.36</ele>
        <time>2021-08-09T12:35:55Z</time>
      </trkpt>
      <trkpt lat="49.16349" lon="4.02951">
        <ele>220.28</ele>
        <time>2021-08-09T12:36:03Z</time>
      </trkpt>
      <trkpt lat="49.16344" lon="4.02957">
        <ele>220.76</ele>
        <time>2021-08-09T12:36:10Z</time>
      </trkpt>
      <trkpt lat="49.16339" lon="4.02964">
        <ele>221.72</ele>
        <time>2021-08-09T12:36:17Z</time>
      </trkpt>
      <trkpt lat="49.16328" lon="4.02972">
        <ele>223.16</ele>
        <time>2021-08-09T12:36:26Z</time>
      </trkpt>
      <trkpt lat="49.16324" lon="4.02974">
        <ele>223.64</ele>
        <time>2021-08-09T12:36:29Z</time>
      </trkpt>
      <trkpt lat="49.16316" lon="4.02979">
        <ele>225.57</ele>
        <time>2021-08-09T12:36:37Z</time>
      </trkpt>
      <trkpt lat="49.16312" lon="4.0298">
        <ele>226.53</ele>
        <time>2021-08-09T12:36:43Z</time>
      </trkpt>
      <trkpt lat="49.16303" lon="4.02982">
        <ele>227.97</ele>
        <time>2021-08-09T12:36:52Z</time>
      </trkpt>
      <trkpt lat="49.16293" lon="4.02982">
        <ele>230.37</ele>
        <time>2021-08-09T12:37:01Z</time>
      </trkpt>
      <trkpt lat="49.16285" lon="4.02983">
        <ele>232.3</ele>
        <time>2021-08-09T12:37:09Z</time>
      </trkpt>
      <trkpt lat="49.16279" lon="4.02986">
        <ele>233.26</ele>
        <time>2021-08-09T12:37:16Z</time>
      </trkpt>
      <trkpt lat="49.16271" lon="4.02988">
        <ele>234.22</ele>
        <time>2021-08-09T12:37:23Z</time>
      </trkpt>
      <trkpt lat="49.16262" lon="4.02985">
        <ele>235.66</ele>
        <time>2021-08-09T12:37:31Z</time>
      </trkpt>
      <trkpt lat="49.16253" lon="4.02983">
        <ele>237.1</ele>
        <time>2021-08-09T12:37:38Z</time>
      </trkpt>
      <trkpt lat="49.16243" lon="4.02984">
        <ele>238.06</ele>
        <time>2021-08-09T12:37:44Z</time>
      </trkpt>
      <trkpt lat="49.16242" lon="4.02983">
        <ele>238.06</ele>
        <time>2021-08-09T12:37:45Z</time>
      </trkpt>
      <trkpt lat="49.16228" lon="4.02981">
        <ele>239.99</ele>
        <time>2021-08-09T12:37:54Z</time>
      </trkpt>
      <trkpt lat="49.16224" lon="4.02979">
        <ele>240.47</ele>
        <time>2021-08-09T12:37:58Z</time>
      </trkpt>
      <trkpt lat="49.16219" lon="4.02978">
        <ele>241.43</ele>
        <time>2021-08-09T12:38:03Z</time>
      </trkpt>
      <trkpt lat="49.16217" lon="4.02977">
        <ele>241.43</ele>
        <time>2021-08-09T12:38:04Z</time>
      </trkpt>
      <trkpt lat="49.16216" lon="4.02977">
        <ele>241.43</ele>
        <time>2021-08-09T12:38:05Z</time>
      </trkpt>
      <trkpt lat="49.16205" lon="4.02978">
        <ele>243.35</ele>
        <time>2021-08-09T12:38:14Z</time>
      </trkpt>
      <trkpt lat="49.162" lon="4.02977">
        <ele>244.31</ele>
        <time>2021-08-09T12:38:18Z</time>
      </trkpt>
      <trkpt lat="49.1619" lon="4.02975">
        <ele>245.75</ele>
        <time>2021-08-09T12:38:26Z</time>
      </trkpt>
      <trkpt lat="49.16189" lon="4.02975">
        <ele>246.23</ele>
        <time>2021-08-09T12:38:27Z</time>
      </trkpt>
      <trkpt lat="49.16188" lon="4.02975">
        <ele>246.23</ele>
        <time>2021-08-09T12:38:28Z</time>
      </trkpt>
      <trkpt lat="49.16186" lon="4.02976">
        <ele>246.23</ele>
        <time>2021-08-09T12:38:29Z</time>
      </trkpt>
      <trkpt lat="49.1618" lon="4.0298">
        <ele>247.68</ele>
        <time>2021-08-09T12:38:37Z</time>
      </trkpt>
      <trkpt lat="49.16174" lon="4.02985">
        <ele>249.6</ele>
        <time>2021-08-09T12:38:44Z</time>
      </trkpt>
      <trkpt lat="49.16167" lon="4.02994">
        <ele>251.04</ele>
        <time>2021-08-09T12:38:52Z</time>
      </trkpt>
      <trkpt lat="49.16168" lon="4.02998">
        <ele>252</ele>
        <time>2021-08-09T12:38:55Z</time>
      </trkpt>
      <trkpt lat="49.16168" lon="4.03003">
        <ele>252.96</ele>
        <time>2021-08-09T12:39:02Z</time>
      </trkpt>
      <trkpt lat="49.16167" lon="4.03015">
        <ele>253.44</ele>
        <time>2021-08-09T12:39:10Z</time>
      </trkpt>
      <trkpt lat="49.16168" lon="4.03024">
        <ele>253.93</ele>
        <time>2021-08-09T12:39:17Z</time>
      </trkpt>
      <trkpt lat="49.16173" lon="4.03037">
        <ele>255.37</ele>
        <time>2021-08-09T12:39:26Z</time>
      </trkpt>
      <trkpt lat="49.16177" lon="4.03048">
        <ele>255.85</ele>
        <time>2021-08-09T12:39:33Z</time>
      </trkpt>
      <trkpt lat="49.16182" lon="4.03055">
        <ele>257.29</ele>
        <time>2021-08-09T12:39:39Z</time>
      </trkpt>
      <trkpt lat="49.16182" lon="4.03057">
        <ele>257.29</ele>
        <time>2021-08-09T12:39:40Z</time>
      </trkpt>
      <trkpt lat="49.16183" lon="4.0306">
        <ele>257.77</ele>
        <time>2021-08-09T12:39:41Z</time>
      </trkpt>
      <trkpt lat="49.16184" lon="4.03062">
        <ele>257.77</ele>
        <time>2021-08-09T12:39:42Z</time>
      </trkpt>
      <trkpt lat="49.16184" lon="4.03064">
        <ele>257.77</ele>
        <time>2021-08-09T12:39:43Z</time>
      </trkpt>
      <trkpt lat="49.16185" lon="4.03067">
        <ele>258.25</ele>
        <time>2021-08-09T12:39:44Z</time>
      </trkpt>
      <trkpt lat="49.16186" lon="4.03069">
        <ele>258.25</ele>
        <time>2021-08-09T12:39:45Z</time>
      </trkpt>
      <trkpt lat="49.16186" lon="4.03072">
        <ele>258.25</ele>
        <time>2021-08-09T12:39:46Z</time>
      </trkpt>
      <trkpt lat="49.16186" lon="4.03089">
        <ele>259.21</ele>
        <time>2021-08-09T12:39:54Z</time>
      </trkpt>
      <trkpt lat="49.16186" lon="4.03101">
        <ele>261.14</ele>
        <time>2021-08-09T12:40:00Z</time>
      </trkpt>
      <trkpt lat="49.16183" lon="4.03114">
        <ele>262.1</ele>
        <time>2021-08-09T12:40:07Z</time>
      </trkpt>
      <trkpt lat="49.1618" lon="4.03129">
        <ele>263.06</ele>
        <time>2021-08-09T12:40:14Z</time>
      </trkpt>
      <trkpt lat="49.16172" lon="4.03141">
        <ele>264.5</ele>
        <time>2021-08-09T12:40:22Z</time>
      </trkpt>
      <trkpt lat="49.16165" lon="4.03151">
        <ele>264.98</ele>
        <time>2021-08-09T12:40:30Z</time>
      </trkpt>
      <trkpt lat="49.16153" lon="4.03161">
        <ele>265.94</ele>
        <time>2021-08-09T12:40:38Z</time>
      </trkpt>
      <trkpt lat="49.16148" lon="4.03165">
        <ele>266.42</ele>
        <time>2021-08-09T12:40:42Z</time>
      </trkpt>
      <trkpt lat="49.16146" lon="4.03167">
        <ele>266.9</ele>
        <time>2021-08-09T12:40:43Z</time>
      </trkpt>
      <trkpt lat="49.16139" lon="4.03172">
        <ele>267.38</ele>
        <time>2021-08-09T12:40:49Z</time>
      </trkpt>
      <trkpt lat="49.16141" lon="4.03175">
        <ele>267.38</ele>
        <time>2021-08-09T12:40:54Z</time>
      </trkpt>
      <trkpt lat="49.1614" lon="4.03176">
        <ele>267.38</ele>
        <time>2021-08-09T12:40:55Z</time>
      </trkpt>
      <trkpt lat="49.16141" lon="4.03183">
        <ele>267.38</ele>
        <time>2021-08-09T12:41:00Z</time>
      </trkpt>
      <trkpt lat="49.16142" lon="4.03186">
        <ele>267.38</ele>
        <time>2021-08-09T12:41:02Z</time>
      </trkpt>
      <trkpt lat="49.16142" lon="4.03192">
        <ele>267.38</ele>
        <time>2021-08-09T12:41:05Z</time>
      </trkpt>
      <trkpt lat="49.16142" lon="4.03198">
        <ele>267.38</ele>
        <time>2021-08-09T12:41:08Z</time>
      </trkpt>
      <trkpt lat="49.16136" lon="4.03213">
        <ele>265.94</ele>
        <time>2021-08-09T12:41:14Z</time>
      </trkpt>
      <trkpt lat="49.16134" lon="4.03218">
        <ele>265.94</ele>
        <time>2021-08-09T12:41:16Z</time>
      </trkpt>
      <trkpt lat="49.16131" lon="4.03226">
        <ele>265.94</ele>
        <time>2021-08-09T12:41:20Z</time>
      </trkpt>
      <trkpt lat="49.1613" lon="4.03228">
        <ele>265.94</ele>
        <time>2021-08-09T12:41:21Z</time>
      </trkpt>
      <trkpt lat="49.16129" lon="4.03231">
        <ele>265.94</ele>
        <time>2021-08-09T12:41:22Z</time>
      </trkpt>
      <trkpt lat="49.16127" lon="4.03235">
        <ele>267.38</ele>
        <time>2021-08-09T12:41:24Z</time>
      </trkpt>
      <trkpt lat="49.16124" lon="4.03239">
        <ele>267.38</ele>
        <time>2021-08-09T12:41:26Z</time>
      </trkpt>
      <trkpt lat="49.16122" lon="4.03247">
        <ele>267.38</ele>
        <time>2021-08-09T12:41:29Z</time>
      </trkpt>
      <trkpt lat="49.16122" lon="4.03249">
        <ele>267.38</ele>
        <time>2021-08-09T12:41:30Z</time>
      </trkpt>
      <trkpt lat="49.16122" lon="4.03252">
        <ele>267.38</ele>
        <time>2021-08-09T12:41:31Z</time>
      </trkpt>
      <trkpt lat="49.16122" lon="4.03254">
        <ele>267.38</ele>
        <time>2021-08-09T12:41:32Z</time>
      </trkpt>
      <trkpt lat="49.16121" lon="4.03257">
        <ele>267.38</ele>
        <time>2021-08-09T12:41:33Z</time>
      </trkpt>
      <trkpt lat="49.16119" lon="4.0327">
        <ele>265.94</ele>
        <time>2021-08-09T12:41:37Z</time>
      </trkpt>
      <trkpt lat="49.16119" lon="4.03277">
        <ele>264.5</ele>
        <time>2021-08-09T12:41:41Z</time>
      </trkpt>
      <trkpt lat="49.1612" lon="4.03279">
        <ele>263.54</ele>
        <time>2021-08-09T12:41:42Z</time>
      </trkpt>
      <trkpt lat="49.16121" lon="4.03281">
        <ele>262.1</ele>
        <time>2021-08-09T12:41:43Z</time>
      </trkpt>
      <trkpt lat="49.16123" lon="4.03285">
        <ele>261.14</ele>
        <time>2021-08-09T12:41:44Z</time>
      </trkpt>
      <trkpt lat="49.16123" lon="4.03289">
        <ele>260.17</ele>
        <time>2021-08-09T12:41:45Z</time>
      </trkpt>
      <trkpt lat="49.16124" lon="4.03292">
        <ele>259.69</ele>
        <time>2021-08-09T12:41:46Z</time>
      </trkpt>
      <trkpt lat="49.16124" lon="4.03295">
        <ele>259.21</ele>
        <time>2021-08-09T12:41:47Z</time>
      </trkpt>
      <trkpt lat="49.16124" lon="4.03299">
        <ele>257.77</ele>
        <time>2021-08-09T12:41:48Z</time>
      </trkpt>
      <trkpt lat="49.16125" lon="4.03303">
        <ele>257.77</ele>
        <time>2021-08-09T12:41:49Z</time>
      </trkpt>
      <trkpt lat="49.16124" lon="4.03326">
        <ele>255.85</ele>
        <time>2021-08-09T12:41:54Z</time>
      </trkpt>
      <trkpt lat="49.16122" lon="4.03355">
        <ele>253.93</ele>
        <time>2021-08-09T12:42:00Z</time>
      </trkpt>
      <trkpt lat="49.16122" lon="4.03367">
        <ele>251.52</ele>
        <time>2021-08-09T12:42:04Z</time>
      </trkpt>
      <trkpt lat="49.16122" lon="4.03369">
        <ele>251.04</ele>
        <time>2021-08-09T12:42:05Z</time>
      </trkpt>
      <trkpt lat="49.16122" lon="4.03372">
        <ele>250.56</ele>
        <time>2021-08-09T12:42:06Z</time>
      </trkpt>
      <trkpt lat="49.16122" lon="4.03375">
        <ele>249.6</ele>
        <time>2021-08-09T12:42:07Z</time>
      </trkpt>
      <trkpt lat="49.1612" lon="4.03378">
        <ele>249.6</ele>
        <time>2021-08-09T12:42:08Z</time>
      </trkpt>
      <trkpt lat="49.16119" lon="4.03381">
        <ele>249.12</ele>
        <time>2021-08-09T12:42:09Z</time>
      </trkpt>
      <trkpt lat="49.16121" lon="4.03391">
        <ele>249.12</ele>
        <time>2021-08-09T12:42:10Z</time>
      </trkpt>
      <trkpt lat="49.16121" lon="4.03396">
        <ele>248.64</ele>
        <time>2021-08-09T12:42:11Z</time>
      </trkpt>
      <trkpt lat="49.1612" lon="4.03399">
        <ele>249.12</ele>
        <time>2021-08-09T12:42:12Z</time>
      </trkpt>
      <trkpt lat="49.16119" lon="4.03402">
        <ele>248.64</ele>
        <time>2021-08-09T12:42:13Z</time>
      </trkpt>
      <trkpt lat="49.16116" lon="4.03405">
        <ele>247.68</ele>
        <time>2021-08-09T12:42:14Z</time>
      </trkpt>
      <trkpt lat="49.16115" lon="4.03406">
        <ele>247.68</ele>
        <time>2021-08-09T12:42:15Z</time>
      </trkpt>
      <trkpt lat="49.16098" lon="4.03417">
        <ele>248.16</ele>
        <time>2021-08-09T12:42:22Z</time>
      </trkpt>
      <trkpt lat="49.16092" lon="4.03421">
        <ele>249.6</ele>
        <time>2021-08-09T12:42:25Z</time>
      </trkpt>
      <trkpt lat="49.16088" lon="4.03425">
        <ele>249.6</ele>
        <time>2021-08-09T12:42:28Z</time>
      </trkpt>
      <trkpt lat="49.16086" lon="4.03427">
        <ele>249.6</ele>
        <time>2021-08-09T12:42:29Z</time>
      </trkpt>
      <trkpt lat="49.16084" lon="4.0343">
        <ele>249.6</ele>
        <time>2021-08-09T12:42:30Z</time>
      </trkpt>
      <trkpt lat="49.16082" lon="4.03433">
        <ele>249.6</ele>
        <time>2021-08-09T12:42:31Z</time>
      </trkpt>
      <trkpt lat="49.16081" lon="4.03435">
        <ele>249.6</ele>
        <time>2021-08-09T12:42:32Z</time>
      </trkpt>
      <trkpt lat="49.16076" lon="4.03443">
        <ele>249.6</ele>
        <time>2021-08-09T12:42:38Z</time>
      </trkpt>
      <trkpt lat="49.16074" lon="4.03447">
        <ele>249.6</ele>
        <time>2021-08-09T12:42:53Z</time>
      </trkpt>
      <trkpt lat="49.16073" lon="4.03448">
        <ele>248.64</ele>
        <time>2021-08-09T12:43:08Z</time>
      </trkpt>
      <trkpt lat="49.16068" lon="4.03459">
        <ele>247.68</ele>
        <time>2021-08-09T12:43:13Z</time>
      </trkpt>
      <trkpt lat="49.1606" lon="4.03475">
        <ele>245.75</ele>
        <time>2021-08-09T12:43:17Z</time>
      </trkpt>
      <trkpt lat="49.16058" lon="4.03482">
        <ele>244.31</ele>
        <time>2021-08-09T12:43:18Z</time>
      </trkpt>
      <trkpt lat="49.16057" lon="4.03488">
        <ele>244.31</ele>
        <time>2021-08-09T12:43:19Z</time>
      </trkpt>
      <trkpt lat="49.16049" lon="4.0352">
        <ele>241.43</ele>
        <time>2021-08-09T12:43:26Z</time>
      </trkpt>
      <trkpt lat="49.16052" lon="4.03529">
        <ele>240.95</ele>
        <time>2021-08-09T12:43:31Z</time>
      </trkpt>
      <trkpt lat="49.16049" lon="4.03528">
        <ele>240.95</ele>
        <time>2021-08-09T12:43:49Z</time>
      </trkpt>
      <trkpt lat="49.16049" lon="4.03524">
        <ele>240.95</ele>
        <time>2021-08-09T12:44:06Z</time>
      </trkpt>
      <trkpt lat="49.16049" lon="4.03523">
        <ele>240.95</ele>
        <time>2021-08-09T12:44:24Z</time>
      </trkpt>
      <trkpt lat="49.1605" lon="4.03525">
        <ele>240.95</ele>
        <time>2021-08-09T12:44:39Z</time>
      </trkpt>
      <trkpt lat="49.16048" lon="4.03523">
        <ele>240.95</ele>
        <time>2021-08-09T12:44:57Z</time>
      </trkpt>
      <trkpt lat="49.16049" lon="4.03524">
        <ele>240.95</ele>
        <time>2021-08-09T12:45:08Z</time>
      </trkpt>
      <trkpt lat="49.1605" lon="4.03526">
        <ele>240.95</ele>
        <time>2021-08-09T12:45:09Z</time>
      </trkpt>
      <trkpt lat="49.16052" lon="4.03529">
        <ele>240.95</ele>
        <time>2021-08-09T12:45:10Z</time>
      </trkpt>
      <trkpt lat="49.16053" lon="4.0353">
        <ele>240.47</ele>
        <time>2021-08-09T12:45:11Z</time>
      </trkpt>
      <trkpt lat="49.16054" lon="4.03533">
        <ele>239.99</ele>
        <time>2021-08-09T12:45:12Z</time>
      </trkpt>
      <trkpt lat="49.16063" lon="4.03559">
        <ele>239.51</ele>
        <time>2021-08-09T12:45:17Z</time>
      </trkpt>
      <trkpt lat="49.16062" lon="4.03588">
        <ele>238.06</ele>
        <time>2021-08-09T12:45:22Z</time>
      </trkpt>
      <trkpt lat="49.16059" lon="4.03601">
        <ele>237.1</ele>
        <time>2021-08-09T12:45:24Z</time>
      </trkpt>
      <trkpt lat="49.16055" lon="4.03614">
        <ele>236.62</ele>
        <time>2021-08-09T12:45:26Z</time>
      </trkpt>
      <trkpt lat="49.16052" lon="4.03627">
        <ele>235.18</ele>
        <time>2021-08-09T12:45:28Z</time>
      </trkpt>
      <trkpt lat="49.16045" lon="4.03678">
        <ele>232.78</ele>
        <time>2021-08-09T12:45:34Z</time>
      </trkpt>
      <trkpt lat="49.16043" lon="4.03687">
        <ele>232.78</ele>
        <time>2021-08-09T12:45:35Z</time>
      </trkpt>
      <trkpt lat="49.1604" lon="4.03695">
        <ele>232.3</ele>
        <time>2021-08-09T12:45:36Z</time>
      </trkpt>
      <trkpt lat="49.16032" lon="4.03718">
        <ele>231.81</ele>
        <time>2021-08-09T12:45:39Z</time>
      </trkpt>
      <trkpt lat="49.16028" lon="4.03723">
        <ele>232.3</ele>
        <time>2021-08-09T12:45:40Z</time>
      </trkpt>
      <trkpt lat="49.16011" lon="4.03752">
        <ele>232.3</ele>
        <time>2021-08-09T12:45:47Z</time>
      </trkpt>
      <trkpt lat="49.15998" lon="4.03775">
        <ele>231.81</ele>
        <time>2021-08-09T12:45:55Z</time>
      </trkpt>
      <trkpt lat="49.15992" lon="4.03798">
        <ele>230.37</ele>
        <time>2021-08-09T12:46:01Z</time>
      </trkpt>
      <trkpt lat="49.1599" lon="4.03816">
        <ele>229.41</ele>
        <time>2021-08-09T12:46:04Z</time>
      </trkpt>
      <trkpt lat="49.15992" lon="4.03839">
        <ele>228.45</ele>
        <time>2021-08-09T12:46:07Z</time>
      </trkpt>
      <trkpt lat="49.15994" lon="4.03848">
        <ele>227.97</ele>
        <time>2021-08-09T12:46:08Z</time>
      </trkpt>
      <trkpt lat="49.15997" lon="4.03854">
        <ele>227.97</ele>
        <time>2021-08-09T12:46:09Z</time>
      </trkpt>
      <trkpt lat="49.15999" lon="4.0386">
        <ele>227.97</ele>
        <time>2021-08-09T12:46:10Z</time>
      </trkpt>
      <trkpt lat="49.16001" lon="4.03866">
        <ele>227.49</ele>
        <time>2021-08-09T12:46:11Z</time>
      </trkpt>
      <trkpt lat="49.16003" lon="4.03872">
        <ele>226.53</ele>
        <time>2021-08-09T12:46:12Z</time>
      </trkpt>
      <trkpt lat="49.16004" lon="4.03878">
        <ele>226.53</ele>
        <time>2021-08-09T12:46:13Z</time>
      </trkpt>
      <trkpt lat="49.16003" lon="4.03885">
        <ele>226.53</ele>
        <time>2021-08-09T12:46:14Z</time>
      </trkpt>
      <trkpt lat="49.16002" lon="4.03891">
        <ele>226.53</ele>
        <time>2021-08-09T12:46:15Z</time>
      </trkpt>
      <trkpt lat="49.16002" lon="4.03895">
        <ele>227.01</ele>
        <time>2021-08-09T12:46:16Z</time>
      </trkpt>
      <trkpt lat="49.16" lon="4.03923">
        <ele>227.97</ele>
        <time>2021-08-09T12:46:22Z</time>
      </trkpt>
      <trkpt lat="49.15995" lon="4.03954">
        <ele>228.93</ele>
        <time>2021-08-09T12:46:29Z</time>
      </trkpt>
      <trkpt lat="49.15986" lon="4.03984">
        <ele>229.41</ele>
        <time>2021-08-09T12:46:36Z</time>
      </trkpt>
      <trkpt lat="49.15979" lon="4.04015">
        <ele>229.41</ele>
        <time>2021-08-09T12:46:43Z</time>
      </trkpt>
      <trkpt lat="49.15974" lon="4.04051">
        <ele>229.41</ele>
        <time>2021-08-09T12:46:50Z</time>
      </trkpt>
      <trkpt lat="49.15973" lon="4.04063">
        <ele>227.97</ele>
        <time>2021-08-09T12:46:52Z</time>
      </trkpt>
      <trkpt lat="49.15975" lon="4.04085">
        <ele>227.01</ele>
        <time>2021-08-09T12:46:57Z</time>
      </trkpt>
      <trkpt lat="49.15974" lon="4.04091">
        <ele>226.53</ele>
        <time>2021-08-09T12:46:59Z</time>
      </trkpt>
      <trkpt lat="49.15974" lon="4.04095">
        <ele>227.97</ele>
        <time>2021-08-09T12:47:00Z</time>
      </trkpt>
      <trkpt lat="49.15969" lon="4.04115">
        <ele>228.93</ele>
        <time>2021-08-09T12:47:06Z</time>
      </trkpt>
      <trkpt lat="49.15969" lon="4.04128">
        <ele>227.49</ele>
        <time>2021-08-09T12:47:10Z</time>
      </trkpt>
      <trkpt lat="49.15968" lon="4.04133">
        <ele>227.01</ele>
        <time>2021-08-09T12:47:11Z</time>
      </trkpt>
      <trkpt lat="49.15967" lon="4.04138">
        <ele>227.01</ele>
        <time>2021-08-09T12:47:12Z</time>
      </trkpt>
      <trkpt lat="49.15965" lon="4.04143">
        <ele>227.01</ele>
        <time>2021-08-09T12:47:13Z</time>
      </trkpt>
      <trkpt lat="49.15964" lon="4.04147">
        <ele>227.01</ele>
        <time>2021-08-09T12:47:14Z</time>
      </trkpt>
      <trkpt lat="49.15963" lon="4.04151">
        <ele>227.01</ele>
        <time>2021-08-09T12:47:15Z</time>
      </trkpt>
      <trkpt lat="49.15963" lon="4.04155">
        <ele>227.01</ele>
        <time>2021-08-09T12:47:16Z</time>
      </trkpt>
      <trkpt lat="49.15953" lon="4.04174">
        <ele>227.01</ele>
        <time>2021-08-09T12:47:21Z</time>
      </trkpt>
      <trkpt lat="49.15947" lon="4.04187">
        <ele>227.01</ele>
        <time>2021-08-09T12:47:25Z</time>
      </trkpt>
      <trkpt lat="49.15943" lon="4.042">
        <ele>228.45</ele>
        <time>2021-08-09T12:47:30Z</time>
      </trkpt>
      <trkpt lat="49.1594" lon="4.04212">
        <ele>228.93</ele>
        <time>2021-08-09T12:47:37Z</time>
      </trkpt>
      <trkpt lat="49.15937" lon="4.04219">
        <ele>229.41</ele>
        <time>2021-08-09T12:47:41Z</time>
      </trkpt>
      <trkpt lat="49.15936" lon="4.04221">
        <ele>229.41</ele>
        <time>2021-08-09T12:47:42Z</time>
      </trkpt>
      <trkpt lat="49.15936" lon="4.04223">
        <ele>229.41</ele>
        <time>2021-08-09T12:47:43Z</time>
      </trkpt>
      <trkpt lat="49.15933" lon="4.04234">
        <ele>229.89</ele>
        <time>2021-08-09T12:47:47Z</time>
      </trkpt>
      <trkpt lat="49.1593" lon="4.0424">
        <ele>229.89</ele>
        <time>2021-08-09T12:47:49Z</time>
      </trkpt>
      <trkpt lat="49.15923" lon="4.04251">
        <ele>231.33</ele>
        <time>2021-08-09T12:47:55Z</time>
      </trkpt>
      <trkpt lat="49.1592" lon="4.04264">
        <ele>232.3</ele>
        <time>2021-08-09T12:48:01Z</time>
      </trkpt>
      <trkpt lat="49.1592" lon="4.04274">
        <ele>232.78</ele>
        <time>2021-08-09T12:48:04Z</time>
      </trkpt>
      <trkpt lat="49.15921" lon="4.04276">
        <ele>232.78</ele>
        <time>2021-08-09T12:48:05Z</time>
      </trkpt>
      <trkpt lat="49.15922" lon="4.04278">
        <ele>232.78</ele>
        <time>2021-08-09T12:48:06Z</time>
      </trkpt>
      <trkpt lat="49.15923" lon="4.0428">
        <ele>232.78</ele>
        <time>2021-08-09T12:48:07Z</time>
      </trkpt>
      <trkpt lat="49.15924" lon="4.04282">
        <ele>232.78</ele>
        <time>2021-08-09T12:48:08Z</time>
      </trkpt>
      <trkpt lat="49.15925" lon="4.04284">
        <ele>232.78</ele>
        <time>2021-08-09T12:48:09Z</time>
      </trkpt>
      <trkpt lat="49.15926" lon="4.04287">
        <ele>232.78</ele>
        <time>2021-08-09T12:48:10Z</time>
      </trkpt>
      <trkpt lat="49.15927" lon="4.04289">
        <ele>232.78</ele>
        <time>2021-08-09T12:48:11Z</time>
      </trkpt>
      <trkpt lat="49.15928" lon="4.04292">
        <ele>231.33</ele>
        <time>2021-08-09T12:48:12Z</time>
      </trkpt>
      <trkpt lat="49.1593" lon="4.04296">
        <ele>230.37</ele>
        <time>2021-08-09T12:48:13Z</time>
      </trkpt>
      <trkpt lat="49.15942" lon="4.04318">
        <ele>228.45</ele>
        <time>2021-08-09T12:48:19Z</time>
      </trkpt>
      <trkpt lat="49.15944" lon="4.04323">
        <ele>228.45</ele>
        <time>2021-08-09T12:48:21Z</time>
      </trkpt>
      <trkpt lat="49.15945" lon="4.04325">
        <ele>227.49</ele>
        <time>2021-08-09T12:48:22Z</time>
      </trkpt>
      <trkpt lat="49.15949" lon="4.04336">
        <ele>227.01</ele>
        <time>2021-08-09T12:48:29Z</time>
      </trkpt>
      <trkpt lat="49.15958" lon="4.04356">
        <ele>226.53</ele>
        <time>2021-08-09T12:48:35Z</time>
      </trkpt>
      <trkpt lat="49.15964" lon="4.04364">
        <ele>226.53</ele>
        <time>2021-08-09T12:48:41Z</time>
      </trkpt>
      <trkpt lat="49.15968" lon="4.04367">
        <ele>227.01</ele>
        <time>2021-08-09T12:48:56Z</time>
      </trkpt>
      <trkpt lat="49.15969" lon="4.0437">
        <ele>227.97</ele>
        <time>2021-08-09T12:48:59Z</time>
      </trkpt>
      <trkpt lat="49.1597" lon="4.04374">
        <ele>228.45</ele>
        <time>2021-08-09T12:49:11Z</time>
      </trkpt>
      <trkpt lat="49.15971" lon="4.04376">
        <ele>228.45</ele>
        <time>2021-08-09T12:49:14Z</time>
      </trkpt>
      <trkpt lat="49.15973" lon="4.04377">
        <ele>228.45</ele>
        <time>2021-08-09T12:49:15Z</time>
      </trkpt>
      <trkpt lat="49.15974" lon="4.04377">
        <ele>228.45</ele>
        <time>2021-08-09T12:49:16Z</time>
      </trkpt>
      <trkpt lat="49.15976" lon="4.04377">
        <ele>227.01</ele>
        <time>2021-08-09T12:49:17Z</time>
      </trkpt>
      <trkpt lat="49.15978" lon="4.04378">
        <ele>227.01</ele>
        <time>2021-08-09T12:49:18Z</time>
      </trkpt>
      <trkpt lat="49.15991" lon="4.04379">
        <ele>226.53</ele>
        <time>2021-08-09T12:49:24Z</time>
      </trkpt>
      <trkpt lat="49.15993" lon="4.04378">
        <ele>226.53</ele>
        <time>2021-08-09T12:49:25Z</time>
      </trkpt>
      <trkpt lat="49.15994" lon="4.04376">
        <ele>226.53</ele>
        <time>2021-08-09T12:49:26Z</time>
      </trkpt>
      <trkpt lat="49.15996" lon="4.04375">
        <ele>226.53</ele>
        <time>2021-08-09T12:49:27Z</time>
      </trkpt>
      <trkpt lat="49.15997" lon="4.04374">
        <ele>226.53</ele>
        <time>2021-08-09T12:49:28Z</time>
      </trkpt>
      <trkpt lat="49.15999" lon="4.04374">
        <ele>226.05</ele>
        <time>2021-08-09T12:49:29Z</time>
      </trkpt>
      <trkpt lat="49.16" lon="4.04375">
        <ele>226.05</ele>
        <time>2021-08-09T12:49:30Z</time>
      </trkpt>
      <trkpt lat="49.16014" lon="4.04381">
        <ele>225.09</ele>
        <time>2021-08-09T12:49:36Z</time>
      </trkpt>
      <trkpt lat="49.16023" lon="4.04383">
        <ele>224.61</ele>
        <time>2021-08-09T12:49:38Z</time>
      </trkpt>
      <trkpt lat="49.16055" lon="4.04389">
        <ele>223.64</ele>
        <time>2021-08-09T12:49:44Z</time>
      </trkpt>
      <trkpt lat="49.16061" lon="4.04393">
        <ele>223.16</ele>
        <time>2021-08-09T12:49:45Z</time>
      </trkpt>
      <trkpt lat="49.16093" lon="4.04417">
        <ele>219.8</ele>
        <time>2021-08-09T12:49:51Z</time>
      </trkpt>
      <trkpt lat="49.16116" lon="4.0443">
        <ele>215.95</ele>
        <time>2021-08-09T12:49:54Z</time>
      </trkpt>
      <trkpt lat="49.16142" lon="4.04442">
        <ele>212.11</ele>
        <time>2021-08-09T12:49:57Z</time>
      </trkpt>
      <trkpt lat="49.16169" lon="4.04446">
        <ele>208.26</ele>
        <time>2021-08-09T12:50:00Z</time>
      </trkpt>
      <trkpt lat="49.16192" lon="4.0445">
        <ele>204.42</ele>
        <time>2021-08-09T12:50:03Z</time>
      </trkpt>
      <trkpt lat="49.16221" lon="4.04462">
        <ele>200.57</ele>
        <time>2021-08-09T12:50:07Z</time>
      </trkpt>
      <trkpt lat="49.16243" lon="4.04474">
        <ele>197.69</ele>
        <time>2021-08-09T12:50:10Z</time>
      </trkpt>
      <trkpt lat="49.16248" lon="4.04479">
        <ele>197.21</ele>
        <time>2021-08-09T12:50:11Z</time>
      </trkpt>
      <trkpt lat="49.16251" lon="4.04485">
        <ele>196.25</ele>
        <time>2021-08-09T12:50:12Z</time>
      </trkpt>
      <trkpt lat="49.16253" lon="4.04493">
        <ele>195.28</ele>
        <time>2021-08-09T12:50:13Z</time>
      </trkpt>
      <trkpt lat="49.16253" lon="4.04503">
        <ele>194.32</ele>
        <time>2021-08-09T12:50:14Z</time>
      </trkpt>
      <trkpt lat="49.16253" lon="4.04513">
        <ele>193.84</ele>
        <time>2021-08-09T12:50:15Z</time>
      </trkpt>
      <trkpt lat="49.16254" lon="4.04543">
        <ele>190.96</ele>
        <time>2021-08-09T12:50:18Z</time>
      </trkpt>
      <trkpt lat="49.16256" lon="4.0455">
        <ele>190</ele>
        <time>2021-08-09T12:50:19Z</time>
      </trkpt>
      <trkpt lat="49.1626" lon="4.04556">
        <ele>189.04</ele>
        <time>2021-08-09T12:50:20Z</time>
      </trkpt>
      <trkpt lat="49.16266" lon="4.04559">
        <ele>188.56</ele>
        <time>2021-08-09T12:50:21Z</time>
      </trkpt>
      <trkpt lat="49.16274" lon="4.0456">
        <ele>187.59</ele>
        <time>2021-08-09T12:50:22Z</time>
      </trkpt>
      <trkpt lat="49.16279" lon="4.04561">
        <ele>186.15</ele>
        <time>2021-08-09T12:50:23Z</time>
      </trkpt>
      <trkpt lat="49.16303" lon="4.04565">
        <ele>182.31</ele>
        <time>2021-08-09T12:50:26Z</time>
      </trkpt>
      <trkpt lat="49.16333" lon="4.04571">
        <ele>178.94</ele>
        <time>2021-08-09T12:50:30Z</time>
      </trkpt>
      <trkpt lat="49.1635" lon="4.04575">
        <ele>177.5</ele>
        <time>2021-08-09T12:50:34Z</time>
      </trkpt>
      <trkpt lat="49.16353" lon="4.04571">
        <ele>177.5</ele>
        <time>2021-08-09T12:50:36Z</time>
      </trkpt>
      <trkpt lat="49.16354" lon="4.04567">
        <ele>177.98</ele>
        <time>2021-08-09T12:50:37Z</time>
      </trkpt>
      <trkpt lat="49.16357" lon="4.04544">
        <ele>177.02</ele>
        <time>2021-08-09T12:50:43Z</time>
      </trkpt>
      <trkpt lat="49.16356" lon="4.0454">
        <ele>177.5</ele>
        <time>2021-08-09T12:50:44Z</time>
      </trkpt>
      <trkpt lat="49.16356" lon="4.04536">
        <ele>177.5</ele>
        <time>2021-08-09T12:50:45Z</time>
      </trkpt>
      <trkpt lat="49.16356" lon="4.04532">
        <ele>177.5</ele>
        <time>2021-08-09T12:50:46Z</time>
      </trkpt>
      <trkpt lat="49.16357" lon="4.04527">
        <ele>177.5</ele>
        <time>2021-08-09T12:50:47Z</time>
      </trkpt>
      <trkpt lat="49.16357" lon="4.04484">
        <ele>177.5</ele>
        <time>2021-08-09T12:50:54Z</time>
      </trkpt>
      <trkpt lat="49.16357" lon="4.04445">
        <ele>175.1</ele>
        <time>2021-08-09T12:50:59Z</time>
      </trkpt>
      <trkpt lat="49.16357" lon="4.04423">
        <ele>175.1</ele>
        <time>2021-08-09T12:51:02Z</time>
      </trkpt>
      <trkpt lat="49.16357" lon="4.04362">
        <ele>176.54</ele>
        <time>2021-08-09T12:51:11Z</time>
      </trkpt>
      <trkpt lat="49.16357" lon="4.04356">
        <ele>176.54</ele>
        <time>2021-08-09T12:51:12Z</time>
      </trkpt>
      <trkpt lat="49.16355" lon="4.04328">
        <ele>175.58</ele>
        <time>2021-08-09T12:51:17Z</time>
      </trkpt>
      <trkpt lat="49.16361" lon="4.04297">
        <ele>175.58</ele>
        <time>2021-08-09T12:51:23Z</time>
      </trkpt>
      <trkpt lat="49.16373" lon="4.04259">
        <ele>175.1</ele>
        <time>2021-08-09T12:51:30Z</time>
      </trkpt>
      <trkpt lat="49.16392" lon="4.04216">
        <ele>175.1</ele>
        <time>2021-08-09T12:51:37Z</time>
      </trkpt>
      <trkpt lat="49.16397" lon="4.0421">
        <ele>175.1</ele>
        <time>2021-08-09T12:51:38Z</time>
      </trkpt>
      <trkpt lat="49.16401" lon="4.04207">
        <ele>175.1</ele>
        <time>2021-08-09T12:51:39Z</time>
      </trkpt>
      <trkpt lat="49.16406" lon="4.04203">
        <ele>174.62</ele>
        <time>2021-08-09T12:51:40Z</time>
      </trkpt>
      <trkpt lat="49.16411" lon="4.04201">
        <ele>174.62</ele>
        <time>2021-08-09T12:51:41Z</time>
      </trkpt>
      <trkpt lat="49.16417" lon="4.04199">
        <ele>174.62</ele>
        <time>2021-08-09T12:51:42Z</time>
      </trkpt>
      <trkpt lat="49.16422" lon="4.04198">
        <ele>174.14</ele>
        <time>2021-08-09T12:51:43Z</time>
      </trkpt>
      <trkpt lat="49.16428" lon="4.04198">
        <ele>173.66</ele>
        <time>2021-08-09T12:51:44Z</time>
      </trkpt>
      <trkpt lat="49.16434" lon="4.04199">
        <ele>173.66</ele>
        <time>2021-08-09T12:51:45Z</time>
      </trkpt>
      <trkpt lat="49.1644" lon="4.04199">
        <ele>173.66</ele>
        <time>2021-08-09T12:51:46Z</time>
      </trkpt>
      <trkpt lat="49.16491" lon="4.04206">
        <ele>170.77</ele>
        <time>2021-08-09T12:51:54Z</time>
      </trkpt>
      <trkpt lat="49.16515" lon="4.0421">
        <ele>169.33</ele>
        <time>2021-08-09T12:51:59Z</time>
      </trkpt>
      <trkpt lat="49.16553" lon="4.04214">
        <ele>167.41</ele>
        <time>2021-08-09T12:52:06Z</time>
      </trkpt>
      <trkpt lat="49.16562" lon="4.04215">
        <ele>167.41</ele>
        <time>2021-08-09T12:52:08Z</time>
      </trkpt>
      <trkpt lat="49.16567" lon="4.04218">
        <ele>166.93</ele>
        <time>2021-08-09T12:52:09Z</time>
      </trkpt>
      <trkpt lat="49.16569" lon="4.04224">
        <ele>166.45</ele>
        <time>2021-08-09T12:52:10Z</time>
      </trkpt>
      <trkpt lat="49.1657" lon="4.0423">
        <ele>165.96</ele>
        <time>2021-08-09T12:52:11Z</time>
      </trkpt>
      <trkpt lat="49.16569" lon="4.04238">
        <ele>165.48</ele>
        <time>2021-08-09T12:52:12Z</time>
      </trkpt>
      <trkpt lat="49.16567" lon="4.04246">
        <ele>165.48</ele>
        <time>2021-08-09T12:52:13Z</time>
      </trkpt>
      <trkpt lat="49.16565" lon="4.04254">
        <ele>165.48</ele>
        <time>2021-08-09T12:52:14Z</time>
      </trkpt>
      <trkpt lat="49.16553" lon="4.04308">
        <ele>165</ele>
        <time>2021-08-09T12:52:21Z</time>
      </trkpt>
      <trkpt lat="49.16545" lon="4.0434">
        <ele>165</ele>
        <time>2021-08-09T12:52:26Z</time>
      </trkpt>
      <trkpt lat="49.1654" lon="4.04366">
        <ele>164.52</ele>
        <time>2021-08-09T12:52:30Z</time>
      </trkpt>
      <trkpt lat="49.16526" lon="4.0443">
        <ele>163.56</ele>
        <time>2021-08-09T12:52:39Z</time>
      </trkpt>
      <trkpt lat="49.16518" lon="4.04458">
        <ele>163.56</ele>
        <time>2021-08-09T12:52:43Z</time>
      </trkpt>
      <trkpt lat="49.16516" lon="4.04471">
        <ele>163.08</ele>
        <time>2021-08-09T12:52:45Z</time>
      </trkpt>
      <trkpt lat="49.16514" lon="4.04495">
        <ele>164.04</ele>
        <time>2021-08-09T12:52:49Z</time>
      </trkpt>
      <trkpt lat="49.16508" lon="4.04522">
        <ele>165.48</ele>
        <time>2021-08-09T12:52:55Z</time>
      </trkpt>
      <trkpt lat="49.16508" lon="4.04549">
        <ele>166.45</ele>
        <time>2021-08-09T12:53:01Z</time>
      </trkpt>
      <trkpt lat="49.16507" lon="4.04574">
        <ele>166.93</ele>
        <time>2021-08-09T12:53:07Z</time>
      </trkpt>
      <trkpt lat="49.16503" lon="4.04617">
        <ele>167.41</ele>
        <time>2021-08-09T12:53:16Z</time>
      </trkpt>
      <trkpt lat="49.16502" lon="4.0462">
        <ele>167.41</ele>
        <time>2021-08-09T12:53:17Z</time>
      </trkpt>
      <trkpt lat="49.16502" lon="4.04622">
        <ele>166.93</ele>
        <time>2021-08-09T12:53:18Z</time>
      </trkpt>
      <trkpt lat="49.16503" lon="4.04624">
        <ele>166.93</ele>
        <time>2021-08-09T12:53:19Z</time>
      </trkpt>
      <trkpt lat="49.16505" lon="4.04626">
        <ele>166.93</ele>
        <time>2021-08-09T12:53:20Z</time>
      </trkpt>
      <trkpt lat="49.16507" lon="4.04627">
        <ele>166.93</ele>
        <time>2021-08-09T12:53:21Z</time>
      </trkpt>
      <trkpt lat="49.16509" lon="4.04626">
        <ele>165.96</ele>
        <time>2021-08-09T12:53:22Z</time>
      </trkpt>
      <trkpt lat="49.16511" lon="4.04625">
        <ele>165.96</ele>
        <time>2021-08-09T12:53:23Z</time>
      </trkpt>
      <trkpt lat="49.16516" lon="4.04621">
        <ele>165.96</ele>
        <time>2021-08-09T12:53:28Z</time>
      </trkpt>
      <trkpt lat="49.16515" lon="4.04622">
        <ele>165.96</ele>
        <time>2021-08-09T12:53:38Z</time>
      </trkpt>
      <trkpt lat="49.16509" lon="4.04624">
        <ele>165.96</ele>
        <time>2021-08-09T12:53:51Z</time>
      </trkpt>
      <trkpt lat="49.16499" lon="4.04628">
        <ele>165.96</ele>
        <time>2021-08-09T12:54:16Z</time>
      </trkpt>
      <trkpt lat="49.16499" lon="4.0463">
        <ele>165.96</ele>
        <time>2021-08-09T12:54:31Z</time>
      </trkpt>
      <trkpt lat="49.16498" lon="4.0463">
        <ele>165.96</ele>
        <time>2021-08-09T12:54:46Z</time>
      </trkpt>
      <trkpt lat="49.16497" lon="4.0463">
        <ele>165.96</ele>
        <time>2021-08-09T12:55:03Z</time>
      </trkpt>
      <trkpt lat="49.16499" lon="4.04631">
        <ele>165.96</ele>
        <time>2021-08-09T12:55:18Z</time>
      </trkpt>
      <trkpt lat="49.165" lon="4.04633">
        <ele>165.96</ele>
        <time>2021-08-09T12:55:32Z</time>
      </trkpt>
      <trkpt lat="49.165" lon="4.04629">
        <ele>165.96</ele>
        <time>2021-08-09T12:55:46Z</time>
      </trkpt>
      <trkpt lat="49.16498" lon="4.04626">
        <ele>165.96</ele>
        <time>2021-08-09T12:56:03Z</time>
      </trkpt>
      <trkpt lat="49.16495" lon="4.04625">
        <ele>165.96</ele>
        <time>2021-08-09T12:56:18Z</time>
      </trkpt>
      <trkpt lat="49.16493" lon="4.04624">
        <ele>166.45</ele>
        <time>2021-08-09T12:56:34Z</time>
      </trkpt>
      <trkpt lat="49.16493" lon="4.04628">
        <ele>166.45</ele>
        <time>2021-08-09T12:56:52Z</time>
      </trkpt>
      <trkpt lat="49.16495" lon="4.04633">
        <ele>166.93</ele>
        <time>2021-08-09T12:57:07Z</time>
      </trkpt>
      <trkpt lat="49.16495" lon="4.04632">
        <ele>166.93</ele>
        <time>2021-08-09T12:57:21Z</time>
      </trkpt>
      <trkpt lat="49.16495" lon="4.0463">
        <ele>166.93</ele>
        <time>2021-08-09T12:57:40Z</time>
      </trkpt>
      <trkpt lat="49.16496" lon="4.04631">
        <ele>167.41</ele>
        <time>2021-08-09T12:57:53Z</time>
      </trkpt>
      <trkpt lat="49.16497" lon="4.04631">
        <ele>167.41</ele>
        <time>2021-08-09T12:58:03Z</time>
      </trkpt>
      <trkpt lat="49.16498" lon="4.04631">
        <ele>167.41</ele>
        <time>2021-08-09T12:58:17Z</time>
      </trkpt>
      <trkpt lat="49.165" lon="4.04629">
        <ele>167.41</ele>
        <time>2021-08-09T12:58:32Z</time>
      </trkpt>
      <trkpt lat="49.165" lon="4.04629">
        <ele>167.89</ele>
        <time>2021-08-09T12:58:50Z</time>
      </trkpt>
      <trkpt lat="49.165" lon="4.04629">
        <ele>167.89</ele>
        <time>2021-08-09T12:59:10Z</time>
      </trkpt>
      <trkpt lat="49.16501" lon="4.04625">
        <ele>168.37</ele>
        <time>2021-08-09T12:59:31Z</time>
      </trkpt>
      <trkpt lat="49.16501" lon="4.04629">
        <ele>168.37</ele>
        <time>2021-08-09T12:59:56Z</time>
      </trkpt>
      <trkpt lat="49.165" lon="4.04628">
        <ele>168.85</ele>
        <time>2021-08-09T13:00:12Z</time>
      </trkpt>
      <trkpt lat="49.165" lon="4.04628">
        <ele>168.85</ele>
        <time>2021-08-09T13:00:33Z</time>
      </trkpt>
      <trkpt lat="49.16501" lon="4.04625">
        <ele>168.85</ele>
        <time>2021-08-09T13:00:51Z</time>
      </trkpt>
      <trkpt lat="49.16503" lon="4.04624">
        <ele>168.85</ele>
        <time>2021-08-09T13:01:10Z</time>
      </trkpt>
      <trkpt lat="49.16503" lon="4.04628">
        <ele>169.33</ele>
        <time>2021-08-09T13:01:27Z</time>
      </trkpt>
      <trkpt lat="49.16502" lon="4.04628">
        <ele>169.33</ele>
        <time>2021-08-09T13:01:40Z</time>
      </trkpt>
      <trkpt lat="49.16502" lon="4.04629">
        <ele>169.33</ele>
        <time>2021-08-09T13:01:53Z</time>
      </trkpt>
      <trkpt lat="49.16503" lon="4.0463">
        <ele>169.33</ele>
        <time>2021-08-09T13:02:11Z</time>
      </trkpt>
      <trkpt lat="49.16504" lon="4.04629">
        <ele>169.33</ele>
        <time>2021-08-09T13:02:31Z</time>
      </trkpt>
      <trkpt lat="49.1651" lon="4.04621">
        <ele>169.33</ele>
        <time>2021-08-09T13:02:43Z</time>
      </trkpt>
      <trkpt lat="49.16513" lon="4.04622">
        <ele>169.33</ele>
        <time>2021-08-09T13:02:55Z</time>
      </trkpt>
      <trkpt lat="49.16514" lon="4.04624">
        <ele>169.33</ele>
        <time>2021-08-09T13:03:04Z</time>
      </trkpt>
      <trkpt lat="49.16516" lon="4.04624">
        <ele>169.81</ele>
        <time>2021-08-09T13:03:21Z</time>
      </trkpt>
      <trkpt lat="49.16519" lon="4.04624">
        <ele>170.77</ele>
        <time>2021-08-09T13:03:35Z</time>
      </trkpt>
      <trkpt lat="49.16522" lon="4.04625">
        <ele>170.77</ele>
        <time>2021-08-09T13:03:54Z</time>
      </trkpt>
      <trkpt lat="49.16521" lon="4.04624">
        <ele>171.25</ele>
        <time>2021-08-09T13:04:11Z</time>
      </trkpt>
      <trkpt lat="49.1652" lon="4.04625">
        <ele>171.25</ele>
        <time>2021-08-09T13:04:15Z</time>
      </trkpt>
      <trkpt lat="49.16519" lon="4.04627">
        <ele>171.25</ele>
        <time>2021-08-09T13:04:16Z</time>
      </trkpt>
      <trkpt lat="49.16518" lon="4.04629">
        <ele>171.25</ele>
        <time>2021-08-09T13:04:22Z</time>
      </trkpt>
      <trkpt lat="49.16516" lon="4.04631">
        <ele>171.25</ele>
        <time>2021-08-09T13:04:38Z</time>
      </trkpt>
      <trkpt lat="49.16517" lon="4.04636">
        <ele>171.25</ele>
        <time>2021-08-09T13:04:42Z</time>
      </trkpt>
      <trkpt lat="49.16519" lon="4.04638">
        <ele>171.25</ele>
        <time>2021-08-09T13:04:43Z</time>
      </trkpt>
      <trkpt lat="49.16523" lon="4.04642">
        <ele>169.81</ele>
        <time>2021-08-09T13:04:45Z</time>
      </trkpt>
      <trkpt lat="49.1654" lon="4.04655">
        <ele>168.85</ele>
        <time>2021-08-09T13:04:49Z</time>
      </trkpt>
      <trkpt lat="49.16544" lon="4.04659">
        <ele>168.85</ele>
        <time>2021-08-09T13:04:50Z</time>
      </trkpt>
      <trkpt lat="49.16561" lon="4.04667">
        <ele>167.89</ele>
        <time>2021-08-09T13:04:55Z</time>
      </trkpt>
      <trkpt lat="49.16562" lon="4.04665">
        <ele>167.89</ele>
        <time>2021-08-09T13:04:56Z</time>
      </trkpt>
      <trkpt lat="49.16561" lon="4.04664">
        <ele>168.85</ele>
        <time>2021-08-09T13:04:57Z</time>
      </trkpt>
      <trkpt lat="49.1656" lon="4.04663">
        <ele>168.85</ele>
        <time>2021-08-09T13:04:58Z</time>
      </trkpt>
      <trkpt lat="49.16559" lon="4.04662">
        <ele>168.85</ele>
        <time>2021-08-09T13:04:59Z</time>
      </trkpt>
      <trkpt lat="49.16558" lon="4.04662">
        <ele>168.85</ele>
        <time>2021-08-09T13:05:00Z</time>
      </trkpt>
      <trkpt lat="49.16556" lon="4.04662">
        <ele>168.85</ele>
        <time>2021-08-09T13:05:01Z</time>
      </trkpt>
      <trkpt lat="49.16554" lon="4.04661">
        <ele>168.85</ele>
        <time>2021-08-09T13:05:02Z</time>
      </trkpt>
      <trkpt lat="49.16552" lon="4.0466">
        <ele>168.85</ele>
        <time>2021-08-09T13:05:03Z</time>
      </trkpt>
      <trkpt lat="49.16529" lon="4.04645">
        <ele>168.85</ele>
        <time>2021-08-09T13:05:12Z</time>
      </trkpt>
      <trkpt lat="49.16514" lon="4.04637">
        <ele>169.81</ele>
        <time>2021-08-09T13:05:18Z</time>
      </trkpt>
      <trkpt lat="49.16512" lon="4.04638">
        <ele>169.81</ele>
        <time>2021-08-09T13:05:20Z</time>
      </trkpt>
      <trkpt lat="49.16511" lon="4.04641">
        <ele>169.81</ele>
        <time>2021-08-09T13:05:21Z</time>
      </trkpt>
      <trkpt lat="49.1651" lon="4.04644">
        <ele>169.81</ele>
        <time>2021-08-09T13:05:22Z</time>
      </trkpt>
      <trkpt lat="49.1651" lon="4.04647">
        <ele>169.81</ele>
        <time>2021-08-09T13:05:23Z</time>
      </trkpt>
      <trkpt lat="49.16509" lon="4.0465">
        <ele>169.81</ele>
        <time>2021-08-09T13:05:24Z</time>
      </trkpt>
      <trkpt lat="49.16512" lon="4.04673">
        <ele>169.81</ele>
        <time>2021-08-09T13:05:30Z</time>
      </trkpt>
      <trkpt lat="49.16515" lon="4.04685">
        <ele>168.37</ele>
        <time>2021-08-09T13:05:33Z</time>
      </trkpt>
      <trkpt lat="49.16516" lon="4.04703">
        <ele>167.41</ele>
        <time>2021-08-09T13:05:36Z</time>
      </trkpt>
      <trkpt lat="49.16516" lon="4.04708">
        <ele>166.93</ele>
        <time>2021-08-09T13:05:37Z</time>
      </trkpt>
      <trkpt lat="49.16515" lon="4.04714">
        <ele>166.45</ele>
        <time>2021-08-09T13:05:38Z</time>
      </trkpt>
      <trkpt lat="49.16512" lon="4.0473">
        <ele>166.45</ele>
        <time>2021-08-09T13:05:40Z</time>
      </trkpt>
      <trkpt lat="49.1651" lon="4.04735">
        <ele>165.96</ele>
        <time>2021-08-09T13:05:41Z</time>
      </trkpt>
      <trkpt lat="49.16506" lon="4.0475">
        <ele>165.96</ele>
        <time>2021-08-09T13:05:43Z</time>
      </trkpt>
      <trkpt lat="49.16499" lon="4.04816">
        <ele>164.52</ele>
        <time>2021-08-09T13:05:51Z</time>
      </trkpt>
      <trkpt lat="49.16498" lon="4.04838">
        <ele>164.52</ele>
        <time>2021-08-09T13:05:54Z</time>
      </trkpt>
      <trkpt lat="49.16497" lon="4.04844">
        <ele>164.52</ele>
        <time>2021-08-09T13:05:55Z</time>
      </trkpt>
      <trkpt lat="49.16496" lon="4.0485">
        <ele>165.96</ele>
        <time>2021-08-09T13:05:56Z</time>
      </trkpt>
      <trkpt lat="49.16496" lon="4.04856">
        <ele>165.96</ele>
        <time>2021-08-09T13:05:57Z</time>
      </trkpt>
      <trkpt lat="49.16495" lon="4.04861">
        <ele>165.96</ele>
        <time>2021-08-09T13:05:58Z</time>
      </trkpt>
      <trkpt lat="49.16488" lon="4.04894">
        <ele>167.89</ele>
        <time>2021-08-09T13:06:06Z</time>
      </trkpt>
      <trkpt lat="49.16483" lon="4.04905">
        <ele>167.89</ele>
        <time>2021-08-09T13:06:11Z</time>
      </trkpt>
      <trkpt lat="49.16481" lon="4.04906">
        <ele>168.37</ele>
        <time>2021-08-09T13:06:12Z</time>
      </trkpt>
      <trkpt lat="49.16479" lon="4.04907">
        <ele>168.85</ele>
        <time>2021-08-09T13:06:13Z</time>
      </trkpt>
      <trkpt lat="49.16478" lon="4.04907">
        <ele>168.85</ele>
        <time>2021-08-09T13:06:14Z</time>
      </trkpt>
      <trkpt lat="49.16476" lon="4.04906">
        <ele>168.85</ele>
        <time>2021-08-09T13:06:15Z</time>
      </trkpt>
      <trkpt lat="49.16474" lon="4.04906">
        <ele>168.85</ele>
        <time>2021-08-09T13:06:16Z</time>
      </trkpt>
      <trkpt lat="49.16456" lon="4.04898">
        <ele>169.81</ele>
        <time>2021-08-09T13:06:26Z</time>
      </trkpt>
      <trkpt lat="49.16434" lon="4.04894">
        <ele>171.73</ele>
        <time>2021-08-09T13:06:37Z</time>
      </trkpt>
      <trkpt lat="49.16417" lon="4.04892">
        <ele>172.21</ele>
        <time>2021-08-09T13:06:46Z</time>
      </trkpt>
      <trkpt lat="49.16414" lon="4.04892">
        <ele>172.21</ele>
        <time>2021-08-09T13:06:48Z</time>
      </trkpt>
      <trkpt lat="49.16412" lon="4.04892">
        <ele>172.69</ele>
        <time>2021-08-09T13:06:49Z</time>
      </trkpt>
      <trkpt lat="49.16397" lon="4.04895">
        <ele>174.62</ele>
        <time>2021-08-09T13:07:00Z</time>
      </trkpt>
      <trkpt lat="49.16386" lon="4.049">
        <ele>176.54</ele>
        <time>2021-08-09T13:07:08Z</time>
      </trkpt>
      <trkpt lat="49.16385" lon="4.04899">
        <ele>176.54</ele>
        <time>2021-08-09T13:07:09Z</time>
      </trkpt>
      <trkpt lat="49.16384" lon="4.049">
        <ele>176.06</ele>
        <time>2021-08-09T13:07:10Z</time>
      </trkpt>
      <trkpt lat="49.16382" lon="4.049">
        <ele>177.02</ele>
        <time>2021-08-09T13:07:11Z</time>
      </trkpt>
      <trkpt lat="49.16381" lon="4.04901">
        <ele>177.02</ele>
        <time>2021-08-09T13:07:12Z</time>
      </trkpt>
      <trkpt lat="49.16368" lon="4.04906">
        <ele>177.5</ele>
        <time>2021-08-09T13:07:22Z</time>
      </trkpt>
      <trkpt lat="49.16353" lon="4.04908">
        <ele>178.46</ele>
        <time>2021-08-09T13:07:32Z</time>
      </trkpt>
      <trkpt lat="49.16351" lon="4.04908">
        <ele>178.46</ele>
        <time>2021-08-09T13:07:34Z</time>
      </trkpt>
      <trkpt lat="49.16349" lon="4.04909">
        <ele>178.46</ele>
        <time>2021-08-09T13:07:35Z</time>
      </trkpt>
      <trkpt lat="49.16335" lon="4.04911">
        <ele>179.9</ele>
        <time>2021-08-09T13:07:46Z</time>
      </trkpt>
      <trkpt lat="49.1633" lon="4.04912">
        <ele>181.35</ele>
        <time>2021-08-09T13:07:50Z</time>
      </trkpt>
      <trkpt lat="49.16327" lon="4.04912">
        <ele>181.83</ele>
        <time>2021-08-09T13:07:52Z</time>
      </trkpt>
      <trkpt lat="49.16316" lon="4.04917">
        <ele>183.27</ele>
        <time>2021-08-09T13:08:00Z</time>
      </trkpt>
      <trkpt lat="49.16309" lon="4.04921">
        <ele>183.75</ele>
        <time>2021-08-09T13:08:06Z</time>
      </trkpt>
      <trkpt lat="49.16308" lon="4.04921">
        <ele>183.75</ele>
        <time>2021-08-09T13:08:07Z</time>
      </trkpt>
      <trkpt lat="49.16307" lon="4.04922">
        <ele>184.23</ele>
        <time>2021-08-09T13:08:08Z</time>
      </trkpt>
      <trkpt lat="49.16305" lon="4.04923">
        <ele>184.23</ele>
        <time>2021-08-09T13:08:09Z</time>
      </trkpt>
      <trkpt lat="49.16304" lon="4.04923">
        <ele>184.23</ele>
        <time>2021-08-09T13:08:10Z</time>
      </trkpt>
      <trkpt lat="49.16303" lon="4.04924">
        <ele>184.23</ele>
        <time>2021-08-09T13:08:11Z</time>
      </trkpt>
      <trkpt lat="49.16302" lon="4.04924">
        <ele>184.71</ele>
        <time>2021-08-09T13:08:12Z</time>
      </trkpt>
      <trkpt lat="49.16301" lon="4.04925">
        <ele>184.71</ele>
        <time>2021-08-09T13:08:13Z</time>
      </trkpt>
      <trkpt lat="49.16299" lon="4.04926">
        <ele>185.19</ele>
        <time>2021-08-09T13:08:14Z</time>
      </trkpt>
      <trkpt lat="49.16298" lon="4.04927">
        <ele>185.19</ele>
        <time>2021-08-09T13:08:15Z</time>
      </trkpt>
      <trkpt lat="49.16297" lon="4.04928">
        <ele>185.19</ele>
        <time>2021-08-09T13:08:16Z</time>
      </trkpt>
      <trkpt lat="49.16296" lon="4.04929">
        <ele>185.19</ele>
        <time>2021-08-09T13:08:17Z</time>
      </trkpt>
      <trkpt lat="49.16295" lon="4.0493">
        <ele>185.19</ele>
        <time>2021-08-09T13:08:18Z</time>
      </trkpt>
      <trkpt lat="49.16294" lon="4.0493">
        <ele>185.19</ele>
        <time>2021-08-09T13:08:19Z</time>
      </trkpt>
      <trkpt lat="49.16292" lon="4.04931">
        <ele>185.67</ele>
        <time>2021-08-09T13:08:20Z</time>
      </trkpt>
      <trkpt lat="49.16291" lon="4.04932">
        <ele>185.67</ele>
        <time>2021-08-09T13:08:21Z</time>
      </trkpt>
      <trkpt lat="49.16281" lon="4.0494">
        <ele>187.59</ele>
        <time>2021-08-09T13:08:29Z</time>
      </trkpt>
      <trkpt lat="49.16274" lon="4.04953">
        <ele>188.56</ele>
        <time>2021-08-09T13:08:36Z</time>
      </trkpt>
      <trkpt lat="49.16266" lon="4.04969">
        <ele>190</ele>
        <time>2021-08-09T13:08:45Z</time>
      </trkpt>
      <trkpt lat="49.16255" lon="4.04985">
        <ele>191.44</ele>
        <time>2021-08-09T13:08:53Z</time>
      </trkpt>
      <trkpt lat="49.16241" lon="4.05005">
        <ele>191.92</ele>
        <time>2021-08-09T13:09:03Z</time>
      </trkpt>
      <trkpt lat="49.16224" lon="4.05027">
        <ele>190</ele>
        <time>2021-08-09T13:09:11Z</time>
      </trkpt>
      <trkpt lat="49.16209" lon="4.05046">
        <ele>186.63</ele>
        <time>2021-08-09T13:09:15Z</time>
      </trkpt>
      <trkpt lat="49.16188" lon="4.05066">
        <ele>182.79</ele>
        <time>2021-08-09T13:09:19Z</time>
      </trkpt>
      <trkpt lat="49.16175" lon="4.05077">
        <ele>181.35</ele>
        <time>2021-08-09T13:09:21Z</time>
      </trkpt>
      <trkpt lat="49.16164" lon="4.0509">
        <ele>179.9</ele>
        <time>2021-08-09T13:09:23Z</time>
      </trkpt>
      <trkpt lat="49.16158" lon="4.05099">
        <ele>179.9</ele>
        <time>2021-08-09T13:09:24Z</time>
      </trkpt>
      <trkpt lat="49.16154" lon="4.05107">
        <ele>178.94</ele>
        <time>2021-08-09T13:09:25Z</time>
      </trkpt>
      <trkpt lat="49.16141" lon="4.05136">
        <ele>177.98</ele>
        <time>2021-08-09T13:09:28Z</time>
      </trkpt>
      <trkpt lat="49.16137" lon="4.05145">
        <ele>177.5</ele>
        <time>2021-08-09T13:09:29Z</time>
      </trkpt>
      <trkpt lat="49.16124" lon="4.05178">
        <ele>177.5</ele>
        <time>2021-08-09T13:09:33Z</time>
      </trkpt>
      <trkpt lat="49.16114" lon="4.05201">
        <ele>179.42</ele>
        <time>2021-08-09T13:09:37Z</time>
      </trkpt>
      <trkpt lat="49.16101" lon="4.05224">
        <ele>180.38</ele>
        <time>2021-08-09T13:09:44Z</time>
      </trkpt>
      <trkpt lat="49.16084" lon="4.05249">
        <ele>181.83</ele>
        <time>2021-08-09T13:09:53Z</time>
      </trkpt>
      <trkpt lat="49.16066" lon="4.05257">
        <ele>182.79</ele>
        <time>2021-08-09T13:10:01Z</time>
      </trkpt>
      <trkpt lat="49.16065" lon="4.05256">
        <ele>183.27</ele>
        <time>2021-08-09T13:10:02Z</time>
      </trkpt>
      <trkpt lat="49.16064" lon="4.05255">
        <ele>183.75</ele>
        <time>2021-08-09T13:10:03Z</time>
      </trkpt>
      <trkpt lat="49.16063" lon="4.05254">
        <ele>183.75</ele>
        <time>2021-08-09T13:10:04Z</time>
      </trkpt>
      <trkpt lat="49.16058" lon="4.05241">
        <ele>183.75</ele>
        <time>2021-08-09T13:10:12Z</time>
      </trkpt>
      <trkpt lat="49.16058" lon="4.05242">
        <ele>184.23</ele>
        <time>2021-08-09T13:10:13Z</time>
      </trkpt>
      <trkpt lat="49.16057" lon="4.05243">
        <ele>184.71</ele>
        <time>2021-08-09T13:10:14Z</time>
      </trkpt>
      <trkpt lat="49.16057" lon="4.05245">
        <ele>184.71</ele>
        <time>2021-08-09T13:10:15Z</time>
      </trkpt>
      <trkpt lat="49.16059" lon="4.05247">
        <ele>184.71</ele>
        <time>2021-08-09T13:10:16Z</time>
      </trkpt>
      <trkpt lat="49.1606" lon="4.0525">
        <ele>184.71</ele>
        <time>2021-08-09T13:10:17Z</time>
      </trkpt>
      <trkpt lat="49.16061" lon="4.05253">
        <ele>184.71</ele>
        <time>2021-08-09T13:10:18Z</time>
      </trkpt>
      <trkpt lat="49.16061" lon="4.05257">
        <ele>183.27</ele>
        <time>2021-08-09T13:10:19Z</time>
      </trkpt>
      <trkpt lat="49.1606" lon="4.05258">
        <ele>183.27</ele>
        <time>2021-08-09T13:10:20Z</time>
      </trkpt>
      <trkpt lat="49.16059" lon="4.05258">
        <ele>183.27</ele>
        <time>2021-08-09T13:10:21Z</time>
      </trkpt>
      <trkpt lat="49.16057" lon="4.05258">
        <ele>183.27</ele>
        <time>2021-08-09T13:10:22Z</time>
      </trkpt>
      <trkpt lat="49.16054" lon="4.05258">
        <ele>182.79</ele>
        <time>2021-08-09T13:10:23Z</time>
      </trkpt>
      <trkpt lat="49.16035" lon="4.05258">
        <ele>182.79</ele>
        <time>2021-08-09T13:10:31Z</time>
      </trkpt>
      <trkpt lat="49.16009" lon="4.05255">
        <ele>180.38</ele>
        <time>2021-08-09T13:10:37Z</time>
      </trkpt>
      <trkpt lat="49.15999" lon="4.05256">
        <ele>179.9</ele>
        <time>2021-08-09T13:10:39Z</time>
      </trkpt>
      <trkpt lat="49.15994" lon="4.05257">
        <ele>179.9</ele>
        <time>2021-08-09T13:10:40Z</time>
      </trkpt>
      <trkpt lat="49.15966" lon="4.05266">
        <ele>177.98</ele>
        <time>2021-08-09T13:10:45Z</time>
      </trkpt>
      <trkpt lat="49.15961" lon="4.05269">
        <ele>177.98</ele>
        <time>2021-08-09T13:10:46Z</time>
      </trkpt>
      <trkpt lat="49.15956" lon="4.05273">
        <ele>177.98</ele>
        <time>2021-08-09T13:10:47Z</time>
      </trkpt>
      <trkpt lat="49.15952" lon="4.05278">
        <ele>177.5</ele>
        <time>2021-08-09T13:10:48Z</time>
      </trkpt>
      <trkpt lat="49.15948" lon="4.05282">
        <ele>177.5</ele>
        <time>2021-08-09T13:10:49Z</time>
      </trkpt>
      <trkpt lat="49.15924" lon="4.05309">
        <ele>177.02</ele>
        <time>2021-08-09T13:10:56Z</time>
      </trkpt>
      <trkpt lat="49.15896" lon="4.05343">
        <ele>177.02</ele>
        <time>2021-08-09T13:11:06Z</time>
      </trkpt>
      <trkpt lat="49.15877" lon="4.05371">
        <ele>177.02</ele>
        <time>2021-08-09T13:11:13Z</time>
      </trkpt>
      <trkpt lat="49.15864" lon="4.05399">
        <ele>176.06</ele>
        <time>2021-08-09T13:11:19Z</time>
      </trkpt>
      <trkpt lat="49.15848" lon="4.05437">
        <ele>174.62</ele>
        <time>2021-08-09T13:11:24Z</time>
      </trkpt>
      <trkpt lat="49.15831" lon="4.05479">
        <ele>176.06</ele>
        <time>2021-08-09T13:11:31Z</time>
      </trkpt>
      <trkpt lat="49.15828" lon="4.05488">
        <ele>176.54</ele>
        <time>2021-08-09T13:11:34Z</time>
      </trkpt>
      <trkpt lat="49.1582" lon="4.05507">
        <ele>178.46</ele>
        <time>2021-08-09T13:11:41Z</time>
      </trkpt>
      <trkpt lat="49.1581" lon="4.05533">
        <ele>179.9</ele>
        <time>2021-08-09T13:11:49Z</time>
      </trkpt>
      <trkpt lat="49.15798" lon="4.0557">
        <ele>180.38</ele>
        <time>2021-08-09T13:11:58Z</time>
      </trkpt>
      <trkpt lat="49.15783" lon="4.0562">
        <ele>178.46</ele>
        <time>2021-08-09T13:12:08Z</time>
      </trkpt>
      <trkpt lat="49.15781" lon="4.05626">
        <ele>178.46</ele>
        <time>2021-08-09T13:12:09Z</time>
      </trkpt>
      <trkpt lat="49.15771" lon="4.05666">
        <ele>174.62</ele>
        <time>2021-08-09T13:12:14Z</time>
      </trkpt>
      <trkpt lat="49.1576" lon="4.05707">
        <ele>172.69</ele>
        <time>2021-08-09T13:12:18Z</time>
      </trkpt>
      <trkpt lat="49.15756" lon="4.05716">
        <ele>171.73</ele>
        <time>2021-08-09T13:12:19Z</time>
      </trkpt>
      <trkpt lat="49.15751" lon="4.05725">
        <ele>170.77</ele>
        <time>2021-08-09T13:12:20Z</time>
      </trkpt>
      <trkpt lat="49.15745" lon="4.05733">
        <ele>170.77</ele>
        <time>2021-08-09T13:12:21Z</time>
      </trkpt>
      <trkpt lat="49.1574" lon="4.05742">
        <ele>169.81</ele>
        <time>2021-08-09T13:12:22Z</time>
      </trkpt>
      <trkpt lat="49.1571" lon="4.05787">
        <ele>168.37</ele>
        <time>2021-08-09T13:12:28Z</time>
      </trkpt>
      <trkpt lat="49.15708" lon="4.05795">
        <ele>168.37</ele>
        <time>2021-08-09T13:12:29Z</time>
      </trkpt>
      <trkpt lat="49.15707" lon="4.05804">
        <ele>167.89</ele>
        <time>2021-08-09T13:12:30Z</time>
      </trkpt>
      <trkpt lat="49.15707" lon="4.05813">
        <ele>167.89</ele>
        <time>2021-08-09T13:12:31Z</time>
      </trkpt>
      <trkpt lat="49.15709" lon="4.05822">
        <ele>167.89</ele>
        <time>2021-08-09T13:12:32Z</time>
      </trkpt>
      <trkpt lat="49.15711" lon="4.0583">
        <ele>167.41</ele>
        <time>2021-08-09T13:12:33Z</time>
      </trkpt>
      <trkpt lat="49.15713" lon="4.05839">
        <ele>167.41</ele>
        <time>2021-08-09T13:12:34Z</time>
      </trkpt>
      <trkpt lat="49.15718" lon="4.05865">
        <ele>165.96</ele>
        <time>2021-08-09T13:12:37Z</time>
      </trkpt>
      <trkpt lat="49.15719" lon="4.05882">
        <ele>166.45</ele>
        <time>2021-08-09T13:12:39Z</time>
      </trkpt>
      <trkpt lat="49.15718" lon="4.0589">
        <ele>166.45</ele>
        <time>2021-08-09T13:12:40Z</time>
      </trkpt>
      <trkpt lat="49.15717" lon="4.05897">
        <ele>166.45</ele>
        <time>2021-08-09T13:12:41Z</time>
      </trkpt>
      <trkpt lat="49.15714" lon="4.05911">
        <ele>167.41</ele>
        <time>2021-08-09T13:12:43Z</time>
      </trkpt>
      <trkpt lat="49.15706" lon="4.05934">
        <ele>168.85</ele>
        <time>2021-08-09T13:12:47Z</time>
      </trkpt>
      <trkpt lat="49.15689" lon="4.05968">
        <ele>168.85</ele>
        <time>2021-08-09T13:12:54Z</time>
      </trkpt>
      <trkpt lat="49.15687" lon="4.05974">
        <ele>168.85</ele>
        <time>2021-08-09T13:12:55Z</time>
      </trkpt>
      <trkpt lat="49.15685" lon="4.0598">
        <ele>168.85</ele>
        <time>2021-08-09T13:12:56Z</time>
      </trkpt>
      <trkpt lat="49.15682" lon="4.05985">
        <ele>168.85</ele>
        <time>2021-08-09T13:12:57Z</time>
      </trkpt>
      <trkpt lat="49.15658" lon="4.06024">
        <ele>169.33</ele>
        <time>2021-08-09T13:13:06Z</time>
      </trkpt>
      <trkpt lat="49.15641" lon="4.06059">
        <ele>169.33</ele>
        <time>2021-08-09T13:13:14Z</time>
      </trkpt>
      <trkpt lat="49.15625" lon="4.06104">
        <ele>169.81</ele>
        <time>2021-08-09T13:13:23Z</time>
      </trkpt>
      <trkpt lat="49.15612" lon="4.06148">
        <ele>169.81</ele>
        <time>2021-08-09T13:13:31Z</time>
      </trkpt>
      <trkpt lat="49.15596" lon="4.06198">
        <ele>169.81</ele>
        <time>2021-08-09T13:13:40Z</time>
      </trkpt>
      <trkpt lat="49.15594" lon="4.06208">
        <ele>169.81</ele>
        <time>2021-08-09T13:13:43Z</time>
      </trkpt>
      <trkpt lat="49.15593" lon="4.06211">
        <ele>169.81</ele>
        <time>2021-08-09T13:13:50Z</time>
      </trkpt>
      <trkpt lat="49.15591" lon="4.06212">
        <ele>168.85</ele>
        <time>2021-08-09T13:13:57Z</time>
      </trkpt>
      <trkpt lat="49.15589" lon="4.06213">
        <ele>168.85</ele>
        <time>2021-08-09T13:14:00Z</time>
      </trkpt>
      <trkpt lat="49.15587" lon="4.06214">
        <ele>168.85</ele>
        <time>2021-08-09T13:14:01Z</time>
      </trkpt>
      <trkpt lat="49.15585" lon="4.06216">
        <ele>168.85</ele>
        <time>2021-08-09T13:14:02Z</time>
      </trkpt>
      <trkpt lat="49.15584" lon="4.06219">
        <ele>168.85</ele>
        <time>2021-08-09T13:14:03Z</time>
      </trkpt>
      <trkpt lat="49.15582" lon="4.06221">
        <ele>168.85</ele>
        <time>2021-08-09T13:14:04Z</time>
      </trkpt>
      <trkpt lat="49.1558" lon="4.06225">
        <ele>169.81</ele>
        <time>2021-08-09T13:14:05Z</time>
      </trkpt>
      <trkpt lat="49.15579" lon="4.06228">
        <ele>169.81</ele>
        <time>2021-08-09T13:14:06Z</time>
      </trkpt>
      <trkpt lat="49.15566" lon="4.06256">
        <ele>171.25</ele>
        <time>2021-08-09T13:14:14Z</time>
      </trkpt>
      <trkpt lat="49.15553" lon="4.06273">
        <ele>171.73</ele>
        <time>2021-08-09T13:14:20Z</time>
      </trkpt>
      <trkpt lat="49.15536" lon="4.06277">
        <ele>173.66</ele>
        <time>2021-08-09T13:14:28Z</time>
      </trkpt>
      <trkpt lat="49.15526" lon="4.06274">
        <ele>175.1</ele>
        <time>2021-08-09T13:14:36Z</time>
      </trkpt>
      <trkpt lat="49.15516" lon="4.0627">
        <ele>176.54</ele>
        <time>2021-08-09T13:14:45Z</time>
      </trkpt>
      <trkpt lat="49.1551" lon="4.06266">
        <ele>177.98</ele>
        <time>2021-08-09T13:14:52Z</time>
      </trkpt>
      <trkpt lat="49.15507" lon="4.06265">
        <ele>177.98</ele>
        <time>2021-08-09T13:14:54Z</time>
      </trkpt>
      <trkpt lat="49.15506" lon="4.06264">
        <ele>178.46</ele>
        <time>2021-08-09T13:14:55Z</time>
      </trkpt>
      <trkpt lat="49.15497" lon="4.06257">
        <ele>179.42</ele>
        <time>2021-08-09T13:15:03Z</time>
      </trkpt>
      <trkpt lat="49.15486" lon="4.0625">
        <ele>179.9</ele>
        <time>2021-08-09T13:15:11Z</time>
      </trkpt>
      <trkpt lat="49.15477" lon="4.06247">
        <ele>181.83</ele>
        <time>2021-08-09T13:15:20Z</time>
      </trkpt>
      <trkpt lat="49.15473" lon="4.06247">
        <ele>181.83</ele>
        <time>2021-08-09T13:15:23Z</time>
      </trkpt>
      <trkpt lat="49.15473" lon="4.06248">
        <ele>181.83</ele>
        <time>2021-08-09T13:15:24Z</time>
      </trkpt>
      <trkpt lat="49.15471" lon="4.06249">
        <ele>181.83</ele>
        <time>2021-08-09T13:15:25Z</time>
      </trkpt>
      <trkpt lat="49.1547" lon="4.0625">
        <ele>182.31</ele>
        <time>2021-08-09T13:15:26Z</time>
      </trkpt>
      <trkpt lat="49.15469" lon="4.06252">
        <ele>182.31</ele>
        <time>2021-08-09T13:15:27Z</time>
      </trkpt>
      <trkpt lat="49.15468" lon="4.06253">
        <ele>182.31</ele>
        <time>2021-08-09T13:15:28Z</time>
      </trkpt>
      <trkpt lat="49.15467" lon="4.06254">
        <ele>182.31</ele>
        <time>2021-08-09T13:15:29Z</time>
      </trkpt>
      <trkpt lat="49.15466" lon="4.06256">
        <ele>182.31</ele>
        <time>2021-08-09T13:15:30Z</time>
      </trkpt>
      <trkpt lat="49.15459" lon="4.06267">
        <ele>183.75</ele>
        <time>2021-08-09T13:15:37Z</time>
      </trkpt>
      <trkpt lat="49.15449" lon="4.06289">
        <ele>184.23</ele>
        <time>2021-08-09T13:15:44Z</time>
      </trkpt>
      <trkpt lat="49.15436" lon="4.06312">
        <ele>184.23</ele>
        <time>2021-08-09T13:15:51Z</time>
      </trkpt>
      <trkpt lat="49.15415" lon="4.06326">
        <ele>184.23</ele>
        <time>2021-08-09T13:15:58Z</time>
      </trkpt>
      <trkpt lat="49.15393" lon="4.06344">
        <ele>184.71</ele>
        <time>2021-08-09T13:16:06Z</time>
      </trkpt>
      <trkpt lat="49.15366" lon="4.06357">
        <ele>184.71</ele>
        <time>2021-08-09T13:16:15Z</time>
      </trkpt>
      <trkpt lat="49.15332" lon="4.06367">
        <ele>185.67</ele>
        <time>2021-08-09T13:16:26Z</time>
      </trkpt>
      <trkpt lat="49.15302" lon="4.06372">
        <ele>186.63</ele>
        <time>2021-08-09T13:16:36Z</time>
      </trkpt>
      <trkpt lat="49.15265" lon="4.06395">
        <ele>187.59</ele>
        <time>2021-08-09T13:16:49Z</time>
      </trkpt>
      <trkpt lat="49.15246" lon="4.06418">
        <ele>187.59</ele>
        <time>2021-08-09T13:16:56Z</time>
      </trkpt>
      <trkpt lat="49.15224" lon="4.06448">
        <ele>187.59</ele>
        <time>2021-08-09T13:17:05Z</time>
      </trkpt>
      <trkpt lat="49.15212" lon="4.06471">
        <ele>188.08</ele>
        <time>2021-08-09T13:17:12Z</time>
      </trkpt>
      <trkpt lat="49.1521" lon="4.06476">
        <ele>189.04</ele>
        <time>2021-08-09T13:17:15Z</time>
      </trkpt>
      <trkpt lat="49.15209" lon="4.06477">
        <ele>189.04</ele>
        <time>2021-08-09T13:17:16Z</time>
      </trkpt>
      <trkpt lat="49.15207" lon="4.06478">
        <ele>189.52</ele>
        <time>2021-08-09T13:17:17Z</time>
      </trkpt>
      <trkpt lat="49.15206" lon="4.0648">
        <ele>189.52</ele>
        <time>2021-08-09T13:17:18Z</time>
      </trkpt>
      <trkpt lat="49.15205" lon="4.0648">
        <ele>189.52</ele>
        <time>2021-08-09T13:17:19Z</time>
      </trkpt>
      <trkpt lat="49.15205" lon="4.06482">
        <ele>190</ele>
        <time>2021-08-09T13:17:20Z</time>
      </trkpt>
      <trkpt lat="49.15204" lon="4.06483">
        <ele>190</ele>
        <time>2021-08-09T13:17:21Z</time>
      </trkpt>
      <trkpt lat="49.15203" lon="4.06485">
        <ele>190</ele>
        <time>2021-08-09T13:17:22Z</time>
      </trkpt>
      <trkpt lat="49.15199" lon="4.06493">
        <ele>190.48</ele>
        <time>2021-08-09T13:17:29Z</time>
      </trkpt>
      <trkpt lat="49.15194" lon="4.06506">
        <ele>191.92</ele>
        <time>2021-08-09T13:17:38Z</time>
      </trkpt>
      <trkpt lat="49.15188" lon="4.06514">
        <ele>192.88</ele>
        <time>2021-08-09T13:17:46Z</time>
      </trkpt>
      <trkpt lat="49.15185" lon="4.06517">
        <ele>193.36</ele>
        <time>2021-08-09T13:17:50Z</time>
      </trkpt>
      <trkpt lat="49.15177" lon="4.06526">
        <ele>193.84</ele>
        <time>2021-08-09T13:17:56Z</time>
      </trkpt>
      <trkpt lat="49.15173" lon="4.06532">
        <ele>194.32</ele>
        <time>2021-08-09T13:18:00Z</time>
      </trkpt>
      <trkpt lat="49.1517" lon="4.06534">
        <ele>194.8</ele>
        <time>2021-08-09T13:18:01Z</time>
      </trkpt>
      <trkpt lat="49.15169" lon="4.06534">
        <ele>194.8</ele>
        <time>2021-08-09T13:18:02Z</time>
      </trkpt>
      <trkpt lat="49.15166" lon="4.06535">
        <ele>194.8</ele>
        <time>2021-08-09T13:18:03Z</time>
      </trkpt>
      <trkpt lat="49.15165" lon="4.06536">
        <ele>194.8</ele>
        <time>2021-08-09T13:18:04Z</time>
      </trkpt>
      <trkpt lat="49.15162" lon="4.06537">
        <ele>194.8</ele>
        <time>2021-08-09T13:18:05Z</time>
      </trkpt>
      <trkpt lat="49.15161" lon="4.06537">
        <ele>194.8</ele>
        <time>2021-08-09T13:18:06Z</time>
      </trkpt>
      <trkpt lat="49.1515" lon="4.06541">
        <ele>194.8</ele>
        <time>2021-08-09T13:18:12Z</time>
      </trkpt>
      <trkpt lat="49.15132" lon="4.06544">
        <ele>195.77</ele>
        <time>2021-08-09T13:18:19Z</time>
      </trkpt>
      <trkpt lat="49.15112" lon="4.06558">
        <ele>196.25</ele>
        <time>2021-08-09T13:18:27Z</time>
      </trkpt>
      <trkpt lat="49.15099" lon="4.06564">
        <ele>196.25</ele>
        <time>2021-08-09T13:18:33Z</time>
      </trkpt>
      <trkpt lat="49.15086" lon="4.06574">
        <ele>197.21</ele>
        <time>2021-08-09T13:18:39Z</time>
      </trkpt>
      <trkpt lat="49.15072" lon="4.06587">
        <ele>198.17</ele>
        <time>2021-08-09T13:18:45Z</time>
      </trkpt>
      <trkpt lat="49.1507" lon="4.06588">
        <ele>198.17</ele>
        <time>2021-08-09T13:18:46Z</time>
      </trkpt>
      <trkpt lat="49.15068" lon="4.06588">
        <ele>198.65</ele>
        <time>2021-08-09T13:18:47Z</time>
      </trkpt>
      <trkpt lat="49.15066" lon="4.06589">
        <ele>198.65</ele>
        <time>2021-08-09T13:18:48Z</time>
      </trkpt>
      <trkpt lat="49.15064" lon="4.06589">
        <ele>198.65</ele>
        <time>2021-08-09T13:18:49Z</time>
      </trkpt>
      <trkpt lat="49.15062" lon="4.0659">
        <ele>198.65</ele>
        <time>2021-08-09T13:18:50Z</time>
      </trkpt>
      <trkpt lat="49.15057" lon="4.06594">
        <ele>199.61</ele>
        <time>2021-08-09T13:18:53Z</time>
      </trkpt>
      <trkpt lat="49.15056" lon="4.06596">
        <ele>199.61</ele>
        <time>2021-08-09T13:18:54Z</time>
      </trkpt>
      <trkpt lat="49.15055" lon="4.06598">
        <ele>199.61</ele>
        <time>2021-08-09T13:18:55Z</time>
      </trkpt>
      <trkpt lat="49.15047" lon="4.0661">
        <ele>200.57</ele>
        <time>2021-08-09T13:19:01Z</time>
      </trkpt>
      <trkpt lat="49.15045" lon="4.0661">
        <ele>200.57</ele>
        <time>2021-08-09T13:19:03Z</time>
      </trkpt>
      <trkpt lat="49.1504" lon="4.06605">
        <ele>201.53</ele>
        <time>2021-08-09T13:19:10Z</time>
      </trkpt>
      <trkpt lat="49.15036" lon="4.06605">
        <ele>201.53</ele>
        <time>2021-08-09T13:19:17Z</time>
      </trkpt>
      <trkpt lat="49.15031" lon="4.06606">
        <ele>202.49</ele>
        <time>2021-08-09T13:19:25Z</time>
      </trkpt>
      <trkpt lat="49.15021" lon="4.06605">
        <ele>202.98</ele>
        <time>2021-08-09T13:19:34Z</time>
      </trkpt>
      <trkpt lat="49.15013" lon="4.06605">
        <ele>203.46</ele>
        <time>2021-08-09T13:19:40Z</time>
      </trkpt>
      <trkpt lat="49.15" lon="4.06603">
        <ele>204.42</ele>
        <time>2021-08-09T13:19:48Z</time>
      </trkpt>
      <trkpt lat="49.14991" lon="4.06601">
        <ele>205.38</ele>
        <time>2021-08-09T13:19:56Z</time>
      </trkpt>
      <trkpt lat="49.14985" lon="4.06605">
        <ele>207.3</ele>
        <time>2021-08-09T13:20:06Z</time>
      </trkpt>
      <trkpt lat="49.14979" lon="4.06607">
        <ele>207.78</ele>
        <time>2021-08-09T13:20:13Z</time>
      </trkpt>
      <trkpt lat="49.14971" lon="4.06605">
        <ele>208.26</ele>
        <time>2021-08-09T13:20:22Z</time>
      </trkpt>
      <trkpt lat="49.14966" lon="4.06605">
        <ele>209.22</ele>
        <time>2021-08-09T13:20:30Z</time>
      </trkpt>
      <trkpt lat="49.14963" lon="4.06606">
        <ele>209.7</ele>
        <time>2021-08-09T13:20:40Z</time>
      </trkpt>
      <trkpt lat="49.14954" lon="4.06608">
        <ele>210.67</ele>
        <time>2021-08-09T13:20:48Z</time>
      </trkpt>
      <trkpt lat="49.14943" lon="4.06611">
        <ele>211.63</ele>
        <time>2021-08-09T13:20:55Z</time>
      </trkpt>
      <trkpt lat="49.14933" lon="4.06612">
        <ele>213.07</ele>
        <time>2021-08-09T13:21:03Z</time>
      </trkpt>
      <trkpt lat="49.14927" lon="4.06612">
        <ele>213.55</ele>
        <time>2021-08-09T13:21:09Z</time>
      </trkpt>
      <trkpt lat="49.14916" lon="4.06611">
        <ele>214.51</ele>
        <time>2021-08-09T13:21:17Z</time>
      </trkpt>
      <trkpt lat="49.14908" lon="4.0661">
        <ele>215.47</ele>
        <time>2021-08-09T13:21:24Z</time>
      </trkpt>
      <trkpt lat="49.149" lon="4.0661">
        <ele>216.43</ele>
        <time>2021-08-09T13:21:32Z</time>
      </trkpt>
      <trkpt lat="49.14899" lon="4.0661">
        <ele>216.43</ele>
        <time>2021-08-09T13:21:33Z</time>
      </trkpt>
      <trkpt lat="49.14897" lon="4.06608">
        <ele>216.43</ele>
        <time>2021-08-09T13:21:35Z</time>
      </trkpt>
      <trkpt lat="49.1489" lon="4.06608">
        <ele>216.91</ele>
        <time>2021-08-09T13:21:43Z</time>
      </trkpt>
      <trkpt lat="49.14881" lon="4.06606">
        <ele>218.36</ele>
        <time>2021-08-09T13:21:51Z</time>
      </trkpt>
      <trkpt lat="49.14876" lon="4.06606">
        <ele>218.84</ele>
        <time>2021-08-09T13:21:57Z</time>
      </trkpt>
      <trkpt lat="49.14869" lon="4.06605">
        <ele>219.8</ele>
        <time>2021-08-09T13:22:04Z</time>
      </trkpt>
      <trkpt lat="49.14863" lon="4.0661">
        <ele>219.8</ele>
        <time>2021-08-09T13:22:10Z</time>
      </trkpt>
      <trkpt lat="49.14863" lon="4.06611">
        <ele>220.28</ele>
        <time>2021-08-09T13:22:11Z</time>
      </trkpt>
      <trkpt lat="49.14854" lon="4.06626">
        <ele>220.28</ele>
        <time>2021-08-09T13:22:20Z</time>
      </trkpt>
      <trkpt lat="49.14849" lon="4.06639">
        <ele>220.28</ele>
        <time>2021-08-09T13:22:27Z</time>
      </trkpt>
      <trkpt lat="49.14843" lon="4.0665">
        <ele>218.84</ele>
        <time>2021-08-09T13:22:34Z</time>
      </trkpt>
      <trkpt lat="49.14838" lon="4.06659">
        <ele>219.32</ele>
        <time>2021-08-09T13:22:40Z</time>
      </trkpt>
      <trkpt lat="49.14833" lon="4.06662">
        <ele>219.32</ele>
        <time>2021-08-09T13:22:48Z</time>
      </trkpt>
      <trkpt lat="49.14827" lon="4.06661">
        <ele>220.28</ele>
        <time>2021-08-09T13:23:00Z</time>
      </trkpt>
      <trkpt lat="49.14822" lon="4.06668">
        <ele>221.72</ele>
        <time>2021-08-09T13:23:07Z</time>
      </trkpt>
      <trkpt lat="49.14817" lon="4.06676">
        <ele>223.16</ele>
        <time>2021-08-09T13:23:16Z</time>
      </trkpt>
      <trkpt lat="49.14816" lon="4.06684">
        <ele>224.61</ele>
        <time>2021-08-09T13:23:25Z</time>
      </trkpt>
      <trkpt lat="49.14813" lon="4.06691">
        <ele>225.57</ele>
        <time>2021-08-09T13:23:33Z</time>
      </trkpt>
      <trkpt lat="49.1481" lon="4.06697">
        <ele>227.01</ele>
        <time>2021-08-09T13:23:41Z</time>
      </trkpt>
      <trkpt lat="49.14808" lon="4.06706">
        <ele>227.97</ele>
        <time>2021-08-09T13:23:49Z</time>
      </trkpt>
      <trkpt lat="49.14807" lon="4.06709">
        <ele>228.45</ele>
        <time>2021-08-09T13:24:01Z</time>
      </trkpt>
      <trkpt lat="49.148" lon="4.06707">
        <ele>228.45</ele>
        <time>2021-08-09T13:24:17Z</time>
      </trkpt>
      <trkpt lat="49.148" lon="4.06711">
        <ele>228.45</ele>
        <time>2021-08-09T13:24:31Z</time>
      </trkpt>
      <trkpt lat="49.14797" lon="4.06715">
        <ele>228.45</ele>
        <time>2021-08-09T13:24:43Z</time>
      </trkpt>
      <trkpt lat="49.14797" lon="4.06708">
        <ele>228.45</ele>
        <time>2021-08-09T13:24:46Z</time>
      </trkpt>
      <trkpt lat="49.14797" lon="4.06697">
        <ele>227.49</ele>
        <time>2021-08-09T13:24:53Z</time>
      </trkpt>
      <trkpt lat="49.14803" lon="4.06683">
        <ele>224.61</ele>
        <time>2021-08-09T13:25:00Z</time>
      </trkpt>
      <trkpt lat="49.14807" lon="4.06668">
        <ele>222.2</ele>
        <time>2021-08-09T13:25:06Z</time>
      </trkpt>
      <trkpt lat="49.14808" lon="4.06664">
        <ele>221.72</ele>
        <time>2021-08-09T13:25:07Z</time>
      </trkpt>
      <trkpt lat="49.1481" lon="4.06659">
        <ele>220.76</ele>
        <time>2021-08-09T13:25:09Z</time>
      </trkpt>
      <trkpt lat="49.14812" lon="4.06658">
        <ele>220.76</ele>
        <time>2021-08-09T13:25:16Z</time>
      </trkpt>
      <trkpt lat="49.14815" lon="4.06655">
        <ele>220.76</ele>
        <time>2021-08-09T13:25:27Z</time>
      </trkpt>
      <trkpt lat="49.1482" lon="4.06649">
        <ele>220.28</ele>
        <time>2021-08-09T13:25:33Z</time>
      </trkpt>
      <trkpt lat="49.14822" lon="4.06646">
        <ele>220.28</ele>
        <time>2021-08-09T13:25:35Z</time>
      </trkpt>
      <trkpt lat="49.14831" lon="4.06625">
        <ele>221.72</ele>
        <time>2021-08-09T13:25:44Z</time>
      </trkpt>
      <trkpt lat="49.14844" lon="4.06615">
        <ele>221.72</ele>
        <time>2021-08-09T13:25:51Z</time>
      </trkpt>
      <trkpt lat="49.14848" lon="4.06612">
        <ele>220.28</ele>
        <time>2021-08-09T13:25:54Z</time>
      </trkpt>
      <trkpt lat="49.14865" lon="4.06608">
        <ele>218.84</ele>
        <time>2021-08-09T13:26:03Z</time>
      </trkpt>
      <trkpt lat="49.14874" lon="4.06602">
        <ele>218.36</ele>
        <time>2021-08-09T13:26:10Z</time>
      </trkpt>
      <trkpt lat="49.14885" lon="4.06599">
        <ele>217.88</ele>
        <time>2021-08-09T13:26:23Z</time>
      </trkpt>
      <trkpt lat="49.14905" lon="4.06597">
        <ele>215.47</ele>
        <time>2021-08-09T13:26:29Z</time>
      </trkpt>
      <trkpt lat="49.14922" lon="4.06598">
        <ele>214.03</ele>
        <time>2021-08-09T13:26:34Z</time>
      </trkpt>
      <trkpt lat="49.14938" lon="4.06596">
        <ele>212.11</ele>
        <time>2021-08-09T13:26:40Z</time>
      </trkpt>
      <trkpt lat="49.14954" lon="4.06593">
        <ele>210.19</ele>
        <time>2021-08-09T13:26:46Z</time>
      </trkpt>
      <trkpt lat="49.14969" lon="4.06588">
        <ele>208.26</ele>
        <time>2021-08-09T13:26:52Z</time>
      </trkpt>
      <trkpt lat="49.14987" lon="4.06585">
        <ele>205.86</ele>
        <time>2021-08-09T13:26:58Z</time>
      </trkpt>
      <trkpt lat="49.15006" lon="4.06583">
        <ele>203.94</ele>
        <time>2021-08-09T13:27:04Z</time>
      </trkpt>
      <trkpt lat="49.15021" lon="4.06584">
        <ele>202.01</ele>
        <time>2021-08-09T13:27:10Z</time>
      </trkpt>
      <trkpt lat="49.15028" lon="4.06593">
        <ele>202.01</ele>
        <time>2021-08-09T13:27:14Z</time>
      </trkpt>
      <trkpt lat="49.1503" lon="4.06602">
        <ele>201.53</ele>
        <time>2021-08-09T13:27:17Z</time>
      </trkpt>
      <trkpt lat="49.15032" lon="4.06613">
        <ele>201.53</ele>
        <time>2021-08-09T13:27:22Z</time>
      </trkpt>
      <trkpt lat="49.15031" lon="4.06618">
        <ele>203.46</ele>
        <time>2021-08-09T13:27:24Z</time>
      </trkpt>
      <trkpt lat="49.1503" lon="4.0663">
        <ele>204.9</ele>
        <time>2021-08-09T13:27:32Z</time>
      </trkpt>
      <trkpt lat="49.15026" lon="4.06638">
        <ele>205.86</ele>
        <time>2021-08-09T13:27:38Z</time>
      </trkpt>
      <trkpt lat="49.15017" lon="4.06648">
        <ele>206.34</ele>
        <time>2021-08-09T13:27:47Z</time>
      </trkpt>
      <trkpt lat="49.15017" lon="4.0665">
        <ele>206.82</ele>
        <time>2021-08-09T13:27:49Z</time>
      </trkpt>
      <trkpt lat="49.15014" lon="4.06658">
        <ele>207.78</ele>
        <time>2021-08-09T13:27:56Z</time>
      </trkpt>
      <trkpt lat="49.15008" lon="4.06663">
        <ele>208.74</ele>
        <time>2021-08-09T13:28:02Z</time>
      </trkpt>
      <trkpt lat="49.15003" lon="4.06671">
        <ele>209.22</ele>
        <time>2021-08-09T13:28:09Z</time>
      </trkpt>
      <trkpt lat="49.14995" lon="4.06676">
        <ele>210.67</ele>
        <time>2021-08-09T13:28:17Z</time>
      </trkpt>
      <trkpt lat="49.14992" lon="4.06679">
        <ele>211.15</ele>
        <time>2021-08-09T13:28:20Z</time>
      </trkpt>
      <trkpt lat="49.14988" lon="4.06685">
        <ele>211.63</ele>
        <time>2021-08-09T13:28:27Z</time>
      </trkpt>
      <trkpt lat="49.14985" lon="4.0669">
        <ele>213.07</ele>
        <time>2021-08-09T13:28:33Z</time>
      </trkpt>
      <trkpt lat="49.1498" lon="4.06697">
        <ele>213.55</ele>
        <time>2021-08-09T13:28:40Z</time>
      </trkpt>
      <trkpt lat="49.14977" lon="4.06705">
        <ele>214.99</ele>
        <time>2021-08-09T13:28:48Z</time>
      </trkpt>
      <trkpt lat="49.14974" lon="4.06712">
        <ele>215.95</ele>
        <time>2021-08-09T13:28:56Z</time>
      </trkpt>
      <trkpt lat="49.14969" lon="4.06717">
        <ele>217.4</ele>
        <time>2021-08-09T13:29:04Z</time>
      </trkpt>
      <trkpt lat="49.14959" lon="4.06721">
        <ele>218.36</ele>
        <time>2021-08-09T13:29:12Z</time>
      </trkpt>
      <trkpt lat="49.14954" lon="4.06721">
        <ele>218.36</ele>
        <time>2021-08-09T13:29:19Z</time>
      </trkpt>
      <trkpt lat="49.14949" lon="4.06726">
        <ele>219.32</ele>
        <time>2021-08-09T13:29:25Z</time>
      </trkpt>
      <trkpt lat="49.14941" lon="4.06737">
        <ele>220.76</ele>
        <time>2021-08-09T13:29:35Z</time>
      </trkpt>
      <trkpt lat="49.14934" lon="4.06748">
        <ele>222.2</ele>
        <time>2021-08-09T13:29:44Z</time>
      </trkpt>
      <trkpt lat="49.14932" lon="4.06757">
        <ele>223.16</ele>
        <time>2021-08-09T13:29:51Z</time>
      </trkpt>
      <trkpt lat="49.14931" lon="4.06768">
        <ele>224.12</ele>
        <time>2021-08-09T13:30:00Z</time>
      </trkpt>
      <trkpt lat="49.14932" lon="4.06783">
        <ele>225.09</ele>
        <time>2021-08-09T13:30:09Z</time>
      </trkpt>
      <trkpt lat="49.1493" lon="4.06793">
        <ele>226.05</ele>
        <time>2021-08-09T13:30:17Z</time>
      </trkpt>
      <trkpt lat="49.14925" lon="4.06801">
        <ele>227.01</ele>
        <time>2021-08-09T13:30:26Z</time>
      </trkpt>
      <trkpt lat="49.14924" lon="4.0681">
        <ele>228.45</ele>
        <time>2021-08-09T13:30:35Z</time>
      </trkpt>
      <trkpt lat="49.14924" lon="4.06817">
        <ele>229.89</ele>
        <time>2021-08-09T13:30:42Z</time>
      </trkpt>
      <trkpt lat="49.14922" lon="4.06825">
        <ele>231.81</ele>
        <time>2021-08-09T13:30:51Z</time>
      </trkpt>
      <trkpt lat="49.14919" lon="4.06835">
        <ele>233.26</ele>
        <time>2021-08-09T13:31:00Z</time>
      </trkpt>
      <trkpt lat="49.1492" lon="4.06845">
        <ele>234.22</ele>
        <time>2021-08-09T13:31:08Z</time>
      </trkpt>
      <trkpt lat="49.14917" lon="4.06856">
        <ele>234.7</ele>
        <time>2021-08-09T13:31:17Z</time>
      </trkpt>
      <trkpt lat="49.14917" lon="4.06866">
        <ele>235.66</ele>
        <time>2021-08-09T13:31:24Z</time>
      </trkpt>
      <trkpt lat="49.14918" lon="4.06879">
        <ele>237.1</ele>
        <time>2021-08-09T13:31:34Z</time>
      </trkpt>
      <trkpt lat="49.14918" lon="4.06888">
        <ele>238.54</ele>
        <time>2021-08-09T13:31:41Z</time>
      </trkpt>
      <trkpt lat="49.14917" lon="4.06898">
        <ele>239.02</ele>
        <time>2021-08-09T13:31:49Z</time>
      </trkpt>
      <trkpt lat="49.14914" lon="4.06902">
        <ele>239.51</ele>
        <time>2021-08-09T13:31:56Z</time>
      </trkpt>
      <trkpt lat="49.14908" lon="4.06908">
        <ele>240.47</ele>
        <time>2021-08-09T13:32:01Z</time>
      </trkpt>
      <trkpt lat="49.14904" lon="4.06913">
        <ele>240.47</ele>
        <time>2021-08-09T13:32:05Z</time>
      </trkpt>
      <trkpt lat="49.14901" lon="4.06917">
        <ele>241.43</ele>
        <time>2021-08-09T13:32:12Z</time>
      </trkpt>
      <trkpt lat="49.149" lon="4.06922">
        <ele>241.43</ele>
        <time>2021-08-09T13:32:19Z</time>
      </trkpt>
      <trkpt lat="49.14897" lon="4.06933">
        <ele>241.91</ele>
        <time>2021-08-09T13:32:25Z</time>
      </trkpt>
      <trkpt lat="49.14893" lon="4.06946">
        <ele>243.35</ele>
        <time>2021-08-09T13:32:33Z</time>
      </trkpt>
      <trkpt lat="49.14891" lon="4.06967">
        <ele>244.79</ele>
        <time>2021-08-09T13:32:42Z</time>
      </trkpt>
      <trkpt lat="49.14889" lon="4.06987">
        <ele>245.75</ele>
        <time>2021-08-09T13:32:50Z</time>
      </trkpt>
      <trkpt lat="49.14886" lon="4.06996">
        <ele>246.23</ele>
        <time>2021-08-09T13:32:55Z</time>
      </trkpt>
      <trkpt lat="49.14879" lon="4.07005">
        <ele>247.2</ele>
        <time>2021-08-09T13:33:03Z</time>
      </trkpt>
      <trkpt lat="49.1487" lon="4.07014">
        <ele>248.16</ele>
        <time>2021-08-09T13:33:10Z</time>
      </trkpt>
      <trkpt lat="49.14868" lon="4.07015">
        <ele>248.16</ele>
        <time>2021-08-09T13:33:11Z</time>
      </trkpt>
      <trkpt lat="49.14863" lon="4.07023">
        <ele>249.12</ele>
        <time>2021-08-09T13:33:15Z</time>
      </trkpt>
      <trkpt lat="49.14855" lon="4.07038">
        <ele>250.08</ele>
        <time>2021-08-09T13:33:22Z</time>
      </trkpt>
      <trkpt lat="49.14855" lon="4.0704">
        <ele>250.08</ele>
        <time>2021-08-09T13:33:23Z</time>
      </trkpt>
      <trkpt lat="49.14847" lon="4.07051">
        <ele>251.52</ele>
        <time>2021-08-09T13:33:30Z</time>
      </trkpt>
      <trkpt lat="49.1484" lon="4.07062">
        <ele>253.44</ele>
        <time>2021-08-09T13:33:38Z</time>
      </trkpt>
      <trkpt lat="49.14834" lon="4.07072">
        <ele>255.37</ele>
        <time>2021-08-09T13:33:46Z</time>
      </trkpt>
      <trkpt lat="49.14831" lon="4.07079">
        <ele>256.81</ele>
        <time>2021-08-09T13:33:52Z</time>
      </trkpt>
      <trkpt lat="49.14821" lon="4.07092">
        <ele>258.25</ele>
        <time>2021-08-09T13:34:00Z</time>
      </trkpt>
      <trkpt lat="49.1482" lon="4.07095">
        <ele>258.73</ele>
        <time>2021-08-09T13:34:02Z</time>
      </trkpt>
      <trkpt lat="49.1482" lon="4.07102">
        <ele>259.21</ele>
        <time>2021-08-09T13:34:06Z</time>
      </trkpt>
      <trkpt lat="49.14822" lon="4.07117">
        <ele>260.17</ele>
        <time>2021-08-09T13:34:14Z</time>
      </trkpt>
      <trkpt lat="49.14824" lon="4.07137">
        <ele>261.62</ele>
        <time>2021-08-09T13:34:24Z</time>
      </trkpt>
      <trkpt lat="49.14827" lon="4.07149">
        <ele>262.58</ele>
        <time>2021-08-09T13:34:30Z</time>
      </trkpt>
      <trkpt lat="49.14825" lon="4.07163">
        <ele>263.06</ele>
        <time>2021-08-09T13:34:37Z</time>
      </trkpt>
      <trkpt lat="49.14821" lon="4.07177">
        <ele>264.98</ele>
        <time>2021-08-09T13:34:46Z</time>
      </trkpt>
      <trkpt lat="49.14818" lon="4.0719">
        <ele>266.42</ele>
        <time>2021-08-09T13:34:54Z</time>
      </trkpt>
      <trkpt lat="49.14817" lon="4.072">
        <ele>268.35</ele>
        <time>2021-08-09T13:35:01Z</time>
      </trkpt>
      <trkpt lat="49.14812" lon="4.0721">
        <ele>269.31</ele>
        <time>2021-08-09T13:35:06Z</time>
      </trkpt>
      <trkpt lat="49.14804" lon="4.07221">
        <ele>270.27</ele>
        <time>2021-08-09T13:35:13Z</time>
      </trkpt>
      <trkpt lat="49.14797" lon="4.07232">
        <ele>271.71</ele>
        <time>2021-08-09T13:35:22Z</time>
      </trkpt>
      <trkpt lat="49.14792" lon="4.07238">
        <ele>273.15</ele>
        <time>2021-08-09T13:35:28Z</time>
      </trkpt>
      <trkpt lat="49.14781" lon="4.07245">
        <ele>274.11</ele>
        <time>2021-08-09T13:35:37Z</time>
      </trkpt>
      <trkpt lat="49.14771" lon="4.07252">
        <ele>275.56</ele>
        <time>2021-08-09T13:35:45Z</time>
      </trkpt>
      <trkpt lat="49.14763" lon="4.07258">
        <ele>276.52</ele>
        <time>2021-08-09T13:35:53Z</time>
      </trkpt>
      <trkpt lat="49.14753" lon="4.07268">
        <ele>277.96</ele>
        <time>2021-08-09T13:36:01Z</time>
      </trkpt>
      <trkpt lat="49.14746" lon="4.07279">
        <ele>279.4</ele>
        <time>2021-08-09T13:36:10Z</time>
      </trkpt>
      <trkpt lat="49.14735" lon="4.07286">
        <ele>280.36</ele>
        <time>2021-08-09T13:36:18Z</time>
      </trkpt>
      <trkpt lat="49.14723" lon="4.07299">
        <ele>280.84</ele>
        <time>2021-08-09T13:36:25Z</time>
      </trkpt>
      <trkpt lat="49.14713" lon="4.07309">
        <ele>281.32</ele>
        <time>2021-08-09T13:36:30Z</time>
      </trkpt>
      <trkpt lat="49.14699" lon="4.07325">
        <ele>281.32</ele>
        <time>2021-08-09T13:36:37Z</time>
      </trkpt>
      <trkpt lat="49.14686" lon="4.07344">
        <ele>281.8</ele>
        <time>2021-08-09T13:36:44Z</time>
      </trkpt>
      <trkpt lat="49.14683" lon="4.07352">
        <ele>281.8</ele>
        <time>2021-08-09T13:36:46Z</time>
      </trkpt>
      <trkpt lat="49.14674" lon="4.0738">
        <ele>282.77</ele>
        <time>2021-08-09T13:36:53Z</time>
      </trkpt>
      <trkpt lat="49.14663" lon="4.07408">
        <ele>283.73</ele>
        <time>2021-08-09T13:37:00Z</time>
      </trkpt>
      <trkpt lat="49.14649" lon="4.07422">
        <ele>284.21</ele>
        <time>2021-08-09T13:37:07Z</time>
      </trkpt>
      <trkpt lat="49.14635" lon="4.07433">
        <ele>284.21</ele>
        <time>2021-08-09T13:37:14Z</time>
      </trkpt>
      <trkpt lat="49.14631" lon="4.07452">
        <ele>284.21</ele>
        <time>2021-08-09T13:37:22Z</time>
      </trkpt>
      <trkpt lat="49.14621" lon="4.07475">
        <ele>284.21</ele>
        <time>2021-08-09T13:37:29Z</time>
      </trkpt>
      <trkpt lat="49.14609" lon="4.07497">
        <ele>284.21</ele>
        <time>2021-08-09T13:37:36Z</time>
      </trkpt>
      <trkpt lat="49.14606" lon="4.075">
        <ele>284.69</ele>
        <time>2021-08-09T13:37:38Z</time>
      </trkpt>
      <trkpt lat="49.14604" lon="4.07501">
        <ele>284.69</ele>
        <time>2021-08-09T13:37:39Z</time>
      </trkpt>
      <trkpt lat="49.14602" lon="4.07502">
        <ele>284.69</ele>
        <time>2021-08-09T13:37:40Z</time>
      </trkpt>
      <trkpt lat="49.146" lon="4.07504">
        <ele>284.69</ele>
        <time>2021-08-09T13:37:41Z</time>
      </trkpt>
      <trkpt lat="49.14598" lon="4.07507">
        <ele>285.17</ele>
        <time>2021-08-09T13:37:42Z</time>
      </trkpt>
      <trkpt lat="49.14596" lon="4.07509">
        <ele>285.17</ele>
        <time>2021-08-09T13:37:43Z</time>
      </trkpt>
      <trkpt lat="49.14579" lon="4.07538">
        <ele>285.65</ele>
        <time>2021-08-09T13:37:51Z</time>
      </trkpt>
      <trkpt lat="49.14572" lon="4.07553">
        <ele>286.13</ele>
        <time>2021-08-09T13:37:56Z</time>
      </trkpt>
      <trkpt lat="49.14567" lon="4.07559">
        <ele>286.13</ele>
        <time>2021-08-09T13:37:59Z</time>
      </trkpt>
      <trkpt lat="49.14566" lon="4.07561">
        <ele>286.13</ele>
        <time>2021-08-09T13:38:00Z</time>
      </trkpt>
      <trkpt lat="49.14553" lon="4.07567">
        <ele>286.61</ele>
        <time>2021-08-09T13:38:06Z</time>
      </trkpt>
      <trkpt lat="49.14531" lon="4.07582">
        <ele>287.09</ele>
        <time>2021-08-09T13:38:14Z</time>
      </trkpt>
      <trkpt lat="49.14508" lon="4.07595">
        <ele>287.09</ele>
        <time>2021-08-09T13:38:22Z</time>
      </trkpt>
      <trkpt lat="49.14506" lon="4.07596">
        <ele>286.61</ele>
        <time>2021-08-09T13:38:23Z</time>
      </trkpt>
      <trkpt lat="49.14504" lon="4.07597">
        <ele>286.61</ele>
        <time>2021-08-09T13:38:24Z</time>
      </trkpt>
      <trkpt lat="49.14488" lon="4.07606">
        <ele>286.61</ele>
        <time>2021-08-09T13:38:30Z</time>
      </trkpt>
      <trkpt lat="49.14471" lon="4.07617">
        <ele>286.61</ele>
        <time>2021-08-09T13:38:37Z</time>
      </trkpt>
      <trkpt lat="49.14451" lon="4.07629">
        <ele>286.61</ele>
        <time>2021-08-09T13:38:46Z</time>
      </trkpt>
      <trkpt lat="49.14437" lon="4.0764">
        <ele>286.61</ele>
        <time>2021-08-09T13:38:53Z</time>
      </trkpt>
      <trkpt lat="49.14427" lon="4.07652">
        <ele>286.61</ele>
        <time>2021-08-09T13:38:59Z</time>
      </trkpt>
      <trkpt lat="49.14416" lon="4.07672">
        <ele>286.61</ele>
        <time>2021-08-09T13:39:06Z</time>
      </trkpt>
      <trkpt lat="49.1442" lon="4.07684">
        <ele>286.61</ele>
        <time>2021-08-09T13:39:10Z</time>
      </trkpt>
      <trkpt lat="49.14433" lon="4.07705">
        <ele>286.61</ele>
        <time>2021-08-09T13:39:17Z</time>
      </trkpt>
      <trkpt lat="49.14434" lon="4.07741">
        <ele>285.17</ele>
        <time>2021-08-09T13:39:24Z</time>
      </trkpt>
      <trkpt lat="49.14434" lon="4.07746">
        <ele>285.17</ele>
        <time>2021-08-09T13:39:25Z</time>
      </trkpt>
      <trkpt lat="49.14435" lon="4.07776">
        <ele>285.17</ele>
        <time>2021-08-09T13:39:31Z</time>
      </trkpt>
      <trkpt lat="49.14433" lon="4.07804">
        <ele>284.69</ele>
        <time>2021-08-09T13:39:38Z</time>
      </trkpt>
      <trkpt lat="49.14431" lon="4.07839">
        <ele>285.65</ele>
        <time>2021-08-09T13:39:45Z</time>
      </trkpt>
      <trkpt lat="49.14424" lon="4.07865">
        <ele>285.65</ele>
        <time>2021-08-09T13:39:52Z</time>
      </trkpt>
      <trkpt lat="49.1442" lon="4.07889">
        <ele>285.65</ele>
        <time>2021-08-09T13:39:58Z</time>
      </trkpt>
      <trkpt lat="49.14419" lon="4.07897">
        <ele>284.69</ele>
        <time>2021-08-09T13:40:00Z</time>
      </trkpt>
      <trkpt lat="49.14421" lon="4.07911">
        <ele>284.21</ele>
        <time>2021-08-09T13:40:03Z</time>
      </trkpt>
      <trkpt lat="49.14423" lon="4.07914">
        <ele>284.21</ele>
        <time>2021-08-09T13:40:04Z</time>
      </trkpt>
      <trkpt lat="49.14425" lon="4.07918">
        <ele>284.21</ele>
        <time>2021-08-09T13:40:05Z</time>
      </trkpt>
      <trkpt lat="49.14426" lon="4.07922">
        <ele>284.21</ele>
        <time>2021-08-09T13:40:06Z</time>
      </trkpt>
      <trkpt lat="49.14427" lon="4.07926">
        <ele>284.21</ele>
        <time>2021-08-09T13:40:07Z</time>
      </trkpt>
      <trkpt lat="49.14427" lon="4.0793">
        <ele>284.21</ele>
        <time>2021-08-09T13:40:08Z</time>
      </trkpt>
      <trkpt lat="49.14426" lon="4.07934">
        <ele>284.21</ele>
        <time>2021-08-09T13:40:09Z</time>
      </trkpt>
      <trkpt lat="49.14425" lon="4.07938">
        <ele>284.21</ele>
        <time>2021-08-09T13:40:10Z</time>
      </trkpt>
      <trkpt lat="49.14428" lon="4.07959">
        <ele>284.21</ele>
        <time>2021-08-09T13:40:15Z</time>
      </trkpt>
      <trkpt lat="49.1443" lon="4.07961">
        <ele>284.21</ele>
        <time>2021-08-09T13:40:16Z</time>
      </trkpt>
      <trkpt lat="49.14432" lon="4.07963">
        <ele>283.73</ele>
        <time>2021-08-09T13:40:17Z</time>
      </trkpt>
      <trkpt lat="49.14435" lon="4.07965">
        <ele>283.73</ele>
        <time>2021-08-09T13:40:18Z</time>
      </trkpt>
      <trkpt lat="49.14437" lon="4.07967">
        <ele>283.73</ele>
        <time>2021-08-09T13:40:19Z</time>
      </trkpt>
      <trkpt lat="49.1444" lon="4.07968">
        <ele>283.73</ele>
        <time>2021-08-09T13:40:20Z</time>
      </trkpt>
      <trkpt lat="49.14442" lon="4.07969">
        <ele>283.73</ele>
        <time>2021-08-09T13:40:21Z</time>
      </trkpt>
      <trkpt lat="49.14444" lon="4.07969">
        <ele>283.73</ele>
        <time>2021-08-09T13:40:22Z</time>
      </trkpt>
      <trkpt lat="49.14445" lon="4.0797">
        <ele>283.73</ele>
        <time>2021-08-09T13:40:23Z</time>
      </trkpt>
      <trkpt lat="49.14446" lon="4.07973">
        <ele>283.73</ele>
        <time>2021-08-09T13:40:24Z</time>
      </trkpt>
      <trkpt lat="49.14445" lon="4.07977">
        <ele>283.73</ele>
        <time>2021-08-09T13:40:25Z</time>
      </trkpt>
      <trkpt lat="49.14445" lon="4.07979">
        <ele>283.73</ele>
        <time>2021-08-09T13:40:26Z</time>
      </trkpt>
      <trkpt lat="49.14444" lon="4.07981">
        <ele>283.73</ele>
        <time>2021-08-09T13:40:27Z</time>
      </trkpt>
      <trkpt lat="49.14444" lon="4.07986">
        <ele>283.73</ele>
        <time>2021-08-09T13:40:29Z</time>
      </trkpt>
      <trkpt lat="49.14444" lon="4.07989">
        <ele>283.73</ele>
        <time>2021-08-09T13:40:30Z</time>
      </trkpt>
      <trkpt lat="49.14445" lon="4.07992">
        <ele>283.73</ele>
        <time>2021-08-09T13:40:31Z</time>
      </trkpt>
      <trkpt lat="49.14445" lon="4.07996">
        <ele>283.73</ele>
        <time>2021-08-09T13:40:32Z</time>
      </trkpt>
      <trkpt lat="49.14445" lon="4.08001">
        <ele>283.25</ele>
        <time>2021-08-09T13:40:33Z</time>
      </trkpt>
      <trkpt lat="49.14445" lon="4.08005">
        <ele>283.25</ele>
        <time>2021-08-09T13:40:34Z</time>
      </trkpt>
      <trkpt lat="49.14445" lon="4.0801">
        <ele>283.25</ele>
        <time>2021-08-09T13:40:35Z</time>
      </trkpt>
      <trkpt lat="49.14445" lon="4.08015">
        <ele>283.25</ele>
        <time>2021-08-09T13:40:36Z</time>
      </trkpt>
      <trkpt lat="49.14445" lon="4.0802">
        <ele>283.25</ele>
        <time>2021-08-09T13:40:37Z</time>
      </trkpt>
      <trkpt lat="49.14446" lon="4.08023">
        <ele>283.25</ele>
        <time>2021-08-09T13:40:38Z</time>
      </trkpt>
      <trkpt lat="49.14446" lon="4.08025">
        <ele>283.25</ele>
        <time>2021-08-09T13:40:39Z</time>
      </trkpt>
      <trkpt lat="49.14446" lon="4.08028">
        <ele>283.25</ele>
        <time>2021-08-09T13:40:40Z</time>
      </trkpt>
      <trkpt lat="49.14445" lon="4.0803">
        <ele>283.25</ele>
        <time>2021-08-09T13:40:41Z</time>
      </trkpt>
      <trkpt lat="49.14444" lon="4.08033">
        <ele>283.25</ele>
        <time>2021-08-09T13:40:42Z</time>
      </trkpt>
      <trkpt lat="49.14444" lon="4.08036">
        <ele>283.25</ele>
        <time>2021-08-09T13:40:43Z</time>
      </trkpt>
      <trkpt lat="49.14444" lon="4.0804">
        <ele>283.25</ele>
        <time>2021-08-09T13:40:44Z</time>
      </trkpt>
      <trkpt lat="49.14444" lon="4.08045">
        <ele>283.25</ele>
        <time>2021-08-09T13:40:45Z</time>
      </trkpt>
      <trkpt lat="49.14444" lon="4.08067">
        <ele>282.77</ele>
        <time>2021-08-09T13:40:51Z</time>
      </trkpt>
      <trkpt lat="49.14443" lon="4.08085">
        <ele>282.77</ele>
        <time>2021-08-09T13:40:56Z</time>
      </trkpt>
      <trkpt lat="49.14443" lon="4.08088">
        <ele>282.28</ele>
        <time>2021-08-09T13:40:57Z</time>
      </trkpt>
      <trkpt lat="49.14444" lon="4.0809">
        <ele>282.28</ele>
        <time>2021-08-09T13:40:58Z</time>
      </trkpt>
      <trkpt lat="49.14448" lon="4.08112">
        <ele>281.8</ele>
        <time>2021-08-09T13:41:04Z</time>
      </trkpt>
      <trkpt lat="49.14449" lon="4.08129">
        <ele>281.8</ele>
        <time>2021-08-09T13:41:08Z</time>
      </trkpt>
      <trkpt lat="49.1445" lon="4.08132">
        <ele>281.8</ele>
        <time>2021-08-09T13:41:09Z</time>
      </trkpt>
      <trkpt lat="49.14451" lon="4.08135">
        <ele>281.8</ele>
        <time>2021-08-09T13:41:10Z</time>
      </trkpt>
      <trkpt lat="49.14451" lon="4.08137">
        <ele>281.8</ele>
        <time>2021-08-09T13:41:11Z</time>
      </trkpt>
      <trkpt lat="49.14451" lon="4.0814">
        <ele>281.8</ele>
        <time>2021-08-09T13:41:12Z</time>
      </trkpt>
      <trkpt lat="49.14449" lon="4.08162">
        <ele>281.8</ele>
        <time>2021-08-09T13:41:19Z</time>
      </trkpt>
      <trkpt lat="49.14448" lon="4.08164">
        <ele>281.8</ele>
        <time>2021-08-09T13:41:20Z</time>
      </trkpt>
      <trkpt lat="49.14448" lon="4.08167">
        <ele>281.8</ele>
        <time>2021-08-09T13:41:21Z</time>
      </trkpt>
      <trkpt lat="49.14448" lon="4.0817">
        <ele>281.8</ele>
        <time>2021-08-09T13:41:22Z</time>
      </trkpt>
      <trkpt lat="49.14448" lon="4.08173">
        <ele>281.8</ele>
        <time>2021-08-09T13:41:23Z</time>
      </trkpt>
      <trkpt lat="49.14447" lon="4.08176">
        <ele>281.8</ele>
        <time>2021-08-09T13:41:24Z</time>
      </trkpt>
      <trkpt lat="49.14446" lon="4.08179">
        <ele>281.8</ele>
        <time>2021-08-09T13:41:25Z</time>
      </trkpt>
      <trkpt lat="49.14446" lon="4.08183">
        <ele>281.8</ele>
        <time>2021-08-09T13:41:26Z</time>
      </trkpt>
      <trkpt lat="49.14442" lon="4.08211">
        <ele>281.8</ele>
        <time>2021-08-09T13:41:33Z</time>
      </trkpt>
      <trkpt lat="49.14438" lon="4.08232">
        <ele>281.8</ele>
        <time>2021-08-09T13:41:39Z</time>
      </trkpt>
      <trkpt lat="49.14435" lon="4.08262">
        <ele>281.8</ele>
        <time>2021-08-09T13:41:46Z</time>
      </trkpt>
      <trkpt lat="49.14435" lon="4.08297">
        <ele>281.8</ele>
        <time>2021-08-09T13:41:53Z</time>
      </trkpt>
      <trkpt lat="49.1443" lon="4.08329">
        <ele>281.8</ele>
        <time>2021-08-09T13:42:02Z</time>
      </trkpt>
      <trkpt lat="49.14422" lon="4.08351">
        <ele>281.8</ele>
        <time>2021-08-09T13:42:09Z</time>
      </trkpt>
      <trkpt lat="49.1442" lon="4.08358">
        <ele>281.8</ele>
        <time>2021-08-09T13:42:11Z</time>
      </trkpt>
      <trkpt lat="49.14419" lon="4.08362">
        <ele>281.8</ele>
        <time>2021-08-09T13:42:12Z</time>
      </trkpt>
      <trkpt lat="49.14419" lon="4.08365">
        <ele>281.8</ele>
        <time>2021-08-09T13:42:13Z</time>
      </trkpt>
      <trkpt lat="49.14418" lon="4.08369">
        <ele>281.8</ele>
        <time>2021-08-09T13:42:14Z</time>
      </trkpt>
      <trkpt lat="49.14417" lon="4.08372">
        <ele>281.8</ele>
        <time>2021-08-09T13:42:15Z</time>
      </trkpt>
      <trkpt lat="49.14416" lon="4.08375">
        <ele>281.8</ele>
        <time>2021-08-09T13:42:16Z</time>
      </trkpt>
      <trkpt lat="49.14416" lon="4.08379">
        <ele>281.8</ele>
        <time>2021-08-09T13:42:17Z</time>
      </trkpt>
      <trkpt lat="49.14415" lon="4.08383">
        <ele>281.8</ele>
        <time>2021-08-09T13:42:18Z</time>
      </trkpt>
      <trkpt lat="49.14415" lon="4.08386">
        <ele>281.8</ele>
        <time>2021-08-09T13:42:19Z</time>
      </trkpt>
      <trkpt lat="49.14416" lon="4.08405">
        <ele>281.8</ele>
        <time>2021-08-09T13:42:26Z</time>
      </trkpt>
      <trkpt lat="49.14415" lon="4.08416">
        <ele>281.8</ele>
        <time>2021-08-09T13:42:32Z</time>
      </trkpt>
      <trkpt lat="49.14415" lon="4.08419">
        <ele>281.8</ele>
        <time>2021-08-09T13:42:33Z</time>
      </trkpt>
      <trkpt lat="49.14414" lon="4.08422">
        <ele>282.28</ele>
        <time>2021-08-09T13:42:34Z</time>
      </trkpt>
      <trkpt lat="49.14413" lon="4.08427">
        <ele>283.25</ele>
        <time>2021-08-09T13:42:36Z</time>
      </trkpt>
      <trkpt lat="49.14412" lon="4.08436">
        <ele>283.25</ele>
        <time>2021-08-09T13:42:39Z</time>
      </trkpt>
      <trkpt lat="49.14408" lon="4.0845">
        <ele>283.25</ele>
        <time>2021-08-09T13:42:46Z</time>
      </trkpt>
      <trkpt lat="49.14406" lon="4.08462">
        <ele>283.25</ele>
        <time>2021-08-09T13:42:52Z</time>
      </trkpt>
      <trkpt lat="49.14408" lon="4.08486">
        <ele>283.25</ele>
        <time>2021-08-09T13:43:00Z</time>
      </trkpt>
      <trkpt lat="49.14407" lon="4.08499">
        <ele>283.73</ele>
        <time>2021-08-09T13:43:05Z</time>
      </trkpt>
      <trkpt lat="49.14406" lon="4.08502">
        <ele>283.73</ele>
        <time>2021-08-09T13:43:06Z</time>
      </trkpt>
      <trkpt lat="49.14405" lon="4.08505">
        <ele>283.73</ele>
        <time>2021-08-09T13:43:07Z</time>
      </trkpt>
      <trkpt lat="49.14402" lon="4.08528">
        <ele>283.73</ele>
        <time>2021-08-09T13:43:15Z</time>
      </trkpt>
      <trkpt lat="49.14401" lon="4.08552">
        <ele>283.73</ele>
        <time>2021-08-09T13:43:22Z</time>
      </trkpt>
      <trkpt lat="49.14401" lon="4.08555">
        <ele>283.73</ele>
        <time>2021-08-09T13:43:23Z</time>
      </trkpt>
      <trkpt lat="49.144" lon="4.08558">
        <ele>283.73</ele>
        <time>2021-08-09T13:43:24Z</time>
      </trkpt>
      <trkpt lat="49.14399" lon="4.0856">
        <ele>283.73</ele>
        <time>2021-08-09T13:43:25Z</time>
      </trkpt>
      <trkpt lat="49.14398" lon="4.08562">
        <ele>283.73</ele>
        <time>2021-08-09T13:43:26Z</time>
      </trkpt>
      <trkpt lat="49.14397" lon="4.08563">
        <ele>283.73</ele>
        <time>2021-08-09T13:43:27Z</time>
      </trkpt>
      <trkpt lat="49.14395" lon="4.08566">
        <ele>283.73</ele>
        <time>2021-08-09T13:43:28Z</time>
      </trkpt>
      <trkpt lat="49.14394" lon="4.08568">
        <ele>283.73</ele>
        <time>2021-08-09T13:43:29Z</time>
      </trkpt>
      <trkpt lat="49.14391" lon="4.08594">
        <ele>284.21</ele>
        <time>2021-08-09T13:43:36Z</time>
      </trkpt>
      <trkpt lat="49.14388" lon="4.08623">
        <ele>284.21</ele>
        <time>2021-08-09T13:43:43Z</time>
      </trkpt>
      <trkpt lat="49.14385" lon="4.08637">
        <ele>284.21</ele>
        <time>2021-08-09T13:43:47Z</time>
      </trkpt>
      <trkpt lat="49.14386" lon="4.0864">
        <ele>284.21</ele>
        <time>2021-08-09T13:43:48Z</time>
      </trkpt>
      <trkpt lat="49.14385" lon="4.08643">
        <ele>284.21</ele>
        <time>2021-08-09T13:43:49Z</time>
      </trkpt>
      <trkpt lat="49.14384" lon="4.08646">
        <ele>284.21</ele>
        <time>2021-08-09T13:43:51Z</time>
      </trkpt>
      <trkpt lat="49.14383" lon="4.08648">
        <ele>284.21</ele>
        <time>2021-08-09T13:43:52Z</time>
      </trkpt>
      <trkpt lat="49.14382" lon="4.08651">
        <ele>284.21</ele>
        <time>2021-08-09T13:43:53Z</time>
      </trkpt>
      <trkpt lat="49.14382" lon="4.08657">
        <ele>284.21</ele>
        <time>2021-08-09T13:43:58Z</time>
      </trkpt>
      <trkpt lat="49.14383" lon="4.0866">
        <ele>284.21</ele>
        <time>2021-08-09T13:43:59Z</time>
      </trkpt>
      <trkpt lat="49.14383" lon="4.08663">
        <ele>284.21</ele>
        <time>2021-08-09T13:44:00Z</time>
      </trkpt>
      <trkpt lat="49.14385" lon="4.08688">
        <ele>284.21</ele>
        <time>2021-08-09T13:44:06Z</time>
      </trkpt>
      <trkpt lat="49.1438" lon="4.08701">
        <ele>284.21</ele>
        <time>2021-08-09T13:44:12Z</time>
      </trkpt>
      <trkpt lat="49.14378" lon="4.08705">
        <ele>284.21</ele>
        <time>2021-08-09T13:44:16Z</time>
      </trkpt>
      <trkpt lat="49.14375" lon="4.08705">
        <ele>284.21</ele>
        <time>2021-08-09T13:44:18Z</time>
      </trkpt>
      <trkpt lat="49.14372" lon="4.08706">
        <ele>284.21</ele>
        <time>2021-08-09T13:44:21Z</time>
      </trkpt>
      <trkpt lat="49.1437" lon="4.08708">
        <ele>284.21</ele>
        <time>2021-08-09T13:44:22Z</time>
      </trkpt>
      <trkpt lat="49.14369" lon="4.0871">
        <ele>284.21</ele>
        <time>2021-08-09T13:44:23Z</time>
      </trkpt>
      <trkpt lat="49.14368" lon="4.08712">
        <ele>284.21</ele>
        <time>2021-08-09T13:44:24Z</time>
      </trkpt>
      <trkpt lat="49.14367" lon="4.08715">
        <ele>284.21</ele>
        <time>2021-08-09T13:44:25Z</time>
      </trkpt>
      <trkpt lat="49.14366" lon="4.08717">
        <ele>284.21</ele>
        <time>2021-08-09T13:44:26Z</time>
      </trkpt>
      <trkpt lat="49.14366" lon="4.0872">
        <ele>284.21</ele>
        <time>2021-08-09T13:44:27Z</time>
      </trkpt>
      <trkpt lat="49.14366" lon="4.08723">
        <ele>284.21</ele>
        <time>2021-08-09T13:44:28Z</time>
      </trkpt>
      <trkpt lat="49.14366" lon="4.08726">
        <ele>284.21</ele>
        <time>2021-08-09T13:44:29Z</time>
      </trkpt>
      <trkpt lat="49.14366" lon="4.08728">
        <ele>284.21</ele>
        <time>2021-08-09T13:44:30Z</time>
      </trkpt>
      <trkpt lat="49.14367" lon="4.08731">
        <ele>284.21</ele>
        <time>2021-08-09T13:44:31Z</time>
      </trkpt>
      <trkpt lat="49.14368" lon="4.08734">
        <ele>284.21</ele>
        <time>2021-08-09T13:44:32Z</time>
      </trkpt>
      <trkpt lat="49.14372" lon="4.08753">
        <ele>284.21</ele>
        <time>2021-08-09T13:44:39Z</time>
      </trkpt>
      <trkpt lat="49.14367" lon="4.08767">
        <ele>284.21</ele>
        <time>2021-08-09T13:44:46Z</time>
      </trkpt>
      <trkpt lat="49.14359" lon="4.08784">
        <ele>284.21</ele>
        <time>2021-08-09T13:44:52Z</time>
      </trkpt>
      <trkpt lat="49.14357" lon="4.08798">
        <ele>284.21</ele>
        <time>2021-08-09T13:44:56Z</time>
      </trkpt>
      <trkpt lat="49.14356" lon="4.08802">
        <ele>284.21</ele>
        <time>2021-08-09T13:44:57Z</time>
      </trkpt>
      <trkpt lat="49.14355" lon="4.08806">
        <ele>284.21</ele>
        <time>2021-08-09T13:44:58Z</time>
      </trkpt>
      <trkpt lat="49.14353" lon="4.08817">
        <ele>284.21</ele>
        <time>2021-08-09T13:45:01Z</time>
      </trkpt>
      <trkpt lat="49.14353" lon="4.08821">
        <ele>284.21</ele>
        <time>2021-08-09T13:45:02Z</time>
      </trkpt>
      <trkpt lat="49.14352" lon="4.08824">
        <ele>284.21</ele>
        <time>2021-08-09T13:45:03Z</time>
      </trkpt>
      <trkpt lat="49.14347" lon="4.08845">
        <ele>284.21</ele>
        <time>2021-08-09T13:45:09Z</time>
      </trkpt>
      <trkpt lat="49.14342" lon="4.08859">
        <ele>282.77</ele>
        <time>2021-08-09T13:45:14Z</time>
      </trkpt>
      <trkpt lat="49.14335" lon="4.08883">
        <ele>282.77</ele>
        <time>2021-08-09T13:45:19Z</time>
      </trkpt>
      <trkpt lat="49.14327" lon="4.08907">
        <ele>282.77</ele>
        <time>2021-08-09T13:45:25Z</time>
      </trkpt>
      <trkpt lat="49.14325" lon="4.08911">
        <ele>282.77</ele>
        <time>2021-08-09T13:45:26Z</time>
      </trkpt>
      <trkpt lat="49.14323" lon="4.08916">
        <ele>282.77</ele>
        <time>2021-08-09T13:45:28Z</time>
      </trkpt>
      <trkpt lat="49.14322" lon="4.08919">
        <ele>282.77</ele>
        <time>2021-08-09T13:45:29Z</time>
      </trkpt>
      <trkpt lat="49.14322" lon="4.08922">
        <ele>282.77</ele>
        <time>2021-08-09T13:45:30Z</time>
      </trkpt>
      <trkpt lat="49.14322" lon="4.08926">
        <ele>282.28</ele>
        <time>2021-08-09T13:45:31Z</time>
      </trkpt>
      <trkpt lat="49.14321" lon="4.0893">
        <ele>282.28</ele>
        <time>2021-08-09T13:45:32Z</time>
      </trkpt>
      <trkpt lat="49.14321" lon="4.08934">
        <ele>282.28</ele>
        <time>2021-08-09T13:45:33Z</time>
      </trkpt>
      <trkpt lat="49.14326" lon="4.08959">
        <ele>282.28</ele>
        <time>2021-08-09T13:45:41Z</time>
      </trkpt>
      <trkpt lat="49.14339" lon="4.08982">
        <ele>282.28</ele>
        <time>2021-08-09T13:45:48Z</time>
      </trkpt>
      <trkpt lat="49.14342" lon="4.08986">
        <ele>282.28</ele>
        <time>2021-08-09T13:45:50Z</time>
      </trkpt>
      <trkpt lat="49.14342" lon="4.08987">
        <ele>282.28</ele>
        <time>2021-08-09T13:45:51Z</time>
      </trkpt>
      <trkpt lat="49.1435" lon="4.08998">
        <ele>281.8</ele>
        <time>2021-08-09T13:45:58Z</time>
      </trkpt>
      <trkpt lat="49.14358" lon="4.09011">
        <ele>281.32</ele>
        <time>2021-08-09T13:46:04Z</time>
      </trkpt>
      <trkpt lat="49.14359" lon="4.09013">
        <ele>281.32</ele>
        <time>2021-08-09T13:46:05Z</time>
      </trkpt>
      <trkpt lat="49.1436" lon="4.09021">
        <ele>281.32</ele>
        <time>2021-08-09T13:46:11Z</time>
      </trkpt>
      <trkpt lat="49.14365" lon="4.09032">
        <ele>280.84</ele>
        <time>2021-08-09T13:46:17Z</time>
      </trkpt>
      <trkpt lat="49.14371" lon="4.09046">
        <ele>280.36</ele>
        <time>2021-08-09T13:46:22Z</time>
      </trkpt>
      <trkpt lat="49.14373" lon="4.09049">
        <ele>279.4</ele>
        <time>2021-08-09T13:46:23Z</time>
      </trkpt>
      <trkpt lat="49.14379" lon="4.09059">
        <ele>277.96</ele>
        <time>2021-08-09T13:46:26Z</time>
      </trkpt>
      <trkpt lat="49.14389" lon="4.09077">
        <ele>275.56</ele>
        <time>2021-08-09T13:46:32Z</time>
      </trkpt>
      <trkpt lat="49.1439" lon="4.0908">
        <ele>275.56</ele>
        <time>2021-08-09T13:46:33Z</time>
      </trkpt>
      <trkpt lat="49.14392" lon="4.09082">
        <ele>275.07</ele>
        <time>2021-08-09T13:46:34Z</time>
      </trkpt>
      <trkpt lat="49.14401" lon="4.09098">
        <ele>273.15</ele>
        <time>2021-08-09T13:46:41Z</time>
      </trkpt>
      <trkpt lat="49.14413" lon="4.09115">
        <ele>271.23</ele>
        <time>2021-08-09T13:46:48Z</time>
      </trkpt>
      <trkpt lat="49.14424" lon="4.09131">
        <ele>269.79</ele>
        <time>2021-08-09T13:46:55Z</time>
      </trkpt>
      <trkpt lat="49.14425" lon="4.09133">
        <ele>269.79</ele>
        <time>2021-08-09T13:46:56Z</time>
      </trkpt>
      <trkpt lat="49.14427" lon="4.09135">
        <ele>268.83</ele>
        <time>2021-08-09T13:46:57Z</time>
      </trkpt>
      <trkpt lat="49.14441" lon="4.09154">
        <ele>266.9</ele>
        <time>2021-08-09T13:47:05Z</time>
      </trkpt>
      <trkpt lat="49.14452" lon="4.09164">
        <ele>264.5</ele>
        <time>2021-08-09T13:47:11Z</time>
      </trkpt>
      <trkpt lat="49.14456" lon="4.09165">
        <ele>264.5</ele>
        <time>2021-08-09T13:47:14Z</time>
      </trkpt>
      <trkpt lat="49.14457" lon="4.09166">
        <ele>264.02</ele>
        <time>2021-08-09T13:47:15Z</time>
      </trkpt>
      <trkpt lat="49.14469" lon="4.09173">
        <ele>262.1</ele>
        <time>2021-08-09T13:47:22Z</time>
      </trkpt>
      <trkpt lat="49.14475" lon="4.09175">
        <ele>261.14</ele>
        <time>2021-08-09T13:47:27Z</time>
      </trkpt>
      <trkpt lat="49.14476" lon="4.09176">
        <ele>261.14</ele>
        <time>2021-08-09T13:47:28Z</time>
      </trkpt>
      <trkpt lat="49.14478" lon="4.09177">
        <ele>261.14</ele>
        <time>2021-08-09T13:47:29Z</time>
      </trkpt>
      <trkpt lat="49.1448" lon="4.09179">
        <ele>261.14</ele>
        <time>2021-08-09T13:47:30Z</time>
      </trkpt>
      <trkpt lat="49.14483" lon="4.0918">
        <ele>260.65</ele>
        <time>2021-08-09T13:47:31Z</time>
      </trkpt>
      <trkpt lat="49.1449" lon="4.09184">
        <ele>260.65</ele>
        <time>2021-08-09T13:47:34Z</time>
      </trkpt>
      <trkpt lat="49.14491" lon="4.09185">
        <ele>260.65</ele>
        <time>2021-08-09T13:47:35Z</time>
      </trkpt>
      <trkpt lat="49.14493" lon="4.09186">
        <ele>260.65</ele>
        <time>2021-08-09T13:47:36Z</time>
      </trkpt>
      <trkpt lat="49.14498" lon="4.09188">
        <ele>260.17</ele>
        <time>2021-08-09T13:47:41Z</time>
      </trkpt>
      <trkpt lat="49.14502" lon="4.09191">
        <ele>260.17</ele>
        <time>2021-08-09T13:47:44Z</time>
      </trkpt>
      <trkpt lat="49.14503" lon="4.09192">
        <ele>260.17</ele>
        <time>2021-08-09T13:47:45Z</time>
      </trkpt>
      <trkpt lat="49.14504" lon="4.09194">
        <ele>260.17</ele>
        <time>2021-08-09T13:47:46Z</time>
      </trkpt>
      <trkpt lat="49.14508" lon="4.09196">
        <ele>260.17</ele>
        <time>2021-08-09T13:47:47Z</time>
      </trkpt>
      <trkpt lat="49.1451" lon="4.09198">
        <ele>260.17</ele>
        <time>2021-08-09T13:47:48Z</time>
      </trkpt>
      <trkpt lat="49.14512" lon="4.092">
        <ele>260.17</ele>
        <time>2021-08-09T13:47:49Z</time>
      </trkpt>
      <trkpt lat="49.14514" lon="4.09202">
        <ele>260.17</ele>
        <time>2021-08-09T13:47:50Z</time>
      </trkpt>
      <trkpt lat="49.14516" lon="4.09204">
        <ele>260.17</ele>
        <time>2021-08-09T13:47:51Z</time>
      </trkpt>
      <trkpt lat="49.14518" lon="4.09206">
        <ele>260.17</ele>
        <time>2021-08-09T13:47:52Z</time>
      </trkpt>
      <trkpt lat="49.14521" lon="4.09209">
        <ele>260.17</ele>
        <time>2021-08-09T13:47:53Z</time>
      </trkpt>
      <trkpt lat="49.14524" lon="4.09213">
        <ele>260.17</ele>
        <time>2021-08-09T13:47:54Z</time>
      </trkpt>
      <trkpt lat="49.14526" lon="4.09216">
        <ele>260.17</ele>
        <time>2021-08-09T13:47:55Z</time>
      </trkpt>
      <trkpt lat="49.1454" lon="4.09242">
        <ele>260.17</ele>
        <time>2021-08-09T13:48:01Z</time>
      </trkpt>
      <trkpt lat="49.14548" lon="4.09268">
        <ele>261.14</ele>
        <time>2021-08-09T13:48:08Z</time>
      </trkpt>
      <trkpt lat="49.14551" lon="4.09294">
        <ele>260.17</ele>
        <time>2021-08-09T13:48:15Z</time>
      </trkpt>
      <trkpt lat="49.14562" lon="4.09326">
        <ele>257.77</ele>
        <time>2021-08-09T13:48:21Z</time>
      </trkpt>
      <trkpt lat="49.14578" lon="4.09352">
        <ele>255.85</ele>
        <time>2021-08-09T13:48:27Z</time>
      </trkpt>
      <trkpt lat="49.14598" lon="4.09379">
        <ele>253.93</ele>
        <time>2021-08-09T13:48:33Z</time>
      </trkpt>
      <trkpt lat="49.146" lon="4.09384">
        <ele>253.93</ele>
        <time>2021-08-09T13:48:34Z</time>
      </trkpt>
      <trkpt lat="49.14602" lon="4.09389">
        <ele>253.44</ele>
        <time>2021-08-09T13:48:35Z</time>
      </trkpt>
      <trkpt lat="49.14608" lon="4.09421">
        <ele>252.48</ele>
        <time>2021-08-09T13:48:41Z</time>
      </trkpt>
      <trkpt lat="49.14603" lon="4.09455">
        <ele>251.52</ele>
        <time>2021-08-09T13:48:48Z</time>
      </trkpt>
      <trkpt lat="49.14609" lon="4.09487">
        <ele>250.08</ele>
        <time>2021-08-09T13:48:53Z</time>
      </trkpt>
      <trkpt lat="49.14611" lon="4.09493">
        <ele>250.08</ele>
        <time>2021-08-09T13:48:54Z</time>
      </trkpt>
      <trkpt lat="49.14619" lon="4.09512">
        <ele>248.64</ele>
        <time>2021-08-09T13:48:58Z</time>
      </trkpt>
      <trkpt lat="49.14619" lon="4.09517">
        <ele>248.16</ele>
        <time>2021-08-09T13:48:59Z</time>
      </trkpt>
      <trkpt lat="49.14618" lon="4.09521">
        <ele>248.16</ele>
        <time>2021-08-09T13:49:00Z</time>
      </trkpt>
      <trkpt lat="49.1461" lon="4.09541">
        <ele>248.64</ele>
        <time>2021-08-09T13:49:07Z</time>
      </trkpt>
      <trkpt lat="49.14607" lon="4.09546">
        <ele>249.6</ele>
        <time>2021-08-09T13:49:09Z</time>
      </trkpt>
      <trkpt lat="49.14595" lon="4.0957">
        <ele>251.04</ele>
        <time>2021-08-09T13:49:17Z</time>
      </trkpt>
      <trkpt lat="49.14577" lon="4.09602">
        <ele>252.48</ele>
        <time>2021-08-09T13:49:29Z</time>
      </trkpt>
      <trkpt lat="49.1456" lon="4.09631">
        <ele>252.96</ele>
        <time>2021-08-09T13:49:40Z</time>
      </trkpt>
      <trkpt lat="49.1455" lon="4.09647">
        <ele>254.89</ele>
        <time>2021-08-09T13:49:47Z</time>
      </trkpt>
      <trkpt lat="49.14537" lon="4.09668">
        <ele>255.37</ele>
        <time>2021-08-09T13:49:55Z</time>
      </trkpt>
      <trkpt lat="49.14534" lon="4.09676">
        <ele>256.33</ele>
        <time>2021-08-09T13:49:58Z</time>
      </trkpt>
      <trkpt lat="49.14541" lon="4.09691">
        <ele>255.85</ele>
        <time>2021-08-09T13:50:04Z</time>
      </trkpt>
      <trkpt lat="49.14542" lon="4.09693">
        <ele>255.85</ele>
        <time>2021-08-09T13:50:05Z</time>
      </trkpt>
      <trkpt lat="49.14542" lon="4.09694">
        <ele>255.85</ele>
        <time>2021-08-09T13:50:06Z</time>
      </trkpt>
      <trkpt lat="49.14543" lon="4.09696">
        <ele>256.33</ele>
        <time>2021-08-09T13:50:07Z</time>
      </trkpt>
      <trkpt lat="49.14547" lon="4.09702">
        <ele>257.77</ele>
        <time>2021-08-09T13:50:13Z</time>
      </trkpt>
      <trkpt lat="49.14552" lon="4.0971">
        <ele>258.25</ele>
        <time>2021-08-09T13:50:19Z</time>
      </trkpt>
      <trkpt lat="49.14558" lon="4.09719">
        <ele>259.21</ele>
        <time>2021-08-09T13:50:26Z</time>
      </trkpt>
      <trkpt lat="49.14563" lon="4.0973">
        <ele>259.69</ele>
        <time>2021-08-09T13:50:33Z</time>
      </trkpt>
      <trkpt lat="49.14569" lon="4.0974">
        <ele>260.65</ele>
        <time>2021-08-09T13:50:39Z</time>
      </trkpt>
      <trkpt lat="49.14578" lon="4.09758">
        <ele>261.14</ele>
        <time>2021-08-09T13:50:48Z</time>
      </trkpt>
      <trkpt lat="49.14586" lon="4.09772">
        <ele>262.1</ele>
        <time>2021-08-09T13:50:57Z</time>
      </trkpt>
      <trkpt lat="49.14593" lon="4.09781">
        <ele>262.58</ele>
        <time>2021-08-09T13:51:05Z</time>
      </trkpt>
      <trkpt lat="49.14601" lon="4.09795">
        <ele>263.06</ele>
        <time>2021-08-09T13:51:13Z</time>
      </trkpt>
      <trkpt lat="49.1461" lon="4.0981">
        <ele>264.98</ele>
        <time>2021-08-09T13:51:23Z</time>
      </trkpt>
      <trkpt lat="49.14614" lon="4.09816">
        <ele>264.98</ele>
        <time>2021-08-09T13:51:29Z</time>
      </trkpt>
      <trkpt lat="49.14622" lon="4.09828">
        <ele>265.94</ele>
        <time>2021-08-09T13:51:36Z</time>
      </trkpt>
      <trkpt lat="49.14631" lon="4.09842">
        <ele>266.9</ele>
        <time>2021-08-09T13:51:44Z</time>
      </trkpt>
      <trkpt lat="49.14637" lon="4.09852">
        <ele>267.86</ele>
        <time>2021-08-09T13:51:51Z</time>
      </trkpt>
      <trkpt lat="49.14648" lon="4.09863">
        <ele>268.35</ele>
        <time>2021-08-09T13:51:59Z</time>
      </trkpt>
      <trkpt lat="49.14655" lon="4.09871">
        <ele>268.83</ele>
        <time>2021-08-09T13:52:05Z</time>
      </trkpt>
      <trkpt lat="49.14659" lon="4.09878">
        <ele>269.31</ele>
        <time>2021-08-09T13:52:12Z</time>
      </trkpt>
      <trkpt lat="49.14661" lon="4.09884">
        <ele>269.31</ele>
        <time>2021-08-09T13:52:18Z</time>
      </trkpt>
      <trkpt lat="49.14662" lon="4.09884">
        <ele>269.31</ele>
        <time>2021-08-09T13:52:23Z</time>
      </trkpt>
      <trkpt lat="49.14667" lon="4.09891">
        <ele>269.79</ele>
        <time>2021-08-09T13:52:32Z</time>
      </trkpt>
      <trkpt lat="49.14665" lon="4.09898">
        <ele>269.79</ele>
        <time>2021-08-09T13:52:44Z</time>
      </trkpt>
      <trkpt lat="49.14668" lon="4.09898">
        <ele>269.79</ele>
        <time>2021-08-09T13:52:51Z</time>
      </trkpt>
      <trkpt lat="49.14667" lon="4.09895">
        <ele>269.79</ele>
        <time>2021-08-09T13:53:08Z</time>
      </trkpt>
      <trkpt lat="49.14667" lon="4.09896">
        <ele>269.79</ele>
        <time>2021-08-09T13:53:22Z</time>
      </trkpt>
      <trkpt lat="49.14668" lon="4.09897">
        <ele>269.79</ele>
        <time>2021-08-09T13:53:33Z</time>
      </trkpt>
      <trkpt lat="49.14673" lon="4.09903">
        <ele>270.75</ele>
        <time>2021-08-09T13:53:40Z</time>
      </trkpt>
      <trkpt lat="49.14679" lon="4.09913">
        <ele>270.75</ele>
        <time>2021-08-09T13:53:48Z</time>
      </trkpt>
      <trkpt lat="49.14684" lon="4.09924">
        <ele>271.71</ele>
        <time>2021-08-09T13:53:56Z</time>
      </trkpt>
      <trkpt lat="49.14694" lon="4.09938">
        <ele>272.19</ele>
        <time>2021-08-09T13:54:04Z</time>
      </trkpt>
      <trkpt lat="49.14704" lon="4.09948">
        <ele>273.63</ele>
        <time>2021-08-09T13:54:11Z</time>
      </trkpt>
      <trkpt lat="49.14709" lon="4.09952">
        <ele>273.63</ele>
        <time>2021-08-09T13:54:14Z</time>
      </trkpt>
      <trkpt lat="49.1471" lon="4.09953">
        <ele>273.63</ele>
        <time>2021-08-09T13:54:15Z</time>
      </trkpt>
      <trkpt lat="49.14718" lon="4.0996">
        <ele>274.11</ele>
        <time>2021-08-09T13:54:22Z</time>
      </trkpt>
      <trkpt lat="49.14728" lon="4.0997">
        <ele>275.56</ele>
        <time>2021-08-09T13:54:28Z</time>
      </trkpt>
      <trkpt lat="49.14738" lon="4.09977">
        <ele>275.56</ele>
        <time>2021-08-09T13:54:35Z</time>
      </trkpt>
      <trkpt lat="49.14743" lon="4.09981">
        <ele>276.04</ele>
        <time>2021-08-09T13:54:38Z</time>
      </trkpt>
      <trkpt lat="49.14745" lon="4.09983">
        <ele>276.04</ele>
        <time>2021-08-09T13:54:39Z</time>
      </trkpt>
      <trkpt lat="49.14746" lon="4.09984">
        <ele>276.52</ele>
        <time>2021-08-09T13:54:40Z</time>
      </trkpt>
      <trkpt lat="49.14747" lon="4.09986">
        <ele>276.52</ele>
        <time>2021-08-09T13:54:41Z</time>
      </trkpt>
      <trkpt lat="49.14749" lon="4.09987">
        <ele>276.52</ele>
        <time>2021-08-09T13:54:42Z</time>
      </trkpt>
      <trkpt lat="49.1475" lon="4.09989">
        <ele>277</ele>
        <time>2021-08-09T13:54:43Z</time>
      </trkpt>
      <trkpt lat="49.14751" lon="4.09991">
        <ele>277</ele>
        <time>2021-08-09T13:54:44Z</time>
      </trkpt>
      <trkpt lat="49.14752" lon="4.09992">
        <ele>277</ele>
        <time>2021-08-09T13:54:45Z</time>
      </trkpt>
      <trkpt lat="49.14753" lon="4.09994">
        <ele>277</ele>
        <time>2021-08-09T13:54:46Z</time>
      </trkpt>
      <trkpt lat="49.14755" lon="4.09996">
        <ele>277</ele>
        <time>2021-08-09T13:54:47Z</time>
      </trkpt>
      <trkpt lat="49.14766" lon="4.10013">
        <ele>277.48</ele>
        <time>2021-08-09T13:54:54Z</time>
      </trkpt>
      <trkpt lat="49.14774" lon="4.10034">
        <ele>277.48</ele>
        <time>2021-08-09T13:55:01Z</time>
      </trkpt>
      <trkpt lat="49.14776" lon="4.10038">
        <ele>277.48</ele>
        <time>2021-08-09T13:55:02Z</time>
      </trkpt>
      <trkpt lat="49.14777" lon="4.10041">
        <ele>277.48</ele>
        <time>2021-08-09T13:55:03Z</time>
      </trkpt>
      <trkpt lat="49.14777" lon="4.10044">
        <ele>277.48</ele>
        <time>2021-08-09T13:55:04Z</time>
      </trkpt>
      <trkpt lat="49.14777" lon="4.10047">
        <ele>277.48</ele>
        <time>2021-08-09T13:55:05Z</time>
      </trkpt>
      <trkpt lat="49.14778" lon="4.10049">
        <ele>277.48</ele>
        <time>2021-08-09T13:55:07Z</time>
      </trkpt>
      <trkpt lat="49.14785" lon="4.10069">
        <ele>276.52</ele>
        <time>2021-08-09T13:55:13Z</time>
      </trkpt>
      <trkpt lat="49.14788" lon="4.10079">
        <ele>276.04</ele>
        <time>2021-08-09T13:55:16Z</time>
      </trkpt>
      <trkpt lat="49.14789" lon="4.10083">
        <ele>276.04</ele>
        <time>2021-08-09T13:55:17Z</time>
      </trkpt>
      <trkpt lat="49.1479" lon="4.10087">
        <ele>276.04</ele>
        <time>2021-08-09T13:55:18Z</time>
      </trkpt>
      <trkpt lat="49.14792" lon="4.10092">
        <ele>276.04</ele>
        <time>2021-08-09T13:55:19Z</time>
      </trkpt>
      <trkpt lat="49.14793" lon="4.10096">
        <ele>275.07</ele>
        <time>2021-08-09T13:55:20Z</time>
      </trkpt>
      <trkpt lat="49.14795" lon="4.101">
        <ele>275.07</ele>
        <time>2021-08-09T13:55:21Z</time>
      </trkpt>
      <trkpt lat="49.14796" lon="4.10103">
        <ele>275.07</ele>
        <time>2021-08-09T13:55:22Z</time>
      </trkpt>
      <trkpt lat="49.14798" lon="4.10107">
        <ele>275.07</ele>
        <time>2021-08-09T13:55:23Z</time>
      </trkpt>
      <trkpt lat="49.14799" lon="4.10113">
        <ele>275.07</ele>
        <time>2021-08-09T13:55:24Z</time>
      </trkpt>
      <trkpt lat="49.14805" lon="4.10139">
        <ele>274.11</ele>
        <time>2021-08-09T13:55:29Z</time>
      </trkpt>
      <trkpt lat="49.14807" lon="4.10146">
        <ele>274.11</ele>
        <time>2021-08-09T13:55:31Z</time>
      </trkpt>
      <trkpt lat="49.14814" lon="4.10175">
        <ele>274.11</ele>
        <time>2021-08-09T13:55:37Z</time>
      </trkpt>
      <trkpt lat="49.14818" lon="4.10199">
        <ele>275.56</ele>
        <time>2021-08-09T13:55:42Z</time>
      </trkpt>
      <trkpt lat="49.14826" lon="4.10237">
        <ele>275.56</ele>
        <time>2021-08-09T13:55:50Z</time>
      </trkpt>
      <trkpt lat="49.1483" lon="4.10273">
        <ele>275.56</ele>
        <time>2021-08-09T13:55:57Z</time>
      </trkpt>
      <trkpt lat="49.14832" lon="4.10289">
        <ele>275.56</ele>
        <time>2021-08-09T13:56:01Z</time>
      </trkpt>
      <trkpt lat="49.14831" lon="4.10293">
        <ele>275.56</ele>
        <time>2021-08-09T13:56:02Z</time>
      </trkpt>
      <trkpt lat="49.14832" lon="4.10296">
        <ele>275.56</ele>
        <time>2021-08-09T13:56:03Z</time>
      </trkpt>
      <trkpt lat="49.14832" lon="4.10299">
        <ele>275.56</ele>
        <time>2021-08-09T13:56:04Z</time>
      </trkpt>
      <trkpt lat="49.14833" lon="4.10303">
        <ele>275.56</ele>
        <time>2021-08-09T13:56:05Z</time>
      </trkpt>
      <trkpt lat="49.14835" lon="4.10329">
        <ele>275.56</ele>
        <time>2021-08-09T13:56:11Z</time>
      </trkpt>
      <trkpt lat="49.14838" lon="4.10356">
        <ele>276.52</ele>
        <time>2021-08-09T13:56:17Z</time>
      </trkpt>
      <trkpt lat="49.14839" lon="4.10386">
        <ele>276.52</ele>
        <time>2021-08-09T13:56:25Z</time>
      </trkpt>
      <trkpt lat="49.14838" lon="4.10395">
        <ele>275.07</ele>
        <time>2021-08-09T13:56:27Z</time>
      </trkpt>
      <trkpt lat="49.14835" lon="4.10426">
        <ele>273.63</ele>
        <time>2021-08-09T13:56:33Z</time>
      </trkpt>
      <trkpt lat="49.14834" lon="4.10433">
        <ele>273.63</ele>
        <time>2021-08-09T13:56:34Z</time>
      </trkpt>
      <trkpt lat="49.14834" lon="4.10439">
        <ele>273.15</ele>
        <time>2021-08-09T13:56:35Z</time>
      </trkpt>
      <trkpt lat="49.14833" lon="4.10461">
        <ele>273.15</ele>
        <time>2021-08-09T13:56:38Z</time>
      </trkpt>
      <trkpt lat="49.14827" lon="4.10496">
        <ele>273.63</ele>
        <time>2021-08-09T13:56:44Z</time>
      </trkpt>
      <trkpt lat="49.14824" lon="4.10527">
        <ele>273.63</ele>
        <time>2021-08-09T13:56:50Z</time>
      </trkpt>
      <trkpt lat="49.14821" lon="4.10565">
        <ele>274.11</ele>
        <time>2021-08-09T13:56:57Z</time>
      </trkpt>
      <trkpt lat="49.14821" lon="4.10605">
        <ele>274.11</ele>
        <time>2021-08-09T13:57:04Z</time>
      </trkpt>
      <trkpt lat="49.1482" lon="4.10656">
        <ele>275.07</ele>
        <time>2021-08-09T13:57:12Z</time>
      </trkpt>
      <trkpt lat="49.14819" lon="4.10704">
        <ele>275.56</ele>
        <time>2021-08-09T13:57:19Z</time>
      </trkpt>
      <trkpt lat="49.14817" lon="4.10763">
        <ele>277</ele>
        <time>2021-08-09T13:57:28Z</time>
      </trkpt>
      <trkpt lat="49.14816" lon="4.1079">
        <ele>277.48</ele>
        <time>2021-08-09T13:57:33Z</time>
      </trkpt>
      <trkpt lat="49.14813" lon="4.1082">
        <ele>277.96</ele>
        <time>2021-08-09T13:57:39Z</time>
      </trkpt>
      <trkpt lat="49.14812" lon="4.10853">
        <ele>278.44</ele>
        <time>2021-08-09T13:57:45Z</time>
      </trkpt>
      <trkpt lat="49.1481" lon="4.10897">
        <ele>278.92</ele>
        <time>2021-08-09T13:57:53Z</time>
      </trkpt>
      <trkpt lat="49.14804" lon="4.10933">
        <ele>279.88</ele>
        <time>2021-08-09T13:58:00Z</time>
      </trkpt>
      <trkpt lat="49.14798" lon="4.10978">
        <ele>280.84</ele>
        <time>2021-08-09T13:58:09Z</time>
      </trkpt>
      <trkpt lat="49.14795" lon="4.11006">
        <ele>280.84</ele>
        <time>2021-08-09T13:58:15Z</time>
      </trkpt>
      <trkpt lat="49.14788" lon="4.1105">
        <ele>281.8</ele>
        <time>2021-08-09T13:58:23Z</time>
      </trkpt>
      <trkpt lat="49.14781" lon="4.11106">
        <ele>282.77</ele>
        <time>2021-08-09T13:58:33Z</time>
      </trkpt>
      <trkpt lat="49.14776" lon="4.11154">
        <ele>283.25</ele>
        <time>2021-08-09T13:58:41Z</time>
      </trkpt>
      <trkpt lat="49.14774" lon="4.11185">
        <ele>283.25</ele>
        <time>2021-08-09T13:58:46Z</time>
      </trkpt>
      <trkpt lat="49.14772" lon="4.11216">
        <ele>283.73</ele>
        <time>2021-08-09T13:58:51Z</time>
      </trkpt>
      <trkpt lat="49.14772" lon="4.11223">
        <ele>283.73</ele>
        <time>2021-08-09T13:58:52Z</time>
      </trkpt>
      <trkpt lat="49.14771" lon="4.11229">
        <ele>283.73</ele>
        <time>2021-08-09T13:58:53Z</time>
      </trkpt>
      <trkpt lat="49.1477" lon="4.11235">
        <ele>283.73</ele>
        <time>2021-08-09T13:58:54Z</time>
      </trkpt>
      <trkpt lat="49.1477" lon="4.11242">
        <ele>283.73</ele>
        <time>2021-08-09T13:58:55Z</time>
      </trkpt>
      <trkpt lat="49.14771" lon="4.1131">
        <ele>284.21</ele>
        <time>2021-08-09T13:59:05Z</time>
      </trkpt>
      <trkpt lat="49.14775" lon="4.11361">
        <ele>284.69</ele>
        <time>2021-08-09T13:59:13Z</time>
      </trkpt>
      <trkpt lat="49.14775" lon="4.11394">
        <ele>285.17</ele>
        <time>2021-08-09T13:59:18Z</time>
      </trkpt>
      <trkpt lat="49.14775" lon="4.11402">
        <ele>285.17</ele>
        <time>2021-08-09T13:59:19Z</time>
      </trkpt>
      <trkpt lat="49.1478" lon="4.11443">
        <ele>286.13</ele>
        <time>2021-08-09T13:59:26Z</time>
      </trkpt>
      <trkpt lat="49.14784" lon="4.1148">
        <ele>286.13</ele>
        <time>2021-08-09T13:59:32Z</time>
      </trkpt>
      <trkpt lat="49.14788" lon="4.11517">
        <ele>286.61</ele>
        <time>2021-08-09T13:59:38Z</time>
      </trkpt>
      <trkpt lat="49.14789" lon="4.11522">
        <ele>286.61</ele>
        <time>2021-08-09T13:59:39Z</time>
      </trkpt>
      <trkpt lat="49.14789" lon="4.11529">
        <ele>286.61</ele>
        <time>2021-08-09T13:59:40Z</time>
      </trkpt>
      <trkpt lat="49.1479" lon="4.11541">
        <ele>287.09</ele>
        <time>2021-08-09T13:59:42Z</time>
      </trkpt>
      <trkpt lat="49.14795" lon="4.11566">
        <ele>287.57</ele>
        <time>2021-08-09T13:59:46Z</time>
      </trkpt>
      <trkpt lat="49.14796" lon="4.11573">
        <ele>287.57</ele>
        <time>2021-08-09T13:59:47Z</time>
      </trkpt>
      <trkpt lat="49.14804" lon="4.11623">
        <ele>288.05</ele>
        <time>2021-08-09T13:59:55Z</time>
      </trkpt>
      <trkpt lat="49.14805" lon="4.11629">
        <ele>288.05</ele>
        <time>2021-08-09T13:59:56Z</time>
      </trkpt>
      <trkpt lat="49.14805" lon="4.11636">
        <ele>288.05</ele>
        <time>2021-08-09T13:59:57Z</time>
      </trkpt>
      <trkpt lat="49.14806" lon="4.11641">
        <ele>288.05</ele>
        <time>2021-08-09T13:59:58Z</time>
      </trkpt>
      <trkpt lat="49.14807" lon="4.11648">
        <ele>288.05</ele>
        <time>2021-08-09T13:59:59Z</time>
      </trkpt>
      <trkpt lat="49.14808" lon="4.11654">
        <ele>288.05</ele>
        <time>2021-08-09T14:00:00Z</time>
      </trkpt>
      <trkpt lat="49.1481" lon="4.11674">
        <ele>288.05</ele>
        <time>2021-08-09T14:00:03Z</time>
      </trkpt>
      <trkpt lat="49.14811" lon="4.11679">
        <ele>288.05</ele>
        <time>2021-08-09T14:00:04Z</time>
      </trkpt>
      <trkpt lat="49.14816" lon="4.1172">
        <ele>288.05</ele>
        <time>2021-08-09T14:00:10Z</time>
      </trkpt>
      <trkpt lat="49.14816" lon="4.11726">
        <ele>288.05</ele>
        <time>2021-08-09T14:00:11Z</time>
      </trkpt>
      <trkpt lat="49.14817" lon="4.11732">
        <ele>288.05</ele>
        <time>2021-08-09T14:00:12Z</time>
      </trkpt>
      <trkpt lat="49.14822" lon="4.11772">
        <ele>288.53</ele>
        <time>2021-08-09T14:00:18Z</time>
      </trkpt>
      <trkpt lat="49.14831" lon="4.11838">
        <ele>288.53</ele>
        <time>2021-08-09T14:00:27Z</time>
      </trkpt>
      <trkpt lat="49.14833" lon="4.11852">
        <ele>288.53</ele>
        <time>2021-08-09T14:00:29Z</time>
      </trkpt>
      <trkpt lat="49.14836" lon="4.11907">
        <ele>289.49</ele>
        <time>2021-08-09T14:00:37Z</time>
      </trkpt>
      <trkpt lat="49.1484" lon="4.11958">
        <ele>290.46</ele>
        <time>2021-08-09T14:00:45Z</time>
      </trkpt>
      <trkpt lat="49.14841" lon="4.11983">
        <ele>290.46</ele>
        <time>2021-08-09T14:00:49Z</time>
      </trkpt>
      <trkpt lat="49.14842" lon="4.1199">
        <ele>290.46</ele>
        <time>2021-08-09T14:00:50Z</time>
      </trkpt>
      <trkpt lat="49.14842" lon="4.12003">
        <ele>290.46</ele>
        <time>2021-08-09T14:00:52Z</time>
      </trkpt>
      <trkpt lat="49.14842" lon="4.1201">
        <ele>290.46</ele>
        <time>2021-08-09T14:00:53Z</time>
      </trkpt>
      <trkpt lat="49.14843" lon="4.12016">
        <ele>290.46</ele>
        <time>2021-08-09T14:00:54Z</time>
      </trkpt>
      <trkpt lat="49.14846" lon="4.12076">
        <ele>290.46</ele>
        <time>2021-08-09T14:01:03Z</time>
      </trkpt>
      <trkpt lat="49.14849" lon="4.12097">
        <ele>290.46</ele>
        <time>2021-08-09T14:01:06Z</time>
      </trkpt>
      <trkpt lat="49.14849" lon="4.12103">
        <ele>290.46</ele>
        <time>2021-08-09T14:01:07Z</time>
      </trkpt>
      <trkpt lat="49.14849" lon="4.12154">
        <ele>290.46</ele>
        <time>2021-08-09T14:01:14Z</time>
      </trkpt>
      <trkpt lat="49.14842" lon="4.12209">
        <ele>290.46</ele>
        <time>2021-08-09T14:01:22Z</time>
      </trkpt>
      <trkpt lat="49.14838" lon="4.12236">
        <ele>290.46</ele>
        <time>2021-08-09T14:01:26Z</time>
      </trkpt>
      <trkpt lat="49.1483" lon="4.12308">
        <ele>290.46</ele>
        <time>2021-08-09T14:01:36Z</time>
      </trkpt>
      <trkpt lat="49.14822" lon="4.12359">
        <ele>290.46</ele>
        <time>2021-08-09T14:01:43Z</time>
      </trkpt>
      <trkpt lat="49.14814" lon="4.12401">
        <ele>290.46</ele>
        <time>2021-08-09T14:01:50Z</time>
      </trkpt>
      <trkpt lat="49.14809" lon="4.12444">
        <ele>290.94</ele>
        <time>2021-08-09T14:01:56Z</time>
      </trkpt>
      <trkpt lat="49.14808" lon="4.12482">
        <ele>290.94</ele>
        <time>2021-08-09T14:02:01Z</time>
      </trkpt>
      <trkpt lat="49.14808" lon="4.1252">
        <ele>291.42</ele>
        <time>2021-08-09T14:02:06Z</time>
      </trkpt>
      <trkpt lat="49.14808" lon="4.12528">
        <ele>291.42</ele>
        <time>2021-08-09T14:02:07Z</time>
      </trkpt>
      <trkpt lat="49.1481" lon="4.12578">
        <ele>292.38</ele>
        <time>2021-08-09T14:02:14Z</time>
      </trkpt>
      <trkpt lat="49.1481" lon="4.12585">
        <ele>292.38</ele>
        <time>2021-08-09T14:02:15Z</time>
      </trkpt>
      <trkpt lat="49.14809" lon="4.12657">
        <ele>292.38</ele>
        <time>2021-08-09T14:02:25Z</time>
      </trkpt>
      <trkpt lat="49.14809" lon="4.1269">
        <ele>292.86</ele>
        <time>2021-08-09T14:02:30Z</time>
      </trkpt>
      <trkpt lat="49.14808" lon="4.12733">
        <ele>293.82</ele>
        <time>2021-08-09T14:02:37Z</time>
      </trkpt>
      <trkpt lat="49.14803" lon="4.12804">
        <ele>294.78</ele>
        <time>2021-08-09T14:02:48Z</time>
      </trkpt>
      <trkpt lat="49.14802" lon="4.12837">
        <ele>294.78</ele>
        <time>2021-08-09T14:02:53Z</time>
      </trkpt>
      <trkpt lat="49.14802" lon="4.12843">
        <ele>294.78</ele>
        <time>2021-08-09T14:02:54Z</time>
      </trkpt>
      <trkpt lat="49.14801" lon="4.1285">
        <ele>295.26</ele>
        <time>2021-08-09T14:02:55Z</time>
      </trkpt>
      <trkpt lat="49.14797" lon="4.12917">
        <ele>295.26</ele>
        <time>2021-08-09T14:03:05Z</time>
      </trkpt>
      <trkpt lat="49.14795" lon="4.1298">
        <ele>296.22</ele>
        <time>2021-08-09T14:03:15Z</time>
      </trkpt>
      <trkpt lat="49.14794" lon="4.12987">
        <ele>296.22</ele>
        <time>2021-08-09T14:03:16Z</time>
      </trkpt>
      <trkpt lat="49.14795" lon="4.12993">
        <ele>296.7</ele>
        <time>2021-08-09T14:03:17Z</time>
      </trkpt>
      <trkpt lat="49.14795" lon="4.12999">
        <ele>296.7</ele>
        <time>2021-08-09T14:03:18Z</time>
      </trkpt>
      <trkpt lat="49.14792" lon="4.13033">
        <ele>296.7</ele>
        <time>2021-08-09T14:03:23Z</time>
      </trkpt>
      <trkpt lat="49.14792" lon="4.1304">
        <ele>296.7</ele>
        <time>2021-08-09T14:03:24Z</time>
      </trkpt>
      <trkpt lat="49.14792" lon="4.13053">
        <ele>296.7</ele>
        <time>2021-08-09T14:03:26Z</time>
      </trkpt>
      <trkpt lat="49.14789" lon="4.13101">
        <ele>296.7</ele>
        <time>2021-08-09T14:03:33Z</time>
      </trkpt>
      <trkpt lat="49.14789" lon="4.13115">
        <ele>296.7</ele>
        <time>2021-08-09T14:03:35Z</time>
      </trkpt>
      <trkpt lat="49.14787" lon="4.13176">
        <ele>297.18</ele>
        <time>2021-08-09T14:03:44Z</time>
      </trkpt>
      <trkpt lat="49.14786" lon="4.13183">
        <ele>297.18</ele>
        <time>2021-08-09T14:03:45Z</time>
      </trkpt>
      <trkpt lat="49.14785" lon="4.13192">
        <ele>297.18</ele>
        <time>2021-08-09T14:03:46Z</time>
      </trkpt>
      <trkpt lat="49.14783" lon="4.13222">
        <ele>297.18</ele>
        <time>2021-08-09T14:03:50Z</time>
      </trkpt>
      <trkpt lat="49.14777" lon="4.13264">
        <ele>297.18</ele>
        <time>2021-08-09T14:03:57Z</time>
      </trkpt>
      <trkpt lat="49.14779" lon="4.13307">
        <ele>297.18</ele>
        <time>2021-08-09T14:04:04Z</time>
      </trkpt>
      <trkpt lat="49.14785" lon="4.13355">
        <ele>296.7</ele>
        <time>2021-08-09T14:04:12Z</time>
      </trkpt>
      <trkpt lat="49.14789" lon="4.13408">
        <ele>296.7</ele>
        <time>2021-08-09T14:04:20Z</time>
      </trkpt>
      <trkpt lat="49.14791" lon="4.13421">
        <ele>296.7</ele>
        <time>2021-08-09T14:04:22Z</time>
      </trkpt>
      <trkpt lat="49.14792" lon="4.13428">
        <ele>296.7</ele>
        <time>2021-08-09T14:04:23Z</time>
      </trkpt>
      <trkpt lat="49.14794" lon="4.13435">
        <ele>296.7</ele>
        <time>2021-08-09T14:04:24Z</time>
      </trkpt>
      <trkpt lat="49.14795" lon="4.13441">
        <ele>296.7</ele>
        <time>2021-08-09T14:04:25Z</time>
      </trkpt>
      <trkpt lat="49.14796" lon="4.13448">
        <ele>296.7</ele>
        <time>2021-08-09T14:04:26Z</time>
      </trkpt>
      <trkpt lat="49.14811" lon="4.135">
        <ele>295.74</ele>
        <time>2021-08-09T14:04:34Z</time>
      </trkpt>
      <trkpt lat="49.14817" lon="4.1352">
        <ele>295.74</ele>
        <time>2021-08-09T14:04:37Z</time>
      </trkpt>
      <trkpt lat="49.14826" lon="4.13555">
        <ele>295.74</ele>
        <time>2021-08-09T14:04:42Z</time>
      </trkpt>
      <trkpt lat="49.14827" lon="4.13563">
        <ele>295.74</ele>
        <time>2021-08-09T14:04:43Z</time>
      </trkpt>
      <trkpt lat="49.1483" lon="4.13592">
        <ele>295.26</ele>
        <time>2021-08-09T14:04:47Z</time>
      </trkpt>
      <trkpt lat="49.1483" lon="4.136">
        <ele>295.26</ele>
        <time>2021-08-09T14:04:48Z</time>
      </trkpt>
      <trkpt lat="49.1483" lon="4.13608">
        <ele>295.26</ele>
        <time>2021-08-09T14:04:49Z</time>
      </trkpt>
      <trkpt lat="49.14827" lon="4.13655">
        <ele>295.26</ele>
        <time>2021-08-09T14:04:55Z</time>
      </trkpt>
      <trkpt lat="49.14826" lon="4.13663">
        <ele>295.26</ele>
        <time>2021-08-09T14:04:56Z</time>
      </trkpt>
      <trkpt lat="49.14824" lon="4.13671">
        <ele>294.78</ele>
        <time>2021-08-09T14:04:57Z</time>
      </trkpt>
      <trkpt lat="49.14822" lon="4.13679">
        <ele>294.78</ele>
        <time>2021-08-09T14:04:58Z</time>
      </trkpt>
      <trkpt lat="49.14819" lon="4.13687">
        <ele>294.78</ele>
        <time>2021-08-09T14:04:59Z</time>
      </trkpt>
      <trkpt lat="49.14806" lon="4.13717">
        <ele>294.78</ele>
        <time>2021-08-09T14:05:03Z</time>
      </trkpt>
      <trkpt lat="49.14799" lon="4.13731">
        <ele>294.78</ele>
        <time>2021-08-09T14:05:05Z</time>
      </trkpt>
      <trkpt lat="49.14795" lon="4.13737">
        <ele>294.78</ele>
        <time>2021-08-09T14:05:06Z</time>
      </trkpt>
      <trkpt lat="49.14763" lon="4.13788">
        <ele>294.3</ele>
        <time>2021-08-09T14:05:14Z</time>
      </trkpt>
      <trkpt lat="49.14729" lon="4.13856">
        <ele>293.82</ele>
        <time>2021-08-09T14:05:24Z</time>
      </trkpt>
      <trkpt lat="49.14703" lon="4.13913">
        <ele>293.82</ele>
        <time>2021-08-09T14:05:32Z</time>
      </trkpt>
      <trkpt lat="49.14675" lon="4.13972">
        <ele>293.34</ele>
        <time>2021-08-09T14:05:41Z</time>
      </trkpt>
      <trkpt lat="49.1466" lon="4.14014">
        <ele>292.86</ele>
        <time>2021-08-09T14:05:47Z</time>
      </trkpt>
      <trkpt lat="49.1465" lon="4.14089">
        <ele>292.86</ele>
        <time>2021-08-09T14:05:56Z</time>
      </trkpt>
      <trkpt lat="49.14649" lon="4.14098">
        <ele>292.86</ele>
        <time>2021-08-09T14:05:57Z</time>
      </trkpt>
      <trkpt lat="49.14648" lon="4.14106">
        <ele>292.86</ele>
        <time>2021-08-09T14:05:58Z</time>
      </trkpt>
      <trkpt lat="49.14642" lon="4.14193">
        <ele>293.82</ele>
        <time>2021-08-09T14:06:08Z</time>
      </trkpt>
      <trkpt lat="49.14641" lon="4.14239">
        <ele>293.82</ele>
        <time>2021-08-09T14:06:14Z</time>
      </trkpt>
      <trkpt lat="49.14645" lon="4.14315">
        <ele>294.3</ele>
        <time>2021-08-09T14:06:24Z</time>
      </trkpt>
      <trkpt lat="49.14649" lon="4.14384">
        <ele>294.3</ele>
        <time>2021-08-09T14:06:33Z</time>
      </trkpt>
      <trkpt lat="49.14652" lon="4.14441">
        <ele>294.3</ele>
        <time>2021-08-09T14:06:41Z</time>
      </trkpt>
      <trkpt lat="49.14653" lon="4.14454">
        <ele>294.3</ele>
        <time>2021-08-09T14:06:43Z</time>
      </trkpt>
      <trkpt lat="49.14653" lon="4.14461">
        <ele>294.3</ele>
        <time>2021-08-09T14:06:44Z</time>
      </trkpt>
      <trkpt lat="49.14655" lon="4.14494">
        <ele>294.3</ele>
        <time>2021-08-09T14:06:49Z</time>
      </trkpt>
      <trkpt lat="49.14658" lon="4.14552">
        <ele>292.38</ele>
        <time>2021-08-09T14:06:56Z</time>
      </trkpt>
      <trkpt lat="49.14659" lon="4.1456">
        <ele>292.38</ele>
        <time>2021-08-09T14:06:57Z</time>
      </trkpt>
      <trkpt lat="49.14663" lon="4.14626">
        <ele>292.38</ele>
        <time>2021-08-09T14:07:05Z</time>
      </trkpt>
      <trkpt lat="49.14666" lon="4.14694">
        <ele>291.9</ele>
        <time>2021-08-09T14:07:13Z</time>
      </trkpt>
      <trkpt lat="49.14671" lon="4.14777">
        <ele>291.9</ele>
        <time>2021-08-09T14:07:23Z</time>
      </trkpt>
      <trkpt lat="49.14675" lon="4.14864">
        <ele>290.94</ele>
        <time>2021-08-09T14:07:33Z</time>
      </trkpt>
      <trkpt lat="49.14677" lon="4.14923">
        <ele>290.46</ele>
        <time>2021-08-09T14:07:40Z</time>
      </trkpt>
      <trkpt lat="49.14678" lon="4.14978">
        <ele>290.46</ele>
        <time>2021-08-09T14:07:47Z</time>
      </trkpt>
      <trkpt lat="49.14679" lon="4.14985">
        <ele>290.46</ele>
        <time>2021-08-09T14:07:48Z</time>
      </trkpt>
      <trkpt lat="49.1468" lon="4.15">
        <ele>289.97</ele>
        <time>2021-08-09T14:07:50Z</time>
      </trkpt>
      <trkpt lat="49.14681" lon="4.15023">
        <ele>289.97</ele>
        <time>2021-08-09T14:07:53Z</time>
      </trkpt>
      <trkpt lat="49.14681" lon="4.15031">
        <ele>289.49</ele>
        <time>2021-08-09T14:07:54Z</time>
      </trkpt>
      <trkpt lat="49.14684" lon="4.15092">
        <ele>288.53</ele>
        <time>2021-08-09T14:08:01Z</time>
      </trkpt>
      <trkpt lat="49.14684" lon="4.151">
        <ele>288.05</ele>
        <time>2021-08-09T14:08:02Z</time>
      </trkpt>
      <trkpt lat="49.14685" lon="4.15151">
        <ele>286.61</ele>
        <time>2021-08-09T14:08:08Z</time>
      </trkpt>
      <trkpt lat="49.14685" lon="4.1516">
        <ele>286.61</ele>
        <time>2021-08-09T14:08:09Z</time>
      </trkpt>
      <trkpt lat="49.14683" lon="4.15169">
        <ele>286.61</ele>
        <time>2021-08-09T14:08:10Z</time>
      </trkpt>
      <trkpt lat="49.14681" lon="4.15176">
        <ele>286.13</ele>
        <time>2021-08-09T14:08:11Z</time>
      </trkpt>
      <trkpt lat="49.14677" lon="4.15184">
        <ele>286.13</ele>
        <time>2021-08-09T14:08:12Z</time>
      </trkpt>
      <trkpt lat="49.14674" lon="4.15189">
        <ele>286.13</ele>
        <time>2021-08-09T14:08:13Z</time>
      </trkpt>
      <trkpt lat="49.14662" lon="4.15201">
        <ele>286.13</ele>
        <time>2021-08-09T14:08:16Z</time>
      </trkpt>
      <trkpt lat="49.14659" lon="4.15205">
        <ele>286.13</ele>
        <time>2021-08-09T14:08:17Z</time>
      </trkpt>
      <trkpt lat="49.14639" lon="4.15228">
        <ele>288.05</ele>
        <time>2021-08-09T14:08:24Z</time>
      </trkpt>
      <trkpt lat="49.14612" lon="4.15258">
        <ele>288.05</ele>
        <time>2021-08-09T14:08:33Z</time>
      </trkpt>
      <trkpt lat="49.14586" lon="4.15288">
        <ele>288.53</ele>
        <time>2021-08-09T14:08:41Z</time>
      </trkpt>
      <trkpt lat="49.14552" lon="4.15321">
        <ele>288.53</ele>
        <time>2021-08-09T14:08:50Z</time>
      </trkpt>
      <trkpt lat="49.14532" lon="4.15346">
        <ele>289.49</ele>
        <time>2021-08-09T14:08:56Z</time>
      </trkpt>
      <trkpt lat="49.14496" lon="4.15384">
        <ele>289.97</ele>
        <time>2021-08-09T14:09:05Z</time>
      </trkpt>
      <trkpt lat="49.14488" lon="4.15392">
        <ele>289.97</ele>
        <time>2021-08-09T14:09:07Z</time>
      </trkpt>
      <trkpt lat="49.14477" lon="4.15406">
        <ele>289.97</ele>
        <time>2021-08-09T14:09:10Z</time>
      </trkpt>
      <trkpt lat="49.1446" lon="4.15423">
        <ele>289.97</ele>
        <time>2021-08-09T14:09:14Z</time>
      </trkpt>
      <trkpt lat="49.1443" lon="4.15456">
        <ele>289.97</ele>
        <time>2021-08-09T14:09:21Z</time>
      </trkpt>
      <trkpt lat="49.14427" lon="4.15459">
        <ele>289.97</ele>
        <time>2021-08-09T14:09:22Z</time>
      </trkpt>
      <trkpt lat="49.14402" lon="4.15486">
        <ele>288.53</ele>
        <time>2021-08-09T14:09:28Z</time>
      </trkpt>
      <trkpt lat="49.14392" lon="4.15494">
        <ele>288.53</ele>
        <time>2021-08-09T14:09:30Z</time>
      </trkpt>
      <trkpt lat="49.1436" lon="4.15526">
        <ele>288.53</ele>
        <time>2021-08-09T14:09:37Z</time>
      </trkpt>
      <trkpt lat="49.14355" lon="4.1553">
        <ele>288.53</ele>
        <time>2021-08-09T14:09:38Z</time>
      </trkpt>
      <trkpt lat="49.1435" lon="4.15533">
        <ele>288.53</ele>
        <time>2021-08-09T14:09:39Z</time>
      </trkpt>
      <trkpt lat="49.14345" lon="4.15535">
        <ele>288.53</ele>
        <time>2021-08-09T14:09:40Z</time>
      </trkpt>
      <trkpt lat="49.1434" lon="4.15536">
        <ele>288.53</ele>
        <time>2021-08-09T14:09:41Z</time>
      </trkpt>
      <trkpt lat="49.14335" lon="4.15537">
        <ele>288.53</ele>
        <time>2021-08-09T14:09:42Z</time>
      </trkpt>
      <trkpt lat="49.1433" lon="4.15537">
        <ele>288.53</ele>
        <time>2021-08-09T14:09:43Z</time>
      </trkpt>
      <trkpt lat="49.14325" lon="4.15539">
        <ele>288.53</ele>
        <time>2021-08-09T14:09:44Z</time>
      </trkpt>
      <trkpt lat="49.14301" lon="4.1555">
        <ele>287.57</ele>
        <time>2021-08-09T14:09:49Z</time>
      </trkpt>
      <trkpt lat="49.14297" lon="4.15555">
        <ele>287.09</ele>
        <time>2021-08-09T14:09:50Z</time>
      </trkpt>
      <trkpt lat="49.14293" lon="4.15558">
        <ele>287.09</ele>
        <time>2021-08-09T14:09:51Z</time>
      </trkpt>
      <trkpt lat="49.1429" lon="4.1556">
        <ele>287.09</ele>
        <time>2021-08-09T14:09:52Z</time>
      </trkpt>
      <trkpt lat="49.14287" lon="4.15561">
        <ele>287.09</ele>
        <time>2021-08-09T14:09:53Z</time>
      </trkpt>
      <trkpt lat="49.14285" lon="4.15561">
        <ele>287.09</ele>
        <time>2021-08-09T14:09:54Z</time>
      </trkpt>
      <trkpt lat="49.14282" lon="4.15561">
        <ele>287.09</ele>
        <time>2021-08-09T14:09:55Z</time>
      </trkpt>
      <trkpt lat="49.1428" lon="4.15561">
        <ele>287.09</ele>
        <time>2021-08-09T14:09:56Z</time>
      </trkpt>
      <trkpt lat="49.14277" lon="4.15561">
        <ele>287.09</ele>
        <time>2021-08-09T14:09:57Z</time>
      </trkpt>
      <trkpt lat="49.14259" lon="4.1557">
        <ele>288.05</ele>
        <time>2021-08-09T14:10:03Z</time>
      </trkpt>
      <trkpt lat="49.14256" lon="4.15572">
        <ele>288.05</ele>
        <time>2021-08-09T14:10:04Z</time>
      </trkpt>
      <trkpt lat="49.14234" lon="4.15584">
        <ele>288.05</ele>
        <time>2021-08-09T14:10:11Z</time>
      </trkpt>
      <trkpt lat="49.14214" lon="4.15592">
        <ele>289.01</ele>
        <time>2021-08-09T14:10:16Z</time>
      </trkpt>
      <trkpt lat="49.14193" lon="4.15601">
        <ele>289.01</ele>
        <time>2021-08-09T14:10:21Z</time>
      </trkpt>
      <trkpt lat="49.14188" lon="4.15603">
        <ele>289.01</ele>
        <time>2021-08-09T14:10:22Z</time>
      </trkpt>
      <trkpt lat="49.14168" lon="4.15614">
        <ele>289.01</ele>
        <time>2021-08-09T14:10:27Z</time>
      </trkpt>
      <trkpt lat="49.14164" lon="4.15617">
        <ele>289.01</ele>
        <time>2021-08-09T14:10:28Z</time>
      </trkpt>
      <trkpt lat="49.14141" lon="4.15638">
        <ele>289.49</ele>
        <time>2021-08-09T14:10:35Z</time>
      </trkpt>
      <trkpt lat="49.14118" lon="4.15643">
        <ele>290.94</ele>
        <time>2021-08-09T14:10:42Z</time>
      </trkpt>
      <trkpt lat="49.141" lon="4.15632">
        <ele>292.38</ele>
        <time>2021-08-09T14:10:48Z</time>
      </trkpt>
      <trkpt lat="49.14097" lon="4.15632">
        <ele>292.86</ele>
        <time>2021-08-09T14:10:49Z</time>
      </trkpt>
      <trkpt lat="49.14093" lon="4.15634">
        <ele>292.86</ele>
        <time>2021-08-09T14:10:50Z</time>
      </trkpt>
      <trkpt lat="49.14091" lon="4.15636">
        <ele>292.86</ele>
        <time>2021-08-09T14:10:51Z</time>
      </trkpt>
      <trkpt lat="49.14088" lon="4.15638">
        <ele>292.86</ele>
        <time>2021-08-09T14:10:52Z</time>
      </trkpt>
      <trkpt lat="49.14087" lon="4.1564">
        <ele>292.86</ele>
        <time>2021-08-09T14:10:53Z</time>
      </trkpt>
      <trkpt lat="49.14085" lon="4.15642">
        <ele>292.86</ele>
        <time>2021-08-09T14:10:54Z</time>
      </trkpt>
      <trkpt lat="49.14084" lon="4.15646">
        <ele>292.86</ele>
        <time>2021-08-09T14:10:55Z</time>
      </trkpt>
      <trkpt lat="49.14083" lon="4.1565">
        <ele>292.86</ele>
        <time>2021-08-09T14:10:56Z</time>
      </trkpt>
      <trkpt lat="49.14082" lon="4.15655">
        <ele>292.86</ele>
        <time>2021-08-09T14:10:57Z</time>
      </trkpt>
      <trkpt lat="49.14083" lon="4.15657">
        <ele>292.86</ele>
        <time>2021-08-09T14:10:58Z</time>
      </trkpt>
      <trkpt lat="49.14086" lon="4.15662">
        <ele>292.86</ele>
        <time>2021-08-09T14:10:59Z</time>
      </trkpt>
      <trkpt lat="49.14099" lon="4.15677">
        <ele>291.42</ele>
        <time>2021-08-09T14:11:03Z</time>
      </trkpt>
      <trkpt lat="49.14113" lon="4.15694">
        <ele>290.94</ele>
        <time>2021-08-09T14:11:07Z</time>
      </trkpt>
      <trkpt lat="49.14116" lon="4.15716">
        <ele>290.46</ele>
        <time>2021-08-09T14:11:11Z</time>
      </trkpt>
      <trkpt lat="49.14102" lon="4.15735">
        <ele>290.46</ele>
        <time>2021-08-09T14:11:16Z</time>
      </trkpt>
      <trkpt lat="49.14071" lon="4.15772">
        <ele>291.9</ele>
        <time>2021-08-09T14:11:25Z</time>
      </trkpt>
      <trkpt lat="49.14063" lon="4.15779">
        <ele>291.9</ele>
        <time>2021-08-09T14:11:27Z</time>
      </trkpt>
      <trkpt lat="49.14055" lon="4.15785">
        <ele>291.9</ele>
        <time>2021-08-09T14:11:29Z</time>
      </trkpt>
      <trkpt lat="49.14025" lon="4.15814">
        <ele>292.86</ele>
        <time>2021-08-09T14:11:37Z</time>
      </trkpt>
      <trkpt lat="49.14011" lon="4.15829">
        <ele>292.86</ele>
        <time>2021-08-09T14:11:41Z</time>
      </trkpt>
      <trkpt lat="49.14004" lon="4.15839">
        <ele>292.86</ele>
        <time>2021-08-09T14:11:43Z</time>
      </trkpt>
      <trkpt lat="49.14001" lon="4.15843">
        <ele>292.86</ele>
        <time>2021-08-09T14:11:44Z</time>
      </trkpt>
      <trkpt lat="49.13982" lon="4.15874">
        <ele>293.82</ele>
        <time>2021-08-09T14:11:50Z</time>
      </trkpt>
      <trkpt lat="49.1398" lon="4.15881">
        <ele>293.82</ele>
        <time>2021-08-09T14:11:51Z</time>
      </trkpt>
      <trkpt lat="49.13971" lon="4.15919">
        <ele>292.38</ele>
        <time>2021-08-09T14:11:56Z</time>
      </trkpt>
      <trkpt lat="49.13962" lon="4.15962">
        <ele>291.42</ele>
        <time>2021-08-09T14:12:01Z</time>
      </trkpt>
      <trkpt lat="49.1396" lon="4.15971">
        <ele>291.42</ele>
        <time>2021-08-09T14:12:02Z</time>
      </trkpt>
      <trkpt lat="49.13958" lon="4.15979">
        <ele>290.46</ele>
        <time>2021-08-09T14:12:03Z</time>
      </trkpt>
      <trkpt lat="49.13955" lon="4.15988">
        <ele>290.46</ele>
        <time>2021-08-09T14:12:04Z</time>
      </trkpt>
      <trkpt lat="49.13953" lon="4.15995">
        <ele>290.46</ele>
        <time>2021-08-09T14:12:05Z</time>
      </trkpt>
      <trkpt lat="49.13946" lon="4.1602">
        <ele>290.46</ele>
        <time>2021-08-09T14:12:08Z</time>
      </trkpt>
      <trkpt lat="49.13944" lon="4.16029">
        <ele>290.46</ele>
        <time>2021-08-09T14:12:09Z</time>
      </trkpt>
      <trkpt lat="49.13926" lon="4.16119">
        <ele>289.97</ele>
        <time>2021-08-09T14:12:19Z</time>
      </trkpt>
      <trkpt lat="49.13909" lon="4.16191">
        <ele>288.05</ele>
        <time>2021-08-09T14:12:26Z</time>
      </trkpt>
      <trkpt lat="49.13891" lon="4.16242">
        <ele>287.09</ele>
        <time>2021-08-09T14:12:31Z</time>
      </trkpt>
      <trkpt lat="49.13881" lon="4.16279">
        <ele>285.65</ele>
        <time>2021-08-09T14:12:34Z</time>
      </trkpt>
      <trkpt lat="49.13855" lon="4.16377">
        <ele>284.21</ele>
        <time>2021-08-09T14:12:42Z</time>
      </trkpt>
      <trkpt lat="49.13841" lon="4.16446">
        <ele>284.21</ele>
        <time>2021-08-09T14:12:48Z</time>
      </trkpt>
      <trkpt lat="49.13833" lon="4.16533">
        <ele>284.21</ele>
        <time>2021-08-09T14:12:56Z</time>
      </trkpt>
      <trkpt lat="49.13822" lon="4.16631">
        <ele>282.28</ele>
        <time>2021-08-09T14:13:05Z</time>
      </trkpt>
      <trkpt lat="49.13808" lon="4.16712">
        <ele>280.84</ele>
        <time>2021-08-09T14:13:12Z</time>
      </trkpt>
      <trkpt lat="49.13805" lon="4.16724">
        <ele>280.36</ele>
        <time>2021-08-09T14:13:13Z</time>
      </trkpt>
      <trkpt lat="49.138" lon="4.16735">
        <ele>279.4</ele>
        <time>2021-08-09T14:13:14Z</time>
      </trkpt>
      <trkpt lat="49.13795" lon="4.16746">
        <ele>278.44</ele>
        <time>2021-08-09T14:13:15Z</time>
      </trkpt>
      <trkpt lat="49.13789" lon="4.16757">
        <ele>277.48</ele>
        <time>2021-08-09T14:13:16Z</time>
      </trkpt>
      <trkpt lat="49.13782" lon="4.16766">
        <ele>277.48</ele>
        <time>2021-08-09T14:13:17Z</time>
      </trkpt>
      <trkpt lat="49.13761" lon="4.16794">
        <ele>276.04</ele>
        <time>2021-08-09T14:13:20Z</time>
      </trkpt>
      <trkpt lat="49.1372" lon="4.16845">
        <ele>275.07</ele>
        <time>2021-08-09T14:13:26Z</time>
      </trkpt>
      <trkpt lat="49.1371" lon="4.16859">
        <ele>274.59</ele>
        <time>2021-08-09T14:13:28Z</time>
      </trkpt>
      <trkpt lat="49.13703" lon="4.16865">
        <ele>274.59</ele>
        <time>2021-08-09T14:13:29Z</time>
      </trkpt>
      <trkpt lat="49.13697" lon="4.1687">
        <ele>274.59</ele>
        <time>2021-08-09T14:13:30Z</time>
      </trkpt>
      <trkpt lat="49.13648" lon="4.16895">
        <ele>273.15</ele>
        <time>2021-08-09T14:13:37Z</time>
      </trkpt>
      <trkpt lat="49.13617" lon="4.16896">
        <ele>272.67</ele>
        <time>2021-08-09T14:13:41Z</time>
      </trkpt>
      <trkpt lat="49.13563" lon="4.16882">
        <ele>269.31</ele>
        <time>2021-08-09T14:13:48Z</time>
      </trkpt>
      <trkpt lat="49.13529" lon="4.16875">
        <ele>266.9</ele>
        <time>2021-08-09T14:13:52Z</time>
      </trkpt>
      <trkpt lat="49.13489" lon="4.16865">
        <ele>264.98</ele>
        <time>2021-08-09T14:13:57Z</time>
      </trkpt>
      <trkpt lat="49.1347" lon="4.16863">
        <ele>263.06</ele>
        <time>2021-08-09T14:14:00Z</time>
      </trkpt>
      <trkpt lat="49.13464" lon="4.16867">
        <ele>262.58</ele>
        <time>2021-08-09T14:14:01Z</time>
      </trkpt>
      <trkpt lat="49.13457" lon="4.16873">
        <ele>261.62</ele>
        <time>2021-08-09T14:14:02Z</time>
      </trkpt>
      <trkpt lat="49.1345" lon="4.16881">
        <ele>260.65</ele>
        <time>2021-08-09T14:14:03Z</time>
      </trkpt>
      <trkpt lat="49.13445" lon="4.16889">
        <ele>260.65</ele>
        <time>2021-08-09T14:14:04Z</time>
      </trkpt>
      <trkpt lat="49.1344" lon="4.16898">
        <ele>260.65</ele>
        <time>2021-08-09T14:14:05Z</time>
      </trkpt>
      <trkpt lat="49.13434" lon="4.16908">
        <ele>259.69</ele>
        <time>2021-08-09T14:14:06Z</time>
      </trkpt>
      <trkpt lat="49.13394" lon="4.1699">
        <ele>258.73</ele>
        <time>2021-08-09T14:14:14Z</time>
      </trkpt>
      <trkpt lat="49.13371" lon="4.17068">
        <ele>257.77</ele>
        <time>2021-08-09T14:14:21Z</time>
      </trkpt>
      <trkpt lat="49.13367" lon="4.17077">
        <ele>257.77</ele>
        <time>2021-08-09T14:14:22Z</time>
      </trkpt>
      <trkpt lat="49.13363" lon="4.17085">
        <ele>257.77</ele>
        <time>2021-08-09T14:14:23Z</time>
      </trkpt>
      <trkpt lat="49.13358" lon="4.17092">
        <ele>257.77</ele>
        <time>2021-08-09T14:14:24Z</time>
      </trkpt>
      <trkpt lat="49.13353" lon="4.171">
        <ele>257.29</ele>
        <time>2021-08-09T14:14:25Z</time>
      </trkpt>
      <trkpt lat="49.13323" lon="4.17144">
        <ele>253.93</ele>
        <time>2021-08-09T14:14:30Z</time>
      </trkpt>
      <trkpt lat="49.13319" lon="4.17155">
        <ele>253.93</ele>
        <time>2021-08-09T14:14:31Z</time>
      </trkpt>
      <trkpt lat="49.13313" lon="4.17179">
        <ele>253.44</ele>
        <time>2021-08-09T14:14:33Z</time>
      </trkpt>
      <trkpt lat="49.13312" lon="4.17189">
        <ele>252.96</ele>
        <time>2021-08-09T14:14:34Z</time>
      </trkpt>
      <trkpt lat="49.13312" lon="4.17201">
        <ele>252.48</ele>
        <time>2021-08-09T14:14:35Z</time>
      </trkpt>
      <trkpt lat="49.13314" lon="4.17213">
        <ele>252.48</ele>
        <time>2021-08-09T14:14:36Z</time>
      </trkpt>
      <trkpt lat="49.13317" lon="4.17223">
        <ele>252</ele>
        <time>2021-08-09T14:14:37Z</time>
      </trkpt>
      <trkpt lat="49.13321" lon="4.17233">
        <ele>252</ele>
        <time>2021-08-09T14:14:38Z</time>
      </trkpt>
      <trkpt lat="49.13326" lon="4.17242">
        <ele>252</ele>
        <time>2021-08-09T14:14:39Z</time>
      </trkpt>
      <trkpt lat="49.13331" lon="4.17252">
        <ele>251.52</ele>
        <time>2021-08-09T14:14:40Z</time>
      </trkpt>
      <trkpt lat="49.13375" lon="4.17335">
        <ele>250.56</ele>
        <time>2021-08-09T14:14:49Z</time>
      </trkpt>
      <trkpt lat="49.13403" lon="4.1742">
        <ele>249.6</ele>
        <time>2021-08-09T14:14:57Z</time>
      </trkpt>
      <trkpt lat="49.13413" lon="4.1749">
        <ele>247.68</ele>
        <time>2021-08-09T14:15:03Z</time>
      </trkpt>
      <trkpt lat="49.13411" lon="4.17569">
        <ele>247.68</ele>
        <time>2021-08-09T14:15:10Z</time>
      </trkpt>
      <trkpt lat="49.13409" lon="4.17606">
        <ele>249.12</ele>
        <time>2021-08-09T14:15:14Z</time>
      </trkpt>
      <trkpt lat="49.1341" lon="4.17613">
        <ele>249.6</ele>
        <time>2021-08-09T14:15:15Z</time>
      </trkpt>
      <trkpt lat="49.13412" lon="4.17632">
        <ele>250.56</ele>
        <time>2021-08-09T14:15:18Z</time>
      </trkpt>
      <trkpt lat="49.13418" lon="4.17669">
        <ele>250.56</ele>
        <time>2021-08-09T14:15:24Z</time>
      </trkpt>
      <trkpt lat="49.13418" lon="4.17699">
        <ele>249.12</ele>
        <time>2021-08-09T14:15:29Z</time>
      </trkpt>
      <trkpt lat="49.13412" lon="4.17721">
        <ele>248.64</ele>
        <time>2021-08-09T14:15:33Z</time>
      </trkpt>
      <trkpt lat="49.13405" lon="4.17735">
        <ele>248.16</ele>
        <time>2021-08-09T14:15:36Z</time>
      </trkpt>
      <trkpt lat="49.13403" lon="4.17738">
        <ele>248.16</ele>
        <time>2021-08-09T14:15:37Z</time>
      </trkpt>
      <trkpt lat="49.13401" lon="4.1774">
        <ele>248.16</ele>
        <time>2021-08-09T14:15:38Z</time>
      </trkpt>
      <trkpt lat="49.13402" lon="4.17742">
        <ele>248.16</ele>
        <time>2021-08-09T14:15:40Z</time>
      </trkpt>
      <trkpt lat="49.13403" lon="4.17741">
        <ele>248.16</ele>
        <time>2021-08-09T14:15:41Z</time>
      </trkpt>
      <trkpt lat="49.13403" lon="4.17739">
        <ele>248.16</ele>
        <time>2021-08-09T14:15:42Z</time>
      </trkpt>
      <trkpt lat="49.13404" lon="4.17737">
        <ele>248.16</ele>
        <time>2021-08-09T14:15:43Z</time>
      </trkpt>
      <trkpt lat="49.13405" lon="4.17735">
        <ele>248.16</ele>
        <time>2021-08-09T14:15:44Z</time>
      </trkpt>
      <trkpt lat="49.13406" lon="4.17733">
        <ele>248.16</ele>
        <time>2021-08-09T14:15:45Z</time>
      </trkpt>
      <trkpt lat="49.13408" lon="4.17729">
        <ele>248.16</ele>
        <time>2021-08-09T14:15:46Z</time>
      </trkpt>
      <trkpt lat="49.1341" lon="4.17726">
        <ele>248.16</ele>
        <time>2021-08-09T14:15:47Z</time>
      </trkpt>
      <trkpt lat="49.13412" lon="4.17722">
        <ele>248.16</ele>
        <time>2021-08-09T14:15:48Z</time>
      </trkpt>
      <trkpt lat="49.13414" lon="4.17717">
        <ele>248.16</ele>
        <time>2021-08-09T14:15:49Z</time>
      </trkpt>
      <trkpt lat="49.13415" lon="4.17712">
        <ele>248.16</ele>
        <time>2021-08-09T14:15:50Z</time>
      </trkpt>
      <trkpt lat="49.13416" lon="4.17707">
        <ele>248.16</ele>
        <time>2021-08-09T14:15:51Z</time>
      </trkpt>
      <trkpt lat="49.13418" lon="4.1768">
        <ele>249.6</ele>
        <time>2021-08-09T14:15:56Z</time>
      </trkpt>
      <trkpt lat="49.13415" lon="4.17661">
        <ele>250.08</ele>
        <time>2021-08-09T14:16:01Z</time>
      </trkpt>
      <trkpt lat="49.1341" lon="4.17641">
        <ele>250.08</ele>
        <time>2021-08-09T14:16:08Z</time>
      </trkpt>
      <trkpt lat="49.13406" lon="4.17612">
        <ele>250.08</ele>
        <time>2021-08-09T14:16:14Z</time>
      </trkpt>
      <trkpt lat="49.13407" lon="4.17601">
        <ele>250.08</ele>
        <time>2021-08-09T14:16:16Z</time>
      </trkpt>
      <trkpt lat="49.13409" lon="4.176">
        <ele>250.08</ele>
        <time>2021-08-09T14:16:17Z</time>
      </trkpt>
      <trkpt lat="49.13412" lon="4.17601">
        <ele>248.64</ele>
        <time>2021-08-09T14:16:18Z</time>
      </trkpt>
      <trkpt lat="49.13414" lon="4.17606">
        <ele>248.16</ele>
        <time>2021-08-09T14:16:19Z</time>
      </trkpt>
      <trkpt lat="49.13415" lon="4.1761">
        <ele>247.68</ele>
        <time>2021-08-09T14:16:20Z</time>
      </trkpt>
      <trkpt lat="49.13416" lon="4.17616">
        <ele>247.68</ele>
        <time>2021-08-09T14:16:21Z</time>
      </trkpt>
      <trkpt lat="49.13426" lon="4.17655">
        <ele>246.23</ele>
        <time>2021-08-09T14:16:27Z</time>
      </trkpt>
      <trkpt lat="49.13431" lon="4.17667">
        <ele>246.23</ele>
        <time>2021-08-09T14:16:29Z</time>
      </trkpt>
      <trkpt lat="49.13434" lon="4.17672">
        <ele>245.27</ele>
        <time>2021-08-09T14:16:30Z</time>
      </trkpt>
      <trkpt lat="49.13437" lon="4.17676">
        <ele>244.31</ele>
        <time>2021-08-09T14:16:31Z</time>
      </trkpt>
      <trkpt lat="49.13439" lon="4.17679">
        <ele>244.31</ele>
        <time>2021-08-09T14:16:32Z</time>
      </trkpt>
      <trkpt lat="49.13442" lon="4.17681">
        <ele>243.35</ele>
        <time>2021-08-09T14:16:33Z</time>
      </trkpt>
      <trkpt lat="49.13444" lon="4.17684">
        <ele>242.39</ele>
        <time>2021-08-09T14:16:34Z</time>
      </trkpt>
      <trkpt lat="49.13456" lon="4.17691">
        <ele>239.02</ele>
        <time>2021-08-09T14:16:39Z</time>
      </trkpt>
      <trkpt lat="49.13467" lon="4.177">
        <ele>236.14</ele>
        <time>2021-08-09T14:16:43Z</time>
      </trkpt>
      <trkpt lat="49.13471" lon="4.17703">
        <ele>236.14</ele>
        <time>2021-08-09T14:16:44Z</time>
      </trkpt>
      <trkpt lat="49.13482" lon="4.17711">
        <ele>234.22</ele>
        <time>2021-08-09T14:16:47Z</time>
      </trkpt>
      <trkpt lat="49.13493" lon="4.17717">
        <ele>231.81</ele>
        <time>2021-08-09T14:16:52Z</time>
      </trkpt>
      <trkpt lat="49.13505" lon="4.17727">
        <ele>229.41</ele>
        <time>2021-08-09T14:17:00Z</time>
      </trkpt>
      <trkpt lat="49.13506" lon="4.17728">
        <ele>228.45</ele>
        <time>2021-08-09T14:17:01Z</time>
      </trkpt>
      <trkpt lat="49.13508" lon="4.17729">
        <ele>228.45</ele>
        <time>2021-08-09T14:17:02Z</time>
      </trkpt>
      <trkpt lat="49.13519" lon="4.17738">
        <ele>225.57</ele>
        <time>2021-08-09T14:17:08Z</time>
      </trkpt>
      <trkpt lat="49.1353" lon="4.1775">
        <ele>223.64</ele>
        <time>2021-08-09T14:17:14Z</time>
      </trkpt>
      <trkpt lat="49.13548" lon="4.17774">
        <ele>219.8</ele>
        <time>2021-08-09T14:17:20Z</time>
      </trkpt>
      <trkpt lat="49.13551" lon="4.17778">
        <ele>219.8</ele>
        <time>2021-08-09T14:17:21Z</time>
      </trkpt>
      <trkpt lat="49.13561" lon="4.17791">
        <ele>218.36</ele>
        <time>2021-08-09T14:17:24Z</time>
      </trkpt>
      <trkpt lat="49.13575" lon="4.17812">
        <ele>215.95</ele>
        <time>2021-08-09T14:17:29Z</time>
      </trkpt>
      <trkpt lat="49.13588" lon="4.17839">
        <ele>213.55</ele>
        <time>2021-08-09T14:17:35Z</time>
      </trkpt>
      <trkpt lat="49.13592" lon="4.17849">
        <ele>213.07</ele>
        <time>2021-08-09T14:17:37Z</time>
      </trkpt>
      <trkpt lat="49.13605" lon="4.17889">
        <ele>210.67</ele>
        <time>2021-08-09T14:17:43Z</time>
      </trkpt>
      <trkpt lat="49.13608" lon="4.17898">
        <ele>209.22</ele>
        <time>2021-08-09T14:17:44Z</time>
      </trkpt>
      <trkpt lat="49.13612" lon="4.17907">
        <ele>208.26</ele>
        <time>2021-08-09T14:17:45Z</time>
      </trkpt>
      <trkpt lat="49.13614" lon="4.17914">
        <ele>208.26</ele>
        <time>2021-08-09T14:17:46Z</time>
      </trkpt>
      <trkpt lat="49.13617" lon="4.17922">
        <ele>208.26</ele>
        <time>2021-08-09T14:17:47Z</time>
      </trkpt>
      <trkpt lat="49.1362" lon="4.17934">
        <ele>207.78</ele>
        <time>2021-08-09T14:17:49Z</time>
      </trkpt>
      <trkpt lat="49.13623" lon="4.1794">
        <ele>206.82</ele>
        <time>2021-08-09T14:17:50Z</time>
      </trkpt>
      <trkpt lat="49.13627" lon="4.17944">
        <ele>206.82</ele>
        <time>2021-08-09T14:17:51Z</time>
      </trkpt>
      <trkpt lat="49.1363" lon="4.17949">
        <ele>205.86</ele>
        <time>2021-08-09T14:17:52Z</time>
      </trkpt>
      <trkpt lat="49.13633" lon="4.17953">
        <ele>204.42</ele>
        <time>2021-08-09T14:17:53Z</time>
      </trkpt>
      <trkpt lat="49.13636" lon="4.17956">
        <ele>204.42</ele>
        <time>2021-08-09T14:17:54Z</time>
      </trkpt>
      <trkpt lat="49.13638" lon="4.17959">
        <ele>203.94</ele>
        <time>2021-08-09T14:17:55Z</time>
      </trkpt>
      <trkpt lat="49.13641" lon="4.17961">
        <ele>203.94</ele>
        <time>2021-08-09T14:17:56Z</time>
      </trkpt>
      <trkpt lat="49.13643" lon="4.17965">
        <ele>202.98</ele>
        <time>2021-08-09T14:17:57Z</time>
      </trkpt>
      <trkpt lat="49.13644" lon="4.17967">
        <ele>202.98</ele>
        <time>2021-08-09T14:17:58Z</time>
      </trkpt>
      <trkpt lat="49.13645" lon="4.17969">
        <ele>202.98</ele>
        <time>2021-08-09T14:17:59Z</time>
      </trkpt>
      <trkpt lat="49.13655" lon="4.17993">
        <ele>202.49</ele>
        <time>2021-08-09T14:18:05Z</time>
      </trkpt>
      <trkpt lat="49.13663" lon="4.18025">
        <ele>201.53</ele>
        <time>2021-08-09T14:18:10Z</time>
      </trkpt>
      <trkpt lat="49.13666" lon="4.18031">
        <ele>200.57</ele>
        <time>2021-08-09T14:18:11Z</time>
      </trkpt>
      <trkpt lat="49.13669" lon="4.18037">
        <ele>200.57</ele>
        <time>2021-08-09T14:18:12Z</time>
      </trkpt>
      <trkpt lat="49.13673" lon="4.18042">
        <ele>200.09</ele>
        <time>2021-08-09T14:18:13Z</time>
      </trkpt>
      <trkpt lat="49.13677" lon="4.18047">
        <ele>200.09</ele>
        <time>2021-08-09T14:18:14Z</time>
      </trkpt>
      <trkpt lat="49.13681" lon="4.18053">
        <ele>199.13</ele>
        <time>2021-08-09T14:18:15Z</time>
      </trkpt>
      <trkpt lat="49.13686" lon="4.18059">
        <ele>198.65</ele>
        <time>2021-08-09T14:18:16Z</time>
      </trkpt>
      <trkpt lat="49.13691" lon="4.18065">
        <ele>197.69</ele>
        <time>2021-08-09T14:18:17Z</time>
      </trkpt>
      <trkpt lat="49.13695" lon="4.18071">
        <ele>197.69</ele>
        <time>2021-08-09T14:18:18Z</time>
      </trkpt>
      <trkpt lat="49.13726" lon="4.18112">
        <ele>194.8</ele>
        <time>2021-08-09T14:18:25Z</time>
      </trkpt>
      <trkpt lat="49.13752" lon="4.18142">
        <ele>193.36</ele>
        <time>2021-08-09T14:18:30Z</time>
      </trkpt>
      <trkpt lat="49.13774" lon="4.18173">
        <ele>192.88</ele>
        <time>2021-08-09T14:18:35Z</time>
      </trkpt>
      <trkpt lat="49.13777" lon="4.18181">
        <ele>192.4</ele>
        <time>2021-08-09T14:18:36Z</time>
      </trkpt>
      <trkpt lat="49.1379" lon="4.18223">
        <ele>190.48</ele>
        <time>2021-08-09T14:18:41Z</time>
      </trkpt>
      <trkpt lat="49.13805" lon="4.18279">
        <ele>186.63</ele>
        <time>2021-08-09T14:18:47Z</time>
      </trkpt>
      <trkpt lat="49.13807" lon="4.18289">
        <ele>186.63</ele>
        <time>2021-08-09T14:18:48Z</time>
      </trkpt>
      <trkpt lat="49.13814" lon="4.18322">
        <ele>184.71</ele>
        <time>2021-08-09T14:18:51Z</time>
      </trkpt>
      <trkpt lat="49.13823" lon="4.18365">
        <ele>183.27</ele>
        <time>2021-08-09T14:18:55Z</time>
      </trkpt>
      <trkpt lat="49.13829" lon="4.18395">
        <ele>181.35</ele>
        <time>2021-08-09T14:18:58Z</time>
      </trkpt>
      <trkpt lat="49.13835" lon="4.18426">
        <ele>178.46</ele>
        <time>2021-08-09T14:19:01Z</time>
      </trkpt>
      <trkpt lat="49.13842" lon="4.18458">
        <ele>176.54</ele>
        <time>2021-08-09T14:19:04Z</time>
      </trkpt>
      <trkpt lat="49.13844" lon="4.1847">
        <ele>175.58</ele>
        <time>2021-08-09T14:19:05Z</time>
      </trkpt>
      <trkpt lat="49.13845" lon="4.18495">
        <ele>173.17</ele>
        <time>2021-08-09T14:19:07Z</time>
      </trkpt>
      <trkpt lat="49.13845" lon="4.18506">
        <ele>172.21</ele>
        <time>2021-08-09T14:19:08Z</time>
      </trkpt>
      <trkpt lat="49.13842" lon="4.18548">
        <ele>169.33</ele>
        <time>2021-08-09T14:19:12Z</time>
      </trkpt>
      <trkpt lat="49.13842" lon="4.18557">
        <ele>169.33</ele>
        <time>2021-08-09T14:19:13Z</time>
      </trkpt>
      <trkpt lat="49.1384" lon="4.18565">
        <ele>168.85</ele>
        <time>2021-08-09T14:19:14Z</time>
      </trkpt>
      <trkpt lat="49.13838" lon="4.18574">
        <ele>168.37</ele>
        <time>2021-08-09T14:19:15Z</time>
      </trkpt>
      <trkpt lat="49.13836" lon="4.18583">
        <ele>167.41</ele>
        <time>2021-08-09T14:19:16Z</time>
      </trkpt>
      <trkpt lat="49.13834" lon="4.18593">
        <ele>167.41</ele>
        <time>2021-08-09T14:19:17Z</time>
      </trkpt>
      <trkpt lat="49.13831" lon="4.18605">
        <ele>166.45</ele>
        <time>2021-08-09T14:19:18Z</time>
      </trkpt>
      <trkpt lat="49.13811" lon="4.18675">
        <ele>164.52</ele>
        <time>2021-08-09T14:19:25Z</time>
      </trkpt>
      <trkpt lat="49.13792" lon="4.18739">
        <ele>161.16</ele>
        <time>2021-08-09T14:19:31Z</time>
      </trkpt>
      <trkpt lat="49.13775" lon="4.18807">
        <ele>158.75</ele>
        <time>2021-08-09T14:19:37Z</time>
      </trkpt>
      <trkpt lat="49.13769" lon="4.1883">
        <ele>157.31</ele>
        <time>2021-08-09T14:19:39Z</time>
      </trkpt>
      <trkpt lat="49.13758" lon="4.18878">
        <ele>154.43</ele>
        <time>2021-08-09T14:19:43Z</time>
      </trkpt>
      <trkpt lat="49.13744" lon="4.18943">
        <ele>151.06</ele>
        <time>2021-08-09T14:19:49Z</time>
      </trkpt>
      <trkpt lat="49.13728" lon="4.19015">
        <ele>148.66</ele>
        <time>2021-08-09T14:19:55Z</time>
      </trkpt>
      <trkpt lat="49.13716" lon="4.19078">
        <ele>146.26</ele>
        <time>2021-08-09T14:20:02Z</time>
      </trkpt>
      <trkpt lat="49.13699" lon="4.19144">
        <ele>145.78</ele>
        <time>2021-08-09T14:20:10Z</time>
      </trkpt>
      <trkpt lat="49.13684" lon="4.19191">
        <ele>145.78</ele>
        <time>2021-08-09T14:20:18Z</time>
      </trkpt>
      <trkpt lat="49.1366" lon="4.19249">
        <ele>144.82</ele>
        <time>2021-08-09T14:20:28Z</time>
      </trkpt>
      <trkpt lat="49.13657" lon="4.19254">
        <ele>144.82</ele>
        <time>2021-08-09T14:20:29Z</time>
      </trkpt>
      <trkpt lat="49.13653" lon="4.19258">
        <ele>144.82</ele>
        <time>2021-08-09T14:20:30Z</time>
      </trkpt>
      <trkpt lat="49.13622" lon="4.19291">
        <ele>143.37</ele>
        <time>2021-08-09T14:20:38Z</time>
      </trkpt>
      <trkpt lat="49.13586" lon="4.19339">
        <ele>143.37</ele>
        <time>2021-08-09T14:20:48Z</time>
      </trkpt>
      <trkpt lat="49.13556" lon="4.19394">
        <ele>142.89</ele>
        <time>2021-08-09T14:20:58Z</time>
      </trkpt>
      <trkpt lat="49.13545" lon="4.1943">
        <ele>142.89</ele>
        <time>2021-08-09T14:21:05Z</time>
      </trkpt>
      <trkpt lat="49.13541" lon="4.19442">
        <ele>143.85</ele>
        <time>2021-08-09T14:21:08Z</time>
      </trkpt>
      <trkpt lat="49.13532" lon="4.19471">
        <ele>144.82</ele>
        <time>2021-08-09T14:21:17Z</time>
      </trkpt>
      <trkpt lat="49.13529" lon="4.19493">
        <ele>145.78</ele>
        <time>2021-08-09T14:21:25Z</time>
      </trkpt>
      <trkpt lat="49.13524" lon="4.19509">
        <ele>146.74</ele>
        <time>2021-08-09T14:21:33Z</time>
      </trkpt>
      <trkpt lat="49.13515" lon="4.19519">
        <ele>146.74</ele>
        <time>2021-08-09T14:21:40Z</time>
      </trkpt>
      <trkpt lat="49.13514" lon="4.1952">
        <ele>147.22</ele>
        <time>2021-08-09T14:21:41Z</time>
      </trkpt>
      <trkpt lat="49.13505" lon="4.19525">
        <ele>147.7</ele>
        <time>2021-08-09T14:21:49Z</time>
      </trkpt>
      <trkpt lat="49.13497" lon="4.19529">
        <ele>148.66</ele>
        <time>2021-08-09T14:21:56Z</time>
      </trkpt>
      <trkpt lat="49.13496" lon="4.1953">
        <ele>148.66</ele>
        <time>2021-08-09T14:21:57Z</time>
      </trkpt>
      <trkpt lat="49.13492" lon="4.19533">
        <ele>149.14</ele>
        <time>2021-08-09T14:22:04Z</time>
      </trkpt>
      <trkpt lat="49.13491" lon="4.1953">
        <ele>149.14</ele>
        <time>2021-08-09T14:22:15Z</time>
      </trkpt>
      <trkpt lat="49.1349" lon="4.19527">
        <ele>149.14</ele>
        <time>2021-08-09T14:22:23Z</time>
      </trkpt>
      <trkpt lat="49.1349" lon="4.19525">
        <ele>149.14</ele>
        <time>2021-08-09T14:22:28Z</time>
      </trkpt>
      <trkpt lat="49.13489" lon="4.19525">
        <ele>149.14</ele>
        <time>2021-08-09T14:22:29Z</time>
      </trkpt>
      <trkpt lat="49.13489" lon="4.19527">
        <ele>149.14</ele>
        <time>2021-08-09T14:22:35Z</time>
      </trkpt>
      <trkpt lat="49.13488" lon="4.19526">
        <ele>149.14</ele>
        <time>2021-08-09T14:22:52Z</time>
      </trkpt>
      <trkpt lat="49.13487" lon="4.19526">
        <ele>149.14</ele>
        <time>2021-08-09T14:23:11Z</time>
      </trkpt>
      <trkpt lat="49.13487" lon="4.19526">
        <ele>149.14</ele>
        <time>2021-08-09T14:23:25Z</time>
      </trkpt>
      <trkpt lat="49.13488" lon="4.19526">
        <ele>149.14</ele>
        <time>2021-08-09T14:23:44Z</time>
      </trkpt>
      <trkpt lat="49.13488" lon="4.19527">
        <ele>149.14</ele>
        <time>2021-08-09T14:24:02Z</time>
      </trkpt>
      <trkpt lat="49.13486" lon="4.19525">
        <ele>149.14</ele>
        <time>2021-08-09T14:24:19Z</time>
      </trkpt>
      <trkpt lat="49.13488" lon="4.19531">
        <ele>149.14</ele>
        <time>2021-08-09T14:24:38Z</time>
      </trkpt>
      <trkpt lat="49.13489" lon="4.1953">
        <ele>149.62</ele>
        <time>2021-08-09T14:24:51Z</time>
      </trkpt>
      <trkpt lat="49.13486" lon="4.19529">
        <ele>149.62</ele>
        <time>2021-08-09T14:25:09Z</time>
      </trkpt>
      <trkpt lat="49.13487" lon="4.19526">
        <ele>149.62</ele>
        <time>2021-08-09T14:25:28Z</time>
      </trkpt>
      <trkpt lat="49.13487" lon="4.19525">
        <ele>148.18</ele>
        <time>2021-08-09T14:25:45Z</time>
      </trkpt>
      <trkpt lat="49.13487" lon="4.19522">
        <ele>148.18</ele>
        <time>2021-08-09T14:26:02Z</time>
      </trkpt>
      <trkpt lat="49.13488" lon="4.1952">
        <ele>148.66</ele>
        <time>2021-08-09T14:26:17Z</time>
      </trkpt>
      <trkpt lat="49.13488" lon="4.19521">
        <ele>148.66</ele>
        <time>2021-08-09T14:26:25Z</time>
      </trkpt>
      <trkpt lat="49.13488" lon="4.19521">
        <ele>148.66</ele>
        <time>2021-08-09T14:26:26Z</time>
      </trkpt>
      <trkpt lat="49.13488" lon="4.1952">
        <ele>148.66</ele>
        <time>2021-08-09T14:26:28Z</time>
      </trkpt>
      <trkpt lat="49.13475" lon="4.19535">
        <ele>149.62</ele>
        <time>2021-08-09T14:26:37Z</time>
      </trkpt>
      <trkpt lat="49.13455" lon="4.19548">
        <ele>151.54</ele>
        <time>2021-08-09T14:26:48Z</time>
      </trkpt>
      <trkpt lat="49.13452" lon="4.19552">
        <ele>151.54</ele>
        <time>2021-08-09T14:26:50Z</time>
      </trkpt>
      <trkpt lat="49.13453" lon="4.19553">
        <ele>151.54</ele>
        <time>2021-08-09T14:26:51Z</time>
      </trkpt>
      <trkpt lat="49.13454" lon="4.19553">
        <ele>151.54</ele>
        <time>2021-08-09T14:26:52Z</time>
      </trkpt>
      <trkpt lat="49.13456" lon="4.1955">
        <ele>151.54</ele>
        <time>2021-08-09T14:26:53Z</time>
      </trkpt>
      <trkpt lat="49.13457" lon="4.19547">
        <ele>151.54</ele>
        <time>2021-08-09T14:26:54Z</time>
      </trkpt>
      <trkpt lat="49.13458" lon="4.19545">
        <ele>151.54</ele>
        <time>2021-08-09T14:26:55Z</time>
      </trkpt>
      <trkpt lat="49.13458" lon="4.19544">
        <ele>151.54</ele>
        <time>2021-08-09T14:26:59Z</time>
      </trkpt>
      <trkpt lat="49.13459" lon="4.19547">
        <ele>151.54</ele>
        <time>2021-08-09T14:27:15Z</time>
      </trkpt>
      <trkpt lat="49.13458" lon="4.19546">
        <ele>151.54</ele>
        <time>2021-08-09T14:27:28Z</time>
      </trkpt>
      <trkpt lat="49.13458" lon="4.19547">
        <ele>151.54</ele>
        <time>2021-08-09T14:27:34Z</time>
      </trkpt>
      <trkpt lat="49.13457" lon="4.19548">
        <ele>151.54</ele>
        <time>2021-08-09T14:27:36Z</time>
      </trkpt>
      <trkpt lat="49.13456" lon="4.19549">
        <ele>151.54</ele>
        <time>2021-08-09T14:27:37Z</time>
      </trkpt>
      <trkpt lat="49.13455" lon="4.19551">
        <ele>151.54</ele>
        <time>2021-08-09T14:27:38Z</time>
      </trkpt>
      <trkpt lat="49.13454" lon="4.19552">
        <ele>151.54</ele>
        <time>2021-08-09T14:27:39Z</time>
      </trkpt>
      <trkpt lat="49.13452" lon="4.19554">
        <ele>151.54</ele>
        <time>2021-08-09T14:27:40Z</time>
      </trkpt>
      <trkpt lat="49.13436" lon="4.19572">
        <ele>152.99</ele>
        <time>2021-08-09T14:27:49Z</time>
      </trkpt>
      <trkpt lat="49.13422" lon="4.19592">
        <ele>154.91</ele>
        <time>2021-08-09T14:27:59Z</time>
      </trkpt>
      <trkpt lat="49.13408" lon="4.1961">
        <ele>156.83</ele>
        <time>2021-08-09T14:28:08Z</time>
      </trkpt>
      <trkpt lat="49.13395" lon="4.19627">
        <ele>157.79</ele>
        <time>2021-08-09T14:28:16Z</time>
      </trkpt>
      <trkpt lat="49.13383" lon="4.19646">
        <ele>159.24</ele>
        <time>2021-08-09T14:28:24Z</time>
      </trkpt>
      <trkpt lat="49.13369" lon="4.19677">
        <ele>159.72</ele>
        <time>2021-08-09T14:28:33Z</time>
      </trkpt>
      <trkpt lat="49.13353" lon="4.19713">
        <ele>160.2</ele>
        <time>2021-08-09T14:28:42Z</time>
      </trkpt>
      <trkpt lat="49.13326" lon="4.19751">
        <ele>160.2</ele>
        <time>2021-08-09T14:28:51Z</time>
      </trkpt>
      <trkpt lat="49.13298" lon="4.19789">
        <ele>160.2</ele>
        <time>2021-08-09T14:28:59Z</time>
      </trkpt>
      <trkpt lat="49.13281" lon="4.19811">
        <ele>159.24</ele>
        <time>2021-08-09T14:29:04Z</time>
      </trkpt>
      <trkpt lat="49.13254" lon="4.19857">
        <ele>159.24</ele>
        <time>2021-08-09T14:29:12Z</time>
      </trkpt>
      <trkpt lat="49.13251" lon="4.19863">
        <ele>159.24</ele>
        <time>2021-08-09T14:29:13Z</time>
      </trkpt>
      <trkpt lat="49.13219" lon="4.19919">
        <ele>155.39</ele>
        <time>2021-08-09T14:29:21Z</time>
      </trkpt>
      <trkpt lat="49.13215" lon="4.19926">
        <ele>155.39</ele>
        <time>2021-08-09T14:29:22Z</time>
      </trkpt>
      <trkpt lat="49.13198" lon="4.19948">
        <ele>153.95</ele>
        <time>2021-08-09T14:29:25Z</time>
      </trkpt>
      <trkpt lat="49.13192" lon="4.19953">
        <ele>152.99</ele>
        <time>2021-08-09T14:29:26Z</time>
      </trkpt>
      <trkpt lat="49.13186" lon="4.19958">
        <ele>152.99</ele>
        <time>2021-08-09T14:29:27Z</time>
      </trkpt>
      <trkpt lat="49.13156" lon="4.19973">
        <ele>151.06</ele>
        <time>2021-08-09T14:29:31Z</time>
      </trkpt>
      <trkpt lat="49.13123" lon="4.19981">
        <ele>148.66</ele>
        <time>2021-08-09T14:29:35Z</time>
      </trkpt>
      <trkpt lat="49.13095" lon="4.19984">
        <ele>146.26</ele>
        <time>2021-08-09T14:29:38Z</time>
      </trkpt>
      <trkpt lat="49.13077" lon="4.19986">
        <ele>145.3</ele>
        <time>2021-08-09T14:29:40Z</time>
      </trkpt>
      <trkpt lat="49.13008" lon="4.20003">
        <ele>143.37</ele>
        <time>2021-08-09T14:29:48Z</time>
      </trkpt>
      <trkpt lat="49.12968" lon="4.20038">
        <ele>143.37</ele>
        <time>2021-08-09T14:29:54Z</time>
      </trkpt>
      <trkpt lat="49.12958" lon="4.20051">
        <ele>144.34</ele>
        <time>2021-08-09T14:29:56Z</time>
      </trkpt>
      <trkpt lat="49.12898" lon="4.20127">
        <ele>144.34</ele>
        <time>2021-08-09T14:30:07Z</time>
      </trkpt>
      <trkpt lat="49.12888" lon="4.20141">
        <ele>145.78</ele>
        <time>2021-08-09T14:30:09Z</time>
      </trkpt>
      <trkpt lat="49.12884" lon="4.20149">
        <ele>145.78</ele>
        <time>2021-08-09T14:30:10Z</time>
      </trkpt>
      <trkpt lat="49.12859" lon="4.20192">
        <ele>146.74</ele>
        <time>2021-08-09T14:30:17Z</time>
      </trkpt>
      <trkpt lat="49.12852" lon="4.202">
        <ele>147.22</ele>
        <time>2021-08-09T14:30:19Z</time>
      </trkpt>
      <trkpt lat="49.12848" lon="4.20201">
        <ele>147.7</ele>
        <time>2021-08-09T14:30:20Z</time>
      </trkpt>
      <trkpt lat="49.12843" lon="4.20199">
        <ele>147.7</ele>
        <time>2021-08-09T14:30:21Z</time>
      </trkpt>
      <trkpt lat="49.12841" lon="4.20197">
        <ele>147.7</ele>
        <time>2021-08-09T14:30:22Z</time>
      </trkpt>
      <trkpt lat="49.12838" lon="4.20193">
        <ele>147.7</ele>
        <time>2021-08-09T14:30:23Z</time>
      </trkpt>
      <trkpt lat="49.12835" lon="4.2019">
        <ele>148.18</ele>
        <time>2021-08-09T14:30:24Z</time>
      </trkpt>
      <trkpt lat="49.12832" lon="4.20186">
        <ele>148.18</ele>
        <time>2021-08-09T14:30:25Z</time>
      </trkpt>
      <trkpt lat="49.12813" lon="4.2016">
        <ele>150.58</ele>
        <time>2021-08-09T14:30:33Z</time>
      </trkpt>
      <trkpt lat="49.12793" lon="4.20132">
        <ele>151.06</ele>
        <time>2021-08-09T14:30:42Z</time>
      </trkpt>
      <trkpt lat="49.1279" lon="4.20128">
        <ele>151.54</ele>
        <time>2021-08-09T14:30:47Z</time>
      </trkpt>
      <trkpt lat="49.1279" lon="4.20127">
        <ele>151.54</ele>
        <time>2021-08-09T14:30:53Z</time>
      </trkpt>
      <trkpt lat="49.12791" lon="4.20126">
        <ele>151.54</ele>
        <time>2021-08-09T14:31:06Z</time>
      </trkpt>
      <trkpt lat="49.12789" lon="4.20127">
        <ele>151.54</ele>
        <time>2021-08-09T14:31:25Z</time>
      </trkpt>
      <trkpt lat="49.12789" lon="4.20127">
        <ele>151.54</ele>
        <time>2021-08-09T14:31:31Z</time>
      </trkpt>
      <trkpt lat="49.1279" lon="4.20127">
        <ele>151.54</ele>
        <time>2021-08-09T14:31:44Z</time>
      </trkpt>
      <trkpt lat="49.1279" lon="4.20127">
        <ele>151.54</ele>
        <time>2021-08-09T14:31:58Z</time>
      </trkpt>
      <trkpt lat="49.1279" lon="4.20126">
        <ele>151.54</ele>
        <time>2021-08-09T14:32:15Z</time>
      </trkpt>
      <trkpt lat="49.12791" lon="4.20125">
        <ele>151.06</ele>
        <time>2021-08-09T14:32:29Z</time>
      </trkpt>
      <trkpt lat="49.12791" lon="4.20125">
        <ele>151.06</ele>
        <time>2021-08-09T14:32:37Z</time>
      </trkpt>
      <trkpt lat="49.12791" lon="4.20125">
        <ele>151.54</ele>
        <time>2021-08-09T14:32:39Z</time>
      </trkpt>
      <trkpt lat="49.12791" lon="4.20126">
        <ele>151.54</ele>
        <time>2021-08-09T14:32:46Z</time>
      </trkpt>
      <trkpt lat="49.1279" lon="4.20128">
        <ele>151.54</ele>
        <time>2021-08-09T14:33:02Z</time>
      </trkpt>
      <trkpt lat="49.1279" lon="4.20128">
        <ele>151.54</ele>
        <time>2021-08-09T14:33:13Z</time>
      </trkpt>
      <trkpt lat="49.1279" lon="4.20127">
        <ele>151.54</ele>
        <time>2021-08-09T14:33:26Z</time>
      </trkpt>
      <trkpt lat="49.1279" lon="4.20126">
        <ele>151.06</ele>
        <time>2021-08-09T14:33:40Z</time>
      </trkpt>
      <trkpt lat="49.1279" lon="4.20126">
        <ele>151.06</ele>
        <time>2021-08-09T14:33:52Z</time>
      </trkpt>
      <trkpt lat="49.1279" lon="4.20127">
        <ele>151.06</ele>
        <time>2021-08-09T14:34:07Z</time>
      </trkpt>
      <trkpt lat="49.1279" lon="4.20127">
        <ele>151.06</ele>
        <time>2021-08-09T14:34:23Z</time>
      </trkpt>
      <trkpt lat="49.12789" lon="4.20127">
        <ele>151.06</ele>
        <time>2021-08-09T14:34:40Z</time>
      </trkpt>
      <trkpt lat="49.12789" lon="4.20127">
        <ele>150.58</ele>
        <time>2021-08-09T14:34:52Z</time>
      </trkpt>
      <trkpt lat="49.12789" lon="4.20127">
        <ele>150.58</ele>
        <time>2021-08-09T14:35:08Z</time>
      </trkpt>
      <trkpt lat="49.12789" lon="4.20126">
        <ele>150.58</ele>
        <time>2021-08-09T14:35:23Z</time>
      </trkpt>
      <trkpt lat="49.12789" lon="4.20126">
        <ele>150.58</ele>
        <time>2021-08-09T14:35:37Z</time>
      </trkpt>
      <trkpt lat="49.12789" lon="4.20126">
        <ele>150.58</ele>
        <time>2021-08-09T14:35:54Z</time>
      </trkpt>
      <trkpt lat="49.12789" lon="4.20126">
        <ele>150.1</ele>
        <time>2021-08-09T14:36:09Z</time>
      </trkpt>
      <trkpt lat="49.12789" lon="4.20126">
        <ele>150.1</ele>
        <time>2021-08-09T14:36:21Z</time>
      </trkpt>
      <trkpt lat="49.12789" lon="4.20126">
        <ele>150.1</ele>
        <time>2021-08-09T14:36:34Z</time>
      </trkpt>
      <trkpt lat="49.12789" lon="4.20127">
        <ele>150.1</ele>
        <time>2021-08-09T14:36:49Z</time>
      </trkpt>
      <trkpt lat="49.12789" lon="4.20126">
        <ele>150.1</ele>
        <time>2021-08-09T14:37:06Z</time>
      </trkpt>
      <trkpt lat="49.12789" lon="4.20127">
        <ele>150.1</ele>
        <time>2021-08-09T14:37:15Z</time>
      </trkpt>
      <trkpt lat="49.12789" lon="4.20129">
        <ele>149.62</ele>
        <time>2021-08-09T14:37:21Z</time>
      </trkpt>
      <trkpt lat="49.12791" lon="4.20131">
        <ele>150.1</ele>
        <time>2021-08-09T14:37:25Z</time>
      </trkpt>
      <trkpt lat="49.12809" lon="4.20155">
        <ele>148.66</ele>
        <time>2021-08-09T14:37:33Z</time>
      </trkpt>
      <trkpt lat="49.12812" lon="4.20159">
        <ele>148.66</ele>
        <time>2021-08-09T14:37:34Z</time>
      </trkpt>
      <trkpt lat="49.12839" lon="4.20197">
        <ele>146.74</ele>
        <time>2021-08-09T14:37:42Z</time>
      </trkpt>
      <trkpt lat="49.12844" lon="4.20206">
        <ele>145.78</ele>
        <time>2021-08-09T14:37:44Z</time>
      </trkpt>
      <trkpt lat="49.12844" lon="4.20211">
        <ele>145.78</ele>
        <time>2021-08-09T14:37:45Z</time>
      </trkpt>
      <trkpt lat="49.12843" lon="4.20216">
        <ele>145.78</ele>
        <time>2021-08-09T14:37:46Z</time>
      </trkpt>
      <trkpt lat="49.12842" lon="4.20218">
        <ele>145.78</ele>
        <time>2021-08-09T14:37:47Z</time>
      </trkpt>
      <trkpt lat="49.1284" lon="4.20222">
        <ele>145.78</ele>
        <time>2021-08-09T14:37:48Z</time>
      </trkpt>
      <trkpt lat="49.12838" lon="4.20225">
        <ele>145.78</ele>
        <time>2021-08-09T14:37:49Z</time>
      </trkpt>
      <trkpt lat="49.12834" lon="4.20231">
        <ele>146.74</ele>
        <time>2021-08-09T14:37:51Z</time>
      </trkpt>
      <trkpt lat="49.12815" lon="4.20261">
        <ele>148.66</ele>
        <time>2021-08-09T14:38:00Z</time>
      </trkpt>
      <trkpt lat="49.12795" lon="4.20288">
        <ele>149.62</ele>
        <time>2021-08-09T14:38:09Z</time>
      </trkpt>
      <trkpt lat="49.12774" lon="4.2031">
        <ele>150.1</ele>
        <time>2021-08-09T14:38:17Z</time>
      </trkpt>
      <trkpt lat="49.12747" lon="4.20335">
        <ele>151.06</ele>
        <time>2021-08-09T14:38:26Z</time>
      </trkpt>
      <trkpt lat="49.12721" lon="4.2036">
        <ele>150.58</ele>
        <time>2021-08-09T14:38:34Z</time>
      </trkpt>
      <trkpt lat="49.12681" lon="4.20398">
        <ele>147.7</ele>
        <time>2021-08-09T14:38:43Z</time>
      </trkpt>
      <trkpt lat="49.12665" lon="4.20413">
        <ele>146.26</ele>
        <time>2021-08-09T14:38:46Z</time>
      </trkpt>
      <trkpt lat="49.12636" lon="4.20441">
        <ele>142.89</ele>
        <time>2021-08-09T14:38:51Z</time>
      </trkpt>
      <trkpt lat="49.1261" lon="4.20467">
        <ele>141.93</ele>
        <time>2021-08-09T14:38:56Z</time>
      </trkpt>
      <trkpt lat="49.12605" lon="4.20472">
        <ele>141.93</ele>
        <time>2021-08-09T14:38:57Z</time>
      </trkpt>
      <trkpt lat="49.12602" lon="4.20478">
        <ele>141.93</ele>
        <time>2021-08-09T14:38:58Z</time>
      </trkpt>
      <trkpt lat="49.126" lon="4.20484">
        <ele>141.45</ele>
        <time>2021-08-09T14:38:59Z</time>
      </trkpt>
      <trkpt lat="49.12598" lon="4.2049">
        <ele>141.45</ele>
        <time>2021-08-09T14:39:00Z</time>
      </trkpt>
      <trkpt lat="49.12597" lon="4.20496">
        <ele>141.45</ele>
        <time>2021-08-09T14:39:01Z</time>
      </trkpt>
      <trkpt lat="49.12591" lon="4.20517">
        <ele>139.53</ele>
        <time>2021-08-09T14:39:05Z</time>
      </trkpt>
      <trkpt lat="49.12587" lon="4.20522">
        <ele>139.53</ele>
        <time>2021-08-09T14:39:06Z</time>
      </trkpt>
      <trkpt lat="49.12556" lon="4.20562">
        <ele>136.16</ele>
        <time>2021-08-09T14:39:14Z</time>
      </trkpt>
      <trkpt lat="49.12552" lon="4.20567">
        <ele>136.16</ele>
        <time>2021-08-09T14:39:15Z</time>
      </trkpt>
      <trkpt lat="49.12518" lon="4.20611">
        <ele>135.68</ele>
        <time>2021-08-09T14:39:25Z</time>
      </trkpt>
      <trkpt lat="49.12489" lon="4.20647">
        <ele>136.64</ele>
        <time>2021-08-09T14:39:35Z</time>
      </trkpt>
      <trkpt lat="49.12461" lon="4.20682">
        <ele>138.09</ele>
        <time>2021-08-09T14:39:46Z</time>
      </trkpt>
      <trkpt lat="49.12449" lon="4.20697">
        <ele>139.05</ele>
        <time>2021-08-09T14:39:53Z</time>
      </trkpt>
      <trkpt lat="49.12435" lon="4.20714">
        <ele>141.93</ele>
        <time>2021-08-09T14:40:03Z</time>
      </trkpt>
      <trkpt lat="49.1242" lon="4.20731">
        <ele>141.93</ele>
        <time>2021-08-09T14:40:12Z</time>
      </trkpt>
      <trkpt lat="49.12413" lon="4.20741">
        <ele>142.89</ele>
        <time>2021-08-09T14:40:18Z</time>
      </trkpt>
      <trkpt lat="49.12401" lon="4.20755">
        <ele>143.85</ele>
        <time>2021-08-09T14:40:28Z</time>
      </trkpt>
      <trkpt lat="49.1239" lon="4.20769">
        <ele>145.3</ele>
        <time>2021-08-09T14:40:37Z</time>
      </trkpt>
      <trkpt lat="49.12374" lon="4.20788">
        <ele>147.22</ele>
        <time>2021-08-09T14:40:48Z</time>
      </trkpt>
      <trkpt lat="49.12362" lon="4.20803">
        <ele>148.18</ele>
        <time>2021-08-09T14:40:56Z</time>
      </trkpt>
      <trkpt lat="49.12345" lon="4.20824">
        <ele>149.14</ele>
        <time>2021-08-09T14:41:07Z</time>
      </trkpt>
      <trkpt lat="49.12328" lon="4.20845">
        <ele>151.06</ele>
        <time>2021-08-09T14:41:17Z</time>
      </trkpt>
      <trkpt lat="49.1231" lon="4.20866">
        <ele>152.51</ele>
        <time>2021-08-09T14:41:27Z</time>
      </trkpt>
      <trkpt lat="49.12292" lon="4.20886">
        <ele>153.47</ele>
        <time>2021-08-09T14:41:38Z</time>
      </trkpt>
      <trkpt lat="49.12277" lon="4.20905">
        <ele>154.43</ele>
        <time>2021-08-09T14:41:49Z</time>
      </trkpt>
      <trkpt lat="49.12265" lon="4.20919">
        <ele>155.87</ele>
        <time>2021-08-09T14:41:58Z</time>
      </trkpt>
      <trkpt lat="49.12264" lon="4.20921">
        <ele>155.87</ele>
        <time>2021-08-09T14:41:59Z</time>
      </trkpt>
      <trkpt lat="49.12263" lon="4.20922">
        <ele>156.35</ele>
        <time>2021-08-09T14:42:00Z</time>
      </trkpt>
      <trkpt lat="49.12262" lon="4.20924">
        <ele>156.35</ele>
        <time>2021-08-09T14:42:01Z</time>
      </trkpt>
      <trkpt lat="49.12261" lon="4.20925">
        <ele>156.35</ele>
        <time>2021-08-09T14:42:02Z</time>
      </trkpt>
      <trkpt lat="49.1226" lon="4.20927">
        <ele>157.31</ele>
        <time>2021-08-09T14:42:03Z</time>
      </trkpt>
      <trkpt lat="49.12259" lon="4.20928">
        <ele>157.31</ele>
        <time>2021-08-09T14:42:04Z</time>
      </trkpt>
      <trkpt lat="49.12254" lon="4.20933">
        <ele>157.31</ele>
        <time>2021-08-09T14:42:09Z</time>
      </trkpt>
      <trkpt lat="49.12243" lon="4.20949">
        <ele>158.27</ele>
        <time>2021-08-09T14:42:17Z</time>
      </trkpt>
      <trkpt lat="49.12231" lon="4.20962">
        <ele>159.24</ele>
        <time>2021-08-09T14:42:26Z</time>
      </trkpt>
      <trkpt lat="49.1223" lon="4.20964">
        <ele>159.24</ele>
        <time>2021-08-09T14:42:27Z</time>
      </trkpt>
      <trkpt lat="49.12229" lon="4.20965">
        <ele>160.2</ele>
        <time>2021-08-09T14:42:28Z</time>
      </trkpt>
      <trkpt lat="49.12228" lon="4.20967">
        <ele>160.2</ele>
        <time>2021-08-09T14:42:29Z</time>
      </trkpt>
      <trkpt lat="49.12227" lon="4.20968">
        <ele>160.2</ele>
        <time>2021-08-09T14:42:30Z</time>
      </trkpt>
      <trkpt lat="49.12226" lon="4.2097">
        <ele>160.2</ele>
        <time>2021-08-09T14:42:31Z</time>
      </trkpt>
      <trkpt lat="49.12224" lon="4.20972">
        <ele>160.2</ele>
        <time>2021-08-09T14:42:32Z</time>
      </trkpt>
      <trkpt lat="49.12212" lon="4.20987">
        <ele>161.16</ele>
        <time>2021-08-09T14:42:42Z</time>
      </trkpt>
      <trkpt lat="49.12198" lon="4.21004">
        <ele>162.6</ele>
        <time>2021-08-09T14:42:52Z</time>
      </trkpt>
      <trkpt lat="49.12188" lon="4.21016">
        <ele>164.04</ele>
        <time>2021-08-09T14:42:59Z</time>
      </trkpt>
      <trkpt lat="49.12173" lon="4.21035">
        <ele>164.52</ele>
        <time>2021-08-09T14:43:08Z</time>
      </trkpt>
      <trkpt lat="49.12158" lon="4.21052">
        <ele>166.45</ele>
        <time>2021-08-09T14:43:17Z</time>
      </trkpt>
      <trkpt lat="49.12144" lon="4.21072">
        <ele>167.41</ele>
        <time>2021-08-09T14:43:26Z</time>
      </trkpt>
      <trkpt lat="49.12128" lon="4.21089">
        <ele>168.37</ele>
        <time>2021-08-09T14:43:35Z</time>
      </trkpt>
      <trkpt lat="49.12107" lon="4.21115">
        <ele>169.81</ele>
        <time>2021-08-09T14:43:46Z</time>
      </trkpt>
      <trkpt lat="49.12084" lon="4.21144">
        <ele>170.77</ele>
        <time>2021-08-09T14:43:57Z</time>
      </trkpt>
      <trkpt lat="49.12058" lon="4.21177">
        <ele>172.21</ele>
        <time>2021-08-09T14:44:07Z</time>
      </trkpt>
      <trkpt lat="49.12038" lon="4.21207">
        <ele>172.21</ele>
        <time>2021-08-09T14:44:15Z</time>
      </trkpt>
      <trkpt lat="49.12014" lon="4.21245">
        <ele>172.69</ele>
        <time>2021-08-09T14:44:24Z</time>
      </trkpt>
      <trkpt lat="49.12001" lon="4.21264">
        <ele>173.17</ele>
        <time>2021-08-09T14:44:30Z</time>
      </trkpt>
      <trkpt lat="49.11983" lon="4.21288">
        <ele>173.17</ele>
        <time>2021-08-09T14:44:38Z</time>
      </trkpt>
      <trkpt lat="49.11951" lon="4.21326">
        <ele>174.62</ele>
        <time>2021-08-09T14:44:49Z</time>
      </trkpt>
      <trkpt lat="49.11918" lon="4.21362">
        <ele>174.62</ele>
        <time>2021-08-09T14:44:59Z</time>
      </trkpt>
      <trkpt lat="49.11883" lon="4.214">
        <ele>175.58</ele>
        <time>2021-08-09T14:45:09Z</time>
      </trkpt>
      <trkpt lat="49.11852" lon="4.21433">
        <ele>176.54</ele>
        <time>2021-08-09T14:45:18Z</time>
      </trkpt>
      <trkpt lat="49.11818" lon="4.21469">
        <ele>177.5</ele>
        <time>2021-08-09T14:45:28Z</time>
      </trkpt>
      <trkpt lat="49.11795" lon="4.21494">
        <ele>175.58</ele>
        <time>2021-08-09T14:45:34Z</time>
      </trkpt>
      <trkpt lat="49.11744" lon="4.21548">
        <ele>174.62</ele>
        <time>2021-08-09T14:45:45Z</time>
      </trkpt>
      <trkpt lat="49.11703" lon="4.21593">
        <ele>176.06</ele>
        <time>2021-08-09T14:45:55Z</time>
      </trkpt>
      <trkpt lat="49.11684" lon="4.21615">
        <ele>176.06</ele>
        <time>2021-08-09T14:46:00Z</time>
      </trkpt>
      <trkpt lat="49.11664" lon="4.21637">
        <ele>176.54</ele>
        <time>2021-08-09T14:46:05Z</time>
      </trkpt>
      <trkpt lat="49.11627" lon="4.21681">
        <ele>176.54</ele>
        <time>2021-08-09T14:46:15Z</time>
      </trkpt>
      <trkpt lat="49.11588" lon="4.21723">
        <ele>174.14</ele>
        <time>2021-08-09T14:46:24Z</time>
      </trkpt>
      <trkpt lat="49.11551" lon="4.2176">
        <ele>171.73</ele>
        <time>2021-08-09T14:46:31Z</time>
      </trkpt>
      <trkpt lat="49.11544" lon="4.21763">
        <ele>171.25</ele>
        <time>2021-08-09T14:46:32Z</time>
      </trkpt>
      <trkpt lat="49.11537" lon="4.21764">
        <ele>170.77</ele>
        <time>2021-08-09T14:46:33Z</time>
      </trkpt>
      <trkpt lat="49.1153" lon="4.21763">
        <ele>168.85</ele>
        <time>2021-08-09T14:46:34Z</time>
      </trkpt>
      <trkpt lat="49.11524" lon="4.21761">
        <ele>168.85</ele>
        <time>2021-08-09T14:46:35Z</time>
      </trkpt>
      <trkpt lat="49.11518" lon="4.21758">
        <ele>168.37</ele>
        <time>2021-08-09T14:46:36Z</time>
      </trkpt>
      <trkpt lat="49.1148" lon="4.21742">
        <ele>168.37</ele>
        <time>2021-08-09T14:46:43Z</time>
      </trkpt>
      <trkpt lat="49.11405" lon="4.2171">
        <ele>165.48</ele>
        <time>2021-08-09T14:46:55Z</time>
      </trkpt>
      <trkpt lat="49.11339" lon="4.21683">
        <ele>164.04</ele>
        <time>2021-08-09T14:47:06Z</time>
      </trkpt>
      <trkpt lat="49.11314" lon="4.21673">
        <ele>165.48</ele>
        <time>2021-08-09T14:47:11Z</time>
      </trkpt>
      <trkpt lat="49.11285" lon="4.21663">
        <ele>165.96</ele>
        <time>2021-08-09T14:47:18Z</time>
      </trkpt>
      <trkpt lat="49.11255" lon="4.21652">
        <ele>166.45</ele>
        <time>2021-08-09T14:47:26Z</time>
      </trkpt>
      <trkpt lat="49.1122" lon="4.21637">
        <ele>166.93</ele>
        <time>2021-08-09T14:47:35Z</time>
      </trkpt>
      <trkpt lat="49.1118" lon="4.2162">
        <ele>163.56</ele>
        <time>2021-08-09T14:47:44Z</time>
      </trkpt>
      <trkpt lat="49.11175" lon="4.21618">
        <ele>163.56</ele>
        <time>2021-08-09T14:47:45Z</time>
      </trkpt>
      <trkpt lat="49.11144" lon="4.21605">
        <ele>159.72</ele>
        <time>2021-08-09T14:47:50Z</time>
      </trkpt>
      <trkpt lat="49.11115" lon="4.21594">
        <ele>156.83</ele>
        <time>2021-08-09T14:47:54Z</time>
      </trkpt>
      <trkpt lat="49.1111" lon="4.21594">
        <ele>155.87</ele>
        <time>2021-08-09T14:47:55Z</time>
      </trkpt>
      <trkpt lat="49.11104" lon="4.21597">
        <ele>155.87</ele>
        <time>2021-08-09T14:47:56Z</time>
      </trkpt>
      <trkpt lat="49.111" lon="4.21603">
        <ele>157.31</ele>
        <time>2021-08-09T14:47:57Z</time>
      </trkpt>
      <trkpt lat="49.11097" lon="4.21612">
        <ele>157.31</ele>
        <time>2021-08-09T14:47:58Z</time>
      </trkpt>
      <trkpt lat="49.11096" lon="4.21622">
        <ele>155.87</ele>
        <time>2021-08-09T14:47:59Z</time>
      </trkpt>
      <trkpt lat="49.11095" lon="4.21633">
        <ele>155.39</ele>
        <time>2021-08-09T14:48:00Z</time>
      </trkpt>
      <trkpt lat="49.11093" lon="4.21656">
        <ele>154.43</ele>
        <time>2021-08-09T14:48:02Z</time>
      </trkpt>
      <trkpt lat="49.11085" lon="4.21739">
        <ele>151.06</ele>
        <time>2021-08-09T14:48:09Z</time>
      </trkpt>
      <trkpt lat="49.11084" lon="4.21749">
        <ele>151.06</ele>
        <time>2021-08-09T14:48:10Z</time>
      </trkpt>
      <trkpt lat="49.11071" lon="4.2186">
        <ele>149.14</ele>
        <time>2021-08-09T14:48:19Z</time>
      </trkpt>
      <trkpt lat="49.11063" lon="4.21927">
        <ele>147.22</ele>
        <time>2021-08-09T14:48:24Z</time>
      </trkpt>
      <trkpt lat="49.11039" lon="4.22127">
        <ele>143.37</ele>
        <time>2021-08-09T14:48:39Z</time>
      </trkpt>
      <trkpt lat="49.11029" lon="4.2221">
        <ele>140.49</ele>
        <time>2021-08-09T14:48:45Z</time>
      </trkpt>
      <trkpt lat="49.11013" lon="4.22334">
        <ele>137.13</ele>
        <time>2021-08-09T14:48:54Z</time>
      </trkpt>
      <trkpt lat="49.10998" lon="4.22432">
        <ele>136.16</ele>
        <time>2021-08-09T14:49:02Z</time>
      </trkpt>
      <trkpt lat="49.10995" lon="4.22441">
        <ele>136.16</ele>
        <time>2021-08-09T14:49:03Z</time>
      </trkpt>
      <trkpt lat="49.10991" lon="4.22448">
        <ele>136.16</ele>
        <time>2021-08-09T14:49:04Z</time>
      </trkpt>
      <trkpt lat="49.10986" lon="4.22454">
        <ele>136.16</ele>
        <time>2021-08-09T14:49:05Z</time>
      </trkpt>
      <trkpt lat="49.1098" lon="4.22456">
        <ele>136.16</ele>
        <time>2021-08-09T14:49:06Z</time>
      </trkpt>
      <trkpt lat="49.10975" lon="4.2246">
        <ele>136.16</ele>
        <time>2021-08-09T14:49:07Z</time>
      </trkpt>
      <trkpt lat="49.10969" lon="4.22466">
        <ele>136.16</ele>
        <time>2021-08-09T14:49:08Z</time>
      </trkpt>
      <trkpt lat="49.10965" lon="4.22473">
        <ele>136.16</ele>
        <time>2021-08-09T14:49:09Z</time>
      </trkpt>
      <trkpt lat="49.10962" lon="4.2248">
        <ele>136.16</ele>
        <time>2021-08-09T14:49:10Z</time>
      </trkpt>
      <trkpt lat="49.1096" lon="4.2249">
        <ele>135.68</ele>
        <time>2021-08-09T14:49:11Z</time>
      </trkpt>
      <trkpt lat="49.10957" lon="4.22499">
        <ele>135.68</ele>
        <time>2021-08-09T14:49:12Z</time>
      </trkpt>
      <trkpt lat="49.10935" lon="4.22589">
        <ele>135.2</ele>
        <time>2021-08-09T14:49:22Z</time>
      </trkpt>
      <trkpt lat="49.10932" lon="4.22592">
        <ele>136.16</ele>
        <time>2021-08-09T14:49:23Z</time>
      </trkpt>
      <trkpt lat="49.1093" lon="4.22591">
        <ele>136.16</ele>
        <time>2021-08-09T14:49:24Z</time>
      </trkpt>
      <trkpt lat="49.10928" lon="4.22589">
        <ele>136.16</ele>
        <time>2021-08-09T14:49:25Z</time>
      </trkpt>
      <trkpt lat="49.10926" lon="4.22586">
        <ele>136.16</ele>
        <time>2021-08-09T14:49:26Z</time>
      </trkpt>
      <trkpt lat="49.10922" lon="4.22584">
        <ele>134.72</ele>
        <time>2021-08-09T14:49:27Z</time>
      </trkpt>
      <trkpt lat="49.10918" lon="4.22583">
        <ele>134.24</ele>
        <time>2021-08-09T14:49:28Z</time>
      </trkpt>
      <trkpt lat="49.10895" lon="4.22576">
        <ele>131.84</ele>
        <time>2021-08-09T14:49:32Z</time>
      </trkpt>
      <trkpt lat="49.10858" lon="4.22567">
        <ele>131.36</ele>
        <time>2021-08-09T14:49:39Z</time>
      </trkpt>
      <trkpt lat="49.10842" lon="4.22564">
        <ele>133.28</ele>
        <time>2021-08-09T14:49:43Z</time>
      </trkpt>
      <trkpt lat="49.10813" lon="4.22557">
        <ele>134.72</ele>
        <time>2021-08-09T14:49:52Z</time>
      </trkpt>
      <trkpt lat="49.10794" lon="4.22561">
        <ele>134.72</ele>
        <time>2021-08-09T14:49:58Z</time>
      </trkpt>
      <trkpt lat="49.10789" lon="4.22571">
        <ele>134.72</ele>
        <time>2021-08-09T14:50:00Z</time>
      </trkpt>
      <trkpt lat="49.10788" lon="4.22578">
        <ele>134.72</ele>
        <time>2021-08-09T14:50:01Z</time>
      </trkpt>
      <trkpt lat="49.10788" lon="4.22585">
        <ele>134.72</ele>
        <time>2021-08-09T14:50:02Z</time>
      </trkpt>
      <trkpt lat="49.10787" lon="4.22592">
        <ele>134.72</ele>
        <time>2021-08-09T14:50:03Z</time>
      </trkpt>
      <trkpt lat="49.10786" lon="4.22599">
        <ele>134.72</ele>
        <time>2021-08-09T14:50:04Z</time>
      </trkpt>
      <trkpt lat="49.10783" lon="4.22604">
        <ele>134.72</ele>
        <time>2021-08-09T14:50:05Z</time>
      </trkpt>
      <trkpt lat="49.1078" lon="4.22607">
        <ele>134.72</ele>
        <time>2021-08-09T14:50:06Z</time>
      </trkpt>
      <trkpt lat="49.10777" lon="4.22608">
        <ele>132.32</ele>
        <time>2021-08-09T14:50:07Z</time>
      </trkpt>
      <trkpt lat="49.10773" lon="4.22608">
        <ele>132.32</ele>
        <time>2021-08-09T14:50:08Z</time>
      </trkpt>
      <trkpt lat="49.10769" lon="4.22607">
        <ele>132.32</ele>
        <time>2021-08-09T14:50:09Z</time>
      </trkpt>
      <trkpt lat="49.10736" lon="4.226">
        <ele>132.8</ele>
        <time>2021-08-09T14:50:19Z</time>
      </trkpt>
      <trkpt lat="49.10729" lon="4.22603">
        <ele>132.32</ele>
        <time>2021-08-09T14:50:21Z</time>
      </trkpt>
      <trkpt lat="49.10726" lon="4.22609">
        <ele>133.76</ele>
        <time>2021-08-09T14:50:22Z</time>
      </trkpt>
      <trkpt lat="49.10724" lon="4.22614">
        <ele>133.76</ele>
        <time>2021-08-09T14:50:23Z</time>
      </trkpt>
      <trkpt lat="49.10723" lon="4.2262">
        <ele>133.76</ele>
        <time>2021-08-09T14:50:24Z</time>
      </trkpt>
      <trkpt lat="49.10722" lon="4.22627">
        <ele>133.76</ele>
        <time>2021-08-09T14:50:25Z</time>
      </trkpt>
      <trkpt lat="49.10721" lon="4.22634">
        <ele>133.76</ele>
        <time>2021-08-09T14:50:26Z</time>
      </trkpt>
      <trkpt lat="49.10719" lon="4.22659">
        <ele>132.32</ele>
        <time>2021-08-09T14:50:29Z</time>
      </trkpt>
      <trkpt lat="49.10714" lon="4.22747">
        <ele>131.36</ele>
        <time>2021-08-09T14:50:39Z</time>
      </trkpt>
      <trkpt lat="49.10708" lon="4.22824">
        <ele>129.43</ele>
        <time>2021-08-09T14:50:47Z</time>
      </trkpt>
      <trkpt lat="49.10703" lon="4.22897">
        <ele>128.95</ele>
        <time>2021-08-09T14:50:55Z</time>
      </trkpt>
      <trkpt lat="49.10699" lon="4.22957">
        <ele>128.47</ele>
        <time>2021-08-09T14:51:02Z</time>
      </trkpt>
      <trkpt lat="49.10694" lon="4.23036">
        <ele>127.03</ele>
        <time>2021-08-09T14:51:10Z</time>
      </trkpt>
      <trkpt lat="49.10687" lon="4.23126">
        <ele>127.51</ele>
        <time>2021-08-09T14:51:19Z</time>
      </trkpt>
      <trkpt lat="49.10684" lon="4.23159">
        <ele>129.43</ele>
        <time>2021-08-09T14:51:24Z</time>
      </trkpt>
      <trkpt lat="49.10679" lon="4.23177">
        <ele>130.4</ele>
        <time>2021-08-09T14:51:30Z</time>
      </trkpt>
      <trkpt lat="49.10668" lon="4.23191">
        <ele>128.95</ele>
        <time>2021-08-09T14:51:35Z</time>
      </trkpt>
      <trkpt lat="49.10661" lon="4.23205">
        <ele>130.4</ele>
        <time>2021-08-09T14:51:39Z</time>
      </trkpt>
      <trkpt lat="49.10647" lon="4.23244">
        <ele>131.84</ele>
        <time>2021-08-09T14:51:49Z</time>
      </trkpt>
      <trkpt lat="49.10633" lon="4.23282">
        <ele>132.32</ele>
        <time>2021-08-09T14:51:58Z</time>
      </trkpt>
      <trkpt lat="49.10628" lon="4.23298">
        <ele>133.28</ele>
        <time>2021-08-09T14:52:01Z</time>
      </trkpt>
      <trkpt lat="49.10622" lon="4.23315">
        <ele>131.84</ele>
        <time>2021-08-09T14:52:04Z</time>
      </trkpt>
      <trkpt lat="49.1061" lon="4.2335">
        <ele>130.88</ele>
        <time>2021-08-09T14:52:11Z</time>
      </trkpt>
      <trkpt lat="49.10594" lon="4.23404">
        <ele>129.92</ele>
        <time>2021-08-09T14:52:19Z</time>
      </trkpt>
      <trkpt lat="49.10573" lon="4.23466">
        <ele>127.03</ele>
        <time>2021-08-09T14:52:26Z</time>
      </trkpt>
      <trkpt lat="49.1057" lon="4.23476">
        <ele>127.03</ele>
        <time>2021-08-09T14:52:27Z</time>
      </trkpt>
      <trkpt lat="49.1056" lon="4.23508">
        <ele>125.59</ele>
        <time>2021-08-09T14:52:30Z</time>
      </trkpt>
      <trkpt lat="49.10537" lon="4.23578">
        <ele>122.22</ele>
        <time>2021-08-09T14:52:36Z</time>
      </trkpt>
      <trkpt lat="49.10498" lon="4.23697">
        <ele>119.34</ele>
        <time>2021-08-09T14:52:46Z</time>
      </trkpt>
      <trkpt lat="49.10486" lon="4.23756">
        <ele>119.34</ele>
        <time>2021-08-09T14:52:51Z</time>
      </trkpt>
      <trkpt lat="49.10483" lon="4.23791">
        <ele>120.78</ele>
        <time>2021-08-09T14:52:54Z</time>
      </trkpt>
      <trkpt lat="49.1048" lon="4.23815">
        <ele>119.34</ele>
        <time>2021-08-09T14:52:56Z</time>
      </trkpt>
      <trkpt lat="49.10467" lon="4.23937">
        <ele>117.9</ele>
        <time>2021-08-09T14:53:07Z</time>
      </trkpt>
      <trkpt lat="49.1046" lon="4.24">
        <ele>117.42</ele>
        <time>2021-08-09T14:53:13Z</time>
      </trkpt>
      <trkpt lat="49.1044" lon="4.24099">
        <ele>116.94</ele>
        <time>2021-08-09T14:53:23Z</time>
      </trkpt>
      <trkpt lat="49.10427" lon="4.24163">
        <ele>116.46</ele>
        <time>2021-08-09T14:53:30Z</time>
      </trkpt>
      <trkpt lat="49.10421" lon="4.24202">
        <ele>117.42</ele>
        <time>2021-08-09T14:53:35Z</time>
      </trkpt>
      <trkpt lat="49.1042" lon="4.24209">
        <ele>117.42</ele>
        <time>2021-08-09T14:53:36Z</time>
      </trkpt>
      <trkpt lat="49.10419" lon="4.24215">
        <ele>117.42</ele>
        <time>2021-08-09T14:53:37Z</time>
      </trkpt>
      <trkpt lat="49.10417" lon="4.24219">
        <ele>117.42</ele>
        <time>2021-08-09T14:53:38Z</time>
      </trkpt>
      <trkpt lat="49.10413" lon="4.24221">
        <ele>115.98</ele>
        <time>2021-08-09T14:53:39Z</time>
      </trkpt>
      <trkpt lat="49.10409" lon="4.2422">
        <ele>115.98</ele>
        <time>2021-08-09T14:53:40Z</time>
      </trkpt>
      <trkpt lat="49.10405" lon="4.24219">
        <ele>115.98</ele>
        <time>2021-08-09T14:53:41Z</time>
      </trkpt>
      <trkpt lat="49.10376" lon="4.24207">
        <ele>115.5</ele>
        <time>2021-08-09T14:53:48Z</time>
      </trkpt>
      <trkpt lat="49.10375" lon="4.24207">
        <ele>115.5</ele>
        <time>2021-08-09T14:53:52Z</time>
      </trkpt>
      <trkpt lat="49.10375" lon="4.24206">
        <ele>115.5</ele>
        <time>2021-08-09T14:54:07Z</time>
      </trkpt>
      <trkpt lat="49.10368" lon="4.24205">
        <ele>115.5</ele>
        <time>2021-08-09T14:54:18Z</time>
      </trkpt>
      <trkpt lat="49.10359" lon="4.24201">
        <ele>115.01</ele>
        <time>2021-08-09T14:54:24Z</time>
      </trkpt>
      <trkpt lat="49.1036" lon="4.24204">
        <ele>115.01</ele>
        <time>2021-08-09T14:54:32Z</time>
      </trkpt>
      <trkpt lat="49.10361" lon="4.24205">
        <ele>115.01</ele>
        <time>2021-08-09T14:54:36Z</time>
      </trkpt>
      <trkpt lat="49.10362" lon="4.24205">
        <ele>115.01</ele>
        <time>2021-08-09T14:54:37Z</time>
      </trkpt>
      <trkpt lat="49.10365" lon="4.24205">
        <ele>115.01</ele>
        <time>2021-08-09T14:54:38Z</time>
      </trkpt>
      <trkpt lat="49.10366" lon="4.24206">
        <ele>115.01</ele>
        <time>2021-08-09T14:54:39Z</time>
      </trkpt>
      <trkpt lat="49.10368" lon="4.24206">
        <ele>115.01</ele>
        <time>2021-08-09T14:54:40Z</time>
      </trkpt>
      <trkpt lat="49.1037" lon="4.24207">
        <ele>115.01</ele>
        <time>2021-08-09T14:54:41Z</time>
      </trkpt>
      <trkpt lat="49.10373" lon="4.24207">
        <ele>115.01</ele>
        <time>2021-08-09T14:54:42Z</time>
      </trkpt>
      <trkpt lat="49.10375" lon="4.24207">
        <ele>115.01</ele>
        <time>2021-08-09T14:54:43Z</time>
      </trkpt>
      <trkpt lat="49.10377" lon="4.24205">
        <ele>115.01</ele>
        <time>2021-08-09T14:54:44Z</time>
      </trkpt>
      <trkpt lat="49.10376" lon="4.24202">
        <ele>115.01</ele>
        <time>2021-08-09T14:54:45Z</time>
      </trkpt>
      <trkpt lat="49.10374" lon="4.242">
        <ele>115.01</ele>
        <time>2021-08-09T14:54:46Z</time>
      </trkpt>
      <trkpt lat="49.10372" lon="4.24198">
        <ele>115.01</ele>
        <time>2021-08-09T14:54:47Z</time>
      </trkpt>
      <trkpt lat="49.10353" lon="4.24185">
        <ele>112.13</ele>
        <time>2021-08-09T14:54:51Z</time>
      </trkpt>
      <trkpt lat="49.10344" lon="4.24177">
        <ele>110.69</ele>
        <time>2021-08-09T14:54:53Z</time>
      </trkpt>
      <trkpt lat="49.1033" lon="4.24167">
        <ele>107.32</ele>
        <time>2021-08-09T14:54:56Z</time>
      </trkpt>
      <trkpt lat="49.10319" lon="4.2416">
        <ele>105.88</ele>
        <time>2021-08-09T14:54:59Z</time>
      </trkpt>
      <trkpt lat="49.10315" lon="4.24158">
        <ele>105.4</ele>
        <time>2021-08-09T14:55:00Z</time>
      </trkpt>
      <trkpt lat="49.1031" lon="4.24155">
        <ele>104.92</ele>
        <time>2021-08-09T14:55:01Z</time>
      </trkpt>
      <trkpt lat="49.10301" lon="4.2415">
        <ele>104.44</ele>
        <time>2021-08-09T14:55:03Z</time>
      </trkpt>
      <trkpt lat="49.10297" lon="4.24148">
        <ele>104.44</ele>
        <time>2021-08-09T14:55:04Z</time>
      </trkpt>
      <trkpt lat="49.10268" lon="4.24136">
        <ele>104.44</ele>
        <time>2021-08-09T14:55:12Z</time>
      </trkpt>
      <trkpt lat="49.10235" lon="4.24122">
        <ele>104.44</ele>
        <time>2021-08-09T14:55:21Z</time>
      </trkpt>
      <trkpt lat="49.10201" lon="4.24108">
        <ele>104.44</ele>
        <time>2021-08-09T14:55:31Z</time>
      </trkpt>
      <trkpt lat="49.10175" lon="4.24095">
        <ele>104.44</ele>
        <time>2021-08-09T14:55:41Z</time>
      </trkpt>
      <trkpt lat="49.10163" lon="4.24089">
        <ele>105.4</ele>
        <time>2021-08-09T14:55:46Z</time>
      </trkpt>
      <trkpt lat="49.10148" lon="4.24085">
        <ele>105.4</ele>
        <time>2021-08-09T14:55:52Z</time>
      </trkpt>
      <trkpt lat="49.10133" lon="4.24076">
        <ele>105.4</ele>
        <time>2021-08-09T14:55:58Z</time>
      </trkpt>
      <trkpt lat="49.10109" lon="4.24064">
        <ele>105.4</ele>
        <time>2021-08-09T14:56:06Z</time>
      </trkpt>
      <trkpt lat="49.10086" lon="4.24051">
        <ele>105.4</ele>
        <time>2021-08-09T14:56:14Z</time>
      </trkpt>
      <trkpt lat="49.10059" lon="4.2403">
        <ele>103.96</ele>
        <time>2021-08-09T14:56:24Z</time>
      </trkpt>
      <trkpt lat="49.10033" lon="4.24007">
        <ele>103.96</ele>
        <time>2021-08-09T14:56:34Z</time>
      </trkpt>
      <trkpt lat="49.10009" lon="4.23983">
        <ele>103.96</ele>
        <time>2021-08-09T14:56:43Z</time>
      </trkpt>
      <trkpt lat="49.09993" lon="4.23961">
        <ele>103.48</ele>
        <time>2021-08-09T14:56:50Z</time>
      </trkpt>
      <trkpt lat="49.09976" lon="4.23936">
        <ele>103.48</ele>
        <time>2021-08-09T14:56:57Z</time>
      </trkpt>
      <trkpt lat="49.09961" lon="4.23916">
        <ele>103.48</ele>
        <time>2021-08-09T14:57:03Z</time>
      </trkpt>
      <trkpt lat="49.09941" lon="4.23892">
        <ele>103.48</ele>
        <time>2021-08-09T14:57:10Z</time>
      </trkpt>
      <trkpt lat="49.09914" lon="4.23853">
        <ele>103.48</ele>
        <time>2021-08-09T14:57:21Z</time>
      </trkpt>
      <trkpt lat="49.09892" lon="4.23819">
        <ele>103.48</ele>
        <time>2021-08-09T14:57:30Z</time>
      </trkpt>
      <trkpt lat="49.0987" lon="4.2379">
        <ele>103.48</ele>
        <time>2021-08-09T14:57:38Z</time>
      </trkpt>
      <trkpt lat="49.09849" lon="4.2376">
        <ele>103.48</ele>
        <time>2021-08-09T14:57:46Z</time>
      </trkpt>
      <trkpt lat="49.09832" lon="4.23736">
        <ele>103</ele>
        <time>2021-08-09T14:57:53Z</time>
      </trkpt>
      <trkpt lat="49.09811" lon="4.23708">
        <ele>103</ele>
        <time>2021-08-09T14:58:01Z</time>
      </trkpt>
      <trkpt lat="49.09785" lon="4.23674">
        <ele>103</ele>
        <time>2021-08-09T14:58:11Z</time>
      </trkpt>
      <trkpt lat="49.09757" lon="4.23637">
        <ele>103</ele>
        <time>2021-08-09T14:58:22Z</time>
      </trkpt>
      <trkpt lat="49.09739" lon="4.23614">
        <ele>103</ele>
        <time>2021-08-09T14:58:29Z</time>
      </trkpt>
      <trkpt lat="49.09715" lon="4.23587">
        <ele>102.52</ele>
        <time>2021-08-09T14:58:38Z</time>
      </trkpt>
      <trkpt lat="49.09687" lon="4.23562">
        <ele>102.52</ele>
        <time>2021-08-09T14:58:47Z</time>
      </trkpt>
      <trkpt lat="49.09657" lon="4.2354">
        <ele>102.52</ele>
        <time>2021-08-09T14:58:56Z</time>
      </trkpt>
      <trkpt lat="49.09627" lon="4.23524">
        <ele>102.04</ele>
        <time>2021-08-09T14:59:05Z</time>
      </trkpt>
      <trkpt lat="49.09596" lon="4.23511">
        <ele>103</ele>
        <time>2021-08-09T14:59:14Z</time>
      </trkpt>
      <trkpt lat="49.0957" lon="4.23504">
        <ele>103</ele>
        <time>2021-08-09T14:59:22Z</time>
      </trkpt>
      <trkpt lat="49.09537" lon="4.23501">
        <ele>103</ele>
        <time>2021-08-09T14:59:31Z</time>
      </trkpt>
      <trkpt lat="49.09506" lon="4.23501">
        <ele>102.52</ele>
        <time>2021-08-09T14:59:39Z</time>
      </trkpt>
      <trkpt lat="49.09488" lon="4.23502">
        <ele>102.52</ele>
        <time>2021-08-09T14:59:45Z</time>
      </trkpt>
      <trkpt lat="49.09461" lon="4.23507">
        <ele>102.52</ele>
        <time>2021-08-09T14:59:53Z</time>
      </trkpt>
      <trkpt lat="49.09436" lon="4.23515">
        <ele>102.52</ele>
        <time>2021-08-09T15:00:01Z</time>
      </trkpt>
      <trkpt lat="49.09401" lon="4.23531">
        <ele>102.52</ele>
        <time>2021-08-09T15:00:11Z</time>
      </trkpt>
      <trkpt lat="49.09382" lon="4.23546">
        <ele>102.52</ele>
        <time>2021-08-09T15:00:18Z</time>
      </trkpt>
      <trkpt lat="49.09381" lon="4.23546">
        <ele>102.52</ele>
        <time>2021-08-09T15:00:23Z</time>
      </trkpt>
      <trkpt lat="49.09381" lon="4.23547">
        <ele>102.52</ele>
        <time>2021-08-09T15:00:31Z</time>
      </trkpt>
      <trkpt lat="49.09378" lon="4.23548">
        <ele>102.04</ele>
        <time>2021-08-09T15:00:38Z</time>
      </trkpt>
      <trkpt lat="49.09367" lon="4.23555">
        <ele>102.04</ele>
        <time>2021-08-09T15:00:44Z</time>
      </trkpt>
      <trkpt lat="49.09338" lon="4.23572">
        <ele>102.04</ele>
        <time>2021-08-09T15:00:52Z</time>
      </trkpt>
      <trkpt lat="49.09306" lon="4.23592">
        <ele>102.04</ele>
        <time>2021-08-09T15:01:01Z</time>
      </trkpt>
      <trkpt lat="49.09284" lon="4.23605">
        <ele>102.04</ele>
        <time>2021-08-09T15:01:08Z</time>
      </trkpt>
      <trkpt lat="49.09263" lon="4.23619">
        <ele>102.04</ele>
        <time>2021-08-09T15:01:15Z</time>
      </trkpt>
      <trkpt lat="49.09237" lon="4.23638">
        <ele>102.52</ele>
        <time>2021-08-09T15:01:23Z</time>
      </trkpt>
      <trkpt lat="49.09225" lon="4.23648">
        <ele>102.52</ele>
        <time>2021-08-09T15:01:29Z</time>
      </trkpt>
      <trkpt lat="49.09215" lon="4.23661">
        <ele>103.96</ele>
        <time>2021-08-09T15:01:37Z</time>
      </trkpt>
      <trkpt lat="49.09213" lon="4.23675">
        <ele>105.4</ele>
        <time>2021-08-09T15:01:42Z</time>
      </trkpt>
      <trkpt lat="49.0921" lon="4.23683">
        <ele>105.4</ele>
        <time>2021-08-09T15:01:45Z</time>
      </trkpt>
      <trkpt lat="49.0921" lon="4.23687">
        <ele>105.4</ele>
        <time>2021-08-09T15:01:46Z</time>
      </trkpt>
      <trkpt lat="49.09211" lon="4.23689">
        <ele>105.4</ele>
        <time>2021-08-09T15:01:47Z</time>
      </trkpt>
      <trkpt lat="49.09212" lon="4.23693">
        <ele>105.4</ele>
        <time>2021-08-09T15:01:48Z</time>
      </trkpt>
      <trkpt lat="49.09212" lon="4.23698">
        <ele>105.4</ele>
        <time>2021-08-09T15:01:49Z</time>
      </trkpt>
      <trkpt lat="49.09213" lon="4.23703">
        <ele>105.4</ele>
        <time>2021-08-09T15:01:50Z</time>
      </trkpt>
      <trkpt lat="49.09226" lon="4.23732">
        <ele>105.4</ele>
        <time>2021-08-09T15:01:57Z</time>
      </trkpt>
      <trkpt lat="49.09234" lon="4.23751">
        <ele>105.4</ele>
        <time>2021-08-09T15:02:02Z</time>
      </trkpt>
      <trkpt lat="49.09233" lon="4.23754">
        <ele>105.4</ele>
        <time>2021-08-09T15:02:03Z</time>
      </trkpt>
      <trkpt lat="49.09232" lon="4.23757">
        <ele>105.4</ele>
        <time>2021-08-09T15:02:04Z</time>
      </trkpt>
      <trkpt lat="49.09228" lon="4.23759">
        <ele>105.4</ele>
        <time>2021-08-09T15:02:06Z</time>
      </trkpt>
      <trkpt lat="49.09226" lon="4.23756">
        <ele>105.4</ele>
        <time>2021-08-09T15:02:07Z</time>
      </trkpt>
      <trkpt lat="49.09224" lon="4.23751">
        <ele>105.4</ele>
        <time>2021-08-09T15:02:08Z</time>
      </trkpt>
      <trkpt lat="49.09209" lon="4.23714">
        <ele>106.36</ele>
        <time>2021-08-09T15:02:18Z</time>
      </trkpt>
      <trkpt lat="49.09207" lon="4.23713">
        <ele>106.36</ele>
        <time>2021-08-09T15:02:19Z</time>
      </trkpt>
      <trkpt lat="49.09196" lon="4.23709">
        <ele>106.36</ele>
        <time>2021-08-09T15:02:22Z</time>
      </trkpt>
      <trkpt lat="49.09192" lon="4.23709">
        <ele>106.36</ele>
        <time>2021-08-09T15:02:23Z</time>
      </trkpt>
      <trkpt lat="49.09187" lon="4.23709">
        <ele>106.36</ele>
        <time>2021-08-09T15:02:24Z</time>
      </trkpt>
      <trkpt lat="49.09171" lon="4.23709">
        <ele>104.44</ele>
        <time>2021-08-09T15:02:27Z</time>
      </trkpt>
      <trkpt lat="49.09167" lon="4.2371">
        <ele>104.44</ele>
        <time>2021-08-09T15:02:28Z</time>
      </trkpt>
      <trkpt lat="49.09162" lon="4.23711">
        <ele>104.44</ele>
        <time>2021-08-09T15:02:29Z</time>
      </trkpt>
      <trkpt lat="49.09142" lon="4.2372">
        <ele>103.96</ele>
        <time>2021-08-09T15:02:33Z</time>
      </trkpt>
      <trkpt lat="49.0911" lon="4.23744">
        <ele>103.96</ele>
        <time>2021-08-09T15:02:39Z</time>
      </trkpt>
      <trkpt lat="49.09083" lon="4.23763">
        <ele>103</ele>
        <time>2021-08-09T15:02:44Z</time>
      </trkpt>
      <trkpt lat="49.09077" lon="4.23767">
        <ele>103</ele>
        <time>2021-08-09T15:02:45Z</time>
      </trkpt>
      <trkpt lat="49.09026" lon="4.23801">
        <ele>103</ele>
        <time>2021-08-09T15:02:54Z</time>
      </trkpt>
      <trkpt lat="49.0897" lon="4.23834">
        <ele>103</ele>
        <time>2021-08-09T15:03:03Z</time>
      </trkpt>
      <trkpt lat="49.08909" lon="4.23872">
        <ele>102.52</ele>
        <time>2021-08-09T15:03:13Z</time>
      </trkpt>
      <trkpt lat="49.08857" lon="4.23907">
        <ele>102.04</ele>
        <time>2021-08-09T15:03:22Z</time>
      </trkpt>
      <trkpt lat="49.08809" lon="4.23938">
        <ele>102.04</ele>
        <time>2021-08-09T15:03:30Z</time>
      </trkpt>
      <trkpt lat="49.08756" lon="4.23972">
        <ele>102.04</ele>
        <time>2021-08-09T15:03:39Z</time>
      </trkpt>
      <trkpt lat="49.0875" lon="4.23976">
        <ele>102.04</ele>
        <time>2021-08-09T15:03:40Z</time>
      </trkpt>
      <trkpt lat="49.08745" lon="4.23982">
        <ele>102.04</ele>
        <time>2021-08-09T15:03:41Z</time>
      </trkpt>
      <trkpt lat="49.08741" lon="4.2399">
        <ele>102.04</ele>
        <time>2021-08-09T15:03:42Z</time>
      </trkpt>
      <trkpt lat="49.08737" lon="4.23999">
        <ele>102.04</ele>
        <time>2021-08-09T15:03:43Z</time>
      </trkpt>
      <trkpt lat="49.08734" lon="4.24008">
        <ele>102.04</ele>
        <time>2021-08-09T15:03:44Z</time>
      </trkpt>
      <trkpt lat="49.08732" lon="4.24017">
        <ele>102.04</ele>
        <time>2021-08-09T15:03:45Z</time>
      </trkpt>
      <trkpt lat="49.0873" lon="4.24027">
        <ele>102.04</ele>
        <time>2021-08-09T15:03:46Z</time>
      </trkpt>
      <trkpt lat="49.08722" lon="4.24056">
        <ele>101.08</ele>
        <time>2021-08-09T15:03:49Z</time>
      </trkpt>
      <trkpt lat="49.08718" lon="4.24065">
        <ele>100.11</ele>
        <time>2021-08-09T15:03:50Z</time>
      </trkpt>
      <trkpt lat="49.08714" lon="4.24073">
        <ele>100.11</ele>
        <time>2021-08-09T15:03:51Z</time>
      </trkpt>
      <trkpt lat="49.08709" lon="4.24078">
        <ele>100.11</ele>
        <time>2021-08-09T15:03:52Z</time>
      </trkpt>
      <trkpt lat="49.08704" lon="4.24082">
        <ele>101.56</ele>
        <time>2021-08-09T15:03:53Z</time>
      </trkpt>
      <trkpt lat="49.08698" lon="4.24087">
        <ele>101.56</ele>
        <time>2021-08-09T15:03:54Z</time>
      </trkpt>
      <trkpt lat="49.08692" lon="4.2409">
        <ele>101.56</ele>
        <time>2021-08-09T15:03:55Z</time>
      </trkpt>
      <trkpt lat="49.08683" lon="4.24096">
        <ele>99.63</ele>
        <time>2021-08-09T15:03:57Z</time>
      </trkpt>
      <trkpt lat="49.0866" lon="4.2411">
        <ele>101.56</ele>
        <time>2021-08-09T15:04:02Z</time>
      </trkpt>
      <trkpt lat="49.08655" lon="4.24113">
        <ele>101.56</ele>
        <time>2021-08-09T15:04:03Z</time>
      </trkpt>
      <trkpt lat="49.08622" lon="4.24134">
        <ele>101.56</ele>
        <time>2021-08-09T15:04:10Z</time>
      </trkpt>
      <trkpt lat="49.08617" lon="4.24136">
        <ele>101.56</ele>
        <time>2021-08-09T15:04:11Z</time>
      </trkpt>
      <trkpt lat="49.08613" lon="4.24136">
        <ele>101.08</ele>
        <time>2021-08-09T15:04:12Z</time>
      </trkpt>
      <trkpt lat="49.08608" lon="4.24136">
        <ele>100.11</ele>
        <time>2021-08-09T15:04:13Z</time>
      </trkpt>
      <trkpt lat="49.08604" lon="4.24135">
        <ele>100.11</ele>
        <time>2021-08-09T15:04:14Z</time>
      </trkpt>
      <trkpt lat="49.08599" lon="4.24131">
        <ele>100.11</ele>
        <time>2021-08-09T15:04:15Z</time>
      </trkpt>
      <trkpt lat="49.08595" lon="4.24125">
        <ele>100.11</ele>
        <time>2021-08-09T15:04:16Z</time>
      </trkpt>
      <trkpt lat="49.08591" lon="4.24119">
        <ele>100.11</ele>
        <time>2021-08-09T15:04:17Z</time>
      </trkpt>
      <trkpt lat="49.08588" lon="4.24113">
        <ele>100.11</ele>
        <time>2021-08-09T15:04:18Z</time>
      </trkpt>
      <trkpt lat="49.08585" lon="4.24106">
        <ele>100.11</ele>
        <time>2021-08-09T15:04:19Z</time>
      </trkpt>
      <trkpt lat="49.08581" lon="4.24101">
        <ele>100.11</ele>
        <time>2021-08-09T15:04:20Z</time>
      </trkpt>
      <trkpt lat="49.08576" lon="4.24098">
        <ele>100.11</ele>
        <time>2021-08-09T15:04:21Z</time>
      </trkpt>
      <trkpt lat="49.08571" lon="4.24096">
        <ele>100.11</ele>
        <time>2021-08-09T15:04:22Z</time>
      </trkpt>
      <trkpt lat="49.08565" lon="4.24096">
        <ele>100.11</ele>
        <time>2021-08-09T15:04:23Z</time>
      </trkpt>
      <trkpt lat="49.0856" lon="4.24098">
        <ele>100.11</ele>
        <time>2021-08-09T15:04:24Z</time>
      </trkpt>
      <trkpt lat="49.08549" lon="4.24101">
        <ele>100.11</ele>
        <time>2021-08-09T15:04:26Z</time>
      </trkpt>
      <trkpt lat="49.08505" lon="4.24117">
        <ele>99.63</ele>
        <time>2021-08-09T15:04:34Z</time>
      </trkpt>
      <trkpt lat="49.08447" lon="4.24122">
        <ele>99.15</ele>
        <time>2021-08-09T15:04:44Z</time>
      </trkpt>
      <trkpt lat="49.08398" lon="4.24116">
        <ele>99.15</ele>
        <time>2021-08-09T15:04:53Z</time>
      </trkpt>
      <trkpt lat="49.08368" lon="4.24105">
        <ele>100.11</ele>
        <time>2021-08-09T15:05:00Z</time>
      </trkpt>
      <trkpt lat="49.08339" lon="4.24095">
        <ele>100.11</ele>
        <time>2021-08-09T15:05:08Z</time>
      </trkpt>
      <trkpt lat="49.08297" lon="4.24072">
        <ele>99.15</ele>
        <time>2021-08-09T15:05:17Z</time>
      </trkpt>
      <trkpt lat="49.08292" lon="4.24069">
        <ele>99.15</ele>
        <time>2021-08-09T15:05:18Z</time>
      </trkpt>
      <trkpt lat="49.08256" lon="4.24042">
        <ele>99.15</ele>
        <time>2021-08-09T15:05:26Z</time>
      </trkpt>
      <trkpt lat="49.08221" lon="4.24012">
        <ele>99.15</ele>
        <time>2021-08-09T15:05:34Z</time>
      </trkpt>
      <trkpt lat="49.08189" lon="4.23984">
        <ele>100.6</ele>
        <time>2021-08-09T15:05:42Z</time>
      </trkpt>
      <trkpt lat="49.0818" lon="4.2398">
        <ele>101.08</ele>
        <time>2021-08-09T15:05:45Z</time>
      </trkpt>
      <trkpt lat="49.08178" lon="4.23983">
        <ele>101.08</ele>
        <time>2021-08-09T15:05:46Z</time>
      </trkpt>
      <trkpt lat="49.08176" lon="4.23986">
        <ele>101.08</ele>
        <time>2021-08-09T15:05:47Z</time>
      </trkpt>
      <trkpt lat="49.0817" lon="4.23995">
        <ele>101.08</ele>
        <time>2021-08-09T15:05:49Z</time>
      </trkpt>
      <trkpt lat="49.08164" lon="4.24005">
        <ele>101.08</ele>
        <time>2021-08-09T15:05:51Z</time>
      </trkpt>
      <trkpt lat="49.08159" lon="4.24011">
        <ele>101.08</ele>
        <time>2021-08-09T15:05:52Z</time>
      </trkpt>
      <trkpt lat="49.08144" lon="4.24026">
        <ele>97.71</ele>
        <time>2021-08-09T15:05:55Z</time>
      </trkpt>
      <trkpt lat="49.08138" lon="4.24031">
        <ele>97.71</ele>
        <time>2021-08-09T15:05:56Z</time>
      </trkpt>
      <trkpt lat="49.08086" lon="4.24078">
        <ele>96.27</ele>
        <time>2021-08-09T15:06:04Z</time>
      </trkpt>
      <trkpt lat="49.08024" lon="4.24136">
        <ele>95.79</ele>
        <time>2021-08-09T15:06:14Z</time>
      </trkpt>
      <trkpt lat="49.07968" lon="4.24188">
        <ele>95.79</ele>
        <time>2021-08-09T15:06:24Z</time>
      </trkpt>
      <trkpt lat="49.07953" lon="4.24201">
        <ele>97.23</ele>
        <time>2021-08-09T15:06:27Z</time>
      </trkpt>
      <trkpt lat="49.07921" lon="4.24231">
        <ele>99.15</ele>
        <time>2021-08-09T15:06:35Z</time>
      </trkpt>
      <trkpt lat="49.07895" lon="4.24255">
        <ele>99.63</ele>
        <time>2021-08-09T15:06:43Z</time>
      </trkpt>
      <trkpt lat="49.07883" lon="4.2428">
        <ele>100.6</ele>
        <time>2021-08-09T15:06:50Z</time>
      </trkpt>
      <trkpt lat="49.07891" lon="4.2431">
        <ele>101.08</ele>
        <time>2021-08-09T15:06:56Z</time>
      </trkpt>
      <trkpt lat="49.07896" lon="4.24337">
        <ele>101.08</ele>
        <time>2021-08-09T15:07:01Z</time>
      </trkpt>
      <trkpt lat="49.07895" lon="4.24341">
        <ele>101.56</ele>
        <time>2021-08-09T15:07:02Z</time>
      </trkpt>
      <trkpt lat="49.07893" lon="4.24346">
        <ele>101.56</ele>
        <time>2021-08-09T15:07:03Z</time>
      </trkpt>
      <trkpt lat="49.07892" lon="4.24348">
        <ele>102.04</ele>
        <time>2021-08-09T15:07:04Z</time>
      </trkpt>
      <trkpt lat="49.07891" lon="4.24348">
        <ele>102.04</ele>
        <time>2021-08-09T15:07:09Z</time>
      </trkpt>
      <trkpt lat="49.07891" lon="4.24347">
        <ele>102.04</ele>
        <time>2021-08-09T15:07:27Z</time>
      </trkpt>
      <trkpt lat="49.07892" lon="4.24345">
        <ele>102.52</ele>
        <time>2021-08-09T15:07:47Z</time>
      </trkpt>
      <trkpt lat="49.07892" lon="4.24346">
        <ele>102.52</ele>
        <time>2021-08-09T15:08:03Z</time>
      </trkpt>
      <trkpt lat="49.07893" lon="4.24346">
        <ele>102.52</ele>
        <time>2021-08-09T15:08:22Z</time>
      </trkpt>
      <trkpt lat="49.07893" lon="4.24346">
        <ele>102.52</ele>
        <time>2021-08-09T15:08:38Z</time>
      </trkpt>
      <trkpt lat="49.07892" lon="4.24346">
        <ele>102.52</ele>
        <time>2021-08-09T15:08:58Z</time>
      </trkpt>
      <trkpt lat="49.07891" lon="4.24348">
        <ele>102.52</ele>
        <time>2021-08-09T15:09:01Z</time>
      </trkpt>
      <trkpt lat="49.07884" lon="4.24364">
        <ele>102.52</ele>
        <time>2021-08-09T15:09:06Z</time>
      </trkpt>
      <trkpt lat="49.07861" lon="4.24393">
        <ele>101.08</ele>
        <time>2021-08-09T15:09:14Z</time>
      </trkpt>
      <trkpt lat="49.07844" lon="4.24411">
        <ele>102.52</ele>
        <time>2021-08-09T15:09:20Z</time>
      </trkpt>
      <trkpt lat="49.07816" lon="4.24439">
        <ele>103.96</ele>
        <time>2021-08-09T15:09:31Z</time>
      </trkpt>
      <trkpt lat="49.0779" lon="4.24465">
        <ele>104.92</ele>
        <time>2021-08-09T15:09:41Z</time>
      </trkpt>
      <trkpt lat="49.07771" lon="4.24484">
        <ele>105.88</ele>
        <time>2021-08-09T15:09:49Z</time>
      </trkpt>
      <trkpt lat="49.07748" lon="4.24508">
        <ele>107.32</ele>
        <time>2021-08-09T15:09:59Z</time>
      </trkpt>
      <trkpt lat="49.07728" lon="4.24528">
        <ele>107.32</ele>
        <time>2021-08-09T15:10:08Z</time>
      </trkpt>
      <trkpt lat="49.07705" lon="4.24552">
        <ele>108.77</ele>
        <time>2021-08-09T15:10:19Z</time>
      </trkpt>
      <trkpt lat="49.07687" lon="4.24569">
        <ele>109.73</ele>
        <time>2021-08-09T15:10:27Z</time>
      </trkpt>
      <trkpt lat="49.07666" lon="4.2459">
        <ele>110.69</ele>
        <time>2021-08-09T15:10:37Z</time>
      </trkpt>
      <trkpt lat="49.07646" lon="4.24611">
        <ele>111.17</ele>
        <time>2021-08-09T15:10:46Z</time>
      </trkpt>
      <trkpt lat="49.07627" lon="4.24631">
        <ele>112.61</ele>
        <time>2021-08-09T15:10:55Z</time>
      </trkpt>
      <trkpt lat="49.0761" lon="4.24649">
        <ele>113.57</ele>
        <time>2021-08-09T15:11:03Z</time>
      </trkpt>
      <trkpt lat="49.07588" lon="4.24672">
        <ele>114.53</ele>
        <time>2021-08-09T15:11:13Z</time>
      </trkpt>
      <trkpt lat="49.07583" lon="4.24676">
        <ele>115.01</ele>
        <time>2021-08-09T15:11:15Z</time>
      </trkpt>
      <trkpt lat="49.07566" lon="4.24694">
        <ele>116.46</ele>
        <time>2021-08-09T15:11:23Z</time>
      </trkpt>
      <trkpt lat="49.0754" lon="4.2472">
        <ele>117.42</ele>
        <time>2021-08-09T15:11:35Z</time>
      </trkpt>
      <trkpt lat="49.07518" lon="4.24742">
        <ele>118.86</ele>
        <time>2021-08-09T15:11:45Z</time>
      </trkpt>
      <trkpt lat="49.07501" lon="4.24759">
        <ele>119.34</ele>
        <time>2021-08-09T15:11:53Z</time>
      </trkpt>
      <trkpt lat="49.07483" lon="4.24777">
        <ele>121.26</ele>
        <time>2021-08-09T15:12:01Z</time>
      </trkpt>
      <trkpt lat="49.07468" lon="4.24794">
        <ele>121.26</ele>
        <time>2021-08-09T15:12:08Z</time>
      </trkpt>
      <trkpt lat="49.07445" lon="4.2482">
        <ele>122.71</ele>
        <time>2021-08-09T15:12:18Z</time>
      </trkpt>
      <trkpt lat="49.07419" lon="4.24847">
        <ele>123.67</ele>
        <time>2021-08-09T15:12:29Z</time>
      </trkpt>
      <trkpt lat="49.07398" lon="4.2487">
        <ele>124.15</ele>
        <time>2021-08-09T15:12:38Z</time>
      </trkpt>
      <trkpt lat="49.07372" lon="4.24897">
        <ele>125.59</ele>
        <time>2021-08-09T15:12:48Z</time>
      </trkpt>
      <trkpt lat="49.07345" lon="4.24926">
        <ele>126.55</ele>
        <time>2021-08-09T15:12:59Z</time>
      </trkpt>
      <trkpt lat="49.07325" lon="4.24947">
        <ele>127.99</ele>
        <time>2021-08-09T15:13:07Z</time>
      </trkpt>
      <trkpt lat="49.07298" lon="4.24975">
        <ele>129.92</ele>
        <time>2021-08-09T15:13:18Z</time>
      </trkpt>
      <trkpt lat="49.07275" lon="4.24997">
        <ele>130.88</ele>
        <time>2021-08-09T15:13:27Z</time>
      </trkpt>
      <trkpt lat="49.07253" lon="4.2502">
        <ele>130.4</ele>
        <time>2021-08-09T15:13:36Z</time>
      </trkpt>
      <trkpt lat="49.07241" lon="4.25033">
        <ele>131.84</ele>
        <time>2021-08-09T15:13:41Z</time>
      </trkpt>
      <trkpt lat="49.07218" lon="4.25056">
        <ele>132.8</ele>
        <time>2021-08-09T15:13:50Z</time>
      </trkpt>
      <trkpt lat="49.07194" lon="4.25079">
        <ele>133.28</ele>
        <time>2021-08-09T15:13:59Z</time>
      </trkpt>
      <trkpt lat="49.0717" lon="4.25103">
        <ele>134.72</ele>
        <time>2021-08-09T15:14:08Z</time>
      </trkpt>
      <trkpt lat="49.07141" lon="4.25131">
        <ele>135.68</ele>
        <time>2021-08-09T15:14:18Z</time>
      </trkpt>
      <trkpt lat="49.07112" lon="4.2516">
        <ele>135.68</ele>
        <time>2021-08-09T15:14:27Z</time>
      </trkpt>
      <trkpt lat="49.07075" lon="4.25198">
        <ele>135.68</ele>
        <time>2021-08-09T15:14:37Z</time>
      </trkpt>
      <trkpt lat="49.07067" lon="4.25206">
        <ele>134.24</ele>
        <time>2021-08-09T15:14:39Z</time>
      </trkpt>
      <trkpt lat="49.0703" lon="4.25242">
        <ele>133.76</ele>
        <time>2021-08-09T15:14:48Z</time>
      </trkpt>
      <trkpt lat="49.06996" lon="4.25279">
        <ele>133.28</ele>
        <time>2021-08-09T15:14:56Z</time>
      </trkpt>
      <trkpt lat="49.06957" lon="4.25317">
        <ele>129.92</ele>
        <time>2021-08-09T15:15:04Z</time>
      </trkpt>
      <trkpt lat="49.06904" lon="4.2537">
        <ele>128.95</ele>
        <time>2021-08-09T15:15:14Z</time>
      </trkpt>
      <trkpt lat="49.06893" lon="4.25381">
        <ele>128.95</ele>
        <time>2021-08-09T15:15:16Z</time>
      </trkpt>
      <trkpt lat="49.06889" lon="4.25388">
        <ele>127.99</ele>
        <time>2021-08-09T15:15:17Z</time>
      </trkpt>
      <trkpt lat="49.06887" lon="4.25394">
        <ele>129.43</ele>
        <time>2021-08-09T15:15:18Z</time>
      </trkpt>
      <trkpt lat="49.06886" lon="4.2541">
        <ele>128.95</ele>
        <time>2021-08-09T15:15:21Z</time>
      </trkpt>
      <trkpt lat="49.06888" lon="4.25415">
        <ele>128.95</ele>
        <time>2021-08-09T15:15:22Z</time>
      </trkpt>
      <trkpt lat="49.0689" lon="4.25421">
        <ele>128.95</ele>
        <time>2021-08-09T15:15:23Z</time>
      </trkpt>
      <trkpt lat="49.06898" lon="4.2544">
        <ele>128.95</ele>
        <time>2021-08-09T15:15:26Z</time>
      </trkpt>
      <trkpt lat="49.06901" lon="4.25448">
        <ele>128.95</ele>
        <time>2021-08-09T15:15:27Z</time>
      </trkpt>
      <trkpt lat="49.06903" lon="4.25456">
        <ele>127.99</ele>
        <time>2021-08-09T15:15:28Z</time>
      </trkpt>
      <trkpt lat="49.06905" lon="4.25463">
        <ele>127.99</ele>
        <time>2021-08-09T15:15:29Z</time>
      </trkpt>
      <trkpt lat="49.06926" lon="4.25543">
        <ele>127.99</ele>
        <time>2021-08-09T15:15:38Z</time>
      </trkpt>
      <trkpt lat="49.06956" lon="4.25649">
        <ele>127.99</ele>
        <time>2021-08-09T15:15:50Z</time>
      </trkpt>
      <trkpt lat="49.06983" lon="4.25744">
        <ele>127.99</ele>
        <time>2021-08-09T15:16:01Z</time>
      </trkpt>
      <trkpt lat="49.07007" lon="4.2583">
        <ele>126.55</ele>
        <time>2021-08-09T15:16:11Z</time>
      </trkpt>
      <trkpt lat="49.07024" lon="4.25888">
        <ele>126.07</ele>
        <time>2021-08-09T15:16:18Z</time>
      </trkpt>
      <trkpt lat="49.07025" lon="4.25896">
        <ele>126.07</ele>
        <time>2021-08-09T15:16:19Z</time>
      </trkpt>
      <trkpt lat="49.07024" lon="4.25906">
        <ele>125.59</ele>
        <time>2021-08-09T15:16:20Z</time>
      </trkpt>
      <trkpt lat="49.07022" lon="4.25913">
        <ele>125.11</ele>
        <time>2021-08-09T15:16:21Z</time>
      </trkpt>
      <trkpt lat="49.07019" lon="4.25919">
        <ele>125.11</ele>
        <time>2021-08-09T15:16:22Z</time>
      </trkpt>
      <trkpt lat="49.07015" lon="4.25925">
        <ele>124.63</ele>
        <time>2021-08-09T15:16:23Z</time>
      </trkpt>
      <trkpt lat="49.0701" lon="4.25931">
        <ele>123.67</ele>
        <time>2021-08-09T15:16:24Z</time>
      </trkpt>
      <trkpt lat="49.07006" lon="4.25937">
        <ele>123.67</ele>
        <time>2021-08-09T15:16:25Z</time>
      </trkpt>
      <trkpt lat="49.06964" lon="4.25996">
        <ele>121.74</ele>
        <time>2021-08-09T15:16:34Z</time>
      </trkpt>
      <trkpt lat="49.06914" lon="4.26066">
        <ele>117.9</ele>
        <time>2021-08-09T15:16:44Z</time>
      </trkpt>
      <trkpt lat="49.06862" lon="4.26138">
        <ele>115.98</ele>
        <time>2021-08-09T15:16:54Z</time>
      </trkpt>
      <trkpt lat="49.06838" lon="4.26172">
        <ele>115.01</ele>
        <time>2021-08-09T15:16:59Z</time>
      </trkpt>
      <trkpt lat="49.06827" lon="4.26184">
        <ele>115.01</ele>
        <time>2021-08-09T15:17:01Z</time>
      </trkpt>
      <trkpt lat="49.06808" lon="4.26213">
        <ele>113.09</ele>
        <time>2021-08-09T15:17:05Z</time>
      </trkpt>
      <trkpt lat="49.06762" lon="4.26281">
        <ele>111.65</ele>
        <time>2021-08-09T15:17:15Z</time>
      </trkpt>
      <trkpt lat="49.06704" lon="4.26362">
        <ele>110.69</ele>
        <time>2021-08-09T15:17:27Z</time>
      </trkpt>
      <trkpt lat="49.06647" lon="4.26443">
        <ele>109.73</ele>
        <time>2021-08-09T15:17:39Z</time>
      </trkpt>
      <trkpt lat="49.06607" lon="4.265">
        <ele>109.25</ele>
        <time>2021-08-09T15:17:48Z</time>
      </trkpt>
      <trkpt lat="49.06561" lon="4.26567">
        <ele>108.29</ele>
        <time>2021-08-09T15:17:59Z</time>
      </trkpt>
      <trkpt lat="49.06537" lon="4.26601">
        <ele>108.29</ele>
        <time>2021-08-09T15:18:05Z</time>
      </trkpt>
      <trkpt lat="49.06535" lon="4.26607">
        <ele>108.29</ele>
        <time>2021-08-09T15:18:06Z</time>
      </trkpt>
      <trkpt lat="49.06534" lon="4.26616">
        <ele>109.73</ele>
        <time>2021-08-09T15:18:07Z</time>
      </trkpt>
      <trkpt lat="49.06534" lon="4.26621">
        <ele>109.73</ele>
        <time>2021-08-09T15:18:08Z</time>
      </trkpt>
      <trkpt lat="49.06536" lon="4.26629">
        <ele>110.21</ele>
        <time>2021-08-09T15:18:09Z</time>
      </trkpt>
      <trkpt lat="49.06538" lon="4.26636">
        <ele>110.21</ele>
        <time>2021-08-09T15:18:10Z</time>
      </trkpt>
      <trkpt lat="49.0654" lon="4.26643">
        <ele>110.21</ele>
        <time>2021-08-09T15:18:11Z</time>
      </trkpt>
      <trkpt lat="49.06563" lon="4.26722">
        <ele>111.17</ele>
        <time>2021-08-09T15:18:23Z</time>
      </trkpt>
      <trkpt lat="49.06578" lon="4.26779">
        <ele>112.61</ele>
        <time>2021-08-09T15:18:33Z</time>
      </trkpt>
      <trkpt lat="49.06591" lon="4.26825">
        <ele>114.05</ele>
        <time>2021-08-09T15:18:41Z</time>
      </trkpt>
      <trkpt lat="49.06611" lon="4.26895">
        <ele>115.01</ele>
        <time>2021-08-09T15:18:53Z</time>
      </trkpt>
      <trkpt lat="49.06629" lon="4.26957">
        <ele>115.98</ele>
        <time>2021-08-09T15:19:04Z</time>
      </trkpt>
      <trkpt lat="49.06643" lon="4.27009">
        <ele>116.94</ele>
        <time>2021-08-09T15:19:13Z</time>
      </trkpt>
      <trkpt lat="49.06663" lon="4.27078">
        <ele>117.42</ele>
        <time>2021-08-09T15:19:25Z</time>
      </trkpt>
      <trkpt lat="49.06682" lon="4.27143">
        <ele>118.38</ele>
        <time>2021-08-09T15:19:36Z</time>
      </trkpt>
      <trkpt lat="49.06686" lon="4.27156">
        <ele>118.38</ele>
        <time>2021-08-09T15:19:38Z</time>
      </trkpt>
      <trkpt lat="49.06688" lon="4.27162">
        <ele>118.38</ele>
        <time>2021-08-09T15:19:39Z</time>
      </trkpt>
      <trkpt lat="49.06702" lon="4.27212">
        <ele>119.34</ele>
        <time>2021-08-09T15:19:47Z</time>
      </trkpt>
      <trkpt lat="49.06703" lon="4.27219">
        <ele>119.34</ele>
        <time>2021-08-09T15:19:48Z</time>
      </trkpt>
      <trkpt lat="49.06704" lon="4.27225">
        <ele>119.82</ele>
        <time>2021-08-09T15:19:49Z</time>
      </trkpt>
      <trkpt lat="49.06704" lon="4.27233">
        <ele>119.82</ele>
        <time>2021-08-09T15:19:50Z</time>
      </trkpt>
      <trkpt lat="49.06703" lon="4.27239">
        <ele>119.82</ele>
        <time>2021-08-09T15:19:51Z</time>
      </trkpt>
      <trkpt lat="49.067" lon="4.27245">
        <ele>119.82</ele>
        <time>2021-08-09T15:19:52Z</time>
      </trkpt>
      <trkpt lat="49.06697" lon="4.2725">
        <ele>119.82</ele>
        <time>2021-08-09T15:19:53Z</time>
      </trkpt>
      <trkpt lat="49.06694" lon="4.27255">
        <ele>117.9</ele>
        <time>2021-08-09T15:19:54Z</time>
      </trkpt>
      <trkpt lat="49.0669" lon="4.2726">
        <ele>117.9</ele>
        <time>2021-08-09T15:19:55Z</time>
      </trkpt>
      <trkpt lat="49.06655" lon="4.27302">
        <ele>115.5</ele>
        <time>2021-08-09T15:20:03Z</time>
      </trkpt>
      <trkpt lat="49.06645" lon="4.27315">
        <ele>114.53</ele>
        <time>2021-08-09T15:20:05Z</time>
      </trkpt>
      <trkpt lat="49.06596" lon="4.27375">
        <ele>112.13</ele>
        <time>2021-08-09T15:20:14Z</time>
      </trkpt>
      <trkpt lat="49.06543" lon="4.27437">
        <ele>110.21</ele>
        <time>2021-08-09T15:20:24Z</time>
      </trkpt>
      <trkpt lat="49.06483" lon="4.2751">
        <ele>107.81</ele>
        <time>2021-08-09T15:20:35Z</time>
      </trkpt>
      <trkpt lat="49.06443" lon="4.27556">
        <ele>105.88</ele>
        <time>2021-08-09T15:20:42Z</time>
      </trkpt>
      <trkpt lat="49.06432" lon="4.2757">
        <ele>106.84</ele>
        <time>2021-08-09T15:20:44Z</time>
      </trkpt>
      <trkpt lat="49.06395" lon="4.27612">
        <ele>104.92</ele>
        <time>2021-08-09T15:20:51Z</time>
      </trkpt>
      <trkpt lat="49.06339" lon="4.27678">
        <ele>104.44</ele>
        <time>2021-08-09T15:21:01Z</time>
      </trkpt>
      <trkpt lat="49.06329" lon="4.27691">
        <ele>103</ele>
        <time>2021-08-09T15:21:03Z</time>
      </trkpt>
      <trkpt lat="49.06297" lon="4.27729">
        <ele>102.04</ele>
        <time>2021-08-09T15:21:09Z</time>
      </trkpt>
      <trkpt lat="49.06291" lon="4.27733">
        <ele>102.04</ele>
        <time>2021-08-09T15:21:10Z</time>
      </trkpt>
      <trkpt lat="49.06285" lon="4.27736">
        <ele>101.56</ele>
        <time>2021-08-09T15:21:11Z</time>
      </trkpt>
      <trkpt lat="49.06279" lon="4.27736">
        <ele>101.08</ele>
        <time>2021-08-09T15:21:12Z</time>
      </trkpt>
      <trkpt lat="49.06272" lon="4.27736">
        <ele>100.11</ele>
        <time>2021-08-09T15:21:13Z</time>
      </trkpt>
      <trkpt lat="49.06266" lon="4.27735">
        <ele>100.11</ele>
        <time>2021-08-09T15:21:14Z</time>
      </trkpt>
      <trkpt lat="49.06228" lon="4.27722">
        <ele>100.11</ele>
        <time>2021-08-09T15:21:21Z</time>
      </trkpt>
      <trkpt lat="49.06224" lon="4.27718">
        <ele>101.56</ele>
        <time>2021-08-09T15:21:22Z</time>
      </trkpt>
      <trkpt lat="49.0622" lon="4.27713">
        <ele>101.56</ele>
        <time>2021-08-09T15:21:23Z</time>
      </trkpt>
      <trkpt lat="49.06201" lon="4.27687">
        <ele>101.56</ele>
        <time>2021-08-09T15:21:28Z</time>
      </trkpt>
      <trkpt lat="49.06181" lon="4.27659">
        <ele>102.52</ele>
        <time>2021-08-09T15:21:34Z</time>
      </trkpt>
      <trkpt lat="49.06177" lon="4.27655">
        <ele>103</ele>
        <time>2021-08-09T15:21:35Z</time>
      </trkpt>
      <trkpt lat="49.06173" lon="4.27653">
        <ele>103</ele>
        <time>2021-08-09T15:21:36Z</time>
      </trkpt>
      <trkpt lat="49.0617" lon="4.27651">
        <ele>103</ele>
        <time>2021-08-09T15:21:37Z</time>
      </trkpt>
      <trkpt lat="49.06165" lon="4.27651">
        <ele>103.48</ele>
        <time>2021-08-09T15:21:38Z</time>
      </trkpt>
      <trkpt lat="49.06162" lon="4.27653">
        <ele>103.48</ele>
        <time>2021-08-09T15:21:39Z</time>
      </trkpt>
      <trkpt lat="49.06159" lon="4.27657">
        <ele>103.48</ele>
        <time>2021-08-09T15:21:40Z</time>
      </trkpt>
      <trkpt lat="49.06156" lon="4.27661">
        <ele>104.92</ele>
        <time>2021-08-09T15:21:41Z</time>
      </trkpt>
      <trkpt lat="49.06155" lon="4.27666">
        <ele>104.92</ele>
        <time>2021-08-09T15:21:42Z</time>
      </trkpt>
      <trkpt lat="49.06154" lon="4.27671">
        <ele>104.92</ele>
        <time>2021-08-09T15:21:43Z</time>
      </trkpt>
      <trkpt lat="49.06155" lon="4.27677">
        <ele>104.92</ele>
        <time>2021-08-09T15:21:44Z</time>
      </trkpt>
      <trkpt lat="49.06156" lon="4.27684">
        <ele>104.92</ele>
        <time>2021-08-09T15:21:45Z</time>
      </trkpt>
      <trkpt lat="49.06159" lon="4.27689">
        <ele>104.92</ele>
        <time>2021-08-09T15:21:46Z</time>
      </trkpt>
      <trkpt lat="49.06161" lon="4.27694">
        <ele>104.92</ele>
        <time>2021-08-09T15:21:47Z</time>
      </trkpt>
      <trkpt lat="49.06164" lon="4.27699">
        <ele>104.92</ele>
        <time>2021-08-09T15:21:48Z</time>
      </trkpt>
      <trkpt lat="49.06171" lon="4.27709">
        <ele>103.48</ele>
        <time>2021-08-09T15:21:50Z</time>
      </trkpt>
      <trkpt lat="49.06174" lon="4.27715">
        <ele>103.48</ele>
        <time>2021-08-09T15:21:51Z</time>
      </trkpt>
      <trkpt lat="49.06177" lon="4.27721">
        <ele>103.48</ele>
        <time>2021-08-09T15:21:52Z</time>
      </trkpt>
      <trkpt lat="49.0618" lon="4.27727">
        <ele>103.48</ele>
        <time>2021-08-09T15:21:53Z</time>
      </trkpt>
      <trkpt lat="49.06193" lon="4.27747">
        <ele>104.92</ele>
        <time>2021-08-09T15:21:57Z</time>
      </trkpt>
      <trkpt lat="49.06209" lon="4.27774">
        <ele>107.32</ele>
        <time>2021-08-09T15:22:03Z</time>
      </trkpt>
      <trkpt lat="49.06211" lon="4.27779">
        <ele>107.32</ele>
        <time>2021-08-09T15:22:04Z</time>
      </trkpt>
      <trkpt lat="49.06236" lon="4.27827">
        <ele>109.25</ele>
        <time>2021-08-09T15:22:14Z</time>
      </trkpt>
      <trkpt lat="49.0626" lon="4.27874">
        <ele>109.25</ele>
        <time>2021-08-09T15:22:23Z</time>
      </trkpt>
      <trkpt lat="49.06283" lon="4.27919">
        <ele>106.36</ele>
        <time>2021-08-09T15:22:29Z</time>
      </trkpt>
      <trkpt lat="49.06304" lon="4.27958">
        <ele>103.48</ele>
        <time>2021-08-09T15:22:33Z</time>
      </trkpt>
      <trkpt lat="49.06346" lon="4.2804">
        <ele>102.52</ele>
        <time>2021-08-09T15:22:41Z</time>
      </trkpt>
      <trkpt lat="49.06383" lon="4.2811">
        <ele>105.88</ele>
        <time>2021-08-09T15:22:49Z</time>
      </trkpt>
      <trkpt lat="49.06412" lon="4.28167">
        <ele>106.84</ele>
        <time>2021-08-09T15:22:56Z</time>
      </trkpt>
      <trkpt lat="49.06451" lon="4.28247">
        <ele>108.29</ele>
        <time>2021-08-09T15:23:06Z</time>
      </trkpt>
      <trkpt lat="49.06496" lon="4.28354">
        <ele>109.25</ele>
        <time>2021-08-09T15:23:19Z</time>
      </trkpt>
      <trkpt lat="49.06527" lon="4.28436">
        <ele>109.25</ele>
        <time>2021-08-09T15:23:28Z</time>
      </trkpt>
      <trkpt lat="49.0656" lon="4.28529">
        <ele>109.73</ele>
        <time>2021-08-09T15:23:38Z</time>
      </trkpt>
      <trkpt lat="49.06576" lon="4.28609">
        <ele>109.73</ele>
        <time>2021-08-09T15:23:46Z</time>
      </trkpt>
      <trkpt lat="49.06594" lon="4.28721">
        <ele>108.29</ele>
        <time>2021-08-09T15:23:57Z</time>
      </trkpt>
      <trkpt lat="49.06599" lon="4.28806">
        <ele>107.32</ele>
        <time>2021-08-09T15:24:05Z</time>
      </trkpt>
      <trkpt lat="49.06602" lon="4.28889">
        <ele>106.36</ele>
        <time>2021-08-09T15:24:13Z</time>
      </trkpt>
      <trkpt lat="49.06617" lon="4.28954">
        <ele>105.88</ele>
        <time>2021-08-09T15:24:20Z</time>
      </trkpt>
      <trkpt lat="49.06651" lon="4.29062">
        <ele>106.36</ele>
        <time>2021-08-09T15:24:32Z</time>
      </trkpt>
      <trkpt lat="49.06661" lon="4.29094">
        <ele>106.84</ele>
        <time>2021-08-09T15:24:36Z</time>
      </trkpt>
      <trkpt lat="49.06662" lon="4.29103">
        <ele>106.84</ele>
        <time>2021-08-09T15:24:37Z</time>
      </trkpt>
      <trkpt lat="49.06661" lon="4.29111">
        <ele>106.84</ele>
        <time>2021-08-09T15:24:38Z</time>
      </trkpt>
      <trkpt lat="49.06659" lon="4.29117">
        <ele>106.84</ele>
        <time>2021-08-09T15:24:39Z</time>
      </trkpt>
      <trkpt lat="49.06655" lon="4.29123">
        <ele>106.84</ele>
        <time>2021-08-09T15:24:40Z</time>
      </trkpt>
      <trkpt lat="49.06651" lon="4.29126">
        <ele>106.84</ele>
        <time>2021-08-09T15:24:41Z</time>
      </trkpt>
      <trkpt lat="49.06646" lon="4.29128">
        <ele>106.84</ele>
        <time>2021-08-09T15:24:42Z</time>
      </trkpt>
      <trkpt lat="49.06627" lon="4.2914">
        <ele>106.84</ele>
        <time>2021-08-09T15:24:46Z</time>
      </trkpt>
      <trkpt lat="49.06611" lon="4.29148">
        <ele>106.84</ele>
        <time>2021-08-09T15:24:50Z</time>
      </trkpt>
      <trkpt lat="49.06606" lon="4.29149">
        <ele>106.84</ele>
        <time>2021-08-09T15:24:51Z</time>
      </trkpt>
      <trkpt lat="49.06571" lon="4.29156">
        <ele>104.92</ele>
        <time>2021-08-09T15:24:58Z</time>
      </trkpt>
      <trkpt lat="49.06522" lon="4.29165">
        <ele>103.96</ele>
        <time>2021-08-09T15:25:06Z</time>
      </trkpt>
      <trkpt lat="49.06473" lon="4.29187">
        <ele>103</ele>
        <time>2021-08-09T15:25:14Z</time>
      </trkpt>
      <trkpt lat="49.06417" lon="4.29225">
        <ele>102.04</ele>
        <time>2021-08-09T15:25:23Z</time>
      </trkpt>
      <trkpt lat="49.06405" lon="4.29235">
        <ele>102.52</ele>
        <time>2021-08-09T15:25:25Z</time>
      </trkpt>
      <trkpt lat="49.06364" lon="4.29258">
        <ele>102.52</ele>
        <time>2021-08-09T15:25:32Z</time>
      </trkpt>
      <trkpt lat="49.06346" lon="4.29268">
        <ele>101.08</ele>
        <time>2021-08-09T15:25:35Z</time>
      </trkpt>
      <trkpt lat="49.06329" lon="4.29276">
        <ele>101.08</ele>
        <time>2021-08-09T15:25:38Z</time>
      </trkpt>
      <trkpt lat="49.06325" lon="4.2928">
        <ele>101.08</ele>
        <time>2021-08-09T15:25:39Z</time>
      </trkpt>
      <trkpt lat="49.06322" lon="4.29286">
        <ele>101.08</ele>
        <time>2021-08-09T15:25:40Z</time>
      </trkpt>
      <trkpt lat="49.06321" lon="4.29294">
        <ele>102.52</ele>
        <time>2021-08-09T15:25:41Z</time>
      </trkpt>
      <trkpt lat="49.06322" lon="4.29302">
        <ele>102.52</ele>
        <time>2021-08-09T15:25:42Z</time>
      </trkpt>
      <trkpt lat="49.06324" lon="4.29308">
        <ele>102.52</ele>
        <time>2021-08-09T15:25:43Z</time>
      </trkpt>
      <trkpt lat="49.06328" lon="4.29316">
        <ele>103</ele>
        <time>2021-08-09T15:25:44Z</time>
      </trkpt>
      <trkpt lat="49.06351" lon="4.2937">
        <ele>102.04</ele>
        <time>2021-08-09T15:25:52Z</time>
      </trkpt>
      <trkpt lat="49.06369" lon="4.29414">
        <ele>103</ele>
        <time>2021-08-09T15:25:58Z</time>
      </trkpt>
      <trkpt lat="49.06388" lon="4.29459">
        <ele>104.44</ele>
        <time>2021-08-09T15:26:06Z</time>
      </trkpt>
      <trkpt lat="49.0639" lon="4.2946">
        <ele>104.44</ele>
        <time>2021-08-09T15:26:07Z</time>
      </trkpt>
      <trkpt lat="49.06393" lon="4.2946">
        <ele>104.44</ele>
        <time>2021-08-09T15:26:08Z</time>
      </trkpt>
      <trkpt lat="49.06396" lon="4.29459">
        <ele>104.44</ele>
        <time>2021-08-09T15:26:09Z</time>
      </trkpt>
      <trkpt lat="49.064" lon="4.29458">
        <ele>104.44</ele>
        <time>2021-08-09T15:26:10Z</time>
      </trkpt>
      <trkpt lat="49.06404" lon="4.29459">
        <ele>103</ele>
        <time>2021-08-09T15:26:11Z</time>
      </trkpt>
      <trkpt lat="49.06407" lon="4.29463">
        <ele>103</ele>
        <time>2021-08-09T15:26:12Z</time>
      </trkpt>
      <trkpt lat="49.0641" lon="4.29469">
        <ele>103</ele>
        <time>2021-08-09T15:26:13Z</time>
      </trkpt>
      <trkpt lat="49.06413" lon="4.29476">
        <ele>103</ele>
        <time>2021-08-09T15:26:14Z</time>
      </trkpt>
      <trkpt lat="49.06415" lon="4.29483">
        <ele>103</ele>
        <time>2021-08-09T15:26:15Z</time>
      </trkpt>
      <trkpt lat="49.0642" lon="4.29499">
        <ele>103</ele>
        <time>2021-08-09T15:26:17Z</time>
      </trkpt>
      <trkpt lat="49.06441" lon="4.2956">
        <ele>103</ele>
        <time>2021-08-09T15:26:25Z</time>
      </trkpt>
      <trkpt lat="49.06471" lon="4.2965">
        <ele>103</ele>
        <time>2021-08-09T15:26:36Z</time>
      </trkpt>
      <trkpt lat="49.06495" lon="4.29715">
        <ele>104.92</ele>
        <time>2021-08-09T15:26:44Z</time>
      </trkpt>
      <trkpt lat="49.06518" lon="4.29779">
        <ele>104.92</ele>
        <time>2021-08-09T15:26:52Z</time>
      </trkpt>
      <trkpt lat="49.06521" lon="4.29788">
        <ele>104.92</ele>
        <time>2021-08-09T15:26:53Z</time>
      </trkpt>
      <trkpt lat="49.06536" lon="4.29827">
        <ele>105.4</ele>
        <time>2021-08-09T15:26:58Z</time>
      </trkpt>
      <trkpt lat="49.0654" lon="4.29836">
        <ele>105.4</ele>
        <time>2021-08-09T15:26:59Z</time>
      </trkpt>
      <trkpt lat="49.06572" lon="4.29923">
        <ele>106.84</ele>
        <time>2021-08-09T15:27:10Z</time>
      </trkpt>
      <trkpt lat="49.06604" lon="4.30003">
        <ele>107.81</ele>
        <time>2021-08-09T15:27:20Z</time>
      </trkpt>
      <trkpt lat="49.06636" lon="4.30091">
        <ele>107.81</ele>
        <time>2021-08-09T15:27:31Z</time>
      </trkpt>
      <trkpt lat="49.0668" lon="4.30207">
        <ele>108.29</ele>
        <time>2021-08-09T15:27:45Z</time>
      </trkpt>
      <trkpt lat="49.06714" lon="4.30294">
        <ele>109.25</ele>
        <time>2021-08-09T15:27:55Z</time>
      </trkpt>
      <trkpt lat="49.06745" lon="4.30381">
        <ele>110.21</ele>
        <time>2021-08-09T15:28:06Z</time>
      </trkpt>
      <trkpt lat="49.06766" lon="4.30434">
        <ele>112.13</ele>
        <time>2021-08-09T15:28:14Z</time>
      </trkpt>
      <trkpt lat="49.06778" lon="4.30471">
        <ele>113.09</ele>
        <time>2021-08-09T15:28:20Z</time>
      </trkpt>
      <trkpt lat="49.06778" lon="4.30478">
        <ele>113.57</ele>
        <time>2021-08-09T15:28:21Z</time>
      </trkpt>
      <trkpt lat="49.06776" lon="4.30484">
        <ele>114.53</ele>
        <time>2021-08-09T15:28:22Z</time>
      </trkpt>
      <trkpt lat="49.06773" lon="4.30489">
        <ele>114.53</ele>
        <time>2021-08-09T15:28:23Z</time>
      </trkpt>
      <trkpt lat="49.06769" lon="4.30492">
        <ele>114.53</ele>
        <time>2021-08-09T15:28:24Z</time>
      </trkpt>
      <trkpt lat="49.06765" lon="4.30495">
        <ele>114.05</ele>
        <time>2021-08-09T15:28:25Z</time>
      </trkpt>
      <trkpt lat="49.06753" lon="4.30506">
        <ele>115.5</ele>
        <time>2021-08-09T15:28:28Z</time>
      </trkpt>
      <trkpt lat="49.06748" lon="4.30509">
        <ele>113.09</ele>
        <time>2021-08-09T15:28:29Z</time>
      </trkpt>
      <trkpt lat="49.06744" lon="4.30513">
        <ele>113.09</ele>
        <time>2021-08-09T15:28:30Z</time>
      </trkpt>
      <trkpt lat="49.06695" lon="4.30556">
        <ele>112.61</ele>
        <time>2021-08-09T15:28:41Z</time>
      </trkpt>
      <trkpt lat="49.06653" lon="4.30592">
        <ele>110.69</ele>
        <time>2021-08-09T15:28:50Z</time>
      </trkpt>
      <trkpt lat="49.06604" lon="4.30634">
        <ele>108.77</ele>
        <time>2021-08-09T15:28:59Z</time>
      </trkpt>
      <trkpt lat="49.06581" lon="4.30654">
        <ele>107.32</ele>
        <time>2021-08-09T15:29:03Z</time>
      </trkpt>
      <trkpt lat="49.0652" lon="4.30706">
        <ele>106.36</ele>
        <time>2021-08-09T15:29:13Z</time>
      </trkpt>
      <trkpt lat="49.06479" lon="4.3074">
        <ele>107.32</ele>
        <time>2021-08-09T15:29:21Z</time>
      </trkpt>
      <trkpt lat="49.06475" lon="4.30744">
        <ele>107.81</ele>
        <time>2021-08-09T15:29:22Z</time>
      </trkpt>
      <trkpt lat="49.06471" lon="4.30747">
        <ele>107.81</ele>
        <time>2021-08-09T15:29:23Z</time>
      </trkpt>
      <trkpt lat="49.06449" lon="4.30766">
        <ele>108.77</ele>
        <time>2021-08-09T15:29:30Z</time>
      </trkpt>
      <trkpt lat="49.06417" lon="4.30792">
        <ele>110.69</ele>
        <time>2021-08-09T15:29:41Z</time>
      </trkpt>
      <trkpt lat="49.06387" lon="4.30815">
        <ele>111.65</ele>
        <time>2021-08-09T15:29:52Z</time>
      </trkpt>
      <trkpt lat="49.06366" lon="4.30834">
        <ele>113.09</ele>
        <time>2021-08-09T15:30:00Z</time>
      </trkpt>
      <trkpt lat="49.06342" lon="4.30853">
        <ele>113.57</ele>
        <time>2021-08-09T15:30:09Z</time>
      </trkpt>
      <trkpt lat="49.06318" lon="4.30873">
        <ele>114.53</ele>
        <time>2021-08-09T15:30:18Z</time>
      </trkpt>
      <trkpt lat="49.06296" lon="4.30891">
        <ele>115.5</ele>
        <time>2021-08-09T15:30:27Z</time>
      </trkpt>
      <trkpt lat="49.06275" lon="4.30909">
        <ele>116.94</ele>
        <time>2021-08-09T15:30:36Z</time>
      </trkpt>
      <trkpt lat="49.06252" lon="4.30929">
        <ele>118.38</ele>
        <time>2021-08-09T15:30:47Z</time>
      </trkpt>
      <trkpt lat="49.06237" lon="4.30942">
        <ele>119.34</ele>
        <time>2021-08-09T15:30:56Z</time>
      </trkpt>
      <trkpt lat="49.06219" lon="4.30958">
        <ele>120.3</ele>
        <time>2021-08-09T15:31:07Z</time>
      </trkpt>
      <trkpt lat="49.06204" lon="4.3097">
        <ele>121.26</ele>
        <time>2021-08-09T15:31:16Z</time>
      </trkpt>
      <trkpt lat="49.06191" lon="4.30981">
        <ele>122.22</ele>
        <time>2021-08-09T15:31:24Z</time>
      </trkpt>
      <trkpt lat="49.06179" lon="4.30992">
        <ele>123.19</ele>
        <time>2021-08-09T15:31:31Z</time>
      </trkpt>
      <trkpt lat="49.06166" lon="4.31002">
        <ele>123.67</ele>
        <time>2021-08-09T15:31:38Z</time>
      </trkpt>
      <trkpt lat="49.06152" lon="4.31014">
        <ele>125.59</ele>
        <time>2021-08-09T15:31:46Z</time>
      </trkpt>
      <trkpt lat="49.06137" lon="4.31026">
        <ele>126.55</ele>
        <time>2021-08-09T15:31:55Z</time>
      </trkpt>
      <trkpt lat="49.06125" lon="4.31036">
        <ele>126.55</ele>
        <time>2021-08-09T15:32:02Z</time>
      </trkpt>
      <trkpt lat="49.06119" lon="4.31041">
        <ele>127.51</ele>
        <time>2021-08-09T15:32:05Z</time>
      </trkpt>
      <trkpt lat="49.06107" lon="4.31051">
        <ele>128.95</ele>
        <time>2021-08-09T15:32:12Z</time>
      </trkpt>
      <trkpt lat="49.06088" lon="4.31067">
        <ele>129.43</ele>
        <time>2021-08-09T15:32:22Z</time>
      </trkpt>
      <trkpt lat="49.06071" lon="4.31082">
        <ele>129.92</ele>
        <time>2021-08-09T15:32:31Z</time>
      </trkpt>
      <trkpt lat="49.06057" lon="4.31094">
        <ele>131.36</ele>
        <time>2021-08-09T15:32:38Z</time>
      </trkpt>
      <trkpt lat="49.06041" lon="4.31108">
        <ele>131.84</ele>
        <time>2021-08-09T15:32:46Z</time>
      </trkpt>
      <trkpt lat="49.06033" lon="4.31115">
        <ele>133.28</ele>
        <time>2021-08-09T15:32:50Z</time>
      </trkpt>
      <trkpt lat="49.06014" lon="4.31131">
        <ele>133.76</ele>
        <time>2021-08-09T15:32:59Z</time>
      </trkpt>
      <trkpt lat="49.05991" lon="4.31149">
        <ele>134.24</ele>
        <time>2021-08-09T15:33:09Z</time>
      </trkpt>
      <trkpt lat="49.05968" lon="4.31169">
        <ele>134.72</ele>
        <time>2021-08-09T15:33:18Z</time>
      </trkpt>
      <trkpt lat="49.0594" lon="4.31193">
        <ele>135.2</ele>
        <time>2021-08-09T15:33:28Z</time>
      </trkpt>
      <trkpt lat="49.05915" lon="4.31214">
        <ele>135.2</ele>
        <time>2021-08-09T15:33:36Z</time>
      </trkpt>
      <trkpt lat="49.05871" lon="4.31253">
        <ele>135.2</ele>
        <time>2021-08-09T15:33:49Z</time>
      </trkpt>
      <trkpt lat="49.05869" lon="4.31257">
        <ele>135.2</ele>
        <time>2021-08-09T15:33:50Z</time>
      </trkpt>
      <trkpt lat="49.05867" lon="4.31263">
        <ele>135.2</ele>
        <time>2021-08-09T15:33:51Z</time>
      </trkpt>
      <trkpt lat="49.05867" lon="4.31269">
        <ele>135.68</ele>
        <time>2021-08-09T15:33:52Z</time>
      </trkpt>
      <trkpt lat="49.05868" lon="4.31275">
        <ele>135.68</ele>
        <time>2021-08-09T15:33:53Z</time>
      </trkpt>
      <trkpt lat="49.0587" lon="4.31283">
        <ele>135.68</ele>
        <time>2021-08-09T15:33:54Z</time>
      </trkpt>
      <trkpt lat="49.05872" lon="4.31286">
        <ele>135.68</ele>
        <time>2021-08-09T15:33:55Z</time>
      </trkpt>
      <trkpt lat="49.059" lon="4.31333">
        <ele>135.68</ele>
        <time>2021-08-09T15:34:03Z</time>
      </trkpt>
      <trkpt lat="49.05935" lon="4.31393">
        <ele>134.72</ele>
        <time>2021-08-09T15:34:12Z</time>
      </trkpt>
      <trkpt lat="49.05987" lon="4.31482">
        <ele>134.24</ele>
        <time>2021-08-09T15:34:25Z</time>
      </trkpt>
      <trkpt lat="49.06029" lon="4.3156">
        <ele>134.24</ele>
        <time>2021-08-09T15:34:36Z</time>
      </trkpt>
      <trkpt lat="49.06067" lon="4.31635">
        <ele>135.68</ele>
        <time>2021-08-09T15:34:46Z</time>
      </trkpt>
      <trkpt lat="49.06101" lon="4.31705">
        <ele>135.2</ele>
        <time>2021-08-09T15:34:55Z</time>
      </trkpt>
      <trkpt lat="49.06131" lon="4.31769">
        <ele>135.2</ele>
        <time>2021-08-09T15:35:03Z</time>
      </trkpt>
      <trkpt lat="49.06169" lon="4.31847">
        <ele>135.68</ele>
        <time>2021-08-09T15:35:13Z</time>
      </trkpt>
      <trkpt lat="49.06214" lon="4.31939">
        <ele>135.68</ele>
        <time>2021-08-09T15:35:25Z</time>
      </trkpt>
      <trkpt lat="49.0625" lon="4.32013">
        <ele>136.64</ele>
        <time>2021-08-09T15:35:35Z</time>
      </trkpt>
      <trkpt lat="49.06268" lon="4.32045">
        <ele>137.13</ele>
        <time>2021-08-09T15:35:40Z</time>
      </trkpt>
      <trkpt lat="49.06309" lon="4.3209">
        <ele>138.57</ele>
        <time>2021-08-09T15:35:49Z</time>
      </trkpt>
      <trkpt lat="49.06351" lon="4.32143">
        <ele>138.57</ele>
        <time>2021-08-09T15:35:59Z</time>
      </trkpt>
      <trkpt lat="49.06403" lon="4.32208">
        <ele>140.01</ele>
        <time>2021-08-09T15:36:11Z</time>
      </trkpt>
      <trkpt lat="49.06447" lon="4.32261">
        <ele>140.97</ele>
        <time>2021-08-09T15:36:21Z</time>
      </trkpt>
      <trkpt lat="49.06452" lon="4.32267">
        <ele>140.97</ele>
        <time>2021-08-09T15:36:22Z</time>
      </trkpt>
      <trkpt lat="49.06488" lon="4.32309">
        <ele>140.97</ele>
        <time>2021-08-09T15:36:30Z</time>
      </trkpt>
      <trkpt lat="49.06537" lon="4.32366">
        <ele>140.49</ele>
        <time>2021-08-09T15:36:41Z</time>
      </trkpt>
      <trkpt lat="49.06576" lon="4.32412">
        <ele>138.57</ele>
        <time>2021-08-09T15:36:49Z</time>
      </trkpt>
      <trkpt lat="49.0658" lon="4.3242">
        <ele>138.57</ele>
        <time>2021-08-09T15:36:50Z</time>
      </trkpt>
      <trkpt lat="49.06583" lon="4.32429">
        <ele>138.57</ele>
        <time>2021-08-09T15:36:51Z</time>
      </trkpt>
      <trkpt lat="49.06585" lon="4.32437">
        <ele>138.57</ele>
        <time>2021-08-09T15:36:52Z</time>
      </trkpt>
      <trkpt lat="49.06587" lon="4.32446">
        <ele>138.57</ele>
        <time>2021-08-09T15:36:53Z</time>
      </trkpt>
      <trkpt lat="49.06589" lon="4.32455">
        <ele>138.09</ele>
        <time>2021-08-09T15:36:54Z</time>
      </trkpt>
      <trkpt lat="49.06601" lon="4.32489">
        <ele>138.09</ele>
        <time>2021-08-09T15:36:58Z</time>
      </trkpt>
      <trkpt lat="49.06625" lon="4.32569">
        <ele>137.13</ele>
        <time>2021-08-09T15:37:07Z</time>
      </trkpt>
      <trkpt lat="49.06652" lon="4.32655">
        <ele>135.68</ele>
        <time>2021-08-09T15:37:16Z</time>
      </trkpt>
      <trkpt lat="49.06676" lon="4.32732">
        <ele>134.72</ele>
        <time>2021-08-09T15:37:24Z</time>
      </trkpt>
      <trkpt lat="49.06692" lon="4.32784">
        <ele>134.72</ele>
        <time>2021-08-09T15:37:30Z</time>
      </trkpt>
      <trkpt lat="49.06692" lon="4.32791">
        <ele>134.72</ele>
        <time>2021-08-09T15:37:31Z</time>
      </trkpt>
      <trkpt lat="49.06691" lon="4.32797">
        <ele>134.72</ele>
        <time>2021-08-09T15:37:32Z</time>
      </trkpt>
      <trkpt lat="49.06688" lon="4.32801">
        <ele>134.72</ele>
        <time>2021-08-09T15:37:33Z</time>
      </trkpt>
      <trkpt lat="49.06685" lon="4.32805">
        <ele>136.16</ele>
        <time>2021-08-09T15:37:34Z</time>
      </trkpt>
      <trkpt lat="49.06683" lon="4.32807">
        <ele>136.16</ele>
        <time>2021-08-09T15:37:35Z</time>
      </trkpt>
      <trkpt lat="49.06668" lon="4.32829">
        <ele>137.13</ele>
        <time>2021-08-09T15:37:41Z</time>
      </trkpt>
      <trkpt lat="49.06649" lon="4.32856">
        <ele>138.57</ele>
        <time>2021-08-09T15:37:49Z</time>
      </trkpt>
      <trkpt lat="49.06628" lon="4.32887">
        <ele>138.57</ele>
        <time>2021-08-09T15:37:57Z</time>
      </trkpt>
      <trkpt lat="49.06601" lon="4.32922">
        <ele>139.53</ele>
        <time>2021-08-09T15:38:06Z</time>
      </trkpt>
      <trkpt lat="49.06574" lon="4.32957">
        <ele>140.49</ele>
        <time>2021-08-09T15:38:15Z</time>
      </trkpt>
      <trkpt lat="49.06546" lon="4.33">
        <ele>140.49</ele>
        <time>2021-08-09T15:38:24Z</time>
      </trkpt>
      <trkpt lat="49.06512" lon="4.33057">
        <ele>140.49</ele>
        <time>2021-08-09T15:38:34Z</time>
      </trkpt>
      <trkpt lat="49.06509" lon="4.33064">
        <ele>140.49</ele>
        <time>2021-08-09T15:38:35Z</time>
      </trkpt>
      <trkpt lat="49.06505" lon="4.3307">
        <ele>140.49</ele>
        <time>2021-08-09T15:38:36Z</time>
      </trkpt>
      <trkpt lat="49.06484" lon="4.33103">
        <ele>139.05</ele>
        <time>2021-08-09T15:38:42Z</time>
      </trkpt>
      <trkpt lat="49.0648" lon="4.33109">
        <ele>139.05</ele>
        <time>2021-08-09T15:38:43Z</time>
      </trkpt>
      <trkpt lat="49.06456" lon="4.33154">
        <ele>138.57</ele>
        <time>2021-08-09T15:38:51Z</time>
      </trkpt>
      <trkpt lat="49.06443" lon="4.33177">
        <ele>140.01</ele>
        <time>2021-08-09T15:38:55Z</time>
      </trkpt>
      <trkpt lat="49.06406" lon="4.33242">
        <ele>139.05</ele>
        <time>2021-08-09T15:39:06Z</time>
      </trkpt>
      <trkpt lat="49.06362" lon="4.33298">
        <ele>139.05</ele>
        <time>2021-08-09T15:39:17Z</time>
      </trkpt>
      <trkpt lat="49.06324" lon="4.33351">
        <ele>138.57</ele>
        <time>2021-08-09T15:39:27Z</time>
      </trkpt>
      <trkpt lat="49.06318" lon="4.33363">
        <ele>140.01</ele>
        <time>2021-08-09T15:39:29Z</time>
      </trkpt>
      <trkpt lat="49.06315" lon="4.3337">
        <ele>140.01</ele>
        <time>2021-08-09T15:39:30Z</time>
      </trkpt>
      <trkpt lat="49.06313" lon="4.33378">
        <ele>140.97</ele>
        <time>2021-08-09T15:39:31Z</time>
      </trkpt>
      <trkpt lat="49.06311" lon="4.33386">
        <ele>140.97</ele>
        <time>2021-08-09T15:39:32Z</time>
      </trkpt>
      <trkpt lat="49.0631" lon="4.33394">
        <ele>140.97</ele>
        <time>2021-08-09T15:39:33Z</time>
      </trkpt>
      <trkpt lat="49.06309" lon="4.33402">
        <ele>140.97</ele>
        <time>2021-08-09T15:39:34Z</time>
      </trkpt>
      <trkpt lat="49.06302" lon="4.3348">
        <ele>140.01</ele>
        <time>2021-08-09T15:39:43Z</time>
      </trkpt>
      <trkpt lat="49.06296" lon="4.33592">
        <ele>138.57</ele>
        <time>2021-08-09T15:39:55Z</time>
      </trkpt>
      <trkpt lat="49.06297" lon="4.33685">
        <ele>137.61</ele>
        <time>2021-08-09T15:40:05Z</time>
      </trkpt>
      <trkpt lat="49.06304" lon="4.33782">
        <ele>136.64</ele>
        <time>2021-08-09T15:40:15Z</time>
      </trkpt>
      <trkpt lat="49.06317" lon="4.33864">
        <ele>136.64</ele>
        <time>2021-08-09T15:40:24Z</time>
      </trkpt>
      <trkpt lat="49.06325" lon="4.33915">
        <ele>136.64</ele>
        <time>2021-08-09T15:40:30Z</time>
      </trkpt>
      <trkpt lat="49.06327" lon="4.33922">
        <ele>136.64</ele>
        <time>2021-08-09T15:40:31Z</time>
      </trkpt>
      <trkpt lat="49.06327" lon="4.33928">
        <ele>136.64</ele>
        <time>2021-08-09T15:40:32Z</time>
      </trkpt>
      <trkpt lat="49.06326" lon="4.33932">
        <ele>136.64</ele>
        <time>2021-08-09T15:40:33Z</time>
      </trkpt>
      <trkpt lat="49.06323" lon="4.33934">
        <ele>136.64</ele>
        <time>2021-08-09T15:40:34Z</time>
      </trkpt>
      <trkpt lat="49.06321" lon="4.33935">
        <ele>136.64</ele>
        <time>2021-08-09T15:40:35Z</time>
      </trkpt>
      <trkpt lat="49.06318" lon="4.33937">
        <ele>136.64</ele>
        <time>2021-08-09T15:40:36Z</time>
      </trkpt>
      <trkpt lat="49.06316" lon="4.33938">
        <ele>136.64</ele>
        <time>2021-08-09T15:40:37Z</time>
      </trkpt>
      <trkpt lat="49.06313" lon="4.33941">
        <ele>136.64</ele>
        <time>2021-08-09T15:40:38Z</time>
      </trkpt>
      <trkpt lat="49.0631" lon="4.33944">
        <ele>136.64</ele>
        <time>2021-08-09T15:40:39Z</time>
      </trkpt>
      <trkpt lat="49.06307" lon="4.33949">
        <ele>136.64</ele>
        <time>2021-08-09T15:40:40Z</time>
      </trkpt>
      <trkpt lat="49.06304" lon="4.33953">
        <ele>136.64</ele>
        <time>2021-08-09T15:40:41Z</time>
      </trkpt>
      <trkpt lat="49.063" lon="4.33957">
        <ele>136.64</ele>
        <time>2021-08-09T15:40:42Z</time>
      </trkpt>
      <trkpt lat="49.06273" lon="4.33986">
        <ele>135.2</ele>
        <time>2021-08-09T15:40:48Z</time>
      </trkpt>
      <trkpt lat="49.06236" lon="4.34024">
        <ele>134.72</ele>
        <time>2021-08-09T15:40:55Z</time>
      </trkpt>
      <trkpt lat="49.0618" lon="4.34083">
        <ele>132.32</ele>
        <time>2021-08-09T15:41:05Z</time>
      </trkpt>
      <trkpt lat="49.06119" lon="4.34148">
        <ele>130.88</ele>
        <time>2021-08-09T15:41:16Z</time>
      </trkpt>
      <trkpt lat="49.06043" lon="4.34224">
        <ele>129.92</ele>
        <time>2021-08-09T15:41:30Z</time>
      </trkpt>
      <trkpt lat="49.05989" lon="4.3428">
        <ele>127.99</ele>
        <time>2021-08-09T15:41:40Z</time>
      </trkpt>
      <trkpt lat="49.05962" lon="4.34308">
        <ele>127.99</ele>
        <time>2021-08-09T15:41:45Z</time>
      </trkpt>
      <trkpt lat="49.05951" lon="4.34319">
        <ele>127.51</ele>
        <time>2021-08-09T15:41:47Z</time>
      </trkpt>
      <trkpt lat="49.05946" lon="4.34326">
        <ele>127.51</ele>
        <time>2021-08-09T15:41:48Z</time>
      </trkpt>
      <trkpt lat="49.05941" lon="4.34333">
        <ele>127.51</ele>
        <time>2021-08-09T15:41:49Z</time>
      </trkpt>
      <trkpt lat="49.0592" lon="4.34365">
        <ele>127.51</ele>
        <time>2021-08-09T15:41:54Z</time>
      </trkpt>
      <trkpt lat="49.05906" lon="4.34378">
        <ele>127.51</ele>
        <time>2021-08-09T15:41:57Z</time>
      </trkpt>
      <trkpt lat="49.05867" lon="4.34425">
        <ele>127.51</ele>
        <time>2021-08-09T15:42:06Z</time>
      </trkpt>
      <trkpt lat="49.05859" lon="4.34435">
        <ele>128.95</ele>
        <time>2021-08-09T15:42:08Z</time>
      </trkpt>
      <trkpt lat="49.05825" lon="4.34483">
        <ele>128.95</ele>
        <time>2021-08-09T15:42:17Z</time>
      </trkpt>
      <trkpt lat="49.0581" lon="4.34509">
        <ele>129.92</ele>
        <time>2021-08-09T15:42:22Z</time>
      </trkpt>
      <trkpt lat="49.05788" lon="4.34556">
        <ele>131.84</ele>
        <time>2021-08-09T15:42:32Z</time>
      </trkpt>
      <trkpt lat="49.0577" lon="4.34598">
        <ele>133.28</ele>
        <time>2021-08-09T15:42:42Z</time>
      </trkpt>
      <trkpt lat="49.05749" lon="4.34653">
        <ele>135.2</ele>
        <time>2021-08-09T15:42:55Z</time>
      </trkpt>
      <trkpt lat="49.05733" lon="4.34695">
        <ele>135.68</ele>
        <time>2021-08-09T15:43:05Z</time>
      </trkpt>
      <trkpt lat="49.05715" lon="4.34741">
        <ele>137.61</ele>
        <time>2021-08-09T15:43:16Z</time>
      </trkpt>
      <trkpt lat="49.057" lon="4.34774">
        <ele>137.61</ele>
        <time>2021-08-09T15:43:24Z</time>
      </trkpt>
      <trkpt lat="49.05682" lon="4.34808">
        <ele>139.05</ele>
        <time>2021-08-09T15:43:33Z</time>
      </trkpt>
      <trkpt lat="49.0566" lon="4.34846">
        <ele>139.53</ele>
        <time>2021-08-09T15:43:43Z</time>
      </trkpt>
      <trkpt lat="49.05644" lon="4.34876">
        <ele>140.01</ele>
        <time>2021-08-09T15:43:50Z</time>
      </trkpt>
      <trkpt lat="49.05617" lon="4.34914">
        <ele>140.01</ele>
        <time>2021-08-09T15:43:58Z</time>
      </trkpt>
      <trkpt lat="49.0558" lon="4.34957">
        <ele>138.57</ele>
        <time>2021-08-09T15:44:07Z</time>
      </trkpt>
      <trkpt lat="49.05575" lon="4.34963">
        <ele>138.57</ele>
        <time>2021-08-09T15:44:08Z</time>
      </trkpt>
      <trkpt lat="49.05567" lon="4.34975">
        <ele>138.57</ele>
        <time>2021-08-09T15:44:10Z</time>
      </trkpt>
      <trkpt lat="49.05534" lon="4.35029">
        <ele>138.09</ele>
        <time>2021-08-09T15:44:18Z</time>
      </trkpt>
      <trkpt lat="49.05498" lon="4.35079">
        <ele>136.64</ele>
        <time>2021-08-09T15:44:26Z</time>
      </trkpt>
      <trkpt lat="49.05452" lon="4.35129">
        <ele>135.2</ele>
        <time>2021-08-09T15:44:35Z</time>
      </trkpt>
      <trkpt lat="49.05391" lon="4.35196">
        <ele>134.72</ele>
        <time>2021-08-09T15:44:46Z</time>
      </trkpt>
      <trkpt lat="49.05341" lon="4.35249">
        <ele>134.72</ele>
        <time>2021-08-09T15:44:55Z</time>
      </trkpt>
      <trkpt lat="49.05289" lon="4.35305">
        <ele>133.76</ele>
        <time>2021-08-09T15:45:05Z</time>
      </trkpt>
      <trkpt lat="49.05285" lon="4.3531">
        <ele>135.2</ele>
        <time>2021-08-09T15:45:06Z</time>
      </trkpt>
      <trkpt lat="49.05275" lon="4.35321">
        <ele>135.68</ele>
        <time>2021-08-09T15:45:08Z</time>
      </trkpt>
      <trkpt lat="49.05244" lon="4.3535">
        <ele>137.13</ele>
        <time>2021-08-09T15:45:15Z</time>
      </trkpt>
      <trkpt lat="49.05212" lon="4.3537">
        <ele>137.61</ele>
        <time>2021-08-09T15:45:23Z</time>
      </trkpt>
      <trkpt lat="49.05194" lon="4.35388">
        <ele>139.05</ele>
        <time>2021-08-09T15:45:29Z</time>
      </trkpt>
      <trkpt lat="49.05182" lon="4.35427">
        <ele>139.53</ele>
        <time>2021-08-09T15:45:37Z</time>
      </trkpt>
      <trkpt lat="49.05161" lon="4.35494">
        <ele>140.97</ele>
        <time>2021-08-09T15:45:49Z</time>
      </trkpt>
      <trkpt lat="49.05143" lon="4.35562">
        <ele>141.93</ele>
        <time>2021-08-09T15:46:00Z</time>
      </trkpt>
      <trkpt lat="49.05129" lon="4.35625">
        <ele>141.93</ele>
        <time>2021-08-09T15:46:09Z</time>
      </trkpt>
      <trkpt lat="49.05128" lon="4.35632">
        <ele>141.93</ele>
        <time>2021-08-09T15:46:10Z</time>
      </trkpt>
      <trkpt lat="49.05112" lon="4.35696">
        <ele>141.93</ele>
        <time>2021-08-09T15:46:18Z</time>
      </trkpt>
      <trkpt lat="49.05087" lon="4.35776">
        <ele>141.93</ele>
        <time>2021-08-09T15:46:28Z</time>
      </trkpt>
      <trkpt lat="49.05063" lon="4.35848">
        <ele>142.41</ele>
        <time>2021-08-09T15:46:37Z</time>
      </trkpt>
      <trkpt lat="49.05047" lon="4.35895">
        <ele>142.41</ele>
        <time>2021-08-09T15:46:43Z</time>
      </trkpt>
      <trkpt lat="49.05042" lon="4.35911">
        <ele>142.41</ele>
        <time>2021-08-09T15:46:45Z</time>
      </trkpt>
      <trkpt lat="49.05016" lon="4.35965">
        <ele>142.41</ele>
        <time>2021-08-09T15:46:52Z</time>
      </trkpt>
      <trkpt lat="49.04977" lon="4.36018">
        <ele>142.41</ele>
        <time>2021-08-09T15:47:01Z</time>
      </trkpt>
      <trkpt lat="49.04914" lon="4.36091">
        <ele>142.41</ele>
        <time>2021-08-09T15:47:14Z</time>
      </trkpt>
      <trkpt lat="49.04873" lon="4.36138">
        <ele>141.45</ele>
        <time>2021-08-09T15:47:22Z</time>
      </trkpt>
      <trkpt lat="49.0482" lon="4.36203">
        <ele>140.01</ele>
        <time>2021-08-09T15:47:32Z</time>
      </trkpt>
      <trkpt lat="49.04762" lon="4.36272">
        <ele>136.16</ele>
        <time>2021-08-09T15:47:42Z</time>
      </trkpt>
      <trkpt lat="49.04744" lon="4.36292">
        <ele>136.16</ele>
        <time>2021-08-09T15:47:45Z</time>
      </trkpt>
      <trkpt lat="49.0474" lon="4.363">
        <ele>136.16</ele>
        <time>2021-08-09T15:47:46Z</time>
      </trkpt>
      <trkpt lat="49.04736" lon="4.36308">
        <ele>135.2</ele>
        <time>2021-08-09T15:47:47Z</time>
      </trkpt>
      <trkpt lat="49.04733" lon="4.36317">
        <ele>135.2</ele>
        <time>2021-08-09T15:47:48Z</time>
      </trkpt>
      <trkpt lat="49.04731" lon="4.36326">
        <ele>135.2</ele>
        <time>2021-08-09T15:47:49Z</time>
      </trkpt>
      <trkpt lat="49.0473" lon="4.36335">
        <ele>135.2</ele>
        <time>2021-08-09T15:47:50Z</time>
      </trkpt>
      <trkpt lat="49.04731" lon="4.36346">
        <ele>135.2</ele>
        <time>2021-08-09T15:47:51Z</time>
      </trkpt>
      <trkpt lat="49.04733" lon="4.36357">
        <ele>135.2</ele>
        <time>2021-08-09T15:47:52Z</time>
      </trkpt>
      <trkpt lat="49.04735" lon="4.36363">
        <ele>135.2</ele>
        <time>2021-08-09T15:47:53Z</time>
      </trkpt>
      <trkpt lat="49.04737" lon="4.36372">
        <ele>135.2</ele>
        <time>2021-08-09T15:47:54Z</time>
      </trkpt>
      <trkpt lat="49.04741" lon="4.3638">
        <ele>135.2</ele>
        <time>2021-08-09T15:47:55Z</time>
      </trkpt>
      <trkpt lat="49.04744" lon="4.36388">
        <ele>135.2</ele>
        <time>2021-08-09T15:47:56Z</time>
      </trkpt>
      <trkpt lat="49.04748" lon="4.36396">
        <ele>134.72</ele>
        <time>2021-08-09T15:47:57Z</time>
      </trkpt>
      <trkpt lat="49.0475" lon="4.36405">
        <ele>134.72</ele>
        <time>2021-08-09T15:47:58Z</time>
      </trkpt>
      <trkpt lat="49.04752" lon="4.36415">
        <ele>134.72</ele>
        <time>2021-08-09T15:47:59Z</time>
      </trkpt>
      <trkpt lat="49.04755" lon="4.36434">
        <ele>134.72</ele>
        <time>2021-08-09T15:48:01Z</time>
      </trkpt>
      <trkpt lat="49.04757" lon="4.36443">
        <ele>134.72</ele>
        <time>2021-08-09T15:48:02Z</time>
      </trkpt>
      <trkpt lat="49.04761" lon="4.36453">
        <ele>134.72</ele>
        <time>2021-08-09T15:48:03Z</time>
      </trkpt>
      <trkpt lat="49.04764" lon="4.36462">
        <ele>134.72</ele>
        <time>2021-08-09T15:48:04Z</time>
      </trkpt>
      <trkpt lat="49.04768" lon="4.36471">
        <ele>134.72</ele>
        <time>2021-08-09T15:48:05Z</time>
      </trkpt>
      <trkpt lat="49.04814" lon="4.3658">
        <ele>134.72</ele>
        <time>2021-08-09T15:48:17Z</time>
      </trkpt>
      <trkpt lat="49.04847" lon="4.36672">
        <ele>134.24</ele>
        <time>2021-08-09T15:48:26Z</time>
      </trkpt>
      <trkpt lat="49.04875" lon="4.36755">
        <ele>131.84</ele>
        <time>2021-08-09T15:48:34Z</time>
      </trkpt>
      <trkpt lat="49.04903" lon="4.3684">
        <ele>131.84</ele>
        <time>2021-08-09T15:48:42Z</time>
      </trkpt>
      <trkpt lat="49.04933" lon="4.36919">
        <ele>130.4</ele>
        <time>2021-08-09T15:48:50Z</time>
      </trkpt>
      <trkpt lat="49.04936" lon="4.36929">
        <ele>130.4</ele>
        <time>2021-08-09T15:48:51Z</time>
      </trkpt>
      <trkpt lat="49.04966" lon="4.37025">
        <ele>129.43</ele>
        <time>2021-08-09T15:49:00Z</time>
      </trkpt>
      <trkpt lat="49.05005" lon="4.3714">
        <ele>128.47</ele>
        <time>2021-08-09T15:49:11Z</time>
      </trkpt>
      <trkpt lat="49.05048" lon="4.37271">
        <ele>126.55</ele>
        <time>2021-08-09T15:49:23Z</time>
      </trkpt>
      <trkpt lat="49.05083" lon="4.37379">
        <ele>125.59</ele>
        <time>2021-08-09T15:49:33Z</time>
      </trkpt>
      <trkpt lat="49.05124" lon="4.37506">
        <ele>124.63</ele>
        <time>2021-08-09T15:49:44Z</time>
      </trkpt>
      <trkpt lat="49.05159" lon="4.37612">
        <ele>124.15</ele>
        <time>2021-08-09T15:49:53Z</time>
      </trkpt>
      <trkpt lat="49.05204" lon="4.3775">
        <ele>122.71</ele>
        <time>2021-08-09T15:50:05Z</time>
      </trkpt>
      <trkpt lat="49.05236" lon="4.37846">
        <ele>122.71</ele>
        <time>2021-08-09T15:50:14Z</time>
      </trkpt>
      <trkpt lat="49.05265" lon="4.37927">
        <ele>123.67</ele>
        <time>2021-08-09T15:50:23Z</time>
      </trkpt>
      <trkpt lat="49.05278" lon="4.3797">
        <ele>123.67</ele>
        <time>2021-08-09T15:50:29Z</time>
      </trkpt>
      <trkpt lat="49.05281" lon="4.37981">
        <ele>123.67</ele>
        <time>2021-08-09T15:50:31Z</time>
      </trkpt>
      <trkpt lat="49.0528" lon="4.37987">
        <ele>123.67</ele>
        <time>2021-08-09T15:50:32Z</time>
      </trkpt>
      <trkpt lat="49.05277" lon="4.37992">
        <ele>122.71</ele>
        <time>2021-08-09T15:50:33Z</time>
      </trkpt>
      <trkpt lat="49.05273" lon="4.37994">
        <ele>122.71</ele>
        <time>2021-08-09T15:50:34Z</time>
      </trkpt>
      <trkpt lat="49.05269" lon="4.37994">
        <ele>121.74</ele>
        <time>2021-08-09T15:50:35Z</time>
      </trkpt>
      <trkpt lat="49.05265" lon="4.37994">
        <ele>121.74</ele>
        <time>2021-08-09T15:50:36Z</time>
      </trkpt>
      <trkpt lat="49.05223" lon="4.37995">
        <ele>120.78</ele>
        <time>2021-08-09T15:50:44Z</time>
      </trkpt>
      <trkpt lat="49.05155" lon="4.37997">
        <ele>121.74</ele>
        <time>2021-08-09T15:50:56Z</time>
      </trkpt>
      <trkpt lat="49.05106" lon="4.37998">
        <ele>121.74</ele>
        <time>2021-08-09T15:51:05Z</time>
      </trkpt>
      <trkpt lat="49.05052" lon="4.37997">
        <ele>121.74</ele>
        <time>2021-08-09T15:51:15Z</time>
      </trkpt>
      <trkpt lat="49.04989" lon="4.37995">
        <ele>122.22</ele>
        <time>2021-08-09T15:51:27Z</time>
      </trkpt>
      <trkpt lat="49.04967" lon="4.37998">
        <ele>122.22</ele>
        <time>2021-08-09T15:51:32Z</time>
      </trkpt>
      <trkpt lat="49.04963" lon="4.38002">
        <ele>122.22</ele>
        <time>2021-08-09T15:51:33Z</time>
      </trkpt>
      <trkpt lat="49.04962" lon="4.38007">
        <ele>122.71</ele>
        <time>2021-08-09T15:51:34Z</time>
      </trkpt>
      <trkpt lat="49.04962" lon="4.38013">
        <ele>122.71</ele>
        <time>2021-08-09T15:51:35Z</time>
      </trkpt>
      <trkpt lat="49.04964" lon="4.3802">
        <ele>122.71</ele>
        <time>2021-08-09T15:51:36Z</time>
      </trkpt>
      <trkpt lat="49.04966" lon="4.38026">
        <ele>122.71</ele>
        <time>2021-08-09T15:51:37Z</time>
      </trkpt>
      <trkpt lat="49.04968" lon="4.38033">
        <ele>122.71</ele>
        <time>2021-08-09T15:51:38Z</time>
      </trkpt>
      <trkpt lat="49.04986" lon="4.38083">
        <ele>122.71</ele>
        <time>2021-08-09T15:51:45Z</time>
      </trkpt>
      <trkpt lat="49.04988" lon="4.38091">
        <ele>123.19</ele>
        <time>2021-08-09T15:51:46Z</time>
      </trkpt>
      <trkpt lat="49.0499" lon="4.38099">
        <ele>123.19</ele>
        <time>2021-08-09T15:51:47Z</time>
      </trkpt>
      <trkpt lat="49.05017" lon="4.38182">
        <ele>121.74</ele>
        <time>2021-08-09T15:51:57Z</time>
      </trkpt>
      <trkpt lat="49.05046" lon="4.3828">
        <ele>121.26</ele>
        <time>2021-08-09T15:52:08Z</time>
      </trkpt>
      <trkpt lat="49.05069" lon="4.38368">
        <ele>121.26</ele>
        <time>2021-08-09T15:52:18Z</time>
      </trkpt>
      <trkpt lat="49.05074" lon="4.38387">
        <ele>119.34</ele>
        <time>2021-08-09T15:52:20Z</time>
      </trkpt>
      <trkpt lat="49.05088" lon="4.38443">
        <ele>120.3</ele>
        <time>2021-08-09T15:52:26Z</time>
      </trkpt>
      <trkpt lat="49.05103" lon="4.38508">
        <ele>120.3</ele>
        <time>2021-08-09T15:52:34Z</time>
      </trkpt>
      <trkpt lat="49.05105" lon="4.38516">
        <ele>119.34</ele>
        <time>2021-08-09T15:52:35Z</time>
      </trkpt>
      <trkpt lat="49.05115" lon="4.38557">
        <ele>119.82</ele>
        <time>2021-08-09T15:52:40Z</time>
      </trkpt>
      <trkpt lat="49.05115" lon="4.38563">
        <ele>119.82</ele>
        <time>2021-08-09T15:52:41Z</time>
      </trkpt>
      <trkpt lat="49.05114" lon="4.3857">
        <ele>119.34</ele>
        <time>2021-08-09T15:52:42Z</time>
      </trkpt>
      <trkpt lat="49.05111" lon="4.38578">
        <ele>119.34</ele>
        <time>2021-08-09T15:52:43Z</time>
      </trkpt>
      <trkpt lat="49.05108" lon="4.38581">
        <ele>119.34</ele>
        <time>2021-08-09T15:52:44Z</time>
      </trkpt>
      <trkpt lat="49.05105" lon="4.38586">
        <ele>118.86</ele>
        <time>2021-08-09T15:52:45Z</time>
      </trkpt>
      <trkpt lat="49.051" lon="4.38591">
        <ele>118.86</ele>
        <time>2021-08-09T15:52:46Z</time>
      </trkpt>
      <trkpt lat="49.05095" lon="4.38596">
        <ele>118.86</ele>
        <time>2021-08-09T15:52:47Z</time>
      </trkpt>
      <trkpt lat="49.0509" lon="4.38599">
        <ele>118.86</ele>
        <time>2021-08-09T15:52:48Z</time>
      </trkpt>
      <trkpt lat="49.05085" lon="4.38603">
        <ele>118.86</ele>
        <time>2021-08-09T15:52:49Z</time>
      </trkpt>
      <trkpt lat="49.05037" lon="4.38638">
        <ele>117.9</ele>
        <time>2021-08-09T15:52:58Z</time>
      </trkpt>
      <trkpt lat="49.05032" lon="4.3864">
        <ele>117.9</ele>
        <time>2021-08-09T15:52:59Z</time>
      </trkpt>
      <trkpt lat="49.05026" lon="4.38641">
        <ele>117.9</ele>
        <time>2021-08-09T15:53:00Z</time>
      </trkpt>
      <trkpt lat="49.04971" lon="4.3865">
        <ele>117.42</ele>
        <time>2021-08-09T15:53:10Z</time>
      </trkpt>
      <trkpt lat="49.04938" lon="4.38655">
        <ele>117.9</ele>
        <time>2021-08-09T15:53:16Z</time>
      </trkpt>
      <trkpt lat="49.04897" lon="4.3866">
        <ele>118.86</ele>
        <time>2021-08-09T15:53:24Z</time>
      </trkpt>
      <trkpt lat="49.04868" lon="4.38663">
        <ele>120.3</ele>
        <time>2021-08-09T15:53:32Z</time>
      </trkpt>
      <trkpt lat="49.04839" lon="4.38668">
        <ele>120.3</ele>
        <time>2021-08-09T15:53:41Z</time>
      </trkpt>
      <trkpt lat="49.04811" lon="4.38688">
        <ele>120.78</ele>
        <time>2021-08-09T15:53:49Z</time>
      </trkpt>
      <trkpt lat="49.04772" lon="4.38721">
        <ele>121.26</ele>
        <time>2021-08-09T15:54:00Z</time>
      </trkpt>
      <trkpt lat="49.04729" lon="4.38757">
        <ele>121.74</ele>
        <time>2021-08-09T15:54:11Z</time>
      </trkpt>
      <trkpt lat="49.04696" lon="4.38785">
        <ele>122.71</ele>
        <time>2021-08-09T15:54:20Z</time>
      </trkpt>
      <trkpt lat="49.04685" lon="4.38793">
        <ele>122.71</ele>
        <time>2021-08-09T15:54:24Z</time>
      </trkpt>
      <trkpt lat="49.04684" lon="4.38794">
        <ele>123.19</ele>
        <time>2021-08-09T15:54:28Z</time>
      </trkpt>
      <trkpt lat="49.04684" lon="4.38792">
        <ele>123.19</ele>
        <time>2021-08-09T15:54:41Z</time>
      </trkpt>
      <trkpt lat="49.04683" lon="4.38794">
        <ele>123.67</ele>
        <time>2021-08-09T15:55:02Z</time>
      </trkpt>
      <trkpt lat="49.04685" lon="4.38795">
        <ele>123.67</ele>
        <time>2021-08-09T15:55:24Z</time>
      </trkpt>
      <trkpt lat="49.04686" lon="4.38796">
        <ele>123.67</ele>
        <time>2021-08-09T15:55:41Z</time>
      </trkpt>
      <trkpt lat="49.04683" lon="4.38791">
        <ele>123.67</ele>
        <time>2021-08-09T15:55:58Z</time>
      </trkpt>
      <trkpt lat="49.04683" lon="4.38793">
        <ele>123.67</ele>
        <time>2021-08-09T15:56:06Z</time>
      </trkpt>
      <trkpt lat="49.04682" lon="4.38794">
        <ele>123.67</ele>
        <time>2021-08-09T15:56:07Z</time>
      </trkpt>
      <trkpt lat="49.04669" lon="4.38806">
        <ele>123.67</ele>
        <time>2021-08-09T15:56:13Z</time>
      </trkpt>
      <trkpt lat="49.04659" lon="4.38816">
        <ele>122.71</ele>
        <time>2021-08-09T15:56:16Z</time>
      </trkpt>
      <trkpt lat="49.04627" lon="4.38859">
        <ele>122.71</ele>
        <time>2021-08-09T15:56:26Z</time>
      </trkpt>
      <trkpt lat="49.04619" lon="4.38873">
        <ele>123.67</ele>
        <time>2021-08-09T15:56:29Z</time>
      </trkpt>
      <trkpt lat="49.04616" lon="4.38879">
        <ele>123.67</ele>
        <time>2021-08-09T15:56:30Z</time>
      </trkpt>
      <trkpt lat="49.04606" lon="4.38903">
        <ele>123.67</ele>
        <time>2021-08-09T15:56:34Z</time>
      </trkpt>
      <trkpt lat="49.04599" lon="4.38932">
        <ele>123.67</ele>
        <time>2021-08-09T15:56:38Z</time>
      </trkpt>
      <trkpt lat="49.04596" lon="4.38945">
        <ele>123.67</ele>
        <time>2021-08-09T15:56:40Z</time>
      </trkpt>
      <trkpt lat="49.04594" lon="4.38951">
        <ele>123.67</ele>
        <time>2021-08-09T15:56:41Z</time>
      </trkpt>
      <trkpt lat="49.04593" lon="4.38957">
        <ele>123.67</ele>
        <time>2021-08-09T15:56:42Z</time>
      </trkpt>
      <trkpt lat="49.04588" lon="4.38992">
        <ele>122.22</ele>
        <time>2021-08-09T15:56:46Z</time>
      </trkpt>
      <trkpt lat="49.04588" lon="4.39002">
        <ele>122.22</ele>
        <time>2021-08-09T15:56:47Z</time>
      </trkpt>
      <trkpt lat="49.04586" lon="4.39011">
        <ele>122.22</ele>
        <time>2021-08-09T15:56:48Z</time>
      </trkpt>
      <trkpt lat="49.04584" lon="4.39019">
        <ele>122.22</ele>
        <time>2021-08-09T15:56:49Z</time>
      </trkpt>
      <trkpt lat="49.04581" lon="4.39026">
        <ele>122.22</ele>
        <time>2021-08-09T15:56:50Z</time>
      </trkpt>
      <trkpt lat="49.0457" lon="4.39051">
        <ele>121.26</ele>
        <time>2021-08-09T15:56:54Z</time>
      </trkpt>
      <trkpt lat="49.04562" lon="4.39078">
        <ele>123.19</ele>
        <time>2021-08-09T15:56:59Z</time>
      </trkpt>
      <trkpt lat="49.04564" lon="4.39083">
        <ele>123.19</ele>
        <time>2021-08-09T15:57:00Z</time>
      </trkpt>
      <trkpt lat="49.04584" lon="4.3912">
        <ele>121.26</ele>
        <time>2021-08-09T15:57:06Z</time>
      </trkpt>
      <trkpt lat="49.04588" lon="4.39127">
        <ele>121.26</ele>
        <time>2021-08-09T15:57:07Z</time>
      </trkpt>
      <trkpt lat="49.04623" lon="4.39182">
        <ele>120.78</ele>
        <time>2021-08-09T15:57:15Z</time>
      </trkpt>
      <trkpt lat="49.04626" lon="4.39188">
        <ele>120.78</ele>
        <time>2021-08-09T15:57:16Z</time>
      </trkpt>
      <trkpt lat="49.04628" lon="4.39195">
        <ele>120.78</ele>
        <time>2021-08-09T15:57:17Z</time>
      </trkpt>
      <trkpt lat="49.04627" lon="4.39201">
        <ele>120.3</ele>
        <time>2021-08-09T15:57:18Z</time>
      </trkpt>
      <trkpt lat="49.04625" lon="4.39206">
        <ele>120.78</ele>
        <time>2021-08-09T15:57:19Z</time>
      </trkpt>
      <trkpt lat="49.04622" lon="4.39211">
        <ele>119.82</ele>
        <time>2021-08-09T15:57:20Z</time>
      </trkpt>
      <trkpt lat="49.04607" lon="4.39246">
        <ele>121.26</ele>
        <time>2021-08-09T15:57:25Z</time>
      </trkpt>
      <trkpt lat="49.04607" lon="4.39254">
        <ele>121.26</ele>
        <time>2021-08-09T15:57:26Z</time>
      </trkpt>
      <trkpt lat="49.04608" lon="4.39262">
        <ele>121.26</ele>
        <time>2021-08-09T15:57:27Z</time>
      </trkpt>
      <trkpt lat="49.04611" lon="4.39268">
        <ele>121.26</ele>
        <time>2021-08-09T15:57:28Z</time>
      </trkpt>
      <trkpt lat="49.04614" lon="4.39275">
        <ele>119.82</ele>
        <time>2021-08-09T15:57:29Z</time>
      </trkpt>
      <trkpt lat="49.04617" lon="4.39282">
        <ele>119.82</ele>
        <time>2021-08-09T15:57:30Z</time>
      </trkpt>
      <trkpt lat="49.04621" lon="4.3929">
        <ele>119.34</ele>
        <time>2021-08-09T15:57:31Z</time>
      </trkpt>
      <trkpt lat="49.04633" lon="4.39312">
        <ele>118.86</ele>
        <time>2021-08-09T15:57:34Z</time>
      </trkpt>
      <trkpt lat="49.04651" lon="4.39338">
        <ele>118.86</ele>
        <time>2021-08-09T15:57:38Z</time>
      </trkpt>
      <trkpt lat="49.04655" lon="4.39344">
        <ele>118.86</ele>
        <time>2021-08-09T15:57:39Z</time>
      </trkpt>
      <trkpt lat="49.04686" lon="4.39393">
        <ele>120.3</ele>
        <time>2021-08-09T15:57:46Z</time>
      </trkpt>
      <trkpt lat="49.0469" lon="4.394">
        <ele>120.3</ele>
        <time>2021-08-09T15:57:47Z</time>
      </trkpt>
      <trkpt lat="49.04692" lon="4.39408">
        <ele>120.3</ele>
        <time>2021-08-09T15:57:48Z</time>
      </trkpt>
      <trkpt lat="49.04692" lon="4.39416">
        <ele>121.26</ele>
        <time>2021-08-09T15:57:49Z</time>
      </trkpt>
      <trkpt lat="49.0469" lon="4.39425">
        <ele>121.26</ele>
        <time>2021-08-09T15:57:50Z</time>
      </trkpt>
      <trkpt lat="49.04688" lon="4.3943">
        <ele>121.26</ele>
        <time>2021-08-09T15:57:51Z</time>
      </trkpt>
      <trkpt lat="49.04683" lon="4.39435">
        <ele>121.26</ele>
        <time>2021-08-09T15:57:52Z</time>
      </trkpt>
      <trkpt lat="49.04679" lon="4.39439">
        <ele>121.26</ele>
        <time>2021-08-09T15:57:53Z</time>
      </trkpt>
      <trkpt lat="49.0465" lon="4.39462">
        <ele>117.9</ele>
        <time>2021-08-09T15:57:58Z</time>
      </trkpt>
      <trkpt lat="49.04592" lon="4.39506">
        <ele>117.9</ele>
        <time>2021-08-09T15:58:08Z</time>
      </trkpt>
      <trkpt lat="49.04557" lon="4.39518">
        <ele>119.34</ele>
        <time>2021-08-09T15:58:14Z</time>
      </trkpt>
      <trkpt lat="49.04497" lon="4.39535">
        <ele>119.82</ele>
        <time>2021-08-09T15:58:25Z</time>
      </trkpt>
      <trkpt lat="49.04476" lon="4.39547">
        <ele>119.82</ele>
        <time>2021-08-09T15:58:29Z</time>
      </trkpt>
      <trkpt lat="49.04471" lon="4.39552">
        <ele>120.3</ele>
        <time>2021-08-09T15:58:30Z</time>
      </trkpt>
      <trkpt lat="49.04466" lon="4.39557">
        <ele>119.82</ele>
        <time>2021-08-09T15:58:31Z</time>
      </trkpt>
      <trkpt lat="49.04461" lon="4.39563">
        <ele>120.3</ele>
        <time>2021-08-09T15:58:32Z</time>
      </trkpt>
      <trkpt lat="49.04457" lon="4.39569">
        <ele>120.3</ele>
        <time>2021-08-09T15:58:33Z</time>
      </trkpt>
      <trkpt lat="49.04454" lon="4.39575">
        <ele>119.82</ele>
        <time>2021-08-09T15:58:34Z</time>
      </trkpt>
      <trkpt lat="49.04418" lon="4.39645">
        <ele>120.3</ele>
        <time>2021-08-09T15:58:44Z</time>
      </trkpt>
      <trkpt lat="49.04389" lon="4.39707">
        <ele>120.3</ele>
        <time>2021-08-09T15:58:52Z</time>
      </trkpt>
      <trkpt lat="49.04354" lon="4.39766">
        <ele>120.3</ele>
        <time>2021-08-09T15:59:01Z</time>
      </trkpt>
      <trkpt lat="49.0431" lon="4.39805">
        <ele>120.3</ele>
        <time>2021-08-09T15:59:10Z</time>
      </trkpt>
      <trkpt lat="49.04273" lon="4.3983">
        <ele>122.22</ele>
        <time>2021-08-09T15:59:18Z</time>
      </trkpt>
      <trkpt lat="49.04232" lon="4.3986">
        <ele>122.22</ele>
        <time>2021-08-09T15:59:28Z</time>
      </trkpt>
      <trkpt lat="49.04225" lon="4.39868">
        <ele>122.22</ele>
        <time>2021-08-09T15:59:30Z</time>
      </trkpt>
      <trkpt lat="49.04223" lon="4.39873">
        <ele>122.71</ele>
        <time>2021-08-09T15:59:31Z</time>
      </trkpt>
      <trkpt lat="49.04221" lon="4.39879">
        <ele>122.71</ele>
        <time>2021-08-09T15:59:32Z</time>
      </trkpt>
      <trkpt lat="49.0422" lon="4.39885">
        <ele>123.19</ele>
        <time>2021-08-09T15:59:33Z</time>
      </trkpt>
      <trkpt lat="49.0422" lon="4.39892">
        <ele>123.19</ele>
        <time>2021-08-09T15:59:34Z</time>
      </trkpt>
      <trkpt lat="49.04221" lon="4.39898">
        <ele>123.19</ele>
        <time>2021-08-09T15:59:35Z</time>
      </trkpt>
      <trkpt lat="49.04221" lon="4.39904">
        <ele>123.19</ele>
        <time>2021-08-09T15:59:36Z</time>
      </trkpt>
      <trkpt lat="49.04222" lon="4.3991">
        <ele>123.19</ele>
        <time>2021-08-09T15:59:37Z</time>
      </trkpt>
      <trkpt lat="49.04227" lon="4.39952">
        <ele>124.63</ele>
        <time>2021-08-09T15:59:46Z</time>
      </trkpt>
      <trkpt lat="49.04232" lon="4.39991">
        <ele>126.55</ele>
        <time>2021-08-09T15:59:55Z</time>
      </trkpt>
      <trkpt lat="49.04238" lon="4.40048">
        <ele>127.99</ele>
        <time>2021-08-09T16:00:07Z</time>
      </trkpt>
      <trkpt lat="49.04244" lon="4.40099">
        <ele>129.43</ele>
        <time>2021-08-09T16:00:17Z</time>
      </trkpt>
      <trkpt lat="49.04252" lon="4.40159">
        <ele>129.92</ele>
        <time>2021-08-09T16:00:27Z</time>
      </trkpt>
      <trkpt lat="49.04262" lon="4.40231">
        <ele>131.36</ele>
        <time>2021-08-09T16:00:39Z</time>
      </trkpt>
      <trkpt lat="49.04271" lon="4.40301">
        <ele>131.84</ele>
        <time>2021-08-09T16:00:50Z</time>
      </trkpt>
      <trkpt lat="49.04282" lon="4.40386">
        <ele>133.28</ele>
        <time>2021-08-09T16:01:03Z</time>
      </trkpt>
      <trkpt lat="49.04283" lon="4.40394">
        <ele>133.28</ele>
        <time>2021-08-09T16:01:04Z</time>
      </trkpt>
      <trkpt lat="49.04291" lon="4.40466">
        <ele>134.24</ele>
        <time>2021-08-09T16:01:15Z</time>
      </trkpt>
      <trkpt lat="49.04301" lon="4.40547">
        <ele>134.72</ele>
        <time>2021-08-09T16:01:26Z</time>
      </trkpt>
      <trkpt lat="49.04312" lon="4.4063">
        <ele>136.16</ele>
        <time>2021-08-09T16:01:37Z</time>
      </trkpt>
      <trkpt lat="49.04322" lon="4.40711">
        <ele>136.64</ele>
        <time>2021-08-09T16:01:47Z</time>
      </trkpt>
      <trkpt lat="49.04334" lon="4.40808">
        <ele>137.13</ele>
        <time>2021-08-09T16:01:58Z</time>
      </trkpt>
      <trkpt lat="49.04347" lon="4.40906">
        <ele>137.13</ele>
        <time>2021-08-09T16:02:09Z</time>
      </trkpt>
      <trkpt lat="49.0436" lon="4.41007">
        <ele>137.13</ele>
        <time>2021-08-09T16:02:20Z</time>
      </trkpt>
      <trkpt lat="49.04372" lon="4.41104">
        <ele>135.68</ele>
        <time>2021-08-09T16:02:30Z</time>
      </trkpt>
      <trkpt lat="49.04384" lon="4.41193">
        <ele>135.68</ele>
        <time>2021-08-09T16:02:39Z</time>
      </trkpt>
      <trkpt lat="49.04394" lon="4.41284">
        <ele>134.72</ele>
        <time>2021-08-09T16:02:48Z</time>
      </trkpt>
      <trkpt lat="49.04407" lon="4.41388">
        <ele>134.72</ele>
        <time>2021-08-09T16:02:58Z</time>
      </trkpt>
      <trkpt lat="49.04424" lon="4.4152">
        <ele>134.24</ele>
        <time>2021-08-09T16:03:11Z</time>
      </trkpt>
      <trkpt lat="49.04435" lon="4.41606">
        <ele>134.24</ele>
        <time>2021-08-09T16:03:20Z</time>
      </trkpt>
      <trkpt lat="49.04444" lon="4.41679">
        <ele>133.28</ele>
        <time>2021-08-09T16:03:27Z</time>
      </trkpt>
      <trkpt lat="49.0446" lon="4.41802">
        <ele>134.24</ele>
        <time>2021-08-09T16:03:39Z</time>
      </trkpt>
      <trkpt lat="49.04473" lon="4.41904">
        <ele>135.2</ele>
        <time>2021-08-09T16:03:50Z</time>
      </trkpt>
      <trkpt lat="49.04486" lon="4.42001">
        <ele>135.68</ele>
        <time>2021-08-09T16:04:01Z</time>
      </trkpt>
      <trkpt lat="49.04498" lon="4.42104">
        <ele>136.64</ele>
        <time>2021-08-09T16:04:13Z</time>
      </trkpt>
      <trkpt lat="49.04507" lon="4.42183">
        <ele>136.64</ele>
        <time>2021-08-09T16:04:22Z</time>
      </trkpt>
      <trkpt lat="49.04519" lon="4.42259">
        <ele>137.13</ele>
        <time>2021-08-09T16:04:31Z</time>
      </trkpt>
      <trkpt lat="49.04521" lon="4.42277">
        <ele>137.13</ele>
        <time>2021-08-09T16:04:33Z</time>
      </trkpt>
      <trkpt lat="49.04527" lon="4.42327">
        <ele>137.13</ele>
        <time>2021-08-09T16:04:39Z</time>
      </trkpt>
      <trkpt lat="49.0453" lon="4.42334">
        <ele>137.13</ele>
        <time>2021-08-09T16:04:40Z</time>
      </trkpt>
      <trkpt lat="49.04533" lon="4.42341">
        <ele>137.13</ele>
        <time>2021-08-09T16:04:41Z</time>
      </trkpt>
      <trkpt lat="49.04536" lon="4.42347">
        <ele>137.13</ele>
        <time>2021-08-09T16:04:42Z</time>
      </trkpt>
      <trkpt lat="49.04541" lon="4.42353">
        <ele>137.13</ele>
        <time>2021-08-09T16:04:43Z</time>
      </trkpt>
      <trkpt lat="49.04547" lon="4.42358">
        <ele>137.13</ele>
        <time>2021-08-09T16:04:44Z</time>
      </trkpt>
      <trkpt lat="49.04551" lon="4.4236">
        <ele>137.13</ele>
        <time>2021-08-09T16:04:45Z</time>
      </trkpt>
      <trkpt lat="49.04556" lon="4.42361">
        <ele>137.13</ele>
        <time>2021-08-09T16:04:46Z</time>
      </trkpt>
      <trkpt lat="49.04562" lon="4.42361">
        <ele>135.68</ele>
        <time>2021-08-09T16:04:47Z</time>
      </trkpt>
      <trkpt lat="49.04568" lon="4.4236">
        <ele>135.68</ele>
        <time>2021-08-09T16:04:48Z</time>
      </trkpt>
      <trkpt lat="49.04629" lon="4.42345">
        <ele>134.24</ele>
        <time>2021-08-09T16:04:57Z</time>
      </trkpt>
      <trkpt lat="49.04693" lon="4.42332">
        <ele>133.76</ele>
        <time>2021-08-09T16:05:06Z</time>
      </trkpt>
      <trkpt lat="49.04745" lon="4.42325">
        <ele>133.76</ele>
        <time>2021-08-09T16:05:14Z</time>
      </trkpt>
      <trkpt lat="49.04764" lon="4.42324">
        <ele>133.76</ele>
        <time>2021-08-09T16:05:17Z</time>
      </trkpt>
      <trkpt lat="49.04768" lon="4.42326">
        <ele>133.76</ele>
        <time>2021-08-09T16:05:18Z</time>
      </trkpt>
      <trkpt lat="49.04773" lon="4.42331">
        <ele>133.76</ele>
        <time>2021-08-09T16:05:19Z</time>
      </trkpt>
      <trkpt lat="49.04774" lon="4.42355">
        <ele>133.28</ele>
        <time>2021-08-09T16:05:22Z</time>
      </trkpt>
      <trkpt lat="49.04772" lon="4.42364">
        <ele>132.8</ele>
        <time>2021-08-09T16:05:23Z</time>
      </trkpt>
      <trkpt lat="49.04747" lon="4.4245">
        <ele>130.88</ele>
        <time>2021-08-09T16:05:32Z</time>
      </trkpt>
      <trkpt lat="49.04709" lon="4.42592">
        <ele>128.95</ele>
        <time>2021-08-09T16:05:45Z</time>
      </trkpt>
      <trkpt lat="49.04676" lon="4.4271">
        <ele>128.95</ele>
        <time>2021-08-09T16:05:57Z</time>
      </trkpt>
      <trkpt lat="49.04637" lon="4.42854">
        <ele>127.99</ele>
        <time>2021-08-09T16:06:12Z</time>
      </trkpt>
      <trkpt lat="49.04606" lon="4.42965">
        <ele>127.99</ele>
        <time>2021-08-09T16:06:24Z</time>
      </trkpt>
      <trkpt lat="49.04577" lon="4.43072">
        <ele>127.51</ele>
        <time>2021-08-09T16:06:36Z</time>
      </trkpt>
      <trkpt lat="49.04555" lon="4.43152">
        <ele>127.51</ele>
        <time>2021-08-09T16:06:45Z</time>
      </trkpt>
      <trkpt lat="49.04535" lon="4.43225">
        <ele>128.95</ele>
        <time>2021-08-09T16:06:54Z</time>
      </trkpt>
      <trkpt lat="49.04509" lon="4.43317">
        <ele>129.92</ele>
        <time>2021-08-09T16:07:06Z</time>
      </trkpt>
      <trkpt lat="49.04487" lon="4.434">
        <ele>128.95</ele>
        <time>2021-08-09T16:07:17Z</time>
      </trkpt>
      <trkpt lat="49.04464" lon="4.43484">
        <ele>128.95</ele>
        <time>2021-08-09T16:07:28Z</time>
      </trkpt>
      <trkpt lat="49.04444" lon="4.43558">
        <ele>128.95</ele>
        <time>2021-08-09T16:07:38Z</time>
      </trkpt>
      <trkpt lat="49.04432" lon="4.43603">
        <ele>130.4</ele>
        <time>2021-08-09T16:07:44Z</time>
      </trkpt>
      <trkpt lat="49.0441" lon="4.43682">
        <ele>131.84</ele>
        <time>2021-08-09T16:07:55Z</time>
      </trkpt>
      <trkpt lat="49.04404" lon="4.43702">
        <ele>130.88</ele>
        <time>2021-08-09T16:07:58Z</time>
      </trkpt>
      <trkpt lat="49.04384" lon="4.43768">
        <ele>130.88</ele>
        <time>2021-08-09T16:08:07Z</time>
      </trkpt>
      <trkpt lat="49.04364" lon="4.43847">
        <ele>130.88</ele>
        <time>2021-08-09T16:08:17Z</time>
      </trkpt>
      <trkpt lat="49.0435" lon="4.43902">
        <ele>132.32</ele>
        <time>2021-08-09T16:08:24Z</time>
      </trkpt>
      <trkpt lat="49.04329" lon="4.43979">
        <ele>132.32</ele>
        <time>2021-08-09T16:08:34Z</time>
      </trkpt>
      <trkpt lat="49.043" lon="4.44082">
        <ele>132.8</ele>
        <time>2021-08-09T16:08:47Z</time>
      </trkpt>
      <trkpt lat="49.04277" lon="4.44163">
        <ele>131.36</ele>
        <time>2021-08-09T16:08:57Z</time>
      </trkpt>
      <trkpt lat="49.04264" lon="4.44212">
        <ele>131.36</ele>
        <time>2021-08-09T16:09:03Z</time>
      </trkpt>
      <trkpt lat="49.04263" lon="4.4422">
        <ele>131.36</ele>
        <time>2021-08-09T16:09:04Z</time>
      </trkpt>
      <trkpt lat="49.04264" lon="4.44228">
        <ele>131.36</ele>
        <time>2021-08-09T16:09:05Z</time>
      </trkpt>
      <trkpt lat="49.04266" lon="4.44236">
        <ele>131.36</ele>
        <time>2021-08-09T16:09:06Z</time>
      </trkpt>
      <trkpt lat="49.04268" lon="4.44243">
        <ele>131.36</ele>
        <time>2021-08-09T16:09:07Z</time>
      </trkpt>
      <trkpt lat="49.04272" lon="4.44249">
        <ele>131.36</ele>
        <time>2021-08-09T16:09:08Z</time>
      </trkpt>
      <trkpt lat="49.04275" lon="4.44254">
        <ele>131.36</ele>
        <time>2021-08-09T16:09:09Z</time>
      </trkpt>
      <trkpt lat="49.04279" lon="4.44259">
        <ele>131.36</ele>
        <time>2021-08-09T16:09:10Z</time>
      </trkpt>
      <trkpt lat="49.04284" lon="4.44263">
        <ele>131.36</ele>
        <time>2021-08-09T16:09:11Z</time>
      </trkpt>
      <trkpt lat="49.04294" lon="4.44272">
        <ele>131.36</ele>
        <time>2021-08-09T16:09:13Z</time>
      </trkpt>
      <trkpt lat="49.04332" lon="4.44308">
        <ele>131.36</ele>
        <time>2021-08-09T16:09:21Z</time>
      </trkpt>
      <trkpt lat="49.04335" lon="4.44313">
        <ele>131.36</ele>
        <time>2021-08-09T16:09:22Z</time>
      </trkpt>
      <trkpt lat="49.04337" lon="4.44321">
        <ele>131.36</ele>
        <time>2021-08-09T16:09:23Z</time>
      </trkpt>
      <trkpt lat="49.04337" lon="4.44327">
        <ele>131.36</ele>
        <time>2021-08-09T16:09:24Z</time>
      </trkpt>
      <trkpt lat="49.04336" lon="4.44334">
        <ele>131.36</ele>
        <time>2021-08-09T16:09:25Z</time>
      </trkpt>
      <trkpt lat="49.04336" lon="4.4434">
        <ele>131.36</ele>
        <time>2021-08-09T16:09:26Z</time>
      </trkpt>
      <trkpt lat="49.04335" lon="4.44347">
        <ele>131.36</ele>
        <time>2021-08-09T16:09:27Z</time>
      </trkpt>
      <trkpt lat="49.04337" lon="4.44355">
        <ele>130.88</ele>
        <time>2021-08-09T16:09:28Z</time>
      </trkpt>
      <trkpt lat="49.0434" lon="4.44361">
        <ele>130.4</ele>
        <time>2021-08-09T16:09:29Z</time>
      </trkpt>
      <trkpt lat="49.04344" lon="4.44366">
        <ele>130.4</ele>
        <time>2021-08-09T16:09:30Z</time>
      </trkpt>
      <trkpt lat="49.04349" lon="4.44371">
        <ele>130.4</ele>
        <time>2021-08-09T16:09:31Z</time>
      </trkpt>
      <trkpt lat="49.04353" lon="4.44375">
        <ele>130.4</ele>
        <time>2021-08-09T16:09:32Z</time>
      </trkpt>
      <trkpt lat="49.04362" lon="4.44384">
        <ele>130.4</ele>
        <time>2021-08-09T16:09:34Z</time>
      </trkpt>
      <trkpt lat="49.04366" lon="4.4439">
        <ele>130.4</ele>
        <time>2021-08-09T16:09:35Z</time>
      </trkpt>
      <trkpt lat="49.04369" lon="4.44395">
        <ele>130.4</ele>
        <time>2021-08-09T16:09:36Z</time>
      </trkpt>
      <trkpt lat="49.04372" lon="4.44402">
        <ele>130.4</ele>
        <time>2021-08-09T16:09:37Z</time>
      </trkpt>
      <trkpt lat="49.04375" lon="4.44409">
        <ele>130.4</ele>
        <time>2021-08-09T16:09:38Z</time>
      </trkpt>
      <trkpt lat="49.04378" lon="4.44414">
        <ele>130.4</ele>
        <time>2021-08-09T16:09:39Z</time>
      </trkpt>
      <trkpt lat="49.04381" lon="4.4442">
        <ele>130.4</ele>
        <time>2021-08-09T16:09:40Z</time>
      </trkpt>
      <trkpt lat="49.04385" lon="4.44425">
        <ele>129.92</ele>
        <time>2021-08-09T16:09:41Z</time>
      </trkpt>
      <trkpt lat="49.0439" lon="4.44429">
        <ele>129.43</ele>
        <time>2021-08-09T16:09:42Z</time>
      </trkpt>
      <trkpt lat="49.04394" lon="4.44433">
        <ele>129.43</ele>
        <time>2021-08-09T16:09:43Z</time>
      </trkpt>
      <trkpt lat="49.04398" lon="4.44437">
        <ele>129.43</ele>
        <time>2021-08-09T16:09:44Z</time>
      </trkpt>
      <trkpt lat="49.04444" lon="4.44487">
        <ele>128.47</ele>
        <time>2021-08-09T16:09:54Z</time>
      </trkpt>
      <trkpt lat="49.04478" lon="4.44523">
        <ele>128.47</ele>
        <time>2021-08-09T16:10:02Z</time>
      </trkpt>
      <trkpt lat="49.04513" lon="4.4456">
        <ele>128.95</ele>
        <time>2021-08-09T16:10:10Z</time>
      </trkpt>
      <trkpt lat="49.04565" lon="4.44617">
        <ele>128.95</ele>
        <time>2021-08-09T16:10:21Z</time>
      </trkpt>
      <trkpt lat="49.04579" lon="4.44635">
        <ele>128.47</ele>
        <time>2021-08-09T16:10:24Z</time>
      </trkpt>
      <trkpt lat="49.04583" lon="4.44641">
        <ele>128.47</ele>
        <time>2021-08-09T16:10:25Z</time>
      </trkpt>
      <trkpt lat="49.04586" lon="4.44648">
        <ele>128.47</ele>
        <time>2021-08-09T16:10:26Z</time>
      </trkpt>
      <trkpt lat="49.04591" lon="4.44664">
        <ele>128.47</ele>
        <time>2021-08-09T16:10:28Z</time>
      </trkpt>
      <trkpt lat="49.04592" lon="4.44673">
        <ele>128.47</ele>
        <time>2021-08-09T16:10:29Z</time>
      </trkpt>
      <trkpt lat="49.04594" lon="4.44681">
        <ele>128.47</ele>
        <time>2021-08-09T16:10:30Z</time>
      </trkpt>
      <trkpt lat="49.04593" lon="4.44697">
        <ele>128.47</ele>
        <time>2021-08-09T16:10:33Z</time>
      </trkpt>
      <trkpt lat="49.04592" lon="4.44696">
        <ele>128.47</ele>
        <time>2021-08-09T16:10:34Z</time>
      </trkpt>
      <trkpt lat="49.04591" lon="4.44688">
        <ele>128.95</ele>
        <time>2021-08-09T16:10:38Z</time>
      </trkpt>
      <trkpt lat="49.04589" lon="4.44687">
        <ele>128.95</ele>
        <time>2021-08-09T16:10:52Z</time>
      </trkpt>
      <trkpt lat="49.04592" lon="4.44678">
        <ele>128.95</ele>
        <time>2021-08-09T16:11:00Z</time>
      </trkpt>
      <trkpt lat="49.0459" lon="4.44654">
        <ele>127.99</ele>
        <time>2021-08-09T16:11:05Z</time>
      </trkpt>
      <trkpt lat="49.04586" lon="4.44643">
        <ele>127.99</ele>
        <time>2021-08-09T16:11:07Z</time>
      </trkpt>
      <trkpt lat="49.04584" lon="4.44638">
        <ele>127.99</ele>
        <time>2021-08-09T16:11:08Z</time>
      </trkpt>
      <trkpt lat="49.04574" lon="4.44623">
        <ele>127.51</ele>
        <time>2021-08-09T16:11:11Z</time>
      </trkpt>
      <trkpt lat="49.04571" lon="4.44618">
        <ele>127.51</ele>
        <time>2021-08-09T16:11:12Z</time>
      </trkpt>
      <trkpt lat="49.04531" lon="4.44576">
        <ele>127.51</ele>
        <time>2021-08-09T16:11:22Z</time>
      </trkpt>
      <trkpt lat="49.04515" lon="4.4456">
        <ele>128.95</ele>
        <time>2021-08-09T16:11:26Z</time>
      </trkpt>
      <trkpt lat="49.04483" lon="4.44523">
        <ele>129.43</ele>
        <time>2021-08-09T16:11:34Z</time>
      </trkpt>
      <trkpt lat="49.04463" lon="4.44501">
        <ele>129.43</ele>
        <time>2021-08-09T16:11:39Z</time>
      </trkpt>
      <trkpt lat="49.04459" lon="4.44496">
        <ele>129.43</ele>
        <time>2021-08-09T16:11:40Z</time>
      </trkpt>
      <trkpt lat="49.04455" lon="4.44492">
        <ele>129.43</ele>
        <time>2021-08-09T16:11:41Z</time>
      </trkpt>
      <trkpt lat="49.04418" lon="4.44455">
        <ele>129.43</ele>
        <time>2021-08-09T16:11:51Z</time>
      </trkpt>
      <trkpt lat="49.04384" lon="4.44421">
        <ele>129.92</ele>
        <time>2021-08-09T16:12:01Z</time>
      </trkpt>
      <trkpt lat="49.04377" lon="4.44408">
        <ele>130.4</ele>
        <time>2021-08-09T16:12:04Z</time>
      </trkpt>
      <trkpt lat="49.0438" lon="4.444">
        <ele>131.36</ele>
        <time>2021-08-09T16:12:06Z</time>
      </trkpt>
      <trkpt lat="49.04383" lon="4.44399">
        <ele>131.36</ele>
        <time>2021-08-09T16:12:07Z</time>
      </trkpt>
      <trkpt lat="49.04386" lon="4.444">
        <ele>131.36</ele>
        <time>2021-08-09T16:12:08Z</time>
      </trkpt>
      <trkpt lat="49.04389" lon="4.44403">
        <ele>131.36</ele>
        <time>2021-08-09T16:12:09Z</time>
      </trkpt>
      <trkpt lat="49.04393" lon="4.44407">
        <ele>131.36</ele>
        <time>2021-08-09T16:12:10Z</time>
      </trkpt>
      <trkpt lat="49.04433" lon="4.44449">
        <ele>131.36</ele>
        <time>2021-08-09T16:12:20Z</time>
      </trkpt>
      <trkpt lat="49.04468" lon="4.44482">
        <ele>132.32</ele>
        <time>2021-08-09T16:12:29Z</time>
      </trkpt>
      <trkpt lat="49.04472" lon="4.44486">
        <ele>133.28</ele>
        <time>2021-08-09T16:12:30Z</time>
      </trkpt>
      <trkpt lat="49.04475" lon="4.44489">
        <ele>133.76</ele>
        <time>2021-08-09T16:12:31Z</time>
      </trkpt>
      <trkpt lat="49.04479" lon="4.44493">
        <ele>133.28</ele>
        <time>2021-08-09T16:12:32Z</time>
      </trkpt>
      <trkpt lat="49.04483" lon="4.44496">
        <ele>133.76</ele>
        <time>2021-08-09T16:12:33Z</time>
      </trkpt>
      <trkpt lat="49.04493" lon="4.44506">
        <ele>134.24</ele>
        <time>2021-08-09T16:12:36Z</time>
      </trkpt>
      <trkpt lat="49.04532" lon="4.44544">
        <ele>135.68</ele>
        <time>2021-08-09T16:12:47Z</time>
      </trkpt>
      <trkpt lat="49.04571" lon="4.44581">
        <ele>136.64</ele>
        <time>2021-08-09T16:12:57Z</time>
      </trkpt>
      <trkpt lat="49.04623" lon="4.44628">
        <ele>137.13</ele>
        <time>2021-08-09T16:13:09Z</time>
      </trkpt>
      <trkpt lat="49.04667" lon="4.44671">
        <ele>137.13</ele>
        <time>2021-08-09T16:13:18Z</time>
      </trkpt>
      <trkpt lat="49.04719" lon="4.44725">
        <ele>136.16</ele>
        <time>2021-08-09T16:13:28Z</time>
      </trkpt>
      <trkpt lat="49.04767" lon="4.44772">
        <ele>133.76</ele>
        <time>2021-08-09T16:13:36Z</time>
      </trkpt>
      <trkpt lat="49.04824" lon="4.44829">
        <ele>130.88</ele>
        <time>2021-08-09T16:13:44Z</time>
      </trkpt>
      <trkpt lat="49.04848" lon="4.44853">
        <ele>129.43</ele>
        <time>2021-08-09T16:13:47Z</time>
      </trkpt>
      <trkpt lat="49.04865" lon="4.44869">
        <ele>127.51</ele>
        <time>2021-08-09T16:13:49Z</time>
      </trkpt>
      <trkpt lat="49.04952" lon="4.44955">
        <ele>126.55</ele>
        <time>2021-08-09T16:14:00Z</time>
      </trkpt>
      <trkpt lat="49.04972" lon="4.44975">
        <ele>127.99</ele>
        <time>2021-08-09T16:14:03Z</time>
      </trkpt>
      <trkpt lat="49.05007" lon="4.45007">
        <ele>128.95</ele>
        <time>2021-08-09T16:14:09Z</time>
      </trkpt>
      <trkpt lat="49.05038" lon="4.45038">
        <ele>129.43</ele>
        <time>2021-08-09T16:14:15Z</time>
      </trkpt>
      <trkpt lat="49.05088" lon="4.45089">
        <ele>130.4</ele>
        <time>2021-08-09T16:14:25Z</time>
      </trkpt>
      <trkpt lat="49.05128" lon="4.4513">
        <ele>130.88</ele>
        <time>2021-08-09T16:14:33Z</time>
      </trkpt>
      <trkpt lat="49.05143" lon="4.45147">
        <ele>130.88</ele>
        <time>2021-08-09T16:14:36Z</time>
      </trkpt>
      <trkpt lat="49.05147" lon="4.45154">
        <ele>130.88</ele>
        <time>2021-08-09T16:14:37Z</time>
      </trkpt>
      <trkpt lat="49.0515" lon="4.45162">
        <ele>130.88</ele>
        <time>2021-08-09T16:14:38Z</time>
      </trkpt>
      <trkpt lat="49.05153" lon="4.4517">
        <ele>130.88</ele>
        <time>2021-08-09T16:14:39Z</time>
      </trkpt>
      <trkpt lat="49.05155" lon="4.45179">
        <ele>130.88</ele>
        <time>2021-08-09T16:14:40Z</time>
      </trkpt>
      <trkpt lat="49.05157" lon="4.45188">
        <ele>130.88</ele>
        <time>2021-08-09T16:14:41Z</time>
      </trkpt>
      <trkpt lat="49.05165" lon="4.45219">
        <ele>131.36</ele>
        <time>2021-08-09T16:14:45Z</time>
      </trkpt>
      <trkpt lat="49.05168" lon="4.45224">
        <ele>131.36</ele>
        <time>2021-08-09T16:14:46Z</time>
      </trkpt>
      <trkpt lat="49.05171" lon="4.45228">
        <ele>131.36</ele>
        <time>2021-08-09T16:14:47Z</time>
      </trkpt>
      <trkpt lat="49.05175" lon="4.45229">
        <ele>131.36</ele>
        <time>2021-08-09T16:14:48Z</time>
      </trkpt>
      <trkpt lat="49.0518" lon="4.45229">
        <ele>131.36</ele>
        <time>2021-08-09T16:14:49Z</time>
      </trkpt>
      <trkpt lat="49.05185" lon="4.45227">
        <ele>131.36</ele>
        <time>2021-08-09T16:14:50Z</time>
      </trkpt>
      <trkpt lat="49.0519" lon="4.45224">
        <ele>131.36</ele>
        <time>2021-08-09T16:14:51Z</time>
      </trkpt>
      <trkpt lat="49.05195" lon="4.4522">
        <ele>131.36</ele>
        <time>2021-08-09T16:14:52Z</time>
      </trkpt>
      <trkpt lat="49.05201" lon="4.45217">
        <ele>131.36</ele>
        <time>2021-08-09T16:14:53Z</time>
      </trkpt>
      <trkpt lat="49.05207" lon="4.45216">
        <ele>131.36</ele>
        <time>2021-08-09T16:14:54Z</time>
      </trkpt>
      <trkpt lat="49.05213" lon="4.45217">
        <ele>131.36</ele>
        <time>2021-08-09T16:14:55Z</time>
      </trkpt>
      <trkpt lat="49.05219" lon="4.4522">
        <ele>131.36</ele>
        <time>2021-08-09T16:14:56Z</time>
      </trkpt>
      <trkpt lat="49.05225" lon="4.45224">
        <ele>131.36</ele>
        <time>2021-08-09T16:14:57Z</time>
      </trkpt>
      <trkpt lat="49.0523" lon="4.45229">
        <ele>131.36</ele>
        <time>2021-08-09T16:14:58Z</time>
      </trkpt>
      <trkpt lat="49.05244" lon="4.45241">
        <ele>129.92</ele>
        <time>2021-08-09T16:15:01Z</time>
      </trkpt>
      <trkpt lat="49.05248" lon="4.45243">
        <ele>129.92</ele>
        <time>2021-08-09T16:15:02Z</time>
      </trkpt>
      <trkpt lat="49.05251" lon="4.45244">
        <ele>129.92</ele>
        <time>2021-08-09T16:15:03Z</time>
      </trkpt>
      <trkpt lat="49.05253" lon="4.45244">
        <ele>129.92</ele>
        <time>2021-08-09T16:15:04Z</time>
      </trkpt>
      <trkpt lat="49.05255" lon="4.45244">
        <ele>129.92</ele>
        <time>2021-08-09T16:15:05Z</time>
      </trkpt>
      <trkpt lat="49.05259" lon="4.45244">
        <ele>129.92</ele>
        <time>2021-08-09T16:15:09Z</time>
      </trkpt>
      <trkpt lat="49.05263" lon="4.45242">
        <ele>129.92</ele>
        <time>2021-08-09T16:15:13Z</time>
      </trkpt>
      <trkpt lat="49.05275" lon="4.45255">
        <ele>129.92</ele>
        <time>2021-08-09T16:15:19Z</time>
      </trkpt>
      <trkpt lat="49.05304" lon="4.45282">
        <ele>129.92</ele>
        <time>2021-08-09T16:15:26Z</time>
      </trkpt>
      <trkpt lat="49.05328" lon="4.45305">
        <ele>129.92</ele>
        <time>2021-08-09T16:15:31Z</time>
      </trkpt>
      <trkpt lat="49.05357" lon="4.45332">
        <ele>129.92</ele>
        <time>2021-08-09T16:15:37Z</time>
      </trkpt>
      <trkpt lat="49.05362" lon="4.45337">
        <ele>129.92</ele>
        <time>2021-08-09T16:15:38Z</time>
      </trkpt>
      <trkpt lat="49.0537" lon="4.45344">
        <ele>131.36</ele>
        <time>2021-08-09T16:15:40Z</time>
      </trkpt>
      <trkpt lat="49.05375" lon="4.4535">
        <ele>131.84</ele>
        <time>2021-08-09T16:15:41Z</time>
      </trkpt>
      <trkpt lat="49.05377" lon="4.45355">
        <ele>131.84</ele>
        <time>2021-08-09T16:15:42Z</time>
      </trkpt>
      <trkpt lat="49.0538" lon="4.45363">
        <ele>131.84</ele>
        <time>2021-08-09T16:15:43Z</time>
      </trkpt>
      <trkpt lat="49.05382" lon="4.45369">
        <ele>132.32</ele>
        <time>2021-08-09T16:15:44Z</time>
      </trkpt>
      <trkpt lat="49.05385" lon="4.45374">
        <ele>132.32</ele>
        <time>2021-08-09T16:15:45Z</time>
      </trkpt>
      <trkpt lat="49.05388" lon="4.45379">
        <ele>132.8</ele>
        <time>2021-08-09T16:15:46Z</time>
      </trkpt>
      <trkpt lat="49.05391" lon="4.45382">
        <ele>132.8</ele>
        <time>2021-08-09T16:15:47Z</time>
      </trkpt>
      <trkpt lat="49.05394" lon="4.45385">
        <ele>132.8</ele>
        <time>2021-08-09T16:15:48Z</time>
      </trkpt>
      <trkpt lat="49.05416" lon="4.45407">
        <ele>135.2</ele>
        <time>2021-08-09T16:15:56Z</time>
      </trkpt>
      <trkpt lat="49.05439" lon="4.45429">
        <ele>137.13</ele>
        <time>2021-08-09T16:16:06Z</time>
      </trkpt>
      <trkpt lat="49.05463" lon="4.45453">
        <ele>138.09</ele>
        <time>2021-08-09T16:16:17Z</time>
      </trkpt>
      <trkpt lat="49.05481" lon="4.45472">
        <ele>139.05</ele>
        <time>2021-08-09T16:16:25Z</time>
      </trkpt>
      <trkpt lat="49.05503" lon="4.45493">
        <ele>140.49</ele>
        <time>2021-08-09T16:16:34Z</time>
      </trkpt>
      <trkpt lat="49.0551" lon="4.45501">
        <ele>140.97</ele>
        <time>2021-08-09T16:16:37Z</time>
      </trkpt>
      <trkpt lat="49.05512" lon="4.45504">
        <ele>140.97</ele>
        <time>2021-08-09T16:16:38Z</time>
      </trkpt>
      <trkpt lat="49.05543" lon="4.45531">
        <ele>142.41</ele>
        <time>2021-08-09T16:16:49Z</time>
      </trkpt>
      <trkpt lat="49.05565" lon="4.45553">
        <ele>143.37</ele>
        <time>2021-08-09T16:16:57Z</time>
      </trkpt>
      <trkpt lat="49.05593" lon="4.45579">
        <ele>144.82</ele>
        <time>2021-08-09T16:17:06Z</time>
      </trkpt>
      <trkpt lat="49.05617" lon="4.45602">
        <ele>146.26</ele>
        <time>2021-08-09T16:17:14Z</time>
      </trkpt>
      <trkpt lat="49.05654" lon="4.45638">
        <ele>147.22</ele>
        <time>2021-08-09T16:17:25Z</time>
      </trkpt>
      <trkpt lat="49.0569" lon="4.45672">
        <ele>147.7</ele>
        <time>2021-08-09T16:17:35Z</time>
      </trkpt>
      <trkpt lat="49.05722" lon="4.45703">
        <ele>148.18</ele>
        <time>2021-08-09T16:17:43Z</time>
      </trkpt>
      <trkpt lat="49.05747" lon="4.45728">
        <ele>148.18</ele>
        <time>2021-08-09T16:17:49Z</time>
      </trkpt>
      <trkpt lat="49.05749" lon="4.45734">
        <ele>148.18</ele>
        <time>2021-08-09T16:17:50Z</time>
      </trkpt>
      <trkpt lat="49.05751" lon="4.45741">
        <ele>148.18</ele>
        <time>2021-08-09T16:17:51Z</time>
      </trkpt>
      <trkpt lat="49.05752" lon="4.4575">
        <ele>148.18</ele>
        <time>2021-08-09T16:17:52Z</time>
      </trkpt>
      <trkpt lat="49.05751" lon="4.45759">
        <ele>148.18</ele>
        <time>2021-08-09T16:17:53Z</time>
      </trkpt>
      <trkpt lat="49.0575" lon="4.45764">
        <ele>148.18</ele>
        <time>2021-08-09T16:17:54Z</time>
      </trkpt>
      <trkpt lat="49.05749" lon="4.45773">
        <ele>148.18</ele>
        <time>2021-08-09T16:17:55Z</time>
      </trkpt>
      <trkpt lat="49.05735" lon="4.45851">
        <ele>149.62</ele>
        <time>2021-08-09T16:18:05Z</time>
      </trkpt>
      <trkpt lat="49.05728" lon="4.45889">
        <ele>149.62</ele>
        <time>2021-08-09T16:18:10Z</time>
      </trkpt>
      <trkpt lat="49.05727" lon="4.45896">
        <ele>149.62</ele>
        <time>2021-08-09T16:18:11Z</time>
      </trkpt>
      <trkpt lat="49.05712" lon="4.45984">
        <ele>150.1</ele>
        <time>2021-08-09T16:18:23Z</time>
      </trkpt>
      <trkpt lat="49.05695" lon="4.46082">
        <ele>151.06</ele>
        <time>2021-08-09T16:18:37Z</time>
      </trkpt>
      <trkpt lat="49.05694" lon="4.46089">
        <ele>151.06</ele>
        <time>2021-08-09T16:18:38Z</time>
      </trkpt>
      <trkpt lat="49.05693" lon="4.46096">
        <ele>151.06</ele>
        <time>2021-08-09T16:18:39Z</time>
      </trkpt>
      <trkpt lat="49.05678" lon="4.46179">
        <ele>152.51</ele>
        <time>2021-08-09T16:18:51Z</time>
      </trkpt>
      <trkpt lat="49.05671" lon="4.46251">
        <ele>152.99</ele>
        <time>2021-08-09T16:19:01Z</time>
      </trkpt>
      <trkpt lat="49.05671" lon="4.46318">
        <ele>153.47</ele>
        <time>2021-08-09T16:19:10Z</time>
      </trkpt>
      <trkpt lat="49.0567" lon="4.46407">
        <ele>153.95</ele>
        <time>2021-08-09T16:19:22Z</time>
      </trkpt>
      <trkpt lat="49.05664" lon="4.46488">
        <ele>155.39</ele>
        <time>2021-08-09T16:19:33Z</time>
      </trkpt>
      <trkpt lat="49.05656" lon="4.4655">
        <ele>153.95</ele>
        <time>2021-08-09T16:19:41Z</time>
      </trkpt>
      <trkpt lat="49.05644" lon="4.46623">
        <ele>153.95</ele>
        <time>2021-08-09T16:19:50Z</time>
      </trkpt>
      <trkpt lat="49.0563" lon="4.46718">
        <ele>152.51</ele>
        <time>2021-08-09T16:20:01Z</time>
      </trkpt>
      <trkpt lat="49.05617" lon="4.46807">
        <ele>152.51</ele>
        <time>2021-08-09T16:20:11Z</time>
      </trkpt>
      <trkpt lat="49.05604" lon="4.46898">
        <ele>149.62</ele>
        <time>2021-08-09T16:20:21Z</time>
      </trkpt>
      <trkpt lat="49.05584" lon="4.47027">
        <ele>147.7</ele>
        <time>2021-08-09T16:20:33Z</time>
      </trkpt>
      <trkpt lat="49.05566" lon="4.47148">
        <ele>146.26</ele>
        <time>2021-08-09T16:20:44Z</time>
      </trkpt>
      <trkpt lat="49.05555" lon="4.4722">
        <ele>147.7</ele>
        <time>2021-08-09T16:20:51Z</time>
      </trkpt>
      <trkpt lat="49.05547" lon="4.47281">
        <ele>145.78</ele>
        <time>2021-08-09T16:20:57Z</time>
      </trkpt>
      <trkpt lat="49.05534" lon="4.47372">
        <ele>145.3</ele>
        <time>2021-08-09T16:21:06Z</time>
      </trkpt>
      <trkpt lat="49.05518" lon="4.47478">
        <ele>143.85</ele>
        <time>2021-08-09T16:21:16Z</time>
      </trkpt>
      <trkpt lat="49.05499" lon="4.47603">
        <ele>143.37</ele>
        <time>2021-08-09T16:21:28Z</time>
      </trkpt>
      <trkpt lat="49.05494" lon="4.47644">
        <ele>142.89</ele>
        <time>2021-08-09T16:21:32Z</time>
      </trkpt>
      <trkpt lat="49.05493" lon="4.47678">
        <ele>142.89</ele>
        <time>2021-08-09T16:21:35Z</time>
      </trkpt>
      <trkpt lat="49.05494" lon="4.47687">
        <ele>142.89</ele>
        <time>2021-08-09T16:21:36Z</time>
      </trkpt>
      <trkpt lat="49.05495" lon="4.47697">
        <ele>142.89</ele>
        <time>2021-08-09T16:21:37Z</time>
      </trkpt>
      <trkpt lat="49.05497" lon="4.47708">
        <ele>141.93</ele>
        <time>2021-08-09T16:21:38Z</time>
      </trkpt>
      <trkpt lat="49.055" lon="4.47718">
        <ele>141.93</ele>
        <time>2021-08-09T16:21:39Z</time>
      </trkpt>
      <trkpt lat="49.05516" lon="4.47789">
        <ele>143.85</ele>
        <time>2021-08-09T16:21:47Z</time>
      </trkpt>
      <trkpt lat="49.0552" lon="4.47806">
        <ele>144.82</ele>
        <time>2021-08-09T16:21:50Z</time>
      </trkpt>
      <trkpt lat="49.0553" lon="4.47846">
        <ele>145.78</ele>
        <time>2021-08-09T16:21:58Z</time>
      </trkpt>
      <trkpt lat="49.05542" lon="4.47896">
        <ele>146.74</ele>
        <time>2021-08-09T16:22:07Z</time>
      </trkpt>
      <trkpt lat="49.05554" lon="4.47944">
        <ele>147.7</ele>
        <time>2021-08-09T16:22:15Z</time>
      </trkpt>
      <trkpt lat="49.05552" lon="4.47965">
        <ele>147.7</ele>
        <time>2021-08-09T16:22:19Z</time>
      </trkpt>
      <trkpt lat="49.05549" lon="4.47971">
        <ele>147.7</ele>
        <time>2021-08-09T16:22:20Z</time>
      </trkpt>
      <trkpt lat="49.05524" lon="4.48014">
        <ele>146.26</ele>
        <time>2021-08-09T16:22:27Z</time>
      </trkpt>
      <trkpt lat="49.0547" lon="4.4811">
        <ele>145.3</ele>
        <time>2021-08-09T16:22:41Z</time>
      </trkpt>
      <trkpt lat="49.0543" lon="4.48182">
        <ele>144.34</ele>
        <time>2021-08-09T16:22:51Z</time>
      </trkpt>
      <trkpt lat="49.05385" lon="4.48261">
        <ele>142.41</ele>
        <time>2021-08-09T16:23:02Z</time>
      </trkpt>
      <trkpt lat="49.05338" lon="4.48347">
        <ele>139.53</ele>
        <time>2021-08-09T16:23:13Z</time>
      </trkpt>
      <trkpt lat="49.05286" lon="4.4844">
        <ele>137.61</ele>
        <time>2021-08-09T16:23:25Z</time>
      </trkpt>
      <trkpt lat="49.05237" lon="4.48525">
        <ele>136.64</ele>
        <time>2021-08-09T16:23:37Z</time>
      </trkpt>
      <trkpt lat="49.0523" lon="4.48538">
        <ele>138.09</ele>
        <time>2021-08-09T16:23:39Z</time>
      </trkpt>
      <trkpt lat="49.05221" lon="4.48554">
        <ele>137.13</ele>
        <time>2021-08-09T16:23:42Z</time>
      </trkpt>
      <trkpt lat="49.05218" lon="4.48557">
        <ele>137.13</ele>
        <time>2021-08-09T16:23:43Z</time>
      </trkpt>
      <trkpt lat="49.05214" lon="4.48559">
        <ele>137.13</ele>
        <time>2021-08-09T16:23:44Z</time>
      </trkpt>
      <trkpt lat="49.05211" lon="4.48556">
        <ele>137.13</ele>
        <time>2021-08-09T16:23:45Z</time>
      </trkpt>
      <trkpt lat="49.05208" lon="4.48551">
        <ele>137.13</ele>
        <time>2021-08-09T16:23:46Z</time>
      </trkpt>
      <trkpt lat="49.05206" lon="4.48546">
        <ele>137.13</ele>
        <time>2021-08-09T16:23:47Z</time>
      </trkpt>
      <trkpt lat="49.05204" lon="4.4854">
        <ele>137.13</ele>
        <time>2021-08-09T16:23:48Z</time>
      </trkpt>
      <trkpt lat="49.05203" lon="4.48534">
        <ele>137.13</ele>
        <time>2021-08-09T16:23:49Z</time>
      </trkpt>
      <trkpt lat="49.05202" lon="4.48527">
        <ele>137.13</ele>
        <time>2021-08-09T16:23:50Z</time>
      </trkpt>
      <trkpt lat="49.052" lon="4.4852">
        <ele>137.13</ele>
        <time>2021-08-09T16:23:51Z</time>
      </trkpt>
      <trkpt lat="49.05199" lon="4.48512">
        <ele>137.13</ele>
        <time>2021-08-09T16:23:52Z</time>
      </trkpt>
      <trkpt lat="49.05197" lon="4.48504">
        <ele>137.13</ele>
        <time>2021-08-09T16:23:53Z</time>
      </trkpt>
      <trkpt lat="49.05171" lon="4.48447">
        <ele>137.13</ele>
        <time>2021-08-09T16:24:01Z</time>
      </trkpt>
      <trkpt lat="49.05135" lon="4.48381">
        <ele>136.16</ele>
        <time>2021-08-09T16:24:10Z</time>
      </trkpt>
      <trkpt lat="49.05091" lon="4.48304">
        <ele>135.68</ele>
        <time>2021-08-09T16:24:21Z</time>
      </trkpt>
      <trkpt lat="49.05085" lon="4.48289">
        <ele>135.2</ele>
        <time>2021-08-09T16:24:23Z</time>
      </trkpt>
      <trkpt lat="49.0508" lon="4.48281">
        <ele>135.2</ele>
        <time>2021-08-09T16:24:24Z</time>
      </trkpt>
      <trkpt lat="49.05075" lon="4.48277">
        <ele>134.72</ele>
        <time>2021-08-09T16:24:25Z</time>
      </trkpt>
      <trkpt lat="49.05067" lon="4.48274">
        <ele>134.72</ele>
        <time>2021-08-09T16:24:26Z</time>
      </trkpt>
      <trkpt lat="49.05062" lon="4.48274">
        <ele>133.76</ele>
        <time>2021-08-09T16:24:27Z</time>
      </trkpt>
      <trkpt lat="49.05056" lon="4.48275">
        <ele>133.28</ele>
        <time>2021-08-09T16:24:28Z</time>
      </trkpt>
      <trkpt lat="49.05049" lon="4.48276">
        <ele>133.28</ele>
        <time>2021-08-09T16:24:29Z</time>
      </trkpt>
      <trkpt lat="49.04988" lon="4.48286">
        <ele>132.32</ele>
        <time>2021-08-09T16:24:39Z</time>
      </trkpt>
      <trkpt lat="49.04977" lon="4.4829">
        <ele>132.32</ele>
        <time>2021-08-09T16:24:41Z</time>
      </trkpt>
      <trkpt lat="49.04972" lon="4.48295">
        <ele>132.32</ele>
        <time>2021-08-09T16:24:42Z</time>
      </trkpt>
      <trkpt lat="49.04969" lon="4.48302">
        <ele>132.32</ele>
        <time>2021-08-09T16:24:43Z</time>
      </trkpt>
      <trkpt lat="49.04968" lon="4.48309">
        <ele>133.76</ele>
        <time>2021-08-09T16:24:44Z</time>
      </trkpt>
      <trkpt lat="49.04967" lon="4.48315">
        <ele>133.76</ele>
        <time>2021-08-09T16:24:45Z</time>
      </trkpt>
      <trkpt lat="49.04967" lon="4.48322">
        <ele>134.24</ele>
        <time>2021-08-09T16:24:46Z</time>
      </trkpt>
      <trkpt lat="49.04966" lon="4.48328">
        <ele>134.24</ele>
        <time>2021-08-09T16:24:47Z</time>
      </trkpt>
      <trkpt lat="49.04965" lon="4.48334">
        <ele>134.24</ele>
        <time>2021-08-09T16:24:48Z</time>
      </trkpt>
      <trkpt lat="49.04962" lon="4.4834">
        <ele>134.24</ele>
        <time>2021-08-09T16:24:49Z</time>
      </trkpt>
      <trkpt lat="49.04959" lon="4.48346">
        <ele>134.24</ele>
        <time>2021-08-09T16:24:50Z</time>
      </trkpt>
      <trkpt lat="49.04955" lon="4.4835">
        <ele>132.8</ele>
        <time>2021-08-09T16:24:51Z</time>
      </trkpt>
      <trkpt lat="49.0495" lon="4.48354">
        <ele>132.32</ele>
        <time>2021-08-09T16:24:52Z</time>
      </trkpt>
      <trkpt lat="49.04944" lon="4.48358">
        <ele>132.32</ele>
        <time>2021-08-09T16:24:53Z</time>
      </trkpt>
      <trkpt lat="49.04928" lon="4.48371">
        <ele>130.88</ele>
        <time>2021-08-09T16:24:56Z</time>
      </trkpt>
      <trkpt lat="49.04923" lon="4.48377">
        <ele>129.92</ele>
        <time>2021-08-09T16:24:57Z</time>
      </trkpt>
      <trkpt lat="49.04919" lon="4.48387">
        <ele>129.92</ele>
        <time>2021-08-09T16:24:58Z</time>
      </trkpt>
      <trkpt lat="49.04916" lon="4.48398">
        <ele>129.92</ele>
        <time>2021-08-09T16:24:59Z</time>
      </trkpt>
      <trkpt lat="49.04915" lon="4.48407">
        <ele>129.92</ele>
        <time>2021-08-09T16:25:00Z</time>
      </trkpt>
      <trkpt lat="49.04914" lon="4.48417">
        <ele>129.43</ele>
        <time>2021-08-09T16:25:01Z</time>
      </trkpt>
      <trkpt lat="49.04914" lon="4.48426">
        <ele>129.43</ele>
        <time>2021-08-09T16:25:02Z</time>
      </trkpt>
      <trkpt lat="49.04914" lon="4.48435">
        <ele>130.88</ele>
        <time>2021-08-09T16:25:03Z</time>
      </trkpt>
      <trkpt lat="49.04915" lon="4.48451">
        <ele>131.36</ele>
        <time>2021-08-09T16:25:05Z</time>
      </trkpt>
      <trkpt lat="49.04914" lon="4.48458">
        <ele>132.32</ele>
        <time>2021-08-09T16:25:06Z</time>
      </trkpt>
      <trkpt lat="49.04912" lon="4.48463">
        <ele>132.32</ele>
        <time>2021-08-09T16:25:07Z</time>
      </trkpt>
      <trkpt lat="49.04907" lon="4.48467">
        <ele>132.32</ele>
        <time>2021-08-09T16:25:08Z</time>
      </trkpt>
      <trkpt lat="49.04901" lon="4.48469">
        <ele>132.32</ele>
        <time>2021-08-09T16:25:09Z</time>
      </trkpt>
      <trkpt lat="49.04896" lon="4.48471">
        <ele>131.36</ele>
        <time>2021-08-09T16:25:10Z</time>
      </trkpt>
      <trkpt lat="49.04847" lon="4.48488">
        <ele>129.43</ele>
        <time>2021-08-09T16:25:18Z</time>
      </trkpt>
      <trkpt lat="49.04823" lon="4.48498">
        <ele>129.43</ele>
        <time>2021-08-09T16:25:22Z</time>
      </trkpt>
      <trkpt lat="49.04818" lon="4.48503">
        <ele>129.43</ele>
        <time>2021-08-09T16:25:23Z</time>
      </trkpt>
      <trkpt lat="49.04815" lon="4.48511">
        <ele>129.43</ele>
        <time>2021-08-09T16:25:24Z</time>
      </trkpt>
      <trkpt lat="49.04813" lon="4.48518">
        <ele>129.43</ele>
        <time>2021-08-09T16:25:25Z</time>
      </trkpt>
      <trkpt lat="49.04811" lon="4.48526">
        <ele>129.43</ele>
        <time>2021-08-09T16:25:26Z</time>
      </trkpt>
      <trkpt lat="49.0481" lon="4.48534">
        <ele>129.43</ele>
        <time>2021-08-09T16:25:27Z</time>
      </trkpt>
      <trkpt lat="49.04809" lon="4.48541">
        <ele>129.43</ele>
        <time>2021-08-09T16:25:28Z</time>
      </trkpt>
      <trkpt lat="49.04806" lon="4.48547">
        <ele>129.43</ele>
        <time>2021-08-09T16:25:29Z</time>
      </trkpt>
      <trkpt lat="49.04803" lon="4.48554">
        <ele>129.43</ele>
        <time>2021-08-09T16:25:30Z</time>
      </trkpt>
      <trkpt lat="49.048" lon="4.48558">
        <ele>129.43</ele>
        <time>2021-08-09T16:25:31Z</time>
      </trkpt>
      <trkpt lat="49.04795" lon="4.48562">
        <ele>129.43</ele>
        <time>2021-08-09T16:25:32Z</time>
      </trkpt>
      <trkpt lat="49.0479" lon="4.48564">
        <ele>129.43</ele>
        <time>2021-08-09T16:25:33Z</time>
      </trkpt>
      <trkpt lat="49.04785" lon="4.48566">
        <ele>129.43</ele>
        <time>2021-08-09T16:25:34Z</time>
      </trkpt>
      <trkpt lat="49.0478" lon="4.4857">
        <ele>128.95</ele>
        <time>2021-08-09T16:25:35Z</time>
      </trkpt>
      <trkpt lat="49.04775" lon="4.48575">
        <ele>128.95</ele>
        <time>2021-08-09T16:25:36Z</time>
      </trkpt>
      <trkpt lat="49.04772" lon="4.48582">
        <ele>128.95</ele>
        <time>2021-08-09T16:25:37Z</time>
      </trkpt>
      <trkpt lat="49.0477" lon="4.4859">
        <ele>128.95</ele>
        <time>2021-08-09T16:25:38Z</time>
      </trkpt>
      <trkpt lat="49.0477" lon="4.48596">
        <ele>130.4</ele>
        <time>2021-08-09T16:25:39Z</time>
      </trkpt>
      <trkpt lat="49.0477" lon="4.48603">
        <ele>130.4</ele>
        <time>2021-08-09T16:25:40Z</time>
      </trkpt>
      <trkpt lat="49.04766" lon="4.48685">
        <ele>130.88</ele>
        <time>2021-08-09T16:25:52Z</time>
      </trkpt>
      <trkpt lat="49.04763" lon="4.48761">
        <ele>131.36</ele>
        <time>2021-08-09T16:26:03Z</time>
      </trkpt>
      <trkpt lat="49.04755" lon="4.48817">
        <ele>131.36</ele>
        <time>2021-08-09T16:26:11Z</time>
      </trkpt>
      <trkpt lat="49.04745" lon="4.48874">
        <ele>131.36</ele>
        <time>2021-08-09T16:26:19Z</time>
      </trkpt>
      <trkpt lat="49.04741" lon="4.48894">
        <ele>131.36</ele>
        <time>2021-08-09T16:26:22Z</time>
      </trkpt>
      <trkpt lat="49.04741" lon="4.48901">
        <ele>131.36</ele>
        <time>2021-08-09T16:26:23Z</time>
      </trkpt>
      <trkpt lat="49.04742" lon="4.48908">
        <ele>131.36</ele>
        <time>2021-08-09T16:26:24Z</time>
      </trkpt>
      <trkpt lat="49.04742" lon="4.48914">
        <ele>131.36</ele>
        <time>2021-08-09T16:26:25Z</time>
      </trkpt>
      <trkpt lat="49.04743" lon="4.48921">
        <ele>131.36</ele>
        <time>2021-08-09T16:26:26Z</time>
      </trkpt>
      <trkpt lat="49.04746" lon="4.48968">
        <ele>129.92</ele>
        <time>2021-08-09T16:26:32Z</time>
      </trkpt>
      <trkpt lat="49.04759" lon="4.49022">
        <ele>129.92</ele>
        <time>2021-08-09T16:26:39Z</time>
      </trkpt>
      <trkpt lat="49.04775" lon="4.49066">
        <ele>130.88</ele>
        <time>2021-08-09T16:26:46Z</time>
      </trkpt>
      <trkpt lat="49.04778" lon="4.49071">
        <ele>130.88</ele>
        <time>2021-08-09T16:26:47Z</time>
      </trkpt>
      <trkpt lat="49.0481" lon="4.49116">
        <ele>130.88</ele>
        <time>2021-08-09T16:26:57Z</time>
      </trkpt>
      <trkpt lat="49.04828" lon="4.49133">
        <ele>131.36</ele>
        <time>2021-08-09T16:27:04Z</time>
      </trkpt>
      <trkpt lat="49.04838" lon="4.49141">
        <ele>131.36</ele>
        <time>2021-08-09T16:27:10Z</time>
      </trkpt>
      <trkpt lat="49.04838" lon="4.4914">
        <ele>131.36</ele>
        <time>2021-08-09T16:27:19Z</time>
      </trkpt>
      <trkpt lat="49.04839" lon="4.49141">
        <ele>132.32</ele>
        <time>2021-08-09T16:27:33Z</time>
      </trkpt>
      <trkpt lat="49.04838" lon="4.49139">
        <ele>132.32</ele>
        <time>2021-08-09T16:27:47Z</time>
      </trkpt>
      <trkpt lat="49.04838" lon="4.49139">
        <ele>132.32</ele>
        <time>2021-08-09T16:27:55Z</time>
      </trkpt>
      <trkpt lat="49.04837" lon="4.4914">
        <ele>132.32</ele>
        <time>2021-08-09T16:28:13Z</time>
      </trkpt>
      <trkpt lat="49.04838" lon="4.4914">
        <ele>132.32</ele>
        <time>2021-08-09T16:28:23Z</time>
      </trkpt>
      <trkpt lat="49.04837" lon="4.49141">
        <ele>132.32</ele>
        <time>2021-08-09T16:28:39Z</time>
      </trkpt>
      <trkpt lat="49.04837" lon="4.49141">
        <ele>132.32</ele>
        <time>2021-08-09T16:28:50Z</time>
      </trkpt>
      <trkpt lat="49.04838" lon="4.4914">
        <ele>132.32</ele>
        <time>2021-08-09T16:29:01Z</time>
      </trkpt>
      <trkpt lat="49.04838" lon="4.4914">
        <ele>132.32</ele>
        <time>2021-08-09T16:29:13Z</time>
      </trkpt>
      <trkpt lat="49.04839" lon="4.49141">
        <ele>130.88</ele>
        <time>2021-08-09T16:29:27Z</time>
      </trkpt>
      <trkpt lat="49.0484" lon="4.49141">
        <ele>130.88</ele>
        <time>2021-08-09T16:29:28Z</time>
      </trkpt>
      <trkpt lat="49.04841" lon="4.49142">
        <ele>130.88</ele>
        <time>2021-08-09T16:29:29Z</time>
      </trkpt>
      <trkpt lat="49.04842" lon="4.49142">
        <ele>130.88</ele>
        <time>2021-08-09T16:29:30Z</time>
      </trkpt>
      <trkpt lat="49.04844" lon="4.49143">
        <ele>130.88</ele>
        <time>2021-08-09T16:29:31Z</time>
      </trkpt>
      <trkpt lat="49.04846" lon="4.49144">
        <ele>130.88</ele>
        <time>2021-08-09T16:29:32Z</time>
      </trkpt>
      <trkpt lat="49.04848" lon="4.49145">
        <ele>130.88</ele>
        <time>2021-08-09T16:29:33Z</time>
      </trkpt>
      <trkpt lat="49.04851" lon="4.49146">
        <ele>130.88</ele>
        <time>2021-08-09T16:29:34Z</time>
      </trkpt>
      <trkpt lat="49.04854" lon="4.49148">
        <ele>130.88</ele>
        <time>2021-08-09T16:29:35Z</time>
      </trkpt>
      <trkpt lat="49.04857" lon="4.4915">
        <ele>130.88</ele>
        <time>2021-08-09T16:29:36Z</time>
      </trkpt>
      <trkpt lat="49.0486" lon="4.49153">
        <ele>130.88</ele>
        <time>2021-08-09T16:29:37Z</time>
      </trkpt>
      <trkpt lat="49.04863" lon="4.49157">
        <ele>130.88</ele>
        <time>2021-08-09T16:29:38Z</time>
      </trkpt>
      <trkpt lat="49.04865" lon="4.49162">
        <ele>130.88</ele>
        <time>2021-08-09T16:29:39Z</time>
      </trkpt>
      <trkpt lat="49.04867" lon="4.49168">
        <ele>130.88</ele>
        <time>2021-08-09T16:29:40Z</time>
      </trkpt>
      <trkpt lat="49.04867" lon="4.49172">
        <ele>130.88</ele>
        <time>2021-08-09T16:29:41Z</time>
      </trkpt>
      <trkpt lat="49.04868" lon="4.4918">
        <ele>130.88</ele>
        <time>2021-08-09T16:29:42Z</time>
      </trkpt>
      <trkpt lat="49.04868" lon="4.49185">
        <ele>130.4</ele>
        <time>2021-08-09T16:29:43Z</time>
      </trkpt>
      <trkpt lat="49.04869" lon="4.49199">
        <ele>130.4</ele>
        <time>2021-08-09T16:29:45Z</time>
      </trkpt>
      <trkpt lat="49.04875" lon="4.49234">
        <ele>129.92</ele>
        <time>2021-08-09T16:29:50Z</time>
      </trkpt>
      <trkpt lat="49.04875" lon="4.49241">
        <ele>129.92</ele>
        <time>2021-08-09T16:29:51Z</time>
      </trkpt>
      <trkpt lat="49.04874" lon="4.49282">
        <ele>129.92</ele>
        <time>2021-08-09T16:29:59Z</time>
      </trkpt>
      <trkpt lat="49.04873" lon="4.49286">
        <ele>129.92</ele>
        <time>2021-08-09T16:30:00Z</time>
      </trkpt>
      <trkpt lat="49.04872" lon="4.49289">
        <ele>129.92</ele>
        <time>2021-08-09T16:30:01Z</time>
      </trkpt>
      <trkpt lat="49.0487" lon="4.49291">
        <ele>129.92</ele>
        <time>2021-08-09T16:30:02Z</time>
      </trkpt>
      <trkpt lat="49.04865" lon="4.49294">
        <ele>129.92</ele>
        <time>2021-08-09T16:30:04Z</time>
      </trkpt>
      <trkpt lat="49.04862" lon="4.49295">
        <ele>129.92</ele>
        <time>2021-08-09T16:30:05Z</time>
      </trkpt>
      <trkpt lat="49.04861" lon="4.49294">
        <ele>129.92</ele>
        <time>2021-08-09T16:30:06Z</time>
      </trkpt>
      <trkpt lat="49.04855" lon="4.49282">
        <ele>129.43</ele>
        <time>2021-08-09T16:30:10Z</time>
      </trkpt>
      <trkpt lat="49.04853" lon="4.49279">
        <ele>129.43</ele>
        <time>2021-08-09T16:30:11Z</time>
      </trkpt>
      <trkpt lat="49.04851" lon="4.49275">
        <ele>129.43</ele>
        <time>2021-08-09T16:30:12Z</time>
      </trkpt>
      <trkpt lat="49.0485" lon="4.49271">
        <ele>129.43</ele>
        <time>2021-08-09T16:30:13Z</time>
      </trkpt>
      <trkpt lat="49.04849" lon="4.49266">
        <ele>129.43</ele>
        <time>2021-08-09T16:30:14Z</time>
      </trkpt>
      <trkpt lat="49.04848" lon="4.4926">
        <ele>129.43</ele>
        <time>2021-08-09T16:30:15Z</time>
      </trkpt>
      <trkpt lat="49.04847" lon="4.49256">
        <ele>128.95</ele>
        <time>2021-08-09T16:30:16Z</time>
      </trkpt>
      <trkpt lat="49.04845" lon="4.49254">
        <ele>128.95</ele>
        <time>2021-08-09T16:30:17Z</time>
      </trkpt>
      <trkpt lat="49.04842" lon="4.49254">
        <ele>128.95</ele>
        <time>2021-08-09T16:30:18Z</time>
      </trkpt>
      <trkpt lat="49.04838" lon="4.49254">
        <ele>127.99</ele>
        <time>2021-08-09T16:30:19Z</time>
      </trkpt>
      <trkpt lat="49.04826" lon="4.49256">
        <ele>127.51</ele>
        <time>2021-08-09T16:30:22Z</time>
      </trkpt>
      <trkpt lat="49.04807" lon="4.49258">
        <ele>127.51</ele>
        <time>2021-08-09T16:30:27Z</time>
      </trkpt>
      <trkpt lat="49.04806" lon="4.49262">
        <ele>127.51</ele>
        <time>2021-08-09T16:30:33Z</time>
      </trkpt>
      <trkpt lat="49.04807" lon="4.49262">
        <ele>127.51</ele>
        <time>2021-08-09T16:30:49Z</time>
      </trkpt>
      <trkpt lat="49.04797" lon="4.49265">
        <ele>127.99</ele>
        <time>2021-08-09T16:30:55Z</time>
      </trkpt>
      <trkpt lat="49.04777" lon="4.49268">
        <ele>129.92</ele>
        <time>2021-08-09T16:31:02Z</time>
      </trkpt>
      <trkpt lat="49.04752" lon="4.49277">
        <ele>130.4</ele>
        <time>2021-08-09T16:31:09Z</time>
      </trkpt>
      <trkpt lat="49.04723" lon="4.4929">
        <ele>131.36</ele>
        <time>2021-08-09T16:31:18Z</time>
      </trkpt>
      <trkpt lat="49.04695" lon="4.49305">
        <ele>131.84</ele>
        <time>2021-08-09T16:31:28Z</time>
      </trkpt>
      <trkpt lat="49.04664" lon="4.49321">
        <ele>132.32</ele>
        <time>2021-08-09T16:31:38Z</time>
      </trkpt>
      <trkpt lat="49.04645" lon="4.49336">
        <ele>132.32</ele>
        <time>2021-08-09T16:31:45Z</time>
      </trkpt>
      <trkpt lat="49.04644" lon="4.49341">
        <ele>132.32</ele>
        <time>2021-08-09T16:31:46Z</time>
      </trkpt>
      <trkpt lat="49.04644" lon="4.49345">
        <ele>132.32</ele>
        <time>2021-08-09T16:31:47Z</time>
      </trkpt>
      <trkpt lat="49.04649" lon="4.49373">
        <ele>132.32</ele>
        <time>2021-08-09T16:31:52Z</time>
      </trkpt>
      <trkpt lat="49.0465" lon="4.49379">
        <ele>132.32</ele>
        <time>2021-08-09T16:31:53Z</time>
      </trkpt>
      <trkpt lat="49.04651" lon="4.49385">
        <ele>132.32</ele>
        <time>2021-08-09T16:31:54Z</time>
      </trkpt>
      <trkpt lat="49.04653" lon="4.49391">
        <ele>132.32</ele>
        <time>2021-08-09T16:31:55Z</time>
      </trkpt>
      <trkpt lat="49.04654" lon="4.49398">
        <ele>132.32</ele>
        <time>2021-08-09T16:31:56Z</time>
      </trkpt>
      <trkpt lat="49.04657" lon="4.49417">
        <ele>132.32</ele>
        <time>2021-08-09T16:31:59Z</time>
      </trkpt>
      <trkpt lat="49.04663" lon="4.49446">
        <ele>132.32</ele>
        <time>2021-08-09T16:32:03Z</time>
      </trkpt>
      <trkpt lat="49.04665" lon="4.49453">
        <ele>132.32</ele>
        <time>2021-08-09T16:32:04Z</time>
      </trkpt>
      <trkpt lat="49.04672" lon="4.49488">
        <ele>132.32</ele>
        <time>2021-08-09T16:32:09Z</time>
      </trkpt>
      <trkpt lat="49.04673" lon="4.49496">
        <ele>132.32</ele>
        <time>2021-08-09T16:32:10Z</time>
      </trkpt>
      <trkpt lat="49.04684" lon="4.49558">
        <ele>132.32</ele>
        <time>2021-08-09T16:32:18Z</time>
      </trkpt>
      <trkpt lat="49.04695" lon="4.49638">
        <ele>132.32</ele>
        <time>2021-08-09T16:32:28Z</time>
      </trkpt>
      <trkpt lat="49.04698" lon="4.49663">
        <ele>132.32</ele>
        <time>2021-08-09T16:32:31Z</time>
      </trkpt>
      <trkpt lat="49.04711" lon="4.49766">
        <ele>132.32</ele>
        <time>2021-08-09T16:32:43Z</time>
      </trkpt>
      <trkpt lat="49.0472" lon="4.49853">
        <ele>132.32</ele>
        <time>2021-08-09T16:32:53Z</time>
      </trkpt>
      <trkpt lat="49.0473" lon="4.49901">
        <ele>132.32</ele>
        <time>2021-08-09T16:32:59Z</time>
      </trkpt>
      <trkpt lat="49.04743" lon="4.4993">
        <ele>132.32</ele>
        <time>2021-08-09T16:33:03Z</time>
      </trkpt>
      <trkpt lat="49.04778" lon="4.49997">
        <ele>132.32</ele>
        <time>2021-08-09T16:33:13Z</time>
      </trkpt>
      <trkpt lat="49.04785" lon="4.50012">
        <ele>132.32</ele>
        <time>2021-08-09T16:33:15Z</time>
      </trkpt>
      <trkpt lat="49.04788" lon="4.5002">
        <ele>132.32</ele>
        <time>2021-08-09T16:33:16Z</time>
      </trkpt>
      <trkpt lat="49.04805" lon="4.50081">
        <ele>132.32</ele>
        <time>2021-08-09T16:33:24Z</time>
      </trkpt>
      <trkpt lat="49.0481" lon="4.50096">
        <ele>132.32</ele>
        <time>2021-08-09T16:33:26Z</time>
      </trkpt>
      <trkpt lat="49.04812" lon="4.50103">
        <ele>132.32</ele>
        <time>2021-08-09T16:33:27Z</time>
      </trkpt>
      <trkpt lat="49.04824" lon="4.50127">
        <ele>132.32</ele>
        <time>2021-08-09T16:33:31Z</time>
      </trkpt>
      <trkpt lat="49.04826" lon="4.50134">
        <ele>132.32</ele>
        <time>2021-08-09T16:33:32Z</time>
      </trkpt>
      <trkpt lat="49.04826" lon="4.50142">
        <ele>132.32</ele>
        <time>2021-08-09T16:33:33Z</time>
      </trkpt>
      <trkpt lat="49.04825" lon="4.5015">
        <ele>132.32</ele>
        <time>2021-08-09T16:33:34Z</time>
      </trkpt>
      <trkpt lat="49.04824" lon="4.50156">
        <ele>132.32</ele>
        <time>2021-08-09T16:33:35Z</time>
      </trkpt>
      <trkpt lat="49.04821" lon="4.50163">
        <ele>132.32</ele>
        <time>2021-08-09T16:33:36Z</time>
      </trkpt>
      <trkpt lat="49.04819" lon="4.5017">
        <ele>132.32</ele>
        <time>2021-08-09T16:33:37Z</time>
      </trkpt>
      <trkpt lat="49.04801" lon="4.50207">
        <ele>132.32</ele>
        <time>2021-08-09T16:33:43Z</time>
      </trkpt>
      <trkpt lat="49.04768" lon="4.50245">
        <ele>133.76</ele>
        <time>2021-08-09T16:33:52Z</time>
      </trkpt>
      <trkpt lat="49.04742" lon="4.50286">
        <ele>135.68</ele>
        <time>2021-08-09T16:34:02Z</time>
      </trkpt>
      <trkpt lat="49.04717" lon="4.50334">
        <ele>136.64</ele>
        <time>2021-08-09T16:34:14Z</time>
      </trkpt>
      <trkpt lat="49.04695" lon="4.50375">
        <ele>137.61</ele>
        <time>2021-08-09T16:34:24Z</time>
      </trkpt>
      <trkpt lat="49.0468" lon="4.50394">
        <ele>137.61</ele>
        <time>2021-08-09T16:34:30Z</time>
      </trkpt>
      <trkpt lat="49.04677" lon="4.50392">
        <ele>137.61</ele>
        <time>2021-08-09T16:34:31Z</time>
      </trkpt>
      <trkpt lat="49.04675" lon="4.50389">
        <ele>138.09</ele>
        <time>2021-08-09T16:34:32Z</time>
      </trkpt>
      <trkpt lat="49.04674" lon="4.50384">
        <ele>138.09</ele>
        <time>2021-08-09T16:34:33Z</time>
      </trkpt>
      <trkpt lat="49.04674" lon="4.5038">
        <ele>138.09</ele>
        <time>2021-08-09T16:34:34Z</time>
      </trkpt>
      <trkpt lat="49.04673" lon="4.50375">
        <ele>138.09</ele>
        <time>2021-08-09T16:34:35Z</time>
      </trkpt>
      <trkpt lat="49.04673" lon="4.5037">
        <ele>138.09</ele>
        <time>2021-08-09T16:34:36Z</time>
      </trkpt>
      <trkpt lat="49.04672" lon="4.50346">
        <ele>138.57</ele>
        <time>2021-08-09T16:34:41Z</time>
      </trkpt>
      <trkpt lat="49.04671" lon="4.50345">
        <ele>138.57</ele>
        <time>2021-08-09T16:34:42Z</time>
      </trkpt>
      <trkpt lat="49.0467" lon="4.50347">
        <ele>138.57</ele>
        <time>2021-08-09T16:34:43Z</time>
      </trkpt>
      <trkpt lat="49.04671" lon="4.50349">
        <ele>138.57</ele>
        <time>2021-08-09T16:34:44Z</time>
      </trkpt>
      <trkpt lat="49.04671" lon="4.50353">
        <ele>138.57</ele>
        <time>2021-08-09T16:34:45Z</time>
      </trkpt>
      <trkpt lat="49.04674" lon="4.50373">
        <ele>138.57</ele>
        <time>2021-08-09T16:34:50Z</time>
      </trkpt>
      <trkpt lat="49.0467" lon="4.5038">
        <ele>138.57</ele>
        <time>2021-08-09T16:34:52Z</time>
      </trkpt>
      <trkpt lat="49.04667" lon="4.50381">
        <ele>137.13</ele>
        <time>2021-08-09T16:34:53Z</time>
      </trkpt>
      <trkpt lat="49.04664" lon="4.50382">
        <ele>137.13</ele>
        <time>2021-08-09T16:34:54Z</time>
      </trkpt>
      <trkpt lat="49.04661" lon="4.50383">
        <ele>137.13</ele>
        <time>2021-08-09T16:34:55Z</time>
      </trkpt>
      <trkpt lat="49.04658" lon="4.50385">
        <ele>137.13</ele>
        <time>2021-08-09T16:34:56Z</time>
      </trkpt>
      <trkpt lat="49.04637" lon="4.50384">
        <ele>137.13</ele>
        <time>2021-08-09T16:35:02Z</time>
      </trkpt>
      <trkpt lat="49.04617" lon="4.50377">
        <ele>137.13</ele>
        <time>2021-08-09T16:35:08Z</time>
      </trkpt>
      <trkpt lat="49.04604" lon="4.50371">
        <ele>137.13</ele>
        <time>2021-08-09T16:35:12Z</time>
      </trkpt>
      <trkpt lat="49.0458" lon="4.50365">
        <ele>138.57</ele>
        <time>2021-08-09T16:35:19Z</time>
      </trkpt>
      <trkpt lat="49.04558" lon="4.50357">
        <ele>138.57</ele>
        <time>2021-08-09T16:35:26Z</time>
      </trkpt>
      <trkpt lat="49.0452" lon="4.50344">
        <ele>139.05</ele>
        <time>2021-08-09T16:35:37Z</time>
      </trkpt>
      <trkpt lat="49.04489" lon="4.50333">
        <ele>139.53</ele>
        <time>2021-08-09T16:35:46Z</time>
      </trkpt>
      <trkpt lat="49.04451" lon="4.5032">
        <ele>140.49</ele>
        <time>2021-08-09T16:35:57Z</time>
      </trkpt>
      <trkpt lat="49.04419" lon="4.50309">
        <ele>141.45</ele>
        <time>2021-08-09T16:36:06Z</time>
      </trkpt>
      <trkpt lat="49.04376" lon="4.50293">
        <ele>141.93</ele>
        <time>2021-08-09T16:36:18Z</time>
      </trkpt>
      <trkpt lat="49.04332" lon="4.50278">
        <ele>142.41</ele>
        <time>2021-08-09T16:36:30Z</time>
      </trkpt>
      <trkpt lat="49.04296" lon="4.50265">
        <ele>142.89</ele>
        <time>2021-08-09T16:36:40Z</time>
      </trkpt>
      <trkpt lat="49.04262" lon="4.50254">
        <ele>143.37</ele>
        <time>2021-08-09T16:36:49Z</time>
      </trkpt>
      <trkpt lat="49.04228" lon="4.50242">
        <ele>143.37</ele>
        <time>2021-08-09T16:36:58Z</time>
      </trkpt>
      <trkpt lat="49.04177" lon="4.50224">
        <ele>143.85</ele>
        <time>2021-08-09T16:37:12Z</time>
      </trkpt>
      <trkpt lat="49.04142" lon="4.50212">
        <ele>145.3</ele>
        <time>2021-08-09T16:37:22Z</time>
      </trkpt>
      <trkpt lat="49.04109" lon="4.502">
        <ele>145.78</ele>
        <time>2021-08-09T16:37:32Z</time>
      </trkpt>
      <trkpt lat="49.0408" lon="4.50191">
        <ele>146.26</ele>
        <time>2021-08-09T16:37:41Z</time>
      </trkpt>
      <trkpt lat="49.04049" lon="4.5018">
        <ele>147.22</ele>
        <time>2021-08-09T16:37:51Z</time>
      </trkpt>
      <trkpt lat="49.0402" lon="4.50169">
        <ele>147.22</ele>
        <time>2021-08-09T16:38:00Z</time>
      </trkpt>
      <trkpt lat="49.03978" lon="4.50154">
        <ele>148.18</ele>
        <time>2021-08-09T16:38:11Z</time>
      </trkpt>
      <trkpt lat="49.0395" lon="4.50145">
        <ele>148.18</ele>
        <time>2021-08-09T16:38:18Z</time>
      </trkpt>
      <trkpt lat="49.03942" lon="4.50142">
        <ele>148.18</ele>
        <time>2021-08-09T16:38:20Z</time>
      </trkpt>
      <trkpt lat="49.03905" lon="4.50129">
        <ele>148.18</ele>
        <time>2021-08-09T16:38:29Z</time>
      </trkpt>
      <trkpt lat="49.03881" lon="4.5012">
        <ele>148.18</ele>
        <time>2021-08-09T16:38:35Z</time>
      </trkpt>
      <trkpt lat="49.03877" lon="4.50119">
        <ele>148.18</ele>
        <time>2021-08-09T16:38:36Z</time>
      </trkpt>
      <trkpt lat="49.03844" lon="4.50107">
        <ele>148.18</ele>
        <time>2021-08-09T16:38:44Z</time>
      </trkpt>
      <trkpt lat="49.03798" lon="4.50091">
        <ele>148.18</ele>
        <time>2021-08-09T16:38:55Z</time>
      </trkpt>
      <trkpt lat="49.03794" lon="4.5009">
        <ele>148.18</ele>
        <time>2021-08-09T16:38:56Z</time>
      </trkpt>
      <trkpt lat="49.03772" lon="4.50082">
        <ele>146.74</ele>
        <time>2021-08-09T16:39:01Z</time>
      </trkpt>
      <trkpt lat="49.03734" lon="4.50069">
        <ele>146.74</ele>
        <time>2021-08-09T16:39:10Z</time>
      </trkpt>
      <trkpt lat="49.03705" lon="4.50059">
        <ele>148.18</ele>
        <time>2021-08-09T16:39:17Z</time>
      </trkpt>
      <trkpt lat="49.03684" lon="4.50053">
        <ele>148.18</ele>
        <time>2021-08-09T16:39:22Z</time>
      </trkpt>
      <trkpt lat="49.03679" lon="4.50051">
        <ele>148.18</ele>
        <time>2021-08-09T16:39:23Z</time>
      </trkpt>
      <trkpt lat="49.03658" lon="4.50043">
        <ele>148.66</ele>
        <time>2021-08-09T16:39:28Z</time>
      </trkpt>
      <trkpt lat="49.03613" lon="4.50026">
        <ele>149.14</ele>
        <time>2021-08-09T16:39:39Z</time>
      </trkpt>
      <trkpt lat="49.03572" lon="4.50013">
        <ele>149.14</ele>
        <time>2021-08-09T16:39:49Z</time>
      </trkpt>
      <trkpt lat="49.03551" lon="4.50004">
        <ele>150.1</ele>
        <time>2021-08-09T16:39:55Z</time>
      </trkpt>
      <trkpt lat="49.03511" lon="4.49991">
        <ele>150.1</ele>
        <time>2021-08-09T16:40:06Z</time>
      </trkpt>
      <trkpt lat="49.0346" lon="4.49972">
        <ele>150.58</ele>
        <time>2021-08-09T16:40:20Z</time>
      </trkpt>
      <trkpt lat="49.03419" lon="4.4996">
        <ele>150.58</ele>
        <time>2021-08-09T16:40:31Z</time>
      </trkpt>
      <trkpt lat="49.03382" lon="4.49946">
        <ele>150.58</ele>
        <time>2021-08-09T16:40:41Z</time>
      </trkpt>
      <trkpt lat="49.03346" lon="4.49934">
        <ele>151.06</ele>
        <time>2021-08-09T16:40:51Z</time>
      </trkpt>
      <trkpt lat="49.0331" lon="4.49921">
        <ele>151.06</ele>
        <time>2021-08-09T16:41:00Z</time>
      </trkpt>
      <trkpt lat="49.03286" lon="4.49914">
        <ele>152.03</ele>
        <time>2021-08-09T16:41:06Z</time>
      </trkpt>
      <trkpt lat="49.03241" lon="4.49898">
        <ele>152.03</ele>
        <time>2021-08-09T16:41:17Z</time>
      </trkpt>
      <trkpt lat="49.032" lon="4.49882">
        <ele>152.03</ele>
        <time>2021-08-09T16:41:27Z</time>
      </trkpt>
      <trkpt lat="49.03187" lon="4.49878">
        <ele>152.03</ele>
        <time>2021-08-09T16:41:30Z</time>
      </trkpt>
      <trkpt lat="49.03182" lon="4.49878">
        <ele>152.03</ele>
        <time>2021-08-09T16:41:31Z</time>
      </trkpt>
      <trkpt lat="49.03178" lon="4.49877">
        <ele>152.03</ele>
        <time>2021-08-09T16:41:32Z</time>
      </trkpt>
      <trkpt lat="49.03174" lon="4.49876">
        <ele>152.03</ele>
        <time>2021-08-09T16:41:33Z</time>
      </trkpt>
      <trkpt lat="49.0317" lon="4.49874">
        <ele>152.03</ele>
        <time>2021-08-09T16:41:34Z</time>
      </trkpt>
      <trkpt lat="49.03135" lon="4.4986">
        <ele>152.03</ele>
        <time>2021-08-09T16:41:43Z</time>
      </trkpt>
      <trkpt lat="49.03089" lon="4.49843">
        <ele>152.03</ele>
        <time>2021-08-09T16:41:55Z</time>
      </trkpt>
      <trkpt lat="49.03042" lon="4.49827">
        <ele>152.03</ele>
        <time>2021-08-09T16:42:06Z</time>
      </trkpt>
      <trkpt lat="49.03009" lon="4.49815">
        <ele>152.03</ele>
        <time>2021-08-09T16:42:14Z</time>
      </trkpt>
      <trkpt lat="49.03004" lon="4.49814">
        <ele>152.03</ele>
        <time>2021-08-09T16:42:15Z</time>
      </trkpt>
      <trkpt lat="49.02964" lon="4.49799">
        <ele>152.03</ele>
        <time>2021-08-09T16:42:24Z</time>
      </trkpt>
      <trkpt lat="49.02956" lon="4.49796">
        <ele>150.58</ele>
        <time>2021-08-09T16:42:26Z</time>
      </trkpt>
      <trkpt lat="49.02922" lon="4.49784">
        <ele>152.03</ele>
        <time>2021-08-09T16:42:34Z</time>
      </trkpt>
      <trkpt lat="49.02899" lon="4.49776">
        <ele>153.95</ele>
        <time>2021-08-09T16:42:42Z</time>
      </trkpt>
      <trkpt lat="49.02864" lon="4.49763">
        <ele>155.87</ele>
        <time>2021-08-09T16:42:55Z</time>
      </trkpt>
      <trkpt lat="49.02828" lon="4.4975">
        <ele>156.83</ele>
        <time>2021-08-09T16:43:06Z</time>
      </trkpt>
      <trkpt lat="49.02801" lon="4.4974">
        <ele>156.83</ele>
        <time>2021-08-09T16:43:13Z</time>
      </trkpt>
      <trkpt lat="49.02797" lon="4.49739">
        <ele>156.83</ele>
        <time>2021-08-09T16:43:14Z</time>
      </trkpt>
      <trkpt lat="49.0276" lon="4.49728">
        <ele>154.91</ele>
        <time>2021-08-09T16:43:23Z</time>
      </trkpt>
      <trkpt lat="49.0274" lon="4.49722">
        <ele>153.95</ele>
        <time>2021-08-09T16:43:27Z</time>
      </trkpt>
      <trkpt lat="49.02697" lon="4.49708">
        <ele>151.54</ele>
        <time>2021-08-09T16:43:34Z</time>
      </trkpt>
      <trkpt lat="49.02677" lon="4.49698">
        <ele>150.1</ele>
        <time>2021-08-09T16:43:37Z</time>
      </trkpt>
      <trkpt lat="49.02672" lon="4.49693">
        <ele>149.14</ele>
        <time>2021-08-09T16:43:38Z</time>
      </trkpt>
      <trkpt lat="49.02667" lon="4.49687">
        <ele>149.14</ele>
        <time>2021-08-09T16:43:39Z</time>
      </trkpt>
      <trkpt lat="49.0264" lon="4.49667">
        <ele>149.62</ele>
        <time>2021-08-09T16:43:45Z</time>
      </trkpt>
      <trkpt lat="49.02614" lon="4.49652">
        <ele>149.14</ele>
        <time>2021-08-09T16:43:51Z</time>
      </trkpt>
      <trkpt lat="49.02571" lon="4.49627">
        <ele>149.14</ele>
        <time>2021-08-09T16:44:01Z</time>
      </trkpt>
      <trkpt lat="49.02527" lon="4.49602">
        <ele>150.1</ele>
        <time>2021-08-09T16:44:12Z</time>
      </trkpt>
      <trkpt lat="49.02492" lon="4.49582">
        <ele>150.58</ele>
        <time>2021-08-09T16:44:22Z</time>
      </trkpt>
      <trkpt lat="49.02459" lon="4.49563">
        <ele>149.62</ele>
        <time>2021-08-09T16:44:30Z</time>
      </trkpt>
      <trkpt lat="49.0245" lon="4.49557">
        <ele>149.62</ele>
        <time>2021-08-09T16:44:32Z</time>
      </trkpt>
      <trkpt lat="49.02446" lon="4.49555">
        <ele>149.62</ele>
        <time>2021-08-09T16:44:33Z</time>
      </trkpt>
      <trkpt lat="49.02411" lon="4.49535">
        <ele>149.62</ele>
        <time>2021-08-09T16:44:42Z</time>
      </trkpt>
      <trkpt lat="49.02364" lon="4.4951">
        <ele>149.14</ele>
        <time>2021-08-09T16:44:54Z</time>
      </trkpt>
      <trkpt lat="49.02333" lon="4.49492">
        <ele>149.14</ele>
        <time>2021-08-09T16:45:02Z</time>
      </trkpt>
      <trkpt lat="49.02289" lon="4.49467">
        <ele>149.14</ele>
        <time>2021-08-09T16:45:14Z</time>
      </trkpt>
      <trkpt lat="49.02278" lon="4.49462">
        <ele>150.58</ele>
        <time>2021-08-09T16:45:17Z</time>
      </trkpt>
      <trkpt lat="49.02248" lon="4.49444">
        <ele>151.06</ele>
        <time>2021-08-09T16:45:26Z</time>
      </trkpt>
      <trkpt lat="49.02209" lon="4.49423">
        <ele>151.54</ele>
        <time>2021-08-09T16:45:38Z</time>
      </trkpt>
      <trkpt lat="49.02166" lon="4.49398">
        <ele>152.51</ele>
        <time>2021-08-09T16:45:51Z</time>
      </trkpt>
      <trkpt lat="49.02136" lon="4.49383">
        <ele>153.47</ele>
        <time>2021-08-09T16:46:00Z</time>
      </trkpt>
      <trkpt lat="49.02102" lon="4.49363">
        <ele>153.95</ele>
        <time>2021-08-09T16:46:11Z</time>
      </trkpt>
      <trkpt lat="49.02068" lon="4.49343">
        <ele>154.91</ele>
        <time>2021-08-09T16:46:22Z</time>
      </trkpt>
      <trkpt lat="49.02048" lon="4.49331">
        <ele>155.39</ele>
        <time>2021-08-09T16:46:28Z</time>
      </trkpt>
      <trkpt lat="49.02044" lon="4.4933">
        <ele>155.39</ele>
        <time>2021-08-09T16:46:29Z</time>
      </trkpt>
      <trkpt lat="49.02039" lon="4.49329">
        <ele>155.39</ele>
        <time>2021-08-09T16:46:30Z</time>
      </trkpt>
      <trkpt lat="49.02035" lon="4.49327">
        <ele>155.39</ele>
        <time>2021-08-09T16:46:31Z</time>
      </trkpt>
      <trkpt lat="49.01998" lon="4.49304">
        <ele>155.87</ele>
        <time>2021-08-09T16:46:42Z</time>
      </trkpt>
      <trkpt lat="49.01963" lon="4.49282">
        <ele>156.35</ele>
        <time>2021-08-09T16:46:52Z</time>
      </trkpt>
      <trkpt lat="49.01938" lon="4.49268">
        <ele>156.35</ele>
        <time>2021-08-09T16:46:59Z</time>
      </trkpt>
      <trkpt lat="49.01906" lon="4.49249">
        <ele>156.35</ele>
        <time>2021-08-09T16:47:08Z</time>
      </trkpt>
      <trkpt lat="49.01871" lon="4.4923">
        <ele>156.83</ele>
        <time>2021-08-09T16:47:18Z</time>
      </trkpt>
      <trkpt lat="49.01828" lon="4.49207">
        <ele>156.83</ele>
        <time>2021-08-09T16:47:30Z</time>
      </trkpt>
      <trkpt lat="49.01799" lon="4.49192">
        <ele>156.83</ele>
        <time>2021-08-09T16:47:38Z</time>
      </trkpt>
      <trkpt lat="49.0177" lon="4.49176">
        <ele>156.83</ele>
        <time>2021-08-09T16:47:46Z</time>
      </trkpt>
      <trkpt lat="49.01767" lon="4.49174">
        <ele>156.83</ele>
        <time>2021-08-09T16:47:47Z</time>
      </trkpt>
      <trkpt lat="49.01766" lon="4.49173">
        <ele>156.83</ele>
        <time>2021-08-09T16:47:48Z</time>
      </trkpt>
      <trkpt lat="49.01765" lon="4.49174">
        <ele>156.83</ele>
        <time>2021-08-09T16:47:49Z</time>
      </trkpt>
      <trkpt lat="49.01765" lon="4.49176">
        <ele>157.31</ele>
        <time>2021-08-09T16:47:50Z</time>
      </trkpt>
      <trkpt lat="49.01767" lon="4.49178">
        <ele>157.31</ele>
        <time>2021-08-09T16:47:51Z</time>
      </trkpt>
      <trkpt lat="49.0177" lon="4.49179">
        <ele>157.31</ele>
        <time>2021-08-09T16:47:52Z</time>
      </trkpt>
      <trkpt lat="49.01791" lon="4.49189">
        <ele>157.31</ele>
        <time>2021-08-09T16:47:58Z</time>
      </trkpt>
      <trkpt lat="49.01842" lon="4.49216">
        <ele>157.31</ele>
        <time>2021-08-09T16:48:09Z</time>
      </trkpt>
      <trkpt lat="49.01853" lon="4.49223">
        <ele>157.79</ele>
        <time>2021-08-09T16:48:12Z</time>
      </trkpt>
      <trkpt lat="49.01855" lon="4.49228">
        <ele>157.79</ele>
        <time>2021-08-09T16:48:13Z</time>
      </trkpt>
      <trkpt lat="49.01856" lon="4.49234">
        <ele>157.79</ele>
        <time>2021-08-09T16:48:14Z</time>
      </trkpt>
      <trkpt lat="49.01856" lon="4.49239">
        <ele>157.79</ele>
        <time>2021-08-09T16:48:15Z</time>
      </trkpt>
      <trkpt lat="49.01855" lon="4.49245">
        <ele>157.79</ele>
        <time>2021-08-09T16:48:16Z</time>
      </trkpt>
      <trkpt lat="49.01847" lon="4.4931">
        <ele>157.79</ele>
        <time>2021-08-09T16:48:25Z</time>
      </trkpt>
      <trkpt lat="49.01841" lon="4.49373">
        <ele>156.35</ele>
        <time>2021-08-09T16:48:33Z</time>
      </trkpt>
      <trkpt lat="49.01831" lon="4.49462">
        <ele>155.39</ele>
        <time>2021-08-09T16:48:43Z</time>
      </trkpt>
      <trkpt lat="49.01821" lon="4.49551">
        <ele>152.99</ele>
        <time>2021-08-09T16:48:52Z</time>
      </trkpt>
      <trkpt lat="49.01809" lon="4.49676">
        <ele>152.51</ele>
        <time>2021-08-09T16:49:04Z</time>
      </trkpt>
      <trkpt lat="49.018" lon="4.49751">
        <ele>152.51</ele>
        <time>2021-08-09T16:49:12Z</time>
      </trkpt>
      <trkpt lat="49.01798" lon="4.49777">
        <ele>153.95</ele>
        <time>2021-08-09T16:49:15Z</time>
      </trkpt>
      <trkpt lat="49.01787" lon="4.4987">
        <ele>153.95</ele>
        <time>2021-08-09T16:49:26Z</time>
      </trkpt>
      <trkpt lat="49.01776" lon="4.49975">
        <ele>153.95</ele>
        <time>2021-08-09T16:49:38Z</time>
      </trkpt>
      <trkpt lat="49.0177" lon="4.50027">
        <ele>152.99</ele>
        <time>2021-08-09T16:49:44Z</time>
      </trkpt>
      <trkpt lat="49.01759" lon="4.50125">
        <ele>152.51</ele>
        <time>2021-08-09T16:49:55Z</time>
      </trkpt>
      <trkpt lat="49.01753" lon="4.5019">
        <ele>152.51</ele>
        <time>2021-08-09T16:50:03Z</time>
      </trkpt>
      <trkpt lat="49.01752" lon="4.50197">
        <ele>152.51</ele>
        <time>2021-08-09T16:50:04Z</time>
      </trkpt>
      <trkpt lat="49.01748" lon="4.5024">
        <ele>153.95</ele>
        <time>2021-08-09T16:50:11Z</time>
      </trkpt>
      <trkpt lat="49.01744" lon="4.50274">
        <ele>155.39</ele>
        <time>2021-08-09T16:50:19Z</time>
      </trkpt>
      <trkpt lat="49.01739" lon="4.5031">
        <ele>155.87</ele>
        <time>2021-08-09T16:50:28Z</time>
      </trkpt>
      <trkpt lat="49.01732" lon="4.50327">
        <ele>156.35</ele>
        <time>2021-08-09T16:50:33Z</time>
      </trkpt>
      <trkpt lat="49.01719" lon="4.50326">
        <ele>156.35</ele>
        <time>2021-08-09T16:50:38Z</time>
      </trkpt>
      <trkpt lat="49.01681" lon="4.50313">
        <ele>156.35</ele>
        <time>2021-08-09T16:50:49Z</time>
      </trkpt>
      <trkpt lat="49.01643" lon="4.50298">
        <ele>156.83</ele>
        <time>2021-08-09T16:51:00Z</time>
      </trkpt>
      <trkpt lat="49.01605" lon="4.50283">
        <ele>157.31</ele>
        <time>2021-08-09T16:51:11Z</time>
      </trkpt>
      <trkpt lat="49.01558" lon="4.50265">
        <ele>157.79</ele>
        <time>2021-08-09T16:51:24Z</time>
      </trkpt>
      <trkpt lat="49.01529" lon="4.50255">
        <ele>158.27</ele>
        <time>2021-08-09T16:51:32Z</time>
      </trkpt>
      <trkpt lat="49.01482" lon="4.50237">
        <ele>159.24</ele>
        <time>2021-08-09T16:51:45Z</time>
      </trkpt>
      <trkpt lat="49.01428" lon="4.50218">
        <ele>159.24</ele>
        <time>2021-08-09T16:51:58Z</time>
      </trkpt>
      <trkpt lat="49.01424" lon="4.50216">
        <ele>159.24</ele>
        <time>2021-08-09T16:51:59Z</time>
      </trkpt>
      <trkpt lat="49.0142" lon="4.50214">
        <ele>159.24</ele>
        <time>2021-08-09T16:52:00Z</time>
      </trkpt>
      <trkpt lat="49.01407" lon="4.50209">
        <ele>157.79</ele>
        <time>2021-08-09T16:52:03Z</time>
      </trkpt>
      <trkpt lat="49.01363" lon="4.50193">
        <ele>157.31</ele>
        <time>2021-08-09T16:52:13Z</time>
      </trkpt>
      <trkpt lat="49.0133" lon="4.5018">
        <ele>156.83</ele>
        <time>2021-08-09T16:52:21Z</time>
      </trkpt>
      <trkpt lat="49.01321" lon="4.50177">
        <ele>156.83</ele>
        <time>2021-08-09T16:52:23Z</time>
      </trkpt>
      <trkpt lat="49.01286" lon="4.50166">
        <ele>158.27</ele>
        <time>2021-08-09T16:52:31Z</time>
      </trkpt>
      <trkpt lat="49.01283" lon="4.50164">
        <ele>158.27</ele>
        <time>2021-08-09T16:52:32Z</time>
      </trkpt>
      <trkpt lat="49.01257" lon="4.50155">
        <ele>159.24</ele>
        <time>2021-08-09T16:52:41Z</time>
      </trkpt>
      <trkpt lat="49.01234" lon="4.50147">
        <ele>160.68</ele>
        <time>2021-08-09T16:52:50Z</time>
      </trkpt>
      <trkpt lat="49.01213" lon="4.5014">
        <ele>162.12</ele>
        <time>2021-08-09T16:53:01Z</time>
      </trkpt>
      <trkpt lat="49.01188" lon="4.50131">
        <ele>164.04</ele>
        <time>2021-08-09T16:53:14Z</time>
      </trkpt>
      <trkpt lat="49.01164" lon="4.50122">
        <ele>166.45</ele>
        <time>2021-08-09T16:53:27Z</time>
      </trkpt>
      <trkpt lat="49.01143" lon="4.50114">
        <ele>168.37</ele>
        <time>2021-08-09T16:53:38Z</time>
      </trkpt>
      <trkpt lat="49.01128" lon="4.50108">
        <ele>169.81</ele>
        <time>2021-08-09T16:53:46Z</time>
      </trkpt>
      <trkpt lat="49.01106" lon="4.501">
        <ele>170.77</ele>
        <time>2021-08-09T16:53:57Z</time>
      </trkpt>
      <trkpt lat="49.01079" lon="4.50089">
        <ele>172.21</ele>
        <time>2021-08-09T16:54:09Z</time>
      </trkpt>
      <trkpt lat="49.01051" lon="4.50079">
        <ele>173.66</ele>
        <time>2021-08-09T16:54:20Z</time>
      </trkpt>
      <trkpt lat="49.01025" lon="4.50069">
        <ele>173.66</ele>
        <time>2021-08-09T16:54:30Z</time>
      </trkpt>
      <trkpt lat="49.00995" lon="4.50057">
        <ele>174.14</ele>
        <time>2021-08-09T16:54:40Z</time>
      </trkpt>
      <trkpt lat="49.00978" lon="4.50056">
        <ele>174.62</ele>
        <time>2021-08-09T16:54:46Z</time>
      </trkpt>
      <trkpt lat="49.00976" lon="4.50059">
        <ele>175.1</ele>
        <time>2021-08-09T16:54:47Z</time>
      </trkpt>
      <trkpt lat="49.00974" lon="4.50063">
        <ele>175.1</ele>
        <time>2021-08-09T16:54:48Z</time>
      </trkpt>
      <trkpt lat="49.00973" lon="4.50068">
        <ele>175.1</ele>
        <time>2021-08-09T16:54:49Z</time>
      </trkpt>
      <trkpt lat="49.00972" lon="4.50071">
        <ele>175.1</ele>
        <time>2021-08-09T16:54:50Z</time>
      </trkpt>
      <trkpt lat="49.00972" lon="4.50077">
        <ele>175.58</ele>
        <time>2021-08-09T16:54:51Z</time>
      </trkpt>
      <trkpt lat="49.00972" lon="4.50082">
        <ele>175.58</ele>
        <time>2021-08-09T16:54:52Z</time>
      </trkpt>
      <trkpt lat="49.00972" lon="4.50088">
        <ele>175.1</ele>
        <time>2021-08-09T16:54:53Z</time>
      </trkpt>
      <trkpt lat="49.00971" lon="4.50144">
        <ele>175.1</ele>
        <time>2021-08-09T16:55:02Z</time>
      </trkpt>
      <trkpt lat="49.00972" lon="4.502">
        <ele>175.58</ele>
        <time>2021-08-09T16:55:10Z</time>
      </trkpt>
      <trkpt lat="49.0097" lon="4.50247">
        <ele>175.58</ele>
        <time>2021-08-09T16:55:16Z</time>
      </trkpt>
      <trkpt lat="49.00968" lon="4.50315">
        <ele>175.58</ele>
        <time>2021-08-09T16:55:24Z</time>
      </trkpt>
      <trkpt lat="49.00964" lon="4.50393">
        <ele>176.06</ele>
        <time>2021-08-09T16:55:33Z</time>
      </trkpt>
      <trkpt lat="49.00959" lon="4.50476">
        <ele>176.54</ele>
        <time>2021-08-09T16:55:43Z</time>
      </trkpt>
      <trkpt lat="49.00955" lon="4.50553">
        <ele>176.54</ele>
        <time>2021-08-09T16:55:52Z</time>
      </trkpt>
      <trkpt lat="49.00951" lon="4.50667">
        <ele>177.5</ele>
        <time>2021-08-09T16:56:05Z</time>
      </trkpt>
      <trkpt lat="49.00949" lon="4.50766">
        <ele>177.5</ele>
        <time>2021-08-09T16:56:16Z</time>
      </trkpt>
      <trkpt lat="49.00947" lon="4.50847">
        <ele>177.98</ele>
        <time>2021-08-09T16:56:25Z</time>
      </trkpt>
      <trkpt lat="49.00944" lon="4.50945">
        <ele>177.98</ele>
        <time>2021-08-09T16:56:36Z</time>
      </trkpt>
      <trkpt lat="49.00942" lon="4.51032">
        <ele>178.46</ele>
        <time>2021-08-09T16:56:46Z</time>
      </trkpt>
      <trkpt lat="49.0094" lon="4.51123">
        <ele>178.46</ele>
        <time>2021-08-09T16:56:56Z</time>
      </trkpt>
      <trkpt lat="49.00939" lon="4.51197">
        <ele>178.46</ele>
        <time>2021-08-09T16:57:04Z</time>
      </trkpt>
      <trkpt lat="49.00938" lon="4.51215">
        <ele>177.02</ele>
        <time>2021-08-09T16:57:06Z</time>
      </trkpt>
      <trkpt lat="49.00936" lon="4.51309">
        <ele>176.54</ele>
        <time>2021-08-09T16:57:16Z</time>
      </trkpt>
      <trkpt lat="49.00934" lon="4.51413">
        <ele>176.54</ele>
        <time>2021-08-09T16:57:27Z</time>
      </trkpt>
      <trkpt lat="49.00933" lon="4.51495">
        <ele>176.06</ele>
        <time>2021-08-09T16:57:36Z</time>
      </trkpt>
      <trkpt lat="49.00933" lon="4.51551">
        <ele>177.5</ele>
        <time>2021-08-09T16:57:44Z</time>
      </trkpt>
      <trkpt lat="49.00933" lon="4.5158">
        <ele>177.5</ele>
        <time>2021-08-09T16:57:49Z</time>
      </trkpt>
      <trkpt lat="49.0093" lon="4.51647">
        <ele>177.5</ele>
        <time>2021-08-09T16:57:58Z</time>
      </trkpt>
      <trkpt lat="49.00927" lon="4.5169">
        <ele>177.5</ele>
        <time>2021-08-09T16:58:03Z</time>
      </trkpt>
      <trkpt lat="49.00915" lon="4.51753">
        <ele>177.5</ele>
        <time>2021-08-09T16:58:11Z</time>
      </trkpt>
      <trkpt lat="49.00902" lon="4.51818">
        <ele>178.46</ele>
        <time>2021-08-09T16:58:19Z</time>
      </trkpt>
      <trkpt lat="49.00883" lon="4.51908">
        <ele>177.02</ele>
        <time>2021-08-09T16:58:30Z</time>
      </trkpt>
      <trkpt lat="49.0087" lon="4.51979">
        <ele>177.02</ele>
        <time>2021-08-09T16:58:39Z</time>
      </trkpt>
      <trkpt lat="49.00869" lon="4.51987">
        <ele>177.02</ele>
        <time>2021-08-09T16:58:40Z</time>
      </trkpt>
      <trkpt lat="49.00867" lon="4.51995">
        <ele>177.02</ele>
        <time>2021-08-09T16:58:41Z</time>
      </trkpt>
      <trkpt lat="49.00852" lon="4.52064">
        <ele>177.98</ele>
        <time>2021-08-09T16:58:50Z</time>
      </trkpt>
      <trkpt lat="49.00845" lon="4.521">
        <ele>178.46</ele>
        <time>2021-08-09T16:58:55Z</time>
      </trkpt>
      <trkpt lat="49.00844" lon="4.52107">
        <ele>177.98</ele>
        <time>2021-08-09T16:58:56Z</time>
      </trkpt>
      <trkpt lat="49.00837" lon="4.52143">
        <ele>178.46</ele>
        <time>2021-08-09T16:59:01Z</time>
      </trkpt>
      <trkpt lat="49.00826" lon="4.52198">
        <ele>178.94</ele>
        <time>2021-08-09T16:59:09Z</time>
      </trkpt>
      <trkpt lat="49.00825" lon="4.52205">
        <ele>178.94</ele>
        <time>2021-08-09T16:59:10Z</time>
      </trkpt>
      <trkpt lat="49.00823" lon="4.52212">
        <ele>178.94</ele>
        <time>2021-08-09T16:59:11Z</time>
      </trkpt>
      <trkpt lat="49.0082" lon="4.52216">
        <ele>178.94</ele>
        <time>2021-08-09T16:59:12Z</time>
      </trkpt>
      <trkpt lat="49.00816" lon="4.5222">
        <ele>178.94</ele>
        <time>2021-08-09T16:59:13Z</time>
      </trkpt>
      <trkpt lat="49.00811" lon="4.52221">
        <ele>178.94</ele>
        <time>2021-08-09T16:59:14Z</time>
      </trkpt>
      <trkpt lat="49.00808" lon="4.5222">
        <ele>178.94</ele>
        <time>2021-08-09T16:59:15Z</time>
      </trkpt>
      <trkpt lat="49.00804" lon="4.52219">
        <ele>178.94</ele>
        <time>2021-08-09T16:59:16Z</time>
      </trkpt>
      <trkpt lat="49.008" lon="4.52217">
        <ele>178.94</ele>
        <time>2021-08-09T16:59:17Z</time>
      </trkpt>
      <trkpt lat="49.00766" lon="4.52208">
        <ele>178.94</ele>
        <time>2021-08-09T16:59:25Z</time>
      </trkpt>
      <trkpt lat="49.00719" lon="4.52201">
        <ele>179.9</ele>
        <time>2021-08-09T16:59:35Z</time>
      </trkpt>
      <trkpt lat="49.00669" lon="4.52192">
        <ele>179.9</ele>
        <time>2021-08-09T16:59:45Z</time>
      </trkpt>
      <trkpt lat="49.00652" lon="4.52189">
        <ele>178.46</ele>
        <time>2021-08-09T16:59:48Z</time>
      </trkpt>
      <trkpt lat="49.00578" lon="4.52176">
        <ele>175.58</ele>
        <time>2021-08-09T17:00:01Z</time>
      </trkpt>
      <trkpt lat="49.00516" lon="4.52164">
        <ele>173.17</ele>
        <time>2021-08-09T17:00:11Z</time>
      </trkpt>
      <trkpt lat="49.00504" lon="4.52162">
        <ele>172.21</ele>
        <time>2021-08-09T17:00:13Z</time>
      </trkpt>
      <trkpt lat="49.00455" lon="4.52152">
        <ele>171.73</ele>
        <time>2021-08-09T17:00:21Z</time>
      </trkpt>
      <trkpt lat="49.00399" lon="4.52141">
        <ele>172.21</ele>
        <time>2021-08-09T17:00:31Z</time>
      </trkpt>
      <trkpt lat="49.00366" lon="4.52136">
        <ele>173.17</ele>
        <time>2021-08-09T17:00:38Z</time>
      </trkpt>
      <trkpt lat="49.00304" lon="4.52125">
        <ele>174.14</ele>
        <time>2021-08-09T17:00:52Z</time>
      </trkpt>
      <trkpt lat="49.00264" lon="4.52117">
        <ele>174.62</ele>
        <time>2021-08-09T17:01:01Z</time>
      </trkpt>
      <trkpt lat="49.00216" lon="4.52108">
        <ele>174.14</ele>
        <time>2021-08-09T17:01:12Z</time>
      </trkpt>
      <trkpt lat="49.00192" lon="4.52103">
        <ele>174.14</ele>
        <time>2021-08-09T17:01:17Z</time>
      </trkpt>
      <trkpt lat="49.00187" lon="4.52102">
        <ele>174.14</ele>
        <time>2021-08-09T17:01:18Z</time>
      </trkpt>
      <trkpt lat="49.00139" lon="4.52093">
        <ele>172.69</ele>
        <time>2021-08-09T17:01:27Z</time>
      </trkpt>
      <trkpt lat="49.00095" lon="4.52084">
        <ele>172.21</ele>
        <time>2021-08-09T17:01:35Z</time>
      </trkpt>
      <trkpt lat="49.00021" lon="4.52071">
        <ele>169.81</ele>
        <time>2021-08-09T17:01:47Z</time>
      </trkpt>
      <trkpt lat="48.99953" lon="4.52058">
        <ele>167.41</ele>
        <time>2021-08-09T17:01:57Z</time>
      </trkpt>
      <trkpt lat="48.99891" lon="4.52047">
        <ele>164.04</ele>
        <time>2021-08-09T17:02:05Z</time>
      </trkpt>
      <trkpt lat="48.99877" lon="4.52044">
        <ele>163.56</ele>
        <time>2021-08-09T17:02:07Z</time>
      </trkpt>
      <trkpt lat="48.99775" lon="4.52025">
        <ele>160.68</ele>
        <time>2021-08-09T17:02:20Z</time>
      </trkpt>
      <trkpt lat="48.997" lon="4.52011">
        <ele>157.79</ele>
        <time>2021-08-09T17:02:30Z</time>
      </trkpt>
      <trkpt lat="48.99612" lon="4.51995">
        <ele>154.91</ele>
        <time>2021-08-09T17:02:42Z</time>
      </trkpt>
      <trkpt lat="48.99536" lon="4.51979">
        <ele>151.54</ele>
        <time>2021-08-09T17:02:53Z</time>
      </trkpt>
      <trkpt lat="48.99483" lon="4.5197">
        <ele>151.54</ele>
        <time>2021-08-09T17:03:02Z</time>
      </trkpt>
      <trkpt lat="48.99428" lon="4.51959">
        <ele>149.14</ele>
        <time>2021-08-09T17:03:12Z</time>
      </trkpt>
      <trkpt lat="48.99372" lon="4.51948">
        <ele>148.66</ele>
        <time>2021-08-09T17:03:22Z</time>
      </trkpt>
      <trkpt lat="48.99324" lon="4.51941">
        <ele>149.62</ele>
        <time>2021-08-09T17:03:32Z</time>
      </trkpt>
      <trkpt lat="48.99299" lon="4.51935">
        <ele>151.06</ele>
        <time>2021-08-09T17:03:39Z</time>
      </trkpt>
      <trkpt lat="48.99277" lon="4.5192">
        <ele>151.06</ele>
        <time>2021-08-09T17:03:46Z</time>
      </trkpt>
      <trkpt lat="48.99274" lon="4.51918">
        <ele>151.54</ele>
        <time>2021-08-09T17:03:48Z</time>
      </trkpt>
      <trkpt lat="48.99273" lon="4.51916">
        <ele>151.54</ele>
        <time>2021-08-09T17:03:49Z</time>
      </trkpt>
      <trkpt lat="48.99269" lon="4.51908">
        <ele>151.54</ele>
        <time>2021-08-09T17:03:52Z</time>
      </trkpt>
      <trkpt lat="48.99266" lon="4.51907">
        <ele>151.54</ele>
        <time>2021-08-09T17:03:53Z</time>
      </trkpt>
      <trkpt lat="48.99262" lon="4.51908">
        <ele>151.54</ele>
        <time>2021-08-09T17:03:54Z</time>
      </trkpt>
      <trkpt lat="48.99246" lon="4.51916">
        <ele>151.54</ele>
        <time>2021-08-09T17:03:58Z</time>
      </trkpt>
      <trkpt lat="48.99232" lon="4.51918">
        <ele>151.54</ele>
        <time>2021-08-09T17:04:01Z</time>
      </trkpt>
      <trkpt lat="48.99224" lon="4.51917">
        <ele>151.54</ele>
        <time>2021-08-09T17:04:03Z</time>
      </trkpt>
      <trkpt lat="48.99192" lon="4.51916">
        <ele>151.54</ele>
        <time>2021-08-09T17:04:10Z</time>
      </trkpt>
      <trkpt lat="48.99145" lon="4.51913">
        <ele>151.54</ele>
        <time>2021-08-09T17:04:20Z</time>
      </trkpt>
      <trkpt lat="48.99117" lon="4.5191">
        <ele>151.54</ele>
        <time>2021-08-09T17:04:28Z</time>
      </trkpt>
      <trkpt lat="48.99114" lon="4.51909">
        <ele>151.54</ele>
        <time>2021-08-09T17:04:33Z</time>
      </trkpt>
      <trkpt lat="48.99115" lon="4.51906">
        <ele>152.03</ele>
        <time>2021-08-09T17:04:51Z</time>
      </trkpt>
      <trkpt lat="48.99113" lon="4.5191">
        <ele>152.03</ele>
        <time>2021-08-09T17:05:01Z</time>
      </trkpt>
      <trkpt lat="48.99113" lon="4.51914">
        <ele>152.03</ele>
        <time>2021-08-09T17:05:04Z</time>
      </trkpt>
      <trkpt lat="48.99115" lon="4.51917">
        <ele>152.03</ele>
        <time>2021-08-09T17:05:10Z</time>
      </trkpt>
      <trkpt lat="48.99113" lon="4.51918">
        <ele>152.03</ele>
        <time>2021-08-09T17:05:25Z</time>
      </trkpt>
      <trkpt lat="48.99113" lon="4.51918">
        <ele>152.03</ele>
        <time>2021-08-09T17:05:37Z</time>
      </trkpt>
      <trkpt lat="48.99114" lon="4.51919">
        <ele>151.54</ele>
        <time>2021-08-09T17:05:54Z</time>
      </trkpt>
      <trkpt lat="48.99114" lon="4.5192">
        <ele>151.54</ele>
        <time>2021-08-09T17:06:17Z</time>
      </trkpt>
      <trkpt lat="48.99113" lon="4.5192">
        <ele>151.54</ele>
        <time>2021-08-09T17:06:26Z</time>
      </trkpt>
      <trkpt lat="48.99113" lon="4.51919">
        <ele>151.54</ele>
        <time>2021-08-09T17:06:46Z</time>
      </trkpt>
      <trkpt lat="48.99112" lon="4.51919">
        <ele>150.58</ele>
        <time>2021-08-09T17:07:10Z</time>
      </trkpt>
      <trkpt lat="48.99112" lon="4.5192">
        <ele>150.58</ele>
        <time>2021-08-09T17:07:23Z</time>
      </trkpt>
      <trkpt lat="48.99112" lon="4.5192">
        <ele>150.58</ele>
        <time>2021-08-09T17:07:43Z</time>
      </trkpt>
      <trkpt lat="48.99113" lon="4.51923">
        <ele>150.58</ele>
        <time>2021-08-09T17:08:03Z</time>
      </trkpt>
      <trkpt lat="48.99114" lon="4.51921">
        <ele>150.58</ele>
        <time>2021-08-09T17:08:22Z</time>
      </trkpt>
      <trkpt lat="48.99114" lon="4.5192">
        <ele>150.58</ele>
        <time>2021-08-09T17:08:40Z</time>
      </trkpt>
      <trkpt lat="48.99113" lon="4.51917">
        <ele>150.58</ele>
        <time>2021-08-09T17:09:01Z</time>
      </trkpt>
      <trkpt lat="48.99112" lon="4.51919">
        <ele>150.58</ele>
        <time>2021-08-09T17:09:25Z</time>
      </trkpt>
      <trkpt lat="48.99113" lon="4.51919">
        <ele>150.58</ele>
        <time>2021-08-09T17:09:44Z</time>
      </trkpt>
      <trkpt lat="48.99114" lon="4.51915">
        <ele>150.58</ele>
        <time>2021-08-09T17:10:02Z</time>
      </trkpt>
      <trkpt lat="48.99114" lon="4.51916">
        <ele>150.58</ele>
        <time>2021-08-09T17:10:26Z</time>
      </trkpt>
      <trkpt lat="48.99115" lon="4.51914">
        <ele>150.58</ele>
        <time>2021-08-09T17:10:49Z</time>
      </trkpt>
      <trkpt lat="48.99115" lon="4.51915">
        <ele>150.58</ele>
        <time>2021-08-09T17:11:04Z</time>
      </trkpt>
      <trkpt lat="48.99115" lon="4.51914">
        <ele>150.58</ele>
        <time>2021-08-09T17:11:15Z</time>
      </trkpt>
      <trkpt lat="48.99114" lon="4.51914">
        <ele>150.58</ele>
        <time>2021-08-09T17:11:25Z</time>
      </trkpt>
      <trkpt lat="48.99114" lon="4.51916">
        <ele>150.58</ele>
        <time>2021-08-09T17:11:40Z</time>
      </trkpt>
      <trkpt lat="48.99114" lon="4.51916">
        <ele>151.54</ele>
        <time>2021-08-09T17:11:55Z</time>
      </trkpt>
      <trkpt lat="48.99114" lon="4.51916">
        <ele>151.54</ele>
        <time>2021-08-09T17:12:10Z</time>
      </trkpt>
      <trkpt lat="48.99114" lon="4.51916">
        <ele>151.54</ele>
        <time>2021-08-09T17:12:25Z</time>
      </trkpt>
      <trkpt lat="48.99114" lon="4.51916">
        <ele>151.54</ele>
        <time>2021-08-09T17:12:44Z</time>
      </trkpt>
      <trkpt lat="48.99116" lon="4.51915">
        <ele>151.06</ele>
        <time>2021-08-09T17:13:06Z</time>
      </trkpt>
      <trkpt lat="48.99115" lon="4.51917">
        <ele>151.06</ele>
        <time>2021-08-09T17:13:22Z</time>
      </trkpt>
      <trkpt lat="48.99113" lon="4.51919">
        <ele>151.06</ele>
        <time>2021-08-09T17:13:41Z</time>
      </trkpt>
      <trkpt lat="48.99113" lon="4.5192">
        <ele>151.06</ele>
        <time>2021-08-09T17:13:53Z</time>
      </trkpt>
      <trkpt lat="48.99115" lon="4.51918">
        <ele>151.06</ele>
        <time>2021-08-09T17:14:06Z</time>
      </trkpt>
      <trkpt lat="48.99116" lon="4.51918">
        <ele>151.06</ele>
        <time>2021-08-09T17:14:25Z</time>
      </trkpt>
      <trkpt lat="48.99115" lon="4.5192">
        <ele>151.54</ele>
        <time>2021-08-09T17:14:46Z</time>
      </trkpt>
      <trkpt lat="48.99114" lon="4.51922">
        <ele>151.54</ele>
        <time>2021-08-09T17:15:07Z</time>
      </trkpt>
      <trkpt lat="48.99114" lon="4.51916">
        <ele>151.54</ele>
        <time>2021-08-09T17:15:25Z</time>
      </trkpt>
      <trkpt lat="48.99113" lon="4.51914">
        <ele>151.54</ele>
        <time>2021-08-09T17:15:42Z</time>
      </trkpt>
      <trkpt lat="48.99114" lon="4.51914">
        <ele>151.54</ele>
        <time>2021-08-09T17:15:58Z</time>
      </trkpt>
      <trkpt lat="48.99112" lon="4.51917">
        <ele>151.54</ele>
        <time>2021-08-09T17:16:14Z</time>
      </trkpt>
      <trkpt lat="48.99112" lon="4.51915">
        <ele>151.54</ele>
        <time>2021-08-09T17:16:17Z</time>
      </trkpt>
      <trkpt lat="48.99111" lon="4.51913">
        <ele>151.54</ele>
        <time>2021-08-09T17:16:22Z</time>
      </trkpt>
      <trkpt lat="48.99108" lon="4.51914">
        <ele>151.54</ele>
        <time>2021-08-09T17:16:45Z</time>
      </trkpt>
      <trkpt lat="48.99112" lon="4.51917">
        <ele>151.54</ele>
        <time>2021-08-09T17:17:02Z</time>
      </trkpt>
      <trkpt lat="48.99112" lon="4.51917">
        <ele>151.54</ele>
        <time>2021-08-09T17:17:22Z</time>
      </trkpt>
      <trkpt lat="48.99113" lon="4.51917">
        <ele>151.54</ele>
        <time>2021-08-09T17:17:38Z</time>
      </trkpt>
      <trkpt lat="48.99112" lon="4.5192">
        <ele>151.54</ele>
        <time>2021-08-09T17:18:00Z</time>
      </trkpt>
      <trkpt lat="48.99114" lon="4.51919">
        <ele>151.06</ele>
        <time>2021-08-09T17:18:25Z</time>
      </trkpt>
      <trkpt lat="48.99114" lon="4.51919">
        <ele>151.54</ele>
        <time>2021-08-09T17:18:44Z</time>
      </trkpt>
      <trkpt lat="48.99115" lon="4.51919">
        <ele>151.54</ele>
        <time>2021-08-09T17:19:01Z</time>
      </trkpt>
      <trkpt lat="48.99117" lon="4.5192">
        <ele>151.54</ele>
        <time>2021-08-09T17:19:19Z</time>
      </trkpt>
      <trkpt lat="48.99115" lon="4.51917">
        <ele>151.54</ele>
        <time>2021-08-09T17:19:40Z</time>
      </trkpt>
      <trkpt lat="48.99115" lon="4.51917">
        <ele>151.54</ele>
        <time>2021-08-09T17:19:55Z</time>
      </trkpt>
      <trkpt lat="48.99116" lon="4.51916">
        <ele>151.54</ele>
        <time>2021-08-09T17:20:17Z</time>
      </trkpt>
      <trkpt lat="48.99115" lon="4.51915">
        <ele>152.03</ele>
        <time>2021-08-09T17:20:28Z</time>
      </trkpt>
      <trkpt lat="48.99114" lon="4.51914">
        <ele>152.03</ele>
        <time>2021-08-09T17:20:36Z</time>
      </trkpt>
      <trkpt lat="48.99113" lon="4.51913">
        <ele>152.03</ele>
        <time>2021-08-09T17:20:49Z</time>
      </trkpt>
      <trkpt lat="48.99114" lon="4.51912">
        <ele>152.03</ele>
        <time>2021-08-09T17:21:00Z</time>
      </trkpt>
      <trkpt lat="48.99115" lon="4.51911">
        <ele>152.03</ele>
        <time>2021-08-09T17:21:01Z</time>
      </trkpt>
      <trkpt lat="48.99116" lon="4.5191">
        <ele>152.03</ele>
        <time>2021-08-09T17:21:02Z</time>
      </trkpt>
      <trkpt lat="48.99116" lon="4.51907">
        <ele>152.03</ele>
        <time>2021-08-09T17:21:04Z</time>
      </trkpt>
      <trkpt lat="48.99116" lon="4.51905">
        <ele>152.03</ele>
        <time>2021-08-09T17:21:05Z</time>
      </trkpt>
      <trkpt lat="48.99115" lon="4.51905">
        <ele>152.03</ele>
        <time>2021-08-09T17:21:06Z</time>
      </trkpt>
      <trkpt lat="48.99114" lon="4.51905">
        <ele>152.03</ele>
        <time>2021-08-09T17:21:07Z</time>
      </trkpt>
      <trkpt lat="48.99113" lon="4.51905">
        <ele>152.03</ele>
        <time>2021-08-09T17:21:08Z</time>
      </trkpt>
      <trkpt lat="48.99108" lon="4.51906">
        <ele>152.03</ele>
        <time>2021-08-09T17:21:14Z</time>
      </trkpt>
      <trkpt lat="48.99107" lon="4.51905">
        <ele>152.03</ele>
        <time>2021-08-09T17:21:15Z</time>
      </trkpt>
      <trkpt lat="48.99106" lon="4.51905">
        <ele>152.03</ele>
        <time>2021-08-09T17:21:16Z</time>
      </trkpt>
      <trkpt lat="48.99104" lon="4.51905">
        <ele>152.03</ele>
        <time>2021-08-09T17:21:17Z</time>
      </trkpt>
      <trkpt lat="48.99103" lon="4.51906">
        <ele>152.03</ele>
        <time>2021-08-09T17:21:18Z</time>
      </trkpt>
      <trkpt lat="48.99103" lon="4.51907">
        <ele>152.03</ele>
        <time>2021-08-09T17:21:19Z</time>
      </trkpt>
      <trkpt lat="48.99103" lon="4.51909">
        <ele>152.03</ele>
        <time>2021-08-09T17:21:20Z</time>
      </trkpt>
      <trkpt lat="48.99104" lon="4.51911">
        <ele>152.03</ele>
        <time>2021-08-09T17:21:21Z</time>
      </trkpt>
      <trkpt lat="48.99105" lon="4.51912">
        <ele>152.03</ele>
        <time>2021-08-09T17:21:22Z</time>
      </trkpt>
      <trkpt lat="48.99107" lon="4.51913">
        <ele>152.03</ele>
        <time>2021-08-09T17:21:23Z</time>
      </trkpt>
      <trkpt lat="48.99108" lon="4.51914">
        <ele>152.03</ele>
        <time>2021-08-09T17:21:24Z</time>
      </trkpt>
      <trkpt lat="48.9911" lon="4.51914">
        <ele>152.03</ele>
        <time>2021-08-09T17:21:25Z</time>
      </trkpt>
      <trkpt lat="48.99112" lon="4.51914">
        <ele>152.03</ele>
        <time>2021-08-09T17:21:26Z</time>
      </trkpt>
      <trkpt lat="48.99113" lon="4.51913">
        <ele>152.03</ele>
        <time>2021-08-09T17:21:27Z</time>
      </trkpt>
      <trkpt lat="48.99115" lon="4.51913">
        <ele>152.03</ele>
        <time>2021-08-09T17:21:28Z</time>
      </trkpt>
      <trkpt lat="48.99117" lon="4.5191">
        <ele>152.03</ele>
        <time>2021-08-09T17:21:30Z</time>
      </trkpt>
      <trkpt lat="48.99112" lon="4.51906">
        <ele>152.03</ele>
        <time>2021-08-09T17:21:34Z</time>
      </trkpt>
      <trkpt lat="48.99109" lon="4.51905">
        <ele>152.03</ele>
        <time>2021-08-09T17:21:35Z</time>
      </trkpt>
      <trkpt lat="48.99094" lon="4.51905">
        <ele>152.03</ele>
        <time>2021-08-09T17:21:42Z</time>
      </trkpt>
      <trkpt lat="48.99081" lon="4.51904">
        <ele>152.03</ele>
        <time>2021-08-09T17:21:47Z</time>
      </trkpt>
      <trkpt lat="48.99061" lon="4.51903">
        <ele>152.03</ele>
        <time>2021-08-09T17:21:53Z</time>
      </trkpt>
      <trkpt lat="48.99032" lon="4.51901">
        <ele>152.03</ele>
        <time>2021-08-09T17:22:01Z</time>
      </trkpt>
      <trkpt lat="48.99014" lon="4.51899">
        <ele>150.58</ele>
        <time>2021-08-09T17:22:05Z</time>
      </trkpt>
      <trkpt lat="48.99006" lon="4.51897">
        <ele>150.58</ele>
        <time>2021-08-09T17:22:07Z</time>
      </trkpt>
      <trkpt lat="48.98989" lon="4.51895">
        <ele>150.58</ele>
        <time>2021-08-09T17:22:11Z</time>
      </trkpt>
      <trkpt lat="48.98952" lon="4.51892">
        <ele>149.14</ele>
        <time>2021-08-09T17:22:20Z</time>
      </trkpt>
      <trkpt lat="48.98948" lon="4.51891">
        <ele>149.14</ele>
        <time>2021-08-09T17:22:21Z</time>
      </trkpt>
      <trkpt lat="48.98944" lon="4.51891">
        <ele>149.14</ele>
        <time>2021-08-09T17:22:22Z</time>
      </trkpt>
      <trkpt lat="48.98902" lon="4.51887">
        <ele>148.18</ele>
        <time>2021-08-09T17:22:31Z</time>
      </trkpt>
      <trkpt lat="48.98864" lon="4.51885">
        <ele>147.7</ele>
        <time>2021-08-09T17:22:38Z</time>
      </trkpt>
      <trkpt lat="48.98833" lon="4.51882">
        <ele>146.74</ele>
        <time>2021-08-09T17:22:43Z</time>
      </trkpt>
      <trkpt lat="48.98827" lon="4.51883">
        <ele>146.74</ele>
        <time>2021-08-09T17:22:44Z</time>
      </trkpt>
      <trkpt lat="48.98761" lon="4.51885">
        <ele>145.3</ele>
        <time>2021-08-09T17:22:54Z</time>
      </trkpt>
      <trkpt lat="48.98751" lon="4.51884">
        <ele>145.3</ele>
        <time>2021-08-09T17:22:56Z</time>
      </trkpt>
      <trkpt lat="48.98747" lon="4.5188">
        <ele>145.3</ele>
        <time>2021-08-09T17:22:57Z</time>
      </trkpt>
      <trkpt lat="48.98744" lon="4.51875">
        <ele>145.3</ele>
        <time>2021-08-09T17:22:58Z</time>
      </trkpt>
      <trkpt lat="48.98742" lon="4.51869">
        <ele>144.82</ele>
        <time>2021-08-09T17:22:59Z</time>
      </trkpt>
      <trkpt lat="48.9874" lon="4.51862">
        <ele>144.82</ele>
        <time>2021-08-09T17:23:00Z</time>
      </trkpt>
      <trkpt lat="48.98721" lon="4.51795">
        <ele>143.85</ele>
        <time>2021-08-09T17:23:09Z</time>
      </trkpt>
      <trkpt lat="48.98701" lon="4.51729">
        <ele>143.37</ele>
        <time>2021-08-09T17:23:18Z</time>
      </trkpt>
      <trkpt lat="48.98695" lon="4.5171">
        <ele>143.37</ele>
        <time>2021-08-09T17:23:23Z</time>
      </trkpt>
      <trkpt lat="48.98693" lon="4.51711">
        <ele>143.37</ele>
        <time>2021-08-09T17:23:24Z</time>
      </trkpt>
      <trkpt lat="48.98693" lon="4.51713">
        <ele>143.37</ele>
        <time>2021-08-09T17:23:25Z</time>
      </trkpt>
      <trkpt lat="48.98701" lon="4.51735">
        <ele>143.37</ele>
        <time>2021-08-09T17:23:33Z</time>
      </trkpt>
      <trkpt lat="48.98704" lon="4.51738">
        <ele>144.82</ele>
        <time>2021-08-09T17:23:38Z</time>
      </trkpt>
      <trkpt lat="48.98705" lon="4.51736">
        <ele>144.82</ele>
        <time>2021-08-09T17:23:46Z</time>
      </trkpt>
      <trkpt lat="48.98704" lon="4.51736">
        <ele>144.82</ele>
        <time>2021-08-09T17:24:05Z</time>
      </trkpt>
      <trkpt lat="48.98705" lon="4.51736">
        <ele>144.82</ele>
        <time>2021-08-09T17:24:23Z</time>
      </trkpt>
      <trkpt lat="48.98705" lon="4.51736">
        <ele>144.82</ele>
        <time>2021-08-09T17:24:42Z</time>
      </trkpt>
      <trkpt lat="48.98704" lon="4.51739">
        <ele>144.82</ele>
        <time>2021-08-09T17:25:02Z</time>
      </trkpt>
      <trkpt lat="48.98705" lon="4.5174">
        <ele>144.82</ele>
        <time>2021-08-09T17:25:21Z</time>
      </trkpt>
      <trkpt lat="48.98707" lon="4.51738">
        <ele>144.82</ele>
        <time>2021-08-09T17:25:34Z</time>
      </trkpt>
      <trkpt lat="48.98708" lon="4.51736">
        <ele>144.82</ele>
        <time>2021-08-09T17:25:50Z</time>
      </trkpt>
      <trkpt lat="48.98709" lon="4.51734">
        <ele>144.82</ele>
        <time>2021-08-09T17:26:10Z</time>
      </trkpt>
      <trkpt lat="48.98709" lon="4.51734">
        <ele>144.82</ele>
        <time>2021-08-09T17:26:19Z</time>
      </trkpt>
      <trkpt lat="48.98709" lon="4.51734">
        <ele>144.82</ele>
        <time>2021-08-09T17:26:35Z</time>
      </trkpt>
      <trkpt lat="48.98707" lon="4.51735">
        <ele>144.82</ele>
        <time>2021-08-09T17:26:45Z</time>
      </trkpt>
      <trkpt lat="48.98706" lon="4.51733">
        <ele>144.82</ele>
        <time>2021-08-09T17:26:56Z</time>
      </trkpt>
      <trkpt lat="48.98706" lon="4.51735">
        <ele>144.82</ele>
        <time>2021-08-09T17:27:14Z</time>
      </trkpt>
      <trkpt lat="48.98705" lon="4.51737">
        <ele>144.82</ele>
        <time>2021-08-09T17:27:25Z</time>
      </trkpt>
      <trkpt lat="48.98706" lon="4.51737">
        <ele>144.82</ele>
        <time>2021-08-09T17:27:31Z</time>
      </trkpt>
      <trkpt lat="48.98706" lon="4.51737">
        <ele>144.82</ele>
        <time>2021-08-09T17:27:44Z</time>
      </trkpt>
      <trkpt lat="48.98706" lon="4.51737">
        <ele>144.82</ele>
        <time>2021-08-09T17:28:10Z</time>
      </trkpt>
      <trkpt lat="48.98706" lon="4.51739">
        <ele>144.82</ele>
        <time>2021-08-09T17:28:31Z</time>
      </trkpt>
      <trkpt lat="48.98706" lon="4.51738">
        <ele>144.82</ele>
        <time>2021-08-09T17:28:45Z</time>
      </trkpt>
      <trkpt lat="48.98706" lon="4.51738">
        <ele>144.82</ele>
        <time>2021-08-09T17:28:59Z</time>
      </trkpt>
      <trkpt lat="48.98706" lon="4.5174">
        <ele>144.82</ele>
        <time>2021-08-09T17:29:20Z</time>
      </trkpt>
      <trkpt lat="48.98706" lon="4.51741">
        <ele>144.82</ele>
        <time>2021-08-09T17:29:42Z</time>
      </trkpt>
      <trkpt lat="48.98706" lon="4.51741">
        <ele>144.82</ele>
        <time>2021-08-09T17:29:58Z</time>
      </trkpt>
      <trkpt lat="48.98705" lon="4.5174">
        <ele>144.82</ele>
        <time>2021-08-09T17:30:18Z</time>
      </trkpt>
      <trkpt lat="48.98706" lon="4.51739">
        <ele>144.82</ele>
        <time>2021-08-09T17:30:34Z</time>
      </trkpt>
      <trkpt lat="48.98707" lon="4.51737">
        <ele>144.82</ele>
        <time>2021-08-09T17:30:54Z</time>
      </trkpt>
      <trkpt lat="48.98707" lon="4.51737">
        <ele>144.82</ele>
        <time>2021-08-09T17:31:14Z</time>
      </trkpt>
      <trkpt lat="48.98706" lon="4.51738">
        <ele>144.82</ele>
        <time>2021-08-09T17:31:29Z</time>
      </trkpt>
      <trkpt lat="48.98707" lon="4.51737">
        <ele>144.82</ele>
        <time>2021-08-09T17:31:45Z</time>
      </trkpt>
      <trkpt lat="48.98706" lon="4.51738">
        <ele>144.82</ele>
        <time>2021-08-09T17:32:02Z</time>
      </trkpt>
      <trkpt lat="48.98706" lon="4.5174">
        <ele>144.82</ele>
        <time>2021-08-09T17:32:03Z</time>
      </trkpt>
      <trkpt lat="48.98705" lon="4.51742">
        <ele>145.3</ele>
        <time>2021-08-09T17:32:08Z</time>
      </trkpt>
      <trkpt lat="48.98703" lon="4.51745">
        <ele>145.3</ele>
        <time>2021-08-09T17:32:09Z</time>
      </trkpt>
      <trkpt lat="48.98704" lon="4.51743">
        <ele>145.3</ele>
        <time>2021-08-09T17:32:13Z</time>
      </trkpt>
      <trkpt lat="48.98707" lon="4.51736">
        <ele>145.3</ele>
        <time>2021-08-09T17:32:40Z</time>
      </trkpt>
      <trkpt lat="48.98706" lon="4.51738">
        <ele>145.3</ele>
        <time>2021-08-09T17:32:55Z</time>
      </trkpt>
      <trkpt lat="48.98706" lon="4.51738">
        <ele>145.3</ele>
        <time>2021-08-09T17:33:11Z</time>
      </trkpt>
      <trkpt lat="48.98705" lon="4.51738">
        <ele>145.3</ele>
        <time>2021-08-09T17:33:34Z</time>
      </trkpt>
      <trkpt lat="48.98706" lon="4.51739">
        <ele>145.78</ele>
        <time>2021-08-09T17:33:47Z</time>
      </trkpt>
      <trkpt lat="48.98706" lon="4.51739">
        <ele>145.78</ele>
        <time>2021-08-09T17:34:01Z</time>
      </trkpt>
      <trkpt lat="48.98705" lon="4.51739">
        <ele>145.78</ele>
        <time>2021-08-09T17:34:19Z</time>
      </trkpt>
      <trkpt lat="48.98705" lon="4.51737">
        <ele>145.78</ele>
        <time>2021-08-09T17:34:42Z</time>
      </trkpt>
      <trkpt lat="48.98706" lon="4.51737">
        <ele>145.78</ele>
        <time>2021-08-09T17:35:02Z</time>
      </trkpt>
      <trkpt lat="48.98705" lon="4.51739">
        <ele>145.78</ele>
        <time>2021-08-09T17:35:22Z</time>
      </trkpt>
      <trkpt lat="48.98705" lon="4.51741">
        <ele>145.78</ele>
        <time>2021-08-09T17:35:37Z</time>
      </trkpt>
      <trkpt lat="48.98705" lon="4.51741">
        <ele>145.78</ele>
        <time>2021-08-09T17:35:56Z</time>
      </trkpt>
      <trkpt lat="48.98705" lon="4.5174">
        <ele>145.78</ele>
        <time>2021-08-09T17:36:18Z</time>
      </trkpt>
      <trkpt lat="48.98705" lon="4.51738">
        <ele>145.78</ele>
        <time>2021-08-09T17:36:34Z</time>
      </trkpt>
      <trkpt lat="48.98704" lon="4.51739">
        <ele>145.78</ele>
        <time>2021-08-09T17:36:38Z</time>
      </trkpt>
      <trkpt lat="48.98705" lon="4.51741">
        <ele>145.78</ele>
        <time>2021-08-09T17:36:43Z</time>
      </trkpt>
      <trkpt lat="48.98707" lon="4.51739">
        <ele>145.78</ele>
        <time>2021-08-09T17:36:56Z</time>
      </trkpt>
      <trkpt lat="48.98707" lon="4.51739">
        <ele>145.78</ele>
        <time>2021-08-09T17:37:11Z</time>
      </trkpt>
      <trkpt lat="48.98707" lon="4.51739">
        <ele>145.78</ele>
        <time>2021-08-09T17:37:27Z</time>
      </trkpt>
      <trkpt lat="48.98708" lon="4.51737">
        <ele>145.78</ele>
        <time>2021-08-09T17:37:40Z</time>
      </trkpt>
      <trkpt lat="48.98708" lon="4.51736">
        <ele>145.78</ele>
        <time>2021-08-09T17:37:53Z</time>
      </trkpt>
      <trkpt lat="48.98709" lon="4.51735">
        <ele>145.78</ele>
        <time>2021-08-09T17:38:12Z</time>
      </trkpt>
      <trkpt lat="48.98709" lon="4.51736">
        <ele>145.78</ele>
        <time>2021-08-09T17:38:30Z</time>
      </trkpt>
      <trkpt lat="48.98709" lon="4.51737">
        <ele>145.78</ele>
        <time>2021-08-09T17:38:44Z</time>
      </trkpt>
      <trkpt lat="48.98709" lon="4.51735">
        <ele>145.78</ele>
        <time>2021-08-09T17:39:08Z</time>
      </trkpt>
      <trkpt lat="48.98709" lon="4.51736">
        <ele>145.78</ele>
        <time>2021-08-09T17:39:25Z</time>
      </trkpt>
      <trkpt lat="48.98708" lon="4.51738">
        <ele>145.78</ele>
        <time>2021-08-09T17:39:38Z</time>
      </trkpt>
      <trkpt lat="48.98708" lon="4.51737">
        <ele>145.78</ele>
        <time>2021-08-09T17:39:49Z</time>
      </trkpt>
      <trkpt lat="48.98707" lon="4.51736">
        <ele>145.78</ele>
        <time>2021-08-09T17:39:59Z</time>
      </trkpt>
      <trkpt lat="48.98706" lon="4.51735">
        <ele>145.78</ele>
        <time>2021-08-09T17:40:01Z</time>
      </trkpt>
      <trkpt lat="48.98704" lon="4.51727">
        <ele>145.78</ele>
        <time>2021-08-09T17:40:05Z</time>
      </trkpt>
      <trkpt lat="48.98703" lon="4.51725">
        <ele>145.78</ele>
        <time>2021-08-09T17:40:10Z</time>
      </trkpt>
      <trkpt lat="48.98703" lon="4.51722">
        <ele>145.78</ele>
        <time>2021-08-09T17:40:26Z</time>
      </trkpt>
      <trkpt lat="48.98702" lon="4.51719">
        <ele>145.78</ele>
        <time>2021-08-09T17:40:38Z</time>
      </trkpt>
      <trkpt lat="48.98701" lon="4.51718">
        <ele>145.78</ele>
        <time>2021-08-09T17:40:50Z</time>
      </trkpt>
      <trkpt lat="48.987" lon="4.51717">
        <ele>145.78</ele>
        <time>2021-08-09T17:41:02Z</time>
      </trkpt>
      <trkpt lat="48.98701" lon="4.51717">
        <ele>145.78</ele>
        <time>2021-08-09T17:41:19Z</time>
      </trkpt>
      <trkpt lat="48.987" lon="4.51719">
        <ele>145.78</ele>
        <time>2021-08-09T17:41:35Z</time>
      </trkpt>
      <trkpt lat="48.98698" lon="4.51718">
        <ele>145.78</ele>
        <time>2021-08-09T17:41:46Z</time>
      </trkpt>
      <trkpt lat="48.98696" lon="4.51718">
        <ele>145.78</ele>
        <time>2021-08-09T17:42:00Z</time>
      </trkpt>
      <trkpt lat="48.98695" lon="4.51719">
        <ele>145.78</ele>
        <time>2021-08-09T17:42:16Z</time>
      </trkpt>
      <trkpt lat="48.98693" lon="4.51722">
        <ele>145.78</ele>
        <time>2021-08-09T17:42:40Z</time>
      </trkpt>
      <trkpt lat="48.98693" lon="4.51724">
        <ele>146.26</ele>
        <time>2021-08-09T17:42:54Z</time>
      </trkpt>
      <trkpt lat="48.98693" lon="4.51725">
        <ele>146.26</ele>
        <time>2021-08-09T17:43:08Z</time>
      </trkpt>
      <trkpt lat="48.98692" lon="4.51727">
        <ele>146.26</ele>
        <time>2021-08-09T17:43:27Z</time>
      </trkpt>
      <trkpt lat="48.98692" lon="4.51727">
        <ele>146.26</ele>
        <time>2021-08-09T17:43:42Z</time>
      </trkpt>
      <trkpt lat="48.98691" lon="4.51726">
        <ele>146.26</ele>
        <time>2021-08-09T17:43:59Z</time>
      </trkpt>
      <trkpt lat="48.98692" lon="4.51727">
        <ele>146.26</ele>
        <time>2021-08-09T17:44:13Z</time>
      </trkpt>
      <trkpt lat="48.98691" lon="4.51728">
        <ele>146.74</ele>
        <time>2021-08-09T17:44:27Z</time>
      </trkpt>
      <trkpt lat="48.98691" lon="4.51728">
        <ele>146.74</ele>
        <time>2021-08-09T17:44:43Z</time>
      </trkpt>
      <trkpt lat="48.98692" lon="4.51726">
        <ele>146.74</ele>
        <time>2021-08-09T17:45:02Z</time>
      </trkpt>
      <trkpt lat="48.98692" lon="4.51723">
        <ele>147.22</ele>
        <time>2021-08-09T17:45:19Z</time>
      </trkpt>
      <trkpt lat="48.98692" lon="4.51722">
        <ele>147.22</ele>
        <time>2021-08-09T17:45:39Z</time>
      </trkpt>
      <trkpt lat="48.98692" lon="4.51721">
        <ele>147.22</ele>
        <time>2021-08-09T17:45:53Z</time>
      </trkpt>
      <trkpt lat="48.98691" lon="4.5172">
        <ele>147.7</ele>
        <time>2021-08-09T17:46:06Z</time>
      </trkpt>
      <trkpt lat="48.98692" lon="4.5172">
        <ele>147.7</ele>
        <time>2021-08-09T17:46:27Z</time>
      </trkpt>
      <trkpt lat="48.98693" lon="4.51721">
        <ele>147.7</ele>
        <time>2021-08-09T17:46:42Z</time>
      </trkpt>
      <trkpt lat="48.98693" lon="4.5172">
        <ele>148.18</ele>
        <time>2021-08-09T17:46:55Z</time>
      </trkpt>
      <trkpt lat="48.98693" lon="4.5172">
        <ele>148.18</ele>
        <time>2021-08-09T17:47:15Z</time>
      </trkpt>
      <trkpt lat="48.98692" lon="4.51719">
        <ele>148.18</ele>
        <time>2021-08-09T17:47:24Z</time>
      </trkpt>
      <trkpt lat="48.98692" lon="4.51721">
        <ele>148.66</ele>
        <time>2021-08-09T17:47:42Z</time>
      </trkpt>
      <trkpt lat="48.98691" lon="4.51723">
        <ele>148.66</ele>
        <time>2021-08-09T17:48:03Z</time>
      </trkpt>
      <trkpt lat="48.98692" lon="4.51724">
        <ele>149.14</ele>
        <time>2021-08-09T17:48:25Z</time>
      </trkpt>
      <trkpt lat="48.98693" lon="4.51725">
        <ele>149.14</ele>
        <time>2021-08-09T17:48:37Z</time>
      </trkpt>
      <trkpt lat="48.98693" lon="4.51725">
        <ele>149.14</ele>
        <time>2021-08-09T17:48:49Z</time>
      </trkpt>
      <trkpt lat="48.98693" lon="4.51726">
        <ele>149.14</ele>
        <time>2021-08-09T17:49:03Z</time>
      </trkpt>
      <trkpt lat="48.98693" lon="4.51726">
        <ele>149.14</ele>
        <time>2021-08-09T17:49:15Z</time>
      </trkpt>
      <trkpt lat="48.98693" lon="4.51726">
        <ele>149.62</ele>
        <time>2021-08-09T17:49:27Z</time>
      </trkpt>
      <trkpt lat="48.98693" lon="4.51727">
        <ele>149.62</ele>
        <time>2021-08-09T17:49:41Z</time>
      </trkpt>
      <trkpt lat="48.98693" lon="4.51727">
        <ele>149.62</ele>
        <time>2021-08-09T17:49:55Z</time>
      </trkpt>
      <trkpt lat="48.98693" lon="4.51727">
        <ele>149.62</ele>
        <time>2021-08-09T17:50:08Z</time>
      </trkpt>
      <trkpt lat="48.98694" lon="4.51728">
        <ele>149.62</ele>
        <time>2021-08-09T17:50:28Z</time>
      </trkpt>
      <trkpt lat="48.98695" lon="4.51729">
        <ele>149.62</ele>
        <time>2021-08-09T17:50:51Z</time>
      </trkpt>
      <trkpt lat="48.98694" lon="4.51731">
        <ele>149.62</ele>
        <time>2021-08-09T17:51:16Z</time>
      </trkpt>
      <trkpt lat="48.98692" lon="4.51736">
        <ele>149.62</ele>
        <time>2021-08-09T17:51:44Z</time>
      </trkpt>
      <trkpt lat="48.98693" lon="4.51742">
        <ele>149.62</ele>
        <time>2021-08-09T17:52:07Z</time>
      </trkpt>
      <trkpt lat="48.98693" lon="4.51742">
        <ele>149.62</ele>
        <time>2021-08-09T17:52:25Z</time>
      </trkpt>
      <trkpt lat="48.98693" lon="4.51739">
        <ele>149.62</ele>
        <time>2021-08-09T17:52:57Z</time>
      </trkpt>
      <trkpt lat="48.98694" lon="4.51739">
        <ele>150.1</ele>
        <time>2021-08-09T17:53:25Z</time>
      </trkpt>
      <trkpt lat="48.98695" lon="4.5174">
        <ele>150.1</ele>
        <time>2021-08-09T17:53:51Z</time>
      </trkpt>
      <trkpt lat="48.98695" lon="4.5174">
        <ele>150.1</ele>
        <time>2021-08-09T17:54:15Z</time>
      </trkpt>
      <trkpt lat="48.98693" lon="4.51744">
        <ele>150.1</ele>
        <time>2021-08-09T17:54:40Z</time>
      </trkpt>
      <trkpt lat="48.98692" lon="4.51741">
        <ele>150.1</ele>
        <time>2021-08-09T17:55:03Z</time>
      </trkpt>
      <trkpt lat="48.98692" lon="4.5174">
        <ele>150.1</ele>
        <time>2021-08-09T17:55:24Z</time>
      </trkpt>
      <trkpt lat="48.98692" lon="4.51738">
        <ele>150.1</ele>
        <time>2021-08-09T17:55:51Z</time>
      </trkpt>
      <trkpt lat="48.98692" lon="4.51738">
        <ele>150.1</ele>
        <time>2021-08-09T17:56:13Z</time>
      </trkpt>
      <trkpt lat="48.98693" lon="4.51735">
        <ele>150.1</ele>
        <time>2021-08-09T17:56:31Z</time>
      </trkpt>
      <trkpt lat="48.98692" lon="4.51734">
        <ele>150.1</ele>
        <time>2021-08-09T17:56:49Z</time>
      </trkpt>
      <trkpt lat="48.9869" lon="4.51736">
        <ele>150.1</ele>
        <time>2021-08-09T17:57:14Z</time>
      </trkpt>
      <trkpt lat="48.98688" lon="4.51739">
        <ele>150.1</ele>
        <time>2021-08-09T17:57:35Z</time>
      </trkpt>
      <trkpt lat="48.98687" lon="4.5174">
        <ele>150.1</ele>
        <time>2021-08-09T17:57:59Z</time>
      </trkpt>
      <trkpt lat="48.98686" lon="4.51739">
        <ele>150.1</ele>
        <time>2021-08-09T17:58:16Z</time>
      </trkpt>
      <trkpt lat="48.98687" lon="4.51736">
        <ele>150.1</ele>
        <time>2021-08-09T17:58:36Z</time>
      </trkpt>
      <trkpt lat="48.98687" lon="4.51737">
        <ele>149.62</ele>
        <time>2021-08-09T17:59:05Z</time>
      </trkpt>
      <trkpt lat="48.98686" lon="4.51739">
        <ele>149.62</ele>
        <time>2021-08-09T17:59:21Z</time>
      </trkpt>
      <trkpt lat="48.98685" lon="4.51741">
        <ele>149.62</ele>
        <time>2021-08-09T17:59:48Z</time>
      </trkpt>
      <trkpt lat="48.98685" lon="4.51743">
        <ele>149.62</ele>
        <time>2021-08-09T18:00:12Z</time>
      </trkpt>
      <trkpt lat="48.98686" lon="4.51746">
        <ele>149.14</ele>
        <time>2021-08-09T18:00:37Z</time>
      </trkpt>
      <trkpt lat="48.98687" lon="4.51742">
        <ele>149.14</ele>
        <time>2021-08-09T18:01:04Z</time>
      </trkpt>
      <trkpt lat="48.98689" lon="4.51739">
        <ele>149.14</ele>
        <time>2021-08-09T18:01:27Z</time>
      </trkpt>
      <trkpt lat="48.9869" lon="4.51738">
        <ele>149.14</ele>
        <time>2021-08-09T18:01:47Z</time>
      </trkpt>
      <trkpt lat="48.98691" lon="4.51738">
        <ele>149.14</ele>
        <time>2021-08-09T18:01:59Z</time>
      </trkpt>
      <trkpt lat="48.98691" lon="4.51737">
        <ele>149.14</ele>
        <time>2021-08-09T18:02:17Z</time>
      </trkpt>
      <trkpt lat="48.9869" lon="4.51738">
        <ele>148.66</ele>
        <time>2021-08-09T18:02:37Z</time>
      </trkpt>
      <trkpt lat="48.98691" lon="4.51737">
        <ele>148.66</ele>
        <time>2021-08-09T18:02:58Z</time>
      </trkpt>
      <trkpt lat="48.98693" lon="4.51735">
        <ele>148.66</ele>
        <time>2021-08-09T18:03:18Z</time>
      </trkpt>
      <trkpt lat="48.98693" lon="4.51735">
        <ele>148.66</ele>
        <time>2021-08-09T18:03:41Z</time>
      </trkpt>
      <trkpt lat="48.98695" lon="4.51734">
        <ele>148.66</ele>
        <time>2021-08-09T18:03:57Z</time>
      </trkpt>
      <trkpt lat="48.98695" lon="4.51736">
        <ele>148.18</ele>
        <time>2021-08-09T18:04:14Z</time>
      </trkpt>
      <trkpt lat="48.98695" lon="4.51738">
        <ele>148.18</ele>
        <time>2021-08-09T18:04:35Z</time>
      </trkpt>
      <trkpt lat="48.98693" lon="4.51738">
        <ele>148.18</ele>
        <time>2021-08-09T18:04:57Z</time>
      </trkpt>
      <trkpt lat="48.98694" lon="4.51735">
        <ele>148.18</ele>
        <time>2021-08-09T18:05:09Z</time>
      </trkpt>
      <trkpt lat="48.98695" lon="4.51734">
        <ele>147.7</ele>
        <time>2021-08-09T18:05:24Z</time>
      </trkpt>
      <trkpt lat="48.98694" lon="4.51735">
        <ele>147.7</ele>
        <time>2021-08-09T18:05:45Z</time>
      </trkpt>
      <trkpt lat="48.98695" lon="4.51734">
        <ele>147.7</ele>
        <time>2021-08-09T18:06:03Z</time>
      </trkpt>
      <trkpt lat="48.98692" lon="4.51739">
        <ele>147.7</ele>
        <time>2021-08-09T18:06:26Z</time>
      </trkpt>
      <trkpt lat="48.9869" lon="4.51743">
        <ele>147.7</ele>
        <time>2021-08-09T18:06:49Z</time>
      </trkpt>
      <trkpt lat="48.98689" lon="4.51743">
        <ele>147.22</ele>
        <time>2021-08-09T18:07:07Z</time>
      </trkpt>
      <trkpt lat="48.98689" lon="4.51743">
        <ele>147.22</ele>
        <time>2021-08-09T18:07:27Z</time>
      </trkpt>
      <trkpt lat="48.9869" lon="4.51743">
        <ele>147.22</ele>
        <time>2021-08-09T18:07:48Z</time>
      </trkpt>
      <trkpt lat="48.98692" lon="4.51742">
        <ele>147.22</ele>
        <time>2021-08-09T18:08:10Z</time>
      </trkpt>
      <trkpt lat="48.98693" lon="4.5174">
        <ele>147.22</ele>
        <time>2021-08-09T18:08:28Z</time>
      </trkpt>
      <trkpt lat="48.98691" lon="4.51743">
        <ele>147.22</ele>
        <time>2021-08-09T18:08:44Z</time>
      </trkpt>
      <trkpt lat="48.98692" lon="4.51742">
        <ele>147.22</ele>
        <time>2021-08-09T18:09:03Z</time>
      </trkpt>
      <trkpt lat="48.98692" lon="4.51741">
        <ele>146.74</ele>
        <time>2021-08-09T18:09:16Z</time>
      </trkpt>
      <trkpt lat="48.98692" lon="4.51739">
        <ele>146.74</ele>
        <time>2021-08-09T18:09:30Z</time>
      </trkpt>
      <trkpt lat="48.98692" lon="4.5174">
        <ele>146.74</ele>
        <time>2021-08-09T18:09:46Z</time>
      </trkpt>
      <trkpt lat="48.98693" lon="4.51738">
        <ele>146.74</ele>
        <time>2021-08-09T18:09:57Z</time>
      </trkpt>
      <trkpt lat="48.98695" lon="4.51733">
        <ele>146.74</ele>
        <time>2021-08-09T18:10:02Z</time>
      </trkpt>
      <trkpt lat="48.98696" lon="4.51729">
        <ele>146.74</ele>
        <time>2021-08-09T18:10:20Z</time>
      </trkpt>
      <trkpt lat="48.98696" lon="4.51727">
        <ele>146.74</ele>
        <time>2021-08-09T18:10:32Z</time>
      </trkpt>
      <trkpt lat="48.98694" lon="4.51726">
        <ele>146.74</ele>
        <time>2021-08-09T18:10:34Z</time>
      </trkpt>
      <trkpt lat="48.98697" lon="4.51732">
        <ele>146.74</ele>
        <time>2021-08-09T18:10:39Z</time>
      </trkpt>
      <trkpt lat="48.98699" lon="4.51736">
        <ele>146.74</ele>
        <time>2021-08-09T18:10:41Z</time>
      </trkpt>
      <trkpt lat="48.98704" lon="4.51742">
        <ele>146.74</ele>
        <time>2021-08-09T18:10:50Z</time>
      </trkpt>
      <trkpt lat="48.98705" lon="4.51741">
        <ele>146.74</ele>
        <time>2021-08-09T18:11:03Z</time>
      </trkpt>
      <trkpt lat="48.98705" lon="4.51739">
        <ele>146.74</ele>
        <time>2021-08-09T18:11:17Z</time>
      </trkpt>
      <trkpt lat="48.98706" lon="4.51738">
        <ele>146.74</ele>
        <time>2021-08-09T18:11:26Z</time>
      </trkpt>
      <trkpt lat="48.98706" lon="4.51738">
        <ele>146.74</ele>
        <time>2021-08-09T18:11:45Z</time>
      </trkpt>
      <trkpt lat="48.98706" lon="4.51739">
        <ele>146.74</ele>
        <time>2021-08-09T18:12:08Z</time>
      </trkpt>
      <trkpt lat="48.98706" lon="4.5174">
        <ele>146.74</ele>
        <time>2021-08-09T18:12:19Z</time>
      </trkpt>
      <trkpt lat="48.98702" lon="4.51736">
        <ele>146.74</ele>
        <time>2021-08-09T18:12:24Z</time>
      </trkpt>
      <trkpt lat="48.98702" lon="4.51734">
        <ele>146.26</ele>
        <time>2021-08-09T18:12:25Z</time>
      </trkpt>
      <trkpt lat="48.98695" lon="4.51706">
        <ele>146.26</ele>
        <time>2021-08-09T18:12:32Z</time>
      </trkpt>
      <trkpt lat="48.98684" lon="4.51668">
        <ele>145.3</ele>
        <time>2021-08-09T18:12:38Z</time>
      </trkpt>
      <trkpt lat="48.98674" lon="4.51643">
        <ele>145.3</ele>
        <time>2021-08-09T18:12:42Z</time>
      </trkpt>
      <trkpt lat="48.98673" lon="4.51637">
        <ele>145.3</ele>
        <time>2021-08-09T18:12:43Z</time>
      </trkpt>
      <trkpt lat="48.98673" lon="4.51631">
        <ele>145.3</ele>
        <time>2021-08-09T18:12:44Z</time>
      </trkpt>
      <trkpt lat="48.98673" lon="4.51624">
        <ele>145.3</ele>
        <time>2021-08-09T18:12:45Z</time>
      </trkpt>
      <trkpt lat="48.98674" lon="4.51618">
        <ele>145.3</ele>
        <time>2021-08-09T18:12:46Z</time>
      </trkpt>
      <trkpt lat="48.98674" lon="4.51613">
        <ele>145.3</ele>
        <time>2021-08-09T18:12:47Z</time>
      </trkpt>
      <trkpt lat="48.98676" lon="4.516">
        <ele>146.26</ele>
        <time>2021-08-09T18:12:52Z</time>
      </trkpt>
      <trkpt lat="48.98674" lon="4.51601">
        <ele>146.26</ele>
        <time>2021-08-09T18:12:58Z</time>
      </trkpt>
      <trkpt lat="48.98673" lon="4.51602">
        <ele>146.26</ele>
        <time>2021-08-09T18:12:59Z</time>
      </trkpt>
      <trkpt lat="48.98672" lon="4.51603">
        <ele>146.26</ele>
        <time>2021-08-09T18:13:00Z</time>
      </trkpt>
      <trkpt lat="48.9867" lon="4.51605">
        <ele>146.26</ele>
        <time>2021-08-09T18:13:01Z</time>
      </trkpt>
      <trkpt lat="48.98669" lon="4.51606">
        <ele>146.26</ele>
        <time>2021-08-09T18:13:02Z</time>
      </trkpt>
      <trkpt lat="48.98667" lon="4.51604">
        <ele>146.26</ele>
        <time>2021-08-09T18:13:03Z</time>
      </trkpt>
      <trkpt lat="48.98666" lon="4.51602">
        <ele>146.26</ele>
        <time>2021-08-09T18:13:04Z</time>
      </trkpt>
      <trkpt lat="48.98665" lon="4.51599">
        <ele>146.26</ele>
        <time>2021-08-09T18:13:05Z</time>
      </trkpt>
      <trkpt lat="48.98664" lon="4.51596">
        <ele>146.26</ele>
        <time>2021-08-09T18:13:06Z</time>
      </trkpt>
      <trkpt lat="48.98659" lon="4.51588">
        <ele>146.26</ele>
        <time>2021-08-09T18:13:11Z</time>
      </trkpt>
      <trkpt lat="48.98657" lon="4.51588">
        <ele>146.26</ele>
        <time>2021-08-09T18:13:12Z</time>
      </trkpt>
      <trkpt lat="48.98647" lon="4.51594">
        <ele>146.26</ele>
        <time>2021-08-09T18:13:18Z</time>
      </trkpt>
      <trkpt lat="48.98645" lon="4.51592">
        <ele>146.26</ele>
        <time>2021-08-09T18:13:19Z</time>
      </trkpt>
      <trkpt lat="48.98644" lon="4.5159">
        <ele>146.26</ele>
        <time>2021-08-09T18:13:20Z</time>
      </trkpt>
      <trkpt lat="48.98643" lon="4.51587">
        <ele>146.26</ele>
        <time>2021-08-09T18:13:21Z</time>
      </trkpt>
      <trkpt lat="48.98642" lon="4.51584">
        <ele>146.26</ele>
        <time>2021-08-09T18:13:22Z</time>
      </trkpt>
      <trkpt lat="48.98641" lon="4.51581">
        <ele>146.26</ele>
        <time>2021-08-09T18:13:23Z</time>
      </trkpt>
      <trkpt lat="48.9863" lon="4.51556">
        <ele>146.26</ele>
        <time>2021-08-09T18:13:29Z</time>
      </trkpt>
      <trkpt lat="48.98631" lon="4.51549">
        <ele>146.26</ele>
        <time>2021-08-09T18:13:31Z</time>
      </trkpt>
      <trkpt lat="48.98641" lon="4.51542">
        <ele>146.26</ele>
        <time>2021-08-09T18:13:35Z</time>
      </trkpt>
      <trkpt lat="48.98643" lon="4.51545">
        <ele>146.26</ele>
        <time>2021-08-09T18:13:36Z</time>
      </trkpt>
      <trkpt lat="48.98644" lon="4.51548">
        <ele>146.26</ele>
        <time>2021-08-09T18:13:37Z</time>
      </trkpt>
      <trkpt lat="48.98651" lon="4.51562">
        <ele>146.26</ele>
        <time>2021-08-09T18:13:44Z</time>
      </trkpt>
      <trkpt lat="48.98653" lon="4.51564">
        <ele>146.26</ele>
        <time>2021-08-09T18:13:49Z</time>
      </trkpt>
      <trkpt lat="48.98654" lon="4.51562">
        <ele>146.26</ele>
        <time>2021-08-09T18:13:56Z</time>
      </trkpt>
      <trkpt lat="48.98654" lon="4.51563">
        <ele>146.26</ele>
        <time>2021-08-09T18:14:15Z</time>
      </trkpt>
      <trkpt lat="48.98655" lon="4.51563">
        <ele>146.26</ele>
        <time>2021-08-09T18:14:37Z</time>
      </trkpt>
      <trkpt lat="48.98654" lon="4.51567">
        <ele>146.26</ele>
        <time>2021-08-09T18:14:58Z</time>
      </trkpt>
      <trkpt lat="48.98654" lon="4.51569">
        <ele>146.26</ele>
        <time>2021-08-09T18:15:11Z</time>
      </trkpt>
      <trkpt lat="48.98655" lon="4.51565">
        <ele>146.26</ele>
        <time>2021-08-09T18:15:33Z</time>
      </trkpt>
      <trkpt lat="48.98654" lon="4.51564">
        <ele>146.26</ele>
        <time>2021-08-09T18:15:50Z</time>
      </trkpt>
      <trkpt lat="48.98654" lon="4.51563">
        <ele>145.78</ele>
        <time>2021-08-09T18:16:06Z</time>
      </trkpt>
      <trkpt lat="48.98653" lon="4.51562">
        <ele>145.78</ele>
        <time>2021-08-09T18:16:12Z</time>
      </trkpt>
      <trkpt lat="48.98653" lon="4.51563">
        <ele>145.78</ele>
        <time>2021-08-09T18:16:23Z</time>
      </trkpt>
      <trkpt lat="48.98653" lon="4.51562">
        <ele>145.78</ele>
        <time>2021-08-09T18:16:42Z</time>
      </trkpt>
      <trkpt lat="48.98654" lon="4.51562">
        <ele>145.78</ele>
        <time>2021-08-09T18:17:09Z</time>
      </trkpt>
      <trkpt lat="48.98654" lon="4.51564">
        <ele>145.78</ele>
        <time>2021-08-09T18:17:26Z</time>
      </trkpt>
      <trkpt lat="48.98652" lon="4.51567">
        <ele>145.78</ele>
        <time>2021-08-09T18:17:54Z</time>
      </trkpt>
      <trkpt lat="48.98653" lon="4.51566">
        <ele>145.78</ele>
        <time>2021-08-09T18:18:13Z</time>
      </trkpt>
      <trkpt lat="48.98654" lon="4.51566">
        <ele>145.3</ele>
        <time>2021-08-09T18:18:23Z</time>
      </trkpt>
      <trkpt lat="48.98654" lon="4.51566">
        <ele>145.3</ele>
        <time>2021-08-09T18:18:41Z</time>
      </trkpt>
      <trkpt lat="48.98654" lon="4.51562">
        <ele>145.3</ele>
        <time>2021-08-09T18:18:56Z</time>
      </trkpt>
      <trkpt lat="48.98654" lon="4.51564">
        <ele>145.3</ele>
        <time>2021-08-09T18:19:19Z</time>
      </trkpt>
      <trkpt lat="48.98653" lon="4.51564">
        <ele>145.3</ele>
        <time>2021-08-09T18:19:39Z</time>
      </trkpt>
      <trkpt lat="48.98654" lon="4.51564">
        <ele>145.3</ele>
        <time>2021-08-09T18:19:58Z</time>
      </trkpt>
      <trkpt lat="48.98654" lon="4.51566">
        <ele>145.3</ele>
        <time>2021-08-09T18:20:12Z</time>
      </trkpt>
      <trkpt lat="48.98654" lon="4.51565">
        <ele>145.3</ele>
        <time>2021-08-09T18:20:32Z</time>
      </trkpt>
      <trkpt lat="48.98654" lon="4.51565">
        <ele>145.3</ele>
        <time>2021-08-09T18:20:53Z</time>
      </trkpt>
      <trkpt lat="48.98653" lon="4.51565">
        <ele>145.3</ele>
        <time>2021-08-09T18:21:07Z</time>
      </trkpt>
      <trkpt lat="48.98652" lon="4.51566">
        <ele>145.3</ele>
        <time>2021-08-09T18:21:11Z</time>
      </trkpt>
      <trkpt lat="48.98651" lon="4.51565">
        <ele>145.3</ele>
        <time>2021-08-09T18:21:16Z</time>
      </trkpt>
      <trkpt lat="48.98654" lon="4.51566">
        <ele>145.3</ele>
        <time>2021-08-09T18:21:37Z</time>
      </trkpt>
      <trkpt lat="48.98654" lon="4.51568">
        <ele>145.3</ele>
        <time>2021-08-09T18:21:56Z</time>
      </trkpt>
      <trkpt lat="48.98653" lon="4.51564">
        <ele>145.3</ele>
        <time>2021-08-09T18:22:12Z</time>
      </trkpt>
      <trkpt lat="48.98653" lon="4.51565">
        <ele>145.3</ele>
        <time>2021-08-09T18:22:29Z</time>
      </trkpt>
      <trkpt lat="48.98655" lon="4.51567">
        <ele>144.82</ele>
        <time>2021-08-09T18:22:49Z</time>
      </trkpt>
      <trkpt lat="48.98653" lon="4.51566">
        <ele>144.82</ele>
        <time>2021-08-09T18:23:09Z</time>
      </trkpt>
      <trkpt lat="48.98653" lon="4.51567">
        <ele>144.82</ele>
        <time>2021-08-09T18:23:28Z</time>
      </trkpt>
      <trkpt lat="48.98655" lon="4.51563">
        <ele>144.82</ele>
        <time>2021-08-09T18:23:52Z</time>
      </trkpt>
      <trkpt lat="48.98655" lon="4.51566">
        <ele>144.82</ele>
        <time>2021-08-09T18:24:14Z</time>
      </trkpt>
      <trkpt lat="48.98655" lon="4.51565">
        <ele>144.82</ele>
        <time>2021-08-09T18:24:29Z</time>
      </trkpt>
      <trkpt lat="48.98655" lon="4.51563">
        <ele>144.82</ele>
        <time>2021-08-09T18:24:52Z</time>
      </trkpt>
      <trkpt lat="48.98654" lon="4.51564">
        <ele>144.82</ele>
        <time>2021-08-09T18:25:08Z</time>
      </trkpt>
      <trkpt lat="48.98654" lon="4.51565">
        <ele>143.37</ele>
        <time>2021-08-09T18:25:33Z</time>
      </trkpt>
      <trkpt lat="48.98655" lon="4.51565">
        <ele>143.37</ele>
        <time>2021-08-09T18:25:48Z</time>
      </trkpt>
      <trkpt lat="48.98657" lon="4.51564">
        <ele>143.37</ele>
        <time>2021-08-09T18:26:03Z</time>
      </trkpt>
      <trkpt lat="48.98657" lon="4.51563">
        <ele>143.37</ele>
        <time>2021-08-09T18:26:09Z</time>
      </trkpt>
      <trkpt lat="48.98657" lon="4.51564">
        <ele>143.37</ele>
        <time>2021-08-09T18:26:16Z</time>
      </trkpt>
      <trkpt lat="48.98657" lon="4.51566">
        <ele>143.37</ele>
        <time>2021-08-09T18:26:34Z</time>
      </trkpt>
      <trkpt lat="48.98657" lon="4.51564">
        <ele>143.37</ele>
        <time>2021-08-09T18:26:52Z</time>
      </trkpt>
      <trkpt lat="48.98657" lon="4.51562">
        <ele>143.37</ele>
        <time>2021-08-09T18:27:11Z</time>
      </trkpt>
      <trkpt lat="48.98657" lon="4.51561">
        <ele>143.37</ele>
        <time>2021-08-09T18:27:28Z</time>
      </trkpt>
      <trkpt lat="48.98656" lon="4.51561">
        <ele>143.37</ele>
        <time>2021-08-09T18:27:49Z</time>
      </trkpt>
      <trkpt lat="48.98658" lon="4.51565">
        <ele>143.37</ele>
        <time>2021-08-09T18:28:09Z</time>
      </trkpt>
      <trkpt lat="48.98656" lon="4.51565">
        <ele>143.37</ele>
        <time>2021-08-09T18:28:26Z</time>
      </trkpt>
      <trkpt lat="48.98657" lon="4.51566">
        <ele>143.37</ele>
        <time>2021-08-09T18:28:40Z</time>
      </trkpt>
      <trkpt lat="48.98656" lon="4.51565">
        <ele>142.89</ele>
        <time>2021-08-09T18:29:01Z</time>
      </trkpt>
      <trkpt lat="48.98655" lon="4.51565">
        <ele>142.89</ele>
        <time>2021-08-09T18:29:20Z</time>
      </trkpt>
      <trkpt lat="48.98653" lon="4.51564">
        <ele>142.89</ele>
        <time>2021-08-09T18:29:35Z</time>
      </trkpt>
      <trkpt lat="48.98652" lon="4.51565">
        <ele>142.89</ele>
        <time>2021-08-09T18:30:00Z</time>
      </trkpt>
      <trkpt lat="48.98653" lon="4.51565">
        <ele>142.89</ele>
        <time>2021-08-09T18:30:20Z</time>
      </trkpt>
      <trkpt lat="48.98652" lon="4.51564">
        <ele>142.89</ele>
        <time>2021-08-09T18:30:41Z</time>
      </trkpt>
      <trkpt lat="48.98654" lon="4.51566">
        <ele>142.89</ele>
        <time>2021-08-09T18:30:58Z</time>
      </trkpt>
      <trkpt lat="48.98657" lon="4.51566">
        <ele>142.89</ele>
        <time>2021-08-09T18:31:14Z</time>
      </trkpt>
      <trkpt lat="48.98658" lon="4.51564">
        <ele>142.89</ele>
        <time>2021-08-09T18:31:30Z</time>
      </trkpt>
      <trkpt lat="48.98656" lon="4.51564">
        <ele>142.89</ele>
        <time>2021-08-09T18:31:48Z</time>
      </trkpt>
      <trkpt lat="48.98655" lon="4.51565">
        <ele>142.89</ele>
        <time>2021-08-09T18:32:07Z</time>
      </trkpt>
      <trkpt lat="48.98654" lon="4.51566">
        <ele>142.41</ele>
        <time>2021-08-09T18:32:29Z</time>
      </trkpt>
      <trkpt lat="48.98654" lon="4.51568">
        <ele>142.41</ele>
        <time>2021-08-09T18:32:50Z</time>
      </trkpt>
      <trkpt lat="48.98652" lon="4.51569">
        <ele>142.41</ele>
        <time>2021-08-09T18:33:12Z</time>
      </trkpt>
      <trkpt lat="48.98654" lon="4.51565">
        <ele>141.93</ele>
        <time>2021-08-09T18:33:35Z</time>
      </trkpt>
      <trkpt lat="48.98655" lon="4.51565">
        <ele>141.93</ele>
        <time>2021-08-09T18:33:50Z</time>
      </trkpt>
      <trkpt lat="48.98654" lon="4.51568">
        <ele>141.93</ele>
        <time>2021-08-09T18:34:12Z</time>
      </trkpt>
      <trkpt lat="48.98653" lon="4.51568">
        <ele>141.93</ele>
        <time>2021-08-09T18:34:28Z</time>
      </trkpt>
      <trkpt lat="48.98651" lon="4.51566">
        <ele>141.93</ele>
        <time>2021-08-09T18:34:47Z</time>
      </trkpt>
      <trkpt lat="48.98653" lon="4.51565">
        <ele>141.93</ele>
        <time>2021-08-09T18:34:57Z</time>
      </trkpt>
      <trkpt lat="48.98656" lon="4.51564">
        <ele>141.93</ele>
        <time>2021-08-09T18:35:16Z</time>
      </trkpt>
      <trkpt lat="48.98656" lon="4.51567">
        <ele>141.93</ele>
        <time>2021-08-09T18:35:23Z</time>
      </trkpt>
      <trkpt lat="48.98657" lon="4.51572">
        <ele>141.93</ele>
        <time>2021-08-09T18:35:26Z</time>
      </trkpt>
      <trkpt lat="48.98657" lon="4.51575">
        <ele>141.93</ele>
        <time>2021-08-09T18:35:27Z</time>
      </trkpt>
      <trkpt lat="48.98658" lon="4.51577">
        <ele>141.93</ele>
        <time>2021-08-09T18:35:28Z</time>
      </trkpt>
      <trkpt lat="48.98658" lon="4.51579">
        <ele>141.93</ele>
        <time>2021-08-09T18:35:29Z</time>
      </trkpt>
      <trkpt lat="48.98659" lon="4.51581">
        <ele>141.93</ele>
        <time>2021-08-09T18:35:30Z</time>
      </trkpt>
      <trkpt lat="48.9866" lon="4.51583">
        <ele>141.93</ele>
        <time>2021-08-09T18:35:31Z</time>
      </trkpt>
      <trkpt lat="48.98662" lon="4.51586">
        <ele>141.93</ele>
        <time>2021-08-09T18:35:32Z</time>
      </trkpt>
      <trkpt lat="48.98663" lon="4.51589">
        <ele>141.93</ele>
        <time>2021-08-09T18:35:33Z</time>
      </trkpt>
      <trkpt lat="48.98664" lon="4.51592">
        <ele>141.93</ele>
        <time>2021-08-09T18:35:34Z</time>
      </trkpt>
      <trkpt lat="48.98666" lon="4.51596">
        <ele>141.93</ele>
        <time>2021-08-09T18:35:35Z</time>
      </trkpt>
      <trkpt lat="48.98674" lon="4.51625">
        <ele>141.93</ele>
        <time>2021-08-09T18:35:43Z</time>
      </trkpt>
      <trkpt lat="48.98676" lon="4.51627">
        <ele>141.93</ele>
        <time>2021-08-09T18:35:44Z</time>
      </trkpt>
      <trkpt lat="48.98679" lon="4.51628">
        <ele>141.93</ele>
        <time>2021-08-09T18:35:45Z</time>
      </trkpt>
      <trkpt lat="48.98682" lon="4.51628">
        <ele>141.93</ele>
        <time>2021-08-09T18:35:46Z</time>
      </trkpt>
      <trkpt lat="48.98684" lon="4.51627">
        <ele>141.93</ele>
        <time>2021-08-09T18:35:47Z</time>
      </trkpt>
      <trkpt lat="48.98707" lon="4.5162">
        <ele>141.93</ele>
        <time>2021-08-09T18:35:53Z</time>
      </trkpt>
      <trkpt lat="48.98711" lon="4.51619">
        <ele>141.93</ele>
        <time>2021-08-09T18:35:54Z</time>
      </trkpt>
      <trkpt lat="48.98745" lon="4.51609">
        <ele>141.93</ele>
        <time>2021-08-09T18:36:02Z</time>
      </trkpt>
      <trkpt lat="48.98762" lon="4.51595">
        <ele>141.93</ele>
        <time>2021-08-09T18:36:07Z</time>
      </trkpt>
      <trkpt lat="48.98763" lon="4.5159">
        <ele>141.93</ele>
        <time>2021-08-09T18:36:08Z</time>
      </trkpt>
      <trkpt lat="48.98763" lon="4.51585">
        <ele>141.93</ele>
        <time>2021-08-09T18:36:09Z</time>
      </trkpt>
      <trkpt lat="48.98763" lon="4.51578">
        <ele>141.93</ele>
        <time>2021-08-09T18:36:10Z</time>
      </trkpt>
      <trkpt lat="48.98763" lon="4.51572">
        <ele>141.93</ele>
        <time>2021-08-09T18:36:11Z</time>
      </trkpt>
      <trkpt lat="48.98762" lon="4.51554">
        <ele>143.37</ele>
        <time>2021-08-09T18:36:14Z</time>
      </trkpt>
      <trkpt lat="48.98757" lon="4.51495">
        <ele>143.37</ele>
        <time>2021-08-09T18:36:23Z</time>
      </trkpt>
      <trkpt lat="48.98757" lon="4.5149">
        <ele>143.37</ele>
        <time>2021-08-09T18:36:24Z</time>
      </trkpt>
      <trkpt lat="48.98757" lon="4.51486">
        <ele>143.37</ele>
        <time>2021-08-09T18:36:25Z</time>
      </trkpt>
      <trkpt lat="48.98757" lon="4.51485">
        <ele>143.37</ele>
        <time>2021-08-09T18:36:30Z</time>
      </trkpt>
      <trkpt lat="48.98756" lon="4.51485">
        <ele>143.37</ele>
        <time>2021-08-09T18:36:33Z</time>
      </trkpt>
      <trkpt lat="48.98755" lon="4.51486">
        <ele>143.37</ele>
        <time>2021-08-09T18:36:40Z</time>
      </trkpt>
      <trkpt lat="48.98755" lon="4.51484">
        <ele>143.37</ele>
        <time>2021-08-09T18:36:43Z</time>
      </trkpt>
      <trkpt lat="48.98755" lon="4.51483">
        <ele>143.37</ele>
        <time>2021-08-09T18:36:44Z</time>
      </trkpt>
      <trkpt lat="48.98753" lon="4.51464">
        <ele>143.37</ele>
        <time>2021-08-09T18:36:49Z</time>
      </trkpt>
      <trkpt lat="48.98751" lon="4.51452">
        <ele>143.37</ele>
        <time>2021-08-09T18:36:51Z</time>
      </trkpt>
      <trkpt lat="48.9875" lon="4.51448">
        <ele>143.37</ele>
        <time>2021-08-09T18:36:52Z</time>
      </trkpt>
      <trkpt lat="48.98736" lon="4.51402">
        <ele>143.37</ele>
        <time>2021-08-09T18:37:00Z</time>
      </trkpt>
      <trkpt lat="48.98715" lon="4.51337">
        <ele>143.85</ele>
        <time>2021-08-09T18:37:11Z</time>
      </trkpt>
      <trkpt lat="48.98701" lon="4.51294">
        <ele>143.85</ele>
        <time>2021-08-09T18:37:18Z</time>
      </trkpt>
      <trkpt lat="48.987" lon="4.51289">
        <ele>143.85</ele>
        <time>2021-08-09T18:37:19Z</time>
      </trkpt>
      <trkpt lat="48.987" lon="4.51285">
        <ele>143.85</ele>
        <time>2021-08-09T18:37:20Z</time>
      </trkpt>
      <trkpt lat="48.987" lon="4.51284">
        <ele>143.85</ele>
        <time>2021-08-09T18:37:25Z</time>
      </trkpt>
      <trkpt lat="48.98701" lon="4.51284">
        <ele>143.85</ele>
        <time>2021-08-09T18:37:36Z</time>
      </trkpt>
      <trkpt lat="48.98699" lon="4.51286">
        <ele>143.85</ele>
        <time>2021-08-09T18:37:57Z</time>
      </trkpt>
      <trkpt lat="48.987" lon="4.51286">
        <ele>143.85</ele>
        <time>2021-08-09T18:38:06Z</time>
      </trkpt>
      <trkpt lat="48.98699" lon="4.51284">
        <ele>143.85</ele>
        <time>2021-08-09T18:38:14Z</time>
      </trkpt>
      <trkpt lat="48.98691" lon="4.51263">
        <ele>143.85</ele>
        <time>2021-08-09T18:38:20Z</time>
      </trkpt>
      <trkpt lat="48.98679" lon="4.51224">
        <ele>143.85</ele>
        <time>2021-08-09T18:38:27Z</time>
      </trkpt>
      <trkpt lat="48.9866" lon="4.51162">
        <ele>143.85</ele>
        <time>2021-08-09T18:38:37Z</time>
      </trkpt>
      <trkpt lat="48.98648" lon="4.5112">
        <ele>143.85</ele>
        <time>2021-08-09T18:38:44Z</time>
      </trkpt>
      <trkpt lat="48.98645" lon="4.51115">
        <ele>143.85</ele>
        <time>2021-08-09T18:38:45Z</time>
      </trkpt>
      <trkpt lat="48.98641" lon="4.51112">
        <ele>142.41</ele>
        <time>2021-08-09T18:38:46Z</time>
      </trkpt>
      <trkpt lat="48.98637" lon="4.51112">
        <ele>142.41</ele>
        <time>2021-08-09T18:38:47Z</time>
      </trkpt>
      <trkpt lat="48.98633" lon="4.51113">
        <ele>142.41</ele>
        <time>2021-08-09T18:38:48Z</time>
      </trkpt>
      <trkpt lat="48.98628" lon="4.51115">
        <ele>142.41</ele>
        <time>2021-08-09T18:38:49Z</time>
      </trkpt>
      <trkpt lat="48.98623" lon="4.51117">
        <ele>141.93</ele>
        <time>2021-08-09T18:38:50Z</time>
      </trkpt>
      <trkpt lat="48.98592" lon="4.51128">
        <ele>141.45</ele>
        <time>2021-08-09T18:38:57Z</time>
      </trkpt>
      <trkpt lat="48.98588" lon="4.51132">
        <ele>141.45</ele>
        <time>2021-08-09T18:38:58Z</time>
      </trkpt>
      <trkpt lat="48.98586" lon="4.51137">
        <ele>141.45</ele>
        <time>2021-08-09T18:38:59Z</time>
      </trkpt>
      <trkpt lat="48.98585" lon="4.51143">
        <ele>141.45</ele>
        <time>2021-08-09T18:39:00Z</time>
      </trkpt>
      <trkpt lat="48.98584" lon="4.51149">
        <ele>141.45</ele>
        <time>2021-08-09T18:39:01Z</time>
      </trkpt>
      <trkpt lat="48.98585" lon="4.51155">
        <ele>141.45</ele>
        <time>2021-08-09T18:39:02Z</time>
      </trkpt>
      <trkpt lat="48.98585" lon="4.51162">
        <ele>141.45</ele>
        <time>2021-08-09T18:39:03Z</time>
      </trkpt>
      <trkpt lat="48.98586" lon="4.51237">
        <ele>141.45</ele>
        <time>2021-08-09T18:39:13Z</time>
      </trkpt>
      <trkpt lat="48.98586" lon="4.51328">
        <ele>141.45</ele>
        <time>2021-08-09T18:39:25Z</time>
      </trkpt>
      <trkpt lat="48.98589" lon="4.51409">
        <ele>141.45</ele>
        <time>2021-08-09T18:39:36Z</time>
      </trkpt>
      <trkpt lat="48.9859" lon="4.51423">
        <ele>141.45</ele>
        <time>2021-08-09T18:39:38Z</time>
      </trkpt>
      <trkpt lat="48.98589" lon="4.5143">
        <ele>141.45</ele>
        <time>2021-08-09T18:39:39Z</time>
      </trkpt>
      <trkpt lat="48.98586" lon="4.51436">
        <ele>141.45</ele>
        <time>2021-08-09T18:39:40Z</time>
      </trkpt>
      <trkpt lat="48.98583" lon="4.51439">
        <ele>141.45</ele>
        <time>2021-08-09T18:39:41Z</time>
      </trkpt>
      <trkpt lat="48.98579" lon="4.51441">
        <ele>141.45</ele>
        <time>2021-08-09T18:39:42Z</time>
      </trkpt>
      <trkpt lat="48.98574" lon="4.51441">
        <ele>141.45</ele>
        <time>2021-08-09T18:39:43Z</time>
      </trkpt>
      <trkpt lat="48.9853" lon="4.51457">
        <ele>140.97</ele>
        <time>2021-08-09T18:39:52Z</time>
      </trkpt>
      <trkpt lat="48.98507" lon="4.51473">
        <ele>140.97</ele>
        <time>2021-08-09T18:39:57Z</time>
      </trkpt>
      <trkpt lat="48.98466" lon="4.51517">
        <ele>140.97</ele>
        <time>2021-08-09T18:40:07Z</time>
      </trkpt>
      <trkpt lat="48.98427" lon="4.5156">
        <ele>140.97</ele>
        <time>2021-08-09T18:40:17Z</time>
      </trkpt>
      <trkpt lat="48.98414" lon="4.51576">
        <ele>140.97</ele>
        <time>2021-08-09T18:40:21Z</time>
      </trkpt>
      <trkpt lat="48.98374" lon="4.51621">
        <ele>140.97</ele>
        <time>2021-08-09T18:40:32Z</time>
      </trkpt>
      <trkpt lat="48.98365" lon="4.51645">
        <ele>140.97</ele>
        <time>2021-08-09T18:40:37Z</time>
      </trkpt>
      <trkpt lat="48.98366" lon="4.51649">
        <ele>140.97</ele>
        <time>2021-08-09T18:40:38Z</time>
      </trkpt>
      <trkpt lat="48.98367" lon="4.51655">
        <ele>140.97</ele>
        <time>2021-08-09T18:40:39Z</time>
      </trkpt>
      <trkpt lat="48.98376" lon="4.51681">
        <ele>140.97</ele>
        <time>2021-08-09T18:40:43Z</time>
      </trkpt>
      <trkpt lat="48.98397" lon="4.51737">
        <ele>141.93</ele>
        <time>2021-08-09T18:40:52Z</time>
      </trkpt>
      <trkpt lat="48.98408" lon="4.5178">
        <ele>141.93</ele>
        <time>2021-08-09T18:40:59Z</time>
      </trkpt>
      <trkpt lat="48.98409" lon="4.51786">
        <ele>141.93</ele>
        <time>2021-08-09T18:41:00Z</time>
      </trkpt>
      <trkpt lat="48.98416" lon="4.5182">
        <ele>141.93</ele>
        <time>2021-08-09T18:41:05Z</time>
      </trkpt>
      <trkpt lat="48.98417" lon="4.51826">
        <ele>141.93</ele>
        <time>2021-08-09T18:41:06Z</time>
      </trkpt>
      <trkpt lat="48.98423" lon="4.5186">
        <ele>141.93</ele>
        <time>2021-08-09T18:41:13Z</time>
      </trkpt>
      <trkpt lat="48.98421" lon="4.51865">
        <ele>141.93</ele>
        <time>2021-08-09T18:41:15Z</time>
      </trkpt>
      <trkpt lat="48.9842" lon="4.51866">
        <ele>141.93</ele>
        <time>2021-08-09T18:41:16Z</time>
      </trkpt>
      <trkpt lat="48.98419" lon="4.51865">
        <ele>141.93</ele>
        <time>2021-08-09T18:41:17Z</time>
      </trkpt>
      <trkpt lat="48.98418" lon="4.51862">
        <ele>141.93</ele>
        <time>2021-08-09T18:41:18Z</time>
      </trkpt>
      <trkpt lat="48.98418" lon="4.5186">
        <ele>141.93</ele>
        <time>2021-08-09T18:41:19Z</time>
      </trkpt>
      <trkpt lat="48.9842" lon="4.5186">
        <ele>141.93</ele>
        <time>2021-08-09T18:41:20Z</time>
      </trkpt>
      <trkpt lat="48.98421" lon="4.51862">
        <ele>141.93</ele>
        <time>2021-08-09T18:41:21Z</time>
      </trkpt>
      <trkpt lat="48.98423" lon="4.51866">
        <ele>141.93</ele>
        <time>2021-08-09T18:41:22Z</time>
      </trkpt>
      <trkpt lat="48.98424" lon="4.51871">
        <ele>141.93</ele>
        <time>2021-08-09T18:41:23Z</time>
      </trkpt>
      <trkpt lat="48.98424" lon="4.51874">
        <ele>141.93</ele>
        <time>2021-08-09T18:41:24Z</time>
      </trkpt>
      <trkpt lat="48.98424" lon="4.51879">
        <ele>141.93</ele>
        <time>2021-08-09T18:41:25Z</time>
      </trkpt>
      <trkpt lat="48.9843" lon="4.51911">
        <ele>141.93</ele>
        <time>2021-08-09T18:41:32Z</time>
      </trkpt>
      <trkpt lat="48.98435" lon="4.51963">
        <ele>142.41</ele>
        <time>2021-08-09T18:41:40Z</time>
      </trkpt>
      <trkpt lat="48.98436" lon="4.51977">
        <ele>142.41</ele>
        <time>2021-08-09T18:41:42Z</time>
      </trkpt>
      <trkpt lat="48.98436" lon="4.52016">
        <ele>142.41</ele>
        <time>2021-08-09T18:41:47Z</time>
      </trkpt>
      <trkpt lat="48.98433" lon="4.52086">
        <ele>142.41</ele>
        <time>2021-08-09T18:41:56Z</time>
      </trkpt>
      <trkpt lat="48.98441" lon="4.52162">
        <ele>142.41</ele>
        <time>2021-08-09T18:42:06Z</time>
      </trkpt>
      <trkpt lat="48.98449" lon="4.52246">
        <ele>142.89</ele>
        <time>2021-08-09T18:42:17Z</time>
      </trkpt>
      <trkpt lat="48.98464" lon="4.52324">
        <ele>142.89</ele>
        <time>2021-08-09T18:42:27Z</time>
      </trkpt>
      <trkpt lat="48.9849" lon="4.52415">
        <ele>142.89</ele>
        <time>2021-08-09T18:42:39Z</time>
      </trkpt>
      <trkpt lat="48.98508" lon="4.52483">
        <ele>142.89</ele>
        <time>2021-08-09T18:42:48Z</time>
      </trkpt>
      <trkpt lat="48.98512" lon="4.52539">
        <ele>142.89</ele>
        <time>2021-08-09T18:42:55Z</time>
      </trkpt>
      <trkpt lat="48.98513" lon="4.52624">
        <ele>142.89</ele>
        <time>2021-08-09T18:43:06Z</time>
      </trkpt>
      <trkpt lat="48.98519" lon="4.52707">
        <ele>142.89</ele>
        <time>2021-08-09T18:43:17Z</time>
      </trkpt>
      <trkpt lat="48.98521" lon="4.52714">
        <ele>142.89</ele>
        <time>2021-08-09T18:43:18Z</time>
      </trkpt>
      <trkpt lat="48.98526" lon="4.52736">
        <ele>142.89</ele>
        <time>2021-08-09T18:43:21Z</time>
      </trkpt>
      <trkpt lat="48.98527" lon="4.52745">
        <ele>142.89</ele>
        <time>2021-08-09T18:43:22Z</time>
      </trkpt>
      <trkpt lat="48.98526" lon="4.52751">
        <ele>142.89</ele>
        <time>2021-08-09T18:43:23Z</time>
      </trkpt>
      <trkpt lat="48.98525" lon="4.52758">
        <ele>142.89</ele>
        <time>2021-08-09T18:43:24Z</time>
      </trkpt>
      <trkpt lat="48.98522" lon="4.52764">
        <ele>142.89</ele>
        <time>2021-08-09T18:43:25Z</time>
      </trkpt>
      <trkpt lat="48.98517" lon="4.52767">
        <ele>142.89</ele>
        <time>2021-08-09T18:43:26Z</time>
      </trkpt>
      <trkpt lat="48.98513" lon="4.52767">
        <ele>142.89</ele>
        <time>2021-08-09T18:43:27Z</time>
      </trkpt>
      <trkpt lat="48.98508" lon="4.52767">
        <ele>142.89</ele>
        <time>2021-08-09T18:43:28Z</time>
      </trkpt>
      <trkpt lat="48.98473" lon="4.52774">
        <ele>143.37</ele>
        <time>2021-08-09T18:43:35Z</time>
      </trkpt>
      <trkpt lat="48.98468" lon="4.52776">
        <ele>143.37</ele>
        <time>2021-08-09T18:43:36Z</time>
      </trkpt>
      <trkpt lat="48.98459" lon="4.5278">
        <ele>143.85</ele>
        <time>2021-08-09T18:43:38Z</time>
      </trkpt>
      <trkpt lat="48.98454" lon="4.52781">
        <ele>143.85</ele>
        <time>2021-08-09T18:43:39Z</time>
      </trkpt>
      <trkpt lat="48.98448" lon="4.52783">
        <ele>143.85</ele>
        <time>2021-08-09T18:43:40Z</time>
      </trkpt>
      <trkpt lat="48.98443" lon="4.52784">
        <ele>143.85</ele>
        <time>2021-08-09T18:43:41Z</time>
      </trkpt>
      <trkpt lat="48.98438" lon="4.52785">
        <ele>143.85</ele>
        <time>2021-08-09T18:43:42Z</time>
      </trkpt>
      <trkpt lat="48.98392" lon="4.52797">
        <ele>144.34</ele>
        <time>2021-08-09T18:43:52Z</time>
      </trkpt>
      <trkpt lat="48.9836" lon="4.52807">
        <ele>145.3</ele>
        <time>2021-08-09T18:44:00Z</time>
      </trkpt>
      <trkpt lat="48.98325" lon="4.52819">
        <ele>145.78</ele>
        <time>2021-08-09T18:44:09Z</time>
      </trkpt>
      <trkpt lat="48.98279" lon="4.52833">
        <ele>145.78</ele>
        <time>2021-08-09T18:44:21Z</time>
      </trkpt>
      <trkpt lat="48.98241" lon="4.52844">
        <ele>147.22</ele>
        <time>2021-08-09T18:44:31Z</time>
      </trkpt>
      <trkpt lat="48.98194" lon="4.52858">
        <ele>147.7</ele>
        <time>2021-08-09T18:44:43Z</time>
      </trkpt>
      <trkpt lat="48.98164" lon="4.52868">
        <ele>148.66</ele>
        <time>2021-08-09T18:44:51Z</time>
      </trkpt>
      <trkpt lat="48.98122" lon="4.52881">
        <ele>149.62</ele>
        <time>2021-08-09T18:45:02Z</time>
      </trkpt>
      <trkpt lat="48.98092" lon="4.52891">
        <ele>150.1</ele>
        <time>2021-08-09T18:45:10Z</time>
      </trkpt>
      <trkpt lat="48.98043" lon="4.52908">
        <ele>151.06</ele>
        <time>2021-08-09T18:45:22Z</time>
      </trkpt>
      <trkpt lat="48.98008" lon="4.52921">
        <ele>151.54</ele>
        <time>2021-08-09T18:45:31Z</time>
      </trkpt>
      <trkpt lat="48.97972" lon="4.52934">
        <ele>152.51</ele>
        <time>2021-08-09T18:45:40Z</time>
      </trkpt>
      <trkpt lat="48.97968" lon="4.52935">
        <ele>152.51</ele>
        <time>2021-08-09T18:45:41Z</time>
      </trkpt>
      <trkpt lat="48.97964" lon="4.52937">
        <ele>152.51</ele>
        <time>2021-08-09T18:45:42Z</time>
      </trkpt>
      <trkpt lat="48.97928" lon="4.5295">
        <ele>152.99</ele>
        <time>2021-08-09T18:45:51Z</time>
      </trkpt>
      <trkpt lat="48.97907" lon="4.52959">
        <ele>153.47</ele>
        <time>2021-08-09T18:45:56Z</time>
      </trkpt>
      <trkpt lat="48.97902" lon="4.52961">
        <ele>153.47</ele>
        <time>2021-08-09T18:45:57Z</time>
      </trkpt>
      <trkpt lat="48.97898" lon="4.52964">
        <ele>153.95</ele>
        <time>2021-08-09T18:45:58Z</time>
      </trkpt>
      <trkpt lat="48.97893" lon="4.52966">
        <ele>153.95</ele>
        <time>2021-08-09T18:45:59Z</time>
      </trkpt>
      <trkpt lat="48.97888" lon="4.52968">
        <ele>153.95</ele>
        <time>2021-08-09T18:46:00Z</time>
      </trkpt>
      <trkpt lat="48.97871" lon="4.52973">
        <ele>153.95</ele>
        <time>2021-08-09T18:46:04Z</time>
      </trkpt>
      <trkpt lat="48.97866" lon="4.52973">
        <ele>153.95</ele>
        <time>2021-08-09T18:46:05Z</time>
      </trkpt>
      <trkpt lat="48.97849" lon="4.52979">
        <ele>153.95</ele>
        <time>2021-08-09T18:46:09Z</time>
      </trkpt>
      <trkpt lat="48.97803" lon="4.52996">
        <ele>154.91</ele>
        <time>2021-08-09T18:46:19Z</time>
      </trkpt>
      <trkpt lat="48.97749" lon="4.53015">
        <ele>154.91</ele>
        <time>2021-08-09T18:46:30Z</time>
      </trkpt>
      <trkpt lat="48.977" lon="4.5303">
        <ele>155.87</ele>
        <time>2021-08-09T18:46:40Z</time>
      </trkpt>
      <trkpt lat="48.97644" lon="4.53048">
        <ele>156.83</ele>
        <time>2021-08-09T18:46:52Z</time>
      </trkpt>
      <trkpt lat="48.97607" lon="4.5306">
        <ele>158.27</ele>
        <time>2021-08-09T18:47:01Z</time>
      </trkpt>
      <trkpt lat="48.97569" lon="4.53073">
        <ele>159.72</ele>
        <time>2021-08-09T18:47:11Z</time>
      </trkpt>
      <trkpt lat="48.97536" lon="4.53085">
        <ele>160.68</ele>
        <time>2021-08-09T18:47:20Z</time>
      </trkpt>
      <trkpt lat="48.97494" lon="4.531">
        <ele>163.56</ele>
        <time>2021-08-09T18:47:31Z</time>
      </trkpt>
      <trkpt lat="48.97451" lon="4.53119">
        <ele>163.56</ele>
        <time>2021-08-09T18:47:42Z</time>
      </trkpt>
      <trkpt lat="48.97429" lon="4.53131">
        <ele>165.48</ele>
        <time>2021-08-09T18:47:48Z</time>
      </trkpt>
      <trkpt lat="48.97381" lon="4.53158">
        <ele>165.48</ele>
        <time>2021-08-09T18:47:59Z</time>
      </trkpt>
      <trkpt lat="48.97305" lon="4.53205">
        <ele>165</ele>
        <time>2021-08-09T18:48:15Z</time>
      </trkpt>
      <trkpt lat="48.97246" lon="4.53246">
        <ele>165</ele>
        <time>2021-08-09T18:48:27Z</time>
      </trkpt>
      <trkpt lat="48.97179" lon="4.53292">
        <ele>165</ele>
        <time>2021-08-09T18:48:41Z</time>
      </trkpt>
      <trkpt lat="48.97125" lon="4.53326">
        <ele>167.41</ele>
        <time>2021-08-09T18:48:54Z</time>
      </trkpt>
      <trkpt lat="48.97083" lon="4.5335">
        <ele>169.81</ele>
        <time>2021-08-09T18:49:06Z</time>
      </trkpt>
      <trkpt lat="48.97077" lon="4.53354">
        <ele>171.25</ele>
        <time>2021-08-09T18:49:08Z</time>
      </trkpt>
      <trkpt lat="48.9704" lon="4.53376">
        <ele>172.21</ele>
        <time>2021-08-09T18:49:19Z</time>
      </trkpt>
      <trkpt lat="48.97" lon="4.53397">
        <ele>174.14</ele>
        <time>2021-08-09T18:49:31Z</time>
      </trkpt>
      <trkpt lat="48.96972" lon="4.53405">
        <ele>175.1</ele>
        <time>2021-08-09T18:49:39Z</time>
      </trkpt>
      <trkpt lat="48.96951" lon="4.5341">
        <ele>175.58</ele>
        <time>2021-08-09T18:49:44Z</time>
      </trkpt>
      <trkpt lat="48.96902" lon="4.53426">
        <ele>176.06</ele>
        <time>2021-08-09T18:49:55Z</time>
      </trkpt>
      <trkpt lat="48.96866" lon="4.53438">
        <ele>176.06</ele>
        <time>2021-08-09T18:50:04Z</time>
      </trkpt>
      <trkpt lat="48.96829" lon="4.53448">
        <ele>174.62</ele>
        <time>2021-08-09T18:50:13Z</time>
      </trkpt>
      <trkpt lat="48.96781" lon="4.53463">
        <ele>174.62</ele>
        <time>2021-08-09T18:50:24Z</time>
      </trkpt>
      <trkpt lat="48.96738" lon="4.53475">
        <ele>174.62</ele>
        <time>2021-08-09T18:50:34Z</time>
      </trkpt>
      <trkpt lat="48.96693" lon="4.5349">
        <ele>177.02</ele>
        <time>2021-08-09T18:50:45Z</time>
      </trkpt>
      <trkpt lat="48.96656" lon="4.53502">
        <ele>177.5</ele>
        <time>2021-08-09T18:50:54Z</time>
      </trkpt>
      <trkpt lat="48.96647" lon="4.53504">
        <ele>177.98</ele>
        <time>2021-08-09T18:50:56Z</time>
      </trkpt>
      <trkpt lat="48.96643" lon="4.53505">
        <ele>177.98</ele>
        <time>2021-08-09T18:50:57Z</time>
      </trkpt>
      <trkpt lat="48.96608" lon="4.53516">
        <ele>177.98</ele>
        <time>2021-08-09T18:51:05Z</time>
      </trkpt>
      <trkpt lat="48.96565" lon="4.5353">
        <ele>177.98</ele>
        <time>2021-08-09T18:51:14Z</time>
      </trkpt>
      <trkpt lat="48.96547" lon="4.53535">
        <ele>176.54</ele>
        <time>2021-08-09T18:51:18Z</time>
      </trkpt>
      <trkpt lat="48.96495" lon="4.53551">
        <ele>174.62</ele>
        <time>2021-08-09T18:51:28Z</time>
      </trkpt>
      <trkpt lat="48.96448" lon="4.53565">
        <ele>174.14</ele>
        <time>2021-08-09T18:51:37Z</time>
      </trkpt>
      <trkpt lat="48.96387" lon="4.53583">
        <ele>173.66</ele>
        <time>2021-08-09T18:51:49Z</time>
      </trkpt>
      <trkpt lat="48.96352" lon="4.53593">
        <ele>175.1</ele>
        <time>2021-08-09T18:51:57Z</time>
      </trkpt>
      <trkpt lat="48.96324" lon="4.53601">
        <ele>175.1</ele>
        <time>2021-08-09T18:52:04Z</time>
      </trkpt>
      <trkpt lat="48.96285" lon="4.53614">
        <ele>176.54</ele>
        <time>2021-08-09T18:52:14Z</time>
      </trkpt>
      <trkpt lat="48.9625" lon="4.53625">
        <ele>177.5</ele>
        <time>2021-08-09T18:52:23Z</time>
      </trkpt>
      <trkpt lat="48.96195" lon="4.53641">
        <ele>178.46</ele>
        <time>2021-08-09T18:52:37Z</time>
      </trkpt>
      <trkpt lat="48.96149" lon="4.53656">
        <ele>178.46</ele>
        <time>2021-08-09T18:52:48Z</time>
      </trkpt>
      <trkpt lat="48.96104" lon="4.53669">
        <ele>178.46</ele>
        <time>2021-08-09T18:52:57Z</time>
      </trkpt>
      <trkpt lat="48.96082" lon="4.53676">
        <ele>177.02</ele>
        <time>2021-08-09T18:53:01Z</time>
      </trkpt>
      <trkpt lat="48.96024" lon="4.53693">
        <ele>175.58</ele>
        <time>2021-08-09T18:53:10Z</time>
      </trkpt>
      <trkpt lat="48.95972" lon="4.5371">
        <ele>175.58</ele>
        <time>2021-08-09T18:53:19Z</time>
      </trkpt>
      <trkpt lat="48.95939" lon="4.53719">
        <ele>177.02</ele>
        <time>2021-08-09T18:53:26Z</time>
      </trkpt>
      <trkpt lat="48.95905" lon="4.53729">
        <ele>177.5</ele>
        <time>2021-08-09T18:53:34Z</time>
      </trkpt>
      <trkpt lat="48.95887" lon="4.53735">
        <ele>178.46</ele>
        <time>2021-08-09T18:53:38Z</time>
      </trkpt>
      <trkpt lat="48.95883" lon="4.53737">
        <ele>178.46</ele>
        <time>2021-08-09T18:53:39Z</time>
      </trkpt>
      <trkpt lat="48.95831" lon="4.53754">
        <ele>179.42</ele>
        <time>2021-08-09T18:53:51Z</time>
      </trkpt>
      <trkpt lat="48.95785" lon="4.53768">
        <ele>180.87</ele>
        <time>2021-08-09T18:54:02Z</time>
      </trkpt>
      <trkpt lat="48.9574" lon="4.53783">
        <ele>181.35</ele>
        <time>2021-08-09T18:54:13Z</time>
      </trkpt>
      <trkpt lat="48.95696" lon="4.53796">
        <ele>181.83</ele>
        <time>2021-08-09T18:54:23Z</time>
      </trkpt>
      <trkpt lat="48.95647" lon="4.53811">
        <ele>181.83</ele>
        <time>2021-08-09T18:54:34Z</time>
      </trkpt>
      <trkpt lat="48.95624" lon="4.53818">
        <ele>181.83</ele>
        <time>2021-08-09T18:54:39Z</time>
      </trkpt>
      <trkpt lat="48.9562" lon="4.5382">
        <ele>181.83</ele>
        <time>2021-08-09T18:54:40Z</time>
      </trkpt>
      <trkpt lat="48.95617" lon="4.53824">
        <ele>182.31</ele>
        <time>2021-08-09T18:54:41Z</time>
      </trkpt>
      <trkpt lat="48.95613" lon="4.53829">
        <ele>182.31</ele>
        <time>2021-08-09T18:54:42Z</time>
      </trkpt>
      <trkpt lat="48.95611" lon="4.53836">
        <ele>182.31</ele>
        <time>2021-08-09T18:54:43Z</time>
      </trkpt>
      <trkpt lat="48.95611" lon="4.53841">
        <ele>182.31</ele>
        <time>2021-08-09T18:54:44Z</time>
      </trkpt>
      <trkpt lat="48.95612" lon="4.53847">
        <ele>182.31</ele>
        <time>2021-08-09T18:54:45Z</time>
      </trkpt>
      <trkpt lat="48.95613" lon="4.53854">
        <ele>182.31</ele>
        <time>2021-08-09T18:54:46Z</time>
      </trkpt>
      <trkpt lat="48.95619" lon="4.539">
        <ele>182.31</ele>
        <time>2021-08-09T18:54:53Z</time>
      </trkpt>
      <trkpt lat="48.95619" lon="4.53907">
        <ele>182.31</ele>
        <time>2021-08-09T18:54:54Z</time>
      </trkpt>
      <trkpt lat="48.95619" lon="4.53913">
        <ele>182.31</ele>
        <time>2021-08-09T18:54:55Z</time>
      </trkpt>
      <trkpt lat="48.95618" lon="4.53919">
        <ele>182.31</ele>
        <time>2021-08-09T18:54:56Z</time>
      </trkpt>
      <trkpt lat="48.95616" lon="4.53927">
        <ele>182.31</ele>
        <time>2021-08-09T18:54:57Z</time>
      </trkpt>
      <trkpt lat="48.95614" lon="4.53932">
        <ele>182.31</ele>
        <time>2021-08-09T18:54:58Z</time>
      </trkpt>
      <trkpt lat="48.95611" lon="4.53939">
        <ele>182.31</ele>
        <time>2021-08-09T18:54:59Z</time>
      </trkpt>
      <trkpt lat="48.95608" lon="4.53944">
        <ele>182.31</ele>
        <time>2021-08-09T18:55:00Z</time>
      </trkpt>
      <trkpt lat="48.95605" lon="4.53949">
        <ele>182.31</ele>
        <time>2021-08-09T18:55:01Z</time>
      </trkpt>
      <trkpt lat="48.95602" lon="4.53954">
        <ele>182.31</ele>
        <time>2021-08-09T18:55:02Z</time>
      </trkpt>
      <trkpt lat="48.95598" lon="4.53958">
        <ele>182.31</ele>
        <time>2021-08-09T18:55:03Z</time>
      </trkpt>
      <trkpt lat="48.95578" lon="4.53977">
        <ele>182.31</ele>
        <time>2021-08-09T18:55:08Z</time>
      </trkpt>
      <trkpt lat="48.95574" lon="4.53981">
        <ele>182.31</ele>
        <time>2021-08-09T18:55:09Z</time>
      </trkpt>
      <trkpt lat="48.95571" lon="4.53985">
        <ele>182.31</ele>
        <time>2021-08-09T18:55:10Z</time>
      </trkpt>
      <trkpt lat="48.95567" lon="4.53989">
        <ele>182.79</ele>
        <time>2021-08-09T18:55:11Z</time>
      </trkpt>
      <trkpt lat="48.95564" lon="4.53993">
        <ele>182.31</ele>
        <time>2021-08-09T18:55:12Z</time>
      </trkpt>
      <trkpt lat="48.95561" lon="4.53998">
        <ele>182.31</ele>
        <time>2021-08-09T18:55:13Z</time>
      </trkpt>
      <trkpt lat="48.95527" lon="4.54053">
        <ele>182.79</ele>
        <time>2021-08-09T18:55:24Z</time>
      </trkpt>
      <trkpt lat="48.95504" lon="4.54106">
        <ele>183.75</ele>
        <time>2021-08-09T18:55:33Z</time>
      </trkpt>
      <trkpt lat="48.95483" lon="4.54162">
        <ele>184.23</ele>
        <time>2021-08-09T18:55:42Z</time>
      </trkpt>
      <trkpt lat="48.9546" lon="4.54235">
        <ele>184.71</ele>
        <time>2021-08-09T18:55:53Z</time>
      </trkpt>
      <trkpt lat="48.95451" lon="4.54275">
        <ele>185.19</ele>
        <time>2021-08-09T18:55:59Z</time>
      </trkpt>
      <trkpt lat="48.9545" lon="4.54283">
        <ele>185.67</ele>
        <time>2021-08-09T18:56:00Z</time>
      </trkpt>
      <trkpt lat="48.95448" lon="4.54302">
        <ele>185.67</ele>
        <time>2021-08-09T18:56:03Z</time>
      </trkpt>
      <trkpt lat="48.95447" lon="4.54316">
        <ele>185.67</ele>
        <time>2021-08-09T18:56:05Z</time>
      </trkpt>
      <trkpt lat="48.95448" lon="4.54342">
        <ele>186.15</ele>
        <time>2021-08-09T18:56:09Z</time>
      </trkpt>
      <trkpt lat="48.95448" lon="4.54349">
        <ele>186.15</ele>
        <time>2021-08-09T18:56:10Z</time>
      </trkpt>
      <trkpt lat="48.95449" lon="4.54355">
        <ele>186.15</ele>
        <time>2021-08-09T18:56:11Z</time>
      </trkpt>
      <trkpt lat="48.95458" lon="4.5442">
        <ele>186.15</ele>
        <time>2021-08-09T18:56:20Z</time>
      </trkpt>
      <trkpt lat="48.9546" lon="4.54435">
        <ele>186.15</ele>
        <time>2021-08-09T18:56:22Z</time>
      </trkpt>
      <trkpt lat="48.95471" lon="4.54514">
        <ele>186.15</ele>
        <time>2021-08-09T18:56:32Z</time>
      </trkpt>
      <trkpt lat="48.95479" lon="4.54567">
        <ele>186.15</ele>
        <time>2021-08-09T18:56:39Z</time>
      </trkpt>
      <trkpt lat="48.95478" lon="4.54575">
        <ele>186.15</ele>
        <time>2021-08-09T18:56:40Z</time>
      </trkpt>
      <trkpt lat="48.95476" lon="4.54579">
        <ele>186.15</ele>
        <time>2021-08-09T18:56:41Z</time>
      </trkpt>
      <trkpt lat="48.95473" lon="4.54584">
        <ele>186.15</ele>
        <time>2021-08-09T18:56:42Z</time>
      </trkpt>
      <trkpt lat="48.9547" lon="4.54585">
        <ele>186.15</ele>
        <time>2021-08-09T18:56:43Z</time>
      </trkpt>
      <trkpt lat="48.95466" lon="4.54587">
        <ele>186.15</ele>
        <time>2021-08-09T18:56:44Z</time>
      </trkpt>
      <trkpt lat="48.9543" lon="4.54606">
        <ele>187.11</ele>
        <time>2021-08-09T18:56:53Z</time>
      </trkpt>
      <trkpt lat="48.95421" lon="4.54609">
        <ele>187.59</ele>
        <time>2021-08-09T18:56:58Z</time>
      </trkpt>
      <trkpt lat="48.9542" lon="4.54611">
        <ele>187.59</ele>
        <time>2021-08-09T18:57:10Z</time>
      </trkpt>
      <trkpt lat="48.95404" lon="4.54618">
        <ele>187.59</ele>
        <time>2021-08-09T18:57:17Z</time>
      </trkpt>
      <trkpt lat="48.95373" lon="4.54633">
        <ele>188.08</ele>
        <time>2021-08-09T18:57:26Z</time>
      </trkpt>
      <trkpt lat="48.95338" lon="4.5465">
        <ele>188.08</ele>
        <time>2021-08-09T18:57:37Z</time>
      </trkpt>
      <trkpt lat="48.95307" lon="4.54666">
        <ele>186.15</ele>
        <time>2021-08-09T18:57:46Z</time>
      </trkpt>
      <trkpt lat="48.95266" lon="4.54687">
        <ele>184.71</ele>
        <time>2021-08-09T18:57:55Z</time>
      </trkpt>
      <trkpt lat="48.9522" lon="4.5471">
        <ele>181.35</ele>
        <time>2021-08-09T18:58:03Z</time>
      </trkpt>
      <trkpt lat="48.95164" lon="4.54738">
        <ele>177.98</ele>
        <time>2021-08-09T18:58:11Z</time>
      </trkpt>
      <trkpt lat="48.95135" lon="4.54755">
        <ele>176.06</ele>
        <time>2021-08-09T18:58:15Z</time>
      </trkpt>
      <trkpt lat="48.95088" lon="4.5479">
        <ele>172.21</ele>
        <time>2021-08-09T18:58:21Z</time>
      </trkpt>
      <trkpt lat="48.95055" lon="4.54817">
        <ele>169.81</ele>
        <time>2021-08-09T18:58:25Z</time>
      </trkpt>
      <trkpt lat="48.94995" lon="4.54866">
        <ele>165.48</ele>
        <time>2021-08-09T18:58:32Z</time>
      </trkpt>
      <trkpt lat="48.94986" lon="4.54873">
        <ele>165.48</ele>
        <time>2021-08-09T18:58:33Z</time>
      </trkpt>
      <trkpt lat="48.94934" lon="4.54915">
        <ele>162.6</ele>
        <time>2021-08-09T18:58:39Z</time>
      </trkpt>
      <trkpt lat="48.94857" lon="4.54977">
        <ele>160.2</ele>
        <time>2021-08-09T18:58:49Z</time>
      </trkpt>
      <trkpt lat="48.94813" lon="4.55015">
        <ele>160.68</ele>
        <time>2021-08-09T18:58:56Z</time>
      </trkpt>
      <trkpt lat="48.94809" lon="4.55019">
        <ele>160.68</ele>
        <time>2021-08-09T18:58:57Z</time>
      </trkpt>
      <trkpt lat="48.94794" lon="4.55033">
        <ele>162.12</ele>
        <time>2021-08-09T18:59:03Z</time>
      </trkpt>
      <trkpt lat="48.94784" lon="4.55044">
        <ele>163.56</ele>
        <time>2021-08-09T18:59:11Z</time>
      </trkpt>
      <trkpt lat="48.9477" lon="4.55058">
        <ele>165.48</ele>
        <time>2021-08-09T18:59:21Z</time>
      </trkpt>
      <trkpt lat="48.94756" lon="4.55072">
        <ele>167.41</ele>
        <time>2021-08-09T18:59:31Z</time>
      </trkpt>
      <trkpt lat="48.94742" lon="4.55088">
        <ele>168.85</ele>
        <time>2021-08-09T18:59:41Z</time>
      </trkpt>
      <trkpt lat="48.94728" lon="4.55103">
        <ele>170.29</ele>
        <time>2021-08-09T18:59:51Z</time>
      </trkpt>
      <trkpt lat="48.94714" lon="4.55119">
        <ele>171.73</ele>
        <time>2021-08-09T19:00:00Z</time>
      </trkpt>
      <trkpt lat="48.94695" lon="4.55139">
        <ele>173.17</ele>
        <time>2021-08-09T19:00:10Z</time>
      </trkpt>
      <trkpt lat="48.94672" lon="4.55164">
        <ele>174.14</ele>
        <time>2021-08-09T19:00:21Z</time>
      </trkpt>
      <trkpt lat="48.94647" lon="4.55191">
        <ele>175.1</ele>
        <time>2021-08-09T19:00:31Z</time>
      </trkpt>
      <trkpt lat="48.9462" lon="4.55223">
        <ele>175.1</ele>
        <time>2021-08-09T19:00:41Z</time>
      </trkpt>
      <trkpt lat="48.9459" lon="4.5526">
        <ele>173.66</ele>
        <time>2021-08-09T19:00:50Z</time>
      </trkpt>
      <trkpt lat="48.94568" lon="4.55287">
        <ele>172.21</ele>
        <time>2021-08-09T19:00:55Z</time>
      </trkpt>
      <trkpt lat="48.94564" lon="4.55293">
        <ele>171.73</ele>
        <time>2021-08-09T19:00:56Z</time>
      </trkpt>
      <trkpt lat="48.94526" lon="4.5534">
        <ele>168.85</ele>
        <time>2021-08-09T19:01:04Z</time>
      </trkpt>
      <trkpt lat="48.945" lon="4.55372">
        <ele>166.93</ele>
        <time>2021-08-09T19:01:09Z</time>
      </trkpt>
      <trkpt lat="48.9448" lon="4.55399">
        <ele>165</ele>
        <time>2021-08-09T19:01:13Z</time>
      </trkpt>
      <trkpt lat="48.94467" lon="4.55417">
        <ele>163.56</ele>
        <time>2021-08-09T19:01:16Z</time>
      </trkpt>
      <trkpt lat="48.94428" lon="4.55468">
        <ele>160.2</ele>
        <time>2021-08-09T19:01:25Z</time>
      </trkpt>
      <trkpt lat="48.94397" lon="4.55508">
        <ele>156.83</ele>
        <time>2021-08-09T19:01:33Z</time>
      </trkpt>
      <trkpt lat="48.94369" lon="4.55546">
        <ele>154.43</ele>
        <time>2021-08-09T19:01:39Z</time>
      </trkpt>
      <trkpt lat="48.94345" lon="4.55578">
        <ele>152.03</ele>
        <time>2021-08-09T19:01:43Z</time>
      </trkpt>
      <trkpt lat="48.94315" lon="4.55615">
        <ele>148.66</ele>
        <time>2021-08-09T19:01:48Z</time>
      </trkpt>
      <trkpt lat="48.94308" lon="4.55625">
        <ele>148.66</ele>
        <time>2021-08-09T19:01:49Z</time>
      </trkpt>
      <trkpt lat="48.94288" lon="4.55654">
        <ele>146.74</ele>
        <time>2021-08-09T19:01:53Z</time>
      </trkpt>
      <trkpt lat="48.94255" lon="4.55698">
        <ele>143.37</ele>
        <time>2021-08-09T19:01:59Z</time>
      </trkpt>
      <trkpt lat="48.94195" lon="4.55776">
        <ele>140.01</ele>
        <time>2021-08-09T19:02:09Z</time>
      </trkpt>
      <trkpt lat="48.94133" lon="4.55857">
        <ele>138.09</ele>
        <time>2021-08-09T19:02:20Z</time>
      </trkpt>
      <trkpt lat="48.94078" lon="4.55929">
        <ele>136.64</ele>
        <time>2021-08-09T19:02:31Z</time>
      </trkpt>
      <trkpt lat="48.94032" lon="4.55988">
        <ele>133.76</ele>
        <time>2021-08-09T19:02:39Z</time>
      </trkpt>
      <trkpt lat="48.9398" lon="4.56055">
        <ele>131.84</ele>
        <time>2021-08-09T19:02:48Z</time>
      </trkpt>
      <trkpt lat="48.93944" lon="4.56102">
        <ele>131.36</ele>
        <time>2021-08-09T19:02:56Z</time>
      </trkpt>
      <trkpt lat="48.93923" lon="4.56136">
        <ele>131.36</ele>
        <time>2021-08-09T19:03:03Z</time>
      </trkpt>
      <trkpt lat="48.93923" lon="4.56141">
        <ele>131.36</ele>
        <time>2021-08-09T19:03:04Z</time>
      </trkpt>
      <trkpt lat="48.93924" lon="4.56145">
        <ele>131.36</ele>
        <time>2021-08-09T19:03:05Z</time>
      </trkpt>
      <trkpt lat="48.93926" lon="4.5615">
        <ele>131.36</ele>
        <time>2021-08-09T19:03:06Z</time>
      </trkpt>
      <trkpt lat="48.93929" lon="4.56153">
        <ele>131.36</ele>
        <time>2021-08-09T19:03:07Z</time>
      </trkpt>
      <trkpt lat="48.93961" lon="4.56202">
        <ele>131.36</ele>
        <time>2021-08-09T19:03:18Z</time>
      </trkpt>
      <trkpt lat="48.93963" lon="4.56207">
        <ele>131.36</ele>
        <time>2021-08-09T19:03:19Z</time>
      </trkpt>
      <trkpt lat="48.9398" lon="4.56234">
        <ele>132.8</ele>
        <time>2021-08-09T19:03:25Z</time>
      </trkpt>
      <trkpt lat="48.94013" lon="4.56285">
        <ele>133.76</ele>
        <time>2021-08-09T19:03:37Z</time>
      </trkpt>
      <trkpt lat="48.9405" lon="4.56333">
        <ele>133.76</ele>
        <time>2021-08-09T19:03:48Z</time>
      </trkpt>
      <trkpt lat="48.94053" lon="4.56338">
        <ele>133.76</ele>
        <time>2021-08-09T19:03:49Z</time>
      </trkpt>
      <trkpt lat="48.94057" lon="4.56342">
        <ele>133.76</ele>
        <time>2021-08-09T19:03:50Z</time>
      </trkpt>
      <trkpt lat="48.94085" lon="4.5638">
        <ele>133.76</ele>
        <time>2021-08-09T19:03:59Z</time>
      </trkpt>
      <trkpt lat="48.94085" lon="4.5638">
        <ele>133.76</ele>
        <time>2021-08-09T19:04:04Z</time>
      </trkpt>
      <trkpt lat="48.94086" lon="4.5638">
        <ele>133.76</ele>
        <time>2021-08-09T19:04:10Z</time>
      </trkpt>
      <trkpt lat="48.94087" lon="4.56379">
        <ele>133.76</ele>
        <time>2021-08-09T19:04:11Z</time>
      </trkpt>
      <trkpt lat="48.94087" lon="4.56377">
        <ele>133.76</ele>
        <time>2021-08-09T19:04:12Z</time>
      </trkpt>
      <trkpt lat="48.94085" lon="4.56376">
        <ele>133.76</ele>
        <time>2021-08-09T19:04:13Z</time>
      </trkpt>
      <trkpt lat="48.94081" lon="4.56372">
        <ele>133.76</ele>
        <time>2021-08-09T19:04:15Z</time>
      </trkpt>
      <trkpt lat="48.94079" lon="4.56368">
        <ele>133.76</ele>
        <time>2021-08-09T19:04:16Z</time>
      </trkpt>
      <trkpt lat="48.9406" lon="4.56343">
        <ele>133.76</ele>
        <time>2021-08-09T19:04:22Z</time>
      </trkpt>
      <trkpt lat="48.94028" lon="4.56302">
        <ele>133.76</ele>
        <time>2021-08-09T19:04:31Z</time>
      </trkpt>
      <trkpt lat="48.94024" lon="4.56298">
        <ele>133.76</ele>
        <time>2021-08-09T19:04:32Z</time>
      </trkpt>
      <trkpt lat="48.9402" lon="4.56295">
        <ele>133.76</ele>
        <time>2021-08-09T19:04:33Z</time>
      </trkpt>
      <trkpt lat="48.94017" lon="4.56293">
        <ele>133.76</ele>
        <time>2021-08-09T19:04:34Z</time>
      </trkpt>
      <trkpt lat="48.94013" lon="4.56293">
        <ele>133.76</ele>
        <time>2021-08-09T19:04:35Z</time>
      </trkpt>
      <trkpt lat="48.94009" lon="4.56296">
        <ele>133.76</ele>
        <time>2021-08-09T19:04:36Z</time>
      </trkpt>
      <trkpt lat="48.94006" lon="4.56298">
        <ele>133.76</ele>
        <time>2021-08-09T19:04:37Z</time>
      </trkpt>
      <trkpt lat="48.93982" lon="4.5632">
        <ele>134.24</ele>
        <time>2021-08-09T19:04:45Z</time>
      </trkpt>
      <trkpt lat="48.93949" lon="4.56348">
        <ele>135.2</ele>
        <time>2021-08-09T19:04:56Z</time>
      </trkpt>
      <trkpt lat="48.9393" lon="4.56362">
        <ele>136.16</ele>
        <time>2021-08-09T19:05:03Z</time>
      </trkpt>
      <trkpt lat="48.93909" lon="4.5638">
        <ele>137.13</ele>
        <time>2021-08-09T19:05:12Z</time>
      </trkpt>
      <trkpt lat="48.93882" lon="4.56404">
        <ele>138.57</ele>
        <time>2021-08-09T19:05:24Z</time>
      </trkpt>
      <trkpt lat="48.93858" lon="4.56423">
        <ele>139.05</ele>
        <time>2021-08-09T19:05:35Z</time>
      </trkpt>
      <trkpt lat="48.93839" lon="4.56439">
        <ele>140.49</ele>
        <time>2021-08-09T19:05:44Z</time>
      </trkpt>
      <trkpt lat="48.93825" lon="4.56453">
        <ele>141.45</ele>
        <time>2021-08-09T19:05:52Z</time>
      </trkpt>
      <trkpt lat="48.93815" lon="4.56462">
        <ele>142.41</ele>
        <time>2021-08-09T19:05:58Z</time>
      </trkpt>
      <trkpt lat="48.93814" lon="4.56463">
        <ele>142.41</ele>
        <time>2021-08-09T19:05:59Z</time>
      </trkpt>
      <trkpt lat="48.93802" lon="4.56473">
        <ele>144.34</ele>
        <time>2021-08-09T19:06:07Z</time>
      </trkpt>
      <trkpt lat="48.93788" lon="4.56484">
        <ele>145.78</ele>
        <time>2021-08-09T19:06:16Z</time>
      </trkpt>
      <trkpt lat="48.93771" lon="4.56499">
        <ele>148.18</ele>
        <time>2021-08-09T19:06:28Z</time>
      </trkpt>
      <trkpt lat="48.93754" lon="4.56515">
        <ele>150.1</ele>
        <time>2021-08-09T19:06:40Z</time>
      </trkpt>
      <trkpt lat="48.93737" lon="4.56529">
        <ele>152.51</ele>
        <time>2021-08-09T19:06:53Z</time>
      </trkpt>
      <trkpt lat="48.93724" lon="4.56541">
        <ele>153.47</ele>
        <time>2021-08-09T19:07:03Z</time>
      </trkpt>
      <trkpt lat="48.93721" lon="4.56543">
        <ele>153.95</ele>
        <time>2021-08-09T19:07:09Z</time>
      </trkpt>
      <trkpt lat="48.93718" lon="4.56546">
        <ele>153.95</ele>
        <time>2021-08-09T19:07:21Z</time>
      </trkpt>
      <trkpt lat="48.93704" lon="4.56559">
        <ele>155.39</ele>
        <time>2021-08-09T19:07:30Z</time>
      </trkpt>
      <trkpt lat="48.93681" lon="4.56578">
        <ele>157.31</ele>
        <time>2021-08-09T19:07:41Z</time>
      </trkpt>
      <trkpt lat="48.93659" lon="4.56597">
        <ele>158.27</ele>
        <time>2021-08-09T19:07:52Z</time>
      </trkpt>
      <trkpt lat="48.93644" lon="4.5662">
        <ele>159.24</ele>
        <time>2021-08-09T19:08:00Z</time>
      </trkpt>
      <trkpt lat="48.93651" lon="4.56647">
        <ele>159.24</ele>
        <time>2021-08-09T19:08:06Z</time>
      </trkpt>
      <trkpt lat="48.93663" lon="4.56688">
        <ele>160.2</ele>
        <time>2021-08-09T19:08:14Z</time>
      </trkpt>
      <trkpt lat="48.93683" lon="4.56761">
        <ele>160.68</ele>
        <time>2021-08-09T19:08:27Z</time>
      </trkpt>
      <trkpt lat="48.93686" lon="4.56773">
        <ele>160.68</ele>
        <time>2021-08-09T19:08:29Z</time>
      </trkpt>
      <trkpt lat="48.93702" lon="4.56837">
        <ele>161.16</ele>
        <time>2021-08-09T19:08:40Z</time>
      </trkpt>
      <trkpt lat="48.93718" lon="4.56906">
        <ele>162.6</ele>
        <time>2021-08-09T19:08:52Z</time>
      </trkpt>
      <trkpt lat="48.93733" lon="4.5697">
        <ele>163.56</ele>
        <time>2021-08-09T19:09:03Z</time>
      </trkpt>
      <trkpt lat="48.93746" lon="4.57031">
        <ele>164.52</ele>
        <time>2021-08-09T19:09:13Z</time>
      </trkpt>
      <trkpt lat="48.93762" lon="4.57102">
        <ele>165.48</ele>
        <time>2021-08-09T19:09:25Z</time>
      </trkpt>
      <trkpt lat="48.93763" lon="4.5712">
        <ele>165.96</ele>
        <time>2021-08-09T19:09:28Z</time>
      </trkpt>
      <trkpt lat="48.93761" lon="4.57124">
        <ele>165.96</ele>
        <time>2021-08-09T19:09:29Z</time>
      </trkpt>
      <trkpt lat="48.93759" lon="4.57126">
        <ele>165.96</ele>
        <time>2021-08-09T19:09:30Z</time>
      </trkpt>
      <trkpt lat="48.93756" lon="4.57127">
        <ele>165.96</ele>
        <time>2021-08-09T19:09:31Z</time>
      </trkpt>
      <trkpt lat="48.93753" lon="4.57128">
        <ele>165.96</ele>
        <time>2021-08-09T19:09:32Z</time>
      </trkpt>
      <trkpt lat="48.9375" lon="4.57129">
        <ele>165.96</ele>
        <time>2021-08-09T19:09:33Z</time>
      </trkpt>
      <trkpt lat="48.93725" lon="4.57139">
        <ele>166.45</ele>
        <time>2021-08-09T19:09:40Z</time>
      </trkpt>
      <trkpt lat="48.93688" lon="4.57154">
        <ele>166.93</ele>
        <time>2021-08-09T19:09:49Z</time>
      </trkpt>
      <trkpt lat="48.93642" lon="4.57174">
        <ele>165</ele>
        <time>2021-08-09T19:09:59Z</time>
      </trkpt>
      <trkpt lat="48.93591" lon="4.57197">
        <ele>162.12</ele>
        <time>2021-08-09T19:10:08Z</time>
      </trkpt>
      <trkpt lat="48.93559" lon="4.57212">
        <ele>160.2</ele>
        <time>2021-08-09T19:10:13Z</time>
      </trkpt>
      <trkpt lat="48.93522" lon="4.57228">
        <ele>158.27</ele>
        <time>2021-08-09T19:10:19Z</time>
      </trkpt>
      <trkpt lat="48.93467" lon="4.57253">
        <ele>154.91</ele>
        <time>2021-08-09T19:10:27Z</time>
      </trkpt>
      <trkpt lat="48.93453" lon="4.57259">
        <ele>153.95</ele>
        <time>2021-08-09T19:10:29Z</time>
      </trkpt>
      <trkpt lat="48.9343" lon="4.57269">
        <ele>152.51</ele>
        <time>2021-08-09T19:10:32Z</time>
      </trkpt>
      <trkpt lat="48.93369" lon="4.57293">
        <ele>149.14</ele>
        <time>2021-08-09T19:10:40Z</time>
      </trkpt>
      <trkpt lat="48.93314" lon="4.57312">
        <ele>145.78</ele>
        <time>2021-08-09T19:10:47Z</time>
      </trkpt>
      <trkpt lat="48.93238" lon="4.57339">
        <ele>143.37</ele>
        <time>2021-08-09T19:10:57Z</time>
      </trkpt>
      <trkpt lat="48.93187" lon="4.57357">
        <ele>141.93</ele>
        <time>2021-08-09T19:11:05Z</time>
      </trkpt>
      <trkpt lat="48.93181" lon="4.5736">
        <ele>141.93</ele>
        <time>2021-08-09T19:11:06Z</time>
      </trkpt>
      <trkpt lat="48.93158" lon="4.57371">
        <ele>142.41</ele>
        <time>2021-08-09T19:11:11Z</time>
      </trkpt>
      <trkpt lat="48.93128" lon="4.57398">
        <ele>142.41</ele>
        <time>2021-08-09T19:11:20Z</time>
      </trkpt>
      <trkpt lat="48.9311" lon="4.57414">
        <ele>143.37</ele>
        <time>2021-08-09T19:11:26Z</time>
      </trkpt>
      <trkpt lat="48.93091" lon="4.57432">
        <ele>144.34</ele>
        <time>2021-08-09T19:11:35Z</time>
      </trkpt>
      <trkpt lat="48.93073" lon="4.57449">
        <ele>145.3</ele>
        <time>2021-08-09T19:11:45Z</time>
      </trkpt>
      <trkpt lat="48.93055" lon="4.57465">
        <ele>146.26</ele>
        <time>2021-08-09T19:11:55Z</time>
      </trkpt>
      <trkpt lat="48.93032" lon="4.57486">
        <ele>147.7</ele>
        <time>2021-08-09T19:12:07Z</time>
      </trkpt>
      <trkpt lat="48.93012" lon="4.57505">
        <ele>149.14</ele>
        <time>2021-08-09T19:12:18Z</time>
      </trkpt>
      <trkpt lat="48.92994" lon="4.5752">
        <ele>150.58</ele>
        <time>2021-08-09T19:12:28Z</time>
      </trkpt>
      <trkpt lat="48.92981" lon="4.57533">
        <ele>151.54</ele>
        <time>2021-08-09T19:12:37Z</time>
      </trkpt>
      <trkpt lat="48.92968" lon="4.57539">
        <ele>152.51</ele>
        <time>2021-08-09T19:12:46Z</time>
      </trkpt>
      <trkpt lat="48.92959" lon="4.57549">
        <ele>154.43</ele>
        <time>2021-08-09T19:12:54Z</time>
      </trkpt>
      <trkpt lat="48.92956" lon="4.57552">
        <ele>153.95</ele>
        <time>2021-08-09T19:12:56Z</time>
      </trkpt>
      <trkpt lat="48.92944" lon="4.57563">
        <ele>154.91</ele>
        <time>2021-08-09T19:13:05Z</time>
      </trkpt>
      <trkpt lat="48.92928" lon="4.57574">
        <ele>156.83</ele>
        <time>2021-08-09T19:13:16Z</time>
      </trkpt>
      <trkpt lat="48.92913" lon="4.57583">
        <ele>158.27</ele>
        <time>2021-08-09T19:13:26Z</time>
      </trkpt>
      <trkpt lat="48.92898" lon="4.57591">
        <ele>160.2</ele>
        <time>2021-08-09T19:13:36Z</time>
      </trkpt>
      <trkpt lat="48.92883" lon="4.57595">
        <ele>161.64</ele>
        <time>2021-08-09T19:13:45Z</time>
      </trkpt>
      <trkpt lat="48.92867" lon="4.57601">
        <ele>163.08</ele>
        <time>2021-08-09T19:13:55Z</time>
      </trkpt>
      <trkpt lat="48.92853" lon="4.57604">
        <ele>164.52</ele>
        <time>2021-08-09T19:14:03Z</time>
      </trkpt>
      <trkpt lat="48.92838" lon="4.57605">
        <ele>165.96</ele>
        <time>2021-08-09T19:14:12Z</time>
      </trkpt>
      <trkpt lat="48.92823" lon="4.57605">
        <ele>166.93</ele>
        <time>2021-08-09T19:14:21Z</time>
      </trkpt>
      <trkpt lat="48.92806" lon="4.57605">
        <ele>167.89</ele>
        <time>2021-08-09T19:14:30Z</time>
      </trkpt>
      <trkpt lat="48.9278" lon="4.57603">
        <ele>169.81</ele>
        <time>2021-08-09T19:14:43Z</time>
      </trkpt>
      <trkpt lat="48.92764" lon="4.57602">
        <ele>170.77</ele>
        <time>2021-08-09T19:14:51Z</time>
      </trkpt>
      <trkpt lat="48.92751" lon="4.57608">
        <ele>171.73</ele>
        <time>2021-08-09T19:14:58Z</time>
      </trkpt>
      <trkpt lat="48.92749" lon="4.57635">
        <ele>171.73</ele>
        <time>2021-08-09T19:15:05Z</time>
      </trkpt>
      <trkpt lat="48.9275" lon="4.57676">
        <ele>172.21</ele>
        <time>2021-08-09T19:15:14Z</time>
      </trkpt>
      <trkpt lat="48.92751" lon="4.5772">
        <ele>172.21</ele>
        <time>2021-08-09T19:15:22Z</time>
      </trkpt>
      <trkpt lat="48.92751" lon="4.57796">
        <ele>173.17</ele>
        <time>2021-08-09T19:15:35Z</time>
      </trkpt>
      <trkpt lat="48.92743" lon="4.57843">
        <ele>173.66</ele>
        <time>2021-08-09T19:15:43Z</time>
      </trkpt>
      <trkpt lat="48.92728" lon="4.57886">
        <ele>174.62</ele>
        <time>2021-08-09T19:15:52Z</time>
      </trkpt>
      <trkpt lat="48.92718" lon="4.57913">
        <ele>175.58</ele>
        <time>2021-08-09T19:15:58Z</time>
      </trkpt>
      <trkpt lat="48.92693" lon="4.57983">
        <ele>177.02</ele>
        <time>2021-08-09T19:16:12Z</time>
      </trkpt>
      <trkpt lat="48.9267" lon="4.58048">
        <ele>177.98</ele>
        <time>2021-08-09T19:16:25Z</time>
      </trkpt>
      <trkpt lat="48.92643" lon="4.58124">
        <ele>178.94</ele>
        <time>2021-08-09T19:16:39Z</time>
      </trkpt>
      <trkpt lat="48.92638" lon="4.58137">
        <ele>179.42</ele>
        <time>2021-08-09T19:16:44Z</time>
      </trkpt>
      <trkpt lat="48.92638" lon="4.58137">
        <ele>179.42</ele>
        <time>2021-08-09T19:16:55Z</time>
      </trkpt>
      <trkpt lat="48.92638" lon="4.58137">
        <ele>179.42</ele>
        <time>2021-08-09T19:17:12Z</time>
      </trkpt>
      <trkpt lat="48.92639" lon="4.58137">
        <ele>179.42</ele>
        <time>2021-08-09T19:17:21Z</time>
      </trkpt>
      <trkpt lat="48.9264" lon="4.58136">
        <ele>179.42</ele>
        <time>2021-08-09T19:17:31Z</time>
      </trkpt>
      <trkpt lat="48.92642" lon="4.58136">
        <ele>179.42</ele>
        <time>2021-08-09T19:17:51Z</time>
      </trkpt>
      <trkpt lat="48.92642" lon="4.58137">
        <ele>179.42</ele>
        <time>2021-08-09T19:18:06Z</time>
      </trkpt>
      <trkpt lat="48.92642" lon="4.58137">
        <ele>179.42</ele>
        <time>2021-08-09T19:18:20Z</time>
      </trkpt>
      <trkpt lat="48.92641" lon="4.58139">
        <ele>179.42</ele>
        <time>2021-08-09T19:18:32Z</time>
      </trkpt>
      <trkpt lat="48.92636" lon="4.58156">
        <ele>179.42</ele>
        <time>2021-08-09T19:18:37Z</time>
      </trkpt>
      <trkpt lat="48.9262" lon="4.58198">
        <ele>179.42</ele>
        <time>2021-08-09T19:18:45Z</time>
      </trkpt>
      <trkpt lat="48.92603" lon="4.58247">
        <ele>180.38</ele>
        <time>2021-08-09T19:18:54Z</time>
      </trkpt>
      <trkpt lat="48.92579" lon="4.58309">
        <ele>182.31</ele>
        <time>2021-08-09T19:19:06Z</time>
      </trkpt>
      <trkpt lat="48.92564" lon="4.58351">
        <ele>183.27</ele>
        <time>2021-08-09T19:19:15Z</time>
      </trkpt>
      <trkpt lat="48.92549" lon="4.58394">
        <ele>185.19</ele>
        <time>2021-08-09T19:19:25Z</time>
      </trkpt>
      <trkpt lat="48.92534" lon="4.58433">
        <ele>186.63</ele>
        <time>2021-08-09T19:19:35Z</time>
      </trkpt>
      <trkpt lat="48.9252" lon="4.58472">
        <ele>188.08</ele>
        <time>2021-08-09T19:19:45Z</time>
      </trkpt>
      <trkpt lat="48.92511" lon="4.58501">
        <ele>189.04</ele>
        <time>2021-08-09T19:19:53Z</time>
      </trkpt>
      <trkpt lat="48.925" lon="4.58535">
        <ele>190.96</ele>
        <time>2021-08-09T19:20:03Z</time>
      </trkpt>
      <trkpt lat="48.92485" lon="4.58573">
        <ele>192.4</ele>
        <time>2021-08-09T19:20:14Z</time>
      </trkpt>
      <trkpt lat="48.92468" lon="4.58617">
        <ele>193.36</ele>
        <time>2021-08-09T19:20:25Z</time>
      </trkpt>
      <trkpt lat="48.92453" lon="4.58659">
        <ele>194.8</ele>
        <time>2021-08-09T19:20:35Z</time>
      </trkpt>
      <trkpt lat="48.9244" lon="4.58692">
        <ele>194.8</ele>
        <time>2021-08-09T19:20:43Z</time>
      </trkpt>
      <trkpt lat="48.92437" lon="4.58694">
        <ele>194.8</ele>
        <time>2021-08-09T19:20:44Z</time>
      </trkpt>
      <trkpt lat="48.92434" lon="4.58694">
        <ele>194.8</ele>
        <time>2021-08-09T19:20:45Z</time>
      </trkpt>
      <trkpt lat="48.92431" lon="4.58692">
        <ele>195.28</ele>
        <time>2021-08-09T19:20:46Z</time>
      </trkpt>
      <trkpt lat="48.92428" lon="4.58689">
        <ele>195.28</ele>
        <time>2021-08-09T19:20:47Z</time>
      </trkpt>
      <trkpt lat="48.92426" lon="4.58685">
        <ele>195.28</ele>
        <time>2021-08-09T19:20:48Z</time>
      </trkpt>
      <trkpt lat="48.92424" lon="4.58681">
        <ele>195.28</ele>
        <time>2021-08-09T19:20:49Z</time>
      </trkpt>
      <trkpt lat="48.92422" lon="4.58677">
        <ele>195.28</ele>
        <time>2021-08-09T19:20:50Z</time>
      </trkpt>
      <trkpt lat="48.92415" lon="4.58653">
        <ele>195.77</ele>
        <time>2021-08-09T19:20:55Z</time>
      </trkpt>
      <trkpt lat="48.92409" lon="4.58625">
        <ele>195.77</ele>
        <time>2021-08-09T19:21:01Z</time>
      </trkpt>
      <trkpt lat="48.92392" lon="4.58579">
        <ele>195.77</ele>
        <time>2021-08-09T19:21:10Z</time>
      </trkpt>
      <trkpt lat="48.92374" lon="4.58526">
        <ele>195.77</ele>
        <time>2021-08-09T19:21:20Z</time>
      </trkpt>
      <trkpt lat="48.92356" lon="4.58479">
        <ele>195.77</ele>
        <time>2021-08-09T19:21:29Z</time>
      </trkpt>
      <trkpt lat="48.92339" lon="4.58433">
        <ele>195.77</ele>
        <time>2021-08-09T19:21:38Z</time>
      </trkpt>
      <trkpt lat="48.92333" lon="4.58418">
        <ele>195.77</ele>
        <time>2021-08-09T19:21:43Z</time>
      </trkpt>
      <trkpt lat="48.92332" lon="4.58421">
        <ele>195.77</ele>
        <time>2021-08-09T19:22:02Z</time>
      </trkpt>
      <trkpt lat="48.92333" lon="4.58419">
        <ele>196.25</ele>
        <time>2021-08-09T19:22:20Z</time>
      </trkpt>
      <trkpt lat="48.92329" lon="4.58415">
        <ele>196.25</ele>
        <time>2021-08-09T19:22:32Z</time>
      </trkpt>
      <trkpt lat="48.92321" lon="4.58392">
        <ele>196.25</ele>
        <time>2021-08-09T19:22:38Z</time>
      </trkpt>
      <trkpt lat="48.92308" lon="4.58358">
        <ele>196.25</ele>
        <time>2021-08-09T19:22:44Z</time>
      </trkpt>
      <trkpt lat="48.92289" lon="4.58302">
        <ele>196.25</ele>
        <time>2021-08-09T19:22:54Z</time>
      </trkpt>
      <trkpt lat="48.9227" lon="4.58246">
        <ele>194.32</ele>
        <time>2021-08-09T19:23:04Z</time>
      </trkpt>
      <trkpt lat="48.9225" lon="4.58191">
        <ele>193.84</ele>
        <time>2021-08-09T19:23:14Z</time>
      </trkpt>
      <trkpt lat="48.92226" lon="4.58122">
        <ele>193.36</ele>
        <time>2021-08-09T19:23:25Z</time>
      </trkpt>
      <trkpt lat="48.92203" lon="4.58062">
        <ele>192.88</ele>
        <time>2021-08-09T19:23:34Z</time>
      </trkpt>
      <trkpt lat="48.92189" lon="4.58011">
        <ele>191.92</ele>
        <time>2021-08-09T19:23:42Z</time>
      </trkpt>
      <trkpt lat="48.92186" lon="4.57994">
        <ele>192.4</ele>
        <time>2021-08-09T19:23:45Z</time>
      </trkpt>
      <trkpt lat="48.92182" lon="4.5794">
        <ele>190.96</ele>
        <time>2021-08-09T19:23:52Z</time>
      </trkpt>
      <trkpt lat="48.9217" lon="4.5788">
        <ele>190.48</ele>
        <time>2021-08-09T19:24:00Z</time>
      </trkpt>
      <trkpt lat="48.92148" lon="4.57811">
        <ele>189.52</ele>
        <time>2021-08-09T19:24:10Z</time>
      </trkpt>
      <trkpt lat="48.92118" lon="4.57719">
        <ele>188.56</ele>
        <time>2021-08-09T19:24:22Z</time>
      </trkpt>
      <trkpt lat="48.92088" lon="4.57627">
        <ele>187.59</ele>
        <time>2021-08-09T19:24:34Z</time>
      </trkpt>
      <trkpt lat="48.92059" lon="4.57543">
        <ele>186.63</ele>
        <time>2021-08-09T19:24:45Z</time>
      </trkpt>
      <trkpt lat="48.92035" lon="4.57472">
        <ele>185.67</ele>
        <time>2021-08-09T19:24:55Z</time>
      </trkpt>
      <trkpt lat="48.92017" lon="4.57412">
        <ele>185.19</ele>
        <time>2021-08-09T19:25:04Z</time>
      </trkpt>
      <trkpt lat="48.92008" lon="4.5738">
        <ele>184.71</ele>
        <time>2021-08-09T19:25:09Z</time>
      </trkpt>
      <trkpt lat="48.92007" lon="4.57374">
        <ele>184.71</ele>
        <time>2021-08-09T19:25:10Z</time>
      </trkpt>
      <trkpt lat="48.92005" lon="4.57369">
        <ele>184.71</ele>
        <time>2021-08-09T19:25:11Z</time>
      </trkpt>
      <trkpt lat="48.92003" lon="4.57364">
        <ele>184.71</ele>
        <time>2021-08-09T19:25:12Z</time>
      </trkpt>
      <trkpt lat="48.91999" lon="4.57361">
        <ele>184.71</ele>
        <time>2021-08-09T19:25:13Z</time>
      </trkpt>
      <trkpt lat="48.91996" lon="4.5736">
        <ele>184.71</ele>
        <time>2021-08-09T19:25:14Z</time>
      </trkpt>
      <trkpt lat="48.91992" lon="4.57361">
        <ele>184.71</ele>
        <time>2021-08-09T19:25:15Z</time>
      </trkpt>
      <trkpt lat="48.9199" lon="4.57363">
        <ele>184.71</ele>
        <time>2021-08-09T19:25:16Z</time>
      </trkpt>
      <trkpt lat="48.91986" lon="4.57365">
        <ele>184.23</ele>
        <time>2021-08-09T19:25:17Z</time>
      </trkpt>
      <trkpt lat="48.91979" lon="4.5737">
        <ele>184.23</ele>
        <time>2021-08-09T19:25:19Z</time>
      </trkpt>
      <trkpt lat="48.91945" lon="4.57398">
        <ele>184.23</ele>
        <time>2021-08-09T19:25:28Z</time>
      </trkpt>
      <trkpt lat="48.91905" lon="4.57429">
        <ele>181.83</ele>
        <time>2021-08-09T19:25:37Z</time>
      </trkpt>
      <trkpt lat="48.9186" lon="4.57464">
        <ele>178.46</ele>
        <time>2021-08-09T19:25:44Z</time>
      </trkpt>
      <trkpt lat="48.91823" lon="4.57492">
        <ele>175.58</ele>
        <time>2021-08-09T19:25:49Z</time>
      </trkpt>
      <trkpt lat="48.91782" lon="4.57524">
        <ele>172.21</ele>
        <time>2021-08-09T19:25:54Z</time>
      </trkpt>
      <trkpt lat="48.91748" lon="4.5755">
        <ele>169.81</ele>
        <time>2021-08-09T19:25:58Z</time>
      </trkpt>
      <trkpt lat="48.91708" lon="4.57583">
        <ele>171.73</ele>
        <time>2021-08-09T19:26:04Z</time>
      </trkpt>
      <trkpt lat="48.91685" lon="4.57602">
        <ele>173.66</ele>
        <time>2021-08-09T19:26:10Z</time>
      </trkpt>
      <trkpt lat="48.91662" lon="4.5762">
        <ele>175.1</ele>
        <time>2021-08-09T19:26:17Z</time>
      </trkpt>
      <trkpt lat="48.91632" lon="4.57644">
        <ele>176.06</ele>
        <time>2021-08-09T19:26:27Z</time>
      </trkpt>
      <trkpt lat="48.91593" lon="4.57675">
        <ele>176.06</ele>
        <time>2021-08-09T19:26:38Z</time>
      </trkpt>
      <trkpt lat="48.91563" lon="4.57698">
        <ele>175.1</ele>
        <time>2021-08-09T19:26:45Z</time>
      </trkpt>
      <trkpt lat="48.91522" lon="4.57731">
        <ele>172.21</ele>
        <time>2021-08-09T19:26:53Z</time>
      </trkpt>
      <trkpt lat="48.91481" lon="4.57764">
        <ele>169.33</ele>
        <time>2021-08-09T19:27:00Z</time>
      </trkpt>
      <trkpt lat="48.91468" lon="4.57774">
        <ele>168.85</ele>
        <time>2021-08-09T19:27:02Z</time>
      </trkpt>
      <trkpt lat="48.91427" lon="4.57806">
        <ele>165</ele>
        <time>2021-08-09T19:27:08Z</time>
      </trkpt>
      <trkpt lat="48.9142" lon="4.57812">
        <ele>165</ele>
        <time>2021-08-09T19:27:09Z</time>
      </trkpt>
      <trkpt lat="48.91384" lon="4.5784">
        <ele>162.12</ele>
        <time>2021-08-09T19:27:14Z</time>
      </trkpt>
      <trkpt lat="48.91377" lon="4.57846">
        <ele>161.64</ele>
        <time>2021-08-09T19:27:15Z</time>
      </trkpt>
      <trkpt lat="48.9133" lon="4.57884">
        <ele>158.75</ele>
        <time>2021-08-09T19:27:21Z</time>
      </trkpt>
      <trkpt lat="48.91258" lon="4.57941">
        <ele>156.83</ele>
        <time>2021-08-09T19:27:31Z</time>
      </trkpt>
      <trkpt lat="48.91182" lon="4.58002">
        <ele>152.99</ele>
        <time>2021-08-09T19:27:43Z</time>
      </trkpt>
      <trkpt lat="48.9114" lon="4.58035">
        <ele>150.1</ele>
        <time>2021-08-09T19:27:50Z</time>
      </trkpt>
      <trkpt lat="48.91097" lon="4.5807">
        <ele>146.26</ele>
        <time>2021-08-09T19:27:57Z</time>
      </trkpt>
      <trkpt lat="48.91091" lon="4.58075">
        <ele>146.26</ele>
        <time>2021-08-09T19:27:58Z</time>
      </trkpt>
      <trkpt lat="48.9105" lon="4.58108">
        <ele>142.89</ele>
        <time>2021-08-09T19:28:04Z</time>
      </trkpt>
      <trkpt lat="48.91014" lon="4.58137">
        <ele>139.05</ele>
        <time>2021-08-09T19:28:09Z</time>
      </trkpt>
      <trkpt lat="48.90977" lon="4.58167">
        <ele>135.68</ele>
        <time>2021-08-09T19:28:14Z</time>
      </trkpt>
      <trkpt lat="48.90969" lon="4.58173">
        <ele>135.68</ele>
        <time>2021-08-09T19:28:15Z</time>
      </trkpt>
      <trkpt lat="48.90937" lon="4.58198">
        <ele>132.8</ele>
        <time>2021-08-09T19:28:19Z</time>
      </trkpt>
      <trkpt lat="48.90891" lon="4.58235">
        <ele>129.92</ele>
        <time>2021-08-09T19:28:26Z</time>
      </trkpt>
      <trkpt lat="48.90855" lon="4.58265">
        <ele>127.51</ele>
        <time>2021-08-09T19:28:33Z</time>
      </trkpt>
      <trkpt lat="48.90851" lon="4.58267">
        <ele>127.51</ele>
        <time>2021-08-09T19:28:34Z</time>
      </trkpt>
      <trkpt lat="48.90847" lon="4.58268">
        <ele>127.51</ele>
        <time>2021-08-09T19:28:35Z</time>
      </trkpt>
      <trkpt lat="48.90841" lon="4.58268">
        <ele>127.03</ele>
        <time>2021-08-09T19:28:36Z</time>
      </trkpt>
      <trkpt lat="48.90837" lon="4.58266">
        <ele>127.03</ele>
        <time>2021-08-09T19:28:37Z</time>
      </trkpt>
      <trkpt lat="48.90833" lon="4.58262">
        <ele>127.03</ele>
        <time>2021-08-09T19:28:38Z</time>
      </trkpt>
      <trkpt lat="48.90829" lon="4.58257">
        <ele>127.03</ele>
        <time>2021-08-09T19:28:39Z</time>
      </trkpt>
      <trkpt lat="48.90827" lon="4.58252">
        <ele>126.55</ele>
        <time>2021-08-09T19:28:40Z</time>
      </trkpt>
      <trkpt lat="48.90824" lon="4.58246">
        <ele>126.55</ele>
        <time>2021-08-09T19:28:41Z</time>
      </trkpt>
      <trkpt lat="48.90822" lon="4.5824">
        <ele>126.55</ele>
        <time>2021-08-09T19:28:42Z</time>
      </trkpt>
      <trkpt lat="48.9082" lon="4.58233">
        <ele>126.55</ele>
        <time>2021-08-09T19:28:43Z</time>
      </trkpt>
      <trkpt lat="48.90818" lon="4.58225">
        <ele>126.55</ele>
        <time>2021-08-09T19:28:44Z</time>
      </trkpt>
      <trkpt lat="48.90798" lon="4.5816">
        <ele>126.55</ele>
        <time>2021-08-09T19:28:54Z</time>
      </trkpt>
      <trkpt lat="48.90785" lon="4.5812">
        <ele>126.55</ele>
        <time>2021-08-09T19:29:01Z</time>
      </trkpt>
      <trkpt lat="48.90782" lon="4.58115">
        <ele>126.55</ele>
        <time>2021-08-09T19:29:02Z</time>
      </trkpt>
      <trkpt lat="48.90778" lon="4.58111">
        <ele>125.59</ele>
        <time>2021-08-09T19:29:03Z</time>
      </trkpt>
      <trkpt lat="48.90774" lon="4.58109">
        <ele>125.59</ele>
        <time>2021-08-09T19:29:04Z</time>
      </trkpt>
      <trkpt lat="48.90769" lon="4.5811">
        <ele>125.59</ele>
        <time>2021-08-09T19:29:05Z</time>
      </trkpt>
      <trkpt lat="48.90764" lon="4.58113">
        <ele>125.59</ele>
        <time>2021-08-09T19:29:06Z</time>
      </trkpt>
      <trkpt lat="48.90759" lon="4.58117">
        <ele>124.63</ele>
        <time>2021-08-09T19:29:07Z</time>
      </trkpt>
      <trkpt lat="48.90754" lon="4.58122">
        <ele>124.63</ele>
        <time>2021-08-09T19:29:08Z</time>
      </trkpt>
      <trkpt lat="48.90712" lon="4.58164">
        <ele>122.71</ele>
        <time>2021-08-09T19:29:16Z</time>
      </trkpt>
      <trkpt lat="48.90654" lon="4.5822">
        <ele>121.26</ele>
        <time>2021-08-09T19:29:26Z</time>
      </trkpt>
      <trkpt lat="48.90598" lon="4.58255">
        <ele>118.38</ele>
        <time>2021-08-09T19:29:35Z</time>
      </trkpt>
      <trkpt lat="48.90558" lon="4.58279">
        <ele>115.5</ele>
        <time>2021-08-09T19:29:41Z</time>
      </trkpt>
      <trkpt lat="48.90539" lon="4.58294">
        <ele>114.05</ele>
        <time>2021-08-09T19:29:44Z</time>
      </trkpt>
      <trkpt lat="48.90489" lon="4.58337">
        <ele>111.17</ele>
        <time>2021-08-09T19:29:53Z</time>
      </trkpt>
      <trkpt lat="48.90446" lon="4.5837">
        <ele>109.25</ele>
        <time>2021-08-09T19:30:01Z</time>
      </trkpt>
      <trkpt lat="48.90418" lon="4.5839">
        <ele>107.32</ele>
        <time>2021-08-09T19:30:08Z</time>
      </trkpt>
      <trkpt lat="48.90416" lon="4.58391">
        <ele>106.84</ele>
        <time>2021-08-09T19:30:12Z</time>
      </trkpt>
      <trkpt lat="48.90416" lon="4.58392">
        <ele>107.32</ele>
        <time>2021-08-09T19:30:30Z</time>
      </trkpt>
      <trkpt lat="48.90415" lon="4.58391">
        <ele>107.32</ele>
        <time>2021-08-09T19:30:47Z</time>
      </trkpt>
      <trkpt lat="48.90415" lon="4.58393">
        <ele>107.32</ele>
        <time>2021-08-09T19:30:54Z</time>
      </trkpt>
      <trkpt lat="48.90414" lon="4.58394">
        <ele>107.32</ele>
        <time>2021-08-09T19:31:07Z</time>
      </trkpt>
      <trkpt lat="48.90415" lon="4.58394">
        <ele>107.32</ele>
        <time>2021-08-09T19:31:30Z</time>
      </trkpt>
      <trkpt lat="48.90417" lon="4.58394">
        <ele>106.84</ele>
        <time>2021-08-09T19:31:52Z</time>
      </trkpt>
      <trkpt lat="48.90417" lon="4.58391">
        <ele>106.84</ele>
        <time>2021-08-09T19:32:08Z</time>
      </trkpt>
      <trkpt lat="48.90416" lon="4.5839">
        <ele>106.84</ele>
        <time>2021-08-09T19:32:28Z</time>
      </trkpt>
      <trkpt lat="48.90416" lon="4.58391">
        <ele>106.84</ele>
        <time>2021-08-09T19:32:48Z</time>
      </trkpt>
      <trkpt lat="48.90416" lon="4.58391">
        <ele>106.84</ele>
        <time>2021-08-09T19:33:04Z</time>
      </trkpt>
      <trkpt lat="48.90416" lon="4.58391">
        <ele>106.84</ele>
        <time>2021-08-09T19:33:24Z</time>
      </trkpt>
      <trkpt lat="48.90417" lon="4.58391">
        <ele>106.84</ele>
        <time>2021-08-09T19:33:37Z</time>
      </trkpt>
      <trkpt lat="48.90416" lon="4.58392">
        <ele>106.84</ele>
        <time>2021-08-09T19:33:38Z</time>
      </trkpt>
      <trkpt lat="48.90415" lon="4.58393">
        <ele>106.84</ele>
        <time>2021-08-09T19:33:39Z</time>
      </trkpt>
      <trkpt lat="48.90415" lon="4.58395">
        <ele>106.84</ele>
        <time>2021-08-09T19:33:40Z</time>
      </trkpt>
      <trkpt lat="48.90415" lon="4.58398">
        <ele>106.36</ele>
        <time>2021-08-09T19:33:41Z</time>
      </trkpt>
      <trkpt lat="48.90414" lon="4.584">
        <ele>106.36</ele>
        <time>2021-08-09T19:33:42Z</time>
      </trkpt>
      <trkpt lat="48.90413" lon="4.58403">
        <ele>106.36</ele>
        <time>2021-08-09T19:33:43Z</time>
      </trkpt>
      <trkpt lat="48.90412" lon="4.58407">
        <ele>106.36</ele>
        <time>2021-08-09T19:33:44Z</time>
      </trkpt>
      <trkpt lat="48.90411" lon="4.58409">
        <ele>106.36</ele>
        <time>2021-08-09T19:33:45Z</time>
      </trkpt>
      <trkpt lat="48.90408" lon="4.58413">
        <ele>106.36</ele>
        <time>2021-08-09T19:33:46Z</time>
      </trkpt>
      <trkpt lat="48.90389" lon="4.58429">
        <ele>105.88</ele>
        <time>2021-08-09T19:33:53Z</time>
      </trkpt>
      <trkpt lat="48.90356" lon="4.58453">
        <ele>105.4</ele>
        <time>2021-08-09T19:34:02Z</time>
      </trkpt>
      <trkpt lat="48.90347" lon="4.58458">
        <ele>105.4</ele>
        <time>2021-08-09T19:34:04Z</time>
      </trkpt>
      <trkpt lat="48.90329" lon="4.58471">
        <ele>105.4</ele>
        <time>2021-08-09T19:34:10Z</time>
      </trkpt>
      <trkpt lat="48.90305" lon="4.58484">
        <ele>105.4</ele>
        <time>2021-08-09T19:34:16Z</time>
      </trkpt>
      <trkpt lat="48.90252" lon="4.58504">
        <ele>106.84</ele>
        <time>2021-08-09T19:34:29Z</time>
      </trkpt>
      <trkpt lat="48.90248" lon="4.58505">
        <ele>106.84</ele>
        <time>2021-08-09T19:34:30Z</time>
      </trkpt>
      <trkpt lat="48.90213" lon="4.58516">
        <ele>107.32</ele>
        <time>2021-08-09T19:34:39Z</time>
      </trkpt>
      <trkpt lat="48.90187" lon="4.58526">
        <ele>107.81</ele>
        <time>2021-08-09T19:34:47Z</time>
      </trkpt>
      <trkpt lat="48.9016" lon="4.58545">
        <ele>109.25</ele>
        <time>2021-08-09T19:34:57Z</time>
      </trkpt>
      <trkpt lat="48.90139" lon="4.58577">
        <ele>110.69</ele>
        <time>2021-08-09T19:35:07Z</time>
      </trkpt>
      <trkpt lat="48.90137" lon="4.58597">
        <ele>111.17</ele>
        <time>2021-08-09T19:35:13Z</time>
      </trkpt>
      <trkpt lat="48.90136" lon="4.58602">
        <ele>111.65</ele>
        <time>2021-08-09T19:35:15Z</time>
      </trkpt>
      <trkpt lat="48.90133" lon="4.58602">
        <ele>111.65</ele>
        <time>2021-08-09T19:35:17Z</time>
      </trkpt>
      <trkpt lat="48.90133" lon="4.586">
        <ele>111.65</ele>
        <time>2021-08-09T19:35:18Z</time>
      </trkpt>
      <trkpt lat="48.90133" lon="4.58597">
        <ele>111.65</ele>
        <time>2021-08-09T19:35:19Z</time>
      </trkpt>
      <trkpt lat="48.90133" lon="4.58594">
        <ele>111.65</ele>
        <time>2021-08-09T19:35:20Z</time>
      </trkpt>
      <trkpt lat="48.90132" lon="4.58589">
        <ele>111.65</ele>
        <time>2021-08-09T19:35:21Z</time>
      </trkpt>
      <trkpt lat="48.90131" lon="4.58585">
        <ele>111.65</ele>
        <time>2021-08-09T19:35:22Z</time>
      </trkpt>
      <trkpt lat="48.90129" lon="4.58582">
        <ele>112.13</ele>
        <time>2021-08-09T19:35:23Z</time>
      </trkpt>
      <trkpt lat="48.90127" lon="4.58579">
        <ele>112.13</ele>
        <time>2021-08-09T19:35:24Z</time>
      </trkpt>
      <trkpt lat="48.90125" lon="4.58577">
        <ele>112.13</ele>
        <time>2021-08-09T19:35:25Z</time>
      </trkpt>
      <trkpt lat="48.90122" lon="4.58576">
        <ele>112.13</ele>
        <time>2021-08-09T19:35:26Z</time>
      </trkpt>
      <trkpt lat="48.9012" lon="4.58575">
        <ele>112.61</ele>
        <time>2021-08-09T19:35:27Z</time>
      </trkpt>
      <trkpt lat="48.90103" lon="4.58561">
        <ele>114.05</ele>
        <time>2021-08-09T19:35:35Z</time>
      </trkpt>
      <trkpt lat="48.90083" lon="4.58539">
        <ele>115.01</ele>
        <time>2021-08-09T19:35:44Z</time>
      </trkpt>
      <trkpt lat="48.90063" lon="4.58518">
        <ele>115.5</ele>
        <time>2021-08-09T19:35:53Z</time>
      </trkpt>
      <trkpt lat="48.90061" lon="4.58504">
        <ele>115.98</ele>
        <time>2021-08-09T19:35:59Z</time>
      </trkpt>
      <trkpt lat="48.90059" lon="4.58502">
        <ele>116.46</ele>
        <time>2021-08-09T19:36:02Z</time>
      </trkpt>
      <trkpt lat="48.90057" lon="4.58502">
        <ele>116.46</ele>
        <time>2021-08-09T19:36:04Z</time>
      </trkpt>
      <trkpt lat="48.90056" lon="4.58505">
        <ele>116.46</ele>
        <time>2021-08-09T19:36:06Z</time>
      </trkpt>
      <trkpt lat="48.90056" lon="4.58507">
        <ele>116.46</ele>
        <time>2021-08-09T19:36:07Z</time>
      </trkpt>
      <trkpt lat="48.90059" lon="4.58504">
        <ele>116.46</ele>
        <time>2021-08-09T19:36:11Z</time>
      </trkpt>
      <trkpt lat="48.90062" lon="4.58504">
        <ele>116.46</ele>
        <time>2021-08-09T19:36:13Z</time>
      </trkpt>
      <trkpt lat="48.90063" lon="4.58503">
        <ele>116.46</ele>
        <time>2021-08-09T19:36:14Z</time>
      </trkpt>
      <trkpt lat="48.90065" lon="4.58504">
        <ele>116.46</ele>
        <time>2021-08-09T19:36:20Z</time>
      </trkpt>
      <trkpt lat="48.90067" lon="4.58501">
        <ele>116.46</ele>
        <time>2021-08-09T19:36:25Z</time>
      </trkpt>
      <trkpt lat="48.90066" lon="4.58499">
        <ele>116.46</ele>
        <time>2021-08-09T19:36:26Z</time>
      </trkpt>
      <trkpt lat="48.90065" lon="4.58499">
        <ele>116.46</ele>
        <time>2021-08-09T19:36:27Z</time>
      </trkpt>
      <trkpt lat="48.90063" lon="4.58499">
        <ele>116.46</ele>
        <time>2021-08-09T19:36:28Z</time>
      </trkpt>
      <trkpt lat="48.90062" lon="4.58501">
        <ele>116.46</ele>
        <time>2021-08-09T19:36:29Z</time>
      </trkpt>
      <trkpt lat="48.90061" lon="4.58502">
        <ele>116.46</ele>
        <time>2021-08-09T19:36:30Z</time>
      </trkpt>
      <trkpt lat="48.9006" lon="4.58502">
        <ele>116.46</ele>
        <time>2021-08-09T19:36:31Z</time>
      </trkpt>
      <trkpt lat="48.90059" lon="4.58503">
        <ele>116.46</ele>
        <time>2021-08-09T19:36:32Z</time>
      </trkpt>
      <trkpt lat="48.90058" lon="4.58501">
        <ele>116.46</ele>
        <time>2021-08-09T19:36:33Z</time>
      </trkpt>
      <trkpt lat="48.90057" lon="4.58499">
        <ele>116.46</ele>
        <time>2021-08-09T19:36:34Z</time>
      </trkpt>
      <trkpt lat="48.90056" lon="4.58497">
        <ele>116.46</ele>
        <time>2021-08-09T19:36:35Z</time>
      </trkpt>
      <trkpt lat="48.90047" lon="4.58465">
        <ele>116.46</ele>
        <time>2021-08-09T19:36:42Z</time>
      </trkpt>
      <trkpt lat="48.9003" lon="4.58406">
        <ele>116.46</ele>
        <time>2021-08-09T19:36:52Z</time>
      </trkpt>
      <trkpt lat="48.90013" lon="4.58353">
        <ele>115.01</ele>
        <time>2021-08-09T19:37:02Z</time>
      </trkpt>
      <trkpt lat="48.89999" lon="4.58303">
        <ele>115.01</ele>
        <time>2021-08-09T19:37:11Z</time>
      </trkpt>
      <trkpt lat="48.89982" lon="4.58245">
        <ele>114.05</ele>
        <time>2021-08-09T19:37:20Z</time>
      </trkpt>
      <trkpt lat="48.89978" lon="4.58231">
        <ele>114.05</ele>
        <time>2021-08-09T19:37:22Z</time>
      </trkpt>
      <trkpt lat="48.89976" lon="4.58225">
        <ele>114.05</ele>
        <time>2021-08-09T19:37:23Z</time>
      </trkpt>
      <trkpt lat="48.89956" lon="4.58158">
        <ele>112.61</ele>
        <time>2021-08-09T19:37:32Z</time>
      </trkpt>
      <trkpt lat="48.89929" lon="4.58067">
        <ele>111.65</ele>
        <time>2021-08-09T19:37:43Z</time>
      </trkpt>
      <trkpt lat="48.899" lon="4.57974">
        <ele>111.65</ele>
        <time>2021-08-09T19:37:55Z</time>
      </trkpt>
      <trkpt lat="48.89867" lon="4.57863">
        <ele>111.17</ele>
        <time>2021-08-09T19:38:09Z</time>
      </trkpt>
      <trkpt lat="48.8984" lon="4.57767">
        <ele>110.69</ele>
        <time>2021-08-09T19:38:21Z</time>
      </trkpt>
      <trkpt lat="48.89814" lon="4.57666">
        <ele>109.73</ele>
        <time>2021-08-09T19:38:33Z</time>
      </trkpt>
      <trkpt lat="48.89788" lon="4.57578">
        <ele>109.73</ele>
        <time>2021-08-09T19:38:44Z</time>
      </trkpt>
      <trkpt lat="48.8976" lon="4.57512">
        <ele>109.73</ele>
        <time>2021-08-09T19:38:54Z</time>
      </trkpt>
      <trkpt lat="48.89732" lon="4.57442">
        <ele>109.73</ele>
        <time>2021-08-09T19:39:04Z</time>
      </trkpt>
      <trkpt lat="48.89711" lon="4.57359">
        <ele>109.73</ele>
        <time>2021-08-09T19:39:15Z</time>
      </trkpt>
      <trkpt lat="48.89699" lon="4.5729">
        <ele>109.73</ele>
        <time>2021-08-09T19:39:24Z</time>
      </trkpt>
      <trkpt lat="48.89687" lon="4.57219">
        <ele>109.73</ele>
        <time>2021-08-09T19:39:33Z</time>
      </trkpt>
      <trkpt lat="48.89673" lon="4.57153">
        <ele>109.73</ele>
        <time>2021-08-09T19:39:42Z</time>
      </trkpt>
      <trkpt lat="48.89653" lon="4.57082">
        <ele>109.25</ele>
        <time>2021-08-09T19:39:52Z</time>
      </trkpt>
      <trkpt lat="48.89636" lon="4.57022">
        <ele>109.25</ele>
        <time>2021-08-09T19:40:01Z</time>
      </trkpt>
      <trkpt lat="48.89617" lon="4.56941">
        <ele>109.25</ele>
        <time>2021-08-09T19:40:12Z</time>
      </trkpt>
      <trkpt lat="48.89603" lon="4.56848">
        <ele>109.25</ele>
        <time>2021-08-09T19:40:24Z</time>
      </trkpt>
      <trkpt lat="48.89591" lon="4.56752">
        <ele>108.77</ele>
        <time>2021-08-09T19:40:36Z</time>
      </trkpt>
      <trkpt lat="48.89576" lon="4.56671">
        <ele>108.29</ele>
        <time>2021-08-09T19:40:46Z</time>
      </trkpt>
      <trkpt lat="48.89566" lon="4.56626">
        <ele>108.29</ele>
        <time>2021-08-09T19:40:52Z</time>
      </trkpt>
      <trkpt lat="48.89564" lon="4.56618">
        <ele>108.29</ele>
        <time>2021-08-09T19:40:53Z</time>
      </trkpt>
      <trkpt lat="48.89544" lon="4.56538">
        <ele>107.81</ele>
        <time>2021-08-09T19:41:03Z</time>
      </trkpt>
      <trkpt lat="48.89524" lon="4.56468">
        <ele>107.81</ele>
        <time>2021-08-09T19:41:13Z</time>
      </trkpt>
      <trkpt lat="48.89497" lon="4.56385">
        <ele>107.81</ele>
        <time>2021-08-09T19:41:25Z</time>
      </trkpt>
      <trkpt lat="48.89479" lon="4.56324">
        <ele>107.81</ele>
        <time>2021-08-09T19:41:34Z</time>
      </trkpt>
      <trkpt lat="48.89464" lon="4.5627">
        <ele>107.32</ele>
        <time>2021-08-09T19:41:42Z</time>
      </trkpt>
      <trkpt lat="48.89452" lon="4.56232">
        <ele>107.32</ele>
        <time>2021-08-09T19:41:50Z</time>
      </trkpt>
      <trkpt lat="48.89443" lon="4.56206">
        <ele>107.32</ele>
        <time>2021-08-09T19:41:55Z</time>
      </trkpt>
      <trkpt lat="48.89424" lon="4.56163">
        <ele>107.32</ele>
        <time>2021-08-09T19:42:04Z</time>
      </trkpt>
      <trkpt lat="48.894" lon="4.561">
        <ele>107.32</ele>
        <time>2021-08-09T19:42:16Z</time>
      </trkpt>
      <trkpt lat="48.89391" lon="4.56058">
        <ele>106.84</ele>
        <time>2021-08-09T19:42:22Z</time>
      </trkpt>
      <trkpt lat="48.89376" lon="4.55988">
        <ele>106.36</ele>
        <time>2021-08-09T19:42:31Z</time>
      </trkpt>
      <trkpt lat="48.89363" lon="4.55931">
        <ele>105.88</ele>
        <time>2021-08-09T19:42:39Z</time>
      </trkpt>
      <trkpt lat="48.8935" lon="4.55888">
        <ele>104.92</ele>
        <time>2021-08-09T19:42:47Z</time>
      </trkpt>
      <trkpt lat="48.89336" lon="4.55831">
        <ele>103.48</ele>
        <time>2021-08-09T19:42:56Z</time>
      </trkpt>
      <trkpt lat="48.89335" lon="4.55824">
        <ele>103.48</ele>
        <time>2021-08-09T19:42:57Z</time>
      </trkpt>
      <trkpt lat="48.89336" lon="4.55818">
        <ele>103.48</ele>
        <time>2021-08-09T19:42:58Z</time>
      </trkpt>
      <trkpt lat="48.89337" lon="4.55814">
        <ele>103</ele>
        <time>2021-08-09T19:42:59Z</time>
      </trkpt>
      <trkpt lat="48.89338" lon="4.5581">
        <ele>103</ele>
        <time>2021-08-09T19:43:00Z</time>
      </trkpt>
      <trkpt lat="48.8934" lon="4.55806">
        <ele>103</ele>
        <time>2021-08-09T19:43:01Z</time>
      </trkpt>
      <trkpt lat="48.8934" lon="4.55803">
        <ele>103</ele>
        <time>2021-08-09T19:43:02Z</time>
      </trkpt>
      <trkpt lat="48.89339" lon="4.55798">
        <ele>103</ele>
        <time>2021-08-09T19:43:03Z</time>
      </trkpt>
      <trkpt lat="48.89337" lon="4.55797">
        <ele>103</ele>
        <time>2021-08-09T19:43:04Z</time>
      </trkpt>
      <trkpt lat="48.89335" lon="4.55797">
        <ele>103</ele>
        <time>2021-08-09T19:43:05Z</time>
      </trkpt>
      <trkpt lat="48.89334" lon="4.558">
        <ele>103</ele>
        <time>2021-08-09T19:43:06Z</time>
      </trkpt>
      <trkpt lat="48.89334" lon="4.55804">
        <ele>103</ele>
        <time>2021-08-09T19:43:07Z</time>
      </trkpt>
      <trkpt lat="48.89335" lon="4.55807">
        <ele>103</ele>
        <time>2021-08-09T19:43:08Z</time>
      </trkpt>
      <trkpt lat="48.89339" lon="4.55842">
        <ele>103</ele>
        <time>2021-08-09T19:43:16Z</time>
      </trkpt>
      <trkpt lat="48.89352" lon="4.55888">
        <ele>104.92</ele>
        <time>2021-08-09T19:43:27Z</time>
      </trkpt>
      <trkpt lat="48.89364" lon="4.55931">
        <ele>105.4</ele>
        <time>2021-08-09T19:43:39Z</time>
      </trkpt>
      <trkpt lat="48.89374" lon="4.55969">
        <ele>105.4</ele>
        <time>2021-08-09T19:43:48Z</time>
      </trkpt>
      <trkpt lat="48.89385" lon="4.56016">
        <ele>105.88</ele>
        <time>2021-08-09T19:43:57Z</time>
      </trkpt>
      <trkpt lat="48.89392" lon="4.56056">
        <ele>106.84</ele>
        <time>2021-08-09T19:44:04Z</time>
      </trkpt>
      <trkpt lat="48.89396" lon="4.56104">
        <ele>107.32</ele>
        <time>2021-08-09T19:44:12Z</time>
      </trkpt>
      <trkpt lat="48.89391" lon="4.56113">
        <ele>107.32</ele>
        <time>2021-08-09T19:44:14Z</time>
      </trkpt>
      <trkpt lat="48.89388" lon="4.56116">
        <ele>107.81</ele>
        <time>2021-08-09T19:44:15Z</time>
      </trkpt>
      <trkpt lat="48.89385" lon="4.56119">
        <ele>107.81</ele>
        <time>2021-08-09T19:44:16Z</time>
      </trkpt>
      <trkpt lat="48.89381" lon="4.56121">
        <ele>107.81</ele>
        <time>2021-08-09T19:44:17Z</time>
      </trkpt>
      <trkpt lat="48.89378" lon="4.56123">
        <ele>107.81</ele>
        <time>2021-08-09T19:44:18Z</time>
      </trkpt>
      <trkpt lat="48.89374" lon="4.56125">
        <ele>107.81</ele>
        <time>2021-08-09T19:44:19Z</time>
      </trkpt>
      <trkpt lat="48.89343" lon="4.56144">
        <ele>108.77</ele>
        <time>2021-08-09T19:44:28Z</time>
      </trkpt>
      <trkpt lat="48.8932" lon="4.5616">
        <ele>109.25</ele>
        <time>2021-08-09T19:44:35Z</time>
      </trkpt>
      <trkpt lat="48.89295" lon="4.56171">
        <ele>109.73</ele>
        <time>2021-08-09T19:44:42Z</time>
      </trkpt>
      <trkpt lat="48.89286" lon="4.56158">
        <ele>111.17</ele>
        <time>2021-08-09T19:44:46Z</time>
      </trkpt>
      <trkpt lat="48.89281" lon="4.56122">
        <ele>113.09</ele>
        <time>2021-08-09T19:44:54Z</time>
      </trkpt>
      <trkpt lat="48.89273" lon="4.56058">
        <ele>112.61</ele>
        <time>2021-08-09T19:45:05Z</time>
      </trkpt>
      <trkpt lat="48.89261" lon="4.56013">
        <ele>112.61</ele>
        <time>2021-08-09T19:45:14Z</time>
      </trkpt>
      <trkpt lat="48.89254" lon="4.55978">
        <ele>111.65</ele>
        <time>2021-08-09T19:45:23Z</time>
      </trkpt>
      <trkpt lat="48.89255" lon="4.55966">
        <ele>110.69</ele>
        <time>2021-08-09T19:45:27Z</time>
      </trkpt>
      <trkpt lat="48.89256" lon="4.55964">
        <ele>110.69</ele>
        <time>2021-08-09T19:45:28Z</time>
      </trkpt>
      <trkpt lat="48.89257" lon="4.55963">
        <ele>110.21</ele>
        <time>2021-08-09T19:45:33Z</time>
      </trkpt>
      <trkpt lat="48.89255" lon="4.55962">
        <ele>110.21</ele>
        <time>2021-08-09T19:45:41Z</time>
      </trkpt>
      <trkpt lat="48.89254" lon="4.55962">
        <ele>110.21</ele>
        <time>2021-08-09T19:45:42Z</time>
      </trkpt>
      <trkpt lat="48.89253" lon="4.55963">
        <ele>110.21</ele>
        <time>2021-08-09T19:45:43Z</time>
      </trkpt>
      <trkpt lat="48.89252" lon="4.55965">
        <ele>110.21</ele>
        <time>2021-08-09T19:45:44Z</time>
      </trkpt>
      <trkpt lat="48.89254" lon="4.55974">
        <ele>110.69</ele>
        <time>2021-08-09T19:45:48Z</time>
      </trkpt>
      <trkpt lat="48.89257" lon="4.55983">
        <ele>110.69</ele>
        <time>2021-08-09T19:45:51Z</time>
      </trkpt>
      <trkpt lat="48.89258" lon="4.55985">
        <ele>110.69</ele>
        <time>2021-08-09T19:45:52Z</time>
      </trkpt>
      <trkpt lat="48.89259" lon="4.55987">
        <ele>110.69</ele>
        <time>2021-08-09T19:45:53Z</time>
      </trkpt>
      <trkpt lat="48.89259" lon="4.55988">
        <ele>111.65</ele>
        <time>2021-08-09T19:45:54Z</time>
      </trkpt>
      <trkpt lat="48.8926" lon="4.5599">
        <ele>111.65</ele>
        <time>2021-08-09T19:45:55Z</time>
      </trkpt>
      <trkpt lat="48.89261" lon="4.55993">
        <ele>111.65</ele>
        <time>2021-08-09T19:45:56Z</time>
      </trkpt>
      <trkpt lat="48.89262" lon="4.55995">
        <ele>111.65</ele>
        <time>2021-08-09T19:45:57Z</time>
      </trkpt>
      <trkpt lat="48.89263" lon="4.55998">
        <ele>111.65</ele>
        <time>2021-08-09T19:45:58Z</time>
      </trkpt>
      <trkpt lat="48.89264" lon="4.56001">
        <ele>112.13</ele>
        <time>2021-08-09T19:45:59Z</time>
      </trkpt>
      <trkpt lat="48.89265" lon="4.56003">
        <ele>112.13</ele>
        <time>2021-08-09T19:46:00Z</time>
      </trkpt>
      <trkpt lat="48.89265" lon="4.56005">
        <ele>112.13</ele>
        <time>2021-08-09T19:46:01Z</time>
      </trkpt>
      <trkpt lat="48.89265" lon="4.56008">
        <ele>112.13</ele>
        <time>2021-08-09T19:46:02Z</time>
      </trkpt>
      <trkpt lat="48.89265" lon="4.5601">
        <ele>112.13</ele>
        <time>2021-08-09T19:46:03Z</time>
      </trkpt>
      <trkpt lat="48.89265" lon="4.56013">
        <ele>112.13</ele>
        <time>2021-08-09T19:46:04Z</time>
      </trkpt>
      <trkpt lat="48.89265" lon="4.56015">
        <ele>112.13</ele>
        <time>2021-08-09T19:46:05Z</time>
      </trkpt>
      <trkpt lat="48.8927" lon="4.56041">
        <ele>112.13</ele>
        <time>2021-08-09T19:46:11Z</time>
      </trkpt>
      <trkpt lat="48.89282" lon="4.56098">
        <ele>112.61</ele>
        <time>2021-08-09T19:46:22Z</time>
      </trkpt>
      <trkpt lat="48.89284" lon="4.56142">
        <ele>113.09</ele>
        <time>2021-08-09T19:46:30Z</time>
      </trkpt>
      <trkpt lat="48.89281" lon="4.5617">
        <ele>111.65</ele>
        <time>2021-08-09T19:46:35Z</time>
      </trkpt>
      <trkpt lat="48.8928" lon="4.56177">
        <ele>110.69</ele>
        <time>2021-08-09T19:46:36Z</time>
      </trkpt>
      <trkpt lat="48.89277" lon="4.56184">
        <ele>110.69</ele>
        <time>2021-08-09T19:46:37Z</time>
      </trkpt>
      <trkpt lat="48.89273" lon="4.56191">
        <ele>110.69</ele>
        <time>2021-08-09T19:46:38Z</time>
      </trkpt>
      <trkpt lat="48.89269" lon="4.56195">
        <ele>110.69</ele>
        <time>2021-08-09T19:46:39Z</time>
      </trkpt>
      <trkpt lat="48.89265" lon="4.56198">
        <ele>110.69</ele>
        <time>2021-08-09T19:46:40Z</time>
      </trkpt>
      <trkpt lat="48.8926" lon="4.56201">
        <ele>110.69</ele>
        <time>2021-08-09T19:46:41Z</time>
      </trkpt>
      <trkpt lat="48.89218" lon="4.5623">
        <ele>110.69</ele>
        <time>2021-08-09T19:46:51Z</time>
      </trkpt>
      <trkpt lat="48.89185" lon="4.56258">
        <ele>112.13</ele>
        <time>2021-08-09T19:47:00Z</time>
      </trkpt>
      <trkpt lat="48.89146" lon="4.56296">
        <ele>113.57</ele>
        <time>2021-08-09T19:47:12Z</time>
      </trkpt>
      <trkpt lat="48.89113" lon="4.56333">
        <ele>115.01</ele>
        <time>2021-08-09T19:47:24Z</time>
      </trkpt>
      <trkpt lat="48.89088" lon="4.56363">
        <ele>116.94</ele>
        <time>2021-08-09T19:47:34Z</time>
      </trkpt>
      <trkpt lat="48.89061" lon="4.56399">
        <ele>118.38</ele>
        <time>2021-08-09T19:47:46Z</time>
      </trkpt>
      <trkpt lat="48.89032" lon="4.5644">
        <ele>120.78</ele>
        <time>2021-08-09T19:47:59Z</time>
      </trkpt>
      <trkpt lat="48.89004" lon="4.56477">
        <ele>122.22</ele>
        <time>2021-08-09T19:48:11Z</time>
      </trkpt>
      <trkpt lat="48.88984" lon="4.56511">
        <ele>123.67</ele>
        <time>2021-08-09T19:48:21Z</time>
      </trkpt>
      <trkpt lat="48.88971" lon="4.56548">
        <ele>125.11</ele>
        <time>2021-08-09T19:48:31Z</time>
      </trkpt>
      <trkpt lat="48.88957" lon="4.56594">
        <ele>127.51</ele>
        <time>2021-08-09T19:48:44Z</time>
      </trkpt>
      <trkpt lat="48.88944" lon="4.56628">
        <ele>129.43</ele>
        <time>2021-08-09T19:48:55Z</time>
      </trkpt>
      <trkpt lat="48.88927" lon="4.56657">
        <ele>131.84</ele>
        <time>2021-08-09T19:49:07Z</time>
      </trkpt>
      <trkpt lat="48.88912" lon="4.56676">
        <ele>133.76</ele>
        <time>2021-08-09T19:49:16Z</time>
      </trkpt>
      <trkpt lat="48.88892" lon="4.56696">
        <ele>135.2</ele>
        <time>2021-08-09T19:49:27Z</time>
      </trkpt>
      <trkpt lat="48.88874" lon="4.56714">
        <ele>136.64</ele>
        <time>2021-08-09T19:49:36Z</time>
      </trkpt>
      <trkpt lat="48.88854" lon="4.56731">
        <ele>138.57</ele>
        <time>2021-08-09T19:49:45Z</time>
      </trkpt>
      <trkpt lat="48.88829" lon="4.5675">
        <ele>140.49</ele>
        <time>2021-08-09T19:49:56Z</time>
      </trkpt>
      <trkpt lat="48.88806" lon="4.56766">
        <ele>142.41</ele>
        <time>2021-08-09T19:50:06Z</time>
      </trkpt>
      <trkpt lat="48.88779" lon="4.56784">
        <ele>143.85</ele>
        <time>2021-08-09T19:50:17Z</time>
      </trkpt>
      <trkpt lat="48.88747" lon="4.56803">
        <ele>146.26</ele>
        <time>2021-08-09T19:50:30Z</time>
      </trkpt>
      <trkpt lat="48.88717" lon="4.56817">
        <ele>148.18</ele>
        <time>2021-08-09T19:50:42Z</time>
      </trkpt>
      <trkpt lat="48.88692" lon="4.56827">
        <ele>148.66</ele>
        <time>2021-08-09T19:50:51Z</time>
      </trkpt>
      <trkpt lat="48.88656" lon="4.5684">
        <ele>151.06</ele>
        <time>2021-08-09T19:51:04Z</time>
      </trkpt>
      <trkpt lat="48.88625" lon="4.56853">
        <ele>151.54</ele>
        <time>2021-08-09T19:51:15Z</time>
      </trkpt>
      <trkpt lat="48.88591" lon="4.56868">
        <ele>152.99</ele>
        <time>2021-08-09T19:51:26Z</time>
      </trkpt>
      <trkpt lat="48.88558" lon="4.56887">
        <ele>154.43</ele>
        <time>2021-08-09T19:51:37Z</time>
      </trkpt>
      <trkpt lat="48.88533" lon="4.56899">
        <ele>155.39</ele>
        <time>2021-08-09T19:51:45Z</time>
      </trkpt>
      <trkpt lat="48.88498" lon="4.5692">
        <ele>156.35</ele>
        <time>2021-08-09T19:51:56Z</time>
      </trkpt>
      <trkpt lat="48.88462" lon="4.56941">
        <ele>157.31</ele>
        <time>2021-08-09T19:52:07Z</time>
      </trkpt>
      <trkpt lat="48.88417" lon="4.56968">
        <ele>158.75</ele>
        <time>2021-08-09T19:52:20Z</time>
      </trkpt>
      <trkpt lat="48.88377" lon="4.57006">
        <ele>159.24</ele>
        <time>2021-08-09T19:52:32Z</time>
      </trkpt>
      <trkpt lat="48.88348" lon="4.57042">
        <ele>159.72</ele>
        <time>2021-08-09T19:52:41Z</time>
      </trkpt>
      <trkpt lat="48.88312" lon="4.57088">
        <ele>160.68</ele>
        <time>2021-08-09T19:52:52Z</time>
      </trkpt>
      <trkpt lat="48.88299" lon="4.57107">
        <ele>161.16</ele>
        <time>2021-08-09T19:52:56Z</time>
      </trkpt>
      <trkpt lat="48.88274" lon="4.57143">
        <ele>162.6</ele>
        <time>2021-08-09T19:53:04Z</time>
      </trkpt>
      <trkpt lat="48.88254" lon="4.57175">
        <ele>164.04</ele>
        <time>2021-08-09T19:53:13Z</time>
      </trkpt>
      <trkpt lat="48.88227" lon="4.5722">
        <ele>165.96</ele>
        <time>2021-08-09T19:53:26Z</time>
      </trkpt>
      <trkpt lat="48.88205" lon="4.57263">
        <ele>167.89</ele>
        <time>2021-08-09T19:53:38Z</time>
      </trkpt>
      <trkpt lat="48.88191" lon="4.5729">
        <ele>169.33</ele>
        <time>2021-08-09T19:53:47Z</time>
      </trkpt>
      <trkpt lat="48.88179" lon="4.57319">
        <ele>170.77</ele>
        <time>2021-08-09T19:53:55Z</time>
      </trkpt>
      <trkpt lat="48.88162" lon="4.57363">
        <ele>172.21</ele>
        <time>2021-08-09T19:54:06Z</time>
      </trkpt>
      <trkpt lat="48.88146" lon="4.57406">
        <ele>173.66</ele>
        <time>2021-08-09T19:54:16Z</time>
      </trkpt>
      <trkpt lat="48.88125" lon="4.57455">
        <ele>174.62</ele>
        <time>2021-08-09T19:54:27Z</time>
      </trkpt>
      <trkpt lat="48.88103" lon="4.575">
        <ele>175.1</ele>
        <time>2021-08-09T19:54:37Z</time>
      </trkpt>
      <trkpt lat="48.8807" lon="4.57564">
        <ele>176.06</ele>
        <time>2021-08-09T19:54:51Z</time>
      </trkpt>
      <trkpt lat="48.88046" lon="4.57616">
        <ele>176.54</ele>
        <time>2021-08-09T19:55:02Z</time>
      </trkpt>
      <trkpt lat="48.88031" lon="4.57672">
        <ele>176.54</ele>
        <time>2021-08-09T19:55:13Z</time>
      </trkpt>
      <trkpt lat="48.88029" lon="4.57691">
        <ele>176.54</ele>
        <time>2021-08-09T19:55:16Z</time>
      </trkpt>
      <trkpt lat="48.88029" lon="4.57706">
        <ele>175.1</ele>
        <time>2021-08-09T19:55:18Z</time>
      </trkpt>
      <trkpt lat="48.88028" lon="4.57727">
        <ele>174.62</ele>
        <time>2021-08-09T19:55:21Z</time>
      </trkpt>
      <trkpt lat="48.88027" lon="4.57734">
        <ele>174.62</ele>
        <time>2021-08-09T19:55:22Z</time>
      </trkpt>
      <trkpt lat="48.88025" lon="4.57763">
        <ele>174.62</ele>
        <time>2021-08-09T19:55:26Z</time>
      </trkpt>
      <trkpt lat="48.8802" lon="4.57791">
        <ele>174.14</ele>
        <time>2021-08-09T19:55:30Z</time>
      </trkpt>
      <trkpt lat="48.88013" lon="4.57811">
        <ele>173.66</ele>
        <time>2021-08-09T19:55:33Z</time>
      </trkpt>
      <trkpt lat="48.88011" lon="4.57817">
        <ele>173.66</ele>
        <time>2021-08-09T19:55:34Z</time>
      </trkpt>
      <trkpt lat="48.88009" lon="4.57823">
        <ele>173.66</ele>
        <time>2021-08-09T19:55:35Z</time>
      </trkpt>
      <trkpt lat="48.88003" lon="4.5784">
        <ele>173.66</ele>
        <time>2021-08-09T19:55:38Z</time>
      </trkpt>
      <trkpt lat="48.87993" lon="4.57861">
        <ele>173.66</ele>
        <time>2021-08-09T19:55:42Z</time>
      </trkpt>
      <trkpt lat="48.87978" lon="4.57897">
        <ele>173.66</ele>
        <time>2021-08-09T19:55:49Z</time>
      </trkpt>
      <trkpt lat="48.87971" lon="4.5791">
        <ele>173.17</ele>
        <time>2021-08-09T19:55:53Z</time>
      </trkpt>
      <trkpt lat="48.87971" lon="4.57911">
        <ele>173.17</ele>
        <time>2021-08-09T19:56:02Z</time>
      </trkpt>
      <trkpt lat="48.8797" lon="4.57912">
        <ele>173.17</ele>
        <time>2021-08-09T19:56:03Z</time>
      </trkpt>
      <trkpt lat="48.87963" lon="4.57929">
        <ele>173.17</ele>
        <time>2021-08-09T19:56:08Z</time>
      </trkpt>
      <trkpt lat="48.87941" lon="4.57976">
        <ele>172.69</ele>
        <time>2021-08-09T19:56:17Z</time>
      </trkpt>
      <trkpt lat="48.87914" lon="4.58032">
        <ele>172.21</ele>
        <time>2021-08-09T19:56:26Z</time>
      </trkpt>
      <trkpt lat="48.87885" lon="4.58095">
        <ele>172.21</ele>
        <time>2021-08-09T19:56:36Z</time>
      </trkpt>
      <trkpt lat="48.87854" lon="4.5816">
        <ele>172.69</ele>
        <time>2021-08-09T19:56:47Z</time>
      </trkpt>
      <trkpt lat="48.87823" lon="4.58229">
        <ele>172.69</ele>
        <time>2021-08-09T19:56:58Z</time>
      </trkpt>
      <trkpt lat="48.87806" lon="4.58266">
        <ele>172.69</ele>
        <time>2021-08-09T19:57:04Z</time>
      </trkpt>
      <trkpt lat="48.87779" lon="4.58327">
        <ele>173.66</ele>
        <time>2021-08-09T19:57:14Z</time>
      </trkpt>
      <trkpt lat="48.87748" lon="4.58392">
        <ele>174.14</ele>
        <time>2021-08-09T19:57:25Z</time>
      </trkpt>
      <trkpt lat="48.87711" lon="4.58467">
        <ele>176.06</ele>
        <time>2021-08-09T19:57:38Z</time>
      </trkpt>
      <trkpt lat="48.87681" lon="4.58525">
        <ele>176.54</ele>
        <time>2021-08-09T19:57:49Z</time>
      </trkpt>
      <trkpt lat="48.8765" lon="4.58579">
        <ele>178.46</ele>
        <time>2021-08-09T19:58:00Z</time>
      </trkpt>
      <trkpt lat="48.87624" lon="4.58616">
        <ele>179.9</ele>
        <time>2021-08-09T19:58:09Z</time>
      </trkpt>
      <trkpt lat="48.87591" lon="4.58655">
        <ele>180.87</ele>
        <time>2021-08-09T19:58:20Z</time>
      </trkpt>
      <trkpt lat="48.87547" lon="4.58711">
        <ele>181.83</ele>
        <time>2021-08-09T19:58:35Z</time>
      </trkpt>
      <trkpt lat="48.87515" lon="4.58749">
        <ele>182.79</ele>
        <time>2021-08-09T19:58:45Z</time>
      </trkpt>
      <trkpt lat="48.87465" lon="4.58813">
        <ele>182.79</ele>
        <time>2021-08-09T19:59:00Z</time>
      </trkpt>
      <trkpt lat="48.8744" lon="4.58843">
        <ele>182.79</ele>
        <time>2021-08-09T19:59:07Z</time>
      </trkpt>
      <trkpt lat="48.87437" lon="4.58847">
        <ele>182.79</ele>
        <time>2021-08-09T19:59:08Z</time>
      </trkpt>
      <trkpt lat="48.87401" lon="4.58894">
        <ele>183.75</ele>
        <time>2021-08-09T19:59:19Z</time>
      </trkpt>
      <trkpt lat="48.87372" lon="4.58933">
        <ele>185.67</ele>
        <time>2021-08-09T19:59:30Z</time>
      </trkpt>
      <trkpt lat="48.87346" lon="4.58966">
        <ele>187.59</ele>
        <time>2021-08-09T19:59:41Z</time>
      </trkpt>
      <trkpt lat="48.87324" lon="4.58992">
        <ele>189.52</ele>
        <time>2021-08-09T19:59:51Z</time>
      </trkpt>
      <trkpt lat="48.87304" lon="4.59016">
        <ele>190.48</ele>
        <time>2021-08-09T20:00:00Z</time>
      </trkpt>
      <trkpt lat="48.87285" lon="4.59041">
        <ele>192.4</ele>
        <time>2021-08-09T20:00:09Z</time>
      </trkpt>
      <trkpt lat="48.87261" lon="4.5907">
        <ele>193.36</ele>
        <time>2021-08-09T20:00:19Z</time>
      </trkpt>
      <trkpt lat="48.87238" lon="4.591">
        <ele>193.84</ele>
        <time>2021-08-09T20:00:28Z</time>
      </trkpt>
      <trkpt lat="48.87215" lon="4.59133">
        <ele>194.8</ele>
        <time>2021-08-09T20:00:37Z</time>
      </trkpt>
      <trkpt lat="48.872" lon="4.59161">
        <ele>194.8</ele>
        <time>2021-08-09T20:00:44Z</time>
      </trkpt>
      <trkpt lat="48.87177" lon="4.59208">
        <ele>192.88</ele>
        <time>2021-08-09T20:00:53Z</time>
      </trkpt>
      <trkpt lat="48.87151" lon="4.59261">
        <ele>190.48</ele>
        <time>2021-08-09T20:01:02Z</time>
      </trkpt>
      <trkpt lat="48.87131" lon="4.59309">
        <ele>186.63</ele>
        <time>2021-08-09T20:01:09Z</time>
      </trkpt>
      <trkpt lat="48.87115" lon="4.59349">
        <ele>183.75</ele>
        <time>2021-08-09T20:01:15Z</time>
      </trkpt>
      <trkpt lat="48.87103" lon="4.59381">
        <ele>179.9</ele>
        <time>2021-08-09T20:01:20Z</time>
      </trkpt>
      <trkpt lat="48.87093" lon="4.59406">
        <ele>176.54</ele>
        <time>2021-08-09T20:01:25Z</time>
      </trkpt>
      <trkpt lat="48.87083" lon="4.59429">
        <ele>172.69</ele>
        <time>2021-08-09T20:01:29Z</time>
      </trkpt>
      <trkpt lat="48.87075" lon="4.5945">
        <ele>169.33</ele>
        <time>2021-08-09T20:01:32Z</time>
      </trkpt>
      <trkpt lat="48.87065" lon="4.59472">
        <ele>165.96</ele>
        <time>2021-08-09T20:01:35Z</time>
      </trkpt>
      <trkpt lat="48.87057" lon="4.5949">
        <ele>162.6</ele>
        <time>2021-08-09T20:01:38Z</time>
      </trkpt>
      <trkpt lat="48.87056" lon="4.59492">
        <ele>162.6</ele>
        <time>2021-08-09T20:01:39Z</time>
      </trkpt>
      <trkpt lat="48.87056" lon="4.59494">
        <ele>161.64</ele>
        <time>2021-08-09T20:01:44Z</time>
      </trkpt>
      <trkpt lat="48.87058" lon="4.59493">
        <ele>161.64</ele>
        <time>2021-08-09T20:01:46Z</time>
      </trkpt>
      <trkpt lat="48.87059" lon="4.59493">
        <ele>161.64</ele>
        <time>2021-08-09T20:01:47Z</time>
      </trkpt>
      <trkpt lat="48.87061" lon="4.595">
        <ele>162.6</ele>
        <time>2021-08-09T20:01:54Z</time>
      </trkpt>
      <trkpt lat="48.8706" lon="4.59503">
        <ele>162.6</ele>
        <time>2021-08-09T20:02:01Z</time>
      </trkpt>
      <trkpt lat="48.87061" lon="4.59501">
        <ele>162.6</ele>
        <time>2021-08-09T20:02:06Z</time>
      </trkpt>
      <trkpt lat="48.87061" lon="4.59495">
        <ele>162.6</ele>
        <time>2021-08-09T20:02:11Z</time>
      </trkpt>
      <trkpt lat="48.8706" lon="4.59492">
        <ele>163.56</ele>
        <time>2021-08-09T20:02:13Z</time>
      </trkpt>
      <trkpt lat="48.87057" lon="4.59491">
        <ele>163.56</ele>
        <time>2021-08-09T20:02:18Z</time>
      </trkpt>
      <trkpt lat="48.87055" lon="4.59494">
        <ele>163.56</ele>
        <time>2021-08-09T20:02:20Z</time>
      </trkpt>
      <trkpt lat="48.87053" lon="4.59497">
        <ele>163.56</ele>
        <time>2021-08-09T20:02:21Z</time>
      </trkpt>
      <trkpt lat="48.87051" lon="4.59504">
        <ele>162.12</ele>
        <time>2021-08-09T20:02:23Z</time>
      </trkpt>
      <trkpt lat="48.87041" lon="4.59525">
        <ele>159.24</ele>
        <time>2021-08-09T20:02:28Z</time>
      </trkpt>
      <trkpt lat="48.8704" lon="4.59529">
        <ele>159.24</ele>
        <time>2021-08-09T20:02:30Z</time>
      </trkpt>
      <trkpt lat="48.8704" lon="4.59531">
        <ele>159.24</ele>
        <time>2021-08-09T20:02:31Z</time>
      </trkpt>
      <trkpt lat="48.8704" lon="4.59533">
        <ele>159.24</ele>
        <time>2021-08-09T20:02:32Z</time>
      </trkpt>
      <trkpt lat="48.8704" lon="4.59535">
        <ele>159.24</ele>
        <time>2021-08-09T20:02:33Z</time>
      </trkpt>
      <trkpt lat="48.87042" lon="4.59537">
        <ele>158.27</ele>
        <time>2021-08-09T20:02:34Z</time>
      </trkpt>
      <trkpt lat="48.87043" lon="4.59539">
        <ele>158.75</ele>
        <time>2021-08-09T20:02:35Z</time>
      </trkpt>
      <trkpt lat="48.87044" lon="4.59539">
        <ele>158.27</ele>
        <time>2021-08-09T20:02:36Z</time>
      </trkpt>
      <trkpt lat="48.87046" lon="4.5954">
        <ele>158.27</ele>
        <time>2021-08-09T20:02:37Z</time>
      </trkpt>
      <trkpt lat="48.87047" lon="4.59541">
        <ele>158.75</ele>
        <time>2021-08-09T20:02:38Z</time>
      </trkpt>
      <trkpt lat="48.87048" lon="4.59543">
        <ele>158.75</ele>
        <time>2021-08-09T20:02:39Z</time>
      </trkpt>
      <trkpt lat="48.87049" lon="4.59544">
        <ele>158.75</ele>
        <time>2021-08-09T20:02:40Z</time>
      </trkpt>
      <trkpt lat="48.8705" lon="4.59546">
        <ele>158.75</ele>
        <time>2021-08-09T20:02:41Z</time>
      </trkpt>
      <trkpt lat="48.8705" lon="4.59548">
        <ele>158.75</ele>
        <time>2021-08-09T20:02:45Z</time>
      </trkpt>
      <trkpt lat="48.87044" lon="4.59543">
        <ele>158.75</ele>
        <time>2021-08-09T20:02:50Z</time>
      </trkpt>
      <trkpt lat="48.87038" lon="4.59534">
        <ele>158.75</ele>
        <time>2021-08-09T20:02:56Z</time>
      </trkpt>
      <trkpt lat="48.87038" lon="4.59532">
        <ele>158.75</ele>
        <time>2021-08-09T20:02:59Z</time>
      </trkpt>
      <trkpt lat="48.87039" lon="4.59528">
        <ele>158.75</ele>
        <time>2021-08-09T20:03:07Z</time>
      </trkpt>
      <trkpt lat="48.87037" lon="4.59526">
        <ele>158.75</ele>
        <time>2021-08-09T20:03:18Z</time>
      </trkpt>
      <trkpt lat="48.87029" lon="4.59505">
        <ele>157.79</ele>
        <time>2021-08-09T20:03:25Z</time>
      </trkpt>
      <trkpt lat="48.87025" lon="4.59494">
        <ele>157.31</ele>
        <time>2021-08-09T20:03:32Z</time>
      </trkpt>
      <trkpt lat="48.87025" lon="4.59494">
        <ele>157.79</ele>
        <time>2021-08-09T20:03:42Z</time>
      </trkpt>
      <trkpt lat="48.87026" lon="4.59492">
        <ele>157.79</ele>
        <time>2021-08-09T20:03:55Z</time>
      </trkpt>
      <trkpt lat="48.87021" lon="4.59477">
        <ele>157.79</ele>
        <time>2021-08-09T20:04:00Z</time>
      </trkpt>
      <trkpt lat="48.87009" lon="4.59442">
        <ele>156.83</ele>
        <time>2021-08-09T20:04:08Z</time>
      </trkpt>
      <trkpt lat="48.86998" lon="4.5941">
        <ele>156.83</ele>
        <time>2021-08-09T20:04:16Z</time>
      </trkpt>
      <trkpt lat="48.86988" lon="4.59389">
        <ele>156.83</ele>
        <time>2021-08-09T20:04:23Z</time>
      </trkpt>
      <trkpt lat="48.86979" lon="4.59364">
        <ele>156.35</ele>
        <time>2021-08-09T20:04:33Z</time>
      </trkpt>
      <trkpt lat="48.8698" lon="4.59365">
        <ele>156.35</ele>
        <time>2021-08-09T20:04:41Z</time>
      </trkpt>
      <trkpt lat="48.86981" lon="4.59366">
        <ele>156.35</ele>
        <time>2021-08-09T20:04:54Z</time>
      </trkpt>
      <trkpt lat="48.86981" lon="4.59366">
        <ele>156.35</ele>
        <time>2021-08-09T20:05:00Z</time>
      </trkpt>
      <trkpt lat="48.8698" lon="4.59363">
        <ele>156.35</ele>
        <time>2021-08-09T20:05:15Z</time>
      </trkpt>
      <trkpt lat="48.86979" lon="4.59363">
        <ele>156.83</ele>
        <time>2021-08-09T20:05:24Z</time>
      </trkpt>
    </trkseg>
  </trk>
  <trk>
    <name><![CDATA[04 FD]]></name>
    <trkseg>
      <trkpt lat="48.86984" lon="4.59369">
        <ele>160.68</ele>
        <time>2021-08-10T05:03:08Z</time>
      </trkpt>
      <trkpt lat="48.8699" lon="4.59387">
        <ele>160.68</ele>
        <time>2021-08-10T05:03:16Z</time>
      </trkpt>
      <trkpt lat="48.86994" lon="4.59397">
        <ele>160.68</ele>
        <time>2021-08-10T05:03:19Z</time>
      </trkpt>
      <trkpt lat="48.86996" lon="4.59403">
        <ele>161.64</ele>
        <time>2021-08-10T05:03:21Z</time>
      </trkpt>
      <trkpt lat="48.8701" lon="4.59443">
        <ele>161.64</ele>
        <time>2021-08-10T05:03:31Z</time>
      </trkpt>
      <trkpt lat="48.87015" lon="4.5946">
        <ele>161.64</ele>
        <time>2021-08-10T05:03:38Z</time>
      </trkpt>
      <trkpt lat="48.87016" lon="4.5946">
        <ele>161.64</ele>
        <time>2021-08-10T05:03:52Z</time>
      </trkpt>
      <trkpt lat="48.87016" lon="4.59455">
        <ele>160.68</ele>
        <time>2021-08-10T05:04:04Z</time>
      </trkpt>
      <trkpt lat="48.87012" lon="4.59451">
        <ele>160.68</ele>
        <time>2021-08-10T05:04:24Z</time>
      </trkpt>
      <trkpt lat="48.87012" lon="4.59451">
        <ele>160.68</ele>
        <time>2021-08-10T05:04:42Z</time>
      </trkpt>
      <trkpt lat="48.87017" lon="4.59457">
        <ele>160.68</ele>
        <time>2021-08-10T05:04:58Z</time>
      </trkpt>
      <trkpt lat="48.87016" lon="4.59458">
        <ele>160.68</ele>
        <time>2021-08-10T05:05:13Z</time>
      </trkpt>
      <trkpt lat="48.87013" lon="4.59456">
        <ele>160.68</ele>
        <time>2021-08-10T05:05:23Z</time>
      </trkpt>
      <trkpt lat="48.87015" lon="4.59463">
        <ele>160.68</ele>
        <time>2021-08-10T05:05:30Z</time>
      </trkpt>
      <trkpt lat="48.87022" lon="4.59484">
        <ele>160.68</ele>
        <time>2021-08-10T05:05:36Z</time>
      </trkpt>
      <trkpt lat="48.87032" lon="4.59521">
        <ele>161.64</ele>
        <time>2021-08-10T05:05:44Z</time>
      </trkpt>
      <trkpt lat="48.87034" lon="4.59535">
        <ele>163.08</ele>
        <time>2021-08-10T05:05:48Z</time>
      </trkpt>
      <trkpt lat="48.87033" lon="4.59538">
        <ele>163.08</ele>
        <time>2021-08-10T05:05:49Z</time>
      </trkpt>
      <trkpt lat="48.87017" lon="4.5957">
        <ele>161.16</ele>
        <time>2021-08-10T05:05:55Z</time>
      </trkpt>
      <trkpt lat="48.87001" lon="4.59592">
        <ele>160.68</ele>
        <time>2021-08-10T05:05:59Z</time>
      </trkpt>
      <trkpt lat="48.8697" lon="4.59621">
        <ele>160.2</ele>
        <time>2021-08-10T05:06:07Z</time>
      </trkpt>
      <trkpt lat="48.86958" lon="4.59631">
        <ele>161.64</ele>
        <time>2021-08-10T05:06:14Z</time>
      </trkpt>
      <trkpt lat="48.86947" lon="4.59641">
        <ele>163.56</ele>
        <time>2021-08-10T05:06:23Z</time>
      </trkpt>
      <trkpt lat="48.86936" lon="4.5965">
        <ele>165.48</ele>
        <time>2021-08-10T05:06:32Z</time>
      </trkpt>
      <trkpt lat="48.86929" lon="4.59656">
        <ele>166.45</ele>
        <time>2021-08-10T05:06:38Z</time>
      </trkpt>
      <trkpt lat="48.86928" lon="4.59657">
        <ele>166.93</ele>
        <time>2021-08-10T05:06:39Z</time>
      </trkpt>
      <trkpt lat="48.86927" lon="4.59658">
        <ele>166.93</ele>
        <time>2021-08-10T05:06:40Z</time>
      </trkpt>
      <trkpt lat="48.86926" lon="4.5966">
        <ele>167.41</ele>
        <time>2021-08-10T05:06:41Z</time>
      </trkpt>
      <trkpt lat="48.86925" lon="4.59661">
        <ele>167.41</ele>
        <time>2021-08-10T05:06:42Z</time>
      </trkpt>
      <trkpt lat="48.86919" lon="4.59665">
        <ele>168.85</ele>
        <time>2021-08-10T05:06:47Z</time>
      </trkpt>
      <trkpt lat="48.86918" lon="4.59666">
        <ele>168.85</ele>
        <time>2021-08-10T05:06:48Z</time>
      </trkpt>
      <trkpt lat="48.86917" lon="4.59667">
        <ele>169.33</ele>
        <time>2021-08-10T05:06:49Z</time>
      </trkpt>
      <trkpt lat="48.86916" lon="4.59669">
        <ele>169.33</ele>
        <time>2021-08-10T05:06:50Z</time>
      </trkpt>
      <trkpt lat="48.86915" lon="4.5967">
        <ele>169.33</ele>
        <time>2021-08-10T05:06:51Z</time>
      </trkpt>
      <trkpt lat="48.86914" lon="4.59671">
        <ele>169.81</ele>
        <time>2021-08-10T05:06:52Z</time>
      </trkpt>
      <trkpt lat="48.86913" lon="4.59672">
        <ele>169.81</ele>
        <time>2021-08-10T05:06:53Z</time>
      </trkpt>
      <trkpt lat="48.86912" lon="4.59673">
        <ele>170.29</ele>
        <time>2021-08-10T05:06:54Z</time>
      </trkpt>
      <trkpt lat="48.86911" lon="4.59674">
        <ele>170.29</ele>
        <time>2021-08-10T05:06:55Z</time>
      </trkpt>
      <trkpt lat="48.8691" lon="4.59675">
        <ele>170.77</ele>
        <time>2021-08-10T05:06:56Z</time>
      </trkpt>
      <trkpt lat="48.86909" lon="4.59676">
        <ele>170.77</ele>
        <time>2021-08-10T05:06:57Z</time>
      </trkpt>
      <trkpt lat="48.86908" lon="4.59677">
        <ele>170.77</ele>
        <time>2021-08-10T05:06:58Z</time>
      </trkpt>
      <trkpt lat="48.86907" lon="4.59678">
        <ele>171.25</ele>
        <time>2021-08-10T05:06:59Z</time>
      </trkpt>
      <trkpt lat="48.86906" lon="4.59679">
        <ele>171.25</ele>
        <time>2021-08-10T05:07:00Z</time>
      </trkpt>
      <trkpt lat="48.86893" lon="4.5969">
        <ele>173.17</ele>
        <time>2021-08-10T05:07:12Z</time>
      </trkpt>
      <trkpt lat="48.86891" lon="4.59691">
        <ele>173.66</ele>
        <time>2021-08-10T05:07:14Z</time>
      </trkpt>
      <trkpt lat="48.86882" lon="4.59698">
        <ele>175.1</ele>
        <time>2021-08-10T05:07:22Z</time>
      </trkpt>
      <trkpt lat="48.86873" lon="4.59706">
        <ele>176.54</ele>
        <time>2021-08-10T05:07:30Z</time>
      </trkpt>
      <trkpt lat="48.86872" lon="4.59707">
        <ele>176.54</ele>
        <time>2021-08-10T05:07:31Z</time>
      </trkpt>
      <trkpt lat="48.86871" lon="4.59708">
        <ele>177.02</ele>
        <time>2021-08-10T05:07:32Z</time>
      </trkpt>
      <trkpt lat="48.8687" lon="4.59708">
        <ele>177.02</ele>
        <time>2021-08-10T05:07:33Z</time>
      </trkpt>
      <trkpt lat="48.86869" lon="4.59709">
        <ele>177.5</ele>
        <time>2021-08-10T05:07:34Z</time>
      </trkpt>
      <trkpt lat="48.86861" lon="4.59717">
        <ele>178.46</ele>
        <time>2021-08-10T05:07:42Z</time>
      </trkpt>
      <trkpt lat="48.86851" lon="4.59726">
        <ele>179.42</ele>
        <time>2021-08-10T05:07:52Z</time>
      </trkpt>
      <trkpt lat="48.8684" lon="4.59735">
        <ele>180.87</ele>
        <time>2021-08-10T05:08:02Z</time>
      </trkpt>
      <trkpt lat="48.86828" lon="4.59745">
        <ele>182.31</ele>
        <time>2021-08-10T05:08:11Z</time>
      </trkpt>
      <trkpt lat="48.86817" lon="4.59755">
        <ele>184.23</ele>
        <time>2021-08-10T05:08:20Z</time>
      </trkpt>
      <trkpt lat="48.86804" lon="4.59766">
        <ele>184.71</ele>
        <time>2021-08-10T05:08:29Z</time>
      </trkpt>
      <trkpt lat="48.86789" lon="4.5978">
        <ele>186.63</ele>
        <time>2021-08-10T05:08:39Z</time>
      </trkpt>
      <trkpt lat="48.86775" lon="4.59791">
        <ele>188.08</ele>
        <time>2021-08-10T05:08:47Z</time>
      </trkpt>
      <trkpt lat="48.86757" lon="4.59808">
        <ele>189.04</ele>
        <time>2021-08-10T05:08:56Z</time>
      </trkpt>
      <trkpt lat="48.86731" lon="4.59833">
        <ele>190.48</ele>
        <time>2021-08-10T05:09:07Z</time>
      </trkpt>
      <trkpt lat="48.86702" lon="4.5986">
        <ele>191.44</ele>
        <time>2021-08-10T05:09:19Z</time>
      </trkpt>
      <trkpt lat="48.86679" lon="4.59884">
        <ele>192.4</ele>
        <time>2021-08-10T05:09:28Z</time>
      </trkpt>
      <trkpt lat="48.8665" lon="4.59912">
        <ele>192.4</ele>
        <time>2021-08-10T05:09:39Z</time>
      </trkpt>
      <trkpt lat="48.86622" lon="4.59938">
        <ele>192.4</ele>
        <time>2021-08-10T05:09:48Z</time>
      </trkpt>
      <trkpt lat="48.86591" lon="4.59966">
        <ele>192.88</ele>
        <time>2021-08-10T05:09:58Z</time>
      </trkpt>
      <trkpt lat="48.86568" lon="4.59986">
        <ele>193.84</ele>
        <time>2021-08-10T05:10:07Z</time>
      </trkpt>
      <trkpt lat="48.86543" lon="4.60011">
        <ele>196.25</ele>
        <time>2021-08-10T05:10:17Z</time>
      </trkpt>
      <trkpt lat="48.86516" lon="4.60028">
        <ele>197.69</ele>
        <time>2021-08-10T05:10:27Z</time>
      </trkpt>
      <trkpt lat="48.86514" lon="4.60026">
        <ele>197.69</ele>
        <time>2021-08-10T05:10:28Z</time>
      </trkpt>
      <trkpt lat="48.86512" lon="4.60023">
        <ele>197.69</ele>
        <time>2021-08-10T05:10:29Z</time>
      </trkpt>
      <trkpt lat="48.8651" lon="4.6002">
        <ele>197.69</ele>
        <time>2021-08-10T05:10:30Z</time>
      </trkpt>
      <trkpt lat="48.86508" lon="4.60016">
        <ele>197.69</ele>
        <time>2021-08-10T05:10:31Z</time>
      </trkpt>
      <trkpt lat="48.86507" lon="4.60012">
        <ele>197.69</ele>
        <time>2021-08-10T05:10:32Z</time>
      </trkpt>
      <trkpt lat="48.86491" lon="4.5997">
        <ele>195.77</ele>
        <time>2021-08-10T05:10:41Z</time>
      </trkpt>
      <trkpt lat="48.86471" lon="4.59919">
        <ele>194.32</ele>
        <time>2021-08-10T05:10:51Z</time>
      </trkpt>
      <trkpt lat="48.86464" lon="4.59904">
        <ele>194.32</ele>
        <time>2021-08-10T05:10:54Z</time>
      </trkpt>
      <trkpt lat="48.8646" lon="4.59901">
        <ele>194.32</ele>
        <time>2021-08-10T05:10:55Z</time>
      </trkpt>
      <trkpt lat="48.86457" lon="4.59898">
        <ele>193.84</ele>
        <time>2021-08-10T05:10:56Z</time>
      </trkpt>
      <trkpt lat="48.86453" lon="4.59898">
        <ele>194.32</ele>
        <time>2021-08-10T05:10:57Z</time>
      </trkpt>
      <trkpt lat="48.86449" lon="4.599">
        <ele>194.32</ele>
        <time>2021-08-10T05:10:58Z</time>
      </trkpt>
      <trkpt lat="48.86445" lon="4.59902">
        <ele>194.32</ele>
        <time>2021-08-10T05:10:59Z</time>
      </trkpt>
      <trkpt lat="48.86442" lon="4.59903">
        <ele>194.32</ele>
        <time>2021-08-10T05:11:00Z</time>
      </trkpt>
      <trkpt lat="48.86439" lon="4.59906">
        <ele>194.32</ele>
        <time>2021-08-10T05:11:01Z</time>
      </trkpt>
      <trkpt lat="48.86436" lon="4.59908">
        <ele>194.32</ele>
        <time>2021-08-10T05:11:02Z</time>
      </trkpt>
      <trkpt lat="48.86406" lon="4.59935">
        <ele>196.25</ele>
        <time>2021-08-10T05:11:12Z</time>
      </trkpt>
      <trkpt lat="48.86361" lon="4.59972">
        <ele>196.73</ele>
        <time>2021-08-10T05:11:26Z</time>
      </trkpt>
      <trkpt lat="48.86337" lon="4.59996">
        <ele>196.73</ele>
        <time>2021-08-10T05:11:33Z</time>
      </trkpt>
      <trkpt lat="48.86296" lon="4.6003">
        <ele>194.32</ele>
        <time>2021-08-10T05:11:42Z</time>
      </trkpt>
      <trkpt lat="48.8626" lon="4.60061">
        <ele>190.96</ele>
        <time>2021-08-10T05:11:49Z</time>
      </trkpt>
      <trkpt lat="48.86233" lon="4.60083">
        <ele>188.08</ele>
        <time>2021-08-10T05:11:53Z</time>
      </trkpt>
      <trkpt lat="48.86204" lon="4.60108">
        <ele>184.23</ele>
        <time>2021-08-10T05:11:57Z</time>
      </trkpt>
      <trkpt lat="48.86178" lon="4.6013">
        <ele>180.87</ele>
        <time>2021-08-10T05:12:00Z</time>
      </trkpt>
      <trkpt lat="48.86149" lon="4.60154">
        <ele>177.02</ele>
        <time>2021-08-10T05:12:03Z</time>
      </trkpt>
      <trkpt lat="48.86119" lon="4.60179">
        <ele>173.17</ele>
        <time>2021-08-10T05:12:06Z</time>
      </trkpt>
      <trkpt lat="48.86097" lon="4.60197">
        <ele>169.81</ele>
        <time>2021-08-10T05:12:08Z</time>
      </trkpt>
      <trkpt lat="48.86064" lon="4.60225">
        <ele>165.96</ele>
        <time>2021-08-10T05:12:11Z</time>
      </trkpt>
      <trkpt lat="48.8603" lon="4.60253">
        <ele>163.08</ele>
        <time>2021-08-10T05:12:14Z</time>
      </trkpt>
      <trkpt lat="48.85997" lon="4.6028">
        <ele>159.72</ele>
        <time>2021-08-10T05:12:17Z</time>
      </trkpt>
      <trkpt lat="48.85953" lon="4.60317">
        <ele>156.35</ele>
        <time>2021-08-10T05:12:21Z</time>
      </trkpt>
      <trkpt lat="48.85912" lon="4.60351">
        <ele>154.91</ele>
        <time>2021-08-10T05:12:25Z</time>
      </trkpt>
      <trkpt lat="48.85882" lon="4.60375">
        <ele>158.27</ele>
        <time>2021-08-10T05:12:29Z</time>
      </trkpt>
      <trkpt lat="48.85863" lon="4.60391">
        <ele>160.68</ele>
        <time>2021-08-10T05:12:34Z</time>
      </trkpt>
      <trkpt lat="48.8584" lon="4.60413">
        <ele>163.08</ele>
        <time>2021-08-10T05:12:43Z</time>
      </trkpt>
      <trkpt lat="48.85816" lon="4.60433">
        <ele>165</ele>
        <time>2021-08-10T05:12:53Z</time>
      </trkpt>
      <trkpt lat="48.85787" lon="4.60453">
        <ele>168.37</ele>
        <time>2021-08-10T05:13:05Z</time>
      </trkpt>
      <trkpt lat="48.85776" lon="4.60452">
        <ele>168.85</ele>
        <time>2021-08-10T05:13:09Z</time>
      </trkpt>
      <trkpt lat="48.85773" lon="4.60449">
        <ele>169.33</ele>
        <time>2021-08-10T05:13:10Z</time>
      </trkpt>
      <trkpt lat="48.85772" lon="4.60447">
        <ele>169.33</ele>
        <time>2021-08-10T05:13:11Z</time>
      </trkpt>
      <trkpt lat="48.85754" lon="4.60414">
        <ele>168.85</ele>
        <time>2021-08-10T05:13:18Z</time>
      </trkpt>
      <trkpt lat="48.8573" lon="4.60364">
        <ele>168.85</ele>
        <time>2021-08-10T05:13:26Z</time>
      </trkpt>
      <trkpt lat="48.85707" lon="4.60316">
        <ele>167.89</ele>
        <time>2021-08-10T05:13:33Z</time>
      </trkpt>
      <trkpt lat="48.85672" lon="4.60247">
        <ele>167.41</ele>
        <time>2021-08-10T05:13:43Z</time>
      </trkpt>
      <trkpt lat="48.85641" lon="4.60184">
        <ele>166.93</ele>
        <time>2021-08-10T05:13:52Z</time>
      </trkpt>
      <trkpt lat="48.85606" lon="4.60114">
        <ele>165.96</ele>
        <time>2021-08-10T05:14:02Z</time>
      </trkpt>
      <trkpt lat="48.85573" lon="4.60053">
        <ele>164.52</ele>
        <time>2021-08-10T05:14:10Z</time>
      </trkpt>
      <trkpt lat="48.8557" lon="4.60045">
        <ele>164.04</ele>
        <time>2021-08-10T05:14:11Z</time>
      </trkpt>
      <trkpt lat="48.85568" lon="4.60034">
        <ele>164.04</ele>
        <time>2021-08-10T05:14:12Z</time>
      </trkpt>
      <trkpt lat="48.85568" lon="4.60025">
        <ele>163.56</ele>
        <time>2021-08-10T05:14:13Z</time>
      </trkpt>
      <trkpt lat="48.85568" lon="4.60016">
        <ele>162.6</ele>
        <time>2021-08-10T05:14:14Z</time>
      </trkpt>
      <trkpt lat="48.85568" lon="4.60006">
        <ele>162.6</ele>
        <time>2021-08-10T05:14:15Z</time>
      </trkpt>
      <trkpt lat="48.8557" lon="4.59996">
        <ele>162.12</ele>
        <time>2021-08-10T05:14:16Z</time>
      </trkpt>
      <trkpt lat="48.85578" lon="4.59928">
        <ele>158.75</ele>
        <time>2021-08-10T05:14:22Z</time>
      </trkpt>
      <trkpt lat="48.85581" lon="4.59903">
        <ele>157.79</ele>
        <time>2021-08-10T05:14:24Z</time>
      </trkpt>
      <trkpt lat="48.85587" lon="4.59835">
        <ele>154.91</ele>
        <time>2021-08-10T05:14:29Z</time>
      </trkpt>
      <trkpt lat="48.85592" lon="4.5978">
        <ele>151.54</ele>
        <time>2021-08-10T05:14:33Z</time>
      </trkpt>
      <trkpt lat="48.85593" lon="4.59718">
        <ele>148.18</ele>
        <time>2021-08-10T05:14:38Z</time>
      </trkpt>
      <trkpt lat="48.8558" lon="4.59647">
        <ele>145.78</ele>
        <time>2021-08-10T05:14:44Z</time>
      </trkpt>
      <trkpt lat="48.85574" lon="4.59618">
        <ele>145.3</ele>
        <time>2021-08-10T05:14:47Z</time>
      </trkpt>
      <trkpt lat="48.85571" lon="4.5961">
        <ele>145.3</ele>
        <time>2021-08-10T05:14:48Z</time>
      </trkpt>
      <trkpt lat="48.85566" lon="4.59605">
        <ele>144.82</ele>
        <time>2021-08-10T05:14:49Z</time>
      </trkpt>
      <trkpt lat="48.85561" lon="4.59603">
        <ele>144.82</ele>
        <time>2021-08-10T05:14:50Z</time>
      </trkpt>
      <trkpt lat="48.85556" lon="4.59604">
        <ele>144.82</ele>
        <time>2021-08-10T05:14:51Z</time>
      </trkpt>
      <trkpt lat="48.85551" lon="4.59605">
        <ele>144.82</ele>
        <time>2021-08-10T05:14:52Z</time>
      </trkpt>
      <trkpt lat="48.85543" lon="4.59607">
        <ele>144.82</ele>
        <time>2021-08-10T05:14:54Z</time>
      </trkpt>
      <trkpt lat="48.85539" lon="4.59608">
        <ele>145.78</ele>
        <time>2021-08-10T05:14:55Z</time>
      </trkpt>
      <trkpt lat="48.8552" lon="4.59616">
        <ele>147.22</ele>
        <time>2021-08-10T05:15:02Z</time>
      </trkpt>
      <trkpt lat="48.85502" lon="4.59622">
        <ele>149.14</ele>
        <time>2021-08-10T05:15:11Z</time>
      </trkpt>
      <trkpt lat="48.85484" lon="4.59639">
        <ele>151.06</ele>
        <time>2021-08-10T05:15:22Z</time>
      </trkpt>
      <trkpt lat="48.85475" lon="4.59669">
        <ele>153.47</ele>
        <time>2021-08-10T05:15:32Z</time>
      </trkpt>
      <trkpt lat="48.85471" lon="4.59709">
        <ele>154.43</ele>
        <time>2021-08-10T05:15:41Z</time>
      </trkpt>
      <trkpt lat="48.85467" lon="4.59746">
        <ele>155.87</ele>
        <time>2021-08-10T05:15:49Z</time>
      </trkpt>
      <trkpt lat="48.85461" lon="4.598">
        <ele>158.27</ele>
        <time>2021-08-10T05:16:01Z</time>
      </trkpt>
      <trkpt lat="48.85453" lon="4.59858">
        <ele>159.72</ele>
        <time>2021-08-10T05:16:14Z</time>
      </trkpt>
      <trkpt lat="48.85446" lon="4.59909">
        <ele>161.64</ele>
        <time>2021-08-10T05:16:26Z</time>
      </trkpt>
      <trkpt lat="48.85441" lon="4.59944">
        <ele>162.12</ele>
        <time>2021-08-10T05:16:34Z</time>
      </trkpt>
      <trkpt lat="48.85435" lon="4.59989">
        <ele>163.56</ele>
        <time>2021-08-10T05:16:44Z</time>
      </trkpt>
      <trkpt lat="48.85427" lon="4.60033">
        <ele>164.52</ele>
        <time>2021-08-10T05:16:54Z</time>
      </trkpt>
      <trkpt lat="48.8542" lon="4.60064">
        <ele>165.48</ele>
        <time>2021-08-10T05:17:01Z</time>
      </trkpt>
      <trkpt lat="48.85411" lon="4.60107">
        <ele>166.45</ele>
        <time>2021-08-10T05:17:11Z</time>
      </trkpt>
      <trkpt lat="48.85407" lon="4.6015">
        <ele>167.41</ele>
        <time>2021-08-10T05:17:20Z</time>
      </trkpt>
      <trkpt lat="48.85407" lon="4.60206">
        <ele>167.41</ele>
        <time>2021-08-10T05:17:30Z</time>
      </trkpt>
      <trkpt lat="48.85399" lon="4.60241">
        <ele>167.89</ele>
        <time>2021-08-10T05:17:37Z</time>
      </trkpt>
      <trkpt lat="48.85384" lon="4.60252">
        <ele>169.81</ele>
        <time>2021-08-10T05:17:43Z</time>
      </trkpt>
      <trkpt lat="48.85362" lon="4.60253">
        <ele>173.17</ele>
        <time>2021-08-10T05:17:53Z</time>
      </trkpt>
      <trkpt lat="48.85343" lon="4.60252">
        <ele>175.1</ele>
        <time>2021-08-10T05:18:02Z</time>
      </trkpt>
      <trkpt lat="48.85316" lon="4.60254">
        <ele>177.5</ele>
        <time>2021-08-10T05:18:13Z</time>
      </trkpt>
      <trkpt lat="48.85286" lon="4.60257">
        <ele>179.9</ele>
        <time>2021-08-10T05:18:25Z</time>
      </trkpt>
      <trkpt lat="48.85253" lon="4.6026">
        <ele>182.31</ele>
        <time>2021-08-10T05:18:38Z</time>
      </trkpt>
      <trkpt lat="48.85236" lon="4.60262">
        <ele>183.27</ele>
        <time>2021-08-10T05:18:46Z</time>
      </trkpt>
      <trkpt lat="48.85211" lon="4.60265">
        <ele>184.71</ele>
        <time>2021-08-10T05:18:57Z</time>
      </trkpt>
      <trkpt lat="48.85189" lon="4.60267">
        <ele>185.19</ele>
        <time>2021-08-10T05:19:06Z</time>
      </trkpt>
      <trkpt lat="48.85153" lon="4.6027">
        <ele>187.11</ele>
        <time>2021-08-10T05:19:20Z</time>
      </trkpt>
      <trkpt lat="48.85121" lon="4.60273">
        <ele>188.56</ele>
        <time>2021-08-10T05:19:32Z</time>
      </trkpt>
      <trkpt lat="48.85099" lon="4.60277">
        <ele>190</ele>
        <time>2021-08-10T05:19:41Z</time>
      </trkpt>
      <trkpt lat="48.85087" lon="4.60277">
        <ele>190.96</ele>
        <time>2021-08-10T05:19:46Z</time>
      </trkpt>
      <trkpt lat="48.85085" lon="4.60274">
        <ele>190.48</ele>
        <time>2021-08-10T05:19:47Z</time>
      </trkpt>
      <trkpt lat="48.85083" lon="4.60272">
        <ele>190.96</ele>
        <time>2021-08-10T05:19:48Z</time>
      </trkpt>
      <trkpt lat="48.85065" lon="4.60239">
        <ele>190.48</ele>
        <time>2021-08-10T05:19:57Z</time>
      </trkpt>
      <trkpt lat="48.85046" lon="4.60204">
        <ele>190.48</ele>
        <time>2021-08-10T05:20:05Z</time>
      </trkpt>
      <trkpt lat="48.85041" lon="4.60196">
        <ele>190.48</ele>
        <time>2021-08-10T05:20:07Z</time>
      </trkpt>
      <trkpt lat="48.85027" lon="4.60172">
        <ele>190.48</ele>
        <time>2021-08-10T05:20:12Z</time>
      </trkpt>
      <trkpt lat="48.85025" lon="4.60168">
        <ele>190.48</ele>
        <time>2021-08-10T05:20:13Z</time>
      </trkpt>
      <trkpt lat="48.84998" lon="4.60114">
        <ele>190.48</ele>
        <time>2021-08-10T05:20:23Z</time>
      </trkpt>
      <trkpt lat="48.84956" lon="4.60035">
        <ele>190.48</ele>
        <time>2021-08-10T05:20:37Z</time>
      </trkpt>
      <trkpt lat="48.84925" lon="4.59979">
        <ele>190.48</ele>
        <time>2021-08-10T05:20:47Z</time>
      </trkpt>
      <trkpt lat="48.84905" lon="4.59941">
        <ele>190.48</ele>
        <time>2021-08-10T05:20:54Z</time>
      </trkpt>
      <trkpt lat="48.84903" lon="4.59935">
        <ele>190.48</ele>
        <time>2021-08-10T05:20:55Z</time>
      </trkpt>
      <trkpt lat="48.849" lon="4.5993">
        <ele>190.48</ele>
        <time>2021-08-10T05:20:56Z</time>
      </trkpt>
      <trkpt lat="48.84866" lon="4.59868">
        <ele>190.48</ele>
        <time>2021-08-10T05:21:07Z</time>
      </trkpt>
      <trkpt lat="48.84828" lon="4.59797">
        <ele>190.48</ele>
        <time>2021-08-10T05:21:19Z</time>
      </trkpt>
      <trkpt lat="48.84799" lon="4.59745">
        <ele>190.48</ele>
        <time>2021-08-10T05:21:28Z</time>
      </trkpt>
      <trkpt lat="48.8477" lon="4.59698">
        <ele>191.92</ele>
        <time>2021-08-10T05:21:37Z</time>
      </trkpt>
      <trkpt lat="48.84749" lon="4.59658">
        <ele>192.4</ele>
        <time>2021-08-10T05:21:45Z</time>
      </trkpt>
      <trkpt lat="48.84729" lon="4.59616">
        <ele>190</ele>
        <time>2021-08-10T05:21:51Z</time>
      </trkpt>
      <trkpt lat="48.84721" lon="4.59599">
        <ele>189.52</ele>
        <time>2021-08-10T05:21:53Z</time>
      </trkpt>
      <trkpt lat="48.84676" lon="4.59515">
        <ele>187.59</ele>
        <time>2021-08-10T05:22:04Z</time>
      </trkpt>
      <trkpt lat="48.84637" lon="4.59445">
        <ele>186.15</ele>
        <time>2021-08-10T05:22:14Z</time>
      </trkpt>
      <trkpt lat="48.84595" lon="4.59366">
        <ele>184.23</ele>
        <time>2021-08-10T05:22:24Z</time>
      </trkpt>
      <trkpt lat="48.84543" lon="4.5927">
        <ele>182.31</ele>
        <time>2021-08-10T05:22:36Z</time>
      </trkpt>
      <trkpt lat="48.84502" lon="4.59195">
        <ele>179.9</ele>
        <time>2021-08-10T05:22:45Z</time>
      </trkpt>
      <trkpt lat="48.84463" lon="4.59124">
        <ele>178.46</ele>
        <time>2021-08-10T05:22:54Z</time>
      </trkpt>
      <trkpt lat="48.84429" lon="4.59063">
        <ele>176.54</ele>
        <time>2021-08-10T05:23:02Z</time>
      </trkpt>
      <trkpt lat="48.84388" lon="4.58987">
        <ele>174.62</ele>
        <time>2021-08-10T05:23:12Z</time>
      </trkpt>
      <trkpt lat="48.84352" lon="4.5892">
        <ele>172.21</ele>
        <time>2021-08-10T05:23:21Z</time>
      </trkpt>
      <trkpt lat="48.84322" lon="4.58858">
        <ele>169.81</ele>
        <time>2021-08-10T05:23:29Z</time>
      </trkpt>
      <trkpt lat="48.84318" lon="4.58853">
        <ele>169.33</ele>
        <time>2021-08-10T05:23:30Z</time>
      </trkpt>
      <trkpt lat="48.84314" lon="4.58849">
        <ele>168.85</ele>
        <time>2021-08-10T05:23:31Z</time>
      </trkpt>
      <trkpt lat="48.84309" lon="4.58849">
        <ele>168.85</ele>
        <time>2021-08-10T05:23:32Z</time>
      </trkpt>
      <trkpt lat="48.84304" lon="4.58851">
        <ele>168.37</ele>
        <time>2021-08-10T05:23:33Z</time>
      </trkpt>
      <trkpt lat="48.843" lon="4.58856">
        <ele>168.37</ele>
        <time>2021-08-10T05:23:34Z</time>
      </trkpt>
      <trkpt lat="48.84295" lon="4.5886">
        <ele>168.37</ele>
        <time>2021-08-10T05:23:35Z</time>
      </trkpt>
      <trkpt lat="48.84265" lon="4.58897">
        <ele>168.37</ele>
        <time>2021-08-10T05:23:42Z</time>
      </trkpt>
      <trkpt lat="48.84261" lon="4.58904">
        <ele>167.89</ele>
        <time>2021-08-10T05:23:43Z</time>
      </trkpt>
      <trkpt lat="48.84257" lon="4.58909">
        <ele>167.89</ele>
        <time>2021-08-10T05:23:44Z</time>
      </trkpt>
      <trkpt lat="48.84213" lon="4.58963">
        <ele>165</ele>
        <time>2021-08-10T05:23:54Z</time>
      </trkpt>
      <trkpt lat="48.84178" lon="4.59005">
        <ele>160.68</ele>
        <time>2021-08-10T05:24:01Z</time>
      </trkpt>
      <trkpt lat="48.84146" lon="4.59042">
        <ele>157.31</ele>
        <time>2021-08-10T05:24:07Z</time>
      </trkpt>
      <trkpt lat="48.84113" lon="4.59085">
        <ele>154.43</ele>
        <time>2021-08-10T05:24:13Z</time>
      </trkpt>
      <trkpt lat="48.84104" lon="4.59096">
        <ele>153.95</ele>
        <time>2021-08-10T05:24:15Z</time>
      </trkpt>
      <trkpt lat="48.84094" lon="4.59105">
        <ele>153.47</ele>
        <time>2021-08-10T05:24:17Z</time>
      </trkpt>
      <trkpt lat="48.84092" lon="4.59109">
        <ele>153.47</ele>
        <time>2021-08-10T05:24:18Z</time>
      </trkpt>
      <trkpt lat="48.84089" lon="4.59115">
        <ele>153.47</ele>
        <time>2021-08-10T05:24:19Z</time>
      </trkpt>
      <trkpt lat="48.84087" lon="4.59119">
        <ele>152.99</ele>
        <time>2021-08-10T05:24:20Z</time>
      </trkpt>
      <trkpt lat="48.84085" lon="4.59123">
        <ele>154.43</ele>
        <time>2021-08-10T05:24:21Z</time>
      </trkpt>
      <trkpt lat="48.8407" lon="4.59157">
        <ele>156.83</ele>
        <time>2021-08-10T05:24:29Z</time>
      </trkpt>
      <trkpt lat="48.84055" lon="4.59194">
        <ele>157.31</ele>
        <time>2021-08-10T05:24:37Z</time>
      </trkpt>
      <trkpt lat="48.84032" lon="4.59252">
        <ele>155.87</ele>
        <time>2021-08-10T05:24:48Z</time>
      </trkpt>
      <trkpt lat="48.84014" lon="4.593">
        <ele>152.51</ele>
        <time>2021-08-10T05:24:57Z</time>
      </trkpt>
      <trkpt lat="48.84009" lon="4.59327">
        <ele>150.58</ele>
        <time>2021-08-10T05:25:03Z</time>
      </trkpt>
      <trkpt lat="48.84007" lon="4.59332">
        <ele>149.62</ele>
        <time>2021-08-10T05:25:04Z</time>
      </trkpt>
      <trkpt lat="48.84005" lon="4.59338">
        <ele>148.66</ele>
        <time>2021-08-10T05:25:05Z</time>
      </trkpt>
      <trkpt lat="48.84002" lon="4.59344">
        <ele>148.18</ele>
        <time>2021-08-10T05:25:06Z</time>
      </trkpt>
      <trkpt lat="48.84001" lon="4.59349">
        <ele>147.22</ele>
        <time>2021-08-10T05:25:07Z</time>
      </trkpt>
      <trkpt lat="48.84" lon="4.59355">
        <ele>146.74</ele>
        <time>2021-08-10T05:25:08Z</time>
      </trkpt>
      <trkpt lat="48.84" lon="4.59359">
        <ele>146.26</ele>
        <time>2021-08-10T05:25:09Z</time>
      </trkpt>
      <trkpt lat="48.84" lon="4.59363">
        <ele>146.26</ele>
        <time>2021-08-10T05:25:10Z</time>
      </trkpt>
      <trkpt lat="48.84" lon="4.59365">
        <ele>146.26</ele>
        <time>2021-08-10T05:25:11Z</time>
      </trkpt>
      <trkpt lat="48.84" lon="4.59368">
        <ele>145.78</ele>
        <time>2021-08-10T05:25:12Z</time>
      </trkpt>
      <trkpt lat="48.84003" lon="4.59384">
        <ele>141.93</ele>
        <time>2021-08-10T05:25:17Z</time>
      </trkpt>
      <trkpt lat="48.84005" lon="4.59386">
        <ele>141.45</ele>
        <time>2021-08-10T05:25:18Z</time>
      </trkpt>
      <trkpt lat="48.84005" lon="4.59388">
        <ele>141.45</ele>
        <time>2021-08-10T05:25:19Z</time>
      </trkpt>
      <trkpt lat="48.84007" lon="4.59392">
        <ele>140.49</ele>
        <time>2021-08-10T05:25:25Z</time>
      </trkpt>
      <trkpt lat="48.84007" lon="4.59394">
        <ele>140.01</ele>
        <time>2021-08-10T05:25:28Z</time>
      </trkpt>
      <trkpt lat="48.84007" lon="4.59397">
        <ele>139.53</ele>
        <time>2021-08-10T05:25:29Z</time>
      </trkpt>
      <trkpt lat="48.84007" lon="4.594">
        <ele>138.57</ele>
        <time>2021-08-10T05:25:30Z</time>
      </trkpt>
      <trkpt lat="48.84007" lon="4.59402">
        <ele>138.09</ele>
        <time>2021-08-10T05:25:31Z</time>
      </trkpt>
      <trkpt lat="48.84007" lon="4.59405">
        <ele>137.61</ele>
        <time>2021-08-10T05:25:32Z</time>
      </trkpt>
      <trkpt lat="48.84008" lon="4.59408">
        <ele>137.13</ele>
        <time>2021-08-10T05:25:33Z</time>
      </trkpt>
      <trkpt lat="48.84009" lon="4.5941">
        <ele>137.13</ele>
        <time>2021-08-10T05:25:34Z</time>
      </trkpt>
      <trkpt lat="48.84012" lon="4.59416">
        <ele>136.16</ele>
        <time>2021-08-10T05:25:40Z</time>
      </trkpt>
      <trkpt lat="48.84014" lon="4.59419">
        <ele>135.68</ele>
        <time>2021-08-10T05:25:43Z</time>
      </trkpt>
      <trkpt lat="48.84014" lon="4.59422">
        <ele>135.68</ele>
        <time>2021-08-10T05:25:44Z</time>
      </trkpt>
      <trkpt lat="48.84012" lon="4.59433">
        <ele>131.84</ele>
        <time>2021-08-10T05:25:48Z</time>
      </trkpt>
      <trkpt lat="48.84012" lon="4.59435">
        <ele>131.84</ele>
        <time>2021-08-10T05:25:49Z</time>
      </trkpt>
      <trkpt lat="48.84011" lon="4.5944">
        <ele>130.88</ele>
        <time>2021-08-10T05:25:51Z</time>
      </trkpt>
      <trkpt lat="48.84008" lon="4.5945">
        <ele>130.4</ele>
        <time>2021-08-10T05:25:56Z</time>
      </trkpt>
      <trkpt lat="48.84007" lon="4.5945">
        <ele>129.92</ele>
        <time>2021-08-10T05:25:57Z</time>
      </trkpt>
      <trkpt lat="48.84005" lon="4.5945">
        <ele>129.92</ele>
        <time>2021-08-10T05:25:58Z</time>
      </trkpt>
      <trkpt lat="48.84002" lon="4.5945">
        <ele>129.92</ele>
        <time>2021-08-10T05:25:59Z</time>
      </trkpt>
      <trkpt lat="48.84" lon="4.59451">
        <ele>129.92</ele>
        <time>2021-08-10T05:26:00Z</time>
      </trkpt>
      <trkpt lat="48.83996" lon="4.59451">
        <ele>129.92</ele>
        <time>2021-08-10T05:26:01Z</time>
      </trkpt>
      <trkpt lat="48.83965" lon="4.59454">
        <ele>128.47</ele>
        <time>2021-08-10T05:26:10Z</time>
      </trkpt>
      <trkpt lat="48.83964" lon="4.59458">
        <ele>128.47</ele>
        <time>2021-08-10T05:26:11Z</time>
      </trkpt>
      <trkpt lat="48.83964" lon="4.59463">
        <ele>128.47</ele>
        <time>2021-08-10T05:26:12Z</time>
      </trkpt>
      <trkpt lat="48.83964" lon="4.59467">
        <ele>128.47</ele>
        <time>2021-08-10T05:26:13Z</time>
      </trkpt>
      <trkpt lat="48.83964" lon="4.59471">
        <ele>128.47</ele>
        <time>2021-08-10T05:26:14Z</time>
      </trkpt>
      <trkpt lat="48.83965" lon="4.59475">
        <ele>128.47</ele>
        <time>2021-08-10T05:26:15Z</time>
      </trkpt>
      <trkpt lat="48.83965" lon="4.59478">
        <ele>128.47</ele>
        <time>2021-08-10T05:26:16Z</time>
      </trkpt>
      <trkpt lat="48.83966" lon="4.59481">
        <ele>128.47</ele>
        <time>2021-08-10T05:26:17Z</time>
      </trkpt>
      <trkpt lat="48.83966" lon="4.59484">
        <ele>128.47</ele>
        <time>2021-08-10T05:26:18Z</time>
      </trkpt>
      <trkpt lat="48.83967" lon="4.59486">
        <ele>128.47</ele>
        <time>2021-08-10T05:26:19Z</time>
      </trkpt>
      <trkpt lat="48.83967" lon="4.59489">
        <ele>128.47</ele>
        <time>2021-08-10T05:26:20Z</time>
      </trkpt>
      <trkpt lat="48.83973" lon="4.59516">
        <ele>129.92</ele>
        <time>2021-08-10T05:26:30Z</time>
      </trkpt>
      <trkpt lat="48.83973" lon="4.59522">
        <ele>130.4</ele>
        <time>2021-08-10T05:26:33Z</time>
      </trkpt>
      <trkpt lat="48.83974" lon="4.59525">
        <ele>130.88</ele>
        <time>2021-08-10T05:26:35Z</time>
      </trkpt>
      <trkpt lat="48.83974" lon="4.59527">
        <ele>130.88</ele>
        <time>2021-08-10T05:26:36Z</time>
      </trkpt>
      <trkpt lat="48.83974" lon="4.59529">
        <ele>130.88</ele>
        <time>2021-08-10T05:26:37Z</time>
      </trkpt>
      <trkpt lat="48.83975" lon="4.59531">
        <ele>130.88</ele>
        <time>2021-08-10T05:26:38Z</time>
      </trkpt>
      <trkpt lat="48.83975" lon="4.59533">
        <ele>131.36</ele>
        <time>2021-08-10T05:26:39Z</time>
      </trkpt>
      <trkpt lat="48.83979" lon="4.59555">
        <ele>132.8</ele>
        <time>2021-08-10T05:26:50Z</time>
      </trkpt>
      <trkpt lat="48.83982" lon="4.59568">
        <ele>133.76</ele>
        <time>2021-08-10T05:26:57Z</time>
      </trkpt>
      <trkpt lat="48.83983" lon="4.5957">
        <ele>133.76</ele>
        <time>2021-08-10T05:26:58Z</time>
      </trkpt>
      <trkpt lat="48.83983" lon="4.59572">
        <ele>134.24</ele>
        <time>2021-08-10T05:26:59Z</time>
      </trkpt>
      <trkpt lat="48.83984" lon="4.59573">
        <ele>134.72</ele>
        <time>2021-08-10T05:27:00Z</time>
      </trkpt>
      <trkpt lat="48.83985" lon="4.59575">
        <ele>134.72</ele>
        <time>2021-08-10T05:27:01Z</time>
      </trkpt>
      <trkpt lat="48.83985" lon="4.59577">
        <ele>134.72</ele>
        <time>2021-08-10T05:27:02Z</time>
      </trkpt>
      <trkpt lat="48.83985" lon="4.59579">
        <ele>135.2</ele>
        <time>2021-08-10T05:27:03Z</time>
      </trkpt>
      <trkpt lat="48.83991" lon="4.596">
        <ele>136.64</ele>
        <time>2021-08-10T05:27:14Z</time>
      </trkpt>
      <trkpt lat="48.83996" lon="4.59618">
        <ele>139.05</ele>
        <time>2021-08-10T05:27:23Z</time>
      </trkpt>
      <trkpt lat="48.83999" lon="4.59634">
        <ele>141.45</ele>
        <time>2021-08-10T05:27:32Z</time>
      </trkpt>
      <trkpt lat="48.84" lon="4.59636">
        <ele>141.45</ele>
        <time>2021-08-10T05:27:33Z</time>
      </trkpt>
      <trkpt lat="48.84002" lon="4.59647">
        <ele>142.41</ele>
        <time>2021-08-10T05:27:39Z</time>
      </trkpt>
      <trkpt lat="48.84002" lon="4.59649">
        <ele>142.89</ele>
        <time>2021-08-10T05:27:40Z</time>
      </trkpt>
      <trkpt lat="48.84002" lon="4.59651">
        <ele>142.89</ele>
        <time>2021-08-10T05:27:41Z</time>
      </trkpt>
      <trkpt lat="48.84002" lon="4.59653">
        <ele>142.89</ele>
        <time>2021-08-10T05:27:42Z</time>
      </trkpt>
      <trkpt lat="48.84002" lon="4.59655">
        <ele>143.37</ele>
        <time>2021-08-10T05:27:43Z</time>
      </trkpt>
      <trkpt lat="48.84003" lon="4.59657">
        <ele>143.37</ele>
        <time>2021-08-10T05:27:44Z</time>
      </trkpt>
      <trkpt lat="48.84003" lon="4.59659">
        <ele>143.85</ele>
        <time>2021-08-10T05:27:45Z</time>
      </trkpt>
      <trkpt lat="48.84003" lon="4.59661">
        <ele>143.85</ele>
        <time>2021-08-10T05:27:46Z</time>
      </trkpt>
      <trkpt lat="48.84003" lon="4.59663">
        <ele>144.34</ele>
        <time>2021-08-10T05:27:47Z</time>
      </trkpt>
      <trkpt lat="48.84003" lon="4.59665">
        <ele>144.34</ele>
        <time>2021-08-10T05:27:48Z</time>
      </trkpt>
      <trkpt lat="48.84003" lon="4.59667">
        <ele>144.82</ele>
        <time>2021-08-10T05:27:49Z</time>
      </trkpt>
      <trkpt lat="48.84003" lon="4.59669">
        <ele>144.82</ele>
        <time>2021-08-10T05:27:50Z</time>
      </trkpt>
      <trkpt lat="48.84003" lon="4.59671">
        <ele>145.3</ele>
        <time>2021-08-10T05:27:51Z</time>
      </trkpt>
      <trkpt lat="48.84002" lon="4.59673">
        <ele>145.3</ele>
        <time>2021-08-10T05:27:52Z</time>
      </trkpt>
      <trkpt lat="48.84002" lon="4.59675">
        <ele>145.3</ele>
        <time>2021-08-10T05:27:53Z</time>
      </trkpt>
      <trkpt lat="48.84002" lon="4.59677">
        <ele>145.3</ele>
        <time>2021-08-10T05:27:54Z</time>
      </trkpt>
      <trkpt lat="48.83996" lon="4.59695">
        <ele>147.22</ele>
        <time>2021-08-10T05:28:04Z</time>
      </trkpt>
      <trkpt lat="48.83989" lon="4.59716">
        <ele>149.62</ele>
        <time>2021-08-10T05:28:17Z</time>
      </trkpt>
      <trkpt lat="48.83986" lon="4.59721">
        <ele>150.1</ele>
        <time>2021-08-10T05:28:20Z</time>
      </trkpt>
      <trkpt lat="48.83986" lon="4.59723">
        <ele>150.1</ele>
        <time>2021-08-10T05:28:21Z</time>
      </trkpt>
      <trkpt lat="48.83985" lon="4.59725">
        <ele>150.1</ele>
        <time>2021-08-10T05:28:22Z</time>
      </trkpt>
      <trkpt lat="48.83985" lon="4.59727">
        <ele>150.58</ele>
        <time>2021-08-10T05:28:23Z</time>
      </trkpt>
      <trkpt lat="48.83984" lon="4.59728">
        <ele>151.06</ele>
        <time>2021-08-10T05:28:24Z</time>
      </trkpt>
      <trkpt lat="48.83983" lon="4.5973">
        <ele>151.06</ele>
        <time>2021-08-10T05:28:25Z</time>
      </trkpt>
      <trkpt lat="48.83983" lon="4.59732">
        <ele>151.06</ele>
        <time>2021-08-10T05:28:26Z</time>
      </trkpt>
      <trkpt lat="48.83982" lon="4.59733">
        <ele>151.54</ele>
        <time>2021-08-10T05:28:27Z</time>
      </trkpt>
      <trkpt lat="48.83975" lon="4.59753">
        <ele>152.99</ele>
        <time>2021-08-10T05:28:38Z</time>
      </trkpt>
      <trkpt lat="48.83969" lon="4.59771">
        <ele>154.43</ele>
        <time>2021-08-10T05:28:48Z</time>
      </trkpt>
      <trkpt lat="48.83965" lon="4.59784">
        <ele>155.39</ele>
        <time>2021-08-10T05:28:55Z</time>
      </trkpt>
      <trkpt lat="48.83964" lon="4.59786">
        <ele>155.39</ele>
        <time>2021-08-10T05:28:56Z</time>
      </trkpt>
      <trkpt lat="48.83964" lon="4.59788">
        <ele>155.87</ele>
        <time>2021-08-10T05:28:57Z</time>
      </trkpt>
      <trkpt lat="48.83963" lon="4.59789">
        <ele>155.87</ele>
        <time>2021-08-10T05:28:58Z</time>
      </trkpt>
      <trkpt lat="48.83962" lon="4.59791">
        <ele>155.87</ele>
        <time>2021-08-10T05:28:59Z</time>
      </trkpt>
      <trkpt lat="48.83961" lon="4.59793">
        <ele>156.35</ele>
        <time>2021-08-10T05:29:00Z</time>
      </trkpt>
      <trkpt lat="48.83961" lon="4.59795">
        <ele>156.35</ele>
        <time>2021-08-10T05:29:01Z</time>
      </trkpt>
      <trkpt lat="48.83955" lon="4.59811">
        <ele>158.27</ele>
        <time>2021-08-10T05:29:10Z</time>
      </trkpt>
      <trkpt lat="48.83948" lon="4.5983">
        <ele>159.24</ele>
        <time>2021-08-10T05:29:20Z</time>
      </trkpt>
      <trkpt lat="48.83942" lon="4.59848">
        <ele>160.68</ele>
        <time>2021-08-10T05:29:30Z</time>
      </trkpt>
      <trkpt lat="48.83937" lon="4.59864">
        <ele>161.64</ele>
        <time>2021-08-10T05:29:38Z</time>
      </trkpt>
      <trkpt lat="48.8393" lon="4.59883">
        <ele>162.6</ele>
        <time>2021-08-10T05:29:48Z</time>
      </trkpt>
      <trkpt lat="48.83922" lon="4.59905">
        <ele>164.04</ele>
        <time>2021-08-10T05:29:59Z</time>
      </trkpt>
      <trkpt lat="48.83919" lon="4.59912">
        <ele>164.52</ele>
        <time>2021-08-10T05:30:02Z</time>
      </trkpt>
      <trkpt lat="48.83918" lon="4.59914">
        <ele>164.52</ele>
        <time>2021-08-10T05:30:03Z</time>
      </trkpt>
      <trkpt lat="48.83918" lon="4.59916">
        <ele>164.52</ele>
        <time>2021-08-10T05:30:04Z</time>
      </trkpt>
      <trkpt lat="48.83917" lon="4.59919">
        <ele>164.52</ele>
        <time>2021-08-10T05:30:05Z</time>
      </trkpt>
      <trkpt lat="48.83916" lon="4.59921">
        <ele>165</ele>
        <time>2021-08-10T05:30:06Z</time>
      </trkpt>
      <trkpt lat="48.83909" lon="4.59942">
        <ele>165.96</ele>
        <time>2021-08-10T05:30:14Z</time>
      </trkpt>
      <trkpt lat="48.83899" lon="4.5997">
        <ele>166.45</ele>
        <time>2021-08-10T05:30:24Z</time>
      </trkpt>
      <trkpt lat="48.83888" lon="4.6">
        <ele>166.93</ele>
        <time>2021-08-10T05:30:33Z</time>
      </trkpt>
      <trkpt lat="48.83878" lon="4.60026">
        <ele>166.93</ele>
        <time>2021-08-10T05:30:40Z</time>
      </trkpt>
      <trkpt lat="48.8387" lon="4.60052">
        <ele>165.48</ele>
        <time>2021-08-10T05:30:45Z</time>
      </trkpt>
      <trkpt lat="48.8385" lon="4.60108">
        <ele>163.08</ele>
        <time>2021-08-10T05:30:54Z</time>
      </trkpt>
      <trkpt lat="48.83841" lon="4.60135">
        <ele>161.64</ele>
        <time>2021-08-10T05:30:58Z</time>
      </trkpt>
      <trkpt lat="48.83838" lon="4.60141">
        <ele>161.16</ele>
        <time>2021-08-10T05:30:59Z</time>
      </trkpt>
      <trkpt lat="48.83834" lon="4.60146">
        <ele>160.68</ele>
        <time>2021-08-10T05:31:00Z</time>
      </trkpt>
      <trkpt lat="48.83829" lon="4.60148">
        <ele>159.72</ele>
        <time>2021-08-10T05:31:01Z</time>
      </trkpt>
      <trkpt lat="48.83823" lon="4.60148">
        <ele>159.24</ele>
        <time>2021-08-10T05:31:02Z</time>
      </trkpt>
      <trkpt lat="48.83818" lon="4.60147">
        <ele>159.24</ele>
        <time>2021-08-10T05:31:03Z</time>
      </trkpt>
      <trkpt lat="48.83813" lon="4.60145">
        <ele>158.27</ele>
        <time>2021-08-10T05:31:04Z</time>
      </trkpt>
      <trkpt lat="48.83801" lon="4.6014">
        <ele>157.79</ele>
        <time>2021-08-10T05:31:06Z</time>
      </trkpt>
      <trkpt lat="48.83795" lon="4.60137">
        <ele>157.31</ele>
        <time>2021-08-10T05:31:07Z</time>
      </trkpt>
      <trkpt lat="48.83736" lon="4.6011">
        <ele>154.91</ele>
        <time>2021-08-10T05:31:17Z</time>
      </trkpt>
      <trkpt lat="48.83692" lon="4.60092">
        <ele>152.03</ele>
        <time>2021-08-10T05:31:24Z</time>
      </trkpt>
      <trkpt lat="48.83653" lon="4.60077">
        <ele>149.14</ele>
        <time>2021-08-10T05:31:29Z</time>
      </trkpt>
      <trkpt lat="48.83619" lon="4.60062">
        <ele>145.78</ele>
        <time>2021-08-10T05:31:33Z</time>
      </trkpt>
      <trkpt lat="48.83583" lon="4.60048">
        <ele>141.93</ele>
        <time>2021-08-10T05:31:37Z</time>
      </trkpt>
      <trkpt lat="48.83537" lon="4.60038">
        <ele>138.09</ele>
        <time>2021-08-10T05:31:42Z</time>
      </trkpt>
      <trkpt lat="48.83489" lon="4.60033">
        <ele>134.24</ele>
        <time>2021-08-10T05:31:47Z</time>
      </trkpt>
      <trkpt lat="48.83452" lon="4.60028">
        <ele>130.4</ele>
        <time>2021-08-10T05:31:51Z</time>
      </trkpt>
      <trkpt lat="48.83416" lon="4.60022">
        <ele>127.03</ele>
        <time>2021-08-10T05:31:55Z</time>
      </trkpt>
      <trkpt lat="48.83379" lon="4.60015">
        <ele>123.19</ele>
        <time>2021-08-10T05:31:59Z</time>
      </trkpt>
      <trkpt lat="48.83362" lon="4.60012">
        <ele>121.74</ele>
        <time>2021-08-10T05:32:01Z</time>
      </trkpt>
      <trkpt lat="48.83352" lon="4.60014">
        <ele>120.78</ele>
        <time>2021-08-10T05:32:02Z</time>
      </trkpt>
      <trkpt lat="48.83346" lon="4.60016">
        <ele>121.26</ele>
        <time>2021-08-10T05:32:03Z</time>
      </trkpt>
      <trkpt lat="48.83338" lon="4.6002">
        <ele>120.3</ele>
        <time>2021-08-10T05:32:04Z</time>
      </trkpt>
      <trkpt lat="48.8333" lon="4.60024">
        <ele>119.34</ele>
        <time>2021-08-10T05:32:05Z</time>
      </trkpt>
      <trkpt lat="48.83323" lon="4.60029">
        <ele>119.34</ele>
        <time>2021-08-10T05:32:06Z</time>
      </trkpt>
      <trkpt lat="48.83247" lon="4.60073">
        <ele>115.98</ele>
        <time>2021-08-10T05:32:16Z</time>
      </trkpt>
      <trkpt lat="48.83171" lon="4.60116">
        <ele>113.57</ele>
        <time>2021-08-10T05:32:27Z</time>
      </trkpt>
      <trkpt lat="48.83166" lon="4.60118">
        <ele>114.05</ele>
        <time>2021-08-10T05:32:28Z</time>
      </trkpt>
      <trkpt lat="48.83161" lon="4.60118">
        <ele>114.05</ele>
        <time>2021-08-10T05:32:29Z</time>
      </trkpt>
      <trkpt lat="48.83157" lon="4.60116">
        <ele>113.09</ele>
        <time>2021-08-10T05:32:30Z</time>
      </trkpt>
      <trkpt lat="48.83154" lon="4.60112">
        <ele>113.09</ele>
        <time>2021-08-10T05:32:31Z</time>
      </trkpt>
      <trkpt lat="48.83151" lon="4.60106">
        <ele>113.09</ele>
        <time>2021-08-10T05:32:32Z</time>
      </trkpt>
      <trkpt lat="48.83149" lon="4.601">
        <ele>113.09</ele>
        <time>2021-08-10T05:32:33Z</time>
      </trkpt>
      <trkpt lat="48.83147" lon="4.60093">
        <ele>113.09</ele>
        <time>2021-08-10T05:32:34Z</time>
      </trkpt>
      <trkpt lat="48.83146" lon="4.60086">
        <ele>113.09</ele>
        <time>2021-08-10T05:32:35Z</time>
      </trkpt>
      <trkpt lat="48.83132" lon="4.6003">
        <ele>111.65</ele>
        <time>2021-08-10T05:32:42Z</time>
      </trkpt>
      <trkpt lat="48.83124" lon="4.6001">
        <ele>111.65</ele>
        <time>2021-08-10T05:32:45Z</time>
      </trkpt>
      <trkpt lat="48.83103" lon="4.59961">
        <ele>112.13</ele>
        <time>2021-08-10T05:32:53Z</time>
      </trkpt>
      <trkpt lat="48.83094" lon="4.59939">
        <ele>112.13</ele>
        <time>2021-08-10T05:32:58Z</time>
      </trkpt>
      <trkpt lat="48.83094" lon="4.59933">
        <ele>112.13</ele>
        <time>2021-08-10T05:32:59Z</time>
      </trkpt>
      <trkpt lat="48.83092" lon="4.59898">
        <ele>111.17</ele>
        <time>2021-08-10T05:33:04Z</time>
      </trkpt>
      <trkpt lat="48.83083" lon="4.59825">
        <ele>110.21</ele>
        <time>2021-08-10T05:33:14Z</time>
      </trkpt>
      <trkpt lat="48.83083" lon="4.59812">
        <ele>110.21</ele>
        <time>2021-08-10T05:33:16Z</time>
      </trkpt>
      <trkpt lat="48.83082" lon="4.59806">
        <ele>110.21</ele>
        <time>2021-08-10T05:33:17Z</time>
      </trkpt>
      <trkpt lat="48.83077" lon="4.59783">
        <ele>109.25</ele>
        <time>2021-08-10T05:33:21Z</time>
      </trkpt>
      <trkpt lat="48.83076" lon="4.59777">
        <ele>109.25</ele>
        <time>2021-08-10T05:33:22Z</time>
      </trkpt>
      <trkpt lat="48.83064" lon="4.5972">
        <ele>110.69</ele>
        <time>2021-08-10T05:33:32Z</time>
      </trkpt>
      <trkpt lat="48.83058" lon="4.59689">
        <ele>109.25</ele>
        <time>2021-08-10T05:33:37Z</time>
      </trkpt>
      <trkpt lat="48.83051" lon="4.59652">
        <ele>107.32</ele>
        <time>2021-08-10T05:33:43Z</time>
      </trkpt>
      <trkpt lat="48.83051" lon="4.59648">
        <ele>108.77</ele>
        <time>2021-08-10T05:33:44Z</time>
      </trkpt>
      <trkpt lat="48.83051" lon="4.59642">
        <ele>108.77</ele>
        <time>2021-08-10T05:33:45Z</time>
      </trkpt>
      <trkpt lat="48.83049" lon="4.59631">
        <ele>106.36</ele>
        <time>2021-08-10T05:33:47Z</time>
      </trkpt>
      <trkpt lat="48.83048" lon="4.59626">
        <ele>105.4</ele>
        <time>2021-08-10T05:33:48Z</time>
      </trkpt>
      <trkpt lat="48.83048" lon="4.5962">
        <ele>104.92</ele>
        <time>2021-08-10T05:33:49Z</time>
      </trkpt>
      <trkpt lat="48.83048" lon="4.59589">
        <ele>105.88</ele>
        <time>2021-08-10T05:33:55Z</time>
      </trkpt>
      <trkpt lat="48.83045" lon="4.59545">
        <ele>105.88</ele>
        <time>2021-08-10T05:34:02Z</time>
      </trkpt>
      <trkpt lat="48.83041" lon="4.59524">
        <ele>105.4</ele>
        <time>2021-08-10T05:34:06Z</time>
      </trkpt>
      <trkpt lat="48.83041" lon="4.59516">
        <ele>105.4</ele>
        <time>2021-08-10T05:34:07Z</time>
      </trkpt>
      <trkpt lat="48.8304" lon="4.5951">
        <ele>105.4</ele>
        <time>2021-08-10T05:34:08Z</time>
      </trkpt>
      <trkpt lat="48.83036" lon="4.59473">
        <ele>105.4</ele>
        <time>2021-08-10T05:34:16Z</time>
      </trkpt>
      <trkpt lat="48.83039" lon="4.59447">
        <ele>105.4</ele>
        <time>2021-08-10T05:34:23Z</time>
      </trkpt>
      <trkpt lat="48.83038" lon="4.59443">
        <ele>105.4</ele>
        <time>2021-08-10T05:34:30Z</time>
      </trkpt>
      <trkpt lat="48.8304" lon="4.5944">
        <ele>105.4</ele>
        <time>2021-08-10T05:34:58Z</time>
      </trkpt>
      <trkpt lat="48.83037" lon="4.59439">
        <ele>105.4</ele>
        <time>2021-08-10T05:35:12Z</time>
      </trkpt>
      <trkpt lat="48.83035" lon="4.59438">
        <ele>105.4</ele>
        <time>2021-08-10T05:35:26Z</time>
      </trkpt>
      <trkpt lat="48.83035" lon="4.59438">
        <ele>105.4</ele>
        <time>2021-08-10T05:35:41Z</time>
      </trkpt>
      <trkpt lat="48.83035" lon="4.59441">
        <ele>105.4</ele>
        <time>2021-08-10T05:35:58Z</time>
      </trkpt>
      <trkpt lat="48.83035" lon="4.59441">
        <ele>104.92</ele>
        <time>2021-08-10T05:36:12Z</time>
      </trkpt>
      <trkpt lat="48.83033" lon="4.5944">
        <ele>104.92</ele>
        <time>2021-08-10T05:36:27Z</time>
      </trkpt>
      <trkpt lat="48.83033" lon="4.59427">
        <ele>104.92</ele>
        <time>2021-08-10T05:36:35Z</time>
      </trkpt>
      <trkpt lat="48.83033" lon="4.59398">
        <ele>103.96</ele>
        <time>2021-08-10T05:36:40Z</time>
      </trkpt>
      <trkpt lat="48.83032" lon="4.59391">
        <ele>103.96</ele>
        <time>2021-08-10T05:36:41Z</time>
      </trkpt>
      <trkpt lat="48.8303" lon="4.59384">
        <ele>103.96</ele>
        <time>2021-08-10T05:36:42Z</time>
      </trkpt>
      <trkpt lat="48.83018" lon="4.59347">
        <ele>103.96</ele>
        <time>2021-08-10T05:36:48Z</time>
      </trkpt>
      <trkpt lat="48.83011" lon="4.59337">
        <ele>103.96</ele>
        <time>2021-08-10T05:36:50Z</time>
      </trkpt>
      <trkpt lat="48.83008" lon="4.59332">
        <ele>103.96</ele>
        <time>2021-08-10T05:36:51Z</time>
      </trkpt>
      <trkpt lat="48.83005" lon="4.59328">
        <ele>103.96</ele>
        <time>2021-08-10T05:36:52Z</time>
      </trkpt>
      <trkpt lat="48.82984" lon="4.59304">
        <ele>103.96</ele>
        <time>2021-08-10T05:36:58Z</time>
      </trkpt>
      <trkpt lat="48.82979" lon="4.593">
        <ele>103.96</ele>
        <time>2021-08-10T05:36:59Z</time>
      </trkpt>
      <trkpt lat="48.82976" lon="4.59295">
        <ele>103.96</ele>
        <time>2021-08-10T05:37:00Z</time>
      </trkpt>
      <trkpt lat="48.82958" lon="4.59261">
        <ele>104.44</ele>
        <time>2021-08-10T05:37:07Z</time>
      </trkpt>
      <trkpt lat="48.82956" lon="4.59255">
        <ele>104.44</ele>
        <time>2021-08-10T05:37:08Z</time>
      </trkpt>
      <trkpt lat="48.82954" lon="4.59248">
        <ele>104.44</ele>
        <time>2021-08-10T05:37:09Z</time>
      </trkpt>
      <trkpt lat="48.82953" lon="4.59241">
        <ele>104.44</ele>
        <time>2021-08-10T05:37:10Z</time>
      </trkpt>
      <trkpt lat="48.82952" lon="4.59235">
        <ele>104.44</ele>
        <time>2021-08-10T05:37:11Z</time>
      </trkpt>
      <trkpt lat="48.82952" lon="4.59228">
        <ele>104.44</ele>
        <time>2021-08-10T05:37:12Z</time>
      </trkpt>
      <trkpt lat="48.82951" lon="4.59214">
        <ele>104.44</ele>
        <time>2021-08-10T05:37:14Z</time>
      </trkpt>
      <trkpt lat="48.82951" lon="4.59207">
        <ele>104.44</ele>
        <time>2021-08-10T05:37:15Z</time>
      </trkpt>
      <trkpt lat="48.82952" lon="4.592">
        <ele>104.44</ele>
        <time>2021-08-10T05:37:16Z</time>
      </trkpt>
      <trkpt lat="48.82952" lon="4.59166">
        <ele>105.4</ele>
        <time>2021-08-10T05:37:22Z</time>
      </trkpt>
      <trkpt lat="48.82949" lon="4.59132">
        <ele>105.88</ele>
        <time>2021-08-10T05:37:28Z</time>
      </trkpt>
      <trkpt lat="48.82939" lon="4.59097">
        <ele>105.88</ele>
        <time>2021-08-10T05:37:34Z</time>
      </trkpt>
      <trkpt lat="48.82933" lon="4.59073">
        <ele>106.36</ele>
        <time>2021-08-10T05:37:40Z</time>
      </trkpt>
      <trkpt lat="48.82933" lon="4.59051">
        <ele>106.84</ele>
        <time>2021-08-10T05:37:46Z</time>
      </trkpt>
      <trkpt lat="48.82942" lon="4.59015">
        <ele>107.81</ele>
        <time>2021-08-10T05:37:52Z</time>
      </trkpt>
      <trkpt lat="48.82944" lon="4.59009">
        <ele>106.36</ele>
        <time>2021-08-10T05:37:53Z</time>
      </trkpt>
      <trkpt lat="48.8295" lon="4.58997">
        <ele>105.4</ele>
        <time>2021-08-10T05:37:55Z</time>
      </trkpt>
      <trkpt lat="48.82953" lon="4.58991">
        <ele>104.44</ele>
        <time>2021-08-10T05:37:56Z</time>
      </trkpt>
      <trkpt lat="48.82955" lon="4.58986">
        <ele>104.44</ele>
        <time>2021-08-10T05:37:57Z</time>
      </trkpt>
      <trkpt lat="48.82957" lon="4.58979">
        <ele>103.96</ele>
        <time>2021-08-10T05:37:58Z</time>
      </trkpt>
      <trkpt lat="48.82957" lon="4.58972">
        <ele>103.96</ele>
        <time>2021-08-10T05:37:59Z</time>
      </trkpt>
      <trkpt lat="48.82957" lon="4.58965">
        <ele>103.96</ele>
        <time>2021-08-10T05:38:00Z</time>
      </trkpt>
      <trkpt lat="48.82958" lon="4.58942">
        <ele>103.96</ele>
        <time>2021-08-10T05:38:03Z</time>
      </trkpt>
      <trkpt lat="48.82957" lon="4.58934">
        <ele>103.96</ele>
        <time>2021-08-10T05:38:04Z</time>
      </trkpt>
      <trkpt lat="48.82957" lon="4.58928">
        <ele>103.96</ele>
        <time>2021-08-10T05:38:05Z</time>
      </trkpt>
      <trkpt lat="48.82956" lon="4.58921">
        <ele>103.96</ele>
        <time>2021-08-10T05:38:06Z</time>
      </trkpt>
      <trkpt lat="48.82954" lon="4.58914">
        <ele>103.48</ele>
        <time>2021-08-10T05:38:07Z</time>
      </trkpt>
      <trkpt lat="48.82953" lon="4.58907">
        <ele>103.48</ele>
        <time>2021-08-10T05:38:08Z</time>
      </trkpt>
      <trkpt lat="48.82951" lon="4.589">
        <ele>103.48</ele>
        <time>2021-08-10T05:38:09Z</time>
      </trkpt>
      <trkpt lat="48.82949" lon="4.58894">
        <ele>103.48</ele>
        <time>2021-08-10T05:38:10Z</time>
      </trkpt>
      <trkpt lat="48.82947" lon="4.58888">
        <ele>103.48</ele>
        <time>2021-08-10T05:38:11Z</time>
      </trkpt>
      <trkpt lat="48.82946" lon="4.58881">
        <ele>103.48</ele>
        <time>2021-08-10T05:38:12Z</time>
      </trkpt>
      <trkpt lat="48.82944" lon="4.58868">
        <ele>103.48</ele>
        <time>2021-08-10T05:38:14Z</time>
      </trkpt>
      <trkpt lat="48.82943" lon="4.58861">
        <ele>103.48</ele>
        <time>2021-08-10T05:38:15Z</time>
      </trkpt>
      <trkpt lat="48.82938" lon="4.58841">
        <ele>103.48</ele>
        <time>2021-08-10T05:38:18Z</time>
      </trkpt>
      <trkpt lat="48.82925" lon="4.58816">
        <ele>104.92</ele>
        <time>2021-08-10T05:38:23Z</time>
      </trkpt>
      <trkpt lat="48.82906" lon="4.58783">
        <ele>105.88</ele>
        <time>2021-08-10T05:38:30Z</time>
      </trkpt>
      <trkpt lat="48.82894" lon="4.58762">
        <ele>106.36</ele>
        <time>2021-08-10T05:38:34Z</time>
      </trkpt>
      <trkpt lat="48.82891" lon="4.58756">
        <ele>105.4</ele>
        <time>2021-08-10T05:38:35Z</time>
      </trkpt>
      <trkpt lat="48.82872" lon="4.58719">
        <ele>104.44</ele>
        <time>2021-08-10T05:38:41Z</time>
      </trkpt>
      <trkpt lat="48.82868" lon="4.58714">
        <ele>104.44</ele>
        <time>2021-08-10T05:38:42Z</time>
      </trkpt>
      <trkpt lat="48.82857" lon="4.58696">
        <ele>103.96</ele>
        <time>2021-08-10T05:38:45Z</time>
      </trkpt>
      <trkpt lat="48.82854" lon="4.5869">
        <ele>103.96</ele>
        <time>2021-08-10T05:38:46Z</time>
      </trkpt>
      <trkpt lat="48.82851" lon="4.58682">
        <ele>103.48</ele>
        <time>2021-08-10T05:38:47Z</time>
      </trkpt>
      <trkpt lat="48.82838" lon="4.58655">
        <ele>103.48</ele>
        <time>2021-08-10T05:38:51Z</time>
      </trkpt>
      <trkpt lat="48.82825" lon="4.58637">
        <ele>103.48</ele>
        <time>2021-08-10T05:38:54Z</time>
      </trkpt>
      <trkpt lat="48.82799" lon="4.58588">
        <ele>103.48</ele>
        <time>2021-08-10T05:39:02Z</time>
      </trkpt>
      <trkpt lat="48.82772" lon="4.58548">
        <ele>103.48</ele>
        <time>2021-08-10T05:39:10Z</time>
      </trkpt>
      <trkpt lat="48.82744" lon="4.58515">
        <ele>103.48</ele>
        <time>2021-08-10T05:39:17Z</time>
      </trkpt>
      <trkpt lat="48.82732" lon="4.585">
        <ele>103.48</ele>
        <time>2021-08-10T05:39:20Z</time>
      </trkpt>
      <trkpt lat="48.82728" lon="4.58495">
        <ele>103.48</ele>
        <time>2021-08-10T05:39:21Z</time>
      </trkpt>
      <trkpt lat="48.82725" lon="4.58489">
        <ele>103.48</ele>
        <time>2021-08-10T05:39:22Z</time>
      </trkpt>
      <trkpt lat="48.82718" lon="4.58477">
        <ele>103.48</ele>
        <time>2021-08-10T05:39:24Z</time>
      </trkpt>
      <trkpt lat="48.82714" lon="4.58471">
        <ele>103.48</ele>
        <time>2021-08-10T05:39:25Z</time>
      </trkpt>
      <trkpt lat="48.82702" lon="4.58458">
        <ele>103.48</ele>
        <time>2021-08-10T05:39:28Z</time>
      </trkpt>
      <trkpt lat="48.82698" lon="4.58455">
        <ele>103.48</ele>
        <time>2021-08-10T05:39:29Z</time>
      </trkpt>
      <trkpt lat="48.82693" lon="4.58452">
        <ele>103.48</ele>
        <time>2021-08-10T05:39:30Z</time>
      </trkpt>
      <trkpt lat="48.8266" lon="4.58437">
        <ele>102.52</ele>
        <time>2021-08-10T05:39:36Z</time>
      </trkpt>
      <trkpt lat="48.82631" lon="4.58421">
        <ele>102.52</ele>
        <time>2021-08-10T05:39:41Z</time>
      </trkpt>
      <trkpt lat="48.8261" lon="4.58405">
        <ele>102.52</ele>
        <time>2021-08-10T05:39:45Z</time>
      </trkpt>
      <trkpt lat="48.82592" lon="4.58379">
        <ele>103.96</ele>
        <time>2021-08-10T05:39:51Z</time>
      </trkpt>
      <trkpt lat="48.82572" lon="4.58365">
        <ele>103.96</ele>
        <time>2021-08-10T05:39:57Z</time>
      </trkpt>
      <trkpt lat="48.82545" lon="4.5836">
        <ele>103.96</ele>
        <time>2021-08-10T05:40:04Z</time>
      </trkpt>
      <trkpt lat="48.82525" lon="4.58358">
        <ele>103.96</ele>
        <time>2021-08-10T05:40:08Z</time>
      </trkpt>
      <trkpt lat="48.8251" lon="4.58352">
        <ele>103</ele>
        <time>2021-08-10T05:40:11Z</time>
      </trkpt>
      <trkpt lat="48.82505" lon="4.5835">
        <ele>103</ele>
        <time>2021-08-10T05:40:12Z</time>
      </trkpt>
      <trkpt lat="48.82473" lon="4.58332">
        <ele>103</ele>
        <time>2021-08-10T05:40:19Z</time>
      </trkpt>
      <trkpt lat="48.82459" lon="4.58324">
        <ele>104.44</ele>
        <time>2021-08-10T05:40:23Z</time>
      </trkpt>
      <trkpt lat="48.82431" lon="4.58306">
        <ele>104.44</ele>
        <time>2021-08-10T05:40:30Z</time>
      </trkpt>
      <trkpt lat="48.82403" lon="4.58287">
        <ele>104.92</ele>
        <time>2021-08-10T05:40:37Z</time>
      </trkpt>
      <trkpt lat="48.8237" lon="4.58271">
        <ele>103.48</ele>
        <time>2021-08-10T05:40:43Z</time>
      </trkpt>
      <trkpt lat="48.82336" lon="4.58263">
        <ele>103.96</ele>
        <time>2021-08-10T05:40:50Z</time>
      </trkpt>
      <trkpt lat="48.82297" lon="4.58264">
        <ele>102.52</ele>
        <time>2021-08-10T05:40:57Z</time>
      </trkpt>
      <trkpt lat="48.82262" lon="4.58261">
        <ele>102.04</ele>
        <time>2021-08-10T05:41:03Z</time>
      </trkpt>
      <trkpt lat="48.82229" lon="4.58254">
        <ele>102.52</ele>
        <time>2021-08-10T05:41:10Z</time>
      </trkpt>
      <trkpt lat="48.82224" lon="4.58252">
        <ele>102.52</ele>
        <time>2021-08-10T05:41:11Z</time>
      </trkpt>
      <trkpt lat="48.8222" lon="4.58251">
        <ele>103.48</ele>
        <time>2021-08-10T05:41:12Z</time>
      </trkpt>
      <trkpt lat="48.82216" lon="4.58251">
        <ele>103.48</ele>
        <time>2021-08-10T05:41:13Z</time>
      </trkpt>
      <trkpt lat="48.82211" lon="4.58252">
        <ele>103.96</ele>
        <time>2021-08-10T05:41:14Z</time>
      </trkpt>
      <trkpt lat="48.82207" lon="4.58253">
        <ele>103.96</ele>
        <time>2021-08-10T05:41:15Z</time>
      </trkpt>
      <trkpt lat="48.82184" lon="4.58258">
        <ele>104.92</ele>
        <time>2021-08-10T05:41:22Z</time>
      </trkpt>
      <trkpt lat="48.82163" lon="4.58277">
        <ele>106.36</ele>
        <time>2021-08-10T05:41:30Z</time>
      </trkpt>
      <trkpt lat="48.8215" lon="4.58295">
        <ele>107.81</ele>
        <time>2021-08-10T05:41:37Z</time>
      </trkpt>
      <trkpt lat="48.82133" lon="4.58323">
        <ele>109.25</ele>
        <time>2021-08-10T05:41:46Z</time>
      </trkpt>
      <trkpt lat="48.82114" lon="4.5835">
        <ele>111.17</ele>
        <time>2021-08-10T05:41:55Z</time>
      </trkpt>
      <trkpt lat="48.82096" lon="4.58373">
        <ele>113.09</ele>
        <time>2021-08-10T05:42:04Z</time>
      </trkpt>
      <trkpt lat="48.82083" lon="4.58397">
        <ele>114.05</ele>
        <time>2021-08-10T05:42:11Z</time>
      </trkpt>
      <trkpt lat="48.82062" lon="4.58431">
        <ele>114.53</ele>
        <time>2021-08-10T05:42:21Z</time>
      </trkpt>
      <trkpt lat="48.8205" lon="4.5845">
        <ele>114.53</ele>
        <time>2021-08-10T05:42:25Z</time>
      </trkpt>
      <trkpt lat="48.82047" lon="4.58455">
        <ele>114.53</ele>
        <time>2021-08-10T05:42:26Z</time>
      </trkpt>
      <trkpt lat="48.82044" lon="4.5846">
        <ele>114.53</ele>
        <time>2021-08-10T05:42:27Z</time>
      </trkpt>
      <trkpt lat="48.82034" lon="4.58475">
        <ele>113.09</ele>
        <time>2021-08-10T05:42:30Z</time>
      </trkpt>
      <trkpt lat="48.82003" lon="4.58518">
        <ele>112.13</ele>
        <time>2021-08-10T05:42:39Z</time>
      </trkpt>
      <trkpt lat="48.81978" lon="4.58559">
        <ele>111.65</ele>
        <time>2021-08-10T05:42:48Z</time>
      </trkpt>
      <trkpt lat="48.81975" lon="4.5857">
        <ele>111.65</ele>
        <time>2021-08-10T05:42:50Z</time>
      </trkpt>
      <trkpt lat="48.81958" lon="4.58627">
        <ele>111.17</ele>
        <time>2021-08-10T05:42:59Z</time>
      </trkpt>
      <trkpt lat="48.81938" lon="4.58685">
        <ele>111.17</ele>
        <time>2021-08-10T05:43:08Z</time>
      </trkpt>
      <trkpt lat="48.81928" lon="4.58727">
        <ele>111.17</ele>
        <time>2021-08-10T05:43:14Z</time>
      </trkpt>
      <trkpt lat="48.81917" lon="4.58804">
        <ele>112.13</ele>
        <time>2021-08-10T05:43:25Z</time>
      </trkpt>
      <trkpt lat="48.81904" lon="4.58854">
        <ele>112.13</ele>
        <time>2021-08-10T05:43:32Z</time>
      </trkpt>
      <trkpt lat="48.81897" lon="4.58877">
        <ele>111.17</ele>
        <time>2021-08-10T05:43:35Z</time>
      </trkpt>
      <trkpt lat="48.81867" lon="4.58932">
        <ele>109.73</ele>
        <time>2021-08-10T05:43:43Z</time>
      </trkpt>
      <trkpt lat="48.81835" lon="4.58977">
        <ele>111.17</ele>
        <time>2021-08-10T05:43:51Z</time>
      </trkpt>
      <trkpt lat="48.81808" lon="4.59012">
        <ele>112.13</ele>
        <time>2021-08-10T05:43:59Z</time>
      </trkpt>
      <trkpt lat="48.81788" lon="4.5904">
        <ele>113.09</ele>
        <time>2021-08-10T05:44:07Z</time>
      </trkpt>
      <trkpt lat="48.81771" lon="4.59068">
        <ele>114.53</ele>
        <time>2021-08-10T05:44:15Z</time>
      </trkpt>
      <trkpt lat="48.81756" lon="4.59097">
        <ele>116.46</ele>
        <time>2021-08-10T05:44:24Z</time>
      </trkpt>
      <trkpt lat="48.81741" lon="4.59126">
        <ele>117.42</ele>
        <time>2021-08-10T05:44:33Z</time>
      </trkpt>
      <trkpt lat="48.8173" lon="4.5915">
        <ele>118.38</ele>
        <time>2021-08-10T05:44:40Z</time>
      </trkpt>
      <trkpt lat="48.81715" lon="4.59191">
        <ele>119.34</ele>
        <time>2021-08-10T05:44:50Z</time>
      </trkpt>
      <trkpt lat="48.81698" lon="4.59234">
        <ele>119.82</ele>
        <time>2021-08-10T05:45:00Z</time>
      </trkpt>
      <trkpt lat="48.8169" lon="4.59259">
        <ele>120.3</ele>
        <time>2021-08-10T05:45:06Z</time>
      </trkpt>
      <trkpt lat="48.81671" lon="4.59297">
        <ele>120.78</ele>
        <time>2021-08-10T05:45:16Z</time>
      </trkpt>
      <trkpt lat="48.81667" lon="4.59298">
        <ele>120.78</ele>
        <time>2021-08-10T05:45:17Z</time>
      </trkpt>
      <trkpt lat="48.81663" lon="4.59297">
        <ele>120.78</ele>
        <time>2021-08-10T05:45:18Z</time>
      </trkpt>
      <trkpt lat="48.81659" lon="4.59295">
        <ele>120.78</ele>
        <time>2021-08-10T05:45:19Z</time>
      </trkpt>
      <trkpt lat="48.81655" lon="4.59291">
        <ele>120.78</ele>
        <time>2021-08-10T05:45:20Z</time>
      </trkpt>
      <trkpt lat="48.81651" lon="4.59287">
        <ele>119.34</ele>
        <time>2021-08-10T05:45:21Z</time>
      </trkpt>
      <trkpt lat="48.81646" lon="4.59283">
        <ele>119.34</ele>
        <time>2021-08-10T05:45:22Z</time>
      </trkpt>
      <trkpt lat="48.81614" lon="4.59253">
        <ele>117.9</ele>
        <time>2021-08-10T05:45:29Z</time>
      </trkpt>
      <trkpt lat="48.81586" lon="4.59231">
        <ele>116.94</ele>
        <time>2021-08-10T05:45:36Z</time>
      </trkpt>
      <trkpt lat="48.81583" lon="4.59232">
        <ele>116.94</ele>
        <time>2021-08-10T05:45:37Z</time>
      </trkpt>
      <trkpt lat="48.81581" lon="4.59235">
        <ele>116.94</ele>
        <time>2021-08-10T05:45:38Z</time>
      </trkpt>
      <trkpt lat="48.81578" lon="4.59239">
        <ele>116.94</ele>
        <time>2021-08-10T05:45:39Z</time>
      </trkpt>
      <trkpt lat="48.81576" lon="4.59245">
        <ele>116.94</ele>
        <time>2021-08-10T05:45:40Z</time>
      </trkpt>
      <trkpt lat="48.81574" lon="4.59251">
        <ele>116.46</ele>
        <time>2021-08-10T05:45:41Z</time>
      </trkpt>
      <trkpt lat="48.81549" lon="4.59319">
        <ele>116.46</ele>
        <time>2021-08-10T05:45:52Z</time>
      </trkpt>
      <trkpt lat="48.81531" lon="4.5937">
        <ele>116.46</ele>
        <time>2021-08-10T05:46:00Z</time>
      </trkpt>
      <trkpt lat="48.81504" lon="4.59445">
        <ele>116.46</ele>
        <time>2021-08-10T05:46:12Z</time>
      </trkpt>
      <trkpt lat="48.8148" lon="4.59513">
        <ele>116.46</ele>
        <time>2021-08-10T05:46:23Z</time>
      </trkpt>
      <trkpt lat="48.81461" lon="4.59568">
        <ele>116.46</ele>
        <time>2021-08-10T05:46:32Z</time>
      </trkpt>
      <trkpt lat="48.8144" lon="4.59627">
        <ele>116.46</ele>
        <time>2021-08-10T05:46:41Z</time>
      </trkpt>
      <trkpt lat="48.81406" lon="4.59724">
        <ele>115.5</ele>
        <time>2021-08-10T05:46:55Z</time>
      </trkpt>
      <trkpt lat="48.81376" lon="4.59807">
        <ele>114.53</ele>
        <time>2021-08-10T05:47:06Z</time>
      </trkpt>
      <trkpt lat="48.8135" lon="4.59891">
        <ele>112.13</ele>
        <time>2021-08-10T05:47:16Z</time>
      </trkpt>
      <trkpt lat="48.8133" lon="4.59965">
        <ele>111.65</ele>
        <time>2021-08-10T05:47:25Z</time>
      </trkpt>
      <trkpt lat="48.81319" lon="4.60037">
        <ele>113.09</ele>
        <time>2021-08-10T05:47:35Z</time>
      </trkpt>
      <trkpt lat="48.81306" lon="4.60123">
        <ele>113.57</ele>
        <time>2021-08-10T05:47:47Z</time>
      </trkpt>
      <trkpt lat="48.81292" lon="4.60195">
        <ele>113.57</ele>
        <time>2021-08-10T05:47:57Z</time>
      </trkpt>
      <trkpt lat="48.81272" lon="4.60266">
        <ele>113.57</ele>
        <time>2021-08-10T05:48:07Z</time>
      </trkpt>
      <trkpt lat="48.81246" lon="4.60327">
        <ele>111.65</ele>
        <time>2021-08-10T05:48:16Z</time>
      </trkpt>
      <trkpt lat="48.8121" lon="4.60407">
        <ele>110.69</ele>
        <time>2021-08-10T05:48:28Z</time>
      </trkpt>
      <trkpt lat="48.81181" lon="4.60469">
        <ele>110.69</ele>
        <time>2021-08-10T05:48:38Z</time>
      </trkpt>
      <trkpt lat="48.81157" lon="4.60517">
        <ele>110.69</ele>
        <time>2021-08-10T05:48:46Z</time>
      </trkpt>
      <trkpt lat="48.81141" lon="4.60547">
        <ele>110.69</ele>
        <time>2021-08-10T05:48:51Z</time>
      </trkpt>
      <trkpt lat="48.81106" lon="4.60622">
        <ele>110.21</ele>
        <time>2021-08-10T05:49:02Z</time>
      </trkpt>
      <trkpt lat="48.8108" lon="4.60682">
        <ele>110.21</ele>
        <time>2021-08-10T05:49:11Z</time>
      </trkpt>
      <trkpt lat="48.81065" lon="4.60741">
        <ele>110.21</ele>
        <time>2021-08-10T05:49:19Z</time>
      </trkpt>
      <trkpt lat="48.8106" lon="4.60752">
        <ele>110.21</ele>
        <time>2021-08-10T05:49:21Z</time>
      </trkpt>
      <trkpt lat="48.81056" lon="4.60756">
        <ele>110.21</ele>
        <time>2021-08-10T05:49:22Z</time>
      </trkpt>
      <trkpt lat="48.81048" lon="4.60753">
        <ele>110.21</ele>
        <time>2021-08-10T05:49:23Z</time>
      </trkpt>
      <trkpt lat="48.8103" lon="4.6075">
        <ele>110.21</ele>
        <time>2021-08-10T05:49:26Z</time>
      </trkpt>
      <trkpt lat="48.81024" lon="4.60752">
        <ele>110.21</ele>
        <time>2021-08-10T05:49:27Z</time>
      </trkpt>
      <trkpt lat="48.81004" lon="4.60766">
        <ele>109.73</ele>
        <time>2021-08-10T05:49:31Z</time>
      </trkpt>
      <trkpt lat="48.80967" lon="4.608">
        <ele>109.73</ele>
        <time>2021-08-10T05:49:39Z</time>
      </trkpt>
      <trkpt lat="48.80938" lon="4.60835">
        <ele>109.73</ele>
        <time>2021-08-10T05:49:46Z</time>
      </trkpt>
      <trkpt lat="48.80934" lon="4.60838">
        <ele>109.73</ele>
        <time>2021-08-10T05:49:47Z</time>
      </trkpt>
      <trkpt lat="48.8093" lon="4.60843">
        <ele>109.73</ele>
        <time>2021-08-10T05:49:48Z</time>
      </trkpt>
      <trkpt lat="48.80927" lon="4.60847">
        <ele>109.73</ele>
        <time>2021-08-10T05:49:49Z</time>
      </trkpt>
      <trkpt lat="48.80922" lon="4.60853">
        <ele>109.73</ele>
        <time>2021-08-10T05:49:50Z</time>
      </trkpt>
      <trkpt lat="48.80906" lon="4.60871">
        <ele>109.73</ele>
        <time>2021-08-10T05:49:55Z</time>
      </trkpt>
      <trkpt lat="48.80901" lon="4.6087">
        <ele>109.73</ele>
        <time>2021-08-10T05:49:56Z</time>
      </trkpt>
      <trkpt lat="48.80898" lon="4.60868">
        <ele>109.73</ele>
        <time>2021-08-10T05:49:57Z</time>
      </trkpt>
      <trkpt lat="48.80893" lon="4.60866">
        <ele>109.73</ele>
        <time>2021-08-10T05:49:58Z</time>
      </trkpt>
      <trkpt lat="48.80889" lon="4.60862">
        <ele>109.73</ele>
        <time>2021-08-10T05:49:59Z</time>
      </trkpt>
      <trkpt lat="48.8087" lon="4.60851">
        <ele>109.73</ele>
        <time>2021-08-10T05:50:03Z</time>
      </trkpt>
      <trkpt lat="48.80843" lon="4.60834">
        <ele>109.73</ele>
        <time>2021-08-10T05:50:09Z</time>
      </trkpt>
      <trkpt lat="48.80831" lon="4.60826">
        <ele>109.73</ele>
        <time>2021-08-10T05:50:12Z</time>
      </trkpt>
      <trkpt lat="48.80827" lon="4.60823">
        <ele>109.73</ele>
        <time>2021-08-10T05:50:13Z</time>
      </trkpt>
      <trkpt lat="48.80823" lon="4.6082">
        <ele>109.73</ele>
        <time>2021-08-10T05:50:14Z</time>
      </trkpt>
      <trkpt lat="48.80819" lon="4.60816">
        <ele>109.73</ele>
        <time>2021-08-10T05:50:15Z</time>
      </trkpt>
      <trkpt lat="48.80815" lon="4.60812">
        <ele>109.73</ele>
        <time>2021-08-10T05:50:16Z</time>
      </trkpt>
      <trkpt lat="48.80811" lon="4.60807">
        <ele>109.73</ele>
        <time>2021-08-10T05:50:17Z</time>
      </trkpt>
      <trkpt lat="48.80807" lon="4.60801">
        <ele>109.73</ele>
        <time>2021-08-10T05:50:18Z</time>
      </trkpt>
      <trkpt lat="48.80804" lon="4.60795">
        <ele>109.73</ele>
        <time>2021-08-10T05:50:19Z</time>
      </trkpt>
      <trkpt lat="48.80801" lon="4.60788">
        <ele>109.73</ele>
        <time>2021-08-10T05:50:20Z</time>
      </trkpt>
      <trkpt lat="48.80799" lon="4.60781">
        <ele>109.73</ele>
        <time>2021-08-10T05:50:21Z</time>
      </trkpt>
      <trkpt lat="48.80797" lon="4.60773">
        <ele>109.73</ele>
        <time>2021-08-10T05:50:22Z</time>
      </trkpt>
      <trkpt lat="48.80788" lon="4.60746">
        <ele>109.73</ele>
        <time>2021-08-10T05:50:26Z</time>
      </trkpt>
      <trkpt lat="48.80786" lon="4.60739">
        <ele>109.73</ele>
        <time>2021-08-10T05:50:27Z</time>
      </trkpt>
      <trkpt lat="48.80782" lon="4.60734">
        <ele>109.73</ele>
        <time>2021-08-10T05:50:28Z</time>
      </trkpt>
      <trkpt lat="48.80779" lon="4.60729">
        <ele>109.73</ele>
        <time>2021-08-10T05:50:29Z</time>
      </trkpt>
      <trkpt lat="48.80775" lon="4.60724">
        <ele>109.73</ele>
        <time>2021-08-10T05:50:30Z</time>
      </trkpt>
      <trkpt lat="48.8076" lon="4.60709">
        <ele>111.17</ele>
        <time>2021-08-10T05:50:34Z</time>
      </trkpt>
      <trkpt lat="48.80743" lon="4.607">
        <ele>112.13</ele>
        <time>2021-08-10T05:50:38Z</time>
      </trkpt>
      <trkpt lat="48.80739" lon="4.60699">
        <ele>112.13</ele>
        <time>2021-08-10T05:50:39Z</time>
      </trkpt>
      <trkpt lat="48.80708" lon="4.60698">
        <ele>114.05</ele>
        <time>2021-08-10T05:50:48Z</time>
      </trkpt>
      <trkpt lat="48.80684" lon="4.60715">
        <ele>115.98</ele>
        <time>2021-08-10T05:50:56Z</time>
      </trkpt>
      <trkpt lat="48.80651" lon="4.60738">
        <ele>116.94</ele>
        <time>2021-08-10T05:51:07Z</time>
      </trkpt>
      <trkpt lat="48.80621" lon="4.60752">
        <ele>118.86</ele>
        <time>2021-08-10T05:51:17Z</time>
      </trkpt>
      <trkpt lat="48.80596" lon="4.60751">
        <ele>120.3</ele>
        <time>2021-08-10T05:51:25Z</time>
      </trkpt>
      <trkpt lat="48.80561" lon="4.6074">
        <ele>121.74</ele>
        <time>2021-08-10T05:51:36Z</time>
      </trkpt>
      <trkpt lat="48.80525" lon="4.60726">
        <ele>122.71</ele>
        <time>2021-08-10T05:51:47Z</time>
      </trkpt>
      <trkpt lat="48.805" lon="4.60716">
        <ele>122.71</ele>
        <time>2021-08-10T05:51:53Z</time>
      </trkpt>
      <trkpt lat="48.80495" lon="4.60714">
        <ele>122.71</ele>
        <time>2021-08-10T05:51:54Z</time>
      </trkpt>
      <trkpt lat="48.8045" lon="4.60697">
        <ele>122.71</ele>
        <time>2021-08-10T05:52:03Z</time>
      </trkpt>
      <trkpt lat="48.80428" lon="4.60693">
        <ele>122.71</ele>
        <time>2021-08-10T05:52:07Z</time>
      </trkpt>
      <trkpt lat="48.80418" lon="4.60694">
        <ele>121.26</ele>
        <time>2021-08-10T05:52:09Z</time>
      </trkpt>
      <trkpt lat="48.80377" lon="4.60698">
        <ele>119.82</ele>
        <time>2021-08-10T05:52:16Z</time>
      </trkpt>
      <trkpt lat="48.80326" lon="4.60716">
        <ele>118.38</ele>
        <time>2021-08-10T05:52:24Z</time>
      </trkpt>
      <trkpt lat="48.80271" lon="4.6075">
        <ele>117.42</ele>
        <time>2021-08-10T05:52:33Z</time>
      </trkpt>
      <trkpt lat="48.80259" lon="4.60758">
        <ele>117.42</ele>
        <time>2021-08-10T05:52:35Z</time>
      </trkpt>
      <trkpt lat="48.80214" lon="4.60805">
        <ele>116.94</ele>
        <time>2021-08-10T05:52:44Z</time>
      </trkpt>
      <trkpt lat="48.80183" lon="4.60856">
        <ele>115.98</ele>
        <time>2021-08-10T05:52:52Z</time>
      </trkpt>
      <trkpt lat="48.8016" lon="4.60912">
        <ele>115.98</ele>
        <time>2021-08-10T05:53:00Z</time>
      </trkpt>
      <trkpt lat="48.80145" lon="4.60946">
        <ele>117.42</ele>
        <time>2021-08-10T05:53:05Z</time>
      </trkpt>
      <trkpt lat="48.80115" lon="4.60989">
        <ele>117.42</ele>
        <time>2021-08-10T05:53:12Z</time>
      </trkpt>
      <trkpt lat="48.80079" lon="4.61019">
        <ele>117.42</ele>
        <time>2021-08-10T05:53:20Z</time>
      </trkpt>
      <trkpt lat="48.80032" lon="4.61058">
        <ele>118.38</ele>
        <time>2021-08-10T05:53:31Z</time>
      </trkpt>
      <trkpt lat="48.80001" lon="4.61086">
        <ele>119.34</ele>
        <time>2021-08-10T05:53:40Z</time>
      </trkpt>
      <trkpt lat="48.79957" lon="4.61124">
        <ele>120.78</ele>
        <time>2021-08-10T05:53:53Z</time>
      </trkpt>
      <trkpt lat="48.79923" lon="4.61152">
        <ele>121.74</ele>
        <time>2021-08-10T05:54:03Z</time>
      </trkpt>
      <trkpt lat="48.79889" lon="4.61179">
        <ele>120.78</ele>
        <time>2021-08-10T05:54:10Z</time>
      </trkpt>
      <trkpt lat="48.79841" lon="4.61216">
        <ele>119.34</ele>
        <time>2021-08-10T05:54:19Z</time>
      </trkpt>
      <trkpt lat="48.798" lon="4.61249">
        <ele>118.86</ele>
        <time>2021-08-10T05:54:27Z</time>
      </trkpt>
      <trkpt lat="48.79782" lon="4.61264">
        <ele>119.34</ele>
        <time>2021-08-10T05:54:31Z</time>
      </trkpt>
      <trkpt lat="48.79776" lon="4.61268">
        <ele>118.86</ele>
        <time>2021-08-10T05:54:32Z</time>
      </trkpt>
      <trkpt lat="48.79758" lon="4.61282">
        <ele>118.86</ele>
        <time>2021-08-10T05:54:36Z</time>
      </trkpt>
      <trkpt lat="48.79753" lon="4.61285">
        <ele>118.86</ele>
        <time>2021-08-10T05:54:37Z</time>
      </trkpt>
      <trkpt lat="48.79738" lon="4.61295">
        <ele>119.34</ele>
        <time>2021-08-10T05:54:40Z</time>
      </trkpt>
      <trkpt lat="48.79734" lon="4.61299">
        <ele>119.34</ele>
        <time>2021-08-10T05:54:41Z</time>
      </trkpt>
      <trkpt lat="48.79731" lon="4.61304">
        <ele>119.34</ele>
        <time>2021-08-10T05:54:42Z</time>
      </trkpt>
      <trkpt lat="48.79729" lon="4.61312">
        <ele>119.34</ele>
        <time>2021-08-10T05:54:43Z</time>
      </trkpt>
      <trkpt lat="48.79729" lon="4.6132">
        <ele>119.34</ele>
        <time>2021-08-10T05:54:44Z</time>
      </trkpt>
      <trkpt lat="48.79731" lon="4.61327">
        <ele>119.34</ele>
        <time>2021-08-10T05:54:45Z</time>
      </trkpt>
      <trkpt lat="48.79734" lon="4.61333">
        <ele>119.34</ele>
        <time>2021-08-10T05:54:46Z</time>
      </trkpt>
      <trkpt lat="48.79738" lon="4.61339">
        <ele>118.86</ele>
        <time>2021-08-10T05:54:47Z</time>
      </trkpt>
      <trkpt lat="48.79741" lon="4.61345">
        <ele>118.86</ele>
        <time>2021-08-10T05:54:48Z</time>
      </trkpt>
      <trkpt lat="48.79743" lon="4.61353">
        <ele>118.86</ele>
        <time>2021-08-10T05:54:49Z</time>
      </trkpt>
      <trkpt lat="48.79743" lon="4.6136">
        <ele>118.86</ele>
        <time>2021-08-10T05:54:50Z</time>
      </trkpt>
      <trkpt lat="48.79741" lon="4.61368">
        <ele>118.86</ele>
        <time>2021-08-10T05:54:51Z</time>
      </trkpt>
      <trkpt lat="48.79739" lon="4.61375">
        <ele>118.86</ele>
        <time>2021-08-10T05:54:52Z</time>
      </trkpt>
      <trkpt lat="48.79737" lon="4.61381">
        <ele>118.86</ele>
        <time>2021-08-10T05:54:53Z</time>
      </trkpt>
      <trkpt lat="48.79734" lon="4.61388">
        <ele>118.86</ele>
        <time>2021-08-10T05:54:54Z</time>
      </trkpt>
      <trkpt lat="48.79731" lon="4.61393">
        <ele>118.86</ele>
        <time>2021-08-10T05:54:55Z</time>
      </trkpt>
      <trkpt lat="48.79727" lon="4.61397">
        <ele>118.86</ele>
        <time>2021-08-10T05:54:56Z</time>
      </trkpt>
      <trkpt lat="48.79682" lon="4.61455">
        <ele>118.86</ele>
        <time>2021-08-10T05:55:09Z</time>
      </trkpt>
      <trkpt lat="48.79646" lon="4.61498">
        <ele>119.82</ele>
        <time>2021-08-10T05:55:19Z</time>
      </trkpt>
      <trkpt lat="48.79624" lon="4.61524">
        <ele>119.82</ele>
        <time>2021-08-10T05:55:25Z</time>
      </trkpt>
      <trkpt lat="48.79616" lon="4.61532">
        <ele>119.82</ele>
        <time>2021-08-10T05:55:27Z</time>
      </trkpt>
      <trkpt lat="48.79585" lon="4.61574">
        <ele>120.3</ele>
        <time>2021-08-10T05:55:36Z</time>
      </trkpt>
      <trkpt lat="48.79555" lon="4.6162">
        <ele>121.26</ele>
        <time>2021-08-10T05:55:46Z</time>
      </trkpt>
      <trkpt lat="48.79535" lon="4.61656">
        <ele>122.71</ele>
        <time>2021-08-10T05:55:55Z</time>
      </trkpt>
      <trkpt lat="48.79514" lon="4.617">
        <ele>125.59</ele>
        <time>2021-08-10T05:56:07Z</time>
      </trkpt>
      <trkpt lat="48.79498" lon="4.61736">
        <ele>127.03</ele>
        <time>2021-08-10T05:56:18Z</time>
      </trkpt>
      <trkpt lat="48.79478" lon="4.61773">
        <ele>127.99</ele>
        <time>2021-08-10T05:56:28Z</time>
      </trkpt>
      <trkpt lat="48.79469" lon="4.61792">
        <ele>127.03</ele>
        <time>2021-08-10T05:56:31Z</time>
      </trkpt>
      <trkpt lat="48.79466" lon="4.61799">
        <ele>126.07</ele>
        <time>2021-08-10T05:56:32Z</time>
      </trkpt>
      <trkpt lat="48.79461" lon="4.61817">
        <ele>125.59</ele>
        <time>2021-08-10T05:56:34Z</time>
      </trkpt>
      <trkpt lat="48.79455" lon="4.61891">
        <ele>123.67</ele>
        <time>2021-08-10T05:56:42Z</time>
      </trkpt>
      <trkpt lat="48.79454" lon="4.619">
        <ele>123.67</ele>
        <time>2021-08-10T05:56:43Z</time>
      </trkpt>
      <trkpt lat="48.79451" lon="4.61907">
        <ele>123.19</ele>
        <time>2021-08-10T05:56:44Z</time>
      </trkpt>
      <trkpt lat="48.79448" lon="4.61913">
        <ele>123.19</ele>
        <time>2021-08-10T05:56:45Z</time>
      </trkpt>
      <trkpt lat="48.79444" lon="4.61915">
        <ele>123.19</ele>
        <time>2021-08-10T05:56:46Z</time>
      </trkpt>
      <trkpt lat="48.7944" lon="4.61915">
        <ele>123.19</ele>
        <time>2021-08-10T05:56:47Z</time>
      </trkpt>
      <trkpt lat="48.79436" lon="4.61914">
        <ele>123.19</ele>
        <time>2021-08-10T05:56:48Z</time>
      </trkpt>
      <trkpt lat="48.79433" lon="4.61912">
        <ele>123.19</ele>
        <time>2021-08-10T05:56:49Z</time>
      </trkpt>
      <trkpt lat="48.79431" lon="4.61909">
        <ele>123.19</ele>
        <time>2021-08-10T05:56:50Z</time>
      </trkpt>
      <trkpt lat="48.79429" lon="4.61906">
        <ele>124.63</ele>
        <time>2021-08-10T05:56:51Z</time>
      </trkpt>
      <trkpt lat="48.79427" lon="4.61903">
        <ele>124.63</ele>
        <time>2021-08-10T05:56:52Z</time>
      </trkpt>
      <trkpt lat="48.79426" lon="4.619">
        <ele>124.63</ele>
        <time>2021-08-10T05:56:53Z</time>
      </trkpt>
      <trkpt lat="48.79411" lon="4.61888">
        <ele>126.07</ele>
        <time>2021-08-10T05:57:00Z</time>
      </trkpt>
      <trkpt lat="48.79392" lon="4.61897">
        <ele>127.51</ele>
        <time>2021-08-10T05:57:08Z</time>
      </trkpt>
      <trkpt lat="48.79367" lon="4.61925">
        <ele>128.47</ele>
        <time>2021-08-10T05:57:18Z</time>
      </trkpt>
      <trkpt lat="48.79339" lon="4.61958">
        <ele>126.55</ele>
        <time>2021-08-10T05:57:25Z</time>
      </trkpt>
      <trkpt lat="48.79333" lon="4.61964">
        <ele>126.55</ele>
        <time>2021-08-10T05:57:26Z</time>
      </trkpt>
      <trkpt lat="48.79285" lon="4.62016">
        <ele>123.19</ele>
        <time>2021-08-10T05:57:35Z</time>
      </trkpt>
      <trkpt lat="48.79231" lon="4.62073">
        <ele>121.74</ele>
        <time>2021-08-10T05:57:45Z</time>
      </trkpt>
      <trkpt lat="48.79226" lon="4.62077">
        <ele>121.74</ele>
        <time>2021-08-10T05:57:46Z</time>
      </trkpt>
      <trkpt lat="48.7922" lon="4.62079">
        <ele>121.74</ele>
        <time>2021-08-10T05:57:47Z</time>
      </trkpt>
      <trkpt lat="48.79214" lon="4.62079">
        <ele>121.74</ele>
        <time>2021-08-10T05:57:48Z</time>
      </trkpt>
      <trkpt lat="48.79208" lon="4.62076">
        <ele>121.74</ele>
        <time>2021-08-10T05:57:49Z</time>
      </trkpt>
      <trkpt lat="48.79204" lon="4.62072">
        <ele>121.74</ele>
        <time>2021-08-10T05:57:50Z</time>
      </trkpt>
      <trkpt lat="48.792" lon="4.62067">
        <ele>121.74</ele>
        <time>2021-08-10T05:57:51Z</time>
      </trkpt>
      <trkpt lat="48.79196" lon="4.62061">
        <ele>121.74</ele>
        <time>2021-08-10T05:57:52Z</time>
      </trkpt>
      <trkpt lat="48.79192" lon="4.62055">
        <ele>121.74</ele>
        <time>2021-08-10T05:57:53Z</time>
      </trkpt>
      <trkpt lat="48.79165" lon="4.62017">
        <ele>121.74</ele>
        <time>2021-08-10T05:58:00Z</time>
      </trkpt>
      <trkpt lat="48.79116" lon="4.61949">
        <ele>123.19</ele>
        <time>2021-08-10T05:58:12Z</time>
      </trkpt>
      <trkpt lat="48.79075" lon="4.6188">
        <ele>123.67</ele>
        <time>2021-08-10T05:58:23Z</time>
      </trkpt>
      <trkpt lat="48.79039" lon="4.61812">
        <ele>124.63</ele>
        <time>2021-08-10T05:58:34Z</time>
      </trkpt>
      <trkpt lat="48.79006" lon="4.61769">
        <ele>125.59</ele>
        <time>2021-08-10T05:58:43Z</time>
      </trkpt>
      <trkpt lat="48.78965" lon="4.61734">
        <ele>126.07</ele>
        <time>2021-08-10T05:58:53Z</time>
      </trkpt>
      <trkpt lat="48.78926" lon="4.61711">
        <ele>126.55</ele>
        <time>2021-08-10T05:59:02Z</time>
      </trkpt>
      <trkpt lat="48.78905" lon="4.61696">
        <ele>127.03</ele>
        <time>2021-08-10T05:59:07Z</time>
      </trkpt>
      <trkpt lat="48.78901" lon="4.61694">
        <ele>127.03</ele>
        <time>2021-08-10T05:59:08Z</time>
      </trkpt>
      <trkpt lat="48.78896" lon="4.61693">
        <ele>127.03</ele>
        <time>2021-08-10T05:59:09Z</time>
      </trkpt>
      <trkpt lat="48.78862" lon="4.61688">
        <ele>128.47</ele>
        <time>2021-08-10T05:59:17Z</time>
      </trkpt>
      <trkpt lat="48.78821" lon="4.61685">
        <ele>129.92</ele>
        <time>2021-08-10T05:59:28Z</time>
      </trkpt>
      <trkpt lat="48.78785" lon="4.61686">
        <ele>131.36</ele>
        <time>2021-08-10T05:59:38Z</time>
      </trkpt>
      <trkpt lat="48.78749" lon="4.6169">
        <ele>132.32</ele>
        <time>2021-08-10T05:59:47Z</time>
      </trkpt>
      <trkpt lat="48.78731" lon="4.61693">
        <ele>132.32</ele>
        <time>2021-08-10T05:59:51Z</time>
      </trkpt>
      <trkpt lat="48.78686" lon="4.61705">
        <ele>132.32</ele>
        <time>2021-08-10T06:00:00Z</time>
      </trkpt>
      <trkpt lat="48.78644" lon="4.61717">
        <ele>132.32</ele>
        <time>2021-08-10T06:00:08Z</time>
      </trkpt>
      <trkpt lat="48.78594" lon="4.6173">
        <ele>132.32</ele>
        <time>2021-08-10T06:00:18Z</time>
      </trkpt>
      <trkpt lat="48.7854" lon="4.61742">
        <ele>130.4</ele>
        <time>2021-08-10T06:00:28Z</time>
      </trkpt>
      <trkpt lat="48.7848" lon="4.61748">
        <ele>128.47</ele>
        <time>2021-08-10T06:00:38Z</time>
      </trkpt>
      <trkpt lat="48.78416" lon="4.61749">
        <ele>127.51</ele>
        <time>2021-08-10T06:00:49Z</time>
      </trkpt>
      <trkpt lat="48.78352" lon="4.61755">
        <ele>127.51</ele>
        <time>2021-08-10T06:01:00Z</time>
      </trkpt>
      <trkpt lat="48.78303" lon="4.61755">
        <ele>126.07</ele>
        <time>2021-08-10T06:01:08Z</time>
      </trkpt>
      <trkpt lat="48.78297" lon="4.61754">
        <ele>126.07</ele>
        <time>2021-08-10T06:01:09Z</time>
      </trkpt>
      <trkpt lat="48.78247" lon="4.61742">
        <ele>125.59</ele>
        <time>2021-08-10T06:01:18Z</time>
      </trkpt>
      <trkpt lat="48.78214" lon="4.61744">
        <ele>125.59</ele>
        <time>2021-08-10T06:01:24Z</time>
      </trkpt>
      <trkpt lat="48.78163" lon="4.61761">
        <ele>126.07</ele>
        <time>2021-08-10T06:01:34Z</time>
      </trkpt>
      <trkpt lat="48.78115" lon="4.6178">
        <ele>127.51</ele>
        <time>2021-08-10T06:01:44Z</time>
      </trkpt>
      <trkpt lat="48.78079" lon="4.61801">
        <ele>128.95</ele>
        <time>2021-08-10T06:01:53Z</time>
      </trkpt>
      <trkpt lat="48.78041" lon="4.61823">
        <ele>130.88</ele>
        <time>2021-08-10T06:02:05Z</time>
      </trkpt>
      <trkpt lat="48.78014" lon="4.6184">
        <ele>132.8</ele>
        <time>2021-08-10T06:02:14Z</time>
      </trkpt>
      <trkpt lat="48.77992" lon="4.6186">
        <ele>134.24</ele>
        <time>2021-08-10T06:02:22Z</time>
      </trkpt>
      <trkpt lat="48.77967" lon="4.61881">
        <ele>134.72</ele>
        <time>2021-08-10T06:02:30Z</time>
      </trkpt>
      <trkpt lat="48.77957" lon="4.6189">
        <ele>133.28</ele>
        <time>2021-08-10T06:02:32Z</time>
      </trkpt>
      <trkpt lat="48.77946" lon="4.61899">
        <ele>131.84</ele>
        <time>2021-08-10T06:02:34Z</time>
      </trkpt>
      <trkpt lat="48.77899" lon="4.61937">
        <ele>129.43</ele>
        <time>2021-08-10T06:02:42Z</time>
      </trkpt>
      <trkpt lat="48.77839" lon="4.61986">
        <ele>127.99</ele>
        <time>2021-08-10T06:02:52Z</time>
      </trkpt>
      <trkpt lat="48.77792" lon="4.62024">
        <ele>127.51</ele>
        <time>2021-08-10T06:03:01Z</time>
      </trkpt>
      <trkpt lat="48.7774" lon="4.6207">
        <ele>127.03</ele>
        <time>2021-08-10T06:03:12Z</time>
      </trkpt>
      <trkpt lat="48.77685" lon="4.62116">
        <ele>127.03</ele>
        <time>2021-08-10T06:03:24Z</time>
      </trkpt>
      <trkpt lat="48.77665" lon="4.62134">
        <ele>128.47</ele>
        <time>2021-08-10T06:03:29Z</time>
      </trkpt>
      <trkpt lat="48.77638" lon="4.62157">
        <ele>129.43</ele>
        <time>2021-08-10T06:03:38Z</time>
      </trkpt>
      <trkpt lat="48.77606" lon="4.62182">
        <ele>129.43</ele>
        <time>2021-08-10T06:03:46Z</time>
      </trkpt>
      <trkpt lat="48.77572" lon="4.62207">
        <ele>128.47</ele>
        <time>2021-08-10T06:03:53Z</time>
      </trkpt>
      <trkpt lat="48.77558" lon="4.62218">
        <ele>128.47</ele>
        <time>2021-08-10T06:03:56Z</time>
      </trkpt>
      <trkpt lat="48.77514" lon="4.62252">
        <ele>128.47</ele>
        <time>2021-08-10T06:04:06Z</time>
      </trkpt>
      <trkpt lat="48.77502" lon="4.62262">
        <ele>127.99</ele>
        <time>2021-08-10T06:04:09Z</time>
      </trkpt>
      <trkpt lat="48.77498" lon="4.62266">
        <ele>128.47</ele>
        <time>2021-08-10T06:04:10Z</time>
      </trkpt>
      <trkpt lat="48.77454" lon="4.62304">
        <ele>128.47</ele>
        <time>2021-08-10T06:04:20Z</time>
      </trkpt>
      <trkpt lat="48.77398" lon="4.62349">
        <ele>128.47</ele>
        <time>2021-08-10T06:04:33Z</time>
      </trkpt>
      <trkpt lat="48.77369" lon="4.62367">
        <ele>129.43</ele>
        <time>2021-08-10T06:04:40Z</time>
      </trkpt>
      <trkpt lat="48.77329" lon="4.62387">
        <ele>129.92</ele>
        <time>2021-08-10T06:04:50Z</time>
      </trkpt>
      <trkpt lat="48.77291" lon="4.62402">
        <ele>130.88</ele>
        <time>2021-08-10T06:05:00Z</time>
      </trkpt>
      <trkpt lat="48.77264" lon="4.6241">
        <ele>131.84</ele>
        <time>2021-08-10T06:05:08Z</time>
      </trkpt>
      <trkpt lat="48.77241" lon="4.62418">
        <ele>132.32</ele>
        <time>2021-08-10T06:05:16Z</time>
      </trkpt>
      <trkpt lat="48.77209" lon="4.62428">
        <ele>132.8</ele>
        <time>2021-08-10T06:05:25Z</time>
      </trkpt>
      <trkpt lat="48.77173" lon="4.62438">
        <ele>132.8</ele>
        <time>2021-08-10T06:05:34Z</time>
      </trkpt>
      <trkpt lat="48.77139" lon="4.62447">
        <ele>133.28</ele>
        <time>2021-08-10T06:05:43Z</time>
      </trkpt>
      <trkpt lat="48.7711" lon="4.62455">
        <ele>133.76</ele>
        <time>2021-08-10T06:05:51Z</time>
      </trkpt>
      <trkpt lat="48.77085" lon="4.62461">
        <ele>133.76</ele>
        <time>2021-08-10T06:05:59Z</time>
      </trkpt>
      <trkpt lat="48.77049" lon="4.62472">
        <ele>134.24</ele>
        <time>2021-08-10T06:06:09Z</time>
      </trkpt>
      <trkpt lat="48.77016" lon="4.62481">
        <ele>135.68</ele>
        <time>2021-08-10T06:06:19Z</time>
      </trkpt>
      <trkpt lat="48.7699" lon="4.62489">
        <ele>137.13</ele>
        <time>2021-08-10T06:06:29Z</time>
      </trkpt>
      <trkpt lat="48.76967" lon="4.62495">
        <ele>138.57</ele>
        <time>2021-08-10T06:06:38Z</time>
      </trkpt>
      <trkpt lat="48.76944" lon="4.62501">
        <ele>140.49</ele>
        <time>2021-08-10T06:06:47Z</time>
      </trkpt>
      <trkpt lat="48.76921" lon="4.62508">
        <ele>141.93</ele>
        <time>2021-08-10T06:06:56Z</time>
      </trkpt>
      <trkpt lat="48.76885" lon="4.62517">
        <ele>143.85</ele>
        <time>2021-08-10T06:07:08Z</time>
      </trkpt>
      <trkpt lat="48.76851" lon="4.62527">
        <ele>144.82</ele>
        <time>2021-08-10T06:07:19Z</time>
      </trkpt>
      <trkpt lat="48.76809" lon="4.62538">
        <ele>146.26</ele>
        <time>2021-08-10T06:07:32Z</time>
      </trkpt>
      <trkpt lat="48.76779" lon="4.62545">
        <ele>146.74</ele>
        <time>2021-08-10T06:07:41Z</time>
      </trkpt>
      <trkpt lat="48.76749" lon="4.62551">
        <ele>146.74</ele>
        <time>2021-08-10T06:07:48Z</time>
      </trkpt>
      <trkpt lat="48.76729" lon="4.62555">
        <ele>145.78</ele>
        <time>2021-08-10T06:07:52Z</time>
      </trkpt>
      <trkpt lat="48.76687" lon="4.62563">
        <ele>144.82</ele>
        <time>2021-08-10T06:08:01Z</time>
      </trkpt>
      <trkpt lat="48.76643" lon="4.6257">
        <ele>144.82</ele>
        <time>2021-08-10T06:08:10Z</time>
      </trkpt>
      <trkpt lat="48.76639" lon="4.62571">
        <ele>144.82</ele>
        <time>2021-08-10T06:08:11Z</time>
      </trkpt>
      <trkpt lat="48.76624" lon="4.62573">
        <ele>144.82</ele>
        <time>2021-08-10T06:08:14Z</time>
      </trkpt>
      <trkpt lat="48.7662" lon="4.62572">
        <ele>144.82</ele>
        <time>2021-08-10T06:08:15Z</time>
      </trkpt>
      <trkpt lat="48.76615" lon="4.62572">
        <ele>144.82</ele>
        <time>2021-08-10T06:08:16Z</time>
      </trkpt>
      <trkpt lat="48.76611" lon="4.62573">
        <ele>144.82</ele>
        <time>2021-08-10T06:08:17Z</time>
      </trkpt>
      <trkpt lat="48.76606" lon="4.62573">
        <ele>144.82</ele>
        <time>2021-08-10T06:08:18Z</time>
      </trkpt>
      <trkpt lat="48.76566" lon="4.62581">
        <ele>144.82</ele>
        <time>2021-08-10T06:08:27Z</time>
      </trkpt>
      <trkpt lat="48.76561" lon="4.62582">
        <ele>144.82</ele>
        <time>2021-08-10T06:08:28Z</time>
      </trkpt>
      <trkpt lat="48.76556" lon="4.62582">
        <ele>144.82</ele>
        <time>2021-08-10T06:08:29Z</time>
      </trkpt>
      <trkpt lat="48.76552" lon="4.62583">
        <ele>144.82</ele>
        <time>2021-08-10T06:08:30Z</time>
      </trkpt>
      <trkpt lat="48.76547" lon="4.62584">
        <ele>144.82</ele>
        <time>2021-08-10T06:08:31Z</time>
      </trkpt>
      <trkpt lat="48.76495" lon="4.62593">
        <ele>144.82</ele>
        <time>2021-08-10T06:08:42Z</time>
      </trkpt>
      <trkpt lat="48.76475" lon="4.62595">
        <ele>144.82</ele>
        <time>2021-08-10T06:08:46Z</time>
      </trkpt>
      <trkpt lat="48.76451" lon="4.626">
        <ele>144.82</ele>
        <time>2021-08-10T06:08:51Z</time>
      </trkpt>
      <trkpt lat="48.76447" lon="4.62601">
        <ele>144.82</ele>
        <time>2021-08-10T06:08:52Z</time>
      </trkpt>
      <trkpt lat="48.76414" lon="4.62605">
        <ele>144.82</ele>
        <time>2021-08-10T06:08:59Z</time>
      </trkpt>
      <trkpt lat="48.76374" lon="4.62612">
        <ele>144.82</ele>
        <time>2021-08-10T06:09:08Z</time>
      </trkpt>
      <trkpt lat="48.76337" lon="4.62618">
        <ele>144.82</ele>
        <time>2021-08-10T06:09:16Z</time>
      </trkpt>
      <trkpt lat="48.7631" lon="4.62623">
        <ele>145.78</ele>
        <time>2021-08-10T06:09:22Z</time>
      </trkpt>
      <trkpt lat="48.76275" lon="4.62629">
        <ele>146.74</ele>
        <time>2021-08-10T06:09:30Z</time>
      </trkpt>
      <trkpt lat="48.76229" lon="4.62637">
        <ele>147.22</ele>
        <time>2021-08-10T06:09:41Z</time>
      </trkpt>
      <trkpt lat="48.76192" lon="4.62643">
        <ele>147.7</ele>
        <time>2021-08-10T06:09:50Z</time>
      </trkpt>
      <trkpt lat="48.76162" lon="4.62647">
        <ele>148.18</ele>
        <time>2021-08-10T06:09:59Z</time>
      </trkpt>
      <trkpt lat="48.76131" lon="4.62653">
        <ele>150.1</ele>
        <time>2021-08-10T06:10:10Z</time>
      </trkpt>
      <trkpt lat="48.76096" lon="4.62657">
        <ele>151.54</ele>
        <time>2021-08-10T06:10:23Z</time>
      </trkpt>
      <trkpt lat="48.76071" lon="4.62661">
        <ele>152.51</ele>
        <time>2021-08-10T06:10:33Z</time>
      </trkpt>
      <trkpt lat="48.76044" lon="4.62667">
        <ele>154.43</ele>
        <time>2021-08-10T06:10:44Z</time>
      </trkpt>
      <trkpt lat="48.76024" lon="4.6268">
        <ele>155.39</ele>
        <time>2021-08-10T06:10:52Z</time>
      </trkpt>
      <trkpt lat="48.76001" lon="4.62704">
        <ele>156.83</ele>
        <time>2021-08-10T06:11:02Z</time>
      </trkpt>
      <trkpt lat="48.75983" lon="4.62727">
        <ele>157.79</ele>
        <time>2021-08-10T06:11:10Z</time>
      </trkpt>
      <trkpt lat="48.75962" lon="4.62759">
        <ele>157.79</ele>
        <time>2021-08-10T06:11:18Z</time>
      </trkpt>
      <trkpt lat="48.7594" lon="4.62781">
        <ele>158.75</ele>
        <time>2021-08-10T06:11:25Z</time>
      </trkpt>
      <trkpt lat="48.75907" lon="4.62803">
        <ele>160.2</ele>
        <time>2021-08-10T06:11:35Z</time>
      </trkpt>
      <trkpt lat="48.75896" lon="4.6281">
        <ele>160.2</ele>
        <time>2021-08-10T06:11:38Z</time>
      </trkpt>
      <trkpt lat="48.75875" lon="4.62821">
        <ele>160.68</ele>
        <time>2021-08-10T06:11:43Z</time>
      </trkpt>
      <trkpt lat="48.75835" lon="4.6284">
        <ele>161.16</ele>
        <time>2021-08-10T06:11:52Z</time>
      </trkpt>
      <trkpt lat="48.75821" lon="4.62847">
        <ele>161.16</ele>
        <time>2021-08-10T06:11:55Z</time>
      </trkpt>
      <trkpt lat="48.75774" lon="4.62882">
        <ele>161.16</ele>
        <time>2021-08-10T06:12:05Z</time>
      </trkpt>
      <trkpt lat="48.75771" lon="4.62887">
        <ele>161.16</ele>
        <time>2021-08-10T06:12:06Z</time>
      </trkpt>
      <trkpt lat="48.75768" lon="4.62892">
        <ele>161.16</ele>
        <time>2021-08-10T06:12:07Z</time>
      </trkpt>
      <trkpt lat="48.75765" lon="4.62896">
        <ele>161.16</ele>
        <time>2021-08-10T06:12:08Z</time>
      </trkpt>
      <trkpt lat="48.75761" lon="4.62899">
        <ele>161.16</ele>
        <time>2021-08-10T06:12:09Z</time>
      </trkpt>
      <trkpt lat="48.75757" lon="4.629">
        <ele>161.16</ele>
        <time>2021-08-10T06:12:10Z</time>
      </trkpt>
      <trkpt lat="48.75754" lon="4.62899">
        <ele>161.16</ele>
        <time>2021-08-10T06:12:11Z</time>
      </trkpt>
      <trkpt lat="48.75751" lon="4.62895">
        <ele>161.16</ele>
        <time>2021-08-10T06:12:12Z</time>
      </trkpt>
      <trkpt lat="48.7575" lon="4.62893">
        <ele>161.16</ele>
        <time>2021-08-10T06:12:13Z</time>
      </trkpt>
      <trkpt lat="48.75748" lon="4.62889">
        <ele>161.16</ele>
        <time>2021-08-10T06:12:14Z</time>
      </trkpt>
      <trkpt lat="48.75737" lon="4.62864">
        <ele>164.04</ele>
        <time>2021-08-10T06:12:23Z</time>
      </trkpt>
      <trkpt lat="48.7573" lon="4.62844">
        <ele>165.96</ele>
        <time>2021-08-10T06:12:30Z</time>
      </trkpt>
      <trkpt lat="48.75724" lon="4.62823">
        <ele>167.89</ele>
        <time>2021-08-10T06:12:37Z</time>
      </trkpt>
      <trkpt lat="48.7572" lon="4.62803">
        <ele>168.85</ele>
        <time>2021-08-10T06:12:44Z</time>
      </trkpt>
      <trkpt lat="48.75717" lon="4.62769">
        <ele>170.77</ele>
        <time>2021-08-10T06:12:55Z</time>
      </trkpt>
      <trkpt lat="48.75715" lon="4.62735">
        <ele>171.73</ele>
        <time>2021-08-10T06:13:06Z</time>
      </trkpt>
      <trkpt lat="48.75713" lon="4.62712">
        <ele>172.69</ele>
        <time>2021-08-10T06:13:14Z</time>
      </trkpt>
      <trkpt lat="48.7571" lon="4.62689">
        <ele>174.14</ele>
        <time>2021-08-10T06:13:22Z</time>
      </trkpt>
      <trkpt lat="48.75705" lon="4.62665">
        <ele>176.06</ele>
        <time>2021-08-10T06:13:31Z</time>
      </trkpt>
      <trkpt lat="48.75705" lon="4.62644">
        <ele>177.5</ele>
        <time>2021-08-10T06:13:38Z</time>
      </trkpt>
      <trkpt lat="48.75706" lon="4.6262">
        <ele>178.94</ele>
        <time>2021-08-10T06:13:46Z</time>
      </trkpt>
      <trkpt lat="48.75709" lon="4.62601">
        <ele>180.38</ele>
        <time>2021-08-10T06:13:53Z</time>
      </trkpt>
      <trkpt lat="48.7571" lon="4.62563">
        <ele>180.87</ele>
        <time>2021-08-10T06:14:05Z</time>
      </trkpt>
      <trkpt lat="48.75708" lon="4.62529">
        <ele>182.79</ele>
        <time>2021-08-10T06:14:16Z</time>
      </trkpt>
      <trkpt lat="48.75707" lon="4.62497">
        <ele>184.23</ele>
        <time>2021-08-10T06:14:26Z</time>
      </trkpt>
      <trkpt lat="48.75707" lon="4.6247">
        <ele>185.67</ele>
        <time>2021-08-10T06:14:35Z</time>
      </trkpt>
      <trkpt lat="48.75708" lon="4.62441">
        <ele>187.59</ele>
        <time>2021-08-10T06:14:45Z</time>
      </trkpt>
      <trkpt lat="48.75709" lon="4.62413">
        <ele>189.52</ele>
        <time>2021-08-10T06:14:55Z</time>
      </trkpt>
      <trkpt lat="48.75709" lon="4.62388">
        <ele>191.44</ele>
        <time>2021-08-10T06:15:04Z</time>
      </trkpt>
      <trkpt lat="48.75709" lon="4.62366">
        <ele>192.4</ele>
        <time>2021-08-10T06:15:12Z</time>
      </trkpt>
      <trkpt lat="48.75708" lon="4.62341">
        <ele>193.84</ele>
        <time>2021-08-10T06:15:21Z</time>
      </trkpt>
      <trkpt lat="48.75707" lon="4.62316">
        <ele>195.28</ele>
        <time>2021-08-10T06:15:30Z</time>
      </trkpt>
      <trkpt lat="48.75707" lon="4.62314">
        <ele>195.77</ele>
        <time>2021-08-10T06:15:31Z</time>
      </trkpt>
      <trkpt lat="48.75707" lon="4.62311">
        <ele>195.77</ele>
        <time>2021-08-10T06:15:32Z</time>
      </trkpt>
      <trkpt lat="48.75707" lon="4.62308">
        <ele>195.77</ele>
        <time>2021-08-10T06:15:33Z</time>
      </trkpt>
      <trkpt lat="48.75707" lon="4.62306">
        <ele>196.25</ele>
        <time>2021-08-10T06:15:34Z</time>
      </trkpt>
      <trkpt lat="48.75707" lon="4.62303">
        <ele>196.73</ele>
        <time>2021-08-10T06:15:35Z</time>
      </trkpt>
      <trkpt lat="48.75707" lon="4.623">
        <ele>196.73</ele>
        <time>2021-08-10T06:15:36Z</time>
      </trkpt>
      <trkpt lat="48.75707" lon="4.62297">
        <ele>196.73</ele>
        <time>2021-08-10T06:15:37Z</time>
      </trkpt>
      <trkpt lat="48.75706" lon="4.62271">
        <ele>198.17</ele>
        <time>2021-08-10T06:15:46Z</time>
      </trkpt>
      <trkpt lat="48.75704" lon="4.62231">
        <ele>200.09</ele>
        <time>2021-08-10T06:15:58Z</time>
      </trkpt>
      <trkpt lat="48.75701" lon="4.62204">
        <ele>201.05</ele>
        <time>2021-08-10T06:16:05Z</time>
      </trkpt>
      <trkpt lat="48.75699" lon="4.62176">
        <ele>202.49</ele>
        <time>2021-08-10T06:16:12Z</time>
      </trkpt>
      <trkpt lat="48.75695" lon="4.62143">
        <ele>203.46</ele>
        <time>2021-08-10T06:16:20Z</time>
      </trkpt>
      <trkpt lat="48.75691" lon="4.62111">
        <ele>203.94</ele>
        <time>2021-08-10T06:16:29Z</time>
      </trkpt>
      <trkpt lat="48.75691" lon="4.6211">
        <ele>204.42</ele>
        <time>2021-08-10T06:16:41Z</time>
      </trkpt>
      <trkpt lat="48.7569" lon="4.62109">
        <ele>204.42</ele>
        <time>2021-08-10T06:16:48Z</time>
      </trkpt>
      <trkpt lat="48.75689" lon="4.62107">
        <ele>204.42</ele>
        <time>2021-08-10T06:16:49Z</time>
      </trkpt>
      <trkpt lat="48.75683" lon="4.62084">
        <ele>204.42</ele>
        <time>2021-08-10T06:16:54Z</time>
      </trkpt>
      <trkpt lat="48.75671" lon="4.62035">
        <ele>204.42</ele>
        <time>2021-08-10T06:17:03Z</time>
      </trkpt>
      <trkpt lat="48.75667" lon="4.62004">
        <ele>204.42</ele>
        <time>2021-08-10T06:17:08Z</time>
      </trkpt>
      <trkpt lat="48.75666" lon="4.61997">
        <ele>204.42</ele>
        <time>2021-08-10T06:17:09Z</time>
      </trkpt>
      <trkpt lat="48.75665" lon="4.61989">
        <ele>204.42</ele>
        <time>2021-08-10T06:17:10Z</time>
      </trkpt>
      <trkpt lat="48.75661" lon="4.61933">
        <ele>204.42</ele>
        <time>2021-08-10T06:17:18Z</time>
      </trkpt>
      <trkpt lat="48.75659" lon="4.61919">
        <ele>204.42</ele>
        <time>2021-08-10T06:17:20Z</time>
      </trkpt>
      <trkpt lat="48.75656" lon="4.61892">
        <ele>203.46</ele>
        <time>2021-08-10T06:17:24Z</time>
      </trkpt>
      <trkpt lat="48.75655" lon="4.61886">
        <ele>203.46</ele>
        <time>2021-08-10T06:17:25Z</time>
      </trkpt>
      <trkpt lat="48.75654" lon="4.61879">
        <ele>203.46</ele>
        <time>2021-08-10T06:17:26Z</time>
      </trkpt>
      <trkpt lat="48.75643" lon="4.61831">
        <ele>201.05</ele>
        <time>2021-08-10T06:17:32Z</time>
      </trkpt>
      <trkpt lat="48.75641" lon="4.61824">
        <ele>201.05</ele>
        <time>2021-08-10T06:17:33Z</time>
      </trkpt>
      <trkpt lat="48.75633" lon="4.61797">
        <ele>201.05</ele>
        <time>2021-08-10T06:17:37Z</time>
      </trkpt>
      <trkpt lat="48.75632" lon="4.61791">
        <ele>201.05</ele>
        <time>2021-08-10T06:17:38Z</time>
      </trkpt>
      <trkpt lat="48.75631" lon="4.61785">
        <ele>201.53</ele>
        <time>2021-08-10T06:17:39Z</time>
      </trkpt>
      <trkpt lat="48.75614" lon="4.61721">
        <ele>201.05</ele>
        <time>2021-08-10T06:17:48Z</time>
      </trkpt>
      <trkpt lat="48.75597" lon="4.6166">
        <ele>200.57</ele>
        <time>2021-08-10T06:17:57Z</time>
      </trkpt>
      <trkpt lat="48.75583" lon="4.61606">
        <ele>198.65</ele>
        <time>2021-08-10T06:18:05Z</time>
      </trkpt>
      <trkpt lat="48.75569" lon="4.61543">
        <ele>195.28</ele>
        <time>2021-08-10T06:18:12Z</time>
      </trkpt>
      <trkpt lat="48.75553" lon="4.61458">
        <ele>192.88</ele>
        <time>2021-08-10T06:18:20Z</time>
      </trkpt>
      <trkpt lat="48.75539" lon="4.61365">
        <ele>189.04</ele>
        <time>2021-08-10T06:18:28Z</time>
      </trkpt>
      <trkpt lat="48.75537" lon="4.61354">
        <ele>189.04</ele>
        <time>2021-08-10T06:18:29Z</time>
      </trkpt>
      <trkpt lat="48.75529" lon="4.61306">
        <ele>187.59</ele>
        <time>2021-08-10T06:18:34Z</time>
      </trkpt>
      <trkpt lat="48.75516" lon="4.61251">
        <ele>184.71</ele>
        <time>2021-08-10T06:18:40Z</time>
      </trkpt>
      <trkpt lat="48.75504" lon="4.61215">
        <ele>181.35</ele>
        <time>2021-08-10T06:18:44Z</time>
      </trkpt>
      <trkpt lat="48.755" lon="4.61209">
        <ele>180.87</ele>
        <time>2021-08-10T06:18:45Z</time>
      </trkpt>
      <trkpt lat="48.75494" lon="4.61205">
        <ele>180.87</ele>
        <time>2021-08-10T06:18:46Z</time>
      </trkpt>
      <trkpt lat="48.75489" lon="4.61204">
        <ele>180.87</ele>
        <time>2021-08-10T06:18:47Z</time>
      </trkpt>
      <trkpt lat="48.75484" lon="4.61205">
        <ele>180.87</ele>
        <time>2021-08-10T06:18:48Z</time>
      </trkpt>
      <trkpt lat="48.75478" lon="4.61206">
        <ele>180.87</ele>
        <time>2021-08-10T06:18:49Z</time>
      </trkpt>
      <trkpt lat="48.75451" lon="4.61212">
        <ele>177.98</ele>
        <time>2021-08-10T06:18:53Z</time>
      </trkpt>
      <trkpt lat="48.75435" lon="4.61215">
        <ele>173.66</ele>
        <time>2021-08-10T06:18:55Z</time>
      </trkpt>
      <trkpt lat="48.75418" lon="4.61219">
        <ele>170.77</ele>
        <time>2021-08-10T06:18:57Z</time>
      </trkpt>
      <trkpt lat="48.754" lon="4.61222">
        <ele>166.93</ele>
        <time>2021-08-10T06:18:59Z</time>
      </trkpt>
      <trkpt lat="48.75382" lon="4.61228">
        <ele>163.08</ele>
        <time>2021-08-10T06:19:01Z</time>
      </trkpt>
      <trkpt lat="48.75364" lon="4.61233">
        <ele>160.2</ele>
        <time>2021-08-10T06:19:03Z</time>
      </trkpt>
      <trkpt lat="48.75337" lon="4.61238">
        <ele>156.35</ele>
        <time>2021-08-10T06:19:06Z</time>
      </trkpt>
      <trkpt lat="48.75312" lon="4.61242">
        <ele>152.99</ele>
        <time>2021-08-10T06:19:09Z</time>
      </trkpt>
      <trkpt lat="48.75304" lon="4.61244">
        <ele>153.47</ele>
        <time>2021-08-10T06:19:10Z</time>
      </trkpt>
      <trkpt lat="48.75282" lon="4.61247">
        <ele>150.58</ele>
        <time>2021-08-10T06:19:13Z</time>
      </trkpt>
      <trkpt lat="48.75268" lon="4.61246">
        <ele>150.1</ele>
        <time>2021-08-10T06:19:15Z</time>
      </trkpt>
      <trkpt lat="48.75227" lon="4.61234">
        <ele>149.14</ele>
        <time>2021-08-10T06:19:21Z</time>
      </trkpt>
      <trkpt lat="48.75202" lon="4.61225">
        <ele>149.14</ele>
        <time>2021-08-10T06:19:25Z</time>
      </trkpt>
      <trkpt lat="48.75196" lon="4.61223">
        <ele>149.14</ele>
        <time>2021-08-10T06:19:26Z</time>
      </trkpt>
      <trkpt lat="48.7514" lon="4.61203">
        <ele>149.14</ele>
        <time>2021-08-10T06:19:36Z</time>
      </trkpt>
      <trkpt lat="48.75123" lon="4.61197">
        <ele>149.14</ele>
        <time>2021-08-10T06:19:39Z</time>
      </trkpt>
      <trkpt lat="48.75118" lon="4.61195">
        <ele>149.14</ele>
        <time>2021-08-10T06:19:40Z</time>
      </trkpt>
      <trkpt lat="48.75113" lon="4.61193">
        <ele>149.14</ele>
        <time>2021-08-10T06:19:41Z</time>
      </trkpt>
      <trkpt lat="48.75057" lon="4.61174">
        <ele>148.66</ele>
        <time>2021-08-10T06:19:50Z</time>
      </trkpt>
      <trkpt lat="48.75051" lon="4.61172">
        <ele>148.66</ele>
        <time>2021-08-10T06:19:51Z</time>
      </trkpt>
      <trkpt lat="48.74998" lon="4.61157">
        <ele>148.66</ele>
        <time>2021-08-10T06:20:00Z</time>
      </trkpt>
      <trkpt lat="48.74987" lon="4.61153">
        <ele>148.66</ele>
        <time>2021-08-10T06:20:02Z</time>
      </trkpt>
      <trkpt lat="48.74982" lon="4.6115">
        <ele>148.18</ele>
        <time>2021-08-10T06:20:03Z</time>
      </trkpt>
      <trkpt lat="48.74976" lon="4.61147">
        <ele>148.18</ele>
        <time>2021-08-10T06:20:04Z</time>
      </trkpt>
      <trkpt lat="48.74952" lon="4.6114">
        <ele>147.7</ele>
        <time>2021-08-10T06:20:08Z</time>
      </trkpt>
      <trkpt lat="48.74947" lon="4.61138">
        <ele>147.7</ele>
        <time>2021-08-10T06:20:09Z</time>
      </trkpt>
      <trkpt lat="48.74893" lon="4.61124">
        <ele>147.7</ele>
        <time>2021-08-10T06:20:19Z</time>
      </trkpt>
      <trkpt lat="48.74855" lon="4.61113">
        <ele>147.7</ele>
        <time>2021-08-10T06:20:28Z</time>
      </trkpt>
      <trkpt lat="48.74828" lon="4.61106">
        <ele>148.66</ele>
        <time>2021-08-10T06:20:36Z</time>
      </trkpt>
      <trkpt lat="48.74799" lon="4.61103">
        <ele>150.1</ele>
        <time>2021-08-10T06:20:46Z</time>
      </trkpt>
      <trkpt lat="48.74774" lon="4.61101">
        <ele>151.54</ele>
        <time>2021-08-10T06:20:56Z</time>
      </trkpt>
      <trkpt lat="48.74749" lon="4.61099">
        <ele>151.54</ele>
        <time>2021-08-10T06:21:03Z</time>
      </trkpt>
      <trkpt lat="48.74733" lon="4.61097">
        <ele>150.1</ele>
        <time>2021-08-10T06:21:07Z</time>
      </trkpt>
      <trkpt lat="48.74698" lon="4.61091">
        <ele>149.14</ele>
        <time>2021-08-10T06:21:15Z</time>
      </trkpt>
      <trkpt lat="48.7467" lon="4.61075">
        <ele>148.66</ele>
        <time>2021-08-10T06:21:23Z</time>
      </trkpt>
      <trkpt lat="48.74669" lon="4.61049">
        <ele>149.62</ele>
        <time>2021-08-10T06:21:28Z</time>
      </trkpt>
      <trkpt lat="48.7467" lon="4.60999">
        <ele>151.54</ele>
        <time>2021-08-10T06:21:40Z</time>
      </trkpt>
      <trkpt lat="48.74672" lon="4.60954">
        <ele>152.51</ele>
        <time>2021-08-10T06:21:50Z</time>
      </trkpt>
      <trkpt lat="48.74674" lon="4.60894">
        <ele>152.51</ele>
        <time>2021-08-10T06:22:01Z</time>
      </trkpt>
      <trkpt lat="48.74677" lon="4.60813">
        <ele>152.51</ele>
        <time>2021-08-10T06:22:14Z</time>
      </trkpt>
      <trkpt lat="48.74678" lon="4.60749">
        <ele>152.51</ele>
        <time>2021-08-10T06:22:24Z</time>
      </trkpt>
      <trkpt lat="48.74679" lon="4.60723">
        <ele>151.54</ele>
        <time>2021-08-10T06:22:28Z</time>
      </trkpt>
      <trkpt lat="48.74679" lon="4.60669">
        <ele>150.58</ele>
        <time>2021-08-10T06:22:36Z</time>
      </trkpt>
      <trkpt lat="48.7468" lon="4.6063">
        <ele>150.58</ele>
        <time>2021-08-10T06:22:42Z</time>
      </trkpt>
      <trkpt lat="48.74681" lon="4.60591">
        <ele>150.58</ele>
        <time>2021-08-10T06:22:50Z</time>
      </trkpt>
      <trkpt lat="48.74677" lon="4.60578">
        <ele>150.58</ele>
        <time>2021-08-10T06:22:53Z</time>
      </trkpt>
      <trkpt lat="48.74674" lon="4.60577">
        <ele>150.58</ele>
        <time>2021-08-10T06:22:54Z</time>
      </trkpt>
      <trkpt lat="48.74649" lon="4.60575">
        <ele>150.58</ele>
        <time>2021-08-10T06:23:01Z</time>
      </trkpt>
      <trkpt lat="48.74636" lon="4.60571">
        <ele>150.1</ele>
        <time>2021-08-10T06:23:05Z</time>
      </trkpt>
      <trkpt lat="48.74632" lon="4.60566">
        <ele>149.14</ele>
        <time>2021-08-10T06:23:06Z</time>
      </trkpt>
      <trkpt lat="48.7463" lon="4.6056">
        <ele>149.14</ele>
        <time>2021-08-10T06:23:07Z</time>
      </trkpt>
      <trkpt lat="48.74629" lon="4.60554">
        <ele>149.14</ele>
        <time>2021-08-10T06:23:08Z</time>
      </trkpt>
      <trkpt lat="48.74627" lon="4.60549">
        <ele>149.14</ele>
        <time>2021-08-10T06:23:09Z</time>
      </trkpt>
      <trkpt lat="48.74622" lon="4.60513">
        <ele>148.66</ele>
        <time>2021-08-10T06:23:16Z</time>
      </trkpt>
      <trkpt lat="48.74617" lon="4.6047">
        <ele>148.66</ele>
        <time>2021-08-10T06:23:23Z</time>
      </trkpt>
      <trkpt lat="48.74614" lon="4.604">
        <ele>148.66</ele>
        <time>2021-08-10T06:23:34Z</time>
      </trkpt>
      <trkpt lat="48.74614" lon="4.60381">
        <ele>148.66</ele>
        <time>2021-08-10T06:23:37Z</time>
      </trkpt>
      <trkpt lat="48.74614" lon="4.60359">
        <ele>148.66</ele>
        <time>2021-08-10T06:23:41Z</time>
      </trkpt>
      <trkpt lat="48.74613" lon="4.60357">
        <ele>148.18</ele>
        <time>2021-08-10T06:23:42Z</time>
      </trkpt>
      <trkpt lat="48.74611" lon="4.60354">
        <ele>147.7</ele>
        <time>2021-08-10T06:23:43Z</time>
      </trkpt>
      <trkpt lat="48.74609" lon="4.60352">
        <ele>147.22</ele>
        <time>2021-08-10T06:23:44Z</time>
      </trkpt>
      <trkpt lat="48.74607" lon="4.6035">
        <ele>146.26</ele>
        <time>2021-08-10T06:23:45Z</time>
      </trkpt>
      <trkpt lat="48.74603" lon="4.60347">
        <ele>143.85</ele>
        <time>2021-08-10T06:23:50Z</time>
      </trkpt>
      <trkpt lat="48.74602" lon="4.60342">
        <ele>143.85</ele>
        <time>2021-08-10T06:23:54Z</time>
      </trkpt>
      <trkpt lat="48.74602" lon="4.6034">
        <ele>143.85</ele>
        <time>2021-08-10T06:23:55Z</time>
      </trkpt>
      <trkpt lat="48.74601" lon="4.60338">
        <ele>143.85</ele>
        <time>2021-08-10T06:23:56Z</time>
      </trkpt>
      <trkpt lat="48.74601" lon="4.60336">
        <ele>143.85</ele>
        <time>2021-08-10T06:23:57Z</time>
      </trkpt>
      <trkpt lat="48.746" lon="4.60333">
        <ele>143.85</ele>
        <time>2021-08-10T06:23:58Z</time>
      </trkpt>
      <trkpt lat="48.746" lon="4.60331">
        <ele>143.85</ele>
        <time>2021-08-10T06:23:59Z</time>
      </trkpt>
      <trkpt lat="48.74599" lon="4.60328">
        <ele>143.85</ele>
        <time>2021-08-10T06:24:00Z</time>
      </trkpt>
      <trkpt lat="48.74598" lon="4.60325">
        <ele>143.85</ele>
        <time>2021-08-10T06:24:01Z</time>
      </trkpt>
      <trkpt lat="48.74598" lon="4.60323">
        <ele>143.85</ele>
        <time>2021-08-10T06:24:02Z</time>
      </trkpt>
      <trkpt lat="48.74598" lon="4.6032">
        <ele>143.37</ele>
        <time>2021-08-10T06:24:03Z</time>
      </trkpt>
      <trkpt lat="48.74597" lon="4.60318">
        <ele>143.37</ele>
        <time>2021-08-10T06:24:04Z</time>
      </trkpt>
      <trkpt lat="48.74598" lon="4.60315">
        <ele>142.89</ele>
        <time>2021-08-10T06:24:05Z</time>
      </trkpt>
      <trkpt lat="48.74597" lon="4.60311">
        <ele>141.93</ele>
        <time>2021-08-10T06:24:06Z</time>
      </trkpt>
      <trkpt lat="48.74598" lon="4.60305">
        <ele>141.93</ele>
        <time>2021-08-10T06:24:07Z</time>
      </trkpt>
      <trkpt lat="48.74598" lon="4.60301">
        <ele>142.41</ele>
        <time>2021-08-10T06:24:08Z</time>
      </trkpt>
      <trkpt lat="48.74598" lon="4.60297">
        <ele>142.41</ele>
        <time>2021-08-10T06:24:09Z</time>
      </trkpt>
      <trkpt lat="48.74597" lon="4.60294">
        <ele>142.41</ele>
        <time>2021-08-10T06:24:10Z</time>
      </trkpt>
      <trkpt lat="48.74596" lon="4.6029">
        <ele>142.41</ele>
        <time>2021-08-10T06:24:11Z</time>
      </trkpt>
      <trkpt lat="48.74595" lon="4.60286">
        <ele>141.45</ele>
        <time>2021-08-10T06:24:12Z</time>
      </trkpt>
      <trkpt lat="48.74594" lon="4.60281">
        <ele>140.97</ele>
        <time>2021-08-10T06:24:13Z</time>
      </trkpt>
      <trkpt lat="48.74595" lon="4.60278">
        <ele>140.97</ele>
        <time>2021-08-10T06:24:14Z</time>
      </trkpt>
      <trkpt lat="48.74595" lon="4.60275">
        <ele>140.97</ele>
        <time>2021-08-10T06:24:15Z</time>
      </trkpt>
      <trkpt lat="48.74596" lon="4.60273">
        <ele>140.97</ele>
        <time>2021-08-10T06:24:16Z</time>
      </trkpt>
      <trkpt lat="48.74596" lon="4.60271">
        <ele>140.97</ele>
        <time>2021-08-10T06:24:17Z</time>
      </trkpt>
      <trkpt lat="48.74597" lon="4.60269">
        <ele>140.97</ele>
        <time>2021-08-10T06:24:18Z</time>
      </trkpt>
      <trkpt lat="48.74597" lon="4.60267">
        <ele>140.97</ele>
        <time>2021-08-10T06:24:19Z</time>
      </trkpt>
      <trkpt lat="48.74603" lon="4.60248">
        <ele>140.97</ele>
        <time>2021-08-10T06:24:25Z</time>
      </trkpt>
      <trkpt lat="48.74612" lon="4.60235">
        <ele>139.05</ele>
        <time>2021-08-10T06:24:29Z</time>
      </trkpt>
      <trkpt lat="48.7462" lon="4.60226">
        <ele>137.61</ele>
        <time>2021-08-10T06:24:34Z</time>
      </trkpt>
      <trkpt lat="48.74621" lon="4.60222">
        <ele>136.64</ele>
        <time>2021-08-10T06:24:35Z</time>
      </trkpt>
      <trkpt lat="48.74622" lon="4.60214">
        <ele>134.24</ele>
        <time>2021-08-10T06:24:37Z</time>
      </trkpt>
      <trkpt lat="48.74622" lon="4.60209">
        <ele>133.76</ele>
        <time>2021-08-10T06:24:38Z</time>
      </trkpt>
      <trkpt lat="48.74622" lon="4.60205">
        <ele>133.76</ele>
        <time>2021-08-10T06:24:39Z</time>
      </trkpt>
      <trkpt lat="48.74623" lon="4.60197">
        <ele>133.76</ele>
        <time>2021-08-10T06:24:44Z</time>
      </trkpt>
      <trkpt lat="48.74624" lon="4.60195">
        <ele>135.2</ele>
        <time>2021-08-10T06:24:46Z</time>
      </trkpt>
      <trkpt lat="48.74626" lon="4.60185">
        <ele>138.09</ele>
        <time>2021-08-10T06:24:55Z</time>
      </trkpt>
      <trkpt lat="48.74625" lon="4.60178">
        <ele>140.01</ele>
        <time>2021-08-10T06:25:04Z</time>
      </trkpt>
      <trkpt lat="48.74623" lon="4.60175">
        <ele>140.49</ele>
        <time>2021-08-10T06:25:07Z</time>
      </trkpt>
      <trkpt lat="48.74621" lon="4.60163">
        <ele>141.93</ele>
        <time>2021-08-10T06:25:15Z</time>
      </trkpt>
      <trkpt lat="48.7462" lon="4.60157">
        <ele>141.93</ele>
        <time>2021-08-10T06:25:26Z</time>
      </trkpt>
      <trkpt lat="48.74619" lon="4.60152">
        <ele>141.93</ele>
        <time>2021-08-10T06:25:29Z</time>
      </trkpt>
      <trkpt lat="48.74618" lon="4.6015">
        <ele>141.93</ele>
        <time>2021-08-10T06:25:30Z</time>
      </trkpt>
      <trkpt lat="48.74618" lon="4.60147">
        <ele>141.93</ele>
        <time>2021-08-10T06:25:31Z</time>
      </trkpt>
      <trkpt lat="48.74617" lon="4.60145">
        <ele>141.93</ele>
        <time>2021-08-10T06:25:32Z</time>
      </trkpt>
      <trkpt lat="48.74616" lon="4.60142">
        <ele>141.93</ele>
        <time>2021-08-10T06:25:33Z</time>
      </trkpt>
      <trkpt lat="48.74614" lon="4.60138">
        <ele>141.93</ele>
        <time>2021-08-10T06:25:34Z</time>
      </trkpt>
      <trkpt lat="48.74612" lon="4.60134">
        <ele>140.49</ele>
        <time>2021-08-10T06:25:35Z</time>
      </trkpt>
      <trkpt lat="48.74611" lon="4.6013">
        <ele>140.49</ele>
        <time>2021-08-10T06:25:36Z</time>
      </trkpt>
      <trkpt lat="48.74608" lon="4.60104">
        <ele>139.05</ele>
        <time>2021-08-10T06:25:41Z</time>
      </trkpt>
      <trkpt lat="48.74608" lon="4.60094">
        <ele>139.05</ele>
        <time>2021-08-10T06:25:44Z</time>
      </trkpt>
      <trkpt lat="48.74608" lon="4.60091">
        <ele>139.05</ele>
        <time>2021-08-10T06:25:45Z</time>
      </trkpt>
      <trkpt lat="48.74607" lon="4.60088">
        <ele>139.05</ele>
        <time>2021-08-10T06:25:46Z</time>
      </trkpt>
      <trkpt lat="48.74607" lon="4.60084">
        <ele>139.05</ele>
        <time>2021-08-10T06:25:47Z</time>
      </trkpt>
      <trkpt lat="48.74606" lon="4.60081">
        <ele>139.05</ele>
        <time>2021-08-10T06:25:48Z</time>
      </trkpt>
      <trkpt lat="48.74605" lon="4.60077">
        <ele>139.05</ele>
        <time>2021-08-10T06:25:49Z</time>
      </trkpt>
      <trkpt lat="48.74605" lon="4.60073">
        <ele>139.05</ele>
        <time>2021-08-10T06:25:50Z</time>
      </trkpt>
      <trkpt lat="48.74605" lon="4.6007">
        <ele>139.05</ele>
        <time>2021-08-10T06:25:51Z</time>
      </trkpt>
      <trkpt lat="48.74605" lon="4.60067">
        <ele>139.05</ele>
        <time>2021-08-10T06:25:52Z</time>
      </trkpt>
      <trkpt lat="48.74604" lon="4.60064">
        <ele>139.05</ele>
        <time>2021-08-10T06:25:53Z</time>
      </trkpt>
      <trkpt lat="48.74603" lon="4.60061">
        <ele>139.05</ele>
        <time>2021-08-10T06:25:54Z</time>
      </trkpt>
      <trkpt lat="48.74602" lon="4.60058">
        <ele>139.05</ele>
        <time>2021-08-10T06:25:55Z</time>
      </trkpt>
      <trkpt lat="48.74602" lon="4.60054">
        <ele>139.05</ele>
        <time>2021-08-10T06:25:56Z</time>
      </trkpt>
      <trkpt lat="48.74601" lon="4.6005">
        <ele>139.05</ele>
        <time>2021-08-10T06:25:57Z</time>
      </trkpt>
      <trkpt lat="48.746" lon="4.60046">
        <ele>139.05</ele>
        <time>2021-08-10T06:25:58Z</time>
      </trkpt>
      <trkpt lat="48.74599" lon="4.60041">
        <ele>138.57</ele>
        <time>2021-08-10T06:25:59Z</time>
      </trkpt>
      <trkpt lat="48.74599" lon="4.60036">
        <ele>138.57</ele>
        <time>2021-08-10T06:26:00Z</time>
      </trkpt>
      <trkpt lat="48.74599" lon="4.60032">
        <ele>138.57</ele>
        <time>2021-08-10T06:26:01Z</time>
      </trkpt>
      <trkpt lat="48.74598" lon="4.60029">
        <ele>138.57</ele>
        <time>2021-08-10T06:26:02Z</time>
      </trkpt>
      <trkpt lat="48.74597" lon="4.60026">
        <ele>138.57</ele>
        <time>2021-08-10T06:26:03Z</time>
      </trkpt>
      <trkpt lat="48.74597" lon="4.60023">
        <ele>138.57</ele>
        <time>2021-08-10T06:26:04Z</time>
      </trkpt>
      <trkpt lat="48.74592" lon="4.60007">
        <ele>136.16</ele>
        <time>2021-08-10T06:26:09Z</time>
      </trkpt>
      <trkpt lat="48.74589" lon="4.59995">
        <ele>134.72</ele>
        <time>2021-08-10T06:26:12Z</time>
      </trkpt>
      <trkpt lat="48.74589" lon="4.59981">
        <ele>134.72</ele>
        <time>2021-08-10T06:26:17Z</time>
      </trkpt>
      <trkpt lat="48.74589" lon="4.59977">
        <ele>134.72</ele>
        <time>2021-08-10T06:26:19Z</time>
      </trkpt>
      <trkpt lat="48.74588" lon="4.59974">
        <ele>134.72</ele>
        <time>2021-08-10T06:26:20Z</time>
      </trkpt>
      <trkpt lat="48.74588" lon="4.59971">
        <ele>134.72</ele>
        <time>2021-08-10T06:26:21Z</time>
      </trkpt>
      <trkpt lat="48.74587" lon="4.59964">
        <ele>134.72</ele>
        <time>2021-08-10T06:26:26Z</time>
      </trkpt>
      <trkpt lat="48.74587" lon="4.59962">
        <ele>136.16</ele>
        <time>2021-08-10T06:26:27Z</time>
      </trkpt>
      <trkpt lat="48.74586" lon="4.59959">
        <ele>136.16</ele>
        <time>2021-08-10T06:26:28Z</time>
      </trkpt>
      <trkpt lat="48.74586" lon="4.59956">
        <ele>136.16</ele>
        <time>2021-08-10T06:26:29Z</time>
      </trkpt>
      <trkpt lat="48.74585" lon="4.59953">
        <ele>136.16</ele>
        <time>2021-08-10T06:26:30Z</time>
      </trkpt>
      <trkpt lat="48.74584" lon="4.59949">
        <ele>136.16</ele>
        <time>2021-08-10T06:26:31Z</time>
      </trkpt>
      <trkpt lat="48.74583" lon="4.59946">
        <ele>136.16</ele>
        <time>2021-08-10T06:26:32Z</time>
      </trkpt>
      <trkpt lat="48.74582" lon="4.59941">
        <ele>136.16</ele>
        <time>2021-08-10T06:26:33Z</time>
      </trkpt>
      <trkpt lat="48.74581" lon="4.59937">
        <ele>136.16</ele>
        <time>2021-08-10T06:26:34Z</time>
      </trkpt>
      <trkpt lat="48.74581" lon="4.59934">
        <ele>136.16</ele>
        <time>2021-08-10T06:26:35Z</time>
      </trkpt>
      <trkpt lat="48.7458" lon="4.59931">
        <ele>136.16</ele>
        <time>2021-08-10T06:26:36Z</time>
      </trkpt>
      <trkpt lat="48.74572" lon="4.59915">
        <ele>134.24</ele>
        <time>2021-08-10T06:26:42Z</time>
      </trkpt>
      <trkpt lat="48.74567" lon="4.59888">
        <ele>133.76</ele>
        <time>2021-08-10T06:26:50Z</time>
      </trkpt>
      <trkpt lat="48.74568" lon="4.59883">
        <ele>133.76</ele>
        <time>2021-08-10T06:26:55Z</time>
      </trkpt>
      <trkpt lat="48.74567" lon="4.59876">
        <ele>133.76</ele>
        <time>2021-08-10T06:27:01Z</time>
      </trkpt>
      <trkpt lat="48.74562" lon="4.59866">
        <ele>133.28</ele>
        <time>2021-08-10T06:27:06Z</time>
      </trkpt>
      <trkpt lat="48.74562" lon="4.59863">
        <ele>132.8</ele>
        <time>2021-08-10T06:27:07Z</time>
      </trkpt>
      <trkpt lat="48.74561" lon="4.59859">
        <ele>132.32</ele>
        <time>2021-08-10T06:27:08Z</time>
      </trkpt>
      <trkpt lat="48.7456" lon="4.59854">
        <ele>131.84</ele>
        <time>2021-08-10T06:27:10Z</time>
      </trkpt>
      <trkpt lat="48.74559" lon="4.59852">
        <ele>131.36</ele>
        <time>2021-08-10T06:27:11Z</time>
      </trkpt>
      <trkpt lat="48.74557" lon="4.5985">
        <ele>130.88</ele>
        <time>2021-08-10T06:27:12Z</time>
      </trkpt>
      <trkpt lat="48.74556" lon="4.59847">
        <ele>130.4</ele>
        <time>2021-08-10T06:27:13Z</time>
      </trkpt>
      <trkpt lat="48.74556" lon="4.59844">
        <ele>130.4</ele>
        <time>2021-08-10T06:27:14Z</time>
      </trkpt>
      <trkpt lat="48.74555" lon="4.59841">
        <ele>129.92</ele>
        <time>2021-08-10T06:27:15Z</time>
      </trkpt>
      <trkpt lat="48.74554" lon="4.59838">
        <ele>129.43</ele>
        <time>2021-08-10T06:27:16Z</time>
      </trkpt>
      <trkpt lat="48.74554" lon="4.59835">
        <ele>129.43</ele>
        <time>2021-08-10T06:27:17Z</time>
      </trkpt>
      <trkpt lat="48.74554" lon="4.59832">
        <ele>129.43</ele>
        <time>2021-08-10T06:27:18Z</time>
      </trkpt>
      <trkpt lat="48.74554" lon="4.59829">
        <ele>129.43</ele>
        <time>2021-08-10T06:27:19Z</time>
      </trkpt>
      <trkpt lat="48.74554" lon="4.59827">
        <ele>129.92</ele>
        <time>2021-08-10T06:27:20Z</time>
      </trkpt>
      <trkpt lat="48.74552" lon="4.59824">
        <ele>128.95</ele>
        <time>2021-08-10T06:27:21Z</time>
      </trkpt>
      <trkpt lat="48.74551" lon="4.59821">
        <ele>127.99</ele>
        <time>2021-08-10T06:27:22Z</time>
      </trkpt>
      <trkpt lat="48.74549" lon="4.59818">
        <ele>127.51</ele>
        <time>2021-08-10T06:27:23Z</time>
      </trkpt>
      <trkpt lat="48.74548" lon="4.59814">
        <ele>127.51</ele>
        <time>2021-08-10T06:27:24Z</time>
      </trkpt>
      <trkpt lat="48.74547" lon="4.5981">
        <ele>127.03</ele>
        <time>2021-08-10T06:27:25Z</time>
      </trkpt>
      <trkpt lat="48.74546" lon="4.59807">
        <ele>127.03</ele>
        <time>2021-08-10T06:27:26Z</time>
      </trkpt>
      <trkpt lat="48.74546" lon="4.59804">
        <ele>127.03</ele>
        <time>2021-08-10T06:27:27Z</time>
      </trkpt>
      <trkpt lat="48.74545" lon="4.598">
        <ele>127.03</ele>
        <time>2021-08-10T06:27:28Z</time>
      </trkpt>
      <trkpt lat="48.74544" lon="4.59795">
        <ele>126.55</ele>
        <time>2021-08-10T06:27:29Z</time>
      </trkpt>
      <trkpt lat="48.74544" lon="4.59791">
        <ele>126.55</ele>
        <time>2021-08-10T06:27:30Z</time>
      </trkpt>
      <trkpt lat="48.74543" lon="4.59788">
        <ele>126.55</ele>
        <time>2021-08-10T06:27:31Z</time>
      </trkpt>
      <trkpt lat="48.74543" lon="4.59784">
        <ele>126.55</ele>
        <time>2021-08-10T06:27:32Z</time>
      </trkpt>
      <trkpt lat="48.74541" lon="4.5978">
        <ele>126.07</ele>
        <time>2021-08-10T06:27:33Z</time>
      </trkpt>
      <trkpt lat="48.74541" lon="4.59777">
        <ele>125.59</ele>
        <time>2021-08-10T06:27:34Z</time>
      </trkpt>
      <trkpt lat="48.74541" lon="4.59774">
        <ele>125.59</ele>
        <time>2021-08-10T06:27:35Z</time>
      </trkpt>
      <trkpt lat="48.74541" lon="4.59771">
        <ele>125.59</ele>
        <time>2021-08-10T06:27:36Z</time>
      </trkpt>
      <trkpt lat="48.7454" lon="4.59769">
        <ele>125.59</ele>
        <time>2021-08-10T06:27:37Z</time>
      </trkpt>
      <trkpt lat="48.7454" lon="4.59766">
        <ele>125.59</ele>
        <time>2021-08-10T06:27:38Z</time>
      </trkpt>
      <trkpt lat="48.74538" lon="4.59759">
        <ele>125.59</ele>
        <time>2021-08-10T06:27:41Z</time>
      </trkpt>
      <trkpt lat="48.74538" lon="4.59757">
        <ele>125.11</ele>
        <time>2021-08-10T06:27:42Z</time>
      </trkpt>
      <trkpt lat="48.74537" lon="4.5975">
        <ele>124.63</ele>
        <time>2021-08-10T06:27:47Z</time>
      </trkpt>
      <trkpt lat="48.74536" lon="4.59736">
        <ele>124.15</ele>
        <time>2021-08-10T06:27:53Z</time>
      </trkpt>
      <trkpt lat="48.74531" lon="4.59718">
        <ele>122.71</ele>
        <time>2021-08-10T06:27:59Z</time>
      </trkpt>
      <trkpt lat="48.74528" lon="4.59703">
        <ele>122.22</ele>
        <time>2021-08-10T06:28:04Z</time>
      </trkpt>
      <trkpt lat="48.74528" lon="4.597">
        <ele>122.22</ele>
        <time>2021-08-10T06:28:05Z</time>
      </trkpt>
      <trkpt lat="48.74527" lon="4.59697">
        <ele>122.22</ele>
        <time>2021-08-10T06:28:06Z</time>
      </trkpt>
      <trkpt lat="48.74526" lon="4.59684">
        <ele>122.22</ele>
        <time>2021-08-10T06:28:10Z</time>
      </trkpt>
      <trkpt lat="48.74525" lon="4.59681">
        <ele>122.22</ele>
        <time>2021-08-10T06:28:11Z</time>
      </trkpt>
      <trkpt lat="48.74523" lon="4.59677">
        <ele>122.22</ele>
        <time>2021-08-10T06:28:13Z</time>
      </trkpt>
      <trkpt lat="48.74521" lon="4.59674">
        <ele>122.22</ele>
        <time>2021-08-10T06:28:14Z</time>
      </trkpt>
      <trkpt lat="48.7452" lon="4.59672">
        <ele>122.22</ele>
        <time>2021-08-10T06:28:15Z</time>
      </trkpt>
      <trkpt lat="48.74519" lon="4.5967">
        <ele>122.22</ele>
        <time>2021-08-10T06:28:16Z</time>
      </trkpt>
      <trkpt lat="48.74518" lon="4.59668">
        <ele>121.74</ele>
        <time>2021-08-10T06:28:17Z</time>
      </trkpt>
      <trkpt lat="48.74517" lon="4.59665">
        <ele>121.26</ele>
        <time>2021-08-10T06:28:18Z</time>
      </trkpt>
      <trkpt lat="48.74516" lon="4.59662">
        <ele>121.26</ele>
        <time>2021-08-10T06:28:19Z</time>
      </trkpt>
      <trkpt lat="48.74516" lon="4.59659">
        <ele>120.3</ele>
        <time>2021-08-10T06:28:20Z</time>
      </trkpt>
      <trkpt lat="48.74515" lon="4.59655">
        <ele>120.3</ele>
        <time>2021-08-10T06:28:21Z</time>
      </trkpt>
      <trkpt lat="48.74514" lon="4.5965">
        <ele>119.82</ele>
        <time>2021-08-10T06:28:22Z</time>
      </trkpt>
      <trkpt lat="48.74513" lon="4.59642">
        <ele>119.34</ele>
        <time>2021-08-10T06:28:23Z</time>
      </trkpt>
      <trkpt lat="48.7451" lon="4.59627">
        <ele>119.34</ele>
        <time>2021-08-10T06:28:27Z</time>
      </trkpt>
      <trkpt lat="48.7451" lon="4.59624">
        <ele>119.34</ele>
        <time>2021-08-10T06:28:28Z</time>
      </trkpt>
      <trkpt lat="48.7451" lon="4.59621">
        <ele>119.34</ele>
        <time>2021-08-10T06:28:29Z</time>
      </trkpt>
      <trkpt lat="48.74508" lon="4.5961">
        <ele>119.34</ele>
        <time>2021-08-10T06:28:34Z</time>
      </trkpt>
      <trkpt lat="48.74508" lon="4.59608">
        <ele>119.34</ele>
        <time>2021-08-10T06:28:35Z</time>
      </trkpt>
      <trkpt lat="48.74505" lon="4.59594">
        <ele>115.98</ele>
        <time>2021-08-10T06:28:39Z</time>
      </trkpt>
      <trkpt lat="48.74503" lon="4.59573">
        <ele>113.57</ele>
        <time>2021-08-10T06:28:45Z</time>
      </trkpt>
      <trkpt lat="48.74501" lon="4.59564">
        <ele>115.98</ele>
        <time>2021-08-10T06:28:48Z</time>
      </trkpt>
      <trkpt lat="48.74499" lon="4.59558">
        <ele>115.98</ele>
        <time>2021-08-10T06:28:50Z</time>
      </trkpt>
      <trkpt lat="48.74499" lon="4.59555">
        <ele>115.98</ele>
        <time>2021-08-10T06:28:51Z</time>
      </trkpt>
      <trkpt lat="48.74499" lon="4.5955">
        <ele>114.53</ele>
        <time>2021-08-10T06:28:52Z</time>
      </trkpt>
      <trkpt lat="48.74499" lon="4.59544">
        <ele>114.05</ele>
        <time>2021-08-10T06:28:53Z</time>
      </trkpt>
      <trkpt lat="48.745" lon="4.59539">
        <ele>114.05</ele>
        <time>2021-08-10T06:28:54Z</time>
      </trkpt>
      <trkpt lat="48.74499" lon="4.59532">
        <ele>114.05</ele>
        <time>2021-08-10T06:28:55Z</time>
      </trkpt>
      <trkpt lat="48.74498" lon="4.59528">
        <ele>113.09</ele>
        <time>2021-08-10T06:28:56Z</time>
      </trkpt>
      <trkpt lat="48.74498" lon="4.59523">
        <ele>112.61</ele>
        <time>2021-08-10T06:28:57Z</time>
      </trkpt>
      <trkpt lat="48.74497" lon="4.59519">
        <ele>111.17</ele>
        <time>2021-08-10T06:28:58Z</time>
      </trkpt>
      <trkpt lat="48.74496" lon="4.59515">
        <ele>110.69</ele>
        <time>2021-08-10T06:28:59Z</time>
      </trkpt>
      <trkpt lat="48.74495" lon="4.59511">
        <ele>109.73</ele>
        <time>2021-08-10T06:29:00Z</time>
      </trkpt>
      <trkpt lat="48.74494" lon="4.59508">
        <ele>108.77</ele>
        <time>2021-08-10T06:29:01Z</time>
      </trkpt>
      <trkpt lat="48.74493" lon="4.59503">
        <ele>107.81</ele>
        <time>2021-08-10T06:29:02Z</time>
      </trkpt>
      <trkpt lat="48.74492" lon="4.59499">
        <ele>107.32</ele>
        <time>2021-08-10T06:29:03Z</time>
      </trkpt>
      <trkpt lat="48.74492" lon="4.59495">
        <ele>106.36</ele>
        <time>2021-08-10T06:29:04Z</time>
      </trkpt>
      <trkpt lat="48.74491" lon="4.59491">
        <ele>106.36</ele>
        <time>2021-08-10T06:29:05Z</time>
      </trkpt>
      <trkpt lat="48.74491" lon="4.59487">
        <ele>105.88</ele>
        <time>2021-08-10T06:29:06Z</time>
      </trkpt>
      <trkpt lat="48.74492" lon="4.59483">
        <ele>105.4</ele>
        <time>2021-08-10T06:29:07Z</time>
      </trkpt>
      <trkpt lat="48.74492" lon="4.5948">
        <ele>104.92</ele>
        <time>2021-08-10T06:29:08Z</time>
      </trkpt>
      <trkpt lat="48.74489" lon="4.59474">
        <ele>104.44</ele>
        <time>2021-08-10T06:29:11Z</time>
      </trkpt>
      <trkpt lat="48.74487" lon="4.59474">
        <ele>103</ele>
        <time>2021-08-10T06:29:12Z</time>
      </trkpt>
      <trkpt lat="48.74484" lon="4.59473">
        <ele>101.56</ele>
        <time>2021-08-10T06:29:13Z</time>
      </trkpt>
      <trkpt lat="48.7448" lon="4.59472">
        <ele>101.08</ele>
        <time>2021-08-10T06:29:14Z</time>
      </trkpt>
      <trkpt lat="48.74477" lon="4.5947">
        <ele>101.08</ele>
        <time>2021-08-10T06:29:15Z</time>
      </trkpt>
      <trkpt lat="48.74473" lon="4.59469">
        <ele>101.08</ele>
        <time>2021-08-10T06:29:16Z</time>
      </trkpt>
      <trkpt lat="48.7447" lon="4.5947">
        <ele>101.08</ele>
        <time>2021-08-10T06:29:17Z</time>
      </trkpt>
      <trkpt lat="48.74468" lon="4.59469">
        <ele>101.08</ele>
        <time>2021-08-10T06:29:18Z</time>
      </trkpt>
      <trkpt lat="48.74467" lon="4.59467">
        <ele>101.08</ele>
        <time>2021-08-10T06:29:19Z</time>
      </trkpt>
      <trkpt lat="48.74465" lon="4.59464">
        <ele>101.08</ele>
        <time>2021-08-10T06:29:20Z</time>
      </trkpt>
      <trkpt lat="48.74464" lon="4.59459">
        <ele>101.08</ele>
        <time>2021-08-10T06:29:21Z</time>
      </trkpt>
      <trkpt lat="48.74458" lon="4.59433">
        <ele>101.56</ele>
        <time>2021-08-10T06:29:29Z</time>
      </trkpt>
      <trkpt lat="48.74453" lon="4.59424">
        <ele>102.52</ele>
        <time>2021-08-10T06:29:32Z</time>
      </trkpt>
      <trkpt lat="48.74439" lon="4.59407">
        <ele>103.48</ele>
        <time>2021-08-10T06:29:40Z</time>
      </trkpt>
      <trkpt lat="48.74438" lon="4.59406">
        <ele>103.96</ele>
        <time>2021-08-10T06:29:41Z</time>
      </trkpt>
      <trkpt lat="48.74417" lon="4.59399">
        <ele>105.4</ele>
        <time>2021-08-10T06:29:50Z</time>
      </trkpt>
      <trkpt lat="48.74398" lon="4.5939">
        <ele>106.36</ele>
        <time>2021-08-10T06:29:57Z</time>
      </trkpt>
      <trkpt lat="48.74397" lon="4.59388">
        <ele>106.36</ele>
        <time>2021-08-10T06:29:58Z</time>
      </trkpt>
      <trkpt lat="48.74396" lon="4.59385">
        <ele>106.36</ele>
        <time>2021-08-10T06:29:59Z</time>
      </trkpt>
      <trkpt lat="48.74396" lon="4.59382">
        <ele>106.36</ele>
        <time>2021-08-10T06:30:00Z</time>
      </trkpt>
      <trkpt lat="48.74396" lon="4.5938">
        <ele>106.84</ele>
        <time>2021-08-10T06:30:01Z</time>
      </trkpt>
      <trkpt lat="48.74395" lon="4.59377">
        <ele>106.84</ele>
        <time>2021-08-10T06:30:07Z</time>
      </trkpt>
      <trkpt lat="48.74394" lon="4.59376">
        <ele>107.81</ele>
        <time>2021-08-10T06:30:22Z</time>
      </trkpt>
      <trkpt lat="48.74394" lon="4.59373">
        <ele>107.81</ele>
        <time>2021-08-10T06:30:38Z</time>
      </trkpt>
      <trkpt lat="48.74395" lon="4.59371">
        <ele>107.81</ele>
        <time>2021-08-10T06:30:55Z</time>
      </trkpt>
      <trkpt lat="48.74394" lon="4.59371">
        <ele>107.81</ele>
        <time>2021-08-10T06:31:05Z</time>
      </trkpt>
      <trkpt lat="48.74394" lon="4.59364">
        <ele>107.81</ele>
        <time>2021-08-10T06:31:13Z</time>
      </trkpt>
      <trkpt lat="48.74405" lon="4.59336">
        <ele>106.84</ele>
        <time>2021-08-10T06:31:21Z</time>
      </trkpt>
      <trkpt lat="48.74409" lon="4.59334">
        <ele>106.84</ele>
        <time>2021-08-10T06:31:22Z</time>
      </trkpt>
      <trkpt lat="48.74413" lon="4.59334">
        <ele>106.36</ele>
        <time>2021-08-10T06:31:23Z</time>
      </trkpt>
      <trkpt lat="48.74417" lon="4.59334">
        <ele>106.36</ele>
        <time>2021-08-10T06:31:24Z</time>
      </trkpt>
      <trkpt lat="48.74422" lon="4.59335">
        <ele>105.88</ele>
        <time>2021-08-10T06:31:25Z</time>
      </trkpt>
      <trkpt lat="48.74437" lon="4.59335">
        <ele>104.92</ele>
        <time>2021-08-10T06:31:28Z</time>
      </trkpt>
      <trkpt lat="48.74443" lon="4.59334">
        <ele>104.44</ele>
        <time>2021-08-10T06:31:29Z</time>
      </trkpt>
      <trkpt lat="48.74449" lon="4.59333">
        <ele>103.96</ele>
        <time>2021-08-10T06:31:30Z</time>
      </trkpt>
      <trkpt lat="48.74455" lon="4.5933">
        <ele>103.48</ele>
        <time>2021-08-10T06:31:31Z</time>
      </trkpt>
      <trkpt lat="48.74461" lon="4.59327">
        <ele>103.48</ele>
        <time>2021-08-10T06:31:32Z</time>
      </trkpt>
      <trkpt lat="48.74467" lon="4.59322">
        <ele>103</ele>
        <time>2021-08-10T06:31:33Z</time>
      </trkpt>
      <trkpt lat="48.74472" lon="4.59315">
        <ele>102.52</ele>
        <time>2021-08-10T06:31:34Z</time>
      </trkpt>
      <trkpt lat="48.74476" lon="4.59307">
        <ele>102.04</ele>
        <time>2021-08-10T06:31:35Z</time>
      </trkpt>
      <trkpt lat="48.7448" lon="4.59298">
        <ele>102.04</ele>
        <time>2021-08-10T06:31:36Z</time>
      </trkpt>
      <trkpt lat="48.74483" lon="4.59289">
        <ele>101.56</ele>
        <time>2021-08-10T06:31:37Z</time>
      </trkpt>
      <trkpt lat="48.74485" lon="4.59279">
        <ele>101.08</ele>
        <time>2021-08-10T06:31:38Z</time>
      </trkpt>
      <trkpt lat="48.74487" lon="4.59269">
        <ele>101.08</ele>
        <time>2021-08-10T06:31:39Z</time>
      </trkpt>
      <trkpt lat="48.74495" lon="4.59212">
        <ele>100.6</ele>
        <time>2021-08-10T06:31:45Z</time>
      </trkpt>
      <trkpt lat="48.74495" lon="4.59202">
        <ele>100.6</ele>
        <time>2021-08-10T06:31:46Z</time>
      </trkpt>
      <trkpt lat="48.74497" lon="4.59149">
        <ele>100.6</ele>
        <time>2021-08-10T06:31:52Z</time>
      </trkpt>
      <trkpt lat="48.74498" lon="4.5914">
        <ele>100.6</ele>
        <time>2021-08-10T06:31:53Z</time>
      </trkpt>
      <trkpt lat="48.745" lon="4.59132">
        <ele>100.6</ele>
        <time>2021-08-10T06:31:54Z</time>
      </trkpt>
      <trkpt lat="48.74507" lon="4.59108">
        <ele>100.6</ele>
        <time>2021-08-10T06:31:57Z</time>
      </trkpt>
      <trkpt lat="48.74538" lon="4.59025">
        <ele>100.11</ele>
        <time>2021-08-10T06:32:08Z</time>
      </trkpt>
      <trkpt lat="48.74552" lon="4.58959">
        <ele>100.11</ele>
        <time>2021-08-10T06:32:16Z</time>
      </trkpt>
      <trkpt lat="48.7456" lon="4.58882">
        <ele>100.11</ele>
        <time>2021-08-10T06:32:25Z</time>
      </trkpt>
      <trkpt lat="48.74572" lon="4.58809">
        <ele>100.11</ele>
        <time>2021-08-10T06:32:34Z</time>
      </trkpt>
      <trkpt lat="48.74577" lon="4.58786">
        <ele>100.11</ele>
        <time>2021-08-10T06:32:37Z</time>
      </trkpt>
      <trkpt lat="48.74579" lon="4.58772">
        <ele>100.11</ele>
        <time>2021-08-10T06:32:39Z</time>
      </trkpt>
      <trkpt lat="48.7458" lon="4.58763">
        <ele>100.11</ele>
        <time>2021-08-10T06:32:40Z</time>
      </trkpt>
      <trkpt lat="48.74581" lon="4.58728">
        <ele>101.08</ele>
        <time>2021-08-10T06:32:45Z</time>
      </trkpt>
      <trkpt lat="48.74583" lon="4.58665">
        <ele>101.56</ele>
        <time>2021-08-10T06:32:55Z</time>
      </trkpt>
      <trkpt lat="48.7458" lon="4.5866">
        <ele>102.04</ele>
        <time>2021-08-10T06:32:56Z</time>
      </trkpt>
      <trkpt lat="48.74577" lon="4.58658">
        <ele>102.04</ele>
        <time>2021-08-10T06:32:57Z</time>
      </trkpt>
      <trkpt lat="48.74573" lon="4.58656">
        <ele>102.52</ele>
        <time>2021-08-10T06:32:58Z</time>
      </trkpt>
      <trkpt lat="48.7457" lon="4.58655">
        <ele>102.52</ele>
        <time>2021-08-10T06:32:59Z</time>
      </trkpt>
      <trkpt lat="48.74565" lon="4.58653">
        <ele>102.52</ele>
        <time>2021-08-10T06:33:00Z</time>
      </trkpt>
      <trkpt lat="48.74528" lon="4.58636">
        <ele>102.52</ele>
        <time>2021-08-10T06:33:08Z</time>
      </trkpt>
      <trkpt lat="48.74524" lon="4.58634">
        <ele>102.52</ele>
        <time>2021-08-10T06:33:09Z</time>
      </trkpt>
      <trkpt lat="48.74494" lon="4.58619">
        <ele>101.08</ele>
        <time>2021-08-10T06:33:15Z</time>
      </trkpt>
      <trkpt lat="48.74491" lon="4.58614">
        <ele>100.6</ele>
        <time>2021-08-10T06:33:16Z</time>
      </trkpt>
      <trkpt lat="48.74471" lon="4.58585">
        <ele>100.6</ele>
        <time>2021-08-10T06:33:23Z</time>
      </trkpt>
      <trkpt lat="48.74468" lon="4.58581">
        <ele>100.6</ele>
        <time>2021-08-10T06:33:24Z</time>
      </trkpt>
      <trkpt lat="48.74465" lon="4.58578">
        <ele>100.6</ele>
        <time>2021-08-10T06:33:25Z</time>
      </trkpt>
      <trkpt lat="48.74458" lon="4.58572">
        <ele>100.6</ele>
        <time>2021-08-10T06:33:27Z</time>
      </trkpt>
      <trkpt lat="48.74437" lon="4.58554">
        <ele>102.04</ele>
        <time>2021-08-10T06:33:33Z</time>
      </trkpt>
      <trkpt lat="48.74408" lon="4.58532">
        <ele>102.52</ele>
        <time>2021-08-10T06:33:41Z</time>
      </trkpt>
      <trkpt lat="48.74404" lon="4.5853">
        <ele>102.52</ele>
        <time>2021-08-10T06:33:42Z</time>
      </trkpt>
      <trkpt lat="48.744" lon="4.58528">
        <ele>102.52</ele>
        <time>2021-08-10T06:33:43Z</time>
      </trkpt>
      <trkpt lat="48.74396" lon="4.58527">
        <ele>102.52</ele>
        <time>2021-08-10T06:33:44Z</time>
      </trkpt>
      <trkpt lat="48.74392" lon="4.58526">
        <ele>103</ele>
        <time>2021-08-10T06:33:45Z</time>
      </trkpt>
      <trkpt lat="48.74387" lon="4.58526">
        <ele>103</ele>
        <time>2021-08-10T06:33:46Z</time>
      </trkpt>
      <trkpt lat="48.74351" lon="4.58527">
        <ele>103</ele>
        <time>2021-08-10T06:33:54Z</time>
      </trkpt>
      <trkpt lat="48.74342" lon="4.58526">
        <ele>103</ele>
        <time>2021-08-10T06:33:56Z</time>
      </trkpt>
      <trkpt lat="48.74338" lon="4.58524">
        <ele>103</ele>
        <time>2021-08-10T06:33:57Z</time>
      </trkpt>
      <trkpt lat="48.74334" lon="4.58522">
        <ele>103</ele>
        <time>2021-08-10T06:33:58Z</time>
      </trkpt>
      <trkpt lat="48.74324" lon="4.58513">
        <ele>103.96</ele>
        <time>2021-08-10T06:34:02Z</time>
      </trkpt>
      <trkpt lat="48.74323" lon="4.58509">
        <ele>103.96</ele>
        <time>2021-08-10T06:34:03Z</time>
      </trkpt>
      <trkpt lat="48.74323" lon="4.58504">
        <ele>104.44</ele>
        <time>2021-08-10T06:34:04Z</time>
      </trkpt>
      <trkpt lat="48.74323" lon="4.585">
        <ele>104.44</ele>
        <time>2021-08-10T06:34:05Z</time>
      </trkpt>
      <trkpt lat="48.74323" lon="4.58494">
        <ele>104.44</ele>
        <time>2021-08-10T06:34:06Z</time>
      </trkpt>
      <trkpt lat="48.74322" lon="4.58482">
        <ele>104.44</ele>
        <time>2021-08-10T06:34:09Z</time>
      </trkpt>
      <trkpt lat="48.74319" lon="4.5848">
        <ele>104.44</ele>
        <time>2021-08-10T06:34:10Z</time>
      </trkpt>
      <trkpt lat="48.74315" lon="4.58479">
        <ele>104.44</ele>
        <time>2021-08-10T06:34:11Z</time>
      </trkpt>
      <trkpt lat="48.74313" lon="4.5848">
        <ele>104.44</ele>
        <time>2021-08-10T06:34:12Z</time>
      </trkpt>
      <trkpt lat="48.7431" lon="4.5848">
        <ele>104.44</ele>
        <time>2021-08-10T06:34:13Z</time>
      </trkpt>
      <trkpt lat="48.74306" lon="4.5848">
        <ele>104.44</ele>
        <time>2021-08-10T06:34:14Z</time>
      </trkpt>
      <trkpt lat="48.74275" lon="4.58482">
        <ele>103.48</ele>
        <time>2021-08-10T06:34:22Z</time>
      </trkpt>
      <trkpt lat="48.74236" lon="4.58481">
        <ele>103.48</ele>
        <time>2021-08-10T06:34:31Z</time>
      </trkpt>
      <trkpt lat="48.74232" lon="4.5848">
        <ele>103.48</ele>
        <time>2021-08-10T06:34:32Z</time>
      </trkpt>
      <trkpt lat="48.74227" lon="4.5848">
        <ele>103.48</ele>
        <time>2021-08-10T06:34:33Z</time>
      </trkpt>
      <trkpt lat="48.74223" lon="4.5848">
        <ele>103.48</ele>
        <time>2021-08-10T06:34:34Z</time>
      </trkpt>
      <trkpt lat="48.74218" lon="4.58482">
        <ele>103.48</ele>
        <time>2021-08-10T06:34:35Z</time>
      </trkpt>
      <trkpt lat="48.74212" lon="4.58486">
        <ele>103.48</ele>
        <time>2021-08-10T06:34:36Z</time>
      </trkpt>
      <trkpt lat="48.74201" lon="4.58486">
        <ele>103.48</ele>
        <time>2021-08-10T06:34:39Z</time>
      </trkpt>
      <trkpt lat="48.74185" lon="4.58487">
        <ele>103.48</ele>
        <time>2021-08-10T06:34:44Z</time>
      </trkpt>
      <trkpt lat="48.74144" lon="4.58483">
        <ele>103.48</ele>
        <time>2021-08-10T06:34:54Z</time>
      </trkpt>
      <trkpt lat="48.74113" lon="4.58481">
        <ele>103.48</ele>
        <time>2021-08-10T06:35:01Z</time>
      </trkpt>
      <trkpt lat="48.74078" lon="4.5848">
        <ele>103.48</ele>
        <time>2021-08-10T06:35:08Z</time>
      </trkpt>
      <trkpt lat="48.74046" lon="4.58481">
        <ele>103.48</ele>
        <time>2021-08-10T06:35:15Z</time>
      </trkpt>
      <trkpt lat="48.74042" lon="4.58481">
        <ele>103.48</ele>
        <time>2021-08-10T06:35:16Z</time>
      </trkpt>
      <trkpt lat="48.73996" lon="4.5848">
        <ele>103</ele>
        <time>2021-08-10T06:35:25Z</time>
      </trkpt>
      <trkpt lat="48.73951" lon="4.58481">
        <ele>103</ele>
        <time>2021-08-10T06:35:34Z</time>
      </trkpt>
      <trkpt lat="48.73913" lon="4.5848">
        <ele>103</ele>
        <time>2021-08-10T06:35:42Z</time>
      </trkpt>
      <trkpt lat="48.73876" lon="4.58478">
        <ele>103</ele>
        <time>2021-08-10T06:35:50Z</time>
      </trkpt>
      <trkpt lat="48.73836" lon="4.58477">
        <ele>103</ele>
        <time>2021-08-10T06:35:59Z</time>
      </trkpt>
      <trkpt lat="48.73809" lon="4.58477">
        <ele>103</ele>
        <time>2021-08-10T06:36:05Z</time>
      </trkpt>
      <trkpt lat="48.73758" lon="4.58476">
        <ele>103</ele>
        <time>2021-08-10T06:36:16Z</time>
      </trkpt>
      <trkpt lat="48.73717" lon="4.58476">
        <ele>103</ele>
        <time>2021-08-10T06:36:25Z</time>
      </trkpt>
      <trkpt lat="48.73678" lon="4.58474">
        <ele>103.48</ele>
        <time>2021-08-10T06:36:33Z</time>
      </trkpt>
      <trkpt lat="48.7364" lon="4.58473">
        <ele>103.48</ele>
        <time>2021-08-10T06:36:41Z</time>
      </trkpt>
      <trkpt lat="48.7361" lon="4.58471">
        <ele>103.48</ele>
        <time>2021-08-10T06:36:48Z</time>
      </trkpt>
      <trkpt lat="48.73573" lon="4.58471">
        <ele>103.48</ele>
        <time>2021-08-10T06:36:56Z</time>
      </trkpt>
      <trkpt lat="48.73548" lon="4.5847">
        <ele>103.48</ele>
        <time>2021-08-10T06:37:02Z</time>
      </trkpt>
      <trkpt lat="48.7352" lon="4.5847">
        <ele>103.48</ele>
        <time>2021-08-10T06:37:08Z</time>
      </trkpt>
      <trkpt lat="48.73516" lon="4.5847">
        <ele>103.48</ele>
        <time>2021-08-10T06:37:09Z</time>
      </trkpt>
      <trkpt lat="48.7349" lon="4.58468">
        <ele>103.48</ele>
        <time>2021-08-10T06:37:15Z</time>
      </trkpt>
      <trkpt lat="48.73485" lon="4.58467">
        <ele>103.48</ele>
        <time>2021-08-10T06:37:16Z</time>
      </trkpt>
      <trkpt lat="48.73451" lon="4.58465">
        <ele>103.48</ele>
        <time>2021-08-10T06:37:23Z</time>
      </trkpt>
      <trkpt lat="48.73446" lon="4.58466">
        <ele>103.48</ele>
        <time>2021-08-10T06:37:24Z</time>
      </trkpt>
      <trkpt lat="48.73442" lon="4.58466">
        <ele>103.48</ele>
        <time>2021-08-10T06:37:25Z</time>
      </trkpt>
      <trkpt lat="48.73417" lon="4.58464">
        <ele>103.48</ele>
        <time>2021-08-10T06:37:30Z</time>
      </trkpt>
      <trkpt lat="48.73369" lon="4.58464">
        <ele>103</ele>
        <time>2021-08-10T06:37:40Z</time>
      </trkpt>
      <trkpt lat="48.7336" lon="4.58465">
        <ele>103</ele>
        <time>2021-08-10T06:37:42Z</time>
      </trkpt>
      <trkpt lat="48.73356" lon="4.58466">
        <ele>103</ele>
        <time>2021-08-10T06:37:43Z</time>
      </trkpt>
      <trkpt lat="48.73352" lon="4.58466">
        <ele>103</ele>
        <time>2021-08-10T06:37:44Z</time>
      </trkpt>
      <trkpt lat="48.73339" lon="4.58469">
        <ele>103</ele>
        <time>2021-08-10T06:37:48Z</time>
      </trkpt>
      <trkpt lat="48.73338" lon="4.58471">
        <ele>103</ele>
        <time>2021-08-10T06:37:49Z</time>
      </trkpt>
      <trkpt lat="48.73338" lon="4.58474">
        <ele>103</ele>
        <time>2021-08-10T06:37:50Z</time>
      </trkpt>
      <trkpt lat="48.73339" lon="4.58478">
        <ele>103</ele>
        <time>2021-08-10T06:37:51Z</time>
      </trkpt>
      <trkpt lat="48.73339" lon="4.58482">
        <ele>103</ele>
        <time>2021-08-10T06:37:52Z</time>
      </trkpt>
      <trkpt lat="48.73339" lon="4.58486">
        <ele>103</ele>
        <time>2021-08-10T06:37:53Z</time>
      </trkpt>
      <trkpt lat="48.73337" lon="4.5849">
        <ele>103</ele>
        <time>2021-08-10T06:37:54Z</time>
      </trkpt>
      <trkpt lat="48.73335" lon="4.58491">
        <ele>103</ele>
        <time>2021-08-10T06:37:55Z</time>
      </trkpt>
      <trkpt lat="48.73332" lon="4.5849">
        <ele>103</ele>
        <time>2021-08-10T06:37:56Z</time>
      </trkpt>
      <trkpt lat="48.7333" lon="4.5849">
        <ele>103</ele>
        <time>2021-08-10T06:37:57Z</time>
      </trkpt>
      <trkpt lat="48.73326" lon="4.5849">
        <ele>103</ele>
        <time>2021-08-10T06:37:58Z</time>
      </trkpt>
      <trkpt lat="48.73305" lon="4.58489">
        <ele>103</ele>
        <time>2021-08-10T06:38:04Z</time>
      </trkpt>
      <trkpt lat="48.7328" lon="4.58484">
        <ele>103</ele>
        <time>2021-08-10T06:38:11Z</time>
      </trkpt>
      <trkpt lat="48.73276" lon="4.58485">
        <ele>103</ele>
        <time>2021-08-10T06:38:12Z</time>
      </trkpt>
      <trkpt lat="48.73273" lon="4.58488">
        <ele>103</ele>
        <time>2021-08-10T06:38:13Z</time>
      </trkpt>
      <trkpt lat="48.73271" lon="4.5849">
        <ele>103</ele>
        <time>2021-08-10T06:38:14Z</time>
      </trkpt>
      <trkpt lat="48.73269" lon="4.58494">
        <ele>103</ele>
        <time>2021-08-10T06:38:15Z</time>
      </trkpt>
      <trkpt lat="48.73265" lon="4.58498">
        <ele>103</ele>
        <time>2021-08-10T06:38:16Z</time>
      </trkpt>
      <trkpt lat="48.73262" lon="4.585">
        <ele>103</ele>
        <time>2021-08-10T06:38:17Z</time>
      </trkpt>
      <trkpt lat="48.73258" lon="4.58501">
        <ele>103</ele>
        <time>2021-08-10T06:38:18Z</time>
      </trkpt>
      <trkpt lat="48.73255" lon="4.58502">
        <ele>103</ele>
        <time>2021-08-10T06:38:19Z</time>
      </trkpt>
      <trkpt lat="48.73251" lon="4.58503">
        <ele>103</ele>
        <time>2021-08-10T06:38:20Z</time>
      </trkpt>
      <trkpt lat="48.73247" lon="4.58503">
        <ele>103</ele>
        <time>2021-08-10T06:38:21Z</time>
      </trkpt>
      <trkpt lat="48.73243" lon="4.58503">
        <ele>103</ele>
        <time>2021-08-10T06:38:22Z</time>
      </trkpt>
      <trkpt lat="48.73199" lon="4.58511">
        <ele>103</ele>
        <time>2021-08-10T06:38:32Z</time>
      </trkpt>
      <trkpt lat="48.73191" lon="4.58513">
        <ele>103</ele>
        <time>2021-08-10T06:38:34Z</time>
      </trkpt>
      <trkpt lat="48.73187" lon="4.58512">
        <ele>103</ele>
        <time>2021-08-10T06:38:35Z</time>
      </trkpt>
      <trkpt lat="48.73184" lon="4.58511">
        <ele>103</ele>
        <time>2021-08-10T06:38:36Z</time>
      </trkpt>
      <trkpt lat="48.73179" lon="4.5851">
        <ele>103</ele>
        <time>2021-08-10T06:38:37Z</time>
      </trkpt>
      <trkpt lat="48.73175" lon="4.58509">
        <ele>103</ele>
        <time>2021-08-10T06:38:38Z</time>
      </trkpt>
      <trkpt lat="48.73167" lon="4.58508">
        <ele>103</ele>
        <time>2021-08-10T06:38:40Z</time>
      </trkpt>
      <trkpt lat="48.73164" lon="4.58508">
        <ele>103</ele>
        <time>2021-08-10T06:38:41Z</time>
      </trkpt>
      <trkpt lat="48.73156" lon="4.58512">
        <ele>103</ele>
        <time>2021-08-10T06:38:43Z</time>
      </trkpt>
      <trkpt lat="48.73118" lon="4.58532">
        <ele>103</ele>
        <time>2021-08-10T06:38:52Z</time>
      </trkpt>
      <trkpt lat="48.73075" lon="4.5856">
        <ele>103</ele>
        <time>2021-08-10T06:39:03Z</time>
      </trkpt>
      <trkpt lat="48.73054" lon="4.58581">
        <ele>103</ele>
        <time>2021-08-10T06:39:10Z</time>
      </trkpt>
      <trkpt lat="48.73044" lon="4.586">
        <ele>103</ele>
        <time>2021-08-10T06:39:14Z</time>
      </trkpt>
      <trkpt lat="48.7304" lon="4.58605">
        <ele>103</ele>
        <time>2021-08-10T06:39:15Z</time>
      </trkpt>
      <trkpt lat="48.73036" lon="4.58607">
        <ele>103</ele>
        <time>2021-08-10T06:39:16Z</time>
      </trkpt>
      <trkpt lat="48.73032" lon="4.58607">
        <ele>103</ele>
        <time>2021-08-10T06:39:17Z</time>
      </trkpt>
      <trkpt lat="48.73029" lon="4.58606">
        <ele>103</ele>
        <time>2021-08-10T06:39:18Z</time>
      </trkpt>
      <trkpt lat="48.73024" lon="4.58604">
        <ele>103</ele>
        <time>2021-08-10T06:39:19Z</time>
      </trkpt>
      <trkpt lat="48.7302" lon="4.58603">
        <ele>103</ele>
        <time>2021-08-10T06:39:20Z</time>
      </trkpt>
      <trkpt lat="48.73003" lon="4.58593">
        <ele>103</ele>
        <time>2021-08-10T06:39:24Z</time>
      </trkpt>
      <trkpt lat="48.72975" lon="4.58566">
        <ele>103</ele>
        <time>2021-08-10T06:39:32Z</time>
      </trkpt>
      <trkpt lat="48.72967" lon="4.58554">
        <ele>103.96</ele>
        <time>2021-08-10T06:39:38Z</time>
      </trkpt>
      <trkpt lat="48.72967" lon="4.58555">
        <ele>103.96</ele>
        <time>2021-08-10T06:39:40Z</time>
      </trkpt>
      <trkpt lat="48.72966" lon="4.58555">
        <ele>103.96</ele>
        <time>2021-08-10T06:39:44Z</time>
      </trkpt>
      <trkpt lat="48.72969" lon="4.58557">
        <ele>103.96</ele>
        <time>2021-08-10T06:40:04Z</time>
      </trkpt>
      <trkpt lat="48.72968" lon="4.58556">
        <ele>103.96</ele>
        <time>2021-08-10T06:40:15Z</time>
      </trkpt>
      <trkpt lat="48.72954" lon="4.58546">
        <ele>103.96</ele>
        <time>2021-08-10T06:40:21Z</time>
      </trkpt>
      <trkpt lat="48.7294" lon="4.58547">
        <ele>103.96</ele>
        <time>2021-08-10T06:40:25Z</time>
      </trkpt>
      <trkpt lat="48.72938" lon="4.5855">
        <ele>103.96</ele>
        <time>2021-08-10T06:40:26Z</time>
      </trkpt>
      <trkpt lat="48.72936" lon="4.58554">
        <ele>103.96</ele>
        <time>2021-08-10T06:40:27Z</time>
      </trkpt>
      <trkpt lat="48.72934" lon="4.58556">
        <ele>103.96</ele>
        <time>2021-08-10T06:40:28Z</time>
      </trkpt>
      <trkpt lat="48.72931" lon="4.58556">
        <ele>103.96</ele>
        <time>2021-08-10T06:40:29Z</time>
      </trkpt>
      <trkpt lat="48.72927" lon="4.58556">
        <ele>103.96</ele>
        <time>2021-08-10T06:40:30Z</time>
      </trkpt>
      <trkpt lat="48.72924" lon="4.58557">
        <ele>103.96</ele>
        <time>2021-08-10T06:40:31Z</time>
      </trkpt>
      <trkpt lat="48.72922" lon="4.58558">
        <ele>103.96</ele>
        <time>2021-08-10T06:40:32Z</time>
      </trkpt>
      <trkpt lat="48.7292" lon="4.5856">
        <ele>104.92</ele>
        <time>2021-08-10T06:40:33Z</time>
      </trkpt>
      <trkpt lat="48.72918" lon="4.58562">
        <ele>104.92</ele>
        <time>2021-08-10T06:40:34Z</time>
      </trkpt>
      <trkpt lat="48.72917" lon="4.58566">
        <ele>104.92</ele>
        <time>2021-08-10T06:40:40Z</time>
      </trkpt>
      <trkpt lat="48.72918" lon="4.58568">
        <ele>104.92</ele>
        <time>2021-08-10T06:40:51Z</time>
      </trkpt>
      <trkpt lat="48.72926" lon="4.58591">
        <ele>104.92</ele>
        <time>2021-08-10T06:41:07Z</time>
      </trkpt>
      <trkpt lat="48.72944" lon="4.58608">
        <ele>104.92</ele>
        <time>2021-08-10T06:41:26Z</time>
      </trkpt>
      <trkpt lat="48.72941" lon="4.58612">
        <ele>104.92</ele>
        <time>2021-08-10T06:41:41Z</time>
      </trkpt>
      <trkpt lat="48.72934" lon="4.58606">
        <ele>105.4</ele>
        <time>2021-08-10T06:41:59Z</time>
      </trkpt>
      <trkpt lat="48.72938" lon="4.58603">
        <ele>105.4</ele>
        <time>2021-08-10T06:42:15Z</time>
      </trkpt>
      <trkpt lat="48.72938" lon="4.586">
        <ele>105.4</ele>
        <time>2021-08-10T06:42:27Z</time>
      </trkpt>
      <trkpt lat="48.72938" lon="4.58599">
        <ele>105.4</ele>
        <time>2021-08-10T06:42:42Z</time>
      </trkpt>
      <trkpt lat="48.72942" lon="4.58612">
        <ele>105.4</ele>
        <time>2021-08-10T06:42:55Z</time>
      </trkpt>
      <trkpt lat="48.72942" lon="4.58614">
        <ele>105.88</ele>
        <time>2021-08-10T06:43:08Z</time>
      </trkpt>
      <trkpt lat="48.72941" lon="4.58607">
        <ele>105.88</ele>
        <time>2021-08-10T06:43:25Z</time>
      </trkpt>
      <trkpt lat="48.7294" lon="4.58609">
        <ele>105.88</ele>
        <time>2021-08-10T06:43:43Z</time>
      </trkpt>
      <trkpt lat="48.72945" lon="4.58615">
        <ele>106.36</ele>
        <time>2021-08-10T06:44:00Z</time>
      </trkpt>
      <trkpt lat="48.72945" lon="4.58603">
        <ele>106.36</ele>
        <time>2021-08-10T06:44:12Z</time>
      </trkpt>
      <trkpt lat="48.72945" lon="4.58589">
        <ele>106.36</ele>
        <time>2021-08-10T06:44:13Z</time>
      </trkpt>
      <trkpt lat="48.7294" lon="4.58583">
        <ele>106.36</ele>
        <time>2021-08-10T06:44:14Z</time>
      </trkpt>
      <trkpt lat="48.72937" lon="4.58579">
        <ele>106.36</ele>
        <time>2021-08-10T06:44:15Z</time>
      </trkpt>
      <trkpt lat="48.72938" lon="4.58574">
        <ele>106.36</ele>
        <time>2021-08-10T06:44:17Z</time>
      </trkpt>
      <trkpt lat="48.72938" lon="4.58545">
        <ele>106.36</ele>
        <time>2021-08-10T06:44:22Z</time>
      </trkpt>
      <trkpt lat="48.72941" lon="4.58548">
        <ele>106.36</ele>
        <time>2021-08-10T06:44:23Z</time>
      </trkpt>
      <trkpt lat="48.72943" lon="4.58552">
        <ele>106.36</ele>
        <time>2021-08-10T06:44:24Z</time>
      </trkpt>
      <trkpt lat="48.72944" lon="4.58554">
        <ele>106.36</ele>
        <time>2021-08-10T06:44:25Z</time>
      </trkpt>
      <trkpt lat="48.72947" lon="4.58557">
        <ele>106.36</ele>
        <time>2021-08-10T06:44:26Z</time>
      </trkpt>
      <trkpt lat="48.72953" lon="4.58561">
        <ele>106.36</ele>
        <time>2021-08-10T06:44:28Z</time>
      </trkpt>
      <trkpt lat="48.72958" lon="4.5856">
        <ele>106.36</ele>
        <time>2021-08-10T06:44:29Z</time>
      </trkpt>
      <trkpt lat="48.72961" lon="4.58557">
        <ele>106.36</ele>
        <time>2021-08-10T06:44:30Z</time>
      </trkpt>
      <trkpt lat="48.72964" lon="4.58554">
        <ele>106.36</ele>
        <time>2021-08-10T06:44:31Z</time>
      </trkpt>
      <trkpt lat="48.72966" lon="4.58548">
        <ele>105.4</ele>
        <time>2021-08-10T06:44:32Z</time>
      </trkpt>
      <trkpt lat="48.72968" lon="4.58541">
        <ele>105.4</ele>
        <time>2021-08-10T06:44:33Z</time>
      </trkpt>
      <trkpt lat="48.72972" lon="4.58527">
        <ele>105.4</ele>
        <time>2021-08-10T06:44:35Z</time>
      </trkpt>
      <trkpt lat="48.72989" lon="4.58485">
        <ele>104.44</ele>
        <time>2021-08-10T06:44:41Z</time>
      </trkpt>
      <trkpt lat="48.73017" lon="4.58417">
        <ele>104.44</ele>
        <time>2021-08-10T06:44:50Z</time>
      </trkpt>
      <trkpt lat="48.73042" lon="4.58348">
        <ele>104.44</ele>
        <time>2021-08-10T06:45:00Z</time>
      </trkpt>
      <trkpt lat="48.73043" lon="4.5834">
        <ele>104.44</ele>
        <time>2021-08-10T06:45:01Z</time>
      </trkpt>
      <trkpt lat="48.73044" lon="4.58332">
        <ele>104.44</ele>
        <time>2021-08-10T06:45:02Z</time>
      </trkpt>
      <trkpt lat="48.73043" lon="4.58324">
        <ele>104.44</ele>
        <time>2021-08-10T06:45:03Z</time>
      </trkpt>
      <trkpt lat="48.7304" lon="4.583">
        <ele>104.44</ele>
        <time>2021-08-10T06:45:06Z</time>
      </trkpt>
      <trkpt lat="48.73038" lon="4.58293">
        <ele>104.44</ele>
        <time>2021-08-10T06:45:07Z</time>
      </trkpt>
      <trkpt lat="48.73035" lon="4.58286">
        <ele>104.44</ele>
        <time>2021-08-10T06:45:08Z</time>
      </trkpt>
      <trkpt lat="48.73031" lon="4.5828">
        <ele>104.44</ele>
        <time>2021-08-10T06:45:09Z</time>
      </trkpt>
      <trkpt lat="48.73028" lon="4.58274">
        <ele>104.44</ele>
        <time>2021-08-10T06:45:10Z</time>
      </trkpt>
      <trkpt lat="48.73024" lon="4.58269">
        <ele>104.44</ele>
        <time>2021-08-10T06:45:11Z</time>
      </trkpt>
      <trkpt lat="48.73019" lon="4.58264">
        <ele>104.44</ele>
        <time>2021-08-10T06:45:12Z</time>
      </trkpt>
      <trkpt lat="48.73014" lon="4.5826">
        <ele>104.44</ele>
        <time>2021-08-10T06:45:13Z</time>
      </trkpt>
      <trkpt lat="48.73009" lon="4.58257">
        <ele>104.44</ele>
        <time>2021-08-10T06:45:14Z</time>
      </trkpt>
      <trkpt lat="48.73004" lon="4.58254">
        <ele>104.44</ele>
        <time>2021-08-10T06:45:15Z</time>
      </trkpt>
      <trkpt lat="48.72944" lon="4.58224">
        <ele>103</ele>
        <time>2021-08-10T06:45:25Z</time>
      </trkpt>
      <trkpt lat="48.7289" lon="4.58199">
        <ele>102.52</ele>
        <time>2021-08-10T06:45:34Z</time>
      </trkpt>
      <trkpt lat="48.72845" lon="4.58184">
        <ele>102.52</ele>
        <time>2021-08-10T06:45:41Z</time>
      </trkpt>
      <trkpt lat="48.72789" lon="4.5817">
        <ele>102.04</ele>
        <time>2021-08-10T06:45:50Z</time>
      </trkpt>
      <trkpt lat="48.7274" lon="4.58153">
        <ele>102.04</ele>
        <time>2021-08-10T06:45:58Z</time>
      </trkpt>
      <trkpt lat="48.72734" lon="4.58146">
        <ele>102.04</ele>
        <time>2021-08-10T06:45:59Z</time>
      </trkpt>
      <trkpt lat="48.72732" lon="4.58141">
        <ele>102.04</ele>
        <time>2021-08-10T06:46:00Z</time>
      </trkpt>
      <trkpt lat="48.72728" lon="4.58133">
        <ele>102.04</ele>
        <time>2021-08-10T06:46:01Z</time>
      </trkpt>
      <trkpt lat="48.72725" lon="4.58125">
        <ele>102.04</ele>
        <time>2021-08-10T06:46:02Z</time>
      </trkpt>
      <trkpt lat="48.72722" lon="4.5812">
        <ele>103.48</ele>
        <time>2021-08-10T06:46:03Z</time>
      </trkpt>
      <trkpt lat="48.72717" lon="4.58115">
        <ele>103.48</ele>
        <time>2021-08-10T06:46:04Z</time>
      </trkpt>
      <trkpt lat="48.72712" lon="4.58114">
        <ele>103.48</ele>
        <time>2021-08-10T06:46:05Z</time>
      </trkpt>
      <trkpt lat="48.72705" lon="4.58114">
        <ele>103.48</ele>
        <time>2021-08-10T06:46:06Z</time>
      </trkpt>
      <trkpt lat="48.72699" lon="4.58115">
        <ele>103.48</ele>
        <time>2021-08-10T06:46:07Z</time>
      </trkpt>
      <trkpt lat="48.72688" lon="4.58115">
        <ele>103.48</ele>
        <time>2021-08-10T06:46:09Z</time>
      </trkpt>
      <trkpt lat="48.7267" lon="4.58111">
        <ele>102.04</ele>
        <time>2021-08-10T06:46:12Z</time>
      </trkpt>
      <trkpt lat="48.72664" lon="4.58108">
        <ele>102.04</ele>
        <time>2021-08-10T06:46:13Z</time>
      </trkpt>
      <trkpt lat="48.72658" lon="4.58104">
        <ele>102.04</ele>
        <time>2021-08-10T06:46:14Z</time>
      </trkpt>
      <trkpt lat="48.72647" lon="4.58096">
        <ele>102.04</ele>
        <time>2021-08-10T06:46:16Z</time>
      </trkpt>
      <trkpt lat="48.72643" lon="4.58091">
        <ele>102.04</ele>
        <time>2021-08-10T06:46:17Z</time>
      </trkpt>
      <trkpt lat="48.72638" lon="4.58084">
        <ele>102.04</ele>
        <time>2021-08-10T06:46:18Z</time>
      </trkpt>
      <trkpt lat="48.72594" lon="4.58024">
        <ele>102.04</ele>
        <time>2021-08-10T06:46:28Z</time>
      </trkpt>
      <trkpt lat="48.72568" lon="4.5799">
        <ele>103</ele>
        <time>2021-08-10T06:46:35Z</time>
      </trkpt>
      <trkpt lat="48.72552" lon="4.57976">
        <ele>103.48</ele>
        <time>2021-08-10T06:46:42Z</time>
      </trkpt>
      <trkpt lat="48.72545" lon="4.57972">
        <ele>103.48</ele>
        <time>2021-08-10T06:46:46Z</time>
      </trkpt>
      <trkpt lat="48.72544" lon="4.57973">
        <ele>103.96</ele>
        <time>2021-08-10T06:46:47Z</time>
      </trkpt>
      <trkpt lat="48.72543" lon="4.57975">
        <ele>103.96</ele>
        <time>2021-08-10T06:46:48Z</time>
      </trkpt>
      <trkpt lat="48.72542" lon="4.57977">
        <ele>103.96</ele>
        <time>2021-08-10T06:46:49Z</time>
      </trkpt>
      <trkpt lat="48.72542" lon="4.5798">
        <ele>103.96</ele>
        <time>2021-08-10T06:46:50Z</time>
      </trkpt>
      <trkpt lat="48.72542" lon="4.57983">
        <ele>103.48</ele>
        <time>2021-08-10T06:46:51Z</time>
      </trkpt>
      <trkpt lat="48.72542" lon="4.57986">
        <ele>103.48</ele>
        <time>2021-08-10T06:46:52Z</time>
      </trkpt>
      <trkpt lat="48.72542" lon="4.57991">
        <ele>103.96</ele>
        <time>2021-08-10T06:46:54Z</time>
      </trkpt>
      <trkpt lat="48.72541" lon="4.57993">
        <ele>103.96</ele>
        <time>2021-08-10T06:46:55Z</time>
      </trkpt>
      <trkpt lat="48.72541" lon="4.57995">
        <ele>103.96</ele>
        <time>2021-08-10T06:46:56Z</time>
      </trkpt>
      <trkpt lat="48.72542" lon="4.57996">
        <ele>103.96</ele>
        <time>2021-08-10T06:46:57Z</time>
      </trkpt>
      <trkpt lat="48.72543" lon="4.57994">
        <ele>103.96</ele>
        <time>2021-08-10T06:46:58Z</time>
      </trkpt>
      <trkpt lat="48.72543" lon="4.57992">
        <ele>103.96</ele>
        <time>2021-08-10T06:46:59Z</time>
      </trkpt>
      <trkpt lat="48.72543" lon="4.57989">
        <ele>103.96</ele>
        <time>2021-08-10T06:47:00Z</time>
      </trkpt>
      <trkpt lat="48.72544" lon="4.57987">
        <ele>103.96</ele>
        <time>2021-08-10T06:47:01Z</time>
      </trkpt>
      <trkpt lat="48.72544" lon="4.57984">
        <ele>103.96</ele>
        <time>2021-08-10T06:47:02Z</time>
      </trkpt>
      <trkpt lat="48.72545" lon="4.57982">
        <ele>103.96</ele>
        <time>2021-08-10T06:47:03Z</time>
      </trkpt>
      <trkpt lat="48.72546" lon="4.5798">
        <ele>103.96</ele>
        <time>2021-08-10T06:47:04Z</time>
      </trkpt>
      <trkpt lat="48.72547" lon="4.5798">
        <ele>103.96</ele>
        <time>2021-08-10T06:47:05Z</time>
      </trkpt>
      <trkpt lat="48.72549" lon="4.5798">
        <ele>103.96</ele>
        <time>2021-08-10T06:47:06Z</time>
      </trkpt>
      <trkpt lat="48.7256" lon="4.57992">
        <ele>103.96</ele>
        <time>2021-08-10T06:47:12Z</time>
      </trkpt>
      <trkpt lat="48.72569" lon="4.58001">
        <ele>103.96</ele>
        <time>2021-08-10T06:47:18Z</time>
      </trkpt>
      <trkpt lat="48.72572" lon="4.58">
        <ele>103.96</ele>
        <time>2021-08-10T06:47:19Z</time>
      </trkpt>
      <trkpt lat="48.72572" lon="4.57997">
        <ele>103.96</ele>
        <time>2021-08-10T06:47:20Z</time>
      </trkpt>
      <trkpt lat="48.72571" lon="4.57993">
        <ele>103.96</ele>
        <time>2021-08-10T06:47:21Z</time>
      </trkpt>
      <trkpt lat="48.72569" lon="4.5799">
        <ele>103.96</ele>
        <time>2021-08-10T06:47:22Z</time>
      </trkpt>
      <trkpt lat="48.72568" lon="4.57989">
        <ele>103.96</ele>
        <time>2021-08-10T06:47:23Z</time>
      </trkpt>
      <trkpt lat="48.72566" lon="4.57987">
        <ele>103.96</ele>
        <time>2021-08-10T06:47:24Z</time>
      </trkpt>
      <trkpt lat="48.72565" lon="4.57986">
        <ele>103.96</ele>
        <time>2021-08-10T06:47:25Z</time>
      </trkpt>
      <trkpt lat="48.72565" lon="4.57985">
        <ele>103.96</ele>
        <time>2021-08-10T06:47:26Z</time>
      </trkpt>
      <trkpt lat="48.72565" lon="4.57982">
        <ele>103.96</ele>
        <time>2021-08-10T06:47:28Z</time>
      </trkpt>
      <trkpt lat="48.72565" lon="4.57979">
        <ele>103.96</ele>
        <time>2021-08-10T06:47:30Z</time>
      </trkpt>
      <trkpt lat="48.72565" lon="4.57977">
        <ele>103.96</ele>
        <time>2021-08-10T06:47:31Z</time>
      </trkpt>
      <trkpt lat="48.72564" lon="4.57975">
        <ele>103.96</ele>
        <time>2021-08-10T06:47:32Z</time>
      </trkpt>
      <trkpt lat="48.72563" lon="4.57972">
        <ele>103.96</ele>
        <time>2021-08-10T06:47:33Z</time>
      </trkpt>
      <trkpt lat="48.72561" lon="4.57971">
        <ele>103.96</ele>
        <time>2021-08-10T06:47:34Z</time>
      </trkpt>
      <trkpt lat="48.7256" lon="4.57971">
        <ele>103.96</ele>
        <time>2021-08-10T06:47:35Z</time>
      </trkpt>
      <trkpt lat="48.72559" lon="4.57971">
        <ele>103.96</ele>
        <time>2021-08-10T06:47:36Z</time>
      </trkpt>
      <trkpt lat="48.72559" lon="4.57971">
        <ele>103.96</ele>
        <time>2021-08-10T06:47:42Z</time>
      </trkpt>
      <trkpt lat="48.72558" lon="4.57972">
        <ele>103.96</ele>
        <time>2021-08-10T06:48:00Z</time>
      </trkpt>
      <trkpt lat="48.72555" lon="4.57974">
        <ele>103.96</ele>
        <time>2021-08-10T06:48:18Z</time>
      </trkpt>
      <trkpt lat="48.72554" lon="4.57977">
        <ele>103.96</ele>
        <time>2021-08-10T06:48:32Z</time>
      </trkpt>
      <trkpt lat="48.72553" lon="4.57975">
        <ele>103.96</ele>
        <time>2021-08-10T06:48:52Z</time>
      </trkpt>
      <trkpt lat="48.72553" lon="4.57974">
        <ele>103.96</ele>
        <time>2021-08-10T06:49:10Z</time>
      </trkpt>
      <trkpt lat="48.72555" lon="4.57975">
        <ele>103.96</ele>
        <time>2021-08-10T06:49:23Z</time>
      </trkpt>
      <trkpt lat="48.72555" lon="4.57973">
        <ele>103.96</ele>
        <time>2021-08-10T06:49:37Z</time>
      </trkpt>
      <trkpt lat="48.72556" lon="4.57969">
        <ele>103.96</ele>
        <time>2021-08-10T06:49:53Z</time>
      </trkpt>
      <trkpt lat="48.72558" lon="4.57967">
        <ele>103.96</ele>
        <time>2021-08-10T06:50:10Z</time>
      </trkpt>
      <trkpt lat="48.72559" lon="4.5797">
        <ele>103.96</ele>
        <time>2021-08-10T06:50:26Z</time>
      </trkpt>
      <trkpt lat="48.72559" lon="4.57971">
        <ele>103.96</ele>
        <time>2021-08-10T06:50:40Z</time>
      </trkpt>
      <trkpt lat="48.72559" lon="4.57972">
        <ele>103.96</ele>
        <time>2021-08-10T06:50:51Z</time>
      </trkpt>
      <trkpt lat="48.72557" lon="4.57974">
        <ele>103.96</ele>
        <time>2021-08-10T06:51:07Z</time>
      </trkpt>
      <trkpt lat="48.72557" lon="4.57974">
        <ele>103.96</ele>
        <time>2021-08-10T06:51:19Z</time>
      </trkpt>
      <trkpt lat="48.72558" lon="4.57974">
        <ele>103.96</ele>
        <time>2021-08-10T06:51:35Z</time>
      </trkpt>
      <trkpt lat="48.72558" lon="4.57975">
        <ele>103.96</ele>
        <time>2021-08-10T06:51:51Z</time>
      </trkpt>
      <trkpt lat="48.7256" lon="4.57972">
        <ele>103.96</ele>
        <time>2021-08-10T06:52:07Z</time>
      </trkpt>
      <trkpt lat="48.72561" lon="4.57973">
        <ele>103.96</ele>
        <time>2021-08-10T06:52:23Z</time>
      </trkpt>
      <trkpt lat="48.72561" lon="4.57972">
        <ele>103.96</ele>
        <time>2021-08-10T06:52:35Z</time>
      </trkpt>
      <trkpt lat="48.72562" lon="4.57972">
        <ele>103.96</ele>
        <time>2021-08-10T06:52:49Z</time>
      </trkpt>
      <trkpt lat="48.72561" lon="4.57975">
        <ele>103.96</ele>
        <time>2021-08-10T06:53:08Z</time>
      </trkpt>
      <trkpt lat="48.72558" lon="4.57976">
        <ele>103.96</ele>
        <time>2021-08-10T06:53:23Z</time>
      </trkpt>
      <trkpt lat="48.72558" lon="4.57976">
        <ele>103.96</ele>
        <time>2021-08-10T06:53:39Z</time>
      </trkpt>
      <trkpt lat="48.72557" lon="4.57978">
        <ele>103.96</ele>
        <time>2021-08-10T06:53:57Z</time>
      </trkpt>
      <trkpt lat="48.72557" lon="4.57977">
        <ele>103.96</ele>
        <time>2021-08-10T06:54:11Z</time>
      </trkpt>
      <trkpt lat="48.72558" lon="4.57974">
        <ele>103.96</ele>
        <time>2021-08-10T06:54:27Z</time>
      </trkpt>
      <trkpt lat="48.72558" lon="4.57975">
        <ele>103.96</ele>
        <time>2021-08-10T06:54:45Z</time>
      </trkpt>
      <trkpt lat="48.72556" lon="4.5797">
        <ele>103.96</ele>
        <time>2021-08-10T06:55:06Z</time>
      </trkpt>
      <trkpt lat="48.72557" lon="4.57972">
        <ele>103.96</ele>
        <time>2021-08-10T06:55:20Z</time>
      </trkpt>
      <trkpt lat="48.72561" lon="4.57973">
        <ele>103.96</ele>
        <time>2021-08-10T06:55:43Z</time>
      </trkpt>
      <trkpt lat="48.72562" lon="4.57973">
        <ele>103.96</ele>
        <time>2021-08-10T06:56:04Z</time>
      </trkpt>
      <trkpt lat="48.72561" lon="4.57975">
        <ele>103.96</ele>
        <time>2021-08-10T06:56:19Z</time>
      </trkpt>
      <trkpt lat="48.72561" lon="4.57974">
        <ele>103.96</ele>
        <time>2021-08-10T06:56:37Z</time>
      </trkpt>
      <trkpt lat="48.72561" lon="4.57978">
        <ele>103.48</ele>
        <time>2021-08-10T06:56:54Z</time>
      </trkpt>
      <trkpt lat="48.7256" lon="4.57978">
        <ele>103.48</ele>
        <time>2021-08-10T06:57:09Z</time>
      </trkpt>
      <trkpt lat="48.7256" lon="4.57976">
        <ele>103.48</ele>
        <time>2021-08-10T06:57:25Z</time>
      </trkpt>
      <trkpt lat="48.72562" lon="4.57975">
        <ele>103.48</ele>
        <time>2021-08-10T06:57:35Z</time>
      </trkpt>
      <trkpt lat="48.7256" lon="4.57976">
        <ele>103.48</ele>
        <time>2021-08-10T06:57:51Z</time>
      </trkpt>
      <trkpt lat="48.72562" lon="4.57971">
        <ele>103.48</ele>
        <time>2021-08-10T06:58:15Z</time>
      </trkpt>
      <trkpt lat="48.72559" lon="4.57971">
        <ele>103.48</ele>
        <time>2021-08-10T06:58:34Z</time>
      </trkpt>
      <trkpt lat="48.72556" lon="4.57974">
        <ele>103.96</ele>
        <time>2021-08-10T06:58:54Z</time>
      </trkpt>
      <trkpt lat="48.72554" lon="4.57977">
        <ele>103.96</ele>
        <time>2021-08-10T06:59:15Z</time>
      </trkpt>
      <trkpt lat="48.72553" lon="4.57975">
        <ele>103.96</ele>
        <time>2021-08-10T06:59:27Z</time>
      </trkpt>
      <trkpt lat="48.72551" lon="4.57978">
        <ele>103.96</ele>
        <time>2021-08-10T06:59:32Z</time>
      </trkpt>
      <trkpt lat="48.7255" lon="4.57979">
        <ele>103.96</ele>
        <time>2021-08-10T06:59:33Z</time>
      </trkpt>
      <trkpt lat="48.7255" lon="4.5798">
        <ele>103.96</ele>
        <time>2021-08-10T06:59:38Z</time>
      </trkpt>
      <trkpt lat="48.72551" lon="4.57979">
        <ele>103.96</ele>
        <time>2021-08-10T06:59:52Z</time>
      </trkpt>
      <trkpt lat="48.72551" lon="4.57982">
        <ele>103.96</ele>
        <time>2021-08-10T06:59:56Z</time>
      </trkpt>
      <trkpt lat="48.72554" lon="4.57988">
        <ele>103.96</ele>
        <time>2021-08-10T07:00:02Z</time>
      </trkpt>
      <trkpt lat="48.72559" lon="4.57994">
        <ele>103.96</ele>
        <time>2021-08-10T07:00:11Z</time>
      </trkpt>
      <trkpt lat="48.72558" lon="4.57994">
        <ele>103.96</ele>
        <time>2021-08-10T07:00:20Z</time>
      </trkpt>
      <trkpt lat="48.72556" lon="4.57991">
        <ele>103.96</ele>
        <time>2021-08-10T07:00:26Z</time>
      </trkpt>
      <trkpt lat="48.72557" lon="4.57988">
        <ele>103.96</ele>
        <time>2021-08-10T07:00:39Z</time>
      </trkpt>
      <trkpt lat="48.72554" lon="4.57986">
        <ele>103.96</ele>
        <time>2021-08-10T07:00:51Z</time>
      </trkpt>
      <trkpt lat="48.72554" lon="4.57984">
        <ele>103.96</ele>
        <time>2021-08-10T07:01:02Z</time>
      </trkpt>
      <trkpt lat="48.72553" lon="4.57979">
        <ele>103.96</ele>
        <time>2021-08-10T07:01:15Z</time>
      </trkpt>
      <trkpt lat="48.72555" lon="4.57982">
        <ele>103.96</ele>
        <time>2021-08-10T07:01:26Z</time>
      </trkpt>
      <trkpt lat="48.72555" lon="4.5798">
        <ele>103.96</ele>
        <time>2021-08-10T07:01:31Z</time>
      </trkpt>
      <trkpt lat="48.72556" lon="4.57979">
        <ele>103.96</ele>
        <time>2021-08-10T07:01:39Z</time>
      </trkpt>
      <trkpt lat="48.72562" lon="4.57987">
        <ele>103.96</ele>
        <time>2021-08-10T07:01:46Z</time>
      </trkpt>
      <trkpt lat="48.72563" lon="4.5799">
        <ele>104.44</ele>
        <time>2021-08-10T07:01:56Z</time>
      </trkpt>
      <trkpt lat="48.72565" lon="4.5799">
        <ele>104.44</ele>
        <time>2021-08-10T07:02:12Z</time>
      </trkpt>
      <trkpt lat="48.72563" lon="4.57989">
        <ele>104.44</ele>
        <time>2021-08-10T07:02:20Z</time>
      </trkpt>
      <trkpt lat="48.72562" lon="4.5799">
        <ele>104.44</ele>
        <time>2021-08-10T07:02:31Z</time>
      </trkpt>
      <trkpt lat="48.7256" lon="4.57989">
        <ele>104.44</ele>
        <time>2021-08-10T07:02:41Z</time>
      </trkpt>
      <trkpt lat="48.72558" lon="4.5799">
        <ele>104.44</ele>
        <time>2021-08-10T07:02:50Z</time>
      </trkpt>
      <trkpt lat="48.72561" lon="4.57988">
        <ele>104.44</ele>
        <time>2021-08-10T07:03:01Z</time>
      </trkpt>
      <trkpt lat="48.72571" lon="4.57979">
        <ele>104.44</ele>
        <time>2021-08-10T07:03:20Z</time>
      </trkpt>
      <trkpt lat="48.72573" lon="4.57977">
        <ele>104.44</ele>
        <time>2021-08-10T07:03:35Z</time>
      </trkpt>
      <trkpt lat="48.72575" lon="4.57967">
        <ele>104.92</ele>
        <time>2021-08-10T07:03:52Z</time>
      </trkpt>
      <trkpt lat="48.72582" lon="4.57959">
        <ele>104.92</ele>
        <time>2021-08-10T07:04:08Z</time>
      </trkpt>
      <trkpt lat="48.72581" lon="4.57955">
        <ele>104.92</ele>
        <time>2021-08-10T07:04:23Z</time>
      </trkpt>
      <trkpt lat="48.72579" lon="4.57954">
        <ele>105.4</ele>
        <time>2021-08-10T07:04:34Z</time>
      </trkpt>
      <trkpt lat="48.72566" lon="4.57956">
        <ele>105.4</ele>
        <time>2021-08-10T07:04:52Z</time>
      </trkpt>
      <trkpt lat="48.72566" lon="4.57958">
        <ele>105.88</ele>
        <time>2021-08-10T07:05:06Z</time>
      </trkpt>
      <trkpt lat="48.72569" lon="4.57957">
        <ele>105.88</ele>
        <time>2021-08-10T07:05:21Z</time>
      </trkpt>
      <trkpt lat="48.72569" lon="4.57952">
        <ele>106.36</ele>
        <time>2021-08-10T07:05:36Z</time>
      </trkpt>
      <trkpt lat="48.7256" lon="4.57957">
        <ele>106.36</ele>
        <time>2021-08-10T07:05:44Z</time>
      </trkpt>
      <trkpt lat="48.72556" lon="4.5796">
        <ele>106.36</ele>
        <time>2021-08-10T07:05:53Z</time>
      </trkpt>
      <trkpt lat="48.72557" lon="4.57962">
        <ele>106.36</ele>
        <time>2021-08-10T07:05:59Z</time>
      </trkpt>
      <trkpt lat="48.72557" lon="4.57963">
        <ele>106.84</ele>
        <time>2021-08-10T07:06:14Z</time>
      </trkpt>
      <trkpt lat="48.72554" lon="4.57961">
        <ele>106.84</ele>
        <time>2021-08-10T07:06:32Z</time>
      </trkpt>
      <trkpt lat="48.7255" lon="4.57961">
        <ele>107.32</ele>
        <time>2021-08-10T07:06:50Z</time>
      </trkpt>
      <trkpt lat="48.72546" lon="4.57958">
        <ele>107.32</ele>
        <time>2021-08-10T07:07:07Z</time>
      </trkpt>
      <trkpt lat="48.72549" lon="4.57959">
        <ele>107.81</ele>
        <time>2021-08-10T07:07:22Z</time>
      </trkpt>
      <trkpt lat="48.72554" lon="4.57962">
        <ele>107.81</ele>
        <time>2021-08-10T07:07:38Z</time>
      </trkpt>
      <trkpt lat="48.72558" lon="4.57963">
        <ele>108.29</ele>
        <time>2021-08-10T07:07:53Z</time>
      </trkpt>
      <trkpt lat="48.72548" lon="4.57964">
        <ele>108.29</ele>
        <time>2021-08-10T07:08:13Z</time>
      </trkpt>
      <trkpt lat="48.72546" lon="4.57963">
        <ele>107.32</ele>
        <time>2021-08-10T07:08:32Z</time>
      </trkpt>
      <trkpt lat="48.72548" lon="4.57963">
        <ele>107.81</ele>
        <time>2021-08-10T07:08:50Z</time>
      </trkpt>
      <trkpt lat="48.72553" lon="4.57966">
        <ele>108.29</ele>
        <time>2021-08-10T07:09:09Z</time>
      </trkpt>
      <trkpt lat="48.72557" lon="4.5797">
        <ele>108.29</ele>
        <time>2021-08-10T07:09:18Z</time>
      </trkpt>
      <trkpt lat="48.7256" lon="4.57978">
        <ele>108.29</ele>
        <time>2021-08-10T07:09:33Z</time>
      </trkpt>
      <trkpt lat="48.72559" lon="4.57976">
        <ele>108.29</ele>
        <time>2021-08-10T07:09:45Z</time>
      </trkpt>
      <trkpt lat="48.72561" lon="4.5797">
        <ele>108.29</ele>
        <time>2021-08-10T07:09:57Z</time>
      </trkpt>
      <trkpt lat="48.72561" lon="4.57964">
        <ele>108.77</ele>
        <time>2021-08-10T07:10:15Z</time>
      </trkpt>
      <trkpt lat="48.72559" lon="4.5796">
        <ele>108.77</ele>
        <time>2021-08-10T07:10:35Z</time>
      </trkpt>
      <trkpt lat="48.72557" lon="4.57958">
        <ele>108.77</ele>
        <time>2021-08-10T07:10:53Z</time>
      </trkpt>
      <trkpt lat="48.72553" lon="4.57955">
        <ele>108.77</ele>
        <time>2021-08-10T07:11:10Z</time>
      </trkpt>
      <trkpt lat="48.72552" lon="4.57953">
        <ele>109.25</ele>
        <time>2021-08-10T07:11:25Z</time>
      </trkpt>
      <trkpt lat="48.7256" lon="4.57948">
        <ele>109.25</ele>
        <time>2021-08-10T07:11:45Z</time>
      </trkpt>
      <trkpt lat="48.72554" lon="4.57949">
        <ele>109.25</ele>
        <time>2021-08-10T07:12:04Z</time>
      </trkpt>
      <trkpt lat="48.72554" lon="4.57953">
        <ele>109.73</ele>
        <time>2021-08-10T07:12:20Z</time>
      </trkpt>
      <trkpt lat="48.72556" lon="4.57953">
        <ele>109.25</ele>
        <time>2021-08-10T07:12:33Z</time>
      </trkpt>
      <trkpt lat="48.72562" lon="4.57951">
        <ele>109.73</ele>
        <time>2021-08-10T07:12:57Z</time>
      </trkpt>
      <trkpt lat="48.72558" lon="4.57959">
        <ele>109.73</ele>
        <time>2021-08-10T07:13:17Z</time>
      </trkpt>
      <trkpt lat="48.72551" lon="4.57959">
        <ele>109.73</ele>
        <time>2021-08-10T07:13:36Z</time>
      </trkpt>
      <trkpt lat="48.72551" lon="4.57958">
        <ele>110.21</ele>
        <time>2021-08-10T07:13:52Z</time>
      </trkpt>
      <trkpt lat="48.72552" lon="4.57957">
        <ele>109.73</ele>
        <time>2021-08-10T07:14:07Z</time>
      </trkpt>
      <trkpt lat="48.72554" lon="4.57961">
        <ele>109.73</ele>
        <time>2021-08-10T07:14:26Z</time>
      </trkpt>
      <trkpt lat="48.72556" lon="4.57957">
        <ele>109.73</ele>
        <time>2021-08-10T07:14:38Z</time>
      </trkpt>
      <trkpt lat="48.72556" lon="4.57956">
        <ele>109.73</ele>
        <time>2021-08-10T07:14:55Z</time>
      </trkpt>
      <trkpt lat="48.7255" lon="4.57958">
        <ele>110.21</ele>
        <time>2021-08-10T07:15:10Z</time>
      </trkpt>
      <trkpt lat="48.72548" lon="4.57956">
        <ele>109.73</ele>
        <time>2021-08-10T07:15:24Z</time>
      </trkpt>
      <trkpt lat="48.72548" lon="4.57956">
        <ele>109.73</ele>
        <time>2021-08-10T07:15:39Z</time>
      </trkpt>
      <trkpt lat="48.72549" lon="4.57957">
        <ele>109.73</ele>
        <time>2021-08-10T07:15:51Z</time>
      </trkpt>
      <trkpt lat="48.72552" lon="4.57959">
        <ele>110.21</ele>
        <time>2021-08-10T07:16:06Z</time>
      </trkpt>
      <trkpt lat="48.72555" lon="4.5796">
        <ele>110.21</ele>
        <time>2021-08-10T07:16:17Z</time>
      </trkpt>
      <trkpt lat="48.72556" lon="4.57961">
        <ele>110.21</ele>
        <time>2021-08-10T07:16:27Z</time>
      </trkpt>
      <trkpt lat="48.72555" lon="4.57964">
        <ele>110.21</ele>
        <time>2021-08-10T07:16:40Z</time>
      </trkpt>
      <trkpt lat="48.72554" lon="4.57967">
        <ele>110.21</ele>
        <time>2021-08-10T07:16:51Z</time>
      </trkpt>
      <trkpt lat="48.72557" lon="4.57966">
        <ele>110.21</ele>
        <time>2021-08-10T07:17:09Z</time>
      </trkpt>
      <trkpt lat="48.72559" lon="4.57966">
        <ele>110.21</ele>
        <time>2021-08-10T07:17:28Z</time>
      </trkpt>
      <trkpt lat="48.72561" lon="4.57965">
        <ele>110.69</ele>
        <time>2021-08-10T07:17:45Z</time>
      </trkpt>
      <trkpt lat="48.7256" lon="4.57969">
        <ele>110.69</ele>
        <time>2021-08-10T07:17:59Z</time>
      </trkpt>
      <trkpt lat="48.72556" lon="4.57973">
        <ele>110.69</ele>
        <time>2021-08-10T07:18:00Z</time>
      </trkpt>
      <trkpt lat="48.72554" lon="4.57976">
        <ele>110.69</ele>
        <time>2021-08-10T07:18:01Z</time>
      </trkpt>
      <trkpt lat="48.72546" lon="4.57994">
        <ele>110.69</ele>
        <time>2021-08-10T07:18:07Z</time>
      </trkpt>
      <trkpt lat="48.72547" lon="4.57997">
        <ele>110.69</ele>
        <time>2021-08-10T07:18:13Z</time>
      </trkpt>
      <trkpt lat="48.72554" lon="4.57988">
        <ele>110.69</ele>
        <time>2021-08-10T07:18:28Z</time>
      </trkpt>
      <trkpt lat="48.72556" lon="4.5798">
        <ele>110.21</ele>
        <time>2021-08-10T07:18:42Z</time>
      </trkpt>
      <trkpt lat="48.7256" lon="4.57979">
        <ele>110.69</ele>
        <time>2021-08-10T07:19:00Z</time>
      </trkpt>
      <trkpt lat="48.72562" lon="4.57979">
        <ele>110.69</ele>
        <time>2021-08-10T07:19:14Z</time>
      </trkpt>
      <trkpt lat="48.72565" lon="4.5798">
        <ele>110.69</ele>
        <time>2021-08-10T07:19:33Z</time>
      </trkpt>
      <trkpt lat="48.72565" lon="4.57977">
        <ele>110.69</ele>
        <time>2021-08-10T07:19:42Z</time>
      </trkpt>
      <trkpt lat="48.72566" lon="4.57975">
        <ele>110.69</ele>
        <time>2021-08-10T07:19:57Z</time>
      </trkpt>
      <trkpt lat="48.72568" lon="4.57976">
        <ele>110.69</ele>
        <time>2021-08-10T07:20:13Z</time>
      </trkpt>
      <trkpt lat="48.72567" lon="4.57976">
        <ele>110.69</ele>
        <time>2021-08-10T07:20:30Z</time>
      </trkpt>
      <trkpt lat="48.72566" lon="4.57972">
        <ele>110.69</ele>
        <time>2021-08-10T07:20:49Z</time>
      </trkpt>
      <trkpt lat="48.72563" lon="4.57971">
        <ele>110.69</ele>
        <time>2021-08-10T07:21:01Z</time>
      </trkpt>
      <trkpt lat="48.72565" lon="4.57978">
        <ele>110.69</ele>
        <time>2021-08-10T07:21:18Z</time>
      </trkpt>
      <trkpt lat="48.72561" lon="4.57973">
        <ele>110.69</ele>
        <time>2021-08-10T07:21:32Z</time>
      </trkpt>
      <trkpt lat="48.72561" lon="4.57973">
        <ele>110.69</ele>
        <time>2021-08-10T07:21:42Z</time>
      </trkpt>
      <trkpt lat="48.7256" lon="4.57972">
        <ele>110.69</ele>
        <time>2021-08-10T07:21:51Z</time>
      </trkpt>
      <trkpt lat="48.72559" lon="4.57967">
        <ele>110.69</ele>
        <time>2021-08-10T07:22:08Z</time>
      </trkpt>
      <trkpt lat="48.72562" lon="4.57967">
        <ele>110.69</ele>
        <time>2021-08-10T07:22:24Z</time>
      </trkpt>
      <trkpt lat="48.72562" lon="4.57968">
        <ele>111.17</ele>
        <time>2021-08-10T07:22:38Z</time>
      </trkpt>
      <trkpt lat="48.7256" lon="4.57968">
        <ele>111.17</ele>
        <time>2021-08-10T07:22:53Z</time>
      </trkpt>
      <trkpt lat="48.72562" lon="4.57971">
        <ele>111.17</ele>
        <time>2021-08-10T07:23:10Z</time>
      </trkpt>
      <trkpt lat="48.72568" lon="4.57973">
        <ele>111.17</ele>
        <time>2021-08-10T07:23:27Z</time>
      </trkpt>
      <trkpt lat="48.72566" lon="4.57974">
        <ele>111.17</ele>
        <time>2021-08-10T07:23:38Z</time>
      </trkpt>
      <trkpt lat="48.72561" lon="4.57974">
        <ele>111.17</ele>
        <time>2021-08-10T07:23:58Z</time>
      </trkpt>
      <trkpt lat="48.7256" lon="4.57973">
        <ele>111.65</ele>
        <time>2021-08-10T07:24:10Z</time>
      </trkpt>
      <trkpt lat="48.72557" lon="4.57967">
        <ele>111.65</ele>
        <time>2021-08-10T07:24:25Z</time>
      </trkpt>
      <trkpt lat="48.7256" lon="4.5797">
        <ele>111.65</ele>
        <time>2021-08-10T07:24:37Z</time>
      </trkpt>
      <trkpt lat="48.72564" lon="4.57975">
        <ele>111.65</ele>
        <time>2021-08-10T07:24:55Z</time>
      </trkpt>
      <trkpt lat="48.72565" lon="4.57975">
        <ele>111.65</ele>
        <time>2021-08-10T07:25:06Z</time>
      </trkpt>
      <trkpt lat="48.72569" lon="4.57978">
        <ele>111.65</ele>
        <time>2021-08-10T07:25:14Z</time>
      </trkpt>
      <trkpt lat="48.72568" lon="4.5798">
        <ele>111.65</ele>
        <time>2021-08-10T07:25:24Z</time>
      </trkpt>
      <trkpt lat="48.72567" lon="4.57983">
        <ele>111.65</ele>
        <time>2021-08-10T07:25:38Z</time>
      </trkpt>
      <trkpt lat="48.72565" lon="4.57983">
        <ele>111.65</ele>
        <time>2021-08-10T07:25:46Z</time>
      </trkpt>
      <trkpt lat="48.72567" lon="4.57983">
        <ele>111.65</ele>
        <time>2021-08-10T07:25:55Z</time>
      </trkpt>
      <trkpt lat="48.72569" lon="4.57982">
        <ele>111.65</ele>
        <time>2021-08-10T07:25:56Z</time>
      </trkpt>
      <trkpt lat="48.72572" lon="4.5798">
        <ele>111.65</ele>
        <time>2021-08-10T07:25:57Z</time>
      </trkpt>
      <trkpt lat="48.72573" lon="4.57979">
        <ele>111.65</ele>
        <time>2021-08-10T07:25:58Z</time>
      </trkpt>
      <trkpt lat="48.72573" lon="4.57977">
        <ele>111.65</ele>
        <time>2021-08-10T07:26:04Z</time>
      </trkpt>
      <trkpt lat="48.72569" lon="4.57977">
        <ele>111.65</ele>
        <time>2021-08-10T07:26:20Z</time>
      </trkpt>
      <trkpt lat="48.72565" lon="4.57977">
        <ele>111.65</ele>
        <time>2021-08-10T07:26:35Z</time>
      </trkpt>
      <trkpt lat="48.72563" lon="4.57977">
        <ele>111.65</ele>
        <time>2021-08-10T07:26:53Z</time>
      </trkpt>
      <trkpt lat="48.72557" lon="4.57978">
        <ele>111.65</ele>
        <time>2021-08-10T07:27:11Z</time>
      </trkpt>
      <trkpt lat="48.72551" lon="4.57974">
        <ele>111.65</ele>
        <time>2021-08-10T07:27:22Z</time>
      </trkpt>
      <trkpt lat="48.7255" lon="4.57972">
        <ele>111.65</ele>
        <time>2021-08-10T07:27:36Z</time>
      </trkpt>
      <trkpt lat="48.72553" lon="4.57973">
        <ele>111.65</ele>
        <time>2021-08-10T07:27:52Z</time>
      </trkpt>
      <trkpt lat="48.72557" lon="4.57975">
        <ele>111.65</ele>
        <time>2021-08-10T07:28:05Z</time>
      </trkpt>
      <trkpt lat="48.72555" lon="4.57974">
        <ele>111.65</ele>
        <time>2021-08-10T07:28:10Z</time>
      </trkpt>
      <trkpt lat="48.72554" lon="4.57974">
        <ele>111.65</ele>
        <time>2021-08-10T07:28:16Z</time>
      </trkpt>
      <trkpt lat="48.72555" lon="4.57972">
        <ele>111.65</ele>
        <time>2021-08-10T07:28:26Z</time>
      </trkpt>
      <trkpt lat="48.72559" lon="4.57973">
        <ele>111.65</ele>
        <time>2021-08-10T07:28:41Z</time>
      </trkpt>
      <trkpt lat="48.72561" lon="4.57975">
        <ele>111.65</ele>
        <time>2021-08-10T07:28:58Z</time>
      </trkpt>
      <trkpt lat="48.72561" lon="4.57978">
        <ele>111.65</ele>
        <time>2021-08-10T07:29:10Z</time>
      </trkpt>
      <trkpt lat="48.72559" lon="4.57981">
        <ele>111.65</ele>
        <time>2021-08-10T07:29:27Z</time>
      </trkpt>
      <trkpt lat="48.72559" lon="4.57984">
        <ele>111.65</ele>
        <time>2021-08-10T07:29:43Z</time>
      </trkpt>
      <trkpt lat="48.72559" lon="4.57987">
        <ele>111.65</ele>
        <time>2021-08-10T07:29:59Z</time>
      </trkpt>
      <trkpt lat="48.72559" lon="4.57987">
        <ele>111.65</ele>
        <time>2021-08-10T07:30:18Z</time>
      </trkpt>
      <trkpt lat="48.72556" lon="4.57988">
        <ele>111.65</ele>
        <time>2021-08-10T07:30:36Z</time>
      </trkpt>
      <trkpt lat="48.72556" lon="4.57989">
        <ele>111.17</ele>
        <time>2021-08-10T07:30:53Z</time>
      </trkpt>
      <trkpt lat="48.72556" lon="4.57989">
        <ele>111.17</ele>
        <time>2021-08-10T07:31:02Z</time>
      </trkpt>
      <trkpt lat="48.72559" lon="4.57991">
        <ele>111.17</ele>
        <time>2021-08-10T07:31:21Z</time>
      </trkpt>
      <trkpt lat="48.72558" lon="4.5799">
        <ele>111.17</ele>
        <time>2021-08-10T07:31:36Z</time>
      </trkpt>
      <trkpt lat="48.72558" lon="4.57992">
        <ele>111.17</ele>
        <time>2021-08-10T07:31:48Z</time>
      </trkpt>
      <trkpt lat="48.72558" lon="4.57994">
        <ele>111.17</ele>
        <time>2021-08-10T07:32:03Z</time>
      </trkpt>
      <trkpt lat="48.72554" lon="4.57995">
        <ele>111.17</ele>
        <time>2021-08-10T07:32:14Z</time>
      </trkpt>
      <trkpt lat="48.72552" lon="4.57996">
        <ele>110.69</ele>
        <time>2021-08-10T07:32:28Z</time>
      </trkpt>
      <trkpt lat="48.72554" lon="4.57994">
        <ele>110.69</ele>
        <time>2021-08-10T07:32:48Z</time>
      </trkpt>
      <trkpt lat="48.72555" lon="4.57992">
        <ele>110.69</ele>
        <time>2021-08-10T07:33:03Z</time>
      </trkpt>
      <trkpt lat="48.72554" lon="4.57995">
        <ele>110.69</ele>
        <time>2021-08-10T07:33:21Z</time>
      </trkpt>
      <trkpt lat="48.72552" lon="4.57994">
        <ele>110.69</ele>
        <time>2021-08-10T07:33:37Z</time>
      </trkpt>
      <trkpt lat="48.72549" lon="4.57995">
        <ele>110.21</ele>
        <time>2021-08-10T07:33:50Z</time>
      </trkpt>
      <trkpt lat="48.72549" lon="4.57997">
        <ele>110.21</ele>
        <time>2021-08-10T07:34:07Z</time>
      </trkpt>
      <trkpt lat="48.7255" lon="4.57997">
        <ele>110.21</ele>
        <time>2021-08-10T07:34:17Z</time>
      </trkpt>
      <trkpt lat="48.72553" lon="4.57994">
        <ele>110.21</ele>
        <time>2021-08-10T07:34:25Z</time>
      </trkpt>
      <trkpt lat="48.72554" lon="4.57995">
        <ele>110.21</ele>
        <time>2021-08-10T07:34:30Z</time>
      </trkpt>
      <trkpt lat="48.72557" lon="4.57995">
        <ele>110.21</ele>
        <time>2021-08-10T07:34:39Z</time>
      </trkpt>
      <trkpt lat="48.72563" lon="4.57991">
        <ele>110.21</ele>
        <time>2021-08-10T07:34:50Z</time>
      </trkpt>
      <trkpt lat="48.72562" lon="4.57984">
        <ele>110.21</ele>
        <time>2021-08-10T07:35:06Z</time>
      </trkpt>
      <trkpt lat="48.72563" lon="4.57981">
        <ele>110.21</ele>
        <time>2021-08-10T07:35:20Z</time>
      </trkpt>
      <trkpt lat="48.72565" lon="4.5798">
        <ele>110.21</ele>
        <time>2021-08-10T07:35:33Z</time>
      </trkpt>
      <trkpt lat="48.72566" lon="4.57982">
        <ele>110.21</ele>
        <time>2021-08-10T07:35:46Z</time>
      </trkpt>
      <trkpt lat="48.72566" lon="4.5798">
        <ele>110.21</ele>
        <time>2021-08-10T07:35:47Z</time>
      </trkpt>
      <trkpt lat="48.72567" lon="4.57977">
        <ele>110.21</ele>
        <time>2021-08-10T07:35:52Z</time>
      </trkpt>
      <trkpt lat="48.72568" lon="4.57976">
        <ele>110.21</ele>
        <time>2021-08-10T07:35:58Z</time>
      </trkpt>
      <trkpt lat="48.72564" lon="4.57973">
        <ele>110.21</ele>
        <time>2021-08-10T07:36:10Z</time>
      </trkpt>
      <trkpt lat="48.72569" lon="4.5797">
        <ele>110.21</ele>
        <time>2021-08-10T07:36:24Z</time>
      </trkpt>
      <trkpt lat="48.72573" lon="4.57968">
        <ele>110.21</ele>
        <time>2021-08-10T07:36:35Z</time>
      </trkpt>
      <trkpt lat="48.72572" lon="4.57967">
        <ele>110.21</ele>
        <time>2021-08-10T07:36:49Z</time>
      </trkpt>
      <trkpt lat="48.7257" lon="4.57967">
        <ele>110.21</ele>
        <time>2021-08-10T07:37:02Z</time>
      </trkpt>
      <trkpt lat="48.72571" lon="4.57969">
        <ele>110.69</ele>
        <time>2021-08-10T07:37:19Z</time>
      </trkpt>
      <trkpt lat="48.72574" lon="4.5797">
        <ele>110.69</ele>
        <time>2021-08-10T07:37:35Z</time>
      </trkpt>
      <trkpt lat="48.72576" lon="4.57974">
        <ele>110.21</ele>
        <time>2021-08-10T07:37:53Z</time>
      </trkpt>
      <trkpt lat="48.72575" lon="4.57973">
        <ele>110.69</ele>
        <time>2021-08-10T07:38:11Z</time>
      </trkpt>
      <trkpt lat="48.72575" lon="4.57975">
        <ele>110.69</ele>
        <time>2021-08-10T07:38:25Z</time>
      </trkpt>
      <trkpt lat="48.72572" lon="4.57975">
        <ele>110.69</ele>
        <time>2021-08-10T07:38:45Z</time>
      </trkpt>
      <trkpt lat="48.7257" lon="4.57977">
        <ele>110.69</ele>
        <time>2021-08-10T07:39:05Z</time>
      </trkpt>
      <trkpt lat="48.72568" lon="4.5798">
        <ele>110.69</ele>
        <time>2021-08-10T07:39:19Z</time>
      </trkpt>
      <trkpt lat="48.7257" lon="4.57982">
        <ele>110.69</ele>
        <time>2021-08-10T07:39:30Z</time>
      </trkpt>
      <trkpt lat="48.7257" lon="4.57983">
        <ele>111.17</ele>
        <time>2021-08-10T07:39:40Z</time>
      </trkpt>
      <trkpt lat="48.72567" lon="4.57978">
        <ele>111.17</ele>
        <time>2021-08-10T07:39:55Z</time>
      </trkpt>
      <trkpt lat="48.7257" lon="4.57978">
        <ele>111.17</ele>
        <time>2021-08-10T07:40:07Z</time>
      </trkpt>
      <trkpt lat="48.7257" lon="4.57978">
        <ele>111.17</ele>
        <time>2021-08-10T07:40:18Z</time>
      </trkpt>
      <trkpt lat="48.72569" lon="4.57976">
        <ele>111.17</ele>
        <time>2021-08-10T07:40:32Z</time>
      </trkpt>
      <trkpt lat="48.72566" lon="4.57973">
        <ele>111.17</ele>
        <time>2021-08-10T07:40:47Z</time>
      </trkpt>
      <trkpt lat="48.72567" lon="4.57974">
        <ele>111.17</ele>
        <time>2021-08-10T07:40:52Z</time>
      </trkpt>
      <trkpt lat="48.72567" lon="4.57975">
        <ele>111.17</ele>
        <time>2021-08-10T07:40:59Z</time>
      </trkpt>
      <trkpt lat="48.72569" lon="4.5797">
        <ele>111.17</ele>
        <time>2021-08-10T07:41:19Z</time>
      </trkpt>
      <trkpt lat="48.72571" lon="4.57977">
        <ele>111.65</ele>
        <time>2021-08-10T07:41:43Z</time>
      </trkpt>
      <trkpt lat="48.72569" lon="4.57976">
        <ele>111.65</ele>
        <time>2021-08-10T07:41:56Z</time>
      </trkpt>
      <trkpt lat="48.72568" lon="4.57978">
        <ele>111.65</ele>
        <time>2021-08-10T07:42:10Z</time>
      </trkpt>
      <trkpt lat="48.72567" lon="4.5798">
        <ele>111.65</ele>
        <time>2021-08-10T07:42:24Z</time>
      </trkpt>
      <trkpt lat="48.72568" lon="4.57981">
        <ele>111.65</ele>
        <time>2021-08-10T07:42:43Z</time>
      </trkpt>
      <trkpt lat="48.72568" lon="4.57985">
        <ele>111.65</ele>
        <time>2021-08-10T07:42:56Z</time>
      </trkpt>
      <trkpt lat="48.72566" lon="4.57982">
        <ele>111.65</ele>
        <time>2021-08-10T07:43:09Z</time>
      </trkpt>
      <trkpt lat="48.72564" lon="4.5798">
        <ele>111.65</ele>
        <time>2021-08-10T07:43:19Z</time>
      </trkpt>
      <trkpt lat="48.72562" lon="4.57982">
        <ele>111.65</ele>
        <time>2021-08-10T07:43:37Z</time>
      </trkpt>
      <trkpt lat="48.72562" lon="4.57983">
        <ele>111.65</ele>
        <time>2021-08-10T07:43:46Z</time>
      </trkpt>
      <trkpt lat="48.72563" lon="4.57983">
        <ele>111.65</ele>
        <time>2021-08-10T07:43:59Z</time>
      </trkpt>
      <trkpt lat="48.7256" lon="4.57984">
        <ele>111.65</ele>
        <time>2021-08-10T07:44:18Z</time>
      </trkpt>
      <trkpt lat="48.72558" lon="4.57984">
        <ele>111.65</ele>
        <time>2021-08-10T07:44:33Z</time>
      </trkpt>
      <trkpt lat="48.72557" lon="4.57981">
        <ele>111.65</ele>
        <time>2021-08-10T07:44:45Z</time>
      </trkpt>
      <trkpt lat="48.72558" lon="4.57983">
        <ele>111.65</ele>
        <time>2021-08-10T07:44:55Z</time>
      </trkpt>
      <trkpt lat="48.7256" lon="4.57987">
        <ele>111.17</ele>
        <time>2021-08-10T07:45:12Z</time>
      </trkpt>
      <trkpt lat="48.72561" lon="4.57985">
        <ele>111.17</ele>
        <time>2021-08-10T07:45:29Z</time>
      </trkpt>
      <trkpt lat="48.7256" lon="4.57983">
        <ele>111.17</ele>
        <time>2021-08-10T07:45:44Z</time>
      </trkpt>
      <trkpt lat="48.72562" lon="4.57984">
        <ele>111.17</ele>
        <time>2021-08-10T07:45:45Z</time>
      </trkpt>
      <trkpt lat="48.72563" lon="4.57984">
        <ele>111.17</ele>
        <time>2021-08-10T07:45:50Z</time>
      </trkpt>
      <trkpt lat="48.72567" lon="4.57983">
        <ele>111.17</ele>
        <time>2021-08-10T07:45:56Z</time>
      </trkpt>
      <trkpt lat="48.7257" lon="4.57981">
        <ele>111.17</ele>
        <time>2021-08-10T07:46:12Z</time>
      </trkpt>
      <trkpt lat="48.72568" lon="4.57978">
        <ele>111.17</ele>
        <time>2021-08-10T07:46:28Z</time>
      </trkpt>
      <trkpt lat="48.72565" lon="4.57975">
        <ele>111.17</ele>
        <time>2021-08-10T07:46:42Z</time>
      </trkpt>
      <trkpt lat="48.72566" lon="4.57977">
        <ele>111.17</ele>
        <time>2021-08-10T07:46:53Z</time>
      </trkpt>
      <trkpt lat="48.72568" lon="4.57977">
        <ele>111.17</ele>
        <time>2021-08-10T07:47:14Z</time>
      </trkpt>
      <trkpt lat="48.72568" lon="4.57977">
        <ele>111.17</ele>
        <time>2021-08-10T07:47:32Z</time>
      </trkpt>
      <trkpt lat="48.72565" lon="4.5798">
        <ele>111.17</ele>
        <time>2021-08-10T07:47:45Z</time>
      </trkpt>
      <trkpt lat="48.72563" lon="4.57984">
        <ele>111.17</ele>
        <time>2021-08-10T07:48:07Z</time>
      </trkpt>
      <trkpt lat="48.72565" lon="4.57987">
        <ele>111.17</ele>
        <time>2021-08-10T07:48:19Z</time>
      </trkpt>
      <trkpt lat="48.72562" lon="4.57987">
        <ele>111.17</ele>
        <time>2021-08-10T07:48:33Z</time>
      </trkpt>
      <trkpt lat="48.72563" lon="4.5798">
        <ele>111.17</ele>
        <time>2021-08-10T07:48:52Z</time>
      </trkpt>
      <trkpt lat="48.72565" lon="4.57984">
        <ele>111.17</ele>
        <time>2021-08-10T07:49:08Z</time>
      </trkpt>
      <trkpt lat="48.72565" lon="4.57981">
        <ele>111.17</ele>
        <time>2021-08-10T07:49:24Z</time>
      </trkpt>
      <trkpt lat="48.72564" lon="4.57981">
        <ele>111.17</ele>
        <time>2021-08-10T07:49:35Z</time>
      </trkpt>
      <trkpt lat="48.72564" lon="4.5798">
        <ele>111.17</ele>
        <time>2021-08-10T07:49:49Z</time>
      </trkpt>
      <trkpt lat="48.72564" lon="4.57983">
        <ele>111.17</ele>
        <time>2021-08-10T07:49:58Z</time>
      </trkpt>
      <trkpt lat="48.72565" lon="4.57985">
        <ele>111.17</ele>
        <time>2021-08-10T07:50:08Z</time>
      </trkpt>
      <trkpt lat="48.72568" lon="4.57983">
        <ele>111.17</ele>
        <time>2021-08-10T07:50:21Z</time>
      </trkpt>
      <trkpt lat="48.72568" lon="4.57985">
        <ele>111.17</ele>
        <time>2021-08-10T07:50:33Z</time>
      </trkpt>
      <trkpt lat="48.7257" lon="4.57986">
        <ele>111.17</ele>
        <time>2021-08-10T07:50:36Z</time>
      </trkpt>
      <trkpt lat="48.72572" lon="4.57988">
        <ele>111.17</ele>
        <time>2021-08-10T07:50:37Z</time>
      </trkpt>
      <trkpt lat="48.72584" lon="4.58009">
        <ele>110.69</ele>
        <time>2021-08-10T07:50:43Z</time>
      </trkpt>
      <trkpt lat="48.72605" lon="4.5804">
        <ele>110.21</ele>
        <time>2021-08-10T07:50:49Z</time>
      </trkpt>
      <trkpt lat="48.7261" lon="4.58046">
        <ele>110.21</ele>
        <time>2021-08-10T07:50:50Z</time>
      </trkpt>
      <trkpt lat="48.72628" lon="4.58071">
        <ele>110.21</ele>
        <time>2021-08-10T07:50:55Z</time>
      </trkpt>
      <trkpt lat="48.72639" lon="4.58088">
        <ele>110.21</ele>
        <time>2021-08-10T07:50:58Z</time>
      </trkpt>
      <trkpt lat="48.7266" lon="4.5811">
        <ele>110.21</ele>
        <time>2021-08-10T07:51:03Z</time>
      </trkpt>
      <trkpt lat="48.7268" lon="4.58122">
        <ele>109.73</ele>
        <time>2021-08-10T07:51:07Z</time>
      </trkpt>
      <trkpt lat="48.72689" lon="4.58128">
        <ele>109.73</ele>
        <time>2021-08-10T07:51:09Z</time>
      </trkpt>
      <trkpt lat="48.72693" lon="4.58132">
        <ele>109.73</ele>
        <time>2021-08-10T07:51:10Z</time>
      </trkpt>
      <trkpt lat="48.72696" lon="4.58136">
        <ele>109.73</ele>
        <time>2021-08-10T07:51:11Z</time>
      </trkpt>
      <trkpt lat="48.72703" lon="4.5815">
        <ele>109.73</ele>
        <time>2021-08-10T07:51:13Z</time>
      </trkpt>
      <trkpt lat="48.72705" lon="4.58155">
        <ele>109.73</ele>
        <time>2021-08-10T07:51:14Z</time>
      </trkpt>
      <trkpt lat="48.72706" lon="4.58162">
        <ele>109.73</ele>
        <time>2021-08-10T07:51:15Z</time>
      </trkpt>
      <trkpt lat="48.72704" lon="4.58169">
        <ele>109.73</ele>
        <time>2021-08-10T07:51:16Z</time>
      </trkpt>
      <trkpt lat="48.72703" lon="4.58174">
        <ele>109.73</ele>
        <time>2021-08-10T07:51:17Z</time>
      </trkpt>
      <trkpt lat="48.72701" lon="4.58181">
        <ele>109.73</ele>
        <time>2021-08-10T07:51:18Z</time>
      </trkpt>
      <trkpt lat="48.72699" lon="4.58188">
        <ele>109.73</ele>
        <time>2021-08-10T07:51:19Z</time>
      </trkpt>
      <trkpt lat="48.72694" lon="4.58208">
        <ele>110.69</ele>
        <time>2021-08-10T07:51:22Z</time>
      </trkpt>
      <trkpt lat="48.72683" lon="4.58243">
        <ele>111.17</ele>
        <time>2021-08-10T07:51:29Z</time>
      </trkpt>
      <trkpt lat="48.72681" lon="4.58245">
        <ele>110.69</ele>
        <time>2021-08-10T07:51:30Z</time>
      </trkpt>
      <trkpt lat="48.72676" lon="4.58256">
        <ele>111.17</ele>
        <time>2021-08-10T07:51:35Z</time>
      </trkpt>
      <trkpt lat="48.72666" lon="4.58293">
        <ele>111.17</ele>
        <time>2021-08-10T07:51:42Z</time>
      </trkpt>
      <trkpt lat="48.72652" lon="4.58338">
        <ele>111.65</ele>
        <time>2021-08-10T07:51:50Z</time>
      </trkpt>
      <trkpt lat="48.72643" lon="4.58369">
        <ele>111.65</ele>
        <time>2021-08-10T07:51:55Z</time>
      </trkpt>
      <trkpt lat="48.72642" lon="4.58375">
        <ele>111.65</ele>
        <time>2021-08-10T07:51:56Z</time>
      </trkpt>
      <trkpt lat="48.72633" lon="4.58408">
        <ele>112.13</ele>
        <time>2021-08-10T07:52:02Z</time>
      </trkpt>
      <trkpt lat="48.72623" lon="4.58438">
        <ele>112.13</ele>
        <time>2021-08-10T07:52:09Z</time>
      </trkpt>
      <trkpt lat="48.72615" lon="4.58458">
        <ele>112.13</ele>
        <time>2021-08-10T07:52:15Z</time>
      </trkpt>
      <trkpt lat="48.72614" lon="4.58459">
        <ele>111.65</ele>
        <time>2021-08-10T07:52:21Z</time>
      </trkpt>
      <trkpt lat="48.72613" lon="4.58463">
        <ele>111.65</ele>
        <time>2021-08-10T07:52:29Z</time>
      </trkpt>
      <trkpt lat="48.72614" lon="4.58464">
        <ele>111.65</ele>
        <time>2021-08-10T07:52:30Z</time>
      </trkpt>
      <trkpt lat="48.72615" lon="4.58466">
        <ele>111.65</ele>
        <time>2021-08-10T07:52:31Z</time>
      </trkpt>
      <trkpt lat="48.72617" lon="4.58467">
        <ele>111.65</ele>
        <time>2021-08-10T07:52:32Z</time>
      </trkpt>
      <trkpt lat="48.72619" lon="4.58469">
        <ele>111.65</ele>
        <time>2021-08-10T07:52:33Z</time>
      </trkpt>
      <trkpt lat="48.72621" lon="4.5847">
        <ele>111.65</ele>
        <time>2021-08-10T07:52:34Z</time>
      </trkpt>
      <trkpt lat="48.72634" lon="4.58478">
        <ele>112.13</ele>
        <time>2021-08-10T07:52:40Z</time>
      </trkpt>
      <trkpt lat="48.72637" lon="4.5848">
        <ele>112.13</ele>
        <time>2021-08-10T07:52:41Z</time>
      </trkpt>
      <trkpt lat="48.72639" lon="4.58482">
        <ele>112.13</ele>
        <time>2021-08-10T07:52:42Z</time>
      </trkpt>
      <trkpt lat="48.72641" lon="4.58483">
        <ele>112.13</ele>
        <time>2021-08-10T07:52:43Z</time>
      </trkpt>
      <trkpt lat="48.72644" lon="4.58485">
        <ele>112.13</ele>
        <time>2021-08-10T07:52:44Z</time>
      </trkpt>
      <trkpt lat="48.72647" lon="4.58486">
        <ele>112.13</ele>
        <time>2021-08-10T07:52:45Z</time>
      </trkpt>
      <trkpt lat="48.72653" lon="4.58493">
        <ele>112.61</ele>
        <time>2021-08-10T07:52:48Z</time>
      </trkpt>
      <trkpt lat="48.72653" lon="4.58497">
        <ele>112.61</ele>
        <time>2021-08-10T07:52:49Z</time>
      </trkpt>
      <trkpt lat="48.72653" lon="4.585">
        <ele>112.61</ele>
        <time>2021-08-10T07:52:50Z</time>
      </trkpt>
      <trkpt lat="48.72649" lon="4.58526">
        <ele>112.61</ele>
        <time>2021-08-10T07:52:58Z</time>
      </trkpt>
      <trkpt lat="48.72647" lon="4.58533">
        <ele>112.61</ele>
        <time>2021-08-10T07:53:03Z</time>
      </trkpt>
      <trkpt lat="48.72648" lon="4.58536">
        <ele>112.61</ele>
        <time>2021-08-10T07:53:04Z</time>
      </trkpt>
      <trkpt lat="48.72649" lon="4.58538">
        <ele>112.61</ele>
        <time>2021-08-10T07:53:05Z</time>
      </trkpt>
      <trkpt lat="48.72649" lon="4.58541">
        <ele>112.61</ele>
        <time>2021-08-10T07:53:06Z</time>
      </trkpt>
      <trkpt lat="48.72649" lon="4.58545">
        <ele>112.61</ele>
        <time>2021-08-10T07:53:07Z</time>
      </trkpt>
      <trkpt lat="48.72649" lon="4.58548">
        <ele>112.61</ele>
        <time>2021-08-10T07:53:08Z</time>
      </trkpt>
      <trkpt lat="48.7265" lon="4.58551">
        <ele>112.61</ele>
        <time>2021-08-10T07:53:09Z</time>
      </trkpt>
      <trkpt lat="48.72652" lon="4.58553">
        <ele>112.61</ele>
        <time>2021-08-10T07:53:10Z</time>
      </trkpt>
      <trkpt lat="48.72654" lon="4.58555">
        <ele>112.61</ele>
        <time>2021-08-10T07:53:11Z</time>
      </trkpt>
      <trkpt lat="48.72657" lon="4.58556">
        <ele>113.09</ele>
        <time>2021-08-10T07:53:12Z</time>
      </trkpt>
      <trkpt lat="48.72673" lon="4.58566">
        <ele>113.09</ele>
        <time>2021-08-10T07:53:18Z</time>
      </trkpt>
      <trkpt lat="48.72693" lon="4.58581">
        <ele>113.57</ele>
        <time>2021-08-10T07:53:24Z</time>
      </trkpt>
      <trkpt lat="48.7272" lon="4.58597">
        <ele>113.09</ele>
        <time>2021-08-10T07:53:32Z</time>
      </trkpt>
      <trkpt lat="48.72732" lon="4.58607">
        <ele>113.09</ele>
        <time>2021-08-10T07:53:37Z</time>
      </trkpt>
      <trkpt lat="48.72752" lon="4.5862">
        <ele>113.09</ele>
        <time>2021-08-10T07:53:44Z</time>
      </trkpt>
      <trkpt lat="48.72762" lon="4.58626">
        <ele>113.09</ele>
        <time>2021-08-10T07:53:50Z</time>
      </trkpt>
      <trkpt lat="48.72763" lon="4.58625">
        <ele>113.09</ele>
        <time>2021-08-10T07:53:54Z</time>
      </trkpt>
      <trkpt lat="48.72765" lon="4.58625">
        <ele>113.09</ele>
        <time>2021-08-10T07:54:07Z</time>
      </trkpt>
      <trkpt lat="48.72766" lon="4.58625">
        <ele>113.09</ele>
        <time>2021-08-10T07:54:18Z</time>
      </trkpt>
      <trkpt lat="48.72762" lon="4.58639">
        <ele>113.09</ele>
        <time>2021-08-10T07:54:34Z</time>
      </trkpt>
      <trkpt lat="48.72758" lon="4.58647">
        <ele>113.57</ele>
        <time>2021-08-10T07:54:54Z</time>
      </trkpt>
      <trkpt lat="48.7276" lon="4.58646">
        <ele>113.57</ele>
        <time>2021-08-10T07:55:14Z</time>
      </trkpt>
      <trkpt lat="48.7276" lon="4.58648">
        <ele>114.05</ele>
        <time>2021-08-10T07:55:44Z</time>
      </trkpt>
      <trkpt lat="48.72761" lon="4.58648">
        <ele>114.05</ele>
        <time>2021-08-10T07:56:01Z</time>
      </trkpt>
      <trkpt lat="48.72762" lon="4.58647">
        <ele>114.05</ele>
        <time>2021-08-10T07:56:11Z</time>
      </trkpt>
      <trkpt lat="48.72762" lon="4.58646">
        <ele>114.05</ele>
        <time>2021-08-10T07:56:18Z</time>
      </trkpt>
      <trkpt lat="48.72761" lon="4.58647">
        <ele>114.53</ele>
        <time>2021-08-10T07:56:27Z</time>
      </trkpt>
      <trkpt lat="48.72759" lon="4.58647">
        <ele>114.53</ele>
        <time>2021-08-10T07:56:47Z</time>
      </trkpt>
      <trkpt lat="48.72759" lon="4.58645">
        <ele>115.01</ele>
        <time>2021-08-10T07:57:11Z</time>
      </trkpt>
      <trkpt lat="48.72757" lon="4.58645">
        <ele>115.01</ele>
        <time>2021-08-10T07:57:36Z</time>
      </trkpt>
      <trkpt lat="48.72758" lon="4.58647">
        <ele>115.5</ele>
        <time>2021-08-10T07:58:02Z</time>
      </trkpt>
      <trkpt lat="48.72759" lon="4.58645">
        <ele>115.98</ele>
        <time>2021-08-10T07:58:20Z</time>
      </trkpt>
      <trkpt lat="48.72762" lon="4.5864">
        <ele>115.98</ele>
        <time>2021-08-10T07:58:42Z</time>
      </trkpt>
      <trkpt lat="48.72761" lon="4.58642">
        <ele>116.46</ele>
        <time>2021-08-10T07:59:04Z</time>
      </trkpt>
      <trkpt lat="48.72759" lon="4.58643">
        <ele>117.42</ele>
        <time>2021-08-10T07:59:24Z</time>
      </trkpt>
      <trkpt lat="48.7276" lon="4.58645">
        <ele>117.9</ele>
        <time>2021-08-10T07:59:49Z</time>
      </trkpt>
      <trkpt lat="48.7276" lon="4.58646">
        <ele>117.9</ele>
        <time>2021-08-10T08:00:06Z</time>
      </trkpt>
      <trkpt lat="48.72761" lon="4.58647">
        <ele>118.38</ele>
        <time>2021-08-10T08:00:24Z</time>
      </trkpt>
      <trkpt lat="48.7276" lon="4.58644">
        <ele>118.38</ele>
        <time>2021-08-10T08:00:43Z</time>
      </trkpt>
      <trkpt lat="48.72758" lon="4.58641">
        <ele>118.86</ele>
        <time>2021-08-10T08:01:05Z</time>
      </trkpt>
      <trkpt lat="48.7276" lon="4.58639">
        <ele>119.34</ele>
        <time>2021-08-10T08:01:17Z</time>
      </trkpt>
      <trkpt lat="48.72761" lon="4.58638">
        <ele>119.34</ele>
        <time>2021-08-10T08:01:32Z</time>
      </trkpt>
      <trkpt lat="48.7276" lon="4.58639">
        <ele>119.82</ele>
        <time>2021-08-10T08:01:52Z</time>
      </trkpt>
      <trkpt lat="48.7276" lon="4.58638">
        <ele>120.3</ele>
        <time>2021-08-10T08:02:07Z</time>
      </trkpt>
      <trkpt lat="48.7276" lon="4.58637">
        <ele>120.3</ele>
        <time>2021-08-10T08:02:21Z</time>
      </trkpt>
      <trkpt lat="48.7276" lon="4.5864">
        <ele>120.78</ele>
        <time>2021-08-10T08:02:37Z</time>
      </trkpt>
      <trkpt lat="48.72759" lon="4.58641">
        <ele>120.78</ele>
        <time>2021-08-10T08:02:53Z</time>
      </trkpt>
      <trkpt lat="48.72759" lon="4.58639">
        <ele>121.26</ele>
        <time>2021-08-10T08:03:09Z</time>
      </trkpt>
      <trkpt lat="48.7276" lon="4.58638">
        <ele>121.26</ele>
        <time>2021-08-10T08:03:26Z</time>
      </trkpt>
      <trkpt lat="48.72761" lon="4.58639">
        <ele>121.26</ele>
        <time>2021-08-10T08:03:43Z</time>
      </trkpt>
      <trkpt lat="48.72763" lon="4.58639">
        <ele>121.74</ele>
        <time>2021-08-10T08:03:58Z</time>
      </trkpt>
      <trkpt lat="48.72762" lon="4.58641">
        <ele>121.74</ele>
        <time>2021-08-10T08:04:16Z</time>
      </trkpt>
      <trkpt lat="48.7276" lon="4.58646">
        <ele>121.74</ele>
        <time>2021-08-10T08:04:34Z</time>
      </trkpt>
      <trkpt lat="48.72758" lon="4.58645">
        <ele>122.22</ele>
        <time>2021-08-10T08:04:56Z</time>
      </trkpt>
      <trkpt lat="48.72759" lon="4.58645">
        <ele>122.22</ele>
        <time>2021-08-10T08:05:14Z</time>
      </trkpt>
      <trkpt lat="48.72759" lon="4.5865">
        <ele>122.71</ele>
        <time>2021-08-10T08:05:30Z</time>
      </trkpt>
      <trkpt lat="48.7276" lon="4.58652">
        <ele>122.71</ele>
        <time>2021-08-10T08:05:47Z</time>
      </trkpt>
      <trkpt lat="48.72761" lon="4.58649">
        <ele>123.19</ele>
        <time>2021-08-10T08:06:05Z</time>
      </trkpt>
      <trkpt lat="48.7276" lon="4.58646">
        <ele>123.19</ele>
        <time>2021-08-10T08:06:11Z</time>
      </trkpt>
      <trkpt lat="48.7276" lon="4.58645">
        <ele>123.19</ele>
        <time>2021-08-10T08:06:14Z</time>
      </trkpt>
      <trkpt lat="48.7276" lon="4.58648">
        <ele>123.19</ele>
        <time>2021-08-10T08:06:20Z</time>
      </trkpt>
      <trkpt lat="48.72758" lon="4.58652">
        <ele>123.19</ele>
        <time>2021-08-10T08:06:38Z</time>
      </trkpt>
      <trkpt lat="48.72759" lon="4.5865">
        <ele>123.19</ele>
        <time>2021-08-10T08:06:57Z</time>
      </trkpt>
      <trkpt lat="48.72759" lon="4.58648">
        <ele>123.19</ele>
        <time>2021-08-10T08:07:11Z</time>
      </trkpt>
      <trkpt lat="48.72761" lon="4.58642">
        <ele>123.67</ele>
        <time>2021-08-10T08:07:27Z</time>
      </trkpt>
      <trkpt lat="48.72762" lon="4.58642">
        <ele>123.67</ele>
        <time>2021-08-10T08:07:36Z</time>
      </trkpt>
      <trkpt lat="48.72762" lon="4.58639">
        <ele>123.67</ele>
        <time>2021-08-10T08:07:47Z</time>
      </trkpt>
      <trkpt lat="48.72762" lon="4.58638">
        <ele>123.67</ele>
        <time>2021-08-10T08:08:01Z</time>
      </trkpt>
      <trkpt lat="48.72761" lon="4.58637">
        <ele>123.67</ele>
        <time>2021-08-10T08:08:16Z</time>
      </trkpt>
      <trkpt lat="48.7276" lon="4.58643">
        <ele>123.67</ele>
        <time>2021-08-10T08:08:30Z</time>
      </trkpt>
      <trkpt lat="48.7276" lon="4.58657">
        <ele>123.19</ele>
        <time>2021-08-10T08:08:48Z</time>
      </trkpt>
      <trkpt lat="48.72761" lon="4.58653">
        <ele>123.19</ele>
        <time>2021-08-10T08:09:05Z</time>
      </trkpt>
      <trkpt lat="48.7276" lon="4.58651">
        <ele>123.19</ele>
        <time>2021-08-10T08:09:17Z</time>
      </trkpt>
      <trkpt lat="48.72758" lon="4.58648">
        <ele>123.19</ele>
        <time>2021-08-10T08:09:36Z</time>
      </trkpt>
      <trkpt lat="48.72759" lon="4.58647">
        <ele>123.19</ele>
        <time>2021-08-10T08:09:50Z</time>
      </trkpt>
      <trkpt lat="48.7276" lon="4.58644">
        <ele>123.19</ele>
        <time>2021-08-10T08:10:06Z</time>
      </trkpt>
      <trkpt lat="48.72761" lon="4.58644">
        <ele>123.19</ele>
        <time>2021-08-10T08:10:22Z</time>
      </trkpt>
      <trkpt lat="48.7276" lon="4.58644">
        <ele>123.19</ele>
        <time>2021-08-10T08:10:34Z</time>
      </trkpt>
      <trkpt lat="48.7276" lon="4.58645">
        <ele>123.19</ele>
        <time>2021-08-10T08:10:47Z</time>
      </trkpt>
      <trkpt lat="48.7276" lon="4.58648">
        <ele>123.19</ele>
        <time>2021-08-10T08:11:03Z</time>
      </trkpt>
      <trkpt lat="48.72759" lon="4.58651">
        <ele>123.19</ele>
        <time>2021-08-10T08:11:16Z</time>
      </trkpt>
      <trkpt lat="48.72759" lon="4.58653">
        <ele>123.19</ele>
        <time>2021-08-10T08:11:31Z</time>
      </trkpt>
      <trkpt lat="48.72759" lon="4.5865">
        <ele>123.19</ele>
        <time>2021-08-10T08:11:46Z</time>
      </trkpt>
      <trkpt lat="48.72758" lon="4.58649">
        <ele>123.19</ele>
        <time>2021-08-10T08:11:56Z</time>
      </trkpt>
      <trkpt lat="48.72757" lon="4.58648">
        <ele>123.19</ele>
        <time>2021-08-10T08:12:06Z</time>
      </trkpt>
      <trkpt lat="48.72757" lon="4.58647">
        <ele>122.71</ele>
        <time>2021-08-10T08:12:15Z</time>
      </trkpt>
      <trkpt lat="48.7276" lon="4.58646">
        <ele>122.71</ele>
        <time>2021-08-10T08:12:27Z</time>
      </trkpt>
      <trkpt lat="48.72761" lon="4.58645">
        <ele>122.71</ele>
        <time>2021-08-10T08:12:34Z</time>
      </trkpt>
      <trkpt lat="48.72761" lon="4.58645">
        <ele>122.71</ele>
        <time>2021-08-10T08:12:43Z</time>
      </trkpt>
      <trkpt lat="48.7276" lon="4.58648">
        <ele>122.71</ele>
        <time>2021-08-10T08:12:53Z</time>
      </trkpt>
      <trkpt lat="48.7276" lon="4.5865">
        <ele>122.22</ele>
        <time>2021-08-10T08:13:01Z</time>
      </trkpt>
      <trkpt lat="48.72761" lon="4.58648">
        <ele>122.22</ele>
        <time>2021-08-10T08:13:07Z</time>
      </trkpt>
      <trkpt lat="48.72761" lon="4.58644">
        <ele>122.22</ele>
        <time>2021-08-10T08:13:13Z</time>
      </trkpt>
      <trkpt lat="48.72761" lon="4.58644">
        <ele>122.22</ele>
        <time>2021-08-10T08:13:19Z</time>
      </trkpt>
      <trkpt lat="48.72761" lon="4.5865">
        <ele>122.22</ele>
        <time>2021-08-10T08:13:34Z</time>
      </trkpt>
      <trkpt lat="48.72761" lon="4.58655">
        <ele>121.74</ele>
        <time>2021-08-10T08:13:44Z</time>
      </trkpt>
      <trkpt lat="48.72763" lon="4.58656">
        <ele>121.74</ele>
        <time>2021-08-10T08:13:56Z</time>
      </trkpt>
      <trkpt lat="48.72763" lon="4.58656">
        <ele>121.74</ele>
        <time>2021-08-10T08:14:05Z</time>
      </trkpt>
      <trkpt lat="48.72761" lon="4.58656">
        <ele>121.26</ele>
        <time>2021-08-10T08:14:16Z</time>
      </trkpt>
      <trkpt lat="48.7276" lon="4.58656">
        <ele>121.26</ele>
        <time>2021-08-10T08:14:24Z</time>
      </trkpt>
      <trkpt lat="48.7276" lon="4.58658">
        <ele>120.78</ele>
        <time>2021-08-10T08:14:38Z</time>
      </trkpt>
      <trkpt lat="48.7276" lon="4.58658">
        <ele>120.78</ele>
        <time>2021-08-10T08:14:49Z</time>
      </trkpt>
      <trkpt lat="48.72761" lon="4.58658">
        <ele>120.78</ele>
        <time>2021-08-10T08:15:00Z</time>
      </trkpt>
      <trkpt lat="48.72762" lon="4.58654">
        <ele>120.78</ele>
        <time>2021-08-10T08:15:07Z</time>
      </trkpt>
      <trkpt lat="48.72761" lon="4.58651">
        <ele>120.3</ele>
        <time>2021-08-10T08:15:23Z</time>
      </trkpt>
      <trkpt lat="48.72759" lon="4.58653">
        <ele>120.3</ele>
        <time>2021-08-10T08:15:32Z</time>
      </trkpt>
      <trkpt lat="48.72759" lon="4.58652">
        <ele>119.82</ele>
        <time>2021-08-10T08:15:42Z</time>
      </trkpt>
      <trkpt lat="48.72759" lon="4.58653">
        <ele>119.82</ele>
        <time>2021-08-10T08:15:51Z</time>
      </trkpt>
      <trkpt lat="48.72759" lon="4.58652">
        <ele>119.82</ele>
        <time>2021-08-10T08:16:02Z</time>
      </trkpt>
      <trkpt lat="48.72761" lon="4.58655">
        <ele>119.34</ele>
        <time>2021-08-10T08:16:15Z</time>
      </trkpt>
      <trkpt lat="48.7276" lon="4.58654">
        <ele>119.34</ele>
        <time>2021-08-10T08:16:27Z</time>
      </trkpt>
      <trkpt lat="48.7276" lon="4.58657">
        <ele>118.86</ele>
        <time>2021-08-10T08:16:48Z</time>
      </trkpt>
      <trkpt lat="48.72761" lon="4.58659">
        <ele>118.38</ele>
        <time>2021-08-10T08:17:10Z</time>
      </trkpt>
      <trkpt lat="48.72761" lon="4.58658">
        <ele>118.38</ele>
        <time>2021-08-10T08:17:27Z</time>
      </trkpt>
      <trkpt lat="48.72761" lon="4.58658">
        <ele>117.9</ele>
        <time>2021-08-10T08:17:44Z</time>
      </trkpt>
      <trkpt lat="48.72759" lon="4.58661">
        <ele>117.42</ele>
        <time>2021-08-10T08:18:03Z</time>
      </trkpt>
      <trkpt lat="48.72759" lon="4.58659">
        <ele>116.94</ele>
        <time>2021-08-10T08:18:29Z</time>
      </trkpt>
      <trkpt lat="48.72758" lon="4.58657">
        <ele>116.46</ele>
        <time>2021-08-10T08:18:46Z</time>
      </trkpt>
      <trkpt lat="48.72757" lon="4.58657">
        <ele>116.46</ele>
        <time>2021-08-10T08:19:06Z</time>
      </trkpt>
      <trkpt lat="48.72759" lon="4.58658">
        <ele>115.98</ele>
        <time>2021-08-10T08:19:28Z</time>
      </trkpt>
      <trkpt lat="48.72759" lon="4.58655">
        <ele>115.5</ele>
        <time>2021-08-10T08:19:42Z</time>
      </trkpt>
      <trkpt lat="48.72758" lon="4.58654">
        <ele>115.5</ele>
        <time>2021-08-10T08:19:53Z</time>
      </trkpt>
      <trkpt lat="48.72757" lon="4.58654">
        <ele>115.5</ele>
        <time>2021-08-10T08:20:02Z</time>
      </trkpt>
      <trkpt lat="48.72757" lon="4.58654">
        <ele>115.01</ele>
        <time>2021-08-10T08:20:15Z</time>
      </trkpt>
      <trkpt lat="48.72757" lon="4.58652">
        <ele>115.01</ele>
        <time>2021-08-10T08:20:27Z</time>
      </trkpt>
      <trkpt lat="48.72757" lon="4.58651">
        <ele>115.01</ele>
        <time>2021-08-10T08:20:39Z</time>
      </trkpt>
      <trkpt lat="48.72759" lon="4.58648">
        <ele>115.01</ele>
        <time>2021-08-10T08:20:51Z</time>
      </trkpt>
      <trkpt lat="48.72758" lon="4.58649">
        <ele>114.53</ele>
        <time>2021-08-10T08:21:07Z</time>
      </trkpt>
      <trkpt lat="48.72758" lon="4.58649">
        <ele>114.53</ele>
        <time>2021-08-10T08:21:21Z</time>
      </trkpt>
      <trkpt lat="48.72757" lon="4.58651">
        <ele>114.05</ele>
        <time>2021-08-10T08:21:29Z</time>
      </trkpt>
      <trkpt lat="48.72757" lon="4.58653">
        <ele>114.05</ele>
        <time>2021-08-10T08:21:37Z</time>
      </trkpt>
      <trkpt lat="48.72756" lon="4.58654">
        <ele>114.05</ele>
        <time>2021-08-10T08:21:50Z</time>
      </trkpt>
      <trkpt lat="48.72756" lon="4.58656">
        <ele>113.57</ele>
        <time>2021-08-10T08:22:03Z</time>
      </trkpt>
      <trkpt lat="48.72757" lon="4.58658">
        <ele>113.57</ele>
        <time>2021-08-10T08:22:21Z</time>
      </trkpt>
      <trkpt lat="48.72757" lon="4.5866">
        <ele>113.09</ele>
        <time>2021-08-10T08:22:35Z</time>
      </trkpt>
      <trkpt lat="48.72756" lon="4.5866">
        <ele>113.09</ele>
        <time>2021-08-10T08:22:43Z</time>
      </trkpt>
      <trkpt lat="48.72756" lon="4.58658">
        <ele>112.61</ele>
        <time>2021-08-10T08:22:57Z</time>
      </trkpt>
      <trkpt lat="48.72758" lon="4.58658">
        <ele>112.61</ele>
        <time>2021-08-10T08:23:13Z</time>
      </trkpt>
      <trkpt lat="48.7276" lon="4.58658">
        <ele>112.61</ele>
        <time>2021-08-10T08:23:33Z</time>
      </trkpt>
      <trkpt lat="48.72761" lon="4.58658">
        <ele>112.13</ele>
        <time>2021-08-10T08:23:54Z</time>
      </trkpt>
      <trkpt lat="48.72761" lon="4.58657">
        <ele>112.13</ele>
        <time>2021-08-10T08:24:09Z</time>
      </trkpt>
      <trkpt lat="48.72757" lon="4.58657">
        <ele>112.13</ele>
        <time>2021-08-10T08:24:24Z</time>
      </trkpt>
      <trkpt lat="48.72757" lon="4.58658">
        <ele>112.13</ele>
        <time>2021-08-10T08:24:36Z</time>
      </trkpt>
      <trkpt lat="48.72758" lon="4.58654">
        <ele>112.13</ele>
        <time>2021-08-10T08:24:48Z</time>
      </trkpt>
      <trkpt lat="48.72757" lon="4.58653">
        <ele>112.13</ele>
        <time>2021-08-10T08:24:54Z</time>
      </trkpt>
      <trkpt lat="48.72755" lon="4.58652">
        <ele>111.65</ele>
        <time>2021-08-10T08:25:01Z</time>
      </trkpt>
      <trkpt lat="48.72756" lon="4.58647">
        <ele>111.65</ele>
        <time>2021-08-10T08:25:08Z</time>
      </trkpt>
      <trkpt lat="48.72758" lon="4.58642">
        <ele>111.65</ele>
        <time>2021-08-10T08:25:17Z</time>
      </trkpt>
      <trkpt lat="48.72757" lon="4.5864">
        <ele>111.65</ele>
        <time>2021-08-10T08:25:24Z</time>
      </trkpt>
      <trkpt lat="48.72758" lon="4.58643">
        <ele>111.65</ele>
        <time>2021-08-10T08:25:27Z</time>
      </trkpt>
      <trkpt lat="48.72761" lon="4.58644">
        <ele>111.65</ele>
        <time>2021-08-10T08:25:28Z</time>
      </trkpt>
      <trkpt lat="48.72763" lon="4.58645">
        <ele>111.65</ele>
        <time>2021-08-10T08:25:29Z</time>
      </trkpt>
      <trkpt lat="48.72779" lon="4.58654">
        <ele>111.65</ele>
        <time>2021-08-10T08:25:36Z</time>
      </trkpt>
      <trkpt lat="48.72779" lon="4.58653">
        <ele>111.65</ele>
        <time>2021-08-10T08:25:37Z</time>
      </trkpt>
      <trkpt lat="48.72777" lon="4.58649">
        <ele>111.65</ele>
        <time>2021-08-10T08:25:38Z</time>
      </trkpt>
      <trkpt lat="48.72775" lon="4.58648">
        <ele>111.65</ele>
        <time>2021-08-10T08:25:39Z</time>
      </trkpt>
      <trkpt lat="48.72773" lon="4.58646">
        <ele>111.65</ele>
        <time>2021-08-10T08:25:40Z</time>
      </trkpt>
      <trkpt lat="48.72771" lon="4.58644">
        <ele>112.13</ele>
        <time>2021-08-10T08:25:41Z</time>
      </trkpt>
      <trkpt lat="48.72747" lon="4.58629">
        <ele>112.13</ele>
        <time>2021-08-10T08:25:50Z</time>
      </trkpt>
      <trkpt lat="48.72731" lon="4.58618">
        <ele>110.69</ele>
        <time>2021-08-10T08:25:55Z</time>
      </trkpt>
      <trkpt lat="48.72726" lon="4.58611">
        <ele>110.69</ele>
        <time>2021-08-10T08:25:57Z</time>
      </trkpt>
      <trkpt lat="48.72727" lon="4.58605">
        <ele>110.69</ele>
        <time>2021-08-10T08:25:58Z</time>
      </trkpt>
      <trkpt lat="48.72728" lon="4.58601">
        <ele>110.69</ele>
        <time>2021-08-10T08:25:59Z</time>
      </trkpt>
      <trkpt lat="48.72729" lon="4.58596">
        <ele>110.69</ele>
        <time>2021-08-10T08:26:00Z</time>
      </trkpt>
      <trkpt lat="48.72731" lon="4.58591">
        <ele>110.69</ele>
        <time>2021-08-10T08:26:01Z</time>
      </trkpt>
      <trkpt lat="48.72736" lon="4.58571">
        <ele>110.69</ele>
        <time>2021-08-10T08:26:07Z</time>
      </trkpt>
      <trkpt lat="48.72737" lon="4.58563">
        <ele>110.69</ele>
        <time>2021-08-10T08:26:15Z</time>
      </trkpt>
      <trkpt lat="48.72743" lon="4.58538">
        <ele>110.69</ele>
        <time>2021-08-10T08:26:20Z</time>
      </trkpt>
      <trkpt lat="48.72757" lon="4.58486">
        <ele>110.21</ele>
        <time>2021-08-10T08:26:29Z</time>
      </trkpt>
      <trkpt lat="48.72758" lon="4.58467">
        <ele>110.21</ele>
        <time>2021-08-10T08:26:33Z</time>
      </trkpt>
      <trkpt lat="48.7276" lon="4.58465">
        <ele>110.69</ele>
        <time>2021-08-10T08:26:40Z</time>
      </trkpt>
      <trkpt lat="48.72768" lon="4.58465">
        <ele>110.69</ele>
        <time>2021-08-10T08:26:58Z</time>
      </trkpt>
      <trkpt lat="48.72773" lon="4.58469">
        <ele>110.69</ele>
        <time>2021-08-10T08:27:22Z</time>
      </trkpt>
      <trkpt lat="48.7278" lon="4.58467">
        <ele>110.69</ele>
        <time>2021-08-10T08:27:42Z</time>
      </trkpt>
      <trkpt lat="48.7278" lon="4.58469">
        <ele>110.69</ele>
        <time>2021-08-10T08:28:01Z</time>
      </trkpt>
      <trkpt lat="48.72786" lon="4.58472">
        <ele>110.69</ele>
        <time>2021-08-10T08:28:22Z</time>
      </trkpt>
      <trkpt lat="48.72785" lon="4.58472">
        <ele>110.69</ele>
        <time>2021-08-10T08:28:39Z</time>
      </trkpt>
      <trkpt lat="48.72779" lon="4.58472">
        <ele>110.69</ele>
        <time>2021-08-10T08:28:51Z</time>
      </trkpt>
      <trkpt lat="48.72778" lon="4.58473">
        <ele>110.69</ele>
        <time>2021-08-10T08:28:54Z</time>
      </trkpt>
      <trkpt lat="48.72767" lon="4.58486">
        <ele>109.73</ele>
        <time>2021-08-10T08:29:00Z</time>
      </trkpt>
      <trkpt lat="48.7276" lon="4.58506">
        <ele>110.21</ele>
        <time>2021-08-10T08:29:07Z</time>
      </trkpt>
      <trkpt lat="48.72759" lon="4.58507">
        <ele>110.21</ele>
        <time>2021-08-10T08:29:08Z</time>
      </trkpt>
      <trkpt lat="48.7276" lon="4.58509">
        <ele>110.21</ele>
        <time>2021-08-10T08:29:14Z</time>
      </trkpt>
      <trkpt lat="48.72759" lon="4.58519">
        <ele>110.21</ele>
        <time>2021-08-10T08:29:25Z</time>
      </trkpt>
      <trkpt lat="48.72755" lon="4.58545">
        <ele>110.21</ele>
        <time>2021-08-10T08:29:30Z</time>
      </trkpt>
      <trkpt lat="48.72744" lon="4.58593">
        <ele>110.21</ele>
        <time>2021-08-10T08:29:39Z</time>
      </trkpt>
      <trkpt lat="48.72737" lon="4.58608">
        <ele>111.17</ele>
        <time>2021-08-10T08:29:43Z</time>
      </trkpt>
      <trkpt lat="48.72729" lon="4.58607">
        <ele>111.17</ele>
        <time>2021-08-10T08:29:44Z</time>
      </trkpt>
      <trkpt lat="48.72724" lon="4.58605">
        <ele>111.17</ele>
        <time>2021-08-10T08:29:45Z</time>
      </trkpt>
      <trkpt lat="48.72719" lon="4.58603">
        <ele>111.17</ele>
        <time>2021-08-10T08:29:46Z</time>
      </trkpt>
      <trkpt lat="48.72715" lon="4.586">
        <ele>111.17</ele>
        <time>2021-08-10T08:29:47Z</time>
      </trkpt>
      <trkpt lat="48.72696" lon="4.58589">
        <ele>111.65</ele>
        <time>2021-08-10T08:29:54Z</time>
      </trkpt>
      <trkpt lat="48.72693" lon="4.58587">
        <ele>111.65</ele>
        <time>2021-08-10T08:29:56Z</time>
      </trkpt>
      <trkpt lat="48.72691" lon="4.58585">
        <ele>111.65</ele>
        <time>2021-08-10T08:29:57Z</time>
      </trkpt>
      <trkpt lat="48.7268" lon="4.58579">
        <ele>111.65</ele>
        <time>2021-08-10T08:30:02Z</time>
      </trkpt>
      <trkpt lat="48.72677" lon="4.58576">
        <ele>111.65</ele>
        <time>2021-08-10T08:30:03Z</time>
      </trkpt>
      <trkpt lat="48.72674" lon="4.58572">
        <ele>111.65</ele>
        <time>2021-08-10T08:30:04Z</time>
      </trkpt>
      <trkpt lat="48.7267" lon="4.5857">
        <ele>111.65</ele>
        <time>2021-08-10T08:30:05Z</time>
      </trkpt>
      <trkpt lat="48.72667" lon="4.58567">
        <ele>111.65</ele>
        <time>2021-08-10T08:30:06Z</time>
      </trkpt>
      <trkpt lat="48.72649" lon="4.58555">
        <ele>111.65</ele>
        <time>2021-08-10T08:30:11Z</time>
      </trkpt>
      <trkpt lat="48.72647" lon="4.5855">
        <ele>111.65</ele>
        <time>2021-08-10T08:30:12Z</time>
      </trkpt>
      <trkpt lat="48.72646" lon="4.58545">
        <ele>111.65</ele>
        <time>2021-08-10T08:30:13Z</time>
      </trkpt>
      <trkpt lat="48.72646" lon="4.58542">
        <ele>111.65</ele>
        <time>2021-08-10T08:30:14Z</time>
      </trkpt>
      <trkpt lat="48.72646" lon="4.58539">
        <ele>111.65</ele>
        <time>2021-08-10T08:30:15Z</time>
      </trkpt>
      <trkpt lat="48.72651" lon="4.58516">
        <ele>111.65</ele>
        <time>2021-08-10T08:30:20Z</time>
      </trkpt>
      <trkpt lat="48.72653" lon="4.58496">
        <ele>111.65</ele>
        <time>2021-08-10T08:30:24Z</time>
      </trkpt>
      <trkpt lat="48.72651" lon="4.58493">
        <ele>111.65</ele>
        <time>2021-08-10T08:30:25Z</time>
      </trkpt>
      <trkpt lat="48.72622" lon="4.58472">
        <ele>110.21</ele>
        <time>2021-08-10T08:30:33Z</time>
      </trkpt>
      <trkpt lat="48.72621" lon="4.58466">
        <ele>110.21</ele>
        <time>2021-08-10T08:30:34Z</time>
      </trkpt>
      <trkpt lat="48.72621" lon="4.58462">
        <ele>110.21</ele>
        <time>2021-08-10T08:30:35Z</time>
      </trkpt>
      <trkpt lat="48.72623" lon="4.58457">
        <ele>110.21</ele>
        <time>2021-08-10T08:30:36Z</time>
      </trkpt>
      <trkpt lat="48.72628" lon="4.58441">
        <ele>110.21</ele>
        <time>2021-08-10T08:30:39Z</time>
      </trkpt>
      <trkpt lat="48.72643" lon="4.5839">
        <ele>110.21</ele>
        <time>2021-08-10T08:30:47Z</time>
      </trkpt>
      <trkpt lat="48.72663" lon="4.58313">
        <ele>109.73</ele>
        <time>2021-08-10T08:30:58Z</time>
      </trkpt>
      <trkpt lat="48.72686" lon="4.58228">
        <ele>108.77</ele>
        <time>2021-08-10T08:31:09Z</time>
      </trkpt>
      <trkpt lat="48.72707" lon="4.58173">
        <ele>108.77</ele>
        <time>2021-08-10T08:31:17Z</time>
      </trkpt>
      <trkpt lat="48.7271" lon="4.58169">
        <ele>108.77</ele>
        <time>2021-08-10T08:31:18Z</time>
      </trkpt>
      <trkpt lat="48.72713" lon="4.58164">
        <ele>108.77</ele>
        <time>2021-08-10T08:31:19Z</time>
      </trkpt>
      <trkpt lat="48.72719" lon="4.58159">
        <ele>108.77</ele>
        <time>2021-08-10T08:31:20Z</time>
      </trkpt>
      <trkpt lat="48.72722" lon="4.58155">
        <ele>108.77</ele>
        <time>2021-08-10T08:31:21Z</time>
      </trkpt>
      <trkpt lat="48.72724" lon="4.58148">
        <ele>108.77</ele>
        <time>2021-08-10T08:31:22Z</time>
      </trkpt>
      <trkpt lat="48.72726" lon="4.5814">
        <ele>108.77</ele>
        <time>2021-08-10T08:31:23Z</time>
      </trkpt>
      <trkpt lat="48.72727" lon="4.58133">
        <ele>108.77</ele>
        <time>2021-08-10T08:31:24Z</time>
      </trkpt>
      <trkpt lat="48.72728" lon="4.58123">
        <ele>108.77</ele>
        <time>2021-08-10T08:31:25Z</time>
      </trkpt>
      <trkpt lat="48.72728" lon="4.58117">
        <ele>108.77</ele>
        <time>2021-08-10T08:31:26Z</time>
      </trkpt>
      <trkpt lat="48.72739" lon="4.58061">
        <ele>108.77</ele>
        <time>2021-08-10T08:31:33Z</time>
      </trkpt>
      <trkpt lat="48.72762" lon="4.57981">
        <ele>108.77</ele>
        <time>2021-08-10T08:31:43Z</time>
      </trkpt>
      <trkpt lat="48.72792" lon="4.57881">
        <ele>108.29</ele>
        <time>2021-08-10T08:31:55Z</time>
      </trkpt>
      <trkpt lat="48.72815" lon="4.57802">
        <ele>108.29</ele>
        <time>2021-08-10T08:32:05Z</time>
      </trkpt>
      <trkpt lat="48.72835" lon="4.57732">
        <ele>110.69</ele>
        <time>2021-08-10T08:32:15Z</time>
      </trkpt>
      <trkpt lat="48.72841" lon="4.5771">
        <ele>110.69</ele>
        <time>2021-08-10T08:32:18Z</time>
      </trkpt>
      <trkpt lat="48.72864" lon="4.57631">
        <ele>110.69</ele>
        <time>2021-08-10T08:32:29Z</time>
      </trkpt>
      <trkpt lat="48.72883" lon="4.57565">
        <ele>109.25</ele>
        <time>2021-08-10T08:32:37Z</time>
      </trkpt>
      <trkpt lat="48.72892" lon="4.57533">
        <ele>109.25</ele>
        <time>2021-08-10T08:32:42Z</time>
      </trkpt>
      <trkpt lat="48.72891" lon="4.57529">
        <ele>109.25</ele>
        <time>2021-08-10T08:32:43Z</time>
      </trkpt>
      <trkpt lat="48.72888" lon="4.57528">
        <ele>108.77</ele>
        <time>2021-08-10T08:32:44Z</time>
      </trkpt>
      <trkpt lat="48.72886" lon="4.5753">
        <ele>108.29</ele>
        <time>2021-08-10T08:32:45Z</time>
      </trkpt>
      <trkpt lat="48.72884" lon="4.57534">
        <ele>108.29</ele>
        <time>2021-08-10T08:32:46Z</time>
      </trkpt>
      <trkpt lat="48.72883" lon="4.57539">
        <ele>108.77</ele>
        <time>2021-08-10T08:32:47Z</time>
      </trkpt>
      <trkpt lat="48.72871" lon="4.57586">
        <ele>108.29</ele>
        <time>2021-08-10T08:32:55Z</time>
      </trkpt>
      <trkpt lat="48.72866" lon="4.57597">
        <ele>108.29</ele>
        <time>2021-08-10T08:32:58Z</time>
      </trkpt>
      <trkpt lat="48.72864" lon="4.57595">
        <ele>108.29</ele>
        <time>2021-08-10T08:32:59Z</time>
      </trkpt>
      <trkpt lat="48.72864" lon="4.57591">
        <ele>108.29</ele>
        <time>2021-08-10T08:33:00Z</time>
      </trkpt>
      <trkpt lat="48.72865" lon="4.57586">
        <ele>108.29</ele>
        <time>2021-08-10T08:33:01Z</time>
      </trkpt>
      <trkpt lat="48.72866" lon="4.57581">
        <ele>108.29</ele>
        <time>2021-08-10T08:33:02Z</time>
      </trkpt>
      <trkpt lat="48.72877" lon="4.57553">
        <ele>108.29</ele>
        <time>2021-08-10T08:33:08Z</time>
      </trkpt>
      <trkpt lat="48.72878" lon="4.57547">
        <ele>108.29</ele>
        <time>2021-08-10T08:33:09Z</time>
      </trkpt>
      <trkpt lat="48.72879" lon="4.57541">
        <ele>108.29</ele>
        <time>2021-08-10T08:33:10Z</time>
      </trkpt>
      <trkpt lat="48.7288" lon="4.57535">
        <ele>108.29</ele>
        <time>2021-08-10T08:33:11Z</time>
      </trkpt>
      <trkpt lat="48.72878" lon="4.57528">
        <ele>108.29</ele>
        <time>2021-08-10T08:33:12Z</time>
      </trkpt>
      <trkpt lat="48.72876" lon="4.5752">
        <ele>107.81</ele>
        <time>2021-08-10T08:33:13Z</time>
      </trkpt>
      <trkpt lat="48.72874" lon="4.57515">
        <ele>107.81</ele>
        <time>2021-08-10T08:33:14Z</time>
      </trkpt>
      <trkpt lat="48.72862" lon="4.57481">
        <ele>107.32</ele>
        <time>2021-08-10T08:33:19Z</time>
      </trkpt>
      <trkpt lat="48.72858" lon="4.57475">
        <ele>107.32</ele>
        <time>2021-08-10T08:33:20Z</time>
      </trkpt>
      <trkpt lat="48.72847" lon="4.57464">
        <ele>107.32</ele>
        <time>2021-08-10T08:33:23Z</time>
      </trkpt>
      <trkpt lat="48.72843" lon="4.57461">
        <ele>107.32</ele>
        <time>2021-08-10T08:33:24Z</time>
      </trkpt>
      <trkpt lat="48.72838" lon="4.57458">
        <ele>106.84</ele>
        <time>2021-08-10T08:33:28Z</time>
      </trkpt>
      <trkpt lat="48.72838" lon="4.57462">
        <ele>106.84</ele>
        <time>2021-08-10T08:33:48Z</time>
      </trkpt>
      <trkpt lat="48.72838" lon="4.57464">
        <ele>106.84</ele>
        <time>2021-08-10T08:34:03Z</time>
      </trkpt>
      <trkpt lat="48.72832" lon="4.57461">
        <ele>106.84</ele>
        <time>2021-08-10T08:34:12Z</time>
      </trkpt>
      <trkpt lat="48.72826" lon="4.57456">
        <ele>106.84</ele>
        <time>2021-08-10T08:34:14Z</time>
      </trkpt>
      <trkpt lat="48.72822" lon="4.57453">
        <ele>106.84</ele>
        <time>2021-08-10T08:34:15Z</time>
      </trkpt>
      <trkpt lat="48.72818" lon="4.57451">
        <ele>106.84</ele>
        <time>2021-08-10T08:34:16Z</time>
      </trkpt>
      <trkpt lat="48.72814" lon="4.57448">
        <ele>106.84</ele>
        <time>2021-08-10T08:34:17Z</time>
      </trkpt>
      <trkpt lat="48.72809" lon="4.57445">
        <ele>106.84</ele>
        <time>2021-08-10T08:34:18Z</time>
      </trkpt>
      <trkpt lat="48.728" lon="4.5744">
        <ele>106.36</ele>
        <time>2021-08-10T08:34:20Z</time>
      </trkpt>
      <trkpt lat="48.72795" lon="4.57438">
        <ele>106.36</ele>
        <time>2021-08-10T08:34:21Z</time>
      </trkpt>
      <trkpt lat="48.72774" lon="4.57428">
        <ele>106.36</ele>
        <time>2021-08-10T08:34:26Z</time>
      </trkpt>
      <trkpt lat="48.72752" lon="4.57422">
        <ele>106.36</ele>
        <time>2021-08-10T08:34:30Z</time>
      </trkpt>
      <trkpt lat="48.72746" lon="4.57421">
        <ele>106.36</ele>
        <time>2021-08-10T08:34:31Z</time>
      </trkpt>
      <trkpt lat="48.72741" lon="4.5742">
        <ele>106.36</ele>
        <time>2021-08-10T08:34:32Z</time>
      </trkpt>
      <trkpt lat="48.72736" lon="4.57419">
        <ele>106.36</ele>
        <time>2021-08-10T08:34:33Z</time>
      </trkpt>
      <trkpt lat="48.72731" lon="4.57418">
        <ele>106.36</ele>
        <time>2021-08-10T08:34:34Z</time>
      </trkpt>
      <trkpt lat="48.72725" lon="4.57417">
        <ele>106.36</ele>
        <time>2021-08-10T08:34:35Z</time>
      </trkpt>
      <trkpt lat="48.72684" lon="4.57415">
        <ele>106.36</ele>
        <time>2021-08-10T08:34:43Z</time>
      </trkpt>
      <trkpt lat="48.72679" lon="4.57415">
        <ele>106.36</ele>
        <time>2021-08-10T08:34:44Z</time>
      </trkpt>
      <trkpt lat="48.72674" lon="4.57414">
        <ele>106.36</ele>
        <time>2021-08-10T08:34:45Z</time>
      </trkpt>
      <trkpt lat="48.72669" lon="4.57413">
        <ele>105.88</ele>
        <time>2021-08-10T08:34:46Z</time>
      </trkpt>
      <trkpt lat="48.72665" lon="4.57413">
        <ele>105.88</ele>
        <time>2021-08-10T08:34:47Z</time>
      </trkpt>
      <trkpt lat="48.7266" lon="4.57413">
        <ele>105.88</ele>
        <time>2021-08-10T08:34:48Z</time>
      </trkpt>
      <trkpt lat="48.72656" lon="4.57413">
        <ele>105.88</ele>
        <time>2021-08-10T08:34:49Z</time>
      </trkpt>
      <trkpt lat="48.72652" lon="4.5741">
        <ele>105.88</ele>
        <time>2021-08-10T08:34:50Z</time>
      </trkpt>
      <trkpt lat="48.72648" lon="4.57407">
        <ele>105.88</ele>
        <time>2021-08-10T08:34:51Z</time>
      </trkpt>
      <trkpt lat="48.72645" lon="4.57403">
        <ele>105.88</ele>
        <time>2021-08-10T08:34:52Z</time>
      </trkpt>
      <trkpt lat="48.72641" lon="4.574">
        <ele>105.88</ele>
        <time>2021-08-10T08:34:53Z</time>
      </trkpt>
      <trkpt lat="48.72638" lon="4.57397">
        <ele>105.88</ele>
        <time>2021-08-10T08:34:54Z</time>
      </trkpt>
      <trkpt lat="48.72635" lon="4.57392">
        <ele>105.88</ele>
        <time>2021-08-10T08:34:55Z</time>
      </trkpt>
      <trkpt lat="48.72633" lon="4.57388">
        <ele>105.88</ele>
        <time>2021-08-10T08:34:56Z</time>
      </trkpt>
      <trkpt lat="48.72613" lon="4.57363">
        <ele>105.4</ele>
        <time>2021-08-10T08:35:03Z</time>
      </trkpt>
      <trkpt lat="48.72597" lon="4.57332">
        <ele>105.4</ele>
        <time>2021-08-10T08:35:10Z</time>
      </trkpt>
      <trkpt lat="48.7259" lon="4.573">
        <ele>105.4</ele>
        <time>2021-08-10T08:35:16Z</time>
      </trkpt>
      <trkpt lat="48.72582" lon="4.57272">
        <ele>105.4</ele>
        <time>2021-08-10T08:35:21Z</time>
      </trkpt>
      <trkpt lat="48.72581" lon="4.57266">
        <ele>105.4</ele>
        <time>2021-08-10T08:35:22Z</time>
      </trkpt>
      <trkpt lat="48.72579" lon="4.57253">
        <ele>105.4</ele>
        <time>2021-08-10T08:35:24Z</time>
      </trkpt>
      <trkpt lat="48.72561" lon="4.57198">
        <ele>105.4</ele>
        <time>2021-08-10T08:35:33Z</time>
      </trkpt>
      <trkpt lat="48.7256" lon="4.57192">
        <ele>105.4</ele>
        <time>2021-08-10T08:35:34Z</time>
      </trkpt>
      <trkpt lat="48.72558" lon="4.57186">
        <ele>105.4</ele>
        <time>2021-08-10T08:35:35Z</time>
      </trkpt>
      <trkpt lat="48.72556" lon="4.5718">
        <ele>105.4</ele>
        <time>2021-08-10T08:35:36Z</time>
      </trkpt>
      <trkpt lat="48.72555" lon="4.57174">
        <ele>105.4</ele>
        <time>2021-08-10T08:35:37Z</time>
      </trkpt>
      <trkpt lat="48.72553" lon="4.57168">
        <ele>105.4</ele>
        <time>2021-08-10T08:35:38Z</time>
      </trkpt>
      <trkpt lat="48.72552" lon="4.57163">
        <ele>105.4</ele>
        <time>2021-08-10T08:35:39Z</time>
      </trkpt>
      <trkpt lat="48.7255" lon="4.57157">
        <ele>105.4</ele>
        <time>2021-08-10T08:35:40Z</time>
      </trkpt>
      <trkpt lat="48.72541" lon="4.57128">
        <ele>105.4</ele>
        <time>2021-08-10T08:35:45Z</time>
      </trkpt>
      <trkpt lat="48.72523" lon="4.57061">
        <ele>105.4</ele>
        <time>2021-08-10T08:35:56Z</time>
      </trkpt>
      <trkpt lat="48.72513" lon="4.57024">
        <ele>105.4</ele>
        <time>2021-08-10T08:36:02Z</time>
      </trkpt>
      <trkpt lat="48.72502" lon="4.56986">
        <ele>105.4</ele>
        <time>2021-08-10T08:36:08Z</time>
      </trkpt>
      <trkpt lat="48.72501" lon="4.56979">
        <ele>105.4</ele>
        <time>2021-08-10T08:36:09Z</time>
      </trkpt>
      <trkpt lat="48.72499" lon="4.56958">
        <ele>105.4</ele>
        <time>2021-08-10T08:36:12Z</time>
      </trkpt>
      <trkpt lat="48.72498" lon="4.56951">
        <ele>105.4</ele>
        <time>2021-08-10T08:36:13Z</time>
      </trkpt>
      <trkpt lat="48.72497" lon="4.56944">
        <ele>105.4</ele>
        <time>2021-08-10T08:36:14Z</time>
      </trkpt>
      <trkpt lat="48.72496" lon="4.56938">
        <ele>105.4</ele>
        <time>2021-08-10T08:36:15Z</time>
      </trkpt>
      <trkpt lat="48.72495" lon="4.56931">
        <ele>105.4</ele>
        <time>2021-08-10T08:36:16Z</time>
      </trkpt>
      <trkpt lat="48.72484" lon="4.56862">
        <ele>105.4</ele>
        <time>2021-08-10T08:36:26Z</time>
      </trkpt>
      <trkpt lat="48.72475" lon="4.56824">
        <ele>105.4</ele>
        <time>2021-08-10T08:36:34Z</time>
      </trkpt>
      <trkpt lat="48.72474" lon="4.56819">
        <ele>105.4</ele>
        <time>2021-08-10T08:36:36Z</time>
      </trkpt>
      <trkpt lat="48.72474" lon="4.56817">
        <ele>105.4</ele>
        <time>2021-08-10T08:36:37Z</time>
      </trkpt>
      <trkpt lat="48.72475" lon="4.56815">
        <ele>105.4</ele>
        <time>2021-08-10T08:36:38Z</time>
      </trkpt>
      <trkpt lat="48.72482" lon="4.56807">
        <ele>106.36</ele>
        <time>2021-08-10T08:36:44Z</time>
      </trkpt>
      <trkpt lat="48.7248" lon="4.56799">
        <ele>107.81</ele>
        <time>2021-08-10T08:36:52Z</time>
      </trkpt>
      <trkpt lat="48.7248" lon="4.56792">
        <ele>109.73</ele>
        <time>2021-08-10T08:36:59Z</time>
      </trkpt>
      <trkpt lat="48.72479" lon="4.5679">
        <ele>109.73</ele>
        <time>2021-08-10T08:37:01Z</time>
      </trkpt>
      <trkpt lat="48.72475" lon="4.56784">
        <ele>109.73</ele>
        <time>2021-08-10T08:37:08Z</time>
      </trkpt>
      <trkpt lat="48.72472" lon="4.56781">
        <ele>108.29</ele>
        <time>2021-08-10T08:37:14Z</time>
      </trkpt>
      <trkpt lat="48.72472" lon="4.56781">
        <ele>107.81</ele>
        <time>2021-08-10T08:37:22Z</time>
      </trkpt>
      <trkpt lat="48.72471" lon="4.56781">
        <ele>106.84</ele>
        <time>2021-08-10T08:37:31Z</time>
      </trkpt>
      <trkpt lat="48.7247" lon="4.56779">
        <ele>106.36</ele>
        <time>2021-08-10T08:37:39Z</time>
      </trkpt>
      <trkpt lat="48.72469" lon="4.56776">
        <ele>105.88</ele>
        <time>2021-08-10T08:37:47Z</time>
      </trkpt>
      <trkpt lat="48.72466" lon="4.56778">
        <ele>105.4</ele>
        <time>2021-08-10T08:37:54Z</time>
      </trkpt>
      <trkpt lat="48.72463" lon="4.56783">
        <ele>105.4</ele>
        <time>2021-08-10T08:38:01Z</time>
      </trkpt>
      <trkpt lat="48.7246" lon="4.56783">
        <ele>104.92</ele>
        <time>2021-08-10T08:38:07Z</time>
      </trkpt>
      <trkpt lat="48.72459" lon="4.56783">
        <ele>104.92</ele>
        <time>2021-08-10T08:38:08Z</time>
      </trkpt>
      <trkpt lat="48.72452" lon="4.56773">
        <ele>104.92</ele>
        <time>2021-08-10T08:38:15Z</time>
      </trkpt>
      <trkpt lat="48.72451" lon="4.5677">
        <ele>104.92</ele>
        <time>2021-08-10T08:38:16Z</time>
      </trkpt>
      <trkpt lat="48.72449" lon="4.56767">
        <ele>104.92</ele>
        <time>2021-08-10T08:38:17Z</time>
      </trkpt>
      <trkpt lat="48.72448" lon="4.56764">
        <ele>104.92</ele>
        <time>2021-08-10T08:38:18Z</time>
      </trkpt>
      <trkpt lat="48.72446" lon="4.56761">
        <ele>104.92</ele>
        <time>2021-08-10T08:38:19Z</time>
      </trkpt>
      <trkpt lat="48.72445" lon="4.56757">
        <ele>104.92</ele>
        <time>2021-08-10T08:38:20Z</time>
      </trkpt>
      <trkpt lat="48.72443" lon="4.56753">
        <ele>104.92</ele>
        <time>2021-08-10T08:38:21Z</time>
      </trkpt>
      <trkpt lat="48.72442" lon="4.56748">
        <ele>104.92</ele>
        <time>2021-08-10T08:38:22Z</time>
      </trkpt>
      <trkpt lat="48.72435" lon="4.56723">
        <ele>104.92</ele>
        <time>2021-08-10T08:38:28Z</time>
      </trkpt>
      <trkpt lat="48.72436" lon="4.56718">
        <ele>104.92</ele>
        <time>2021-08-10T08:38:29Z</time>
      </trkpt>
      <trkpt lat="48.72437" lon="4.56714">
        <ele>104.92</ele>
        <time>2021-08-10T08:38:30Z</time>
      </trkpt>
      <trkpt lat="48.72439" lon="4.5671">
        <ele>104.92</ele>
        <time>2021-08-10T08:38:31Z</time>
      </trkpt>
      <trkpt lat="48.72441" lon="4.56707">
        <ele>105.88</ele>
        <time>2021-08-10T08:38:32Z</time>
      </trkpt>
      <trkpt lat="48.72444" lon="4.56704">
        <ele>105.88</ele>
        <time>2021-08-10T08:38:33Z</time>
      </trkpt>
      <trkpt lat="48.72448" lon="4.56703">
        <ele>105.88</ele>
        <time>2021-08-10T08:38:34Z</time>
      </trkpt>
      <trkpt lat="48.72452" lon="4.56701">
        <ele>105.88</ele>
        <time>2021-08-10T08:38:35Z</time>
      </trkpt>
      <trkpt lat="48.72481" lon="4.5669">
        <ele>105.88</ele>
        <time>2021-08-10T08:38:42Z</time>
      </trkpt>
      <trkpt lat="48.72522" lon="4.56666">
        <ele>105.88</ele>
        <time>2021-08-10T08:38:51Z</time>
      </trkpt>
      <trkpt lat="48.7257" lon="4.56634">
        <ele>105.88</ele>
        <time>2021-08-10T08:39:02Z</time>
      </trkpt>
      <trkpt lat="48.72614" lon="4.56598">
        <ele>105.88</ele>
        <time>2021-08-10T08:39:12Z</time>
      </trkpt>
      <trkpt lat="48.72658" lon="4.56554">
        <ele>105.88</ele>
        <time>2021-08-10T08:39:23Z</time>
      </trkpt>
      <trkpt lat="48.72707" lon="4.56488">
        <ele>105.88</ele>
        <time>2021-08-10T08:39:36Z</time>
      </trkpt>
      <trkpt lat="48.72719" lon="4.56473">
        <ele>105.88</ele>
        <time>2021-08-10T08:39:39Z</time>
      </trkpt>
      <trkpt lat="48.72722" lon="4.56467">
        <ele>105.88</ele>
        <time>2021-08-10T08:39:40Z</time>
      </trkpt>
      <trkpt lat="48.72725" lon="4.56461">
        <ele>105.88</ele>
        <time>2021-08-10T08:39:41Z</time>
      </trkpt>
      <trkpt lat="48.72727" lon="4.56454">
        <ele>105.88</ele>
        <time>2021-08-10T08:39:42Z</time>
      </trkpt>
      <trkpt lat="48.72728" lon="4.56446">
        <ele>105.88</ele>
        <time>2021-08-10T08:39:43Z</time>
      </trkpt>
      <trkpt lat="48.72728" lon="4.56438">
        <ele>105.88</ele>
        <time>2021-08-10T08:39:44Z</time>
      </trkpt>
      <trkpt lat="48.72728" lon="4.56431">
        <ele>105.88</ele>
        <time>2021-08-10T08:39:45Z</time>
      </trkpt>
      <trkpt lat="48.72727" lon="4.56422">
        <ele>105.88</ele>
        <time>2021-08-10T08:39:46Z</time>
      </trkpt>
      <trkpt lat="48.72719" lon="4.56332">
        <ele>105.88</ele>
        <time>2021-08-10T08:39:58Z</time>
      </trkpt>
      <trkpt lat="48.72714" lon="4.56248">
        <ele>105.88</ele>
        <time>2021-08-10T08:40:09Z</time>
      </trkpt>
      <trkpt lat="48.72711" lon="4.56178">
        <ele>104.44</ele>
        <time>2021-08-10T08:40:18Z</time>
      </trkpt>
      <trkpt lat="48.72706" lon="4.56081">
        <ele>104.44</ele>
        <time>2021-08-10T08:40:30Z</time>
      </trkpt>
      <trkpt lat="48.727" lon="4.56014">
        <ele>104.44</ele>
        <time>2021-08-10T08:40:39Z</time>
      </trkpt>
      <trkpt lat="48.72695" lon="4.55968">
        <ele>104.44</ele>
        <time>2021-08-10T08:40:46Z</time>
      </trkpt>
      <trkpt lat="48.72694" lon="4.55961">
        <ele>104.44</ele>
        <time>2021-08-10T08:40:48Z</time>
      </trkpt>
      <trkpt lat="48.72695" lon="4.55959">
        <ele>104.44</ele>
        <time>2021-08-10T08:40:49Z</time>
      </trkpt>
      <trkpt lat="48.72696" lon="4.55955">
        <ele>104.44</ele>
        <time>2021-08-10T08:40:54Z</time>
      </trkpt>
      <trkpt lat="48.72695" lon="4.55953">
        <ele>104.44</ele>
        <time>2021-08-10T08:40:55Z</time>
      </trkpt>
      <trkpt lat="48.72693" lon="4.55928">
        <ele>104.44</ele>
        <time>2021-08-10T08:41:01Z</time>
      </trkpt>
      <trkpt lat="48.72691" lon="4.55923">
        <ele>104.44</ele>
        <time>2021-08-10T08:41:05Z</time>
      </trkpt>
      <trkpt lat="48.72691" lon="4.55921">
        <ele>104.44</ele>
        <time>2021-08-10T08:41:06Z</time>
      </trkpt>
      <trkpt lat="48.72691" lon="4.55919">
        <ele>104.44</ele>
        <time>2021-08-10T08:41:07Z</time>
      </trkpt>
      <trkpt lat="48.72689" lon="4.55895">
        <ele>104.44</ele>
        <time>2021-08-10T08:41:13Z</time>
      </trkpt>
      <trkpt lat="48.72685" lon="4.55864">
        <ele>104.44</ele>
        <time>2021-08-10T08:41:18Z</time>
      </trkpt>
      <trkpt lat="48.72683" lon="4.55857">
        <ele>104.44</ele>
        <time>2021-08-10T08:41:19Z</time>
      </trkpt>
      <trkpt lat="48.72666" lon="4.55788">
        <ele>104.44</ele>
        <time>2021-08-10T08:41:29Z</time>
      </trkpt>
      <trkpt lat="48.72648" lon="4.5572">
        <ele>105.88</ele>
        <time>2021-08-10T08:41:39Z</time>
      </trkpt>
      <trkpt lat="48.72627" lon="4.55651">
        <ele>106.84</ele>
        <time>2021-08-10T08:41:50Z</time>
      </trkpt>
      <trkpt lat="48.72605" lon="4.55579">
        <ele>107.32</ele>
        <time>2021-08-10T08:42:01Z</time>
      </trkpt>
      <trkpt lat="48.72587" lon="4.55521">
        <ele>107.32</ele>
        <time>2021-08-10T08:42:10Z</time>
      </trkpt>
      <trkpt lat="48.72576" lon="4.55483">
        <ele>107.81</ele>
        <time>2021-08-10T08:42:16Z</time>
      </trkpt>
      <trkpt lat="48.72573" lon="4.55446">
        <ele>108.77</ele>
        <time>2021-08-10T08:42:23Z</time>
      </trkpt>
      <trkpt lat="48.72573" lon="4.55444">
        <ele>108.77</ele>
        <time>2021-08-10T08:42:27Z</time>
      </trkpt>
      <trkpt lat="48.72574" lon="4.55441">
        <ele>108.77</ele>
        <time>2021-08-10T08:42:28Z</time>
      </trkpt>
      <trkpt lat="48.72574" lon="4.55438">
        <ele>108.77</ele>
        <time>2021-08-10T08:42:29Z</time>
      </trkpt>
      <trkpt lat="48.72575" lon="4.554">
        <ele>108.77</ele>
        <time>2021-08-10T08:42:35Z</time>
      </trkpt>
      <trkpt lat="48.72577" lon="4.55321">
        <ele>108.77</ele>
        <time>2021-08-10T08:42:46Z</time>
      </trkpt>
      <trkpt lat="48.72576" lon="4.55307">
        <ele>109.25</ele>
        <time>2021-08-10T08:42:48Z</time>
      </trkpt>
      <trkpt lat="48.72575" lon="4.553">
        <ele>109.25</ele>
        <time>2021-08-10T08:42:49Z</time>
      </trkpt>
      <trkpt lat="48.72574" lon="4.55294">
        <ele>109.25</ele>
        <time>2021-08-10T08:42:50Z</time>
      </trkpt>
      <trkpt lat="48.72572" lon="4.55288">
        <ele>109.25</ele>
        <time>2021-08-10T08:42:51Z</time>
      </trkpt>
      <trkpt lat="48.72571" lon="4.55282">
        <ele>109.25</ele>
        <time>2021-08-10T08:42:52Z</time>
      </trkpt>
      <trkpt lat="48.72553" lon="4.55222">
        <ele>111.17</ele>
        <time>2021-08-10T08:43:02Z</time>
      </trkpt>
      <trkpt lat="48.72538" lon="4.55169">
        <ele>111.17</ele>
        <time>2021-08-10T08:43:11Z</time>
      </trkpt>
      <trkpt lat="48.72522" lon="4.55107">
        <ele>112.61</ele>
        <time>2021-08-10T08:43:21Z</time>
      </trkpt>
      <trkpt lat="48.72508" lon="4.55051">
        <ele>112.61</ele>
        <time>2021-08-10T08:43:30Z</time>
      </trkpt>
      <trkpt lat="48.72494" lon="4.54989">
        <ele>113.09</ele>
        <time>2021-08-10T08:43:40Z</time>
      </trkpt>
      <trkpt lat="48.72489" lon="4.54965">
        <ele>113.57</ele>
        <time>2021-08-10T08:43:44Z</time>
      </trkpt>
      <trkpt lat="48.72469" lon="4.54892">
        <ele>114.05</ele>
        <time>2021-08-10T08:43:56Z</time>
      </trkpt>
      <trkpt lat="48.72453" lon="4.54841">
        <ele>115.98</ele>
        <time>2021-08-10T08:44:06Z</time>
      </trkpt>
      <trkpt lat="48.7244" lon="4.54826">
        <ele>116.94</ele>
        <time>2021-08-10T08:44:11Z</time>
      </trkpt>
      <trkpt lat="48.72414" lon="4.54833">
        <ele>116.94</ele>
        <time>2021-08-10T08:44:18Z</time>
      </trkpt>
      <trkpt lat="48.7238" lon="4.5485">
        <ele>116.46</ele>
        <time>2021-08-10T08:44:26Z</time>
      </trkpt>
      <trkpt lat="48.72376" lon="4.54852">
        <ele>116.46</ele>
        <time>2021-08-10T08:44:27Z</time>
      </trkpt>
      <trkpt lat="48.72336" lon="4.54875">
        <ele>117.9</ele>
        <time>2021-08-10T08:44:37Z</time>
      </trkpt>
      <trkpt lat="48.72311" lon="4.5489">
        <ele>118.86</ele>
        <time>2021-08-10T08:44:46Z</time>
      </trkpt>
      <trkpt lat="48.72289" lon="4.54904">
        <ele>120.78</ele>
        <time>2021-08-10T08:44:56Z</time>
      </trkpt>
      <trkpt lat="48.72269" lon="4.54918">
        <ele>122.71</ele>
        <time>2021-08-10T08:45:06Z</time>
      </trkpt>
      <trkpt lat="48.7224" lon="4.54936">
        <ele>125.11</ele>
        <time>2021-08-10T08:45:20Z</time>
      </trkpt>
      <trkpt lat="48.72208" lon="4.54948">
        <ele>126.55</ele>
        <time>2021-08-10T08:45:33Z</time>
      </trkpt>
      <trkpt lat="48.72175" lon="4.54947">
        <ele>127.03</ele>
        <time>2021-08-10T08:45:42Z</time>
      </trkpt>
      <trkpt lat="48.72171" lon="4.54946">
        <ele>127.03</ele>
        <time>2021-08-10T08:45:43Z</time>
      </trkpt>
      <trkpt lat="48.72155" lon="4.54939">
        <ele>127.03</ele>
        <time>2021-08-10T08:45:47Z</time>
      </trkpt>
      <trkpt lat="48.72116" lon="4.54922">
        <ele>127.03</ele>
        <time>2021-08-10T08:45:56Z</time>
      </trkpt>
      <trkpt lat="48.72112" lon="4.54921">
        <ele>127.03</ele>
        <time>2021-08-10T08:45:57Z</time>
      </trkpt>
      <trkpt lat="48.72107" lon="4.5492">
        <ele>127.03</ele>
        <time>2021-08-10T08:45:58Z</time>
      </trkpt>
      <trkpt lat="48.7207" lon="4.54901">
        <ele>127.03</ele>
        <time>2021-08-10T08:46:07Z</time>
      </trkpt>
      <trkpt lat="48.72021" lon="4.54889">
        <ele>127.51</ele>
        <time>2021-08-10T08:46:18Z</time>
      </trkpt>
      <trkpt lat="48.71978" lon="4.54887">
        <ele>127.99</ele>
        <time>2021-08-10T08:46:28Z</time>
      </trkpt>
      <trkpt lat="48.71921" lon="4.54885">
        <ele>128.47</ele>
        <time>2021-08-10T08:46:41Z</time>
      </trkpt>
      <trkpt lat="48.71894" lon="4.54877">
        <ele>128.47</ele>
        <time>2021-08-10T08:46:47Z</time>
      </trkpt>
      <trkpt lat="48.71872" lon="4.5486">
        <ele>128.95</ele>
        <time>2021-08-10T08:46:52Z</time>
      </trkpt>
      <trkpt lat="48.71843" lon="4.54824">
        <ele>129.43</ele>
        <time>2021-08-10T08:47:01Z</time>
      </trkpt>
      <trkpt lat="48.71812" lon="4.54787">
        <ele>130.88</ele>
        <time>2021-08-10T08:47:11Z</time>
      </trkpt>
      <trkpt lat="48.71782" lon="4.54761">
        <ele>131.84</ele>
        <time>2021-08-10T08:47:20Z</time>
      </trkpt>
      <trkpt lat="48.7174" lon="4.54737">
        <ele>133.28</ele>
        <time>2021-08-10T08:47:32Z</time>
      </trkpt>
      <trkpt lat="48.71719" lon="4.54724">
        <ele>134.24</ele>
        <time>2021-08-10T08:47:39Z</time>
      </trkpt>
      <trkpt lat="48.71692" lon="4.54706">
        <ele>134.72</ele>
        <time>2021-08-10T08:47:47Z</time>
      </trkpt>
      <trkpt lat="48.7165" lon="4.54668">
        <ele>134.72</ele>
        <time>2021-08-10T08:47:58Z</time>
      </trkpt>
      <trkpt lat="48.71603" lon="4.54624">
        <ele>134.72</ele>
        <time>2021-08-10T08:48:09Z</time>
      </trkpt>
      <trkpt lat="48.71585" lon="4.54607">
        <ele>133.28</ele>
        <time>2021-08-10T08:48:13Z</time>
      </trkpt>
      <trkpt lat="48.71531" lon="4.54567">
        <ele>132.8</ele>
        <time>2021-08-10T08:48:24Z</time>
      </trkpt>
      <trkpt lat="48.71479" lon="4.54533">
        <ele>131.84</ele>
        <time>2021-08-10T08:48:34Z</time>
      </trkpt>
      <trkpt lat="48.71463" lon="4.54524">
        <ele>131.84</ele>
        <time>2021-08-10T08:48:37Z</time>
      </trkpt>
      <trkpt lat="48.71417" lon="4.54513">
        <ele>130.88</ele>
        <time>2021-08-10T08:48:45Z</time>
      </trkpt>
      <trkpt lat="48.71411" lon="4.54513">
        <ele>130.88</ele>
        <time>2021-08-10T08:48:46Z</time>
      </trkpt>
      <trkpt lat="48.71351" lon="4.54525">
        <ele>130.4</ele>
        <time>2021-08-10T08:48:56Z</time>
      </trkpt>
      <trkpt lat="48.71284" lon="4.54541">
        <ele>128.47</ele>
        <time>2021-08-10T08:49:06Z</time>
      </trkpt>
      <trkpt lat="48.71199" lon="4.54556">
        <ele>126.07</ele>
        <time>2021-08-10T08:49:18Z</time>
      </trkpt>
      <trkpt lat="48.71128" lon="4.54555">
        <ele>124.15</ele>
        <time>2021-08-10T08:49:28Z</time>
      </trkpt>
      <trkpt lat="48.71059" lon="4.54545">
        <ele>121.74</ele>
        <time>2021-08-10T08:49:38Z</time>
      </trkpt>
      <trkpt lat="48.70989" lon="4.54534">
        <ele>119.82</ele>
        <time>2021-08-10T08:49:49Z</time>
      </trkpt>
      <trkpt lat="48.70928" lon="4.54524">
        <ele>118.38</ele>
        <time>2021-08-10T08:49:58Z</time>
      </trkpt>
      <trkpt lat="48.70859" lon="4.54512">
        <ele>116.46</ele>
        <time>2021-08-10T08:50:08Z</time>
      </trkpt>
      <trkpt lat="48.70795" lon="4.54502">
        <ele>114.53</ele>
        <time>2021-08-10T08:50:18Z</time>
      </trkpt>
      <trkpt lat="48.70749" lon="4.54493">
        <ele>113.09</ele>
        <time>2021-08-10T08:50:25Z</time>
      </trkpt>
      <trkpt lat="48.70737" lon="4.54491">
        <ele>112.61</ele>
        <time>2021-08-10T08:50:28Z</time>
      </trkpt>
      <trkpt lat="48.70734" lon="4.54493">
        <ele>112.61</ele>
        <time>2021-08-10T08:50:29Z</time>
      </trkpt>
      <trkpt lat="48.70731" lon="4.54496">
        <ele>112.61</ele>
        <time>2021-08-10T08:50:30Z</time>
      </trkpt>
      <trkpt lat="48.7073" lon="4.54501">
        <ele>112.61</ele>
        <time>2021-08-10T08:50:31Z</time>
      </trkpt>
      <trkpt lat="48.70729" lon="4.54506">
        <ele>112.61</ele>
        <time>2021-08-10T08:50:32Z</time>
      </trkpt>
      <trkpt lat="48.70728" lon="4.54512">
        <ele>112.61</ele>
        <time>2021-08-10T08:50:33Z</time>
      </trkpt>
      <trkpt lat="48.70727" lon="4.54519">
        <ele>112.61</ele>
        <time>2021-08-10T08:50:34Z</time>
      </trkpt>
      <trkpt lat="48.7072" lon="4.54579">
        <ele>112.61</ele>
        <time>2021-08-10T08:50:42Z</time>
      </trkpt>
      <trkpt lat="48.70719" lon="4.54587">
        <ele>112.13</ele>
        <time>2021-08-10T08:50:43Z</time>
      </trkpt>
      <trkpt lat="48.70711" lon="4.54644">
        <ele>111.65</ele>
        <time>2021-08-10T08:50:50Z</time>
      </trkpt>
      <trkpt lat="48.70702" lon="4.54695">
        <ele>110.69</ele>
        <time>2021-08-10T08:50:56Z</time>
      </trkpt>
      <trkpt lat="48.70699" lon="4.54704">
        <ele>110.69</ele>
        <time>2021-08-10T08:50:57Z</time>
      </trkpt>
      <trkpt lat="48.70667" lon="4.54788">
        <ele>109.25</ele>
        <time>2021-08-10T08:51:07Z</time>
      </trkpt>
      <trkpt lat="48.70658" lon="4.54813">
        <ele>109.25</ele>
        <time>2021-08-10T08:51:10Z</time>
      </trkpt>
      <trkpt lat="48.70654" lon="4.54817">
        <ele>109.25</ele>
        <time>2021-08-10T08:51:11Z</time>
      </trkpt>
      <trkpt lat="48.70649" lon="4.54818">
        <ele>109.25</ele>
        <time>2021-08-10T08:51:12Z</time>
      </trkpt>
      <trkpt lat="48.70644" lon="4.54818">
        <ele>109.25</ele>
        <time>2021-08-10T08:51:13Z</time>
      </trkpt>
      <trkpt lat="48.7064" lon="4.54818">
        <ele>108.77</ele>
        <time>2021-08-10T08:51:14Z</time>
      </trkpt>
      <trkpt lat="48.70624" lon="4.54816">
        <ele>107.81</ele>
        <time>2021-08-10T08:51:17Z</time>
      </trkpt>
      <trkpt lat="48.7062" lon="4.54815">
        <ele>107.81</ele>
        <time>2021-08-10T08:51:18Z</time>
      </trkpt>
      <trkpt lat="48.70615" lon="4.54815">
        <ele>107.81</ele>
        <time>2021-08-10T08:51:19Z</time>
      </trkpt>
      <trkpt lat="48.70582" lon="4.54813">
        <ele>107.32</ele>
        <time>2021-08-10T08:51:26Z</time>
      </trkpt>
      <trkpt lat="48.70577" lon="4.54813">
        <ele>107.32</ele>
        <time>2021-08-10T08:51:27Z</time>
      </trkpt>
      <trkpt lat="48.70556" lon="4.54814">
        <ele>107.32</ele>
        <time>2021-08-10T08:51:31Z</time>
      </trkpt>
      <trkpt lat="48.70516" lon="4.54819">
        <ele>107.32</ele>
        <time>2021-08-10T08:51:39Z</time>
      </trkpt>
      <trkpt lat="48.70468" lon="4.54815">
        <ele>107.32</ele>
        <time>2021-08-10T08:51:49Z</time>
      </trkpt>
      <trkpt lat="48.70427" lon="4.54802">
        <ele>108.77</ele>
        <time>2021-08-10T08:51:59Z</time>
      </trkpt>
      <trkpt lat="48.70399" lon="4.54791">
        <ele>110.21</ele>
        <time>2021-08-10T08:52:09Z</time>
      </trkpt>
      <trkpt lat="48.70377" lon="4.54782">
        <ele>111.17</ele>
        <time>2021-08-10T08:52:17Z</time>
      </trkpt>
      <trkpt lat="48.70351" lon="4.5477">
        <ele>113.09</ele>
        <time>2021-08-10T08:52:26Z</time>
      </trkpt>
      <trkpt lat="48.70347" lon="4.54766">
        <ele>113.09</ele>
        <time>2021-08-10T08:52:28Z</time>
      </trkpt>
      <trkpt lat="48.70345" lon="4.54762">
        <ele>113.09</ele>
        <time>2021-08-10T08:52:29Z</time>
      </trkpt>
      <trkpt lat="48.70345" lon="4.54758">
        <ele>113.09</ele>
        <time>2021-08-10T08:52:30Z</time>
      </trkpt>
      <trkpt lat="48.70345" lon="4.5472">
        <ele>113.09</ele>
        <time>2021-08-10T08:52:37Z</time>
      </trkpt>
      <trkpt lat="48.70345" lon="4.54678">
        <ele>113.57</ele>
        <time>2021-08-10T08:52:44Z</time>
      </trkpt>
      <trkpt lat="48.70346" lon="4.54628">
        <ele>113.57</ele>
        <time>2021-08-10T08:52:52Z</time>
      </trkpt>
      <trkpt lat="48.70347" lon="4.5456">
        <ele>114.05</ele>
        <time>2021-08-10T08:53:02Z</time>
      </trkpt>
      <trkpt lat="48.70347" lon="4.54535">
        <ele>114.05</ele>
        <time>2021-08-10T08:53:06Z</time>
      </trkpt>
      <trkpt lat="48.70347" lon="4.54469">
        <ele>114.53</ele>
        <time>2021-08-10T08:53:16Z</time>
      </trkpt>
      <trkpt lat="48.70346" lon="4.54409">
        <ele>115.01</ele>
        <time>2021-08-10T08:53:25Z</time>
      </trkpt>
      <trkpt lat="48.70345" lon="4.54346">
        <ele>115.01</ele>
        <time>2021-08-10T08:53:34Z</time>
      </trkpt>
      <trkpt lat="48.70346" lon="4.54326">
        <ele>115.5</ele>
        <time>2021-08-10T08:53:37Z</time>
      </trkpt>
      <trkpt lat="48.70346" lon="4.54319">
        <ele>115.5</ele>
        <time>2021-08-10T08:53:38Z</time>
      </trkpt>
      <trkpt lat="48.70347" lon="4.54312">
        <ele>115.5</ele>
        <time>2021-08-10T08:53:39Z</time>
      </trkpt>
      <trkpt lat="48.70346" lon="4.5423">
        <ele>115.98</ele>
        <time>2021-08-10T08:53:51Z</time>
      </trkpt>
      <trkpt lat="48.70346" lon="4.5417">
        <ele>115.98</ele>
        <time>2021-08-10T08:54:00Z</time>
      </trkpt>
      <trkpt lat="48.70346" lon="4.54163">
        <ele>115.98</ele>
        <time>2021-08-10T08:54:01Z</time>
      </trkpt>
      <trkpt lat="48.70346" lon="4.54156">
        <ele>115.98</ele>
        <time>2021-08-10T08:54:02Z</time>
      </trkpt>
      <trkpt lat="48.70345" lon="4.5415">
        <ele>115.98</ele>
        <time>2021-08-10T08:54:03Z</time>
      </trkpt>
      <trkpt lat="48.70344" lon="4.54144">
        <ele>116.46</ele>
        <time>2021-08-10T08:54:04Z</time>
      </trkpt>
      <trkpt lat="48.70342" lon="4.54131">
        <ele>116.46</ele>
        <time>2021-08-10T08:54:06Z</time>
      </trkpt>
      <trkpt lat="48.7034" lon="4.54125">
        <ele>116.46</ele>
        <time>2021-08-10T08:54:07Z</time>
      </trkpt>
      <trkpt lat="48.7032" lon="4.54082">
        <ele>117.42</ele>
        <time>2021-08-10T08:54:16Z</time>
      </trkpt>
      <trkpt lat="48.70314" lon="4.5405">
        <ele>118.38</ele>
        <time>2021-08-10T08:54:22Z</time>
      </trkpt>
      <trkpt lat="48.70312" lon="4.54005">
        <ele>119.82</ele>
        <time>2021-08-10T08:54:31Z</time>
      </trkpt>
      <trkpt lat="48.7031" lon="4.5395">
        <ele>120.3</ele>
        <time>2021-08-10T08:54:41Z</time>
      </trkpt>
      <trkpt lat="48.70299" lon="4.53939">
        <ele>120.78</ele>
        <time>2021-08-10T08:54:45Z</time>
      </trkpt>
      <trkpt lat="48.70275" lon="4.53938">
        <ele>123.19</ele>
        <time>2021-08-10T08:54:56Z</time>
      </trkpt>
      <trkpt lat="48.7025" lon="4.53934">
        <ele>125.11</ele>
        <time>2021-08-10T08:55:07Z</time>
      </trkpt>
      <trkpt lat="48.70246" lon="4.5393">
        <ele>125.11</ele>
        <time>2021-08-10T08:55:10Z</time>
      </trkpt>
      <trkpt lat="48.70246" lon="4.53928">
        <ele>125.11</ele>
        <time>2021-08-10T08:55:11Z</time>
      </trkpt>
      <trkpt lat="48.70245" lon="4.53925">
        <ele>125.59</ele>
        <time>2021-08-10T08:55:12Z</time>
      </trkpt>
      <trkpt lat="48.70244" lon="4.53924">
        <ele>125.59</ele>
        <time>2021-08-10T08:55:13Z</time>
      </trkpt>
      <trkpt lat="48.70242" lon="4.53924">
        <ele>125.59</ele>
        <time>2021-08-10T08:55:14Z</time>
      </trkpt>
      <trkpt lat="48.7024" lon="4.53925">
        <ele>125.59</ele>
        <time>2021-08-10T08:55:15Z</time>
      </trkpt>
      <trkpt lat="48.70238" lon="4.53926">
        <ele>125.59</ele>
        <time>2021-08-10T08:55:16Z</time>
      </trkpt>
      <trkpt lat="48.70234" lon="4.53926">
        <ele>125.59</ele>
        <time>2021-08-10T08:55:17Z</time>
      </trkpt>
      <trkpt lat="48.70231" lon="4.53926">
        <ele>125.59</ele>
        <time>2021-08-10T08:55:18Z</time>
      </trkpt>
      <trkpt lat="48.70227" lon="4.53926">
        <ele>125.59</ele>
        <time>2021-08-10T08:55:19Z</time>
      </trkpt>
      <trkpt lat="48.70195" lon="4.53925">
        <ele>124.15</ele>
        <time>2021-08-10T08:55:26Z</time>
      </trkpt>
      <trkpt lat="48.70189" lon="4.53926">
        <ele>123.67</ele>
        <time>2021-08-10T08:55:27Z</time>
      </trkpt>
      <trkpt lat="48.70183" lon="4.53928">
        <ele>123.19</ele>
        <time>2021-08-10T08:55:28Z</time>
      </trkpt>
      <trkpt lat="48.70155" lon="4.53939">
        <ele>121.74</ele>
        <time>2021-08-10T08:55:32Z</time>
      </trkpt>
      <trkpt lat="48.70116" lon="4.53965">
        <ele>117.9</ele>
        <time>2021-08-10T08:55:37Z</time>
      </trkpt>
      <trkpt lat="48.70081" lon="4.53991">
        <ele>115.98</ele>
        <time>2021-08-10T08:55:41Z</time>
      </trkpt>
      <trkpt lat="48.70042" lon="4.54015">
        <ele>112.61</ele>
        <time>2021-08-10T08:55:45Z</time>
      </trkpt>
      <trkpt lat="48.69971" lon="4.54052">
        <ele>110.21</ele>
        <time>2021-08-10T08:55:52Z</time>
      </trkpt>
      <trkpt lat="48.69951" lon="4.54063">
        <ele>110.21</ele>
        <time>2021-08-10T08:55:54Z</time>
      </trkpt>
      <trkpt lat="48.6989" lon="4.54082">
        <ele>110.21</ele>
        <time>2021-08-10T08:56:01Z</time>
      </trkpt>
      <trkpt lat="48.69831" lon="4.54087">
        <ele>109.25</ele>
        <time>2021-08-10T08:56:08Z</time>
      </trkpt>
      <trkpt lat="48.69769" lon="4.54099">
        <ele>109.25</ele>
        <time>2021-08-10T08:56:16Z</time>
      </trkpt>
      <trkpt lat="48.69706" lon="4.54116">
        <ele>109.25</ele>
        <time>2021-08-10T08:56:25Z</time>
      </trkpt>
      <trkpt lat="48.69647" lon="4.54129">
        <ele>109.25</ele>
        <time>2021-08-10T08:56:34Z</time>
      </trkpt>
      <trkpt lat="48.696" lon="4.5413">
        <ele>110.69</ele>
        <time>2021-08-10T08:56:42Z</time>
      </trkpt>
      <trkpt lat="48.69594" lon="4.54129">
        <ele>110.69</ele>
        <time>2021-08-10T08:56:43Z</time>
      </trkpt>
      <trkpt lat="48.69558" lon="4.54122">
        <ele>112.13</ele>
        <time>2021-08-10T08:56:51Z</time>
      </trkpt>
      <trkpt lat="48.69514" lon="4.54118">
        <ele>113.57</ele>
        <time>2021-08-10T08:57:01Z</time>
      </trkpt>
      <trkpt lat="48.69491" lon="4.54116">
        <ele>113.57</ele>
        <time>2021-08-10T08:57:06Z</time>
      </trkpt>
      <trkpt lat="48.69474" lon="4.54119">
        <ele>113.57</ele>
        <time>2021-08-10T08:57:11Z</time>
      </trkpt>
      <trkpt lat="48.69473" lon="4.54123">
        <ele>113.57</ele>
        <time>2021-08-10T08:57:12Z</time>
      </trkpt>
      <trkpt lat="48.69473" lon="4.54129">
        <ele>113.57</ele>
        <time>2021-08-10T08:57:13Z</time>
      </trkpt>
      <trkpt lat="48.69476" lon="4.54172">
        <ele>113.57</ele>
        <time>2021-08-10T08:57:20Z</time>
      </trkpt>
      <trkpt lat="48.69482" lon="4.54237">
        <ele>111.65</ele>
        <time>2021-08-10T08:57:28Z</time>
      </trkpt>
      <trkpt lat="48.69493" lon="4.54298">
        <ele>110.69</ele>
        <time>2021-08-10T08:57:35Z</time>
      </trkpt>
      <trkpt lat="48.69512" lon="4.54401">
        <ele>109.73</ele>
        <time>2021-08-10T08:57:46Z</time>
      </trkpt>
      <trkpt lat="48.69528" lon="4.54488">
        <ele>108.77</ele>
        <time>2021-08-10T08:57:55Z</time>
      </trkpt>
      <trkpt lat="48.69542" lon="4.54539">
        <ele>108.77</ele>
        <time>2021-08-10T08:58:01Z</time>
      </trkpt>
      <trkpt lat="48.69543" lon="4.54547">
        <ele>108.77</ele>
        <time>2021-08-10T08:58:02Z</time>
      </trkpt>
      <trkpt lat="48.69547" lon="4.54623">
        <ele>108.77</ele>
        <time>2021-08-10T08:58:11Z</time>
      </trkpt>
      <trkpt lat="48.69548" lon="4.54639">
        <ele>108.77</ele>
        <time>2021-08-10T08:58:13Z</time>
      </trkpt>
      <trkpt lat="48.69553" lon="4.54702">
        <ele>108.29</ele>
        <time>2021-08-10T08:58:22Z</time>
      </trkpt>
      <trkpt lat="48.69557" lon="4.54759">
        <ele>108.29</ele>
        <time>2021-08-10T08:58:29Z</time>
      </trkpt>
      <trkpt lat="48.69561" lon="4.5483">
        <ele>108.29</ele>
        <time>2021-08-10T08:58:37Z</time>
      </trkpt>
      <trkpt lat="48.69562" lon="4.54846">
        <ele>108.29</ele>
        <time>2021-08-10T08:58:39Z</time>
      </trkpt>
      <trkpt lat="48.69562" lon="4.54855">
        <ele>108.29</ele>
        <time>2021-08-10T08:58:40Z</time>
      </trkpt>
      <trkpt lat="48.69561" lon="4.5488">
        <ele>108.29</ele>
        <time>2021-08-10T08:58:43Z</time>
      </trkpt>
      <trkpt lat="48.69559" lon="4.54896">
        <ele>108.29</ele>
        <time>2021-08-10T08:58:45Z</time>
      </trkpt>
      <trkpt lat="48.69559" lon="4.54902">
        <ele>108.29</ele>
        <time>2021-08-10T08:58:46Z</time>
      </trkpt>
      <trkpt lat="48.6956" lon="4.54908">
        <ele>108.29</ele>
        <time>2021-08-10T08:58:47Z</time>
      </trkpt>
      <trkpt lat="48.69561" lon="4.54913">
        <ele>108.29</ele>
        <time>2021-08-10T08:58:48Z</time>
      </trkpt>
      <trkpt lat="48.69563" lon="4.54919">
        <ele>108.29</ele>
        <time>2021-08-10T08:58:49Z</time>
      </trkpt>
      <trkpt lat="48.69579" lon="4.54963">
        <ele>107.81</ele>
        <time>2021-08-10T08:58:55Z</time>
      </trkpt>
      <trkpt lat="48.69599" lon="4.55028">
        <ele>107.81</ele>
        <time>2021-08-10T08:59:03Z</time>
      </trkpt>
      <trkpt lat="48.69618" lon="4.55097">
        <ele>107.81</ele>
        <time>2021-08-10T08:59:11Z</time>
      </trkpt>
      <trkpt lat="48.6964" lon="4.55181">
        <ele>107.81</ele>
        <time>2021-08-10T08:59:21Z</time>
      </trkpt>
      <trkpt lat="48.69652" lon="4.55245">
        <ele>109.73</ele>
        <time>2021-08-10T08:59:29Z</time>
      </trkpt>
      <trkpt lat="48.69665" lon="4.55324">
        <ele>109.73</ele>
        <time>2021-08-10T08:59:39Z</time>
      </trkpt>
      <trkpt lat="48.69676" lon="4.55398">
        <ele>109.73</ele>
        <time>2021-08-10T08:59:48Z</time>
      </trkpt>
      <trkpt lat="48.69688" lon="4.5549">
        <ele>109.73</ele>
        <time>2021-08-10T08:59:59Z</time>
      </trkpt>
      <trkpt lat="48.69694" lon="4.55536">
        <ele>109.73</ele>
        <time>2021-08-10T09:00:05Z</time>
      </trkpt>
      <trkpt lat="48.69694" lon="4.55544">
        <ele>109.73</ele>
        <time>2021-08-10T09:00:06Z</time>
      </trkpt>
      <trkpt lat="48.69693" lon="4.55552">
        <ele>109.25</ele>
        <time>2021-08-10T09:00:07Z</time>
      </trkpt>
      <trkpt lat="48.6969" lon="4.55559">
        <ele>109.73</ele>
        <time>2021-08-10T09:00:08Z</time>
      </trkpt>
      <trkpt lat="48.69686" lon="4.55563">
        <ele>109.73</ele>
        <time>2021-08-10T09:00:09Z</time>
      </trkpt>
      <trkpt lat="48.69682" lon="4.55565">
        <ele>109.73</ele>
        <time>2021-08-10T09:00:10Z</time>
      </trkpt>
      <trkpt lat="48.69678" lon="4.55566">
        <ele>109.73</ele>
        <time>2021-08-10T09:00:11Z</time>
      </trkpt>
      <trkpt lat="48.69674" lon="4.55567">
        <ele>110.21</ele>
        <time>2021-08-10T09:00:12Z</time>
      </trkpt>
      <trkpt lat="48.6965" lon="4.55574">
        <ele>111.17</ele>
        <time>2021-08-10T09:00:20Z</time>
      </trkpt>
      <trkpt lat="48.69624" lon="4.55581">
        <ele>112.13</ele>
        <time>2021-08-10T09:00:29Z</time>
      </trkpt>
      <trkpt lat="48.69604" lon="4.55586">
        <ele>114.05</ele>
        <time>2021-08-10T09:00:37Z</time>
      </trkpt>
      <trkpt lat="48.69584" lon="4.5559">
        <ele>115.01</ele>
        <time>2021-08-10T09:00:45Z</time>
      </trkpt>
      <trkpt lat="48.69569" lon="4.55594">
        <ele>116.46</ele>
        <time>2021-08-10T09:00:52Z</time>
      </trkpt>
      <trkpt lat="48.6954" lon="4.55601">
        <ele>117.9</ele>
        <time>2021-08-10T09:01:04Z</time>
      </trkpt>
      <trkpt lat="48.69518" lon="4.55607">
        <ele>119.34</ele>
        <time>2021-08-10T09:01:14Z</time>
      </trkpt>
      <trkpt lat="48.69497" lon="4.55612">
        <ele>120.78</ele>
        <time>2021-08-10T09:01:24Z</time>
      </trkpt>
      <trkpt lat="48.69477" lon="4.55618">
        <ele>122.71</ele>
        <time>2021-08-10T09:01:34Z</time>
      </trkpt>
      <trkpt lat="48.69456" lon="4.55623">
        <ele>124.15</ele>
        <time>2021-08-10T09:01:44Z</time>
      </trkpt>
      <trkpt lat="48.6944" lon="4.55627">
        <ele>125.11</ele>
        <time>2021-08-10T09:01:52Z</time>
      </trkpt>
      <trkpt lat="48.69421" lon="4.55631">
        <ele>127.03</ele>
        <time>2021-08-10T09:02:02Z</time>
      </trkpt>
      <trkpt lat="48.694" lon="4.55635">
        <ele>128.47</ele>
        <time>2021-08-10T09:02:13Z</time>
      </trkpt>
      <trkpt lat="48.69383" lon="4.55639">
        <ele>130.4</ele>
        <time>2021-08-10T09:02:22Z</time>
      </trkpt>
      <trkpt lat="48.69368" lon="4.55641">
        <ele>131.36</ele>
        <time>2021-08-10T09:02:30Z</time>
      </trkpt>
      <trkpt lat="48.69347" lon="4.55648">
        <ele>132.32</ele>
        <time>2021-08-10T09:02:39Z</time>
      </trkpt>
      <trkpt lat="48.69331" lon="4.55667">
        <ele>132.8</ele>
        <time>2021-08-10T09:02:47Z</time>
      </trkpt>
      <trkpt lat="48.69317" lon="4.55698">
        <ele>134.24</ele>
        <time>2021-08-10T09:02:56Z</time>
      </trkpt>
      <trkpt lat="48.69302" lon="4.55739">
        <ele>135.68</ele>
        <time>2021-08-10T09:03:07Z</time>
      </trkpt>
      <trkpt lat="48.69291" lon="4.55767">
        <ele>137.13</ele>
        <time>2021-08-10T09:03:15Z</time>
      </trkpt>
      <trkpt lat="48.69282" lon="4.55795">
        <ele>138.57</ele>
        <time>2021-08-10T09:03:22Z</time>
      </trkpt>
      <trkpt lat="48.69268" lon="4.55838">
        <ele>138.09</ele>
        <time>2021-08-10T09:03:30Z</time>
      </trkpt>
      <trkpt lat="48.69251" lon="4.55893">
        <ele>138.09</ele>
        <time>2021-08-10T09:03:38Z</time>
      </trkpt>
      <trkpt lat="48.69227" lon="4.55964">
        <ele>139.05</ele>
        <time>2021-08-10T09:03:50Z</time>
      </trkpt>
      <trkpt lat="48.69203" lon="4.5602">
        <ele>140.49</ele>
        <time>2021-08-10T09:04:02Z</time>
      </trkpt>
      <trkpt lat="48.69184" lon="4.56063">
        <ele>141.93</ele>
        <time>2021-08-10T09:04:12Z</time>
      </trkpt>
      <trkpt lat="48.69165" lon="4.56108">
        <ele>143.85</ele>
        <time>2021-08-10T09:04:23Z</time>
      </trkpt>
      <trkpt lat="48.69138" lon="4.56152">
        <ele>145.3</ele>
        <time>2021-08-10T09:04:35Z</time>
      </trkpt>
      <trkpt lat="48.69112" lon="4.56177">
        <ele>147.22</ele>
        <time>2021-08-10T09:04:45Z</time>
      </trkpt>
      <trkpt lat="48.69094" lon="4.56177">
        <ele>147.7</ele>
        <time>2021-08-10T09:04:52Z</time>
      </trkpt>
      <trkpt lat="48.69071" lon="4.56166">
        <ele>149.14</ele>
        <time>2021-08-10T09:05:01Z</time>
      </trkpt>
      <trkpt lat="48.69048" lon="4.56152">
        <ele>150.58</ele>
        <time>2021-08-10T09:05:10Z</time>
      </trkpt>
      <trkpt lat="48.69025" lon="4.56133">
        <ele>152.03</ele>
        <time>2021-08-10T09:05:20Z</time>
      </trkpt>
      <trkpt lat="48.68999" lon="4.5611">
        <ele>153.47</ele>
        <time>2021-08-10T09:05:31Z</time>
      </trkpt>
      <trkpt lat="48.68975" lon="4.5609">
        <ele>156.35</ele>
        <time>2021-08-10T09:05:42Z</time>
      </trkpt>
      <trkpt lat="48.68959" lon="4.56079">
        <ele>157.31</ele>
        <time>2021-08-10T09:05:49Z</time>
      </trkpt>
      <trkpt lat="48.68938" lon="4.5607">
        <ele>158.75</ele>
        <time>2021-08-10T09:05:57Z</time>
      </trkpt>
      <trkpt lat="48.68903" lon="4.56062">
        <ele>159.24</ele>
        <time>2021-08-10T09:06:07Z</time>
      </trkpt>
      <trkpt lat="48.68879" lon="4.56058">
        <ele>159.24</ele>
        <time>2021-08-10T09:06:13Z</time>
      </trkpt>
      <trkpt lat="48.68861" lon="4.5605">
        <ele>157.79</ele>
        <time>2021-08-10T09:06:17Z</time>
      </trkpt>
      <trkpt lat="48.68829" lon="4.56042">
        <ele>155.87</ele>
        <time>2021-08-10T09:06:22Z</time>
      </trkpt>
      <trkpt lat="48.68807" lon="4.56038">
        <ele>152.51</ele>
        <time>2021-08-10T09:06:25Z</time>
      </trkpt>
      <trkpt lat="48.68774" lon="4.56032">
        <ele>149.62</ele>
        <time>2021-08-10T09:06:29Z</time>
      </trkpt>
      <trkpt lat="48.68746" lon="4.5603">
        <ele>145.78</ele>
        <time>2021-08-10T09:06:32Z</time>
      </trkpt>
      <trkpt lat="48.68717" lon="4.56025">
        <ele>142.41</ele>
        <time>2021-08-10T09:06:35Z</time>
      </trkpt>
      <trkpt lat="48.68696" lon="4.56021">
        <ele>138.57</ele>
        <time>2021-08-10T09:06:37Z</time>
      </trkpt>
      <trkpt lat="48.68661" lon="4.56015">
        <ele>133.76</ele>
        <time>2021-08-10T09:06:40Z</time>
      </trkpt>
      <trkpt lat="48.68624" lon="4.56011">
        <ele>130.4</ele>
        <time>2021-08-10T09:06:43Z</time>
      </trkpt>
      <trkpt lat="48.68613" lon="4.56011">
        <ele>129.92</ele>
        <time>2021-08-10T09:06:44Z</time>
      </trkpt>
      <trkpt lat="48.68601" lon="4.56013">
        <ele>127.99</ele>
        <time>2021-08-10T09:06:45Z</time>
      </trkpt>
      <trkpt lat="48.68589" lon="4.56016">
        <ele>127.03</ele>
        <time>2021-08-10T09:06:46Z</time>
      </trkpt>
      <trkpt lat="48.68532" lon="4.56039">
        <ele>123.67</ele>
        <time>2021-08-10T09:06:51Z</time>
      </trkpt>
      <trkpt lat="48.68454" lon="4.56068">
        <ele>121.26</ele>
        <time>2021-08-10T09:06:59Z</time>
      </trkpt>
      <trkpt lat="48.68407" lon="4.56074">
        <ele>121.26</ele>
        <time>2021-08-10T09:07:05Z</time>
      </trkpt>
      <trkpt lat="48.68377" lon="4.56076">
        <ele>122.71</ele>
        <time>2021-08-10T09:07:11Z</time>
      </trkpt>
      <trkpt lat="48.68373" lon="4.56076">
        <ele>122.71</ele>
        <time>2021-08-10T09:07:12Z</time>
      </trkpt>
      <trkpt lat="48.68344" lon="4.56079">
        <ele>124.15</ele>
        <time>2021-08-10T09:07:20Z</time>
      </trkpt>
      <trkpt lat="48.68324" lon="4.56078">
        <ele>125.11</ele>
        <time>2021-08-10T09:07:28Z</time>
      </trkpt>
      <trkpt lat="48.68307" lon="4.56081">
        <ele>126.55</ele>
        <time>2021-08-10T09:07:37Z</time>
      </trkpt>
      <trkpt lat="48.68287" lon="4.5609">
        <ele>128.47</ele>
        <time>2021-08-10T09:07:48Z</time>
      </trkpt>
      <trkpt lat="48.68283" lon="4.56092">
        <ele>128.47</ele>
        <time>2021-08-10T09:07:51Z</time>
      </trkpt>
      <trkpt lat="48.68282" lon="4.56093">
        <ele>128.95</ele>
        <time>2021-08-10T09:07:52Z</time>
      </trkpt>
      <trkpt lat="48.6828" lon="4.56093">
        <ele>129.43</ele>
        <time>2021-08-10T09:07:53Z</time>
      </trkpt>
      <trkpt lat="48.68279" lon="4.56093">
        <ele>129.43</ele>
        <time>2021-08-10T09:07:54Z</time>
      </trkpt>
      <trkpt lat="48.68277" lon="4.56094">
        <ele>129.43</ele>
        <time>2021-08-10T09:07:55Z</time>
      </trkpt>
      <trkpt lat="48.68263" lon="4.56101">
        <ele>130.88</ele>
        <time>2021-08-10T09:08:04Z</time>
      </trkpt>
      <trkpt lat="48.68249" lon="4.56107">
        <ele>132.8</ele>
        <time>2021-08-10T09:08:13Z</time>
      </trkpt>
      <trkpt lat="48.68235" lon="4.56112">
        <ele>134.24</ele>
        <time>2021-08-10T09:08:23Z</time>
      </trkpt>
      <trkpt lat="48.68223" lon="4.56118">
        <ele>135.2</ele>
        <time>2021-08-10T09:08:31Z</time>
      </trkpt>
      <trkpt lat="48.68208" lon="4.56124">
        <ele>137.61</ele>
        <time>2021-08-10T09:08:41Z</time>
      </trkpt>
      <trkpt lat="48.68198" lon="4.56128">
        <ele>138.57</ele>
        <time>2021-08-10T09:08:48Z</time>
      </trkpt>
      <trkpt lat="48.68196" lon="4.56128">
        <ele>138.57</ele>
        <time>2021-08-10T09:08:49Z</time>
      </trkpt>
      <trkpt lat="48.68195" lon="4.56129">
        <ele>138.57</ele>
        <time>2021-08-10T09:08:50Z</time>
      </trkpt>
      <trkpt lat="48.68194" lon="4.56129">
        <ele>138.57</ele>
        <time>2021-08-10T09:08:51Z</time>
      </trkpt>
      <trkpt lat="48.68192" lon="4.5613">
        <ele>139.05</ele>
        <time>2021-08-10T09:08:52Z</time>
      </trkpt>
      <trkpt lat="48.68186" lon="4.56132">
        <ele>140.01</ele>
        <time>2021-08-10T09:08:57Z</time>
      </trkpt>
      <trkpt lat="48.68184" lon="4.56133">
        <ele>140.49</ele>
        <time>2021-08-10T09:08:58Z</time>
      </trkpt>
      <trkpt lat="48.68183" lon="4.56133">
        <ele>140.49</ele>
        <time>2021-08-10T09:08:59Z</time>
      </trkpt>
      <trkpt lat="48.68182" lon="4.56133">
        <ele>140.97</ele>
        <time>2021-08-10T09:09:00Z</time>
      </trkpt>
      <trkpt lat="48.6818" lon="4.56133">
        <ele>140.97</ele>
        <time>2021-08-10T09:09:01Z</time>
      </trkpt>
      <trkpt lat="48.68179" lon="4.56134">
        <ele>140.97</ele>
        <time>2021-08-10T09:09:02Z</time>
      </trkpt>
      <trkpt lat="48.68178" lon="4.56134">
        <ele>140.97</ele>
        <time>2021-08-10T09:09:03Z</time>
      </trkpt>
      <trkpt lat="48.68177" lon="4.56134">
        <ele>141.93</ele>
        <time>2021-08-10T09:09:04Z</time>
      </trkpt>
      <trkpt lat="48.68175" lon="4.56135">
        <ele>141.93</ele>
        <time>2021-08-10T09:09:05Z</time>
      </trkpt>
      <trkpt lat="48.68166" lon="4.56138">
        <ele>142.89</ele>
        <time>2021-08-10T09:09:12Z</time>
      </trkpt>
      <trkpt lat="48.68162" lon="4.56139">
        <ele>142.89</ele>
        <time>2021-08-10T09:09:15Z</time>
      </trkpt>
      <trkpt lat="48.68161" lon="4.56139">
        <ele>143.37</ele>
        <time>2021-08-10T09:09:16Z</time>
      </trkpt>
      <trkpt lat="48.6816" lon="4.56139">
        <ele>143.85</ele>
        <time>2021-08-10T09:09:17Z</time>
      </trkpt>
      <trkpt lat="48.68158" lon="4.5614">
        <ele>143.85</ele>
        <time>2021-08-10T09:09:18Z</time>
      </trkpt>
      <trkpt lat="48.68157" lon="4.5614">
        <ele>144.34</ele>
        <time>2021-08-10T09:09:19Z</time>
      </trkpt>
      <trkpt lat="48.68147" lon="4.56146">
        <ele>145.3</ele>
        <time>2021-08-10T09:09:27Z</time>
      </trkpt>
      <trkpt lat="48.68146" lon="4.56147">
        <ele>145.3</ele>
        <time>2021-08-10T09:09:28Z</time>
      </trkpt>
      <trkpt lat="48.68133" lon="4.56153">
        <ele>146.26</ele>
        <time>2021-08-10T09:09:36Z</time>
      </trkpt>
      <trkpt lat="48.68121" lon="4.56159">
        <ele>147.22</ele>
        <time>2021-08-10T09:09:44Z</time>
      </trkpt>
      <trkpt lat="48.68104" lon="4.56165">
        <ele>147.7</ele>
        <time>2021-08-10T09:09:54Z</time>
      </trkpt>
      <trkpt lat="48.68098" lon="4.56168">
        <ele>148.18</ele>
        <time>2021-08-10T09:09:58Z</time>
      </trkpt>
      <trkpt lat="48.68096" lon="4.56168">
        <ele>148.66</ele>
        <time>2021-08-10T09:09:59Z</time>
      </trkpt>
      <trkpt lat="48.68095" lon="4.56168">
        <ele>148.66</ele>
        <time>2021-08-10T09:10:00Z</time>
      </trkpt>
      <trkpt lat="48.68093" lon="4.56169">
        <ele>148.66</ele>
        <time>2021-08-10T09:10:01Z</time>
      </trkpt>
      <trkpt lat="48.68091" lon="4.56169">
        <ele>148.66</ele>
        <time>2021-08-10T09:10:02Z</time>
      </trkpt>
      <trkpt lat="48.68077" lon="4.56174">
        <ele>149.62</ele>
        <time>2021-08-10T09:10:10Z</time>
      </trkpt>
      <trkpt lat="48.68062" lon="4.5618">
        <ele>150.58</ele>
        <time>2021-08-10T09:10:19Z</time>
      </trkpt>
      <trkpt lat="48.68046" lon="4.56185">
        <ele>151.06</ele>
        <time>2021-08-10T09:10:27Z</time>
      </trkpt>
      <trkpt lat="48.68032" lon="4.5619">
        <ele>151.54</ele>
        <time>2021-08-10T09:10:34Z</time>
      </trkpt>
      <trkpt lat="48.68013" lon="4.56198">
        <ele>152.03</ele>
        <time>2021-08-10T09:10:42Z</time>
      </trkpt>
      <trkpt lat="48.67998" lon="4.56206">
        <ele>152.99</ele>
        <time>2021-08-10T09:10:49Z</time>
      </trkpt>
      <trkpt lat="48.67981" lon="4.56219">
        <ele>152.99</ele>
        <time>2021-08-10T09:10:56Z</time>
      </trkpt>
      <trkpt lat="48.67956" lon="4.5625">
        <ele>153.95</ele>
        <time>2021-08-10T09:11:07Z</time>
      </trkpt>
      <trkpt lat="48.67934" lon="4.56284">
        <ele>154.91</ele>
        <time>2021-08-10T09:11:18Z</time>
      </trkpt>
      <trkpt lat="48.67908" lon="4.5632">
        <ele>155.39</ele>
        <time>2021-08-10T09:11:29Z</time>
      </trkpt>
      <trkpt lat="48.67883" lon="4.56348">
        <ele>155.39</ele>
        <time>2021-08-10T09:11:38Z</time>
      </trkpt>
      <trkpt lat="48.67856" lon="4.56378">
        <ele>154.91</ele>
        <time>2021-08-10T09:11:47Z</time>
      </trkpt>
      <trkpt lat="48.67828" lon="4.56409">
        <ele>155.39</ele>
        <time>2021-08-10T09:11:56Z</time>
      </trkpt>
      <trkpt lat="48.6781" lon="4.5643">
        <ele>153.95</ele>
        <time>2021-08-10T09:12:02Z</time>
      </trkpt>
      <trkpt lat="48.67774" lon="4.56462">
        <ele>152.51</ele>
        <time>2021-08-10T09:12:11Z</time>
      </trkpt>
      <trkpt lat="48.67765" lon="4.56467">
        <ele>152.03</ele>
        <time>2021-08-10T09:12:13Z</time>
      </trkpt>
      <trkpt lat="48.67719" lon="4.56477">
        <ele>151.06</ele>
        <time>2021-08-10T09:12:22Z</time>
      </trkpt>
      <trkpt lat="48.67698" lon="4.56474">
        <ele>150.58</ele>
        <time>2021-08-10T09:12:26Z</time>
      </trkpt>
      <trkpt lat="48.67658" lon="4.56461">
        <ele>150.58</ele>
        <time>2021-08-10T09:12:34Z</time>
      </trkpt>
      <trkpt lat="48.6765" lon="4.56456">
        <ele>150.58</ele>
        <time>2021-08-10T09:12:36Z</time>
      </trkpt>
      <trkpt lat="48.67647" lon="4.56451">
        <ele>150.58</ele>
        <time>2021-08-10T09:12:37Z</time>
      </trkpt>
      <trkpt lat="48.67645" lon="4.56446">
        <ele>150.58</ele>
        <time>2021-08-10T09:12:38Z</time>
      </trkpt>
      <trkpt lat="48.67641" lon="4.56443">
        <ele>150.58</ele>
        <time>2021-08-10T09:12:39Z</time>
      </trkpt>
      <trkpt lat="48.67638" lon="4.56442">
        <ele>150.58</ele>
        <time>2021-08-10T09:12:40Z</time>
      </trkpt>
      <trkpt lat="48.67635" lon="4.56444">
        <ele>150.58</ele>
        <time>2021-08-10T09:12:41Z</time>
      </trkpt>
      <trkpt lat="48.67632" lon="4.56448">
        <ele>150.58</ele>
        <time>2021-08-10T09:12:42Z</time>
      </trkpt>
      <trkpt lat="48.6763" lon="4.5645">
        <ele>150.58</ele>
        <time>2021-08-10T09:12:43Z</time>
      </trkpt>
      <trkpt lat="48.67603" lon="4.56487">
        <ele>150.58</ele>
        <time>2021-08-10T09:12:52Z</time>
      </trkpt>
      <trkpt lat="48.67596" lon="4.56494">
        <ele>151.54</ele>
        <time>2021-08-10T09:12:54Z</time>
      </trkpt>
      <trkpt lat="48.67574" lon="4.56525">
        <ele>152.03</ele>
        <time>2021-08-10T09:13:02Z</time>
      </trkpt>
      <trkpt lat="48.67554" lon="4.56552">
        <ele>152.51</ele>
        <time>2021-08-10T09:13:09Z</time>
      </trkpt>
      <trkpt lat="48.6754" lon="4.56572">
        <ele>152.51</ele>
        <time>2021-08-10T09:13:14Z</time>
      </trkpt>
      <trkpt lat="48.67536" lon="4.56576">
        <ele>152.51</ele>
        <time>2021-08-10T09:13:15Z</time>
      </trkpt>
      <trkpt lat="48.67533" lon="4.5658">
        <ele>152.51</ele>
        <time>2021-08-10T09:13:16Z</time>
      </trkpt>
      <trkpt lat="48.67526" lon="4.5659">
        <ele>151.06</ele>
        <time>2021-08-10T09:13:18Z</time>
      </trkpt>
      <trkpt lat="48.67489" lon="4.56637">
        <ele>149.62</ele>
        <time>2021-08-10T09:13:26Z</time>
      </trkpt>
      <trkpt lat="48.67452" lon="4.56686">
        <ele>148.18</ele>
        <time>2021-08-10T09:13:35Z</time>
      </trkpt>
      <trkpt lat="48.67408" lon="4.56743">
        <ele>147.22</ele>
        <time>2021-08-10T09:13:45Z</time>
      </trkpt>
      <trkpt lat="48.67368" lon="4.56793">
        <ele>147.22</ele>
        <time>2021-08-10T09:13:55Z</time>
      </trkpt>
      <trkpt lat="48.67343" lon="4.56823">
        <ele>148.66</ele>
        <time>2021-08-10T09:14:02Z</time>
      </trkpt>
      <trkpt lat="48.67312" lon="4.56859">
        <ele>149.14</ele>
        <time>2021-08-10T09:14:11Z</time>
      </trkpt>
      <trkpt lat="48.67287" lon="4.56883">
        <ele>150.1</ele>
        <time>2021-08-10T09:14:19Z</time>
      </trkpt>
      <trkpt lat="48.67255" lon="4.56901">
        <ele>151.54</ele>
        <time>2021-08-10T09:14:29Z</time>
      </trkpt>
      <trkpt lat="48.67226" lon="4.56914">
        <ele>152.51</ele>
        <time>2021-08-10T09:14:39Z</time>
      </trkpt>
      <trkpt lat="48.67198" lon="4.56927">
        <ele>154.43</ele>
        <time>2021-08-10T09:14:50Z</time>
      </trkpt>
      <trkpt lat="48.67175" lon="4.56936">
        <ele>155.87</ele>
        <time>2021-08-10T09:15:00Z</time>
      </trkpt>
      <trkpt lat="48.67153" lon="4.56946">
        <ele>157.79</ele>
        <time>2021-08-10T09:15:10Z</time>
      </trkpt>
      <trkpt lat="48.67136" lon="4.56954">
        <ele>158.27</ele>
        <time>2021-08-10T09:15:19Z</time>
      </trkpt>
      <trkpt lat="48.6712" lon="4.56961">
        <ele>159.72</ele>
        <time>2021-08-10T09:15:27Z</time>
      </trkpt>
      <trkpt lat="48.67097" lon="4.56972">
        <ele>161.16</ele>
        <time>2021-08-10T09:15:38Z</time>
      </trkpt>
      <trkpt lat="48.67081" lon="4.5698">
        <ele>161.64</ele>
        <time>2021-08-10T09:15:45Z</time>
      </trkpt>
      <trkpt lat="48.67066" lon="4.56988">
        <ele>161.64</ele>
        <time>2021-08-10T09:15:50Z</time>
      </trkpt>
      <trkpt lat="48.67042" lon="4.56998">
        <ele>162.6</ele>
        <time>2021-08-10T09:15:58Z</time>
      </trkpt>
      <trkpt lat="48.6702" lon="4.57006">
        <ele>162.6</ele>
        <time>2021-08-10T09:16:05Z</time>
      </trkpt>
      <trkpt lat="48.66996" lon="4.57013">
        <ele>162.6</ele>
        <time>2021-08-10T09:16:12Z</time>
      </trkpt>
      <trkpt lat="48.66988" lon="4.57016">
        <ele>162.6</ele>
        <time>2021-08-10T09:16:14Z</time>
      </trkpt>
      <trkpt lat="48.66968" lon="4.57023">
        <ele>162.6</ele>
        <time>2021-08-10T09:16:19Z</time>
      </trkpt>
      <trkpt lat="48.66964" lon="4.57025">
        <ele>162.6</ele>
        <time>2021-08-10T09:16:20Z</time>
      </trkpt>
      <trkpt lat="48.6696" lon="4.57028">
        <ele>162.6</ele>
        <time>2021-08-10T09:16:21Z</time>
      </trkpt>
      <trkpt lat="48.66952" lon="4.57034">
        <ele>162.6</ele>
        <time>2021-08-10T09:16:23Z</time>
      </trkpt>
      <trkpt lat="48.66939" lon="4.57044">
        <ele>161.16</ele>
        <time>2021-08-10T09:16:26Z</time>
      </trkpt>
      <trkpt lat="48.66908" lon="4.57075">
        <ele>158.75</ele>
        <time>2021-08-10T09:16:32Z</time>
      </trkpt>
      <trkpt lat="48.66882" lon="4.57103">
        <ele>155.39</ele>
        <time>2021-08-10T09:16:36Z</time>
      </trkpt>
      <trkpt lat="48.66861" lon="4.57129">
        <ele>152.51</ele>
        <time>2021-08-10T09:16:39Z</time>
      </trkpt>
      <trkpt lat="48.66839" lon="4.57157">
        <ele>149.14</ele>
        <time>2021-08-10T09:16:42Z</time>
      </trkpt>
      <trkpt lat="48.66821" lon="4.5718">
        <ele>146.74</ele>
        <time>2021-08-10T09:16:45Z</time>
      </trkpt>
      <trkpt lat="48.66805" lon="4.57199">
        <ele>144.82</ele>
        <time>2021-08-10T09:16:49Z</time>
      </trkpt>
      <trkpt lat="48.66804" lon="4.57202">
        <ele>144.34</ele>
        <time>2021-08-10T09:16:50Z</time>
      </trkpt>
      <trkpt lat="48.66803" lon="4.57206">
        <ele>144.34</ele>
        <time>2021-08-10T09:16:51Z</time>
      </trkpt>
      <trkpt lat="48.66804" lon="4.57209">
        <ele>143.85</ele>
        <time>2021-08-10T09:16:52Z</time>
      </trkpt>
      <trkpt lat="48.66805" lon="4.57213">
        <ele>143.85</ele>
        <time>2021-08-10T09:16:53Z</time>
      </trkpt>
      <trkpt lat="48.66807" lon="4.57216">
        <ele>143.85</ele>
        <time>2021-08-10T09:16:54Z</time>
      </trkpt>
      <trkpt lat="48.66822" lon="4.57254">
        <ele>143.85</ele>
        <time>2021-08-10T09:17:03Z</time>
      </trkpt>
      <trkpt lat="48.66837" lon="4.57294">
        <ele>143.85</ele>
        <time>2021-08-10T09:17:14Z</time>
      </trkpt>
      <trkpt lat="48.66839" lon="4.57301">
        <ele>145.3</ele>
        <time>2021-08-10T09:17:16Z</time>
      </trkpt>
      <trkpt lat="48.66847" lon="4.57323">
        <ele>145.78</ele>
        <time>2021-08-10T09:17:23Z</time>
      </trkpt>
      <trkpt lat="48.66859" lon="4.57355">
        <ele>147.22</ele>
        <time>2021-08-10T09:17:34Z</time>
      </trkpt>
      <trkpt lat="48.66866" lon="4.57376">
        <ele>148.18</ele>
        <time>2021-08-10T09:17:42Z</time>
      </trkpt>
      <trkpt lat="48.66872" lon="4.57392">
        <ele>149.14</ele>
        <time>2021-08-10T09:17:49Z</time>
      </trkpt>
      <trkpt lat="48.66879" lon="4.57411">
        <ele>150.1</ele>
        <time>2021-08-10T09:17:58Z</time>
      </trkpt>
      <trkpt lat="48.66886" lon="4.57431">
        <ele>151.54</ele>
        <time>2021-08-10T09:18:07Z</time>
      </trkpt>
      <trkpt lat="48.66895" lon="4.57456">
        <ele>152.99</ele>
        <time>2021-08-10T09:18:19Z</time>
      </trkpt>
      <trkpt lat="48.66903" lon="4.5748">
        <ele>155.39</ele>
        <time>2021-08-10T09:18:29Z</time>
      </trkpt>
      <trkpt lat="48.66912" lon="4.57507">
        <ele>155.87</ele>
        <time>2021-08-10T09:18:39Z</time>
      </trkpt>
      <trkpt lat="48.66922" lon="4.57534">
        <ele>156.35</ele>
        <time>2021-08-10T09:18:48Z</time>
      </trkpt>
      <trkpt lat="48.66936" lon="4.5757">
        <ele>153.95</ele>
        <time>2021-08-10T09:18:54Z</time>
      </trkpt>
      <trkpt lat="48.66948" lon="4.57604">
        <ele>150.58</ele>
        <time>2021-08-10T09:18:58Z</time>
      </trkpt>
      <trkpt lat="48.66963" lon="4.57648">
        <ele>146.26</ele>
        <time>2021-08-10T09:19:02Z</time>
      </trkpt>
      <trkpt lat="48.66976" lon="4.57687">
        <ele>143.37</ele>
        <time>2021-08-10T09:19:05Z</time>
      </trkpt>
      <trkpt lat="48.66994" lon="4.57741">
        <ele>139.53</ele>
        <time>2021-08-10T09:19:09Z</time>
      </trkpt>
      <trkpt lat="48.67014" lon="4.57798">
        <ele>136.16</ele>
        <time>2021-08-10T09:19:13Z</time>
      </trkpt>
      <trkpt lat="48.67032" lon="4.57853">
        <ele>132.8</ele>
        <time>2021-08-10T09:19:17Z</time>
      </trkpt>
      <trkpt lat="48.67051" lon="4.57909">
        <ele>129.43</ele>
        <time>2021-08-10T09:19:21Z</time>
      </trkpt>
      <trkpt lat="48.67071" lon="4.57969">
        <ele>127.03</ele>
        <time>2021-08-10T09:19:26Z</time>
      </trkpt>
      <trkpt lat="48.6708" lon="4.57996">
        <ele>124.63</ele>
        <time>2021-08-10T09:19:29Z</time>
      </trkpt>
      <trkpt lat="48.67083" lon="4.58004">
        <ele>123.67</ele>
        <time>2021-08-10T09:19:30Z</time>
      </trkpt>
      <trkpt lat="48.67087" lon="4.58012">
        <ele>123.67</ele>
        <time>2021-08-10T09:19:31Z</time>
      </trkpt>
      <trkpt lat="48.67095" lon="4.58029">
        <ele>122.22</ele>
        <time>2021-08-10T09:19:33Z</time>
      </trkpt>
      <trkpt lat="48.6712" lon="4.58076">
        <ele>118.86</ele>
        <time>2021-08-10T09:19:39Z</time>
      </trkpt>
      <trkpt lat="48.67125" lon="4.58083">
        <ele>118.38</ele>
        <time>2021-08-10T09:19:40Z</time>
      </trkpt>
      <trkpt lat="48.67141" lon="4.58107">
        <ele>117.42</ele>
        <time>2021-08-10T09:19:43Z</time>
      </trkpt>
      <trkpt lat="48.67171" lon="4.5816">
        <ele>115.5</ele>
        <time>2021-08-10T09:19:49Z</time>
      </trkpt>
      <trkpt lat="48.67204" lon="4.58237">
        <ele>113.09</ele>
        <time>2021-08-10T09:19:57Z</time>
      </trkpt>
      <trkpt lat="48.67221" lon="4.58282">
        <ele>110.69</ele>
        <time>2021-08-10T09:20:02Z</time>
      </trkpt>
      <trkpt lat="48.67222" lon="4.58287">
        <ele>110.69</ele>
        <time>2021-08-10T09:20:03Z</time>
      </trkpt>
      <trkpt lat="48.67222" lon="4.58292">
        <ele>110.69</ele>
        <time>2021-08-10T09:20:04Z</time>
      </trkpt>
      <trkpt lat="48.67222" lon="4.58294">
        <ele>110.69</ele>
        <time>2021-08-10T09:20:05Z</time>
      </trkpt>
      <trkpt lat="48.67221" lon="4.58297">
        <ele>110.69</ele>
        <time>2021-08-10T09:20:06Z</time>
      </trkpt>
      <trkpt lat="48.67222" lon="4.58301">
        <ele>110.69</ele>
        <time>2021-08-10T09:20:07Z</time>
      </trkpt>
      <trkpt lat="48.67222" lon="4.58306">
        <ele>110.69</ele>
        <time>2021-08-10T09:20:08Z</time>
      </trkpt>
      <trkpt lat="48.67224" lon="4.5831">
        <ele>110.69</ele>
        <time>2021-08-10T09:20:09Z</time>
      </trkpt>
      <trkpt lat="48.67225" lon="4.58315">
        <ele>110.69</ele>
        <time>2021-08-10T09:20:10Z</time>
      </trkpt>
      <trkpt lat="48.6723" lon="4.58326">
        <ele>109.73</ele>
        <time>2021-08-10T09:20:12Z</time>
      </trkpt>
      <trkpt lat="48.67233" lon="4.58332">
        <ele>109.73</ele>
        <time>2021-08-10T09:20:13Z</time>
      </trkpt>
      <trkpt lat="48.67243" lon="4.5835">
        <ele>108.77</ele>
        <time>2021-08-10T09:20:16Z</time>
      </trkpt>
      <trkpt lat="48.67247" lon="4.58356">
        <ele>108.77</ele>
        <time>2021-08-10T09:20:17Z</time>
      </trkpt>
      <trkpt lat="48.67252" lon="4.58361">
        <ele>108.29</ele>
        <time>2021-08-10T09:20:18Z</time>
      </trkpt>
      <trkpt lat="48.67266" lon="4.58377">
        <ele>108.29</ele>
        <time>2021-08-10T09:20:21Z</time>
      </trkpt>
      <trkpt lat="48.67278" lon="4.58395">
        <ele>107.32</ele>
        <time>2021-08-10T09:20:24Z</time>
      </trkpt>
      <trkpt lat="48.67313" lon="4.5846">
        <ele>107.32</ele>
        <time>2021-08-10T09:20:34Z</time>
      </trkpt>
      <trkpt lat="48.67325" lon="4.58484">
        <ele>107.32</ele>
        <time>2021-08-10T09:20:38Z</time>
      </trkpt>
      <trkpt lat="48.67328" lon="4.5849">
        <ele>107.32</ele>
        <time>2021-08-10T09:20:39Z</time>
      </trkpt>
      <trkpt lat="48.67353" lon="4.58529">
        <ele>106.36</ele>
        <time>2021-08-10T09:20:45Z</time>
      </trkpt>
      <trkpt lat="48.67358" lon="4.58538">
        <ele>105.88</ele>
        <time>2021-08-10T09:20:46Z</time>
      </trkpt>
      <trkpt lat="48.67361" lon="4.58546">
        <ele>105.88</ele>
        <time>2021-08-10T09:20:47Z</time>
      </trkpt>
      <trkpt lat="48.67364" lon="4.58555">
        <ele>105.88</ele>
        <time>2021-08-10T09:20:48Z</time>
      </trkpt>
      <trkpt lat="48.67366" lon="4.58564">
        <ele>105.88</ele>
        <time>2021-08-10T09:20:49Z</time>
      </trkpt>
      <trkpt lat="48.67366" lon="4.58573">
        <ele>105.88</ele>
        <time>2021-08-10T09:20:50Z</time>
      </trkpt>
      <trkpt lat="48.67365" lon="4.58581">
        <ele>105.88</ele>
        <time>2021-08-10T09:20:51Z</time>
      </trkpt>
      <trkpt lat="48.67364" lon="4.58591">
        <ele>105.88</ele>
        <time>2021-08-10T09:20:52Z</time>
      </trkpt>
      <trkpt lat="48.67362" lon="4.58598">
        <ele>105.88</ele>
        <time>2021-08-10T09:20:53Z</time>
      </trkpt>
      <trkpt lat="48.67359" lon="4.58605">
        <ele>105.88</ele>
        <time>2021-08-10T09:20:54Z</time>
      </trkpt>
      <trkpt lat="48.67357" lon="4.58612">
        <ele>105.88</ele>
        <time>2021-08-10T09:20:55Z</time>
      </trkpt>
      <trkpt lat="48.67339" lon="4.5867">
        <ele>105.4</ele>
        <time>2021-08-10T09:21:03Z</time>
      </trkpt>
      <trkpt lat="48.67338" lon="4.58678">
        <ele>105.4</ele>
        <time>2021-08-10T09:21:04Z</time>
      </trkpt>
      <trkpt lat="48.67338" lon="4.58687">
        <ele>105.4</ele>
        <time>2021-08-10T09:21:05Z</time>
      </trkpt>
      <trkpt lat="48.67338" lon="4.58694">
        <ele>105.4</ele>
        <time>2021-08-10T09:21:06Z</time>
      </trkpt>
      <trkpt lat="48.67339" lon="4.58701">
        <ele>105.4</ele>
        <time>2021-08-10T09:21:07Z</time>
      </trkpt>
      <trkpt lat="48.67341" lon="4.58708">
        <ele>105.4</ele>
        <time>2021-08-10T09:21:08Z</time>
      </trkpt>
      <trkpt lat="48.67343" lon="4.58714">
        <ele>105.4</ele>
        <time>2021-08-10T09:21:09Z</time>
      </trkpt>
      <trkpt lat="48.67359" lon="4.58769">
        <ele>105.4</ele>
        <time>2021-08-10T09:21:17Z</time>
      </trkpt>
      <trkpt lat="48.67374" lon="4.58831">
        <ele>105.4</ele>
        <time>2021-08-10T09:21:26Z</time>
      </trkpt>
      <trkpt lat="48.67385" lon="4.58869">
        <ele>105.4</ele>
        <time>2021-08-10T09:21:32Z</time>
      </trkpt>
      <trkpt lat="48.67387" lon="4.58875">
        <ele>105.4</ele>
        <time>2021-08-10T09:21:33Z</time>
      </trkpt>
      <trkpt lat="48.67389" lon="4.58882">
        <ele>105.4</ele>
        <time>2021-08-10T09:21:34Z</time>
      </trkpt>
      <trkpt lat="48.6739" lon="4.58889">
        <ele>105.4</ele>
        <time>2021-08-10T09:21:35Z</time>
      </trkpt>
      <trkpt lat="48.6739" lon="4.58896">
        <ele>105.4</ele>
        <time>2021-08-10T09:21:36Z</time>
      </trkpt>
      <trkpt lat="48.67388" lon="4.58903">
        <ele>105.4</ele>
        <time>2021-08-10T09:21:37Z</time>
      </trkpt>
      <trkpt lat="48.67385" lon="4.58907">
        <ele>105.4</ele>
        <time>2021-08-10T09:21:38Z</time>
      </trkpt>
      <trkpt lat="48.67382" lon="4.58912">
        <ele>105.4</ele>
        <time>2021-08-10T09:21:39Z</time>
      </trkpt>
      <trkpt lat="48.67378" lon="4.58915">
        <ele>105.4</ele>
        <time>2021-08-10T09:21:40Z</time>
      </trkpt>
      <trkpt lat="48.67354" lon="4.58938">
        <ele>105.4</ele>
        <time>2021-08-10T09:21:46Z</time>
      </trkpt>
      <trkpt lat="48.67317" lon="4.58983">
        <ele>105.4</ele>
        <time>2021-08-10T09:21:56Z</time>
      </trkpt>
      <trkpt lat="48.67302" lon="4.59002">
        <ele>106.36</ele>
        <time>2021-08-10T09:22:00Z</time>
      </trkpt>
      <trkpt lat="48.67271" lon="4.59042">
        <ele>106.36</ele>
        <time>2021-08-10T09:22:08Z</time>
      </trkpt>
      <trkpt lat="48.67241" lon="4.59082">
        <ele>106.84</ele>
        <time>2021-08-10T09:22:16Z</time>
      </trkpt>
      <trkpt lat="48.67207" lon="4.59133">
        <ele>106.84</ele>
        <time>2021-08-10T09:22:25Z</time>
      </trkpt>
      <trkpt lat="48.67203" lon="4.59138">
        <ele>106.84</ele>
        <time>2021-08-10T09:22:26Z</time>
      </trkpt>
      <trkpt lat="48.67199" lon="4.59143">
        <ele>106.84</ele>
        <time>2021-08-10T09:22:27Z</time>
      </trkpt>
      <trkpt lat="48.67165" lon="4.59185">
        <ele>106.84</ele>
        <time>2021-08-10T09:22:35Z</time>
      </trkpt>
      <trkpt lat="48.67136" lon="4.59216">
        <ele>106.84</ele>
        <time>2021-08-10T09:22:42Z</time>
      </trkpt>
      <trkpt lat="48.67127" lon="4.59225">
        <ele>106.84</ele>
        <time>2021-08-10T09:22:44Z</time>
      </trkpt>
      <trkpt lat="48.67093" lon="4.59263">
        <ele>106.84</ele>
        <time>2021-08-10T09:22:52Z</time>
      </trkpt>
      <trkpt lat="48.67084" lon="4.59273">
        <ele>106.84</ele>
        <time>2021-08-10T09:22:54Z</time>
      </trkpt>
      <trkpt lat="48.6708" lon="4.59278">
        <ele>106.84</ele>
        <time>2021-08-10T09:22:55Z</time>
      </trkpt>
      <trkpt lat="48.67041" lon="4.59324">
        <ele>106.84</ele>
        <time>2021-08-10T09:23:04Z</time>
      </trkpt>
      <trkpt lat="48.67012" lon="4.5936">
        <ele>106.84</ele>
        <time>2021-08-10T09:23:11Z</time>
      </trkpt>
      <trkpt lat="48.67009" lon="4.59365">
        <ele>106.84</ele>
        <time>2021-08-10T09:23:12Z</time>
      </trkpt>
      <trkpt lat="48.67004" lon="4.59371">
        <ele>106.84</ele>
        <time>2021-08-10T09:23:13Z</time>
      </trkpt>
      <trkpt lat="48.66974" lon="4.59412">
        <ele>106.84</ele>
        <time>2021-08-10T09:23:21Z</time>
      </trkpt>
      <trkpt lat="48.66945" lon="4.59453">
        <ele>106.84</ele>
        <time>2021-08-10T09:23:29Z</time>
      </trkpt>
      <trkpt lat="48.66927" lon="4.59479">
        <ele>106.84</ele>
        <time>2021-08-10T09:23:34Z</time>
      </trkpt>
      <trkpt lat="48.66924" lon="4.59485">
        <ele>106.84</ele>
        <time>2021-08-10T09:23:35Z</time>
      </trkpt>
      <trkpt lat="48.66892" lon="4.59543">
        <ele>106.84</ele>
        <time>2021-08-10T09:23:45Z</time>
      </trkpt>
      <trkpt lat="48.66874" lon="4.59572">
        <ele>106.84</ele>
        <time>2021-08-10T09:23:50Z</time>
      </trkpt>
      <trkpt lat="48.66871" lon="4.59578">
        <ele>106.84</ele>
        <time>2021-08-10T09:23:51Z</time>
      </trkpt>
      <trkpt lat="48.66867" lon="4.59584">
        <ele>106.84</ele>
        <time>2021-08-10T09:23:52Z</time>
      </trkpt>
      <trkpt lat="48.66836" lon="4.59629">
        <ele>106.84</ele>
        <time>2021-08-10T09:24:00Z</time>
      </trkpt>
      <trkpt lat="48.66822" lon="4.5965">
        <ele>106.84</ele>
        <time>2021-08-10T09:24:04Z</time>
      </trkpt>
      <trkpt lat="48.6681" lon="4.59664">
        <ele>106.84</ele>
        <time>2021-08-10T09:24:07Z</time>
      </trkpt>
      <trkpt lat="48.66803" lon="4.59673">
        <ele>106.84</ele>
        <time>2021-08-10T09:24:09Z</time>
      </trkpt>
      <trkpt lat="48.66768" lon="4.59715">
        <ele>106.84</ele>
        <time>2021-08-10T09:24:18Z</time>
      </trkpt>
      <trkpt lat="48.6673" lon="4.5976">
        <ele>106.84</ele>
        <time>2021-08-10T09:24:27Z</time>
      </trkpt>
      <trkpt lat="48.66709" lon="4.59784">
        <ele>106.84</ele>
        <time>2021-08-10T09:24:32Z</time>
      </trkpt>
      <trkpt lat="48.66679" lon="4.59819">
        <ele>106.84</ele>
        <time>2021-08-10T09:24:39Z</time>
      </trkpt>
      <trkpt lat="48.66676" lon="4.59823">
        <ele>106.84</ele>
        <time>2021-08-10T09:24:40Z</time>
      </trkpt>
      <trkpt lat="48.66672" lon="4.59827">
        <ele>106.84</ele>
        <time>2021-08-10T09:24:41Z</time>
      </trkpt>
      <trkpt lat="48.66661" lon="4.59841">
        <ele>106.84</ele>
        <time>2021-08-10T09:24:44Z</time>
      </trkpt>
      <trkpt lat="48.6665" lon="4.59853">
        <ele>106.84</ele>
        <time>2021-08-10T09:24:47Z</time>
      </trkpt>
      <trkpt lat="48.66637" lon="4.59864">
        <ele>106.84</ele>
        <time>2021-08-10T09:24:50Z</time>
      </trkpt>
      <trkpt lat="48.66633" lon="4.59868">
        <ele>106.84</ele>
        <time>2021-08-10T09:24:51Z</time>
      </trkpt>
      <trkpt lat="48.66626" lon="4.59876">
        <ele>106.84</ele>
        <time>2021-08-10T09:24:53Z</time>
      </trkpt>
      <trkpt lat="48.66622" lon="4.5988">
        <ele>106.84</ele>
        <time>2021-08-10T09:24:54Z</time>
      </trkpt>
      <trkpt lat="48.66601" lon="4.59898">
        <ele>106.84</ele>
        <time>2021-08-10T09:24:59Z</time>
      </trkpt>
      <trkpt lat="48.66585" lon="4.59914">
        <ele>106.84</ele>
        <time>2021-08-10T09:25:03Z</time>
      </trkpt>
      <trkpt lat="48.66567" lon="4.59929">
        <ele>106.84</ele>
        <time>2021-08-10T09:25:07Z</time>
      </trkpt>
      <trkpt lat="48.66562" lon="4.59934">
        <ele>106.84</ele>
        <time>2021-08-10T09:25:08Z</time>
      </trkpt>
      <trkpt lat="48.66558" lon="4.59939">
        <ele>106.84</ele>
        <time>2021-08-10T09:25:09Z</time>
      </trkpt>
      <trkpt lat="48.6655" lon="4.5995">
        <ele>106.84</ele>
        <time>2021-08-10T09:25:11Z</time>
      </trkpt>
      <trkpt lat="48.66546" lon="4.59955">
        <ele>106.84</ele>
        <time>2021-08-10T09:25:12Z</time>
      </trkpt>
      <trkpt lat="48.66514" lon="4.59995">
        <ele>106.84</ele>
        <time>2021-08-10T09:25:20Z</time>
      </trkpt>
      <trkpt lat="48.66495" lon="4.60023">
        <ele>106.84</ele>
        <time>2021-08-10T09:25:25Z</time>
      </trkpt>
      <trkpt lat="48.66473" lon="4.60052">
        <ele>106.84</ele>
        <time>2021-08-10T09:25:31Z</time>
      </trkpt>
      <trkpt lat="48.66455" lon="4.60081">
        <ele>107.32</ele>
        <time>2021-08-10T09:25:37Z</time>
      </trkpt>
      <trkpt lat="48.66442" lon="4.601">
        <ele>107.32</ele>
        <time>2021-08-10T09:25:43Z</time>
      </trkpt>
      <trkpt lat="48.66424" lon="4.60127">
        <ele>107.32</ele>
        <time>2021-08-10T09:25:50Z</time>
      </trkpt>
      <trkpt lat="48.66396" lon="4.60156">
        <ele>107.32</ele>
        <time>2021-08-10T09:25:59Z</time>
      </trkpt>
      <trkpt lat="48.66379" lon="4.60176">
        <ele>107.32</ele>
        <time>2021-08-10T09:26:05Z</time>
      </trkpt>
      <trkpt lat="48.6636" lon="4.60195">
        <ele>107.32</ele>
        <time>2021-08-10T09:26:11Z</time>
      </trkpt>
      <trkpt lat="48.66327" lon="4.60231">
        <ele>107.32</ele>
        <time>2021-08-10T09:26:21Z</time>
      </trkpt>
      <trkpt lat="48.66296" lon="4.60255">
        <ele>107.32</ele>
        <time>2021-08-10T09:26:30Z</time>
      </trkpt>
      <trkpt lat="48.66275" lon="4.60261">
        <ele>107.32</ele>
        <time>2021-08-10T09:26:36Z</time>
      </trkpt>
      <trkpt lat="48.66247" lon="4.60273">
        <ele>107.32</ele>
        <time>2021-08-10T09:26:43Z</time>
      </trkpt>
      <trkpt lat="48.66219" lon="4.60288">
        <ele>107.32</ele>
        <time>2021-08-10T09:26:50Z</time>
      </trkpt>
      <trkpt lat="48.66208" lon="4.60296">
        <ele>107.32</ele>
        <time>2021-08-10T09:26:53Z</time>
      </trkpt>
      <trkpt lat="48.662" lon="4.60302">
        <ele>107.32</ele>
        <time>2021-08-10T09:26:55Z</time>
      </trkpt>
      <trkpt lat="48.66177" lon="4.6032">
        <ele>107.32</ele>
        <time>2021-08-10T09:27:02Z</time>
      </trkpt>
      <trkpt lat="48.66156" lon="4.60338">
        <ele>107.32</ele>
        <time>2021-08-10T09:27:08Z</time>
      </trkpt>
      <trkpt lat="48.66126" lon="4.60366">
        <ele>107.32</ele>
        <time>2021-08-10T09:27:17Z</time>
      </trkpt>
      <trkpt lat="48.66087" lon="4.604">
        <ele>107.32</ele>
        <time>2021-08-10T09:27:28Z</time>
      </trkpt>
      <trkpt lat="48.6606" lon="4.60425">
        <ele>107.81</ele>
        <time>2021-08-10T09:27:36Z</time>
      </trkpt>
      <trkpt lat="48.66048" lon="4.60433">
        <ele>107.81</ele>
        <time>2021-08-10T09:27:40Z</time>
      </trkpt>
      <trkpt lat="48.66045" lon="4.60431">
        <ele>107.81</ele>
        <time>2021-08-10T09:27:41Z</time>
      </trkpt>
      <trkpt lat="48.66042" lon="4.60428">
        <ele>107.81</ele>
        <time>2021-08-10T09:27:42Z</time>
      </trkpt>
      <trkpt lat="48.6604" lon="4.60425">
        <ele>107.81</ele>
        <time>2021-08-10T09:27:43Z</time>
      </trkpt>
      <trkpt lat="48.66038" lon="4.6042">
        <ele>107.81</ele>
        <time>2021-08-10T09:27:44Z</time>
      </trkpt>
      <trkpt lat="48.66032" lon="4.60414">
        <ele>107.81</ele>
        <time>2021-08-10T09:27:46Z</time>
      </trkpt>
      <trkpt lat="48.66028" lon="4.60415">
        <ele>107.81</ele>
        <time>2021-08-10T09:27:47Z</time>
      </trkpt>
      <trkpt lat="48.66024" lon="4.60417">
        <ele>107.81</ele>
        <time>2021-08-10T09:27:48Z</time>
      </trkpt>
      <trkpt lat="48.6602" lon="4.6042">
        <ele>107.81</ele>
        <time>2021-08-10T09:27:49Z</time>
      </trkpt>
      <trkpt lat="48.66017" lon="4.60424">
        <ele>107.81</ele>
        <time>2021-08-10T09:27:50Z</time>
      </trkpt>
      <trkpt lat="48.66014" lon="4.60428">
        <ele>107.81</ele>
        <time>2021-08-10T09:27:51Z</time>
      </trkpt>
      <trkpt lat="48.65979" lon="4.60466">
        <ele>107.81</ele>
        <time>2021-08-10T09:28:01Z</time>
      </trkpt>
      <trkpt lat="48.6594" lon="4.60511">
        <ele>107.81</ele>
        <time>2021-08-10T09:28:12Z</time>
      </trkpt>
      <trkpt lat="48.65902" lon="4.60555">
        <ele>107.81</ele>
        <time>2021-08-10T09:28:22Z</time>
      </trkpt>
      <trkpt lat="48.65859" lon="4.60605">
        <ele>107.81</ele>
        <time>2021-08-10T09:28:33Z</time>
      </trkpt>
      <trkpt lat="48.6582" lon="4.60648">
        <ele>107.81</ele>
        <time>2021-08-10T09:28:42Z</time>
      </trkpt>
      <trkpt lat="48.65781" lon="4.6069">
        <ele>107.81</ele>
        <time>2021-08-10T09:28:51Z</time>
      </trkpt>
      <trkpt lat="48.65741" lon="4.60735">
        <ele>107.81</ele>
        <time>2021-08-10T09:29:01Z</time>
      </trkpt>
      <trkpt lat="48.65695" lon="4.60788">
        <ele>107.81</ele>
        <time>2021-08-10T09:29:12Z</time>
      </trkpt>
      <trkpt lat="48.65649" lon="4.6084">
        <ele>107.81</ele>
        <time>2021-08-10T09:29:23Z</time>
      </trkpt>
      <trkpt lat="48.65631" lon="4.60865">
        <ele>107.81</ele>
        <time>2021-08-10T09:29:28Z</time>
      </trkpt>
      <trkpt lat="48.65628" lon="4.60872">
        <ele>107.81</ele>
        <time>2021-08-10T09:29:29Z</time>
      </trkpt>
      <trkpt lat="48.65624" lon="4.60884">
        <ele>107.81</ele>
        <time>2021-08-10T09:29:31Z</time>
      </trkpt>
      <trkpt lat="48.65622" lon="4.60892">
        <ele>107.81</ele>
        <time>2021-08-10T09:29:32Z</time>
      </trkpt>
      <trkpt lat="48.65614" lon="4.60935">
        <ele>107.81</ele>
        <time>2021-08-10T09:29:38Z</time>
      </trkpt>
      <trkpt lat="48.65614" lon="4.60942">
        <ele>107.81</ele>
        <time>2021-08-10T09:29:39Z</time>
      </trkpt>
      <trkpt lat="48.65612" lon="4.60956">
        <ele>107.81</ele>
        <time>2021-08-10T09:29:41Z</time>
      </trkpt>
      <trkpt lat="48.65611" lon="4.60963">
        <ele>107.81</ele>
        <time>2021-08-10T09:29:42Z</time>
      </trkpt>
      <trkpt lat="48.65599" lon="4.61032">
        <ele>108.29</ele>
        <time>2021-08-10T09:29:52Z</time>
      </trkpt>
      <trkpt lat="48.65587" lon="4.61091">
        <ele>108.29</ele>
        <time>2021-08-10T09:30:01Z</time>
      </trkpt>
      <trkpt lat="48.65569" lon="4.61167">
        <ele>108.77</ele>
        <time>2021-08-10T09:30:13Z</time>
      </trkpt>
      <trkpt lat="48.65557" lon="4.61205">
        <ele>108.77</ele>
        <time>2021-08-10T09:30:19Z</time>
      </trkpt>
      <trkpt lat="48.65533" lon="4.61258">
        <ele>108.77</ele>
        <time>2021-08-10T09:30:28Z</time>
      </trkpt>
      <trkpt lat="48.65505" lon="4.61306">
        <ele>108.77</ele>
        <time>2021-08-10T09:30:37Z</time>
      </trkpt>
      <trkpt lat="48.65497" lon="4.61315">
        <ele>108.77</ele>
        <time>2021-08-10T09:30:39Z</time>
      </trkpt>
      <trkpt lat="48.6549" lon="4.61323">
        <ele>108.77</ele>
        <time>2021-08-10T09:30:41Z</time>
      </trkpt>
      <trkpt lat="48.6547" lon="4.6134">
        <ele>109.25</ele>
        <time>2021-08-10T09:30:46Z</time>
      </trkpt>
      <trkpt lat="48.65452" lon="4.61362">
        <ele>109.25</ele>
        <time>2021-08-10T09:30:51Z</time>
      </trkpt>
      <trkpt lat="48.65438" lon="4.61391">
        <ele>109.25</ele>
        <time>2021-08-10T09:30:57Z</time>
      </trkpt>
      <trkpt lat="48.65417" lon="4.61442">
        <ele>109.73</ele>
        <time>2021-08-10T09:31:06Z</time>
      </trkpt>
      <trkpt lat="48.65397" lon="4.61498">
        <ele>110.21</ele>
        <time>2021-08-10T09:31:16Z</time>
      </trkpt>
      <trkpt lat="48.65385" lon="4.61533">
        <ele>110.69</ele>
        <time>2021-08-10T09:31:22Z</time>
      </trkpt>
      <trkpt lat="48.65365" lon="4.61584">
        <ele>112.61</ele>
        <time>2021-08-10T09:31:32Z</time>
      </trkpt>
      <trkpt lat="48.65344" lon="4.61637">
        <ele>113.57</ele>
        <time>2021-08-10T09:31:42Z</time>
      </trkpt>
      <trkpt lat="48.65318" lon="4.61683">
        <ele>114.05</ele>
        <time>2021-08-10T09:31:52Z</time>
      </trkpt>
      <trkpt lat="48.65294" lon="4.61716">
        <ele>114.53</ele>
        <time>2021-08-10T09:32:00Z</time>
      </trkpt>
      <trkpt lat="48.6526" lon="4.61753">
        <ele>114.53</ele>
        <time>2021-08-10T09:32:09Z</time>
      </trkpt>
      <trkpt lat="48.65244" lon="4.6177">
        <ele>114.53</ele>
        <time>2021-08-10T09:32:13Z</time>
      </trkpt>
      <trkpt lat="48.6524" lon="4.61775">
        <ele>114.53</ele>
        <time>2021-08-10T09:32:14Z</time>
      </trkpt>
      <trkpt lat="48.65236" lon="4.61778">
        <ele>114.53</ele>
        <time>2021-08-10T09:32:15Z</time>
      </trkpt>
      <trkpt lat="48.65196" lon="4.61812">
        <ele>115.5</ele>
        <time>2021-08-10T09:32:25Z</time>
      </trkpt>
      <trkpt lat="48.65188" lon="4.61819">
        <ele>115.01</ele>
        <time>2021-08-10T09:32:27Z</time>
      </trkpt>
      <trkpt lat="48.6518" lon="4.61824">
        <ele>115.5</ele>
        <time>2021-08-10T09:32:29Z</time>
      </trkpt>
      <trkpt lat="48.65175" lon="4.61825">
        <ele>115.5</ele>
        <time>2021-08-10T09:32:30Z</time>
      </trkpt>
      <trkpt lat="48.65171" lon="4.61824">
        <ele>115.5</ele>
        <time>2021-08-10T09:32:31Z</time>
      </trkpt>
      <trkpt lat="48.65166" lon="4.61822">
        <ele>115.5</ele>
        <time>2021-08-10T09:32:32Z</time>
      </trkpt>
      <trkpt lat="48.65162" lon="4.61818">
        <ele>115.98</ele>
        <time>2021-08-10T09:32:33Z</time>
      </trkpt>
      <trkpt lat="48.6516" lon="4.61813">
        <ele>115.98</ele>
        <time>2021-08-10T09:32:34Z</time>
      </trkpt>
      <trkpt lat="48.65157" lon="4.61807">
        <ele>115.98</ele>
        <time>2021-08-10T09:32:35Z</time>
      </trkpt>
      <trkpt lat="48.65155" lon="4.618">
        <ele>115.98</ele>
        <time>2021-08-10T09:32:36Z</time>
      </trkpt>
      <trkpt lat="48.65154" lon="4.61794">
        <ele>116.46</ele>
        <time>2021-08-10T09:32:37Z</time>
      </trkpt>
      <trkpt lat="48.65153" lon="4.61788">
        <ele>116.46</ele>
        <time>2021-08-10T09:32:38Z</time>
      </trkpt>
      <trkpt lat="48.65144" lon="4.61726">
        <ele>117.9</ele>
        <time>2021-08-10T09:32:47Z</time>
      </trkpt>
      <trkpt lat="48.65142" lon="4.61666">
        <ele>118.38</ele>
        <time>2021-08-10T09:32:56Z</time>
      </trkpt>
      <trkpt lat="48.6514" lon="4.61611">
        <ele>119.82</ele>
        <time>2021-08-10T09:33:05Z</time>
      </trkpt>
      <trkpt lat="48.65137" lon="4.61568">
        <ele>121.74</ele>
        <time>2021-08-10T09:33:14Z</time>
      </trkpt>
      <trkpt lat="48.65133" lon="4.61537">
        <ele>122.71</ele>
        <time>2021-08-10T09:33:21Z</time>
      </trkpt>
      <trkpt lat="48.6513" lon="4.61499">
        <ele>124.63</ele>
        <time>2021-08-10T09:33:30Z</time>
      </trkpt>
      <trkpt lat="48.65126" lon="4.61459">
        <ele>126.07</ele>
        <time>2021-08-10T09:33:40Z</time>
      </trkpt>
      <trkpt lat="48.65121" lon="4.61414">
        <ele>127.51</ele>
        <time>2021-08-10T09:33:50Z</time>
      </trkpt>
      <trkpt lat="48.65112" lon="4.61366">
        <ele>128.47</ele>
        <time>2021-08-10T09:34:00Z</time>
      </trkpt>
      <trkpt lat="48.65093" lon="4.613">
        <ele>128.47</ele>
        <time>2021-08-10T09:34:12Z</time>
      </trkpt>
      <trkpt lat="48.65072" lon="4.61232">
        <ele>128.47</ele>
        <time>2021-08-10T09:34:22Z</time>
      </trkpt>
      <trkpt lat="48.65063" lon="4.61201">
        <ele>127.03</ele>
        <time>2021-08-10T09:34:26Z</time>
      </trkpt>
      <trkpt lat="48.65062" lon="4.61193">
        <ele>127.03</ele>
        <time>2021-08-10T09:34:27Z</time>
      </trkpt>
      <trkpt lat="48.65058" lon="4.61176">
        <ele>127.03</ele>
        <time>2021-08-10T09:34:29Z</time>
      </trkpt>
      <trkpt lat="48.65055" lon="4.61169">
        <ele>127.03</ele>
        <time>2021-08-10T09:34:30Z</time>
      </trkpt>
      <trkpt lat="48.65051" lon="4.61163">
        <ele>127.03</ele>
        <time>2021-08-10T09:34:31Z</time>
      </trkpt>
      <trkpt lat="48.65046" lon="4.61159">
        <ele>127.03</ele>
        <time>2021-08-10T09:34:32Z</time>
      </trkpt>
      <trkpt lat="48.6504" lon="4.6116">
        <ele>127.03</ele>
        <time>2021-08-10T09:34:33Z</time>
      </trkpt>
      <trkpt lat="48.65037" lon="4.61163">
        <ele>127.03</ele>
        <time>2021-08-10T09:34:34Z</time>
      </trkpt>
      <trkpt lat="48.65033" lon="4.61168">
        <ele>126.55</ele>
        <time>2021-08-10T09:34:35Z</time>
      </trkpt>
      <trkpt lat="48.6503" lon="4.61174">
        <ele>126.55</ele>
        <time>2021-08-10T09:34:36Z</time>
      </trkpt>
      <trkpt lat="48.64996" lon="4.61229">
        <ele>126.55</ele>
        <time>2021-08-10T09:34:46Z</time>
      </trkpt>
      <trkpt lat="48.64972" lon="4.61266">
        <ele>125.59</ele>
        <time>2021-08-10T09:34:52Z</time>
      </trkpt>
      <trkpt lat="48.64926" lon="4.61338">
        <ele>124.15</ele>
        <time>2021-08-10T09:35:03Z</time>
      </trkpt>
      <trkpt lat="48.64884" lon="4.61401">
        <ele>124.15</ele>
        <time>2021-08-10T09:35:13Z</time>
      </trkpt>
      <trkpt lat="48.64837" lon="4.61464">
        <ele>124.15</ele>
        <time>2021-08-10T09:35:24Z</time>
      </trkpt>
      <trkpt lat="48.64803" lon="4.61507">
        <ele>124.15</ele>
        <time>2021-08-10T09:35:32Z</time>
      </trkpt>
      <trkpt lat="48.6479" lon="4.61522">
        <ele>125.59</ele>
        <time>2021-08-10T09:35:35Z</time>
      </trkpt>
      <trkpt lat="48.64752" lon="4.61573">
        <ele>125.59</ele>
        <time>2021-08-10T09:35:44Z</time>
      </trkpt>
      <trkpt lat="48.64703" lon="4.61635">
        <ele>124.15</ele>
        <time>2021-08-10T09:35:54Z</time>
      </trkpt>
      <trkpt lat="48.6467" lon="4.61678">
        <ele>124.15</ele>
        <time>2021-08-10T09:36:02Z</time>
      </trkpt>
      <trkpt lat="48.64642" lon="4.61715">
        <ele>124.15</ele>
        <time>2021-08-10T09:36:09Z</time>
      </trkpt>
      <trkpt lat="48.64603" lon="4.61781">
        <ele>121.74</ele>
        <time>2021-08-10T09:36:19Z</time>
      </trkpt>
      <trkpt lat="48.64562" lon="4.6186">
        <ele>118.86</ele>
        <time>2021-08-10T09:36:28Z</time>
      </trkpt>
      <trkpt lat="48.64525" lon="4.61934">
        <ele>118.38</ele>
        <time>2021-08-10T09:36:37Z</time>
      </trkpt>
      <trkpt lat="48.64493" lon="4.62002">
        <ele>115.98</ele>
        <time>2021-08-10T09:36:45Z</time>
      </trkpt>
      <trkpt lat="48.6446" lon="4.62078">
        <ele>115.5</ele>
        <time>2021-08-10T09:36:54Z</time>
      </trkpt>
      <trkpt lat="48.64425" lon="4.62159">
        <ele>115.01</ele>
        <time>2021-08-10T09:37:04Z</time>
      </trkpt>
      <trkpt lat="48.64388" lon="4.62237">
        <ele>113.57</ele>
        <time>2021-08-10T09:37:14Z</time>
      </trkpt>
      <trkpt lat="48.64346" lon="4.62305">
        <ele>111.65</ele>
        <time>2021-08-10T09:37:23Z</time>
      </trkpt>
      <trkpt lat="48.64298" lon="4.62374">
        <ele>110.69</ele>
        <time>2021-08-10T09:37:33Z</time>
      </trkpt>
      <trkpt lat="48.64257" lon="4.62435">
        <ele>110.21</ele>
        <time>2021-08-10T09:37:42Z</time>
      </trkpt>
      <trkpt lat="48.64214" lon="4.62503">
        <ele>110.21</ele>
        <time>2021-08-10T09:37:52Z</time>
      </trkpt>
      <trkpt lat="48.64206" lon="4.62514">
        <ele>110.21</ele>
        <time>2021-08-10T09:37:54Z</time>
      </trkpt>
      <trkpt lat="48.64157" lon="4.6256">
        <ele>110.21</ele>
        <time>2021-08-10T09:38:04Z</time>
      </trkpt>
      <trkpt lat="48.64114" lon="4.62579">
        <ele>109.73</ele>
        <time>2021-08-10T09:38:12Z</time>
      </trkpt>
      <trkpt lat="48.64094" lon="4.62589">
        <ele>109.73</ele>
        <time>2021-08-10T09:38:16Z</time>
      </trkpt>
      <trkpt lat="48.64089" lon="4.62593">
        <ele>109.73</ele>
        <time>2021-08-10T09:38:17Z</time>
      </trkpt>
      <trkpt lat="48.64064" lon="4.62615">
        <ele>111.17</ele>
        <time>2021-08-10T09:38:23Z</time>
      </trkpt>
      <trkpt lat="48.64057" lon="4.62622">
        <ele>112.13</ele>
        <time>2021-08-10T09:38:25Z</time>
      </trkpt>
      <trkpt lat="48.64054" lon="4.62626">
        <ele>112.13</ele>
        <time>2021-08-10T09:38:26Z</time>
      </trkpt>
      <trkpt lat="48.64023" lon="4.62656">
        <ele>114.05</ele>
        <time>2021-08-10T09:38:36Z</time>
      </trkpt>
      <trkpt lat="48.64005" lon="4.62672">
        <ele>115.01</ele>
        <time>2021-08-10T09:38:42Z</time>
      </trkpt>
      <trkpt lat="48.63975" lon="4.62703">
        <ele>116.94</ele>
        <time>2021-08-10T09:38:52Z</time>
      </trkpt>
      <trkpt lat="48.63945" lon="4.62737">
        <ele>117.42</ele>
        <time>2021-08-10T09:39:01Z</time>
      </trkpt>
      <trkpt lat="48.63918" lon="4.62772">
        <ele>115.98</ele>
        <time>2021-08-10T09:39:08Z</time>
      </trkpt>
      <trkpt lat="48.63879" lon="4.62835">
        <ele>114.53</ele>
        <time>2021-08-10T09:39:18Z</time>
      </trkpt>
      <trkpt lat="48.63849" lon="4.62893">
        <ele>113.57</ele>
        <time>2021-08-10T09:39:26Z</time>
      </trkpt>
      <trkpt lat="48.6381" lon="4.62952">
        <ele>111.65</ele>
        <time>2021-08-10T09:39:34Z</time>
      </trkpt>
      <trkpt lat="48.63779" lon="4.62997">
        <ele>111.17</ele>
        <time>2021-08-10T09:39:40Z</time>
      </trkpt>
      <trkpt lat="48.63776" lon="4.63006">
        <ele>111.17</ele>
        <time>2021-08-10T09:39:41Z</time>
      </trkpt>
      <trkpt lat="48.63772" lon="4.63015">
        <ele>111.17</ele>
        <time>2021-08-10T09:39:42Z</time>
      </trkpt>
      <trkpt lat="48.63751" lon="4.63092">
        <ele>110.69</ele>
        <time>2021-08-10T09:39:50Z</time>
      </trkpt>
      <trkpt lat="48.63725" lon="4.6319">
        <ele>110.69</ele>
        <time>2021-08-10T09:40:01Z</time>
      </trkpt>
      <trkpt lat="48.6371" lon="4.63271">
        <ele>110.69</ele>
        <time>2021-08-10T09:40:10Z</time>
      </trkpt>
      <trkpt lat="48.63707" lon="4.63318">
        <ele>110.69</ele>
        <time>2021-08-10T09:40:15Z</time>
      </trkpt>
      <trkpt lat="48.63705" lon="4.63327">
        <ele>110.69</ele>
        <time>2021-08-10T09:40:16Z</time>
      </trkpt>
      <trkpt lat="48.63703" lon="4.63336">
        <ele>110.69</ele>
        <time>2021-08-10T09:40:17Z</time>
      </trkpt>
      <trkpt lat="48.63699" lon="4.63343">
        <ele>110.69</ele>
        <time>2021-08-10T09:40:18Z</time>
      </trkpt>
      <trkpt lat="48.63695" lon="4.63349">
        <ele>110.69</ele>
        <time>2021-08-10T09:40:19Z</time>
      </trkpt>
      <trkpt lat="48.63691" lon="4.63355">
        <ele>110.69</ele>
        <time>2021-08-10T09:40:20Z</time>
      </trkpt>
      <trkpt lat="48.63687" lon="4.6336">
        <ele>110.69</ele>
        <time>2021-08-10T09:40:21Z</time>
      </trkpt>
      <trkpt lat="48.63649" lon="4.63413">
        <ele>110.69</ele>
        <time>2021-08-10T09:40:30Z</time>
      </trkpt>
      <trkpt lat="48.63629" lon="4.63443">
        <ele>110.69</ele>
        <time>2021-08-10T09:40:35Z</time>
      </trkpt>
      <trkpt lat="48.63623" lon="4.63456">
        <ele>110.69</ele>
        <time>2021-08-10T09:40:37Z</time>
      </trkpt>
      <trkpt lat="48.63593" lon="4.63504">
        <ele>110.69</ele>
        <time>2021-08-10T09:40:45Z</time>
      </trkpt>
      <trkpt lat="48.63557" lon="4.63565">
        <ele>111.65</ele>
        <time>2021-08-10T09:40:55Z</time>
      </trkpt>
      <trkpt lat="48.63537" lon="4.63605">
        <ele>113.09</ele>
        <time>2021-08-10T09:41:03Z</time>
      </trkpt>
      <trkpt lat="48.63524" lon="4.63632">
        <ele>114.05</ele>
        <time>2021-08-10T09:41:09Z</time>
      </trkpt>
      <trkpt lat="48.6351" lon="4.63656">
        <ele>115.01</ele>
        <time>2021-08-10T09:41:15Z</time>
      </trkpt>
      <trkpt lat="48.63483" lon="4.63688">
        <ele>115.01</ele>
        <time>2021-08-10T09:41:23Z</time>
      </trkpt>
      <trkpt lat="48.63441" lon="4.63728">
        <ele>113.57</ele>
        <time>2021-08-10T09:41:32Z</time>
      </trkpt>
      <trkpt lat="48.63436" lon="4.63732">
        <ele>113.57</ele>
        <time>2021-08-10T09:41:33Z</time>
      </trkpt>
      <trkpt lat="48.63402" lon="4.63756">
        <ele>113.57</ele>
        <time>2021-08-10T09:41:40Z</time>
      </trkpt>
      <trkpt lat="48.63355" lon="4.63782">
        <ele>113.57</ele>
        <time>2021-08-10T09:41:50Z</time>
      </trkpt>
      <trkpt lat="48.63305" lon="4.63808">
        <ele>113.57</ele>
        <time>2021-08-10T09:41:59Z</time>
      </trkpt>
      <trkpt lat="48.63267" lon="4.63825">
        <ele>113.57</ele>
        <time>2021-08-10T09:42:06Z</time>
      </trkpt>
      <trkpt lat="48.63235" lon="4.63836">
        <ele>115.01</ele>
        <time>2021-08-10T09:42:13Z</time>
      </trkpt>
      <trkpt lat="48.6323" lon="4.63838">
        <ele>115.01</ele>
        <time>2021-08-10T09:42:14Z</time>
      </trkpt>
      <trkpt lat="48.63205" lon="4.63846">
        <ele>116.94</ele>
        <time>2021-08-10T09:42:21Z</time>
      </trkpt>
      <trkpt lat="48.63201" lon="4.63847">
        <ele>116.94</ele>
        <time>2021-08-10T09:42:22Z</time>
      </trkpt>
      <trkpt lat="48.63178" lon="4.63852">
        <ele>118.38</ele>
        <time>2021-08-10T09:42:30Z</time>
      </trkpt>
      <trkpt lat="48.63153" lon="4.6387">
        <ele>118.86</ele>
        <time>2021-08-10T09:42:39Z</time>
      </trkpt>
      <trkpt lat="48.63126" lon="4.63894">
        <ele>119.34</ele>
        <time>2021-08-10T09:42:48Z</time>
      </trkpt>
      <trkpt lat="48.63096" lon="4.63927">
        <ele>119.82</ele>
        <time>2021-08-10T09:42:57Z</time>
      </trkpt>
      <trkpt lat="48.6309" lon="4.63934">
        <ele>119.82</ele>
        <time>2021-08-10T09:42:59Z</time>
      </trkpt>
      <trkpt lat="48.63082" lon="4.63942">
        <ele>120.3</ele>
        <time>2021-08-10T09:43:01Z</time>
      </trkpt>
      <trkpt lat="48.63051" lon="4.63977">
        <ele>120.3</ele>
        <time>2021-08-10T09:43:09Z</time>
      </trkpt>
      <trkpt lat="48.63043" lon="4.63989">
        <ele>120.3</ele>
        <time>2021-08-10T09:43:11Z</time>
      </trkpt>
      <trkpt lat="48.6304" lon="4.63995">
        <ele>120.3</ele>
        <time>2021-08-10T09:43:12Z</time>
      </trkpt>
      <trkpt lat="48.63037" lon="4.64002">
        <ele>120.3</ele>
        <time>2021-08-10T09:43:13Z</time>
      </trkpt>
      <trkpt lat="48.63012" lon="4.64077">
        <ele>118.38</ele>
        <time>2021-08-10T09:43:23Z</time>
      </trkpt>
      <trkpt lat="48.62986" lon="4.64161">
        <ele>118.86</ele>
        <time>2021-08-10T09:43:34Z</time>
      </trkpt>
      <trkpt lat="48.62976" lon="4.64226">
        <ele>119.34</ele>
        <time>2021-08-10T09:43:42Z</time>
      </trkpt>
      <trkpt lat="48.6297" lon="4.64249">
        <ele>119.34</ele>
        <time>2021-08-10T09:43:45Z</time>
      </trkpt>
      <trkpt lat="48.62945" lon="4.64315">
        <ele>117.42</ele>
        <time>2021-08-10T09:43:54Z</time>
      </trkpt>
      <trkpt lat="48.62913" lon="4.64365">
        <ele>116.46</ele>
        <time>2021-08-10T09:44:02Z</time>
      </trkpt>
      <trkpt lat="48.62867" lon="4.6441">
        <ele>115.5</ele>
        <time>2021-08-10T09:44:11Z</time>
      </trkpt>
      <trkpt lat="48.62852" lon="4.64423">
        <ele>115.01</ele>
        <time>2021-08-10T09:44:14Z</time>
      </trkpt>
      <trkpt lat="48.62846" lon="4.64427">
        <ele>115.01</ele>
        <time>2021-08-10T09:44:15Z</time>
      </trkpt>
      <trkpt lat="48.62799" lon="4.64455">
        <ele>114.05</ele>
        <time>2021-08-10T09:44:24Z</time>
      </trkpt>
      <trkpt lat="48.62755" lon="4.64481">
        <ele>113.09</ele>
        <time>2021-08-10T09:44:32Z</time>
      </trkpt>
      <trkpt lat="48.62723" lon="4.64513">
        <ele>112.61</ele>
        <time>2021-08-10T09:44:38Z</time>
      </trkpt>
      <trkpt lat="48.62715" lon="4.64525">
        <ele>112.61</ele>
        <time>2021-08-10T09:44:40Z</time>
      </trkpt>
      <trkpt lat="48.62712" lon="4.64532">
        <ele>112.61</ele>
        <time>2021-08-10T09:44:41Z</time>
      </trkpt>
      <trkpt lat="48.62709" lon="4.64539">
        <ele>112.13</ele>
        <time>2021-08-10T09:44:42Z</time>
      </trkpt>
      <trkpt lat="48.62706" lon="4.64547">
        <ele>112.13</ele>
        <time>2021-08-10T09:44:43Z</time>
      </trkpt>
      <trkpt lat="48.62704" lon="4.64555">
        <ele>112.13</ele>
        <time>2021-08-10T09:44:44Z</time>
      </trkpt>
      <trkpt lat="48.62703" lon="4.64564">
        <ele>112.13</ele>
        <time>2021-08-10T09:44:45Z</time>
      </trkpt>
      <trkpt lat="48.62703" lon="4.64572">
        <ele>112.13</ele>
        <time>2021-08-10T09:44:46Z</time>
      </trkpt>
      <trkpt lat="48.6271" lon="4.64645">
        <ele>112.13</ele>
        <time>2021-08-10T09:44:54Z</time>
      </trkpt>
      <trkpt lat="48.6271" lon="4.64664">
        <ele>112.61</ele>
        <time>2021-08-10T09:44:56Z</time>
      </trkpt>
      <trkpt lat="48.6271" lon="4.64673">
        <ele>112.61</ele>
        <time>2021-08-10T09:44:57Z</time>
      </trkpt>
      <trkpt lat="48.62709" lon="4.64682">
        <ele>112.13</ele>
        <time>2021-08-10T09:44:58Z</time>
      </trkpt>
      <trkpt lat="48.62707" lon="4.64691">
        <ele>112.13</ele>
        <time>2021-08-10T09:44:59Z</time>
      </trkpt>
      <trkpt lat="48.62705" lon="4.64699">
        <ele>112.13</ele>
        <time>2021-08-10T09:45:00Z</time>
      </trkpt>
      <trkpt lat="48.62703" lon="4.64707">
        <ele>112.13</ele>
        <time>2021-08-10T09:45:01Z</time>
      </trkpt>
      <trkpt lat="48.62678" lon="4.64765">
        <ele>112.13</ele>
        <time>2021-08-10T09:45:09Z</time>
      </trkpt>
      <trkpt lat="48.62652" lon="4.648">
        <ele>112.13</ele>
        <time>2021-08-10T09:45:16Z</time>
      </trkpt>
      <trkpt lat="48.62619" lon="4.64821">
        <ele>114.05</ele>
        <time>2021-08-10T09:45:25Z</time>
      </trkpt>
      <trkpt lat="48.62605" lon="4.6483">
        <ele>114.53</ele>
        <time>2021-08-10T09:45:31Z</time>
      </trkpt>
      <trkpt lat="48.62603" lon="4.64833">
        <ele>115.01</ele>
        <time>2021-08-10T09:45:32Z</time>
      </trkpt>
      <trkpt lat="48.62603" lon="4.64837">
        <ele>115.5</ele>
        <time>2021-08-10T09:45:33Z</time>
      </trkpt>
      <trkpt lat="48.62603" lon="4.6484">
        <ele>115.5</ele>
        <time>2021-08-10T09:45:34Z</time>
      </trkpt>
      <trkpt lat="48.62604" lon="4.64844">
        <ele>115.01</ele>
        <time>2021-08-10T09:45:35Z</time>
      </trkpt>
      <trkpt lat="48.62605" lon="4.64848">
        <ele>115.5</ele>
        <time>2021-08-10T09:45:36Z</time>
      </trkpt>
      <trkpt lat="48.62618" lon="4.6488">
        <ele>115.98</ele>
        <time>2021-08-10T09:45:43Z</time>
      </trkpt>
      <trkpt lat="48.62632" lon="4.64922">
        <ele>115.98</ele>
        <time>2021-08-10T09:45:51Z</time>
      </trkpt>
      <trkpt lat="48.62652" lon="4.64977">
        <ele>116.94</ele>
        <time>2021-08-10T09:46:00Z</time>
      </trkpt>
      <trkpt lat="48.62672" lon="4.65031">
        <ele>115.5</ele>
        <time>2021-08-10T09:46:08Z</time>
      </trkpt>
      <trkpt lat="48.62687" lon="4.65071">
        <ele>115.01</ele>
        <time>2021-08-10T09:46:14Z</time>
      </trkpt>
      <trkpt lat="48.62701" lon="4.65143">
        <ele>115.01</ele>
        <time>2021-08-10T09:46:24Z</time>
      </trkpt>
      <trkpt lat="48.62697" lon="4.65188">
        <ele>116.46</ele>
        <time>2021-08-10T09:46:30Z</time>
      </trkpt>
      <trkpt lat="48.62686" lon="4.65225">
        <ele>116.46</ele>
        <time>2021-08-10T09:46:35Z</time>
      </trkpt>
      <trkpt lat="48.62652" lon="4.65323">
        <ele>116.46</ele>
        <time>2021-08-10T09:46:48Z</time>
      </trkpt>
      <trkpt lat="48.62641" lon="4.65353">
        <ele>115.01</ele>
        <time>2021-08-10T09:46:52Z</time>
      </trkpt>
      <trkpt lat="48.62629" lon="4.6538">
        <ele>115.01</ele>
        <time>2021-08-10T09:46:56Z</time>
      </trkpt>
      <trkpt lat="48.62601" lon="4.65431">
        <ele>115.01</ele>
        <time>2021-08-10T09:47:04Z</time>
      </trkpt>
      <trkpt lat="48.62565" lon="4.65485">
        <ele>112.13</ele>
        <time>2021-08-10T09:47:12Z</time>
      </trkpt>
      <trkpt lat="48.6256" lon="4.65493">
        <ele>112.13</ele>
        <time>2021-08-10T09:47:13Z</time>
      </trkpt>
      <trkpt lat="48.62524" lon="4.65549">
        <ele>112.13</ele>
        <time>2021-08-10T09:47:21Z</time>
      </trkpt>
      <trkpt lat="48.62509" lon="4.65573">
        <ele>112.13</ele>
        <time>2021-08-10T09:47:25Z</time>
      </trkpt>
      <trkpt lat="48.62495" lon="4.65596">
        <ele>113.57</ele>
        <time>2021-08-10T09:47:29Z</time>
      </trkpt>
      <trkpt lat="48.62465" lon="4.65639">
        <ele>114.05</ele>
        <time>2021-08-10T09:47:38Z</time>
      </trkpt>
      <trkpt lat="48.62434" lon="4.65681">
        <ele>114.05</ele>
        <time>2021-08-10T09:47:47Z</time>
      </trkpt>
      <trkpt lat="48.62397" lon="4.65731">
        <ele>114.53</ele>
        <time>2021-08-10T09:47:57Z</time>
      </trkpt>
      <trkpt lat="48.62381" lon="4.65753">
        <ele>114.53</ele>
        <time>2021-08-10T09:48:01Z</time>
      </trkpt>
      <trkpt lat="48.62374" lon="4.65765">
        <ele>114.53</ele>
        <time>2021-08-10T09:48:03Z</time>
      </trkpt>
      <trkpt lat="48.6234" lon="4.6581">
        <ele>113.57</ele>
        <time>2021-08-10T09:48:11Z</time>
      </trkpt>
      <trkpt lat="48.62328" lon="4.65825">
        <ele>113.57</ele>
        <time>2021-08-10T09:48:14Z</time>
      </trkpt>
      <trkpt lat="48.62291" lon="4.65877">
        <ele>114.53</ele>
        <time>2021-08-10T09:48:24Z</time>
      </trkpt>
      <trkpt lat="48.62276" lon="4.65897">
        <ele>115.5</ele>
        <time>2021-08-10T09:48:28Z</time>
      </trkpt>
      <trkpt lat="48.62272" lon="4.65902">
        <ele>115.5</ele>
        <time>2021-08-10T09:48:29Z</time>
      </trkpt>
      <trkpt lat="48.62268" lon="4.65907">
        <ele>115.98</ele>
        <time>2021-08-10T09:48:30Z</time>
      </trkpt>
      <trkpt lat="48.62265" lon="4.65911">
        <ele>115.98</ele>
        <time>2021-08-10T09:48:31Z</time>
      </trkpt>
      <trkpt lat="48.62261" lon="4.65916">
        <ele>115.98</ele>
        <time>2021-08-10T09:48:32Z</time>
      </trkpt>
      <trkpt lat="48.62244" lon="4.65939">
        <ele>115.98</ele>
        <time>2021-08-10T09:48:37Z</time>
      </trkpt>
      <trkpt lat="48.62216" lon="4.6598">
        <ele>116.46</ele>
        <time>2021-08-10T09:48:46Z</time>
      </trkpt>
      <trkpt lat="48.62207" lon="4.65994">
        <ele>116.94</ele>
        <time>2021-08-10T09:48:49Z</time>
      </trkpt>
      <trkpt lat="48.62177" lon="4.66036">
        <ele>117.9</ele>
        <time>2021-08-10T09:48:58Z</time>
      </trkpt>
      <trkpt lat="48.62152" lon="4.66078">
        <ele>117.9</ele>
        <time>2021-08-10T09:49:06Z</time>
      </trkpt>
      <trkpt lat="48.62123" lon="4.66131">
        <ele>116.46</ele>
        <time>2021-08-10T09:49:15Z</time>
      </trkpt>
      <trkpt lat="48.62119" lon="4.66138">
        <ele>116.46</ele>
        <time>2021-08-10T09:49:16Z</time>
      </trkpt>
      <trkpt lat="48.62086" lon="4.66199">
        <ele>115.01</ele>
        <time>2021-08-10T09:49:25Z</time>
      </trkpt>
      <trkpt lat="48.62052" lon="4.66264">
        <ele>115.01</ele>
        <time>2021-08-10T09:49:34Z</time>
      </trkpt>
      <trkpt lat="48.62021" lon="4.66324">
        <ele>115.01</ele>
        <time>2021-08-10T09:49:43Z</time>
      </trkpt>
      <trkpt lat="48.62018" lon="4.66329">
        <ele>115.01</ele>
        <time>2021-08-10T09:49:44Z</time>
      </trkpt>
      <trkpt lat="48.62014" lon="4.66335">
        <ele>115.5</ele>
        <time>2021-08-10T09:49:45Z</time>
      </trkpt>
      <trkpt lat="48.61989" lon="4.66384">
        <ele>115.01</ele>
        <time>2021-08-10T09:49:53Z</time>
      </trkpt>
      <trkpt lat="48.61957" lon="4.66442">
        <ele>115.01</ele>
        <time>2021-08-10T09:50:02Z</time>
      </trkpt>
      <trkpt lat="48.61926" lon="4.66501">
        <ele>114.05</ele>
        <time>2021-08-10T09:50:10Z</time>
      </trkpt>
      <trkpt lat="48.61893" lon="4.66561">
        <ele>113.57</ele>
        <time>2021-08-10T09:50:18Z</time>
      </trkpt>
      <trkpt lat="48.61879" lon="4.66586">
        <ele>115.01</ele>
        <time>2021-08-10T09:50:22Z</time>
      </trkpt>
      <trkpt lat="48.61876" lon="4.66593">
        <ele>115.01</ele>
        <time>2021-08-10T09:50:23Z</time>
      </trkpt>
      <trkpt lat="48.61859" lon="4.66621">
        <ele>115.98</ele>
        <time>2021-08-10T09:50:29Z</time>
      </trkpt>
      <trkpt lat="48.61856" lon="4.66626">
        <ele>116.46</ele>
        <time>2021-08-10T09:50:30Z</time>
      </trkpt>
      <trkpt lat="48.61844" lon="4.66645">
        <ele>117.42</ele>
        <time>2021-08-10T09:50:35Z</time>
      </trkpt>
      <trkpt lat="48.61842" lon="4.66648">
        <ele>117.42</ele>
        <time>2021-08-10T09:50:36Z</time>
      </trkpt>
      <trkpt lat="48.61839" lon="4.66652">
        <ele>117.42</ele>
        <time>2021-08-10T09:50:37Z</time>
      </trkpt>
      <trkpt lat="48.61823" lon="4.66682">
        <ele>117.9</ele>
        <time>2021-08-10T09:50:43Z</time>
      </trkpt>
      <trkpt lat="48.61787" lon="4.66729">
        <ele>117.42</ele>
        <time>2021-08-10T09:50:53Z</time>
      </trkpt>
      <trkpt lat="48.61743" lon="4.66777">
        <ele>117.42</ele>
        <time>2021-08-10T09:51:04Z</time>
      </trkpt>
      <trkpt lat="48.61708" lon="4.6681">
        <ele>118.38</ele>
        <time>2021-08-10T09:51:12Z</time>
      </trkpt>
      <trkpt lat="48.61672" lon="4.66847">
        <ele>118.86</ele>
        <time>2021-08-10T09:51:21Z</time>
      </trkpt>
      <trkpt lat="48.61631" lon="4.66891">
        <ele>119.34</ele>
        <time>2021-08-10T09:51:32Z</time>
      </trkpt>
      <trkpt lat="48.61592" lon="4.66934">
        <ele>120.78</ele>
        <time>2021-08-10T09:51:43Z</time>
      </trkpt>
      <trkpt lat="48.61554" lon="4.66971">
        <ele>121.74</ele>
        <time>2021-08-10T09:51:53Z</time>
      </trkpt>
      <trkpt lat="48.61523" lon="4.66989">
        <ele>122.71</ele>
        <time>2021-08-10T09:52:01Z</time>
      </trkpt>
      <trkpt lat="48.61519" lon="4.6699">
        <ele>122.71</ele>
        <time>2021-08-10T09:52:02Z</time>
      </trkpt>
      <trkpt lat="48.61515" lon="4.6699">
        <ele>122.71</ele>
        <time>2021-08-10T09:52:03Z</time>
      </trkpt>
      <trkpt lat="48.6147" lon="4.66992">
        <ele>123.67</ele>
        <time>2021-08-10T09:52:14Z</time>
      </trkpt>
      <trkpt lat="48.61431" lon="4.66988">
        <ele>124.63</ele>
        <time>2021-08-10T09:52:24Z</time>
      </trkpt>
      <trkpt lat="48.61396" lon="4.66984">
        <ele>125.59</ele>
        <time>2021-08-10T09:52:33Z</time>
      </trkpt>
      <trkpt lat="48.6136" lon="4.66978">
        <ele>126.07</ele>
        <time>2021-08-10T09:52:42Z</time>
      </trkpt>
      <trkpt lat="48.61347" lon="4.66975">
        <ele>126.07</ele>
        <time>2021-08-10T09:52:45Z</time>
      </trkpt>
      <trkpt lat="48.61339" lon="4.66974">
        <ele>126.07</ele>
        <time>2021-08-10T09:52:47Z</time>
      </trkpt>
      <trkpt lat="48.61304" lon="4.66968">
        <ele>126.55</ele>
        <time>2021-08-10T09:52:55Z</time>
      </trkpt>
      <trkpt lat="48.6129" lon="4.66964">
        <ele>126.55</ele>
        <time>2021-08-10T09:52:58Z</time>
      </trkpt>
      <trkpt lat="48.61257" lon="4.66955">
        <ele>126.55</ele>
        <time>2021-08-10T09:53:05Z</time>
      </trkpt>
      <trkpt lat="48.61223" lon="4.66945">
        <ele>126.55</ele>
        <time>2021-08-10T09:53:13Z</time>
      </trkpt>
      <trkpt lat="48.61187" lon="4.66933">
        <ele>126.55</ele>
        <time>2021-08-10T09:53:20Z</time>
      </trkpt>
      <trkpt lat="48.61136" lon="4.66914">
        <ele>126.55</ele>
        <time>2021-08-10T09:53:30Z</time>
      </trkpt>
      <trkpt lat="48.61094" lon="4.66886">
        <ele>126.55</ele>
        <time>2021-08-10T09:53:39Z</time>
      </trkpt>
      <trkpt lat="48.6106" lon="4.66857">
        <ele>126.55</ele>
        <time>2021-08-10T09:53:47Z</time>
      </trkpt>
      <trkpt lat="48.61023" lon="4.6682">
        <ele>126.55</ele>
        <time>2021-08-10T09:53:56Z</time>
      </trkpt>
      <trkpt lat="48.60982" lon="4.66782">
        <ele>126.55</ele>
        <time>2021-08-10T09:54:05Z</time>
      </trkpt>
      <trkpt lat="48.60957" lon="4.66759">
        <ele>125.59</ele>
        <time>2021-08-10T09:54:10Z</time>
      </trkpt>
      <trkpt lat="48.60916" lon="4.66718">
        <ele>124.63</ele>
        <time>2021-08-10T09:54:18Z</time>
      </trkpt>
      <trkpt lat="48.60879" lon="4.66683">
        <ele>124.15</ele>
        <time>2021-08-10T09:54:25Z</time>
      </trkpt>
      <trkpt lat="48.60874" lon="4.66678">
        <ele>124.15</ele>
        <time>2021-08-10T09:54:26Z</time>
      </trkpt>
      <trkpt lat="48.60834" lon="4.66639">
        <ele>124.63</ele>
        <time>2021-08-10T09:54:34Z</time>
      </trkpt>
      <trkpt lat="48.60829" lon="4.66634">
        <ele>124.63</ele>
        <time>2021-08-10T09:54:35Z</time>
      </trkpt>
      <trkpt lat="48.60783" lon="4.66589">
        <ele>124.63</ele>
        <time>2021-08-10T09:54:45Z</time>
      </trkpt>
      <trkpt lat="48.60734" lon="4.66544">
        <ele>126.07</ele>
        <time>2021-08-10T09:54:56Z</time>
      </trkpt>
      <trkpt lat="48.6072" lon="4.66532">
        <ele>126.07</ele>
        <time>2021-08-10T09:54:59Z</time>
      </trkpt>
      <trkpt lat="48.60702" lon="4.66515">
        <ele>126.55</ele>
        <time>2021-08-10T09:55:03Z</time>
      </trkpt>
      <trkpt lat="48.60698" lon="4.66511">
        <ele>126.55</ele>
        <time>2021-08-10T09:55:04Z</time>
      </trkpt>
      <trkpt lat="48.60661" lon="4.66476">
        <ele>125.59</ele>
        <time>2021-08-10T09:55:12Z</time>
      </trkpt>
      <trkpt lat="48.6064" lon="4.66456">
        <ele>125.59</ele>
        <time>2021-08-10T09:55:17Z</time>
      </trkpt>
      <trkpt lat="48.60632" lon="4.6645">
        <ele>125.59</ele>
        <time>2021-08-10T09:55:19Z</time>
      </trkpt>
      <trkpt lat="48.60628" lon="4.66447">
        <ele>124.63</ele>
        <time>2021-08-10T09:55:20Z</time>
      </trkpt>
      <trkpt lat="48.60624" lon="4.66443">
        <ele>124.63</ele>
        <time>2021-08-10T09:55:21Z</time>
      </trkpt>
      <trkpt lat="48.6062" lon="4.66439">
        <ele>124.63</ele>
        <time>2021-08-10T09:55:22Z</time>
      </trkpt>
      <trkpt lat="48.60616" lon="4.66436">
        <ele>124.63</ele>
        <time>2021-08-10T09:55:23Z</time>
      </trkpt>
      <trkpt lat="48.60611" lon="4.66433">
        <ele>124.63</ele>
        <time>2021-08-10T09:55:24Z</time>
      </trkpt>
      <trkpt lat="48.60585" lon="4.66419">
        <ele>124.63</ele>
        <time>2021-08-10T09:55:30Z</time>
      </trkpt>
      <trkpt lat="48.6058" lon="4.66418">
        <ele>124.63</ele>
        <time>2021-08-10T09:55:31Z</time>
      </trkpt>
      <trkpt lat="48.60575" lon="4.66418">
        <ele>124.63</ele>
        <time>2021-08-10T09:55:32Z</time>
      </trkpt>
      <trkpt lat="48.60568" lon="4.66419">
        <ele>124.63</ele>
        <time>2021-08-10T09:55:33Z</time>
      </trkpt>
      <trkpt lat="48.60564" lon="4.6642">
        <ele>124.63</ele>
        <time>2021-08-10T09:55:34Z</time>
      </trkpt>
      <trkpt lat="48.60558" lon="4.66423">
        <ele>124.63</ele>
        <time>2021-08-10T09:55:35Z</time>
      </trkpt>
      <trkpt lat="48.60554" lon="4.66427">
        <ele>124.63</ele>
        <time>2021-08-10T09:55:36Z</time>
      </trkpt>
      <trkpt lat="48.60545" lon="4.66436">
        <ele>124.63</ele>
        <time>2021-08-10T09:55:38Z</time>
      </trkpt>
      <trkpt lat="48.60542" lon="4.66441">
        <ele>124.63</ele>
        <time>2021-08-10T09:55:39Z</time>
      </trkpt>
      <trkpt lat="48.60504" lon="4.66498">
        <ele>124.63</ele>
        <time>2021-08-10T09:55:49Z</time>
      </trkpt>
      <trkpt lat="48.60472" lon="4.66558">
        <ele>124.15</ele>
        <time>2021-08-10T09:55:58Z</time>
      </trkpt>
      <trkpt lat="48.60468" lon="4.66564">
        <ele>124.15</ele>
        <time>2021-08-10T09:55:59Z</time>
      </trkpt>
      <trkpt lat="48.6044" lon="4.66617">
        <ele>122.22</ele>
        <time>2021-08-10T09:56:06Z</time>
      </trkpt>
      <trkpt lat="48.60405" lon="4.6668">
        <ele>120.78</ele>
        <time>2021-08-10T09:56:14Z</time>
      </trkpt>
      <trkpt lat="48.60364" lon="4.66743">
        <ele>118.86</ele>
        <time>2021-08-10T09:56:23Z</time>
      </trkpt>
      <trkpt lat="48.60349" lon="4.66759">
        <ele>118.38</ele>
        <time>2021-08-10T09:56:26Z</time>
      </trkpt>
      <trkpt lat="48.60332" lon="4.66771">
        <ele>118.38</ele>
        <time>2021-08-10T09:56:29Z</time>
      </trkpt>
      <trkpt lat="48.60296" lon="4.66782">
        <ele>118.38</ele>
        <time>2021-08-10T09:56:35Z</time>
      </trkpt>
      <trkpt lat="48.60289" lon="4.66784">
        <ele>118.38</ele>
        <time>2021-08-10T09:56:36Z</time>
      </trkpt>
      <trkpt lat="48.60234" lon="4.66798">
        <ele>117.9</ele>
        <time>2021-08-10T09:56:45Z</time>
      </trkpt>
      <trkpt lat="48.6021" lon="4.66806">
        <ele>117.9</ele>
        <time>2021-08-10T09:56:49Z</time>
      </trkpt>
      <trkpt lat="48.60188" lon="4.66813">
        <ele>117.9</ele>
        <time>2021-08-10T09:56:53Z</time>
      </trkpt>
      <trkpt lat="48.60182" lon="4.66814">
        <ele>117.9</ele>
        <time>2021-08-10T09:56:54Z</time>
      </trkpt>
      <trkpt lat="48.60133" lon="4.66829">
        <ele>117.42</ele>
        <time>2021-08-10T09:57:03Z</time>
      </trkpt>
      <trkpt lat="48.60092" lon="4.6684">
        <ele>117.42</ele>
        <time>2021-08-10T09:57:11Z</time>
      </trkpt>
      <trkpt lat="48.60082" lon="4.66843">
        <ele>117.42</ele>
        <time>2021-08-10T09:57:13Z</time>
      </trkpt>
      <trkpt lat="48.60077" lon="4.66844">
        <ele>117.42</ele>
        <time>2021-08-10T09:57:14Z</time>
      </trkpt>
      <trkpt lat="48.60073" lon="4.66846">
        <ele>117.42</ele>
        <time>2021-08-10T09:57:15Z</time>
      </trkpt>
      <trkpt lat="48.60044" lon="4.66855">
        <ele>117.42</ele>
        <time>2021-08-10T09:57:21Z</time>
      </trkpt>
      <trkpt lat="48.60012" lon="4.6687">
        <ele>118.38</ele>
        <time>2021-08-10T09:57:29Z</time>
      </trkpt>
      <trkpt lat="48.59986" lon="4.6689">
        <ele>119.34</ele>
        <time>2021-08-10T09:57:36Z</time>
      </trkpt>
      <trkpt lat="48.59954" lon="4.66914">
        <ele>119.34</ele>
        <time>2021-08-10T09:57:44Z</time>
      </trkpt>
      <trkpt lat="48.59932" lon="4.66931">
        <ele>119.82</ele>
        <time>2021-08-10T09:57:50Z</time>
      </trkpt>
      <trkpt lat="48.59906" lon="4.6695">
        <ele>120.3</ele>
        <time>2021-08-10T09:57:57Z</time>
      </trkpt>
      <trkpt lat="48.59875" lon="4.66975">
        <ele>121.74</ele>
        <time>2021-08-10T09:58:05Z</time>
      </trkpt>
      <trkpt lat="48.59847" lon="4.66998">
        <ele>122.22</ele>
        <time>2021-08-10T09:58:12Z</time>
      </trkpt>
      <trkpt lat="48.59821" lon="4.6702">
        <ele>123.19</ele>
        <time>2021-08-10T09:58:19Z</time>
      </trkpt>
      <trkpt lat="48.59792" lon="4.67044">
        <ele>124.15</ele>
        <time>2021-08-10T09:58:27Z</time>
      </trkpt>
      <trkpt lat="48.59769" lon="4.67055">
        <ele>124.63</ele>
        <time>2021-08-10T09:58:33Z</time>
      </trkpt>
      <trkpt lat="48.59741" lon="4.67064">
        <ele>124.63</ele>
        <time>2021-08-10T09:58:39Z</time>
      </trkpt>
      <trkpt lat="48.59736" lon="4.67065">
        <ele>124.63</ele>
        <time>2021-08-10T09:58:40Z</time>
      </trkpt>
      <trkpt lat="48.59716" lon="4.67068">
        <ele>124.63</ele>
        <time>2021-08-10T09:58:44Z</time>
      </trkpt>
      <trkpt lat="48.59711" lon="4.67069">
        <ele>124.63</ele>
        <time>2021-08-10T09:58:45Z</time>
      </trkpt>
      <trkpt lat="48.59666" lon="4.67075">
        <ele>124.63</ele>
        <time>2021-08-10T09:58:54Z</time>
      </trkpt>
      <trkpt lat="48.59625" lon="4.67077">
        <ele>123.67</ele>
        <time>2021-08-10T09:59:02Z</time>
      </trkpt>
      <trkpt lat="48.59587" lon="4.67078">
        <ele>123.67</ele>
        <time>2021-08-10T09:59:10Z</time>
      </trkpt>
      <trkpt lat="48.59554" lon="4.67077">
        <ele>123.67</ele>
        <time>2021-08-10T09:59:17Z</time>
      </trkpt>
      <trkpt lat="48.59539" lon="4.67076">
        <ele>125.11</ele>
        <time>2021-08-10T09:59:21Z</time>
      </trkpt>
      <trkpt lat="48.59511" lon="4.67073">
        <ele>125.11</ele>
        <time>2021-08-10T09:59:28Z</time>
      </trkpt>
      <trkpt lat="48.59483" lon="4.67071">
        <ele>125.11</ele>
        <time>2021-08-10T09:59:35Z</time>
      </trkpt>
      <trkpt lat="48.59458" lon="4.67062">
        <ele>123.67</ele>
        <time>2021-08-10T09:59:41Z</time>
      </trkpt>
      <trkpt lat="48.59445" lon="4.67058">
        <ele>123.67</ele>
        <time>2021-08-10T09:59:44Z</time>
      </trkpt>
      <trkpt lat="48.59419" lon="4.67054">
        <ele>123.67</ele>
        <time>2021-08-10T09:59:50Z</time>
      </trkpt>
      <trkpt lat="48.59415" lon="4.67053">
        <ele>123.67</ele>
        <time>2021-08-10T09:59:51Z</time>
      </trkpt>
      <trkpt lat="48.59393" lon="4.67044">
        <ele>123.19</ele>
        <time>2021-08-10T09:59:56Z</time>
      </trkpt>
      <trkpt lat="48.59389" lon="4.67043">
        <ele>123.19</ele>
        <time>2021-08-10T09:59:57Z</time>
      </trkpt>
      <trkpt lat="48.59385" lon="4.67041">
        <ele>123.19</ele>
        <time>2021-08-10T09:59:58Z</time>
      </trkpt>
      <trkpt lat="48.59381" lon="4.6704">
        <ele>123.19</ele>
        <time>2021-08-10T09:59:59Z</time>
      </trkpt>
      <trkpt lat="48.59377" lon="4.67039">
        <ele>123.19</ele>
        <time>2021-08-10T10:00:00Z</time>
      </trkpt>
      <trkpt lat="48.59373" lon="4.67037">
        <ele>123.19</ele>
        <time>2021-08-10T10:00:01Z</time>
      </trkpt>
      <trkpt lat="48.5937" lon="4.67035">
        <ele>123.19</ele>
        <time>2021-08-10T10:00:02Z</time>
      </trkpt>
      <trkpt lat="48.59346" lon="4.6703">
        <ele>123.19</ele>
        <time>2021-08-10T10:00:07Z</time>
      </trkpt>
      <trkpt lat="48.59311" lon="4.67022">
        <ele>123.19</ele>
        <time>2021-08-10T10:00:14Z</time>
      </trkpt>
      <trkpt lat="48.59293" lon="4.67019">
        <ele>123.19</ele>
        <time>2021-08-10T10:00:18Z</time>
      </trkpt>
      <trkpt lat="48.59269" lon="4.67013">
        <ele>124.15</ele>
        <time>2021-08-10T10:00:24Z</time>
      </trkpt>
      <trkpt lat="48.59245" lon="4.67008">
        <ele>125.11</ele>
        <time>2021-08-10T10:00:31Z</time>
      </trkpt>
      <trkpt lat="48.59232" lon="4.67008">
        <ele>125.59</ele>
        <time>2021-08-10T10:00:35Z</time>
      </trkpt>
      <trkpt lat="48.59229" lon="4.67009">
        <ele>125.59</ele>
        <time>2021-08-10T10:00:36Z</time>
      </trkpt>
      <trkpt lat="48.59225" lon="4.67009">
        <ele>126.07</ele>
        <time>2021-08-10T10:00:37Z</time>
      </trkpt>
      <trkpt lat="48.59222" lon="4.67009">
        <ele>126.07</ele>
        <time>2021-08-10T10:00:38Z</time>
      </trkpt>
      <trkpt lat="48.59218" lon="4.67008">
        <ele>126.07</ele>
        <time>2021-08-10T10:00:39Z</time>
      </trkpt>
      <trkpt lat="48.59192" lon="4.67004">
        <ele>126.55</ele>
        <time>2021-08-10T10:00:46Z</time>
      </trkpt>
      <trkpt lat="48.59168" lon="4.67002">
        <ele>127.03</ele>
        <time>2021-08-10T10:00:52Z</time>
      </trkpt>
      <trkpt lat="48.59138" lon="4.66999">
        <ele>127.03</ele>
        <time>2021-08-10T10:00:59Z</time>
      </trkpt>
      <trkpt lat="48.59116" lon="4.66999">
        <ele>127.03</ele>
        <time>2021-08-10T10:01:04Z</time>
      </trkpt>
      <trkpt lat="48.59107" lon="4.66997">
        <ele>127.03</ele>
        <time>2021-08-10T10:01:06Z</time>
      </trkpt>
      <trkpt lat="48.59102" lon="4.66996">
        <ele>127.03</ele>
        <time>2021-08-10T10:01:07Z</time>
      </trkpt>
      <trkpt lat="48.59063" lon="4.66991">
        <ele>127.03</ele>
        <time>2021-08-10T10:01:15Z</time>
      </trkpt>
      <trkpt lat="48.59024" lon="4.66996">
        <ele>127.03</ele>
        <time>2021-08-10T10:01:23Z</time>
      </trkpt>
      <trkpt lat="48.58989" lon="4.67026">
        <ele>127.03</ele>
        <time>2021-08-10T10:01:31Z</time>
      </trkpt>
      <trkpt lat="48.58939" lon="4.67084">
        <ele>127.03</ele>
        <time>2021-08-10T10:01:42Z</time>
      </trkpt>
      <trkpt lat="48.58931" lon="4.67094">
        <ele>126.07</ele>
        <time>2021-08-10T10:01:44Z</time>
      </trkpt>
      <trkpt lat="48.58914" lon="4.67114">
        <ele>126.07</ele>
        <time>2021-08-10T10:01:48Z</time>
      </trkpt>
      <trkpt lat="48.5888" lon="4.67155">
        <ele>126.07</ele>
        <time>2021-08-10T10:01:56Z</time>
      </trkpt>
      <trkpt lat="48.58848" lon="4.67193">
        <ele>126.07</ele>
        <time>2021-08-10T10:02:04Z</time>
      </trkpt>
      <trkpt lat="48.58815" lon="4.67233">
        <ele>126.07</ele>
        <time>2021-08-10T10:02:12Z</time>
      </trkpt>
      <trkpt lat="48.58775" lon="4.67281">
        <ele>125.59</ele>
        <time>2021-08-10T10:02:21Z</time>
      </trkpt>
      <trkpt lat="48.58733" lon="4.67331">
        <ele>123.19</ele>
        <time>2021-08-10T10:02:30Z</time>
      </trkpt>
      <trkpt lat="48.58686" lon="4.67389">
        <ele>120.78</ele>
        <time>2021-08-10T10:02:39Z</time>
      </trkpt>
      <trkpt lat="48.58653" lon="4.6743">
        <ele>120.78</ele>
        <time>2021-08-10T10:02:46Z</time>
      </trkpt>
      <trkpt lat="48.58633" lon="4.67448">
        <ele>120.78</ele>
        <time>2021-08-10T10:02:50Z</time>
      </trkpt>
      <trkpt lat="48.58629" lon="4.67451">
        <ele>120.78</ele>
        <time>2021-08-10T10:02:51Z</time>
      </trkpt>
      <trkpt lat="48.58623" lon="4.67452">
        <ele>120.78</ele>
        <time>2021-08-10T10:02:52Z</time>
      </trkpt>
      <trkpt lat="48.58619" lon="4.67452">
        <ele>122.22</ele>
        <time>2021-08-10T10:02:53Z</time>
      </trkpt>
      <trkpt lat="48.58614" lon="4.67451">
        <ele>122.22</ele>
        <time>2021-08-10T10:02:54Z</time>
      </trkpt>
      <trkpt lat="48.58611" lon="4.6745">
        <ele>122.71</ele>
        <time>2021-08-10T10:02:55Z</time>
      </trkpt>
      <trkpt lat="48.58608" lon="4.67449">
        <ele>122.71</ele>
        <time>2021-08-10T10:02:56Z</time>
      </trkpt>
      <trkpt lat="48.58606" lon="4.67447">
        <ele>123.67</ele>
        <time>2021-08-10T10:02:57Z</time>
      </trkpt>
      <trkpt lat="48.58604" lon="4.67446">
        <ele>123.67</ele>
        <time>2021-08-10T10:02:58Z</time>
      </trkpt>
      <trkpt lat="48.58603" lon="4.67445">
        <ele>124.15</ele>
        <time>2021-08-10T10:02:59Z</time>
      </trkpt>
      <trkpt lat="48.58602" lon="4.67444">
        <ele>124.15</ele>
        <time>2021-08-10T10:03:00Z</time>
      </trkpt>
      <trkpt lat="48.586" lon="4.67442">
        <ele>124.15</ele>
        <time>2021-08-10T10:03:01Z</time>
      </trkpt>
      <trkpt lat="48.5859" lon="4.67431">
        <ele>125.59</ele>
        <time>2021-08-10T10:03:08Z</time>
      </trkpt>
      <trkpt lat="48.58578" lon="4.6742">
        <ele>126.55</ele>
        <time>2021-08-10T10:03:16Z</time>
      </trkpt>
      <trkpt lat="48.58565" lon="4.67414">
        <ele>127.99</ele>
        <time>2021-08-10T10:03:23Z</time>
      </trkpt>
      <trkpt lat="48.58551" lon="4.6741">
        <ele>129.43</ele>
        <time>2021-08-10T10:03:31Z</time>
      </trkpt>
      <trkpt lat="48.5853" lon="4.67403">
        <ele>130.4</ele>
        <time>2021-08-10T10:03:41Z</time>
      </trkpt>
      <trkpt lat="48.58505" lon="4.67389">
        <ele>131.84</ele>
        <time>2021-08-10T10:03:53Z</time>
      </trkpt>
      <trkpt lat="48.58482" lon="4.67372">
        <ele>133.76</ele>
        <time>2021-08-10T10:04:03Z</time>
      </trkpt>
      <trkpt lat="48.58459" lon="4.67351">
        <ele>134.72</ele>
        <time>2021-08-10T10:04:13Z</time>
      </trkpt>
      <trkpt lat="48.58437" lon="4.6733">
        <ele>135.68</ele>
        <time>2021-08-10T10:04:22Z</time>
      </trkpt>
      <trkpt lat="48.58418" lon="4.67314">
        <ele>136.64</ele>
        <time>2021-08-10T10:04:29Z</time>
      </trkpt>
      <trkpt lat="48.58416" lon="4.6731">
        <ele>136.64</ele>
        <time>2021-08-10T10:04:30Z</time>
      </trkpt>
      <trkpt lat="48.58414" lon="4.67304">
        <ele>136.64</ele>
        <time>2021-08-10T10:04:31Z</time>
      </trkpt>
      <trkpt lat="48.58408" lon="4.67271">
        <ele>136.64</ele>
        <time>2021-08-10T10:04:37Z</time>
      </trkpt>
      <trkpt lat="48.58404" lon="4.67241">
        <ele>136.64</ele>
        <time>2021-08-10T10:04:42Z</time>
      </trkpt>
      <trkpt lat="48.58403" lon="4.67235">
        <ele>136.64</ele>
        <time>2021-08-10T10:04:43Z</time>
      </trkpt>
      <trkpt lat="48.58397" lon="4.67207">
        <ele>136.64</ele>
        <time>2021-08-10T10:04:48Z</time>
      </trkpt>
      <trkpt lat="48.58388" lon="4.67172">
        <ele>136.64</ele>
        <time>2021-08-10T10:04:54Z</time>
      </trkpt>
      <trkpt lat="48.58387" lon="4.67166">
        <ele>136.64</ele>
        <time>2021-08-10T10:04:55Z</time>
      </trkpt>
      <trkpt lat="48.58378" lon="4.67129">
        <ele>137.13</ele>
        <time>2021-08-10T10:05:02Z</time>
      </trkpt>
      <trkpt lat="48.58372" lon="4.67092">
        <ele>137.13</ele>
        <time>2021-08-10T10:05:09Z</time>
      </trkpt>
      <trkpt lat="48.58366" lon="4.67068">
        <ele>137.13</ele>
        <time>2021-08-10T10:05:15Z</time>
      </trkpt>
      <trkpt lat="48.58358" lon="4.67032">
        <ele>137.13</ele>
        <time>2021-08-10T10:05:23Z</time>
      </trkpt>
      <trkpt lat="48.58348" lon="4.67">
        <ele>137.13</ele>
        <time>2021-08-10T10:05:30Z</time>
      </trkpt>
      <trkpt lat="48.58343" lon="4.66974">
        <ele>137.61</ele>
        <time>2021-08-10T10:05:35Z</time>
      </trkpt>
      <trkpt lat="48.58335" lon="4.66935">
        <ele>138.09</ele>
        <time>2021-08-10T10:05:43Z</time>
      </trkpt>
      <trkpt lat="48.58326" lon="4.66893">
        <ele>138.57</ele>
        <time>2021-08-10T10:05:51Z</time>
      </trkpt>
      <trkpt lat="48.58318" lon="4.66849">
        <ele>138.57</ele>
        <time>2021-08-10T10:05:59Z</time>
      </trkpt>
      <trkpt lat="48.58307" lon="4.66799">
        <ele>139.05</ele>
        <time>2021-08-10T10:06:09Z</time>
      </trkpt>
      <trkpt lat="48.58299" lon="4.66768">
        <ele>139.05</ele>
        <time>2021-08-10T10:06:16Z</time>
      </trkpt>
      <trkpt lat="48.5828" lon="4.66719">
        <ele>139.53</ele>
        <time>2021-08-10T10:06:25Z</time>
      </trkpt>
      <trkpt lat="48.58261" lon="4.66677">
        <ele>140.01</ele>
        <time>2021-08-10T10:06:33Z</time>
      </trkpt>
      <trkpt lat="48.58237" lon="4.66628">
        <ele>140.49</ele>
        <time>2021-08-10T10:06:43Z</time>
      </trkpt>
      <trkpt lat="48.58213" lon="4.66574">
        <ele>140.97</ele>
        <time>2021-08-10T10:06:54Z</time>
      </trkpt>
      <trkpt lat="48.58199" lon="4.66539">
        <ele>141.45</ele>
        <time>2021-08-10T10:07:01Z</time>
      </trkpt>
      <trkpt lat="48.5818" lon="4.66502">
        <ele>141.93</ele>
        <time>2021-08-10T10:07:10Z</time>
      </trkpt>
      <trkpt lat="48.58171" lon="4.66485">
        <ele>141.93</ele>
        <time>2021-08-10T10:07:15Z</time>
      </trkpt>
      <trkpt lat="48.5817" lon="4.6648">
        <ele>141.93</ele>
        <time>2021-08-10T10:07:20Z</time>
      </trkpt>
      <trkpt lat="48.58169" lon="4.66483">
        <ele>141.93</ele>
        <time>2021-08-10T10:07:25Z</time>
      </trkpt>
      <trkpt lat="48.58167" lon="4.66481">
        <ele>141.93</ele>
        <time>2021-08-10T10:07:28Z</time>
      </trkpt>
      <trkpt lat="48.58165" lon="4.66473">
        <ele>141.93</ele>
        <time>2021-08-10T10:07:34Z</time>
      </trkpt>
      <trkpt lat="48.58162" lon="4.66471">
        <ele>141.93</ele>
        <time>2021-08-10T10:07:36Z</time>
      </trkpt>
      <trkpt lat="48.5816" lon="4.66469">
        <ele>141.93</ele>
        <time>2021-08-10T10:07:37Z</time>
      </trkpt>
      <trkpt lat="48.58158" lon="4.66467">
        <ele>141.93</ele>
        <time>2021-08-10T10:07:38Z</time>
      </trkpt>
      <trkpt lat="48.58156" lon="4.66464">
        <ele>141.93</ele>
        <time>2021-08-10T10:07:39Z</time>
      </trkpt>
      <trkpt lat="48.58154" lon="4.66461">
        <ele>141.93</ele>
        <time>2021-08-10T10:07:40Z</time>
      </trkpt>
      <trkpt lat="48.58152" lon="4.66459">
        <ele>141.93</ele>
        <time>2021-08-10T10:07:41Z</time>
      </trkpt>
      <trkpt lat="48.5815" lon="4.66456">
        <ele>141.93</ele>
        <time>2021-08-10T10:07:42Z</time>
      </trkpt>
      <trkpt lat="48.58148" lon="4.66453">
        <ele>141.93</ele>
        <time>2021-08-10T10:07:43Z</time>
      </trkpt>
      <trkpt lat="48.58145" lon="4.6645">
        <ele>141.93</ele>
        <time>2021-08-10T10:07:44Z</time>
      </trkpt>
      <trkpt lat="48.58126" lon="4.66427">
        <ele>142.41</ele>
        <time>2021-08-10T10:07:52Z</time>
      </trkpt>
      <trkpt lat="48.5811" lon="4.66413">
        <ele>142.41</ele>
        <time>2021-08-10T10:07:59Z</time>
      </trkpt>
      <trkpt lat="48.58096" lon="4.664">
        <ele>142.41</ele>
        <time>2021-08-10T10:08:05Z</time>
      </trkpt>
      <trkpt lat="48.58084" lon="4.6639">
        <ele>142.41</ele>
        <time>2021-08-10T10:08:11Z</time>
      </trkpt>
      <trkpt lat="48.58073" lon="4.66386">
        <ele>142.41</ele>
        <time>2021-08-10T10:08:15Z</time>
      </trkpt>
      <trkpt lat="48.5807" lon="4.66384">
        <ele>142.41</ele>
        <time>2021-08-10T10:08:17Z</time>
      </trkpt>
      <trkpt lat="48.58068" lon="4.66384">
        <ele>142.41</ele>
        <time>2021-08-10T10:08:18Z</time>
      </trkpt>
      <trkpt lat="48.58066" lon="4.66384">
        <ele>142.41</ele>
        <time>2021-08-10T10:08:19Z</time>
      </trkpt>
      <trkpt lat="48.58063" lon="4.66383">
        <ele>142.41</ele>
        <time>2021-08-10T10:08:20Z</time>
      </trkpt>
      <trkpt lat="48.58061" lon="4.66382">
        <ele>142.41</ele>
        <time>2021-08-10T10:08:21Z</time>
      </trkpt>
      <trkpt lat="48.58058" lon="4.66381">
        <ele>142.41</ele>
        <time>2021-08-10T10:08:22Z</time>
      </trkpt>
      <trkpt lat="48.58052" lon="4.66378">
        <ele>142.41</ele>
        <time>2021-08-10T10:08:27Z</time>
      </trkpt>
      <trkpt lat="48.58046" lon="4.66375">
        <ele>142.41</ele>
        <time>2021-08-10T10:08:33Z</time>
      </trkpt>
      <trkpt lat="48.5804" lon="4.66374">
        <ele>142.41</ele>
        <time>2021-08-10T10:08:40Z</time>
      </trkpt>
      <trkpt lat="48.58022" lon="4.66369">
        <ele>141.45</ele>
        <time>2021-08-10T10:08:47Z</time>
      </trkpt>
      <trkpt lat="48.58008" lon="4.66368">
        <ele>141.45</ele>
        <time>2021-08-10T10:08:52Z</time>
      </trkpt>
      <trkpt lat="48.57995" lon="4.66363">
        <ele>141.45</ele>
        <time>2021-08-10T10:08:57Z</time>
      </trkpt>
      <trkpt lat="48.57993" lon="4.66363">
        <ele>140.97</ele>
        <time>2021-08-10T10:08:58Z</time>
      </trkpt>
      <trkpt lat="48.57991" lon="4.66363">
        <ele>140.97</ele>
        <time>2021-08-10T10:08:59Z</time>
      </trkpt>
      <trkpt lat="48.57988" lon="4.66361">
        <ele>140.97</ele>
        <time>2021-08-10T10:09:00Z</time>
      </trkpt>
      <trkpt lat="48.57986" lon="4.6636">
        <ele>140.97</ele>
        <time>2021-08-10T10:09:01Z</time>
      </trkpt>
      <trkpt lat="48.57984" lon="4.66358">
        <ele>140.97</ele>
        <time>2021-08-10T10:09:02Z</time>
      </trkpt>
      <trkpt lat="48.57981" lon="4.66357">
        <ele>140.97</ele>
        <time>2021-08-10T10:09:03Z</time>
      </trkpt>
      <trkpt lat="48.57962" lon="4.66351">
        <ele>140.97</ele>
        <time>2021-08-10T10:09:10Z</time>
      </trkpt>
      <trkpt lat="48.5794" lon="4.66337">
        <ele>140.97</ele>
        <time>2021-08-10T10:09:17Z</time>
      </trkpt>
      <trkpt lat="48.57917" lon="4.66321">
        <ele>140.97</ele>
        <time>2021-08-10T10:09:24Z</time>
      </trkpt>
      <trkpt lat="48.57891" lon="4.66296">
        <ele>140.97</ele>
        <time>2021-08-10T10:09:32Z</time>
      </trkpt>
      <trkpt lat="48.57871" lon="4.66271">
        <ele>140.97</ele>
        <time>2021-08-10T10:09:38Z</time>
      </trkpt>
      <trkpt lat="48.57853" lon="4.66249">
        <ele>140.49</ele>
        <time>2021-08-10T10:09:44Z</time>
      </trkpt>
      <trkpt lat="48.57828" lon="4.66219">
        <ele>140.49</ele>
        <time>2021-08-10T10:09:53Z</time>
      </trkpt>
      <trkpt lat="48.57809" lon="4.6619">
        <ele>140.49</ele>
        <time>2021-08-10T10:10:00Z</time>
      </trkpt>
      <trkpt lat="48.57794" lon="4.66167">
        <ele>140.01</ele>
        <time>2021-08-10T10:10:06Z</time>
      </trkpt>
      <trkpt lat="48.57785" lon="4.66157">
        <ele>140.01</ele>
        <time>2021-08-10T10:10:09Z</time>
      </trkpt>
      <trkpt lat="48.57783" lon="4.66153">
        <ele>140.01</ele>
        <time>2021-08-10T10:10:10Z</time>
      </trkpt>
      <trkpt lat="48.57771" lon="4.66131">
        <ele>140.01</ele>
        <time>2021-08-10T10:10:16Z</time>
      </trkpt>
      <trkpt lat="48.57759" lon="4.66116">
        <ele>139.53</ele>
        <time>2021-08-10T10:10:23Z</time>
      </trkpt>
      <trkpt lat="48.57754" lon="4.66109">
        <ele>139.53</ele>
        <time>2021-08-10T10:10:27Z</time>
      </trkpt>
      <trkpt lat="48.57755" lon="4.66107">
        <ele>139.53</ele>
        <time>2021-08-10T10:10:28Z</time>
      </trkpt>
      <trkpt lat="48.57755" lon="4.66105">
        <ele>139.53</ele>
        <time>2021-08-10T10:10:29Z</time>
      </trkpt>
      <trkpt lat="48.57754" lon="4.66102">
        <ele>139.53</ele>
        <time>2021-08-10T10:10:30Z</time>
      </trkpt>
      <trkpt lat="48.57751" lon="4.66098">
        <ele>139.53</ele>
        <time>2021-08-10T10:10:31Z</time>
      </trkpt>
      <trkpt lat="48.57747" lon="4.66094">
        <ele>139.53</ele>
        <time>2021-08-10T10:10:32Z</time>
      </trkpt>
      <trkpt lat="48.57744" lon="4.6609">
        <ele>139.53</ele>
        <time>2021-08-10T10:10:33Z</time>
      </trkpt>
      <trkpt lat="48.57725" lon="4.66064">
        <ele>139.05</ele>
        <time>2021-08-10T10:10:40Z</time>
      </trkpt>
      <trkpt lat="48.57711" lon="4.66044">
        <ele>139.05</ele>
        <time>2021-08-10T10:10:46Z</time>
      </trkpt>
      <trkpt lat="48.57693" lon="4.66042">
        <ele>139.05</ele>
        <time>2021-08-10T10:10:51Z</time>
      </trkpt>
      <trkpt lat="48.57659" lon="4.66046">
        <ele>138.57</ele>
        <time>2021-08-10T10:10:59Z</time>
      </trkpt>
      <trkpt lat="48.57645" lon="4.66046">
        <ele>138.57</ele>
        <time>2021-08-10T10:11:02Z</time>
      </trkpt>
      <trkpt lat="48.5764" lon="4.66047">
        <ele>138.57</ele>
        <time>2021-08-10T10:11:03Z</time>
      </trkpt>
      <trkpt lat="48.57636" lon="4.66048">
        <ele>138.57</ele>
        <time>2021-08-10T10:11:04Z</time>
      </trkpt>
      <trkpt lat="48.57632" lon="4.66048">
        <ele>138.57</ele>
        <time>2021-08-10T10:11:05Z</time>
      </trkpt>
      <trkpt lat="48.57629" lon="4.66049">
        <ele>138.57</ele>
        <time>2021-08-10T10:11:06Z</time>
      </trkpt>
      <trkpt lat="48.57626" lon="4.66049">
        <ele>138.57</ele>
        <time>2021-08-10T10:11:07Z</time>
      </trkpt>
      <trkpt lat="48.57623" lon="4.66048">
        <ele>138.57</ele>
        <time>2021-08-10T10:11:08Z</time>
      </trkpt>
      <trkpt lat="48.57621" lon="4.66047">
        <ele>138.57</ele>
        <time>2021-08-10T10:11:09Z</time>
      </trkpt>
      <trkpt lat="48.57606" lon="4.66045">
        <ele>138.57</ele>
        <time>2021-08-10T10:11:14Z</time>
      </trkpt>
      <trkpt lat="48.57582" lon="4.66048">
        <ele>138.57</ele>
        <time>2021-08-10T10:11:21Z</time>
      </trkpt>
      <trkpt lat="48.57555" lon="4.66048">
        <ele>138.57</ele>
        <time>2021-08-10T10:11:29Z</time>
      </trkpt>
      <trkpt lat="48.57535" lon="4.66051">
        <ele>138.09</ele>
        <time>2021-08-10T10:11:35Z</time>
      </trkpt>
      <trkpt lat="48.5752" lon="4.66049">
        <ele>137.61</ele>
        <time>2021-08-10T10:11:41Z</time>
      </trkpt>
      <trkpt lat="48.57512" lon="4.66031">
        <ele>137.61</ele>
        <time>2021-08-10T10:11:47Z</time>
      </trkpt>
      <trkpt lat="48.57506" lon="4.66002">
        <ele>138.57</ele>
        <time>2021-08-10T10:11:55Z</time>
      </trkpt>
      <trkpt lat="48.57493" lon="4.6599">
        <ele>138.57</ele>
        <time>2021-08-10T10:12:00Z</time>
      </trkpt>
      <trkpt lat="48.57479" lon="4.65993">
        <ele>138.57</ele>
        <time>2021-08-10T10:12:04Z</time>
      </trkpt>
      <trkpt lat="48.57475" lon="4.65994">
        <ele>138.57</ele>
        <time>2021-08-10T10:12:05Z</time>
      </trkpt>
      <trkpt lat="48.57441" lon="4.65999">
        <ele>138.57</ele>
        <time>2021-08-10T10:12:14Z</time>
      </trkpt>
      <trkpt lat="48.5741" lon="4.6601">
        <ele>138.57</ele>
        <time>2021-08-10T10:12:23Z</time>
      </trkpt>
      <trkpt lat="48.57403" lon="4.66041">
        <ele>139.53</ele>
        <time>2021-08-10T10:12:29Z</time>
      </trkpt>
      <trkpt lat="48.574" lon="4.66103">
        <ele>139.53</ele>
        <time>2021-08-10T10:12:39Z</time>
      </trkpt>
      <trkpt lat="48.57399" lon="4.66111">
        <ele>139.53</ele>
        <time>2021-08-10T10:12:40Z</time>
      </trkpt>
      <trkpt lat="48.57389" lon="4.66179">
        <ele>138.57</ele>
        <time>2021-08-10T10:12:50Z</time>
      </trkpt>
      <trkpt lat="48.57373" lon="4.66263">
        <ele>137.61</ele>
        <time>2021-08-10T10:13:02Z</time>
      </trkpt>
      <trkpt lat="48.57359" lon="4.66336">
        <ele>138.09</ele>
        <time>2021-08-10T10:13:13Z</time>
      </trkpt>
      <trkpt lat="48.57343" lon="4.66413">
        <ele>139.05</ele>
        <time>2021-08-10T10:13:25Z</time>
      </trkpt>
      <trkpt lat="48.5733" lon="4.66476">
        <ele>139.53</ele>
        <time>2021-08-10T10:13:35Z</time>
      </trkpt>
      <trkpt lat="48.57311" lon="4.66553">
        <ele>139.53</ele>
        <time>2021-08-10T10:13:47Z</time>
      </trkpt>
      <trkpt lat="48.57291" lon="4.66635">
        <ele>138.09</ele>
        <time>2021-08-10T10:13:59Z</time>
      </trkpt>
      <trkpt lat="48.57273" lon="4.66704">
        <ele>138.09</ele>
        <time>2021-08-10T10:14:09Z</time>
      </trkpt>
      <trkpt lat="48.57259" lon="4.66758">
        <ele>138.09</ele>
        <time>2021-08-10T10:14:18Z</time>
      </trkpt>
      <trkpt lat="48.5725" lon="4.66795">
        <ele>138.09</ele>
        <time>2021-08-10T10:14:25Z</time>
      </trkpt>
      <trkpt lat="48.57233" lon="4.66863">
        <ele>138.09</ele>
        <time>2021-08-10T10:14:35Z</time>
      </trkpt>
      <trkpt lat="48.57221" lon="4.66909">
        <ele>137.61</ele>
        <time>2021-08-10T10:14:41Z</time>
      </trkpt>
      <trkpt lat="48.57196" lon="4.67007">
        <ele>137.13</ele>
        <time>2021-08-10T10:14:53Z</time>
      </trkpt>
      <trkpt lat="48.57174" lon="4.67095">
        <ele>136.64</ele>
        <time>2021-08-10T10:15:04Z</time>
      </trkpt>
      <trkpt lat="48.57154" lon="4.67166">
        <ele>136.64</ele>
        <time>2021-08-10T10:15:14Z</time>
      </trkpt>
      <trkpt lat="48.57151" lon="4.67172">
        <ele>136.64</ele>
        <time>2021-08-10T10:15:15Z</time>
      </trkpt>
      <trkpt lat="48.57148" lon="4.67177">
        <ele>138.09</ele>
        <time>2021-08-10T10:15:16Z</time>
      </trkpt>
      <trkpt lat="48.57145" lon="4.67183">
        <ele>137.61</ele>
        <time>2021-08-10T10:15:17Z</time>
      </trkpt>
      <trkpt lat="48.57138" lon="4.67192">
        <ele>138.09</ele>
        <time>2021-08-10T10:15:19Z</time>
      </trkpt>
      <trkpt lat="48.57135" lon="4.67195">
        <ele>138.09</ele>
        <time>2021-08-10T10:15:20Z</time>
      </trkpt>
      <trkpt lat="48.57112" lon="4.67222">
        <ele>138.09</ele>
        <time>2021-08-10T10:15:27Z</time>
      </trkpt>
      <trkpt lat="48.57087" lon="4.6725">
        <ele>138.09</ele>
        <time>2021-08-10T10:15:33Z</time>
      </trkpt>
      <trkpt lat="48.57068" lon="4.67269">
        <ele>138.09</ele>
        <time>2021-08-10T10:15:38Z</time>
      </trkpt>
      <trkpt lat="48.57055" lon="4.67277">
        <ele>138.09</ele>
        <time>2021-08-10T10:15:41Z</time>
      </trkpt>
      <trkpt lat="48.5705" lon="4.67277">
        <ele>138.09</ele>
        <time>2021-08-10T10:15:42Z</time>
      </trkpt>
      <trkpt lat="48.57044" lon="4.67276">
        <ele>138.09</ele>
        <time>2021-08-10T10:15:43Z</time>
      </trkpt>
      <trkpt lat="48.5704" lon="4.67274">
        <ele>138.09</ele>
        <time>2021-08-10T10:15:44Z</time>
      </trkpt>
      <trkpt lat="48.57035" lon="4.6727">
        <ele>136.64</ele>
        <time>2021-08-10T10:15:45Z</time>
      </trkpt>
      <trkpt lat="48.57031" lon="4.67267">
        <ele>136.64</ele>
        <time>2021-08-10T10:15:46Z</time>
      </trkpt>
      <trkpt lat="48.56994" lon="4.67232">
        <ele>134.24</ele>
        <time>2021-08-10T10:15:53Z</time>
      </trkpt>
      <trkpt lat="48.56956" lon="4.67195">
        <ele>131.84</ele>
        <time>2021-08-10T10:15:59Z</time>
      </trkpt>
      <trkpt lat="48.56898" lon="4.67137">
        <ele>130.88</ele>
        <time>2021-08-10T10:16:09Z</time>
      </trkpt>
      <trkpt lat="48.56881" lon="4.67121">
        <ele>130.88</ele>
        <time>2021-08-10T10:16:12Z</time>
      </trkpt>
      <trkpt lat="48.56825" lon="4.67068">
        <ele>130.88</ele>
        <time>2021-08-10T10:16:23Z</time>
      </trkpt>
      <trkpt lat="48.56793" lon="4.67037">
        <ele>132.32</ele>
        <time>2021-08-10T10:16:30Z</time>
      </trkpt>
      <trkpt lat="48.56753" lon="4.66998">
        <ele>133.28</ele>
        <time>2021-08-10T10:16:40Z</time>
      </trkpt>
      <trkpt lat="48.56724" lon="4.6697">
        <ele>133.76</ele>
        <time>2021-08-10T10:16:48Z</time>
      </trkpt>
      <trkpt lat="48.56682" lon="4.66929">
        <ele>134.24</ele>
        <time>2021-08-10T10:17:00Z</time>
      </trkpt>
      <trkpt lat="48.56648" lon="4.66894">
        <ele>135.68</ele>
        <time>2021-08-10T10:17:11Z</time>
      </trkpt>
      <trkpt lat="48.5662" lon="4.66861">
        <ele>136.16</ele>
        <time>2021-08-10T10:17:21Z</time>
      </trkpt>
      <trkpt lat="48.56593" lon="4.66817">
        <ele>137.13</ele>
        <time>2021-08-10T10:17:33Z</time>
      </trkpt>
      <trkpt lat="48.56568" lon="4.66775">
        <ele>138.09</ele>
        <time>2021-08-10T10:17:45Z</time>
      </trkpt>
      <trkpt lat="48.56545" lon="4.66735">
        <ele>139.05</ele>
        <time>2021-08-10T10:17:56Z</time>
      </trkpt>
      <trkpt lat="48.56521" lon="4.66695">
        <ele>140.01</ele>
        <time>2021-08-10T10:18:06Z</time>
      </trkpt>
      <trkpt lat="48.565" lon="4.66659">
        <ele>140.01</ele>
        <time>2021-08-10T10:18:14Z</time>
      </trkpt>
      <trkpt lat="48.56491" lon="4.66645">
        <ele>140.01</ele>
        <time>2021-08-10T10:18:17Z</time>
      </trkpt>
      <trkpt lat="48.56478" lon="4.66622">
        <ele>140.49</ele>
        <time>2021-08-10T10:18:22Z</time>
      </trkpt>
      <trkpt lat="48.56453" lon="4.66579">
        <ele>140.49</ele>
        <time>2021-08-10T10:18:31Z</time>
      </trkpt>
      <trkpt lat="48.5645" lon="4.66575">
        <ele>140.49</ele>
        <time>2021-08-10T10:18:32Z</time>
      </trkpt>
      <trkpt lat="48.56442" lon="4.66569">
        <ele>140.49</ele>
        <time>2021-08-10T10:18:34Z</time>
      </trkpt>
      <trkpt lat="48.56439" lon="4.66566">
        <ele>140.49</ele>
        <time>2021-08-10T10:18:35Z</time>
      </trkpt>
      <trkpt lat="48.56418" lon="4.66556">
        <ele>140.49</ele>
        <time>2021-08-10T10:18:40Z</time>
      </trkpt>
      <trkpt lat="48.56385" lon="4.66551">
        <ele>140.97</ele>
        <time>2021-08-10T10:18:48Z</time>
      </trkpt>
      <trkpt lat="48.56347" lon="4.66543">
        <ele>141.45</ele>
        <time>2021-08-10T10:18:56Z</time>
      </trkpt>
      <trkpt lat="48.563" lon="4.66529">
        <ele>138.57</ele>
        <time>2021-08-10T10:19:04Z</time>
      </trkpt>
      <trkpt lat="48.56259" lon="4.66513">
        <ele>136.64</ele>
        <time>2021-08-10T10:19:10Z</time>
      </trkpt>
      <trkpt lat="48.56201" lon="4.66478">
        <ele>134.72</ele>
        <time>2021-08-10T10:19:18Z</time>
      </trkpt>
      <trkpt lat="48.56134" lon="4.66421">
        <ele>134.24</ele>
        <time>2021-08-10T10:19:28Z</time>
      </trkpt>
      <trkpt lat="48.5608" lon="4.66357">
        <ele>134.24</ele>
        <time>2021-08-10T10:19:38Z</time>
      </trkpt>
      <trkpt lat="48.56044" lon="4.66312">
        <ele>135.68</ele>
        <time>2021-08-10T10:19:46Z</time>
      </trkpt>
      <trkpt lat="48.56022" lon="4.66284">
        <ele>136.16</ele>
        <time>2021-08-10T10:19:52Z</time>
      </trkpt>
      <trkpt lat="48.5602" lon="4.66277">
        <ele>136.16</ele>
        <time>2021-08-10T10:19:53Z</time>
      </trkpt>
      <trkpt lat="48.56019" lon="4.6627">
        <ele>136.64</ele>
        <time>2021-08-10T10:19:54Z</time>
      </trkpt>
      <trkpt lat="48.56019" lon="4.66264">
        <ele>136.64</ele>
        <time>2021-08-10T10:19:55Z</time>
      </trkpt>
      <trkpt lat="48.5602" lon="4.66257">
        <ele>136.64</ele>
        <time>2021-08-10T10:19:56Z</time>
      </trkpt>
      <trkpt lat="48.56022" lon="4.66251">
        <ele>136.64</ele>
        <time>2021-08-10T10:19:57Z</time>
      </trkpt>
      <trkpt lat="48.56024" lon="4.66245">
        <ele>136.64</ele>
        <time>2021-08-10T10:19:58Z</time>
      </trkpt>
      <trkpt lat="48.56026" lon="4.66239">
        <ele>136.64</ele>
        <time>2021-08-10T10:19:59Z</time>
      </trkpt>
      <trkpt lat="48.56028" lon="4.66232">
        <ele>136.64</ele>
        <time>2021-08-10T10:20:00Z</time>
      </trkpt>
      <trkpt lat="48.56057" lon="4.66138">
        <ele>137.13</ele>
        <time>2021-08-10T10:20:14Z</time>
      </trkpt>
      <trkpt lat="48.56064" lon="4.66106">
        <ele>137.13</ele>
        <time>2021-08-10T10:20:19Z</time>
      </trkpt>
      <trkpt lat="48.56068" lon="4.66093">
        <ele>137.13</ele>
        <time>2021-08-10T10:20:21Z</time>
      </trkpt>
      <trkpt lat="48.56082" lon="4.66052">
        <ele>137.13</ele>
        <time>2021-08-10T10:20:27Z</time>
      </trkpt>
      <trkpt lat="48.56102" lon="4.65982">
        <ele>137.13</ele>
        <time>2021-08-10T10:20:36Z</time>
      </trkpt>
      <trkpt lat="48.56103" lon="4.65973">
        <ele>137.13</ele>
        <time>2021-08-10T10:20:37Z</time>
      </trkpt>
      <trkpt lat="48.56103" lon="4.65965">
        <ele>137.13</ele>
        <time>2021-08-10T10:20:38Z</time>
      </trkpt>
      <trkpt lat="48.56101" lon="4.65956">
        <ele>135.68</ele>
        <time>2021-08-10T10:20:39Z</time>
      </trkpt>
      <trkpt lat="48.56099" lon="4.65949">
        <ele>135.68</ele>
        <time>2021-08-10T10:20:40Z</time>
      </trkpt>
      <trkpt lat="48.56094" lon="4.65941">
        <ele>135.68</ele>
        <time>2021-08-10T10:20:41Z</time>
      </trkpt>
      <trkpt lat="48.56091" lon="4.65937">
        <ele>135.2</ele>
        <time>2021-08-10T10:20:42Z</time>
      </trkpt>
      <trkpt lat="48.56084" lon="4.65931">
        <ele>135.2</ele>
        <time>2021-08-10T10:20:43Z</time>
      </trkpt>
      <trkpt lat="48.5608" lon="4.65927">
        <ele>134.72</ele>
        <time>2021-08-10T10:20:44Z</time>
      </trkpt>
      <trkpt lat="48.56073" lon="4.65923">
        <ele>134.72</ele>
        <time>2021-08-10T10:20:45Z</time>
      </trkpt>
      <trkpt lat="48.56066" lon="4.6592">
        <ele>133.76</ele>
        <time>2021-08-10T10:20:46Z</time>
      </trkpt>
      <trkpt lat="48.56038" lon="4.65908">
        <ele>132.8</ele>
        <time>2021-08-10T10:20:50Z</time>
      </trkpt>
      <trkpt lat="48.5598" lon="4.65883">
        <ele>131.36</ele>
        <time>2021-08-10T10:20:58Z</time>
      </trkpt>
      <trkpt lat="48.5589" lon="4.65846">
        <ele>128.47</ele>
        <time>2021-08-10T10:21:10Z</time>
      </trkpt>
      <trkpt lat="48.55835" lon="4.65819">
        <ele>127.51</ele>
        <time>2021-08-10T10:21:18Z</time>
      </trkpt>
      <trkpt lat="48.55822" lon="4.6581">
        <ele>127.51</ele>
        <time>2021-08-10T10:21:20Z</time>
      </trkpt>
      <trkpt lat="48.55796" lon="4.65779">
        <ele>127.03</ele>
        <time>2021-08-10T10:21:25Z</time>
      </trkpt>
      <trkpt lat="48.55758" lon="4.65713">
        <ele>127.03</ele>
        <time>2021-08-10T10:21:34Z</time>
      </trkpt>
      <trkpt lat="48.55729" lon="4.65659">
        <ele>127.03</ele>
        <time>2021-08-10T10:21:42Z</time>
      </trkpt>
      <trkpt lat="48.55708" lon="4.65609">
        <ele>129.43</ele>
        <time>2021-08-10T10:21:50Z</time>
      </trkpt>
      <trkpt lat="48.55689" lon="4.65544">
        <ele>130.4</ele>
        <time>2021-08-10T10:22:00Z</time>
      </trkpt>
      <trkpt lat="48.55684" lon="4.65525">
        <ele>130.4</ele>
        <time>2021-08-10T10:22:03Z</time>
      </trkpt>
      <trkpt lat="48.55672" lon="4.65465">
        <ele>131.36</ele>
        <time>2021-08-10T10:22:12Z</time>
      </trkpt>
      <trkpt lat="48.55652" lon="4.65405">
        <ele>131.84</ele>
        <time>2021-08-10T10:22:22Z</time>
      </trkpt>
      <trkpt lat="48.55634" lon="4.65362">
        <ele>132.8</ele>
        <time>2021-08-10T10:22:30Z</time>
      </trkpt>
      <trkpt lat="48.55611" lon="4.6531">
        <ele>134.24</ele>
        <time>2021-08-10T10:22:40Z</time>
      </trkpt>
      <trkpt lat="48.55583" lon="4.6526">
        <ele>134.72</ele>
        <time>2021-08-10T10:22:50Z</time>
      </trkpt>
      <trkpt lat="48.55557" lon="4.65235">
        <ele>135.2</ele>
        <time>2021-08-10T10:22:58Z</time>
      </trkpt>
      <trkpt lat="48.55525" lon="4.65217">
        <ele>136.16</ele>
        <time>2021-08-10T10:23:08Z</time>
      </trkpt>
      <trkpt lat="48.55502" lon="4.65203">
        <ele>136.64</ele>
        <time>2021-08-10T10:23:16Z</time>
      </trkpt>
      <trkpt lat="48.55485" lon="4.65186">
        <ele>137.61</ele>
        <time>2021-08-10T10:23:22Z</time>
      </trkpt>
      <trkpt lat="48.55459" lon="4.65151">
        <ele>137.61</ele>
        <time>2021-08-10T10:23:31Z</time>
      </trkpt>
      <trkpt lat="48.55443" lon="4.65123">
        <ele>138.57</ele>
        <time>2021-08-10T10:23:38Z</time>
      </trkpt>
      <trkpt lat="48.55432" lon="4.65099">
        <ele>138.57</ele>
        <time>2021-08-10T10:23:45Z</time>
      </trkpt>
      <trkpt lat="48.55431" lon="4.65092">
        <ele>139.05</ele>
        <time>2021-08-10T10:23:47Z</time>
      </trkpt>
      <trkpt lat="48.55432" lon="4.65088">
        <ele>139.05</ele>
        <time>2021-08-10T10:23:48Z</time>
      </trkpt>
      <trkpt lat="48.55431" lon="4.65085">
        <ele>139.05</ele>
        <time>2021-08-10T10:23:49Z</time>
      </trkpt>
      <trkpt lat="48.5543" lon="4.65082">
        <ele>139.05</ele>
        <time>2021-08-10T10:23:50Z</time>
      </trkpt>
      <trkpt lat="48.55428" lon="4.65079">
        <ele>139.05</ele>
        <time>2021-08-10T10:23:51Z</time>
      </trkpt>
      <trkpt lat="48.55425" lon="4.65073">
        <ele>139.05</ele>
        <time>2021-08-10T10:23:56Z</time>
      </trkpt>
      <trkpt lat="48.55425" lon="4.65071">
        <ele>139.05</ele>
        <time>2021-08-10T10:24:03Z</time>
      </trkpt>
      <trkpt lat="48.55425" lon="4.65071">
        <ele>139.05</ele>
        <time>2021-08-10T10:24:11Z</time>
      </trkpt>
      <trkpt lat="48.55424" lon="4.65072">
        <ele>139.05</ele>
        <time>2021-08-10T10:24:18Z</time>
      </trkpt>
      <trkpt lat="48.55422" lon="4.65074">
        <ele>139.05</ele>
        <time>2021-08-10T10:24:22Z</time>
      </trkpt>
      <trkpt lat="48.55412" lon="4.65077">
        <ele>139.05</ele>
        <time>2021-08-10T10:24:27Z</time>
      </trkpt>
      <trkpt lat="48.55409" lon="4.65075">
        <ele>139.05</ele>
        <time>2021-08-10T10:24:28Z</time>
      </trkpt>
      <trkpt lat="48.55407" lon="4.65071">
        <ele>139.05</ele>
        <time>2021-08-10T10:24:29Z</time>
      </trkpt>
      <trkpt lat="48.55406" lon="4.65067">
        <ele>139.05</ele>
        <time>2021-08-10T10:24:30Z</time>
      </trkpt>
      <trkpt lat="48.55405" lon="4.65061">
        <ele>139.05</ele>
        <time>2021-08-10T10:24:31Z</time>
      </trkpt>
      <trkpt lat="48.55405" lon="4.65056">
        <ele>139.05</ele>
        <time>2021-08-10T10:24:32Z</time>
      </trkpt>
      <trkpt lat="48.55405" lon="4.6505">
        <ele>139.05</ele>
        <time>2021-08-10T10:24:33Z</time>
      </trkpt>
      <trkpt lat="48.55405" lon="4.65045">
        <ele>139.05</ele>
        <time>2021-08-10T10:24:34Z</time>
      </trkpt>
      <trkpt lat="48.55407" lon="4.65014">
        <ele>139.05</ele>
        <time>2021-08-10T10:24:40Z</time>
      </trkpt>
      <trkpt lat="48.55408" lon="4.65008">
        <ele>139.05</ele>
        <time>2021-08-10T10:24:42Z</time>
      </trkpt>
      <trkpt lat="48.5541" lon="4.65006">
        <ele>139.05</ele>
        <time>2021-08-10T10:24:43Z</time>
      </trkpt>
      <trkpt lat="48.55411" lon="4.65006">
        <ele>139.05</ele>
        <time>2021-08-10T10:24:44Z</time>
      </trkpt>
      <trkpt lat="48.55413" lon="4.65005">
        <ele>139.05</ele>
        <time>2021-08-10T10:24:50Z</time>
      </trkpt>
      <trkpt lat="48.55413" lon="4.65005">
        <ele>139.05</ele>
        <time>2021-08-10T10:24:58Z</time>
      </trkpt>
      <trkpt lat="48.55412" lon="4.65005">
        <ele>139.05</ele>
        <time>2021-08-10T10:25:11Z</time>
      </trkpt>
      <trkpt lat="48.55414" lon="4.65002">
        <ele>139.05</ele>
        <time>2021-08-10T10:25:32Z</time>
      </trkpt>
      <trkpt lat="48.55415" lon="4.65003">
        <ele>139.05</ele>
        <time>2021-08-10T10:25:44Z</time>
      </trkpt>
      <trkpt lat="48.55414" lon="4.65002">
        <ele>139.05</ele>
        <time>2021-08-10T10:26:01Z</time>
      </trkpt>
      <trkpt lat="48.55414" lon="4.65003">
        <ele>139.05</ele>
        <time>2021-08-10T10:26:16Z</time>
      </trkpt>
      <trkpt lat="48.55413" lon="4.65003">
        <ele>139.05</ele>
        <time>2021-08-10T10:26:41Z</time>
      </trkpt>
      <trkpt lat="48.55416" lon="4.65002">
        <ele>139.05</ele>
        <time>2021-08-10T10:27:03Z</time>
      </trkpt>
      <trkpt lat="48.55417" lon="4.65003">
        <ele>139.05</ele>
        <time>2021-08-10T10:27:14Z</time>
      </trkpt>
      <trkpt lat="48.55416" lon="4.65002">
        <ele>139.05</ele>
        <time>2021-08-10T10:27:28Z</time>
      </trkpt>
      <trkpt lat="48.55414" lon="4.65001">
        <ele>139.05</ele>
        <time>2021-08-10T10:27:43Z</time>
      </trkpt>
      <trkpt lat="48.55413" lon="4.65004">
        <ele>139.05</ele>
        <time>2021-08-10T10:28:05Z</time>
      </trkpt>
      <trkpt lat="48.55413" lon="4.65004">
        <ele>139.05</ele>
        <time>2021-08-10T10:28:26Z</time>
      </trkpt>
      <trkpt lat="48.55413" lon="4.65001">
        <ele>138.09</ele>
        <time>2021-08-10T10:28:45Z</time>
      </trkpt>
      <trkpt lat="48.55409" lon="4.65005">
        <ele>138.09</ele>
        <time>2021-08-10T10:29:07Z</time>
      </trkpt>
      <trkpt lat="48.5541" lon="4.65005">
        <ele>139.05</ele>
        <time>2021-08-10T10:29:27Z</time>
      </trkpt>
      <trkpt lat="48.55411" lon="4.65004">
        <ele>139.05</ele>
        <time>2021-08-10T10:29:44Z</time>
      </trkpt>
      <trkpt lat="48.55412" lon="4.65006">
        <ele>139.05</ele>
        <time>2021-08-10T10:29:59Z</time>
      </trkpt>
      <trkpt lat="48.55412" lon="4.65008">
        <ele>139.05</ele>
        <time>2021-08-10T10:30:14Z</time>
      </trkpt>
      <trkpt lat="48.55412" lon="4.65006">
        <ele>139.05</ele>
        <time>2021-08-10T10:30:21Z</time>
      </trkpt>
      <trkpt lat="48.55413" lon="4.65005">
        <ele>139.05</ele>
        <time>2021-08-10T10:30:28Z</time>
      </trkpt>
      <trkpt lat="48.55413" lon="4.65003">
        <ele>139.05</ele>
        <time>2021-08-10T10:30:44Z</time>
      </trkpt>
      <trkpt lat="48.55413" lon="4.65004">
        <ele>139.05</ele>
        <time>2021-08-10T10:31:04Z</time>
      </trkpt>
      <trkpt lat="48.55413" lon="4.65004">
        <ele>139.05</ele>
        <time>2021-08-10T10:31:17Z</time>
      </trkpt>
      <trkpt lat="48.55414" lon="4.65004">
        <ele>139.05</ele>
        <time>2021-08-10T10:31:30Z</time>
      </trkpt>
      <trkpt lat="48.55414" lon="4.65003">
        <ele>139.05</ele>
        <time>2021-08-10T10:31:42Z</time>
      </trkpt>
      <trkpt lat="48.55412" lon="4.65005">
        <ele>139.05</ele>
        <time>2021-08-10T10:31:52Z</time>
      </trkpt>
      <trkpt lat="48.55412" lon="4.65007">
        <ele>139.05</ele>
        <time>2021-08-10T10:32:06Z</time>
      </trkpt>
      <trkpt lat="48.55412" lon="4.65007">
        <ele>139.05</ele>
        <time>2021-08-10T10:32:25Z</time>
      </trkpt>
      <trkpt lat="48.55413" lon="4.65006">
        <ele>139.05</ele>
        <time>2021-08-10T10:32:40Z</time>
      </trkpt>
      <trkpt lat="48.55413" lon="4.65007">
        <ele>139.05</ele>
        <time>2021-08-10T10:32:56Z</time>
      </trkpt>
      <trkpt lat="48.55414" lon="4.65005">
        <ele>139.05</ele>
        <time>2021-08-10T10:33:09Z</time>
      </trkpt>
      <trkpt lat="48.55411" lon="4.65006">
        <ele>139.05</ele>
        <time>2021-08-10T10:33:16Z</time>
      </trkpt>
      <trkpt lat="48.55409" lon="4.6501">
        <ele>139.05</ele>
        <time>2021-08-10T10:33:23Z</time>
      </trkpt>
      <trkpt lat="48.55409" lon="4.65011">
        <ele>139.05</ele>
        <time>2021-08-10T10:33:24Z</time>
      </trkpt>
      <trkpt lat="48.55409" lon="4.65013">
        <ele>139.05</ele>
        <time>2021-08-10T10:33:25Z</time>
      </trkpt>
      <trkpt lat="48.55405" lon="4.65042">
        <ele>139.05</ele>
        <time>2021-08-10T10:33:33Z</time>
      </trkpt>
      <trkpt lat="48.55408" lon="4.65072">
        <ele>139.05</ele>
        <time>2021-08-10T10:33:39Z</time>
      </trkpt>
      <trkpt lat="48.55419" lon="4.65097">
        <ele>139.05</ele>
        <time>2021-08-10T10:33:45Z</time>
      </trkpt>
      <trkpt lat="48.55418" lon="4.65102">
        <ele>139.05</ele>
        <time>2021-08-10T10:33:46Z</time>
      </trkpt>
      <trkpt lat="48.554" lon="4.65132">
        <ele>139.05</ele>
        <time>2021-08-10T10:33:53Z</time>
      </trkpt>
      <trkpt lat="48.55394" lon="4.65142">
        <ele>138.09</ele>
        <time>2021-08-10T10:33:55Z</time>
      </trkpt>
      <trkpt lat="48.55369" lon="4.65184">
        <ele>137.61</ele>
        <time>2021-08-10T10:34:03Z</time>
      </trkpt>
      <trkpt lat="48.55343" lon="4.65226">
        <ele>136.64</ele>
        <time>2021-08-10T10:34:10Z</time>
      </trkpt>
      <trkpt lat="48.55304" lon="4.65283">
        <ele>135.68</ele>
        <time>2021-08-10T10:34:20Z</time>
      </trkpt>
      <trkpt lat="48.5529" lon="4.65298">
        <ele>135.68</ele>
        <time>2021-08-10T10:34:23Z</time>
      </trkpt>
      <trkpt lat="48.55286" lon="4.65302">
        <ele>134.24</ele>
        <time>2021-08-10T10:34:24Z</time>
      </trkpt>
      <trkpt lat="48.55281" lon="4.65306">
        <ele>134.24</ele>
        <time>2021-08-10T10:34:25Z</time>
      </trkpt>
      <trkpt lat="48.55243" lon="4.65351">
        <ele>133.28</ele>
        <time>2021-08-10T10:34:33Z</time>
      </trkpt>
      <trkpt lat="48.55196" lon="4.6541">
        <ele>131.36</ele>
        <time>2021-08-10T10:34:42Z</time>
      </trkpt>
      <trkpt lat="48.55151" lon="4.65476">
        <ele>130.88</ele>
        <time>2021-08-10T10:34:51Z</time>
      </trkpt>
      <trkpt lat="48.55102" lon="4.65562">
        <ele>130.4</ele>
        <time>2021-08-10T10:35:02Z</time>
      </trkpt>
      <trkpt lat="48.55089" lon="4.65594">
        <ele>130.4</ele>
        <time>2021-08-10T10:35:06Z</time>
      </trkpt>
      <trkpt lat="48.55078" lon="4.65628">
        <ele>132.8</ele>
        <time>2021-08-10T10:35:11Z</time>
      </trkpt>
      <trkpt lat="48.55076" lon="4.65633">
        <ele>133.28</ele>
        <time>2021-08-10T10:35:12Z</time>
      </trkpt>
      <trkpt lat="48.55068" lon="4.65659">
        <ele>134.72</ele>
        <time>2021-08-10T10:35:18Z</time>
      </trkpt>
      <trkpt lat="48.55056" lon="4.65711">
        <ele>135.2</ele>
        <time>2021-08-10T10:35:28Z</time>
      </trkpt>
      <trkpt lat="48.55047" lon="4.65754">
        <ele>133.76</ele>
        <time>2021-08-10T10:35:34Z</time>
      </trkpt>
      <trkpt lat="48.55032" lon="4.65831">
        <ele>129.92</ele>
        <time>2021-08-10T10:35:42Z</time>
      </trkpt>
      <trkpt lat="48.55012" lon="4.65935">
        <ele>128.95</ele>
        <time>2021-08-10T10:35:52Z</time>
      </trkpt>
      <trkpt lat="48.54996" lon="4.66014">
        <ele>129.43</ele>
        <time>2021-08-10T10:36:01Z</time>
      </trkpt>
      <trkpt lat="48.54983" lon="4.66061">
        <ele>129.43</ele>
        <time>2021-08-10T10:36:07Z</time>
      </trkpt>
      <trkpt lat="48.5498" lon="4.66067">
        <ele>129.43</ele>
        <time>2021-08-10T10:36:08Z</time>
      </trkpt>
      <trkpt lat="48.54976" lon="4.66072">
        <ele>129.43</ele>
        <time>2021-08-10T10:36:09Z</time>
      </trkpt>
      <trkpt lat="48.54972" lon="4.66076">
        <ele>128.95</ele>
        <time>2021-08-10T10:36:10Z</time>
      </trkpt>
      <trkpt lat="48.54968" lon="4.66079">
        <ele>129.43</ele>
        <time>2021-08-10T10:36:11Z</time>
      </trkpt>
      <trkpt lat="48.54964" lon="4.66082">
        <ele>129.43</ele>
        <time>2021-08-10T10:36:12Z</time>
      </trkpt>
      <trkpt lat="48.54956" lon="4.66088">
        <ele>130.4</ele>
        <time>2021-08-10T10:36:14Z</time>
      </trkpt>
      <trkpt lat="48.54919" lon="4.66113">
        <ele>131.36</ele>
        <time>2021-08-10T10:36:24Z</time>
      </trkpt>
      <trkpt lat="48.54883" lon="4.66141">
        <ele>133.28</ele>
        <time>2021-08-10T10:36:35Z</time>
      </trkpt>
      <trkpt lat="48.54854" lon="4.66178">
        <ele>133.76</ele>
        <time>2021-08-10T10:36:45Z</time>
      </trkpt>
      <trkpt lat="48.54837" lon="4.66206">
        <ele>134.24</ele>
        <time>2021-08-10T10:36:52Z</time>
      </trkpt>
      <trkpt lat="48.54815" lon="4.66245">
        <ele>135.68</ele>
        <time>2021-08-10T10:37:03Z</time>
      </trkpt>
      <trkpt lat="48.54802" lon="4.66267">
        <ele>136.16</ele>
        <time>2021-08-10T10:37:10Z</time>
      </trkpt>
      <trkpt lat="48.54782" lon="4.66301">
        <ele>138.09</ele>
        <time>2021-08-10T10:37:20Z</time>
      </trkpt>
      <trkpt lat="48.54756" lon="4.66342">
        <ele>138.57</ele>
        <time>2021-08-10T10:37:30Z</time>
      </trkpt>
      <trkpt lat="48.54731" lon="4.66384">
        <ele>139.05</ele>
        <time>2021-08-10T10:37:39Z</time>
      </trkpt>
      <trkpt lat="48.54704" lon="4.66429">
        <ele>139.05</ele>
        <time>2021-08-10T10:37:48Z</time>
      </trkpt>
      <trkpt lat="48.54663" lon="4.66499">
        <ele>139.05</ele>
        <time>2021-08-10T10:38:02Z</time>
      </trkpt>
      <trkpt lat="48.54631" lon="4.66553">
        <ele>139.05</ele>
        <time>2021-08-10T10:38:13Z</time>
      </trkpt>
      <trkpt lat="48.54597" lon="4.66607">
        <ele>139.05</ele>
        <time>2021-08-10T10:38:24Z</time>
      </trkpt>
      <trkpt lat="48.54558" lon="4.6666">
        <ele>139.05</ele>
        <time>2021-08-10T10:38:35Z</time>
      </trkpt>
      <trkpt lat="48.54529" lon="4.66699">
        <ele>137.61</ele>
        <time>2021-08-10T10:38:43Z</time>
      </trkpt>
      <trkpt lat="48.54495" lon="4.66744">
        <ele>135.68</ele>
        <time>2021-08-10T10:38:51Z</time>
      </trkpt>
      <trkpt lat="48.54445" lon="4.66811">
        <ele>134.24</ele>
        <time>2021-08-10T10:39:01Z</time>
      </trkpt>
      <trkpt lat="48.54399" lon="4.66871">
        <ele>132.32</ele>
        <time>2021-08-10T10:39:10Z</time>
      </trkpt>
      <trkpt lat="48.54364" lon="4.6692">
        <ele>132.8</ele>
        <time>2021-08-10T10:39:18Z</time>
      </trkpt>
      <trkpt lat="48.54349" lon="4.6694">
        <ele>133.76</ele>
        <time>2021-08-10T10:39:22Z</time>
      </trkpt>
      <trkpt lat="48.54329" lon="4.66966">
        <ele>135.68</ele>
        <time>2021-08-10T10:39:29Z</time>
      </trkpt>
      <trkpt lat="48.54308" lon="4.66992">
        <ele>137.61</ele>
        <time>2021-08-10T10:39:38Z</time>
      </trkpt>
      <trkpt lat="48.54291" lon="4.67016">
        <ele>137.61</ele>
        <time>2021-08-10T10:39:45Z</time>
      </trkpt>
      <trkpt lat="48.5427" lon="4.67044">
        <ele>138.09</ele>
        <time>2021-08-10T10:39:53Z</time>
      </trkpt>
      <trkpt lat="48.54241" lon="4.67081">
        <ele>138.57</ele>
        <time>2021-08-10T10:40:03Z</time>
      </trkpt>
      <trkpt lat="48.5423" lon="4.67097">
        <ele>139.05</ele>
        <time>2021-08-10T10:40:07Z</time>
      </trkpt>
      <trkpt lat="48.54227" lon="4.67101">
        <ele>139.05</ele>
        <time>2021-08-10T10:40:08Z</time>
      </trkpt>
      <trkpt lat="48.54225" lon="4.67106">
        <ele>139.05</ele>
        <time>2021-08-10T10:40:09Z</time>
      </trkpt>
      <trkpt lat="48.54222" lon="4.67112">
        <ele>139.05</ele>
        <time>2021-08-10T10:40:10Z</time>
      </trkpt>
      <trkpt lat="48.5422" lon="4.67117">
        <ele>139.05</ele>
        <time>2021-08-10T10:40:11Z</time>
      </trkpt>
      <trkpt lat="48.54197" lon="4.67161">
        <ele>137.61</ele>
        <time>2021-08-10T10:40:19Z</time>
      </trkpt>
      <trkpt lat="48.54163" lon="4.67233">
        <ele>137.13</ele>
        <time>2021-08-10T10:40:30Z</time>
      </trkpt>
      <trkpt lat="48.54135" lon="4.67291">
        <ele>137.13</ele>
        <time>2021-08-10T10:40:39Z</time>
      </trkpt>
      <trkpt lat="48.54105" lon="4.67354">
        <ele>135.68</ele>
        <time>2021-08-10T10:40:48Z</time>
      </trkpt>
      <trkpt lat="48.54084" lon="4.67396">
        <ele>135.68</ele>
        <time>2021-08-10T10:40:55Z</time>
      </trkpt>
      <trkpt lat="48.54055" lon="4.67454">
        <ele>135.68</ele>
        <time>2021-08-10T10:41:05Z</time>
      </trkpt>
      <trkpt lat="48.54042" lon="4.67482">
        <ele>135.2</ele>
        <time>2021-08-10T10:41:10Z</time>
      </trkpt>
      <trkpt lat="48.54036" lon="4.67496">
        <ele>135.2</ele>
        <time>2021-08-10T10:41:13Z</time>
      </trkpt>
      <trkpt lat="48.54029" lon="4.67496">
        <ele>135.2</ele>
        <time>2021-08-10T10:41:15Z</time>
      </trkpt>
      <trkpt lat="48.54026" lon="4.67494">
        <ele>135.2</ele>
        <time>2021-08-10T10:41:16Z</time>
      </trkpt>
      <trkpt lat="48.54022" lon="4.67492">
        <ele>135.2</ele>
        <time>2021-08-10T10:41:17Z</time>
      </trkpt>
      <trkpt lat="48.53981" lon="4.67468">
        <ele>133.28</ele>
        <time>2021-08-10T10:41:27Z</time>
      </trkpt>
      <trkpt lat="48.53945" lon="4.6745">
        <ele>129.92</ele>
        <time>2021-08-10T10:41:33Z</time>
      </trkpt>
      <trkpt lat="48.53932" lon="4.67443">
        <ele>128.47</ele>
        <time>2021-08-10T10:41:35Z</time>
      </trkpt>
      <trkpt lat="48.53856" lon="4.67401">
        <ele>125.59</ele>
        <time>2021-08-10T10:41:47Z</time>
      </trkpt>
      <trkpt lat="48.53825" lon="4.67384">
        <ele>125.11</ele>
        <time>2021-08-10T10:41:53Z</time>
      </trkpt>
      <trkpt lat="48.53813" lon="4.67372">
        <ele>125.11</ele>
        <time>2021-08-10T10:41:58Z</time>
      </trkpt>
      <trkpt lat="48.5381" lon="4.67369">
        <ele>125.11</ele>
        <time>2021-08-10T10:42:01Z</time>
      </trkpt>
      <trkpt lat="48.53801" lon="4.67365">
        <ele>125.11</ele>
        <time>2021-08-10T10:42:06Z</time>
      </trkpt>
      <trkpt lat="48.53797" lon="4.67361">
        <ele>125.11</ele>
        <time>2021-08-10T10:42:09Z</time>
      </trkpt>
      <trkpt lat="48.53789" lon="4.6736">
        <ele>125.11</ele>
        <time>2021-08-10T10:42:15Z</time>
      </trkpt>
      <trkpt lat="48.53778" lon="4.6736">
        <ele>125.11</ele>
        <time>2021-08-10T10:42:20Z</time>
      </trkpt>
      <trkpt lat="48.53773" lon="4.67345">
        <ele>125.11</ele>
        <time>2021-08-10T10:42:25Z</time>
      </trkpt>
      <trkpt lat="48.53779" lon="4.67332">
        <ele>125.11</ele>
        <time>2021-08-10T10:42:29Z</time>
      </trkpt>
      <trkpt lat="48.53779" lon="4.67315">
        <ele>125.11</ele>
        <time>2021-08-10T10:42:34Z</time>
      </trkpt>
      <trkpt lat="48.53787" lon="4.6728">
        <ele>125.11</ele>
        <time>2021-08-10T10:42:42Z</time>
      </trkpt>
      <trkpt lat="48.53797" lon="4.67239">
        <ele>125.11</ele>
        <time>2021-08-10T10:42:51Z</time>
      </trkpt>
      <trkpt lat="48.53804" lon="4.67205">
        <ele>125.11</ele>
        <time>2021-08-10T10:42:59Z</time>
      </trkpt>
      <trkpt lat="48.53807" lon="4.67161">
        <ele>125.11</ele>
        <time>2021-08-10T10:43:09Z</time>
      </trkpt>
      <trkpt lat="48.53802" lon="4.67118">
        <ele>125.11</ele>
        <time>2021-08-10T10:43:19Z</time>
      </trkpt>
      <trkpt lat="48.53796" lon="4.67076">
        <ele>125.11</ele>
        <time>2021-08-10T10:43:28Z</time>
      </trkpt>
      <trkpt lat="48.53792" lon="4.67045">
        <ele>125.11</ele>
        <time>2021-08-10T10:43:35Z</time>
      </trkpt>
      <trkpt lat="48.53786" lon="4.67039">
        <ele>125.11</ele>
        <time>2021-08-10T10:43:40Z</time>
      </trkpt>
      <trkpt lat="48.53772" lon="4.67037">
        <ele>125.11</ele>
        <time>2021-08-10T10:43:46Z</time>
      </trkpt>
      <trkpt lat="48.53745" lon="4.67033">
        <ele>125.11</ele>
        <time>2021-08-10T10:43:56Z</time>
      </trkpt>
      <trkpt lat="48.53725" lon="4.67029">
        <ele>125.11</ele>
        <time>2021-08-10T10:44:05Z</time>
      </trkpt>
      <trkpt lat="48.53708" lon="4.67025">
        <ele>127.03</ele>
        <time>2021-08-10T10:44:14Z</time>
      </trkpt>
      <trkpt lat="48.5369" lon="4.67022">
        <ele>126.55</ele>
        <time>2021-08-10T10:44:23Z</time>
      </trkpt>
      <trkpt lat="48.53668" lon="4.67018">
        <ele>127.51</ele>
        <time>2021-08-10T10:44:33Z</time>
      </trkpt>
      <trkpt lat="48.53645" lon="4.67013">
        <ele>127.99</ele>
        <time>2021-08-10T10:44:44Z</time>
      </trkpt>
      <trkpt lat="48.53629" lon="4.6701">
        <ele>128.47</ele>
        <time>2021-08-10T10:44:52Z</time>
      </trkpt>
      <trkpt lat="48.53606" lon="4.67005">
        <ele>129.43</ele>
        <time>2021-08-10T10:45:03Z</time>
      </trkpt>
      <trkpt lat="48.53589" lon="4.67003">
        <ele>129.92</ele>
        <time>2021-08-10T10:45:11Z</time>
      </trkpt>
      <trkpt lat="48.53571" lon="4.66999">
        <ele>130.4</ele>
        <time>2021-08-10T10:45:19Z</time>
      </trkpt>
      <trkpt lat="48.53552" lon="4.66995">
        <ele>130.88</ele>
        <time>2021-08-10T10:45:28Z</time>
      </trkpt>
      <trkpt lat="48.53525" lon="4.66989">
        <ele>131.36</ele>
        <time>2021-08-10T10:45:41Z</time>
      </trkpt>
      <trkpt lat="48.53503" lon="4.66985">
        <ele>131.84</ele>
        <time>2021-08-10T10:45:51Z</time>
      </trkpt>
      <trkpt lat="48.53485" lon="4.66981">
        <ele>132.32</ele>
        <time>2021-08-10T10:46:00Z</time>
      </trkpt>
      <trkpt lat="48.53466" lon="4.66977">
        <ele>132.8</ele>
        <time>2021-08-10T10:46:08Z</time>
      </trkpt>
      <trkpt lat="48.53448" lon="4.66975">
        <ele>133.28</ele>
        <time>2021-08-10T10:46:16Z</time>
      </trkpt>
      <trkpt lat="48.53424" lon="4.66971">
        <ele>133.28</ele>
        <time>2021-08-10T10:46:25Z</time>
      </trkpt>
      <trkpt lat="48.53397" lon="4.66964">
        <ele>133.28</ele>
        <time>2021-08-10T10:46:35Z</time>
      </trkpt>
      <trkpt lat="48.5337" lon="4.6696">
        <ele>133.28</ele>
        <time>2021-08-10T10:46:44Z</time>
      </trkpt>
      <trkpt lat="48.53321" lon="4.6695">
        <ele>131.84</ele>
        <time>2021-08-10T10:46:57Z</time>
      </trkpt>
      <trkpt lat="48.53293" lon="4.66944">
        <ele>131.84</ele>
        <time>2021-08-10T10:47:05Z</time>
      </trkpt>
      <trkpt lat="48.53272" lon="4.6694">
        <ele>131.84</ele>
        <time>2021-08-10T10:47:11Z</time>
      </trkpt>
      <trkpt lat="48.53243" lon="4.66935">
        <ele>131.36</ele>
        <time>2021-08-10T10:47:19Z</time>
      </trkpt>
      <trkpt lat="48.532" lon="4.66926">
        <ele>131.36</ele>
        <time>2021-08-10T10:47:31Z</time>
      </trkpt>
      <trkpt lat="48.53178" lon="4.66917">
        <ele>131.36</ele>
        <time>2021-08-10T10:47:38Z</time>
      </trkpt>
      <trkpt lat="48.5316" lon="4.66884">
        <ele>131.36</ele>
        <time>2021-08-10T10:47:45Z</time>
      </trkpt>
      <trkpt lat="48.53132" lon="4.66831">
        <ele>131.36</ele>
        <time>2021-08-10T10:47:56Z</time>
      </trkpt>
      <trkpt lat="48.53107" lon="4.66784">
        <ele>132.8</ele>
        <time>2021-08-10T10:48:06Z</time>
      </trkpt>
      <trkpt lat="48.53076" lon="4.66726">
        <ele>133.76</ele>
        <time>2021-08-10T10:48:18Z</time>
      </trkpt>
      <trkpt lat="48.5305" lon="4.66678">
        <ele>132.32</ele>
        <time>2021-08-10T10:48:27Z</time>
      </trkpt>
      <trkpt lat="48.53017" lon="4.66615">
        <ele>129.92</ele>
        <time>2021-08-10T10:48:37Z</time>
      </trkpt>
      <trkpt lat="48.52986" lon="4.66555">
        <ele>129.43</ele>
        <time>2021-08-10T10:48:47Z</time>
      </trkpt>
      <trkpt lat="48.52947" lon="4.6648">
        <ele>128.95</ele>
        <time>2021-08-10T10:48:59Z</time>
      </trkpt>
      <trkpt lat="48.52916" lon="4.66422">
        <ele>128.95</ele>
        <time>2021-08-10T10:49:09Z</time>
      </trkpt>
      <trkpt lat="48.52891" lon="4.66361">
        <ele>128.47</ele>
        <time>2021-08-10T10:49:19Z</time>
      </trkpt>
      <trkpt lat="48.52864" lon="4.66284">
        <ele>127.51</ele>
        <time>2021-08-10T10:49:30Z</time>
      </trkpt>
      <trkpt lat="48.52842" lon="4.6622">
        <ele>127.03</ele>
        <time>2021-08-10T10:49:40Z</time>
      </trkpt>
      <trkpt lat="48.52814" lon="4.66148">
        <ele>127.03</ele>
        <time>2021-08-10T10:49:51Z</time>
      </trkpt>
      <trkpt lat="48.52784" lon="4.66099">
        <ele>126.55</ele>
        <time>2021-08-10T10:50:00Z</time>
      </trkpt>
      <trkpt lat="48.52769" lon="4.6608">
        <ele>126.55</ele>
        <time>2021-08-10T10:50:04Z</time>
      </trkpt>
      <trkpt lat="48.52766" lon="4.66075">
        <ele>126.55</ele>
        <time>2021-08-10T10:50:05Z</time>
      </trkpt>
      <trkpt lat="48.52763" lon="4.6607">
        <ele>126.55</ele>
        <time>2021-08-10T10:50:06Z</time>
      </trkpt>
      <trkpt lat="48.52739" lon="4.66043">
        <ele>126.07</ele>
        <time>2021-08-10T10:50:12Z</time>
      </trkpt>
      <trkpt lat="48.52701" lon="4.65985">
        <ele>124.63</ele>
        <time>2021-08-10T10:50:22Z</time>
      </trkpt>
      <trkpt lat="48.52682" lon="4.65928">
        <ele>124.63</ele>
        <time>2021-08-10T10:50:30Z</time>
      </trkpt>
      <trkpt lat="48.52663" lon="4.65848">
        <ele>124.63</ele>
        <time>2021-08-10T10:50:40Z</time>
      </trkpt>
      <trkpt lat="48.52648" lon="4.65787">
        <ele>124.15</ele>
        <time>2021-08-10T10:50:48Z</time>
      </trkpt>
      <trkpt lat="48.52633" lon="4.65743">
        <ele>124.15</ele>
        <time>2021-08-10T10:50:54Z</time>
      </trkpt>
      <trkpt lat="48.52608" lon="4.65691">
        <ele>124.15</ele>
        <time>2021-08-10T10:51:02Z</time>
      </trkpt>
      <trkpt lat="48.52584" lon="4.65653">
        <ele>124.15</ele>
        <time>2021-08-10T10:51:09Z</time>
      </trkpt>
      <trkpt lat="48.52579" lon="4.65649">
        <ele>124.15</ele>
        <time>2021-08-10T10:51:10Z</time>
      </trkpt>
      <trkpt lat="48.52569" lon="4.65644">
        <ele>124.15</ele>
        <time>2021-08-10T10:51:12Z</time>
      </trkpt>
      <trkpt lat="48.52564" lon="4.65642">
        <ele>124.15</ele>
        <time>2021-08-10T10:51:13Z</time>
      </trkpt>
      <trkpt lat="48.52559" lon="4.65641">
        <ele>124.15</ele>
        <time>2021-08-10T10:51:14Z</time>
      </trkpt>
      <trkpt lat="48.52525" lon="4.65631">
        <ele>125.59</ele>
        <time>2021-08-10T10:51:22Z</time>
      </trkpt>
      <trkpt lat="48.52485" lon="4.65604">
        <ele>126.55</ele>
        <time>2021-08-10T10:51:32Z</time>
      </trkpt>
      <trkpt lat="48.52467" lon="4.65589">
        <ele>126.55</ele>
        <time>2021-08-10T10:51:37Z</time>
      </trkpt>
      <trkpt lat="48.52427" lon="4.6556">
        <ele>127.03</ele>
        <time>2021-08-10T10:51:47Z</time>
      </trkpt>
      <trkpt lat="48.52423" lon="4.65557">
        <ele>127.03</ele>
        <time>2021-08-10T10:51:48Z</time>
      </trkpt>
      <trkpt lat="48.52419" lon="4.65554">
        <ele>127.03</ele>
        <time>2021-08-10T10:51:49Z</time>
      </trkpt>
      <trkpt lat="48.52375" lon="4.65518">
        <ele>127.03</ele>
        <time>2021-08-10T10:52:00Z</time>
      </trkpt>
      <trkpt lat="48.52367" lon="4.65512">
        <ele>127.03</ele>
        <time>2021-08-10T10:52:02Z</time>
      </trkpt>
      <trkpt lat="48.52359" lon="4.65504">
        <ele>127.51</ele>
        <time>2021-08-10T10:52:04Z</time>
      </trkpt>
      <trkpt lat="48.5232" lon="4.65476">
        <ele>128.47</ele>
        <time>2021-08-10T10:52:14Z</time>
      </trkpt>
      <trkpt lat="48.52317" lon="4.65474">
        <ele>128.47</ele>
        <time>2021-08-10T10:52:15Z</time>
      </trkpt>
      <trkpt lat="48.52298" lon="4.65462">
        <ele>129.43</ele>
        <time>2021-08-10T10:52:20Z</time>
      </trkpt>
      <trkpt lat="48.52294" lon="4.6546">
        <ele>129.43</ele>
        <time>2021-08-10T10:52:21Z</time>
      </trkpt>
      <trkpt lat="48.5229" lon="4.65458">
        <ele>129.43</ele>
        <time>2021-08-10T10:52:22Z</time>
      </trkpt>
      <trkpt lat="48.52286" lon="4.65457">
        <ele>129.43</ele>
        <time>2021-08-10T10:52:23Z</time>
      </trkpt>
      <trkpt lat="48.52282" lon="4.65456">
        <ele>129.43</ele>
        <time>2021-08-10T10:52:24Z</time>
      </trkpt>
      <trkpt lat="48.52248" lon="4.65446">
        <ele>129.43</ele>
        <time>2021-08-10T10:52:32Z</time>
      </trkpt>
      <trkpt lat="48.52244" lon="4.65445">
        <ele>129.43</ele>
        <time>2021-08-10T10:52:33Z</time>
      </trkpt>
      <trkpt lat="48.5224" lon="4.65442">
        <ele>129.43</ele>
        <time>2021-08-10T10:52:34Z</time>
      </trkpt>
      <trkpt lat="48.52209" lon="4.65426">
        <ele>129.43</ele>
        <time>2021-08-10T10:52:41Z</time>
      </trkpt>
      <trkpt lat="48.52204" lon="4.65426">
        <ele>129.43</ele>
        <time>2021-08-10T10:52:42Z</time>
      </trkpt>
      <trkpt lat="48.52162" lon="4.65426">
        <ele>129.43</ele>
        <time>2021-08-10T10:52:50Z</time>
      </trkpt>
      <trkpt lat="48.52109" lon="4.65429">
        <ele>128.47</ele>
        <time>2021-08-10T10:53:00Z</time>
      </trkpt>
      <trkpt lat="48.52061" lon="4.65431">
        <ele>128.47</ele>
        <time>2021-08-10T10:53:09Z</time>
      </trkpt>
      <trkpt lat="48.52009" lon="4.65432">
        <ele>128.47</ele>
        <time>2021-08-10T10:53:19Z</time>
      </trkpt>
      <trkpt lat="48.52004" lon="4.65433">
        <ele>128.47</ele>
        <time>2021-08-10T10:53:20Z</time>
      </trkpt>
      <trkpt lat="48.51999" lon="4.65433">
        <ele>128.47</ele>
        <time>2021-08-10T10:53:21Z</time>
      </trkpt>
      <trkpt lat="48.51957" lon="4.65435">
        <ele>128.47</ele>
        <time>2021-08-10T10:53:29Z</time>
      </trkpt>
      <trkpt lat="48.51922" lon="4.65436">
        <ele>129.43</ele>
        <time>2021-08-10T10:53:36Z</time>
      </trkpt>
      <trkpt lat="48.51907" lon="4.65435">
        <ele>129.43</ele>
        <time>2021-08-10T10:53:39Z</time>
      </trkpt>
      <trkpt lat="48.51902" lon="4.65434">
        <ele>129.43</ele>
        <time>2021-08-10T10:53:40Z</time>
      </trkpt>
      <trkpt lat="48.51878" lon="4.65425">
        <ele>130.4</ele>
        <time>2021-08-10T10:53:45Z</time>
      </trkpt>
      <trkpt lat="48.51866" lon="4.65416">
        <ele>130.4</ele>
        <time>2021-08-10T10:53:48Z</time>
      </trkpt>
      <trkpt lat="48.51859" lon="4.65407">
        <ele>130.88</ele>
        <time>2021-08-10T10:53:50Z</time>
      </trkpt>
      <trkpt lat="48.51841" lon="4.65376">
        <ele>131.36</ele>
        <time>2021-08-10T10:53:56Z</time>
      </trkpt>
      <trkpt lat="48.51813" lon="4.65304">
        <ele>131.36</ele>
        <time>2021-08-10T10:54:07Z</time>
      </trkpt>
      <trkpt lat="48.51789" lon="4.65242">
        <ele>131.84</ele>
        <time>2021-08-10T10:54:16Z</time>
      </trkpt>
      <trkpt lat="48.51761" lon="4.65168">
        <ele>131.84</ele>
        <time>2021-08-10T10:54:26Z</time>
      </trkpt>
      <trkpt lat="48.51752" lon="4.65146">
        <ele>132.32</ele>
        <time>2021-08-10T10:54:29Z</time>
      </trkpt>
      <trkpt lat="48.51739" lon="4.65108">
        <ele>132.8</ele>
        <time>2021-08-10T10:54:34Z</time>
      </trkpt>
      <trkpt lat="48.51736" lon="4.65101">
        <ele>132.8</ele>
        <time>2021-08-10T10:54:35Z</time>
      </trkpt>
      <trkpt lat="48.5173" lon="4.65089">
        <ele>132.8</ele>
        <time>2021-08-10T10:54:37Z</time>
      </trkpt>
      <trkpt lat="48.51727" lon="4.65082">
        <ele>132.8</ele>
        <time>2021-08-10T10:54:38Z</time>
      </trkpt>
      <trkpt lat="48.51725" lon="4.65074">
        <ele>132.8</ele>
        <time>2021-08-10T10:54:39Z</time>
      </trkpt>
      <trkpt lat="48.51723" lon="4.65067">
        <ele>132.8</ele>
        <time>2021-08-10T10:54:40Z</time>
      </trkpt>
      <trkpt lat="48.51721" lon="4.6506">
        <ele>133.28</ele>
        <time>2021-08-10T10:54:41Z</time>
      </trkpt>
      <trkpt lat="48.51716" lon="4.65046">
        <ele>133.28</ele>
        <time>2021-08-10T10:54:43Z</time>
      </trkpt>
      <trkpt lat="48.51701" lon="4.65007">
        <ele>133.76</ele>
        <time>2021-08-10T10:54:49Z</time>
      </trkpt>
      <trkpt lat="48.51674" lon="4.64935">
        <ele>133.76</ele>
        <time>2021-08-10T10:54:59Z</time>
      </trkpt>
      <trkpt lat="48.51662" lon="4.64906">
        <ele>134.24</ele>
        <time>2021-08-10T10:55:03Z</time>
      </trkpt>
      <trkpt lat="48.51648" lon="4.64871">
        <ele>134.24</ele>
        <time>2021-08-10T10:55:08Z</time>
      </trkpt>
      <trkpt lat="48.51633" lon="4.64836">
        <ele>134.24</ele>
        <time>2021-08-10T10:55:13Z</time>
      </trkpt>
      <trkpt lat="48.5163" lon="4.64829">
        <ele>134.72</ele>
        <time>2021-08-10T10:55:14Z</time>
      </trkpt>
      <trkpt lat="48.51628" lon="4.64821">
        <ele>134.72</ele>
        <time>2021-08-10T10:55:15Z</time>
      </trkpt>
      <trkpt lat="48.51611" lon="4.64769">
        <ele>134.72</ele>
        <time>2021-08-10T10:55:22Z</time>
      </trkpt>
      <trkpt lat="48.51608" lon="4.64762">
        <ele>134.72</ele>
        <time>2021-08-10T10:55:23Z</time>
      </trkpt>
      <trkpt lat="48.51584" lon="4.64705">
        <ele>134.72</ele>
        <time>2021-08-10T10:55:32Z</time>
      </trkpt>
      <trkpt lat="48.51563" lon="4.64651">
        <ele>135.2</ele>
        <time>2021-08-10T10:55:40Z</time>
      </trkpt>
      <trkpt lat="48.51553" lon="4.64624">
        <ele>135.2</ele>
        <time>2021-08-10T10:55:44Z</time>
      </trkpt>
      <trkpt lat="48.5155" lon="4.64618">
        <ele>135.2</ele>
        <time>2021-08-10T10:55:45Z</time>
      </trkpt>
      <trkpt lat="48.51541" lon="4.64592">
        <ele>135.68</ele>
        <time>2021-08-10T10:55:49Z</time>
      </trkpt>
      <trkpt lat="48.5154" lon="4.64585">
        <ele>135.68</ele>
        <time>2021-08-10T10:55:50Z</time>
      </trkpt>
      <trkpt lat="48.51537" lon="4.64578">
        <ele>135.68</ele>
        <time>2021-08-10T10:55:51Z</time>
      </trkpt>
      <trkpt lat="48.51524" lon="4.6455">
        <ele>135.68</ele>
        <time>2021-08-10T10:55:56Z</time>
      </trkpt>
      <trkpt lat="48.51521" lon="4.64544">
        <ele>135.68</ele>
        <time>2021-08-10T10:55:57Z</time>
      </trkpt>
      <trkpt lat="48.51517" lon="4.64532">
        <ele>136.16</ele>
        <time>2021-08-10T10:55:59Z</time>
      </trkpt>
      <trkpt lat="48.51514" lon="4.64526">
        <ele>136.16</ele>
        <time>2021-08-10T10:56:00Z</time>
      </trkpt>
      <trkpt lat="48.51497" lon="4.64481">
        <ele>136.16</ele>
        <time>2021-08-10T10:56:07Z</time>
      </trkpt>
      <trkpt lat="48.51478" lon="4.64432">
        <ele>136.16</ele>
        <time>2021-08-10T10:56:15Z</time>
      </trkpt>
      <trkpt lat="48.51472" lon="4.64413">
        <ele>136.16</ele>
        <time>2021-08-10T10:56:18Z</time>
      </trkpt>
      <trkpt lat="48.5147" lon="4.64406">
        <ele>136.16</ele>
        <time>2021-08-10T10:56:19Z</time>
      </trkpt>
      <trkpt lat="48.51468" lon="4.644">
        <ele>136.16</ele>
        <time>2021-08-10T10:56:20Z</time>
      </trkpt>
      <trkpt lat="48.51466" lon="4.64394">
        <ele>136.16</ele>
        <time>2021-08-10T10:56:21Z</time>
      </trkpt>
      <trkpt lat="48.51464" lon="4.64388">
        <ele>136.16</ele>
        <time>2021-08-10T10:56:22Z</time>
      </trkpt>
      <trkpt lat="48.51456" lon="4.64362">
        <ele>136.16</ele>
        <time>2021-08-10T10:56:26Z</time>
      </trkpt>
      <trkpt lat="48.51454" lon="4.64355">
        <ele>136.16</ele>
        <time>2021-08-10T10:56:27Z</time>
      </trkpt>
      <trkpt lat="48.51451" lon="4.64348">
        <ele>136.16</ele>
        <time>2021-08-10T10:56:28Z</time>
      </trkpt>
      <trkpt lat="48.51445" lon="4.64334">
        <ele>136.16</ele>
        <time>2021-08-10T10:56:30Z</time>
      </trkpt>
      <trkpt lat="48.51427" lon="4.64283">
        <ele>136.16</ele>
        <time>2021-08-10T10:56:37Z</time>
      </trkpt>
      <trkpt lat="48.51421" lon="4.64269">
        <ele>134.72</ele>
        <time>2021-08-10T10:56:39Z</time>
      </trkpt>
      <trkpt lat="48.51409" lon="4.64238">
        <ele>134.24</ele>
        <time>2021-08-10T10:56:43Z</time>
      </trkpt>
      <trkpt lat="48.51407" lon="4.64231">
        <ele>134.72</ele>
        <time>2021-08-10T10:56:44Z</time>
      </trkpt>
      <trkpt lat="48.51382" lon="4.64165">
        <ele>134.24</ele>
        <time>2021-08-10T10:56:52Z</time>
      </trkpt>
      <trkpt lat="48.51357" lon="4.641">
        <ele>134.24</ele>
        <time>2021-08-10T10:57:00Z</time>
      </trkpt>
      <trkpt lat="48.51322" lon="4.6401">
        <ele>134.24</ele>
        <time>2021-08-10T10:57:11Z</time>
      </trkpt>
      <trkpt lat="48.51292" lon="4.63929">
        <ele>134.24</ele>
        <time>2021-08-10T10:57:21Z</time>
      </trkpt>
      <trkpt lat="48.51268" lon="4.63867">
        <ele>135.68</ele>
        <time>2021-08-10T10:57:29Z</time>
      </trkpt>
      <trkpt lat="48.51247" lon="4.63809">
        <ele>135.68</ele>
        <time>2021-08-10T10:57:37Z</time>
      </trkpt>
      <trkpt lat="48.51239" lon="4.63788">
        <ele>136.16</ele>
        <time>2021-08-10T10:57:40Z</time>
      </trkpt>
      <trkpt lat="48.51216" lon="4.63732">
        <ele>137.13</ele>
        <time>2021-08-10T10:57:48Z</time>
      </trkpt>
      <trkpt lat="48.51213" lon="4.63725">
        <ele>137.13</ele>
        <time>2021-08-10T10:57:49Z</time>
      </trkpt>
      <trkpt lat="48.5119" lon="4.63664">
        <ele>137.13</ele>
        <time>2021-08-10T10:57:58Z</time>
      </trkpt>
      <trkpt lat="48.51166" lon="4.63605">
        <ele>137.61</ele>
        <time>2021-08-10T10:58:07Z</time>
      </trkpt>
      <trkpt lat="48.51136" lon="4.63554">
        <ele>138.09</ele>
        <time>2021-08-10T10:58:16Z</time>
      </trkpt>
      <trkpt lat="48.51095" lon="4.635">
        <ele>138.57</ele>
        <time>2021-08-10T10:58:26Z</time>
      </trkpt>
      <trkpt lat="48.51071" lon="4.6347">
        <ele>138.57</ele>
        <time>2021-08-10T10:58:32Z</time>
      </trkpt>
      <trkpt lat="48.51043" lon="4.63434">
        <ele>138.57</ele>
        <time>2021-08-10T10:58:39Z</time>
      </trkpt>
      <trkpt lat="48.51007" lon="4.63385">
        <ele>139.05</ele>
        <time>2021-08-10T10:58:48Z</time>
      </trkpt>
      <trkpt lat="48.50999" lon="4.63375">
        <ele>139.05</ele>
        <time>2021-08-10T10:58:50Z</time>
      </trkpt>
      <trkpt lat="48.50968" lon="4.63332">
        <ele>140.01</ele>
        <time>2021-08-10T10:58:58Z</time>
      </trkpt>
      <trkpt lat="48.5096" lon="4.63322">
        <ele>140.01</ele>
        <time>2021-08-10T10:59:00Z</time>
      </trkpt>
      <trkpt lat="48.50933" lon="4.63285">
        <ele>140.01</ele>
        <time>2021-08-10T10:59:07Z</time>
      </trkpt>
      <trkpt lat="48.50926" lon="4.63277">
        <ele>140.01</ele>
        <time>2021-08-10T10:59:09Z</time>
      </trkpt>
      <trkpt lat="48.50924" lon="4.63272">
        <ele>140.01</ele>
        <time>2021-08-10T10:59:10Z</time>
      </trkpt>
      <trkpt lat="48.50924" lon="4.63266">
        <ele>140.01</ele>
        <time>2021-08-10T10:59:11Z</time>
      </trkpt>
      <trkpt lat="48.50932" lon="4.63247">
        <ele>140.01</ele>
        <time>2021-08-10T10:59:15Z</time>
      </trkpt>
      <trkpt lat="48.50933" lon="4.63243">
        <ele>140.01</ele>
        <time>2021-08-10T10:59:16Z</time>
      </trkpt>
      <trkpt lat="48.50936" lon="4.63209">
        <ele>140.01</ele>
        <time>2021-08-10T10:59:23Z</time>
      </trkpt>
      <trkpt lat="48.50942" lon="4.63167">
        <ele>140.01</ele>
        <time>2021-08-10T10:59:30Z</time>
      </trkpt>
      <trkpt lat="48.50946" lon="4.63129">
        <ele>139.05</ele>
        <time>2021-08-10T10:59:35Z</time>
      </trkpt>
      <trkpt lat="48.50951" lon="4.63063">
        <ele>137.61</ele>
        <time>2021-08-10T10:59:44Z</time>
      </trkpt>
      <trkpt lat="48.50953" lon="4.63049">
        <ele>137.61</ele>
        <time>2021-08-10T10:59:46Z</time>
      </trkpt>
      <trkpt lat="48.50958" lon="4.6298">
        <ele>137.13</ele>
        <time>2021-08-10T10:59:56Z</time>
      </trkpt>
      <trkpt lat="48.5096" lon="4.62946">
        <ele>137.13</ele>
        <time>2021-08-10T11:00:02Z</time>
      </trkpt>
      <trkpt lat="48.5096" lon="4.62932">
        <ele>136.64</ele>
        <time>2021-08-10T11:00:04Z</time>
      </trkpt>
      <trkpt lat="48.50967" lon="4.62888">
        <ele>136.64</ele>
        <time>2021-08-10T11:00:11Z</time>
      </trkpt>
      <trkpt lat="48.50971" lon="4.6285">
        <ele>137.61</ele>
        <time>2021-08-10T11:00:19Z</time>
      </trkpt>
      <trkpt lat="48.50977" lon="4.62826">
        <ele>138.09</ele>
        <time>2021-08-10T11:00:26Z</time>
      </trkpt>
      <trkpt lat="48.50986" lon="4.62787">
        <ele>138.57</ele>
        <time>2021-08-10T11:00:34Z</time>
      </trkpt>
      <trkpt lat="48.50999" lon="4.62736">
        <ele>138.57</ele>
        <time>2021-08-10T11:00:44Z</time>
      </trkpt>
      <trkpt lat="48.51009" lon="4.62695">
        <ele>138.57</ele>
        <time>2021-08-10T11:00:53Z</time>
      </trkpt>
      <trkpt lat="48.51019" lon="4.6265">
        <ele>139.05</ele>
        <time>2021-08-10T11:01:02Z</time>
      </trkpt>
      <trkpt lat="48.51024" lon="4.62603">
        <ele>139.05</ele>
        <time>2021-08-10T11:01:10Z</time>
      </trkpt>
      <trkpt lat="48.51027" lon="4.62549">
        <ele>137.61</ele>
        <time>2021-08-10T11:01:19Z</time>
      </trkpt>
      <trkpt lat="48.51031" lon="4.6248">
        <ele>137.13</ele>
        <time>2021-08-10T11:01:30Z</time>
      </trkpt>
      <trkpt lat="48.51038" lon="4.62416">
        <ele>136.64</ele>
        <time>2021-08-10T11:01:40Z</time>
      </trkpt>
      <trkpt lat="48.51038" lon="4.62409">
        <ele>136.64</ele>
        <time>2021-08-10T11:01:41Z</time>
      </trkpt>
      <trkpt lat="48.51039" lon="4.62403">
        <ele>136.64</ele>
        <time>2021-08-10T11:01:42Z</time>
      </trkpt>
      <trkpt lat="48.51049" lon="4.62343">
        <ele>136.64</ele>
        <time>2021-08-10T11:01:51Z</time>
      </trkpt>
      <trkpt lat="48.51057" lon="4.62282">
        <ele>135.68</ele>
        <time>2021-08-10T11:02:00Z</time>
      </trkpt>
      <trkpt lat="48.51061" lon="4.62223">
        <ele>136.16</ele>
        <time>2021-08-10T11:02:09Z</time>
      </trkpt>
      <trkpt lat="48.51061" lon="4.6217">
        <ele>136.16</ele>
        <time>2021-08-10T11:02:17Z</time>
      </trkpt>
      <trkpt lat="48.51059" lon="4.62104">
        <ele>137.13</ele>
        <time>2021-08-10T11:02:27Z</time>
      </trkpt>
      <trkpt lat="48.51058" lon="4.62098">
        <ele>137.13</ele>
        <time>2021-08-10T11:02:28Z</time>
      </trkpt>
      <trkpt lat="48.51055" lon="4.62043">
        <ele>136.16</ele>
        <time>2021-08-10T11:02:37Z</time>
      </trkpt>
      <trkpt lat="48.51052" lon="4.61984">
        <ele>136.16</ele>
        <time>2021-08-10T11:02:47Z</time>
      </trkpt>
      <trkpt lat="48.51056" lon="4.61925">
        <ele>138.09</ele>
        <time>2021-08-10T11:02:57Z</time>
      </trkpt>
      <trkpt lat="48.51068" lon="4.61881">
        <ele>138.09</ele>
        <time>2021-08-10T11:03:05Z</time>
      </trkpt>
      <trkpt lat="48.51072" lon="4.6187">
        <ele>138.09</ele>
        <time>2021-08-10T11:03:07Z</time>
      </trkpt>
      <trkpt lat="48.51084" lon="4.61848">
        <ele>137.61</ele>
        <time>2021-08-10T11:03:11Z</time>
      </trkpt>
      <trkpt lat="48.51087" lon="4.61842">
        <ele>137.61</ele>
        <time>2021-08-10T11:03:12Z</time>
      </trkpt>
      <trkpt lat="48.51107" lon="4.6181">
        <ele>136.64</ele>
        <time>2021-08-10T11:03:18Z</time>
      </trkpt>
      <trkpt lat="48.5114" lon="4.61759">
        <ele>136.64</ele>
        <time>2021-08-10T11:03:27Z</time>
      </trkpt>
      <trkpt lat="48.51179" lon="4.61704">
        <ele>136.16</ele>
        <time>2021-08-10T11:03:37Z</time>
      </trkpt>
      <trkpt lat="48.51215" lon="4.61643">
        <ele>135.2</ele>
        <time>2021-08-10T11:03:46Z</time>
      </trkpt>
      <trkpt lat="48.51225" lon="4.6161">
        <ele>135.2</ele>
        <time>2021-08-10T11:03:50Z</time>
      </trkpt>
      <trkpt lat="48.51227" lon="4.61601">
        <ele>134.72</ele>
        <time>2021-08-10T11:03:51Z</time>
      </trkpt>
      <trkpt lat="48.5123" lon="4.6154">
        <ele>134.72</ele>
        <time>2021-08-10T11:03:58Z</time>
      </trkpt>
      <trkpt lat="48.51238" lon="4.6148">
        <ele>134.72</ele>
        <time>2021-08-10T11:04:06Z</time>
      </trkpt>
      <trkpt lat="48.5125" lon="4.61423">
        <ele>136.16</ele>
        <time>2021-08-10T11:04:15Z</time>
      </trkpt>
      <trkpt lat="48.51269" lon="4.61356">
        <ele>136.64</ele>
        <time>2021-08-10T11:04:27Z</time>
      </trkpt>
      <trkpt lat="48.51286" lon="4.61299">
        <ele>137.61</ele>
        <time>2021-08-10T11:04:38Z</time>
      </trkpt>
      <trkpt lat="48.51302" lon="4.61254">
        <ele>138.57</ele>
        <time>2021-08-10T11:04:47Z</time>
      </trkpt>
      <trkpt lat="48.51322" lon="4.61231">
        <ele>139.53</ele>
        <time>2021-08-10T11:04:54Z</time>
      </trkpt>
      <trkpt lat="48.51324" lon="4.61227">
        <ele>139.53</ele>
        <time>2021-08-10T11:04:55Z</time>
      </trkpt>
      <trkpt lat="48.51325" lon="4.61222">
        <ele>139.53</ele>
        <time>2021-08-10T11:04:56Z</time>
      </trkpt>
      <trkpt lat="48.51324" lon="4.61217">
        <ele>139.53</ele>
        <time>2021-08-10T11:04:57Z</time>
      </trkpt>
      <trkpt lat="48.51323" lon="4.61213">
        <ele>139.53</ele>
        <time>2021-08-10T11:04:58Z</time>
      </trkpt>
      <trkpt lat="48.51322" lon="4.61211">
        <ele>139.53</ele>
        <time>2021-08-10T11:04:59Z</time>
      </trkpt>
      <trkpt lat="48.51318" lon="4.61209">
        <ele>139.53</ele>
        <time>2021-08-10T11:05:00Z</time>
      </trkpt>
      <trkpt lat="48.51315" lon="4.61207">
        <ele>139.53</ele>
        <time>2021-08-10T11:05:01Z</time>
      </trkpt>
      <trkpt lat="48.51297" lon="4.61192">
        <ele>139.53</ele>
        <time>2021-08-10T11:05:07Z</time>
      </trkpt>
      <trkpt lat="48.51278" lon="4.61167">
        <ele>140.01</ele>
        <time>2021-08-10T11:05:14Z</time>
      </trkpt>
      <trkpt lat="48.51259" lon="4.61141">
        <ele>140.49</ele>
        <time>2021-08-10T11:05:21Z</time>
      </trkpt>
      <trkpt lat="48.5123" lon="4.61103">
        <ele>140.97</ele>
        <time>2021-08-10T11:05:31Z</time>
      </trkpt>
      <trkpt lat="48.51194" lon="4.61064">
        <ele>140.97</ele>
        <time>2021-08-10T11:05:41Z</time>
      </trkpt>
      <trkpt lat="48.51182" lon="4.61051">
        <ele>139.53</ele>
        <time>2021-08-10T11:05:44Z</time>
      </trkpt>
      <trkpt lat="48.51143" lon="4.61004">
        <ele>136.64</ele>
        <time>2021-08-10T11:05:53Z</time>
      </trkpt>
      <trkpt lat="48.51097" lon="4.60963">
        <ele>134.72</ele>
        <time>2021-08-10T11:06:01Z</time>
      </trkpt>
      <trkpt lat="48.51046" lon="4.60924">
        <ele>132.32</ele>
        <time>2021-08-10T11:06:09Z</time>
      </trkpt>
      <trkpt lat="48.51" lon="4.60883">
        <ele>131.36</ele>
        <time>2021-08-10T11:06:17Z</time>
      </trkpt>
      <trkpt lat="48.50963" lon="4.60841">
        <ele>130.4</ele>
        <time>2021-08-10T11:06:24Z</time>
      </trkpt>
      <trkpt lat="48.50923" lon="4.60799">
        <ele>129.43</ele>
        <time>2021-08-10T11:06:32Z</time>
      </trkpt>
      <trkpt lat="48.50917" lon="4.60796">
        <ele>129.43</ele>
        <time>2021-08-10T11:06:33Z</time>
      </trkpt>
      <trkpt lat="48.50912" lon="4.60794">
        <ele>129.43</ele>
        <time>2021-08-10T11:06:34Z</time>
      </trkpt>
      <trkpt lat="48.50906" lon="4.60793">
        <ele>129.43</ele>
        <time>2021-08-10T11:06:35Z</time>
      </trkpt>
      <trkpt lat="48.50887" lon="4.60794">
        <ele>127.99</ele>
        <time>2021-08-10T11:06:38Z</time>
      </trkpt>
      <trkpt lat="48.50863" lon="4.60789">
        <ele>127.51</ele>
        <time>2021-08-10T11:06:42Z</time>
      </trkpt>
      <trkpt lat="48.50857" lon="4.60786">
        <ele>127.51</ele>
        <time>2021-08-10T11:06:43Z</time>
      </trkpt>
      <trkpt lat="48.50851" lon="4.60783">
        <ele>127.51</ele>
        <time>2021-08-10T11:06:44Z</time>
      </trkpt>
      <trkpt lat="48.50805" lon="4.60746">
        <ele>126.55</ele>
        <time>2021-08-10T11:06:53Z</time>
      </trkpt>
      <trkpt lat="48.50797" lon="4.60736">
        <ele>126.55</ele>
        <time>2021-08-10T11:06:55Z</time>
      </trkpt>
      <trkpt lat="48.50778" lon="4.60712">
        <ele>127.51</ele>
        <time>2021-08-10T11:07:00Z</time>
      </trkpt>
      <trkpt lat="48.50743" lon="4.60688">
        <ele>127.99</ele>
        <time>2021-08-10T11:07:08Z</time>
      </trkpt>
      <trkpt lat="48.507" lon="4.60675">
        <ele>127.99</ele>
        <time>2021-08-10T11:07:17Z</time>
      </trkpt>
      <trkpt lat="48.50674" lon="4.60677">
        <ele>126.55</ele>
        <time>2021-08-10T11:07:22Z</time>
      </trkpt>
      <trkpt lat="48.50629" lon="4.60684">
        <ele>126.07</ele>
        <time>2021-08-10T11:07:31Z</time>
      </trkpt>
      <trkpt lat="48.50588" lon="4.60687">
        <ele>126.07</ele>
        <time>2021-08-10T11:07:39Z</time>
      </trkpt>
      <trkpt lat="48.50549" lon="4.60689">
        <ele>126.07</ele>
        <time>2021-08-10T11:07:47Z</time>
      </trkpt>
      <trkpt lat="48.5054" lon="4.60689">
        <ele>126.07</ele>
        <time>2021-08-10T11:07:49Z</time>
      </trkpt>
      <trkpt lat="48.50535" lon="4.6069">
        <ele>126.07</ele>
        <time>2021-08-10T11:07:50Z</time>
      </trkpt>
      <trkpt lat="48.50531" lon="4.60689">
        <ele>126.07</ele>
        <time>2021-08-10T11:07:51Z</time>
      </trkpt>
      <trkpt lat="48.50528" lon="4.60686">
        <ele>126.07</ele>
        <time>2021-08-10T11:07:52Z</time>
      </trkpt>
      <trkpt lat="48.50526" lon="4.60682">
        <ele>126.07</ele>
        <time>2021-08-10T11:07:53Z</time>
      </trkpt>
      <trkpt lat="48.50525" lon="4.60678">
        <ele>126.07</ele>
        <time>2021-08-10T11:07:54Z</time>
      </trkpt>
      <trkpt lat="48.50525" lon="4.60673">
        <ele>126.07</ele>
        <time>2021-08-10T11:07:55Z</time>
      </trkpt>
      <trkpt lat="48.50525" lon="4.60668">
        <ele>126.07</ele>
        <time>2021-08-10T11:07:56Z</time>
      </trkpt>
      <trkpt lat="48.50525" lon="4.60662">
        <ele>126.07</ele>
        <time>2021-08-10T11:07:57Z</time>
      </trkpt>
      <trkpt lat="48.50524" lon="4.60656">
        <ele>126.07</ele>
        <time>2021-08-10T11:07:58Z</time>
      </trkpt>
      <trkpt lat="48.50524" lon="4.60632">
        <ele>127.51</ele>
        <time>2021-08-10T11:08:02Z</time>
      </trkpt>
      <trkpt lat="48.50522" lon="4.60582">
        <ele>127.99</ele>
        <time>2021-08-10T11:08:10Z</time>
      </trkpt>
      <trkpt lat="48.5052" lon="4.60577">
        <ele>127.99</ele>
        <time>2021-08-10T11:08:11Z</time>
      </trkpt>
      <trkpt lat="48.50517" lon="4.60572">
        <ele>127.99</ele>
        <time>2021-08-10T11:08:12Z</time>
      </trkpt>
      <trkpt lat="48.50513" lon="4.6057">
        <ele>127.51</ele>
        <time>2021-08-10T11:08:13Z</time>
      </trkpt>
      <trkpt lat="48.50509" lon="4.6057">
        <ele>127.99</ele>
        <time>2021-08-10T11:08:14Z</time>
      </trkpt>
      <trkpt lat="48.50505" lon="4.60571">
        <ele>127.99</ele>
        <time>2021-08-10T11:08:15Z</time>
      </trkpt>
      <trkpt lat="48.50501" lon="4.60572">
        <ele>127.99</ele>
        <time>2021-08-10T11:08:16Z</time>
      </trkpt>
      <trkpt lat="48.50465" lon="4.60572">
        <ele>128.47</ele>
        <time>2021-08-10T11:08:24Z</time>
      </trkpt>
      <trkpt lat="48.5046" lon="4.60572">
        <ele>128.47</ele>
        <time>2021-08-10T11:08:25Z</time>
      </trkpt>
      <trkpt lat="48.50419" lon="4.60574">
        <ele>127.03</ele>
        <time>2021-08-10T11:08:33Z</time>
      </trkpt>
      <trkpt lat="48.50384" lon="4.60571">
        <ele>126.55</ele>
        <time>2021-08-10T11:08:40Z</time>
      </trkpt>
      <trkpt lat="48.50374" lon="4.60568">
        <ele>126.07</ele>
        <time>2021-08-10T11:08:42Z</time>
      </trkpt>
      <trkpt lat="48.5037" lon="4.60565">
        <ele>126.07</ele>
        <time>2021-08-10T11:08:43Z</time>
      </trkpt>
      <trkpt lat="48.50366" lon="4.60561">
        <ele>126.07</ele>
        <time>2021-08-10T11:08:44Z</time>
      </trkpt>
      <trkpt lat="48.50347" lon="4.60538">
        <ele>126.07</ele>
        <time>2021-08-10T11:08:49Z</time>
      </trkpt>
      <trkpt lat="48.50343" lon="4.60533">
        <ele>126.07</ele>
        <time>2021-08-10T11:08:50Z</time>
      </trkpt>
      <trkpt lat="48.5034" lon="4.60529">
        <ele>126.07</ele>
        <time>2021-08-10T11:08:51Z</time>
      </trkpt>
      <trkpt lat="48.50336" lon="4.60524">
        <ele>126.07</ele>
        <time>2021-08-10T11:08:52Z</time>
      </trkpt>
      <trkpt lat="48.50333" lon="4.60519">
        <ele>126.07</ele>
        <time>2021-08-10T11:08:53Z</time>
      </trkpt>
      <trkpt lat="48.50291" lon="4.60478">
        <ele>126.07</ele>
        <time>2021-08-10T11:09:03Z</time>
      </trkpt>
      <trkpt lat="48.50252" lon="4.60441">
        <ele>125.59</ele>
        <time>2021-08-10T11:09:12Z</time>
      </trkpt>
      <trkpt lat="48.50248" lon="4.60437">
        <ele>125.59</ele>
        <time>2021-08-10T11:09:13Z</time>
      </trkpt>
      <trkpt lat="48.50244" lon="4.60433">
        <ele>125.59</ele>
        <time>2021-08-10T11:09:14Z</time>
      </trkpt>
      <trkpt lat="48.50202" lon="4.60388">
        <ele>125.59</ele>
        <time>2021-08-10T11:09:24Z</time>
      </trkpt>
      <trkpt lat="48.50166" lon="4.6036">
        <ele>125.59</ele>
        <time>2021-08-10T11:09:32Z</time>
      </trkpt>
      <trkpt lat="48.50162" lon="4.60358">
        <ele>125.59</ele>
        <time>2021-08-10T11:09:33Z</time>
      </trkpt>
      <trkpt lat="48.50124" lon="4.60346">
        <ele>125.59</ele>
        <time>2021-08-10T11:09:42Z</time>
      </trkpt>
      <trkpt lat="48.50108" lon="4.60345">
        <ele>127.03</ele>
        <time>2021-08-10T11:09:46Z</time>
      </trkpt>
      <trkpt lat="48.50076" lon="4.60356">
        <ele>127.51</ele>
        <time>2021-08-10T11:09:54Z</time>
      </trkpt>
      <trkpt lat="48.50072" lon="4.6036">
        <ele>127.51</ele>
        <time>2021-08-10T11:09:55Z</time>
      </trkpt>
      <trkpt lat="48.50068" lon="4.60364">
        <ele>127.51</ele>
        <time>2021-08-10T11:09:56Z</time>
      </trkpt>
      <trkpt lat="48.50048" lon="4.60394">
        <ele>127.51</ele>
        <time>2021-08-10T11:10:02Z</time>
      </trkpt>
      <trkpt lat="48.50045" lon="4.604">
        <ele>127.51</ele>
        <time>2021-08-10T11:10:03Z</time>
      </trkpt>
      <trkpt lat="48.50037" lon="4.6041">
        <ele>127.51</ele>
        <time>2021-08-10T11:10:05Z</time>
      </trkpt>
      <trkpt lat="48.50034" lon="4.60413">
        <ele>127.51</ele>
        <time>2021-08-10T11:10:06Z</time>
      </trkpt>
      <trkpt lat="48.50013" lon="4.60431">
        <ele>127.51</ele>
        <time>2021-08-10T11:10:11Z</time>
      </trkpt>
      <trkpt lat="48.49963" lon="4.60456">
        <ele>128.47</ele>
        <time>2021-08-10T11:10:23Z</time>
      </trkpt>
      <trkpt lat="48.49955" lon="4.60461">
        <ele>128.47</ele>
        <time>2021-08-10T11:10:25Z</time>
      </trkpt>
      <trkpt lat="48.49905" lon="4.60488">
        <ele>128.95</ele>
        <time>2021-08-10T11:10:37Z</time>
      </trkpt>
      <trkpt lat="48.49866" lon="4.60515">
        <ele>128.95</ele>
        <time>2021-08-10T11:10:46Z</time>
      </trkpt>
      <trkpt lat="48.49858" lon="4.60521">
        <ele>128.95</ele>
        <time>2021-08-10T11:10:48Z</time>
      </trkpt>
      <trkpt lat="48.49853" lon="4.60524">
        <ele>128.95</ele>
        <time>2021-08-10T11:10:49Z</time>
      </trkpt>
      <trkpt lat="48.49832" lon="4.60539">
        <ele>128.95</ele>
        <time>2021-08-10T11:10:54Z</time>
      </trkpt>
      <trkpt lat="48.49787" lon="4.60571">
        <ele>127.51</ele>
        <time>2021-08-10T11:11:04Z</time>
      </trkpt>
      <trkpt lat="48.49774" lon="4.60581">
        <ele>127.51</ele>
        <time>2021-08-10T11:11:07Z</time>
      </trkpt>
      <trkpt lat="48.49768" lon="4.60584">
        <ele>127.51</ele>
        <time>2021-08-10T11:11:08Z</time>
      </trkpt>
      <trkpt lat="48.49721" lon="4.60618">
        <ele>126.55</ele>
        <time>2021-08-10T11:11:18Z</time>
      </trkpt>
      <trkpt lat="48.49675" lon="4.60652">
        <ele>126.55</ele>
        <time>2021-08-10T11:11:28Z</time>
      </trkpt>
      <trkpt lat="48.49639" lon="4.60677">
        <ele>126.07</ele>
        <time>2021-08-10T11:11:36Z</time>
      </trkpt>
      <trkpt lat="48.49602" lon="4.60704">
        <ele>126.07</ele>
        <time>2021-08-10T11:11:45Z</time>
      </trkpt>
      <trkpt lat="48.49558" lon="4.60735">
        <ele>125.59</ele>
        <time>2021-08-10T11:11:55Z</time>
      </trkpt>
      <trkpt lat="48.49509" lon="4.60772">
        <ele>126.55</ele>
        <time>2021-08-10T11:12:07Z</time>
      </trkpt>
      <trkpt lat="48.49501" lon="4.60778">
        <ele>126.55</ele>
        <time>2021-08-10T11:12:09Z</time>
      </trkpt>
      <trkpt lat="48.49493" lon="4.60783">
        <ele>126.55</ele>
        <time>2021-08-10T11:12:11Z</time>
      </trkpt>
      <trkpt lat="48.49472" lon="4.608">
        <ele>126.55</ele>
        <time>2021-08-10T11:12:16Z</time>
      </trkpt>
      <trkpt lat="48.49422" lon="4.60836">
        <ele>125.11</ele>
        <time>2021-08-10T11:12:27Z</time>
      </trkpt>
      <trkpt lat="48.49412" lon="4.60843">
        <ele>125.11</ele>
        <time>2021-08-10T11:12:29Z</time>
      </trkpt>
      <trkpt lat="48.49407" lon="4.60847">
        <ele>125.11</ele>
        <time>2021-08-10T11:12:30Z</time>
      </trkpt>
      <trkpt lat="48.49349" lon="4.60887">
        <ele>123.67</ele>
        <time>2021-08-10T11:12:42Z</time>
      </trkpt>
      <trkpt lat="48.4932" lon="4.60907">
        <ele>123.67</ele>
        <time>2021-08-10T11:12:48Z</time>
      </trkpt>
      <trkpt lat="48.493" lon="4.6092">
        <ele>122.71</ele>
        <time>2021-08-10T11:12:52Z</time>
      </trkpt>
      <trkpt lat="48.49269" lon="4.60944">
        <ele>122.22</ele>
        <time>2021-08-10T11:12:58Z</time>
      </trkpt>
      <trkpt lat="48.49265" lon="4.60949">
        <ele>121.74</ele>
        <time>2021-08-10T11:12:59Z</time>
      </trkpt>
      <trkpt lat="48.49261" lon="4.60954">
        <ele>121.74</ele>
        <time>2021-08-10T11:13:00Z</time>
      </trkpt>
      <trkpt lat="48.49253" lon="4.60966">
        <ele>121.74</ele>
        <time>2021-08-10T11:13:02Z</time>
      </trkpt>
      <trkpt lat="48.49226" lon="4.61026">
        <ele>121.74</ele>
        <time>2021-08-10T11:13:11Z</time>
      </trkpt>
      <trkpt lat="48.49194" lon="4.61094">
        <ele>121.26</ele>
        <time>2021-08-10T11:13:21Z</time>
      </trkpt>
      <trkpt lat="48.49162" lon="4.6115">
        <ele>119.82</ele>
        <time>2021-08-10T11:13:30Z</time>
      </trkpt>
      <trkpt lat="48.49122" lon="4.61191">
        <ele>119.82</ele>
        <time>2021-08-10T11:13:39Z</time>
      </trkpt>
      <trkpt lat="48.49086" lon="4.61227">
        <ele>120.78</ele>
        <time>2021-08-10T11:13:48Z</time>
      </trkpt>
      <trkpt lat="48.49054" lon="4.61263">
        <ele>121.26</ele>
        <time>2021-08-10T11:13:57Z</time>
      </trkpt>
      <trkpt lat="48.49015" lon="4.61317">
        <ele>122.22</ele>
        <time>2021-08-10T11:14:09Z</time>
      </trkpt>
      <trkpt lat="48.4899" lon="4.6136">
        <ele>122.71</ele>
        <time>2021-08-10T11:14:17Z</time>
      </trkpt>
      <trkpt lat="48.48987" lon="4.61365">
        <ele>122.71</ele>
        <time>2021-08-10T11:14:18Z</time>
      </trkpt>
      <trkpt lat="48.48984" lon="4.61371">
        <ele>122.71</ele>
        <time>2021-08-10T11:14:19Z</time>
      </trkpt>
      <trkpt lat="48.48958" lon="4.61413">
        <ele>122.71</ele>
        <time>2021-08-10T11:14:27Z</time>
      </trkpt>
      <trkpt lat="48.4892" lon="4.61451">
        <ele>123.19</ele>
        <time>2021-08-10T11:14:37Z</time>
      </trkpt>
      <trkpt lat="48.48883" lon="4.61472">
        <ele>123.67</ele>
        <time>2021-08-10T11:14:46Z</time>
      </trkpt>
      <trkpt lat="48.48847" lon="4.61475">
        <ele>123.67</ele>
        <time>2021-08-10T11:14:54Z</time>
      </trkpt>
      <trkpt lat="48.48841" lon="4.61471">
        <ele>123.67</ele>
        <time>2021-08-10T11:14:55Z</time>
      </trkpt>
      <trkpt lat="48.48836" lon="4.61469">
        <ele>123.67</ele>
        <time>2021-08-10T11:14:56Z</time>
      </trkpt>
      <trkpt lat="48.48819" lon="4.61466">
        <ele>123.67</ele>
        <time>2021-08-10T11:15:00Z</time>
      </trkpt>
      <trkpt lat="48.48802" lon="4.61459">
        <ele>123.67</ele>
        <time>2021-08-10T11:15:04Z</time>
      </trkpt>
      <trkpt lat="48.48774" lon="4.61431">
        <ele>124.15</ele>
        <time>2021-08-10T11:15:13Z</time>
      </trkpt>
      <trkpt lat="48.4874" lon="4.61398">
        <ele>124.15</ele>
        <time>2021-08-10T11:15:23Z</time>
      </trkpt>
      <trkpt lat="48.48737" lon="4.61396">
        <ele>124.15</ele>
        <time>2021-08-10T11:15:24Z</time>
      </trkpt>
      <trkpt lat="48.48733" lon="4.61393">
        <ele>124.63</ele>
        <time>2021-08-10T11:15:25Z</time>
      </trkpt>
      <trkpt lat="48.48729" lon="4.6139">
        <ele>124.63</ele>
        <time>2021-08-10T11:15:26Z</time>
      </trkpt>
      <trkpt lat="48.48697" lon="4.61368">
        <ele>124.63</ele>
        <time>2021-08-10T11:15:35Z</time>
      </trkpt>
      <trkpt lat="48.48663" lon="4.61341">
        <ele>124.63</ele>
        <time>2021-08-10T11:15:44Z</time>
      </trkpt>
      <trkpt lat="48.48642" lon="4.61322">
        <ele>124.63</ele>
        <time>2021-08-10T11:15:49Z</time>
      </trkpt>
      <trkpt lat="48.48638" lon="4.61319">
        <ele>124.63</ele>
        <time>2021-08-10T11:15:50Z</time>
      </trkpt>
      <trkpt lat="48.48634" lon="4.61315">
        <ele>124.63</ele>
        <time>2021-08-10T11:15:51Z</time>
      </trkpt>
      <trkpt lat="48.48626" lon="4.61308">
        <ele>124.63</ele>
        <time>2021-08-10T11:15:53Z</time>
      </trkpt>
      <trkpt lat="48.48574" lon="4.61253">
        <ele>123.67</ele>
        <time>2021-08-10T11:16:06Z</time>
      </trkpt>
      <trkpt lat="48.48528" lon="4.61208">
        <ele>121.74</ele>
        <time>2021-08-10T11:16:16Z</time>
      </trkpt>
      <trkpt lat="48.48473" lon="4.61163">
        <ele>120.78</ele>
        <time>2021-08-10T11:16:27Z</time>
      </trkpt>
      <trkpt lat="48.48426" lon="4.61124">
        <ele>120.3</ele>
        <time>2021-08-10T11:16:36Z</time>
      </trkpt>
      <trkpt lat="48.48389" lon="4.61081">
        <ele>120.3</ele>
        <time>2021-08-10T11:16:45Z</time>
      </trkpt>
      <trkpt lat="48.48361" lon="4.61031">
        <ele>121.74</ele>
        <time>2021-08-10T11:16:54Z</time>
      </trkpt>
      <trkpt lat="48.48338" lon="4.6098">
        <ele>122.22</ele>
        <time>2021-08-10T11:17:03Z</time>
      </trkpt>
      <trkpt lat="48.48319" lon="4.60932">
        <ele>122.22</ele>
        <time>2021-08-10T11:17:11Z</time>
      </trkpt>
      <trkpt lat="48.48293" lon="4.60854">
        <ele>122.71</ele>
        <time>2021-08-10T11:17:23Z</time>
      </trkpt>
      <trkpt lat="48.48269" lon="4.60805">
        <ele>122.71</ele>
        <time>2021-08-10T11:17:31Z</time>
      </trkpt>
      <trkpt lat="48.48258" lon="4.60787">
        <ele>122.71</ele>
        <time>2021-08-10T11:17:34Z</time>
      </trkpt>
      <trkpt lat="48.48205" lon="4.60727">
        <ele>121.74</ele>
        <time>2021-08-10T11:17:46Z</time>
      </trkpt>
      <trkpt lat="48.48161" lon="4.60677">
        <ele>121.74</ele>
        <time>2021-08-10T11:17:56Z</time>
      </trkpt>
      <trkpt lat="48.4814" lon="4.60626">
        <ele>121.26</ele>
        <time>2021-08-10T11:18:03Z</time>
      </trkpt>
      <trkpt lat="48.48124" lon="4.60557">
        <ele>121.26</ele>
        <time>2021-08-10T11:18:12Z</time>
      </trkpt>
      <trkpt lat="48.48107" lon="4.60484">
        <ele>121.26</ele>
        <time>2021-08-10T11:18:22Z</time>
      </trkpt>
      <trkpt lat="48.48087" lon="4.60408">
        <ele>121.26</ele>
        <time>2021-08-10T11:18:33Z</time>
      </trkpt>
      <trkpt lat="48.48081" lon="4.6038">
        <ele>121.26</ele>
        <time>2021-08-10T11:18:37Z</time>
      </trkpt>
      <trkpt lat="48.48062" lon="4.60317">
        <ele>121.26</ele>
        <time>2021-08-10T11:18:46Z</time>
      </trkpt>
      <trkpt lat="48.48042" lon="4.60247">
        <ele>120.3</ele>
        <time>2021-08-10T11:18:55Z</time>
      </trkpt>
      <trkpt lat="48.48022" lon="4.60183">
        <ele>119.82</ele>
        <time>2021-08-10T11:19:03Z</time>
      </trkpt>
      <trkpt lat="48.48005" lon="4.60127">
        <ele>119.82</ele>
        <time>2021-08-10T11:19:11Z</time>
      </trkpt>
      <trkpt lat="48.4798" lon="4.60049">
        <ele>121.26</ele>
        <time>2021-08-10T11:19:23Z</time>
      </trkpt>
      <trkpt lat="48.47955" lon="4.59959">
        <ele>119.34</ele>
        <time>2021-08-10T11:19:34Z</time>
      </trkpt>
      <trkpt lat="48.47934" lon="4.59863">
        <ele>118.38</ele>
        <time>2021-08-10T11:19:45Z</time>
      </trkpt>
      <trkpt lat="48.47914" lon="4.5978">
        <ele>117.9</ele>
        <time>2021-08-10T11:19:55Z</time>
      </trkpt>
      <trkpt lat="48.47899" lon="4.59727">
        <ele>117.9</ele>
        <time>2021-08-10T11:20:02Z</time>
      </trkpt>
      <trkpt lat="48.47881" lon="4.59673">
        <ele>118.86</ele>
        <time>2021-08-10T11:20:10Z</time>
      </trkpt>
      <trkpt lat="48.47865" lon="4.5962">
        <ele>118.86</ele>
        <time>2021-08-10T11:20:17Z</time>
      </trkpt>
      <trkpt lat="48.47864" lon="4.59612">
        <ele>118.86</ele>
        <time>2021-08-10T11:20:18Z</time>
      </trkpt>
      <trkpt lat="48.47858" lon="4.59556">
        <ele>118.86</ele>
        <time>2021-08-10T11:20:25Z</time>
      </trkpt>
      <trkpt lat="48.47858" lon="4.59519">
        <ele>119.34</ele>
        <time>2021-08-10T11:20:30Z</time>
      </trkpt>
      <trkpt lat="48.47862" lon="4.59438">
        <ele>119.82</ele>
        <time>2021-08-10T11:20:41Z</time>
      </trkpt>
      <trkpt lat="48.47856" lon="4.59369">
        <ele>119.82</ele>
        <time>2021-08-10T11:20:50Z</time>
      </trkpt>
      <trkpt lat="48.47852" lon="4.59355">
        <ele>119.82</ele>
        <time>2021-08-10T11:20:52Z</time>
      </trkpt>
      <trkpt lat="48.47836" lon="4.59313">
        <ele>118.86</ele>
        <time>2021-08-10T11:20:58Z</time>
      </trkpt>
      <trkpt lat="48.47805" lon="4.59233">
        <ele>118.86</ele>
        <time>2021-08-10T11:21:09Z</time>
      </trkpt>
      <trkpt lat="48.47784" lon="4.59175">
        <ele>119.82</ele>
        <time>2021-08-10T11:21:18Z</time>
      </trkpt>
      <trkpt lat="48.47764" lon="4.59104">
        <ele>120.3</ele>
        <time>2021-08-10T11:21:29Z</time>
      </trkpt>
      <trkpt lat="48.47755" lon="4.59037">
        <ele>120.78</ele>
        <time>2021-08-10T11:21:39Z</time>
      </trkpt>
      <trkpt lat="48.4775" lon="4.59004">
        <ele>121.26</ele>
        <time>2021-08-10T11:21:44Z</time>
      </trkpt>
      <trkpt lat="48.47749" lon="4.58999">
        <ele>121.26</ele>
        <time>2021-08-10T11:21:45Z</time>
      </trkpt>
      <trkpt lat="48.47746" lon="4.58994">
        <ele>121.74</ele>
        <time>2021-08-10T11:21:46Z</time>
      </trkpt>
      <trkpt lat="48.47742" lon="4.58989">
        <ele>121.74</ele>
        <time>2021-08-10T11:21:47Z</time>
      </trkpt>
      <trkpt lat="48.47739" lon="4.58986">
        <ele>121.74</ele>
        <time>2021-08-10T11:21:48Z</time>
      </trkpt>
      <trkpt lat="48.47735" lon="4.58984">
        <ele>121.74</ele>
        <time>2021-08-10T11:21:49Z</time>
      </trkpt>
      <trkpt lat="48.4773" lon="4.58982">
        <ele>121.74</ele>
        <time>2021-08-10T11:21:50Z</time>
      </trkpt>
      <trkpt lat="48.47706" lon="4.58975">
        <ele>121.74</ele>
        <time>2021-08-10T11:21:55Z</time>
      </trkpt>
      <trkpt lat="48.47654" lon="4.58976">
        <ele>120.3</ele>
        <time>2021-08-10T11:22:05Z</time>
      </trkpt>
      <trkpt lat="48.47598" lon="4.58981">
        <ele>119.34</ele>
        <time>2021-08-10T11:22:15Z</time>
      </trkpt>
      <trkpt lat="48.47534" lon="4.58985">
        <ele>118.86</ele>
        <time>2021-08-10T11:22:26Z</time>
      </trkpt>
      <trkpt lat="48.47471" lon="4.58995">
        <ele>118.86</ele>
        <time>2021-08-10T11:22:36Z</time>
      </trkpt>
      <trkpt lat="48.47419" lon="4.59017">
        <ele>118.38</ele>
        <time>2021-08-10T11:22:45Z</time>
      </trkpt>
      <trkpt lat="48.47345" lon="4.5905">
        <ele>118.38</ele>
        <time>2021-08-10T11:22:58Z</time>
      </trkpt>
      <trkpt lat="48.47285" lon="4.59076">
        <ele>117.9</ele>
        <time>2021-08-10T11:23:09Z</time>
      </trkpt>
      <trkpt lat="48.47241" lon="4.59095">
        <ele>117.9</ele>
        <time>2021-08-10T11:23:17Z</time>
      </trkpt>
      <trkpt lat="48.472" lon="4.59114">
        <ele>117.9</ele>
        <time>2021-08-10T11:23:25Z</time>
      </trkpt>
      <trkpt lat="48.47153" lon="4.59134">
        <ele>117.9</ele>
        <time>2021-08-10T11:23:34Z</time>
      </trkpt>
      <trkpt lat="48.47096" lon="4.59156">
        <ele>117.9</ele>
        <time>2021-08-10T11:23:45Z</time>
      </trkpt>
      <trkpt lat="48.47048" lon="4.59159">
        <ele>117.9</ele>
        <time>2021-08-10T11:23:54Z</time>
      </trkpt>
      <trkpt lat="48.46982" lon="4.59156">
        <ele>117.9</ele>
        <time>2021-08-10T11:24:06Z</time>
      </trkpt>
      <trkpt lat="48.46921" lon="4.59156">
        <ele>117.9</ele>
        <time>2021-08-10T11:24:17Z</time>
      </trkpt>
      <trkpt lat="48.46852" lon="4.59152">
        <ele>117.9</ele>
        <time>2021-08-10T11:24:29Z</time>
      </trkpt>
      <trkpt lat="48.4681" lon="4.59136">
        <ele>117.9</ele>
        <time>2021-08-10T11:24:37Z</time>
      </trkpt>
      <trkpt lat="48.46771" lon="4.59113">
        <ele>117.9</ele>
        <time>2021-08-10T11:24:45Z</time>
      </trkpt>
      <trkpt lat="48.46721" lon="4.59083">
        <ele>117.42</ele>
        <time>2021-08-10T11:24:55Z</time>
      </trkpt>
      <trkpt lat="48.46676" lon="4.59057">
        <ele>117.42</ele>
        <time>2021-08-10T11:25:04Z</time>
      </trkpt>
      <trkpt lat="48.46615" lon="4.59022">
        <ele>117.42</ele>
        <time>2021-08-10T11:25:16Z</time>
      </trkpt>
      <trkpt lat="48.46569" lon="4.58996">
        <ele>117.42</ele>
        <time>2021-08-10T11:25:25Z</time>
      </trkpt>
      <trkpt lat="48.46535" lon="4.58978">
        <ele>117.42</ele>
        <time>2021-08-10T11:25:32Z</time>
      </trkpt>
      <trkpt lat="48.46524" lon="4.58972">
        <ele>117.42</ele>
        <time>2021-08-10T11:25:34Z</time>
      </trkpt>
      <trkpt lat="48.46501" lon="4.58965">
        <ele>117.42</ele>
        <time>2021-08-10T11:25:38Z</time>
      </trkpt>
      <trkpt lat="48.46496" lon="4.58963">
        <ele>117.42</ele>
        <time>2021-08-10T11:25:39Z</time>
      </trkpt>
      <trkpt lat="48.46492" lon="4.58962">
        <ele>117.42</ele>
        <time>2021-08-10T11:25:40Z</time>
      </trkpt>
      <trkpt lat="48.46474" lon="4.58961">
        <ele>117.42</ele>
        <time>2021-08-10T11:25:43Z</time>
      </trkpt>
      <trkpt lat="48.46432" lon="4.58966">
        <ele>117.42</ele>
        <time>2021-08-10T11:25:51Z</time>
      </trkpt>
      <trkpt lat="48.46426" lon="4.58969">
        <ele>117.42</ele>
        <time>2021-08-10T11:25:52Z</time>
      </trkpt>
      <trkpt lat="48.46422" lon="4.58972">
        <ele>117.42</ele>
        <time>2021-08-10T11:25:53Z</time>
      </trkpt>
      <trkpt lat="48.46381" lon="4.59004">
        <ele>117.42</ele>
        <time>2021-08-10T11:26:01Z</time>
      </trkpt>
      <trkpt lat="48.46371" lon="4.5901">
        <ele>117.42</ele>
        <time>2021-08-10T11:26:03Z</time>
      </trkpt>
      <trkpt lat="48.46366" lon="4.59012">
        <ele>117.42</ele>
        <time>2021-08-10T11:26:04Z</time>
      </trkpt>
      <trkpt lat="48.46315" lon="4.59019">
        <ele>117.42</ele>
        <time>2021-08-10T11:26:13Z</time>
      </trkpt>
      <trkpt lat="48.4625" lon="4.59029">
        <ele>117.42</ele>
        <time>2021-08-10T11:26:25Z</time>
      </trkpt>
      <trkpt lat="48.46171" lon="4.5904">
        <ele>117.42</ele>
        <time>2021-08-10T11:26:40Z</time>
      </trkpt>
      <trkpt lat="48.46127" lon="4.59044">
        <ele>117.42</ele>
        <time>2021-08-10T11:26:48Z</time>
      </trkpt>
      <trkpt lat="48.46078" lon="4.59037">
        <ele>117.42</ele>
        <time>2021-08-10T11:26:57Z</time>
      </trkpt>
      <trkpt lat="48.46068" lon="4.59032">
        <ele>117.42</ele>
        <time>2021-08-10T11:26:59Z</time>
      </trkpt>
      <trkpt lat="48.46033" lon="4.58997">
        <ele>117.42</ele>
        <time>2021-08-10T11:27:07Z</time>
      </trkpt>
      <trkpt lat="48.4602" lon="4.58984">
        <ele>117.42</ele>
        <time>2021-08-10T11:27:10Z</time>
      </trkpt>
      <trkpt lat="48.45996" lon="4.5897">
        <ele>118.86</ele>
        <time>2021-08-10T11:27:15Z</time>
      </trkpt>
      <trkpt lat="48.45946" lon="4.58962">
        <ele>119.34</ele>
        <time>2021-08-10T11:27:25Z</time>
      </trkpt>
      <trkpt lat="48.45906" lon="4.58957">
        <ele>120.3</ele>
        <time>2021-08-10T11:27:34Z</time>
      </trkpt>
      <trkpt lat="48.45884" lon="4.58948">
        <ele>120.78</ele>
        <time>2021-08-10T11:27:39Z</time>
      </trkpt>
      <trkpt lat="48.4588" lon="4.58945">
        <ele>120.78</ele>
        <time>2021-08-10T11:27:40Z</time>
      </trkpt>
      <trkpt lat="48.45876" lon="4.5894">
        <ele>120.78</ele>
        <time>2021-08-10T11:27:41Z</time>
      </trkpt>
      <trkpt lat="48.45871" lon="4.58935">
        <ele>120.78</ele>
        <time>2021-08-10T11:27:42Z</time>
      </trkpt>
      <trkpt lat="48.45868" lon="4.5893">
        <ele>120.78</ele>
        <time>2021-08-10T11:27:43Z</time>
      </trkpt>
      <trkpt lat="48.45845" lon="4.58903">
        <ele>120.78</ele>
        <time>2021-08-10T11:27:49Z</time>
      </trkpt>
      <trkpt lat="48.4584" lon="4.58901">
        <ele>120.78</ele>
        <time>2021-08-10T11:27:50Z</time>
      </trkpt>
      <trkpt lat="48.45836" lon="4.58899">
        <ele>120.78</ele>
        <time>2021-08-10T11:27:51Z</time>
      </trkpt>
      <trkpt lat="48.45831" lon="4.58898">
        <ele>120.78</ele>
        <time>2021-08-10T11:27:52Z</time>
      </trkpt>
      <trkpt lat="48.45827" lon="4.58898">
        <ele>120.78</ele>
        <time>2021-08-10T11:27:53Z</time>
      </trkpt>
      <trkpt lat="48.45822" lon="4.58898">
        <ele>120.78</ele>
        <time>2021-08-10T11:27:54Z</time>
      </trkpt>
      <trkpt lat="48.45818" lon="4.58899">
        <ele>121.26</ele>
        <time>2021-08-10T11:27:55Z</time>
      </trkpt>
      <trkpt lat="48.45782" lon="4.58918">
        <ele>121.74</ele>
        <time>2021-08-10T11:28:03Z</time>
      </trkpt>
      <trkpt lat="48.45765" lon="4.58929">
        <ele>121.74</ele>
        <time>2021-08-10T11:28:07Z</time>
      </trkpt>
      <trkpt lat="48.45757" lon="4.58935">
        <ele>121.74</ele>
        <time>2021-08-10T11:28:09Z</time>
      </trkpt>
      <trkpt lat="48.45704" lon="4.58972">
        <ele>122.22</ele>
        <time>2021-08-10T11:28:22Z</time>
      </trkpt>
      <trkpt lat="48.45665" lon="4.59004">
        <ele>122.71</ele>
        <time>2021-08-10T11:28:32Z</time>
      </trkpt>
      <trkpt lat="48.4564" lon="4.59023">
        <ele>122.71</ele>
        <time>2021-08-10T11:28:39Z</time>
      </trkpt>
      <trkpt lat="48.45637" lon="4.59021">
        <ele>122.71</ele>
        <time>2021-08-10T11:28:40Z</time>
      </trkpt>
      <trkpt lat="48.45635" lon="4.59017">
        <ele>123.19</ele>
        <time>2021-08-10T11:28:41Z</time>
      </trkpt>
      <trkpt lat="48.45623" lon="4.58983">
        <ele>123.67</ele>
        <time>2021-08-10T11:28:48Z</time>
      </trkpt>
      <trkpt lat="48.45606" lon="4.5894">
        <ele>124.15</ele>
        <time>2021-08-10T11:28:57Z</time>
      </trkpt>
      <trkpt lat="48.45603" lon="4.58937">
        <ele>124.15</ele>
        <time>2021-08-10T11:28:58Z</time>
      </trkpt>
      <trkpt lat="48.456" lon="4.58935">
        <ele>124.63</ele>
        <time>2021-08-10T11:28:59Z</time>
      </trkpt>
      <trkpt lat="48.45597" lon="4.58936">
        <ele>124.63</ele>
        <time>2021-08-10T11:29:00Z</time>
      </trkpt>
      <trkpt lat="48.45594" lon="4.58936">
        <ele>124.63</ele>
        <time>2021-08-10T11:29:01Z</time>
      </trkpt>
      <trkpt lat="48.45591" lon="4.58937">
        <ele>124.63</ele>
        <time>2021-08-10T11:29:02Z</time>
      </trkpt>
      <trkpt lat="48.45564" lon="4.58946">
        <ele>124.63</ele>
        <time>2021-08-10T11:29:09Z</time>
      </trkpt>
      <trkpt lat="48.45539" lon="4.58959">
        <ele>126.07</ele>
        <time>2021-08-10T11:29:17Z</time>
      </trkpt>
      <trkpt lat="48.45536" lon="4.58957">
        <ele>126.07</ele>
        <time>2021-08-10T11:29:18Z</time>
      </trkpt>
      <trkpt lat="48.45535" lon="4.58953">
        <ele>126.07</ele>
        <time>2021-08-10T11:29:19Z</time>
      </trkpt>
      <trkpt lat="48.45533" lon="4.58949">
        <ele>126.07</ele>
        <time>2021-08-10T11:29:20Z</time>
      </trkpt>
      <trkpt lat="48.45532" lon="4.58944">
        <ele>126.07</ele>
        <time>2021-08-10T11:29:21Z</time>
      </trkpt>
      <trkpt lat="48.45519" lon="4.58895">
        <ele>126.07</ele>
        <time>2021-08-10T11:29:30Z</time>
      </trkpt>
      <trkpt lat="48.45506" lon="4.58834">
        <ele>125.59</ele>
        <time>2021-08-10T11:29:40Z</time>
      </trkpt>
      <trkpt lat="48.45493" lon="4.58775">
        <ele>126.07</ele>
        <time>2021-08-10T11:29:49Z</time>
      </trkpt>
      <trkpt lat="48.45487" lon="4.58757">
        <ele>126.07</ele>
        <time>2021-08-10T11:29:52Z</time>
      </trkpt>
      <trkpt lat="48.45484" lon="4.58752">
        <ele>126.07</ele>
        <time>2021-08-10T11:29:53Z</time>
      </trkpt>
      <trkpt lat="48.45481" lon="4.58746">
        <ele>126.07</ele>
        <time>2021-08-10T11:29:54Z</time>
      </trkpt>
      <trkpt lat="48.45477" lon="4.58741">
        <ele>126.07</ele>
        <time>2021-08-10T11:29:55Z</time>
      </trkpt>
      <trkpt lat="48.45474" lon="4.58737">
        <ele>126.07</ele>
        <time>2021-08-10T11:29:56Z</time>
      </trkpt>
      <trkpt lat="48.45458" lon="4.58718">
        <ele>126.07</ele>
        <time>2021-08-10T11:30:00Z</time>
      </trkpt>
      <trkpt lat="48.45412" lon="4.58673">
        <ele>126.07</ele>
        <time>2021-08-10T11:30:11Z</time>
      </trkpt>
      <trkpt lat="48.45358" lon="4.58621">
        <ele>126.07</ele>
        <time>2021-08-10T11:30:24Z</time>
      </trkpt>
      <trkpt lat="48.45305" lon="4.58567">
        <ele>126.07</ele>
        <time>2021-08-10T11:30:37Z</time>
      </trkpt>
      <trkpt lat="48.45263" lon="4.58526">
        <ele>126.07</ele>
        <time>2021-08-10T11:30:47Z</time>
      </trkpt>
      <trkpt lat="48.45226" lon="4.58489">
        <ele>125.59</ele>
        <time>2021-08-10T11:30:56Z</time>
      </trkpt>
      <trkpt lat="48.45181" lon="4.58445">
        <ele>125.59</ele>
        <time>2021-08-10T11:31:07Z</time>
      </trkpt>
      <trkpt lat="48.45134" lon="4.58398">
        <ele>125.59</ele>
        <time>2021-08-10T11:31:19Z</time>
      </trkpt>
      <trkpt lat="48.45095" lon="4.5836">
        <ele>125.59</ele>
        <time>2021-08-10T11:31:29Z</time>
      </trkpt>
      <trkpt lat="48.45059" lon="4.58324">
        <ele>125.59</ele>
        <time>2021-08-10T11:31:38Z</time>
      </trkpt>
      <trkpt lat="48.45014" lon="4.58279">
        <ele>125.59</ele>
        <time>2021-08-10T11:31:49Z</time>
      </trkpt>
      <trkpt lat="48.44964" lon="4.58231">
        <ele>125.59</ele>
        <time>2021-08-10T11:32:00Z</time>
      </trkpt>
      <trkpt lat="48.44922" lon="4.58189">
        <ele>125.59</ele>
        <time>2021-08-10T11:32:09Z</time>
      </trkpt>
      <trkpt lat="48.44901" lon="4.58173">
        <ele>124.63</ele>
        <time>2021-08-10T11:32:13Z</time>
      </trkpt>
      <trkpt lat="48.44884" lon="4.58165">
        <ele>124.63</ele>
        <time>2021-08-10T11:32:16Z</time>
      </trkpt>
      <trkpt lat="48.44873" lon="4.58162">
        <ele>124.63</ele>
        <time>2021-08-10T11:32:18Z</time>
      </trkpt>
      <trkpt lat="48.44867" lon="4.58162">
        <ele>124.63</ele>
        <time>2021-08-10T11:32:19Z</time>
      </trkpt>
      <trkpt lat="48.44861" lon="4.58162">
        <ele>124.15</ele>
        <time>2021-08-10T11:32:20Z</time>
      </trkpt>
      <trkpt lat="48.44855" lon="4.58163">
        <ele>124.15</ele>
        <time>2021-08-10T11:32:21Z</time>
      </trkpt>
      <trkpt lat="48.44849" lon="4.58164">
        <ele>124.15</ele>
        <time>2021-08-10T11:32:22Z</time>
      </trkpt>
      <trkpt lat="48.44844" lon="4.58164">
        <ele>124.15</ele>
        <time>2021-08-10T11:32:23Z</time>
      </trkpt>
      <trkpt lat="48.44789" lon="4.58181">
        <ele>124.15</ele>
        <time>2021-08-10T11:32:33Z</time>
      </trkpt>
      <trkpt lat="48.44758" lon="4.58191">
        <ele>124.15</ele>
        <time>2021-08-10T11:32:39Z</time>
      </trkpt>
      <trkpt lat="48.44741" lon="4.58194">
        <ele>124.15</ele>
        <time>2021-08-10T11:32:42Z</time>
      </trkpt>
      <trkpt lat="48.44735" lon="4.58193">
        <ele>123.19</ele>
        <time>2021-08-10T11:32:43Z</time>
      </trkpt>
      <trkpt lat="48.4473" lon="4.58189">
        <ele>123.19</ele>
        <time>2021-08-10T11:32:44Z</time>
      </trkpt>
      <trkpt lat="48.44725" lon="4.58183">
        <ele>123.19</ele>
        <time>2021-08-10T11:32:45Z</time>
      </trkpt>
      <trkpt lat="48.44722" lon="4.58174">
        <ele>122.71</ele>
        <time>2021-08-10T11:32:46Z</time>
      </trkpt>
      <trkpt lat="48.4472" lon="4.58166">
        <ele>122.71</ele>
        <time>2021-08-10T11:32:47Z</time>
      </trkpt>
      <trkpt lat="48.44718" lon="4.58157">
        <ele>122.71</ele>
        <time>2021-08-10T11:32:48Z</time>
      </trkpt>
      <trkpt lat="48.44699" lon="4.58078">
        <ele>122.22</ele>
        <time>2021-08-10T11:32:58Z</time>
      </trkpt>
      <trkpt lat="48.44686" lon="4.58026">
        <ele>121.74</ele>
        <time>2021-08-10T11:33:05Z</time>
      </trkpt>
      <trkpt lat="48.44682" lon="4.58021">
        <ele>121.74</ele>
        <time>2021-08-10T11:33:06Z</time>
      </trkpt>
      <trkpt lat="48.44678" lon="4.58017">
        <ele>121.74</ele>
        <time>2021-08-10T11:33:07Z</time>
      </trkpt>
      <trkpt lat="48.44672" lon="4.58016">
        <ele>121.74</ele>
        <time>2021-08-10T11:33:08Z</time>
      </trkpt>
      <trkpt lat="48.44667" lon="4.58017">
        <ele>121.74</ele>
        <time>2021-08-10T11:33:09Z</time>
      </trkpt>
      <trkpt lat="48.44661" lon="4.58021">
        <ele>121.74</ele>
        <time>2021-08-10T11:33:10Z</time>
      </trkpt>
      <trkpt lat="48.44657" lon="4.58025">
        <ele>121.74</ele>
        <time>2021-08-10T11:33:11Z</time>
      </trkpt>
      <trkpt lat="48.44652" lon="4.58029">
        <ele>121.74</ele>
        <time>2021-08-10T11:33:12Z</time>
      </trkpt>
      <trkpt lat="48.44625" lon="4.58066">
        <ele>121.26</ele>
        <time>2021-08-10T11:33:19Z</time>
      </trkpt>
      <trkpt lat="48.44581" lon="4.58138">
        <ele>121.26</ele>
        <time>2021-08-10T11:33:31Z</time>
      </trkpt>
      <trkpt lat="48.44547" lon="4.58184">
        <ele>121.26</ele>
        <time>2021-08-10T11:33:40Z</time>
      </trkpt>
      <trkpt lat="48.44507" lon="4.5823">
        <ele>122.71</ele>
        <time>2021-08-10T11:33:51Z</time>
      </trkpt>
      <trkpt lat="48.44467" lon="4.58265">
        <ele>123.67</ele>
        <time>2021-08-10T11:34:02Z</time>
      </trkpt>
      <trkpt lat="48.44457" lon="4.58277">
        <ele>124.15</ele>
        <time>2021-08-10T11:34:07Z</time>
      </trkpt>
      <trkpt lat="48.44456" lon="4.58277">
        <ele>124.15</ele>
        <time>2021-08-10T11:34:13Z</time>
      </trkpt>
      <trkpt lat="48.44456" lon="4.5828">
        <ele>124.15</ele>
        <time>2021-08-10T11:34:15Z</time>
      </trkpt>
      <trkpt lat="48.44457" lon="4.58282">
        <ele>124.15</ele>
        <time>2021-08-10T11:34:16Z</time>
      </trkpt>
      <trkpt lat="48.44458" lon="4.58284">
        <ele>124.15</ele>
        <time>2021-08-10T11:34:19Z</time>
      </trkpt>
      <trkpt lat="48.4446" lon="4.58283">
        <ele>124.15</ele>
        <time>2021-08-10T11:34:21Z</time>
      </trkpt>
      <trkpt lat="48.44463" lon="4.58281">
        <ele>124.15</ele>
        <time>2021-08-10T11:34:30Z</time>
      </trkpt>
      <trkpt lat="48.44464" lon="4.58281">
        <ele>124.15</ele>
        <time>2021-08-10T11:34:50Z</time>
      </trkpt>
      <trkpt lat="48.44465" lon="4.5828">
        <ele>124.63</ele>
        <time>2021-08-10T11:34:57Z</time>
      </trkpt>
      <trkpt lat="48.44464" lon="4.58281">
        <ele>124.63</ele>
        <time>2021-08-10T11:35:26Z</time>
      </trkpt>
      <trkpt lat="48.44463" lon="4.58281">
        <ele>124.63</ele>
        <time>2021-08-10T11:35:50Z</time>
      </trkpt>
      <trkpt lat="48.44462" lon="4.58281">
        <ele>124.63</ele>
        <time>2021-08-10T11:36:06Z</time>
      </trkpt>
      <trkpt lat="48.44462" lon="4.58281">
        <ele>124.63</ele>
        <time>2021-08-10T11:36:25Z</time>
      </trkpt>
      <trkpt lat="48.44462" lon="4.58281">
        <ele>124.63</ele>
        <time>2021-08-10T11:36:42Z</time>
      </trkpt>
      <trkpt lat="48.44463" lon="4.58281">
        <ele>124.63</ele>
        <time>2021-08-10T11:36:58Z</time>
      </trkpt>
      <trkpt lat="48.44463" lon="4.58281">
        <ele>124.63</ele>
        <time>2021-08-10T11:37:13Z</time>
      </trkpt>
      <trkpt lat="48.44464" lon="4.58283">
        <ele>124.15</ele>
        <time>2021-08-10T11:37:30Z</time>
      </trkpt>
      <trkpt lat="48.44464" lon="4.58284">
        <ele>124.15</ele>
        <time>2021-08-10T11:37:45Z</time>
      </trkpt>
      <trkpt lat="48.44463" lon="4.58283">
        <ele>124.15</ele>
        <time>2021-08-10T11:37:59Z</time>
      </trkpt>
      <trkpt lat="48.44463" lon="4.58283">
        <ele>124.15</ele>
        <time>2021-08-10T11:38:12Z</time>
      </trkpt>
      <trkpt lat="48.44463" lon="4.58283">
        <ele>124.63</ele>
        <time>2021-08-10T11:38:24Z</time>
      </trkpt>
      <trkpt lat="48.44463" lon="4.58283">
        <ele>124.63</ele>
        <time>2021-08-10T11:38:37Z</time>
      </trkpt>
      <trkpt lat="48.44463" lon="4.58283">
        <ele>124.63</ele>
        <time>2021-08-10T11:38:50Z</time>
      </trkpt>
      <trkpt lat="48.44463" lon="4.58282">
        <ele>124.63</ele>
        <time>2021-08-10T11:39:06Z</time>
      </trkpt>
      <trkpt lat="48.44463" lon="4.58282">
        <ele>123.19</ele>
        <time>2021-08-10T11:39:20Z</time>
      </trkpt>
      <trkpt lat="48.44463" lon="4.58282">
        <ele>123.19</ele>
        <time>2021-08-10T11:39:37Z</time>
      </trkpt>
      <trkpt lat="48.44462" lon="4.58284">
        <ele>123.19</ele>
        <time>2021-08-10T11:39:49Z</time>
      </trkpt>
      <trkpt lat="48.44464" lon="4.58285">
        <ele>123.19</ele>
        <time>2021-08-10T11:39:53Z</time>
      </trkpt>
      <trkpt lat="48.44464" lon="4.58284">
        <ele>123.19</ele>
        <time>2021-08-10T11:39:59Z</time>
      </trkpt>
      <trkpt lat="48.44463" lon="4.58283">
        <ele>123.19</ele>
        <time>2021-08-10T11:40:18Z</time>
      </trkpt>
      <trkpt lat="48.44464" lon="4.58283">
        <ele>123.19</ele>
        <time>2021-08-10T11:40:35Z</time>
      </trkpt>
      <trkpt lat="48.44463" lon="4.58282">
        <ele>123.19</ele>
        <time>2021-08-10T11:40:46Z</time>
      </trkpt>
      <trkpt lat="48.44463" lon="4.58282">
        <ele>123.19</ele>
        <time>2021-08-10T11:41:01Z</time>
      </trkpt>
      <trkpt lat="48.44463" lon="4.58282">
        <ele>123.19</ele>
        <time>2021-08-10T11:41:17Z</time>
      </trkpt>
      <trkpt lat="48.44463" lon="4.58281">
        <ele>123.19</ele>
        <time>2021-08-10T11:41:34Z</time>
      </trkpt>
      <trkpt lat="48.44462" lon="4.58279">
        <ele>123.19</ele>
        <time>2021-08-10T11:41:52Z</time>
      </trkpt>
      <trkpt lat="48.44464" lon="4.5828">
        <ele>123.19</ele>
        <time>2021-08-10T11:42:12Z</time>
      </trkpt>
      <trkpt lat="48.44464" lon="4.58281">
        <ele>123.19</ele>
        <time>2021-08-10T11:42:27Z</time>
      </trkpt>
      <trkpt lat="48.44464" lon="4.58282">
        <ele>123.19</ele>
        <time>2021-08-10T11:42:49Z</time>
      </trkpt>
      <trkpt lat="48.44465" lon="4.58282">
        <ele>123.19</ele>
        <time>2021-08-10T11:43:03Z</time>
      </trkpt>
      <trkpt lat="48.44466" lon="4.58281">
        <ele>123.19</ele>
        <time>2021-08-10T11:43:19Z</time>
      </trkpt>
      <trkpt lat="48.44466" lon="4.5828">
        <ele>123.19</ele>
        <time>2021-08-10T11:43:36Z</time>
      </trkpt>
      <trkpt lat="48.44466" lon="4.58281">
        <ele>123.19</ele>
        <time>2021-08-10T11:43:55Z</time>
      </trkpt>
      <trkpt lat="48.44466" lon="4.58281">
        <ele>123.19</ele>
        <time>2021-08-10T11:44:08Z</time>
      </trkpt>
      <trkpt lat="48.44465" lon="4.58281">
        <ele>123.19</ele>
        <time>2021-08-10T11:44:23Z</time>
      </trkpt>
      <trkpt lat="48.44463" lon="4.5828">
        <ele>122.71</ele>
        <time>2021-08-10T11:44:44Z</time>
      </trkpt>
      <trkpt lat="48.44463" lon="4.5828">
        <ele>122.71</ele>
        <time>2021-08-10T11:44:56Z</time>
      </trkpt>
      <trkpt lat="48.44463" lon="4.58279">
        <ele>122.71</ele>
        <time>2021-08-10T11:45:09Z</time>
      </trkpt>
      <trkpt lat="48.44463" lon="4.58279">
        <ele>122.22</ele>
        <time>2021-08-10T11:45:21Z</time>
      </trkpt>
      <trkpt lat="48.44463" lon="4.58278">
        <ele>122.22</ele>
        <time>2021-08-10T11:45:40Z</time>
      </trkpt>
      <trkpt lat="48.44462" lon="4.5828">
        <ele>122.22</ele>
        <time>2021-08-10T11:46:10Z</time>
      </trkpt>
      <trkpt lat="48.44461" lon="4.58281">
        <ele>122.22</ele>
        <time>2021-08-10T11:46:36Z</time>
      </trkpt>
      <trkpt lat="48.4446" lon="4.58283">
        <ele>122.22</ele>
        <time>2021-08-10T11:47:05Z</time>
      </trkpt>
      <trkpt lat="48.44463" lon="4.58283">
        <ele>122.22</ele>
        <time>2021-08-10T11:47:20Z</time>
      </trkpt>
      <trkpt lat="48.44464" lon="4.58283">
        <ele>122.22</ele>
        <time>2021-08-10T11:47:34Z</time>
      </trkpt>
      <trkpt lat="48.44464" lon="4.58282">
        <ele>121.74</ele>
        <time>2021-08-10T11:48:01Z</time>
      </trkpt>
      <trkpt lat="48.44464" lon="4.58281">
        <ele>121.74</ele>
        <time>2021-08-10T11:48:22Z</time>
      </trkpt>
      <trkpt lat="48.44464" lon="4.58281">
        <ele>123.19</ele>
        <time>2021-08-10T11:48:27Z</time>
      </trkpt>
      <trkpt lat="48.44465" lon="4.58281">
        <ele>123.19</ele>
        <time>2021-08-10T11:48:48Z</time>
      </trkpt>
      <trkpt lat="48.44464" lon="4.5828">
        <ele>123.19</ele>
        <time>2021-08-10T11:49:18Z</time>
      </trkpt>
      <trkpt lat="48.44463" lon="4.58281">
        <ele>123.19</ele>
        <time>2021-08-10T11:49:45Z</time>
      </trkpt>
      <trkpt lat="48.44463" lon="4.58279">
        <ele>123.19</ele>
        <time>2021-08-10T11:49:51Z</time>
      </trkpt>
      <trkpt lat="48.44463" lon="4.5828">
        <ele>123.19</ele>
        <time>2021-08-10T11:50:01Z</time>
      </trkpt>
      <trkpt lat="48.44463" lon="4.58282">
        <ele>123.19</ele>
        <time>2021-08-10T11:50:22Z</time>
      </trkpt>
      <trkpt lat="48.44463" lon="4.58282">
        <ele>123.67</ele>
        <time>2021-08-10T11:50:38Z</time>
      </trkpt>
      <trkpt lat="48.44464" lon="4.58283">
        <ele>123.67</ele>
        <time>2021-08-10T11:50:55Z</time>
      </trkpt>
      <trkpt lat="48.44465" lon="4.58283">
        <ele>123.67</ele>
        <time>2021-08-10T11:51:04Z</time>
      </trkpt>
      <trkpt lat="48.44465" lon="4.58281">
        <ele>123.67</ele>
        <time>2021-08-10T11:51:15Z</time>
      </trkpt>
      <trkpt lat="48.44464" lon="4.58278">
        <ele>123.67</ele>
        <time>2021-08-10T11:51:26Z</time>
      </trkpt>
      <trkpt lat="48.44464" lon="4.58276">
        <ele>123.67</ele>
        <time>2021-08-10T11:51:33Z</time>
      </trkpt>
      <trkpt lat="48.44464" lon="4.58276">
        <ele>123.67</ele>
        <time>2021-08-10T11:51:38Z</time>
      </trkpt>
      <trkpt lat="48.44463" lon="4.58274">
        <ele>123.67</ele>
        <time>2021-08-10T11:51:39Z</time>
      </trkpt>
      <trkpt lat="48.44461" lon="4.58276">
        <ele>123.67</ele>
        <time>2021-08-10T11:51:45Z</time>
      </trkpt>
      <trkpt lat="48.44461" lon="4.58275">
        <ele>123.67</ele>
        <time>2021-08-10T11:52:02Z</time>
      </trkpt>
      <trkpt lat="48.44462" lon="4.58277">
        <ele>123.67</ele>
        <time>2021-08-10T11:52:06Z</time>
      </trkpt>
      <trkpt lat="48.44463" lon="4.58278">
        <ele>123.67</ele>
        <time>2021-08-10T11:52:07Z</time>
      </trkpt>
      <trkpt lat="48.44462" lon="4.58283">
        <ele>123.67</ele>
        <time>2021-08-10T11:52:11Z</time>
      </trkpt>
      <trkpt lat="48.44457" lon="4.58286">
        <ele>123.19</ele>
        <time>2021-08-10T11:52:19Z</time>
      </trkpt>
      <trkpt lat="48.44454" lon="4.5829">
        <ele>123.19</ele>
        <time>2021-08-10T11:52:26Z</time>
      </trkpt>
      <trkpt lat="48.44455" lon="4.5829">
        <ele>123.19</ele>
        <time>2021-08-10T11:52:37Z</time>
      </trkpt>
      <trkpt lat="48.44455" lon="4.58288">
        <ele>123.19</ele>
        <time>2021-08-10T11:52:45Z</time>
      </trkpt>
      <trkpt lat="48.44455" lon="4.58287">
        <ele>123.19</ele>
        <time>2021-08-10T11:53:03Z</time>
      </trkpt>
      <trkpt lat="48.44454" lon="4.58286">
        <ele>123.19</ele>
        <time>2021-08-10T11:53:04Z</time>
      </trkpt>
      <trkpt lat="48.44457" lon="4.58284">
        <ele>123.19</ele>
        <time>2021-08-10T11:53:09Z</time>
      </trkpt>
      <trkpt lat="48.44458" lon="4.58283">
        <ele>123.19</ele>
        <time>2021-08-10T11:53:11Z</time>
      </trkpt>
      <trkpt lat="48.44459" lon="4.58283">
        <ele>123.19</ele>
        <time>2021-08-10T11:53:12Z</time>
      </trkpt>
      <trkpt lat="48.4446" lon="4.58283">
        <ele>123.19</ele>
        <time>2021-08-10T11:53:13Z</time>
      </trkpt>
      <trkpt lat="48.44461" lon="4.58283">
        <ele>123.19</ele>
        <time>2021-08-10T11:53:14Z</time>
      </trkpt>
      <trkpt lat="48.44462" lon="4.58281">
        <ele>123.19</ele>
        <time>2021-08-10T11:53:15Z</time>
      </trkpt>
      <trkpt lat="48.44463" lon="4.58279">
        <ele>123.19</ele>
        <time>2021-08-10T11:53:16Z</time>
      </trkpt>
      <trkpt lat="48.44459" lon="4.58272">
        <ele>123.19</ele>
        <time>2021-08-10T11:53:19Z</time>
      </trkpt>
      <trkpt lat="48.44456" lon="4.58272">
        <ele>123.19</ele>
        <time>2021-08-10T11:53:20Z</time>
      </trkpt>
      <trkpt lat="48.44453" lon="4.58273">
        <ele>123.19</ele>
        <time>2021-08-10T11:53:21Z</time>
      </trkpt>
      <trkpt lat="48.44449" lon="4.58275">
        <ele>123.19</ele>
        <time>2021-08-10T11:53:22Z</time>
      </trkpt>
      <trkpt lat="48.44445" lon="4.58277">
        <ele>123.19</ele>
        <time>2021-08-10T11:53:23Z</time>
      </trkpt>
      <trkpt lat="48.44441" lon="4.5828">
        <ele>123.19</ele>
        <time>2021-08-10T11:53:24Z</time>
      </trkpt>
      <trkpt lat="48.44412" lon="4.58303">
        <ele>122.22</ele>
        <time>2021-08-10T11:53:31Z</time>
      </trkpt>
      <trkpt lat="48.4437" lon="4.58336">
        <ele>121.26</ele>
        <time>2021-08-10T11:53:40Z</time>
      </trkpt>
      <trkpt lat="48.44323" lon="4.58378">
        <ele>122.71</ele>
        <time>2021-08-10T11:53:51Z</time>
      </trkpt>
      <trkpt lat="48.44296" lon="4.58405">
        <ele>123.67</ele>
        <time>2021-08-10T11:53:58Z</time>
      </trkpt>
      <trkpt lat="48.44249" lon="4.5845">
        <ele>123.67</ele>
        <time>2021-08-10T11:54:09Z</time>
      </trkpt>
      <trkpt lat="48.44205" lon="4.58493">
        <ele>123.67</ele>
        <time>2021-08-10T11:54:19Z</time>
      </trkpt>
      <trkpt lat="48.44157" lon="4.58534">
        <ele>123.67</ele>
        <time>2021-08-10T11:54:29Z</time>
      </trkpt>
      <trkpt lat="48.44115" lon="4.58566">
        <ele>123.67</ele>
        <time>2021-08-10T11:54:37Z</time>
      </trkpt>
      <trkpt lat="48.44066" lon="4.58604">
        <ele>123.67</ele>
        <time>2021-08-10T11:54:46Z</time>
      </trkpt>
      <trkpt lat="48.4406" lon="4.58608">
        <ele>123.67</ele>
        <time>2021-08-10T11:54:47Z</time>
      </trkpt>
      <trkpt lat="48.44025" lon="4.58627">
        <ele>123.67</ele>
        <time>2021-08-10T11:54:53Z</time>
      </trkpt>
      <trkpt lat="48.43966" lon="4.5866">
        <ele>124.15</ele>
        <time>2021-08-10T11:55:04Z</time>
      </trkpt>
      <trkpt lat="48.43917" lon="4.58681">
        <ele>124.63</ele>
        <time>2021-08-10T11:55:13Z</time>
      </trkpt>
      <trkpt lat="48.43872" lon="4.58697">
        <ele>124.63</ele>
        <time>2021-08-10T11:55:21Z</time>
      </trkpt>
      <trkpt lat="48.43826" lon="4.58712">
        <ele>125.11</ele>
        <time>2021-08-10T11:55:29Z</time>
      </trkpt>
      <trkpt lat="48.43821" lon="4.58713">
        <ele>125.11</ele>
        <time>2021-08-10T11:55:30Z</time>
      </trkpt>
      <trkpt lat="48.43815" lon="4.58713">
        <ele>125.11</ele>
        <time>2021-08-10T11:55:31Z</time>
      </trkpt>
      <trkpt lat="48.43808" lon="4.58712">
        <ele>125.11</ele>
        <time>2021-08-10T11:55:32Z</time>
      </trkpt>
      <trkpt lat="48.43803" lon="4.5871">
        <ele>125.11</ele>
        <time>2021-08-10T11:55:33Z</time>
      </trkpt>
      <trkpt lat="48.43758" lon="4.58694">
        <ele>125.11</ele>
        <time>2021-08-10T11:55:41Z</time>
      </trkpt>
      <trkpt lat="48.43752" lon="4.58693">
        <ele>125.11</ele>
        <time>2021-08-10T11:55:42Z</time>
      </trkpt>
      <trkpt lat="48.43747" lon="4.58693">
        <ele>125.11</ele>
        <time>2021-08-10T11:55:43Z</time>
      </trkpt>
      <trkpt lat="48.43696" lon="4.58682">
        <ele>123.67</ele>
        <time>2021-08-10T11:55:51Z</time>
      </trkpt>
      <trkpt lat="48.43649" lon="4.58683">
        <ele>123.67</ele>
        <time>2021-08-10T11:55:59Z</time>
      </trkpt>
      <trkpt lat="48.4359" lon="4.58709">
        <ele>123.67</ele>
        <time>2021-08-10T11:56:09Z</time>
      </trkpt>
      <trkpt lat="48.43585" lon="4.58711">
        <ele>123.67</ele>
        <time>2021-08-10T11:56:10Z</time>
      </trkpt>
      <trkpt lat="48.43579" lon="4.58713">
        <ele>123.67</ele>
        <time>2021-08-10T11:56:11Z</time>
      </trkpt>
      <trkpt lat="48.43573" lon="4.58713">
        <ele>123.19</ele>
        <time>2021-08-10T11:56:12Z</time>
      </trkpt>
      <trkpt lat="48.43567" lon="4.5871">
        <ele>123.19</ele>
        <time>2021-08-10T11:56:13Z</time>
      </trkpt>
      <trkpt lat="48.43561" lon="4.58704">
        <ele>123.19</ele>
        <time>2021-08-10T11:56:14Z</time>
      </trkpt>
      <trkpt lat="48.43558" lon="4.58698">
        <ele>123.19</ele>
        <time>2021-08-10T11:56:15Z</time>
      </trkpt>
      <trkpt lat="48.43555" lon="4.58691">
        <ele>123.19</ele>
        <time>2021-08-10T11:56:16Z</time>
      </trkpt>
      <trkpt lat="48.43552" lon="4.58683">
        <ele>123.19</ele>
        <time>2021-08-10T11:56:17Z</time>
      </trkpt>
      <trkpt lat="48.43529" lon="4.58623">
        <ele>124.63</ele>
        <time>2021-08-10T11:56:25Z</time>
      </trkpt>
      <trkpt lat="48.43501" lon="4.58547">
        <ele>123.19</ele>
        <time>2021-08-10T11:56:35Z</time>
      </trkpt>
      <trkpt lat="48.43498" lon="4.58539">
        <ele>123.19</ele>
        <time>2021-08-10T11:56:36Z</time>
      </trkpt>
      <trkpt lat="48.43472" lon="4.5847">
        <ele>121.74</ele>
        <time>2021-08-10T11:56:45Z</time>
      </trkpt>
      <trkpt lat="48.43448" lon="4.58403">
        <ele>121.26</ele>
        <time>2021-08-10T11:56:53Z</time>
      </trkpt>
      <trkpt lat="48.43417" lon="4.58316">
        <ele>119.34</ele>
        <time>2021-08-10T11:57:03Z</time>
      </trkpt>
      <trkpt lat="48.43389" lon="4.58237">
        <ele>120.78</ele>
        <time>2021-08-10T11:57:13Z</time>
      </trkpt>
      <trkpt lat="48.43355" lon="4.58143">
        <ele>120.78</ele>
        <time>2021-08-10T11:57:25Z</time>
      </trkpt>
      <trkpt lat="48.43325" lon="4.58062">
        <ele>120.78</ele>
        <time>2021-08-10T11:57:35Z</time>
      </trkpt>
      <trkpt lat="48.43287" lon="4.57957">
        <ele>120.78</ele>
        <time>2021-08-10T11:57:48Z</time>
      </trkpt>
      <trkpt lat="48.43261" lon="4.57885">
        <ele>120.78</ele>
        <time>2021-08-10T11:57:57Z</time>
      </trkpt>
      <trkpt lat="48.43236" lon="4.57817">
        <ele>120.78</ele>
        <time>2021-08-10T11:58:06Z</time>
      </trkpt>
      <trkpt lat="48.43209" lon="4.57745">
        <ele>121.74</ele>
        <time>2021-08-10T11:58:16Z</time>
      </trkpt>
      <trkpt lat="48.43185" lon="4.57678">
        <ele>121.74</ele>
        <time>2021-08-10T11:58:25Z</time>
      </trkpt>
      <trkpt lat="48.43155" lon="4.57597">
        <ele>121.74</ele>
        <time>2021-08-10T11:58:36Z</time>
      </trkpt>
      <trkpt lat="48.43147" lon="4.57574">
        <ele>120.3</ele>
        <time>2021-08-10T11:58:39Z</time>
      </trkpt>
      <trkpt lat="48.43115" lon="4.57506">
        <ele>120.3</ele>
        <time>2021-08-10T11:58:49Z</time>
      </trkpt>
      <trkpt lat="48.4309" lon="4.57471">
        <ele>119.82</ele>
        <time>2021-08-10T11:58:56Z</time>
      </trkpt>
      <trkpt lat="48.43047" lon="4.57411">
        <ele>119.82</ele>
        <time>2021-08-10T11:59:08Z</time>
      </trkpt>
      <trkpt lat="48.43013" lon="4.57363">
        <ele>119.82</ele>
        <time>2021-08-10T11:59:18Z</time>
      </trkpt>
      <trkpt lat="48.4298" lon="4.57321">
        <ele>121.26</ele>
        <time>2021-08-10T11:59:27Z</time>
      </trkpt>
      <trkpt lat="48.42948" lon="4.57277">
        <ele>121.26</ele>
        <time>2021-08-10T11:59:36Z</time>
      </trkpt>
      <trkpt lat="48.42911" lon="4.57226">
        <ele>121.26</ele>
        <time>2021-08-10T11:59:46Z</time>
      </trkpt>
      <trkpt lat="48.42878" lon="4.57181">
        <ele>121.26</ele>
        <time>2021-08-10T11:59:55Z</time>
      </trkpt>
      <trkpt lat="48.42841" lon="4.57131">
        <ele>121.26</ele>
        <time>2021-08-10T12:00:05Z</time>
      </trkpt>
      <trkpt lat="48.42807" lon="4.57084">
        <ele>121.26</ele>
        <time>2021-08-10T12:00:14Z</time>
      </trkpt>
      <trkpt lat="48.42777" lon="4.57044">
        <ele>121.74</ele>
        <time>2021-08-10T12:00:22Z</time>
      </trkpt>
      <trkpt lat="48.4274" lon="4.56992">
        <ele>121.74</ele>
        <time>2021-08-10T12:00:32Z</time>
      </trkpt>
      <trkpt lat="48.42702" lon="4.56941">
        <ele>122.22</ele>
        <time>2021-08-10T12:00:42Z</time>
      </trkpt>
      <trkpt lat="48.42676" lon="4.56907">
        <ele>121.26</ele>
        <time>2021-08-10T12:00:50Z</time>
      </trkpt>
      <trkpt lat="48.42667" lon="4.56894">
        <ele>121.26</ele>
        <time>2021-08-10T12:00:53Z</time>
      </trkpt>
      <trkpt lat="48.42647" lon="4.56866">
        <ele>121.26</ele>
        <time>2021-08-10T12:00:59Z</time>
      </trkpt>
      <trkpt lat="48.4264" lon="4.56856">
        <ele>121.26</ele>
        <time>2021-08-10T12:01:01Z</time>
      </trkpt>
      <trkpt lat="48.42604" lon="4.56807">
        <ele>121.26</ele>
        <time>2021-08-10T12:01:11Z</time>
      </trkpt>
      <trkpt lat="48.42568" lon="4.56755">
        <ele>121.26</ele>
        <time>2021-08-10T12:01:21Z</time>
      </trkpt>
      <trkpt lat="48.42548" lon="4.56729">
        <ele>121.26</ele>
        <time>2021-08-10T12:01:26Z</time>
      </trkpt>
      <trkpt lat="48.42545" lon="4.56724">
        <ele>121.26</ele>
        <time>2021-08-10T12:01:27Z</time>
      </trkpt>
      <trkpt lat="48.42493" lon="4.56655">
        <ele>121.26</ele>
        <time>2021-08-10T12:01:40Z</time>
      </trkpt>
      <trkpt lat="48.42461" lon="4.56611">
        <ele>122.71</ele>
        <time>2021-08-10T12:01:48Z</time>
      </trkpt>
      <trkpt lat="48.42426" lon="4.56564">
        <ele>122.71</ele>
        <time>2021-08-10T12:01:56Z</time>
      </trkpt>
      <trkpt lat="48.42399" lon="4.56526">
        <ele>123.19</ele>
        <time>2021-08-10T12:02:03Z</time>
      </trkpt>
      <trkpt lat="48.42375" lon="4.56494">
        <ele>123.19</ele>
        <time>2021-08-10T12:02:09Z</time>
      </trkpt>
      <trkpt lat="48.42335" lon="4.56439">
        <ele>123.19</ele>
        <time>2021-08-10T12:02:19Z</time>
      </trkpt>
      <trkpt lat="48.42309" lon="4.56403">
        <ele>121.74</ele>
        <time>2021-08-10T12:02:26Z</time>
      </trkpt>
      <trkpt lat="48.42278" lon="4.56361">
        <ele>121.74</ele>
        <time>2021-08-10T12:02:34Z</time>
      </trkpt>
      <trkpt lat="48.42235" lon="4.56304">
        <ele>123.19</ele>
        <time>2021-08-10T12:02:45Z</time>
      </trkpt>
      <trkpt lat="48.42196" lon="4.5625">
        <ele>123.19</ele>
        <time>2021-08-10T12:02:55Z</time>
      </trkpt>
      <trkpt lat="48.42183" lon="4.56233">
        <ele>123.19</ele>
        <time>2021-08-10T12:02:58Z</time>
      </trkpt>
      <trkpt lat="48.42179" lon="4.56228">
        <ele>123.19</ele>
        <time>2021-08-10T12:02:59Z</time>
      </trkpt>
      <trkpt lat="48.42143" lon="4.56179">
        <ele>123.19</ele>
        <time>2021-08-10T12:03:08Z</time>
      </trkpt>
      <trkpt lat="48.42101" lon="4.56144">
        <ele>123.19</ele>
        <time>2021-08-10T12:03:17Z</time>
      </trkpt>
      <trkpt lat="48.42049" lon="4.56118">
        <ele>123.19</ele>
        <time>2021-08-10T12:03:27Z</time>
      </trkpt>
      <trkpt lat="48.41982" lon="4.56085">
        <ele>123.19</ele>
        <time>2021-08-10T12:03:40Z</time>
      </trkpt>
      <trkpt lat="48.4193" lon="4.56058">
        <ele>123.19</ele>
        <time>2021-08-10T12:03:50Z</time>
      </trkpt>
      <trkpt lat="48.41883" lon="4.56037">
        <ele>123.19</ele>
        <time>2021-08-10T12:03:59Z</time>
      </trkpt>
      <trkpt lat="48.41868" lon="4.5603">
        <ele>123.19</ele>
        <time>2021-08-10T12:04:02Z</time>
      </trkpt>
      <trkpt lat="48.41862" lon="4.56027">
        <ele>123.19</ele>
        <time>2021-08-10T12:04:03Z</time>
      </trkpt>
      <trkpt lat="48.4181" lon="4.55999">
        <ele>123.19</ele>
        <time>2021-08-10T12:04:13Z</time>
      </trkpt>
      <trkpt lat="48.41747" lon="4.55968">
        <ele>123.19</ele>
        <time>2021-08-10T12:04:25Z</time>
      </trkpt>
      <trkpt lat="48.41702" lon="4.55945">
        <ele>123.19</ele>
        <time>2021-08-10T12:04:34Z</time>
      </trkpt>
      <trkpt lat="48.41646" lon="4.55917">
        <ele>123.19</ele>
        <time>2021-08-10T12:04:45Z</time>
      </trkpt>
      <trkpt lat="48.4164" lon="4.55913">
        <ele>123.19</ele>
        <time>2021-08-10T12:04:46Z</time>
      </trkpt>
      <trkpt lat="48.41635" lon="4.5591">
        <ele>123.19</ele>
        <time>2021-08-10T12:04:47Z</time>
      </trkpt>
      <trkpt lat="48.41583" lon="4.55885">
        <ele>123.19</ele>
        <time>2021-08-10T12:04:57Z</time>
      </trkpt>
      <trkpt lat="48.41535" lon="4.55862">
        <ele>123.67</ele>
        <time>2021-08-10T12:05:06Z</time>
      </trkpt>
      <trkpt lat="48.41496" lon="4.55842">
        <ele>124.15</ele>
        <time>2021-08-10T12:05:14Z</time>
      </trkpt>
      <trkpt lat="48.4143" lon="4.5581">
        <ele>124.15</ele>
        <time>2021-08-10T12:05:27Z</time>
      </trkpt>
      <trkpt lat="48.41371" lon="4.5578">
        <ele>124.15</ele>
        <time>2021-08-10T12:05:38Z</time>
      </trkpt>
      <trkpt lat="48.41308" lon="4.55748">
        <ele>124.15</ele>
        <time>2021-08-10T12:05:50Z</time>
      </trkpt>
      <trkpt lat="48.41241" lon="4.55714">
        <ele>124.15</ele>
        <time>2021-08-10T12:06:03Z</time>
      </trkpt>
      <trkpt lat="48.412" lon="4.55695">
        <ele>124.63</ele>
        <time>2021-08-10T12:06:11Z</time>
      </trkpt>
      <trkpt lat="48.41154" lon="4.55672">
        <ele>124.63</ele>
        <time>2021-08-10T12:06:20Z</time>
      </trkpt>
      <trkpt lat="48.41098" lon="4.55645">
        <ele>124.63</ele>
        <time>2021-08-10T12:06:31Z</time>
      </trkpt>
      <trkpt lat="48.41039" lon="4.55614">
        <ele>124.63</ele>
        <time>2021-08-10T12:06:42Z</time>
      </trkpt>
      <trkpt lat="48.40979" lon="4.55585">
        <ele>124.63</ele>
        <time>2021-08-10T12:06:53Z</time>
      </trkpt>
      <trkpt lat="48.4092" lon="4.55555">
        <ele>125.11</ele>
        <time>2021-08-10T12:07:04Z</time>
      </trkpt>
      <trkpt lat="48.40867" lon="4.55527">
        <ele>125.11</ele>
        <time>2021-08-10T12:07:14Z</time>
      </trkpt>
      <trkpt lat="48.40829" lon="4.55507">
        <ele>125.59</ele>
        <time>2021-08-10T12:07:22Z</time>
      </trkpt>
      <trkpt lat="48.40825" lon="4.55504">
        <ele>125.59</ele>
        <time>2021-08-10T12:07:23Z</time>
      </trkpt>
      <trkpt lat="48.40818" lon="4.55496">
        <ele>125.59</ele>
        <time>2021-08-10T12:07:25Z</time>
      </trkpt>
      <trkpt lat="48.40798" lon="4.55454">
        <ele>125.59</ele>
        <time>2021-08-10T12:07:32Z</time>
      </trkpt>
      <trkpt lat="48.40772" lon="4.55398">
        <ele>125.59</ele>
        <time>2021-08-10T12:07:40Z</time>
      </trkpt>
      <trkpt lat="48.40741" lon="4.55335">
        <ele>125.59</ele>
        <time>2021-08-10T12:07:49Z</time>
      </trkpt>
      <trkpt lat="48.40709" lon="4.55267">
        <ele>125.59</ele>
        <time>2021-08-10T12:07:59Z</time>
      </trkpt>
      <trkpt lat="48.40692" lon="4.55232">
        <ele>124.15</ele>
        <time>2021-08-10T12:08:04Z</time>
      </trkpt>
      <trkpt lat="48.40652" lon="4.55151">
        <ele>124.15</ele>
        <time>2021-08-10T12:08:16Z</time>
      </trkpt>
      <trkpt lat="48.4062" lon="4.55083">
        <ele>124.15</ele>
        <time>2021-08-10T12:08:26Z</time>
      </trkpt>
      <trkpt lat="48.40584" lon="4.5501">
        <ele>125.59</ele>
        <time>2021-08-10T12:08:37Z</time>
      </trkpt>
      <trkpt lat="48.40553" lon="4.54944">
        <ele>125.11</ele>
        <time>2021-08-10T12:08:47Z</time>
      </trkpt>
      <trkpt lat="48.40521" lon="4.5488">
        <ele>126.07</ele>
        <time>2021-08-10T12:08:57Z</time>
      </trkpt>
      <trkpt lat="48.40487" lon="4.54809">
        <ele>126.07</ele>
        <time>2021-08-10T12:09:08Z</time>
      </trkpt>
      <trkpt lat="48.40483" lon="4.54801">
        <ele>126.07</ele>
        <time>2021-08-10T12:09:09Z</time>
      </trkpt>
      <trkpt lat="48.40451" lon="4.54736">
        <ele>126.07</ele>
        <time>2021-08-10T12:09:19Z</time>
      </trkpt>
      <trkpt lat="48.40413" lon="4.54657">
        <ele>126.07</ele>
        <time>2021-08-10T12:09:31Z</time>
      </trkpt>
      <trkpt lat="48.40374" lon="4.54575">
        <ele>126.07</ele>
        <time>2021-08-10T12:09:43Z</time>
      </trkpt>
      <trkpt lat="48.40348" lon="4.54522">
        <ele>126.07</ele>
        <time>2021-08-10T12:09:51Z</time>
      </trkpt>
      <trkpt lat="48.40318" lon="4.5446">
        <ele>126.07</ele>
        <time>2021-08-10T12:10:00Z</time>
      </trkpt>
      <trkpt lat="48.40295" lon="4.54413">
        <ele>125.59</ele>
        <time>2021-08-10T12:10:07Z</time>
      </trkpt>
      <trkpt lat="48.40265" lon="4.5435">
        <ele>125.59</ele>
        <time>2021-08-10T12:10:16Z</time>
      </trkpt>
      <trkpt lat="48.40224" lon="4.54264">
        <ele>126.07</ele>
        <time>2021-08-10T12:10:28Z</time>
      </trkpt>
      <trkpt lat="48.40186" lon="4.54187">
        <ele>126.07</ele>
        <time>2021-08-10T12:10:39Z</time>
      </trkpt>
      <trkpt lat="48.40148" lon="4.54108">
        <ele>126.07</ele>
        <time>2021-08-10T12:10:50Z</time>
      </trkpt>
      <trkpt lat="48.40109" lon="4.54029">
        <ele>126.07</ele>
        <time>2021-08-10T12:11:01Z</time>
      </trkpt>
      <trkpt lat="48.40089" lon="4.53986">
        <ele>126.07</ele>
        <time>2021-08-10T12:11:07Z</time>
      </trkpt>
      <trkpt lat="48.40057" lon="4.53917">
        <ele>126.07</ele>
        <time>2021-08-10T12:11:17Z</time>
      </trkpt>
      <trkpt lat="48.4003" lon="4.53863">
        <ele>126.07</ele>
        <time>2021-08-10T12:11:26Z</time>
      </trkpt>
      <trkpt lat="48.39995" lon="4.53788">
        <ele>126.07</ele>
        <time>2021-08-10T12:11:37Z</time>
      </trkpt>
      <trkpt lat="48.39969" lon="4.53735">
        <ele>126.07</ele>
        <time>2021-08-10T12:11:45Z</time>
      </trkpt>
      <trkpt lat="48.3994" lon="4.53675">
        <ele>126.07</ele>
        <time>2021-08-10T12:11:54Z</time>
      </trkpt>
      <trkpt lat="48.39899" lon="4.53591">
        <ele>126.07</ele>
        <time>2021-08-10T12:12:06Z</time>
      </trkpt>
      <trkpt lat="48.39868" lon="4.53528">
        <ele>126.07</ele>
        <time>2021-08-10T12:12:15Z</time>
      </trkpt>
      <trkpt lat="48.39834" lon="4.53457">
        <ele>126.07</ele>
        <time>2021-08-10T12:12:25Z</time>
      </trkpt>
      <trkpt lat="48.39802" lon="4.53393">
        <ele>126.07</ele>
        <time>2021-08-10T12:12:34Z</time>
      </trkpt>
      <trkpt lat="48.39795" lon="4.53379">
        <ele>126.07</ele>
        <time>2021-08-10T12:12:36Z</time>
      </trkpt>
      <trkpt lat="48.39767" lon="4.53317">
        <ele>126.07</ele>
        <time>2021-08-10T12:12:45Z</time>
      </trkpt>
      <trkpt lat="48.39734" lon="4.53247">
        <ele>127.03</ele>
        <time>2021-08-10T12:12:56Z</time>
      </trkpt>
      <trkpt lat="48.39731" lon="4.53241">
        <ele>127.03</ele>
        <time>2021-08-10T12:12:57Z</time>
      </trkpt>
      <trkpt lat="48.39729" lon="4.53236">
        <ele>127.03</ele>
        <time>2021-08-10T12:12:58Z</time>
      </trkpt>
      <trkpt lat="48.39726" lon="4.53231">
        <ele>127.03</ele>
        <time>2021-08-10T12:12:59Z</time>
      </trkpt>
      <trkpt lat="48.39715" lon="4.53207">
        <ele>127.03</ele>
        <time>2021-08-10T12:13:03Z</time>
      </trkpt>
      <trkpt lat="48.39706" lon="4.53187">
        <ele>125.59</ele>
        <time>2021-08-10T12:13:06Z</time>
      </trkpt>
      <trkpt lat="48.39679" lon="4.53135">
        <ele>125.59</ele>
        <time>2021-08-10T12:13:14Z</time>
      </trkpt>
      <trkpt lat="48.39651" lon="4.53077">
        <ele>125.59</ele>
        <time>2021-08-10T12:13:23Z</time>
      </trkpt>
      <trkpt lat="48.39617" lon="4.53006">
        <ele>125.59</ele>
        <time>2021-08-10T12:13:34Z</time>
      </trkpt>
      <trkpt lat="48.39607" lon="4.52987">
        <ele>125.59</ele>
        <time>2021-08-10T12:13:37Z</time>
      </trkpt>
      <trkpt lat="48.39604" lon="4.52981">
        <ele>125.59</ele>
        <time>2021-08-10T12:13:38Z</time>
      </trkpt>
      <trkpt lat="48.39576" lon="4.52923">
        <ele>125.59</ele>
        <time>2021-08-10T12:13:47Z</time>
      </trkpt>
      <trkpt lat="48.39556" lon="4.52876">
        <ele>127.51</ele>
        <time>2021-08-10T12:13:55Z</time>
      </trkpt>
      <trkpt lat="48.39552" lon="4.52859">
        <ele>127.51</ele>
        <time>2021-08-10T12:13:59Z</time>
      </trkpt>
      <trkpt lat="48.39537" lon="4.52839">
        <ele>127.51</ele>
        <time>2021-08-10T12:14:04Z</time>
      </trkpt>
      <trkpt lat="48.39523" lon="4.52814">
        <ele>127.51</ele>
        <time>2021-08-10T12:14:09Z</time>
      </trkpt>
      <trkpt lat="48.39492" lon="4.52756">
        <ele>126.07</ele>
        <time>2021-08-10T12:14:19Z</time>
      </trkpt>
      <trkpt lat="48.39462" lon="4.52697">
        <ele>126.07</ele>
        <time>2021-08-10T12:14:29Z</time>
      </trkpt>
      <trkpt lat="48.39451" lon="4.52673">
        <ele>126.07</ele>
        <time>2021-08-10T12:14:33Z</time>
      </trkpt>
      <trkpt lat="48.39448" lon="4.52668">
        <ele>126.07</ele>
        <time>2021-08-10T12:14:34Z</time>
      </trkpt>
      <trkpt lat="48.39426" lon="4.52615">
        <ele>127.51</ele>
        <time>2021-08-10T12:14:44Z</time>
      </trkpt>
      <trkpt lat="48.39424" lon="4.52611">
        <ele>127.51</ele>
        <time>2021-08-10T12:14:45Z</time>
      </trkpt>
      <trkpt lat="48.39413" lon="4.52596">
        <ele>127.51</ele>
        <time>2021-08-10T12:14:50Z</time>
      </trkpt>
      <trkpt lat="48.39409" lon="4.52597">
        <ele>127.99</ele>
        <time>2021-08-10T12:14:51Z</time>
      </trkpt>
      <trkpt lat="48.39407" lon="4.526">
        <ele>127.99</ele>
        <time>2021-08-10T12:14:52Z</time>
      </trkpt>
      <trkpt lat="48.39403" lon="4.52603">
        <ele>127.99</ele>
        <time>2021-08-10T12:14:53Z</time>
      </trkpt>
      <trkpt lat="48.394" lon="4.52607">
        <ele>127.99</ele>
        <time>2021-08-10T12:14:54Z</time>
      </trkpt>
      <trkpt lat="48.39396" lon="4.5261">
        <ele>127.99</ele>
        <time>2021-08-10T12:14:55Z</time>
      </trkpt>
      <trkpt lat="48.39391" lon="4.52613">
        <ele>127.99</ele>
        <time>2021-08-10T12:14:56Z</time>
      </trkpt>
      <trkpt lat="48.39387" lon="4.52616">
        <ele>127.99</ele>
        <time>2021-08-10T12:14:57Z</time>
      </trkpt>
      <trkpt lat="48.39383" lon="4.52619">
        <ele>127.99</ele>
        <time>2021-08-10T12:14:58Z</time>
      </trkpt>
      <trkpt lat="48.39348" lon="4.52649">
        <ele>128.47</ele>
        <time>2021-08-10T12:15:07Z</time>
      </trkpt>
      <trkpt lat="48.39344" lon="4.52651">
        <ele>128.47</ele>
        <time>2021-08-10T12:15:08Z</time>
      </trkpt>
      <trkpt lat="48.39319" lon="4.52667">
        <ele>128.95</ele>
        <time>2021-08-10T12:15:14Z</time>
      </trkpt>
      <trkpt lat="48.39315" lon="4.52669">
        <ele>128.95</ele>
        <time>2021-08-10T12:15:15Z</time>
      </trkpt>
      <trkpt lat="48.3929" lon="4.52684">
        <ele>128.95</ele>
        <time>2021-08-10T12:15:21Z</time>
      </trkpt>
      <trkpt lat="48.39267" lon="4.52697">
        <ele>128.95</ele>
        <time>2021-08-10T12:15:26Z</time>
      </trkpt>
      <trkpt lat="48.39249" lon="4.52705">
        <ele>128.95</ele>
        <time>2021-08-10T12:15:30Z</time>
      </trkpt>
      <trkpt lat="48.39244" lon="4.52706">
        <ele>128.95</ele>
        <time>2021-08-10T12:15:31Z</time>
      </trkpt>
      <trkpt lat="48.3924" lon="4.52706">
        <ele>128.95</ele>
        <time>2021-08-10T12:15:32Z</time>
      </trkpt>
      <trkpt lat="48.39235" lon="4.52704">
        <ele>128.95</ele>
        <time>2021-08-10T12:15:33Z</time>
      </trkpt>
      <trkpt lat="48.39231" lon="4.52701">
        <ele>127.51</ele>
        <time>2021-08-10T12:15:34Z</time>
      </trkpt>
      <trkpt lat="48.39228" lon="4.52696">
        <ele>127.51</ele>
        <time>2021-08-10T12:15:35Z</time>
      </trkpt>
      <trkpt lat="48.39227" lon="4.52689">
        <ele>127.51</ele>
        <time>2021-08-10T12:15:36Z</time>
      </trkpt>
      <trkpt lat="48.39227" lon="4.52682">
        <ele>127.51</ele>
        <time>2021-08-10T12:15:37Z</time>
      </trkpt>
      <trkpt lat="48.39227" lon="4.52674">
        <ele>127.51</ele>
        <time>2021-08-10T12:15:38Z</time>
      </trkpt>
      <trkpt lat="48.39218" lon="4.526">
        <ele>127.51</ele>
        <time>2021-08-10T12:15:48Z</time>
      </trkpt>
      <trkpt lat="48.39208" lon="4.52526">
        <ele>126.55</ele>
        <time>2021-08-10T12:15:58Z</time>
      </trkpt>
      <trkpt lat="48.392" lon="4.52463">
        <ele>127.99</ele>
        <time>2021-08-10T12:16:07Z</time>
      </trkpt>
      <trkpt lat="48.39199" lon="4.52457">
        <ele>127.99</ele>
        <time>2021-08-10T12:16:08Z</time>
      </trkpt>
      <trkpt lat="48.39197" lon="4.52451">
        <ele>127.99</ele>
        <time>2021-08-10T12:16:09Z</time>
      </trkpt>
      <trkpt lat="48.39195" lon="4.52446">
        <ele>128.47</ele>
        <time>2021-08-10T12:16:10Z</time>
      </trkpt>
      <trkpt lat="48.39192" lon="4.52443">
        <ele>128.47</ele>
        <time>2021-08-10T12:16:11Z</time>
      </trkpt>
      <trkpt lat="48.39189" lon="4.52442">
        <ele>128.95</ele>
        <time>2021-08-10T12:16:12Z</time>
      </trkpt>
      <trkpt lat="48.39185" lon="4.52443">
        <ele>128.95</ele>
        <time>2021-08-10T12:16:13Z</time>
      </trkpt>
      <trkpt lat="48.39181" lon="4.52445">
        <ele>128.95</ele>
        <time>2021-08-10T12:16:14Z</time>
      </trkpt>
      <trkpt lat="48.39165" lon="4.52451">
        <ele>128.95</ele>
        <time>2021-08-10T12:16:18Z</time>
      </trkpt>
      <trkpt lat="48.39161" lon="4.52452">
        <ele>128.95</ele>
        <time>2021-08-10T12:16:19Z</time>
      </trkpt>
      <trkpt lat="48.39157" lon="4.52453">
        <ele>128.95</ele>
        <time>2021-08-10T12:16:20Z</time>
      </trkpt>
      <trkpt lat="48.39152" lon="4.52454">
        <ele>128.95</ele>
        <time>2021-08-10T12:16:21Z</time>
      </trkpt>
      <trkpt lat="48.39148" lon="4.52455">
        <ele>128.95</ele>
        <time>2021-08-10T12:16:22Z</time>
      </trkpt>
      <trkpt lat="48.39121" lon="4.5246">
        <ele>127.99</ele>
        <time>2021-08-10T12:16:28Z</time>
      </trkpt>
      <trkpt lat="48.39117" lon="4.52461">
        <ele>127.99</ele>
        <time>2021-08-10T12:16:29Z</time>
      </trkpt>
      <trkpt lat="48.39113" lon="4.52463">
        <ele>127.99</ele>
        <time>2021-08-10T12:16:30Z</time>
      </trkpt>
      <trkpt lat="48.3911" lon="4.52466">
        <ele>127.99</ele>
        <time>2021-08-10T12:16:31Z</time>
      </trkpt>
      <trkpt lat="48.39108" lon="4.52471">
        <ele>127.99</ele>
        <time>2021-08-10T12:16:32Z</time>
      </trkpt>
      <trkpt lat="48.39107" lon="4.52477">
        <ele>127.99</ele>
        <time>2021-08-10T12:16:33Z</time>
      </trkpt>
      <trkpt lat="48.39106" lon="4.5248">
        <ele>127.99</ele>
        <time>2021-08-10T12:16:34Z</time>
      </trkpt>
      <trkpt lat="48.39105" lon="4.52483">
        <ele>127.99</ele>
        <time>2021-08-10T12:16:38Z</time>
      </trkpt>
      <trkpt lat="48.39106" lon="4.52482">
        <ele>127.99</ele>
        <time>2021-08-10T12:16:47Z</time>
      </trkpt>
      <trkpt lat="48.39107" lon="4.52482">
        <ele>127.99</ele>
        <time>2021-08-10T12:17:01Z</time>
      </trkpt>
      <trkpt lat="48.39108" lon="4.52483">
        <ele>127.99</ele>
        <time>2021-08-10T12:17:16Z</time>
      </trkpt>
      <trkpt lat="48.39109" lon="4.52482">
        <ele>127.99</ele>
        <time>2021-08-10T12:17:35Z</time>
      </trkpt>
      <trkpt lat="48.39108" lon="4.52482">
        <ele>127.99</ele>
        <time>2021-08-10T12:17:51Z</time>
      </trkpt>
      <trkpt lat="48.39108" lon="4.5248">
        <ele>127.99</ele>
        <time>2021-08-10T12:18:00Z</time>
      </trkpt>
      <trkpt lat="48.39108" lon="4.52479">
        <ele>127.99</ele>
        <time>2021-08-10T12:18:17Z</time>
      </trkpt>
      <trkpt lat="48.39108" lon="4.5248">
        <ele>127.99</ele>
        <time>2021-08-10T12:18:31Z</time>
      </trkpt>
      <trkpt lat="48.39108" lon="4.52478">
        <ele>127.99</ele>
        <time>2021-08-10T12:18:49Z</time>
      </trkpt>
      <trkpt lat="48.39108" lon="4.52479">
        <ele>127.99</ele>
        <time>2021-08-10T12:19:03Z</time>
      </trkpt>
      <trkpt lat="48.39108" lon="4.52478">
        <ele>127.99</ele>
        <time>2021-08-10T12:19:17Z</time>
      </trkpt>
      <trkpt lat="48.39107" lon="4.52476">
        <ele>127.99</ele>
        <time>2021-08-10T12:19:36Z</time>
      </trkpt>
      <trkpt lat="48.39106" lon="4.52477">
        <ele>127.99</ele>
        <time>2021-08-10T12:19:51Z</time>
      </trkpt>
      <trkpt lat="48.39107" lon="4.52476">
        <ele>127.99</ele>
        <time>2021-08-10T12:19:54Z</time>
      </trkpt>
      <trkpt lat="48.39109" lon="4.52473">
        <ele>127.99</ele>
        <time>2021-08-10T12:19:55Z</time>
      </trkpt>
      <trkpt lat="48.3911" lon="4.52472">
        <ele>127.99</ele>
        <time>2021-08-10T12:19:58Z</time>
      </trkpt>
      <trkpt lat="48.3911" lon="4.52473">
        <ele>127.99</ele>
        <time>2021-08-10T12:20:00Z</time>
      </trkpt>
      <trkpt lat="48.3911" lon="4.52474">
        <ele>127.99</ele>
        <time>2021-08-10T12:20:06Z</time>
      </trkpt>
      <trkpt lat="48.3911" lon="4.52474">
        <ele>127.99</ele>
        <time>2021-08-10T12:20:23Z</time>
      </trkpt>
      <trkpt lat="48.39109" lon="4.52475">
        <ele>127.99</ele>
        <time>2021-08-10T12:20:40Z</time>
      </trkpt>
      <trkpt lat="48.39109" lon="4.52474">
        <ele>127.99</ele>
        <time>2021-08-10T12:20:52Z</time>
      </trkpt>
      <trkpt lat="48.39109" lon="4.52476">
        <ele>127.99</ele>
        <time>2021-08-10T12:21:03Z</time>
      </trkpt>
      <trkpt lat="48.39109" lon="4.52477">
        <ele>127.99</ele>
        <time>2021-08-10T12:21:19Z</time>
      </trkpt>
      <trkpt lat="48.39108" lon="4.52477">
        <ele>127.99</ele>
        <time>2021-08-10T12:21:33Z</time>
      </trkpt>
      <trkpt lat="48.39106" lon="4.52477">
        <ele>127.99</ele>
        <time>2021-08-10T12:21:50Z</time>
      </trkpt>
      <trkpt lat="48.39105" lon="4.52476">
        <ele>127.99</ele>
        <time>2021-08-10T12:22:03Z</time>
      </trkpt>
      <trkpt lat="48.39105" lon="4.52478">
        <ele>127.99</ele>
        <time>2021-08-10T12:22:22Z</time>
      </trkpt>
      <trkpt lat="48.39108" lon="4.5248">
        <ele>127.99</ele>
        <time>2021-08-10T12:22:40Z</time>
      </trkpt>
      <trkpt lat="48.39107" lon="4.52479">
        <ele>127.99</ele>
        <time>2021-08-10T12:22:52Z</time>
      </trkpt>
      <trkpt lat="48.39107" lon="4.5248">
        <ele>127.99</ele>
        <time>2021-08-10T12:23:09Z</time>
      </trkpt>
      <trkpt lat="48.39106" lon="4.52482">
        <ele>127.99</ele>
        <time>2021-08-10T12:23:28Z</time>
      </trkpt>
      <trkpt lat="48.39106" lon="4.52482">
        <ele>127.99</ele>
        <time>2021-08-10T12:23:46Z</time>
      </trkpt>
      <trkpt lat="48.39106" lon="4.52481">
        <ele>127.99</ele>
        <time>2021-08-10T12:24:02Z</time>
      </trkpt>
      <trkpt lat="48.39105" lon="4.52479">
        <ele>127.99</ele>
        <time>2021-08-10T12:24:15Z</time>
      </trkpt>
      <trkpt lat="48.39104" lon="4.5248">
        <ele>127.99</ele>
        <time>2021-08-10T12:24:27Z</time>
      </trkpt>
      <trkpt lat="48.39104" lon="4.52479">
        <ele>127.99</ele>
        <time>2021-08-10T12:24:42Z</time>
      </trkpt>
      <trkpt lat="48.39105" lon="4.52479">
        <ele>127.99</ele>
        <time>2021-08-10T12:24:57Z</time>
      </trkpt>
      <trkpt lat="48.39106" lon="4.5248">
        <ele>127.99</ele>
        <time>2021-08-10T12:25:09Z</time>
      </trkpt>
      <trkpt lat="48.39107" lon="4.5248">
        <ele>127.99</ele>
        <time>2021-08-10T12:25:11Z</time>
      </trkpt>
      <trkpt lat="48.39107" lon="4.52479">
        <ele>127.99</ele>
        <time>2021-08-10T12:25:17Z</time>
      </trkpt>
      <trkpt lat="48.39107" lon="4.52481">
        <ele>129.43</ele>
        <time>2021-08-10T12:25:33Z</time>
      </trkpt>
      <trkpt lat="48.39108" lon="4.52479">
        <ele>129.43</ele>
        <time>2021-08-10T12:25:46Z</time>
      </trkpt>
      <trkpt lat="48.39107" lon="4.5248">
        <ele>129.43</ele>
        <time>2021-08-10T12:25:56Z</time>
      </trkpt>
      <trkpt lat="48.39106" lon="4.5248">
        <ele>127.99</ele>
        <time>2021-08-10T12:26:15Z</time>
      </trkpt>
      <trkpt lat="48.39106" lon="4.5248">
        <ele>127.99</ele>
        <time>2021-08-10T12:26:28Z</time>
      </trkpt>
      <trkpt lat="48.39107" lon="4.52479">
        <ele>127.99</ele>
        <time>2021-08-10T12:26:46Z</time>
      </trkpt>
      <trkpt lat="48.39107" lon="4.52478">
        <ele>127.99</ele>
        <time>2021-08-10T12:27:01Z</time>
      </trkpt>
      <trkpt lat="48.39107" lon="4.52479">
        <ele>129.43</ele>
        <time>2021-08-10T12:27:18Z</time>
      </trkpt>
      <trkpt lat="48.39107" lon="4.5248">
        <ele>129.43</ele>
        <time>2021-08-10T12:27:38Z</time>
      </trkpt>
      <trkpt lat="48.39107" lon="4.5248">
        <ele>129.43</ele>
        <time>2021-08-10T12:27:57Z</time>
      </trkpt>
      <trkpt lat="48.39107" lon="4.52481">
        <ele>129.43</ele>
        <time>2021-08-10T12:28:16Z</time>
      </trkpt>
      <trkpt lat="48.39108" lon="4.52481">
        <ele>129.43</ele>
        <time>2021-08-10T12:28:28Z</time>
      </trkpt>
      <trkpt lat="48.39108" lon="4.52482">
        <ele>129.43</ele>
        <time>2021-08-10T12:28:41Z</time>
      </trkpt>
      <trkpt lat="48.39108" lon="4.52481">
        <ele>129.43</ele>
        <time>2021-08-10T12:28:55Z</time>
      </trkpt>
      <trkpt lat="48.39107" lon="4.52482">
        <ele>129.43</ele>
        <time>2021-08-10T12:29:07Z</time>
      </trkpt>
      <trkpt lat="48.39107" lon="4.52482">
        <ele>129.43</ele>
        <time>2021-08-10T12:29:19Z</time>
      </trkpt>
      <trkpt lat="48.39107" lon="4.52482">
        <ele>127.99</ele>
        <time>2021-08-10T12:29:22Z</time>
      </trkpt>
      <trkpt lat="48.39108" lon="4.52482">
        <ele>127.99</ele>
        <time>2021-08-10T12:29:36Z</time>
      </trkpt>
      <trkpt lat="48.39109" lon="4.52482">
        <ele>127.99</ele>
        <time>2021-08-10T12:29:41Z</time>
      </trkpt>
      <trkpt lat="48.39109" lon="4.52483">
        <ele>127.99</ele>
        <time>2021-08-10T12:29:46Z</time>
      </trkpt>
      <trkpt lat="48.39106" lon="4.52477">
        <ele>127.99</ele>
        <time>2021-08-10T12:30:06Z</time>
      </trkpt>
      <trkpt lat="48.39106" lon="4.52478">
        <ele>127.99</ele>
        <time>2021-08-10T12:30:19Z</time>
      </trkpt>
      <trkpt lat="48.39106" lon="4.52479">
        <ele>127.99</ele>
        <time>2021-08-10T12:30:39Z</time>
      </trkpt>
      <trkpt lat="48.39105" lon="4.52478">
        <ele>128.95</ele>
        <time>2021-08-10T12:30:51Z</time>
      </trkpt>
      <trkpt lat="48.39105" lon="4.52476">
        <ele>128.95</ele>
        <time>2021-08-10T12:31:09Z</time>
      </trkpt>
      <trkpt lat="48.39105" lon="4.52477">
        <ele>128.95</ele>
        <time>2021-08-10T12:31:27Z</time>
      </trkpt>
      <trkpt lat="48.39105" lon="4.52477">
        <ele>128.95</ele>
        <time>2021-08-10T12:31:39Z</time>
      </trkpt>
      <trkpt lat="48.39106" lon="4.52478">
        <ele>128.95</ele>
        <time>2021-08-10T12:31:56Z</time>
      </trkpt>
      <trkpt lat="48.39106" lon="4.52479">
        <ele>128.95</ele>
        <time>2021-08-10T12:32:11Z</time>
      </trkpt>
      <trkpt lat="48.39105" lon="4.52477">
        <ele>128.95</ele>
        <time>2021-08-10T12:32:34Z</time>
      </trkpt>
      <trkpt lat="48.39106" lon="4.52479">
        <ele>128.95</ele>
        <time>2021-08-10T12:32:52Z</time>
      </trkpt>
      <trkpt lat="48.39106" lon="4.52478">
        <ele>129.43</ele>
        <time>2021-08-10T12:33:12Z</time>
      </trkpt>
      <trkpt lat="48.39106" lon="4.52478">
        <ele>129.43</ele>
        <time>2021-08-10T12:33:25Z</time>
      </trkpt>
      <trkpt lat="48.39106" lon="4.52479">
        <ele>129.43</ele>
        <time>2021-08-10T12:33:42Z</time>
      </trkpt>
      <trkpt lat="48.39106" lon="4.5248">
        <ele>128.95</ele>
        <time>2021-08-10T12:34:04Z</time>
      </trkpt>
      <trkpt lat="48.39105" lon="4.52482">
        <ele>128.95</ele>
        <time>2021-08-10T12:34:20Z</time>
      </trkpt>
      <trkpt lat="48.39106" lon="4.5248">
        <ele>128.95</ele>
        <time>2021-08-10T12:34:36Z</time>
      </trkpt>
      <trkpt lat="48.39107" lon="4.52478">
        <ele>128.95</ele>
        <time>2021-08-10T12:34:59Z</time>
      </trkpt>
      <trkpt lat="48.39108" lon="4.52479">
        <ele>128.95</ele>
        <time>2021-08-10T12:35:15Z</time>
      </trkpt>
      <trkpt lat="48.39106" lon="4.52481">
        <ele>128.95</ele>
        <time>2021-08-10T12:35:36Z</time>
      </trkpt>
      <trkpt lat="48.39105" lon="4.52482">
        <ele>128.95</ele>
        <time>2021-08-10T12:35:54Z</time>
      </trkpt>
      <trkpt lat="48.39105" lon="4.52475">
        <ele>127.99</ele>
        <time>2021-08-10T12:36:16Z</time>
      </trkpt>
      <trkpt lat="48.39106" lon="4.52475">
        <ele>127.99</ele>
        <time>2021-08-10T12:36:34Z</time>
      </trkpt>
      <trkpt lat="48.39106" lon="4.52477">
        <ele>128.47</ele>
        <time>2021-08-10T12:36:48Z</time>
      </trkpt>
      <trkpt lat="48.39106" lon="4.52477">
        <ele>128.47</ele>
        <time>2021-08-10T12:37:01Z</time>
      </trkpt>
      <trkpt lat="48.39105" lon="4.52473">
        <ele>128.47</ele>
        <time>2021-08-10T12:37:16Z</time>
      </trkpt>
      <trkpt lat="48.39106" lon="4.52472">
        <ele>128.47</ele>
        <time>2021-08-10T12:37:29Z</time>
      </trkpt>
      <trkpt lat="48.39106" lon="4.52473">
        <ele>128.47</ele>
        <time>2021-08-10T12:37:43Z</time>
      </trkpt>
      <trkpt lat="48.39106" lon="4.52474">
        <ele>128.47</ele>
        <time>2021-08-10T12:37:53Z</time>
      </trkpt>
      <trkpt lat="48.39106" lon="4.52476">
        <ele>128.47</ele>
        <time>2021-08-10T12:38:07Z</time>
      </trkpt>
      <trkpt lat="48.39107" lon="4.52477">
        <ele>128.47</ele>
        <time>2021-08-10T12:38:21Z</time>
      </trkpt>
      <trkpt lat="48.39107" lon="4.52478">
        <ele>128.47</ele>
        <time>2021-08-10T12:38:37Z</time>
      </trkpt>
      <trkpt lat="48.3911" lon="4.52481">
        <ele>128.47</ele>
        <time>2021-08-10T12:38:56Z</time>
      </trkpt>
      <trkpt lat="48.3911" lon="4.52479">
        <ele>128.47</ele>
        <time>2021-08-10T12:39:12Z</time>
      </trkpt>
      <trkpt lat="48.39108" lon="4.52475">
        <ele>128.47</ele>
        <time>2021-08-10T12:39:27Z</time>
      </trkpt>
      <trkpt lat="48.39107" lon="4.52477">
        <ele>128.47</ele>
        <time>2021-08-10T12:39:50Z</time>
      </trkpt>
      <trkpt lat="48.39107" lon="4.52479">
        <ele>128.47</ele>
        <time>2021-08-10T12:40:06Z</time>
      </trkpt>
      <trkpt lat="48.39106" lon="4.5248">
        <ele>128.47</ele>
        <time>2021-08-10T12:40:23Z</time>
      </trkpt>
      <trkpt lat="48.39107" lon="4.5248">
        <ele>128.47</ele>
        <time>2021-08-10T12:40:42Z</time>
      </trkpt>
      <trkpt lat="48.39106" lon="4.5248">
        <ele>128.47</ele>
        <time>2021-08-10T12:40:58Z</time>
      </trkpt>
      <trkpt lat="48.39105" lon="4.52481">
        <ele>129.43</ele>
        <time>2021-08-10T12:41:14Z</time>
      </trkpt>
      <trkpt lat="48.39104" lon="4.52481">
        <ele>129.43</ele>
        <time>2021-08-10T12:41:26Z</time>
      </trkpt>
      <trkpt lat="48.39103" lon="4.52482">
        <ele>128.47</ele>
        <time>2021-08-10T12:41:37Z</time>
      </trkpt>
      <trkpt lat="48.39106" lon="4.52483">
        <ele>128.47</ele>
        <time>2021-08-10T12:41:57Z</time>
      </trkpt>
      <trkpt lat="48.39105" lon="4.52483">
        <ele>127.99</ele>
        <time>2021-08-10T12:42:12Z</time>
      </trkpt>
      <trkpt lat="48.39104" lon="4.52483">
        <ele>129.43</ele>
        <time>2021-08-10T12:42:23Z</time>
      </trkpt>
      <trkpt lat="48.39102" lon="4.52482">
        <ele>129.43</ele>
        <time>2021-08-10T12:42:43Z</time>
      </trkpt>
      <trkpt lat="48.39102" lon="4.52484">
        <ele>129.43</ele>
        <time>2021-08-10T12:43:04Z</time>
      </trkpt>
      <trkpt lat="48.39103" lon="4.52483">
        <ele>129.43</ele>
        <time>2021-08-10T12:43:16Z</time>
      </trkpt>
      <trkpt lat="48.39104" lon="4.52484">
        <ele>128.95</ele>
        <time>2021-08-10T12:43:32Z</time>
      </trkpt>
      <trkpt lat="48.39104" lon="4.52483">
        <ele>128.95</ele>
        <time>2021-08-10T12:43:48Z</time>
      </trkpt>
      <trkpt lat="48.39103" lon="4.52481">
        <ele>128.95</ele>
        <time>2021-08-10T12:44:04Z</time>
      </trkpt>
      <trkpt lat="48.39103" lon="4.52481">
        <ele>128.95</ele>
        <time>2021-08-10T12:44:19Z</time>
      </trkpt>
      <trkpt lat="48.39102" lon="4.52477">
        <ele>128.95</ele>
        <time>2021-08-10T12:44:36Z</time>
      </trkpt>
      <trkpt lat="48.39102" lon="4.52475">
        <ele>128.95</ele>
        <time>2021-08-10T12:44:57Z</time>
      </trkpt>
      <trkpt lat="48.39102" lon="4.52477">
        <ele>128.95</ele>
        <time>2021-08-10T12:45:13Z</time>
      </trkpt>
      <trkpt lat="48.391" lon="4.52476">
        <ele>128.95</ele>
        <time>2021-08-10T12:45:25Z</time>
      </trkpt>
      <trkpt lat="48.39101" lon="4.52476">
        <ele>128.95</ele>
        <time>2021-08-10T12:45:43Z</time>
      </trkpt>
      <trkpt lat="48.39101" lon="4.52475">
        <ele>128.95</ele>
        <time>2021-08-10T12:46:01Z</time>
      </trkpt>
      <trkpt lat="48.391" lon="4.52477">
        <ele>128.95</ele>
        <time>2021-08-10T12:46:21Z</time>
      </trkpt>
      <trkpt lat="48.39101" lon="4.52479">
        <ele>128.95</ele>
        <time>2021-08-10T12:46:41Z</time>
      </trkpt>
      <trkpt lat="48.39104" lon="4.52478">
        <ele>128.95</ele>
        <time>2021-08-10T12:46:59Z</time>
      </trkpt>
      <trkpt lat="48.39104" lon="4.52477">
        <ele>129.43</ele>
        <time>2021-08-10T12:47:16Z</time>
      </trkpt>
      <trkpt lat="48.39104" lon="4.52477">
        <ele>129.43</ele>
        <time>2021-08-10T12:47:32Z</time>
      </trkpt>
      <trkpt lat="48.39107" lon="4.5248">
        <ele>129.43</ele>
        <time>2021-08-10T12:47:47Z</time>
      </trkpt>
      <trkpt lat="48.39103" lon="4.5248">
        <ele>129.43</ele>
        <time>2021-08-10T12:48:06Z</time>
      </trkpt>
      <trkpt lat="48.391" lon="4.52479">
        <ele>129.43</ele>
        <time>2021-08-10T12:48:23Z</time>
      </trkpt>
      <trkpt lat="48.391" lon="4.52477">
        <ele>129.43</ele>
        <time>2021-08-10T12:48:39Z</time>
      </trkpt>
      <trkpt lat="48.39107" lon="4.52475">
        <ele>128.95</ele>
        <time>2021-08-10T12:48:58Z</time>
      </trkpt>
      <trkpt lat="48.39106" lon="4.52478">
        <ele>128.95</ele>
        <time>2021-08-10T12:49:21Z</time>
      </trkpt>
      <trkpt lat="48.39107" lon="4.52476">
        <ele>129.43</ele>
        <time>2021-08-10T12:49:42Z</time>
      </trkpt>
      <trkpt lat="48.39105" lon="4.52477">
        <ele>128.47</ele>
        <time>2021-08-10T12:49:58Z</time>
      </trkpt>
      <trkpt lat="48.39105" lon="4.52475">
        <ele>129.43</ele>
        <time>2021-08-10T12:50:15Z</time>
      </trkpt>
      <trkpt lat="48.39105" lon="4.52475">
        <ele>129.43</ele>
        <time>2021-08-10T12:50:31Z</time>
      </trkpt>
      <trkpt lat="48.39106" lon="4.52478">
        <ele>128.47</ele>
        <time>2021-08-10T12:50:52Z</time>
      </trkpt>
      <trkpt lat="48.39107" lon="4.5248">
        <ele>128.47</ele>
        <time>2021-08-10T12:51:12Z</time>
      </trkpt>
      <trkpt lat="48.39107" lon="4.5248">
        <ele>129.92</ele>
        <time>2021-08-10T12:51:14Z</time>
      </trkpt>
      <trkpt lat="48.39109" lon="4.5248">
        <ele>129.92</ele>
        <time>2021-08-10T12:51:29Z</time>
      </trkpt>
      <trkpt lat="48.39108" lon="4.5248">
        <ele>128.47</ele>
        <time>2021-08-10T12:51:49Z</time>
      </trkpt>
      <trkpt lat="48.39104" lon="4.52481">
        <ele>128.47</ele>
        <time>2021-08-10T12:52:05Z</time>
      </trkpt>
      <trkpt lat="48.39103" lon="4.52481">
        <ele>128.47</ele>
        <time>2021-08-10T12:52:23Z</time>
      </trkpt>
      <trkpt lat="48.39103" lon="4.5248">
        <ele>128.47</ele>
        <time>2021-08-10T12:52:39Z</time>
      </trkpt>
      <trkpt lat="48.39105" lon="4.5248">
        <ele>128.47</ele>
        <time>2021-08-10T12:53:02Z</time>
      </trkpt>
      <trkpt lat="48.39106" lon="4.52482">
        <ele>128.47</ele>
        <time>2021-08-10T12:53:24Z</time>
      </trkpt>
      <trkpt lat="48.39107" lon="4.5248">
        <ele>128.47</ele>
        <time>2021-08-10T12:53:40Z</time>
      </trkpt>
      <trkpt lat="48.39106" lon="4.52479">
        <ele>128.47</ele>
        <time>2021-08-10T12:54:03Z</time>
      </trkpt>
      <trkpt lat="48.39104" lon="4.52479">
        <ele>128.47</ele>
        <time>2021-08-10T12:54:18Z</time>
      </trkpt>
      <trkpt lat="48.39103" lon="4.52479">
        <ele>127.99</ele>
        <time>2021-08-10T12:54:36Z</time>
      </trkpt>
      <trkpt lat="48.39105" lon="4.52479">
        <ele>127.99</ele>
        <time>2021-08-10T12:54:57Z</time>
      </trkpt>
      <trkpt lat="48.39105" lon="4.52479">
        <ele>127.99</ele>
        <time>2021-08-10T12:55:10Z</time>
      </trkpt>
      <trkpt lat="48.39105" lon="4.52482">
        <ele>127.99</ele>
        <time>2021-08-10T12:55:31Z</time>
      </trkpt>
      <trkpt lat="48.39107" lon="4.52482">
        <ele>127.99</ele>
        <time>2021-08-10T12:55:51Z</time>
      </trkpt>
      <trkpt lat="48.39108" lon="4.52483">
        <ele>127.99</ele>
        <time>2021-08-10T12:56:07Z</time>
      </trkpt>
      <trkpt lat="48.39107" lon="4.52482">
        <ele>127.99</ele>
        <time>2021-08-10T12:56:24Z</time>
      </trkpt>
      <trkpt lat="48.39106" lon="4.52481">
        <ele>127.99</ele>
        <time>2021-08-10T12:56:43Z</time>
      </trkpt>
      <trkpt lat="48.39104" lon="4.52481">
        <ele>128.95</ele>
        <time>2021-08-10T12:57:01Z</time>
      </trkpt>
      <trkpt lat="48.39104" lon="4.52481">
        <ele>128.95</ele>
        <time>2021-08-10T12:57:22Z</time>
      </trkpt>
      <trkpt lat="48.39102" lon="4.5248">
        <ele>127.99</ele>
        <time>2021-08-10T12:57:35Z</time>
      </trkpt>
      <trkpt lat="48.39101" lon="4.52478">
        <ele>127.99</ele>
        <time>2021-08-10T12:57:53Z</time>
      </trkpt>
      <trkpt lat="48.39101" lon="4.52477">
        <ele>127.99</ele>
        <time>2021-08-10T12:58:15Z</time>
      </trkpt>
      <trkpt lat="48.39102" lon="4.52477">
        <ele>127.99</ele>
        <time>2021-08-10T12:58:30Z</time>
      </trkpt>
      <trkpt lat="48.39104" lon="4.52479">
        <ele>127.99</ele>
        <time>2021-08-10T12:58:48Z</time>
      </trkpt>
      <trkpt lat="48.39103" lon="4.52479">
        <ele>127.99</ele>
        <time>2021-08-10T12:59:10Z</time>
      </trkpt>
      <trkpt lat="48.39103" lon="4.52478">
        <ele>127.99</ele>
        <time>2021-08-10T12:59:31Z</time>
      </trkpt>
      <trkpt lat="48.39104" lon="4.52478">
        <ele>128.95</ele>
        <time>2021-08-10T12:59:35Z</time>
      </trkpt>
      <trkpt lat="48.39103" lon="4.5248">
        <ele>128.95</ele>
        <time>2021-08-10T12:59:54Z</time>
      </trkpt>
      <trkpt lat="48.39106" lon="4.5248">
        <ele>128.95</ele>
        <time>2021-08-10T13:00:14Z</time>
      </trkpt>
      <trkpt lat="48.39108" lon="4.52482">
        <ele>128.95</ele>
        <time>2021-08-10T13:00:29Z</time>
      </trkpt>
      <trkpt lat="48.3911" lon="4.52481">
        <ele>128.95</ele>
        <time>2021-08-10T13:00:48Z</time>
      </trkpt>
      <trkpt lat="48.3911" lon="4.5248">
        <ele>129.43</ele>
        <time>2021-08-10T13:01:02Z</time>
      </trkpt>
      <trkpt lat="48.39107" lon="4.52477">
        <ele>129.43</ele>
        <time>2021-08-10T13:01:23Z</time>
      </trkpt>
      <trkpt lat="48.39106" lon="4.52476">
        <ele>129.43</ele>
        <time>2021-08-10T13:01:40Z</time>
      </trkpt>
      <trkpt lat="48.39104" lon="4.52475">
        <ele>129.43</ele>
        <time>2021-08-10T13:01:54Z</time>
      </trkpt>
      <trkpt lat="48.39104" lon="4.52473">
        <ele>129.43</ele>
        <time>2021-08-10T13:02:14Z</time>
      </trkpt>
      <trkpt lat="48.39104" lon="4.52474">
        <ele>129.43</ele>
        <time>2021-08-10T13:02:29Z</time>
      </trkpt>
      <trkpt lat="48.39104" lon="4.52477">
        <ele>129.43</ele>
        <time>2021-08-10T13:02:46Z</time>
      </trkpt>
      <trkpt lat="48.39105" lon="4.52478">
        <ele>129.43</ele>
        <time>2021-08-10T13:03:00Z</time>
      </trkpt>
      <trkpt lat="48.39105" lon="4.52475">
        <ele>129.43</ele>
        <time>2021-08-10T13:03:17Z</time>
      </trkpt>
      <trkpt lat="48.39103" lon="4.52476">
        <ele>129.43</ele>
        <time>2021-08-10T13:03:28Z</time>
      </trkpt>
      <trkpt lat="48.39103" lon="4.52478">
        <ele>129.43</ele>
        <time>2021-08-10T13:03:42Z</time>
      </trkpt>
      <trkpt lat="48.39105" lon="4.52478">
        <ele>129.43</ele>
        <time>2021-08-10T13:04:04Z</time>
      </trkpt>
      <trkpt lat="48.39106" lon="4.52477">
        <ele>129.43</ele>
        <time>2021-08-10T13:04:23Z</time>
      </trkpt>
      <trkpt lat="48.39108" lon="4.52477">
        <ele>129.43</ele>
        <time>2021-08-10T13:04:43Z</time>
      </trkpt>
      <trkpt lat="48.39108" lon="4.52477">
        <ele>129.43</ele>
        <time>2021-08-10T13:04:57Z</time>
      </trkpt>
      <trkpt lat="48.39111" lon="4.52478">
        <ele>129.92</ele>
        <time>2021-08-10T13:05:15Z</time>
      </trkpt>
      <trkpt lat="48.39113" lon="4.52478">
        <ele>129.92</ele>
        <time>2021-08-10T13:05:37Z</time>
      </trkpt>
      <trkpt lat="48.39116" lon="4.52478">
        <ele>129.92</ele>
        <time>2021-08-10T13:05:58Z</time>
      </trkpt>
      <trkpt lat="48.39117" lon="4.52478">
        <ele>130.4</ele>
        <time>2021-08-10T13:06:18Z</time>
      </trkpt>
      <trkpt lat="48.39117" lon="4.5248">
        <ele>130.4</ele>
        <time>2021-08-10T13:06:41Z</time>
      </trkpt>
      <trkpt lat="48.39118" lon="4.5248">
        <ele>130.4</ele>
        <time>2021-08-10T13:06:56Z</time>
      </trkpt>
      <trkpt lat="48.39119" lon="4.52482">
        <ele>130.88</ele>
        <time>2021-08-10T13:07:14Z</time>
      </trkpt>
      <trkpt lat="48.39117" lon="4.52482">
        <ele>131.36</ele>
        <time>2021-08-10T13:07:39Z</time>
      </trkpt>
      <trkpt lat="48.39114" lon="4.52482">
        <ele>129.92</ele>
        <time>2021-08-10T13:07:58Z</time>
      </trkpt>
      <trkpt lat="48.3911" lon="4.52481">
        <ele>130.4</ele>
        <time>2021-08-10T13:08:21Z</time>
      </trkpt>
      <trkpt lat="48.39107" lon="4.5248">
        <ele>130.4</ele>
        <time>2021-08-10T13:08:41Z</time>
      </trkpt>
      <trkpt lat="48.39105" lon="4.5248">
        <ele>130.4</ele>
        <time>2021-08-10T13:09:01Z</time>
      </trkpt>
      <trkpt lat="48.39104" lon="4.52482">
        <ele>130.4</ele>
        <time>2021-08-10T13:09:17Z</time>
      </trkpt>
      <trkpt lat="48.39105" lon="4.52482">
        <ele>130.4</ele>
        <time>2021-08-10T13:09:28Z</time>
      </trkpt>
      <trkpt lat="48.39105" lon="4.52483">
        <ele>130.4</ele>
        <time>2021-08-10T13:09:42Z</time>
      </trkpt>
      <trkpt lat="48.39109" lon="4.52483">
        <ele>129.92</ele>
        <time>2021-08-10T13:10:01Z</time>
      </trkpt>
      <trkpt lat="48.39113" lon="4.52482">
        <ele>130.4</ele>
        <time>2021-08-10T13:10:15Z</time>
      </trkpt>
      <trkpt lat="48.39111" lon="4.52481">
        <ele>130.4</ele>
        <time>2021-08-10T13:10:37Z</time>
      </trkpt>
      <trkpt lat="48.39111" lon="4.5248">
        <ele>130.4</ele>
        <time>2021-08-10T13:10:54Z</time>
      </trkpt>
      <trkpt lat="48.39111" lon="4.52478">
        <ele>130.4</ele>
        <time>2021-08-10T13:11:17Z</time>
      </trkpt>
      <trkpt lat="48.39109" lon="4.52477">
        <ele>131.36</ele>
        <time>2021-08-10T13:11:34Z</time>
      </trkpt>
      <trkpt lat="48.39109" lon="4.52478">
        <ele>131.36</ele>
        <time>2021-08-10T13:11:53Z</time>
      </trkpt>
      <trkpt lat="48.39109" lon="4.52478">
        <ele>131.36</ele>
        <time>2021-08-10T13:12:11Z</time>
      </trkpt>
      <trkpt lat="48.39108" lon="4.52479">
        <ele>130.4</ele>
        <time>2021-08-10T13:12:27Z</time>
      </trkpt>
      <trkpt lat="48.39107" lon="4.52481">
        <ele>130.4</ele>
        <time>2021-08-10T13:12:44Z</time>
      </trkpt>
      <trkpt lat="48.39107" lon="4.52484">
        <ele>130.4</ele>
        <time>2021-08-10T13:13:04Z</time>
      </trkpt>
      <trkpt lat="48.39106" lon="4.52484">
        <ele>130.4</ele>
        <time>2021-08-10T13:13:20Z</time>
      </trkpt>
      <trkpt lat="48.39104" lon="4.52483">
        <ele>130.4</ele>
        <time>2021-08-10T13:13:37Z</time>
      </trkpt>
      <trkpt lat="48.39104" lon="4.52483">
        <ele>130.4</ele>
        <time>2021-08-10T13:13:46Z</time>
      </trkpt>
      <trkpt lat="48.39106" lon="4.52483">
        <ele>130.4</ele>
        <time>2021-08-10T13:13:59Z</time>
      </trkpt>
      <trkpt lat="48.3911" lon="4.52482">
        <ele>130.4</ele>
        <time>2021-08-10T13:14:15Z</time>
      </trkpt>
      <trkpt lat="48.39109" lon="4.52481">
        <ele>130.4</ele>
        <time>2021-08-10T13:14:31Z</time>
      </trkpt>
      <trkpt lat="48.39108" lon="4.5248">
        <ele>130.4</ele>
        <time>2021-08-10T13:14:46Z</time>
      </trkpt>
      <trkpt lat="48.39108" lon="4.52481">
        <ele>130.4</ele>
        <time>2021-08-10T13:14:56Z</time>
      </trkpt>
      <trkpt lat="48.39108" lon="4.52482">
        <ele>130.4</ele>
        <time>2021-08-10T13:15:04Z</time>
      </trkpt>
      <trkpt lat="48.39109" lon="4.52483">
        <ele>130.4</ele>
        <time>2021-08-10T13:15:14Z</time>
      </trkpt>
      <trkpt lat="48.39107" lon="4.52484">
        <ele>130.4</ele>
        <time>2021-08-10T13:15:27Z</time>
      </trkpt>
      <trkpt lat="48.39107" lon="4.52485">
        <ele>130.4</ele>
        <time>2021-08-10T13:15:43Z</time>
      </trkpt>
      <trkpt lat="48.39107" lon="4.52486">
        <ele>130.4</ele>
        <time>2021-08-10T13:16:00Z</time>
      </trkpt>
      <trkpt lat="48.39108" lon="4.52486">
        <ele>131.84</ele>
        <time>2021-08-10T13:16:06Z</time>
      </trkpt>
      <trkpt lat="48.39109" lon="4.52484">
        <ele>131.84</ele>
        <time>2021-08-10T13:16:19Z</time>
      </trkpt>
      <trkpt lat="48.39107" lon="4.52481">
        <ele>131.84</ele>
        <time>2021-08-10T13:16:36Z</time>
      </trkpt>
      <trkpt lat="48.39105" lon="4.5248">
        <ele>131.84</ele>
        <time>2021-08-10T13:16:49Z</time>
      </trkpt>
      <trkpt lat="48.39104" lon="4.5248">
        <ele>131.84</ele>
        <time>2021-08-10T13:17:01Z</time>
      </trkpt>
      <trkpt lat="48.39105" lon="4.52481">
        <ele>131.84</ele>
        <time>2021-08-10T13:17:14Z</time>
      </trkpt>
      <trkpt lat="48.39106" lon="4.52482">
        <ele>131.84</ele>
        <time>2021-08-10T13:17:25Z</time>
      </trkpt>
      <trkpt lat="48.39107" lon="4.52482">
        <ele>131.84</ele>
        <time>2021-08-10T13:17:35Z</time>
      </trkpt>
      <trkpt lat="48.39107" lon="4.52482">
        <ele>131.84</ele>
        <time>2021-08-10T13:17:46Z</time>
      </trkpt>
      <trkpt lat="48.39108" lon="4.52483">
        <ele>131.84</ele>
        <time>2021-08-10T13:17:59Z</time>
      </trkpt>
      <trkpt lat="48.39108" lon="4.52483">
        <ele>131.84</ele>
        <time>2021-08-10T13:18:18Z</time>
      </trkpt>
      <trkpt lat="48.39108" lon="4.52482">
        <ele>131.84</ele>
        <time>2021-08-10T13:18:34Z</time>
      </trkpt>
      <trkpt lat="48.39108" lon="4.52481">
        <ele>131.36</ele>
        <time>2021-08-10T13:18:45Z</time>
      </trkpt>
      <trkpt lat="48.39108" lon="4.52481">
        <ele>130.4</ele>
        <time>2021-08-10T13:18:48Z</time>
      </trkpt>
      <trkpt lat="48.39107" lon="4.5248">
        <ele>130.4</ele>
        <time>2021-08-10T13:19:00Z</time>
      </trkpt>
      <trkpt lat="48.39105" lon="4.5248">
        <ele>130.4</ele>
        <time>2021-08-10T13:19:12Z</time>
      </trkpt>
      <trkpt lat="48.39105" lon="4.52481">
        <ele>130.4</ele>
        <time>2021-08-10T13:19:31Z</time>
      </trkpt>
      <trkpt lat="48.39103" lon="4.52481">
        <ele>130.4</ele>
        <time>2021-08-10T13:19:53Z</time>
      </trkpt>
      <trkpt lat="48.39102" lon="4.5248">
        <ele>129.92</ele>
        <time>2021-08-10T13:20:12Z</time>
      </trkpt>
      <trkpt lat="48.39106" lon="4.52479">
        <ele>131.36</ele>
        <time>2021-08-10T13:20:38Z</time>
      </trkpt>
      <trkpt lat="48.39108" lon="4.52483">
        <ele>131.36</ele>
        <time>2021-08-10T13:21:04Z</time>
      </trkpt>
      <trkpt lat="48.39111" lon="4.52482">
        <ele>131.36</ele>
        <time>2021-08-10T13:21:22Z</time>
      </trkpt>
      <trkpt lat="48.39111" lon="4.52481">
        <ele>129.92</ele>
        <time>2021-08-10T13:21:43Z</time>
      </trkpt>
      <trkpt lat="48.39109" lon="4.52481">
        <ele>129.92</ele>
        <time>2021-08-10T13:22:10Z</time>
      </trkpt>
      <trkpt lat="48.39107" lon="4.52481">
        <ele>129.92</ele>
        <time>2021-08-10T13:22:33Z</time>
      </trkpt>
      <trkpt lat="48.39109" lon="4.5248">
        <ele>129.92</ele>
        <time>2021-08-10T13:22:52Z</time>
      </trkpt>
      <trkpt lat="48.3911" lon="4.52479">
        <ele>129.92</ele>
        <time>2021-08-10T13:23:11Z</time>
      </trkpt>
      <trkpt lat="48.39109" lon="4.52481">
        <ele>130.4</ele>
        <time>2021-08-10T13:23:33Z</time>
      </trkpt>
      <trkpt lat="48.39107" lon="4.52481">
        <ele>131.36</ele>
        <time>2021-08-10T13:23:47Z</time>
      </trkpt>
      <trkpt lat="48.39105" lon="4.52482">
        <ele>131.36</ele>
        <time>2021-08-10T13:24:09Z</time>
      </trkpt>
      <trkpt lat="48.39105" lon="4.52481">
        <ele>131.36</ele>
        <time>2021-08-10T13:24:27Z</time>
      </trkpt>
      <trkpt lat="48.39109" lon="4.52481">
        <ele>131.36</ele>
        <time>2021-08-10T13:24:45Z</time>
      </trkpt>
      <trkpt lat="48.39114" lon="4.5248">
        <ele>131.36</ele>
        <time>2021-08-10T13:25:07Z</time>
      </trkpt>
      <trkpt lat="48.39114" lon="4.5248">
        <ele>131.84</ele>
        <time>2021-08-10T13:25:19Z</time>
      </trkpt>
      <trkpt lat="48.39114" lon="4.5248">
        <ele>131.84</ele>
        <time>2021-08-10T13:25:33Z</time>
      </trkpt>
      <trkpt lat="48.39114" lon="4.52481">
        <ele>131.84</ele>
        <time>2021-08-10T13:25:44Z</time>
      </trkpt>
      <trkpt lat="48.39112" lon="4.52481">
        <ele>131.84</ele>
        <time>2021-08-10T13:26:00Z</time>
      </trkpt>
      <trkpt lat="48.3911" lon="4.52481">
        <ele>131.84</ele>
        <time>2021-08-10T13:26:18Z</time>
      </trkpt>
      <trkpt lat="48.39109" lon="4.5248">
        <ele>131.84</ele>
        <time>2021-08-10T13:26:36Z</time>
      </trkpt>
      <trkpt lat="48.39113" lon="4.52479">
        <ele>131.84</ele>
        <time>2021-08-10T13:26:49Z</time>
      </trkpt>
      <trkpt lat="48.39114" lon="4.52478">
        <ele>131.84</ele>
        <time>2021-08-10T13:27:03Z</time>
      </trkpt>
      <trkpt lat="48.39116" lon="4.52478">
        <ele>131.84</ele>
        <time>2021-08-10T13:27:16Z</time>
      </trkpt>
      <trkpt lat="48.39117" lon="4.52477">
        <ele>131.84</ele>
        <time>2021-08-10T13:27:23Z</time>
      </trkpt>
      <trkpt lat="48.39117" lon="4.52477">
        <ele>131.84</ele>
        <time>2021-08-10T13:27:34Z</time>
      </trkpt>
      <trkpt lat="48.39117" lon="4.52478">
        <ele>132.32</ele>
        <time>2021-08-10T13:27:47Z</time>
      </trkpt>
      <trkpt lat="48.39116" lon="4.5248">
        <ele>132.32</ele>
        <time>2021-08-10T13:28:03Z</time>
      </trkpt>
      <trkpt lat="48.39114" lon="4.5248">
        <ele>132.32</ele>
        <time>2021-08-10T13:28:16Z</time>
      </trkpt>
      <trkpt lat="48.39112" lon="4.5248">
        <ele>132.32</ele>
        <time>2021-08-10T13:28:31Z</time>
      </trkpt>
      <trkpt lat="48.39111" lon="4.5248">
        <ele>132.32</ele>
        <time>2021-08-10T13:28:45Z</time>
      </trkpt>
      <trkpt lat="48.39108" lon="4.52481">
        <ele>132.32</ele>
        <time>2021-08-10T13:28:59Z</time>
      </trkpt>
      <trkpt lat="48.39109" lon="4.5248">
        <ele>132.32</ele>
        <time>2021-08-10T13:29:16Z</time>
      </trkpt>
      <trkpt lat="48.3911" lon="4.52478">
        <ele>132.32</ele>
        <time>2021-08-10T13:29:28Z</time>
      </trkpt>
      <trkpt lat="48.39112" lon="4.52476">
        <ele>132.32</ele>
        <time>2021-08-10T13:29:38Z</time>
      </trkpt>
      <trkpt lat="48.39114" lon="4.52476">
        <ele>132.8</ele>
        <time>2021-08-10T13:29:47Z</time>
      </trkpt>
      <trkpt lat="48.39113" lon="4.52476">
        <ele>132.8</ele>
        <time>2021-08-10T13:29:58Z</time>
      </trkpt>
      <trkpt lat="48.39113" lon="4.52478">
        <ele>132.8</ele>
        <time>2021-08-10T13:30:08Z</time>
      </trkpt>
      <trkpt lat="48.39112" lon="4.52478">
        <ele>132.8</ele>
        <time>2021-08-10T13:30:21Z</time>
      </trkpt>
      <trkpt lat="48.39111" lon="4.52478">
        <ele>132.8</ele>
        <time>2021-08-10T13:30:36Z</time>
      </trkpt>
      <trkpt lat="48.39112" lon="4.52477">
        <ele>132.8</ele>
        <time>2021-08-10T13:30:48Z</time>
      </trkpt>
      <trkpt lat="48.39113" lon="4.52476">
        <ele>132.8</ele>
        <time>2021-08-10T13:30:59Z</time>
      </trkpt>
      <trkpt lat="48.39113" lon="4.52473">
        <ele>132.8</ele>
        <time>2021-08-10T13:31:12Z</time>
      </trkpt>
      <trkpt lat="48.3911" lon="4.52471">
        <ele>133.28</ele>
        <time>2021-08-10T13:31:30Z</time>
      </trkpt>
      <trkpt lat="48.39109" lon="4.52471">
        <ele>133.28</ele>
        <time>2021-08-10T13:31:50Z</time>
      </trkpt>
      <trkpt lat="48.3911" lon="4.52473">
        <ele>133.28</ele>
        <time>2021-08-10T13:32:05Z</time>
      </trkpt>
      <trkpt lat="48.39109" lon="4.52473">
        <ele>133.28</ele>
        <time>2021-08-10T13:32:14Z</time>
      </trkpt>
      <trkpt lat="48.39108" lon="4.52472">
        <ele>133.76</ele>
        <time>2021-08-10T13:32:27Z</time>
      </trkpt>
      <trkpt lat="48.39105" lon="4.52475">
        <ele>133.76</ele>
        <time>2021-08-10T13:32:45Z</time>
      </trkpt>
      <trkpt lat="48.39104" lon="4.52476">
        <ele>133.76</ele>
        <time>2021-08-10T13:33:01Z</time>
      </trkpt>
      <trkpt lat="48.39105" lon="4.52476">
        <ele>133.76</ele>
        <time>2021-08-10T13:33:12Z</time>
      </trkpt>
      <trkpt lat="48.39107" lon="4.52475">
        <ele>133.76</ele>
        <time>2021-08-10T13:33:24Z</time>
      </trkpt>
      <trkpt lat="48.39107" lon="4.52474">
        <ele>133.76</ele>
        <time>2021-08-10T13:33:40Z</time>
      </trkpt>
      <trkpt lat="48.39107" lon="4.52475">
        <ele>133.76</ele>
        <time>2021-08-10T13:33:52Z</time>
      </trkpt>
      <trkpt lat="48.39106" lon="4.52477">
        <ele>133.76</ele>
        <time>2021-08-10T13:34:02Z</time>
      </trkpt>
      <trkpt lat="48.39105" lon="4.52479">
        <ele>133.76</ele>
        <time>2021-08-10T13:34:19Z</time>
      </trkpt>
      <trkpt lat="48.39103" lon="4.52481">
        <ele>133.76</ele>
        <time>2021-08-10T13:34:35Z</time>
      </trkpt>
      <trkpt lat="48.39102" lon="4.52481">
        <ele>133.76</ele>
        <time>2021-08-10T13:34:42Z</time>
      </trkpt>
      <trkpt lat="48.39102" lon="4.5248">
        <ele>133.76</ele>
        <time>2021-08-10T13:34:54Z</time>
      </trkpt>
      <trkpt lat="48.39103" lon="4.5248">
        <ele>133.76</ele>
        <time>2021-08-10T13:35:10Z</time>
      </trkpt>
      <trkpt lat="48.39102" lon="4.52479">
        <ele>133.76</ele>
        <time>2021-08-10T13:35:24Z</time>
      </trkpt>
      <trkpt lat="48.39102" lon="4.52479">
        <ele>133.76</ele>
        <time>2021-08-10T13:35:35Z</time>
      </trkpt>
      <trkpt lat="48.39103" lon="4.52481">
        <ele>133.76</ele>
        <time>2021-08-10T13:35:45Z</time>
      </trkpt>
      <trkpt lat="48.39103" lon="4.52481">
        <ele>133.28</ele>
        <time>2021-08-10T13:36:06Z</time>
      </trkpt>
      <trkpt lat="48.39103" lon="4.5248">
        <ele>133.28</ele>
        <time>2021-08-10T13:36:15Z</time>
      </trkpt>
      <trkpt lat="48.39105" lon="4.52478">
        <ele>133.28</ele>
        <time>2021-08-10T13:36:35Z</time>
      </trkpt>
      <trkpt lat="48.39105" lon="4.52479">
        <ele>133.28</ele>
        <time>2021-08-10T13:36:52Z</time>
      </trkpt>
      <trkpt lat="48.39104" lon="4.52479">
        <ele>133.28</ele>
        <time>2021-08-10T13:37:02Z</time>
      </trkpt>
      <trkpt lat="48.39104" lon="4.5248">
        <ele>133.76</ele>
        <time>2021-08-10T13:37:12Z</time>
      </trkpt>
      <trkpt lat="48.39102" lon="4.5248">
        <ele>133.76</ele>
        <time>2021-08-10T13:37:21Z</time>
      </trkpt>
      <trkpt lat="48.39101" lon="4.52481">
        <ele>133.76</ele>
        <time>2021-08-10T13:37:34Z</time>
      </trkpt>
      <trkpt lat="48.391" lon="4.52481">
        <ele>133.76</ele>
        <time>2021-08-10T13:37:45Z</time>
      </trkpt>
      <trkpt lat="48.39101" lon="4.52484">
        <ele>133.76</ele>
        <time>2021-08-10T13:37:50Z</time>
      </trkpt>
      <trkpt lat="48.39104" lon="4.52486">
        <ele>133.76</ele>
        <time>2021-08-10T13:37:53Z</time>
      </trkpt>
      <trkpt lat="48.39105" lon="4.52485">
        <ele>133.76</ele>
        <time>2021-08-10T13:37:54Z</time>
      </trkpt>
      <trkpt lat="48.39105" lon="4.52483">
        <ele>133.76</ele>
        <time>2021-08-10T13:37:55Z</time>
      </trkpt>
      <trkpt lat="48.39105" lon="4.52481">
        <ele>133.76</ele>
        <time>2021-08-10T13:37:56Z</time>
      </trkpt>
      <trkpt lat="48.39105" lon="4.52479">
        <ele>133.76</ele>
        <time>2021-08-10T13:37:57Z</time>
      </trkpt>
      <trkpt lat="48.39107" lon="4.52476">
        <ele>133.76</ele>
        <time>2021-08-10T13:37:58Z</time>
      </trkpt>
      <trkpt lat="48.39107" lon="4.52467">
        <ele>133.76</ele>
        <time>2021-08-10T13:38:01Z</time>
      </trkpt>
      <trkpt lat="48.39108" lon="4.52462">
        <ele>133.76</ele>
        <time>2021-08-10T13:38:03Z</time>
      </trkpt>
      <trkpt lat="48.39106" lon="4.52462">
        <ele>133.76</ele>
        <time>2021-08-10T13:38:04Z</time>
      </trkpt>
      <trkpt lat="48.39105" lon="4.52465">
        <ele>133.76</ele>
        <time>2021-08-10T13:38:05Z</time>
      </trkpt>
      <trkpt lat="48.39105" lon="4.52467">
        <ele>133.76</ele>
        <time>2021-08-10T13:38:06Z</time>
      </trkpt>
      <trkpt lat="48.39105" lon="4.52471">
        <ele>133.76</ele>
        <time>2021-08-10T13:38:07Z</time>
      </trkpt>
      <trkpt lat="48.39105" lon="4.52475">
        <ele>133.76</ele>
        <time>2021-08-10T13:38:08Z</time>
      </trkpt>
      <trkpt lat="48.39105" lon="4.52478">
        <ele>133.76</ele>
        <time>2021-08-10T13:38:09Z</time>
      </trkpt>
      <trkpt lat="48.39105" lon="4.52486">
        <ele>133.76</ele>
        <time>2021-08-10T13:38:12Z</time>
      </trkpt>
      <trkpt lat="48.39106" lon="4.52487">
        <ele>133.76</ele>
        <time>2021-08-10T13:38:13Z</time>
      </trkpt>
      <trkpt lat="48.39107" lon="4.52484">
        <ele>133.76</ele>
        <time>2021-08-10T13:38:14Z</time>
      </trkpt>
      <trkpt lat="48.39108" lon="4.52481">
        <ele>133.76</ele>
        <time>2021-08-10T13:38:15Z</time>
      </trkpt>
      <trkpt lat="48.39108" lon="4.52477">
        <ele>133.76</ele>
        <time>2021-08-10T13:38:16Z</time>
      </trkpt>
      <trkpt lat="48.39106" lon="4.52462">
        <ele>133.76</ele>
        <time>2021-08-10T13:38:20Z</time>
      </trkpt>
      <trkpt lat="48.39103" lon="4.5246">
        <ele>133.76</ele>
        <time>2021-08-10T13:38:21Z</time>
      </trkpt>
      <trkpt lat="48.39101" lon="4.52458">
        <ele>133.76</ele>
        <time>2021-08-10T13:38:22Z</time>
      </trkpt>
      <trkpt lat="48.39098" lon="4.52457">
        <ele>133.76</ele>
        <time>2021-08-10T13:38:23Z</time>
      </trkpt>
      <trkpt lat="48.39093" lon="4.52457">
        <ele>133.76</ele>
        <time>2021-08-10T13:38:24Z</time>
      </trkpt>
      <trkpt lat="48.3909" lon="4.52457">
        <ele>133.76</ele>
        <time>2021-08-10T13:38:25Z</time>
      </trkpt>
      <trkpt lat="48.39087" lon="4.52456">
        <ele>133.76</ele>
        <time>2021-08-10T13:38:26Z</time>
      </trkpt>
      <trkpt lat="48.39082" lon="4.52456">
        <ele>132.32</ele>
        <time>2021-08-10T13:38:28Z</time>
      </trkpt>
      <trkpt lat="48.3908" lon="4.52453">
        <ele>132.32</ele>
        <time>2021-08-10T13:38:31Z</time>
      </trkpt>
      <trkpt lat="48.39084" lon="4.5245">
        <ele>132.32</ele>
        <time>2021-08-10T13:38:39Z</time>
      </trkpt>
      <trkpt lat="48.39083" lon="4.52447">
        <ele>132.32</ele>
        <time>2021-08-10T13:38:56Z</time>
      </trkpt>
      <trkpt lat="48.39082" lon="4.52447">
        <ele>133.28</ele>
        <time>2021-08-10T13:39:09Z</time>
      </trkpt>
      <trkpt lat="48.3908" lon="4.5245">
        <ele>133.28</ele>
        <time>2021-08-10T13:39:15Z</time>
      </trkpt>
      <trkpt lat="48.39081" lon="4.5245">
        <ele>133.28</ele>
        <time>2021-08-10T13:39:30Z</time>
      </trkpt>
      <trkpt lat="48.39082" lon="4.52452">
        <ele>133.28</ele>
        <time>2021-08-10T13:39:42Z</time>
      </trkpt>
      <trkpt lat="48.3908" lon="4.52454">
        <ele>133.28</ele>
        <time>2021-08-10T13:40:02Z</time>
      </trkpt>
      <trkpt lat="48.39081" lon="4.52456">
        <ele>133.28</ele>
        <time>2021-08-10T13:40:22Z</time>
      </trkpt>
      <trkpt lat="48.39082" lon="4.52452">
        <ele>133.28</ele>
        <time>2021-08-10T13:40:40Z</time>
      </trkpt>
      <trkpt lat="48.39084" lon="4.52448">
        <ele>133.28</ele>
        <time>2021-08-10T13:40:55Z</time>
      </trkpt>
      <trkpt lat="48.39086" lon="4.52448">
        <ele>133.28</ele>
        <time>2021-08-10T13:41:07Z</time>
      </trkpt>
      <trkpt lat="48.39087" lon="4.52448">
        <ele>133.28</ele>
        <time>2021-08-10T13:41:13Z</time>
      </trkpt>
      <trkpt lat="48.39085" lon="4.52449">
        <ele>133.28</ele>
        <time>2021-08-10T13:41:29Z</time>
      </trkpt>
      <trkpt lat="48.39084" lon="4.52452">
        <ele>132.8</ele>
        <time>2021-08-10T13:41:48Z</time>
      </trkpt>
      <trkpt lat="48.39084" lon="4.52452">
        <ele>132.8</ele>
        <time>2021-08-10T13:42:08Z</time>
      </trkpt>
      <trkpt lat="48.39085" lon="4.52452">
        <ele>132.8</ele>
        <time>2021-08-10T13:42:20Z</time>
      </trkpt>
      <trkpt lat="48.39086" lon="4.52452">
        <ele>132.8</ele>
        <time>2021-08-10T13:42:23Z</time>
      </trkpt>
      <trkpt lat="48.3908" lon="4.52457">
        <ele>132.8</ele>
        <time>2021-08-10T13:42:29Z</time>
      </trkpt>
      <trkpt lat="48.39059" lon="4.52457">
        <ele>132.8</ele>
        <time>2021-08-10T13:42:37Z</time>
      </trkpt>
      <trkpt lat="48.39032" lon="4.52455">
        <ele>132.8</ele>
        <time>2021-08-10T13:42:44Z</time>
      </trkpt>
      <trkpt lat="48.39028" lon="4.52455">
        <ele>132.8</ele>
        <time>2021-08-10T13:42:45Z</time>
      </trkpt>
      <trkpt lat="48.39024" lon="4.52455">
        <ele>132.8</ele>
        <time>2021-08-10T13:42:46Z</time>
      </trkpt>
      <trkpt lat="48.3902" lon="4.52455">
        <ele>132.8</ele>
        <time>2021-08-10T13:42:47Z</time>
      </trkpt>
      <trkpt lat="48.39016" lon="4.52454">
        <ele>132.8</ele>
        <time>2021-08-10T13:42:48Z</time>
      </trkpt>
      <trkpt lat="48.38998" lon="4.52453">
        <ele>132.8</ele>
        <time>2021-08-10T13:42:52Z</time>
      </trkpt>
      <trkpt lat="48.38963" lon="4.5245">
        <ele>132.8</ele>
        <time>2021-08-10T13:43:01Z</time>
      </trkpt>
      <trkpt lat="48.38937" lon="4.52449">
        <ele>132.8</ele>
        <time>2021-08-10T13:43:08Z</time>
      </trkpt>
      <trkpt lat="48.38926" lon="4.52443">
        <ele>133.28</ele>
        <time>2021-08-10T13:43:11Z</time>
      </trkpt>
      <trkpt lat="48.38924" lon="4.52438">
        <ele>133.28</ele>
        <time>2021-08-10T13:43:12Z</time>
      </trkpt>
      <trkpt lat="48.38923" lon="4.52433">
        <ele>133.28</ele>
        <time>2021-08-10T13:43:13Z</time>
      </trkpt>
      <trkpt lat="48.38919" lon="4.52381">
        <ele>133.28</ele>
        <time>2021-08-10T13:43:22Z</time>
      </trkpt>
      <trkpt lat="48.38915" lon="4.52347">
        <ele>133.76</ele>
        <time>2021-08-10T13:43:28Z</time>
      </trkpt>
      <trkpt lat="48.38912" lon="4.52344">
        <ele>133.76</ele>
        <time>2021-08-10T13:43:29Z</time>
      </trkpt>
      <trkpt lat="48.38908" lon="4.52343">
        <ele>133.76</ele>
        <time>2021-08-10T13:43:30Z</time>
      </trkpt>
      <trkpt lat="48.38904" lon="4.52344">
        <ele>133.76</ele>
        <time>2021-08-10T13:43:31Z</time>
      </trkpt>
      <trkpt lat="48.38899" lon="4.52346">
        <ele>133.76</ele>
        <time>2021-08-10T13:43:32Z</time>
      </trkpt>
      <trkpt lat="48.38896" lon="4.52348">
        <ele>133.76</ele>
        <time>2021-08-10T13:43:33Z</time>
      </trkpt>
      <trkpt lat="48.38892" lon="4.5235">
        <ele>133.76</ele>
        <time>2021-08-10T13:43:34Z</time>
      </trkpt>
      <trkpt lat="48.38889" lon="4.52353">
        <ele>133.76</ele>
        <time>2021-08-10T13:43:35Z</time>
      </trkpt>
      <trkpt lat="48.38852" lon="4.52377">
        <ele>133.76</ele>
        <time>2021-08-10T13:43:44Z</time>
      </trkpt>
      <trkpt lat="48.3881" lon="4.52402">
        <ele>133.76</ele>
        <time>2021-08-10T13:43:53Z</time>
      </trkpt>
      <trkpt lat="48.38772" lon="4.52422">
        <ele>133.76</ele>
        <time>2021-08-10T13:44:01Z</time>
      </trkpt>
      <trkpt lat="48.38728" lon="4.52446">
        <ele>133.76</ele>
        <time>2021-08-10T13:44:10Z</time>
      </trkpt>
      <trkpt lat="48.38704" lon="4.52458">
        <ele>133.76</ele>
        <time>2021-08-10T13:44:15Z</time>
      </trkpt>
      <trkpt lat="48.38693" lon="4.52462">
        <ele>133.76</ele>
        <time>2021-08-10T13:44:17Z</time>
      </trkpt>
      <trkpt lat="48.38649" lon="4.52485">
        <ele>133.76</ele>
        <time>2021-08-10T13:44:26Z</time>
      </trkpt>
      <trkpt lat="48.3864" lon="4.52489">
        <ele>133.76</ele>
        <time>2021-08-10T13:44:28Z</time>
      </trkpt>
      <trkpt lat="48.38604" lon="4.52499">
        <ele>134.24</ele>
        <time>2021-08-10T13:44:36Z</time>
      </trkpt>
      <trkpt lat="48.38558" lon="4.52512">
        <ele>135.2</ele>
        <time>2021-08-10T13:44:46Z</time>
      </trkpt>
      <trkpt lat="48.38509" lon="4.52522">
        <ele>135.2</ele>
        <time>2021-08-10T13:44:56Z</time>
      </trkpt>
      <trkpt lat="48.38465" lon="4.52527">
        <ele>135.68</ele>
        <time>2021-08-10T13:45:05Z</time>
      </trkpt>
      <trkpt lat="48.38424" lon="4.52533">
        <ele>135.68</ele>
        <time>2021-08-10T13:45:13Z</time>
      </trkpt>
      <trkpt lat="48.38368" lon="4.52542">
        <ele>135.68</ele>
        <time>2021-08-10T13:45:24Z</time>
      </trkpt>
      <trkpt lat="48.38328" lon="4.52548">
        <ele>135.68</ele>
        <time>2021-08-10T13:45:32Z</time>
      </trkpt>
      <trkpt lat="48.38313" lon="4.52551">
        <ele>135.68</ele>
        <time>2021-08-10T13:45:35Z</time>
      </trkpt>
      <trkpt lat="48.38308" lon="4.52554">
        <ele>135.68</ele>
        <time>2021-08-10T13:45:36Z</time>
      </trkpt>
      <trkpt lat="48.38304" lon="4.52558">
        <ele>135.68</ele>
        <time>2021-08-10T13:45:37Z</time>
      </trkpt>
      <trkpt lat="48.383" lon="4.52563">
        <ele>135.68</ele>
        <time>2021-08-10T13:45:38Z</time>
      </trkpt>
      <trkpt lat="48.38297" lon="4.52567">
        <ele>135.68</ele>
        <time>2021-08-10T13:45:39Z</time>
      </trkpt>
      <trkpt lat="48.38284" lon="4.52583">
        <ele>135.68</ele>
        <time>2021-08-10T13:45:43Z</time>
      </trkpt>
      <trkpt lat="48.3828" lon="4.52582">
        <ele>135.68</ele>
        <time>2021-08-10T13:45:44Z</time>
      </trkpt>
      <trkpt lat="48.38277" lon="4.52581">
        <ele>135.68</ele>
        <time>2021-08-10T13:45:45Z</time>
      </trkpt>
      <trkpt lat="48.38243" lon="4.52566">
        <ele>135.2</ele>
        <time>2021-08-10T13:45:53Z</time>
      </trkpt>
      <trkpt lat="48.38198" lon="4.52568">
        <ele>135.2</ele>
        <time>2021-08-10T13:46:03Z</time>
      </trkpt>
      <trkpt lat="48.38145" lon="4.52573">
        <ele>136.16</ele>
        <time>2021-08-10T13:46:15Z</time>
      </trkpt>
      <trkpt lat="48.38101" lon="4.52574">
        <ele>136.16</ele>
        <time>2021-08-10T13:46:25Z</time>
      </trkpt>
      <trkpt lat="48.38047" lon="4.52573">
        <ele>136.16</ele>
        <time>2021-08-10T13:46:37Z</time>
      </trkpt>
      <trkpt lat="48.37994" lon="4.5257">
        <ele>136.16</ele>
        <time>2021-08-10T13:46:49Z</time>
      </trkpt>
      <trkpt lat="48.3793" lon="4.52564">
        <ele>136.16</ele>
        <time>2021-08-10T13:47:03Z</time>
      </trkpt>
      <trkpt lat="48.37882" lon="4.52561">
        <ele>136.16</ele>
        <time>2021-08-10T13:47:14Z</time>
      </trkpt>
      <trkpt lat="48.37839" lon="4.52558">
        <ele>136.16</ele>
        <time>2021-08-10T13:47:24Z</time>
      </trkpt>
      <trkpt lat="48.37834" lon="4.52558">
        <ele>136.16</ele>
        <time>2021-08-10T13:47:25Z</time>
      </trkpt>
      <trkpt lat="48.3779" lon="4.52555">
        <ele>135.68</ele>
        <time>2021-08-10T13:47:35Z</time>
      </trkpt>
      <trkpt lat="48.37751" lon="4.52551">
        <ele>136.64</ele>
        <time>2021-08-10T13:47:44Z</time>
      </trkpt>
      <trkpt lat="48.37694" lon="4.52548">
        <ele>136.64</ele>
        <time>2021-08-10T13:47:57Z</time>
      </trkpt>
      <trkpt lat="48.3765" lon="4.52546">
        <ele>136.64</ele>
        <time>2021-08-10T13:48:07Z</time>
      </trkpt>
      <trkpt lat="48.37623" lon="4.52546">
        <ele>135.2</ele>
        <time>2021-08-10T13:48:13Z</time>
      </trkpt>
      <trkpt lat="48.37588" lon="4.52542">
        <ele>135.2</ele>
        <time>2021-08-10T13:48:21Z</time>
      </trkpt>
      <trkpt lat="48.37567" lon="4.52543">
        <ele>134.24</ele>
        <time>2021-08-10T13:48:25Z</time>
      </trkpt>
      <trkpt lat="48.37563" lon="4.52544">
        <ele>134.24</ele>
        <time>2021-08-10T13:48:26Z</time>
      </trkpt>
      <trkpt lat="48.37558" lon="4.52545">
        <ele>134.24</ele>
        <time>2021-08-10T13:48:27Z</time>
      </trkpt>
      <trkpt lat="48.37521" lon="4.5255">
        <ele>133.28</ele>
        <time>2021-08-10T13:48:33Z</time>
      </trkpt>
      <trkpt lat="48.37477" lon="4.52566">
        <ele>132.8</ele>
        <time>2021-08-10T13:48:41Z</time>
      </trkpt>
      <trkpt lat="48.37472" lon="4.52567">
        <ele>132.8</ele>
        <time>2021-08-10T13:48:42Z</time>
      </trkpt>
      <trkpt lat="48.37468" lon="4.52565">
        <ele>132.8</ele>
        <time>2021-08-10T13:48:43Z</time>
      </trkpt>
      <trkpt lat="48.37465" lon="4.5256">
        <ele>132.8</ele>
        <time>2021-08-10T13:48:44Z</time>
      </trkpt>
      <trkpt lat="48.37463" lon="4.52555">
        <ele>132.8</ele>
        <time>2021-08-10T13:48:45Z</time>
      </trkpt>
      <trkpt lat="48.37462" lon="4.52549">
        <ele>132.8</ele>
        <time>2021-08-10T13:48:46Z</time>
      </trkpt>
      <trkpt lat="48.37447" lon="4.52484">
        <ele>132.8</ele>
        <time>2021-08-10T13:48:56Z</time>
      </trkpt>
      <trkpt lat="48.37432" lon="4.52423">
        <ele>132.8</ele>
        <time>2021-08-10T13:49:05Z</time>
      </trkpt>
      <trkpt lat="48.37417" lon="4.52379">
        <ele>132.8</ele>
        <time>2021-08-10T13:49:12Z</time>
      </trkpt>
      <trkpt lat="48.37414" lon="4.52373">
        <ele>132.8</ele>
        <time>2021-08-10T13:49:13Z</time>
      </trkpt>
      <trkpt lat="48.37411" lon="4.52367">
        <ele>132.8</ele>
        <time>2021-08-10T13:49:14Z</time>
      </trkpt>
      <trkpt lat="48.37382" lon="4.52313">
        <ele>132.8</ele>
        <time>2021-08-10T13:49:24Z</time>
      </trkpt>
      <trkpt lat="48.37367" lon="4.52282">
        <ele>134.24</ele>
        <time>2021-08-10T13:49:30Z</time>
      </trkpt>
      <trkpt lat="48.37343" lon="4.52238">
        <ele>134.72</ele>
        <time>2021-08-10T13:49:39Z</time>
      </trkpt>
      <trkpt lat="48.37316" lon="4.52186">
        <ele>135.2</ele>
        <time>2021-08-10T13:49:49Z</time>
      </trkpt>
      <trkpt lat="48.37313" lon="4.52181">
        <ele>135.2</ele>
        <time>2021-08-10T13:49:50Z</time>
      </trkpt>
      <trkpt lat="48.3731" lon="4.52174">
        <ele>135.2</ele>
        <time>2021-08-10T13:49:51Z</time>
      </trkpt>
      <trkpt lat="48.37281" lon="4.52122">
        <ele>135.2</ele>
        <time>2021-08-10T13:50:00Z</time>
      </trkpt>
      <trkpt lat="48.37255" lon="4.52072">
        <ele>136.16</ele>
        <time>2021-08-10T13:50:09Z</time>
      </trkpt>
      <trkpt lat="48.37234" lon="4.52033">
        <ele>137.61</ele>
        <time>2021-08-10T13:50:18Z</time>
      </trkpt>
      <trkpt lat="48.37217" lon="4.51999">
        <ele>138.57</ele>
        <time>2021-08-10T13:50:27Z</time>
      </trkpt>
      <trkpt lat="48.37204" lon="4.51975">
        <ele>139.05</ele>
        <time>2021-08-10T13:50:34Z</time>
      </trkpt>
      <trkpt lat="48.37189" lon="4.51952">
        <ele>140.01</ele>
        <time>2021-08-10T13:50:42Z</time>
      </trkpt>
      <trkpt lat="48.37175" lon="4.51927">
        <ele>140.97</ele>
        <time>2021-08-10T13:50:50Z</time>
      </trkpt>
      <trkpt lat="48.37158" lon="4.51896">
        <ele>142.41</ele>
        <time>2021-08-10T13:50:59Z</time>
      </trkpt>
      <trkpt lat="48.37142" lon="4.51865">
        <ele>143.85</ele>
        <time>2021-08-10T13:51:08Z</time>
      </trkpt>
      <trkpt lat="48.3713" lon="4.51842">
        <ele>144.82</ele>
        <time>2021-08-10T13:51:15Z</time>
      </trkpt>
      <trkpt lat="48.37115" lon="4.51815">
        <ele>145.78</ele>
        <time>2021-08-10T13:51:24Z</time>
      </trkpt>
      <trkpt lat="48.37098" lon="4.51786">
        <ele>147.7</ele>
        <time>2021-08-10T13:51:33Z</time>
      </trkpt>
      <trkpt lat="48.37079" lon="4.51762">
        <ele>149.62</ele>
        <time>2021-08-10T13:51:42Z</time>
      </trkpt>
      <trkpt lat="48.37057" lon="4.51744">
        <ele>150.58</ele>
        <time>2021-08-10T13:51:53Z</time>
      </trkpt>
      <trkpt lat="48.37037" lon="4.51731">
        <ele>152.03</ele>
        <time>2021-08-10T13:52:02Z</time>
      </trkpt>
      <trkpt lat="48.37017" lon="4.51718">
        <ele>153.47</ele>
        <time>2021-08-10T13:52:11Z</time>
      </trkpt>
      <trkpt lat="48.36999" lon="4.51706">
        <ele>155.39</ele>
        <time>2021-08-10T13:52:19Z</time>
      </trkpt>
      <trkpt lat="48.36982" lon="4.51694">
        <ele>156.35</ele>
        <time>2021-08-10T13:52:28Z</time>
      </trkpt>
      <trkpt lat="48.36968" lon="4.5168">
        <ele>157.79</ele>
        <time>2021-08-10T13:52:36Z</time>
      </trkpt>
      <trkpt lat="48.3695" lon="4.51659">
        <ele>159.72</ele>
        <time>2021-08-10T13:52:47Z</time>
      </trkpt>
      <trkpt lat="48.36934" lon="4.5164">
        <ele>160.2</ele>
        <time>2021-08-10T13:52:55Z</time>
      </trkpt>
      <trkpt lat="48.36914" lon="4.51615">
        <ele>160.68</ele>
        <time>2021-08-10T13:53:04Z</time>
      </trkpt>
      <trkpt lat="48.36881" lon="4.51577">
        <ele>161.16</ele>
        <time>2021-08-10T13:53:16Z</time>
      </trkpt>
      <trkpt lat="48.36856" lon="4.51551">
        <ele>161.16</ele>
        <time>2021-08-10T13:53:24Z</time>
      </trkpt>
      <trkpt lat="48.36852" lon="4.51547">
        <ele>161.16</ele>
        <time>2021-08-10T13:53:25Z</time>
      </trkpt>
      <trkpt lat="48.36849" lon="4.51545">
        <ele>161.16</ele>
        <time>2021-08-10T13:53:26Z</time>
      </trkpt>
      <trkpt lat="48.36845" lon="4.51542">
        <ele>161.16</ele>
        <time>2021-08-10T13:53:27Z</time>
      </trkpt>
      <trkpt lat="48.36842" lon="4.51539">
        <ele>161.16</ele>
        <time>2021-08-10T13:53:28Z</time>
      </trkpt>
      <trkpt lat="48.36838" lon="4.51537">
        <ele>161.16</ele>
        <time>2021-08-10T13:53:29Z</time>
      </trkpt>
      <trkpt lat="48.36834" lon="4.51534">
        <ele>161.16</ele>
        <time>2021-08-10T13:53:30Z</time>
      </trkpt>
      <trkpt lat="48.3683" lon="4.51532">
        <ele>161.16</ele>
        <time>2021-08-10T13:53:31Z</time>
      </trkpt>
      <trkpt lat="48.36827" lon="4.5153">
        <ele>161.16</ele>
        <time>2021-08-10T13:53:32Z</time>
      </trkpt>
      <trkpt lat="48.36798" lon="4.51513">
        <ele>158.75</ele>
        <time>2021-08-10T13:53:39Z</time>
      </trkpt>
      <trkpt lat="48.36794" lon="4.51511">
        <ele>158.75</ele>
        <time>2021-08-10T13:53:40Z</time>
      </trkpt>
      <trkpt lat="48.36753" lon="4.51484">
        <ele>156.83</ele>
        <time>2021-08-10T13:53:48Z</time>
      </trkpt>
      <trkpt lat="48.36694" lon="4.51449">
        <ele>153.95</ele>
        <time>2021-08-10T13:53:57Z</time>
      </trkpt>
      <trkpt lat="48.3662" lon="4.51403">
        <ele>150.58</ele>
        <time>2021-08-10T13:54:07Z</time>
      </trkpt>
      <trkpt lat="48.36549" lon="4.51347">
        <ele>148.66</ele>
        <time>2021-08-10T13:54:17Z</time>
      </trkpt>
      <trkpt lat="48.36478" lon="4.51289">
        <ele>147.22</ele>
        <time>2021-08-10T13:54:28Z</time>
      </trkpt>
      <trkpt lat="48.36413" lon="4.51236">
        <ele>145.78</ele>
        <time>2021-08-10T13:54:38Z</time>
      </trkpt>
      <trkpt lat="48.36331" lon="4.51171">
        <ele>144.82</ele>
        <time>2021-08-10T13:54:51Z</time>
      </trkpt>
      <trkpt lat="48.36266" lon="4.51117">
        <ele>144.34</ele>
        <time>2021-08-10T13:55:02Z</time>
      </trkpt>
      <trkpt lat="48.36201" lon="4.51065">
        <ele>143.85</ele>
        <time>2021-08-10T13:55:13Z</time>
      </trkpt>
      <trkpt lat="48.36154" lon="4.51027">
        <ele>143.37</ele>
        <time>2021-08-10T13:55:21Z</time>
      </trkpt>
      <trkpt lat="48.36093" lon="4.50981">
        <ele>142.89</ele>
        <time>2021-08-10T13:55:32Z</time>
      </trkpt>
      <trkpt lat="48.3604" lon="4.50947">
        <ele>140.49</ele>
        <time>2021-08-10T13:55:41Z</time>
      </trkpt>
      <trkpt lat="48.3602" lon="4.50933">
        <ele>140.01</ele>
        <time>2021-08-10T13:55:44Z</time>
      </trkpt>
      <trkpt lat="48.36014" lon="4.50927">
        <ele>139.53</ele>
        <time>2021-08-10T13:55:45Z</time>
      </trkpt>
      <trkpt lat="48.36009" lon="4.50919">
        <ele>139.05</ele>
        <time>2021-08-10T13:55:46Z</time>
      </trkpt>
      <trkpt lat="48.36004" lon="4.5091">
        <ele>139.05</ele>
        <time>2021-08-10T13:55:47Z</time>
      </trkpt>
      <trkpt lat="48.36001" lon="4.509">
        <ele>139.05</ele>
        <time>2021-08-10T13:55:48Z</time>
      </trkpt>
      <trkpt lat="48.35998" lon="4.50891">
        <ele>139.05</ele>
        <time>2021-08-10T13:55:49Z</time>
      </trkpt>
      <trkpt lat="48.35984" lon="4.50831">
        <ele>140.49</ele>
        <time>2021-08-10T13:55:56Z</time>
      </trkpt>
      <trkpt lat="48.35983" lon="4.50823">
        <ele>140.49</ele>
        <time>2021-08-10T13:55:57Z</time>
      </trkpt>
      <trkpt lat="48.35962" lon="4.50761">
        <ele>140.97</ele>
        <time>2021-08-10T13:56:06Z</time>
      </trkpt>
      <trkpt lat="48.3594" lon="4.50699">
        <ele>140.97</ele>
        <time>2021-08-10T13:56:15Z</time>
      </trkpt>
      <trkpt lat="48.35923" lon="4.50648">
        <ele>140.97</ele>
        <time>2021-08-10T13:56:23Z</time>
      </trkpt>
      <trkpt lat="48.35919" lon="4.5064">
        <ele>140.97</ele>
        <time>2021-08-10T13:56:26Z</time>
      </trkpt>
      <trkpt lat="48.35916" lon="4.50645">
        <ele>140.97</ele>
        <time>2021-08-10T13:56:28Z</time>
      </trkpt>
      <trkpt lat="48.35929" lon="4.5066">
        <ele>140.97</ele>
        <time>2021-08-10T13:56:34Z</time>
      </trkpt>
      <trkpt lat="48.35942" lon="4.50649">
        <ele>141.45</ele>
        <time>2021-08-10T13:56:39Z</time>
      </trkpt>
      <trkpt lat="48.35956" lon="4.50626">
        <ele>142.41</ele>
        <time>2021-08-10T13:56:46Z</time>
      </trkpt>
      <trkpt lat="48.35957" lon="4.50624">
        <ele>142.89</ele>
        <time>2021-08-10T13:56:50Z</time>
      </trkpt>
      <trkpt lat="48.35957" lon="4.50624">
        <ele>142.89</ele>
        <time>2021-08-10T13:56:59Z</time>
      </trkpt>
      <trkpt lat="48.35957" lon="4.50623">
        <ele>142.89</ele>
        <time>2021-08-10T13:57:15Z</time>
      </trkpt>
      <trkpt lat="48.35956" lon="4.50623">
        <ele>142.89</ele>
        <time>2021-08-10T13:57:31Z</time>
      </trkpt>
      <trkpt lat="48.35956" lon="4.50623">
        <ele>142.41</ele>
        <time>2021-08-10T13:57:43Z</time>
      </trkpt>
      <trkpt lat="48.35957" lon="4.50624">
        <ele>142.41</ele>
        <time>2021-08-10T13:57:55Z</time>
      </trkpt>
      <trkpt lat="48.35956" lon="4.50624">
        <ele>142.41</ele>
        <time>2021-08-10T13:58:06Z</time>
      </trkpt>
      <trkpt lat="48.35956" lon="4.50624">
        <ele>142.41</ele>
        <time>2021-08-10T13:58:17Z</time>
      </trkpt>
      <trkpt lat="48.35957" lon="4.50624">
        <ele>142.41</ele>
        <time>2021-08-10T13:58:29Z</time>
      </trkpt>
      <trkpt lat="48.35956" lon="4.50624">
        <ele>142.41</ele>
        <time>2021-08-10T13:58:38Z</time>
      </trkpt>
      <trkpt lat="48.35956" lon="4.50624">
        <ele>142.89</ele>
        <time>2021-08-10T13:58:50Z</time>
      </trkpt>
      <trkpt lat="48.35956" lon="4.50625">
        <ele>142.89</ele>
        <time>2021-08-10T13:59:01Z</time>
      </trkpt>
      <trkpt lat="48.35956" lon="4.50625">
        <ele>142.89</ele>
        <time>2021-08-10T13:59:12Z</time>
      </trkpt>
      <trkpt lat="48.35956" lon="4.50625">
        <ele>142.89</ele>
        <time>2021-08-10T13:59:22Z</time>
      </trkpt>
      <trkpt lat="48.35956" lon="4.50625">
        <ele>142.89</ele>
        <time>2021-08-10T13:59:36Z</time>
      </trkpt>
      <trkpt lat="48.35956" lon="4.50625">
        <ele>142.89</ele>
        <time>2021-08-10T13:59:49Z</time>
      </trkpt>
      <trkpt lat="48.35956" lon="4.50625">
        <ele>142.89</ele>
        <time>2021-08-10T14:00:02Z</time>
      </trkpt>
      <trkpt lat="48.35957" lon="4.50626">
        <ele>142.89</ele>
        <time>2021-08-10T14:00:14Z</time>
      </trkpt>
      <trkpt lat="48.35945" lon="4.50632">
        <ele>141.45</ele>
        <time>2021-08-10T14:00:21Z</time>
      </trkpt>
      <trkpt lat="48.35943" lon="4.50634">
        <ele>141.45</ele>
        <time>2021-08-10T14:00:22Z</time>
      </trkpt>
      <trkpt lat="48.35935" lon="4.50656">
        <ele>140.49</ele>
        <time>2021-08-10T14:00:27Z</time>
      </trkpt>
      <trkpt lat="48.3593" lon="4.5066">
        <ele>140.49</ele>
        <time>2021-08-10T14:00:29Z</time>
      </trkpt>
      <trkpt lat="48.35927" lon="4.50658">
        <ele>140.49</ele>
        <time>2021-08-10T14:00:30Z</time>
      </trkpt>
      <trkpt lat="48.35925" lon="4.50655">
        <ele>139.53</ele>
        <time>2021-08-10T14:00:31Z</time>
      </trkpt>
      <trkpt lat="48.35923" lon="4.50651">
        <ele>139.53</ele>
        <time>2021-08-10T14:00:32Z</time>
      </trkpt>
      <trkpt lat="48.35922" lon="4.50647">
        <ele>139.53</ele>
        <time>2021-08-10T14:00:33Z</time>
      </trkpt>
      <trkpt lat="48.3592" lon="4.50641">
        <ele>139.53</ele>
        <time>2021-08-10T14:00:34Z</time>
      </trkpt>
      <trkpt lat="48.35919" lon="4.50635">
        <ele>139.53</ele>
        <time>2021-08-10T14:00:35Z</time>
      </trkpt>
      <trkpt lat="48.35917" lon="4.50629">
        <ele>139.05</ele>
        <time>2021-08-10T14:00:36Z</time>
      </trkpt>
      <trkpt lat="48.35915" lon="4.50622">
        <ele>139.05</ele>
        <time>2021-08-10T14:00:37Z</time>
      </trkpt>
      <trkpt lat="48.35914" lon="4.50616">
        <ele>138.57</ele>
        <time>2021-08-10T14:00:38Z</time>
      </trkpt>
      <trkpt lat="48.35907" lon="4.5059">
        <ele>138.09</ele>
        <time>2021-08-10T14:00:42Z</time>
      </trkpt>
      <trkpt lat="48.35904" lon="4.50585">
        <ele>138.09</ele>
        <time>2021-08-10T14:00:43Z</time>
      </trkpt>
      <trkpt lat="48.359" lon="4.50581">
        <ele>137.13</ele>
        <time>2021-08-10T14:00:44Z</time>
      </trkpt>
      <trkpt lat="48.35895" lon="4.50579">
        <ele>137.13</ele>
        <time>2021-08-10T14:00:45Z</time>
      </trkpt>
      <trkpt lat="48.35892" lon="4.50578">
        <ele>137.13</ele>
        <time>2021-08-10T14:00:46Z</time>
      </trkpt>
      <trkpt lat="48.35888" lon="4.50578">
        <ele>137.13</ele>
        <time>2021-08-10T14:00:47Z</time>
      </trkpt>
      <trkpt lat="48.35885" lon="4.50577">
        <ele>137.13</ele>
        <time>2021-08-10T14:00:48Z</time>
      </trkpt>
      <trkpt lat="48.35855" lon="4.50575">
        <ele>136.64</ele>
        <time>2021-08-10T14:00:55Z</time>
      </trkpt>
      <trkpt lat="48.3585" lon="4.50575">
        <ele>136.64</ele>
        <time>2021-08-10T14:00:56Z</time>
      </trkpt>
      <trkpt lat="48.35845" lon="4.50576">
        <ele>136.64</ele>
        <time>2021-08-10T14:00:57Z</time>
      </trkpt>
      <trkpt lat="48.35827" lon="4.50585">
        <ele>134.72</ele>
        <time>2021-08-10T14:01:00Z</time>
      </trkpt>
      <trkpt lat="48.3578" lon="4.5062">
        <ele>132.8</ele>
        <time>2021-08-10T14:01:08Z</time>
      </trkpt>
      <trkpt lat="48.35749" lon="4.50639">
        <ele>134.72</ele>
        <time>2021-08-10T14:01:15Z</time>
      </trkpt>
      <trkpt lat="48.35732" lon="4.50646">
        <ele>135.68</ele>
        <time>2021-08-10T14:01:22Z</time>
      </trkpt>
      <trkpt lat="48.35709" lon="4.50648">
        <ele>137.13</ele>
        <time>2021-08-10T14:01:31Z</time>
      </trkpt>
      <trkpt lat="48.35685" lon="4.50648">
        <ele>138.57</ele>
        <time>2021-08-10T14:01:40Z</time>
      </trkpt>
      <trkpt lat="48.35663" lon="4.50645">
        <ele>140.01</ele>
        <time>2021-08-10T14:01:49Z</time>
      </trkpt>
      <trkpt lat="48.35641" lon="4.50637">
        <ele>140.01</ele>
        <time>2021-08-10T14:01:58Z</time>
      </trkpt>
      <trkpt lat="48.35631" lon="4.50643">
        <ele>140.97</ele>
        <time>2021-08-10T14:02:03Z</time>
      </trkpt>
      <trkpt lat="48.35622" lon="4.50637">
        <ele>141.93</ele>
        <time>2021-08-10T14:02:08Z</time>
      </trkpt>
      <trkpt lat="48.35613" lon="4.50611">
        <ele>143.85</ele>
        <time>2021-08-10T14:02:19Z</time>
      </trkpt>
      <trkpt lat="48.35602" lon="4.50581">
        <ele>144.82</ele>
        <time>2021-08-10T14:02:30Z</time>
      </trkpt>
      <trkpt lat="48.35588" lon="4.50548">
        <ele>146.74</ele>
        <time>2021-08-10T14:02:42Z</time>
      </trkpt>
      <trkpt lat="48.35577" lon="4.50518">
        <ele>147.7</ele>
        <time>2021-08-10T14:02:50Z</time>
      </trkpt>
      <trkpt lat="48.35558" lon="4.50463">
        <ele>147.22</ele>
        <time>2021-08-10T14:03:01Z</time>
      </trkpt>
      <trkpt lat="48.3554" lon="4.50405">
        <ele>147.22</ele>
        <time>2021-08-10T14:03:11Z</time>
      </trkpt>
      <trkpt lat="48.35513" lon="4.50323">
        <ele>147.22</ele>
        <time>2021-08-10T14:03:24Z</time>
      </trkpt>
      <trkpt lat="48.35508" lon="4.50311">
        <ele>147.22</ele>
        <time>2021-08-10T14:03:26Z</time>
      </trkpt>
      <trkpt lat="48.35489" lon="4.50251">
        <ele>147.22</ele>
        <time>2021-08-10T14:03:35Z</time>
      </trkpt>
      <trkpt lat="48.35471" lon="4.50192">
        <ele>147.22</ele>
        <time>2021-08-10T14:03:44Z</time>
      </trkpt>
      <trkpt lat="48.35448" lon="4.50121">
        <ele>146.26</ele>
        <time>2021-08-10T14:03:55Z</time>
      </trkpt>
      <trkpt lat="48.35428" lon="4.50057">
        <ele>146.26</ele>
        <time>2021-08-10T14:04:05Z</time>
      </trkpt>
      <trkpt lat="48.35401" lon="4.49982">
        <ele>146.26</ele>
        <time>2021-08-10T14:04:17Z</time>
      </trkpt>
      <trkpt lat="48.35399" lon="4.49975">
        <ele>146.26</ele>
        <time>2021-08-10T14:04:18Z</time>
      </trkpt>
      <trkpt lat="48.35375" lon="4.49895">
        <ele>146.26</ele>
        <time>2021-08-10T14:04:30Z</time>
      </trkpt>
      <trkpt lat="48.35353" lon="4.49829">
        <ele>146.26</ele>
        <time>2021-08-10T14:04:40Z</time>
      </trkpt>
      <trkpt lat="48.35347" lon="4.49809">
        <ele>147.22</ele>
        <time>2021-08-10T14:04:43Z</time>
      </trkpt>
      <trkpt lat="48.35334" lon="4.49768">
        <ele>147.22</ele>
        <time>2021-08-10T14:04:49Z</time>
      </trkpt>
      <trkpt lat="48.35312" lon="4.49702">
        <ele>147.22</ele>
        <time>2021-08-10T14:04:59Z</time>
      </trkpt>
      <trkpt lat="48.3529" lon="4.49635">
        <ele>147.22</ele>
        <time>2021-08-10T14:05:09Z</time>
      </trkpt>
      <trkpt lat="48.35266" lon="4.49562">
        <ele>147.22</ele>
        <time>2021-08-10T14:05:20Z</time>
      </trkpt>
      <trkpt lat="48.35238" lon="4.49483">
        <ele>147.22</ele>
        <time>2021-08-10T14:05:32Z</time>
      </trkpt>
      <trkpt lat="48.35205" lon="4.49424">
        <ele>147.22</ele>
        <time>2021-08-10T14:05:42Z</time>
      </trkpt>
      <trkpt lat="48.35165" lon="4.49376">
        <ele>146.26</ele>
        <time>2021-08-10T14:05:52Z</time>
      </trkpt>
      <trkpt lat="48.35149" lon="4.49359">
        <ele>145.78</ele>
        <time>2021-08-10T14:05:56Z</time>
      </trkpt>
      <trkpt lat="48.35116" lon="4.49326">
        <ele>146.26</ele>
        <time>2021-08-10T14:06:04Z</time>
      </trkpt>
      <trkpt lat="48.35075" lon="4.49281">
        <ele>145.78</ele>
        <time>2021-08-10T14:06:14Z</time>
      </trkpt>
      <trkpt lat="48.35038" lon="4.49243">
        <ele>145.78</ele>
        <time>2021-08-10T14:06:23Z</time>
      </trkpt>
      <trkpt lat="48.34997" lon="4.492">
        <ele>145.78</ele>
        <time>2021-08-10T14:06:33Z</time>
      </trkpt>
      <trkpt lat="48.34952" lon="4.49152">
        <ele>145.78</ele>
        <time>2021-08-10T14:06:44Z</time>
      </trkpt>
      <trkpt lat="48.34911" lon="4.49109">
        <ele>145.78</ele>
        <time>2021-08-10T14:06:54Z</time>
      </trkpt>
      <trkpt lat="48.3487" lon="4.49067">
        <ele>145.78</ele>
        <time>2021-08-10T14:07:04Z</time>
      </trkpt>
      <trkpt lat="48.34858" lon="4.49054">
        <ele>147.22</ele>
        <time>2021-08-10T14:07:07Z</time>
      </trkpt>
      <trkpt lat="48.34822" lon="4.49016">
        <ele>147.22</ele>
        <time>2021-08-10T14:07:16Z</time>
      </trkpt>
      <trkpt lat="48.34782" lon="4.48973">
        <ele>147.22</ele>
        <time>2021-08-10T14:07:26Z</time>
      </trkpt>
      <trkpt lat="48.34737" lon="4.48925">
        <ele>147.22</ele>
        <time>2021-08-10T14:07:37Z</time>
      </trkpt>
      <trkpt lat="48.34701" lon="4.48888">
        <ele>147.22</ele>
        <time>2021-08-10T14:07:46Z</time>
      </trkpt>
      <trkpt lat="48.34688" lon="4.48876">
        <ele>147.22</ele>
        <time>2021-08-10T14:07:49Z</time>
      </trkpt>
      <trkpt lat="48.34685" lon="4.48873">
        <ele>147.22</ele>
        <time>2021-08-10T14:07:50Z</time>
      </trkpt>
      <trkpt lat="48.3468" lon="4.48872">
        <ele>147.22</ele>
        <time>2021-08-10T14:07:51Z</time>
      </trkpt>
      <trkpt lat="48.34677" lon="4.48872">
        <ele>147.7</ele>
        <time>2021-08-10T14:07:52Z</time>
      </trkpt>
      <trkpt lat="48.34672" lon="4.48873">
        <ele>147.7</ele>
        <time>2021-08-10T14:07:53Z</time>
      </trkpt>
      <trkpt lat="48.34669" lon="4.48874">
        <ele>147.7</ele>
        <time>2021-08-10T14:07:54Z</time>
      </trkpt>
      <trkpt lat="48.34665" lon="4.48874">
        <ele>147.7</ele>
        <time>2021-08-10T14:07:55Z</time>
      </trkpt>
      <trkpt lat="48.34662" lon="4.48873">
        <ele>148.18</ele>
        <time>2021-08-10T14:07:56Z</time>
      </trkpt>
      <trkpt lat="48.34659" lon="4.48872">
        <ele>148.18</ele>
        <time>2021-08-10T14:07:57Z</time>
      </trkpt>
      <trkpt lat="48.34656" lon="4.48868">
        <ele>148.66</ele>
        <time>2021-08-10T14:07:58Z</time>
      </trkpt>
      <trkpt lat="48.34654" lon="4.48862">
        <ele>149.62</ele>
        <time>2021-08-10T14:07:59Z</time>
      </trkpt>
      <trkpt lat="48.34652" lon="4.48859">
        <ele>149.14</ele>
        <time>2021-08-10T14:08:00Z</time>
      </trkpt>
      <trkpt lat="48.34644" lon="4.48816">
        <ele>150.58</ele>
        <time>2021-08-10T14:08:08Z</time>
      </trkpt>
      <trkpt lat="48.34642" lon="4.48785">
        <ele>152.03</ele>
        <time>2021-08-10T14:08:14Z</time>
      </trkpt>
      <trkpt lat="48.34634" lon="4.48761">
        <ele>152.03</ele>
        <time>2021-08-10T14:08:19Z</time>
      </trkpt>
      <trkpt lat="48.34623" lon="4.48748">
        <ele>152.03</ele>
        <time>2021-08-10T14:08:23Z</time>
      </trkpt>
      <trkpt lat="48.34619" lon="4.48744">
        <ele>152.03</ele>
        <time>2021-08-10T14:08:24Z</time>
      </trkpt>
      <trkpt lat="48.34601" lon="4.48728">
        <ele>152.03</ele>
        <time>2021-08-10T14:08:29Z</time>
      </trkpt>
      <trkpt lat="48.34596" lon="4.48724">
        <ele>152.03</ele>
        <time>2021-08-10T14:08:30Z</time>
      </trkpt>
      <trkpt lat="48.34559" lon="4.48691">
        <ele>152.03</ele>
        <time>2021-08-10T14:08:40Z</time>
      </trkpt>
      <trkpt lat="48.34544" lon="4.48677">
        <ele>152.99</ele>
        <time>2021-08-10T14:08:44Z</time>
      </trkpt>
      <trkpt lat="48.34528" lon="4.48666">
        <ele>152.99</ele>
        <time>2021-08-10T14:08:48Z</time>
      </trkpt>
      <trkpt lat="48.34524" lon="4.48665">
        <ele>152.51</ele>
        <time>2021-08-10T14:08:49Z</time>
      </trkpt>
      <trkpt lat="48.3452" lon="4.48667">
        <ele>152.51</ele>
        <time>2021-08-10T14:08:50Z</time>
      </trkpt>
      <trkpt lat="48.34516" lon="4.4867">
        <ele>152.99</ele>
        <time>2021-08-10T14:08:51Z</time>
      </trkpt>
      <trkpt lat="48.34513" lon="4.48676">
        <ele>152.99</ele>
        <time>2021-08-10T14:08:52Z</time>
      </trkpt>
      <trkpt lat="48.34511" lon="4.48681">
        <ele>152.99</ele>
        <time>2021-08-10T14:08:53Z</time>
      </trkpt>
      <trkpt lat="48.3451" lon="4.48689">
        <ele>152.99</ele>
        <time>2021-08-10T14:08:54Z</time>
      </trkpt>
      <trkpt lat="48.3451" lon="4.48696">
        <ele>152.51</ele>
        <time>2021-08-10T14:08:55Z</time>
      </trkpt>
      <trkpt lat="48.34511" lon="4.48703">
        <ele>152.99</ele>
        <time>2021-08-10T14:08:56Z</time>
      </trkpt>
      <trkpt lat="48.34511" lon="4.48711">
        <ele>152.99</ele>
        <time>2021-08-10T14:08:57Z</time>
      </trkpt>
      <trkpt lat="48.34512" lon="4.48718">
        <ele>152.99</ele>
        <time>2021-08-10T14:08:58Z</time>
      </trkpt>
      <trkpt lat="48.34522" lon="4.48778">
        <ele>152.51</ele>
        <time>2021-08-10T14:09:06Z</time>
      </trkpt>
      <trkpt lat="48.34523" lon="4.48786">
        <ele>152.99</ele>
        <time>2021-08-10T14:09:07Z</time>
      </trkpt>
      <trkpt lat="48.3453" lon="4.4885">
        <ele>152.99</ele>
        <time>2021-08-10T14:09:15Z</time>
      </trkpt>
      <trkpt lat="48.34536" lon="4.48938">
        <ele>150.1</ele>
        <time>2021-08-10T14:09:25Z</time>
      </trkpt>
      <trkpt lat="48.34542" lon="4.49026">
        <ele>147.7</ele>
        <time>2021-08-10T14:09:33Z</time>
      </trkpt>
      <trkpt lat="48.34544" lon="4.49074">
        <ele>146.26</ele>
        <time>2021-08-10T14:09:37Z</time>
      </trkpt>
      <trkpt lat="48.34544" lon="4.49087">
        <ele>145.78</ele>
        <time>2021-08-10T14:09:38Z</time>
      </trkpt>
      <trkpt lat="48.34542" lon="4.49097">
        <ele>145.78</ele>
        <time>2021-08-10T14:09:39Z</time>
      </trkpt>
      <trkpt lat="48.34539" lon="4.49108">
        <ele>144.82</ele>
        <time>2021-08-10T14:09:40Z</time>
      </trkpt>
      <trkpt lat="48.34534" lon="4.49118">
        <ele>144.82</ele>
        <time>2021-08-10T14:09:41Z</time>
      </trkpt>
      <trkpt lat="48.34529" lon="4.49125">
        <ele>144.82</ele>
        <time>2021-08-10T14:09:42Z</time>
      </trkpt>
      <trkpt lat="48.34524" lon="4.49131">
        <ele>144.82</ele>
        <time>2021-08-10T14:09:43Z</time>
      </trkpt>
      <trkpt lat="48.34487" lon="4.49167">
        <ele>145.3</ele>
        <time>2021-08-10T14:09:50Z</time>
      </trkpt>
      <trkpt lat="48.34481" lon="4.49171">
        <ele>145.3</ele>
        <time>2021-08-10T14:09:51Z</time>
      </trkpt>
      <trkpt lat="48.34475" lon="4.49173">
        <ele>145.3</ele>
        <time>2021-08-10T14:09:52Z</time>
      </trkpt>
      <trkpt lat="48.34468" lon="4.49173">
        <ele>145.3</ele>
        <time>2021-08-10T14:09:53Z</time>
      </trkpt>
      <trkpt lat="48.34462" lon="4.49172">
        <ele>145.3</ele>
        <time>2021-08-10T14:09:54Z</time>
      </trkpt>
      <trkpt lat="48.34456" lon="4.49171">
        <ele>145.3</ele>
        <time>2021-08-10T14:09:55Z</time>
      </trkpt>
      <trkpt lat="48.34423" lon="4.49162">
        <ele>145.3</ele>
        <time>2021-08-10T14:10:01Z</time>
      </trkpt>
      <trkpt lat="48.34402" lon="4.49159">
        <ele>145.3</ele>
        <time>2021-08-10T14:10:05Z</time>
      </trkpt>
      <trkpt lat="48.34396" lon="4.4916">
        <ele>145.3</ele>
        <time>2021-08-10T14:10:06Z</time>
      </trkpt>
      <trkpt lat="48.34391" lon="4.49161">
        <ele>145.3</ele>
        <time>2021-08-10T14:10:07Z</time>
      </trkpt>
      <trkpt lat="48.34386" lon="4.49164">
        <ele>145.3</ele>
        <time>2021-08-10T14:10:08Z</time>
      </trkpt>
      <trkpt lat="48.34381" lon="4.49167">
        <ele>145.3</ele>
        <time>2021-08-10T14:10:09Z</time>
      </trkpt>
      <trkpt lat="48.34376" lon="4.4917">
        <ele>145.3</ele>
        <time>2021-08-10T14:10:10Z</time>
      </trkpt>
      <trkpt lat="48.34371" lon="4.49175">
        <ele>145.3</ele>
        <time>2021-08-10T14:10:11Z</time>
      </trkpt>
      <trkpt lat="48.34366" lon="4.4918">
        <ele>145.3</ele>
        <time>2021-08-10T14:10:12Z</time>
      </trkpt>
      <trkpt lat="48.34363" lon="4.49187">
        <ele>145.3</ele>
        <time>2021-08-10T14:10:13Z</time>
      </trkpt>
      <trkpt lat="48.3436" lon="4.49193">
        <ele>145.3</ele>
        <time>2021-08-10T14:10:14Z</time>
      </trkpt>
      <trkpt lat="48.34357" lon="4.49201">
        <ele>145.3</ele>
        <time>2021-08-10T14:10:15Z</time>
      </trkpt>
      <trkpt lat="48.34354" lon="4.49209">
        <ele>145.3</ele>
        <time>2021-08-10T14:10:16Z</time>
      </trkpt>
      <trkpt lat="48.34352" lon="4.49217">
        <ele>145.3</ele>
        <time>2021-08-10T14:10:17Z</time>
      </trkpt>
      <trkpt lat="48.34347" lon="4.49242">
        <ele>145.3</ele>
        <time>2021-08-10T14:10:20Z</time>
      </trkpt>
      <trkpt lat="48.34343" lon="4.4925">
        <ele>145.3</ele>
        <time>2021-08-10T14:10:21Z</time>
      </trkpt>
      <trkpt lat="48.3434" lon="4.49257">
        <ele>145.3</ele>
        <time>2021-08-10T14:10:22Z</time>
      </trkpt>
      <trkpt lat="48.34336" lon="4.49264">
        <ele>145.3</ele>
        <time>2021-08-10T14:10:23Z</time>
      </trkpt>
      <trkpt lat="48.34332" lon="4.4927">
        <ele>145.3</ele>
        <time>2021-08-10T14:10:24Z</time>
      </trkpt>
      <trkpt lat="48.34298" lon="4.49314">
        <ele>145.3</ele>
        <time>2021-08-10T14:10:32Z</time>
      </trkpt>
      <trkpt lat="48.34256" lon="4.49364">
        <ele>145.3</ele>
        <time>2021-08-10T14:10:42Z</time>
      </trkpt>
      <trkpt lat="48.34237" lon="4.49389">
        <ele>145.3</ele>
        <time>2021-08-10T14:10:47Z</time>
      </trkpt>
      <trkpt lat="48.34234" lon="4.49396">
        <ele>145.3</ele>
        <time>2021-08-10T14:10:48Z</time>
      </trkpt>
      <trkpt lat="48.34231" lon="4.49402">
        <ele>145.3</ele>
        <time>2021-08-10T14:10:49Z</time>
      </trkpt>
      <trkpt lat="48.34229" lon="4.4941">
        <ele>145.3</ele>
        <time>2021-08-10T14:10:50Z</time>
      </trkpt>
      <trkpt lat="48.34228" lon="4.49417">
        <ele>145.3</ele>
        <time>2021-08-10T14:10:51Z</time>
      </trkpt>
      <trkpt lat="48.34222" lon="4.49472">
        <ele>145.3</ele>
        <time>2021-08-10T14:10:58Z</time>
      </trkpt>
      <trkpt lat="48.3422" lon="4.49479">
        <ele>145.3</ele>
        <time>2021-08-10T14:10:59Z</time>
      </trkpt>
      <trkpt lat="48.34218" lon="4.49486">
        <ele>145.3</ele>
        <time>2021-08-10T14:11:00Z</time>
      </trkpt>
      <trkpt lat="48.34215" lon="4.49493">
        <ele>145.3</ele>
        <time>2021-08-10T14:11:01Z</time>
      </trkpt>
      <trkpt lat="48.34211" lon="4.49499">
        <ele>145.3</ele>
        <time>2021-08-10T14:11:02Z</time>
      </trkpt>
      <trkpt lat="48.34208" lon="4.49505">
        <ele>145.3</ele>
        <time>2021-08-10T14:11:03Z</time>
      </trkpt>
      <trkpt lat="48.34202" lon="4.49516">
        <ele>145.3</ele>
        <time>2021-08-10T14:11:05Z</time>
      </trkpt>
      <trkpt lat="48.34198" lon="4.49521">
        <ele>145.3</ele>
        <time>2021-08-10T14:11:06Z</time>
      </trkpt>
      <trkpt lat="48.34194" lon="4.49525">
        <ele>144.82</ele>
        <time>2021-08-10T14:11:07Z</time>
      </trkpt>
      <trkpt lat="48.3419" lon="4.49527">
        <ele>144.82</ele>
        <time>2021-08-10T14:11:08Z</time>
      </trkpt>
      <trkpt lat="48.34185" lon="4.49527">
        <ele>145.3</ele>
        <time>2021-08-10T14:11:09Z</time>
      </trkpt>
      <trkpt lat="48.34181" lon="4.49524">
        <ele>146.26</ele>
        <time>2021-08-10T14:11:10Z</time>
      </trkpt>
      <trkpt lat="48.34177" lon="4.49519">
        <ele>146.26</ele>
        <time>2021-08-10T14:11:11Z</time>
      </trkpt>
      <trkpt lat="48.34174" lon="4.49514">
        <ele>146.26</ele>
        <time>2021-08-10T14:11:12Z</time>
      </trkpt>
      <trkpt lat="48.34149" lon="4.49474">
        <ele>146.74</ele>
        <time>2021-08-10T14:11:20Z</time>
      </trkpt>
      <trkpt lat="48.3414" lon="4.49459">
        <ele>146.74</ele>
        <time>2021-08-10T14:11:23Z</time>
      </trkpt>
      <trkpt lat="48.34134" lon="4.49449">
        <ele>146.74</ele>
        <time>2021-08-10T14:11:25Z</time>
      </trkpt>
      <trkpt lat="48.34123" lon="4.49436">
        <ele>146.74</ele>
        <time>2021-08-10T14:11:28Z</time>
      </trkpt>
      <trkpt lat="48.34119" lon="4.49436">
        <ele>146.74</ele>
        <time>2021-08-10T14:11:29Z</time>
      </trkpt>
      <trkpt lat="48.34114" lon="4.49438">
        <ele>145.78</ele>
        <time>2021-08-10T14:11:30Z</time>
      </trkpt>
      <trkpt lat="48.34109" lon="4.49443">
        <ele>145.78</ele>
        <time>2021-08-10T14:11:31Z</time>
      </trkpt>
      <trkpt lat="48.34106" lon="4.49447">
        <ele>145.78</ele>
        <time>2021-08-10T14:11:32Z</time>
      </trkpt>
      <trkpt lat="48.34102" lon="4.49452">
        <ele>145.78</ele>
        <time>2021-08-10T14:11:33Z</time>
      </trkpt>
      <trkpt lat="48.34097" lon="4.49456">
        <ele>145.78</ele>
        <time>2021-08-10T14:11:34Z</time>
      </trkpt>
      <trkpt lat="48.34093" lon="4.49459">
        <ele>145.78</ele>
        <time>2021-08-10T14:11:35Z</time>
      </trkpt>
      <trkpt lat="48.34088" lon="4.49461">
        <ele>145.78</ele>
        <time>2021-08-10T14:11:36Z</time>
      </trkpt>
      <trkpt lat="48.34083" lon="4.49462">
        <ele>145.78</ele>
        <time>2021-08-10T14:11:37Z</time>
      </trkpt>
      <trkpt lat="48.34019" lon="4.49482">
        <ele>145.78</ele>
        <time>2021-08-10T14:11:49Z</time>
      </trkpt>
      <trkpt lat="48.33999" lon="4.49489">
        <ele>145.78</ele>
        <time>2021-08-10T14:11:53Z</time>
      </trkpt>
      <trkpt lat="48.33995" lon="4.49491">
        <ele>145.78</ele>
        <time>2021-08-10T14:11:54Z</time>
      </trkpt>
      <trkpt lat="48.33991" lon="4.49495">
        <ele>145.78</ele>
        <time>2021-08-10T14:11:55Z</time>
      </trkpt>
      <trkpt lat="48.33988" lon="4.495">
        <ele>145.78</ele>
        <time>2021-08-10T14:11:56Z</time>
      </trkpt>
      <trkpt lat="48.33985" lon="4.49506">
        <ele>145.78</ele>
        <time>2021-08-10T14:11:57Z</time>
      </trkpt>
      <trkpt lat="48.33982" lon="4.49513">
        <ele>145.78</ele>
        <time>2021-08-10T14:11:58Z</time>
      </trkpt>
      <trkpt lat="48.33981" lon="4.4952">
        <ele>145.78</ele>
        <time>2021-08-10T14:11:59Z</time>
      </trkpt>
      <trkpt lat="48.3398" lon="4.49528">
        <ele>145.78</ele>
        <time>2021-08-10T14:12:00Z</time>
      </trkpt>
      <trkpt lat="48.33981" lon="4.49536">
        <ele>145.78</ele>
        <time>2021-08-10T14:12:01Z</time>
      </trkpt>
      <trkpt lat="48.33982" lon="4.49543">
        <ele>145.78</ele>
        <time>2021-08-10T14:12:02Z</time>
      </trkpt>
      <trkpt lat="48.33984" lon="4.4955">
        <ele>145.78</ele>
        <time>2021-08-10T14:12:03Z</time>
      </trkpt>
      <trkpt lat="48.33986" lon="4.49558">
        <ele>145.78</ele>
        <time>2021-08-10T14:12:04Z</time>
      </trkpt>
      <trkpt lat="48.33988" lon="4.49565">
        <ele>145.78</ele>
        <time>2021-08-10T14:12:05Z</time>
      </trkpt>
      <trkpt lat="48.3401" lon="4.4964">
        <ele>145.3</ele>
        <time>2021-08-10T14:12:15Z</time>
      </trkpt>
      <trkpt lat="48.34014" lon="4.49655">
        <ele>145.3</ele>
        <time>2021-08-10T14:12:17Z</time>
      </trkpt>
      <trkpt lat="48.34015" lon="4.49664">
        <ele>145.3</ele>
        <time>2021-08-10T14:12:18Z</time>
      </trkpt>
      <trkpt lat="48.34015" lon="4.49672">
        <ele>145.3</ele>
        <time>2021-08-10T14:12:19Z</time>
      </trkpt>
      <trkpt lat="48.34014" lon="4.4968">
        <ele>145.3</ele>
        <time>2021-08-10T14:12:20Z</time>
      </trkpt>
      <trkpt lat="48.34011" lon="4.49687">
        <ele>145.3</ele>
        <time>2021-08-10T14:12:21Z</time>
      </trkpt>
      <trkpt lat="48.34007" lon="4.49693">
        <ele>145.3</ele>
        <time>2021-08-10T14:12:22Z</time>
      </trkpt>
      <trkpt lat="48.34003" lon="4.49699">
        <ele>145.3</ele>
        <time>2021-08-10T14:12:23Z</time>
      </trkpt>
      <trkpt lat="48.34" lon="4.49704">
        <ele>145.3</ele>
        <time>2021-08-10T14:12:24Z</time>
      </trkpt>
      <trkpt lat="48.33996" lon="4.4971">
        <ele>145.3</ele>
        <time>2021-08-10T14:12:25Z</time>
      </trkpt>
      <trkpt lat="48.33967" lon="4.49747">
        <ele>145.3</ele>
        <time>2021-08-10T14:12:32Z</time>
      </trkpt>
      <trkpt lat="48.3395" lon="4.49769">
        <ele>145.3</ele>
        <time>2021-08-10T14:12:36Z</time>
      </trkpt>
      <trkpt lat="48.33945" lon="4.49773">
        <ele>145.3</ele>
        <time>2021-08-10T14:12:37Z</time>
      </trkpt>
      <trkpt lat="48.33935" lon="4.49779">
        <ele>145.3</ele>
        <time>2021-08-10T14:12:39Z</time>
      </trkpt>
      <trkpt lat="48.3393" lon="4.49782">
        <ele>145.3</ele>
        <time>2021-08-10T14:12:40Z</time>
      </trkpt>
      <trkpt lat="48.33904" lon="4.49792">
        <ele>145.3</ele>
        <time>2021-08-10T14:12:45Z</time>
      </trkpt>
      <trkpt lat="48.339" lon="4.49795">
        <ele>145.3</ele>
        <time>2021-08-10T14:12:46Z</time>
      </trkpt>
      <trkpt lat="48.33885" lon="4.49808">
        <ele>145.3</ele>
        <time>2021-08-10T14:12:49Z</time>
      </trkpt>
      <trkpt lat="48.33881" lon="4.49813">
        <ele>145.3</ele>
        <time>2021-08-10T14:12:50Z</time>
      </trkpt>
      <trkpt lat="48.33858" lon="4.49851">
        <ele>145.3</ele>
        <time>2021-08-10T14:12:57Z</time>
      </trkpt>
      <trkpt lat="48.33856" lon="4.49858">
        <ele>145.3</ele>
        <time>2021-08-10T14:12:58Z</time>
      </trkpt>
      <trkpt lat="48.33854" lon="4.49865">
        <ele>145.3</ele>
        <time>2021-08-10T14:12:59Z</time>
      </trkpt>
      <trkpt lat="48.33845" lon="4.49904">
        <ele>145.3</ele>
        <time>2021-08-10T14:13:04Z</time>
      </trkpt>
      <trkpt lat="48.33843" lon="4.49912">
        <ele>145.3</ele>
        <time>2021-08-10T14:13:05Z</time>
      </trkpt>
      <trkpt lat="48.3384" lon="4.49919">
        <ele>145.3</ele>
        <time>2021-08-10T14:13:06Z</time>
      </trkpt>
      <trkpt lat="48.33837" lon="4.49926">
        <ele>145.3</ele>
        <time>2021-08-10T14:13:07Z</time>
      </trkpt>
      <trkpt lat="48.33833" lon="4.49931">
        <ele>145.3</ele>
        <time>2021-08-10T14:13:08Z</time>
      </trkpt>
      <trkpt lat="48.33827" lon="4.49935">
        <ele>145.3</ele>
        <time>2021-08-10T14:13:09Z</time>
      </trkpt>
      <trkpt lat="48.33823" lon="4.49938">
        <ele>145.3</ele>
        <time>2021-08-10T14:13:10Z</time>
      </trkpt>
      <trkpt lat="48.33798" lon="4.49953">
        <ele>145.3</ele>
        <time>2021-08-10T14:13:15Z</time>
      </trkpt>
      <trkpt lat="48.33777" lon="4.49967">
        <ele>145.3</ele>
        <time>2021-08-10T14:13:19Z</time>
      </trkpt>
      <trkpt lat="48.33754" lon="4.4999">
        <ele>145.3</ele>
        <time>2021-08-10T14:13:24Z</time>
      </trkpt>
      <trkpt lat="48.3373" lon="4.50028">
        <ele>145.3</ele>
        <time>2021-08-10T14:13:30Z</time>
      </trkpt>
      <trkpt lat="48.33719" lon="4.50046">
        <ele>145.3</ele>
        <time>2021-08-10T14:13:33Z</time>
      </trkpt>
      <trkpt lat="48.33712" lon="4.50058">
        <ele>145.3</ele>
        <time>2021-08-10T14:13:35Z</time>
      </trkpt>
      <trkpt lat="48.33705" lon="4.5007">
        <ele>145.3</ele>
        <time>2021-08-10T14:13:37Z</time>
      </trkpt>
      <trkpt lat="48.33691" lon="4.50094">
        <ele>145.78</ele>
        <time>2021-08-10T14:13:41Z</time>
      </trkpt>
      <trkpt lat="48.33663" lon="4.50125">
        <ele>145.78</ele>
        <time>2021-08-10T14:13:47Z</time>
      </trkpt>
      <trkpt lat="48.3366" lon="4.50133">
        <ele>145.78</ele>
        <time>2021-08-10T14:13:48Z</time>
      </trkpt>
      <trkpt lat="48.33659" lon="4.50141">
        <ele>145.78</ele>
        <time>2021-08-10T14:13:49Z</time>
      </trkpt>
      <trkpt lat="48.33661" lon="4.5015">
        <ele>145.78</ele>
        <time>2021-08-10T14:13:50Z</time>
      </trkpt>
      <trkpt lat="48.33663" lon="4.50156">
        <ele>145.78</ele>
        <time>2021-08-10T14:13:51Z</time>
      </trkpt>
      <trkpt lat="48.33666" lon="4.50162">
        <ele>145.78</ele>
        <time>2021-08-10T14:13:52Z</time>
      </trkpt>
      <trkpt lat="48.33669" lon="4.50168">
        <ele>145.78</ele>
        <time>2021-08-10T14:13:53Z</time>
      </trkpt>
      <trkpt lat="48.33673" lon="4.50174">
        <ele>145.78</ele>
        <time>2021-08-10T14:13:54Z</time>
      </trkpt>
      <trkpt lat="48.33676" lon="4.50179">
        <ele>145.78</ele>
        <time>2021-08-10T14:13:55Z</time>
      </trkpt>
      <trkpt lat="48.33702" lon="4.50221">
        <ele>145.78</ele>
        <time>2021-08-10T14:14:02Z</time>
      </trkpt>
      <trkpt lat="48.33704" lon="4.50228">
        <ele>145.78</ele>
        <time>2021-08-10T14:14:03Z</time>
      </trkpt>
      <trkpt lat="48.33706" lon="4.50235">
        <ele>145.78</ele>
        <time>2021-08-10T14:14:04Z</time>
      </trkpt>
      <trkpt lat="48.33706" lon="4.50243">
        <ele>145.78</ele>
        <time>2021-08-10T14:14:05Z</time>
      </trkpt>
      <trkpt lat="48.33705" lon="4.5025">
        <ele>145.78</ele>
        <time>2021-08-10T14:14:06Z</time>
      </trkpt>
      <trkpt lat="48.33705" lon="4.50257">
        <ele>145.78</ele>
        <time>2021-08-10T14:14:07Z</time>
      </trkpt>
      <trkpt lat="48.33704" lon="4.50264">
        <ele>145.78</ele>
        <time>2021-08-10T14:14:08Z</time>
      </trkpt>
      <trkpt lat="48.33703" lon="4.50271">
        <ele>145.78</ele>
        <time>2021-08-10T14:14:09Z</time>
      </trkpt>
      <trkpt lat="48.337" lon="4.50285">
        <ele>146.74</ele>
        <time>2021-08-10T14:14:11Z</time>
      </trkpt>
      <trkpt lat="48.33684" lon="4.50352">
        <ele>146.74</ele>
        <time>2021-08-10T14:14:20Z</time>
      </trkpt>
      <trkpt lat="48.33671" lon="4.50383">
        <ele>145.78</ele>
        <time>2021-08-10T14:14:24Z</time>
      </trkpt>
      <trkpt lat="48.33656" lon="4.50422">
        <ele>144.82</ele>
        <time>2021-08-10T14:14:29Z</time>
      </trkpt>
      <trkpt lat="48.33652" lon="4.50428">
        <ele>144.82</ele>
        <time>2021-08-10T14:14:30Z</time>
      </trkpt>
      <trkpt lat="48.33647" lon="4.50433">
        <ele>144.82</ele>
        <time>2021-08-10T14:14:31Z</time>
      </trkpt>
      <trkpt lat="48.33642" lon="4.50436">
        <ele>144.82</ele>
        <time>2021-08-10T14:14:32Z</time>
      </trkpt>
      <trkpt lat="48.33637" lon="4.50437">
        <ele>144.82</ele>
        <time>2021-08-10T14:14:33Z</time>
      </trkpt>
      <trkpt lat="48.33632" lon="4.50435">
        <ele>144.82</ele>
        <time>2021-08-10T14:14:34Z</time>
      </trkpt>
      <trkpt lat="48.33628" lon="4.50431">
        <ele>144.82</ele>
        <time>2021-08-10T14:14:35Z</time>
      </trkpt>
      <trkpt lat="48.33624" lon="4.50427">
        <ele>144.82</ele>
        <time>2021-08-10T14:14:36Z</time>
      </trkpt>
      <trkpt lat="48.3362" lon="4.50422">
        <ele>145.3</ele>
        <time>2021-08-10T14:14:37Z</time>
      </trkpt>
      <trkpt lat="48.33616" lon="4.50419">
        <ele>146.26</ele>
        <time>2021-08-10T14:14:38Z</time>
      </trkpt>
      <trkpt lat="48.33611" lon="4.50418">
        <ele>146.26</ele>
        <time>2021-08-10T14:14:39Z</time>
      </trkpt>
      <trkpt lat="48.33607" lon="4.50419">
        <ele>146.26</ele>
        <time>2021-08-10T14:14:40Z</time>
      </trkpt>
      <trkpt lat="48.33603" lon="4.50422">
        <ele>146.26</ele>
        <time>2021-08-10T14:14:41Z</time>
      </trkpt>
      <trkpt lat="48.336" lon="4.50427">
        <ele>146.74</ele>
        <time>2021-08-10T14:14:42Z</time>
      </trkpt>
      <trkpt lat="48.33598" lon="4.50432">
        <ele>146.74</ele>
        <time>2021-08-10T14:14:43Z</time>
      </trkpt>
      <trkpt lat="48.33595" lon="4.50437">
        <ele>146.74</ele>
        <time>2021-08-10T14:14:44Z</time>
      </trkpt>
      <trkpt lat="48.33584" lon="4.50485">
        <ele>147.22</ele>
        <time>2021-08-10T14:14:52Z</time>
      </trkpt>
      <trkpt lat="48.33571" lon="4.50527">
        <ele>147.22</ele>
        <time>2021-08-10T14:14:58Z</time>
      </trkpt>
      <trkpt lat="48.33567" lon="4.50533">
        <ele>146.26</ele>
        <time>2021-08-10T14:14:59Z</time>
      </trkpt>
      <trkpt lat="48.33562" lon="4.50538">
        <ele>146.26</ele>
        <time>2021-08-10T14:15:00Z</time>
      </trkpt>
      <trkpt lat="48.33556" lon="4.50541">
        <ele>146.26</ele>
        <time>2021-08-10T14:15:01Z</time>
      </trkpt>
      <trkpt lat="48.3355" lon="4.50543">
        <ele>146.26</ele>
        <time>2021-08-10T14:15:02Z</time>
      </trkpt>
      <trkpt lat="48.335" lon="4.5055">
        <ele>146.26</ele>
        <time>2021-08-10T14:15:10Z</time>
      </trkpt>
      <trkpt lat="48.33466" lon="4.50547">
        <ele>146.26</ele>
        <time>2021-08-10T14:15:16Z</time>
      </trkpt>
      <trkpt lat="48.33454" lon="4.50548">
        <ele>145.78</ele>
        <time>2021-08-10T14:15:18Z</time>
      </trkpt>
      <trkpt lat="48.33448" lon="4.5055">
        <ele>145.78</ele>
        <time>2021-08-10T14:15:19Z</time>
      </trkpt>
      <trkpt lat="48.33402" lon="4.50571">
        <ele>145.78</ele>
        <time>2021-08-10T14:15:27Z</time>
      </trkpt>
      <trkpt lat="48.33344" lon="4.50592">
        <ele>145.3</ele>
        <time>2021-08-10T14:15:37Z</time>
      </trkpt>
      <trkpt lat="48.33327" lon="4.50598">
        <ele>145.3</ele>
        <time>2021-08-10T14:15:40Z</time>
      </trkpt>
      <trkpt lat="48.33322" lon="4.50602">
        <ele>145.3</ele>
        <time>2021-08-10T14:15:41Z</time>
      </trkpt>
      <trkpt lat="48.33317" lon="4.50607">
        <ele>145.3</ele>
        <time>2021-08-10T14:15:42Z</time>
      </trkpt>
      <trkpt lat="48.33314" lon="4.50612">
        <ele>145.3</ele>
        <time>2021-08-10T14:15:43Z</time>
      </trkpt>
      <trkpt lat="48.33311" lon="4.50619">
        <ele>145.3</ele>
        <time>2021-08-10T14:15:44Z</time>
      </trkpt>
      <trkpt lat="48.33297" lon="4.50657">
        <ele>145.3</ele>
        <time>2021-08-10T14:15:49Z</time>
      </trkpt>
      <trkpt lat="48.33292" lon="4.50662">
        <ele>145.3</ele>
        <time>2021-08-10T14:15:50Z</time>
      </trkpt>
      <trkpt lat="48.33286" lon="4.50664">
        <ele>145.3</ele>
        <time>2021-08-10T14:15:51Z</time>
      </trkpt>
      <trkpt lat="48.33282" lon="4.50663">
        <ele>145.3</ele>
        <time>2021-08-10T14:15:52Z</time>
      </trkpt>
      <trkpt lat="48.33276" lon="4.50659">
        <ele>146.74</ele>
        <time>2021-08-10T14:15:53Z</time>
      </trkpt>
      <trkpt lat="48.33273" lon="4.50656">
        <ele>146.74</ele>
        <time>2021-08-10T14:15:54Z</time>
      </trkpt>
      <trkpt lat="48.33269" lon="4.50651">
        <ele>146.74</ele>
        <time>2021-08-10T14:15:55Z</time>
      </trkpt>
      <trkpt lat="48.33266" lon="4.50646">
        <ele>146.74</ele>
        <time>2021-08-10T14:15:56Z</time>
      </trkpt>
      <trkpt lat="48.33262" lon="4.50642">
        <ele>146.74</ele>
        <time>2021-08-10T14:15:57Z</time>
      </trkpt>
      <trkpt lat="48.33245" lon="4.50625">
        <ele>147.22</ele>
        <time>2021-08-10T14:16:01Z</time>
      </trkpt>
      <trkpt lat="48.3324" lon="4.50623">
        <ele>147.22</ele>
        <time>2021-08-10T14:16:02Z</time>
      </trkpt>
      <trkpt lat="48.33235" lon="4.50623">
        <ele>147.22</ele>
        <time>2021-08-10T14:16:03Z</time>
      </trkpt>
      <trkpt lat="48.3323" lon="4.50626">
        <ele>147.22</ele>
        <time>2021-08-10T14:16:04Z</time>
      </trkpt>
      <trkpt lat="48.33226" lon="4.50629">
        <ele>147.22</ele>
        <time>2021-08-10T14:16:05Z</time>
      </trkpt>
      <trkpt lat="48.33221" lon="4.50634">
        <ele>147.7</ele>
        <time>2021-08-10T14:16:06Z</time>
      </trkpt>
      <trkpt lat="48.33217" lon="4.5064">
        <ele>147.7</ele>
        <time>2021-08-10T14:16:07Z</time>
      </trkpt>
      <trkpt lat="48.33191" lon="4.50681">
        <ele>148.18</ele>
        <time>2021-08-10T14:16:15Z</time>
      </trkpt>
      <trkpt lat="48.33161" lon="4.50724">
        <ele>149.14</ele>
        <time>2021-08-10T14:16:24Z</time>
      </trkpt>
      <trkpt lat="48.33124" lon="4.5078">
        <ele>148.66</ele>
        <time>2021-08-10T14:16:34Z</time>
      </trkpt>
      <trkpt lat="48.33109" lon="4.50802">
        <ele>148.66</ele>
        <time>2021-08-10T14:16:38Z</time>
      </trkpt>
      <trkpt lat="48.33105" lon="4.50807">
        <ele>148.66</ele>
        <time>2021-08-10T14:16:39Z</time>
      </trkpt>
      <trkpt lat="48.33074" lon="4.50856">
        <ele>148.66</ele>
        <time>2021-08-10T14:16:47Z</time>
      </trkpt>
      <trkpt lat="48.33066" lon="4.50869">
        <ele>147.7</ele>
        <time>2021-08-10T14:16:49Z</time>
      </trkpt>
      <trkpt lat="48.33037" lon="4.50912">
        <ele>146.74</ele>
        <time>2021-08-10T14:16:56Z</time>
      </trkpt>
      <trkpt lat="48.33032" lon="4.50916">
        <ele>146.26</ele>
        <time>2021-08-10T14:16:57Z</time>
      </trkpt>
      <trkpt lat="48.33026" lon="4.50917">
        <ele>146.26</ele>
        <time>2021-08-10T14:16:58Z</time>
      </trkpt>
      <trkpt lat="48.33021" lon="4.50915">
        <ele>146.26</ele>
        <time>2021-08-10T14:16:59Z</time>
      </trkpt>
      <trkpt lat="48.33016" lon="4.50911">
        <ele>146.26</ele>
        <time>2021-08-10T14:17:00Z</time>
      </trkpt>
      <trkpt lat="48.33012" lon="4.50906">
        <ele>146.26</ele>
        <time>2021-08-10T14:17:01Z</time>
      </trkpt>
      <trkpt lat="48.33009" lon="4.50901">
        <ele>146.26</ele>
        <time>2021-08-10T14:17:02Z</time>
      </trkpt>
      <trkpt lat="48.33006" lon="4.50895">
        <ele>146.26</ele>
        <time>2021-08-10T14:17:03Z</time>
      </trkpt>
      <trkpt lat="48.33002" lon="4.5089">
        <ele>146.26</ele>
        <time>2021-08-10T14:17:04Z</time>
      </trkpt>
      <trkpt lat="48.32999" lon="4.50885">
        <ele>145.78</ele>
        <time>2021-08-10T14:17:05Z</time>
      </trkpt>
      <trkpt lat="48.32995" lon="4.50881">
        <ele>146.26</ele>
        <time>2021-08-10T14:17:06Z</time>
      </trkpt>
      <trkpt lat="48.3299" lon="4.50878">
        <ele>146.26</ele>
        <time>2021-08-10T14:17:07Z</time>
      </trkpt>
      <trkpt lat="48.32984" lon="4.50877">
        <ele>145.78</ele>
        <time>2021-08-10T14:17:08Z</time>
      </trkpt>
      <trkpt lat="48.32978" lon="4.50877">
        <ele>146.26</ele>
        <time>2021-08-10T14:17:09Z</time>
      </trkpt>
      <trkpt lat="48.32973" lon="4.50879">
        <ele>145.78</ele>
        <time>2021-08-10T14:17:10Z</time>
      </trkpt>
      <trkpt lat="48.32967" lon="4.50881">
        <ele>145.78</ele>
        <time>2021-08-10T14:17:11Z</time>
      </trkpt>
      <trkpt lat="48.32961" lon="4.50884">
        <ele>145.3</ele>
        <time>2021-08-10T14:17:12Z</time>
      </trkpt>
      <trkpt lat="48.32913" lon="4.50905">
        <ele>145.78</ele>
        <time>2021-08-10T14:17:20Z</time>
      </trkpt>
      <trkpt lat="48.32909" lon="4.50909">
        <ele>145.78</ele>
        <time>2021-08-10T14:17:21Z</time>
      </trkpt>
      <trkpt lat="48.32905" lon="4.50913">
        <ele>146.74</ele>
        <time>2021-08-10T14:17:22Z</time>
      </trkpt>
      <trkpt lat="48.32901" lon="4.50919">
        <ele>146.74</ele>
        <time>2021-08-10T14:17:23Z</time>
      </trkpt>
      <trkpt lat="48.32898" lon="4.50924">
        <ele>146.74</ele>
        <time>2021-08-10T14:17:24Z</time>
      </trkpt>
      <trkpt lat="48.32876" lon="4.50963">
        <ele>148.18</ele>
        <time>2021-08-10T14:17:32Z</time>
      </trkpt>
      <trkpt lat="48.32856" lon="4.50995">
        <ele>149.62</ele>
        <time>2021-08-10T14:17:39Z</time>
      </trkpt>
      <trkpt lat="48.32838" lon="4.51024">
        <ele>150.1</ele>
        <time>2021-08-10T14:17:45Z</time>
      </trkpt>
      <trkpt lat="48.32834" lon="4.51028">
        <ele>150.1</ele>
        <time>2021-08-10T14:17:46Z</time>
      </trkpt>
      <trkpt lat="48.32831" lon="4.51031">
        <ele>150.1</ele>
        <time>2021-08-10T14:17:47Z</time>
      </trkpt>
      <trkpt lat="48.32826" lon="4.51032">
        <ele>150.1</ele>
        <time>2021-08-10T14:17:48Z</time>
      </trkpt>
      <trkpt lat="48.32821" lon="4.51031">
        <ele>150.1</ele>
        <time>2021-08-10T14:17:49Z</time>
      </trkpt>
      <trkpt lat="48.32817" lon="4.5103">
        <ele>150.1</ele>
        <time>2021-08-10T14:17:50Z</time>
      </trkpt>
      <trkpt lat="48.32813" lon="4.51028">
        <ele>150.1</ele>
        <time>2021-08-10T14:17:51Z</time>
      </trkpt>
      <trkpt lat="48.3281" lon="4.51025">
        <ele>150.1</ele>
        <time>2021-08-10T14:17:52Z</time>
      </trkpt>
      <trkpt lat="48.32806" lon="4.51022">
        <ele>150.1</ele>
        <time>2021-08-10T14:17:53Z</time>
      </trkpt>
      <trkpt lat="48.328" lon="4.51015">
        <ele>150.58</ele>
        <time>2021-08-10T14:17:55Z</time>
      </trkpt>
      <trkpt lat="48.32775" lon="4.50991">
        <ele>150.1</ele>
        <time>2021-08-10T14:18:02Z</time>
      </trkpt>
      <trkpt lat="48.32772" lon="4.50988">
        <ele>150.58</ele>
        <time>2021-08-10T14:18:03Z</time>
      </trkpt>
      <trkpt lat="48.32745" lon="4.50965">
        <ele>151.06</ele>
        <time>2021-08-10T14:18:10Z</time>
      </trkpt>
      <trkpt lat="48.3272" lon="4.50941">
        <ele>151.54</ele>
        <time>2021-08-10T14:18:17Z</time>
      </trkpt>
      <trkpt lat="48.32716" lon="4.50939">
        <ele>152.51</ele>
        <time>2021-08-10T14:18:18Z</time>
      </trkpt>
      <trkpt lat="48.32712" lon="4.50935">
        <ele>152.51</ele>
        <time>2021-08-10T14:18:19Z</time>
      </trkpt>
      <trkpt lat="48.32699" lon="4.50923">
        <ele>152.51</ele>
        <time>2021-08-10T14:18:23Z</time>
      </trkpt>
      <trkpt lat="48.32696" lon="4.50921">
        <ele>152.51</ele>
        <time>2021-08-10T14:18:24Z</time>
      </trkpt>
      <trkpt lat="48.32692" lon="4.50919">
        <ele>152.51</ele>
        <time>2021-08-10T14:18:25Z</time>
      </trkpt>
      <trkpt lat="48.32669" lon="4.50894">
        <ele>153.95</ele>
        <time>2021-08-10T14:18:33Z</time>
      </trkpt>
      <trkpt lat="48.3265" lon="4.50875">
        <ele>154.43</ele>
        <time>2021-08-10T14:18:40Z</time>
      </trkpt>
      <trkpt lat="48.32631" lon="4.50855">
        <ele>155.39</ele>
        <time>2021-08-10T14:18:47Z</time>
      </trkpt>
      <trkpt lat="48.32605" lon="4.50828">
        <ele>156.83</ele>
        <time>2021-08-10T14:18:56Z</time>
      </trkpt>
      <trkpt lat="48.32579" lon="4.50802">
        <ele>157.79</ele>
        <time>2021-08-10T14:19:05Z</time>
      </trkpt>
      <trkpt lat="48.32558" lon="4.50776">
        <ele>158.75</ele>
        <time>2021-08-10T14:19:13Z</time>
      </trkpt>
      <trkpt lat="48.32542" lon="4.5075">
        <ele>159.72</ele>
        <time>2021-08-10T14:19:20Z</time>
      </trkpt>
      <trkpt lat="48.3252" lon="4.50716">
        <ele>159.72</ele>
        <time>2021-08-10T14:19:28Z</time>
      </trkpt>
      <trkpt lat="48.32517" lon="4.50711">
        <ele>159.72</ele>
        <time>2021-08-10T14:19:29Z</time>
      </trkpt>
      <trkpt lat="48.32494" lon="4.50674">
        <ele>160.2</ele>
        <time>2021-08-10T14:19:37Z</time>
      </trkpt>
      <trkpt lat="48.32466" lon="4.50635">
        <ele>161.16</ele>
        <time>2021-08-10T14:19:46Z</time>
      </trkpt>
      <trkpt lat="48.32444" lon="4.506">
        <ele>161.16</ele>
        <time>2021-08-10T14:19:53Z</time>
      </trkpt>
      <trkpt lat="48.32414" lon="4.50548">
        <ele>160.2</ele>
        <time>2021-08-10T14:20:01Z</time>
      </trkpt>
      <trkpt lat="48.32411" lon="4.50545">
        <ele>160.2</ele>
        <time>2021-08-10T14:20:02Z</time>
      </trkpt>
      <trkpt lat="48.32406" lon="4.50541">
        <ele>160.2</ele>
        <time>2021-08-10T14:20:03Z</time>
      </trkpt>
      <trkpt lat="48.32401" lon="4.5054">
        <ele>159.24</ele>
        <time>2021-08-10T14:20:04Z</time>
      </trkpt>
      <trkpt lat="48.32396" lon="4.50535">
        <ele>158.27</ele>
        <time>2021-08-10T14:20:05Z</time>
      </trkpt>
      <trkpt lat="48.32391" lon="4.50535">
        <ele>158.27</ele>
        <time>2021-08-10T14:20:06Z</time>
      </trkpt>
      <trkpt lat="48.32354" lon="4.50552">
        <ele>155.39</ele>
        <time>2021-08-10T14:20:12Z</time>
      </trkpt>
      <trkpt lat="48.32319" lon="4.50568">
        <ele>152.99</ele>
        <time>2021-08-10T14:20:17Z</time>
      </trkpt>
      <trkpt lat="48.32269" lon="4.50588">
        <ele>150.1</ele>
        <time>2021-08-10T14:20:23Z</time>
      </trkpt>
      <trkpt lat="48.32212" lon="4.50616">
        <ele>147.22</ele>
        <time>2021-08-10T14:20:29Z</time>
      </trkpt>
      <trkpt lat="48.32156" lon="4.50648">
        <ele>145.3</ele>
        <time>2021-08-10T14:20:35Z</time>
      </trkpt>
      <trkpt lat="48.32106" lon="4.50695">
        <ele>145.78</ele>
        <time>2021-08-10T14:20:41Z</time>
      </trkpt>
      <trkpt lat="48.32057" lon="4.50743">
        <ele>147.22</ele>
        <time>2021-08-10T14:20:48Z</time>
      </trkpt>
      <trkpt lat="48.32013" lon="4.50793">
        <ele>147.7</ele>
        <time>2021-08-10T14:20:56Z</time>
      </trkpt>
      <trkpt lat="48.3197" lon="4.50839">
        <ele>147.7</ele>
        <time>2021-08-10T14:21:05Z</time>
      </trkpt>
      <trkpt lat="48.31936" lon="4.50872">
        <ele>147.7</ele>
        <time>2021-08-10T14:21:12Z</time>
      </trkpt>
      <trkpt lat="48.31914" lon="4.50886">
        <ele>149.62</ele>
        <time>2021-08-10T14:21:18Z</time>
      </trkpt>
      <trkpt lat="48.319" lon="4.50894">
        <ele>151.06</ele>
        <time>2021-08-10T14:21:24Z</time>
      </trkpt>
      <trkpt lat="48.31884" lon="4.50905">
        <ele>152.03</ele>
        <time>2021-08-10T14:21:31Z</time>
      </trkpt>
      <trkpt lat="48.31866" lon="4.50918">
        <ele>153.95</ele>
        <time>2021-08-10T14:21:39Z</time>
      </trkpt>
      <trkpt lat="48.31844" lon="4.5093">
        <ele>154.91</ele>
        <time>2021-08-10T14:21:47Z</time>
      </trkpt>
      <trkpt lat="48.31821" lon="4.50941">
        <ele>155.87</ele>
        <time>2021-08-10T14:21:55Z</time>
      </trkpt>
      <trkpt lat="48.31791" lon="4.50949">
        <ele>156.83</ele>
        <time>2021-08-10T14:22:05Z</time>
      </trkpt>
      <trkpt lat="48.31773" lon="4.50964">
        <ele>158.27</ele>
        <time>2021-08-10T14:22:13Z</time>
      </trkpt>
      <trkpt lat="48.31762" lon="4.50994">
        <ele>158.75</ele>
        <time>2021-08-10T14:22:21Z</time>
      </trkpt>
      <trkpt lat="48.31753" lon="4.51028">
        <ele>160.68</ele>
        <time>2021-08-10T14:22:29Z</time>
      </trkpt>
      <trkpt lat="48.31741" lon="4.51068">
        <ele>159.24</ele>
        <time>2021-08-10T14:22:36Z</time>
      </trkpt>
      <trkpt lat="48.3174" lon="4.51075">
        <ele>159.24</ele>
        <time>2021-08-10T14:22:37Z</time>
      </trkpt>
      <trkpt lat="48.31725" lon="4.5113">
        <ele>157.79</ele>
        <time>2021-08-10T14:22:44Z</time>
      </trkpt>
      <trkpt lat="48.31707" lon="4.51198">
        <ele>154.91</ele>
        <time>2021-08-10T14:22:51Z</time>
      </trkpt>
      <trkpt lat="48.31697" lon="4.51234">
        <ele>152.99</ele>
        <time>2021-08-10T14:22:54Z</time>
      </trkpt>
      <trkpt lat="48.31686" lon="4.51272">
        <ele>151.06</ele>
        <time>2021-08-10T14:22:57Z</time>
      </trkpt>
      <trkpt lat="48.31675" lon="4.5131">
        <ele>149.62</ele>
        <time>2021-08-10T14:23:00Z</time>
      </trkpt>
      <trkpt lat="48.31641" lon="4.51429">
        <ele>147.22</ele>
        <time>2021-08-10T14:23:09Z</time>
      </trkpt>
      <trkpt lat="48.31622" lon="4.51503">
        <ele>147.22</ele>
        <time>2021-08-10T14:23:16Z</time>
      </trkpt>
      <trkpt lat="48.31603" lon="4.51578">
        <ele>147.22</ele>
        <time>2021-08-10T14:23:24Z</time>
      </trkpt>
      <trkpt lat="48.3159" lon="4.51623">
        <ele>149.62</ele>
        <time>2021-08-10T14:23:30Z</time>
      </trkpt>
      <trkpt lat="48.31588" lon="4.51629">
        <ele>149.62</ele>
        <time>2021-08-10T14:23:31Z</time>
      </trkpt>
      <trkpt lat="48.31582" lon="4.5165">
        <ele>151.06</ele>
        <time>2021-08-10T14:23:36Z</time>
      </trkpt>
      <trkpt lat="48.31577" lon="4.51672">
        <ele>152.51</ele>
        <time>2021-08-10T14:23:42Z</time>
      </trkpt>
      <trkpt lat="48.31568" lon="4.51706">
        <ele>154.43</ele>
        <time>2021-08-10T14:23:52Z</time>
      </trkpt>
      <trkpt lat="48.31559" lon="4.51739">
        <ele>155.39</ele>
        <time>2021-08-10T14:24:01Z</time>
      </trkpt>
      <trkpt lat="48.31551" lon="4.51768">
        <ele>156.35</ele>
        <time>2021-08-10T14:24:09Z</time>
      </trkpt>
      <trkpt lat="48.31543" lon="4.51794">
        <ele>157.31</ele>
        <time>2021-08-10T14:24:16Z</time>
      </trkpt>
      <trkpt lat="48.31534" lon="4.51828">
        <ele>158.75</ele>
        <time>2021-08-10T14:24:24Z</time>
      </trkpt>
      <trkpt lat="48.31524" lon="4.51863">
        <ele>159.72</ele>
        <time>2021-08-10T14:24:32Z</time>
      </trkpt>
      <trkpt lat="48.31511" lon="4.51909">
        <ele>160.68</ele>
        <time>2021-08-10T14:24:42Z</time>
      </trkpt>
      <trkpt lat="48.31497" lon="4.51951">
        <ele>161.16</ele>
        <time>2021-08-10T14:24:51Z</time>
      </trkpt>
      <trkpt lat="48.31488" lon="4.51984">
        <ele>162.6</ele>
        <time>2021-08-10T14:24:58Z</time>
      </trkpt>
      <trkpt lat="48.31477" lon="4.52025">
        <ele>163.56</ele>
        <time>2021-08-10T14:25:07Z</time>
      </trkpt>
      <trkpt lat="48.31465" lon="4.52063">
        <ele>164.04</ele>
        <time>2021-08-10T14:25:15Z</time>
      </trkpt>
      <trkpt lat="48.31452" lon="4.52109">
        <ele>165</ele>
        <time>2021-08-10T14:25:24Z</time>
      </trkpt>
      <trkpt lat="48.31437" lon="4.52164">
        <ele>165.48</ele>
        <time>2021-08-10T14:25:34Z</time>
      </trkpt>
      <trkpt lat="48.31435" lon="4.52171">
        <ele>165.48</ele>
        <time>2021-08-10T14:25:35Z</time>
      </trkpt>
      <trkpt lat="48.31419" lon="4.52235">
        <ele>162.6</ele>
        <time>2021-08-10T14:25:44Z</time>
      </trkpt>
      <trkpt lat="48.31402" lon="4.52296">
        <ele>161.16</ele>
        <time>2021-08-10T14:25:51Z</time>
      </trkpt>
      <trkpt lat="48.314" lon="4.52304">
        <ele>161.16</ele>
        <time>2021-08-10T14:25:52Z</time>
      </trkpt>
      <trkpt lat="48.31397" lon="4.52312">
        <ele>161.16</ele>
        <time>2021-08-10T14:25:53Z</time>
      </trkpt>
      <trkpt lat="48.31395" lon="4.52319">
        <ele>160.68</ele>
        <time>2021-08-10T14:25:54Z</time>
      </trkpt>
      <trkpt lat="48.31392" lon="4.52325">
        <ele>160.68</ele>
        <time>2021-08-10T14:25:55Z</time>
      </trkpt>
      <trkpt lat="48.31389" lon="4.5233">
        <ele>160.68</ele>
        <time>2021-08-10T14:25:56Z</time>
      </trkpt>
      <trkpt lat="48.31385" lon="4.52333">
        <ele>160.68</ele>
        <time>2021-08-10T14:25:57Z</time>
      </trkpt>
      <trkpt lat="48.31382" lon="4.52333">
        <ele>160.68</ele>
        <time>2021-08-10T14:25:58Z</time>
      </trkpt>
      <trkpt lat="48.3138" lon="4.52333">
        <ele>160.68</ele>
        <time>2021-08-10T14:25:59Z</time>
      </trkpt>
      <trkpt lat="48.31377" lon="4.52332">
        <ele>160.68</ele>
        <time>2021-08-10T14:26:00Z</time>
      </trkpt>
      <trkpt lat="48.31374" lon="4.52331">
        <ele>160.68</ele>
        <time>2021-08-10T14:26:01Z</time>
      </trkpt>
      <trkpt lat="48.31352" lon="4.5232">
        <ele>160.68</ele>
        <time>2021-08-10T14:26:07Z</time>
      </trkpt>
      <trkpt lat="48.31316" lon="4.52301">
        <ele>162.12</ele>
        <time>2021-08-10T14:26:15Z</time>
      </trkpt>
      <trkpt lat="48.31287" lon="4.52286">
        <ele>162.6</ele>
        <time>2021-08-10T14:26:22Z</time>
      </trkpt>
      <trkpt lat="48.31271" lon="4.52279">
        <ele>163.08</ele>
        <time>2021-08-10T14:26:26Z</time>
      </trkpt>
      <trkpt lat="48.31238" lon="4.52264">
        <ele>163.56</ele>
        <time>2021-08-10T14:26:34Z</time>
      </trkpt>
      <trkpt lat="48.31207" lon="4.52252">
        <ele>163.56</ele>
        <time>2021-08-10T14:26:41Z</time>
      </trkpt>
      <trkpt lat="48.31159" lon="4.52233">
        <ele>164.52</ele>
        <time>2021-08-10T14:26:51Z</time>
      </trkpt>
      <trkpt lat="48.31107" lon="4.52215">
        <ele>165</ele>
        <time>2021-08-10T14:27:02Z</time>
      </trkpt>
      <trkpt lat="48.31069" lon="4.52202">
        <ele>165.96</ele>
        <time>2021-08-10T14:27:11Z</time>
      </trkpt>
      <trkpt lat="48.31067" lon="4.52197">
        <ele>165.96</ele>
        <time>2021-08-10T14:27:12Z</time>
      </trkpt>
      <trkpt lat="48.31066" lon="4.52191">
        <ele>165.96</ele>
        <time>2021-08-10T14:27:13Z</time>
      </trkpt>
      <trkpt lat="48.31067" lon="4.52185">
        <ele>165.96</ele>
        <time>2021-08-10T14:27:14Z</time>
      </trkpt>
      <trkpt lat="48.31068" lon="4.52179">
        <ele>165.96</ele>
        <time>2021-08-10T14:27:15Z</time>
      </trkpt>
      <trkpt lat="48.3107" lon="4.52129">
        <ele>166.45</ele>
        <time>2021-08-10T14:27:23Z</time>
      </trkpt>
      <trkpt lat="48.31074" lon="4.52066">
        <ele>167.41</ele>
        <time>2021-08-10T14:27:33Z</time>
      </trkpt>
      <trkpt lat="48.31077" lon="4.52007">
        <ele>167.89</ele>
        <time>2021-08-10T14:27:43Z</time>
      </trkpt>
      <trkpt lat="48.3108" lon="4.51965">
        <ele>169.81</ele>
        <time>2021-08-10T14:27:52Z</time>
      </trkpt>
      <trkpt lat="48.31077" lon="4.51939">
        <ele>170.77</ele>
        <time>2021-08-10T14:27:59Z</time>
      </trkpt>
      <trkpt lat="48.31061" lon="4.51928">
        <ele>171.25</ele>
        <time>2021-08-10T14:28:05Z</time>
      </trkpt>
      <trkpt lat="48.3103" lon="4.51917">
        <ele>171.25</ele>
        <time>2021-08-10T14:28:14Z</time>
      </trkpt>
      <trkpt lat="48.31001" lon="4.51905">
        <ele>171.73</ele>
        <time>2021-08-10T14:28:22Z</time>
      </trkpt>
      <trkpt lat="48.30971" lon="4.5189">
        <ele>172.21</ele>
        <time>2021-08-10T14:28:31Z</time>
      </trkpt>
      <trkpt lat="48.30949" lon="4.51881">
        <ele>172.69</ele>
        <time>2021-08-10T14:28:38Z</time>
      </trkpt>
      <trkpt lat="48.30907" lon="4.51866">
        <ele>173.66</ele>
        <time>2021-08-10T14:28:51Z</time>
      </trkpt>
      <trkpt lat="48.30871" lon="4.51854">
        <ele>175.1</ele>
        <time>2021-08-10T14:29:02Z</time>
      </trkpt>
      <trkpt lat="48.30839" lon="4.51843">
        <ele>175.1</ele>
        <time>2021-08-10T14:29:12Z</time>
      </trkpt>
      <trkpt lat="48.30801" lon="4.51831">
        <ele>176.54</ele>
        <time>2021-08-10T14:29:24Z</time>
      </trkpt>
      <trkpt lat="48.30768" lon="4.51822">
        <ele>177.98</ele>
        <time>2021-08-10T14:29:35Z</time>
      </trkpt>
      <trkpt lat="48.30737" lon="4.51815">
        <ele>178.46</ele>
        <time>2021-08-10T14:29:45Z</time>
      </trkpt>
      <trkpt lat="48.30708" lon="4.51808">
        <ele>179.9</ele>
        <time>2021-08-10T14:29:55Z</time>
      </trkpt>
      <trkpt lat="48.30686" lon="4.51802">
        <ele>180.87</ele>
        <time>2021-08-10T14:30:05Z</time>
      </trkpt>
      <trkpt lat="48.30661" lon="4.51796">
        <ele>182.31</ele>
        <time>2021-08-10T14:30:15Z</time>
      </trkpt>
      <trkpt lat="48.30626" lon="4.51788">
        <ele>183.27</ele>
        <time>2021-08-10T14:30:28Z</time>
      </trkpt>
      <trkpt lat="48.30602" lon="4.51784">
        <ele>183.75</ele>
        <time>2021-08-10T14:30:36Z</time>
      </trkpt>
      <trkpt lat="48.30576" lon="4.51777">
        <ele>184.23</ele>
        <time>2021-08-10T14:30:44Z</time>
      </trkpt>
      <trkpt lat="48.30546" lon="4.51768">
        <ele>184.23</ele>
        <time>2021-08-10T14:30:54Z</time>
      </trkpt>
      <trkpt lat="48.3052" lon="4.51761">
        <ele>183.27</ele>
        <time>2021-08-10T14:31:01Z</time>
      </trkpt>
      <trkpt lat="48.30507" lon="4.51757">
        <ele>182.79</ele>
        <time>2021-08-10T14:31:04Z</time>
      </trkpt>
      <trkpt lat="48.30503" lon="4.51755">
        <ele>182.79</ele>
        <time>2021-08-10T14:31:05Z</time>
      </trkpt>
      <trkpt lat="48.30461" lon="4.51732">
        <ele>181.83</ele>
        <time>2021-08-10T14:31:14Z</time>
      </trkpt>
      <trkpt lat="48.30434" lon="4.51717">
        <ele>182.31</ele>
        <time>2021-08-10T14:31:20Z</time>
      </trkpt>
      <trkpt lat="48.30389" lon="4.51681">
        <ele>179.9</ele>
        <time>2021-08-10T14:31:31Z</time>
      </trkpt>
      <trkpt lat="48.3036" lon="4.51656">
        <ele>178.46</ele>
        <time>2021-08-10T14:31:37Z</time>
      </trkpt>
      <trkpt lat="48.30336" lon="4.51636">
        <ele>176.54</ele>
        <time>2021-08-10T14:31:41Z</time>
      </trkpt>
      <trkpt lat="48.30301" lon="4.5161">
        <ele>173.17</ele>
        <time>2021-08-10T14:31:46Z</time>
      </trkpt>
      <trkpt lat="48.30233" lon="4.5157">
        <ele>170.77</ele>
        <time>2021-08-10T14:31:55Z</time>
      </trkpt>
      <trkpt lat="48.30225" lon="4.51566">
        <ele>170.77</ele>
        <time>2021-08-10T14:31:56Z</time>
      </trkpt>
      <trkpt lat="48.30218" lon="4.51563">
        <ele>170.77</ele>
        <time>2021-08-10T14:31:57Z</time>
      </trkpt>
      <trkpt lat="48.3016" lon="4.51552">
        <ele>169.33</ele>
        <time>2021-08-10T14:32:05Z</time>
      </trkpt>
      <trkpt lat="48.30085" lon="4.51545">
        <ele>166.93</ele>
        <time>2021-08-10T14:32:15Z</time>
      </trkpt>
      <trkpt lat="48.30056" lon="4.51544">
        <ele>165.96</ele>
        <time>2021-08-10T14:32:19Z</time>
      </trkpt>
      <trkpt lat="48.29995" lon="4.51559">
        <ele>165.48</ele>
        <time>2021-08-10T14:32:28Z</time>
      </trkpt>
      <trkpt lat="48.29942" lon="4.51587">
        <ele>165</ele>
        <time>2021-08-10T14:32:37Z</time>
      </trkpt>
      <trkpt lat="48.299" lon="4.51618">
        <ele>164.52</ele>
        <time>2021-08-10T14:32:45Z</time>
      </trkpt>
      <trkpt lat="48.2987" lon="4.51641">
        <ele>164.52</ele>
        <time>2021-08-10T14:32:51Z</time>
      </trkpt>
      <trkpt lat="48.2986" lon="4.51647">
        <ele>164.52</ele>
        <time>2021-08-10T14:32:53Z</time>
      </trkpt>
      <trkpt lat="48.29821" lon="4.51668">
        <ele>164.52</ele>
        <time>2021-08-10T14:33:01Z</time>
      </trkpt>
      <trkpt lat="48.29785" lon="4.51684">
        <ele>164.52</ele>
        <time>2021-08-10T14:33:09Z</time>
      </trkpt>
      <trkpt lat="48.29781" lon="4.51686">
        <ele>164.04</ele>
        <time>2021-08-10T14:33:10Z</time>
      </trkpt>
      <trkpt lat="48.29778" lon="4.5169">
        <ele>164.04</ele>
        <time>2021-08-10T14:33:11Z</time>
      </trkpt>
      <trkpt lat="48.29775" lon="4.51695">
        <ele>164.52</ele>
        <time>2021-08-10T14:33:12Z</time>
      </trkpt>
      <trkpt lat="48.29768" lon="4.51716">
        <ele>164.52</ele>
        <time>2021-08-10T14:33:16Z</time>
      </trkpt>
      <trkpt lat="48.29764" lon="4.51719">
        <ele>164.52</ele>
        <time>2021-08-10T14:33:17Z</time>
      </trkpt>
      <trkpt lat="48.29759" lon="4.51719">
        <ele>164.52</ele>
        <time>2021-08-10T14:33:18Z</time>
      </trkpt>
      <trkpt lat="48.29749" lon="4.51719">
        <ele>164.04</ele>
        <time>2021-08-10T14:33:20Z</time>
      </trkpt>
      <trkpt lat="48.29734" lon="4.51715">
        <ele>164.04</ele>
        <time>2021-08-10T14:33:23Z</time>
      </trkpt>
      <trkpt lat="48.29718" lon="4.51711">
        <ele>164.04</ele>
        <time>2021-08-10T14:33:26Z</time>
      </trkpt>
      <trkpt lat="48.29712" lon="4.51709">
        <ele>164.04</ele>
        <time>2021-08-10T14:33:27Z</time>
      </trkpt>
      <trkpt lat="48.29663" lon="4.51686">
        <ele>164.04</ele>
        <time>2021-08-10T14:33:36Z</time>
      </trkpt>
      <trkpt lat="48.29608" lon="4.51657">
        <ele>163.56</ele>
        <time>2021-08-10T14:33:46Z</time>
      </trkpt>
      <trkpt lat="48.29569" lon="4.51633">
        <ele>163.56</ele>
        <time>2021-08-10T14:33:55Z</time>
      </trkpt>
      <trkpt lat="48.29557" lon="4.51626">
        <ele>165</ele>
        <time>2021-08-10T14:33:58Z</time>
      </trkpt>
      <trkpt lat="48.29554" lon="4.51622">
        <ele>165</ele>
        <time>2021-08-10T14:33:59Z</time>
      </trkpt>
      <trkpt lat="48.29553" lon="4.51616">
        <ele>165</ele>
        <time>2021-08-10T14:34:00Z</time>
      </trkpt>
      <trkpt lat="48.29553" lon="4.51611">
        <ele>165</ele>
        <time>2021-08-10T14:34:01Z</time>
      </trkpt>
      <trkpt lat="48.29557" lon="4.51574">
        <ele>165.96</ele>
        <time>2021-08-10T14:34:07Z</time>
      </trkpt>
      <trkpt lat="48.29559" lon="4.51568">
        <ele>164.52</ele>
        <time>2021-08-10T14:34:08Z</time>
      </trkpt>
      <trkpt lat="48.2956" lon="4.51561">
        <ele>164.52</ele>
        <time>2021-08-10T14:34:09Z</time>
      </trkpt>
      <trkpt lat="48.29561" lon="4.51554">
        <ele>164.04</ele>
        <time>2021-08-10T14:34:10Z</time>
      </trkpt>
      <trkpt lat="48.2957" lon="4.51491">
        <ele>162.6</ele>
        <time>2021-08-10T14:34:18Z</time>
      </trkpt>
      <trkpt lat="48.29584" lon="4.51424">
        <ele>162.12</ele>
        <time>2021-08-10T14:34:26Z</time>
      </trkpt>
      <trkpt lat="48.29597" lon="4.51352">
        <ele>162.12</ele>
        <time>2021-08-10T14:34:35Z</time>
      </trkpt>
      <trkpt lat="48.29603" lon="4.51276">
        <ele>162.12</ele>
        <time>2021-08-10T14:34:44Z</time>
      </trkpt>
      <trkpt lat="48.29608" lon="4.51208">
        <ele>163.08</ele>
        <time>2021-08-10T14:34:53Z</time>
      </trkpt>
      <trkpt lat="48.29615" lon="4.51126">
        <ele>163.56</ele>
        <time>2021-08-10T14:35:04Z</time>
      </trkpt>
      <trkpt lat="48.29616" lon="4.51104">
        <ele>163.56</ele>
        <time>2021-08-10T14:35:07Z</time>
      </trkpt>
      <trkpt lat="48.29614" lon="4.51043">
        <ele>164.52</ele>
        <time>2021-08-10T14:35:17Z</time>
      </trkpt>
      <trkpt lat="48.29611" lon="4.50997">
        <ele>165</ele>
        <time>2021-08-10T14:35:26Z</time>
      </trkpt>
      <trkpt lat="48.29604" lon="4.50947">
        <ele>165.96</ele>
        <time>2021-08-10T14:35:36Z</time>
      </trkpt>
      <trkpt lat="48.29586" lon="4.50886">
        <ele>167.41</ele>
        <time>2021-08-10T14:35:49Z</time>
      </trkpt>
      <trkpt lat="48.29563" lon="4.50853">
        <ele>167.41</ele>
        <time>2021-08-10T14:35:58Z</time>
      </trkpt>
      <trkpt lat="48.29524" lon="4.50822">
        <ele>167.89</ele>
        <time>2021-08-10T14:36:10Z</time>
      </trkpt>
      <trkpt lat="48.29503" lon="4.50784">
        <ele>167.89</ele>
        <time>2021-08-10T14:36:19Z</time>
      </trkpt>
      <trkpt lat="48.295" lon="4.50772">
        <ele>167.89</ele>
        <time>2021-08-10T14:36:21Z</time>
      </trkpt>
      <trkpt lat="48.29496" lon="4.50707">
        <ele>168.37</ele>
        <time>2021-08-10T14:36:31Z</time>
      </trkpt>
      <trkpt lat="48.29496" lon="4.50631">
        <ele>168.37</ele>
        <time>2021-08-10T14:36:42Z</time>
      </trkpt>
      <trkpt lat="48.29496" lon="4.50572">
        <ele>169.33</ele>
        <time>2021-08-10T14:36:52Z</time>
      </trkpt>
      <trkpt lat="48.29493" lon="4.50517">
        <ele>170.77</ele>
        <time>2021-08-10T14:37:04Z</time>
      </trkpt>
      <trkpt lat="48.29483" lon="4.50486">
        <ele>172.21</ele>
        <time>2021-08-10T14:37:13Z</time>
      </trkpt>
      <trkpt lat="48.29472" lon="4.50461">
        <ele>174.14</ele>
        <time>2021-08-10T14:37:21Z</time>
      </trkpt>
      <trkpt lat="48.29463" lon="4.50431">
        <ele>175.58</ele>
        <time>2021-08-10T14:37:30Z</time>
      </trkpt>
      <trkpt lat="48.29461" lon="4.50403">
        <ele>177.02</ele>
        <time>2021-08-10T14:37:39Z</time>
      </trkpt>
      <trkpt lat="48.29466" lon="4.50377">
        <ele>177.98</ele>
        <time>2021-08-10T14:37:48Z</time>
      </trkpt>
      <trkpt lat="48.29473" lon="4.50352">
        <ele>179.42</ele>
        <time>2021-08-10T14:37:57Z</time>
      </trkpt>
      <trkpt lat="48.29481" lon="4.50327">
        <ele>180.38</ele>
        <time>2021-08-10T14:38:06Z</time>
      </trkpt>
      <trkpt lat="48.29489" lon="4.50298">
        <ele>182.31</ele>
        <time>2021-08-10T14:38:16Z</time>
      </trkpt>
      <trkpt lat="48.29498" lon="4.50267">
        <ele>183.27</ele>
        <time>2021-08-10T14:38:27Z</time>
      </trkpt>
      <trkpt lat="48.29509" lon="4.5023">
        <ele>184.71</ele>
        <time>2021-08-10T14:38:39Z</time>
      </trkpt>
      <trkpt lat="48.29517" lon="4.50202">
        <ele>186.15</ele>
        <time>2021-08-10T14:38:48Z</time>
      </trkpt>
      <trkpt lat="48.29528" lon="4.50166">
        <ele>187.59</ele>
        <time>2021-08-10T14:39:00Z</time>
      </trkpt>
      <trkpt lat="48.29536" lon="4.50138">
        <ele>189.52</ele>
        <time>2021-08-10T14:39:09Z</time>
      </trkpt>
      <trkpt lat="48.29544" lon="4.50107">
        <ele>190.48</ele>
        <time>2021-08-10T14:39:19Z</time>
      </trkpt>
      <trkpt lat="48.29549" lon="4.50082">
        <ele>190.96</ele>
        <time>2021-08-10T14:39:26Z</time>
      </trkpt>
      <trkpt lat="48.29554" lon="4.50051">
        <ele>190.96</ele>
        <time>2021-08-10T14:39:33Z</time>
      </trkpt>
      <trkpt lat="48.29553" lon="4.50001">
        <ele>190.96</ele>
        <time>2021-08-10T14:39:41Z</time>
      </trkpt>
      <trkpt lat="48.29552" lon="4.49975">
        <ele>189.52</ele>
        <time>2021-08-10T14:39:44Z</time>
      </trkpt>
      <trkpt lat="48.29547" lon="4.49897">
        <ele>186.63</ele>
        <time>2021-08-10T14:39:52Z</time>
      </trkpt>
      <trkpt lat="48.29541" lon="4.49816">
        <ele>184.23</ele>
        <time>2021-08-10T14:39:59Z</time>
      </trkpt>
      <trkpt lat="48.29537" lon="4.49753">
        <ele>182.79</ele>
        <time>2021-08-10T14:40:04Z</time>
      </trkpt>
      <trkpt lat="48.29529" lon="4.49649">
        <ele>179.42</ele>
        <time>2021-08-10T14:40:12Z</time>
      </trkpt>
      <trkpt lat="48.29523" lon="4.4956">
        <ele>178.46</ele>
        <time>2021-08-10T14:40:19Z</time>
      </trkpt>
      <trkpt lat="48.29518" lon="4.49502">
        <ele>177.5</ele>
        <time>2021-08-10T14:40:24Z</time>
      </trkpt>
      <trkpt lat="48.2952" lon="4.49458">
        <ele>177.98</ele>
        <time>2021-08-10T14:40:28Z</time>
      </trkpt>
      <trkpt lat="48.29522" lon="4.49448">
        <ele>177.98</ele>
        <time>2021-08-10T14:40:29Z</time>
      </trkpt>
      <trkpt lat="48.29543" lon="4.49379">
        <ele>175.58</ele>
        <time>2021-08-10T14:40:36Z</time>
      </trkpt>
      <trkpt lat="48.29578" lon="4.49293">
        <ele>174.14</ele>
        <time>2021-08-10T14:40:45Z</time>
      </trkpt>
      <trkpt lat="48.29619" lon="4.492">
        <ele>172.21</ele>
        <time>2021-08-10T14:40:55Z</time>
      </trkpt>
      <trkpt lat="48.29652" lon="4.49122">
        <ele>170.29</ele>
        <time>2021-08-10T14:41:03Z</time>
      </trkpt>
      <trkpt lat="48.29675" lon="4.49067">
        <ele>166.93</ele>
        <time>2021-08-10T14:41:08Z</time>
      </trkpt>
      <trkpt lat="48.29707" lon="4.49007">
        <ele>163.56</ele>
        <time>2021-08-10T14:41:13Z</time>
      </trkpt>
      <trkpt lat="48.2972" lon="4.48984">
        <ele>162.6</ele>
        <time>2021-08-10T14:41:15Z</time>
      </trkpt>
      <trkpt lat="48.29739" lon="4.48945">
        <ele>159.24</ele>
        <time>2021-08-10T14:41:18Z</time>
      </trkpt>
      <trkpt lat="48.29744" lon="4.48931">
        <ele>158.75</ele>
        <time>2021-08-10T14:41:19Z</time>
      </trkpt>
      <trkpt lat="48.29749" lon="4.48916">
        <ele>157.79</ele>
        <time>2021-08-10T14:41:20Z</time>
      </trkpt>
      <trkpt lat="48.29766" lon="4.48824">
        <ele>155.87</ele>
        <time>2021-08-10T14:41:26Z</time>
      </trkpt>
      <trkpt lat="48.29775" lon="4.4875">
        <ele>158.27</ele>
        <time>2021-08-10T14:41:32Z</time>
      </trkpt>
      <trkpt lat="48.29778" lon="4.48719">
        <ele>159.72</ele>
        <time>2021-08-10T14:41:36Z</time>
      </trkpt>
      <trkpt lat="48.2978" lon="4.48693">
        <ele>161.16</ele>
        <time>2021-08-10T14:41:41Z</time>
      </trkpt>
      <trkpt lat="48.29781" lon="4.48666">
        <ele>162.6</ele>
        <time>2021-08-10T14:41:49Z</time>
      </trkpt>
      <trkpt lat="48.29782" lon="4.48639">
        <ele>163.56</ele>
        <time>2021-08-10T14:41:57Z</time>
      </trkpt>
      <trkpt lat="48.29783" lon="4.48611">
        <ele>164.52</ele>
        <time>2021-08-10T14:42:05Z</time>
      </trkpt>
      <trkpt lat="48.29785" lon="4.48585">
        <ele>165.96</ele>
        <time>2021-08-10T14:42:12Z</time>
      </trkpt>
      <trkpt lat="48.29785" lon="4.48555">
        <ele>167.41</ele>
        <time>2021-08-10T14:42:20Z</time>
      </trkpt>
      <trkpt lat="48.29786" lon="4.48526">
        <ele>168.85</ele>
        <time>2021-08-10T14:42:28Z</time>
      </trkpt>
      <trkpt lat="48.2979" lon="4.48491">
        <ele>170.77</ele>
        <time>2021-08-10T14:42:39Z</time>
      </trkpt>
      <trkpt lat="48.29787" lon="4.4847">
        <ele>171.25</ele>
        <time>2021-08-10T14:42:47Z</time>
      </trkpt>
      <trkpt lat="48.29787" lon="4.48468">
        <ele>171.25</ele>
        <time>2021-08-10T14:42:48Z</time>
      </trkpt>
      <trkpt lat="48.29787" lon="4.48465">
        <ele>171.73</ele>
        <time>2021-08-10T14:42:49Z</time>
      </trkpt>
      <trkpt lat="48.29786" lon="4.48462">
        <ele>171.73</ele>
        <time>2021-08-10T14:42:50Z</time>
      </trkpt>
      <trkpt lat="48.29786" lon="4.48459">
        <ele>172.21</ele>
        <time>2021-08-10T14:42:51Z</time>
      </trkpt>
      <trkpt lat="48.29785" lon="4.48456">
        <ele>172.21</ele>
        <time>2021-08-10T14:42:52Z</time>
      </trkpt>
      <trkpt lat="48.29785" lon="4.48453">
        <ele>172.21</ele>
        <time>2021-08-10T14:42:53Z</time>
      </trkpt>
      <trkpt lat="48.29784" lon="4.4845">
        <ele>172.21</ele>
        <time>2021-08-10T14:42:54Z</time>
      </trkpt>
      <trkpt lat="48.29776" lon="4.48427">
        <ele>173.17</ele>
        <time>2021-08-10T14:43:02Z</time>
      </trkpt>
      <trkpt lat="48.29768" lon="4.48408">
        <ele>173.66</ele>
        <time>2021-08-10T14:43:09Z</time>
      </trkpt>
      <trkpt lat="48.29757" lon="4.48385">
        <ele>174.62</ele>
        <time>2021-08-10T14:43:15Z</time>
      </trkpt>
      <trkpt lat="48.29744" lon="4.48358">
        <ele>174.62</ele>
        <time>2021-08-10T14:43:22Z</time>
      </trkpt>
      <trkpt lat="48.29726" lon="4.48314">
        <ele>175.58</ele>
        <time>2021-08-10T14:43:31Z</time>
      </trkpt>
      <trkpt lat="48.29724" lon="4.48295">
        <ele>174.14</ele>
        <time>2021-08-10T14:43:34Z</time>
      </trkpt>
      <trkpt lat="48.29725" lon="4.4829">
        <ele>174.14</ele>
        <time>2021-08-10T14:43:35Z</time>
      </trkpt>
      <trkpt lat="48.29727" lon="4.48277">
        <ele>173.66</ele>
        <time>2021-08-10T14:43:37Z</time>
      </trkpt>
      <trkpt lat="48.29729" lon="4.48264">
        <ele>172.69</ele>
        <time>2021-08-10T14:43:39Z</time>
      </trkpt>
      <trkpt lat="48.29742" lon="4.48208">
        <ele>170.77</ele>
        <time>2021-08-10T14:43:45Z</time>
      </trkpt>
      <trkpt lat="48.29744" lon="4.48199">
        <ele>170.77</ele>
        <time>2021-08-10T14:43:46Z</time>
      </trkpt>
      <trkpt lat="48.29763" lon="4.48118">
        <ele>169.81</ele>
        <time>2021-08-10T14:43:54Z</time>
      </trkpt>
      <trkpt lat="48.2978" lon="4.48055">
        <ele>168.85</ele>
        <time>2021-08-10T14:44:00Z</time>
      </trkpt>
      <trkpt lat="48.29796" lon="4.47983">
        <ele>168.85</ele>
        <time>2021-08-10T14:44:07Z</time>
      </trkpt>
      <trkpt lat="48.298" lon="4.47959">
        <ele>170.29</ele>
        <time>2021-08-10T14:44:10Z</time>
      </trkpt>
      <trkpt lat="48.29811" lon="4.47918">
        <ele>172.21</ele>
        <time>2021-08-10T14:44:17Z</time>
      </trkpt>
      <trkpt lat="48.29821" lon="4.47873">
        <ele>172.69</ele>
        <time>2021-08-10T14:44:25Z</time>
      </trkpt>
      <trkpt lat="48.29832" lon="4.47819">
        <ele>172.69</ele>
        <time>2021-08-10T14:44:32Z</time>
      </trkpt>
      <trkpt lat="48.2985" lon="4.47741">
        <ele>170.77</ele>
        <time>2021-08-10T14:44:41Z</time>
      </trkpt>
      <trkpt lat="48.29871" lon="4.47647">
        <ele>168.37</ele>
        <time>2021-08-10T14:44:51Z</time>
      </trkpt>
      <trkpt lat="48.2989" lon="4.47567">
        <ele>165.48</ele>
        <time>2021-08-10T14:44:59Z</time>
      </trkpt>
      <trkpt lat="48.29895" lon="4.47543">
        <ele>164.52</ele>
        <time>2021-08-10T14:45:01Z</time>
      </trkpt>
      <trkpt lat="48.29903" lon="4.47508">
        <ele>163.08</ele>
        <time>2021-08-10T14:45:04Z</time>
      </trkpt>
      <trkpt lat="48.29927" lon="4.47413">
        <ele>160.2</ele>
        <time>2021-08-10T14:45:12Z</time>
      </trkpt>
      <trkpt lat="48.29935" lon="4.4738">
        <ele>162.12</ele>
        <time>2021-08-10T14:45:16Z</time>
      </trkpt>
      <trkpt lat="48.29937" lon="4.47373">
        <ele>162.6</ele>
        <time>2021-08-10T14:45:17Z</time>
      </trkpt>
      <trkpt lat="48.29944" lon="4.47332">
        <ele>164.52</ele>
        <time>2021-08-10T14:45:24Z</time>
      </trkpt>
      <trkpt lat="48.29952" lon="4.47294">
        <ele>165.96</ele>
        <time>2021-08-10T14:45:31Z</time>
      </trkpt>
      <trkpt lat="48.29963" lon="4.47248">
        <ele>165.96</ele>
        <time>2021-08-10T14:45:39Z</time>
      </trkpt>
      <trkpt lat="48.29965" lon="4.47241">
        <ele>165.96</ele>
        <time>2021-08-10T14:45:40Z</time>
      </trkpt>
      <trkpt lat="48.29966" lon="4.47234">
        <ele>165.96</ele>
        <time>2021-08-10T14:45:41Z</time>
      </trkpt>
      <trkpt lat="48.29983" lon="4.47166">
        <ele>165.96</ele>
        <time>2021-08-10T14:45:51Z</time>
      </trkpt>
      <trkpt lat="48.29994" lon="4.47112">
        <ele>166.45</ele>
        <time>2021-08-10T14:46:00Z</time>
      </trkpt>
      <trkpt lat="48.30001" lon="4.47079">
        <ele>167.41</ele>
        <time>2021-08-10T14:46:07Z</time>
      </trkpt>
      <trkpt lat="48.30009" lon="4.47045">
        <ele>167.41</ele>
        <time>2021-08-10T14:46:14Z</time>
      </trkpt>
      <trkpt lat="48.30018" lon="4.47007">
        <ele>168.85</ele>
        <time>2021-08-10T14:46:21Z</time>
      </trkpt>
      <trkpt lat="48.30029" lon="4.46965">
        <ele>168.85</ele>
        <time>2021-08-10T14:46:29Z</time>
      </trkpt>
      <trkpt lat="48.30038" lon="4.4693">
        <ele>168.85</ele>
        <time>2021-08-10T14:46:36Z</time>
      </trkpt>
      <trkpt lat="48.30047" lon="4.46896">
        <ele>169.81</ele>
        <time>2021-08-10T14:46:43Z</time>
      </trkpt>
      <trkpt lat="48.30057" lon="4.46851">
        <ele>169.81</ele>
        <time>2021-08-10T14:46:51Z</time>
      </trkpt>
      <trkpt lat="48.30061" lon="4.46831">
        <ele>169.81</ele>
        <time>2021-08-10T14:46:54Z</time>
      </trkpt>
      <trkpt lat="48.30074" lon="4.46778">
        <ele>169.81</ele>
        <time>2021-08-10T14:47:02Z</time>
      </trkpt>
      <trkpt lat="48.30085" lon="4.46729">
        <ele>171.25</ele>
        <time>2021-08-10T14:47:11Z</time>
      </trkpt>
      <trkpt lat="48.3009" lon="4.46708">
        <ele>172.69</ele>
        <time>2021-08-10T14:47:18Z</time>
      </trkpt>
      <trkpt lat="48.30095" lon="4.46683">
        <ele>173.66</ele>
        <time>2021-08-10T14:47:28Z</time>
      </trkpt>
      <trkpt lat="48.301" lon="4.46654">
        <ele>175.1</ele>
        <time>2021-08-10T14:47:37Z</time>
      </trkpt>
      <trkpt lat="48.30105" lon="4.46632">
        <ele>175.58</ele>
        <time>2021-08-10T14:47:44Z</time>
      </trkpt>
      <trkpt lat="48.30109" lon="4.46605">
        <ele>176.54</ele>
        <time>2021-08-10T14:47:52Z</time>
      </trkpt>
      <trkpt lat="48.30115" lon="4.46581">
        <ele>177.5</ele>
        <time>2021-08-10T14:48:00Z</time>
      </trkpt>
      <trkpt lat="48.30119" lon="4.46562">
        <ele>178.46</ele>
        <time>2021-08-10T14:48:07Z</time>
      </trkpt>
      <trkpt lat="48.30123" lon="4.46547">
        <ele>178.94</ele>
        <time>2021-08-10T14:48:13Z</time>
      </trkpt>
      <trkpt lat="48.30127" lon="4.46532">
        <ele>179.9</ele>
        <time>2021-08-10T14:48:20Z</time>
      </trkpt>
      <trkpt lat="48.30128" lon="4.46531">
        <ele>179.9</ele>
        <time>2021-08-10T14:48:21Z</time>
      </trkpt>
      <trkpt lat="48.30133" lon="4.46512">
        <ele>180.38</ele>
        <time>2021-08-10T14:48:29Z</time>
      </trkpt>
      <trkpt lat="48.30136" lon="4.46496">
        <ele>181.35</ele>
        <time>2021-08-10T14:48:36Z</time>
      </trkpt>
      <trkpt lat="48.30141" lon="4.46478">
        <ele>181.35</ele>
        <time>2021-08-10T14:48:43Z</time>
      </trkpt>
      <trkpt lat="48.30141" lon="4.46475">
        <ele>181.35</ele>
        <time>2021-08-10T14:48:44Z</time>
      </trkpt>
      <trkpt lat="48.30141" lon="4.46473">
        <ele>181.83</ele>
        <time>2021-08-10T14:48:45Z</time>
      </trkpt>
      <trkpt lat="48.30141" lon="4.4647">
        <ele>181.83</ele>
        <time>2021-08-10T14:48:46Z</time>
      </trkpt>
      <trkpt lat="48.30141" lon="4.46468">
        <ele>181.83</ele>
        <time>2021-08-10T14:48:47Z</time>
      </trkpt>
      <trkpt lat="48.30141" lon="4.46465">
        <ele>181.83</ele>
        <time>2021-08-10T14:48:48Z</time>
      </trkpt>
      <trkpt lat="48.3014" lon="4.4646">
        <ele>181.83</ele>
        <time>2021-08-10T14:48:49Z</time>
      </trkpt>
      <trkpt lat="48.3014" lon="4.46456">
        <ele>181.83</ele>
        <time>2021-08-10T14:48:50Z</time>
      </trkpt>
      <trkpt lat="48.30139" lon="4.46452">
        <ele>181.83</ele>
        <time>2021-08-10T14:48:51Z</time>
      </trkpt>
      <trkpt lat="48.30139" lon="4.46448">
        <ele>181.83</ele>
        <time>2021-08-10T14:48:52Z</time>
      </trkpt>
      <trkpt lat="48.3014" lon="4.46441">
        <ele>181.83</ele>
        <time>2021-08-10T14:48:54Z</time>
      </trkpt>
      <trkpt lat="48.3014" lon="4.46439">
        <ele>181.83</ele>
        <time>2021-08-10T14:48:55Z</time>
      </trkpt>
      <trkpt lat="48.30141" lon="4.46435">
        <ele>181.83</ele>
        <time>2021-08-10T14:48:56Z</time>
      </trkpt>
      <trkpt lat="48.30141" lon="4.46432">
        <ele>181.83</ele>
        <time>2021-08-10T14:48:57Z</time>
      </trkpt>
      <trkpt lat="48.30142" lon="4.4643">
        <ele>181.83</ele>
        <time>2021-08-10T14:48:58Z</time>
      </trkpt>
      <trkpt lat="48.30143" lon="4.46427">
        <ele>181.83</ele>
        <time>2021-08-10T14:48:59Z</time>
      </trkpt>
      <trkpt lat="48.30144" lon="4.46425">
        <ele>181.83</ele>
        <time>2021-08-10T14:49:00Z</time>
      </trkpt>
      <trkpt lat="48.30145" lon="4.46422">
        <ele>181.83</ele>
        <time>2021-08-10T14:49:01Z</time>
      </trkpt>
      <trkpt lat="48.30145" lon="4.46419">
        <ele>181.83</ele>
        <time>2021-08-10T14:49:02Z</time>
      </trkpt>
      <trkpt lat="48.30146" lon="4.46417">
        <ele>181.83</ele>
        <time>2021-08-10T14:49:03Z</time>
      </trkpt>
      <trkpt lat="48.30145" lon="4.46414">
        <ele>181.83</ele>
        <time>2021-08-10T14:49:04Z</time>
      </trkpt>
      <trkpt lat="48.30144" lon="4.46382">
        <ele>181.83</ele>
        <time>2021-08-10T14:49:11Z</time>
      </trkpt>
      <trkpt lat="48.30143" lon="4.46349">
        <ele>181.83</ele>
        <time>2021-08-10T14:49:17Z</time>
      </trkpt>
      <trkpt lat="48.30136" lon="4.46286">
        <ele>180.87</ele>
        <time>2021-08-10T14:49:26Z</time>
      </trkpt>
      <trkpt lat="48.30131" lon="4.46244">
        <ele>180.87</ele>
        <time>2021-08-10T14:49:32Z</time>
      </trkpt>
      <trkpt lat="48.30127" lon="4.46195">
        <ele>179.9</ele>
        <time>2021-08-10T14:49:39Z</time>
      </trkpt>
      <trkpt lat="48.30124" lon="4.46161">
        <ele>179.9</ele>
        <time>2021-08-10T14:49:45Z</time>
      </trkpt>
      <trkpt lat="48.30119" lon="4.46122">
        <ele>179.42</ele>
        <time>2021-08-10T14:49:51Z</time>
      </trkpt>
      <trkpt lat="48.30117" lon="4.46092">
        <ele>178.94</ele>
        <time>2021-08-10T14:49:55Z</time>
      </trkpt>
      <trkpt lat="48.30118" lon="4.46084">
        <ele>178.94</ele>
        <time>2021-08-10T14:49:56Z</time>
      </trkpt>
      <trkpt lat="48.30118" lon="4.46055">
        <ele>178.46</ele>
        <time>2021-08-10T14:50:00Z</time>
      </trkpt>
      <trkpt lat="48.30114" lon="4.46003">
        <ele>176.06</ele>
        <time>2021-08-10T14:50:06Z</time>
      </trkpt>
      <trkpt lat="48.30106" lon="4.45912">
        <ele>173.66</ele>
        <time>2021-08-10T14:50:15Z</time>
      </trkpt>
      <trkpt lat="48.30098" lon="4.45834">
        <ele>171.73</ele>
        <time>2021-08-10T14:50:23Z</time>
      </trkpt>
      <trkpt lat="48.30096" lon="4.45806">
        <ele>171.73</ele>
        <time>2021-08-10T14:50:26Z</time>
      </trkpt>
      <trkpt lat="48.30095" lon="4.45798">
        <ele>171.73</ele>
        <time>2021-08-10T14:50:27Z</time>
      </trkpt>
      <trkpt lat="48.30094" lon="4.45788">
        <ele>171.73</ele>
        <time>2021-08-10T14:50:28Z</time>
      </trkpt>
      <trkpt lat="48.30093" lon="4.4578">
        <ele>171.73</ele>
        <time>2021-08-10T14:50:29Z</time>
      </trkpt>
      <trkpt lat="48.30092" lon="4.45771">
        <ele>170.77</ele>
        <time>2021-08-10T14:50:30Z</time>
      </trkpt>
      <trkpt lat="48.30091" lon="4.45752">
        <ele>170.29</ele>
        <time>2021-08-10T14:50:32Z</time>
      </trkpt>
      <trkpt lat="48.30086" lon="4.457">
        <ele>168.37</ele>
        <time>2021-08-10T14:50:37Z</time>
      </trkpt>
      <trkpt lat="48.3008" lon="4.45629">
        <ele>165</ele>
        <time>2021-08-10T14:50:43Z</time>
      </trkpt>
      <trkpt lat="48.30071" lon="4.45531">
        <ele>163.56</ele>
        <time>2021-08-10T14:50:51Z</time>
      </trkpt>
      <trkpt lat="48.30069" lon="4.45508">
        <ele>163.08</ele>
        <time>2021-08-10T14:50:53Z</time>
      </trkpt>
      <trkpt lat="48.30062" lon="4.45425">
        <ele>161.64</ele>
        <time>2021-08-10T14:51:01Z</time>
      </trkpt>
      <trkpt lat="48.30057" lon="4.45363">
        <ele>160.68</ele>
        <time>2021-08-10T14:51:08Z</time>
      </trkpt>
      <trkpt lat="48.3005" lon="4.45298">
        <ele>159.72</ele>
        <time>2021-08-10T14:51:15Z</time>
      </trkpt>
      <trkpt lat="48.30045" lon="4.45228">
        <ele>158.27</ele>
        <time>2021-08-10T14:51:22Z</time>
      </trkpt>
      <trkpt lat="48.30041" lon="4.45164">
        <ele>156.35</ele>
        <time>2021-08-10T14:51:28Z</time>
      </trkpt>
      <trkpt lat="48.30039" lon="4.45127">
        <ele>157.79</ele>
        <time>2021-08-10T14:51:32Z</time>
      </trkpt>
      <trkpt lat="48.30039" lon="4.4512">
        <ele>157.79</ele>
        <time>2021-08-10T14:51:33Z</time>
      </trkpt>
      <trkpt lat="48.30033" lon="4.45077">
        <ele>158.75</ele>
        <time>2021-08-10T14:51:40Z</time>
      </trkpt>
      <trkpt lat="48.30027" lon="4.4504">
        <ele>159.72</ele>
        <time>2021-08-10T14:51:48Z</time>
      </trkpt>
      <trkpt lat="48.30024" lon="4.45007">
        <ele>159.72</ele>
        <time>2021-08-10T14:51:55Z</time>
      </trkpt>
      <trkpt lat="48.3002" lon="4.44965">
        <ele>160.2</ele>
        <time>2021-08-10T14:52:03Z</time>
      </trkpt>
      <trkpt lat="48.30016" lon="4.44926">
        <ele>160.68</ele>
        <time>2021-08-10T14:52:10Z</time>
      </trkpt>
      <trkpt lat="48.3001" lon="4.44883">
        <ele>160.68</ele>
        <time>2021-08-10T14:52:18Z</time>
      </trkpt>
      <trkpt lat="48.30006" lon="4.44833">
        <ele>160.68</ele>
        <time>2021-08-10T14:52:26Z</time>
      </trkpt>
      <trkpt lat="48.30004" lon="4.4481">
        <ele>159.24</ele>
        <time>2021-08-10T14:52:30Z</time>
      </trkpt>
      <trkpt lat="48.29998" lon="4.44758">
        <ele>158.27</ele>
        <time>2021-08-10T14:52:38Z</time>
      </trkpt>
      <trkpt lat="48.29997" lon="4.4475">
        <ele>158.27</ele>
        <time>2021-08-10T14:52:39Z</time>
      </trkpt>
      <trkpt lat="48.29995" lon="4.44747">
        <ele>158.27</ele>
        <time>2021-08-10T14:52:40Z</time>
      </trkpt>
      <trkpt lat="48.29992" lon="4.44748">
        <ele>158.27</ele>
        <time>2021-08-10T14:52:41Z</time>
      </trkpt>
      <trkpt lat="48.29991" lon="4.44749">
        <ele>158.27</ele>
        <time>2021-08-10T14:52:42Z</time>
      </trkpt>
      <trkpt lat="48.29989" lon="4.4475">
        <ele>158.27</ele>
        <time>2021-08-10T14:52:43Z</time>
      </trkpt>
      <trkpt lat="48.29987" lon="4.44752">
        <ele>158.27</ele>
        <time>2021-08-10T14:52:44Z</time>
      </trkpt>
      <trkpt lat="48.29985" lon="4.44753">
        <ele>158.27</ele>
        <time>2021-08-10T14:52:45Z</time>
      </trkpt>
      <trkpt lat="48.29983" lon="4.44756">
        <ele>158.27</ele>
        <time>2021-08-10T14:52:46Z</time>
      </trkpt>
      <trkpt lat="48.29981" lon="4.44758">
        <ele>158.27</ele>
        <time>2021-08-10T14:52:47Z</time>
      </trkpt>
      <trkpt lat="48.29979" lon="4.44761">
        <ele>158.27</ele>
        <time>2021-08-10T14:52:48Z</time>
      </trkpt>
      <trkpt lat="48.29962" lon="4.44779">
        <ele>158.27</ele>
        <time>2021-08-10T14:52:54Z</time>
      </trkpt>
      <trkpt lat="48.29937" lon="4.44807">
        <ele>157.79</ele>
        <time>2021-08-10T14:53:01Z</time>
      </trkpt>
      <trkpt lat="48.29915" lon="4.44833">
        <ele>157.79</ele>
        <time>2021-08-10T14:53:07Z</time>
      </trkpt>
      <trkpt lat="48.29899" lon="4.44851">
        <ele>158.27</ele>
        <time>2021-08-10T14:53:14Z</time>
      </trkpt>
      <trkpt lat="48.29897" lon="4.44853">
        <ele>158.27</ele>
        <time>2021-08-10T14:53:23Z</time>
      </trkpt>
      <trkpt lat="48.29897" lon="4.44857">
        <ele>158.27</ele>
        <time>2021-08-10T14:53:42Z</time>
      </trkpt>
      <trkpt lat="48.29895" lon="4.44859">
        <ele>158.27</ele>
        <time>2021-08-10T14:53:55Z</time>
      </trkpt>
      <trkpt lat="48.29895" lon="4.44862">
        <ele>159.72</ele>
        <time>2021-08-10T14:54:16Z</time>
      </trkpt>
      <trkpt lat="48.29895" lon="4.44864">
        <ele>159.72</ele>
        <time>2021-08-10T14:54:32Z</time>
      </trkpt>
      <trkpt lat="48.29894" lon="4.44863">
        <ele>159.72</ele>
        <time>2021-08-10T14:54:49Z</time>
      </trkpt>
      <trkpt lat="48.29893" lon="4.44864">
        <ele>159.72</ele>
        <time>2021-08-10T14:55:05Z</time>
      </trkpt>
      <trkpt lat="48.29892" lon="4.44867">
        <ele>159.72</ele>
        <time>2021-08-10T14:55:24Z</time>
      </trkpt>
      <trkpt lat="48.29892" lon="4.44863">
        <ele>159.72</ele>
        <time>2021-08-10T14:55:42Z</time>
      </trkpt>
      <trkpt lat="48.29891" lon="4.44857">
        <ele>159.72</ele>
        <time>2021-08-10T14:55:57Z</time>
      </trkpt>
      <trkpt lat="48.29891" lon="4.44861">
        <ele>159.72</ele>
        <time>2021-08-10T14:56:18Z</time>
      </trkpt>
      <trkpt lat="48.29891" lon="4.44863">
        <ele>159.72</ele>
        <time>2021-08-10T14:56:39Z</time>
      </trkpt>
      <trkpt lat="48.29892" lon="4.44865">
        <ele>159.72</ele>
        <time>2021-08-10T14:56:57Z</time>
      </trkpt>
      <trkpt lat="48.29889" lon="4.44861">
        <ele>159.72</ele>
        <time>2021-08-10T14:57:09Z</time>
      </trkpt>
      <trkpt lat="48.29894" lon="4.44865">
        <ele>159.72</ele>
        <time>2021-08-10T14:57:27Z</time>
      </trkpt>
      <trkpt lat="48.29895" lon="4.44866">
        <ele>159.72</ele>
        <time>2021-08-10T14:57:42Z</time>
      </trkpt>
      <trkpt lat="48.29895" lon="4.44864">
        <ele>159.72</ele>
        <time>2021-08-10T14:57:57Z</time>
      </trkpt>
      <trkpt lat="48.29893" lon="4.44862">
        <ele>159.72</ele>
        <time>2021-08-10T14:58:10Z</time>
      </trkpt>
      <trkpt lat="48.29893" lon="4.4486">
        <ele>159.72</ele>
        <time>2021-08-10T14:58:23Z</time>
      </trkpt>
      <trkpt lat="48.29895" lon="4.44863">
        <ele>159.72</ele>
        <time>2021-08-10T14:58:43Z</time>
      </trkpt>
      <trkpt lat="48.29892" lon="4.44862">
        <ele>159.72</ele>
        <time>2021-08-10T14:58:57Z</time>
      </trkpt>
      <trkpt lat="48.2989" lon="4.44862">
        <ele>159.72</ele>
        <time>2021-08-10T14:59:15Z</time>
      </trkpt>
      <trkpt lat="48.29888" lon="4.44865">
        <ele>159.72</ele>
        <time>2021-08-10T14:59:23Z</time>
      </trkpt>
      <trkpt lat="48.2988" lon="4.44874">
        <ele>159.72</ele>
        <time>2021-08-10T14:59:30Z</time>
      </trkpt>
      <trkpt lat="48.29871" lon="4.44888">
        <ele>159.72</ele>
        <time>2021-08-10T14:59:37Z</time>
      </trkpt>
      <trkpt lat="48.2986" lon="4.44902">
        <ele>160.2</ele>
        <time>2021-08-10T14:59:46Z</time>
      </trkpt>
      <trkpt lat="48.29846" lon="4.4492">
        <ele>160.2</ele>
        <time>2021-08-10T14:59:54Z</time>
      </trkpt>
      <trkpt lat="48.2983" lon="4.44929">
        <ele>160.2</ele>
        <time>2021-08-10T15:00:01Z</time>
      </trkpt>
      <trkpt lat="48.29827" lon="4.44927">
        <ele>160.2</ele>
        <time>2021-08-10T15:00:02Z</time>
      </trkpt>
      <trkpt lat="48.29824" lon="4.44925">
        <ele>160.2</ele>
        <time>2021-08-10T15:00:03Z</time>
      </trkpt>
      <trkpt lat="48.29821" lon="4.44922">
        <ele>160.2</ele>
        <time>2021-08-10T15:00:04Z</time>
      </trkpt>
      <trkpt lat="48.29818" lon="4.44918">
        <ele>160.2</ele>
        <time>2021-08-10T15:00:05Z</time>
      </trkpt>
      <trkpt lat="48.29815" lon="4.44914">
        <ele>160.2</ele>
        <time>2021-08-10T15:00:06Z</time>
      </trkpt>
      <trkpt lat="48.29812" lon="4.44909">
        <ele>160.2</ele>
        <time>2021-08-10T15:00:07Z</time>
      </trkpt>
      <trkpt lat="48.29803" lon="4.44895">
        <ele>159.24</ele>
        <time>2021-08-10T15:00:10Z</time>
      </trkpt>
      <trkpt lat="48.29801" lon="4.44891">
        <ele>159.24</ele>
        <time>2021-08-10T15:00:11Z</time>
      </trkpt>
      <trkpt lat="48.29798" lon="4.44885">
        <ele>158.27</ele>
        <time>2021-08-10T15:00:12Z</time>
      </trkpt>
      <trkpt lat="48.29773" lon="4.44844">
        <ele>157.79</ele>
        <time>2021-08-10T15:00:19Z</time>
      </trkpt>
      <trkpt lat="48.29754" lon="4.44812">
        <ele>156.35</ele>
        <time>2021-08-10T15:00:24Z</time>
      </trkpt>
      <trkpt lat="48.29714" lon="4.4474">
        <ele>154.91</ele>
        <time>2021-08-10T15:00:35Z</time>
      </trkpt>
      <trkpt lat="48.29682" lon="4.44681">
        <ele>152.99</ele>
        <time>2021-08-10T15:00:43Z</time>
      </trkpt>
      <trkpt lat="48.29648" lon="4.44624">
        <ele>152.03</ele>
        <time>2021-08-10T15:00:51Z</time>
      </trkpt>
      <trkpt lat="48.29626" lon="4.44583">
        <ele>153.47</ele>
        <time>2021-08-10T15:00:58Z</time>
      </trkpt>
      <trkpt lat="48.29624" lon="4.44579">
        <ele>153.47</ele>
        <time>2021-08-10T15:00:59Z</time>
      </trkpt>
      <trkpt lat="48.29612" lon="4.44553">
        <ele>155.39</ele>
        <time>2021-08-10T15:01:06Z</time>
      </trkpt>
      <trkpt lat="48.29601" lon="4.44534">
        <ele>156.83</ele>
        <time>2021-08-10T15:01:14Z</time>
      </trkpt>
      <trkpt lat="48.29587" lon="4.44507">
        <ele>158.75</ele>
        <time>2021-08-10T15:01:25Z</time>
      </trkpt>
      <trkpt lat="48.2957" lon="4.44478">
        <ele>159.72</ele>
        <time>2021-08-10T15:01:36Z</time>
      </trkpt>
      <trkpt lat="48.29555" lon="4.44452">
        <ele>160.68</ele>
        <time>2021-08-10T15:01:45Z</time>
      </trkpt>
      <trkpt lat="48.2954" lon="4.44423">
        <ele>161.16</ele>
        <time>2021-08-10T15:01:54Z</time>
      </trkpt>
      <trkpt lat="48.29523" lon="4.44395">
        <ele>161.64</ele>
        <time>2021-08-10T15:02:02Z</time>
      </trkpt>
      <trkpt lat="48.29503" lon="4.44362">
        <ele>161.64</ele>
        <time>2021-08-10T15:02:10Z</time>
      </trkpt>
      <trkpt lat="48.29493" lon="4.44341">
        <ele>161.64</ele>
        <time>2021-08-10T15:02:14Z</time>
      </trkpt>
      <trkpt lat="48.2949" lon="4.44336">
        <ele>161.64</ele>
        <time>2021-08-10T15:02:15Z</time>
      </trkpt>
      <trkpt lat="48.29465" lon="4.44288">
        <ele>160.2</ele>
        <time>2021-08-10T15:02:24Z</time>
      </trkpt>
      <trkpt lat="48.29441" lon="4.44244">
        <ele>160.2</ele>
        <time>2021-08-10T15:02:32Z</time>
      </trkpt>
      <trkpt lat="48.29408" lon="4.44185">
        <ele>158.75</ele>
        <time>2021-08-10T15:02:41Z</time>
      </trkpt>
      <trkpt lat="48.29368" lon="4.44116">
        <ele>156.83</ele>
        <time>2021-08-10T15:02:51Z</time>
      </trkpt>
      <trkpt lat="48.29351" lon="4.44091">
        <ele>156.83</ele>
        <time>2021-08-10T15:02:55Z</time>
      </trkpt>
      <trkpt lat="48.29337" lon="4.44066">
        <ele>158.27</ele>
        <time>2021-08-10T15:03:00Z</time>
      </trkpt>
      <trkpt lat="48.29327" lon="4.44048">
        <ele>159.24</ele>
        <time>2021-08-10T15:03:05Z</time>
      </trkpt>
      <trkpt lat="48.29313" lon="4.44021">
        <ele>160.68</ele>
        <time>2021-08-10T15:03:13Z</time>
      </trkpt>
      <trkpt lat="48.29304" lon="4.43996">
        <ele>161.16</ele>
        <time>2021-08-10T15:03:20Z</time>
      </trkpt>
      <trkpt lat="48.29305" lon="4.43992">
        <ele>162.12</ele>
        <time>2021-08-10T15:03:21Z</time>
      </trkpt>
      <trkpt lat="48.29307" lon="4.43988">
        <ele>162.12</ele>
        <time>2021-08-10T15:03:22Z</time>
      </trkpt>
      <trkpt lat="48.29309" lon="4.43984">
        <ele>162.12</ele>
        <time>2021-08-10T15:03:23Z</time>
      </trkpt>
      <trkpt lat="48.29311" lon="4.4398">
        <ele>162.12</ele>
        <time>2021-08-10T15:03:24Z</time>
      </trkpt>
      <trkpt lat="48.29328" lon="4.43956">
        <ele>162.6</ele>
        <time>2021-08-10T15:03:31Z</time>
      </trkpt>
      <trkpt lat="48.29349" lon="4.43929">
        <ele>162.6</ele>
        <time>2021-08-10T15:03:38Z</time>
      </trkpt>
      <trkpt lat="48.29375" lon="4.43895">
        <ele>160.2</ele>
        <time>2021-08-10T15:03:45Z</time>
      </trkpt>
      <trkpt lat="48.29411" lon="4.43852">
        <ele>158.75</ele>
        <time>2021-08-10T15:03:52Z</time>
      </trkpt>
      <trkpt lat="48.29442" lon="4.43812">
        <ele>157.79</ele>
        <time>2021-08-10T15:03:59Z</time>
      </trkpt>
      <trkpt lat="48.29478" lon="4.43767">
        <ele>156.83</ele>
        <time>2021-08-10T15:04:07Z</time>
      </trkpt>
      <trkpt lat="48.29486" lon="4.43757">
        <ele>156.83</ele>
        <time>2021-08-10T15:04:09Z</time>
      </trkpt>
      <trkpt lat="48.29513" lon="4.43725">
        <ele>155.87</ele>
        <time>2021-08-10T15:04:15Z</time>
      </trkpt>
      <trkpt lat="48.29556" lon="4.4367">
        <ele>153.95</ele>
        <time>2021-08-10T15:04:24Z</time>
      </trkpt>
      <trkpt lat="48.2956" lon="4.43664">
        <ele>153.95</ele>
        <time>2021-08-10T15:04:25Z</time>
      </trkpt>
      <trkpt lat="48.29561" lon="4.43657">
        <ele>153.47</ele>
        <time>2021-08-10T15:04:26Z</time>
      </trkpt>
      <trkpt lat="48.29561" lon="4.43651">
        <ele>153.47</ele>
        <time>2021-08-10T15:04:27Z</time>
      </trkpt>
      <trkpt lat="48.29559" lon="4.43644">
        <ele>153.47</ele>
        <time>2021-08-10T15:04:28Z</time>
      </trkpt>
      <trkpt lat="48.29556" lon="4.43638">
        <ele>153.47</ele>
        <time>2021-08-10T15:04:29Z</time>
      </trkpt>
      <trkpt lat="48.29554" lon="4.43635">
        <ele>153.47</ele>
        <time>2021-08-10T15:04:30Z</time>
      </trkpt>
      <trkpt lat="48.2955" lon="4.4363">
        <ele>153.47</ele>
        <time>2021-08-10T15:04:31Z</time>
      </trkpt>
      <trkpt lat="48.29546" lon="4.43625">
        <ele>152.99</ele>
        <time>2021-08-10T15:04:32Z</time>
      </trkpt>
      <trkpt lat="48.29512" lon="4.43579">
        <ele>152.03</ele>
        <time>2021-08-10T15:04:40Z</time>
      </trkpt>
      <trkpt lat="48.29483" lon="4.43544">
        <ele>153.47</ele>
        <time>2021-08-10T15:04:48Z</time>
      </trkpt>
      <trkpt lat="48.29481" lon="4.43539">
        <ele>153.47</ele>
        <time>2021-08-10T15:04:49Z</time>
      </trkpt>
      <trkpt lat="48.29467" lon="4.43518">
        <ele>153.95</ele>
        <time>2021-08-10T15:04:54Z</time>
      </trkpt>
      <trkpt lat="48.29449" lon="4.43489">
        <ele>155.39</ele>
        <time>2021-08-10T15:05:04Z</time>
      </trkpt>
      <trkpt lat="48.29436" lon="4.43469">
        <ele>156.35</ele>
        <time>2021-08-10T15:05:11Z</time>
      </trkpt>
      <trkpt lat="48.2942" lon="4.43446">
        <ele>156.83</ele>
        <time>2021-08-10T15:05:19Z</time>
      </trkpt>
      <trkpt lat="48.29405" lon="4.43422">
        <ele>158.75</ele>
        <time>2021-08-10T15:05:27Z</time>
      </trkpt>
      <trkpt lat="48.29388" lon="4.43402">
        <ele>159.24</ele>
        <time>2021-08-10T15:05:35Z</time>
      </trkpt>
      <trkpt lat="48.29373" lon="4.43379">
        <ele>160.2</ele>
        <time>2021-08-10T15:05:43Z</time>
      </trkpt>
      <trkpt lat="48.29357" lon="4.43358">
        <ele>160.68</ele>
        <time>2021-08-10T15:05:51Z</time>
      </trkpt>
      <trkpt lat="48.29342" lon="4.43336">
        <ele>161.64</ele>
        <time>2021-08-10T15:05:59Z</time>
      </trkpt>
      <trkpt lat="48.2932" lon="4.43308">
        <ele>163.08</ele>
        <time>2021-08-10T15:06:09Z</time>
      </trkpt>
      <trkpt lat="48.29305" lon="4.43284">
        <ele>163.56</ele>
        <time>2021-08-10T15:06:17Z</time>
      </trkpt>
      <trkpt lat="48.29283" lon="4.43252">
        <ele>164.52</ele>
        <time>2021-08-10T15:06:27Z</time>
      </trkpt>
      <trkpt lat="48.29263" lon="4.43224">
        <ele>165.96</ele>
        <time>2021-08-10T15:06:36Z</time>
      </trkpt>
      <trkpt lat="48.29245" lon="4.43198">
        <ele>166.45</ele>
        <time>2021-08-10T15:06:44Z</time>
      </trkpt>
      <trkpt lat="48.29226" lon="4.43171">
        <ele>167.41</ele>
        <time>2021-08-10T15:06:52Z</time>
      </trkpt>
      <trkpt lat="48.29214" lon="4.43148">
        <ele>167.89</ele>
        <time>2021-08-10T15:06:58Z</time>
      </trkpt>
      <trkpt lat="48.29213" lon="4.43144">
        <ele>167.89</ele>
        <time>2021-08-10T15:06:59Z</time>
      </trkpt>
      <trkpt lat="48.29213" lon="4.4314">
        <ele>167.89</ele>
        <time>2021-08-10T15:07:00Z</time>
      </trkpt>
      <trkpt lat="48.29214" lon="4.43136">
        <ele>167.89</ele>
        <time>2021-08-10T15:07:01Z</time>
      </trkpt>
      <trkpt lat="48.29214" lon="4.43131">
        <ele>167.89</ele>
        <time>2021-08-10T15:07:02Z</time>
      </trkpt>
      <trkpt lat="48.29214" lon="4.43126">
        <ele>167.89</ele>
        <time>2021-08-10T15:07:03Z</time>
      </trkpt>
      <trkpt lat="48.29212" lon="4.43121">
        <ele>167.89</ele>
        <time>2021-08-10T15:07:04Z</time>
      </trkpt>
      <trkpt lat="48.29209" lon="4.43116">
        <ele>167.89</ele>
        <time>2021-08-10T15:07:05Z</time>
      </trkpt>
      <trkpt lat="48.29206" lon="4.43113">
        <ele>167.89</ele>
        <time>2021-08-10T15:07:06Z</time>
      </trkpt>
      <trkpt lat="48.29202" lon="4.4311">
        <ele>167.89</ele>
        <time>2021-08-10T15:07:07Z</time>
      </trkpt>
      <trkpt lat="48.29197" lon="4.43109">
        <ele>167.89</ele>
        <time>2021-08-10T15:07:08Z</time>
      </trkpt>
      <trkpt lat="48.29193" lon="4.43108">
        <ele>167.89</ele>
        <time>2021-08-10T15:07:09Z</time>
      </trkpt>
      <trkpt lat="48.29188" lon="4.43107">
        <ele>168.37</ele>
        <time>2021-08-10T15:07:10Z</time>
      </trkpt>
      <trkpt lat="48.29184" lon="4.43104">
        <ele>168.37</ele>
        <time>2021-08-10T15:07:11Z</time>
      </trkpt>
      <trkpt lat="48.2918" lon="4.431">
        <ele>168.37</ele>
        <time>2021-08-10T15:07:12Z</time>
      </trkpt>
      <trkpt lat="48.29177" lon="4.43097">
        <ele>168.37</ele>
        <time>2021-08-10T15:07:13Z</time>
      </trkpt>
      <trkpt lat="48.29157" lon="4.43068">
        <ele>168.85</ele>
        <time>2021-08-10T15:07:20Z</time>
      </trkpt>
      <trkpt lat="48.29138" lon="4.43042">
        <ele>168.85</ele>
        <time>2021-08-10T15:07:26Z</time>
      </trkpt>
      <trkpt lat="48.29101" lon="4.42996">
        <ele>169.33</ele>
        <time>2021-08-10T15:07:37Z</time>
      </trkpt>
      <trkpt lat="48.29098" lon="4.42992">
        <ele>169.33</ele>
        <time>2021-08-10T15:07:38Z</time>
      </trkpt>
      <trkpt lat="48.2906" lon="4.42943">
        <ele>169.33</ele>
        <time>2021-08-10T15:07:48Z</time>
      </trkpt>
      <trkpt lat="48.2903" lon="4.42903">
        <ele>169.33</ele>
        <time>2021-08-10T15:07:55Z</time>
      </trkpt>
      <trkpt lat="48.2899" lon="4.42848">
        <ele>167.89</ele>
        <time>2021-08-10T15:08:04Z</time>
      </trkpt>
      <trkpt lat="48.28951" lon="4.42792">
        <ele>167.89</ele>
        <time>2021-08-10T15:08:13Z</time>
      </trkpt>
      <trkpt lat="48.28908" lon="4.42734">
        <ele>166.93</ele>
        <time>2021-08-10T15:08:22Z</time>
      </trkpt>
      <trkpt lat="48.28866" lon="4.42674">
        <ele>166.45</ele>
        <time>2021-08-10T15:08:31Z</time>
      </trkpt>
      <trkpt lat="48.28821" lon="4.42608">
        <ele>165</ele>
        <time>2021-08-10T15:08:40Z</time>
      </trkpt>
      <trkpt lat="48.28767" lon="4.42524">
        <ele>164.52</ele>
        <time>2021-08-10T15:08:51Z</time>
      </trkpt>
      <trkpt lat="48.2872" lon="4.42457">
        <ele>164.04</ele>
        <time>2021-08-10T15:09:00Z</time>
      </trkpt>
      <trkpt lat="48.28674" lon="4.42394">
        <ele>162.6</ele>
        <time>2021-08-10T15:09:09Z</time>
      </trkpt>
      <trkpt lat="48.2864" lon="4.42345">
        <ele>160.68</ele>
        <time>2021-08-10T15:09:16Z</time>
      </trkpt>
      <trkpt lat="48.28596" lon="4.4228">
        <ele>159.72</ele>
        <time>2021-08-10T15:09:24Z</time>
      </trkpt>
      <trkpt lat="48.28586" lon="4.42267">
        <ele>159.72</ele>
        <time>2021-08-10T15:09:26Z</time>
      </trkpt>
      <trkpt lat="48.28554" lon="4.42223">
        <ele>159.72</ele>
        <time>2021-08-10T15:09:33Z</time>
      </trkpt>
      <trkpt lat="48.28529" lon="4.42198">
        <ele>160.68</ele>
        <time>2021-08-10T15:09:39Z</time>
      </trkpt>
      <trkpt lat="48.28525" lon="4.42196">
        <ele>161.64</ele>
        <time>2021-08-10T15:09:40Z</time>
      </trkpt>
      <trkpt lat="48.28493" lon="4.42185">
        <ele>162.12</ele>
        <time>2021-08-10T15:09:48Z</time>
      </trkpt>
      <trkpt lat="48.28464" lon="4.42186">
        <ele>163.08</ele>
        <time>2021-08-10T15:09:56Z</time>
      </trkpt>
      <trkpt lat="48.28442" lon="4.42186">
        <ele>164.04</ele>
        <time>2021-08-10T15:10:02Z</time>
      </trkpt>
      <trkpt lat="48.28405" lon="4.42188">
        <ele>165.48</ele>
        <time>2021-08-10T15:10:11Z</time>
      </trkpt>
      <trkpt lat="48.28374" lon="4.4219">
        <ele>166.45</ele>
        <time>2021-08-10T15:10:19Z</time>
      </trkpt>
      <trkpt lat="48.2834" lon="4.42191">
        <ele>166.93</ele>
        <time>2021-08-10T15:10:27Z</time>
      </trkpt>
      <trkpt lat="48.28319" lon="4.42187">
        <ele>166.93</ele>
        <time>2021-08-10T15:10:32Z</time>
      </trkpt>
      <trkpt lat="48.28306" lon="4.4218">
        <ele>166.93</ele>
        <time>2021-08-10T15:10:35Z</time>
      </trkpt>
      <trkpt lat="48.2826" lon="4.4215">
        <ele>167.89</ele>
        <time>2021-08-10T15:10:45Z</time>
      </trkpt>
      <trkpt lat="48.2822" lon="4.42123">
        <ele>168.85</ele>
        <time>2021-08-10T15:10:54Z</time>
      </trkpt>
      <trkpt lat="48.28216" lon="4.42122">
        <ele>168.85</ele>
        <time>2021-08-10T15:10:55Z</time>
      </trkpt>
      <trkpt lat="48.28211" lon="4.42121">
        <ele>168.85</ele>
        <time>2021-08-10T15:10:56Z</time>
      </trkpt>
      <trkpt lat="48.28208" lon="4.42121">
        <ele>168.85</ele>
        <time>2021-08-10T15:10:57Z</time>
      </trkpt>
      <trkpt lat="48.28204" lon="4.42121">
        <ele>169.33</ele>
        <time>2021-08-10T15:10:58Z</time>
      </trkpt>
      <trkpt lat="48.28185" lon="4.42134">
        <ele>170.29</ele>
        <time>2021-08-10T15:11:04Z</time>
      </trkpt>
      <trkpt lat="48.28166" lon="4.42153">
        <ele>170.77</ele>
        <time>2021-08-10T15:11:11Z</time>
      </trkpt>
      <trkpt lat="48.28144" lon="4.42175">
        <ele>172.69</ele>
        <time>2021-08-10T15:11:19Z</time>
      </trkpt>
      <trkpt lat="48.28124" lon="4.42195">
        <ele>173.17</ele>
        <time>2021-08-10T15:11:27Z</time>
      </trkpt>
      <trkpt lat="48.28106" lon="4.42208">
        <ele>174.14</ele>
        <time>2021-08-10T15:11:33Z</time>
      </trkpt>
      <trkpt lat="48.28081" lon="4.42212">
        <ele>174.62</ele>
        <time>2021-08-10T15:11:40Z</time>
      </trkpt>
      <trkpt lat="48.28064" lon="4.42212">
        <ele>175.1</ele>
        <time>2021-08-10T15:11:44Z</time>
      </trkpt>
      <trkpt lat="48.28059" lon="4.42212">
        <ele>175.1</ele>
        <time>2021-08-10T15:11:45Z</time>
      </trkpt>
      <trkpt lat="48.28054" lon="4.42212">
        <ele>175.1</ele>
        <time>2021-08-10T15:11:46Z</time>
      </trkpt>
      <trkpt lat="48.28049" lon="4.42212">
        <ele>175.1</ele>
        <time>2021-08-10T15:11:47Z</time>
      </trkpt>
      <trkpt lat="48.28044" lon="4.42212">
        <ele>175.1</ele>
        <time>2021-08-10T15:11:48Z</time>
      </trkpt>
      <trkpt lat="48.28019" lon="4.42212">
        <ele>175.58</ele>
        <time>2021-08-10T15:11:53Z</time>
      </trkpt>
      <trkpt lat="48.28014" lon="4.42212">
        <ele>175.58</ele>
        <time>2021-08-10T15:11:54Z</time>
      </trkpt>
      <trkpt lat="48.27972" lon="4.42207">
        <ele>176.06</ele>
        <time>2021-08-10T15:12:01Z</time>
      </trkpt>
      <trkpt lat="48.2793" lon="4.42192">
        <ele>176.54</ele>
        <time>2021-08-10T15:12:09Z</time>
      </trkpt>
      <trkpt lat="48.27912" lon="4.42183">
        <ele>176.54</ele>
        <time>2021-08-10T15:12:13Z</time>
      </trkpt>
      <trkpt lat="48.27908" lon="4.42181">
        <ele>176.54</ele>
        <time>2021-08-10T15:12:14Z</time>
      </trkpt>
      <trkpt lat="48.27904" lon="4.42179">
        <ele>176.54</ele>
        <time>2021-08-10T15:12:15Z</time>
      </trkpt>
      <trkpt lat="48.27899" lon="4.42176">
        <ele>176.54</ele>
        <time>2021-08-10T15:12:16Z</time>
      </trkpt>
      <trkpt lat="48.27894" lon="4.42174">
        <ele>176.54</ele>
        <time>2021-08-10T15:12:17Z</time>
      </trkpt>
      <trkpt lat="48.27879" lon="4.42167">
        <ele>177.02</ele>
        <time>2021-08-10T15:12:20Z</time>
      </trkpt>
      <trkpt lat="48.2785" lon="4.42155">
        <ele>177.5</ele>
        <time>2021-08-10T15:12:26Z</time>
      </trkpt>
      <trkpt lat="48.27825" lon="4.42154">
        <ele>177.98</ele>
        <time>2021-08-10T15:12:32Z</time>
      </trkpt>
      <trkpt lat="48.2782" lon="4.42164">
        <ele>177.98</ele>
        <time>2021-08-10T15:12:34Z</time>
      </trkpt>
      <trkpt lat="48.27819" lon="4.42172">
        <ele>178.46</ele>
        <time>2021-08-10T15:12:35Z</time>
      </trkpt>
      <trkpt lat="48.27818" lon="4.42179">
        <ele>178.46</ele>
        <time>2021-08-10T15:12:36Z</time>
      </trkpt>
      <trkpt lat="48.27817" lon="4.42186">
        <ele>178.46</ele>
        <time>2021-08-10T15:12:37Z</time>
      </trkpt>
      <trkpt lat="48.27816" lon="4.42193">
        <ele>178.46</ele>
        <time>2021-08-10T15:12:38Z</time>
      </trkpt>
      <trkpt lat="48.2781" lon="4.42249">
        <ele>178.46</ele>
        <time>2021-08-10T15:12:46Z</time>
      </trkpt>
      <trkpt lat="48.27805" lon="4.42279">
        <ele>177.02</ele>
        <time>2021-08-10T15:12:50Z</time>
      </trkpt>
      <trkpt lat="48.27792" lon="4.42324">
        <ele>177.02</ele>
        <time>2021-08-10T15:12:56Z</time>
      </trkpt>
      <trkpt lat="48.27789" lon="4.42332">
        <ele>177.02</ele>
        <time>2021-08-10T15:12:57Z</time>
      </trkpt>
      <trkpt lat="48.27787" lon="4.4234">
        <ele>177.02</ele>
        <time>2021-08-10T15:12:58Z</time>
      </trkpt>
      <trkpt lat="48.27784" lon="4.42347">
        <ele>177.02</ele>
        <time>2021-08-10T15:12:59Z</time>
      </trkpt>
      <trkpt lat="48.27782" lon="4.42354">
        <ele>177.02</ele>
        <time>2021-08-10T15:13:00Z</time>
      </trkpt>
      <trkpt lat="48.27778" lon="4.42368">
        <ele>177.02</ele>
        <time>2021-08-10T15:13:02Z</time>
      </trkpt>
      <trkpt lat="48.27777" lon="4.42375">
        <ele>177.02</ele>
        <time>2021-08-10T15:13:03Z</time>
      </trkpt>
      <trkpt lat="48.27773" lon="4.42379">
        <ele>177.02</ele>
        <time>2021-08-10T15:13:04Z</time>
      </trkpt>
      <trkpt lat="48.27766" lon="4.42379">
        <ele>176.06</ele>
        <time>2021-08-10T15:13:05Z</time>
      </trkpt>
      <trkpt lat="48.27762" lon="4.42374">
        <ele>176.06</ele>
        <time>2021-08-10T15:13:06Z</time>
      </trkpt>
      <trkpt lat="48.27759" lon="4.42368">
        <ele>176.06</ele>
        <time>2021-08-10T15:13:07Z</time>
      </trkpt>
      <trkpt lat="48.27757" lon="4.42361">
        <ele>176.06</ele>
        <time>2021-08-10T15:13:08Z</time>
      </trkpt>
      <trkpt lat="48.27755" lon="4.42354">
        <ele>176.06</ele>
        <time>2021-08-10T15:13:09Z</time>
      </trkpt>
      <trkpt lat="48.27747" lon="4.4231">
        <ele>175.58</ele>
        <time>2021-08-10T15:13:15Z</time>
      </trkpt>
      <trkpt lat="48.27744" lon="4.42304">
        <ele>175.58</ele>
        <time>2021-08-10T15:13:16Z</time>
      </trkpt>
      <trkpt lat="48.27741" lon="4.42299">
        <ele>175.58</ele>
        <time>2021-08-10T15:13:17Z</time>
      </trkpt>
      <trkpt lat="48.27737" lon="4.42294">
        <ele>175.58</ele>
        <time>2021-08-10T15:13:18Z</time>
      </trkpt>
      <trkpt lat="48.27732" lon="4.42291">
        <ele>175.58</ele>
        <time>2021-08-10T15:13:19Z</time>
      </trkpt>
      <trkpt lat="48.27727" lon="4.42289">
        <ele>175.58</ele>
        <time>2021-08-10T15:13:20Z</time>
      </trkpt>
      <trkpt lat="48.27722" lon="4.42288">
        <ele>175.58</ele>
        <time>2021-08-10T15:13:21Z</time>
      </trkpt>
      <trkpt lat="48.27718" lon="4.42288">
        <ele>175.58</ele>
        <time>2021-08-10T15:13:22Z</time>
      </trkpt>
      <trkpt lat="48.27712" lon="4.42289">
        <ele>175.58</ele>
        <time>2021-08-10T15:13:23Z</time>
      </trkpt>
      <trkpt lat="48.27664" lon="4.42291">
        <ele>175.1</ele>
        <time>2021-08-10T15:13:32Z</time>
      </trkpt>
      <trkpt lat="48.27618" lon="4.42291">
        <ele>174.62</ele>
        <time>2021-08-10T15:13:40Z</time>
      </trkpt>
      <trkpt lat="48.27571" lon="4.42291">
        <ele>172.69</ele>
        <time>2021-08-10T15:13:48Z</time>
      </trkpt>
      <trkpt lat="48.27499" lon="4.42289">
        <ele>171.25</ele>
        <time>2021-08-10T15:13:59Z</time>
      </trkpt>
      <trkpt lat="48.27447" lon="4.42287">
        <ele>170.77</ele>
        <time>2021-08-10T15:14:07Z</time>
      </trkpt>
      <trkpt lat="48.27392" lon="4.42272">
        <ele>170.77</ele>
        <time>2021-08-10T15:14:16Z</time>
      </trkpt>
      <trkpt lat="48.27347" lon="4.42254">
        <ele>170.77</ele>
        <time>2021-08-10T15:14:24Z</time>
      </trkpt>
      <trkpt lat="48.27336" lon="4.42249">
        <ele>172.21</ele>
        <time>2021-08-10T15:14:26Z</time>
      </trkpt>
      <trkpt lat="48.27331" lon="4.42247">
        <ele>172.21</ele>
        <time>2021-08-10T15:14:27Z</time>
      </trkpt>
      <trkpt lat="48.27326" lon="4.42245">
        <ele>172.21</ele>
        <time>2021-08-10T15:14:28Z</time>
      </trkpt>
      <trkpt lat="48.27288" lon="4.42223">
        <ele>172.69</ele>
        <time>2021-08-10T15:14:36Z</time>
      </trkpt>
      <trkpt lat="48.27246" lon="4.42188">
        <ele>172.69</ele>
        <time>2021-08-10T15:14:46Z</time>
      </trkpt>
      <trkpt lat="48.27227" lon="4.42171">
        <ele>171.73</ele>
        <time>2021-08-10T15:14:50Z</time>
      </trkpt>
      <trkpt lat="48.27182" lon="4.42132">
        <ele>170.77</ele>
        <time>2021-08-10T15:14:59Z</time>
      </trkpt>
      <trkpt lat="48.27161" lon="4.42107">
        <ele>170.77</ele>
        <time>2021-08-10T15:15:04Z</time>
      </trkpt>
      <trkpt lat="48.27138" lon="4.42061">
        <ele>170.77</ele>
        <time>2021-08-10T15:15:11Z</time>
      </trkpt>
      <trkpt lat="48.2711" lon="4.42018">
        <ele>170.77</ele>
        <time>2021-08-10T15:15:18Z</time>
      </trkpt>
      <trkpt lat="48.27068" lon="4.41963">
        <ele>172.21</ele>
        <time>2021-08-10T15:15:28Z</time>
      </trkpt>
      <trkpt lat="48.27035" lon="4.41921">
        <ele>172.69</ele>
        <time>2021-08-10T15:15:37Z</time>
      </trkpt>
      <trkpt lat="48.27004" lon="4.41875">
        <ele>170.29</ele>
        <time>2021-08-10T15:15:46Z</time>
      </trkpt>
      <trkpt lat="48.27004" lon="4.41868">
        <ele>169.81</ele>
        <time>2021-08-10T15:15:47Z</time>
      </trkpt>
      <trkpt lat="48.27005" lon="4.41864">
        <ele>169.81</ele>
        <time>2021-08-10T15:15:48Z</time>
      </trkpt>
      <trkpt lat="48.27007" lon="4.4186">
        <ele>169.81</ele>
        <time>2021-08-10T15:15:49Z</time>
      </trkpt>
      <trkpt lat="48.2701" lon="4.41856">
        <ele>169.81</ele>
        <time>2021-08-10T15:15:50Z</time>
      </trkpt>
      <trkpt lat="48.27012" lon="4.41853">
        <ele>171.25</ele>
        <time>2021-08-10T15:15:51Z</time>
      </trkpt>
      <trkpt lat="48.27014" lon="4.4185">
        <ele>171.25</ele>
        <time>2021-08-10T15:15:52Z</time>
      </trkpt>
      <trkpt lat="48.27029" lon="4.41834">
        <ele>171.73</ele>
        <time>2021-08-10T15:15:58Z</time>
      </trkpt>
      <trkpt lat="48.2705" lon="4.41809">
        <ele>173.17</ele>
        <time>2021-08-10T15:16:06Z</time>
      </trkpt>
      <trkpt lat="48.27069" lon="4.41787">
        <ele>174.14</ele>
        <time>2021-08-10T15:16:14Z</time>
      </trkpt>
      <trkpt lat="48.27068" lon="4.41789">
        <ele>173.66</ele>
        <time>2021-08-10T15:16:22Z</time>
      </trkpt>
      <trkpt lat="48.27074" lon="4.41781">
        <ele>173.66</ele>
        <time>2021-08-10T15:16:29Z</time>
      </trkpt>
      <trkpt lat="48.27091" lon="4.41761">
        <ele>172.21</ele>
        <time>2021-08-10T15:16:34Z</time>
      </trkpt>
      <trkpt lat="48.27122" lon="4.41721">
        <ele>171.25</ele>
        <time>2021-08-10T15:16:41Z</time>
      </trkpt>
      <trkpt lat="48.27129" lon="4.41707">
        <ele>170.77</ele>
        <time>2021-08-10T15:16:43Z</time>
      </trkpt>
      <trkpt lat="48.27132" lon="4.41699">
        <ele>170.29</ele>
        <time>2021-08-10T15:16:44Z</time>
      </trkpt>
      <trkpt lat="48.27152" lon="4.4163">
        <ele>169.33</ele>
        <time>2021-08-10T15:16:52Z</time>
      </trkpt>
      <trkpt lat="48.27179" lon="4.41564">
        <ele>167.41</ele>
        <time>2021-08-10T15:17:00Z</time>
      </trkpt>
      <trkpt lat="48.27202" lon="4.41504">
        <ele>165.48</ele>
        <time>2021-08-10T15:17:07Z</time>
      </trkpt>
      <trkpt lat="48.27203" lon="4.41495">
        <ele>165</ele>
        <time>2021-08-10T15:17:08Z</time>
      </trkpt>
      <trkpt lat="48.27203" lon="4.41485">
        <ele>164.52</ele>
        <time>2021-08-10T15:17:09Z</time>
      </trkpt>
      <trkpt lat="48.27203" lon="4.41475">
        <ele>164.52</ele>
        <time>2021-08-10T15:17:10Z</time>
      </trkpt>
      <trkpt lat="48.27202" lon="4.41466">
        <ele>164.04</ele>
        <time>2021-08-10T15:17:11Z</time>
      </trkpt>
      <trkpt lat="48.27201" lon="4.41457">
        <ele>164.04</ele>
        <time>2021-08-10T15:17:12Z</time>
      </trkpt>
      <trkpt lat="48.27198" lon="4.41448">
        <ele>164.04</ele>
        <time>2021-08-10T15:17:13Z</time>
      </trkpt>
      <trkpt lat="48.27196" lon="4.41441">
        <ele>164.04</ele>
        <time>2021-08-10T15:17:14Z</time>
      </trkpt>
      <trkpt lat="48.27193" lon="4.41432">
        <ele>164.04</ele>
        <time>2021-08-10T15:17:15Z</time>
      </trkpt>
      <trkpt lat="48.27173" lon="4.41375">
        <ele>163.56</ele>
        <time>2021-08-10T15:17:23Z</time>
      </trkpt>
      <trkpt lat="48.27157" lon="4.41328">
        <ele>163.56</ele>
        <time>2021-08-10T15:17:29Z</time>
      </trkpt>
      <trkpt lat="48.27151" lon="4.41304">
        <ele>165</ele>
        <time>2021-08-10T15:17:33Z</time>
      </trkpt>
      <trkpt lat="48.27151" lon="4.41267">
        <ele>166.45</ele>
        <time>2021-08-10T15:17:40Z</time>
      </trkpt>
      <trkpt lat="48.27151" lon="4.4123">
        <ele>166.93</ele>
        <time>2021-08-10T15:17:48Z</time>
      </trkpt>
      <trkpt lat="48.27148" lon="4.41227">
        <ele>166.45</ele>
        <time>2021-08-10T15:17:49Z</time>
      </trkpt>
      <trkpt lat="48.27131" lon="4.41212">
        <ele>166.93</ele>
        <time>2021-08-10T15:17:56Z</time>
      </trkpt>
      <trkpt lat="48.27118" lon="4.41193">
        <ele>166.93</ele>
        <time>2021-08-10T15:18:02Z</time>
      </trkpt>
      <trkpt lat="48.27114" lon="4.41185">
        <ele>166.93</ele>
        <time>2021-08-10T15:18:05Z</time>
      </trkpt>
      <trkpt lat="48.27114" lon="4.41182">
        <ele>166.93</ele>
        <time>2021-08-10T15:18:06Z</time>
      </trkpt>
      <trkpt lat="48.27114" lon="4.41179">
        <ele>166.93</ele>
        <time>2021-08-10T15:18:07Z</time>
      </trkpt>
      <trkpt lat="48.27114" lon="4.41175">
        <ele>166.93</ele>
        <time>2021-08-10T15:18:08Z</time>
      </trkpt>
      <trkpt lat="48.27115" lon="4.41172">
        <ele>166.93</ele>
        <time>2021-08-10T15:18:09Z</time>
      </trkpt>
      <trkpt lat="48.27115" lon="4.41167">
        <ele>166.93</ele>
        <time>2021-08-10T15:18:10Z</time>
      </trkpt>
      <trkpt lat="48.27114" lon="4.41163">
        <ele>166.93</ele>
        <time>2021-08-10T15:18:11Z</time>
      </trkpt>
      <trkpt lat="48.27102" lon="4.41134">
        <ele>167.41</ele>
        <time>2021-08-10T15:18:18Z</time>
      </trkpt>
      <trkpt lat="48.27078" lon="4.41091">
        <ele>167.89</ele>
        <time>2021-08-10T15:18:28Z</time>
      </trkpt>
      <trkpt lat="48.27055" lon="4.41049">
        <ele>168.85</ele>
        <time>2021-08-10T15:18:38Z</time>
      </trkpt>
      <trkpt lat="48.27043" lon="4.41044">
        <ele>168.85</ele>
        <time>2021-08-10T15:18:42Z</time>
      </trkpt>
      <trkpt lat="48.2704" lon="4.41046">
        <ele>168.85</ele>
        <time>2021-08-10T15:18:43Z</time>
      </trkpt>
      <trkpt lat="48.27021" lon="4.41079">
        <ele>168.85</ele>
        <time>2021-08-10T15:18:50Z</time>
      </trkpt>
      <trkpt lat="48.26995" lon="4.4113">
        <ele>165.48</ele>
        <time>2021-08-10T15:18:58Z</time>
      </trkpt>
      <trkpt lat="48.26987" lon="4.41144">
        <ele>165</ele>
        <time>2021-08-10T15:19:00Z</time>
      </trkpt>
      <trkpt lat="48.26982" lon="4.41149">
        <ele>164.52</ele>
        <time>2021-08-10T15:19:01Z</time>
      </trkpt>
      <trkpt lat="48.26976" lon="4.41152">
        <ele>164.52</ele>
        <time>2021-08-10T15:19:02Z</time>
      </trkpt>
      <trkpt lat="48.2697" lon="4.41153">
        <ele>164.52</ele>
        <time>2021-08-10T15:19:03Z</time>
      </trkpt>
      <trkpt lat="48.26963" lon="4.41153">
        <ele>164.52</ele>
        <time>2021-08-10T15:19:04Z</time>
      </trkpt>
      <trkpt lat="48.26958" lon="4.41151">
        <ele>164.52</ele>
        <time>2021-08-10T15:19:05Z</time>
      </trkpt>
      <trkpt lat="48.26952" lon="4.41148">
        <ele>164.52</ele>
        <time>2021-08-10T15:19:06Z</time>
      </trkpt>
      <trkpt lat="48.26946" lon="4.41144">
        <ele>164.52</ele>
        <time>2021-08-10T15:19:07Z</time>
      </trkpt>
      <trkpt lat="48.26941" lon="4.4114">
        <ele>164.52</ele>
        <time>2021-08-10T15:19:08Z</time>
      </trkpt>
      <trkpt lat="48.2692" lon="4.41125">
        <ele>163.56</ele>
        <time>2021-08-10T15:19:12Z</time>
      </trkpt>
      <trkpt lat="48.26858" lon="4.41086">
        <ele>162.12</ele>
        <time>2021-08-10T15:19:22Z</time>
      </trkpt>
      <trkpt lat="48.26797" lon="4.41038">
        <ele>161.64</ele>
        <time>2021-08-10T15:19:32Z</time>
      </trkpt>
      <trkpt lat="48.26766" lon="4.41015">
        <ele>163.08</ele>
        <time>2021-08-10T15:19:38Z</time>
      </trkpt>
      <trkpt lat="48.26755" lon="4.41006">
        <ele>164.04</ele>
        <time>2021-08-10T15:19:41Z</time>
      </trkpt>
      <trkpt lat="48.2675" lon="4.41003">
        <ele>164.04</ele>
        <time>2021-08-10T15:19:42Z</time>
      </trkpt>
      <trkpt lat="48.26743" lon="4.40997">
        <ele>164.04</ele>
        <time>2021-08-10T15:19:44Z</time>
      </trkpt>
      <trkpt lat="48.26711" lon="4.4097">
        <ele>164.52</ele>
        <time>2021-08-10T15:19:52Z</time>
      </trkpt>
      <trkpt lat="48.26678" lon="4.4094">
        <ele>164.04</ele>
        <time>2021-08-10T15:20:00Z</time>
      </trkpt>
      <trkpt lat="48.26637" lon="4.40909">
        <ele>163.56</ele>
        <time>2021-08-10T15:20:09Z</time>
      </trkpt>
      <trkpt lat="48.26594" lon="4.4088">
        <ele>162.12</ele>
        <time>2021-08-10T15:20:18Z</time>
      </trkpt>
      <trkpt lat="48.26547" lon="4.40848">
        <ele>160.2</ele>
        <time>2021-08-10T15:20:26Z</time>
      </trkpt>
      <trkpt lat="48.26502" lon="4.40816">
        <ele>159.24</ele>
        <time>2021-08-10T15:20:35Z</time>
      </trkpt>
      <trkpt lat="48.26467" lon="4.40793">
        <ele>159.24</ele>
        <time>2021-08-10T15:20:43Z</time>
      </trkpt>
      <trkpt lat="48.26451" lon="4.40782">
        <ele>160.68</ele>
        <time>2021-08-10T15:20:48Z</time>
      </trkpt>
      <trkpt lat="48.26424" lon="4.40764">
        <ele>162.6</ele>
        <time>2021-08-10T15:20:58Z</time>
      </trkpt>
      <trkpt lat="48.2639" lon="4.40742">
        <ele>164.04</ele>
        <time>2021-08-10T15:21:10Z</time>
      </trkpt>
      <trkpt lat="48.26355" lon="4.40718">
        <ele>165.48</ele>
        <time>2021-08-10T15:21:21Z</time>
      </trkpt>
      <trkpt lat="48.26315" lon="4.40691">
        <ele>165.48</ele>
        <time>2021-08-10T15:21:31Z</time>
      </trkpt>
      <trkpt lat="48.26306" lon="4.40684">
        <ele>164.04</ele>
        <time>2021-08-10T15:21:33Z</time>
      </trkpt>
      <trkpt lat="48.26261" lon="4.40655">
        <ele>163.56</ele>
        <time>2021-08-10T15:21:42Z</time>
      </trkpt>
      <trkpt lat="48.26216" lon="4.40624">
        <ele>163.56</ele>
        <time>2021-08-10T15:21:51Z</time>
      </trkpt>
      <trkpt lat="48.26192" lon="4.40609">
        <ele>163.56</ele>
        <time>2021-08-10T15:21:56Z</time>
      </trkpt>
      <trkpt lat="48.26178" lon="4.40599">
        <ele>163.08</ele>
        <time>2021-08-10T15:21:59Z</time>
      </trkpt>
      <trkpt lat="48.26173" lon="4.40597">
        <ele>163.08</ele>
        <time>2021-08-10T15:22:00Z</time>
      </trkpt>
      <trkpt lat="48.2614" lon="4.40582">
        <ele>163.08</ele>
        <time>2021-08-10T15:22:08Z</time>
      </trkpt>
      <trkpt lat="48.26122" lon="4.40568">
        <ele>162.12</ele>
        <time>2021-08-10T15:22:13Z</time>
      </trkpt>
      <trkpt lat="48.26098" lon="4.40557">
        <ele>161.64</ele>
        <time>2021-08-10T15:22:18Z</time>
      </trkpt>
      <trkpt lat="48.26071" lon="4.40547">
        <ele>160.2</ele>
        <time>2021-08-10T15:22:25Z</time>
      </trkpt>
      <trkpt lat="48.26062" lon="4.40544">
        <ele>159.24</ele>
        <time>2021-08-10T15:22:27Z</time>
      </trkpt>
      <trkpt lat="48.26052" lon="4.40541">
        <ele>159.24</ele>
        <time>2021-08-10T15:22:29Z</time>
      </trkpt>
      <trkpt lat="48.26046" lon="4.40539">
        <ele>158.27</ele>
        <time>2021-08-10T15:22:30Z</time>
      </trkpt>
      <trkpt lat="48.26029" lon="4.40535">
        <ele>157.31</ele>
        <time>2021-08-10T15:22:33Z</time>
      </trkpt>
      <trkpt lat="48.25982" lon="4.40534">
        <ele>156.83</ele>
        <time>2021-08-10T15:22:41Z</time>
      </trkpt>
      <trkpt lat="48.25949" lon="4.40532">
        <ele>156.35</ele>
        <time>2021-08-10T15:22:47Z</time>
      </trkpt>
      <trkpt lat="48.25904" lon="4.40532">
        <ele>156.83</ele>
        <time>2021-08-10T15:22:55Z</time>
      </trkpt>
      <trkpt lat="48.25881" lon="4.40534">
        <ele>156.83</ele>
        <time>2021-08-10T15:22:59Z</time>
      </trkpt>
      <trkpt lat="48.25867" lon="4.40535">
        <ele>156.83</ele>
        <time>2021-08-10T15:23:02Z</time>
      </trkpt>
      <trkpt lat="48.25836" lon="4.40536">
        <ele>156.83</ele>
        <time>2021-08-10T15:23:09Z</time>
      </trkpt>
      <trkpt lat="48.25818" lon="4.40528">
        <ele>156.83</ele>
        <time>2021-08-10T15:23:16Z</time>
      </trkpt>
      <trkpt lat="48.25801" lon="4.40518">
        <ele>158.27</ele>
        <time>2021-08-10T15:23:24Z</time>
      </trkpt>
      <trkpt lat="48.25785" lon="4.40506">
        <ele>158.75</ele>
        <time>2021-08-10T15:23:32Z</time>
      </trkpt>
      <trkpt lat="48.25763" lon="4.40489">
        <ele>159.72</ele>
        <time>2021-08-10T15:23:43Z</time>
      </trkpt>
      <trkpt lat="48.25743" lon="4.40472">
        <ele>160.2</ele>
        <time>2021-08-10T15:23:53Z</time>
      </trkpt>
      <trkpt lat="48.25721" lon="4.40455">
        <ele>160.68</ele>
        <time>2021-08-10T15:24:03Z</time>
      </trkpt>
      <trkpt lat="48.25705" lon="4.40442">
        <ele>161.16</ele>
        <time>2021-08-10T15:24:10Z</time>
      </trkpt>
      <trkpt lat="48.25673" lon="4.40415">
        <ele>161.64</ele>
        <time>2021-08-10T15:24:23Z</time>
      </trkpt>
      <trkpt lat="48.25653" lon="4.40398">
        <ele>161.64</ele>
        <time>2021-08-10T15:24:32Z</time>
      </trkpt>
      <trkpt lat="48.25633" lon="4.40381">
        <ele>162.12</ele>
        <time>2021-08-10T15:24:41Z</time>
      </trkpt>
      <trkpt lat="48.25618" lon="4.40369">
        <ele>163.08</ele>
        <time>2021-08-10T15:24:48Z</time>
      </trkpt>
      <trkpt lat="48.25601" lon="4.40355">
        <ele>163.56</ele>
        <time>2021-08-10T15:24:57Z</time>
      </trkpt>
      <trkpt lat="48.25585" lon="4.40344">
        <ele>164.04</ele>
        <time>2021-08-10T15:25:05Z</time>
      </trkpt>
      <trkpt lat="48.25567" lon="4.4033">
        <ele>164.52</ele>
        <time>2021-08-10T15:25:14Z</time>
      </trkpt>
      <trkpt lat="48.25549" lon="4.40318">
        <ele>164.52</ele>
        <time>2021-08-10T15:25:23Z</time>
      </trkpt>
      <trkpt lat="48.25529" lon="4.40305">
        <ele>166.45</ele>
        <time>2021-08-10T15:25:33Z</time>
      </trkpt>
      <trkpt lat="48.25503" lon="4.40287">
        <ele>166.93</ele>
        <time>2021-08-10T15:25:44Z</time>
      </trkpt>
      <trkpt lat="48.25479" lon="4.40273">
        <ele>167.41</ele>
        <time>2021-08-10T15:25:53Z</time>
      </trkpt>
      <trkpt lat="48.25453" lon="4.40264">
        <ele>168.37</ele>
        <time>2021-08-10T15:26:02Z</time>
      </trkpt>
      <trkpt lat="48.25419" lon="4.40254">
        <ele>168.37</ele>
        <time>2021-08-10T15:26:13Z</time>
      </trkpt>
      <trkpt lat="48.25392" lon="4.40253">
        <ele>168.37</ele>
        <time>2021-08-10T15:26:20Z</time>
      </trkpt>
      <trkpt lat="48.25351" lon="4.40251">
        <ele>166.93</ele>
        <time>2021-08-10T15:26:30Z</time>
      </trkpt>
      <trkpt lat="48.25332" lon="4.40248">
        <ele>166.45</ele>
        <time>2021-08-10T15:26:34Z</time>
      </trkpt>
      <trkpt lat="48.25326" lon="4.40247">
        <ele>166.45</ele>
        <time>2021-08-10T15:26:35Z</time>
      </trkpt>
      <trkpt lat="48.25321" lon="4.40245">
        <ele>166.45</ele>
        <time>2021-08-10T15:26:36Z</time>
      </trkpt>
      <trkpt lat="48.25282" lon="4.40219">
        <ele>165.48</ele>
        <time>2021-08-10T15:26:44Z</time>
      </trkpt>
      <trkpt lat="48.25247" lon="4.40189">
        <ele>164.52</ele>
        <time>2021-08-10T15:26:52Z</time>
      </trkpt>
      <trkpt lat="48.25243" lon="4.40184">
        <ele>164.52</ele>
        <time>2021-08-10T15:26:53Z</time>
      </trkpt>
      <trkpt lat="48.25211" lon="4.40139">
        <ele>164.04</ele>
        <time>2021-08-10T15:27:02Z</time>
      </trkpt>
      <trkpt lat="48.25185" lon="4.40096">
        <ele>165.48</ele>
        <time>2021-08-10T15:27:11Z</time>
      </trkpt>
      <trkpt lat="48.25155" lon="4.40034">
        <ele>165.96</ele>
        <time>2021-08-10T15:27:23Z</time>
      </trkpt>
      <trkpt lat="48.25138" lon="4.3999">
        <ele>165.96</ele>
        <time>2021-08-10T15:27:31Z</time>
      </trkpt>
      <trkpt lat="48.25122" lon="4.39938">
        <ele>166.93</ele>
        <time>2021-08-10T15:27:40Z</time>
      </trkpt>
      <trkpt lat="48.25109" lon="4.39906">
        <ele>166.45</ele>
        <time>2021-08-10T15:27:45Z</time>
      </trkpt>
      <trkpt lat="48.25105" lon="4.399">
        <ele>166.45</ele>
        <time>2021-08-10T15:27:46Z</time>
      </trkpt>
      <trkpt lat="48.25097" lon="4.39889">
        <ele>166.45</ele>
        <time>2021-08-10T15:27:48Z</time>
      </trkpt>
      <trkpt lat="48.25089" lon="4.39879">
        <ele>165.48</ele>
        <time>2021-08-10T15:27:50Z</time>
      </trkpt>
      <trkpt lat="48.25085" lon="4.39873">
        <ele>164.52</ele>
        <time>2021-08-10T15:27:51Z</time>
      </trkpt>
      <trkpt lat="48.25079" lon="4.39861">
        <ele>164.04</ele>
        <time>2021-08-10T15:27:53Z</time>
      </trkpt>
      <trkpt lat="48.25038" lon="4.39829">
        <ele>162.12</ele>
        <time>2021-08-10T15:28:00Z</time>
      </trkpt>
      <trkpt lat="48.25003" lon="4.39796">
        <ele>161.16</ele>
        <time>2021-08-10T15:28:07Z</time>
      </trkpt>
      <trkpt lat="48.24965" lon="4.39758">
        <ele>161.16</ele>
        <time>2021-08-10T15:28:16Z</time>
      </trkpt>
      <trkpt lat="48.24949" lon="4.39744">
        <ele>161.16</ele>
        <time>2021-08-10T15:28:20Z</time>
      </trkpt>
      <trkpt lat="48.24946" lon="4.3974">
        <ele>162.6</ele>
        <time>2021-08-10T15:28:21Z</time>
      </trkpt>
      <trkpt lat="48.24942" lon="4.39737">
        <ele>162.6</ele>
        <time>2021-08-10T15:28:22Z</time>
      </trkpt>
      <trkpt lat="48.24927" lon="4.39725">
        <ele>163.56</ele>
        <time>2021-08-10T15:28:27Z</time>
      </trkpt>
      <trkpt lat="48.24909" lon="4.39704">
        <ele>164.52</ele>
        <time>2021-08-10T15:28:35Z</time>
      </trkpt>
      <trkpt lat="48.24894" lon="4.39687">
        <ele>165.48</ele>
        <time>2021-08-10T15:28:42Z</time>
      </trkpt>
      <trkpt lat="48.24869" lon="4.39662">
        <ele>167.41</ele>
        <time>2021-08-10T15:28:54Z</time>
      </trkpt>
      <trkpt lat="48.24852" lon="4.39642">
        <ele>168.37</ele>
        <time>2021-08-10T15:29:03Z</time>
      </trkpt>
      <trkpt lat="48.24833" lon="4.39619">
        <ele>169.33</ele>
        <time>2021-08-10T15:29:12Z</time>
      </trkpt>
      <trkpt lat="48.24815" lon="4.39595">
        <ele>169.33</ele>
        <time>2021-08-10T15:29:19Z</time>
      </trkpt>
      <trkpt lat="48.24792" lon="4.39563">
        <ele>169.81</ele>
        <time>2021-08-10T15:29:27Z</time>
      </trkpt>
      <trkpt lat="48.2477" lon="4.39532">
        <ele>169.81</ele>
        <time>2021-08-10T15:29:34Z</time>
      </trkpt>
      <trkpt lat="48.24748" lon="4.39507">
        <ele>169.81</ele>
        <time>2021-08-10T15:29:40Z</time>
      </trkpt>
      <trkpt lat="48.24744" lon="4.39504">
        <ele>169.81</ele>
        <time>2021-08-10T15:29:41Z</time>
      </trkpt>
      <trkpt lat="48.2474" lon="4.395">
        <ele>169.81</ele>
        <time>2021-08-10T15:29:42Z</time>
      </trkpt>
      <trkpt lat="48.24736" lon="4.39496">
        <ele>169.81</ele>
        <time>2021-08-10T15:29:43Z</time>
      </trkpt>
      <trkpt lat="48.24732" lon="4.39492">
        <ele>169.81</ele>
        <time>2021-08-10T15:29:44Z</time>
      </trkpt>
      <trkpt lat="48.24728" lon="4.39487">
        <ele>169.81</ele>
        <time>2021-08-10T15:29:45Z</time>
      </trkpt>
      <trkpt lat="48.24697" lon="4.39457">
        <ele>169.81</ele>
        <time>2021-08-10T15:29:53Z</time>
      </trkpt>
      <trkpt lat="48.24686" lon="4.39447">
        <ele>169.81</ele>
        <time>2021-08-10T15:29:56Z</time>
      </trkpt>
      <trkpt lat="48.24672" lon="4.39434">
        <ele>168.37</ele>
        <time>2021-08-10T15:30:00Z</time>
      </trkpt>
      <trkpt lat="48.24643" lon="4.39414">
        <ele>168.37</ele>
        <time>2021-08-10T15:30:08Z</time>
      </trkpt>
      <trkpt lat="48.24639" lon="4.39412">
        <ele>167.89</ele>
        <time>2021-08-10T15:30:09Z</time>
      </trkpt>
      <trkpt lat="48.24635" lon="4.3941">
        <ele>167.89</ele>
        <time>2021-08-10T15:30:10Z</time>
      </trkpt>
      <trkpt lat="48.24631" lon="4.39408">
        <ele>167.41</ele>
        <time>2021-08-10T15:30:11Z</time>
      </trkpt>
      <trkpt lat="48.24627" lon="4.39405">
        <ele>167.41</ele>
        <time>2021-08-10T15:30:12Z</time>
      </trkpt>
      <trkpt lat="48.24618" lon="4.39398">
        <ele>166.93</ele>
        <time>2021-08-10T15:30:14Z</time>
      </trkpt>
      <trkpt lat="48.24575" lon="4.39371">
        <ele>164.04</ele>
        <time>2021-08-10T15:30:22Z</time>
      </trkpt>
      <trkpt lat="48.24555" lon="4.39359">
        <ele>162.12</ele>
        <time>2021-08-10T15:30:25Z</time>
      </trkpt>
      <trkpt lat="48.24492" lon="4.3932">
        <ele>160.68</ele>
        <time>2021-08-10T15:30:35Z</time>
      </trkpt>
      <trkpt lat="48.24486" lon="4.39316">
        <ele>160.68</ele>
        <time>2021-08-10T15:30:36Z</time>
      </trkpt>
      <trkpt lat="48.2444" lon="4.39286">
        <ele>160.68</ele>
        <time>2021-08-10T15:30:45Z</time>
      </trkpt>
      <trkpt lat="48.24403" lon="4.39261">
        <ele>160.68</ele>
        <time>2021-08-10T15:30:53Z</time>
      </trkpt>
      <trkpt lat="48.24375" lon="4.39242">
        <ele>162.6</ele>
        <time>2021-08-10T15:31:00Z</time>
      </trkpt>
      <trkpt lat="48.24352" lon="4.39225">
        <ele>163.56</ele>
        <time>2021-08-10T15:31:08Z</time>
      </trkpt>
      <trkpt lat="48.24331" lon="4.3921">
        <ele>165</ele>
        <time>2021-08-10T15:31:16Z</time>
      </trkpt>
      <trkpt lat="48.24306" lon="4.39193">
        <ele>166.93</ele>
        <time>2021-08-10T15:31:25Z</time>
      </trkpt>
      <trkpt lat="48.24279" lon="4.39174">
        <ele>167.89</ele>
        <time>2021-08-10T15:31:35Z</time>
      </trkpt>
      <trkpt lat="48.24255" lon="4.39157">
        <ele>168.85</ele>
        <time>2021-08-10T15:31:43Z</time>
      </trkpt>
      <trkpt lat="48.24244" lon="4.39151">
        <ele>168.85</ele>
        <time>2021-08-10T15:31:46Z</time>
      </trkpt>
      <trkpt lat="48.2424" lon="4.39147">
        <ele>168.85</ele>
        <time>2021-08-10T15:31:47Z</time>
      </trkpt>
      <trkpt lat="48.24206" lon="4.39117">
        <ele>167.41</ele>
        <time>2021-08-10T15:31:55Z</time>
      </trkpt>
      <trkpt lat="48.24164" lon="4.39076">
        <ele>166.93</ele>
        <time>2021-08-10T15:32:04Z</time>
      </trkpt>
      <trkpt lat="48.24123" lon="4.39036">
        <ele>166.45</ele>
        <time>2021-08-10T15:32:13Z</time>
      </trkpt>
      <trkpt lat="48.24093" lon="4.39005">
        <ele>166.45</ele>
        <time>2021-08-10T15:32:21Z</time>
      </trkpt>
      <trkpt lat="48.24086" lon="4.38998">
        <ele>167.89</ele>
        <time>2021-08-10T15:32:23Z</time>
      </trkpt>
      <trkpt lat="48.24058" lon="4.38969">
        <ele>168.37</ele>
        <time>2021-08-10T15:32:31Z</time>
      </trkpt>
      <trkpt lat="48.24043" lon="4.38954">
        <ele>168.85</ele>
        <time>2021-08-10T15:32:37Z</time>
      </trkpt>
      <trkpt lat="48.24041" lon="4.38953">
        <ele>169.81</ele>
        <time>2021-08-10T15:32:44Z</time>
      </trkpt>
      <trkpt lat="48.2404" lon="4.38953">
        <ele>169.81</ele>
        <time>2021-08-10T15:32:45Z</time>
      </trkpt>
      <trkpt lat="48.24039" lon="4.38953">
        <ele>169.81</ele>
        <time>2021-08-10T15:32:46Z</time>
      </trkpt>
      <trkpt lat="48.24037" lon="4.38954">
        <ele>169.33</ele>
        <time>2021-08-10T15:32:47Z</time>
      </trkpt>
      <trkpt lat="48.24035" lon="4.38956">
        <ele>169.33</ele>
        <time>2021-08-10T15:32:48Z</time>
      </trkpt>
      <trkpt lat="48.24033" lon="4.38958">
        <ele>169.33</ele>
        <time>2021-08-10T15:32:49Z</time>
      </trkpt>
      <trkpt lat="48.24032" lon="4.38962">
        <ele>169.33</ele>
        <time>2021-08-10T15:32:50Z</time>
      </trkpt>
      <trkpt lat="48.2403" lon="4.38965">
        <ele>169.33</ele>
        <time>2021-08-10T15:32:51Z</time>
      </trkpt>
      <trkpt lat="48.24027" lon="4.38969">
        <ele>169.33</ele>
        <time>2021-08-10T15:32:52Z</time>
      </trkpt>
      <trkpt lat="48.24025" lon="4.38972">
        <ele>169.33</ele>
        <time>2021-08-10T15:32:53Z</time>
      </trkpt>
      <trkpt lat="48.24023" lon="4.38977">
        <ele>169.33</ele>
        <time>2021-08-10T15:32:54Z</time>
      </trkpt>
      <trkpt lat="48.2402" lon="4.38981">
        <ele>169.33</ele>
        <time>2021-08-10T15:32:55Z</time>
      </trkpt>
      <trkpt lat="48.24018" lon="4.38987">
        <ele>169.81</ele>
        <time>2021-08-10T15:32:56Z</time>
      </trkpt>
      <trkpt lat="48.24015" lon="4.38992">
        <ele>169.33</ele>
        <time>2021-08-10T15:32:57Z</time>
      </trkpt>
      <trkpt lat="48.24012" lon="4.38995">
        <ele>169.33</ele>
        <time>2021-08-10T15:32:58Z</time>
      </trkpt>
      <trkpt lat="48.24008" lon="4.38999">
        <ele>168.37</ele>
        <time>2021-08-10T15:32:59Z</time>
      </trkpt>
      <trkpt lat="48.24005" lon="4.39004">
        <ele>168.37</ele>
        <time>2021-08-10T15:33:00Z</time>
      </trkpt>
      <trkpt lat="48.23995" lon="4.39017">
        <ele>168.37</ele>
        <time>2021-08-10T15:33:03Z</time>
      </trkpt>
      <trkpt lat="48.23991" lon="4.39022">
        <ele>168.37</ele>
        <time>2021-08-10T15:33:04Z</time>
      </trkpt>
      <trkpt lat="48.23964" lon="4.39063">
        <ele>168.85</ele>
        <time>2021-08-10T15:33:13Z</time>
      </trkpt>
      <trkpt lat="48.23939" lon="4.39111">
        <ele>169.33</ele>
        <time>2021-08-10T15:33:22Z</time>
      </trkpt>
      <trkpt lat="48.23929" lon="4.39146">
        <ele>167.89</ele>
        <time>2021-08-10T15:33:27Z</time>
      </trkpt>
      <trkpt lat="48.23917" lon="4.39213">
        <ele>167.41</ele>
        <time>2021-08-10T15:33:35Z</time>
      </trkpt>
      <trkpt lat="48.23898" lon="4.39297">
        <ele>165.96</ele>
        <time>2021-08-10T15:33:44Z</time>
      </trkpt>
      <trkpt lat="48.23891" lon="4.39324">
        <ele>165.48</ele>
        <time>2021-08-10T15:33:47Z</time>
      </trkpt>
      <trkpt lat="48.23852" lon="4.39416">
        <ele>165</ele>
        <time>2021-08-10T15:33:58Z</time>
      </trkpt>
      <trkpt lat="48.2382" lon="4.39495">
        <ele>163.56</ele>
        <time>2021-08-10T15:34:07Z</time>
      </trkpt>
      <trkpt lat="48.23791" lon="4.39581">
        <ele>163.08</ele>
        <time>2021-08-10T15:34:16Z</time>
      </trkpt>
      <trkpt lat="48.2378" lon="4.39617">
        <ele>161.64</ele>
        <time>2021-08-10T15:34:20Z</time>
      </trkpt>
      <trkpt lat="48.23777" lon="4.39623">
        <ele>161.64</ele>
        <time>2021-08-10T15:34:21Z</time>
      </trkpt>
      <trkpt lat="48.23774" lon="4.39626">
        <ele>161.64</ele>
        <time>2021-08-10T15:34:22Z</time>
      </trkpt>
      <trkpt lat="48.23769" lon="4.39626">
        <ele>161.16</ele>
        <time>2021-08-10T15:34:23Z</time>
      </trkpt>
      <trkpt lat="48.23766" lon="4.39622">
        <ele>161.16</ele>
        <time>2021-08-10T15:34:24Z</time>
      </trkpt>
      <trkpt lat="48.23764" lon="4.39618">
        <ele>161.16</ele>
        <time>2021-08-10T15:34:25Z</time>
      </trkpt>
      <trkpt lat="48.23762" lon="4.39612">
        <ele>161.16</ele>
        <time>2021-08-10T15:34:26Z</time>
      </trkpt>
      <trkpt lat="48.2376" lon="4.39606">
        <ele>161.16</ele>
        <time>2021-08-10T15:34:27Z</time>
      </trkpt>
      <trkpt lat="48.23745" lon="4.39549">
        <ele>160.2</ele>
        <time>2021-08-10T15:34:36Z</time>
      </trkpt>
      <trkpt lat="48.23742" lon="4.39542">
        <ele>160.68</ele>
        <time>2021-08-10T15:34:37Z</time>
      </trkpt>
      <trkpt lat="48.23733" lon="4.39508">
        <ele>160.2</ele>
        <time>2021-08-10T15:34:42Z</time>
      </trkpt>
      <trkpt lat="48.23729" lon="4.39488">
        <ele>160.2</ele>
        <time>2021-08-10T15:34:47Z</time>
      </trkpt>
      <trkpt lat="48.23727" lon="4.39484">
        <ele>160.2</ele>
        <time>2021-08-10T15:34:50Z</time>
      </trkpt>
      <trkpt lat="48.23725" lon="4.39484">
        <ele>160.2</ele>
        <time>2021-08-10T15:34:51Z</time>
      </trkpt>
      <trkpt lat="48.23723" lon="4.39486">
        <ele>160.2</ele>
        <time>2021-08-10T15:34:52Z</time>
      </trkpt>
      <trkpt lat="48.23713" lon="4.39493">
        <ele>160.2</ele>
        <time>2021-08-10T15:34:55Z</time>
      </trkpt>
      <trkpt lat="48.23708" lon="4.39493">
        <ele>159.72</ele>
        <time>2021-08-10T15:34:56Z</time>
      </trkpt>
      <trkpt lat="48.23672" lon="4.39489">
        <ele>158.75</ele>
        <time>2021-08-10T15:35:03Z</time>
      </trkpt>
      <trkpt lat="48.2362" lon="4.39473">
        <ele>157.31</ele>
        <time>2021-08-10T15:35:12Z</time>
      </trkpt>
      <trkpt lat="48.23571" lon="4.39455">
        <ele>155.39</ele>
        <time>2021-08-10T15:35:20Z</time>
      </trkpt>
      <trkpt lat="48.23535" lon="4.39434">
        <ele>154.91</ele>
        <time>2021-08-10T15:35:27Z</time>
      </trkpt>
      <trkpt lat="48.23532" lon="4.3943">
        <ele>156.83</ele>
        <time>2021-08-10T15:35:31Z</time>
      </trkpt>
      <trkpt lat="48.23524" lon="4.39423">
        <ele>156.83</ele>
        <time>2021-08-10T15:35:37Z</time>
      </trkpt>
      <trkpt lat="48.23502" lon="4.39425">
        <ele>154.43</ele>
        <time>2021-08-10T15:35:42Z</time>
      </trkpt>
      <trkpt lat="48.23455" lon="4.39426">
        <ele>152.99</ele>
        <time>2021-08-10T15:35:50Z</time>
      </trkpt>
      <trkpt lat="48.23449" lon="4.39424">
        <ele>152.99</ele>
        <time>2021-08-10T15:35:51Z</time>
      </trkpt>
      <trkpt lat="48.23444" lon="4.39422">
        <ele>152.99</ele>
        <time>2021-08-10T15:35:52Z</time>
      </trkpt>
      <trkpt lat="48.2341" lon="4.39401">
        <ele>152.99</ele>
        <time>2021-08-10T15:35:59Z</time>
      </trkpt>
      <trkpt lat="48.23405" lon="4.39399">
        <ele>152.99</ele>
        <time>2021-08-10T15:36:00Z</time>
      </trkpt>
      <trkpt lat="48.234" lon="4.39398">
        <ele>152.99</ele>
        <time>2021-08-10T15:36:01Z</time>
      </trkpt>
      <trkpt lat="48.2339" lon="4.39397">
        <ele>152.99</ele>
        <time>2021-08-10T15:36:03Z</time>
      </trkpt>
      <trkpt lat="48.23347" lon="4.39404">
        <ele>154.43</ele>
        <time>2021-08-10T15:36:12Z</time>
      </trkpt>
      <trkpt lat="48.23312" lon="4.3941">
        <ele>152.99</ele>
        <time>2021-08-10T15:36:19Z</time>
      </trkpt>
      <trkpt lat="48.2327" lon="4.39416">
        <ele>152.51</ele>
        <time>2021-08-10T15:36:27Z</time>
      </trkpt>
      <trkpt lat="48.23239" lon="4.39419">
        <ele>152.51</ele>
        <time>2021-08-10T15:36:33Z</time>
      </trkpt>
      <trkpt lat="48.23234" lon="4.39419">
        <ele>152.51</ele>
        <time>2021-08-10T15:36:34Z</time>
      </trkpt>
      <trkpt lat="48.23229" lon="4.39418">
        <ele>152.51</ele>
        <time>2021-08-10T15:36:35Z</time>
      </trkpt>
      <trkpt lat="48.23177" lon="4.39409">
        <ele>152.03</ele>
        <time>2021-08-10T15:36:45Z</time>
      </trkpt>
      <trkpt lat="48.23156" lon="4.394">
        <ele>152.03</ele>
        <time>2021-08-10T15:36:49Z</time>
      </trkpt>
      <trkpt lat="48.23151" lon="4.39398">
        <ele>152.03</ele>
        <time>2021-08-10T15:36:50Z</time>
      </trkpt>
      <trkpt lat="48.23146" lon="4.39396">
        <ele>152.03</ele>
        <time>2021-08-10T15:36:51Z</time>
      </trkpt>
      <trkpt lat="48.23136" lon="4.39392">
        <ele>152.03</ele>
        <time>2021-08-10T15:36:53Z</time>
      </trkpt>
      <trkpt lat="48.23097" lon="4.39374">
        <ele>152.03</ele>
        <time>2021-08-10T15:37:01Z</time>
      </trkpt>
      <trkpt lat="48.23092" lon="4.39371">
        <ele>152.03</ele>
        <time>2021-08-10T15:37:02Z</time>
      </trkpt>
      <trkpt lat="48.23088" lon="4.39369">
        <ele>151.54</ele>
        <time>2021-08-10T15:37:03Z</time>
      </trkpt>
      <trkpt lat="48.23083" lon="4.39367">
        <ele>151.06</ele>
        <time>2021-08-10T15:37:04Z</time>
      </trkpt>
      <trkpt lat="48.23078" lon="4.39366">
        <ele>151.06</ele>
        <time>2021-08-10T15:37:05Z</time>
      </trkpt>
      <trkpt lat="48.23073" lon="4.39367">
        <ele>151.06</ele>
        <time>2021-08-10T15:37:06Z</time>
      </trkpt>
      <trkpt lat="48.23068" lon="4.39369">
        <ele>151.06</ele>
        <time>2021-08-10T15:37:07Z</time>
      </trkpt>
      <trkpt lat="48.23064" lon="4.39373">
        <ele>151.06</ele>
        <time>2021-08-10T15:37:08Z</time>
      </trkpt>
      <trkpt lat="48.2306" lon="4.39378">
        <ele>150.58</ele>
        <time>2021-08-10T15:37:09Z</time>
      </trkpt>
      <trkpt lat="48.2303" lon="4.39424">
        <ele>149.14</ele>
        <time>2021-08-10T15:37:16Z</time>
      </trkpt>
      <trkpt lat="48.23016" lon="4.39443">
        <ele>148.18</ele>
        <time>2021-08-10T15:37:19Z</time>
      </trkpt>
      <trkpt lat="48.2301" lon="4.39447">
        <ele>148.18</ele>
        <time>2021-08-10T15:37:20Z</time>
      </trkpt>
      <trkpt lat="48.22999" lon="4.39452">
        <ele>148.18</ele>
        <time>2021-08-10T15:37:22Z</time>
      </trkpt>
      <trkpt lat="48.22987" lon="4.39455">
        <ele>148.18</ele>
        <time>2021-08-10T15:37:24Z</time>
      </trkpt>
      <trkpt lat="48.22982" lon="4.39455">
        <ele>147.22</ele>
        <time>2021-08-10T15:37:25Z</time>
      </trkpt>
      <trkpt lat="48.22977" lon="4.39452">
        <ele>147.22</ele>
        <time>2021-08-10T15:37:26Z</time>
      </trkpt>
      <trkpt lat="48.22974" lon="4.39447">
        <ele>147.22</ele>
        <time>2021-08-10T15:37:27Z</time>
      </trkpt>
      <trkpt lat="48.22972" lon="4.39441">
        <ele>147.22</ele>
        <time>2021-08-10T15:37:28Z</time>
      </trkpt>
      <trkpt lat="48.22972" lon="4.39434">
        <ele>147.22</ele>
        <time>2021-08-10T15:37:29Z</time>
      </trkpt>
      <trkpt lat="48.22971" lon="4.39427">
        <ele>147.22</ele>
        <time>2021-08-10T15:37:30Z</time>
      </trkpt>
      <trkpt lat="48.2297" lon="4.39419">
        <ele>147.7</ele>
        <time>2021-08-10T15:37:31Z</time>
      </trkpt>
      <trkpt lat="48.2297" lon="4.39412">
        <ele>147.7</ele>
        <time>2021-08-10T15:37:32Z</time>
      </trkpt>
      <trkpt lat="48.2297" lon="4.39404">
        <ele>147.7</ele>
        <time>2021-08-10T15:37:33Z</time>
      </trkpt>
      <trkpt lat="48.22967" lon="4.39375">
        <ele>148.66</ele>
        <time>2021-08-10T15:37:37Z</time>
      </trkpt>
      <trkpt lat="48.22963" lon="4.3933">
        <ele>149.62</ele>
        <time>2021-08-10T15:37:45Z</time>
      </trkpt>
      <trkpt lat="48.22959" lon="4.39291">
        <ele>150.58</ele>
        <time>2021-08-10T15:37:53Z</time>
      </trkpt>
      <trkpt lat="48.22953" lon="4.39245">
        <ele>151.54</ele>
        <time>2021-08-10T15:38:03Z</time>
      </trkpt>
      <trkpt lat="48.22942" lon="4.39184">
        <ele>151.54</ele>
        <time>2021-08-10T15:38:13Z</time>
      </trkpt>
      <trkpt lat="48.22932" lon="4.39119">
        <ele>151.54</ele>
        <time>2021-08-10T15:38:23Z</time>
      </trkpt>
      <trkpt lat="48.22926" lon="4.39079">
        <ele>151.54</ele>
        <time>2021-08-10T15:38:29Z</time>
      </trkpt>
      <trkpt lat="48.22925" lon="4.39065">
        <ele>151.54</ele>
        <time>2021-08-10T15:38:31Z</time>
      </trkpt>
      <trkpt lat="48.22924" lon="4.39059">
        <ele>151.54</ele>
        <time>2021-08-10T15:38:32Z</time>
      </trkpt>
      <trkpt lat="48.22916" lon="4.39005">
        <ele>151.54</ele>
        <time>2021-08-10T15:38:41Z</time>
      </trkpt>
      <trkpt lat="48.22909" lon="4.38956">
        <ele>152.51</ele>
        <time>2021-08-10T15:38:50Z</time>
      </trkpt>
      <trkpt lat="48.22901" lon="4.38901">
        <ele>152.99</ele>
        <time>2021-08-10T15:39:01Z</time>
      </trkpt>
      <trkpt lat="48.22894" lon="4.38849">
        <ele>153.95</ele>
        <time>2021-08-10T15:39:11Z</time>
      </trkpt>
      <trkpt lat="48.22884" lon="4.38784">
        <ele>153.95</ele>
        <time>2021-08-10T15:39:22Z</time>
      </trkpt>
      <trkpt lat="48.22877" lon="4.38737">
        <ele>153.95</ele>
        <time>2021-08-10T15:39:30Z</time>
      </trkpt>
      <trkpt lat="48.22876" lon="4.38731">
        <ele>153.95</ele>
        <time>2021-08-10T15:39:31Z</time>
      </trkpt>
      <trkpt lat="48.22876" lon="4.38724">
        <ele>153.95</ele>
        <time>2021-08-10T15:39:32Z</time>
      </trkpt>
      <trkpt lat="48.22868" lon="4.38671">
        <ele>154.43</ele>
        <time>2021-08-10T15:39:41Z</time>
      </trkpt>
      <trkpt lat="48.22864" lon="4.38653">
        <ele>154.43</ele>
        <time>2021-08-10T15:39:44Z</time>
      </trkpt>
      <trkpt lat="48.22855" lon="4.38585">
        <ele>154.91</ele>
        <time>2021-08-10T15:39:55Z</time>
      </trkpt>
      <trkpt lat="48.22854" lon="4.38578">
        <ele>154.91</ele>
        <time>2021-08-10T15:39:56Z</time>
      </trkpt>
      <trkpt lat="48.22852" lon="4.38572">
        <ele>154.91</ele>
        <time>2021-08-10T15:39:57Z</time>
      </trkpt>
      <trkpt lat="48.22851" lon="4.38566">
        <ele>154.91</ele>
        <time>2021-08-10T15:39:58Z</time>
      </trkpt>
      <trkpt lat="48.22849" lon="4.38554">
        <ele>154.91</ele>
        <time>2021-08-10T15:40:00Z</time>
      </trkpt>
      <trkpt lat="48.22841" lon="4.38497">
        <ele>155.39</ele>
        <time>2021-08-10T15:40:10Z</time>
      </trkpt>
      <trkpt lat="48.22832" lon="4.38442">
        <ele>156.35</ele>
        <time>2021-08-10T15:40:21Z</time>
      </trkpt>
      <trkpt lat="48.22822" lon="4.38388">
        <ele>156.83</ele>
        <time>2021-08-10T15:40:31Z</time>
      </trkpt>
      <trkpt lat="48.22818" lon="4.38363">
        <ele>156.83</ele>
        <time>2021-08-10T15:40:35Z</time>
      </trkpt>
      <trkpt lat="48.22807" lon="4.38314">
        <ele>156.83</ele>
        <time>2021-08-10T15:40:43Z</time>
      </trkpt>
      <trkpt lat="48.22806" lon="4.38307">
        <ele>156.83</ele>
        <time>2021-08-10T15:40:44Z</time>
      </trkpt>
      <trkpt lat="48.228" lon="4.38271">
        <ele>157.31</ele>
        <time>2021-08-10T15:40:51Z</time>
      </trkpt>
      <trkpt lat="48.22792" lon="4.3823">
        <ele>157.31</ele>
        <time>2021-08-10T15:40:58Z</time>
      </trkpt>
      <trkpt lat="48.22783" lon="4.38183">
        <ele>158.27</ele>
        <time>2021-08-10T15:41:07Z</time>
      </trkpt>
      <trkpt lat="48.22776" lon="4.38145">
        <ele>159.24</ele>
        <time>2021-08-10T15:41:16Z</time>
      </trkpt>
      <trkpt lat="48.22766" lon="4.38095">
        <ele>161.64</ele>
        <time>2021-08-10T15:41:28Z</time>
      </trkpt>
      <trkpt lat="48.22757" lon="4.38044">
        <ele>162.6</ele>
        <time>2021-08-10T15:41:40Z</time>
      </trkpt>
      <trkpt lat="48.22748" lon="4.37999">
        <ele>163.56</ele>
        <time>2021-08-10T15:41:51Z</time>
      </trkpt>
      <trkpt lat="48.22742" lon="4.37965">
        <ele>164.52</ele>
        <time>2021-08-10T15:41:59Z</time>
      </trkpt>
      <trkpt lat="48.22736" lon="4.37923">
        <ele>165</ele>
        <time>2021-08-10T15:42:08Z</time>
      </trkpt>
      <trkpt lat="48.22731" lon="4.37894">
        <ele>165</ele>
        <time>2021-08-10T15:42:13Z</time>
      </trkpt>
      <trkpt lat="48.22729" lon="4.37888">
        <ele>165</ele>
        <time>2021-08-10T15:42:14Z</time>
      </trkpt>
      <trkpt lat="48.22728" lon="4.37882">
        <ele>165</ele>
        <time>2021-08-10T15:42:15Z</time>
      </trkpt>
      <trkpt lat="48.22721" lon="4.37818">
        <ele>162.6</ele>
        <time>2021-08-10T15:42:24Z</time>
      </trkpt>
      <trkpt lat="48.22716" lon="4.37755">
        <ele>160.68</ele>
        <time>2021-08-10T15:42:32Z</time>
      </trkpt>
      <trkpt lat="48.22717" lon="4.37737">
        <ele>160.68</ele>
        <time>2021-08-10T15:42:36Z</time>
      </trkpt>
      <trkpt lat="48.22719" lon="4.37735">
        <ele>160.68</ele>
        <time>2021-08-10T15:42:37Z</time>
      </trkpt>
      <trkpt lat="48.22721" lon="4.37734">
        <ele>160.68</ele>
        <time>2021-08-10T15:42:38Z</time>
      </trkpt>
      <trkpt lat="48.22724" lon="4.37733">
        <ele>160.2</ele>
        <time>2021-08-10T15:42:40Z</time>
      </trkpt>
      <trkpt lat="48.22738" lon="4.37729">
        <ele>161.64</ele>
        <time>2021-08-10T15:42:45Z</time>
      </trkpt>
      <trkpt lat="48.22738" lon="4.37728">
        <ele>161.64</ele>
        <time>2021-08-10T15:42:46Z</time>
      </trkpt>
      <trkpt lat="48.22736" lon="4.37727">
        <ele>161.64</ele>
        <time>2021-08-10T15:42:49Z</time>
      </trkpt>
      <trkpt lat="48.22735" lon="4.37728">
        <ele>161.64</ele>
        <time>2021-08-10T15:42:50Z</time>
      </trkpt>
      <trkpt lat="48.22732" lon="4.37729">
        <ele>161.64</ele>
        <time>2021-08-10T15:42:51Z</time>
      </trkpt>
      <trkpt lat="48.22715" lon="4.37736">
        <ele>160.2</ele>
        <time>2021-08-10T15:42:56Z</time>
      </trkpt>
      <trkpt lat="48.2269" lon="4.37738">
        <ele>158.75</ele>
        <time>2021-08-10T15:43:02Z</time>
      </trkpt>
      <trkpt lat="48.2267" lon="4.37733">
        <ele>157.79</ele>
        <time>2021-08-10T15:43:06Z</time>
      </trkpt>
      <trkpt lat="48.22644" lon="4.37722">
        <ele>155.87</ele>
        <time>2021-08-10T15:43:10Z</time>
      </trkpt>
      <trkpt lat="48.22606" lon="4.37704">
        <ele>152.99</ele>
        <time>2021-08-10T15:43:15Z</time>
      </trkpt>
      <trkpt lat="48.22531" lon="4.37669">
        <ele>150.1</ele>
        <time>2021-08-10T15:43:24Z</time>
      </trkpt>
      <trkpt lat="48.22463" lon="4.37638">
        <ele>148.66</ele>
        <time>2021-08-10T15:43:33Z</time>
      </trkpt>
      <trkpt lat="48.22409" lon="4.37613">
        <ele>148.18</ele>
        <time>2021-08-10T15:43:41Z</time>
      </trkpt>
      <trkpt lat="48.22366" lon="4.37592">
        <ele>147.7</ele>
        <time>2021-08-10T15:43:48Z</time>
      </trkpt>
      <trkpt lat="48.22311" lon="4.37567">
        <ele>147.22</ele>
        <time>2021-08-10T15:43:57Z</time>
      </trkpt>
      <trkpt lat="48.22246" lon="4.37537">
        <ele>146.74</ele>
        <time>2021-08-10T15:44:07Z</time>
      </trkpt>
      <trkpt lat="48.22191" lon="4.37512">
        <ele>144.34</ele>
        <time>2021-08-10T15:44:15Z</time>
      </trkpt>
      <trkpt lat="48.22123" lon="4.3748">
        <ele>142.41</ele>
        <time>2021-08-10T15:44:24Z</time>
      </trkpt>
      <trkpt lat="48.22037" lon="4.3744">
        <ele>141.45</ele>
        <time>2021-08-10T15:44:35Z</time>
      </trkpt>
      <trkpt lat="48.21966" lon="4.37406">
        <ele>141.45</ele>
        <time>2021-08-10T15:44:45Z</time>
      </trkpt>
      <trkpt lat="48.2192" lon="4.37386">
        <ele>141.45</ele>
        <time>2021-08-10T15:44:52Z</time>
      </trkpt>
      <trkpt lat="48.21866" lon="4.37362">
        <ele>141.45</ele>
        <time>2021-08-10T15:45:01Z</time>
      </trkpt>
      <trkpt lat="48.2185" lon="4.37354">
        <ele>141.45</ele>
        <time>2021-08-10T15:45:04Z</time>
      </trkpt>
      <trkpt lat="48.21796" lon="4.3733">
        <ele>142.41</ele>
        <time>2021-08-10T15:45:14Z</time>
      </trkpt>
      <trkpt lat="48.21791" lon="4.37327">
        <ele>142.41</ele>
        <time>2021-08-10T15:45:15Z</time>
      </trkpt>
      <trkpt lat="48.2174" lon="4.37303">
        <ele>142.41</ele>
        <time>2021-08-10T15:45:26Z</time>
      </trkpt>
      <trkpt lat="48.21716" lon="4.37294">
        <ele>142.89</ele>
        <time>2021-08-10T15:45:31Z</time>
      </trkpt>
      <trkpt lat="48.21675" lon="4.37273">
        <ele>142.89</ele>
        <time>2021-08-10T15:45:40Z</time>
      </trkpt>
      <trkpt lat="48.21636" lon="4.37257">
        <ele>143.37</ele>
        <time>2021-08-10T15:45:48Z</time>
      </trkpt>
      <trkpt lat="48.21594" lon="4.37236">
        <ele>143.85</ele>
        <time>2021-08-10T15:45:57Z</time>
      </trkpt>
      <trkpt lat="48.21564" lon="4.37221">
        <ele>145.3</ele>
        <time>2021-08-10T15:46:05Z</time>
      </trkpt>
      <trkpt lat="48.21528" lon="4.37206">
        <ele>146.74</ele>
        <time>2021-08-10T15:46:16Z</time>
      </trkpt>
      <trkpt lat="48.21499" lon="4.37192">
        <ele>147.7</ele>
        <time>2021-08-10T15:46:26Z</time>
      </trkpt>
      <trkpt lat="48.21474" lon="4.37181">
        <ele>149.62</ele>
        <time>2021-08-10T15:46:35Z</time>
      </trkpt>
      <trkpt lat="48.21447" lon="4.37169">
        <ele>150.1</ele>
        <time>2021-08-10T15:46:45Z</time>
      </trkpt>
      <trkpt lat="48.21423" lon="4.37158">
        <ele>152.03</ele>
        <time>2021-08-10T15:46:54Z</time>
      </trkpt>
      <trkpt lat="48.21396" lon="4.37143">
        <ele>152.51</ele>
        <time>2021-08-10T15:47:04Z</time>
      </trkpt>
      <trkpt lat="48.21371" lon="4.37127">
        <ele>153.95</ele>
        <time>2021-08-10T15:47:14Z</time>
      </trkpt>
      <trkpt lat="48.21361" lon="4.37115">
        <ele>155.39</ele>
        <time>2021-08-10T15:47:19Z</time>
      </trkpt>
      <trkpt lat="48.21352" lon="4.37092">
        <ele>155.39</ele>
        <time>2021-08-10T15:47:26Z</time>
      </trkpt>
      <trkpt lat="48.21341" lon="4.37059">
        <ele>157.31</ele>
        <time>2021-08-10T15:47:35Z</time>
      </trkpt>
      <trkpt lat="48.21331" lon="4.3702">
        <ele>157.79</ele>
        <time>2021-08-10T15:47:45Z</time>
      </trkpt>
      <trkpt lat="48.21327" lon="4.37002">
        <ele>157.79</ele>
        <time>2021-08-10T15:47:49Z</time>
      </trkpt>
      <trkpt lat="48.21327" lon="4.36997">
        <ele>157.79</ele>
        <time>2021-08-10T15:47:50Z</time>
      </trkpt>
      <trkpt lat="48.21326" lon="4.36992">
        <ele>157.79</ele>
        <time>2021-08-10T15:47:51Z</time>
      </trkpt>
      <trkpt lat="48.21324" lon="4.36988">
        <ele>157.79</ele>
        <time>2021-08-10T15:47:52Z</time>
      </trkpt>
      <trkpt lat="48.21322" lon="4.36983">
        <ele>157.79</ele>
        <time>2021-08-10T15:47:53Z</time>
      </trkpt>
      <trkpt lat="48.21315" lon="4.3696">
        <ele>158.27</ele>
        <time>2021-08-10T15:47:58Z</time>
      </trkpt>
      <trkpt lat="48.21302" lon="4.36911">
        <ele>158.27</ele>
        <time>2021-08-10T15:48:07Z</time>
      </trkpt>
      <trkpt lat="48.21297" lon="4.36893">
        <ele>158.75</ele>
        <time>2021-08-10T15:48:10Z</time>
      </trkpt>
      <trkpt lat="48.21282" lon="4.36844">
        <ele>159.72</ele>
        <time>2021-08-10T15:48:19Z</time>
      </trkpt>
      <trkpt lat="48.21279" lon="4.36841">
        <ele>159.72</ele>
        <time>2021-08-10T15:48:20Z</time>
      </trkpt>
      <trkpt lat="48.21275" lon="4.3684">
        <ele>159.72</ele>
        <time>2021-08-10T15:48:21Z</time>
      </trkpt>
      <trkpt lat="48.21272" lon="4.36841">
        <ele>159.72</ele>
        <time>2021-08-10T15:48:22Z</time>
      </trkpt>
      <trkpt lat="48.21249" lon="4.36857">
        <ele>160.2</ele>
        <time>2021-08-10T15:48:29Z</time>
      </trkpt>
      <trkpt lat="48.21217" lon="4.36884">
        <ele>161.16</ele>
        <time>2021-08-10T15:48:39Z</time>
      </trkpt>
      <trkpt lat="48.212" lon="4.36897">
        <ele>161.64</ele>
        <time>2021-08-10T15:48:45Z</time>
      </trkpt>
      <trkpt lat="48.2118" lon="4.36912">
        <ele>162.12</ele>
        <time>2021-08-10T15:48:51Z</time>
      </trkpt>
      <trkpt lat="48.21145" lon="4.36941">
        <ele>163.56</ele>
        <time>2021-08-10T15:49:01Z</time>
      </trkpt>
      <trkpt lat="48.21118" lon="4.36964">
        <ele>164.52</ele>
        <time>2021-08-10T15:49:09Z</time>
      </trkpt>
      <trkpt lat="48.21094" lon="4.36985">
        <ele>165.96</ele>
        <time>2021-08-10T15:49:16Z</time>
      </trkpt>
      <trkpt lat="48.21062" lon="4.37009">
        <ele>167.41</ele>
        <time>2021-08-10T15:49:25Z</time>
      </trkpt>
      <trkpt lat="48.21016" lon="4.37039">
        <ele>168.37</ele>
        <time>2021-08-10T15:49:37Z</time>
      </trkpt>
      <trkpt lat="48.2097" lon="4.37073">
        <ele>169.81</ele>
        <time>2021-08-10T15:49:49Z</time>
      </trkpt>
      <trkpt lat="48.20937" lon="4.37097">
        <ele>170.77</ele>
        <time>2021-08-10T15:49:58Z</time>
      </trkpt>
      <trkpt lat="48.20909" lon="4.37118">
        <ele>170.77</ele>
        <time>2021-08-10T15:50:06Z</time>
      </trkpt>
      <trkpt lat="48.20874" lon="4.37145">
        <ele>172.21</ele>
        <time>2021-08-10T15:50:16Z</time>
      </trkpt>
      <trkpt lat="48.20847" lon="4.37166">
        <ele>172.21</ele>
        <time>2021-08-10T15:50:24Z</time>
      </trkpt>
      <trkpt lat="48.20803" lon="4.37195">
        <ele>173.66</ele>
        <time>2021-08-10T15:50:36Z</time>
      </trkpt>
      <trkpt lat="48.20774" lon="4.37217">
        <ele>173.66</ele>
        <time>2021-08-10T15:50:44Z</time>
      </trkpt>
      <trkpt lat="48.20763" lon="4.37225">
        <ele>174.62</ele>
        <time>2021-08-10T15:50:47Z</time>
      </trkpt>
      <trkpt lat="48.20728" lon="4.37248">
        <ele>175.58</ele>
        <time>2021-08-10T15:50:56Z</time>
      </trkpt>
      <trkpt lat="48.20685" lon="4.3728">
        <ele>176.06</ele>
        <time>2021-08-10T15:51:07Z</time>
      </trkpt>
      <trkpt lat="48.2065" lon="4.37306">
        <ele>176.06</ele>
        <time>2021-08-10T15:51:16Z</time>
      </trkpt>
      <trkpt lat="48.20604" lon="4.37339">
        <ele>176.54</ele>
        <time>2021-08-10T15:51:28Z</time>
      </trkpt>
      <trkpt lat="48.20589" lon="4.37351">
        <ele>176.54</ele>
        <time>2021-08-10T15:51:32Z</time>
      </trkpt>
      <trkpt lat="48.20563" lon="4.3737">
        <ele>177.5</ele>
        <time>2021-08-10T15:51:39Z</time>
      </trkpt>
      <trkpt lat="48.20559" lon="4.37372">
        <ele>177.5</ele>
        <time>2021-08-10T15:51:40Z</time>
      </trkpt>
      <trkpt lat="48.20526" lon="4.37396">
        <ele>178.94</ele>
        <time>2021-08-10T15:51:50Z</time>
      </trkpt>
      <trkpt lat="48.20504" lon="4.37411">
        <ele>179.9</ele>
        <time>2021-08-10T15:51:58Z</time>
      </trkpt>
      <trkpt lat="48.20482" lon="4.37427">
        <ele>181.35</ele>
        <time>2021-08-10T15:52:07Z</time>
      </trkpt>
      <trkpt lat="48.2046" lon="4.37443">
        <ele>182.79</ele>
        <time>2021-08-10T15:52:17Z</time>
      </trkpt>
      <trkpt lat="48.20444" lon="4.37455">
        <ele>183.27</ele>
        <time>2021-08-10T15:52:24Z</time>
      </trkpt>
      <trkpt lat="48.20423" lon="4.3747">
        <ele>184.23</ele>
        <time>2021-08-10T15:52:33Z</time>
      </trkpt>
      <trkpt lat="48.20398" lon="4.37491">
        <ele>186.15</ele>
        <time>2021-08-10T15:52:45Z</time>
      </trkpt>
      <trkpt lat="48.20381" lon="4.37506">
        <ele>187.11</ele>
        <time>2021-08-10T15:52:53Z</time>
      </trkpt>
      <trkpt lat="48.20366" lon="4.37519">
        <ele>187.59</ele>
        <time>2021-08-10T15:53:00Z</time>
      </trkpt>
      <trkpt lat="48.20347" lon="4.37543">
        <ele>187.59</ele>
        <time>2021-08-10T15:53:09Z</time>
      </trkpt>
      <trkpt lat="48.20335" lon="4.37569">
        <ele>187.59</ele>
        <time>2021-08-10T15:53:17Z</time>
      </trkpt>
      <trkpt lat="48.20325" lon="4.37593">
        <ele>186.15</ele>
        <time>2021-08-10T15:53:22Z</time>
      </trkpt>
      <trkpt lat="48.2032" lon="4.37605">
        <ele>185.67</ele>
        <time>2021-08-10T15:53:24Z</time>
      </trkpt>
      <trkpt lat="48.20309" lon="4.37644">
        <ele>184.23</ele>
        <time>2021-08-10T15:53:30Z</time>
      </trkpt>
      <trkpt lat="48.20307" lon="4.37649">
        <ele>183.75</ele>
        <time>2021-08-10T15:53:31Z</time>
      </trkpt>
      <trkpt lat="48.20303" lon="4.37651">
        <ele>183.75</ele>
        <time>2021-08-10T15:53:32Z</time>
      </trkpt>
      <trkpt lat="48.20297" lon="4.37648">
        <ele>183.27</ele>
        <time>2021-08-10T15:53:34Z</time>
      </trkpt>
      <trkpt lat="48.20295" lon="4.37645">
        <ele>183.27</ele>
        <time>2021-08-10T15:53:35Z</time>
      </trkpt>
      <trkpt lat="48.2029" lon="4.37631">
        <ele>183.27</ele>
        <time>2021-08-10T15:53:40Z</time>
      </trkpt>
      <trkpt lat="48.20289" lon="4.37626">
        <ele>185.19</ele>
        <time>2021-08-10T15:53:42Z</time>
      </trkpt>
      <trkpt lat="48.20281" lon="4.37602">
        <ele>187.11</ele>
        <time>2021-08-10T15:53:49Z</time>
      </trkpt>
      <trkpt lat="48.20268" lon="4.37568">
        <ele>188.08</ele>
        <time>2021-08-10T15:53:59Z</time>
      </trkpt>
      <trkpt lat="48.20254" lon="4.37532">
        <ele>189.04</ele>
        <time>2021-08-10T15:54:09Z</time>
      </trkpt>
      <trkpt lat="48.20236" lon="4.3749">
        <ele>190</ele>
        <time>2021-08-10T15:54:19Z</time>
      </trkpt>
      <trkpt lat="48.20219" lon="4.37444">
        <ele>190.96</ele>
        <time>2021-08-10T15:54:29Z</time>
      </trkpt>
      <trkpt lat="48.20205" lon="4.37407">
        <ele>191.44</ele>
        <time>2021-08-10T15:54:37Z</time>
      </trkpt>
      <trkpt lat="48.20185" lon="4.37372">
        <ele>191.44</ele>
        <time>2021-08-10T15:54:45Z</time>
      </trkpt>
      <trkpt lat="48.20182" lon="4.37369">
        <ele>191.44</ele>
        <time>2021-08-10T15:54:46Z</time>
      </trkpt>
      <trkpt lat="48.20154" lon="4.37334">
        <ele>190.48</ele>
        <time>2021-08-10T15:54:53Z</time>
      </trkpt>
      <trkpt lat="48.20151" lon="4.37329">
        <ele>190</ele>
        <time>2021-08-10T15:54:54Z</time>
      </trkpt>
      <trkpt lat="48.20139" lon="4.37309">
        <ele>189.52</ele>
        <time>2021-08-10T15:54:57Z</time>
      </trkpt>
      <trkpt lat="48.20136" lon="4.37304">
        <ele>189.52</ele>
        <time>2021-08-10T15:54:58Z</time>
      </trkpt>
      <trkpt lat="48.20134" lon="4.37296">
        <ele>189.52</ele>
        <time>2021-08-10T15:54:59Z</time>
      </trkpt>
      <trkpt lat="48.20118" lon="4.37254">
        <ele>189.04</ele>
        <time>2021-08-10T15:55:06Z</time>
      </trkpt>
      <trkpt lat="48.20096" lon="4.37215">
        <ele>188.08</ele>
        <time>2021-08-10T15:55:14Z</time>
      </trkpt>
      <trkpt lat="48.20077" lon="4.37177">
        <ele>188.08</ele>
        <time>2021-08-10T15:55:22Z</time>
      </trkpt>
      <trkpt lat="48.20059" lon="4.37141">
        <ele>187.59</ele>
        <time>2021-08-10T15:55:30Z</time>
      </trkpt>
      <trkpt lat="48.20034" lon="4.3709">
        <ele>187.59</ele>
        <time>2021-08-10T15:55:40Z</time>
      </trkpt>
      <trkpt lat="48.20018" lon="4.37052">
        <ele>186.63</ele>
        <time>2021-08-10T15:55:47Z</time>
      </trkpt>
      <trkpt lat="48.2" lon="4.37014">
        <ele>186.63</ele>
        <time>2021-08-10T15:55:55Z</time>
      </trkpt>
      <trkpt lat="48.19985" lon="4.36983">
        <ele>187.11</ele>
        <time>2021-08-10T15:56:02Z</time>
      </trkpt>
      <trkpt lat="48.19972" lon="4.36959">
        <ele>186.63</ele>
        <time>2021-08-10T15:56:07Z</time>
      </trkpt>
      <trkpt lat="48.1995" lon="4.36919">
        <ele>186.63</ele>
        <time>2021-08-10T15:56:15Z</time>
      </trkpt>
      <trkpt lat="48.19937" lon="4.36896">
        <ele>186.63</ele>
        <time>2021-08-10T15:56:20Z</time>
      </trkpt>
      <trkpt lat="48.19913" lon="4.3685">
        <ele>186.15</ele>
        <time>2021-08-10T15:56:28Z</time>
      </trkpt>
      <trkpt lat="48.19897" lon="4.36818">
        <ele>186.15</ele>
        <time>2021-08-10T15:56:35Z</time>
      </trkpt>
      <trkpt lat="48.19891" lon="4.36801">
        <ele>187.59</ele>
        <time>2021-08-10T15:56:39Z</time>
      </trkpt>
      <trkpt lat="48.19884" lon="4.36777">
        <ele>187.59</ele>
        <time>2021-08-10T15:56:45Z</time>
      </trkpt>
      <trkpt lat="48.19874" lon="4.36746">
        <ele>188.08</ele>
        <time>2021-08-10T15:56:53Z</time>
      </trkpt>
      <trkpt lat="48.19863" lon="4.36725">
        <ele>189.04</ele>
        <time>2021-08-10T15:56:58Z</time>
      </trkpt>
      <trkpt lat="48.1985" lon="4.36697">
        <ele>189.04</ele>
        <time>2021-08-10T15:57:05Z</time>
      </trkpt>
      <trkpt lat="48.1984" lon="4.36672">
        <ele>189.04</ele>
        <time>2021-08-10T15:57:11Z</time>
      </trkpt>
      <trkpt lat="48.19828" lon="4.36642">
        <ele>189.04</ele>
        <time>2021-08-10T15:57:19Z</time>
      </trkpt>
      <trkpt lat="48.19816" lon="4.36617">
        <ele>190</ele>
        <time>2021-08-10T15:57:26Z</time>
      </trkpt>
      <trkpt lat="48.19797" lon="4.36589">
        <ele>190</ele>
        <time>2021-08-10T15:57:34Z</time>
      </trkpt>
      <trkpt lat="48.1978" lon="4.36564">
        <ele>190.48</ele>
        <time>2021-08-10T15:57:41Z</time>
      </trkpt>
      <trkpt lat="48.19765" lon="4.36547">
        <ele>190.96</ele>
        <time>2021-08-10T15:57:48Z</time>
      </trkpt>
      <trkpt lat="48.19752" lon="4.36524">
        <ele>190.96</ele>
        <time>2021-08-10T15:57:54Z</time>
      </trkpt>
      <trkpt lat="48.19741" lon="4.36505">
        <ele>189.52</ele>
        <time>2021-08-10T15:57:59Z</time>
      </trkpt>
      <trkpt lat="48.19722" lon="4.36477">
        <ele>190</ele>
        <time>2021-08-10T15:58:06Z</time>
      </trkpt>
      <trkpt lat="48.19704" lon="4.36448">
        <ele>190</ele>
        <time>2021-08-10T15:58:13Z</time>
      </trkpt>
      <trkpt lat="48.19688" lon="4.36424">
        <ele>190</ele>
        <time>2021-08-10T15:58:19Z</time>
      </trkpt>
      <trkpt lat="48.19664" lon="4.36384">
        <ele>190</ele>
        <time>2021-08-10T15:58:27Z</time>
      </trkpt>
      <trkpt lat="48.19647" lon="4.36357">
        <ele>190</ele>
        <time>2021-08-10T15:58:33Z</time>
      </trkpt>
      <trkpt lat="48.1963" lon="4.36327">
        <ele>190</ele>
        <time>2021-08-10T15:58:39Z</time>
      </trkpt>
      <trkpt lat="48.19619" lon="4.36308">
        <ele>190.48</ele>
        <time>2021-08-10T15:58:43Z</time>
      </trkpt>
      <trkpt lat="48.19593" lon="4.36262">
        <ele>190.48</ele>
        <time>2021-08-10T15:58:52Z</time>
      </trkpt>
      <trkpt lat="48.19572" lon="4.36231">
        <ele>190.48</ele>
        <time>2021-08-10T15:58:59Z</time>
      </trkpt>
      <trkpt lat="48.19546" lon="4.36203">
        <ele>190.48</ele>
        <time>2021-08-10T15:59:06Z</time>
      </trkpt>
      <trkpt lat="48.19529" lon="4.36186">
        <ele>190.48</ele>
        <time>2021-08-10T15:59:10Z</time>
      </trkpt>
      <trkpt lat="48.19508" lon="4.36164">
        <ele>190</ele>
        <time>2021-08-10T15:59:15Z</time>
      </trkpt>
      <trkpt lat="48.19474" lon="4.36134">
        <ele>190</ele>
        <time>2021-08-10T15:59:23Z</time>
      </trkpt>
      <trkpt lat="48.19453" lon="4.36117">
        <ele>189.04</ele>
        <time>2021-08-10T15:59:29Z</time>
      </trkpt>
      <trkpt lat="48.1943" lon="4.36089">
        <ele>189.04</ele>
        <time>2021-08-10T15:59:36Z</time>
      </trkpt>
      <trkpt lat="48.19415" lon="4.36065">
        <ele>189.04</ele>
        <time>2021-08-10T15:59:42Z</time>
      </trkpt>
      <trkpt lat="48.19399" lon="4.3604">
        <ele>188.56</ele>
        <time>2021-08-10T15:59:47Z</time>
      </trkpt>
      <trkpt lat="48.19383" lon="4.36012">
        <ele>188.56</ele>
        <time>2021-08-10T15:59:53Z</time>
      </trkpt>
      <trkpt lat="48.19365" lon="4.35992">
        <ele>188.56</ele>
        <time>2021-08-10T15:59:59Z</time>
      </trkpt>
      <trkpt lat="48.19358" lon="4.35987">
        <ele>188.56</ele>
        <time>2021-08-10T16:00:01Z</time>
      </trkpt>
      <trkpt lat="48.19329" lon="4.35966">
        <ele>189.04</ele>
        <time>2021-08-10T16:00:07Z</time>
      </trkpt>
      <trkpt lat="48.19319" lon="4.35957">
        <ele>189.04</ele>
        <time>2021-08-10T16:00:09Z</time>
      </trkpt>
      <trkpt lat="48.19293" lon="4.35939">
        <ele>188.08</ele>
        <time>2021-08-10T16:00:14Z</time>
      </trkpt>
      <trkpt lat="48.19271" lon="4.35915">
        <ele>188.56</ele>
        <time>2021-08-10T16:00:20Z</time>
      </trkpt>
      <trkpt lat="48.19252" lon="4.35892">
        <ele>188.56</ele>
        <time>2021-08-10T16:00:26Z</time>
      </trkpt>
      <trkpt lat="48.19236" lon="4.35869">
        <ele>188.56</ele>
        <time>2021-08-10T16:00:31Z</time>
      </trkpt>
      <trkpt lat="48.19219" lon="4.35851">
        <ele>188.56</ele>
        <time>2021-08-10T16:00:37Z</time>
      </trkpt>
      <trkpt lat="48.1921" lon="4.35844">
        <ele>188.56</ele>
        <time>2021-08-10T16:00:42Z</time>
      </trkpt>
      <trkpt lat="48.192" lon="4.35833">
        <ele>188.56</ele>
        <time>2021-08-10T16:00:48Z</time>
      </trkpt>
      <trkpt lat="48.19185" lon="4.35819">
        <ele>188.56</ele>
        <time>2021-08-10T16:00:55Z</time>
      </trkpt>
      <trkpt lat="48.19173" lon="4.35802">
        <ele>189.04</ele>
        <time>2021-08-10T16:01:01Z</time>
      </trkpt>
      <trkpt lat="48.19156" lon="4.35782">
        <ele>189.04</ele>
        <time>2021-08-10T16:01:07Z</time>
      </trkpt>
      <trkpt lat="48.19136" lon="4.35758">
        <ele>189.04</ele>
        <time>2021-08-10T16:01:14Z</time>
      </trkpt>
      <trkpt lat="48.19124" lon="4.35741">
        <ele>189.04</ele>
        <time>2021-08-10T16:01:20Z</time>
      </trkpt>
      <trkpt lat="48.19103" lon="4.35717">
        <ele>189.04</ele>
        <time>2021-08-10T16:01:27Z</time>
      </trkpt>
      <trkpt lat="48.19084" lon="4.35696">
        <ele>189.04</ele>
        <time>2021-08-10T16:01:33Z</time>
      </trkpt>
      <trkpt lat="48.19081" lon="4.35691">
        <ele>189.04</ele>
        <time>2021-08-10T16:01:35Z</time>
      </trkpt>
      <trkpt lat="48.19079" lon="4.35687">
        <ele>189.04</ele>
        <time>2021-08-10T16:01:37Z</time>
      </trkpt>
      <trkpt lat="48.19065" lon="4.35673">
        <ele>189.52</ele>
        <time>2021-08-10T16:01:44Z</time>
      </trkpt>
      <trkpt lat="48.19059" lon="4.35667">
        <ele>189.52</ele>
        <time>2021-08-10T16:01:50Z</time>
      </trkpt>
      <trkpt lat="48.19051" lon="4.35661">
        <ele>189.52</ele>
        <time>2021-08-10T16:01:57Z</time>
      </trkpt>
      <trkpt lat="48.19047" lon="4.35658">
        <ele>189.52</ele>
        <time>2021-08-10T16:02:04Z</time>
      </trkpt>
      <trkpt lat="48.19042" lon="4.35658">
        <ele>189.52</ele>
        <time>2021-08-10T16:02:15Z</time>
      </trkpt>
      <trkpt lat="48.19042" lon="4.35653">
        <ele>190</ele>
        <time>2021-08-10T16:02:26Z</time>
      </trkpt>
      <trkpt lat="48.19038" lon="4.35647">
        <ele>190</ele>
        <time>2021-08-10T16:02:34Z</time>
      </trkpt>
      <trkpt lat="48.19034" lon="4.35647">
        <ele>190</ele>
        <time>2021-08-10T16:02:44Z</time>
      </trkpt>
      <trkpt lat="48.19033" lon="4.35646">
        <ele>190</ele>
        <time>2021-08-10T16:02:54Z</time>
      </trkpt>
      <trkpt lat="48.19029" lon="4.3564">
        <ele>190</ele>
        <time>2021-08-10T16:03:01Z</time>
      </trkpt>
      <trkpt lat="48.1902" lon="4.35631">
        <ele>190</ele>
        <time>2021-08-10T16:03:07Z</time>
      </trkpt>
      <trkpt lat="48.19014" lon="4.35625">
        <ele>190</ele>
        <time>2021-08-10T16:03:12Z</time>
      </trkpt>
      <trkpt lat="48.19004" lon="4.35611">
        <ele>191.44</ele>
        <time>2021-08-10T16:03:19Z</time>
      </trkpt>
      <trkpt lat="48.18988" lon="4.35592">
        <ele>191.44</ele>
        <time>2021-08-10T16:03:26Z</time>
      </trkpt>
      <trkpt lat="48.18977" lon="4.3558">
        <ele>191.44</ele>
        <time>2021-08-10T16:03:31Z</time>
      </trkpt>
      <trkpt lat="48.18962" lon="4.35565">
        <ele>191.92</ele>
        <time>2021-08-10T16:03:37Z</time>
      </trkpt>
      <trkpt lat="48.18952" lon="4.35555">
        <ele>191.92</ele>
        <time>2021-08-10T16:03:42Z</time>
      </trkpt>
      <trkpt lat="48.18941" lon="4.35539">
        <ele>191.92</ele>
        <time>2021-08-10T16:03:49Z</time>
      </trkpt>
      <trkpt lat="48.18936" lon="4.35527">
        <ele>192.4</ele>
        <time>2021-08-10T16:03:54Z</time>
      </trkpt>
      <trkpt lat="48.18925" lon="4.35502">
        <ele>192.4</ele>
        <time>2021-08-10T16:04:01Z</time>
      </trkpt>
      <trkpt lat="48.18909" lon="4.35474">
        <ele>192.4</ele>
        <time>2021-08-10T16:04:09Z</time>
      </trkpt>
      <trkpt lat="48.18887" lon="4.35447">
        <ele>192.4</ele>
        <time>2021-08-10T16:04:18Z</time>
      </trkpt>
      <trkpt lat="48.18865" lon="4.35421">
        <ele>192.4</ele>
        <time>2021-08-10T16:04:27Z</time>
      </trkpt>
      <trkpt lat="48.18843" lon="4.35388">
        <ele>192.4</ele>
        <time>2021-08-10T16:04:36Z</time>
      </trkpt>
      <trkpt lat="48.18839" lon="4.35362">
        <ele>192.4</ele>
        <time>2021-08-10T16:04:43Z</time>
      </trkpt>
      <trkpt lat="48.1884" lon="4.35339">
        <ele>193.84</ele>
        <time>2021-08-10T16:04:50Z</time>
      </trkpt>
      <trkpt lat="48.18838" lon="4.35335">
        <ele>193.84</ele>
        <time>2021-08-10T16:04:51Z</time>
      </trkpt>
      <trkpt lat="48.18837" lon="4.35331">
        <ele>193.84</ele>
        <time>2021-08-10T16:04:52Z</time>
      </trkpt>
      <trkpt lat="48.18834" lon="4.35327">
        <ele>193.84</ele>
        <time>2021-08-10T16:04:53Z</time>
      </trkpt>
      <trkpt lat="48.18831" lon="4.35324">
        <ele>193.84</ele>
        <time>2021-08-10T16:04:54Z</time>
      </trkpt>
      <trkpt lat="48.18828" lon="4.35321">
        <ele>193.84</ele>
        <time>2021-08-10T16:04:55Z</time>
      </trkpt>
      <trkpt lat="48.188" lon="4.35288">
        <ele>193.84</ele>
        <time>2021-08-10T16:05:03Z</time>
      </trkpt>
      <trkpt lat="48.18776" lon="4.35257">
        <ele>193.84</ele>
        <time>2021-08-10T16:05:11Z</time>
      </trkpt>
      <trkpt lat="48.18744" lon="4.35218">
        <ele>194.32</ele>
        <time>2021-08-10T16:05:21Z</time>
      </trkpt>
      <trkpt lat="48.18716" lon="4.35186">
        <ele>194.32</ele>
        <time>2021-08-10T16:05:29Z</time>
      </trkpt>
      <trkpt lat="48.18713" lon="4.35182">
        <ele>194.32</ele>
        <time>2021-08-10T16:05:30Z</time>
      </trkpt>
      <trkpt lat="48.18707" lon="4.35174">
        <ele>192.88</ele>
        <time>2021-08-10T16:05:32Z</time>
      </trkpt>
      <trkpt lat="48.18681" lon="4.35142">
        <ele>192.88</ele>
        <time>2021-08-10T16:05:41Z</time>
      </trkpt>
      <trkpt lat="48.18657" lon="4.35109">
        <ele>192.88</ele>
        <time>2021-08-10T16:05:49Z</time>
      </trkpt>
      <trkpt lat="48.18648" lon="4.35097">
        <ele>192.4</ele>
        <time>2021-08-10T16:05:52Z</time>
      </trkpt>
      <trkpt lat="48.18637" lon="4.35087">
        <ele>192.4</ele>
        <time>2021-08-10T16:05:55Z</time>
      </trkpt>
      <trkpt lat="48.18614" lon="4.35057">
        <ele>192.4</ele>
        <time>2021-08-10T16:06:02Z</time>
      </trkpt>
      <trkpt lat="48.18586" lon="4.35018">
        <ele>192.4</ele>
        <time>2021-08-10T16:06:11Z</time>
      </trkpt>
      <trkpt lat="48.1856" lon="4.34984">
        <ele>192.4</ele>
        <time>2021-08-10T16:06:19Z</time>
      </trkpt>
      <trkpt lat="48.1853" lon="4.34944">
        <ele>192.4</ele>
        <time>2021-08-10T16:06:28Z</time>
      </trkpt>
      <trkpt lat="48.18523" lon="4.34932">
        <ele>192.4</ele>
        <time>2021-08-10T16:06:30Z</time>
      </trkpt>
      <trkpt lat="48.18511" lon="4.349">
        <ele>193.36</ele>
        <time>2021-08-10T16:06:36Z</time>
      </trkpt>
      <trkpt lat="48.18496" lon="4.34854">
        <ele>193.36</ele>
        <time>2021-08-10T16:06:45Z</time>
      </trkpt>
      <trkpt lat="48.18487" lon="4.34825">
        <ele>193.84</ele>
        <time>2021-08-10T16:06:51Z</time>
      </trkpt>
      <trkpt lat="48.1849" lon="4.34791">
        <ele>194.32</ele>
        <time>2021-08-10T16:06:58Z</time>
      </trkpt>
      <trkpt lat="48.1848" lon="4.34763">
        <ele>194.32</ele>
        <time>2021-08-10T16:07:04Z</time>
      </trkpt>
      <trkpt lat="48.18478" lon="4.3476">
        <ele>194.32</ele>
        <time>2021-08-10T16:07:05Z</time>
      </trkpt>
      <trkpt lat="48.18475" lon="4.34759">
        <ele>194.32</ele>
        <time>2021-08-10T16:07:06Z</time>
      </trkpt>
      <trkpt lat="48.18472" lon="4.3476">
        <ele>194.32</ele>
        <time>2021-08-10T16:07:07Z</time>
      </trkpt>
      <trkpt lat="48.1847" lon="4.34761">
        <ele>194.32</ele>
        <time>2021-08-10T16:07:08Z</time>
      </trkpt>
      <trkpt lat="48.18468" lon="4.34764">
        <ele>194.32</ele>
        <time>2021-08-10T16:07:09Z</time>
      </trkpt>
      <trkpt lat="48.18466" lon="4.34766">
        <ele>194.32</ele>
        <time>2021-08-10T16:07:10Z</time>
      </trkpt>
      <trkpt lat="48.18464" lon="4.34768">
        <ele>194.32</ele>
        <time>2021-08-10T16:07:11Z</time>
      </trkpt>
      <trkpt lat="48.18452" lon="4.34784">
        <ele>194.32</ele>
        <time>2021-08-10T16:07:17Z</time>
      </trkpt>
      <trkpt lat="48.18443" lon="4.34794">
        <ele>192.4</ele>
        <time>2021-08-10T16:07:22Z</time>
      </trkpt>
      <trkpt lat="48.18443" lon="4.34797">
        <ele>192.4</ele>
        <time>2021-08-10T16:07:23Z</time>
      </trkpt>
      <trkpt lat="48.18444" lon="4.34798">
        <ele>192.4</ele>
        <time>2021-08-10T16:07:24Z</time>
      </trkpt>
      <trkpt lat="48.18445" lon="4.34798">
        <ele>192.4</ele>
        <time>2021-08-10T16:07:25Z</time>
      </trkpt>
      <trkpt lat="48.18446" lon="4.34796">
        <ele>192.4</ele>
        <time>2021-08-10T16:07:26Z</time>
      </trkpt>
      <trkpt lat="48.18447" lon="4.34794">
        <ele>192.4</ele>
        <time>2021-08-10T16:07:27Z</time>
      </trkpt>
      <trkpt lat="48.18448" lon="4.34792">
        <ele>192.4</ele>
        <time>2021-08-10T16:07:28Z</time>
      </trkpt>
      <trkpt lat="48.18457" lon="4.34778">
        <ele>192.4</ele>
        <time>2021-08-10T16:07:35Z</time>
      </trkpt>
      <trkpt lat="48.18466" lon="4.34765">
        <ele>193.84</ele>
        <time>2021-08-10T16:07:41Z</time>
      </trkpt>
      <trkpt lat="48.18468" lon="4.34763">
        <ele>193.84</ele>
        <time>2021-08-10T16:07:42Z</time>
      </trkpt>
      <trkpt lat="48.18469" lon="4.34762">
        <ele>193.84</ele>
        <time>2021-08-10T16:07:43Z</time>
      </trkpt>
      <trkpt lat="48.18471" lon="4.34762">
        <ele>193.84</ele>
        <time>2021-08-10T16:07:44Z</time>
      </trkpt>
      <trkpt lat="48.18474" lon="4.34761">
        <ele>193.84</ele>
        <time>2021-08-10T16:07:45Z</time>
      </trkpt>
      <trkpt lat="48.18476" lon="4.34761">
        <ele>193.84</ele>
        <time>2021-08-10T16:07:46Z</time>
      </trkpt>
      <trkpt lat="48.18479" lon="4.34761">
        <ele>193.84</ele>
        <time>2021-08-10T16:07:47Z</time>
      </trkpt>
      <trkpt lat="48.18481" lon="4.34764">
        <ele>193.84</ele>
        <time>2021-08-10T16:07:48Z</time>
      </trkpt>
      <trkpt lat="48.18482" lon="4.34767">
        <ele>193.84</ele>
        <time>2021-08-10T16:07:49Z</time>
      </trkpt>
      <trkpt lat="48.18489" lon="4.34787">
        <ele>194.32</ele>
        <time>2021-08-10T16:07:56Z</time>
      </trkpt>
      <trkpt lat="48.18492" lon="4.34791">
        <ele>194.32</ele>
        <time>2021-08-10T16:07:58Z</time>
      </trkpt>
      <trkpt lat="48.18493" lon="4.3479">
        <ele>194.32</ele>
        <time>2021-08-10T16:07:59Z</time>
      </trkpt>
      <trkpt lat="48.18493" lon="4.34787">
        <ele>194.32</ele>
        <time>2021-08-10T16:08:00Z</time>
      </trkpt>
      <trkpt lat="48.18483" lon="4.34764">
        <ele>193.84</ele>
        <time>2021-08-10T16:08:07Z</time>
      </trkpt>
      <trkpt lat="48.18482" lon="4.34756">
        <ele>193.84</ele>
        <time>2021-08-10T16:08:09Z</time>
      </trkpt>
      <trkpt lat="48.18484" lon="4.34753">
        <ele>193.84</ele>
        <time>2021-08-10T16:08:10Z</time>
      </trkpt>
      <trkpt lat="48.18489" lon="4.34748">
        <ele>192.88</ele>
        <time>2021-08-10T16:08:12Z</time>
      </trkpt>
      <trkpt lat="48.18493" lon="4.34742">
        <ele>192.4</ele>
        <time>2021-08-10T16:08:15Z</time>
      </trkpt>
      <trkpt lat="48.18493" lon="4.34739">
        <ele>192.4</ele>
        <time>2021-08-10T16:08:16Z</time>
      </trkpt>
      <trkpt lat="48.18493" lon="4.34736">
        <ele>191.92</ele>
        <time>2021-08-10T16:08:17Z</time>
      </trkpt>
      <trkpt lat="48.18492" lon="4.34733">
        <ele>191.92</ele>
        <time>2021-08-10T16:08:18Z</time>
      </trkpt>
      <trkpt lat="48.1849" lon="4.34728">
        <ele>191.44</ele>
        <time>2021-08-10T16:08:19Z</time>
      </trkpt>
      <trkpt lat="48.18488" lon="4.34723">
        <ele>191.44</ele>
        <time>2021-08-10T16:08:20Z</time>
      </trkpt>
      <trkpt lat="48.18472" lon="4.34678">
        <ele>189.04</ele>
        <time>2021-08-10T16:08:27Z</time>
      </trkpt>
      <trkpt lat="48.18463" lon="4.34652">
        <ele>188.08</ele>
        <time>2021-08-10T16:08:30Z</time>
      </trkpt>
      <trkpt lat="48.18454" lon="4.34628">
        <ele>186.15</ele>
        <time>2021-08-10T16:08:33Z</time>
      </trkpt>
      <trkpt lat="48.18448" lon="4.34622">
        <ele>186.15</ele>
        <time>2021-08-10T16:08:34Z</time>
      </trkpt>
      <trkpt lat="48.18443" lon="4.3462">
        <ele>186.15</ele>
        <time>2021-08-10T16:08:35Z</time>
      </trkpt>
      <trkpt lat="48.18437" lon="4.34619">
        <ele>186.15</ele>
        <time>2021-08-10T16:08:36Z</time>
      </trkpt>
      <trkpt lat="48.1843" lon="4.34618">
        <ele>186.15</ele>
        <time>2021-08-10T16:08:37Z</time>
      </trkpt>
      <trkpt lat="48.18425" lon="4.34618">
        <ele>186.15</ele>
        <time>2021-08-10T16:08:38Z</time>
      </trkpt>
      <trkpt lat="48.18377" lon="4.34629">
        <ele>185.19</ele>
        <time>2021-08-10T16:08:46Z</time>
      </trkpt>
      <trkpt lat="48.18348" lon="4.3465">
        <ele>183.75</ele>
        <time>2021-08-10T16:08:51Z</time>
      </trkpt>
      <trkpt lat="48.18304" lon="4.34701">
        <ele>181.83</ele>
        <time>2021-08-10T16:08:59Z</time>
      </trkpt>
      <trkpt lat="48.18289" lon="4.34716">
        <ele>180.87</ele>
        <time>2021-08-10T16:09:02Z</time>
      </trkpt>
      <trkpt lat="48.18285" lon="4.34716">
        <ele>180.87</ele>
        <time>2021-08-10T16:09:03Z</time>
      </trkpt>
      <trkpt lat="48.18281" lon="4.34716">
        <ele>180.87</ele>
        <time>2021-08-10T16:09:04Z</time>
      </trkpt>
      <trkpt lat="48.18246" lon="4.34708">
        <ele>178.46</ele>
        <time>2021-08-10T16:09:11Z</time>
      </trkpt>
      <trkpt lat="48.18232" lon="4.34703">
        <ele>177.98</ele>
        <time>2021-08-10T16:09:14Z</time>
      </trkpt>
      <trkpt lat="48.18228" lon="4.34702">
        <ele>177.98</ele>
        <time>2021-08-10T16:09:15Z</time>
      </trkpt>
      <trkpt lat="48.18224" lon="4.34703">
        <ele>177.5</ele>
        <time>2021-08-10T16:09:16Z</time>
      </trkpt>
      <trkpt lat="48.18215" lon="4.34706">
        <ele>177.02</ele>
        <time>2021-08-10T16:09:21Z</time>
      </trkpt>
      <trkpt lat="48.18214" lon="4.34707">
        <ele>177.02</ele>
        <time>2021-08-10T16:09:28Z</time>
      </trkpt>
      <trkpt lat="48.18215" lon="4.34706">
        <ele>177.02</ele>
        <time>2021-08-10T16:09:40Z</time>
      </trkpt>
      <trkpt lat="48.18215" lon="4.34705">
        <ele>177.02</ele>
        <time>2021-08-10T16:09:54Z</time>
      </trkpt>
      <trkpt lat="48.18215" lon="4.34706">
        <ele>177.02</ele>
        <time>2021-08-10T16:10:05Z</time>
      </trkpt>
      <trkpt lat="48.18215" lon="4.34705">
        <ele>176.54</ele>
        <time>2021-08-10T16:10:21Z</time>
      </trkpt>
      <trkpt lat="48.18215" lon="4.34705">
        <ele>176.54</ele>
        <time>2021-08-10T16:10:31Z</time>
      </trkpt>
      <trkpt lat="48.18214" lon="4.34705">
        <ele>176.54</ele>
        <time>2021-08-10T16:10:40Z</time>
      </trkpt>
      <trkpt lat="48.18214" lon="4.34705">
        <ele>176.54</ele>
        <time>2021-08-10T16:10:53Z</time>
      </trkpt>
      <trkpt lat="48.18214" lon="4.34706">
        <ele>176.54</ele>
        <time>2021-08-10T16:11:02Z</time>
      </trkpt>
      <trkpt lat="48.18214" lon="4.34705">
        <ele>176.54</ele>
        <time>2021-08-10T16:11:14Z</time>
      </trkpt>
      <trkpt lat="48.18215" lon="4.34704">
        <ele>176.54</ele>
        <time>2021-08-10T16:11:24Z</time>
      </trkpt>
      <trkpt lat="48.18214" lon="4.34702">
        <ele>176.54</ele>
        <time>2021-08-10T16:11:38Z</time>
      </trkpt>
      <trkpt lat="48.18214" lon="4.34702">
        <ele>176.54</ele>
        <time>2021-08-10T16:11:48Z</time>
      </trkpt>
      <trkpt lat="48.18214" lon="4.34701">
        <ele>176.54</ele>
        <time>2021-08-10T16:12:00Z</time>
      </trkpt>
      <trkpt lat="48.18214" lon="4.34699">
        <ele>176.54</ele>
        <time>2021-08-10T16:12:12Z</time>
      </trkpt>
      <trkpt lat="48.18214" lon="4.347">
        <ele>176.54</ele>
        <time>2021-08-10T16:12:22Z</time>
      </trkpt>
      <trkpt lat="48.18214" lon="4.34701">
        <ele>176.54</ele>
        <time>2021-08-10T16:12:32Z</time>
      </trkpt>
      <trkpt lat="48.18213" lon="4.347">
        <ele>176.54</ele>
        <time>2021-08-10T16:12:44Z</time>
      </trkpt>
      <trkpt lat="48.18215" lon="4.34702">
        <ele>176.54</ele>
        <time>2021-08-10T16:12:51Z</time>
      </trkpt>
      <trkpt lat="48.18216" lon="4.34705">
        <ele>176.54</ele>
        <time>2021-08-10T16:12:59Z</time>
      </trkpt>
      <trkpt lat="48.18217" lon="4.34706">
        <ele>176.54</ele>
        <time>2021-08-10T16:13:07Z</time>
      </trkpt>
      <trkpt lat="48.18217" lon="4.34706">
        <ele>176.54</ele>
        <time>2021-08-10T16:13:10Z</time>
      </trkpt>
      <trkpt lat="48.18225" lon="4.34703">
        <ele>176.54</ele>
        <time>2021-08-10T16:13:16Z</time>
      </trkpt>
      <trkpt lat="48.18235" lon="4.34702">
        <ele>177.5</ele>
        <time>2021-08-10T16:13:22Z</time>
      </trkpt>
      <trkpt lat="48.18244" lon="4.34707">
        <ele>177.98</ele>
        <time>2021-08-10T16:13:26Z</time>
      </trkpt>
      <trkpt lat="48.18246" lon="4.34709">
        <ele>177.5</ele>
        <time>2021-08-10T16:13:27Z</time>
      </trkpt>
      <trkpt lat="48.18247" lon="4.34712">
        <ele>178.46</ele>
        <time>2021-08-10T16:13:28Z</time>
      </trkpt>
      <trkpt lat="48.18249" lon="4.34714">
        <ele>178.46</ele>
        <time>2021-08-10T16:13:29Z</time>
      </trkpt>
      <trkpt lat="48.18252" lon="4.34715">
        <ele>178.94</ele>
        <time>2021-08-10T16:13:30Z</time>
      </trkpt>
      <trkpt lat="48.18254" lon="4.34716">
        <ele>178.94</ele>
        <time>2021-08-10T16:13:31Z</time>
      </trkpt>
      <trkpt lat="48.18256" lon="4.34716">
        <ele>178.94</ele>
        <time>2021-08-10T16:13:32Z</time>
      </trkpt>
      <trkpt lat="48.18259" lon="4.34717">
        <ele>179.42</ele>
        <time>2021-08-10T16:13:33Z</time>
      </trkpt>
      <trkpt lat="48.18279" lon="4.34714">
        <ele>179.9</ele>
        <time>2021-08-10T16:13:41Z</time>
      </trkpt>
      <trkpt lat="48.18285" lon="4.34715">
        <ele>179.9</ele>
        <time>2021-08-10T16:13:44Z</time>
      </trkpt>
      <trkpt lat="48.18286" lon="4.34718">
        <ele>179.9</ele>
        <time>2021-08-10T16:13:45Z</time>
      </trkpt>
      <trkpt lat="48.18286" lon="4.34721">
        <ele>179.9</ele>
        <time>2021-08-10T16:13:46Z</time>
      </trkpt>
      <trkpt lat="48.18284" lon="4.34725">
        <ele>179.9</ele>
        <time>2021-08-10T16:13:47Z</time>
      </trkpt>
      <trkpt lat="48.18282" lon="4.34729">
        <ele>179.9</ele>
        <time>2021-08-10T16:13:48Z</time>
      </trkpt>
      <trkpt lat="48.1827" lon="4.34745">
        <ele>178.94</ele>
        <time>2021-08-10T16:13:52Z</time>
      </trkpt>
      <trkpt lat="48.18242" lon="4.34783">
        <ele>176.06</ele>
        <time>2021-08-10T16:13:59Z</time>
      </trkpt>
      <trkpt lat="48.18219" lon="4.34813">
        <ele>173.66</ele>
        <time>2021-08-10T16:14:03Z</time>
      </trkpt>
      <trkpt lat="48.18193" lon="4.34849">
        <ele>170.77</ele>
        <time>2021-08-10T16:14:07Z</time>
      </trkpt>
      <trkpt lat="48.1816" lon="4.34889">
        <ele>166.45</ele>
        <time>2021-08-10T16:14:11Z</time>
      </trkpt>
      <trkpt lat="48.1813" lon="4.34917">
        <ele>162.6</ele>
        <time>2021-08-10T16:14:14Z</time>
      </trkpt>
      <trkpt lat="48.18097" lon="4.34946">
        <ele>159.24</ele>
        <time>2021-08-10T16:14:17Z</time>
      </trkpt>
      <trkpt lat="48.18053" lon="4.34978">
        <ele>156.83</ele>
        <time>2021-08-10T16:14:21Z</time>
      </trkpt>
      <trkpt lat="48.18003" lon="4.35007">
        <ele>157.31</ele>
        <time>2021-08-10T16:14:26Z</time>
      </trkpt>
      <trkpt lat="48.17958" lon="4.35038">
        <ele>158.27</ele>
        <time>2021-08-10T16:14:32Z</time>
      </trkpt>
      <trkpt lat="48.17927" lon="4.35073">
        <ele>159.72</ele>
        <time>2021-08-10T16:14:38Z</time>
      </trkpt>
      <trkpt lat="48.17899" lon="4.35109">
        <ele>160.68</ele>
        <time>2021-08-10T16:14:46Z</time>
      </trkpt>
      <trkpt lat="48.17881" lon="4.35129">
        <ele>162.12</ele>
        <time>2021-08-10T16:14:54Z</time>
      </trkpt>
      <trkpt lat="48.17869" lon="4.35144">
        <ele>162.6</ele>
        <time>2021-08-10T16:15:01Z</time>
      </trkpt>
      <trkpt lat="48.17853" lon="4.35164">
        <ele>164.04</ele>
        <time>2021-08-10T16:15:10Z</time>
      </trkpt>
      <trkpt lat="48.17831" lon="4.3519">
        <ele>165.48</ele>
        <time>2021-08-10T16:15:21Z</time>
      </trkpt>
      <trkpt lat="48.17811" lon="4.35214">
        <ele>166.93</ele>
        <time>2021-08-10T16:15:31Z</time>
      </trkpt>
      <trkpt lat="48.1779" lon="4.35243">
        <ele>167.89</ele>
        <time>2021-08-10T16:15:42Z</time>
      </trkpt>
      <trkpt lat="48.17773" lon="4.35273">
        <ele>168.85</ele>
        <time>2021-08-10T16:15:51Z</time>
      </trkpt>
      <trkpt lat="48.17761" lon="4.35305">
        <ele>169.81</ele>
        <time>2021-08-10T16:15:59Z</time>
      </trkpt>
      <trkpt lat="48.17745" lon="4.35346">
        <ele>170.29</ele>
        <time>2021-08-10T16:16:08Z</time>
      </trkpt>
      <trkpt lat="48.17727" lon="4.35398">
        <ele>170.29</ele>
        <time>2021-08-10T16:16:18Z</time>
      </trkpt>
      <trkpt lat="48.17717" lon="4.35428">
        <ele>171.25</ele>
        <time>2021-08-10T16:16:23Z</time>
      </trkpt>
      <trkpt lat="48.177" lon="4.35474">
        <ele>171.73</ele>
        <time>2021-08-10T16:16:31Z</time>
      </trkpt>
      <trkpt lat="48.17697" lon="4.3548">
        <ele>171.73</ele>
        <time>2021-08-10T16:16:32Z</time>
      </trkpt>
      <trkpt lat="48.17696" lon="4.35485">
        <ele>171.73</ele>
        <time>2021-08-10T16:16:33Z</time>
      </trkpt>
      <trkpt lat="48.17693" lon="4.35491">
        <ele>171.73</ele>
        <time>2021-08-10T16:16:34Z</time>
      </trkpt>
      <trkpt lat="48.17691" lon="4.35497">
        <ele>171.73</ele>
        <time>2021-08-10T16:16:35Z</time>
      </trkpt>
      <trkpt lat="48.17679" lon="4.35533">
        <ele>171.73</ele>
        <time>2021-08-10T16:16:41Z</time>
      </trkpt>
      <trkpt lat="48.1765" lon="4.3561">
        <ele>172.21</ele>
        <time>2021-08-10T16:16:54Z</time>
      </trkpt>
      <trkpt lat="48.17626" lon="4.3568">
        <ele>173.17</ele>
        <time>2021-08-10T16:17:06Z</time>
      </trkpt>
      <trkpt lat="48.176" lon="4.35757">
        <ele>174.62</ele>
        <time>2021-08-10T16:17:19Z</time>
      </trkpt>
      <trkpt lat="48.17581" lon="4.35827">
        <ele>174.62</ele>
        <time>2021-08-10T16:17:30Z</time>
      </trkpt>
      <trkpt lat="48.17566" lon="4.35896">
        <ele>174.62</ele>
        <time>2021-08-10T16:17:40Z</time>
      </trkpt>
      <trkpt lat="48.17553" lon="4.35976">
        <ele>174.62</ele>
        <time>2021-08-10T16:17:51Z</time>
      </trkpt>
      <trkpt lat="48.17541" lon="4.36047">
        <ele>175.1</ele>
        <time>2021-08-10T16:18:01Z</time>
      </trkpt>
      <trkpt lat="48.17526" lon="4.36125">
        <ele>175.1</ele>
        <time>2021-08-10T16:18:12Z</time>
      </trkpt>
      <trkpt lat="48.17518" lon="4.36181">
        <ele>175.58</ele>
        <time>2021-08-10T16:18:20Z</time>
      </trkpt>
      <trkpt lat="48.17508" lon="4.36238">
        <ele>176.06</ele>
        <time>2021-08-10T16:18:28Z</time>
      </trkpt>
      <trkpt lat="48.17502" lon="4.36267">
        <ele>176.06</ele>
        <time>2021-08-10T16:18:32Z</time>
      </trkpt>
      <trkpt lat="48.175" lon="4.36282">
        <ele>176.06</ele>
        <time>2021-08-10T16:18:34Z</time>
      </trkpt>
      <trkpt lat="48.17499" lon="4.36289">
        <ele>176.06</ele>
        <time>2021-08-10T16:18:35Z</time>
      </trkpt>
      <trkpt lat="48.17497" lon="4.36296">
        <ele>176.06</ele>
        <time>2021-08-10T16:18:36Z</time>
      </trkpt>
      <trkpt lat="48.17492" lon="4.36326">
        <ele>174.62</ele>
        <time>2021-08-10T16:18:40Z</time>
      </trkpt>
      <trkpt lat="48.17489" lon="4.36343">
        <ele>174.14</ele>
        <time>2021-08-10T16:18:42Z</time>
      </trkpt>
      <trkpt lat="48.17487" lon="4.36351">
        <ele>174.14</ele>
        <time>2021-08-10T16:18:43Z</time>
      </trkpt>
      <trkpt lat="48.17462" lon="4.36417">
        <ele>172.69</ele>
        <time>2021-08-10T16:18:51Z</time>
      </trkpt>
      <trkpt lat="48.17434" lon="4.36466">
        <ele>171.73</ele>
        <time>2021-08-10T16:18:58Z</time>
      </trkpt>
      <trkpt lat="48.17424" lon="4.36483">
        <ele>171.73</ele>
        <time>2021-08-10T16:19:01Z</time>
      </trkpt>
      <trkpt lat="48.1741" lon="4.36501">
        <ele>171.73</ele>
        <time>2021-08-10T16:19:04Z</time>
      </trkpt>
      <trkpt lat="48.17402" lon="4.36511">
        <ele>173.17</ele>
        <time>2021-08-10T16:19:06Z</time>
      </trkpt>
      <trkpt lat="48.17389" lon="4.36527">
        <ele>173.17</ele>
        <time>2021-08-10T16:19:09Z</time>
      </trkpt>
      <trkpt lat="48.17377" lon="4.36539">
        <ele>173.17</ele>
        <time>2021-08-10T16:19:12Z</time>
      </trkpt>
      <trkpt lat="48.17336" lon="4.36565">
        <ele>174.62</ele>
        <time>2021-08-10T16:19:22Z</time>
      </trkpt>
      <trkpt lat="48.17312" lon="4.36575">
        <ele>176.06</ele>
        <time>2021-08-10T16:19:30Z</time>
      </trkpt>
      <trkpt lat="48.1729" lon="4.3658">
        <ele>177.02</ele>
        <time>2021-08-10T16:19:38Z</time>
      </trkpt>
      <trkpt lat="48.17266" lon="4.36586">
        <ele>178.94</ele>
        <time>2021-08-10T16:19:47Z</time>
      </trkpt>
      <trkpt lat="48.17238" lon="4.36593">
        <ele>180.38</ele>
        <time>2021-08-10T16:19:58Z</time>
      </trkpt>
      <trkpt lat="48.17205" lon="4.36601">
        <ele>181.83</ele>
        <time>2021-08-10T16:20:11Z</time>
      </trkpt>
      <trkpt lat="48.17183" lon="4.36608">
        <ele>183.27</ele>
        <time>2021-08-10T16:20:20Z</time>
      </trkpt>
      <trkpt lat="48.17158" lon="4.36614">
        <ele>184.71</ele>
        <time>2021-08-10T16:20:29Z</time>
      </trkpt>
      <trkpt lat="48.17136" lon="4.36622">
        <ele>185.67</ele>
        <time>2021-08-10T16:20:37Z</time>
      </trkpt>
      <trkpt lat="48.1711" lon="4.36633">
        <ele>187.11</ele>
        <time>2021-08-10T16:20:46Z</time>
      </trkpt>
      <trkpt lat="48.17078" lon="4.36656">
        <ele>189.04</ele>
        <time>2021-08-10T16:20:58Z</time>
      </trkpt>
      <trkpt lat="48.17042" lon="4.36689">
        <ele>191.44</ele>
        <time>2021-08-10T16:21:12Z</time>
      </trkpt>
      <trkpt lat="48.17018" lon="4.36718">
        <ele>192.88</ele>
        <time>2021-08-10T16:21:22Z</time>
      </trkpt>
      <trkpt lat="48.16994" lon="4.3675">
        <ele>193.84</ele>
        <time>2021-08-10T16:21:32Z</time>
      </trkpt>
      <trkpt lat="48.16967" lon="4.36783">
        <ele>194.8</ele>
        <time>2021-08-10T16:21:42Z</time>
      </trkpt>
      <trkpt lat="48.16932" lon="4.36825">
        <ele>195.77</ele>
        <time>2021-08-10T16:21:54Z</time>
      </trkpt>
      <trkpt lat="48.16901" lon="4.36858">
        <ele>196.25</ele>
        <time>2021-08-10T16:22:04Z</time>
      </trkpt>
      <trkpt lat="48.16855" lon="4.36898">
        <ele>197.69</ele>
        <time>2021-08-10T16:22:18Z</time>
      </trkpt>
      <trkpt lat="48.16824" lon="4.36925">
        <ele>199.13</ele>
        <time>2021-08-10T16:22:28Z</time>
      </trkpt>
      <trkpt lat="48.16799" lon="4.36947">
        <ele>200.09</ele>
        <time>2021-08-10T16:22:36Z</time>
      </trkpt>
      <trkpt lat="48.16785" lon="4.36962">
        <ele>201.05</ele>
        <time>2021-08-10T16:22:42Z</time>
      </trkpt>
      <trkpt lat="48.16759" lon="4.36988">
        <ele>202.98</ele>
        <time>2021-08-10T16:22:53Z</time>
      </trkpt>
      <trkpt lat="48.16734" lon="4.37016">
        <ele>205.38</ele>
        <time>2021-08-10T16:23:05Z</time>
      </trkpt>
      <trkpt lat="48.16715" lon="4.37037">
        <ele>206.82</ele>
        <time>2021-08-10T16:23:14Z</time>
      </trkpt>
      <trkpt lat="48.16693" lon="4.37062">
        <ele>207.78</ele>
        <time>2021-08-10T16:23:25Z</time>
      </trkpt>
      <trkpt lat="48.16674" lon="4.37082">
        <ele>209.22</ele>
        <time>2021-08-10T16:23:34Z</time>
      </trkpt>
      <trkpt lat="48.16657" lon="4.37103">
        <ele>210.67</ele>
        <time>2021-08-10T16:23:43Z</time>
      </trkpt>
      <trkpt lat="48.1664" lon="4.37121">
        <ele>212.11</ele>
        <time>2021-08-10T16:23:52Z</time>
      </trkpt>
      <trkpt lat="48.16629" lon="4.37144">
        <ele>213.07</ele>
        <time>2021-08-10T16:24:00Z</time>
      </trkpt>
      <trkpt lat="48.16623" lon="4.37166">
        <ele>213.55</ele>
        <time>2021-08-10T16:24:07Z</time>
      </trkpt>
      <trkpt lat="48.16616" lon="4.37194">
        <ele>215.47</ele>
        <time>2021-08-10T16:24:15Z</time>
      </trkpt>
      <trkpt lat="48.1661" lon="4.37225">
        <ele>215.47</ele>
        <time>2021-08-10T16:24:22Z</time>
      </trkpt>
      <trkpt lat="48.16595" lon="4.37291">
        <ele>216.91</ele>
        <time>2021-08-10T16:24:34Z</time>
      </trkpt>
      <trkpt lat="48.16583" lon="4.37325">
        <ele>217.88</ele>
        <time>2021-08-10T16:24:41Z</time>
      </trkpt>
      <trkpt lat="48.1657" lon="4.37357">
        <ele>219.8</ele>
        <time>2021-08-10T16:24:49Z</time>
      </trkpt>
      <trkpt lat="48.16552" lon="4.37385">
        <ele>221.24</ele>
        <time>2021-08-10T16:24:58Z</time>
      </trkpt>
      <trkpt lat="48.16539" lon="4.37401">
        <ele>222.2</ele>
        <time>2021-08-10T16:25:06Z</time>
      </trkpt>
      <trkpt lat="48.16538" lon="4.37402">
        <ele>222.68</ele>
        <time>2021-08-10T16:25:11Z</time>
      </trkpt>
      <trkpt lat="48.16537" lon="4.37405">
        <ele>222.68</ele>
        <time>2021-08-10T16:25:28Z</time>
      </trkpt>
      <trkpt lat="48.16536" lon="4.37406">
        <ele>222.68</ele>
        <time>2021-08-10T16:25:29Z</time>
      </trkpt>
      <trkpt lat="48.16535" lon="4.37407">
        <ele>223.16</ele>
        <time>2021-08-10T16:25:30Z</time>
      </trkpt>
      <trkpt lat="48.16534" lon="4.37407">
        <ele>223.16</ele>
        <time>2021-08-10T16:25:31Z</time>
      </trkpt>
      <trkpt lat="48.16532" lon="4.37408">
        <ele>223.16</ele>
        <time>2021-08-10T16:25:32Z</time>
      </trkpt>
      <trkpt lat="48.1653" lon="4.37409">
        <ele>223.16</ele>
        <time>2021-08-10T16:25:33Z</time>
      </trkpt>
      <trkpt lat="48.16518" lon="4.37417">
        <ele>224.12</ele>
        <time>2021-08-10T16:25:41Z</time>
      </trkpt>
      <trkpt lat="48.16516" lon="4.37418">
        <ele>224.12</ele>
        <time>2021-08-10T16:25:42Z</time>
      </trkpt>
      <trkpt lat="48.16515" lon="4.37419">
        <ele>224.12</ele>
        <time>2021-08-10T16:25:43Z</time>
      </trkpt>
      <trkpt lat="48.16513" lon="4.3742">
        <ele>224.12</ele>
        <time>2021-08-10T16:25:44Z</time>
      </trkpt>
      <trkpt lat="48.16511" lon="4.37422">
        <ele>224.12</ele>
        <time>2021-08-10T16:25:45Z</time>
      </trkpt>
      <trkpt lat="48.16509" lon="4.37423">
        <ele>224.61</ele>
        <time>2021-08-10T16:25:46Z</time>
      </trkpt>
      <trkpt lat="48.16508" lon="4.37424">
        <ele>224.61</ele>
        <time>2021-08-10T16:25:47Z</time>
      </trkpt>
      <trkpt lat="48.16506" lon="4.37424">
        <ele>224.61</ele>
        <time>2021-08-10T16:25:48Z</time>
      </trkpt>
      <trkpt lat="48.16504" lon="4.37425">
        <ele>224.61</ele>
        <time>2021-08-10T16:25:49Z</time>
      </trkpt>
      <trkpt lat="48.16503" lon="4.37426">
        <ele>224.61</ele>
        <time>2021-08-10T16:25:50Z</time>
      </trkpt>
      <trkpt lat="48.16501" lon="4.37428">
        <ele>225.09</ele>
        <time>2021-08-10T16:25:51Z</time>
      </trkpt>
      <trkpt lat="48.165" lon="4.37428">
        <ele>225.09</ele>
        <time>2021-08-10T16:25:52Z</time>
      </trkpt>
      <trkpt lat="48.16498" lon="4.37428">
        <ele>225.09</ele>
        <time>2021-08-10T16:25:53Z</time>
      </trkpt>
      <trkpt lat="48.16496" lon="4.37427">
        <ele>225.09</ele>
        <time>2021-08-10T16:25:54Z</time>
      </trkpt>
      <trkpt lat="48.16495" lon="4.37428">
        <ele>225.09</ele>
        <time>2021-08-10T16:25:55Z</time>
      </trkpt>
      <trkpt lat="48.16492" lon="4.37429">
        <ele>225.09</ele>
        <time>2021-08-10T16:25:56Z</time>
      </trkpt>
      <trkpt lat="48.1649" lon="4.3743">
        <ele>225.57</ele>
        <time>2021-08-10T16:25:57Z</time>
      </trkpt>
      <trkpt lat="48.16488" lon="4.37431">
        <ele>225.57</ele>
        <time>2021-08-10T16:25:58Z</time>
      </trkpt>
      <trkpt lat="48.16486" lon="4.37432">
        <ele>225.57</ele>
        <time>2021-08-10T16:25:59Z</time>
      </trkpt>
      <trkpt lat="48.16484" lon="4.37433">
        <ele>226.05</ele>
        <time>2021-08-10T16:26:00Z</time>
      </trkpt>
      <trkpt lat="48.16482" lon="4.37434">
        <ele>226.05</ele>
        <time>2021-08-10T16:26:01Z</time>
      </trkpt>
      <trkpt lat="48.1648" lon="4.37434">
        <ele>226.05</ele>
        <time>2021-08-10T16:26:02Z</time>
      </trkpt>
      <trkpt lat="48.16459" lon="4.37437">
        <ele>227.97</ele>
        <time>2021-08-10T16:26:11Z</time>
      </trkpt>
      <trkpt lat="48.16457" lon="4.37435">
        <ele>227.97</ele>
        <time>2021-08-10T16:26:12Z</time>
      </trkpt>
      <trkpt lat="48.16455" lon="4.37432">
        <ele>227.97</ele>
        <time>2021-08-10T16:26:13Z</time>
      </trkpt>
      <trkpt lat="48.16454" lon="4.3743">
        <ele>227.97</ele>
        <time>2021-08-10T16:26:14Z</time>
      </trkpt>
      <trkpt lat="48.16452" lon="4.37426">
        <ele>227.97</ele>
        <time>2021-08-10T16:26:15Z</time>
      </trkpt>
      <trkpt lat="48.16452" lon="4.37423">
        <ele>227.97</ele>
        <time>2021-08-10T16:26:16Z</time>
      </trkpt>
      <trkpt lat="48.16451" lon="4.37419">
        <ele>227.97</ele>
        <time>2021-08-10T16:26:17Z</time>
      </trkpt>
      <trkpt lat="48.16449" lon="4.3739">
        <ele>228.93</ele>
        <time>2021-08-10T16:26:25Z</time>
      </trkpt>
      <trkpt lat="48.16448" lon="4.37346">
        <ele>229.41</ele>
        <time>2021-08-10T16:26:35Z</time>
      </trkpt>
      <trkpt lat="48.16444" lon="4.37293">
        <ele>229.41</ele>
        <time>2021-08-10T16:26:45Z</time>
      </trkpt>
      <trkpt lat="48.16438" lon="4.37253">
        <ele>229.41</ele>
        <time>2021-08-10T16:26:53Z</time>
      </trkpt>
      <trkpt lat="48.16424" lon="4.372">
        <ele>229.89</ele>
        <time>2021-08-10T16:27:03Z</time>
      </trkpt>
      <trkpt lat="48.16404" lon="4.37165">
        <ele>229.89</ele>
        <time>2021-08-10T16:27:11Z</time>
      </trkpt>
      <trkpt lat="48.164" lon="4.37164">
        <ele>228.45</ele>
        <time>2021-08-10T16:27:12Z</time>
      </trkpt>
      <trkpt lat="48.16396" lon="4.37164">
        <ele>228.45</ele>
        <time>2021-08-10T16:27:13Z</time>
      </trkpt>
      <trkpt lat="48.16367" lon="4.37168">
        <ele>229.89</ele>
        <time>2021-08-10T16:27:20Z</time>
      </trkpt>
      <trkpt lat="48.16354" lon="4.3717">
        <ele>229.89</ele>
        <time>2021-08-10T16:27:23Z</time>
      </trkpt>
      <trkpt lat="48.16317" lon="4.37178">
        <ele>229.89</ele>
        <time>2021-08-10T16:27:30Z</time>
      </trkpt>
      <trkpt lat="48.16304" lon="4.3718">
        <ele>228.45</ele>
        <time>2021-08-10T16:27:32Z</time>
      </trkpt>
      <trkpt lat="48.16258" lon="4.37183">
        <ele>225.57</ele>
        <time>2021-08-10T16:27:38Z</time>
      </trkpt>
      <trkpt lat="48.16222" lon="4.37186">
        <ele>222.68</ele>
        <time>2021-08-10T16:27:42Z</time>
      </trkpt>
      <trkpt lat="48.16181" lon="4.37188">
        <ele>219.32</ele>
        <time>2021-08-10T16:27:46Z</time>
      </trkpt>
      <trkpt lat="48.16126" lon="4.37191">
        <ele>215.95</ele>
        <time>2021-08-10T16:27:51Z</time>
      </trkpt>
      <trkpt lat="48.16081" lon="4.37188">
        <ele>212.59</ele>
        <time>2021-08-10T16:27:55Z</time>
      </trkpt>
      <trkpt lat="48.16033" lon="4.37179">
        <ele>209.22</ele>
        <time>2021-08-10T16:27:59Z</time>
      </trkpt>
      <trkpt lat="48.15983" lon="4.37164">
        <ele>205.86</ele>
        <time>2021-08-10T16:28:03Z</time>
      </trkpt>
      <trkpt lat="48.15959" lon="4.37153">
        <ele>204.42</ele>
        <time>2021-08-10T16:28:05Z</time>
      </trkpt>
      <trkpt lat="48.15948" lon="4.37146">
        <ele>203.94</ele>
        <time>2021-08-10T16:28:06Z</time>
      </trkpt>
      <trkpt lat="48.15938" lon="4.37137">
        <ele>202.98</ele>
        <time>2021-08-10T16:28:07Z</time>
      </trkpt>
      <trkpt lat="48.15899" lon="4.37099">
        <ele>200.57</ele>
        <time>2021-08-10T16:28:11Z</time>
      </trkpt>
      <trkpt lat="48.15888" lon="4.37092">
        <ele>199.61</ele>
        <time>2021-08-10T16:28:12Z</time>
      </trkpt>
      <trkpt lat="48.15878" lon="4.37086">
        <ele>199.61</ele>
        <time>2021-08-10T16:28:13Z</time>
      </trkpt>
      <trkpt lat="48.15866" lon="4.37084">
        <ele>198.65</ele>
        <time>2021-08-10T16:28:14Z</time>
      </trkpt>
      <trkpt lat="48.15855" lon="4.37085">
        <ele>198.17</ele>
        <time>2021-08-10T16:28:15Z</time>
      </trkpt>
      <trkpt lat="48.15844" lon="4.37088">
        <ele>197.69</ele>
        <time>2021-08-10T16:28:16Z</time>
      </trkpt>
      <trkpt lat="48.15833" lon="4.37093">
        <ele>197.21</ele>
        <time>2021-08-10T16:28:17Z</time>
      </trkpt>
      <trkpt lat="48.15789" lon="4.37113">
        <ele>195.28</ele>
        <time>2021-08-10T16:28:21Z</time>
      </trkpt>
      <trkpt lat="48.15718" lon="4.37143">
        <ele>191.92</ele>
        <time>2021-08-10T16:28:28Z</time>
      </trkpt>
      <trkpt lat="48.1568" lon="4.37169">
        <ele>189.52</ele>
        <time>2021-08-10T16:28:32Z</time>
      </trkpt>
      <trkpt lat="48.15629" lon="4.37202">
        <ele>186.15</ele>
        <time>2021-08-10T16:28:37Z</time>
      </trkpt>
      <trkpt lat="48.15567" lon="4.37247">
        <ele>183.75</ele>
        <time>2021-08-10T16:28:43Z</time>
      </trkpt>
      <trkpt lat="48.15497" lon="4.37299">
        <ele>181.83</ele>
        <time>2021-08-10T16:28:50Z</time>
      </trkpt>
      <trkpt lat="48.15487" lon="4.37302">
        <ele>181.83</ele>
        <time>2021-08-10T16:28:51Z</time>
      </trkpt>
      <trkpt lat="48.15477" lon="4.37304">
        <ele>181.83</ele>
        <time>2021-08-10T16:28:52Z</time>
      </trkpt>
      <trkpt lat="48.15433" lon="4.37303">
        <ele>183.27</ele>
        <time>2021-08-10T16:28:57Z</time>
      </trkpt>
      <trkpt lat="48.15404" lon="4.373">
        <ele>185.67</ele>
        <time>2021-08-10T16:29:02Z</time>
      </trkpt>
      <trkpt lat="48.1538" lon="4.37298">
        <ele>187.59</ele>
        <time>2021-08-10T16:29:09Z</time>
      </trkpt>
      <trkpt lat="48.15354" lon="4.37296">
        <ele>188.56</ele>
        <time>2021-08-10T16:29:19Z</time>
      </trkpt>
      <trkpt lat="48.15331" lon="4.37294">
        <ele>190.48</ele>
        <time>2021-08-10T16:29:29Z</time>
      </trkpt>
      <trkpt lat="48.15304" lon="4.37291">
        <ele>191.92</ele>
        <time>2021-08-10T16:29:40Z</time>
      </trkpt>
      <trkpt lat="48.15278" lon="4.37289">
        <ele>193.36</ele>
        <time>2021-08-10T16:29:51Z</time>
      </trkpt>
      <trkpt lat="48.15254" lon="4.37287">
        <ele>194.8</ele>
        <time>2021-08-10T16:30:01Z</time>
      </trkpt>
      <trkpt lat="48.15225" lon="4.37284">
        <ele>196.73</ele>
        <time>2021-08-10T16:30:13Z</time>
      </trkpt>
      <trkpt lat="48.15198" lon="4.37282">
        <ele>197.69</ele>
        <time>2021-08-10T16:30:24Z</time>
      </trkpt>
      <trkpt lat="48.15171" lon="4.37279">
        <ele>199.13</ele>
        <time>2021-08-10T16:30:34Z</time>
      </trkpt>
      <trkpt lat="48.15144" lon="4.37277">
        <ele>201.05</ele>
        <time>2021-08-10T16:30:44Z</time>
      </trkpt>
      <trkpt lat="48.15125" lon="4.37275">
        <ele>202.01</ele>
        <time>2021-08-10T16:30:51Z</time>
      </trkpt>
      <trkpt lat="48.15098" lon="4.37273">
        <ele>202.98</ele>
        <time>2021-08-10T16:31:01Z</time>
      </trkpt>
      <trkpt lat="48.1506" lon="4.37269">
        <ele>203.46</ele>
        <time>2021-08-10T16:31:14Z</time>
      </trkpt>
      <trkpt lat="48.15029" lon="4.37263">
        <ele>204.9</ele>
        <time>2021-08-10T16:31:24Z</time>
      </trkpt>
      <trkpt lat="48.14996" lon="4.37257">
        <ele>206.34</ele>
        <time>2021-08-10T16:31:34Z</time>
      </trkpt>
      <trkpt lat="48.14966" lon="4.37251">
        <ele>207.3</ele>
        <time>2021-08-10T16:31:43Z</time>
      </trkpt>
      <trkpt lat="48.14925" lon="4.37245">
        <ele>207.78</ele>
        <time>2021-08-10T16:31:53Z</time>
      </trkpt>
      <trkpt lat="48.14874" lon="4.37237">
        <ele>208.26</ele>
        <time>2021-08-10T16:32:05Z</time>
      </trkpt>
      <trkpt lat="48.14833" lon="4.37227">
        <ele>208.74</ele>
        <time>2021-08-10T16:32:14Z</time>
      </trkpt>
      <trkpt lat="48.1479" lon="4.37207">
        <ele>210.19</ele>
        <time>2021-08-10T16:32:24Z</time>
      </trkpt>
      <trkpt lat="48.14782" lon="4.37202">
        <ele>210.19</ele>
        <time>2021-08-10T16:32:26Z</time>
      </trkpt>
      <trkpt lat="48.14749" lon="4.37167">
        <ele>210.19</ele>
        <time>2021-08-10T16:32:35Z</time>
      </trkpt>
      <trkpt lat="48.14708" lon="4.37108">
        <ele>211.63</ele>
        <time>2021-08-10T16:32:47Z</time>
      </trkpt>
      <trkpt lat="48.14669" lon="4.3705">
        <ele>212.11</ele>
        <time>2021-08-10T16:32:58Z</time>
      </trkpt>
      <trkpt lat="48.14628" lon="4.36993">
        <ele>212.59</ele>
        <time>2021-08-10T16:33:09Z</time>
      </trkpt>
      <trkpt lat="48.14624" lon="4.36988">
        <ele>212.59</ele>
        <time>2021-08-10T16:33:10Z</time>
      </trkpt>
      <trkpt lat="48.14587" lon="4.36939">
        <ele>213.55</ele>
        <time>2021-08-10T16:33:20Z</time>
      </trkpt>
      <trkpt lat="48.14552" lon="4.36896">
        <ele>214.03</ele>
        <time>2021-08-10T16:33:29Z</time>
      </trkpt>
      <trkpt lat="48.14548" lon="4.36892">
        <ele>214.03</ele>
        <time>2021-08-10T16:33:30Z</time>
      </trkpt>
      <trkpt lat="48.14496" lon="4.36856">
        <ele>214.03</ele>
        <time>2021-08-10T16:33:41Z</time>
      </trkpt>
      <trkpt lat="48.14445" lon="4.3683">
        <ele>214.51</ele>
        <time>2021-08-10T16:33:51Z</time>
      </trkpt>
      <trkpt lat="48.14386" lon="4.36799">
        <ele>214.51</ele>
        <time>2021-08-10T16:34:02Z</time>
      </trkpt>
      <trkpt lat="48.14376" lon="4.36794">
        <ele>213.55</ele>
        <time>2021-08-10T16:34:04Z</time>
      </trkpt>
      <trkpt lat="48.14318" lon="4.36757">
        <ele>213.07</ele>
        <time>2021-08-10T16:34:15Z</time>
      </trkpt>
      <trkpt lat="48.14303" lon="4.36745">
        <ele>213.07</ele>
        <time>2021-08-10T16:34:18Z</time>
      </trkpt>
      <trkpt lat="48.14299" lon="4.36742">
        <ele>213.07</ele>
        <time>2021-08-10T16:34:19Z</time>
      </trkpt>
      <trkpt lat="48.14255" lon="4.36702">
        <ele>212.59</ele>
        <time>2021-08-10T16:34:28Z</time>
      </trkpt>
      <trkpt lat="48.14198" lon="4.36653">
        <ele>212.11</ele>
        <time>2021-08-10T16:34:39Z</time>
      </trkpt>
      <trkpt lat="48.14154" lon="4.36608">
        <ele>211.63</ele>
        <time>2021-08-10T16:34:48Z</time>
      </trkpt>
      <trkpt lat="48.14101" lon="4.36552">
        <ele>211.63</ele>
        <time>2021-08-10T16:35:00Z</time>
      </trkpt>
      <trkpt lat="48.14076" lon="4.36527">
        <ele>213.07</ele>
        <time>2021-08-10T16:35:06Z</time>
      </trkpt>
      <trkpt lat="48.14038" lon="4.3649">
        <ele>213.55</ele>
        <time>2021-08-10T16:35:15Z</time>
      </trkpt>
      <trkpt lat="48.1403" lon="4.3648">
        <ele>213.55</ele>
        <time>2021-08-10T16:35:17Z</time>
      </trkpt>
      <trkpt lat="48.13992" lon="4.36434">
        <ele>213.55</ele>
        <time>2021-08-10T16:35:27Z</time>
      </trkpt>
      <trkpt lat="48.13975" lon="4.36407">
        <ele>214.03</ele>
        <time>2021-08-10T16:35:32Z</time>
      </trkpt>
      <trkpt lat="48.13938" lon="4.36337">
        <ele>213.55</ele>
        <time>2021-08-10T16:35:44Z</time>
      </trkpt>
      <trkpt lat="48.13932" lon="4.36326">
        <ele>213.55</ele>
        <time>2021-08-10T16:35:46Z</time>
      </trkpt>
      <trkpt lat="48.13907" lon="4.36277">
        <ele>212.59</ele>
        <time>2021-08-10T16:35:55Z</time>
      </trkpt>
      <trkpt lat="48.13876" lon="4.36217">
        <ele>211.15</ele>
        <time>2021-08-10T16:36:04Z</time>
      </trkpt>
      <trkpt lat="48.13843" lon="4.36157">
        <ele>209.7</ele>
        <time>2021-08-10T16:36:12Z</time>
      </trkpt>
      <trkpt lat="48.13805" lon="4.36097">
        <ele>207.3</ele>
        <time>2021-08-10T16:36:20Z</time>
      </trkpt>
      <trkpt lat="48.13753" lon="4.36021">
        <ele>205.38</ele>
        <time>2021-08-10T16:36:30Z</time>
      </trkpt>
      <trkpt lat="48.137" lon="4.35951">
        <ele>202.01</ele>
        <time>2021-08-10T16:36:39Z</time>
      </trkpt>
      <trkpt lat="48.13688" lon="4.35936">
        <ele>201.53</ele>
        <time>2021-08-10T16:36:41Z</time>
      </trkpt>
      <trkpt lat="48.13652" lon="4.35895">
        <ele>197.69</ele>
        <time>2021-08-10T16:36:46Z</time>
      </trkpt>
      <trkpt lat="48.13626" lon="4.3587">
        <ele>194.8</ele>
        <time>2021-08-10T16:36:49Z</time>
      </trkpt>
      <trkpt lat="48.13589" lon="4.35835">
        <ele>191.44</ele>
        <time>2021-08-10T16:36:53Z</time>
      </trkpt>
      <trkpt lat="48.13558" lon="4.35805">
        <ele>188.08</ele>
        <time>2021-08-10T16:36:56Z</time>
      </trkpt>
      <trkpt lat="48.13527" lon="4.35776">
        <ele>184.71</ele>
        <time>2021-08-10T16:36:59Z</time>
      </trkpt>
      <trkpt lat="48.13492" lon="4.35751">
        <ele>181.83</ele>
        <time>2021-08-10T16:37:02Z</time>
      </trkpt>
      <trkpt lat="48.13455" lon="4.35729">
        <ele>177.98</ele>
        <time>2021-08-10T16:37:05Z</time>
      </trkpt>
      <trkpt lat="48.13437" lon="4.35713">
        <ele>177.5</ele>
        <time>2021-08-10T16:37:07Z</time>
      </trkpt>
      <trkpt lat="48.1343" lon="4.35704">
        <ele>176.54</ele>
        <time>2021-08-10T16:37:08Z</time>
      </trkpt>
      <trkpt lat="48.13425" lon="4.35693">
        <ele>176.06</ele>
        <time>2021-08-10T16:37:09Z</time>
      </trkpt>
      <trkpt lat="48.1342" lon="4.35681">
        <ele>175.58</ele>
        <time>2021-08-10T16:37:10Z</time>
      </trkpt>
      <trkpt lat="48.13418" lon="4.35667">
        <ele>174.62</ele>
        <time>2021-08-10T16:37:11Z</time>
      </trkpt>
      <trkpt lat="48.13416" lon="4.35652">
        <ele>173.66</ele>
        <time>2021-08-10T16:37:12Z</time>
      </trkpt>
      <trkpt lat="48.13409" lon="4.3559">
        <ele>170.29</ele>
        <time>2021-08-10T16:37:16Z</time>
      </trkpt>
      <trkpt lat="48.13396" lon="4.35528">
        <ele>166.93</ele>
        <time>2021-08-10T16:37:20Z</time>
      </trkpt>
      <trkpt lat="48.13374" lon="4.35466">
        <ele>164.04</ele>
        <time>2021-08-10T16:37:25Z</time>
      </trkpt>
      <trkpt lat="48.13368" lon="4.35458">
        <ele>163.08</ele>
        <time>2021-08-10T16:37:26Z</time>
      </trkpt>
      <trkpt lat="48.13362" lon="4.35453">
        <ele>163.08</ele>
        <time>2021-08-10T16:37:27Z</time>
      </trkpt>
      <trkpt lat="48.13357" lon="4.3545">
        <ele>162.12</ele>
        <time>2021-08-10T16:37:28Z</time>
      </trkpt>
      <trkpt lat="48.1335" lon="4.3545">
        <ele>162.12</ele>
        <time>2021-08-10T16:37:29Z</time>
      </trkpt>
      <trkpt lat="48.13344" lon="4.35452">
        <ele>161.16</ele>
        <time>2021-08-10T16:37:30Z</time>
      </trkpt>
      <trkpt lat="48.1334" lon="4.35454">
        <ele>161.16</ele>
        <time>2021-08-10T16:37:31Z</time>
      </trkpt>
      <trkpt lat="48.13336" lon="4.35455">
        <ele>161.16</ele>
        <time>2021-08-10T16:37:32Z</time>
      </trkpt>
      <trkpt lat="48.13335" lon="4.35457">
        <ele>160.68</ele>
        <time>2021-08-10T16:37:36Z</time>
      </trkpt>
      <trkpt lat="48.13333" lon="4.35459">
        <ele>161.16</ele>
        <time>2021-08-10T16:37:39Z</time>
      </trkpt>
      <trkpt lat="48.13331" lon="4.35461">
        <ele>161.16</ele>
        <time>2021-08-10T16:37:40Z</time>
      </trkpt>
      <trkpt lat="48.1333" lon="4.35464">
        <ele>161.16</ele>
        <time>2021-08-10T16:37:41Z</time>
      </trkpt>
      <trkpt lat="48.13329" lon="4.35468">
        <ele>161.16</ele>
        <time>2021-08-10T16:37:42Z</time>
      </trkpt>
      <trkpt lat="48.13328" lon="4.35472">
        <ele>161.16</ele>
        <time>2021-08-10T16:37:43Z</time>
      </trkpt>
      <trkpt lat="48.13328" lon="4.35477">
        <ele>161.16</ele>
        <time>2021-08-10T16:37:44Z</time>
      </trkpt>
      <trkpt lat="48.13319" lon="4.35524">
        <ele>160.68</ele>
        <time>2021-08-10T16:37:51Z</time>
      </trkpt>
      <trkpt lat="48.13307" lon="4.35602">
        <ele>160.68</ele>
        <time>2021-08-10T16:38:01Z</time>
      </trkpt>
      <trkpt lat="48.133" lon="4.35652">
        <ele>160.68</ele>
        <time>2021-08-10T16:38:07Z</time>
      </trkpt>
      <trkpt lat="48.13283" lon="4.35741">
        <ele>160.2</ele>
        <time>2021-08-10T16:38:18Z</time>
      </trkpt>
      <trkpt lat="48.13262" lon="4.35818">
        <ele>158.75</ele>
        <time>2021-08-10T16:38:27Z</time>
      </trkpt>
      <trkpt lat="48.13254" lon="4.35854">
        <ele>158.75</ele>
        <time>2021-08-10T16:38:31Z</time>
      </trkpt>
      <trkpt lat="48.13252" lon="4.35862">
        <ele>158.75</ele>
        <time>2021-08-10T16:38:32Z</time>
      </trkpt>
      <trkpt lat="48.1325" lon="4.3587">
        <ele>158.27</ele>
        <time>2021-08-10T16:38:33Z</time>
      </trkpt>
      <trkpt lat="48.13246" lon="4.35875">
        <ele>158.27</ele>
        <time>2021-08-10T16:38:34Z</time>
      </trkpt>
      <trkpt lat="48.13241" lon="4.35877">
        <ele>157.79</ele>
        <time>2021-08-10T16:38:35Z</time>
      </trkpt>
      <trkpt lat="48.13236" lon="4.35875">
        <ele>157.79</ele>
        <time>2021-08-10T16:38:36Z</time>
      </trkpt>
      <trkpt lat="48.13231" lon="4.35873">
        <ele>157.79</ele>
        <time>2021-08-10T16:38:37Z</time>
      </trkpt>
      <trkpt lat="48.13189" lon="4.35853">
        <ele>156.83</ele>
        <time>2021-08-10T16:38:45Z</time>
      </trkpt>
      <trkpt lat="48.13144" lon="4.35829">
        <ele>156.83</ele>
        <time>2021-08-10T16:38:54Z</time>
      </trkpt>
      <trkpt lat="48.1314" lon="4.35827">
        <ele>156.83</ele>
        <time>2021-08-10T16:38:55Z</time>
      </trkpt>
      <trkpt lat="48.13109" lon="4.35811">
        <ele>156.83</ele>
        <time>2021-08-10T16:39:02Z</time>
      </trkpt>
      <trkpt lat="48.13068" lon="4.35784">
        <ele>156.35</ele>
        <time>2021-08-10T16:39:11Z</time>
      </trkpt>
      <trkpt lat="48.13063" lon="4.35781">
        <ele>156.35</ele>
        <time>2021-08-10T16:39:12Z</time>
      </trkpt>
      <trkpt lat="48.13059" lon="4.3578">
        <ele>156.35</ele>
        <time>2021-08-10T16:39:13Z</time>
      </trkpt>
      <trkpt lat="48.13055" lon="4.35779">
        <ele>156.35</ele>
        <time>2021-08-10T16:39:14Z</time>
      </trkpt>
      <trkpt lat="48.13051" lon="4.3578">
        <ele>156.35</ele>
        <time>2021-08-10T16:39:15Z</time>
      </trkpt>
      <trkpt lat="48.13047" lon="4.35782">
        <ele>156.35</ele>
        <time>2021-08-10T16:39:16Z</time>
      </trkpt>
      <trkpt lat="48.13044" lon="4.35787">
        <ele>156.35</ele>
        <time>2021-08-10T16:39:17Z</time>
      </trkpt>
      <trkpt lat="48.13043" lon="4.35793">
        <ele>156.35</ele>
        <time>2021-08-10T16:39:18Z</time>
      </trkpt>
      <trkpt lat="48.13042" lon="4.35799">
        <ele>156.35</ele>
        <time>2021-08-10T16:39:19Z</time>
      </trkpt>
      <trkpt lat="48.13035" lon="4.35846">
        <ele>156.35</ele>
        <time>2021-08-10T16:39:26Z</time>
      </trkpt>
      <trkpt lat="48.13029" lon="4.35877">
        <ele>156.35</ele>
        <time>2021-08-10T16:39:31Z</time>
      </trkpt>
      <trkpt lat="48.13026" lon="4.3588">
        <ele>156.35</ele>
        <time>2021-08-10T16:39:32Z</time>
      </trkpt>
      <trkpt lat="48.13023" lon="4.3588">
        <ele>156.35</ele>
        <time>2021-08-10T16:39:33Z</time>
      </trkpt>
      <trkpt lat="48.1302" lon="4.35879">
        <ele>156.35</ele>
        <time>2021-08-10T16:39:34Z</time>
      </trkpt>
      <trkpt lat="48.13017" lon="4.35878">
        <ele>156.35</ele>
        <time>2021-08-10T16:39:35Z</time>
      </trkpt>
      <trkpt lat="48.13014" lon="4.3588">
        <ele>156.35</ele>
        <time>2021-08-10T16:39:36Z</time>
      </trkpt>
      <trkpt lat="48.13012" lon="4.35885">
        <ele>156.35</ele>
        <time>2021-08-10T16:39:37Z</time>
      </trkpt>
      <trkpt lat="48.13011" lon="4.35889">
        <ele>156.35</ele>
        <time>2021-08-10T16:39:38Z</time>
      </trkpt>
      <trkpt lat="48.1301" lon="4.35895">
        <ele>156.35</ele>
        <time>2021-08-10T16:39:39Z</time>
      </trkpt>
      <trkpt lat="48.1301" lon="4.35901">
        <ele>156.35</ele>
        <time>2021-08-10T16:39:40Z</time>
      </trkpt>
      <trkpt lat="48.13009" lon="4.35914">
        <ele>156.35</ele>
        <time>2021-08-10T16:39:42Z</time>
      </trkpt>
      <trkpt lat="48.13002" lon="4.35971">
        <ele>156.35</ele>
        <time>2021-08-10T16:39:50Z</time>
      </trkpt>
      <trkpt lat="48.12999" lon="4.35994">
        <ele>156.35</ele>
        <time>2021-08-10T16:39:53Z</time>
      </trkpt>
      <trkpt lat="48.12992" lon="4.36017">
        <ele>156.35</ele>
        <time>2021-08-10T16:39:56Z</time>
      </trkpt>
      <trkpt lat="48.12989" lon="4.36023">
        <ele>156.35</ele>
        <time>2021-08-10T16:39:57Z</time>
      </trkpt>
      <trkpt lat="48.12972" lon="4.3605">
        <ele>156.35</ele>
        <time>2021-08-10T16:40:02Z</time>
      </trkpt>
      <trkpt lat="48.1297" lon="4.36056">
        <ele>156.35</ele>
        <time>2021-08-10T16:40:03Z</time>
      </trkpt>
      <trkpt lat="48.12966" lon="4.36068">
        <ele>156.35</ele>
        <time>2021-08-10T16:40:05Z</time>
      </trkpt>
      <trkpt lat="48.12954" lon="4.36132">
        <ele>156.35</ele>
        <time>2021-08-10T16:40:14Z</time>
      </trkpt>
      <trkpt lat="48.12947" lon="4.3618">
        <ele>156.35</ele>
        <time>2021-08-10T16:40:21Z</time>
      </trkpt>
      <trkpt lat="48.12946" lon="4.36201">
        <ele>156.35</ele>
        <time>2021-08-10T16:40:24Z</time>
      </trkpt>
      <trkpt lat="48.12945" lon="4.3623">
        <ele>157.31</ele>
        <time>2021-08-10T16:40:29Z</time>
      </trkpt>
      <trkpt lat="48.12944" lon="4.3624">
        <ele>157.31</ele>
        <time>2021-08-10T16:40:31Z</time>
      </trkpt>
      <trkpt lat="48.12943" lon="4.36243">
        <ele>157.79</ele>
        <time>2021-08-10T16:40:32Z</time>
      </trkpt>
      <trkpt lat="48.12932" lon="4.36277">
        <ele>157.79</ele>
        <time>2021-08-10T16:40:38Z</time>
      </trkpt>
      <trkpt lat="48.1292" lon="4.36321">
        <ele>157.79</ele>
        <time>2021-08-10T16:40:44Z</time>
      </trkpt>
      <trkpt lat="48.12903" lon="4.36387">
        <ele>157.79</ele>
        <time>2021-08-10T16:40:53Z</time>
      </trkpt>
      <trkpt lat="48.12886" lon="4.36466">
        <ele>157.79</ele>
        <time>2021-08-10T16:41:04Z</time>
      </trkpt>
      <trkpt lat="48.12877" lon="4.36507">
        <ele>158.27</ele>
        <time>2021-08-10T16:41:10Z</time>
      </trkpt>
      <trkpt lat="48.12874" lon="4.36513">
        <ele>158.27</ele>
        <time>2021-08-10T16:41:11Z</time>
      </trkpt>
      <trkpt lat="48.1287" lon="4.36517">
        <ele>158.27</ele>
        <time>2021-08-10T16:41:12Z</time>
      </trkpt>
      <trkpt lat="48.12865" lon="4.3652">
        <ele>158.27</ele>
        <time>2021-08-10T16:41:13Z</time>
      </trkpt>
      <trkpt lat="48.1286" lon="4.36519">
        <ele>158.27</ele>
        <time>2021-08-10T16:41:14Z</time>
      </trkpt>
      <trkpt lat="48.12855" lon="4.36516">
        <ele>158.27</ele>
        <time>2021-08-10T16:41:15Z</time>
      </trkpt>
      <trkpt lat="48.1285" lon="4.36512">
        <ele>158.27</ele>
        <time>2021-08-10T16:41:16Z</time>
      </trkpt>
      <trkpt lat="48.12803" lon="4.36479">
        <ele>157.31</ele>
        <time>2021-08-10T16:41:26Z</time>
      </trkpt>
      <trkpt lat="48.12799" lon="4.36478">
        <ele>157.31</ele>
        <time>2021-08-10T16:41:27Z</time>
      </trkpt>
      <trkpt lat="48.12795" lon="4.36478">
        <ele>157.31</ele>
        <time>2021-08-10T16:41:28Z</time>
      </trkpt>
      <trkpt lat="48.12791" lon="4.36479">
        <ele>157.31</ele>
        <time>2021-08-10T16:41:29Z</time>
      </trkpt>
      <trkpt lat="48.12787" lon="4.36481">
        <ele>157.31</ele>
        <time>2021-08-10T16:41:30Z</time>
      </trkpt>
      <trkpt lat="48.12783" lon="4.36485">
        <ele>157.31</ele>
        <time>2021-08-10T16:41:31Z</time>
      </trkpt>
      <trkpt lat="48.12779" lon="4.3649">
        <ele>156.83</ele>
        <time>2021-08-10T16:41:32Z</time>
      </trkpt>
      <trkpt lat="48.12776" lon="4.36496">
        <ele>156.83</ele>
        <time>2021-08-10T16:41:33Z</time>
      </trkpt>
      <trkpt lat="48.12773" lon="4.36503">
        <ele>156.83</ele>
        <time>2021-08-10T16:41:34Z</time>
      </trkpt>
      <trkpt lat="48.1277" lon="4.36509">
        <ele>156.83</ele>
        <time>2021-08-10T16:41:35Z</time>
      </trkpt>
      <trkpt lat="48.12768" lon="4.36516">
        <ele>156.83</ele>
        <time>2021-08-10T16:41:36Z</time>
      </trkpt>
      <trkpt lat="48.12765" lon="4.36523">
        <ele>156.83</ele>
        <time>2021-08-10T16:41:37Z</time>
      </trkpt>
      <trkpt lat="48.12754" lon="4.36549">
        <ele>156.83</ele>
        <time>2021-08-10T16:41:41Z</time>
      </trkpt>
      <trkpt lat="48.12732" lon="4.36597">
        <ele>156.83</ele>
        <time>2021-08-10T16:41:49Z</time>
      </trkpt>
      <trkpt lat="48.12714" lon="4.3664">
        <ele>156.83</ele>
        <time>2021-08-10T16:41:56Z</time>
      </trkpt>
      <trkpt lat="48.127" lon="4.36676">
        <ele>156.83</ele>
        <time>2021-08-10T16:42:02Z</time>
      </trkpt>
      <trkpt lat="48.12682" lon="4.3672">
        <ele>156.83</ele>
        <time>2021-08-10T16:42:09Z</time>
      </trkpt>
      <trkpt lat="48.12676" lon="4.36746">
        <ele>156.83</ele>
        <time>2021-08-10T16:42:13Z</time>
      </trkpt>
      <trkpt lat="48.12675" lon="4.3676">
        <ele>156.83</ele>
        <time>2021-08-10T16:42:15Z</time>
      </trkpt>
      <trkpt lat="48.12676" lon="4.368">
        <ele>157.79</ele>
        <time>2021-08-10T16:42:21Z</time>
      </trkpt>
      <trkpt lat="48.12679" lon="4.36839">
        <ele>158.27</ele>
        <time>2021-08-10T16:42:27Z</time>
      </trkpt>
      <trkpt lat="48.1268" lon="4.36848">
        <ele>158.27</ele>
        <time>2021-08-10T16:42:28Z</time>
      </trkpt>
      <trkpt lat="48.12681" lon="4.36868">
        <ele>158.75</ele>
        <time>2021-08-10T16:42:32Z</time>
      </trkpt>
      <trkpt lat="48.12682" lon="4.36896">
        <ele>158.75</ele>
        <time>2021-08-10T16:42:37Z</time>
      </trkpt>
      <trkpt lat="48.12681" lon="4.36944">
        <ele>158.75</ele>
        <time>2021-08-10T16:42:45Z</time>
      </trkpt>
      <trkpt lat="48.1268" lon="4.36978">
        <ele>158.75</ele>
        <time>2021-08-10T16:42:50Z</time>
      </trkpt>
      <trkpt lat="48.12682" lon="4.37003">
        <ele>158.75</ele>
        <time>2021-08-10T16:42:54Z</time>
      </trkpt>
      <trkpt lat="48.12683" lon="4.37033">
        <ele>158.75</ele>
        <time>2021-08-10T16:42:58Z</time>
      </trkpt>
      <trkpt lat="48.12683" lon="4.3704">
        <ele>157.31</ele>
        <time>2021-08-10T16:42:59Z</time>
      </trkpt>
      <trkpt lat="48.12682" lon="4.37047">
        <ele>157.31</ele>
        <time>2021-08-10T16:43:00Z</time>
      </trkpt>
      <trkpt lat="48.12682" lon="4.37074">
        <ele>157.31</ele>
        <time>2021-08-10T16:43:04Z</time>
      </trkpt>
      <trkpt lat="48.12682" lon="4.37142">
        <ele>157.31</ele>
        <time>2021-08-10T16:43:13Z</time>
      </trkpt>
      <trkpt lat="48.1268" lon="4.3717">
        <ele>157.31</ele>
        <time>2021-08-10T16:43:17Z</time>
      </trkpt>
      <trkpt lat="48.12678" lon="4.37213">
        <ele>157.31</ele>
        <time>2021-08-10T16:43:24Z</time>
      </trkpt>
      <trkpt lat="48.12678" lon="4.3722">
        <ele>157.31</ele>
        <time>2021-08-10T16:43:25Z</time>
      </trkpt>
      <trkpt lat="48.12674" lon="4.37246">
        <ele>157.31</ele>
        <time>2021-08-10T16:43:29Z</time>
      </trkpt>
      <trkpt lat="48.12673" lon="4.37253">
        <ele>157.31</ele>
        <time>2021-08-10T16:43:30Z</time>
      </trkpt>
      <trkpt lat="48.12673" lon="4.37259">
        <ele>157.31</ele>
        <time>2021-08-10T16:43:31Z</time>
      </trkpt>
      <trkpt lat="48.12673" lon="4.37266">
        <ele>157.31</ele>
        <time>2021-08-10T16:43:32Z</time>
      </trkpt>
      <trkpt lat="48.12672" lon="4.37273">
        <ele>157.31</ele>
        <time>2021-08-10T16:43:33Z</time>
      </trkpt>
      <trkpt lat="48.12672" lon="4.37281">
        <ele>157.31</ele>
        <time>2021-08-10T16:43:34Z</time>
      </trkpt>
      <trkpt lat="48.12671" lon="4.37296">
        <ele>157.31</ele>
        <time>2021-08-10T16:43:36Z</time>
      </trkpt>
      <trkpt lat="48.12669" lon="4.37302">
        <ele>157.31</ele>
        <time>2021-08-10T16:43:37Z</time>
      </trkpt>
      <trkpt lat="48.12668" lon="4.37308">
        <ele>157.31</ele>
        <time>2021-08-10T16:43:38Z</time>
      </trkpt>
      <trkpt lat="48.12662" lon="4.37344">
        <ele>157.31</ele>
        <time>2021-08-10T16:43:44Z</time>
      </trkpt>
      <trkpt lat="48.1266" lon="4.3735">
        <ele>157.31</ele>
        <time>2021-08-10T16:43:45Z</time>
      </trkpt>
      <trkpt lat="48.12642" lon="4.37396">
        <ele>157.31</ele>
        <time>2021-08-10T16:43:52Z</time>
      </trkpt>
      <trkpt lat="48.1264" lon="4.37404">
        <ele>157.31</ele>
        <time>2021-08-10T16:43:53Z</time>
      </trkpt>
      <trkpt lat="48.12638" lon="4.3741">
        <ele>157.31</ele>
        <time>2021-08-10T16:43:54Z</time>
      </trkpt>
      <trkpt lat="48.12635" lon="4.37415">
        <ele>157.31</ele>
        <time>2021-08-10T16:43:55Z</time>
      </trkpt>
      <trkpt lat="48.12632" lon="4.37416">
        <ele>157.31</ele>
        <time>2021-08-10T16:43:56Z</time>
      </trkpt>
      <trkpt lat="48.12629" lon="4.37418">
        <ele>157.31</ele>
        <time>2021-08-10T16:43:57Z</time>
      </trkpt>
      <trkpt lat="48.12628" lon="4.37419">
        <ele>157.31</ele>
        <time>2021-08-10T16:43:58Z</time>
      </trkpt>
      <trkpt lat="48.12626" lon="4.37421">
        <ele>157.31</ele>
        <time>2021-08-10T16:43:59Z</time>
      </trkpt>
      <trkpt lat="48.12625" lon="4.37425">
        <ele>157.31</ele>
        <time>2021-08-10T16:44:00Z</time>
      </trkpt>
      <trkpt lat="48.12623" lon="4.37428">
        <ele>157.31</ele>
        <time>2021-08-10T16:44:01Z</time>
      </trkpt>
      <trkpt lat="48.1262" lon="4.37431">
        <ele>157.31</ele>
        <time>2021-08-10T16:44:02Z</time>
      </trkpt>
      <trkpt lat="48.12617" lon="4.37435">
        <ele>157.31</ele>
        <time>2021-08-10T16:44:03Z</time>
      </trkpt>
      <trkpt lat="48.12614" lon="4.37439">
        <ele>157.31</ele>
        <time>2021-08-10T16:44:04Z</time>
      </trkpt>
      <trkpt lat="48.12595" lon="4.37469">
        <ele>157.31</ele>
        <time>2021-08-10T16:44:10Z</time>
      </trkpt>
      <trkpt lat="48.12585" lon="4.37486">
        <ele>157.31</ele>
        <time>2021-08-10T16:44:13Z</time>
      </trkpt>
      <trkpt lat="48.12584" lon="4.37493">
        <ele>157.31</ele>
        <time>2021-08-10T16:44:14Z</time>
      </trkpt>
      <trkpt lat="48.12583" lon="4.37497">
        <ele>157.31</ele>
        <time>2021-08-10T16:44:15Z</time>
      </trkpt>
      <trkpt lat="48.12584" lon="4.37507">
        <ele>157.31</ele>
        <time>2021-08-10T16:44:17Z</time>
      </trkpt>
      <trkpt lat="48.12579" lon="4.37517">
        <ele>157.31</ele>
        <time>2021-08-10T16:44:20Z</time>
      </trkpt>
      <trkpt lat="48.12575" lon="4.37522">
        <ele>157.31</ele>
        <time>2021-08-10T16:44:21Z</time>
      </trkpt>
      <trkpt lat="48.12571" lon="4.37527">
        <ele>157.31</ele>
        <time>2021-08-10T16:44:22Z</time>
      </trkpt>
      <trkpt lat="48.12566" lon="4.37532">
        <ele>157.31</ele>
        <time>2021-08-10T16:44:23Z</time>
      </trkpt>
      <trkpt lat="48.12562" lon="4.37538">
        <ele>157.31</ele>
        <time>2021-08-10T16:44:24Z</time>
      </trkpt>
      <trkpt lat="48.12558" lon="4.37543">
        <ele>157.31</ele>
        <time>2021-08-10T16:44:25Z</time>
      </trkpt>
      <trkpt lat="48.12532" lon="4.37579">
        <ele>157.31</ele>
        <time>2021-08-10T16:44:32Z</time>
      </trkpt>
      <trkpt lat="48.12498" lon="4.37626">
        <ele>157.31</ele>
        <time>2021-08-10T16:44:43Z</time>
      </trkpt>
      <trkpt lat="48.12469" lon="4.37662">
        <ele>157.31</ele>
        <time>2021-08-10T16:44:51Z</time>
      </trkpt>
      <trkpt lat="48.12445" lon="4.3769">
        <ele>157.31</ele>
        <time>2021-08-10T16:44:57Z</time>
      </trkpt>
      <trkpt lat="48.12441" lon="4.37694">
        <ele>157.31</ele>
        <time>2021-08-10T16:44:58Z</time>
      </trkpt>
      <trkpt lat="48.124" lon="4.37736">
        <ele>157.31</ele>
        <time>2021-08-10T16:45:07Z</time>
      </trkpt>
      <trkpt lat="48.12368" lon="4.37767">
        <ele>157.31</ele>
        <time>2021-08-10T16:45:14Z</time>
      </trkpt>
      <trkpt lat="48.1233" lon="4.37797">
        <ele>157.31</ele>
        <time>2021-08-10T16:45:22Z</time>
      </trkpt>
      <trkpt lat="48.12292" lon="4.37823">
        <ele>158.75</ele>
        <time>2021-08-10T16:45:30Z</time>
      </trkpt>
      <trkpt lat="48.12246" lon="4.37837">
        <ele>159.24</ele>
        <time>2021-08-10T16:45:39Z</time>
      </trkpt>
      <trkpt lat="48.1224" lon="4.37837">
        <ele>159.24</ele>
        <time>2021-08-10T16:45:40Z</time>
      </trkpt>
      <trkpt lat="48.12218" lon="4.37836">
        <ele>159.24</ele>
        <time>2021-08-10T16:45:44Z</time>
      </trkpt>
      <trkpt lat="48.12174" lon="4.3785">
        <ele>159.24</ele>
        <time>2021-08-10T16:45:52Z</time>
      </trkpt>
      <trkpt lat="48.12121" lon="4.37881">
        <ele>159.24</ele>
        <time>2021-08-10T16:46:02Z</time>
      </trkpt>
      <trkpt lat="48.12086" lon="4.37902">
        <ele>159.24</ele>
        <time>2021-08-10T16:46:09Z</time>
      </trkpt>
      <trkpt lat="48.12045" lon="4.37918">
        <ele>159.24</ele>
        <time>2021-08-10T16:46:16Z</time>
      </trkpt>
      <trkpt lat="48.12012" lon="4.37941">
        <ele>157.31</ele>
        <time>2021-08-10T16:46:22Z</time>
      </trkpt>
      <trkpt lat="48.11989" lon="4.37955">
        <ele>157.31</ele>
        <time>2021-08-10T16:46:26Z</time>
      </trkpt>
      <trkpt lat="48.11945" lon="4.37986">
        <ele>157.31</ele>
        <time>2021-08-10T16:46:34Z</time>
      </trkpt>
      <trkpt lat="48.11887" lon="4.38017">
        <ele>157.31</ele>
        <time>2021-08-10T16:46:44Z</time>
      </trkpt>
      <trkpt lat="48.11832" lon="4.38051">
        <ele>157.31</ele>
        <time>2021-08-10T16:46:54Z</time>
      </trkpt>
      <trkpt lat="48.11783" lon="4.38079">
        <ele>157.31</ele>
        <time>2021-08-10T16:47:03Z</time>
      </trkpt>
      <trkpt lat="48.11758" lon="4.38092">
        <ele>158.75</ele>
        <time>2021-08-10T16:47:08Z</time>
      </trkpt>
      <trkpt lat="48.11713" lon="4.38091">
        <ele>158.75</ele>
        <time>2021-08-10T16:47:16Z</time>
      </trkpt>
      <trkpt lat="48.11671" lon="4.38085">
        <ele>157.31</ele>
        <time>2021-08-10T16:47:23Z</time>
      </trkpt>
      <trkpt lat="48.11665" lon="4.38086">
        <ele>157.31</ele>
        <time>2021-08-10T16:47:24Z</time>
      </trkpt>
      <trkpt lat="48.11631" lon="4.38083">
        <ele>157.31</ele>
        <time>2021-08-10T16:47:31Z</time>
      </trkpt>
      <trkpt lat="48.11618" lon="4.3808">
        <ele>158.75</ele>
        <time>2021-08-10T16:47:34Z</time>
      </trkpt>
      <trkpt lat="48.11614" lon="4.38078">
        <ele>158.75</ele>
        <time>2021-08-10T16:47:35Z</time>
      </trkpt>
      <trkpt lat="48.11609" lon="4.38077">
        <ele>158.75</ele>
        <time>2021-08-10T16:47:36Z</time>
      </trkpt>
      <trkpt lat="48.11579" lon="4.38074">
        <ele>158.75</ele>
        <time>2021-08-10T16:47:44Z</time>
      </trkpt>
      <trkpt lat="48.11575" lon="4.38071">
        <ele>158.75</ele>
        <time>2021-08-10T16:47:46Z</time>
      </trkpt>
      <trkpt lat="48.11574" lon="4.38068">
        <ele>158.75</ele>
        <time>2021-08-10T16:47:47Z</time>
      </trkpt>
      <trkpt lat="48.11574" lon="4.38066">
        <ele>158.75</ele>
        <time>2021-08-10T16:47:48Z</time>
      </trkpt>
      <trkpt lat="48.11573" lon="4.38063">
        <ele>158.75</ele>
        <time>2021-08-10T16:47:49Z</time>
      </trkpt>
      <trkpt lat="48.11573" lon="4.38061">
        <ele>158.75</ele>
        <time>2021-08-10T16:47:50Z</time>
      </trkpt>
      <trkpt lat="48.11572" lon="4.38058">
        <ele>158.75</ele>
        <time>2021-08-10T16:47:51Z</time>
      </trkpt>
      <trkpt lat="48.11572" lon="4.38051">
        <ele>158.75</ele>
        <time>2021-08-10T16:47:54Z</time>
      </trkpt>
      <trkpt lat="48.11573" lon="4.38048">
        <ele>158.75</ele>
        <time>2021-08-10T16:47:59Z</time>
      </trkpt>
      <trkpt lat="48.11572" lon="4.38048">
        <ele>158.75</ele>
        <time>2021-08-10T16:48:10Z</time>
      </trkpt>
      <trkpt lat="48.11571" lon="4.38049">
        <ele>159.24</ele>
        <time>2021-08-10T16:48:25Z</time>
      </trkpt>
      <trkpt lat="48.1157" lon="4.38049">
        <ele>159.24</ele>
        <time>2021-08-10T16:48:44Z</time>
      </trkpt>
      <trkpt lat="48.1157" lon="4.38048">
        <ele>159.24</ele>
        <time>2021-08-10T16:49:09Z</time>
      </trkpt>
      <trkpt lat="48.11569" lon="4.38048">
        <ele>159.24</ele>
        <time>2021-08-10T16:49:32Z</time>
      </trkpt>
      <trkpt lat="48.11569" lon="4.38048">
        <ele>159.24</ele>
        <time>2021-08-10T16:49:48Z</time>
      </trkpt>
      <trkpt lat="48.1157" lon="4.38048">
        <ele>159.24</ele>
        <time>2021-08-10T16:50:05Z</time>
      </trkpt>
      <trkpt lat="48.11571" lon="4.38048">
        <ele>159.24</ele>
        <time>2021-08-10T16:50:26Z</time>
      </trkpt>
      <trkpt lat="48.1157" lon="4.38045">
        <ele>159.24</ele>
        <time>2021-08-10T16:50:37Z</time>
      </trkpt>
      <trkpt lat="48.1157" lon="4.38044">
        <ele>159.24</ele>
        <time>2021-08-10T16:50:40Z</time>
      </trkpt>
      <trkpt lat="48.11568" lon="4.38044">
        <ele>159.24</ele>
        <time>2021-08-10T16:50:41Z</time>
      </trkpt>
      <trkpt lat="48.11567" lon="4.38046">
        <ele>159.24</ele>
        <time>2021-08-10T16:50:42Z</time>
      </trkpt>
      <trkpt lat="48.11566" lon="4.38049">
        <ele>159.24</ele>
        <time>2021-08-10T16:50:43Z</time>
      </trkpt>
      <trkpt lat="48.11567" lon="4.38051">
        <ele>159.24</ele>
        <time>2021-08-10T16:50:44Z</time>
      </trkpt>
      <trkpt lat="48.11568" lon="4.38055">
        <ele>159.24</ele>
        <time>2021-08-10T16:50:45Z</time>
      </trkpt>
      <trkpt lat="48.11568" lon="4.38059">
        <ele>159.24</ele>
        <time>2021-08-10T16:50:46Z</time>
      </trkpt>
      <trkpt lat="48.11569" lon="4.38063">
        <ele>159.24</ele>
        <time>2021-08-10T16:50:47Z</time>
      </trkpt>
      <trkpt lat="48.11571" lon="4.38067">
        <ele>159.24</ele>
        <time>2021-08-10T16:50:48Z</time>
      </trkpt>
      <trkpt lat="48.11578" lon="4.38104">
        <ele>159.24</ele>
        <time>2021-08-10T16:50:54Z</time>
      </trkpt>
      <trkpt lat="48.11587" lon="4.38157">
        <ele>159.24</ele>
        <time>2021-08-10T16:51:01Z</time>
      </trkpt>
      <trkpt lat="48.11593" lon="4.38205">
        <ele>158.27</ele>
        <time>2021-08-10T16:51:08Z</time>
      </trkpt>
      <trkpt lat="48.11593" lon="4.38211">
        <ele>158.27</ele>
        <time>2021-08-10T16:51:09Z</time>
      </trkpt>
      <trkpt lat="48.11591" lon="4.38217">
        <ele>158.27</ele>
        <time>2021-08-10T16:51:10Z</time>
      </trkpt>
      <trkpt lat="48.11588" lon="4.3822">
        <ele>158.27</ele>
        <time>2021-08-10T16:51:11Z</time>
      </trkpt>
      <trkpt lat="48.11586" lon="4.38223">
        <ele>158.27</ele>
        <time>2021-08-10T16:51:12Z</time>
      </trkpt>
      <trkpt lat="48.11582" lon="4.38225">
        <ele>158.27</ele>
        <time>2021-08-10T16:51:13Z</time>
      </trkpt>
      <trkpt lat="48.11579" lon="4.38227">
        <ele>158.27</ele>
        <time>2021-08-10T16:51:14Z</time>
      </trkpt>
      <trkpt lat="48.11576" lon="4.38229">
        <ele>158.27</ele>
        <time>2021-08-10T16:51:15Z</time>
      </trkpt>
      <trkpt lat="48.11552" lon="4.38232">
        <ele>158.27</ele>
        <time>2021-08-10T16:51:21Z</time>
      </trkpt>
      <trkpt lat="48.11547" lon="4.38233">
        <ele>158.27</ele>
        <time>2021-08-10T16:51:22Z</time>
      </trkpt>
      <trkpt lat="48.11542" lon="4.38235">
        <ele>158.27</ele>
        <time>2021-08-10T16:51:23Z</time>
      </trkpt>
      <trkpt lat="48.11538" lon="4.38235">
        <ele>158.27</ele>
        <time>2021-08-10T16:51:24Z</time>
      </trkpt>
      <trkpt lat="48.11534" lon="4.38233">
        <ele>158.27</ele>
        <time>2021-08-10T16:51:25Z</time>
      </trkpt>
      <trkpt lat="48.1153" lon="4.38229">
        <ele>158.27</ele>
        <time>2021-08-10T16:51:26Z</time>
      </trkpt>
      <trkpt lat="48.11526" lon="4.38224">
        <ele>158.27</ele>
        <time>2021-08-10T16:51:27Z</time>
      </trkpt>
      <trkpt lat="48.11523" lon="4.38219">
        <ele>158.27</ele>
        <time>2021-08-10T16:51:28Z</time>
      </trkpt>
      <trkpt lat="48.11522" lon="4.38214">
        <ele>158.27</ele>
        <time>2021-08-10T16:51:29Z</time>
      </trkpt>
      <trkpt lat="48.1152" lon="4.38208">
        <ele>158.27</ele>
        <time>2021-08-10T16:51:30Z</time>
      </trkpt>
      <trkpt lat="48.11519" lon="4.38202">
        <ele>158.27</ele>
        <time>2021-08-10T16:51:31Z</time>
      </trkpt>
      <trkpt lat="48.11517" lon="4.38197">
        <ele>158.27</ele>
        <time>2021-08-10T16:51:32Z</time>
      </trkpt>
      <trkpt lat="48.11507" lon="4.3818">
        <ele>158.27</ele>
        <time>2021-08-10T16:51:36Z</time>
      </trkpt>
      <trkpt lat="48.11504" lon="4.38179">
        <ele>158.27</ele>
        <time>2021-08-10T16:51:37Z</time>
      </trkpt>
      <trkpt lat="48.11501" lon="4.3818">
        <ele>158.27</ele>
        <time>2021-08-10T16:51:38Z</time>
      </trkpt>
      <trkpt lat="48.11489" lon="4.38181">
        <ele>158.27</ele>
        <time>2021-08-10T16:51:44Z</time>
      </trkpt>
      <trkpt lat="48.11486" lon="4.38181">
        <ele>158.27</ele>
        <time>2021-08-10T16:51:52Z</time>
      </trkpt>
      <trkpt lat="48.11482" lon="4.38184">
        <ele>158.27</ele>
        <time>2021-08-10T16:52:01Z</time>
      </trkpt>
      <trkpt lat="48.11483" lon="4.38187">
        <ele>158.27</ele>
        <time>2021-08-10T16:52:09Z</time>
      </trkpt>
      <trkpt lat="48.11484" lon="4.38186">
        <ele>158.27</ele>
        <time>2021-08-10T16:52:24Z</time>
      </trkpt>
      <trkpt lat="48.11485" lon="4.38186">
        <ele>158.27</ele>
        <time>2021-08-10T16:52:30Z</time>
      </trkpt>
      <trkpt lat="48.11484" lon="4.38187">
        <ele>158.27</ele>
        <time>2021-08-10T16:52:36Z</time>
      </trkpt>
      <trkpt lat="48.11484" lon="4.38186">
        <ele>158.27</ele>
        <time>2021-08-10T16:52:52Z</time>
      </trkpt>
      <trkpt lat="48.11485" lon="4.38187">
        <ele>158.27</ele>
        <time>2021-08-10T16:53:13Z</time>
      </trkpt>
      <trkpt lat="48.11485" lon="4.38187">
        <ele>158.27</ele>
        <time>2021-08-10T16:53:33Z</time>
      </trkpt>
      <trkpt lat="48.11483" lon="4.38186">
        <ele>158.27</ele>
        <time>2021-08-10T16:53:51Z</time>
      </trkpt>
      <trkpt lat="48.11484" lon="4.38186">
        <ele>158.27</ele>
        <time>2021-08-10T16:54:08Z</time>
      </trkpt>
      <trkpt lat="48.11482" lon="4.38186">
        <ele>158.27</ele>
        <time>2021-08-10T16:54:33Z</time>
      </trkpt>
      <trkpt lat="48.11483" lon="4.38185">
        <ele>157.79</ele>
        <time>2021-08-10T16:54:57Z</time>
      </trkpt>
      <trkpt lat="48.11483" lon="4.38185">
        <ele>157.79</ele>
        <time>2021-08-10T16:55:19Z</time>
      </trkpt>
      <trkpt lat="48.11484" lon="4.38184">
        <ele>157.79</ele>
        <time>2021-08-10T16:55:40Z</time>
      </trkpt>
      <trkpt lat="48.11483" lon="4.38184">
        <ele>157.79</ele>
        <time>2021-08-10T16:56:02Z</time>
      </trkpt>
      <trkpt lat="48.11484" lon="4.38185">
        <ele>157.79</ele>
        <time>2021-08-10T16:56:20Z</time>
      </trkpt>
      <trkpt lat="48.11483" lon="4.38186">
        <ele>157.79</ele>
        <time>2021-08-10T16:56:32Z</time>
      </trkpt>
      <trkpt lat="48.11481" lon="4.38186">
        <ele>157.79</ele>
        <time>2021-08-10T16:56:44Z</time>
      </trkpt>
      <trkpt lat="48.11481" lon="4.38185">
        <ele>157.79</ele>
        <time>2021-08-10T16:56:57Z</time>
      </trkpt>
      <trkpt lat="48.1148" lon="4.38186">
        <ele>157.79</ele>
        <time>2021-08-10T16:57:10Z</time>
      </trkpt>
      <trkpt lat="48.11479" lon="4.38187">
        <ele>157.79</ele>
        <time>2021-08-10T16:57:23Z</time>
      </trkpt>
      <trkpt lat="48.11479" lon="4.38188">
        <ele>157.79</ele>
        <time>2021-08-10T16:57:31Z</time>
      </trkpt>
      <trkpt lat="48.11479" lon="4.38187">
        <ele>157.79</ele>
        <time>2021-08-10T16:57:46Z</time>
      </trkpt>
      <trkpt lat="48.11482" lon="4.38185">
        <ele>157.79</ele>
        <time>2021-08-10T16:58:00Z</time>
      </trkpt>
      <trkpt lat="48.11482" lon="4.38184">
        <ele>157.79</ele>
        <time>2021-08-10T16:58:17Z</time>
      </trkpt>
      <trkpt lat="48.11484" lon="4.38184">
        <ele>158.27</ele>
        <time>2021-08-10T16:58:34Z</time>
      </trkpt>
      <trkpt lat="48.11486" lon="4.38184">
        <ele>158.27</ele>
        <time>2021-08-10T16:58:45Z</time>
      </trkpt>
      <trkpt lat="48.11488" lon="4.38184">
        <ele>158.27</ele>
        <time>2021-08-10T16:58:57Z</time>
      </trkpt>
      <trkpt lat="48.11486" lon="4.38183">
        <ele>158.27</ele>
        <time>2021-08-10T16:59:11Z</time>
      </trkpt>
      <trkpt lat="48.11486" lon="4.38183">
        <ele>158.27</ele>
        <time>2021-08-10T16:59:30Z</time>
      </trkpt>
      <trkpt lat="48.11485" lon="4.38184">
        <ele>158.27</ele>
        <time>2021-08-10T16:59:45Z</time>
      </trkpt>
      <trkpt lat="48.11486" lon="4.38183">
        <ele>158.27</ele>
        <time>2021-08-10T16:59:58Z</time>
      </trkpt>
      <trkpt lat="48.11482" lon="4.38182">
        <ele>158.27</ele>
        <time>2021-08-10T17:00:13Z</time>
      </trkpt>
      <trkpt lat="48.11482" lon="4.38182">
        <ele>158.27</ele>
        <time>2021-08-10T17:00:27Z</time>
      </trkpt>
      <trkpt lat="48.11482" lon="4.38182">
        <ele>158.27</ele>
        <time>2021-08-10T17:00:35Z</time>
      </trkpt>
      <trkpt lat="48.11483" lon="4.38184">
        <ele>158.27</ele>
        <time>2021-08-10T17:00:54Z</time>
      </trkpt>
      <trkpt lat="48.11481" lon="4.38185">
        <ele>158.27</ele>
        <time>2021-08-10T17:01:09Z</time>
      </trkpt>
      <trkpt lat="48.11479" lon="4.38184">
        <ele>158.75</ele>
        <time>2021-08-10T17:01:26Z</time>
      </trkpt>
      <trkpt lat="48.11476" lon="4.38183">
        <ele>158.75</ele>
        <time>2021-08-10T17:01:35Z</time>
      </trkpt>
      <trkpt lat="48.11474" lon="4.38182">
        <ele>158.75</ele>
        <time>2021-08-10T17:01:44Z</time>
      </trkpt>
      <trkpt lat="48.11478" lon="4.38183">
        <ele>158.75</ele>
        <time>2021-08-10T17:02:01Z</time>
      </trkpt>
      <trkpt lat="48.11478" lon="4.38184">
        <ele>158.75</ele>
        <time>2021-08-10T17:02:20Z</time>
      </trkpt>
      <trkpt lat="48.11481" lon="4.38185">
        <ele>158.75</ele>
        <time>2021-08-10T17:02:27Z</time>
      </trkpt>
      <trkpt lat="48.11485" lon="4.38187">
        <ele>158.27</ele>
        <time>2021-08-10T17:02:36Z</time>
      </trkpt>
      <trkpt lat="48.11489" lon="4.38187">
        <ele>158.27</ele>
        <time>2021-08-10T17:03:03Z</time>
      </trkpt>
      <trkpt lat="48.11489" lon="4.38185">
        <ele>158.27</ele>
        <time>2021-08-10T17:03:19Z</time>
      </trkpt>
      <trkpt lat="48.11488" lon="4.38185">
        <ele>158.27</ele>
        <time>2021-08-10T17:03:44Z</time>
      </trkpt>
      <trkpt lat="48.11485" lon="4.38186">
        <ele>158.27</ele>
        <time>2021-08-10T17:04:06Z</time>
      </trkpt>
      <trkpt lat="48.11482" lon="4.38185">
        <ele>158.27</ele>
        <time>2021-08-10T17:04:25Z</time>
      </trkpt>
      <trkpt lat="48.1148" lon="4.38185">
        <ele>158.27</ele>
        <time>2021-08-10T17:04:44Z</time>
      </trkpt>
      <trkpt lat="48.1148" lon="4.38183">
        <ele>158.27</ele>
        <time>2021-08-10T17:05:09Z</time>
      </trkpt>
      <trkpt lat="48.11482" lon="4.38183">
        <ele>158.27</ele>
        <time>2021-08-10T17:05:26Z</time>
      </trkpt>
      <trkpt lat="48.11485" lon="4.38184">
        <ele>158.27</ele>
        <time>2021-08-10T17:05:45Z</time>
      </trkpt>
      <trkpt lat="48.11486" lon="4.38185">
        <ele>158.27</ele>
        <time>2021-08-10T17:05:54Z</time>
      </trkpt>
      <trkpt lat="48.11487" lon="4.38187">
        <ele>158.27</ele>
        <time>2021-08-10T17:06:02Z</time>
      </trkpt>
      <trkpt lat="48.11489" lon="4.38187">
        <ele>158.27</ele>
        <time>2021-08-10T17:06:10Z</time>
      </trkpt>
      <trkpt lat="48.1149" lon="4.38188">
        <ele>158.27</ele>
        <time>2021-08-10T17:06:22Z</time>
      </trkpt>
      <trkpt lat="48.11492" lon="4.38187">
        <ele>158.27</ele>
        <time>2021-08-10T17:06:41Z</time>
      </trkpt>
      <trkpt lat="48.1149" lon="4.38187">
        <ele>158.27</ele>
        <time>2021-08-10T17:06:58Z</time>
      </trkpt>
      <trkpt lat="48.1149" lon="4.38187">
        <ele>158.75</ele>
        <time>2021-08-10T17:07:11Z</time>
      </trkpt>
      <trkpt lat="48.11487" lon="4.38188">
        <ele>158.75</ele>
        <time>2021-08-10T17:07:30Z</time>
      </trkpt>
      <trkpt lat="48.11486" lon="4.38188">
        <ele>158.75</ele>
        <time>2021-08-10T17:07:40Z</time>
      </trkpt>
      <trkpt lat="48.11486" lon="4.38187">
        <ele>158.75</ele>
        <time>2021-08-10T17:07:54Z</time>
      </trkpt>
      <trkpt lat="48.1149" lon="4.38186">
        <ele>158.75</ele>
        <time>2021-08-10T17:08:11Z</time>
      </trkpt>
      <trkpt lat="48.11495" lon="4.38186">
        <ele>159.24</ele>
        <time>2021-08-10T17:08:33Z</time>
      </trkpt>
      <trkpt lat="48.11494" lon="4.38185">
        <ele>159.24</ele>
        <time>2021-08-10T17:08:46Z</time>
      </trkpt>
      <trkpt lat="48.11491" lon="4.38185">
        <ele>159.24</ele>
        <time>2021-08-10T17:08:57Z</time>
      </trkpt>
      <trkpt lat="48.11489" lon="4.38186">
        <ele>159.24</ele>
        <time>2021-08-10T17:09:16Z</time>
      </trkpt>
      <trkpt lat="48.11487" lon="4.38187">
        <ele>159.72</ele>
        <time>2021-08-10T17:09:32Z</time>
      </trkpt>
      <trkpt lat="48.11487" lon="4.38187">
        <ele>159.72</ele>
        <time>2021-08-10T17:09:42Z</time>
      </trkpt>
      <trkpt lat="48.11486" lon="4.38186">
        <ele>159.72</ele>
        <time>2021-08-10T17:10:03Z</time>
      </trkpt>
      <trkpt lat="48.11487" lon="4.38186">
        <ele>159.72</ele>
        <time>2021-08-10T17:10:16Z</time>
      </trkpt>
      <trkpt lat="48.11486" lon="4.38186">
        <ele>159.72</ele>
        <time>2021-08-10T17:10:35Z</time>
      </trkpt>
      <trkpt lat="48.11487" lon="4.38188">
        <ele>159.72</ele>
        <time>2021-08-10T17:10:45Z</time>
      </trkpt>
      <trkpt lat="48.11491" lon="4.3819">
        <ele>159.72</ele>
        <time>2021-08-10T17:11:03Z</time>
      </trkpt>
      <trkpt lat="48.11494" lon="4.3819">
        <ele>159.72</ele>
        <time>2021-08-10T17:11:12Z</time>
      </trkpt>
      <trkpt lat="48.11492" lon="4.38191">
        <ele>159.72</ele>
        <time>2021-08-10T17:11:26Z</time>
      </trkpt>
      <trkpt lat="48.11494" lon="4.38189">
        <ele>159.72</ele>
        <time>2021-08-10T17:11:42Z</time>
      </trkpt>
      <trkpt lat="48.11493" lon="4.38188">
        <ele>160.2</ele>
        <time>2021-08-10T17:11:55Z</time>
      </trkpt>
      <trkpt lat="48.11496" lon="4.38189">
        <ele>160.2</ele>
        <time>2021-08-10T17:12:08Z</time>
      </trkpt>
      <trkpt lat="48.115" lon="4.38189">
        <ele>160.2</ele>
        <time>2021-08-10T17:12:22Z</time>
      </trkpt>
      <trkpt lat="48.11503" lon="4.38189">
        <ele>160.2</ele>
        <time>2021-08-10T17:12:33Z</time>
      </trkpt>
      <trkpt lat="48.11504" lon="4.38188">
        <ele>160.2</ele>
        <time>2021-08-10T17:12:47Z</time>
      </trkpt>
      <trkpt lat="48.11504" lon="4.38188">
        <ele>160.2</ele>
        <time>2021-08-10T17:13:04Z</time>
      </trkpt>
      <trkpt lat="48.11501" lon="4.3819">
        <ele>160.68</ele>
        <time>2021-08-10T17:13:25Z</time>
      </trkpt>
      <trkpt lat="48.11502" lon="4.3819">
        <ele>160.68</ele>
        <time>2021-08-10T17:13:46Z</time>
      </trkpt>
      <trkpt lat="48.115" lon="4.38189">
        <ele>160.68</ele>
        <time>2021-08-10T17:14:02Z</time>
      </trkpt>
      <trkpt lat="48.11497" lon="4.3819">
        <ele>161.16</ele>
        <time>2021-08-10T17:14:22Z</time>
      </trkpt>
      <trkpt lat="48.11499" lon="4.3819">
        <ele>161.16</ele>
        <time>2021-08-10T17:14:40Z</time>
      </trkpt>
      <trkpt lat="48.115" lon="4.38192">
        <ele>161.16</ele>
        <time>2021-08-10T17:14:55Z</time>
      </trkpt>
      <trkpt lat="48.11494" lon="4.38191">
        <ele>161.16</ele>
        <time>2021-08-10T17:15:16Z</time>
      </trkpt>
      <trkpt lat="48.11492" lon="4.38191">
        <ele>161.64</ele>
        <time>2021-08-10T17:15:38Z</time>
      </trkpt>
      <trkpt lat="48.1149" lon="4.38191">
        <ele>161.64</ele>
        <time>2021-08-10T17:15:54Z</time>
      </trkpt>
      <trkpt lat="48.11491" lon="4.3819">
        <ele>161.64</ele>
        <time>2021-08-10T17:16:13Z</time>
      </trkpt>
      <trkpt lat="48.11488" lon="4.38189">
        <ele>161.64</ele>
        <time>2021-08-10T17:16:36Z</time>
      </trkpt>
      <trkpt lat="48.1149" lon="4.38191">
        <ele>162.12</ele>
        <time>2021-08-10T17:17:01Z</time>
      </trkpt>
      <trkpt lat="48.11489" lon="4.38193">
        <ele>162.12</ele>
        <time>2021-08-10T17:17:20Z</time>
      </trkpt>
      <trkpt lat="48.11492" lon="4.38194">
        <ele>162.6</ele>
        <time>2021-08-10T17:17:41Z</time>
      </trkpt>
      <trkpt lat="48.11492" lon="4.38193">
        <ele>162.6</ele>
        <time>2021-08-10T17:18:06Z</time>
      </trkpt>
      <trkpt lat="48.11491" lon="4.38192">
        <ele>163.08</ele>
        <time>2021-08-10T17:18:29Z</time>
      </trkpt>
      <trkpt lat="48.11486" lon="4.38187">
        <ele>163.08</ele>
        <time>2021-08-10T17:18:54Z</time>
      </trkpt>
      <trkpt lat="48.11485" lon="4.38184">
        <ele>163.08</ele>
        <time>2021-08-10T17:19:13Z</time>
      </trkpt>
      <trkpt lat="48.11484" lon="4.38183">
        <ele>163.08</ele>
        <time>2021-08-10T17:19:32Z</time>
      </trkpt>
      <trkpt lat="48.11481" lon="4.38183">
        <ele>163.08</ele>
        <time>2021-08-10T17:19:50Z</time>
      </trkpt>
      <trkpt lat="48.1148" lon="4.38184">
        <ele>163.08</ele>
        <time>2021-08-10T17:20:05Z</time>
      </trkpt>
      <trkpt lat="48.11479" lon="4.38184">
        <ele>163.08</ele>
        <time>2021-08-10T17:20:23Z</time>
      </trkpt>
      <trkpt lat="48.11479" lon="4.38185">
        <ele>163.08</ele>
        <time>2021-08-10T17:20:41Z</time>
      </trkpt>
      <trkpt lat="48.11478" lon="4.38186">
        <ele>162.6</ele>
        <time>2021-08-10T17:21:00Z</time>
      </trkpt>
      <trkpt lat="48.1148" lon="4.38186">
        <ele>162.6</ele>
        <time>2021-08-10T17:21:13Z</time>
      </trkpt>
      <trkpt lat="48.1148" lon="4.38184">
        <ele>162.6</ele>
        <time>2021-08-10T17:21:36Z</time>
      </trkpt>
      <trkpt lat="48.1148" lon="4.38184">
        <ele>162.6</ele>
        <time>2021-08-10T17:21:55Z</time>
      </trkpt>
      <trkpt lat="48.11481" lon="4.38184">
        <ele>162.12</ele>
        <time>2021-08-10T17:22:10Z</time>
      </trkpt>
      <trkpt lat="48.11483" lon="4.38187">
        <ele>162.12</ele>
        <time>2021-08-10T17:22:28Z</time>
      </trkpt>
      <trkpt lat="48.11483" lon="4.38187">
        <ele>162.12</ele>
        <time>2021-08-10T17:22:48Z</time>
      </trkpt>
      <trkpt lat="48.11483" lon="4.38188">
        <ele>162.12</ele>
        <time>2021-08-10T17:23:04Z</time>
      </trkpt>
      <trkpt lat="48.11481" lon="4.38187">
        <ele>162.12</ele>
        <time>2021-08-10T17:23:22Z</time>
      </trkpt>
      <trkpt lat="48.11481" lon="4.38186">
        <ele>162.12</ele>
        <time>2021-08-10T17:23:43Z</time>
      </trkpt>
      <trkpt lat="48.11481" lon="4.38186">
        <ele>161.64</ele>
        <time>2021-08-10T17:23:56Z</time>
      </trkpt>
      <trkpt lat="48.1148" lon="4.38186">
        <ele>161.64</ele>
        <time>2021-08-10T17:24:14Z</time>
      </trkpt>
      <trkpt lat="48.11483" lon="4.38188">
        <ele>161.64</ele>
        <time>2021-08-10T17:24:30Z</time>
      </trkpt>
      <trkpt lat="48.11482" lon="4.38187">
        <ele>161.64</ele>
        <time>2021-08-10T17:24:46Z</time>
      </trkpt>
      <trkpt lat="48.11482" lon="4.38185">
        <ele>161.64</ele>
        <time>2021-08-10T17:25:03Z</time>
      </trkpt>
      <trkpt lat="48.11481" lon="4.38186">
        <ele>161.16</ele>
        <time>2021-08-10T17:25:18Z</time>
      </trkpt>
      <trkpt lat="48.11483" lon="4.38185">
        <ele>161.16</ele>
        <time>2021-08-10T17:25:36Z</time>
      </trkpt>
      <trkpt lat="48.11483" lon="4.38187">
        <ele>161.16</ele>
        <time>2021-08-10T17:25:55Z</time>
      </trkpt>
      <trkpt lat="48.11482" lon="4.38186">
        <ele>161.16</ele>
        <time>2021-08-10T17:26:09Z</time>
      </trkpt>
      <trkpt lat="48.11482" lon="4.38182">
        <ele>161.16</ele>
        <time>2021-08-10T17:26:23Z</time>
      </trkpt>
      <trkpt lat="48.11482" lon="4.38181">
        <ele>161.16</ele>
        <time>2021-08-10T17:26:24Z</time>
      </trkpt>
      <trkpt lat="48.11482" lon="4.38171">
        <ele>161.16</ele>
        <time>2021-08-10T17:26:31Z</time>
      </trkpt>
      <trkpt lat="48.11482" lon="4.3817">
        <ele>161.16</ele>
        <time>2021-08-10T17:26:32Z</time>
      </trkpt>
      <trkpt lat="48.11481" lon="4.38169">
        <ele>161.16</ele>
        <time>2021-08-10T17:26:33Z</time>
      </trkpt>
      <trkpt lat="48.11478" lon="4.38169">
        <ele>161.16</ele>
        <time>2021-08-10T17:26:38Z</time>
      </trkpt>
      <trkpt lat="48.11478" lon="4.38168">
        <ele>161.16</ele>
        <time>2021-08-10T17:26:54Z</time>
      </trkpt>
      <trkpt lat="48.11483" lon="4.38163">
        <ele>161.16</ele>
        <time>2021-08-10T17:27:11Z</time>
      </trkpt>
      <trkpt lat="48.11487" lon="4.38164">
        <ele>160.68</ele>
        <time>2021-08-10T17:27:20Z</time>
      </trkpt>
      <trkpt lat="48.11497" lon="4.38163">
        <ele>160.68</ele>
        <time>2021-08-10T17:27:35Z</time>
      </trkpt>
      <trkpt lat="48.11502" lon="4.38166">
        <ele>160.68</ele>
        <time>2021-08-10T17:27:46Z</time>
      </trkpt>
      <trkpt lat="48.11503" lon="4.38167">
        <ele>160.68</ele>
        <time>2021-08-10T17:28:00Z</time>
      </trkpt>
      <trkpt lat="48.11502" lon="4.38165">
        <ele>160.68</ele>
        <time>2021-08-10T17:28:19Z</time>
      </trkpt>
      <trkpt lat="48.11504" lon="4.38166">
        <ele>160.68</ele>
        <time>2021-08-10T17:28:29Z</time>
      </trkpt>
      <trkpt lat="48.11508" lon="4.38164">
        <ele>160.68</ele>
        <time>2021-08-10T17:28:45Z</time>
      </trkpt>
      <trkpt lat="48.1151" lon="4.38163">
        <ele>160.68</ele>
        <time>2021-08-10T17:28:58Z</time>
      </trkpt>
      <trkpt lat="48.11511" lon="4.38167">
        <ele>160.68</ele>
        <time>2021-08-10T17:29:10Z</time>
      </trkpt>
      <trkpt lat="48.11511" lon="4.38169">
        <ele>160.68</ele>
        <time>2021-08-10T17:29:27Z</time>
      </trkpt>
      <trkpt lat="48.11512" lon="4.3817">
        <ele>161.16</ele>
        <time>2021-08-10T17:29:39Z</time>
      </trkpt>
      <trkpt lat="48.11514" lon="4.3817">
        <ele>161.16</ele>
        <time>2021-08-10T17:29:56Z</time>
      </trkpt>
      <trkpt lat="48.11514" lon="4.3817">
        <ele>161.16</ele>
        <time>2021-08-10T17:30:14Z</time>
      </trkpt>
      <trkpt lat="48.11513" lon="4.38171">
        <ele>161.64</ele>
        <time>2021-08-10T17:30:26Z</time>
      </trkpt>
      <trkpt lat="48.11513" lon="4.38172">
        <ele>161.64</ele>
        <time>2021-08-10T17:30:41Z</time>
      </trkpt>
      <trkpt lat="48.11514" lon="4.38174">
        <ele>161.64</ele>
        <time>2021-08-10T17:30:56Z</time>
      </trkpt>
      <trkpt lat="48.11514" lon="4.38174">
        <ele>161.64</ele>
        <time>2021-08-10T17:31:05Z</time>
      </trkpt>
      <trkpt lat="48.11515" lon="4.38177">
        <ele>162.12</ele>
        <time>2021-08-10T17:31:17Z</time>
      </trkpt>
      <trkpt lat="48.11516" lon="4.38176">
        <ele>162.12</ele>
        <time>2021-08-10T17:31:29Z</time>
      </trkpt>
      <trkpt lat="48.11514" lon="4.38173">
        <ele>162.12</ele>
        <time>2021-08-10T17:31:48Z</time>
      </trkpt>
      <trkpt lat="48.11513" lon="4.38173">
        <ele>162.6</ele>
        <time>2021-08-10T17:31:59Z</time>
      </trkpt>
      <trkpt lat="48.11511" lon="4.38173">
        <ele>162.6</ele>
        <time>2021-08-10T17:32:03Z</time>
      </trkpt>
      <trkpt lat="48.11509" lon="4.38173">
        <ele>162.6</ele>
        <time>2021-08-10T17:32:04Z</time>
      </trkpt>
      <trkpt lat="48.11509" lon="4.38172">
        <ele>162.6</ele>
        <time>2021-08-10T17:32:09Z</time>
      </trkpt>
      <trkpt lat="48.11507" lon="4.38171">
        <ele>162.6</ele>
        <time>2021-08-10T17:32:26Z</time>
      </trkpt>
      <trkpt lat="48.11503" lon="4.38169">
        <ele>162.6</ele>
        <time>2021-08-10T17:32:46Z</time>
      </trkpt>
      <trkpt lat="48.11499" lon="4.3817">
        <ele>162.6</ele>
        <time>2021-08-10T17:33:06Z</time>
      </trkpt>
      <trkpt lat="48.11499" lon="4.38171">
        <ele>162.6</ele>
        <time>2021-08-10T17:33:19Z</time>
      </trkpt>
      <trkpt lat="48.11501" lon="4.38168">
        <ele>162.6</ele>
        <time>2021-08-10T17:33:35Z</time>
      </trkpt>
      <trkpt lat="48.11498" lon="4.38167">
        <ele>162.6</ele>
        <time>2021-08-10T17:33:52Z</time>
      </trkpt>
      <trkpt lat="48.11494" lon="4.38168">
        <ele>162.6</ele>
        <time>2021-08-10T17:34:08Z</time>
      </trkpt>
      <trkpt lat="48.11496" lon="4.38168">
        <ele>162.6</ele>
        <time>2021-08-10T17:34:24Z</time>
      </trkpt>
      <trkpt lat="48.11501" lon="4.38166">
        <ele>162.6</ele>
        <time>2021-08-10T17:34:39Z</time>
      </trkpt>
      <trkpt lat="48.11498" lon="4.38165">
        <ele>162.12</ele>
        <time>2021-08-10T17:34:52Z</time>
      </trkpt>
      <trkpt lat="48.11499" lon="4.38165">
        <ele>162.12</ele>
        <time>2021-08-10T17:35:06Z</time>
      </trkpt>
      <trkpt lat="48.11496" lon="4.38165">
        <ele>162.12</ele>
        <time>2021-08-10T17:35:20Z</time>
      </trkpt>
      <trkpt lat="48.11497" lon="4.38165">
        <ele>162.12</ele>
        <time>2021-08-10T17:35:31Z</time>
      </trkpt>
      <trkpt lat="48.11494" lon="4.38165">
        <ele>162.12</ele>
        <time>2021-08-10T17:35:42Z</time>
      </trkpt>
      <trkpt lat="48.11494" lon="4.38162">
        <ele>161.64</ele>
        <time>2021-08-10T17:36:01Z</time>
      </trkpt>
      <trkpt lat="48.11492" lon="4.38159">
        <ele>161.64</ele>
        <time>2021-08-10T17:36:15Z</time>
      </trkpt>
      <trkpt lat="48.11489" lon="4.3816">
        <ele>161.64</ele>
        <time>2021-08-10T17:36:25Z</time>
      </trkpt>
      <trkpt lat="48.11487" lon="4.3816">
        <ele>161.64</ele>
        <time>2021-08-10T17:36:43Z</time>
      </trkpt>
      <trkpt lat="48.11486" lon="4.38159">
        <ele>161.64</ele>
        <time>2021-08-10T17:36:53Z</time>
      </trkpt>
      <trkpt lat="48.11489" lon="4.38161">
        <ele>161.64</ele>
        <time>2021-08-10T17:37:13Z</time>
      </trkpt>
      <trkpt lat="48.11491" lon="4.38162">
        <ele>161.64</ele>
        <time>2021-08-10T17:37:15Z</time>
      </trkpt>
      <trkpt lat="48.11493" lon="4.38164">
        <ele>161.64</ele>
        <time>2021-08-10T17:37:16Z</time>
      </trkpt>
      <trkpt lat="48.11495" lon="4.38165">
        <ele>161.64</ele>
        <time>2021-08-10T17:37:20Z</time>
      </trkpt>
      <trkpt lat="48.11499" lon="4.38167">
        <ele>161.64</ele>
        <time>2021-08-10T17:37:24Z</time>
      </trkpt>
      <trkpt lat="48.11501" lon="4.38168">
        <ele>161.64</ele>
        <time>2021-08-10T17:37:42Z</time>
      </trkpt>
      <trkpt lat="48.11503" lon="4.3817">
        <ele>161.64</ele>
        <time>2021-08-10T17:38:01Z</time>
      </trkpt>
      <trkpt lat="48.11502" lon="4.38167">
        <ele>161.64</ele>
        <time>2021-08-10T17:38:18Z</time>
      </trkpt>
      <trkpt lat="48.11504" lon="4.38163">
        <ele>161.64</ele>
        <time>2021-08-10T17:38:30Z</time>
      </trkpt>
      <trkpt lat="48.115" lon="4.38165">
        <ele>161.64</ele>
        <time>2021-08-10T17:38:54Z</time>
      </trkpt>
      <trkpt lat="48.11501" lon="4.38165">
        <ele>161.16</ele>
        <time>2021-08-10T17:39:10Z</time>
      </trkpt>
      <trkpt lat="48.11502" lon="4.38168">
        <ele>161.16</ele>
        <time>2021-08-10T17:39:21Z</time>
      </trkpt>
      <trkpt lat="48.11502" lon="4.38169">
        <ele>161.16</ele>
        <time>2021-08-10T17:39:38Z</time>
      </trkpt>
      <trkpt lat="48.11496" lon="4.38168">
        <ele>161.16</ele>
        <time>2021-08-10T17:39:52Z</time>
      </trkpt>
      <trkpt lat="48.11491" lon="4.38166">
        <ele>161.16</ele>
        <time>2021-08-10T17:40:15Z</time>
      </trkpt>
      <trkpt lat="48.11493" lon="4.38163">
        <ele>161.16</ele>
        <time>2021-08-10T17:40:30Z</time>
      </trkpt>
      <trkpt lat="48.11496" lon="4.3816">
        <ele>160.68</ele>
        <time>2021-08-10T17:40:44Z</time>
      </trkpt>
      <trkpt lat="48.11494" lon="4.3816">
        <ele>160.68</ele>
        <time>2021-08-10T17:41:06Z</time>
      </trkpt>
      <trkpt lat="48.11494" lon="4.3816">
        <ele>160.68</ele>
        <time>2021-08-10T17:41:21Z</time>
      </trkpt>
      <trkpt lat="48.11494" lon="4.38158">
        <ele>160.68</ele>
        <time>2021-08-10T17:41:31Z</time>
      </trkpt>
      <trkpt lat="48.11492" lon="4.38159">
        <ele>160.68</ele>
        <time>2021-08-10T17:41:46Z</time>
      </trkpt>
      <trkpt lat="48.11498" lon="4.38159">
        <ele>160.68</ele>
        <time>2021-08-10T17:42:06Z</time>
      </trkpt>
      <trkpt lat="48.11501" lon="4.3816">
        <ele>160.68</ele>
        <time>2021-08-10T17:42:22Z</time>
      </trkpt>
      <trkpt lat="48.115" lon="4.38156">
        <ele>160.68</ele>
        <time>2021-08-10T17:42:42Z</time>
      </trkpt>
      <trkpt lat="48.11508" lon="4.38158">
        <ele>160.68</ele>
        <time>2021-08-10T17:42:57Z</time>
      </trkpt>
      <trkpt lat="48.1151" lon="4.3816">
        <ele>160.68</ele>
        <time>2021-08-10T17:43:10Z</time>
      </trkpt>
      <trkpt lat="48.11509" lon="4.38161">
        <ele>160.68</ele>
        <time>2021-08-10T17:43:21Z</time>
      </trkpt>
      <trkpt lat="48.11504" lon="4.38153">
        <ele>160.68</ele>
        <time>2021-08-10T17:43:41Z</time>
      </trkpt>
      <trkpt lat="48.11499" lon="4.38152">
        <ele>160.68</ele>
        <time>2021-08-10T17:43:56Z</time>
      </trkpt>
      <trkpt lat="48.11505" lon="4.38153">
        <ele>160.68</ele>
        <time>2021-08-10T17:44:10Z</time>
      </trkpt>
      <trkpt lat="48.11505" lon="4.38154">
        <ele>160.68</ele>
        <time>2021-08-10T17:44:27Z</time>
      </trkpt>
      <trkpt lat="48.11505" lon="4.38157">
        <ele>160.68</ele>
        <time>2021-08-10T17:44:42Z</time>
      </trkpt>
      <trkpt lat="48.11501" lon="4.38162">
        <ele>160.68</ele>
        <time>2021-08-10T17:44:57Z</time>
      </trkpt>
      <trkpt lat="48.11502" lon="4.38168">
        <ele>160.68</ele>
        <time>2021-08-10T17:45:17Z</time>
      </trkpt>
      <trkpt lat="48.11502" lon="4.38165">
        <ele>160.68</ele>
        <time>2021-08-10T17:45:40Z</time>
      </trkpt>
      <trkpt lat="48.11511" lon="4.38168">
        <ele>161.64</ele>
        <time>2021-08-10T17:46:02Z</time>
      </trkpt>
      <trkpt lat="48.11495" lon="4.38172">
        <ele>161.64</ele>
        <time>2021-08-10T17:46:24Z</time>
      </trkpt>
      <trkpt lat="48.11492" lon="4.38168">
        <ele>161.64</ele>
        <time>2021-08-10T17:46:48Z</time>
      </trkpt>
      <trkpt lat="48.11489" lon="4.38166">
        <ele>161.64</ele>
        <time>2021-08-10T17:47:03Z</time>
      </trkpt>
      <trkpt lat="48.11471" lon="4.38164">
        <ele>161.64</ele>
        <time>2021-08-10T17:47:24Z</time>
      </trkpt>
      <trkpt lat="48.11466" lon="4.3816">
        <ele>161.16</ele>
        <time>2021-08-10T17:47:40Z</time>
      </trkpt>
      <trkpt lat="48.11472" lon="4.38161">
        <ele>161.16</ele>
        <time>2021-08-10T17:47:58Z</time>
      </trkpt>
      <trkpt lat="48.11476" lon="4.38163">
        <ele>160.68</ele>
        <time>2021-08-10T17:48:13Z</time>
      </trkpt>
      <trkpt lat="48.11478" lon="4.38163">
        <ele>160.68</ele>
        <time>2021-08-10T17:48:34Z</time>
      </trkpt>
      <trkpt lat="48.11481" lon="4.38162">
        <ele>160.68</ele>
        <time>2021-08-10T17:48:50Z</time>
      </trkpt>
      <trkpt lat="48.11482" lon="4.38163">
        <ele>160.2</ele>
        <time>2021-08-10T17:49:12Z</time>
      </trkpt>
      <trkpt lat="48.11485" lon="4.38166">
        <ele>160.2</ele>
        <time>2021-08-10T17:49:31Z</time>
      </trkpt>
      <trkpt lat="48.11485" lon="4.3817">
        <ele>160.2</ele>
        <time>2021-08-10T17:49:53Z</time>
      </trkpt>
      <trkpt lat="48.11473" lon="4.38168">
        <ele>159.72</ele>
        <time>2021-08-10T17:50:16Z</time>
      </trkpt>
      <trkpt lat="48.11465" lon="4.38166">
        <ele>159.72</ele>
        <time>2021-08-10T17:50:31Z</time>
      </trkpt>
      <trkpt lat="48.11462" lon="4.38168">
        <ele>159.72</ele>
        <time>2021-08-10T17:50:52Z</time>
      </trkpt>
      <trkpt lat="48.11466" lon="4.3817">
        <ele>159.24</ele>
        <time>2021-08-10T17:51:12Z</time>
      </trkpt>
      <trkpt lat="48.11469" lon="4.3817">
        <ele>159.24</ele>
        <time>2021-08-10T17:51:29Z</time>
      </trkpt>
      <trkpt lat="48.11472" lon="4.38169">
        <ele>158.75</ele>
        <time>2021-08-10T17:51:41Z</time>
      </trkpt>
      <trkpt lat="48.1149" lon="4.38167">
        <ele>158.75</ele>
        <time>2021-08-10T17:52:06Z</time>
      </trkpt>
      <trkpt lat="48.11485" lon="4.38164">
        <ele>158.27</ele>
        <time>2021-08-10T17:52:28Z</time>
      </trkpt>
      <trkpt lat="48.11484" lon="4.38162">
        <ele>158.27</ele>
        <time>2021-08-10T17:52:44Z</time>
      </trkpt>
      <trkpt lat="48.11485" lon="4.3816">
        <ele>158.27</ele>
        <time>2021-08-10T17:52:56Z</time>
      </trkpt>
      <trkpt lat="48.11486" lon="4.38161">
        <ele>158.27</ele>
        <time>2021-08-10T17:53:08Z</time>
      </trkpt>
      <trkpt lat="48.11488" lon="4.38166">
        <ele>158.27</ele>
        <time>2021-08-10T17:53:24Z</time>
      </trkpt>
      <trkpt lat="48.11495" lon="4.38173">
        <ele>157.79</ele>
        <time>2021-08-10T17:53:47Z</time>
      </trkpt>
      <trkpt lat="48.11485" lon="4.38169">
        <ele>157.79</ele>
        <time>2021-08-10T17:54:11Z</time>
      </trkpt>
      <trkpt lat="48.11477" lon="4.38167">
        <ele>157.79</ele>
        <time>2021-08-10T17:54:29Z</time>
      </trkpt>
      <trkpt lat="48.11478" lon="4.38162">
        <ele>157.31</ele>
        <time>2021-08-10T17:54:44Z</time>
      </trkpt>
      <trkpt lat="48.1148" lon="4.38164">
        <ele>157.31</ele>
        <time>2021-08-10T17:55:01Z</time>
      </trkpt>
      <trkpt lat="48.11483" lon="4.38163">
        <ele>157.31</ele>
        <time>2021-08-10T17:55:19Z</time>
      </trkpt>
      <trkpt lat="48.11484" lon="4.38165">
        <ele>157.31</ele>
        <time>2021-08-10T17:55:38Z</time>
      </trkpt>
      <trkpt lat="48.11481" lon="4.38163">
        <ele>157.31</ele>
        <time>2021-08-10T17:55:55Z</time>
      </trkpt>
      <trkpt lat="48.11487" lon="4.38161">
        <ele>156.83</ele>
        <time>2021-08-10T17:56:15Z</time>
      </trkpt>
      <trkpt lat="48.11486" lon="4.3816">
        <ele>156.83</ele>
        <time>2021-08-10T17:56:27Z</time>
      </trkpt>
      <trkpt lat="48.11486" lon="4.38156">
        <ele>156.83</ele>
        <time>2021-08-10T17:56:47Z</time>
      </trkpt>
      <trkpt lat="48.11484" lon="4.38158">
        <ele>156.83</ele>
        <time>2021-08-10T17:57:04Z</time>
      </trkpt>
      <trkpt lat="48.11486" lon="4.38158">
        <ele>156.83</ele>
        <time>2021-08-10T17:57:18Z</time>
      </trkpt>
      <trkpt lat="48.1149" lon="4.38161">
        <ele>156.83</ele>
        <time>2021-08-10T17:57:34Z</time>
      </trkpt>
      <trkpt lat="48.11491" lon="4.38161">
        <ele>156.83</ele>
        <time>2021-08-10T17:57:44Z</time>
      </trkpt>
      <trkpt lat="48.115" lon="4.38167">
        <ele>156.83</ele>
        <time>2021-08-10T17:57:55Z</time>
      </trkpt>
      <trkpt lat="48.115" lon="4.38169">
        <ele>156.83</ele>
        <time>2021-08-10T17:58:07Z</time>
      </trkpt>
      <trkpt lat="48.11502" lon="4.38166">
        <ele>156.35</ele>
        <time>2021-08-10T17:58:20Z</time>
      </trkpt>
      <trkpt lat="48.11499" lon="4.38159">
        <ele>156.35</ele>
        <time>2021-08-10T17:58:34Z</time>
      </trkpt>
      <trkpt lat="48.11501" lon="4.38159">
        <ele>156.35</ele>
        <time>2021-08-10T17:58:44Z</time>
      </trkpt>
      <trkpt lat="48.11501" lon="4.38161">
        <ele>156.35</ele>
        <time>2021-08-10T17:59:06Z</time>
      </trkpt>
      <trkpt lat="48.11499" lon="4.38162">
        <ele>156.35</ele>
        <time>2021-08-10T17:59:21Z</time>
      </trkpt>
      <trkpt lat="48.11495" lon="4.38163">
        <ele>156.35</ele>
        <time>2021-08-10T17:59:30Z</time>
      </trkpt>
      <trkpt lat="48.11495" lon="4.38163">
        <ele>156.35</ele>
        <time>2021-08-10T17:59:42Z</time>
      </trkpt>
      <trkpt lat="48.11494" lon="4.38162">
        <ele>156.35</ele>
        <time>2021-08-10T17:59:52Z</time>
      </trkpt>
      <trkpt lat="48.11493" lon="4.38163">
        <ele>156.35</ele>
        <time>2021-08-10T18:00:08Z</time>
      </trkpt>
      <trkpt lat="48.1149" lon="4.38165">
        <ele>156.35</ele>
        <time>2021-08-10T18:00:15Z</time>
      </trkpt>
      <trkpt lat="48.11486" lon="4.38162">
        <ele>156.35</ele>
        <time>2021-08-10T18:00:33Z</time>
      </trkpt>
      <trkpt lat="48.11489" lon="4.38162">
        <ele>156.35</ele>
        <time>2021-08-10T18:00:48Z</time>
      </trkpt>
      <trkpt lat="48.11494" lon="4.38163">
        <ele>156.35</ele>
        <time>2021-08-10T18:01:00Z</time>
      </trkpt>
      <trkpt lat="48.11495" lon="4.38161">
        <ele>156.35</ele>
        <time>2021-08-10T18:01:12Z</time>
      </trkpt>
      <trkpt lat="48.11496" lon="4.38161">
        <ele>156.35</ele>
        <time>2021-08-10T18:01:28Z</time>
      </trkpt>
      <trkpt lat="48.11491" lon="4.38161">
        <ele>156.35</ele>
        <time>2021-08-10T18:01:45Z</time>
      </trkpt>
      <trkpt lat="48.11491" lon="4.38159">
        <ele>156.83</ele>
        <time>2021-08-10T18:02:11Z</time>
      </trkpt>
      <trkpt lat="48.11494" lon="4.38158">
        <ele>156.83</ele>
        <time>2021-08-10T18:02:26Z</time>
      </trkpt>
      <trkpt lat="48.11493" lon="4.3816">
        <ele>156.83</ele>
        <time>2021-08-10T18:02:39Z</time>
      </trkpt>
      <trkpt lat="48.11492" lon="4.38159">
        <ele>156.83</ele>
        <time>2021-08-10T18:02:50Z</time>
      </trkpt>
      <trkpt lat="48.1149" lon="4.38158">
        <ele>156.83</ele>
        <time>2021-08-10T18:03:08Z</time>
      </trkpt>
      <trkpt lat="48.11489" lon="4.38157">
        <ele>156.83</ele>
        <time>2021-08-10T18:03:20Z</time>
      </trkpt>
      <trkpt lat="48.11495" lon="4.38159">
        <ele>156.83</ele>
        <time>2021-08-10T18:03:35Z</time>
      </trkpt>
      <trkpt lat="48.11502" lon="4.38164">
        <ele>156.83</ele>
        <time>2021-08-10T18:03:57Z</time>
      </trkpt>
      <trkpt lat="48.115" lon="4.38165">
        <ele>156.83</ele>
        <time>2021-08-10T18:04:15Z</time>
      </trkpt>
      <trkpt lat="48.11505" lon="4.38161">
        <ele>156.83</ele>
        <time>2021-08-10T18:04:41Z</time>
      </trkpt>
      <trkpt lat="48.11508" lon="4.38162">
        <ele>156.83</ele>
        <time>2021-08-10T18:04:59Z</time>
      </trkpt>
      <trkpt lat="48.11506" lon="4.38157">
        <ele>156.83</ele>
        <time>2021-08-10T18:05:14Z</time>
      </trkpt>
      <trkpt lat="48.11501" lon="4.38157">
        <ele>156.83</ele>
        <time>2021-08-10T18:05:32Z</time>
      </trkpt>
      <trkpt lat="48.11495" lon="4.38158">
        <ele>156.83</ele>
        <time>2021-08-10T18:05:45Z</time>
      </trkpt>
      <trkpt lat="48.11494" lon="4.38157">
        <ele>156.83</ele>
        <time>2021-08-10T18:05:55Z</time>
      </trkpt>
      <trkpt lat="48.11496" lon="4.38162">
        <ele>156.83</ele>
        <time>2021-08-10T18:06:07Z</time>
      </trkpt>
      <trkpt lat="48.11505" lon="4.38165">
        <ele>156.83</ele>
        <time>2021-08-10T18:06:24Z</time>
      </trkpt>
      <trkpt lat="48.11499" lon="4.38161">
        <ele>155.87</ele>
        <time>2021-08-10T18:06:48Z</time>
      </trkpt>
      <trkpt lat="48.11494" lon="4.38161">
        <ele>155.87</ele>
        <time>2021-08-10T18:07:06Z</time>
      </trkpt>
      <trkpt lat="48.11494" lon="4.38161">
        <ele>155.87</ele>
        <time>2021-08-10T18:07:23Z</time>
      </trkpt>
      <trkpt lat="48.11491" lon="4.38163">
        <ele>155.87</ele>
        <time>2021-08-10T18:07:41Z</time>
      </trkpt>
      <trkpt lat="48.1149" lon="4.38165">
        <ele>155.87</ele>
        <time>2021-08-10T18:07:59Z</time>
      </trkpt>
      <trkpt lat="48.11489" lon="4.38162">
        <ele>155.87</ele>
        <time>2021-08-10T18:08:14Z</time>
      </trkpt>
      <trkpt lat="48.1149" lon="4.38159">
        <ele>155.87</ele>
        <time>2021-08-10T18:08:34Z</time>
      </trkpt>
      <trkpt lat="48.11489" lon="4.38159">
        <ele>155.87</ele>
        <time>2021-08-10T18:08:52Z</time>
      </trkpt>
      <trkpt lat="48.11491" lon="4.38164">
        <ele>155.87</ele>
        <time>2021-08-10T18:09:07Z</time>
      </trkpt>
      <trkpt lat="48.11493" lon="4.38164">
        <ele>155.87</ele>
        <time>2021-08-10T18:09:20Z</time>
      </trkpt>
      <trkpt lat="48.11493" lon="4.38165">
        <ele>155.39</ele>
        <time>2021-08-10T18:09:35Z</time>
      </trkpt>
      <trkpt lat="48.11491" lon="4.38165">
        <ele>155.39</ele>
        <time>2021-08-10T18:09:51Z</time>
      </trkpt>
      <trkpt lat="48.11488" lon="4.38164">
        <ele>155.39</ele>
        <time>2021-08-10T18:10:03Z</time>
      </trkpt>
      <trkpt lat="48.11485" lon="4.38163">
        <ele>155.39</ele>
        <time>2021-08-10T18:10:20Z</time>
      </trkpt>
      <trkpt lat="48.11484" lon="4.38164">
        <ele>155.39</ele>
        <time>2021-08-10T18:10:37Z</time>
      </trkpt>
      <trkpt lat="48.11484" lon="4.38164">
        <ele>155.39</ele>
        <time>2021-08-10T18:10:49Z</time>
      </trkpt>
      <trkpt lat="48.11487" lon="4.38163">
        <ele>155.39</ele>
        <time>2021-08-10T18:11:04Z</time>
      </trkpt>
      <trkpt lat="48.11489" lon="4.38166">
        <ele>155.39</ele>
        <time>2021-08-10T18:11:24Z</time>
      </trkpt>
      <trkpt lat="48.11491" lon="4.38164">
        <ele>155.39</ele>
        <time>2021-08-10T18:11:41Z</time>
      </trkpt>
      <trkpt lat="48.1149" lon="4.38166">
        <ele>154.91</ele>
        <time>2021-08-10T18:11:58Z</time>
      </trkpt>
      <trkpt lat="48.11493" lon="4.38166">
        <ele>154.91</ele>
        <time>2021-08-10T18:12:10Z</time>
      </trkpt>
      <trkpt lat="48.11495" lon="4.38164">
        <ele>154.91</ele>
        <time>2021-08-10T18:12:29Z</time>
      </trkpt>
      <trkpt lat="48.11499" lon="4.38165">
        <ele>154.91</ele>
        <time>2021-08-10T18:12:46Z</time>
      </trkpt>
      <trkpt lat="48.115" lon="4.38168">
        <ele>155.39</ele>
        <time>2021-08-10T18:13:09Z</time>
      </trkpt>
      <trkpt lat="48.115" lon="4.38168">
        <ele>155.39</ele>
        <time>2021-08-10T18:13:24Z</time>
      </trkpt>
      <trkpt lat="48.11501" lon="4.38169">
        <ele>155.39</ele>
        <time>2021-08-10T18:13:41Z</time>
      </trkpt>
      <trkpt lat="48.115" lon="4.38168">
        <ele>155.39</ele>
        <time>2021-08-10T18:14:00Z</time>
      </trkpt>
      <trkpt lat="48.11499" lon="4.38167">
        <ele>155.39</ele>
        <time>2021-08-10T18:14:14Z</time>
      </trkpt>
      <trkpt lat="48.11498" lon="4.38164">
        <ele>155.39</ele>
        <time>2021-08-10T18:14:29Z</time>
      </trkpt>
      <trkpt lat="48.11493" lon="4.38164">
        <ele>155.39</ele>
        <time>2021-08-10T18:14:45Z</time>
      </trkpt>
      <trkpt lat="48.11495" lon="4.38161">
        <ele>155.39</ele>
        <time>2021-08-10T18:15:01Z</time>
      </trkpt>
      <trkpt lat="48.11497" lon="4.38164">
        <ele>155.39</ele>
        <time>2021-08-10T18:15:17Z</time>
      </trkpt>
      <trkpt lat="48.11504" lon="4.38164">
        <ele>155.39</ele>
        <time>2021-08-10T18:15:31Z</time>
      </trkpt>
      <trkpt lat="48.11503" lon="4.38167">
        <ele>155.39</ele>
        <time>2021-08-10T18:15:48Z</time>
      </trkpt>
      <trkpt lat="48.11503" lon="4.38167">
        <ele>155.39</ele>
        <time>2021-08-10T18:16:06Z</time>
      </trkpt>
      <trkpt lat="48.11499" lon="4.38167">
        <ele>155.39</ele>
        <time>2021-08-10T18:16:21Z</time>
      </trkpt>
      <trkpt lat="48.11496" lon="4.38167">
        <ele>155.39</ele>
        <time>2021-08-10T18:16:37Z</time>
      </trkpt>
      <trkpt lat="48.11494" lon="4.38165">
        <ele>155.39</ele>
        <time>2021-08-10T18:16:53Z</time>
      </trkpt>
      <trkpt lat="48.11496" lon="4.38169">
        <ele>155.39</ele>
        <time>2021-08-10T18:17:13Z</time>
      </trkpt>
      <trkpt lat="48.11496" lon="4.38172">
        <ele>155.39</ele>
        <time>2021-08-10T18:17:30Z</time>
      </trkpt>
      <trkpt lat="48.11494" lon="4.38172">
        <ele>155.39</ele>
        <time>2021-08-10T18:17:45Z</time>
      </trkpt>
      <trkpt lat="48.11498" lon="4.3817">
        <ele>155.39</ele>
        <time>2021-08-10T18:17:56Z</time>
      </trkpt>
      <trkpt lat="48.11507" lon="4.38173">
        <ele>155.39</ele>
        <time>2021-08-10T18:18:15Z</time>
      </trkpt>
      <trkpt lat="48.11507" lon="4.38169">
        <ele>154.91</ele>
        <time>2021-08-10T18:18:34Z</time>
      </trkpt>
      <trkpt lat="48.11504" lon="4.38169">
        <ele>154.91</ele>
        <time>2021-08-10T18:18:50Z</time>
      </trkpt>
      <trkpt lat="48.11497" lon="4.38171">
        <ele>154.91</ele>
        <time>2021-08-10T18:19:07Z</time>
      </trkpt>
      <trkpt lat="48.11492" lon="4.3817">
        <ele>154.91</ele>
        <time>2021-08-10T18:19:22Z</time>
      </trkpt>
      <trkpt lat="48.11491" lon="4.38169">
        <ele>154.91</ele>
        <time>2021-08-10T18:19:39Z</time>
      </trkpt>
      <trkpt lat="48.1149" lon="4.38166">
        <ele>154.91</ele>
        <time>2021-08-10T18:19:52Z</time>
      </trkpt>
      <trkpt lat="48.11488" lon="4.38164">
        <ele>154.91</ele>
        <time>2021-08-10T18:20:09Z</time>
      </trkpt>
      <trkpt lat="48.11486" lon="4.38168">
        <ele>154.91</ele>
        <time>2021-08-10T18:20:22Z</time>
      </trkpt>
      <trkpt lat="48.11489" lon="4.38167">
        <ele>154.43</ele>
        <time>2021-08-10T18:20:35Z</time>
      </trkpt>
      <trkpt lat="48.11489" lon="4.3817">
        <ele>154.43</ele>
        <time>2021-08-10T18:20:43Z</time>
      </trkpt>
      <trkpt lat="48.11492" lon="4.38174">
        <ele>154.43</ele>
        <time>2021-08-10T18:20:46Z</time>
      </trkpt>
      <trkpt lat="48.11491" lon="4.38176">
        <ele>154.43</ele>
        <time>2021-08-10T18:20:47Z</time>
      </trkpt>
      <trkpt lat="48.1149" lon="4.38178">
        <ele>154.43</ele>
        <time>2021-08-10T18:20:48Z</time>
      </trkpt>
      <trkpt lat="48.11488" lon="4.38177">
        <ele>154.43</ele>
        <time>2021-08-10T18:20:49Z</time>
      </trkpt>
      <trkpt lat="48.11484" lon="4.38167">
        <ele>154.43</ele>
        <time>2021-08-10T18:20:55Z</time>
      </trkpt>
      <trkpt lat="48.11484" lon="4.38166">
        <ele>154.43</ele>
        <time>2021-08-10T18:20:56Z</time>
      </trkpt>
      <trkpt lat="48.11497" lon="4.3817">
        <ele>153.95</ele>
        <time>2021-08-10T18:21:01Z</time>
      </trkpt>
      <trkpt lat="48.11501" lon="4.38172">
        <ele>154.43</ele>
        <time>2021-08-10T18:21:02Z</time>
      </trkpt>
      <trkpt lat="48.11504" lon="4.38176">
        <ele>154.43</ele>
        <time>2021-08-10T18:21:03Z</time>
      </trkpt>
      <trkpt lat="48.11506" lon="4.3818">
        <ele>154.43</ele>
        <time>2021-08-10T18:21:04Z</time>
      </trkpt>
      <trkpt lat="48.11508" lon="4.38183">
        <ele>154.43</ele>
        <time>2021-08-10T18:21:05Z</time>
      </trkpt>
      <trkpt lat="48.11524" lon="4.38195">
        <ele>154.43</ele>
        <time>2021-08-10T18:21:10Z</time>
      </trkpt>
      <trkpt lat="48.11542" lon="4.38192">
        <ele>154.43</ele>
        <time>2021-08-10T18:21:15Z</time>
      </trkpt>
      <trkpt lat="48.11553" lon="4.3819">
        <ele>154.43</ele>
        <time>2021-08-10T18:21:18Z</time>
      </trkpt>
      <trkpt lat="48.11556" lon="4.38192">
        <ele>154.43</ele>
        <time>2021-08-10T18:21:19Z</time>
      </trkpt>
      <trkpt lat="48.11559" lon="4.38197">
        <ele>154.43</ele>
        <time>2021-08-10T18:21:20Z</time>
      </trkpt>
      <trkpt lat="48.11561" lon="4.38202">
        <ele>154.43</ele>
        <time>2021-08-10T18:21:21Z</time>
      </trkpt>
      <trkpt lat="48.11563" lon="4.38208">
        <ele>154.43</ele>
        <time>2021-08-10T18:21:22Z</time>
      </trkpt>
      <trkpt lat="48.11564" lon="4.38214">
        <ele>154.43</ele>
        <time>2021-08-10T18:21:23Z</time>
      </trkpt>
      <trkpt lat="48.11565" lon="4.38219">
        <ele>154.43</ele>
        <time>2021-08-10T18:21:24Z</time>
      </trkpt>
      <trkpt lat="48.11567" lon="4.38223">
        <ele>154.43</ele>
        <time>2021-08-10T18:21:25Z</time>
      </trkpt>
      <trkpt lat="48.1157" lon="4.38226">
        <ele>154.43</ele>
        <time>2021-08-10T18:21:26Z</time>
      </trkpt>
      <trkpt lat="48.11572" lon="4.38228">
        <ele>154.43</ele>
        <time>2021-08-10T18:21:27Z</time>
      </trkpt>
      <trkpt lat="48.11576" lon="4.3823">
        <ele>154.43</ele>
        <time>2021-08-10T18:21:28Z</time>
      </trkpt>
      <trkpt lat="48.11578" lon="4.3823">
        <ele>154.43</ele>
        <time>2021-08-10T18:21:29Z</time>
      </trkpt>
      <trkpt lat="48.11581" lon="4.38229">
        <ele>154.43</ele>
        <time>2021-08-10T18:21:30Z</time>
      </trkpt>
      <trkpt lat="48.11594" lon="4.3822">
        <ele>154.43</ele>
        <time>2021-08-10T18:21:35Z</time>
      </trkpt>
      <trkpt lat="48.11596" lon="4.38216">
        <ele>154.43</ele>
        <time>2021-08-10T18:21:36Z</time>
      </trkpt>
      <trkpt lat="48.11597" lon="4.38211">
        <ele>154.43</ele>
        <time>2021-08-10T18:21:37Z</time>
      </trkpt>
      <trkpt lat="48.11596" lon="4.38205">
        <ele>154.43</ele>
        <time>2021-08-10T18:21:38Z</time>
      </trkpt>
      <trkpt lat="48.11595" lon="4.38201">
        <ele>154.43</ele>
        <time>2021-08-10T18:21:39Z</time>
      </trkpt>
      <trkpt lat="48.11595" lon="4.38196">
        <ele>154.43</ele>
        <time>2021-08-10T18:21:40Z</time>
      </trkpt>
      <trkpt lat="48.11594" lon="4.38191">
        <ele>154.43</ele>
        <time>2021-08-10T18:21:41Z</time>
      </trkpt>
      <trkpt lat="48.11585" lon="4.38128">
        <ele>154.43</ele>
        <time>2021-08-10T18:21:51Z</time>
      </trkpt>
      <trkpt lat="48.11571" lon="4.38054">
        <ele>154.43</ele>
        <time>2021-08-10T18:22:03Z</time>
      </trkpt>
      <trkpt lat="48.11571" lon="4.38053">
        <ele>155.39</ele>
        <time>2021-08-10T18:22:07Z</time>
      </trkpt>
      <trkpt lat="48.1157" lon="4.38047">
        <ele>155.39</ele>
        <time>2021-08-10T18:22:11Z</time>
      </trkpt>
      <trkpt lat="48.11568" lon="4.38044">
        <ele>155.39</ele>
        <time>2021-08-10T18:22:12Z</time>
      </trkpt>
      <trkpt lat="48.11567" lon="4.3804">
        <ele>155.39</ele>
        <time>2021-08-10T18:22:13Z</time>
      </trkpt>
      <trkpt lat="48.1156" lon="4.38002">
        <ele>155.39</ele>
        <time>2021-08-10T18:22:20Z</time>
      </trkpt>
      <trkpt lat="48.1155" lon="4.37949">
        <ele>154.43</ele>
        <time>2021-08-10T18:22:28Z</time>
      </trkpt>
      <trkpt lat="48.11534" lon="4.37864">
        <ele>154.43</ele>
        <time>2021-08-10T18:22:41Z</time>
      </trkpt>
      <trkpt lat="48.1152" lon="4.37811">
        <ele>156.35</ele>
        <time>2021-08-10T18:22:51Z</time>
      </trkpt>
      <trkpt lat="48.11503" lon="4.37748">
        <ele>156.35</ele>
        <time>2021-08-10T18:23:02Z</time>
      </trkpt>
      <trkpt lat="48.11491" lon="4.37698">
        <ele>156.35</ele>
        <time>2021-08-10T18:23:11Z</time>
      </trkpt>
      <trkpt lat="48.1149" lon="4.37696">
        <ele>156.35</ele>
        <time>2021-08-10T18:23:16Z</time>
      </trkpt>
      <trkpt lat="48.1149" lon="4.37696">
        <ele>154.91</ele>
        <time>2021-08-10T18:23:22Z</time>
      </trkpt>
      <trkpt lat="48.11489" lon="4.37696">
        <ele>154.91</ele>
        <time>2021-08-10T18:23:41Z</time>
      </trkpt>
      <trkpt lat="48.1149" lon="4.37694">
        <ele>154.91</ele>
        <time>2021-08-10T18:23:52Z</time>
      </trkpt>
      <trkpt lat="48.11487" lon="4.37687">
        <ele>154.91</ele>
        <time>2021-08-10T18:23:59Z</time>
      </trkpt>
      <trkpt lat="48.11485" lon="4.37689">
        <ele>154.91</ele>
        <time>2021-08-10T18:24:16Z</time>
      </trkpt>
      <trkpt lat="48.1148" lon="4.37666">
        <ele>154.91</ele>
        <time>2021-08-10T18:24:22Z</time>
      </trkpt>
      <trkpt lat="48.11468" lon="4.37632">
        <ele>154.91</ele>
        <time>2021-08-10T18:24:29Z</time>
      </trkpt>
      <trkpt lat="48.11461" lon="4.37605">
        <ele>154.91</ele>
        <time>2021-08-10T18:24:35Z</time>
      </trkpt>
      <trkpt lat="48.1146" lon="4.37604">
        <ele>154.91</ele>
        <time>2021-08-10T18:24:41Z</time>
      </trkpt>
      <trkpt lat="48.11461" lon="4.37607">
        <ele>154.91</ele>
        <time>2021-08-10T18:24:49Z</time>
      </trkpt>
      <trkpt lat="48.11462" lon="4.37607">
        <ele>154.91</ele>
        <time>2021-08-10T18:24:57Z</time>
      </trkpt>
      <trkpt lat="48.11462" lon="4.37606">
        <ele>154.91</ele>
        <time>2021-08-10T18:25:11Z</time>
      </trkpt>
      <trkpt lat="48.11461" lon="4.37607">
        <ele>154.91</ele>
        <time>2021-08-10T18:25:31Z</time>
      </trkpt>
      <trkpt lat="48.11462" lon="4.37607">
        <ele>154.91</ele>
        <time>2021-08-10T18:25:44Z</time>
      </trkpt>
      <trkpt lat="48.11462" lon="4.37607">
        <ele>154.43</ele>
        <time>2021-08-10T18:26:02Z</time>
      </trkpt>
      <trkpt lat="48.11462" lon="4.37608">
        <ele>154.43</ele>
        <time>2021-08-10T18:26:11Z</time>
      </trkpt>
      <trkpt lat="48.11464" lon="4.37609">
        <ele>154.43</ele>
        <time>2021-08-10T18:26:31Z</time>
      </trkpt>
      <trkpt lat="48.11465" lon="4.37607">
        <ele>154.43</ele>
        <time>2021-08-10T18:26:33Z</time>
      </trkpt>
      <trkpt lat="48.11465" lon="4.37605">
        <ele>154.43</ele>
        <time>2021-08-10T18:26:34Z</time>
      </trkpt>
      <trkpt lat="48.11464" lon="4.37602">
        <ele>154.43</ele>
        <time>2021-08-10T18:26:35Z</time>
      </trkpt>
      <trkpt lat="48.11463" lon="4.37599">
        <ele>154.43</ele>
        <time>2021-08-10T18:26:36Z</time>
      </trkpt>
      <trkpt lat="48.11463" lon="4.37595">
        <ele>154.43</ele>
        <time>2021-08-10T18:26:37Z</time>
      </trkpt>
      <trkpt lat="48.11457" lon="4.37562">
        <ele>154.43</ele>
        <time>2021-08-10T18:26:44Z</time>
      </trkpt>
      <trkpt lat="48.11448" lon="4.3752">
        <ele>154.43</ele>
        <time>2021-08-10T18:26:52Z</time>
      </trkpt>
      <trkpt lat="48.11439" lon="4.37482">
        <ele>155.87</ele>
        <time>2021-08-10T18:26:59Z</time>
      </trkpt>
      <trkpt lat="48.1143" lon="4.37446">
        <ele>156.35</ele>
        <time>2021-08-10T18:27:07Z</time>
      </trkpt>
      <trkpt lat="48.11422" lon="4.37414">
        <ele>157.31</ele>
        <time>2021-08-10T18:27:15Z</time>
      </trkpt>
      <trkpt lat="48.1142" lon="4.37399">
        <ele>156.83</ele>
        <time>2021-08-10T18:27:19Z</time>
      </trkpt>
      <trkpt lat="48.11421" lon="4.37397">
        <ele>156.83</ele>
        <time>2021-08-10T18:27:20Z</time>
      </trkpt>
      <trkpt lat="48.11422" lon="4.37396">
        <ele>156.83</ele>
        <time>2021-08-10T18:27:21Z</time>
      </trkpt>
      <trkpt lat="48.1144" lon="4.37393">
        <ele>157.31</ele>
        <time>2021-08-10T18:27:28Z</time>
      </trkpt>
      <trkpt lat="48.11445" lon="4.37386">
        <ele>157.31</ele>
        <time>2021-08-10T18:27:31Z</time>
      </trkpt>
      <trkpt lat="48.11443" lon="4.37381">
        <ele>157.31</ele>
        <time>2021-08-10T18:27:34Z</time>
      </trkpt>
      <trkpt lat="48.11442" lon="4.3738">
        <ele>157.79</ele>
        <time>2021-08-10T18:27:40Z</time>
      </trkpt>
      <trkpt lat="48.11442" lon="4.37381">
        <ele>157.79</ele>
        <time>2021-08-10T18:27:46Z</time>
      </trkpt>
      <trkpt lat="48.11441" lon="4.37383">
        <ele>157.79</ele>
        <time>2021-08-10T18:27:47Z</time>
      </trkpt>
      <trkpt lat="48.11439" lon="4.37384">
        <ele>157.79</ele>
        <time>2021-08-10T18:27:48Z</time>
      </trkpt>
      <trkpt lat="48.11437" lon="4.37385">
        <ele>157.79</ele>
        <time>2021-08-10T18:27:49Z</time>
      </trkpt>
      <trkpt lat="48.11435" lon="4.37385">
        <ele>157.79</ele>
        <time>2021-08-10T18:27:50Z</time>
      </trkpt>
      <trkpt lat="48.11433" lon="4.37386">
        <ele>157.79</ele>
        <time>2021-08-10T18:27:51Z</time>
      </trkpt>
      <trkpt lat="48.11431" lon="4.37387">
        <ele>157.79</ele>
        <time>2021-08-10T18:27:52Z</time>
      </trkpt>
      <trkpt lat="48.11428" lon="4.37389">
        <ele>157.79</ele>
        <time>2021-08-10T18:27:53Z</time>
      </trkpt>
      <trkpt lat="48.11418" lon="4.37394">
        <ele>157.79</ele>
        <time>2021-08-10T18:27:57Z</time>
      </trkpt>
      <trkpt lat="48.11416" lon="4.37395">
        <ele>157.79</ele>
        <time>2021-08-10T18:27:58Z</time>
      </trkpt>
      <trkpt lat="48.11414" lon="4.37395">
        <ele>157.79</ele>
        <time>2021-08-10T18:27:59Z</time>
      </trkpt>
      <trkpt lat="48.11414" lon="4.37393">
        <ele>157.79</ele>
        <time>2021-08-10T18:28:00Z</time>
      </trkpt>
      <trkpt lat="48.11413" lon="4.3739">
        <ele>157.79</ele>
        <time>2021-08-10T18:28:01Z</time>
      </trkpt>
      <trkpt lat="48.11412" lon="4.37387">
        <ele>157.79</ele>
        <time>2021-08-10T18:28:02Z</time>
      </trkpt>
      <trkpt lat="48.11412" lon="4.37384">
        <ele>157.79</ele>
        <time>2021-08-10T18:28:03Z</time>
      </trkpt>
      <trkpt lat="48.11412" lon="4.3738">
        <ele>157.79</ele>
        <time>2021-08-10T18:28:04Z</time>
      </trkpt>
      <trkpt lat="48.11411" lon="4.37376">
        <ele>157.79</ele>
        <time>2021-08-10T18:28:05Z</time>
      </trkpt>
      <trkpt lat="48.11411" lon="4.37373">
        <ele>158.27</ele>
        <time>2021-08-10T18:28:06Z</time>
      </trkpt>
      <trkpt lat="48.11409" lon="4.37355">
        <ele>158.27</ele>
        <time>2021-08-10T18:28:11Z</time>
      </trkpt>
      <trkpt lat="48.1141" lon="4.37352">
        <ele>158.27</ele>
        <time>2021-08-10T18:28:12Z</time>
      </trkpt>
      <trkpt lat="48.11412" lon="4.3735">
        <ele>158.27</ele>
        <time>2021-08-10T18:28:13Z</time>
      </trkpt>
      <trkpt lat="48.11415" lon="4.37349">
        <ele>158.27</ele>
        <time>2021-08-10T18:28:14Z</time>
      </trkpt>
      <trkpt lat="48.11417" lon="4.37348">
        <ele>158.27</ele>
        <time>2021-08-10T18:28:15Z</time>
      </trkpt>
      <trkpt lat="48.11443" lon="4.37337">
        <ele>158.27</ele>
        <time>2021-08-10T18:28:24Z</time>
      </trkpt>
      <trkpt lat="48.11471" lon="4.37322">
        <ele>159.24</ele>
        <time>2021-08-10T18:28:33Z</time>
      </trkpt>
      <trkpt lat="48.11497" lon="4.3731">
        <ele>159.24</ele>
        <time>2021-08-10T18:28:41Z</time>
      </trkpt>
      <trkpt lat="48.11528" lon="4.37299">
        <ele>159.72</ele>
        <time>2021-08-10T18:28:50Z</time>
      </trkpt>
      <trkpt lat="48.11542" lon="4.3729">
        <ele>159.72</ele>
        <time>2021-08-10T18:28:55Z</time>
      </trkpt>
      <trkpt lat="48.11543" lon="4.37286">
        <ele>159.72</ele>
        <time>2021-08-10T18:28:56Z</time>
      </trkpt>
      <trkpt lat="48.11543" lon="4.37282">
        <ele>159.72</ele>
        <time>2021-08-10T18:28:57Z</time>
      </trkpt>
      <trkpt lat="48.11543" lon="4.37278">
        <ele>159.72</ele>
        <time>2021-08-10T18:28:58Z</time>
      </trkpt>
      <trkpt lat="48.11542" lon="4.37275">
        <ele>160.2</ele>
        <time>2021-08-10T18:28:59Z</time>
      </trkpt>
      <trkpt lat="48.11541" lon="4.37272">
        <ele>160.2</ele>
        <time>2021-08-10T18:29:00Z</time>
      </trkpt>
      <trkpt lat="48.11534" lon="4.37256">
        <ele>161.64</ele>
        <time>2021-08-10T18:29:08Z</time>
      </trkpt>
      <trkpt lat="48.11526" lon="4.37239">
        <ele>163.08</ele>
        <time>2021-08-10T18:29:17Z</time>
      </trkpt>
      <trkpt lat="48.11516" lon="4.37223">
        <ele>164.52</ele>
        <time>2021-08-10T18:29:27Z</time>
      </trkpt>
      <trkpt lat="48.11503" lon="4.37208">
        <ele>166.45</ele>
        <time>2021-08-10T18:29:38Z</time>
      </trkpt>
      <trkpt lat="48.1149" lon="4.37194">
        <ele>167.41</ele>
        <time>2021-08-10T18:29:48Z</time>
      </trkpt>
      <trkpt lat="48.11475" lon="4.37178">
        <ele>168.85</ele>
        <time>2021-08-10T18:30:00Z</time>
      </trkpt>
      <trkpt lat="48.11465" lon="4.37171">
        <ele>170.29</ele>
        <time>2021-08-10T18:30:08Z</time>
      </trkpt>
      <trkpt lat="48.11451" lon="4.37159">
        <ele>171.25</ele>
        <time>2021-08-10T18:30:19Z</time>
      </trkpt>
      <trkpt lat="48.11436" lon="4.37147">
        <ele>172.69</ele>
        <time>2021-08-10T18:30:30Z</time>
      </trkpt>
      <trkpt lat="48.11423" lon="4.37137">
        <ele>174.62</ele>
        <time>2021-08-10T18:30:40Z</time>
      </trkpt>
      <trkpt lat="48.11418" lon="4.37134">
        <ele>175.1</ele>
        <time>2021-08-10T18:30:44Z</time>
      </trkpt>
      <trkpt lat="48.11417" lon="4.37133">
        <ele>175.58</ele>
        <time>2021-08-10T18:30:45Z</time>
      </trkpt>
      <trkpt lat="48.11415" lon="4.37132">
        <ele>175.58</ele>
        <time>2021-08-10T18:30:46Z</time>
      </trkpt>
      <trkpt lat="48.11414" lon="4.37132">
        <ele>175.58</ele>
        <time>2021-08-10T18:30:47Z</time>
      </trkpt>
      <trkpt lat="48.11412" lon="4.37131">
        <ele>175.58</ele>
        <time>2021-08-10T18:30:48Z</time>
      </trkpt>
      <trkpt lat="48.1141" lon="4.3713">
        <ele>176.06</ele>
        <time>2021-08-10T18:30:49Z</time>
      </trkpt>
      <trkpt lat="48.11409" lon="4.37129">
        <ele>176.06</ele>
        <time>2021-08-10T18:30:50Z</time>
      </trkpt>
      <trkpt lat="48.11402" lon="4.37124">
        <ele>176.54</ele>
        <time>2021-08-10T18:30:55Z</time>
      </trkpt>
      <trkpt lat="48.114" lon="4.37122">
        <ele>176.54</ele>
        <time>2021-08-10T18:30:56Z</time>
      </trkpt>
      <trkpt lat="48.11399" lon="4.3712">
        <ele>177.02</ele>
        <time>2021-08-10T18:30:57Z</time>
      </trkpt>
      <trkpt lat="48.11398" lon="4.3712">
        <ele>177.02</ele>
        <time>2021-08-10T18:30:58Z</time>
      </trkpt>
      <trkpt lat="48.11396" lon="4.37119">
        <ele>177.02</ele>
        <time>2021-08-10T18:30:59Z</time>
      </trkpt>
      <trkpt lat="48.11395" lon="4.37119">
        <ele>177.5</ele>
        <time>2021-08-10T18:31:00Z</time>
      </trkpt>
      <trkpt lat="48.11386" lon="4.37119">
        <ele>177.5</ele>
        <time>2021-08-10T18:31:04Z</time>
      </trkpt>
      <trkpt lat="48.11373" lon="4.37115">
        <ele>178.94</ele>
        <time>2021-08-10T18:31:13Z</time>
      </trkpt>
      <trkpt lat="48.11362" lon="4.37103">
        <ele>180.87</ele>
        <time>2021-08-10T18:31:23Z</time>
      </trkpt>
      <trkpt lat="48.11351" lon="4.37096">
        <ele>181.83</ele>
        <time>2021-08-10T18:31:31Z</time>
      </trkpt>
      <trkpt lat="48.11341" lon="4.37092">
        <ele>182.31</ele>
        <time>2021-08-10T18:31:37Z</time>
      </trkpt>
      <trkpt lat="48.1134" lon="4.37091">
        <ele>182.31</ele>
        <time>2021-08-10T18:31:38Z</time>
      </trkpt>
      <trkpt lat="48.11339" lon="4.3709">
        <ele>182.31</ele>
        <time>2021-08-10T18:31:39Z</time>
      </trkpt>
      <trkpt lat="48.11325" lon="4.37082">
        <ele>183.75</ele>
        <time>2021-08-10T18:31:47Z</time>
      </trkpt>
      <trkpt lat="48.11307" lon="4.37073">
        <ele>185.19</ele>
        <time>2021-08-10T18:31:57Z</time>
      </trkpt>
      <trkpt lat="48.11293" lon="4.37067">
        <ele>186.15</ele>
        <time>2021-08-10T18:32:05Z</time>
      </trkpt>
      <trkpt lat="48.11272" lon="4.37063">
        <ele>187.59</ele>
        <time>2021-08-10T18:32:16Z</time>
      </trkpt>
      <trkpt lat="48.11256" lon="4.37057">
        <ele>188.56</ele>
        <time>2021-08-10T18:32:25Z</time>
      </trkpt>
      <trkpt lat="48.11244" lon="4.37051">
        <ele>190</ele>
        <time>2021-08-10T18:32:33Z</time>
      </trkpt>
      <trkpt lat="48.11228" lon="4.37043">
        <ele>191.44</ele>
        <time>2021-08-10T18:32:42Z</time>
      </trkpt>
      <trkpt lat="48.11217" lon="4.37037">
        <ele>192.4</ele>
        <time>2021-08-10T18:32:49Z</time>
      </trkpt>
      <trkpt lat="48.11201" lon="4.37023">
        <ele>194.32</ele>
        <time>2021-08-10T18:32:59Z</time>
      </trkpt>
      <trkpt lat="48.11189" lon="4.37013">
        <ele>195.28</ele>
        <time>2021-08-10T18:33:07Z</time>
      </trkpt>
      <trkpt lat="48.11175" lon="4.37">
        <ele>196.25</ele>
        <time>2021-08-10T18:33:15Z</time>
      </trkpt>
      <trkpt lat="48.11164" lon="4.36989">
        <ele>197.69</ele>
        <time>2021-08-10T18:33:23Z</time>
      </trkpt>
      <trkpt lat="48.11155" lon="4.36979">
        <ele>198.65</ele>
        <time>2021-08-10T18:33:29Z</time>
      </trkpt>
      <trkpt lat="48.11154" lon="4.36977">
        <ele>198.65</ele>
        <time>2021-08-10T18:33:30Z</time>
      </trkpt>
      <trkpt lat="48.11153" lon="4.36975">
        <ele>198.65</ele>
        <time>2021-08-10T18:33:31Z</time>
      </trkpt>
      <trkpt lat="48.11152" lon="4.36973">
        <ele>198.65</ele>
        <time>2021-08-10T18:33:32Z</time>
      </trkpt>
      <trkpt lat="48.11152" lon="4.3697">
        <ele>199.13</ele>
        <time>2021-08-10T18:33:33Z</time>
      </trkpt>
      <trkpt lat="48.11151" lon="4.36968">
        <ele>199.13</ele>
        <time>2021-08-10T18:33:34Z</time>
      </trkpt>
      <trkpt lat="48.11144" lon="4.36958">
        <ele>199.61</ele>
        <time>2021-08-10T18:33:40Z</time>
      </trkpt>
      <trkpt lat="48.11143" lon="4.36956">
        <ele>200.09</ele>
        <time>2021-08-10T18:33:41Z</time>
      </trkpt>
      <trkpt lat="48.11142" lon="4.36955">
        <ele>200.09</ele>
        <time>2021-08-10T18:33:42Z</time>
      </trkpt>
      <trkpt lat="48.11133" lon="4.36939">
        <ele>201.05</ele>
        <time>2021-08-10T18:33:50Z</time>
      </trkpt>
      <trkpt lat="48.11123" lon="4.36924">
        <ele>202.49</ele>
        <time>2021-08-10T18:33:58Z</time>
      </trkpt>
      <trkpt lat="48.1111" lon="4.36909">
        <ele>202.98</ele>
        <time>2021-08-10T18:34:05Z</time>
      </trkpt>
      <trkpt lat="48.111" lon="4.36889">
        <ele>203.94</ele>
        <time>2021-08-10T18:34:12Z</time>
      </trkpt>
      <trkpt lat="48.11091" lon="4.36874">
        <ele>204.9</ele>
        <time>2021-08-10T18:34:19Z</time>
      </trkpt>
      <trkpt lat="48.11083" lon="4.36859">
        <ele>205.86</ele>
        <time>2021-08-10T18:34:27Z</time>
      </trkpt>
      <trkpt lat="48.1107" lon="4.36845">
        <ele>207.3</ele>
        <time>2021-08-10T18:34:35Z</time>
      </trkpt>
      <trkpt lat="48.11055" lon="4.36831">
        <ele>208.26</ele>
        <time>2021-08-10T18:34:43Z</time>
      </trkpt>
      <trkpt lat="48.1104" lon="4.36819">
        <ele>209.22</ele>
        <time>2021-08-10T18:34:51Z</time>
      </trkpt>
      <trkpt lat="48.11037" lon="4.36816">
        <ele>209.7</ele>
        <time>2021-08-10T18:34:53Z</time>
      </trkpt>
      <trkpt lat="48.11035" lon="4.36815">
        <ele>209.7</ele>
        <time>2021-08-10T18:34:54Z</time>
      </trkpt>
      <trkpt lat="48.11024" lon="4.36806">
        <ele>211.15</ele>
        <time>2021-08-10T18:35:01Z</time>
      </trkpt>
      <trkpt lat="48.11012" lon="4.36797">
        <ele>212.59</ele>
        <time>2021-08-10T18:35:09Z</time>
      </trkpt>
      <trkpt lat="48.11003" lon="4.3679">
        <ele>213.55</ele>
        <time>2021-08-10T18:35:15Z</time>
      </trkpt>
      <trkpt lat="48.11" lon="4.36783">
        <ele>214.03</ele>
        <time>2021-08-10T18:35:21Z</time>
      </trkpt>
      <trkpt lat="48.10996" lon="4.36777">
        <ele>214.51</ele>
        <time>2021-08-10T18:35:26Z</time>
      </trkpt>
      <trkpt lat="48.10991" lon="4.36769">
        <ele>214.99</ele>
        <time>2021-08-10T18:35:34Z</time>
      </trkpt>
      <trkpt lat="48.1099" lon="4.36766">
        <ele>214.99</ele>
        <time>2021-08-10T18:35:47Z</time>
      </trkpt>
      <trkpt lat="48.10983" lon="4.36765">
        <ele>215.47</ele>
        <time>2021-08-10T18:35:54Z</time>
      </trkpt>
      <trkpt lat="48.10983" lon="4.36766">
        <ele>215.47</ele>
        <time>2021-08-10T18:35:55Z</time>
      </trkpt>
      <trkpt lat="48.10984" lon="4.36768">
        <ele>215.47</ele>
        <time>2021-08-10T18:35:56Z</time>
      </trkpt>
      <trkpt lat="48.10986" lon="4.36769">
        <ele>215.47</ele>
        <time>2021-08-10T18:35:57Z</time>
      </trkpt>
      <trkpt lat="48.10988" lon="4.36771">
        <ele>215.47</ele>
        <time>2021-08-10T18:35:58Z</time>
      </trkpt>
      <trkpt lat="48.10998" lon="4.36781">
        <ele>213.07</ele>
        <time>2021-08-10T18:36:02Z</time>
      </trkpt>
      <trkpt lat="48.11007" lon="4.36788">
        <ele>212.11</ele>
        <time>2021-08-10T18:36:04Z</time>
      </trkpt>
      <trkpt lat="48.11024" lon="4.36802">
        <ele>210.19</ele>
        <time>2021-08-10T18:36:09Z</time>
      </trkpt>
      <trkpt lat="48.11041" lon="4.36816">
        <ele>208.26</ele>
        <time>2021-08-10T18:36:15Z</time>
      </trkpt>
      <trkpt lat="48.1106" lon="4.36836">
        <ele>207.3</ele>
        <time>2021-08-10T18:36:22Z</time>
      </trkpt>
      <trkpt lat="48.1107" lon="4.36844">
        <ele>206.34</ele>
        <time>2021-08-10T18:36:28Z</time>
      </trkpt>
      <trkpt lat="48.11076" lon="4.36846">
        <ele>206.34</ele>
        <time>2021-08-10T18:36:36Z</time>
      </trkpt>
      <trkpt lat="48.11083" lon="4.36854">
        <ele>205.86</ele>
        <time>2021-08-10T18:36:46Z</time>
      </trkpt>
      <trkpt lat="48.11094" lon="4.36873">
        <ele>204.9</ele>
        <time>2021-08-10T18:36:52Z</time>
      </trkpt>
      <trkpt lat="48.11097" lon="4.36878">
        <ele>204.9</ele>
        <time>2021-08-10T18:36:53Z</time>
      </trkpt>
      <trkpt lat="48.11113" lon="4.36903">
        <ele>203.46</ele>
        <time>2021-08-10T18:36:59Z</time>
      </trkpt>
      <trkpt lat="48.11119" lon="4.3692">
        <ele>202.98</ele>
        <time>2021-08-10T18:37:05Z</time>
      </trkpt>
      <trkpt lat="48.1112" lon="4.36923">
        <ele>202.01</ele>
        <time>2021-08-10T18:37:06Z</time>
      </trkpt>
      <trkpt lat="48.11122" lon="4.36925">
        <ele>202.49</ele>
        <time>2021-08-10T18:37:07Z</time>
      </trkpt>
      <trkpt lat="48.11136" lon="4.3695">
        <ele>201.05</ele>
        <time>2021-08-10T18:37:13Z</time>
      </trkpt>
      <trkpt lat="48.11151" lon="4.36975">
        <ele>199.61</ele>
        <time>2021-08-10T18:37:19Z</time>
      </trkpt>
      <trkpt lat="48.11151" lon="4.36978">
        <ele>199.61</ele>
        <time>2021-08-10T18:37:20Z</time>
      </trkpt>
      <trkpt lat="48.11152" lon="4.3698">
        <ele>199.61</ele>
        <time>2021-08-10T18:37:21Z</time>
      </trkpt>
      <trkpt lat="48.11152" lon="4.36985">
        <ele>199.61</ele>
        <time>2021-08-10T18:37:24Z</time>
      </trkpt>
      <trkpt lat="48.11151" lon="4.36985">
        <ele>199.61</ele>
        <time>2021-08-10T18:37:25Z</time>
      </trkpt>
      <trkpt lat="48.1115" lon="4.36986">
        <ele>201.53</ele>
        <time>2021-08-10T18:37:29Z</time>
      </trkpt>
      <trkpt lat="48.11142" lon="4.36985">
        <ele>202.49</ele>
        <time>2021-08-10T18:37:35Z</time>
      </trkpt>
      <trkpt lat="48.11138" lon="4.36982">
        <ele>204.42</ele>
        <time>2021-08-10T18:37:42Z</time>
      </trkpt>
      <trkpt lat="48.11136" lon="4.3698">
        <ele>205.38</ele>
        <time>2021-08-10T18:37:48Z</time>
      </trkpt>
      <trkpt lat="48.11131" lon="4.36976">
        <ele>206.82</ele>
        <time>2021-08-10T18:37:57Z</time>
      </trkpt>
      <trkpt lat="48.11126" lon="4.36971">
        <ele>208.26</ele>
        <time>2021-08-10T18:38:06Z</time>
      </trkpt>
      <trkpt lat="48.11119" lon="4.36963">
        <ele>209.22</ele>
        <time>2021-08-10T18:38:16Z</time>
      </trkpt>
      <trkpt lat="48.11118" lon="4.36961">
        <ele>209.7</ele>
        <time>2021-08-10T18:38:20Z</time>
      </trkpt>
      <trkpt lat="48.11109" lon="4.36951">
        <ele>210.19</ele>
        <time>2021-08-10T18:38:27Z</time>
      </trkpt>
      <trkpt lat="48.11097" lon="4.36932">
        <ele>211.63</ele>
        <time>2021-08-10T18:38:36Z</time>
      </trkpt>
      <trkpt lat="48.11088" lon="4.36916">
        <ele>211.63</ele>
        <time>2021-08-10T18:38:43Z</time>
      </trkpt>
      <trkpt lat="48.1108" lon="4.36905">
        <ele>212.59</ele>
        <time>2021-08-10T18:38:49Z</time>
      </trkpt>
      <trkpt lat="48.1107" lon="4.36892">
        <ele>213.55</ele>
        <time>2021-08-10T18:38:56Z</time>
      </trkpt>
      <trkpt lat="48.11061" lon="4.3688">
        <ele>214.51</ele>
        <time>2021-08-10T18:39:03Z</time>
      </trkpt>
      <trkpt lat="48.11047" lon="4.36865">
        <ele>215.95</ele>
        <time>2021-08-10T18:39:11Z</time>
      </trkpt>
      <trkpt lat="48.11037" lon="4.36857">
        <ele>216.91</ele>
        <time>2021-08-10T18:39:17Z</time>
      </trkpt>
      <trkpt lat="48.1102" lon="4.36849">
        <ele>217.88</ele>
        <time>2021-08-10T18:39:26Z</time>
      </trkpt>
      <trkpt lat="48.11012" lon="4.36847">
        <ele>218.84</ele>
        <time>2021-08-10T18:39:30Z</time>
      </trkpt>
      <trkpt lat="48.1101" lon="4.36847">
        <ele>219.8</ele>
        <time>2021-08-10T18:39:31Z</time>
      </trkpt>
      <trkpt lat="48.11005" lon="4.36847">
        <ele>219.8</ele>
        <time>2021-08-10T18:39:34Z</time>
      </trkpt>
      <trkpt lat="48.11004" lon="4.36846">
        <ele>219.8</ele>
        <time>2021-08-10T18:39:35Z</time>
      </trkpt>
      <trkpt lat="48.11002" lon="4.36845">
        <ele>219.8</ele>
        <time>2021-08-10T18:39:36Z</time>
      </trkpt>
      <trkpt lat="48.11001" lon="4.36844">
        <ele>220.28</ele>
        <time>2021-08-10T18:39:37Z</time>
      </trkpt>
      <trkpt lat="48.11" lon="4.36843">
        <ele>220.28</ele>
        <time>2021-08-10T18:39:38Z</time>
      </trkpt>
      <trkpt lat="48.10998" lon="4.36842">
        <ele>220.28</ele>
        <time>2021-08-10T18:39:39Z</time>
      </trkpt>
      <trkpt lat="48.10997" lon="4.36841">
        <ele>220.28</ele>
        <time>2021-08-10T18:39:40Z</time>
      </trkpt>
      <trkpt lat="48.10995" lon="4.36839">
        <ele>220.28</ele>
        <time>2021-08-10T18:39:41Z</time>
      </trkpt>
      <trkpt lat="48.10993" lon="4.36838">
        <ele>220.76</ele>
        <time>2021-08-10T18:39:42Z</time>
      </trkpt>
      <trkpt lat="48.10992" lon="4.36837">
        <ele>220.76</ele>
        <time>2021-08-10T18:39:43Z</time>
      </trkpt>
      <trkpt lat="48.10977" lon="4.36828">
        <ele>221.24</ele>
        <time>2021-08-10T18:39:51Z</time>
      </trkpt>
      <trkpt lat="48.10962" lon="4.36821">
        <ele>222.68</ele>
        <time>2021-08-10T18:39:59Z</time>
      </trkpt>
      <trkpt lat="48.10946" lon="4.36813">
        <ele>223.64</ele>
        <time>2021-08-10T18:40:07Z</time>
      </trkpt>
      <trkpt lat="48.10924" lon="4.36803">
        <ele>225.09</ele>
        <time>2021-08-10T18:40:17Z</time>
      </trkpt>
      <trkpt lat="48.10899" lon="4.36793">
        <ele>226.53</ele>
        <time>2021-08-10T18:40:28Z</time>
      </trkpt>
      <trkpt lat="48.10875" lon="4.36783">
        <ele>227.97</ele>
        <time>2021-08-10T18:40:39Z</time>
      </trkpt>
      <trkpt lat="48.10852" lon="4.36773">
        <ele>229.89</ele>
        <time>2021-08-10T18:40:50Z</time>
      </trkpt>
      <trkpt lat="48.10834" lon="4.36766">
        <ele>230.85</ele>
        <time>2021-08-10T18:40:58Z</time>
      </trkpt>
      <trkpt lat="48.10822" lon="4.36762">
        <ele>231.81</ele>
        <time>2021-08-10T18:41:03Z</time>
      </trkpt>
      <trkpt lat="48.10808" lon="4.36749">
        <ele>232.78</ele>
        <time>2021-08-10T18:41:11Z</time>
      </trkpt>
      <trkpt lat="48.10806" lon="4.36726">
        <ele>233.26</ele>
        <time>2021-08-10T18:41:17Z</time>
      </trkpt>
      <trkpt lat="48.10813" lon="4.36707">
        <ele>233.26</ele>
        <time>2021-08-10T18:41:21Z</time>
      </trkpt>
      <trkpt lat="48.10817" lon="4.36696">
        <ele>232.3</ele>
        <time>2021-08-10T18:41:23Z</time>
      </trkpt>
      <trkpt lat="48.10838" lon="4.36643">
        <ele>229.41</ele>
        <time>2021-08-10T18:41:30Z</time>
      </trkpt>
      <trkpt lat="48.1086" lon="4.3658">
        <ele>228.93</ele>
        <time>2021-08-10T18:41:37Z</time>
      </trkpt>
      <trkpt lat="48.10862" lon="4.36573">
        <ele>228.93</ele>
        <time>2021-08-10T18:41:38Z</time>
      </trkpt>
      <trkpt lat="48.10862" lon="4.36541">
        <ele>230.37</ele>
        <time>2021-08-10T18:41:44Z</time>
      </trkpt>
      <trkpt lat="48.10853" lon="4.365">
        <ele>233.26</ele>
        <time>2021-08-10T18:41:53Z</time>
      </trkpt>
      <trkpt lat="48.10841" lon="4.36456">
        <ele>234.7</ele>
        <time>2021-08-10T18:42:03Z</time>
      </trkpt>
      <trkpt lat="48.10828" lon="4.36408">
        <ele>236.62</ele>
        <time>2021-08-10T18:42:14Z</time>
      </trkpt>
      <trkpt lat="48.10821" lon="4.36362">
        <ele>237.58</ele>
        <time>2021-08-10T18:42:24Z</time>
      </trkpt>
      <trkpt lat="48.10816" lon="4.36309">
        <ele>237.58</ele>
        <time>2021-08-10T18:42:34Z</time>
      </trkpt>
      <trkpt lat="48.10813" lon="4.36277">
        <ele>238.06</ele>
        <time>2021-08-10T18:42:42Z</time>
      </trkpt>
      <trkpt lat="48.10814" lon="4.36277">
        <ele>238.06</ele>
        <time>2021-08-10T18:42:58Z</time>
      </trkpt>
      <trkpt lat="48.10814" lon="4.36277">
        <ele>238.06</ele>
        <time>2021-08-10T18:43:19Z</time>
      </trkpt>
      <trkpt lat="48.10814" lon="4.36276">
        <ele>238.06</ele>
        <time>2021-08-10T18:43:34Z</time>
      </trkpt>
      <trkpt lat="48.10814" lon="4.36276">
        <ele>238.06</ele>
        <time>2021-08-10T18:43:47Z</time>
      </trkpt>
      <trkpt lat="48.10815" lon="4.36276">
        <ele>238.06</ele>
        <time>2021-08-10T18:44:08Z</time>
      </trkpt>
      <trkpt lat="48.10814" lon="4.36276">
        <ele>238.06</ele>
        <time>2021-08-10T18:44:20Z</time>
      </trkpt>
      <trkpt lat="48.10814" lon="4.36276">
        <ele>238.06</ele>
        <time>2021-08-10T18:44:40Z</time>
      </trkpt>
      <trkpt lat="48.10814" lon="4.36275">
        <ele>238.06</ele>
        <time>2021-08-10T18:44:46Z</time>
      </trkpt>
      <trkpt lat="48.10815" lon="4.3626">
        <ele>238.06</ele>
        <time>2021-08-10T18:44:51Z</time>
      </trkpt>
      <trkpt lat="48.10815" lon="4.36217">
        <ele>236.62</ele>
        <time>2021-08-10T18:44:59Z</time>
      </trkpt>
      <trkpt lat="48.10822" lon="4.36183">
        <ele>236.14</ele>
        <time>2021-08-10T18:45:04Z</time>
      </trkpt>
      <trkpt lat="48.10824" lon="4.36176">
        <ele>236.14</ele>
        <time>2021-08-10T18:45:05Z</time>
      </trkpt>
      <trkpt lat="48.10827" lon="4.36168">
        <ele>235.66</ele>
        <time>2021-08-10T18:45:06Z</time>
      </trkpt>
      <trkpt lat="48.10843" lon="4.3612">
        <ele>234.22</ele>
        <time>2021-08-10T18:45:12Z</time>
      </trkpt>
      <trkpt lat="48.10844" lon="4.3611">
        <ele>233.74</ele>
        <time>2021-08-10T18:45:13Z</time>
      </trkpt>
      <trkpt lat="48.10844" lon="4.36099">
        <ele>233.26</ele>
        <time>2021-08-10T18:45:14Z</time>
      </trkpt>
      <trkpt lat="48.10842" lon="4.36089">
        <ele>232.78</ele>
        <time>2021-08-10T18:45:15Z</time>
      </trkpt>
      <trkpt lat="48.1084" lon="4.36079">
        <ele>232.78</ele>
        <time>2021-08-10T18:45:16Z</time>
      </trkpt>
      <trkpt lat="48.10837" lon="4.36069">
        <ele>232.78</ele>
        <time>2021-08-10T18:45:17Z</time>
      </trkpt>
      <trkpt lat="48.10809" lon="4.35997">
        <ele>231.81</ele>
        <time>2021-08-10T18:45:25Z</time>
      </trkpt>
      <trkpt lat="48.10777" lon="4.3594">
        <ele>231.81</ele>
        <time>2021-08-10T18:45:33Z</time>
      </trkpt>
      <trkpt lat="48.10754" lon="4.35891">
        <ele>231.81</ele>
        <time>2021-08-10T18:45:40Z</time>
      </trkpt>
      <trkpt lat="48.10753" lon="4.35883">
        <ele>231.81</ele>
        <time>2021-08-10T18:45:41Z</time>
      </trkpt>
      <trkpt lat="48.10748" lon="4.35846">
        <ele>233.26</ele>
        <time>2021-08-10T18:45:46Z</time>
      </trkpt>
      <trkpt lat="48.10747" lon="4.35798">
        <ele>234.22</ele>
        <time>2021-08-10T18:45:54Z</time>
      </trkpt>
      <trkpt lat="48.10747" lon="4.35771">
        <ele>236.14</ele>
        <time>2021-08-10T18:46:01Z</time>
      </trkpt>
      <trkpt lat="48.10744" lon="4.35747">
        <ele>236.14</ele>
        <time>2021-08-10T18:46:07Z</time>
      </trkpt>
      <trkpt lat="48.10731" lon="4.35712">
        <ele>237.1</ele>
        <time>2021-08-10T18:46:15Z</time>
      </trkpt>
      <trkpt lat="48.10712" lon="4.35668">
        <ele>238.06</ele>
        <time>2021-08-10T18:46:25Z</time>
      </trkpt>
      <trkpt lat="48.1069" lon="4.35614">
        <ele>238.54</ele>
        <time>2021-08-10T18:46:36Z</time>
      </trkpt>
      <trkpt lat="48.10668" lon="4.35559">
        <ele>239.51</ele>
        <time>2021-08-10T18:46:47Z</time>
      </trkpt>
      <trkpt lat="48.10645" lon="4.35503">
        <ele>239.99</ele>
        <time>2021-08-10T18:46:58Z</time>
      </trkpt>
      <trkpt lat="48.1062" lon="4.35442">
        <ele>240.47</ele>
        <time>2021-08-10T18:47:10Z</time>
      </trkpt>
      <trkpt lat="48.10595" lon="4.35382">
        <ele>240.95</ele>
        <time>2021-08-10T18:47:20Z</time>
      </trkpt>
      <trkpt lat="48.10566" lon="4.35313">
        <ele>239.51</ele>
        <time>2021-08-10T18:47:30Z</time>
      </trkpt>
      <trkpt lat="48.10523" lon="4.35207">
        <ele>238.54</ele>
        <time>2021-08-10T18:47:44Z</time>
      </trkpt>
      <trkpt lat="48.10479" lon="4.35103">
        <ele>237.1</ele>
        <time>2021-08-10T18:47:57Z</time>
      </trkpt>
      <trkpt lat="48.10439" lon="4.35008">
        <ele>235.66</ele>
        <time>2021-08-10T18:48:09Z</time>
      </trkpt>
      <trkpt lat="48.104" lon="4.34913">
        <ele>235.66</ele>
        <time>2021-08-10T18:48:21Z</time>
      </trkpt>
      <trkpt lat="48.10363" lon="4.34824">
        <ele>235.66</ele>
        <time>2021-08-10T18:48:33Z</time>
      </trkpt>
      <trkpt lat="48.10322" lon="4.34721">
        <ele>235.18</ele>
        <time>2021-08-10T18:48:46Z</time>
      </trkpt>
      <trkpt lat="48.10284" lon="4.34627">
        <ele>233.74</ele>
        <time>2021-08-10T18:48:58Z</time>
      </trkpt>
      <trkpt lat="48.10248" lon="4.34542">
        <ele>233.26</ele>
        <time>2021-08-10T18:49:09Z</time>
      </trkpt>
      <trkpt lat="48.10212" lon="4.34478">
        <ele>231.81</ele>
        <time>2021-08-10T18:49:18Z</time>
      </trkpt>
      <trkpt lat="48.10179" lon="4.34421">
        <ele>231.81</ele>
        <time>2021-08-10T18:49:26Z</time>
      </trkpt>
      <trkpt lat="48.10143" lon="4.34363">
        <ele>231.81</ele>
        <time>2021-08-10T18:49:35Z</time>
      </trkpt>
      <trkpt lat="48.1012" lon="4.34325">
        <ele>233.26</ele>
        <time>2021-08-10T18:49:41Z</time>
      </trkpt>
      <trkpt lat="48.10077" lon="4.34255">
        <ele>233.74</ele>
        <time>2021-08-10T18:49:52Z</time>
      </trkpt>
      <trkpt lat="48.10048" lon="4.34209">
        <ele>232.3</ele>
        <time>2021-08-10T18:49:59Z</time>
      </trkpt>
      <trkpt lat="48.09997" lon="4.34125">
        <ele>231.33</ele>
        <time>2021-08-10T18:50:11Z</time>
      </trkpt>
      <trkpt lat="48.09949" lon="4.34046">
        <ele>230.85</ele>
        <time>2021-08-10T18:50:22Z</time>
      </trkpt>
      <trkpt lat="48.09908" lon="4.33982">
        <ele>231.33</ele>
        <time>2021-08-10T18:50:32Z</time>
      </trkpt>
      <trkpt lat="48.09873" lon="4.33928">
        <ele>233.26</ele>
        <time>2021-08-10T18:50:42Z</time>
      </trkpt>
      <trkpt lat="48.09841" lon="4.33882">
        <ele>234.22</ele>
        <time>2021-08-10T18:50:51Z</time>
      </trkpt>
      <trkpt lat="48.09838" lon="4.33876">
        <ele>234.22</ele>
        <time>2021-08-10T18:50:52Z</time>
      </trkpt>
      <trkpt lat="48.0981" lon="4.33834">
        <ele>235.18</ele>
        <time>2021-08-10T18:51:00Z</time>
      </trkpt>
      <trkpt lat="48.09778" lon="4.33784">
        <ele>235.66</ele>
        <time>2021-08-10T18:51:10Z</time>
      </trkpt>
      <trkpt lat="48.09751" lon="4.33736">
        <ele>236.14</ele>
        <time>2021-08-10T18:51:19Z</time>
      </trkpt>
      <trkpt lat="48.09721" lon="4.33678">
        <ele>236.14</ele>
        <time>2021-08-10T18:51:29Z</time>
      </trkpt>
      <trkpt lat="48.09688" lon="4.33613">
        <ele>236.62</ele>
        <time>2021-08-10T18:51:40Z</time>
      </trkpt>
      <trkpt lat="48.09653" lon="4.33542">
        <ele>236.62</ele>
        <time>2021-08-10T18:51:52Z</time>
      </trkpt>
      <trkpt lat="48.09622" lon="4.33483">
        <ele>237.1</ele>
        <time>2021-08-10T18:52:02Z</time>
      </trkpt>
      <trkpt lat="48.09581" lon="4.33401">
        <ele>237.1</ele>
        <time>2021-08-10T18:52:16Z</time>
      </trkpt>
      <trkpt lat="48.09541" lon="4.33323">
        <ele>237.58</ele>
        <time>2021-08-10T18:52:29Z</time>
      </trkpt>
      <trkpt lat="48.09503" lon="4.33247">
        <ele>237.58</ele>
        <time>2021-08-10T18:52:41Z</time>
      </trkpt>
      <trkpt lat="48.0947" lon="4.33183">
        <ele>237.58</ele>
        <time>2021-08-10T18:52:51Z</time>
      </trkpt>
      <trkpt lat="48.09442" lon="4.33127">
        <ele>235.66</ele>
        <time>2021-08-10T18:53:00Z</time>
      </trkpt>
      <trkpt lat="48.09413" lon="4.33071">
        <ele>235.18</ele>
        <time>2021-08-10T18:53:09Z</time>
      </trkpt>
      <trkpt lat="48.0938" lon="4.33005">
        <ele>232.3</ele>
        <time>2021-08-10T18:53:18Z</time>
      </trkpt>
      <trkpt lat="48.09344" lon="4.32932">
        <ele>229.41</ele>
        <time>2021-08-10T18:53:26Z</time>
      </trkpt>
      <trkpt lat="48.09302" lon="4.32848">
        <ele>226.05</ele>
        <time>2021-08-10T18:53:34Z</time>
      </trkpt>
      <trkpt lat="48.09261" lon="4.32751">
        <ele>223.64</ele>
        <time>2021-08-10T18:53:42Z</time>
      </trkpt>
      <trkpt lat="48.09223" lon="4.32645">
        <ele>220.76</ele>
        <time>2021-08-10T18:53:50Z</time>
      </trkpt>
      <trkpt lat="48.09214" lon="4.32618">
        <ele>219.8</ele>
        <time>2021-08-10T18:53:52Z</time>
      </trkpt>
      <trkpt lat="48.09189" lon="4.32544">
        <ele>216.43</ele>
        <time>2021-08-10T18:53:57Z</time>
      </trkpt>
      <trkpt lat="48.0917" lon="4.3248">
        <ele>213.07</ele>
        <time>2021-08-10T18:54:01Z</time>
      </trkpt>
      <trkpt lat="48.09147" lon="4.32418">
        <ele>209.7</ele>
        <time>2021-08-10T18:54:05Z</time>
      </trkpt>
      <trkpt lat="48.09124" lon="4.32374">
        <ele>206.82</ele>
        <time>2021-08-10T18:54:08Z</time>
      </trkpt>
      <trkpt lat="48.09092" lon="4.32311">
        <ele>203.46</ele>
        <time>2021-08-10T18:54:12Z</time>
      </trkpt>
      <trkpt lat="48.09071" lon="4.32262">
        <ele>202.01</ele>
        <time>2021-08-10T18:54:15Z</time>
      </trkpt>
      <trkpt lat="48.09043" lon="4.32193">
        <ele>198.17</ele>
        <time>2021-08-10T18:54:19Z</time>
      </trkpt>
      <trkpt lat="48.09032" lon="4.32155">
        <ele>196.73</ele>
        <time>2021-08-10T18:54:21Z</time>
      </trkpt>
      <trkpt lat="48.09021" lon="4.32074">
        <ele>193.36</ele>
        <time>2021-08-10T18:54:25Z</time>
      </trkpt>
      <trkpt lat="48.0902" lon="4.32054">
        <ele>193.36</ele>
        <time>2021-08-10T18:54:26Z</time>
      </trkpt>
      <trkpt lat="48.09024" lon="4.3196">
        <ele>193.36</ele>
        <time>2021-08-10T18:54:31Z</time>
      </trkpt>
      <trkpt lat="48.09023" lon="4.31896">
        <ele>194.8</ele>
        <time>2021-08-10T18:54:35Z</time>
      </trkpt>
      <trkpt lat="48.09019" lon="4.31855">
        <ele>196.25</ele>
        <time>2021-08-10T18:54:38Z</time>
      </trkpt>
      <trkpt lat="48.09008" lon="4.31771">
        <ele>197.21</ele>
        <time>2021-08-10T18:54:45Z</time>
      </trkpt>
      <trkpt lat="48.08997" lon="4.3169">
        <ele>199.13</ele>
        <time>2021-08-10T18:54:53Z</time>
      </trkpt>
      <trkpt lat="48.08986" lon="4.31612">
        <ele>199.61</ele>
        <time>2021-08-10T18:55:02Z</time>
      </trkpt>
      <trkpt lat="48.08975" lon="4.31533">
        <ele>200.57</ele>
        <time>2021-08-10T18:55:12Z</time>
      </trkpt>
      <trkpt lat="48.08962" lon="4.31441">
        <ele>200.57</ele>
        <time>2021-08-10T18:55:23Z</time>
      </trkpt>
      <trkpt lat="48.08948" lon="4.31335">
        <ele>200.57</ele>
        <time>2021-08-10T18:55:35Z</time>
      </trkpt>
      <trkpt lat="48.08934" lon="4.31237">
        <ele>200.57</ele>
        <time>2021-08-10T18:55:46Z</time>
      </trkpt>
      <trkpt lat="48.08919" lon="4.31137">
        <ele>200.57</ele>
        <time>2021-08-10T18:55:57Z</time>
      </trkpt>
      <trkpt lat="48.08913" lon="4.31092">
        <ele>200.57</ele>
        <time>2021-08-10T18:56:02Z</time>
      </trkpt>
      <trkpt lat="48.08912" lon="4.31082">
        <ele>200.57</ele>
        <time>2021-08-10T18:56:03Z</time>
      </trkpt>
      <trkpt lat="48.08899" lon="4.30997">
        <ele>200.57</ele>
        <time>2021-08-10T18:56:12Z</time>
      </trkpt>
      <trkpt lat="48.08882" lon="4.3088">
        <ele>200.57</ele>
        <time>2021-08-10T18:56:24Z</time>
      </trkpt>
      <trkpt lat="48.08878" lon="4.3086">
        <ele>199.13</ele>
        <time>2021-08-10T18:56:26Z</time>
      </trkpt>
      <trkpt lat="48.08859" lon="4.3073">
        <ele>198.17</ele>
        <time>2021-08-10T18:56:39Z</time>
      </trkpt>
      <trkpt lat="48.0884" lon="4.30594">
        <ele>196.25</ele>
        <time>2021-08-10T18:56:52Z</time>
      </trkpt>
      <trkpt lat="48.08835" lon="4.3056">
        <ele>194.8</ele>
        <time>2021-08-10T18:56:55Z</time>
      </trkpt>
      <trkpt lat="48.08832" lon="4.30499">
        <ele>192.4</ele>
        <time>2021-08-10T18:57:00Z</time>
      </trkpt>
      <trkpt lat="48.0884" lon="4.30432">
        <ele>189.52</ele>
        <time>2021-08-10T18:57:05Z</time>
      </trkpt>
      <trkpt lat="48.08847" lon="4.30388">
        <ele>187.59</ele>
        <time>2021-08-10T18:57:08Z</time>
      </trkpt>
      <trkpt lat="48.08858" lon="4.30325">
        <ele>184.23</ele>
        <time>2021-08-10T18:57:12Z</time>
      </trkpt>
      <trkpt lat="48.08872" lon="4.30242">
        <ele>180.38</ele>
        <time>2021-08-10T18:57:17Z</time>
      </trkpt>
      <trkpt lat="48.08878" lon="4.3018">
        <ele>178.94</ele>
        <time>2021-08-10T18:57:21Z</time>
      </trkpt>
      <trkpt lat="48.08876" lon="4.30165">
        <ele>177.98</ele>
        <time>2021-08-10T18:57:22Z</time>
      </trkpt>
      <trkpt lat="48.08872" lon="4.3015">
        <ele>177.98</ele>
        <time>2021-08-10T18:57:23Z</time>
      </trkpt>
      <trkpt lat="48.08866" lon="4.30138">
        <ele>177.5</ele>
        <time>2021-08-10T18:57:24Z</time>
      </trkpt>
      <trkpt lat="48.08858" lon="4.30128">
        <ele>177.02</ele>
        <time>2021-08-10T18:57:25Z</time>
      </trkpt>
      <trkpt lat="48.08849" lon="4.30121">
        <ele>176.54</ele>
        <time>2021-08-10T18:57:26Z</time>
      </trkpt>
      <trkpt lat="48.08838" lon="4.30119">
        <ele>175.58</ele>
        <time>2021-08-10T18:57:27Z</time>
      </trkpt>
      <trkpt lat="48.08828" lon="4.30121">
        <ele>175.1</ele>
        <time>2021-08-10T18:57:28Z</time>
      </trkpt>
      <trkpt lat="48.08818" lon="4.30127">
        <ele>175.1</ele>
        <time>2021-08-10T18:57:29Z</time>
      </trkpt>
      <trkpt lat="48.08808" lon="4.30136">
        <ele>175.1</ele>
        <time>2021-08-10T18:57:30Z</time>
      </trkpt>
      <trkpt lat="48.08801" lon="4.30145">
        <ele>174.14</ele>
        <time>2021-08-10T18:57:31Z</time>
      </trkpt>
      <trkpt lat="48.08794" lon="4.30153">
        <ele>173.66</ele>
        <time>2021-08-10T18:57:32Z</time>
      </trkpt>
      <trkpt lat="48.08773" lon="4.30176">
        <ele>173.66</ele>
        <time>2021-08-10T18:57:35Z</time>
      </trkpt>
      <trkpt lat="48.08766" lon="4.3018">
        <ele>173.17</ele>
        <time>2021-08-10T18:57:36Z</time>
      </trkpt>
      <trkpt lat="48.08758" lon="4.30183">
        <ele>173.17</ele>
        <time>2021-08-10T18:57:37Z</time>
      </trkpt>
      <trkpt lat="48.08751" lon="4.30185">
        <ele>173.17</ele>
        <time>2021-08-10T18:57:38Z</time>
      </trkpt>
      <trkpt lat="48.08744" lon="4.30185">
        <ele>172.21</ele>
        <time>2021-08-10T18:57:39Z</time>
      </trkpt>
      <trkpt lat="48.08736" lon="4.30184">
        <ele>172.21</ele>
        <time>2021-08-10T18:57:40Z</time>
      </trkpt>
      <trkpt lat="48.0873" lon="4.30183">
        <ele>172.21</ele>
        <time>2021-08-10T18:57:41Z</time>
      </trkpt>
      <trkpt lat="48.08677" lon="4.30172">
        <ele>171.73</ele>
        <time>2021-08-10T18:57:49Z</time>
      </trkpt>
      <trkpt lat="48.08626" lon="4.30161">
        <ele>171.73</ele>
        <time>2021-08-10T18:57:57Z</time>
      </trkpt>
      <trkpt lat="48.08566" lon="4.30149">
        <ele>171.25</ele>
        <time>2021-08-10T18:58:07Z</time>
      </trkpt>
      <trkpt lat="48.08515" lon="4.30138">
        <ele>171.25</ele>
        <time>2021-08-10T18:58:16Z</time>
      </trkpt>
      <trkpt lat="48.08494" lon="4.30132">
        <ele>171.25</ele>
        <time>2021-08-10T18:58:20Z</time>
      </trkpt>
      <trkpt lat="48.08488" lon="4.30132">
        <ele>171.25</ele>
        <time>2021-08-10T18:58:21Z</time>
      </trkpt>
      <trkpt lat="48.08482" lon="4.30133">
        <ele>171.25</ele>
        <time>2021-08-10T18:58:22Z</time>
      </trkpt>
      <trkpt lat="48.08478" lon="4.30135">
        <ele>171.25</ele>
        <time>2021-08-10T18:58:23Z</time>
      </trkpt>
      <trkpt lat="48.08472" lon="4.30137">
        <ele>171.25</ele>
        <time>2021-08-10T18:58:24Z</time>
      </trkpt>
      <trkpt lat="48.0843" lon="4.30142">
        <ele>171.25</ele>
        <time>2021-08-10T18:58:32Z</time>
      </trkpt>
      <trkpt lat="48.08425" lon="4.30142">
        <ele>171.25</ele>
        <time>2021-08-10T18:58:33Z</time>
      </trkpt>
      <trkpt lat="48.08381" lon="4.30135">
        <ele>172.69</ele>
        <time>2021-08-10T18:58:42Z</time>
      </trkpt>
      <trkpt lat="48.08331" lon="4.30117">
        <ele>172.69</ele>
        <time>2021-08-10T18:58:52Z</time>
      </trkpt>
      <trkpt lat="48.0828" lon="4.30103">
        <ele>172.69</ele>
        <time>2021-08-10T18:59:02Z</time>
      </trkpt>
      <trkpt lat="48.08226" lon="4.30088">
        <ele>173.17</ele>
        <time>2021-08-10T18:59:13Z</time>
      </trkpt>
      <trkpt lat="48.08222" lon="4.30087">
        <ele>173.17</ele>
        <time>2021-08-10T18:59:14Z</time>
      </trkpt>
      <trkpt lat="48.08217" lon="4.30087">
        <ele>173.17</ele>
        <time>2021-08-10T18:59:15Z</time>
      </trkpt>
      <trkpt lat="48.08213" lon="4.30087">
        <ele>173.17</ele>
        <time>2021-08-10T18:59:16Z</time>
      </trkpt>
      <trkpt lat="48.08208" lon="4.30088">
        <ele>173.66</ele>
        <time>2021-08-10T18:59:17Z</time>
      </trkpt>
      <trkpt lat="48.08204" lon="4.3009">
        <ele>173.66</ele>
        <time>2021-08-10T18:59:18Z</time>
      </trkpt>
      <trkpt lat="48.082" lon="4.30092">
        <ele>174.14</ele>
        <time>2021-08-10T18:59:19Z</time>
      </trkpt>
      <trkpt lat="48.08197" lon="4.30094">
        <ele>174.14</ele>
        <time>2021-08-10T18:59:20Z</time>
      </trkpt>
      <trkpt lat="48.08194" lon="4.30097">
        <ele>174.14</ele>
        <time>2021-08-10T18:59:21Z</time>
      </trkpt>
      <trkpt lat="48.0817" lon="4.30119">
        <ele>175.58</ele>
        <time>2021-08-10T18:59:29Z</time>
      </trkpt>
      <trkpt lat="48.08153" lon="4.30134">
        <ele>177.02</ele>
        <time>2021-08-10T18:59:36Z</time>
      </trkpt>
      <trkpt lat="48.08133" lon="4.30145">
        <ele>178.46</ele>
        <time>2021-08-10T18:59:43Z</time>
      </trkpt>
      <trkpt lat="48.08109" lon="4.3016">
        <ele>179.9</ele>
        <time>2021-08-10T18:59:51Z</time>
      </trkpt>
      <trkpt lat="48.0809" lon="4.30175">
        <ele>180.87</ele>
        <time>2021-08-10T18:59:58Z</time>
      </trkpt>
      <trkpt lat="48.08072" lon="4.30189">
        <ele>181.83</ele>
        <time>2021-08-10T19:00:05Z</time>
      </trkpt>
      <trkpt lat="48.08051" lon="4.30202">
        <ele>182.79</ele>
        <time>2021-08-10T19:00:13Z</time>
      </trkpt>
      <trkpt lat="48.08025" lon="4.30219">
        <ele>183.75</ele>
        <time>2021-08-10T19:00:22Z</time>
      </trkpt>
      <trkpt lat="48.08" lon="4.30231">
        <ele>184.71</ele>
        <time>2021-08-10T19:00:31Z</time>
      </trkpt>
      <trkpt lat="48.07975" lon="4.30236">
        <ele>186.15</ele>
        <time>2021-08-10T19:00:40Z</time>
      </trkpt>
      <trkpt lat="48.07949" lon="4.30234">
        <ele>187.59</ele>
        <time>2021-08-10T19:00:49Z</time>
      </trkpt>
      <trkpt lat="48.07931" lon="4.30231">
        <ele>188.56</ele>
        <time>2021-08-10T19:00:55Z</time>
      </trkpt>
      <trkpt lat="48.07912" lon="4.30228">
        <ele>190</ele>
        <time>2021-08-10T19:01:02Z</time>
      </trkpt>
      <trkpt lat="48.07886" lon="4.30226">
        <ele>190.96</ele>
        <time>2021-08-10T19:01:11Z</time>
      </trkpt>
      <trkpt lat="48.07863" lon="4.30232">
        <ele>191.92</ele>
        <time>2021-08-10T19:01:19Z</time>
      </trkpt>
      <trkpt lat="48.07831" lon="4.30246">
        <ele>192.88</ele>
        <time>2021-08-10T19:01:29Z</time>
      </trkpt>
      <trkpt lat="48.07807" lon="4.30258">
        <ele>193.36</ele>
        <time>2021-08-10T19:01:36Z</time>
      </trkpt>
      <trkpt lat="48.07781" lon="4.30265">
        <ele>194.32</ele>
        <time>2021-08-10T19:01:44Z</time>
      </trkpt>
      <trkpt lat="48.0776" lon="4.30264">
        <ele>195.77</ele>
        <time>2021-08-10T19:01:51Z</time>
      </trkpt>
      <trkpt lat="48.07734" lon="4.30261">
        <ele>196.73</ele>
        <time>2021-08-10T19:01:59Z</time>
      </trkpt>
      <trkpt lat="48.077" lon="4.30265">
        <ele>198.65</ele>
        <time>2021-08-10T19:02:10Z</time>
      </trkpt>
      <trkpt lat="48.07671" lon="4.30275">
        <ele>200.09</ele>
        <time>2021-08-10T19:02:20Z</time>
      </trkpt>
      <trkpt lat="48.07639" lon="4.30289">
        <ele>201.53</ele>
        <time>2021-08-10T19:02:31Z</time>
      </trkpt>
      <trkpt lat="48.07615" lon="4.30304">
        <ele>203.46</ele>
        <time>2021-08-10T19:02:40Z</time>
      </trkpt>
      <trkpt lat="48.07592" lon="4.30324">
        <ele>203.94</ele>
        <time>2021-08-10T19:02:49Z</time>
      </trkpt>
      <trkpt lat="48.07565" lon="4.30352">
        <ele>205.86</ele>
        <time>2021-08-10T19:03:00Z</time>
      </trkpt>
      <trkpt lat="48.07542" lon="4.30377">
        <ele>207.3</ele>
        <time>2021-08-10T19:03:10Z</time>
      </trkpt>
      <trkpt lat="48.0752" lon="4.30403">
        <ele>208.74</ele>
        <time>2021-08-10T19:03:20Z</time>
      </trkpt>
      <trkpt lat="48.07501" lon="4.30426">
        <ele>209.7</ele>
        <time>2021-08-10T19:03:29Z</time>
      </trkpt>
      <trkpt lat="48.0748" lon="4.30451">
        <ele>211.15</ele>
        <time>2021-08-10T19:03:39Z</time>
      </trkpt>
      <trkpt lat="48.07463" lon="4.30472">
        <ele>212.11</ele>
        <time>2021-08-10T19:03:47Z</time>
      </trkpt>
      <trkpt lat="48.07445" lon="4.30496">
        <ele>213.55</ele>
        <time>2021-08-10T19:03:56Z</time>
      </trkpt>
      <trkpt lat="48.07427" lon="4.30523">
        <ele>214.51</ele>
        <time>2021-08-10T19:04:05Z</time>
      </trkpt>
      <trkpt lat="48.07412" lon="4.30551">
        <ele>215.95</ele>
        <time>2021-08-10T19:04:13Z</time>
      </trkpt>
      <trkpt lat="48.07401" lon="4.30577">
        <ele>216.91</ele>
        <time>2021-08-10T19:04:20Z</time>
      </trkpt>
      <trkpt lat="48.07391" lon="4.30609">
        <ele>217.88</ele>
        <time>2021-08-10T19:04:28Z</time>
      </trkpt>
      <trkpt lat="48.0738" lon="4.30644">
        <ele>219.32</ele>
        <time>2021-08-10T19:04:37Z</time>
      </trkpt>
      <trkpt lat="48.07367" lon="4.30683">
        <ele>220.76</ele>
        <time>2021-08-10T19:04:47Z</time>
      </trkpt>
      <trkpt lat="48.07351" lon="4.3072">
        <ele>221.72</ele>
        <time>2021-08-10T19:04:57Z</time>
      </trkpt>
      <trkpt lat="48.07332" lon="4.30749">
        <ele>222.68</ele>
        <time>2021-08-10T19:05:06Z</time>
      </trkpt>
      <trkpt lat="48.07307" lon="4.30777">
        <ele>223.64</ele>
        <time>2021-08-10T19:05:16Z</time>
      </trkpt>
      <trkpt lat="48.07282" lon="4.308">
        <ele>225.09</ele>
        <time>2021-08-10T19:05:25Z</time>
      </trkpt>
      <trkpt lat="48.0725" lon="4.30832">
        <ele>226.53</ele>
        <time>2021-08-10T19:05:37Z</time>
      </trkpt>
      <trkpt lat="48.07229" lon="4.30851">
        <ele>227.01</ele>
        <time>2021-08-10T19:05:45Z</time>
      </trkpt>
      <trkpt lat="48.07205" lon="4.30874">
        <ele>228.45</ele>
        <time>2021-08-10T19:05:54Z</time>
      </trkpt>
      <trkpt lat="48.07187" lon="4.30892">
        <ele>228.93</ele>
        <time>2021-08-10T19:06:01Z</time>
      </trkpt>
      <trkpt lat="48.07163" lon="4.30914">
        <ele>229.89</ele>
        <time>2021-08-10T19:06:10Z</time>
      </trkpt>
      <trkpt lat="48.07134" lon="4.30941">
        <ele>231.33</ele>
        <time>2021-08-10T19:06:21Z</time>
      </trkpt>
      <trkpt lat="48.07109" lon="4.30965">
        <ele>232.3</ele>
        <time>2021-08-10T19:06:31Z</time>
      </trkpt>
      <trkpt lat="48.07084" lon="4.30988">
        <ele>233.74</ele>
        <time>2021-08-10T19:06:41Z</time>
      </trkpt>
      <trkpt lat="48.07057" lon="4.31017">
        <ele>234.7</ele>
        <time>2021-08-10T19:06:52Z</time>
      </trkpt>
      <trkpt lat="48.07036" lon="4.31051">
        <ele>235.66</ele>
        <time>2021-08-10T19:07:01Z</time>
      </trkpt>
      <trkpt lat="48.07024" lon="4.31087">
        <ele>236.62</ele>
        <time>2021-08-10T19:07:09Z</time>
      </trkpt>
      <trkpt lat="48.07012" lon="4.31127">
        <ele>237.1</ele>
        <time>2021-08-10T19:07:18Z</time>
      </trkpt>
      <trkpt lat="48.06998" lon="4.31176">
        <ele>238.06</ele>
        <time>2021-08-10T19:07:29Z</time>
      </trkpt>
      <trkpt lat="48.06986" lon="4.31217">
        <ele>239.02</ele>
        <time>2021-08-10T19:07:38Z</time>
      </trkpt>
      <trkpt lat="48.06969" lon="4.31276">
        <ele>240.47</ele>
        <time>2021-08-10T19:07:51Z</time>
      </trkpt>
      <trkpt lat="48.06956" lon="4.31321">
        <ele>241.43</ele>
        <time>2021-08-10T19:08:01Z</time>
      </trkpt>
      <trkpt lat="48.06938" lon="4.31381">
        <ele>242.87</ele>
        <time>2021-08-10T19:08:14Z</time>
      </trkpt>
      <trkpt lat="48.06929" lon="4.31408">
        <ele>243.83</ele>
        <time>2021-08-10T19:08:20Z</time>
      </trkpt>
      <trkpt lat="48.06918" lon="4.31446">
        <ele>244.31</ele>
        <time>2021-08-10T19:08:28Z</time>
      </trkpt>
      <trkpt lat="48.06907" lon="4.31482">
        <ele>244.79</ele>
        <time>2021-08-10T19:08:35Z</time>
      </trkpt>
      <trkpt lat="48.06891" lon="4.31539">
        <ele>244.79</ele>
        <time>2021-08-10T19:08:44Z</time>
      </trkpt>
      <trkpt lat="48.06887" lon="4.31554">
        <ele>242.87</ele>
        <time>2021-08-10T19:08:46Z</time>
      </trkpt>
      <trkpt lat="48.06868" lon="4.31604">
        <ele>240.47</ele>
        <time>2021-08-10T19:08:52Z</time>
      </trkpt>
      <trkpt lat="48.06863" lon="4.31611">
        <ele>239.99</ele>
        <time>2021-08-10T19:08:53Z</time>
      </trkpt>
      <trkpt lat="48.06858" lon="4.31618">
        <ele>239.51</ele>
        <time>2021-08-10T19:08:54Z</time>
      </trkpt>
      <trkpt lat="48.06852" lon="4.31624">
        <ele>239.02</ele>
        <time>2021-08-10T19:08:55Z</time>
      </trkpt>
      <trkpt lat="48.06846" lon="4.31628">
        <ele>239.02</ele>
        <time>2021-08-10T19:08:56Z</time>
      </trkpt>
      <trkpt lat="48.06839" lon="4.31632">
        <ele>238.54</ele>
        <time>2021-08-10T19:08:57Z</time>
      </trkpt>
      <trkpt lat="48.06832" lon="4.31635">
        <ele>238.54</ele>
        <time>2021-08-10T19:08:58Z</time>
      </trkpt>
      <trkpt lat="48.06824" lon="4.31637">
        <ele>237.58</ele>
        <time>2021-08-10T19:08:59Z</time>
      </trkpt>
      <trkpt lat="48.06817" lon="4.31637">
        <ele>237.58</ele>
        <time>2021-08-10T19:09:00Z</time>
      </trkpt>
      <trkpt lat="48.0681" lon="4.31637">
        <ele>237.58</ele>
        <time>2021-08-10T19:09:01Z</time>
      </trkpt>
      <trkpt lat="48.06802" lon="4.31637">
        <ele>237.58</ele>
        <time>2021-08-10T19:09:02Z</time>
      </trkpt>
      <trkpt lat="48.06745" lon="4.3163">
        <ele>238.06</ele>
        <time>2021-08-10T19:09:11Z</time>
      </trkpt>
      <trkpt lat="48.06734" lon="4.31632">
        <ele>238.06</ele>
        <time>2021-08-10T19:09:13Z</time>
      </trkpt>
      <trkpt lat="48.06728" lon="4.31634">
        <ele>238.06</ele>
        <time>2021-08-10T19:09:14Z</time>
      </trkpt>
      <trkpt lat="48.06723" lon="4.31637">
        <ele>238.06</ele>
        <time>2021-08-10T19:09:15Z</time>
      </trkpt>
      <trkpt lat="48.06717" lon="4.31641">
        <ele>238.06</ele>
        <time>2021-08-10T19:09:16Z</time>
      </trkpt>
      <trkpt lat="48.06712" lon="4.31645">
        <ele>238.06</ele>
        <time>2021-08-10T19:09:17Z</time>
      </trkpt>
      <trkpt lat="48.06707" lon="4.3165">
        <ele>238.06</ele>
        <time>2021-08-10T19:09:18Z</time>
      </trkpt>
      <trkpt lat="48.06702" lon="4.31656">
        <ele>238.06</ele>
        <time>2021-08-10T19:09:19Z</time>
      </trkpt>
      <trkpt lat="48.06697" lon="4.31662">
        <ele>238.06</ele>
        <time>2021-08-10T19:09:20Z</time>
      </trkpt>
      <trkpt lat="48.06693" lon="4.31668">
        <ele>238.06</ele>
        <time>2021-08-10T19:09:21Z</time>
      </trkpt>
      <trkpt lat="48.06686" lon="4.3168">
        <ele>238.06</ele>
        <time>2021-08-10T19:09:23Z</time>
      </trkpt>
      <trkpt lat="48.06682" lon="4.31686">
        <ele>238.06</ele>
        <time>2021-08-10T19:09:24Z</time>
      </trkpt>
      <trkpt lat="48.06679" lon="4.31691">
        <ele>238.06</ele>
        <time>2021-08-10T19:09:25Z</time>
      </trkpt>
      <trkpt lat="48.06676" lon="4.31696">
        <ele>239.51</ele>
        <time>2021-08-10T19:09:26Z</time>
      </trkpt>
      <trkpt lat="48.06673" lon="4.317">
        <ele>239.51</ele>
        <time>2021-08-10T19:09:27Z</time>
      </trkpt>
      <trkpt lat="48.06662" lon="4.31725">
        <ele>240.47</ele>
        <time>2021-08-10T19:09:33Z</time>
      </trkpt>
      <trkpt lat="48.06643" lon="4.31758">
        <ele>242.87</ele>
        <time>2021-08-10T19:09:41Z</time>
      </trkpt>
      <trkpt lat="48.06623" lon="4.31795">
        <ele>244.79</ele>
        <time>2021-08-10T19:09:50Z</time>
      </trkpt>
      <trkpt lat="48.06601" lon="4.31831">
        <ele>246.23</ele>
        <time>2021-08-10T19:10:00Z</time>
      </trkpt>
      <trkpt lat="48.06586" lon="4.31858">
        <ele>247.68</ele>
        <time>2021-08-10T19:10:08Z</time>
      </trkpt>
      <trkpt lat="48.06571" lon="4.31886">
        <ele>249.12</ele>
        <time>2021-08-10T19:10:16Z</time>
      </trkpt>
      <trkpt lat="48.0655" lon="4.31922">
        <ele>251.04</ele>
        <time>2021-08-10T19:10:27Z</time>
      </trkpt>
      <trkpt lat="48.06531" lon="4.31957">
        <ele>252.96</ele>
        <time>2021-08-10T19:10:38Z</time>
      </trkpt>
      <trkpt lat="48.06515" lon="4.31985">
        <ele>253.93</ele>
        <time>2021-08-10T19:10:47Z</time>
      </trkpt>
      <trkpt lat="48.06503" lon="4.32001">
        <ele>254.89</ele>
        <time>2021-08-10T19:10:53Z</time>
      </trkpt>
      <trkpt lat="48.06496" lon="4.32014">
        <ele>255.85</ele>
        <time>2021-08-10T19:10:57Z</time>
      </trkpt>
      <trkpt lat="48.06495" lon="4.32018">
        <ele>255.85</ele>
        <time>2021-08-10T19:10:58Z</time>
      </trkpt>
      <trkpt lat="48.06494" lon="4.32021">
        <ele>255.85</ele>
        <time>2021-08-10T19:10:59Z</time>
      </trkpt>
      <trkpt lat="48.06475" lon="4.32056">
        <ele>257.29</ele>
        <time>2021-08-10T19:11:10Z</time>
      </trkpt>
      <trkpt lat="48.06459" lon="4.32083">
        <ele>258.73</ele>
        <time>2021-08-10T19:11:19Z</time>
      </trkpt>
      <trkpt lat="48.06445" lon="4.32106">
        <ele>259.69</ele>
        <time>2021-08-10T19:11:27Z</time>
      </trkpt>
      <trkpt lat="48.0643" lon="4.32127">
        <ele>260.65</ele>
        <time>2021-08-10T19:11:35Z</time>
      </trkpt>
      <trkpt lat="48.06414" lon="4.32148">
        <ele>262.1</ele>
        <time>2021-08-10T19:11:44Z</time>
      </trkpt>
      <trkpt lat="48.06394" lon="4.32169">
        <ele>263.06</ele>
        <time>2021-08-10T19:11:53Z</time>
      </trkpt>
      <trkpt lat="48.06376" lon="4.32188">
        <ele>264.02</ele>
        <time>2021-08-10T19:12:01Z</time>
      </trkpt>
      <trkpt lat="48.06369" lon="4.32194">
        <ele>264.5</ele>
        <time>2021-08-10T19:12:04Z</time>
      </trkpt>
      <trkpt lat="48.06367" lon="4.32197">
        <ele>264.5</ele>
        <time>2021-08-10T19:12:05Z</time>
      </trkpt>
      <trkpt lat="48.06346" lon="4.32225">
        <ele>265.94</ele>
        <time>2021-08-10T19:12:14Z</time>
      </trkpt>
      <trkpt lat="48.06329" lon="4.32253">
        <ele>266.42</ele>
        <time>2021-08-10T19:12:22Z</time>
      </trkpt>
      <trkpt lat="48.06311" lon="4.32284">
        <ele>265.94</ele>
        <time>2021-08-10T19:12:30Z</time>
      </trkpt>
      <trkpt lat="48.06295" lon="4.32313">
        <ele>264.5</ele>
        <time>2021-08-10T19:12:36Z</time>
      </trkpt>
      <trkpt lat="48.06265" lon="4.32372">
        <ele>264.02</ele>
        <time>2021-08-10T19:12:46Z</time>
      </trkpt>
      <trkpt lat="48.06229" lon="4.32436">
        <ele>264.02</ele>
        <time>2021-08-10T19:12:57Z</time>
      </trkpt>
      <trkpt lat="48.06196" lon="4.32497">
        <ele>266.42</ele>
        <time>2021-08-10T19:13:08Z</time>
      </trkpt>
      <trkpt lat="48.0617" lon="4.32542">
        <ele>267.38</ele>
        <time>2021-08-10T19:13:17Z</time>
      </trkpt>
      <trkpt lat="48.06138" lon="4.32602">
        <ele>268.83</ele>
        <time>2021-08-10T19:13:30Z</time>
      </trkpt>
      <trkpt lat="48.06118" lon="4.32638">
        <ele>269.79</ele>
        <time>2021-08-10T19:13:38Z</time>
      </trkpt>
      <trkpt lat="48.06092" lon="4.32687">
        <ele>270.75</ele>
        <time>2021-08-10T19:13:49Z</time>
      </trkpt>
      <trkpt lat="48.06077" lon="4.32716">
        <ele>270.75</ele>
        <time>2021-08-10T19:13:56Z</time>
      </trkpt>
      <trkpt lat="48.06053" lon="4.3276">
        <ele>272.19</ele>
        <time>2021-08-10T19:14:06Z</time>
      </trkpt>
      <trkpt lat="48.06035" lon="4.32794">
        <ele>272.67</ele>
        <time>2021-08-10T19:14:14Z</time>
      </trkpt>
      <trkpt lat="48.06016" lon="4.32828">
        <ele>273.15</ele>
        <time>2021-08-10T19:14:22Z</time>
      </trkpt>
      <trkpt lat="48.06013" lon="4.32831">
        <ele>273.15</ele>
        <time>2021-08-10T19:14:23Z</time>
      </trkpt>
      <trkpt lat="48.0601" lon="4.32832">
        <ele>273.15</ele>
        <time>2021-08-10T19:14:24Z</time>
      </trkpt>
      <trkpt lat="48.06006" lon="4.32831">
        <ele>273.15</ele>
        <time>2021-08-10T19:14:25Z</time>
      </trkpt>
      <trkpt lat="48.06003" lon="4.32828">
        <ele>273.15</ele>
        <time>2021-08-10T19:14:26Z</time>
      </trkpt>
      <trkpt lat="48.06002" lon="4.32823">
        <ele>273.63</ele>
        <time>2021-08-10T19:14:27Z</time>
      </trkpt>
      <trkpt lat="48.06002" lon="4.32818">
        <ele>273.63</ele>
        <time>2021-08-10T19:14:28Z</time>
      </trkpt>
      <trkpt lat="48.06001" lon="4.32813">
        <ele>273.63</ele>
        <time>2021-08-10T19:14:29Z</time>
      </trkpt>
      <trkpt lat="48.06001" lon="4.32789">
        <ele>273.63</ele>
        <time>2021-08-10T19:14:33Z</time>
      </trkpt>
      <trkpt lat="48.06008" lon="4.32738">
        <ele>272.67</ele>
        <time>2021-08-10T19:14:41Z</time>
      </trkpt>
      <trkpt lat="48.06012" lon="4.32678">
        <ele>271.23</ele>
        <time>2021-08-10T19:14:49Z</time>
      </trkpt>
      <trkpt lat="48.06014" lon="4.32662">
        <ele>271.23</ele>
        <time>2021-08-10T19:14:51Z</time>
      </trkpt>
      <trkpt lat="48.06014" lon="4.32655">
        <ele>271.23</ele>
        <time>2021-08-10T19:14:52Z</time>
      </trkpt>
      <trkpt lat="48.06014" lon="4.32645">
        <ele>270.75</ele>
        <time>2021-08-10T19:14:53Z</time>
      </trkpt>
      <trkpt lat="48.06015" lon="4.32638">
        <ele>270.75</ele>
        <time>2021-08-10T19:14:54Z</time>
      </trkpt>
      <trkpt lat="48.06016" lon="4.32629">
        <ele>270.75</ele>
        <time>2021-08-10T19:14:55Z</time>
      </trkpt>
      <trkpt lat="48.06022" lon="4.32538">
        <ele>268.83</ele>
        <time>2021-08-10T19:15:04Z</time>
      </trkpt>
      <trkpt lat="48.06029" lon="4.32424">
        <ele>266.42</ele>
        <time>2021-08-10T19:15:14Z</time>
      </trkpt>
      <trkpt lat="48.06038" lon="4.32307">
        <ele>264.98</ele>
        <time>2021-08-10T19:15:24Z</time>
      </trkpt>
      <trkpt lat="48.06047" lon="4.32179">
        <ele>264.02</ele>
        <time>2021-08-10T19:15:35Z</time>
      </trkpt>
      <trkpt lat="48.06054" lon="4.32062">
        <ele>264.02</ele>
        <time>2021-08-10T19:15:46Z</time>
      </trkpt>
      <trkpt lat="48.06063" lon="4.31957">
        <ele>263.54</ele>
        <time>2021-08-10T19:15:56Z</time>
      </trkpt>
      <trkpt lat="48.06069" lon="4.31867">
        <ele>263.06</ele>
        <time>2021-08-10T19:16:05Z</time>
      </trkpt>
      <trkpt lat="48.0607" lon="4.31798">
        <ele>264.02</ele>
        <time>2021-08-10T19:16:13Z</time>
      </trkpt>
      <trkpt lat="48.06064" lon="4.31708">
        <ele>264.98</ele>
        <time>2021-08-10T19:16:24Z</time>
      </trkpt>
      <trkpt lat="48.0606" lon="4.31663">
        <ele>265.46</ele>
        <time>2021-08-10T19:16:30Z</time>
      </trkpt>
      <trkpt lat="48.06059" lon="4.31656">
        <ele>265.46</ele>
        <time>2021-08-10T19:16:31Z</time>
      </trkpt>
      <trkpt lat="48.06054" lon="4.31608">
        <ele>265.94</ele>
        <time>2021-08-10T19:16:38Z</time>
      </trkpt>
      <trkpt lat="48.06053" lon="4.31594">
        <ele>265.94</ele>
        <time>2021-08-10T19:16:40Z</time>
      </trkpt>
      <trkpt lat="48.06049" lon="4.3153">
        <ele>265.94</ele>
        <time>2021-08-10T19:16:49Z</time>
      </trkpt>
      <trkpt lat="48.06041" lon="4.31467">
        <ele>266.42</ele>
        <time>2021-08-10T19:16:58Z</time>
      </trkpt>
      <trkpt lat="48.06026" lon="4.31403">
        <ele>266.42</ele>
        <time>2021-08-10T19:17:07Z</time>
      </trkpt>
      <trkpt lat="48.06002" lon="4.31317">
        <ele>266.9</ele>
        <time>2021-08-10T19:17:19Z</time>
      </trkpt>
      <trkpt lat="48.0598" lon="4.31232">
        <ele>267.86</ele>
        <time>2021-08-10T19:17:31Z</time>
      </trkpt>
      <trkpt lat="48.05978" lon="4.31224">
        <ele>267.86</ele>
        <time>2021-08-10T19:17:32Z</time>
      </trkpt>
      <trkpt lat="48.05953" lon="4.3113">
        <ele>267.86</ele>
        <time>2021-08-10T19:17:45Z</time>
      </trkpt>
      <trkpt lat="48.05947" lon="4.3111">
        <ele>267.86</ele>
        <time>2021-08-10T19:17:48Z</time>
      </trkpt>
      <trkpt lat="48.05945" lon="4.31096">
        <ele>267.86</ele>
        <time>2021-08-10T19:17:50Z</time>
      </trkpt>
      <trkpt lat="48.05943" lon="4.3109">
        <ele>267.86</ele>
        <time>2021-08-10T19:17:51Z</time>
      </trkpt>
      <trkpt lat="48.05939" lon="4.31077">
        <ele>267.86</ele>
        <time>2021-08-10T19:17:53Z</time>
      </trkpt>
      <trkpt lat="48.05937" lon="4.3107">
        <ele>267.86</ele>
        <time>2021-08-10T19:17:54Z</time>
      </trkpt>
      <trkpt lat="48.05935" lon="4.31062">
        <ele>267.86</ele>
        <time>2021-08-10T19:17:55Z</time>
      </trkpt>
      <trkpt lat="48.05933" lon="4.31055">
        <ele>267.86</ele>
        <time>2021-08-10T19:17:56Z</time>
      </trkpt>
      <trkpt lat="48.05931" lon="4.31048">
        <ele>266.42</ele>
        <time>2021-08-10T19:17:57Z</time>
      </trkpt>
      <trkpt lat="48.05915" lon="4.30992">
        <ele>266.42</ele>
        <time>2021-08-10T19:18:05Z</time>
      </trkpt>
      <trkpt lat="48.05913" lon="4.30985">
        <ele>266.42</ele>
        <time>2021-08-10T19:18:06Z</time>
      </trkpt>
      <trkpt lat="48.059" lon="4.30928">
        <ele>265.94</ele>
        <time>2021-08-10T19:18:14Z</time>
      </trkpt>
      <trkpt lat="48.05896" lon="4.3091">
        <ele>266.42</ele>
        <time>2021-08-10T19:18:17Z</time>
      </trkpt>
      <trkpt lat="48.0589" lon="4.309">
        <ele>266.42</ele>
        <time>2021-08-10T19:18:19Z</time>
      </trkpt>
      <trkpt lat="48.05884" lon="4.30896">
        <ele>265.46</ele>
        <time>2021-08-10T19:18:20Z</time>
      </trkpt>
      <trkpt lat="48.05881" lon="4.30894">
        <ele>265.46</ele>
        <time>2021-08-10T19:18:21Z</time>
      </trkpt>
      <trkpt lat="48.05843" lon="4.30879">
        <ele>264.5</ele>
        <time>2021-08-10T19:18:28Z</time>
      </trkpt>
      <trkpt lat="48.05799" lon="4.30862">
        <ele>262.1</ele>
        <time>2021-08-10T19:18:35Z</time>
      </trkpt>
      <trkpt lat="48.05758" lon="4.30845">
        <ele>259.21</ele>
        <time>2021-08-10T19:18:41Z</time>
      </trkpt>
      <trkpt lat="48.05743" lon="4.30841">
        <ele>257.77</ele>
        <time>2021-08-10T19:18:43Z</time>
      </trkpt>
      <trkpt lat="48.05736" lon="4.30838">
        <ele>257.77</ele>
        <time>2021-08-10T19:18:44Z</time>
      </trkpt>
      <trkpt lat="48.0573" lon="4.30833">
        <ele>257.29</ele>
        <time>2021-08-10T19:18:45Z</time>
      </trkpt>
      <trkpt lat="48.05699" lon="4.30808">
        <ele>255.85</ele>
        <time>2021-08-10T19:18:50Z</time>
      </trkpt>
      <trkpt lat="48.05695" lon="4.30802">
        <ele>254.89</ele>
        <time>2021-08-10T19:18:51Z</time>
      </trkpt>
      <trkpt lat="48.05688" lon="4.30792">
        <ele>254.41</ele>
        <time>2021-08-10T19:18:53Z</time>
      </trkpt>
      <trkpt lat="48.05684" lon="4.30788">
        <ele>252.96</ele>
        <time>2021-08-10T19:18:54Z</time>
      </trkpt>
      <trkpt lat="48.05666" lon="4.30767">
        <ele>250.08</ele>
        <time>2021-08-10T19:18:58Z</time>
      </trkpt>
      <trkpt lat="48.05661" lon="4.30762">
        <ele>249.12</ele>
        <time>2021-08-10T19:18:59Z</time>
      </trkpt>
      <trkpt lat="48.05656" lon="4.30759">
        <ele>248.64</ele>
        <time>2021-08-10T19:19:00Z</time>
      </trkpt>
      <trkpt lat="48.05651" lon="4.30756">
        <ele>247.68</ele>
        <time>2021-08-10T19:19:01Z</time>
      </trkpt>
      <trkpt lat="48.05646" lon="4.30753">
        <ele>247.68</ele>
        <time>2021-08-10T19:19:02Z</time>
      </trkpt>
      <trkpt lat="48.05634" lon="4.30747">
        <ele>246.23</ele>
        <time>2021-08-10T19:19:05Z</time>
      </trkpt>
      <trkpt lat="48.05633" lon="4.30747">
        <ele>246.23</ele>
        <time>2021-08-10T19:19:10Z</time>
      </trkpt>
      <trkpt lat="48.05628" lon="4.30744">
        <ele>245.75</ele>
        <time>2021-08-10T19:19:25Z</time>
      </trkpt>
      <trkpt lat="48.05615" lon="4.30738">
        <ele>244.31</ele>
        <time>2021-08-10T19:19:29Z</time>
      </trkpt>
      <trkpt lat="48.05611" lon="4.30735">
        <ele>243.83</ele>
        <time>2021-08-10T19:19:30Z</time>
      </trkpt>
      <trkpt lat="48.05608" lon="4.30733">
        <ele>243.35</ele>
        <time>2021-08-10T19:19:31Z</time>
      </trkpt>
      <trkpt lat="48.05605" lon="4.30731">
        <ele>242.87</ele>
        <time>2021-08-10T19:19:32Z</time>
      </trkpt>
      <trkpt lat="48.05602" lon="4.30729">
        <ele>242.39</ele>
        <time>2021-08-10T19:19:33Z</time>
      </trkpt>
      <trkpt lat="48.056" lon="4.30726">
        <ele>242.39</ele>
        <time>2021-08-10T19:19:34Z</time>
      </trkpt>
      <trkpt lat="48.05591" lon="4.30721">
        <ele>240.47</ele>
        <time>2021-08-10T19:19:37Z</time>
      </trkpt>
      <trkpt lat="48.05581" lon="4.30716">
        <ele>239.02</ele>
        <time>2021-08-10T19:19:40Z</time>
      </trkpt>
      <trkpt lat="48.05572" lon="4.3071">
        <ele>237.1</ele>
        <time>2021-08-10T19:19:42Z</time>
      </trkpt>
      <trkpt lat="48.05548" lon="4.30701">
        <ele>233.74</ele>
        <time>2021-08-10T19:19:47Z</time>
      </trkpt>
      <trkpt lat="48.05543" lon="4.307">
        <ele>232.78</ele>
        <time>2021-08-10T19:19:48Z</time>
      </trkpt>
      <trkpt lat="48.05537" lon="4.307">
        <ele>232.78</ele>
        <time>2021-08-10T19:19:49Z</time>
      </trkpt>
      <trkpt lat="48.05532" lon="4.30701">
        <ele>231.81</ele>
        <time>2021-08-10T19:19:50Z</time>
      </trkpt>
      <trkpt lat="48.05506" lon="4.30704">
        <ele>229.41</ele>
        <time>2021-08-10T19:19:56Z</time>
      </trkpt>
      <trkpt lat="48.05496" lon="4.30706">
        <ele>228.93</ele>
        <time>2021-08-10T19:19:58Z</time>
      </trkpt>
      <trkpt lat="48.05492" lon="4.30708">
        <ele>228.93</ele>
        <time>2021-08-10T19:19:59Z</time>
      </trkpt>
      <trkpt lat="48.05487" lon="4.3071">
        <ele>227.97</ele>
        <time>2021-08-10T19:20:00Z</time>
      </trkpt>
      <trkpt lat="48.05466" lon="4.30721">
        <ele>227.49</ele>
        <time>2021-08-10T19:20:04Z</time>
      </trkpt>
      <trkpt lat="48.05449" lon="4.3073">
        <ele>226.05</ele>
        <time>2021-08-10T19:20:07Z</time>
      </trkpt>
      <trkpt lat="48.05429" lon="4.30743">
        <ele>224.12</ele>
        <time>2021-08-10T19:20:11Z</time>
      </trkpt>
      <trkpt lat="48.05424" lon="4.30745">
        <ele>223.64</ele>
        <time>2021-08-10T19:20:12Z</time>
      </trkpt>
      <trkpt lat="48.05411" lon="4.30748">
        <ele>223.16</ele>
        <time>2021-08-10T19:20:14Z</time>
      </trkpt>
      <trkpt lat="48.05389" lon="4.30748">
        <ele>222.68</ele>
        <time>2021-08-10T19:20:18Z</time>
      </trkpt>
      <trkpt lat="48.05354" lon="4.30719">
        <ele>221.72</ele>
        <time>2021-08-10T19:20:26Z</time>
      </trkpt>
      <trkpt lat="48.05329" lon="4.30688">
        <ele>220.28</ele>
        <time>2021-08-10T19:20:32Z</time>
      </trkpt>
      <trkpt lat="48.05321" lon="4.30677">
        <ele>219.8</ele>
        <time>2021-08-10T19:20:34Z</time>
      </trkpt>
      <trkpt lat="48.05317" lon="4.30672">
        <ele>219.32</ele>
        <time>2021-08-10T19:20:35Z</time>
      </trkpt>
      <trkpt lat="48.05306" lon="4.30652">
        <ele>218.84</ele>
        <time>2021-08-10T19:20:38Z</time>
      </trkpt>
      <trkpt lat="48.05303" lon="4.30645">
        <ele>218.36</ele>
        <time>2021-08-10T19:20:39Z</time>
      </trkpt>
      <trkpt lat="48.053" lon="4.30632">
        <ele>218.36</ele>
        <time>2021-08-10T19:20:41Z</time>
      </trkpt>
      <trkpt lat="48.05282" lon="4.30598">
        <ele>217.88</ele>
        <time>2021-08-10T19:20:48Z</time>
      </trkpt>
      <trkpt lat="48.05262" lon="4.30568">
        <ele>217.4</ele>
        <time>2021-08-10T19:20:55Z</time>
      </trkpt>
      <trkpt lat="48.05246" lon="4.3055">
        <ele>216.91</ele>
        <time>2021-08-10T19:20:59Z</time>
      </trkpt>
      <trkpt lat="48.05237" lon="4.30541">
        <ele>216.91</ele>
        <time>2021-08-10T19:21:01Z</time>
      </trkpt>
      <trkpt lat="48.05212" lon="4.30501">
        <ele>216.43</ele>
        <time>2021-08-10T19:21:08Z</time>
      </trkpt>
      <trkpt lat="48.05192" lon="4.30463">
        <ele>215.95</ele>
        <time>2021-08-10T19:21:15Z</time>
      </trkpt>
      <trkpt lat="48.05179" lon="4.30415">
        <ele>214.99</ele>
        <time>2021-08-10T19:21:23Z</time>
      </trkpt>
      <trkpt lat="48.05175" lon="4.30402">
        <ele>214.99</ele>
        <time>2021-08-10T19:21:25Z</time>
      </trkpt>
      <trkpt lat="48.05161" lon="4.30346">
        <ele>214.51</ele>
        <time>2021-08-10T19:21:34Z</time>
      </trkpt>
      <trkpt lat="48.05153" lon="4.30319">
        <ele>213.55</ele>
        <time>2021-08-10T19:21:39Z</time>
      </trkpt>
      <trkpt lat="48.05136" lon="4.30275">
        <ele>213.07</ele>
        <time>2021-08-10T19:21:47Z</time>
      </trkpt>
      <trkpt lat="48.05118" lon="4.30245">
        <ele>213.07</ele>
        <time>2021-08-10T19:21:54Z</time>
      </trkpt>
      <trkpt lat="48.05088" lon="4.30212">
        <ele>211.63</ele>
        <time>2021-08-10T19:22:03Z</time>
      </trkpt>
      <trkpt lat="48.05072" lon="4.3019">
        <ele>211.15</ele>
        <time>2021-08-10T19:22:09Z</time>
      </trkpt>
      <trkpt lat="48.05054" lon="4.3016">
        <ele>211.15</ele>
        <time>2021-08-10T19:22:16Z</time>
      </trkpt>
      <trkpt lat="48.05033" lon="4.30131">
        <ele>210.67</ele>
        <time>2021-08-10T19:22:23Z</time>
      </trkpt>
      <trkpt lat="48.05015" lon="4.3011">
        <ele>210.67</ele>
        <time>2021-08-10T19:22:30Z</time>
      </trkpt>
      <trkpt lat="48.04995" lon="4.30086">
        <ele>210.67</ele>
        <time>2021-08-10T19:22:38Z</time>
      </trkpt>
      <trkpt lat="48.04976" lon="4.30057">
        <ele>210.19</ele>
        <time>2021-08-10T19:22:45Z</time>
      </trkpt>
      <trkpt lat="48.04952" lon="4.30014">
        <ele>209.7</ele>
        <time>2021-08-10T19:22:52Z</time>
      </trkpt>
      <trkpt lat="48.04934" lon="4.29984">
        <ele>209.7</ele>
        <time>2021-08-10T19:22:58Z</time>
      </trkpt>
      <trkpt lat="48.04917" lon="4.29959">
        <ele>209.7</ele>
        <time>2021-08-10T19:23:04Z</time>
      </trkpt>
      <trkpt lat="48.04902" lon="4.29931">
        <ele>209.22</ele>
        <time>2021-08-10T19:23:10Z</time>
      </trkpt>
      <trkpt lat="48.04882" lon="4.29896">
        <ele>208.26</ele>
        <time>2021-08-10T19:23:17Z</time>
      </trkpt>
      <trkpt lat="48.04859" lon="4.29858">
        <ele>207.3</ele>
        <time>2021-08-10T19:23:24Z</time>
      </trkpt>
      <trkpt lat="48.04856" lon="4.29854">
        <ele>207.3</ele>
        <time>2021-08-10T19:23:25Z</time>
      </trkpt>
      <trkpt lat="48.04827" lon="4.29808">
        <ele>206.82</ele>
        <time>2021-08-10T19:23:33Z</time>
      </trkpt>
      <trkpt lat="48.04805" lon="4.29777">
        <ele>206.34</ele>
        <time>2021-08-10T19:23:39Z</time>
      </trkpt>
      <trkpt lat="48.048" lon="4.29773">
        <ele>206.34</ele>
        <time>2021-08-10T19:23:40Z</time>
      </trkpt>
      <trkpt lat="48.04796" lon="4.29768">
        <ele>205.86</ele>
        <time>2021-08-10T19:23:41Z</time>
      </trkpt>
      <trkpt lat="48.04789" lon="4.29758">
        <ele>205.86</ele>
        <time>2021-08-10T19:23:43Z</time>
      </trkpt>
      <trkpt lat="48.04782" lon="4.29747">
        <ele>205.86</ele>
        <time>2021-08-10T19:23:45Z</time>
      </trkpt>
      <trkpt lat="48.04778" lon="4.29742">
        <ele>205.86</ele>
        <time>2021-08-10T19:23:46Z</time>
      </trkpt>
      <trkpt lat="48.04763" lon="4.2971">
        <ele>205.86</ele>
        <time>2021-08-10T19:23:52Z</time>
      </trkpt>
      <trkpt lat="48.04759" lon="4.29699">
        <ele>205.38</ele>
        <time>2021-08-10T19:23:54Z</time>
      </trkpt>
      <trkpt lat="48.04756" lon="4.29694">
        <ele>205.38</ele>
        <time>2021-08-10T19:23:55Z</time>
      </trkpt>
      <trkpt lat="48.04754" lon="4.29687">
        <ele>205.38</ele>
        <time>2021-08-10T19:23:56Z</time>
      </trkpt>
      <trkpt lat="48.04743" lon="4.29644">
        <ele>204.9</ele>
        <time>2021-08-10T19:24:03Z</time>
      </trkpt>
      <trkpt lat="48.04739" lon="4.29626">
        <ele>204.9</ele>
        <time>2021-08-10T19:24:06Z</time>
      </trkpt>
      <trkpt lat="48.04738" lon="4.29619">
        <ele>204.42</ele>
        <time>2021-08-10T19:24:07Z</time>
      </trkpt>
      <trkpt lat="48.04738" lon="4.29612">
        <ele>204.42</ele>
        <time>2021-08-10T19:24:08Z</time>
      </trkpt>
      <trkpt lat="48.04737" lon="4.29571">
        <ele>203.94</ele>
        <time>2021-08-10T19:24:14Z</time>
      </trkpt>
      <trkpt lat="48.04737" lon="4.29563">
        <ele>203.46</ele>
        <time>2021-08-10T19:24:15Z</time>
      </trkpt>
      <trkpt lat="48.04737" lon="4.29557">
        <ele>203.46</ele>
        <time>2021-08-10T19:24:16Z</time>
      </trkpt>
      <trkpt lat="48.04734" lon="4.29523">
        <ele>203.46</ele>
        <time>2021-08-10T19:24:22Z</time>
      </trkpt>
      <trkpt lat="48.04725" lon="4.29493">
        <ele>203.46</ele>
        <time>2021-08-10T19:24:27Z</time>
      </trkpt>
      <trkpt lat="48.04708" lon="4.29462">
        <ele>202.98</ele>
        <time>2021-08-10T19:24:34Z</time>
      </trkpt>
      <trkpt lat="48.04692" lon="4.29433">
        <ele>202.98</ele>
        <time>2021-08-10T19:24:40Z</time>
      </trkpt>
      <trkpt lat="48.04689" lon="4.29429">
        <ele>202.98</ele>
        <time>2021-08-10T19:24:41Z</time>
      </trkpt>
      <trkpt lat="48.04665" lon="4.29396">
        <ele>202.01</ele>
        <time>2021-08-10T19:24:48Z</time>
      </trkpt>
      <trkpt lat="48.04646" lon="4.29375">
        <ele>202.01</ele>
        <time>2021-08-10T19:24:54Z</time>
      </trkpt>
      <trkpt lat="48.04629" lon="4.29357">
        <ele>202.01</ele>
        <time>2021-08-10T19:24:59Z</time>
      </trkpt>
      <trkpt lat="48.04626" lon="4.29343">
        <ele>201.53</ele>
        <time>2021-08-10T19:25:05Z</time>
      </trkpt>
      <trkpt lat="48.04623" lon="4.29337">
        <ele>202.01</ele>
        <time>2021-08-10T19:25:08Z</time>
      </trkpt>
      <trkpt lat="48.04621" lon="4.29336">
        <ele>202.01</ele>
        <time>2021-08-10T19:25:09Z</time>
      </trkpt>
      <trkpt lat="48.0462" lon="4.29334">
        <ele>202.01</ele>
        <time>2021-08-10T19:25:10Z</time>
      </trkpt>
      <trkpt lat="48.04618" lon="4.29332">
        <ele>202.01</ele>
        <time>2021-08-10T19:25:11Z</time>
      </trkpt>
      <trkpt lat="48.04616" lon="4.29331">
        <ele>202.01</ele>
        <time>2021-08-10T19:25:12Z</time>
      </trkpt>
      <trkpt lat="48.04614" lon="4.2933">
        <ele>202.01</ele>
        <time>2021-08-10T19:25:13Z</time>
      </trkpt>
      <trkpt lat="48.046" lon="4.29319">
        <ele>202.01</ele>
        <time>2021-08-10T19:25:18Z</time>
      </trkpt>
      <trkpt lat="48.04579" lon="4.29304">
        <ele>201.53</ele>
        <time>2021-08-10T19:25:24Z</time>
      </trkpt>
      <trkpt lat="48.04559" lon="4.29287">
        <ele>201.05</ele>
        <time>2021-08-10T19:25:30Z</time>
      </trkpt>
      <trkpt lat="48.04537" lon="4.29268">
        <ele>201.05</ele>
        <time>2021-08-10T19:25:36Z</time>
      </trkpt>
      <trkpt lat="48.04532" lon="4.29264">
        <ele>200.57</ele>
        <time>2021-08-10T19:25:37Z</time>
      </trkpt>
      <trkpt lat="48.04509" lon="4.29239">
        <ele>200.09</ele>
        <time>2021-08-10T19:25:44Z</time>
      </trkpt>
      <trkpt lat="48.04489" lon="4.29207">
        <ele>200.57</ele>
        <time>2021-08-10T19:25:51Z</time>
      </trkpt>
      <trkpt lat="48.04477" lon="4.29174">
        <ele>199.61</ele>
        <time>2021-08-10T19:25:57Z</time>
      </trkpt>
      <trkpt lat="48.04472" lon="4.29157">
        <ele>199.61</ele>
        <time>2021-08-10T19:26:00Z</time>
      </trkpt>
      <trkpt lat="48.04462" lon="4.29116">
        <ele>199.13</ele>
        <time>2021-08-10T19:26:06Z</time>
      </trkpt>
      <trkpt lat="48.0446" lon="4.29109">
        <ele>199.13</ele>
        <time>2021-08-10T19:26:07Z</time>
      </trkpt>
      <trkpt lat="48.04455" lon="4.29089">
        <ele>199.13</ele>
        <time>2021-08-10T19:26:10Z</time>
      </trkpt>
      <trkpt lat="48.04453" lon="4.29083">
        <ele>199.13</ele>
        <time>2021-08-10T19:26:11Z</time>
      </trkpt>
      <trkpt lat="48.04451" lon="4.29076">
        <ele>199.13</ele>
        <time>2021-08-10T19:26:12Z</time>
      </trkpt>
      <trkpt lat="48.04447" lon="4.29064">
        <ele>198.65</ele>
        <time>2021-08-10T19:26:14Z</time>
      </trkpt>
      <trkpt lat="48.04441" lon="4.29035">
        <ele>199.13</ele>
        <time>2021-08-10T19:26:20Z</time>
      </trkpt>
      <trkpt lat="48.04441" lon="4.29028">
        <ele>199.13</ele>
        <time>2021-08-10T19:26:25Z</time>
      </trkpt>
      <trkpt lat="48.0444" lon="4.29023">
        <ele>199.13</ele>
        <time>2021-08-10T19:26:27Z</time>
      </trkpt>
      <trkpt lat="48.04438" lon="4.2902">
        <ele>199.13</ele>
        <time>2021-08-10T19:26:28Z</time>
      </trkpt>
      <trkpt lat="48.04437" lon="4.29017">
        <ele>199.13</ele>
        <time>2021-08-10T19:26:29Z</time>
      </trkpt>
      <trkpt lat="48.04435" lon="4.29013">
        <ele>199.13</ele>
        <time>2021-08-10T19:26:30Z</time>
      </trkpt>
      <trkpt lat="48.04433" lon="4.29008">
        <ele>199.13</ele>
        <time>2021-08-10T19:26:31Z</time>
      </trkpt>
      <trkpt lat="48.04431" lon="4.29003">
        <ele>199.13</ele>
        <time>2021-08-10T19:26:32Z</time>
      </trkpt>
      <trkpt lat="48.0442" lon="4.28969">
        <ele>198.65</ele>
        <time>2021-08-10T19:26:39Z</time>
      </trkpt>
      <trkpt lat="48.0442" lon="4.28969">
        <ele>198.65</ele>
        <time>2021-08-10T19:26:47Z</time>
      </trkpt>
      <trkpt lat="48.0442" lon="4.2897">
        <ele>198.65</ele>
        <time>2021-08-10T19:26:59Z</time>
      </trkpt>
      <trkpt lat="48.0442" lon="4.2897">
        <ele>198.65</ele>
        <time>2021-08-10T19:27:13Z</time>
      </trkpt>
      <trkpt lat="48.04419" lon="4.28969">
        <ele>198.65</ele>
        <time>2021-08-10T19:27:26Z</time>
      </trkpt>
      <trkpt lat="48.04417" lon="4.28962">
        <ele>198.65</ele>
        <time>2021-08-10T19:27:36Z</time>
      </trkpt>
      <trkpt lat="48.0441" lon="4.28941">
        <ele>198.17</ele>
        <time>2021-08-10T19:27:42Z</time>
      </trkpt>
      <trkpt lat="48.04397" lon="4.28898">
        <ele>197.69</ele>
        <time>2021-08-10T19:27:49Z</time>
      </trkpt>
      <trkpt lat="48.04374" lon="4.28843">
        <ele>197.21</ele>
        <time>2021-08-10T19:27:59Z</time>
      </trkpt>
      <trkpt lat="48.04351" lon="4.28798">
        <ele>196.73</ele>
        <time>2021-08-10T19:28:08Z</time>
      </trkpt>
      <trkpt lat="48.04326" lon="4.28738">
        <ele>196.25</ele>
        <time>2021-08-10T19:28:18Z</time>
      </trkpt>
      <trkpt lat="48.04306" lon="4.28679">
        <ele>196.25</ele>
        <time>2021-08-10T19:28:27Z</time>
      </trkpt>
      <trkpt lat="48.0429" lon="4.28614">
        <ele>195.77</ele>
        <time>2021-08-10T19:28:36Z</time>
      </trkpt>
      <trkpt lat="48.04279" lon="4.28541">
        <ele>195.28</ele>
        <time>2021-08-10T19:28:46Z</time>
      </trkpt>
      <trkpt lat="48.04262" lon="4.28469">
        <ele>194.8</ele>
        <time>2021-08-10T19:28:57Z</time>
      </trkpt>
      <trkpt lat="48.04252" lon="4.28427">
        <ele>194.32</ele>
        <time>2021-08-10T19:29:05Z</time>
      </trkpt>
      <trkpt lat="48.04244" lon="4.28388">
        <ele>194.32</ele>
        <time>2021-08-10T19:29:13Z</time>
      </trkpt>
      <trkpt lat="48.04242" lon="4.28387">
        <ele>194.32</ele>
        <time>2021-08-10T19:29:14Z</time>
      </trkpt>
      <trkpt lat="48.0424" lon="4.28388">
        <ele>194.32</ele>
        <time>2021-08-10T19:29:15Z</time>
      </trkpt>
      <trkpt lat="48.04238" lon="4.2839">
        <ele>194.32</ele>
        <time>2021-08-10T19:29:16Z</time>
      </trkpt>
      <trkpt lat="48.04238" lon="4.28392">
        <ele>194.32</ele>
        <time>2021-08-10T19:29:17Z</time>
      </trkpt>
      <trkpt lat="48.04237" lon="4.28396">
        <ele>193.84</ele>
        <time>2021-08-10T19:29:18Z</time>
      </trkpt>
      <trkpt lat="48.04237" lon="4.28399">
        <ele>193.84</ele>
        <time>2021-08-10T19:29:19Z</time>
      </trkpt>
      <trkpt lat="48.04236" lon="4.28415">
        <ele>193.84</ele>
        <time>2021-08-10T19:29:24Z</time>
      </trkpt>
      <trkpt lat="48.04237" lon="4.28415">
        <ele>193.84</ele>
        <time>2021-08-10T19:29:25Z</time>
      </trkpt>
      <trkpt lat="48.04239" lon="4.28398">
        <ele>193.84</ele>
        <time>2021-08-10T19:29:30Z</time>
      </trkpt>
      <trkpt lat="48.04242" lon="4.2837">
        <ele>193.84</ele>
        <time>2021-08-10T19:29:36Z</time>
      </trkpt>
      <trkpt lat="48.04241" lon="4.28366">
        <ele>193.84</ele>
        <time>2021-08-10T19:29:37Z</time>
      </trkpt>
      <trkpt lat="48.04238" lon="4.28364">
        <ele>193.84</ele>
        <time>2021-08-10T19:29:38Z</time>
      </trkpt>
      <trkpt lat="48.04235" lon="4.28364">
        <ele>193.84</ele>
        <time>2021-08-10T19:29:39Z</time>
      </trkpt>
      <trkpt lat="48.04232" lon="4.28366">
        <ele>193.84</ele>
        <time>2021-08-10T19:29:40Z</time>
      </trkpt>
      <trkpt lat="48.04229" lon="4.2837">
        <ele>193.84</ele>
        <time>2021-08-10T19:29:41Z</time>
      </trkpt>
      <trkpt lat="48.04226" lon="4.28375">
        <ele>193.84</ele>
        <time>2021-08-10T19:29:42Z</time>
      </trkpt>
      <trkpt lat="48.04203" lon="4.28402">
        <ele>193.36</ele>
        <time>2021-08-10T19:29:49Z</time>
      </trkpt>
      <trkpt lat="48.04163" lon="4.28443">
        <ele>193.36</ele>
        <time>2021-08-10T19:30:00Z</time>
      </trkpt>
      <trkpt lat="48.04133" lon="4.28478">
        <ele>193.36</ele>
        <time>2021-08-10T19:30:09Z</time>
      </trkpt>
      <trkpt lat="48.04098" lon="4.28515">
        <ele>193.36</ele>
        <time>2021-08-10T19:30:19Z</time>
      </trkpt>
      <trkpt lat="48.04095" lon="4.28519">
        <ele>194.8</ele>
        <time>2021-08-10T19:30:20Z</time>
      </trkpt>
      <trkpt lat="48.04092" lon="4.28523">
        <ele>194.8</ele>
        <time>2021-08-10T19:30:21Z</time>
      </trkpt>
      <trkpt lat="48.04057" lon="4.28567">
        <ele>194.8</ele>
        <time>2021-08-10T19:30:31Z</time>
      </trkpt>
      <trkpt lat="48.04023" lon="4.28615">
        <ele>194.8</ele>
        <time>2021-08-10T19:30:41Z</time>
      </trkpt>
      <trkpt lat="48.0402" lon="4.28619">
        <ele>194.8</ele>
        <time>2021-08-10T19:30:42Z</time>
      </trkpt>
      <trkpt lat="48.04008" lon="4.28639">
        <ele>194.8</ele>
        <time>2021-08-10T19:30:46Z</time>
      </trkpt>
      <trkpt lat="48.03987" lon="4.2867">
        <ele>194.8</ele>
        <time>2021-08-10T19:30:53Z</time>
      </trkpt>
      <trkpt lat="48.03983" lon="4.28674">
        <ele>194.8</ele>
        <time>2021-08-10T19:30:54Z</time>
      </trkpt>
      <trkpt lat="48.03955" lon="4.28715">
        <ele>194.8</ele>
        <time>2021-08-10T19:31:03Z</time>
      </trkpt>
      <trkpt lat="48.03923" lon="4.28758">
        <ele>194.8</ele>
        <time>2021-08-10T19:31:13Z</time>
      </trkpt>
      <trkpt lat="48.039" lon="4.2879">
        <ele>194.8</ele>
        <time>2021-08-10T19:31:20Z</time>
      </trkpt>
      <trkpt lat="48.03871" lon="4.28833">
        <ele>194.8</ele>
        <time>2021-08-10T19:31:29Z</time>
      </trkpt>
      <trkpt lat="48.03837" lon="4.28885">
        <ele>194.8</ele>
        <time>2021-08-10T19:31:40Z</time>
      </trkpt>
      <trkpt lat="48.03804" lon="4.28936">
        <ele>194.8</ele>
        <time>2021-08-10T19:31:51Z</time>
      </trkpt>
      <trkpt lat="48.03772" lon="4.28987">
        <ele>194.8</ele>
        <time>2021-08-10T19:32:02Z</time>
      </trkpt>
      <trkpt lat="48.03742" lon="4.29031">
        <ele>195.28</ele>
        <time>2021-08-10T19:32:12Z</time>
      </trkpt>
      <trkpt lat="48.03736" lon="4.29041">
        <ele>195.28</ele>
        <time>2021-08-10T19:32:14Z</time>
      </trkpt>
      <trkpt lat="48.0371" lon="4.29084">
        <ele>195.77</ele>
        <time>2021-08-10T19:32:23Z</time>
      </trkpt>
      <trkpt lat="48.03684" lon="4.29137">
        <ele>195.77</ele>
        <time>2021-08-10T19:32:33Z</time>
      </trkpt>
      <trkpt lat="48.03667" lon="4.29187">
        <ele>196.25</ele>
        <time>2021-08-10T19:32:42Z</time>
      </trkpt>
      <trkpt lat="48.03651" lon="4.29239">
        <ele>196.73</ele>
        <time>2021-08-10T19:32:51Z</time>
      </trkpt>
      <trkpt lat="48.03639" lon="4.2927">
        <ele>196.73</ele>
        <time>2021-08-10T19:32:56Z</time>
      </trkpt>
      <trkpt lat="48.03618" lon="4.29312">
        <ele>196.73</ele>
        <time>2021-08-10T19:33:03Z</time>
      </trkpt>
      <trkpt lat="48.03581" lon="4.29363">
        <ele>196.73</ele>
        <time>2021-08-10T19:33:13Z</time>
      </trkpt>
      <trkpt lat="48.03536" lon="4.29418">
        <ele>195.77</ele>
        <time>2021-08-10T19:33:25Z</time>
      </trkpt>
      <trkpt lat="48.03519" lon="4.29433">
        <ele>195.28</ele>
        <time>2021-08-10T19:33:29Z</time>
      </trkpt>
      <trkpt lat="48.03515" lon="4.29436">
        <ele>195.28</ele>
        <time>2021-08-10T19:33:30Z</time>
      </trkpt>
      <trkpt lat="48.03483" lon="4.29465">
        <ele>195.28</ele>
        <time>2021-08-10T19:33:38Z</time>
      </trkpt>
      <trkpt lat="48.03439" lon="4.29496">
        <ele>196.73</ele>
        <time>2021-08-10T19:33:49Z</time>
      </trkpt>
      <trkpt lat="48.03403" lon="4.29531">
        <ele>197.21</ele>
        <time>2021-08-10T19:33:58Z</time>
      </trkpt>
      <trkpt lat="48.03386" lon="4.29549">
        <ele>197.21</ele>
        <time>2021-08-10T19:34:03Z</time>
      </trkpt>
      <trkpt lat="48.03356" lon="4.2959">
        <ele>197.21</ele>
        <time>2021-08-10T19:34:12Z</time>
      </trkpt>
      <trkpt lat="48.0335" lon="4.29599">
        <ele>197.21</ele>
        <time>2021-08-10T19:34:14Z</time>
      </trkpt>
      <trkpt lat="48.03314" lon="4.29641">
        <ele>197.21</ele>
        <time>2021-08-10T19:34:24Z</time>
      </trkpt>
      <trkpt lat="48.03276" lon="4.29679">
        <ele>197.21</ele>
        <time>2021-08-10T19:34:34Z</time>
      </trkpt>
      <trkpt lat="48.0326" lon="4.29692">
        <ele>197.21</ele>
        <time>2021-08-10T19:34:38Z</time>
      </trkpt>
      <trkpt lat="48.03248" lon="4.29704">
        <ele>197.21</ele>
        <time>2021-08-10T19:34:41Z</time>
      </trkpt>
      <trkpt lat="48.03212" lon="4.29746">
        <ele>196.73</ele>
        <time>2021-08-10T19:34:50Z</time>
      </trkpt>
      <trkpt lat="48.03165" lon="4.2979">
        <ele>196.73</ele>
        <time>2021-08-10T19:35:01Z</time>
      </trkpt>
      <trkpt lat="48.03127" lon="4.29827">
        <ele>196.73</ele>
        <time>2021-08-10T19:35:10Z</time>
      </trkpt>
      <trkpt lat="48.03081" lon="4.29871">
        <ele>197.21</ele>
        <time>2021-08-10T19:35:21Z</time>
      </trkpt>
      <trkpt lat="48.03039" lon="4.29913">
        <ele>197.21</ele>
        <time>2021-08-10T19:35:31Z</time>
      </trkpt>
      <trkpt lat="48.02989" lon="4.29964">
        <ele>197.69</ele>
        <time>2021-08-10T19:35:43Z</time>
      </trkpt>
      <trkpt lat="48.02939" lon="4.30017">
        <ele>197.69</ele>
        <time>2021-08-10T19:35:55Z</time>
      </trkpt>
      <trkpt lat="48.02901" lon="4.30054">
        <ele>198.17</ele>
        <time>2021-08-10T19:36:04Z</time>
      </trkpt>
      <trkpt lat="48.02883" lon="4.30068">
        <ele>198.17</ele>
        <time>2021-08-10T19:36:08Z</time>
      </trkpt>
      <trkpt lat="48.02877" lon="4.30072">
        <ele>198.17</ele>
        <time>2021-08-10T19:36:09Z</time>
      </trkpt>
      <trkpt lat="48.02871" lon="4.30076">
        <ele>198.17</ele>
        <time>2021-08-10T19:36:10Z</time>
      </trkpt>
      <trkpt lat="48.02866" lon="4.3008">
        <ele>198.17</ele>
        <time>2021-08-10T19:36:11Z</time>
      </trkpt>
      <trkpt lat="48.02862" lon="4.30084">
        <ele>198.17</ele>
        <time>2021-08-10T19:36:12Z</time>
      </trkpt>
      <trkpt lat="48.02853" lon="4.3009">
        <ele>198.65</ele>
        <time>2021-08-10T19:36:14Z</time>
      </trkpt>
      <trkpt lat="48.02848" lon="4.30093">
        <ele>198.65</ele>
        <time>2021-08-10T19:36:15Z</time>
      </trkpt>
      <trkpt lat="48.02843" lon="4.30096">
        <ele>198.65</ele>
        <time>2021-08-10T19:36:16Z</time>
      </trkpt>
      <trkpt lat="48.0282" lon="4.30118">
        <ele>199.13</ele>
        <time>2021-08-10T19:36:23Z</time>
      </trkpt>
      <trkpt lat="48.02797" lon="4.30138">
        <ele>199.61</ele>
        <time>2021-08-10T19:36:29Z</time>
      </trkpt>
      <trkpt lat="48.0279" lon="4.30147">
        <ele>199.61</ele>
        <time>2021-08-10T19:36:31Z</time>
      </trkpt>
      <trkpt lat="48.02752" lon="4.30185">
        <ele>199.61</ele>
        <time>2021-08-10T19:36:41Z</time>
      </trkpt>
      <trkpt lat="48.02734" lon="4.30199">
        <ele>199.61</ele>
        <time>2021-08-10T19:36:46Z</time>
      </trkpt>
      <trkpt lat="48.02729" lon="4.30197">
        <ele>199.61</ele>
        <time>2021-08-10T19:36:47Z</time>
      </trkpt>
      <trkpt lat="48.02726" lon="4.30194">
        <ele>199.61</ele>
        <time>2021-08-10T19:36:48Z</time>
      </trkpt>
      <trkpt lat="48.02724" lon="4.30189">
        <ele>199.61</ele>
        <time>2021-08-10T19:36:49Z</time>
      </trkpt>
      <trkpt lat="48.02722" lon="4.30183">
        <ele>199.61</ele>
        <time>2021-08-10T19:36:50Z</time>
      </trkpt>
      <trkpt lat="48.0272" lon="4.30177">
        <ele>199.61</ele>
        <time>2021-08-10T19:36:51Z</time>
      </trkpt>
      <trkpt lat="48.02718" lon="4.30171">
        <ele>199.61</ele>
        <time>2021-08-10T19:36:52Z</time>
      </trkpt>
      <trkpt lat="48.02696" lon="4.30114">
        <ele>199.61</ele>
        <time>2021-08-10T19:37:01Z</time>
      </trkpt>
      <trkpt lat="48.02683" lon="4.30083">
        <ele>199.61</ele>
        <time>2021-08-10T19:37:06Z</time>
      </trkpt>
      <trkpt lat="48.02679" lon="4.30079">
        <ele>199.61</ele>
        <time>2021-08-10T19:37:07Z</time>
      </trkpt>
      <trkpt lat="48.02675" lon="4.30075">
        <ele>199.61</ele>
        <time>2021-08-10T19:37:08Z</time>
      </trkpt>
      <trkpt lat="48.02671" lon="4.30074">
        <ele>199.61</ele>
        <time>2021-08-10T19:37:09Z</time>
      </trkpt>
      <trkpt lat="48.02667" lon="4.30076">
        <ele>199.61</ele>
        <time>2021-08-10T19:37:10Z</time>
      </trkpt>
      <trkpt lat="48.02662" lon="4.30078">
        <ele>199.61</ele>
        <time>2021-08-10T19:37:11Z</time>
      </trkpt>
      <trkpt lat="48.02649" lon="4.30086">
        <ele>199.61</ele>
        <time>2021-08-10T19:37:14Z</time>
      </trkpt>
      <trkpt lat="48.02645" lon="4.30087">
        <ele>199.61</ele>
        <time>2021-08-10T19:37:15Z</time>
      </trkpt>
      <trkpt lat="48.02641" lon="4.30088">
        <ele>199.61</ele>
        <time>2021-08-10T19:37:16Z</time>
      </trkpt>
      <trkpt lat="48.02637" lon="4.30088">
        <ele>199.61</ele>
        <time>2021-08-10T19:37:17Z</time>
      </trkpt>
      <trkpt lat="48.02633" lon="4.30086">
        <ele>199.61</ele>
        <time>2021-08-10T19:37:18Z</time>
      </trkpt>
      <trkpt lat="48.02629" lon="4.30083">
        <ele>199.61</ele>
        <time>2021-08-10T19:37:19Z</time>
      </trkpt>
      <trkpt lat="48.02626" lon="4.30079">
        <ele>199.61</ele>
        <time>2021-08-10T19:37:20Z</time>
      </trkpt>
      <trkpt lat="48.02622" lon="4.30075">
        <ele>199.61</ele>
        <time>2021-08-10T19:37:21Z</time>
      </trkpt>
      <trkpt lat="48.02605" lon="4.30058">
        <ele>198.65</ele>
        <time>2021-08-10T19:37:25Z</time>
      </trkpt>
      <trkpt lat="48.02601" lon="4.30052">
        <ele>198.65</ele>
        <time>2021-08-10T19:37:26Z</time>
      </trkpt>
      <trkpt lat="48.02598" lon="4.30048">
        <ele>198.65</ele>
        <time>2021-08-10T19:37:27Z</time>
      </trkpt>
      <trkpt lat="48.02596" lon="4.30042">
        <ele>198.65</ele>
        <time>2021-08-10T19:37:28Z</time>
      </trkpt>
      <trkpt lat="48.02587" lon="4.30026">
        <ele>198.65</ele>
        <time>2021-08-10T19:37:31Z</time>
      </trkpt>
      <trkpt lat="48.02581" lon="4.30016">
        <ele>198.65</ele>
        <time>2021-08-10T19:37:33Z</time>
      </trkpt>
      <trkpt lat="48.02577" lon="4.30012">
        <ele>198.65</ele>
        <time>2021-08-10T19:37:34Z</time>
      </trkpt>
      <trkpt lat="48.02573" lon="4.30009">
        <ele>198.65</ele>
        <time>2021-08-10T19:37:35Z</time>
      </trkpt>
      <trkpt lat="48.02569" lon="4.30007">
        <ele>198.65</ele>
        <time>2021-08-10T19:37:36Z</time>
      </trkpt>
      <trkpt lat="48.02565" lon="4.30004">
        <ele>198.65</ele>
        <time>2021-08-10T19:37:37Z</time>
      </trkpt>
      <trkpt lat="48.02553" lon="4.29995">
        <ele>198.65</ele>
        <time>2021-08-10T19:37:40Z</time>
      </trkpt>
      <trkpt lat="48.0255" lon="4.2999">
        <ele>198.65</ele>
        <time>2021-08-10T19:37:41Z</time>
      </trkpt>
      <trkpt lat="48.02547" lon="4.29986">
        <ele>198.65</ele>
        <time>2021-08-10T19:37:42Z</time>
      </trkpt>
      <trkpt lat="48.02536" lon="4.29969">
        <ele>199.61</ele>
        <time>2021-08-10T19:37:46Z</time>
      </trkpt>
      <trkpt lat="48.02526" lon="4.29939">
        <ele>200.09</ele>
        <time>2021-08-10T19:37:52Z</time>
      </trkpt>
      <trkpt lat="48.02511" lon="4.29931">
        <ele>200.57</ele>
        <time>2021-08-10T19:37:57Z</time>
      </trkpt>
      <trkpt lat="48.02496" lon="4.29927">
        <ele>202.01</ele>
        <time>2021-08-10T19:38:04Z</time>
      </trkpt>
      <trkpt lat="48.02483" lon="4.29918">
        <ele>202.98</ele>
        <time>2021-08-10T19:38:11Z</time>
      </trkpt>
      <trkpt lat="48.02464" lon="4.29921">
        <ele>203.94</ele>
        <time>2021-08-10T19:38:20Z</time>
      </trkpt>
      <trkpt lat="48.02445" lon="4.29928">
        <ele>205.38</ele>
        <time>2021-08-10T19:38:29Z</time>
      </trkpt>
      <trkpt lat="48.02417" lon="4.29937">
        <ele>206.82</ele>
        <time>2021-08-10T19:38:42Z</time>
      </trkpt>
      <trkpt lat="48.02397" lon="4.29942">
        <ele>208.26</ele>
        <time>2021-08-10T19:38:52Z</time>
      </trkpt>
      <trkpt lat="48.0238" lon="4.29945">
        <ele>208.74</ele>
        <time>2021-08-10T19:39:00Z</time>
      </trkpt>
      <trkpt lat="48.02362" lon="4.29943">
        <ele>210.19</ele>
        <time>2021-08-10T19:39:08Z</time>
      </trkpt>
      <trkpt lat="48.02348" lon="4.29935">
        <ele>211.15</ele>
        <time>2021-08-10T19:39:15Z</time>
      </trkpt>
      <trkpt lat="48.02333" lon="4.29918">
        <ele>212.59</ele>
        <time>2021-08-10T19:39:25Z</time>
      </trkpt>
      <trkpt lat="48.02319" lon="4.299">
        <ele>214.03</ele>
        <time>2021-08-10T19:39:35Z</time>
      </trkpt>
      <trkpt lat="48.02307" lon="4.29885">
        <ele>215.47</ele>
        <time>2021-08-10T19:39:44Z</time>
      </trkpt>
      <trkpt lat="48.02296" lon="4.2987">
        <ele>216.91</ele>
        <time>2021-08-10T19:39:55Z</time>
      </trkpt>
      <trkpt lat="48.02285" lon="4.2986">
        <ele>218.84</ele>
        <time>2021-08-10T19:40:05Z</time>
      </trkpt>
      <trkpt lat="48.02271" lon="4.29853">
        <ele>220.76</ele>
        <time>2021-08-10T19:40:16Z</time>
      </trkpt>
      <trkpt lat="48.0226" lon="4.29847">
        <ele>222.2</ele>
        <time>2021-08-10T19:40:25Z</time>
      </trkpt>
      <trkpt lat="48.02258" lon="4.29846">
        <ele>222.2</ele>
        <time>2021-08-10T19:40:26Z</time>
      </trkpt>
      <trkpt lat="48.02257" lon="4.29846">
        <ele>222.68</ele>
        <time>2021-08-10T19:40:27Z</time>
      </trkpt>
      <trkpt lat="48.02256" lon="4.29845">
        <ele>222.68</ele>
        <time>2021-08-10T19:40:28Z</time>
      </trkpt>
      <trkpt lat="48.02255" lon="4.29844">
        <ele>223.16</ele>
        <time>2021-08-10T19:40:29Z</time>
      </trkpt>
      <trkpt lat="48.02254" lon="4.29843">
        <ele>223.16</ele>
        <time>2021-08-10T19:40:30Z</time>
      </trkpt>
      <trkpt lat="48.02253" lon="4.29842">
        <ele>223.64</ele>
        <time>2021-08-10T19:40:31Z</time>
      </trkpt>
      <trkpt lat="48.02245" lon="4.29839">
        <ele>224.12</ele>
        <time>2021-08-10T19:40:37Z</time>
      </trkpt>
      <trkpt lat="48.02238" lon="4.29836">
        <ele>225.57</ele>
        <time>2021-08-10T19:40:43Z</time>
      </trkpt>
      <trkpt lat="48.02232" lon="4.29833">
        <ele>226.53</ele>
        <time>2021-08-10T19:40:48Z</time>
      </trkpt>
      <trkpt lat="48.02231" lon="4.29832">
        <ele>226.53</ele>
        <time>2021-08-10T19:40:49Z</time>
      </trkpt>
      <trkpt lat="48.02215" lon="4.29824">
        <ele>228.45</ele>
        <time>2021-08-10T19:41:00Z</time>
      </trkpt>
      <trkpt lat="48.02201" lon="4.29816">
        <ele>229.41</ele>
        <time>2021-08-10T19:41:09Z</time>
      </trkpt>
      <trkpt lat="48.02184" lon="4.29805">
        <ele>231.33</ele>
        <time>2021-08-10T19:41:21Z</time>
      </trkpt>
      <trkpt lat="48.02168" lon="4.29792">
        <ele>232.3</ele>
        <time>2021-08-10T19:41:32Z</time>
      </trkpt>
      <trkpt lat="48.02155" lon="4.29781">
        <ele>233.74</ele>
        <time>2021-08-10T19:41:41Z</time>
      </trkpt>
      <trkpt lat="48.02141" lon="4.29769">
        <ele>235.18</ele>
        <time>2021-08-10T19:41:51Z</time>
      </trkpt>
      <trkpt lat="48.02127" lon="4.29755">
        <ele>237.1</ele>
        <time>2021-08-10T19:42:02Z</time>
      </trkpt>
      <trkpt lat="48.02113" lon="4.29743">
        <ele>238.54</ele>
        <time>2021-08-10T19:42:12Z</time>
      </trkpt>
      <trkpt lat="48.021" lon="4.29731">
        <ele>240.47</ele>
        <time>2021-08-10T19:42:22Z</time>
      </trkpt>
      <trkpt lat="48.02087" lon="4.2972">
        <ele>241.43</ele>
        <time>2021-08-10T19:42:31Z</time>
      </trkpt>
      <trkpt lat="48.0207" lon="4.2971">
        <ele>242.87</ele>
        <time>2021-08-10T19:42:40Z</time>
      </trkpt>
      <trkpt lat="48.02056" lon="4.29702">
        <ele>243.83</ele>
        <time>2021-08-10T19:42:47Z</time>
      </trkpt>
      <trkpt lat="48.02037" lon="4.2969">
        <ele>245.27</ele>
        <time>2021-08-10T19:42:56Z</time>
      </trkpt>
      <trkpt lat="48.02019" lon="4.29676">
        <ele>246.23</ele>
        <time>2021-08-10T19:43:05Z</time>
      </trkpt>
      <trkpt lat="48.02004" lon="4.29666">
        <ele>247.68</ele>
        <time>2021-08-10T19:43:12Z</time>
      </trkpt>
      <trkpt lat="48.01989" lon="4.29654">
        <ele>249.12</ele>
        <time>2021-08-10T19:43:20Z</time>
      </trkpt>
      <trkpt lat="48.01973" lon="4.29643">
        <ele>250.56</ele>
        <time>2021-08-10T19:43:28Z</time>
      </trkpt>
      <trkpt lat="48.01958" lon="4.29633">
        <ele>252</ele>
        <time>2021-08-10T19:43:36Z</time>
      </trkpt>
      <trkpt lat="48.01939" lon="4.29625">
        <ele>253.44</ele>
        <time>2021-08-10T19:43:45Z</time>
      </trkpt>
      <trkpt lat="48.01921" lon="4.29618">
        <ele>254.89</ele>
        <time>2021-08-10T19:43:55Z</time>
      </trkpt>
      <trkpt lat="48.01905" lon="4.29611">
        <ele>255.85</ele>
        <time>2021-08-10T19:44:04Z</time>
      </trkpt>
      <trkpt lat="48.01892" lon="4.29606">
        <ele>257.77</ele>
        <time>2021-08-10T19:44:12Z</time>
      </trkpt>
      <trkpt lat="48.01877" lon="4.29598">
        <ele>260.17</ele>
        <time>2021-08-10T19:44:22Z</time>
      </trkpt>
      <trkpt lat="48.01862" lon="4.29586">
        <ele>262.1</ele>
        <time>2021-08-10T19:44:34Z</time>
      </trkpt>
      <trkpt lat="48.01851" lon="4.29578">
        <ele>264.02</ele>
        <time>2021-08-10T19:44:42Z</time>
      </trkpt>
      <trkpt lat="48.01839" lon="4.29569">
        <ele>265.46</ele>
        <time>2021-08-10T19:44:51Z</time>
      </trkpt>
      <trkpt lat="48.01836" lon="4.29567">
        <ele>266.42</ele>
        <time>2021-08-10T19:44:53Z</time>
      </trkpt>
      <trkpt lat="48.01835" lon="4.29565">
        <ele>266.42</ele>
        <time>2021-08-10T19:44:54Z</time>
      </trkpt>
      <trkpt lat="48.01834" lon="4.29565">
        <ele>266.42</ele>
        <time>2021-08-10T19:44:55Z</time>
      </trkpt>
      <trkpt lat="48.01818" lon="4.29554">
        <ele>268.83</ele>
        <time>2021-08-10T19:45:07Z</time>
      </trkpt>
      <trkpt lat="48.01801" lon="4.29544">
        <ele>271.23</ele>
        <time>2021-08-10T19:45:19Z</time>
      </trkpt>
      <trkpt lat="48.01784" lon="4.29534">
        <ele>273.15</ele>
        <time>2021-08-10T19:45:31Z</time>
      </trkpt>
      <trkpt lat="48.01769" lon="4.29527">
        <ele>274.59</ele>
        <time>2021-08-10T19:45:41Z</time>
      </trkpt>
      <trkpt lat="48.01759" lon="4.29523">
        <ele>276.04</ele>
        <time>2021-08-10T19:45:48Z</time>
      </trkpt>
      <trkpt lat="48.01738" lon="4.29515">
        <ele>277.48</ele>
        <time>2021-08-10T19:46:01Z</time>
      </trkpt>
      <trkpt lat="48.01721" lon="4.2951">
        <ele>278.92</ele>
        <time>2021-08-10T19:46:11Z</time>
      </trkpt>
      <trkpt lat="48.01701" lon="4.29507">
        <ele>280.84</ele>
        <time>2021-08-10T19:46:22Z</time>
      </trkpt>
      <trkpt lat="48.01682" lon="4.29504">
        <ele>281.8</ele>
        <time>2021-08-10T19:46:32Z</time>
      </trkpt>
      <trkpt lat="48.01665" lon="4.295">
        <ele>283.25</ele>
        <time>2021-08-10T19:46:40Z</time>
      </trkpt>
      <trkpt lat="48.01646" lon="4.29494">
        <ele>283.73</ele>
        <time>2021-08-10T19:46:49Z</time>
      </trkpt>
      <trkpt lat="48.01628" lon="4.29486">
        <ele>285.17</ele>
        <time>2021-08-10T19:46:58Z</time>
      </trkpt>
      <trkpt lat="48.01603" lon="4.29472">
        <ele>286.61</ele>
        <time>2021-08-10T19:47:10Z</time>
      </trkpt>
      <trkpt lat="48.01576" lon="4.29453">
        <ele>289.01</ele>
        <time>2021-08-10T19:47:21Z</time>
      </trkpt>
      <trkpt lat="48.01553" lon="4.2944">
        <ele>289.97</ele>
        <time>2021-08-10T19:47:29Z</time>
      </trkpt>
      <trkpt lat="48.01521" lon="4.29424">
        <ele>290.94</ele>
        <time>2021-08-10T19:47:40Z</time>
      </trkpt>
      <trkpt lat="48.01493" lon="4.29415">
        <ele>291.9</ele>
        <time>2021-08-10T19:47:49Z</time>
      </trkpt>
      <trkpt lat="48.01462" lon="4.29406">
        <ele>292.86</ele>
        <time>2021-08-10T19:47:59Z</time>
      </trkpt>
      <trkpt lat="48.01426" lon="4.29394">
        <ele>294.78</ele>
        <time>2021-08-10T19:48:11Z</time>
      </trkpt>
      <trkpt lat="48.01393" lon="4.29378">
        <ele>295.74</ele>
        <time>2021-08-10T19:48:22Z</time>
      </trkpt>
      <trkpt lat="48.01358" lon="4.29366">
        <ele>297.67</ele>
        <time>2021-08-10T19:48:34Z</time>
      </trkpt>
      <trkpt lat="48.01323" lon="4.29376">
        <ele>298.63</ele>
        <time>2021-08-10T19:48:45Z</time>
      </trkpt>
      <trkpt lat="48.01299" lon="4.29398">
        <ele>300.07</ele>
        <time>2021-08-10T19:48:54Z</time>
      </trkpt>
      <trkpt lat="48.0127" lon="4.29421">
        <ele>301.99</ele>
        <time>2021-08-10T19:49:05Z</time>
      </trkpt>
      <trkpt lat="48.01244" lon="4.29428">
        <ele>302.95</ele>
        <time>2021-08-10T19:49:13Z</time>
      </trkpt>
      <trkpt lat="48.01222" lon="4.29443">
        <ele>303.91</ele>
        <time>2021-08-10T19:49:20Z</time>
      </trkpt>
      <trkpt lat="48.012" lon="4.29474">
        <ele>303.91</ele>
        <time>2021-08-10T19:49:28Z</time>
      </trkpt>
      <trkpt lat="48.01186" lon="4.29482">
        <ele>304.39</ele>
        <time>2021-08-10T19:49:32Z</time>
      </trkpt>
      <trkpt lat="48.01181" lon="4.29482">
        <ele>304.39</ele>
        <time>2021-08-10T19:49:33Z</time>
      </trkpt>
      <trkpt lat="48.01154" lon="4.29478">
        <ele>304.88</ele>
        <time>2021-08-10T19:49:40Z</time>
      </trkpt>
      <trkpt lat="48.01129" lon="4.29474">
        <ele>304.88</ele>
        <time>2021-08-10T19:49:47Z</time>
      </trkpt>
      <trkpt lat="48.01116" lon="4.29473">
        <ele>304.88</ele>
        <time>2021-08-10T19:49:50Z</time>
      </trkpt>
      <trkpt lat="48.01071" lon="4.29472">
        <ele>302.95</ele>
        <time>2021-08-10T19:49:59Z</time>
      </trkpt>
      <trkpt lat="48.01019" lon="4.29475">
        <ele>300.07</ele>
        <time>2021-08-10T19:50:07Z</time>
      </trkpt>
      <trkpt lat="48.0096" lon="4.29486">
        <ele>297.18</ele>
        <time>2021-08-10T19:50:15Z</time>
      </trkpt>
      <trkpt lat="48.00897" lon="4.29516">
        <ele>293.82</ele>
        <time>2021-08-10T19:50:23Z</time>
      </trkpt>
      <trkpt lat="48.00822" lon="4.29564">
        <ele>291.9</ele>
        <time>2021-08-10T19:50:33Z</time>
      </trkpt>
      <trkpt lat="48.00769" lon="4.29603">
        <ele>290.94</ele>
        <time>2021-08-10T19:50:41Z</time>
      </trkpt>
      <trkpt lat="48.00711" lon="4.29631">
        <ele>290.94</ele>
        <time>2021-08-10T19:50:50Z</time>
      </trkpt>
      <trkpt lat="48.00689" lon="4.29641">
        <ele>292.38</ele>
        <time>2021-08-10T19:50:54Z</time>
      </trkpt>
      <trkpt lat="48.00646" lon="4.29661">
        <ele>293.34</ele>
        <time>2021-08-10T19:51:03Z</time>
      </trkpt>
      <trkpt lat="48.00616" lon="4.29675">
        <ele>294.3</ele>
        <time>2021-08-10T19:51:11Z</time>
      </trkpt>
      <trkpt lat="48.00579" lon="4.29692">
        <ele>295.26</ele>
        <time>2021-08-10T19:51:21Z</time>
      </trkpt>
      <trkpt lat="48.00541" lon="4.2971">
        <ele>295.74</ele>
        <time>2021-08-10T19:51:31Z</time>
      </trkpt>
      <trkpt lat="48.0051" lon="4.29727">
        <ele>296.22</ele>
        <time>2021-08-10T19:51:39Z</time>
      </trkpt>
      <trkpt lat="48.00506" lon="4.2973">
        <ele>296.22</ele>
        <time>2021-08-10T19:51:40Z</time>
      </trkpt>
      <trkpt lat="48.00465" lon="4.29753">
        <ele>296.22</ele>
        <time>2021-08-10T19:51:50Z</time>
      </trkpt>
      <trkpt lat="48.00428" lon="4.29774">
        <ele>294.3</ele>
        <time>2021-08-10T19:51:59Z</time>
      </trkpt>
      <trkpt lat="48.0039" lon="4.29795">
        <ele>293.82</ele>
        <time>2021-08-10T19:52:07Z</time>
      </trkpt>
      <trkpt lat="48.00344" lon="4.29818">
        <ele>291.9</ele>
        <time>2021-08-10T19:52:16Z</time>
      </trkpt>
      <trkpt lat="48.0029" lon="4.2984">
        <ele>289.97</ele>
        <time>2021-08-10T19:52:25Z</time>
      </trkpt>
      <trkpt lat="48.00228" lon="4.29847">
        <ele>287.09</ele>
        <time>2021-08-10T19:52:34Z</time>
      </trkpt>
      <trkpt lat="48.00174" lon="4.29866">
        <ele>285.17</ele>
        <time>2021-08-10T19:52:41Z</time>
      </trkpt>
      <trkpt lat="48.00115" lon="4.29899">
        <ele>282.77</ele>
        <time>2021-08-10T19:52:49Z</time>
      </trkpt>
      <trkpt lat="48.00043" lon="4.29922">
        <ele>280.84</ele>
        <time>2021-08-10T19:52:58Z</time>
      </trkpt>
      <trkpt lat="47.99961" lon="4.29942">
        <ele>277.48</ele>
        <time>2021-08-10T19:53:08Z</time>
      </trkpt>
      <trkpt lat="47.99918" lon="4.29957">
        <ele>274.59</ele>
        <time>2021-08-10T19:53:13Z</time>
      </trkpt>
      <trkpt lat="47.999" lon="4.29964">
        <ele>273.63</ele>
        <time>2021-08-10T19:53:15Z</time>
      </trkpt>
      <trkpt lat="47.99829" lon="4.29991">
        <ele>270.27</ele>
        <time>2021-08-10T19:53:23Z</time>
      </trkpt>
      <trkpt lat="47.99778" lon="4.30018">
        <ele>268.35</ele>
        <time>2021-08-10T19:53:29Z</time>
      </trkpt>
      <trkpt lat="47.99732" lon="4.30031">
        <ele>265.46</ele>
        <time>2021-08-10T19:53:35Z</time>
      </trkpt>
      <trkpt lat="47.9971" lon="4.30034">
        <ele>264.5</ele>
        <time>2021-08-10T19:53:38Z</time>
      </trkpt>
      <trkpt lat="47.99666" lon="4.30034">
        <ele>261.14</ele>
        <time>2021-08-10T19:53:44Z</time>
      </trkpt>
      <trkpt lat="47.99645" lon="4.3003">
        <ele>258.73</ele>
        <time>2021-08-10T19:53:47Z</time>
      </trkpt>
      <trkpt lat="47.99638" lon="4.30027">
        <ele>257.77</ele>
        <time>2021-08-10T19:53:48Z</time>
      </trkpt>
      <trkpt lat="47.99612" lon="4.30013">
        <ele>254.89</ele>
        <time>2021-08-10T19:53:52Z</time>
      </trkpt>
      <trkpt lat="47.99607" lon="4.30009">
        <ele>254.41</ele>
        <time>2021-08-10T19:53:53Z</time>
      </trkpt>
      <trkpt lat="47.99602" lon="4.30003">
        <ele>253.93</ele>
        <time>2021-08-10T19:53:54Z</time>
      </trkpt>
      <trkpt lat="47.99598" lon="4.29997">
        <ele>253.93</ele>
        <time>2021-08-10T19:53:55Z</time>
      </trkpt>
      <trkpt lat="47.99594" lon="4.29991">
        <ele>252.96</ele>
        <time>2021-08-10T19:53:56Z</time>
      </trkpt>
      <trkpt lat="47.99591" lon="4.29984">
        <ele>252.48</ele>
        <time>2021-08-10T19:53:57Z</time>
      </trkpt>
      <trkpt lat="47.99576" lon="4.29958">
        <ele>249.12</ele>
        <time>2021-08-10T19:54:01Z</time>
      </trkpt>
      <trkpt lat="47.99572" lon="4.29951">
        <ele>248.16</ele>
        <time>2021-08-10T19:54:02Z</time>
      </trkpt>
      <trkpt lat="47.99567" lon="4.29946">
        <ele>247.2</ele>
        <time>2021-08-10T19:54:03Z</time>
      </trkpt>
      <trkpt lat="47.99561" lon="4.29942">
        <ele>246.23</ele>
        <time>2021-08-10T19:54:04Z</time>
      </trkpt>
      <trkpt lat="47.99555" lon="4.29938">
        <ele>244.79</ele>
        <time>2021-08-10T19:54:05Z</time>
      </trkpt>
      <trkpt lat="47.9955" lon="4.29936">
        <ele>243.83</ele>
        <time>2021-08-10T19:54:06Z</time>
      </trkpt>
      <trkpt lat="47.99544" lon="4.29935">
        <ele>242.87</ele>
        <time>2021-08-10T19:54:07Z</time>
      </trkpt>
      <trkpt lat="47.99539" lon="4.29934">
        <ele>242.39</ele>
        <time>2021-08-10T19:54:08Z</time>
      </trkpt>
      <trkpt lat="47.99534" lon="4.29933">
        <ele>241.43</ele>
        <time>2021-08-10T19:54:09Z</time>
      </trkpt>
      <trkpt lat="47.99528" lon="4.29933">
        <ele>240.47</ele>
        <time>2021-08-10T19:54:10Z</time>
      </trkpt>
      <trkpt lat="47.99522" lon="4.29934">
        <ele>239.99</ele>
        <time>2021-08-10T19:54:11Z</time>
      </trkpt>
      <trkpt lat="47.99517" lon="4.29936">
        <ele>239.02</ele>
        <time>2021-08-10T19:54:12Z</time>
      </trkpt>
      <trkpt lat="47.99512" lon="4.29938">
        <ele>238.54</ele>
        <time>2021-08-10T19:54:13Z</time>
      </trkpt>
      <trkpt lat="47.9949" lon="4.29948">
        <ele>235.66</ele>
        <time>2021-08-10T19:54:17Z</time>
      </trkpt>
      <trkpt lat="47.99484" lon="4.2995">
        <ele>234.7</ele>
        <time>2021-08-10T19:54:18Z</time>
      </trkpt>
      <trkpt lat="47.99478" lon="4.2995">
        <ele>234.22</ele>
        <time>2021-08-10T19:54:19Z</time>
      </trkpt>
      <trkpt lat="47.99472" lon="4.29949">
        <ele>233.74</ele>
        <time>2021-08-10T19:54:20Z</time>
      </trkpt>
      <trkpt lat="47.99467" lon="4.29948">
        <ele>232.78</ele>
        <time>2021-08-10T19:54:21Z</time>
      </trkpt>
      <trkpt lat="47.99443" lon="4.29934">
        <ele>230.37</ele>
        <time>2021-08-10T19:54:27Z</time>
      </trkpt>
      <trkpt lat="47.99432" lon="4.29915">
        <ele>228.93</ele>
        <time>2021-08-10T19:54:33Z</time>
      </trkpt>
      <trkpt lat="47.99431" lon="4.29914">
        <ele>228.93</ele>
        <time>2021-08-10T19:54:34Z</time>
      </trkpt>
      <trkpt lat="47.99428" lon="4.29913">
        <ele>228.45</ele>
        <time>2021-08-10T19:54:35Z</time>
      </trkpt>
      <trkpt lat="47.99426" lon="4.29912">
        <ele>228.93</ele>
        <time>2021-08-10T19:54:36Z</time>
      </trkpt>
      <trkpt lat="47.99424" lon="4.29912">
        <ele>228.93</ele>
        <time>2021-08-10T19:54:37Z</time>
      </trkpt>
      <trkpt lat="47.99422" lon="4.29911">
        <ele>228.93</ele>
        <time>2021-08-10T19:54:38Z</time>
      </trkpt>
      <trkpt lat="47.99419" lon="4.29911">
        <ele>228.93</ele>
        <time>2021-08-10T19:54:39Z</time>
      </trkpt>
      <trkpt lat="47.99394" lon="4.29911">
        <ele>227.01</ele>
        <time>2021-08-10T19:54:46Z</time>
      </trkpt>
      <trkpt lat="47.99377" lon="4.29905">
        <ele>225.57</ele>
        <time>2021-08-10T19:54:51Z</time>
      </trkpt>
      <trkpt lat="47.9935" lon="4.29877">
        <ele>222.68</ele>
        <time>2021-08-10T19:54:57Z</time>
      </trkpt>
      <trkpt lat="47.99345" lon="4.29871">
        <ele>222.2</ele>
        <time>2021-08-10T19:54:58Z</time>
      </trkpt>
      <trkpt lat="47.99341" lon="4.29866">
        <ele>222.2</ele>
        <time>2021-08-10T19:54:59Z</time>
      </trkpt>
      <trkpt lat="47.99335" lon="4.2986">
        <ele>221.24</ele>
        <time>2021-08-10T19:55:00Z</time>
      </trkpt>
      <trkpt lat="47.99315" lon="4.29843">
        <ele>220.76</ele>
        <time>2021-08-10T19:55:04Z</time>
      </trkpt>
      <trkpt lat="47.9928" lon="4.2981">
        <ele>220.76</ele>
        <time>2021-08-10T19:55:12Z</time>
      </trkpt>
      <trkpt lat="47.9925" lon="4.29788">
        <ele>222.2</ele>
        <time>2021-08-10T19:55:20Z</time>
      </trkpt>
      <trkpt lat="47.9924" lon="4.2978">
        <ele>223.64</ele>
        <time>2021-08-10T19:55:26Z</time>
      </trkpt>
      <trkpt lat="47.99239" lon="4.29779">
        <ele>223.64</ele>
        <time>2021-08-10T19:55:27Z</time>
      </trkpt>
      <trkpt lat="47.9923" lon="4.29773">
        <ele>225.09</ele>
        <time>2021-08-10T19:55:35Z</time>
      </trkpt>
      <trkpt lat="47.99229" lon="4.29773">
        <ele>225.57</ele>
        <time>2021-08-10T19:55:37Z</time>
      </trkpt>
      <trkpt lat="47.99226" lon="4.29773">
        <ele>225.57</ele>
        <time>2021-08-10T19:55:40Z</time>
      </trkpt>
      <trkpt lat="47.99224" lon="4.29774">
        <ele>226.05</ele>
        <time>2021-08-10T19:55:42Z</time>
      </trkpt>
      <trkpt lat="47.99222" lon="4.29775">
        <ele>226.05</ele>
        <time>2021-08-10T19:55:43Z</time>
      </trkpt>
      <trkpt lat="47.99207" lon="4.29772">
        <ele>226.53</ele>
        <time>2021-08-10T19:55:52Z</time>
      </trkpt>
      <trkpt lat="47.99189" lon="4.29764">
        <ele>227.49</ele>
        <time>2021-08-10T19:56:02Z</time>
      </trkpt>
      <trkpt lat="47.99172" lon="4.29755">
        <ele>228.45</ele>
        <time>2021-08-10T19:56:11Z</time>
      </trkpt>
      <trkpt lat="47.99159" lon="4.29749">
        <ele>229.41</ele>
        <time>2021-08-10T19:56:18Z</time>
      </trkpt>
      <trkpt lat="47.99141" lon="4.2974">
        <ele>229.41</ele>
        <time>2021-08-10T19:56:28Z</time>
      </trkpt>
      <trkpt lat="47.99124" lon="4.29729">
        <ele>230.85</ele>
        <time>2021-08-10T19:56:38Z</time>
      </trkpt>
      <trkpt lat="47.9911" lon="4.29723">
        <ele>231.33</ele>
        <time>2021-08-10T19:56:46Z</time>
      </trkpt>
      <trkpt lat="47.99092" lon="4.29715">
        <ele>232.3</ele>
        <time>2021-08-10T19:56:55Z</time>
      </trkpt>
      <trkpt lat="47.99074" lon="4.29702">
        <ele>232.78</ele>
        <time>2021-08-10T19:57:05Z</time>
      </trkpt>
      <trkpt lat="47.99072" lon="4.29702">
        <ele>232.78</ele>
        <time>2021-08-10T19:57:06Z</time>
      </trkpt>
      <trkpt lat="47.99071" lon="4.29701">
        <ele>233.26</ele>
        <time>2021-08-10T19:57:07Z</time>
      </trkpt>
      <trkpt lat="47.9907" lon="4.297">
        <ele>233.26</ele>
        <time>2021-08-10T19:57:13Z</time>
      </trkpt>
      <trkpt lat="47.99068" lon="4.29698">
        <ele>233.74</ele>
        <time>2021-08-10T19:57:17Z</time>
      </trkpt>
      <trkpt lat="47.99067" lon="4.29696">
        <ele>233.74</ele>
        <time>2021-08-10T19:57:18Z</time>
      </trkpt>
      <trkpt lat="47.99066" lon="4.29694">
        <ele>233.74</ele>
        <time>2021-08-10T19:57:19Z</time>
      </trkpt>
      <trkpt lat="47.99065" lon="4.29693">
        <ele>233.74</ele>
        <time>2021-08-10T19:57:20Z</time>
      </trkpt>
      <trkpt lat="47.99063" lon="4.29691">
        <ele>233.74</ele>
        <time>2021-08-10T19:57:21Z</time>
      </trkpt>
      <trkpt lat="47.99062" lon="4.29691">
        <ele>233.74</ele>
        <time>2021-08-10T19:57:22Z</time>
      </trkpt>
      <trkpt lat="47.9906" lon="4.2969">
        <ele>233.74</ele>
        <time>2021-08-10T19:57:23Z</time>
      </trkpt>
      <trkpt lat="47.99057" lon="4.29687">
        <ele>234.22</ele>
        <time>2021-08-10T19:57:28Z</time>
      </trkpt>
      <trkpt lat="47.99056" lon="4.29688">
        <ele>234.22</ele>
        <time>2021-08-10T19:57:34Z</time>
      </trkpt>
      <trkpt lat="47.99055" lon="4.29689">
        <ele>234.22</ele>
        <time>2021-08-10T19:57:36Z</time>
      </trkpt>
      <trkpt lat="47.99054" lon="4.29692">
        <ele>234.22</ele>
        <time>2021-08-10T19:57:38Z</time>
      </trkpt>
      <trkpt lat="47.99055" lon="4.29693">
        <ele>234.22</ele>
        <time>2021-08-10T19:57:39Z</time>
      </trkpt>
      <trkpt lat="47.99057" lon="4.29694">
        <ele>234.22</ele>
        <time>2021-08-10T19:57:40Z</time>
      </trkpt>
      <trkpt lat="47.99059" lon="4.29693">
        <ele>234.22</ele>
        <time>2021-08-10T19:57:41Z</time>
      </trkpt>
      <trkpt lat="47.99061" lon="4.29691">
        <ele>234.22</ele>
        <time>2021-08-10T19:57:42Z</time>
      </trkpt>
      <trkpt lat="47.99062" lon="4.29688">
        <ele>234.22</ele>
        <time>2021-08-10T19:57:43Z</time>
      </trkpt>
      <trkpt lat="47.99062" lon="4.29684">
        <ele>234.22</ele>
        <time>2021-08-10T19:57:44Z</time>
      </trkpt>
      <trkpt lat="47.99061" lon="4.29681">
        <ele>234.22</ele>
        <time>2021-08-10T19:57:45Z</time>
      </trkpt>
      <trkpt lat="47.9906" lon="4.29678">
        <ele>234.22</ele>
        <time>2021-08-10T19:57:46Z</time>
      </trkpt>
      <trkpt lat="47.99059" lon="4.29675">
        <ele>234.22</ele>
        <time>2021-08-10T19:57:47Z</time>
      </trkpt>
      <trkpt lat="47.99058" lon="4.29673">
        <ele>234.22</ele>
        <time>2021-08-10T19:57:48Z</time>
      </trkpt>
      <trkpt lat="47.99056" lon="4.2967">
        <ele>234.22</ele>
        <time>2021-08-10T19:57:49Z</time>
      </trkpt>
      <trkpt lat="47.99047" lon="4.2964">
        <ele>235.18</ele>
        <time>2021-08-10T19:57:58Z</time>
      </trkpt>
      <trkpt lat="47.99038" lon="4.29607">
        <ele>236.62</ele>
        <time>2021-08-10T19:58:07Z</time>
      </trkpt>
      <trkpt lat="47.99026" lon="4.29558">
        <ele>238.06</ele>
        <time>2021-08-10T19:58:20Z</time>
      </trkpt>
      <trkpt lat="47.99017" lon="4.29524">
        <ele>239.51</ele>
        <time>2021-08-10T19:58:29Z</time>
      </trkpt>
      <trkpt lat="47.99005" lon="4.29482">
        <ele>240.95</ele>
        <time>2021-08-10T19:58:41Z</time>
      </trkpt>
      <trkpt lat="47.98996" lon="4.29451">
        <ele>241.91</ele>
        <time>2021-08-10T19:58:50Z</time>
      </trkpt>
      <trkpt lat="47.98988" lon="4.29422">
        <ele>243.83</ele>
        <time>2021-08-10T19:59:00Z</time>
      </trkpt>
      <trkpt lat="47.98978" lon="4.29389">
        <ele>245.75</ele>
        <time>2021-08-10T19:59:13Z</time>
      </trkpt>
      <trkpt lat="47.98969" lon="4.29358">
        <ele>247.2</ele>
        <time>2021-08-10T19:59:24Z</time>
      </trkpt>
      <trkpt lat="47.98959" lon="4.29318">
        <ele>249.12</ele>
        <time>2021-08-10T19:59:37Z</time>
      </trkpt>
      <trkpt lat="47.98949" lon="4.29284">
        <ele>251.04</ele>
        <time>2021-08-10T19:59:49Z</time>
      </trkpt>
      <trkpt lat="47.98938" lon="4.29253">
        <ele>252.48</ele>
        <time>2021-08-10T20:00:01Z</time>
      </trkpt>
      <trkpt lat="47.98928" lon="4.29224">
        <ele>253.44</ele>
        <time>2021-08-10T20:00:11Z</time>
      </trkpt>
      <trkpt lat="47.98918" lon="4.29194">
        <ele>254.89</ele>
        <time>2021-08-10T20:00:20Z</time>
      </trkpt>
      <trkpt lat="47.98909" lon="4.29167">
        <ele>255.85</ele>
        <time>2021-08-10T20:00:28Z</time>
      </trkpt>
      <trkpt lat="47.98901" lon="4.29145">
        <ele>257.77</ele>
        <time>2021-08-10T20:00:35Z</time>
      </trkpt>
      <trkpt lat="47.98898" lon="4.29137">
        <ele>257.77</ele>
        <time>2021-08-10T20:00:38Z</time>
      </trkpt>
      <trkpt lat="47.98897" lon="4.29134">
        <ele>257.77</ele>
        <time>2021-08-10T20:00:39Z</time>
      </trkpt>
      <trkpt lat="47.98896" lon="4.29131">
        <ele>258.25</ele>
        <time>2021-08-10T20:00:40Z</time>
      </trkpt>
      <trkpt lat="47.98881" lon="4.29098">
        <ele>259.69</ele>
        <time>2021-08-10T20:00:51Z</time>
      </trkpt>
      <trkpt lat="47.98865" lon="4.2907">
        <ele>260.65</ele>
        <time>2021-08-10T20:01:01Z</time>
      </trkpt>
      <trkpt lat="47.98844" lon="4.29034">
        <ele>263.06</ele>
        <time>2021-08-10T20:01:14Z</time>
      </trkpt>
      <trkpt lat="47.98821" lon="4.29001">
        <ele>264.98</ele>
        <time>2021-08-10T20:01:27Z</time>
      </trkpt>
      <trkpt lat="47.98804" lon="4.28979">
        <ele>265.94</ele>
        <time>2021-08-10T20:01:36Z</time>
      </trkpt>
      <trkpt lat="47.98781" lon="4.28961">
        <ele>266.9</ele>
        <time>2021-08-10T20:01:45Z</time>
      </trkpt>
      <trkpt lat="47.98752" lon="4.28943">
        <ele>267.86</ele>
        <time>2021-08-10T20:01:55Z</time>
      </trkpt>
      <trkpt lat="47.98726" lon="4.28927">
        <ele>268.35</ele>
        <time>2021-08-10T20:02:04Z</time>
      </trkpt>
      <trkpt lat="47.98695" lon="4.28904">
        <ele>269.79</ele>
        <time>2021-08-10T20:02:15Z</time>
      </trkpt>
      <trkpt lat="47.98659" lon="4.28878">
        <ele>270.27</ele>
        <time>2021-08-10T20:02:27Z</time>
      </trkpt>
      <trkpt lat="47.98624" lon="4.2885">
        <ele>271.71</ele>
        <time>2021-08-10T20:02:38Z</time>
      </trkpt>
      <trkpt lat="47.98599" lon="4.28828">
        <ele>272.19</ele>
        <time>2021-08-10T20:02:46Z</time>
      </trkpt>
      <trkpt lat="47.98564" lon="4.28802">
        <ele>273.15</ele>
        <time>2021-08-10T20:02:57Z</time>
      </trkpt>
      <trkpt lat="47.98528" lon="4.28788">
        <ele>274.11</ele>
        <time>2021-08-10T20:03:07Z</time>
      </trkpt>
      <trkpt lat="47.985" lon="4.28781">
        <ele>274.11</ele>
        <time>2021-08-10T20:03:14Z</time>
      </trkpt>
      <trkpt lat="47.9847" lon="4.28771">
        <ele>274.11</ele>
        <time>2021-08-10T20:03:22Z</time>
      </trkpt>
      <trkpt lat="47.98441" lon="4.28762">
        <ele>274.59</ele>
        <time>2021-08-10T20:03:30Z</time>
      </trkpt>
      <trkpt lat="47.98417" lon="4.28756">
        <ele>276.52</ele>
        <time>2021-08-10T20:03:39Z</time>
      </trkpt>
      <trkpt lat="47.98401" lon="4.28749">
        <ele>278.44</ele>
        <time>2021-08-10T20:03:48Z</time>
      </trkpt>
      <trkpt lat="47.98387" lon="4.28744">
        <ele>279.88</ele>
        <time>2021-08-10T20:03:56Z</time>
      </trkpt>
      <trkpt lat="47.98373" lon="4.2874">
        <ele>281.8</ele>
        <time>2021-08-10T20:04:04Z</time>
      </trkpt>
      <trkpt lat="47.98365" lon="4.28737">
        <ele>282.77</ele>
        <time>2021-08-10T20:04:09Z</time>
      </trkpt>
      <trkpt lat="47.98363" lon="4.28735">
        <ele>282.77</ele>
        <time>2021-08-10T20:04:10Z</time>
      </trkpt>
      <trkpt lat="47.98351" lon="4.28728">
        <ele>284.69</ele>
        <time>2021-08-10T20:04:19Z</time>
      </trkpt>
      <trkpt lat="47.98346" lon="4.28727">
        <ele>285.17</ele>
        <time>2021-08-10T20:04:23Z</time>
      </trkpt>
      <trkpt lat="47.98345" lon="4.28727">
        <ele>285.65</ele>
        <time>2021-08-10T20:04:24Z</time>
      </trkpt>
      <trkpt lat="47.98342" lon="4.28726">
        <ele>285.65</ele>
        <time>2021-08-10T20:04:26Z</time>
      </trkpt>
      <trkpt lat="47.98341" lon="4.28725">
        <ele>286.13</ele>
        <time>2021-08-10T20:04:27Z</time>
      </trkpt>
      <trkpt lat="47.98339" lon="4.28725">
        <ele>286.13</ele>
        <time>2021-08-10T20:04:28Z</time>
      </trkpt>
      <trkpt lat="47.98338" lon="4.28724">
        <ele>286.13</ele>
        <time>2021-08-10T20:04:29Z</time>
      </trkpt>
      <trkpt lat="47.98337" lon="4.28723">
        <ele>286.61</ele>
        <time>2021-08-10T20:04:30Z</time>
      </trkpt>
      <trkpt lat="47.98326" lon="4.28717">
        <ele>287.09</ele>
        <time>2021-08-10T20:04:38Z</time>
      </trkpt>
      <trkpt lat="47.98314" lon="4.28709">
        <ele>288.53</ele>
        <time>2021-08-10T20:04:46Z</time>
      </trkpt>
      <trkpt lat="47.98294" lon="4.28696">
        <ele>289.97</ele>
        <time>2021-08-10T20:04:57Z</time>
      </trkpt>
      <trkpt lat="47.98276" lon="4.28682">
        <ele>291.42</ele>
        <time>2021-08-10T20:05:07Z</time>
      </trkpt>
      <trkpt lat="47.98255" lon="4.28664">
        <ele>292.86</ele>
        <time>2021-08-10T20:05:18Z</time>
      </trkpt>
      <trkpt lat="47.98234" lon="4.28643">
        <ele>294.3</ele>
        <time>2021-08-10T20:05:29Z</time>
      </trkpt>
      <trkpt lat="47.9822" lon="4.28625">
        <ele>295.26</ele>
        <time>2021-08-10T20:05:37Z</time>
      </trkpt>
      <trkpt lat="47.98207" lon="4.28603">
        <ele>296.22</ele>
        <time>2021-08-10T20:05:46Z</time>
      </trkpt>
      <trkpt lat="47.98193" lon="4.28574">
        <ele>297.67</ele>
        <time>2021-08-10T20:05:56Z</time>
      </trkpt>
      <trkpt lat="47.98177" lon="4.2854">
        <ele>298.63</ele>
        <time>2021-08-10T20:06:07Z</time>
      </trkpt>
      <trkpt lat="47.98164" lon="4.28507">
        <ele>299.59</ele>
        <time>2021-08-10T20:06:17Z</time>
      </trkpt>
      <trkpt lat="47.98148" lon="4.28463">
        <ele>300.55</ele>
        <time>2021-08-10T20:06:28Z</time>
      </trkpt>
      <trkpt lat="47.98133" lon="4.28426">
        <ele>301.51</ele>
        <time>2021-08-10T20:06:37Z</time>
      </trkpt>
      <trkpt lat="47.98114" lon="4.28378">
        <ele>302.47</ele>
        <time>2021-08-10T20:06:49Z</time>
      </trkpt>
      <trkpt lat="47.98097" lon="4.2834">
        <ele>303.43</ele>
        <time>2021-08-10T20:06:59Z</time>
      </trkpt>
      <trkpt lat="47.98081" lon="4.28307">
        <ele>304.39</ele>
        <time>2021-08-10T20:07:08Z</time>
      </trkpt>
      <trkpt lat="47.98065" lon="4.28276">
        <ele>305.36</ele>
        <time>2021-08-10T20:07:17Z</time>
      </trkpt>
      <trkpt lat="47.98046" lon="4.28251">
        <ele>306.32</ele>
        <time>2021-08-10T20:07:26Z</time>
      </trkpt>
      <trkpt lat="47.98027" lon="4.28229">
        <ele>308.24</ele>
        <time>2021-08-10T20:07:35Z</time>
      </trkpt>
      <trkpt lat="47.98004" lon="4.28207">
        <ele>308.72</ele>
        <time>2021-08-10T20:07:46Z</time>
      </trkpt>
      <trkpt lat="47.9798" lon="4.28185">
        <ele>310.16</ele>
        <time>2021-08-10T20:07:57Z</time>
      </trkpt>
      <trkpt lat="47.97958" lon="4.28168">
        <ele>311.12</ele>
        <time>2021-08-10T20:08:06Z</time>
      </trkpt>
      <trkpt lat="47.97932" lon="4.28138">
        <ele>311.6</ele>
        <time>2021-08-10T20:08:17Z</time>
      </trkpt>
      <trkpt lat="47.97916" lon="4.28101">
        <ele>312.57</ele>
        <time>2021-08-10T20:08:26Z</time>
      </trkpt>
      <trkpt lat="47.97901" lon="4.28054">
        <ele>312.57</ele>
        <time>2021-08-10T20:08:35Z</time>
      </trkpt>
      <trkpt lat="47.97886" lon="4.28015">
        <ele>313.53</ele>
        <time>2021-08-10T20:08:42Z</time>
      </trkpt>
      <trkpt lat="47.97869" lon="4.27979">
        <ele>313.05</ele>
        <time>2021-08-10T20:08:50Z</time>
      </trkpt>
      <trkpt lat="47.97849" lon="4.27938">
        <ele>313.05</ele>
        <time>2021-08-10T20:09:00Z</time>
      </trkpt>
      <trkpt lat="47.9784" lon="4.27919">
        <ele>312.09</ele>
        <time>2021-08-10T20:09:04Z</time>
      </trkpt>
      <trkpt lat="47.97816" lon="4.27871">
        <ele>310.16</ele>
        <time>2021-08-10T20:09:12Z</time>
      </trkpt>
      <trkpt lat="47.97799" lon="4.27836">
        <ele>308.24</ele>
        <time>2021-08-10T20:09:17Z</time>
      </trkpt>
      <trkpt lat="47.97769" lon="4.27779">
        <ele>306.32</ele>
        <time>2021-08-10T20:09:25Z</time>
      </trkpt>
      <trkpt lat="47.97744" lon="4.27739">
        <ele>304.88</ele>
        <time>2021-08-10T20:09:32Z</time>
      </trkpt>
      <trkpt lat="47.97736" lon="4.27725">
        <ele>303.91</ele>
        <time>2021-08-10T20:09:34Z</time>
      </trkpt>
      <trkpt lat="47.97709" lon="4.27679">
        <ele>301.03</ele>
        <time>2021-08-10T20:09:40Z</time>
      </trkpt>
      <trkpt lat="47.97692" lon="4.27646">
        <ele>299.59</ele>
        <time>2021-08-10T20:09:45Z</time>
      </trkpt>
      <trkpt lat="47.97683" lon="4.27621">
        <ele>298.63</ele>
        <time>2021-08-10T20:09:50Z</time>
      </trkpt>
      <trkpt lat="47.97681" lon="4.27614">
        <ele>298.63</ele>
        <time>2021-08-10T20:09:51Z</time>
      </trkpt>
      <trkpt lat="47.9768" lon="4.27607">
        <ele>297.67</ele>
        <time>2021-08-10T20:09:52Z</time>
      </trkpt>
      <trkpt lat="47.97678" lon="4.276">
        <ele>297.18</ele>
        <time>2021-08-10T20:09:53Z</time>
      </trkpt>
      <trkpt lat="47.97673" lon="4.27583">
        <ele>296.22</ele>
        <time>2021-08-10T20:09:55Z</time>
      </trkpt>
      <trkpt lat="47.97669" lon="4.27576">
        <ele>295.74</ele>
        <time>2021-08-10T20:09:56Z</time>
      </trkpt>
      <trkpt lat="47.97665" lon="4.2757">
        <ele>295.26</ele>
        <time>2021-08-10T20:09:57Z</time>
      </trkpt>
      <trkpt lat="47.9766" lon="4.27564">
        <ele>294.3</ele>
        <time>2021-08-10T20:09:58Z</time>
      </trkpt>
      <trkpt lat="47.97656" lon="4.2756">
        <ele>293.82</ele>
        <time>2021-08-10T20:09:59Z</time>
      </trkpt>
      <trkpt lat="47.97639" lon="4.27543">
        <ele>290.94</ele>
        <time>2021-08-10T20:10:03Z</time>
      </trkpt>
      <trkpt lat="47.97628" lon="4.27532">
        <ele>287.57</ele>
        <time>2021-08-10T20:10:05Z</time>
      </trkpt>
      <trkpt lat="47.97608" lon="4.27518">
        <ele>283.73</ele>
        <time>2021-08-10T20:10:08Z</time>
      </trkpt>
      <trkpt lat="47.97589" lon="4.27509">
        <ele>280.36</ele>
        <time>2021-08-10T20:10:11Z</time>
      </trkpt>
      <trkpt lat="47.97565" lon="4.27499">
        <ele>276.04</ele>
        <time>2021-08-10T20:10:15Z</time>
      </trkpt>
      <trkpt lat="47.97545" lon="4.27491">
        <ele>272.67</ele>
        <time>2021-08-10T20:10:18Z</time>
      </trkpt>
      <trkpt lat="47.97531" lon="4.27484">
        <ele>269.31</ele>
        <time>2021-08-10T20:10:20Z</time>
      </trkpt>
      <trkpt lat="47.9751" lon="4.27471">
        <ele>264.98</ele>
        <time>2021-08-10T20:10:23Z</time>
      </trkpt>
      <trkpt lat="47.97495" lon="4.27458">
        <ele>262.1</ele>
        <time>2021-08-10T20:10:25Z</time>
      </trkpt>
      <trkpt lat="47.97479" lon="4.27444">
        <ele>258.73</ele>
        <time>2021-08-10T20:10:27Z</time>
      </trkpt>
      <trkpt lat="47.97464" lon="4.2743">
        <ele>257.77</ele>
        <time>2021-08-10T20:10:29Z</time>
      </trkpt>
      <trkpt lat="47.9744" lon="4.27412">
        <ele>257.29</ele>
        <time>2021-08-10T20:10:33Z</time>
      </trkpt>
      <trkpt lat="47.97427" lon="4.27407">
        <ele>256.81</ele>
        <time>2021-08-10T20:10:36Z</time>
      </trkpt>
      <trkpt lat="47.97423" lon="4.27405">
        <ele>256.81</ele>
        <time>2021-08-10T20:10:37Z</time>
      </trkpt>
      <trkpt lat="47.97398" lon="4.27397">
        <ele>256.81</ele>
        <time>2021-08-10T20:10:44Z</time>
      </trkpt>
      <trkpt lat="47.97371" lon="4.27384">
        <ele>256.81</ele>
        <time>2021-08-10T20:10:51Z</time>
      </trkpt>
      <trkpt lat="47.97363" lon="4.27379">
        <ele>256.81</ele>
        <time>2021-08-10T20:10:53Z</time>
      </trkpt>
      <trkpt lat="47.97359" lon="4.27377">
        <ele>256.33</ele>
        <time>2021-08-10T20:10:54Z</time>
      </trkpt>
      <trkpt lat="47.97355" lon="4.27377">
        <ele>256.33</ele>
        <time>2021-08-10T20:10:55Z</time>
      </trkpt>
      <trkpt lat="47.97342" lon="4.27378">
        <ele>254.89</ele>
        <time>2021-08-10T20:10:58Z</time>
      </trkpt>
      <trkpt lat="47.97316" lon="4.27391">
        <ele>251.52</ele>
        <time>2021-08-10T20:11:03Z</time>
      </trkpt>
      <trkpt lat="47.97299" lon="4.27397">
        <ele>249.6</ele>
        <time>2021-08-10T20:11:06Z</time>
      </trkpt>
      <trkpt lat="47.97294" lon="4.27396">
        <ele>249.6</ele>
        <time>2021-08-10T20:11:07Z</time>
      </trkpt>
      <trkpt lat="47.9729" lon="4.27393">
        <ele>249.6</ele>
        <time>2021-08-10T20:11:08Z</time>
      </trkpt>
      <trkpt lat="47.97286" lon="4.27389">
        <ele>249.12</ele>
        <time>2021-08-10T20:11:09Z</time>
      </trkpt>
      <trkpt lat="47.97284" lon="4.27385">
        <ele>249.12</ele>
        <time>2021-08-10T20:11:10Z</time>
      </trkpt>
      <trkpt lat="47.97282" lon="4.27382">
        <ele>249.12</ele>
        <time>2021-08-10T20:11:11Z</time>
      </trkpt>
      <trkpt lat="47.97274" lon="4.27365">
        <ele>251.52</ele>
        <time>2021-08-10T20:11:18Z</time>
      </trkpt>
      <trkpt lat="47.97262" lon="4.27345">
        <ele>252.96</ele>
        <time>2021-08-10T20:11:26Z</time>
      </trkpt>
      <trkpt lat="47.97255" lon="4.27323">
        <ele>253.44</ele>
        <time>2021-08-10T20:11:33Z</time>
      </trkpt>
      <trkpt lat="47.97244" lon="4.27287">
        <ele>254.41</ele>
        <time>2021-08-10T20:11:43Z</time>
      </trkpt>
      <trkpt lat="47.97237" lon="4.2725">
        <ele>254.41</ele>
        <time>2021-08-10T20:11:51Z</time>
      </trkpt>
      <trkpt lat="47.97234" lon="4.27237">
        <ele>252.96</ele>
        <time>2021-08-10T20:11:53Z</time>
      </trkpt>
      <trkpt lat="47.97233" lon="4.27229">
        <ele>252.96</ele>
        <time>2021-08-10T20:11:54Z</time>
      </trkpt>
      <trkpt lat="47.97222" lon="4.27184">
        <ele>249.6</ele>
        <time>2021-08-10T20:11:59Z</time>
      </trkpt>
      <trkpt lat="47.97204" lon="4.27141">
        <ele>246.23</ele>
        <time>2021-08-10T20:12:03Z</time>
      </trkpt>
      <trkpt lat="47.97178" lon="4.27082">
        <ele>242.87</ele>
        <time>2021-08-10T20:12:08Z</time>
      </trkpt>
      <trkpt lat="47.97123" lon="4.26974">
        <ele>239.99</ele>
        <time>2021-08-10T20:12:18Z</time>
      </trkpt>
      <trkpt lat="47.97081" lon="4.26905">
        <ele>239.02</ele>
        <time>2021-08-10T20:12:26Z</time>
      </trkpt>
      <trkpt lat="47.97048" lon="4.26847">
        <ele>239.02</ele>
        <time>2021-08-10T20:12:34Z</time>
      </trkpt>
      <trkpt lat="47.97032" lon="4.26825">
        <ele>239.02</ele>
        <time>2021-08-10T20:12:38Z</time>
      </trkpt>
      <trkpt lat="47.97013" lon="4.26808">
        <ele>240.47</ele>
        <time>2021-08-10T20:12:44Z</time>
      </trkpt>
      <trkpt lat="47.96993" lon="4.26791">
        <ele>241.43</ele>
        <time>2021-08-10T20:12:53Z</time>
      </trkpt>
      <trkpt lat="47.96983" lon="4.26782">
        <ele>242.39</ele>
        <time>2021-08-10T20:13:00Z</time>
      </trkpt>
      <trkpt lat="47.96966" lon="4.26771">
        <ele>243.35</ele>
        <time>2021-08-10T20:13:10Z</time>
      </trkpt>
      <trkpt lat="47.96948" lon="4.26765">
        <ele>244.79</ele>
        <time>2021-08-10T20:13:20Z</time>
      </trkpt>
      <trkpt lat="47.96936" lon="4.26763">
        <ele>245.75</ele>
        <time>2021-08-10T20:13:27Z</time>
      </trkpt>
      <trkpt lat="47.96934" lon="4.26763">
        <ele>246.23</ele>
        <time>2021-08-10T20:13:28Z</time>
      </trkpt>
      <trkpt lat="47.96932" lon="4.26763">
        <ele>246.23</ele>
        <time>2021-08-10T20:13:29Z</time>
      </trkpt>
      <trkpt lat="47.96931" lon="4.26763">
        <ele>246.23</ele>
        <time>2021-08-10T20:13:30Z</time>
      </trkpt>
      <trkpt lat="47.96929" lon="4.26762">
        <ele>246.23</ele>
        <time>2021-08-10T20:13:31Z</time>
      </trkpt>
      <trkpt lat="47.96927" lon="4.26761">
        <ele>246.23</ele>
        <time>2021-08-10T20:13:32Z</time>
      </trkpt>
      <trkpt lat="47.96912" lon="4.26756">
        <ele>247.68</ele>
        <time>2021-08-10T20:13:41Z</time>
      </trkpt>
      <trkpt lat="47.969" lon="4.2675">
        <ele>248.16</ele>
        <time>2021-08-10T20:13:48Z</time>
      </trkpt>
      <trkpt lat="47.96879" lon="4.26733">
        <ele>249.12</ele>
        <time>2021-08-10T20:14:00Z</time>
      </trkpt>
      <trkpt lat="47.96874" lon="4.26714">
        <ele>250.08</ele>
        <time>2021-08-10T20:14:07Z</time>
      </trkpt>
      <trkpt lat="47.96872" lon="4.26674">
        <ele>250.56</ele>
        <time>2021-08-10T20:14:19Z</time>
      </trkpt>
      <trkpt lat="47.96863" lon="4.26648">
        <ele>252</ele>
        <time>2021-08-10T20:14:28Z</time>
      </trkpt>
      <trkpt lat="47.96848" lon="4.26628">
        <ele>252.48</ele>
        <time>2021-08-10T20:14:37Z</time>
      </trkpt>
      <trkpt lat="47.96832" lon="4.26609">
        <ele>252.96</ele>
        <time>2021-08-10T20:14:46Z</time>
      </trkpt>
      <trkpt lat="47.96811" lon="4.26582">
        <ele>253.93</ele>
        <time>2021-08-10T20:14:57Z</time>
      </trkpt>
      <trkpt lat="47.96795" lon="4.26562">
        <ele>254.41</ele>
        <time>2021-08-10T20:15:05Z</time>
      </trkpt>
      <trkpt lat="47.96777" lon="4.26537">
        <ele>255.37</ele>
        <time>2021-08-10T20:15:14Z</time>
      </trkpt>
      <trkpt lat="47.96763" lon="4.26518">
        <ele>256.33</ele>
        <time>2021-08-10T20:15:21Z</time>
      </trkpt>
      <trkpt lat="47.96752" lon="4.26498">
        <ele>256.81</ele>
        <time>2021-08-10T20:15:27Z</time>
      </trkpt>
      <trkpt lat="47.96745" lon="4.26488">
        <ele>257.29</ele>
        <time>2021-08-10T20:15:31Z</time>
      </trkpt>
      <trkpt lat="47.96745" lon="4.26485">
        <ele>257.29</ele>
        <time>2021-08-10T20:15:32Z</time>
      </trkpt>
      <trkpt lat="47.96743" lon="4.26482">
        <ele>257.29</ele>
        <time>2021-08-10T20:15:33Z</time>
      </trkpt>
      <trkpt lat="47.96727" lon="4.26463">
        <ele>258.25</ele>
        <time>2021-08-10T20:15:41Z</time>
      </trkpt>
      <trkpt lat="47.96716" lon="4.26445">
        <ele>258.25</ele>
        <time>2021-08-10T20:15:48Z</time>
      </trkpt>
      <trkpt lat="47.96719" lon="4.26432">
        <ele>258.73</ele>
        <time>2021-08-10T20:15:55Z</time>
      </trkpt>
      <trkpt lat="47.96718" lon="4.26431">
        <ele>258.73</ele>
        <time>2021-08-10T20:15:56Z</time>
      </trkpt>
      <trkpt lat="47.96717" lon="4.26431">
        <ele>258.73</ele>
        <time>2021-08-10T20:15:57Z</time>
      </trkpt>
      <trkpt lat="47.96715" lon="4.26433">
        <ele>258.73</ele>
        <time>2021-08-10T20:15:58Z</time>
      </trkpt>
      <trkpt lat="47.96714" lon="4.26434">
        <ele>258.73</ele>
        <time>2021-08-10T20:15:59Z</time>
      </trkpt>
      <trkpt lat="47.96713" lon="4.26436">
        <ele>258.73</ele>
        <time>2021-08-10T20:16:00Z</time>
      </trkpt>
      <trkpt lat="47.96712" lon="4.26437">
        <ele>258.73</ele>
        <time>2021-08-10T20:16:01Z</time>
      </trkpt>
      <trkpt lat="47.9671" lon="4.26438">
        <ele>258.73</ele>
        <time>2021-08-10T20:16:02Z</time>
      </trkpt>
      <trkpt lat="47.96709" lon="4.26439">
        <ele>258.73</ele>
        <time>2021-08-10T20:16:03Z</time>
      </trkpt>
      <trkpt lat="47.96707" lon="4.2644">
        <ele>258.73</ele>
        <time>2021-08-10T20:16:04Z</time>
      </trkpt>
      <trkpt lat="47.96706" lon="4.26441">
        <ele>258.73</ele>
        <time>2021-08-10T20:16:05Z</time>
      </trkpt>
      <trkpt lat="47.96702" lon="4.26441">
        <ele>258.73</ele>
        <time>2021-08-10T20:16:07Z</time>
      </trkpt>
      <trkpt lat="47.96701" lon="4.26439">
        <ele>258.73</ele>
        <time>2021-08-10T20:16:08Z</time>
      </trkpt>
      <trkpt lat="47.96699" lon="4.26434">
        <ele>259.21</ele>
        <time>2021-08-10T20:16:14Z</time>
      </trkpt>
      <trkpt lat="47.967" lon="4.26437">
        <ele>259.21</ele>
        <time>2021-08-10T20:16:27Z</time>
      </trkpt>
      <trkpt lat="47.96694" lon="4.26445">
        <ele>259.21</ele>
        <time>2021-08-10T20:16:47Z</time>
      </trkpt>
      <trkpt lat="47.96698" lon="4.2644">
        <ele>259.21</ele>
        <time>2021-08-10T20:16:57Z</time>
      </trkpt>
      <trkpt lat="47.96699" lon="4.26441">
        <ele>259.21</ele>
        <time>2021-08-10T20:17:02Z</time>
      </trkpt>
      <trkpt lat="47.96699" lon="4.26443">
        <ele>259.21</ele>
        <time>2021-08-10T20:17:03Z</time>
      </trkpt>
      <trkpt lat="47.96697" lon="4.26446">
        <ele>259.21</ele>
        <time>2021-08-10T20:17:04Z</time>
      </trkpt>
      <trkpt lat="47.96696" lon="4.26447">
        <ele>259.21</ele>
        <time>2021-08-10T20:17:05Z</time>
      </trkpt>
      <trkpt lat="47.96695" lon="4.26449">
        <ele>259.21</ele>
        <time>2021-08-10T20:17:06Z</time>
      </trkpt>
      <trkpt lat="47.96693" lon="4.26449">
        <ele>259.21</ele>
        <time>2021-08-10T20:17:07Z</time>
      </trkpt>
      <trkpt lat="47.96692" lon="4.2645">
        <ele>259.21</ele>
        <time>2021-08-10T20:17:08Z</time>
      </trkpt>
      <trkpt lat="47.96689" lon="4.26449">
        <ele>259.21</ele>
        <time>2021-08-10T20:17:09Z</time>
      </trkpt>
      <trkpt lat="47.96688" lon="4.26447">
        <ele>259.21</ele>
        <time>2021-08-10T20:17:10Z</time>
      </trkpt>
      <trkpt lat="47.96686" lon="4.26444">
        <ele>259.21</ele>
        <time>2021-08-10T20:17:11Z</time>
      </trkpt>
      <trkpt lat="47.96685" lon="4.26442">
        <ele>259.21</ele>
        <time>2021-08-10T20:17:12Z</time>
      </trkpt>
      <trkpt lat="47.96684" lon="4.26439">
        <ele>259.69</ele>
        <time>2021-08-10T20:17:13Z</time>
      </trkpt>
      <trkpt lat="47.96682" lon="4.26436">
        <ele>259.69</ele>
        <time>2021-08-10T20:17:14Z</time>
      </trkpt>
      <trkpt lat="47.96669" lon="4.26415">
        <ele>260.17</ele>
        <time>2021-08-10T20:17:22Z</time>
      </trkpt>
      <trkpt lat="47.96665" lon="4.2641">
        <ele>260.65</ele>
        <time>2021-08-10T20:17:25Z</time>
      </trkpt>
      <trkpt lat="47.96664" lon="4.2641">
        <ele>260.65</ele>
        <time>2021-08-10T20:17:26Z</time>
      </trkpt>
      <trkpt lat="47.96663" lon="4.26408">
        <ele>260.65</ele>
        <time>2021-08-10T20:17:27Z</time>
      </trkpt>
      <trkpt lat="47.96662" lon="4.26408">
        <ele>261.14</ele>
        <time>2021-08-10T20:17:28Z</time>
      </trkpt>
      <trkpt lat="47.96661" lon="4.26406">
        <ele>261.14</ele>
        <time>2021-08-10T20:17:29Z</time>
      </trkpt>
      <trkpt lat="47.9666" lon="4.26405">
        <ele>261.14</ele>
        <time>2021-08-10T20:17:30Z</time>
      </trkpt>
      <trkpt lat="47.96659" lon="4.26405">
        <ele>261.14</ele>
        <time>2021-08-10T20:17:31Z</time>
      </trkpt>
      <trkpt lat="47.96658" lon="4.26406">
        <ele>261.14</ele>
        <time>2021-08-10T20:17:32Z</time>
      </trkpt>
      <trkpt lat="47.96659" lon="4.26408">
        <ele>261.14</ele>
        <time>2021-08-10T20:17:33Z</time>
      </trkpt>
      <trkpt lat="47.9666" lon="4.26409">
        <ele>261.14</ele>
        <time>2021-08-10T20:17:34Z</time>
      </trkpt>
      <trkpt lat="47.96662" lon="4.2641">
        <ele>261.14</ele>
        <time>2021-08-10T20:17:35Z</time>
      </trkpt>
      <trkpt lat="47.96664" lon="4.26411">
        <ele>261.14</ele>
        <time>2021-08-10T20:17:36Z</time>
      </trkpt>
      <trkpt lat="47.96665" lon="4.26413">
        <ele>261.14</ele>
        <time>2021-08-10T20:17:37Z</time>
      </trkpt>
      <trkpt lat="47.96673" lon="4.26417">
        <ele>261.14</ele>
        <time>2021-08-10T20:17:44Z</time>
      </trkpt>
      <trkpt lat="47.96672" lon="4.26419">
        <ele>261.14</ele>
        <time>2021-08-10T20:17:50Z</time>
      </trkpt>
      <trkpt lat="47.96671" lon="4.26418">
        <ele>261.14</ele>
        <time>2021-08-10T20:17:51Z</time>
      </trkpt>
      <trkpt lat="47.9667" lon="4.26417">
        <ele>261.14</ele>
        <time>2021-08-10T20:17:52Z</time>
      </trkpt>
      <trkpt lat="47.96656" lon="4.26402">
        <ele>261.14</ele>
        <time>2021-08-10T20:17:59Z</time>
      </trkpt>
      <trkpt lat="47.96637" lon="4.26387">
        <ele>261.62</ele>
        <time>2021-08-10T20:18:06Z</time>
      </trkpt>
      <trkpt lat="47.96613" lon="4.26366">
        <ele>262.58</ele>
        <time>2021-08-10T20:18:15Z</time>
      </trkpt>
      <trkpt lat="47.96592" lon="4.26347">
        <ele>263.54</ele>
        <time>2021-08-10T20:18:25Z</time>
      </trkpt>
      <trkpt lat="47.96573" lon="4.26333">
        <ele>264.02</ele>
        <time>2021-08-10T20:18:34Z</time>
      </trkpt>
      <trkpt lat="47.96557" lon="4.26322">
        <ele>265.46</ele>
        <time>2021-08-10T20:18:41Z</time>
      </trkpt>
      <trkpt lat="47.96535" lon="4.26309">
        <ele>266.42</ele>
        <time>2021-08-10T20:18:52Z</time>
      </trkpt>
      <trkpt lat="47.96508" lon="4.26294">
        <ele>267.38</ele>
        <time>2021-08-10T20:19:04Z</time>
      </trkpt>
      <trkpt lat="47.9649" lon="4.26285">
        <ele>268.35</ele>
        <time>2021-08-10T20:19:12Z</time>
      </trkpt>
      <trkpt lat="47.9647" lon="4.26267">
        <ele>268.83</ele>
        <time>2021-08-10T20:19:21Z</time>
      </trkpt>
      <trkpt lat="47.96467" lon="4.26257">
        <ele>268.83</ele>
        <time>2021-08-10T20:19:23Z</time>
      </trkpt>
      <trkpt lat="47.96466" lon="4.26251">
        <ele>268.83</ele>
        <time>2021-08-10T20:19:24Z</time>
      </trkpt>
      <trkpt lat="47.96458" lon="4.26202">
        <ele>265.46</ele>
        <time>2021-08-10T20:19:30Z</time>
      </trkpt>
      <trkpt lat="47.96452" lon="4.26162">
        <ele>263.54</ele>
        <time>2021-08-10T20:19:34Z</time>
      </trkpt>
      <trkpt lat="47.96446" lon="4.26141">
        <ele>261.62</ele>
        <time>2021-08-10T20:19:36Z</time>
      </trkpt>
      <trkpt lat="47.96443" lon="4.2613">
        <ele>261.62</ele>
        <time>2021-08-10T20:19:37Z</time>
      </trkpt>
      <trkpt lat="47.96424" lon="4.26088">
        <ele>259.21</ele>
        <time>2021-08-10T20:19:41Z</time>
      </trkpt>
      <trkpt lat="47.96416" lon="4.26065">
        <ele>258.73</ele>
        <time>2021-08-10T20:19:43Z</time>
      </trkpt>
      <trkpt lat="47.96413" lon="4.26054">
        <ele>258.73</ele>
        <time>2021-08-10T20:19:44Z</time>
      </trkpt>
      <trkpt lat="47.96411" lon="4.26043">
        <ele>258.73</ele>
        <time>2021-08-10T20:19:45Z</time>
      </trkpt>
      <trkpt lat="47.96407" lon="4.26004">
        <ele>259.69</ele>
        <time>2021-08-10T20:19:49Z</time>
      </trkpt>
      <trkpt lat="47.96404" lon="4.25975">
        <ele>261.14</ele>
        <time>2021-08-10T20:19:53Z</time>
      </trkpt>
      <trkpt lat="47.96404" lon="4.25969">
        <ele>262.1</ele>
        <time>2021-08-10T20:19:54Z</time>
      </trkpt>
      <trkpt lat="47.96402" lon="4.25937">
        <ele>263.54</ele>
        <time>2021-08-10T20:20:01Z</time>
      </trkpt>
      <trkpt lat="47.96399" lon="4.2589">
        <ele>265.94</ele>
        <time>2021-08-10T20:20:11Z</time>
      </trkpt>
      <trkpt lat="47.964" lon="4.25848">
        <ele>266.42</ele>
        <time>2021-08-10T20:20:20Z</time>
      </trkpt>
      <trkpt lat="47.96401" lon="4.25833">
        <ele>266.42</ele>
        <time>2021-08-10T20:20:23Z</time>
      </trkpt>
      <trkpt lat="47.96405" lon="4.25808">
        <ele>266.42</ele>
        <time>2021-08-10T20:20:28Z</time>
      </trkpt>
      <trkpt lat="47.96407" lon="4.25803">
        <ele>266.42</ele>
        <time>2021-08-10T20:20:29Z</time>
      </trkpt>
      <trkpt lat="47.96409" lon="4.25798">
        <ele>266.42</ele>
        <time>2021-08-10T20:20:30Z</time>
      </trkpt>
      <trkpt lat="47.9641" lon="4.25792">
        <ele>266.42</ele>
        <time>2021-08-10T20:20:31Z</time>
      </trkpt>
      <trkpt lat="47.96411" lon="4.25787">
        <ele>266.42</ele>
        <time>2021-08-10T20:20:32Z</time>
      </trkpt>
      <trkpt lat="47.96412" lon="4.2578">
        <ele>266.42</ele>
        <time>2021-08-10T20:20:33Z</time>
      </trkpt>
      <trkpt lat="47.96416" lon="4.25762">
        <ele>264.98</ele>
        <time>2021-08-10T20:20:36Z</time>
      </trkpt>
      <trkpt lat="47.96427" lon="4.25695">
        <ele>262.58</ele>
        <time>2021-08-10T20:20:45Z</time>
      </trkpt>
      <trkpt lat="47.96428" lon="4.25633">
        <ele>260.65</ele>
        <time>2021-08-10T20:20:52Z</time>
      </trkpt>
      <trkpt lat="47.96422" lon="4.25548">
        <ele>257.77</ele>
        <time>2021-08-10T20:21:00Z</time>
      </trkpt>
      <trkpt lat="47.96413" lon="4.25432">
        <ele>254.89</ele>
        <time>2021-08-10T20:21:10Z</time>
      </trkpt>
      <trkpt lat="47.96406" lon="4.25316">
        <ele>253.93</ele>
        <time>2021-08-10T20:21:21Z</time>
      </trkpt>
      <trkpt lat="47.964" lon="4.25221">
        <ele>252</ele>
        <time>2021-08-10T20:21:30Z</time>
      </trkpt>
      <trkpt lat="47.96396" lon="4.25154">
        <ele>252</ele>
        <time>2021-08-10T20:21:38Z</time>
      </trkpt>
      <trkpt lat="47.96395" lon="4.25146">
        <ele>252</ele>
        <time>2021-08-10T20:21:39Z</time>
      </trkpt>
      <trkpt lat="47.96394" lon="4.2514">
        <ele>252</ele>
        <time>2021-08-10T20:21:40Z</time>
      </trkpt>
      <trkpt lat="47.96392" lon="4.25134">
        <ele>252</ele>
        <time>2021-08-10T20:21:41Z</time>
      </trkpt>
      <trkpt lat="47.96391" lon="4.25128">
        <ele>252</ele>
        <time>2021-08-10T20:21:42Z</time>
      </trkpt>
      <trkpt lat="47.96376" lon="4.25066">
        <ele>253.93</ele>
        <time>2021-08-10T20:21:53Z</time>
      </trkpt>
      <trkpt lat="47.96367" lon="4.2501">
        <ele>254.41</ele>
        <time>2021-08-10T20:22:03Z</time>
      </trkpt>
      <trkpt lat="47.96368" lon="4.25004">
        <ele>254.41</ele>
        <time>2021-08-10T20:22:04Z</time>
      </trkpt>
      <trkpt lat="47.96386" lon="4.24958">
        <ele>254.41</ele>
        <time>2021-08-10T20:22:13Z</time>
      </trkpt>
      <trkpt lat="47.96388" lon="4.24947">
        <ele>254.41</ele>
        <time>2021-08-10T20:22:15Z</time>
      </trkpt>
      <trkpt lat="47.96389" lon="4.24941">
        <ele>254.41</ele>
        <time>2021-08-10T20:22:16Z</time>
      </trkpt>
      <trkpt lat="47.96389" lon="4.24935">
        <ele>254.41</ele>
        <time>2021-08-10T20:22:17Z</time>
      </trkpt>
      <trkpt lat="47.96389" lon="4.24929">
        <ele>254.41</ele>
        <time>2021-08-10T20:22:18Z</time>
      </trkpt>
      <trkpt lat="47.96388" lon="4.24923">
        <ele>254.89</ele>
        <time>2021-08-10T20:22:19Z</time>
      </trkpt>
      <trkpt lat="47.96387" lon="4.24918">
        <ele>254.89</ele>
        <time>2021-08-10T20:22:20Z</time>
      </trkpt>
      <trkpt lat="47.96386" lon="4.24882">
        <ele>255.85</ele>
        <time>2021-08-10T20:22:27Z</time>
      </trkpt>
      <trkpt lat="47.96392" lon="4.24871">
        <ele>256.81</ele>
        <time>2021-08-10T20:22:33Z</time>
      </trkpt>
      <trkpt lat="47.96397" lon="4.24867">
        <ele>257.29</ele>
        <time>2021-08-10T20:22:37Z</time>
      </trkpt>
      <trkpt lat="47.96398" lon="4.24866">
        <ele>257.29</ele>
        <time>2021-08-10T20:22:38Z</time>
      </trkpt>
      <trkpt lat="47.96398" lon="4.24864">
        <ele>257.29</ele>
        <time>2021-08-10T20:22:39Z</time>
      </trkpt>
      <trkpt lat="47.96399" lon="4.24863">
        <ele>258.25</ele>
        <time>2021-08-10T20:22:40Z</time>
      </trkpt>
      <trkpt lat="47.96399" lon="4.24861">
        <ele>258.25</ele>
        <time>2021-08-10T20:22:41Z</time>
      </trkpt>
      <trkpt lat="47.96403" lon="4.24856">
        <ele>259.21</ele>
        <time>2021-08-10T20:22:45Z</time>
      </trkpt>
      <trkpt lat="47.96409" lon="4.24854">
        <ele>260.17</ele>
        <time>2021-08-10T20:22:50Z</time>
      </trkpt>
      <trkpt lat="47.96417" lon="4.24841">
        <ele>262.1</ele>
        <time>2021-08-10T20:23:00Z</time>
      </trkpt>
      <trkpt lat="47.96422" lon="4.24837">
        <ele>262.58</ele>
        <time>2021-08-10T20:23:08Z</time>
      </trkpt>
      <trkpt lat="47.96428" lon="4.2483">
        <ele>264.5</ele>
        <time>2021-08-10T20:23:16Z</time>
      </trkpt>
      <trkpt lat="47.9643" lon="4.24829">
        <ele>264.02</ele>
        <time>2021-08-10T20:23:18Z</time>
      </trkpt>
      <trkpt lat="47.96435" lon="4.24823">
        <ele>265.46</ele>
        <time>2021-08-10T20:23:26Z</time>
      </trkpt>
      <trkpt lat="47.96442" lon="4.24814">
        <ele>267.38</ele>
        <time>2021-08-10T20:23:36Z</time>
      </trkpt>
      <trkpt lat="47.9645" lon="4.24805">
        <ele>268.35</ele>
        <time>2021-08-10T20:23:45Z</time>
      </trkpt>
      <trkpt lat="47.96458" lon="4.24795">
        <ele>269.31</ele>
        <time>2021-08-10T20:23:54Z</time>
      </trkpt>
      <trkpt lat="47.96464" lon="4.24788">
        <ele>270.75</ele>
        <time>2021-08-10T20:24:02Z</time>
      </trkpt>
      <trkpt lat="47.96465" lon="4.24789">
        <ele>270.27</ele>
        <time>2021-08-10T20:24:08Z</time>
      </trkpt>
      <trkpt lat="47.96464" lon="4.24789">
        <ele>270.27</ele>
        <time>2021-08-10T20:24:26Z</time>
      </trkpt>
      <trkpt lat="47.96465" lon="4.24789">
        <ele>270.27</ele>
        <time>2021-08-10T20:24:46Z</time>
      </trkpt>
      <trkpt lat="47.96465" lon="4.2479">
        <ele>270.27</ele>
        <time>2021-08-10T20:25:05Z</time>
      </trkpt>
      <trkpt lat="47.96465" lon="4.2479">
        <ele>270.27</ele>
        <time>2021-08-10T20:25:10Z</time>
      </trkpt>
      <trkpt lat="47.96468" lon="4.24785">
        <ele>270.27</ele>
        <time>2021-08-10T20:25:17Z</time>
      </trkpt>
      <trkpt lat="47.96475" lon="4.24776">
        <ele>271.71</ele>
        <time>2021-08-10T20:25:24Z</time>
      </trkpt>
      <trkpt lat="47.96481" lon="4.24769">
        <ele>272.19</ele>
        <time>2021-08-10T20:25:31Z</time>
      </trkpt>
      <trkpt lat="47.96481" lon="4.24769">
        <ele>272.67</ele>
        <time>2021-08-10T20:25:45Z</time>
      </trkpt>
      <trkpt lat="47.96482" lon="4.24766">
        <ele>272.67</ele>
        <time>2021-08-10T20:25:50Z</time>
      </trkpt>
      <trkpt lat="47.96483" lon="4.24764">
        <ele>272.67</ele>
        <time>2021-08-10T20:25:51Z</time>
      </trkpt>
      <trkpt lat="47.96483" lon="4.24762">
        <ele>272.67</ele>
        <time>2021-08-10T20:25:52Z</time>
      </trkpt>
      <trkpt lat="47.96484" lon="4.2476">
        <ele>273.15</ele>
        <time>2021-08-10T20:25:53Z</time>
      </trkpt>
      <trkpt lat="47.96485" lon="4.24759">
        <ele>273.15</ele>
        <time>2021-08-10T20:25:54Z</time>
      </trkpt>
      <trkpt lat="47.96486" lon="4.24758">
        <ele>273.15</ele>
        <time>2021-08-10T20:25:55Z</time>
      </trkpt>
      <trkpt lat="47.96488" lon="4.24757">
        <ele>273.63</ele>
        <time>2021-08-10T20:25:56Z</time>
      </trkpt>
      <trkpt lat="47.96489" lon="4.24757">
        <ele>273.63</ele>
        <time>2021-08-10T20:25:57Z</time>
      </trkpt>
      <trkpt lat="47.9649" lon="4.24756">
        <ele>273.63</ele>
        <time>2021-08-10T20:25:58Z</time>
      </trkpt>
      <trkpt lat="47.96491" lon="4.24755">
        <ele>273.63</ele>
        <time>2021-08-10T20:25:59Z</time>
      </trkpt>
      <trkpt lat="47.96492" lon="4.24753">
        <ele>274.11</ele>
        <time>2021-08-10T20:26:00Z</time>
      </trkpt>
      <trkpt lat="47.96493" lon="4.24751">
        <ele>274.11</ele>
        <time>2021-08-10T20:26:01Z</time>
      </trkpt>
      <trkpt lat="47.96494" lon="4.2475">
        <ele>274.11</ele>
        <time>2021-08-10T20:26:02Z</time>
      </trkpt>
      <trkpt lat="47.96495" lon="4.24749">
        <ele>274.11</ele>
        <time>2021-08-10T20:26:03Z</time>
      </trkpt>
      <trkpt lat="47.96496" lon="4.24748">
        <ele>274.59</ele>
        <time>2021-08-10T20:26:04Z</time>
      </trkpt>
      <trkpt lat="47.96505" lon="4.24736">
        <ele>275.56</ele>
        <time>2021-08-10T20:26:13Z</time>
      </trkpt>
      <trkpt lat="47.96509" lon="4.24734">
        <ele>276.04</ele>
        <time>2021-08-10T20:26:16Z</time>
      </trkpt>
      <trkpt lat="47.9651" lon="4.24733">
        <ele>276.04</ele>
        <time>2021-08-10T20:26:17Z</time>
      </trkpt>
      <trkpt lat="47.96511" lon="4.24731">
        <ele>276.04</ele>
        <time>2021-08-10T20:26:18Z</time>
      </trkpt>
      <trkpt lat="47.96512" lon="4.2473">
        <ele>276.04</ele>
        <time>2021-08-10T20:26:19Z</time>
      </trkpt>
      <trkpt lat="47.96513" lon="4.24728">
        <ele>276.52</ele>
        <time>2021-08-10T20:26:20Z</time>
      </trkpt>
      <trkpt lat="47.96514" lon="4.24727">
        <ele>276.52</ele>
        <time>2021-08-10T20:26:21Z</time>
      </trkpt>
      <trkpt lat="47.96521" lon="4.24718">
        <ele>277.96</ele>
        <time>2021-08-10T20:26:28Z</time>
      </trkpt>
      <trkpt lat="47.96522" lon="4.24717">
        <ele>277.96</ele>
        <time>2021-08-10T20:26:29Z</time>
      </trkpt>
      <trkpt lat="47.96535" lon="4.24702">
        <ele>279.88</ele>
        <time>2021-08-10T20:26:41Z</time>
      </trkpt>
      <trkpt lat="47.96543" lon="4.24693">
        <ele>280.36</ele>
        <time>2021-08-10T20:26:48Z</time>
      </trkpt>
      <trkpt lat="47.96548" lon="4.24687">
        <ele>281.32</ele>
        <time>2021-08-10T20:26:53Z</time>
      </trkpt>
      <trkpt lat="47.96549" lon="4.24686">
        <ele>281.32</ele>
        <time>2021-08-10T20:26:54Z</time>
      </trkpt>
      <trkpt lat="47.96551" lon="4.24684">
        <ele>281.8</ele>
        <time>2021-08-10T20:27:00Z</time>
      </trkpt>
      <trkpt lat="47.9655" lon="4.24683">
        <ele>281.8</ele>
        <time>2021-08-10T20:27:06Z</time>
      </trkpt>
      <trkpt lat="47.96552" lon="4.24682">
        <ele>281.8</ele>
        <time>2021-08-10T20:27:19Z</time>
      </trkpt>
      <trkpt lat="47.96553" lon="4.24681">
        <ele>281.8</ele>
        <time>2021-08-10T20:27:24Z</time>
      </trkpt>
      <trkpt lat="47.96553" lon="4.2468">
        <ele>281.8</ele>
        <time>2021-08-10T20:27:25Z</time>
      </trkpt>
      <trkpt lat="47.96554" lon="4.24678">
        <ele>281.8</ele>
        <time>2021-08-10T20:27:26Z</time>
      </trkpt>
      <trkpt lat="47.96555" lon="4.24677">
        <ele>281.8</ele>
        <time>2021-08-10T20:27:27Z</time>
      </trkpt>
      <trkpt lat="47.96556" lon="4.24676">
        <ele>282.28</ele>
        <time>2021-08-10T20:27:28Z</time>
      </trkpt>
      <trkpt lat="47.96558" lon="4.24675">
        <ele>282.28</ele>
        <time>2021-08-10T20:27:29Z</time>
      </trkpt>
      <trkpt lat="47.9656" lon="4.24674">
        <ele>282.28</ele>
        <time>2021-08-10T20:27:30Z</time>
      </trkpt>
      <trkpt lat="47.96573" lon="4.24663">
        <ele>283.25</ele>
        <time>2021-08-10T20:27:37Z</time>
      </trkpt>
      <trkpt lat="47.96595" lon="4.24646">
        <ele>284.21</ele>
        <time>2021-08-10T20:27:48Z</time>
      </trkpt>
      <trkpt lat="47.9661" lon="4.24635">
        <ele>286.13</ele>
        <time>2021-08-10T20:27:56Z</time>
      </trkpt>
      <trkpt lat="47.96626" lon="4.24621">
        <ele>287.09</ele>
        <time>2021-08-10T20:28:05Z</time>
      </trkpt>
      <trkpt lat="47.96627" lon="4.24602">
        <ele>287.57</ele>
        <time>2021-08-10T20:28:11Z</time>
      </trkpt>
      <trkpt lat="47.96623" lon="4.24571">
        <ele>288.53</ele>
        <time>2021-08-10T20:28:20Z</time>
      </trkpt>
      <trkpt lat="47.96618" lon="4.2453">
        <ele>289.97</ele>
        <time>2021-08-10T20:28:31Z</time>
      </trkpt>
      <trkpt lat="47.96615" lon="4.24493">
        <ele>291.42</ele>
        <time>2021-08-10T20:28:41Z</time>
      </trkpt>
      <trkpt lat="47.96615" lon="4.24454">
        <ele>292.86</ele>
        <time>2021-08-10T20:28:51Z</time>
      </trkpt>
      <trkpt lat="47.96617" lon="4.24406">
        <ele>293.34</ele>
        <time>2021-08-10T20:29:03Z</time>
      </trkpt>
      <trkpt lat="47.96622" lon="4.24361">
        <ele>295.26</ele>
        <time>2021-08-10T20:29:14Z</time>
      </trkpt>
      <trkpt lat="47.96629" lon="4.24306">
        <ele>297.18</ele>
        <time>2021-08-10T20:29:27Z</time>
      </trkpt>
      <trkpt lat="47.96637" lon="4.24256">
        <ele>298.63</ele>
        <time>2021-08-10T20:29:39Z</time>
      </trkpt>
      <trkpt lat="47.96646" lon="4.24206">
        <ele>300.07</ele>
        <time>2021-08-10T20:29:51Z</time>
      </trkpt>
      <trkpt lat="47.96653" lon="4.24162">
        <ele>301.51</ele>
        <time>2021-08-10T20:30:01Z</time>
      </trkpt>
      <trkpt lat="47.96659" lon="4.24122">
        <ele>301.99</ele>
        <time>2021-08-10T20:30:09Z</time>
      </trkpt>
      <trkpt lat="47.96667" lon="4.24072">
        <ele>302.95</ele>
        <time>2021-08-10T20:30:18Z</time>
      </trkpt>
      <trkpt lat="47.96672" lon="4.24032">
        <ele>303.43</ele>
        <time>2021-08-10T20:30:25Z</time>
      </trkpt>
      <trkpt lat="47.96671" lon="4.24026">
        <ele>303.43</ele>
        <time>2021-08-10T20:30:26Z</time>
      </trkpt>
      <trkpt lat="47.96672" lon="4.2402">
        <ele>303.43</ele>
        <time>2021-08-10T20:30:27Z</time>
      </trkpt>
      <trkpt lat="47.96687" lon="4.23945">
        <ele>303.91</ele>
        <time>2021-08-10T20:30:40Z</time>
      </trkpt>
      <trkpt lat="47.96698" lon="4.2388">
        <ele>304.88</ele>
        <time>2021-08-10T20:30:51Z</time>
      </trkpt>
      <trkpt lat="47.96708" lon="4.2382">
        <ele>305.36</ele>
        <time>2021-08-10T20:31:01Z</time>
      </trkpt>
      <trkpt lat="47.9672" lon="4.23752">
        <ele>305.84</ele>
        <time>2021-08-10T20:31:11Z</time>
      </trkpt>
      <trkpt lat="47.96727" lon="4.23675">
        <ele>306.8</ele>
        <time>2021-08-10T20:31:22Z</time>
      </trkpt>
      <trkpt lat="47.96728" lon="4.23604">
        <ele>307.28</ele>
        <time>2021-08-10T20:31:33Z</time>
      </trkpt>
      <trkpt lat="47.96728" lon="4.23517">
        <ele>307.28</ele>
        <time>2021-08-10T20:31:46Z</time>
      </trkpt>
      <trkpt lat="47.96729" lon="4.23444">
        <ele>307.76</ele>
        <time>2021-08-10T20:31:56Z</time>
      </trkpt>
      <trkpt lat="47.96729" lon="4.23352">
        <ele>306.32</ele>
        <time>2021-08-10T20:32:07Z</time>
      </trkpt>
      <trkpt lat="47.9673" lon="4.23256">
        <ele>302.95</ele>
        <time>2021-08-10T20:32:16Z</time>
      </trkpt>
      <trkpt lat="47.96725" lon="4.23155">
        <ele>301.99</ele>
        <time>2021-08-10T20:32:25Z</time>
      </trkpt>
      <trkpt lat="47.96723" lon="4.23146">
        <ele>301.99</ele>
        <time>2021-08-10T20:32:26Z</time>
      </trkpt>
      <trkpt lat="47.96703" lon="4.23083">
        <ele>303.43</ele>
        <time>2021-08-10T20:32:33Z</time>
      </trkpt>
      <trkpt lat="47.9668" lon="4.23042">
        <ele>304.88</ele>
        <time>2021-08-10T20:32:39Z</time>
      </trkpt>
      <trkpt lat="47.96652" lon="4.23004">
        <ele>305.84</ele>
        <time>2021-08-10T20:32:47Z</time>
      </trkpt>
      <trkpt lat="47.96625" lon="4.22971">
        <ele>306.8</ele>
        <time>2021-08-10T20:32:56Z</time>
      </trkpt>
      <trkpt lat="47.96604" lon="4.22943">
        <ele>308.24</ele>
        <time>2021-08-10T20:33:04Z</time>
      </trkpt>
      <trkpt lat="47.96585" lon="4.2292">
        <ele>308.72</ele>
        <time>2021-08-10T20:33:11Z</time>
      </trkpt>
      <trkpt lat="47.96562" lon="4.2289">
        <ele>310.16</ele>
        <time>2021-08-10T20:33:20Z</time>
      </trkpt>
      <trkpt lat="47.96541" lon="4.22865">
        <ele>310.64</ele>
        <time>2021-08-10T20:33:28Z</time>
      </trkpt>
      <trkpt lat="47.9652" lon="4.22844">
        <ele>311.6</ele>
        <time>2021-08-10T20:33:36Z</time>
      </trkpt>
      <trkpt lat="47.96501" lon="4.22829">
        <ele>312.57</ele>
        <time>2021-08-10T20:33:42Z</time>
      </trkpt>
      <trkpt lat="47.96476" lon="4.22814">
        <ele>313.05</ele>
        <time>2021-08-10T20:33:50Z</time>
      </trkpt>
      <trkpt lat="47.96452" lon="4.22799">
        <ele>314.01</ele>
        <time>2021-08-10T20:33:58Z</time>
      </trkpt>
      <trkpt lat="47.96434" lon="4.22788">
        <ele>314.01</ele>
        <time>2021-08-10T20:34:04Z</time>
      </trkpt>
      <trkpt lat="47.96411" lon="4.22775">
        <ele>314.49</ele>
        <time>2021-08-10T20:34:12Z</time>
      </trkpt>
      <trkpt lat="47.9639" lon="4.22762">
        <ele>315.93</ele>
        <time>2021-08-10T20:34:19Z</time>
      </trkpt>
      <trkpt lat="47.96364" lon="4.22746">
        <ele>316.41</ele>
        <time>2021-08-10T20:34:27Z</time>
      </trkpt>
      <trkpt lat="47.9634" lon="4.22732">
        <ele>317.37</ele>
        <time>2021-08-10T20:34:34Z</time>
      </trkpt>
      <trkpt lat="47.96311" lon="4.2271">
        <ele>318.33</ele>
        <time>2021-08-10T20:34:43Z</time>
      </trkpt>
      <trkpt lat="47.96285" lon="4.22674">
        <ele>319.3</ele>
        <time>2021-08-10T20:34:53Z</time>
      </trkpt>
      <trkpt lat="47.96276" lon="4.22657">
        <ele>319.3</ele>
        <time>2021-08-10T20:34:57Z</time>
      </trkpt>
      <trkpt lat="47.96274" lon="4.2265">
        <ele>319.3</ele>
        <time>2021-08-10T20:34:58Z</time>
      </trkpt>
      <trkpt lat="47.96263" lon="4.2261">
        <ele>319.3</ele>
        <time>2021-08-10T20:35:07Z</time>
      </trkpt>
      <trkpt lat="47.96256" lon="4.22577">
        <ele>319.3</ele>
        <time>2021-08-10T20:35:13Z</time>
      </trkpt>
      <trkpt lat="47.96249" lon="4.22545">
        <ele>317.85</ele>
        <time>2021-08-10T20:35:18Z</time>
      </trkpt>
      <trkpt lat="47.96234" lon="4.22483">
        <ele>315.93</ele>
        <time>2021-08-10T20:35:26Z</time>
      </trkpt>
      <trkpt lat="47.9622" lon="4.22414">
        <ele>313.05</ele>
        <time>2021-08-10T20:35:33Z</time>
      </trkpt>
      <trkpt lat="47.9621" lon="4.22366">
        <ele>311.12</ele>
        <time>2021-08-10T20:35:37Z</time>
      </trkpt>
      <trkpt lat="47.96194" lon="4.22288">
        <ele>307.28</ele>
        <time>2021-08-10T20:35:43Z</time>
      </trkpt>
      <trkpt lat="47.96182" lon="4.22215">
        <ele>303.91</ele>
        <time>2021-08-10T20:35:48Z</time>
      </trkpt>
      <trkpt lat="47.96169" lon="4.22138">
        <ele>300.07</ele>
        <time>2021-08-10T20:35:53Z</time>
      </trkpt>
      <trkpt lat="47.96156" lon="4.22057">
        <ele>297.18</ele>
        <time>2021-08-10T20:35:58Z</time>
      </trkpt>
      <trkpt lat="47.96143" lon="4.21975">
        <ele>293.34</ele>
        <time>2021-08-10T20:36:03Z</time>
      </trkpt>
      <trkpt lat="47.96134" lon="4.21901">
        <ele>289.97</ele>
        <time>2021-08-10T20:36:08Z</time>
      </trkpt>
      <trkpt lat="47.96136" lon="4.21821">
        <ele>286.61</ele>
        <time>2021-08-10T20:36:13Z</time>
      </trkpt>
      <trkpt lat="47.96138" lon="4.21806">
        <ele>286.13</ele>
        <time>2021-08-10T20:36:14Z</time>
      </trkpt>
      <trkpt lat="47.96143" lon="4.21792">
        <ele>285.65</ele>
        <time>2021-08-10T20:36:15Z</time>
      </trkpt>
      <trkpt lat="47.96148" lon="4.2178">
        <ele>285.17</ele>
        <time>2021-08-10T20:36:16Z</time>
      </trkpt>
      <trkpt lat="47.96155" lon="4.21769">
        <ele>285.17</ele>
        <time>2021-08-10T20:36:17Z</time>
      </trkpt>
      <trkpt lat="47.96161" lon="4.21759">
        <ele>284.21</ele>
        <time>2021-08-10T20:36:18Z</time>
      </trkpt>
      <trkpt lat="47.96199" lon="4.21709">
        <ele>280.84</ele>
        <time>2021-08-10T20:36:23Z</time>
      </trkpt>
      <trkpt lat="47.96239" lon="4.21658">
        <ele>277.48</ele>
        <time>2021-08-10T20:36:28Z</time>
      </trkpt>
      <trkpt lat="47.96272" lon="4.21616">
        <ele>274.11</ele>
        <time>2021-08-10T20:36:32Z</time>
      </trkpt>
      <trkpt lat="47.96287" lon="4.21595">
        <ele>273.15</ele>
        <time>2021-08-10T20:36:34Z</time>
      </trkpt>
      <trkpt lat="47.96293" lon="4.21584">
        <ele>272.19</ele>
        <time>2021-08-10T20:36:35Z</time>
      </trkpt>
      <trkpt lat="47.96298" lon="4.21572">
        <ele>271.23</ele>
        <time>2021-08-10T20:36:36Z</time>
      </trkpt>
      <trkpt lat="47.96301" lon="4.21558">
        <ele>270.75</ele>
        <time>2021-08-10T20:36:37Z</time>
      </trkpt>
      <trkpt lat="47.96304" lon="4.21544">
        <ele>269.79</ele>
        <time>2021-08-10T20:36:38Z</time>
      </trkpt>
      <trkpt lat="47.96306" lon="4.21528">
        <ele>268.83</ele>
        <time>2021-08-10T20:36:39Z</time>
      </trkpt>
      <trkpt lat="47.96307" lon="4.21513">
        <ele>267.86</ele>
        <time>2021-08-10T20:36:40Z</time>
      </trkpt>
      <trkpt lat="47.96308" lon="4.21495">
        <ele>266.9</ele>
        <time>2021-08-10T20:36:41Z</time>
      </trkpt>
      <trkpt lat="47.9631" lon="4.2143">
        <ele>264.02</ele>
        <time>2021-08-10T20:36:45Z</time>
      </trkpt>
      <trkpt lat="47.96314" lon="4.21347">
        <ele>260.65</ele>
        <time>2021-08-10T20:36:50Z</time>
      </trkpt>
      <trkpt lat="47.96319" lon="4.21242">
        <ele>259.69</ele>
        <time>2021-08-10T20:36:57Z</time>
      </trkpt>
      <trkpt lat="47.96319" lon="4.21205">
        <ele>261.14</ele>
        <time>2021-08-10T20:37:00Z</time>
      </trkpt>
      <trkpt lat="47.96314" lon="4.21152">
        <ele>263.06</ele>
        <time>2021-08-10T20:37:06Z</time>
      </trkpt>
      <trkpt lat="47.96299" lon="4.21093">
        <ele>264.98</ele>
        <time>2021-08-10T20:37:15Z</time>
      </trkpt>
      <trkpt lat="47.96286" lon="4.21043">
        <ele>266.42</ele>
        <time>2021-08-10T20:37:24Z</time>
      </trkpt>
      <trkpt lat="47.96271" lon="4.20982">
        <ele>266.9</ele>
        <time>2021-08-10T20:37:36Z</time>
      </trkpt>
      <trkpt lat="47.96256" lon="4.20928">
        <ele>267.86</ele>
        <time>2021-08-10T20:37:46Z</time>
      </trkpt>
      <trkpt lat="47.96232" lon="4.20864">
        <ele>268.83</ele>
        <time>2021-08-10T20:37:58Z</time>
      </trkpt>
      <trkpt lat="47.96208" lon="4.20813">
        <ele>268.83</ele>
        <time>2021-08-10T20:38:08Z</time>
      </trkpt>
      <trkpt lat="47.96179" lon="4.20755">
        <ele>268.83</ele>
        <time>2021-08-10T20:38:19Z</time>
      </trkpt>
      <trkpt lat="47.96148" lon="4.20694">
        <ele>268.83</ele>
        <time>2021-08-10T20:38:30Z</time>
      </trkpt>
      <trkpt lat="47.9611" lon="4.20617">
        <ele>268.83</ele>
        <time>2021-08-10T20:38:43Z</time>
      </trkpt>
      <trkpt lat="47.96087" lon="4.20573">
        <ele>268.83</ele>
        <time>2021-08-10T20:38:51Z</time>
      </trkpt>
      <trkpt lat="47.96085" lon="4.20567">
        <ele>268.83</ele>
        <time>2021-08-10T20:38:52Z</time>
      </trkpt>
      <trkpt lat="47.96083" lon="4.20562">
        <ele>268.83</ele>
        <time>2021-08-10T20:38:53Z</time>
      </trkpt>
      <trkpt lat="47.9608" lon="4.20557">
        <ele>268.83</ele>
        <time>2021-08-10T20:38:54Z</time>
      </trkpt>
      <trkpt lat="47.96077" lon="4.20552">
        <ele>268.83</ele>
        <time>2021-08-10T20:38:55Z</time>
      </trkpt>
      <trkpt lat="47.96053" lon="4.20502">
        <ele>268.83</ele>
        <time>2021-08-10T20:39:04Z</time>
      </trkpt>
      <trkpt lat="47.96031" lon="4.20449">
        <ele>268.83</ele>
        <time>2021-08-10T20:39:13Z</time>
      </trkpt>
      <trkpt lat="47.96015" lon="4.20381">
        <ele>268.83</ele>
        <time>2021-08-10T20:39:23Z</time>
      </trkpt>
      <trkpt lat="47.95997" lon="4.20306">
        <ele>269.79</ele>
        <time>2021-08-10T20:39:34Z</time>
      </trkpt>
      <trkpt lat="47.95983" lon="4.20249">
        <ele>271.23</ele>
        <time>2021-08-10T20:39:43Z</time>
      </trkpt>
      <trkpt lat="47.95971" lon="4.20191">
        <ele>273.15</ele>
        <time>2021-08-10T20:39:54Z</time>
      </trkpt>
      <trkpt lat="47.95959" lon="4.20139">
        <ele>274.11</ele>
        <time>2021-08-10T20:40:06Z</time>
      </trkpt>
      <trkpt lat="47.9595" lon="4.20095">
        <ele>275.56</ele>
        <time>2021-08-10T20:40:16Z</time>
      </trkpt>
      <trkpt lat="47.95939" lon="4.20054">
        <ele>277</ele>
        <time>2021-08-10T20:40:26Z</time>
      </trkpt>
      <trkpt lat="47.95928" lon="4.20006">
        <ele>278.44</ele>
        <time>2021-08-10T20:40:37Z</time>
      </trkpt>
      <trkpt lat="47.95919" lon="4.19966">
        <ele>279.4</ele>
        <time>2021-08-10T20:40:46Z</time>
      </trkpt>
      <trkpt lat="47.9591" lon="4.19925">
        <ele>280.84</ele>
        <time>2021-08-10T20:40:55Z</time>
      </trkpt>
      <trkpt lat="47.95902" lon="4.19883">
        <ele>283.25</ele>
        <time>2021-08-10T20:41:06Z</time>
      </trkpt>
      <trkpt lat="47.959" lon="4.19854">
        <ele>283.73</ele>
        <time>2021-08-10T20:41:15Z</time>
      </trkpt>
      <trkpt lat="47.95898" lon="4.19816">
        <ele>285.65</ele>
        <time>2021-08-10T20:41:26Z</time>
      </trkpt>
      <trkpt lat="47.95895" lon="4.1977">
        <ele>288.05</ele>
        <time>2021-08-10T20:41:39Z</time>
      </trkpt>
      <trkpt lat="47.95894" lon="4.19742">
        <ele>289.01</ele>
        <time>2021-08-10T20:41:47Z</time>
      </trkpt>
      <trkpt lat="47.95894" lon="4.19715">
        <ele>290.46</ele>
        <time>2021-08-10T20:41:55Z</time>
      </trkpt>
      <trkpt lat="47.95892" lon="4.19686">
        <ele>291.42</ele>
        <time>2021-08-10T20:42:03Z</time>
      </trkpt>
      <trkpt lat="47.95892" lon="4.19662">
        <ele>292.38</ele>
        <time>2021-08-10T20:42:10Z</time>
      </trkpt>
      <trkpt lat="47.9589" lon="4.19634">
        <ele>293.82</ele>
        <time>2021-08-10T20:42:18Z</time>
      </trkpt>
      <trkpt lat="47.95889" lon="4.1961">
        <ele>294.78</ele>
        <time>2021-08-10T20:42:25Z</time>
      </trkpt>
      <trkpt lat="47.95887" lon="4.19579">
        <ele>296.22</ele>
        <time>2021-08-10T20:42:34Z</time>
      </trkpt>
      <trkpt lat="47.95885" lon="4.19546">
        <ele>297.18</ele>
        <time>2021-08-10T20:42:43Z</time>
      </trkpt>
      <trkpt lat="47.95883" lon="4.19518">
        <ele>298.15</ele>
        <time>2021-08-10T20:42:51Z</time>
      </trkpt>
      <trkpt lat="47.95879" lon="4.19487">
        <ele>299.11</ele>
        <time>2021-08-10T20:43:00Z</time>
      </trkpt>
      <trkpt lat="47.95873" lon="4.19454">
        <ele>300.55</ele>
        <time>2021-08-10T20:43:09Z</time>
      </trkpt>
      <trkpt lat="47.95869" lon="4.1942">
        <ele>301.51</ele>
        <time>2021-08-10T20:43:18Z</time>
      </trkpt>
      <trkpt lat="47.95862" lon="4.19373">
        <ele>301.99</ele>
        <time>2021-08-10T20:43:28Z</time>
      </trkpt>
      <trkpt lat="47.95857" lon="4.19344">
        <ele>302.47</ele>
        <time>2021-08-10T20:43:35Z</time>
      </trkpt>
      <trkpt lat="47.95851" lon="4.19304">
        <ele>302.95</ele>
        <time>2021-08-10T20:43:44Z</time>
      </trkpt>
      <trkpt lat="47.95846" lon="4.19268">
        <ele>302.95</ele>
        <time>2021-08-10T20:43:51Z</time>
      </trkpt>
      <trkpt lat="47.95843" lon="4.19227">
        <ele>302.95</ele>
        <time>2021-08-10T20:43:59Z</time>
      </trkpt>
      <trkpt lat="47.95843" lon="4.1922">
        <ele>302.95</ele>
        <time>2021-08-10T20:44:04Z</time>
      </trkpt>
      <trkpt lat="47.95842" lon="4.19219">
        <ele>302.95</ele>
        <time>2021-08-10T20:44:17Z</time>
      </trkpt>
      <trkpt lat="47.95841" lon="4.19217">
        <ele>302.95</ele>
        <time>2021-08-10T20:44:26Z</time>
      </trkpt>
      <trkpt lat="47.9584" lon="4.19215">
        <ele>302.95</ele>
        <time>2021-08-10T20:44:27Z</time>
      </trkpt>
      <trkpt lat="47.9584" lon="4.19213">
        <ele>302.95</ele>
        <time>2021-08-10T20:44:28Z</time>
      </trkpt>
      <trkpt lat="47.95839" lon="4.19212">
        <ele>302.95</ele>
        <time>2021-08-10T20:44:29Z</time>
      </trkpt>
      <trkpt lat="47.95839" lon="4.19209">
        <ele>302.95</ele>
        <time>2021-08-10T20:44:30Z</time>
      </trkpt>
      <trkpt lat="47.95837" lon="4.19185">
        <ele>302.95</ele>
        <time>2021-08-10T20:44:36Z</time>
      </trkpt>
      <trkpt lat="47.95834" lon="4.19149">
        <ele>301.51</ele>
        <time>2021-08-10T20:44:45Z</time>
      </trkpt>
      <trkpt lat="47.9583" lon="4.19111">
        <ele>300.55</ele>
        <time>2021-08-10T20:44:52Z</time>
      </trkpt>
      <trkpt lat="47.95828" lon="4.19092">
        <ele>299.59</ele>
        <time>2021-08-10T20:44:55Z</time>
      </trkpt>
      <trkpt lat="47.95826" lon="4.19063">
        <ele>299.59</ele>
        <time>2021-08-10T20:45:01Z</time>
      </trkpt>
      <trkpt lat="47.95832" lon="4.19039">
        <ele>299.59</ele>
        <time>2021-08-10T20:45:08Z</time>
      </trkpt>
      <trkpt lat="47.95842" lon="4.1901">
        <ele>301.03</ele>
        <time>2021-08-10T20:45:16Z</time>
      </trkpt>
      <trkpt lat="47.95843" lon="4.19007">
        <ele>301.03</ele>
        <time>2021-08-10T20:45:17Z</time>
      </trkpt>
      <trkpt lat="47.95853" lon="4.18977">
        <ele>301.51</ele>
        <time>2021-08-10T20:45:24Z</time>
      </trkpt>
      <trkpt lat="47.95864" lon="4.18937">
        <ele>302.47</ele>
        <time>2021-08-10T20:45:34Z</time>
      </trkpt>
      <trkpt lat="47.9587" lon="4.18903">
        <ele>303.43</ele>
        <time>2021-08-10T20:45:43Z</time>
      </trkpt>
      <trkpt lat="47.95869" lon="4.1888">
        <ele>303.91</ele>
        <time>2021-08-10T20:45:49Z</time>
      </trkpt>
      <trkpt lat="47.95861" lon="4.18855">
        <ele>304.39</ele>
        <time>2021-08-10T20:45:57Z</time>
      </trkpt>
      <trkpt lat="47.95857" lon="4.18829">
        <ele>304.88</ele>
        <time>2021-08-10T20:46:04Z</time>
      </trkpt>
      <trkpt lat="47.95857" lon="4.18791">
        <ele>305.84</ele>
        <time>2021-08-10T20:46:14Z</time>
      </trkpt>
      <trkpt lat="47.95857" lon="4.18784">
        <ele>305.84</ele>
        <time>2021-08-10T20:46:16Z</time>
      </trkpt>
      <trkpt lat="47.95857" lon="4.18781">
        <ele>306.32</ele>
        <time>2021-08-10T20:46:17Z</time>
      </trkpt>
      <trkpt lat="47.95858" lon="4.18749">
        <ele>307.28</ele>
        <time>2021-08-10T20:46:26Z</time>
      </trkpt>
      <trkpt lat="47.95864" lon="4.18736">
        <ele>307.76</ele>
        <time>2021-08-10T20:46:33Z</time>
      </trkpt>
      <trkpt lat="47.95865" lon="4.18735">
        <ele>307.76</ele>
        <time>2021-08-10T20:46:34Z</time>
      </trkpt>
      <trkpt lat="47.95866" lon="4.18735">
        <ele>308.24</ele>
        <time>2021-08-10T20:46:35Z</time>
      </trkpt>
      <trkpt lat="47.9587" lon="4.18738">
        <ele>308.24</ele>
        <time>2021-08-10T20:46:38Z</time>
      </trkpt>
      <trkpt lat="47.95873" lon="4.18742">
        <ele>308.72</ele>
        <time>2021-08-10T20:46:44Z</time>
      </trkpt>
      <trkpt lat="47.95873" lon="4.1874">
        <ele>308.72</ele>
        <time>2021-08-10T20:46:52Z</time>
      </trkpt>
      <trkpt lat="47.95874" lon="4.18741">
        <ele>309.2</ele>
        <time>2021-08-10T20:47:03Z</time>
      </trkpt>
      <trkpt lat="47.95874" lon="4.1874">
        <ele>309.2</ele>
        <time>2021-08-10T20:47:28Z</time>
      </trkpt>
      <trkpt lat="47.95873" lon="4.18741">
        <ele>309.2</ele>
        <time>2021-08-10T20:47:43Z</time>
      </trkpt>
      <trkpt lat="47.95871" lon="4.18741">
        <ele>309.2</ele>
        <time>2021-08-10T20:48:04Z</time>
      </trkpt>
      <trkpt lat="47.95871" lon="4.18741">
        <ele>309.2</ele>
        <time>2021-08-10T20:48:20Z</time>
      </trkpt>
      <trkpt lat="47.95872" lon="4.18739">
        <ele>309.2</ele>
        <time>2021-08-10T20:48:32Z</time>
      </trkpt>
      <trkpt lat="47.95872" lon="4.1874">
        <ele>309.2</ele>
        <time>2021-08-10T20:48:49Z</time>
      </trkpt>
      <trkpt lat="47.95871" lon="4.18742">
        <ele>309.68</ele>
        <time>2021-08-10T20:49:03Z</time>
      </trkpt>
      <trkpt lat="47.95871" lon="4.18743">
        <ele>309.68</ele>
        <time>2021-08-10T20:49:17Z</time>
      </trkpt>
      <trkpt lat="47.95871" lon="4.18738">
        <ele>309.68</ele>
        <time>2021-08-10T20:49:32Z</time>
      </trkpt>
      <trkpt lat="47.95871" lon="4.18735">
        <ele>309.68</ele>
        <time>2021-08-10T20:49:52Z</time>
      </trkpt>
      <trkpt lat="47.95872" lon="4.1874">
        <ele>309.68</ele>
        <time>2021-08-10T20:49:58Z</time>
      </trkpt>
      <trkpt lat="47.95877" lon="4.18745">
        <ele>310.16</ele>
        <time>2021-08-10T20:50:05Z</time>
      </trkpt>
      <trkpt lat="47.95877" lon="4.18746">
        <ele>310.16</ele>
        <time>2021-08-10T20:50:17Z</time>
      </trkpt>
      <trkpt lat="47.95879" lon="4.18747">
        <ele>310.16</ele>
        <time>2021-08-10T20:50:30Z</time>
      </trkpt>
      <trkpt lat="47.95878" lon="4.18749">
        <ele>310.16</ele>
        <time>2021-08-10T20:50:50Z</time>
      </trkpt>
      <trkpt lat="47.95877" lon="4.18747">
        <ele>310.64</ele>
        <time>2021-08-10T20:51:05Z</time>
      </trkpt>
      <trkpt lat="47.95878" lon="4.1875">
        <ele>310.64</ele>
        <time>2021-08-10T20:51:17Z</time>
      </trkpt>
      <trkpt lat="47.95879" lon="4.18752">
        <ele>310.64</ele>
        <time>2021-08-10T20:51:31Z</time>
      </trkpt>
      <trkpt lat="47.9588" lon="4.18753">
        <ele>310.64</ele>
        <time>2021-08-10T20:51:43Z</time>
      </trkpt>
      <trkpt lat="47.9588" lon="4.18754">
        <ele>310.64</ele>
        <time>2021-08-10T20:51:59Z</time>
      </trkpt>
      <trkpt lat="47.95881" lon="4.18753">
        <ele>311.12</ele>
        <time>2021-08-10T20:52:12Z</time>
      </trkpt>
      <trkpt lat="47.95881" lon="4.18751">
        <ele>311.12</ele>
        <time>2021-08-10T20:52:26Z</time>
      </trkpt>
      <trkpt lat="47.95881" lon="4.18746">
        <ele>311.12</ele>
        <time>2021-08-10T20:52:46Z</time>
      </trkpt>
      <trkpt lat="47.95879" lon="4.18747">
        <ele>311.6</ele>
        <time>2021-08-10T20:53:02Z</time>
      </trkpt>
      <trkpt lat="47.95877" lon="4.18748">
        <ele>311.6</ele>
        <time>2021-08-10T20:53:17Z</time>
      </trkpt>
      <trkpt lat="47.95878" lon="4.18749">
        <ele>311.6</ele>
        <time>2021-08-10T20:53:36Z</time>
      </trkpt>
      <trkpt lat="47.95879" lon="4.1875">
        <ele>311.6</ele>
        <time>2021-08-10T20:53:53Z</time>
      </trkpt>
      <trkpt lat="47.95881" lon="4.1875">
        <ele>312.09</ele>
        <time>2021-08-10T20:54:11Z</time>
      </trkpt>
      <trkpt lat="47.95882" lon="4.18751">
        <ele>312.09</ele>
        <time>2021-08-10T20:54:29Z</time>
      </trkpt>
      <trkpt lat="47.9588" lon="4.18753">
        <ele>312.09</ele>
        <time>2021-08-10T20:54:45Z</time>
      </trkpt>
      <trkpt lat="47.9588" lon="4.18753">
        <ele>312.09</ele>
        <time>2021-08-10T20:55:03Z</time>
      </trkpt>
      <trkpt lat="47.95879" lon="4.1875">
        <ele>312.57</ele>
        <time>2021-08-10T20:55:18Z</time>
      </trkpt>
      <trkpt lat="47.9588" lon="4.1875">
        <ele>312.57</ele>
        <time>2021-08-10T20:55:35Z</time>
      </trkpt>
      <trkpt lat="47.95881" lon="4.18749">
        <ele>312.57</ele>
        <time>2021-08-10T20:55:49Z</time>
      </trkpt>
      <trkpt lat="47.95882" lon="4.1875">
        <ele>312.57</ele>
        <time>2021-08-10T20:56:07Z</time>
      </trkpt>
      <trkpt lat="47.95883" lon="4.18752">
        <ele>312.57</ele>
        <time>2021-08-10T20:56:24Z</time>
      </trkpt>
      <trkpt lat="47.95886" lon="4.18752">
        <ele>313.05</ele>
        <time>2021-08-10T20:56:45Z</time>
      </trkpt>
      <trkpt lat="47.95888" lon="4.18752">
        <ele>313.05</ele>
        <time>2021-08-10T20:56:58Z</time>
      </trkpt>
      <trkpt lat="47.95888" lon="4.18754">
        <ele>313.05</ele>
        <time>2021-08-10T20:57:12Z</time>
      </trkpt>
      <trkpt lat="47.95882" lon="4.18757">
        <ele>313.05</ele>
        <time>2021-08-10T20:57:26Z</time>
      </trkpt>
      <trkpt lat="47.9588" lon="4.18757">
        <ele>313.05</ele>
        <time>2021-08-10T20:57:39Z</time>
      </trkpt>
      <trkpt lat="47.95879" lon="4.18755">
        <ele>313.53</ele>
        <time>2021-08-10T20:57:53Z</time>
      </trkpt>
      <trkpt lat="47.95877" lon="4.18753">
        <ele>313.53</ele>
        <time>2021-08-10T20:58:16Z</time>
      </trkpt>
      <trkpt lat="47.95877" lon="4.18752">
        <ele>313.53</ele>
        <time>2021-08-10T20:58:26Z</time>
      </trkpt>
      <trkpt lat="47.95878" lon="4.18749">
        <ele>313.53</ele>
        <time>2021-08-10T20:58:46Z</time>
      </trkpt>
      <trkpt lat="47.95878" lon="4.18748">
        <ele>313.53</ele>
        <time>2021-08-10T20:58:56Z</time>
      </trkpt>
      <trkpt lat="47.95878" lon="4.18747">
        <ele>314.01</ele>
        <time>2021-08-10T20:59:10Z</time>
      </trkpt>
      <trkpt lat="47.95879" lon="4.18748">
        <ele>314.01</ele>
        <time>2021-08-10T20:59:23Z</time>
      </trkpt>
      <trkpt lat="47.95879" lon="4.1875">
        <ele>314.01</ele>
        <time>2021-08-10T20:59:34Z</time>
      </trkpt>
      <trkpt lat="47.95878" lon="4.18752">
        <ele>314.01</ele>
        <time>2021-08-10T20:59:51Z</time>
      </trkpt>
      <trkpt lat="47.95877" lon="4.18753">
        <ele>314.01</ele>
        <time>2021-08-10T21:00:11Z</time>
      </trkpt>
      <trkpt lat="47.95877" lon="4.18753">
        <ele>314.01</ele>
        <time>2021-08-10T21:00:13Z</time>
      </trkpt>
      <trkpt lat="47.9588" lon="4.18753">
        <ele>314.01</ele>
        <time>2021-08-10T21:00:21Z</time>
      </trkpt>
      <trkpt lat="47.95877" lon="4.18749">
        <ele>314.49</ele>
        <time>2021-08-10T21:00:36Z</time>
      </trkpt>
      <trkpt lat="47.9588" lon="4.18751">
        <ele>314.49</ele>
        <time>2021-08-10T21:00:50Z</time>
      </trkpt>
      <trkpt lat="47.9588" lon="4.18751">
        <ele>314.49</ele>
        <time>2021-08-10T21:01:16Z</time>
      </trkpt>
      <trkpt lat="47.95879" lon="4.1875">
        <ele>314.49</ele>
        <time>2021-08-10T21:01:35Z</time>
      </trkpt>
      <trkpt lat="47.95878" lon="4.18749">
        <ele>314.97</ele>
        <time>2021-08-10T21:01:55Z</time>
      </trkpt>
      <trkpt lat="47.95878" lon="4.18751">
        <ele>314.97</ele>
        <time>2021-08-10T21:02:20Z</time>
      </trkpt>
      <trkpt lat="47.95879" lon="4.18749">
        <ele>314.97</ele>
        <time>2021-08-10T21:02:42Z</time>
      </trkpt>
      <trkpt lat="47.95881" lon="4.18751">
        <ele>314.01</ele>
        <time>2021-08-10T21:03:06Z</time>
      </trkpt>
      <trkpt lat="47.95879" lon="4.18754">
        <ele>315.45</ele>
        <time>2021-08-10T21:03:24Z</time>
      </trkpt>
      <trkpt lat="47.95877" lon="4.18754">
        <ele>314.01</ele>
        <time>2021-08-10T21:03:40Z</time>
      </trkpt>
      <trkpt lat="47.95877" lon="4.1875">
        <ele>315.45</ele>
        <time>2021-08-10T21:03:54Z</time>
      </trkpt>
      <trkpt lat="47.9588" lon="4.18749">
        <ele>315.45</ele>
        <time>2021-08-10T21:04:05Z</time>
      </trkpt>
      <trkpt lat="47.9588" lon="4.18748">
        <ele>315.93</ele>
        <time>2021-08-10T21:04:13Z</time>
      </trkpt>
      <trkpt lat="47.95874" lon="4.18743">
        <ele>315.93</ele>
        <time>2021-08-10T21:04:20Z</time>
      </trkpt>
      <trkpt lat="47.95873" lon="4.18743">
        <ele>315.93</ele>
        <time>2021-08-10T21:04:26Z</time>
      </trkpt>
      <trkpt lat="47.95871" lon="4.18741">
        <ele>315.93</ele>
        <time>2021-08-10T21:04:28Z</time>
      </trkpt>
      <trkpt lat="47.95873" lon="4.1874">
        <ele>315.93</ele>
        <time>2021-08-10T21:04:32Z</time>
      </trkpt>
      <trkpt lat="47.95873" lon="4.1874">
        <ele>315.93</ele>
        <time>2021-08-10T21:04:34Z</time>
      </trkpt>
      <trkpt lat="47.9587" lon="4.18739">
        <ele>315.93</ele>
        <time>2021-08-10T21:04:36Z</time>
      </trkpt>
      <trkpt lat="47.95869" lon="4.18736">
        <ele>315.93</ele>
        <time>2021-08-10T21:04:37Z</time>
      </trkpt>
      <trkpt lat="47.95868" lon="4.18733">
        <ele>315.93</ele>
        <time>2021-08-10T21:04:38Z</time>
      </trkpt>
      <trkpt lat="47.95868" lon="4.18729">
        <ele>315.93</ele>
        <time>2021-08-10T21:04:39Z</time>
      </trkpt>
      <trkpt lat="47.95868" lon="4.18726">
        <ele>315.93</ele>
        <time>2021-08-10T21:04:40Z</time>
      </trkpt>
      <trkpt lat="47.95869" lon="4.18724">
        <ele>315.93</ele>
        <time>2021-08-10T21:04:41Z</time>
      </trkpt>
      <trkpt lat="47.95869" lon="4.18722">
        <ele>315.93</ele>
        <time>2021-08-10T21:04:42Z</time>
      </trkpt>
      <trkpt lat="47.9587" lon="4.1872">
        <ele>315.93</ele>
        <time>2021-08-10T21:04:43Z</time>
      </trkpt>
      <trkpt lat="47.9587" lon="4.18719">
        <ele>315.93</ele>
        <time>2021-08-10T21:04:44Z</time>
      </trkpt>
      <trkpt lat="47.95877" lon="4.18699">
        <ele>316.89</ele>
        <time>2021-08-10T21:04:53Z</time>
      </trkpt>
      <trkpt lat="47.95878" lon="4.18672">
        <ele>318.33</ele>
        <time>2021-08-10T21:05:03Z</time>
      </trkpt>
      <trkpt lat="47.95877" lon="4.18647">
        <ele>319.3</ele>
        <time>2021-08-10T21:05:12Z</time>
      </trkpt>
      <trkpt lat="47.95876" lon="4.18644">
        <ele>319.3</ele>
        <time>2021-08-10T21:05:13Z</time>
      </trkpt>
      <trkpt lat="47.95876" lon="4.18642">
        <ele>319.3</ele>
        <time>2021-08-10T21:05:14Z</time>
      </trkpt>
      <trkpt lat="47.95876" lon="4.18639">
        <ele>319.3</ele>
        <time>2021-08-10T21:05:15Z</time>
      </trkpt>
      <trkpt lat="47.95877" lon="4.18635">
        <ele>320.26</ele>
        <time>2021-08-10T21:05:16Z</time>
      </trkpt>
      <trkpt lat="47.95877" lon="4.18632">
        <ele>320.26</ele>
        <time>2021-08-10T21:05:17Z</time>
      </trkpt>
      <trkpt lat="47.9588" lon="4.18605">
        <ele>321.22</ele>
        <time>2021-08-10T21:05:26Z</time>
      </trkpt>
      <trkpt lat="47.95886" lon="4.1858">
        <ele>322.18</ele>
        <time>2021-08-10T21:05:35Z</time>
      </trkpt>
      <trkpt lat="47.9589" lon="4.18553">
        <ele>323.14</ele>
        <time>2021-08-10T21:05:44Z</time>
      </trkpt>
      <trkpt lat="47.95889" lon="4.18523">
        <ele>324.1</ele>
        <time>2021-08-10T21:05:52Z</time>
      </trkpt>
      <trkpt lat="47.95882" lon="4.18493">
        <ele>324.58</ele>
        <time>2021-08-10T21:06:00Z</time>
      </trkpt>
      <trkpt lat="47.95881" lon="4.1849">
        <ele>325.06</ele>
        <time>2021-08-10T21:06:05Z</time>
      </trkpt>
      <trkpt lat="47.95881" lon="4.18492">
        <ele>325.06</ele>
        <time>2021-08-10T21:06:22Z</time>
      </trkpt>
      <trkpt lat="47.95881" lon="4.18492">
        <ele>325.06</ele>
        <time>2021-08-10T21:06:37Z</time>
      </trkpt>
      <trkpt lat="47.95881" lon="4.18491">
        <ele>325.06</ele>
        <time>2021-08-10T21:06:49Z</time>
      </trkpt>
      <trkpt lat="47.95879" lon="4.18491">
        <ele>325.06</ele>
        <time>2021-08-10T21:07:13Z</time>
      </trkpt>
      <trkpt lat="47.9588" lon="4.18492">
        <ele>325.06</ele>
        <time>2021-08-10T21:07:31Z</time>
      </trkpt>
      <trkpt lat="47.95878" lon="4.1849">
        <ele>325.06</ele>
        <time>2021-08-10T21:07:44Z</time>
      </trkpt>
      <trkpt lat="47.95877" lon="4.18487">
        <ele>325.06</ele>
        <time>2021-08-10T21:07:45Z</time>
      </trkpt>
      <trkpt lat="47.95876" lon="4.18484">
        <ele>325.06</ele>
        <time>2021-08-10T21:07:46Z</time>
      </trkpt>
      <trkpt lat="47.9587" lon="4.18454">
        <ele>325.06</ele>
        <time>2021-08-10T21:07:53Z</time>
      </trkpt>
      <trkpt lat="47.95869" lon="4.18429">
        <ele>325.06</ele>
        <time>2021-08-10T21:08:00Z</time>
      </trkpt>
      <trkpt lat="47.95871" lon="4.1841">
        <ele>325.06</ele>
        <time>2021-08-10T21:08:06Z</time>
      </trkpt>
      <trkpt lat="47.95869" lon="4.1841">
        <ele>325.06</ele>
        <time>2021-08-10T21:08:07Z</time>
      </trkpt>
      <trkpt lat="47.95867" lon="4.18411">
        <ele>325.06</ele>
        <time>2021-08-10T21:08:08Z</time>
      </trkpt>
      <trkpt lat="47.95864" lon="4.18412">
        <ele>325.06</ele>
        <time>2021-08-10T21:08:09Z</time>
      </trkpt>
      <trkpt lat="47.95862" lon="4.18412">
        <ele>325.06</ele>
        <time>2021-08-10T21:08:10Z</time>
      </trkpt>
      <trkpt lat="47.95852" lon="4.18402">
        <ele>325.06</ele>
        <time>2021-08-10T21:08:15Z</time>
      </trkpt>
      <trkpt lat="47.95838" lon="4.18371">
        <ele>325.06</ele>
        <time>2021-08-10T21:08:22Z</time>
      </trkpt>
      <trkpt lat="47.95816" lon="4.18329">
        <ele>324.58</ele>
        <time>2021-08-10T21:08:30Z</time>
      </trkpt>
      <trkpt lat="47.95809" lon="4.18311">
        <ele>324.58</ele>
        <time>2021-08-10T21:08:33Z</time>
      </trkpt>
      <trkpt lat="47.95805" lon="4.18305">
        <ele>324.58</ele>
        <time>2021-08-10T21:08:34Z</time>
      </trkpt>
      <trkpt lat="47.9578" lon="4.18259">
        <ele>324.58</ele>
        <time>2021-08-10T21:08:42Z</time>
      </trkpt>
      <trkpt lat="47.95752" lon="4.18204">
        <ele>324.1</ele>
        <time>2021-08-10T21:08:51Z</time>
      </trkpt>
      <trkpt lat="47.95734" lon="4.18138">
        <ele>323.14</ele>
        <time>2021-08-10T21:09:01Z</time>
      </trkpt>
      <trkpt lat="47.95724" lon="4.18053">
        <ele>322.66</ele>
        <time>2021-08-10T21:09:13Z</time>
      </trkpt>
      <trkpt lat="47.95722" lon="4.17984">
        <ele>321.22</ele>
        <time>2021-08-10T21:09:21Z</time>
      </trkpt>
      <trkpt lat="47.95734" lon="4.17884">
        <ele>319.3</ele>
        <time>2021-08-10T21:09:31Z</time>
      </trkpt>
      <trkpt lat="47.95754" lon="4.17744">
        <ele>318.81</ele>
        <time>2021-08-10T21:09:45Z</time>
      </trkpt>
      <trkpt lat="47.95761" lon="4.17706">
        <ele>318.81</ele>
        <time>2021-08-10T21:09:49Z</time>
      </trkpt>
      <trkpt lat="47.95764" lon="4.17697">
        <ele>318.81</ele>
        <time>2021-08-10T21:09:50Z</time>
      </trkpt>
      <trkpt lat="47.95796" lon="4.17619">
        <ele>318.33</ele>
        <time>2021-08-10T21:10:00Z</time>
      </trkpt>
      <trkpt lat="47.95831" lon="4.17545">
        <ele>317.37</ele>
        <time>2021-08-10T21:10:10Z</time>
      </trkpt>
      <trkpt lat="47.9587" lon="4.17461">
        <ele>315.93</ele>
        <time>2021-08-10T21:10:20Z</time>
      </trkpt>
      <trkpt lat="47.95918" lon="4.17361">
        <ele>314.97</ele>
        <time>2021-08-10T21:10:32Z</time>
      </trkpt>
      <trkpt lat="47.95941" lon="4.1729">
        <ele>314.01</ele>
        <time>2021-08-10T21:10:40Z</time>
      </trkpt>
      <trkpt lat="47.95952" lon="4.17212">
        <ele>314.01</ele>
        <time>2021-08-10T21:10:48Z</time>
      </trkpt>
      <trkpt lat="47.95964" lon="4.17125">
        <ele>313.53</ele>
        <time>2021-08-10T21:10:57Z</time>
      </trkpt>
      <trkpt lat="47.95979" lon="4.17016">
        <ele>311.6</ele>
        <time>2021-08-10T21:11:08Z</time>
      </trkpt>
      <trkpt lat="47.95992" lon="4.16914">
        <ele>309.2</ele>
        <time>2021-08-10T21:11:18Z</time>
      </trkpt>
      <trkpt lat="47.96008" lon="4.16803">
        <ele>306.32</ele>
        <time>2021-08-10T21:11:28Z</time>
      </trkpt>
      <trkpt lat="47.96014" lon="4.16701">
        <ele>304.88</ele>
        <time>2021-08-10T21:11:37Z</time>
      </trkpt>
      <trkpt lat="47.96004" lon="4.16613">
        <ele>304.39</ele>
        <time>2021-08-10T21:11:45Z</time>
      </trkpt>
      <trkpt lat="47.96001" lon="4.16534">
        <ele>304.39</ele>
        <time>2021-08-10T21:11:53Z</time>
      </trkpt>
      <trkpt lat="47.96006" lon="4.16468">
        <ele>305.84</ele>
        <time>2021-08-10T21:12:01Z</time>
      </trkpt>
      <trkpt lat="47.96007" lon="4.16453">
        <ele>306.32</ele>
        <time>2021-08-10T21:12:03Z</time>
      </trkpt>
      <trkpt lat="47.96015" lon="4.1639">
        <ele>307.76</ele>
        <time>2021-08-10T21:12:12Z</time>
      </trkpt>
      <trkpt lat="47.96021" lon="4.16335">
        <ele>308.24</ele>
        <time>2021-08-10T21:12:21Z</time>
      </trkpt>
      <trkpt lat="47.96027" lon="4.1628">
        <ele>309.68</ele>
        <time>2021-08-10T21:12:31Z</time>
      </trkpt>
      <trkpt lat="47.96032" lon="4.16235">
        <ele>309.68</ele>
        <time>2021-08-10T21:12:39Z</time>
      </trkpt>
      <trkpt lat="47.96038" lon="4.16188">
        <ele>310.16</ele>
        <time>2021-08-10T21:12:47Z</time>
      </trkpt>
      <trkpt lat="47.96038" lon="4.16182">
        <ele>310.16</ele>
        <time>2021-08-10T21:12:48Z</time>
      </trkpt>
      <trkpt lat="47.96043" lon="4.16121">
        <ele>309.2</ele>
        <time>2021-08-10T21:12:57Z</time>
      </trkpt>
      <trkpt lat="47.96044" lon="4.16106">
        <ele>309.2</ele>
        <time>2021-08-10T21:12:59Z</time>
      </trkpt>
      <trkpt lat="47.96045" lon="4.16042">
        <ele>306.8</ele>
        <time>2021-08-10T21:13:06Z</time>
      </trkpt>
      <trkpt lat="47.96044" lon="4.15999">
        <ele>305.36</ele>
        <time>2021-08-10T21:13:10Z</time>
      </trkpt>
      <trkpt lat="47.96044" lon="4.15964">
        <ele>303.91</ele>
        <time>2021-08-10T21:13:13Z</time>
      </trkpt>
      <trkpt lat="47.96045" lon="4.15952">
        <ele>303.43</ele>
        <time>2021-08-10T21:13:14Z</time>
      </trkpt>
      <trkpt lat="47.96061" lon="4.15867">
        <ele>301.51</ele>
        <time>2021-08-10T21:13:21Z</time>
      </trkpt>
      <trkpt lat="47.96066" lon="4.15816">
        <ele>300.55</ele>
        <time>2021-08-10T21:13:25Z</time>
      </trkpt>
      <trkpt lat="47.96066" lon="4.15805">
        <ele>301.03</ele>
        <time>2021-08-10T21:13:26Z</time>
      </trkpt>
      <trkpt lat="47.96065" lon="4.15793">
        <ele>301.03</ele>
        <time>2021-08-10T21:13:27Z</time>
      </trkpt>
      <trkpt lat="47.96059" lon="4.15724">
        <ele>302.47</ele>
        <time>2021-08-10T21:13:34Z</time>
      </trkpt>
      <trkpt lat="47.96059" lon="4.15717">
        <ele>302.47</ele>
        <time>2021-08-10T21:13:35Z</time>
      </trkpt>
      <trkpt lat="47.96054" lon="4.15668">
        <ele>303.43</ele>
        <time>2021-08-10T21:13:42Z</time>
      </trkpt>
      <trkpt lat="47.9605" lon="4.15628">
        <ele>304.88</ele>
        <time>2021-08-10T21:13:49Z</time>
      </trkpt>
      <trkpt lat="47.96047" lon="4.15578">
        <ele>306.32</ele>
        <time>2021-08-10T21:13:58Z</time>
      </trkpt>
      <trkpt lat="47.96043" lon="4.15537">
        <ele>307.76</ele>
        <time>2021-08-10T21:14:06Z</time>
      </trkpt>
      <trkpt lat="47.96042" lon="4.15482">
        <ele>308.72</ele>
        <time>2021-08-10T21:14:16Z</time>
      </trkpt>
      <trkpt lat="47.96046" lon="4.15428">
        <ele>309.2</ele>
        <time>2021-08-10T21:14:26Z</time>
      </trkpt>
      <trkpt lat="47.96051" lon="4.15368">
        <ele>309.2</ele>
        <time>2021-08-10T21:14:35Z</time>
      </trkpt>
      <trkpt lat="47.96052" lon="4.15353">
        <ele>308.24</ele>
        <time>2021-08-10T21:14:37Z</time>
      </trkpt>
      <trkpt lat="47.96058" lon="4.15274">
        <ele>305.36</ele>
        <time>2021-08-10T21:14:46Z</time>
      </trkpt>
      <trkpt lat="47.96063" lon="4.15207">
        <ele>303.43</ele>
        <time>2021-08-10T21:14:52Z</time>
      </trkpt>
      <trkpt lat="47.96063" lon="4.1514">
        <ele>300.07</ele>
        <time>2021-08-10T21:14:57Z</time>
      </trkpt>
      <trkpt lat="47.9606" lon="4.15084">
        <ele>298.15</ele>
        <time>2021-08-10T21:15:01Z</time>
      </trkpt>
      <trkpt lat="47.96055" lon="4.15008">
        <ele>294.78</ele>
        <time>2021-08-10T21:15:06Z</time>
      </trkpt>
      <trkpt lat="47.96053" lon="4.14971">
        <ele>295.26</ele>
        <time>2021-08-10T21:15:09Z</time>
      </trkpt>
      <trkpt lat="47.96051" lon="4.14966">
        <ele>296.7</ele>
        <time>2021-08-10T21:15:10Z</time>
      </trkpt>
      <trkpt lat="47.96049" lon="4.14965">
        <ele>296.7</ele>
        <time>2021-08-10T21:15:11Z</time>
      </trkpt>
      <trkpt lat="47.96046" lon="4.14964">
        <ele>296.7</ele>
        <time>2021-08-10T21:15:12Z</time>
      </trkpt>
      <trkpt lat="47.96042" lon="4.14963">
        <ele>296.7</ele>
        <time>2021-08-10T21:15:13Z</time>
      </trkpt>
      <trkpt lat="47.96039" lon="4.14959">
        <ele>294.78</ele>
        <time>2021-08-10T21:15:14Z</time>
      </trkpt>
      <trkpt lat="47.96036" lon="4.14954">
        <ele>294.78</ele>
        <time>2021-08-10T21:15:15Z</time>
      </trkpt>
      <trkpt lat="47.96011" lon="4.14901">
        <ele>292.38</ele>
        <time>2021-08-10T21:15:22Z</time>
      </trkpt>
      <trkpt lat="47.95972" lon="4.14816">
        <ele>289.49</ele>
        <time>2021-08-10T21:15:31Z</time>
      </trkpt>
      <trkpt lat="47.95932" lon="4.14719">
        <ele>287.57</ele>
        <time>2021-08-10T21:15:41Z</time>
      </trkpt>
      <trkpt lat="47.95888" lon="4.14628">
        <ele>285.65</ele>
        <time>2021-08-10T21:15:51Z</time>
      </trkpt>
      <trkpt lat="47.95854" lon="4.14567">
        <ele>284.21</ele>
        <time>2021-08-10T21:15:58Z</time>
      </trkpt>
      <trkpt lat="47.95851" lon="4.14557">
        <ele>284.21</ele>
        <time>2021-08-10T21:15:59Z</time>
      </trkpt>
      <trkpt lat="47.95848" lon="4.14548">
        <ele>284.21</ele>
        <time>2021-08-10T21:16:00Z</time>
      </trkpt>
      <trkpt lat="47.95839" lon="4.14486">
        <ele>285.65</ele>
        <time>2021-08-10T21:16:07Z</time>
      </trkpt>
      <trkpt lat="47.95831" lon="4.14438">
        <ele>286.13</ele>
        <time>2021-08-10T21:16:14Z</time>
      </trkpt>
      <trkpt lat="47.95812" lon="4.1438">
        <ele>286.13</ele>
        <time>2021-08-10T21:16:22Z</time>
      </trkpt>
      <trkpt lat="47.95802" lon="4.14356">
        <ele>284.69</ele>
        <time>2021-08-10T21:16:25Z</time>
      </trkpt>
      <trkpt lat="47.95776" lon="4.14292">
        <ele>281.8</ele>
        <time>2021-08-10T21:16:32Z</time>
      </trkpt>
      <trkpt lat="47.95753" lon="4.14218">
        <ele>278.44</ele>
        <time>2021-08-10T21:16:39Z</time>
      </trkpt>
      <trkpt lat="47.9574" lon="4.14164">
        <ele>274.59</ele>
        <time>2021-08-10T21:16:44Z</time>
      </trkpt>
      <trkpt lat="47.95729" lon="4.14125">
        <ele>271.71</ele>
        <time>2021-08-10T21:16:48Z</time>
      </trkpt>
      <trkpt lat="47.95714" lon="4.14085">
        <ele>268.35</ele>
        <time>2021-08-10T21:16:53Z</time>
      </trkpt>
      <trkpt lat="47.95711" lon="4.14078">
        <ele>267.86</ele>
        <time>2021-08-10T21:16:54Z</time>
      </trkpt>
      <trkpt lat="47.95708" lon="4.14072">
        <ele>266.9</ele>
        <time>2021-08-10T21:16:55Z</time>
      </trkpt>
      <trkpt lat="47.95704" lon="4.14066">
        <ele>266.42</ele>
        <time>2021-08-10T21:16:56Z</time>
      </trkpt>
      <trkpt lat="47.957" lon="4.1406">
        <ele>265.46</ele>
        <time>2021-08-10T21:16:57Z</time>
      </trkpt>
      <trkpt lat="47.95696" lon="4.14055">
        <ele>264.98</ele>
        <time>2021-08-10T21:16:58Z</time>
      </trkpt>
      <trkpt lat="47.95683" lon="4.1404">
        <ele>261.62</ele>
        <time>2021-08-10T21:17:02Z</time>
      </trkpt>
      <trkpt lat="47.95678" lon="4.14036">
        <ele>260.65</ele>
        <time>2021-08-10T21:17:07Z</time>
      </trkpt>
      <trkpt lat="47.9568" lon="4.14039">
        <ele>260.65</ele>
        <time>2021-08-10T21:17:11Z</time>
      </trkpt>
      <trkpt lat="47.95686" lon="4.14043">
        <ele>262.1</ele>
        <time>2021-08-10T21:17:17Z</time>
      </trkpt>
      <trkpt lat="47.95693" lon="4.1405">
        <ele>263.54</ele>
        <time>2021-08-10T21:17:27Z</time>
      </trkpt>
      <trkpt lat="47.95694" lon="4.14049">
        <ele>263.54</ele>
        <time>2021-08-10T21:17:28Z</time>
      </trkpt>
      <trkpt lat="47.95694" lon="4.14048">
        <ele>263.54</ele>
        <time>2021-08-10T21:17:29Z</time>
      </trkpt>
      <trkpt lat="47.95698" lon="4.1404">
        <ele>264.5</ele>
        <time>2021-08-10T21:17:37Z</time>
      </trkpt>
      <trkpt lat="47.95697" lon="4.14039">
        <ele>264.5</ele>
        <time>2021-08-10T21:17:43Z</time>
      </trkpt>
      <trkpt lat="47.95697" lon="4.14037">
        <ele>264.5</ele>
        <time>2021-08-10T21:17:44Z</time>
      </trkpt>
      <trkpt lat="47.95696" lon="4.14035">
        <ele>264.5</ele>
        <time>2021-08-10T21:17:45Z</time>
      </trkpt>
      <trkpt lat="47.95688" lon="4.14014">
        <ele>263.06</ele>
        <time>2021-08-10T21:17:52Z</time>
      </trkpt>
      <trkpt lat="47.95678" lon="4.13986">
        <ele>260.65</ele>
        <time>2021-08-10T21:18:00Z</time>
      </trkpt>
      <trkpt lat="47.95675" lon="4.13976">
        <ele>259.69</ele>
        <time>2021-08-10T21:18:02Z</time>
      </trkpt>
      <trkpt lat="47.9567" lon="4.13937">
        <ele>257.29</ele>
        <time>2021-08-10T21:18:09Z</time>
      </trkpt>
      <trkpt lat="47.95663" lon="4.13912">
        <ele>254.89</ele>
        <time>2021-08-10T21:18:15Z</time>
      </trkpt>
      <trkpt lat="47.95657" lon="4.13889">
        <ele>252.48</ele>
        <time>2021-08-10T21:18:21Z</time>
      </trkpt>
      <trkpt lat="47.95663" lon="4.13856">
        <ele>248.64</ele>
        <time>2021-08-10T21:18:27Z</time>
      </trkpt>
      <trkpt lat="47.95665" lon="4.13846">
        <ele>247.68</ele>
        <time>2021-08-10T21:18:29Z</time>
      </trkpt>
      <trkpt lat="47.95665" lon="4.13832">
        <ele>245.75</ele>
        <time>2021-08-10T21:18:31Z</time>
      </trkpt>
      <trkpt lat="47.95666" lon="4.13817">
        <ele>244.31</ele>
        <time>2021-08-10T21:18:33Z</time>
      </trkpt>
      <trkpt lat="47.95668" lon="4.13771">
        <ele>239.51</ele>
        <time>2021-08-10T21:18:39Z</time>
      </trkpt>
      <trkpt lat="47.95666" lon="4.1374">
        <ele>237.1</ele>
        <time>2021-08-10T21:18:44Z</time>
      </trkpt>
      <trkpt lat="47.95655" lon="4.13715">
        <ele>233.74</ele>
        <time>2021-08-10T21:18:49Z</time>
      </trkpt>
      <trkpt lat="47.95642" lon="4.13692">
        <ele>230.37</ele>
        <time>2021-08-10T21:18:54Z</time>
      </trkpt>
      <trkpt lat="47.95634" lon="4.1368">
        <ele>228.93</ele>
        <time>2021-08-10T21:18:57Z</time>
      </trkpt>
      <trkpt lat="47.9562" lon="4.13654">
        <ele>226.05</ele>
        <time>2021-08-10T21:19:03Z</time>
      </trkpt>
      <trkpt lat="47.95618" lon="4.1365">
        <ele>226.05</ele>
        <time>2021-08-10T21:19:04Z</time>
      </trkpt>
      <trkpt lat="47.95617" lon="4.13643">
        <ele>225.09</ele>
        <time>2021-08-10T21:19:05Z</time>
      </trkpt>
      <trkpt lat="47.95615" lon="4.13589">
        <ele>222.2</ele>
        <time>2021-08-10T21:19:13Z</time>
      </trkpt>
      <trkpt lat="47.95624" lon="4.1354">
        <ele>221.24</ele>
        <time>2021-08-10T21:19:20Z</time>
      </trkpt>
      <trkpt lat="47.95639" lon="4.13484">
        <ele>220.28</ele>
        <time>2021-08-10T21:19:29Z</time>
      </trkpt>
      <trkpt lat="47.9564" lon="4.13478">
        <ele>220.28</ele>
        <time>2021-08-10T21:19:30Z</time>
      </trkpt>
      <trkpt lat="47.9564" lon="4.13472">
        <ele>220.28</ele>
        <time>2021-08-10T21:19:31Z</time>
      </trkpt>
      <trkpt lat="47.95639" lon="4.13467">
        <ele>220.28</ele>
        <time>2021-08-10T21:19:32Z</time>
      </trkpt>
      <trkpt lat="47.95636" lon="4.13462">
        <ele>219.8</ele>
        <time>2021-08-10T21:19:33Z</time>
      </trkpt>
      <trkpt lat="47.95632" lon="4.13458">
        <ele>219.32</ele>
        <time>2021-08-10T21:19:34Z</time>
      </trkpt>
      <trkpt lat="47.95627" lon="4.13453">
        <ele>218.36</ele>
        <time>2021-08-10T21:19:35Z</time>
      </trkpt>
      <trkpt lat="47.95621" lon="4.13448">
        <ele>218.36</ele>
        <time>2021-08-10T21:19:36Z</time>
      </trkpt>
      <trkpt lat="47.95596" lon="4.13426">
        <ele>215.95</ele>
        <time>2021-08-10T21:19:40Z</time>
      </trkpt>
      <trkpt lat="47.95567" lon="4.13409">
        <ele>214.51</ele>
        <time>2021-08-10T21:19:45Z</time>
      </trkpt>
      <trkpt lat="47.95564" lon="4.13406">
        <ele>214.51</ele>
        <time>2021-08-10T21:19:46Z</time>
      </trkpt>
      <trkpt lat="47.95562" lon="4.13401">
        <ele>214.51</ele>
        <time>2021-08-10T21:19:47Z</time>
      </trkpt>
      <trkpt lat="47.95562" lon="4.13396">
        <ele>214.51</ele>
        <time>2021-08-10T21:19:48Z</time>
      </trkpt>
      <trkpt lat="47.95562" lon="4.13391">
        <ele>214.51</ele>
        <time>2021-08-10T21:19:49Z</time>
      </trkpt>
      <trkpt lat="47.95564" lon="4.13386">
        <ele>214.51</ele>
        <time>2021-08-10T21:19:50Z</time>
      </trkpt>
      <trkpt lat="47.9558" lon="4.1333">
        <ele>214.03</ele>
        <time>2021-08-10T21:19:59Z</time>
      </trkpt>
      <trkpt lat="47.95582" lon="4.13324">
        <ele>214.03</ele>
        <time>2021-08-10T21:20:00Z</time>
      </trkpt>
      <trkpt lat="47.95602" lon="4.13287">
        <ele>214.03</ele>
        <time>2021-08-10T21:20:06Z</time>
      </trkpt>
      <trkpt lat="47.95606" lon="4.13282">
        <ele>214.03</ele>
        <time>2021-08-10T21:20:07Z</time>
      </trkpt>
      <trkpt lat="47.9561" lon="4.13277">
        <ele>214.03</ele>
        <time>2021-08-10T21:20:08Z</time>
      </trkpt>
      <trkpt lat="47.95614" lon="4.13274">
        <ele>214.03</ele>
        <time>2021-08-10T21:20:09Z</time>
      </trkpt>
      <trkpt lat="47.95619" lon="4.13272">
        <ele>214.03</ele>
        <time>2021-08-10T21:20:10Z</time>
      </trkpt>
      <trkpt lat="47.95624" lon="4.1327">
        <ele>214.03</ele>
        <time>2021-08-10T21:20:11Z</time>
      </trkpt>
      <trkpt lat="47.95629" lon="4.13268">
        <ele>214.03</ele>
        <time>2021-08-10T21:20:12Z</time>
      </trkpt>
      <trkpt lat="47.95634" lon="4.13265">
        <ele>214.03</ele>
        <time>2021-08-10T21:20:13Z</time>
      </trkpt>
      <trkpt lat="47.95638" lon="4.13261">
        <ele>214.03</ele>
        <time>2021-08-10T21:20:14Z</time>
      </trkpt>
      <trkpt lat="47.95642" lon="4.13256">
        <ele>214.03</ele>
        <time>2021-08-10T21:20:15Z</time>
      </trkpt>
      <trkpt lat="47.95646" lon="4.1325">
        <ele>214.03</ele>
        <time>2021-08-10T21:20:16Z</time>
      </trkpt>
      <trkpt lat="47.9565" lon="4.13245">
        <ele>214.03</ele>
        <time>2021-08-10T21:20:17Z</time>
      </trkpt>
      <trkpt lat="47.95653" lon="4.13239">
        <ele>214.03</ele>
        <time>2021-08-10T21:20:18Z</time>
      </trkpt>
      <trkpt lat="47.95678" lon="4.13184">
        <ele>213.55</ele>
        <time>2021-08-10T21:20:26Z</time>
      </trkpt>
      <trkpt lat="47.95706" lon="4.13113">
        <ele>212.11</ele>
        <time>2021-08-10T21:20:35Z</time>
      </trkpt>
      <trkpt lat="47.95716" lon="4.13093">
        <ele>212.11</ele>
        <time>2021-08-10T21:20:38Z</time>
      </trkpt>
      <trkpt lat="47.9572" lon="4.13087">
        <ele>212.11</ele>
        <time>2021-08-10T21:20:39Z</time>
      </trkpt>
      <trkpt lat="47.95743" lon="4.13063">
        <ele>212.11</ele>
        <time>2021-08-10T21:20:44Z</time>
      </trkpt>
      <trkpt lat="47.95782" lon="4.13008">
        <ele>212.11</ele>
        <time>2021-08-10T21:20:54Z</time>
      </trkpt>
      <trkpt lat="47.95789" lon="4.12997">
        <ele>213.55</ele>
        <time>2021-08-10T21:20:56Z</time>
      </trkpt>
      <trkpt lat="47.9581" lon="4.1295">
        <ele>214.03</ele>
        <time>2021-08-10T21:21:04Z</time>
      </trkpt>
      <trkpt lat="47.95816" lon="4.12931">
        <ele>214.51</ele>
        <time>2021-08-10T21:21:07Z</time>
      </trkpt>
      <trkpt lat="47.95835" lon="4.1287">
        <ele>214.99</ele>
        <time>2021-08-10T21:21:17Z</time>
      </trkpt>
      <trkpt lat="47.9584" lon="4.12841">
        <ele>214.99</ele>
        <time>2021-08-10T21:21:22Z</time>
      </trkpt>
      <trkpt lat="47.95838" lon="4.12836">
        <ele>214.99</ele>
        <time>2021-08-10T21:21:23Z</time>
      </trkpt>
      <trkpt lat="47.95834" lon="4.12832">
        <ele>214.99</ele>
        <time>2021-08-10T21:21:24Z</time>
      </trkpt>
      <trkpt lat="47.95813" lon="4.1281">
        <ele>211.15</ele>
        <time>2021-08-10T21:21:28Z</time>
      </trkpt>
      <trkpt lat="47.95787" lon="4.12783">
        <ele>211.15</ele>
        <time>2021-08-10T21:21:33Z</time>
      </trkpt>
      <trkpt lat="47.95783" lon="4.12777">
        <ele>211.15</ele>
        <time>2021-08-10T21:21:34Z</time>
      </trkpt>
      <trkpt lat="47.9578" lon="4.12769">
        <ele>211.15</ele>
        <time>2021-08-10T21:21:35Z</time>
      </trkpt>
      <trkpt lat="47.95777" lon="4.12761">
        <ele>211.15</ele>
        <time>2021-08-10T21:21:36Z</time>
      </trkpt>
      <trkpt lat="47.95776" lon="4.12754">
        <ele>211.15</ele>
        <time>2021-08-10T21:21:37Z</time>
      </trkpt>
      <trkpt lat="47.9576" lon="4.12695">
        <ele>211.15</ele>
        <time>2021-08-10T21:21:45Z</time>
      </trkpt>
      <trkpt lat="47.95752" lon="4.12675">
        <ele>211.15</ele>
        <time>2021-08-10T21:21:48Z</time>
      </trkpt>
      <trkpt lat="47.95742" lon="4.1262">
        <ele>211.63</ele>
        <time>2021-08-10T21:21:56Z</time>
      </trkpt>
      <trkpt lat="47.95741" lon="4.12599">
        <ele>212.59</ele>
        <time>2021-08-10T21:22:00Z</time>
      </trkpt>
      <trkpt lat="47.95737" lon="4.12574">
        <ele>214.03</ele>
        <time>2021-08-10T21:22:07Z</time>
      </trkpt>
      <trkpt lat="47.95736" lon="4.12554">
        <ele>214.99</ele>
        <time>2021-08-10T21:22:15Z</time>
      </trkpt>
      <trkpt lat="47.95735" lon="4.12538">
        <ele>215.95</ele>
        <time>2021-08-10T21:22:23Z</time>
      </trkpt>
      <trkpt lat="47.95734" lon="4.1252">
        <ele>217.4</ele>
        <time>2021-08-10T21:22:32Z</time>
      </trkpt>
      <trkpt lat="47.95733" lon="4.1251">
        <ele>217.88</ele>
        <time>2021-08-10T21:22:37Z</time>
      </trkpt>
      <trkpt lat="47.95733" lon="4.12508">
        <ele>218.36</ele>
        <time>2021-08-10T21:22:38Z</time>
      </trkpt>
      <trkpt lat="47.95733" lon="4.12506">
        <ele>218.36</ele>
        <time>2021-08-10T21:22:39Z</time>
      </trkpt>
      <trkpt lat="47.95732" lon="4.12491">
        <ele>219.32</ele>
        <time>2021-08-10T21:22:47Z</time>
      </trkpt>
      <trkpt lat="47.95731" lon="4.12479">
        <ele>220.28</ele>
        <time>2021-08-10T21:22:55Z</time>
      </trkpt>
      <trkpt lat="47.9573" lon="4.12465">
        <ele>221.72</ele>
        <time>2021-08-10T21:23:04Z</time>
      </trkpt>
      <trkpt lat="47.95729" lon="4.12448">
        <ele>222.68</ele>
        <time>2021-08-10T21:23:14Z</time>
      </trkpt>
      <trkpt lat="47.95729" lon="4.12432">
        <ele>224.12</ele>
        <time>2021-08-10T21:23:24Z</time>
      </trkpt>
      <trkpt lat="47.9573" lon="4.12416">
        <ele>225.57</ele>
        <time>2021-08-10T21:23:35Z</time>
      </trkpt>
      <trkpt lat="47.95731" lon="4.12401">
        <ele>227.01</ele>
        <time>2021-08-10T21:23:46Z</time>
      </trkpt>
      <trkpt lat="47.95731" lon="4.12395">
        <ele>227.49</ele>
        <time>2021-08-10T21:23:51Z</time>
      </trkpt>
      <trkpt lat="47.95732" lon="4.12384">
        <ele>228.93</ele>
        <time>2021-08-10T21:23:59Z</time>
      </trkpt>
      <trkpt lat="47.95733" lon="4.12372">
        <ele>229.89</ele>
        <time>2021-08-10T21:24:09Z</time>
      </trkpt>
      <trkpt lat="47.95732" lon="4.12362">
        <ele>231.33</ele>
        <time>2021-08-10T21:24:18Z</time>
      </trkpt>
      <trkpt lat="47.95732" lon="4.12353">
        <ele>232.3</ele>
        <time>2021-08-10T21:24:26Z</time>
      </trkpt>
      <trkpt lat="47.95731" lon="4.12339">
        <ele>234.22</ele>
        <time>2021-08-10T21:24:38Z</time>
      </trkpt>
      <trkpt lat="47.9573" lon="4.12328">
        <ele>235.18</ele>
        <time>2021-08-10T21:24:47Z</time>
      </trkpt>
      <trkpt lat="47.9573" lon="4.1232">
        <ele>236.14</ele>
        <time>2021-08-10T21:24:54Z</time>
      </trkpt>
      <trkpt lat="47.95729" lon="4.12311">
        <ele>237.58</ele>
        <time>2021-08-10T21:25:02Z</time>
      </trkpt>
      <trkpt lat="47.95729" lon="4.12303">
        <ele>238.54</ele>
        <time>2021-08-10T21:25:09Z</time>
      </trkpt>
      <trkpt lat="47.95729" lon="4.1229">
        <ele>239.99</ele>
        <time>2021-08-10T21:25:19Z</time>
      </trkpt>
      <trkpt lat="47.9573" lon="4.12279">
        <ele>241.43</ele>
        <time>2021-08-10T21:25:28Z</time>
      </trkpt>
      <trkpt lat="47.9573" lon="4.12262">
        <ele>242.87</ele>
        <time>2021-08-10T21:25:40Z</time>
      </trkpt>
      <trkpt lat="47.95729" lon="4.12255">
        <ele>243.83</ele>
        <time>2021-08-10T21:25:48Z</time>
      </trkpt>
      <trkpt lat="47.9573" lon="4.12254">
        <ele>243.83</ele>
        <time>2021-08-10T21:26:07Z</time>
      </trkpt>
      <trkpt lat="47.95729" lon="4.12254">
        <ele>243.83</ele>
        <time>2021-08-10T21:26:19Z</time>
      </trkpt>
      <trkpt lat="47.95728" lon="4.12238">
        <ele>245.27</ele>
        <time>2021-08-10T21:26:29Z</time>
      </trkpt>
      <trkpt lat="47.95727" lon="4.12221">
        <ele>246.72</ele>
        <time>2021-08-10T21:26:40Z</time>
      </trkpt>
      <trkpt lat="47.95727" lon="4.12204">
        <ele>248.16</ele>
        <time>2021-08-10T21:26:51Z</time>
      </trkpt>
      <trkpt lat="47.95728" lon="4.12204">
        <ele>248.16</ele>
        <time>2021-08-10T21:26:59Z</time>
      </trkpt>
      <trkpt lat="47.95727" lon="4.12197">
        <ele>248.64</ele>
        <time>2021-08-10T21:27:10Z</time>
      </trkpt>
      <trkpt lat="47.95726" lon="4.12178">
        <ele>250.08</ele>
        <time>2021-08-10T21:27:21Z</time>
      </trkpt>
      <trkpt lat="47.95724" lon="4.12157">
        <ele>252</ele>
        <time>2021-08-10T21:27:33Z</time>
      </trkpt>
      <trkpt lat="47.95721" lon="4.12142">
        <ele>253.44</ele>
        <time>2021-08-10T21:27:43Z</time>
      </trkpt>
      <trkpt lat="47.95721" lon="4.12139">
        <ele>253.93</ele>
        <time>2021-08-10T21:27:45Z</time>
      </trkpt>
      <trkpt lat="47.95721" lon="4.12137">
        <ele>253.93</ele>
        <time>2021-08-10T21:27:46Z</time>
      </trkpt>
      <trkpt lat="47.9572" lon="4.12136">
        <ele>253.93</ele>
        <time>2021-08-10T21:27:47Z</time>
      </trkpt>
      <trkpt lat="47.9572" lon="4.12134">
        <ele>253.93</ele>
        <time>2021-08-10T21:27:48Z</time>
      </trkpt>
      <trkpt lat="47.9572" lon="4.12132">
        <ele>254.41</ele>
        <time>2021-08-10T21:27:49Z</time>
      </trkpt>
      <trkpt lat="47.9572" lon="4.12131">
        <ele>254.41</ele>
        <time>2021-08-10T21:27:50Z</time>
      </trkpt>
      <trkpt lat="47.9572" lon="4.12129">
        <ele>254.41</ele>
        <time>2021-08-10T21:27:51Z</time>
      </trkpt>
      <trkpt lat="47.95718" lon="4.12119">
        <ele>254.89</ele>
        <time>2021-08-10T21:28:00Z</time>
      </trkpt>
      <trkpt lat="47.95717" lon="4.12113">
        <ele>255.37</ele>
        <time>2021-08-10T21:28:08Z</time>
      </trkpt>
      <trkpt lat="47.95714" lon="4.12091">
        <ele>256.33</ele>
        <time>2021-08-10T21:28:18Z</time>
      </trkpt>
      <trkpt lat="47.95704" lon="4.12073">
        <ele>257.29</ele>
        <time>2021-08-10T21:28:27Z</time>
      </trkpt>
      <trkpt lat="47.95702" lon="4.12072">
        <ele>257.29</ele>
        <time>2021-08-10T21:28:28Z</time>
      </trkpt>
      <trkpt lat="47.95685" lon="4.12073">
        <ele>257.29</ele>
        <time>2021-08-10T21:28:36Z</time>
      </trkpt>
      <trkpt lat="47.95669" lon="4.12067">
        <ele>257.29</ele>
        <time>2021-08-10T21:28:43Z</time>
      </trkpt>
      <trkpt lat="47.95664" lon="4.12044">
        <ele>257.29</ele>
        <time>2021-08-10T21:28:49Z</time>
      </trkpt>
      <trkpt lat="47.95662" lon="4.11998">
        <ele>257.77</ele>
        <time>2021-08-10T21:28:59Z</time>
      </trkpt>
      <trkpt lat="47.95658" lon="4.11948">
        <ele>258.73</ele>
        <time>2021-08-10T21:29:10Z</time>
      </trkpt>
      <trkpt lat="47.95652" lon="4.11901">
        <ele>259.21</ele>
        <time>2021-08-10T21:29:20Z</time>
      </trkpt>
      <trkpt lat="47.95643" lon="4.11853">
        <ele>260.17</ele>
        <time>2021-08-10T21:29:30Z</time>
      </trkpt>
      <trkpt lat="47.95631" lon="4.11801">
        <ele>260.65</ele>
        <time>2021-08-10T21:29:40Z</time>
      </trkpt>
      <trkpt lat="47.95617" lon="4.1176">
        <ele>260.65</ele>
        <time>2021-08-10T21:29:48Z</time>
      </trkpt>
      <trkpt lat="47.95587" lon="4.11697">
        <ele>260.65</ele>
        <time>2021-08-10T21:29:59Z</time>
      </trkpt>
      <trkpt lat="47.95559" lon="4.11636">
        <ele>260.65</ele>
        <time>2021-08-10T21:30:09Z</time>
      </trkpt>
      <trkpt lat="47.95544" lon="4.1161">
        <ele>260.65</ele>
        <time>2021-08-10T21:30:15Z</time>
      </trkpt>
      <trkpt lat="47.95527" lon="4.11588">
        <ele>260.65</ele>
        <time>2021-08-10T21:30:22Z</time>
      </trkpt>
      <trkpt lat="47.95502" lon="4.11552">
        <ele>259.69</ele>
        <time>2021-08-10T21:30:31Z</time>
      </trkpt>
      <trkpt lat="47.95476" lon="4.115">
        <ele>259.69</ele>
        <time>2021-08-10T21:30:42Z</time>
      </trkpt>
      <trkpt lat="47.95455" lon="4.11452">
        <ele>259.69</ele>
        <time>2021-08-10T21:30:52Z</time>
      </trkpt>
      <trkpt lat="47.95442" lon="4.11423">
        <ele>261.14</ele>
        <time>2021-08-10T21:30:58Z</time>
      </trkpt>
      <trkpt lat="47.95427" lon="4.11387">
        <ele>261.62</ele>
        <time>2021-08-10T21:31:06Z</time>
      </trkpt>
      <trkpt lat="47.9541" lon="4.11348">
        <ele>262.58</ele>
        <time>2021-08-10T21:31:16Z</time>
      </trkpt>
      <trkpt lat="47.9539" lon="4.11304">
        <ele>263.06</ele>
        <time>2021-08-10T21:31:26Z</time>
      </trkpt>
      <trkpt lat="47.95363" lon="4.11256">
        <ele>263.06</ele>
        <time>2021-08-10T21:31:37Z</time>
      </trkpt>
      <trkpt lat="47.95328" lon="4.11212">
        <ele>263.06</ele>
        <time>2021-08-10T21:31:48Z</time>
      </trkpt>
      <trkpt lat="47.95301" lon="4.1118">
        <ele>263.06</ele>
        <time>2021-08-10T21:31:56Z</time>
      </trkpt>
      <trkpt lat="47.95279" lon="4.11143">
        <ele>263.54</ele>
        <time>2021-08-10T21:32:04Z</time>
      </trkpt>
      <trkpt lat="47.95267" lon="4.11121">
        <ele>265.46</ele>
        <time>2021-08-10T21:32:11Z</time>
      </trkpt>
      <trkpt lat="47.95253" lon="4.11095">
        <ele>266.42</ele>
        <time>2021-08-10T21:32:21Z</time>
      </trkpt>
      <trkpt lat="47.95242" lon="4.11074">
        <ele>267.86</ele>
        <time>2021-08-10T21:32:30Z</time>
      </trkpt>
      <trkpt lat="47.95228" lon="4.11049">
        <ele>269.79</ele>
        <time>2021-08-10T21:32:42Z</time>
      </trkpt>
      <trkpt lat="47.95218" lon="4.1103">
        <ele>271.71</ele>
        <time>2021-08-10T21:32:52Z</time>
      </trkpt>
      <trkpt lat="47.95208" lon="4.11011">
        <ele>273.15</ele>
        <time>2021-08-10T21:33:03Z</time>
      </trkpt>
      <trkpt lat="47.95199" lon="4.10994">
        <ele>274.11</ele>
        <time>2021-08-10T21:33:13Z</time>
      </trkpt>
      <trkpt lat="47.95198" lon="4.10993">
        <ele>275.07</ele>
        <time>2021-08-10T21:33:14Z</time>
      </trkpt>
      <trkpt lat="47.95197" lon="4.10991">
        <ele>275.07</ele>
        <time>2021-08-10T21:33:15Z</time>
      </trkpt>
      <trkpt lat="47.95196" lon="4.10989">
        <ele>275.07</ele>
        <time>2021-08-10T21:33:16Z</time>
      </trkpt>
      <trkpt lat="47.95195" lon="4.10988">
        <ele>275.07</ele>
        <time>2021-08-10T21:33:17Z</time>
      </trkpt>
      <trkpt lat="47.95194" lon="4.10986">
        <ele>275.56</ele>
        <time>2021-08-10T21:33:18Z</time>
      </trkpt>
      <trkpt lat="47.95186" lon="4.10971">
        <ele>276.52</ele>
        <time>2021-08-10T21:33:27Z</time>
      </trkpt>
      <trkpt lat="47.95184" lon="4.10968">
        <ele>277</ele>
        <time>2021-08-10T21:33:29Z</time>
      </trkpt>
      <trkpt lat="47.95184" lon="4.10967">
        <ele>277</ele>
        <time>2021-08-10T21:33:30Z</time>
      </trkpt>
      <trkpt lat="47.95176" lon="4.10952">
        <ele>278.92</ele>
        <time>2021-08-10T21:33:39Z</time>
      </trkpt>
      <trkpt lat="47.95165" lon="4.10934">
        <ele>279.88</ele>
        <time>2021-08-10T21:33:50Z</time>
      </trkpt>
      <trkpt lat="47.95156" lon="4.10918">
        <ele>281.32</ele>
        <time>2021-08-10T21:34:00Z</time>
      </trkpt>
      <trkpt lat="47.95148" lon="4.10902">
        <ele>282.77</ele>
        <time>2021-08-10T21:34:09Z</time>
      </trkpt>
      <trkpt lat="47.95138" lon="4.10883">
        <ele>283.73</ele>
        <time>2021-08-10T21:34:19Z</time>
      </trkpt>
      <trkpt lat="47.95128" lon="4.10865">
        <ele>285.17</ele>
        <time>2021-08-10T21:34:27Z</time>
      </trkpt>
      <trkpt lat="47.95111" lon="4.10842">
        <ele>286.13</ele>
        <time>2021-08-10T21:34:37Z</time>
      </trkpt>
      <trkpt lat="47.95099" lon="4.10851">
        <ele>286.13</ele>
        <time>2021-08-10T21:34:43Z</time>
      </trkpt>
      <trkpt lat="47.95081" lon="4.10871">
        <ele>286.13</ele>
        <time>2021-08-10T21:34:51Z</time>
      </trkpt>
      <trkpt lat="47.95063" lon="4.10897">
        <ele>286.13</ele>
        <time>2021-08-10T21:34:59Z</time>
      </trkpt>
      <trkpt lat="47.95044" lon="4.10919">
        <ele>286.61</ele>
        <time>2021-08-10T21:35:06Z</time>
      </trkpt>
      <trkpt lat="47.95023" lon="4.10946">
        <ele>287.09</ele>
        <time>2021-08-10T21:35:14Z</time>
      </trkpt>
      <trkpt lat="47.9501" lon="4.10962">
        <ele>287.57</ele>
        <time>2021-08-10T21:35:19Z</time>
      </trkpt>
      <trkpt lat="47.94995" lon="4.10985">
        <ele>288.05</ele>
        <time>2021-08-10T21:35:25Z</time>
      </trkpt>
      <trkpt lat="47.94976" lon="4.11021">
        <ele>288.53</ele>
        <time>2021-08-10T21:35:34Z</time>
      </trkpt>
      <trkpt lat="47.94966" lon="4.11054">
        <ele>289.49</ele>
        <time>2021-08-10T21:35:42Z</time>
      </trkpt>
      <trkpt lat="47.94961" lon="4.11069">
        <ele>289.49</ele>
        <time>2021-08-10T21:35:47Z</time>
      </trkpt>
      <trkpt lat="47.94957" lon="4.11069">
        <ele>289.97</ele>
        <time>2021-08-10T21:35:48Z</time>
      </trkpt>
      <trkpt lat="47.94955" lon="4.11067">
        <ele>289.97</ele>
        <time>2021-08-10T21:35:49Z</time>
      </trkpt>
      <trkpt lat="47.94953" lon="4.11064">
        <ele>289.97</ele>
        <time>2021-08-10T21:35:50Z</time>
      </trkpt>
      <trkpt lat="47.94953" lon="4.1106">
        <ele>290.46</ele>
        <time>2021-08-10T21:35:51Z</time>
      </trkpt>
      <trkpt lat="47.94952" lon="4.11056">
        <ele>290.46</ele>
        <time>2021-08-10T21:35:52Z</time>
      </trkpt>
      <trkpt lat="47.94952" lon="4.11054">
        <ele>290.46</ele>
        <time>2021-08-10T21:35:53Z</time>
      </trkpt>
      <trkpt lat="47.94951" lon="4.11051">
        <ele>290.46</ele>
        <time>2021-08-10T21:35:54Z</time>
      </trkpt>
      <trkpt lat="47.94943" lon="4.11022">
        <ele>290.46</ele>
        <time>2021-08-10T21:36:01Z</time>
      </trkpt>
      <trkpt lat="47.94933" lon="4.10993">
        <ele>289.01</ele>
        <time>2021-08-10T21:36:06Z</time>
      </trkpt>
      <trkpt lat="47.94912" lon="4.10935">
        <ele>288.05</ele>
        <time>2021-08-10T21:36:15Z</time>
      </trkpt>
      <trkpt lat="47.94887" lon="4.10863">
        <ele>285.17</ele>
        <time>2021-08-10T21:36:24Z</time>
      </trkpt>
      <trkpt lat="47.94852" lon="4.10769">
        <ele>281.8</ele>
        <time>2021-08-10T21:36:34Z</time>
      </trkpt>
      <trkpt lat="47.94837" lon="4.10727">
        <ele>280.36</ele>
        <time>2021-08-10T21:36:38Z</time>
      </trkpt>
      <trkpt lat="47.94809" lon="4.10648">
        <ele>276.52</ele>
        <time>2021-08-10T21:36:46Z</time>
      </trkpt>
      <trkpt lat="47.94788" lon="4.1059">
        <ele>273.15</ele>
        <time>2021-08-10T21:36:52Z</time>
      </trkpt>
      <trkpt lat="47.94774" lon="4.10551">
        <ele>271.23</ele>
        <time>2021-08-10T21:36:56Z</time>
      </trkpt>
      <trkpt lat="47.94759" lon="4.10514">
        <ele>267.86</ele>
        <time>2021-08-10T21:37:00Z</time>
      </trkpt>
      <trkpt lat="47.94744" lon="4.10474">
        <ele>265.46</ele>
        <time>2021-08-10T21:37:04Z</time>
      </trkpt>
      <trkpt lat="47.94728" lon="4.10424">
        <ele>262.1</ele>
        <time>2021-08-10T21:37:09Z</time>
      </trkpt>
      <trkpt lat="47.94712" lon="4.10373">
        <ele>258.73</ele>
        <time>2021-08-10T21:37:14Z</time>
      </trkpt>
      <trkpt lat="47.94706" lon="4.10354">
        <ele>257.29</ele>
        <time>2021-08-10T21:37:16Z</time>
      </trkpt>
      <trkpt lat="47.94694" lon="4.10324">
        <ele>255.37</ele>
        <time>2021-08-10T21:37:19Z</time>
      </trkpt>
      <trkpt lat="47.94667" lon="4.10286">
        <ele>252.48</ele>
        <time>2021-08-10T21:37:24Z</time>
      </trkpt>
      <trkpt lat="47.94663" lon="4.10281">
        <ele>252.48</ele>
        <time>2021-08-10T21:37:25Z</time>
      </trkpt>
      <trkpt lat="47.94653" lon="4.10272">
        <ele>251.52</ele>
        <time>2021-08-10T21:37:28Z</time>
      </trkpt>
      <trkpt lat="47.94629" lon="4.10227">
        <ele>250.08</ele>
        <time>2021-08-10T21:37:36Z</time>
      </trkpt>
      <trkpt lat="47.94613" lon="4.10202">
        <ele>250.08</ele>
        <time>2021-08-10T21:37:43Z</time>
      </trkpt>
      <trkpt lat="47.94607" lon="4.10194">
        <ele>251.52</ele>
        <time>2021-08-10T21:37:47Z</time>
      </trkpt>
      <trkpt lat="47.94598" lon="4.1018">
        <ele>252.48</ele>
        <time>2021-08-10T21:37:54Z</time>
      </trkpt>
      <trkpt lat="47.94587" lon="4.10166">
        <ele>253.44</ele>
        <time>2021-08-10T21:38:02Z</time>
      </trkpt>
      <trkpt lat="47.94575" lon="4.10149">
        <ele>254.41</ele>
        <time>2021-08-10T21:38:11Z</time>
      </trkpt>
      <trkpt lat="47.94564" lon="4.10136">
        <ele>254.89</ele>
        <time>2021-08-10T21:38:19Z</time>
      </trkpt>
      <trkpt lat="47.94552" lon="4.10121">
        <ele>255.85</ele>
        <time>2021-08-10T21:38:28Z</time>
      </trkpt>
      <trkpt lat="47.94538" lon="4.10101">
        <ele>257.29</ele>
        <time>2021-08-10T21:38:39Z</time>
      </trkpt>
      <trkpt lat="47.94526" lon="4.10084">
        <ele>258.25</ele>
        <time>2021-08-10T21:38:49Z</time>
      </trkpt>
      <trkpt lat="47.94518" lon="4.10069">
        <ele>258.73</ele>
        <time>2021-08-10T21:38:57Z</time>
      </trkpt>
      <trkpt lat="47.9451" lon="4.10053">
        <ele>259.69</ele>
        <time>2021-08-10T21:39:05Z</time>
      </trkpt>
      <trkpt lat="47.945" lon="4.10033">
        <ele>260.17</ele>
        <time>2021-08-10T21:39:14Z</time>
      </trkpt>
      <trkpt lat="47.94488" lon="4.10016">
        <ele>260.65</ele>
        <time>2021-08-10T21:39:23Z</time>
      </trkpt>
      <trkpt lat="47.94473" lon="4.10001">
        <ele>261.62</ele>
        <time>2021-08-10T21:39:33Z</time>
      </trkpt>
      <trkpt lat="47.94456" lon="4.09989">
        <ele>262.58</ele>
        <time>2021-08-10T21:39:43Z</time>
      </trkpt>
      <trkpt lat="47.94443" lon="4.09981">
        <ele>263.54</ele>
        <time>2021-08-10T21:39:52Z</time>
      </trkpt>
      <trkpt lat="47.94431" lon="4.0997">
        <ele>264.02</ele>
        <time>2021-08-10T21:40:00Z</time>
      </trkpt>
      <trkpt lat="47.94419" lon="4.09963">
        <ele>264.5</ele>
        <time>2021-08-10T21:40:07Z</time>
      </trkpt>
      <trkpt lat="47.94405" lon="4.09949">
        <ele>264.98</ele>
        <time>2021-08-10T21:40:16Z</time>
      </trkpt>
      <trkpt lat="47.94396" lon="4.09942">
        <ele>264.98</ele>
        <time>2021-08-10T21:40:21Z</time>
      </trkpt>
      <trkpt lat="47.94394" lon="4.09941">
        <ele>264.98</ele>
        <time>2021-08-10T21:40:22Z</time>
      </trkpt>
      <trkpt lat="47.94393" lon="4.0994">
        <ele>264.98</ele>
        <time>2021-08-10T21:40:23Z</time>
      </trkpt>
      <trkpt lat="47.94391" lon="4.09939">
        <ele>264.98</ele>
        <time>2021-08-10T21:40:24Z</time>
      </trkpt>
      <trkpt lat="47.94389" lon="4.09937">
        <ele>264.98</ele>
        <time>2021-08-10T21:40:25Z</time>
      </trkpt>
      <trkpt lat="47.94388" lon="4.09936">
        <ele>265.46</ele>
        <time>2021-08-10T21:40:26Z</time>
      </trkpt>
      <trkpt lat="47.94386" lon="4.09935">
        <ele>265.46</ele>
        <time>2021-08-10T21:40:27Z</time>
      </trkpt>
      <trkpt lat="47.94385" lon="4.09934">
        <ele>265.46</ele>
        <time>2021-08-10T21:40:28Z</time>
      </trkpt>
      <trkpt lat="47.94384" lon="4.09933">
        <ele>265.46</ele>
        <time>2021-08-10T21:40:29Z</time>
      </trkpt>
      <trkpt lat="47.94382" lon="4.09932">
        <ele>265.46</ele>
        <time>2021-08-10T21:40:30Z</time>
      </trkpt>
      <trkpt lat="47.94381" lon="4.0993">
        <ele>265.46</ele>
        <time>2021-08-10T21:40:31Z</time>
      </trkpt>
      <trkpt lat="47.94379" lon="4.09929">
        <ele>265.46</ele>
        <time>2021-08-10T21:40:32Z</time>
      </trkpt>
      <trkpt lat="47.94378" lon="4.09927">
        <ele>265.94</ele>
        <time>2021-08-10T21:40:33Z</time>
      </trkpt>
      <trkpt lat="47.94362" lon="4.09911">
        <ele>265.94</ele>
        <time>2021-08-10T21:40:42Z</time>
      </trkpt>
      <trkpt lat="47.94346" lon="4.09894">
        <ele>266.42</ele>
        <time>2021-08-10T21:40:51Z</time>
      </trkpt>
      <trkpt lat="47.94328" lon="4.09869">
        <ele>266.9</ele>
        <time>2021-08-10T21:41:01Z</time>
      </trkpt>
      <trkpt lat="47.94314" lon="4.09845">
        <ele>266.9</ele>
        <time>2021-08-10T21:41:09Z</time>
      </trkpt>
      <trkpt lat="47.94296" lon="4.09814">
        <ele>266.9</ele>
        <time>2021-08-10T21:41:21Z</time>
      </trkpt>
      <trkpt lat="47.94284" lon="4.09796">
        <ele>268.35</ele>
        <time>2021-08-10T21:41:30Z</time>
      </trkpt>
      <trkpt lat="47.94276" lon="4.0978">
        <ele>268.83</ele>
        <time>2021-08-10T21:41:38Z</time>
      </trkpt>
      <trkpt lat="47.94262" lon="4.09762">
        <ele>270.75</ele>
        <time>2021-08-10T21:41:49Z</time>
      </trkpt>
      <trkpt lat="47.94246" lon="4.09746">
        <ele>271.71</ele>
        <time>2021-08-10T21:42:00Z</time>
      </trkpt>
      <trkpt lat="47.94227" lon="4.09734">
        <ele>272.19</ele>
        <time>2021-08-10T21:42:10Z</time>
      </trkpt>
      <trkpt lat="47.94204" lon="4.09723">
        <ele>273.63</ele>
        <time>2021-08-10T21:42:22Z</time>
      </trkpt>
      <trkpt lat="47.94185" lon="4.09711">
        <ele>274.59</ele>
        <time>2021-08-10T21:42:32Z</time>
      </trkpt>
      <trkpt lat="47.94164" lon="4.09692">
        <ele>275.07</ele>
        <time>2021-08-10T21:42:43Z</time>
      </trkpt>
      <trkpt lat="47.94147" lon="4.09676">
        <ele>274.59</ele>
        <time>2021-08-10T21:42:52Z</time>
      </trkpt>
      <trkpt lat="47.94126" lon="4.09658">
        <ele>275.56</ele>
        <time>2021-08-10T21:43:03Z</time>
      </trkpt>
      <trkpt lat="47.94105" lon="4.09639">
        <ele>277</ele>
        <time>2021-08-10T21:43:16Z</time>
      </trkpt>
      <trkpt lat="47.94087" lon="4.09624">
        <ele>277.96</ele>
        <time>2021-08-10T21:43:27Z</time>
      </trkpt>
      <trkpt lat="47.94079" lon="4.09617">
        <ele>277.96</ele>
        <time>2021-08-10T21:43:32Z</time>
      </trkpt>
      <trkpt lat="47.94078" lon="4.09615">
        <ele>277.96</ele>
        <time>2021-08-10T21:43:33Z</time>
      </trkpt>
      <trkpt lat="47.94076" lon="4.09614">
        <ele>278.44</ele>
        <time>2021-08-10T21:43:34Z</time>
      </trkpt>
      <trkpt lat="47.94059" lon="4.09598">
        <ele>279.4</ele>
        <time>2021-08-10T21:43:45Z</time>
      </trkpt>
      <trkpt lat="47.94048" lon="4.09589">
        <ele>280.36</ele>
        <time>2021-08-10T21:43:52Z</time>
      </trkpt>
      <trkpt lat="47.94028" lon="4.09571">
        <ele>281.32</ele>
        <time>2021-08-10T21:44:05Z</time>
      </trkpt>
      <trkpt lat="47.94014" lon="4.0956">
        <ele>282.28</ele>
        <time>2021-08-10T21:44:14Z</time>
      </trkpt>
      <trkpt lat="47.94005" lon="4.09551">
        <ele>283.25</ele>
        <time>2021-08-10T21:44:21Z</time>
      </trkpt>
      <trkpt lat="47.93992" lon="4.09539">
        <ele>284.69</ele>
        <time>2021-08-10T21:44:30Z</time>
      </trkpt>
      <trkpt lat="47.9398" lon="4.09529">
        <ele>285.65</ele>
        <time>2021-08-10T21:44:38Z</time>
      </trkpt>
      <trkpt lat="47.9397" lon="4.0952">
        <ele>287.09</ele>
        <time>2021-08-10T21:44:45Z</time>
      </trkpt>
      <trkpt lat="47.93961" lon="4.09512">
        <ele>288.05</ele>
        <time>2021-08-10T21:44:52Z</time>
      </trkpt>
      <trkpt lat="47.93954" lon="4.09508">
        <ele>289.01</ele>
        <time>2021-08-10T21:44:59Z</time>
      </trkpt>
      <trkpt lat="47.93946" lon="4.095">
        <ele>289.97</ele>
        <time>2021-08-10T21:45:08Z</time>
      </trkpt>
      <trkpt lat="47.93947" lon="4.095">
        <ele>289.97</ele>
        <time>2021-08-10T21:45:29Z</time>
      </trkpt>
      <trkpt lat="47.93941" lon="4.09495">
        <ele>289.97</ele>
        <time>2021-08-10T21:45:36Z</time>
      </trkpt>
      <trkpt lat="47.93938" lon="4.09492">
        <ele>290.46</ele>
        <time>2021-08-10T21:45:42Z</time>
      </trkpt>
      <trkpt lat="47.93937" lon="4.09491">
        <ele>290.46</ele>
        <time>2021-08-10T21:45:45Z</time>
      </trkpt>
      <trkpt lat="47.93936" lon="4.0949">
        <ele>290.46</ele>
        <time>2021-08-10T21:45:46Z</time>
      </trkpt>
      <trkpt lat="47.93935" lon="4.09489">
        <ele>290.46</ele>
        <time>2021-08-10T21:45:47Z</time>
      </trkpt>
      <trkpt lat="47.93921" lon="4.09478">
        <ele>291.42</ele>
        <time>2021-08-10T21:45:55Z</time>
      </trkpt>
      <trkpt lat="47.93902" lon="4.09461">
        <ele>293.34</ele>
        <time>2021-08-10T21:46:06Z</time>
      </trkpt>
      <trkpt lat="47.93899" lon="4.09457">
        <ele>293.82</ele>
        <time>2021-08-10T21:46:08Z</time>
      </trkpt>
      <trkpt lat="47.939" lon="4.09454">
        <ele>293.82</ele>
        <time>2021-08-10T21:46:09Z</time>
      </trkpt>
      <trkpt lat="47.93901" lon="4.09452">
        <ele>293.82</ele>
        <time>2021-08-10T21:46:10Z</time>
      </trkpt>
      <trkpt lat="47.93912" lon="4.09426">
        <ele>293.82</ele>
        <time>2021-08-10T21:46:17Z</time>
      </trkpt>
      <trkpt lat="47.93925" lon="4.09391">
        <ele>292.38</ele>
        <time>2021-08-10T21:46:24Z</time>
      </trkpt>
      <trkpt lat="47.93947" lon="4.09325">
        <ele>291.9</ele>
        <time>2021-08-10T21:46:35Z</time>
      </trkpt>
      <trkpt lat="47.93964" lon="4.09278">
        <ele>291.42</ele>
        <time>2021-08-10T21:46:43Z</time>
      </trkpt>
      <trkpt lat="47.93967" lon="4.09274">
        <ele>291.42</ele>
        <time>2021-08-10T21:46:44Z</time>
      </trkpt>
      <trkpt lat="47.9397" lon="4.0927">
        <ele>291.42</ele>
        <time>2021-08-10T21:46:45Z</time>
      </trkpt>
      <trkpt lat="47.93974" lon="4.09268">
        <ele>291.42</ele>
        <time>2021-08-10T21:46:46Z</time>
      </trkpt>
      <trkpt lat="47.93977" lon="4.09266">
        <ele>291.42</ele>
        <time>2021-08-10T21:46:47Z</time>
      </trkpt>
      <trkpt lat="47.93982" lon="4.09265">
        <ele>291.42</ele>
        <time>2021-08-10T21:46:48Z</time>
      </trkpt>
      <trkpt lat="47.93986" lon="4.09266">
        <ele>291.42</ele>
        <time>2021-08-10T21:46:49Z</time>
      </trkpt>
      <trkpt lat="47.9399" lon="4.09266">
        <ele>291.42</ele>
        <time>2021-08-10T21:46:50Z</time>
      </trkpt>
      <trkpt lat="47.94032" lon="4.09269">
        <ele>290.46</ele>
        <time>2021-08-10T21:46:59Z</time>
      </trkpt>
      <trkpt lat="47.94087" lon="4.09271">
        <ele>289.49</ele>
        <time>2021-08-10T21:47:10Z</time>
      </trkpt>
      <trkpt lat="47.94143" lon="4.09275">
        <ele>288.53</ele>
        <time>2021-08-10T21:47:22Z</time>
      </trkpt>
      <trkpt lat="47.94151" lon="4.09275">
        <ele>288.53</ele>
        <time>2021-08-10T21:47:24Z</time>
      </trkpt>
      <trkpt lat="47.94155" lon="4.09272">
        <ele>288.53</ele>
        <time>2021-08-10T21:47:25Z</time>
      </trkpt>
      <trkpt lat="47.94159" lon="4.09268">
        <ele>288.53</ele>
        <time>2021-08-10T21:47:26Z</time>
      </trkpt>
      <trkpt lat="47.9416" lon="4.09264">
        <ele>288.53</ele>
        <time>2021-08-10T21:47:27Z</time>
      </trkpt>
      <trkpt lat="47.94162" lon="4.09258">
        <ele>288.53</ele>
        <time>2021-08-10T21:47:28Z</time>
      </trkpt>
      <trkpt lat="47.94163" lon="4.09252">
        <ele>288.53</ele>
        <time>2021-08-10T21:47:29Z</time>
      </trkpt>
      <trkpt lat="47.94177" lon="4.09186">
        <ele>288.05</ele>
        <time>2021-08-10T21:47:40Z</time>
      </trkpt>
      <trkpt lat="47.94189" lon="4.09126">
        <ele>287.57</ele>
        <time>2021-08-10T21:47:49Z</time>
      </trkpt>
      <trkpt lat="47.94201" lon="4.09067">
        <ele>287.09</ele>
        <time>2021-08-10T21:47:59Z</time>
      </trkpt>
      <trkpt lat="47.94206" lon="4.09043">
        <ele>286.61</ele>
        <time>2021-08-10T21:48:03Z</time>
      </trkpt>
      <trkpt lat="47.94207" lon="4.09037">
        <ele>286.61</ele>
        <time>2021-08-10T21:48:04Z</time>
      </trkpt>
      <trkpt lat="47.9422" lon="4.08974">
        <ele>285.65</ele>
        <time>2021-08-10T21:48:14Z</time>
      </trkpt>
      <trkpt lat="47.94236" lon="4.08895">
        <ele>285.17</ele>
        <time>2021-08-10T21:48:26Z</time>
      </trkpt>
      <trkpt lat="47.94247" lon="4.08838">
        <ele>285.17</ele>
        <time>2021-08-10T21:48:36Z</time>
      </trkpt>
      <trkpt lat="47.9425" lon="4.08816">
        <ele>285.17</ele>
        <time>2021-08-10T21:48:41Z</time>
      </trkpt>
      <trkpt lat="47.94249" lon="4.08812">
        <ele>285.17</ele>
        <time>2021-08-10T21:48:42Z</time>
      </trkpt>
      <trkpt lat="47.94247" lon="4.0881">
        <ele>285.17</ele>
        <time>2021-08-10T21:48:43Z</time>
      </trkpt>
      <trkpt lat="47.94245" lon="4.08809">
        <ele>285.17</ele>
        <time>2021-08-10T21:48:44Z</time>
      </trkpt>
      <trkpt lat="47.94242" lon="4.08809">
        <ele>285.17</ele>
        <time>2021-08-10T21:48:45Z</time>
      </trkpt>
      <trkpt lat="47.94239" lon="4.08808">
        <ele>285.17</ele>
        <time>2021-08-10T21:48:46Z</time>
      </trkpt>
      <trkpt lat="47.9421" lon="4.08806">
        <ele>285.17</ele>
        <time>2021-08-10T21:48:54Z</time>
      </trkpt>
      <trkpt lat="47.94176" lon="4.08801">
        <ele>284.69</ele>
        <time>2021-08-10T21:49:02Z</time>
      </trkpt>
      <trkpt lat="47.94135" lon="4.08794">
        <ele>283.73</ele>
        <time>2021-08-10T21:49:10Z</time>
      </trkpt>
      <trkpt lat="47.94082" lon="4.08785">
        <ele>281.32</ele>
        <time>2021-08-10T21:49:19Z</time>
      </trkpt>
      <trkpt lat="47.94025" lon="4.08778">
        <ele>277.96</ele>
        <time>2021-08-10T21:49:27Z</time>
      </trkpt>
      <trkpt lat="47.93971" lon="4.08763">
        <ele>277</ele>
        <time>2021-08-10T21:49:34Z</time>
      </trkpt>
      <trkpt lat="47.93948" lon="4.08752">
        <ele>278.44</ele>
        <time>2021-08-10T21:49:38Z</time>
      </trkpt>
      <trkpt lat="47.93917" lon="4.08736">
        <ele>279.88</ele>
        <time>2021-08-10T21:49:45Z</time>
      </trkpt>
      <trkpt lat="47.93891" lon="4.08724">
        <ele>280.84</ele>
        <time>2021-08-10T21:49:53Z</time>
      </trkpt>
      <trkpt lat="47.93872" lon="4.08716">
        <ele>281.8</ele>
        <time>2021-08-10T21:50:00Z</time>
      </trkpt>
      <trkpt lat="47.93842" lon="4.08703">
        <ele>282.77</ele>
        <time>2021-08-10T21:50:10Z</time>
      </trkpt>
      <trkpt lat="47.9381" lon="4.08688">
        <ele>283.73</ele>
        <time>2021-08-10T21:50:20Z</time>
      </trkpt>
      <trkpt lat="47.93761" lon="4.08666">
        <ele>283.73</ele>
        <time>2021-08-10T21:50:32Z</time>
      </trkpt>
      <trkpt lat="47.93726" lon="4.0865">
        <ele>284.21</ele>
        <time>2021-08-10T21:50:40Z</time>
      </trkpt>
      <trkpt lat="47.93686" lon="4.08631">
        <ele>284.21</ele>
        <time>2021-08-10T21:50:49Z</time>
      </trkpt>
      <trkpt lat="47.93644" lon="4.08612">
        <ele>284.21</ele>
        <time>2021-08-10T21:50:58Z</time>
      </trkpt>
      <trkpt lat="47.93615" lon="4.08599">
        <ele>284.69</ele>
        <time>2021-08-10T21:51:06Z</time>
      </trkpt>
      <trkpt lat="47.93598" lon="4.08592">
        <ele>286.13</ele>
        <time>2021-08-10T21:51:14Z</time>
      </trkpt>
      <trkpt lat="47.93582" lon="4.08584">
        <ele>287.57</ele>
        <time>2021-08-10T21:51:22Z</time>
      </trkpt>
      <trkpt lat="47.9357" lon="4.08579">
        <ele>288.53</ele>
        <time>2021-08-10T21:51:29Z</time>
      </trkpt>
      <trkpt lat="47.93553" lon="4.08571">
        <ele>289.97</ele>
        <time>2021-08-10T21:51:40Z</time>
      </trkpt>
      <trkpt lat="47.93539" lon="4.08566">
        <ele>290.94</ele>
        <time>2021-08-10T21:51:49Z</time>
      </trkpt>
      <trkpt lat="47.93523" lon="4.08559">
        <ele>292.38</ele>
        <time>2021-08-10T21:51:59Z</time>
      </trkpt>
      <trkpt lat="47.93507" lon="4.08551">
        <ele>293.82</ele>
        <time>2021-08-10T21:52:08Z</time>
      </trkpt>
      <trkpt lat="47.93483" lon="4.0854">
        <ele>294.78</ele>
        <time>2021-08-10T21:52:19Z</time>
      </trkpt>
      <trkpt lat="47.93457" lon="4.08527">
        <ele>295.74</ele>
        <time>2021-08-10T21:52:29Z</time>
      </trkpt>
      <trkpt lat="47.93429" lon="4.08515">
        <ele>295.74</ele>
        <time>2021-08-10T21:52:38Z</time>
      </trkpt>
      <trkpt lat="47.93403" lon="4.08503">
        <ele>295.74</ele>
        <time>2021-08-10T21:52:46Z</time>
      </trkpt>
      <trkpt lat="47.93377" lon="4.08491">
        <ele>294.78</ele>
        <time>2021-08-10T21:52:53Z</time>
      </trkpt>
      <trkpt lat="47.93372" lon="4.08489">
        <ele>294.78</ele>
        <time>2021-08-10T21:52:54Z</time>
      </trkpt>
      <trkpt lat="47.93323" lon="4.08467">
        <ele>293.34</ele>
        <time>2021-08-10T21:53:04Z</time>
      </trkpt>
      <trkpt lat="47.93297" lon="4.08455">
        <ele>293.34</ele>
        <time>2021-08-10T21:53:10Z</time>
      </trkpt>
      <trkpt lat="47.93251" lon="4.08434">
        <ele>293.34</ele>
        <time>2021-08-10T21:53:21Z</time>
      </trkpt>
      <trkpt lat="47.93204" lon="4.08413">
        <ele>292.86</ele>
        <time>2021-08-10T21:53:31Z</time>
      </trkpt>
      <trkpt lat="47.93176" lon="4.08399">
        <ele>292.86</ele>
        <time>2021-08-10T21:53:37Z</time>
      </trkpt>
      <trkpt lat="47.93171" lon="4.08398">
        <ele>292.86</ele>
        <time>2021-08-10T21:53:38Z</time>
      </trkpt>
      <trkpt lat="47.93122" lon="4.08375">
        <ele>292.38</ele>
        <time>2021-08-10T21:53:49Z</time>
      </trkpt>
      <trkpt lat="47.93077" lon="4.08354">
        <ele>290.94</ele>
        <time>2021-08-10T21:53:58Z</time>
      </trkpt>
      <trkpt lat="47.93028" lon="4.08332">
        <ele>289.01</ele>
        <time>2021-08-10T21:54:07Z</time>
      </trkpt>
      <trkpt lat="47.93001" lon="4.0832">
        <ele>289.49</ele>
        <time>2021-08-10T21:54:13Z</time>
      </trkpt>
      <trkpt lat="47.92998" lon="4.08319">
        <ele>289.49</ele>
        <time>2021-08-10T21:54:14Z</time>
      </trkpt>
      <trkpt lat="47.92994" lon="4.0832">
        <ele>289.49</ele>
        <time>2021-08-10T21:54:15Z</time>
      </trkpt>
      <trkpt lat="47.92991" lon="4.08322">
        <ele>289.49</ele>
        <time>2021-08-10T21:54:16Z</time>
      </trkpt>
      <trkpt lat="47.92988" lon="4.08326">
        <ele>289.49</ele>
        <time>2021-08-10T21:54:17Z</time>
      </trkpt>
      <trkpt lat="47.92987" lon="4.08329">
        <ele>290.46</ele>
        <time>2021-08-10T21:54:18Z</time>
      </trkpt>
      <trkpt lat="47.92986" lon="4.08333">
        <ele>290.46</ele>
        <time>2021-08-10T21:54:19Z</time>
      </trkpt>
      <trkpt lat="47.92983" lon="4.08354">
        <ele>291.42</ele>
        <time>2021-08-10T21:54:25Z</time>
      </trkpt>
      <trkpt lat="47.92976" lon="4.08389">
        <ele>293.34</ele>
        <time>2021-08-10T21:54:36Z</time>
      </trkpt>
      <trkpt lat="47.92972" lon="4.08408">
        <ele>294.3</ele>
        <time>2021-08-10T21:54:44Z</time>
      </trkpt>
      <trkpt lat="47.92971" lon="4.0841">
        <ele>294.3</ele>
        <time>2021-08-10T21:54:45Z</time>
      </trkpt>
      <trkpt lat="47.9297" lon="4.08412">
        <ele>294.78</ele>
        <time>2021-08-10T21:54:46Z</time>
      </trkpt>
      <trkpt lat="47.92969" lon="4.08414">
        <ele>294.78</ele>
        <time>2021-08-10T21:54:47Z</time>
      </trkpt>
      <trkpt lat="47.92968" lon="4.08416">
        <ele>294.78</ele>
        <time>2021-08-10T21:54:48Z</time>
      </trkpt>
      <trkpt lat="47.92968" lon="4.08418">
        <ele>294.78</ele>
        <time>2021-08-10T21:54:49Z</time>
      </trkpt>
      <trkpt lat="47.92967" lon="4.0842">
        <ele>294.78</ele>
        <time>2021-08-10T21:54:50Z</time>
      </trkpt>
      <trkpt lat="47.92967" lon="4.08423">
        <ele>294.78</ele>
        <time>2021-08-10T21:54:51Z</time>
      </trkpt>
      <trkpt lat="47.92966" lon="4.08425">
        <ele>295.26</ele>
        <time>2021-08-10T21:54:52Z</time>
      </trkpt>
      <trkpt lat="47.92966" lon="4.08428">
        <ele>295.26</ele>
        <time>2021-08-10T21:54:53Z</time>
      </trkpt>
      <trkpt lat="47.92965" lon="4.0843">
        <ele>295.26</ele>
        <time>2021-08-10T21:54:54Z</time>
      </trkpt>
      <trkpt lat="47.92964" lon="4.08432">
        <ele>295.26</ele>
        <time>2021-08-10T21:54:55Z</time>
      </trkpt>
      <trkpt lat="47.92964" lon="4.08435">
        <ele>295.26</ele>
        <time>2021-08-10T21:54:56Z</time>
      </trkpt>
      <trkpt lat="47.92963" lon="4.08437">
        <ele>295.74</ele>
        <time>2021-08-10T21:54:57Z</time>
      </trkpt>
      <trkpt lat="47.92962" lon="4.08442">
        <ele>295.74</ele>
        <time>2021-08-10T21:54:59Z</time>
      </trkpt>
      <trkpt lat="47.92962" lon="4.08445">
        <ele>295.74</ele>
        <time>2021-08-10T21:55:00Z</time>
      </trkpt>
      <trkpt lat="47.92961" lon="4.08448">
        <ele>295.74</ele>
        <time>2021-08-10T21:55:01Z</time>
      </trkpt>
      <trkpt lat="47.92961" lon="4.08451">
        <ele>296.22</ele>
        <time>2021-08-10T21:55:02Z</time>
      </trkpt>
      <trkpt lat="47.9296" lon="4.08453">
        <ele>296.22</ele>
        <time>2021-08-10T21:55:03Z</time>
      </trkpt>
      <trkpt lat="47.9296" lon="4.08456">
        <ele>296.22</ele>
        <time>2021-08-10T21:55:04Z</time>
      </trkpt>
      <trkpt lat="47.92952" lon="4.08496">
        <ele>297.67</ele>
        <time>2021-08-10T21:55:16Z</time>
      </trkpt>
      <trkpt lat="47.92943" lon="4.08538">
        <ele>298.63</ele>
        <time>2021-08-10T21:55:27Z</time>
      </trkpt>
      <trkpt lat="47.92932" lon="4.08592">
        <ele>299.11</ele>
        <time>2021-08-10T21:55:39Z</time>
      </trkpt>
      <trkpt lat="47.92921" lon="4.08647">
        <ele>299.11</ele>
        <time>2021-08-10T21:55:49Z</time>
      </trkpt>
      <trkpt lat="47.92917" lon="4.08668">
        <ele>297.67</ele>
        <time>2021-08-10T21:55:52Z</time>
      </trkpt>
      <trkpt lat="47.92904" lon="4.08728">
        <ele>294.3</ele>
        <time>2021-08-10T21:55:59Z</time>
      </trkpt>
      <trkpt lat="47.92894" lon="4.08778">
        <ele>292.38</ele>
        <time>2021-08-10T21:56:05Z</time>
      </trkpt>
      <trkpt lat="47.92892" lon="4.08784">
        <ele>291.9</ele>
        <time>2021-08-10T21:56:06Z</time>
      </trkpt>
      <trkpt lat="47.92888" lon="4.08789">
        <ele>291.42</ele>
        <time>2021-08-10T21:56:07Z</time>
      </trkpt>
      <trkpt lat="47.92884" lon="4.08792">
        <ele>291.42</ele>
        <time>2021-08-10T21:56:08Z</time>
      </trkpt>
      <trkpt lat="47.9288" lon="4.08791">
        <ele>290.46</ele>
        <time>2021-08-10T21:56:09Z</time>
      </trkpt>
      <trkpt lat="47.92875" lon="4.0879">
        <ele>290.46</ele>
        <time>2021-08-10T21:56:10Z</time>
      </trkpt>
      <trkpt lat="47.92839" lon="4.08772">
        <ele>289.01</ele>
        <time>2021-08-10T21:56:17Z</time>
      </trkpt>
      <trkpt lat="47.92798" lon="4.08753">
        <ele>288.53</ele>
        <time>2021-08-10T21:56:25Z</time>
      </trkpt>
      <trkpt lat="47.92764" lon="4.08738">
        <ele>290.46</ele>
        <time>2021-08-10T21:56:34Z</time>
      </trkpt>
      <trkpt lat="47.92724" lon="4.0872">
        <ele>290.46</ele>
        <time>2021-08-10T21:56:43Z</time>
      </trkpt>
      <trkpt lat="47.92674" lon="4.08697">
        <ele>287.09</ele>
        <time>2021-08-10T21:56:52Z</time>
      </trkpt>
      <trkpt lat="47.92617" lon="4.08669">
        <ele>284.21</ele>
        <time>2021-08-10T21:57:00Z</time>
      </trkpt>
      <trkpt lat="47.92575" lon="4.08656">
        <ele>282.77</ele>
        <time>2021-08-10T21:57:06Z</time>
      </trkpt>
      <trkpt lat="47.92567" lon="4.08656">
        <ele>281.8</ele>
        <time>2021-08-10T21:57:07Z</time>
      </trkpt>
      <trkpt lat="47.92534" lon="4.08658">
        <ele>278.92</ele>
        <time>2021-08-10T21:57:11Z</time>
      </trkpt>
      <trkpt lat="47.92495" lon="4.08652">
        <ele>276.04</ele>
        <time>2021-08-10T21:57:16Z</time>
      </trkpt>
      <trkpt lat="47.92466" lon="4.0864">
        <ele>273.15</ele>
        <time>2021-08-10T21:57:20Z</time>
      </trkpt>
      <trkpt lat="47.92431" lon="4.08618">
        <ele>269.79</ele>
        <time>2021-08-10T21:57:25Z</time>
      </trkpt>
      <trkpt lat="47.92425" lon="4.08613">
        <ele>269.31</ele>
        <time>2021-08-10T21:57:26Z</time>
      </trkpt>
      <trkpt lat="47.92419" lon="4.08606">
        <ele>268.83</ele>
        <time>2021-08-10T21:57:27Z</time>
      </trkpt>
      <trkpt lat="47.92413" lon="4.08599">
        <ele>268.35</ele>
        <time>2021-08-10T21:57:28Z</time>
      </trkpt>
      <trkpt lat="47.92408" lon="4.0859">
        <ele>266.9</ele>
        <time>2021-08-10T21:57:29Z</time>
      </trkpt>
      <trkpt lat="47.92403" lon="4.08582">
        <ele>265.94</ele>
        <time>2021-08-10T21:57:30Z</time>
      </trkpt>
      <trkpt lat="47.92398" lon="4.08574">
        <ele>265.94</ele>
        <time>2021-08-10T21:57:31Z</time>
      </trkpt>
      <trkpt lat="47.92382" lon="4.08549">
        <ele>263.06</ele>
        <time>2021-08-10T21:57:34Z</time>
      </trkpt>
      <trkpt lat="47.92359" lon="4.0852">
        <ele>259.69</ele>
        <time>2021-08-10T21:57:38Z</time>
      </trkpt>
      <trkpt lat="47.92333" lon="4.08495">
        <ele>256.33</ele>
        <time>2021-08-10T21:57:42Z</time>
      </trkpt>
      <trkpt lat="47.92307" lon="4.08475">
        <ele>252.96</ele>
        <time>2021-08-10T21:57:46Z</time>
      </trkpt>
      <trkpt lat="47.9227" lon="4.08446">
        <ele>249.6</ele>
        <time>2021-08-10T21:57:52Z</time>
      </trkpt>
      <trkpt lat="47.92237" lon="4.08421">
        <ele>246.72</ele>
        <time>2021-08-10T21:57:57Z</time>
      </trkpt>
      <trkpt lat="47.92198" lon="4.08398">
        <ele>243.35</ele>
        <time>2021-08-10T21:58:03Z</time>
      </trkpt>
      <trkpt lat="47.92178" lon="4.08391">
        <ele>241.43</ele>
        <time>2021-08-10T21:58:06Z</time>
      </trkpt>
      <trkpt lat="47.92171" lon="4.08389">
        <ele>240.95</ele>
        <time>2021-08-10T21:58:07Z</time>
      </trkpt>
      <trkpt lat="47.92124" lon="4.0839">
        <ele>237.1</ele>
        <time>2021-08-10T21:58:13Z</time>
      </trkpt>
      <trkpt lat="47.92108" lon="4.08395">
        <ele>236.62</ele>
        <time>2021-08-10T21:58:15Z</time>
      </trkpt>
      <trkpt lat="47.92067" lon="4.08411">
        <ele>233.26</ele>
        <time>2021-08-10T21:58:20Z</time>
      </trkpt>
      <trkpt lat="47.9204" lon="4.08423">
        <ele>231.81</ele>
        <time>2021-08-10T21:58:24Z</time>
      </trkpt>
      <trkpt lat="47.92033" lon="4.08423">
        <ele>231.81</ele>
        <time>2021-08-10T21:58:25Z</time>
      </trkpt>
      <trkpt lat="47.92026" lon="4.08422">
        <ele>230.85</ele>
        <time>2021-08-10T21:58:26Z</time>
      </trkpt>
      <trkpt lat="47.9202" lon="4.08419">
        <ele>230.85</ele>
        <time>2021-08-10T21:58:27Z</time>
      </trkpt>
      <trkpt lat="47.92013" lon="4.08416">
        <ele>230.37</ele>
        <time>2021-08-10T21:58:28Z</time>
      </trkpt>
      <trkpt lat="47.92007" lon="4.08412">
        <ele>230.37</ele>
        <time>2021-08-10T21:58:29Z</time>
      </trkpt>
      <trkpt lat="47.91973" lon="4.08384">
        <ele>227.49</ele>
        <time>2021-08-10T21:58:34Z</time>
      </trkpt>
      <trkpt lat="47.91943" lon="4.08356">
        <ele>224.12</ele>
        <time>2021-08-10T21:58:38Z</time>
      </trkpt>
      <trkpt lat="47.91929" lon="4.08339">
        <ele>223.16</ele>
        <time>2021-08-10T21:58:40Z</time>
      </trkpt>
      <trkpt lat="47.91899" lon="4.08307">
        <ele>222.68</ele>
        <time>2021-08-10T21:58:45Z</time>
      </trkpt>
      <trkpt lat="47.91894" lon="4.08304">
        <ele>222.68</ele>
        <time>2021-08-10T21:58:46Z</time>
      </trkpt>
      <trkpt lat="47.91888" lon="4.08303">
        <ele>222.68</ele>
        <time>2021-08-10T21:58:47Z</time>
      </trkpt>
      <trkpt lat="47.91867" lon="4.08302">
        <ele>222.68</ele>
        <time>2021-08-10T21:58:51Z</time>
      </trkpt>
      <trkpt lat="47.91862" lon="4.083">
        <ele>222.68</ele>
        <time>2021-08-10T21:58:52Z</time>
      </trkpt>
      <trkpt lat="47.91858" lon="4.08297">
        <ele>222.68</ele>
        <time>2021-08-10T21:58:53Z</time>
      </trkpt>
      <trkpt lat="47.91854" lon="4.08292">
        <ele>222.68</ele>
        <time>2021-08-10T21:58:54Z</time>
      </trkpt>
      <trkpt lat="47.91851" lon="4.08286">
        <ele>222.68</ele>
        <time>2021-08-10T21:58:55Z</time>
      </trkpt>
      <trkpt lat="47.91848" lon="4.0828">
        <ele>222.68</ele>
        <time>2021-08-10T21:58:56Z</time>
      </trkpt>
      <trkpt lat="47.9184" lon="4.08261">
        <ele>222.68</ele>
        <time>2021-08-10T21:58:59Z</time>
      </trkpt>
      <trkpt lat="47.91834" lon="4.0825">
        <ele>222.68</ele>
        <time>2021-08-10T21:59:01Z</time>
      </trkpt>
      <trkpt lat="47.91831" lon="4.08246">
        <ele>222.68</ele>
        <time>2021-08-10T21:59:02Z</time>
      </trkpt>
      <trkpt lat="47.91827" lon="4.08242">
        <ele>224.12</ele>
        <time>2021-08-10T21:59:03Z</time>
      </trkpt>
      <trkpt lat="47.91807" lon="4.08222">
        <ele>225.57</ele>
        <time>2021-08-10T21:59:10Z</time>
      </trkpt>
      <trkpt lat="47.91784" lon="4.082">
        <ele>225.57</ele>
        <time>2021-08-10T21:59:18Z</time>
      </trkpt>
      <trkpt lat="47.91752" lon="4.08172">
        <ele>224.12</ele>
        <time>2021-08-10T21:59:26Z</time>
      </trkpt>
      <trkpt lat="47.91704" lon="4.08134">
        <ele>222.2</ele>
        <time>2021-08-10T21:59:36Z</time>
      </trkpt>
      <trkpt lat="47.91672" lon="4.08108">
        <ele>220.76</ele>
        <time>2021-08-10T21:59:42Z</time>
      </trkpt>
      <trkpt lat="47.91647" lon="4.08087">
        <ele>219.32</ele>
        <time>2021-08-10T21:59:48Z</time>
      </trkpt>
      <trkpt lat="47.91629" lon="4.08079">
        <ele>218.84</ele>
        <time>2021-08-10T21:59:54Z</time>
      </trkpt>
      <trkpt lat="47.9163" lon="4.08076">
        <ele>218.84</ele>
        <time>2021-08-10T21:59:55Z</time>
      </trkpt>
      <trkpt lat="47.91634" lon="4.08069">
        <ele>218.36</ele>
        <time>2021-08-10T22:00:01Z</time>
      </trkpt>
      <trkpt lat="47.91634" lon="4.08068">
        <ele>217.88</ele>
        <time>2021-08-10T22:00:19Z</time>
      </trkpt>
      <trkpt lat="47.91637" lon="4.08069">
        <ele>217.88</ele>
        <time>2021-08-10T22:00:40Z</time>
      </trkpt>
      <trkpt lat="47.91638" lon="4.0807">
        <ele>217.88</ele>
        <time>2021-08-10T22:00:59Z</time>
      </trkpt>
      <trkpt lat="47.91636" lon="4.0807">
        <ele>217.88</ele>
        <time>2021-08-10T22:01:22Z</time>
      </trkpt>
      <trkpt lat="47.91636" lon="4.08069">
        <ele>217.88</ele>
        <time>2021-08-10T22:01:33Z</time>
      </trkpt>
      <trkpt lat="47.91639" lon="4.0807">
        <ele>217.88</ele>
        <time>2021-08-10T22:01:51Z</time>
      </trkpt>
      <trkpt lat="47.91638" lon="4.0807">
        <ele>217.88</ele>
        <time>2021-08-10T22:02:07Z</time>
      </trkpt>
      <trkpt lat="47.91635" lon="4.08071">
        <ele>217.88</ele>
        <time>2021-08-10T22:02:29Z</time>
      </trkpt>
      <trkpt lat="47.91635" lon="4.08071">
        <ele>217.88</ele>
        <time>2021-08-10T22:02:45Z</time>
      </trkpt>
      <trkpt lat="47.91637" lon="4.08068">
        <ele>217.88</ele>
        <time>2021-08-10T22:02:55Z</time>
      </trkpt>
      <trkpt lat="47.91638" lon="4.08067">
        <ele>217.88</ele>
        <time>2021-08-10T22:02:56Z</time>
      </trkpt>
      <trkpt lat="47.91639" lon="4.08064">
        <ele>217.88</ele>
        <time>2021-08-10T22:02:57Z</time>
      </trkpt>
      <trkpt lat="47.91641" lon="4.08036">
        <ele>216.91</ele>
        <time>2021-08-10T22:03:03Z</time>
      </trkpt>
      <trkpt lat="47.91648" lon="4.07982">
        <ele>216.43</ele>
        <time>2021-08-10T22:03:13Z</time>
      </trkpt>
      <trkpt lat="47.91647" lon="4.07956">
        <ele>218.36</ele>
        <time>2021-08-10T22:03:20Z</time>
      </trkpt>
      <trkpt lat="47.91648" lon="4.0794">
        <ele>219.32</ele>
        <time>2021-08-10T22:03:27Z</time>
      </trkpt>
      <trkpt lat="47.91648" lon="4.07929">
        <ele>220.28</ele>
        <time>2021-08-10T22:03:33Z</time>
      </trkpt>
      <trkpt lat="47.91647" lon="4.07927">
        <ele>220.28</ele>
        <time>2021-08-10T22:03:34Z</time>
      </trkpt>
      <trkpt lat="47.91647" lon="4.07926">
        <ele>220.28</ele>
        <time>2021-08-10T22:03:35Z</time>
      </trkpt>
      <trkpt lat="47.91647" lon="4.0792">
        <ele>220.76</ele>
        <time>2021-08-10T22:03:40Z</time>
      </trkpt>
      <trkpt lat="47.91644" lon="4.07909">
        <ele>222.68</ele>
        <time>2021-08-10T22:03:50Z</time>
      </trkpt>
      <trkpt lat="47.9164" lon="4.07901">
        <ele>224.61</ele>
        <time>2021-08-10T22:03:57Z</time>
      </trkpt>
      <trkpt lat="47.91636" lon="4.07893">
        <ele>225.57</ele>
        <time>2021-08-10T22:04:05Z</time>
      </trkpt>
      <trkpt lat="47.91635" lon="4.07892">
        <ele>225.57</ele>
        <time>2021-08-10T22:04:06Z</time>
      </trkpt>
      <trkpt lat="47.91634" lon="4.07891">
        <ele>226.05</ele>
        <time>2021-08-10T22:04:07Z</time>
      </trkpt>
      <trkpt lat="47.9163" lon="4.07883">
        <ele>227.49</ele>
        <time>2021-08-10T22:04:15Z</time>
      </trkpt>
      <trkpt lat="47.91628" lon="4.07871">
        <ele>228.45</ele>
        <time>2021-08-10T22:04:23Z</time>
      </trkpt>
      <trkpt lat="47.91629" lon="4.07864">
        <ele>229.41</ele>
        <time>2021-08-10T22:04:28Z</time>
      </trkpt>
      <trkpt lat="47.91631" lon="4.0786">
        <ele>229.89</ele>
        <time>2021-08-10T22:04:31Z</time>
      </trkpt>
      <trkpt lat="47.91632" lon="4.07858">
        <ele>229.89</ele>
        <time>2021-08-10T22:04:32Z</time>
      </trkpt>
      <trkpt lat="47.91637" lon="4.07852">
        <ele>229.89</ele>
        <time>2021-08-10T22:04:36Z</time>
      </trkpt>
      <trkpt lat="47.91637" lon="4.0785">
        <ele>230.37</ele>
        <time>2021-08-10T22:04:37Z</time>
      </trkpt>
      <trkpt lat="47.91636" lon="4.07838">
        <ele>230.85</ele>
        <time>2021-08-10T22:04:43Z</time>
      </trkpt>
      <trkpt lat="47.91637" lon="4.07837">
        <ele>230.85</ele>
        <time>2021-08-10T22:04:44Z</time>
      </trkpt>
      <trkpt lat="47.91642" lon="4.07827">
        <ele>230.85</ele>
        <time>2021-08-10T22:04:51Z</time>
      </trkpt>
      <trkpt lat="47.91645" lon="4.07818">
        <ele>231.33</ele>
        <time>2021-08-10T22:04:58Z</time>
      </trkpt>
      <trkpt lat="47.91647" lon="4.07818">
        <ele>231.81</ele>
        <time>2021-08-10T22:05:02Z</time>
      </trkpt>
      <trkpt lat="47.91648" lon="4.07818">
        <ele>231.81</ele>
        <time>2021-08-10T22:05:03Z</time>
      </trkpt>
      <trkpt lat="47.91649" lon="4.07818">
        <ele>231.81</ele>
        <time>2021-08-10T22:05:04Z</time>
      </trkpt>
      <trkpt lat="47.9165" lon="4.07817">
        <ele>231.81</ele>
        <time>2021-08-10T22:05:05Z</time>
      </trkpt>
      <trkpt lat="47.91653" lon="4.07818">
        <ele>231.81</ele>
        <time>2021-08-10T22:05:13Z</time>
      </trkpt>
      <trkpt lat="47.91658" lon="4.07818">
        <ele>232.3</ele>
        <time>2021-08-10T22:05:19Z</time>
      </trkpt>
      <trkpt lat="47.91658" lon="4.07815">
        <ele>232.3</ele>
        <time>2021-08-10T22:05:21Z</time>
      </trkpt>
      <trkpt lat="47.9166" lon="4.07815">
        <ele>232.3</ele>
        <time>2021-08-10T22:05:26Z</time>
      </trkpt>
      <trkpt lat="47.91661" lon="4.07815">
        <ele>232.3</ele>
        <time>2021-08-10T22:05:27Z</time>
      </trkpt>
      <trkpt lat="47.91665" lon="4.07816">
        <ele>232.3</ele>
        <time>2021-08-10T22:05:31Z</time>
      </trkpt>
      <trkpt lat="47.91666" lon="4.07814">
        <ele>232.3</ele>
        <time>2021-08-10T22:05:32Z</time>
      </trkpt>
      <trkpt lat="47.91667" lon="4.07813">
        <ele>232.3</ele>
        <time>2021-08-10T22:05:33Z</time>
      </trkpt>
      <trkpt lat="47.9167" lon="4.07805">
        <ele>232.3</ele>
        <time>2021-08-10T22:05:43Z</time>
      </trkpt>
      <trkpt lat="47.91674" lon="4.07797">
        <ele>232.3</ele>
        <time>2021-08-10T22:05:52Z</time>
      </trkpt>
      <trkpt lat="47.91677" lon="4.07788">
        <ele>232.3</ele>
        <time>2021-08-10T22:05:59Z</time>
      </trkpt>
    </trkseg>
  </trk>
  <trk>
    <name><![CDATA[05 FD]]></name>
    <trkseg>
      <trkpt lat="47.91685" lon="4.07791">
        <ele>240.47</ele>
        <time>2021-08-10T23:24:09Z</time>
      </trkpt>
      <trkpt lat="47.92339" lon="4.07964">
        <ele>296.7</ele>
        <time>2021-08-11T04:00:40Z</time>
      </trkpt>
      <trkpt lat="47.92334" lon="4.07965">
        <ele>299.59</ele>
        <time>2021-08-11T04:01:08Z</time>
      </trkpt>
      <trkpt lat="47.92334" lon="4.07965">
        <ele>299.59</ele>
        <time>2021-08-11T04:03:06Z</time>
      </trkpt>
      <trkpt lat="47.92334" lon="4.07965">
        <ele>299.59</ele>
        <time>2021-08-11T04:03:21Z</time>
      </trkpt>
      <trkpt lat="47.92337" lon="4.07962">
        <ele>299.59</ele>
        <time>2021-08-11T04:03:40Z</time>
      </trkpt>
      <trkpt lat="47.92337" lon="4.07962">
        <ele>299.59</ele>
        <time>2021-08-11T04:03:56Z</time>
      </trkpt>
      <trkpt lat="47.92337" lon="4.07959">
        <ele>299.11</ele>
        <time>2021-08-11T04:04:06Z</time>
      </trkpt>
      <trkpt lat="47.9233" lon="4.07958">
        <ele>299.11</ele>
        <time>2021-08-11T04:04:13Z</time>
      </trkpt>
      <trkpt lat="47.92326" lon="4.07956">
        <ele>299.11</ele>
        <time>2021-08-11T04:04:29Z</time>
      </trkpt>
      <trkpt lat="47.92307" lon="4.07952">
        <ele>297.67</ele>
        <time>2021-08-11T04:04:35Z</time>
      </trkpt>
      <trkpt lat="47.9227" lon="4.07945">
        <ele>295.26</ele>
        <time>2021-08-11T04:04:42Z</time>
      </trkpt>
      <trkpt lat="47.92242" lon="4.07939">
        <ele>293.34</ele>
        <time>2021-08-11T04:04:46Z</time>
      </trkpt>
      <trkpt lat="47.92235" lon="4.07939">
        <ele>291.9</ele>
        <time>2021-08-11T04:04:47Z</time>
      </trkpt>
      <trkpt lat="47.92227" lon="4.0794">
        <ele>291.9</ele>
        <time>2021-08-11T04:04:48Z</time>
      </trkpt>
      <trkpt lat="47.92213" lon="4.07944">
        <ele>290.94</ele>
        <time>2021-08-11T04:04:50Z</time>
      </trkpt>
      <trkpt lat="47.92192" lon="4.07955">
        <ele>289.49</ele>
        <time>2021-08-11T04:04:53Z</time>
      </trkpt>
      <trkpt lat="47.92164" lon="4.07964">
        <ele>287.57</ele>
        <time>2021-08-11T04:04:57Z</time>
      </trkpt>
      <trkpt lat="47.92135" lon="4.07961">
        <ele>284.69</ele>
        <time>2021-08-11T04:05:02Z</time>
      </trkpt>
      <trkpt lat="47.92106" lon="4.07954">
        <ele>281.32</ele>
        <time>2021-08-11T04:05:06Z</time>
      </trkpt>
      <trkpt lat="47.92073" lon="4.07938">
        <ele>277.96</ele>
        <time>2021-08-11T04:05:10Z</time>
      </trkpt>
      <trkpt lat="47.92065" lon="4.07934">
        <ele>277.96</ele>
        <time>2021-08-11T04:05:11Z</time>
      </trkpt>
      <trkpt lat="47.92033" lon="4.07916">
        <ele>274.59</ele>
        <time>2021-08-11T04:05:15Z</time>
      </trkpt>
      <trkpt lat="47.91974" lon="4.0788">
        <ele>271.23</ele>
        <time>2021-08-11T04:05:23Z</time>
      </trkpt>
      <trkpt lat="47.91945" lon="4.07863">
        <ele>268.35</ele>
        <time>2021-08-11T04:05:28Z</time>
      </trkpt>
      <trkpt lat="47.91939" lon="4.07861">
        <ele>267.38</ele>
        <time>2021-08-11T04:05:29Z</time>
      </trkpt>
      <trkpt lat="47.91915" lon="4.07855">
        <ele>264.02</ele>
        <time>2021-08-11T04:05:33Z</time>
      </trkpt>
      <trkpt lat="47.9191" lon="4.07853">
        <ele>263.06</ele>
        <time>2021-08-11T04:05:34Z</time>
      </trkpt>
      <trkpt lat="47.91887" lon="4.07848">
        <ele>259.69</ele>
        <time>2021-08-11T04:05:38Z</time>
      </trkpt>
      <trkpt lat="47.91876" lon="4.07845">
        <ele>257.77</ele>
        <time>2021-08-11T04:05:40Z</time>
      </trkpt>
      <trkpt lat="47.9187" lon="4.07843">
        <ele>257.77</ele>
        <time>2021-08-11T04:05:41Z</time>
      </trkpt>
      <trkpt lat="47.91849" lon="4.07838">
        <ele>253.93</ele>
        <time>2021-08-11T04:05:45Z</time>
      </trkpt>
      <trkpt lat="47.91843" lon="4.07837">
        <ele>253.93</ele>
        <time>2021-08-11T04:05:46Z</time>
      </trkpt>
      <trkpt lat="47.91818" lon="4.07831">
        <ele>250.56</ele>
        <time>2021-08-11T04:05:50Z</time>
      </trkpt>
      <trkpt lat="47.91788" lon="4.07823">
        <ele>247.68</ele>
        <time>2021-08-11T04:05:54Z</time>
      </trkpt>
      <trkpt lat="47.91756" lon="4.07805">
        <ele>244.31</ele>
        <time>2021-08-11T04:05:58Z</time>
      </trkpt>
      <trkpt lat="47.91734" lon="4.07792">
        <ele>242.87</ele>
        <time>2021-08-11T04:06:01Z</time>
      </trkpt>
      <trkpt lat="47.91688" lon="4.07767">
        <ele>239.99</ele>
        <time>2021-08-11T04:06:08Z</time>
      </trkpt>
      <trkpt lat="47.91669" lon="4.07755">
        <ele>239.51</ele>
        <time>2021-08-11T04:06:12Z</time>
      </trkpt>
      <trkpt lat="47.91668" lon="4.07752">
        <ele>239.99</ele>
        <time>2021-08-11T04:06:13Z</time>
      </trkpt>
      <trkpt lat="47.91668" lon="4.07748">
        <ele>239.99</ele>
        <time>2021-08-11T04:06:14Z</time>
      </trkpt>
      <trkpt lat="47.9167" lon="4.07745">
        <ele>239.99</ele>
        <time>2021-08-11T04:06:15Z</time>
      </trkpt>
      <trkpt lat="47.91671" lon="4.07743">
        <ele>239.99</ele>
        <time>2021-08-11T04:06:16Z</time>
      </trkpt>
      <trkpt lat="47.91672" lon="4.0774">
        <ele>239.51</ele>
        <time>2021-08-11T04:06:17Z</time>
      </trkpt>
      <trkpt lat="47.91674" lon="4.07736">
        <ele>239.51</ele>
        <time>2021-08-11T04:06:18Z</time>
      </trkpt>
      <trkpt lat="47.9168" lon="4.07717">
        <ele>239.51</ele>
        <time>2021-08-11T04:06:24Z</time>
      </trkpt>
      <trkpt lat="47.91673" lon="4.07698">
        <ele>239.51</ele>
        <time>2021-08-11T04:06:29Z</time>
      </trkpt>
      <trkpt lat="47.91661" lon="4.07657">
        <ele>238.54</ele>
        <time>2021-08-11T04:06:37Z</time>
      </trkpt>
      <trkpt lat="47.91653" lon="4.07608">
        <ele>238.54</ele>
        <time>2021-08-11T04:06:46Z</time>
      </trkpt>
      <trkpt lat="47.91648" lon="4.07574">
        <ele>240.47</ele>
        <time>2021-08-11T04:06:53Z</time>
      </trkpt>
      <trkpt lat="47.91636" lon="4.07513">
        <ele>241.43</ele>
        <time>2021-08-11T04:07:05Z</time>
      </trkpt>
      <trkpt lat="47.91627" lon="4.07457">
        <ele>241.43</ele>
        <time>2021-08-11T04:07:15Z</time>
      </trkpt>
      <trkpt lat="47.91629" lon="4.07436">
        <ele>240.95</ele>
        <time>2021-08-11T04:07:20Z</time>
      </trkpt>
      <trkpt lat="47.9163" lon="4.07428">
        <ele>241.43</ele>
        <time>2021-08-11T04:07:26Z</time>
      </trkpt>
      <trkpt lat="47.91632" lon="4.07415">
        <ele>241.43</ele>
        <time>2021-08-11T04:07:32Z</time>
      </trkpt>
      <trkpt lat="47.91634" lon="4.07403">
        <ele>241.43</ele>
        <time>2021-08-11T04:07:38Z</time>
      </trkpt>
      <trkpt lat="47.91635" lon="4.07403">
        <ele>242.39</ele>
        <time>2021-08-11T04:07:43Z</time>
      </trkpt>
      <trkpt lat="47.91645" lon="4.07406">
        <ele>243.35</ele>
        <time>2021-08-11T04:07:52Z</time>
      </trkpt>
      <trkpt lat="47.91647" lon="4.07407">
        <ele>243.35</ele>
        <time>2021-08-11T04:07:58Z</time>
      </trkpt>
      <trkpt lat="47.91649" lon="4.07406">
        <ele>243.35</ele>
        <time>2021-08-11T04:08:11Z</time>
      </trkpt>
      <trkpt lat="47.91648" lon="4.07405">
        <ele>243.35</ele>
        <time>2021-08-11T04:08:29Z</time>
      </trkpt>
      <trkpt lat="47.91647" lon="4.07405">
        <ele>243.35</ele>
        <time>2021-08-11T04:08:33Z</time>
      </trkpt>
      <trkpt lat="47.91643" lon="4.07403">
        <ele>243.35</ele>
        <time>2021-08-11T04:08:39Z</time>
      </trkpt>
      <trkpt lat="47.9164" lon="4.07403">
        <ele>243.35</ele>
        <time>2021-08-11T04:09:01Z</time>
      </trkpt>
      <trkpt lat="47.91641" lon="4.07404">
        <ele>242.87</ele>
        <time>2021-08-11T04:09:18Z</time>
      </trkpt>
      <trkpt lat="47.91634" lon="4.07407">
        <ele>241.91</ele>
        <time>2021-08-11T04:09:22Z</time>
      </trkpt>
      <trkpt lat="47.91631" lon="4.0741">
        <ele>241.91</ele>
        <time>2021-08-11T04:09:23Z</time>
      </trkpt>
      <trkpt lat="47.9163" lon="4.07414">
        <ele>240.95</ele>
        <time>2021-08-11T04:09:24Z</time>
      </trkpt>
      <trkpt lat="47.9163" lon="4.07418">
        <ele>240.95</ele>
        <time>2021-08-11T04:09:25Z</time>
      </trkpt>
      <trkpt lat="47.9163" lon="4.07422">
        <ele>240.95</ele>
        <time>2021-08-11T04:09:26Z</time>
      </trkpt>
      <trkpt lat="47.9163" lon="4.07425">
        <ele>240.95</ele>
        <time>2021-08-11T04:09:27Z</time>
      </trkpt>
      <trkpt lat="47.9163" lon="4.07429">
        <ele>240.95</ele>
        <time>2021-08-11T04:09:33Z</time>
      </trkpt>
      <trkpt lat="47.9163" lon="4.07431">
        <ele>240.47</ele>
        <time>2021-08-11T04:09:40Z</time>
      </trkpt>
      <trkpt lat="47.9163" lon="4.07432">
        <ele>240.47</ele>
        <time>2021-08-11T04:09:41Z</time>
      </trkpt>
      <trkpt lat="47.91624" lon="4.07432">
        <ele>239.99</ele>
        <time>2021-08-11T04:09:44Z</time>
      </trkpt>
      <trkpt lat="47.91624" lon="4.07429">
        <ele>239.99</ele>
        <time>2021-08-11T04:09:45Z</time>
      </trkpt>
      <trkpt lat="47.91624" lon="4.07425">
        <ele>239.51</ele>
        <time>2021-08-11T04:09:46Z</time>
      </trkpt>
      <trkpt lat="47.91625" lon="4.0742">
        <ele>239.51</ele>
        <time>2021-08-11T04:09:47Z</time>
      </trkpt>
      <trkpt lat="47.91625" lon="4.07415">
        <ele>239.51</ele>
        <time>2021-08-11T04:09:48Z</time>
      </trkpt>
      <trkpt lat="47.91629" lon="4.07385">
        <ele>239.02</ele>
        <time>2021-08-11T04:09:53Z</time>
      </trkpt>
      <trkpt lat="47.91641" lon="4.07319">
        <ele>237.58</ele>
        <time>2021-08-11T04:10:02Z</time>
      </trkpt>
      <trkpt lat="47.91657" lon="4.07244">
        <ele>236.14</ele>
        <time>2021-08-11T04:10:11Z</time>
      </trkpt>
      <trkpt lat="47.91672" lon="4.0716">
        <ele>234.7</ele>
        <time>2021-08-11T04:10:20Z</time>
      </trkpt>
      <trkpt lat="47.91677" lon="4.07057">
        <ele>233.26</ele>
        <time>2021-08-11T04:10:30Z</time>
      </trkpt>
      <trkpt lat="47.91678" lon="4.06982">
        <ele>233.26</ele>
        <time>2021-08-11T04:10:38Z</time>
      </trkpt>
      <trkpt lat="47.91684" lon="4.06923">
        <ele>233.26</ele>
        <time>2021-08-11T04:10:45Z</time>
      </trkpt>
      <trkpt lat="47.91691" lon="4.06848">
        <ele>234.22</ele>
        <time>2021-08-11T04:10:55Z</time>
      </trkpt>
      <trkpt lat="47.91701" lon="4.06775">
        <ele>235.18</ele>
        <time>2021-08-11T04:11:06Z</time>
      </trkpt>
      <trkpt lat="47.91704" lon="4.06721">
        <ele>236.14</ele>
        <time>2021-08-11T04:11:15Z</time>
      </trkpt>
      <trkpt lat="47.91705" lon="4.06667">
        <ele>237.1</ele>
        <time>2021-08-11T04:11:25Z</time>
      </trkpt>
      <trkpt lat="47.91695" lon="4.06639">
        <ele>237.58</ele>
        <time>2021-08-11T04:11:31Z</time>
      </trkpt>
      <trkpt lat="47.91681" lon="4.06617">
        <ele>237.58</ele>
        <time>2021-08-11T04:11:36Z</time>
      </trkpt>
      <trkpt lat="47.91674" lon="4.06612">
        <ele>237.58</ele>
        <time>2021-08-11T04:11:38Z</time>
      </trkpt>
      <trkpt lat="47.91671" lon="4.06612">
        <ele>237.58</ele>
        <time>2021-08-11T04:11:39Z</time>
      </trkpt>
      <trkpt lat="47.91668" lon="4.06612">
        <ele>237.58</ele>
        <time>2021-08-11T04:11:40Z</time>
      </trkpt>
      <trkpt lat="47.91639" lon="4.06608">
        <ele>238.06</ele>
        <time>2021-08-11T04:11:49Z</time>
      </trkpt>
      <trkpt lat="47.91633" lon="4.06597">
        <ele>238.54</ele>
        <time>2021-08-11T04:11:52Z</time>
      </trkpt>
      <trkpt lat="47.91632" lon="4.06593">
        <ele>238.54</ele>
        <time>2021-08-11T04:11:53Z</time>
      </trkpt>
      <trkpt lat="47.91632" lon="4.06589">
        <ele>238.54</ele>
        <time>2021-08-11T04:11:54Z</time>
      </trkpt>
      <trkpt lat="47.91622" lon="4.06547">
        <ele>239.02</ele>
        <time>2021-08-11T04:12:04Z</time>
      </trkpt>
      <trkpt lat="47.91614" lon="4.06534">
        <ele>239.99</ele>
        <time>2021-08-11T04:12:10Z</time>
      </trkpt>
      <trkpt lat="47.91604" lon="4.06538">
        <ele>240.95</ele>
        <time>2021-08-11T04:12:16Z</time>
      </trkpt>
      <trkpt lat="47.91598" lon="4.06559">
        <ele>241.91</ele>
        <time>2021-08-11T04:12:24Z</time>
      </trkpt>
      <trkpt lat="47.91592" lon="4.06575">
        <ele>242.87</ele>
        <time>2021-08-11T04:12:31Z</time>
      </trkpt>
      <trkpt lat="47.9159" lon="4.06579">
        <ele>242.87</ele>
        <time>2021-08-11T04:12:33Z</time>
      </trkpt>
      <trkpt lat="47.91583" lon="4.06582">
        <ele>244.31</ele>
        <time>2021-08-11T04:12:39Z</time>
      </trkpt>
      <trkpt lat="47.91579" lon="4.06578">
        <ele>244.31</ele>
        <time>2021-08-11T04:12:42Z</time>
      </trkpt>
      <trkpt lat="47.91578" lon="4.06577">
        <ele>244.79</ele>
        <time>2021-08-11T04:12:43Z</time>
      </trkpt>
      <trkpt lat="47.91578" lon="4.06576">
        <ele>244.79</ele>
        <time>2021-08-11T04:12:44Z</time>
      </trkpt>
      <trkpt lat="47.91576" lon="4.06574">
        <ele>244.79</ele>
        <time>2021-08-11T04:12:45Z</time>
      </trkpt>
      <trkpt lat="47.91575" lon="4.06573">
        <ele>245.27</ele>
        <time>2021-08-11T04:12:46Z</time>
      </trkpt>
      <trkpt lat="47.91574" lon="4.06571">
        <ele>245.27</ele>
        <time>2021-08-11T04:12:47Z</time>
      </trkpt>
      <trkpt lat="47.91573" lon="4.06569">
        <ele>245.27</ele>
        <time>2021-08-11T04:12:48Z</time>
      </trkpt>
      <trkpt lat="47.91566" lon="4.06555">
        <ele>246.72</ele>
        <time>2021-08-11T04:12:56Z</time>
      </trkpt>
      <trkpt lat="47.91559" lon="4.06541">
        <ele>248.16</ele>
        <time>2021-08-11T04:13:05Z</time>
      </trkpt>
      <trkpt lat="47.91552" lon="4.06529">
        <ele>249.6</ele>
        <time>2021-08-11T04:13:14Z</time>
      </trkpt>
      <trkpt lat="47.9155" lon="4.06525">
        <ele>249.6</ele>
        <time>2021-08-11T04:13:18Z</time>
      </trkpt>
      <trkpt lat="47.9155" lon="4.06528">
        <ele>250.08</ele>
        <time>2021-08-11T04:13:21Z</time>
      </trkpt>
      <trkpt lat="47.91551" lon="4.0653">
        <ele>250.08</ele>
        <time>2021-08-11T04:13:22Z</time>
      </trkpt>
      <trkpt lat="47.91559" lon="4.06542">
        <ele>248.16</ele>
        <time>2021-08-11T04:13:26Z</time>
      </trkpt>
      <trkpt lat="47.91571" lon="4.0657">
        <ele>245.75</ele>
        <time>2021-08-11T04:13:33Z</time>
      </trkpt>
      <trkpt lat="47.91582" lon="4.06583">
        <ele>244.31</ele>
        <time>2021-08-11T04:13:37Z</time>
      </trkpt>
      <trkpt lat="47.91586" lon="4.06583">
        <ele>243.35</ele>
        <time>2021-08-11T04:13:38Z</time>
      </trkpt>
      <trkpt lat="47.91589" lon="4.06581">
        <ele>243.35</ele>
        <time>2021-08-11T04:13:39Z</time>
      </trkpt>
      <trkpt lat="47.91592" lon="4.06578">
        <ele>242.87</ele>
        <time>2021-08-11T04:13:40Z</time>
      </trkpt>
      <trkpt lat="47.91596" lon="4.06574">
        <ele>242.39</ele>
        <time>2021-08-11T04:13:41Z</time>
      </trkpt>
      <trkpt lat="47.91599" lon="4.0657">
        <ele>242.39</ele>
        <time>2021-08-11T04:13:42Z</time>
      </trkpt>
      <trkpt lat="47.91606" lon="4.06544">
        <ele>241.43</ele>
        <time>2021-08-11T04:13:47Z</time>
      </trkpt>
      <trkpt lat="47.9161" lon="4.06525">
        <ele>239.99</ele>
        <time>2021-08-11T04:13:50Z</time>
      </trkpt>
      <trkpt lat="47.9161" lon="4.0652">
        <ele>240.47</ele>
        <time>2021-08-11T04:13:51Z</time>
      </trkpt>
      <trkpt lat="47.9161" lon="4.06516">
        <ele>239.99</ele>
        <time>2021-08-11T04:13:52Z</time>
      </trkpt>
      <trkpt lat="47.91612" lon="4.065">
        <ele>241.91</ele>
        <time>2021-08-11T04:13:58Z</time>
      </trkpt>
      <trkpt lat="47.91618" lon="4.06483">
        <ele>242.87</ele>
        <time>2021-08-11T04:14:06Z</time>
      </trkpt>
      <trkpt lat="47.91627" lon="4.06461">
        <ele>243.35</ele>
        <time>2021-08-11T04:14:14Z</time>
      </trkpt>
      <trkpt lat="47.9164" lon="4.06433">
        <ele>243.35</ele>
        <time>2021-08-11T04:14:22Z</time>
      </trkpt>
      <trkpt lat="47.91645" lon="4.06413">
        <ele>241.91</ele>
        <time>2021-08-11T04:14:26Z</time>
      </trkpt>
      <trkpt lat="47.91651" lon="4.06377">
        <ele>239.99</ele>
        <time>2021-08-11T04:14:31Z</time>
      </trkpt>
      <trkpt lat="47.91655" lon="4.06346">
        <ele>239.99</ele>
        <time>2021-08-11T04:14:36Z</time>
      </trkpt>
      <trkpt lat="47.91655" lon="4.06303">
        <ele>239.99</ele>
        <time>2021-08-11T04:14:45Z</time>
      </trkpt>
      <trkpt lat="47.9165" lon="4.06273">
        <ele>241.43</ele>
        <time>2021-08-11T04:14:51Z</time>
      </trkpt>
      <trkpt lat="47.91646" lon="4.06239">
        <ele>241.91</ele>
        <time>2021-08-11T04:14:59Z</time>
      </trkpt>
      <trkpt lat="47.91642" lon="4.06204">
        <ele>241.91</ele>
        <time>2021-08-11T04:15:06Z</time>
      </trkpt>
      <trkpt lat="47.91638" lon="4.06174">
        <ele>241.91</ele>
        <time>2021-08-11T04:15:11Z</time>
      </trkpt>
      <trkpt lat="47.91632" lon="4.06119">
        <ele>241.43</ele>
        <time>2021-08-11T04:15:20Z</time>
      </trkpt>
      <trkpt lat="47.91627" lon="4.06045">
        <ele>241.43</ele>
        <time>2021-08-11T04:15:32Z</time>
      </trkpt>
      <trkpt lat="47.9163" lon="4.05984">
        <ele>241.43</ele>
        <time>2021-08-11T04:15:42Z</time>
      </trkpt>
      <trkpt lat="47.91637" lon="4.05928">
        <ele>241.91</ele>
        <time>2021-08-11T04:15:52Z</time>
      </trkpt>
      <trkpt lat="47.9164" lon="4.05881">
        <ele>241.91</ele>
        <time>2021-08-11T04:16:00Z</time>
      </trkpt>
      <trkpt lat="47.91635" lon="4.05839">
        <ele>242.39</ele>
        <time>2021-08-11T04:16:08Z</time>
      </trkpt>
      <trkpt lat="47.91617" lon="4.05802">
        <ele>242.39</ele>
        <time>2021-08-11T04:16:17Z</time>
      </trkpt>
      <trkpt lat="47.91599" lon="4.05761">
        <ele>242.39</ele>
        <time>2021-08-11T04:16:27Z</time>
      </trkpt>
      <trkpt lat="47.91575" lon="4.05718">
        <ele>242.87</ele>
        <time>2021-08-11T04:16:38Z</time>
      </trkpt>
      <trkpt lat="47.91549" lon="4.05681">
        <ele>243.35</ele>
        <time>2021-08-11T04:16:49Z</time>
      </trkpt>
      <trkpt lat="47.91526" lon="4.05653">
        <ele>244.31</ele>
        <time>2021-08-11T04:16:59Z</time>
      </trkpt>
      <trkpt lat="47.9151" lon="4.05635">
        <ele>244.31</ele>
        <time>2021-08-11T04:17:06Z</time>
      </trkpt>
      <trkpt lat="47.91492" lon="4.05622">
        <ele>244.31</ele>
        <time>2021-08-11T04:17:13Z</time>
      </trkpt>
      <trkpt lat="47.91479" lon="4.05613">
        <ele>244.79</ele>
        <time>2021-08-11T04:17:19Z</time>
      </trkpt>
      <trkpt lat="47.91455" lon="4.05603">
        <ele>245.27</ele>
        <time>2021-08-11T04:17:27Z</time>
      </trkpt>
      <trkpt lat="47.91433" lon="4.05597">
        <ele>245.75</ele>
        <time>2021-08-11T04:17:35Z</time>
      </trkpt>
      <trkpt lat="47.91405" lon="4.0559">
        <ele>245.75</ele>
        <time>2021-08-11T04:17:43Z</time>
      </trkpt>
      <trkpt lat="47.91378" lon="4.05578">
        <ele>246.72</ele>
        <time>2021-08-11T04:17:52Z</time>
      </trkpt>
      <trkpt lat="47.91362" lon="4.0557">
        <ele>246.72</ele>
        <time>2021-08-11T04:17:58Z</time>
      </trkpt>
      <trkpt lat="47.91345" lon="4.05562">
        <ele>247.2</ele>
        <time>2021-08-11T04:18:04Z</time>
      </trkpt>
      <trkpt lat="47.91332" lon="4.05558">
        <ele>247.2</ele>
        <time>2021-08-11T04:18:09Z</time>
      </trkpt>
      <trkpt lat="47.91337" lon="4.05556">
        <ele>247.2</ele>
        <time>2021-08-11T04:18:23Z</time>
      </trkpt>
      <trkpt lat="47.91336" lon="4.05555">
        <ele>247.2</ele>
        <time>2021-08-11T04:18:24Z</time>
      </trkpt>
      <trkpt lat="47.91328" lon="4.05546">
        <ele>247.2</ele>
        <time>2021-08-11T04:18:31Z</time>
      </trkpt>
      <trkpt lat="47.91318" lon="4.05538">
        <ele>247.68</ele>
        <time>2021-08-11T04:18:39Z</time>
      </trkpt>
      <trkpt lat="47.91303" lon="4.05528">
        <ele>247.68</ele>
        <time>2021-08-11T04:18:46Z</time>
      </trkpt>
      <trkpt lat="47.91274" lon="4.05517">
        <ele>248.64</ele>
        <time>2021-08-11T04:18:53Z</time>
      </trkpt>
      <trkpt lat="47.91258" lon="4.05507">
        <ele>249.12</ele>
        <time>2021-08-11T04:19:01Z</time>
      </trkpt>
      <trkpt lat="47.91231" lon="4.05501">
        <ele>249.6</ele>
        <time>2021-08-11T04:19:09Z</time>
      </trkpt>
      <trkpt lat="47.91206" lon="4.05492">
        <ele>250.08</ele>
        <time>2021-08-11T04:19:16Z</time>
      </trkpt>
      <trkpt lat="47.91181" lon="4.05477">
        <ele>251.52</ele>
        <time>2021-08-11T04:19:23Z</time>
      </trkpt>
      <trkpt lat="47.9116" lon="4.05461">
        <ele>252</ele>
        <time>2021-08-11T04:19:31Z</time>
      </trkpt>
      <trkpt lat="47.91137" lon="4.05449">
        <ele>252.96</ele>
        <time>2021-08-11T04:19:38Z</time>
      </trkpt>
      <trkpt lat="47.9112" lon="4.05433">
        <ele>253.44</ele>
        <time>2021-08-11T04:19:45Z</time>
      </trkpt>
      <trkpt lat="47.9111" lon="4.05412">
        <ele>253.93</ele>
        <time>2021-08-11T04:19:52Z</time>
      </trkpt>
      <trkpt lat="47.91096" lon="4.05386">
        <ele>254.89</ele>
        <time>2021-08-11T04:20:01Z</time>
      </trkpt>
      <trkpt lat="47.91071" lon="4.05364">
        <ele>255.85</ele>
        <time>2021-08-11T04:20:09Z</time>
      </trkpt>
      <trkpt lat="47.91058" lon="4.05338">
        <ele>256.33</ele>
        <time>2021-08-11T04:20:17Z</time>
      </trkpt>
      <trkpt lat="47.91041" lon="4.05296">
        <ele>257.77</ele>
        <time>2021-08-11T04:20:28Z</time>
      </trkpt>
      <trkpt lat="47.91028" lon="4.05262">
        <ele>258.25</ele>
        <time>2021-08-11T04:20:38Z</time>
      </trkpt>
      <trkpt lat="47.91018" lon="4.05235">
        <ele>258.73</ele>
        <time>2021-08-11T04:20:46Z</time>
      </trkpt>
      <trkpt lat="47.91002" lon="4.05204">
        <ele>259.69</ele>
        <time>2021-08-11T04:20:56Z</time>
      </trkpt>
      <trkpt lat="47.90977" lon="4.05178">
        <ele>260.65</ele>
        <time>2021-08-11T04:21:08Z</time>
      </trkpt>
      <trkpt lat="47.90964" lon="4.0517">
        <ele>262.1</ele>
        <time>2021-08-11T04:21:16Z</time>
      </trkpt>
      <trkpt lat="47.90957" lon="4.05163">
        <ele>263.06</ele>
        <time>2021-08-11T04:21:23Z</time>
      </trkpt>
      <trkpt lat="47.90949" lon="4.05154">
        <ele>264.98</ele>
        <time>2021-08-11T04:21:32Z</time>
      </trkpt>
      <trkpt lat="47.90942" lon="4.05146">
        <ele>265.94</ele>
        <time>2021-08-11T04:21:40Z</time>
      </trkpt>
      <trkpt lat="47.90937" lon="4.0514">
        <ele>267.38</ele>
        <time>2021-08-11T04:21:47Z</time>
      </trkpt>
      <trkpt lat="47.90931" lon="4.05132">
        <ele>268.83</ele>
        <time>2021-08-11T04:21:54Z</time>
      </trkpt>
      <trkpt lat="47.90926" lon="4.05122">
        <ele>270.27</ele>
        <time>2021-08-11T04:22:01Z</time>
      </trkpt>
      <trkpt lat="47.90924" lon="4.0512">
        <ele>270.27</ele>
        <time>2021-08-11T04:22:03Z</time>
      </trkpt>
      <trkpt lat="47.9092" lon="4.05115">
        <ele>271.71</ele>
        <time>2021-08-11T04:22:10Z</time>
      </trkpt>
      <trkpt lat="47.90914" lon="4.05109">
        <ele>272.67</ele>
        <time>2021-08-11T04:22:18Z</time>
      </trkpt>
      <trkpt lat="47.90906" lon="4.05104">
        <ele>273.63</ele>
        <time>2021-08-11T04:22:28Z</time>
      </trkpt>
      <trkpt lat="47.90901" lon="4.05102">
        <ele>275.07</ele>
        <time>2021-08-11T04:22:36Z</time>
      </trkpt>
      <trkpt lat="47.90896" lon="4.05101">
        <ele>276.52</ele>
        <time>2021-08-11T04:22:45Z</time>
      </trkpt>
      <trkpt lat="47.90889" lon="4.05098">
        <ele>278.44</ele>
        <time>2021-08-11T04:22:55Z</time>
      </trkpt>
      <trkpt lat="47.90888" lon="4.05097">
        <ele>278.44</ele>
        <time>2021-08-11T04:22:57Z</time>
      </trkpt>
      <trkpt lat="47.90881" lon="4.05095">
        <ele>279.88</ele>
        <time>2021-08-11T04:23:05Z</time>
      </trkpt>
      <trkpt lat="47.90872" lon="4.05092">
        <ele>280.84</ele>
        <time>2021-08-11T04:23:12Z</time>
      </trkpt>
      <trkpt lat="47.90864" lon="4.05091">
        <ele>281.8</ele>
        <time>2021-08-11T04:23:20Z</time>
      </trkpt>
      <trkpt lat="47.90853" lon="4.05088">
        <ele>282.77</ele>
        <time>2021-08-11T04:23:29Z</time>
      </trkpt>
      <trkpt lat="47.90847" lon="4.05082">
        <ele>284.21</ele>
        <time>2021-08-11T04:23:36Z</time>
      </trkpt>
      <trkpt lat="47.90845" lon="4.0508">
        <ele>284.21</ele>
        <time>2021-08-11T04:23:37Z</time>
      </trkpt>
      <trkpt lat="47.90838" lon="4.05071">
        <ele>285.17</ele>
        <time>2021-08-11T04:23:44Z</time>
      </trkpt>
      <trkpt lat="47.90829" lon="4.05059">
        <ele>286.13</ele>
        <time>2021-08-11T04:23:52Z</time>
      </trkpt>
      <trkpt lat="47.90818" lon="4.05047">
        <ele>287.09</ele>
        <time>2021-08-11T04:24:00Z</time>
      </trkpt>
      <trkpt lat="47.90817" lon="4.05045">
        <ele>287.09</ele>
        <time>2021-08-11T04:24:01Z</time>
      </trkpt>
      <trkpt lat="47.90804" lon="4.05025">
        <ele>288.05</ele>
        <time>2021-08-11T04:24:11Z</time>
      </trkpt>
      <trkpt lat="47.90795" lon="4.0501">
        <ele>289.49</ele>
        <time>2021-08-11T04:24:18Z</time>
      </trkpt>
      <trkpt lat="47.90785" lon="4.0499">
        <ele>289.97</ele>
        <time>2021-08-11T04:24:26Z</time>
      </trkpt>
      <trkpt lat="47.90774" lon="4.04961">
        <ele>291.42</ele>
        <time>2021-08-11T04:24:37Z</time>
      </trkpt>
      <trkpt lat="47.90761" lon="4.0493">
        <ele>292.86</ele>
        <time>2021-08-11T04:24:49Z</time>
      </trkpt>
      <trkpt lat="47.90754" lon="4.0491">
        <ele>293.82</ele>
        <time>2021-08-11T04:24:57Z</time>
      </trkpt>
      <trkpt lat="47.90745" lon="4.04876">
        <ele>295.74</ele>
        <time>2021-08-11T04:25:10Z</time>
      </trkpt>
      <trkpt lat="47.90738" lon="4.04851">
        <ele>296.7</ele>
        <time>2021-08-11T04:25:19Z</time>
      </trkpt>
      <trkpt lat="47.9073" lon="4.04821">
        <ele>297.67</ele>
        <time>2021-08-11T04:25:30Z</time>
      </trkpt>
      <trkpt lat="47.90724" lon="4.04801">
        <ele>299.11</ele>
        <time>2021-08-11T04:25:38Z</time>
      </trkpt>
      <trkpt lat="47.90721" lon="4.04793">
        <ele>299.59</ele>
        <time>2021-08-11T04:25:41Z</time>
      </trkpt>
      <trkpt lat="47.90721" lon="4.04791">
        <ele>299.59</ele>
        <time>2021-08-11T04:25:42Z</time>
      </trkpt>
      <trkpt lat="47.9072" lon="4.04788">
        <ele>299.59</ele>
        <time>2021-08-11T04:25:43Z</time>
      </trkpt>
      <trkpt lat="47.90714" lon="4.04761">
        <ele>300.55</ele>
        <time>2021-08-11T04:25:52Z</time>
      </trkpt>
      <trkpt lat="47.90704" lon="4.04729">
        <ele>301.03</ele>
        <time>2021-08-11T04:26:03Z</time>
      </trkpt>
      <trkpt lat="47.90696" lon="4.047">
        <ele>302.47</ele>
        <time>2021-08-11T04:26:12Z</time>
      </trkpt>
      <trkpt lat="47.90687" lon="4.0467">
        <ele>303.43</ele>
        <time>2021-08-11T04:26:21Z</time>
      </trkpt>
      <trkpt lat="47.90676" lon="4.04631">
        <ele>304.39</ele>
        <time>2021-08-11T04:26:31Z</time>
      </trkpt>
      <trkpt lat="47.90664" lon="4.04591">
        <ele>305.84</ele>
        <time>2021-08-11T04:26:42Z</time>
      </trkpt>
      <trkpt lat="47.90655" lon="4.04558">
        <ele>306.32</ele>
        <time>2021-08-11T04:26:51Z</time>
      </trkpt>
      <trkpt lat="47.90646" lon="4.04528">
        <ele>307.76</ele>
        <time>2021-08-11T04:26:59Z</time>
      </trkpt>
      <trkpt lat="47.90635" lon="4.04487">
        <ele>308.24</ele>
        <time>2021-08-11T04:27:09Z</time>
      </trkpt>
      <trkpt lat="47.90623" lon="4.04446">
        <ele>309.68</ele>
        <time>2021-08-11T04:27:18Z</time>
      </trkpt>
      <trkpt lat="47.90607" lon="4.04387">
        <ele>310.64</ele>
        <time>2021-08-11T04:27:31Z</time>
      </trkpt>
      <trkpt lat="47.90592" lon="4.04332">
        <ele>311.6</ele>
        <time>2021-08-11T04:27:43Z</time>
      </trkpt>
      <trkpt lat="47.90575" lon="4.04271">
        <ele>312.57</ele>
        <time>2021-08-11T04:27:56Z</time>
      </trkpt>
      <trkpt lat="47.90553" lon="4.04198">
        <ele>314.01</ele>
        <time>2021-08-11T04:28:12Z</time>
      </trkpt>
      <trkpt lat="47.90536" lon="4.04147">
        <ele>314.49</ele>
        <time>2021-08-11T04:28:23Z</time>
      </trkpt>
      <trkpt lat="47.90518" lon="4.04099">
        <ele>315.93</ele>
        <time>2021-08-11T04:28:34Z</time>
      </trkpt>
      <trkpt lat="47.90504" lon="4.04065">
        <ele>316.41</ele>
        <time>2021-08-11T04:28:42Z</time>
      </trkpt>
      <trkpt lat="47.90491" lon="4.04025">
        <ele>316.89</ele>
        <time>2021-08-11T04:28:51Z</time>
      </trkpt>
      <trkpt lat="47.90476" lon="4.03987">
        <ele>317.37</ele>
        <time>2021-08-11T04:28:59Z</time>
      </trkpt>
      <trkpt lat="47.90464" lon="4.03951">
        <ele>317.37</ele>
        <time>2021-08-11T04:29:06Z</time>
      </trkpt>
      <trkpt lat="47.90455" lon="4.03925">
        <ele>318.33</ele>
        <time>2021-08-11T04:29:12Z</time>
      </trkpt>
      <trkpt lat="47.90437" lon="4.03898">
        <ele>318.81</ele>
        <time>2021-08-11T04:29:19Z</time>
      </trkpt>
      <trkpt lat="47.90405" lon="4.03864">
        <ele>318.33</ele>
        <time>2021-08-11T04:29:28Z</time>
      </trkpt>
      <trkpt lat="47.9039" lon="4.03848">
        <ele>318.33</ele>
        <time>2021-08-11T04:29:32Z</time>
      </trkpt>
      <trkpt lat="47.90344" lon="4.03797">
        <ele>318.33</ele>
        <time>2021-08-11T04:29:44Z</time>
      </trkpt>
      <trkpt lat="47.90305" lon="4.03754">
        <ele>318.33</ele>
        <time>2021-08-11T04:29:54Z</time>
      </trkpt>
      <trkpt lat="47.90262" lon="4.03705">
        <ele>318.81</ele>
        <time>2021-08-11T04:30:05Z</time>
      </trkpt>
      <trkpt lat="47.90227" lon="4.03668">
        <ele>319.78</ele>
        <time>2021-08-11T04:30:14Z</time>
      </trkpt>
      <trkpt lat="47.90194" lon="4.03634">
        <ele>320.74</ele>
        <time>2021-08-11T04:30:23Z</time>
      </trkpt>
      <trkpt lat="47.90191" lon="4.03629">
        <ele>320.74</ele>
        <time>2021-08-11T04:30:24Z</time>
      </trkpt>
      <trkpt lat="47.90175" lon="4.03608">
        <ele>320.74</ele>
        <time>2021-08-11T04:30:29Z</time>
      </trkpt>
      <trkpt lat="47.90172" lon="4.03603">
        <ele>320.74</ele>
        <time>2021-08-11T04:30:30Z</time>
      </trkpt>
      <trkpt lat="47.9017" lon="4.03597">
        <ele>320.74</ele>
        <time>2021-08-11T04:30:31Z</time>
      </trkpt>
      <trkpt lat="47.90168" lon="4.03591">
        <ele>320.74</ele>
        <time>2021-08-11T04:30:32Z</time>
      </trkpt>
      <trkpt lat="47.90167" lon="4.03584">
        <ele>320.74</ele>
        <time>2021-08-11T04:30:33Z</time>
      </trkpt>
      <trkpt lat="47.90167" lon="4.03578">
        <ele>320.74</ele>
        <time>2021-08-11T04:30:34Z</time>
      </trkpt>
      <trkpt lat="47.90166" lon="4.03571">
        <ele>321.22</ele>
        <time>2021-08-11T04:30:35Z</time>
      </trkpt>
      <trkpt lat="47.90165" lon="4.03564">
        <ele>321.22</ele>
        <time>2021-08-11T04:30:36Z</time>
      </trkpt>
      <trkpt lat="47.90164" lon="4.03557">
        <ele>321.22</ele>
        <time>2021-08-11T04:30:37Z</time>
      </trkpt>
      <trkpt lat="47.90159" lon="4.03482">
        <ele>321.22</ele>
        <time>2021-08-11T04:30:47Z</time>
      </trkpt>
      <trkpt lat="47.90153" lon="4.03404">
        <ele>319.78</ele>
        <time>2021-08-11T04:30:57Z</time>
      </trkpt>
      <trkpt lat="47.90145" lon="4.03312">
        <ele>318.33</ele>
        <time>2021-08-11T04:31:08Z</time>
      </trkpt>
      <trkpt lat="47.90136" lon="4.03198">
        <ele>316.41</ele>
        <time>2021-08-11T04:31:20Z</time>
      </trkpt>
      <trkpt lat="47.90129" lon="4.03108">
        <ele>315.45</ele>
        <time>2021-08-11T04:31:29Z</time>
      </trkpt>
      <trkpt lat="47.90119" lon="4.03">
        <ele>314.49</ele>
        <time>2021-08-11T04:31:40Z</time>
      </trkpt>
      <trkpt lat="47.9011" lon="4.02903">
        <ele>314.01</ele>
        <time>2021-08-11T04:31:51Z</time>
      </trkpt>
      <trkpt lat="47.90108" lon="4.02896">
        <ele>314.01</ele>
        <time>2021-08-11T04:31:52Z</time>
      </trkpt>
      <trkpt lat="47.90105" lon="4.02889">
        <ele>314.01</ele>
        <time>2021-08-11T04:31:53Z</time>
      </trkpt>
      <trkpt lat="47.90098" lon="4.02876">
        <ele>313.53</ele>
        <time>2021-08-11T04:31:55Z</time>
      </trkpt>
      <trkpt lat="47.90093" lon="4.02862">
        <ele>313.53</ele>
        <time>2021-08-11T04:31:57Z</time>
      </trkpt>
      <trkpt lat="47.90073" lon="4.02794">
        <ele>313.53</ele>
        <time>2021-08-11T04:32:06Z</time>
      </trkpt>
      <trkpt lat="47.90056" lon="4.02729">
        <ele>313.53</ele>
        <time>2021-08-11T04:32:14Z</time>
      </trkpt>
      <trkpt lat="47.9003" lon="4.02633">
        <ele>312.57</ele>
        <time>2021-08-11T04:32:26Z</time>
      </trkpt>
      <trkpt lat="47.90005" lon="4.02532">
        <ele>311.12</ele>
        <time>2021-08-11T04:32:37Z</time>
      </trkpt>
      <trkpt lat="47.89986" lon="4.02449">
        <ele>309.68</ele>
        <time>2021-08-11T04:32:45Z</time>
      </trkpt>
      <trkpt lat="47.89959" lon="4.0235">
        <ele>308.24</ele>
        <time>2021-08-11T04:32:55Z</time>
      </trkpt>
      <trkpt lat="47.89922" lon="4.0226">
        <ele>308.24</ele>
        <time>2021-08-11T04:33:05Z</time>
      </trkpt>
      <trkpt lat="47.89879" lon="4.0217">
        <ele>307.76</ele>
        <time>2021-08-11T04:33:16Z</time>
      </trkpt>
      <trkpt lat="47.89839" lon="4.02089">
        <ele>307.76</ele>
        <time>2021-08-11T04:33:27Z</time>
      </trkpt>
      <trkpt lat="47.89826" lon="4.02054">
        <ele>309.2</ele>
        <time>2021-08-11T04:33:32Z</time>
      </trkpt>
      <trkpt lat="47.89824" lon="4.02048">
        <ele>309.2</ele>
        <time>2021-08-11T04:33:33Z</time>
      </trkpt>
      <trkpt lat="47.8981" lon="4.02018">
        <ele>309.68</ele>
        <time>2021-08-11T04:33:39Z</time>
      </trkpt>
      <trkpt lat="47.89797" lon="4.02001">
        <ele>308.72</ele>
        <time>2021-08-11T04:33:43Z</time>
      </trkpt>
      <trkpt lat="47.8977" lon="4.01951">
        <ele>307.28</ele>
        <time>2021-08-11T04:33:51Z</time>
      </trkpt>
      <trkpt lat="47.89754" lon="4.01913">
        <ele>307.28</ele>
        <time>2021-08-11T04:33:57Z</time>
      </trkpt>
      <trkpt lat="47.89736" lon="4.0187">
        <ele>306.8</ele>
        <time>2021-08-11T04:34:05Z</time>
      </trkpt>
      <trkpt lat="47.89717" lon="4.0183">
        <ele>306.8</ele>
        <time>2021-08-11T04:34:12Z</time>
      </trkpt>
      <trkpt lat="47.89707" lon="4.0181">
        <ele>306.8</ele>
        <time>2021-08-11T04:34:16Z</time>
      </trkpt>
      <trkpt lat="47.89699" lon="4.01794">
        <ele>306.8</ele>
        <time>2021-08-11T04:34:19Z</time>
      </trkpt>
      <trkpt lat="47.89673" lon="4.01739">
        <ele>308.24</ele>
        <time>2021-08-11T04:34:29Z</time>
      </trkpt>
      <trkpt lat="47.89671" lon="4.01734">
        <ele>308.24</ele>
        <time>2021-08-11T04:34:30Z</time>
      </trkpt>
      <trkpt lat="47.89655" lon="4.01694">
        <ele>308.24</ele>
        <time>2021-08-11T04:34:38Z</time>
      </trkpt>
      <trkpt lat="47.89649" lon="4.0167">
        <ele>309.68</ele>
        <time>2021-08-11T04:34:44Z</time>
      </trkpt>
      <trkpt lat="47.89642" lon="4.0165">
        <ele>310.64</ele>
        <time>2021-08-11T04:34:50Z</time>
      </trkpt>
      <trkpt lat="47.89629" lon="4.0162">
        <ele>311.12</ele>
        <time>2021-08-11T04:34:58Z</time>
      </trkpt>
      <trkpt lat="47.89614" lon="4.01605">
        <ele>310.16</ele>
        <time>2021-08-11T04:35:03Z</time>
      </trkpt>
      <trkpt lat="47.89594" lon="4.01586">
        <ele>309.2</ele>
        <time>2021-08-11T04:35:10Z</time>
      </trkpt>
      <trkpt lat="47.89569" lon="4.01568">
        <ele>309.2</ele>
        <time>2021-08-11T04:35:17Z</time>
      </trkpt>
      <trkpt lat="47.89532" lon="4.01552">
        <ele>308.72</ele>
        <time>2021-08-11T04:35:25Z</time>
      </trkpt>
      <trkpt lat="47.89483" lon="4.01532">
        <ele>307.76</ele>
        <time>2021-08-11T04:35:35Z</time>
      </trkpt>
      <trkpt lat="47.8947" lon="4.01528">
        <ele>307.76</ele>
        <time>2021-08-11T04:35:38Z</time>
      </trkpt>
      <trkpt lat="47.89466" lon="4.01528">
        <ele>307.76</ele>
        <time>2021-08-11T04:35:39Z</time>
      </trkpt>
      <trkpt lat="47.89461" lon="4.01526">
        <ele>307.76</ele>
        <time>2021-08-11T04:35:40Z</time>
      </trkpt>
      <trkpt lat="47.89456" lon="4.01524">
        <ele>307.76</ele>
        <time>2021-08-11T04:35:41Z</time>
      </trkpt>
      <trkpt lat="47.89452" lon="4.01522">
        <ele>307.76</ele>
        <time>2021-08-11T04:35:42Z</time>
      </trkpt>
      <trkpt lat="47.89418" lon="4.01507">
        <ele>307.28</ele>
        <time>2021-08-11T04:35:50Z</time>
      </trkpt>
      <trkpt lat="47.89387" lon="4.0149">
        <ele>307.28</ele>
        <time>2021-08-11T04:35:57Z</time>
      </trkpt>
      <trkpt lat="47.8935" lon="4.01464">
        <ele>307.28</ele>
        <time>2021-08-11T04:36:06Z</time>
      </trkpt>
      <trkpt lat="47.89315" lon="4.01436">
        <ele>308.24</ele>
        <time>2021-08-11T04:36:15Z</time>
      </trkpt>
      <trkpt lat="47.89284" lon="4.0141">
        <ele>308.24</ele>
        <time>2021-08-11T04:36:23Z</time>
      </trkpt>
      <trkpt lat="47.89253" lon="4.01382">
        <ele>308.24</ele>
        <time>2021-08-11T04:36:31Z</time>
      </trkpt>
      <trkpt lat="47.89238" lon="4.01364">
        <ele>308.24</ele>
        <time>2021-08-11T04:36:36Z</time>
      </trkpt>
      <trkpt lat="47.89217" lon="4.01332">
        <ele>308.24</ele>
        <time>2021-08-11T04:36:43Z</time>
      </trkpt>
      <trkpt lat="47.89197" lon="4.013">
        <ele>308.72</ele>
        <time>2021-08-11T04:36:50Z</time>
      </trkpt>
      <trkpt lat="47.89174" lon="4.01268">
        <ele>308.72</ele>
        <time>2021-08-11T04:36:56Z</time>
      </trkpt>
      <trkpt lat="47.89146" lon="4.0122">
        <ele>307.28</ele>
        <time>2021-08-11T04:37:05Z</time>
      </trkpt>
      <trkpt lat="47.89123" lon="4.01186">
        <ele>306.8</ele>
        <time>2021-08-11T04:37:11Z</time>
      </trkpt>
      <trkpt lat="47.89099" lon="4.01141">
        <ele>306.8</ele>
        <time>2021-08-11T04:37:18Z</time>
      </trkpt>
      <trkpt lat="47.89079" lon="4.01103">
        <ele>306.8</ele>
        <time>2021-08-11T04:37:24Z</time>
      </trkpt>
      <trkpt lat="47.89074" lon="4.01098">
        <ele>306.32</ele>
        <time>2021-08-11T04:37:25Z</time>
      </trkpt>
      <trkpt lat="47.89069" lon="4.01092">
        <ele>306.32</ele>
        <time>2021-08-11T04:37:26Z</time>
      </trkpt>
      <trkpt lat="47.89065" lon="4.01087">
        <ele>306.32</ele>
        <time>2021-08-11T04:37:27Z</time>
      </trkpt>
      <trkpt lat="47.89062" lon="4.01081">
        <ele>306.32</ele>
        <time>2021-08-11T04:37:28Z</time>
      </trkpt>
      <trkpt lat="47.89039" lon="4.01043">
        <ele>305.84</ele>
        <time>2021-08-11T04:37:35Z</time>
      </trkpt>
      <trkpt lat="47.89036" lon="4.01037">
        <ele>305.84</ele>
        <time>2021-08-11T04:37:36Z</time>
      </trkpt>
      <trkpt lat="47.89034" lon="4.0103">
        <ele>305.84</ele>
        <time>2021-08-11T04:37:37Z</time>
      </trkpt>
      <trkpt lat="47.89005" lon="4.00981">
        <ele>304.88</ele>
        <time>2021-08-11T04:37:45Z</time>
      </trkpt>
      <trkpt lat="47.88973" lon="4.00918">
        <ele>303.91</ele>
        <time>2021-08-11T04:37:54Z</time>
      </trkpt>
      <trkpt lat="47.88936" lon="4.00846">
        <ele>303.43</ele>
        <time>2021-08-11T04:38:04Z</time>
      </trkpt>
      <trkpt lat="47.889" lon="4.00769">
        <ele>301.03</ele>
        <time>2021-08-11T04:38:14Z</time>
      </trkpt>
      <trkpt lat="47.88877" lon="4.00724">
        <ele>300.07</ele>
        <time>2021-08-11T04:38:20Z</time>
      </trkpt>
      <trkpt lat="47.88864" lon="4.00685">
        <ele>298.63</ele>
        <time>2021-08-11T04:38:26Z</time>
      </trkpt>
      <trkpt lat="47.8886" lon="4.00675">
        <ele>298.63</ele>
        <time>2021-08-11T04:38:28Z</time>
      </trkpt>
      <trkpt lat="47.88857" lon="4.0067">
        <ele>298.15</ele>
        <time>2021-08-11T04:38:29Z</time>
      </trkpt>
      <trkpt lat="47.88852" lon="4.00665">
        <ele>297.67</ele>
        <time>2021-08-11T04:38:30Z</time>
      </trkpt>
      <trkpt lat="47.88816" lon="4.00634">
        <ele>296.22</ele>
        <time>2021-08-11T04:38:37Z</time>
      </trkpt>
      <trkpt lat="47.88805" lon="4.00625">
        <ele>295.74</ele>
        <time>2021-08-11T04:38:39Z</time>
      </trkpt>
      <trkpt lat="47.88801" lon="4.00618">
        <ele>295.74</ele>
        <time>2021-08-11T04:38:40Z</time>
      </trkpt>
      <trkpt lat="47.88798" lon="4.00611">
        <ele>295.74</ele>
        <time>2021-08-11T04:38:41Z</time>
      </trkpt>
      <trkpt lat="47.88797" lon="4.00602">
        <ele>295.74</ele>
        <time>2021-08-11T04:38:42Z</time>
      </trkpt>
      <trkpt lat="47.88796" lon="4.00596">
        <ele>295.74</ele>
        <time>2021-08-11T04:38:43Z</time>
      </trkpt>
      <trkpt lat="47.88796" lon="4.00589">
        <ele>295.74</ele>
        <time>2021-08-11T04:38:44Z</time>
      </trkpt>
      <trkpt lat="47.88794" lon="4.00582">
        <ele>295.74</ele>
        <time>2021-08-11T04:38:45Z</time>
      </trkpt>
      <trkpt lat="47.88791" lon="4.00577">
        <ele>295.26</ele>
        <time>2021-08-11T04:38:46Z</time>
      </trkpt>
      <trkpt lat="47.88787" lon="4.00571">
        <ele>295.26</ele>
        <time>2021-08-11T04:38:47Z</time>
      </trkpt>
      <trkpt lat="47.88783" lon="4.00566">
        <ele>295.26</ele>
        <time>2021-08-11T04:38:48Z</time>
      </trkpt>
      <trkpt lat="47.88778" lon="4.00561">
        <ele>294.3</ele>
        <time>2021-08-11T04:38:49Z</time>
      </trkpt>
      <trkpt lat="47.88748" lon="4.00525">
        <ele>293.82</ele>
        <time>2021-08-11T04:38:56Z</time>
      </trkpt>
      <trkpt lat="47.88716" lon="4.00486">
        <ele>292.86</ele>
        <time>2021-08-11T04:39:04Z</time>
      </trkpt>
      <trkpt lat="47.88689" lon="4.00448">
        <ele>292.38</ele>
        <time>2021-08-11T04:39:11Z</time>
      </trkpt>
      <trkpt lat="47.88662" lon="4.0041">
        <ele>291.9</ele>
        <time>2021-08-11T04:39:18Z</time>
      </trkpt>
      <trkpt lat="47.88639" lon="4.00375">
        <ele>291.42</ele>
        <time>2021-08-11T04:39:24Z</time>
      </trkpt>
      <trkpt lat="47.88613" lon="4.00339">
        <ele>290.94</ele>
        <time>2021-08-11T04:39:30Z</time>
      </trkpt>
      <trkpt lat="47.88576" lon="4.00296">
        <ele>289.49</ele>
        <time>2021-08-11T04:39:38Z</time>
      </trkpt>
      <trkpt lat="47.88567" lon="4.00285">
        <ele>289.49</ele>
        <time>2021-08-11T04:39:40Z</time>
      </trkpt>
      <trkpt lat="47.8856" lon="4.00273">
        <ele>289.49</ele>
        <time>2021-08-11T04:39:42Z</time>
      </trkpt>
      <trkpt lat="47.88538" lon="4.00241">
        <ele>288.05</ele>
        <time>2021-08-11T04:39:48Z</time>
      </trkpt>
      <trkpt lat="47.88533" lon="4.00236">
        <ele>288.05</ele>
        <time>2021-08-11T04:39:49Z</time>
      </trkpt>
      <trkpt lat="47.88528" lon="4.00232">
        <ele>288.05</ele>
        <time>2021-08-11T04:39:50Z</time>
      </trkpt>
      <trkpt lat="47.88519" lon="4.00224">
        <ele>287.09</ele>
        <time>2021-08-11T04:39:52Z</time>
      </trkpt>
      <trkpt lat="47.88515" lon="4.00219">
        <ele>287.09</ele>
        <time>2021-08-11T04:39:53Z</time>
      </trkpt>
      <trkpt lat="47.88512" lon="4.00214">
        <ele>287.09</ele>
        <time>2021-08-11T04:39:54Z</time>
      </trkpt>
      <trkpt lat="47.88508" lon="4.00209">
        <ele>286.61</ele>
        <time>2021-08-11T04:39:55Z</time>
      </trkpt>
      <trkpt lat="47.88504" lon="4.00204">
        <ele>286.61</ele>
        <time>2021-08-11T04:39:56Z</time>
      </trkpt>
      <trkpt lat="47.8848" lon="4.00171">
        <ele>286.13</ele>
        <time>2021-08-11T04:40:02Z</time>
      </trkpt>
      <trkpt lat="47.88449" lon="4.00136">
        <ele>285.17</ele>
        <time>2021-08-11T04:40:10Z</time>
      </trkpt>
      <trkpt lat="47.88434" lon="4.00119">
        <ele>284.69</ele>
        <time>2021-08-11T04:40:14Z</time>
      </trkpt>
      <trkpt lat="47.88431" lon="4.00116">
        <ele>284.21</ele>
        <time>2021-08-11T04:40:15Z</time>
      </trkpt>
      <trkpt lat="47.88426" lon="4.00111">
        <ele>284.21</ele>
        <time>2021-08-11T04:40:16Z</time>
      </trkpt>
      <trkpt lat="47.88417" lon="4.001">
        <ele>283.73</ele>
        <time>2021-08-11T04:40:18Z</time>
      </trkpt>
      <trkpt lat="47.88412" lon="4.00093">
        <ele>283.25</ele>
        <time>2021-08-11T04:40:19Z</time>
      </trkpt>
      <trkpt lat="47.88372" lon="4.00049">
        <ele>282.28</ele>
        <time>2021-08-11T04:40:27Z</time>
      </trkpt>
      <trkpt lat="47.88356" lon="4.00037">
        <ele>281.8</ele>
        <time>2021-08-11T04:40:30Z</time>
      </trkpt>
      <trkpt lat="47.88309" lon="4.00003">
        <ele>278.44</ele>
        <time>2021-08-11T04:40:38Z</time>
      </trkpt>
      <trkpt lat="47.88284" lon="3.99984">
        <ele>277</ele>
        <time>2021-08-11T04:40:42Z</time>
      </trkpt>
      <trkpt lat="47.88252" lon="3.99951">
        <ele>275.56</ele>
        <time>2021-08-11T04:40:47Z</time>
      </trkpt>
      <trkpt lat="47.88206" lon="3.99906">
        <ele>272.67</ele>
        <time>2021-08-11T04:40:54Z</time>
      </trkpt>
      <trkpt lat="47.8815" lon="3.99845">
        <ele>269.79</ele>
        <time>2021-08-11T04:41:03Z</time>
      </trkpt>
      <trkpt lat="47.88119" lon="3.99808">
        <ele>267.86</ele>
        <time>2021-08-11T04:41:08Z</time>
      </trkpt>
      <trkpt lat="47.8811" lon="3.99795">
        <ele>267.38</ele>
        <time>2021-08-11T04:41:10Z</time>
      </trkpt>
      <trkpt lat="47.88106" lon="3.99788">
        <ele>267.86</ele>
        <time>2021-08-11T04:41:13Z</time>
      </trkpt>
      <trkpt lat="47.88101" lon="3.9978">
        <ele>267.86</ele>
        <time>2021-08-11T04:41:20Z</time>
      </trkpt>
      <trkpt lat="47.88092" lon="3.99761">
        <ele>267.38</ele>
        <time>2021-08-11T04:41:25Z</time>
      </trkpt>
      <trkpt lat="47.88092" lon="3.99759">
        <ele>266.9</ele>
        <time>2021-08-11T04:41:30Z</time>
      </trkpt>
      <trkpt lat="47.88096" lon="3.99758">
        <ele>266.9</ele>
        <time>2021-08-11T04:41:50Z</time>
      </trkpt>
      <trkpt lat="47.88095" lon="3.99758">
        <ele>266.9</ele>
        <time>2021-08-11T04:42:17Z</time>
      </trkpt>
      <trkpt lat="47.88094" lon="3.99759">
        <ele>266.9</ele>
        <time>2021-08-11T04:42:30Z</time>
      </trkpt>
      <trkpt lat="47.88094" lon="3.99757">
        <ele>266.9</ele>
        <time>2021-08-11T04:42:43Z</time>
      </trkpt>
      <trkpt lat="47.88094" lon="3.99757">
        <ele>266.9</ele>
        <time>2021-08-11T04:42:59Z</time>
      </trkpt>
      <trkpt lat="47.88088" lon="3.99748">
        <ele>266.9</ele>
        <time>2021-08-11T04:43:05Z</time>
      </trkpt>
      <trkpt lat="47.88072" lon="3.99723">
        <ele>265.94</ele>
        <time>2021-08-11T04:43:11Z</time>
      </trkpt>
      <trkpt lat="47.88069" lon="3.99718">
        <ele>265.94</ele>
        <time>2021-08-11T04:43:12Z</time>
      </trkpt>
      <trkpt lat="47.8804" lon="3.99681">
        <ele>263.06</ele>
        <time>2021-08-11T04:43:19Z</time>
      </trkpt>
      <trkpt lat="47.88017" lon="3.99638">
        <ele>259.69</ele>
        <time>2021-08-11T04:43:24Z</time>
      </trkpt>
      <trkpt lat="47.87997" lon="3.996">
        <ele>256.81</ele>
        <time>2021-08-11T04:43:28Z</time>
      </trkpt>
      <trkpt lat="47.87988" lon="3.99584">
        <ele>254.89</ele>
        <time>2021-08-11T04:43:30Z</time>
      </trkpt>
      <trkpt lat="47.87967" lon="3.99552">
        <ele>251.04</ele>
        <time>2021-08-11T04:43:34Z</time>
      </trkpt>
      <trkpt lat="47.87947" lon="3.99524">
        <ele>247.2</ele>
        <time>2021-08-11T04:43:38Z</time>
      </trkpt>
      <trkpt lat="47.87926" lon="3.99495">
        <ele>243.83</ele>
        <time>2021-08-11T04:43:42Z</time>
      </trkpt>
      <trkpt lat="47.87907" lon="3.99475">
        <ele>240.95</ele>
        <time>2021-08-11T04:43:45Z</time>
      </trkpt>
      <trkpt lat="47.87883" lon="3.99443">
        <ele>236.62</ele>
        <time>2021-08-11T04:43:49Z</time>
      </trkpt>
      <trkpt lat="47.87862" lon="3.99416">
        <ele>233.26</ele>
        <time>2021-08-11T04:43:53Z</time>
      </trkpt>
      <trkpt lat="47.87857" lon="3.99412">
        <ele>233.26</ele>
        <time>2021-08-11T04:43:54Z</time>
      </trkpt>
      <trkpt lat="47.87849" lon="3.99399">
        <ele>232.3</ele>
        <time>2021-08-11T04:43:57Z</time>
      </trkpt>
      <trkpt lat="47.87845" lon="3.99388">
        <ele>232.3</ele>
        <time>2021-08-11T04:43:59Z</time>
      </trkpt>
      <trkpt lat="47.87844" lon="3.9938">
        <ele>231.81</ele>
        <time>2021-08-11T04:44:00Z</time>
      </trkpt>
      <trkpt lat="47.87842" lon="3.99373">
        <ele>231.81</ele>
        <time>2021-08-11T04:44:01Z</time>
      </trkpt>
      <trkpt lat="47.87838" lon="3.99352">
        <ele>230.85</ele>
        <time>2021-08-11T04:44:05Z</time>
      </trkpt>
      <trkpt lat="47.87838" lon="3.99352">
        <ele>231.33</ele>
        <time>2021-08-11T04:44:14Z</time>
      </trkpt>
      <trkpt lat="47.87837" lon="3.9935">
        <ele>231.33</ele>
        <time>2021-08-11T04:44:15Z</time>
      </trkpt>
      <trkpt lat="47.87836" lon="3.99347">
        <ele>231.33</ele>
        <time>2021-08-11T04:44:16Z</time>
      </trkpt>
      <trkpt lat="47.87821" lon="3.99314">
        <ele>229.41</ele>
        <time>2021-08-11T04:44:22Z</time>
      </trkpt>
      <trkpt lat="47.87804" lon="3.99287">
        <ele>228.45</ele>
        <time>2021-08-11T04:44:26Z</time>
      </trkpt>
      <trkpt lat="47.87766" lon="3.99239">
        <ele>225.57</ele>
        <time>2021-08-11T04:44:33Z</time>
      </trkpt>
      <trkpt lat="47.87733" lon="3.99207">
        <ele>224.12</ele>
        <time>2021-08-11T04:44:39Z</time>
      </trkpt>
      <trkpt lat="47.87729" lon="3.99203">
        <ele>223.64</ele>
        <time>2021-08-11T04:44:40Z</time>
      </trkpt>
      <trkpt lat="47.87726" lon="3.99198">
        <ele>223.64</ele>
        <time>2021-08-11T04:44:41Z</time>
      </trkpt>
      <trkpt lat="47.87724" lon="3.99194">
        <ele>223.64</ele>
        <time>2021-08-11T04:44:42Z</time>
      </trkpt>
      <trkpt lat="47.87724" lon="3.9919">
        <ele>223.16</ele>
        <time>2021-08-11T04:44:43Z</time>
      </trkpt>
      <trkpt lat="47.87726" lon="3.99188">
        <ele>223.16</ele>
        <time>2021-08-11T04:44:44Z</time>
      </trkpt>
      <trkpt lat="47.87729" lon="3.99187">
        <ele>223.16</ele>
        <time>2021-08-11T04:44:45Z</time>
      </trkpt>
      <trkpt lat="47.87731" lon="3.99188">
        <ele>223.16</ele>
        <time>2021-08-11T04:44:46Z</time>
      </trkpt>
      <trkpt lat="47.87733" lon="3.99189">
        <ele>223.16</ele>
        <time>2021-08-11T04:44:47Z</time>
      </trkpt>
      <trkpt lat="47.87735" lon="3.9919">
        <ele>223.16</ele>
        <time>2021-08-11T04:44:48Z</time>
      </trkpt>
      <trkpt lat="47.87737" lon="3.99191">
        <ele>223.16</ele>
        <time>2021-08-11T04:44:49Z</time>
      </trkpt>
      <trkpt lat="47.8774" lon="3.99192">
        <ele>223.16</ele>
        <time>2021-08-11T04:44:50Z</time>
      </trkpt>
      <trkpt lat="47.87742" lon="3.99192">
        <ele>223.16</ele>
        <time>2021-08-11T04:44:51Z</time>
      </trkpt>
      <trkpt lat="47.87751" lon="3.99191">
        <ele>224.61</ele>
        <time>2021-08-11T04:44:54Z</time>
      </trkpt>
      <trkpt lat="47.87753" lon="3.99188">
        <ele>224.61</ele>
        <time>2021-08-11T04:44:55Z</time>
      </trkpt>
      <trkpt lat="47.87755" lon="3.99184">
        <ele>225.09</ele>
        <time>2021-08-11T04:44:56Z</time>
      </trkpt>
      <trkpt lat="47.87774" lon="3.99153">
        <ele>225.09</ele>
        <time>2021-08-11T04:45:04Z</time>
      </trkpt>
      <trkpt lat="47.87807" lon="3.99112">
        <ele>225.57</ele>
        <time>2021-08-11T04:45:14Z</time>
      </trkpt>
      <trkpt lat="47.87827" lon="3.99066">
        <ele>226.05</ele>
        <time>2021-08-11T04:45:23Z</time>
      </trkpt>
      <trkpt lat="47.8784" lon="3.99039">
        <ele>226.53</ele>
        <time>2021-08-11T04:45:28Z</time>
      </trkpt>
      <trkpt lat="47.87862" lon="3.99011">
        <ele>227.97</ele>
        <time>2021-08-11T04:45:36Z</time>
      </trkpt>
      <trkpt lat="47.87879" lon="3.98994">
        <ele>229.89</ele>
        <time>2021-08-11T04:45:45Z</time>
      </trkpt>
      <trkpt lat="47.87899" lon="3.98975">
        <ele>232.3</ele>
        <time>2021-08-11T04:45:55Z</time>
      </trkpt>
      <trkpt lat="47.87911" lon="3.98949">
        <ele>233.26</ele>
        <time>2021-08-11T04:46:03Z</time>
      </trkpt>
      <trkpt lat="47.87926" lon="3.98914">
        <ele>233.74</ele>
        <time>2021-08-11T04:46:12Z</time>
      </trkpt>
      <trkpt lat="47.87948" lon="3.98869">
        <ele>235.18</ele>
        <time>2021-08-11T04:46:23Z</time>
      </trkpt>
      <trkpt lat="47.87975" lon="3.98831">
        <ele>235.18</ele>
        <time>2021-08-11T04:46:33Z</time>
      </trkpt>
      <trkpt lat="47.88005" lon="3.98804">
        <ele>236.14</ele>
        <time>2021-08-11T04:46:43Z</time>
      </trkpt>
      <trkpt lat="47.88009" lon="3.98795">
        <ele>236.14</ele>
        <time>2021-08-11T04:46:46Z</time>
      </trkpt>
      <trkpt lat="47.88009" lon="3.98791">
        <ele>236.14</ele>
        <time>2021-08-11T04:46:47Z</time>
      </trkpt>
      <trkpt lat="47.88006" lon="3.98785">
        <ele>236.14</ele>
        <time>2021-08-11T04:46:48Z</time>
      </trkpt>
      <trkpt lat="47.88004" lon="3.98781">
        <ele>234.22</ele>
        <time>2021-08-11T04:46:49Z</time>
      </trkpt>
      <trkpt lat="47.87999" lon="3.98775">
        <ele>233.26</ele>
        <time>2021-08-11T04:46:50Z</time>
      </trkpt>
      <trkpt lat="47.87994" lon="3.98767">
        <ele>232.3</ele>
        <time>2021-08-11T04:46:51Z</time>
      </trkpt>
      <trkpt lat="47.87989" lon="3.98758">
        <ele>230.85</ele>
        <time>2021-08-11T04:46:52Z</time>
      </trkpt>
      <trkpt lat="47.87974" lon="3.98724">
        <ele>227.97</ele>
        <time>2021-08-11T04:46:55Z</time>
      </trkpt>
      <trkpt lat="47.87958" lon="3.98684">
        <ele>224.61</ele>
        <time>2021-08-11T04:46:58Z</time>
      </trkpt>
      <trkpt lat="47.8794" lon="3.98642">
        <ele>221.24</ele>
        <time>2021-08-11T04:47:01Z</time>
      </trkpt>
      <trkpt lat="47.87919" lon="3.98583">
        <ele>217.4</ele>
        <time>2021-08-11T04:47:05Z</time>
      </trkpt>
      <trkpt lat="47.87887" lon="3.98486">
        <ele>215.95</ele>
        <time>2021-08-11T04:47:12Z</time>
      </trkpt>
      <trkpt lat="47.87852" lon="3.98401">
        <ele>212.59</ele>
        <time>2021-08-11T04:47:19Z</time>
      </trkpt>
      <trkpt lat="47.87819" lon="3.98341">
        <ele>210.19</ele>
        <time>2021-08-11T04:47:25Z</time>
      </trkpt>
      <trkpt lat="47.87802" lon="3.9831">
        <ele>209.22</ele>
        <time>2021-08-11T04:47:28Z</time>
      </trkpt>
      <trkpt lat="47.87776" lon="3.9827">
        <ele>205.86</ele>
        <time>2021-08-11T04:47:32Z</time>
      </trkpt>
      <trkpt lat="47.87762" lon="3.9825">
        <ele>204.9</ele>
        <time>2021-08-11T04:47:34Z</time>
      </trkpt>
      <trkpt lat="47.87737" lon="3.98209">
        <ele>201.53</ele>
        <time>2021-08-11T04:47:38Z</time>
      </trkpt>
      <trkpt lat="47.87717" lon="3.98164">
        <ele>198.65</ele>
        <time>2021-08-11T04:47:42Z</time>
      </trkpt>
      <trkpt lat="47.87686" lon="3.98096">
        <ele>195.77</ele>
        <time>2021-08-11T04:47:49Z</time>
      </trkpt>
      <trkpt lat="47.87656" lon="3.98024">
        <ele>192.88</ele>
        <time>2021-08-11T04:47:56Z</time>
      </trkpt>
      <trkpt lat="47.87648" lon="3.97992">
        <ele>191.92</ele>
        <time>2021-08-11T04:47:59Z</time>
      </trkpt>
      <trkpt lat="47.87646" lon="3.97975">
        <ele>191.44</ele>
        <time>2021-08-11T04:48:01Z</time>
      </trkpt>
      <trkpt lat="47.87646" lon="3.97968">
        <ele>190.96</ele>
        <time>2021-08-11T04:48:02Z</time>
      </trkpt>
      <trkpt lat="47.87645" lon="3.97963">
        <ele>190.96</ele>
        <time>2021-08-11T04:48:03Z</time>
      </trkpt>
      <trkpt lat="47.87644" lon="3.97958">
        <ele>190.48</ele>
        <time>2021-08-11T04:48:04Z</time>
      </trkpt>
      <trkpt lat="47.87644" lon="3.97954">
        <ele>190.48</ele>
        <time>2021-08-11T04:48:05Z</time>
      </trkpt>
      <trkpt lat="47.87643" lon="3.97943">
        <ele>190</ele>
        <time>2021-08-11T04:48:07Z</time>
      </trkpt>
      <trkpt lat="47.8764" lon="3.97923">
        <ele>189.04</ele>
        <time>2021-08-11T04:48:10Z</time>
      </trkpt>
      <trkpt lat="47.87628" lon="3.97871">
        <ele>186.63</ele>
        <time>2021-08-11T04:48:16Z</time>
      </trkpt>
      <trkpt lat="47.87623" lon="3.97853">
        <ele>185.67</ele>
        <time>2021-08-11T04:48:18Z</time>
      </trkpt>
      <trkpt lat="47.8762" lon="3.97844">
        <ele>185.19</ele>
        <time>2021-08-11T04:48:19Z</time>
      </trkpt>
      <trkpt lat="47.87616" lon="3.97835">
        <ele>184.23</ele>
        <time>2021-08-11T04:48:20Z</time>
      </trkpt>
      <trkpt lat="47.87613" lon="3.97827">
        <ele>183.75</ele>
        <time>2021-08-11T04:48:21Z</time>
      </trkpt>
      <trkpt lat="47.87609" lon="3.97818">
        <ele>183.27</ele>
        <time>2021-08-11T04:48:22Z</time>
      </trkpt>
      <trkpt lat="47.87606" lon="3.97809">
        <ele>183.27</ele>
        <time>2021-08-11T04:48:23Z</time>
      </trkpt>
      <trkpt lat="47.87603" lon="3.97798">
        <ele>181.83</ele>
        <time>2021-08-11T04:48:24Z</time>
      </trkpt>
      <trkpt lat="47.8759" lon="3.97748">
        <ele>177.98</ele>
        <time>2021-08-11T04:48:28Z</time>
      </trkpt>
      <trkpt lat="47.87577" lon="3.97706">
        <ele>174.14</ele>
        <time>2021-08-11T04:48:31Z</time>
      </trkpt>
      <trkpt lat="47.87568" lon="3.97674">
        <ele>171.25</ele>
        <time>2021-08-11T04:48:33Z</time>
      </trkpt>
      <trkpt lat="47.87551" lon="3.97609">
        <ele>167.41</ele>
        <time>2021-08-11T04:48:37Z</time>
      </trkpt>
      <trkpt lat="47.87545" lon="3.97597">
        <ele>167.41</ele>
        <time>2021-08-11T04:48:38Z</time>
      </trkpt>
      <trkpt lat="47.875" lon="3.97517">
        <ele>165.96</ele>
        <time>2021-08-11T04:48:45Z</time>
      </trkpt>
      <trkpt lat="47.87477" lon="3.97477">
        <ele>164.52</ele>
        <time>2021-08-11T04:48:50Z</time>
      </trkpt>
      <trkpt lat="47.87465" lon="3.97455">
        <ele>164.04</ele>
        <time>2021-08-11T04:48:55Z</time>
      </trkpt>
      <trkpt lat="47.8746" lon="3.97445">
        <ele>164.04</ele>
        <time>2021-08-11T04:48:57Z</time>
      </trkpt>
      <trkpt lat="47.87447" lon="3.97412">
        <ele>162.6</ele>
        <time>2021-08-11T04:49:02Z</time>
      </trkpt>
      <trkpt lat="47.87444" lon="3.97405">
        <ele>162.6</ele>
        <time>2021-08-11T04:49:03Z</time>
      </trkpt>
      <trkpt lat="47.8742" lon="3.97344">
        <ele>161.64</ele>
        <time>2021-08-11T04:49:11Z</time>
      </trkpt>
      <trkpt lat="47.87386" lon="3.97261">
        <ele>158.27</ele>
        <time>2021-08-11T04:49:21Z</time>
      </trkpt>
      <trkpt lat="47.87352" lon="3.9718">
        <ele>154.91</ele>
        <time>2021-08-11T04:49:30Z</time>
      </trkpt>
      <trkpt lat="47.87349" lon="3.97172">
        <ele>154.91</ele>
        <time>2021-08-11T04:49:31Z</time>
      </trkpt>
      <trkpt lat="47.87347" lon="3.97164">
        <ele>154.91</ele>
        <time>2021-08-11T04:49:32Z</time>
      </trkpt>
      <trkpt lat="47.87347" lon="3.97156">
        <ele>154.43</ele>
        <time>2021-08-11T04:49:33Z</time>
      </trkpt>
      <trkpt lat="47.87349" lon="3.97148">
        <ele>154.91</ele>
        <time>2021-08-11T04:49:34Z</time>
      </trkpt>
      <trkpt lat="47.87352" lon="3.97141">
        <ele>154.43</ele>
        <time>2021-08-11T04:49:35Z</time>
      </trkpt>
      <trkpt lat="47.87355" lon="3.97137">
        <ele>154.43</ele>
        <time>2021-08-11T04:49:36Z</time>
      </trkpt>
      <trkpt lat="47.8736" lon="3.97132">
        <ele>154.91</ele>
        <time>2021-08-11T04:49:37Z</time>
      </trkpt>
      <trkpt lat="47.87364" lon="3.97127">
        <ele>154.43</ele>
        <time>2021-08-11T04:49:38Z</time>
      </trkpt>
      <trkpt lat="47.87368" lon="3.97122">
        <ele>154.43</ele>
        <time>2021-08-11T04:49:39Z</time>
      </trkpt>
      <trkpt lat="47.8739" lon="3.97091">
        <ele>153.95</ele>
        <time>2021-08-11T04:49:44Z</time>
      </trkpt>
      <trkpt lat="47.87397" lon="3.97077">
        <ele>153.95</ele>
        <time>2021-08-11T04:49:46Z</time>
      </trkpt>
      <trkpt lat="47.87437" lon="3.97011">
        <ele>152.51</ele>
        <time>2021-08-11T04:49:56Z</time>
      </trkpt>
      <trkpt lat="47.87475" lon="3.96964">
        <ele>151.06</ele>
        <time>2021-08-11T04:50:04Z</time>
      </trkpt>
      <trkpt lat="47.87477" lon="3.96957">
        <ele>151.06</ele>
        <time>2021-08-11T04:50:05Z</time>
      </trkpt>
      <trkpt lat="47.87478" lon="3.96948">
        <ele>150.58</ele>
        <time>2021-08-11T04:50:06Z</time>
      </trkpt>
      <trkpt lat="47.87477" lon="3.96941">
        <ele>150.1</ele>
        <time>2021-08-11T04:50:07Z</time>
      </trkpt>
      <trkpt lat="47.87474" lon="3.96934">
        <ele>149.62</ele>
        <time>2021-08-11T04:50:08Z</time>
      </trkpt>
      <trkpt lat="47.87471" lon="3.96925">
        <ele>149.14</ele>
        <time>2021-08-11T04:50:09Z</time>
      </trkpt>
      <trkpt lat="47.87458" lon="3.96889">
        <ele>147.7</ele>
        <time>2021-08-11T04:50:13Z</time>
      </trkpt>
      <trkpt lat="47.87432" lon="3.9681">
        <ele>144.34</ele>
        <time>2021-08-11T04:50:21Z</time>
      </trkpt>
      <trkpt lat="47.87405" lon="3.96726">
        <ele>143.37</ele>
        <time>2021-08-11T04:50:30Z</time>
      </trkpt>
      <trkpt lat="47.87373" lon="3.96633">
        <ele>140.97</ele>
        <time>2021-08-11T04:50:41Z</time>
      </trkpt>
      <trkpt lat="47.87358" lon="3.9659">
        <ele>140.01</ele>
        <time>2021-08-11T04:50:47Z</time>
      </trkpt>
      <trkpt lat="47.87353" lon="3.96581">
        <ele>140.01</ele>
        <time>2021-08-11T04:50:50Z</time>
      </trkpt>
      <trkpt lat="47.87352" lon="3.96578">
        <ele>140.01</ele>
        <time>2021-08-11T04:50:51Z</time>
      </trkpt>
      <trkpt lat="47.87353" lon="3.96576">
        <ele>140.01</ele>
        <time>2021-08-11T04:50:52Z</time>
      </trkpt>
      <trkpt lat="47.87356" lon="3.96576">
        <ele>140.01</ele>
        <time>2021-08-11T04:50:53Z</time>
      </trkpt>
      <trkpt lat="47.87357" lon="3.96575">
        <ele>140.01</ele>
        <time>2021-08-11T04:50:54Z</time>
      </trkpt>
      <trkpt lat="47.87374" lon="3.96573">
        <ele>140.01</ele>
        <time>2021-08-11T04:50:59Z</time>
      </trkpt>
      <trkpt lat="47.87378" lon="3.96572">
        <ele>140.01</ele>
        <time>2021-08-11T04:51:00Z</time>
      </trkpt>
      <trkpt lat="47.87403" lon="3.96566">
        <ele>140.01</ele>
        <time>2021-08-11T04:51:05Z</time>
      </trkpt>
      <trkpt lat="47.87413" lon="3.96561">
        <ele>140.01</ele>
        <time>2021-08-11T04:51:07Z</time>
      </trkpt>
      <trkpt lat="47.87417" lon="3.96558">
        <ele>140.01</ele>
        <time>2021-08-11T04:51:08Z</time>
      </trkpt>
      <trkpt lat="47.8742" lon="3.96553">
        <ele>140.01</ele>
        <time>2021-08-11T04:51:09Z</time>
      </trkpt>
      <trkpt lat="47.87422" lon="3.96548">
        <ele>140.01</ele>
        <time>2021-08-11T04:51:10Z</time>
      </trkpt>
      <trkpt lat="47.87423" lon="3.96541">
        <ele>140.01</ele>
        <time>2021-08-11T04:51:11Z</time>
      </trkpt>
      <trkpt lat="47.87422" lon="3.96536">
        <ele>140.01</ele>
        <time>2021-08-11T04:51:12Z</time>
      </trkpt>
      <trkpt lat="47.87422" lon="3.96531">
        <ele>140.01</ele>
        <time>2021-08-11T04:51:13Z</time>
      </trkpt>
      <trkpt lat="47.87421" lon="3.96527">
        <ele>140.01</ele>
        <time>2021-08-11T04:51:14Z</time>
      </trkpt>
      <trkpt lat="47.8742" lon="3.9652">
        <ele>141.45</ele>
        <time>2021-08-11T04:51:16Z</time>
      </trkpt>
      <trkpt lat="47.87413" lon="3.96495">
        <ele>142.89</ele>
        <time>2021-08-11T04:51:24Z</time>
      </trkpt>
      <trkpt lat="47.87409" lon="3.96481">
        <ele>142.89</ele>
        <time>2021-08-11T04:51:28Z</time>
      </trkpt>
      <trkpt lat="47.87406" lon="3.96479">
        <ele>142.89</ele>
        <time>2021-08-11T04:51:29Z</time>
      </trkpt>
      <trkpt lat="47.87402" lon="3.9648">
        <ele>140.97</ele>
        <time>2021-08-11T04:51:30Z</time>
      </trkpt>
      <trkpt lat="47.874" lon="3.96481">
        <ele>140.97</ele>
        <time>2021-08-11T04:51:31Z</time>
      </trkpt>
      <trkpt lat="47.87394" lon="3.96485">
        <ele>140.49</ele>
        <time>2021-08-11T04:51:32Z</time>
      </trkpt>
      <trkpt lat="47.87363" lon="3.96506">
        <ele>139.05</ele>
        <time>2021-08-11T04:51:39Z</time>
      </trkpt>
      <trkpt lat="47.87349" lon="3.96516">
        <ele>138.09</ele>
        <time>2021-08-11T04:51:42Z</time>
      </trkpt>
      <trkpt lat="47.87304" lon="3.96539">
        <ele>138.09</ele>
        <time>2021-08-11T04:51:52Z</time>
      </trkpt>
      <trkpt lat="47.87257" lon="3.96561">
        <ele>138.09</ele>
        <time>2021-08-11T04:52:01Z</time>
      </trkpt>
      <trkpt lat="47.87202" lon="3.96588">
        <ele>137.61</ele>
        <time>2021-08-11T04:52:11Z</time>
      </trkpt>
      <trkpt lat="47.87146" lon="3.96617">
        <ele>137.61</ele>
        <time>2021-08-11T04:52:21Z</time>
      </trkpt>
      <trkpt lat="47.87106" lon="3.96637">
        <ele>137.61</ele>
        <time>2021-08-11T04:52:29Z</time>
      </trkpt>
      <trkpt lat="47.87065" lon="3.96661">
        <ele>137.61</ele>
        <time>2021-08-11T04:52:37Z</time>
      </trkpt>
      <trkpt lat="47.87024" lon="3.96701">
        <ele>137.61</ele>
        <time>2021-08-11T04:52:45Z</time>
      </trkpt>
      <trkpt lat="47.87004" lon="3.96726">
        <ele>137.61</ele>
        <time>2021-08-11T04:52:49Z</time>
      </trkpt>
      <trkpt lat="47.86961" lon="3.96784">
        <ele>137.61</ele>
        <time>2021-08-11T04:52:58Z</time>
      </trkpt>
      <trkpt lat="47.86915" lon="3.96848">
        <ele>137.61</ele>
        <time>2021-08-11T04:53:08Z</time>
      </trkpt>
      <trkpt lat="47.86873" lon="3.96911">
        <ele>137.61</ele>
        <time>2021-08-11T04:53:18Z</time>
      </trkpt>
      <trkpt lat="47.86832" lon="3.96988">
        <ele>138.09</ele>
        <time>2021-08-11T04:53:29Z</time>
      </trkpt>
      <trkpt lat="47.86785" lon="3.97074">
        <ele>138.09</ele>
        <time>2021-08-11T04:53:41Z</time>
      </trkpt>
      <trkpt lat="47.86751" lon="3.97138">
        <ele>138.09</ele>
        <time>2021-08-11T04:53:50Z</time>
      </trkpt>
      <trkpt lat="47.86744" lon="3.97152">
        <ele>138.09</ele>
        <time>2021-08-11T04:53:52Z</time>
      </trkpt>
      <trkpt lat="47.86712" lon="3.9721">
        <ele>138.09</ele>
        <time>2021-08-11T04:54:00Z</time>
      </trkpt>
      <trkpt lat="47.86687" lon="3.97259">
        <ele>138.09</ele>
        <time>2021-08-11T04:54:08Z</time>
      </trkpt>
      <trkpt lat="47.86672" lon="3.97285">
        <ele>138.09</ele>
        <time>2021-08-11T04:54:13Z</time>
      </trkpt>
      <trkpt lat="47.86669" lon="3.97291">
        <ele>138.09</ele>
        <time>2021-08-11T04:54:14Z</time>
      </trkpt>
      <trkpt lat="47.86645" lon="3.97339">
        <ele>138.09</ele>
        <time>2021-08-11T04:54:23Z</time>
      </trkpt>
      <trkpt lat="47.86615" lon="3.97397">
        <ele>138.09</ele>
        <time>2021-08-11T04:54:34Z</time>
      </trkpt>
      <trkpt lat="47.86591" lon="3.97443">
        <ele>138.09</ele>
        <time>2021-08-11T04:54:43Z</time>
      </trkpt>
      <trkpt lat="47.86571" lon="3.97477">
        <ele>139.53</ele>
        <time>2021-08-11T04:54:50Z</time>
      </trkpt>
      <trkpt lat="47.86556" lon="3.97504">
        <ele>141.45</ele>
        <time>2021-08-11T04:54:58Z</time>
      </trkpt>
      <trkpt lat="47.86546" lon="3.97524">
        <ele>141.93</ele>
        <time>2021-08-11T04:55:05Z</time>
      </trkpt>
      <trkpt lat="47.86526" lon="3.97561">
        <ele>141.93</ele>
        <time>2021-08-11T04:55:14Z</time>
      </trkpt>
      <trkpt lat="47.86505" lon="3.97601">
        <ele>141.93</ele>
        <time>2021-08-11T04:55:23Z</time>
      </trkpt>
      <trkpt lat="47.86492" lon="3.97628">
        <ele>140.97</ele>
        <time>2021-08-11T04:55:29Z</time>
      </trkpt>
      <trkpt lat="47.86472" lon="3.97667">
        <ele>140.97</ele>
        <time>2021-08-11T04:55:38Z</time>
      </trkpt>
      <trkpt lat="47.86458" lon="3.97694">
        <ele>140.97</ele>
        <time>2021-08-11T04:55:44Z</time>
      </trkpt>
      <trkpt lat="47.8643" lon="3.97747">
        <ele>140.97</ele>
        <time>2021-08-11T04:55:55Z</time>
      </trkpt>
      <trkpt lat="47.86403" lon="3.97792">
        <ele>140.97</ele>
        <time>2021-08-11T04:56:05Z</time>
      </trkpt>
      <trkpt lat="47.86388" lon="3.97809">
        <ele>140.97</ele>
        <time>2021-08-11T04:56:10Z</time>
      </trkpt>
      <trkpt lat="47.86385" lon="3.97813">
        <ele>140.97</ele>
        <time>2021-08-11T04:56:11Z</time>
      </trkpt>
      <trkpt lat="47.86357" lon="3.9786">
        <ele>140.97</ele>
        <time>2021-08-11T04:56:21Z</time>
      </trkpt>
      <trkpt lat="47.86343" lon="3.97872">
        <ele>140.97</ele>
        <time>2021-08-11T04:56:26Z</time>
      </trkpt>
      <trkpt lat="47.86341" lon="3.9787">
        <ele>140.97</ele>
        <time>2021-08-11T04:56:27Z</time>
      </trkpt>
      <trkpt lat="47.8634" lon="3.97867">
        <ele>140.97</ele>
        <time>2021-08-11T04:56:28Z</time>
      </trkpt>
      <trkpt lat="47.86339" lon="3.97863">
        <ele>140.97</ele>
        <time>2021-08-11T04:56:29Z</time>
      </trkpt>
      <trkpt lat="47.86338" lon="3.97859">
        <ele>140.97</ele>
        <time>2021-08-11T04:56:30Z</time>
      </trkpt>
      <trkpt lat="47.86337" lon="3.97848">
        <ele>141.93</ele>
        <time>2021-08-11T04:56:33Z</time>
      </trkpt>
      <trkpt lat="47.86338" lon="3.97841">
        <ele>142.41</ele>
        <time>2021-08-11T04:56:36Z</time>
      </trkpt>
      <trkpt lat="47.86339" lon="3.97839">
        <ele>142.41</ele>
        <time>2021-08-11T04:56:41Z</time>
      </trkpt>
      <trkpt lat="47.86338" lon="3.97836">
        <ele>142.41</ele>
        <time>2021-08-11T04:56:56Z</time>
      </trkpt>
      <trkpt lat="47.86339" lon="3.97836">
        <ele>142.41</ele>
        <time>2021-08-11T04:57:14Z</time>
      </trkpt>
      <trkpt lat="47.86338" lon="3.97838">
        <ele>142.41</ele>
        <time>2021-08-11T04:57:22Z</time>
      </trkpt>
      <trkpt lat="47.86337" lon="3.97837">
        <ele>142.41</ele>
        <time>2021-08-11T04:57:44Z</time>
      </trkpt>
      <trkpt lat="47.86337" lon="3.97839">
        <ele>142.41</ele>
        <time>2021-08-11T04:58:04Z</time>
      </trkpt>
      <trkpt lat="47.86337" lon="3.97839">
        <ele>142.41</ele>
        <time>2021-08-11T04:58:29Z</time>
      </trkpt>
      <trkpt lat="47.86337" lon="3.97839">
        <ele>142.41</ele>
        <time>2021-08-11T04:58:54Z</time>
      </trkpt>
      <trkpt lat="47.86339" lon="3.97839">
        <ele>142.41</ele>
        <time>2021-08-11T04:59:12Z</time>
      </trkpt>
      <trkpt lat="47.86339" lon="3.97838">
        <ele>141.93</ele>
        <time>2021-08-11T04:59:37Z</time>
      </trkpt>
      <trkpt lat="47.86339" lon="3.97839">
        <ele>141.93</ele>
        <time>2021-08-11T04:59:44Z</time>
      </trkpt>
      <trkpt lat="47.86338" lon="3.97837">
        <ele>141.93</ele>
        <time>2021-08-11T04:59:48Z</time>
      </trkpt>
      <trkpt lat="47.86333" lon="3.97838">
        <ele>141.93</ele>
        <time>2021-08-11T04:59:53Z</time>
      </trkpt>
      <trkpt lat="47.86334" lon="3.97839">
        <ele>141.93</ele>
        <time>2021-08-11T05:00:00Z</time>
      </trkpt>
      <trkpt lat="47.86333" lon="3.97844">
        <ele>141.93</ele>
        <time>2021-08-11T05:00:21Z</time>
      </trkpt>
      <trkpt lat="47.8633" lon="3.97848">
        <ele>141.93</ele>
        <time>2021-08-11T05:00:23Z</time>
      </trkpt>
      <trkpt lat="47.86328" lon="3.9785">
        <ele>141.93</ele>
        <time>2021-08-11T05:00:24Z</time>
      </trkpt>
      <trkpt lat="47.86326" lon="3.97853">
        <ele>141.93</ele>
        <time>2021-08-11T05:00:25Z</time>
      </trkpt>
      <trkpt lat="47.86324" lon="3.97856">
        <ele>141.93</ele>
        <time>2021-08-11T05:00:26Z</time>
      </trkpt>
      <trkpt lat="47.86322" lon="3.97859">
        <ele>141.93</ele>
        <time>2021-08-11T05:00:27Z</time>
      </trkpt>
      <trkpt lat="47.8632" lon="3.97868">
        <ele>141.93</ele>
        <time>2021-08-11T05:00:29Z</time>
      </trkpt>
      <trkpt lat="47.8632" lon="3.97873">
        <ele>141.93</ele>
        <time>2021-08-11T05:00:30Z</time>
      </trkpt>
      <trkpt lat="47.8632" lon="3.97879">
        <ele>141.93</ele>
        <time>2021-08-11T05:00:31Z</time>
      </trkpt>
      <trkpt lat="47.86321" lon="3.97884">
        <ele>141.93</ele>
        <time>2021-08-11T05:00:32Z</time>
      </trkpt>
      <trkpt lat="47.86328" lon="3.97909">
        <ele>140.97</ele>
        <time>2021-08-11T05:00:37Z</time>
      </trkpt>
      <trkpt lat="47.86327" lon="3.97914">
        <ele>140.97</ele>
        <time>2021-08-11T05:00:38Z</time>
      </trkpt>
      <trkpt lat="47.86326" lon="3.97918">
        <ele>140.49</ele>
        <time>2021-08-11T05:00:39Z</time>
      </trkpt>
      <trkpt lat="47.86324" lon="3.97922">
        <ele>140.49</ele>
        <time>2021-08-11T05:00:40Z</time>
      </trkpt>
      <trkpt lat="47.86322" lon="3.97926">
        <ele>140.49</ele>
        <time>2021-08-11T05:00:41Z</time>
      </trkpt>
      <trkpt lat="47.863" lon="3.97966">
        <ele>140.49</ele>
        <time>2021-08-11T05:00:50Z</time>
      </trkpt>
      <trkpt lat="47.86276" lon="3.98011">
        <ele>140.49</ele>
        <time>2021-08-11T05:01:00Z</time>
      </trkpt>
      <trkpt lat="47.86259" lon="3.98053">
        <ele>140.49</ele>
        <time>2021-08-11T05:01:09Z</time>
      </trkpt>
      <trkpt lat="47.86249" lon="3.98086">
        <ele>140.49</ele>
        <time>2021-08-11T05:01:15Z</time>
      </trkpt>
      <trkpt lat="47.86231" lon="3.98119">
        <ele>141.93</ele>
        <time>2021-08-11T05:01:23Z</time>
      </trkpt>
      <trkpt lat="47.86225" lon="3.98128">
        <ele>143.85</ele>
        <time>2021-08-11T05:01:27Z</time>
      </trkpt>
      <trkpt lat="47.86223" lon="3.98128">
        <ele>143.85</ele>
        <time>2021-08-11T05:01:28Z</time>
      </trkpt>
      <trkpt lat="47.86221" lon="3.98127">
        <ele>143.85</ele>
        <time>2021-08-11T05:01:29Z</time>
      </trkpt>
      <trkpt lat="47.86219" lon="3.98125">
        <ele>143.85</ele>
        <time>2021-08-11T05:01:30Z</time>
      </trkpt>
      <trkpt lat="47.86217" lon="3.98123">
        <ele>143.85</ele>
        <time>2021-08-11T05:01:31Z</time>
      </trkpt>
      <trkpt lat="47.86214" lon="3.9812">
        <ele>143.85</ele>
        <time>2021-08-11T05:01:32Z</time>
      </trkpt>
      <trkpt lat="47.86196" lon="3.98101">
        <ele>142.41</ele>
        <time>2021-08-11T05:01:38Z</time>
      </trkpt>
      <trkpt lat="47.86185" lon="3.98091">
        <ele>141.93</ele>
        <time>2021-08-11T05:01:41Z</time>
      </trkpt>
      <trkpt lat="47.8615" lon="3.98053">
        <ele>140.97</ele>
        <time>2021-08-11T05:01:50Z</time>
      </trkpt>
      <trkpt lat="47.8611" lon="3.98012">
        <ele>140.97</ele>
        <time>2021-08-11T05:02:02Z</time>
      </trkpt>
      <trkpt lat="47.86084" lon="3.97991">
        <ele>142.41</ele>
        <time>2021-08-11T05:02:10Z</time>
      </trkpt>
      <trkpt lat="47.86063" lon="3.97974">
        <ele>142.41</ele>
        <time>2021-08-11T05:02:16Z</time>
      </trkpt>
      <trkpt lat="47.86032" lon="3.97941">
        <ele>141.45</ele>
        <time>2021-08-11T05:02:24Z</time>
      </trkpt>
      <trkpt lat="47.85999" lon="3.97907">
        <ele>141.45</ele>
        <time>2021-08-11T05:02:33Z</time>
      </trkpt>
      <trkpt lat="47.85968" lon="3.97874">
        <ele>141.45</ele>
        <time>2021-08-11T05:02:42Z</time>
      </trkpt>
      <trkpt lat="47.85949" lon="3.97852">
        <ele>142.41</ele>
        <time>2021-08-11T05:02:48Z</time>
      </trkpt>
      <trkpt lat="47.85927" lon="3.9782">
        <ele>142.89</ele>
        <time>2021-08-11T05:02:56Z</time>
      </trkpt>
      <trkpt lat="47.859" lon="3.97782">
        <ele>141.45</ele>
        <time>2021-08-11T05:03:04Z</time>
      </trkpt>
      <trkpt lat="47.85862" lon="3.97721">
        <ele>139.53</ele>
        <time>2021-08-11T05:03:14Z</time>
      </trkpt>
      <trkpt lat="47.8585" lon="3.97702">
        <ele>139.53</ele>
        <time>2021-08-11T05:03:17Z</time>
      </trkpt>
      <trkpt lat="47.8582" lon="3.97659">
        <ele>140.49</ele>
        <time>2021-08-11T05:03:25Z</time>
      </trkpt>
      <trkpt lat="47.85817" lon="3.97656">
        <ele>140.49</ele>
        <time>2021-08-11T05:03:26Z</time>
      </trkpt>
      <trkpt lat="47.85783" lon="3.97619">
        <ele>140.97</ele>
        <time>2021-08-11T05:03:36Z</time>
      </trkpt>
      <trkpt lat="47.85745" lon="3.97564">
        <ele>141.45</ele>
        <time>2021-08-11T05:03:49Z</time>
      </trkpt>
      <trkpt lat="47.85739" lon="3.97555">
        <ele>141.93</ele>
        <time>2021-08-11T05:03:54Z</time>
      </trkpt>
      <trkpt lat="47.85738" lon="3.9755">
        <ele>141.45</ele>
        <time>2021-08-11T05:03:57Z</time>
      </trkpt>
      <trkpt lat="47.85736" lon="3.97548">
        <ele>141.45</ele>
        <time>2021-08-11T05:03:58Z</time>
      </trkpt>
      <trkpt lat="47.85734" lon="3.97547">
        <ele>141.45</ele>
        <time>2021-08-11T05:03:59Z</time>
      </trkpt>
      <trkpt lat="47.85713" lon="3.97529">
        <ele>141.93</ele>
        <time>2021-08-11T05:04:06Z</time>
      </trkpt>
      <trkpt lat="47.85688" lon="3.97506">
        <ele>142.41</ele>
        <time>2021-08-11T05:04:14Z</time>
      </trkpt>
      <trkpt lat="47.85676" lon="3.97497">
        <ele>142.41</ele>
        <time>2021-08-11T05:04:17Z</time>
      </trkpt>
      <trkpt lat="47.85643" lon="3.9747">
        <ele>142.41</ele>
        <time>2021-08-11T05:04:26Z</time>
      </trkpt>
      <trkpt lat="47.85624" lon="3.97452">
        <ele>142.89</ele>
        <time>2021-08-11T05:04:33Z</time>
      </trkpt>
      <trkpt lat="47.85603" lon="3.97434">
        <ele>143.37</ele>
        <time>2021-08-11T05:04:42Z</time>
      </trkpt>
      <trkpt lat="47.85588" lon="3.9742">
        <ele>144.34</ele>
        <time>2021-08-11T05:04:49Z</time>
      </trkpt>
      <trkpt lat="47.85583" lon="3.97408">
        <ele>144.82</ele>
        <time>2021-08-11T05:04:55Z</time>
      </trkpt>
      <trkpt lat="47.85582" lon="3.97407">
        <ele>145.3</ele>
        <time>2021-08-11T05:05:03Z</time>
      </trkpt>
      <trkpt lat="47.8558" lon="3.97406">
        <ele>145.3</ele>
        <time>2021-08-11T05:05:06Z</time>
      </trkpt>
      <trkpt lat="47.85578" lon="3.97406">
        <ele>145.3</ele>
        <time>2021-08-11T05:05:07Z</time>
      </trkpt>
      <trkpt lat="47.85576" lon="3.97404">
        <ele>145.3</ele>
        <time>2021-08-11T05:05:08Z</time>
      </trkpt>
      <trkpt lat="47.85574" lon="3.97403">
        <ele>145.3</ele>
        <time>2021-08-11T05:05:09Z</time>
      </trkpt>
      <trkpt lat="47.85572" lon="3.97401">
        <ele>145.3</ele>
        <time>2021-08-11T05:05:10Z</time>
      </trkpt>
      <trkpt lat="47.85569" lon="3.974">
        <ele>145.3</ele>
        <time>2021-08-11T05:05:11Z</time>
      </trkpt>
      <trkpt lat="47.85567" lon="3.97399">
        <ele>145.78</ele>
        <time>2021-08-11T05:05:12Z</time>
      </trkpt>
      <trkpt lat="47.85565" lon="3.97398">
        <ele>145.78</ele>
        <time>2021-08-11T05:05:13Z</time>
      </trkpt>
      <trkpt lat="47.85563" lon="3.97397">
        <ele>146.26</ele>
        <time>2021-08-11T05:05:14Z</time>
      </trkpt>
      <trkpt lat="47.85546" lon="3.97384">
        <ele>147.22</ele>
        <time>2021-08-11T05:05:21Z</time>
      </trkpt>
      <trkpt lat="47.85528" lon="3.97376">
        <ele>148.18</ele>
        <time>2021-08-11T05:05:28Z</time>
      </trkpt>
      <trkpt lat="47.85517" lon="3.97369">
        <ele>148.66</ele>
        <time>2021-08-11T05:05:32Z</time>
      </trkpt>
      <trkpt lat="47.8551" lon="3.97357">
        <ele>149.14</ele>
        <time>2021-08-11T05:05:37Z</time>
      </trkpt>
      <trkpt lat="47.85509" lon="3.97352">
        <ele>149.62</ele>
        <time>2021-08-11T05:05:39Z</time>
      </trkpt>
      <trkpt lat="47.8551" lon="3.97349">
        <ele>149.62</ele>
        <time>2021-08-11T05:05:40Z</time>
      </trkpt>
      <trkpt lat="47.85512" lon="3.97347">
        <ele>149.62</ele>
        <time>2021-08-11T05:05:41Z</time>
      </trkpt>
      <trkpt lat="47.85513" lon="3.97346">
        <ele>149.62</ele>
        <time>2021-08-11T05:05:42Z</time>
      </trkpt>
      <trkpt lat="47.85516" lon="3.97344">
        <ele>150.1</ele>
        <time>2021-08-11T05:05:43Z</time>
      </trkpt>
      <trkpt lat="47.85518" lon="3.97342">
        <ele>150.1</ele>
        <time>2021-08-11T05:05:44Z</time>
      </trkpt>
      <trkpt lat="47.85535" lon="3.9733">
        <ele>152.03</ele>
        <time>2021-08-11T05:05:52Z</time>
      </trkpt>
      <trkpt lat="47.85548" lon="3.97321">
        <ele>152.99</ele>
        <time>2021-08-11T05:06:00Z</time>
      </trkpt>
      <trkpt lat="47.8556" lon="3.97305">
        <ele>154.43</ele>
        <time>2021-08-11T05:06:08Z</time>
      </trkpt>
      <trkpt lat="47.85565" lon="3.97303">
        <ele>154.91</ele>
        <time>2021-08-11T05:06:11Z</time>
      </trkpt>
      <trkpt lat="47.85566" lon="3.97302">
        <ele>155.39</ele>
        <time>2021-08-11T05:06:12Z</time>
      </trkpt>
      <trkpt lat="47.85572" lon="3.97299">
        <ele>156.35</ele>
        <time>2021-08-11T05:06:16Z</time>
      </trkpt>
      <trkpt lat="47.85583" lon="3.97282">
        <ele>158.27</ele>
        <time>2021-08-11T05:06:24Z</time>
      </trkpt>
      <trkpt lat="47.85583" lon="3.97266">
        <ele>159.24</ele>
        <time>2021-08-11T05:06:30Z</time>
      </trkpt>
      <trkpt lat="47.85578" lon="3.97256">
        <ele>159.72</ele>
        <time>2021-08-11T05:06:39Z</time>
      </trkpt>
      <trkpt lat="47.85585" lon="3.97255">
        <ele>160.2</ele>
        <time>2021-08-11T05:06:54Z</time>
      </trkpt>
      <trkpt lat="47.85587" lon="3.97257">
        <ele>160.2</ele>
        <time>2021-08-11T05:07:16Z</time>
      </trkpt>
      <trkpt lat="47.85587" lon="3.97256">
        <ele>160.68</ele>
        <time>2021-08-11T05:07:39Z</time>
      </trkpt>
      <trkpt lat="47.85587" lon="3.97256">
        <ele>160.68</ele>
        <time>2021-08-11T05:07:55Z</time>
      </trkpt>
      <trkpt lat="47.85587" lon="3.97254">
        <ele>160.68</ele>
        <time>2021-08-11T05:08:17Z</time>
      </trkpt>
      <trkpt lat="47.85585" lon="3.97252">
        <ele>160.68</ele>
        <time>2021-08-11T05:08:38Z</time>
      </trkpt>
      <trkpt lat="47.85585" lon="3.97254">
        <ele>160.68</ele>
        <time>2021-08-11T05:08:57Z</time>
      </trkpt>
      <trkpt lat="47.85581" lon="3.97247">
        <ele>160.68</ele>
        <time>2021-08-11T05:09:09Z</time>
      </trkpt>
      <trkpt lat="47.85568" lon="3.9723">
        <ele>162.12</ele>
        <time>2021-08-11T05:09:18Z</time>
      </trkpt>
      <trkpt lat="47.85554" lon="3.97212">
        <ele>164.52</ele>
        <time>2021-08-11T05:09:28Z</time>
      </trkpt>
      <trkpt lat="47.85553" lon="3.97209">
        <ele>164.52</ele>
        <time>2021-08-11T05:09:29Z</time>
      </trkpt>
      <trkpt lat="47.85552" lon="3.97207">
        <ele>164.52</ele>
        <time>2021-08-11T05:09:30Z</time>
      </trkpt>
      <trkpt lat="47.85551" lon="3.97205">
        <ele>165</ele>
        <time>2021-08-11T05:09:31Z</time>
      </trkpt>
      <trkpt lat="47.85549" lon="3.97203">
        <ele>165</ele>
        <time>2021-08-11T05:09:32Z</time>
      </trkpt>
      <trkpt lat="47.85548" lon="3.97202">
        <ele>165.48</ele>
        <time>2021-08-11T05:09:33Z</time>
      </trkpt>
      <trkpt lat="47.85537" lon="3.97184">
        <ele>167.41</ele>
        <time>2021-08-11T05:09:42Z</time>
      </trkpt>
      <trkpt lat="47.85527" lon="3.97173">
        <ele>168.85</ele>
        <time>2021-08-11T05:09:49Z</time>
      </trkpt>
      <trkpt lat="47.85519" lon="3.97162">
        <ele>170.77</ele>
        <time>2021-08-11T05:09:57Z</time>
      </trkpt>
      <trkpt lat="47.8552" lon="3.97159">
        <ele>171.25</ele>
        <time>2021-08-11T05:09:58Z</time>
      </trkpt>
      <trkpt lat="47.85521" lon="3.97156">
        <ele>171.25</ele>
        <time>2021-08-11T05:09:59Z</time>
      </trkpt>
      <trkpt lat="47.85522" lon="3.97152">
        <ele>171.25</ele>
        <time>2021-08-11T05:10:00Z</time>
      </trkpt>
      <trkpt lat="47.85522" lon="3.9715">
        <ele>171.73</ele>
        <time>2021-08-11T05:10:01Z</time>
      </trkpt>
      <trkpt lat="47.85522" lon="3.97148">
        <ele>171.73</ele>
        <time>2021-08-11T05:10:02Z</time>
      </trkpt>
      <trkpt lat="47.85521" lon="3.9713">
        <ele>174.14</ele>
        <time>2021-08-11T05:10:11Z</time>
      </trkpt>
      <trkpt lat="47.85519" lon="3.9711">
        <ele>176.54</ele>
        <time>2021-08-11T05:10:22Z</time>
      </trkpt>
      <trkpt lat="47.85517" lon="3.97097">
        <ele>177.5</ele>
        <time>2021-08-11T05:10:29Z</time>
      </trkpt>
      <trkpt lat="47.85517" lon="3.97095">
        <ele>177.5</ele>
        <time>2021-08-11T05:10:30Z</time>
      </trkpt>
      <trkpt lat="47.85517" lon="3.97093">
        <ele>178.46</ele>
        <time>2021-08-11T05:10:31Z</time>
      </trkpt>
      <trkpt lat="47.85517" lon="3.97076">
        <ele>179.9</ele>
        <time>2021-08-11T05:10:41Z</time>
      </trkpt>
      <trkpt lat="47.85519" lon="3.97057">
        <ele>181.83</ele>
        <time>2021-08-11T05:10:51Z</time>
      </trkpt>
      <trkpt lat="47.85519" lon="3.97054">
        <ele>182.31</ele>
        <time>2021-08-11T05:10:53Z</time>
      </trkpt>
      <trkpt lat="47.85519" lon="3.97052">
        <ele>182.31</ele>
        <time>2021-08-11T05:10:54Z</time>
      </trkpt>
      <trkpt lat="47.85519" lon="3.9705">
        <ele>182.79</ele>
        <time>2021-08-11T05:10:55Z</time>
      </trkpt>
      <trkpt lat="47.85519" lon="3.97048">
        <ele>182.79</ele>
        <time>2021-08-11T05:10:56Z</time>
      </trkpt>
      <trkpt lat="47.8552" lon="3.97046">
        <ele>183.27</ele>
        <time>2021-08-11T05:10:57Z</time>
      </trkpt>
      <trkpt lat="47.8552" lon="3.97044">
        <ele>183.27</ele>
        <time>2021-08-11T05:10:58Z</time>
      </trkpt>
      <trkpt lat="47.85527" lon="3.97025">
        <ele>185.67</ele>
        <time>2021-08-11T05:11:09Z</time>
      </trkpt>
      <trkpt lat="47.85535" lon="3.97011">
        <ele>187.59</ele>
        <time>2021-08-11T05:11:18Z</time>
      </trkpt>
      <trkpt lat="47.85549" lon="3.96995">
        <ele>190</ele>
        <time>2021-08-11T05:11:29Z</time>
      </trkpt>
      <trkpt lat="47.85563" lon="3.96984">
        <ele>192.4</ele>
        <time>2021-08-11T05:11:38Z</time>
      </trkpt>
      <trkpt lat="47.85575" lon="3.96973">
        <ele>194.32</ele>
        <time>2021-08-11T05:11:46Z</time>
      </trkpt>
      <trkpt lat="47.85593" lon="3.96956">
        <ele>196.25</ele>
        <time>2021-08-11T05:11:56Z</time>
      </trkpt>
      <trkpt lat="47.85607" lon="3.96941">
        <ele>197.69</ele>
        <time>2021-08-11T05:12:04Z</time>
      </trkpt>
      <trkpt lat="47.8563" lon="3.96918">
        <ele>199.13</ele>
        <time>2021-08-11T05:12:16Z</time>
      </trkpt>
      <trkpt lat="47.85657" lon="3.96899">
        <ele>200.57</ele>
        <time>2021-08-11T05:12:27Z</time>
      </trkpt>
      <trkpt lat="47.85677" lon="3.96885">
        <ele>202.01</ele>
        <time>2021-08-11T05:12:36Z</time>
      </trkpt>
      <trkpt lat="47.85682" lon="3.96871">
        <ele>203.94</ele>
        <time>2021-08-11T05:12:43Z</time>
      </trkpt>
      <trkpt lat="47.85684" lon="3.96854">
        <ele>205.86</ele>
        <time>2021-08-11T05:12:51Z</time>
      </trkpt>
      <trkpt lat="47.85684" lon="3.96852">
        <ele>205.86</ele>
        <time>2021-08-11T05:12:52Z</time>
      </trkpt>
      <trkpt lat="47.85685" lon="3.96849">
        <ele>206.34</ele>
        <time>2021-08-11T05:12:53Z</time>
      </trkpt>
      <trkpt lat="47.85686" lon="3.96847">
        <ele>206.34</ele>
        <time>2021-08-11T05:12:54Z</time>
      </trkpt>
      <trkpt lat="47.85687" lon="3.96844">
        <ele>207.3</ele>
        <time>2021-08-11T05:12:55Z</time>
      </trkpt>
      <trkpt lat="47.85688" lon="3.96841">
        <ele>207.3</ele>
        <time>2021-08-11T05:12:56Z</time>
      </trkpt>
      <trkpt lat="47.85689" lon="3.96838">
        <ele>207.3</ele>
        <time>2021-08-11T05:12:57Z</time>
      </trkpt>
      <trkpt lat="47.8569" lon="3.96835">
        <ele>207.3</ele>
        <time>2021-08-11T05:12:58Z</time>
      </trkpt>
      <trkpt lat="47.85691" lon="3.96832">
        <ele>207.78</ele>
        <time>2021-08-11T05:12:59Z</time>
      </trkpt>
      <trkpt lat="47.85692" lon="3.9683">
        <ele>207.78</ele>
        <time>2021-08-11T05:13:00Z</time>
      </trkpt>
      <trkpt lat="47.85702" lon="3.96807">
        <ele>209.22</ele>
        <time>2021-08-11T05:13:08Z</time>
      </trkpt>
      <trkpt lat="47.85712" lon="3.9678">
        <ele>210.19</ele>
        <time>2021-08-11T05:13:16Z</time>
      </trkpt>
      <trkpt lat="47.85726" lon="3.96749">
        <ele>210.19</ele>
        <time>2021-08-11T05:13:26Z</time>
      </trkpt>
      <trkpt lat="47.85741" lon="3.96718">
        <ele>208.74</ele>
        <time>2021-08-11T05:13:33Z</time>
      </trkpt>
      <trkpt lat="47.85745" lon="3.96712">
        <ele>208.74</ele>
        <time>2021-08-11T05:13:34Z</time>
      </trkpt>
      <trkpt lat="47.85771" lon="3.96667">
        <ele>205.86</ele>
        <time>2021-08-11T05:13:41Z</time>
      </trkpt>
      <trkpt lat="47.85776" lon="3.96656">
        <ele>204.9</ele>
        <time>2021-08-11T05:13:42Z</time>
      </trkpt>
      <trkpt lat="47.85783" lon="3.96636">
        <ele>204.42</ele>
        <time>2021-08-11T05:13:44Z</time>
      </trkpt>
      <trkpt lat="47.85814" lon="3.96563">
        <ele>202.01</ele>
        <time>2021-08-11T05:13:51Z</time>
      </trkpt>
      <trkpt lat="47.85844" lon="3.96517">
        <ele>202.01</ele>
        <time>2021-08-11T05:13:57Z</time>
      </trkpt>
      <trkpt lat="47.85867" lon="3.96484">
        <ele>202.01</ele>
        <time>2021-08-11T05:14:03Z</time>
      </trkpt>
      <trkpt lat="47.85874" lon="3.96476">
        <ele>203.46</ele>
        <time>2021-08-11T05:14:05Z</time>
      </trkpt>
      <trkpt lat="47.85907" lon="3.96434">
        <ele>204.9</ele>
        <time>2021-08-11T05:14:15Z</time>
      </trkpt>
      <trkpt lat="47.85917" lon="3.96408">
        <ele>207.3</ele>
        <time>2021-08-11T05:14:22Z</time>
      </trkpt>
      <trkpt lat="47.85919" lon="3.9638">
        <ele>208.74</ele>
        <time>2021-08-11T05:14:30Z</time>
      </trkpt>
      <trkpt lat="47.85917" lon="3.96353">
        <ele>210.19</ele>
        <time>2021-08-11T05:14:38Z</time>
      </trkpt>
      <trkpt lat="47.85918" lon="3.96335">
        <ele>212.11</ele>
        <time>2021-08-11T05:14:44Z</time>
      </trkpt>
      <trkpt lat="47.85924" lon="3.96308">
        <ele>214.03</ele>
        <time>2021-08-11T05:14:54Z</time>
      </trkpt>
      <trkpt lat="47.85928" lon="3.96286">
        <ele>216.43</ele>
        <time>2021-08-11T05:15:02Z</time>
      </trkpt>
      <trkpt lat="47.85931" lon="3.96281">
        <ele>216.91</ele>
        <time>2021-08-11T05:15:04Z</time>
      </trkpt>
      <trkpt lat="47.85932" lon="3.96279">
        <ele>216.91</ele>
        <time>2021-08-11T05:15:05Z</time>
      </trkpt>
      <trkpt lat="47.85934" lon="3.96278">
        <ele>216.91</ele>
        <time>2021-08-11T05:15:06Z</time>
      </trkpt>
      <trkpt lat="47.85937" lon="3.96277">
        <ele>216.91</ele>
        <time>2021-08-11T05:15:07Z</time>
      </trkpt>
      <trkpt lat="47.85939" lon="3.96277">
        <ele>217.4</ele>
        <time>2021-08-11T05:15:08Z</time>
      </trkpt>
      <trkpt lat="47.85941" lon="3.96278">
        <ele>217.4</ele>
        <time>2021-08-11T05:15:09Z</time>
      </trkpt>
      <trkpt lat="47.85958" lon="3.96281">
        <ele>217.88</ele>
        <time>2021-08-11T05:15:17Z</time>
      </trkpt>
      <trkpt lat="47.8596" lon="3.9628">
        <ele>218.36</ele>
        <time>2021-08-11T05:15:18Z</time>
      </trkpt>
      <trkpt lat="47.85969" lon="3.96273">
        <ele>218.84</ele>
        <time>2021-08-11T05:15:22Z</time>
      </trkpt>
      <trkpt lat="47.8597" lon="3.96271">
        <ele>218.84</ele>
        <time>2021-08-11T05:15:23Z</time>
      </trkpt>
      <trkpt lat="47.85972" lon="3.96269">
        <ele>218.84</ele>
        <time>2021-08-11T05:15:24Z</time>
      </trkpt>
      <trkpt lat="47.85973" lon="3.96267">
        <ele>218.84</ele>
        <time>2021-08-11T05:15:25Z</time>
      </trkpt>
      <trkpt lat="47.85974" lon="3.96265">
        <ele>218.84</ele>
        <time>2021-08-11T05:15:26Z</time>
      </trkpt>
      <trkpt lat="47.85984" lon="3.96248">
        <ele>220.28</ele>
        <time>2021-08-11T05:15:34Z</time>
      </trkpt>
      <trkpt lat="47.85995" lon="3.96232">
        <ele>221.72</ele>
        <time>2021-08-11T05:15:43Z</time>
      </trkpt>
      <trkpt lat="47.86007" lon="3.96214">
        <ele>224.12</ele>
        <time>2021-08-11T05:15:53Z</time>
      </trkpt>
      <trkpt lat="47.86021" lon="3.962">
        <ele>226.05</ele>
        <time>2021-08-11T05:16:03Z</time>
      </trkpt>
      <trkpt lat="47.86037" lon="3.96189">
        <ele>227.97</ele>
        <time>2021-08-11T05:16:14Z</time>
      </trkpt>
      <trkpt lat="47.8605" lon="3.96185">
        <ele>229.89</ele>
        <time>2021-08-11T05:16:23Z</time>
      </trkpt>
      <trkpt lat="47.86065" lon="3.96183">
        <ele>231.81</ele>
        <time>2021-08-11T05:16:32Z</time>
      </trkpt>
      <trkpt lat="47.86079" lon="3.96183">
        <ele>233.26</ele>
        <time>2021-08-11T05:16:41Z</time>
      </trkpt>
      <trkpt lat="47.86081" lon="3.96183">
        <ele>233.26</ele>
        <time>2021-08-11T05:16:42Z</time>
      </trkpt>
      <trkpt lat="47.86082" lon="3.96183">
        <ele>233.74</ele>
        <time>2021-08-11T05:16:43Z</time>
      </trkpt>
      <trkpt lat="47.86094" lon="3.96184">
        <ele>235.66</ele>
        <time>2021-08-11T05:16:52Z</time>
      </trkpt>
      <trkpt lat="47.86105" lon="3.96184">
        <ele>236.62</ele>
        <time>2021-08-11T05:17:00Z</time>
      </trkpt>
      <trkpt lat="47.86118" lon="3.96182">
        <ele>239.02</ele>
        <time>2021-08-11T05:17:10Z</time>
      </trkpt>
      <trkpt lat="47.8613" lon="3.96178">
        <ele>240.95</ele>
        <time>2021-08-11T05:17:20Z</time>
      </trkpt>
      <trkpt lat="47.86138" lon="3.96174">
        <ele>241.91</ele>
        <time>2021-08-11T05:17:27Z</time>
      </trkpt>
      <trkpt lat="47.8614" lon="3.96174">
        <ele>241.91</ele>
        <time>2021-08-11T05:17:28Z</time>
      </trkpt>
      <trkpt lat="47.86146" lon="3.96169">
        <ele>243.35</ele>
        <time>2021-08-11T05:17:34Z</time>
      </trkpt>
      <trkpt lat="47.86147" lon="3.96168">
        <ele>243.35</ele>
        <time>2021-08-11T05:17:35Z</time>
      </trkpt>
      <trkpt lat="47.86147" lon="3.96166">
        <ele>243.35</ele>
        <time>2021-08-11T05:17:36Z</time>
      </trkpt>
      <trkpt lat="47.86148" lon="3.96165">
        <ele>244.31</ele>
        <time>2021-08-11T05:17:37Z</time>
      </trkpt>
      <trkpt lat="47.8615" lon="3.96165">
        <ele>244.31</ele>
        <time>2021-08-11T05:17:38Z</time>
      </trkpt>
      <trkpt lat="47.86151" lon="3.96165">
        <ele>244.31</ele>
        <time>2021-08-11T05:17:39Z</time>
      </trkpt>
      <trkpt lat="47.86162" lon="3.96159">
        <ele>246.23</ele>
        <time>2021-08-11T05:17:48Z</time>
      </trkpt>
      <trkpt lat="47.86175" lon="3.96152">
        <ele>248.64</ele>
        <time>2021-08-11T05:18:00Z</time>
      </trkpt>
      <trkpt lat="47.86177" lon="3.9615">
        <ele>248.64</ele>
        <time>2021-08-11T05:18:02Z</time>
      </trkpt>
      <trkpt lat="47.86178" lon="3.96149">
        <ele>249.12</ele>
        <time>2021-08-11T05:18:03Z</time>
      </trkpt>
      <trkpt lat="47.86179" lon="3.96148">
        <ele>249.12</ele>
        <time>2021-08-11T05:18:04Z</time>
      </trkpt>
      <trkpt lat="47.8619" lon="3.96139">
        <ele>251.04</ele>
        <time>2021-08-11T05:18:15Z</time>
      </trkpt>
      <trkpt lat="47.862" lon="3.96128">
        <ele>252.48</ele>
        <time>2021-08-11T05:18:23Z</time>
      </trkpt>
      <trkpt lat="47.8621" lon="3.96114">
        <ele>254.41</ele>
        <time>2021-08-11T05:18:33Z</time>
      </trkpt>
      <trkpt lat="47.86216" lon="3.96098">
        <ele>255.85</ele>
        <time>2021-08-11T05:18:42Z</time>
      </trkpt>
      <trkpt lat="47.86219" lon="3.96079">
        <ele>257.29</ele>
        <time>2021-08-11T05:18:51Z</time>
      </trkpt>
      <trkpt lat="47.86219" lon="3.96057">
        <ele>260.17</ele>
        <time>2021-08-11T05:19:00Z</time>
      </trkpt>
      <trkpt lat="47.86219" lon="3.96054">
        <ele>260.17</ele>
        <time>2021-08-11T05:19:02Z</time>
      </trkpt>
      <trkpt lat="47.86218" lon="3.96054">
        <ele>260.17</ele>
        <time>2021-08-11T05:19:03Z</time>
      </trkpt>
      <trkpt lat="47.86218" lon="3.96056">
        <ele>260.65</ele>
        <time>2021-08-11T05:19:04Z</time>
      </trkpt>
      <trkpt lat="47.86219" lon="3.96059">
        <ele>260.65</ele>
        <time>2021-08-11T05:19:05Z</time>
      </trkpt>
      <trkpt lat="47.86219" lon="3.96063">
        <ele>260.65</ele>
        <time>2021-08-11T05:19:06Z</time>
      </trkpt>
      <trkpt lat="47.8622" lon="3.9607">
        <ele>259.21</ele>
        <time>2021-08-11T05:19:08Z</time>
      </trkpt>
      <trkpt lat="47.86221" lon="3.96072">
        <ele>258.25</ele>
        <time>2021-08-11T05:19:09Z</time>
      </trkpt>
      <trkpt lat="47.86223" lon="3.96072">
        <ele>258.25</ele>
        <time>2021-08-11T05:19:10Z</time>
      </trkpt>
      <trkpt lat="47.86224" lon="3.96071">
        <ele>258.25</ele>
        <time>2021-08-11T05:19:11Z</time>
      </trkpt>
      <trkpt lat="47.86225" lon="3.96069">
        <ele>258.25</ele>
        <time>2021-08-11T05:19:12Z</time>
      </trkpt>
      <trkpt lat="47.86227" lon="3.96067">
        <ele>258.25</ele>
        <time>2021-08-11T05:19:13Z</time>
      </trkpt>
      <trkpt lat="47.86234" lon="3.96053">
        <ele>259.69</ele>
        <time>2021-08-11T05:19:20Z</time>
      </trkpt>
      <trkpt lat="47.86241" lon="3.96033">
        <ele>260.65</ele>
        <time>2021-08-11T05:19:28Z</time>
      </trkpt>
      <trkpt lat="47.86248" lon="3.96011">
        <ele>261.14</ele>
        <time>2021-08-11T05:19:36Z</time>
      </trkpt>
      <trkpt lat="47.86256" lon="3.95983">
        <ele>262.1</ele>
        <time>2021-08-11T05:19:44Z</time>
      </trkpt>
      <trkpt lat="47.86263" lon="3.95954">
        <ele>263.06</ele>
        <time>2021-08-11T05:19:53Z</time>
      </trkpt>
      <trkpt lat="47.8627" lon="3.95927">
        <ele>264.5</ele>
        <time>2021-08-11T05:20:02Z</time>
      </trkpt>
      <trkpt lat="47.86277" lon="3.95902">
        <ele>264.98</ele>
        <time>2021-08-11T05:20:09Z</time>
      </trkpt>
      <trkpt lat="47.86288" lon="3.95869">
        <ele>264.98</ele>
        <time>2021-08-11T05:20:18Z</time>
      </trkpt>
      <trkpt lat="47.86297" lon="3.95841">
        <ele>265.46</ele>
        <time>2021-08-11T05:20:26Z</time>
      </trkpt>
      <trkpt lat="47.86307" lon="3.95811">
        <ele>265.94</ele>
        <time>2021-08-11T05:20:34Z</time>
      </trkpt>
      <trkpt lat="47.8632" lon="3.95778">
        <ele>267.38</ele>
        <time>2021-08-11T05:20:42Z</time>
      </trkpt>
      <trkpt lat="47.86331" lon="3.95756">
        <ele>267.86</ele>
        <time>2021-08-11T05:20:48Z</time>
      </trkpt>
      <trkpt lat="47.86342" lon="3.9572">
        <ele>267.86</ele>
        <time>2021-08-11T05:20:58Z</time>
      </trkpt>
      <trkpt lat="47.86337" lon="3.95702">
        <ele>269.31</ele>
        <time>2021-08-11T05:21:04Z</time>
      </trkpt>
      <trkpt lat="47.86325" lon="3.95693">
        <ele>270.27</ele>
        <time>2021-08-11T05:21:11Z</time>
      </trkpt>
      <trkpt lat="47.86312" lon="3.95686">
        <ele>271.71</ele>
        <time>2021-08-11T05:21:18Z</time>
      </trkpt>
      <trkpt lat="47.86302" lon="3.95681">
        <ele>272.19</ele>
        <time>2021-08-11T05:21:23Z</time>
      </trkpt>
      <trkpt lat="47.86302" lon="3.9568">
        <ele>272.19</ele>
        <time>2021-08-11T05:21:24Z</time>
      </trkpt>
      <trkpt lat="47.86307" lon="3.95682">
        <ele>272.67</ele>
        <time>2021-08-11T05:21:27Z</time>
      </trkpt>
      <trkpt lat="47.8631" lon="3.95683">
        <ele>272.67</ele>
        <time>2021-08-11T05:21:28Z</time>
      </trkpt>
      <trkpt lat="47.86313" lon="3.95684">
        <ele>272.67</ele>
        <time>2021-08-11T05:21:29Z</time>
      </trkpt>
      <trkpt lat="47.86316" lon="3.95685">
        <ele>272.67</ele>
        <time>2021-08-11T05:21:30Z</time>
      </trkpt>
      <trkpt lat="47.8632" lon="3.95684">
        <ele>271.23</ele>
        <time>2021-08-11T05:21:31Z</time>
      </trkpt>
      <trkpt lat="47.86325" lon="3.95683">
        <ele>271.23</ele>
        <time>2021-08-11T05:21:32Z</time>
      </trkpt>
      <trkpt lat="47.86329" lon="3.9568">
        <ele>271.23</ele>
        <time>2021-08-11T05:21:33Z</time>
      </trkpt>
      <trkpt lat="47.86333" lon="3.95676">
        <ele>271.23</ele>
        <time>2021-08-11T05:21:34Z</time>
      </trkpt>
      <trkpt lat="47.86338" lon="3.95671">
        <ele>270.75</ele>
        <time>2021-08-11T05:21:35Z</time>
      </trkpt>
      <trkpt lat="47.86365" lon="3.95629">
        <ele>269.79</ele>
        <time>2021-08-11T05:21:42Z</time>
      </trkpt>
      <trkpt lat="47.86373" lon="3.95608">
        <ele>269.79</ele>
        <time>2021-08-11T05:21:45Z</time>
      </trkpt>
      <trkpt lat="47.86376" lon="3.95601">
        <ele>269.79</ele>
        <time>2021-08-11T05:21:46Z</time>
      </trkpt>
      <trkpt lat="47.86378" lon="3.95594">
        <ele>269.79</ele>
        <time>2021-08-11T05:21:47Z</time>
      </trkpt>
      <trkpt lat="47.86389" lon="3.95548">
        <ele>269.79</ele>
        <time>2021-08-11T05:21:54Z</time>
      </trkpt>
      <trkpt lat="47.86391" lon="3.95541">
        <ele>269.79</ele>
        <time>2021-08-11T05:21:55Z</time>
      </trkpt>
      <trkpt lat="47.86406" lon="3.95485">
        <ele>268.83</ele>
        <time>2021-08-11T05:22:03Z</time>
      </trkpt>
      <trkpt lat="47.8643" lon="3.95409">
        <ele>266.9</ele>
        <time>2021-08-11T05:22:13Z</time>
      </trkpt>
      <trkpt lat="47.86452" lon="3.95347">
        <ele>265.46</ele>
        <time>2021-08-11T05:22:21Z</time>
      </trkpt>
      <trkpt lat="47.86468" lon="3.95284">
        <ele>264.5</ele>
        <time>2021-08-11T05:22:29Z</time>
      </trkpt>
      <trkpt lat="47.8647" lon="3.95277">
        <ele>264.98</ele>
        <time>2021-08-11T05:22:30Z</time>
      </trkpt>
      <trkpt lat="47.86486" lon="3.95215">
        <ele>264.5</ele>
        <time>2021-08-11T05:22:38Z</time>
      </trkpt>
      <trkpt lat="47.86509" lon="3.9515">
        <ele>264.5</ele>
        <time>2021-08-11T05:22:48Z</time>
      </trkpt>
      <trkpt lat="47.86511" lon="3.95143">
        <ele>264.5</ele>
        <time>2021-08-11T05:22:49Z</time>
      </trkpt>
      <trkpt lat="47.86518" lon="3.95108">
        <ele>264.5</ele>
        <time>2021-08-11T05:22:54Z</time>
      </trkpt>
      <trkpt lat="47.8652" lon="3.95095">
        <ele>264.5</ele>
        <time>2021-08-11T05:22:56Z</time>
      </trkpt>
      <trkpt lat="47.86521" lon="3.95088">
        <ele>264.5</ele>
        <time>2021-08-11T05:22:57Z</time>
      </trkpt>
      <trkpt lat="47.86524" lon="3.95055">
        <ele>265.94</ele>
        <time>2021-08-11T05:23:02Z</time>
      </trkpt>
      <trkpt lat="47.86524" lon="3.95049">
        <ele>265.94</ele>
        <time>2021-08-11T05:23:03Z</time>
      </trkpt>
      <trkpt lat="47.86525" lon="3.95042">
        <ele>265.94</ele>
        <time>2021-08-11T05:23:04Z</time>
      </trkpt>
      <trkpt lat="47.86526" lon="3.95036">
        <ele>266.42</ele>
        <time>2021-08-11T05:23:05Z</time>
      </trkpt>
      <trkpt lat="47.86526" lon="3.9503">
        <ele>266.42</ele>
        <time>2021-08-11T05:23:06Z</time>
      </trkpt>
      <trkpt lat="47.86533" lon="3.94996">
        <ele>266.9</ele>
        <time>2021-08-11T05:23:12Z</time>
      </trkpt>
      <trkpt lat="47.86544" lon="3.94951">
        <ele>267.86</ele>
        <time>2021-08-11T05:23:21Z</time>
      </trkpt>
      <trkpt lat="47.86558" lon="3.94902">
        <ele>268.83</ele>
        <time>2021-08-11T05:23:31Z</time>
      </trkpt>
      <trkpt lat="47.86571" lon="3.94853">
        <ele>269.79</ele>
        <time>2021-08-11T05:23:41Z</time>
      </trkpt>
      <trkpt lat="47.86584" lon="3.948">
        <ele>270.75</ele>
        <time>2021-08-11T05:23:54Z</time>
      </trkpt>
      <trkpt lat="47.86584" lon="3.94801">
        <ele>270.75</ele>
        <time>2021-08-11T05:24:03Z</time>
      </trkpt>
      <trkpt lat="47.86583" lon="3.94802">
        <ele>270.75</ele>
        <time>2021-08-11T05:24:19Z</time>
      </trkpt>
      <trkpt lat="47.86583" lon="3.94801">
        <ele>270.75</ele>
        <time>2021-08-11T05:24:34Z</time>
      </trkpt>
      <trkpt lat="47.86583" lon="3.94801">
        <ele>270.75</ele>
        <time>2021-08-11T05:24:51Z</time>
      </trkpt>
      <trkpt lat="47.86584" lon="3.94801">
        <ele>270.75</ele>
        <time>2021-08-11T05:25:01Z</time>
      </trkpt>
      <trkpt lat="47.86584" lon="3.94799">
        <ele>270.75</ele>
        <time>2021-08-11T05:25:14Z</time>
      </trkpt>
      <trkpt lat="47.86583" lon="3.94798">
        <ele>270.75</ele>
        <time>2021-08-11T05:25:15Z</time>
      </trkpt>
      <trkpt lat="47.86582" lon="3.94799">
        <ele>270.75</ele>
        <time>2021-08-11T05:25:21Z</time>
      </trkpt>
      <trkpt lat="47.86583" lon="3.94801">
        <ele>270.75</ele>
        <time>2021-08-11T05:25:30Z</time>
      </trkpt>
      <trkpt lat="47.86583" lon="3.94801">
        <ele>270.75</ele>
        <time>2021-08-11T05:25:41Z</time>
      </trkpt>
      <trkpt lat="47.86585" lon="3.94802">
        <ele>270.75</ele>
        <time>2021-08-11T05:25:57Z</time>
      </trkpt>
      <trkpt lat="47.86585" lon="3.94804">
        <ele>270.75</ele>
        <time>2021-08-11T05:26:13Z</time>
      </trkpt>
      <trkpt lat="47.86585" lon="3.94802">
        <ele>270.75</ele>
        <time>2021-08-11T05:26:27Z</time>
      </trkpt>
      <trkpt lat="47.86585" lon="3.94802">
        <ele>270.75</ele>
        <time>2021-08-11T05:26:45Z</time>
      </trkpt>
      <trkpt lat="47.86584" lon="3.94801">
        <ele>270.75</ele>
        <time>2021-08-11T05:27:01Z</time>
      </trkpt>
      <trkpt lat="47.86584" lon="3.94799">
        <ele>270.75</ele>
        <time>2021-08-11T05:27:18Z</time>
      </trkpt>
      <trkpt lat="47.86584" lon="3.94799">
        <ele>270.75</ele>
        <time>2021-08-11T05:27:37Z</time>
      </trkpt>
      <trkpt lat="47.86585" lon="3.94796">
        <ele>270.75</ele>
        <time>2021-08-11T05:27:39Z</time>
      </trkpt>
      <trkpt lat="47.86585" lon="3.94794">
        <ele>270.75</ele>
        <time>2021-08-11T05:27:40Z</time>
      </trkpt>
      <trkpt lat="47.86586" lon="3.94792">
        <ele>270.75</ele>
        <time>2021-08-11T05:27:41Z</time>
      </trkpt>
      <trkpt lat="47.86593" lon="3.94761">
        <ele>271.23</ele>
        <time>2021-08-11T05:27:50Z</time>
      </trkpt>
      <trkpt lat="47.86601" lon="3.94724">
        <ele>272.19</ele>
        <time>2021-08-11T05:28:00Z</time>
      </trkpt>
      <trkpt lat="47.86607" lon="3.9469">
        <ele>272.19</ele>
        <time>2021-08-11T05:28:09Z</time>
      </trkpt>
      <trkpt lat="47.86612" lon="3.9466">
        <ele>272.67</ele>
        <time>2021-08-11T05:28:17Z</time>
      </trkpt>
      <trkpt lat="47.86618" lon="3.94627">
        <ele>273.15</ele>
        <time>2021-08-11T05:28:25Z</time>
      </trkpt>
      <trkpt lat="47.8662" lon="3.94619">
        <ele>273.63</ele>
        <time>2021-08-11T05:28:27Z</time>
      </trkpt>
      <trkpt lat="47.86621" lon="3.94615">
        <ele>273.63</ele>
        <time>2021-08-11T05:28:28Z</time>
      </trkpt>
      <trkpt lat="47.86629" lon="3.94573">
        <ele>275.07</ele>
        <time>2021-08-11T05:28:38Z</time>
      </trkpt>
      <trkpt lat="47.86636" lon="3.94542">
        <ele>276.04</ele>
        <time>2021-08-11T05:28:46Z</time>
      </trkpt>
      <trkpt lat="47.86645" lon="3.94505">
        <ele>276.52</ele>
        <time>2021-08-11T05:28:55Z</time>
      </trkpt>
      <trkpt lat="47.86655" lon="3.94472">
        <ele>277.48</ele>
        <time>2021-08-11T05:29:03Z</time>
      </trkpt>
      <trkpt lat="47.86665" lon="3.94439">
        <ele>277.96</ele>
        <time>2021-08-11T05:29:11Z</time>
      </trkpt>
      <trkpt lat="47.86678" lon="3.94397">
        <ele>278.44</ele>
        <time>2021-08-11T05:29:21Z</time>
      </trkpt>
      <trkpt lat="47.86686" lon="3.94355">
        <ele>279.88</ele>
        <time>2021-08-11T05:29:31Z</time>
      </trkpt>
      <trkpt lat="47.86693" lon="3.94315">
        <ele>281.32</ele>
        <time>2021-08-11T05:29:41Z</time>
      </trkpt>
      <trkpt lat="47.867" lon="3.94288">
        <ele>281.8</ele>
        <time>2021-08-11T05:29:49Z</time>
      </trkpt>
      <trkpt lat="47.86706" lon="3.94264">
        <ele>282.77</ele>
        <time>2021-08-11T05:29:56Z</time>
      </trkpt>
      <trkpt lat="47.86711" lon="3.94239">
        <ele>284.21</ele>
        <time>2021-08-11T05:30:04Z</time>
      </trkpt>
      <trkpt lat="47.86715" lon="3.94219">
        <ele>284.69</ele>
        <time>2021-08-11T05:30:10Z</time>
      </trkpt>
      <trkpt lat="47.86721" lon="3.94196">
        <ele>285.65</ele>
        <time>2021-08-11T05:30:17Z</time>
      </trkpt>
      <trkpt lat="47.86733" lon="3.94167">
        <ele>287.09</ele>
        <time>2021-08-11T05:30:27Z</time>
      </trkpt>
      <trkpt lat="47.86744" lon="3.94146">
        <ele>287.09</ele>
        <time>2021-08-11T05:30:34Z</time>
      </trkpt>
      <trkpt lat="47.86757" lon="3.9412">
        <ele>288.05</ele>
        <time>2021-08-11T05:30:42Z</time>
      </trkpt>
      <trkpt lat="47.86771" lon="3.94089">
        <ele>287.57</ele>
        <time>2021-08-11T05:30:50Z</time>
      </trkpt>
      <trkpt lat="47.86784" lon="3.94059">
        <ele>287.57</ele>
        <time>2021-08-11T05:30:56Z</time>
      </trkpt>
      <trkpt lat="47.86791" lon="3.94043">
        <ele>287.57</ele>
        <time>2021-08-11T05:30:59Z</time>
      </trkpt>
      <trkpt lat="47.86793" lon="3.94037">
        <ele>287.57</ele>
        <time>2021-08-11T05:31:00Z</time>
      </trkpt>
      <trkpt lat="47.86798" lon="3.94024">
        <ele>286.61</ele>
        <time>2021-08-11T05:31:02Z</time>
      </trkpt>
      <trkpt lat="47.86813" lon="3.93983">
        <ele>284.69</ele>
        <time>2021-08-11T05:31:08Z</time>
      </trkpt>
      <trkpt lat="47.8682" lon="3.93961">
        <ele>282.77</ele>
        <time>2021-08-11T05:31:11Z</time>
      </trkpt>
      <trkpt lat="47.86824" lon="3.93953">
        <ele>282.77</ele>
        <time>2021-08-11T05:31:12Z</time>
      </trkpt>
      <trkpt lat="47.8683" lon="3.93936">
        <ele>281.8</ele>
        <time>2021-08-11T05:31:14Z</time>
      </trkpt>
      <trkpt lat="47.86835" lon="3.93919">
        <ele>281.32</ele>
        <time>2021-08-11T05:31:16Z</time>
      </trkpt>
      <trkpt lat="47.86838" lon="3.9391">
        <ele>280.84</ele>
        <time>2021-08-11T05:31:17Z</time>
      </trkpt>
      <trkpt lat="47.86854" lon="3.93835">
        <ele>277.48</ele>
        <time>2021-08-11T05:31:24Z</time>
      </trkpt>
      <trkpt lat="47.86865" lon="3.93763">
        <ele>274.11</ele>
        <time>2021-08-11T05:31:30Z</time>
      </trkpt>
      <trkpt lat="47.86878" lon="3.93701">
        <ele>271.71</ele>
        <time>2021-08-11T05:31:35Z</time>
      </trkpt>
      <trkpt lat="47.86885" lon="3.93671">
        <ele>271.23</ele>
        <time>2021-08-11T05:31:38Z</time>
      </trkpt>
      <trkpt lat="47.86891" lon="3.93608">
        <ele>269.79</ele>
        <time>2021-08-11T05:31:45Z</time>
      </trkpt>
      <trkpt lat="47.86892" lon="3.93599">
        <ele>269.31</ele>
        <time>2021-08-11T05:31:46Z</time>
      </trkpt>
      <trkpt lat="47.86893" lon="3.93591">
        <ele>268.35</ele>
        <time>2021-08-11T05:31:47Z</time>
      </trkpt>
      <trkpt lat="47.86911" lon="3.93515">
        <ele>265.94</ele>
        <time>2021-08-11T05:31:55Z</time>
      </trkpt>
      <trkpt lat="47.86921" lon="3.9346">
        <ele>265.46</ele>
        <time>2021-08-11T05:32:01Z</time>
      </trkpt>
      <trkpt lat="47.86936" lon="3.93402">
        <ele>264.98</ele>
        <time>2021-08-11T05:32:09Z</time>
      </trkpt>
      <trkpt lat="47.86959" lon="3.93345">
        <ele>264.98</ele>
        <time>2021-08-11T05:32:20Z</time>
      </trkpt>
      <trkpt lat="47.86977" lon="3.93301">
        <ele>264.98</ele>
        <time>2021-08-11T05:32:29Z</time>
      </trkpt>
      <trkpt lat="47.87005" lon="3.93246">
        <ele>264.98</ele>
        <time>2021-08-11T05:32:40Z</time>
      </trkpt>
      <trkpt lat="47.8704" lon="3.93187">
        <ele>264.98</ele>
        <time>2021-08-11T05:32:52Z</time>
      </trkpt>
      <trkpt lat="47.87061" lon="3.93152">
        <ele>264.98</ele>
        <time>2021-08-11T05:33:00Z</time>
      </trkpt>
      <trkpt lat="47.87077" lon="3.93125">
        <ele>264.98</ele>
        <time>2021-08-11T05:33:06Z</time>
      </trkpt>
      <trkpt lat="47.87093" lon="3.93087">
        <ele>264.98</ele>
        <time>2021-08-11T05:33:14Z</time>
      </trkpt>
      <trkpt lat="47.87098" lon="3.93075">
        <ele>266.42</ele>
        <time>2021-08-11T05:33:17Z</time>
      </trkpt>
      <trkpt lat="47.87106" lon="3.93049">
        <ele>267.38</ele>
        <time>2021-08-11T05:33:25Z</time>
      </trkpt>
      <trkpt lat="47.87112" lon="3.9302">
        <ele>268.35</ele>
        <time>2021-08-11T05:33:34Z</time>
      </trkpt>
      <trkpt lat="47.87118" lon="3.92993">
        <ele>269.79</ele>
        <time>2021-08-11T05:33:42Z</time>
      </trkpt>
      <trkpt lat="47.87126" lon="3.9296">
        <ele>271.23</ele>
        <time>2021-08-11T05:33:52Z</time>
      </trkpt>
      <trkpt lat="47.87138" lon="3.92916">
        <ele>273.15</ele>
        <time>2021-08-11T05:34:04Z</time>
      </trkpt>
      <trkpt lat="47.87147" lon="3.92878">
        <ele>273.63</ele>
        <time>2021-08-11T05:34:14Z</time>
      </trkpt>
      <trkpt lat="47.87159" lon="3.92836">
        <ele>275.07</ele>
        <time>2021-08-11T05:34:25Z</time>
      </trkpt>
      <trkpt lat="47.8717" lon="3.92802">
        <ele>275.07</ele>
        <time>2021-08-11T05:34:33Z</time>
      </trkpt>
      <trkpt lat="47.87189" lon="3.92747">
        <ele>275.07</ele>
        <time>2021-08-11T05:34:44Z</time>
      </trkpt>
      <trkpt lat="47.8721" lon="3.92687">
        <ele>273.63</ele>
        <time>2021-08-11T05:34:55Z</time>
      </trkpt>
      <trkpt lat="47.87236" lon="3.92633">
        <ele>271.23</ele>
        <time>2021-08-11T05:35:03Z</time>
      </trkpt>
      <trkpt lat="47.87256" lon="3.92577">
        <ele>267.86</ele>
        <time>2021-08-11T05:35:09Z</time>
      </trkpt>
      <trkpt lat="47.8727" lon="3.92531">
        <ele>265.94</ele>
        <time>2021-08-11T05:35:13Z</time>
      </trkpt>
      <trkpt lat="47.87279" lon="3.92493">
        <ele>263.06</ele>
        <time>2021-08-11T05:35:16Z</time>
      </trkpt>
      <trkpt lat="47.87294" lon="3.92424">
        <ele>259.21</ele>
        <time>2021-08-11T05:35:21Z</time>
      </trkpt>
      <trkpt lat="47.87299" lon="3.92398">
        <ele>258.73</ele>
        <time>2021-08-11T05:35:23Z</time>
      </trkpt>
      <trkpt lat="47.87311" lon="3.92323">
        <ele>257.77</ele>
        <time>2021-08-11T05:35:29Z</time>
      </trkpt>
      <trkpt lat="47.87326" lon="3.92244">
        <ele>255.37</ele>
        <time>2021-08-11T05:35:36Z</time>
      </trkpt>
      <trkpt lat="47.87338" lon="3.92183">
        <ele>251.52</ele>
        <time>2021-08-11T05:35:41Z</time>
      </trkpt>
      <trkpt lat="47.8734" lon="3.92157">
        <ele>251.04</ele>
        <time>2021-08-11T05:35:43Z</time>
      </trkpt>
      <trkpt lat="47.8734" lon="3.92114">
        <ele>251.04</ele>
        <time>2021-08-11T05:35:47Z</time>
      </trkpt>
      <trkpt lat="47.87336" lon="3.92092">
        <ele>252.96</ele>
        <time>2021-08-11T05:35:51Z</time>
      </trkpt>
      <trkpt lat="47.87334" lon="3.92093">
        <ele>252.96</ele>
        <time>2021-08-11T05:35:52Z</time>
      </trkpt>
      <trkpt lat="47.87326" lon="3.92099">
        <ele>251.04</ele>
        <time>2021-08-11T05:35:55Z</time>
      </trkpt>
      <trkpt lat="47.87323" lon="3.92099">
        <ele>250.56</ele>
        <time>2021-08-11T05:35:56Z</time>
      </trkpt>
      <trkpt lat="47.87315" lon="3.921">
        <ele>250.08</ele>
        <time>2021-08-11T05:35:58Z</time>
      </trkpt>
      <trkpt lat="47.87299" lon="3.92098">
        <ele>247.68</ele>
        <time>2021-08-11T05:36:01Z</time>
      </trkpt>
      <trkpt lat="47.87287" lon="3.92095">
        <ele>246.23</ele>
        <time>2021-08-11T05:36:03Z</time>
      </trkpt>
      <trkpt lat="47.87273" lon="3.92089">
        <ele>245.75</ele>
        <time>2021-08-11T05:36:05Z</time>
      </trkpt>
      <trkpt lat="47.87229" lon="3.92056">
        <ele>244.31</ele>
        <time>2021-08-11T05:36:12Z</time>
      </trkpt>
      <trkpt lat="47.87226" lon="3.92054">
        <ele>244.31</ele>
        <time>2021-08-11T05:36:13Z</time>
      </trkpt>
      <trkpt lat="47.87223" lon="3.92052">
        <ele>244.31</ele>
        <time>2021-08-11T05:36:16Z</time>
      </trkpt>
      <trkpt lat="47.87217" lon="3.92047">
        <ele>244.31</ele>
        <time>2021-08-11T05:36:22Z</time>
      </trkpt>
      <trkpt lat="47.87207" lon="3.92043">
        <ele>244.31</ele>
        <time>2021-08-11T05:36:25Z</time>
      </trkpt>
      <trkpt lat="47.87168" lon="3.92017">
        <ele>243.35</ele>
        <time>2021-08-11T05:36:34Z</time>
      </trkpt>
      <trkpt lat="47.8714" lon="3.91998">
        <ele>242.39</ele>
        <time>2021-08-11T05:36:41Z</time>
      </trkpt>
      <trkpt lat="47.87102" lon="3.91972">
        <ele>240.47</ele>
        <time>2021-08-11T05:36:48Z</time>
      </trkpt>
      <trkpt lat="47.87063" lon="3.91945">
        <ele>239.51</ele>
        <time>2021-08-11T05:36:56Z</time>
      </trkpt>
      <trkpt lat="47.87017" lon="3.91914">
        <ele>237.58</ele>
        <time>2021-08-11T05:37:05Z</time>
      </trkpt>
      <trkpt lat="47.86979" lon="3.91891">
        <ele>235.66</ele>
        <time>2021-08-11T05:37:12Z</time>
      </trkpt>
      <trkpt lat="47.86928" lon="3.91856">
        <ele>233.74</ele>
        <time>2021-08-11T05:37:21Z</time>
      </trkpt>
      <trkpt lat="47.86888" lon="3.9183">
        <ele>232.78</ele>
        <time>2021-08-11T05:37:28Z</time>
      </trkpt>
      <trkpt lat="47.86857" lon="3.91808">
        <ele>232.78</ele>
        <time>2021-08-11T05:37:35Z</time>
      </trkpt>
      <trkpt lat="47.86844" lon="3.918">
        <ele>232.78</ele>
        <time>2021-08-11T05:37:38Z</time>
      </trkpt>
      <trkpt lat="47.8684" lon="3.91798">
        <ele>232.78</ele>
        <time>2021-08-11T05:37:39Z</time>
      </trkpt>
      <trkpt lat="47.86834" lon="3.91796">
        <ele>232.78</ele>
        <time>2021-08-11T05:37:40Z</time>
      </trkpt>
      <trkpt lat="47.86824" lon="3.91796">
        <ele>232.78</ele>
        <time>2021-08-11T05:37:42Z</time>
      </trkpt>
      <trkpt lat="47.86818" lon="3.91797">
        <ele>232.3</ele>
        <time>2021-08-11T05:37:43Z</time>
      </trkpt>
      <trkpt lat="47.86783" lon="3.91806">
        <ele>229.41</ele>
        <time>2021-08-11T05:37:48Z</time>
      </trkpt>
      <trkpt lat="47.86762" lon="3.91814">
        <ele>228.93</ele>
        <time>2021-08-11T05:37:51Z</time>
      </trkpt>
      <trkpt lat="47.86755" lon="3.91819">
        <ele>228.93</ele>
        <time>2021-08-11T05:37:52Z</time>
      </trkpt>
      <trkpt lat="47.86719" lon="3.91856">
        <ele>226.05</ele>
        <time>2021-08-11T05:37:58Z</time>
      </trkpt>
      <trkpt lat="47.86713" lon="3.91863">
        <ele>226.05</ele>
        <time>2021-08-11T05:37:59Z</time>
      </trkpt>
      <trkpt lat="47.86687" lon="3.9189">
        <ele>224.61</ele>
        <time>2021-08-11T05:38:03Z</time>
      </trkpt>
      <trkpt lat="47.86663" lon="3.91916">
        <ele>222.68</ele>
        <time>2021-08-11T05:38:07Z</time>
      </trkpt>
      <trkpt lat="47.86657" lon="3.91919">
        <ele>222.2</ele>
        <time>2021-08-11T05:38:08Z</time>
      </trkpt>
      <trkpt lat="47.86624" lon="3.91922">
        <ele>221.24</ele>
        <time>2021-08-11T05:38:14Z</time>
      </trkpt>
      <trkpt lat="47.86591" lon="3.91924">
        <ele>220.76</ele>
        <time>2021-08-11T05:38:21Z</time>
      </trkpt>
      <trkpt lat="47.86566" lon="3.91922">
        <ele>221.24</ele>
        <time>2021-08-11T05:38:26Z</time>
      </trkpt>
      <trkpt lat="47.86545" lon="3.91921">
        <ele>220.28</ele>
        <time>2021-08-11T05:38:31Z</time>
      </trkpt>
      <trkpt lat="47.86529" lon="3.91917">
        <ele>220.28</ele>
        <time>2021-08-11T05:38:34Z</time>
      </trkpt>
      <trkpt lat="47.86524" lon="3.91914">
        <ele>219.8</ele>
        <time>2021-08-11T05:38:35Z</time>
      </trkpt>
      <trkpt lat="47.86509" lon="3.91908">
        <ele>219.8</ele>
        <time>2021-08-11T05:38:38Z</time>
      </trkpt>
      <trkpt lat="47.86467" lon="3.91905">
        <ele>219.8</ele>
        <time>2021-08-11T05:38:46Z</time>
      </trkpt>
      <trkpt lat="47.86427" lon="3.91913">
        <ele>222.2</ele>
        <time>2021-08-11T05:38:55Z</time>
      </trkpt>
      <trkpt lat="47.86404" lon="3.91907">
        <ele>223.64</ele>
        <time>2021-08-11T05:39:03Z</time>
      </trkpt>
      <trkpt lat="47.86398" lon="3.91903">
        <ele>224.61</ele>
        <time>2021-08-11T05:39:06Z</time>
      </trkpt>
      <trkpt lat="47.86381" lon="3.91898">
        <ele>225.57</ele>
        <time>2021-08-11T05:39:13Z</time>
      </trkpt>
      <trkpt lat="47.86356" lon="3.91885">
        <ele>226.53</ele>
        <time>2021-08-11T05:39:22Z</time>
      </trkpt>
      <trkpt lat="47.8632" lon="3.91869">
        <ele>225.09</ele>
        <time>2021-08-11T05:39:31Z</time>
      </trkpt>
      <trkpt lat="47.86276" lon="3.91838">
        <ele>223.16</ele>
        <time>2021-08-11T05:39:40Z</time>
      </trkpt>
      <trkpt lat="47.86244" lon="3.91805">
        <ele>220.28</ele>
        <time>2021-08-11T05:39:46Z</time>
      </trkpt>
      <trkpt lat="47.86205" lon="3.91772">
        <ele>218.36</ele>
        <time>2021-08-11T05:39:52Z</time>
      </trkpt>
      <trkpt lat="47.86197" lon="3.9177">
        <ele>217.88</ele>
        <time>2021-08-11T05:39:53Z</time>
      </trkpt>
      <trkpt lat="47.8619" lon="3.9177">
        <ele>217.88</ele>
        <time>2021-08-11T05:39:54Z</time>
      </trkpt>
      <trkpt lat="47.86182" lon="3.91772">
        <ele>217.4</ele>
        <time>2021-08-11T05:39:55Z</time>
      </trkpt>
      <trkpt lat="47.86175" lon="3.91774">
        <ele>217.4</ele>
        <time>2021-08-11T05:39:56Z</time>
      </trkpt>
      <trkpt lat="47.86141" lon="3.91783">
        <ele>217.4</ele>
        <time>2021-08-11T05:40:02Z</time>
      </trkpt>
      <trkpt lat="47.86106" lon="3.91785">
        <ele>217.4</ele>
        <time>2021-08-11T05:40:09Z</time>
      </trkpt>
      <trkpt lat="47.86053" lon="3.91781">
        <ele>214.51</ele>
        <time>2021-08-11T05:40:17Z</time>
      </trkpt>
      <trkpt lat="47.86" lon="3.91768">
        <ele>214.03</ele>
        <time>2021-08-11T05:40:25Z</time>
      </trkpt>
      <trkpt lat="47.85969" lon="3.91751">
        <ele>215.95</ele>
        <time>2021-08-11T05:40:32Z</time>
      </trkpt>
      <trkpt lat="47.8594" lon="3.91737">
        <ele>216.43</ele>
        <time>2021-08-11T05:40:39Z</time>
      </trkpt>
      <trkpt lat="47.85935" lon="3.91734">
        <ele>216.91</ele>
        <time>2021-08-11T05:40:40Z</time>
      </trkpt>
      <trkpt lat="47.85901" lon="3.91717">
        <ele>217.4</ele>
        <time>2021-08-11T05:40:49Z</time>
      </trkpt>
      <trkpt lat="47.85893" lon="3.91712">
        <ele>217.4</ele>
        <time>2021-08-11T05:40:51Z</time>
      </trkpt>
      <trkpt lat="47.85861" lon="3.91685">
        <ele>218.84</ele>
        <time>2021-08-11T05:41:00Z</time>
      </trkpt>
      <trkpt lat="47.85841" lon="3.91661">
        <ele>220.28</ele>
        <time>2021-08-11T05:41:08Z</time>
      </trkpt>
      <trkpt lat="47.85829" lon="3.9164">
        <ele>221.72</ele>
        <time>2021-08-11T05:41:16Z</time>
      </trkpt>
      <trkpt lat="47.85816" lon="3.9161">
        <ele>223.16</ele>
        <time>2021-08-11T05:41:26Z</time>
      </trkpt>
      <trkpt lat="47.85795" lon="3.91588">
        <ele>223.64</ele>
        <time>2021-08-11T05:41:34Z</time>
      </trkpt>
      <trkpt lat="47.85779" lon="3.91578">
        <ele>222.2</ele>
        <time>2021-08-11T05:41:38Z</time>
      </trkpt>
      <trkpt lat="47.85774" lon="3.91575">
        <ele>222.2</ele>
        <time>2021-08-11T05:41:39Z</time>
      </trkpt>
      <trkpt lat="47.85735" lon="3.91552">
        <ele>219.32</ele>
        <time>2021-08-11T05:41:46Z</time>
      </trkpt>
      <trkpt lat="47.85715" lon="3.91538">
        <ele>217.88</ele>
        <time>2021-08-11T05:41:49Z</time>
      </trkpt>
      <trkpt lat="47.85693" lon="3.91522">
        <ele>216.43</ele>
        <time>2021-08-11T05:41:52Z</time>
      </trkpt>
      <trkpt lat="47.85663" lon="3.91494">
        <ele>214.03</ele>
        <time>2021-08-11T05:41:56Z</time>
      </trkpt>
      <trkpt lat="47.85629" lon="3.91442">
        <ele>212.59</ele>
        <time>2021-08-11T05:42:02Z</time>
      </trkpt>
      <trkpt lat="47.85608" lon="3.9139">
        <ele>212.11</ele>
        <time>2021-08-11T05:42:08Z</time>
      </trkpt>
      <trkpt lat="47.85591" lon="3.91328">
        <ele>212.59</ele>
        <time>2021-08-11T05:42:16Z</time>
      </trkpt>
      <trkpt lat="47.85576" lon="3.91263">
        <ele>211.63</ele>
        <time>2021-08-11T05:42:24Z</time>
      </trkpt>
      <trkpt lat="47.85571" lon="3.91241">
        <ele>211.63</ele>
        <time>2021-08-11T05:42:27Z</time>
      </trkpt>
      <trkpt lat="47.85567" lon="3.91234">
        <ele>211.15</ele>
        <time>2021-08-11T05:42:28Z</time>
      </trkpt>
      <trkpt lat="47.85563" lon="3.91229">
        <ele>211.63</ele>
        <time>2021-08-11T05:42:29Z</time>
      </trkpt>
      <trkpt lat="47.85557" lon="3.91224">
        <ele>210.67</ele>
        <time>2021-08-11T05:42:30Z</time>
      </trkpt>
      <trkpt lat="47.85552" lon="3.91222">
        <ele>210.19</ele>
        <time>2021-08-11T05:42:31Z</time>
      </trkpt>
      <trkpt lat="47.85543" lon="3.91221">
        <ele>209.22</ele>
        <time>2021-08-11T05:42:32Z</time>
      </trkpt>
      <trkpt lat="47.85538" lon="3.91221">
        <ele>209.22</ele>
        <time>2021-08-11T05:42:33Z</time>
      </trkpt>
      <trkpt lat="47.85513" lon="3.91221">
        <ele>205.86</ele>
        <time>2021-08-11T05:42:36Z</time>
      </trkpt>
      <trkpt lat="47.85484" lon="3.91222">
        <ele>202.98</ele>
        <time>2021-08-11T05:42:39Z</time>
      </trkpt>
      <trkpt lat="47.85452" lon="3.91222">
        <ele>199.13</ele>
        <time>2021-08-11T05:42:42Z</time>
      </trkpt>
      <trkpt lat="47.85417" lon="3.91224">
        <ele>195.28</ele>
        <time>2021-08-11T05:42:45Z</time>
      </trkpt>
      <trkpt lat="47.85377" lon="3.91228">
        <ele>192.4</ele>
        <time>2021-08-11T05:42:49Z</time>
      </trkpt>
      <trkpt lat="47.85369" lon="3.91227">
        <ele>191.92</ele>
        <time>2021-08-11T05:42:50Z</time>
      </trkpt>
      <trkpt lat="47.85361" lon="3.91223">
        <ele>190.96</ele>
        <time>2021-08-11T05:42:51Z</time>
      </trkpt>
      <trkpt lat="47.85354" lon="3.91218">
        <ele>190.96</ele>
        <time>2021-08-11T05:42:52Z</time>
      </trkpt>
      <trkpt lat="47.85347" lon="3.91211">
        <ele>190</ele>
        <time>2021-08-11T05:42:53Z</time>
      </trkpt>
      <trkpt lat="47.85341" lon="3.91203">
        <ele>189.52</ele>
        <time>2021-08-11T05:42:54Z</time>
      </trkpt>
      <trkpt lat="47.85335" lon="3.91195">
        <ele>188.56</ele>
        <time>2021-08-11T05:42:55Z</time>
      </trkpt>
      <trkpt lat="47.85329" lon="3.91188">
        <ele>188.56</ele>
        <time>2021-08-11T05:42:56Z</time>
      </trkpt>
      <trkpt lat="47.85318" lon="3.91174">
        <ele>188.08</ele>
        <time>2021-08-11T05:42:58Z</time>
      </trkpt>
      <trkpt lat="47.85314" lon="3.91166">
        <ele>188.08</ele>
        <time>2021-08-11T05:42:59Z</time>
      </trkpt>
      <trkpt lat="47.85314" lon="3.91158">
        <ele>188.08</ele>
        <time>2021-08-11T05:43:00Z</time>
      </trkpt>
      <trkpt lat="47.85315" lon="3.9115">
        <ele>188.08</ele>
        <time>2021-08-11T05:43:01Z</time>
      </trkpt>
      <trkpt lat="47.85316" lon="3.91143">
        <ele>188.08</ele>
        <time>2021-08-11T05:43:02Z</time>
      </trkpt>
      <trkpt lat="47.85329" lon="3.91083">
        <ele>187.59</ele>
        <time>2021-08-11T05:43:09Z</time>
      </trkpt>
      <trkpt lat="47.85348" lon="3.90973">
        <ele>187.11</ele>
        <time>2021-08-11T05:43:21Z</time>
      </trkpt>
      <trkpt lat="47.85358" lon="3.90864">
        <ele>186.15</ele>
        <time>2021-08-11T05:43:33Z</time>
      </trkpt>
      <trkpt lat="47.85366" lon="3.90773">
        <ele>185.67</ele>
        <time>2021-08-11T05:43:43Z</time>
      </trkpt>
      <trkpt lat="47.85375" lon="3.90664">
        <ele>185.67</ele>
        <time>2021-08-11T05:43:55Z</time>
      </trkpt>
      <trkpt lat="47.85378" lon="3.90577">
        <ele>185.19</ele>
        <time>2021-08-11T05:44:05Z</time>
      </trkpt>
      <trkpt lat="47.85382" lon="3.90481">
        <ele>185.19</ele>
        <time>2021-08-11T05:44:17Z</time>
      </trkpt>
      <trkpt lat="47.85388" lon="3.90408">
        <ele>184.71</ele>
        <time>2021-08-11T05:44:27Z</time>
      </trkpt>
      <trkpt lat="47.85392" lon="3.90368">
        <ele>184.71</ele>
        <time>2021-08-11T05:44:33Z</time>
      </trkpt>
      <trkpt lat="47.85393" lon="3.90361">
        <ele>184.71</ele>
        <time>2021-08-11T05:44:34Z</time>
      </trkpt>
      <trkpt lat="47.85401" lon="3.90314">
        <ele>184.71</ele>
        <time>2021-08-11T05:44:42Z</time>
      </trkpt>
      <trkpt lat="47.85406" lon="3.90276">
        <ele>184.71</ele>
        <time>2021-08-11T05:44:50Z</time>
      </trkpt>
      <trkpt lat="47.85404" lon="3.90274">
        <ele>184.71</ele>
        <time>2021-08-11T05:44:51Z</time>
      </trkpt>
      <trkpt lat="47.85403" lon="3.90276">
        <ele>184.71</ele>
        <time>2021-08-11T05:44:52Z</time>
      </trkpt>
      <trkpt lat="47.85401" lon="3.90277">
        <ele>184.71</ele>
        <time>2021-08-11T05:44:53Z</time>
      </trkpt>
      <trkpt lat="47.854" lon="3.90279">
        <ele>184.71</ele>
        <time>2021-08-11T05:44:54Z</time>
      </trkpt>
      <trkpt lat="47.85398" lon="3.90279">
        <ele>184.71</ele>
        <time>2021-08-11T05:44:55Z</time>
      </trkpt>
      <trkpt lat="47.85397" lon="3.90279">
        <ele>184.71</ele>
        <time>2021-08-11T05:44:56Z</time>
      </trkpt>
      <trkpt lat="47.85395" lon="3.90278">
        <ele>184.71</ele>
        <time>2021-08-11T05:44:57Z</time>
      </trkpt>
      <trkpt lat="47.85394" lon="3.90276">
        <ele>184.71</ele>
        <time>2021-08-11T05:44:58Z</time>
      </trkpt>
      <trkpt lat="47.85371" lon="3.90261">
        <ele>184.71</ele>
        <time>2021-08-11T05:45:06Z</time>
      </trkpt>
      <trkpt lat="47.85346" lon="3.90245">
        <ele>184.71</ele>
        <time>2021-08-11T05:45:12Z</time>
      </trkpt>
      <trkpt lat="47.85337" lon="3.90241">
        <ele>184.71</ele>
        <time>2021-08-11T05:45:14Z</time>
      </trkpt>
      <trkpt lat="47.85309" lon="3.90222">
        <ele>184.71</ele>
        <time>2021-08-11T05:45:20Z</time>
      </trkpt>
      <trkpt lat="47.8528" lon="3.90205">
        <ele>184.71</ele>
        <time>2021-08-11T05:45:27Z</time>
      </trkpt>
      <trkpt lat="47.85272" lon="3.90201">
        <ele>186.15</ele>
        <time>2021-08-11T05:45:29Z</time>
      </trkpt>
      <trkpt lat="47.85241" lon="3.90188">
        <ele>187.11</ele>
        <time>2021-08-11T05:45:39Z</time>
      </trkpt>
      <trkpt lat="47.85217" lon="3.90174">
        <ele>188.08</ele>
        <time>2021-08-11T05:45:48Z</time>
      </trkpt>
      <trkpt lat="47.85198" lon="3.90143">
        <ele>188.56</ele>
        <time>2021-08-11T05:45:57Z</time>
      </trkpt>
      <trkpt lat="47.8519" lon="3.90118">
        <ele>189.04</ele>
        <time>2021-08-11T05:46:03Z</time>
      </trkpt>
      <trkpt lat="47.85175" lon="3.9009">
        <ele>190</ele>
        <time>2021-08-11T05:46:11Z</time>
      </trkpt>
      <trkpt lat="47.85155" lon="3.90069">
        <ele>191.44</ele>
        <time>2021-08-11T05:46:21Z</time>
      </trkpt>
      <trkpt lat="47.85145" lon="3.9005">
        <ele>192.88</ele>
        <time>2021-08-11T05:46:30Z</time>
      </trkpt>
      <trkpt lat="47.85149" lon="3.90031">
        <ele>194.32</ele>
        <time>2021-08-11T05:46:38Z</time>
      </trkpt>
      <trkpt lat="47.85156" lon="3.90015">
        <ele>195.28</ele>
        <time>2021-08-11T05:46:47Z</time>
      </trkpt>
      <trkpt lat="47.85157" lon="3.90011">
        <ele>195.77</ele>
        <time>2021-08-11T05:46:49Z</time>
      </trkpt>
      <trkpt lat="47.85158" lon="3.90009">
        <ele>195.77</ele>
        <time>2021-08-11T05:46:50Z</time>
      </trkpt>
      <trkpt lat="47.85164" lon="3.89989">
        <ele>197.21</ele>
        <time>2021-08-11T05:47:00Z</time>
      </trkpt>
      <trkpt lat="47.85171" lon="3.89967">
        <ele>199.13</ele>
        <time>2021-08-11T05:47:10Z</time>
      </trkpt>
      <trkpt lat="47.85177" lon="3.89946">
        <ele>200.09</ele>
        <time>2021-08-11T05:47:20Z</time>
      </trkpt>
      <trkpt lat="47.85182" lon="3.89919">
        <ele>201.05</ele>
        <time>2021-08-11T05:47:29Z</time>
      </trkpt>
      <trkpt lat="47.85191" lon="3.89875">
        <ele>202.01</ele>
        <time>2021-08-11T05:47:40Z</time>
      </trkpt>
      <trkpt lat="47.85201" lon="3.89822">
        <ele>202.49</ele>
        <time>2021-08-11T05:47:51Z</time>
      </trkpt>
      <trkpt lat="47.8521" lon="3.89761">
        <ele>202.49</ele>
        <time>2021-08-11T05:48:02Z</time>
      </trkpt>
      <trkpt lat="47.85217" lon="3.89716">
        <ele>201.05</ele>
        <time>2021-08-11T05:48:09Z</time>
      </trkpt>
      <trkpt lat="47.85221" lon="3.89662">
        <ele>201.05</ele>
        <time>2021-08-11T05:48:16Z</time>
      </trkpt>
      <trkpt lat="47.85217" lon="3.89595">
        <ele>201.05</ele>
        <time>2021-08-11T05:48:26Z</time>
      </trkpt>
      <trkpt lat="47.85207" lon="3.89525">
        <ele>202.49</ele>
        <time>2021-08-11T05:48:37Z</time>
      </trkpt>
      <trkpt lat="47.85194" lon="3.89473">
        <ele>202.98</ele>
        <time>2021-08-11T05:48:46Z</time>
      </trkpt>
      <trkpt lat="47.85171" lon="3.89421">
        <ele>203.94</ele>
        <time>2021-08-11T05:48:57Z</time>
      </trkpt>
      <trkpt lat="47.85144" lon="3.89376">
        <ele>205.38</ele>
        <time>2021-08-11T05:49:09Z</time>
      </trkpt>
      <trkpt lat="47.8512" lon="3.89347">
        <ele>206.34</ele>
        <time>2021-08-11T05:49:19Z</time>
      </trkpt>
      <trkpt lat="47.8509" lon="3.89313">
        <ele>207.3</ele>
        <time>2021-08-11T05:49:30Z</time>
      </trkpt>
      <trkpt lat="47.85071" lon="3.89282">
        <ele>207.3</ele>
        <time>2021-08-11T05:49:37Z</time>
      </trkpt>
      <trkpt lat="47.85063" lon="3.89266">
        <ele>205.86</ele>
        <time>2021-08-11T05:49:40Z</time>
      </trkpt>
      <trkpt lat="47.85029" lon="3.8922">
        <ele>204.9</ele>
        <time>2021-08-11T05:49:50Z</time>
      </trkpt>
      <trkpt lat="47.84998" lon="3.89195">
        <ele>204.42</ele>
        <time>2021-08-11T05:49:59Z</time>
      </trkpt>
      <trkpt lat="47.84976" lon="3.89181">
        <ele>206.34</ele>
        <time>2021-08-11T05:50:07Z</time>
      </trkpt>
      <trkpt lat="47.84962" lon="3.89169">
        <ele>208.26</ele>
        <time>2021-08-11T05:50:15Z</time>
      </trkpt>
      <trkpt lat="47.84954" lon="3.89157">
        <ele>209.22</ele>
        <time>2021-08-11T05:50:23Z</time>
      </trkpt>
      <trkpt lat="47.84946" lon="3.8915">
        <ele>210.67</ele>
        <time>2021-08-11T05:50:31Z</time>
      </trkpt>
      <trkpt lat="47.84943" lon="3.89146">
        <ele>211.15</ele>
        <time>2021-08-11T05:50:35Z</time>
      </trkpt>
      <trkpt lat="47.84943" lon="3.89142">
        <ele>211.15</ele>
        <time>2021-08-11T05:50:36Z</time>
      </trkpt>
      <trkpt lat="47.84942" lon="3.89138">
        <ele>211.63</ele>
        <time>2021-08-11T05:50:39Z</time>
      </trkpt>
      <trkpt lat="47.8494" lon="3.89138">
        <ele>212.59</ele>
        <time>2021-08-11T05:50:41Z</time>
      </trkpt>
      <trkpt lat="47.84935" lon="3.89137">
        <ele>213.55</ele>
        <time>2021-08-11T05:50:49Z</time>
      </trkpt>
      <trkpt lat="47.8493" lon="3.89135">
        <ele>214.99</ele>
        <time>2021-08-11T05:50:57Z</time>
      </trkpt>
      <trkpt lat="47.84927" lon="3.89134">
        <ele>214.99</ele>
        <time>2021-08-11T05:51:06Z</time>
      </trkpt>
      <trkpt lat="47.8492" lon="3.89131">
        <ele>215.95</ele>
        <time>2021-08-11T05:51:16Z</time>
      </trkpt>
      <trkpt lat="47.84913" lon="3.89125">
        <ele>217.4</ele>
        <time>2021-08-11T05:51:25Z</time>
      </trkpt>
      <trkpt lat="47.84906" lon="3.89119">
        <ele>219.32</ele>
        <time>2021-08-11T05:51:34Z</time>
      </trkpt>
      <trkpt lat="47.84901" lon="3.89115">
        <ele>220.76</ele>
        <time>2021-08-11T05:51:41Z</time>
      </trkpt>
      <trkpt lat="47.84894" lon="3.89108">
        <ele>221.72</ele>
        <time>2021-08-11T05:51:50Z</time>
      </trkpt>
      <trkpt lat="47.84886" lon="3.89102">
        <ele>223.64</ele>
        <time>2021-08-11T05:52:01Z</time>
      </trkpt>
      <trkpt lat="47.84878" lon="3.89097">
        <ele>225.09</ele>
        <time>2021-08-11T05:52:11Z</time>
      </trkpt>
      <trkpt lat="47.84873" lon="3.89089">
        <ele>226.53</ele>
        <time>2021-08-11T05:52:20Z</time>
      </trkpt>
      <trkpt lat="47.84867" lon="3.89085">
        <ele>227.97</ele>
        <time>2021-08-11T05:52:28Z</time>
      </trkpt>
      <trkpt lat="47.84863" lon="3.89082">
        <ele>228.93</ele>
        <time>2021-08-11T05:52:33Z</time>
      </trkpt>
      <trkpt lat="47.84856" lon="3.89076">
        <ele>229.89</ele>
        <time>2021-08-11T05:52:41Z</time>
      </trkpt>
      <trkpt lat="47.84848" lon="3.8907">
        <ele>231.81</ele>
        <time>2021-08-11T05:52:50Z</time>
      </trkpt>
      <trkpt lat="47.84839" lon="3.89064">
        <ele>233.74</ele>
        <time>2021-08-11T05:52:59Z</time>
      </trkpt>
      <trkpt lat="47.84832" lon="3.8906">
        <ele>234.7</ele>
        <time>2021-08-11T05:53:08Z</time>
      </trkpt>
      <trkpt lat="47.84824" lon="3.89054">
        <ele>236.14</ele>
        <time>2021-08-11T05:53:18Z</time>
      </trkpt>
      <trkpt lat="47.84816" lon="3.89041">
        <ele>237.58</ele>
        <time>2021-08-11T05:53:27Z</time>
      </trkpt>
      <trkpt lat="47.84812" lon="3.89038">
        <ele>238.06</ele>
        <time>2021-08-11T05:53:34Z</time>
      </trkpt>
      <trkpt lat="47.8481" lon="3.89037">
        <ele>238.06</ele>
        <time>2021-08-11T05:53:35Z</time>
      </trkpt>
      <trkpt lat="47.84801" lon="3.89028">
        <ele>239.51</ele>
        <time>2021-08-11T05:53:44Z</time>
      </trkpt>
      <trkpt lat="47.84793" lon="3.89019">
        <ele>240.47</ele>
        <time>2021-08-11T05:53:51Z</time>
      </trkpt>
      <trkpt lat="47.84783" lon="3.89007">
        <ele>242.39</ele>
        <time>2021-08-11T05:54:00Z</time>
      </trkpt>
      <trkpt lat="47.84772" lon="3.88993">
        <ele>243.83</ele>
        <time>2021-08-11T05:54:10Z</time>
      </trkpt>
      <trkpt lat="47.84764" lon="3.88984">
        <ele>245.27</ele>
        <time>2021-08-11T05:54:18Z</time>
      </trkpt>
      <trkpt lat="47.84762" lon="3.88982">
        <ele>245.75</ele>
        <time>2021-08-11T05:54:19Z</time>
      </trkpt>
      <trkpt lat="47.84761" lon="3.88981">
        <ele>245.75</ele>
        <time>2021-08-11T05:54:20Z</time>
      </trkpt>
      <trkpt lat="47.8476" lon="3.8898">
        <ele>246.23</ele>
        <time>2021-08-11T05:54:21Z</time>
      </trkpt>
      <trkpt lat="47.84759" lon="3.88978">
        <ele>246.23</ele>
        <time>2021-08-11T05:54:22Z</time>
      </trkpt>
      <trkpt lat="47.84747" lon="3.88962">
        <ele>247.68</ele>
        <time>2021-08-11T05:54:33Z</time>
      </trkpt>
      <trkpt lat="47.84737" lon="3.8895">
        <ele>249.12</ele>
        <time>2021-08-11T05:54:41Z</time>
      </trkpt>
      <trkpt lat="47.84735" lon="3.88949">
        <ele>249.6</ele>
        <time>2021-08-11T05:54:42Z</time>
      </trkpt>
      <trkpt lat="47.84734" lon="3.88948">
        <ele>249.6</ele>
        <time>2021-08-11T05:54:43Z</time>
      </trkpt>
      <trkpt lat="47.84717" lon="3.88925">
        <ele>251.52</ele>
        <time>2021-08-11T05:54:55Z</time>
      </trkpt>
      <trkpt lat="47.84699" lon="3.88902">
        <ele>252.96</ele>
        <time>2021-08-11T05:55:06Z</time>
      </trkpt>
      <trkpt lat="47.84687" lon="3.88886">
        <ele>253.93</ele>
        <time>2021-08-11T05:55:13Z</time>
      </trkpt>
      <trkpt lat="47.84674" lon="3.88868">
        <ele>254.41</ele>
        <time>2021-08-11T05:55:20Z</time>
      </trkpt>
      <trkpt lat="47.84648" lon="3.88827">
        <ele>255.37</ele>
        <time>2021-08-11T05:55:33Z</time>
      </trkpt>
      <trkpt lat="47.84625" lon="3.88783">
        <ele>255.85</ele>
        <time>2021-08-11T05:55:44Z</time>
      </trkpt>
      <trkpt lat="47.84604" lon="3.88728">
        <ele>255.85</ele>
        <time>2021-08-11T05:55:54Z</time>
      </trkpt>
      <trkpt lat="47.84594" lon="3.88703">
        <ele>254.89</ele>
        <time>2021-08-11T05:55:58Z</time>
      </trkpt>
      <trkpt lat="47.84567" lon="3.88645">
        <ele>253.93</ele>
        <time>2021-08-11T05:56:07Z</time>
      </trkpt>
      <trkpt lat="47.84527" lon="3.88569">
        <ele>251.52</ele>
        <time>2021-08-11T05:56:18Z</time>
      </trkpt>
      <trkpt lat="47.8448" lon="3.88491">
        <ele>248.64</ele>
        <time>2021-08-11T05:56:29Z</time>
      </trkpt>
      <trkpt lat="47.8445" lon="3.88435">
        <ele>244.79</ele>
        <time>2021-08-11T05:56:35Z</time>
      </trkpt>
      <trkpt lat="47.84433" lon="3.88397">
        <ele>241.43</ele>
        <time>2021-08-11T05:56:38Z</time>
      </trkpt>
      <trkpt lat="47.84411" lon="3.88349">
        <ele>238.54</ele>
        <time>2021-08-11T05:56:42Z</time>
      </trkpt>
      <trkpt lat="47.84387" lon="3.88299">
        <ele>234.7</ele>
        <time>2021-08-11T05:56:46Z</time>
      </trkpt>
      <trkpt lat="47.84361" lon="3.88245">
        <ele>230.85</ele>
        <time>2021-08-11T05:56:50Z</time>
      </trkpt>
      <trkpt lat="47.84342" lon="3.88203">
        <ele>227.01</ele>
        <time>2021-08-11T05:56:53Z</time>
      </trkpt>
      <trkpt lat="47.84324" lon="3.88158">
        <ele>224.12</ele>
        <time>2021-08-11T05:56:56Z</time>
      </trkpt>
      <trkpt lat="47.84302" lon="3.88103">
        <ele>220.28</ele>
        <time>2021-08-11T05:57:00Z</time>
      </trkpt>
      <trkpt lat="47.84282" lon="3.88051">
        <ele>216.91</ele>
        <time>2021-08-11T05:57:04Z</time>
      </trkpt>
      <trkpt lat="47.84278" lon="3.88036">
        <ele>215.47</ele>
        <time>2021-08-11T05:57:05Z</time>
      </trkpt>
      <trkpt lat="47.84275" lon="3.88023">
        <ele>214.99</ele>
        <time>2021-08-11T05:57:06Z</time>
      </trkpt>
      <trkpt lat="47.84273" lon="3.88008">
        <ele>213.55</ele>
        <time>2021-08-11T05:57:07Z</time>
      </trkpt>
      <trkpt lat="47.84272" lon="3.87992">
        <ele>212.59</ele>
        <time>2021-08-11T05:57:08Z</time>
      </trkpt>
      <trkpt lat="47.84272" lon="3.87976">
        <ele>212.11</ele>
        <time>2021-08-11T05:57:09Z</time>
      </trkpt>
      <trkpt lat="47.84273" lon="3.87959">
        <ele>210.67</ele>
        <time>2021-08-11T05:57:10Z</time>
      </trkpt>
      <trkpt lat="47.84281" lon="3.87894">
        <ele>206.82</ele>
        <time>2021-08-11T05:57:14Z</time>
      </trkpt>
      <trkpt lat="47.84283" lon="3.8788">
        <ele>206.82</ele>
        <time>2021-08-11T05:57:15Z</time>
      </trkpt>
      <trkpt lat="47.84284" lon="3.87866">
        <ele>207.3</ele>
        <time>2021-08-11T05:57:16Z</time>
      </trkpt>
      <trkpt lat="47.84284" lon="3.87853">
        <ele>207.3</ele>
        <time>2021-08-11T05:57:17Z</time>
      </trkpt>
      <trkpt lat="47.84283" lon="3.8784">
        <ele>207.3</ele>
        <time>2021-08-11T05:57:18Z</time>
      </trkpt>
      <trkpt lat="47.84281" lon="3.87827">
        <ele>206.82</ele>
        <time>2021-08-11T05:57:19Z</time>
      </trkpt>
      <trkpt lat="47.84279" lon="3.87802">
        <ele>206.82</ele>
        <time>2021-08-11T05:57:21Z</time>
      </trkpt>
      <trkpt lat="47.84278" lon="3.87789">
        <ele>206.34</ele>
        <time>2021-08-11T05:57:22Z</time>
      </trkpt>
      <trkpt lat="47.8428" lon="3.87779">
        <ele>206.82</ele>
        <time>2021-08-11T05:57:23Z</time>
      </trkpt>
      <trkpt lat="47.84282" lon="3.87768">
        <ele>206.82</ele>
        <time>2021-08-11T05:57:24Z</time>
      </trkpt>
      <trkpt lat="47.84285" lon="3.87758">
        <ele>206.82</ele>
        <time>2021-08-11T05:57:25Z</time>
      </trkpt>
      <trkpt lat="47.84288" lon="3.8775">
        <ele>207.78</ele>
        <time>2021-08-11T05:57:26Z</time>
      </trkpt>
      <trkpt lat="47.84292" lon="3.87742">
        <ele>207.78</ele>
        <time>2021-08-11T05:57:27Z</time>
      </trkpt>
      <trkpt lat="47.84312" lon="3.87703">
        <ele>209.7</ele>
        <time>2021-08-11T05:57:33Z</time>
      </trkpt>
      <trkpt lat="47.84322" lon="3.87676">
        <ele>211.63</ele>
        <time>2021-08-11T05:57:39Z</time>
      </trkpt>
      <trkpt lat="47.84323" lon="3.87668">
        <ele>212.11</ele>
        <time>2021-08-11T05:57:43Z</time>
      </trkpt>
      <trkpt lat="47.84321" lon="3.87667">
        <ele>212.11</ele>
        <time>2021-08-11T05:57:44Z</time>
      </trkpt>
      <trkpt lat="47.8432" lon="3.87667">
        <ele>212.11</ele>
        <time>2021-08-11T05:57:45Z</time>
      </trkpt>
      <trkpt lat="47.84318" lon="3.87668">
        <ele>212.59</ele>
        <time>2021-08-11T05:57:46Z</time>
      </trkpt>
      <trkpt lat="47.84317" lon="3.87669">
        <ele>212.59</ele>
        <time>2021-08-11T05:57:47Z</time>
      </trkpt>
      <trkpt lat="47.84301" lon="3.87677">
        <ele>213.07</ele>
        <time>2021-08-11T05:57:55Z</time>
      </trkpt>
      <trkpt lat="47.84286" lon="3.87686">
        <ele>214.51</ele>
        <time>2021-08-11T05:58:03Z</time>
      </trkpt>
      <trkpt lat="47.84281" lon="3.87689">
        <ele>214.51</ele>
        <time>2021-08-11T05:58:06Z</time>
      </trkpt>
      <trkpt lat="47.8428" lon="3.8769">
        <ele>214.51</ele>
        <time>2021-08-11T05:58:07Z</time>
      </trkpt>
      <trkpt lat="47.8428" lon="3.87692">
        <ele>214.51</ele>
        <time>2021-08-11T05:58:09Z</time>
      </trkpt>
      <trkpt lat="47.84281" lon="3.87691">
        <ele>214.51</ele>
        <time>2021-08-11T05:58:10Z</time>
      </trkpt>
      <trkpt lat="47.84295" lon="3.87683">
        <ele>213.55</ele>
        <time>2021-08-11T05:58:15Z</time>
      </trkpt>
      <trkpt lat="47.84301" lon="3.8768">
        <ele>213.55</ele>
        <time>2021-08-11T05:58:16Z</time>
      </trkpt>
      <trkpt lat="47.84326" lon="3.87663">
        <ele>211.63</ele>
        <time>2021-08-11T05:58:21Z</time>
      </trkpt>
      <trkpt lat="47.8433" lon="3.87656">
        <ele>211.63</ele>
        <time>2021-08-11T05:58:22Z</time>
      </trkpt>
      <trkpt lat="47.84333" lon="3.8765">
        <ele>211.63</ele>
        <time>2021-08-11T05:58:23Z</time>
      </trkpt>
      <trkpt lat="47.84336" lon="3.87642">
        <ele>211.63</ele>
        <time>2021-08-11T05:58:24Z</time>
      </trkpt>
      <trkpt lat="47.84338" lon="3.87635">
        <ele>211.63</ele>
        <time>2021-08-11T05:58:25Z</time>
      </trkpt>
      <trkpt lat="47.8434" lon="3.87628">
        <ele>211.63</ele>
        <time>2021-08-11T05:58:26Z</time>
      </trkpt>
      <trkpt lat="47.8434" lon="3.87621">
        <ele>211.63</ele>
        <time>2021-08-11T05:58:27Z</time>
      </trkpt>
      <trkpt lat="47.8434" lon="3.87615">
        <ele>211.63</ele>
        <time>2021-08-11T05:58:28Z</time>
      </trkpt>
      <trkpt lat="47.8434" lon="3.87608">
        <ele>212.11</ele>
        <time>2021-08-11T05:58:29Z</time>
      </trkpt>
      <trkpt lat="47.84337" lon="3.87567">
        <ele>211.63</ele>
        <time>2021-08-11T05:58:36Z</time>
      </trkpt>
      <trkpt lat="47.84333" lon="3.87503">
        <ele>210.19</ele>
        <time>2021-08-11T05:58:44Z</time>
      </trkpt>
      <trkpt lat="47.84321" lon="3.87436">
        <ele>210.19</ele>
        <time>2021-08-11T05:58:52Z</time>
      </trkpt>
      <trkpt lat="47.84318" lon="3.87395">
        <ele>210.19</ele>
        <time>2021-08-11T05:58:57Z</time>
      </trkpt>
      <trkpt lat="47.84319" lon="3.87389">
        <ele>210.19</ele>
        <time>2021-08-11T05:58:58Z</time>
      </trkpt>
      <trkpt lat="47.84321" lon="3.87382">
        <ele>210.19</ele>
        <time>2021-08-11T05:58:59Z</time>
      </trkpt>
      <trkpt lat="47.84328" lon="3.87361">
        <ele>211.63</ele>
        <time>2021-08-11T05:59:03Z</time>
      </trkpt>
      <trkpt lat="47.8434" lon="3.87339">
        <ele>212.59</ele>
        <time>2021-08-11T05:59:10Z</time>
      </trkpt>
      <trkpt lat="47.84345" lon="3.87321">
        <ele>214.03</ele>
        <time>2021-08-11T05:59:17Z</time>
      </trkpt>
      <trkpt lat="47.84343" lon="3.87292">
        <ele>215.95</ele>
        <time>2021-08-11T05:59:27Z</time>
      </trkpt>
      <trkpt lat="47.84336" lon="3.87268">
        <ele>217.4</ele>
        <time>2021-08-11T05:59:36Z</time>
      </trkpt>
      <trkpt lat="47.84329" lon="3.87255">
        <ele>217.88</ele>
        <time>2021-08-11T05:59:42Z</time>
      </trkpt>
      <trkpt lat="47.84317" lon="3.87241">
        <ele>219.32</ele>
        <time>2021-08-11T05:59:51Z</time>
      </trkpt>
      <trkpt lat="47.84304" lon="3.87229">
        <ele>220.76</ele>
        <time>2021-08-11T06:00:00Z</time>
      </trkpt>
      <trkpt lat="47.84293" lon="3.87219">
        <ele>221.24</ele>
        <time>2021-08-11T06:00:08Z</time>
      </trkpt>
      <trkpt lat="47.84281" lon="3.87209">
        <ele>222.2</ele>
        <time>2021-08-11T06:00:15Z</time>
      </trkpt>
      <trkpt lat="47.84274" lon="3.87197">
        <ele>222.68</ele>
        <time>2021-08-11T06:00:22Z</time>
      </trkpt>
      <trkpt lat="47.84267" lon="3.87186">
        <ele>224.61</ele>
        <time>2021-08-11T06:00:30Z</time>
      </trkpt>
      <trkpt lat="47.84266" lon="3.87185">
        <ele>224.61</ele>
        <time>2021-08-11T06:00:31Z</time>
      </trkpt>
      <trkpt lat="47.84265" lon="3.87184">
        <ele>225.09</ele>
        <time>2021-08-11T06:00:32Z</time>
      </trkpt>
      <trkpt lat="47.84264" lon="3.87183">
        <ele>225.09</ele>
        <time>2021-08-11T06:00:33Z</time>
      </trkpt>
      <trkpt lat="47.84263" lon="3.87181">
        <ele>225.09</ele>
        <time>2021-08-11T06:00:34Z</time>
      </trkpt>
      <trkpt lat="47.84262" lon="3.8718">
        <ele>225.57</ele>
        <time>2021-08-11T06:00:35Z</time>
      </trkpt>
      <trkpt lat="47.84254" lon="3.87169">
        <ele>227.01</ele>
        <time>2021-08-11T06:00:44Z</time>
      </trkpt>
      <trkpt lat="47.84246" lon="3.87159">
        <ele>227.97</ele>
        <time>2021-08-11T06:00:52Z</time>
      </trkpt>
      <trkpt lat="47.84235" lon="3.87146">
        <ele>229.89</ele>
        <time>2021-08-11T06:01:01Z</time>
      </trkpt>
      <trkpt lat="47.84228" lon="3.87132">
        <ele>230.85</ele>
        <time>2021-08-11T06:01:08Z</time>
      </trkpt>
      <trkpt lat="47.84225" lon="3.87115">
        <ele>232.78</ele>
        <time>2021-08-11T06:01:16Z</time>
      </trkpt>
      <trkpt lat="47.84223" lon="3.87099">
        <ele>233.26</ele>
        <time>2021-08-11T06:01:23Z</time>
      </trkpt>
      <trkpt lat="47.84217" lon="3.87078">
        <ele>235.18</ele>
        <time>2021-08-11T06:01:33Z</time>
      </trkpt>
      <trkpt lat="47.84209" lon="3.87058">
        <ele>236.62</ele>
        <time>2021-08-11T06:01:43Z</time>
      </trkpt>
      <trkpt lat="47.84202" lon="3.87046">
        <ele>237.58</ele>
        <time>2021-08-11T06:01:51Z</time>
      </trkpt>
      <trkpt lat="47.8419" lon="3.87035">
        <ele>239.51</ele>
        <time>2021-08-11T06:02:01Z</time>
      </trkpt>
      <trkpt lat="47.84177" lon="3.87025">
        <ele>240.95</ele>
        <time>2021-08-11T06:02:11Z</time>
      </trkpt>
      <trkpt lat="47.84167" lon="3.87019">
        <ele>242.39</ele>
        <time>2021-08-11T06:02:18Z</time>
      </trkpt>
      <trkpt lat="47.84155" lon="3.87009">
        <ele>243.35</ele>
        <time>2021-08-11T06:02:27Z</time>
      </trkpt>
      <trkpt lat="47.84143" lon="3.86996">
        <ele>244.31</ele>
        <time>2021-08-11T06:02:36Z</time>
      </trkpt>
      <trkpt lat="47.84133" lon="3.86982">
        <ele>245.27</ele>
        <time>2021-08-11T06:02:44Z</time>
      </trkpt>
      <trkpt lat="47.84123" lon="3.86967">
        <ele>245.75</ele>
        <time>2021-08-11T06:02:53Z</time>
      </trkpt>
      <trkpt lat="47.8412" lon="3.86962">
        <ele>246.72</ele>
        <time>2021-08-11T06:03:00Z</time>
      </trkpt>
      <trkpt lat="47.84119" lon="3.86962">
        <ele>246.72</ele>
        <time>2021-08-11T06:03:16Z</time>
      </trkpt>
      <trkpt lat="47.84119" lon="3.86963">
        <ele>246.72</ele>
        <time>2021-08-11T06:03:31Z</time>
      </trkpt>
      <trkpt lat="47.84117" lon="3.86958">
        <ele>246.72</ele>
        <time>2021-08-11T06:03:40Z</time>
      </trkpt>
      <trkpt lat="47.84106" lon="3.86937">
        <ele>247.68</ele>
        <time>2021-08-11T06:03:48Z</time>
      </trkpt>
      <trkpt lat="47.84091" lon="3.86904">
        <ele>250.08</ele>
        <time>2021-08-11T06:03:58Z</time>
      </trkpt>
      <trkpt lat="47.8408" lon="3.86876">
        <ele>251.04</ele>
        <time>2021-08-11T06:04:07Z</time>
      </trkpt>
      <trkpt lat="47.84069" lon="3.86847">
        <ele>252</ele>
        <time>2021-08-11T06:04:16Z</time>
      </trkpt>
      <trkpt lat="47.8406" lon="3.86819">
        <ele>253.44</ele>
        <time>2021-08-11T06:04:25Z</time>
      </trkpt>
      <trkpt lat="47.84049" lon="3.86791">
        <ele>254.41</ele>
        <time>2021-08-11T06:04:34Z</time>
      </trkpt>
      <trkpt lat="47.8404" lon="3.86767">
        <ele>254.89</ele>
        <time>2021-08-11T06:04:42Z</time>
      </trkpt>
      <trkpt lat="47.84026" lon="3.8673">
        <ele>256.33</ele>
        <time>2021-08-11T06:04:54Z</time>
      </trkpt>
      <trkpt lat="47.84009" lon="3.86693">
        <ele>257.29</ele>
        <time>2021-08-11T06:05:06Z</time>
      </trkpt>
      <trkpt lat="47.83995" lon="3.86662">
        <ele>258.73</ele>
        <time>2021-08-11T06:05:16Z</time>
      </trkpt>
      <trkpt lat="47.83975" lon="3.86623">
        <ele>259.69</ele>
        <time>2021-08-11T06:05:28Z</time>
      </trkpt>
      <trkpt lat="47.83957" lon="3.86585">
        <ele>260.65</ele>
        <time>2021-08-11T06:05:39Z</time>
      </trkpt>
      <trkpt lat="47.83942" lon="3.86549">
        <ele>262.1</ele>
        <time>2021-08-11T06:05:50Z</time>
      </trkpt>
      <trkpt lat="47.83933" lon="3.86526">
        <ele>262.58</ele>
        <time>2021-08-11T06:05:57Z</time>
      </trkpt>
      <trkpt lat="47.83918" lon="3.86483">
        <ele>263.54</ele>
        <time>2021-08-11T06:06:08Z</time>
      </trkpt>
      <trkpt lat="47.83904" lon="3.86444">
        <ele>264.98</ele>
        <time>2021-08-11T06:06:18Z</time>
      </trkpt>
      <trkpt lat="47.83891" lon="3.86403">
        <ele>265.46</ele>
        <time>2021-08-11T06:06:28Z</time>
      </trkpt>
      <trkpt lat="47.83883" lon="3.8637">
        <ele>266.9</ele>
        <time>2021-08-11T06:06:36Z</time>
      </trkpt>
      <trkpt lat="47.83873" lon="3.86332">
        <ele>267.86</ele>
        <time>2021-08-11T06:06:45Z</time>
      </trkpt>
      <trkpt lat="47.83866" lon="3.86296">
        <ele>268.83</ele>
        <time>2021-08-11T06:06:54Z</time>
      </trkpt>
      <trkpt lat="47.83856" lon="3.86263">
        <ele>269.31</ele>
        <time>2021-08-11T06:07:02Z</time>
      </trkpt>
      <trkpt lat="47.83841" lon="3.86213">
        <ele>269.79</ele>
        <time>2021-08-11T06:07:13Z</time>
      </trkpt>
      <trkpt lat="47.83822" lon="3.86153">
        <ele>270.27</ele>
        <time>2021-08-11T06:07:25Z</time>
      </trkpt>
      <trkpt lat="47.83808" lon="3.86105">
        <ele>270.27</ele>
        <time>2021-08-11T06:07:34Z</time>
      </trkpt>
      <trkpt lat="47.83793" lon="3.86051">
        <ele>270.27</ele>
        <time>2021-08-11T06:07:43Z</time>
      </trkpt>
      <trkpt lat="47.83777" lon="3.85988">
        <ele>268.83</ele>
        <time>2021-08-11T06:07:52Z</time>
      </trkpt>
      <trkpt lat="47.83761" lon="3.85913">
        <ele>267.38</ele>
        <time>2021-08-11T06:08:01Z</time>
      </trkpt>
      <trkpt lat="47.83751" lon="3.85853">
        <ele>266.42</ele>
        <time>2021-08-11T06:08:08Z</time>
      </trkpt>
      <trkpt lat="47.83731" lon="3.85773">
        <ele>266.42</ele>
        <time>2021-08-11T06:08:18Z</time>
      </trkpt>
      <trkpt lat="47.83705" lon="3.85699">
        <ele>266.42</ele>
        <time>2021-08-11T06:08:29Z</time>
      </trkpt>
      <trkpt lat="47.83685" lon="3.85647">
        <ele>267.38</ele>
        <time>2021-08-11T06:08:38Z</time>
      </trkpt>
      <trkpt lat="47.83671" lon="3.85594">
        <ele>268.83</ele>
        <time>2021-08-11T06:08:47Z</time>
      </trkpt>
      <trkpt lat="47.83662" lon="3.85535">
        <ele>269.31</ele>
        <time>2021-08-11T06:08:56Z</time>
      </trkpt>
      <trkpt lat="47.83656" lon="3.85462">
        <ele>269.79</ele>
        <time>2021-08-11T06:09:07Z</time>
      </trkpt>
      <trkpt lat="47.83652" lon="3.85389">
        <ele>269.79</ele>
        <time>2021-08-11T06:09:17Z</time>
      </trkpt>
      <trkpt lat="47.83652" lon="3.85341">
        <ele>268.35</ele>
        <time>2021-08-11T06:09:23Z</time>
      </trkpt>
      <trkpt lat="47.83651" lon="3.85325">
        <ele>267.86</ele>
        <time>2021-08-11T06:09:25Z</time>
      </trkpt>
      <trkpt lat="47.83648" lon="3.85254">
        <ele>267.86</ele>
        <time>2021-08-11T06:09:34Z</time>
      </trkpt>
      <trkpt lat="47.83638" lon="3.8519">
        <ele>268.35</ele>
        <time>2021-08-11T06:09:43Z</time>
      </trkpt>
      <trkpt lat="47.83626" lon="3.85137">
        <ele>269.79</ele>
        <time>2021-08-11T06:09:52Z</time>
      </trkpt>
      <trkpt lat="47.83611" lon="3.85095">
        <ele>270.75</ele>
        <time>2021-08-11T06:10:01Z</time>
      </trkpt>
      <trkpt lat="47.83591" lon="3.85065">
        <ele>271.23</ele>
        <time>2021-08-11T06:10:08Z</time>
      </trkpt>
      <trkpt lat="47.83587" lon="3.8506">
        <ele>271.23</ele>
        <time>2021-08-11T06:10:09Z</time>
      </trkpt>
      <trkpt lat="47.8356" lon="3.85024">
        <ele>269.31</ele>
        <time>2021-08-11T06:10:16Z</time>
      </trkpt>
      <trkpt lat="47.83519" lon="3.84973">
        <ele>268.35</ele>
        <time>2021-08-11T06:10:26Z</time>
      </trkpt>
      <trkpt lat="47.83484" lon="3.84926">
        <ele>267.38</ele>
        <time>2021-08-11T06:10:34Z</time>
      </trkpt>
      <trkpt lat="47.83439" lon="3.84859">
        <ele>266.9</ele>
        <time>2021-08-11T06:10:44Z</time>
      </trkpt>
      <trkpt lat="47.83405" lon="3.8481">
        <ele>266.42</ele>
        <time>2021-08-11T06:10:52Z</time>
      </trkpt>
      <trkpt lat="47.83379" lon="3.84778">
        <ele>266.42</ele>
        <time>2021-08-11T06:10:58Z</time>
      </trkpt>
      <trkpt lat="47.83375" lon="3.84773">
        <ele>266.42</ele>
        <time>2021-08-11T06:10:59Z</time>
      </trkpt>
      <trkpt lat="47.83372" lon="3.84769">
        <ele>266.42</ele>
        <time>2021-08-11T06:11:00Z</time>
      </trkpt>
      <trkpt lat="47.83363" lon="3.84755">
        <ele>266.42</ele>
        <time>2021-08-11T06:11:03Z</time>
      </trkpt>
      <trkpt lat="47.83359" lon="3.84752">
        <ele>266.42</ele>
        <time>2021-08-11T06:11:04Z</time>
      </trkpt>
      <trkpt lat="47.83351" lon="3.84746">
        <ele>266.42</ele>
        <time>2021-08-11T06:11:06Z</time>
      </trkpt>
      <trkpt lat="47.83347" lon="3.84742">
        <ele>266.42</ele>
        <time>2021-08-11T06:11:07Z</time>
      </trkpt>
      <trkpt lat="47.83333" lon="3.84723">
        <ele>266.42</ele>
        <time>2021-08-11T06:11:11Z</time>
      </trkpt>
      <trkpt lat="47.83319" lon="3.84704">
        <ele>267.86</ele>
        <time>2021-08-11T06:11:15Z</time>
      </trkpt>
      <trkpt lat="47.8328" lon="3.84659">
        <ele>268.83</ele>
        <time>2021-08-11T06:11:26Z</time>
      </trkpt>
      <trkpt lat="47.83253" lon="3.8463">
        <ele>270.27</ele>
        <time>2021-08-11T06:11:35Z</time>
      </trkpt>
      <trkpt lat="47.83229" lon="3.84603">
        <ele>271.71</ele>
        <time>2021-08-11T06:11:45Z</time>
      </trkpt>
      <trkpt lat="47.83213" lon="3.84591">
        <ele>273.15</ele>
        <time>2021-08-11T06:11:53Z</time>
      </trkpt>
      <trkpt lat="47.83197" lon="3.84577">
        <ele>274.11</ele>
        <time>2021-08-11T06:12:01Z</time>
      </trkpt>
      <trkpt lat="47.83169" lon="3.84555">
        <ele>276.04</ele>
        <time>2021-08-11T06:12:13Z</time>
      </trkpt>
      <trkpt lat="47.83148" lon="3.84536">
        <ele>276.52</ele>
        <time>2021-08-11T06:12:21Z</time>
      </trkpt>
      <trkpt lat="47.83124" lon="3.84516">
        <ele>277</ele>
        <time>2021-08-11T06:12:29Z</time>
      </trkpt>
      <trkpt lat="47.83091" lon="3.84482">
        <ele>277</ele>
        <time>2021-08-11T06:12:38Z</time>
      </trkpt>
      <trkpt lat="47.83056" lon="3.84437">
        <ele>275.07</ele>
        <time>2021-08-11T06:12:46Z</time>
      </trkpt>
      <trkpt lat="47.83011" lon="3.8436">
        <ele>272.67</ele>
        <time>2021-08-11T06:12:56Z</time>
      </trkpt>
      <trkpt lat="47.82964" lon="3.84275">
        <ele>271.23</ele>
        <time>2021-08-11T06:13:06Z</time>
      </trkpt>
      <trkpt lat="47.82906" lon="3.84179">
        <ele>270.75</ele>
        <time>2021-08-11T06:13:18Z</time>
      </trkpt>
      <trkpt lat="47.82865" lon="3.84105">
        <ele>270.27</ele>
        <time>2021-08-11T06:13:27Z</time>
      </trkpt>
      <trkpt lat="47.82825" lon="3.84023">
        <ele>270.27</ele>
        <time>2021-08-11T06:13:37Z</time>
      </trkpt>
      <trkpt lat="47.82812" lon="3.84001">
        <ele>270.27</ele>
        <time>2021-08-11T06:13:40Z</time>
      </trkpt>
      <trkpt lat="47.82771" lon="3.83949">
        <ele>270.27</ele>
        <time>2021-08-11T06:13:48Z</time>
      </trkpt>
      <trkpt lat="47.82719" lon="3.83896">
        <ele>271.23</ele>
        <time>2021-08-11T06:13:58Z</time>
      </trkpt>
      <trkpt lat="47.8271" lon="3.83884">
        <ele>271.23</ele>
        <time>2021-08-11T06:14:00Z</time>
      </trkpt>
      <trkpt lat="47.82707" lon="3.83877">
        <ele>271.23</ele>
        <time>2021-08-11T06:14:01Z</time>
      </trkpt>
      <trkpt lat="47.82679" lon="3.83808">
        <ele>271.71</ele>
        <time>2021-08-11T06:14:10Z</time>
      </trkpt>
      <trkpt lat="47.82644" lon="3.83737">
        <ele>270.75</ele>
        <time>2021-08-11T06:14:19Z</time>
      </trkpt>
      <trkpt lat="47.82613" lon="3.83663">
        <ele>270.75</ele>
        <time>2021-08-11T06:14:28Z</time>
      </trkpt>
      <trkpt lat="47.82585" lon="3.83595">
        <ele>270.75</ele>
        <time>2021-08-11T06:14:37Z</time>
      </trkpt>
      <trkpt lat="47.82558" lon="3.83523">
        <ele>270.75</ele>
        <time>2021-08-11T06:14:46Z</time>
      </trkpt>
      <trkpt lat="47.82531" lon="3.83459">
        <ele>270.27</ele>
        <time>2021-08-11T06:14:55Z</time>
      </trkpt>
      <trkpt lat="47.82509" lon="3.8341">
        <ele>269.31</ele>
        <time>2021-08-11T06:15:02Z</time>
      </trkpt>
      <trkpt lat="47.82497" lon="3.83387">
        <ele>268.83</ele>
        <time>2021-08-11T06:15:05Z</time>
      </trkpt>
      <trkpt lat="47.82494" lon="3.8338">
        <ele>268.83</ele>
        <time>2021-08-11T06:15:06Z</time>
      </trkpt>
      <trkpt lat="47.82467" lon="3.83326">
        <ele>268.35</ele>
        <time>2021-08-11T06:15:13Z</time>
      </trkpt>
      <trkpt lat="47.82453" lon="3.83295">
        <ele>267.86</ele>
        <time>2021-08-11T06:15:17Z</time>
      </trkpt>
      <trkpt lat="47.8245" lon="3.83287">
        <ele>267.38</ele>
        <time>2021-08-11T06:15:18Z</time>
      </trkpt>
      <trkpt lat="47.82408" lon="3.83205">
        <ele>266.9</ele>
        <time>2021-08-11T06:15:29Z</time>
      </trkpt>
      <trkpt lat="47.82362" lon="3.83144">
        <ele>265.94</ele>
        <time>2021-08-11T06:15:39Z</time>
      </trkpt>
      <trkpt lat="47.82317" lon="3.83081">
        <ele>263.54</ele>
        <time>2021-08-11T06:15:48Z</time>
      </trkpt>
      <trkpt lat="47.82261" lon="3.82995">
        <ele>261.62</ele>
        <time>2021-08-11T06:15:59Z</time>
      </trkpt>
      <trkpt lat="47.82206" lon="3.82922">
        <ele>260.17</ele>
        <time>2021-08-11T06:16:09Z</time>
      </trkpt>
      <trkpt lat="47.82149" lon="3.82859">
        <ele>258.25</ele>
        <time>2021-08-11T06:16:19Z</time>
      </trkpt>
      <trkpt lat="47.82095" lon="3.82784">
        <ele>256.81</ele>
        <time>2021-08-11T06:16:29Z</time>
      </trkpt>
      <trkpt lat="47.82049" lon="3.8272">
        <ele>253.44</ele>
        <time>2021-08-11T06:16:37Z</time>
      </trkpt>
      <trkpt lat="47.8203" lon="3.82694">
        <ele>252.48</ele>
        <time>2021-08-11T06:16:40Z</time>
      </trkpt>
      <trkpt lat="47.82019" lon="3.82679">
        <ele>251.52</ele>
        <time>2021-08-11T06:16:42Z</time>
      </trkpt>
      <trkpt lat="47.81982" lon="3.82632">
        <ele>248.64</ele>
        <time>2021-08-11T06:16:49Z</time>
      </trkpt>
      <trkpt lat="47.81944" lon="3.82589">
        <ele>245.27</ele>
        <time>2021-08-11T06:16:55Z</time>
      </trkpt>
      <trkpt lat="47.81907" lon="3.82546">
        <ele>241.91</ele>
        <time>2021-08-11T06:17:00Z</time>
      </trkpt>
      <trkpt lat="47.81885" lon="3.82518">
        <ele>239.99</ele>
        <time>2021-08-11T06:17:03Z</time>
      </trkpt>
      <trkpt lat="47.8184" lon="3.82472">
        <ele>238.06</ele>
        <time>2021-08-11T06:17:09Z</time>
      </trkpt>
      <trkpt lat="47.81814" lon="3.82448">
        <ele>235.66</ele>
        <time>2021-08-11T06:17:13Z</time>
      </trkpt>
      <trkpt lat="47.81809" lon="3.82441">
        <ele>234.7</ele>
        <time>2021-08-11T06:17:14Z</time>
      </trkpt>
      <trkpt lat="47.81806" lon="3.82434">
        <ele>234.7</ele>
        <time>2021-08-11T06:17:15Z</time>
      </trkpt>
      <trkpt lat="47.818" lon="3.82421">
        <ele>233.26</ele>
        <time>2021-08-11T06:17:17Z</time>
      </trkpt>
      <trkpt lat="47.81794" lon="3.82404">
        <ele>231.81</ele>
        <time>2021-08-11T06:17:19Z</time>
      </trkpt>
      <trkpt lat="47.81791" lon="3.82394">
        <ele>230.37</ele>
        <time>2021-08-11T06:17:20Z</time>
      </trkpt>
      <trkpt lat="47.81777" lon="3.8236">
        <ele>226.53</ele>
        <time>2021-08-11T06:17:23Z</time>
      </trkpt>
      <trkpt lat="47.81767" lon="3.82334">
        <ele>222.2</ele>
        <time>2021-08-11T06:17:25Z</time>
      </trkpt>
      <trkpt lat="47.81756" lon="3.82308">
        <ele>218.84</ele>
        <time>2021-08-11T06:17:27Z</time>
      </trkpt>
      <trkpt lat="47.81744" lon="3.82277">
        <ele>215.95</ele>
        <time>2021-08-11T06:17:29Z</time>
      </trkpt>
      <trkpt lat="47.8173" lon="3.82245">
        <ele>212.59</ele>
        <time>2021-08-11T06:17:31Z</time>
      </trkpt>
      <trkpt lat="47.81716" lon="3.82211">
        <ele>208.74</ele>
        <time>2021-08-11T06:17:33Z</time>
      </trkpt>
      <trkpt lat="47.81704" lon="3.82178">
        <ele>205.38</ele>
        <time>2021-08-11T06:17:35Z</time>
      </trkpt>
      <trkpt lat="47.81687" lon="3.82133">
        <ele>202.01</ele>
        <time>2021-08-11T06:17:38Z</time>
      </trkpt>
      <trkpt lat="47.81673" lon="3.82094">
        <ele>200.09</ele>
        <time>2021-08-11T06:17:41Z</time>
      </trkpt>
      <trkpt lat="47.81659" lon="3.82057">
        <ele>198.17</ele>
        <time>2021-08-11T06:17:45Z</time>
      </trkpt>
      <trkpt lat="47.81657" lon="3.8205">
        <ele>198.17</ele>
        <time>2021-08-11T06:17:46Z</time>
      </trkpt>
      <trkpt lat="47.8165" lon="3.82011">
        <ele>196.25</ele>
        <time>2021-08-11T06:17:51Z</time>
      </trkpt>
      <trkpt lat="47.81643" lon="3.81969">
        <ele>192.4</ele>
        <time>2021-08-11T06:17:55Z</time>
      </trkpt>
      <trkpt lat="47.81637" lon="3.81929">
        <ele>189.52</ele>
        <time>2021-08-11T06:17:58Z</time>
      </trkpt>
      <trkpt lat="47.81631" lon="3.81882">
        <ele>185.19</ele>
        <time>2021-08-11T06:18:01Z</time>
      </trkpt>
      <trkpt lat="47.81626" lon="3.81848">
        <ele>181.83</ele>
        <time>2021-08-11T06:18:03Z</time>
      </trkpt>
      <trkpt lat="47.81622" lon="3.81811">
        <ele>178.94</ele>
        <time>2021-08-11T06:18:05Z</time>
      </trkpt>
      <trkpt lat="47.81616" lon="3.8176">
        <ele>175.58</ele>
        <time>2021-08-11T06:18:08Z</time>
      </trkpt>
      <trkpt lat="47.81609" lon="3.81696">
        <ele>171.73</ele>
        <time>2021-08-11T06:18:12Z</time>
      </trkpt>
      <trkpt lat="47.816" lon="3.81647">
        <ele>168.37</ele>
        <time>2021-08-11T06:18:15Z</time>
      </trkpt>
      <trkpt lat="47.81587" lon="3.81601">
        <ele>165</ele>
        <time>2021-08-11T06:18:18Z</time>
      </trkpt>
      <trkpt lat="47.8157" lon="3.81541">
        <ele>161.16</ele>
        <time>2021-08-11T06:18:22Z</time>
      </trkpt>
      <trkpt lat="47.81557" lon="3.81485">
        <ele>159.24</ele>
        <time>2021-08-11T06:18:27Z</time>
      </trkpt>
      <trkpt lat="47.81554" lon="3.81462">
        <ele>157.79</ele>
        <time>2021-08-11T06:18:29Z</time>
      </trkpt>
      <trkpt lat="47.81552" lon="3.81412">
        <ele>154.91</ele>
        <time>2021-08-11T06:18:34Z</time>
      </trkpt>
      <trkpt lat="47.81552" lon="3.81402">
        <ele>154.43</ele>
        <time>2021-08-11T06:18:36Z</time>
      </trkpt>
      <trkpt lat="47.8155" lon="3.814">
        <ele>154.43</ele>
        <time>2021-08-11T06:18:37Z</time>
      </trkpt>
      <trkpt lat="47.81547" lon="3.81399">
        <ele>154.43</ele>
        <time>2021-08-11T06:18:38Z</time>
      </trkpt>
      <trkpt lat="47.81546" lon="3.814">
        <ele>154.43</ele>
        <time>2021-08-11T06:18:39Z</time>
      </trkpt>
      <trkpt lat="47.81544" lon="3.81402">
        <ele>154.43</ele>
        <time>2021-08-11T06:18:40Z</time>
      </trkpt>
      <trkpt lat="47.81542" lon="3.81403">
        <ele>154.43</ele>
        <time>2021-08-11T06:18:41Z</time>
      </trkpt>
      <trkpt lat="47.8154" lon="3.81403">
        <ele>154.43</ele>
        <time>2021-08-11T06:18:42Z</time>
      </trkpt>
      <trkpt lat="47.81538" lon="3.81403">
        <ele>154.91</ele>
        <time>2021-08-11T06:18:43Z</time>
      </trkpt>
      <trkpt lat="47.81535" lon="3.81402">
        <ele>155.87</ele>
        <time>2021-08-11T06:18:44Z</time>
      </trkpt>
      <trkpt lat="47.81532" lon="3.81401">
        <ele>155.87</ele>
        <time>2021-08-11T06:18:45Z</time>
      </trkpt>
      <trkpt lat="47.81529" lon="3.814">
        <ele>155.87</ele>
        <time>2021-08-11T06:18:46Z</time>
      </trkpt>
      <trkpt lat="47.81526" lon="3.81399">
        <ele>155.87</ele>
        <time>2021-08-11T06:18:47Z</time>
      </trkpt>
      <trkpt lat="47.81499" lon="3.81387">
        <ele>155.87</ele>
        <time>2021-08-11T06:18:54Z</time>
      </trkpt>
      <trkpt lat="47.81464" lon="3.81383">
        <ele>154.91</ele>
        <time>2021-08-11T06:19:01Z</time>
      </trkpt>
      <trkpt lat="47.81411" lon="3.81386">
        <ele>153.47</ele>
        <time>2021-08-11T06:19:10Z</time>
      </trkpt>
      <trkpt lat="47.81361" lon="3.81377">
        <ele>152.03</ele>
        <time>2021-08-11T06:19:18Z</time>
      </trkpt>
      <trkpt lat="47.8131" lon="3.81349">
        <ele>150.1</ele>
        <time>2021-08-11T06:19:27Z</time>
      </trkpt>
      <trkpt lat="47.81278" lon="3.81331">
        <ele>148.66</ele>
        <time>2021-08-11T06:19:32Z</time>
      </trkpt>
      <trkpt lat="47.81271" lon="3.81329">
        <ele>148.18</ele>
        <time>2021-08-11T06:19:33Z</time>
      </trkpt>
      <trkpt lat="47.8123" lon="3.81318">
        <ele>148.18</ele>
        <time>2021-08-11T06:19:40Z</time>
      </trkpt>
      <trkpt lat="47.81215" lon="3.81315">
        <ele>148.18</ele>
        <time>2021-08-11T06:19:43Z</time>
      </trkpt>
      <trkpt lat="47.8121" lon="3.81315">
        <ele>148.18</ele>
        <time>2021-08-11T06:19:44Z</time>
      </trkpt>
      <trkpt lat="47.81206" lon="3.81315">
        <ele>148.18</ele>
        <time>2021-08-11T06:19:45Z</time>
      </trkpt>
      <trkpt lat="47.81201" lon="3.81314">
        <ele>148.18</ele>
        <time>2021-08-11T06:19:46Z</time>
      </trkpt>
      <trkpt lat="47.81197" lon="3.81312">
        <ele>149.62</ele>
        <time>2021-08-11T06:19:47Z</time>
      </trkpt>
      <trkpt lat="47.81192" lon="3.8131">
        <ele>149.62</ele>
        <time>2021-08-11T06:19:48Z</time>
      </trkpt>
      <trkpt lat="47.81177" lon="3.81302">
        <ele>149.62</ele>
        <time>2021-08-11T06:19:53Z</time>
      </trkpt>
      <trkpt lat="47.81174" lon="3.813">
        <ele>149.62</ele>
        <time>2021-08-11T06:19:58Z</time>
      </trkpt>
      <trkpt lat="47.8117" lon="3.813">
        <ele>149.62</ele>
        <time>2021-08-11T06:20:03Z</time>
      </trkpt>
      <trkpt lat="47.8117" lon="3.81299">
        <ele>149.62</ele>
        <time>2021-08-11T06:20:05Z</time>
      </trkpt>
      <trkpt lat="47.81169" lon="3.81297">
        <ele>149.62</ele>
        <time>2021-08-11T06:20:06Z</time>
      </trkpt>
      <trkpt lat="47.81168" lon="3.81293">
        <ele>149.62</ele>
        <time>2021-08-11T06:20:09Z</time>
      </trkpt>
      <trkpt lat="47.81169" lon="3.81291">
        <ele>149.62</ele>
        <time>2021-08-11T06:20:10Z</time>
      </trkpt>
      <trkpt lat="47.8117" lon="3.81288">
        <ele>149.62</ele>
        <time>2021-08-11T06:20:11Z</time>
      </trkpt>
      <trkpt lat="47.8118" lon="3.8126">
        <ele>149.62</ele>
        <time>2021-08-11T06:20:17Z</time>
      </trkpt>
      <trkpt lat="47.81184" lon="3.81249">
        <ele>148.18</ele>
        <time>2021-08-11T06:20:19Z</time>
      </trkpt>
      <trkpt lat="47.81189" lon="3.81238">
        <ele>147.7</ele>
        <time>2021-08-11T06:20:21Z</time>
      </trkpt>
      <trkpt lat="47.81186" lon="3.81219">
        <ele>147.7</ele>
        <time>2021-08-11T06:20:24Z</time>
      </trkpt>
      <trkpt lat="47.81181" lon="3.81207">
        <ele>147.22</ele>
        <time>2021-08-11T06:20:26Z</time>
      </trkpt>
      <trkpt lat="47.81168" lon="3.81186">
        <ele>144.82</ele>
        <time>2021-08-11T06:20:29Z</time>
      </trkpt>
      <trkpt lat="47.81162" lon="3.81176">
        <ele>143.85</ele>
        <time>2021-08-11T06:20:30Z</time>
      </trkpt>
      <trkpt lat="47.81159" lon="3.81166">
        <ele>142.89</ele>
        <time>2021-08-11T06:20:31Z</time>
      </trkpt>
      <trkpt lat="47.81156" lon="3.81154">
        <ele>142.41</ele>
        <time>2021-08-11T06:20:32Z</time>
      </trkpt>
      <trkpt lat="47.81153" lon="3.81141">
        <ele>141.45</ele>
        <time>2021-08-11T06:20:33Z</time>
      </trkpt>
      <trkpt lat="47.81147" lon="3.811">
        <ele>138.09</ele>
        <time>2021-08-11T06:20:36Z</time>
      </trkpt>
      <trkpt lat="47.81146" lon="3.81087">
        <ele>137.61</ele>
        <time>2021-08-11T06:20:37Z</time>
      </trkpt>
      <trkpt lat="47.81148" lon="3.81075">
        <ele>137.61</ele>
        <time>2021-08-11T06:20:38Z</time>
      </trkpt>
      <trkpt lat="47.81151" lon="3.81062">
        <ele>137.13</ele>
        <time>2021-08-11T06:20:39Z</time>
      </trkpt>
      <trkpt lat="47.81155" lon="3.81052">
        <ele>136.64</ele>
        <time>2021-08-11T06:20:40Z</time>
      </trkpt>
      <trkpt lat="47.81161" lon="3.81044">
        <ele>136.16</ele>
        <time>2021-08-11T06:20:41Z</time>
      </trkpt>
      <trkpt lat="47.81169" lon="3.81038">
        <ele>136.16</ele>
        <time>2021-08-11T06:20:42Z</time>
      </trkpt>
      <trkpt lat="47.81177" lon="3.81032">
        <ele>135.2</ele>
        <time>2021-08-11T06:20:43Z</time>
      </trkpt>
      <trkpt lat="47.81212" lon="3.80998">
        <ele>134.72</ele>
        <time>2021-08-11T06:20:48Z</time>
      </trkpt>
      <trkpt lat="47.81218" lon="3.80989">
        <ele>134.72</ele>
        <time>2021-08-11T06:20:49Z</time>
      </trkpt>
      <trkpt lat="47.81254" lon="3.80917">
        <ele>134.72</ele>
        <time>2021-08-11T06:20:57Z</time>
      </trkpt>
      <trkpt lat="47.81286" lon="3.80841">
        <ele>135.2</ele>
        <time>2021-08-11T06:21:06Z</time>
      </trkpt>
      <trkpt lat="47.81309" lon="3.8079">
        <ele>134.72</ele>
        <time>2021-08-11T06:21:13Z</time>
      </trkpt>
      <trkpt lat="47.81316" lon="3.80777">
        <ele>134.72</ele>
        <time>2021-08-11T06:21:15Z</time>
      </trkpt>
      <trkpt lat="47.81339" lon="3.80726">
        <ele>134.24</ele>
        <time>2021-08-11T06:21:23Z</time>
      </trkpt>
      <trkpt lat="47.81362" lon="3.80672">
        <ele>134.72</ele>
        <time>2021-08-11T06:21:31Z</time>
      </trkpt>
      <trkpt lat="47.81364" lon="3.80664">
        <ele>134.72</ele>
        <time>2021-08-11T06:21:32Z</time>
      </trkpt>
      <trkpt lat="47.81369" lon="3.80632">
        <ele>134.72</ele>
        <time>2021-08-11T06:21:36Z</time>
      </trkpt>
      <trkpt lat="47.81371" lon="3.80559">
        <ele>134.72</ele>
        <time>2021-08-11T06:21:45Z</time>
      </trkpt>
      <trkpt lat="47.81372" lon="3.80542">
        <ele>134.72</ele>
        <time>2021-08-11T06:21:47Z</time>
      </trkpt>
      <trkpt lat="47.81377" lon="3.80509">
        <ele>134.24</ele>
        <time>2021-08-11T06:21:51Z</time>
      </trkpt>
      <trkpt lat="47.81379" lon="3.80502">
        <ele>134.24</ele>
        <time>2021-08-11T06:21:52Z</time>
      </trkpt>
      <trkpt lat="47.81382" lon="3.80494">
        <ele>134.24</ele>
        <time>2021-08-11T06:21:53Z</time>
      </trkpt>
      <trkpt lat="47.81385" lon="3.80487">
        <ele>134.24</ele>
        <time>2021-08-11T06:21:54Z</time>
      </trkpt>
      <trkpt lat="47.81388" lon="3.80481">
        <ele>134.24</ele>
        <time>2021-08-11T06:21:55Z</time>
      </trkpt>
      <trkpt lat="47.81392" lon="3.80473">
        <ele>134.24</ele>
        <time>2021-08-11T06:21:56Z</time>
      </trkpt>
      <trkpt lat="47.81423" lon="3.8043">
        <ele>134.24</ele>
        <time>2021-08-11T06:22:04Z</time>
      </trkpt>
      <trkpt lat="47.8144" lon="3.80405">
        <ele>135.68</ele>
        <time>2021-08-11T06:22:09Z</time>
      </trkpt>
      <trkpt lat="47.81464" lon="3.80361">
        <ele>135.68</ele>
        <time>2021-08-11T06:22:17Z</time>
      </trkpt>
      <trkpt lat="47.81467" lon="3.80355">
        <ele>135.68</ele>
        <time>2021-08-11T06:22:18Z</time>
      </trkpt>
      <trkpt lat="47.81473" lon="3.80342">
        <ele>135.68</ele>
        <time>2021-08-11T06:22:20Z</time>
      </trkpt>
      <trkpt lat="47.81476" lon="3.80335">
        <ele>135.68</ele>
        <time>2021-08-11T06:22:21Z</time>
      </trkpt>
      <trkpt lat="47.81501" lon="3.80295">
        <ele>135.68</ele>
        <time>2021-08-11T06:22:29Z</time>
      </trkpt>
      <trkpt lat="47.81507" lon="3.80288">
        <ele>136.16</ele>
        <time>2021-08-11T06:22:31Z</time>
      </trkpt>
      <trkpt lat="47.81511" lon="3.80285">
        <ele>136.16</ele>
        <time>2021-08-11T06:22:32Z</time>
      </trkpt>
      <trkpt lat="47.81515" lon="3.80284">
        <ele>136.16</ele>
        <time>2021-08-11T06:22:33Z</time>
      </trkpt>
      <trkpt lat="47.81535" lon="3.80278">
        <ele>137.61</ele>
        <time>2021-08-11T06:22:40Z</time>
      </trkpt>
      <trkpt lat="47.81537" lon="3.80275">
        <ele>137.61</ele>
        <time>2021-08-11T06:22:41Z</time>
      </trkpt>
      <trkpt lat="47.81537" lon="3.8027">
        <ele>137.61</ele>
        <time>2021-08-11T06:22:42Z</time>
      </trkpt>
      <trkpt lat="47.81536" lon="3.80267">
        <ele>137.61</ele>
        <time>2021-08-11T06:22:43Z</time>
      </trkpt>
      <trkpt lat="47.81536" lon="3.80262">
        <ele>137.61</ele>
        <time>2021-08-11T06:22:44Z</time>
      </trkpt>
      <trkpt lat="47.81535" lon="3.80258">
        <ele>137.61</ele>
        <time>2021-08-11T06:22:45Z</time>
      </trkpt>
      <trkpt lat="47.81535" lon="3.80253">
        <ele>137.61</ele>
        <time>2021-08-11T06:22:46Z</time>
      </trkpt>
      <trkpt lat="47.81534" lon="3.80212">
        <ele>137.61</ele>
        <time>2021-08-11T06:22:54Z</time>
      </trkpt>
      <trkpt lat="47.81534" lon="3.80176">
        <ele>137.61</ele>
        <time>2021-08-11T06:23:00Z</time>
      </trkpt>
      <trkpt lat="47.81534" lon="3.8017">
        <ele>137.61</ele>
        <time>2021-08-11T06:23:01Z</time>
      </trkpt>
      <trkpt lat="47.81533" lon="3.80164">
        <ele>137.61</ele>
        <time>2021-08-11T06:23:02Z</time>
      </trkpt>
      <trkpt lat="47.81531" lon="3.80158">
        <ele>137.61</ele>
        <time>2021-08-11T06:23:03Z</time>
      </trkpt>
      <trkpt lat="47.8153" lon="3.80153">
        <ele>137.61</ele>
        <time>2021-08-11T06:23:04Z</time>
      </trkpt>
      <trkpt lat="47.8153" lon="3.80149">
        <ele>137.61</ele>
        <time>2021-08-11T06:23:05Z</time>
      </trkpt>
      <trkpt lat="47.81529" lon="3.80144">
        <ele>137.61</ele>
        <time>2021-08-11T06:23:06Z</time>
      </trkpt>
      <trkpt lat="47.81519" lon="3.80103">
        <ele>137.61</ele>
        <time>2021-08-11T06:23:15Z</time>
      </trkpt>
      <trkpt lat="47.81515" lon="3.80068">
        <ele>138.57</ele>
        <time>2021-08-11T06:23:23Z</time>
      </trkpt>
      <trkpt lat="47.81513" lon="3.80035">
        <ele>139.53</ele>
        <time>2021-08-11T06:23:30Z</time>
      </trkpt>
      <trkpt lat="47.81513" lon="3.80024">
        <ele>140.01</ele>
        <time>2021-08-11T06:23:35Z</time>
      </trkpt>
      <trkpt lat="47.81512" lon="3.80021">
        <ele>140.01</ele>
        <time>2021-08-11T06:23:46Z</time>
      </trkpt>
      <trkpt lat="47.81512" lon="3.80024">
        <ele>140.01</ele>
        <time>2021-08-11T06:23:55Z</time>
      </trkpt>
      <trkpt lat="47.81511" lon="3.80021">
        <ele>140.01</ele>
        <time>2021-08-11T06:24:18Z</time>
      </trkpt>
      <trkpt lat="47.81509" lon="3.80018">
        <ele>140.49</ele>
        <time>2021-08-11T06:24:36Z</time>
      </trkpt>
      <trkpt lat="47.81509" lon="3.80019">
        <ele>140.49</ele>
        <time>2021-08-11T06:24:56Z</time>
      </trkpt>
      <trkpt lat="47.81509" lon="3.80019">
        <ele>140.49</ele>
        <time>2021-08-11T06:24:58Z</time>
      </trkpt>
      <trkpt lat="47.81508" lon="3.8002">
        <ele>140.49</ele>
        <time>2021-08-11T06:25:05Z</time>
      </trkpt>
      <trkpt lat="47.8151" lon="3.80023">
        <ele>140.49</ele>
        <time>2021-08-11T06:25:18Z</time>
      </trkpt>
      <trkpt lat="47.81509" lon="3.80026">
        <ele>140.97</ele>
        <time>2021-08-11T06:25:39Z</time>
      </trkpt>
      <trkpt lat="47.81508" lon="3.80025">
        <ele>140.97</ele>
        <time>2021-08-11T06:25:56Z</time>
      </trkpt>
      <trkpt lat="47.81509" lon="3.80022">
        <ele>140.97</ele>
        <time>2021-08-11T06:26:15Z</time>
      </trkpt>
      <trkpt lat="47.81511" lon="3.80022">
        <ele>140.97</ele>
        <time>2021-08-11T06:26:35Z</time>
      </trkpt>
      <trkpt lat="47.81511" lon="3.8002">
        <ele>141.45</ele>
        <time>2021-08-11T06:26:58Z</time>
      </trkpt>
      <trkpt lat="47.81511" lon="3.8002">
        <ele>141.45</ele>
        <time>2021-08-11T06:27:16Z</time>
      </trkpt>
      <trkpt lat="47.81514" lon="3.80022">
        <ele>141.45</ele>
        <time>2021-08-11T06:27:37Z</time>
      </trkpt>
      <trkpt lat="47.81515" lon="3.8002">
        <ele>142.41</ele>
        <time>2021-08-11T06:27:58Z</time>
      </trkpt>
      <trkpt lat="47.81514" lon="3.8002">
        <ele>142.41</ele>
        <time>2021-08-11T06:28:11Z</time>
      </trkpt>
      <trkpt lat="47.81513" lon="3.80025">
        <ele>142.41</ele>
        <time>2021-08-11T06:28:24Z</time>
      </trkpt>
      <trkpt lat="47.81513" lon="3.80024">
        <ele>142.41</ele>
        <time>2021-08-11T06:28:42Z</time>
      </trkpt>
      <trkpt lat="47.8151" lon="3.80025">
        <ele>142.41</ele>
        <time>2021-08-11T06:29:07Z</time>
      </trkpt>
      <trkpt lat="47.81509" lon="3.80028">
        <ele>142.89</ele>
        <time>2021-08-11T06:29:24Z</time>
      </trkpt>
      <trkpt lat="47.81505" lon="3.80027">
        <ele>142.89</ele>
        <time>2021-08-11T06:29:50Z</time>
      </trkpt>
      <trkpt lat="47.81504" lon="3.80024">
        <ele>142.89</ele>
        <time>2021-08-11T06:30:03Z</time>
      </trkpt>
      <trkpt lat="47.81504" lon="3.80024">
        <ele>142.89</ele>
        <time>2021-08-11T06:30:18Z</time>
      </trkpt>
      <trkpt lat="47.81502" lon="3.80023">
        <ele>142.89</ele>
        <time>2021-08-11T06:30:32Z</time>
      </trkpt>
      <trkpt lat="47.815" lon="3.80024">
        <ele>143.37</ele>
        <time>2021-08-11T06:30:50Z</time>
      </trkpt>
      <trkpt lat="47.81502" lon="3.80024">
        <ele>143.37</ele>
        <time>2021-08-11T06:31:09Z</time>
      </trkpt>
      <trkpt lat="47.81506" lon="3.8002">
        <ele>143.37</ele>
        <time>2021-08-11T06:31:28Z</time>
      </trkpt>
      <trkpt lat="47.81506" lon="3.80029">
        <ele>143.37</ele>
        <time>2021-08-11T06:31:58Z</time>
      </trkpt>
      <trkpt lat="47.81505" lon="3.80025">
        <ele>143.85</ele>
        <time>2021-08-11T06:32:22Z</time>
      </trkpt>
      <trkpt lat="47.81508" lon="3.80028">
        <ele>143.85</ele>
        <time>2021-08-11T06:32:41Z</time>
      </trkpt>
      <trkpt lat="47.81503" lon="3.80027">
        <ele>144.34</ele>
        <time>2021-08-11T06:33:04Z</time>
      </trkpt>
      <trkpt lat="47.81504" lon="3.80026">
        <ele>144.34</ele>
        <time>2021-08-11T06:33:28Z</time>
      </trkpt>
      <trkpt lat="47.81504" lon="3.80024">
        <ele>144.82</ele>
        <time>2021-08-11T06:33:49Z</time>
      </trkpt>
      <trkpt lat="47.81506" lon="3.80017">
        <ele>144.82</ele>
        <time>2021-08-11T06:34:15Z</time>
      </trkpt>
      <trkpt lat="47.81511" lon="3.80012">
        <ele>144.82</ele>
        <time>2021-08-11T06:34:41Z</time>
      </trkpt>
      <trkpt lat="47.81512" lon="3.80016">
        <ele>144.82</ele>
        <time>2021-08-11T06:34:57Z</time>
      </trkpt>
      <trkpt lat="47.81512" lon="3.80018">
        <ele>145.3</ele>
        <time>2021-08-11T06:35:12Z</time>
      </trkpt>
      <trkpt lat="47.81514" lon="3.80023">
        <ele>145.3</ele>
        <time>2021-08-11T06:35:36Z</time>
      </trkpt>
      <trkpt lat="47.81512" lon="3.80023">
        <ele>145.3</ele>
        <time>2021-08-11T06:36:02Z</time>
      </trkpt>
      <trkpt lat="47.8151" lon="3.80025">
        <ele>145.78</ele>
        <time>2021-08-11T06:36:17Z</time>
      </trkpt>
      <trkpt lat="47.81507" lon="3.80025">
        <ele>145.78</ele>
        <time>2021-08-11T06:36:31Z</time>
      </trkpt>
      <trkpt lat="47.81505" lon="3.80031">
        <ele>145.78</ele>
        <time>2021-08-11T06:36:53Z</time>
      </trkpt>
      <trkpt lat="47.81505" lon="3.80032">
        <ele>145.78</ele>
        <time>2021-08-11T06:37:13Z</time>
      </trkpt>
      <trkpt lat="47.81502" lon="3.80026">
        <ele>146.26</ele>
        <time>2021-08-11T06:37:36Z</time>
      </trkpt>
      <trkpt lat="47.81504" lon="3.80026">
        <ele>146.26</ele>
        <time>2021-08-11T06:37:57Z</time>
      </trkpt>
      <trkpt lat="47.81501" lon="3.80023">
        <ele>146.26</ele>
        <time>2021-08-11T06:38:17Z</time>
      </trkpt>
      <trkpt lat="47.81505" lon="3.80028">
        <ele>146.26</ele>
        <time>2021-08-11T06:38:36Z</time>
      </trkpt>
      <trkpt lat="47.81509" lon="3.80031">
        <ele>146.26</ele>
        <time>2021-08-11T06:39:01Z</time>
      </trkpt>
      <trkpt lat="47.81506" lon="3.80029">
        <ele>146.26</ele>
        <time>2021-08-11T06:39:26Z</time>
      </trkpt>
      <trkpt lat="47.81503" lon="3.80031">
        <ele>146.74</ele>
        <time>2021-08-11T06:39:45Z</time>
      </trkpt>
      <trkpt lat="47.81505" lon="3.80033">
        <ele>146.74</ele>
        <time>2021-08-11T06:40:05Z</time>
      </trkpt>
      <trkpt lat="47.81504" lon="3.80034">
        <ele>146.74</ele>
        <time>2021-08-11T06:40:28Z</time>
      </trkpt>
      <trkpt lat="47.81502" lon="3.80035">
        <ele>147.22</ele>
        <time>2021-08-11T06:40:55Z</time>
      </trkpt>
      <trkpt lat="47.81505" lon="3.80037">
        <ele>147.22</ele>
        <time>2021-08-11T06:41:17Z</time>
      </trkpt>
      <trkpt lat="47.81511" lon="3.80041">
        <ele>147.22</ele>
        <time>2021-08-11T06:41:32Z</time>
      </trkpt>
      <trkpt lat="47.81507" lon="3.80038">
        <ele>147.22</ele>
        <time>2021-08-11T06:41:54Z</time>
      </trkpt>
      <trkpt lat="47.81503" lon="3.80033">
        <ele>147.7</ele>
        <time>2021-08-11T06:42:14Z</time>
      </trkpt>
      <trkpt lat="47.81503" lon="3.8003">
        <ele>147.7</ele>
        <time>2021-08-11T06:42:34Z</time>
      </trkpt>
      <trkpt lat="47.81505" lon="3.80029">
        <ele>147.7</ele>
        <time>2021-08-11T06:42:52Z</time>
      </trkpt>
      <trkpt lat="47.81509" lon="3.80033">
        <ele>147.7</ele>
        <time>2021-08-11T06:43:15Z</time>
      </trkpt>
      <trkpt lat="47.81509" lon="3.8003">
        <ele>147.7</ele>
        <time>2021-08-11T06:43:33Z</time>
      </trkpt>
      <trkpt lat="47.81511" lon="3.80028">
        <ele>148.18</ele>
        <time>2021-08-11T06:43:52Z</time>
      </trkpt>
      <trkpt lat="47.8151" lon="3.8003">
        <ele>148.18</ele>
        <time>2021-08-11T06:44:09Z</time>
      </trkpt>
      <trkpt lat="47.81508" lon="3.80028">
        <ele>148.18</ele>
        <time>2021-08-11T06:44:31Z</time>
      </trkpt>
      <trkpt lat="47.81505" lon="3.80028">
        <ele>148.18</ele>
        <time>2021-08-11T06:44:48Z</time>
      </trkpt>
      <trkpt lat="47.81501" lon="3.80026">
        <ele>148.18</ele>
        <time>2021-08-11T06:45:06Z</time>
      </trkpt>
      <trkpt lat="47.81502" lon="3.80024">
        <ele>148.18</ele>
        <time>2021-08-11T06:45:22Z</time>
      </trkpt>
      <trkpt lat="47.81501" lon="3.80022">
        <ele>148.18</ele>
        <time>2021-08-11T06:45:39Z</time>
      </trkpt>
      <trkpt lat="47.815" lon="3.8002">
        <ele>148.18</ele>
        <time>2021-08-11T06:45:53Z</time>
      </trkpt>
      <trkpt lat="47.815" lon="3.80023">
        <ele>148.18</ele>
        <time>2021-08-11T06:46:05Z</time>
      </trkpt>
      <trkpt lat="47.81501" lon="3.80024">
        <ele>148.18</ele>
        <time>2021-08-11T06:46:23Z</time>
      </trkpt>
      <trkpt lat="47.815" lon="3.80024">
        <ele>148.18</ele>
        <time>2021-08-11T06:46:40Z</time>
      </trkpt>
      <trkpt lat="47.815" lon="3.80026">
        <ele>148.18</ele>
        <time>2021-08-11T06:46:58Z</time>
      </trkpt>
      <trkpt lat="47.8151" lon="3.80032">
        <ele>148.18</ele>
        <time>2021-08-11T06:47:16Z</time>
      </trkpt>
      <trkpt lat="47.81504" lon="3.80029">
        <ele>148.18</ele>
        <time>2021-08-11T06:47:38Z</time>
      </trkpt>
      <trkpt lat="47.81499" lon="3.80028">
        <ele>148.18</ele>
        <time>2021-08-11T06:47:59Z</time>
      </trkpt>
      <trkpt lat="47.81497" lon="3.80029">
        <ele>148.18</ele>
        <time>2021-08-11T06:48:24Z</time>
      </trkpt>
      <trkpt lat="47.81496" lon="3.80025">
        <ele>148.18</ele>
        <time>2021-08-11T06:48:44Z</time>
      </trkpt>
      <trkpt lat="47.81497" lon="3.80025">
        <ele>148.18</ele>
        <time>2021-08-11T06:49:01Z</time>
      </trkpt>
      <trkpt lat="47.815" lon="3.80028">
        <ele>148.18</ele>
        <time>2021-08-11T06:49:12Z</time>
      </trkpt>
      <trkpt lat="47.8151" lon="3.80037">
        <ele>148.18</ele>
        <time>2021-08-11T06:49:32Z</time>
      </trkpt>
      <trkpt lat="47.81509" lon="3.80041">
        <ele>148.18</ele>
        <time>2021-08-11T06:49:51Z</time>
      </trkpt>
      <trkpt lat="47.81508" lon="3.80035">
        <ele>148.18</ele>
        <time>2021-08-11T06:50:10Z</time>
      </trkpt>
      <trkpt lat="47.81512" lon="3.80039">
        <ele>148.18</ele>
        <time>2021-08-11T06:50:26Z</time>
      </trkpt>
      <trkpt lat="47.81514" lon="3.80041">
        <ele>148.18</ele>
        <time>2021-08-11T06:50:43Z</time>
      </trkpt>
      <trkpt lat="47.81511" lon="3.80038">
        <ele>148.18</ele>
        <time>2021-08-11T06:51:01Z</time>
      </trkpt>
      <trkpt lat="47.81507" lon="3.80033">
        <ele>148.18</ele>
        <time>2021-08-11T06:51:19Z</time>
      </trkpt>
      <trkpt lat="47.81506" lon="3.8003">
        <ele>148.18</ele>
        <time>2021-08-11T06:51:26Z</time>
      </trkpt>
      <trkpt lat="47.81501" lon="3.80023">
        <ele>148.18</ele>
        <time>2021-08-11T06:51:46Z</time>
      </trkpt>
      <trkpt lat="47.81499" lon="3.80019">
        <ele>148.18</ele>
        <time>2021-08-11T06:52:02Z</time>
      </trkpt>
      <trkpt lat="47.815" lon="3.80017">
        <ele>148.18</ele>
        <time>2021-08-11T06:52:24Z</time>
      </trkpt>
      <trkpt lat="47.81503" lon="3.80019">
        <ele>147.7</ele>
        <time>2021-08-11T06:52:43Z</time>
      </trkpt>
      <trkpt lat="47.81506" lon="3.80022">
        <ele>147.7</ele>
        <time>2021-08-11T06:52:55Z</time>
      </trkpt>
      <trkpt lat="47.81504" lon="3.80023">
        <ele>147.7</ele>
        <time>2021-08-11T06:53:11Z</time>
      </trkpt>
      <trkpt lat="47.81503" lon="3.80023">
        <ele>147.7</ele>
        <time>2021-08-11T06:53:27Z</time>
      </trkpt>
      <trkpt lat="47.81503" lon="3.80022">
        <ele>147.7</ele>
        <time>2021-08-11T06:53:47Z</time>
      </trkpt>
      <trkpt lat="47.81507" lon="3.80027">
        <ele>147.7</ele>
        <time>2021-08-11T06:53:58Z</time>
      </trkpt>
      <trkpt lat="47.81511" lon="3.8003">
        <ele>147.7</ele>
        <time>2021-08-11T06:54:13Z</time>
      </trkpt>
      <trkpt lat="47.81517" lon="3.80039">
        <ele>147.7</ele>
        <time>2021-08-11T06:54:31Z</time>
      </trkpt>
      <trkpt lat="47.81524" lon="3.80046">
        <ele>147.7</ele>
        <time>2021-08-11T06:54:45Z</time>
      </trkpt>
      <trkpt lat="47.81525" lon="3.80045">
        <ele>147.7</ele>
        <time>2021-08-11T06:55:07Z</time>
      </trkpt>
      <trkpt lat="47.81528" lon="3.80048">
        <ele>147.7</ele>
        <time>2021-08-11T06:55:20Z</time>
      </trkpt>
      <trkpt lat="47.81527" lon="3.80047">
        <ele>147.7</ele>
        <time>2021-08-11T06:55:32Z</time>
      </trkpt>
      <trkpt lat="47.81525" lon="3.80043">
        <ele>147.7</ele>
        <time>2021-08-11T06:55:48Z</time>
      </trkpt>
      <trkpt lat="47.81528" lon="3.80045">
        <ele>147.7</ele>
        <time>2021-08-11T06:56:02Z</time>
      </trkpt>
      <trkpt lat="47.81525" lon="3.80044">
        <ele>147.7</ele>
        <time>2021-08-11T06:56:22Z</time>
      </trkpt>
      <trkpt lat="47.81522" lon="3.80041">
        <ele>147.7</ele>
        <time>2021-08-11T06:56:36Z</time>
      </trkpt>
      <trkpt lat="47.8152" lon="3.8004">
        <ele>147.7</ele>
        <time>2021-08-11T06:56:48Z</time>
      </trkpt>
      <trkpt lat="47.81516" lon="3.80034">
        <ele>147.7</ele>
        <time>2021-08-11T06:57:10Z</time>
      </trkpt>
      <trkpt lat="47.81515" lon="3.80033">
        <ele>147.7</ele>
        <time>2021-08-11T06:57:25Z</time>
      </trkpt>
      <trkpt lat="47.8151" lon="3.80027">
        <ele>147.7</ele>
        <time>2021-08-11T06:57:38Z</time>
      </trkpt>
      <trkpt lat="47.81505" lon="3.8002">
        <ele>147.7</ele>
        <time>2021-08-11T06:57:51Z</time>
      </trkpt>
      <trkpt lat="47.81501" lon="3.80014">
        <ele>147.22</ele>
        <time>2021-08-11T06:58:07Z</time>
      </trkpt>
      <trkpt lat="47.815" lon="3.80011">
        <ele>147.22</ele>
        <time>2021-08-11T06:58:23Z</time>
      </trkpt>
      <trkpt lat="47.81498" lon="3.80008">
        <ele>147.22</ele>
        <time>2021-08-11T06:58:42Z</time>
      </trkpt>
      <trkpt lat="47.815" lon="3.80013">
        <ele>147.22</ele>
        <time>2021-08-11T06:58:59Z</time>
      </trkpt>
      <trkpt lat="47.81503" lon="3.80019">
        <ele>147.22</ele>
        <time>2021-08-11T06:59:18Z</time>
      </trkpt>
      <trkpt lat="47.81502" lon="3.8002">
        <ele>147.22</ele>
        <time>2021-08-11T06:59:27Z</time>
      </trkpt>
      <trkpt lat="47.81503" lon="3.80025">
        <ele>147.22</ele>
        <time>2021-08-11T06:59:41Z</time>
      </trkpt>
      <trkpt lat="47.81506" lon="3.80028">
        <ele>146.74</ele>
        <time>2021-08-11T06:59:58Z</time>
      </trkpt>
      <trkpt lat="47.81505" lon="3.80026">
        <ele>146.74</ele>
        <time>2021-08-11T07:00:12Z</time>
      </trkpt>
      <trkpt lat="47.81509" lon="3.80024">
        <ele>146.74</ele>
        <time>2021-08-11T07:00:36Z</time>
      </trkpt>
      <trkpt lat="47.81505" lon="3.80025">
        <ele>146.74</ele>
        <time>2021-08-11T07:00:53Z</time>
      </trkpt>
      <trkpt lat="47.81503" lon="3.80022">
        <ele>146.74</ele>
        <time>2021-08-11T07:01:19Z</time>
      </trkpt>
      <trkpt lat="47.81504" lon="3.8002">
        <ele>146.74</ele>
        <time>2021-08-11T07:01:36Z</time>
      </trkpt>
      <trkpt lat="47.81502" lon="3.80023">
        <ele>146.74</ele>
        <time>2021-08-11T07:01:54Z</time>
      </trkpt>
      <trkpt lat="47.81504" lon="3.80028">
        <ele>146.74</ele>
        <time>2021-08-11T07:02:12Z</time>
      </trkpt>
      <trkpt lat="47.81508" lon="3.8003">
        <ele>146.74</ele>
        <time>2021-08-11T07:02:31Z</time>
      </trkpt>
      <trkpt lat="47.8151" lon="3.80032">
        <ele>146.74</ele>
        <time>2021-08-11T07:02:46Z</time>
      </trkpt>
      <trkpt lat="47.81511" lon="3.80036">
        <ele>146.74</ele>
        <time>2021-08-11T07:02:59Z</time>
      </trkpt>
      <trkpt lat="47.81508" lon="3.80034">
        <ele>147.22</ele>
        <time>2021-08-11T07:03:18Z</time>
      </trkpt>
      <trkpt lat="47.8151" lon="3.80036">
        <ele>147.22</ele>
        <time>2021-08-11T07:03:32Z</time>
      </trkpt>
      <trkpt lat="47.81508" lon="3.80035">
        <ele>147.22</ele>
        <time>2021-08-11T07:03:47Z</time>
      </trkpt>
      <trkpt lat="47.81502" lon="3.80032">
        <ele>147.22</ele>
        <time>2021-08-11T07:04:04Z</time>
      </trkpt>
      <trkpt lat="47.81501" lon="3.80026">
        <ele>147.22</ele>
        <time>2021-08-11T07:04:23Z</time>
      </trkpt>
      <trkpt lat="47.81504" lon="3.80026">
        <ele>147.22</ele>
        <time>2021-08-11T07:04:41Z</time>
      </trkpt>
      <trkpt lat="47.81505" lon="3.80026">
        <ele>147.22</ele>
        <time>2021-08-11T07:04:59Z</time>
      </trkpt>
      <trkpt lat="47.81508" lon="3.80029">
        <ele>147.22</ele>
        <time>2021-08-11T07:05:18Z</time>
      </trkpt>
      <trkpt lat="47.8151" lon="3.80029">
        <ele>147.22</ele>
        <time>2021-08-11T07:05:39Z</time>
      </trkpt>
      <trkpt lat="47.8151" lon="3.80029">
        <ele>147.22</ele>
        <time>2021-08-11T07:05:55Z</time>
      </trkpt>
      <trkpt lat="47.81512" lon="3.8003">
        <ele>147.22</ele>
        <time>2021-08-11T07:06:13Z</time>
      </trkpt>
      <trkpt lat="47.81512" lon="3.80031">
        <ele>147.22</ele>
        <time>2021-08-11T07:06:26Z</time>
      </trkpt>
      <trkpt lat="47.81512" lon="3.80029">
        <ele>147.22</ele>
        <time>2021-08-11T07:06:39Z</time>
      </trkpt>
      <trkpt lat="47.81508" lon="3.80026">
        <ele>147.22</ele>
        <time>2021-08-11T07:06:53Z</time>
      </trkpt>
      <trkpt lat="47.81505" lon="3.80024">
        <ele>147.22</ele>
        <time>2021-08-11T07:07:04Z</time>
      </trkpt>
      <trkpt lat="47.81506" lon="3.80026">
        <ele>146.74</ele>
        <time>2021-08-11T07:07:18Z</time>
      </trkpt>
      <trkpt lat="47.81506" lon="3.80028">
        <ele>146.74</ele>
        <time>2021-08-11T07:07:26Z</time>
      </trkpt>
      <trkpt lat="47.81507" lon="3.80029">
        <ele>146.74</ele>
        <time>2021-08-11T07:07:38Z</time>
      </trkpt>
      <trkpt lat="47.81508" lon="3.8003">
        <ele>146.74</ele>
        <time>2021-08-11T07:07:51Z</time>
      </trkpt>
      <trkpt lat="47.81509" lon="3.8003">
        <ele>146.74</ele>
        <time>2021-08-11T07:08:01Z</time>
      </trkpt>
      <trkpt lat="47.81512" lon="3.80033">
        <ele>146.74</ele>
        <time>2021-08-11T07:08:09Z</time>
      </trkpt>
      <trkpt lat="47.81516" lon="3.80039">
        <ele>146.74</ele>
        <time>2021-08-11T07:08:21Z</time>
      </trkpt>
      <trkpt lat="47.81514" lon="3.80039">
        <ele>146.74</ele>
        <time>2021-08-11T07:08:34Z</time>
      </trkpt>
      <trkpt lat="47.8151" lon="3.80034">
        <ele>146.74</ele>
        <time>2021-08-11T07:08:48Z</time>
      </trkpt>
      <trkpt lat="47.81512" lon="3.80035">
        <ele>146.74</ele>
        <time>2021-08-11T07:09:02Z</time>
      </trkpt>
      <trkpt lat="47.81514" lon="3.80037">
        <ele>146.74</ele>
        <time>2021-08-11T07:09:13Z</time>
      </trkpt>
      <trkpt lat="47.81513" lon="3.80037">
        <ele>146.74</ele>
        <time>2021-08-11T07:09:25Z</time>
      </trkpt>
      <trkpt lat="47.81514" lon="3.80037">
        <ele>147.22</ele>
        <time>2021-08-11T07:09:38Z</time>
      </trkpt>
      <trkpt lat="47.81515" lon="3.80037">
        <ele>146.74</ele>
        <time>2021-08-11T07:09:50Z</time>
      </trkpt>
      <trkpt lat="47.81512" lon="3.80033">
        <ele>147.22</ele>
        <time>2021-08-11T07:09:56Z</time>
      </trkpt>
      <trkpt lat="47.81511" lon="3.80029">
        <ele>146.74</ele>
        <time>2021-08-11T07:09:59Z</time>
      </trkpt>
      <trkpt lat="47.81512" lon="3.80009">
        <ele>146.74</ele>
        <time>2021-08-11T07:10:06Z</time>
      </trkpt>
      <trkpt lat="47.81516" lon="3.79985">
        <ele>147.22</ele>
        <time>2021-08-11T07:10:13Z</time>
      </trkpt>
      <trkpt lat="47.81525" lon="3.79951">
        <ele>146.74</ele>
        <time>2021-08-11T07:10:21Z</time>
      </trkpt>
      <trkpt lat="47.81534" lon="3.79924">
        <ele>145.78</ele>
        <time>2021-08-11T07:10:26Z</time>
      </trkpt>
      <trkpt lat="47.81535" lon="3.79919">
        <ele>145.78</ele>
        <time>2021-08-11T07:10:27Z</time>
      </trkpt>
      <trkpt lat="47.81536" lon="3.79913">
        <ele>145.78</ele>
        <time>2021-08-11T07:10:28Z</time>
      </trkpt>
      <trkpt lat="47.81541" lon="3.79884">
        <ele>145.78</ele>
        <time>2021-08-11T07:10:33Z</time>
      </trkpt>
      <trkpt lat="47.81542" lon="3.79877">
        <ele>145.78</ele>
        <time>2021-08-11T07:10:34Z</time>
      </trkpt>
      <trkpt lat="47.81542" lon="3.79872">
        <ele>145.78</ele>
        <time>2021-08-11T07:10:35Z</time>
      </trkpt>
      <trkpt lat="47.81546" lon="3.79827">
        <ele>145.78</ele>
        <time>2021-08-11T07:10:43Z</time>
      </trkpt>
      <trkpt lat="47.81547" lon="3.79816">
        <ele>146.74</ele>
        <time>2021-08-11T07:10:45Z</time>
      </trkpt>
      <trkpt lat="47.8155" lon="3.7978">
        <ele>147.22</ele>
        <time>2021-08-11T07:10:53Z</time>
      </trkpt>
      <trkpt lat="47.81549" lon="3.79739">
        <ele>147.7</ele>
        <time>2021-08-11T07:11:02Z</time>
      </trkpt>
      <trkpt lat="47.81547" lon="3.79684">
        <ele>147.7</ele>
        <time>2021-08-11T07:11:11Z</time>
      </trkpt>
      <trkpt lat="47.81548" lon="3.79672">
        <ele>147.7</ele>
        <time>2021-08-11T07:11:13Z</time>
      </trkpt>
      <trkpt lat="47.81549" lon="3.79666">
        <ele>147.7</ele>
        <time>2021-08-11T07:11:14Z</time>
      </trkpt>
      <trkpt lat="47.81552" lon="3.79615">
        <ele>147.7</ele>
        <time>2021-08-11T07:11:21Z</time>
      </trkpt>
      <trkpt lat="47.81555" lon="3.79553">
        <ele>147.7</ele>
        <time>2021-08-11T07:11:29Z</time>
      </trkpt>
      <trkpt lat="47.81561" lon="3.79481">
        <ele>146.74</ele>
        <time>2021-08-11T07:11:38Z</time>
      </trkpt>
      <trkpt lat="47.81569" lon="3.79389">
        <ele>146.26</ele>
        <time>2021-08-11T07:11:49Z</time>
      </trkpt>
      <trkpt lat="47.81573" lon="3.79363">
        <ele>145.78</ele>
        <time>2021-08-11T07:11:52Z</time>
      </trkpt>
      <trkpt lat="47.81573" lon="3.79354">
        <ele>145.78</ele>
        <time>2021-08-11T07:11:53Z</time>
      </trkpt>
      <trkpt lat="47.8158" lon="3.79256">
        <ele>145.78</ele>
        <time>2021-08-11T07:12:04Z</time>
      </trkpt>
      <trkpt lat="47.81591" lon="3.79163">
        <ele>145.78</ele>
        <time>2021-08-11T07:12:15Z</time>
      </trkpt>
      <trkpt lat="47.81601" lon="3.79086">
        <ele>145.3</ele>
        <time>2021-08-11T07:12:25Z</time>
      </trkpt>
      <trkpt lat="47.81609" lon="3.79038">
        <ele>145.3</ele>
        <time>2021-08-11T07:12:32Z</time>
      </trkpt>
      <trkpt lat="47.81609" lon="3.79031">
        <ele>145.3</ele>
        <time>2021-08-11T07:12:33Z</time>
      </trkpt>
      <trkpt lat="47.81607" lon="3.79025">
        <ele>145.3</ele>
        <time>2021-08-11T07:12:34Z</time>
      </trkpt>
      <trkpt lat="47.81603" lon="3.79019">
        <ele>145.3</ele>
        <time>2021-08-11T07:12:35Z</time>
      </trkpt>
      <trkpt lat="47.816" lon="3.79017">
        <ele>145.3</ele>
        <time>2021-08-11T07:12:36Z</time>
      </trkpt>
      <trkpt lat="47.81595" lon="3.79015">
        <ele>145.3</ele>
        <time>2021-08-11T07:12:37Z</time>
      </trkpt>
      <trkpt lat="47.8159" lon="3.79012">
        <ele>145.3</ele>
        <time>2021-08-11T07:12:38Z</time>
      </trkpt>
      <trkpt lat="47.81556" lon="3.78995">
        <ele>145.3</ele>
        <time>2021-08-11T07:12:45Z</time>
      </trkpt>
      <trkpt lat="47.81493" lon="3.78964">
        <ele>145.3</ele>
        <time>2021-08-11T07:12:58Z</time>
      </trkpt>
      <trkpt lat="47.81446" lon="3.78942">
        <ele>145.3</ele>
        <time>2021-08-11T07:13:08Z</time>
      </trkpt>
      <trkpt lat="47.81405" lon="3.78923">
        <ele>146.74</ele>
        <time>2021-08-11T07:13:18Z</time>
      </trkpt>
      <trkpt lat="47.8139" lon="3.7891">
        <ele>147.22</ele>
        <time>2021-08-11T07:13:22Z</time>
      </trkpt>
      <trkpt lat="47.81389" lon="3.78905">
        <ele>147.22</ele>
        <time>2021-08-11T07:13:23Z</time>
      </trkpt>
      <trkpt lat="47.81387" lon="3.78892">
        <ele>147.22</ele>
        <time>2021-08-11T07:13:25Z</time>
      </trkpt>
      <trkpt lat="47.81378" lon="3.78835">
        <ele>147.7</ele>
        <time>2021-08-11T07:13:35Z</time>
      </trkpt>
      <trkpt lat="47.81376" lon="3.78835">
        <ele>147.7</ele>
        <time>2021-08-11T07:13:36Z</time>
      </trkpt>
      <trkpt lat="47.81376" lon="3.78837">
        <ele>147.7</ele>
        <time>2021-08-11T07:13:37Z</time>
      </trkpt>
      <trkpt lat="47.81376" lon="3.7884">
        <ele>147.7</ele>
        <time>2021-08-11T07:13:38Z</time>
      </trkpt>
      <trkpt lat="47.81377" lon="3.78843">
        <ele>147.7</ele>
        <time>2021-08-11T07:13:39Z</time>
      </trkpt>
      <trkpt lat="47.81382" lon="3.78876">
        <ele>147.7</ele>
        <time>2021-08-11T07:13:45Z</time>
      </trkpt>
      <trkpt lat="47.81383" lon="3.78886">
        <ele>147.7</ele>
        <time>2021-08-11T07:13:47Z</time>
      </trkpt>
      <trkpt lat="47.81382" lon="3.78889">
        <ele>147.7</ele>
        <time>2021-08-11T07:13:48Z</time>
      </trkpt>
      <trkpt lat="47.8138" lon="3.78891">
        <ele>147.7</ele>
        <time>2021-08-11T07:13:50Z</time>
      </trkpt>
      <trkpt lat="47.81376" lon="3.78891">
        <ele>147.7</ele>
        <time>2021-08-11T07:13:57Z</time>
      </trkpt>
      <trkpt lat="47.81377" lon="3.7889">
        <ele>147.7</ele>
        <time>2021-08-11T07:14:09Z</time>
      </trkpt>
      <trkpt lat="47.81378" lon="3.7889">
        <ele>148.18</ele>
        <time>2021-08-11T07:14:27Z</time>
      </trkpt>
      <trkpt lat="47.81378" lon="3.7889">
        <ele>148.18</ele>
        <time>2021-08-11T07:14:42Z</time>
      </trkpt>
      <trkpt lat="47.81378" lon="3.78892">
        <ele>148.18</ele>
        <time>2021-08-11T07:15:00Z</time>
      </trkpt>
      <trkpt lat="47.81377" lon="3.78892">
        <ele>147.7</ele>
        <time>2021-08-11T07:15:13Z</time>
      </trkpt>
      <trkpt lat="47.81376" lon="3.78891">
        <ele>147.7</ele>
        <time>2021-08-11T07:15:22Z</time>
      </trkpt>
      <trkpt lat="47.81377" lon="3.78891">
        <ele>147.7</ele>
        <time>2021-08-11T07:15:31Z</time>
      </trkpt>
      <trkpt lat="47.81377" lon="3.7889">
        <ele>147.7</ele>
        <time>2021-08-11T07:15:39Z</time>
      </trkpt>
      <trkpt lat="47.81378" lon="3.7889">
        <ele>147.7</ele>
        <time>2021-08-11T07:15:48Z</time>
      </trkpt>
      <trkpt lat="47.81382" lon="3.78891">
        <ele>147.7</ele>
        <time>2021-08-11T07:15:53Z</time>
      </trkpt>
      <trkpt lat="47.81387" lon="3.78888">
        <ele>147.7</ele>
        <time>2021-08-11T07:15:57Z</time>
      </trkpt>
      <trkpt lat="47.81387" lon="3.78885">
        <ele>147.7</ele>
        <time>2021-08-11T07:15:58Z</time>
      </trkpt>
      <trkpt lat="47.81387" lon="3.78881">
        <ele>147.7</ele>
        <time>2021-08-11T07:15:59Z</time>
      </trkpt>
      <trkpt lat="47.81386" lon="3.78877">
        <ele>147.7</ele>
        <time>2021-08-11T07:16:00Z</time>
      </trkpt>
      <trkpt lat="47.81386" lon="3.78872">
        <ele>147.7</ele>
        <time>2021-08-11T07:16:01Z</time>
      </trkpt>
      <trkpt lat="47.81385" lon="3.78867">
        <ele>147.7</ele>
        <time>2021-08-11T07:16:02Z</time>
      </trkpt>
      <trkpt lat="47.81384" lon="3.78862">
        <ele>147.7</ele>
        <time>2021-08-11T07:16:03Z</time>
      </trkpt>
      <trkpt lat="47.81374" lon="3.78806">
        <ele>147.7</ele>
        <time>2021-08-11T07:16:13Z</time>
      </trkpt>
      <trkpt lat="47.8137" lon="3.78769">
        <ele>147.7</ele>
        <time>2021-08-11T07:16:20Z</time>
      </trkpt>
      <trkpt lat="47.81365" lon="3.78732">
        <ele>148.18</ele>
        <time>2021-08-11T07:16:27Z</time>
      </trkpt>
      <trkpt lat="47.81363" lon="3.78708">
        <ele>148.18</ele>
        <time>2021-08-11T07:16:31Z</time>
      </trkpt>
      <trkpt lat="47.81361" lon="3.78652">
        <ele>148.18</ele>
        <time>2021-08-11T07:16:39Z</time>
      </trkpt>
      <trkpt lat="47.81363" lon="3.7861">
        <ele>148.18</ele>
        <time>2021-08-11T07:16:45Z</time>
      </trkpt>
      <trkpt lat="47.81362" lon="3.78604">
        <ele>148.18</ele>
        <time>2021-08-11T07:16:46Z</time>
      </trkpt>
      <trkpt lat="47.81362" lon="3.78597">
        <ele>148.18</ele>
        <time>2021-08-11T07:16:47Z</time>
      </trkpt>
      <trkpt lat="47.81361" lon="3.78577">
        <ele>148.18</ele>
        <time>2021-08-11T07:16:50Z</time>
      </trkpt>
      <trkpt lat="47.81361" lon="3.78557">
        <ele>148.18</ele>
        <time>2021-08-11T07:16:53Z</time>
      </trkpt>
      <trkpt lat="47.81362" lon="3.78551">
        <ele>148.18</ele>
        <time>2021-08-11T07:16:54Z</time>
      </trkpt>
      <trkpt lat="47.81363" lon="3.78545">
        <ele>148.18</ele>
        <time>2021-08-11T07:16:55Z</time>
      </trkpt>
      <trkpt lat="47.81363" lon="3.78539">
        <ele>148.18</ele>
        <time>2021-08-11T07:16:56Z</time>
      </trkpt>
      <trkpt lat="47.81363" lon="3.78533">
        <ele>148.18</ele>
        <time>2021-08-11T07:16:57Z</time>
      </trkpt>
      <trkpt lat="47.81361" lon="3.78469">
        <ele>148.66</ele>
        <time>2021-08-11T07:17:07Z</time>
      </trkpt>
      <trkpt lat="47.81355" lon="3.78409">
        <ele>149.62</ele>
        <time>2021-08-11T07:17:17Z</time>
      </trkpt>
      <trkpt lat="47.81353" lon="3.78392">
        <ele>149.62</ele>
        <time>2021-08-11T07:17:20Z</time>
      </trkpt>
      <trkpt lat="47.81347" lon="3.78339">
        <ele>149.14</ele>
        <time>2021-08-11T07:17:29Z</time>
      </trkpt>
      <trkpt lat="47.8134" lon="3.78273">
        <ele>149.62</ele>
        <time>2021-08-11T07:17:40Z</time>
      </trkpt>
      <trkpt lat="47.81335" lon="3.78214">
        <ele>150.1</ele>
        <time>2021-08-11T07:17:50Z</time>
      </trkpt>
      <trkpt lat="47.81332" lon="3.78156">
        <ele>150.58</ele>
        <time>2021-08-11T07:18:00Z</time>
      </trkpt>
      <trkpt lat="47.81333" lon="3.78106">
        <ele>151.06</ele>
        <time>2021-08-11T07:18:09Z</time>
      </trkpt>
      <trkpt lat="47.81332" lon="3.78054">
        <ele>151.54</ele>
        <time>2021-08-11T07:18:19Z</time>
      </trkpt>
      <trkpt lat="47.8133" lon="3.78011">
        <ele>152.51</ele>
        <time>2021-08-11T07:18:27Z</time>
      </trkpt>
      <trkpt lat="47.81328" lon="3.77963">
        <ele>153.47</ele>
        <time>2021-08-11T07:18:37Z</time>
      </trkpt>
      <trkpt lat="47.81332" lon="3.77935">
        <ele>153.95</ele>
        <time>2021-08-11T07:18:43Z</time>
      </trkpt>
      <trkpt lat="47.8133" lon="3.77902">
        <ele>154.91</ele>
        <time>2021-08-11T07:18:51Z</time>
      </trkpt>
      <trkpt lat="47.81326" lon="3.77864">
        <ele>155.39</ele>
        <time>2021-08-11T07:19:00Z</time>
      </trkpt>
      <trkpt lat="47.81321" lon="3.77829">
        <ele>156.83</ele>
        <time>2021-08-11T07:19:11Z</time>
      </trkpt>
      <trkpt lat="47.81315" lon="3.77799">
        <ele>157.79</ele>
        <time>2021-08-11T07:19:20Z</time>
      </trkpt>
      <trkpt lat="47.81314" lon="3.77768">
        <ele>158.75</ele>
        <time>2021-08-11T07:19:29Z</time>
      </trkpt>
      <trkpt lat="47.81327" lon="3.77749">
        <ele>158.75</ele>
        <time>2021-08-11T07:19:35Z</time>
      </trkpt>
      <trkpt lat="47.81348" lon="3.77722">
        <ele>158.75</ele>
        <time>2021-08-11T07:19:43Z</time>
      </trkpt>
      <trkpt lat="47.81366" lon="3.77698">
        <ele>158.75</ele>
        <time>2021-08-11T07:19:50Z</time>
      </trkpt>
      <trkpt lat="47.81382" lon="3.77674">
        <ele>160.2</ele>
        <time>2021-08-11T07:19:58Z</time>
      </trkpt>
      <trkpt lat="47.81397" lon="3.77652">
        <ele>161.16</ele>
        <time>2021-08-11T07:20:06Z</time>
      </trkpt>
      <trkpt lat="47.81411" lon="3.77621">
        <ele>162.6</ele>
        <time>2021-08-11T07:20:16Z</time>
      </trkpt>
      <trkpt lat="47.81426" lon="3.77591">
        <ele>163.08</ele>
        <time>2021-08-11T07:20:25Z</time>
      </trkpt>
      <trkpt lat="47.81437" lon="3.77568">
        <ele>164.04</ele>
        <time>2021-08-11T07:20:32Z</time>
      </trkpt>
      <trkpt lat="47.8145" lon="3.7754">
        <ele>164.04</ele>
        <time>2021-08-11T07:20:40Z</time>
      </trkpt>
      <trkpt lat="47.81443" lon="3.77518">
        <ele>165</ele>
        <time>2021-08-11T07:20:46Z</time>
      </trkpt>
      <trkpt lat="47.81427" lon="3.77498">
        <ele>165.96</ele>
        <time>2021-08-11T07:20:54Z</time>
      </trkpt>
      <trkpt lat="47.81412" lon="3.77478">
        <ele>166.93</ele>
        <time>2021-08-11T07:21:02Z</time>
      </trkpt>
      <trkpt lat="47.81394" lon="3.77456">
        <ele>167.89</ele>
        <time>2021-08-11T07:21:11Z</time>
      </trkpt>
      <trkpt lat="47.81377" lon="3.77436">
        <ele>169.33</ele>
        <time>2021-08-11T07:21:20Z</time>
      </trkpt>
      <trkpt lat="47.81361" lon="3.77416">
        <ele>170.29</ele>
        <time>2021-08-11T07:21:28Z</time>
      </trkpt>
      <trkpt lat="47.81356" lon="3.77415">
        <ele>170.29</ele>
        <time>2021-08-11T07:21:30Z</time>
      </trkpt>
      <trkpt lat="47.81353" lon="3.77416">
        <ele>170.29</ele>
        <time>2021-08-11T07:21:31Z</time>
      </trkpt>
      <trkpt lat="47.81351" lon="3.77418">
        <ele>170.29</ele>
        <time>2021-08-11T07:21:32Z</time>
      </trkpt>
      <trkpt lat="47.81349" lon="3.77421">
        <ele>170.29</ele>
        <time>2021-08-11T07:21:33Z</time>
      </trkpt>
      <trkpt lat="47.81346" lon="3.77424">
        <ele>170.29</ele>
        <time>2021-08-11T07:21:34Z</time>
      </trkpt>
      <trkpt lat="47.81324" lon="3.77456">
        <ele>169.81</ele>
        <time>2021-08-11T07:21:43Z</time>
      </trkpt>
      <trkpt lat="47.81293" lon="3.77497">
        <ele>170.29</ele>
        <time>2021-08-11T07:21:54Z</time>
      </trkpt>
      <trkpt lat="47.81264" lon="3.77522">
        <ele>170.77</ele>
        <time>2021-08-11T07:22:03Z</time>
      </trkpt>
      <trkpt lat="47.81242" lon="3.77527">
        <ele>172.21</ele>
        <time>2021-08-11T07:22:10Z</time>
      </trkpt>
      <trkpt lat="47.81228" lon="3.77519">
        <ele>173.17</ele>
        <time>2021-08-11T07:22:17Z</time>
      </trkpt>
      <trkpt lat="47.81211" lon="3.77503">
        <ele>174.62</ele>
        <time>2021-08-11T07:22:27Z</time>
      </trkpt>
      <trkpt lat="47.81195" lon="3.77485">
        <ele>176.54</ele>
        <time>2021-08-11T07:22:38Z</time>
      </trkpt>
      <trkpt lat="47.8118" lon="3.77467">
        <ele>177.5</ele>
        <time>2021-08-11T07:22:48Z</time>
      </trkpt>
      <trkpt lat="47.81165" lon="3.7745">
        <ele>179.9</ele>
        <time>2021-08-11T07:22:58Z</time>
      </trkpt>
      <trkpt lat="47.81154" lon="3.77436">
        <ele>180.87</ele>
        <time>2021-08-11T07:23:06Z</time>
      </trkpt>
      <trkpt lat="47.81144" lon="3.77423">
        <ele>181.83</ele>
        <time>2021-08-11T07:23:13Z</time>
      </trkpt>
      <trkpt lat="47.81135" lon="3.77411">
        <ele>182.79</ele>
        <time>2021-08-11T07:23:20Z</time>
      </trkpt>
      <trkpt lat="47.81124" lon="3.77394">
        <ele>184.23</ele>
        <time>2021-08-11T07:23:29Z</time>
      </trkpt>
      <trkpt lat="47.81113" lon="3.77377">
        <ele>185.19</ele>
        <time>2021-08-11T07:23:38Z</time>
      </trkpt>
      <trkpt lat="47.81103" lon="3.77362">
        <ele>186.63</ele>
        <time>2021-08-11T07:23:46Z</time>
      </trkpt>
      <trkpt lat="47.81092" lon="3.77343">
        <ele>187.59</ele>
        <time>2021-08-11T07:23:55Z</time>
      </trkpt>
      <trkpt lat="47.8108" lon="3.77323">
        <ele>189.04</ele>
        <time>2021-08-11T07:24:04Z</time>
      </trkpt>
      <trkpt lat="47.81066" lon="3.77297">
        <ele>190</ele>
        <time>2021-08-11T07:24:15Z</time>
      </trkpt>
      <trkpt lat="47.81054" lon="3.77275">
        <ele>191.44</ele>
        <time>2021-08-11T07:24:25Z</time>
      </trkpt>
      <trkpt lat="47.81043" lon="3.77252">
        <ele>192.88</ele>
        <time>2021-08-11T07:24:35Z</time>
      </trkpt>
      <trkpt lat="47.81034" lon="3.7724">
        <ele>193.36</ele>
        <time>2021-08-11T07:24:42Z</time>
      </trkpt>
      <trkpt lat="47.81025" lon="3.77248">
        <ele>194.8</ele>
        <time>2021-08-11T07:24:49Z</time>
      </trkpt>
      <trkpt lat="47.81018" lon="3.77263">
        <ele>195.77</ele>
        <time>2021-08-11T07:24:56Z</time>
      </trkpt>
      <trkpt lat="47.81007" lon="3.77274">
        <ele>197.21</ele>
        <time>2021-08-11T07:25:05Z</time>
      </trkpt>
      <trkpt lat="47.81006" lon="3.77274">
        <ele>197.21</ele>
        <time>2021-08-11T07:25:06Z</time>
      </trkpt>
      <trkpt lat="47.81005" lon="3.77273">
        <ele>197.21</ele>
        <time>2021-08-11T07:25:07Z</time>
      </trkpt>
      <trkpt lat="47.81004" lon="3.77272">
        <ele>197.21</ele>
        <time>2021-08-11T07:25:08Z</time>
      </trkpt>
      <trkpt lat="47.81003" lon="3.77272">
        <ele>197.21</ele>
        <time>2021-08-11T07:25:09Z</time>
      </trkpt>
      <trkpt lat="47.81002" lon="3.77271">
        <ele>198.17</ele>
        <time>2021-08-11T07:25:10Z</time>
      </trkpt>
      <trkpt lat="47.81001" lon="3.77269">
        <ele>198.17</ele>
        <time>2021-08-11T07:25:11Z</time>
      </trkpt>
      <trkpt lat="47.81" lon="3.77268">
        <ele>198.17</ele>
        <time>2021-08-11T07:25:12Z</time>
      </trkpt>
      <trkpt lat="47.80999" lon="3.77267">
        <ele>198.17</ele>
        <time>2021-08-11T07:25:13Z</time>
      </trkpt>
      <trkpt lat="47.80998" lon="3.77266">
        <ele>198.17</ele>
        <time>2021-08-11T07:25:14Z</time>
      </trkpt>
      <trkpt lat="47.80997" lon="3.77265">
        <ele>198.17</ele>
        <time>2021-08-11T07:25:15Z</time>
      </trkpt>
      <trkpt lat="47.80995" lon="3.77264">
        <ele>198.65</ele>
        <time>2021-08-11T07:25:16Z</time>
      </trkpt>
      <trkpt lat="47.80994" lon="3.77263">
        <ele>198.65</ele>
        <time>2021-08-11T07:25:17Z</time>
      </trkpt>
      <trkpt lat="47.80993" lon="3.77262">
        <ele>198.65</ele>
        <time>2021-08-11T07:25:18Z</time>
      </trkpt>
      <trkpt lat="47.80991" lon="3.77261">
        <ele>198.65</ele>
        <time>2021-08-11T07:25:19Z</time>
      </trkpt>
      <trkpt lat="47.80982" lon="3.77256">
        <ele>200.09</ele>
        <time>2021-08-11T07:25:27Z</time>
      </trkpt>
      <trkpt lat="47.80971" lon="3.77248">
        <ele>202.01</ele>
        <time>2021-08-11T07:25:36Z</time>
      </trkpt>
      <trkpt lat="47.80965" lon="3.77246">
        <ele>202.49</ele>
        <time>2021-08-11T07:25:41Z</time>
      </trkpt>
      <trkpt lat="47.80963" lon="3.77244">
        <ele>202.98</ele>
        <time>2021-08-11T07:25:43Z</time>
      </trkpt>
      <trkpt lat="47.80962" lon="3.77243">
        <ele>202.98</ele>
        <time>2021-08-11T07:25:44Z</time>
      </trkpt>
      <trkpt lat="47.80951" lon="3.77236">
        <ele>204.9</ele>
        <time>2021-08-11T07:25:54Z</time>
      </trkpt>
      <trkpt lat="47.80938" lon="3.77229">
        <ele>206.82</ele>
        <time>2021-08-11T07:26:05Z</time>
      </trkpt>
      <trkpt lat="47.80935" lon="3.77228">
        <ele>206.82</ele>
        <time>2021-08-11T07:26:07Z</time>
      </trkpt>
      <trkpt lat="47.80934" lon="3.77228">
        <ele>207.78</ele>
        <time>2021-08-11T07:26:08Z</time>
      </trkpt>
      <trkpt lat="47.80933" lon="3.77227">
        <ele>207.78</ele>
        <time>2021-08-11T07:26:09Z</time>
      </trkpt>
      <trkpt lat="47.80932" lon="3.77227">
        <ele>207.78</ele>
        <time>2021-08-11T07:26:10Z</time>
      </trkpt>
      <trkpt lat="47.8093" lon="3.77226">
        <ele>208.26</ele>
        <time>2021-08-11T07:26:11Z</time>
      </trkpt>
      <trkpt lat="47.80929" lon="3.77226">
        <ele>208.26</ele>
        <time>2021-08-11T07:26:12Z</time>
      </trkpt>
      <trkpt lat="47.80928" lon="3.77225">
        <ele>208.26</ele>
        <time>2021-08-11T07:26:13Z</time>
      </trkpt>
      <trkpt lat="47.80927" lon="3.77225">
        <ele>208.74</ele>
        <time>2021-08-11T07:26:14Z</time>
      </trkpt>
      <trkpt lat="47.80916" lon="3.77221">
        <ele>210.19</ele>
        <time>2021-08-11T07:26:24Z</time>
      </trkpt>
      <trkpt lat="47.80915" lon="3.77221">
        <ele>210.19</ele>
        <time>2021-08-11T07:26:25Z</time>
      </trkpt>
      <trkpt lat="47.80913" lon="3.77221">
        <ele>210.19</ele>
        <time>2021-08-11T07:26:26Z</time>
      </trkpt>
      <trkpt lat="47.80898" lon="3.77217">
        <ele>213.07</ele>
        <time>2021-08-11T07:26:39Z</time>
      </trkpt>
      <trkpt lat="47.80897" lon="3.77216">
        <ele>213.07</ele>
        <time>2021-08-11T07:26:40Z</time>
      </trkpt>
      <trkpt lat="47.80896" lon="3.77216">
        <ele>214.03</ele>
        <time>2021-08-11T07:26:41Z</time>
      </trkpt>
      <trkpt lat="47.80895" lon="3.77216">
        <ele>214.03</ele>
        <time>2021-08-11T07:26:42Z</time>
      </trkpt>
      <trkpt lat="47.80894" lon="3.77216">
        <ele>214.03</ele>
        <time>2021-08-11T07:26:43Z</time>
      </trkpt>
      <trkpt lat="47.80893" lon="3.77216">
        <ele>214.03</ele>
        <time>2021-08-11T07:26:44Z</time>
      </trkpt>
      <trkpt lat="47.80892" lon="3.77215">
        <ele>213.55</ele>
        <time>2021-08-11T07:26:45Z</time>
      </trkpt>
      <trkpt lat="47.80891" lon="3.77215">
        <ele>214.51</ele>
        <time>2021-08-11T07:26:46Z</time>
      </trkpt>
      <trkpt lat="47.80889" lon="3.77215">
        <ele>214.99</ele>
        <time>2021-08-11T07:26:47Z</time>
      </trkpt>
      <trkpt lat="47.80888" lon="3.77215">
        <ele>214.99</ele>
        <time>2021-08-11T07:26:48Z</time>
      </trkpt>
      <trkpt lat="47.80877" lon="3.77214">
        <ele>216.91</ele>
        <time>2021-08-11T07:26:58Z</time>
      </trkpt>
      <trkpt lat="47.80866" lon="3.77217">
        <ele>218.36</ele>
        <time>2021-08-11T07:27:07Z</time>
      </trkpt>
      <trkpt lat="47.80865" lon="3.77217">
        <ele>218.36</ele>
        <time>2021-08-11T07:27:08Z</time>
      </trkpt>
      <trkpt lat="47.80864" lon="3.77218">
        <ele>218.36</ele>
        <time>2021-08-11T07:27:09Z</time>
      </trkpt>
      <trkpt lat="47.80863" lon="3.77217">
        <ele>218.84</ele>
        <time>2021-08-11T07:27:10Z</time>
      </trkpt>
      <trkpt lat="47.80862" lon="3.77217">
        <ele>218.84</ele>
        <time>2021-08-11T07:27:11Z</time>
      </trkpt>
      <trkpt lat="47.80861" lon="3.77218">
        <ele>218.84</ele>
        <time>2021-08-11T07:27:12Z</time>
      </trkpt>
      <trkpt lat="47.8086" lon="3.77218">
        <ele>218.84</ele>
        <time>2021-08-11T07:27:13Z</time>
      </trkpt>
      <trkpt lat="47.80849" lon="3.77217">
        <ele>220.76</ele>
        <time>2021-08-11T07:27:22Z</time>
      </trkpt>
      <trkpt lat="47.80848" lon="3.77216">
        <ele>221.24</ele>
        <time>2021-08-11T07:27:23Z</time>
      </trkpt>
      <trkpt lat="47.80847" lon="3.77216">
        <ele>221.24</ele>
        <time>2021-08-11T07:27:24Z</time>
      </trkpt>
      <trkpt lat="47.80846" lon="3.77217">
        <ele>221.24</ele>
        <time>2021-08-11T07:27:25Z</time>
      </trkpt>
      <trkpt lat="47.80831" lon="3.77216">
        <ele>223.64</ele>
        <time>2021-08-11T07:27:37Z</time>
      </trkpt>
      <trkpt lat="47.8083" lon="3.77216">
        <ele>223.64</ele>
        <time>2021-08-11T07:27:38Z</time>
      </trkpt>
      <trkpt lat="47.80829" lon="3.77215">
        <ele>223.64</ele>
        <time>2021-08-11T07:27:39Z</time>
      </trkpt>
      <trkpt lat="47.80827" lon="3.77215">
        <ele>224.12</ele>
        <time>2021-08-11T07:27:40Z</time>
      </trkpt>
      <trkpt lat="47.80826" lon="3.77215">
        <ele>224.12</ele>
        <time>2021-08-11T07:27:41Z</time>
      </trkpt>
      <trkpt lat="47.80825" lon="3.77215">
        <ele>224.12</ele>
        <time>2021-08-11T07:27:42Z</time>
      </trkpt>
      <trkpt lat="47.80813" lon="3.77213">
        <ele>226.53</ele>
        <time>2021-08-11T07:27:52Z</time>
      </trkpt>
      <trkpt lat="47.80807" lon="3.77211">
        <ele>227.01</ele>
        <time>2021-08-11T07:27:57Z</time>
      </trkpt>
      <trkpt lat="47.80806" lon="3.77211">
        <ele>227.49</ele>
        <time>2021-08-11T07:27:58Z</time>
      </trkpt>
      <trkpt lat="47.80792" lon="3.77208">
        <ele>229.41</ele>
        <time>2021-08-11T07:28:09Z</time>
      </trkpt>
      <trkpt lat="47.80786" lon="3.77204">
        <ele>230.85</ele>
        <time>2021-08-11T07:28:15Z</time>
      </trkpt>
      <trkpt lat="47.80785" lon="3.77204">
        <ele>230.85</ele>
        <time>2021-08-11T07:28:16Z</time>
      </trkpt>
      <trkpt lat="47.80784" lon="3.77203">
        <ele>231.33</ele>
        <time>2021-08-11T07:28:17Z</time>
      </trkpt>
      <trkpt lat="47.80783" lon="3.77202">
        <ele>231.33</ele>
        <time>2021-08-11T07:28:18Z</time>
      </trkpt>
      <trkpt lat="47.80782" lon="3.77202">
        <ele>231.33</ele>
        <time>2021-08-11T07:28:19Z</time>
      </trkpt>
      <trkpt lat="47.80769" lon="3.77194">
        <ele>233.74</ele>
        <time>2021-08-11T07:28:30Z</time>
      </trkpt>
      <trkpt lat="47.80756" lon="3.77186">
        <ele>235.66</ele>
        <time>2021-08-11T07:28:42Z</time>
      </trkpt>
      <trkpt lat="47.80746" lon="3.77179">
        <ele>237.1</ele>
        <time>2021-08-11T07:28:51Z</time>
      </trkpt>
      <trkpt lat="47.80737" lon="3.77171">
        <ele>238.06</ele>
        <time>2021-08-11T07:28:59Z</time>
      </trkpt>
      <trkpt lat="47.80726" lon="3.77164">
        <ele>239.99</ele>
        <time>2021-08-11T07:29:08Z</time>
      </trkpt>
      <trkpt lat="47.80714" lon="3.77157">
        <ele>241.43</ele>
        <time>2021-08-11T07:29:17Z</time>
      </trkpt>
      <trkpt lat="47.80708" lon="3.77152">
        <ele>241.91</ele>
        <time>2021-08-11T07:29:22Z</time>
      </trkpt>
      <trkpt lat="47.80708" lon="3.77151">
        <ele>241.91</ele>
        <time>2021-08-11T07:29:23Z</time>
      </trkpt>
      <trkpt lat="47.80708" lon="3.77149">
        <ele>241.91</ele>
        <time>2021-08-11T07:29:24Z</time>
      </trkpt>
      <trkpt lat="47.80712" lon="3.77121">
        <ele>241.43</ele>
        <time>2021-08-11T07:29:32Z</time>
      </trkpt>
      <trkpt lat="47.80711" lon="3.77116">
        <ele>241.43</ele>
        <time>2021-08-11T07:29:33Z</time>
      </trkpt>
      <trkpt lat="47.80709" lon="3.77092">
        <ele>241.43</ele>
        <time>2021-08-11T07:29:39Z</time>
      </trkpt>
      <trkpt lat="47.80703" lon="3.77071">
        <ele>241.43</ele>
        <time>2021-08-11T07:29:46Z</time>
      </trkpt>
      <trkpt lat="47.80696" lon="3.77048">
        <ele>242.87</ele>
        <time>2021-08-11T07:29:53Z</time>
      </trkpt>
      <trkpt lat="47.80685" lon="3.77011">
        <ele>243.35</ele>
        <time>2021-08-11T07:30:03Z</time>
      </trkpt>
      <trkpt lat="47.80675" lon="3.76971">
        <ele>243.83</ele>
        <time>2021-08-11T07:30:12Z</time>
      </trkpt>
      <trkpt lat="47.80675" lon="3.76942">
        <ele>243.83</ele>
        <time>2021-08-11T07:30:18Z</time>
      </trkpt>
      <trkpt lat="47.80678" lon="3.76914">
        <ele>242.39</ele>
        <time>2021-08-11T07:30:22Z</time>
      </trkpt>
      <trkpt lat="47.80677" lon="3.769">
        <ele>242.39</ele>
        <time>2021-08-11T07:30:24Z</time>
      </trkpt>
      <trkpt lat="47.80674" lon="3.76887">
        <ele>242.39</ele>
        <time>2021-08-11T07:30:26Z</time>
      </trkpt>
      <trkpt lat="47.80672" lon="3.76881">
        <ele>242.39</ele>
        <time>2021-08-11T07:30:27Z</time>
      </trkpt>
      <trkpt lat="47.8067" lon="3.76875">
        <ele>242.39</ele>
        <time>2021-08-11T07:30:28Z</time>
      </trkpt>
      <trkpt lat="47.80667" lon="3.76871">
        <ele>242.39</ele>
        <time>2021-08-11T07:30:29Z</time>
      </trkpt>
      <trkpt lat="47.80664" lon="3.76868">
        <ele>242.39</ele>
        <time>2021-08-11T07:30:30Z</time>
      </trkpt>
      <trkpt lat="47.80659" lon="3.76861">
        <ele>243.35</ele>
        <time>2021-08-11T07:30:33Z</time>
      </trkpt>
      <trkpt lat="47.80646" lon="3.7684">
        <ele>244.79</ele>
        <time>2021-08-11T07:30:40Z</time>
      </trkpt>
      <trkpt lat="47.80631" lon="3.76821">
        <ele>245.75</ele>
        <time>2021-08-11T07:30:47Z</time>
      </trkpt>
      <trkpt lat="47.80614" lon="3.76798">
        <ele>246.72</ele>
        <time>2021-08-11T07:30:55Z</time>
      </trkpt>
      <trkpt lat="47.80605" lon="3.76787">
        <ele>247.2</ele>
        <time>2021-08-11T07:31:00Z</time>
      </trkpt>
      <trkpt lat="47.80601" lon="3.76781">
        <ele>247.68</ele>
        <time>2021-08-11T07:31:06Z</time>
      </trkpt>
      <trkpt lat="47.806" lon="3.76778">
        <ele>247.68</ele>
        <time>2021-08-11T07:31:15Z</time>
      </trkpt>
      <trkpt lat="47.80599" lon="3.76775">
        <ele>247.68</ele>
        <time>2021-08-11T07:31:31Z</time>
      </trkpt>
      <trkpt lat="47.806" lon="3.76776">
        <ele>247.68</ele>
        <time>2021-08-11T07:31:48Z</time>
      </trkpt>
      <trkpt lat="47.80593" lon="3.76778">
        <ele>247.68</ele>
        <time>2021-08-11T07:32:04Z</time>
      </trkpt>
      <trkpt lat="47.80591" lon="3.76773">
        <ele>247.68</ele>
        <time>2021-08-11T07:32:13Z</time>
      </trkpt>
      <trkpt lat="47.80579" lon="3.76753">
        <ele>248.16</ele>
        <time>2021-08-11T07:32:20Z</time>
      </trkpt>
      <trkpt lat="47.80564" lon="3.76731">
        <ele>249.12</ele>
        <time>2021-08-11T07:32:27Z</time>
      </trkpt>
      <trkpt lat="47.80548" lon="3.7671">
        <ele>249.6</ele>
        <time>2021-08-11T07:32:33Z</time>
      </trkpt>
      <trkpt lat="47.80532" lon="3.76694">
        <ele>250.08</ele>
        <time>2021-08-11T07:32:39Z</time>
      </trkpt>
      <trkpt lat="47.80517" lon="3.76671">
        <ele>250.56</ele>
        <time>2021-08-11T07:32:46Z</time>
      </trkpt>
      <trkpt lat="47.80497" lon="3.76642">
        <ele>251.52</ele>
        <time>2021-08-11T07:32:54Z</time>
      </trkpt>
      <trkpt lat="47.80481" lon="3.76616">
        <ele>252</ele>
        <time>2021-08-11T07:33:01Z</time>
      </trkpt>
      <trkpt lat="47.80467" lon="3.76594">
        <ele>252</ele>
        <time>2021-08-11T07:33:08Z</time>
      </trkpt>
      <trkpt lat="47.8045" lon="3.76569">
        <ele>253.44</ele>
        <time>2021-08-11T07:33:15Z</time>
      </trkpt>
      <trkpt lat="47.80432" lon="3.76545">
        <ele>253.44</ele>
        <time>2021-08-11T07:33:22Z</time>
      </trkpt>
      <trkpt lat="47.80409" lon="3.76515">
        <ele>253.93</ele>
        <time>2021-08-11T07:33:30Z</time>
      </trkpt>
      <trkpt lat="47.80388" lon="3.76487">
        <ele>254.41</ele>
        <time>2021-08-11T07:33:37Z</time>
      </trkpt>
      <trkpt lat="47.80368" lon="3.76458">
        <ele>255.37</ele>
        <time>2021-08-11T07:33:44Z</time>
      </trkpt>
      <trkpt lat="47.80341" lon="3.76418">
        <ele>256.33</ele>
        <time>2021-08-11T07:33:54Z</time>
      </trkpt>
      <trkpt lat="47.80322" lon="3.76393">
        <ele>256.81</ele>
        <time>2021-08-11T07:34:01Z</time>
      </trkpt>
      <trkpt lat="47.80304" lon="3.76367">
        <ele>257.77</ele>
        <time>2021-08-11T07:34:09Z</time>
      </trkpt>
      <trkpt lat="47.80286" lon="3.7634">
        <ele>258.73</ele>
        <time>2021-08-11T07:34:17Z</time>
      </trkpt>
      <trkpt lat="47.80265" lon="3.76318">
        <ele>259.69</ele>
        <time>2021-08-11T07:34:24Z</time>
      </trkpt>
      <trkpt lat="47.8025" lon="3.76295">
        <ele>260.65</ele>
        <time>2021-08-11T07:34:31Z</time>
      </trkpt>
      <trkpt lat="47.80237" lon="3.76275">
        <ele>261.62</ele>
        <time>2021-08-11T07:34:38Z</time>
      </trkpt>
      <trkpt lat="47.80239" lon="3.76255">
        <ele>261.62</ele>
        <time>2021-08-11T07:34:44Z</time>
      </trkpt>
      <trkpt lat="47.8024" lon="3.76241">
        <ele>260.17</ele>
        <time>2021-08-11T07:34:47Z</time>
      </trkpt>
      <trkpt lat="47.80238" lon="3.76237">
        <ele>260.17</ele>
        <time>2021-08-11T07:34:48Z</time>
      </trkpt>
      <trkpt lat="47.80236" lon="3.76234">
        <ele>260.17</ele>
        <time>2021-08-11T07:34:49Z</time>
      </trkpt>
      <trkpt lat="47.80234" lon="3.76231">
        <ele>260.17</ele>
        <time>2021-08-11T07:34:50Z</time>
      </trkpt>
      <trkpt lat="47.80217" lon="3.76209">
        <ele>262.1</ele>
        <time>2021-08-11T07:34:57Z</time>
      </trkpt>
      <trkpt lat="47.80202" lon="3.76192">
        <ele>263.06</ele>
        <time>2021-08-11T07:35:03Z</time>
      </trkpt>
      <trkpt lat="47.80179" lon="3.76168">
        <ele>264.5</ele>
        <time>2021-08-11T07:35:12Z</time>
      </trkpt>
      <trkpt lat="47.80161" lon="3.76146">
        <ele>265.46</ele>
        <time>2021-08-11T07:35:20Z</time>
      </trkpt>
      <trkpt lat="47.80146" lon="3.76128">
        <ele>266.9</ele>
        <time>2021-08-11T07:35:28Z</time>
      </trkpt>
      <trkpt lat="47.80125" lon="3.76106">
        <ele>268.83</ele>
        <time>2021-08-11T07:35:37Z</time>
      </trkpt>
      <trkpt lat="47.80109" lon="3.7609">
        <ele>269.31</ele>
        <time>2021-08-11T07:35:44Z</time>
      </trkpt>
      <trkpt lat="47.80094" lon="3.76073">
        <ele>270.75</ele>
        <time>2021-08-11T07:35:51Z</time>
      </trkpt>
      <trkpt lat="47.80076" lon="3.76054">
        <ele>271.23</ele>
        <time>2021-08-11T07:35:58Z</time>
      </trkpt>
      <trkpt lat="47.80061" lon="3.76038">
        <ele>272.67</ele>
        <time>2021-08-11T07:36:05Z</time>
      </trkpt>
      <trkpt lat="47.80044" lon="3.76023">
        <ele>274.11</ele>
        <time>2021-08-11T07:36:12Z</time>
      </trkpt>
      <trkpt lat="47.80032" lon="3.76008">
        <ele>275.07</ele>
        <time>2021-08-11T07:36:18Z</time>
      </trkpt>
      <trkpt lat="47.80016" lon="3.75991">
        <ele>277</ele>
        <time>2021-08-11T07:36:25Z</time>
      </trkpt>
      <trkpt lat="47.79999" lon="3.75974">
        <ele>277.96</ele>
        <time>2021-08-11T07:36:32Z</time>
      </trkpt>
      <trkpt lat="47.79978" lon="3.75952">
        <ele>278.92</ele>
        <time>2021-08-11T07:36:40Z</time>
      </trkpt>
      <trkpt lat="47.79958" lon="3.75928">
        <ele>280.36</ele>
        <time>2021-08-11T07:36:48Z</time>
      </trkpt>
      <trkpt lat="47.79944" lon="3.75903">
        <ele>281.32</ele>
        <time>2021-08-11T07:36:56Z</time>
      </trkpt>
      <trkpt lat="47.79929" lon="3.75882">
        <ele>281.8</ele>
        <time>2021-08-11T07:37:03Z</time>
      </trkpt>
      <trkpt lat="47.79911" lon="3.75855">
        <ele>282.77</ele>
        <time>2021-08-11T07:37:11Z</time>
      </trkpt>
      <trkpt lat="47.79892" lon="3.75828">
        <ele>283.73</ele>
        <time>2021-08-11T07:37:19Z</time>
      </trkpt>
      <trkpt lat="47.79871" lon="3.758">
        <ele>284.69</ele>
        <time>2021-08-11T07:37:28Z</time>
      </trkpt>
      <trkpt lat="47.79848" lon="3.75775">
        <ele>286.13</ele>
        <time>2021-08-11T07:37:36Z</time>
      </trkpt>
      <trkpt lat="47.79839" lon="3.75764">
        <ele>286.13</ele>
        <time>2021-08-11T07:37:39Z</time>
      </trkpt>
      <trkpt lat="47.79835" lon="3.75761">
        <ele>286.13</ele>
        <time>2021-08-11T07:37:40Z</time>
      </trkpt>
      <trkpt lat="47.79832" lon="3.75757">
        <ele>286.61</ele>
        <time>2021-08-11T07:37:41Z</time>
      </trkpt>
      <trkpt lat="47.79825" lon="3.7575">
        <ele>286.61</ele>
        <time>2021-08-11T07:37:43Z</time>
      </trkpt>
      <trkpt lat="47.79789" lon="3.75708">
        <ele>287.57</ele>
        <time>2021-08-11T07:37:53Z</time>
      </trkpt>
      <trkpt lat="47.79783" lon="3.757">
        <ele>287.57</ele>
        <time>2021-08-11T07:37:55Z</time>
      </trkpt>
      <trkpt lat="47.79779" lon="3.75695">
        <ele>287.57</ele>
        <time>2021-08-11T07:37:56Z</time>
      </trkpt>
      <trkpt lat="47.79776" lon="3.75691">
        <ele>288.05</ele>
        <time>2021-08-11T07:37:57Z</time>
      </trkpt>
      <trkpt lat="47.79767" lon="3.75677">
        <ele>288.53</ele>
        <time>2021-08-11T07:38:00Z</time>
      </trkpt>
      <trkpt lat="47.79764" lon="3.75674">
        <ele>288.53</ele>
        <time>2021-08-11T07:38:01Z</time>
      </trkpt>
      <trkpt lat="47.7976" lon="3.7567">
        <ele>288.53</ele>
        <time>2021-08-11T07:38:02Z</time>
      </trkpt>
      <trkpt lat="47.79756" lon="3.75667">
        <ele>288.53</ele>
        <time>2021-08-11T07:38:03Z</time>
      </trkpt>
      <trkpt lat="47.79752" lon="3.75664">
        <ele>289.49</ele>
        <time>2021-08-11T07:38:04Z</time>
      </trkpt>
      <trkpt lat="47.79748" lon="3.75661">
        <ele>289.49</ele>
        <time>2021-08-11T07:38:05Z</time>
      </trkpt>
      <trkpt lat="47.79745" lon="3.75657">
        <ele>289.49</ele>
        <time>2021-08-11T07:38:06Z</time>
      </trkpt>
      <trkpt lat="47.79724" lon="3.75635">
        <ele>289.97</ele>
        <time>2021-08-11T07:38:12Z</time>
      </trkpt>
      <trkpt lat="47.79716" lon="3.75628">
        <ele>290.46</ele>
        <time>2021-08-11T07:38:14Z</time>
      </trkpt>
      <trkpt lat="47.79713" lon="3.75624">
        <ele>290.46</ele>
        <time>2021-08-11T07:38:15Z</time>
      </trkpt>
      <trkpt lat="47.79709" lon="3.75621">
        <ele>290.46</ele>
        <time>2021-08-11T07:38:16Z</time>
      </trkpt>
      <trkpt lat="47.79673" lon="3.75603">
        <ele>290.46</ele>
        <time>2021-08-11T07:38:24Z</time>
      </trkpt>
      <trkpt lat="47.7965" lon="3.75592">
        <ele>290.46</ele>
        <time>2021-08-11T07:38:29Z</time>
      </trkpt>
      <trkpt lat="47.79645" lon="3.75588">
        <ele>290.46</ele>
        <time>2021-08-11T07:38:30Z</time>
      </trkpt>
      <trkpt lat="47.79612" lon="3.75556">
        <ele>291.42</ele>
        <time>2021-08-11T07:38:38Z</time>
      </trkpt>
      <trkpt lat="47.79609" lon="3.75551">
        <ele>291.42</ele>
        <time>2021-08-11T07:38:39Z</time>
      </trkpt>
      <trkpt lat="47.79605" lon="3.75546">
        <ele>291.42</ele>
        <time>2021-08-11T07:38:40Z</time>
      </trkpt>
      <trkpt lat="47.79586" lon="3.75522">
        <ele>291.42</ele>
        <time>2021-08-11T07:38:45Z</time>
      </trkpt>
      <trkpt lat="47.79582" lon="3.75518">
        <ele>291.42</ele>
        <time>2021-08-11T07:38:46Z</time>
      </trkpt>
      <trkpt lat="47.79577" lon="3.75513">
        <ele>291.42</ele>
        <time>2021-08-11T07:38:47Z</time>
      </trkpt>
      <trkpt lat="47.79568" lon="3.75504">
        <ele>291.42</ele>
        <time>2021-08-11T07:38:49Z</time>
      </trkpt>
      <trkpt lat="47.79564" lon="3.75498">
        <ele>291.42</ele>
        <time>2021-08-11T07:38:50Z</time>
      </trkpt>
      <trkpt lat="47.79557" lon="3.75486">
        <ele>291.9</ele>
        <time>2021-08-11T07:38:52Z</time>
      </trkpt>
      <trkpt lat="47.79547" lon="3.75468">
        <ele>291.9</ele>
        <time>2021-08-11T07:38:55Z</time>
      </trkpt>
      <trkpt lat="47.79522" lon="3.75424">
        <ele>291.9</ele>
        <time>2021-08-11T07:39:02Z</time>
      </trkpt>
      <trkpt lat="47.79509" lon="3.75409">
        <ele>291.9</ele>
        <time>2021-08-11T07:39:05Z</time>
      </trkpt>
      <trkpt lat="47.79504" lon="3.75405">
        <ele>291.9</ele>
        <time>2021-08-11T07:39:06Z</time>
      </trkpt>
      <trkpt lat="47.79474" lon="3.75383">
        <ele>290.46</ele>
        <time>2021-08-11T07:39:12Z</time>
      </trkpt>
      <trkpt lat="47.79469" lon="3.7538">
        <ele>289.97</ele>
        <time>2021-08-11T07:39:13Z</time>
      </trkpt>
      <trkpt lat="47.79464" lon="3.75378">
        <ele>289.97</ele>
        <time>2021-08-11T07:39:14Z</time>
      </trkpt>
      <trkpt lat="47.7943" lon="3.75361">
        <ele>289.97</ele>
        <time>2021-08-11T07:39:21Z</time>
      </trkpt>
      <trkpt lat="47.79406" lon="3.75349">
        <ele>289.97</ele>
        <time>2021-08-11T07:39:26Z</time>
      </trkpt>
      <trkpt lat="47.79401" lon="3.75346">
        <ele>289.97</ele>
        <time>2021-08-11T07:39:27Z</time>
      </trkpt>
      <trkpt lat="47.79368" lon="3.75317">
        <ele>289.97</ele>
        <time>2021-08-11T07:39:35Z</time>
      </trkpt>
      <trkpt lat="47.79364" lon="3.75313">
        <ele>289.97</ele>
        <time>2021-08-11T07:39:36Z</time>
      </trkpt>
      <trkpt lat="47.7935" lon="3.75296">
        <ele>289.97</ele>
        <time>2021-08-11T07:39:40Z</time>
      </trkpt>
      <trkpt lat="47.79347" lon="3.75291">
        <ele>289.97</ele>
        <time>2021-08-11T07:39:41Z</time>
      </trkpt>
      <trkpt lat="47.79316" lon="3.75261">
        <ele>289.97</ele>
        <time>2021-08-11T07:39:48Z</time>
      </trkpt>
      <trkpt lat="47.79272" lon="3.75227">
        <ele>291.42</ele>
        <time>2021-08-11T07:39:57Z</time>
      </trkpt>
      <trkpt lat="47.7923" lon="3.75193">
        <ele>291.9</ele>
        <time>2021-08-11T07:40:06Z</time>
      </trkpt>
      <trkpt lat="47.79204" lon="3.75172">
        <ele>292.38</ele>
        <time>2021-08-11T07:40:12Z</time>
      </trkpt>
      <trkpt lat="47.79196" lon="3.75161">
        <ele>292.38</ele>
        <time>2021-08-11T07:40:14Z</time>
      </trkpt>
      <trkpt lat="47.79159" lon="3.75134">
        <ele>292.86</ele>
        <time>2021-08-11T07:40:22Z</time>
      </trkpt>
      <trkpt lat="47.79105" lon="3.75114">
        <ele>293.34</ele>
        <time>2021-08-11T07:40:32Z</time>
      </trkpt>
      <trkpt lat="47.79067" lon="3.75092">
        <ele>293.82</ele>
        <time>2021-08-11T07:40:40Z</time>
      </trkpt>
      <trkpt lat="47.79027" lon="3.75057">
        <ele>294.3</ele>
        <time>2021-08-11T07:40:49Z</time>
      </trkpt>
      <trkpt lat="47.79009" lon="3.75042">
        <ele>294.3</ele>
        <time>2021-08-11T07:40:53Z</time>
      </trkpt>
      <trkpt lat="47.7899" lon="3.75024">
        <ele>293.34</ele>
        <time>2021-08-11T07:40:58Z</time>
      </trkpt>
      <trkpt lat="47.78948" lon="3.7499">
        <ele>291.9</ele>
        <time>2021-08-11T07:41:06Z</time>
      </trkpt>
      <trkpt lat="47.78901" lon="3.74948">
        <ele>289.49</ele>
        <time>2021-08-11T07:41:14Z</time>
      </trkpt>
      <trkpt lat="47.78855" lon="3.74908">
        <ele>289.49</ele>
        <time>2021-08-11T07:41:22Z</time>
      </trkpt>
      <trkpt lat="47.78822" lon="3.74878">
        <ele>289.01</ele>
        <time>2021-08-11T07:41:29Z</time>
      </trkpt>
      <trkpt lat="47.78784" lon="3.74841">
        <ele>289.49</ele>
        <time>2021-08-11T07:41:37Z</time>
      </trkpt>
      <trkpt lat="47.78774" lon="3.74833">
        <ele>289.49</ele>
        <time>2021-08-11T07:41:39Z</time>
      </trkpt>
      <trkpt lat="47.7877" lon="3.74828">
        <ele>289.49</ele>
        <time>2021-08-11T07:41:40Z</time>
      </trkpt>
      <trkpt lat="47.78753" lon="3.74812">
        <ele>290.94</ele>
        <time>2021-08-11T07:41:44Z</time>
      </trkpt>
      <trkpt lat="47.78728" lon="3.7479">
        <ele>291.9</ele>
        <time>2021-08-11T07:41:51Z</time>
      </trkpt>
      <trkpt lat="47.78705" lon="3.74771">
        <ele>293.34</ele>
        <time>2021-08-11T07:41:59Z</time>
      </trkpt>
      <trkpt lat="47.78691" lon="3.7476">
        <ele>294.3</ele>
        <time>2021-08-11T07:42:05Z</time>
      </trkpt>
      <trkpt lat="47.78671" lon="3.74748">
        <ele>295.74</ele>
        <time>2021-08-11T07:42:13Z</time>
      </trkpt>
      <trkpt lat="47.78653" lon="3.74737">
        <ele>297.67</ele>
        <time>2021-08-11T07:42:21Z</time>
      </trkpt>
      <trkpt lat="47.7864" lon="3.74727">
        <ele>298.63</ele>
        <time>2021-08-11T07:42:28Z</time>
      </trkpt>
      <trkpt lat="47.78626" lon="3.74718">
        <ele>299.59</ele>
        <time>2021-08-11T07:42:35Z</time>
      </trkpt>
      <trkpt lat="47.78613" lon="3.74709">
        <ele>300.55</ele>
        <time>2021-08-11T07:42:42Z</time>
      </trkpt>
      <trkpt lat="47.786" lon="3.74699">
        <ele>302.47</ele>
        <time>2021-08-11T07:42:50Z</time>
      </trkpt>
      <trkpt lat="47.78586" lon="3.7469">
        <ele>302.95</ele>
        <time>2021-08-11T07:42:57Z</time>
      </trkpt>
      <trkpt lat="47.78573" lon="3.7468">
        <ele>303.91</ele>
        <time>2021-08-11T07:43:04Z</time>
      </trkpt>
      <trkpt lat="47.78558" lon="3.74665">
        <ele>304.88</ele>
        <time>2021-08-11T07:43:12Z</time>
      </trkpt>
      <trkpt lat="47.78541" lon="3.74649">
        <ele>305.84</ele>
        <time>2021-08-11T07:43:21Z</time>
      </trkpt>
      <trkpt lat="47.78526" lon="3.7463">
        <ele>306.8</ele>
        <time>2021-08-11T07:43:29Z</time>
      </trkpt>
      <trkpt lat="47.78512" lon="3.74609">
        <ele>307.76</ele>
        <time>2021-08-11T07:43:38Z</time>
      </trkpt>
      <trkpt lat="47.7851" lon="3.74606">
        <ele>307.76</ele>
        <time>2021-08-11T07:43:39Z</time>
      </trkpt>
      <trkpt lat="47.78509" lon="3.74603">
        <ele>308.72</ele>
        <time>2021-08-11T07:43:40Z</time>
      </trkpt>
      <trkpt lat="47.78508" lon="3.746">
        <ele>308.72</ele>
        <time>2021-08-11T07:43:41Z</time>
      </trkpt>
      <trkpt lat="47.78507" lon="3.74597">
        <ele>308.72</ele>
        <time>2021-08-11T07:43:42Z</time>
      </trkpt>
      <trkpt lat="47.78505" lon="3.74595">
        <ele>308.72</ele>
        <time>2021-08-11T07:43:43Z</time>
      </trkpt>
      <trkpt lat="47.78494" lon="3.74579">
        <ele>309.2</ele>
        <time>2021-08-11T07:43:49Z</time>
      </trkpt>
      <trkpt lat="47.78481" lon="3.7456">
        <ele>310.16</ele>
        <time>2021-08-11T07:43:56Z</time>
      </trkpt>
      <trkpt lat="47.78465" lon="3.74538">
        <ele>311.12</ele>
        <time>2021-08-11T07:44:05Z</time>
      </trkpt>
      <trkpt lat="47.78448" lon="3.74519">
        <ele>312.09</ele>
        <time>2021-08-11T07:44:14Z</time>
      </trkpt>
      <trkpt lat="47.78433" lon="3.74501">
        <ele>313.05</ele>
        <time>2021-08-11T07:44:22Z</time>
      </trkpt>
      <trkpt lat="47.78419" lon="3.74484">
        <ele>313.53</ele>
        <time>2021-08-11T07:44:29Z</time>
      </trkpt>
      <trkpt lat="47.78402" lon="3.74464">
        <ele>314.97</ele>
        <time>2021-08-11T07:44:36Z</time>
      </trkpt>
      <trkpt lat="47.78379" lon="3.74443">
        <ele>315.45</ele>
        <time>2021-08-11T07:44:43Z</time>
      </trkpt>
      <trkpt lat="47.78349" lon="3.74408">
        <ele>316.41</ele>
        <time>2021-08-11T07:44:53Z</time>
      </trkpt>
      <trkpt lat="47.78324" lon="3.74366">
        <ele>317.85</ele>
        <time>2021-08-11T07:45:03Z</time>
      </trkpt>
      <trkpt lat="47.78304" lon="3.74325">
        <ele>318.33</ele>
        <time>2021-08-11T07:45:12Z</time>
      </trkpt>
      <trkpt lat="47.78302" lon="3.74319">
        <ele>318.33</ele>
        <time>2021-08-11T07:45:13Z</time>
      </trkpt>
      <trkpt lat="47.78299" lon="3.74314">
        <ele>318.33</ele>
        <time>2021-08-11T07:45:14Z</time>
      </trkpt>
      <trkpt lat="47.78286" lon="3.74283">
        <ele>318.81</ele>
        <time>2021-08-11T07:45:19Z</time>
      </trkpt>
      <trkpt lat="47.78279" lon="3.74265">
        <ele>319.3</ele>
        <time>2021-08-11T07:45:22Z</time>
      </trkpt>
      <trkpt lat="47.78253" lon="3.74212">
        <ele>319.78</ele>
        <time>2021-08-11T07:45:31Z</time>
      </trkpt>
      <trkpt lat="47.78247" lon="3.742">
        <ele>319.78</ele>
        <time>2021-08-11T07:45:33Z</time>
      </trkpt>
      <trkpt lat="47.78244" lon="3.74195">
        <ele>319.78</ele>
        <time>2021-08-11T07:45:34Z</time>
      </trkpt>
      <trkpt lat="47.78216" lon="3.74138">
        <ele>320.26</ele>
        <time>2021-08-11T07:45:43Z</time>
      </trkpt>
      <trkpt lat="47.78188" lon="3.74094">
        <ele>320.26</ele>
        <time>2021-08-11T07:45:50Z</time>
      </trkpt>
      <trkpt lat="47.78159" lon="3.74047">
        <ele>320.26</ele>
        <time>2021-08-11T07:45:58Z</time>
      </trkpt>
      <trkpt lat="47.78124" lon="3.73995">
        <ele>320.26</ele>
        <time>2021-08-11T07:46:07Z</time>
      </trkpt>
      <trkpt lat="47.78115" lon="3.73984">
        <ele>320.26</ele>
        <time>2021-08-11T07:46:09Z</time>
      </trkpt>
      <trkpt lat="47.78096" lon="3.73952">
        <ele>320.26</ele>
        <time>2021-08-11T07:46:14Z</time>
      </trkpt>
      <trkpt lat="47.78092" lon="3.73945">
        <ele>319.78</ele>
        <time>2021-08-11T07:46:15Z</time>
      </trkpt>
      <trkpt lat="47.78061" lon="3.73894">
        <ele>318.81</ele>
        <time>2021-08-11T07:46:22Z</time>
      </trkpt>
      <trkpt lat="47.78046" lon="3.73871">
        <ele>318.81</ele>
        <time>2021-08-11T07:46:25Z</time>
      </trkpt>
      <trkpt lat="47.78041" lon="3.73863">
        <ele>318.81</ele>
        <time>2021-08-11T07:46:26Z</time>
      </trkpt>
      <trkpt lat="47.78036" lon="3.73856">
        <ele>318.81</ele>
        <time>2021-08-11T07:46:27Z</time>
      </trkpt>
      <trkpt lat="47.78004" lon="3.73812">
        <ele>317.85</ele>
        <time>2021-08-11T07:46:33Z</time>
      </trkpt>
      <trkpt lat="47.77964" lon="3.73766">
        <ele>317.37</ele>
        <time>2021-08-11T07:46:40Z</time>
      </trkpt>
      <trkpt lat="47.77915" lon="3.73718">
        <ele>317.37</ele>
        <time>2021-08-11T07:46:48Z</time>
      </trkpt>
      <trkpt lat="47.77861" lon="3.73654">
        <ele>317.37</ele>
        <time>2021-08-11T07:46:58Z</time>
      </trkpt>
      <trkpt lat="47.77817" lon="3.73589">
        <ele>317.37</ele>
        <time>2021-08-11T07:47:07Z</time>
      </trkpt>
      <trkpt lat="47.77794" lon="3.73548">
        <ele>316.41</ele>
        <time>2021-08-11T07:47:12Z</time>
      </trkpt>
      <trkpt lat="47.77764" lon="3.73483">
        <ele>314.97</ele>
        <time>2021-08-11T07:47:19Z</time>
      </trkpt>
      <trkpt lat="47.77753" lon="3.73454">
        <ele>314.97</ele>
        <time>2021-08-11T07:47:22Z</time>
      </trkpt>
      <trkpt lat="47.77748" lon="3.73445">
        <ele>314.97</ele>
        <time>2021-08-11T07:47:23Z</time>
      </trkpt>
      <trkpt lat="47.77738" lon="3.73432">
        <ele>314.49</ele>
        <time>2021-08-11T07:47:25Z</time>
      </trkpt>
      <trkpt lat="47.77733" lon="3.73426">
        <ele>314.49</ele>
        <time>2021-08-11T07:47:26Z</time>
      </trkpt>
      <trkpt lat="47.77716" lon="3.73411">
        <ele>314.49</ele>
        <time>2021-08-11T07:47:29Z</time>
      </trkpt>
      <trkpt lat="47.7771" lon="3.73407">
        <ele>314.49</ele>
        <time>2021-08-11T07:47:30Z</time>
      </trkpt>
      <trkpt lat="47.77674" lon="3.73377">
        <ele>314.01</ele>
        <time>2021-08-11T07:47:37Z</time>
      </trkpt>
      <trkpt lat="47.77659" lon="3.73363">
        <ele>314.01</ele>
        <time>2021-08-11T07:47:40Z</time>
      </trkpt>
      <trkpt lat="47.77653" lon="3.73361">
        <ele>314.01</ele>
        <time>2021-08-11T07:47:41Z</time>
      </trkpt>
      <trkpt lat="47.77646" lon="3.7336">
        <ele>312.57</ele>
        <time>2021-08-11T07:47:42Z</time>
      </trkpt>
      <trkpt lat="47.7764" lon="3.73361">
        <ele>312.57</ele>
        <time>2021-08-11T07:47:43Z</time>
      </trkpt>
      <trkpt lat="47.77634" lon="3.73362">
        <ele>312.57</ele>
        <time>2021-08-11T07:47:44Z</time>
      </trkpt>
      <trkpt lat="47.77627" lon="3.73365">
        <ele>312.57</ele>
        <time>2021-08-11T07:47:45Z</time>
      </trkpt>
      <trkpt lat="47.77623" lon="3.73368">
        <ele>312.57</ele>
        <time>2021-08-11T07:47:46Z</time>
      </trkpt>
      <trkpt lat="47.77599" lon="3.73387">
        <ele>314.49</ele>
        <time>2021-08-11T07:47:51Z</time>
      </trkpt>
      <trkpt lat="47.77553" lon="3.73414">
        <ele>316.89</ele>
        <time>2021-08-11T07:48:02Z</time>
      </trkpt>
      <trkpt lat="47.77521" lon="3.73429">
        <ele>318.81</ele>
        <time>2021-08-11T07:48:09Z</time>
      </trkpt>
      <trkpt lat="47.77511" lon="3.73434">
        <ele>318.81</ele>
        <time>2021-08-11T07:48:11Z</time>
      </trkpt>
      <trkpt lat="47.77482" lon="3.73448">
        <ele>319.78</ele>
        <time>2021-08-11T07:48:17Z</time>
      </trkpt>
      <trkpt lat="47.77458" lon="3.73461">
        <ele>320.26</ele>
        <time>2021-08-11T07:48:25Z</time>
      </trkpt>
      <trkpt lat="47.77428" lon="3.73479">
        <ele>321.7</ele>
        <time>2021-08-11T07:48:36Z</time>
      </trkpt>
      <trkpt lat="47.774" lon="3.73495">
        <ele>322.66</ele>
        <time>2021-08-11T07:48:46Z</time>
      </trkpt>
      <trkpt lat="47.77369" lon="3.73513">
        <ele>323.62</ele>
        <time>2021-08-11T07:48:57Z</time>
      </trkpt>
      <trkpt lat="47.77343" lon="3.7353">
        <ele>324.58</ele>
        <time>2021-08-11T07:49:06Z</time>
      </trkpt>
      <trkpt lat="47.77306" lon="3.73557">
        <ele>325.06</ele>
        <time>2021-08-11T07:49:18Z</time>
      </trkpt>
      <trkpt lat="47.77271" lon="3.73587">
        <ele>325.54</ele>
        <time>2021-08-11T07:49:29Z</time>
      </trkpt>
      <trkpt lat="47.77239" lon="3.73614">
        <ele>326.02</ele>
        <time>2021-08-11T07:49:39Z</time>
      </trkpt>
      <trkpt lat="47.77211" lon="3.73632">
        <ele>326.99</ele>
        <time>2021-08-11T07:49:48Z</time>
      </trkpt>
      <trkpt lat="47.77173" lon="3.73658">
        <ele>326.99</ele>
        <time>2021-08-11T07:49:58Z</time>
      </trkpt>
      <trkpt lat="47.77135" lon="3.73682">
        <ele>326.99</ele>
        <time>2021-08-11T07:50:08Z</time>
      </trkpt>
      <trkpt lat="47.77115" lon="3.73695">
        <ele>326.99</ele>
        <time>2021-08-11T07:50:13Z</time>
      </trkpt>
      <trkpt lat="47.77104" lon="3.73703">
        <ele>327.47</ele>
        <time>2021-08-11T07:50:16Z</time>
      </trkpt>
      <trkpt lat="47.771" lon="3.73705">
        <ele>327.47</ele>
        <time>2021-08-11T07:50:17Z</time>
      </trkpt>
      <trkpt lat="47.77059" lon="3.73732">
        <ele>328.43</ele>
        <time>2021-08-11T07:50:29Z</time>
      </trkpt>
      <trkpt lat="47.77023" lon="3.73755">
        <ele>329.87</ele>
        <time>2021-08-11T07:50:40Z</time>
      </trkpt>
      <trkpt lat="47.76992" lon="3.73775">
        <ele>331.31</ele>
        <time>2021-08-11T07:50:50Z</time>
      </trkpt>
      <trkpt lat="47.76956" lon="3.73799">
        <ele>332.27</ele>
        <time>2021-08-11T07:51:02Z</time>
      </trkpt>
      <trkpt lat="47.76925" lon="3.73819">
        <ele>333.23</ele>
        <time>2021-08-11T07:51:12Z</time>
      </trkpt>
      <trkpt lat="47.76897" lon="3.73835">
        <ele>333.71</ele>
        <time>2021-08-11T07:51:21Z</time>
      </trkpt>
      <trkpt lat="47.76869" lon="3.73837">
        <ele>334.2</ele>
        <time>2021-08-11T07:51:29Z</time>
      </trkpt>
      <trkpt lat="47.76833" lon="3.73834">
        <ele>334.2</ele>
        <time>2021-08-11T07:51:38Z</time>
      </trkpt>
      <trkpt lat="47.76788" lon="3.73834">
        <ele>334.2</ele>
        <time>2021-08-11T07:51:48Z</time>
      </trkpt>
      <trkpt lat="47.76737" lon="3.73838">
        <ele>334.2</ele>
        <time>2021-08-11T07:51:58Z</time>
      </trkpt>
      <trkpt lat="47.76674" lon="3.73835">
        <ele>331.31</ele>
        <time>2021-08-11T07:52:09Z</time>
      </trkpt>
      <trkpt lat="47.76605" lon="3.73828">
        <ele>329.87</ele>
        <time>2021-08-11T07:52:20Z</time>
      </trkpt>
      <trkpt lat="47.76545" lon="3.73817">
        <ele>329.87</ele>
        <time>2021-08-11T07:52:30Z</time>
      </trkpt>
      <trkpt lat="47.76492" lon="3.73802">
        <ele>330.83</ele>
        <time>2021-08-11T07:52:40Z</time>
      </trkpt>
      <trkpt lat="47.7644" lon="3.73787">
        <ele>331.79</ele>
        <time>2021-08-11T07:52:51Z</time>
      </trkpt>
      <trkpt lat="47.76396" lon="3.73781">
        <ele>331.79</ele>
        <time>2021-08-11T07:53:00Z</time>
      </trkpt>
      <trkpt lat="47.76346" lon="3.73778">
        <ele>332.27</ele>
        <time>2021-08-11T07:53:10Z</time>
      </trkpt>
      <trkpt lat="47.76298" lon="3.73779">
        <ele>332.27</ele>
        <time>2021-08-11T07:53:20Z</time>
      </trkpt>
      <trkpt lat="47.76279" lon="3.73778">
        <ele>332.27</ele>
        <time>2021-08-11T07:53:24Z</time>
      </trkpt>
      <trkpt lat="47.76274" lon="3.73778">
        <ele>333.23</ele>
        <time>2021-08-11T07:53:25Z</time>
      </trkpt>
      <trkpt lat="47.76236" lon="3.73778">
        <ele>333.23</ele>
        <time>2021-08-11T07:53:33Z</time>
      </trkpt>
      <trkpt lat="47.76188" lon="3.73782">
        <ele>334.2</ele>
        <time>2021-08-11T07:53:44Z</time>
      </trkpt>
      <trkpt lat="47.76146" lon="3.73789">
        <ele>334.68</ele>
        <time>2021-08-11T07:53:54Z</time>
      </trkpt>
      <trkpt lat="47.76141" lon="3.7379">
        <ele>334.68</ele>
        <time>2021-08-11T07:53:55Z</time>
      </trkpt>
      <trkpt lat="47.76101" lon="3.73795">
        <ele>334.68</ele>
        <time>2021-08-11T07:54:04Z</time>
      </trkpt>
      <trkpt lat="47.76047" lon="3.73801">
        <ele>335.64</ele>
        <time>2021-08-11T07:54:16Z</time>
      </trkpt>
      <trkpt lat="47.75995" lon="3.73799">
        <ele>337.08</ele>
        <time>2021-08-11T07:54:28Z</time>
      </trkpt>
      <trkpt lat="47.7596" lon="3.73797">
        <ele>337.56</ele>
        <time>2021-08-11T07:54:37Z</time>
      </trkpt>
      <trkpt lat="47.75934" lon="3.73793">
        <ele>339.48</ele>
        <time>2021-08-11T07:54:45Z</time>
      </trkpt>
      <trkpt lat="47.7593" lon="3.73786">
        <ele>339.48</ele>
        <time>2021-08-11T07:54:47Z</time>
      </trkpt>
      <trkpt lat="47.7593" lon="3.7378">
        <ele>340.92</ele>
        <time>2021-08-11T07:54:48Z</time>
      </trkpt>
      <trkpt lat="47.75931" lon="3.73776">
        <ele>340.92</ele>
        <time>2021-08-11T07:54:49Z</time>
      </trkpt>
      <trkpt lat="47.75932" lon="3.73772">
        <ele>340.92</ele>
        <time>2021-08-11T07:54:50Z</time>
      </trkpt>
      <trkpt lat="47.75934" lon="3.73768">
        <ele>340.92</ele>
        <time>2021-08-11T07:54:51Z</time>
      </trkpt>
      <trkpt lat="47.75936" lon="3.73763">
        <ele>340.92</ele>
        <time>2021-08-11T07:54:52Z</time>
      </trkpt>
      <trkpt lat="47.75938" lon="3.73759">
        <ele>340.92</ele>
        <time>2021-08-11T07:54:53Z</time>
      </trkpt>
      <trkpt lat="47.7594" lon="3.73755">
        <ele>340.92</ele>
        <time>2021-08-11T07:54:54Z</time>
      </trkpt>
      <trkpt lat="47.7596" lon="3.73722">
        <ele>341.41</ele>
        <time>2021-08-11T07:55:02Z</time>
      </trkpt>
      <trkpt lat="47.75978" lon="3.73686">
        <ele>341.41</ele>
        <time>2021-08-11T07:55:10Z</time>
      </trkpt>
      <trkpt lat="47.7598" lon="3.73658">
        <ele>341.89</ele>
        <time>2021-08-11T07:55:15Z</time>
      </trkpt>
      <trkpt lat="47.75979" lon="3.73652">
        <ele>341.89</ele>
        <time>2021-08-11T07:55:16Z</time>
      </trkpt>
      <trkpt lat="47.7597" lon="3.73594">
        <ele>342.37</ele>
        <time>2021-08-11T07:55:26Z</time>
      </trkpt>
      <trkpt lat="47.75967" lon="3.73558">
        <ele>342.85</ele>
        <time>2021-08-11T07:55:32Z</time>
      </trkpt>
      <trkpt lat="47.75967" lon="3.73552">
        <ele>342.85</ele>
        <time>2021-08-11T07:55:33Z</time>
      </trkpt>
      <trkpt lat="47.75966" lon="3.73527">
        <ele>342.85</ele>
        <time>2021-08-11T07:55:37Z</time>
      </trkpt>
      <trkpt lat="47.75966" lon="3.7352">
        <ele>342.85</ele>
        <time>2021-08-11T07:55:38Z</time>
      </trkpt>
      <trkpt lat="47.75966" lon="3.73513">
        <ele>342.85</ele>
        <time>2021-08-11T07:55:39Z</time>
      </trkpt>
      <trkpt lat="47.75967" lon="3.73457">
        <ele>340.92</ele>
        <time>2021-08-11T07:55:47Z</time>
      </trkpt>
      <trkpt lat="47.75968" lon="3.73449">
        <ele>340.92</ele>
        <time>2021-08-11T07:55:48Z</time>
      </trkpt>
      <trkpt lat="47.7597" lon="3.73434">
        <ele>340.44</ele>
        <time>2021-08-11T07:55:50Z</time>
      </trkpt>
      <trkpt lat="47.75977" lon="3.73399">
        <ele>339.96</ele>
        <time>2021-08-11T07:55:55Z</time>
      </trkpt>
      <trkpt lat="47.75989" lon="3.73354">
        <ele>339</ele>
        <time>2021-08-11T07:56:01Z</time>
      </trkpt>
      <trkpt lat="47.7599" lon="3.73346">
        <ele>338.52</ele>
        <time>2021-08-11T07:56:02Z</time>
      </trkpt>
      <trkpt lat="47.75991" lon="3.73285">
        <ele>338.52</ele>
        <time>2021-08-11T07:56:09Z</time>
      </trkpt>
      <trkpt lat="47.75997" lon="3.73208">
        <ele>338.52</ele>
        <time>2021-08-11T07:56:19Z</time>
      </trkpt>
      <trkpt lat="47.76012" lon="3.73135">
        <ele>338.52</ele>
        <time>2021-08-11T07:56:29Z</time>
      </trkpt>
      <trkpt lat="47.76024" lon="3.73061">
        <ele>336.6</ele>
        <time>2021-08-11T07:56:39Z</time>
      </trkpt>
      <trkpt lat="47.76027" lon="3.73002">
        <ele>334.68</ele>
        <time>2021-08-11T07:56:46Z</time>
      </trkpt>
      <trkpt lat="47.76028" lon="3.72963">
        <ele>333.71</ele>
        <time>2021-08-11T07:56:53Z</time>
      </trkpt>
      <trkpt lat="47.76026" lon="3.72959">
        <ele>333.23</ele>
        <time>2021-08-11T07:56:54Z</time>
      </trkpt>
      <trkpt lat="47.76023" lon="3.72957">
        <ele>333.23</ele>
        <time>2021-08-11T07:56:55Z</time>
      </trkpt>
      <trkpt lat="47.76019" lon="3.72956">
        <ele>333.23</ele>
        <time>2021-08-11T07:56:56Z</time>
      </trkpt>
      <trkpt lat="47.76016" lon="3.72955">
        <ele>332.75</ele>
        <time>2021-08-11T07:56:57Z</time>
      </trkpt>
      <trkpt lat="47.76013" lon="3.72955">
        <ele>332.75</ele>
        <time>2021-08-11T07:56:58Z</time>
      </trkpt>
      <trkpt lat="47.76009" lon="3.72955">
        <ele>332.75</ele>
        <time>2021-08-11T07:56:59Z</time>
      </trkpt>
      <trkpt lat="47.76005" lon="3.72956">
        <ele>332.75</ele>
        <time>2021-08-11T07:57:00Z</time>
      </trkpt>
      <trkpt lat="47.76002" lon="3.72957">
        <ele>332.75</ele>
        <time>2021-08-11T07:57:01Z</time>
      </trkpt>
      <trkpt lat="47.75999" lon="3.72957">
        <ele>332.75</ele>
        <time>2021-08-11T07:57:02Z</time>
      </trkpt>
      <trkpt lat="47.75996" lon="3.72957">
        <ele>334.2</ele>
        <time>2021-08-11T07:57:03Z</time>
      </trkpt>
      <trkpt lat="47.75977" lon="3.72953">
        <ele>335.16</ele>
        <time>2021-08-11T07:57:10Z</time>
      </trkpt>
      <trkpt lat="47.75965" lon="3.7295">
        <ele>337.08</ele>
        <time>2021-08-11T07:57:15Z</time>
      </trkpt>
      <trkpt lat="47.75948" lon="3.72946">
        <ele>338.04</ele>
        <time>2021-08-11T07:57:23Z</time>
      </trkpt>
      <trkpt lat="47.75928" lon="3.72941">
        <ele>339.96</ele>
        <time>2021-08-11T07:57:33Z</time>
      </trkpt>
      <trkpt lat="47.75907" lon="3.72936">
        <ele>341.89</ele>
        <time>2021-08-11T07:57:43Z</time>
      </trkpt>
      <trkpt lat="47.75885" lon="3.7293">
        <ele>343.33</ele>
        <time>2021-08-11T07:57:54Z</time>
      </trkpt>
      <trkpt lat="47.75868" lon="3.72925">
        <ele>344.29</ele>
        <time>2021-08-11T07:58:02Z</time>
      </trkpt>
      <trkpt lat="47.75851" lon="3.7292">
        <ele>345.73</ele>
        <time>2021-08-11T07:58:10Z</time>
      </trkpt>
      <trkpt lat="47.75829" lon="3.72913">
        <ele>346.21</ele>
        <time>2021-08-11T07:58:19Z</time>
      </trkpt>
      <trkpt lat="47.75807" lon="3.72908">
        <ele>346.69</ele>
        <time>2021-08-11T07:58:27Z</time>
      </trkpt>
      <trkpt lat="47.75779" lon="3.72899">
        <ele>347.65</ele>
        <time>2021-08-11T07:58:37Z</time>
      </trkpt>
      <trkpt lat="47.75751" lon="3.72891">
        <ele>347.65</ele>
        <time>2021-08-11T07:58:46Z</time>
      </trkpt>
      <trkpt lat="47.7573" lon="3.7288">
        <ele>347.65</ele>
        <time>2021-08-11T07:58:53Z</time>
      </trkpt>
      <trkpt lat="47.75715" lon="3.72849">
        <ele>347.65</ele>
        <time>2021-08-11T07:59:00Z</time>
      </trkpt>
      <trkpt lat="47.75705" lon="3.72818">
        <ele>347.65</ele>
        <time>2021-08-11T07:59:06Z</time>
      </trkpt>
      <trkpt lat="47.7569" lon="3.72764">
        <ele>347.65</ele>
        <time>2021-08-11T07:59:16Z</time>
      </trkpt>
      <trkpt lat="47.75672" lon="3.72702">
        <ele>348.62</ele>
        <time>2021-08-11T07:59:27Z</time>
      </trkpt>
      <trkpt lat="47.75657" lon="3.72644">
        <ele>348.62</ele>
        <time>2021-08-11T07:59:37Z</time>
      </trkpt>
      <trkpt lat="47.75645" lon="3.72592">
        <ele>349.1</ele>
        <time>2021-08-11T07:59:46Z</time>
      </trkpt>
      <trkpt lat="47.75632" lon="3.72534">
        <ele>349.58</ele>
        <time>2021-08-11T07:59:56Z</time>
      </trkpt>
      <trkpt lat="47.75619" lon="3.72484">
        <ele>349.58</ele>
        <time>2021-08-11T08:00:05Z</time>
      </trkpt>
      <trkpt lat="47.7561" lon="3.72443">
        <ele>349.58</ele>
        <time>2021-08-11T08:00:12Z</time>
      </trkpt>
      <trkpt lat="47.75604" lon="3.72417">
        <ele>348.13</ele>
        <time>2021-08-11T08:00:16Z</time>
      </trkpt>
      <trkpt lat="47.75603" lon="3.7241">
        <ele>348.13</ele>
        <time>2021-08-11T08:00:17Z</time>
      </trkpt>
      <trkpt lat="47.75589" lon="3.72357">
        <ele>347.65</ele>
        <time>2021-08-11T08:00:25Z</time>
      </trkpt>
      <trkpt lat="47.75582" lon="3.72329">
        <ele>347.17</ele>
        <time>2021-08-11T08:00:29Z</time>
      </trkpt>
      <trkpt lat="47.7558" lon="3.72322">
        <ele>347.17</ele>
        <time>2021-08-11T08:00:30Z</time>
      </trkpt>
      <trkpt lat="47.75573" lon="3.72288">
        <ele>347.17</ele>
        <time>2021-08-11T08:00:35Z</time>
      </trkpt>
      <trkpt lat="47.75564" lon="3.72235">
        <ele>346.69</ele>
        <time>2021-08-11T08:00:43Z</time>
      </trkpt>
      <trkpt lat="47.75556" lon="3.7219">
        <ele>346.21</ele>
        <time>2021-08-11T08:00:50Z</time>
      </trkpt>
      <trkpt lat="47.75544" lon="3.72128">
        <ele>345.73</ele>
        <time>2021-08-11T08:00:59Z</time>
      </trkpt>
      <trkpt lat="47.7553" lon="3.72075">
        <ele>345.25</ele>
        <time>2021-08-11T08:01:07Z</time>
      </trkpt>
      <trkpt lat="47.75517" lon="3.7202">
        <ele>344.77</ele>
        <time>2021-08-11T08:01:16Z</time>
      </trkpt>
      <trkpt lat="47.75507" lon="3.71986">
        <ele>344.77</ele>
        <time>2021-08-11T08:01:22Z</time>
      </trkpt>
      <trkpt lat="47.75503" lon="3.71974">
        <ele>344.77</ele>
        <time>2021-08-11T08:01:24Z</time>
      </trkpt>
      <trkpt lat="47.75481" lon="3.71926">
        <ele>344.77</ele>
        <time>2021-08-11T08:01:32Z</time>
      </trkpt>
      <trkpt lat="47.75459" lon="3.71888">
        <ele>344.29</ele>
        <time>2021-08-11T08:01:39Z</time>
      </trkpt>
      <trkpt lat="47.75448" lon="3.71867">
        <ele>343.81</ele>
        <time>2021-08-11T08:01:43Z</time>
      </trkpt>
      <trkpt lat="47.75433" lon="3.71838">
        <ele>343.81</ele>
        <time>2021-08-11T08:01:48Z</time>
      </trkpt>
      <trkpt lat="47.75411" lon="3.71792">
        <ele>343.81</ele>
        <time>2021-08-11T08:01:56Z</time>
      </trkpt>
      <trkpt lat="47.75377" lon="3.71736">
        <ele>343.81</ele>
        <time>2021-08-11T08:02:06Z</time>
      </trkpt>
      <trkpt lat="47.7537" lon="3.71725">
        <ele>343.81</ele>
        <time>2021-08-11T08:02:08Z</time>
      </trkpt>
      <trkpt lat="47.75367" lon="3.7172">
        <ele>343.81</ele>
        <time>2021-08-11T08:02:09Z</time>
      </trkpt>
      <trkpt lat="47.75339" lon="3.71668">
        <ele>343.81</ele>
        <time>2021-08-11T08:02:18Z</time>
      </trkpt>
      <trkpt lat="47.7531" lon="3.71609">
        <ele>343.81</ele>
        <time>2021-08-11T08:02:28Z</time>
      </trkpt>
      <trkpt lat="47.75281" lon="3.71551">
        <ele>343.81</ele>
        <time>2021-08-11T08:02:38Z</time>
      </trkpt>
      <trkpt lat="47.75254" lon="3.71494">
        <ele>343.81</ele>
        <time>2021-08-11T08:02:48Z</time>
      </trkpt>
      <trkpt lat="47.75225" lon="3.71432">
        <ele>343.81</ele>
        <time>2021-08-11T08:02:59Z</time>
      </trkpt>
      <trkpt lat="47.75187" lon="3.71361">
        <ele>343.81</ele>
        <time>2021-08-11T08:03:12Z</time>
      </trkpt>
      <trkpt lat="47.75157" lon="3.71314">
        <ele>343.81</ele>
        <time>2021-08-11T08:03:21Z</time>
      </trkpt>
      <trkpt lat="47.75146" lon="3.71298">
        <ele>343.33</ele>
        <time>2021-08-11T08:03:24Z</time>
      </trkpt>
      <trkpt lat="47.75142" lon="3.71293">
        <ele>343.33</ele>
        <time>2021-08-11T08:03:25Z</time>
      </trkpt>
      <trkpt lat="47.75107" lon="3.7125">
        <ele>342.37</ele>
        <time>2021-08-11T08:03:34Z</time>
      </trkpt>
      <trkpt lat="47.7507" lon="3.71214">
        <ele>342.37</ele>
        <time>2021-08-11T08:03:43Z</time>
      </trkpt>
      <trkpt lat="47.75036" lon="3.7117">
        <ele>341.41</ele>
        <time>2021-08-11T08:03:52Z</time>
      </trkpt>
      <trkpt lat="47.75014" lon="3.71134">
        <ele>341.41</ele>
        <time>2021-08-11T08:03:59Z</time>
      </trkpt>
      <trkpt lat="47.75008" lon="3.71122">
        <ele>340.44</ele>
        <time>2021-08-11T08:04:01Z</time>
      </trkpt>
      <trkpt lat="47.74995" lon="3.711">
        <ele>340.44</ele>
        <time>2021-08-11T08:04:05Z</time>
      </trkpt>
      <trkpt lat="47.74981" lon="3.71072">
        <ele>339.96</ele>
        <time>2021-08-11T08:04:10Z</time>
      </trkpt>
      <trkpt lat="47.74957" lon="3.71025">
        <ele>339</ele>
        <time>2021-08-11T08:04:18Z</time>
      </trkpt>
      <trkpt lat="47.74922" lon="3.7097">
        <ele>338.04</ele>
        <time>2021-08-11T08:04:28Z</time>
      </trkpt>
      <trkpt lat="47.749" lon="3.70949">
        <ele>337.56</ele>
        <time>2021-08-11T08:04:33Z</time>
      </trkpt>
      <trkpt lat="47.74888" lon="3.70938">
        <ele>337.08</ele>
        <time>2021-08-11T08:04:36Z</time>
      </trkpt>
      <trkpt lat="47.74885" lon="3.70933">
        <ele>337.08</ele>
        <time>2021-08-11T08:04:37Z</time>
      </trkpt>
      <trkpt lat="47.74882" lon="3.70926">
        <ele>337.08</ele>
        <time>2021-08-11T08:04:38Z</time>
      </trkpt>
      <trkpt lat="47.74881" lon="3.70919">
        <ele>337.08</ele>
        <time>2021-08-11T08:04:39Z</time>
      </trkpt>
      <trkpt lat="47.7488" lon="3.70912">
        <ele>337.08</ele>
        <time>2021-08-11T08:04:40Z</time>
      </trkpt>
      <trkpt lat="47.74881" lon="3.70905">
        <ele>336.6</ele>
        <time>2021-08-11T08:04:41Z</time>
      </trkpt>
      <trkpt lat="47.74883" lon="3.70898">
        <ele>336.6</ele>
        <time>2021-08-11T08:04:42Z</time>
      </trkpt>
      <trkpt lat="47.74885" lon="3.70891">
        <ele>336.6</ele>
        <time>2021-08-11T08:04:43Z</time>
      </trkpt>
      <trkpt lat="47.74889" lon="3.70886">
        <ele>336.12</ele>
        <time>2021-08-11T08:04:44Z</time>
      </trkpt>
      <trkpt lat="47.74893" lon="3.70881">
        <ele>336.12</ele>
        <time>2021-08-11T08:04:45Z</time>
      </trkpt>
      <trkpt lat="47.74897" lon="3.70878">
        <ele>335.64</ele>
        <time>2021-08-11T08:04:46Z</time>
      </trkpt>
      <trkpt lat="47.74902" lon="3.70875">
        <ele>335.64</ele>
        <time>2021-08-11T08:04:47Z</time>
      </trkpt>
      <trkpt lat="47.74907" lon="3.70872">
        <ele>335.64</ele>
        <time>2021-08-11T08:04:48Z</time>
      </trkpt>
      <trkpt lat="47.74939" lon="3.70857">
        <ele>334.2</ele>
        <time>2021-08-11T08:04:54Z</time>
      </trkpt>
      <trkpt lat="47.74943" lon="3.70852">
        <ele>333.71</ele>
        <time>2021-08-11T08:04:55Z</time>
      </trkpt>
      <trkpt lat="47.74948" lon="3.70845">
        <ele>333.71</ele>
        <time>2021-08-11T08:04:56Z</time>
      </trkpt>
      <trkpt lat="47.7495" lon="3.70839">
        <ele>332.27</ele>
        <time>2021-08-11T08:04:57Z</time>
      </trkpt>
      <trkpt lat="47.74953" lon="3.7083">
        <ele>331.79</ele>
        <time>2021-08-11T08:04:58Z</time>
      </trkpt>
      <trkpt lat="47.74953" lon="3.70821">
        <ele>330.83</ele>
        <time>2021-08-11T08:04:59Z</time>
      </trkpt>
      <trkpt lat="47.74952" lon="3.70812">
        <ele>330.35</ele>
        <time>2021-08-11T08:05:00Z</time>
      </trkpt>
      <trkpt lat="47.7495" lon="3.70803">
        <ele>329.87</ele>
        <time>2021-08-11T08:05:01Z</time>
      </trkpt>
      <trkpt lat="47.74947" lon="3.70794">
        <ele>329.39</ele>
        <time>2021-08-11T08:05:02Z</time>
      </trkpt>
      <trkpt lat="47.74944" lon="3.70786">
        <ele>328.43</ele>
        <time>2021-08-11T08:05:03Z</time>
      </trkpt>
      <trkpt lat="47.7494" lon="3.70777">
        <ele>328.43</ele>
        <time>2021-08-11T08:05:04Z</time>
      </trkpt>
      <trkpt lat="47.74916" lon="3.70726">
        <ele>326.5</ele>
        <time>2021-08-11T08:05:10Z</time>
      </trkpt>
      <trkpt lat="47.74902" lon="3.70694">
        <ele>326.02</ele>
        <time>2021-08-11T08:05:14Z</time>
      </trkpt>
      <trkpt lat="47.74882" lon="3.70628">
        <ele>324.58</ele>
        <time>2021-08-11T08:05:21Z</time>
      </trkpt>
      <trkpt lat="47.7487" lon="3.70541">
        <ele>323.14</ele>
        <time>2021-08-11T08:05:30Z</time>
      </trkpt>
      <trkpt lat="47.74868" lon="3.70443">
        <ele>319.78</ele>
        <time>2021-08-11T08:05:39Z</time>
      </trkpt>
      <trkpt lat="47.74869" lon="3.70433">
        <ele>319.3</ele>
        <time>2021-08-11T08:05:40Z</time>
      </trkpt>
      <trkpt lat="47.74875" lon="3.70388">
        <ele>316.41</ele>
        <time>2021-08-11T08:05:44Z</time>
      </trkpt>
      <trkpt lat="47.74888" lon="3.70327">
        <ele>312.57</ele>
        <time>2021-08-11T08:05:49Z</time>
      </trkpt>
      <trkpt lat="47.74898" lon="3.70284">
        <ele>308.72</ele>
        <time>2021-08-11T08:05:52Z</time>
      </trkpt>
      <trkpt lat="47.74901" lon="3.7027">
        <ele>308.72</ele>
        <time>2021-08-11T08:05:53Z</time>
      </trkpt>
      <trkpt lat="47.74907" lon="3.70226">
        <ele>305.36</ele>
        <time>2021-08-11T08:05:56Z</time>
      </trkpt>
      <trkpt lat="47.74908" lon="3.70211">
        <ele>303.91</ele>
        <time>2021-08-11T08:05:57Z</time>
      </trkpt>
      <trkpt lat="47.74906" lon="3.7016">
        <ele>300.55</ele>
        <time>2021-08-11T08:06:00Z</time>
      </trkpt>
      <trkpt lat="47.74903" lon="3.70105">
        <ele>296.7</ele>
        <time>2021-08-11T08:06:03Z</time>
      </trkpt>
      <trkpt lat="47.74899" lon="3.70032">
        <ele>292.86</ele>
        <time>2021-08-11T08:06:07Z</time>
      </trkpt>
      <trkpt lat="47.7489" lon="3.69958">
        <ele>289.49</ele>
        <time>2021-08-11T08:06:11Z</time>
      </trkpt>
      <trkpt lat="47.74882" lon="3.699">
        <ele>286.13</ele>
        <time>2021-08-11T08:06:14Z</time>
      </trkpt>
      <trkpt lat="47.74876" lon="3.69844">
        <ele>282.28</ele>
        <time>2021-08-11T08:06:17Z</time>
      </trkpt>
      <trkpt lat="47.74868" lon="3.69785">
        <ele>278.44</ele>
        <time>2021-08-11T08:06:21Z</time>
      </trkpt>
      <trkpt lat="47.74864" lon="3.69773">
        <ele>277.48</ele>
        <time>2021-08-11T08:06:22Z</time>
      </trkpt>
      <trkpt lat="47.7486" lon="3.69764">
        <ele>277.96</ele>
        <time>2021-08-11T08:06:23Z</time>
      </trkpt>
      <trkpt lat="47.74854" lon="3.69756">
        <ele>277.96</ele>
        <time>2021-08-11T08:06:24Z</time>
      </trkpt>
      <trkpt lat="47.74847" lon="3.69753">
        <ele>277.96</ele>
        <time>2021-08-11T08:06:25Z</time>
      </trkpt>
      <trkpt lat="47.74842" lon="3.69752">
        <ele>277.96</ele>
        <time>2021-08-11T08:06:26Z</time>
      </trkpt>
      <trkpt lat="47.74835" lon="3.69752">
        <ele>277.96</ele>
        <time>2021-08-11T08:06:27Z</time>
      </trkpt>
      <trkpt lat="47.74829" lon="3.69753">
        <ele>277.96</ele>
        <time>2021-08-11T08:06:28Z</time>
      </trkpt>
      <trkpt lat="47.74806" lon="3.69757">
        <ele>279.4</ele>
        <time>2021-08-11T08:06:32Z</time>
      </trkpt>
      <trkpt lat="47.74768" lon="3.69762">
        <ele>279.88</ele>
        <time>2021-08-11T08:06:39Z</time>
      </trkpt>
      <trkpt lat="47.74729" lon="3.69764">
        <ele>278.92</ele>
        <time>2021-08-11T08:06:46Z</time>
      </trkpt>
      <trkpt lat="47.74712" lon="3.69766">
        <ele>278.92</ele>
        <time>2021-08-11T08:06:49Z</time>
      </trkpt>
      <trkpt lat="47.74706" lon="3.69766">
        <ele>278.92</ele>
        <time>2021-08-11T08:06:50Z</time>
      </trkpt>
      <trkpt lat="47.74653" lon="3.69775">
        <ele>278.44</ele>
        <time>2021-08-11T08:07:00Z</time>
      </trkpt>
      <trkpt lat="47.746" lon="3.69781">
        <ele>278.44</ele>
        <time>2021-08-11T08:07:10Z</time>
      </trkpt>
      <trkpt lat="47.74584" lon="3.69784">
        <ele>278.44</ele>
        <time>2021-08-11T08:07:13Z</time>
      </trkpt>
      <trkpt lat="47.74537" lon="3.69792">
        <ele>278.44</ele>
        <time>2021-08-11T08:07:22Z</time>
      </trkpt>
      <trkpt lat="47.74518" lon="3.69795">
        <ele>278.44</ele>
        <time>2021-08-11T08:07:26Z</time>
      </trkpt>
      <trkpt lat="47.74477" lon="3.69798">
        <ele>279.88</ele>
        <time>2021-08-11T08:07:35Z</time>
      </trkpt>
      <trkpt lat="47.74438" lon="3.69786">
        <ele>280.36</ele>
        <time>2021-08-11T08:07:44Z</time>
      </trkpt>
      <trkpt lat="47.74411" lon="3.69776">
        <ele>280.36</ele>
        <time>2021-08-11T08:07:50Z</time>
      </trkpt>
      <trkpt lat="47.74398" lon="3.69774">
        <ele>280.36</ele>
        <time>2021-08-11T08:07:53Z</time>
      </trkpt>
      <trkpt lat="47.74359" lon="3.69781">
        <ele>281.32</ele>
        <time>2021-08-11T08:08:03Z</time>
      </trkpt>
      <trkpt lat="47.74332" lon="3.6979">
        <ele>281.8</ele>
        <time>2021-08-11T08:08:10Z</time>
      </trkpt>
      <trkpt lat="47.74297" lon="3.69803">
        <ele>281.8</ele>
        <time>2021-08-11T08:08:18Z</time>
      </trkpt>
      <trkpt lat="47.74265" lon="3.69818">
        <ele>280.36</ele>
        <time>2021-08-11T08:08:25Z</time>
      </trkpt>
      <trkpt lat="47.74218" lon="3.6985">
        <ele>279.4</ele>
        <time>2021-08-11T08:08:35Z</time>
      </trkpt>
      <trkpt lat="47.74173" lon="3.69874">
        <ele>277.96</ele>
        <time>2021-08-11T08:08:44Z</time>
      </trkpt>
      <trkpt lat="47.74157" lon="3.69876">
        <ele>277.96</ele>
        <time>2021-08-11T08:08:47Z</time>
      </trkpt>
      <trkpt lat="47.74137" lon="3.69873">
        <ele>277.96</ele>
        <time>2021-08-11T08:08:51Z</time>
      </trkpt>
      <trkpt lat="47.74122" lon="3.69872">
        <ele>277.48</ele>
        <time>2021-08-11T08:08:54Z</time>
      </trkpt>
      <trkpt lat="47.74101" lon="3.69867">
        <ele>277.48</ele>
        <time>2021-08-11T08:08:58Z</time>
      </trkpt>
      <trkpt lat="47.74088" lon="3.6986">
        <ele>277.48</ele>
        <time>2021-08-11T08:09:01Z</time>
      </trkpt>
      <trkpt lat="47.74055" lon="3.69837">
        <ele>279.4</ele>
        <time>2021-08-11T08:09:09Z</time>
      </trkpt>
      <trkpt lat="47.74029" lon="3.69811">
        <ele>280.84</ele>
        <time>2021-08-11T08:09:17Z</time>
      </trkpt>
      <trkpt lat="47.74009" lon="3.69786">
        <ele>281.8</ele>
        <time>2021-08-11T08:09:24Z</time>
      </trkpt>
      <trkpt lat="47.73984" lon="3.69752">
        <ele>283.25</ele>
        <time>2021-08-11T08:09:34Z</time>
      </trkpt>
      <trkpt lat="47.73959" lon="3.69731">
        <ele>284.69</ele>
        <time>2021-08-11T08:09:43Z</time>
      </trkpt>
      <trkpt lat="47.73935" lon="3.6971">
        <ele>286.13</ele>
        <time>2021-08-11T08:09:52Z</time>
      </trkpt>
      <trkpt lat="47.73913" lon="3.69689">
        <ele>287.57</ele>
        <time>2021-08-11T08:10:00Z</time>
      </trkpt>
      <trkpt lat="47.73885" lon="3.69668">
        <ele>288.05</ele>
        <time>2021-08-11T08:10:09Z</time>
      </trkpt>
      <trkpt lat="47.7386" lon="3.6965">
        <ele>288.05</ele>
        <time>2021-08-11T08:10:17Z</time>
      </trkpt>
      <trkpt lat="47.73849" lon="3.69644">
        <ele>288.05</ele>
        <time>2021-08-11T08:10:20Z</time>
      </trkpt>
      <trkpt lat="47.73845" lon="3.69642">
        <ele>288.05</ele>
        <time>2021-08-11T08:10:21Z</time>
      </trkpt>
      <trkpt lat="47.73799" lon="3.69621">
        <ele>286.61</ele>
        <time>2021-08-11T08:10:31Z</time>
      </trkpt>
      <trkpt lat="47.73773" lon="3.69611">
        <ele>285.17</ele>
        <time>2021-08-11T08:10:36Z</time>
      </trkpt>
      <trkpt lat="47.73725" lon="3.69592">
        <ele>282.28</ele>
        <time>2021-08-11T08:10:44Z</time>
      </trkpt>
      <trkpt lat="47.73678" lon="3.69572">
        <ele>279.4</ele>
        <time>2021-08-11T08:10:51Z</time>
      </trkpt>
      <trkpt lat="47.73636" lon="3.69552">
        <ele>277.48</ele>
        <time>2021-08-11T08:10:56Z</time>
      </trkpt>
      <trkpt lat="47.73571" lon="3.69524">
        <ele>273.63</ele>
        <time>2021-08-11T08:11:03Z</time>
      </trkpt>
      <trkpt lat="47.73532" lon="3.69508">
        <ele>270.27</ele>
        <time>2021-08-11T08:11:07Z</time>
      </trkpt>
      <trkpt lat="47.73499" lon="3.695">
        <ele>266.42</ele>
        <time>2021-08-11T08:11:10Z</time>
      </trkpt>
      <trkpt lat="47.73459" lon="3.69493">
        <ele>262.58</ele>
        <time>2021-08-11T08:11:14Z</time>
      </trkpt>
      <trkpt lat="47.73412" lon="3.69475">
        <ele>258.25</ele>
        <time>2021-08-11T08:11:19Z</time>
      </trkpt>
      <trkpt lat="47.73378" lon="3.69461">
        <ele>256.33</ele>
        <time>2021-08-11T08:11:22Z</time>
      </trkpt>
      <trkpt lat="47.73346" lon="3.69449">
        <ele>254.41</ele>
        <time>2021-08-11T08:11:25Z</time>
      </trkpt>
      <trkpt lat="47.73305" lon="3.69435">
        <ele>252.48</ele>
        <time>2021-08-11T08:11:29Z</time>
      </trkpt>
      <trkpt lat="47.73295" lon="3.69435">
        <ele>252.48</ele>
        <time>2021-08-11T08:11:30Z</time>
      </trkpt>
      <trkpt lat="47.73285" lon="3.69437">
        <ele>252</ele>
        <time>2021-08-11T08:11:31Z</time>
      </trkpt>
      <trkpt lat="47.73219" lon="3.69457">
        <ele>248.64</ele>
        <time>2021-08-11T08:11:38Z</time>
      </trkpt>
      <trkpt lat="47.73209" lon="3.6946">
        <ele>248.64</ele>
        <time>2021-08-11T08:11:39Z</time>
      </trkpt>
      <trkpt lat="47.732" lon="3.69461">
        <ele>248.16</ele>
        <time>2021-08-11T08:11:40Z</time>
      </trkpt>
      <trkpt lat="47.73153" lon="3.6946">
        <ele>244.79</ele>
        <time>2021-08-11T08:11:45Z</time>
      </trkpt>
      <trkpt lat="47.73113" lon="3.69457">
        <ele>241.43</ele>
        <time>2021-08-11T08:11:49Z</time>
      </trkpt>
      <trkpt lat="47.73085" lon="3.69457">
        <ele>238.06</ele>
        <time>2021-08-11T08:11:52Z</time>
      </trkpt>
      <trkpt lat="47.73062" lon="3.69453">
        <ele>235.18</ele>
        <time>2021-08-11T08:11:55Z</time>
      </trkpt>
      <trkpt lat="47.73039" lon="3.69444">
        <ele>231.81</ele>
        <time>2021-08-11T08:11:58Z</time>
      </trkpt>
      <trkpt lat="47.73021" lon="3.69434">
        <ele>229.41</ele>
        <time>2021-08-11T08:12:00Z</time>
      </trkpt>
      <trkpt lat="47.73013" lon="3.69428">
        <ele>229.41</ele>
        <time>2021-08-11T08:12:01Z</time>
      </trkpt>
      <trkpt lat="47.72987" lon="3.69406">
        <ele>225.57</ele>
        <time>2021-08-11T08:12:04Z</time>
      </trkpt>
      <trkpt lat="47.72953" lon="3.6937">
        <ele>222.68</ele>
        <time>2021-08-11T08:12:08Z</time>
      </trkpt>
      <trkpt lat="47.7292" lon="3.69333">
        <ele>218.84</ele>
        <time>2021-08-11T08:12:12Z</time>
      </trkpt>
      <trkpt lat="47.72895" lon="3.69301">
        <ele>215.95</ele>
        <time>2021-08-11T08:12:15Z</time>
      </trkpt>
      <trkpt lat="47.72887" lon="3.69289">
        <ele>215.95</ele>
        <time>2021-08-11T08:12:16Z</time>
      </trkpt>
      <trkpt lat="47.72865" lon="3.69251">
        <ele>213.07</ele>
        <time>2021-08-11T08:12:19Z</time>
      </trkpt>
      <trkpt lat="47.72834" lon="3.69198">
        <ele>209.22</ele>
        <time>2021-08-11T08:12:23Z</time>
      </trkpt>
      <trkpt lat="47.72801" lon="3.69153">
        <ele>206.34</ele>
        <time>2021-08-11T08:12:27Z</time>
      </trkpt>
      <trkpt lat="47.72754" lon="3.69108">
        <ele>202.49</ele>
        <time>2021-08-11T08:12:32Z</time>
      </trkpt>
      <trkpt lat="47.72715" lon="3.69078">
        <ele>199.61</ele>
        <time>2021-08-11T08:12:36Z</time>
      </trkpt>
      <trkpt lat="47.72684" lon="3.69051">
        <ele>196.25</ele>
        <time>2021-08-11T08:12:40Z</time>
      </trkpt>
      <trkpt lat="47.72673" lon="3.69036">
        <ele>194.8</ele>
        <time>2021-08-11T08:12:42Z</time>
      </trkpt>
      <trkpt lat="47.72668" lon="3.69029">
        <ele>194.32</ele>
        <time>2021-08-11T08:12:43Z</time>
      </trkpt>
      <trkpt lat="47.72664" lon="3.69021">
        <ele>193.36</ele>
        <time>2021-08-11T08:12:44Z</time>
      </trkpt>
      <trkpt lat="47.72661" lon="3.69012">
        <ele>193.36</ele>
        <time>2021-08-11T08:12:45Z</time>
      </trkpt>
      <trkpt lat="47.72659" lon="3.69003">
        <ele>192.88</ele>
        <time>2021-08-11T08:12:46Z</time>
      </trkpt>
      <trkpt lat="47.72659" lon="3.68993">
        <ele>192.88</ele>
        <time>2021-08-11T08:12:47Z</time>
      </trkpt>
      <trkpt lat="47.72659" lon="3.68983">
        <ele>192.88</ele>
        <time>2021-08-11T08:12:48Z</time>
      </trkpt>
      <trkpt lat="47.7266" lon="3.68974">
        <ele>192.4</ele>
        <time>2021-08-11T08:12:49Z</time>
      </trkpt>
      <trkpt lat="47.72662" lon="3.68965">
        <ele>192.4</ele>
        <time>2021-08-11T08:12:50Z</time>
      </trkpt>
      <trkpt lat="47.72664" lon="3.68957">
        <ele>192.4</ele>
        <time>2021-08-11T08:12:51Z</time>
      </trkpt>
      <trkpt lat="47.72668" lon="3.68944">
        <ele>192.4</ele>
        <time>2021-08-11T08:12:53Z</time>
      </trkpt>
      <trkpt lat="47.72671" lon="3.68938">
        <ele>192.4</ele>
        <time>2021-08-11T08:12:54Z</time>
      </trkpt>
      <trkpt lat="47.7269" lon="3.68881">
        <ele>191.92</ele>
        <time>2021-08-11T08:13:02Z</time>
      </trkpt>
      <trkpt lat="47.72718" lon="3.68819">
        <ele>189.52</ele>
        <time>2021-08-11T08:13:10Z</time>
      </trkpt>
      <trkpt lat="47.72751" lon="3.68769">
        <ele>186.63</ele>
        <time>2021-08-11T08:13:17Z</time>
      </trkpt>
      <trkpt lat="47.7279" lon="3.68715">
        <ele>183.75</ele>
        <time>2021-08-11T08:13:25Z</time>
      </trkpt>
      <trkpt lat="47.72808" lon="3.68691">
        <ele>183.27</ele>
        <time>2021-08-11T08:13:29Z</time>
      </trkpt>
      <trkpt lat="47.72809" lon="3.68686">
        <ele>183.27</ele>
        <time>2021-08-11T08:13:30Z</time>
      </trkpt>
      <trkpt lat="47.72809" lon="3.6868">
        <ele>182.79</ele>
        <time>2021-08-11T08:13:31Z</time>
      </trkpt>
      <trkpt lat="47.72808" lon="3.68677">
        <ele>182.79</ele>
        <time>2021-08-11T08:13:32Z</time>
      </trkpt>
      <trkpt lat="47.72807" lon="3.68675">
        <ele>182.79</ele>
        <time>2021-08-11T08:13:33Z</time>
      </trkpt>
      <trkpt lat="47.72805" lon="3.68674">
        <ele>182.31</ele>
        <time>2021-08-11T08:13:38Z</time>
      </trkpt>
      <trkpt lat="47.728" lon="3.68665">
        <ele>181.83</ele>
        <time>2021-08-11T08:13:44Z</time>
      </trkpt>
      <trkpt lat="47.72786" lon="3.68644">
        <ele>179.42</ele>
        <time>2021-08-11T08:13:49Z</time>
      </trkpt>
      <trkpt lat="47.72764" lon="3.68613">
        <ele>176.54</ele>
        <time>2021-08-11T08:13:54Z</time>
      </trkpt>
      <trkpt lat="47.72729" lon="3.6857">
        <ele>175.58</ele>
        <time>2021-08-11T08:14:02Z</time>
      </trkpt>
      <trkpt lat="47.72724" lon="3.68569">
        <ele>175.58</ele>
        <time>2021-08-11T08:14:03Z</time>
      </trkpt>
      <trkpt lat="47.72719" lon="3.68571">
        <ele>175.58</ele>
        <time>2021-08-11T08:14:04Z</time>
      </trkpt>
      <trkpt lat="47.72715" lon="3.68574">
        <ele>175.58</ele>
        <time>2021-08-11T08:14:05Z</time>
      </trkpt>
      <trkpt lat="47.72712" lon="3.68578">
        <ele>175.58</ele>
        <time>2021-08-11T08:14:06Z</time>
      </trkpt>
      <trkpt lat="47.72708" lon="3.68583">
        <ele>175.58</ele>
        <time>2021-08-11T08:14:07Z</time>
      </trkpt>
      <trkpt lat="47.72678" lon="3.68619">
        <ele>175.58</ele>
        <time>2021-08-11T08:14:16Z</time>
      </trkpt>
      <trkpt lat="47.72648" lon="3.68639">
        <ele>177.5</ele>
        <time>2021-08-11T08:14:25Z</time>
      </trkpt>
      <trkpt lat="47.72622" lon="3.68645">
        <ele>178.46</ele>
        <time>2021-08-11T08:14:33Z</time>
      </trkpt>
      <trkpt lat="47.72594" lon="3.68664">
        <ele>178.46</ele>
        <time>2021-08-11T08:14:42Z</time>
      </trkpt>
      <trkpt lat="47.72566" lon="3.68688">
        <ele>178.94</ele>
        <time>2021-08-11T08:14:52Z</time>
      </trkpt>
      <trkpt lat="47.72542" lon="3.68711">
        <ele>179.9</ele>
        <time>2021-08-11T08:15:02Z</time>
      </trkpt>
      <trkpt lat="47.7253" lon="3.68724">
        <ele>180.87</ele>
        <time>2021-08-11T08:15:07Z</time>
      </trkpt>
      <trkpt lat="47.72522" lon="3.68729">
        <ele>181.35</ele>
        <time>2021-08-11T08:15:11Z</time>
      </trkpt>
      <trkpt lat="47.72506" lon="3.68747">
        <ele>181.83</ele>
        <time>2021-08-11T08:15:19Z</time>
      </trkpt>
      <trkpt lat="47.72491" lon="3.68752">
        <ele>182.31</ele>
        <time>2021-08-11T08:15:25Z</time>
      </trkpt>
      <trkpt lat="47.72488" lon="3.68751">
        <ele>182.79</ele>
        <time>2021-08-11T08:15:26Z</time>
      </trkpt>
      <trkpt lat="47.72487" lon="3.68749">
        <ele>182.79</ele>
        <time>2021-08-11T08:15:27Z</time>
      </trkpt>
      <trkpt lat="47.72485" lon="3.68747">
        <ele>183.27</ele>
        <time>2021-08-11T08:15:28Z</time>
      </trkpt>
      <trkpt lat="47.72475" lon="3.6873">
        <ele>184.23</ele>
        <time>2021-08-11T08:15:37Z</time>
      </trkpt>
      <trkpt lat="47.72467" lon="3.68713">
        <ele>185.67</ele>
        <time>2021-08-11T08:15:46Z</time>
      </trkpt>
      <trkpt lat="47.72465" lon="3.6871">
        <ele>185.67</ele>
        <time>2021-08-11T08:15:48Z</time>
      </trkpt>
      <trkpt lat="47.72465" lon="3.68708">
        <ele>185.67</ele>
        <time>2021-08-11T08:15:49Z</time>
      </trkpt>
      <trkpt lat="47.72465" lon="3.68706">
        <ele>186.15</ele>
        <time>2021-08-11T08:15:50Z</time>
      </trkpt>
      <trkpt lat="47.72463" lon="3.68702">
        <ele>186.15</ele>
        <time>2021-08-11T08:15:52Z</time>
      </trkpt>
      <trkpt lat="47.72461" lon="3.68699">
        <ele>186.63</ele>
        <time>2021-08-11T08:15:54Z</time>
      </trkpt>
      <trkpt lat="47.72461" lon="3.68697">
        <ele>186.63</ele>
        <time>2021-08-11T08:15:55Z</time>
      </trkpt>
      <trkpt lat="47.72454" lon="3.68678">
        <ele>189.04</ele>
        <time>2021-08-11T08:16:05Z</time>
      </trkpt>
      <trkpt lat="47.72451" lon="3.68674">
        <ele>189.04</ele>
        <time>2021-08-11T08:16:08Z</time>
      </trkpt>
      <trkpt lat="47.7245" lon="3.68672">
        <ele>190</ele>
        <time>2021-08-11T08:16:09Z</time>
      </trkpt>
      <trkpt lat="47.72449" lon="3.68671">
        <ele>190</ele>
        <time>2021-08-11T08:16:10Z</time>
      </trkpt>
      <trkpt lat="47.72447" lon="3.68665">
        <ele>190.96</ele>
        <time>2021-08-11T08:16:15Z</time>
      </trkpt>
      <trkpt lat="47.72443" lon="3.68656">
        <ele>191.92</ele>
        <time>2021-08-11T08:16:24Z</time>
      </trkpt>
      <trkpt lat="47.72439" lon="3.68645">
        <ele>193.36</ele>
        <time>2021-08-11T08:16:33Z</time>
      </trkpt>
      <trkpt lat="47.72437" lon="3.68641">
        <ele>193.84</ele>
        <time>2021-08-11T08:16:37Z</time>
      </trkpt>
      <trkpt lat="47.72436" lon="3.6864">
        <ele>193.84</ele>
        <time>2021-08-11T08:16:38Z</time>
      </trkpt>
      <trkpt lat="47.72433" lon="3.68637">
        <ele>194.32</ele>
        <time>2021-08-11T08:16:42Z</time>
      </trkpt>
      <trkpt lat="47.72426" lon="3.68627">
        <ele>195.77</ele>
        <time>2021-08-11T08:16:53Z</time>
      </trkpt>
      <trkpt lat="47.7242" lon="3.68619">
        <ele>197.21</ele>
        <time>2021-08-11T08:17:02Z</time>
      </trkpt>
      <trkpt lat="47.72416" lon="3.68612">
        <ele>198.17</ele>
        <time>2021-08-11T08:17:09Z</time>
      </trkpt>
      <trkpt lat="47.72412" lon="3.68604">
        <ele>199.13</ele>
        <time>2021-08-11T08:17:16Z</time>
      </trkpt>
      <trkpt lat="47.72406" lon="3.68595">
        <ele>199.61</ele>
        <time>2021-08-11T08:17:24Z</time>
      </trkpt>
      <trkpt lat="47.72402" lon="3.68587">
        <ele>201.05</ele>
        <time>2021-08-11T08:17:31Z</time>
      </trkpt>
      <trkpt lat="47.72397" lon="3.68574">
        <ele>202.49</ele>
        <time>2021-08-11T08:17:40Z</time>
      </trkpt>
      <trkpt lat="47.72391" lon="3.68564">
        <ele>203.46</ele>
        <time>2021-08-11T08:17:48Z</time>
      </trkpt>
      <trkpt lat="47.7239" lon="3.68563">
        <ele>203.46</ele>
        <time>2021-08-11T08:17:49Z</time>
      </trkpt>
      <trkpt lat="47.72389" lon="3.68562">
        <ele>203.46</ele>
        <time>2021-08-11T08:17:50Z</time>
      </trkpt>
      <trkpt lat="47.72382" lon="3.68553">
        <ele>204.42</ele>
        <time>2021-08-11T08:17:58Z</time>
      </trkpt>
      <trkpt lat="47.72371" lon="3.6854">
        <ele>204.9</ele>
        <time>2021-08-11T08:18:09Z</time>
      </trkpt>
      <trkpt lat="47.72367" lon="3.68532">
        <ele>205.38</ele>
        <time>2021-08-11T08:18:16Z</time>
      </trkpt>
      <trkpt lat="47.72364" lon="3.68523">
        <ele>205.86</ele>
        <time>2021-08-11T08:18:22Z</time>
      </trkpt>
      <trkpt lat="47.72356" lon="3.68507">
        <ele>206.82</ele>
        <time>2021-08-11T08:18:31Z</time>
      </trkpt>
      <trkpt lat="47.72349" lon="3.68491">
        <ele>208.26</ele>
        <time>2021-08-11T08:18:39Z</time>
      </trkpt>
      <trkpt lat="47.72347" lon="3.68488">
        <ele>208.26</ele>
        <time>2021-08-11T08:18:41Z</time>
      </trkpt>
      <trkpt lat="47.72346" lon="3.68486">
        <ele>208.26</ele>
        <time>2021-08-11T08:18:42Z</time>
      </trkpt>
      <trkpt lat="47.72345" lon="3.68485">
        <ele>208.74</ele>
        <time>2021-08-11T08:18:43Z</time>
      </trkpt>
      <trkpt lat="47.72344" lon="3.68483">
        <ele>208.74</ele>
        <time>2021-08-11T08:18:44Z</time>
      </trkpt>
      <trkpt lat="47.72344" lon="3.68481">
        <ele>209.22</ele>
        <time>2021-08-11T08:18:45Z</time>
      </trkpt>
      <trkpt lat="47.72343" lon="3.68479">
        <ele>209.22</ele>
        <time>2021-08-11T08:18:46Z</time>
      </trkpt>
      <trkpt lat="47.72342" lon="3.68477">
        <ele>209.22</ele>
        <time>2021-08-11T08:18:47Z</time>
      </trkpt>
      <trkpt lat="47.72341" lon="3.68475">
        <ele>209.22</ele>
        <time>2021-08-11T08:18:48Z</time>
      </trkpt>
      <trkpt lat="47.72336" lon="3.68461">
        <ele>210.19</ele>
        <time>2021-08-11T08:18:56Z</time>
      </trkpt>
      <trkpt lat="47.72331" lon="3.68447">
        <ele>211.15</ele>
        <time>2021-08-11T08:19:04Z</time>
      </trkpt>
      <trkpt lat="47.72324" lon="3.6843">
        <ele>213.07</ele>
        <time>2021-08-11T08:19:13Z</time>
      </trkpt>
      <trkpt lat="47.7232" lon="3.6842">
        <ele>214.03</ele>
        <time>2021-08-11T08:19:20Z</time>
      </trkpt>
      <trkpt lat="47.72319" lon="3.68419">
        <ele>214.03</ele>
        <time>2021-08-11T08:19:21Z</time>
      </trkpt>
      <trkpt lat="47.72318" lon="3.68417">
        <ele>214.03</ele>
        <time>2021-08-11T08:19:22Z</time>
      </trkpt>
      <trkpt lat="47.72317" lon="3.68415">
        <ele>214.51</ele>
        <time>2021-08-11T08:19:23Z</time>
      </trkpt>
      <trkpt lat="47.72311" lon="3.68406">
        <ele>214.99</ele>
        <time>2021-08-11T08:19:30Z</time>
      </trkpt>
      <trkpt lat="47.72304" lon="3.68395">
        <ele>216.43</ele>
        <time>2021-08-11T08:19:37Z</time>
      </trkpt>
      <trkpt lat="47.72302" lon="3.68392">
        <ele>216.91</ele>
        <time>2021-08-11T08:19:39Z</time>
      </trkpt>
      <trkpt lat="47.72297" lon="3.68381">
        <ele>217.88</ele>
        <time>2021-08-11T08:19:47Z</time>
      </trkpt>
      <trkpt lat="47.72296" lon="3.68378">
        <ele>218.36</ele>
        <time>2021-08-11T08:19:49Z</time>
      </trkpt>
      <trkpt lat="47.7229" lon="3.68368">
        <ele>219.8</ele>
        <time>2021-08-11T08:19:56Z</time>
      </trkpt>
      <trkpt lat="47.7229" lon="3.68367">
        <ele>219.8</ele>
        <time>2021-08-11T08:19:57Z</time>
      </trkpt>
      <trkpt lat="47.72284" lon="3.68359">
        <ele>221.24</ele>
        <time>2021-08-11T08:20:05Z</time>
      </trkpt>
      <trkpt lat="47.72279" lon="3.68349">
        <ele>222.68</ele>
        <time>2021-08-11T08:20:13Z</time>
      </trkpt>
      <trkpt lat="47.72276" lon="3.6834">
        <ele>224.61</ele>
        <time>2021-08-11T08:20:22Z</time>
      </trkpt>
      <trkpt lat="47.72274" lon="3.6833">
        <ele>225.09</ele>
        <time>2021-08-11T08:20:31Z</time>
      </trkpt>
      <trkpt lat="47.72269" lon="3.68322">
        <ele>226.53</ele>
        <time>2021-08-11T08:20:39Z</time>
      </trkpt>
      <trkpt lat="47.72266" lon="3.68315">
        <ele>227.49</ele>
        <time>2021-08-11T08:20:47Z</time>
      </trkpt>
      <trkpt lat="47.72262" lon="3.68306">
        <ele>228.45</ele>
        <time>2021-08-11T08:20:56Z</time>
      </trkpt>
      <trkpt lat="47.72258" lon="3.68298">
        <ele>230.37</ele>
        <time>2021-08-11T08:21:04Z</time>
      </trkpt>
      <trkpt lat="47.72253" lon="3.68292">
        <ele>231.33</ele>
        <time>2021-08-11T08:21:11Z</time>
      </trkpt>
      <trkpt lat="47.72245" lon="3.68282">
        <ele>232.78</ele>
        <time>2021-08-11T08:21:21Z</time>
      </trkpt>
      <trkpt lat="47.72238" lon="3.68275">
        <ele>233.74</ele>
        <time>2021-08-11T08:21:29Z</time>
      </trkpt>
      <trkpt lat="47.72231" lon="3.68267">
        <ele>235.18</ele>
        <time>2021-08-11T08:21:37Z</time>
      </trkpt>
      <trkpt lat="47.72223" lon="3.6826">
        <ele>237.1</ele>
        <time>2021-08-11T08:21:46Z</time>
      </trkpt>
      <trkpt lat="47.72214" lon="3.68254">
        <ele>238.06</ele>
        <time>2021-08-11T08:21:55Z</time>
      </trkpt>
      <trkpt lat="47.72207" lon="3.68246">
        <ele>239.02</ele>
        <time>2021-08-11T08:22:04Z</time>
      </trkpt>
      <trkpt lat="47.72199" lon="3.68239">
        <ele>240.95</ele>
        <time>2021-08-11T08:22:14Z</time>
      </trkpt>
      <trkpt lat="47.72191" lon="3.68232">
        <ele>242.39</ele>
        <time>2021-08-11T08:22:23Z</time>
      </trkpt>
      <trkpt lat="47.72185" lon="3.68225">
        <ele>243.35</ele>
        <time>2021-08-11T08:22:31Z</time>
      </trkpt>
      <trkpt lat="47.72177" lon="3.68219">
        <ele>244.79</ele>
        <time>2021-08-11T08:22:40Z</time>
      </trkpt>
      <trkpt lat="47.7217" lon="3.68211">
        <ele>245.75</ele>
        <time>2021-08-11T08:22:48Z</time>
      </trkpt>
      <trkpt lat="47.72166" lon="3.68208">
        <ele>246.23</ele>
        <time>2021-08-11T08:22:51Z</time>
      </trkpt>
      <trkpt lat="47.72165" lon="3.68207">
        <ele>246.23</ele>
        <time>2021-08-11T08:22:52Z</time>
      </trkpt>
      <trkpt lat="47.72164" lon="3.68206">
        <ele>246.23</ele>
        <time>2021-08-11T08:22:53Z</time>
      </trkpt>
      <trkpt lat="47.72163" lon="3.68205">
        <ele>246.23</ele>
        <time>2021-08-11T08:22:54Z</time>
      </trkpt>
      <trkpt lat="47.72162" lon="3.68204">
        <ele>247.2</ele>
        <time>2021-08-11T08:22:55Z</time>
      </trkpt>
      <trkpt lat="47.72159" lon="3.68201">
        <ele>247.2</ele>
        <time>2021-08-11T08:23:00Z</time>
      </trkpt>
      <trkpt lat="47.72158" lon="3.682">
        <ele>247.2</ele>
        <time>2021-08-11T08:23:01Z</time>
      </trkpt>
      <trkpt lat="47.72157" lon="3.68199">
        <ele>247.2</ele>
        <time>2021-08-11T08:23:02Z</time>
      </trkpt>
      <trkpt lat="47.72149" lon="3.68191">
        <ele>247.68</ele>
        <time>2021-08-11T08:23:09Z</time>
      </trkpt>
      <trkpt lat="47.72147" lon="3.68188">
        <ele>248.64</ele>
        <time>2021-08-11T08:23:11Z</time>
      </trkpt>
      <trkpt lat="47.72146" lon="3.68187">
        <ele>248.64</ele>
        <time>2021-08-11T08:23:12Z</time>
      </trkpt>
      <trkpt lat="47.72146" lon="3.68185">
        <ele>248.16</ele>
        <time>2021-08-11T08:23:13Z</time>
      </trkpt>
      <trkpt lat="47.72145" lon="3.68184">
        <ele>248.64</ele>
        <time>2021-08-11T08:23:14Z</time>
      </trkpt>
      <trkpt lat="47.72144" lon="3.68183">
        <ele>248.64</ele>
        <time>2021-08-11T08:23:15Z</time>
      </trkpt>
      <trkpt lat="47.72143" lon="3.68182">
        <ele>248.64</ele>
        <time>2021-08-11T08:23:16Z</time>
      </trkpt>
      <trkpt lat="47.72142" lon="3.68181">
        <ele>248.64</ele>
        <time>2021-08-11T08:23:17Z</time>
      </trkpt>
      <trkpt lat="47.72142" lon="3.68179">
        <ele>249.6</ele>
        <time>2021-08-11T08:23:18Z</time>
      </trkpt>
      <trkpt lat="47.72141" lon="3.68178">
        <ele>249.6</ele>
        <time>2021-08-11T08:23:19Z</time>
      </trkpt>
      <trkpt lat="47.7214" lon="3.68177">
        <ele>250.08</ele>
        <time>2021-08-11T08:23:20Z</time>
      </trkpt>
      <trkpt lat="47.72139" lon="3.68176">
        <ele>250.08</ele>
        <time>2021-08-11T08:23:21Z</time>
      </trkpt>
      <trkpt lat="47.72138" lon="3.68174">
        <ele>250.08</ele>
        <time>2021-08-11T08:23:22Z</time>
      </trkpt>
      <trkpt lat="47.72138" lon="3.68173">
        <ele>250.08</ele>
        <time>2021-08-11T08:23:23Z</time>
      </trkpt>
      <trkpt lat="47.72137" lon="3.68171">
        <ele>250.56</ele>
        <time>2021-08-11T08:23:24Z</time>
      </trkpt>
      <trkpt lat="47.72137" lon="3.68169">
        <ele>250.56</ele>
        <time>2021-08-11T08:23:25Z</time>
      </trkpt>
      <trkpt lat="47.72137" lon="3.68167">
        <ele>250.56</ele>
        <time>2021-08-11T08:23:26Z</time>
      </trkpt>
      <trkpt lat="47.72132" lon="3.68158">
        <ele>251.52</ele>
        <time>2021-08-11T08:23:32Z</time>
      </trkpt>
      <trkpt lat="47.72128" lon="3.68149">
        <ele>252.96</ele>
        <time>2021-08-11T08:23:38Z</time>
      </trkpt>
      <trkpt lat="47.72127" lon="3.68147">
        <ele>252.96</ele>
        <time>2021-08-11T08:23:39Z</time>
      </trkpt>
      <trkpt lat="47.72126" lon="3.68146">
        <ele>252.96</ele>
        <time>2021-08-11T08:23:40Z</time>
      </trkpt>
      <trkpt lat="47.72125" lon="3.68145">
        <ele>252.96</ele>
        <time>2021-08-11T08:23:41Z</time>
      </trkpt>
      <trkpt lat="47.72124" lon="3.68143">
        <ele>252.96</ele>
        <time>2021-08-11T08:23:42Z</time>
      </trkpt>
      <trkpt lat="47.72124" lon="3.68142">
        <ele>253.44</ele>
        <time>2021-08-11T08:23:43Z</time>
      </trkpt>
      <trkpt lat="47.72121" lon="3.68136">
        <ele>254.41</ele>
        <time>2021-08-11T08:23:47Z</time>
      </trkpt>
      <trkpt lat="47.72119" lon="3.6813">
        <ele>254.41</ele>
        <time>2021-08-11T08:23:51Z</time>
      </trkpt>
      <trkpt lat="47.72119" lon="3.68128">
        <ele>254.41</ele>
        <time>2021-08-11T08:23:52Z</time>
      </trkpt>
      <trkpt lat="47.72118" lon="3.68126">
        <ele>254.41</ele>
        <time>2021-08-11T08:23:54Z</time>
      </trkpt>
      <trkpt lat="47.72112" lon="3.68115">
        <ele>256.33</ele>
        <time>2021-08-11T08:24:02Z</time>
      </trkpt>
      <trkpt lat="47.72112" lon="3.68113">
        <ele>256.33</ele>
        <time>2021-08-11T08:24:03Z</time>
      </trkpt>
      <trkpt lat="47.72111" lon="3.68112">
        <ele>256.33</ele>
        <time>2021-08-11T08:24:04Z</time>
      </trkpt>
      <trkpt lat="47.7211" lon="3.6811">
        <ele>256.81</ele>
        <time>2021-08-11T08:24:05Z</time>
      </trkpt>
      <trkpt lat="47.7211" lon="3.68109">
        <ele>256.81</ele>
        <time>2021-08-11T08:24:06Z</time>
      </trkpt>
      <trkpt lat="47.72109" lon="3.68107">
        <ele>257.29</ele>
        <time>2021-08-11T08:24:07Z</time>
      </trkpt>
      <trkpt lat="47.72107" lon="3.681">
        <ele>258.25</ele>
        <time>2021-08-11T08:24:12Z</time>
      </trkpt>
      <trkpt lat="47.721" lon="3.68089">
        <ele>259.21</ele>
        <time>2021-08-11T08:24:21Z</time>
      </trkpt>
      <trkpt lat="47.72099" lon="3.68086">
        <ele>259.69</ele>
        <time>2021-08-11T08:24:23Z</time>
      </trkpt>
      <trkpt lat="47.72094" lon="3.68076">
        <ele>261.14</ele>
        <time>2021-08-11T08:24:31Z</time>
      </trkpt>
      <trkpt lat="47.72087" lon="3.68067">
        <ele>262.58</ele>
        <time>2021-08-11T08:24:39Z</time>
      </trkpt>
      <trkpt lat="47.72084" lon="3.68063">
        <ele>263.06</ele>
        <time>2021-08-11T08:24:42Z</time>
      </trkpt>
      <trkpt lat="47.72082" lon="3.68063">
        <ele>263.06</ele>
        <time>2021-08-11T08:24:43Z</time>
      </trkpt>
      <trkpt lat="47.72081" lon="3.68062">
        <ele>263.54</ele>
        <time>2021-08-11T08:24:44Z</time>
      </trkpt>
      <trkpt lat="47.7208" lon="3.68061">
        <ele>263.54</ele>
        <time>2021-08-11T08:24:45Z</time>
      </trkpt>
      <trkpt lat="47.72079" lon="3.6806">
        <ele>263.54</ele>
        <time>2021-08-11T08:24:46Z</time>
      </trkpt>
      <trkpt lat="47.72077" lon="3.68059">
        <ele>263.54</ele>
        <time>2021-08-11T08:24:47Z</time>
      </trkpt>
      <trkpt lat="47.72076" lon="3.68057">
        <ele>264.5</ele>
        <time>2021-08-11T08:24:48Z</time>
      </trkpt>
      <trkpt lat="47.72066" lon="3.68044">
        <ele>265.46</ele>
        <time>2021-08-11T08:24:57Z</time>
      </trkpt>
      <trkpt lat="47.72061" lon="3.68037">
        <ele>265.46</ele>
        <time>2021-08-11T08:25:02Z</time>
      </trkpt>
      <trkpt lat="47.72056" lon="3.68029">
        <ele>266.42</ele>
        <time>2021-08-11T08:25:08Z</time>
      </trkpt>
      <trkpt lat="47.72054" lon="3.68026">
        <ele>266.42</ele>
        <time>2021-08-11T08:25:10Z</time>
      </trkpt>
      <trkpt lat="47.72053" lon="3.68025">
        <ele>266.42</ele>
        <time>2021-08-11T08:25:11Z</time>
      </trkpt>
      <trkpt lat="47.72043" lon="3.68016">
        <ele>267.86</ele>
        <time>2021-08-11T08:25:20Z</time>
      </trkpt>
      <trkpt lat="47.72034" lon="3.68008">
        <ele>268.83</ele>
        <time>2021-08-11T08:25:27Z</time>
      </trkpt>
      <trkpt lat="47.72019" lon="3.68">
        <ele>269.79</ele>
        <time>2021-08-11T08:25:36Z</time>
      </trkpt>
      <trkpt lat="47.71996" lon="3.67994">
        <ele>270.75</ele>
        <time>2021-08-11T08:25:47Z</time>
      </trkpt>
      <trkpt lat="47.71969" lon="3.67991">
        <ele>272.19</ele>
        <time>2021-08-11T08:26:00Z</time>
      </trkpt>
      <trkpt lat="47.71963" lon="3.67992">
        <ele>272.19</ele>
        <time>2021-08-11T08:26:03Z</time>
      </trkpt>
      <trkpt lat="47.71961" lon="3.67993">
        <ele>272.19</ele>
        <time>2021-08-11T08:26:04Z</time>
      </trkpt>
      <trkpt lat="47.71946" lon="3.68007">
        <ele>273.15</ele>
        <time>2021-08-11T08:26:12Z</time>
      </trkpt>
      <trkpt lat="47.71928" lon="3.68025">
        <ele>273.15</ele>
        <time>2021-08-11T08:26:21Z</time>
      </trkpt>
      <trkpt lat="47.71916" lon="3.68029">
        <ele>273.63</ele>
        <time>2021-08-11T08:26:27Z</time>
      </trkpt>
      <trkpt lat="47.71912" lon="3.68025">
        <ele>273.63</ele>
        <time>2021-08-11T08:26:29Z</time>
      </trkpt>
      <trkpt lat="47.71912" lon="3.68021">
        <ele>273.63</ele>
        <time>2021-08-11T08:26:30Z</time>
      </trkpt>
      <trkpt lat="47.71912" lon="3.68017">
        <ele>273.63</ele>
        <time>2021-08-11T08:26:31Z</time>
      </trkpt>
      <trkpt lat="47.71913" lon="3.68013">
        <ele>273.63</ele>
        <time>2021-08-11T08:26:32Z</time>
      </trkpt>
      <trkpt lat="47.71915" lon="3.68009">
        <ele>273.63</ele>
        <time>2021-08-11T08:26:33Z</time>
      </trkpt>
      <trkpt lat="47.71917" lon="3.68004">
        <ele>273.63</ele>
        <time>2021-08-11T08:26:34Z</time>
      </trkpt>
      <trkpt lat="47.71919" lon="3.67999">
        <ele>272.19</ele>
        <time>2021-08-11T08:26:35Z</time>
      </trkpt>
      <trkpt lat="47.71939" lon="3.6795">
        <ele>270.75</ele>
        <time>2021-08-11T08:26:43Z</time>
      </trkpt>
      <trkpt lat="47.71963" lon="3.67889">
        <ele>269.79</ele>
        <time>2021-08-11T08:26:52Z</time>
      </trkpt>
      <trkpt lat="47.71986" lon="3.67832">
        <ele>269.31</ele>
        <time>2021-08-11T08:27:01Z</time>
      </trkpt>
      <trkpt lat="47.71994" lon="3.67812">
        <ele>268.83</ele>
        <time>2021-08-11T08:27:04Z</time>
      </trkpt>
      <trkpt lat="47.72003" lon="3.6776">
        <ele>267.86</ele>
        <time>2021-08-11T08:27:11Z</time>
      </trkpt>
      <trkpt lat="47.72005" lon="3.67746">
        <ele>267.38</ele>
        <time>2021-08-11T08:27:13Z</time>
      </trkpt>
      <trkpt lat="47.72005" lon="3.67741">
        <ele>267.38</ele>
        <time>2021-08-11T08:27:14Z</time>
      </trkpt>
      <trkpt lat="47.72005" lon="3.67735">
        <ele>267.38</ele>
        <time>2021-08-11T08:27:15Z</time>
      </trkpt>
      <trkpt lat="47.72006" lon="3.67722">
        <ele>266.9</ele>
        <time>2021-08-11T08:27:17Z</time>
      </trkpt>
      <trkpt lat="47.72007" lon="3.67716">
        <ele>266.9</ele>
        <time>2021-08-11T08:27:18Z</time>
      </trkpt>
      <trkpt lat="47.72007" lon="3.67711">
        <ele>266.42</ele>
        <time>2021-08-11T08:27:19Z</time>
      </trkpt>
      <trkpt lat="47.72008" lon="3.67708">
        <ele>266.42</ele>
        <time>2021-08-11T08:27:20Z</time>
      </trkpt>
      <trkpt lat="47.72009" lon="3.67705">
        <ele>266.42</ele>
        <time>2021-08-11T08:27:21Z</time>
      </trkpt>
      <trkpt lat="47.72009" lon="3.67704">
        <ele>266.42</ele>
        <time>2021-08-11T08:27:22Z</time>
      </trkpt>
      <trkpt lat="47.72008" lon="3.67701">
        <ele>266.42</ele>
        <time>2021-08-11T08:27:23Z</time>
      </trkpt>
      <trkpt lat="47.72007" lon="3.67674">
        <ele>264.98</ele>
        <time>2021-08-11T08:27:28Z</time>
      </trkpt>
      <trkpt lat="47.72005" lon="3.6762">
        <ele>263.54</ele>
        <time>2021-08-11T08:27:35Z</time>
      </trkpt>
      <trkpt lat="47.71998" lon="3.67547">
        <ele>261.14</ele>
        <time>2021-08-11T08:27:43Z</time>
      </trkpt>
      <trkpt lat="47.71982" lon="3.6747">
        <ele>258.73</ele>
        <time>2021-08-11T08:27:51Z</time>
      </trkpt>
      <trkpt lat="47.71963" lon="3.6741">
        <ele>254.89</ele>
        <time>2021-08-11T08:27:56Z</time>
      </trkpt>
      <trkpt lat="47.71935" lon="3.67353">
        <ele>251.52</ele>
        <time>2021-08-11T08:28:01Z</time>
      </trkpt>
      <trkpt lat="47.71906" lon="3.67308">
        <ele>248.64</ele>
        <time>2021-08-11T08:28:05Z</time>
      </trkpt>
      <trkpt lat="47.7188" lon="3.67277">
        <ele>244.31</ele>
        <time>2021-08-11T08:28:08Z</time>
      </trkpt>
      <trkpt lat="47.71854" lon="3.67249">
        <ele>242.87</ele>
        <time>2021-08-11T08:28:11Z</time>
      </trkpt>
      <trkpt lat="47.71835" lon="3.67228">
        <ele>240.95</ele>
        <time>2021-08-11T08:28:14Z</time>
      </trkpt>
      <trkpt lat="47.71831" lon="3.67224">
        <ele>240.95</ele>
        <time>2021-08-11T08:28:15Z</time>
      </trkpt>
      <trkpt lat="47.71828" lon="3.67221">
        <ele>240.95</ele>
        <time>2021-08-11T08:28:16Z</time>
      </trkpt>
      <trkpt lat="47.71825" lon="3.67219">
        <ele>240.47</ele>
        <time>2021-08-11T08:28:17Z</time>
      </trkpt>
      <trkpt lat="47.71824" lon="3.67218">
        <ele>240.47</ele>
        <time>2021-08-11T08:28:18Z</time>
      </trkpt>
      <trkpt lat="47.71822" lon="3.67213">
        <ele>239.99</ele>
        <time>2021-08-11T08:28:24Z</time>
      </trkpt>
      <trkpt lat="47.71821" lon="3.6721">
        <ele>239.99</ele>
        <time>2021-08-11T08:28:26Z</time>
      </trkpt>
      <trkpt lat="47.7182" lon="3.67208">
        <ele>239.99</ele>
        <time>2021-08-11T08:28:27Z</time>
      </trkpt>
      <trkpt lat="47.71819" lon="3.67206">
        <ele>239.99</ele>
        <time>2021-08-11T08:28:28Z</time>
      </trkpt>
      <trkpt lat="47.71817" lon="3.67203">
        <ele>239.51</ele>
        <time>2021-08-11T08:28:29Z</time>
      </trkpt>
      <trkpt lat="47.71815" lon="3.67201">
        <ele>239.51</ele>
        <time>2021-08-11T08:28:30Z</time>
      </trkpt>
      <trkpt lat="47.71796" lon="3.67173">
        <ele>238.54</ele>
        <time>2021-08-11T08:28:36Z</time>
      </trkpt>
      <trkpt lat="47.71767" lon="3.67132">
        <ele>237.1</ele>
        <time>2021-08-11T08:28:44Z</time>
      </trkpt>
      <trkpt lat="47.71727" lon="3.67075">
        <ele>233.74</ele>
        <time>2021-08-11T08:28:54Z</time>
      </trkpt>
      <trkpt lat="47.71703" lon="3.67046">
        <ele>231.33</ele>
        <time>2021-08-11T08:28:59Z</time>
      </trkpt>
      <trkpt lat="47.71671" lon="3.6699">
        <ele>228.45</ele>
        <time>2021-08-11T08:29:07Z</time>
      </trkpt>
      <trkpt lat="47.71644" lon="3.66915">
        <ele>225.09</ele>
        <time>2021-08-11T08:29:16Z</time>
      </trkpt>
      <trkpt lat="47.71638" lon="3.66898">
        <ele>224.61</ele>
        <time>2021-08-11T08:29:18Z</time>
      </trkpt>
      <trkpt lat="47.71636" lon="3.66889">
        <ele>224.12</ele>
        <time>2021-08-11T08:29:19Z</time>
      </trkpt>
      <trkpt lat="47.71635" lon="3.6688">
        <ele>224.12</ele>
        <time>2021-08-11T08:29:20Z</time>
      </trkpt>
      <trkpt lat="47.71634" lon="3.66816">
        <ele>223.16</ele>
        <time>2021-08-11T08:29:27Z</time>
      </trkpt>
      <trkpt lat="47.71642" lon="3.66753">
        <ele>223.16</ele>
        <time>2021-08-11T08:29:35Z</time>
      </trkpt>
      <trkpt lat="47.7166" lon="3.6669">
        <ele>224.61</ele>
        <time>2021-08-11T08:29:45Z</time>
      </trkpt>
      <trkpt lat="47.7168" lon="3.66642">
        <ele>225.09</ele>
        <time>2021-08-11T08:29:54Z</time>
      </trkpt>
      <trkpt lat="47.71682" lon="3.66637">
        <ele>225.09</ele>
        <time>2021-08-11T08:29:55Z</time>
      </trkpt>
      <trkpt lat="47.71696" lon="3.66613">
        <ele>225.09</ele>
        <time>2021-08-11T08:30:00Z</time>
      </trkpt>
      <trkpt lat="47.71699" lon="3.66609">
        <ele>225.09</ele>
        <time>2021-08-11T08:30:01Z</time>
      </trkpt>
      <trkpt lat="47.71702" lon="3.66605">
        <ele>225.09</ele>
        <time>2021-08-11T08:30:02Z</time>
      </trkpt>
      <trkpt lat="47.7171" lon="3.66592">
        <ele>225.09</ele>
        <time>2021-08-11T08:30:05Z</time>
      </trkpt>
      <trkpt lat="47.71744" lon="3.66562">
        <ele>223.64</ele>
        <time>2021-08-11T08:30:14Z</time>
      </trkpt>
      <trkpt lat="47.71753" lon="3.66556">
        <ele>222.68</ele>
        <time>2021-08-11T08:30:16Z</time>
      </trkpt>
      <trkpt lat="47.71765" lon="3.66551">
        <ele>222.2</ele>
        <time>2021-08-11T08:30:18Z</time>
      </trkpt>
      <trkpt lat="47.71779" lon="3.66546">
        <ele>220.28</ele>
        <time>2021-08-11T08:30:22Z</time>
      </trkpt>
      <trkpt lat="47.71781" lon="3.66544">
        <ele>220.28</ele>
        <time>2021-08-11T08:30:23Z</time>
      </trkpt>
      <trkpt lat="47.7178" lon="3.6654">
        <ele>219.8</ele>
        <time>2021-08-11T08:30:24Z</time>
      </trkpt>
      <trkpt lat="47.71778" lon="3.66537">
        <ele>219.8</ele>
        <time>2021-08-11T08:30:25Z</time>
      </trkpt>
      <trkpt lat="47.71775" lon="3.66533">
        <ele>218.84</ele>
        <time>2021-08-11T08:30:26Z</time>
      </trkpt>
      <trkpt lat="47.71772" lon="3.66529">
        <ele>218.36</ele>
        <time>2021-08-11T08:30:27Z</time>
      </trkpt>
      <trkpt lat="47.71764" lon="3.66518">
        <ele>217.4</ele>
        <time>2021-08-11T08:30:29Z</time>
      </trkpt>
      <trkpt lat="47.7176" lon="3.66512">
        <ele>216.43</ele>
        <time>2021-08-11T08:30:30Z</time>
      </trkpt>
      <trkpt lat="47.71732" lon="3.66469">
        <ele>212.59</ele>
        <time>2021-08-11T08:30:35Z</time>
      </trkpt>
      <trkpt lat="47.71712" lon="3.66435">
        <ele>208.74</ele>
        <time>2021-08-11T08:30:38Z</time>
      </trkpt>
      <trkpt lat="47.71691" lon="3.66399">
        <ele>204.9</ele>
        <time>2021-08-11T08:30:41Z</time>
      </trkpt>
      <trkpt lat="47.71675" lon="3.66377">
        <ele>202.01</ele>
        <time>2021-08-11T08:30:43Z</time>
      </trkpt>
      <trkpt lat="47.71667" lon="3.66369">
        <ele>201.05</ele>
        <time>2021-08-11T08:30:44Z</time>
      </trkpt>
      <trkpt lat="47.71657" lon="3.66362">
        <ele>199.13</ele>
        <time>2021-08-11T08:30:45Z</time>
      </trkpt>
      <trkpt lat="47.71647" lon="3.66358">
        <ele>197.69</ele>
        <time>2021-08-11T08:30:46Z</time>
      </trkpt>
      <trkpt lat="47.71636" lon="3.66356">
        <ele>195.28</ele>
        <time>2021-08-11T08:30:47Z</time>
      </trkpt>
      <trkpt lat="47.71624" lon="3.66356">
        <ele>193.36</ele>
        <time>2021-08-11T08:30:48Z</time>
      </trkpt>
      <trkpt lat="47.71614" lon="3.66357">
        <ele>191.92</ele>
        <time>2021-08-11T08:30:49Z</time>
      </trkpt>
      <trkpt lat="47.71604" lon="3.66362">
        <ele>190</ele>
        <time>2021-08-11T08:30:50Z</time>
      </trkpt>
      <trkpt lat="47.71596" lon="3.66368">
        <ele>189.04</ele>
        <time>2021-08-11T08:30:51Z</time>
      </trkpt>
      <trkpt lat="47.71587" lon="3.66377">
        <ele>188.08</ele>
        <time>2021-08-11T08:30:52Z</time>
      </trkpt>
      <trkpt lat="47.71581" lon="3.66386">
        <ele>186.15</ele>
        <time>2021-08-11T08:30:53Z</time>
      </trkpt>
      <trkpt lat="47.71573" lon="3.66401">
        <ele>184.71</ele>
        <time>2021-08-11T08:30:54Z</time>
      </trkpt>
      <trkpt lat="47.71569" lon="3.66414">
        <ele>182.79</ele>
        <time>2021-08-11T08:30:55Z</time>
      </trkpt>
      <trkpt lat="47.71563" lon="3.66429">
        <ele>181.35</ele>
        <time>2021-08-11T08:30:56Z</time>
      </trkpt>
      <trkpt lat="47.71548" lon="3.6647">
        <ele>177.98</ele>
        <time>2021-08-11T08:30:59Z</time>
      </trkpt>
      <trkpt lat="47.71537" lon="3.6649">
        <ele>176.06</ele>
        <time>2021-08-11T08:31:01Z</time>
      </trkpt>
      <trkpt lat="47.71531" lon="3.66498">
        <ele>175.1</ele>
        <time>2021-08-11T08:31:02Z</time>
      </trkpt>
      <trkpt lat="47.71525" lon="3.66504">
        <ele>175.1</ele>
        <time>2021-08-11T08:31:03Z</time>
      </trkpt>
      <trkpt lat="47.71519" lon="3.6651">
        <ele>173.66</ele>
        <time>2021-08-11T08:31:04Z</time>
      </trkpt>
      <trkpt lat="47.71514" lon="3.66512">
        <ele>173.17</ele>
        <time>2021-08-11T08:31:05Z</time>
      </trkpt>
      <trkpt lat="47.71509" lon="3.66514">
        <ele>172.69</ele>
        <time>2021-08-11T08:31:06Z</time>
      </trkpt>
      <trkpt lat="47.71505" lon="3.66514">
        <ele>172.69</ele>
        <time>2021-08-11T08:31:07Z</time>
      </trkpt>
      <trkpt lat="47.71501" lon="3.66514">
        <ele>171.73</ele>
        <time>2021-08-11T08:31:08Z</time>
      </trkpt>
      <trkpt lat="47.71499" lon="3.66514">
        <ele>171.73</ele>
        <time>2021-08-11T08:31:09Z</time>
      </trkpt>
      <trkpt lat="47.71497" lon="3.66514">
        <ele>171.73</ele>
        <time>2021-08-11T08:31:10Z</time>
      </trkpt>
      <trkpt lat="47.71497" lon="3.66513">
        <ele>172.69</ele>
        <time>2021-08-11T08:31:15Z</time>
      </trkpt>
      <trkpt lat="47.71497" lon="3.66512">
        <ele>172.21</ele>
        <time>2021-08-11T08:31:21Z</time>
      </trkpt>
      <trkpt lat="47.71496" lon="3.66513">
        <ele>172.21</ele>
        <time>2021-08-11T08:31:37Z</time>
      </trkpt>
      <trkpt lat="47.71497" lon="3.66512">
        <ele>171.73</ele>
        <time>2021-08-11T08:31:57Z</time>
      </trkpt>
      <trkpt lat="47.71495" lon="3.66512">
        <ele>171.73</ele>
        <time>2021-08-11T08:32:10Z</time>
      </trkpt>
      <trkpt lat="47.71494" lon="3.66513">
        <ele>171.73</ele>
        <time>2021-08-11T08:32:21Z</time>
      </trkpt>
      <trkpt lat="47.71495" lon="3.66514">
        <ele>171.73</ele>
        <time>2021-08-11T08:32:40Z</time>
      </trkpt>
      <trkpt lat="47.7149" lon="3.6651">
        <ele>171.25</ele>
        <time>2021-08-11T08:32:49Z</time>
      </trkpt>
      <trkpt lat="47.71483" lon="3.66509">
        <ele>171.25</ele>
        <time>2021-08-11T08:32:53Z</time>
      </trkpt>
      <trkpt lat="47.71482" lon="3.6651">
        <ele>171.25</ele>
        <time>2021-08-11T08:32:54Z</time>
      </trkpt>
      <trkpt lat="47.71482" lon="3.66513">
        <ele>171.25</ele>
        <time>2021-08-11T08:32:55Z</time>
      </trkpt>
      <trkpt lat="47.71479" lon="3.66533">
        <ele>171.25</ele>
        <time>2021-08-11T08:33:02Z</time>
      </trkpt>
      <trkpt lat="47.71466" lon="3.66563">
        <ele>170.77</ele>
        <time>2021-08-11T08:33:10Z</time>
      </trkpt>
      <trkpt lat="47.71464" lon="3.66565">
        <ele>170.77</ele>
        <time>2021-08-11T08:33:11Z</time>
      </trkpt>
      <trkpt lat="47.71462" lon="3.66566">
        <ele>170.29</ele>
        <time>2021-08-11T08:33:12Z</time>
      </trkpt>
      <trkpt lat="47.7146" lon="3.66567">
        <ele>170.77</ele>
        <time>2021-08-11T08:33:13Z</time>
      </trkpt>
      <trkpt lat="47.71459" lon="3.66569">
        <ele>170.29</ele>
        <time>2021-08-11T08:33:14Z</time>
      </trkpt>
      <trkpt lat="47.71458" lon="3.66571">
        <ele>170.29</ele>
        <time>2021-08-11T08:33:15Z</time>
      </trkpt>
      <trkpt lat="47.71458" lon="3.66574">
        <ele>170.29</ele>
        <time>2021-08-11T08:33:16Z</time>
      </trkpt>
      <trkpt lat="47.71458" lon="3.66578">
        <ele>170.29</ele>
        <time>2021-08-11T08:33:17Z</time>
      </trkpt>
      <trkpt lat="47.71457" lon="3.66582">
        <ele>170.29</ele>
        <time>2021-08-11T08:33:18Z</time>
      </trkpt>
      <trkpt lat="47.71456" lon="3.66585">
        <ele>170.29</ele>
        <time>2021-08-11T08:33:19Z</time>
      </trkpt>
      <trkpt lat="47.71453" lon="3.66604">
        <ele>173.17</ele>
        <time>2021-08-11T08:33:27Z</time>
      </trkpt>
      <trkpt lat="47.71452" lon="3.66615">
        <ele>174.14</ele>
        <time>2021-08-11T08:33:31Z</time>
      </trkpt>
      <trkpt lat="47.7145" lon="3.66621">
        <ele>175.1</ele>
        <time>2021-08-11T08:33:34Z</time>
      </trkpt>
      <trkpt lat="47.71449" lon="3.66621">
        <ele>175.58</ele>
        <time>2021-08-11T08:33:35Z</time>
      </trkpt>
      <trkpt lat="47.71448" lon="3.66621">
        <ele>175.58</ele>
        <time>2021-08-11T08:33:36Z</time>
      </trkpt>
      <trkpt lat="47.71446" lon="3.66621">
        <ele>176.06</ele>
        <time>2021-08-11T08:33:37Z</time>
      </trkpt>
      <trkpt lat="47.71445" lon="3.6662">
        <ele>176.06</ele>
        <time>2021-08-11T08:33:38Z</time>
      </trkpt>
      <trkpt lat="47.7143" lon="3.66619">
        <ele>177.02</ele>
        <time>2021-08-11T08:33:47Z</time>
      </trkpt>
      <trkpt lat="47.7141" lon="3.6662">
        <ele>177.98</ele>
        <time>2021-08-11T08:33:59Z</time>
      </trkpt>
      <trkpt lat="47.71392" lon="3.66623">
        <ele>179.9</ele>
        <time>2021-08-11T08:34:10Z</time>
      </trkpt>
      <trkpt lat="47.71376" lon="3.66626">
        <ele>180.87</ele>
        <time>2021-08-11T08:34:19Z</time>
      </trkpt>
      <trkpt lat="47.71362" lon="3.66633">
        <ele>182.31</ele>
        <time>2021-08-11T08:34:28Z</time>
      </trkpt>
      <trkpt lat="47.71354" lon="3.66638">
        <ele>183.27</ele>
        <time>2021-08-11T08:34:36Z</time>
      </trkpt>
      <trkpt lat="47.71355" lon="3.66636">
        <ele>183.75</ele>
        <time>2021-08-11T08:34:52Z</time>
      </trkpt>
      <trkpt lat="47.71354" lon="3.66636">
        <ele>183.75</ele>
        <time>2021-08-11T08:34:57Z</time>
      </trkpt>
      <trkpt lat="47.71354" lon="3.66636">
        <ele>183.75</ele>
        <time>2021-08-11T08:35:03Z</time>
      </trkpt>
      <trkpt lat="47.71353" lon="3.66638">
        <ele>183.75</ele>
        <time>2021-08-11T08:35:14Z</time>
      </trkpt>
      <trkpt lat="47.71352" lon="3.66639">
        <ele>183.75</ele>
        <time>2021-08-11T08:35:33Z</time>
      </trkpt>
      <trkpt lat="47.71352" lon="3.66635">
        <ele>183.75</ele>
        <time>2021-08-11T08:35:58Z</time>
      </trkpt>
      <trkpt lat="47.71351" lon="3.66636">
        <ele>183.75</ele>
        <time>2021-08-11T08:36:08Z</time>
      </trkpt>
      <trkpt lat="47.71351" lon="3.66637">
        <ele>183.75</ele>
        <time>2021-08-11T08:36:16Z</time>
      </trkpt>
      <trkpt lat="47.71352" lon="3.66638">
        <ele>183.75</ele>
        <time>2021-08-11T08:36:32Z</time>
      </trkpt>
      <trkpt lat="47.71351" lon="3.66638">
        <ele>183.75</ele>
        <time>2021-08-11T08:36:48Z</time>
      </trkpt>
      <trkpt lat="47.71349" lon="3.66638">
        <ele>183.75</ele>
        <time>2021-08-11T08:36:51Z</time>
      </trkpt>
      <trkpt lat="47.71348" lon="3.66639">
        <ele>183.75</ele>
        <time>2021-08-11T08:36:52Z</time>
      </trkpt>
      <trkpt lat="47.71347" lon="3.6664">
        <ele>183.75</ele>
        <time>2021-08-11T08:36:53Z</time>
      </trkpt>
      <trkpt lat="47.71345" lon="3.6664">
        <ele>183.75</ele>
        <time>2021-08-11T08:36:54Z</time>
      </trkpt>
      <trkpt lat="47.71343" lon="3.66641">
        <ele>184.23</ele>
        <time>2021-08-11T08:36:55Z</time>
      </trkpt>
      <trkpt lat="47.71342" lon="3.66641">
        <ele>184.23</ele>
        <time>2021-08-11T08:36:56Z</time>
      </trkpt>
      <trkpt lat="47.7134" lon="3.66642">
        <ele>184.23</ele>
        <time>2021-08-11T08:36:57Z</time>
      </trkpt>
      <trkpt lat="47.71328" lon="3.66649">
        <ele>185.67</ele>
        <time>2021-08-11T08:37:05Z</time>
      </trkpt>
      <trkpt lat="47.71316" lon="3.66653">
        <ele>187.11</ele>
        <time>2021-08-11T08:37:13Z</time>
      </trkpt>
      <trkpt lat="47.71314" lon="3.66652">
        <ele>187.11</ele>
        <time>2021-08-11T08:37:14Z</time>
      </trkpt>
      <trkpt lat="47.71312" lon="3.66648">
        <ele>187.11</ele>
        <time>2021-08-11T08:37:16Z</time>
      </trkpt>
      <trkpt lat="47.713" lon="3.66616">
        <ele>187.11</ele>
        <time>2021-08-11T08:37:25Z</time>
      </trkpt>
      <trkpt lat="47.71285" lon="3.66581">
        <ele>185.67</ele>
        <time>2021-08-11T08:37:33Z</time>
      </trkpt>
      <trkpt lat="47.71267" lon="3.66537">
        <ele>184.23</ele>
        <time>2021-08-11T08:37:41Z</time>
      </trkpt>
      <trkpt lat="47.71253" lon="3.6651">
        <ele>183.27</ele>
        <time>2021-08-11T08:37:46Z</time>
      </trkpt>
      <trkpt lat="47.71249" lon="3.66506">
        <ele>182.79</ele>
        <time>2021-08-11T08:37:47Z</time>
      </trkpt>
      <trkpt lat="47.71245" lon="3.66504">
        <ele>182.79</ele>
        <time>2021-08-11T08:37:48Z</time>
      </trkpt>
      <trkpt lat="47.7124" lon="3.66504">
        <ele>182.79</ele>
        <time>2021-08-11T08:37:49Z</time>
      </trkpt>
      <trkpt lat="47.71237" lon="3.66506">
        <ele>182.79</ele>
        <time>2021-08-11T08:37:50Z</time>
      </trkpt>
      <trkpt lat="47.71233" lon="3.66508">
        <ele>182.79</ele>
        <time>2021-08-11T08:37:51Z</time>
      </trkpt>
      <trkpt lat="47.7123" lon="3.6651">
        <ele>182.79</ele>
        <time>2021-08-11T08:37:52Z</time>
      </trkpt>
      <trkpt lat="47.71228" lon="3.66512">
        <ele>184.23</ele>
        <time>2021-08-11T08:37:53Z</time>
      </trkpt>
      <trkpt lat="47.71225" lon="3.66514">
        <ele>184.23</ele>
        <time>2021-08-11T08:37:54Z</time>
      </trkpt>
      <trkpt lat="47.71204" lon="3.6653">
        <ele>186.15</ele>
        <time>2021-08-11T08:38:03Z</time>
      </trkpt>
      <trkpt lat="47.71187" lon="3.6654">
        <ele>187.11</ele>
        <time>2021-08-11T08:38:11Z</time>
      </trkpt>
      <trkpt lat="47.71166" lon="3.66554">
        <ele>188.56</ele>
        <time>2021-08-11T08:38:21Z</time>
      </trkpt>
      <trkpt lat="47.71145" lon="3.66567">
        <ele>190</ele>
        <time>2021-08-11T08:38:31Z</time>
      </trkpt>
      <trkpt lat="47.71123" lon="3.66584">
        <ele>191.92</ele>
        <time>2021-08-11T08:38:42Z</time>
      </trkpt>
      <trkpt lat="47.71103" lon="3.666">
        <ele>193.84</ele>
        <time>2021-08-11T08:38:53Z</time>
      </trkpt>
      <trkpt lat="47.71082" lon="3.66616">
        <ele>195.28</ele>
        <time>2021-08-11T08:39:04Z</time>
      </trkpt>
      <trkpt lat="47.71069" lon="3.66626">
        <ele>196.25</ele>
        <time>2021-08-11T08:39:12Z</time>
      </trkpt>
      <trkpt lat="47.71049" lon="3.66636">
        <ele>198.65</ele>
        <time>2021-08-11T08:39:24Z</time>
      </trkpt>
      <trkpt lat="47.71037" lon="3.66642">
        <ele>200.09</ele>
        <time>2021-08-11T08:39:32Z</time>
      </trkpt>
      <trkpt lat="47.71026" lon="3.66645">
        <ele>201.53</ele>
        <time>2021-08-11T08:39:39Z</time>
      </trkpt>
      <trkpt lat="47.71014" lon="3.66648">
        <ele>202.98</ele>
        <time>2021-08-11T08:39:47Z</time>
      </trkpt>
      <trkpt lat="47.71005" lon="3.6665">
        <ele>203.94</ele>
        <time>2021-08-11T08:39:54Z</time>
      </trkpt>
      <trkpt lat="47.7099" lon="3.66648">
        <ele>206.34</ele>
        <time>2021-08-11T08:40:04Z</time>
      </trkpt>
      <trkpt lat="47.70977" lon="3.66646">
        <ele>208.26</ele>
        <time>2021-08-11T08:40:14Z</time>
      </trkpt>
      <trkpt lat="47.70966" lon="3.66646">
        <ele>209.22</ele>
        <time>2021-08-11T08:40:22Z</time>
      </trkpt>
      <trkpt lat="47.70958" lon="3.66647">
        <ele>210.19</ele>
        <time>2021-08-11T08:40:28Z</time>
      </trkpt>
      <trkpt lat="47.70957" lon="3.66646">
        <ele>211.15</ele>
        <time>2021-08-11T08:40:29Z</time>
      </trkpt>
      <trkpt lat="47.70944" lon="3.66648">
        <ele>212.11</ele>
        <time>2021-08-11T08:40:38Z</time>
      </trkpt>
      <trkpt lat="47.70932" lon="3.66651">
        <ele>213.55</ele>
        <time>2021-08-11T08:40:46Z</time>
      </trkpt>
      <trkpt lat="47.70919" lon="3.66655">
        <ele>214.51</ele>
        <time>2021-08-11T08:40:54Z</time>
      </trkpt>
      <trkpt lat="47.70901" lon="3.66665">
        <ele>216.43</ele>
        <time>2021-08-11T08:41:06Z</time>
      </trkpt>
      <trkpt lat="47.70894" lon="3.66669">
        <ele>216.91</ele>
        <time>2021-08-11T08:41:11Z</time>
      </trkpt>
      <trkpt lat="47.70893" lon="3.6667">
        <ele>216.91</ele>
        <time>2021-08-11T08:41:12Z</time>
      </trkpt>
      <trkpt lat="47.70892" lon="3.66671">
        <ele>217.4</ele>
        <time>2021-08-11T08:41:13Z</time>
      </trkpt>
      <trkpt lat="47.70891" lon="3.66673">
        <ele>217.4</ele>
        <time>2021-08-11T08:41:14Z</time>
      </trkpt>
      <trkpt lat="47.70889" lon="3.66674">
        <ele>217.88</ele>
        <time>2021-08-11T08:41:15Z</time>
      </trkpt>
      <trkpt lat="47.70888" lon="3.66675">
        <ele>217.88</ele>
        <time>2021-08-11T08:41:16Z</time>
      </trkpt>
      <trkpt lat="47.70876" lon="3.66683">
        <ele>218.84</ele>
        <time>2021-08-11T08:41:24Z</time>
      </trkpt>
      <trkpt lat="47.70861" lon="3.66694">
        <ele>220.28</ele>
        <time>2021-08-11T08:41:34Z</time>
      </trkpt>
      <trkpt lat="47.70849" lon="3.66703">
        <ele>221.24</ele>
        <time>2021-08-11T08:41:42Z</time>
      </trkpt>
      <trkpt lat="47.70838" lon="3.66712">
        <ele>222.2</ele>
        <time>2021-08-11T08:41:49Z</time>
      </trkpt>
      <trkpt lat="47.70824" lon="3.66722">
        <ele>223.64</ele>
        <time>2021-08-11T08:41:58Z</time>
      </trkpt>
      <trkpt lat="47.70806" lon="3.66734">
        <ele>225.57</ele>
        <time>2021-08-11T08:42:09Z</time>
      </trkpt>
      <trkpt lat="47.70789" lon="3.66748">
        <ele>227.97</ele>
        <time>2021-08-11T08:42:20Z</time>
      </trkpt>
      <trkpt lat="47.70775" lon="3.66755">
        <ele>228.93</ele>
        <time>2021-08-11T08:42:28Z</time>
      </trkpt>
      <trkpt lat="47.70754" lon="3.66766">
        <ele>231.33</ele>
        <time>2021-08-11T08:42:40Z</time>
      </trkpt>
      <trkpt lat="47.70738" lon="3.66775">
        <ele>232.78</ele>
        <time>2021-08-11T08:42:49Z</time>
      </trkpt>
      <trkpt lat="47.70723" lon="3.66784">
        <ele>234.22</ele>
        <time>2021-08-11T08:42:58Z</time>
      </trkpt>
      <trkpt lat="47.70706" lon="3.66802">
        <ele>235.66</ele>
        <time>2021-08-11T08:43:09Z</time>
      </trkpt>
      <trkpt lat="47.70698" lon="3.66811">
        <ele>236.62</ele>
        <time>2021-08-11T08:43:15Z</time>
      </trkpt>
      <trkpt lat="47.70697" lon="3.66813">
        <ele>237.1</ele>
        <time>2021-08-11T08:43:16Z</time>
      </trkpt>
      <trkpt lat="47.70684" lon="3.66825">
        <ele>238.54</ele>
        <time>2021-08-11T08:43:25Z</time>
      </trkpt>
      <trkpt lat="47.70666" lon="3.66831">
        <ele>240.47</ele>
        <time>2021-08-11T08:43:37Z</time>
      </trkpt>
      <trkpt lat="47.70651" lon="3.66818">
        <ele>240.95</ele>
        <time>2021-08-11T08:43:45Z</time>
      </trkpt>
      <trkpt lat="47.70627" lon="3.66793">
        <ele>241.43</ele>
        <time>2021-08-11T08:43:55Z</time>
      </trkpt>
      <trkpt lat="47.70604" lon="3.66768">
        <ele>241.43</ele>
        <time>2021-08-11T08:44:04Z</time>
      </trkpt>
      <trkpt lat="47.70576" lon="3.66738">
        <ele>241.91</ele>
        <time>2021-08-11T08:44:14Z</time>
      </trkpt>
      <trkpt lat="47.70548" lon="3.66713">
        <ele>242.39</ele>
        <time>2021-08-11T08:44:23Z</time>
      </trkpt>
      <trkpt lat="47.70526" lon="3.66695">
        <ele>243.35</ele>
        <time>2021-08-11T08:44:31Z</time>
      </trkpt>
      <trkpt lat="47.70497" lon="3.66675">
        <ele>243.83</ele>
        <time>2021-08-11T08:44:40Z</time>
      </trkpt>
      <trkpt lat="47.70476" lon="3.66662">
        <ele>243.83</ele>
        <time>2021-08-11T08:44:46Z</time>
      </trkpt>
      <trkpt lat="47.70454" lon="3.66645">
        <ele>243.83</ele>
        <time>2021-08-11T08:44:52Z</time>
      </trkpt>
      <trkpt lat="47.70414" lon="3.66624">
        <ele>243.83</ele>
        <time>2021-08-11T08:45:02Z</time>
      </trkpt>
      <trkpt lat="47.70402" lon="3.6662">
        <ele>243.83</ele>
        <time>2021-08-11T08:45:05Z</time>
      </trkpt>
      <trkpt lat="47.70379" lon="3.66618">
        <ele>243.83</ele>
        <time>2021-08-11T08:45:10Z</time>
      </trkpt>
      <trkpt lat="47.70353" lon="3.6663">
        <ele>243.83</ele>
        <time>2021-08-11T08:45:16Z</time>
      </trkpt>
      <trkpt lat="47.70336" lon="3.66643">
        <ele>242.39</ele>
        <time>2021-08-11T08:45:20Z</time>
      </trkpt>
      <trkpt lat="47.70289" lon="3.66673">
        <ele>242.39</ele>
        <time>2021-08-11T08:45:31Z</time>
      </trkpt>
      <trkpt lat="47.70244" lon="3.66698">
        <ele>241.91</ele>
        <time>2021-08-11T08:45:42Z</time>
      </trkpt>
      <trkpt lat="47.70199" lon="3.66719">
        <ele>240.95</ele>
        <time>2021-08-11T08:45:52Z</time>
      </trkpt>
      <trkpt lat="47.70155" lon="3.6673">
        <ele>239.51</ele>
        <time>2021-08-11T08:46:00Z</time>
      </trkpt>
      <trkpt lat="47.70117" lon="3.66738">
        <ele>238.06</ele>
        <time>2021-08-11T08:46:06Z</time>
      </trkpt>
      <trkpt lat="47.70111" lon="3.66742">
        <ele>238.06</ele>
        <time>2021-08-11T08:46:07Z</time>
      </trkpt>
      <trkpt lat="47.70106" lon="3.66747">
        <ele>238.06</ele>
        <time>2021-08-11T08:46:08Z</time>
      </trkpt>
      <trkpt lat="47.70101" lon="3.66753">
        <ele>238.06</ele>
        <time>2021-08-11T08:46:09Z</time>
      </trkpt>
      <trkpt lat="47.70097" lon="3.6676">
        <ele>238.06</ele>
        <time>2021-08-11T08:46:10Z</time>
      </trkpt>
      <trkpt lat="47.70094" lon="3.66768">
        <ele>238.06</ele>
        <time>2021-08-11T08:46:11Z</time>
      </trkpt>
      <trkpt lat="47.70092" lon="3.66776">
        <ele>238.06</ele>
        <time>2021-08-11T08:46:12Z</time>
      </trkpt>
      <trkpt lat="47.70091" lon="3.66785">
        <ele>237.1</ele>
        <time>2021-08-11T08:46:13Z</time>
      </trkpt>
      <trkpt lat="47.70091" lon="3.66794">
        <ele>237.1</ele>
        <time>2021-08-11T08:46:14Z</time>
      </trkpt>
      <trkpt lat="47.70092" lon="3.66801">
        <ele>237.58</ele>
        <time>2021-08-11T08:46:15Z</time>
      </trkpt>
      <trkpt lat="47.70094" lon="3.66808">
        <ele>237.58</ele>
        <time>2021-08-11T08:46:16Z</time>
      </trkpt>
      <trkpt lat="47.70107" lon="3.66852">
        <ele>239.02</ele>
        <time>2021-08-11T08:46:23Z</time>
      </trkpt>
      <trkpt lat="47.7012" lon="3.66891">
        <ele>240.47</ele>
        <time>2021-08-11T08:46:31Z</time>
      </trkpt>
      <trkpt lat="47.70136" lon="3.66929">
        <ele>241.43</ele>
        <time>2021-08-11T08:46:39Z</time>
      </trkpt>
      <trkpt lat="47.70157" lon="3.66971">
        <ele>242.87</ele>
        <time>2021-08-11T08:46:49Z</time>
      </trkpt>
      <trkpt lat="47.70177" lon="3.67023">
        <ele>243.83</ele>
        <time>2021-08-11T08:47:01Z</time>
      </trkpt>
      <trkpt lat="47.70193" lon="3.67067">
        <ele>243.83</ele>
        <time>2021-08-11T08:47:09Z</time>
      </trkpt>
      <trkpt lat="47.70223" lon="3.67154">
        <ele>241.91</ele>
        <time>2021-08-11T08:47:23Z</time>
      </trkpt>
      <trkpt lat="47.70245" lon="3.67213">
        <ele>241.43</ele>
        <time>2021-08-11T08:47:33Z</time>
      </trkpt>
      <trkpt lat="47.7027" lon="3.6728">
        <ele>240.47</ele>
        <time>2021-08-11T08:47:44Z</time>
      </trkpt>
      <trkpt lat="47.70271" lon="3.67287">
        <ele>240.47</ele>
        <time>2021-08-11T08:47:45Z</time>
      </trkpt>
      <trkpt lat="47.70287" lon="3.67354">
        <ele>239.02</ele>
        <time>2021-08-11T08:47:54Z</time>
      </trkpt>
      <trkpt lat="47.70291" lon="3.67381">
        <ele>238.06</ele>
        <time>2021-08-11T08:47:57Z</time>
      </trkpt>
      <trkpt lat="47.70296" lon="3.67444">
        <ele>234.22</ele>
        <time>2021-08-11T08:48:03Z</time>
      </trkpt>
      <trkpt lat="47.70299" lon="3.67496">
        <ele>231.33</ele>
        <time>2021-08-11T08:48:07Z</time>
      </trkpt>
      <trkpt lat="47.703" lon="3.67509">
        <ele>231.33</ele>
        <time>2021-08-11T08:48:08Z</time>
      </trkpt>
      <trkpt lat="47.70302" lon="3.67592">
        <ele>229.41</ele>
        <time>2021-08-11T08:48:14Z</time>
      </trkpt>
      <trkpt lat="47.703" lon="3.67606">
        <ele>229.41</ele>
        <time>2021-08-11T08:48:15Z</time>
      </trkpt>
      <trkpt lat="47.70283" lon="3.67686">
        <ele>229.41</ele>
        <time>2021-08-11T08:48:22Z</time>
      </trkpt>
      <trkpt lat="47.70279" lon="3.67705">
        <ele>229.41</ele>
        <time>2021-08-11T08:48:24Z</time>
      </trkpt>
      <trkpt lat="47.70275" lon="3.67713">
        <ele>229.41</ele>
        <time>2021-08-11T08:48:25Z</time>
      </trkpt>
      <trkpt lat="47.7027" lon="3.6772">
        <ele>228.93</ele>
        <time>2021-08-11T08:48:26Z</time>
      </trkpt>
      <trkpt lat="47.70263" lon="3.67727">
        <ele>228.45</ele>
        <time>2021-08-11T08:48:27Z</time>
      </trkpt>
      <trkpt lat="47.70255" lon="3.67732">
        <ele>227.49</ele>
        <time>2021-08-11T08:48:28Z</time>
      </trkpt>
      <trkpt lat="47.70204" lon="3.67766">
        <ele>224.12</ele>
        <time>2021-08-11T08:48:34Z</time>
      </trkpt>
      <trkpt lat="47.70139" lon="3.6781">
        <ele>223.16</ele>
        <time>2021-08-11T08:48:42Z</time>
      </trkpt>
      <trkpt lat="47.70117" lon="3.67824">
        <ele>224.61</ele>
        <time>2021-08-11T08:48:45Z</time>
      </trkpt>
      <trkpt lat="47.70076" lon="3.6785">
        <ele>226.05</ele>
        <time>2021-08-11T08:48:52Z</time>
      </trkpt>
      <trkpt lat="47.70034" lon="3.67864">
        <ele>227.97</ele>
        <time>2021-08-11T08:49:00Z</time>
      </trkpt>
      <trkpt lat="47.69994" lon="3.6787">
        <ele>228.93</ele>
        <time>2021-08-11T08:49:09Z</time>
      </trkpt>
      <trkpt lat="47.69965" lon="3.67873">
        <ele>229.89</ele>
        <time>2021-08-11T08:49:17Z</time>
      </trkpt>
      <trkpt lat="47.69939" lon="3.67877">
        <ele>228.45</ele>
        <time>2021-08-11T08:49:23Z</time>
      </trkpt>
      <trkpt lat="47.69909" lon="3.67885">
        <ele>227.01</ele>
        <time>2021-08-11T08:49:29Z</time>
      </trkpt>
      <trkpt lat="47.69865" lon="3.67899">
        <ele>223.64</ele>
        <time>2021-08-11T08:49:36Z</time>
      </trkpt>
      <trkpt lat="47.69843" lon="3.67905">
        <ele>222.2</ele>
        <time>2021-08-11T08:49:39Z</time>
      </trkpt>
      <trkpt lat="47.6982" lon="3.67911">
        <ele>220.76</ele>
        <time>2021-08-11T08:49:42Z</time>
      </trkpt>
      <trkpt lat="47.69813" lon="3.67913">
        <ele>220.76</ele>
        <time>2021-08-11T08:49:43Z</time>
      </trkpt>
      <trkpt lat="47.69753" lon="3.6794">
        <ele>218.36</ele>
        <time>2021-08-11T08:49:52Z</time>
      </trkpt>
      <trkpt lat="47.69737" lon="3.67949">
        <ele>217.88</ele>
        <time>2021-08-11T08:49:54Z</time>
      </trkpt>
      <trkpt lat="47.69697" lon="3.67972">
        <ele>214.03</ele>
        <time>2021-08-11T08:49:59Z</time>
      </trkpt>
      <trkpt lat="47.6966" lon="3.67989">
        <ele>210.67</ele>
        <time>2021-08-11T08:50:03Z</time>
      </trkpt>
      <trkpt lat="47.69631" lon="3.68004">
        <ele>207.3</ele>
        <time>2021-08-11T08:50:06Z</time>
      </trkpt>
      <trkpt lat="47.69599" lon="3.68027">
        <ele>203.46</ele>
        <time>2021-08-11T08:50:09Z</time>
      </trkpt>
      <trkpt lat="47.6956" lon="3.6807">
        <ele>200.57</ele>
        <time>2021-08-11T08:50:13Z</time>
      </trkpt>
      <trkpt lat="47.69519" lon="3.68116">
        <ele>196.73</ele>
        <time>2021-08-11T08:50:17Z</time>
      </trkpt>
      <trkpt lat="47.69485" lon="3.68149">
        <ele>192.88</ele>
        <time>2021-08-11T08:50:20Z</time>
      </trkpt>
      <trkpt lat="47.69451" lon="3.68181">
        <ele>189.52</ele>
        <time>2021-08-11T08:50:23Z</time>
      </trkpt>
      <trkpt lat="47.69407" lon="3.68232">
        <ele>186.63</ele>
        <time>2021-08-11T08:50:27Z</time>
      </trkpt>
      <trkpt lat="47.69348" lon="3.68304">
        <ele>184.71</ele>
        <time>2021-08-11T08:50:33Z</time>
      </trkpt>
      <trkpt lat="47.69287" lon="3.68357">
        <ele>182.31</ele>
        <time>2021-08-11T08:50:39Z</time>
      </trkpt>
      <trkpt lat="47.69268" lon="3.68376">
        <ele>181.35</ele>
        <time>2021-08-11T08:50:41Z</time>
      </trkpt>
      <trkpt lat="47.69239" lon="3.68403">
        <ele>179.9</ele>
        <time>2021-08-11T08:50:44Z</time>
      </trkpt>
      <trkpt lat="47.69172" lon="3.68453">
        <ele>178.94</ele>
        <time>2021-08-11T08:50:51Z</time>
      </trkpt>
      <trkpt lat="47.69089" lon="3.68504">
        <ele>175.1</ele>
        <time>2021-08-11T08:51:00Z</time>
      </trkpt>
      <trkpt lat="47.69081" lon="3.6851">
        <ele>175.1</ele>
        <time>2021-08-11T08:51:01Z</time>
      </trkpt>
      <trkpt lat="47.69025" lon="3.68558">
        <ele>173.66</ele>
        <time>2021-08-11T08:51:08Z</time>
      </trkpt>
      <trkpt lat="47.68956" lon="3.68615">
        <ele>171.73</ele>
        <time>2021-08-11T08:51:17Z</time>
      </trkpt>
      <trkpt lat="47.68894" lon="3.68659">
        <ele>169.33</ele>
        <time>2021-08-11T08:51:25Z</time>
      </trkpt>
      <trkpt lat="47.68842" lon="3.68687">
        <ele>165.96</ele>
        <time>2021-08-11T08:51:31Z</time>
      </trkpt>
      <trkpt lat="47.68824" lon="3.68694">
        <ele>165.48</ele>
        <time>2021-08-11T08:51:33Z</time>
      </trkpt>
      <trkpt lat="47.68778" lon="3.6872">
        <ele>161.64</ele>
        <time>2021-08-11T08:51:38Z</time>
      </trkpt>
      <trkpt lat="47.6877" lon="3.68727">
        <ele>161.64</ele>
        <time>2021-08-11T08:51:39Z</time>
      </trkpt>
      <trkpt lat="47.68742" lon="3.68749">
        <ele>159.24</ele>
        <time>2021-08-11T08:51:42Z</time>
      </trkpt>
      <trkpt lat="47.68716" lon="3.68772">
        <ele>157.79</ele>
        <time>2021-08-11T08:51:45Z</time>
      </trkpt>
      <trkpt lat="47.68681" lon="3.68808">
        <ele>155.39</ele>
        <time>2021-08-11T08:51:49Z</time>
      </trkpt>
      <trkpt lat="47.6863" lon="3.68862">
        <ele>152.51</ele>
        <time>2021-08-11T08:51:55Z</time>
      </trkpt>
      <trkpt lat="47.68593" lon="3.68898">
        <ele>148.66</ele>
        <time>2021-08-11T08:51:59Z</time>
      </trkpt>
      <trkpt lat="47.68544" lon="3.68933">
        <ele>145.3</ele>
        <time>2021-08-11T08:52:04Z</time>
      </trkpt>
      <trkpt lat="47.68524" lon="3.68948">
        <ele>143.85</ele>
        <time>2021-08-11T08:52:06Z</time>
      </trkpt>
      <trkpt lat="47.6849" lon="3.68984">
        <ele>140.97</ele>
        <time>2021-08-11T08:52:10Z</time>
      </trkpt>
      <trkpt lat="47.68483" lon="3.68995">
        <ele>141.45</ele>
        <time>2021-08-11T08:52:11Z</time>
      </trkpt>
      <trkpt lat="47.68476" lon="3.69007">
        <ele>139.53</ele>
        <time>2021-08-11T08:52:12Z</time>
      </trkpt>
      <trkpt lat="47.68466" lon="3.69027">
        <ele>138.57</ele>
        <time>2021-08-11T08:52:14Z</time>
      </trkpt>
      <trkpt lat="47.68449" lon="3.69056">
        <ele>137.13</ele>
        <time>2021-08-11T08:52:18Z</time>
      </trkpt>
      <trkpt lat="47.68445" lon="3.6906">
        <ele>136.64</ele>
        <time>2021-08-11T08:52:19Z</time>
      </trkpt>
      <trkpt lat="47.68436" lon="3.69067">
        <ele>136.16</ele>
        <time>2021-08-11T08:52:21Z</time>
      </trkpt>
      <trkpt lat="47.68411" lon="3.69084">
        <ele>134.24</ele>
        <time>2021-08-11T08:52:26Z</time>
      </trkpt>
      <trkpt lat="47.68381" lon="3.691">
        <ele>130.88</ele>
        <time>2021-08-11T08:52:32Z</time>
      </trkpt>
      <trkpt lat="47.68375" lon="3.69101">
        <ele>130.88</ele>
        <time>2021-08-11T08:52:33Z</time>
      </trkpt>
      <trkpt lat="47.68353" lon="3.69098">
        <ele>128.47</ele>
        <time>2021-08-11T08:52:38Z</time>
      </trkpt>
      <trkpt lat="47.6833" lon="3.69088">
        <ele>126.55</ele>
        <time>2021-08-11T08:52:42Z</time>
      </trkpt>
      <trkpt lat="47.68317" lon="3.6908">
        <ele>125.11</ele>
        <time>2021-08-11T08:52:44Z</time>
      </trkpt>
      <trkpt lat="47.68301" lon="3.69073">
        <ele>123.19</ele>
        <time>2021-08-11T08:52:48Z</time>
      </trkpt>
      <trkpt lat="47.683" lon="3.69075">
        <ele>123.67</ele>
        <time>2021-08-11T08:52:49Z</time>
      </trkpt>
      <trkpt lat="47.68301" lon="3.69084">
        <ele>123.67</ele>
        <time>2021-08-11T08:52:53Z</time>
      </trkpt>
      <trkpt lat="47.683" lon="3.69086">
        <ele>123.67</ele>
        <time>2021-08-11T08:52:54Z</time>
      </trkpt>
      <trkpt lat="47.683" lon="3.69089">
        <ele>123.67</ele>
        <time>2021-08-11T08:52:55Z</time>
      </trkpt>
      <trkpt lat="47.68301" lon="3.69092">
        <ele>123.67</ele>
        <time>2021-08-11T08:52:56Z</time>
      </trkpt>
      <trkpt lat="47.68301" lon="3.69095">
        <ele>123.67</ele>
        <time>2021-08-11T08:52:57Z</time>
      </trkpt>
      <trkpt lat="47.68305" lon="3.69124">
        <ele>125.11</ele>
        <time>2021-08-11T08:53:06Z</time>
      </trkpt>
      <trkpt lat="47.68314" lon="3.69152">
        <ele>126.07</ele>
        <time>2021-08-11T08:53:14Z</time>
      </trkpt>
      <trkpt lat="47.68325" lon="3.69184">
        <ele>126.55</ele>
        <time>2021-08-11T08:53:23Z</time>
      </trkpt>
      <trkpt lat="47.6833" lon="3.69204">
        <ele>126.55</ele>
        <time>2021-08-11T08:53:30Z</time>
      </trkpt>
      <trkpt lat="47.68341" lon="3.69225">
        <ele>127.03</ele>
        <time>2021-08-11T08:53:38Z</time>
      </trkpt>
      <trkpt lat="47.68345" lon="3.69227">
        <ele>127.51</ele>
        <time>2021-08-11T08:53:41Z</time>
      </trkpt>
      <trkpt lat="47.68345" lon="3.69229">
        <ele>127.51</ele>
        <time>2021-08-11T08:53:42Z</time>
      </trkpt>
      <trkpt lat="47.68352" lon="3.69251">
        <ele>127.99</ele>
        <time>2021-08-11T08:53:50Z</time>
      </trkpt>
      <trkpt lat="47.6836" lon="3.69275">
        <ele>128.47</ele>
        <time>2021-08-11T08:53:57Z</time>
      </trkpt>
      <trkpt lat="47.6837" lon="3.69292">
        <ele>128.47</ele>
        <time>2021-08-11T08:54:03Z</time>
      </trkpt>
      <trkpt lat="47.68373" lon="3.69293">
        <ele>128.95</ele>
        <time>2021-08-11T08:54:04Z</time>
      </trkpt>
      <trkpt lat="47.68396" lon="3.6931">
        <ele>129.43</ele>
        <time>2021-08-11T08:54:14Z</time>
      </trkpt>
      <trkpt lat="47.68412" lon="3.69325">
        <ele>129.43</ele>
        <time>2021-08-11T08:54:22Z</time>
      </trkpt>
      <trkpt lat="47.68425" lon="3.69352">
        <ele>129.43</ele>
        <time>2021-08-11T08:54:29Z</time>
      </trkpt>
      <trkpt lat="47.68444" lon="3.69401">
        <ele>127.99</ele>
        <time>2021-08-11T08:54:37Z</time>
      </trkpt>
      <trkpt lat="47.68447" lon="3.69416">
        <ele>127.99</ele>
        <time>2021-08-11T08:54:39Z</time>
      </trkpt>
      <trkpt lat="47.6845" lon="3.69429">
        <ele>127.99</ele>
        <time>2021-08-11T08:54:41Z</time>
      </trkpt>
      <trkpt lat="47.68455" lon="3.69459">
        <ele>127.99</ele>
        <time>2021-08-11T08:54:45Z</time>
      </trkpt>
      <trkpt lat="47.68458" lon="3.69474">
        <ele>127.51</ele>
        <time>2021-08-11T08:54:47Z</time>
      </trkpt>
      <trkpt lat="47.68482" lon="3.69546">
        <ele>127.51</ele>
        <time>2021-08-11T08:54:59Z</time>
      </trkpt>
      <trkpt lat="47.68504" lon="3.69605">
        <ele>127.51</ele>
        <time>2021-08-11T08:55:09Z</time>
      </trkpt>
      <trkpt lat="47.68535" lon="3.69672">
        <ele>127.51</ele>
        <time>2021-08-11T08:55:21Z</time>
      </trkpt>
      <trkpt lat="47.68564" lon="3.69733">
        <ele>127.51</ele>
        <time>2021-08-11T08:55:32Z</time>
      </trkpt>
      <trkpt lat="47.68583" lon="3.69786">
        <ele>127.51</ele>
        <time>2021-08-11T08:55:41Z</time>
      </trkpt>
      <trkpt lat="47.68601" lon="3.69851">
        <ele>127.51</ele>
        <time>2021-08-11T08:55:51Z</time>
      </trkpt>
      <trkpt lat="47.68602" lon="3.69858">
        <ele>127.51</ele>
        <time>2021-08-11T08:55:52Z</time>
      </trkpt>
      <trkpt lat="47.68605" lon="3.69885">
        <ele>127.51</ele>
        <time>2021-08-11T08:55:56Z</time>
      </trkpt>
      <trkpt lat="47.68604" lon="3.69892">
        <ele>127.51</ele>
        <time>2021-08-11T08:55:57Z</time>
      </trkpt>
      <trkpt lat="47.68602" lon="3.69916">
        <ele>128.47</ele>
        <time>2021-08-11T08:56:01Z</time>
      </trkpt>
      <trkpt lat="47.68592" lon="3.6996">
        <ele>130.4</ele>
        <time>2021-08-11T08:56:09Z</time>
      </trkpt>
      <trkpt lat="47.68576" lon="3.70007">
        <ele>131.36</ele>
        <time>2021-08-11T08:56:19Z</time>
      </trkpt>
      <trkpt lat="47.68563" lon="3.70052">
        <ele>132.32</ele>
        <time>2021-08-11T08:56:30Z</time>
      </trkpt>
      <trkpt lat="47.68552" lon="3.70088">
        <ele>133.28</ele>
        <time>2021-08-11T08:56:39Z</time>
      </trkpt>
      <trkpt lat="47.68547" lon="3.70127">
        <ele>134.24</ele>
        <time>2021-08-11T08:56:48Z</time>
      </trkpt>
      <trkpt lat="47.68539" lon="3.70162">
        <ele>135.2</ele>
        <time>2021-08-11T08:56:57Z</time>
      </trkpt>
      <trkpt lat="47.68534" lon="3.70184">
        <ele>135.68</ele>
        <time>2021-08-11T08:57:04Z</time>
      </trkpt>
      <trkpt lat="47.68523" lon="3.70215">
        <ele>136.64</ele>
        <time>2021-08-11T08:57:14Z</time>
      </trkpt>
      <trkpt lat="47.6851" lon="3.70224">
        <ele>137.13</ele>
        <time>2021-08-11T08:57:20Z</time>
      </trkpt>
      <trkpt lat="47.68488" lon="3.70226">
        <ele>138.09</ele>
        <time>2021-08-11T08:57:29Z</time>
      </trkpt>
      <trkpt lat="47.68471" lon="3.70224">
        <ele>139.53</ele>
        <time>2021-08-11T08:57:37Z</time>
      </trkpt>
      <trkpt lat="47.68454" lon="3.70228">
        <ele>141.45</ele>
        <time>2021-08-11T08:57:47Z</time>
      </trkpt>
      <trkpt lat="47.68442" lon="3.70235">
        <ele>142.41</ele>
        <time>2021-08-11T08:57:56Z</time>
      </trkpt>
      <trkpt lat="47.68439" lon="3.70237">
        <ele>142.89</ele>
        <time>2021-08-11T08:57:59Z</time>
      </trkpt>
      <trkpt lat="47.68438" lon="3.70238">
        <ele>142.89</ele>
        <time>2021-08-11T08:58:00Z</time>
      </trkpt>
      <trkpt lat="47.68436" lon="3.70238">
        <ele>142.89</ele>
        <time>2021-08-11T08:58:01Z</time>
      </trkpt>
      <trkpt lat="47.68435" lon="3.70239">
        <ele>143.37</ele>
        <time>2021-08-11T08:58:02Z</time>
      </trkpt>
      <trkpt lat="47.68434" lon="3.7024">
        <ele>143.37</ele>
        <time>2021-08-11T08:58:03Z</time>
      </trkpt>
      <trkpt lat="47.68424" lon="3.70246">
        <ele>144.82</ele>
        <time>2021-08-11T08:58:11Z</time>
      </trkpt>
      <trkpt lat="47.68413" lon="3.70253">
        <ele>145.3</ele>
        <time>2021-08-11T08:58:20Z</time>
      </trkpt>
      <trkpt lat="47.68403" lon="3.70259">
        <ele>146.74</ele>
        <time>2021-08-11T08:58:29Z</time>
      </trkpt>
      <trkpt lat="47.684" lon="3.7026">
        <ele>146.74</ele>
        <time>2021-08-11T08:58:31Z</time>
      </trkpt>
      <trkpt lat="47.68399" lon="3.70261">
        <ele>147.22</ele>
        <time>2021-08-11T08:58:32Z</time>
      </trkpt>
      <trkpt lat="47.68398" lon="3.70261">
        <ele>147.22</ele>
        <time>2021-08-11T08:58:33Z</time>
      </trkpt>
      <trkpt lat="47.68397" lon="3.70262">
        <ele>147.22</ele>
        <time>2021-08-11T08:58:34Z</time>
      </trkpt>
      <trkpt lat="47.68395" lon="3.70263">
        <ele>147.7</ele>
        <time>2021-08-11T08:58:35Z</time>
      </trkpt>
      <trkpt lat="47.68394" lon="3.70263">
        <ele>147.7</ele>
        <time>2021-08-11T08:58:36Z</time>
      </trkpt>
      <trkpt lat="47.68393" lon="3.70264">
        <ele>148.18</ele>
        <time>2021-08-11T08:58:37Z</time>
      </trkpt>
      <trkpt lat="47.68392" lon="3.70265">
        <ele>148.18</ele>
        <time>2021-08-11T08:58:38Z</time>
      </trkpt>
      <trkpt lat="47.68382" lon="3.7027">
        <ele>149.62</ele>
        <time>2021-08-11T08:58:47Z</time>
      </trkpt>
      <trkpt lat="47.68379" lon="3.7027">
        <ele>149.62</ele>
        <time>2021-08-11T08:58:49Z</time>
      </trkpt>
      <trkpt lat="47.68378" lon="3.70271">
        <ele>149.62</ele>
        <time>2021-08-11T08:58:50Z</time>
      </trkpt>
      <trkpt lat="47.68377" lon="3.70272">
        <ele>150.1</ele>
        <time>2021-08-11T08:58:51Z</time>
      </trkpt>
      <trkpt lat="47.68376" lon="3.70272">
        <ele>150.58</ele>
        <time>2021-08-11T08:58:52Z</time>
      </trkpt>
      <trkpt lat="47.68375" lon="3.70273">
        <ele>150.58</ele>
        <time>2021-08-11T08:58:53Z</time>
      </trkpt>
      <trkpt lat="47.68373" lon="3.70273">
        <ele>150.58</ele>
        <time>2021-08-11T08:58:54Z</time>
      </trkpt>
      <trkpt lat="47.68361" lon="3.70278">
        <ele>151.54</ele>
        <time>2021-08-11T08:59:04Z</time>
      </trkpt>
      <trkpt lat="47.68348" lon="3.70284">
        <ele>152.99</ele>
        <time>2021-08-11T08:59:14Z</time>
      </trkpt>
      <trkpt lat="47.68336" lon="3.70294">
        <ele>154.43</ele>
        <time>2021-08-11T08:59:24Z</time>
      </trkpt>
      <trkpt lat="47.68335" lon="3.70295">
        <ele>154.43</ele>
        <time>2021-08-11T08:59:25Z</time>
      </trkpt>
      <trkpt lat="47.68334" lon="3.70296">
        <ele>154.43</ele>
        <time>2021-08-11T08:59:26Z</time>
      </trkpt>
      <trkpt lat="47.68333" lon="3.70297">
        <ele>154.43</ele>
        <time>2021-08-11T08:59:27Z</time>
      </trkpt>
      <trkpt lat="47.68332" lon="3.70298">
        <ele>154.91</ele>
        <time>2021-08-11T08:59:28Z</time>
      </trkpt>
      <trkpt lat="47.68331" lon="3.70299">
        <ele>154.91</ele>
        <time>2021-08-11T08:59:29Z</time>
      </trkpt>
      <trkpt lat="47.6833" lon="3.703">
        <ele>154.91</ele>
        <time>2021-08-11T08:59:30Z</time>
      </trkpt>
      <trkpt lat="47.68329" lon="3.70301">
        <ele>155.39</ele>
        <time>2021-08-11T08:59:31Z</time>
      </trkpt>
      <trkpt lat="47.68328" lon="3.70302">
        <ele>155.39</ele>
        <time>2021-08-11T08:59:32Z</time>
      </trkpt>
      <trkpt lat="47.68328" lon="3.70303">
        <ele>155.39</ele>
        <time>2021-08-11T08:59:33Z</time>
      </trkpt>
      <trkpt lat="47.68327" lon="3.70304">
        <ele>155.39</ele>
        <time>2021-08-11T08:59:34Z</time>
      </trkpt>
      <trkpt lat="47.68326" lon="3.70306">
        <ele>155.39</ele>
        <time>2021-08-11T08:59:35Z</time>
      </trkpt>
      <trkpt lat="47.68325" lon="3.70307">
        <ele>155.87</ele>
        <time>2021-08-11T08:59:36Z</time>
      </trkpt>
      <trkpt lat="47.68321" lon="3.70314">
        <ele>156.35</ele>
        <time>2021-08-11T08:59:40Z</time>
      </trkpt>
      <trkpt lat="47.68315" lon="3.70321">
        <ele>157.31</ele>
        <time>2021-08-11T08:59:47Z</time>
      </trkpt>
      <trkpt lat="47.68309" lon="3.70331">
        <ele>157.79</ele>
        <time>2021-08-11T08:59:54Z</time>
      </trkpt>
      <trkpt lat="47.68301" lon="3.70341">
        <ele>159.24</ele>
        <time>2021-08-11T09:00:02Z</time>
      </trkpt>
      <trkpt lat="47.68287" lon="3.70353">
        <ele>160.2</ele>
        <time>2021-08-11T09:00:14Z</time>
      </trkpt>
      <trkpt lat="47.68276" lon="3.7036">
        <ele>161.64</ele>
        <time>2021-08-11T09:00:23Z</time>
      </trkpt>
      <trkpt lat="47.68263" lon="3.70365">
        <ele>163.08</ele>
        <time>2021-08-11T09:00:32Z</time>
      </trkpt>
      <trkpt lat="47.68253" lon="3.70372">
        <ele>164.52</ele>
        <time>2021-08-11T09:00:40Z</time>
      </trkpt>
      <trkpt lat="47.68244" lon="3.70379">
        <ele>165.96</ele>
        <time>2021-08-11T09:00:48Z</time>
      </trkpt>
      <trkpt lat="47.68235" lon="3.70392">
        <ele>166.93</ele>
        <time>2021-08-11T09:00:57Z</time>
      </trkpt>
      <trkpt lat="47.68234" lon="3.70393">
        <ele>167.41</ele>
        <time>2021-08-11T09:00:58Z</time>
      </trkpt>
      <trkpt lat="47.68233" lon="3.70395">
        <ele>167.89</ele>
        <time>2021-08-11T09:00:59Z</time>
      </trkpt>
      <trkpt lat="47.68232" lon="3.70396">
        <ele>167.89</ele>
        <time>2021-08-11T09:01:00Z</time>
      </trkpt>
      <trkpt lat="47.68232" lon="3.70398">
        <ele>167.89</ele>
        <time>2021-08-11T09:01:01Z</time>
      </trkpt>
      <trkpt lat="47.6823" lon="3.70402">
        <ele>168.37</ele>
        <time>2021-08-11T09:01:04Z</time>
      </trkpt>
      <trkpt lat="47.68229" lon="3.70403">
        <ele>168.85</ele>
        <time>2021-08-11T09:01:05Z</time>
      </trkpt>
      <trkpt lat="47.68228" lon="3.70405">
        <ele>168.85</ele>
        <time>2021-08-11T09:01:06Z</time>
      </trkpt>
      <trkpt lat="47.68227" lon="3.70407">
        <ele>168.85</ele>
        <time>2021-08-11T09:01:07Z</time>
      </trkpt>
      <trkpt lat="47.68227" lon="3.70408">
        <ele>169.33</ele>
        <time>2021-08-11T09:01:08Z</time>
      </trkpt>
      <trkpt lat="47.68226" lon="3.70411">
        <ele>169.33</ele>
        <time>2021-08-11T09:01:10Z</time>
      </trkpt>
      <trkpt lat="47.68225" lon="3.70413">
        <ele>170.29</ele>
        <time>2021-08-11T09:01:11Z</time>
      </trkpt>
      <trkpt lat="47.68225" lon="3.70414">
        <ele>170.29</ele>
        <time>2021-08-11T09:01:12Z</time>
      </trkpt>
      <trkpt lat="47.68224" lon="3.70416">
        <ele>170.29</ele>
        <time>2021-08-11T09:01:13Z</time>
      </trkpt>
      <trkpt lat="47.68224" lon="3.70417">
        <ele>170.77</ele>
        <time>2021-08-11T09:01:14Z</time>
      </trkpt>
      <trkpt lat="47.68223" lon="3.70419">
        <ele>170.77</ele>
        <time>2021-08-11T09:01:15Z</time>
      </trkpt>
      <trkpt lat="47.68222" lon="3.7042">
        <ele>170.77</ele>
        <time>2021-08-11T09:01:16Z</time>
      </trkpt>
      <trkpt lat="47.68221" lon="3.70421">
        <ele>171.25</ele>
        <time>2021-08-11T09:01:17Z</time>
      </trkpt>
      <trkpt lat="47.68221" lon="3.70423">
        <ele>171.25</ele>
        <time>2021-08-11T09:01:18Z</time>
      </trkpt>
      <trkpt lat="47.6822" lon="3.70424">
        <ele>171.25</ele>
        <time>2021-08-11T09:01:19Z</time>
      </trkpt>
      <trkpt lat="47.6822" lon="3.70426">
        <ele>171.25</ele>
        <time>2021-08-11T09:01:20Z</time>
      </trkpt>
      <trkpt lat="47.68219" lon="3.70427">
        <ele>171.73</ele>
        <time>2021-08-11T09:01:21Z</time>
      </trkpt>
      <trkpt lat="47.68219" lon="3.70429">
        <ele>171.73</ele>
        <time>2021-08-11T09:01:22Z</time>
      </trkpt>
      <trkpt lat="47.68218" lon="3.70431">
        <ele>172.21</ele>
        <time>2021-08-11T09:01:23Z</time>
      </trkpt>
      <trkpt lat="47.68217" lon="3.70433">
        <ele>172.21</ele>
        <time>2021-08-11T09:01:28Z</time>
      </trkpt>
      <trkpt lat="47.68213" lon="3.70445">
        <ele>173.66</ele>
        <time>2021-08-11T09:01:38Z</time>
      </trkpt>
      <trkpt lat="47.68209" lon="3.70454">
        <ele>175.1</ele>
        <time>2021-08-11T09:01:46Z</time>
      </trkpt>
      <trkpt lat="47.68204" lon="3.70462">
        <ele>176.06</ele>
        <time>2021-08-11T09:01:54Z</time>
      </trkpt>
      <trkpt lat="47.68199" lon="3.70469">
        <ele>177.5</ele>
        <time>2021-08-11T09:02:02Z</time>
      </trkpt>
      <trkpt lat="47.68192" lon="3.70475">
        <ele>178.46</ele>
        <time>2021-08-11T09:02:11Z</time>
      </trkpt>
      <trkpt lat="47.68183" lon="3.70482">
        <ele>179.9</ele>
        <time>2021-08-11T09:02:22Z</time>
      </trkpt>
      <trkpt lat="47.68174" lon="3.70488">
        <ele>181.83</ele>
        <time>2021-08-11T09:02:33Z</time>
      </trkpt>
      <trkpt lat="47.68166" lon="3.70491">
        <ele>182.79</ele>
        <time>2021-08-11T09:02:42Z</time>
      </trkpt>
      <trkpt lat="47.68159" lon="3.70494">
        <ele>183.75</ele>
        <time>2021-08-11T09:02:50Z</time>
      </trkpt>
      <trkpt lat="47.6815" lon="3.70497">
        <ele>185.19</ele>
        <time>2021-08-11T09:02:59Z</time>
      </trkpt>
      <trkpt lat="47.68145" lon="3.70499">
        <ele>185.67</ele>
        <time>2021-08-11T09:03:04Z</time>
      </trkpt>
      <trkpt lat="47.68144" lon="3.705">
        <ele>185.67</ele>
        <time>2021-08-11T09:03:05Z</time>
      </trkpt>
      <trkpt lat="47.68142" lon="3.705">
        <ele>186.15</ele>
        <time>2021-08-11T09:03:06Z</time>
      </trkpt>
      <trkpt lat="47.68135" lon="3.70502">
        <ele>187.11</ele>
        <time>2021-08-11T09:03:13Z</time>
      </trkpt>
      <trkpt lat="47.68127" lon="3.70505">
        <ele>187.59</ele>
        <time>2021-08-11T09:03:21Z</time>
      </trkpt>
      <trkpt lat="47.6812" lon="3.70507">
        <ele>189.04</ele>
        <time>2021-08-11T09:03:28Z</time>
      </trkpt>
      <trkpt lat="47.68109" lon="3.7051">
        <ele>190</ele>
        <time>2021-08-11T09:03:38Z</time>
      </trkpt>
      <trkpt lat="47.68099" lon="3.70514">
        <ele>190.48</ele>
        <time>2021-08-11T09:03:47Z</time>
      </trkpt>
      <trkpt lat="47.68088" lon="3.70517">
        <ele>191.92</ele>
        <time>2021-08-11T09:03:57Z</time>
      </trkpt>
      <trkpt lat="47.68086" lon="3.70518">
        <ele>191.92</ele>
        <time>2021-08-11T09:04:04Z</time>
      </trkpt>
      <trkpt lat="47.68084" lon="3.70519">
        <ele>191.92</ele>
        <time>2021-08-11T09:04:05Z</time>
      </trkpt>
      <trkpt lat="47.68069" lon="3.70521">
        <ele>192.4</ele>
        <time>2021-08-11T09:04:14Z</time>
      </trkpt>
      <trkpt lat="47.68055" lon="3.70525">
        <ele>193.36</ele>
        <time>2021-08-11T09:04:22Z</time>
      </trkpt>
      <trkpt lat="47.68043" lon="3.70528">
        <ele>194.32</ele>
        <time>2021-08-11T09:04:28Z</time>
      </trkpt>
      <trkpt lat="47.68026" lon="3.70533">
        <ele>195.28</ele>
        <time>2021-08-11T09:04:37Z</time>
      </trkpt>
      <trkpt lat="47.68018" lon="3.70535">
        <ele>195.77</ele>
        <time>2021-08-11T09:04:41Z</time>
      </trkpt>
      <trkpt lat="47.68016" lon="3.70536">
        <ele>196.25</ele>
        <time>2021-08-11T09:04:42Z</time>
      </trkpt>
      <trkpt lat="47.68015" lon="3.70536">
        <ele>196.25</ele>
        <time>2021-08-11T09:04:43Z</time>
      </trkpt>
      <trkpt lat="47.68013" lon="3.70536">
        <ele>196.25</ele>
        <time>2021-08-11T09:04:44Z</time>
      </trkpt>
      <trkpt lat="47.68011" lon="3.70536">
        <ele>196.25</ele>
        <time>2021-08-11T09:04:45Z</time>
      </trkpt>
      <trkpt lat="47.67991" lon="3.70539">
        <ele>197.69</ele>
        <time>2021-08-11T09:04:56Z</time>
      </trkpt>
      <trkpt lat="47.67974" lon="3.70541">
        <ele>198.65</ele>
        <time>2021-08-11T09:05:05Z</time>
      </trkpt>
      <trkpt lat="47.67952" lon="3.70544">
        <ele>200.09</ele>
        <time>2021-08-11T09:05:16Z</time>
      </trkpt>
      <trkpt lat="47.67931" lon="3.70549">
        <ele>201.53</ele>
        <time>2021-08-11T09:05:27Z</time>
      </trkpt>
      <trkpt lat="47.6791" lon="3.70554">
        <ele>202.49</ele>
        <time>2021-08-11T09:05:38Z</time>
      </trkpt>
      <trkpt lat="47.67893" lon="3.70559">
        <ele>203.94</ele>
        <time>2021-08-11T09:05:47Z</time>
      </trkpt>
      <trkpt lat="47.67874" lon="3.70564">
        <ele>204.9</ele>
        <time>2021-08-11T09:05:56Z</time>
      </trkpt>
      <trkpt lat="47.67856" lon="3.7057">
        <ele>205.86</ele>
        <time>2021-08-11T09:06:05Z</time>
      </trkpt>
      <trkpt lat="47.67834" lon="3.70576">
        <ele>206.82</ele>
        <time>2021-08-11T09:06:16Z</time>
      </trkpt>
      <trkpt lat="47.67816" lon="3.7058">
        <ele>207.78</ele>
        <time>2021-08-11T09:06:25Z</time>
      </trkpt>
      <trkpt lat="47.67802" lon="3.70585">
        <ele>208.74</ele>
        <time>2021-08-11T09:06:32Z</time>
      </trkpt>
      <trkpt lat="47.67788" lon="3.70588">
        <ele>209.7</ele>
        <time>2021-08-11T09:06:39Z</time>
      </trkpt>
      <trkpt lat="47.6777" lon="3.70594">
        <ele>210.67</ele>
        <time>2021-08-11T09:06:48Z</time>
      </trkpt>
      <trkpt lat="47.6775" lon="3.706">
        <ele>211.63</ele>
        <time>2021-08-11T09:06:57Z</time>
      </trkpt>
      <trkpt lat="47.67734" lon="3.70605">
        <ele>212.11</ele>
        <time>2021-08-11T09:07:04Z</time>
      </trkpt>
      <trkpt lat="47.67712" lon="3.70611">
        <ele>212.59</ele>
        <time>2021-08-11T09:07:13Z</time>
      </trkpt>
      <trkpt lat="47.67685" lon="3.7062">
        <ele>213.55</ele>
        <time>2021-08-11T09:07:23Z</time>
      </trkpt>
      <trkpt lat="47.6766" lon="3.7063">
        <ele>213.55</ele>
        <time>2021-08-11T09:07:31Z</time>
      </trkpt>
      <trkpt lat="47.67636" lon="3.70636">
        <ele>214.03</ele>
        <time>2021-08-11T09:07:38Z</time>
      </trkpt>
      <trkpt lat="47.67604" lon="3.70645">
        <ele>214.03</ele>
        <time>2021-08-11T09:07:47Z</time>
      </trkpt>
      <trkpt lat="47.6757" lon="3.70656">
        <ele>213.07</ele>
        <time>2021-08-11T09:07:56Z</time>
      </trkpt>
      <trkpt lat="47.67526" lon="3.70669">
        <ele>211.15</ele>
        <time>2021-08-11T09:08:06Z</time>
      </trkpt>
      <trkpt lat="47.67508" lon="3.70673">
        <ele>210.67</ele>
        <time>2021-08-11T09:08:10Z</time>
      </trkpt>
      <trkpt lat="47.67463" lon="3.70688">
        <ele>207.3</ele>
        <time>2021-08-11T09:08:18Z</time>
      </trkpt>
      <trkpt lat="47.67452" lon="3.70692">
        <ele>206.82</ele>
        <time>2021-08-11T09:08:20Z</time>
      </trkpt>
      <trkpt lat="47.67439" lon="3.70698">
        <ele>205.86</ele>
        <time>2021-08-11T09:08:22Z</time>
      </trkpt>
      <trkpt lat="47.67411" lon="3.70708">
        <ele>203.46</ele>
        <time>2021-08-11T09:08:26Z</time>
      </trkpt>
      <trkpt lat="47.67378" lon="3.7072">
        <ele>200.57</ele>
        <time>2021-08-11T09:08:30Z</time>
      </trkpt>
      <trkpt lat="47.67341" lon="3.70733">
        <ele>197.21</ele>
        <time>2021-08-11T09:08:34Z</time>
      </trkpt>
      <trkpt lat="47.67314" lon="3.70743">
        <ele>194.32</ele>
        <time>2021-08-11T09:08:37Z</time>
      </trkpt>
      <trkpt lat="47.6729" lon="3.70752">
        <ele>191.92</ele>
        <time>2021-08-11T09:08:41Z</time>
      </trkpt>
      <trkpt lat="47.67279" lon="3.70756">
        <ele>190.96</ele>
        <time>2021-08-11T09:08:43Z</time>
      </trkpt>
      <trkpt lat="47.67259" lon="3.7076">
        <ele>188.08</ele>
        <time>2021-08-11T09:08:46Z</time>
      </trkpt>
      <trkpt lat="47.67236" lon="3.70766">
        <ele>184.71</ele>
        <time>2021-08-11T09:08:50Z</time>
      </trkpt>
      <trkpt lat="47.67226" lon="3.70766">
        <ele>183.27</ele>
        <time>2021-08-11T09:08:52Z</time>
      </trkpt>
      <trkpt lat="47.67221" lon="3.70765">
        <ele>182.31</ele>
        <time>2021-08-11T09:08:53Z</time>
      </trkpt>
      <trkpt lat="47.67217" lon="3.70764">
        <ele>182.31</ele>
        <time>2021-08-11T09:08:54Z</time>
      </trkpt>
      <trkpt lat="47.67201" lon="3.70758">
        <ele>179.42</ele>
        <time>2021-08-11T09:08:57Z</time>
      </trkpt>
      <trkpt lat="47.67181" lon="3.70746">
        <ele>176.06</ele>
        <time>2021-08-11T09:09:01Z</time>
      </trkpt>
      <trkpt lat="47.67157" lon="3.70732">
        <ele>172.69</ele>
        <time>2021-08-11T09:09:05Z</time>
      </trkpt>
      <trkpt lat="47.67135" lon="3.70719">
        <ele>169.33</ele>
        <time>2021-08-11T09:09:08Z</time>
      </trkpt>
      <trkpt lat="47.67127" lon="3.70717">
        <ele>167.89</ele>
        <time>2021-08-11T09:09:09Z</time>
      </trkpt>
      <trkpt lat="47.67118" lon="3.70716">
        <ele>166.45</ele>
        <time>2021-08-11T09:09:10Z</time>
      </trkpt>
      <trkpt lat="47.67109" lon="3.70717">
        <ele>165</ele>
        <time>2021-08-11T09:09:11Z</time>
      </trkpt>
      <trkpt lat="47.67099" lon="3.70718">
        <ele>163.56</ele>
        <time>2021-08-11T09:09:12Z</time>
      </trkpt>
      <trkpt lat="47.67069" lon="3.70721">
        <ele>158.75</ele>
        <time>2021-08-11T09:09:15Z</time>
      </trkpt>
      <trkpt lat="47.67049" lon="3.70724">
        <ele>156.83</ele>
        <time>2021-08-11T09:09:17Z</time>
      </trkpt>
      <trkpt lat="47.6704" lon="3.70728">
        <ele>155.87</ele>
        <time>2021-08-11T09:09:18Z</time>
      </trkpt>
      <trkpt lat="47.67031" lon="3.70733">
        <ele>154.91</ele>
        <time>2021-08-11T09:09:19Z</time>
      </trkpt>
      <trkpt lat="47.67003" lon="3.70751">
        <ele>152.03</ele>
        <time>2021-08-11T09:09:22Z</time>
      </trkpt>
      <trkpt lat="47.66974" lon="3.70769">
        <ele>148.66</ele>
        <time>2021-08-11T09:09:25Z</time>
      </trkpt>
      <trkpt lat="47.66933" lon="3.70794">
        <ele>145.3</ele>
        <time>2021-08-11T09:09:29Z</time>
      </trkpt>
      <trkpt lat="47.66891" lon="3.70819">
        <ele>142.41</ele>
        <time>2021-08-11T09:09:33Z</time>
      </trkpt>
      <trkpt lat="47.66807" lon="3.70873">
        <ele>138.57</ele>
        <time>2021-08-11T09:09:42Z</time>
      </trkpt>
      <trkpt lat="47.66789" lon="3.70885">
        <ele>138.09</ele>
        <time>2021-08-11T09:09:44Z</time>
      </trkpt>
      <trkpt lat="47.66753" lon="3.70902">
        <ele>136.16</ele>
        <time>2021-08-11T09:09:48Z</time>
      </trkpt>
      <trkpt lat="47.66679" lon="3.70915">
        <ele>133.28</ele>
        <time>2021-08-11T09:09:56Z</time>
      </trkpt>
      <trkpt lat="47.66631" lon="3.70922">
        <ele>130.88</ele>
        <time>2021-08-11T09:10:02Z</time>
      </trkpt>
      <trkpt lat="47.66624" lon="3.70923">
        <ele>130.88</ele>
        <time>2021-08-11T09:10:03Z</time>
      </trkpt>
      <trkpt lat="47.66612" lon="3.70923">
        <ele>130.4</ele>
        <time>2021-08-11T09:10:05Z</time>
      </trkpt>
      <trkpt lat="47.66608" lon="3.70922">
        <ele>130.4</ele>
        <time>2021-08-11T09:10:06Z</time>
      </trkpt>
      <trkpt lat="47.66603" lon="3.70919">
        <ele>129.92</ele>
        <time>2021-08-11T09:10:07Z</time>
      </trkpt>
      <trkpt lat="47.66596" lon="3.70915">
        <ele>129.43</ele>
        <time>2021-08-11T09:10:09Z</time>
      </trkpt>
      <trkpt lat="47.66592" lon="3.70915">
        <ele>128.95</ele>
        <time>2021-08-11T09:10:10Z</time>
      </trkpt>
      <trkpt lat="47.66589" lon="3.70915">
        <ele>128.95</ele>
        <time>2021-08-11T09:10:11Z</time>
      </trkpt>
      <trkpt lat="47.66587" lon="3.70917">
        <ele>128.95</ele>
        <time>2021-08-11T09:10:12Z</time>
      </trkpt>
      <trkpt lat="47.66586" lon="3.7092">
        <ele>128.95</ele>
        <time>2021-08-11T09:10:15Z</time>
      </trkpt>
      <trkpt lat="47.66585" lon="3.70922">
        <ele>128.95</ele>
        <time>2021-08-11T09:10:16Z</time>
      </trkpt>
      <trkpt lat="47.66584" lon="3.70924">
        <ele>128.95</ele>
        <time>2021-08-11T09:10:17Z</time>
      </trkpt>
      <trkpt lat="47.66583" lon="3.70927">
        <ele>128.95</ele>
        <time>2021-08-11T09:10:18Z</time>
      </trkpt>
      <trkpt lat="47.66581" lon="3.7093">
        <ele>128.95</ele>
        <time>2021-08-11T09:10:19Z</time>
      </trkpt>
      <trkpt lat="47.66581" lon="3.70935">
        <ele>128.95</ele>
        <time>2021-08-11T09:10:20Z</time>
      </trkpt>
      <trkpt lat="47.6658" lon="3.7094">
        <ele>128.95</ele>
        <time>2021-08-11T09:10:21Z</time>
      </trkpt>
      <trkpt lat="47.66581" lon="3.70945">
        <ele>128.47</ele>
        <time>2021-08-11T09:10:22Z</time>
      </trkpt>
      <trkpt lat="47.66581" lon="3.70951">
        <ele>128.47</ele>
        <time>2021-08-11T09:10:23Z</time>
      </trkpt>
      <trkpt lat="47.6658" lon="3.70986">
        <ele>127.99</ele>
        <time>2021-08-11T09:10:29Z</time>
      </trkpt>
      <trkpt lat="47.66576" lon="3.70989">
        <ele>127.51</ele>
        <time>2021-08-11T09:10:30Z</time>
      </trkpt>
      <trkpt lat="47.66571" lon="3.70989">
        <ele>127.03</ele>
        <time>2021-08-11T09:10:31Z</time>
      </trkpt>
      <trkpt lat="47.66567" lon="3.70988">
        <ele>127.03</ele>
        <time>2021-08-11T09:10:32Z</time>
      </trkpt>
      <trkpt lat="47.66561" lon="3.70987">
        <ele>126.07</ele>
        <time>2021-08-11T09:10:33Z</time>
      </trkpt>
      <trkpt lat="47.66515" lon="3.70975">
        <ele>123.67</ele>
        <time>2021-08-11T09:10:40Z</time>
      </trkpt>
      <trkpt lat="47.66449" lon="3.7096">
        <ele>120.3</ele>
        <time>2021-08-11T09:10:49Z</time>
      </trkpt>
      <trkpt lat="47.66372" lon="3.70942">
        <ele>118.38</ele>
        <time>2021-08-11T09:10:59Z</time>
      </trkpt>
      <trkpt lat="47.66348" lon="3.70936">
        <ele>118.38</ele>
        <time>2021-08-11T09:11:03Z</time>
      </trkpt>
      <trkpt lat="47.66343" lon="3.70935">
        <ele>118.38</ele>
        <time>2021-08-11T09:11:04Z</time>
      </trkpt>
      <trkpt lat="47.66315" lon="3.70929">
        <ele>120.78</ele>
        <time>2021-08-11T09:11:11Z</time>
      </trkpt>
      <trkpt lat="47.66291" lon="3.70923">
        <ele>121.26</ele>
        <time>2021-08-11T09:11:18Z</time>
      </trkpt>
      <trkpt lat="47.66259" lon="3.70916">
        <ele>121.74</ele>
        <time>2021-08-11T09:11:27Z</time>
      </trkpt>
      <trkpt lat="47.66236" lon="3.7091">
        <ele>121.74</ele>
        <time>2021-08-11T09:11:33Z</time>
      </trkpt>
      <trkpt lat="47.66227" lon="3.70907">
        <ele>119.82</ele>
        <time>2021-08-11T09:11:35Z</time>
      </trkpt>
      <trkpt lat="47.66222" lon="3.70908">
        <ele>119.34</ele>
        <time>2021-08-11T09:11:36Z</time>
      </trkpt>
      <trkpt lat="47.66219" lon="3.70911">
        <ele>119.34</ele>
        <time>2021-08-11T09:11:37Z</time>
      </trkpt>
      <trkpt lat="47.66216" lon="3.70918">
        <ele>118.86</ele>
        <time>2021-08-11T09:11:38Z</time>
      </trkpt>
      <trkpt lat="47.66215" lon="3.70924">
        <ele>117.9</ele>
        <time>2021-08-11T09:11:39Z</time>
      </trkpt>
      <trkpt lat="47.66215" lon="3.70932">
        <ele>117.9</ele>
        <time>2021-08-11T09:11:40Z</time>
      </trkpt>
      <trkpt lat="47.66206" lon="3.71012">
        <ele>117.9</ele>
        <time>2021-08-11T09:11:51Z</time>
      </trkpt>
      <trkpt lat="47.66202" lon="3.71059">
        <ele>117.9</ele>
        <time>2021-08-11T09:11:58Z</time>
      </trkpt>
      <trkpt lat="47.662" lon="3.71064">
        <ele>117.42</ele>
        <time>2021-08-11T09:11:59Z</time>
      </trkpt>
      <trkpt lat="47.66198" lon="3.71067">
        <ele>117.9</ele>
        <time>2021-08-11T09:12:00Z</time>
      </trkpt>
      <trkpt lat="47.66196" lon="3.71068">
        <ele>117.42</ele>
        <time>2021-08-11T09:12:01Z</time>
      </trkpt>
      <trkpt lat="47.66194" lon="3.71069">
        <ele>117.42</ele>
        <time>2021-08-11T09:12:02Z</time>
      </trkpt>
      <trkpt lat="47.66191" lon="3.71069">
        <ele>117.42</ele>
        <time>2021-08-11T09:12:03Z</time>
      </trkpt>
      <trkpt lat="47.66189" lon="3.7107">
        <ele>117.42</ele>
        <time>2021-08-11T09:12:04Z</time>
      </trkpt>
      <trkpt lat="47.66166" lon="3.71076">
        <ele>117.9</ele>
        <time>2021-08-11T09:12:11Z</time>
      </trkpt>
      <trkpt lat="47.66146" lon="3.71081">
        <ele>117.9</ele>
        <time>2021-08-11T09:12:17Z</time>
      </trkpt>
      <trkpt lat="47.66119" lon="3.7109">
        <ele>117.9</ele>
        <time>2021-08-11T09:12:24Z</time>
      </trkpt>
      <trkpt lat="47.66085" lon="3.71109">
        <ele>119.34</ele>
        <time>2021-08-11T09:12:33Z</time>
      </trkpt>
      <trkpt lat="47.66066" lon="3.71121">
        <ele>120.3</ele>
        <time>2021-08-11T09:12:40Z</time>
      </trkpt>
      <trkpt lat="47.66049" lon="3.71133">
        <ele>121.26</ele>
        <time>2021-08-11T09:12:47Z</time>
      </trkpt>
      <trkpt lat="47.66038" lon="3.71143">
        <ele>122.71</ele>
        <time>2021-08-11T09:12:53Z</time>
      </trkpt>
      <trkpt lat="47.66026" lon="3.71152">
        <ele>123.67</ele>
        <time>2021-08-11T09:12:59Z</time>
      </trkpt>
      <trkpt lat="47.66016" lon="3.71162">
        <ele>124.63</ele>
        <time>2021-08-11T09:13:06Z</time>
      </trkpt>
      <trkpt lat="47.66014" lon="3.71163">
        <ele>124.63</ele>
        <time>2021-08-11T09:13:07Z</time>
      </trkpt>
      <trkpt lat="47.66011" lon="3.71165">
        <ele>124.63</ele>
        <time>2021-08-11T09:13:08Z</time>
      </trkpt>
      <trkpt lat="47.66009" lon="3.71166">
        <ele>125.11</ele>
        <time>2021-08-11T09:13:09Z</time>
      </trkpt>
      <trkpt lat="47.66007" lon="3.71167">
        <ele>125.11</ele>
        <time>2021-08-11T09:13:10Z</time>
      </trkpt>
      <trkpt lat="47.66004" lon="3.71168">
        <ele>125.11</ele>
        <time>2021-08-11T09:13:11Z</time>
      </trkpt>
      <trkpt lat="47.66003" lon="3.71169">
        <ele>125.11</ele>
        <time>2021-08-11T09:13:12Z</time>
      </trkpt>
      <trkpt lat="47.66001" lon="3.7117">
        <ele>125.59</ele>
        <time>2021-08-11T09:13:13Z</time>
      </trkpt>
      <trkpt lat="47.6599" lon="3.71171">
        <ele>126.55</ele>
        <time>2021-08-11T09:13:19Z</time>
      </trkpt>
      <trkpt lat="47.65978" lon="3.71175">
        <ele>127.03</ele>
        <time>2021-08-11T09:13:27Z</time>
      </trkpt>
      <trkpt lat="47.65972" lon="3.71169">
        <ele>127.03</ele>
        <time>2021-08-11T09:13:35Z</time>
      </trkpt>
      <trkpt lat="47.6597" lon="3.71169">
        <ele>127.03</ele>
        <time>2021-08-11T09:13:36Z</time>
      </trkpt>
      <trkpt lat="47.65969" lon="3.71168">
        <ele>127.03</ele>
        <time>2021-08-11T09:13:37Z</time>
      </trkpt>
      <trkpt lat="47.65967" lon="3.71166">
        <ele>127.03</ele>
        <time>2021-08-11T09:13:38Z</time>
      </trkpt>
      <trkpt lat="47.65966" lon="3.71165">
        <ele>127.51</ele>
        <time>2021-08-11T09:13:39Z</time>
      </trkpt>
      <trkpt lat="47.65965" lon="3.71163">
        <ele>127.51</ele>
        <time>2021-08-11T09:13:40Z</time>
      </trkpt>
      <trkpt lat="47.65963" lon="3.7116">
        <ele>127.51</ele>
        <time>2021-08-11T09:13:41Z</time>
      </trkpt>
      <trkpt lat="47.65963" lon="3.71157">
        <ele>127.51</ele>
        <time>2021-08-11T09:13:42Z</time>
      </trkpt>
      <trkpt lat="47.65962" lon="3.71154">
        <ele>127.51</ele>
        <time>2021-08-11T09:13:43Z</time>
      </trkpt>
      <trkpt lat="47.65956" lon="3.71121">
        <ele>127.99</ele>
        <time>2021-08-11T09:13:51Z</time>
      </trkpt>
      <trkpt lat="47.65951" lon="3.7109">
        <ele>127.99</ele>
        <time>2021-08-11T09:13:59Z</time>
      </trkpt>
      <trkpt lat="47.65944" lon="3.71064">
        <ele>127.99</ele>
        <time>2021-08-11T09:14:06Z</time>
      </trkpt>
      <trkpt lat="47.65942" lon="3.71062">
        <ele>127.99</ele>
        <time>2021-08-11T09:14:07Z</time>
      </trkpt>
      <trkpt lat="47.65939" lon="3.71062">
        <ele>127.99</ele>
        <time>2021-08-11T09:14:08Z</time>
      </trkpt>
      <trkpt lat="47.6591" lon="3.71077">
        <ele>128.95</ele>
        <time>2021-08-11T09:14:17Z</time>
      </trkpt>
      <trkpt lat="47.65883" lon="3.71085">
        <ele>129.43</ele>
        <time>2021-08-11T09:14:25Z</time>
      </trkpt>
      <trkpt lat="47.65858" lon="3.71092">
        <ele>130.4</ele>
        <time>2021-08-11T09:14:33Z</time>
      </trkpt>
      <trkpt lat="47.65847" lon="3.71107">
        <ele>130.4</ele>
        <time>2021-08-11T09:14:38Z</time>
      </trkpt>
      <trkpt lat="47.65848" lon="3.71111">
        <ele>130.88</ele>
        <time>2021-08-11T09:14:39Z</time>
      </trkpt>
      <trkpt lat="47.6586" lon="3.7116">
        <ele>130.88</ele>
        <time>2021-08-11T09:14:49Z</time>
      </trkpt>
      <trkpt lat="47.6587" lon="3.71212">
        <ele>131.36</ele>
        <time>2021-08-11T09:14:58Z</time>
      </trkpt>
      <trkpt lat="47.65877" lon="3.7124">
        <ele>131.36</ele>
        <time>2021-08-11T09:15:03Z</time>
      </trkpt>
      <trkpt lat="47.65877" lon="3.71247">
        <ele>131.36</ele>
        <time>2021-08-11T09:15:04Z</time>
      </trkpt>
      <trkpt lat="47.65876" lon="3.71252">
        <ele>131.36</ele>
        <time>2021-08-11T09:15:05Z</time>
      </trkpt>
      <trkpt lat="47.65873" lon="3.71256">
        <ele>131.36</ele>
        <time>2021-08-11T09:15:06Z</time>
      </trkpt>
      <trkpt lat="47.65869" lon="3.71258">
        <ele>131.36</ele>
        <time>2021-08-11T09:15:07Z</time>
      </trkpt>
      <trkpt lat="47.65866" lon="3.71258">
        <ele>131.36</ele>
        <time>2021-08-11T09:15:08Z</time>
      </trkpt>
      <trkpt lat="47.65863" lon="3.71258">
        <ele>131.36</ele>
        <time>2021-08-11T09:15:09Z</time>
      </trkpt>
      <trkpt lat="47.65859" lon="3.71257">
        <ele>131.36</ele>
        <time>2021-08-11T09:15:10Z</time>
      </trkpt>
      <trkpt lat="47.6583" lon="3.71252">
        <ele>132.32</ele>
        <time>2021-08-11T09:15:19Z</time>
      </trkpt>
      <trkpt lat="47.65803" lon="3.71249">
        <ele>133.28</ele>
        <time>2021-08-11T09:15:28Z</time>
      </trkpt>
      <trkpt lat="47.65777" lon="3.71247">
        <ele>133.76</ele>
        <time>2021-08-11T09:15:37Z</time>
      </trkpt>
      <trkpt lat="47.65752" lon="3.71242">
        <ele>134.72</ele>
        <time>2021-08-11T09:15:46Z</time>
      </trkpt>
      <trkpt lat="47.65725" lon="3.71238">
        <ele>135.68</ele>
        <time>2021-08-11T09:15:56Z</time>
      </trkpt>
      <trkpt lat="47.65696" lon="3.71235">
        <ele>136.64</ele>
        <time>2021-08-11T09:16:07Z</time>
      </trkpt>
      <trkpt lat="47.65666" lon="3.7124">
        <ele>136.64</ele>
        <time>2021-08-11T09:16:18Z</time>
      </trkpt>
      <trkpt lat="47.65639" lon="3.7125">
        <ele>138.09</ele>
        <time>2021-08-11T09:16:29Z</time>
      </trkpt>
      <trkpt lat="47.65621" lon="3.71257">
        <ele>139.05</ele>
        <time>2021-08-11T09:16:38Z</time>
      </trkpt>
      <trkpt lat="47.65605" lon="3.71261">
        <ele>140.01</ele>
        <time>2021-08-11T09:16:47Z</time>
      </trkpt>
      <trkpt lat="47.65591" lon="3.71266">
        <ele>141.45</ele>
        <time>2021-08-11T09:16:55Z</time>
      </trkpt>
      <trkpt lat="47.6559" lon="3.71266">
        <ele>141.45</ele>
        <time>2021-08-11T09:16:56Z</time>
      </trkpt>
      <trkpt lat="47.65588" lon="3.71267">
        <ele>141.45</ele>
        <time>2021-08-11T09:16:57Z</time>
      </trkpt>
      <trkpt lat="47.65587" lon="3.71267">
        <ele>141.45</ele>
        <time>2021-08-11T09:16:58Z</time>
      </trkpt>
      <trkpt lat="47.65586" lon="3.71267">
        <ele>141.93</ele>
        <time>2021-08-11T09:16:59Z</time>
      </trkpt>
      <trkpt lat="47.65585" lon="3.71267">
        <ele>141.93</ele>
        <time>2021-08-11T09:17:00Z</time>
      </trkpt>
      <trkpt lat="47.65583" lon="3.71267">
        <ele>141.93</ele>
        <time>2021-08-11T09:17:01Z</time>
      </trkpt>
      <trkpt lat="47.65582" lon="3.71267">
        <ele>141.93</ele>
        <time>2021-08-11T09:17:02Z</time>
      </trkpt>
      <trkpt lat="47.6558" lon="3.71268">
        <ele>142.41</ele>
        <time>2021-08-11T09:17:03Z</time>
      </trkpt>
      <trkpt lat="47.65579" lon="3.71268">
        <ele>142.41</ele>
        <time>2021-08-11T09:17:04Z</time>
      </trkpt>
      <trkpt lat="47.6556" lon="3.71276">
        <ele>144.34</ele>
        <time>2021-08-11T09:17:16Z</time>
      </trkpt>
      <trkpt lat="47.65548" lon="3.71281">
        <ele>145.78</ele>
        <time>2021-08-11T09:17:24Z</time>
      </trkpt>
      <trkpt lat="47.65537" lon="3.71287">
        <ele>147.22</ele>
        <time>2021-08-11T09:17:32Z</time>
      </trkpt>
      <trkpt lat="47.65535" lon="3.71288">
        <ele>147.22</ele>
        <time>2021-08-11T09:17:33Z</time>
      </trkpt>
      <trkpt lat="47.65534" lon="3.71289">
        <ele>147.22</ele>
        <time>2021-08-11T09:17:34Z</time>
      </trkpt>
      <trkpt lat="47.65533" lon="3.7129">
        <ele>147.22</ele>
        <time>2021-08-11T09:17:35Z</time>
      </trkpt>
      <trkpt lat="47.65532" lon="3.71291">
        <ele>147.7</ele>
        <time>2021-08-11T09:17:36Z</time>
      </trkpt>
      <trkpt lat="47.6553" lon="3.71292">
        <ele>147.7</ele>
        <time>2021-08-11T09:17:37Z</time>
      </trkpt>
      <trkpt lat="47.65529" lon="3.71292">
        <ele>147.7</ele>
        <time>2021-08-11T09:17:38Z</time>
      </trkpt>
      <trkpt lat="47.65528" lon="3.71293">
        <ele>148.18</ele>
        <time>2021-08-11T09:17:39Z</time>
      </trkpt>
      <trkpt lat="47.65526" lon="3.71295">
        <ele>148.18</ele>
        <time>2021-08-11T09:17:40Z</time>
      </trkpt>
      <trkpt lat="47.65525" lon="3.71296">
        <ele>148.66</ele>
        <time>2021-08-11T09:17:41Z</time>
      </trkpt>
      <trkpt lat="47.65524" lon="3.71296">
        <ele>148.66</ele>
        <time>2021-08-11T09:17:42Z</time>
      </trkpt>
      <trkpt lat="47.6551" lon="3.71306">
        <ele>150.1</ele>
        <time>2021-08-11T09:17:52Z</time>
      </trkpt>
      <trkpt lat="47.65509" lon="3.71307">
        <ele>150.1</ele>
        <time>2021-08-11T09:17:53Z</time>
      </trkpt>
      <trkpt lat="47.65508" lon="3.71308">
        <ele>150.1</ele>
        <time>2021-08-11T09:17:54Z</time>
      </trkpt>
      <trkpt lat="47.65507" lon="3.71309">
        <ele>150.1</ele>
        <time>2021-08-11T09:17:55Z</time>
      </trkpt>
      <trkpt lat="47.65506" lon="3.7131">
        <ele>150.58</ele>
        <time>2021-08-11T09:17:56Z</time>
      </trkpt>
      <trkpt lat="47.65504" lon="3.71311">
        <ele>150.58</ele>
        <time>2021-08-11T09:17:57Z</time>
      </trkpt>
      <trkpt lat="47.65503" lon="3.71311">
        <ele>150.58</ele>
        <time>2021-08-11T09:17:58Z</time>
      </trkpt>
      <trkpt lat="47.6549" lon="3.7132">
        <ele>152.03</ele>
        <time>2021-08-11T09:18:08Z</time>
      </trkpt>
      <trkpt lat="47.65488" lon="3.71321">
        <ele>152.03</ele>
        <time>2021-08-11T09:18:09Z</time>
      </trkpt>
      <trkpt lat="47.65487" lon="3.71322">
        <ele>152.03</ele>
        <time>2021-08-11T09:18:10Z</time>
      </trkpt>
      <trkpt lat="47.65486" lon="3.71322">
        <ele>152.03</ele>
        <time>2021-08-11T09:18:11Z</time>
      </trkpt>
      <trkpt lat="47.65485" lon="3.71323">
        <ele>152.99</ele>
        <time>2021-08-11T09:18:12Z</time>
      </trkpt>
      <trkpt lat="47.65484" lon="3.71324">
        <ele>152.99</ele>
        <time>2021-08-11T09:18:13Z</time>
      </trkpt>
      <trkpt lat="47.65482" lon="3.71324">
        <ele>152.99</ele>
        <time>2021-08-11T09:18:14Z</time>
      </trkpt>
      <trkpt lat="47.65481" lon="3.71325">
        <ele>152.99</ele>
        <time>2021-08-11T09:18:15Z</time>
      </trkpt>
      <trkpt lat="47.6548" lon="3.71326">
        <ele>152.99</ele>
        <time>2021-08-11T09:18:16Z</time>
      </trkpt>
      <trkpt lat="47.65479" lon="3.71327">
        <ele>153.47</ele>
        <time>2021-08-11T09:18:17Z</time>
      </trkpt>
      <trkpt lat="47.65478" lon="3.71327">
        <ele>153.95</ele>
        <time>2021-08-11T09:18:18Z</time>
      </trkpt>
      <trkpt lat="47.65476" lon="3.71328">
        <ele>153.47</ele>
        <time>2021-08-11T09:18:19Z</time>
      </trkpt>
      <trkpt lat="47.65475" lon="3.71329">
        <ele>153.95</ele>
        <time>2021-08-11T09:18:20Z</time>
      </trkpt>
      <trkpt lat="47.65467" lon="3.71331">
        <ele>155.39</ele>
        <time>2021-08-11T09:18:26Z</time>
      </trkpt>
      <trkpt lat="47.65466" lon="3.71332">
        <ele>155.39</ele>
        <time>2021-08-11T09:18:27Z</time>
      </trkpt>
      <trkpt lat="47.65465" lon="3.71333">
        <ele>155.39</ele>
        <time>2021-08-11T09:18:28Z</time>
      </trkpt>
      <trkpt lat="47.65463" lon="3.71334">
        <ele>155.39</ele>
        <time>2021-08-11T09:18:29Z</time>
      </trkpt>
      <trkpt lat="47.65462" lon="3.71335">
        <ele>155.39</ele>
        <time>2021-08-11T09:18:30Z</time>
      </trkpt>
      <trkpt lat="47.65461" lon="3.71335">
        <ele>155.39</ele>
        <time>2021-08-11T09:18:31Z</time>
      </trkpt>
      <trkpt lat="47.65459" lon="3.71336">
        <ele>155.39</ele>
        <time>2021-08-11T09:18:32Z</time>
      </trkpt>
      <trkpt lat="47.65449" lon="3.71341">
        <ele>157.31</ele>
        <time>2021-08-11T09:18:40Z</time>
      </trkpt>
      <trkpt lat="47.65448" lon="3.71342">
        <ele>157.31</ele>
        <time>2021-08-11T09:18:41Z</time>
      </trkpt>
      <trkpt lat="47.65447" lon="3.71342">
        <ele>157.31</ele>
        <time>2021-08-11T09:18:42Z</time>
      </trkpt>
      <trkpt lat="47.65446" lon="3.71343">
        <ele>157.79</ele>
        <time>2021-08-11T09:18:43Z</time>
      </trkpt>
      <trkpt lat="47.65444" lon="3.71343">
        <ele>157.79</ele>
        <time>2021-08-11T09:18:44Z</time>
      </trkpt>
      <trkpt lat="47.65443" lon="3.71344">
        <ele>157.79</ele>
        <time>2021-08-11T09:18:45Z</time>
      </trkpt>
      <trkpt lat="47.65442" lon="3.71344">
        <ele>157.79</ele>
        <time>2021-08-11T09:18:46Z</time>
      </trkpt>
      <trkpt lat="47.6544" lon="3.71344">
        <ele>157.79</ele>
        <time>2021-08-11T09:18:47Z</time>
      </trkpt>
      <trkpt lat="47.65439" lon="3.71345">
        <ele>158.27</ele>
        <time>2021-08-11T09:18:48Z</time>
      </trkpt>
      <trkpt lat="47.65438" lon="3.71345">
        <ele>158.27</ele>
        <time>2021-08-11T09:18:49Z</time>
      </trkpt>
      <trkpt lat="47.65436" lon="3.71346">
        <ele>158.27</ele>
        <time>2021-08-11T09:18:50Z</time>
      </trkpt>
      <trkpt lat="47.65435" lon="3.71347">
        <ele>158.27</ele>
        <time>2021-08-11T09:18:51Z</time>
      </trkpt>
      <trkpt lat="47.65434" lon="3.71348">
        <ele>158.75</ele>
        <time>2021-08-11T09:18:52Z</time>
      </trkpt>
      <trkpt lat="47.65433" lon="3.71348">
        <ele>158.75</ele>
        <time>2021-08-11T09:18:53Z</time>
      </trkpt>
      <trkpt lat="47.65421" lon="3.71353">
        <ele>160.2</ele>
        <time>2021-08-11T09:19:03Z</time>
      </trkpt>
      <trkpt lat="47.65413" lon="3.71356">
        <ele>161.16</ele>
        <time>2021-08-11T09:19:10Z</time>
      </trkpt>
      <trkpt lat="47.6541" lon="3.71357">
        <ele>161.64</ele>
        <time>2021-08-11T09:19:15Z</time>
      </trkpt>
      <trkpt lat="47.65405" lon="3.71361">
        <ele>162.12</ele>
        <time>2021-08-11T09:19:24Z</time>
      </trkpt>
      <trkpt lat="47.65403" lon="3.71362">
        <ele>162.6</ele>
        <time>2021-08-11T09:19:28Z</time>
      </trkpt>
      <trkpt lat="47.654" lon="3.71363">
        <ele>162.6</ele>
        <time>2021-08-11T09:19:32Z</time>
      </trkpt>
      <trkpt lat="47.65398" lon="3.71362">
        <ele>163.08</ele>
        <time>2021-08-11T09:19:35Z</time>
      </trkpt>
      <trkpt lat="47.65396" lon="3.71364">
        <ele>163.08</ele>
        <time>2021-08-11T09:19:37Z</time>
      </trkpt>
      <trkpt lat="47.65387" lon="3.71371">
        <ele>165</ele>
        <time>2021-08-11T09:19:48Z</time>
      </trkpt>
      <trkpt lat="47.6538" lon="3.71376">
        <ele>165.96</ele>
        <time>2021-08-11T09:19:56Z</time>
      </trkpt>
      <trkpt lat="47.65372" lon="3.7138">
        <ele>167.89</ele>
        <time>2021-08-11T09:20:05Z</time>
      </trkpt>
      <trkpt lat="47.65364" lon="3.71385">
        <ele>168.85</ele>
        <time>2021-08-11T09:20:14Z</time>
      </trkpt>
      <trkpt lat="47.65358" lon="3.71388">
        <ele>170.77</ele>
        <time>2021-08-11T09:20:23Z</time>
      </trkpt>
      <trkpt lat="47.65351" lon="3.71392">
        <ele>171.73</ele>
        <time>2021-08-11T09:20:31Z</time>
      </trkpt>
      <trkpt lat="47.65344" lon="3.71396">
        <ele>172.69</ele>
        <time>2021-08-11T09:20:40Z</time>
      </trkpt>
      <trkpt lat="47.65337" lon="3.714">
        <ele>174.14</ele>
        <time>2021-08-11T09:20:49Z</time>
      </trkpt>
      <trkpt lat="47.6533" lon="3.71405">
        <ele>175.58</ele>
        <time>2021-08-11T09:20:58Z</time>
      </trkpt>
      <trkpt lat="47.65323" lon="3.71411">
        <ele>176.54</ele>
        <time>2021-08-11T09:21:07Z</time>
      </trkpt>
      <trkpt lat="47.65317" lon="3.71417">
        <ele>177.5</ele>
        <time>2021-08-11T09:21:15Z</time>
      </trkpt>
      <trkpt lat="47.65314" lon="3.7142">
        <ele>178.46</ele>
        <time>2021-08-11T09:21:20Z</time>
      </trkpt>
      <trkpt lat="47.65308" lon="3.71428">
        <ele>179.42</ele>
        <time>2021-08-11T09:21:29Z</time>
      </trkpt>
      <trkpt lat="47.65304" lon="3.71436">
        <ele>179.9</ele>
        <time>2021-08-11T09:21:37Z</time>
      </trkpt>
      <trkpt lat="47.65298" lon="3.71445">
        <ele>180.87</ele>
        <time>2021-08-11T09:21:45Z</time>
      </trkpt>
      <trkpt lat="47.65293" lon="3.71452">
        <ele>181.83</ele>
        <time>2021-08-11T09:21:53Z</time>
      </trkpt>
      <trkpt lat="47.65287" lon="3.71459">
        <ele>183.27</ele>
        <time>2021-08-11T09:22:02Z</time>
      </trkpt>
      <trkpt lat="47.65279" lon="3.71467">
        <ele>184.71</ele>
        <time>2021-08-11T09:22:12Z</time>
      </trkpt>
      <trkpt lat="47.65271" lon="3.71476">
        <ele>185.67</ele>
        <time>2021-08-11T09:22:22Z</time>
      </trkpt>
      <trkpt lat="47.65264" lon="3.71486">
        <ele>186.63</ele>
        <time>2021-08-11T09:22:32Z</time>
      </trkpt>
      <trkpt lat="47.65257" lon="3.71495">
        <ele>187.59</ele>
        <time>2021-08-11T09:22:41Z</time>
      </trkpt>
      <trkpt lat="47.65251" lon="3.71507">
        <ele>189.04</ele>
        <time>2021-08-11T09:22:52Z</time>
      </trkpt>
      <trkpt lat="47.65249" lon="3.71515">
        <ele>189.52</ele>
        <time>2021-08-11T09:23:00Z</time>
      </trkpt>
      <trkpt lat="47.65247" lon="3.7152">
        <ele>189.52</ele>
        <time>2021-08-11T09:23:05Z</time>
      </trkpt>
      <trkpt lat="47.65245" lon="3.7153">
        <ele>190</ele>
        <time>2021-08-11T09:23:11Z</time>
      </trkpt>
      <trkpt lat="47.65238" lon="3.71542">
        <ele>190.96</ele>
        <time>2021-08-11T09:23:17Z</time>
      </trkpt>
      <trkpt lat="47.65237" lon="3.71543">
        <ele>190.96</ele>
        <time>2021-08-11T09:23:18Z</time>
      </trkpt>
      <trkpt lat="47.65236" lon="3.71545">
        <ele>190.96</ele>
        <time>2021-08-11T09:23:19Z</time>
      </trkpt>
      <trkpt lat="47.65227" lon="3.71553">
        <ele>192.4</ele>
        <time>2021-08-11T09:23:26Z</time>
      </trkpt>
      <trkpt lat="47.65214" lon="3.71557">
        <ele>193.36</ele>
        <time>2021-08-11T09:23:35Z</time>
      </trkpt>
      <trkpt lat="47.65203" lon="3.71561">
        <ele>194.8</ele>
        <time>2021-08-11T09:23:43Z</time>
      </trkpt>
      <trkpt lat="47.65201" lon="3.71563">
        <ele>195.28</ele>
        <time>2021-08-11T09:23:45Z</time>
      </trkpt>
      <trkpt lat="47.652" lon="3.71563">
        <ele>195.28</ele>
        <time>2021-08-11T09:23:46Z</time>
      </trkpt>
      <trkpt lat="47.65199" lon="3.71564">
        <ele>195.28</ele>
        <time>2021-08-11T09:23:47Z</time>
      </trkpt>
      <trkpt lat="47.6519" lon="3.71568">
        <ele>196.25</ele>
        <time>2021-08-11T09:23:54Z</time>
      </trkpt>
      <trkpt lat="47.65187" lon="3.71569">
        <ele>196.73</ele>
        <time>2021-08-11T09:23:56Z</time>
      </trkpt>
      <trkpt lat="47.65186" lon="3.71569">
        <ele>196.73</ele>
        <time>2021-08-11T09:23:57Z</time>
      </trkpt>
      <trkpt lat="47.65184" lon="3.71569">
        <ele>196.73</ele>
        <time>2021-08-11T09:23:58Z</time>
      </trkpt>
      <trkpt lat="47.65183" lon="3.7157">
        <ele>197.21</ele>
        <time>2021-08-11T09:23:59Z</time>
      </trkpt>
      <trkpt lat="47.65182" lon="3.7157">
        <ele>197.21</ele>
        <time>2021-08-11T09:24:00Z</time>
      </trkpt>
      <trkpt lat="47.6518" lon="3.7157">
        <ele>197.21</ele>
        <time>2021-08-11T09:24:01Z</time>
      </trkpt>
      <trkpt lat="47.65179" lon="3.7157">
        <ele>197.21</ele>
        <time>2021-08-11T09:24:02Z</time>
      </trkpt>
      <trkpt lat="47.65177" lon="3.71571">
        <ele>197.69</ele>
        <time>2021-08-11T09:24:03Z</time>
      </trkpt>
      <trkpt lat="47.65176" lon="3.71571">
        <ele>198.17</ele>
        <time>2021-08-11T09:24:04Z</time>
      </trkpt>
      <trkpt lat="47.65175" lon="3.71571">
        <ele>198.17</ele>
        <time>2021-08-11T09:24:05Z</time>
      </trkpt>
      <trkpt lat="47.65173" lon="3.71571">
        <ele>198.17</ele>
        <time>2021-08-11T09:24:06Z</time>
      </trkpt>
      <trkpt lat="47.65172" lon="3.71571">
        <ele>198.17</ele>
        <time>2021-08-11T09:24:07Z</time>
      </trkpt>
      <trkpt lat="47.65171" lon="3.71572">
        <ele>198.65</ele>
        <time>2021-08-11T09:24:08Z</time>
      </trkpt>
      <trkpt lat="47.6517" lon="3.71572">
        <ele>198.65</ele>
        <time>2021-08-11T09:24:09Z</time>
      </trkpt>
      <trkpt lat="47.65169" lon="3.71573">
        <ele>198.65</ele>
        <time>2021-08-11T09:24:10Z</time>
      </trkpt>
      <trkpt lat="47.65167" lon="3.71573">
        <ele>198.65</ele>
        <time>2021-08-11T09:24:11Z</time>
      </trkpt>
      <trkpt lat="47.65161" lon="3.71577">
        <ele>199.13</ele>
        <time>2021-08-11T09:24:17Z</time>
      </trkpt>
      <trkpt lat="47.65159" lon="3.71578">
        <ele>199.61</ele>
        <time>2021-08-11T09:24:18Z</time>
      </trkpt>
      <trkpt lat="47.65157" lon="3.71579">
        <ele>199.61</ele>
        <time>2021-08-11T09:24:20Z</time>
      </trkpt>
      <trkpt lat="47.65156" lon="3.71579">
        <ele>199.61</ele>
        <time>2021-08-11T09:24:21Z</time>
      </trkpt>
      <trkpt lat="47.65155" lon="3.71579">
        <ele>200.09</ele>
        <time>2021-08-11T09:24:22Z</time>
      </trkpt>
      <trkpt lat="47.65153" lon="3.7158">
        <ele>200.09</ele>
        <time>2021-08-11T09:24:23Z</time>
      </trkpt>
      <trkpt lat="47.65152" lon="3.7158">
        <ele>200.09</ele>
        <time>2021-08-11T09:24:24Z</time>
      </trkpt>
      <trkpt lat="47.65143" lon="3.71583">
        <ele>200.57</ele>
        <time>2021-08-11T09:24:29Z</time>
      </trkpt>
      <trkpt lat="47.65141" lon="3.71585">
        <ele>201.53</ele>
        <time>2021-08-11T09:24:34Z</time>
      </trkpt>
      <trkpt lat="47.65139" lon="3.71587">
        <ele>201.53</ele>
        <time>2021-08-11T09:24:37Z</time>
      </trkpt>
      <trkpt lat="47.65138" lon="3.71588">
        <ele>201.53</ele>
        <time>2021-08-11T09:24:38Z</time>
      </trkpt>
      <trkpt lat="47.65137" lon="3.71588">
        <ele>202.01</ele>
        <time>2021-08-11T09:24:39Z</time>
      </trkpt>
      <trkpt lat="47.65135" lon="3.71589">
        <ele>202.01</ele>
        <time>2021-08-11T09:24:40Z</time>
      </trkpt>
      <trkpt lat="47.65134" lon="3.7159">
        <ele>202.01</ele>
        <time>2021-08-11T09:24:41Z</time>
      </trkpt>
      <trkpt lat="47.65133" lon="3.7159">
        <ele>202.01</ele>
        <time>2021-08-11T09:24:42Z</time>
      </trkpt>
      <trkpt lat="47.65131" lon="3.71591">
        <ele>202.01</ele>
        <time>2021-08-11T09:24:43Z</time>
      </trkpt>
      <trkpt lat="47.6513" lon="3.71592">
        <ele>202.49</ele>
        <time>2021-08-11T09:24:44Z</time>
      </trkpt>
      <trkpt lat="47.65128" lon="3.71593">
        <ele>202.49</ele>
        <time>2021-08-11T09:24:45Z</time>
      </trkpt>
      <trkpt lat="47.65127" lon="3.71594">
        <ele>202.49</ele>
        <time>2021-08-11T09:24:46Z</time>
      </trkpt>
      <trkpt lat="47.65125" lon="3.71595">
        <ele>203.46</ele>
        <time>2021-08-11T09:24:47Z</time>
      </trkpt>
      <trkpt lat="47.65124" lon="3.71596">
        <ele>203.46</ele>
        <time>2021-08-11T09:24:48Z</time>
      </trkpt>
      <trkpt lat="47.65117" lon="3.71601">
        <ele>203.94</ele>
        <time>2021-08-11T09:24:55Z</time>
      </trkpt>
      <trkpt lat="47.65105" lon="3.71608">
        <ele>204.42</ele>
        <time>2021-08-11T09:25:04Z</time>
      </trkpt>
      <trkpt lat="47.65102" lon="3.7161">
        <ele>205.38</ele>
        <time>2021-08-11T09:25:06Z</time>
      </trkpt>
      <trkpt lat="47.65101" lon="3.7161">
        <ele>205.38</ele>
        <time>2021-08-11T09:25:07Z</time>
      </trkpt>
      <trkpt lat="47.65099" lon="3.71611">
        <ele>205.38</ele>
        <time>2021-08-11T09:25:08Z</time>
      </trkpt>
      <trkpt lat="47.65098" lon="3.71612">
        <ele>205.38</ele>
        <time>2021-08-11T09:25:09Z</time>
      </trkpt>
      <trkpt lat="47.65096" lon="3.71613">
        <ele>205.38</ele>
        <time>2021-08-11T09:25:10Z</time>
      </trkpt>
      <trkpt lat="47.65095" lon="3.71613">
        <ele>205.86</ele>
        <time>2021-08-11T09:25:11Z</time>
      </trkpt>
      <trkpt lat="47.65093" lon="3.71614">
        <ele>205.86</ele>
        <time>2021-08-11T09:25:12Z</time>
      </trkpt>
      <trkpt lat="47.65092" lon="3.71614">
        <ele>205.86</ele>
        <time>2021-08-11T09:25:13Z</time>
      </trkpt>
      <trkpt lat="47.65091" lon="3.71615">
        <ele>205.86</ele>
        <time>2021-08-11T09:25:14Z</time>
      </trkpt>
      <trkpt lat="47.6509" lon="3.71616">
        <ele>206.34</ele>
        <time>2021-08-11T09:25:15Z</time>
      </trkpt>
      <trkpt lat="47.65088" lon="3.71618">
        <ele>206.34</ele>
        <time>2021-08-11T09:25:16Z</time>
      </trkpt>
      <trkpt lat="47.65087" lon="3.71619">
        <ele>206.34</ele>
        <time>2021-08-11T09:25:17Z</time>
      </trkpt>
      <trkpt lat="47.65085" lon="3.7162">
        <ele>207.3</ele>
        <time>2021-08-11T09:25:18Z</time>
      </trkpt>
      <trkpt lat="47.65073" lon="3.71628">
        <ele>207.78</ele>
        <time>2021-08-11T09:25:26Z</time>
      </trkpt>
      <trkpt lat="47.65061" lon="3.71635">
        <ele>209.22</ele>
        <time>2021-08-11T09:25:35Z</time>
      </trkpt>
      <trkpt lat="47.6506" lon="3.71636">
        <ele>209.22</ele>
        <time>2021-08-11T09:25:36Z</time>
      </trkpt>
      <trkpt lat="47.65058" lon="3.71637">
        <ele>209.22</ele>
        <time>2021-08-11T09:25:37Z</time>
      </trkpt>
      <trkpt lat="47.65046" lon="3.71646">
        <ele>210.19</ele>
        <time>2021-08-11T09:25:45Z</time>
      </trkpt>
      <trkpt lat="47.65035" lon="3.71652">
        <ele>210.67</ele>
        <time>2021-08-11T09:25:52Z</time>
      </trkpt>
      <trkpt lat="47.65019" lon="3.71663">
        <ele>212.11</ele>
        <time>2021-08-11T09:26:02Z</time>
      </trkpt>
      <trkpt lat="47.65007" lon="3.71671">
        <ele>213.07</ele>
        <time>2021-08-11T09:26:10Z</time>
      </trkpt>
      <trkpt lat="47.64994" lon="3.71681">
        <ele>214.51</ele>
        <time>2021-08-11T09:26:19Z</time>
      </trkpt>
      <trkpt lat="47.64981" lon="3.71689">
        <ele>215.47</ele>
        <time>2021-08-11T09:26:27Z</time>
      </trkpt>
      <trkpt lat="47.64968" lon="3.71698">
        <ele>216.43</ele>
        <time>2021-08-11T09:26:35Z</time>
      </trkpt>
      <trkpt lat="47.64957" lon="3.71705">
        <ele>217.4</ele>
        <time>2021-08-11T09:26:42Z</time>
      </trkpt>
      <trkpt lat="47.64942" lon="3.71715">
        <ele>217.88</ele>
        <time>2021-08-11T09:26:50Z</time>
      </trkpt>
      <trkpt lat="47.64932" lon="3.71721">
        <ele>218.84</ele>
        <time>2021-08-11T09:26:56Z</time>
      </trkpt>
      <trkpt lat="47.6492" lon="3.71714">
        <ele>220.28</ele>
        <time>2021-08-11T09:27:02Z</time>
      </trkpt>
      <trkpt lat="47.64905" lon="3.71704">
        <ele>220.76</ele>
        <time>2021-08-11T09:27:09Z</time>
      </trkpt>
      <trkpt lat="47.6489" lon="3.71692">
        <ele>221.72</ele>
        <time>2021-08-11T09:27:16Z</time>
      </trkpt>
      <trkpt lat="47.64876" lon="3.7168">
        <ele>221.72</ele>
        <time>2021-08-11T09:27:23Z</time>
      </trkpt>
      <trkpt lat="47.64867" lon="3.7167">
        <ele>222.2</ele>
        <time>2021-08-11T09:27:29Z</time>
      </trkpt>
      <trkpt lat="47.64855" lon="3.71656">
        <ele>223.16</ele>
        <time>2021-08-11T09:27:36Z</time>
      </trkpt>
      <trkpt lat="47.64844" lon="3.71642">
        <ele>223.16</ele>
        <time>2021-08-11T09:27:44Z</time>
      </trkpt>
      <trkpt lat="47.64839" lon="3.71635">
        <ele>223.64</ele>
        <time>2021-08-11T09:27:48Z</time>
      </trkpt>
      <trkpt lat="47.64829" lon="3.71621">
        <ele>223.64</ele>
        <time>2021-08-11T09:27:56Z</time>
      </trkpt>
      <trkpt lat="47.64821" lon="3.71609">
        <ele>223.64</ele>
        <time>2021-08-11T09:28:03Z</time>
      </trkpt>
      <trkpt lat="47.64814" lon="3.71596">
        <ele>223.64</ele>
        <time>2021-08-11T09:28:10Z</time>
      </trkpt>
      <trkpt lat="47.64799" lon="3.7158">
        <ele>223.64</ele>
        <time>2021-08-11T09:28:15Z</time>
      </trkpt>
      <trkpt lat="47.64772" lon="3.71552">
        <ele>223.64</ele>
        <time>2021-08-11T09:28:24Z</time>
      </trkpt>
      <trkpt lat="47.64766" lon="3.71545">
        <ele>224.61</ele>
        <time>2021-08-11T09:28:27Z</time>
      </trkpt>
      <trkpt lat="47.64763" lon="3.71542">
        <ele>224.61</ele>
        <time>2021-08-11T09:28:28Z</time>
      </trkpt>
      <trkpt lat="47.64761" lon="3.71539">
        <ele>224.61</ele>
        <time>2021-08-11T09:28:29Z</time>
      </trkpt>
      <trkpt lat="47.64759" lon="3.71535">
        <ele>224.61</ele>
        <time>2021-08-11T09:28:30Z</time>
      </trkpt>
      <trkpt lat="47.64757" lon="3.71532">
        <ele>224.61</ele>
        <time>2021-08-11T09:28:31Z</time>
      </trkpt>
      <trkpt lat="47.64755" lon="3.71528">
        <ele>224.61</ele>
        <time>2021-08-11T09:28:32Z</time>
      </trkpt>
      <trkpt lat="47.64752" lon="3.71524">
        <ele>224.61</ele>
        <time>2021-08-11T09:28:33Z</time>
      </trkpt>
      <trkpt lat="47.6475" lon="3.71521">
        <ele>224.61</ele>
        <time>2021-08-11T09:28:34Z</time>
      </trkpt>
      <trkpt lat="47.64734" lon="3.71495">
        <ele>224.61</ele>
        <time>2021-08-11T09:28:42Z</time>
      </trkpt>
      <trkpt lat="47.64717" lon="3.71468">
        <ele>224.61</ele>
        <time>2021-08-11T09:28:50Z</time>
      </trkpt>
      <trkpt lat="47.64703" lon="3.71444">
        <ele>224.61</ele>
        <time>2021-08-11T09:28:57Z</time>
      </trkpt>
      <trkpt lat="47.64693" lon="3.71421">
        <ele>224.61</ele>
        <time>2021-08-11T09:29:04Z</time>
      </trkpt>
      <trkpt lat="47.64663" lon="3.71381">
        <ele>225.09</ele>
        <time>2021-08-11T09:29:12Z</time>
      </trkpt>
      <trkpt lat="47.64634" lon="3.71349">
        <ele>225.09</ele>
        <time>2021-08-11T09:29:18Z</time>
      </trkpt>
      <trkpt lat="47.64617" lon="3.71329">
        <ele>225.09</ele>
        <time>2021-08-11T09:29:23Z</time>
      </trkpt>
      <trkpt lat="47.64595" lon="3.71296">
        <ele>225.09</ele>
        <time>2021-08-11T09:29:31Z</time>
      </trkpt>
      <trkpt lat="47.64572" lon="3.71268">
        <ele>225.09</ele>
        <time>2021-08-11T09:29:38Z</time>
      </trkpt>
      <trkpt lat="47.64554" lon="3.71246">
        <ele>223.64</ele>
        <time>2021-08-11T09:29:43Z</time>
      </trkpt>
      <trkpt lat="47.64535" lon="3.71224">
        <ele>223.64</ele>
        <time>2021-08-11T09:29:49Z</time>
      </trkpt>
      <trkpt lat="47.64521" lon="3.71209">
        <ele>223.16</ele>
        <time>2021-08-11T09:29:53Z</time>
      </trkpt>
      <trkpt lat="47.6449" lon="3.71178">
        <ele>223.16</ele>
        <time>2021-08-11T09:30:01Z</time>
      </trkpt>
      <trkpt lat="47.64459" lon="3.7115">
        <ele>222.68</ele>
        <time>2021-08-11T09:30:09Z</time>
      </trkpt>
      <trkpt lat="47.64442" lon="3.71136">
        <ele>222.68</ele>
        <time>2021-08-11T09:30:13Z</time>
      </trkpt>
      <trkpt lat="47.64405" lon="3.7111">
        <ele>221.24</ele>
        <time>2021-08-11T09:30:21Z</time>
      </trkpt>
      <trkpt lat="47.6437" lon="3.71086">
        <ele>220.28</ele>
        <time>2021-08-11T09:30:28Z</time>
      </trkpt>
      <trkpt lat="47.64337" lon="3.71062">
        <ele>219.32</ele>
        <time>2021-08-11T09:30:34Z</time>
      </trkpt>
      <trkpt lat="47.64331" lon="3.71059">
        <ele>219.32</ele>
        <time>2021-08-11T09:30:35Z</time>
      </trkpt>
      <trkpt lat="47.64321" lon="3.71055">
        <ele>219.32</ele>
        <time>2021-08-11T09:30:37Z</time>
      </trkpt>
      <trkpt lat="47.64316" lon="3.71051">
        <ele>219.32</ele>
        <time>2021-08-11T09:30:38Z</time>
      </trkpt>
      <trkpt lat="47.64295" lon="3.71034">
        <ele>218.84</ele>
        <time>2021-08-11T09:30:44Z</time>
      </trkpt>
      <trkpt lat="47.64288" lon="3.71029">
        <ele>218.36</ele>
        <time>2021-08-11T09:30:51Z</time>
      </trkpt>
      <trkpt lat="47.64268" lon="3.71013">
        <ele>218.36</ele>
        <time>2021-08-11T09:30:58Z</time>
      </trkpt>
      <trkpt lat="47.64245" lon="3.70995">
        <ele>217.4</ele>
        <time>2021-08-11T09:31:04Z</time>
      </trkpt>
      <trkpt lat="47.64205" lon="3.70962">
        <ele>214.99</ele>
        <time>2021-08-11T09:31:12Z</time>
      </trkpt>
      <trkpt lat="47.6415" lon="3.70932">
        <ele>213.55</ele>
        <time>2021-08-11T09:31:21Z</time>
      </trkpt>
      <trkpt lat="47.64144" lon="3.70932">
        <ele>213.55</ele>
        <time>2021-08-11T09:31:22Z</time>
      </trkpt>
      <trkpt lat="47.64138" lon="3.70932">
        <ele>213.07</ele>
        <time>2021-08-11T09:31:23Z</time>
      </trkpt>
      <trkpt lat="47.64132" lon="3.70932">
        <ele>213.07</ele>
        <time>2021-08-11T09:31:24Z</time>
      </trkpt>
      <trkpt lat="47.64127" lon="3.70931">
        <ele>213.07</ele>
        <time>2021-08-11T09:31:25Z</time>
      </trkpt>
      <trkpt lat="47.64123" lon="3.70928">
        <ele>212.59</ele>
        <time>2021-08-11T09:31:26Z</time>
      </trkpt>
      <trkpt lat="47.64117" lon="3.70925">
        <ele>212.59</ele>
        <time>2021-08-11T09:31:27Z</time>
      </trkpt>
      <trkpt lat="47.64111" lon="3.70922">
        <ele>211.15</ele>
        <time>2021-08-11T09:31:28Z</time>
      </trkpt>
      <trkpt lat="47.64105" lon="3.70919">
        <ele>210.67</ele>
        <time>2021-08-11T09:31:29Z</time>
      </trkpt>
      <trkpt lat="47.64058" lon="3.70894">
        <ele>208.26</ele>
        <time>2021-08-11T09:31:36Z</time>
      </trkpt>
      <trkpt lat="47.6403" lon="3.70877">
        <ele>206.82</ele>
        <time>2021-08-11T09:31:40Z</time>
      </trkpt>
      <trkpt lat="47.64007" lon="3.70868">
        <ele>205.38</ele>
        <time>2021-08-11T09:31:43Z</time>
      </trkpt>
      <trkpt lat="47.64" lon="3.70864">
        <ele>205.38</ele>
        <time>2021-08-11T09:31:44Z</time>
      </trkpt>
      <trkpt lat="47.63993" lon="3.70859">
        <ele>205.38</ele>
        <time>2021-08-11T09:31:45Z</time>
      </trkpt>
      <trkpt lat="47.63988" lon="3.70854">
        <ele>205.38</ele>
        <time>2021-08-11T09:31:46Z</time>
      </trkpt>
      <trkpt lat="47.63984" lon="3.70848">
        <ele>205.38</ele>
        <time>2021-08-11T09:31:47Z</time>
      </trkpt>
      <trkpt lat="47.6398" lon="3.70843">
        <ele>205.38</ele>
        <time>2021-08-11T09:31:48Z</time>
      </trkpt>
      <trkpt lat="47.63972" lon="3.70831">
        <ele>205.38</ele>
        <time>2021-08-11T09:31:50Z</time>
      </trkpt>
      <trkpt lat="47.63957" lon="3.70815">
        <ele>206.82</ele>
        <time>2021-08-11T09:31:54Z</time>
      </trkpt>
      <trkpt lat="47.63934" lon="3.70801">
        <ele>208.26</ele>
        <time>2021-08-11T09:32:01Z</time>
      </trkpt>
      <trkpt lat="47.63921" lon="3.70794">
        <ele>208.26</ele>
        <time>2021-08-11T09:32:06Z</time>
      </trkpt>
      <trkpt lat="47.63903" lon="3.70786">
        <ele>209.22</ele>
        <time>2021-08-11T09:32:13Z</time>
      </trkpt>
      <trkpt lat="47.63886" lon="3.70776">
        <ele>209.7</ele>
        <time>2021-08-11T09:32:20Z</time>
      </trkpt>
      <trkpt lat="47.63871" lon="3.70768">
        <ele>210.19</ele>
        <time>2021-08-11T09:32:27Z</time>
      </trkpt>
      <trkpt lat="47.63859" lon="3.70761">
        <ele>210.67</ele>
        <time>2021-08-11T09:32:33Z</time>
      </trkpt>
      <trkpt lat="47.63843" lon="3.70749">
        <ele>210.67</ele>
        <time>2021-08-11T09:32:41Z</time>
      </trkpt>
      <trkpt lat="47.63835" lon="3.70736">
        <ele>211.15</ele>
        <time>2021-08-11T09:32:48Z</time>
      </trkpt>
      <trkpt lat="47.63826" lon="3.7072">
        <ele>212.11</ele>
        <time>2021-08-11T09:32:55Z</time>
      </trkpt>
      <trkpt lat="47.63816" lon="3.70706">
        <ele>212.11</ele>
        <time>2021-08-11T09:33:01Z</time>
      </trkpt>
      <trkpt lat="47.63808" lon="3.70694">
        <ele>212.59</ele>
        <time>2021-08-11T09:33:07Z</time>
      </trkpt>
      <trkpt lat="47.63797" lon="3.70681">
        <ele>213.07</ele>
        <time>2021-08-11T09:33:14Z</time>
      </trkpt>
      <trkpt lat="47.63792" lon="3.70676">
        <ele>213.55</ele>
        <time>2021-08-11T09:33:17Z</time>
      </trkpt>
      <trkpt lat="47.63791" lon="3.70674">
        <ele>213.55</ele>
        <time>2021-08-11T09:33:18Z</time>
      </trkpt>
      <trkpt lat="47.6379" lon="3.70673">
        <ele>213.55</ele>
        <time>2021-08-11T09:33:19Z</time>
      </trkpt>
      <trkpt lat="47.63788" lon="3.70671">
        <ele>213.55</ele>
        <time>2021-08-11T09:33:20Z</time>
      </trkpt>
      <trkpt lat="47.63787" lon="3.70669">
        <ele>214.03</ele>
        <time>2021-08-11T09:33:21Z</time>
      </trkpt>
      <trkpt lat="47.63776" lon="3.70655">
        <ele>214.03</ele>
        <time>2021-08-11T09:33:28Z</time>
      </trkpt>
      <trkpt lat="47.63764" lon="3.70641">
        <ele>214.51</ele>
        <time>2021-08-11T09:33:35Z</time>
      </trkpt>
      <trkpt lat="47.6375" lon="3.70623">
        <ele>214.51</ele>
        <time>2021-08-11T09:33:42Z</time>
      </trkpt>
      <trkpt lat="47.63735" lon="3.70608">
        <ele>214.51</ele>
        <time>2021-08-11T09:33:48Z</time>
      </trkpt>
      <trkpt lat="47.6372" lon="3.70591">
        <ele>214.51</ele>
        <time>2021-08-11T09:33:55Z</time>
      </trkpt>
      <trkpt lat="47.63715" lon="3.70582">
        <ele>214.51</ele>
        <time>2021-08-11T09:33:59Z</time>
      </trkpt>
      <trkpt lat="47.63714" lon="3.7058">
        <ele>214.51</ele>
        <time>2021-08-11T09:34:00Z</time>
      </trkpt>
      <trkpt lat="47.63712" lon="3.70577">
        <ele>214.99</ele>
        <time>2021-08-11T09:34:01Z</time>
      </trkpt>
      <trkpt lat="47.63706" lon="3.70568">
        <ele>213.55</ele>
        <time>2021-08-11T09:34:05Z</time>
      </trkpt>
      <trkpt lat="47.63689" lon="3.70554">
        <ele>213.07</ele>
        <time>2021-08-11T09:34:11Z</time>
      </trkpt>
      <trkpt lat="47.63665" lon="3.70547">
        <ele>213.07</ele>
        <time>2021-08-11T09:34:17Z</time>
      </trkpt>
      <trkpt lat="47.6364" lon="3.70536">
        <ele>212.59</ele>
        <time>2021-08-11T09:34:23Z</time>
      </trkpt>
      <trkpt lat="47.63615" lon="3.70521">
        <ele>212.11</ele>
        <time>2021-08-11T09:34:28Z</time>
      </trkpt>
      <trkpt lat="47.6361" lon="3.70518">
        <ele>211.63</ele>
        <time>2021-08-11T09:34:29Z</time>
      </trkpt>
      <trkpt lat="47.63593" lon="3.70507">
        <ele>212.11</ele>
        <time>2021-08-11T09:34:33Z</time>
      </trkpt>
      <trkpt lat="47.63589" lon="3.70505">
        <ele>211.63</ele>
        <time>2021-08-11T09:34:34Z</time>
      </trkpt>
      <trkpt lat="47.63585" lon="3.70502">
        <ele>211.63</ele>
        <time>2021-08-11T09:34:35Z</time>
      </trkpt>
      <trkpt lat="47.63553" lon="3.70478">
        <ele>211.15</ele>
        <time>2021-08-11T09:34:44Z</time>
      </trkpt>
      <trkpt lat="47.6353" lon="3.70456">
        <ele>211.15</ele>
        <time>2021-08-11T09:34:52Z</time>
      </trkpt>
      <trkpt lat="47.63503" lon="3.70432">
        <ele>211.15</ele>
        <time>2021-08-11T09:35:01Z</time>
      </trkpt>
      <trkpt lat="47.63479" lon="3.7041">
        <ele>210.67</ele>
        <time>2021-08-11T09:35:09Z</time>
      </trkpt>
      <trkpt lat="47.63457" lon="3.7039">
        <ele>210.19</ele>
        <time>2021-08-11T09:35:16Z</time>
      </trkpt>
      <trkpt lat="47.63435" lon="3.70368">
        <ele>210.19</ele>
        <time>2021-08-11T09:35:23Z</time>
      </trkpt>
      <trkpt lat="47.63416" lon="3.70347">
        <ele>210.19</ele>
        <time>2021-08-11T09:35:30Z</time>
      </trkpt>
      <trkpt lat="47.63393" lon="3.70322">
        <ele>209.7</ele>
        <time>2021-08-11T09:35:38Z</time>
      </trkpt>
      <trkpt lat="47.63367" lon="3.7029">
        <ele>208.26</ele>
        <time>2021-08-11T09:35:47Z</time>
      </trkpt>
      <trkpt lat="47.6334" lon="3.70252">
        <ele>207.3</ele>
        <time>2021-08-11T09:35:56Z</time>
      </trkpt>
      <trkpt lat="47.63307" lon="3.70207">
        <ele>206.82</ele>
        <time>2021-08-11T09:36:06Z</time>
      </trkpt>
      <trkpt lat="47.63279" lon="3.7017">
        <ele>205.38</ele>
        <time>2021-08-11T09:36:14Z</time>
      </trkpt>
      <trkpt lat="47.63252" lon="3.70124">
        <ele>203.46</ele>
        <time>2021-08-11T09:36:22Z</time>
      </trkpt>
      <trkpt lat="47.63249" lon="3.70117">
        <ele>203.46</ele>
        <time>2021-08-11T09:36:23Z</time>
      </trkpt>
      <trkpt lat="47.63245" lon="3.70111">
        <ele>203.46</ele>
        <time>2021-08-11T09:36:24Z</time>
      </trkpt>
      <trkpt lat="47.63241" lon="3.70107">
        <ele>203.46</ele>
        <time>2021-08-11T09:36:25Z</time>
      </trkpt>
      <trkpt lat="47.6321" lon="3.70072">
        <ele>203.46</ele>
        <time>2021-08-11T09:36:32Z</time>
      </trkpt>
      <trkpt lat="47.63172" lon="3.70032">
        <ele>203.46</ele>
        <time>2021-08-11T09:36:40Z</time>
      </trkpt>
      <trkpt lat="47.63137" lon="3.69997">
        <ele>204.9</ele>
        <time>2021-08-11T09:36:48Z</time>
      </trkpt>
      <trkpt lat="47.63132" lon="3.69993">
        <ele>204.9</ele>
        <time>2021-08-11T09:36:49Z</time>
      </trkpt>
      <trkpt lat="47.63092" lon="3.69954">
        <ele>205.86</ele>
        <time>2021-08-11T09:36:59Z</time>
      </trkpt>
      <trkpt lat="47.63056" lon="3.69919">
        <ele>207.3</ele>
        <time>2021-08-11T09:37:09Z</time>
      </trkpt>
      <trkpt lat="47.63026" lon="3.69891">
        <ele>208.74</ele>
        <time>2021-08-11T09:37:18Z</time>
      </trkpt>
      <trkpt lat="47.62993" lon="3.6986">
        <ele>209.22</ele>
        <time>2021-08-11T09:37:28Z</time>
      </trkpt>
      <trkpt lat="47.62959" lon="3.69826">
        <ele>210.19</ele>
        <time>2021-08-11T09:37:39Z</time>
      </trkpt>
      <trkpt lat="47.62948" lon="3.69809">
        <ele>210.19</ele>
        <time>2021-08-11T09:37:43Z</time>
      </trkpt>
      <trkpt lat="47.62926" lon="3.69762">
        <ele>210.19</ele>
        <time>2021-08-11T09:37:52Z</time>
      </trkpt>
      <trkpt lat="47.62913" lon="3.69735">
        <ele>210.19</ele>
        <time>2021-08-11T09:37:57Z</time>
      </trkpt>
      <trkpt lat="47.6291" lon="3.6973">
        <ele>210.19</ele>
        <time>2021-08-11T09:37:58Z</time>
      </trkpt>
      <trkpt lat="47.62908" lon="3.69725">
        <ele>210.19</ele>
        <time>2021-08-11T09:37:59Z</time>
      </trkpt>
      <trkpt lat="47.62895" lon="3.69698">
        <ele>209.22</ele>
        <time>2021-08-11T09:38:04Z</time>
      </trkpt>
      <trkpt lat="47.62881" lon="3.69666">
        <ele>209.22</ele>
        <time>2021-08-11T09:38:10Z</time>
      </trkpt>
      <trkpt lat="47.62867" lon="3.69627">
        <ele>209.22</ele>
        <time>2021-08-11T09:38:17Z</time>
      </trkpt>
      <trkpt lat="47.62847" lon="3.69577">
        <ele>209.22</ele>
        <time>2021-08-11T09:38:26Z</time>
      </trkpt>
      <trkpt lat="47.62844" lon="3.69572">
        <ele>209.22</ele>
        <time>2021-08-11T09:38:27Z</time>
      </trkpt>
      <trkpt lat="47.62841" lon="3.69565">
        <ele>208.26</ele>
        <time>2021-08-11T09:38:28Z</time>
      </trkpt>
      <trkpt lat="47.62839" lon="3.69559">
        <ele>208.26</ele>
        <time>2021-08-11T09:38:29Z</time>
      </trkpt>
      <trkpt lat="47.62836" lon="3.69554">
        <ele>208.26</ele>
        <time>2021-08-11T09:38:30Z</time>
      </trkpt>
      <trkpt lat="47.62834" lon="3.69549">
        <ele>208.26</ele>
        <time>2021-08-11T09:38:31Z</time>
      </trkpt>
      <trkpt lat="47.62806" lon="3.69501">
        <ele>207.3</ele>
        <time>2021-08-11T09:38:40Z</time>
      </trkpt>
      <trkpt lat="47.62799" lon="3.69491">
        <ele>207.3</ele>
        <time>2021-08-11T09:38:42Z</time>
      </trkpt>
      <trkpt lat="47.62796" lon="3.69485">
        <ele>207.3</ele>
        <time>2021-08-11T09:38:43Z</time>
      </trkpt>
      <trkpt lat="47.62771" lon="3.69439">
        <ele>206.82</ele>
        <time>2021-08-11T09:38:51Z</time>
      </trkpt>
      <trkpt lat="47.62743" lon="3.69378">
        <ele>205.38</ele>
        <time>2021-08-11T09:39:01Z</time>
      </trkpt>
      <trkpt lat="47.62738" lon="3.69366">
        <ele>205.38</ele>
        <time>2021-08-11T09:39:03Z</time>
      </trkpt>
      <trkpt lat="47.62715" lon="3.69314">
        <ele>204.42</ele>
        <time>2021-08-11T09:39:12Z</time>
      </trkpt>
      <trkpt lat="47.62709" lon="3.69294">
        <ele>203.46</ele>
        <time>2021-08-11T09:39:15Z</time>
      </trkpt>
      <trkpt lat="47.62695" lon="3.69231">
        <ele>202.49</ele>
        <time>2021-08-11T09:39:24Z</time>
      </trkpt>
      <trkpt lat="47.62691" lon="3.69209">
        <ele>202.01</ele>
        <time>2021-08-11T09:39:27Z</time>
      </trkpt>
      <trkpt lat="47.6269" lon="3.69202">
        <ele>202.01</ele>
        <time>2021-08-11T09:39:28Z</time>
      </trkpt>
      <trkpt lat="47.62688" lon="3.69194">
        <ele>201.53</ele>
        <time>2021-08-11T09:39:29Z</time>
      </trkpt>
      <trkpt lat="47.62685" lon="3.69178">
        <ele>201.05</ele>
        <time>2021-08-11T09:39:31Z</time>
      </trkpt>
      <trkpt lat="47.62675" lon="3.69105">
        <ele>199.13</ele>
        <time>2021-08-11T09:39:40Z</time>
      </trkpt>
      <trkpt lat="47.62656" lon="3.69037">
        <ele>197.21</ele>
        <time>2021-08-11T09:39:48Z</time>
      </trkpt>
      <trkpt lat="47.62638" lon="3.68968">
        <ele>195.77</ele>
        <time>2021-08-11T09:39:56Z</time>
      </trkpt>
      <trkpt lat="47.62622" lon="3.68909">
        <ele>195.28</ele>
        <time>2021-08-11T09:40:04Z</time>
      </trkpt>
      <trkpt lat="47.62613" lon="3.68881">
        <ele>195.28</ele>
        <time>2021-08-11T09:40:08Z</time>
      </trkpt>
      <trkpt lat="47.626" lon="3.68835">
        <ele>195.28</ele>
        <time>2021-08-11T09:40:15Z</time>
      </trkpt>
      <trkpt lat="47.62598" lon="3.6883">
        <ele>195.28</ele>
        <time>2021-08-11T09:40:16Z</time>
      </trkpt>
      <trkpt lat="47.62582" lon="3.6879">
        <ele>195.28</ele>
        <time>2021-08-11T09:40:23Z</time>
      </trkpt>
      <trkpt lat="47.62562" lon="3.68755">
        <ele>195.28</ele>
        <time>2021-08-11T09:40:30Z</time>
      </trkpt>
      <trkpt lat="47.62544" lon="3.68725">
        <ele>195.28</ele>
        <time>2021-08-11T09:40:37Z</time>
      </trkpt>
      <trkpt lat="47.62524" lon="3.68691">
        <ele>195.28</ele>
        <time>2021-08-11T09:40:45Z</time>
      </trkpt>
      <trkpt lat="47.62518" lon="3.68682">
        <ele>196.25</ele>
        <time>2021-08-11T09:40:47Z</time>
      </trkpt>
      <trkpt lat="47.62515" lon="3.68678">
        <ele>196.25</ele>
        <time>2021-08-11T09:40:48Z</time>
      </trkpt>
      <trkpt lat="47.62512" lon="3.68673">
        <ele>196.25</ele>
        <time>2021-08-11T09:40:49Z</time>
      </trkpt>
      <trkpt lat="47.62498" lon="3.68649">
        <ele>196.25</ele>
        <time>2021-08-11T09:40:55Z</time>
      </trkpt>
      <trkpt lat="47.62479" lon="3.6862">
        <ele>196.25</ele>
        <time>2021-08-11T09:41:02Z</time>
      </trkpt>
      <trkpt lat="47.62477" lon="3.68615">
        <ele>196.25</ele>
        <time>2021-08-11T09:41:03Z</time>
      </trkpt>
      <trkpt lat="47.62459" lon="3.68587">
        <ele>196.25</ele>
        <time>2021-08-11T09:41:10Z</time>
      </trkpt>
      <trkpt lat="47.6244" lon="3.68557">
        <ele>194.8</ele>
        <time>2021-08-11T09:41:16Z</time>
      </trkpt>
      <trkpt lat="47.62417" lon="3.68524">
        <ele>193.36</ele>
        <time>2021-08-11T09:41:22Z</time>
      </trkpt>
      <trkpt lat="47.62413" lon="3.6852">
        <ele>192.88</ele>
        <time>2021-08-11T09:41:23Z</time>
      </trkpt>
      <trkpt lat="47.62407" lon="3.68517">
        <ele>192.4</ele>
        <time>2021-08-11T09:41:24Z</time>
      </trkpt>
      <trkpt lat="47.62401" lon="3.68514">
        <ele>192.4</ele>
        <time>2021-08-11T09:41:25Z</time>
      </trkpt>
      <trkpt lat="47.62395" lon="3.68512">
        <ele>191.44</ele>
        <time>2021-08-11T09:41:26Z</time>
      </trkpt>
      <trkpt lat="47.62366" lon="3.68504">
        <ele>189.52</ele>
        <time>2021-08-11T09:41:30Z</time>
      </trkpt>
      <trkpt lat="47.62336" lon="3.68503">
        <ele>187.11</ele>
        <time>2021-08-11T09:41:34Z</time>
      </trkpt>
      <trkpt lat="47.62303" lon="3.68496">
        <ele>183.75</ele>
        <time>2021-08-11T09:41:38Z</time>
      </trkpt>
      <trkpt lat="47.62294" lon="3.68492">
        <ele>183.75</ele>
        <time>2021-08-11T09:41:39Z</time>
      </trkpt>
      <trkpt lat="47.62266" lon="3.68476">
        <ele>180.38</ele>
        <time>2021-08-11T09:41:42Z</time>
      </trkpt>
      <trkpt lat="47.62257" lon="3.68469">
        <ele>179.42</ele>
        <time>2021-08-11T09:41:43Z</time>
      </trkpt>
      <trkpt lat="47.6223" lon="3.68444">
        <ele>176.06</ele>
        <time>2021-08-11T09:41:46Z</time>
      </trkpt>
      <trkpt lat="47.6222" lon="3.68438">
        <ele>175.1</ele>
        <time>2021-08-11T09:41:47Z</time>
      </trkpt>
      <trkpt lat="47.62177" lon="3.68419">
        <ele>170.77</ele>
        <time>2021-08-11T09:41:51Z</time>
      </trkpt>
      <trkpt lat="47.62142" lon="3.68407">
        <ele>167.89</ele>
        <time>2021-08-11T09:41:54Z</time>
      </trkpt>
      <trkpt lat="47.621" lon="3.68388">
        <ele>163.56</ele>
        <time>2021-08-11T09:41:58Z</time>
      </trkpt>
      <trkpt lat="47.6209" lon="3.68381">
        <ele>162.12</ele>
        <time>2021-08-11T09:41:59Z</time>
      </trkpt>
      <trkpt lat="47.62065" lon="3.68361">
        <ele>159.24</ele>
        <time>2021-08-11T09:42:02Z</time>
      </trkpt>
      <trkpt lat="47.62058" lon="3.68358">
        <ele>157.79</ele>
        <time>2021-08-11T09:42:03Z</time>
      </trkpt>
      <trkpt lat="47.62049" lon="3.68356">
        <ele>156.83</ele>
        <time>2021-08-11T09:42:04Z</time>
      </trkpt>
      <trkpt lat="47.62022" lon="3.68353">
        <ele>152.99</ele>
        <time>2021-08-11T09:42:07Z</time>
      </trkpt>
      <trkpt lat="47.6199" lon="3.68345">
        <ele>149.14</ele>
        <time>2021-08-11T09:42:10Z</time>
      </trkpt>
      <trkpt lat="47.61959" lon="3.68338">
        <ele>145.3</ele>
        <time>2021-08-11T09:42:13Z</time>
      </trkpt>
      <trkpt lat="47.61928" lon="3.68335">
        <ele>141.93</ele>
        <time>2021-08-11T09:42:16Z</time>
      </trkpt>
      <trkpt lat="47.61919" lon="3.68336">
        <ele>140.97</ele>
        <time>2021-08-11T09:42:17Z</time>
      </trkpt>
      <trkpt lat="47.61909" lon="3.68338">
        <ele>140.01</ele>
        <time>2021-08-11T09:42:18Z</time>
      </trkpt>
      <trkpt lat="47.61899" lon="3.68341">
        <ele>139.05</ele>
        <time>2021-08-11T09:42:19Z</time>
      </trkpt>
      <trkpt lat="47.6189" lon="3.68346">
        <ele>138.09</ele>
        <time>2021-08-11T09:42:20Z</time>
      </trkpt>
      <trkpt lat="47.61881" lon="3.68352">
        <ele>137.61</ele>
        <time>2021-08-11T09:42:21Z</time>
      </trkpt>
      <trkpt lat="47.61846" lon="3.68373">
        <ele>134.24</ele>
        <time>2021-08-11T09:42:25Z</time>
      </trkpt>
      <trkpt lat="47.6183" lon="3.68381">
        <ele>134.24</ele>
        <time>2021-08-11T09:42:27Z</time>
      </trkpt>
      <trkpt lat="47.61822" lon="3.68383">
        <ele>132.8</ele>
        <time>2021-08-11T09:42:28Z</time>
      </trkpt>
      <trkpt lat="47.61796" lon="3.68388">
        <ele>131.84</ele>
        <time>2021-08-11T09:42:32Z</time>
      </trkpt>
      <trkpt lat="47.61785" lon="3.68394">
        <ele>131.84</ele>
        <time>2021-08-11T09:42:34Z</time>
      </trkpt>
      <trkpt lat="47.61747" lon="3.68425">
        <ele>131.36</ele>
        <time>2021-08-11T09:42:42Z</time>
      </trkpt>
      <trkpt lat="47.61704" lon="3.68459">
        <ele>131.36</ele>
        <time>2021-08-11T09:42:51Z</time>
      </trkpt>
      <trkpt lat="47.61667" lon="3.68486">
        <ele>132.32</ele>
        <time>2021-08-11T09:43:00Z</time>
      </trkpt>
      <trkpt lat="47.61663" lon="3.68489">
        <ele>132.32</ele>
        <time>2021-08-11T09:43:01Z</time>
      </trkpt>
      <trkpt lat="47.6162" lon="3.68517">
        <ele>132.32</ele>
        <time>2021-08-11T09:43:11Z</time>
      </trkpt>
      <trkpt lat="47.61599" lon="3.68533">
        <ele>132.32</ele>
        <time>2021-08-11T09:43:16Z</time>
      </trkpt>
      <trkpt lat="47.61577" lon="3.68558">
        <ele>132.8</ele>
        <time>2021-08-11T09:43:23Z</time>
      </trkpt>
      <trkpt lat="47.61561" lon="3.6859">
        <ele>133.76</ele>
        <time>2021-08-11T09:43:31Z</time>
      </trkpt>
      <trkpt lat="47.61544" lon="3.68631">
        <ele>134.72</ele>
        <time>2021-08-11T09:43:40Z</time>
      </trkpt>
      <trkpt lat="47.61529" lon="3.6867">
        <ele>135.68</ele>
        <time>2021-08-11T09:43:49Z</time>
      </trkpt>
      <trkpt lat="47.61517" lon="3.68708">
        <ele>136.16</ele>
        <time>2021-08-11T09:43:58Z</time>
      </trkpt>
      <trkpt lat="47.61503" lon="3.68763">
        <ele>137.61</ele>
        <time>2021-08-11T09:44:10Z</time>
      </trkpt>
      <trkpt lat="47.61489" lon="3.68803">
        <ele>138.57</ele>
        <time>2021-08-11T09:44:20Z</time>
      </trkpt>
      <trkpt lat="47.61481" lon="3.68826">
        <ele>139.53</ele>
        <time>2021-08-11T09:44:27Z</time>
      </trkpt>
      <trkpt lat="47.61474" lon="3.68843">
        <ele>141.45</ele>
        <time>2021-08-11T09:44:35Z</time>
      </trkpt>
      <trkpt lat="47.61466" lon="3.68857">
        <ele>142.89</ele>
        <time>2021-08-11T09:44:42Z</time>
      </trkpt>
      <trkpt lat="47.61458" lon="3.68875">
        <ele>143.85</ele>
        <time>2021-08-11T09:44:51Z</time>
      </trkpt>
      <trkpt lat="47.61452" lon="3.68896">
        <ele>145.3</ele>
        <time>2021-08-11T09:45:01Z</time>
      </trkpt>
      <trkpt lat="47.61448" lon="3.68915">
        <ele>146.74</ele>
        <time>2021-08-11T09:45:10Z</time>
      </trkpt>
      <trkpt lat="47.61443" lon="3.68935">
        <ele>148.18</ele>
        <time>2021-08-11T09:45:20Z</time>
      </trkpt>
      <trkpt lat="47.61437" lon="3.68953">
        <ele>149.14</ele>
        <time>2021-08-11T09:45:29Z</time>
      </trkpt>
      <trkpt lat="47.61427" lon="3.68976">
        <ele>151.54</ele>
        <time>2021-08-11T09:45:41Z</time>
      </trkpt>
      <trkpt lat="47.61426" lon="3.68981">
        <ele>152.51</ele>
        <time>2021-08-11T09:45:44Z</time>
      </trkpt>
      <trkpt lat="47.61425" lon="3.68983">
        <ele>152.51</ele>
        <time>2021-08-11T09:45:45Z</time>
      </trkpt>
      <trkpt lat="47.61419" lon="3.69001">
        <ele>153.95</ele>
        <time>2021-08-11T09:45:54Z</time>
      </trkpt>
      <trkpt lat="47.61414" lon="3.69016">
        <ele>155.39</ele>
        <time>2021-08-11T09:46:02Z</time>
      </trkpt>
      <trkpt lat="47.61409" lon="3.6903">
        <ele>156.35</ele>
        <time>2021-08-11T09:46:09Z</time>
      </trkpt>
      <trkpt lat="47.61408" lon="3.69035">
        <ele>156.35</ele>
        <time>2021-08-11T09:46:11Z</time>
      </trkpt>
      <trkpt lat="47.61407" lon="3.69037">
        <ele>156.83</ele>
        <time>2021-08-11T09:46:12Z</time>
      </trkpt>
      <trkpt lat="47.61404" lon="3.69048">
        <ele>157.31</ele>
        <time>2021-08-11T09:46:17Z</time>
      </trkpt>
      <trkpt lat="47.61404" lon="3.6905">
        <ele>157.31</ele>
        <time>2021-08-11T09:46:18Z</time>
      </trkpt>
      <trkpt lat="47.61402" lon="3.69054">
        <ele>157.31</ele>
        <time>2021-08-11T09:46:20Z</time>
      </trkpt>
      <trkpt lat="47.61399" lon="3.69057">
        <ele>158.27</ele>
        <time>2021-08-11T09:46:22Z</time>
      </trkpt>
      <trkpt lat="47.61399" lon="3.69059">
        <ele>158.27</ele>
        <time>2021-08-11T09:46:23Z</time>
      </trkpt>
      <trkpt lat="47.61398" lon="3.69061">
        <ele>158.27</ele>
        <time>2021-08-11T09:46:24Z</time>
      </trkpt>
      <trkpt lat="47.61394" lon="3.69084">
        <ele>159.72</ele>
        <time>2021-08-11T09:46:34Z</time>
      </trkpt>
      <trkpt lat="47.61389" lon="3.69105">
        <ele>161.16</ele>
        <time>2021-08-11T09:46:43Z</time>
      </trkpt>
      <trkpt lat="47.61384" lon="3.69125">
        <ele>162.6</ele>
        <time>2021-08-11T09:46:53Z</time>
      </trkpt>
      <trkpt lat="47.61378" lon="3.69142">
        <ele>164.04</ele>
        <time>2021-08-11T09:47:01Z</time>
      </trkpt>
      <trkpt lat="47.61375" lon="3.69161">
        <ele>165</ele>
        <time>2021-08-11T09:47:10Z</time>
      </trkpt>
      <trkpt lat="47.61371" lon="3.69177">
        <ele>166.45</ele>
        <time>2021-08-11T09:47:17Z</time>
      </trkpt>
      <trkpt lat="47.61366" lon="3.69197">
        <ele>167.89</ele>
        <time>2021-08-11T09:47:26Z</time>
      </trkpt>
      <trkpt lat="47.61363" lon="3.69217">
        <ele>169.33</ele>
        <time>2021-08-11T09:47:34Z</time>
      </trkpt>
      <trkpt lat="47.61358" lon="3.69238">
        <ele>170.77</ele>
        <time>2021-08-11T09:47:43Z</time>
      </trkpt>
      <trkpt lat="47.61353" lon="3.6926">
        <ele>171.73</ele>
        <time>2021-08-11T09:47:52Z</time>
      </trkpt>
      <trkpt lat="47.61347" lon="3.69282">
        <ele>173.17</ele>
        <time>2021-08-11T09:48:01Z</time>
      </trkpt>
      <trkpt lat="47.61343" lon="3.69308">
        <ele>175.1</ele>
        <time>2021-08-11T09:48:11Z</time>
      </trkpt>
      <trkpt lat="47.61339" lon="3.6933">
        <ele>176.06</ele>
        <time>2021-08-11T09:48:19Z</time>
      </trkpt>
      <trkpt lat="47.61335" lon="3.69362">
        <ele>177.02</ele>
        <time>2021-08-11T09:48:30Z</time>
      </trkpt>
      <trkpt lat="47.6133" lon="3.69391">
        <ele>178.46</ele>
        <time>2021-08-11T09:48:39Z</time>
      </trkpt>
      <trkpt lat="47.61325" lon="3.69429">
        <ele>179.9</ele>
        <time>2021-08-11T09:48:51Z</time>
      </trkpt>
      <trkpt lat="47.61324" lon="3.69461">
        <ele>180.87</ele>
        <time>2021-08-11T09:49:01Z</time>
      </trkpt>
      <trkpt lat="47.61325" lon="3.695">
        <ele>181.83</ele>
        <time>2021-08-11T09:49:13Z</time>
      </trkpt>
      <trkpt lat="47.61326" lon="3.69533">
        <ele>183.27</ele>
        <time>2021-08-11T09:49:23Z</time>
      </trkpt>
      <trkpt lat="47.61325" lon="3.69556">
        <ele>183.75</ele>
        <time>2021-08-11T09:49:30Z</time>
      </trkpt>
      <trkpt lat="47.61324" lon="3.69559">
        <ele>183.75</ele>
        <time>2021-08-11T09:49:31Z</time>
      </trkpt>
      <trkpt lat="47.61324" lon="3.69562">
        <ele>183.75</ele>
        <time>2021-08-11T09:49:32Z</time>
      </trkpt>
      <trkpt lat="47.61324" lon="3.69566">
        <ele>183.75</ele>
        <time>2021-08-11T09:49:33Z</time>
      </trkpt>
      <trkpt lat="47.61324" lon="3.69569">
        <ele>184.23</ele>
        <time>2021-08-11T09:49:34Z</time>
      </trkpt>
      <trkpt lat="47.61324" lon="3.69573">
        <ele>184.23</ele>
        <time>2021-08-11T09:49:35Z</time>
      </trkpt>
      <trkpt lat="47.61324" lon="3.69576">
        <ele>184.23</ele>
        <time>2021-08-11T09:49:36Z</time>
      </trkpt>
      <trkpt lat="47.61324" lon="3.6958">
        <ele>184.23</ele>
        <time>2021-08-11T09:49:37Z</time>
      </trkpt>
      <trkpt lat="47.61325" lon="3.69611">
        <ele>185.19</ele>
        <time>2021-08-11T09:49:46Z</time>
      </trkpt>
      <trkpt lat="47.61326" lon="3.69643">
        <ele>186.15</ele>
        <time>2021-08-11T09:49:55Z</time>
      </trkpt>
      <trkpt lat="47.61326" lon="3.69663">
        <ele>187.11</ele>
        <time>2021-08-11T09:50:01Z</time>
      </trkpt>
      <trkpt lat="47.61322" lon="3.69691">
        <ele>188.56</ele>
        <time>2021-08-11T09:50:10Z</time>
      </trkpt>
      <trkpt lat="47.61319" lon="3.69714">
        <ele>188.56</ele>
        <time>2021-08-11T09:50:17Z</time>
      </trkpt>
      <trkpt lat="47.61316" lon="3.69744">
        <ele>190</ele>
        <time>2021-08-11T09:50:26Z</time>
      </trkpt>
      <trkpt lat="47.61309" lon="3.69784">
        <ele>190.96</ele>
        <time>2021-08-11T09:50:37Z</time>
      </trkpt>
      <trkpt lat="47.61301" lon="3.69814">
        <ele>192.4</ele>
        <time>2021-08-11T09:50:46Z</time>
      </trkpt>
      <trkpt lat="47.61292" lon="3.69838">
        <ele>192.88</ele>
        <time>2021-08-11T09:50:54Z</time>
      </trkpt>
      <trkpt lat="47.61282" lon="3.69859">
        <ele>193.36</ele>
        <time>2021-08-11T09:51:02Z</time>
      </trkpt>
      <trkpt lat="47.61272" lon="3.69886">
        <ele>194.8</ele>
        <time>2021-08-11T09:51:11Z</time>
      </trkpt>
      <trkpt lat="47.61259" lon="3.69917">
        <ele>196.25</ele>
        <time>2021-08-11T09:51:22Z</time>
      </trkpt>
      <trkpt lat="47.61249" lon="3.69942">
        <ele>197.21</ele>
        <time>2021-08-11T09:51:30Z</time>
      </trkpt>
      <trkpt lat="47.61238" lon="3.69968">
        <ele>198.17</ele>
        <time>2021-08-11T09:51:39Z</time>
      </trkpt>
      <trkpt lat="47.61227" lon="3.69995">
        <ele>199.13</ele>
        <time>2021-08-11T09:51:48Z</time>
      </trkpt>
      <trkpt lat="47.61216" lon="3.70023">
        <ele>200.09</ele>
        <time>2021-08-11T09:51:58Z</time>
      </trkpt>
      <trkpt lat="47.61208" lon="3.70045">
        <ele>202.01</ele>
        <time>2021-08-11T09:52:06Z</time>
      </trkpt>
      <trkpt lat="47.61199" lon="3.70067">
        <ele>202.49</ele>
        <time>2021-08-11T09:52:14Z</time>
      </trkpt>
      <trkpt lat="47.61189" lon="3.70087">
        <ele>203.94</ele>
        <time>2021-08-11T09:52:22Z</time>
      </trkpt>
      <trkpt lat="47.61177" lon="3.70111">
        <ele>204.42</ele>
        <time>2021-08-11T09:52:31Z</time>
      </trkpt>
      <trkpt lat="47.61163" lon="3.70136">
        <ele>205.38</ele>
        <time>2021-08-11T09:52:40Z</time>
      </trkpt>
      <trkpt lat="47.6116" lon="3.70142">
        <ele>205.38</ele>
        <time>2021-08-11T09:52:42Z</time>
      </trkpt>
      <trkpt lat="47.61159" lon="3.70145">
        <ele>205.38</ele>
        <time>2021-08-11T09:52:43Z</time>
      </trkpt>
      <trkpt lat="47.61157" lon="3.70148">
        <ele>205.86</ele>
        <time>2021-08-11T09:52:44Z</time>
      </trkpt>
      <trkpt lat="47.61141" lon="3.70174">
        <ele>206.82</ele>
        <time>2021-08-11T09:52:54Z</time>
      </trkpt>
      <trkpt lat="47.61124" lon="3.70201">
        <ele>207.78</ele>
        <time>2021-08-11T09:53:04Z</time>
      </trkpt>
      <trkpt lat="47.6111" lon="3.70226">
        <ele>209.22</ele>
        <time>2021-08-11T09:53:13Z</time>
      </trkpt>
      <trkpt lat="47.61096" lon="3.70251">
        <ele>209.7</ele>
        <time>2021-08-11T09:53:22Z</time>
      </trkpt>
      <trkpt lat="47.61083" lon="3.70275">
        <ele>210.19</ele>
        <time>2021-08-11T09:53:30Z</time>
      </trkpt>
      <trkpt lat="47.61069" lon="3.70299">
        <ele>211.15</ele>
        <time>2021-08-11T09:53:38Z</time>
      </trkpt>
      <trkpt lat="47.61056" lon="3.70324">
        <ele>212.11</ele>
        <time>2021-08-11T09:53:46Z</time>
      </trkpt>
      <trkpt lat="47.61038" lon="3.70355">
        <ele>213.07</ele>
        <time>2021-08-11T09:53:56Z</time>
      </trkpt>
      <trkpt lat="47.61025" lon="3.7038">
        <ele>214.03</ele>
        <time>2021-08-11T09:54:04Z</time>
      </trkpt>
      <trkpt lat="47.61003" lon="3.7042">
        <ele>214.99</ele>
        <time>2021-08-11T09:54:17Z</time>
      </trkpt>
      <trkpt lat="47.60987" lon="3.70447">
        <ele>215.47</ele>
        <time>2021-08-11T09:54:26Z</time>
      </trkpt>
      <trkpt lat="47.60972" lon="3.70473">
        <ele>216.43</ele>
        <time>2021-08-11T09:54:35Z</time>
      </trkpt>
      <trkpt lat="47.60958" lon="3.705">
        <ele>217.4</ele>
        <time>2021-08-11T09:54:44Z</time>
      </trkpt>
      <trkpt lat="47.60941" lon="3.7053">
        <ele>217.88</ele>
        <time>2021-08-11T09:54:54Z</time>
      </trkpt>
      <trkpt lat="47.60925" lon="3.70557">
        <ele>218.36</ele>
        <time>2021-08-11T09:55:03Z</time>
      </trkpt>
      <trkpt lat="47.60908" lon="3.70588">
        <ele>218.84</ele>
        <time>2021-08-11T09:55:13Z</time>
      </trkpt>
      <trkpt lat="47.60892" lon="3.70618">
        <ele>219.8</ele>
        <time>2021-08-11T09:55:23Z</time>
      </trkpt>
      <trkpt lat="47.60877" lon="3.70648">
        <ele>220.76</ele>
        <time>2021-08-11T09:55:33Z</time>
      </trkpt>
      <trkpt lat="47.6086" lon="3.70677">
        <ele>221.72</ele>
        <time>2021-08-11T09:55:43Z</time>
      </trkpt>
      <trkpt lat="47.60846" lon="3.70705">
        <ele>222.2</ele>
        <time>2021-08-11T09:55:52Z</time>
      </trkpt>
      <trkpt lat="47.60832" lon="3.7073">
        <ele>223.16</ele>
        <time>2021-08-11T09:56:01Z</time>
      </trkpt>
      <trkpt lat="47.60822" lon="3.70748">
        <ele>224.12</ele>
        <time>2021-08-11T09:56:07Z</time>
      </trkpt>
      <trkpt lat="47.60809" lon="3.70771">
        <ele>224.12</ele>
        <time>2021-08-11T09:56:14Z</time>
      </trkpt>
      <trkpt lat="47.60792" lon="3.70802">
        <ele>223.64</ele>
        <time>2021-08-11T09:56:23Z</time>
      </trkpt>
      <trkpt lat="47.60785" lon="3.70814">
        <ele>222.68</ele>
        <time>2021-08-11T09:56:26Z</time>
      </trkpt>
      <trkpt lat="47.60768" lon="3.70846">
        <ele>220.76</ele>
        <time>2021-08-11T09:56:33Z</time>
      </trkpt>
      <trkpt lat="47.60759" lon="3.70862">
        <ele>220.28</ele>
        <time>2021-08-11T09:56:36Z</time>
      </trkpt>
      <trkpt lat="47.60742" lon="3.70889">
        <ele>218.84</ele>
        <time>2021-08-11T09:56:41Z</time>
      </trkpt>
      <trkpt lat="47.60738" lon="3.70897">
        <ele>217.4</ele>
        <time>2021-08-11T09:56:42Z</time>
      </trkpt>
      <trkpt lat="47.60734" lon="3.70904">
        <ele>216.91</ele>
        <time>2021-08-11T09:56:43Z</time>
      </trkpt>
      <trkpt lat="47.6073" lon="3.70912">
        <ele>216.91</ele>
        <time>2021-08-11T09:56:44Z</time>
      </trkpt>
      <trkpt lat="47.60716" lon="3.70938">
        <ele>214.99</ele>
        <time>2021-08-11T09:56:47Z</time>
      </trkpt>
      <trkpt lat="47.60694" lon="3.70976">
        <ele>212.11</ele>
        <time>2021-08-11T09:56:51Z</time>
      </trkpt>
      <trkpt lat="47.60683" lon="3.70996">
        <ele>211.15</ele>
        <time>2021-08-11T09:56:53Z</time>
      </trkpt>
      <trkpt lat="47.60666" lon="3.7102">
        <ele>211.15</ele>
        <time>2021-08-11T09:56:57Z</time>
      </trkpt>
      <trkpt lat="47.60656" lon="3.71037">
        <ele>211.15</ele>
        <time>2021-08-11T09:57:03Z</time>
      </trkpt>
      <trkpt lat="47.60646" lon="3.71054">
        <ele>210.19</ele>
        <time>2021-08-11T09:57:09Z</time>
      </trkpt>
      <trkpt lat="47.60637" lon="3.7107">
        <ele>210.19</ele>
        <time>2021-08-11T09:57:15Z</time>
      </trkpt>
      <trkpt lat="47.60624" lon="3.7109">
        <ele>210.19</ele>
        <time>2021-08-11T09:57:22Z</time>
      </trkpt>
      <trkpt lat="47.60611" lon="3.71112">
        <ele>210.19</ele>
        <time>2021-08-11T09:57:29Z</time>
      </trkpt>
      <trkpt lat="47.60603" lon="3.71125">
        <ele>211.63</ele>
        <time>2021-08-11T09:57:34Z</time>
      </trkpt>
      <trkpt lat="47.60592" lon="3.71146">
        <ele>211.63</ele>
        <time>2021-08-11T09:57:41Z</time>
      </trkpt>
      <trkpt lat="47.60579" lon="3.71163">
        <ele>212.11</ele>
        <time>2021-08-11T09:57:47Z</time>
      </trkpt>
      <trkpt lat="47.60565" lon="3.71181">
        <ele>212.11</ele>
        <time>2021-08-11T09:57:54Z</time>
      </trkpt>
      <trkpt lat="47.60553" lon="3.71202">
        <ele>213.07</ele>
        <time>2021-08-11T09:58:01Z</time>
      </trkpt>
      <trkpt lat="47.60543" lon="3.7122">
        <ele>213.55</ele>
        <time>2021-08-11T09:58:08Z</time>
      </trkpt>
      <trkpt lat="47.60532" lon="3.71236">
        <ele>214.51</ele>
        <time>2021-08-11T09:58:14Z</time>
      </trkpt>
      <trkpt lat="47.60524" lon="3.71249">
        <ele>214.51</ele>
        <time>2021-08-11T09:58:19Z</time>
      </trkpt>
      <trkpt lat="47.60514" lon="3.71264">
        <ele>215.47</ele>
        <time>2021-08-11T09:58:25Z</time>
      </trkpt>
      <trkpt lat="47.60513" lon="3.71266">
        <ele>215.47</ele>
        <time>2021-08-11T09:58:26Z</time>
      </trkpt>
      <trkpt lat="47.60512" lon="3.71268">
        <ele>215.47</ele>
        <time>2021-08-11T09:58:27Z</time>
      </trkpt>
      <trkpt lat="47.60511" lon="3.7127">
        <ele>215.47</ele>
        <time>2021-08-11T09:58:28Z</time>
      </trkpt>
      <trkpt lat="47.605" lon="3.71287">
        <ele>216.43</ele>
        <time>2021-08-11T09:58:35Z</time>
      </trkpt>
      <trkpt lat="47.60492" lon="3.71303">
        <ele>216.91</ele>
        <time>2021-08-11T09:58:41Z</time>
      </trkpt>
      <trkpt lat="47.60486" lon="3.71313">
        <ele>217.4</ele>
        <time>2021-08-11T09:58:45Z</time>
      </trkpt>
      <trkpt lat="47.60484" lon="3.71315">
        <ele>217.4</ele>
        <time>2021-08-11T09:58:46Z</time>
      </trkpt>
      <trkpt lat="47.60482" lon="3.71317">
        <ele>217.4</ele>
        <time>2021-08-11T09:58:47Z</time>
      </trkpt>
      <trkpt lat="47.6048" lon="3.7132">
        <ele>217.4</ele>
        <time>2021-08-11T09:58:48Z</time>
      </trkpt>
      <trkpt lat="47.60479" lon="3.71322">
        <ele>217.88</ele>
        <time>2021-08-11T09:58:49Z</time>
      </trkpt>
      <trkpt lat="47.60478" lon="3.71324">
        <ele>217.88</ele>
        <time>2021-08-11T09:58:50Z</time>
      </trkpt>
      <trkpt lat="47.60477" lon="3.71326">
        <ele>217.88</ele>
        <time>2021-08-11T09:58:51Z</time>
      </trkpt>
      <trkpt lat="47.60476" lon="3.71328">
        <ele>217.88</ele>
        <time>2021-08-11T09:58:52Z</time>
      </trkpt>
      <trkpt lat="47.60475" lon="3.7133">
        <ele>217.88</ele>
        <time>2021-08-11T09:58:53Z</time>
      </trkpt>
      <trkpt lat="47.60474" lon="3.71332">
        <ele>218.84</ele>
        <time>2021-08-11T09:58:54Z</time>
      </trkpt>
      <trkpt lat="47.60465" lon="3.71349">
        <ele>218.84</ele>
        <time>2021-08-11T09:59:01Z</time>
      </trkpt>
      <trkpt lat="47.60456" lon="3.71365">
        <ele>219.8</ele>
        <time>2021-08-11T09:59:08Z</time>
      </trkpt>
      <trkpt lat="47.6045" lon="3.71378">
        <ele>220.28</ele>
        <time>2021-08-11T09:59:13Z</time>
      </trkpt>
      <trkpt lat="47.60449" lon="3.7138">
        <ele>220.28</ele>
        <time>2021-08-11T09:59:14Z</time>
      </trkpt>
      <trkpt lat="47.60447" lon="3.71382">
        <ele>221.24</ele>
        <time>2021-08-11T09:59:15Z</time>
      </trkpt>
      <trkpt lat="47.60433" lon="3.71401">
        <ele>221.72</ele>
        <time>2021-08-11T09:59:23Z</time>
      </trkpt>
      <trkpt lat="47.60416" lon="3.71426">
        <ele>221.72</ele>
        <time>2021-08-11T09:59:30Z</time>
      </trkpt>
      <trkpt lat="47.604" lon="3.71455">
        <ele>221.72</ele>
        <time>2021-08-11T09:59:37Z</time>
      </trkpt>
      <trkpt lat="47.60384" lon="3.71482">
        <ele>220.28</ele>
        <time>2021-08-11T09:59:42Z</time>
      </trkpt>
      <trkpt lat="47.60379" lon="3.71494">
        <ele>220.28</ele>
        <time>2021-08-11T09:59:44Z</time>
      </trkpt>
      <trkpt lat="47.60376" lon="3.715">
        <ele>219.8</ele>
        <time>2021-08-11T09:59:45Z</time>
      </trkpt>
      <trkpt lat="47.60357" lon="3.71544">
        <ele>216.43</ele>
        <time>2021-08-11T09:59:52Z</time>
      </trkpt>
      <trkpt lat="47.60351" lon="3.71556">
        <ele>214.51</ele>
        <time>2021-08-11T09:59:54Z</time>
      </trkpt>
      <trkpt lat="47.60339" lon="3.71575">
        <ele>211.63</ele>
        <time>2021-08-11T09:59:57Z</time>
      </trkpt>
      <trkpt lat="47.6032" lon="3.71606">
        <ele>208.26</ele>
        <time>2021-08-11T10:00:01Z</time>
      </trkpt>
      <trkpt lat="47.60304" lon="3.71634">
        <ele>207.3</ele>
        <time>2021-08-11T10:00:06Z</time>
      </trkpt>
      <trkpt lat="47.60301" lon="3.71639">
        <ele>207.3</ele>
        <time>2021-08-11T10:00:07Z</time>
      </trkpt>
      <trkpt lat="47.60298" lon="3.71642">
        <ele>207.3</ele>
        <time>2021-08-11T10:00:08Z</time>
      </trkpt>
      <trkpt lat="47.60295" lon="3.71645">
        <ele>207.3</ele>
        <time>2021-08-11T10:00:09Z</time>
      </trkpt>
      <trkpt lat="47.60293" lon="3.71649">
        <ele>207.78</ele>
        <time>2021-08-11T10:00:10Z</time>
      </trkpt>
      <trkpt lat="47.60291" lon="3.71652">
        <ele>207.78</ele>
        <time>2021-08-11T10:00:11Z</time>
      </trkpt>
      <trkpt lat="47.60289" lon="3.71655">
        <ele>207.78</ele>
        <time>2021-08-11T10:00:12Z</time>
      </trkpt>
      <trkpt lat="47.60287" lon="3.71658">
        <ele>209.22</ele>
        <time>2021-08-11T10:00:13Z</time>
      </trkpt>
      <trkpt lat="47.60275" lon="3.71678">
        <ele>209.7</ele>
        <time>2021-08-11T10:00:20Z</time>
      </trkpt>
      <trkpt lat="47.60263" lon="3.71697">
        <ele>211.15</ele>
        <time>2021-08-11T10:00:28Z</time>
      </trkpt>
      <trkpt lat="47.60259" lon="3.71712">
        <ele>212.11</ele>
        <time>2021-08-11T10:00:34Z</time>
      </trkpt>
      <trkpt lat="47.60249" lon="3.71731">
        <ele>213.55</ele>
        <time>2021-08-11T10:00:43Z</time>
      </trkpt>
      <trkpt lat="47.6024" lon="3.71748">
        <ele>214.51</ele>
        <time>2021-08-11T10:00:51Z</time>
      </trkpt>
      <trkpt lat="47.60229" lon="3.71764">
        <ele>215.95</ele>
        <time>2021-08-11T10:00:59Z</time>
      </trkpt>
      <trkpt lat="47.60216" lon="3.71783">
        <ele>216.43</ele>
        <time>2021-08-11T10:01:08Z</time>
      </trkpt>
      <trkpt lat="47.60205" lon="3.71802">
        <ele>217.4</ele>
        <time>2021-08-11T10:01:16Z</time>
      </trkpt>
      <trkpt lat="47.60193" lon="3.71824">
        <ele>217.88</ele>
        <time>2021-08-11T10:01:24Z</time>
      </trkpt>
      <trkpt lat="47.6018" lon="3.71846">
        <ele>218.84</ele>
        <time>2021-08-11T10:01:32Z</time>
      </trkpt>
      <trkpt lat="47.60168" lon="3.71871">
        <ele>219.8</ele>
        <time>2021-08-11T10:01:40Z</time>
      </trkpt>
      <trkpt lat="47.60157" lon="3.71895">
        <ele>219.8</ele>
        <time>2021-08-11T10:01:47Z</time>
      </trkpt>
      <trkpt lat="47.60143" lon="3.71918">
        <ele>219.8</ele>
        <time>2021-08-11T10:01:54Z</time>
      </trkpt>
      <trkpt lat="47.6013" lon="3.71939">
        <ele>219.8</ele>
        <time>2021-08-11T10:02:01Z</time>
      </trkpt>
      <trkpt lat="47.60119" lon="3.71958">
        <ele>219.8</ele>
        <time>2021-08-11T10:02:08Z</time>
      </trkpt>
      <trkpt lat="47.60102" lon="3.71988">
        <ele>220.28</ele>
        <time>2021-08-11T10:02:16Z</time>
      </trkpt>
      <trkpt lat="47.6008" lon="3.72024">
        <ele>220.28</ele>
        <time>2021-08-11T10:02:25Z</time>
      </trkpt>
      <trkpt lat="47.60059" lon="3.72062">
        <ele>220.76</ele>
        <time>2021-08-11T10:02:34Z</time>
      </trkpt>
      <trkpt lat="47.60046" lon="3.72086">
        <ele>221.24</ele>
        <time>2021-08-11T10:02:39Z</time>
      </trkpt>
      <trkpt lat="47.60023" lon="3.72134">
        <ele>221.24</ele>
        <time>2021-08-11T10:02:48Z</time>
      </trkpt>
      <trkpt lat="47.60006" lon="3.72164">
        <ele>221.24</ele>
        <time>2021-08-11T10:02:54Z</time>
      </trkpt>
      <trkpt lat="47.60003" lon="3.72168">
        <ele>221.24</ele>
        <time>2021-08-11T10:02:55Z</time>
      </trkpt>
      <trkpt lat="47.60002" lon="3.72171">
        <ele>221.24</ele>
        <time>2021-08-11T10:02:56Z</time>
      </trkpt>
      <trkpt lat="47.6" lon="3.72175">
        <ele>221.24</ele>
        <time>2021-08-11T10:02:57Z</time>
      </trkpt>
      <trkpt lat="47.59999" lon="3.72178">
        <ele>221.24</ele>
        <time>2021-08-11T10:02:58Z</time>
      </trkpt>
      <trkpt lat="47.59991" lon="3.72196">
        <ele>221.24</ele>
        <time>2021-08-11T10:03:04Z</time>
      </trkpt>
      <trkpt lat="47.59984" lon="3.7221">
        <ele>221.72</ele>
        <time>2021-08-11T10:03:10Z</time>
      </trkpt>
      <trkpt lat="47.59967" lon="3.72238">
        <ele>221.72</ele>
        <time>2021-08-11T10:03:18Z</time>
      </trkpt>
      <trkpt lat="47.59952" lon="3.72257">
        <ele>222.2</ele>
        <time>2021-08-11T10:03:25Z</time>
      </trkpt>
      <trkpt lat="47.59942" lon="3.72273">
        <ele>223.16</ele>
        <time>2021-08-11T10:03:31Z</time>
      </trkpt>
      <trkpt lat="47.59931" lon="3.72294">
        <ele>224.12</ele>
        <time>2021-08-11T10:03:39Z</time>
      </trkpt>
      <trkpt lat="47.59921" lon="3.72311">
        <ele>224.61</ele>
        <time>2021-08-11T10:03:46Z</time>
      </trkpt>
      <trkpt lat="47.59916" lon="3.72321">
        <ele>225.09</ele>
        <time>2021-08-11T10:03:52Z</time>
      </trkpt>
      <trkpt lat="47.599" lon="3.72344">
        <ele>225.57</ele>
        <time>2021-08-11T10:04:01Z</time>
      </trkpt>
      <trkpt lat="47.59886" lon="3.72364">
        <ele>226.53</ele>
        <time>2021-08-11T10:04:09Z</time>
      </trkpt>
      <trkpt lat="47.59881" lon="3.72372">
        <ele>226.53</ele>
        <time>2021-08-11T10:04:12Z</time>
      </trkpt>
      <trkpt lat="47.59879" lon="3.72374">
        <ele>226.53</ele>
        <time>2021-08-11T10:04:13Z</time>
      </trkpt>
      <trkpt lat="47.59877" lon="3.72376">
        <ele>227.01</ele>
        <time>2021-08-11T10:04:14Z</time>
      </trkpt>
      <trkpt lat="47.59874" lon="3.72381">
        <ele>227.01</ele>
        <time>2021-08-11T10:04:16Z</time>
      </trkpt>
      <trkpt lat="47.59872" lon="3.72385">
        <ele>227.49</ele>
        <time>2021-08-11T10:04:17Z</time>
      </trkpt>
      <trkpt lat="47.59861" lon="3.72404">
        <ele>227.49</ele>
        <time>2021-08-11T10:04:23Z</time>
      </trkpt>
      <trkpt lat="47.59847" lon="3.72429">
        <ele>227.97</ele>
        <time>2021-08-11T10:04:30Z</time>
      </trkpt>
      <trkpt lat="47.5983" lon="3.72455">
        <ele>228.45</ele>
        <time>2021-08-11T10:04:37Z</time>
      </trkpt>
      <trkpt lat="47.59826" lon="3.72459">
        <ele>227.49</ele>
        <time>2021-08-11T10:04:38Z</time>
      </trkpt>
      <trkpt lat="47.59823" lon="3.72463">
        <ele>227.49</ele>
        <time>2021-08-11T10:04:39Z</time>
      </trkpt>
      <trkpt lat="47.59821" lon="3.7247">
        <ele>226.05</ele>
        <time>2021-08-11T10:04:40Z</time>
      </trkpt>
      <trkpt lat="47.59808" lon="3.72502">
        <ele>226.53</ele>
        <time>2021-08-11T10:04:47Z</time>
      </trkpt>
      <trkpt lat="47.59802" lon="3.72516">
        <ele>227.97</ele>
        <time>2021-08-11T10:04:51Z</time>
      </trkpt>
      <trkpt lat="47.59787" lon="3.72547">
        <ele>227.97</ele>
        <time>2021-08-11T10:04:59Z</time>
      </trkpt>
      <trkpt lat="47.59765" lon="3.72584">
        <ele>226.05</ele>
        <time>2021-08-11T10:05:07Z</time>
      </trkpt>
      <trkpt lat="47.59739" lon="3.72625">
        <ele>226.53</ele>
        <time>2021-08-11T10:05:17Z</time>
      </trkpt>
      <trkpt lat="47.5972" lon="3.72655">
        <ele>226.53</ele>
        <time>2021-08-11T10:05:25Z</time>
      </trkpt>
      <trkpt lat="47.59712" lon="3.7267">
        <ele>227.97</ele>
        <time>2021-08-11T10:05:29Z</time>
      </trkpt>
      <trkpt lat="47.59688" lon="3.72712">
        <ele>228.45</ele>
        <time>2021-08-11T10:05:39Z</time>
      </trkpt>
      <trkpt lat="47.59676" lon="3.72738">
        <ele>228.45</ele>
        <time>2021-08-11T10:05:45Z</time>
      </trkpt>
      <trkpt lat="47.59661" lon="3.72767">
        <ele>229.41</ele>
        <time>2021-08-11T10:05:52Z</time>
      </trkpt>
      <trkpt lat="47.59644" lon="3.72793">
        <ele>229.41</ele>
        <time>2021-08-11T10:05:59Z</time>
      </trkpt>
      <trkpt lat="47.5963" lon="3.72827">
        <ele>229.41</ele>
        <time>2021-08-11T10:06:07Z</time>
      </trkpt>
      <trkpt lat="47.59625" lon="3.72869">
        <ele>229.89</ele>
        <time>2021-08-11T10:06:15Z</time>
      </trkpt>
      <trkpt lat="47.59608" lon="3.72903">
        <ele>227.97</ele>
        <time>2021-08-11T10:06:22Z</time>
      </trkpt>
      <trkpt lat="47.59605" lon="3.72908">
        <ele>227.97</ele>
        <time>2021-08-11T10:06:23Z</time>
      </trkpt>
      <trkpt lat="47.59577" lon="3.72958">
        <ele>225.09</ele>
        <time>2021-08-11T10:06:31Z</time>
      </trkpt>
      <trkpt lat="47.5954" lon="3.73026">
        <ele>222.68</ele>
        <time>2021-08-11T10:06:40Z</time>
      </trkpt>
      <trkpt lat="47.59519" lon="3.73066">
        <ele>222.2</ele>
        <time>2021-08-11T10:06:45Z</time>
      </trkpt>
      <trkpt lat="47.59483" lon="3.73128">
        <ele>222.2</ele>
        <time>2021-08-11T10:06:53Z</time>
      </trkpt>
      <trkpt lat="47.59456" lon="3.73177">
        <ele>224.61</ele>
        <time>2021-08-11T10:07:01Z</time>
      </trkpt>
      <trkpt lat="47.5943" lon="3.73223">
        <ele>225.57</ele>
        <time>2021-08-11T10:07:10Z</time>
      </trkpt>
      <trkpt lat="47.59416" lon="3.73248">
        <ele>226.05</ele>
        <time>2021-08-11T10:07:15Z</time>
      </trkpt>
      <trkpt lat="47.59413" lon="3.73252">
        <ele>226.05</ele>
        <time>2021-08-11T10:07:16Z</time>
      </trkpt>
      <trkpt lat="47.59411" lon="3.73257">
        <ele>226.53</ele>
        <time>2021-08-11T10:07:17Z</time>
      </trkpt>
      <trkpt lat="47.59408" lon="3.73262">
        <ele>226.53</ele>
        <time>2021-08-11T10:07:18Z</time>
      </trkpt>
      <trkpt lat="47.59405" lon="3.73266">
        <ele>226.53</ele>
        <time>2021-08-11T10:07:19Z</time>
      </trkpt>
      <trkpt lat="47.59379" lon="3.73314">
        <ele>226.53</ele>
        <time>2021-08-11T10:07:28Z</time>
      </trkpt>
      <trkpt lat="47.59351" lon="3.73363">
        <ele>226.53</ele>
        <time>2021-08-11T10:07:37Z</time>
      </trkpt>
      <trkpt lat="47.59321" lon="3.73416">
        <ele>226.53</ele>
        <time>2021-08-11T10:07:45Z</time>
      </trkpt>
      <trkpt lat="47.59313" lon="3.73431">
        <ele>225.09</ele>
        <time>2021-08-11T10:07:47Z</time>
      </trkpt>
      <trkpt lat="47.59272" lon="3.73507">
        <ele>224.61</ele>
        <time>2021-08-11T10:07:56Z</time>
      </trkpt>
      <trkpt lat="47.59224" lon="3.73593">
        <ele>223.64</ele>
        <time>2021-08-11T10:08:06Z</time>
      </trkpt>
      <trkpt lat="47.5922" lon="3.73601">
        <ele>223.64</ele>
        <time>2021-08-11T10:08:07Z</time>
      </trkpt>
      <trkpt lat="47.59215" lon="3.73609">
        <ele>223.64</ele>
        <time>2021-08-11T10:08:08Z</time>
      </trkpt>
      <trkpt lat="47.5921" lon="3.73618">
        <ele>223.64</ele>
        <time>2021-08-11T10:08:09Z</time>
      </trkpt>
      <trkpt lat="47.59175" lon="3.73685">
        <ele>223.64</ele>
        <time>2021-08-11T10:08:17Z</time>
      </trkpt>
      <trkpt lat="47.59145" lon="3.73739">
        <ele>223.64</ele>
        <time>2021-08-11T10:08:24Z</time>
      </trkpt>
      <trkpt lat="47.59137" lon="3.73752">
        <ele>224.61</ele>
        <time>2021-08-11T10:08:26Z</time>
      </trkpt>
      <trkpt lat="47.59115" lon="3.73791">
        <ele>226.53</ele>
        <time>2021-08-11T10:08:33Z</time>
      </trkpt>
      <trkpt lat="47.59102" lon="3.73813">
        <ele>227.01</ele>
        <time>2021-08-11T10:08:40Z</time>
      </trkpt>
      <trkpt lat="47.59088" lon="3.73838">
        <ele>227.97</ele>
        <time>2021-08-11T10:08:49Z</time>
      </trkpt>
      <trkpt lat="47.59076" lon="3.73859">
        <ele>228.45</ele>
        <time>2021-08-11T10:08:57Z</time>
      </trkpt>
      <trkpt lat="47.59059" lon="3.7389">
        <ele>228.93</ele>
        <time>2021-08-11T10:09:07Z</time>
      </trkpt>
      <trkpt lat="47.59042" lon="3.73921">
        <ele>229.41</ele>
        <time>2021-08-11T10:09:16Z</time>
      </trkpt>
      <trkpt lat="47.59026" lon="3.73949">
        <ele>229.89</ele>
        <time>2021-08-11T10:09:23Z</time>
      </trkpt>
      <trkpt lat="47.59008" lon="3.73982">
        <ele>230.85</ele>
        <time>2021-08-11T10:09:32Z</time>
      </trkpt>
      <trkpt lat="47.58994" lon="3.74006">
        <ele>231.33</ele>
        <time>2021-08-11T10:09:38Z</time>
      </trkpt>
      <trkpt lat="47.58984" lon="3.74023">
        <ele>231.33</ele>
        <time>2021-08-11T10:09:43Z</time>
      </trkpt>
      <trkpt lat="47.58972" lon="3.74048">
        <ele>231.33</ele>
        <time>2021-08-11T10:09:49Z</time>
      </trkpt>
      <trkpt lat="47.58961" lon="3.74066">
        <ele>230.37</ele>
        <time>2021-08-11T10:09:53Z</time>
      </trkpt>
      <trkpt lat="47.58958" lon="3.74071">
        <ele>230.37</ele>
        <time>2021-08-11T10:09:54Z</time>
      </trkpt>
      <trkpt lat="47.58928" lon="3.74126">
        <ele>228.45</ele>
        <time>2021-08-11T10:10:04Z</time>
      </trkpt>
      <trkpt lat="47.58897" lon="3.74179">
        <ele>227.97</ele>
        <time>2021-08-11T10:10:14Z</time>
      </trkpt>
      <trkpt lat="47.58863" lon="3.74236">
        <ele>227.97</ele>
        <time>2021-08-11T10:10:25Z</time>
      </trkpt>
      <trkpt lat="47.5885" lon="3.74256">
        <ele>227.97</ele>
        <time>2021-08-11T10:10:29Z</time>
      </trkpt>
      <trkpt lat="47.58842" lon="3.74271">
        <ele>227.97</ele>
        <time>2021-08-11T10:10:32Z</time>
      </trkpt>
      <trkpt lat="47.58817" lon="3.74315">
        <ele>227.97</ele>
        <time>2021-08-11T10:10:41Z</time>
      </trkpt>
      <trkpt lat="47.58784" lon="3.74364">
        <ele>229.89</ele>
        <time>2021-08-11T10:10:53Z</time>
      </trkpt>
      <trkpt lat="47.58758" lon="3.74392">
        <ele>231.33</ele>
        <time>2021-08-11T10:11:02Z</time>
      </trkpt>
      <trkpt lat="47.5874" lon="3.74407">
        <ele>231.81</ele>
        <time>2021-08-11T10:11:10Z</time>
      </trkpt>
      <trkpt lat="47.58719" lon="3.74422">
        <ele>233.74</ele>
        <time>2021-08-11T10:11:21Z</time>
      </trkpt>
      <trkpt lat="47.58705" lon="3.74434">
        <ele>234.7</ele>
        <time>2021-08-11T10:11:30Z</time>
      </trkpt>
      <trkpt lat="47.58696" lon="3.74441">
        <ele>236.14</ele>
        <time>2021-08-11T10:11:37Z</time>
      </trkpt>
      <trkpt lat="47.58694" lon="3.74444">
        <ele>236.14</ele>
        <time>2021-08-11T10:11:41Z</time>
      </trkpt>
      <trkpt lat="47.58683" lon="3.7445">
        <ele>236.62</ele>
        <time>2021-08-11T10:11:48Z</time>
      </trkpt>
      <trkpt lat="47.58672" lon="3.74453">
        <ele>237.58</ele>
        <time>2021-08-11T10:11:55Z</time>
      </trkpt>
      <trkpt lat="47.58662" lon="3.74457">
        <ele>239.02</ele>
        <time>2021-08-11T10:12:03Z</time>
      </trkpt>
      <trkpt lat="47.58649" lon="3.74466">
        <ele>239.99</ele>
        <time>2021-08-11T10:12:12Z</time>
      </trkpt>
      <trkpt lat="47.58641" lon="3.74474">
        <ele>240.95</ele>
        <time>2021-08-11T10:12:18Z</time>
      </trkpt>
      <trkpt lat="47.58639" lon="3.74474">
        <ele>240.95</ele>
        <time>2021-08-11T10:12:19Z</time>
      </trkpt>
      <trkpt lat="47.58638" lon="3.74475">
        <ele>240.95</ele>
        <time>2021-08-11T10:12:20Z</time>
      </trkpt>
      <trkpt lat="47.58628" lon="3.74485">
        <ele>242.39</ele>
        <time>2021-08-11T10:12:28Z</time>
      </trkpt>
      <trkpt lat="47.58619" lon="3.74494">
        <ele>243.35</ele>
        <time>2021-08-11T10:12:36Z</time>
      </trkpt>
      <trkpt lat="47.5861" lon="3.74503">
        <ele>243.83</ele>
        <time>2021-08-11T10:12:43Z</time>
      </trkpt>
      <trkpt lat="47.58599" lon="3.74514">
        <ele>245.75</ele>
        <time>2021-08-11T10:12:51Z</time>
      </trkpt>
      <trkpt lat="47.5859" lon="3.74523">
        <ele>246.72</ele>
        <time>2021-08-11T10:12:58Z</time>
      </trkpt>
      <trkpt lat="47.5858" lon="3.74532">
        <ele>248.16</ele>
        <time>2021-08-11T10:13:05Z</time>
      </trkpt>
      <trkpt lat="47.58572" lon="3.74544">
        <ele>248.64</ele>
        <time>2021-08-11T10:13:12Z</time>
      </trkpt>
      <trkpt lat="47.58571" lon="3.74545">
        <ele>248.64</ele>
        <time>2021-08-11T10:13:13Z</time>
      </trkpt>
      <trkpt lat="47.5857" lon="3.74547">
        <ele>248.64</ele>
        <time>2021-08-11T10:13:14Z</time>
      </trkpt>
      <trkpt lat="47.58569" lon="3.74549">
        <ele>248.64</ele>
        <time>2021-08-11T10:13:15Z</time>
      </trkpt>
      <trkpt lat="47.58568" lon="3.74551">
        <ele>249.6</ele>
        <time>2021-08-11T10:13:16Z</time>
      </trkpt>
      <trkpt lat="47.58567" lon="3.74554">
        <ele>249.6</ele>
        <time>2021-08-11T10:13:17Z</time>
      </trkpt>
      <trkpt lat="47.58558" lon="3.74568">
        <ele>250.08</ele>
        <time>2021-08-11T10:13:25Z</time>
      </trkpt>
      <trkpt lat="47.58551" lon="3.74578">
        <ele>251.04</ele>
        <time>2021-08-11T10:13:31Z</time>
      </trkpt>
      <trkpt lat="47.58549" lon="3.74577">
        <ele>251.52</ele>
        <time>2021-08-11T10:13:32Z</time>
      </trkpt>
      <trkpt lat="47.58548" lon="3.74576">
        <ele>251.52</ele>
        <time>2021-08-11T10:13:33Z</time>
      </trkpt>
      <trkpt lat="47.58531" lon="3.74564">
        <ele>251.52</ele>
        <time>2021-08-11T10:13:41Z</time>
      </trkpt>
      <trkpt lat="47.58512" lon="3.74553">
        <ele>251.52</ele>
        <time>2021-08-11T10:13:48Z</time>
      </trkpt>
      <trkpt lat="47.58493" lon="3.7454">
        <ele>252</ele>
        <time>2021-08-11T10:13:56Z</time>
      </trkpt>
      <trkpt lat="47.58474" lon="3.74528">
        <ele>252.96</ele>
        <time>2021-08-11T10:14:03Z</time>
      </trkpt>
      <trkpt lat="47.5846" lon="3.74519">
        <ele>253.44</ele>
        <time>2021-08-11T10:14:09Z</time>
      </trkpt>
      <trkpt lat="47.58447" lon="3.74512">
        <ele>253.44</ele>
        <time>2021-08-11T10:14:14Z</time>
      </trkpt>
      <trkpt lat="47.58428" lon="3.74497">
        <ele>253.44</ele>
        <time>2021-08-11T10:14:20Z</time>
      </trkpt>
      <trkpt lat="47.58407" lon="3.74478">
        <ele>253.93</ele>
        <time>2021-08-11T10:14:27Z</time>
      </trkpt>
      <trkpt lat="47.58386" lon="3.74458">
        <ele>253.93</ele>
        <time>2021-08-11T10:14:33Z</time>
      </trkpt>
      <trkpt lat="47.58366" lon="3.7444">
        <ele>253.93</ele>
        <time>2021-08-11T10:14:39Z</time>
      </trkpt>
      <trkpt lat="47.58345" lon="3.74424">
        <ele>252.96</ele>
        <time>2021-08-11T10:14:46Z</time>
      </trkpt>
      <trkpt lat="47.58325" lon="3.74409">
        <ele>252.48</ele>
        <time>2021-08-11T10:14:52Z</time>
      </trkpt>
      <trkpt lat="47.58297" lon="3.74388">
        <ele>252</ele>
        <time>2021-08-11T10:14:59Z</time>
      </trkpt>
      <trkpt lat="47.58261" lon="3.74363">
        <ele>250.56</ele>
        <time>2021-08-11T10:15:06Z</time>
      </trkpt>
      <trkpt lat="47.58221" lon="3.74342">
        <ele>248.64</ele>
        <time>2021-08-11T10:15:13Z</time>
      </trkpt>
      <trkpt lat="47.58217" lon="3.74339">
        <ele>248.64</ele>
        <time>2021-08-11T10:15:14Z</time>
      </trkpt>
      <trkpt lat="47.58213" lon="3.74336">
        <ele>248.16</ele>
        <time>2021-08-11T10:15:15Z</time>
      </trkpt>
      <trkpt lat="47.58185" lon="3.74324">
        <ele>247.2</ele>
        <time>2021-08-11T10:15:20Z</time>
      </trkpt>
      <trkpt lat="47.58172" lon="3.7432">
        <ele>246.23</ele>
        <time>2021-08-11T10:15:22Z</time>
      </trkpt>
      <trkpt lat="47.58165" lon="3.74317">
        <ele>244.79</ele>
        <time>2021-08-11T10:15:23Z</time>
      </trkpt>
      <trkpt lat="47.58146" lon="3.74305">
        <ele>243.83</ele>
        <time>2021-08-11T10:15:26Z</time>
      </trkpt>
      <trkpt lat="47.58138" lon="3.74299">
        <ele>243.83</ele>
        <time>2021-08-11T10:15:27Z</time>
      </trkpt>
      <trkpt lat="47.58102" lon="3.74264">
        <ele>241.91</ele>
        <time>2021-08-11T10:15:32Z</time>
      </trkpt>
      <trkpt lat="47.58096" lon="3.74259">
        <ele>240.95</ele>
        <time>2021-08-11T10:15:33Z</time>
      </trkpt>
      <trkpt lat="47.5808" lon="3.74249">
        <ele>239.99</ele>
        <time>2021-08-11T10:15:35Z</time>
      </trkpt>
      <trkpt lat="47.58064" lon="3.74238">
        <ele>238.54</ele>
        <time>2021-08-11T10:15:37Z</time>
      </trkpt>
      <trkpt lat="47.58056" lon="3.74231">
        <ele>237.58</ele>
        <time>2021-08-11T10:15:38Z</time>
      </trkpt>
      <trkpt lat="47.58048" lon="3.74223">
        <ele>236.62</ele>
        <time>2021-08-11T10:15:39Z</time>
      </trkpt>
      <trkpt lat="47.5804" lon="3.74216">
        <ele>236.14</ele>
        <time>2021-08-11T10:15:40Z</time>
      </trkpt>
      <trkpt lat="47.58032" lon="3.7421">
        <ele>236.14</ele>
        <time>2021-08-11T10:15:41Z</time>
      </trkpt>
      <trkpt lat="47.58022" lon="3.74206">
        <ele>235.66</ele>
        <time>2021-08-11T10:15:42Z</time>
      </trkpt>
      <trkpt lat="47.58012" lon="3.74204">
        <ele>234.7</ele>
        <time>2021-08-11T10:15:43Z</time>
      </trkpt>
      <trkpt lat="47.58002" lon="3.74202">
        <ele>234.22</ele>
        <time>2021-08-11T10:15:44Z</time>
      </trkpt>
      <trkpt lat="47.57991" lon="3.74199">
        <ele>233.74</ele>
        <time>2021-08-11T10:15:45Z</time>
      </trkpt>
      <trkpt lat="47.57982" lon="3.74195">
        <ele>233.74</ele>
        <time>2021-08-11T10:15:46Z</time>
      </trkpt>
      <trkpt lat="47.57954" lon="3.74184">
        <ele>233.26</ele>
        <time>2021-08-11T10:15:49Z</time>
      </trkpt>
      <trkpt lat="47.57946" lon="3.74179">
        <ele>233.26</ele>
        <time>2021-08-11T10:15:50Z</time>
      </trkpt>
      <trkpt lat="47.57938" lon="3.74173">
        <ele>232.3</ele>
        <time>2021-08-11T10:15:51Z</time>
      </trkpt>
      <trkpt lat="47.57931" lon="3.74165">
        <ele>232.3</ele>
        <time>2021-08-11T10:15:52Z</time>
      </trkpt>
      <trkpt lat="47.57925" lon="3.74154">
        <ele>232.3</ele>
        <time>2021-08-11T10:15:53Z</time>
      </trkpt>
      <trkpt lat="47.57921" lon="3.74144">
        <ele>231.33</ele>
        <time>2021-08-11T10:15:54Z</time>
      </trkpt>
      <trkpt lat="47.57916" lon="3.74133">
        <ele>231.33</ele>
        <time>2021-08-11T10:15:55Z</time>
      </trkpt>
      <trkpt lat="47.57911" lon="3.74123">
        <ele>230.37</ele>
        <time>2021-08-11T10:15:56Z</time>
      </trkpt>
      <trkpt lat="47.57904" lon="3.74115">
        <ele>230.37</ele>
        <time>2021-08-11T10:15:57Z</time>
      </trkpt>
      <trkpt lat="47.57898" lon="3.74109">
        <ele>229.41</ele>
        <time>2021-08-11T10:15:58Z</time>
      </trkpt>
      <trkpt lat="47.5789" lon="3.74105">
        <ele>229.41</ele>
        <time>2021-08-11T10:15:59Z</time>
      </trkpt>
      <trkpt lat="47.57883" lon="3.741">
        <ele>229.41</ele>
        <time>2021-08-11T10:16:00Z</time>
      </trkpt>
      <trkpt lat="47.57842" lon="3.74077">
        <ele>228.93</ele>
        <time>2021-08-11T10:16:06Z</time>
      </trkpt>
      <trkpt lat="47.57837" lon="3.74075">
        <ele>228.93</ele>
        <time>2021-08-11T10:16:07Z</time>
      </trkpt>
      <trkpt lat="47.57814" lon="3.74069">
        <ele>229.89</ele>
        <time>2021-08-11T10:16:13Z</time>
      </trkpt>
      <trkpt lat="47.57785" lon="3.74065">
        <ele>231.33</ele>
        <time>2021-08-11T10:16:20Z</time>
      </trkpt>
      <trkpt lat="47.57742" lon="3.74056">
        <ele>231.33</ele>
        <time>2021-08-11T10:16:31Z</time>
      </trkpt>
      <trkpt lat="47.57709" lon="3.74041">
        <ele>232.3</ele>
        <time>2021-08-11T10:16:40Z</time>
      </trkpt>
      <trkpt lat="47.57705" lon="3.74039">
        <ele>232.3</ele>
        <time>2021-08-11T10:16:41Z</time>
      </trkpt>
      <trkpt lat="47.57701" lon="3.74036">
        <ele>232.3</ele>
        <time>2021-08-11T10:16:42Z</time>
      </trkpt>
      <trkpt lat="47.57697" lon="3.74034">
        <ele>232.3</ele>
        <time>2021-08-11T10:16:43Z</time>
      </trkpt>
      <trkpt lat="47.57669" lon="3.74014">
        <ele>232.3</ele>
        <time>2021-08-11T10:16:51Z</time>
      </trkpt>
      <trkpt lat="47.57645" lon="3.73998">
        <ele>231.81</ele>
        <time>2021-08-11T10:16:58Z</time>
      </trkpt>
      <trkpt lat="47.57634" lon="3.73993">
        <ele>231.81</ele>
        <time>2021-08-11T10:17:02Z</time>
      </trkpt>
      <trkpt lat="47.57632" lon="3.7399">
        <ele>231.81</ele>
        <time>2021-08-11T10:17:03Z</time>
      </trkpt>
      <trkpt lat="47.57629" lon="3.73986">
        <ele>231.81</ele>
        <time>2021-08-11T10:17:04Z</time>
      </trkpt>
      <trkpt lat="47.57606" lon="3.73965">
        <ele>232.3</ele>
        <time>2021-08-11T10:17:11Z</time>
      </trkpt>
      <trkpt lat="47.57581" lon="3.73937">
        <ele>232.78</ele>
        <time>2021-08-11T10:17:20Z</time>
      </trkpt>
      <trkpt lat="47.57551" lon="3.73904">
        <ele>233.26</ele>
        <time>2021-08-11T10:17:31Z</time>
      </trkpt>
      <trkpt lat="47.57525" lon="3.73872">
        <ele>234.22</ele>
        <time>2021-08-11T10:17:41Z</time>
      </trkpt>
      <trkpt lat="47.57503" lon="3.73844">
        <ele>235.18</ele>
        <time>2021-08-11T10:17:50Z</time>
      </trkpt>
      <trkpt lat="47.5748" lon="3.7381">
        <ele>235.66</ele>
        <time>2021-08-11T10:18:00Z</time>
      </trkpt>
      <trkpt lat="47.5746" lon="3.73777">
        <ele>237.1</ele>
        <time>2021-08-11T10:18:10Z</time>
      </trkpt>
      <trkpt lat="47.57443" lon="3.73749">
        <ele>238.54</ele>
        <time>2021-08-11T10:18:20Z</time>
      </trkpt>
      <trkpt lat="47.5743" lon="3.73728">
        <ele>239.99</ele>
        <time>2021-08-11T10:18:29Z</time>
      </trkpt>
      <trkpt lat="47.57418" lon="3.73707">
        <ele>241.91</ele>
        <time>2021-08-11T10:18:38Z</time>
      </trkpt>
      <trkpt lat="47.57409" lon="3.73692">
        <ele>242.87</ele>
        <time>2021-08-11T10:18:45Z</time>
      </trkpt>
      <trkpt lat="47.574" lon="3.73677">
        <ele>244.31</ele>
        <time>2021-08-11T10:18:52Z</time>
      </trkpt>
      <trkpt lat="47.57394" lon="3.73668">
        <ele>245.27</ele>
        <time>2021-08-11T10:18:56Z</time>
      </trkpt>
      <trkpt lat="47.57393" lon="3.73667">
        <ele>245.27</ele>
        <time>2021-08-11T10:18:57Z</time>
      </trkpt>
      <trkpt lat="47.57391" lon="3.73666">
        <ele>245.75</ele>
        <time>2021-08-11T10:18:58Z</time>
      </trkpt>
      <trkpt lat="47.57391" lon="3.73664">
        <ele>245.75</ele>
        <time>2021-08-11T10:18:59Z</time>
      </trkpt>
      <trkpt lat="47.5739" lon="3.73663">
        <ele>245.75</ele>
        <time>2021-08-11T10:19:00Z</time>
      </trkpt>
      <trkpt lat="47.57389" lon="3.73661">
        <ele>246.72</ele>
        <time>2021-08-11T10:19:01Z</time>
      </trkpt>
      <trkpt lat="47.57388" lon="3.7366">
        <ele>246.72</ele>
        <time>2021-08-11T10:19:02Z</time>
      </trkpt>
      <trkpt lat="47.57387" lon="3.73658">
        <ele>246.72</ele>
        <time>2021-08-11T10:19:03Z</time>
      </trkpt>
      <trkpt lat="47.57386" lon="3.73657">
        <ele>246.72</ele>
        <time>2021-08-11T10:19:04Z</time>
      </trkpt>
      <trkpt lat="47.57385" lon="3.73656">
        <ele>246.72</ele>
        <time>2021-08-11T10:19:05Z</time>
      </trkpt>
      <trkpt lat="47.57384" lon="3.73654">
        <ele>246.23</ele>
        <time>2021-08-11T10:19:06Z</time>
      </trkpt>
      <trkpt lat="47.57383" lon="3.73653">
        <ele>246.23</ele>
        <time>2021-08-11T10:19:07Z</time>
      </trkpt>
      <trkpt lat="47.57382" lon="3.73653">
        <ele>246.23</ele>
        <time>2021-08-11T10:19:08Z</time>
      </trkpt>
      <trkpt lat="47.57381" lon="3.73652">
        <ele>246.23</ele>
        <time>2021-08-11T10:19:09Z</time>
      </trkpt>
      <trkpt lat="47.57379" lon="3.7365">
        <ele>246.72</ele>
        <time>2021-08-11T10:19:11Z</time>
      </trkpt>
      <trkpt lat="47.57374" lon="3.73642">
        <ele>248.16</ele>
        <time>2021-08-11T10:19:17Z</time>
      </trkpt>
      <trkpt lat="47.57365" lon="3.73631">
        <ele>249.12</ele>
        <time>2021-08-11T10:19:25Z</time>
      </trkpt>
      <trkpt lat="47.57357" lon="3.73619">
        <ele>250.08</ele>
        <time>2021-08-11T10:19:33Z</time>
      </trkpt>
      <trkpt lat="47.5735" lon="3.73609">
        <ele>251.04</ele>
        <time>2021-08-11T10:19:40Z</time>
      </trkpt>
      <trkpt lat="47.57344" lon="3.73595">
        <ele>251.52</ele>
        <time>2021-08-11T10:19:49Z</time>
      </trkpt>
      <trkpt lat="47.57338" lon="3.73584">
        <ele>252.96</ele>
        <time>2021-08-11T10:19:56Z</time>
      </trkpt>
      <trkpt lat="47.57333" lon="3.73577">
        <ele>252.96</ele>
        <time>2021-08-11T10:20:01Z</time>
      </trkpt>
      <trkpt lat="47.57331" lon="3.73574">
        <ele>253.44</ele>
        <time>2021-08-11T10:20:03Z</time>
      </trkpt>
      <trkpt lat="47.5733" lon="3.73572">
        <ele>253.44</ele>
        <time>2021-08-11T10:20:04Z</time>
      </trkpt>
      <trkpt lat="47.57329" lon="3.73571">
        <ele>253.44</ele>
        <time>2021-08-11T10:20:05Z</time>
      </trkpt>
      <trkpt lat="47.57328" lon="3.73569">
        <ele>253.93</ele>
        <time>2021-08-11T10:20:06Z</time>
      </trkpt>
      <trkpt lat="47.57327" lon="3.73567">
        <ele>253.93</ele>
        <time>2021-08-11T10:20:07Z</time>
      </trkpt>
      <trkpt lat="47.57326" lon="3.73566">
        <ele>253.93</ele>
        <time>2021-08-11T10:20:08Z</time>
      </trkpt>
      <trkpt lat="47.57321" lon="3.73558">
        <ele>254.41</ele>
        <time>2021-08-11T10:20:15Z</time>
      </trkpt>
      <trkpt lat="47.57317" lon="3.73549">
        <ele>255.37</ele>
        <time>2021-08-11T10:20:21Z</time>
      </trkpt>
      <trkpt lat="47.57316" lon="3.73548">
        <ele>255.37</ele>
        <time>2021-08-11T10:20:22Z</time>
      </trkpt>
      <trkpt lat="47.57309" lon="3.73538">
        <ele>256.33</ele>
        <time>2021-08-11T10:20:29Z</time>
      </trkpt>
      <trkpt lat="47.57302" lon="3.73528">
        <ele>257.29</ele>
        <time>2021-08-11T10:20:37Z</time>
      </trkpt>
      <trkpt lat="47.57299" lon="3.73523">
        <ele>257.29</ele>
        <time>2021-08-11T10:20:43Z</time>
      </trkpt>
      <trkpt lat="47.57299" lon="3.73522">
        <ele>257.29</ele>
        <time>2021-08-11T10:20:44Z</time>
      </trkpt>
      <trkpt lat="47.57295" lon="3.73514">
        <ele>258.25</ele>
        <time>2021-08-11T10:20:51Z</time>
      </trkpt>
      <trkpt lat="47.57292" lon="3.73507">
        <ele>259.21</ele>
        <time>2021-08-11T10:20:57Z</time>
      </trkpt>
      <trkpt lat="47.57289" lon="3.735">
        <ele>259.69</ele>
        <time>2021-08-11T10:21:02Z</time>
      </trkpt>
      <trkpt lat="47.57283" lon="3.73491">
        <ele>261.14</ele>
        <time>2021-08-11T10:21:10Z</time>
      </trkpt>
      <trkpt lat="47.57276" lon="3.7348">
        <ele>261.62</ele>
        <time>2021-08-11T10:21:19Z</time>
      </trkpt>
      <trkpt lat="47.57272" lon="3.73468">
        <ele>262.58</ele>
        <time>2021-08-11T10:21:28Z</time>
      </trkpt>
      <trkpt lat="47.57269" lon="3.73461">
        <ele>263.54</ele>
        <time>2021-08-11T10:21:34Z</time>
      </trkpt>
      <trkpt lat="47.57264" lon="3.73449">
        <ele>264.98</ele>
        <time>2021-08-11T10:21:43Z</time>
      </trkpt>
      <trkpt lat="47.57259" lon="3.73438">
        <ele>265.94</ele>
        <time>2021-08-11T10:21:51Z</time>
      </trkpt>
      <trkpt lat="47.57254" lon="3.73424">
        <ele>266.9</ele>
        <time>2021-08-11T10:22:01Z</time>
      </trkpt>
      <trkpt lat="47.5725" lon="3.73413">
        <ele>267.86</ele>
        <time>2021-08-11T10:22:10Z</time>
      </trkpt>
      <trkpt lat="47.57244" lon="3.734">
        <ele>268.83</ele>
        <time>2021-08-11T10:22:20Z</time>
      </trkpt>
      <trkpt lat="47.57239" lon="3.73388">
        <ele>270.27</ele>
        <time>2021-08-11T10:22:30Z</time>
      </trkpt>
      <trkpt lat="47.57235" lon="3.7338">
        <ele>271.23</ele>
        <time>2021-08-11T10:22:37Z</time>
      </trkpt>
      <trkpt lat="47.57231" lon="3.73369">
        <ele>272.67</ele>
        <time>2021-08-11T10:22:46Z</time>
      </trkpt>
      <trkpt lat="47.57225" lon="3.7336">
        <ele>273.15</ele>
        <time>2021-08-11T10:22:55Z</time>
      </trkpt>
      <trkpt lat="47.5722" lon="3.73349">
        <ele>274.59</ele>
        <time>2021-08-11T10:23:05Z</time>
      </trkpt>
      <trkpt lat="47.57216" lon="3.73337">
        <ele>275.56</ele>
        <time>2021-08-11T10:23:14Z</time>
      </trkpt>
      <trkpt lat="47.57212" lon="3.73326">
        <ele>276.52</ele>
        <time>2021-08-11T10:23:23Z</time>
      </trkpt>
      <trkpt lat="47.57208" lon="3.73316">
        <ele>277.96</ele>
        <time>2021-08-11T10:23:31Z</time>
      </trkpt>
      <trkpt lat="47.57204" lon="3.73309">
        <ele>278.44</ele>
        <time>2021-08-11T10:23:38Z</time>
      </trkpt>
      <trkpt lat="47.57199" lon="3.73298">
        <ele>279.88</ele>
        <time>2021-08-11T10:23:47Z</time>
      </trkpt>
      <trkpt lat="47.57195" lon="3.73289">
        <ele>279.88</ele>
        <time>2021-08-11T10:23:55Z</time>
      </trkpt>
      <trkpt lat="47.5719" lon="3.73277">
        <ele>281.8</ele>
        <time>2021-08-11T10:24:05Z</time>
      </trkpt>
      <trkpt lat="47.57187" lon="3.73269">
        <ele>282.28</ele>
        <time>2021-08-11T10:24:12Z</time>
      </trkpt>
      <trkpt lat="47.57183" lon="3.73258">
        <ele>283.25</ele>
        <time>2021-08-11T10:24:21Z</time>
      </trkpt>
      <trkpt lat="47.57177" lon="3.73249">
        <ele>284.69</ele>
        <time>2021-08-11T10:24:29Z</time>
      </trkpt>
      <trkpt lat="47.57176" lon="3.73247">
        <ele>284.69</ele>
        <time>2021-08-11T10:24:31Z</time>
      </trkpt>
      <trkpt lat="47.57175" lon="3.73246">
        <ele>284.69</ele>
        <time>2021-08-11T10:24:32Z</time>
      </trkpt>
      <trkpt lat="47.57169" lon="3.73239">
        <ele>285.17</ele>
        <time>2021-08-11T10:24:40Z</time>
      </trkpt>
      <trkpt lat="47.57166" lon="3.73235">
        <ele>285.17</ele>
        <time>2021-08-11T10:24:45Z</time>
      </trkpt>
      <trkpt lat="47.57165" lon="3.73234">
        <ele>285.17</ele>
        <time>2021-08-11T10:24:46Z</time>
      </trkpt>
      <trkpt lat="47.57159" lon="3.73228">
        <ele>286.13</ele>
        <time>2021-08-11T10:24:52Z</time>
      </trkpt>
      <trkpt lat="47.57158" lon="3.73227">
        <ele>286.61</ele>
        <time>2021-08-11T10:24:53Z</time>
      </trkpt>
      <trkpt lat="47.57157" lon="3.73226">
        <ele>286.61</ele>
        <time>2021-08-11T10:24:54Z</time>
      </trkpt>
      <trkpt lat="47.57151" lon="3.73219">
        <ele>287.09</ele>
        <time>2021-08-11T10:25:00Z</time>
      </trkpt>
      <trkpt lat="47.57141" lon="3.73211">
        <ele>288.05</ele>
        <time>2021-08-11T10:25:07Z</time>
      </trkpt>
      <trkpt lat="47.57128" lon="3.73201">
        <ele>288.53</ele>
        <time>2021-08-11T10:25:15Z</time>
      </trkpt>
      <trkpt lat="47.57116" lon="3.7319">
        <ele>289.01</ele>
        <time>2021-08-11T10:25:23Z</time>
      </trkpt>
      <trkpt lat="47.57102" lon="3.73177">
        <ele>289.97</ele>
        <time>2021-08-11T10:25:33Z</time>
      </trkpt>
      <trkpt lat="47.57091" lon="3.73166">
        <ele>290.46</ele>
        <time>2021-08-11T10:25:41Z</time>
      </trkpt>
      <trkpt lat="47.57078" lon="3.73153">
        <ele>291.42</ele>
        <time>2021-08-11T10:25:50Z</time>
      </trkpt>
      <trkpt lat="47.57067" lon="3.73141">
        <ele>292.38</ele>
        <time>2021-08-11T10:25:58Z</time>
      </trkpt>
      <trkpt lat="47.57054" lon="3.73129">
        <ele>292.86</ele>
        <time>2021-08-11T10:26:06Z</time>
      </trkpt>
      <trkpt lat="47.57043" lon="3.73118">
        <ele>293.34</ele>
        <time>2021-08-11T10:26:13Z</time>
      </trkpt>
      <trkpt lat="47.57028" lon="3.73098">
        <ele>293.82</ele>
        <time>2021-08-11T10:26:22Z</time>
      </trkpt>
      <trkpt lat="47.57014" lon="3.73073">
        <ele>294.78</ele>
        <time>2021-08-11T10:26:31Z</time>
      </trkpt>
      <trkpt lat="47.57002" lon="3.73045">
        <ele>294.78</ele>
        <time>2021-08-11T10:26:39Z</time>
      </trkpt>
      <trkpt lat="47.56995" lon="3.73034">
        <ele>294.78</ele>
        <time>2021-08-11T10:26:42Z</time>
      </trkpt>
      <trkpt lat="47.56992" lon="3.73031">
        <ele>294.78</ele>
        <time>2021-08-11T10:26:43Z</time>
      </trkpt>
      <trkpt lat="47.5699" lon="3.7303">
        <ele>294.78</ele>
        <time>2021-08-11T10:26:44Z</time>
      </trkpt>
      <trkpt lat="47.56986" lon="3.7303">
        <ele>294.78</ele>
        <time>2021-08-11T10:26:45Z</time>
      </trkpt>
      <trkpt lat="47.56983" lon="3.73031">
        <ele>294.78</ele>
        <time>2021-08-11T10:26:46Z</time>
      </trkpt>
      <trkpt lat="47.5698" lon="3.73033">
        <ele>294.78</ele>
        <time>2021-08-11T10:26:47Z</time>
      </trkpt>
      <trkpt lat="47.56977" lon="3.73035">
        <ele>295.26</ele>
        <time>2021-08-11T10:26:48Z</time>
      </trkpt>
      <trkpt lat="47.56975" lon="3.73038">
        <ele>295.26</ele>
        <time>2021-08-11T10:26:49Z</time>
      </trkpt>
      <trkpt lat="47.56972" lon="3.73039">
        <ele>295.26</ele>
        <time>2021-08-11T10:26:50Z</time>
      </trkpt>
      <trkpt lat="47.5697" lon="3.73041">
        <ele>295.74</ele>
        <time>2021-08-11T10:26:51Z</time>
      </trkpt>
      <trkpt lat="47.56954" lon="3.73052">
        <ele>296.22</ele>
        <time>2021-08-11T10:26:59Z</time>
      </trkpt>
      <trkpt lat="47.56943" lon="3.73057">
        <ele>297.18</ele>
        <time>2021-08-11T10:27:06Z</time>
      </trkpt>
      <trkpt lat="47.5693" lon="3.73065">
        <ele>298.15</ele>
        <time>2021-08-11T10:27:14Z</time>
      </trkpt>
      <trkpt lat="47.56917" lon="3.73078">
        <ele>299.59</ele>
        <time>2021-08-11T10:27:21Z</time>
      </trkpt>
      <trkpt lat="47.56903" lon="3.73094">
        <ele>301.03</ele>
        <time>2021-08-11T10:27:30Z</time>
      </trkpt>
      <trkpt lat="47.56888" lon="3.73106">
        <ele>301.99</ele>
        <time>2021-08-11T10:27:39Z</time>
      </trkpt>
      <trkpt lat="47.56876" lon="3.73113">
        <ele>303.43</ele>
        <time>2021-08-11T10:27:46Z</time>
      </trkpt>
      <trkpt lat="47.56863" lon="3.73116">
        <ele>303.91</ele>
        <time>2021-08-11T10:27:53Z</time>
      </trkpt>
      <trkpt lat="47.56844" lon="3.7312">
        <ele>304.88</ele>
        <time>2021-08-11T10:28:02Z</time>
      </trkpt>
      <trkpt lat="47.56826" lon="3.73124">
        <ele>305.36</ele>
        <time>2021-08-11T10:28:09Z</time>
      </trkpt>
      <trkpt lat="47.56806" lon="3.7313">
        <ele>305.36</ele>
        <time>2021-08-11T10:28:17Z</time>
      </trkpt>
      <trkpt lat="47.56788" lon="3.73138">
        <ele>303.43</ele>
        <time>2021-08-11T10:28:22Z</time>
      </trkpt>
      <trkpt lat="47.56772" lon="3.73149">
        <ele>301.99</ele>
        <time>2021-08-11T10:28:25Z</time>
      </trkpt>
      <trkpt lat="47.56751" lon="3.7317">
        <ele>300.55</ele>
        <time>2021-08-11T10:28:29Z</time>
      </trkpt>
      <trkpt lat="47.56725" lon="3.73197">
        <ele>297.67</ele>
        <time>2021-08-11T10:28:33Z</time>
      </trkpt>
      <trkpt lat="47.56717" lon="3.73202">
        <ele>297.18</ele>
        <time>2021-08-11T10:28:34Z</time>
      </trkpt>
      <trkpt lat="47.5671" lon="3.73203">
        <ele>296.22</ele>
        <time>2021-08-11T10:28:35Z</time>
      </trkpt>
      <trkpt lat="47.56702" lon="3.73204">
        <ele>296.22</ele>
        <time>2021-08-11T10:28:36Z</time>
      </trkpt>
      <trkpt lat="47.5667" lon="3.73206">
        <ele>292.38</ele>
        <time>2021-08-11T10:28:40Z</time>
      </trkpt>
      <trkpt lat="47.56644" lon="3.73213">
        <ele>289.49</ele>
        <time>2021-08-11T10:28:43Z</time>
      </trkpt>
      <trkpt lat="47.56608" lon="3.7323">
        <ele>286.13</ele>
        <time>2021-08-11T10:28:47Z</time>
      </trkpt>
      <trkpt lat="47.56582" lon="3.73247">
        <ele>283.25</ele>
        <time>2021-08-11T10:28:50Z</time>
      </trkpt>
      <trkpt lat="47.56558" lon="3.73265">
        <ele>279.4</ele>
        <time>2021-08-11T10:28:53Z</time>
      </trkpt>
      <trkpt lat="47.56551" lon="3.73273">
        <ele>278.44</ele>
        <time>2021-08-11T10:28:54Z</time>
      </trkpt>
      <trkpt lat="47.56544" lon="3.73283">
        <ele>277.48</ele>
        <time>2021-08-11T10:28:55Z</time>
      </trkpt>
      <trkpt lat="47.56538" lon="3.73292">
        <ele>276.52</ele>
        <time>2021-08-11T10:28:56Z</time>
      </trkpt>
      <trkpt lat="47.56532" lon="3.73302">
        <ele>275.56</ele>
        <time>2021-08-11T10:28:57Z</time>
      </trkpt>
      <trkpt lat="47.56508" lon="3.73346">
        <ele>271.71</ele>
        <time>2021-08-11T10:29:01Z</time>
      </trkpt>
      <trkpt lat="47.56502" lon="3.73355">
        <ele>271.71</ele>
        <time>2021-08-11T10:29:02Z</time>
      </trkpt>
      <trkpt lat="47.56497" lon="3.73362">
        <ele>271.23</ele>
        <time>2021-08-11T10:29:03Z</time>
      </trkpt>
      <trkpt lat="47.56492" lon="3.7337">
        <ele>269.79</ele>
        <time>2021-08-11T10:29:04Z</time>
      </trkpt>
      <trkpt lat="47.56474" lon="3.73399">
        <ele>266.42</ele>
        <time>2021-08-11T10:29:07Z</time>
      </trkpt>
      <trkpt lat="47.56468" lon="3.73408">
        <ele>264.98</ele>
        <time>2021-08-11T10:29:08Z</time>
      </trkpt>
      <trkpt lat="47.56447" lon="3.73434">
        <ele>261.14</ele>
        <time>2021-08-11T10:29:11Z</time>
      </trkpt>
      <trkpt lat="47.56432" lon="3.73452">
        <ele>257.77</ele>
        <time>2021-08-11T10:29:13Z</time>
      </trkpt>
      <trkpt lat="47.56411" lon="3.73478">
        <ele>254.89</ele>
        <time>2021-08-11T10:29:16Z</time>
      </trkpt>
      <trkpt lat="47.5639" lon="3.73505">
        <ele>251.04</ele>
        <time>2021-08-11T10:29:19Z</time>
      </trkpt>
      <trkpt lat="47.56367" lon="3.73536">
        <ele>248.64</ele>
        <time>2021-08-11T10:29:22Z</time>
      </trkpt>
      <trkpt lat="47.56354" lon="3.73556">
        <ele>247.68</ele>
        <time>2021-08-11T10:29:24Z</time>
      </trkpt>
      <trkpt lat="47.56333" lon="3.73584">
        <ele>245.75</ele>
        <time>2021-08-11T10:29:27Z</time>
      </trkpt>
      <trkpt lat="47.56328" lon="3.73594">
        <ele>244.79</ele>
        <time>2021-08-11T10:29:28Z</time>
      </trkpt>
      <trkpt lat="47.56323" lon="3.73605">
        <ele>243.83</ele>
        <time>2021-08-11T10:29:29Z</time>
      </trkpt>
      <trkpt lat="47.56319" lon="3.73619">
        <ele>242.87</ele>
        <time>2021-08-11T10:29:30Z</time>
      </trkpt>
      <trkpt lat="47.56316" lon="3.73629">
        <ele>242.87</ele>
        <time>2021-08-11T10:29:31Z</time>
      </trkpt>
      <trkpt lat="47.56313" lon="3.73641">
        <ele>242.87</ele>
        <time>2021-08-11T10:29:32Z</time>
      </trkpt>
      <trkpt lat="47.56297" lon="3.73702">
        <ele>240.47</ele>
        <time>2021-08-11T10:29:37Z</time>
      </trkpt>
      <trkpt lat="47.56283" lon="3.73776">
        <ele>239.99</ele>
        <time>2021-08-11T10:29:44Z</time>
      </trkpt>
      <trkpt lat="47.56283" lon="3.73777">
        <ele>239.99</ele>
        <time>2021-08-11T10:29:49Z</time>
      </trkpt>
      <trkpt lat="47.56283" lon="3.73776">
        <ele>239.99</ele>
        <time>2021-08-11T10:29:50Z</time>
      </trkpt>
      <trkpt lat="47.56284" lon="3.73772">
        <ele>239.99</ele>
        <time>2021-08-11T10:29:56Z</time>
      </trkpt>
      <trkpt lat="47.56284" lon="3.73771">
        <ele>239.99</ele>
        <time>2021-08-11T10:29:57Z</time>
      </trkpt>
      <trkpt lat="47.56284" lon="3.73768">
        <ele>239.99</ele>
        <time>2021-08-11T10:29:58Z</time>
      </trkpt>
      <trkpt lat="47.56285" lon="3.73766">
        <ele>239.99</ele>
        <time>2021-08-11T10:29:59Z</time>
      </trkpt>
      <trkpt lat="47.56285" lon="3.73762">
        <ele>239.99</ele>
        <time>2021-08-11T10:30:00Z</time>
      </trkpt>
      <trkpt lat="47.56286" lon="3.73758">
        <ele>239.99</ele>
        <time>2021-08-11T10:30:01Z</time>
      </trkpt>
      <trkpt lat="47.56287" lon="3.73753">
        <ele>239.99</ele>
        <time>2021-08-11T10:30:02Z</time>
      </trkpt>
      <trkpt lat="47.56289" lon="3.73747">
        <ele>239.99</ele>
        <time>2021-08-11T10:30:03Z</time>
      </trkpt>
      <trkpt lat="47.56291" lon="3.73736">
        <ele>240.95</ele>
        <time>2021-08-11T10:30:05Z</time>
      </trkpt>
      <trkpt lat="47.56301" lon="3.73691">
        <ele>241.91</ele>
        <time>2021-08-11T10:30:13Z</time>
      </trkpt>
      <trkpt lat="47.5631" lon="3.73661">
        <ele>243.35</ele>
        <time>2021-08-11T10:30:20Z</time>
      </trkpt>
      <trkpt lat="47.56318" lon="3.73629">
        <ele>244.31</ele>
        <time>2021-08-11T10:30:29Z</time>
      </trkpt>
      <trkpt lat="47.5632" lon="3.73615">
        <ele>244.79</ele>
        <time>2021-08-11T10:30:35Z</time>
      </trkpt>
      <trkpt lat="47.56321" lon="3.73612">
        <ele>244.79</ele>
        <time>2021-08-11T10:30:47Z</time>
      </trkpt>
      <trkpt lat="47.5632" lon="3.73611">
        <ele>245.27</ele>
        <time>2021-08-11T10:31:01Z</time>
      </trkpt>
      <trkpt lat="47.5632" lon="3.73612">
        <ele>245.27</ele>
        <time>2021-08-11T10:31:07Z</time>
      </trkpt>
      <trkpt lat="47.56321" lon="3.73617">
        <ele>245.27</ele>
        <time>2021-08-11T10:31:13Z</time>
      </trkpt>
      <trkpt lat="47.5632" lon="3.73622">
        <ele>245.27</ele>
        <time>2021-08-11T10:31:19Z</time>
      </trkpt>
      <trkpt lat="47.5632" lon="3.73623">
        <ele>243.83</ele>
        <time>2021-08-11T10:31:25Z</time>
      </trkpt>
      <trkpt lat="47.56323" lon="3.73624">
        <ele>243.83</ele>
        <time>2021-08-11T10:31:39Z</time>
      </trkpt>
      <trkpt lat="47.56321" lon="3.73622">
        <ele>243.83</ele>
        <time>2021-08-11T10:31:56Z</time>
      </trkpt>
      <trkpt lat="47.56319" lon="3.73623">
        <ele>243.83</ele>
        <time>2021-08-11T10:32:11Z</time>
      </trkpt>
      <trkpt lat="47.56319" lon="3.73624">
        <ele>243.83</ele>
        <time>2021-08-11T10:32:28Z</time>
      </trkpt>
      <trkpt lat="47.56316" lon="3.73622">
        <ele>243.83</ele>
        <time>2021-08-11T10:32:47Z</time>
      </trkpt>
      <trkpt lat="47.56317" lon="3.73623">
        <ele>243.83</ele>
        <time>2021-08-11T10:32:59Z</time>
      </trkpt>
      <trkpt lat="47.56319" lon="3.73626">
        <ele>243.83</ele>
        <time>2021-08-11T10:33:13Z</time>
      </trkpt>
      <trkpt lat="47.56313" lon="3.73643">
        <ele>242.87</ele>
        <time>2021-08-11T10:33:19Z</time>
      </trkpt>
      <trkpt lat="47.56303" lon="3.73676">
        <ele>241.91</ele>
        <time>2021-08-11T10:33:25Z</time>
      </trkpt>
      <trkpt lat="47.56299" lon="3.7369">
        <ele>241.43</ele>
        <time>2021-08-11T10:33:27Z</time>
      </trkpt>
      <trkpt lat="47.56297" lon="3.73698">
        <ele>241.43</ele>
        <time>2021-08-11T10:33:28Z</time>
      </trkpt>
      <trkpt lat="47.56281" lon="3.73776">
        <ele>239.51</ele>
        <time>2021-08-11T10:33:37Z</time>
      </trkpt>
      <trkpt lat="47.56276" lon="3.73811">
        <ele>238.54</ele>
        <time>2021-08-11T10:33:41Z</time>
      </trkpt>
      <trkpt lat="47.56275" lon="3.73821">
        <ele>238.06</ele>
        <time>2021-08-11T10:33:42Z</time>
      </trkpt>
      <trkpt lat="47.56271" lon="3.73839">
        <ele>237.1</ele>
        <time>2021-08-11T10:33:45Z</time>
      </trkpt>
      <trkpt lat="47.56268" lon="3.73842">
        <ele>236.62</ele>
        <time>2021-08-11T10:33:46Z</time>
      </trkpt>
      <trkpt lat="47.56265" lon="3.73844">
        <ele>236.14</ele>
        <time>2021-08-11T10:33:47Z</time>
      </trkpt>
      <trkpt lat="47.56261" lon="3.73846">
        <ele>236.14</ele>
        <time>2021-08-11T10:33:48Z</time>
      </trkpt>
      <trkpt lat="47.56258" lon="3.73846">
        <ele>235.66</ele>
        <time>2021-08-11T10:33:49Z</time>
      </trkpt>
      <trkpt lat="47.56253" lon="3.73846">
        <ele>234.22</ele>
        <time>2021-08-11T10:33:50Z</time>
      </trkpt>
      <trkpt lat="47.56249" lon="3.73844">
        <ele>233.26</ele>
        <time>2021-08-11T10:33:51Z</time>
      </trkpt>
      <trkpt lat="47.56243" lon="3.73842">
        <ele>232.78</ele>
        <time>2021-08-11T10:33:52Z</time>
      </trkpt>
      <trkpt lat="47.5622" lon="3.73834">
        <ele>229.41</ele>
        <time>2021-08-11T10:33:56Z</time>
      </trkpt>
      <trkpt lat="47.56209" lon="3.7383">
        <ele>228.45</ele>
        <time>2021-08-11T10:33:58Z</time>
      </trkpt>
      <trkpt lat="47.56199" lon="3.73825">
        <ele>227.01</ele>
        <time>2021-08-11T10:34:00Z</time>
      </trkpt>
      <trkpt lat="47.56185" lon="3.73818">
        <ele>226.53</ele>
        <time>2021-08-11T10:34:03Z</time>
      </trkpt>
      <trkpt lat="47.5618" lon="3.73815">
        <ele>226.53</ele>
        <time>2021-08-11T10:34:04Z</time>
      </trkpt>
      <trkpt lat="47.56176" lon="3.73814">
        <ele>225.57</ele>
        <time>2021-08-11T10:34:05Z</time>
      </trkpt>
      <trkpt lat="47.5617" lon="3.73813">
        <ele>225.57</ele>
        <time>2021-08-11T10:34:06Z</time>
      </trkpt>
      <trkpt lat="47.56165" lon="3.73812">
        <ele>225.57</ele>
        <time>2021-08-11T10:34:07Z</time>
      </trkpt>
      <trkpt lat="47.56145" lon="3.73809">
        <ele>226.05</ele>
        <time>2021-08-11T10:34:12Z</time>
      </trkpt>
      <trkpt lat="47.56132" lon="3.73805">
        <ele>227.49</ele>
        <time>2021-08-11T10:34:18Z</time>
      </trkpt>
      <trkpt lat="47.56131" lon="3.73805">
        <ele>227.49</ele>
        <time>2021-08-11T10:34:19Z</time>
      </trkpt>
      <trkpt lat="47.56119" lon="3.738">
        <ele>228.93</ele>
        <time>2021-08-11T10:34:27Z</time>
      </trkpt>
      <trkpt lat="47.56103" lon="3.73793">
        <ele>229.89</ele>
        <time>2021-08-11T10:34:37Z</time>
      </trkpt>
      <trkpt lat="47.5609" lon="3.73784">
        <ele>231.33</ele>
        <time>2021-08-11T10:34:46Z</time>
      </trkpt>
      <trkpt lat="47.56079" lon="3.73777">
        <ele>231.81</ele>
        <time>2021-08-11T10:34:53Z</time>
      </trkpt>
      <trkpt lat="47.56062" lon="3.73766">
        <ele>232.78</ele>
        <time>2021-08-11T10:35:02Z</time>
      </trkpt>
      <trkpt lat="47.56045" lon="3.73756">
        <ele>233.26</ele>
        <time>2021-08-11T10:35:11Z</time>
      </trkpt>
      <trkpt lat="47.56032" lon="3.73747">
        <ele>234.7</ele>
        <time>2021-08-11T10:35:19Z</time>
      </trkpt>
      <trkpt lat="47.56016" lon="3.73736">
        <ele>234.7</ele>
        <time>2021-08-11T10:35:28Z</time>
      </trkpt>
      <trkpt lat="47.56003" lon="3.73729">
        <ele>236.14</ele>
        <time>2021-08-11T10:35:35Z</time>
      </trkpt>
      <trkpt lat="47.56001" lon="3.73728">
        <ele>236.14</ele>
        <time>2021-08-11T10:35:36Z</time>
      </trkpt>
      <trkpt lat="47.55999" lon="3.73727">
        <ele>236.14</ele>
        <time>2021-08-11T10:35:37Z</time>
      </trkpt>
      <trkpt lat="47.55997" lon="3.73725">
        <ele>236.14</ele>
        <time>2021-08-11T10:35:38Z</time>
      </trkpt>
      <trkpt lat="47.55982" lon="3.73719">
        <ele>236.14</ele>
        <time>2021-08-11T10:35:44Z</time>
      </trkpt>
      <trkpt lat="47.55963" lon="3.7371">
        <ele>236.62</ele>
        <time>2021-08-11T10:35:51Z</time>
      </trkpt>
      <trkpt lat="47.55938" lon="3.73703">
        <ele>236.14</ele>
        <time>2021-08-11T10:35:58Z</time>
      </trkpt>
      <trkpt lat="47.55901" lon="3.73702">
        <ele>233.74</ele>
        <time>2021-08-11T10:36:05Z</time>
      </trkpt>
      <trkpt lat="47.55882" lon="3.737">
        <ele>232.78</ele>
        <time>2021-08-11T10:36:08Z</time>
      </trkpt>
      <trkpt lat="47.55875" lon="3.73698">
        <ele>232.78</ele>
        <time>2021-08-11T10:36:09Z</time>
      </trkpt>
      <trkpt lat="47.55848" lon="3.73689">
        <ele>231.33</ele>
        <time>2021-08-11T10:36:13Z</time>
      </trkpt>
      <trkpt lat="47.55842" lon="3.73689">
        <ele>231.33</ele>
        <time>2021-08-11T10:36:14Z</time>
      </trkpt>
      <trkpt lat="47.55834" lon="3.73692">
        <ele>230.37</ele>
        <time>2021-08-11T10:36:15Z</time>
      </trkpt>
      <trkpt lat="47.55828" lon="3.73696">
        <ele>230.37</ele>
        <time>2021-08-11T10:36:16Z</time>
      </trkpt>
      <trkpt lat="47.55821" lon="3.73703">
        <ele>228.93</ele>
        <time>2021-08-11T10:36:17Z</time>
      </trkpt>
      <trkpt lat="47.55815" lon="3.7371">
        <ele>228.45</ele>
        <time>2021-08-11T10:36:18Z</time>
      </trkpt>
      <trkpt lat="47.55794" lon="3.73733">
        <ele>225.09</ele>
        <time>2021-08-11T10:36:21Z</time>
      </trkpt>
      <trkpt lat="47.55766" lon="3.73767">
        <ele>222.2</ele>
        <time>2021-08-11T10:36:25Z</time>
      </trkpt>
      <trkpt lat="47.55758" lon="3.73775">
        <ele>221.72</ele>
        <time>2021-08-11T10:36:26Z</time>
      </trkpt>
      <trkpt lat="47.55709" lon="3.73836">
        <ele>219.8</ele>
        <time>2021-08-11T10:36:33Z</time>
      </trkpt>
      <trkpt lat="47.55681" lon="3.73877">
        <ele>219.32</ele>
        <time>2021-08-11T10:36:38Z</time>
      </trkpt>
      <trkpt lat="47.55677" lon="3.73885">
        <ele>219.32</ele>
        <time>2021-08-11T10:36:39Z</time>
      </trkpt>
      <trkpt lat="47.55673" lon="3.73893">
        <ele>219.32</ele>
        <time>2021-08-11T10:36:40Z</time>
      </trkpt>
      <trkpt lat="47.55655" lon="3.73929">
        <ele>219.32</ele>
        <time>2021-08-11T10:36:46Z</time>
      </trkpt>
      <trkpt lat="47.55654" lon="3.73935">
        <ele>219.32</ele>
        <time>2021-08-11T10:36:49Z</time>
      </trkpt>
      <trkpt lat="47.55656" lon="3.73933">
        <ele>219.32</ele>
        <time>2021-08-11T10:36:51Z</time>
      </trkpt>
      <trkpt lat="47.55656" lon="3.7393">
        <ele>219.32</ele>
        <time>2021-08-11T10:36:52Z</time>
      </trkpt>
      <trkpt lat="47.55656" lon="3.73927">
        <ele>219.32</ele>
        <time>2021-08-11T10:36:53Z</time>
      </trkpt>
      <trkpt lat="47.55656" lon="3.73924">
        <ele>219.32</ele>
        <time>2021-08-11T10:36:54Z</time>
      </trkpt>
      <trkpt lat="47.55655" lon="3.7392">
        <ele>219.32</ele>
        <time>2021-08-11T10:36:55Z</time>
      </trkpt>
      <trkpt lat="47.55654" lon="3.73918">
        <ele>219.32</ele>
        <time>2021-08-11T10:36:56Z</time>
      </trkpt>
      <trkpt lat="47.55652" lon="3.73917">
        <ele>219.32</ele>
        <time>2021-08-11T10:36:57Z</time>
      </trkpt>
      <trkpt lat="47.5565" lon="3.73916">
        <ele>220.76</ele>
        <time>2021-08-11T10:36:58Z</time>
      </trkpt>
      <trkpt lat="47.55647" lon="3.73916">
        <ele>220.76</ele>
        <time>2021-08-11T10:36:59Z</time>
      </trkpt>
      <trkpt lat="47.55645" lon="3.73917">
        <ele>220.76</ele>
        <time>2021-08-11T10:37:00Z</time>
      </trkpt>
      <trkpt lat="47.55641" lon="3.73918">
        <ele>220.76</ele>
        <time>2021-08-11T10:37:01Z</time>
      </trkpt>
      <trkpt lat="47.55639" lon="3.73918">
        <ele>220.76</ele>
        <time>2021-08-11T10:37:02Z</time>
      </trkpt>
      <trkpt lat="47.55635" lon="3.73919">
        <ele>220.76</ele>
        <time>2021-08-11T10:37:03Z</time>
      </trkpt>
      <trkpt lat="47.55633" lon="3.73919">
        <ele>220.76</ele>
        <time>2021-08-11T10:37:04Z</time>
      </trkpt>
      <trkpt lat="47.55609" lon="3.73925">
        <ele>221.72</ele>
        <time>2021-08-11T10:37:12Z</time>
      </trkpt>
      <trkpt lat="47.55581" lon="3.73931">
        <ele>222.68</ele>
        <time>2021-08-11T10:37:21Z</time>
      </trkpt>
      <trkpt lat="47.55543" lon="3.73941">
        <ele>223.16</ele>
        <time>2021-08-11T10:37:32Z</time>
      </trkpt>
      <trkpt lat="47.55523" lon="3.73946">
        <ele>223.64</ele>
        <time>2021-08-11T10:37:38Z</time>
      </trkpt>
      <trkpt lat="47.55493" lon="3.73959">
        <ele>224.12</ele>
        <time>2021-08-11T10:37:47Z</time>
      </trkpt>
      <trkpt lat="47.55466" lon="3.73977">
        <ele>225.09</ele>
        <time>2021-08-11T10:37:56Z</time>
      </trkpt>
      <trkpt lat="47.55445" lon="3.74007">
        <ele>225.57</ele>
        <time>2021-08-11T10:38:04Z</time>
      </trkpt>
      <trkpt lat="47.55437" lon="3.74022">
        <ele>225.57</ele>
        <time>2021-08-11T10:38:07Z</time>
      </trkpt>
      <trkpt lat="47.55421" lon="3.74056">
        <ele>224.12</ele>
        <time>2021-08-11T10:38:12Z</time>
      </trkpt>
      <trkpt lat="47.55411" lon="3.74078">
        <ele>222.68</ele>
        <time>2021-08-11T10:38:15Z</time>
      </trkpt>
      <trkpt lat="47.55407" lon="3.74087">
        <ele>222.68</ele>
        <time>2021-08-11T10:38:16Z</time>
      </trkpt>
      <trkpt lat="47.55399" lon="3.74103">
        <ele>222.2</ele>
        <time>2021-08-11T10:38:18Z</time>
      </trkpt>
      <trkpt lat="47.55395" lon="3.7411">
        <ele>222.2</ele>
        <time>2021-08-11T10:38:19Z</time>
      </trkpt>
      <trkpt lat="47.55386" lon="3.74131">
        <ele>221.72</ele>
        <time>2021-08-11T10:38:22Z</time>
      </trkpt>
      <trkpt lat="47.55384" lon="3.74137">
        <ele>221.72</ele>
        <time>2021-08-11T10:38:23Z</time>
      </trkpt>
      <trkpt lat="47.5538" lon="3.74142">
        <ele>221.72</ele>
        <time>2021-08-11T10:38:24Z</time>
      </trkpt>
      <trkpt lat="47.55376" lon="3.74146">
        <ele>221.72</ele>
        <time>2021-08-11T10:38:25Z</time>
      </trkpt>
      <trkpt lat="47.55372" lon="3.74149">
        <ele>223.16</ele>
        <time>2021-08-11T10:38:26Z</time>
      </trkpt>
      <trkpt lat="47.55368" lon="3.74151">
        <ele>223.16</ele>
        <time>2021-08-11T10:38:27Z</time>
      </trkpt>
      <trkpt lat="47.55364" lon="3.74152">
        <ele>223.16</ele>
        <time>2021-08-11T10:38:28Z</time>
      </trkpt>
      <trkpt lat="47.5536" lon="3.74153">
        <ele>223.16</ele>
        <time>2021-08-11T10:38:29Z</time>
      </trkpt>
      <trkpt lat="47.55327" lon="3.74152">
        <ele>223.64</ele>
        <time>2021-08-11T10:38:37Z</time>
      </trkpt>
      <trkpt lat="47.55303" lon="3.7415">
        <ele>224.12</ele>
        <time>2021-08-11T10:38:43Z</time>
      </trkpt>
      <trkpt lat="47.55299" lon="3.74149">
        <ele>224.12</ele>
        <time>2021-08-11T10:38:44Z</time>
      </trkpt>
      <trkpt lat="47.55259" lon="3.74142">
        <ele>224.12</ele>
        <time>2021-08-11T10:38:53Z</time>
      </trkpt>
      <trkpt lat="47.55249" lon="3.74141">
        <ele>224.12</ele>
        <time>2021-08-11T10:38:55Z</time>
      </trkpt>
      <trkpt lat="47.5524" lon="3.74139">
        <ele>224.12</ele>
        <time>2021-08-11T10:38:57Z</time>
      </trkpt>
      <trkpt lat="47.55233" lon="3.74138">
        <ele>223.16</ele>
        <time>2021-08-11T10:38:59Z</time>
      </trkpt>
      <trkpt lat="47.55212" lon="3.74133">
        <ele>222.68</ele>
        <time>2021-08-11T10:39:04Z</time>
      </trkpt>
      <trkpt lat="47.55198" lon="3.74131">
        <ele>222.68</ele>
        <time>2021-08-11T10:39:07Z</time>
      </trkpt>
      <trkpt lat="47.55193" lon="3.7413">
        <ele>222.68</ele>
        <time>2021-08-11T10:39:08Z</time>
      </trkpt>
      <trkpt lat="47.55184" lon="3.74125">
        <ele>222.68</ele>
        <time>2021-08-11T10:39:10Z</time>
      </trkpt>
      <trkpt lat="47.55174" lon="3.74121">
        <ele>222.68</ele>
        <time>2021-08-11T10:39:12Z</time>
      </trkpt>
      <trkpt lat="47.5517" lon="3.74119">
        <ele>222.68</ele>
        <time>2021-08-11T10:39:13Z</time>
      </trkpt>
      <trkpt lat="47.55166" lon="3.74116">
        <ele>222.68</ele>
        <time>2021-08-11T10:39:14Z</time>
      </trkpt>
      <trkpt lat="47.55163" lon="3.74116">
        <ele>223.64</ele>
        <time>2021-08-11T10:39:15Z</time>
      </trkpt>
      <trkpt lat="47.55162" lon="3.74118">
        <ele>223.64</ele>
        <time>2021-08-11T10:39:16Z</time>
      </trkpt>
      <trkpt lat="47.55161" lon="3.74122">
        <ele>223.64</ele>
        <time>2021-08-11T10:39:17Z</time>
      </trkpt>
      <trkpt lat="47.5516" lon="3.74124">
        <ele>223.64</ele>
        <time>2021-08-11T10:39:18Z</time>
      </trkpt>
      <trkpt lat="47.55158" lon="3.74127">
        <ele>223.64</ele>
        <time>2021-08-11T10:39:19Z</time>
      </trkpt>
      <trkpt lat="47.55156" lon="3.74129">
        <ele>223.64</ele>
        <time>2021-08-11T10:39:20Z</time>
      </trkpt>
      <trkpt lat="47.55154" lon="3.74131">
        <ele>223.64</ele>
        <time>2021-08-11T10:39:21Z</time>
      </trkpt>
      <trkpt lat="47.55152" lon="3.74131">
        <ele>223.64</ele>
        <time>2021-08-11T10:39:22Z</time>
      </trkpt>
      <trkpt lat="47.5515" lon="3.74132">
        <ele>224.12</ele>
        <time>2021-08-11T10:39:27Z</time>
      </trkpt>
      <trkpt lat="47.55151" lon="3.74131">
        <ele>224.12</ele>
        <time>2021-08-11T10:39:40Z</time>
      </trkpt>
      <trkpt lat="47.55151" lon="3.74131">
        <ele>224.61</ele>
        <time>2021-08-11T10:39:55Z</time>
      </trkpt>
      <trkpt lat="47.55151" lon="3.74131">
        <ele>223.16</ele>
        <time>2021-08-11T10:39:57Z</time>
      </trkpt>
      <trkpt lat="47.55149" lon="3.74131">
        <ele>223.16</ele>
        <time>2021-08-11T10:40:04Z</time>
      </trkpt>
      <trkpt lat="47.55148" lon="3.74132">
        <ele>223.16</ele>
        <time>2021-08-11T10:40:05Z</time>
      </trkpt>
      <trkpt lat="47.55147" lon="3.74133">
        <ele>223.16</ele>
        <time>2021-08-11T10:40:06Z</time>
      </trkpt>
      <trkpt lat="47.55146" lon="3.74133">
        <ele>223.16</ele>
        <time>2021-08-11T10:40:07Z</time>
      </trkpt>
      <trkpt lat="47.55144" lon="3.74134">
        <ele>223.16</ele>
        <time>2021-08-11T10:40:08Z</time>
      </trkpt>
      <trkpt lat="47.55142" lon="3.74135">
        <ele>223.16</ele>
        <time>2021-08-11T10:40:09Z</time>
      </trkpt>
      <trkpt lat="47.5514" lon="3.74136">
        <ele>223.16</ele>
        <time>2021-08-11T10:40:10Z</time>
      </trkpt>
      <trkpt lat="47.55119" lon="3.74144">
        <ele>224.12</ele>
        <time>2021-08-11T10:40:17Z</time>
      </trkpt>
      <trkpt lat="47.551" lon="3.74159">
        <ele>226.05</ele>
        <time>2021-08-11T10:40:24Z</time>
      </trkpt>
      <trkpt lat="47.55082" lon="3.74186">
        <ele>226.53</ele>
        <time>2021-08-11T10:40:32Z</time>
      </trkpt>
      <trkpt lat="47.55068" lon="3.74212">
        <ele>227.49</ele>
        <time>2021-08-11T10:40:40Z</time>
      </trkpt>
      <trkpt lat="47.55057" lon="3.74231">
        <ele>228.93</ele>
        <time>2021-08-11T10:40:47Z</time>
      </trkpt>
      <trkpt lat="47.55042" lon="3.74249">
        <ele>229.89</ele>
        <time>2021-08-11T10:40:55Z</time>
      </trkpt>
      <trkpt lat="47.55026" lon="3.74267">
        <ele>229.41</ele>
        <time>2021-08-11T10:41:03Z</time>
      </trkpt>
      <trkpt lat="47.55005" lon="3.74289">
        <ele>230.37</ele>
        <time>2021-08-11T10:41:13Z</time>
      </trkpt>
      <trkpt lat="47.54984" lon="3.7431">
        <ele>231.81</ele>
        <time>2021-08-11T10:41:22Z</time>
      </trkpt>
      <trkpt lat="47.54967" lon="3.74336">
        <ele>231.81</ele>
        <time>2021-08-11T10:41:31Z</time>
      </trkpt>
      <trkpt lat="47.54957" lon="3.74351">
        <ele>230.85</ele>
        <time>2021-08-11T10:41:35Z</time>
      </trkpt>
      <trkpt lat="47.54933" lon="3.74385">
        <ele>229.89</ele>
        <time>2021-08-11T10:41:43Z</time>
      </trkpt>
      <trkpt lat="47.54918" lon="3.74402">
        <ele>228.45</ele>
        <time>2021-08-11T10:41:47Z</time>
      </trkpt>
      <trkpt lat="47.54914" lon="3.74407">
        <ele>228.45</ele>
        <time>2021-08-11T10:41:48Z</time>
      </trkpt>
      <trkpt lat="47.54894" lon="3.74435">
        <ele>227.49</ele>
        <time>2021-08-11T10:41:53Z</time>
      </trkpt>
      <trkpt lat="47.54872" lon="3.74471">
        <ele>226.05</ele>
        <time>2021-08-11T10:41:59Z</time>
      </trkpt>
      <trkpt lat="47.5487" lon="3.74479">
        <ele>226.05</ele>
        <time>2021-08-11T10:42:00Z</time>
      </trkpt>
      <trkpt lat="47.54869" lon="3.74487">
        <ele>226.05</ele>
        <time>2021-08-11T10:42:01Z</time>
      </trkpt>
      <trkpt lat="47.5487" lon="3.74495">
        <ele>225.57</ele>
        <time>2021-08-11T10:42:02Z</time>
      </trkpt>
      <trkpt lat="47.54871" lon="3.74504">
        <ele>225.57</ele>
        <time>2021-08-11T10:42:03Z</time>
      </trkpt>
      <trkpt lat="47.54871" lon="3.74512">
        <ele>225.57</ele>
        <time>2021-08-11T10:42:04Z</time>
      </trkpt>
      <trkpt lat="47.54871" lon="3.7452">
        <ele>225.57</ele>
        <time>2021-08-11T10:42:05Z</time>
      </trkpt>
      <trkpt lat="47.54871" lon="3.74528">
        <ele>225.57</ele>
        <time>2021-08-11T10:42:06Z</time>
      </trkpt>
      <trkpt lat="47.54869" lon="3.74536">
        <ele>225.57</ele>
        <time>2021-08-11T10:42:07Z</time>
      </trkpt>
      <trkpt lat="47.54867" lon="3.74542">
        <ele>225.09</ele>
        <time>2021-08-11T10:42:08Z</time>
      </trkpt>
      <trkpt lat="47.54863" lon="3.74548">
        <ele>225.09</ele>
        <time>2021-08-11T10:42:09Z</time>
      </trkpt>
      <trkpt lat="47.54859" lon="3.74553">
        <ele>225.09</ele>
        <time>2021-08-11T10:42:10Z</time>
      </trkpt>
      <trkpt lat="47.54855" lon="3.74557">
        <ele>224.61</ele>
        <time>2021-08-11T10:42:11Z</time>
      </trkpt>
      <trkpt lat="47.5485" lon="3.74561">
        <ele>224.12</ele>
        <time>2021-08-11T10:42:12Z</time>
      </trkpt>
      <trkpt lat="47.54834" lon="3.74575">
        <ele>223.64</ele>
        <time>2021-08-11T10:42:15Z</time>
      </trkpt>
      <trkpt lat="47.54829" lon="3.74579">
        <ele>222.68</ele>
        <time>2021-08-11T10:42:16Z</time>
      </trkpt>
      <trkpt lat="47.54783" lon="3.74621">
        <ele>220.28</ele>
        <time>2021-08-11T10:42:24Z</time>
      </trkpt>
      <trkpt lat="47.54734" lon="3.74665">
        <ele>218.84</ele>
        <time>2021-08-11T10:42:32Z</time>
      </trkpt>
      <trkpt lat="47.54723" lon="3.74676">
        <ele>218.36</ele>
        <time>2021-08-11T10:42:34Z</time>
      </trkpt>
      <trkpt lat="47.54687" lon="3.74709">
        <ele>218.36</ele>
        <time>2021-08-11T10:42:41Z</time>
      </trkpt>
      <trkpt lat="47.54643" lon="3.74751">
        <ele>217.4</ele>
        <time>2021-08-11T10:42:50Z</time>
      </trkpt>
      <trkpt lat="47.54634" lon="3.74759">
        <ele>217.4</ele>
        <time>2021-08-11T10:42:52Z</time>
      </trkpt>
      <trkpt lat="47.54629" lon="3.74763">
        <ele>217.4</ele>
        <time>2021-08-11T10:42:53Z</time>
      </trkpt>
      <trkpt lat="47.54625" lon="3.74766">
        <ele>217.4</ele>
        <time>2021-08-11T10:42:54Z</time>
      </trkpt>
      <trkpt lat="47.54616" lon="3.74772">
        <ele>217.4</ele>
        <time>2021-08-11T10:42:56Z</time>
      </trkpt>
      <trkpt lat="47.54596" lon="3.74788">
        <ele>218.84</ele>
        <time>2021-08-11T10:43:03Z</time>
      </trkpt>
      <trkpt lat="47.54571" lon="3.74806">
        <ele>219.8</ele>
        <time>2021-08-11T10:43:12Z</time>
      </trkpt>
      <trkpt lat="47.54542" lon="3.74825">
        <ele>220.28</ele>
        <time>2021-08-11T10:43:23Z</time>
      </trkpt>
      <trkpt lat="47.54521" lon="3.74839">
        <ele>220.28</ele>
        <time>2021-08-11T10:43:31Z</time>
      </trkpt>
      <trkpt lat="47.5451" lon="3.74844">
        <ele>220.28</ele>
        <time>2021-08-11T10:43:35Z</time>
      </trkpt>
      <trkpt lat="47.54487" lon="3.74861">
        <ele>220.76</ele>
        <time>2021-08-11T10:43:44Z</time>
      </trkpt>
      <trkpt lat="47.54474" lon="3.74869">
        <ele>220.76</ele>
        <time>2021-08-11T10:43:49Z</time>
      </trkpt>
      <trkpt lat="47.5445" lon="3.74881">
        <ele>221.24</ele>
        <time>2021-08-11T10:43:58Z</time>
      </trkpt>
      <trkpt lat="47.54427" lon="3.74889">
        <ele>221.24</ele>
        <time>2021-08-11T10:44:07Z</time>
      </trkpt>
      <trkpt lat="47.54409" lon="3.74897">
        <ele>221.24</ele>
        <time>2021-08-11T10:44:13Z</time>
      </trkpt>
      <trkpt lat="47.54381" lon="3.74906">
        <ele>221.72</ele>
        <time>2021-08-11T10:44:23Z</time>
      </trkpt>
      <trkpt lat="47.54362" lon="3.74911">
        <ele>222.2</ele>
        <time>2021-08-11T10:44:30Z</time>
      </trkpt>
      <trkpt lat="47.54328" lon="3.7492">
        <ele>223.64</ele>
        <time>2021-08-11T10:44:42Z</time>
      </trkpt>
      <trkpt lat="47.54303" lon="3.74924">
        <ele>224.12</ele>
        <time>2021-08-11T10:44:51Z</time>
      </trkpt>
      <trkpt lat="47.54282" lon="3.74928">
        <ele>225.09</ele>
        <time>2021-08-11T10:44:59Z</time>
      </trkpt>
      <trkpt lat="47.5426" lon="3.74933">
        <ele>226.53</ele>
        <time>2021-08-11T10:45:08Z</time>
      </trkpt>
      <trkpt lat="47.54241" lon="3.74938">
        <ele>227.49</ele>
        <time>2021-08-11T10:45:16Z</time>
      </trkpt>
      <trkpt lat="47.54219" lon="3.74947">
        <ele>228.45</ele>
        <time>2021-08-11T10:45:26Z</time>
      </trkpt>
      <trkpt lat="47.54216" lon="3.74951">
        <ele>228.93</ele>
        <time>2021-08-11T10:45:28Z</time>
      </trkpt>
      <trkpt lat="47.54216" lon="3.74954">
        <ele>228.93</ele>
        <time>2021-08-11T10:45:29Z</time>
      </trkpt>
      <trkpt lat="47.54216" lon="3.74957">
        <ele>228.93</ele>
        <time>2021-08-11T10:45:30Z</time>
      </trkpt>
      <trkpt lat="47.54215" lon="3.74959">
        <ele>228.93</ele>
        <time>2021-08-11T10:45:31Z</time>
      </trkpt>
      <trkpt lat="47.54214" lon="3.7496">
        <ele>228.45</ele>
        <time>2021-08-11T10:45:36Z</time>
      </trkpt>
      <trkpt lat="47.54215" lon="3.7496">
        <ele>228.93</ele>
        <time>2021-08-11T10:45:49Z</time>
      </trkpt>
      <trkpt lat="47.54214" lon="3.7496">
        <ele>228.93</ele>
        <time>2021-08-11T10:46:03Z</time>
      </trkpt>
      <trkpt lat="47.54214" lon="3.74959">
        <ele>228.93</ele>
        <time>2021-08-11T10:46:20Z</time>
      </trkpt>
      <trkpt lat="47.54215" lon="3.7496">
        <ele>228.93</ele>
        <time>2021-08-11T10:46:44Z</time>
      </trkpt>
      <trkpt lat="47.54215" lon="3.74962">
        <ele>228.93</ele>
        <time>2021-08-11T10:47:01Z</time>
      </trkpt>
      <trkpt lat="47.54215" lon="3.74961">
        <ele>228.93</ele>
        <time>2021-08-11T10:47:19Z</time>
      </trkpt>
      <trkpt lat="47.54213" lon="3.74962">
        <ele>228.93</ele>
        <time>2021-08-11T10:47:37Z</time>
      </trkpt>
      <trkpt lat="47.54214" lon="3.74962">
        <ele>228.93</ele>
        <time>2021-08-11T10:47:50Z</time>
      </trkpt>
      <trkpt lat="47.54214" lon="3.74963">
        <ele>228.93</ele>
        <time>2021-08-11T10:48:09Z</time>
      </trkpt>
      <trkpt lat="47.54215" lon="3.74962">
        <ele>228.93</ele>
        <time>2021-08-11T10:48:28Z</time>
      </trkpt>
      <trkpt lat="47.54216" lon="3.74963">
        <ele>228.93</ele>
        <time>2021-08-11T10:48:51Z</time>
      </trkpt>
      <trkpt lat="47.54215" lon="3.74961">
        <ele>228.93</ele>
        <time>2021-08-11T10:49:01Z</time>
      </trkpt>
      <trkpt lat="47.54215" lon="3.74962">
        <ele>228.93</ele>
        <time>2021-08-11T10:49:13Z</time>
      </trkpt>
      <trkpt lat="47.54213" lon="3.74963">
        <ele>228.93</ele>
        <time>2021-08-11T10:49:35Z</time>
      </trkpt>
      <trkpt lat="47.54213" lon="3.7496">
        <ele>228.93</ele>
        <time>2021-08-11T10:49:55Z</time>
      </trkpt>
      <trkpt lat="47.54215" lon="3.74961">
        <ele>228.45</ele>
        <time>2021-08-11T10:50:16Z</time>
      </trkpt>
      <trkpt lat="47.54217" lon="3.74961">
        <ele>228.45</ele>
        <time>2021-08-11T10:50:35Z</time>
      </trkpt>
      <trkpt lat="47.54216" lon="3.7496">
        <ele>228.93</ele>
        <time>2021-08-11T10:51:00Z</time>
      </trkpt>
      <trkpt lat="47.54215" lon="3.74962">
        <ele>228.93</ele>
        <time>2021-08-11T10:51:19Z</time>
      </trkpt>
      <trkpt lat="47.54215" lon="3.7496">
        <ele>228.93</ele>
        <time>2021-08-11T10:51:44Z</time>
      </trkpt>
      <trkpt lat="47.54214" lon="3.74959">
        <ele>228.93</ele>
        <time>2021-08-11T10:52:10Z</time>
      </trkpt>
      <trkpt lat="47.54215" lon="3.74963">
        <ele>228.93</ele>
        <time>2021-08-11T10:52:34Z</time>
      </trkpt>
      <trkpt lat="47.54215" lon="3.74962">
        <ele>228.93</ele>
        <time>2021-08-11T10:52:46Z</time>
      </trkpt>
      <trkpt lat="47.54216" lon="3.74958">
        <ele>228.93</ele>
        <time>2021-08-11T10:53:11Z</time>
      </trkpt>
      <trkpt lat="47.54217" lon="3.74958">
        <ele>228.93</ele>
        <time>2021-08-11T10:53:34Z</time>
      </trkpt>
      <trkpt lat="47.54216" lon="3.74958">
        <ele>228.93</ele>
        <time>2021-08-11T10:53:54Z</time>
      </trkpt>
      <trkpt lat="47.54216" lon="3.74959">
        <ele>228.93</ele>
        <time>2021-08-11T10:53:55Z</time>
      </trkpt>
      <trkpt lat="47.54216" lon="3.74961">
        <ele>228.93</ele>
        <time>2021-08-11T10:53:56Z</time>
      </trkpt>
      <trkpt lat="47.54216" lon="3.74963">
        <ele>228.93</ele>
        <time>2021-08-11T10:53:57Z</time>
      </trkpt>
      <trkpt lat="47.5422" lon="3.74984">
        <ele>228.93</ele>
        <time>2021-08-11T10:54:05Z</time>
      </trkpt>
      <trkpt lat="47.5423" lon="3.75019">
        <ele>227.49</ele>
        <time>2021-08-11T10:54:13Z</time>
      </trkpt>
      <trkpt lat="47.54243" lon="3.75065">
        <ele>226.05</ele>
        <time>2021-08-11T10:54:22Z</time>
      </trkpt>
      <trkpt lat="47.54256" lon="3.75123">
        <ele>225.09</ele>
        <time>2021-08-11T10:54:30Z</time>
      </trkpt>
      <trkpt lat="47.54269" lon="3.75201">
        <ele>223.64</ele>
        <time>2021-08-11T10:54:39Z</time>
      </trkpt>
      <trkpt lat="47.54272" lon="3.75288">
        <ele>223.16</ele>
        <time>2021-08-11T10:54:49Z</time>
      </trkpt>
      <trkpt lat="47.54263" lon="3.75358">
        <ele>222.68</ele>
        <time>2021-08-11T10:54:58Z</time>
      </trkpt>
      <trkpt lat="47.54248" lon="3.75416">
        <ele>222.68</ele>
        <time>2021-08-11T10:55:06Z</time>
      </trkpt>
      <trkpt lat="47.54227" lon="3.75491">
        <ele>221.24</ele>
        <time>2021-08-11T10:55:16Z</time>
      </trkpt>
      <trkpt lat="47.54196" lon="3.75575">
        <ele>220.76</ele>
        <time>2021-08-11T10:55:27Z</time>
      </trkpt>
      <trkpt lat="47.54167" lon="3.75647">
        <ele>220.76</ele>
        <time>2021-08-11T10:55:38Z</time>
      </trkpt>
      <trkpt lat="47.54145" lon="3.7571">
        <ele>220.76</ele>
        <time>2021-08-11T10:55:48Z</time>
      </trkpt>
      <trkpt lat="47.54123" lon="3.75778">
        <ele>220.76</ele>
        <time>2021-08-11T10:55:58Z</time>
      </trkpt>
      <trkpt lat="47.54097" lon="3.75849">
        <ele>220.76</ele>
        <time>2021-08-11T10:56:09Z</time>
      </trkpt>
      <trkpt lat="47.54074" lon="3.75895">
        <ele>220.76</ele>
        <time>2021-08-11T10:56:17Z</time>
      </trkpt>
      <trkpt lat="47.5404" lon="3.7596">
        <ele>220.28</ele>
        <time>2021-08-11T10:56:27Z</time>
      </trkpt>
      <trkpt lat="47.54026" lon="3.75986">
        <ele>219.8</ele>
        <time>2021-08-11T10:56:31Z</time>
      </trkpt>
      <trkpt lat="47.54001" lon="3.76043">
        <ele>218.84</ele>
        <time>2021-08-11T10:56:39Z</time>
      </trkpt>
      <trkpt lat="47.53992" lon="3.76106">
        <ele>218.84</ele>
        <time>2021-08-11T10:56:47Z</time>
      </trkpt>
      <trkpt lat="47.53986" lon="3.76173">
        <ele>220.28</ele>
        <time>2021-08-11T10:56:57Z</time>
      </trkpt>
      <trkpt lat="47.53985" lon="3.76179">
        <ele>220.28</ele>
        <time>2021-08-11T10:56:58Z</time>
      </trkpt>
      <trkpt lat="47.53985" lon="3.76185">
        <ele>220.28</ele>
        <time>2021-08-11T10:56:59Z</time>
      </trkpt>
      <trkpt lat="47.5398" lon="3.76231">
        <ele>221.72</ele>
        <time>2021-08-11T10:57:07Z</time>
      </trkpt>
      <trkpt lat="47.53973" lon="3.76271">
        <ele>222.68</ele>
        <time>2021-08-11T10:57:15Z</time>
      </trkpt>
      <trkpt lat="47.53964" lon="3.76307">
        <ele>223.64</ele>
        <time>2021-08-11T10:57:23Z</time>
      </trkpt>
      <trkpt lat="47.53956" lon="3.76333">
        <ele>224.61</ele>
        <time>2021-08-11T10:57:30Z</time>
      </trkpt>
      <trkpt lat="47.53944" lon="3.76373">
        <ele>225.57</ele>
        <time>2021-08-11T10:57:41Z</time>
      </trkpt>
      <trkpt lat="47.5393" lon="3.76414">
        <ele>226.05</ele>
        <time>2021-08-11T10:57:51Z</time>
      </trkpt>
      <trkpt lat="47.53918" lon="3.76452">
        <ele>227.49</ele>
        <time>2021-08-11T10:58:00Z</time>
      </trkpt>
      <trkpt lat="47.53899" lon="3.765">
        <ele>225.57</ele>
        <time>2021-08-11T10:58:09Z</time>
      </trkpt>
      <trkpt lat="47.53896" lon="3.76505">
        <ele>225.57</ele>
        <time>2021-08-11T10:58:10Z</time>
      </trkpt>
      <trkpt lat="47.5387" lon="3.76565">
        <ele>223.64</ele>
        <time>2021-08-11T10:58:18Z</time>
      </trkpt>
      <trkpt lat="47.53859" lon="3.7659">
        <ele>222.2</ele>
        <time>2021-08-11T10:58:21Z</time>
      </trkpt>
      <trkpt lat="47.53834" lon="3.76648">
        <ele>218.84</ele>
        <time>2021-08-11T10:58:27Z</time>
      </trkpt>
      <trkpt lat="47.5379" lon="3.76748">
        <ele>217.4</ele>
        <time>2021-08-11T10:58:37Z</time>
      </trkpt>
      <trkpt lat="47.53765" lon="3.76799">
        <ele>218.84</ele>
        <time>2021-08-11T10:58:44Z</time>
      </trkpt>
      <trkpt lat="47.53734" lon="3.76858">
        <ele>219.8</ele>
        <time>2021-08-11T10:58:54Z</time>
      </trkpt>
      <trkpt lat="47.53712" lon="3.76896">
        <ele>220.76</ele>
        <time>2021-08-11T10:59:01Z</time>
      </trkpt>
      <trkpt lat="47.53693" lon="3.76926">
        <ele>221.72</ele>
        <time>2021-08-11T10:59:08Z</time>
      </trkpt>
      <trkpt lat="47.53662" lon="3.76967">
        <ele>223.16</ele>
        <time>2021-08-11T10:59:19Z</time>
      </trkpt>
      <trkpt lat="47.53643" lon="3.76989">
        <ele>224.12</ele>
        <time>2021-08-11T10:59:26Z</time>
      </trkpt>
      <trkpt lat="47.53638" lon="3.76997">
        <ele>224.12</ele>
        <time>2021-08-11T10:59:28Z</time>
      </trkpt>
      <trkpt lat="47.53635" lon="3.77002">
        <ele>224.12</ele>
        <time>2021-08-11T10:59:29Z</time>
      </trkpt>
      <trkpt lat="47.53633" lon="3.77007">
        <ele>224.12</ele>
        <time>2021-08-11T10:59:30Z</time>
      </trkpt>
      <trkpt lat="47.53631" lon="3.77013">
        <ele>224.12</ele>
        <time>2021-08-11T10:59:31Z</time>
      </trkpt>
      <trkpt lat="47.53629" lon="3.77018">
        <ele>224.12</ele>
        <time>2021-08-11T10:59:32Z</time>
      </trkpt>
      <trkpt lat="47.53615" lon="3.77058">
        <ele>224.61</ele>
        <time>2021-08-11T10:59:41Z</time>
      </trkpt>
      <trkpt lat="47.53601" lon="3.77099">
        <ele>225.57</ele>
        <time>2021-08-11T10:59:51Z</time>
      </trkpt>
      <trkpt lat="47.53593" lon="3.7713">
        <ele>226.53</ele>
        <time>2021-08-11T10:59:59Z</time>
      </trkpt>
      <trkpt lat="47.53586" lon="3.77166">
        <ele>227.49</ele>
        <time>2021-08-11T11:00:07Z</time>
      </trkpt>
      <trkpt lat="47.5358" lon="3.77202">
        <ele>227.97</ele>
        <time>2021-08-11T11:00:15Z</time>
      </trkpt>
      <trkpt lat="47.53573" lon="3.77241">
        <ele>227.97</ele>
        <time>2021-08-11T11:00:24Z</time>
      </trkpt>
      <trkpt lat="47.53564" lon="3.77281">
        <ele>229.89</ele>
        <time>2021-08-11T11:00:33Z</time>
      </trkpt>
      <trkpt lat="47.53556" lon="3.77324">
        <ele>229.89</ele>
        <time>2021-08-11T11:00:42Z</time>
      </trkpt>
      <trkpt lat="47.53546" lon="3.77376">
        <ele>230.37</ele>
        <time>2021-08-11T11:00:52Z</time>
      </trkpt>
      <trkpt lat="47.53545" lon="3.77426">
        <ele>230.85</ele>
        <time>2021-08-11T11:01:01Z</time>
      </trkpt>
      <trkpt lat="47.53554" lon="3.77467">
        <ele>230.85</ele>
        <time>2021-08-11T11:01:09Z</time>
      </trkpt>
      <trkpt lat="47.53566" lon="3.77507">
        <ele>231.81</ele>
        <time>2021-08-11T11:01:18Z</time>
      </trkpt>
      <trkpt lat="47.5358" lon="3.77567">
        <ele>231.81</ele>
        <time>2021-08-11T11:01:28Z</time>
      </trkpt>
      <trkpt lat="47.53585" lon="3.77624">
        <ele>228.45</ele>
        <time>2021-08-11T11:01:35Z</time>
      </trkpt>
      <trkpt lat="47.53586" lon="3.77659">
        <ele>225.09</ele>
        <time>2021-08-11T11:01:38Z</time>
      </trkpt>
      <trkpt lat="47.53587" lon="3.77715">
        <ele>222.68</ele>
        <time>2021-08-11T11:01:42Z</time>
      </trkpt>
      <trkpt lat="47.5358" lon="3.77818">
        <ele>220.76</ele>
        <time>2021-08-11T11:01:50Z</time>
      </trkpt>
      <trkpt lat="47.53579" lon="3.77892">
        <ele>218.84</ele>
        <time>2021-08-11T11:01:56Z</time>
      </trkpt>
      <trkpt lat="47.53581" lon="3.77981">
        <ele>214.51</ele>
        <time>2021-08-11T11:02:03Z</time>
      </trkpt>
      <trkpt lat="47.53583" lon="3.78008">
        <ele>214.03</ele>
        <time>2021-08-11T11:02:05Z</time>
      </trkpt>
      <trkpt lat="47.53599" lon="3.78086">
        <ele>211.15</ele>
        <time>2021-08-11T11:02:11Z</time>
      </trkpt>
      <trkpt lat="47.53603" lon="3.78099">
        <ele>210.19</ele>
        <time>2021-08-11T11:02:12Z</time>
      </trkpt>
      <trkpt lat="47.53609" lon="3.78113">
        <ele>209.22</ele>
        <time>2021-08-11T11:02:13Z</time>
      </trkpt>
      <trkpt lat="47.53614" lon="3.78123">
        <ele>208.74</ele>
        <time>2021-08-11T11:02:14Z</time>
      </trkpt>
      <trkpt lat="47.53626" lon="3.78151">
        <ele>205.86</ele>
        <time>2021-08-11T11:02:16Z</time>
      </trkpt>
      <trkpt lat="47.53641" lon="3.78196">
        <ele>202.49</ele>
        <time>2021-08-11T11:02:19Z</time>
      </trkpt>
      <trkpt lat="47.53672" lon="3.78292">
        <ele>200.09</ele>
        <time>2021-08-11T11:02:25Z</time>
      </trkpt>
      <trkpt lat="47.53691" lon="3.78351">
        <ele>196.73</ele>
        <time>2021-08-11T11:02:29Z</time>
      </trkpt>
      <trkpt lat="47.53699" lon="3.78381">
        <ele>194.8</ele>
        <time>2021-08-11T11:02:31Z</time>
      </trkpt>
      <trkpt lat="47.53702" lon="3.78397">
        <ele>193.84</ele>
        <time>2021-08-11T11:02:32Z</time>
      </trkpt>
      <trkpt lat="47.53705" lon="3.78433">
        <ele>191.44</ele>
        <time>2021-08-11T11:02:35Z</time>
      </trkpt>
      <trkpt lat="47.53708" lon="3.78442">
        <ele>190.96</ele>
        <time>2021-08-11T11:02:36Z</time>
      </trkpt>
      <trkpt lat="47.53712" lon="3.7845">
        <ele>190.48</ele>
        <time>2021-08-11T11:02:37Z</time>
      </trkpt>
      <trkpt lat="47.53719" lon="3.78455">
        <ele>189.04</ele>
        <time>2021-08-11T11:02:38Z</time>
      </trkpt>
      <trkpt lat="47.53727" lon="3.78458">
        <ele>187.59</ele>
        <time>2021-08-11T11:02:39Z</time>
      </trkpt>
      <trkpt lat="47.53736" lon="3.7846">
        <ele>186.63</ele>
        <time>2021-08-11T11:02:40Z</time>
      </trkpt>
      <trkpt lat="47.53767" lon="3.78467">
        <ele>182.79</ele>
        <time>2021-08-11T11:02:43Z</time>
      </trkpt>
      <trkpt lat="47.53801" lon="3.78474">
        <ele>179.42</ele>
        <time>2021-08-11T11:02:46Z</time>
      </trkpt>
      <trkpt lat="47.53825" lon="3.78481">
        <ele>176.06</ele>
        <time>2021-08-11T11:02:48Z</time>
      </trkpt>
      <trkpt lat="47.53863" lon="3.78493">
        <ele>172.69</ele>
        <time>2021-08-11T11:02:51Z</time>
      </trkpt>
      <trkpt lat="47.539" lon="3.78514">
        <ele>168.85</ele>
        <time>2021-08-11T11:02:54Z</time>
      </trkpt>
      <trkpt lat="47.53938" lon="3.78536">
        <ele>165.48</ele>
        <time>2021-08-11T11:02:57Z</time>
      </trkpt>
      <trkpt lat="47.53976" lon="3.78555">
        <ele>162.12</ele>
        <time>2021-08-11T11:03:00Z</time>
      </trkpt>
      <trkpt lat="47.54009" lon="3.78576">
        <ele>159.24</ele>
        <time>2021-08-11T11:03:03Z</time>
      </trkpt>
      <trkpt lat="47.54018" lon="3.78585">
        <ele>158.27</ele>
        <time>2021-08-11T11:03:04Z</time>
      </trkpt>
      <trkpt lat="47.54026" lon="3.78597">
        <ele>157.31</ele>
        <time>2021-08-11T11:03:05Z</time>
      </trkpt>
      <trkpt lat="47.54032" lon="3.78609">
        <ele>156.83</ele>
        <time>2021-08-11T11:03:06Z</time>
      </trkpt>
      <trkpt lat="47.54039" lon="3.78622">
        <ele>155.87</ele>
        <time>2021-08-11T11:03:07Z</time>
      </trkpt>
      <trkpt lat="47.54045" lon="3.78635">
        <ele>155.87</ele>
        <time>2021-08-11T11:03:08Z</time>
      </trkpt>
      <trkpt lat="47.54068" lon="3.78686">
        <ele>153.47</ele>
        <time>2021-08-11T11:03:12Z</time>
      </trkpt>
      <trkpt lat="47.54071" lon="3.78696">
        <ele>153.47</ele>
        <time>2021-08-11T11:03:13Z</time>
      </trkpt>
      <trkpt lat="47.54073" lon="3.78707">
        <ele>153.47</ele>
        <time>2021-08-11T11:03:14Z</time>
      </trkpt>
      <trkpt lat="47.54073" lon="3.78716">
        <ele>153.47</ele>
        <time>2021-08-11T11:03:15Z</time>
      </trkpt>
      <trkpt lat="47.54073" lon="3.78723">
        <ele>152.51</ele>
        <time>2021-08-11T11:03:16Z</time>
      </trkpt>
      <trkpt lat="47.54072" lon="3.78729">
        <ele>152.51</ele>
        <time>2021-08-11T11:03:17Z</time>
      </trkpt>
      <trkpt lat="47.54072" lon="3.78736">
        <ele>152.51</ele>
        <time>2021-08-11T11:03:19Z</time>
      </trkpt>
      <trkpt lat="47.54073" lon="3.78737">
        <ele>152.51</ele>
        <time>2021-08-11T11:03:20Z</time>
      </trkpt>
      <trkpt lat="47.54073" lon="3.78735">
        <ele>152.51</ele>
        <time>2021-08-11T11:03:21Z</time>
      </trkpt>
      <trkpt lat="47.54074" lon="3.78732">
        <ele>152.51</ele>
        <time>2021-08-11T11:03:22Z</time>
      </trkpt>
      <trkpt lat="47.54074" lon="3.78729">
        <ele>152.51</ele>
        <time>2021-08-11T11:03:23Z</time>
      </trkpt>
      <trkpt lat="47.54073" lon="3.78725">
        <ele>152.51</ele>
        <time>2021-08-11T11:03:24Z</time>
      </trkpt>
      <trkpt lat="47.54073" lon="3.78699">
        <ele>153.95</ele>
        <time>2021-08-11T11:03:30Z</time>
      </trkpt>
      <trkpt lat="47.54074" lon="3.78697">
        <ele>153.95</ele>
        <time>2021-08-11T11:03:35Z</time>
      </trkpt>
      <trkpt lat="47.54073" lon="3.78708">
        <ele>153.95</ele>
        <time>2021-08-11T11:03:40Z</time>
      </trkpt>
      <trkpt lat="47.54073" lon="3.78712">
        <ele>153.95</ele>
        <time>2021-08-11T11:03:41Z</time>
      </trkpt>
      <trkpt lat="47.5407" lon="3.78738">
        <ele>152.51</ele>
        <time>2021-08-11T11:03:46Z</time>
      </trkpt>
      <trkpt lat="47.54063" lon="3.78765">
        <ele>151.54</ele>
        <time>2021-08-11T11:03:50Z</time>
      </trkpt>
      <trkpt lat="47.54056" lon="3.78794">
        <ele>150.1</ele>
        <time>2021-08-11T11:03:56Z</time>
      </trkpt>
      <trkpt lat="47.54056" lon="3.78795">
        <ele>150.1</ele>
        <time>2021-08-11T11:03:57Z</time>
      </trkpt>
      <trkpt lat="47.54056" lon="3.78797">
        <ele>149.62</ele>
        <time>2021-08-11T11:03:58Z</time>
      </trkpt>
      <trkpt lat="47.54055" lon="3.78799">
        <ele>149.14</ele>
        <time>2021-08-11T11:03:59Z</time>
      </trkpt>
      <trkpt lat="47.54055" lon="3.78801">
        <ele>149.14</ele>
        <time>2021-08-11T11:04:00Z</time>
      </trkpt>
      <trkpt lat="47.54055" lon="3.78804">
        <ele>149.14</ele>
        <time>2021-08-11T11:04:01Z</time>
      </trkpt>
      <trkpt lat="47.54056" lon="3.78807">
        <ele>149.14</ele>
        <time>2021-08-11T11:04:02Z</time>
      </trkpt>
      <trkpt lat="47.54056" lon="3.78811">
        <ele>148.66</ele>
        <time>2021-08-11T11:04:03Z</time>
      </trkpt>
      <trkpt lat="47.54056" lon="3.78813">
        <ele>148.66</ele>
        <time>2021-08-11T11:04:04Z</time>
      </trkpt>
      <trkpt lat="47.54053" lon="3.78827">
        <ele>147.22</ele>
        <time>2021-08-11T11:04:08Z</time>
      </trkpt>
      <trkpt lat="47.54051" lon="3.78828">
        <ele>147.22</ele>
        <time>2021-08-11T11:04:09Z</time>
      </trkpt>
      <trkpt lat="47.54047" lon="3.78827">
        <ele>147.22</ele>
        <time>2021-08-11T11:04:11Z</time>
      </trkpt>
      <trkpt lat="47.54045" lon="3.78828">
        <ele>147.22</ele>
        <time>2021-08-11T11:04:12Z</time>
      </trkpt>
      <trkpt lat="47.54045" lon="3.7883">
        <ele>147.22</ele>
        <time>2021-08-11T11:04:14Z</time>
      </trkpt>
      <trkpt lat="47.54047" lon="3.7883">
        <ele>147.22</ele>
        <time>2021-08-11T11:04:15Z</time>
      </trkpt>
      <trkpt lat="47.5405" lon="3.78831">
        <ele>147.22</ele>
        <time>2021-08-11T11:04:16Z</time>
      </trkpt>
      <trkpt lat="47.54053" lon="3.78831">
        <ele>147.22</ele>
        <time>2021-08-11T11:04:17Z</time>
      </trkpt>
      <trkpt lat="47.54057" lon="3.78831">
        <ele>146.74</ele>
        <time>2021-08-11T11:04:18Z</time>
      </trkpt>
      <trkpt lat="47.54097" lon="3.78836">
        <ele>146.74</ele>
        <time>2021-08-11T11:04:26Z</time>
      </trkpt>
      <trkpt lat="47.54144" lon="3.78837">
        <ele>145.78</ele>
        <time>2021-08-11T11:04:34Z</time>
      </trkpt>
      <trkpt lat="47.54187" lon="3.78828">
        <ele>145.78</ele>
        <time>2021-08-11T11:04:42Z</time>
      </trkpt>
      <trkpt lat="47.54201" lon="3.78821">
        <ele>147.22</ele>
        <time>2021-08-11T11:04:45Z</time>
      </trkpt>
      <trkpt lat="47.54224" lon="3.78802">
        <ele>149.14</ele>
        <time>2021-08-11T11:04:52Z</time>
      </trkpt>
      <trkpt lat="47.54255" lon="3.78783">
        <ele>151.54</ele>
        <time>2021-08-11T11:05:02Z</time>
      </trkpt>
      <trkpt lat="47.54269" lon="3.78774">
        <ele>152.51</ele>
        <time>2021-08-11T11:05:09Z</time>
      </trkpt>
      <trkpt lat="47.54267" lon="3.78771">
        <ele>152.51</ele>
        <time>2021-08-11T11:05:16Z</time>
      </trkpt>
      <trkpt lat="47.54268" lon="3.7877">
        <ele>152.99</ele>
        <time>2021-08-11T11:05:24Z</time>
      </trkpt>
      <trkpt lat="47.54268" lon="3.78772">
        <ele>152.99</ele>
        <time>2021-08-11T11:05:41Z</time>
      </trkpt>
      <trkpt lat="47.54268" lon="3.78772">
        <ele>151.54</ele>
        <time>2021-08-11T11:05:47Z</time>
      </trkpt>
      <trkpt lat="47.54268" lon="3.78774">
        <ele>151.54</ele>
        <time>2021-08-11T11:06:05Z</time>
      </trkpt>
      <trkpt lat="47.54267" lon="3.78775">
        <ele>151.54</ele>
        <time>2021-08-11T11:06:19Z</time>
      </trkpt>
      <trkpt lat="47.54267" lon="3.78775">
        <ele>151.06</ele>
        <time>2021-08-11T11:06:35Z</time>
      </trkpt>
      <trkpt lat="47.54268" lon="3.78773">
        <ele>150.58</ele>
        <time>2021-08-11T11:06:49Z</time>
      </trkpt>
      <trkpt lat="47.54268" lon="3.78771">
        <ele>150.58</ele>
        <time>2021-08-11T11:07:07Z</time>
      </trkpt>
      <trkpt lat="47.54269" lon="3.78773">
        <ele>150.58</ele>
        <time>2021-08-11T11:07:24Z</time>
      </trkpt>
      <trkpt lat="47.54267" lon="3.78774">
        <ele>150.58</ele>
        <time>2021-08-11T11:07:48Z</time>
      </trkpt>
      <trkpt lat="47.54268" lon="3.78773">
        <ele>150.58</ele>
        <time>2021-08-11T11:07:58Z</time>
      </trkpt>
      <trkpt lat="47.54269" lon="3.78774">
        <ele>150.58</ele>
        <time>2021-08-11T11:08:14Z</time>
      </trkpt>
      <trkpt lat="47.54269" lon="3.78775">
        <ele>150.58</ele>
        <time>2021-08-11T11:08:29Z</time>
      </trkpt>
      <trkpt lat="47.54269" lon="3.78775">
        <ele>150.58</ele>
        <time>2021-08-11T11:08:44Z</time>
      </trkpt>
      <trkpt lat="47.54269" lon="3.78775">
        <ele>150.58</ele>
        <time>2021-08-11T11:08:55Z</time>
      </trkpt>
      <trkpt lat="47.54269" lon="3.78773">
        <ele>150.58</ele>
        <time>2021-08-11T11:09:13Z</time>
      </trkpt>
      <trkpt lat="47.54269" lon="3.78774">
        <ele>150.58</ele>
        <time>2021-08-11T11:09:24Z</time>
      </trkpt>
      <trkpt lat="47.54269" lon="3.78774">
        <ele>150.58</ele>
        <time>2021-08-11T11:09:41Z</time>
      </trkpt>
      <trkpt lat="47.5427" lon="3.78773">
        <ele>150.58</ele>
        <time>2021-08-11T11:09:55Z</time>
      </trkpt>
      <trkpt lat="47.54272" lon="3.78776">
        <ele>150.58</ele>
        <time>2021-08-11T11:10:17Z</time>
      </trkpt>
      <trkpt lat="47.54273" lon="3.78773">
        <ele>150.58</ele>
        <time>2021-08-11T11:10:41Z</time>
      </trkpt>
      <trkpt lat="47.54272" lon="3.78773">
        <ele>150.58</ele>
        <time>2021-08-11T11:10:53Z</time>
      </trkpt>
      <trkpt lat="47.54273" lon="3.78775">
        <ele>150.58</ele>
        <time>2021-08-11T11:11:11Z</time>
      </trkpt>
      <trkpt lat="47.5427" lon="3.78772">
        <ele>150.58</ele>
        <time>2021-08-11T11:11:35Z</time>
      </trkpt>
      <trkpt lat="47.54269" lon="3.78771">
        <ele>150.58</ele>
        <time>2021-08-11T11:11:53Z</time>
      </trkpt>
      <trkpt lat="47.54269" lon="3.78774">
        <ele>150.1</ele>
        <time>2021-08-11T11:12:11Z</time>
      </trkpt>
      <trkpt lat="47.54266" lon="3.78768">
        <ele>150.1</ele>
        <time>2021-08-11T11:12:31Z</time>
      </trkpt>
      <trkpt lat="47.54266" lon="3.78766">
        <ele>150.1</ele>
        <time>2021-08-11T11:12:44Z</time>
      </trkpt>
      <trkpt lat="47.54264" lon="3.78762">
        <ele>150.1</ele>
        <time>2021-08-11T11:12:59Z</time>
      </trkpt>
      <trkpt lat="47.54264" lon="3.78763">
        <ele>150.1</ele>
        <time>2021-08-11T11:13:20Z</time>
      </trkpt>
      <trkpt lat="47.54265" lon="3.78768">
        <ele>150.1</ele>
        <time>2021-08-11T11:13:40Z</time>
      </trkpt>
      <trkpt lat="47.54264" lon="3.78768">
        <ele>150.1</ele>
        <time>2021-08-11T11:13:59Z</time>
      </trkpt>
      <trkpt lat="47.54266" lon="3.78769">
        <ele>150.1</ele>
        <time>2021-08-11T11:14:18Z</time>
      </trkpt>
      <trkpt lat="47.54267" lon="3.78771">
        <ele>150.1</ele>
        <time>2021-08-11T11:14:37Z</time>
      </trkpt>
      <trkpt lat="47.54268" lon="3.78771">
        <ele>150.1</ele>
        <time>2021-08-11T11:15:05Z</time>
      </trkpt>
      <trkpt lat="47.54268" lon="3.78772">
        <ele>150.1</ele>
        <time>2021-08-11T11:15:24Z</time>
      </trkpt>
      <trkpt lat="47.54268" lon="3.78772">
        <ele>150.1</ele>
        <time>2021-08-11T11:15:41Z</time>
      </trkpt>
      <trkpt lat="47.54268" lon="3.78771">
        <ele>150.1</ele>
        <time>2021-08-11T11:15:57Z</time>
      </trkpt>
      <trkpt lat="47.54269" lon="3.78771">
        <ele>151.06</ele>
        <time>2021-08-11T11:16:11Z</time>
      </trkpt>
      <trkpt lat="47.54269" lon="3.78772">
        <ele>151.06</ele>
        <time>2021-08-11T11:16:23Z</time>
      </trkpt>
      <trkpt lat="47.54268" lon="3.78773">
        <ele>151.06</ele>
        <time>2021-08-11T11:16:40Z</time>
      </trkpt>
      <trkpt lat="47.54269" lon="3.78772">
        <ele>151.06</ele>
        <time>2021-08-11T11:16:58Z</time>
      </trkpt>
      <trkpt lat="47.5427" lon="3.78771">
        <ele>151.06</ele>
        <time>2021-08-11T11:17:19Z</time>
      </trkpt>
      <trkpt lat="47.5427" lon="3.78773">
        <ele>151.06</ele>
        <time>2021-08-11T11:17:41Z</time>
      </trkpt>
      <trkpt lat="47.54269" lon="3.78774">
        <ele>151.06</ele>
        <time>2021-08-11T11:18:02Z</time>
      </trkpt>
      <trkpt lat="47.54269" lon="3.78773">
        <ele>151.06</ele>
        <time>2021-08-11T11:18:27Z</time>
      </trkpt>
      <trkpt lat="47.54267" lon="3.78772">
        <ele>151.06</ele>
        <time>2021-08-11T11:18:47Z</time>
      </trkpt>
      <trkpt lat="47.54267" lon="3.78774">
        <ele>151.06</ele>
        <time>2021-08-11T11:18:57Z</time>
      </trkpt>
      <trkpt lat="47.54269" lon="3.78775">
        <ele>151.54</ele>
        <time>2021-08-11T11:19:15Z</time>
      </trkpt>
      <trkpt lat="47.54267" lon="3.78776">
        <ele>151.54</ele>
        <time>2021-08-11T11:19:38Z</time>
      </trkpt>
      <trkpt lat="47.54268" lon="3.78775">
        <ele>151.54</ele>
        <time>2021-08-11T11:19:55Z</time>
      </trkpt>
      <trkpt lat="47.54268" lon="3.78776">
        <ele>150.58</ele>
        <time>2021-08-11T11:20:13Z</time>
      </trkpt>
      <trkpt lat="47.54268" lon="3.78776">
        <ele>150.58</ele>
        <time>2021-08-11T11:20:31Z</time>
      </trkpt>
      <trkpt lat="47.54269" lon="3.78775">
        <ele>149.62</ele>
        <time>2021-08-11T11:20:44Z</time>
      </trkpt>
      <trkpt lat="47.5427" lon="3.78776">
        <ele>149.62</ele>
        <time>2021-08-11T11:21:08Z</time>
      </trkpt>
      <trkpt lat="47.5427" lon="3.78776">
        <ele>149.62</ele>
        <time>2021-08-11T11:21:30Z</time>
      </trkpt>
      <trkpt lat="47.54269" lon="3.78774">
        <ele>149.62</ele>
        <time>2021-08-11T11:21:45Z</time>
      </trkpt>
      <trkpt lat="47.54269" lon="3.78773">
        <ele>149.62</ele>
        <time>2021-08-11T11:21:59Z</time>
      </trkpt>
      <trkpt lat="47.54269" lon="3.78775">
        <ele>149.62</ele>
        <time>2021-08-11T11:22:16Z</time>
      </trkpt>
      <trkpt lat="47.54268" lon="3.78776">
        <ele>149.62</ele>
        <time>2021-08-11T11:22:33Z</time>
      </trkpt>
      <trkpt lat="47.54267" lon="3.78774">
        <ele>149.62</ele>
        <time>2021-08-11T11:22:56Z</time>
      </trkpt>
      <trkpt lat="47.54268" lon="3.78774">
        <ele>149.62</ele>
        <time>2021-08-11T11:23:16Z</time>
      </trkpt>
      <trkpt lat="47.54269" lon="3.78773">
        <ele>149.62</ele>
        <time>2021-08-11T11:23:36Z</time>
      </trkpt>
      <trkpt lat="47.54268" lon="3.78772">
        <ele>149.62</ele>
        <time>2021-08-11T11:23:57Z</time>
      </trkpt>
      <trkpt lat="47.54268" lon="3.78773">
        <ele>149.62</ele>
        <time>2021-08-11T11:24:15Z</time>
      </trkpt>
      <trkpt lat="47.54268" lon="3.78774">
        <ele>149.62</ele>
        <time>2021-08-11T11:24:40Z</time>
      </trkpt>
      <trkpt lat="47.54267" lon="3.78773">
        <ele>149.62</ele>
        <time>2021-08-11T11:24:59Z</time>
      </trkpt>
      <trkpt lat="47.54267" lon="3.78773">
        <ele>149.62</ele>
        <time>2021-08-11T11:25:12Z</time>
      </trkpt>
      <trkpt lat="47.54268" lon="3.78772">
        <ele>149.62</ele>
        <time>2021-08-11T11:25:28Z</time>
      </trkpt>
      <trkpt lat="47.54267" lon="3.78771">
        <ele>149.62</ele>
        <time>2021-08-11T11:25:42Z</time>
      </trkpt>
      <trkpt lat="47.54266" lon="3.78773">
        <ele>149.62</ele>
        <time>2021-08-11T11:26:00Z</time>
      </trkpt>
      <trkpt lat="47.54265" lon="3.78774">
        <ele>149.62</ele>
        <time>2021-08-11T11:26:14Z</time>
      </trkpt>
      <trkpt lat="47.54265" lon="3.78773">
        <ele>149.62</ele>
        <time>2021-08-11T11:26:29Z</time>
      </trkpt>
      <trkpt lat="47.54266" lon="3.78773">
        <ele>149.62</ele>
        <time>2021-08-11T11:26:47Z</time>
      </trkpt>
      <trkpt lat="47.54267" lon="3.78773">
        <ele>150.58</ele>
        <time>2021-08-11T11:26:56Z</time>
      </trkpt>
      <trkpt lat="47.54266" lon="3.78772">
        <ele>150.58</ele>
        <time>2021-08-11T11:27:04Z</time>
      </trkpt>
      <trkpt lat="47.54268" lon="3.78773">
        <ele>150.58</ele>
        <time>2021-08-11T11:27:09Z</time>
      </trkpt>
      <trkpt lat="47.54268" lon="3.78771">
        <ele>150.58</ele>
        <time>2021-08-11T11:27:19Z</time>
      </trkpt>
      <trkpt lat="47.54268" lon="3.7877">
        <ele>150.58</ele>
        <time>2021-08-11T11:27:32Z</time>
      </trkpt>
      <trkpt lat="47.54267" lon="3.78769">
        <ele>150.58</ele>
        <time>2021-08-11T11:27:46Z</time>
      </trkpt>
      <trkpt lat="47.54267" lon="3.7877">
        <ele>150.58</ele>
        <time>2021-08-11T11:28:00Z</time>
      </trkpt>
      <trkpt lat="47.54267" lon="3.7877">
        <ele>150.58</ele>
        <time>2021-08-11T11:28:17Z</time>
      </trkpt>
      <trkpt lat="47.54268" lon="3.78769">
        <ele>150.58</ele>
        <time>2021-08-11T11:28:31Z</time>
      </trkpt>
      <trkpt lat="47.54267" lon="3.78769">
        <ele>150.1</ele>
        <time>2021-08-11T11:28:48Z</time>
      </trkpt>
      <trkpt lat="47.54267" lon="3.78768">
        <ele>150.1</ele>
        <time>2021-08-11T11:29:01Z</time>
      </trkpt>
      <trkpt lat="47.54267" lon="3.78768">
        <ele>150.1</ele>
        <time>2021-08-11T11:29:23Z</time>
      </trkpt>
      <trkpt lat="47.54267" lon="3.78769">
        <ele>150.1</ele>
        <time>2021-08-11T11:29:38Z</time>
      </trkpt>
      <trkpt lat="47.54268" lon="3.78769">
        <ele>150.1</ele>
        <time>2021-08-11T11:29:57Z</time>
      </trkpt>
      <trkpt lat="47.54267" lon="3.78768">
        <ele>150.1</ele>
        <time>2021-08-11T11:30:15Z</time>
      </trkpt>
      <trkpt lat="47.54267" lon="3.78767">
        <ele>150.1</ele>
        <time>2021-08-11T11:30:36Z</time>
      </trkpt>
      <trkpt lat="47.54267" lon="3.78768">
        <ele>150.1</ele>
        <time>2021-08-11T11:30:54Z</time>
      </trkpt>
      <trkpt lat="47.54267" lon="3.78771">
        <ele>150.1</ele>
        <time>2021-08-11T11:31:03Z</time>
      </trkpt>
      <trkpt lat="47.54267" lon="3.78771">
        <ele>150.1</ele>
        <time>2021-08-11T11:31:05Z</time>
      </trkpt>
      <trkpt lat="47.54262" lon="3.78773">
        <ele>149.62</ele>
        <time>2021-08-11T11:31:08Z</time>
      </trkpt>
      <trkpt lat="47.5426" lon="3.78774">
        <ele>149.62</ele>
        <time>2021-08-11T11:31:09Z</time>
      </trkpt>
      <trkpt lat="47.54258" lon="3.78775">
        <ele>149.62</ele>
        <time>2021-08-11T11:31:10Z</time>
      </trkpt>
      <trkpt lat="47.5425" lon="3.7878">
        <ele>148.18</ele>
        <time>2021-08-11T11:31:13Z</time>
      </trkpt>
      <trkpt lat="47.54221" lon="3.78804">
        <ele>147.22</ele>
        <time>2021-08-11T11:31:21Z</time>
      </trkpt>
      <trkpt lat="47.54199" lon="3.78822">
        <ele>145.3</ele>
        <time>2021-08-11T11:31:25Z</time>
      </trkpt>
      <trkpt lat="47.54159" lon="3.78836">
        <ele>144.34</ele>
        <time>2021-08-11T11:31:31Z</time>
      </trkpt>
      <trkpt lat="47.54114" lon="3.78837">
        <ele>143.85</ele>
        <time>2021-08-11T11:31:38Z</time>
      </trkpt>
      <trkpt lat="47.54084" lon="3.78834">
        <ele>143.85</ele>
        <time>2021-08-11T11:31:44Z</time>
      </trkpt>
      <trkpt lat="47.54079" lon="3.78834">
        <ele>143.85</ele>
        <time>2021-08-11T11:31:45Z</time>
      </trkpt>
      <trkpt lat="47.54075" lon="3.78834">
        <ele>145.3</ele>
        <time>2021-08-11T11:31:46Z</time>
      </trkpt>
      <trkpt lat="47.54072" lon="3.78833">
        <ele>145.3</ele>
        <time>2021-08-11T11:31:47Z</time>
      </trkpt>
      <trkpt lat="47.54068" lon="3.78832">
        <ele>145.78</ele>
        <time>2021-08-11T11:31:48Z</time>
      </trkpt>
      <trkpt lat="47.54064" lon="3.78832">
        <ele>145.78</ele>
        <time>2021-08-11T11:31:49Z</time>
      </trkpt>
      <trkpt lat="47.54056" lon="3.78832">
        <ele>145.78</ele>
        <time>2021-08-11T11:31:52Z</time>
      </trkpt>
      <trkpt lat="47.54054" lon="3.78834">
        <ele>145.78</ele>
        <time>2021-08-11T11:31:53Z</time>
      </trkpt>
      <trkpt lat="47.54053" lon="3.78837">
        <ele>145.78</ele>
        <time>2021-08-11T11:31:54Z</time>
      </trkpt>
      <trkpt lat="47.54053" lon="3.78841">
        <ele>145.78</ele>
        <time>2021-08-11T11:31:55Z</time>
      </trkpt>
      <trkpt lat="47.54053" lon="3.78845">
        <ele>144.34</ele>
        <time>2021-08-11T11:31:56Z</time>
      </trkpt>
      <trkpt lat="47.54053" lon="3.78849">
        <ele>144.34</ele>
        <time>2021-08-11T11:31:57Z</time>
      </trkpt>
      <trkpt lat="47.54052" lon="3.78853">
        <ele>144.34</ele>
        <time>2021-08-11T11:31:58Z</time>
      </trkpt>
      <trkpt lat="47.54052" lon="3.78857">
        <ele>144.34</ele>
        <time>2021-08-11T11:31:59Z</time>
      </trkpt>
      <trkpt lat="47.54051" lon="3.78864">
        <ele>143.37</ele>
        <time>2021-08-11T11:32:00Z</time>
      </trkpt>
      <trkpt lat="47.5405" lon="3.78869">
        <ele>143.37</ele>
        <time>2021-08-11T11:32:01Z</time>
      </trkpt>
      <trkpt lat="47.54048" lon="3.78887">
        <ele>142.41</ele>
        <time>2021-08-11T11:32:04Z</time>
      </trkpt>
      <trkpt lat="47.54033" lon="3.78942">
        <ele>140.97</ele>
        <time>2021-08-11T11:32:12Z</time>
      </trkpt>
      <trkpt lat="47.54006" lon="3.79">
        <ele>140.97</ele>
        <time>2021-08-11T11:32:21Z</time>
      </trkpt>
      <trkpt lat="47.54" lon="3.79012">
        <ele>140.97</ele>
        <time>2021-08-11T11:32:23Z</time>
      </trkpt>
      <trkpt lat="47.53989" lon="3.79035">
        <ele>140.97</ele>
        <time>2021-08-11T11:32:27Z</time>
      </trkpt>
      <trkpt lat="47.53985" lon="3.7904">
        <ele>140.97</ele>
        <time>2021-08-11T11:32:28Z</time>
      </trkpt>
      <trkpt lat="47.53978" lon="3.79048">
        <ele>140.97</ele>
        <time>2021-08-11T11:32:30Z</time>
      </trkpt>
      <trkpt lat="47.53974" lon="3.7905">
        <ele>140.97</ele>
        <time>2021-08-11T11:32:31Z</time>
      </trkpt>
      <trkpt lat="47.53962" lon="3.79055">
        <ele>140.97</ele>
        <time>2021-08-11T11:32:34Z</time>
      </trkpt>
      <trkpt lat="47.53958" lon="3.79057">
        <ele>140.97</ele>
        <time>2021-08-11T11:32:35Z</time>
      </trkpt>
      <trkpt lat="47.53927" lon="3.79065">
        <ele>140.97</ele>
        <time>2021-08-11T11:32:43Z</time>
      </trkpt>
      <trkpt lat="47.53896" lon="3.79075">
        <ele>141.93</ele>
        <time>2021-08-11T11:32:51Z</time>
      </trkpt>
      <trkpt lat="47.53856" lon="3.79089">
        <ele>141.93</ele>
        <time>2021-08-11T11:33:01Z</time>
      </trkpt>
      <trkpt lat="47.53852" lon="3.79091">
        <ele>141.93</ele>
        <time>2021-08-11T11:33:02Z</time>
      </trkpt>
      <trkpt lat="47.53848" lon="3.79094">
        <ele>141.93</ele>
        <time>2021-08-11T11:33:03Z</time>
      </trkpt>
      <trkpt lat="47.53845" lon="3.79098">
        <ele>142.41</ele>
        <time>2021-08-11T11:33:04Z</time>
      </trkpt>
      <trkpt lat="47.53843" lon="3.79102">
        <ele>142.41</ele>
        <time>2021-08-11T11:33:05Z</time>
      </trkpt>
      <trkpt lat="47.53841" lon="3.79107">
        <ele>142.89</ele>
        <time>2021-08-11T11:33:06Z</time>
      </trkpt>
      <trkpt lat="47.5384" lon="3.79111">
        <ele>142.89</ele>
        <time>2021-08-11T11:33:07Z</time>
      </trkpt>
      <trkpt lat="47.53839" lon="3.79115">
        <ele>142.89</ele>
        <time>2021-08-11T11:33:08Z</time>
      </trkpt>
      <trkpt lat="47.53838" lon="3.79144">
        <ele>143.37</ele>
        <time>2021-08-11T11:33:14Z</time>
      </trkpt>
      <trkpt lat="47.53838" lon="3.79164">
        <ele>140.49</ele>
        <time>2021-08-11T11:33:18Z</time>
      </trkpt>
      <trkpt lat="47.53838" lon="3.7917">
        <ele>144.82</ele>
        <time>2021-08-11T11:33:19Z</time>
      </trkpt>
      <trkpt lat="47.53838" lon="3.79207">
        <ele>141.93</ele>
        <time>2021-08-11T11:33:26Z</time>
      </trkpt>
      <trkpt lat="47.53837" lon="3.79244">
        <ele>141.93</ele>
        <time>2021-08-11T11:33:33Z</time>
      </trkpt>
      <trkpt lat="47.53835" lon="3.79246">
        <ele>141.93</ele>
        <time>2021-08-11T11:33:34Z</time>
      </trkpt>
      <trkpt lat="47.53833" lon="3.79245">
        <ele>141.45</ele>
        <time>2021-08-11T11:33:35Z</time>
      </trkpt>
      <trkpt lat="47.53831" lon="3.79245">
        <ele>141.93</ele>
        <time>2021-08-11T11:33:36Z</time>
      </trkpt>
      <trkpt lat="47.53828" lon="3.79246">
        <ele>141.93</ele>
        <time>2021-08-11T11:33:37Z</time>
      </trkpt>
      <trkpt lat="47.53806" lon="3.79243">
        <ele>141.45</ele>
        <time>2021-08-11T11:33:44Z</time>
      </trkpt>
      <trkpt lat="47.53781" lon="3.7924">
        <ele>141.93</ele>
        <time>2021-08-11T11:33:53Z</time>
      </trkpt>
      <trkpt lat="47.53757" lon="3.79236">
        <ele>141.45</ele>
        <time>2021-08-11T11:34:02Z</time>
      </trkpt>
      <trkpt lat="47.53726" lon="3.79233">
        <ele>141.93</ele>
        <time>2021-08-11T11:34:11Z</time>
      </trkpt>
      <trkpt lat="47.53696" lon="3.79231">
        <ele>141.45</ele>
        <time>2021-08-11T11:34:19Z</time>
      </trkpt>
      <trkpt lat="47.53667" lon="3.79223">
        <ele>141.45</ele>
        <time>2021-08-11T11:34:27Z</time>
      </trkpt>
      <trkpt lat="47.5363" lon="3.79217">
        <ele>141.93</ele>
        <time>2021-08-11T11:34:37Z</time>
      </trkpt>
      <trkpt lat="47.53606" lon="3.79213">
        <ele>141.93</ele>
        <time>2021-08-11T11:34:44Z</time>
      </trkpt>
      <trkpt lat="47.53584" lon="3.7922">
        <ele>142.41</ele>
        <time>2021-08-11T11:34:51Z</time>
      </trkpt>
      <trkpt lat="47.53566" lon="3.79237">
        <ele>142.89</ele>
        <time>2021-08-11T11:34:57Z</time>
      </trkpt>
      <trkpt lat="47.53549" lon="3.79259">
        <ele>142.89</ele>
        <time>2021-08-11T11:35:03Z</time>
      </trkpt>
      <trkpt lat="47.53522" lon="3.79293">
        <ele>143.85</ele>
        <time>2021-08-11T11:35:13Z</time>
      </trkpt>
      <trkpt lat="47.53514" lon="3.79304">
        <ele>143.85</ele>
        <time>2021-08-11T11:35:17Z</time>
      </trkpt>
      <trkpt lat="47.53508" lon="3.79305">
        <ele>144.34</ele>
        <time>2021-08-11T11:35:23Z</time>
      </trkpt>
      <trkpt lat="47.53509" lon="3.79307">
        <ele>144.34</ele>
        <time>2021-08-11T11:35:38Z</time>
      </trkpt>
      <trkpt lat="47.53508" lon="3.79308">
        <ele>144.34</ele>
        <time>2021-08-11T11:35:57Z</time>
      </trkpt>
      <trkpt lat="47.53506" lon="3.79306">
        <ele>144.34</ele>
        <time>2021-08-11T11:36:12Z</time>
      </trkpt>
      <trkpt lat="47.53506" lon="3.79307">
        <ele>144.34</ele>
        <time>2021-08-11T11:36:26Z</time>
      </trkpt>
      <trkpt lat="47.53508" lon="3.79306">
        <ele>144.34</ele>
        <time>2021-08-11T11:36:37Z</time>
      </trkpt>
      <trkpt lat="47.53508" lon="3.79305">
        <ele>144.34</ele>
        <time>2021-08-11T11:36:46Z</time>
      </trkpt>
      <trkpt lat="47.53513" lon="3.79307">
        <ele>144.34</ele>
        <time>2021-08-11T11:36:59Z</time>
      </trkpt>
      <trkpt lat="47.53512" lon="3.79305">
        <ele>144.34</ele>
        <time>2021-08-11T11:37:17Z</time>
      </trkpt>
      <trkpt lat="47.53512" lon="3.79305">
        <ele>144.34</ele>
        <time>2021-08-11T11:37:37Z</time>
      </trkpt>
      <trkpt lat="47.53511" lon="3.79309">
        <ele>144.34</ele>
        <time>2021-08-11T11:37:47Z</time>
      </trkpt>
      <trkpt lat="47.53511" lon="3.79311">
        <ele>144.34</ele>
        <time>2021-08-11T11:38:04Z</time>
      </trkpt>
      <trkpt lat="47.53509" lon="3.79312">
        <ele>144.34</ele>
        <time>2021-08-11T11:38:05Z</time>
      </trkpt>
      <trkpt lat="47.53507" lon="3.79314">
        <ele>144.34</ele>
        <time>2021-08-11T11:38:06Z</time>
      </trkpt>
      <trkpt lat="47.53504" lon="3.79317">
        <ele>144.34</ele>
        <time>2021-08-11T11:38:07Z</time>
      </trkpt>
      <trkpt lat="47.53501" lon="3.79319">
        <ele>144.34</ele>
        <time>2021-08-11T11:38:08Z</time>
      </trkpt>
      <trkpt lat="47.53499" lon="3.79323">
        <ele>144.34</ele>
        <time>2021-08-11T11:38:09Z</time>
      </trkpt>
      <trkpt lat="47.53474" lon="3.79356">
        <ele>144.34</ele>
        <time>2021-08-11T11:38:18Z</time>
      </trkpt>
      <trkpt lat="47.53453" lon="3.7938">
        <ele>144.34</ele>
        <time>2021-08-11T11:38:25Z</time>
      </trkpt>
      <trkpt lat="47.53428" lon="3.79409">
        <ele>145.3</ele>
        <time>2021-08-11T11:38:34Z</time>
      </trkpt>
      <trkpt lat="47.53404" lon="3.7944">
        <ele>145.78</ele>
        <time>2021-08-11T11:38:43Z</time>
      </trkpt>
      <trkpt lat="47.53391" lon="3.79459">
        <ele>146.26</ele>
        <time>2021-08-11T11:38:49Z</time>
      </trkpt>
      <trkpt lat="47.53373" lon="3.79484">
        <ele>147.22</ele>
        <time>2021-08-11T11:38:57Z</time>
      </trkpt>
      <trkpt lat="47.53357" lon="3.79509">
        <ele>148.18</ele>
        <time>2021-08-11T11:39:05Z</time>
      </trkpt>
      <trkpt lat="47.53342" lon="3.79529">
        <ele>149.14</ele>
        <time>2021-08-11T11:39:13Z</time>
      </trkpt>
      <trkpt lat="47.53337" lon="3.7955">
        <ele>150.58</ele>
        <time>2021-08-11T11:39:20Z</time>
      </trkpt>
      <trkpt lat="47.53337" lon="3.79582">
        <ele>150.58</ele>
        <time>2021-08-11T11:39:28Z</time>
      </trkpt>
      <trkpt lat="47.5334" lon="3.79626">
        <ele>150.58</ele>
        <time>2021-08-11T11:39:37Z</time>
      </trkpt>
      <trkpt lat="47.53345" lon="3.79688">
        <ele>150.58</ele>
        <time>2021-08-11T11:39:49Z</time>
      </trkpt>
      <trkpt lat="47.53352" lon="3.7974">
        <ele>151.54</ele>
        <time>2021-08-11T11:39:59Z</time>
      </trkpt>
      <trkpt lat="47.5336" lon="3.79799">
        <ele>151.54</ele>
        <time>2021-08-11T11:40:11Z</time>
      </trkpt>
      <trkpt lat="47.53362" lon="3.79832">
        <ele>152.03</ele>
        <time>2021-08-11T11:40:18Z</time>
      </trkpt>
      <trkpt lat="47.53364" lon="3.79877">
        <ele>152.99</ele>
        <time>2021-08-11T11:40:27Z</time>
      </trkpt>
      <trkpt lat="47.53364" lon="3.79925">
        <ele>153.47</ele>
        <time>2021-08-11T11:40:37Z</time>
      </trkpt>
      <trkpt lat="47.53371" lon="3.79965">
        <ele>153.95</ele>
        <time>2021-08-11T11:40:46Z</time>
      </trkpt>
      <trkpt lat="47.53378" lon="3.79999">
        <ele>154.91</ele>
        <time>2021-08-11T11:40:54Z</time>
      </trkpt>
      <trkpt lat="47.53385" lon="3.80027">
        <ele>155.39</ele>
        <time>2021-08-11T11:41:01Z</time>
      </trkpt>
      <trkpt lat="47.53393" lon="3.80058">
        <ele>156.35</ele>
        <time>2021-08-11T11:41:09Z</time>
      </trkpt>
      <trkpt lat="47.53402" lon="3.80095">
        <ele>157.31</ele>
        <time>2021-08-11T11:41:18Z</time>
      </trkpt>
      <trkpt lat="47.53412" lon="3.80128">
        <ele>157.31</ele>
        <time>2021-08-11T11:41:27Z</time>
      </trkpt>
      <trkpt lat="47.53423" lon="3.80155">
        <ele>158.27</ele>
        <time>2021-08-11T11:41:35Z</time>
      </trkpt>
      <trkpt lat="47.53436" lon="3.80174">
        <ele>159.24</ele>
        <time>2021-08-11T11:41:42Z</time>
      </trkpt>
      <trkpt lat="47.53456" lon="3.80188">
        <ele>159.72</ele>
        <time>2021-08-11T11:41:49Z</time>
      </trkpt>
      <trkpt lat="47.5348" lon="3.80204">
        <ele>160.2</ele>
        <time>2021-08-11T11:41:58Z</time>
      </trkpt>
      <trkpt lat="47.535" lon="3.80214">
        <ele>160.68</ele>
        <time>2021-08-11T11:42:06Z</time>
      </trkpt>
      <trkpt lat="47.53526" lon="3.80226">
        <ele>161.16</ele>
        <time>2021-08-11T11:42:16Z</time>
      </trkpt>
      <trkpt lat="47.53549" lon="3.8024">
        <ele>162.12</ele>
        <time>2021-08-11T11:42:26Z</time>
      </trkpt>
      <trkpt lat="47.53564" lon="3.80267">
        <ele>162.6</ele>
        <time>2021-08-11T11:42:35Z</time>
      </trkpt>
      <trkpt lat="47.5357" lon="3.80291">
        <ele>163.56</ele>
        <time>2021-08-11T11:42:42Z</time>
      </trkpt>
      <trkpt lat="47.53575" lon="3.80319">
        <ele>164.52</ele>
        <time>2021-08-11T11:42:50Z</time>
      </trkpt>
      <trkpt lat="47.53582" lon="3.80336">
        <ele>165.48</ele>
        <time>2021-08-11T11:42:57Z</time>
      </trkpt>
      <trkpt lat="47.53593" lon="3.8035">
        <ele>167.41</ele>
        <time>2021-08-11T11:43:05Z</time>
      </trkpt>
      <trkpt lat="47.53606" lon="3.80359">
        <ele>168.85</ele>
        <time>2021-08-11T11:43:14Z</time>
      </trkpt>
      <trkpt lat="47.53616" lon="3.80363">
        <ele>170.29</ele>
        <time>2021-08-11T11:43:22Z</time>
      </trkpt>
      <trkpt lat="47.53619" lon="3.80364">
        <ele>170.29</ele>
        <time>2021-08-11T11:43:24Z</time>
      </trkpt>
      <trkpt lat="47.53621" lon="3.80365">
        <ele>170.29</ele>
        <time>2021-08-11T11:43:25Z</time>
      </trkpt>
      <trkpt lat="47.53622" lon="3.80365">
        <ele>170.29</ele>
        <time>2021-08-11T11:43:26Z</time>
      </trkpt>
      <trkpt lat="47.53624" lon="3.80365">
        <ele>170.77</ele>
        <time>2021-08-11T11:43:27Z</time>
      </trkpt>
      <trkpt lat="47.53625" lon="3.80366">
        <ele>170.77</ele>
        <time>2021-08-11T11:43:28Z</time>
      </trkpt>
      <trkpt lat="47.53631" lon="3.80367">
        <ele>171.73</ele>
        <time>2021-08-11T11:43:32Z</time>
      </trkpt>
      <trkpt lat="47.53632" lon="3.80367">
        <ele>171.25</ele>
        <time>2021-08-11T11:43:33Z</time>
      </trkpt>
      <trkpt lat="47.53646" lon="3.80371">
        <ele>172.21</ele>
        <time>2021-08-11T11:43:42Z</time>
      </trkpt>
      <trkpt lat="47.53659" lon="3.80375">
        <ele>173.66</ele>
        <time>2021-08-11T11:43:51Z</time>
      </trkpt>
      <trkpt lat="47.53675" lon="3.80378">
        <ele>174.14</ele>
        <time>2021-08-11T11:44:00Z</time>
      </trkpt>
      <trkpt lat="47.53692" lon="3.80382">
        <ele>175.58</ele>
        <time>2021-08-11T11:44:10Z</time>
      </trkpt>
      <trkpt lat="47.53706" lon="3.80383">
        <ele>177.02</ele>
        <time>2021-08-11T11:44:18Z</time>
      </trkpt>
      <trkpt lat="47.5372" lon="3.80383">
        <ele>177.98</ele>
        <time>2021-08-11T11:44:27Z</time>
      </trkpt>
      <trkpt lat="47.5373" lon="3.80386">
        <ele>178.94</ele>
        <time>2021-08-11T11:44:33Z</time>
      </trkpt>
      <trkpt lat="47.53743" lon="3.80388">
        <ele>180.38</ele>
        <time>2021-08-11T11:44:41Z</time>
      </trkpt>
      <trkpt lat="47.53757" lon="3.80397">
        <ele>181.35</ele>
        <time>2021-08-11T11:44:49Z</time>
      </trkpt>
      <trkpt lat="47.53769" lon="3.80407">
        <ele>182.79</ele>
        <time>2021-08-11T11:44:57Z</time>
      </trkpt>
      <trkpt lat="47.5378" lon="3.80415">
        <ele>183.75</ele>
        <time>2021-08-11T11:45:04Z</time>
      </trkpt>
      <trkpt lat="47.53788" lon="3.80425">
        <ele>184.23</ele>
        <time>2021-08-11T11:45:11Z</time>
      </trkpt>
      <trkpt lat="47.53797" lon="3.80438">
        <ele>186.63</ele>
        <time>2021-08-11T11:45:20Z</time>
      </trkpt>
      <trkpt lat="47.53801" lon="3.80445">
        <ele>186.63</ele>
        <time>2021-08-11T11:45:25Z</time>
      </trkpt>
      <trkpt lat="47.53802" lon="3.80446">
        <ele>187.11</ele>
        <time>2021-08-11T11:45:26Z</time>
      </trkpt>
      <trkpt lat="47.53803" lon="3.80448">
        <ele>188.08</ele>
        <time>2021-08-11T11:45:27Z</time>
      </trkpt>
      <trkpt lat="47.53804" lon="3.8045">
        <ele>188.08</ele>
        <time>2021-08-11T11:45:28Z</time>
      </trkpt>
      <trkpt lat="47.53805" lon="3.80451">
        <ele>188.08</ele>
        <time>2021-08-11T11:45:29Z</time>
      </trkpt>
      <trkpt lat="47.53806" lon="3.80453">
        <ele>188.08</ele>
        <time>2021-08-11T11:45:30Z</time>
      </trkpt>
      <trkpt lat="47.53807" lon="3.80455">
        <ele>188.08</ele>
        <time>2021-08-11T11:45:31Z</time>
      </trkpt>
      <trkpt lat="47.53808" lon="3.80457">
        <ele>188.08</ele>
        <time>2021-08-11T11:45:32Z</time>
      </trkpt>
      <trkpt lat="47.5381" lon="3.80461">
        <ele>188.56</ele>
        <time>2021-08-11T11:45:34Z</time>
      </trkpt>
      <trkpt lat="47.53818" lon="3.80476">
        <ele>189.52</ele>
        <time>2021-08-11T11:45:41Z</time>
      </trkpt>
      <trkpt lat="47.53825" lon="3.8049">
        <ele>190.96</ele>
        <time>2021-08-11T11:45:49Z</time>
      </trkpt>
      <trkpt lat="47.53835" lon="3.8051">
        <ele>191.92</ele>
        <time>2021-08-11T11:45:59Z</time>
      </trkpt>
      <trkpt lat="47.53835" lon="3.80512">
        <ele>192.4</ele>
        <time>2021-08-11T11:46:00Z</time>
      </trkpt>
      <trkpt lat="47.53836" lon="3.80514">
        <ele>192.4</ele>
        <time>2021-08-11T11:46:01Z</time>
      </trkpt>
      <trkpt lat="47.53845" lon="3.80533">
        <ele>194.32</ele>
        <time>2021-08-11T11:46:11Z</time>
      </trkpt>
      <trkpt lat="47.5385" lon="3.80544">
        <ele>194.8</ele>
        <time>2021-08-11T11:46:17Z</time>
      </trkpt>
      <trkpt lat="47.53852" lon="3.80547">
        <ele>195.28</ele>
        <time>2021-08-11T11:46:19Z</time>
      </trkpt>
      <trkpt lat="47.53858" lon="3.80558">
        <ele>196.25</ele>
        <time>2021-08-11T11:46:26Z</time>
      </trkpt>
      <trkpt lat="47.53866" lon="3.80573">
        <ele>197.21</ele>
        <time>2021-08-11T11:46:35Z</time>
      </trkpt>
      <trkpt lat="47.53874" lon="3.80584">
        <ele>198.17</ele>
        <time>2021-08-11T11:46:42Z</time>
      </trkpt>
      <trkpt lat="47.5388" lon="3.80594">
        <ele>199.61</ele>
        <time>2021-08-11T11:46:49Z</time>
      </trkpt>
      <trkpt lat="47.5388" lon="3.80596">
        <ele>199.61</ele>
        <time>2021-08-11T11:46:50Z</time>
      </trkpt>
      <trkpt lat="47.53888" lon="3.80612">
        <ele>201.53</ele>
        <time>2021-08-11T11:46:59Z</time>
      </trkpt>
      <trkpt lat="47.53896" lon="3.80627">
        <ele>202.49</ele>
        <time>2021-08-11T11:47:07Z</time>
      </trkpt>
      <trkpt lat="47.53899" lon="3.80636">
        <ele>203.46</ele>
        <time>2021-08-11T11:47:12Z</time>
      </trkpt>
      <trkpt lat="47.539" lon="3.80637">
        <ele>203.46</ele>
        <time>2021-08-11T11:47:13Z</time>
      </trkpt>
      <trkpt lat="47.53901" lon="3.80639">
        <ele>203.46</ele>
        <time>2021-08-11T11:47:14Z</time>
      </trkpt>
      <trkpt lat="47.53902" lon="3.8064">
        <ele>203.94</ele>
        <time>2021-08-11T11:47:15Z</time>
      </trkpt>
      <trkpt lat="47.53903" lon="3.80642">
        <ele>203.94</ele>
        <time>2021-08-11T11:47:16Z</time>
      </trkpt>
      <trkpt lat="47.53909" lon="3.80653">
        <ele>204.9</ele>
        <time>2021-08-11T11:47:24Z</time>
      </trkpt>
      <trkpt lat="47.53913" lon="3.80662">
        <ele>205.38</ele>
        <time>2021-08-11T11:47:29Z</time>
      </trkpt>
      <trkpt lat="47.53914" lon="3.80663">
        <ele>206.34</ele>
        <time>2021-08-11T11:47:30Z</time>
      </trkpt>
      <trkpt lat="47.53922" lon="3.80679">
        <ele>207.3</ele>
        <time>2021-08-11T11:47:40Z</time>
      </trkpt>
      <trkpt lat="47.53924" lon="3.80682">
        <ele>207.78</ele>
        <time>2021-08-11T11:47:42Z</time>
      </trkpt>
      <trkpt lat="47.53925" lon="3.80683">
        <ele>207.78</ele>
        <time>2021-08-11T11:47:43Z</time>
      </trkpt>
      <trkpt lat="47.53926" lon="3.80685">
        <ele>208.26</ele>
        <time>2021-08-11T11:47:44Z</time>
      </trkpt>
      <trkpt lat="47.53926" lon="3.80687">
        <ele>208.26</ele>
        <time>2021-08-11T11:47:45Z</time>
      </trkpt>
      <trkpt lat="47.53927" lon="3.80688">
        <ele>208.26</ele>
        <time>2021-08-11T11:47:46Z</time>
      </trkpt>
      <trkpt lat="47.53934" lon="3.80702">
        <ele>209.7</ele>
        <time>2021-08-11T11:47:55Z</time>
      </trkpt>
      <trkpt lat="47.5394" lon="3.80715">
        <ele>211.15</ele>
        <time>2021-08-11T11:48:03Z</time>
      </trkpt>
      <trkpt lat="47.53945" lon="3.80728">
        <ele>212.59</ele>
        <time>2021-08-11T11:48:11Z</time>
      </trkpt>
      <trkpt lat="47.53946" lon="3.80729">
        <ele>212.59</ele>
        <time>2021-08-11T11:48:12Z</time>
      </trkpt>
      <trkpt lat="47.53947" lon="3.80731">
        <ele>212.59</ele>
        <time>2021-08-11T11:48:13Z</time>
      </trkpt>
      <trkpt lat="47.53947" lon="3.80734">
        <ele>212.59</ele>
        <time>2021-08-11T11:48:14Z</time>
      </trkpt>
      <trkpt lat="47.53948" lon="3.80735">
        <ele>213.07</ele>
        <time>2021-08-11T11:48:15Z</time>
      </trkpt>
      <trkpt lat="47.53948" lon="3.80737">
        <ele>213.07</ele>
        <time>2021-08-11T11:48:16Z</time>
      </trkpt>
      <trkpt lat="47.53952" lon="3.80749">
        <ele>214.51</ele>
        <time>2021-08-11T11:48:23Z</time>
      </trkpt>
      <trkpt lat="47.53953" lon="3.80751">
        <ele>214.51</ele>
        <time>2021-08-11T11:48:24Z</time>
      </trkpt>
      <trkpt lat="47.53958" lon="3.80767">
        <ele>215.47</ele>
        <time>2021-08-11T11:48:33Z</time>
      </trkpt>
      <trkpt lat="47.53966" lon="3.80785">
        <ele>216.91</ele>
        <time>2021-08-11T11:48:43Z</time>
      </trkpt>
      <trkpt lat="47.53972" lon="3.80802">
        <ele>218.84</ele>
        <time>2021-08-11T11:48:53Z</time>
      </trkpt>
      <trkpt lat="47.53977" lon="3.80813">
        <ele>219.32</ele>
        <time>2021-08-11T11:48:59Z</time>
      </trkpt>
      <trkpt lat="47.53978" lon="3.80814">
        <ele>219.8</ele>
        <time>2021-08-11T11:49:00Z</time>
      </trkpt>
      <trkpt lat="47.53978" lon="3.80816">
        <ele>219.8</ele>
        <time>2021-08-11T11:49:01Z</time>
      </trkpt>
      <trkpt lat="47.53979" lon="3.80817">
        <ele>219.8</ele>
        <time>2021-08-11T11:49:02Z</time>
      </trkpt>
      <trkpt lat="47.53979" lon="3.80819">
        <ele>219.8</ele>
        <time>2021-08-11T11:49:03Z</time>
      </trkpt>
      <trkpt lat="47.5398" lon="3.80821">
        <ele>219.8</ele>
        <time>2021-08-11T11:49:04Z</time>
      </trkpt>
      <trkpt lat="47.53985" lon="3.80837">
        <ele>222.2</ele>
        <time>2021-08-11T11:49:13Z</time>
      </trkpt>
      <trkpt lat="47.53988" lon="3.80845">
        <ele>222.68</ele>
        <time>2021-08-11T11:49:18Z</time>
      </trkpt>
      <trkpt lat="47.5399" lon="3.80848">
        <ele>222.68</ele>
        <time>2021-08-11T11:49:20Z</time>
      </trkpt>
      <trkpt lat="47.53991" lon="3.80849">
        <ele>222.68</ele>
        <time>2021-08-11T11:49:21Z</time>
      </trkpt>
      <trkpt lat="47.54001" lon="3.80862">
        <ele>224.61</ele>
        <time>2021-08-11T11:49:30Z</time>
      </trkpt>
      <trkpt lat="47.54014" lon="3.80872">
        <ele>225.57</ele>
        <time>2021-08-11T11:49:38Z</time>
      </trkpt>
      <trkpt lat="47.54023" lon="3.80884">
        <ele>226.05</ele>
        <time>2021-08-11T11:49:45Z</time>
      </trkpt>
      <trkpt lat="47.54025" lon="3.80899">
        <ele>226.05</ele>
        <time>2021-08-11T11:49:51Z</time>
      </trkpt>
      <trkpt lat="47.54021" lon="3.80927">
        <ele>226.53</ele>
        <time>2021-08-11T11:50:00Z</time>
      </trkpt>
      <trkpt lat="47.54016" lon="3.80945">
        <ele>227.01</ele>
        <time>2021-08-11T11:50:07Z</time>
      </trkpt>
      <trkpt lat="47.54009" lon="3.80968">
        <ele>227.49</ele>
        <time>2021-08-11T11:50:16Z</time>
      </trkpt>
      <trkpt lat="47.54002" lon="3.80998">
        <ele>227.97</ele>
        <time>2021-08-11T11:50:25Z</time>
      </trkpt>
      <trkpt lat="47.53997" lon="3.81022">
        <ele>227.97</ele>
        <time>2021-08-11T11:50:32Z</time>
      </trkpt>
      <trkpt lat="47.53992" lon="3.81051">
        <ele>228.45</ele>
        <time>2021-08-11T11:50:39Z</time>
      </trkpt>
      <trkpt lat="47.53987" lon="3.81089">
        <ele>228.93</ele>
        <time>2021-08-11T11:50:48Z</time>
      </trkpt>
      <trkpt lat="47.53981" lon="3.81118">
        <ele>229.89</ele>
        <time>2021-08-11T11:50:55Z</time>
      </trkpt>
      <trkpt lat="47.53972" lon="3.81153">
        <ele>230.37</ele>
        <time>2021-08-11T11:51:05Z</time>
      </trkpt>
      <trkpt lat="47.53964" lon="3.81181">
        <ele>230.85</ele>
        <time>2021-08-11T11:51:13Z</time>
      </trkpt>
      <trkpt lat="47.53956" lon="3.81213">
        <ele>231.81</ele>
        <time>2021-08-11T11:51:21Z</time>
      </trkpt>
      <trkpt lat="47.53951" lon="3.8124">
        <ele>232.3</ele>
        <time>2021-08-11T11:51:29Z</time>
      </trkpt>
      <trkpt lat="47.53943" lon="3.81274">
        <ele>233.74</ele>
        <time>2021-08-11T11:51:39Z</time>
      </trkpt>
      <trkpt lat="47.53936" lon="3.813">
        <ele>233.74</ele>
        <time>2021-08-11T11:51:47Z</time>
      </trkpt>
      <trkpt lat="47.53933" lon="3.81305">
        <ele>234.22</ele>
        <time>2021-08-11T11:51:49Z</time>
      </trkpt>
      <trkpt lat="47.53933" lon="3.81309">
        <ele>234.22</ele>
        <time>2021-08-11T11:51:50Z</time>
      </trkpt>
      <trkpt lat="47.53926" lon="3.81341">
        <ele>234.7</ele>
        <time>2021-08-11T11:51:58Z</time>
      </trkpt>
      <trkpt lat="47.53918" lon="3.81372">
        <ele>235.18</ele>
        <time>2021-08-11T11:52:06Z</time>
      </trkpt>
      <trkpt lat="47.53909" lon="3.81416">
        <ele>235.66</ele>
        <time>2021-08-11T11:52:17Z</time>
      </trkpt>
      <trkpt lat="47.53904" lon="3.81455">
        <ele>236.14</ele>
        <time>2021-08-11T11:52:27Z</time>
      </trkpt>
      <trkpt lat="47.53901" lon="3.81492">
        <ele>236.14</ele>
        <time>2021-08-11T11:52:36Z</time>
      </trkpt>
      <trkpt lat="47.53897" lon="3.8153">
        <ele>236.14</ele>
        <time>2021-08-11T11:52:45Z</time>
      </trkpt>
      <trkpt lat="47.53892" lon="3.81563">
        <ele>236.14</ele>
        <time>2021-08-11T11:52:53Z</time>
      </trkpt>
      <trkpt lat="47.53885" lon="3.816">
        <ele>236.62</ele>
        <time>2021-08-11T11:53:01Z</time>
      </trkpt>
      <trkpt lat="47.53875" lon="3.81639">
        <ele>236.62</ele>
        <time>2021-08-11T11:53:09Z</time>
      </trkpt>
      <trkpt lat="47.5387" lon="3.81667">
        <ele>237.1</ele>
        <time>2021-08-11T11:53:15Z</time>
      </trkpt>
      <trkpt lat="47.53866" lon="3.81675">
        <ele>237.1</ele>
        <time>2021-08-11T11:53:17Z</time>
      </trkpt>
      <trkpt lat="47.53863" lon="3.81679">
        <ele>237.1</ele>
        <time>2021-08-11T11:53:18Z</time>
      </trkpt>
      <trkpt lat="47.53861" lon="3.81682">
        <ele>237.1</ele>
        <time>2021-08-11T11:53:19Z</time>
      </trkpt>
      <trkpt lat="47.53858" lon="3.81685">
        <ele>237.1</ele>
        <time>2021-08-11T11:53:20Z</time>
      </trkpt>
      <trkpt lat="47.53856" lon="3.81689">
        <ele>237.1</ele>
        <time>2021-08-11T11:53:21Z</time>
      </trkpt>
      <trkpt lat="47.53855" lon="3.81692">
        <ele>237.1</ele>
        <time>2021-08-11T11:53:22Z</time>
      </trkpt>
      <trkpt lat="47.53854" lon="3.81696">
        <ele>237.58</ele>
        <time>2021-08-11T11:53:23Z</time>
      </trkpt>
      <trkpt lat="47.53853" lon="3.817">
        <ele>237.58</ele>
        <time>2021-08-11T11:53:24Z</time>
      </trkpt>
      <trkpt lat="47.53852" lon="3.81703">
        <ele>237.58</ele>
        <time>2021-08-11T11:53:25Z</time>
      </trkpt>
      <trkpt lat="47.53852" lon="3.81706">
        <ele>237.58</ele>
        <time>2021-08-11T11:53:26Z</time>
      </trkpt>
      <trkpt lat="47.53851" lon="3.8171">
        <ele>237.58</ele>
        <time>2021-08-11T11:53:27Z</time>
      </trkpt>
      <trkpt lat="47.53851" lon="3.81715">
        <ele>237.58</ele>
        <time>2021-08-11T11:53:28Z</time>
      </trkpt>
      <trkpt lat="47.5385" lon="3.81719">
        <ele>237.58</ele>
        <time>2021-08-11T11:53:29Z</time>
      </trkpt>
      <trkpt lat="47.5385" lon="3.81724">
        <ele>238.06</ele>
        <time>2021-08-11T11:53:30Z</time>
      </trkpt>
      <trkpt lat="47.53849" lon="3.81754">
        <ele>239.02</ele>
        <time>2021-08-11T11:53:37Z</time>
      </trkpt>
      <trkpt lat="47.53847" lon="3.81786">
        <ele>239.51</ele>
        <time>2021-08-11T11:53:45Z</time>
      </trkpt>
      <trkpt lat="47.53845" lon="3.81815">
        <ele>239.99</ele>
        <time>2021-08-11T11:53:52Z</time>
      </trkpt>
      <trkpt lat="47.53841" lon="3.81853">
        <ele>239.99</ele>
        <time>2021-08-11T11:54:01Z</time>
      </trkpt>
      <trkpt lat="47.53839" lon="3.81882">
        <ele>240.47</ele>
        <time>2021-08-11T11:54:07Z</time>
      </trkpt>
      <trkpt lat="47.53834" lon="3.8192">
        <ele>240.47</ele>
        <time>2021-08-11T11:54:15Z</time>
      </trkpt>
      <trkpt lat="47.53832" lon="3.81952">
        <ele>241.43</ele>
        <time>2021-08-11T11:54:22Z</time>
      </trkpt>
      <trkpt lat="47.5383" lon="3.81989">
        <ele>241.43</ele>
        <time>2021-08-11T11:54:30Z</time>
      </trkpt>
      <trkpt lat="47.53827" lon="3.82024">
        <ele>242.39</ele>
        <time>2021-08-11T11:54:38Z</time>
      </trkpt>
      <trkpt lat="47.53819" lon="3.82067">
        <ele>242.87</ele>
        <time>2021-08-11T11:54:48Z</time>
      </trkpt>
      <trkpt lat="47.53809" lon="3.82106">
        <ele>243.35</ele>
        <time>2021-08-11T11:54:57Z</time>
      </trkpt>
      <trkpt lat="47.53802" lon="3.8214">
        <ele>244.31</ele>
        <time>2021-08-11T11:55:06Z</time>
      </trkpt>
      <trkpt lat="47.53798" lon="3.82175">
        <ele>245.75</ele>
        <time>2021-08-11T11:55:15Z</time>
      </trkpt>
      <trkpt lat="47.53793" lon="3.82213">
        <ele>246.23</ele>
        <time>2021-08-11T11:55:25Z</time>
      </trkpt>
      <trkpt lat="47.53785" lon="3.82235">
        <ele>247.2</ele>
        <time>2021-08-11T11:55:32Z</time>
      </trkpt>
      <trkpt lat="47.53773" lon="3.82256">
        <ele>247.2</ele>
        <time>2021-08-11T11:55:39Z</time>
      </trkpt>
      <trkpt lat="47.53759" lon="3.82283">
        <ele>248.16</ele>
        <time>2021-08-11T11:55:48Z</time>
      </trkpt>
      <trkpt lat="47.53748" lon="3.82313">
        <ele>248.64</ele>
        <time>2021-08-11T11:55:57Z</time>
      </trkpt>
      <trkpt lat="47.53741" lon="3.82353">
        <ele>249.6</ele>
        <time>2021-08-11T11:56:07Z</time>
      </trkpt>
      <trkpt lat="47.53739" lon="3.82392">
        <ele>250.56</ele>
        <time>2021-08-11T11:56:16Z</time>
      </trkpt>
      <trkpt lat="47.53737" lon="3.82436">
        <ele>251.52</ele>
        <time>2021-08-11T11:56:26Z</time>
      </trkpt>
      <trkpt lat="47.53734" lon="3.82473">
        <ele>252</ele>
        <time>2021-08-11T11:56:34Z</time>
      </trkpt>
      <trkpt lat="47.53731" lon="3.82502">
        <ele>252.96</ele>
        <time>2021-08-11T11:56:40Z</time>
      </trkpt>
      <trkpt lat="47.53728" lon="3.82533">
        <ele>252.48</ele>
        <time>2021-08-11T11:56:47Z</time>
      </trkpt>
      <trkpt lat="47.53727" lon="3.82574">
        <ele>253.44</ele>
        <time>2021-08-11T11:56:56Z</time>
      </trkpt>
      <trkpt lat="47.53725" lon="3.82609">
        <ele>253.93</ele>
        <time>2021-08-11T11:57:03Z</time>
      </trkpt>
      <trkpt lat="47.5372" lon="3.82649">
        <ele>253.44</ele>
        <time>2021-08-11T11:57:11Z</time>
      </trkpt>
      <trkpt lat="47.53714" lon="3.82695">
        <ele>253.44</ele>
        <time>2021-08-11T11:57:20Z</time>
      </trkpt>
      <trkpt lat="47.53703" lon="3.82753">
        <ele>252.48</ele>
        <time>2021-08-11T11:57:30Z</time>
      </trkpt>
      <trkpt lat="47.53694" lon="3.82811">
        <ele>251.04</ele>
        <time>2021-08-11T11:57:38Z</time>
      </trkpt>
      <trkpt lat="47.53692" lon="3.82858">
        <ele>251.04</ele>
        <time>2021-08-11T11:57:44Z</time>
      </trkpt>
      <trkpt lat="47.53698" lon="3.82891">
        <ele>250.56</ele>
        <time>2021-08-11T11:57:49Z</time>
      </trkpt>
      <trkpt lat="47.53702" lon="3.82906">
        <ele>250.08</ele>
        <time>2021-08-11T11:57:51Z</time>
      </trkpt>
      <trkpt lat="47.53712" lon="3.82932">
        <ele>251.04</ele>
        <time>2021-08-11T11:57:56Z</time>
      </trkpt>
      <trkpt lat="47.53734" lon="3.82994">
        <ele>251.04</ele>
        <time>2021-08-11T11:58:07Z</time>
      </trkpt>
      <trkpt lat="47.53746" lon="3.83041">
        <ele>251.52</ele>
        <time>2021-08-11T11:58:15Z</time>
      </trkpt>
      <trkpt lat="47.53757" lon="3.83087">
        <ele>251.52</ele>
        <time>2021-08-11T11:58:23Z</time>
      </trkpt>
      <trkpt lat="47.5376" lon="3.83104">
        <ele>252.96</ele>
        <time>2021-08-11T11:58:26Z</time>
      </trkpt>
      <trkpt lat="47.53767" lon="3.83158">
        <ele>252.96</ele>
        <time>2021-08-11T11:58:36Z</time>
      </trkpt>
      <trkpt lat="47.53771" lon="3.83207">
        <ele>252.96</ele>
        <time>2021-08-11T11:58:45Z</time>
      </trkpt>
      <trkpt lat="47.53775" lon="3.83271">
        <ele>253.44</ele>
        <time>2021-08-11T11:58:56Z</time>
      </trkpt>
      <trkpt lat="47.53775" lon="3.83322">
        <ele>253.93</ele>
        <time>2021-08-11T11:59:05Z</time>
      </trkpt>
      <trkpt lat="47.53772" lon="3.83375">
        <ele>254.41</ele>
        <time>2021-08-11T11:59:14Z</time>
      </trkpt>
      <trkpt lat="47.53773" lon="3.83432">
        <ele>254.89</ele>
        <time>2021-08-11T11:59:23Z</time>
      </trkpt>
      <trkpt lat="47.53773" lon="3.83438">
        <ele>254.89</ele>
        <time>2021-08-11T11:59:24Z</time>
      </trkpt>
      <trkpt lat="47.53774" lon="3.83494">
        <ele>255.37</ele>
        <time>2021-08-11T11:59:33Z</time>
      </trkpt>
      <trkpt lat="47.53774" lon="3.83501">
        <ele>255.37</ele>
        <time>2021-08-11T11:59:34Z</time>
      </trkpt>
      <trkpt lat="47.53775" lon="3.83527">
        <ele>255.37</ele>
        <time>2021-08-11T11:59:38Z</time>
      </trkpt>
      <trkpt lat="47.53774" lon="3.83534">
        <ele>255.37</ele>
        <time>2021-08-11T11:59:39Z</time>
      </trkpt>
      <trkpt lat="47.53774" lon="3.83555">
        <ele>255.37</ele>
        <time>2021-08-11T11:59:42Z</time>
      </trkpt>
      <trkpt lat="47.53775" lon="3.83612">
        <ele>255.85</ele>
        <time>2021-08-11T11:59:51Z</time>
      </trkpt>
      <trkpt lat="47.53775" lon="3.83618">
        <ele>255.85</ele>
        <time>2021-08-11T11:59:52Z</time>
      </trkpt>
      <trkpt lat="47.53775" lon="3.83624">
        <ele>255.85</ele>
        <time>2021-08-11T11:59:53Z</time>
      </trkpt>
      <trkpt lat="47.53774" lon="3.8367">
        <ele>256.33</ele>
        <time>2021-08-11T12:00:01Z</time>
      </trkpt>
      <trkpt lat="47.53774" lon="3.83715">
        <ele>257.77</ele>
        <time>2021-08-11T12:00:10Z</time>
      </trkpt>
      <trkpt lat="47.53774" lon="3.83748">
        <ele>259.21</ele>
        <time>2021-08-11T12:00:18Z</time>
      </trkpt>
      <trkpt lat="47.53778" lon="3.8378">
        <ele>260.17</ele>
        <time>2021-08-11T12:00:27Z</time>
      </trkpt>
      <trkpt lat="47.53782" lon="3.83798">
        <ele>261.14</ele>
        <time>2021-08-11T12:00:33Z</time>
      </trkpt>
      <trkpt lat="47.53786" lon="3.8382">
        <ele>262.1</ele>
        <time>2021-08-11T12:00:41Z</time>
      </trkpt>
      <trkpt lat="47.53788" lon="3.83842">
        <ele>263.06</ele>
        <time>2021-08-11T12:00:48Z</time>
      </trkpt>
      <trkpt lat="47.53789" lon="3.83868">
        <ele>264.02</ele>
        <time>2021-08-11T12:00:57Z</time>
      </trkpt>
      <trkpt lat="47.53788" lon="3.83891">
        <ele>264.98</ele>
        <time>2021-08-11T12:01:05Z</time>
      </trkpt>
      <trkpt lat="47.53785" lon="3.83917">
        <ele>265.94</ele>
        <time>2021-08-11T12:01:13Z</time>
      </trkpt>
      <trkpt lat="47.53779" lon="3.83938">
        <ele>266.42</ele>
        <time>2021-08-11T12:01:20Z</time>
      </trkpt>
      <trkpt lat="47.53766" lon="3.8397">
        <ele>266.42</ele>
        <time>2021-08-11T12:01:29Z</time>
      </trkpt>
      <trkpt lat="47.53754" lon="3.83999">
        <ele>266.42</ele>
        <time>2021-08-11T12:01:36Z</time>
      </trkpt>
      <trkpt lat="47.53742" lon="3.84043">
        <ele>264.98</ele>
        <time>2021-08-11T12:01:44Z</time>
      </trkpt>
      <trkpt lat="47.5374" lon="3.8405">
        <ele>264.98</ele>
        <time>2021-08-11T12:01:45Z</time>
      </trkpt>
      <trkpt lat="47.53738" lon="3.84062">
        <ele>264.98</ele>
        <time>2021-08-11T12:01:47Z</time>
      </trkpt>
      <trkpt lat="47.53722" lon="3.84112">
        <ele>263.06</ele>
        <time>2021-08-11T12:01:54Z</time>
      </trkpt>
      <trkpt lat="47.53713" lon="3.84186">
        <ele>260.17</ele>
        <time>2021-08-11T12:02:02Z</time>
      </trkpt>
      <trkpt lat="47.53707" lon="3.84215">
        <ele>258.25</ele>
        <time>2021-08-11T12:02:05Z</time>
      </trkpt>
      <trkpt lat="47.53704" lon="3.84224">
        <ele>257.29</ele>
        <time>2021-08-11T12:02:06Z</time>
      </trkpt>
      <trkpt lat="47.5369" lon="3.8426">
        <ele>255.37</ele>
        <time>2021-08-11T12:02:10Z</time>
      </trkpt>
      <trkpt lat="47.53676" lon="3.84295">
        <ele>252</ele>
        <time>2021-08-11T12:02:14Z</time>
      </trkpt>
      <trkpt lat="47.53669" lon="3.84311">
        <ele>251.04</ele>
        <time>2021-08-11T12:02:16Z</time>
      </trkpt>
      <trkpt lat="47.53659" lon="3.84334">
        <ele>248.64</ele>
        <time>2021-08-11T12:02:19Z</time>
      </trkpt>
      <trkpt lat="47.53656" lon="3.84341">
        <ele>247.68</ele>
        <time>2021-08-11T12:02:20Z</time>
      </trkpt>
      <trkpt lat="47.53654" lon="3.84347">
        <ele>247.2</ele>
        <time>2021-08-11T12:02:21Z</time>
      </trkpt>
      <trkpt lat="47.53654" lon="3.84353">
        <ele>247.2</ele>
        <time>2021-08-11T12:02:22Z</time>
      </trkpt>
      <trkpt lat="47.53654" lon="3.8436">
        <ele>246.23</ele>
        <time>2021-08-11T12:02:23Z</time>
      </trkpt>
      <trkpt lat="47.53656" lon="3.84366">
        <ele>246.23</ele>
        <time>2021-08-11T12:02:24Z</time>
      </trkpt>
      <trkpt lat="47.53658" lon="3.84372">
        <ele>245.27</ele>
        <time>2021-08-11T12:02:25Z</time>
      </trkpt>
      <trkpt lat="47.5366" lon="3.84379">
        <ele>244.79</ele>
        <time>2021-08-11T12:02:26Z</time>
      </trkpt>
      <trkpt lat="47.53661" lon="3.84385">
        <ele>244.79</ele>
        <time>2021-08-11T12:02:27Z</time>
      </trkpt>
      <trkpt lat="47.53661" lon="3.84391">
        <ele>244.31</ele>
        <time>2021-08-11T12:02:28Z</time>
      </trkpt>
      <trkpt lat="47.53659" lon="3.84397">
        <ele>243.83</ele>
        <time>2021-08-11T12:02:29Z</time>
      </trkpt>
      <trkpt lat="47.53656" lon="3.84402">
        <ele>242.87</ele>
        <time>2021-08-11T12:02:30Z</time>
      </trkpt>
      <trkpt lat="47.53652" lon="3.84406">
        <ele>242.87</ele>
        <time>2021-08-11T12:02:31Z</time>
      </trkpt>
      <trkpt lat="47.53634" lon="3.84423">
        <ele>240.47</ele>
        <time>2021-08-11T12:02:35Z</time>
      </trkpt>
      <trkpt lat="47.53605" lon="3.84446">
        <ele>237.1</ele>
        <time>2021-08-11T12:02:41Z</time>
      </trkpt>
      <trkpt lat="47.53571" lon="3.8447">
        <ele>233.26</ele>
        <time>2021-08-11T12:02:48Z</time>
      </trkpt>
      <trkpt lat="47.53549" lon="3.84484">
        <ele>229.89</ele>
        <time>2021-08-11T12:02:51Z</time>
      </trkpt>
      <trkpt lat="47.5353" lon="3.84496">
        <ele>226.53</ele>
        <time>2021-08-11T12:02:53Z</time>
      </trkpt>
      <trkpt lat="47.53508" lon="3.84514">
        <ele>223.64</ele>
        <time>2021-08-11T12:02:56Z</time>
      </trkpt>
      <trkpt lat="47.53503" lon="3.84522">
        <ele>222.68</ele>
        <time>2021-08-11T12:02:57Z</time>
      </trkpt>
      <trkpt lat="47.53501" lon="3.84533">
        <ele>221.24</ele>
        <time>2021-08-11T12:02:58Z</time>
      </trkpt>
      <trkpt lat="47.53497" lon="3.84559">
        <ele>219.32</ele>
        <time>2021-08-11T12:03:00Z</time>
      </trkpt>
      <trkpt lat="47.53493" lon="3.84572">
        <ele>217.88</ele>
        <time>2021-08-11T12:03:01Z</time>
      </trkpt>
      <trkpt lat="47.53488" lon="3.84584">
        <ele>216.91</ele>
        <time>2021-08-11T12:03:02Z</time>
      </trkpt>
      <trkpt lat="47.53483" lon="3.84595">
        <ele>216.91</ele>
        <time>2021-08-11T12:03:03Z</time>
      </trkpt>
      <trkpt lat="47.53477" lon="3.84604">
        <ele>216.91</ele>
        <time>2021-08-11T12:03:04Z</time>
      </trkpt>
      <trkpt lat="47.5347" lon="3.84613">
        <ele>215.95</ele>
        <time>2021-08-11T12:03:05Z</time>
      </trkpt>
      <trkpt lat="47.53465" lon="3.84621">
        <ele>215.95</ele>
        <time>2021-08-11T12:03:06Z</time>
      </trkpt>
      <trkpt lat="47.53442" lon="3.84653">
        <ele>215.95</ele>
        <time>2021-08-11T12:03:11Z</time>
      </trkpt>
      <trkpt lat="47.53427" lon="3.84669">
        <ele>218.36</ele>
        <time>2021-08-11T12:03:16Z</time>
      </trkpt>
      <trkpt lat="47.53418" lon="3.84676">
        <ele>220.76</ele>
        <time>2021-08-11T12:03:23Z</time>
      </trkpt>
      <trkpt lat="47.53411" lon="3.84683">
        <ele>222.2</ele>
        <time>2021-08-11T12:03:31Z</time>
      </trkpt>
      <trkpt lat="47.53404" lon="3.8469">
        <ele>223.64</ele>
        <time>2021-08-11T12:03:41Z</time>
      </trkpt>
      <trkpt lat="47.53399" lon="3.84696">
        <ele>225.57</ele>
        <time>2021-08-11T12:03:49Z</time>
      </trkpt>
      <trkpt lat="47.53392" lon="3.84705">
        <ele>226.53</ele>
        <time>2021-08-11T12:03:59Z</time>
      </trkpt>
      <trkpt lat="47.53387" lon="3.84714">
        <ele>227.97</ele>
        <time>2021-08-11T12:04:08Z</time>
      </trkpt>
      <trkpt lat="47.53381" lon="3.84721">
        <ele>229.41</ele>
        <time>2021-08-11T12:04:16Z</time>
      </trkpt>
      <trkpt lat="47.53377" lon="3.84728">
        <ele>230.85</ele>
        <time>2021-08-11T12:04:23Z</time>
      </trkpt>
      <trkpt lat="47.5337" lon="3.84737">
        <ele>232.3</ele>
        <time>2021-08-11T12:04:33Z</time>
      </trkpt>
      <trkpt lat="47.53365" lon="3.84745">
        <ele>233.26</ele>
        <time>2021-08-11T12:04:41Z</time>
      </trkpt>
      <trkpt lat="47.53359" lon="3.84757">
        <ele>234.22</ele>
        <time>2021-08-11T12:04:51Z</time>
      </trkpt>
      <trkpt lat="47.53352" lon="3.8477">
        <ele>235.66</ele>
        <time>2021-08-11T12:05:02Z</time>
      </trkpt>
      <trkpt lat="47.53351" lon="3.84772">
        <ele>236.14</ele>
        <time>2021-08-11T12:05:08Z</time>
      </trkpt>
      <trkpt lat="47.53346" lon="3.84781">
        <ele>236.14</ele>
        <time>2021-08-11T12:05:14Z</time>
      </trkpt>
      <trkpt lat="47.53338" lon="3.84794">
        <ele>238.06</ele>
        <time>2021-08-11T12:05:22Z</time>
      </trkpt>
      <trkpt lat="47.5333" lon="3.84808">
        <ele>239.51</ele>
        <time>2021-08-11T12:05:30Z</time>
      </trkpt>
      <trkpt lat="47.53322" lon="3.84817">
        <ele>240.47</ele>
        <time>2021-08-11T12:05:37Z</time>
      </trkpt>
      <trkpt lat="47.53313" lon="3.8483">
        <ele>242.39</ele>
        <time>2021-08-11T12:05:46Z</time>
      </trkpt>
      <trkpt lat="47.5331" lon="3.84833">
        <ele>242.87</ele>
        <time>2021-08-11T12:05:49Z</time>
      </trkpt>
      <trkpt lat="47.53309" lon="3.84834">
        <ele>242.87</ele>
        <time>2021-08-11T12:05:50Z</time>
      </trkpt>
      <trkpt lat="47.53305" lon="3.84838">
        <ele>243.35</ele>
        <time>2021-08-11T12:05:54Z</time>
      </trkpt>
      <trkpt lat="47.53304" lon="3.8484">
        <ele>243.83</ele>
        <time>2021-08-11T12:05:55Z</time>
      </trkpt>
      <trkpt lat="47.53297" lon="3.84848">
        <ele>245.27</ele>
        <time>2021-08-11T12:06:02Z</time>
      </trkpt>
      <trkpt lat="47.53295" lon="3.84849">
        <ele>245.27</ele>
        <time>2021-08-11T12:06:03Z</time>
      </trkpt>
      <trkpt lat="47.53294" lon="3.8485">
        <ele>245.75</ele>
        <time>2021-08-11T12:06:04Z</time>
      </trkpt>
      <trkpt lat="47.53283" lon="3.84863">
        <ele>247.68</ele>
        <time>2021-08-11T12:06:15Z</time>
      </trkpt>
      <trkpt lat="47.53272" lon="3.84876">
        <ele>248.64</ele>
        <time>2021-08-11T12:06:25Z</time>
      </trkpt>
      <trkpt lat="47.5326" lon="3.84887">
        <ele>250.08</ele>
        <time>2021-08-11T12:06:34Z</time>
      </trkpt>
      <trkpt lat="47.53251" lon="3.84896">
        <ele>251.04</ele>
        <time>2021-08-11T12:06:41Z</time>
      </trkpt>
      <trkpt lat="47.5324" lon="3.84907">
        <ele>252</ele>
        <time>2021-08-11T12:06:48Z</time>
      </trkpt>
      <trkpt lat="47.53221" lon="3.84926">
        <ele>253.44</ele>
        <time>2021-08-11T12:06:59Z</time>
      </trkpt>
      <trkpt lat="47.53203" lon="3.84943">
        <ele>254.41</ele>
        <time>2021-08-11T12:07:08Z</time>
      </trkpt>
      <trkpt lat="47.53184" lon="3.84961">
        <ele>255.37</ele>
        <time>2021-08-11T12:07:17Z</time>
      </trkpt>
      <trkpt lat="47.53168" lon="3.84974">
        <ele>255.37</ele>
        <time>2021-08-11T12:07:23Z</time>
      </trkpt>
      <trkpt lat="47.53144" lon="3.85">
        <ele>254.89</ele>
        <time>2021-08-11T12:07:32Z</time>
      </trkpt>
      <trkpt lat="47.53124" lon="3.85042">
        <ele>255.37</ele>
        <time>2021-08-11T12:07:41Z</time>
      </trkpt>
      <trkpt lat="47.53104" lon="3.85077">
        <ele>256.33</ele>
        <time>2021-08-11T12:07:50Z</time>
      </trkpt>
      <trkpt lat="47.53079" lon="3.85114">
        <ele>254.89</ele>
        <time>2021-08-11T12:07:59Z</time>
      </trkpt>
      <trkpt lat="47.53075" lon="3.85119">
        <ele>254.89</ele>
        <time>2021-08-11T12:08:00Z</time>
      </trkpt>
      <trkpt lat="47.5305" lon="3.85165">
        <ele>253.93</ele>
        <time>2021-08-11T12:08:08Z</time>
      </trkpt>
      <trkpt lat="47.53025" lon="3.85207">
        <ele>251.04</ele>
        <time>2021-08-11T12:08:14Z</time>
      </trkpt>
      <trkpt lat="47.52993" lon="3.85259">
        <ele>248.16</ele>
        <time>2021-08-11T12:08:20Z</time>
      </trkpt>
      <trkpt lat="47.52937" lon="3.85353">
        <ele>245.27</ele>
        <time>2021-08-11T12:08:30Z</time>
      </trkpt>
      <trkpt lat="47.52886" lon="3.85446">
        <ele>243.35</ele>
        <time>2021-08-11T12:08:40Z</time>
      </trkpt>
      <trkpt lat="47.5287" lon="3.85481">
        <ele>242.87</ele>
        <time>2021-08-11T12:08:44Z</time>
      </trkpt>
      <trkpt lat="47.52868" lon="3.8549">
        <ele>242.87</ele>
        <time>2021-08-11T12:08:45Z</time>
      </trkpt>
      <trkpt lat="47.52867" lon="3.85499">
        <ele>242.87</ele>
        <time>2021-08-11T12:08:46Z</time>
      </trkpt>
      <trkpt lat="47.52866" lon="3.85568">
        <ele>242.87</ele>
        <time>2021-08-11T12:08:54Z</time>
      </trkpt>
      <trkpt lat="47.52867" lon="3.85583">
        <ele>244.31</ele>
        <time>2021-08-11T12:08:56Z</time>
      </trkpt>
      <trkpt lat="47.52875" lon="3.8562">
        <ele>245.27</ele>
        <time>2021-08-11T12:09:02Z</time>
      </trkpt>
      <trkpt lat="47.52891" lon="3.85666">
        <ele>246.23</ele>
        <time>2021-08-11T12:09:11Z</time>
      </trkpt>
      <trkpt lat="47.52906" lon="3.8571">
        <ele>247.2</ele>
        <time>2021-08-11T12:09:20Z</time>
      </trkpt>
      <trkpt lat="47.52907" lon="3.85755">
        <ele>247.68</ele>
        <time>2021-08-11T12:09:28Z</time>
      </trkpt>
      <trkpt lat="47.52896" lon="3.85798">
        <ele>248.16</ele>
        <time>2021-08-11T12:09:36Z</time>
      </trkpt>
      <trkpt lat="47.52884" lon="3.85842">
        <ele>248.16</ele>
        <time>2021-08-11T12:09:44Z</time>
      </trkpt>
      <trkpt lat="47.52868" lon="3.8588">
        <ele>249.6</ele>
        <time>2021-08-11T12:09:53Z</time>
      </trkpt>
      <trkpt lat="47.52874" lon="3.85906">
        <ele>250.08</ele>
        <time>2021-08-11T12:09:59Z</time>
      </trkpt>
      <trkpt lat="47.52888" lon="3.85943">
        <ele>251.04</ele>
        <time>2021-08-11T12:10:08Z</time>
      </trkpt>
      <trkpt lat="47.52897" lon="3.85991">
        <ele>252</ele>
        <time>2021-08-11T12:10:18Z</time>
      </trkpt>
      <trkpt lat="47.52903" lon="3.86045">
        <ele>252.96</ele>
        <time>2021-08-11T12:10:30Z</time>
      </trkpt>
      <trkpt lat="47.52914" lon="3.86083">
        <ele>253.93</ele>
        <time>2021-08-11T12:10:39Z</time>
      </trkpt>
      <trkpt lat="47.52928" lon="3.86125">
        <ele>254.89</ele>
        <time>2021-08-11T12:10:49Z</time>
      </trkpt>
      <trkpt lat="47.52944" lon="3.86164">
        <ele>255.85</ele>
        <time>2021-08-11T12:10:59Z</time>
      </trkpt>
      <trkpt lat="47.52956" lon="3.86193">
        <ele>256.33</ele>
        <time>2021-08-11T12:11:06Z</time>
      </trkpt>
      <trkpt lat="47.52976" lon="3.86243">
        <ele>256.81</ele>
        <time>2021-08-11T12:11:17Z</time>
      </trkpt>
      <trkpt lat="47.52988" lon="3.86272">
        <ele>255.37</ele>
        <time>2021-08-11T12:11:22Z</time>
      </trkpt>
      <trkpt lat="47.52989" lon="3.8628">
        <ele>254.89</ele>
        <time>2021-08-11T12:11:23Z</time>
      </trkpt>
      <trkpt lat="47.5299" lon="3.86289">
        <ele>254.89</ele>
        <time>2021-08-11T12:11:24Z</time>
      </trkpt>
      <trkpt lat="47.52989" lon="3.86298">
        <ele>253.93</ele>
        <time>2021-08-11T12:11:25Z</time>
      </trkpt>
      <trkpt lat="47.52986" lon="3.86308">
        <ele>253.44</ele>
        <time>2021-08-11T12:11:26Z</time>
      </trkpt>
      <trkpt lat="47.52981" lon="3.86315">
        <ele>252.48</ele>
        <time>2021-08-11T12:11:27Z</time>
      </trkpt>
      <trkpt lat="47.52975" lon="3.86321">
        <ele>252</ele>
        <time>2021-08-11T12:11:28Z</time>
      </trkpt>
      <trkpt lat="47.52968" lon="3.86325">
        <ele>251.52</ele>
        <time>2021-08-11T12:11:29Z</time>
      </trkpt>
      <trkpt lat="47.5296" lon="3.86328">
        <ele>251.52</ele>
        <time>2021-08-11T12:11:30Z</time>
      </trkpt>
      <trkpt lat="47.52951" lon="3.86331">
        <ele>250.08</ele>
        <time>2021-08-11T12:11:31Z</time>
      </trkpt>
      <trkpt lat="47.52934" lon="3.86339">
        <ele>249.12</ele>
        <time>2021-08-11T12:11:33Z</time>
      </trkpt>
      <trkpt lat="47.52926" lon="3.86345">
        <ele>248.64</ele>
        <time>2021-08-11T12:11:34Z</time>
      </trkpt>
      <trkpt lat="47.52918" lon="3.86353">
        <ele>248.64</ele>
        <time>2021-08-11T12:11:35Z</time>
      </trkpt>
      <trkpt lat="47.52912" lon="3.86362">
        <ele>248.16</ele>
        <time>2021-08-11T12:11:36Z</time>
      </trkpt>
      <trkpt lat="47.52906" lon="3.86372">
        <ele>247.2</ele>
        <time>2021-08-11T12:11:37Z</time>
      </trkpt>
      <trkpt lat="47.529" lon="3.86383">
        <ele>246.23</ele>
        <time>2021-08-11T12:11:38Z</time>
      </trkpt>
      <trkpt lat="47.52893" lon="3.86396">
        <ele>245.75</ele>
        <time>2021-08-11T12:11:39Z</time>
      </trkpt>
      <trkpt lat="47.52861" lon="3.86451">
        <ele>241.91</ele>
        <time>2021-08-11T12:11:44Z</time>
      </trkpt>
      <trkpt lat="47.52844" lon="3.86471">
        <ele>241.43</ele>
        <time>2021-08-11T12:11:46Z</time>
      </trkpt>
      <trkpt lat="47.52828" lon="3.86491">
        <ele>239.99</ele>
        <time>2021-08-11T12:11:48Z</time>
      </trkpt>
      <trkpt lat="47.52796" lon="3.86534">
        <ele>237.1</ele>
        <time>2021-08-11T12:11:52Z</time>
      </trkpt>
      <trkpt lat="47.52789" lon="3.86547">
        <ele>236.14</ele>
        <time>2021-08-11T12:11:53Z</time>
      </trkpt>
      <trkpt lat="47.52783" lon="3.8656">
        <ele>235.66</ele>
        <time>2021-08-11T12:11:54Z</time>
      </trkpt>
      <trkpt lat="47.52777" lon="3.86574">
        <ele>234.7</ele>
        <time>2021-08-11T12:11:55Z</time>
      </trkpt>
      <trkpt lat="47.5277" lon="3.86585">
        <ele>234.22</ele>
        <time>2021-08-11T12:11:56Z</time>
      </trkpt>
      <trkpt lat="47.52762" lon="3.86595">
        <ele>233.26</ele>
        <time>2021-08-11T12:11:57Z</time>
      </trkpt>
      <trkpt lat="47.52753" lon="3.86602">
        <ele>233.26</ele>
        <time>2021-08-11T12:11:58Z</time>
      </trkpt>
      <trkpt lat="47.52744" lon="3.86606">
        <ele>232.78</ele>
        <time>2021-08-11T12:11:59Z</time>
      </trkpt>
      <trkpt lat="47.52736" lon="3.86609">
        <ele>232.78</ele>
        <time>2021-08-11T12:12:00Z</time>
      </trkpt>
      <trkpt lat="47.52729" lon="3.86613">
        <ele>232.3</ele>
        <time>2021-08-11T12:12:01Z</time>
      </trkpt>
      <trkpt lat="47.52724" lon="3.8662">
        <ele>232.3</ele>
        <time>2021-08-11T12:12:02Z</time>
      </trkpt>
      <trkpt lat="47.5272" lon="3.86629">
        <ele>231.33</ele>
        <time>2021-08-11T12:12:03Z</time>
      </trkpt>
      <trkpt lat="47.52719" lon="3.8664">
        <ele>230.85</ele>
        <time>2021-08-11T12:12:04Z</time>
      </trkpt>
      <trkpt lat="47.52721" lon="3.8665">
        <ele>230.37</ele>
        <time>2021-08-11T12:12:05Z</time>
      </trkpt>
      <trkpt lat="47.52725" lon="3.8666">
        <ele>229.41</ele>
        <time>2021-08-11T12:12:06Z</time>
      </trkpt>
      <trkpt lat="47.52729" lon="3.8667">
        <ele>229.41</ele>
        <time>2021-08-11T12:12:07Z</time>
      </trkpt>
      <trkpt lat="47.52735" lon="3.86678">
        <ele>228.45</ele>
        <time>2021-08-11T12:12:08Z</time>
      </trkpt>
      <trkpt lat="47.52742" lon="3.86683">
        <ele>227.97</ele>
        <time>2021-08-11T12:12:09Z</time>
      </trkpt>
      <trkpt lat="47.52781" lon="3.86706">
        <ele>225.57</ele>
        <time>2021-08-11T12:12:14Z</time>
      </trkpt>
      <trkpt lat="47.52785" lon="3.86716">
        <ele>225.09</ele>
        <time>2021-08-11T12:12:15Z</time>
      </trkpt>
      <trkpt lat="47.52785" lon="3.86727">
        <ele>224.61</ele>
        <time>2021-08-11T12:12:16Z</time>
      </trkpt>
      <trkpt lat="47.52782" lon="3.86737">
        <ele>224.12</ele>
        <time>2021-08-11T12:12:17Z</time>
      </trkpt>
      <trkpt lat="47.52776" lon="3.86744">
        <ele>223.64</ele>
        <time>2021-08-11T12:12:18Z</time>
      </trkpt>
      <trkpt lat="47.52769" lon="3.86747">
        <ele>223.16</ele>
        <time>2021-08-11T12:12:19Z</time>
      </trkpt>
      <trkpt lat="47.52761" lon="3.86748">
        <ele>223.16</ele>
        <time>2021-08-11T12:12:20Z</time>
      </trkpt>
      <trkpt lat="47.52753" lon="3.86747">
        <ele>222.2</ele>
        <time>2021-08-11T12:12:21Z</time>
      </trkpt>
      <trkpt lat="47.52713" lon="3.86748">
        <ele>220.76</ele>
        <time>2021-08-11T12:12:26Z</time>
      </trkpt>
      <trkpt lat="47.52707" lon="3.86753">
        <ele>219.8</ele>
        <time>2021-08-11T12:12:27Z</time>
      </trkpt>
      <trkpt lat="47.52703" lon="3.86762">
        <ele>219.32</ele>
        <time>2021-08-11T12:12:28Z</time>
      </trkpt>
      <trkpt lat="47.52702" lon="3.86773">
        <ele>218.84</ele>
        <time>2021-08-11T12:12:29Z</time>
      </trkpt>
      <trkpt lat="47.52704" lon="3.86784">
        <ele>217.88</ele>
        <time>2021-08-11T12:12:30Z</time>
      </trkpt>
      <trkpt lat="47.52708" lon="3.86793">
        <ele>217.4</ele>
        <time>2021-08-11T12:12:31Z</time>
      </trkpt>
      <trkpt lat="47.52714" lon="3.868">
        <ele>217.4</ele>
        <time>2021-08-11T12:12:32Z</time>
      </trkpt>
      <trkpt lat="47.52721" lon="3.86807">
        <ele>216.91</ele>
        <time>2021-08-11T12:12:33Z</time>
      </trkpt>
      <trkpt lat="47.52727" lon="3.86814">
        <ele>216.43</ele>
        <time>2021-08-11T12:12:34Z</time>
      </trkpt>
      <trkpt lat="47.52732" lon="3.86825">
        <ele>215.47</ele>
        <time>2021-08-11T12:12:35Z</time>
      </trkpt>
      <trkpt lat="47.52735" lon="3.86838">
        <ele>214.99</ele>
        <time>2021-08-11T12:12:36Z</time>
      </trkpt>
      <trkpt lat="47.52734" lon="3.86851">
        <ele>213.55</ele>
        <time>2021-08-11T12:12:37Z</time>
      </trkpt>
      <trkpt lat="47.52732" lon="3.86864">
        <ele>213.55</ele>
        <time>2021-08-11T12:12:38Z</time>
      </trkpt>
      <trkpt lat="47.52727" lon="3.86876">
        <ele>212.59</ele>
        <time>2021-08-11T12:12:39Z</time>
      </trkpt>
      <trkpt lat="47.52723" lon="3.86888">
        <ele>212.11</ele>
        <time>2021-08-11T12:12:40Z</time>
      </trkpt>
      <trkpt lat="47.52717" lon="3.86901">
        <ele>211.63</ele>
        <time>2021-08-11T12:12:41Z</time>
      </trkpt>
      <trkpt lat="47.52693" lon="3.8695">
        <ele>208.26</ele>
        <time>2021-08-11T12:12:45Z</time>
      </trkpt>
      <trkpt lat="47.5268" lon="3.86975">
        <ele>207.3</ele>
        <time>2021-08-11T12:12:47Z</time>
      </trkpt>
      <trkpt lat="47.5265" lon="3.87021">
        <ele>204.42</ele>
        <time>2021-08-11T12:12:51Z</time>
      </trkpt>
      <trkpt lat="47.52607" lon="3.87082">
        <ele>200.57</ele>
        <time>2021-08-11T12:12:56Z</time>
      </trkpt>
      <trkpt lat="47.52581" lon="3.87122">
        <ele>197.21</ele>
        <time>2021-08-11T12:12:59Z</time>
      </trkpt>
      <trkpt lat="47.52555" lon="3.8716">
        <ele>196.25</ele>
        <time>2021-08-11T12:13:02Z</time>
      </trkpt>
      <trkpt lat="47.52491" lon="3.87242">
        <ele>192.88</ele>
        <time>2021-08-11T12:13:09Z</time>
      </trkpt>
      <trkpt lat="47.52461" lon="3.87269">
        <ele>192.88</ele>
        <time>2021-08-11T12:13:12Z</time>
      </trkpt>
      <trkpt lat="47.52452" lon="3.87281">
        <ele>192.4</ele>
        <time>2021-08-11T12:13:13Z</time>
      </trkpt>
      <trkpt lat="47.52407" lon="3.87349">
        <ele>191.92</ele>
        <time>2021-08-11T12:13:19Z</time>
      </trkpt>
      <trkpt lat="47.52403" lon="3.87363">
        <ele>191.92</ele>
        <time>2021-08-11T12:13:20Z</time>
      </trkpt>
      <trkpt lat="47.52401" lon="3.87377">
        <ele>191.92</ele>
        <time>2021-08-11T12:13:21Z</time>
      </trkpt>
      <trkpt lat="47.52401" lon="3.8739">
        <ele>191.44</ele>
        <time>2021-08-11T12:13:22Z</time>
      </trkpt>
      <trkpt lat="47.52401" lon="3.87405">
        <ele>191.44</ele>
        <time>2021-08-11T12:13:23Z</time>
      </trkpt>
      <trkpt lat="47.52396" lon="3.87501">
        <ele>191.44</ele>
        <time>2021-08-11T12:13:31Z</time>
      </trkpt>
      <trkpt lat="47.52386" lon="3.87578">
        <ele>191.44</ele>
        <time>2021-08-11T12:13:39Z</time>
      </trkpt>
      <trkpt lat="47.52383" lon="3.87655">
        <ele>190</ele>
        <time>2021-08-11T12:13:47Z</time>
      </trkpt>
      <trkpt lat="47.52385" lon="3.87689">
        <ele>188.08</ele>
        <time>2021-08-11T12:13:50Z</time>
      </trkpt>
      <trkpt lat="47.52386" lon="3.877">
        <ele>187.59</ele>
        <time>2021-08-11T12:13:51Z</time>
      </trkpt>
      <trkpt lat="47.5239" lon="3.87725">
        <ele>186.15</ele>
        <time>2021-08-11T12:13:53Z</time>
      </trkpt>
      <trkpt lat="47.52389" lon="3.87736">
        <ele>185.67</ele>
        <time>2021-08-11T12:13:54Z</time>
      </trkpt>
      <trkpt lat="47.52385" lon="3.87749">
        <ele>184.23</ele>
        <time>2021-08-11T12:13:55Z</time>
      </trkpt>
      <trkpt lat="47.52379" lon="3.87757">
        <ele>184.71</ele>
        <time>2021-08-11T12:13:56Z</time>
      </trkpt>
      <trkpt lat="47.52371" lon="3.87764">
        <ele>183.75</ele>
        <time>2021-08-11T12:13:57Z</time>
      </trkpt>
      <trkpt lat="47.52365" lon="3.87772">
        <ele>183.75</ele>
        <time>2021-08-11T12:13:58Z</time>
      </trkpt>
      <trkpt lat="47.52361" lon="3.87781">
        <ele>182.31</ele>
        <time>2021-08-11T12:13:59Z</time>
      </trkpt>
      <trkpt lat="47.5236" lon="3.87794">
        <ele>182.31</ele>
        <time>2021-08-11T12:14:00Z</time>
      </trkpt>
      <trkpt lat="47.52362" lon="3.87804">
        <ele>181.83</ele>
        <time>2021-08-11T12:14:01Z</time>
      </trkpt>
      <trkpt lat="47.52367" lon="3.87816">
        <ele>180.87</ele>
        <time>2021-08-11T12:14:02Z</time>
      </trkpt>
      <trkpt lat="47.52372" lon="3.87826">
        <ele>180.38</ele>
        <time>2021-08-11T12:14:03Z</time>
      </trkpt>
      <trkpt lat="47.52378" lon="3.87838">
        <ele>179.42</ele>
        <time>2021-08-11T12:14:04Z</time>
      </trkpt>
      <trkpt lat="47.52382" lon="3.87849">
        <ele>179.42</ele>
        <time>2021-08-11T12:14:05Z</time>
      </trkpt>
      <trkpt lat="47.52385" lon="3.87863">
        <ele>177.98</ele>
        <time>2021-08-11T12:14:06Z</time>
      </trkpt>
      <trkpt lat="47.52385" lon="3.87875">
        <ele>177.5</ele>
        <time>2021-08-11T12:14:07Z</time>
      </trkpt>
      <trkpt lat="47.52382" lon="3.8789">
        <ele>176.54</ele>
        <time>2021-08-11T12:14:08Z</time>
      </trkpt>
      <trkpt lat="47.52377" lon="3.87901">
        <ele>176.06</ele>
        <time>2021-08-11T12:14:09Z</time>
      </trkpt>
      <trkpt lat="47.52369" lon="3.87912">
        <ele>175.58</ele>
        <time>2021-08-11T12:14:10Z</time>
      </trkpt>
      <trkpt lat="47.52362" lon="3.8792">
        <ele>174.62</ele>
        <time>2021-08-11T12:14:11Z</time>
      </trkpt>
      <trkpt lat="47.52353" lon="3.87928">
        <ele>174.14</ele>
        <time>2021-08-11T12:14:12Z</time>
      </trkpt>
      <trkpt lat="47.52335" lon="3.87941">
        <ele>172.69</ele>
        <time>2021-08-11T12:14:14Z</time>
      </trkpt>
      <trkpt lat="47.52326" lon="3.87945">
        <ele>172.69</ele>
        <time>2021-08-11T12:14:15Z</time>
      </trkpt>
      <trkpt lat="47.52317" lon="3.87949">
        <ele>172.69</ele>
        <time>2021-08-11T12:14:16Z</time>
      </trkpt>
      <trkpt lat="47.52268" lon="3.87968">
        <ele>171.73</ele>
        <time>2021-08-11T12:14:22Z</time>
      </trkpt>
      <trkpt lat="47.52215" lon="3.87994">
        <ele>173.66</ele>
        <time>2021-08-11T12:14:30Z</time>
      </trkpt>
      <trkpt lat="47.52206" lon="3.88">
        <ele>174.14</ele>
        <time>2021-08-11T12:14:32Z</time>
      </trkpt>
      <trkpt lat="47.52201" lon="3.88004">
        <ele>174.14</ele>
        <time>2021-08-11T12:14:33Z</time>
      </trkpt>
      <trkpt lat="47.52198" lon="3.88008">
        <ele>174.62</ele>
        <time>2021-08-11T12:14:34Z</time>
      </trkpt>
      <trkpt lat="47.52176" lon="3.88039">
        <ele>176.54</ele>
        <time>2021-08-11T12:14:42Z</time>
      </trkpt>
      <trkpt lat="47.52154" lon="3.88063">
        <ele>177.5</ele>
        <time>2021-08-11T12:14:51Z</time>
      </trkpt>
      <trkpt lat="47.52135" lon="3.88062">
        <ele>178.46</ele>
        <time>2021-08-11T12:14:58Z</time>
      </trkpt>
      <trkpt lat="47.52109" lon="3.88062">
        <ele>179.9</ele>
        <time>2021-08-11T12:15:07Z</time>
      </trkpt>
      <trkpt lat="47.52108" lon="3.88064">
        <ele>179.9</ele>
        <time>2021-08-11T12:15:08Z</time>
      </trkpt>
      <trkpt lat="47.52106" lon="3.88066">
        <ele>179.9</ele>
        <time>2021-08-11T12:15:09Z</time>
      </trkpt>
      <trkpt lat="47.52105" lon="3.88069">
        <ele>179.42</ele>
        <time>2021-08-11T12:15:10Z</time>
      </trkpt>
      <trkpt lat="47.52105" lon="3.88072">
        <ele>179.42</ele>
        <time>2021-08-11T12:15:11Z</time>
      </trkpt>
      <trkpt lat="47.52105" lon="3.88075">
        <ele>179.42</ele>
        <time>2021-08-11T12:15:12Z</time>
      </trkpt>
      <trkpt lat="47.52105" lon="3.88079">
        <ele>179.42</ele>
        <time>2021-08-11T12:15:13Z</time>
      </trkpt>
      <trkpt lat="47.52105" lon="3.88082">
        <ele>179.42</ele>
        <time>2021-08-11T12:15:14Z</time>
      </trkpt>
      <trkpt lat="47.52105" lon="3.88086">
        <ele>179.42</ele>
        <time>2021-08-11T12:15:15Z</time>
      </trkpt>
      <trkpt lat="47.52105" lon="3.88091">
        <ele>180.38</ele>
        <time>2021-08-11T12:15:16Z</time>
      </trkpt>
      <trkpt lat="47.52105" lon="3.88094">
        <ele>179.9</ele>
        <time>2021-08-11T12:15:17Z</time>
      </trkpt>
      <trkpt lat="47.52105" lon="3.88099">
        <ele>179.9</ele>
        <time>2021-08-11T12:15:18Z</time>
      </trkpt>
      <trkpt lat="47.52104" lon="3.88124">
        <ele>180.38</ele>
        <time>2021-08-11T12:15:25Z</time>
      </trkpt>
      <trkpt lat="47.52102" lon="3.88126">
        <ele>180.87</ele>
        <time>2021-08-11T12:15:26Z</time>
      </trkpt>
      <trkpt lat="47.52101" lon="3.88126">
        <ele>180.87</ele>
        <time>2021-08-11T12:15:27Z</time>
      </trkpt>
      <trkpt lat="47.52099" lon="3.88126">
        <ele>180.87</ele>
        <time>2021-08-11T12:15:28Z</time>
      </trkpt>
      <trkpt lat="47.52097" lon="3.88126">
        <ele>180.87</ele>
        <time>2021-08-11T12:15:29Z</time>
      </trkpt>
      <trkpt lat="47.52095" lon="3.88125">
        <ele>181.35</ele>
        <time>2021-08-11T12:15:30Z</time>
      </trkpt>
      <trkpt lat="47.52092" lon="3.88125">
        <ele>181.35</ele>
        <time>2021-08-11T12:15:31Z</time>
      </trkpt>
      <trkpt lat="47.52074" lon="3.88127">
        <ele>181.35</ele>
        <time>2021-08-11T12:15:37Z</time>
      </trkpt>
      <trkpt lat="47.52058" lon="3.88146">
        <ele>181.35</ele>
        <time>2021-08-11T12:15:43Z</time>
      </trkpt>
      <trkpt lat="47.52049" lon="3.88158">
        <ele>181.83</ele>
        <time>2021-08-11T12:15:47Z</time>
      </trkpt>
      <trkpt lat="47.52048" lon="3.88157">
        <ele>181.83</ele>
        <time>2021-08-11T12:15:48Z</time>
      </trkpt>
      <trkpt lat="47.52048" lon="3.88155">
        <ele>181.83</ele>
        <time>2021-08-11T12:15:49Z</time>
      </trkpt>
      <trkpt lat="47.52048" lon="3.88153">
        <ele>181.83</ele>
        <time>2021-08-11T12:15:50Z</time>
      </trkpt>
      <trkpt lat="47.52047" lon="3.88151">
        <ele>181.83</ele>
        <time>2021-08-11T12:15:51Z</time>
      </trkpt>
      <trkpt lat="47.52047" lon="3.88148">
        <ele>181.83</ele>
        <time>2021-08-11T12:15:52Z</time>
      </trkpt>
      <trkpt lat="47.52046" lon="3.88144">
        <ele>181.83</ele>
        <time>2021-08-11T12:15:53Z</time>
      </trkpt>
      <trkpt lat="47.52044" lon="3.8814">
        <ele>181.83</ele>
        <time>2021-08-11T12:15:54Z</time>
      </trkpt>
      <trkpt lat="47.52042" lon="3.88136">
        <ele>181.83</ele>
        <time>2021-08-11T12:15:55Z</time>
      </trkpt>
      <trkpt lat="47.5204" lon="3.88132">
        <ele>181.83</ele>
        <time>2021-08-11T12:15:56Z</time>
      </trkpt>
      <trkpt lat="47.52035" lon="3.88126">
        <ele>181.83</ele>
        <time>2021-08-11T12:15:58Z</time>
      </trkpt>
      <trkpt lat="47.52031" lon="3.88126">
        <ele>181.83</ele>
        <time>2021-08-11T12:15:59Z</time>
      </trkpt>
      <trkpt lat="47.52028" lon="3.88129">
        <ele>181.83</ele>
        <time>2021-08-11T12:16:00Z</time>
      </trkpt>
      <trkpt lat="47.52025" lon="3.88132">
        <ele>181.83</ele>
        <time>2021-08-11T12:16:01Z</time>
      </trkpt>
      <trkpt lat="47.52022" lon="3.88135">
        <ele>181.83</ele>
        <time>2021-08-11T12:16:02Z</time>
      </trkpt>
      <trkpt lat="47.51999" lon="3.88161">
        <ele>182.31</ele>
        <time>2021-08-11T12:16:10Z</time>
      </trkpt>
      <trkpt lat="47.51977" lon="3.88184">
        <ele>182.79</ele>
        <time>2021-08-11T12:16:19Z</time>
      </trkpt>
      <trkpt lat="47.51955" lon="3.88209">
        <ele>184.23</ele>
        <time>2021-08-11T12:16:28Z</time>
      </trkpt>
      <trkpt lat="47.51928" lon="3.88227">
        <ele>185.19</ele>
        <time>2021-08-11T12:16:38Z</time>
      </trkpt>
      <trkpt lat="47.51909" lon="3.88238">
        <ele>186.15</ele>
        <time>2021-08-11T12:16:45Z</time>
      </trkpt>
      <trkpt lat="47.51879" lon="3.88259">
        <ele>188.08</ele>
        <time>2021-08-11T12:16:56Z</time>
      </trkpt>
      <trkpt lat="47.51848" lon="3.88291">
        <ele>189.52</ele>
        <time>2021-08-11T12:17:08Z</time>
      </trkpt>
      <trkpt lat="47.51822" lon="3.88321">
        <ele>190.96</ele>
        <time>2021-08-11T12:17:19Z</time>
      </trkpt>
      <trkpt lat="47.518" lon="3.88346">
        <ele>192.4</ele>
        <time>2021-08-11T12:17:29Z</time>
      </trkpt>
      <trkpt lat="47.51777" lon="3.88369">
        <ele>193.84</ele>
        <time>2021-08-11T12:17:39Z</time>
      </trkpt>
      <trkpt lat="47.51758" lon="3.88384">
        <ele>194.8</ele>
        <time>2021-08-11T12:17:47Z</time>
      </trkpt>
      <trkpt lat="47.51726" lon="3.88409">
        <ele>196.73</ele>
        <time>2021-08-11T12:18:00Z</time>
      </trkpt>
      <trkpt lat="47.51705" lon="3.88424">
        <ele>198.17</ele>
        <time>2021-08-11T12:18:09Z</time>
      </trkpt>
      <trkpt lat="47.51676" lon="3.88445">
        <ele>199.61</ele>
        <time>2021-08-11T12:18:20Z</time>
      </trkpt>
      <trkpt lat="47.51651" lon="3.88463">
        <ele>200.57</ele>
        <time>2021-08-11T12:18:30Z</time>
      </trkpt>
      <trkpt lat="47.51617" lon="3.88485">
        <ele>201.53</ele>
        <time>2021-08-11T12:18:41Z</time>
      </trkpt>
      <trkpt lat="47.51582" lon="3.88507">
        <ele>202.98</ele>
        <time>2021-08-11T12:18:51Z</time>
      </trkpt>
      <trkpt lat="47.51554" lon="3.88527">
        <ele>203.94</ele>
        <time>2021-08-11T12:18:59Z</time>
      </trkpt>
      <trkpt lat="47.51516" lon="3.88552">
        <ele>205.38</ele>
        <time>2021-08-11T12:19:10Z</time>
      </trkpt>
      <trkpt lat="47.51484" lon="3.88574">
        <ele>206.34</ele>
        <time>2021-08-11T12:19:19Z</time>
      </trkpt>
      <trkpt lat="47.51472" lon="3.88581">
        <ele>207.3</ele>
        <time>2021-08-11T12:19:22Z</time>
      </trkpt>
      <trkpt lat="47.51435" lon="3.88606">
        <ele>208.26</ele>
        <time>2021-08-11T12:19:32Z</time>
      </trkpt>
      <trkpt lat="47.51405" lon="3.8863">
        <ele>209.22</ele>
        <time>2021-08-11T12:19:41Z</time>
      </trkpt>
      <trkpt lat="47.51373" lon="3.88662">
        <ele>210.19</ele>
        <time>2021-08-11T12:19:51Z</time>
      </trkpt>
      <trkpt lat="47.51341" lon="3.88693">
        <ele>211.15</ele>
        <time>2021-08-11T12:20:01Z</time>
      </trkpt>
      <trkpt lat="47.51306" lon="3.88726">
        <ele>212.11</ele>
        <time>2021-08-11T12:20:12Z</time>
      </trkpt>
      <trkpt lat="47.51281" lon="3.88751">
        <ele>213.07</ele>
        <time>2021-08-11T12:20:20Z</time>
      </trkpt>
      <trkpt lat="47.51249" lon="3.88779">
        <ele>214.03</ele>
        <time>2021-08-11T12:20:30Z</time>
      </trkpt>
      <trkpt lat="47.51215" lon="3.88808">
        <ele>214.99</ele>
        <time>2021-08-11T12:20:41Z</time>
      </trkpt>
      <trkpt lat="47.51186" lon="3.88835">
        <ele>216.43</ele>
        <time>2021-08-11T12:20:51Z</time>
      </trkpt>
      <trkpt lat="47.51155" lon="3.88862">
        <ele>217.88</ele>
        <time>2021-08-11T12:21:02Z</time>
      </trkpt>
      <trkpt lat="47.51134" lon="3.88882">
        <ele>218.36</ele>
        <time>2021-08-11T12:21:10Z</time>
      </trkpt>
      <trkpt lat="47.51106" lon="3.88912">
        <ele>218.84</ele>
        <time>2021-08-11T12:21:21Z</time>
      </trkpt>
      <trkpt lat="47.5108" lon="3.88939">
        <ele>219.8</ele>
        <time>2021-08-11T12:21:31Z</time>
      </trkpt>
      <trkpt lat="47.51057" lon="3.88966">
        <ele>220.76</ele>
        <time>2021-08-11T12:21:40Z</time>
      </trkpt>
      <trkpt lat="47.51035" lon="3.88994">
        <ele>221.24</ele>
        <time>2021-08-11T12:21:49Z</time>
      </trkpt>
      <trkpt lat="47.51009" lon="3.89025">
        <ele>221.72</ele>
        <time>2021-08-11T12:21:59Z</time>
      </trkpt>
      <trkpt lat="47.50978" lon="3.89058">
        <ele>222.68</ele>
        <time>2021-08-11T12:22:10Z</time>
      </trkpt>
      <trkpt lat="47.50943" lon="3.89084">
        <ele>223.16</ele>
        <time>2021-08-11T12:22:21Z</time>
      </trkpt>
      <trkpt lat="47.50912" lon="3.89101">
        <ele>223.16</ele>
        <time>2021-08-11T12:22:30Z</time>
      </trkpt>
      <trkpt lat="47.50876" lon="3.89126">
        <ele>224.12</ele>
        <time>2021-08-11T12:22:41Z</time>
      </trkpt>
      <trkpt lat="47.50846" lon="3.89148">
        <ele>224.61</ele>
        <time>2021-08-11T12:22:50Z</time>
      </trkpt>
      <trkpt lat="47.50842" lon="3.89151">
        <ele>224.61</ele>
        <time>2021-08-11T12:22:51Z</time>
      </trkpt>
      <trkpt lat="47.50818" lon="3.89174">
        <ele>225.09</ele>
        <time>2021-08-11T12:22:58Z</time>
      </trkpt>
      <trkpt lat="47.50815" lon="3.89177">
        <ele>225.09</ele>
        <time>2021-08-11T12:22:59Z</time>
      </trkpt>
      <trkpt lat="47.50782" lon="3.89204">
        <ele>226.05</ele>
        <time>2021-08-11T12:23:08Z</time>
      </trkpt>
      <trkpt lat="47.50757" lon="3.89225">
        <ele>226.53</ele>
        <time>2021-08-11T12:23:15Z</time>
      </trkpt>
      <trkpt lat="47.50718" lon="3.89256">
        <ele>227.01</ele>
        <time>2021-08-11T12:23:26Z</time>
      </trkpt>
      <trkpt lat="47.50685" lon="3.89283">
        <ele>227.49</ele>
        <time>2021-08-11T12:23:35Z</time>
      </trkpt>
      <trkpt lat="47.50682" lon="3.89286">
        <ele>227.49</ele>
        <time>2021-08-11T12:23:36Z</time>
      </trkpt>
      <trkpt lat="47.50678" lon="3.89289">
        <ele>227.49</ele>
        <time>2021-08-11T12:23:37Z</time>
      </trkpt>
      <trkpt lat="47.50648" lon="3.89316">
        <ele>228.45</ele>
        <time>2021-08-11T12:23:46Z</time>
      </trkpt>
      <trkpt lat="47.5062" lon="3.8934">
        <ele>229.41</ele>
        <time>2021-08-11T12:23:55Z</time>
      </trkpt>
      <trkpt lat="47.50579" lon="3.89377">
        <ele>229.89</ele>
        <time>2021-08-11T12:24:06Z</time>
      </trkpt>
      <trkpt lat="47.5054" lon="3.89409">
        <ele>230.85</ele>
        <time>2021-08-11T12:24:17Z</time>
      </trkpt>
      <trkpt lat="47.5051" lon="3.89433">
        <ele>231.33</ele>
        <time>2021-08-11T12:24:26Z</time>
      </trkpt>
      <trkpt lat="47.50477" lon="3.89457">
        <ele>232.78</ele>
        <time>2021-08-11T12:24:36Z</time>
      </trkpt>
      <trkpt lat="47.5045" lon="3.89478">
        <ele>233.26</ele>
        <time>2021-08-11T12:24:45Z</time>
      </trkpt>
      <trkpt lat="47.50425" lon="3.89496">
        <ele>233.74</ele>
        <time>2021-08-11T12:24:53Z</time>
      </trkpt>
      <trkpt lat="47.50396" lon="3.89511">
        <ele>234.7</ele>
        <time>2021-08-11T12:25:02Z</time>
      </trkpt>
      <trkpt lat="47.50378" lon="3.89517">
        <ele>235.18</ele>
        <time>2021-08-11T12:25:08Z</time>
      </trkpt>
      <trkpt lat="47.50342" lon="3.89526">
        <ele>236.62</ele>
        <time>2021-08-11T12:25:19Z</time>
      </trkpt>
      <trkpt lat="47.50324" lon="3.89531">
        <ele>236.62</ele>
        <time>2021-08-11T12:25:24Z</time>
      </trkpt>
      <trkpt lat="47.5029" lon="3.89553">
        <ele>236.62</ele>
        <time>2021-08-11T12:25:33Z</time>
      </trkpt>
      <trkpt lat="47.50259" lon="3.89586">
        <ele>236.62</ele>
        <time>2021-08-11T12:25:41Z</time>
      </trkpt>
      <trkpt lat="47.50251" lon="3.89595">
        <ele>235.18</ele>
        <time>2021-08-11T12:25:43Z</time>
      </trkpt>
      <trkpt lat="47.50212" lon="3.89639">
        <ele>235.18</ele>
        <time>2021-08-11T12:25:53Z</time>
      </trkpt>
      <trkpt lat="47.50183" lon="3.89673">
        <ele>236.62</ele>
        <time>2021-08-11T12:26:01Z</time>
      </trkpt>
      <trkpt lat="47.5018" lon="3.89677">
        <ele>236.62</ele>
        <time>2021-08-11T12:26:02Z</time>
      </trkpt>
      <trkpt lat="47.50176" lon="3.89681">
        <ele>236.62</ele>
        <time>2021-08-11T12:26:03Z</time>
      </trkpt>
      <trkpt lat="47.50144" lon="3.89717">
        <ele>236.62</ele>
        <time>2021-08-11T12:26:12Z</time>
      </trkpt>
      <trkpt lat="47.50121" lon="3.89744">
        <ele>237.1</ele>
        <time>2021-08-11T12:26:19Z</time>
      </trkpt>
      <trkpt lat="47.50106" lon="3.89759">
        <ele>237.1</ele>
        <time>2021-08-11T12:26:23Z</time>
      </trkpt>
      <trkpt lat="47.50067" lon="3.89803">
        <ele>238.54</ele>
        <time>2021-08-11T12:26:34Z</time>
      </trkpt>
      <trkpt lat="47.50063" lon="3.89806">
        <ele>238.54</ele>
        <time>2021-08-11T12:26:35Z</time>
      </trkpt>
      <trkpt lat="47.5006" lon="3.8981">
        <ele>238.54</ele>
        <time>2021-08-11T12:26:36Z</time>
      </trkpt>
      <trkpt lat="47.50033" lon="3.89842">
        <ele>239.51</ele>
        <time>2021-08-11T12:26:45Z</time>
      </trkpt>
      <trkpt lat="47.50008" lon="3.89874">
        <ele>239.99</ele>
        <time>2021-08-11T12:26:54Z</time>
      </trkpt>
      <trkpt lat="47.49983" lon="3.89901">
        <ele>240.95</ele>
        <time>2021-08-11T12:27:03Z</time>
      </trkpt>
      <trkpt lat="47.4996" lon="3.89922">
        <ele>241.43</ele>
        <time>2021-08-11T12:27:11Z</time>
      </trkpt>
      <trkpt lat="47.49934" lon="3.89944">
        <ele>242.39</ele>
        <time>2021-08-11T12:27:20Z</time>
      </trkpt>
      <trkpt lat="47.49914" lon="3.89962">
        <ele>243.83</ele>
        <time>2021-08-11T12:27:28Z</time>
      </trkpt>
      <trkpt lat="47.49895" lon="3.89977">
        <ele>243.83</ele>
        <time>2021-08-11T12:27:35Z</time>
      </trkpt>
      <trkpt lat="47.4987" lon="3.89996">
        <ele>245.27</ele>
        <time>2021-08-11T12:27:45Z</time>
      </trkpt>
      <trkpt lat="47.4985" lon="3.90012">
        <ele>246.23</ele>
        <time>2021-08-11T12:27:53Z</time>
      </trkpt>
      <trkpt lat="47.49835" lon="3.90024">
        <ele>246.72</ele>
        <time>2021-08-11T12:27:59Z</time>
      </trkpt>
      <trkpt lat="47.49814" lon="3.90037">
        <ele>247.68</ele>
        <time>2021-08-11T12:28:07Z</time>
      </trkpt>
      <trkpt lat="47.49801" lon="3.90028">
        <ele>247.68</ele>
        <time>2021-08-11T12:28:11Z</time>
      </trkpt>
      <trkpt lat="47.49788" lon="3.89995">
        <ele>247.68</ele>
        <time>2021-08-11T12:28:17Z</time>
      </trkpt>
      <trkpt lat="47.49778" lon="3.89957">
        <ele>246.23</ele>
        <time>2021-08-11T12:28:23Z</time>
      </trkpt>
      <trkpt lat="47.49764" lon="3.89922">
        <ele>246.23</ele>
        <time>2021-08-11T12:28:29Z</time>
      </trkpt>
      <trkpt lat="47.49761" lon="3.89917">
        <ele>246.23</ele>
        <time>2021-08-11T12:28:30Z</time>
      </trkpt>
      <trkpt lat="47.49755" lon="3.89907">
        <ele>245.75</ele>
        <time>2021-08-11T12:28:32Z</time>
      </trkpt>
      <trkpt lat="47.49753" lon="3.89902">
        <ele>245.75</ele>
        <time>2021-08-11T12:28:33Z</time>
      </trkpt>
      <trkpt lat="47.49749" lon="3.89894">
        <ele>245.75</ele>
        <time>2021-08-11T12:28:35Z</time>
      </trkpt>
      <trkpt lat="47.49747" lon="3.89893">
        <ele>245.75</ele>
        <time>2021-08-11T12:28:39Z</time>
      </trkpt>
      <trkpt lat="47.49746" lon="3.89891">
        <ele>245.75</ele>
        <time>2021-08-11T12:28:50Z</time>
      </trkpt>
      <trkpt lat="47.49745" lon="3.89891">
        <ele>245.75</ele>
        <time>2021-08-11T12:28:51Z</time>
      </trkpt>
      <trkpt lat="47.49743" lon="3.89891">
        <ele>245.75</ele>
        <time>2021-08-11T12:28:52Z</time>
      </trkpt>
      <trkpt lat="47.49731" lon="3.89878">
        <ele>245.75</ele>
        <time>2021-08-11T12:28:58Z</time>
      </trkpt>
      <trkpt lat="47.49715" lon="3.89856">
        <ele>245.75</ele>
        <time>2021-08-11T12:29:04Z</time>
      </trkpt>
      <trkpt lat="47.49695" lon="3.89833">
        <ele>245.75</ele>
        <time>2021-08-11T12:29:11Z</time>
      </trkpt>
      <trkpt lat="47.49692" lon="3.8983">
        <ele>245.75</ele>
        <time>2021-08-11T12:29:15Z</time>
      </trkpt>
      <trkpt lat="47.49693" lon="3.8983">
        <ele>245.75</ele>
        <time>2021-08-11T12:29:34Z</time>
      </trkpt>
      <trkpt lat="47.49693" lon="3.89832">
        <ele>245.75</ele>
        <time>2021-08-11T12:29:53Z</time>
      </trkpt>
      <trkpt lat="47.49694" lon="3.89827">
        <ele>245.75</ele>
        <time>2021-08-11T12:30:15Z</time>
      </trkpt>
      <trkpt lat="47.49693" lon="3.89831">
        <ele>245.75</ele>
        <time>2021-08-11T12:30:42Z</time>
      </trkpt>
      <trkpt lat="47.49696" lon="3.89829">
        <ele>245.27</ele>
        <time>2021-08-11T12:31:11Z</time>
      </trkpt>
      <trkpt lat="47.49695" lon="3.89828">
        <ele>245.27</ele>
        <time>2021-08-11T12:31:31Z</time>
      </trkpt>
      <trkpt lat="47.49694" lon="3.8983">
        <ele>245.27</ele>
        <time>2021-08-11T12:31:43Z</time>
      </trkpt>
      <trkpt lat="47.49691" lon="3.89829">
        <ele>245.27</ele>
        <time>2021-08-11T12:32:10Z</time>
      </trkpt>
      <trkpt lat="47.49691" lon="3.8983">
        <ele>245.27</ele>
        <time>2021-08-11T12:32:26Z</time>
      </trkpt>
      <trkpt lat="47.49694" lon="3.89828">
        <ele>244.79</ele>
        <time>2021-08-11T12:32:44Z</time>
      </trkpt>
      <trkpt lat="47.49695" lon="3.8983">
        <ele>244.79</ele>
        <time>2021-08-11T12:32:59Z</time>
      </trkpt>
      <trkpt lat="47.49695" lon="3.89826">
        <ele>244.79</ele>
        <time>2021-08-11T12:33:20Z</time>
      </trkpt>
      <trkpt lat="47.49695" lon="3.89831">
        <ele>244.79</ele>
        <time>2021-08-11T12:33:47Z</time>
      </trkpt>
      <trkpt lat="47.49694" lon="3.89832">
        <ele>244.79</ele>
        <time>2021-08-11T12:34:14Z</time>
      </trkpt>
      <trkpt lat="47.49695" lon="3.89833">
        <ele>244.79</ele>
        <time>2021-08-11T12:34:37Z</time>
      </trkpt>
      <trkpt lat="47.49694" lon="3.89836">
        <ele>244.79</ele>
        <time>2021-08-11T12:35:01Z</time>
      </trkpt>
      <trkpt lat="47.49696" lon="3.89833">
        <ele>244.79</ele>
        <time>2021-08-11T12:35:23Z</time>
      </trkpt>
      <trkpt lat="47.49696" lon="3.89831">
        <ele>244.31</ele>
        <time>2021-08-11T12:35:46Z</time>
      </trkpt>
      <trkpt lat="47.49698" lon="3.89838">
        <ele>244.31</ele>
        <time>2021-08-11T12:36:14Z</time>
      </trkpt>
      <trkpt lat="47.49697" lon="3.89837">
        <ele>244.31</ele>
        <time>2021-08-11T12:36:28Z</time>
      </trkpt>
      <trkpt lat="47.49694" lon="3.89834">
        <ele>244.31</ele>
        <time>2021-08-11T12:36:37Z</time>
      </trkpt>
      <trkpt lat="47.49697" lon="3.89836">
        <ele>244.31</ele>
        <time>2021-08-11T12:36:54Z</time>
      </trkpt>
      <trkpt lat="47.49699" lon="3.89832">
        <ele>245.75</ele>
        <time>2021-08-11T12:37:14Z</time>
      </trkpt>
      <trkpt lat="47.49696" lon="3.89833">
        <ele>245.75</ele>
        <time>2021-08-11T12:37:33Z</time>
      </trkpt>
      <trkpt lat="47.49694" lon="3.89836">
        <ele>245.27</ele>
        <time>2021-08-11T12:37:50Z</time>
      </trkpt>
      <trkpt lat="47.49692" lon="3.89831">
        <ele>245.27</ele>
        <time>2021-08-11T12:38:14Z</time>
      </trkpt>
      <trkpt lat="47.49693" lon="3.89826">
        <ele>245.75</ele>
        <time>2021-08-11T12:38:37Z</time>
      </trkpt>
      <trkpt lat="47.49694" lon="3.89829">
        <ele>245.75</ele>
        <time>2021-08-11T12:38:48Z</time>
      </trkpt>
      <trkpt lat="47.49695" lon="3.89829">
        <ele>245.75</ele>
        <time>2021-08-11T12:39:04Z</time>
      </trkpt>
      <trkpt lat="47.49693" lon="3.89828">
        <ele>245.75</ele>
        <time>2021-08-11T12:39:27Z</time>
      </trkpt>
      <trkpt lat="47.49698" lon="3.89833">
        <ele>245.75</ele>
        <time>2021-08-11T12:39:47Z</time>
      </trkpt>
      <trkpt lat="47.49696" lon="3.89834">
        <ele>245.27</ele>
        <time>2021-08-11T12:40:06Z</time>
      </trkpt>
      <trkpt lat="47.49694" lon="3.89836">
        <ele>245.27</ele>
        <time>2021-08-11T12:40:29Z</time>
      </trkpt>
      <trkpt lat="47.49694" lon="3.89833">
        <ele>245.27</ele>
        <time>2021-08-11T12:40:44Z</time>
      </trkpt>
      <trkpt lat="47.49693" lon="3.89832">
        <ele>245.27</ele>
        <time>2021-08-11T12:41:05Z</time>
      </trkpt>
      <trkpt lat="47.49693" lon="3.89831">
        <ele>245.27</ele>
        <time>2021-08-11T12:41:15Z</time>
      </trkpt>
      <trkpt lat="47.49695" lon="3.89827">
        <ele>245.27</ele>
        <time>2021-08-11T12:41:18Z</time>
      </trkpt>
      <trkpt lat="47.49696" lon="3.89826">
        <ele>245.27</ele>
        <time>2021-08-11T12:41:19Z</time>
      </trkpt>
      <trkpt lat="47.49697" lon="3.89824">
        <ele>245.27</ele>
        <time>2021-08-11T12:41:20Z</time>
      </trkpt>
      <trkpt lat="47.49698" lon="3.89822">
        <ele>245.27</ele>
        <time>2021-08-11T12:41:21Z</time>
      </trkpt>
      <trkpt lat="47.497" lon="3.89819">
        <ele>245.27</ele>
        <time>2021-08-11T12:41:22Z</time>
      </trkpt>
      <trkpt lat="47.497" lon="3.89814">
        <ele>244.31</ele>
        <time>2021-08-11T12:41:23Z</time>
      </trkpt>
      <trkpt lat="47.497" lon="3.89809">
        <ele>244.31</ele>
        <time>2021-08-11T12:41:24Z</time>
      </trkpt>
      <trkpt lat="47.497" lon="3.89805">
        <ele>244.31</ele>
        <time>2021-08-11T12:41:25Z</time>
      </trkpt>
      <trkpt lat="47.497" lon="3.89801">
        <ele>244.31</ele>
        <time>2021-08-11T12:41:26Z</time>
      </trkpt>
      <trkpt lat="47.497" lon="3.89797">
        <ele>244.31</ele>
        <time>2021-08-11T12:41:27Z</time>
      </trkpt>
      <trkpt lat="47.49701" lon="3.89793">
        <ele>244.31</ele>
        <time>2021-08-11T12:41:28Z</time>
      </trkpt>
      <trkpt lat="47.49702" lon="3.8979">
        <ele>244.31</ele>
        <time>2021-08-11T12:41:29Z</time>
      </trkpt>
      <trkpt lat="47.49703" lon="3.89786">
        <ele>243.83</ele>
        <time>2021-08-11T12:41:30Z</time>
      </trkpt>
      <trkpt lat="47.49705" lon="3.89781">
        <ele>243.83</ele>
        <time>2021-08-11T12:41:31Z</time>
      </trkpt>
      <trkpt lat="47.49705" lon="3.89777">
        <ele>243.83</ele>
        <time>2021-08-11T12:41:32Z</time>
      </trkpt>
      <trkpt lat="47.49704" lon="3.89774">
        <ele>243.83</ele>
        <time>2021-08-11T12:41:33Z</time>
      </trkpt>
      <trkpt lat="47.49703" lon="3.89771">
        <ele>243.83</ele>
        <time>2021-08-11T12:41:34Z</time>
      </trkpt>
      <trkpt lat="47.49702" lon="3.8977">
        <ele>243.83</ele>
        <time>2021-08-11T12:41:35Z</time>
      </trkpt>
      <trkpt lat="47.497" lon="3.8977">
        <ele>243.83</ele>
        <time>2021-08-11T12:41:36Z</time>
      </trkpt>
      <trkpt lat="47.49699" lon="3.89771">
        <ele>243.83</ele>
        <time>2021-08-11T12:41:37Z</time>
      </trkpt>
      <trkpt lat="47.49698" lon="3.89774">
        <ele>243.83</ele>
        <time>2021-08-11T12:41:38Z</time>
      </trkpt>
      <trkpt lat="47.49697" lon="3.89776">
        <ele>243.83</ele>
        <time>2021-08-11T12:41:39Z</time>
      </trkpt>
      <trkpt lat="47.49696" lon="3.89779">
        <ele>243.83</ele>
        <time>2021-08-11T12:41:40Z</time>
      </trkpt>
      <trkpt lat="47.49694" lon="3.89781">
        <ele>243.83</ele>
        <time>2021-08-11T12:41:41Z</time>
      </trkpt>
      <trkpt lat="47.49692" lon="3.89784">
        <ele>243.83</ele>
        <time>2021-08-11T12:41:42Z</time>
      </trkpt>
      <trkpt lat="47.49691" lon="3.89786">
        <ele>243.83</ele>
        <time>2021-08-11T12:41:43Z</time>
      </trkpt>
      <trkpt lat="47.49689" lon="3.89788">
        <ele>243.83</ele>
        <time>2021-08-11T12:41:44Z</time>
      </trkpt>
      <trkpt lat="47.49675" lon="3.89793">
        <ele>243.83</ele>
        <time>2021-08-11T12:41:50Z</time>
      </trkpt>
      <trkpt lat="47.4967" lon="3.89794">
        <ele>243.83</ele>
        <time>2021-08-11T12:41:53Z</time>
      </trkpt>
      <trkpt lat="47.4966" lon="3.89807">
        <ele>245.27</ele>
        <time>2021-08-11T12:41:59Z</time>
      </trkpt>
      <trkpt lat="47.49656" lon="3.89814">
        <ele>245.27</ele>
        <time>2021-08-11T12:42:01Z</time>
      </trkpt>
      <trkpt lat="47.49653" lon="3.89816">
        <ele>245.27</ele>
        <time>2021-08-11T12:42:02Z</time>
      </trkpt>
      <trkpt lat="47.4965" lon="3.89817">
        <ele>245.27</ele>
        <time>2021-08-11T12:42:03Z</time>
      </trkpt>
      <trkpt lat="47.49646" lon="3.89818">
        <ele>245.27</ele>
        <time>2021-08-11T12:42:04Z</time>
      </trkpt>
      <trkpt lat="47.49643" lon="3.89819">
        <ele>245.27</ele>
        <time>2021-08-11T12:42:05Z</time>
      </trkpt>
      <trkpt lat="47.4964" lon="3.8982">
        <ele>245.27</ele>
        <time>2021-08-11T12:42:06Z</time>
      </trkpt>
      <trkpt lat="47.49633" lon="3.89817">
        <ele>245.27</ele>
        <time>2021-08-11T12:42:09Z</time>
      </trkpt>
      <trkpt lat="47.49635" lon="3.89804">
        <ele>245.27</ele>
        <time>2021-08-11T12:42:13Z</time>
      </trkpt>
      <trkpt lat="47.49637" lon="3.89801">
        <ele>245.27</ele>
        <time>2021-08-11T12:42:14Z</time>
      </trkpt>
      <trkpt lat="47.49639" lon="3.89799">
        <ele>245.27</ele>
        <time>2021-08-11T12:42:15Z</time>
      </trkpt>
      <trkpt lat="47.49641" lon="3.89797">
        <ele>245.27</ele>
        <time>2021-08-11T12:42:16Z</time>
      </trkpt>
      <trkpt lat="47.49642" lon="3.89795">
        <ele>245.27</ele>
        <time>2021-08-11T12:42:21Z</time>
      </trkpt>
      <trkpt lat="47.49642" lon="3.89798">
        <ele>245.27</ele>
        <time>2021-08-11T12:42:33Z</time>
      </trkpt>
      <trkpt lat="47.49642" lon="3.89797">
        <ele>245.27</ele>
        <time>2021-08-11T12:42:44Z</time>
      </trkpt>
      <trkpt lat="47.49642" lon="3.89795">
        <ele>245.27</ele>
        <time>2021-08-11T12:43:02Z</time>
      </trkpt>
      <trkpt lat="47.49643" lon="3.89794">
        <ele>245.27</ele>
        <time>2021-08-11T12:43:18Z</time>
      </trkpt>
      <trkpt lat="47.49642" lon="3.89794">
        <ele>245.27</ele>
        <time>2021-08-11T12:43:22Z</time>
      </trkpt>
      <trkpt lat="47.49635" lon="3.898">
        <ele>245.27</ele>
        <time>2021-08-11T12:43:30Z</time>
      </trkpt>
      <trkpt lat="47.49634" lon="3.89803">
        <ele>245.27</ele>
        <time>2021-08-11T12:43:39Z</time>
      </trkpt>
      <trkpt lat="47.49632" lon="3.89804">
        <ele>245.27</ele>
        <time>2021-08-11T12:43:49Z</time>
      </trkpt>
      <trkpt lat="47.49631" lon="3.89803">
        <ele>245.27</ele>
        <time>2021-08-11T12:43:58Z</time>
      </trkpt>
      <trkpt lat="47.49627" lon="3.89794">
        <ele>245.27</ele>
        <time>2021-08-11T12:44:03Z</time>
      </trkpt>
      <trkpt lat="47.49616" lon="3.89786">
        <ele>243.83</ele>
        <time>2021-08-11T12:44:07Z</time>
      </trkpt>
      <trkpt lat="47.49612" lon="3.89784">
        <ele>243.83</ele>
        <time>2021-08-11T12:44:08Z</time>
      </trkpt>
      <trkpt lat="47.49609" lon="3.89783">
        <ele>243.83</ele>
        <time>2021-08-11T12:44:09Z</time>
      </trkpt>
      <trkpt lat="47.49605" lon="3.89783">
        <ele>243.83</ele>
        <time>2021-08-11T12:44:10Z</time>
      </trkpt>
      <trkpt lat="47.49601" lon="3.89782">
        <ele>243.83</ele>
        <time>2021-08-11T12:44:11Z</time>
      </trkpt>
      <trkpt lat="47.49597" lon="3.8978">
        <ele>243.35</ele>
        <time>2021-08-11T12:44:12Z</time>
      </trkpt>
      <trkpt lat="47.49593" lon="3.89777">
        <ele>243.35</ele>
        <time>2021-08-11T12:44:13Z</time>
      </trkpt>
      <trkpt lat="47.4959" lon="3.89773">
        <ele>243.35</ele>
        <time>2021-08-11T12:44:14Z</time>
      </trkpt>
      <trkpt lat="47.49587" lon="3.89769">
        <ele>243.35</ele>
        <time>2021-08-11T12:44:15Z</time>
      </trkpt>
      <trkpt lat="47.49572" lon="3.89752">
        <ele>243.35</ele>
        <time>2021-08-11T12:44:22Z</time>
      </trkpt>
      <trkpt lat="47.49569" lon="3.89756">
        <ele>243.35</ele>
        <time>2021-08-11T12:44:31Z</time>
      </trkpt>
      <trkpt lat="47.49568" lon="3.89756">
        <ele>243.35</ele>
        <time>2021-08-11T12:44:40Z</time>
      </trkpt>
      <trkpt lat="47.49568" lon="3.89757">
        <ele>243.35</ele>
        <time>2021-08-11T12:44:48Z</time>
      </trkpt>
      <trkpt lat="47.49568" lon="3.89755">
        <ele>243.35</ele>
        <time>2021-08-11T12:44:57Z</time>
      </trkpt>
      <trkpt lat="47.49568" lon="3.89755">
        <ele>243.35</ele>
        <time>2021-08-11T12:45:06Z</time>
      </trkpt>
      <trkpt lat="47.49569" lon="3.89756">
        <ele>243.35</ele>
        <time>2021-08-11T12:45:22Z</time>
      </trkpt>
      <trkpt lat="47.49573" lon="3.89759">
        <ele>243.35</ele>
        <time>2021-08-11T12:45:37Z</time>
      </trkpt>
      <trkpt lat="47.49577" lon="3.89758">
        <ele>243.35</ele>
        <time>2021-08-11T12:45:57Z</time>
      </trkpt>
      <trkpt lat="47.49575" lon="3.89755">
        <ele>243.35</ele>
        <time>2021-08-11T12:46:24Z</time>
      </trkpt>
      <trkpt lat="47.49576" lon="3.89755">
        <ele>243.35</ele>
        <time>2021-08-11T12:46:29Z</time>
      </trkpt>
      <trkpt lat="47.49576" lon="3.89755">
        <ele>243.35</ele>
        <time>2021-08-11T12:46:34Z</time>
      </trkpt>
      <trkpt lat="47.49574" lon="3.89753">
        <ele>243.35</ele>
        <time>2021-08-11T12:46:53Z</time>
      </trkpt>
      <trkpt lat="47.49573" lon="3.89753">
        <ele>243.83</ele>
        <time>2021-08-11T12:47:21Z</time>
      </trkpt>
      <trkpt lat="47.49577" lon="3.89755">
        <ele>243.83</ele>
        <time>2021-08-11T12:47:49Z</time>
      </trkpt>
      <trkpt lat="47.49579" lon="3.89755">
        <ele>243.83</ele>
        <time>2021-08-11T12:48:16Z</time>
      </trkpt>
      <trkpt lat="47.49582" lon="3.89757">
        <ele>243.83</ele>
        <time>2021-08-11T12:48:44Z</time>
      </trkpt>
      <trkpt lat="47.49581" lon="3.89756">
        <ele>244.31</ele>
        <time>2021-08-11T12:49:14Z</time>
      </trkpt>
      <trkpt lat="47.49579" lon="3.89754">
        <ele>245.75</ele>
        <time>2021-08-11T12:49:34Z</time>
      </trkpt>
      <trkpt lat="47.4958" lon="3.89754">
        <ele>245.75</ele>
        <time>2021-08-11T12:50:00Z</time>
      </trkpt>
      <trkpt lat="47.4958" lon="3.89756">
        <ele>245.75</ele>
        <time>2021-08-11T12:50:23Z</time>
      </trkpt>
      <trkpt lat="47.49584" lon="3.89757">
        <ele>245.75</ele>
        <time>2021-08-11T12:50:44Z</time>
      </trkpt>
      <trkpt lat="47.49583" lon="3.89757">
        <ele>246.23</ele>
        <time>2021-08-11T12:51:14Z</time>
      </trkpt>
      <trkpt lat="47.49581" lon="3.89756">
        <ele>246.23</ele>
        <time>2021-08-11T12:51:21Z</time>
      </trkpt>
      <trkpt lat="47.49579" lon="3.89755">
        <ele>246.23</ele>
        <time>2021-08-11T12:51:24Z</time>
      </trkpt>
      <trkpt lat="47.49578" lon="3.89757">
        <ele>246.23</ele>
        <time>2021-08-11T12:51:33Z</time>
      </trkpt>
      <trkpt lat="47.49579" lon="3.89759">
        <ele>246.23</ele>
        <time>2021-08-11T12:51:44Z</time>
      </trkpt>
      <trkpt lat="47.49579" lon="3.89758">
        <ele>246.23</ele>
        <time>2021-08-11T12:52:06Z</time>
      </trkpt>
      <trkpt lat="47.4958" lon="3.89757">
        <ele>246.72</ele>
        <time>2021-08-11T12:52:26Z</time>
      </trkpt>
      <trkpt lat="47.4958" lon="3.89758">
        <ele>246.72</ele>
        <time>2021-08-11T12:52:40Z</time>
      </trkpt>
      <trkpt lat="47.4958" lon="3.89756">
        <ele>246.72</ele>
        <time>2021-08-11T12:53:00Z</time>
      </trkpt>
      <trkpt lat="47.49581" lon="3.89756">
        <ele>246.72</ele>
        <time>2021-08-11T12:53:23Z</time>
      </trkpt>
      <trkpt lat="47.4958" lon="3.89758">
        <ele>246.72</ele>
        <time>2021-08-11T12:53:37Z</time>
      </trkpt>
      <trkpt lat="47.49579" lon="3.89757">
        <ele>246.72</ele>
        <time>2021-08-11T12:53:56Z</time>
      </trkpt>
      <trkpt lat="47.4958" lon="3.89754">
        <ele>247.2</ele>
        <time>2021-08-11T12:54:24Z</time>
      </trkpt>
      <trkpt lat="47.49574" lon="3.89756">
        <ele>247.2</ele>
        <time>2021-08-11T12:54:49Z</time>
      </trkpt>
      <trkpt lat="47.49573" lon="3.89755">
        <ele>247.2</ele>
        <time>2021-08-11T12:55:07Z</time>
      </trkpt>
      <trkpt lat="47.49573" lon="3.89756">
        <ele>247.2</ele>
        <time>2021-08-11T12:55:26Z</time>
      </trkpt>
      <trkpt lat="47.49572" lon="3.89753">
        <ele>247.68</ele>
        <time>2021-08-11T12:55:51Z</time>
      </trkpt>
      <trkpt lat="47.49573" lon="3.89754">
        <ele>247.68</ele>
        <time>2021-08-11T12:56:09Z</time>
      </trkpt>
      <trkpt lat="47.49576" lon="3.89753">
        <ele>248.16</ele>
        <time>2021-08-11T12:56:26Z</time>
      </trkpt>
      <trkpt lat="47.49577" lon="3.89754">
        <ele>248.16</ele>
        <time>2021-08-11T12:56:34Z</time>
      </trkpt>
      <trkpt lat="47.49574" lon="3.89754">
        <ele>248.16</ele>
        <time>2021-08-11T12:56:58Z</time>
      </trkpt>
      <trkpt lat="47.49574" lon="3.89757">
        <ele>248.16</ele>
        <time>2021-08-11T12:57:14Z</time>
      </trkpt>
      <trkpt lat="47.49574" lon="3.89755">
        <ele>248.16</ele>
        <time>2021-08-11T12:57:33Z</time>
      </trkpt>
      <trkpt lat="47.49574" lon="3.89755">
        <ele>248.16</ele>
        <time>2021-08-11T12:57:51Z</time>
      </trkpt>
      <trkpt lat="47.49572" lon="3.89754">
        <ele>248.16</ele>
        <time>2021-08-11T12:58:08Z</time>
      </trkpt>
      <trkpt lat="47.49574" lon="3.89754">
        <ele>248.16</ele>
        <time>2021-08-11T12:58:30Z</time>
      </trkpt>
      <trkpt lat="47.49575" lon="3.89752">
        <ele>248.16</ele>
        <time>2021-08-11T12:58:54Z</time>
      </trkpt>
      <trkpt lat="47.49574" lon="3.89753">
        <ele>248.16</ele>
        <time>2021-08-11T12:59:21Z</time>
      </trkpt>
      <trkpt lat="47.49572" lon="3.89754">
        <ele>248.16</ele>
        <time>2021-08-11T12:59:36Z</time>
      </trkpt>
      <trkpt lat="47.49574" lon="3.89754">
        <ele>248.16</ele>
        <time>2021-08-11T12:59:55Z</time>
      </trkpt>
      <trkpt lat="47.49577" lon="3.89754">
        <ele>248.16</ele>
        <time>2021-08-11T13:00:13Z</time>
      </trkpt>
      <trkpt lat="47.49579" lon="3.89756">
        <ele>248.16</ele>
        <time>2021-08-11T13:00:36Z</time>
      </trkpt>
      <trkpt lat="47.49582" lon="3.89757">
        <ele>248.16</ele>
        <time>2021-08-11T13:00:53Z</time>
      </trkpt>
      <trkpt lat="47.49583" lon="3.89757">
        <ele>248.16</ele>
        <time>2021-08-11T13:01:07Z</time>
      </trkpt>
      <trkpt lat="47.49583" lon="3.89757">
        <ele>248.16</ele>
        <time>2021-08-11T13:01:22Z</time>
      </trkpt>
      <trkpt lat="47.49582" lon="3.89758">
        <ele>248.16</ele>
        <time>2021-08-11T13:01:32Z</time>
      </trkpt>
      <trkpt lat="47.4958" lon="3.89757">
        <ele>248.64</ele>
        <time>2021-08-11T13:01:43Z</time>
      </trkpt>
      <trkpt lat="47.49583" lon="3.89757">
        <ele>248.64</ele>
        <time>2021-08-11T13:01:55Z</time>
      </trkpt>
      <trkpt lat="47.49581" lon="3.89757">
        <ele>248.64</ele>
        <time>2021-08-11T13:02:03Z</time>
      </trkpt>
      <trkpt lat="47.49582" lon="3.89757">
        <ele>248.64</ele>
        <time>2021-08-11T13:02:16Z</time>
      </trkpt>
      <trkpt lat="47.49581" lon="3.89756">
        <ele>249.12</ele>
        <time>2021-08-11T13:02:29Z</time>
      </trkpt>
      <trkpt lat="47.49577" lon="3.89752">
        <ele>249.12</ele>
        <time>2021-08-11T13:02:45Z</time>
      </trkpt>
      <trkpt lat="47.49576" lon="3.89752">
        <ele>249.12</ele>
        <time>2021-08-11T13:03:00Z</time>
      </trkpt>
      <trkpt lat="47.49576" lon="3.89751">
        <ele>249.12</ele>
        <time>2021-08-11T13:03:13Z</time>
      </trkpt>
      <trkpt lat="47.49574" lon="3.89752">
        <ele>249.12</ele>
        <time>2021-08-11T13:03:34Z</time>
      </trkpt>
      <trkpt lat="47.49575" lon="3.89753">
        <ele>249.12</ele>
        <time>2021-08-11T13:03:52Z</time>
      </trkpt>
      <trkpt lat="47.49579" lon="3.89754">
        <ele>248.16</ele>
        <time>2021-08-11T13:04:17Z</time>
      </trkpt>
      <trkpt lat="47.49583" lon="3.89754">
        <ele>249.12</ele>
        <time>2021-08-11T13:04:26Z</time>
      </trkpt>
      <trkpt lat="47.49581" lon="3.89754">
        <ele>249.12</ele>
        <time>2021-08-11T13:04:37Z</time>
      </trkpt>
      <trkpt lat="47.49581" lon="3.89754">
        <ele>249.6</ele>
        <time>2021-08-11T13:04:53Z</time>
      </trkpt>
      <trkpt lat="47.49579" lon="3.89752">
        <ele>249.6</ele>
        <time>2021-08-11T13:05:15Z</time>
      </trkpt>
      <trkpt lat="47.4958" lon="3.89753">
        <ele>249.6</ele>
        <time>2021-08-11T13:05:36Z</time>
      </trkpt>
      <trkpt lat="47.49581" lon="3.89753">
        <ele>249.6</ele>
        <time>2021-08-11T13:05:54Z</time>
      </trkpt>
      <trkpt lat="47.49581" lon="3.89752">
        <ele>249.6</ele>
        <time>2021-08-11T13:06:11Z</time>
      </trkpt>
      <trkpt lat="47.49583" lon="3.89751">
        <ele>250.08</ele>
        <time>2021-08-11T13:06:25Z</time>
      </trkpt>
      <trkpt lat="47.49589" lon="3.89752">
        <ele>250.08</ele>
        <time>2021-08-11T13:06:44Z</time>
      </trkpt>
      <trkpt lat="47.49594" lon="3.89753">
        <ele>250.08</ele>
        <time>2021-08-11T13:07:04Z</time>
      </trkpt>
      <trkpt lat="47.49596" lon="3.89755">
        <ele>250.56</ele>
        <time>2021-08-11T13:07:25Z</time>
      </trkpt>
      <trkpt lat="47.49597" lon="3.89753">
        <ele>250.56</ele>
        <time>2021-08-11T13:07:42Z</time>
      </trkpt>
      <trkpt lat="47.49596" lon="3.89751">
        <ele>251.04</ele>
        <time>2021-08-11T13:07:54Z</time>
      </trkpt>
      <trkpt lat="47.49594" lon="3.8975">
        <ele>251.04</ele>
        <time>2021-08-11T13:08:05Z</time>
      </trkpt>
      <trkpt lat="47.49596" lon="3.89753">
        <ele>251.52</ele>
        <time>2021-08-11T13:08:17Z</time>
      </trkpt>
      <trkpt lat="47.49594" lon="3.89756">
        <ele>251.52</ele>
        <time>2021-08-11T13:08:28Z</time>
      </trkpt>
      <trkpt lat="47.49593" lon="3.89757">
        <ele>251.52</ele>
        <time>2021-08-11T13:08:44Z</time>
      </trkpt>
      <trkpt lat="47.49594" lon="3.89758">
        <ele>252</ele>
        <time>2021-08-11T13:08:59Z</time>
      </trkpt>
      <trkpt lat="47.49596" lon="3.89759">
        <ele>252</ele>
        <time>2021-08-11T13:09:15Z</time>
      </trkpt>
      <trkpt lat="47.49594" lon="3.89757">
        <ele>252.48</ele>
        <time>2021-08-11T13:09:33Z</time>
      </trkpt>
      <trkpt lat="47.49594" lon="3.89757">
        <ele>252.48</ele>
        <time>2021-08-11T13:09:49Z</time>
      </trkpt>
      <trkpt lat="47.49594" lon="3.89757">
        <ele>252.48</ele>
        <time>2021-08-11T13:10:02Z</time>
      </trkpt>
      <trkpt lat="47.49591" lon="3.89757">
        <ele>252.96</ele>
        <time>2021-08-11T13:10:25Z</time>
      </trkpt>
      <trkpt lat="47.49588" lon="3.89757">
        <ele>252.96</ele>
        <time>2021-08-11T13:10:42Z</time>
      </trkpt>
      <trkpt lat="47.49587" lon="3.89757">
        <ele>252.96</ele>
        <time>2021-08-11T13:10:58Z</time>
      </trkpt>
      <trkpt lat="47.49587" lon="3.89757">
        <ele>253.44</ele>
        <time>2021-08-11T13:11:11Z</time>
      </trkpt>
      <trkpt lat="47.49587" lon="3.89755">
        <ele>253.93</ele>
        <time>2021-08-11T13:11:34Z</time>
      </trkpt>
      <trkpt lat="47.49585" lon="3.89755">
        <ele>253.93</ele>
        <time>2021-08-11T13:11:52Z</time>
      </trkpt>
      <trkpt lat="47.49585" lon="3.89754">
        <ele>254.41</ele>
        <time>2021-08-11T13:12:07Z</time>
      </trkpt>
      <trkpt lat="47.49585" lon="3.89754">
        <ele>254.41</ele>
        <time>2021-08-11T13:12:24Z</time>
      </trkpt>
      <trkpt lat="47.49582" lon="3.89756">
        <ele>254.41</ele>
        <time>2021-08-11T13:12:41Z</time>
      </trkpt>
      <trkpt lat="47.49582" lon="3.89757">
        <ele>254.41</ele>
        <time>2021-08-11T13:13:02Z</time>
      </trkpt>
      <trkpt lat="47.49581" lon="3.89756">
        <ele>254.41</ele>
        <time>2021-08-11T13:13:21Z</time>
      </trkpt>
      <trkpt lat="47.49581" lon="3.89756">
        <ele>254.41</ele>
        <time>2021-08-11T13:13:37Z</time>
      </trkpt>
      <trkpt lat="47.49581" lon="3.89758">
        <ele>254.41</ele>
        <time>2021-08-11T13:13:55Z</time>
      </trkpt>
      <trkpt lat="47.4958" lon="3.89758">
        <ele>254.89</ele>
        <time>2021-08-11T13:14:14Z</time>
      </trkpt>
      <trkpt lat="47.4958" lon="3.89759">
        <ele>254.89</ele>
        <time>2021-08-11T13:14:26Z</time>
      </trkpt>
      <trkpt lat="47.49578" lon="3.89759">
        <ele>254.89</ele>
        <time>2021-08-11T13:14:39Z</time>
      </trkpt>
      <trkpt lat="47.49577" lon="3.89756">
        <ele>254.89</ele>
        <time>2021-08-11T13:14:59Z</time>
      </trkpt>
      <trkpt lat="47.49577" lon="3.89755">
        <ele>254.89</ele>
        <time>2021-08-11T13:15:15Z</time>
      </trkpt>
      <trkpt lat="47.49576" lon="3.89755">
        <ele>254.41</ele>
        <time>2021-08-11T13:15:30Z</time>
      </trkpt>
      <trkpt lat="47.49574" lon="3.89754">
        <ele>254.41</ele>
        <time>2021-08-11T13:15:48Z</time>
      </trkpt>
      <trkpt lat="47.49571" lon="3.89753">
        <ele>254.41</ele>
        <time>2021-08-11T13:16:06Z</time>
      </trkpt>
      <trkpt lat="47.49571" lon="3.89753">
        <ele>254.41</ele>
        <time>2021-08-11T13:16:17Z</time>
      </trkpt>
      <trkpt lat="47.49572" lon="3.89753">
        <ele>254.89</ele>
        <time>2021-08-11T13:16:39Z</time>
      </trkpt>
      <trkpt lat="47.49572" lon="3.89753">
        <ele>253.44</ele>
        <time>2021-08-11T13:16:46Z</time>
      </trkpt>
      <trkpt lat="47.49572" lon="3.89752">
        <ele>253.44</ele>
        <time>2021-08-11T13:17:10Z</time>
      </trkpt>
      <trkpt lat="47.4957" lon="3.89752">
        <ele>253.44</ele>
        <time>2021-08-11T13:17:25Z</time>
      </trkpt>
      <trkpt lat="47.49569" lon="3.89751">
        <ele>252.96</ele>
        <time>2021-08-11T13:17:41Z</time>
      </trkpt>
      <trkpt lat="47.49569" lon="3.89753">
        <ele>252.96</ele>
        <time>2021-08-11T13:18:05Z</time>
      </trkpt>
      <trkpt lat="47.49569" lon="3.89755">
        <ele>252.96</ele>
        <time>2021-08-11T13:18:27Z</time>
      </trkpt>
      <trkpt lat="47.4957" lon="3.89754">
        <ele>252.96</ele>
        <time>2021-08-11T13:18:46Z</time>
      </trkpt>
      <trkpt lat="47.49571" lon="3.89754">
        <ele>252.96</ele>
        <time>2021-08-11T13:19:04Z</time>
      </trkpt>
      <trkpt lat="47.49572" lon="3.89756">
        <ele>252.96</ele>
        <time>2021-08-11T13:19:21Z</time>
      </trkpt>
      <trkpt lat="47.49573" lon="3.89754">
        <ele>252.96</ele>
        <time>2021-08-11T13:19:42Z</time>
      </trkpt>
      <trkpt lat="47.49574" lon="3.89754">
        <ele>252.48</ele>
        <time>2021-08-11T13:20:05Z</time>
      </trkpt>
      <trkpt lat="47.49572" lon="3.89754">
        <ele>252.48</ele>
        <time>2021-08-11T13:20:23Z</time>
      </trkpt>
      <trkpt lat="47.49574" lon="3.89755">
        <ele>252.48</ele>
        <time>2021-08-11T13:20:48Z</time>
      </trkpt>
      <trkpt lat="47.49575" lon="3.89755">
        <ele>252.48</ele>
        <time>2021-08-11T13:21:11Z</time>
      </trkpt>
      <trkpt lat="47.49574" lon="3.89755">
        <ele>252.48</ele>
        <time>2021-08-11T13:21:28Z</time>
      </trkpt>
      <trkpt lat="47.49573" lon="3.89754">
        <ele>252.48</ele>
        <time>2021-08-11T13:21:46Z</time>
      </trkpt>
      <trkpt lat="47.49573" lon="3.89756">
        <ele>252.48</ele>
        <time>2021-08-11T13:22:05Z</time>
      </trkpt>
      <trkpt lat="47.49576" lon="3.89759">
        <ele>252.48</ele>
        <time>2021-08-11T13:22:26Z</time>
      </trkpt>
      <trkpt lat="47.49575" lon="3.89757">
        <ele>252.48</ele>
        <time>2021-08-11T13:22:42Z</time>
      </trkpt>
      <trkpt lat="47.49574" lon="3.89757">
        <ele>252.48</ele>
        <time>2021-08-11T13:22:51Z</time>
      </trkpt>
      <trkpt lat="47.49575" lon="3.89758">
        <ele>252.48</ele>
        <time>2021-08-11T13:22:59Z</time>
      </trkpt>
      <trkpt lat="47.4958" lon="3.89764">
        <ele>252.48</ele>
        <time>2021-08-11T13:23:03Z</time>
      </trkpt>
      <trkpt lat="47.49601" lon="3.89781">
        <ele>252.48</ele>
        <time>2021-08-11T13:23:09Z</time>
      </trkpt>
      <trkpt lat="47.49605" lon="3.89783">
        <ele>252.48</ele>
        <time>2021-08-11T13:23:10Z</time>
      </trkpt>
      <trkpt lat="47.49624" lon="3.89797">
        <ele>252.48</ele>
        <time>2021-08-11T13:23:16Z</time>
      </trkpt>
      <trkpt lat="47.49632" lon="3.89802">
        <ele>252.48</ele>
        <time>2021-08-11T13:23:19Z</time>
      </trkpt>
      <trkpt lat="47.49633" lon="3.89813">
        <ele>253.44</ele>
        <time>2021-08-11T13:23:22Z</time>
      </trkpt>
      <trkpt lat="47.49632" lon="3.89817">
        <ele>254.41</ele>
        <time>2021-08-11T13:23:23Z</time>
      </trkpt>
      <trkpt lat="47.49634" lon="3.89821">
        <ele>254.41</ele>
        <time>2021-08-11T13:23:24Z</time>
      </trkpt>
      <trkpt lat="47.49636" lon="3.89823">
        <ele>254.41</ele>
        <time>2021-08-11T13:23:25Z</time>
      </trkpt>
      <trkpt lat="47.49638" lon="3.89825">
        <ele>254.41</ele>
        <time>2021-08-11T13:23:26Z</time>
      </trkpt>
      <trkpt lat="47.49642" lon="3.89826">
        <ele>254.41</ele>
        <time>2021-08-11T13:23:27Z</time>
      </trkpt>
      <trkpt lat="47.49643" lon="3.89827">
        <ele>254.41</ele>
        <time>2021-08-11T13:23:28Z</time>
      </trkpt>
      <trkpt lat="47.4966" lon="3.89841">
        <ele>254.41</ele>
        <time>2021-08-11T13:23:35Z</time>
      </trkpt>
      <trkpt lat="47.4966" lon="3.89846">
        <ele>254.41</ele>
        <time>2021-08-11T13:23:36Z</time>
      </trkpt>
      <trkpt lat="47.49659" lon="3.8985">
        <ele>254.41</ele>
        <time>2021-08-11T13:23:37Z</time>
      </trkpt>
      <trkpt lat="47.49659" lon="3.89853">
        <ele>254.89</ele>
        <time>2021-08-11T13:23:38Z</time>
      </trkpt>
      <trkpt lat="47.49658" lon="3.89857">
        <ele>254.89</ele>
        <time>2021-08-11T13:23:39Z</time>
      </trkpt>
      <trkpt lat="47.49657" lon="3.89861">
        <ele>254.89</ele>
        <time>2021-08-11T13:23:40Z</time>
      </trkpt>
      <trkpt lat="47.49656" lon="3.89865">
        <ele>254.89</ele>
        <time>2021-08-11T13:23:41Z</time>
      </trkpt>
      <trkpt lat="47.49654" lon="3.89869">
        <ele>255.85</ele>
        <time>2021-08-11T13:23:42Z</time>
      </trkpt>
      <trkpt lat="47.49652" lon="3.89874">
        <ele>255.85</ele>
        <time>2021-08-11T13:23:43Z</time>
      </trkpt>
      <trkpt lat="47.49651" lon="3.89878">
        <ele>255.85</ele>
        <time>2021-08-11T13:23:44Z</time>
      </trkpt>
      <trkpt lat="47.49649" lon="3.89883">
        <ele>255.85</ele>
        <time>2021-08-11T13:23:45Z</time>
      </trkpt>
      <trkpt lat="47.49647" lon="3.89887">
        <ele>255.85</ele>
        <time>2021-08-11T13:23:46Z</time>
      </trkpt>
      <trkpt lat="47.49645" lon="3.89891">
        <ele>255.85</ele>
        <time>2021-08-11T13:23:47Z</time>
      </trkpt>
      <trkpt lat="47.4963" lon="3.89923">
        <ele>256.81</ele>
        <time>2021-08-11T13:23:54Z</time>
      </trkpt>
      <trkpt lat="47.49612" lon="3.89966">
        <ele>257.29</ele>
        <time>2021-08-11T13:24:03Z</time>
      </trkpt>
      <trkpt lat="47.49599" lon="3.89997">
        <ele>258.25</ele>
        <time>2021-08-11T13:24:09Z</time>
      </trkpt>
      <trkpt lat="47.49586" lon="3.90028">
        <ele>258.73</ele>
        <time>2021-08-11T13:24:15Z</time>
      </trkpt>
      <trkpt lat="47.49563" lon="3.90083">
        <ele>259.21</ele>
        <time>2021-08-11T13:24:25Z</time>
      </trkpt>
      <trkpt lat="47.49541" lon="3.90131">
        <ele>259.69</ele>
        <time>2021-08-11T13:24:33Z</time>
      </trkpt>
      <trkpt lat="47.49522" lon="3.90175">
        <ele>257.77</ele>
        <time>2021-08-11T13:24:40Z</time>
      </trkpt>
      <trkpt lat="47.495" lon="3.90225">
        <ele>257.29</ele>
        <time>2021-08-11T13:24:47Z</time>
      </trkpt>
      <trkpt lat="47.49471" lon="3.90298">
        <ele>254.89</ele>
        <time>2021-08-11T13:24:55Z</time>
      </trkpt>
      <trkpt lat="47.49452" lon="3.90348">
        <ele>252.96</ele>
        <time>2021-08-11T13:25:00Z</time>
      </trkpt>
      <trkpt lat="47.49427" lon="3.90414">
        <ele>251.52</ele>
        <time>2021-08-11T13:25:07Z</time>
      </trkpt>
      <trkpt lat="47.49391" lon="3.90513">
        <ele>249.12</ele>
        <time>2021-08-11T13:25:17Z</time>
      </trkpt>
      <trkpt lat="47.49365" lon="3.90582">
        <ele>249.12</ele>
        <time>2021-08-11T13:25:25Z</time>
      </trkpt>
      <trkpt lat="47.49357" lon="3.90601">
        <ele>251.04</ele>
        <time>2021-08-11T13:25:28Z</time>
      </trkpt>
      <trkpt lat="47.49355" lon="3.90606">
        <ele>251.52</ele>
        <time>2021-08-11T13:25:29Z</time>
      </trkpt>
      <trkpt lat="47.49335" lon="3.90666">
        <ele>253.93</ele>
        <time>2021-08-11T13:25:40Z</time>
      </trkpt>
      <trkpt lat="47.49322" lon="3.90695">
        <ele>254.89</ele>
        <time>2021-08-11T13:25:47Z</time>
      </trkpt>
      <trkpt lat="47.49309" lon="3.90726">
        <ele>256.33</ele>
        <time>2021-08-11T13:25:56Z</time>
      </trkpt>
      <trkpt lat="47.49294" lon="3.90753">
        <ele>257.29</ele>
        <time>2021-08-11T13:26:05Z</time>
      </trkpt>
      <trkpt lat="47.49274" lon="3.90778">
        <ele>258.73</ele>
        <time>2021-08-11T13:26:14Z</time>
      </trkpt>
      <trkpt lat="47.49252" lon="3.908">
        <ele>260.65</ele>
        <time>2021-08-11T13:26:23Z</time>
      </trkpt>
      <trkpt lat="47.4925" lon="3.90801">
        <ele>260.65</ele>
        <time>2021-08-11T13:26:24Z</time>
      </trkpt>
      <trkpt lat="47.49248" lon="3.90799">
        <ele>260.65</ele>
        <time>2021-08-11T13:26:25Z</time>
      </trkpt>
      <trkpt lat="47.49246" lon="3.90797">
        <ele>260.17</ele>
        <time>2021-08-11T13:26:26Z</time>
      </trkpt>
      <trkpt lat="47.49244" lon="3.90796">
        <ele>260.17</ele>
        <time>2021-08-11T13:26:27Z</time>
      </trkpt>
      <trkpt lat="47.49242" lon="3.90793">
        <ele>260.65</ele>
        <time>2021-08-11T13:26:30Z</time>
      </trkpt>
      <trkpt lat="47.4924" lon="3.90792">
        <ele>260.65</ele>
        <time>2021-08-11T13:26:31Z</time>
      </trkpt>
      <trkpt lat="47.49237" lon="3.90791">
        <ele>260.17</ele>
        <time>2021-08-11T13:26:32Z</time>
      </trkpt>
      <trkpt lat="47.49234" lon="3.9079">
        <ele>260.17</ele>
        <time>2021-08-11T13:26:33Z</time>
      </trkpt>
      <trkpt lat="47.49231" lon="3.9079">
        <ele>260.17</ele>
        <time>2021-08-11T13:26:34Z</time>
      </trkpt>
      <trkpt lat="47.49206" lon="3.90789">
        <ele>260.65</ele>
        <time>2021-08-11T13:26:42Z</time>
      </trkpt>
      <trkpt lat="47.49204" lon="3.90787">
        <ele>260.65</ele>
        <time>2021-08-11T13:26:47Z</time>
      </trkpt>
      <trkpt lat="47.49202" lon="3.90787">
        <ele>260.65</ele>
        <time>2021-08-11T13:26:48Z</time>
      </trkpt>
      <trkpt lat="47.49184" lon="3.90786">
        <ele>261.14</ele>
        <time>2021-08-11T13:26:54Z</time>
      </trkpt>
      <trkpt lat="47.49148" lon="3.90781">
        <ele>261.62</ele>
        <time>2021-08-11T13:27:03Z</time>
      </trkpt>
      <trkpt lat="47.49109" lon="3.90782">
        <ele>262.58</ele>
        <time>2021-08-11T13:27:13Z</time>
      </trkpt>
      <trkpt lat="47.4908" lon="3.90783">
        <ele>263.54</ele>
        <time>2021-08-11T13:27:21Z</time>
      </trkpt>
      <trkpt lat="47.4905" lon="3.90784">
        <ele>264.02</ele>
        <time>2021-08-11T13:27:30Z</time>
      </trkpt>
      <trkpt lat="47.49046" lon="3.90785">
        <ele>264.02</ele>
        <time>2021-08-11T13:27:32Z</time>
      </trkpt>
      <trkpt lat="47.49045" lon="3.90787">
        <ele>264.5</ele>
        <time>2021-08-11T13:27:33Z</time>
      </trkpt>
      <trkpt lat="47.49046" lon="3.90788">
        <ele>264.5</ele>
        <time>2021-08-11T13:27:34Z</time>
      </trkpt>
      <trkpt lat="47.49047" lon="3.90791">
        <ele>264.5</ele>
        <time>2021-08-11T13:27:39Z</time>
      </trkpt>
      <trkpt lat="47.49049" lon="3.9079">
        <ele>264.5</ele>
        <time>2021-08-11T13:27:42Z</time>
      </trkpt>
      <trkpt lat="47.4905" lon="3.9079">
        <ele>264.5</ele>
        <time>2021-08-11T13:27:49Z</time>
      </trkpt>
      <trkpt lat="47.49049" lon="3.90791">
        <ele>264.5</ele>
        <time>2021-08-11T13:27:59Z</time>
      </trkpt>
      <trkpt lat="47.49049" lon="3.90789">
        <ele>264.5</ele>
        <time>2021-08-11T13:28:10Z</time>
      </trkpt>
      <trkpt lat="47.49049" lon="3.90787">
        <ele>264.5</ele>
        <time>2021-08-11T13:28:16Z</time>
      </trkpt>
      <trkpt lat="47.49049" lon="3.90788">
        <ele>264.5</ele>
        <time>2021-08-11T13:28:23Z</time>
      </trkpt>
      <trkpt lat="47.49048" lon="3.90786">
        <ele>264.5</ele>
        <time>2021-08-11T13:28:35Z</time>
      </trkpt>
      <trkpt lat="47.49048" lon="3.90787">
        <ele>264.5</ele>
        <time>2021-08-11T13:28:46Z</time>
      </trkpt>
      <trkpt lat="47.49048" lon="3.90787">
        <ele>264.5</ele>
        <time>2021-08-11T13:28:54Z</time>
      </trkpt>
      <trkpt lat="47.49048" lon="3.90789">
        <ele>264.5</ele>
        <time>2021-08-11T13:29:02Z</time>
      </trkpt>
      <trkpt lat="47.49048" lon="3.90789">
        <ele>264.5</ele>
        <time>2021-08-11T13:29:12Z</time>
      </trkpt>
      <trkpt lat="47.49048" lon="3.90789">
        <ele>264.5</ele>
        <time>2021-08-11T13:29:20Z</time>
      </trkpt>
      <trkpt lat="47.49048" lon="3.90788">
        <ele>264.5</ele>
        <time>2021-08-11T13:29:28Z</time>
      </trkpt>
      <trkpt lat="47.49047" lon="3.90786">
        <ele>264.5</ele>
        <time>2021-08-11T13:29:37Z</time>
      </trkpt>
      <trkpt lat="47.49047" lon="3.90787">
        <ele>264.98</ele>
        <time>2021-08-11T13:29:44Z</time>
      </trkpt>
      <trkpt lat="47.48998" lon="3.90747">
        <ele>263.06</ele>
        <time>2021-08-11T14:01:24Z</time>
      </trkpt>
      <trkpt lat="47.48998" lon="3.90746">
        <ele>263.06</ele>
        <time>2021-08-11T14:01:25Z</time>
      </trkpt>
      <trkpt lat="47.49002" lon="3.90745">
        <ele>263.06</ele>
        <time>2021-08-11T14:01:39Z</time>
      </trkpt>
      <trkpt lat="47.49003" lon="3.9075">
        <ele>263.06</ele>
        <time>2021-08-11T14:01:48Z</time>
      </trkpt>
      <trkpt lat="47.49002" lon="3.90753">
        <ele>263.54</ele>
        <time>2021-08-11T14:01:52Z</time>
      </trkpt>
      <trkpt lat="47.48998" lon="3.90753">
        <ele>264.02</ele>
        <time>2021-08-11T14:01:54Z</time>
      </trkpt>
      <trkpt lat="47.48996" lon="3.90755">
        <ele>264.5</ele>
        <time>2021-08-11T14:01:57Z</time>
      </trkpt>
      <trkpt lat="47.48999" lon="3.90771">
        <ele>265.46</ele>
        <time>2021-08-11T14:02:04Z</time>
      </trkpt>
      <trkpt lat="47.49002" lon="3.90773">
        <ele>265.46</ele>
        <time>2021-08-11T14:02:06Z</time>
      </trkpt>
      <trkpt lat="47.49004" lon="3.90778">
        <ele>266.42</ele>
        <time>2021-08-11T14:02:10Z</time>
      </trkpt>
      <trkpt lat="47.49007" lon="3.90781">
        <ele>266.42</ele>
        <time>2021-08-11T14:02:12Z</time>
      </trkpt>
      <trkpt lat="47.49024" lon="3.90784">
        <ele>266.42</ele>
        <time>2021-08-11T14:02:18Z</time>
      </trkpt>
      <trkpt lat="47.49045" lon="3.90785">
        <ele>264.98</ele>
        <time>2021-08-11T14:02:24Z</time>
      </trkpt>
      <trkpt lat="47.4905" lon="3.90785">
        <ele>264.98</ele>
        <time>2021-08-11T14:02:25Z</time>
      </trkpt>
      <trkpt lat="47.49064" lon="3.90784">
        <ele>264.5</ele>
        <time>2021-08-11T14:02:28Z</time>
      </trkpt>
      <trkpt lat="47.49103" lon="3.90783">
        <ele>263.54</ele>
        <time>2021-08-11T14:02:36Z</time>
      </trkpt>
      <trkpt lat="47.49149" lon="3.90783">
        <ele>262.58</ele>
        <time>2021-08-11T14:02:45Z</time>
      </trkpt>
      <trkpt lat="47.4916" lon="3.90785">
        <ele>262.1</ele>
        <time>2021-08-11T14:02:47Z</time>
      </trkpt>
      <trkpt lat="47.49208" lon="3.90791">
        <ele>261.62</ele>
        <time>2021-08-11T14:02:57Z</time>
      </trkpt>
      <trkpt lat="47.49212" lon="3.90792">
        <ele>261.62</ele>
        <time>2021-08-11T14:02:58Z</time>
      </trkpt>
      <trkpt lat="47.49216" lon="3.90795">
        <ele>261.62</ele>
        <time>2021-08-11T14:02:59Z</time>
      </trkpt>
      <trkpt lat="47.49232" lon="3.90802">
        <ele>261.14</ele>
        <time>2021-08-11T14:03:04Z</time>
      </trkpt>
      <trkpt lat="47.49238" lon="3.90811">
        <ele>261.14</ele>
        <time>2021-08-11T14:03:06Z</time>
      </trkpt>
      <trkpt lat="47.49239" lon="3.90817">
        <ele>261.14</ele>
        <time>2021-08-11T14:03:07Z</time>
      </trkpt>
      <trkpt lat="47.4924" lon="3.90824">
        <ele>261.14</ele>
        <time>2021-08-11T14:03:08Z</time>
      </trkpt>
      <trkpt lat="47.49239" lon="3.90829">
        <ele>261.14</ele>
        <time>2021-08-11T14:03:09Z</time>
      </trkpt>
      <trkpt lat="47.49237" lon="3.90835">
        <ele>261.14</ele>
        <time>2021-08-11T14:03:10Z</time>
      </trkpt>
      <trkpt lat="47.49235" lon="3.90841">
        <ele>261.14</ele>
        <time>2021-08-11T14:03:11Z</time>
      </trkpt>
      <trkpt lat="47.4922" lon="3.90889">
        <ele>263.06</ele>
        <time>2021-08-11T14:03:20Z</time>
      </trkpt>
      <trkpt lat="47.49203" lon="3.90943">
        <ele>264.02</ele>
        <time>2021-08-11T14:03:31Z</time>
      </trkpt>
      <trkpt lat="47.49187" lon="3.90997">
        <ele>264.98</ele>
        <time>2021-08-11T14:03:42Z</time>
      </trkpt>
      <trkpt lat="47.49168" lon="3.9106">
        <ele>266.9</ele>
        <time>2021-08-11T14:03:55Z</time>
      </trkpt>
      <trkpt lat="47.49155" lon="3.91101">
        <ele>267.38</ele>
        <time>2021-08-11T14:04:03Z</time>
      </trkpt>
      <trkpt lat="47.49138" lon="3.9115">
        <ele>268.35</ele>
        <time>2021-08-11T14:04:13Z</time>
      </trkpt>
      <trkpt lat="47.4912" lon="3.91198">
        <ele>268.35</ele>
        <time>2021-08-11T14:04:23Z</time>
      </trkpt>
      <trkpt lat="47.4912" lon="3.912">
        <ele>268.35</ele>
        <time>2021-08-11T14:04:27Z</time>
      </trkpt>
      <trkpt lat="47.49119" lon="3.91208">
        <ele>268.35</ele>
        <time>2021-08-11T14:04:35Z</time>
      </trkpt>
      <trkpt lat="47.49119" lon="3.91213">
        <ele>268.35</ele>
        <time>2021-08-11T14:04:36Z</time>
      </trkpt>
      <trkpt lat="47.49119" lon="3.91217">
        <ele>268.35</ele>
        <time>2021-08-11T14:04:37Z</time>
      </trkpt>
      <trkpt lat="47.49121" lon="3.91223">
        <ele>268.35</ele>
        <time>2021-08-11T14:04:38Z</time>
      </trkpt>
      <trkpt lat="47.49122" lon="3.91229">
        <ele>268.35</ele>
        <time>2021-08-11T14:04:39Z</time>
      </trkpt>
      <trkpt lat="47.49129" lon="3.91273">
        <ele>268.35</ele>
        <time>2021-08-11T14:04:46Z</time>
      </trkpt>
      <trkpt lat="47.49134" lon="3.9134">
        <ele>268.83</ele>
        <time>2021-08-11T14:04:56Z</time>
      </trkpt>
      <trkpt lat="47.49138" lon="3.91413">
        <ele>268.83</ele>
        <time>2021-08-11T14:05:06Z</time>
      </trkpt>
      <trkpt lat="47.49143" lon="3.9148">
        <ele>268.83</ele>
        <time>2021-08-11T14:05:15Z</time>
      </trkpt>
      <trkpt lat="47.49152" lon="3.91548">
        <ele>269.31</ele>
        <time>2021-08-11T14:05:25Z</time>
      </trkpt>
      <trkpt lat="47.49155" lon="3.91568">
        <ele>269.31</ele>
        <time>2021-08-11T14:05:28Z</time>
      </trkpt>
      <trkpt lat="47.49156" lon="3.91575">
        <ele>269.31</ele>
        <time>2021-08-11T14:05:29Z</time>
      </trkpt>
      <trkpt lat="47.49157" lon="3.91581">
        <ele>269.31</ele>
        <time>2021-08-11T14:05:30Z</time>
      </trkpt>
      <trkpt lat="47.49158" lon="3.91588">
        <ele>269.31</ele>
        <time>2021-08-11T14:05:31Z</time>
      </trkpt>
      <trkpt lat="47.49158" lon="3.91594">
        <ele>269.31</ele>
        <time>2021-08-11T14:05:32Z</time>
      </trkpt>
      <trkpt lat="47.49158" lon="3.91613">
        <ele>269.31</ele>
        <time>2021-08-11T14:05:35Z</time>
      </trkpt>
      <trkpt lat="47.49159" lon="3.91625">
        <ele>269.31</ele>
        <time>2021-08-11T14:05:37Z</time>
      </trkpt>
      <trkpt lat="47.49159" lon="3.91632">
        <ele>269.31</ele>
        <time>2021-08-11T14:05:38Z</time>
      </trkpt>
      <trkpt lat="47.49161" lon="3.91655">
        <ele>270.75</ele>
        <time>2021-08-11T14:05:44Z</time>
      </trkpt>
      <trkpt lat="47.4916" lon="3.91653">
        <ele>270.27</ele>
        <time>2021-08-11T14:05:53Z</time>
      </trkpt>
      <trkpt lat="47.49163" lon="3.91653">
        <ele>270.27</ele>
        <time>2021-08-11T14:06:10Z</time>
      </trkpt>
      <trkpt lat="47.49163" lon="3.91652">
        <ele>270.27</ele>
        <time>2021-08-11T14:06:28Z</time>
      </trkpt>
      <trkpt lat="47.49164" lon="3.91652">
        <ele>270.27</ele>
        <time>2021-08-11T14:06:40Z</time>
      </trkpt>
      <trkpt lat="47.49165" lon="3.91653">
        <ele>270.27</ele>
        <time>2021-08-11T14:06:54Z</time>
      </trkpt>
      <trkpt lat="47.49166" lon="3.91652">
        <ele>270.27</ele>
        <time>2021-08-11T14:07:07Z</time>
      </trkpt>
      <trkpt lat="47.49164" lon="3.91653">
        <ele>270.27</ele>
        <time>2021-08-11T14:07:23Z</time>
      </trkpt>
      <trkpt lat="47.49163" lon="3.91652">
        <ele>270.27</ele>
        <time>2021-08-11T14:07:39Z</time>
      </trkpt>
      <trkpt lat="47.49163" lon="3.91652">
        <ele>270.27</ele>
        <time>2021-08-11T14:07:59Z</time>
      </trkpt>
      <trkpt lat="47.49164" lon="3.91653">
        <ele>270.27</ele>
        <time>2021-08-11T14:08:16Z</time>
      </trkpt>
      <trkpt lat="47.49166" lon="3.91666">
        <ele>270.27</ele>
        <time>2021-08-11T14:08:22Z</time>
      </trkpt>
      <trkpt lat="47.49168" lon="3.91698">
        <ele>270.75</ele>
        <time>2021-08-11T14:08:29Z</time>
      </trkpt>
      <trkpt lat="47.49172" lon="3.91727">
        <ele>270.75</ele>
        <time>2021-08-11T14:08:34Z</time>
      </trkpt>
      <trkpt lat="47.49174" lon="3.91733">
        <ele>270.75</ele>
        <time>2021-08-11T14:08:35Z</time>
      </trkpt>
      <trkpt lat="47.49175" lon="3.91739">
        <ele>270.75</ele>
        <time>2021-08-11T14:08:36Z</time>
      </trkpt>
      <trkpt lat="47.49176" lon="3.91745">
        <ele>270.75</ele>
        <time>2021-08-11T14:08:37Z</time>
      </trkpt>
      <trkpt lat="47.49177" lon="3.91752">
        <ele>270.75</ele>
        <time>2021-08-11T14:08:38Z</time>
      </trkpt>
      <trkpt lat="47.49182" lon="3.91775">
        <ele>271.23</ele>
        <time>2021-08-11T14:08:42Z</time>
      </trkpt>
      <trkpt lat="47.49182" lon="3.91781">
        <ele>271.23</ele>
        <time>2021-08-11T14:08:43Z</time>
      </trkpt>
      <trkpt lat="47.49183" lon="3.91787">
        <ele>271.23</ele>
        <time>2021-08-11T14:08:44Z</time>
      </trkpt>
      <trkpt lat="47.4919" lon="3.91851">
        <ele>271.71</ele>
        <time>2021-08-11T14:08:54Z</time>
      </trkpt>
      <trkpt lat="47.49199" lon="3.91914">
        <ele>271.71</ele>
        <time>2021-08-11T14:09:04Z</time>
      </trkpt>
      <trkpt lat="47.49206" lon="3.91948">
        <ele>271.71</ele>
        <time>2021-08-11T14:09:09Z</time>
      </trkpt>
      <trkpt lat="47.4922" lon="3.92021">
        <ele>270.27</ele>
        <time>2021-08-11T14:09:18Z</time>
      </trkpt>
      <trkpt lat="47.49226" lon="3.92064">
        <ele>270.27</ele>
        <time>2021-08-11T14:09:23Z</time>
      </trkpt>
      <trkpt lat="47.49225" lon="3.92073">
        <ele>269.31</ele>
        <time>2021-08-11T14:09:24Z</time>
      </trkpt>
      <trkpt lat="47.49222" lon="3.92082">
        <ele>269.31</ele>
        <time>2021-08-11T14:09:25Z</time>
      </trkpt>
      <trkpt lat="47.49218" lon="3.92089">
        <ele>269.31</ele>
        <time>2021-08-11T14:09:26Z</time>
      </trkpt>
      <trkpt lat="47.49215" lon="3.92094">
        <ele>268.83</ele>
        <time>2021-08-11T14:09:27Z</time>
      </trkpt>
      <trkpt lat="47.4921" lon="3.92099">
        <ele>268.83</ele>
        <time>2021-08-11T14:09:28Z</time>
      </trkpt>
      <trkpt lat="47.49206" lon="3.92103">
        <ele>268.83</ele>
        <time>2021-08-11T14:09:29Z</time>
      </trkpt>
      <trkpt lat="47.49198" lon="3.92114">
        <ele>268.83</ele>
        <time>2021-08-11T14:09:31Z</time>
      </trkpt>
      <trkpt lat="47.49157" lon="3.92168">
        <ele>268.83</ele>
        <time>2021-08-11T14:09:42Z</time>
      </trkpt>
      <trkpt lat="47.49135" lon="3.92195">
        <ele>270.27</ele>
        <time>2021-08-11T14:09:49Z</time>
      </trkpt>
      <trkpt lat="47.49117" lon="3.92238">
        <ele>271.71</ele>
        <time>2021-08-11T14:09:59Z</time>
      </trkpt>
      <trkpt lat="47.49111" lon="3.92254">
        <ele>272.19</ele>
        <time>2021-08-11T14:10:06Z</time>
      </trkpt>
      <trkpt lat="47.49105" lon="3.92275">
        <ele>273.63</ele>
        <time>2021-08-11T14:10:13Z</time>
      </trkpt>
      <trkpt lat="47.49096" lon="3.92303">
        <ele>275.07</ele>
        <time>2021-08-11T14:10:21Z</time>
      </trkpt>
      <trkpt lat="47.49085" lon="3.92339">
        <ele>276.04</ele>
        <time>2021-08-11T14:10:31Z</time>
      </trkpt>
      <trkpt lat="47.49072" lon="3.9238">
        <ele>277</ele>
        <time>2021-08-11T14:10:42Z</time>
      </trkpt>
      <trkpt lat="47.49058" lon="3.92409">
        <ele>277.48</ele>
        <time>2021-08-11T14:10:50Z</time>
      </trkpt>
      <trkpt lat="47.49039" lon="3.92447">
        <ele>278.44</ele>
        <time>2021-08-11T14:11:01Z</time>
      </trkpt>
      <trkpt lat="47.4902" lon="3.92484">
        <ele>279.88</ele>
        <time>2021-08-11T14:11:12Z</time>
      </trkpt>
      <trkpt lat="47.49002" lon="3.92517">
        <ele>281.8</ele>
        <time>2021-08-11T14:11:22Z</time>
      </trkpt>
      <trkpt lat="47.48982" lon="3.92555">
        <ele>282.77</ele>
        <time>2021-08-11T14:11:34Z</time>
      </trkpt>
      <trkpt lat="47.48962" lon="3.92595">
        <ele>284.69</ele>
        <time>2021-08-11T14:11:46Z</time>
      </trkpt>
      <trkpt lat="47.48941" lon="3.92638">
        <ele>286.13</ele>
        <time>2021-08-11T14:11:59Z</time>
      </trkpt>
      <trkpt lat="47.48926" lon="3.92667">
        <ele>287.57</ele>
        <time>2021-08-11T14:12:08Z</time>
      </trkpt>
      <trkpt lat="47.4891" lon="3.92699">
        <ele>289.01</ele>
        <time>2021-08-11T14:12:18Z</time>
      </trkpt>
      <trkpt lat="47.48895" lon="3.92727">
        <ele>289.97</ele>
        <time>2021-08-11T14:12:27Z</time>
      </trkpt>
      <trkpt lat="47.48876" lon="3.92763">
        <ele>290.46</ele>
        <time>2021-08-11T14:12:39Z</time>
      </trkpt>
      <trkpt lat="47.48852" lon="3.92809">
        <ele>292.86</ele>
        <time>2021-08-11T14:12:53Z</time>
      </trkpt>
      <trkpt lat="47.48831" lon="3.9285">
        <ele>293.34</ele>
        <time>2021-08-11T14:13:06Z</time>
      </trkpt>
      <trkpt lat="47.48816" lon="3.92879">
        <ele>294.78</ele>
        <time>2021-08-11T14:13:15Z</time>
      </trkpt>
      <trkpt lat="47.48804" lon="3.92914">
        <ele>295.74</ele>
        <time>2021-08-11T14:13:25Z</time>
      </trkpt>
      <trkpt lat="47.488" lon="3.92944">
        <ele>296.22</ele>
        <time>2021-08-11T14:13:32Z</time>
      </trkpt>
      <trkpt lat="47.48796" lon="3.92991">
        <ele>296.7</ele>
        <time>2021-08-11T14:13:41Z</time>
      </trkpt>
      <trkpt lat="47.48791" lon="3.9305">
        <ele>297.18</ele>
        <time>2021-08-11T14:13:51Z</time>
      </trkpt>
      <trkpt lat="47.4879" lon="3.93056">
        <ele>297.18</ele>
        <time>2021-08-11T14:13:52Z</time>
      </trkpt>
      <trkpt lat="47.4879" lon="3.93062">
        <ele>297.18</ele>
        <time>2021-08-11T14:13:53Z</time>
      </trkpt>
      <trkpt lat="47.48787" lon="3.93112">
        <ele>297.18</ele>
        <time>2021-08-11T14:14:01Z</time>
      </trkpt>
      <trkpt lat="47.48782" lon="3.93164">
        <ele>297.67</ele>
        <time>2021-08-11T14:14:10Z</time>
      </trkpt>
      <trkpt lat="47.4877" lon="3.93217">
        <ele>298.15</ele>
        <time>2021-08-11T14:14:19Z</time>
      </trkpt>
      <trkpt lat="47.48759" lon="3.93256">
        <ele>298.15</ele>
        <time>2021-08-11T14:14:26Z</time>
      </trkpt>
      <trkpt lat="47.48756" lon="3.93262">
        <ele>298.15</ele>
        <time>2021-08-11T14:14:27Z</time>
      </trkpt>
      <trkpt lat="47.48748" lon="3.93282">
        <ele>297.18</ele>
        <time>2021-08-11T14:14:30Z</time>
      </trkpt>
      <trkpt lat="47.48729" lon="3.93336">
        <ele>294.78</ele>
        <time>2021-08-11T14:14:37Z</time>
      </trkpt>
      <trkpt lat="47.48704" lon="3.93404">
        <ele>291.42</ele>
        <time>2021-08-11T14:14:45Z</time>
      </trkpt>
      <trkpt lat="47.48695" lon="3.9343">
        <ele>289.97</ele>
        <time>2021-08-11T14:14:48Z</time>
      </trkpt>
      <trkpt lat="47.48685" lon="3.93456">
        <ele>288.53</ele>
        <time>2021-08-11T14:14:51Z</time>
      </trkpt>
      <trkpt lat="47.48672" lon="3.93493">
        <ele>285.17</ele>
        <time>2021-08-11T14:14:55Z</time>
      </trkpt>
      <trkpt lat="47.48657" lon="3.93533">
        <ele>281.8</ele>
        <time>2021-08-11T14:14:59Z</time>
      </trkpt>
      <trkpt lat="47.48644" lon="3.93564">
        <ele>278.44</ele>
        <time>2021-08-11T14:15:02Z</time>
      </trkpt>
      <trkpt lat="47.48621" lon="3.93604">
        <ele>274.59</ele>
        <time>2021-08-11T14:15:07Z</time>
      </trkpt>
      <trkpt lat="47.48616" lon="3.9361">
        <ele>273.63</ele>
        <time>2021-08-11T14:15:08Z</time>
      </trkpt>
      <trkpt lat="47.48611" lon="3.93616">
        <ele>273.15</ele>
        <time>2021-08-11T14:15:09Z</time>
      </trkpt>
      <trkpt lat="47.48605" lon="3.93621">
        <ele>272.19</ele>
        <time>2021-08-11T14:15:10Z</time>
      </trkpt>
      <trkpt lat="47.48588" lon="3.93633">
        <ele>270.27</ele>
        <time>2021-08-11T14:15:13Z</time>
      </trkpt>
      <trkpt lat="47.48583" lon="3.93635">
        <ele>269.31</ele>
        <time>2021-08-11T14:15:14Z</time>
      </trkpt>
      <trkpt lat="47.48576" lon="3.93637">
        <ele>268.83</ele>
        <time>2021-08-11T14:15:15Z</time>
      </trkpt>
      <trkpt lat="47.4857" lon="3.93639">
        <ele>268.35</ele>
        <time>2021-08-11T14:15:16Z</time>
      </trkpt>
      <trkpt lat="47.48563" lon="3.9364">
        <ele>267.86</ele>
        <time>2021-08-11T14:15:17Z</time>
      </trkpt>
      <trkpt lat="47.48511" lon="3.93649">
        <ele>264.98</ele>
        <time>2021-08-11T14:15:25Z</time>
      </trkpt>
      <trkpt lat="47.48469" lon="3.93672">
        <ele>262.1</ele>
        <time>2021-08-11T14:15:32Z</time>
      </trkpt>
      <trkpt lat="47.48464" lon="3.93677">
        <ele>261.62</ele>
        <time>2021-08-11T14:15:33Z</time>
      </trkpt>
      <trkpt lat="47.48445" lon="3.93702">
        <ele>258.73</ele>
        <time>2021-08-11T14:15:37Z</time>
      </trkpt>
      <trkpt lat="47.48427" lon="3.93732">
        <ele>255.85</ele>
        <time>2021-08-11T14:15:41Z</time>
      </trkpt>
      <trkpt lat="47.4842" lon="3.93748">
        <ele>253.93</ele>
        <time>2021-08-11T14:15:43Z</time>
      </trkpt>
      <trkpt lat="47.48418" lon="3.93757">
        <ele>253.44</ele>
        <time>2021-08-11T14:15:44Z</time>
      </trkpt>
      <trkpt lat="47.48415" lon="3.93774">
        <ele>252.96</ele>
        <time>2021-08-11T14:15:46Z</time>
      </trkpt>
      <trkpt lat="47.48411" lon="3.93804">
        <ele>249.12</ele>
        <time>2021-08-11T14:15:50Z</time>
      </trkpt>
      <trkpt lat="47.48408" lon="3.93812">
        <ele>248.64</ele>
        <time>2021-08-11T14:15:51Z</time>
      </trkpt>
      <trkpt lat="47.48405" lon="3.93819">
        <ele>248.16</ele>
        <time>2021-08-11T14:15:52Z</time>
      </trkpt>
      <trkpt lat="47.48401" lon="3.93825">
        <ele>247.68</ele>
        <time>2021-08-11T14:15:53Z</time>
      </trkpt>
      <trkpt lat="47.48397" lon="3.93831">
        <ele>247.68</ele>
        <time>2021-08-11T14:15:54Z</time>
      </trkpt>
      <trkpt lat="47.48391" lon="3.93836">
        <ele>246.72</ele>
        <time>2021-08-11T14:15:55Z</time>
      </trkpt>
      <trkpt lat="47.48385" lon="3.93839">
        <ele>246.23</ele>
        <time>2021-08-11T14:15:56Z</time>
      </trkpt>
      <trkpt lat="47.48379" lon="3.93842">
        <ele>246.23</ele>
        <time>2021-08-11T14:15:57Z</time>
      </trkpt>
      <trkpt lat="47.48373" lon="3.93844">
        <ele>245.27</ele>
        <time>2021-08-11T14:15:58Z</time>
      </trkpt>
      <trkpt lat="47.48335" lon="3.93851">
        <ele>242.87</ele>
        <time>2021-08-11T14:16:04Z</time>
      </trkpt>
      <trkpt lat="47.48294" lon="3.93856">
        <ele>239.99</ele>
        <time>2021-08-11T14:16:10Z</time>
      </trkpt>
      <trkpt lat="47.48259" lon="3.93859">
        <ele>238.06</ele>
        <time>2021-08-11T14:16:16Z</time>
      </trkpt>
      <trkpt lat="47.48234" lon="3.93863">
        <ele>237.1</ele>
        <time>2021-08-11T14:16:20Z</time>
      </trkpt>
      <trkpt lat="47.48228" lon="3.93866">
        <ele>236.14</ele>
        <time>2021-08-11T14:16:21Z</time>
      </trkpt>
      <trkpt lat="47.48223" lon="3.93869">
        <ele>236.14</ele>
        <time>2021-08-11T14:16:22Z</time>
      </trkpt>
      <trkpt lat="47.48218" lon="3.93873">
        <ele>235.18</ele>
        <time>2021-08-11T14:16:23Z</time>
      </trkpt>
      <trkpt lat="47.48213" lon="3.93879">
        <ele>234.7</ele>
        <time>2021-08-11T14:16:24Z</time>
      </trkpt>
      <trkpt lat="47.48208" lon="3.93885">
        <ele>234.22</ele>
        <time>2021-08-11T14:16:25Z</time>
      </trkpt>
      <trkpt lat="47.48204" lon="3.93891">
        <ele>233.26</ele>
        <time>2021-08-11T14:16:26Z</time>
      </trkpt>
      <trkpt lat="47.48191" lon="3.93909">
        <ele>231.81</ele>
        <time>2021-08-11T14:16:29Z</time>
      </trkpt>
      <trkpt lat="47.48173" lon="3.93934">
        <ele>228.93</ele>
        <time>2021-08-11T14:16:33Z</time>
      </trkpt>
      <trkpt lat="47.48167" lon="3.9394">
        <ele>227.97</ele>
        <time>2021-08-11T14:16:34Z</time>
      </trkpt>
      <trkpt lat="47.4816" lon="3.93946">
        <ele>227.49</ele>
        <time>2021-08-11T14:16:35Z</time>
      </trkpt>
      <trkpt lat="47.48154" lon="3.93948">
        <ele>226.53</ele>
        <time>2021-08-11T14:16:36Z</time>
      </trkpt>
      <trkpt lat="47.48144" lon="3.93949">
        <ele>225.09</ele>
        <time>2021-08-11T14:16:37Z</time>
      </trkpt>
      <trkpt lat="47.48137" lon="3.93948">
        <ele>224.61</ele>
        <time>2021-08-11T14:16:38Z</time>
      </trkpt>
      <trkpt lat="47.48129" lon="3.93946">
        <ele>223.16</ele>
        <time>2021-08-11T14:16:39Z</time>
      </trkpt>
      <trkpt lat="47.48097" lon="3.93945">
        <ele>219.8</ele>
        <time>2021-08-11T14:16:44Z</time>
      </trkpt>
      <trkpt lat="47.48092" lon="3.93948">
        <ele>219.8</ele>
        <time>2021-08-11T14:16:45Z</time>
      </trkpt>
      <trkpt lat="47.48087" lon="3.93954">
        <ele>218.84</ele>
        <time>2021-08-11T14:16:46Z</time>
      </trkpt>
      <trkpt lat="47.48084" lon="3.93961">
        <ele>218.84</ele>
        <time>2021-08-11T14:16:47Z</time>
      </trkpt>
      <trkpt lat="47.48082" lon="3.93968">
        <ele>219.32</ele>
        <time>2021-08-11T14:16:48Z</time>
      </trkpt>
      <trkpt lat="47.48081" lon="3.93976">
        <ele>218.36</ele>
        <time>2021-08-11T14:16:49Z</time>
      </trkpt>
      <trkpt lat="47.48081" lon="3.93985">
        <ele>218.36</ele>
        <time>2021-08-11T14:16:50Z</time>
      </trkpt>
      <trkpt lat="47.48082" lon="3.93993">
        <ele>218.36</ele>
        <time>2021-08-11T14:16:51Z</time>
      </trkpt>
      <trkpt lat="47.48083" lon="3.94002">
        <ele>218.36</ele>
        <time>2021-08-11T14:16:52Z</time>
      </trkpt>
      <trkpt lat="47.48095" lon="3.94049">
        <ele>218.36</ele>
        <time>2021-08-11T14:16:59Z</time>
      </trkpt>
      <trkpt lat="47.48097" lon="3.94063">
        <ele>219.32</ele>
        <time>2021-08-11T14:17:02Z</time>
      </trkpt>
      <trkpt lat="47.48091" lon="3.9409">
        <ele>220.28</ele>
        <time>2021-08-11T14:17:08Z</time>
      </trkpt>
      <trkpt lat="47.48074" lon="3.94131">
        <ele>220.28</ele>
        <time>2021-08-11T14:17:15Z</time>
      </trkpt>
      <trkpt lat="47.4807" lon="3.94145">
        <ele>220.28</ele>
        <time>2021-08-11T14:17:17Z</time>
      </trkpt>
      <trkpt lat="47.48056" lon="3.94216">
        <ele>220.28</ele>
        <time>2021-08-11T14:17:28Z</time>
      </trkpt>
      <trkpt lat="47.48048" lon="3.9428">
        <ele>220.28</ele>
        <time>2021-08-11T14:17:37Z</time>
      </trkpt>
      <trkpt lat="47.48035" lon="3.94352">
        <ele>220.28</ele>
        <time>2021-08-11T14:17:46Z</time>
      </trkpt>
      <trkpt lat="47.48027" lon="3.94377">
        <ele>220.28</ele>
        <time>2021-08-11T14:17:50Z</time>
      </trkpt>
      <trkpt lat="47.48022" lon="3.94388">
        <ele>220.28</ele>
        <time>2021-08-11T14:17:52Z</time>
      </trkpt>
      <trkpt lat="47.48019" lon="3.94392">
        <ele>220.76</ele>
        <time>2021-08-11T14:17:53Z</time>
      </trkpt>
      <trkpt lat="47.48016" lon="3.94396">
        <ele>220.76</ele>
        <time>2021-08-11T14:17:54Z</time>
      </trkpt>
      <trkpt lat="47.47993" lon="3.94419">
        <ele>222.68</ele>
        <time>2021-08-11T14:18:02Z</time>
      </trkpt>
      <trkpt lat="47.47977" lon="3.94439">
        <ele>223.64</ele>
        <time>2021-08-11T14:18:11Z</time>
      </trkpt>
      <trkpt lat="47.47965" lon="3.94465">
        <ele>225.09</ele>
        <time>2021-08-11T14:18:21Z</time>
      </trkpt>
      <trkpt lat="47.47957" lon="3.94494">
        <ele>226.05</ele>
        <time>2021-08-11T14:18:31Z</time>
      </trkpt>
      <trkpt lat="47.47946" lon="3.94527">
        <ele>227.01</ele>
        <time>2021-08-11T14:18:41Z</time>
      </trkpt>
      <trkpt lat="47.47933" lon="3.94556">
        <ele>227.49</ele>
        <time>2021-08-11T14:18:48Z</time>
      </trkpt>
      <trkpt lat="47.47918" lon="3.94585">
        <ele>227.49</ele>
        <time>2021-08-11T14:18:54Z</time>
      </trkpt>
      <trkpt lat="47.47897" lon="3.94635">
        <ele>227.01</ele>
        <time>2021-08-11T14:19:02Z</time>
      </trkpt>
      <trkpt lat="47.47887" lon="3.94664">
        <ele>226.05</ele>
        <time>2021-08-11T14:19:06Z</time>
      </trkpt>
      <trkpt lat="47.47885" lon="3.94673">
        <ele>226.05</ele>
        <time>2021-08-11T14:19:07Z</time>
      </trkpt>
      <trkpt lat="47.47866" lon="3.94734">
        <ele>224.61</ele>
        <time>2021-08-11T14:19:15Z</time>
      </trkpt>
      <trkpt lat="47.47862" lon="3.94742">
        <ele>224.61</ele>
        <time>2021-08-11T14:19:16Z</time>
      </trkpt>
      <trkpt lat="47.47853" lon="3.94755">
        <ele>224.12</ele>
        <time>2021-08-11T14:19:18Z</time>
      </trkpt>
      <trkpt lat="47.47847" lon="3.9476">
        <ele>223.64</ele>
        <time>2021-08-11T14:19:19Z</time>
      </trkpt>
      <trkpt lat="47.4784" lon="3.94765">
        <ele>223.64</ele>
        <time>2021-08-11T14:19:20Z</time>
      </trkpt>
      <trkpt lat="47.47834" lon="3.94769">
        <ele>223.64</ele>
        <time>2021-08-11T14:19:21Z</time>
      </trkpt>
      <trkpt lat="47.47827" lon="3.94773">
        <ele>223.16</ele>
        <time>2021-08-11T14:19:22Z</time>
      </trkpt>
      <trkpt lat="47.4778" lon="3.94803">
        <ele>222.2</ele>
        <time>2021-08-11T14:19:29Z</time>
      </trkpt>
      <trkpt lat="47.47774" lon="3.94807">
        <ele>222.68</ele>
        <time>2021-08-11T14:19:30Z</time>
      </trkpt>
      <trkpt lat="47.47756" lon="3.94828">
        <ele>222.68</ele>
        <time>2021-08-11T14:19:34Z</time>
      </trkpt>
      <trkpt lat="47.47753" lon="3.94834">
        <ele>224.12</ele>
        <time>2021-08-11T14:19:35Z</time>
      </trkpt>
      <trkpt lat="47.4775" lon="3.94841">
        <ele>224.12</ele>
        <time>2021-08-11T14:19:36Z</time>
      </trkpt>
      <trkpt lat="47.4775" lon="3.94847">
        <ele>224.12</ele>
        <time>2021-08-11T14:19:37Z</time>
      </trkpt>
      <trkpt lat="47.47749" lon="3.94853">
        <ele>225.09</ele>
        <time>2021-08-11T14:19:38Z</time>
      </trkpt>
      <trkpt lat="47.47749" lon="3.9486">
        <ele>225.09</ele>
        <time>2021-08-11T14:19:39Z</time>
      </trkpt>
      <trkpt lat="47.47753" lon="3.94892">
        <ele>226.53</ele>
        <time>2021-08-11T14:19:46Z</time>
      </trkpt>
      <trkpt lat="47.4776" lon="3.94927">
        <ele>227.97</ele>
        <time>2021-08-11T14:19:54Z</time>
      </trkpt>
      <trkpt lat="47.47772" lon="3.94978">
        <ele>230.85</ele>
        <time>2021-08-11T14:20:05Z</time>
      </trkpt>
      <trkpt lat="47.47783" lon="3.95024">
        <ele>232.3</ele>
        <time>2021-08-11T14:20:15Z</time>
      </trkpt>
      <trkpt lat="47.47779" lon="3.95048">
        <ele>234.22</ele>
        <time>2021-08-11T14:20:22Z</time>
      </trkpt>
      <trkpt lat="47.47773" lon="3.95055">
        <ele>235.66</ele>
        <time>2021-08-11T14:20:29Z</time>
      </trkpt>
      <trkpt lat="47.47767" lon="3.95063">
        <ele>237.58</ele>
        <time>2021-08-11T14:20:38Z</time>
      </trkpt>
      <trkpt lat="47.47762" lon="3.9507">
        <ele>239.02</ele>
        <time>2021-08-11T14:20:46Z</time>
      </trkpt>
      <trkpt lat="47.47755" lon="3.9508">
        <ele>241.43</ele>
        <time>2021-08-11T14:20:56Z</time>
      </trkpt>
      <trkpt lat="47.47749" lon="3.95092">
        <ele>242.87</ele>
        <time>2021-08-11T14:21:05Z</time>
      </trkpt>
      <trkpt lat="47.47746" lon="3.951">
        <ele>243.35</ele>
        <time>2021-08-11T14:21:13Z</time>
      </trkpt>
      <trkpt lat="47.47742" lon="3.95109">
        <ele>244.79</ele>
        <time>2021-08-11T14:21:19Z</time>
      </trkpt>
      <trkpt lat="47.47732" lon="3.95124">
        <ele>247.2</ele>
        <time>2021-08-11T14:21:28Z</time>
      </trkpt>
      <trkpt lat="47.47724" lon="3.95137">
        <ele>249.6</ele>
        <time>2021-08-11T14:21:36Z</time>
      </trkpt>
      <trkpt lat="47.47715" lon="3.95156">
        <ele>251.52</ele>
        <time>2021-08-11T14:21:46Z</time>
      </trkpt>
      <trkpt lat="47.47713" lon="3.95178">
        <ele>252.96</ele>
        <time>2021-08-11T14:21:55Z</time>
      </trkpt>
      <trkpt lat="47.47708" lon="3.95197">
        <ele>253.93</ele>
        <time>2021-08-11T14:22:03Z</time>
      </trkpt>
      <trkpt lat="47.47703" lon="3.95213">
        <ele>255.37</ele>
        <time>2021-08-11T14:22:10Z</time>
      </trkpt>
      <trkpt lat="47.47696" lon="3.95228">
        <ele>256.81</ele>
        <time>2021-08-11T14:22:17Z</time>
      </trkpt>
      <trkpt lat="47.47689" lon="3.95248">
        <ele>258.25</ele>
        <time>2021-08-11T14:22:27Z</time>
      </trkpt>
      <trkpt lat="47.47684" lon="3.95265">
        <ele>259.69</ele>
        <time>2021-08-11T14:22:35Z</time>
      </trkpt>
      <trkpt lat="47.47679" lon="3.95282">
        <ele>260.65</ele>
        <time>2021-08-11T14:22:43Z</time>
      </trkpt>
      <trkpt lat="47.4767" lon="3.95302">
        <ele>262.58</ele>
        <time>2021-08-11T14:22:52Z</time>
      </trkpt>
      <trkpt lat="47.47658" lon="3.95317">
        <ele>264.98</ele>
        <time>2021-08-11T14:23:00Z</time>
      </trkpt>
      <trkpt lat="47.47636" lon="3.95336">
        <ele>266.42</ele>
        <time>2021-08-11T14:23:09Z</time>
      </trkpt>
      <trkpt lat="47.4762" lon="3.95348">
        <ele>267.38</ele>
        <time>2021-08-11T14:23:16Z</time>
      </trkpt>
      <trkpt lat="47.47608" lon="3.95363">
        <ele>267.86</ele>
        <time>2021-08-11T14:23:22Z</time>
      </trkpt>
      <trkpt lat="47.47608" lon="3.95366">
        <ele>267.86</ele>
        <time>2021-08-11T14:23:23Z</time>
      </trkpt>
      <trkpt lat="47.47609" lon="3.95369">
        <ele>267.86</ele>
        <time>2021-08-11T14:23:24Z</time>
      </trkpt>
      <trkpt lat="47.47615" lon="3.95401">
        <ele>268.35</ele>
        <time>2021-08-11T14:23:32Z</time>
      </trkpt>
      <trkpt lat="47.47621" lon="3.95433">
        <ele>268.83</ele>
        <time>2021-08-11T14:23:40Z</time>
      </trkpt>
      <trkpt lat="47.47621" lon="3.9546">
        <ele>269.31</ele>
        <time>2021-08-11T14:23:47Z</time>
      </trkpt>
      <trkpt lat="47.47618" lon="3.95503">
        <ele>270.75</ele>
        <time>2021-08-11T14:23:58Z</time>
      </trkpt>
      <trkpt lat="47.47615" lon="3.95526">
        <ele>271.23</ele>
        <time>2021-08-11T14:24:04Z</time>
      </trkpt>
      <trkpt lat="47.47613" lon="3.95553">
        <ele>272.19</ele>
        <time>2021-08-11T14:24:11Z</time>
      </trkpt>
      <trkpt lat="47.47611" lon="3.95594">
        <ele>273.15</ele>
        <time>2021-08-11T14:24:22Z</time>
      </trkpt>
      <trkpt lat="47.47612" lon="3.95626">
        <ele>275.07</ele>
        <time>2021-08-11T14:24:31Z</time>
      </trkpt>
      <trkpt lat="47.47612" lon="3.95657">
        <ele>276.04</ele>
        <time>2021-08-11T14:24:40Z</time>
      </trkpt>
      <trkpt lat="47.47612" lon="3.95679">
        <ele>277.96</ele>
        <time>2021-08-11T14:24:47Z</time>
      </trkpt>
      <trkpt lat="47.47613" lon="3.95702">
        <ele>279.4</ele>
        <time>2021-08-11T14:24:54Z</time>
      </trkpt>
      <trkpt lat="47.47611" lon="3.9573">
        <ele>280.84</ele>
        <time>2021-08-11T14:25:03Z</time>
      </trkpt>
      <trkpt lat="47.4761" lon="3.95735">
        <ele>281.8</ele>
        <time>2021-08-11T14:25:05Z</time>
      </trkpt>
      <trkpt lat="47.4761" lon="3.95737">
        <ele>282.28</ele>
        <time>2021-08-11T14:25:06Z</time>
      </trkpt>
      <trkpt lat="47.47609" lon="3.95739">
        <ele>281.8</ele>
        <time>2021-08-11T14:25:07Z</time>
      </trkpt>
      <trkpt lat="47.47609" lon="3.95741">
        <ele>282.77</ele>
        <time>2021-08-11T14:25:08Z</time>
      </trkpt>
      <trkpt lat="47.47608" lon="3.95743">
        <ele>282.77</ele>
        <time>2021-08-11T14:25:09Z</time>
      </trkpt>
      <trkpt lat="47.47607" lon="3.95746">
        <ele>282.77</ele>
        <time>2021-08-11T14:25:10Z</time>
      </trkpt>
      <trkpt lat="47.47606" lon="3.95748">
        <ele>282.77</ele>
        <time>2021-08-11T14:25:11Z</time>
      </trkpt>
      <trkpt lat="47.47599" lon="3.95763">
        <ele>283.25</ele>
        <time>2021-08-11T14:25:17Z</time>
      </trkpt>
      <trkpt lat="47.47593" lon="3.95779">
        <ele>284.69</ele>
        <time>2021-08-11T14:25:24Z</time>
      </trkpt>
      <trkpt lat="47.47592" lon="3.95781">
        <ele>284.69</ele>
        <time>2021-08-11T14:25:25Z</time>
      </trkpt>
      <trkpt lat="47.47591" lon="3.95784">
        <ele>284.69</ele>
        <time>2021-08-11T14:25:26Z</time>
      </trkpt>
      <trkpt lat="47.47581" lon="3.95803">
        <ele>286.61</ele>
        <time>2021-08-11T14:25:36Z</time>
      </trkpt>
      <trkpt lat="47.47579" lon="3.95806">
        <ele>286.61</ele>
        <time>2021-08-11T14:25:38Z</time>
      </trkpt>
      <trkpt lat="47.47578" lon="3.95808">
        <ele>287.09</ele>
        <time>2021-08-11T14:25:39Z</time>
      </trkpt>
      <trkpt lat="47.47578" lon="3.9581">
        <ele>287.09</ele>
        <time>2021-08-11T14:25:40Z</time>
      </trkpt>
      <trkpt lat="47.47576" lon="3.95814">
        <ele>287.57</ele>
        <time>2021-08-11T14:25:42Z</time>
      </trkpt>
      <trkpt lat="47.47569" lon="3.95828">
        <ele>288.05</ele>
        <time>2021-08-11T14:25:49Z</time>
      </trkpt>
      <trkpt lat="47.47568" lon="3.9583">
        <ele>288.05</ele>
        <time>2021-08-11T14:25:50Z</time>
      </trkpt>
      <trkpt lat="47.47564" lon="3.95837">
        <ele>288.53</ele>
        <time>2021-08-11T14:25:57Z</time>
      </trkpt>
      <trkpt lat="47.47561" lon="3.95843">
        <ele>288.53</ele>
        <time>2021-08-11T14:26:17Z</time>
      </trkpt>
      <trkpt lat="47.47558" lon="3.95848">
        <ele>289.01</ele>
        <time>2021-08-11T14:26:20Z</time>
      </trkpt>
      <trkpt lat="47.47548" lon="3.95873">
        <ele>290.46</ele>
        <time>2021-08-11T14:26:29Z</time>
      </trkpt>
      <trkpt lat="47.47537" lon="3.95892">
        <ele>291.9</ele>
        <time>2021-08-11T14:26:37Z</time>
      </trkpt>
      <trkpt lat="47.47524" lon="3.95917">
        <ele>293.34</ele>
        <time>2021-08-11T14:26:46Z</time>
      </trkpt>
      <trkpt lat="47.47516" lon="3.95933">
        <ele>294.78</ele>
        <time>2021-08-11T14:26:54Z</time>
      </trkpt>
      <trkpt lat="47.47508" lon="3.95945">
        <ele>295.74</ele>
        <time>2021-08-11T14:27:01Z</time>
      </trkpt>
      <trkpt lat="47.47501" lon="3.95961">
        <ele>298.15</ele>
        <time>2021-08-11T14:27:10Z</time>
      </trkpt>
      <trkpt lat="47.475" lon="3.95964">
        <ele>298.15</ele>
        <time>2021-08-11T14:27:11Z</time>
      </trkpt>
      <trkpt lat="47.47495" lon="3.95976">
        <ele>299.59</ele>
        <time>2021-08-11T14:27:16Z</time>
      </trkpt>
      <trkpt lat="47.47487" lon="3.95992">
        <ele>301.03</ele>
        <time>2021-08-11T14:27:24Z</time>
      </trkpt>
      <trkpt lat="47.47481" lon="3.96004">
        <ele>302.47</ele>
        <time>2021-08-11T14:27:30Z</time>
      </trkpt>
      <trkpt lat="47.47473" lon="3.96021">
        <ele>303.91</ele>
        <time>2021-08-11T14:27:38Z</time>
      </trkpt>
      <trkpt lat="47.47464" lon="3.96039">
        <ele>305.36</ele>
        <time>2021-08-11T14:27:46Z</time>
      </trkpt>
      <trkpt lat="47.47453" lon="3.9606">
        <ele>306.32</ele>
        <time>2021-08-11T14:27:54Z</time>
      </trkpt>
      <trkpt lat="47.47444" lon="3.96078">
        <ele>307.28</ele>
        <time>2021-08-11T14:28:01Z</time>
      </trkpt>
      <trkpt lat="47.47436" lon="3.96096">
        <ele>308.24</ele>
        <time>2021-08-11T14:28:08Z</time>
      </trkpt>
      <trkpt lat="47.47425" lon="3.9612">
        <ele>309.2</ele>
        <time>2021-08-11T14:28:17Z</time>
      </trkpt>
      <trkpt lat="47.47415" lon="3.96141">
        <ele>310.16</ele>
        <time>2021-08-11T14:28:24Z</time>
      </trkpt>
      <trkpt lat="47.47419" lon="3.96164">
        <ele>311.12</ele>
        <time>2021-08-11T14:28:32Z</time>
      </trkpt>
      <trkpt lat="47.47427" lon="3.96181">
        <ele>311.12</ele>
        <time>2021-08-11T14:28:39Z</time>
      </trkpt>
      <trkpt lat="47.47441" lon="3.96201">
        <ele>312.09</ele>
        <time>2021-08-11T14:28:47Z</time>
      </trkpt>
      <trkpt lat="47.47454" lon="3.96222">
        <ele>312.57</ele>
        <time>2021-08-11T14:28:54Z</time>
      </trkpt>
      <trkpt lat="47.47468" lon="3.96247">
        <ele>313.05</ele>
        <time>2021-08-11T14:29:01Z</time>
      </trkpt>
      <trkpt lat="47.47486" lon="3.96281">
        <ele>314.01</ele>
        <time>2021-08-11T14:29:10Z</time>
      </trkpt>
      <trkpt lat="47.475" lon="3.96313">
        <ele>314.49</ele>
        <time>2021-08-11T14:29:19Z</time>
      </trkpt>
      <trkpt lat="47.47522" lon="3.96355">
        <ele>314.97</ele>
        <time>2021-08-11T14:29:31Z</time>
      </trkpt>
      <trkpt lat="47.47538" lon="3.96387">
        <ele>314.97</ele>
        <time>2021-08-11T14:29:41Z</time>
      </trkpt>
      <trkpt lat="47.47554" lon="3.96419">
        <ele>314.97</ele>
        <time>2021-08-11T14:29:50Z</time>
      </trkpt>
      <trkpt lat="47.47571" lon="3.96455">
        <ele>314.97</ele>
        <time>2021-08-11T14:29:59Z</time>
      </trkpt>
      <trkpt lat="47.47585" lon="3.96493">
        <ele>314.49</ele>
        <time>2021-08-11T14:30:08Z</time>
      </trkpt>
      <trkpt lat="47.47604" lon="3.96539">
        <ele>314.97</ele>
        <time>2021-08-11T14:30:18Z</time>
      </trkpt>
      <trkpt lat="47.47614" lon="3.96567">
        <ele>314.97</ele>
        <time>2021-08-11T14:30:25Z</time>
      </trkpt>
      <trkpt lat="47.47621" lon="3.96585">
        <ele>314.97</ele>
        <time>2021-08-11T14:30:31Z</time>
      </trkpt>
      <trkpt lat="47.47625" lon="3.96604">
        <ele>314.97</ele>
        <time>2021-08-11T14:30:37Z</time>
      </trkpt>
      <trkpt lat="47.47628" lon="3.96618">
        <ele>314.97</ele>
        <time>2021-08-11T14:30:41Z</time>
      </trkpt>
      <trkpt lat="47.47636" lon="3.96656">
        <ele>315.45</ele>
        <time>2021-08-11T14:30:49Z</time>
      </trkpt>
      <trkpt lat="47.47641" lon="3.96697">
        <ele>316.41</ele>
        <time>2021-08-11T14:30:58Z</time>
      </trkpt>
      <trkpt lat="47.47643" lon="3.96733">
        <ele>317.85</ele>
        <time>2021-08-11T14:31:06Z</time>
      </trkpt>
      <trkpt lat="47.47644" lon="3.9676">
        <ele>318.81</ele>
        <time>2021-08-11T14:31:13Z</time>
      </trkpt>
      <trkpt lat="47.47646" lon="3.96799">
        <ele>319.3</ele>
        <time>2021-08-11T14:31:22Z</time>
      </trkpt>
      <trkpt lat="47.47641" lon="3.96826">
        <ele>319.78</ele>
        <time>2021-08-11T14:31:28Z</time>
      </trkpt>
      <trkpt lat="47.47633" lon="3.96851">
        <ele>320.26</ele>
        <time>2021-08-11T14:31:33Z</time>
      </trkpt>
      <trkpt lat="47.47608" lon="3.96907">
        <ele>320.74</ele>
        <time>2021-08-11T14:31:43Z</time>
      </trkpt>
      <trkpt lat="47.47587" lon="3.96972">
        <ele>320.74</ele>
        <time>2021-08-11T14:31:53Z</time>
      </trkpt>
      <trkpt lat="47.47584" lon="3.96984">
        <ele>320.74</ele>
        <time>2021-08-11T14:31:55Z</time>
      </trkpt>
      <trkpt lat="47.47581" lon="3.96989">
        <ele>320.74</ele>
        <time>2021-08-11T14:31:56Z</time>
      </trkpt>
      <trkpt lat="47.47572" lon="3.97014">
        <ele>319.3</ele>
        <time>2021-08-11T14:32:00Z</time>
      </trkpt>
      <trkpt lat="47.4756" lon="3.97044">
        <ele>319.3</ele>
        <time>2021-08-11T14:32:05Z</time>
      </trkpt>
      <trkpt lat="47.47549" lon="3.97068">
        <ele>318.81</ele>
        <time>2021-08-11T14:32:09Z</time>
      </trkpt>
      <trkpt lat="47.47547" lon="3.97073">
        <ele>318.81</ele>
        <time>2021-08-11T14:32:10Z</time>
      </trkpt>
      <trkpt lat="47.47537" lon="3.97096">
        <ele>318.81</ele>
        <time>2021-08-11T14:32:14Z</time>
      </trkpt>
      <trkpt lat="47.47534" lon="3.97102">
        <ele>318.81</ele>
        <time>2021-08-11T14:32:15Z</time>
      </trkpt>
      <trkpt lat="47.47513" lon="3.97155">
        <ele>318.81</ele>
        <time>2021-08-11T14:32:24Z</time>
      </trkpt>
      <trkpt lat="47.47512" lon="3.97162">
        <ele>318.33</ele>
        <time>2021-08-11T14:32:25Z</time>
      </trkpt>
      <trkpt lat="47.4751" lon="3.9717">
        <ele>318.33</ele>
        <time>2021-08-11T14:32:26Z</time>
      </trkpt>
      <trkpt lat="47.47508" lon="3.97185">
        <ele>318.33</ele>
        <time>2021-08-11T14:32:28Z</time>
      </trkpt>
      <trkpt lat="47.47507" lon="3.97193">
        <ele>318.33</ele>
        <time>2021-08-11T14:32:29Z</time>
      </trkpt>
      <trkpt lat="47.47502" lon="3.97262">
        <ele>317.85</ele>
        <time>2021-08-11T14:32:39Z</time>
      </trkpt>
      <trkpt lat="47.47497" lon="3.97305">
        <ele>317.37</ele>
        <time>2021-08-11T14:32:46Z</time>
      </trkpt>
      <trkpt lat="47.47494" lon="3.97309">
        <ele>317.37</ele>
        <time>2021-08-11T14:32:47Z</time>
      </trkpt>
      <trkpt lat="47.4749" lon="3.9731">
        <ele>317.37</ele>
        <time>2021-08-11T14:32:48Z</time>
      </trkpt>
      <trkpt lat="47.47486" lon="3.97307">
        <ele>317.37</ele>
        <time>2021-08-11T14:32:49Z</time>
      </trkpt>
      <trkpt lat="47.47483" lon="3.97303">
        <ele>317.37</ele>
        <time>2021-08-11T14:32:50Z</time>
      </trkpt>
      <trkpt lat="47.4748" lon="3.97299">
        <ele>317.37</ele>
        <time>2021-08-11T14:32:51Z</time>
      </trkpt>
      <trkpt lat="47.47463" lon="3.97275">
        <ele>318.33</ele>
        <time>2021-08-11T14:32:57Z</time>
      </trkpt>
      <trkpt lat="47.47437" lon="3.97242">
        <ele>319.78</ele>
        <time>2021-08-11T14:33:06Z</time>
      </trkpt>
      <trkpt lat="47.47412" lon="3.9721">
        <ele>320.26</ele>
        <time>2021-08-11T14:33:15Z</time>
      </trkpt>
      <trkpt lat="47.47385" lon="3.97176">
        <ele>321.22</ele>
        <time>2021-08-11T14:33:25Z</time>
      </trkpt>
      <trkpt lat="47.47359" lon="3.97141">
        <ele>322.66</ele>
        <time>2021-08-11T14:33:35Z</time>
      </trkpt>
      <trkpt lat="47.4733" lon="3.97107">
        <ele>324.1</ele>
        <time>2021-08-11T14:33:46Z</time>
      </trkpt>
      <trkpt lat="47.47304" lon="3.97083">
        <ele>325.06</ele>
        <time>2021-08-11T14:33:55Z</time>
      </trkpt>
      <trkpt lat="47.4727" lon="3.97055">
        <ele>326.5</ele>
        <time>2021-08-11T14:34:06Z</time>
      </trkpt>
      <trkpt lat="47.47235" lon="3.97028">
        <ele>326.99</ele>
        <time>2021-08-11T14:34:16Z</time>
      </trkpt>
      <trkpt lat="47.472" lon="3.96998">
        <ele>326.99</ele>
        <time>2021-08-11T14:34:25Z</time>
      </trkpt>
      <trkpt lat="47.47187" lon="3.96987">
        <ele>325.54</ele>
        <time>2021-08-11T14:34:28Z</time>
      </trkpt>
      <trkpt lat="47.47146" lon="3.96953">
        <ele>324.1</ele>
        <time>2021-08-11T14:34:36Z</time>
      </trkpt>
      <trkpt lat="47.47135" lon="3.96944">
        <ele>323.14</ele>
        <time>2021-08-11T14:34:38Z</time>
      </trkpt>
      <trkpt lat="47.47087" lon="3.96897">
        <ele>320.26</ele>
        <time>2021-08-11T14:34:46Z</time>
      </trkpt>
      <trkpt lat="47.47032" lon="3.96842">
        <ele>316.89</ele>
        <time>2021-08-11T14:34:54Z</time>
      </trkpt>
      <trkpt lat="47.46993" lon="3.96804">
        <ele>314.97</ele>
        <time>2021-08-11T14:34:59Z</time>
      </trkpt>
      <trkpt lat="47.46976" lon="3.96793">
        <ele>313.05</ele>
        <time>2021-08-11T14:35:01Z</time>
      </trkpt>
      <trkpt lat="47.46967" lon="3.96788">
        <ele>313.05</ele>
        <time>2021-08-11T14:35:02Z</time>
      </trkpt>
      <trkpt lat="47.46929" lon="3.96779">
        <ele>311.6</ele>
        <time>2021-08-11T14:35:06Z</time>
      </trkpt>
      <trkpt lat="47.46889" lon="3.96784">
        <ele>308.72</ele>
        <time>2021-08-11T14:35:10Z</time>
      </trkpt>
      <trkpt lat="47.46879" lon="3.96788">
        <ele>308.72</ele>
        <time>2021-08-11T14:35:11Z</time>
      </trkpt>
      <trkpt lat="47.46869" lon="3.96794">
        <ele>308.24</ele>
        <time>2021-08-11T14:35:12Z</time>
      </trkpt>
      <trkpt lat="47.46822" lon="3.96827">
        <ele>305.36</ele>
        <time>2021-08-11T14:35:17Z</time>
      </trkpt>
      <trkpt lat="47.46772" lon="3.96864">
        <ele>301.99</ele>
        <time>2021-08-11T14:35:22Z</time>
      </trkpt>
      <trkpt lat="47.46762" lon="3.96871">
        <ele>301.99</ele>
        <time>2021-08-11T14:35:23Z</time>
      </trkpt>
      <trkpt lat="47.46742" lon="3.96886">
        <ele>300.55</ele>
        <time>2021-08-11T14:35:25Z</time>
      </trkpt>
      <trkpt lat="47.46711" lon="3.9691">
        <ele>299.11</ele>
        <time>2021-08-11T14:35:28Z</time>
      </trkpt>
      <trkpt lat="47.46702" lon="3.9692">
        <ele>299.11</ele>
        <time>2021-08-11T14:35:29Z</time>
      </trkpt>
      <trkpt lat="47.46692" lon="3.96929">
        <ele>297.67</ele>
        <time>2021-08-11T14:35:30Z</time>
      </trkpt>
      <trkpt lat="47.46682" lon="3.96938">
        <ele>297.18</ele>
        <time>2021-08-11T14:35:31Z</time>
      </trkpt>
      <trkpt lat="47.46674" lon="3.96949">
        <ele>297.18</ele>
        <time>2021-08-11T14:35:32Z</time>
      </trkpt>
      <trkpt lat="47.46668" lon="3.96963">
        <ele>296.22</ele>
        <time>2021-08-11T14:35:33Z</time>
      </trkpt>
      <trkpt lat="47.46662" lon="3.96978">
        <ele>295.26</ele>
        <time>2021-08-11T14:35:34Z</time>
      </trkpt>
      <trkpt lat="47.46659" lon="3.96991">
        <ele>294.78</ele>
        <time>2021-08-11T14:35:35Z</time>
      </trkpt>
      <trkpt lat="47.46655" lon="3.97003">
        <ele>294.3</ele>
        <time>2021-08-11T14:35:36Z</time>
      </trkpt>
      <trkpt lat="47.46641" lon="3.97068">
        <ele>291.9</ele>
        <time>2021-08-11T14:35:41Z</time>
      </trkpt>
      <trkpt lat="47.46641" lon="3.9708">
        <ele>291.9</ele>
        <time>2021-08-11T14:35:42Z</time>
      </trkpt>
      <trkpt lat="47.46642" lon="3.97092">
        <ele>290.94</ele>
        <time>2021-08-11T14:35:43Z</time>
      </trkpt>
      <trkpt lat="47.46644" lon="3.97104">
        <ele>290.46</ele>
        <time>2021-08-11T14:35:44Z</time>
      </trkpt>
      <trkpt lat="47.46648" lon="3.97115">
        <ele>289.97</ele>
        <time>2021-08-11T14:35:45Z</time>
      </trkpt>
      <trkpt lat="47.46652" lon="3.97126">
        <ele>289.97</ele>
        <time>2021-08-11T14:35:46Z</time>
      </trkpt>
      <trkpt lat="47.46657" lon="3.97135">
        <ele>289.49</ele>
        <time>2021-08-11T14:35:47Z</time>
      </trkpt>
      <trkpt lat="47.46662" lon="3.97144">
        <ele>289.01</ele>
        <time>2021-08-11T14:35:48Z</time>
      </trkpt>
      <trkpt lat="47.46667" lon="3.97153">
        <ele>288.53</ele>
        <time>2021-08-11T14:35:49Z</time>
      </trkpt>
      <trkpt lat="47.46669" lon="3.97163">
        <ele>288.05</ele>
        <time>2021-08-11T14:35:50Z</time>
      </trkpt>
      <trkpt lat="47.46669" lon="3.97173">
        <ele>287.57</ele>
        <time>2021-08-11T14:35:51Z</time>
      </trkpt>
      <trkpt lat="47.46665" lon="3.97183">
        <ele>287.09</ele>
        <time>2021-08-11T14:35:52Z</time>
      </trkpt>
      <trkpt lat="47.4666" lon="3.9719">
        <ele>287.09</ele>
        <time>2021-08-11T14:35:53Z</time>
      </trkpt>
      <trkpt lat="47.46653" lon="3.97195">
        <ele>286.61</ele>
        <time>2021-08-11T14:35:54Z</time>
      </trkpt>
      <trkpt lat="47.46646" lon="3.972">
        <ele>285.65</ele>
        <time>2021-08-11T14:35:55Z</time>
      </trkpt>
      <trkpt lat="47.46633" lon="3.97209">
        <ele>285.17</ele>
        <time>2021-08-11T14:35:57Z</time>
      </trkpt>
      <trkpt lat="47.46627" lon="3.9721">
        <ele>284.69</ele>
        <time>2021-08-11T14:35:58Z</time>
      </trkpt>
      <trkpt lat="47.46621" lon="3.97207">
        <ele>284.21</ele>
        <time>2021-08-11T14:35:59Z</time>
      </trkpt>
      <trkpt lat="47.46619" lon="3.97201">
        <ele>284.21</ele>
        <time>2021-08-11T14:36:00Z</time>
      </trkpt>
      <trkpt lat="47.46621" lon="3.97194">
        <ele>284.21</ele>
        <time>2021-08-11T14:36:01Z</time>
      </trkpt>
      <trkpt lat="47.46624" lon="3.97188">
        <ele>283.25</ele>
        <time>2021-08-11T14:36:02Z</time>
      </trkpt>
      <trkpt lat="47.46629" lon="3.97184">
        <ele>283.25</ele>
        <time>2021-08-11T14:36:03Z</time>
      </trkpt>
      <trkpt lat="47.46634" lon="3.97181">
        <ele>283.25</ele>
        <time>2021-08-11T14:36:04Z</time>
      </trkpt>
      <trkpt lat="47.46638" lon="3.97177">
        <ele>282.77</ele>
        <time>2021-08-11T14:36:05Z</time>
      </trkpt>
      <trkpt lat="47.46642" lon="3.97171">
        <ele>282.77</ele>
        <time>2021-08-11T14:36:06Z</time>
      </trkpt>
      <trkpt lat="47.46643" lon="3.97163">
        <ele>282.28</ele>
        <time>2021-08-11T14:36:07Z</time>
      </trkpt>
      <trkpt lat="47.46641" lon="3.97155">
        <ele>281.8</ele>
        <time>2021-08-11T14:36:08Z</time>
      </trkpt>
      <trkpt lat="47.46637" lon="3.97148">
        <ele>280.84</ele>
        <time>2021-08-11T14:36:09Z</time>
      </trkpt>
      <trkpt lat="47.46632" lon="3.97142">
        <ele>280.84</ele>
        <time>2021-08-11T14:36:10Z</time>
      </trkpt>
      <trkpt lat="47.46626" lon="3.97138">
        <ele>280.36</ele>
        <time>2021-08-11T14:36:11Z</time>
      </trkpt>
      <trkpt lat="47.46621" lon="3.97131">
        <ele>280.36</ele>
        <time>2021-08-11T14:36:12Z</time>
      </trkpt>
      <trkpt lat="47.46617" lon="3.97122">
        <ele>279.88</ele>
        <time>2021-08-11T14:36:13Z</time>
      </trkpt>
      <trkpt lat="47.46614" lon="3.97111">
        <ele>278.92</ele>
        <time>2021-08-11T14:36:14Z</time>
      </trkpt>
      <trkpt lat="47.46614" lon="3.971">
        <ele>278.92</ele>
        <time>2021-08-11T14:36:15Z</time>
      </trkpt>
      <trkpt lat="47.46614" lon="3.97088">
        <ele>278.44</ele>
        <time>2021-08-11T14:36:16Z</time>
      </trkpt>
      <trkpt lat="47.46615" lon="3.97077">
        <ele>277.96</ele>
        <time>2021-08-11T14:36:17Z</time>
      </trkpt>
      <trkpt lat="47.46624" lon="3.96989">
        <ele>274.59</ele>
        <time>2021-08-11T14:36:24Z</time>
      </trkpt>
      <trkpt lat="47.46634" lon="3.96905">
        <ele>271.71</ele>
        <time>2021-08-11T14:36:30Z</time>
      </trkpt>
      <trkpt lat="47.46653" lon="3.96818">
        <ele>268.35</ele>
        <time>2021-08-11T14:36:36Z</time>
      </trkpt>
      <trkpt lat="47.46663" lon="3.96778">
        <ele>266.9</ele>
        <time>2021-08-11T14:36:39Z</time>
      </trkpt>
      <trkpt lat="47.46672" lon="3.96744">
        <ele>264.98</ele>
        <time>2021-08-11T14:36:42Z</time>
      </trkpt>
      <trkpt lat="47.46672" lon="3.96733">
        <ele>264.98</ele>
        <time>2021-08-11T14:36:43Z</time>
      </trkpt>
      <trkpt lat="47.46668" lon="3.96724">
        <ele>264.5</ele>
        <time>2021-08-11T14:36:44Z</time>
      </trkpt>
      <trkpt lat="47.46663" lon="3.96716">
        <ele>263.54</ele>
        <time>2021-08-11T14:36:45Z</time>
      </trkpt>
      <trkpt lat="47.46656" lon="3.96709">
        <ele>263.06</ele>
        <time>2021-08-11T14:36:46Z</time>
      </trkpt>
      <trkpt lat="47.4665" lon="3.96704">
        <ele>262.58</ele>
        <time>2021-08-11T14:36:47Z</time>
      </trkpt>
      <trkpt lat="47.46643" lon="3.96699">
        <ele>263.06</ele>
        <time>2021-08-11T14:36:48Z</time>
      </trkpt>
      <trkpt lat="47.46633" lon="3.96692">
        <ele>263.06</ele>
        <time>2021-08-11T14:36:50Z</time>
      </trkpt>
      <trkpt lat="47.46628" lon="3.96693">
        <ele>263.06</ele>
        <time>2021-08-11T14:36:51Z</time>
      </trkpt>
      <trkpt lat="47.46624" lon="3.96697">
        <ele>262.58</ele>
        <time>2021-08-11T14:36:52Z</time>
      </trkpt>
      <trkpt lat="47.46621" lon="3.96704">
        <ele>262.58</ele>
        <time>2021-08-11T14:36:53Z</time>
      </trkpt>
      <trkpt lat="47.46618" lon="3.96712">
        <ele>262.1</ele>
        <time>2021-08-11T14:36:54Z</time>
      </trkpt>
      <trkpt lat="47.46616" lon="3.96722">
        <ele>262.1</ele>
        <time>2021-08-11T14:36:55Z</time>
      </trkpt>
      <trkpt lat="47.46608" lon="3.96749">
        <ele>261.62</ele>
        <time>2021-08-11T14:36:58Z</time>
      </trkpt>
      <trkpt lat="47.46605" lon="3.96756">
        <ele>261.62</ele>
        <time>2021-08-11T14:36:59Z</time>
      </trkpt>
      <trkpt lat="47.46584" lon="3.96815">
        <ele>261.14</ele>
        <time>2021-08-11T14:37:06Z</time>
      </trkpt>
      <trkpt lat="47.46573" lon="3.96844">
        <ele>263.06</ele>
        <time>2021-08-11T14:37:10Z</time>
      </trkpt>
      <trkpt lat="47.4657" lon="3.9685">
        <ele>262.58</ele>
        <time>2021-08-11T14:37:11Z</time>
      </trkpt>
      <trkpt lat="47.46554" lon="3.96885">
        <ele>264.98</ele>
        <time>2021-08-11T14:37:18Z</time>
      </trkpt>
      <trkpt lat="47.4654" lon="3.96914">
        <ele>265.94</ele>
        <time>2021-08-11T14:37:25Z</time>
      </trkpt>
      <trkpt lat="47.46529" lon="3.9695">
        <ele>267.38</ele>
        <time>2021-08-11T14:37:33Z</time>
      </trkpt>
      <trkpt lat="47.46524" lon="3.96974">
        <ele>268.35</ele>
        <time>2021-08-11T14:37:40Z</time>
      </trkpt>
      <trkpt lat="47.46514" lon="3.96999">
        <ele>269.79</ele>
        <time>2021-08-11T14:37:48Z</time>
      </trkpt>
      <trkpt lat="47.46506" lon="3.97021">
        <ele>270.75</ele>
        <time>2021-08-11T14:37:55Z</time>
      </trkpt>
      <trkpt lat="47.46505" lon="3.97023">
        <ele>270.75</ele>
        <time>2021-08-11T14:37:56Z</time>
      </trkpt>
      <trkpt lat="47.46504" lon="3.97027">
        <ele>270.75</ele>
        <time>2021-08-11T14:37:57Z</time>
      </trkpt>
      <trkpt lat="47.46502" lon="3.97031">
        <ele>271.23</ele>
        <time>2021-08-11T14:37:58Z</time>
      </trkpt>
      <trkpt lat="47.46499" lon="3.97036">
        <ele>271.23</ele>
        <time>2021-08-11T14:37:59Z</time>
      </trkpt>
      <trkpt lat="47.46496" lon="3.97041">
        <ele>271.71</ele>
        <time>2021-08-11T14:38:00Z</time>
      </trkpt>
      <trkpt lat="47.46482" lon="3.97072">
        <ele>272.19</ele>
        <time>2021-08-11T14:38:09Z</time>
      </trkpt>
      <trkpt lat="47.46474" lon="3.97091">
        <ele>273.63</ele>
        <time>2021-08-11T14:38:16Z</time>
      </trkpt>
      <trkpt lat="47.46468" lon="3.97113">
        <ele>275.56</ele>
        <time>2021-08-11T14:38:26Z</time>
      </trkpt>
      <trkpt lat="47.46466" lon="3.97123">
        <ele>276.04</ele>
        <time>2021-08-11T14:38:32Z</time>
      </trkpt>
      <trkpt lat="47.46464" lon="3.9713">
        <ele>277.48</ele>
        <time>2021-08-11T14:38:36Z</time>
      </trkpt>
      <trkpt lat="47.46455" lon="3.97148">
        <ele>277.96</ele>
        <time>2021-08-11T14:38:42Z</time>
      </trkpt>
      <trkpt lat="47.46453" lon="3.97154">
        <ele>278.44</ele>
        <time>2021-08-11T14:38:44Z</time>
      </trkpt>
      <trkpt lat="47.46452" lon="3.97157">
        <ele>278.44</ele>
        <time>2021-08-11T14:38:45Z</time>
      </trkpt>
      <trkpt lat="47.46449" lon="3.97166">
        <ele>279.4</ele>
        <time>2021-08-11T14:38:51Z</time>
      </trkpt>
      <trkpt lat="47.46444" lon="3.97179">
        <ele>280.84</ele>
        <time>2021-08-11T14:38:59Z</time>
      </trkpt>
      <trkpt lat="47.46441" lon="3.9719">
        <ele>281.32</ele>
        <time>2021-08-11T14:39:05Z</time>
      </trkpt>
      <trkpt lat="47.46436" lon="3.97203">
        <ele>283.25</ele>
        <time>2021-08-11T14:39:12Z</time>
      </trkpt>
      <trkpt lat="47.46431" lon="3.97215">
        <ele>283.73</ele>
        <time>2021-08-11T14:39:20Z</time>
      </trkpt>
      <trkpt lat="47.46426" lon="3.97225">
        <ele>284.69</ele>
        <time>2021-08-11T14:39:29Z</time>
      </trkpt>
      <trkpt lat="47.46422" lon="3.97227">
        <ele>286.61</ele>
        <time>2021-08-11T14:39:36Z</time>
      </trkpt>
      <trkpt lat="47.4642" lon="3.97226">
        <ele>287.09</ele>
        <time>2021-08-11T14:39:46Z</time>
      </trkpt>
      <trkpt lat="47.46422" lon="3.97229">
        <ele>287.09</ele>
        <time>2021-08-11T14:40:01Z</time>
      </trkpt>
      <trkpt lat="47.46423" lon="3.97235">
        <ele>285.65</ele>
        <time>2021-08-11T14:40:06Z</time>
      </trkpt>
      <trkpt lat="47.46417" lon="3.97243">
        <ele>283.73</ele>
        <time>2021-08-11T14:40:14Z</time>
      </trkpt>
      <trkpt lat="47.46415" lon="3.97251">
        <ele>282.28</ele>
        <time>2021-08-11T14:40:21Z</time>
      </trkpt>
      <trkpt lat="47.46416" lon="3.97253">
        <ele>281.32</ele>
        <time>2021-08-11T14:40:23Z</time>
      </trkpt>
      <trkpt lat="47.46419" lon="3.97255">
        <ele>279.88</ele>
        <time>2021-08-11T14:40:27Z</time>
      </trkpt>
      <trkpt lat="47.46421" lon="3.97269">
        <ele>277.96</ele>
        <time>2021-08-11T14:40:33Z</time>
      </trkpt>
      <trkpt lat="47.46422" lon="3.9729">
        <ele>273.63</ele>
        <time>2021-08-11T14:40:42Z</time>
      </trkpt>
      <trkpt lat="47.46422" lon="3.97303">
        <ele>271.23</ele>
        <time>2021-08-11T14:40:49Z</time>
      </trkpt>
      <trkpt lat="47.46422" lon="3.97306">
        <ele>271.23</ele>
        <time>2021-08-11T14:40:50Z</time>
      </trkpt>
      <trkpt lat="47.46419" lon="3.97323">
        <ele>267.86</ele>
        <time>2021-08-11T14:40:56Z</time>
      </trkpt>
      <trkpt lat="47.46419" lon="3.97328">
        <ele>266.9</ele>
        <time>2021-08-11T14:40:59Z</time>
      </trkpt>
      <trkpt lat="47.46421" lon="3.97338">
        <ele>263.54</ele>
        <time>2021-08-11T14:41:05Z</time>
      </trkpt>
      <trkpt lat="47.46421" lon="3.97339">
        <ele>263.54</ele>
        <time>2021-08-11T14:41:06Z</time>
      </trkpt>
      <trkpt lat="47.46422" lon="3.97341">
        <ele>263.54</ele>
        <time>2021-08-11T14:41:15Z</time>
      </trkpt>
      <trkpt lat="47.46425" lon="3.97343">
        <ele>263.06</ele>
        <time>2021-08-11T14:41:19Z</time>
      </trkpt>
      <trkpt lat="47.46437" lon="3.97347">
        <ele>262.1</ele>
        <time>2021-08-11T14:41:26Z</time>
      </trkpt>
      <trkpt lat="47.46441" lon="3.97347">
        <ele>261.62</ele>
        <time>2021-08-11T14:41:28Z</time>
      </trkpt>
      <trkpt lat="47.46442" lon="3.97359">
        <ele>261.14</ele>
        <time>2021-08-11T14:41:34Z</time>
      </trkpt>
      <trkpt lat="47.4644" lon="3.97367">
        <ele>261.14</ele>
        <time>2021-08-11T14:41:41Z</time>
      </trkpt>
      <trkpt lat="47.46442" lon="3.97375">
        <ele>261.14</ele>
        <time>2021-08-11T14:41:59Z</time>
      </trkpt>
      <trkpt lat="47.46438" lon="3.97383">
        <ele>261.14</ele>
        <time>2021-08-11T14:42:04Z</time>
      </trkpt>
      <trkpt lat="47.46429" lon="3.97395">
        <ele>261.14</ele>
        <time>2021-08-11T14:42:13Z</time>
      </trkpt>
      <trkpt lat="47.46422" lon="3.97404">
        <ele>261.14</ele>
        <time>2021-08-11T14:42:19Z</time>
      </trkpt>
      <trkpt lat="47.46419" lon="3.97409">
        <ele>261.14</ele>
        <time>2021-08-11T14:42:23Z</time>
      </trkpt>
      <trkpt lat="47.46413" lon="3.97425">
        <ele>261.14</ele>
        <time>2021-08-11T14:42:30Z</time>
      </trkpt>
      <trkpt lat="47.46411" lon="3.97433">
        <ele>261.14</ele>
        <time>2021-08-11T14:42:33Z</time>
      </trkpt>
      <trkpt lat="47.46406" lon="3.97444">
        <ele>262.58</ele>
        <time>2021-08-11T14:42:37Z</time>
      </trkpt>
      <trkpt lat="47.46399" lon="3.97461">
        <ele>263.06</ele>
        <time>2021-08-11T14:42:46Z</time>
      </trkpt>
      <trkpt lat="47.46397" lon="3.97468">
        <ele>263.06</ele>
        <time>2021-08-11T14:42:49Z</time>
      </trkpt>
      <trkpt lat="47.46396" lon="3.97473">
        <ele>263.06</ele>
        <time>2021-08-11T14:42:51Z</time>
      </trkpt>
      <trkpt lat="47.46389" lon="3.97493">
        <ele>263.54</ele>
        <time>2021-08-11T14:42:59Z</time>
      </trkpt>
      <trkpt lat="47.46379" lon="3.97504">
        <ele>264.02</ele>
        <time>2021-08-11T14:43:04Z</time>
      </trkpt>
      <trkpt lat="47.46378" lon="3.97507">
        <ele>264.02</ele>
        <time>2021-08-11T14:43:05Z</time>
      </trkpt>
      <trkpt lat="47.46376" lon="3.97511">
        <ele>264.02</ele>
        <time>2021-08-11T14:43:07Z</time>
      </trkpt>
      <trkpt lat="47.46374" lon="3.97513">
        <ele>264.5</ele>
        <time>2021-08-11T14:43:08Z</time>
      </trkpt>
      <trkpt lat="47.46374" lon="3.97515">
        <ele>264.5</ele>
        <time>2021-08-11T14:43:09Z</time>
      </trkpt>
      <trkpt lat="47.46373" lon="3.97516">
        <ele>264.5</ele>
        <time>2021-08-11T14:43:10Z</time>
      </trkpt>
      <trkpt lat="47.46368" lon="3.97528">
        <ele>265.94</ele>
        <time>2021-08-11T14:43:16Z</time>
      </trkpt>
      <trkpt lat="47.46366" lon="3.97541">
        <ele>267.38</ele>
        <time>2021-08-11T14:43:21Z</time>
      </trkpt>
      <trkpt lat="47.46365" lon="3.97544">
        <ele>267.38</ele>
        <time>2021-08-11T14:43:22Z</time>
      </trkpt>
      <trkpt lat="47.46364" lon="3.97547">
        <ele>267.38</ele>
        <time>2021-08-11T14:43:23Z</time>
      </trkpt>
      <trkpt lat="47.46364" lon="3.9755">
        <ele>267.38</ele>
        <time>2021-08-11T14:43:24Z</time>
      </trkpt>
      <trkpt lat="47.46355" lon="3.97567">
        <ele>267.38</ele>
        <time>2021-08-11T14:43:28Z</time>
      </trkpt>
      <trkpt lat="47.46353" lon="3.97569">
        <ele>267.86</ele>
        <time>2021-08-11T14:43:29Z</time>
      </trkpt>
      <trkpt lat="47.46339" lon="3.97587">
        <ele>268.83</ele>
        <time>2021-08-11T14:43:35Z</time>
      </trkpt>
      <trkpt lat="47.46337" lon="3.9759">
        <ele>268.35</ele>
        <time>2021-08-11T14:43:36Z</time>
      </trkpt>
      <trkpt lat="47.46335" lon="3.97592">
        <ele>268.83</ele>
        <time>2021-08-11T14:43:37Z</time>
      </trkpt>
      <trkpt lat="47.46323" lon="3.97611">
        <ele>267.38</ele>
        <time>2021-08-11T14:43:44Z</time>
      </trkpt>
      <trkpt lat="47.46319" lon="3.97626">
        <ele>267.38</ele>
        <time>2021-08-11T14:43:49Z</time>
      </trkpt>
      <trkpt lat="47.46318" lon="3.97645">
        <ele>266.42</ele>
        <time>2021-08-11T14:43:54Z</time>
      </trkpt>
      <trkpt lat="47.46316" lon="3.97671">
        <ele>264.02</ele>
        <time>2021-08-11T14:44:00Z</time>
      </trkpt>
      <trkpt lat="47.46313" lon="3.977">
        <ele>264.02</ele>
        <time>2021-08-11T14:44:06Z</time>
      </trkpt>
      <trkpt lat="47.46302" lon="3.97739">
        <ele>263.54</ele>
        <time>2021-08-11T14:44:13Z</time>
      </trkpt>
      <trkpt lat="47.46292" lon="3.97766">
        <ele>263.06</ele>
        <time>2021-08-11T14:44:18Z</time>
      </trkpt>
      <trkpt lat="47.46291" lon="3.97771">
        <ele>263.06</ele>
        <time>2021-08-11T14:44:19Z</time>
      </trkpt>
      <trkpt lat="47.46284" lon="3.97786">
        <ele>263.54</ele>
        <time>2021-08-11T14:44:23Z</time>
      </trkpt>
      <trkpt lat="47.46284" lon="3.97791">
        <ele>263.54</ele>
        <time>2021-08-11T14:44:24Z</time>
      </trkpt>
      <trkpt lat="47.46281" lon="3.97798">
        <ele>263.54</ele>
        <time>2021-08-11T14:44:26Z</time>
      </trkpt>
      <trkpt lat="47.46278" lon="3.97804">
        <ele>263.54</ele>
        <time>2021-08-11T14:44:27Z</time>
      </trkpt>
      <trkpt lat="47.46276" lon="3.97809">
        <ele>263.54</ele>
        <time>2021-08-11T14:44:28Z</time>
      </trkpt>
      <trkpt lat="47.46273" lon="3.97814">
        <ele>263.54</ele>
        <time>2021-08-11T14:44:29Z</time>
      </trkpt>
      <trkpt lat="47.4627" lon="3.9782">
        <ele>263.54</ele>
        <time>2021-08-11T14:44:30Z</time>
      </trkpt>
      <trkpt lat="47.46269" lon="3.97822">
        <ele>263.54</ele>
        <time>2021-08-11T14:44:31Z</time>
      </trkpt>
      <trkpt lat="47.46255" lon="3.97854">
        <ele>263.54</ele>
        <time>2021-08-11T14:44:39Z</time>
      </trkpt>
      <trkpt lat="47.46244" lon="3.97881">
        <ele>263.54</ele>
        <time>2021-08-11T14:44:46Z</time>
      </trkpt>
      <trkpt lat="47.46235" lon="3.97901">
        <ele>264.02</ele>
        <time>2021-08-11T14:44:53Z</time>
      </trkpt>
      <trkpt lat="47.46224" lon="3.97923">
        <ele>264.02</ele>
        <time>2021-08-11T14:44:58Z</time>
      </trkpt>
      <trkpt lat="47.4621" lon="3.97949">
        <ele>264.02</ele>
        <time>2021-08-11T14:45:04Z</time>
      </trkpt>
      <trkpt lat="47.46197" lon="3.97964">
        <ele>264.02</ele>
        <time>2021-08-11T14:45:09Z</time>
      </trkpt>
      <trkpt lat="47.46193" lon="3.97971">
        <ele>265.46</ele>
        <time>2021-08-11T14:45:11Z</time>
      </trkpt>
      <trkpt lat="47.46185" lon="3.97988">
        <ele>265.94</ele>
        <time>2021-08-11T14:45:18Z</time>
      </trkpt>
      <trkpt lat="47.46181" lon="3.97993">
        <ele>266.42</ele>
        <time>2021-08-11T14:45:21Z</time>
      </trkpt>
      <trkpt lat="47.46179" lon="3.97995">
        <ele>266.9</ele>
        <time>2021-08-11T14:45:22Z</time>
      </trkpt>
      <trkpt lat="47.46178" lon="3.97997">
        <ele>266.9</ele>
        <time>2021-08-11T14:45:23Z</time>
      </trkpt>
      <trkpt lat="47.46176" lon="3.98">
        <ele>266.9</ele>
        <time>2021-08-11T14:45:24Z</time>
      </trkpt>
      <trkpt lat="47.46173" lon="3.98004">
        <ele>265.94</ele>
        <time>2021-08-11T14:45:25Z</time>
      </trkpt>
      <trkpt lat="47.46162" lon="3.98031">
        <ele>265.46</ele>
        <time>2021-08-11T14:45:32Z</time>
      </trkpt>
      <trkpt lat="47.46157" lon="3.9807">
        <ele>265.46</ele>
        <time>2021-08-11T14:45:40Z</time>
      </trkpt>
      <trkpt lat="47.46155" lon="3.98074">
        <ele>265.46</ele>
        <time>2021-08-11T14:45:41Z</time>
      </trkpt>
      <trkpt lat="47.46153" lon="3.98078">
        <ele>265.46</ele>
        <time>2021-08-11T14:45:42Z</time>
      </trkpt>
      <trkpt lat="47.46152" lon="3.98083">
        <ele>265.46</ele>
        <time>2021-08-11T14:45:43Z</time>
      </trkpt>
      <trkpt lat="47.4615" lon="3.98088">
        <ele>265.46</ele>
        <time>2021-08-11T14:45:44Z</time>
      </trkpt>
      <trkpt lat="47.46148" lon="3.98092">
        <ele>265.46</ele>
        <time>2021-08-11T14:45:45Z</time>
      </trkpt>
      <trkpt lat="47.46147" lon="3.98095">
        <ele>265.46</ele>
        <time>2021-08-11T14:45:46Z</time>
      </trkpt>
      <trkpt lat="47.46145" lon="3.98099">
        <ele>265.46</ele>
        <time>2021-08-11T14:45:47Z</time>
      </trkpt>
      <trkpt lat="47.46144" lon="3.98103">
        <ele>265.46</ele>
        <time>2021-08-11T14:45:48Z</time>
      </trkpt>
      <trkpt lat="47.46144" lon="3.98106">
        <ele>265.46</ele>
        <time>2021-08-11T14:45:49Z</time>
      </trkpt>
      <trkpt lat="47.46136" lon="3.98129">
        <ele>266.9</ele>
        <time>2021-08-11T14:45:56Z</time>
      </trkpt>
      <trkpt lat="47.46134" lon="3.98133">
        <ele>267.38</ele>
        <time>2021-08-11T14:45:57Z</time>
      </trkpt>
      <trkpt lat="47.46125" lon="3.9815">
        <ele>267.86</ele>
        <time>2021-08-11T14:46:03Z</time>
      </trkpt>
      <trkpt lat="47.4611" lon="3.9817">
        <ele>268.35</ele>
        <time>2021-08-11T14:46:11Z</time>
      </trkpt>
      <trkpt lat="47.46108" lon="3.98173">
        <ele>268.35</ele>
        <time>2021-08-11T14:46:12Z</time>
      </trkpt>
      <trkpt lat="47.46106" lon="3.98175">
        <ele>268.83</ele>
        <time>2021-08-11T14:46:13Z</time>
      </trkpt>
      <trkpt lat="47.46104" lon="3.98178">
        <ele>268.83</ele>
        <time>2021-08-11T14:46:14Z</time>
      </trkpt>
      <trkpt lat="47.46103" lon="3.9818">
        <ele>268.83</ele>
        <time>2021-08-11T14:46:15Z</time>
      </trkpt>
      <trkpt lat="47.46101" lon="3.98183">
        <ele>268.83</ele>
        <time>2021-08-11T14:46:16Z</time>
      </trkpt>
      <trkpt lat="47.46101" lon="3.98186">
        <ele>268.83</ele>
        <time>2021-08-11T14:46:17Z</time>
      </trkpt>
      <trkpt lat="47.46099" lon="3.98189">
        <ele>269.31</ele>
        <time>2021-08-11T14:46:18Z</time>
      </trkpt>
      <trkpt lat="47.46094" lon="3.9821">
        <ele>270.75</ele>
        <time>2021-08-11T14:46:25Z</time>
      </trkpt>
      <trkpt lat="47.46087" lon="3.98226">
        <ele>271.23</ele>
        <time>2021-08-11T14:46:33Z</time>
      </trkpt>
      <trkpt lat="47.46083" lon="3.98235">
        <ele>271.23</ele>
        <time>2021-08-11T14:46:37Z</time>
      </trkpt>
      <trkpt lat="47.46081" lon="3.98237">
        <ele>271.71</ele>
        <time>2021-08-11T14:46:38Z</time>
      </trkpt>
      <trkpt lat="47.46078" lon="3.98239">
        <ele>271.71</ele>
        <time>2021-08-11T14:46:39Z</time>
      </trkpt>
      <trkpt lat="47.46076" lon="3.9824">
        <ele>271.71</ele>
        <time>2021-08-11T14:46:40Z</time>
      </trkpt>
      <trkpt lat="47.46074" lon="3.98241">
        <ele>272.19</ele>
        <time>2021-08-11T14:46:41Z</time>
      </trkpt>
      <trkpt lat="47.46065" lon="3.98246">
        <ele>272.19</ele>
        <time>2021-08-11T14:46:47Z</time>
      </trkpt>
      <trkpt lat="47.46058" lon="3.98248">
        <ele>273.15</ele>
        <time>2021-08-11T14:46:53Z</time>
      </trkpt>
      <trkpt lat="47.46052" lon="3.98251">
        <ele>274.59</ele>
        <time>2021-08-11T14:47:00Z</time>
      </trkpt>
      <trkpt lat="47.46046" lon="3.98253">
        <ele>275.07</ele>
        <time>2021-08-11T14:47:07Z</time>
      </trkpt>
      <trkpt lat="47.46036" lon="3.98253">
        <ele>276.52</ele>
        <time>2021-08-11T14:47:16Z</time>
      </trkpt>
      <trkpt lat="47.46027" lon="3.98254">
        <ele>277.48</ele>
        <time>2021-08-11T14:47:24Z</time>
      </trkpt>
      <trkpt lat="47.46022" lon="3.98256">
        <ele>278.44</ele>
        <time>2021-08-11T14:47:31Z</time>
      </trkpt>
      <trkpt lat="47.46015" lon="3.98258">
        <ele>279.4</ele>
        <time>2021-08-11T14:47:38Z</time>
      </trkpt>
      <trkpt lat="47.46008" lon="3.98259">
        <ele>280.36</ele>
        <time>2021-08-11T14:47:44Z</time>
      </trkpt>
      <trkpt lat="47.46" lon="3.9826">
        <ele>280.84</ele>
        <time>2021-08-11T14:47:52Z</time>
      </trkpt>
      <trkpt lat="47.45993" lon="3.98261">
        <ele>281.32</ele>
        <time>2021-08-11T14:47:58Z</time>
      </trkpt>
      <trkpt lat="47.45983" lon="3.98263">
        <ele>282.77</ele>
        <time>2021-08-11T14:48:06Z</time>
      </trkpt>
      <trkpt lat="47.45973" lon="3.98265">
        <ele>283.73</ele>
        <time>2021-08-11T14:48:12Z</time>
      </trkpt>
      <trkpt lat="47.4596" lon="3.98269">
        <ele>285.17</ele>
        <time>2021-08-11T14:48:20Z</time>
      </trkpt>
      <trkpt lat="47.45946" lon="3.98272">
        <ele>286.13</ele>
        <time>2021-08-11T14:48:28Z</time>
      </trkpt>
      <trkpt lat="47.45932" lon="3.98277">
        <ele>287.09</ele>
        <time>2021-08-11T14:48:36Z</time>
      </trkpt>
      <trkpt lat="47.45916" lon="3.98283">
        <ele>289.01</ele>
        <time>2021-08-11T14:48:46Z</time>
      </trkpt>
      <trkpt lat="47.4591" lon="3.98284">
        <ele>289.49</ele>
        <time>2021-08-11T14:48:49Z</time>
      </trkpt>
      <trkpt lat="47.45909" lon="3.98285">
        <ele>289.49</ele>
        <time>2021-08-11T14:48:50Z</time>
      </trkpt>
      <trkpt lat="47.45903" lon="3.9829">
        <ele>290.46</ele>
        <time>2021-08-11T14:48:56Z</time>
      </trkpt>
      <trkpt lat="47.45895" lon="3.98302">
        <ele>291.9</ele>
        <time>2021-08-11T14:49:04Z</time>
      </trkpt>
      <trkpt lat="47.45886" lon="3.98312">
        <ele>293.34</ele>
        <time>2021-08-11T14:49:11Z</time>
      </trkpt>
      <trkpt lat="47.45879" lon="3.98327">
        <ele>295.26</ele>
        <time>2021-08-11T14:49:20Z</time>
      </trkpt>
      <trkpt lat="47.45875" lon="3.98335">
        <ele>295.74</ele>
        <time>2021-08-11T14:49:26Z</time>
      </trkpt>
      <trkpt lat="47.45871" lon="3.98342">
        <ele>297.67</ele>
        <time>2021-08-11T14:49:33Z</time>
      </trkpt>
      <trkpt lat="47.45868" lon="3.98357">
        <ele>299.11</ele>
        <time>2021-08-11T14:49:40Z</time>
      </trkpt>
      <trkpt lat="47.45865" lon="3.98364">
        <ele>300.07</ele>
        <time>2021-08-11T14:49:43Z</time>
      </trkpt>
      <trkpt lat="47.45864" lon="3.98366">
        <ele>300.07</ele>
        <time>2021-08-11T14:49:44Z</time>
      </trkpt>
      <trkpt lat="47.45863" lon="3.98368">
        <ele>300.07</ele>
        <time>2021-08-11T14:49:45Z</time>
      </trkpt>
      <trkpt lat="47.45862" lon="3.98369">
        <ele>300.55</ele>
        <time>2021-08-11T14:49:46Z</time>
      </trkpt>
      <trkpt lat="47.45861" lon="3.9837">
        <ele>300.55</ele>
        <time>2021-08-11T14:49:47Z</time>
      </trkpt>
      <trkpt lat="47.45859" lon="3.98372">
        <ele>300.55</ele>
        <time>2021-08-11T14:49:48Z</time>
      </trkpt>
      <trkpt lat="47.45858" lon="3.98374">
        <ele>301.03</ele>
        <time>2021-08-11T14:49:49Z</time>
      </trkpt>
      <trkpt lat="47.45857" lon="3.98376">
        <ele>301.03</ele>
        <time>2021-08-11T14:49:50Z</time>
      </trkpt>
      <trkpt lat="47.45856" lon="3.98377">
        <ele>301.51</ele>
        <time>2021-08-11T14:49:51Z</time>
      </trkpt>
      <trkpt lat="47.45855" lon="3.98379">
        <ele>301.51</ele>
        <time>2021-08-11T14:49:52Z</time>
      </trkpt>
      <trkpt lat="47.45854" lon="3.9838">
        <ele>301.99</ele>
        <time>2021-08-11T14:49:53Z</time>
      </trkpt>
      <trkpt lat="47.45844" lon="3.98389">
        <ele>303.43</ele>
        <time>2021-08-11T14:50:01Z</time>
      </trkpt>
      <trkpt lat="47.45833" lon="3.98399">
        <ele>305.36</ele>
        <time>2021-08-11T14:50:09Z</time>
      </trkpt>
      <trkpt lat="47.45822" lon="3.98408">
        <ele>306.8</ele>
        <time>2021-08-11T14:50:16Z</time>
      </trkpt>
      <trkpt lat="47.45813" lon="3.98415">
        <ele>308.24</ele>
        <time>2021-08-11T14:50:22Z</time>
      </trkpt>
      <trkpt lat="47.45802" lon="3.98425">
        <ele>309.2</ele>
        <time>2021-08-11T14:50:30Z</time>
      </trkpt>
      <trkpt lat="47.4579" lon="3.98432">
        <ele>310.16</ele>
        <time>2021-08-11T14:50:37Z</time>
      </trkpt>
      <trkpt lat="47.45781" lon="3.98441">
        <ele>311.12</ele>
        <time>2021-08-11T14:50:45Z</time>
      </trkpt>
      <trkpt lat="47.45766" lon="3.98453">
        <ele>312.09</ele>
        <time>2021-08-11T14:50:54Z</time>
      </trkpt>
      <trkpt lat="47.45752" lon="3.98464">
        <ele>312.09</ele>
        <time>2021-08-11T14:51:02Z</time>
      </trkpt>
      <trkpt lat="47.45745" lon="3.98466">
        <ele>313.05</ele>
        <time>2021-08-11T14:51:07Z</time>
      </trkpt>
      <trkpt lat="47.45741" lon="3.98467">
        <ele>313.05</ele>
        <time>2021-08-11T14:51:10Z</time>
      </trkpt>
      <trkpt lat="47.45739" lon="3.98467">
        <ele>312.57</ele>
        <time>2021-08-11T14:51:16Z</time>
      </trkpt>
      <trkpt lat="47.45737" lon="3.98469">
        <ele>312.57</ele>
        <time>2021-08-11T14:51:26Z</time>
      </trkpt>
      <trkpt lat="47.45734" lon="3.98469">
        <ele>312.57</ele>
        <time>2021-08-11T14:51:33Z</time>
      </trkpt>
      <trkpt lat="47.45732" lon="3.9847">
        <ele>312.57</ele>
        <time>2021-08-11T14:51:38Z</time>
      </trkpt>
      <trkpt lat="47.45735" lon="3.98469">
        <ele>311.6</ele>
        <time>2021-08-11T14:51:45Z</time>
      </trkpt>
      <trkpt lat="47.45737" lon="3.98468">
        <ele>311.6</ele>
        <time>2021-08-11T14:51:49Z</time>
      </trkpt>
      <trkpt lat="47.45739" lon="3.98468">
        <ele>311.6</ele>
        <time>2021-08-11T14:51:51Z</time>
      </trkpt>
      <trkpt lat="47.4574" lon="3.98468">
        <ele>311.6</ele>
        <time>2021-08-11T14:51:52Z</time>
      </trkpt>
      <trkpt lat="47.45742" lon="3.98468">
        <ele>311.6</ele>
        <time>2021-08-11T14:51:53Z</time>
      </trkpt>
      <trkpt lat="47.45743" lon="3.98468">
        <ele>311.6</ele>
        <time>2021-08-11T14:51:54Z</time>
      </trkpt>
      <trkpt lat="47.45744" lon="3.98468">
        <ele>311.6</ele>
        <time>2021-08-11T14:51:55Z</time>
      </trkpt>
      <trkpt lat="47.45745" lon="3.98469">
        <ele>312.57</ele>
        <time>2021-08-11T14:51:56Z</time>
      </trkpt>
      <trkpt lat="47.45746" lon="3.98469">
        <ele>312.57</ele>
        <time>2021-08-11T14:51:57Z</time>
      </trkpt>
      <trkpt lat="47.45747" lon="3.98469">
        <ele>312.57</ele>
        <time>2021-08-11T14:52:03Z</time>
      </trkpt>
      <trkpt lat="47.45747" lon="3.98471">
        <ele>313.53</ele>
        <time>2021-08-11T14:52:07Z</time>
      </trkpt>
      <trkpt lat="47.45746" lon="3.98472">
        <ele>313.53</ele>
        <time>2021-08-11T14:52:14Z</time>
      </trkpt>
      <trkpt lat="47.45746" lon="3.98474">
        <ele>312.09</ele>
        <time>2021-08-11T14:52:19Z</time>
      </trkpt>
      <trkpt lat="47.45746" lon="3.98471">
        <ele>312.09</ele>
        <time>2021-08-11T14:52:34Z</time>
      </trkpt>
      <trkpt lat="47.45747" lon="3.98471">
        <ele>311.6</ele>
        <time>2021-08-11T14:52:46Z</time>
      </trkpt>
      <trkpt lat="47.45746" lon="3.98472">
        <ele>311.6</ele>
        <time>2021-08-11T14:53:02Z</time>
      </trkpt>
      <trkpt lat="47.45746" lon="3.98475">
        <ele>311.6</ele>
        <time>2021-08-11T14:53:16Z</time>
      </trkpt>
      <trkpt lat="47.45745" lon="3.98476">
        <ele>311.6</ele>
        <time>2021-08-11T14:53:23Z</time>
      </trkpt>
      <trkpt lat="47.45743" lon="3.98476">
        <ele>311.6</ele>
        <time>2021-08-11T14:53:25Z</time>
      </trkpt>
      <trkpt lat="47.45742" lon="3.98476">
        <ele>311.6</ele>
        <time>2021-08-11T14:53:26Z</time>
      </trkpt>
      <trkpt lat="47.45725" lon="3.98476">
        <ele>311.6</ele>
        <time>2021-08-11T14:53:31Z</time>
      </trkpt>
      <trkpt lat="47.45708" lon="3.98477">
        <ele>311.6</ele>
        <time>2021-08-11T14:53:38Z</time>
      </trkpt>
      <trkpt lat="47.45693" lon="3.98479">
        <ele>311.6</ele>
        <time>2021-08-11T14:53:45Z</time>
      </trkpt>
      <trkpt lat="47.45682" lon="3.9848">
        <ele>311.6</ele>
        <time>2021-08-11T14:53:52Z</time>
      </trkpt>
      <trkpt lat="47.4567" lon="3.98483">
        <ele>312.57</ele>
        <time>2021-08-11T14:53:59Z</time>
      </trkpt>
      <trkpt lat="47.45662" lon="3.98485">
        <ele>312.57</ele>
        <time>2021-08-11T14:54:04Z</time>
      </trkpt>
      <trkpt lat="47.45661" lon="3.98485">
        <ele>312.57</ele>
        <time>2021-08-11T14:54:05Z</time>
      </trkpt>
      <trkpt lat="47.45657" lon="3.98486">
        <ele>313.05</ele>
        <time>2021-08-11T14:54:09Z</time>
      </trkpt>
      <trkpt lat="47.45651" lon="3.98487">
        <ele>313.53</ele>
        <time>2021-08-11T14:54:18Z</time>
      </trkpt>
      <trkpt lat="47.45652" lon="3.98485">
        <ele>313.53</ele>
        <time>2021-08-11T14:54:30Z</time>
      </trkpt>
      <trkpt lat="47.45651" lon="3.98485">
        <ele>312.09</ele>
        <time>2021-08-11T14:54:41Z</time>
      </trkpt>
      <trkpt lat="47.45651" lon="3.98482">
        <ele>312.09</ele>
        <time>2021-08-11T14:54:56Z</time>
      </trkpt>
      <trkpt lat="47.4565" lon="3.98483">
        <ele>312.09</ele>
        <time>2021-08-11T14:55:07Z</time>
      </trkpt>
      <trkpt lat="47.4565" lon="3.98485">
        <ele>313.05</ele>
        <time>2021-08-11T14:55:12Z</time>
      </trkpt>
      <trkpt lat="47.45648" lon="3.98485">
        <ele>313.05</ele>
        <time>2021-08-11T14:55:19Z</time>
      </trkpt>
      <trkpt lat="47.45649" lon="3.98484">
        <ele>311.6</ele>
        <time>2021-08-11T14:55:26Z</time>
      </trkpt>
      <trkpt lat="47.4565" lon="3.98484">
        <ele>311.6</ele>
        <time>2021-08-11T14:55:32Z</time>
      </trkpt>
      <trkpt lat="47.45652" lon="3.98482">
        <ele>311.12</ele>
        <time>2021-08-11T14:55:52Z</time>
      </trkpt>
      <trkpt lat="47.45651" lon="3.98482">
        <ele>312.57</ele>
        <time>2021-08-11T14:55:56Z</time>
      </trkpt>
      <trkpt lat="47.4565" lon="3.98481">
        <ele>311.12</ele>
        <time>2021-08-11T14:56:16Z</time>
      </trkpt>
      <trkpt lat="47.45651" lon="3.98484">
        <ele>311.12</ele>
        <time>2021-08-11T14:56:34Z</time>
      </trkpt>
      <trkpt lat="47.45652" lon="3.98481">
        <ele>310.64</ele>
        <time>2021-08-11T14:56:54Z</time>
      </trkpt>
      <trkpt lat="47.45649" lon="3.98479">
        <ele>312.09</ele>
        <time>2021-08-11T14:57:08Z</time>
      </trkpt>
      <trkpt lat="47.45648" lon="3.98478">
        <ele>312.09</ele>
        <time>2021-08-11T14:57:12Z</time>
      </trkpt>
      <trkpt lat="47.45647" lon="3.98477">
        <ele>312.09</ele>
        <time>2021-08-11T14:57:13Z</time>
      </trkpt>
      <trkpt lat="47.45638" lon="3.98468">
        <ele>312.57</ele>
        <time>2021-08-11T14:57:22Z</time>
      </trkpt>
      <trkpt lat="47.45634" lon="3.98464">
        <ele>312.57</ele>
        <time>2021-08-11T14:57:32Z</time>
      </trkpt>
      <trkpt lat="47.45632" lon="3.98462">
        <ele>312.57</ele>
        <time>2021-08-11T14:57:33Z</time>
      </trkpt>
      <trkpt lat="47.4562" lon="3.98445">
        <ele>313.05</ele>
        <time>2021-08-11T14:57:40Z</time>
      </trkpt>
      <trkpt lat="47.45604" lon="3.98434">
        <ele>313.53</ele>
        <time>2021-08-11T14:57:48Z</time>
      </trkpt>
      <trkpt lat="47.45589" lon="3.98431">
        <ele>314.97</ele>
        <time>2021-08-11T14:57:56Z</time>
      </trkpt>
      <trkpt lat="47.45582" lon="3.98431">
        <ele>314.97</ele>
        <time>2021-08-11T14:58:01Z</time>
      </trkpt>
      <trkpt lat="47.45572" lon="3.9843">
        <ele>315.45</ele>
        <time>2021-08-11T14:58:07Z</time>
      </trkpt>
      <trkpt lat="47.45559" lon="3.9843">
        <ele>316.41</ele>
        <time>2021-08-11T14:58:15Z</time>
      </trkpt>
      <trkpt lat="47.45557" lon="3.9843">
        <ele>316.89</ele>
        <time>2021-08-11T14:58:20Z</time>
      </trkpt>
      <trkpt lat="47.45557" lon="3.9843">
        <ele>315.45</ele>
        <time>2021-08-11T14:58:22Z</time>
      </trkpt>
      <trkpt lat="47.45554" lon="3.98431">
        <ele>315.45</ele>
        <time>2021-08-11T14:58:44Z</time>
      </trkpt>
      <trkpt lat="47.4555" lon="3.98431">
        <ele>315.45</ele>
        <time>2021-08-11T14:59:02Z</time>
      </trkpt>
      <trkpt lat="47.45551" lon="3.98432">
        <ele>315.45</ele>
        <time>2021-08-11T14:59:13Z</time>
      </trkpt>
      <trkpt lat="47.45552" lon="3.98432">
        <ele>315.45</ele>
        <time>2021-08-11T14:59:37Z</time>
      </trkpt>
      <trkpt lat="47.45552" lon="3.9843">
        <ele>315.45</ele>
        <time>2021-08-11T14:59:55Z</time>
      </trkpt>
      <trkpt lat="47.45551" lon="3.98434">
        <ele>315.45</ele>
        <time>2021-08-11T15:00:23Z</time>
      </trkpt>
      <trkpt lat="47.45551" lon="3.98432">
        <ele>316.89</ele>
        <time>2021-08-11T15:00:32Z</time>
      </trkpt>
      <trkpt lat="47.45551" lon="3.98431">
        <ele>316.89</ele>
        <time>2021-08-11T15:00:45Z</time>
      </trkpt>
      <trkpt lat="47.45551" lon="3.98432">
        <ele>316.89</ele>
        <time>2021-08-11T15:00:53Z</time>
      </trkpt>
      <trkpt lat="47.45551" lon="3.98433">
        <ele>315.45</ele>
        <time>2021-08-11T15:01:03Z</time>
      </trkpt>
      <trkpt lat="47.45549" lon="3.98434">
        <ele>315.45</ele>
        <time>2021-08-11T15:01:21Z</time>
      </trkpt>
      <trkpt lat="47.45548" lon="3.98434">
        <ele>315.45</ele>
        <time>2021-08-11T15:01:43Z</time>
      </trkpt>
      <trkpt lat="47.45548" lon="3.9843">
        <ele>316.41</ele>
        <time>2021-08-11T15:02:01Z</time>
      </trkpt>
      <trkpt lat="47.45553" lon="3.98428">
        <ele>316.41</ele>
        <time>2021-08-11T15:02:07Z</time>
      </trkpt>
      <trkpt lat="47.45555" lon="3.98428">
        <ele>316.41</ele>
        <time>2021-08-11T15:02:15Z</time>
      </trkpt>
      <trkpt lat="47.45558" lon="3.98429">
        <ele>316.41</ele>
        <time>2021-08-11T15:02:22Z</time>
      </trkpt>
      <trkpt lat="47.45554" lon="3.9843">
        <ele>316.41</ele>
        <time>2021-08-11T15:02:30Z</time>
      </trkpt>
      <trkpt lat="47.45554" lon="3.98429">
        <ele>316.41</ele>
        <time>2021-08-11T15:02:40Z</time>
      </trkpt>
      <trkpt lat="47.45553" lon="3.98427">
        <ele>316.41</ele>
        <time>2021-08-11T15:02:48Z</time>
      </trkpt>
      <trkpt lat="47.45553" lon="3.98428">
        <ele>315.45</ele>
        <time>2021-08-11T15:03:10Z</time>
      </trkpt>
      <trkpt lat="47.45557" lon="3.98425">
        <ele>315.45</ele>
        <time>2021-08-11T15:03:26Z</time>
      </trkpt>
      <trkpt lat="47.45557" lon="3.98424">
        <ele>314.97</ele>
        <time>2021-08-11T15:03:46Z</time>
      </trkpt>
      <trkpt lat="47.45553" lon="3.98421">
        <ele>316.41</ele>
        <time>2021-08-11T15:04:04Z</time>
      </trkpt>
      <trkpt lat="47.45551" lon="3.98424">
        <ele>314.97</ele>
        <time>2021-08-11T15:04:24Z</time>
      </trkpt>
      <trkpt lat="47.45551" lon="3.98425">
        <ele>314.97</ele>
        <time>2021-08-11T15:04:51Z</time>
      </trkpt>
      <trkpt lat="47.45554" lon="3.98425">
        <ele>314.97</ele>
        <time>2021-08-11T15:05:18Z</time>
      </trkpt>
      <trkpt lat="47.45554" lon="3.98424">
        <ele>314.97</ele>
        <time>2021-08-11T15:05:26Z</time>
      </trkpt>
      <trkpt lat="47.45554" lon="3.98421">
        <ele>314.97</ele>
        <time>2021-08-11T15:05:31Z</time>
      </trkpt>
      <trkpt lat="47.45552" lon="3.98423">
        <ele>316.41</ele>
        <time>2021-08-11T15:05:52Z</time>
      </trkpt>
      <trkpt lat="47.45552" lon="3.98425">
        <ele>316.89</ele>
        <time>2021-08-11T15:05:56Z</time>
      </trkpt>
      <trkpt lat="47.45544" lon="3.98433">
        <ele>317.85</ele>
        <time>2021-08-11T15:06:03Z</time>
      </trkpt>
      <trkpt lat="47.45535" lon="3.98445">
        <ele>319.3</ele>
        <time>2021-08-11T15:06:09Z</time>
      </trkpt>
      <trkpt lat="47.45522" lon="3.98459">
        <ele>320.26</ele>
        <time>2021-08-11T15:06:17Z</time>
      </trkpt>
      <trkpt lat="47.45514" lon="3.98467">
        <ele>320.74</ele>
        <time>2021-08-11T15:06:22Z</time>
      </trkpt>
      <trkpt lat="47.45511" lon="3.98469">
        <ele>320.74</ele>
        <time>2021-08-11T15:06:23Z</time>
      </trkpt>
      <trkpt lat="47.45509" lon="3.98471">
        <ele>321.7</ele>
        <time>2021-08-11T15:06:24Z</time>
      </trkpt>
      <trkpt lat="47.45506" lon="3.98472">
        <ele>321.7</ele>
        <time>2021-08-11T15:06:25Z</time>
      </trkpt>
      <trkpt lat="47.45488" lon="3.98484">
        <ele>322.18</ele>
        <time>2021-08-11T15:06:33Z</time>
      </trkpt>
      <trkpt lat="47.45473" lon="3.98492">
        <ele>323.14</ele>
        <time>2021-08-11T15:06:38Z</time>
      </trkpt>
      <trkpt lat="47.45457" lon="3.98502">
        <ele>323.62</ele>
        <time>2021-08-11T15:06:45Z</time>
      </trkpt>
      <trkpt lat="47.45438" lon="3.98518">
        <ele>324.58</ele>
        <time>2021-08-11T15:06:52Z</time>
      </trkpt>
      <trkpt lat="47.45426" lon="3.98537">
        <ele>325.54</ele>
        <time>2021-08-11T15:06:59Z</time>
      </trkpt>
      <trkpt lat="47.45425" lon="3.9854">
        <ele>325.54</ele>
        <time>2021-08-11T15:07:00Z</time>
      </trkpt>
      <trkpt lat="47.45423" lon="3.98542">
        <ele>325.54</ele>
        <time>2021-08-11T15:07:01Z</time>
      </trkpt>
      <trkpt lat="47.45422" lon="3.98544">
        <ele>325.54</ele>
        <time>2021-08-11T15:07:02Z</time>
      </trkpt>
      <trkpt lat="47.45421" lon="3.98547">
        <ele>325.54</ele>
        <time>2021-08-11T15:07:03Z</time>
      </trkpt>
      <trkpt lat="47.4542" lon="3.98549">
        <ele>325.54</ele>
        <time>2021-08-11T15:07:04Z</time>
      </trkpt>
      <trkpt lat="47.4541" lon="3.98568">
        <ele>327.47</ele>
        <time>2021-08-11T15:07:12Z</time>
      </trkpt>
      <trkpt lat="47.454" lon="3.98588">
        <ele>327.95</ele>
        <time>2021-08-11T15:07:20Z</time>
      </trkpt>
      <trkpt lat="47.45386" lon="3.98605">
        <ele>328.43</ele>
        <time>2021-08-11T15:07:26Z</time>
      </trkpt>
      <trkpt lat="47.45366" lon="3.98616">
        <ele>328.91</ele>
        <time>2021-08-11T15:07:34Z</time>
      </trkpt>
      <trkpt lat="47.45349" lon="3.98621">
        <ele>329.87</ele>
        <time>2021-08-11T15:07:41Z</time>
      </trkpt>
      <trkpt lat="47.4533" lon="3.98627">
        <ele>330.83</ele>
        <time>2021-08-11T15:07:50Z</time>
      </trkpt>
      <trkpt lat="47.45304" lon="3.98634">
        <ele>331.79</ele>
        <time>2021-08-11T15:08:02Z</time>
      </trkpt>
      <trkpt lat="47.45291" lon="3.98641">
        <ele>332.75</ele>
        <time>2021-08-11T15:08:09Z</time>
      </trkpt>
      <trkpt lat="47.45289" lon="3.98641">
        <ele>332.75</ele>
        <time>2021-08-11T15:08:10Z</time>
      </trkpt>
      <trkpt lat="47.45287" lon="3.98642">
        <ele>333.23</ele>
        <time>2021-08-11T15:08:11Z</time>
      </trkpt>
      <trkpt lat="47.45285" lon="3.98643">
        <ele>333.23</ele>
        <time>2021-08-11T15:08:12Z</time>
      </trkpt>
      <trkpt lat="47.4527" lon="3.98651">
        <ele>333.23</ele>
        <time>2021-08-11T15:08:20Z</time>
      </trkpt>
      <trkpt lat="47.45258" lon="3.98654">
        <ele>333.23</ele>
        <time>2021-08-11T15:08:26Z</time>
      </trkpt>
      <trkpt lat="47.45256" lon="3.98654">
        <ele>333.23</ele>
        <time>2021-08-11T15:08:27Z</time>
      </trkpt>
      <trkpt lat="47.45255" lon="3.98654">
        <ele>333.23</ele>
        <time>2021-08-11T15:08:28Z</time>
      </trkpt>
      <trkpt lat="47.45253" lon="3.98653">
        <ele>333.71</ele>
        <time>2021-08-11T15:08:29Z</time>
      </trkpt>
      <trkpt lat="47.4525" lon="3.98653">
        <ele>333.71</ele>
        <time>2021-08-11T15:08:36Z</time>
      </trkpt>
      <trkpt lat="47.45242" lon="3.98654">
        <ele>333.71</ele>
        <time>2021-08-11T15:08:45Z</time>
      </trkpt>
      <trkpt lat="47.45237" lon="3.98656">
        <ele>333.71</ele>
        <time>2021-08-11T15:08:50Z</time>
      </trkpt>
      <trkpt lat="47.45236" lon="3.98656">
        <ele>333.71</ele>
        <time>2021-08-11T15:08:51Z</time>
      </trkpt>
      <trkpt lat="47.45234" lon="3.98656">
        <ele>333.71</ele>
        <time>2021-08-11T15:08:52Z</time>
      </trkpt>
      <trkpt lat="47.45225" lon="3.98661">
        <ele>333.71</ele>
        <time>2021-08-11T15:09:01Z</time>
      </trkpt>
      <trkpt lat="47.45223" lon="3.98662">
        <ele>333.71</ele>
        <time>2021-08-11T15:09:07Z</time>
      </trkpt>
      <trkpt lat="47.45223" lon="3.98662">
        <ele>333.71</ele>
        <time>2021-08-11T15:09:09Z</time>
      </trkpt>
      <trkpt lat="47.45221" lon="3.98663">
        <ele>333.71</ele>
        <time>2021-08-11T15:09:10Z</time>
      </trkpt>
      <trkpt lat="47.4522" lon="3.98663">
        <ele>333.71</ele>
        <time>2021-08-11T15:09:11Z</time>
      </trkpt>
      <trkpt lat="47.45202" lon="3.98668">
        <ele>333.71</ele>
        <time>2021-08-11T15:09:18Z</time>
      </trkpt>
      <trkpt lat="47.45181" lon="3.98673">
        <ele>333.71</ele>
        <time>2021-08-11T15:09:26Z</time>
      </trkpt>
      <trkpt lat="47.45157" lon="3.98679">
        <ele>334.2</ele>
        <time>2021-08-11T15:09:35Z</time>
      </trkpt>
      <trkpt lat="47.45139" lon="3.98685">
        <ele>334.2</ele>
        <time>2021-08-11T15:09:41Z</time>
      </trkpt>
      <trkpt lat="47.45106" lon="3.98688">
        <ele>334.2</ele>
        <time>2021-08-11T15:09:52Z</time>
      </trkpt>
      <trkpt lat="47.45077" lon="3.9869">
        <ele>335.16</ele>
        <time>2021-08-11T15:10:02Z</time>
      </trkpt>
      <trkpt lat="47.45047" lon="3.98698">
        <ele>335.64</ele>
        <time>2021-08-11T15:10:13Z</time>
      </trkpt>
      <trkpt lat="47.4503" lon="3.98704">
        <ele>336.12</ele>
        <time>2021-08-11T15:10:19Z</time>
      </trkpt>
      <trkpt lat="47.45005" lon="3.98719">
        <ele>337.08</ele>
        <time>2021-08-11T15:10:29Z</time>
      </trkpt>
      <trkpt lat="47.44976" lon="3.98733">
        <ele>337.56</ele>
        <time>2021-08-11T15:10:39Z</time>
      </trkpt>
      <trkpt lat="47.44957" lon="3.98739">
        <ele>338.52</ele>
        <time>2021-08-11T15:10:47Z</time>
      </trkpt>
      <trkpt lat="47.44933" lon="3.98747">
        <ele>339.48</ele>
        <time>2021-08-11T15:10:56Z</time>
      </trkpt>
      <trkpt lat="47.44912" lon="3.98754">
        <ele>339.96</ele>
        <time>2021-08-11T15:11:04Z</time>
      </trkpt>
      <trkpt lat="47.44891" lon="3.98763">
        <ele>341.41</ele>
        <time>2021-08-11T15:11:13Z</time>
      </trkpt>
      <trkpt lat="47.44872" lon="3.98769">
        <ele>341.89</ele>
        <time>2021-08-11T15:11:21Z</time>
      </trkpt>
      <trkpt lat="47.44851" lon="3.98775">
        <ele>343.33</ele>
        <time>2021-08-11T15:11:30Z</time>
      </trkpt>
      <trkpt lat="47.44836" lon="3.98781">
        <ele>344.29</ele>
        <time>2021-08-11T15:11:37Z</time>
      </trkpt>
      <trkpt lat="47.4482" lon="3.98791">
        <ele>345.25</ele>
        <time>2021-08-11T15:11:45Z</time>
      </trkpt>
      <trkpt lat="47.44804" lon="3.98802">
        <ele>347.17</ele>
        <time>2021-08-11T15:11:54Z</time>
      </trkpt>
      <trkpt lat="47.44789" lon="3.98819">
        <ele>348.13</ele>
        <time>2021-08-11T15:12:03Z</time>
      </trkpt>
      <trkpt lat="47.44774" lon="3.98832">
        <ele>349.1</ele>
        <time>2021-08-11T15:12:11Z</time>
      </trkpt>
      <trkpt lat="47.44759" lon="3.98848">
        <ele>350.06</ele>
        <time>2021-08-11T15:12:19Z</time>
      </trkpt>
      <trkpt lat="47.44746" lon="3.98864">
        <ele>351.02</ele>
        <time>2021-08-11T15:12:27Z</time>
      </trkpt>
      <trkpt lat="47.44733" lon="3.98881">
        <ele>351.5</ele>
        <time>2021-08-11T15:12:35Z</time>
      </trkpt>
      <trkpt lat="47.44718" lon="3.989">
        <ele>352.46</ele>
        <time>2021-08-11T15:12:44Z</time>
      </trkpt>
      <trkpt lat="47.44705" lon="3.98916">
        <ele>353.42</ele>
        <time>2021-08-11T15:12:52Z</time>
      </trkpt>
      <trkpt lat="47.44692" lon="3.98932">
        <ele>354.86</ele>
        <time>2021-08-11T15:13:00Z</time>
      </trkpt>
      <trkpt lat="47.44674" lon="3.9895">
        <ele>355.83</ele>
        <time>2021-08-11T15:13:11Z</time>
      </trkpt>
      <trkpt lat="47.44671" lon="3.98952">
        <ele>356.31</ele>
        <time>2021-08-11T15:13:13Z</time>
      </trkpt>
      <trkpt lat="47.44669" lon="3.98952">
        <ele>356.79</ele>
        <time>2021-08-11T15:13:14Z</time>
      </trkpt>
      <trkpt lat="47.44666" lon="3.9895">
        <ele>356.31</ele>
        <time>2021-08-11T15:13:18Z</time>
      </trkpt>
      <trkpt lat="47.44664" lon="3.98948">
        <ele>356.79</ele>
        <time>2021-08-11T15:13:19Z</time>
      </trkpt>
      <trkpt lat="47.44663" lon="3.98946">
        <ele>356.31</ele>
        <time>2021-08-11T15:13:20Z</time>
      </trkpt>
      <trkpt lat="47.44661" lon="3.98943">
        <ele>356.31</ele>
        <time>2021-08-11T15:13:21Z</time>
      </trkpt>
      <trkpt lat="47.44659" lon="3.9894">
        <ele>356.31</ele>
        <time>2021-08-11T15:13:22Z</time>
      </trkpt>
      <trkpt lat="47.44644" lon="3.98917">
        <ele>356.31</ele>
        <time>2021-08-11T15:13:29Z</time>
      </trkpt>
      <trkpt lat="47.44617" lon="3.98891">
        <ele>356.31</ele>
        <time>2021-08-11T15:13:37Z</time>
      </trkpt>
      <trkpt lat="47.44594" lon="3.9887">
        <ele>356.31</ele>
        <time>2021-08-11T15:13:43Z</time>
      </trkpt>
      <trkpt lat="47.4459" lon="3.98866">
        <ele>356.31</ele>
        <time>2021-08-11T15:13:44Z</time>
      </trkpt>
      <trkpt lat="47.44586" lon="3.98862">
        <ele>356.31</ele>
        <time>2021-08-11T15:13:45Z</time>
      </trkpt>
      <trkpt lat="47.44582" lon="3.98857">
        <ele>356.31</ele>
        <time>2021-08-11T15:13:46Z</time>
      </trkpt>
      <trkpt lat="47.44578" lon="3.98853">
        <ele>356.31</ele>
        <time>2021-08-11T15:13:47Z</time>
      </trkpt>
      <trkpt lat="47.44574" lon="3.98847">
        <ele>356.31</ele>
        <time>2021-08-11T15:13:48Z</time>
      </trkpt>
      <trkpt lat="47.4457" lon="3.98841">
        <ele>356.31</ele>
        <time>2021-08-11T15:13:49Z</time>
      </trkpt>
      <trkpt lat="47.44543" lon="3.98788">
        <ele>356.31</ele>
        <time>2021-08-11T15:13:58Z</time>
      </trkpt>
      <trkpt lat="47.44541" lon="3.98783">
        <ele>356.31</ele>
        <time>2021-08-11T15:13:59Z</time>
      </trkpt>
      <trkpt lat="47.44505" lon="3.98727">
        <ele>356.79</ele>
        <time>2021-08-11T15:14:11Z</time>
      </trkpt>
      <trkpt lat="47.44501" lon="3.98722">
        <ele>356.79</ele>
        <time>2021-08-11T15:14:12Z</time>
      </trkpt>
      <trkpt lat="47.44498" lon="3.98717">
        <ele>356.79</ele>
        <time>2021-08-11T15:14:13Z</time>
      </trkpt>
      <trkpt lat="47.4448" lon="3.98694">
        <ele>356.79</ele>
        <time>2021-08-11T15:14:19Z</time>
      </trkpt>
      <trkpt lat="47.44477" lon="3.9869">
        <ele>356.79</ele>
        <time>2021-08-11T15:14:20Z</time>
      </trkpt>
      <trkpt lat="47.44436" lon="3.98652">
        <ele>357.27</ele>
        <time>2021-08-11T15:14:31Z</time>
      </trkpt>
      <trkpt lat="47.44428" lon="3.98648">
        <ele>357.75</ele>
        <time>2021-08-11T15:14:33Z</time>
      </trkpt>
      <trkpt lat="47.44423" lon="3.98647">
        <ele>357.75</ele>
        <time>2021-08-11T15:14:34Z</time>
      </trkpt>
      <trkpt lat="47.4439" lon="3.98636">
        <ele>359.19</ele>
        <time>2021-08-11T15:14:43Z</time>
      </trkpt>
      <trkpt lat="47.44351" lon="3.9863">
        <ele>361.59</ele>
        <time>2021-08-11T15:14:54Z</time>
      </trkpt>
      <trkpt lat="47.44327" lon="3.98626">
        <ele>363.04</ele>
        <time>2021-08-11T15:15:01Z</time>
      </trkpt>
      <trkpt lat="47.44298" lon="3.98617">
        <ele>364</ele>
        <time>2021-08-11T15:15:10Z</time>
      </trkpt>
      <trkpt lat="47.44271" lon="3.98602">
        <ele>364.48</ele>
        <time>2021-08-11T15:15:18Z</time>
      </trkpt>
      <trkpt lat="47.44244" lon="3.98581">
        <ele>364.48</ele>
        <time>2021-08-11T15:15:26Z</time>
      </trkpt>
      <trkpt lat="47.44224" lon="3.98566">
        <ele>364.48</ele>
        <time>2021-08-11T15:15:31Z</time>
      </trkpt>
      <trkpt lat="47.4422" lon="3.98561">
        <ele>364.48</ele>
        <time>2021-08-11T15:15:32Z</time>
      </trkpt>
      <trkpt lat="47.44217" lon="3.98556">
        <ele>364.48</ele>
        <time>2021-08-11T15:15:33Z</time>
      </trkpt>
      <trkpt lat="47.44215" lon="3.9855">
        <ele>364.48</ele>
        <time>2021-08-11T15:15:34Z</time>
      </trkpt>
      <trkpt lat="47.44213" lon="3.98544">
        <ele>364.48</ele>
        <time>2021-08-11T15:15:35Z</time>
      </trkpt>
      <trkpt lat="47.44212" lon="3.98538">
        <ele>364.48</ele>
        <time>2021-08-11T15:15:36Z</time>
      </trkpt>
      <trkpt lat="47.44211" lon="3.98531">
        <ele>364.48</ele>
        <time>2021-08-11T15:15:37Z</time>
      </trkpt>
      <trkpt lat="47.4421" lon="3.98523">
        <ele>364.48</ele>
        <time>2021-08-11T15:15:38Z</time>
      </trkpt>
      <trkpt lat="47.4421" lon="3.98516">
        <ele>363.52</ele>
        <time>2021-08-11T15:15:39Z</time>
      </trkpt>
      <trkpt lat="47.4421" lon="3.9851">
        <ele>363.04</ele>
        <time>2021-08-11T15:15:40Z</time>
      </trkpt>
      <trkpt lat="47.44211" lon="3.98506">
        <ele>363.04</ele>
        <time>2021-08-11T15:15:41Z</time>
      </trkpt>
      <trkpt lat="47.44212" lon="3.98502">
        <ele>363.04</ele>
        <time>2021-08-11T15:15:42Z</time>
      </trkpt>
      <trkpt lat="47.44213" lon="3.98499">
        <ele>363.04</ele>
        <time>2021-08-11T15:15:43Z</time>
      </trkpt>
      <trkpt lat="47.44219" lon="3.98475">
        <ele>363.04</ele>
        <time>2021-08-11T15:15:48Z</time>
      </trkpt>
      <trkpt lat="47.4422" lon="3.98469">
        <ele>362.55</ele>
        <time>2021-08-11T15:15:49Z</time>
      </trkpt>
      <trkpt lat="47.44232" lon="3.98409">
        <ele>360.63</ele>
        <time>2021-08-11T15:15:58Z</time>
      </trkpt>
      <trkpt lat="47.44257" lon="3.98355">
        <ele>358.71</ele>
        <time>2021-08-11T15:16:05Z</time>
      </trkpt>
      <trkpt lat="47.4429" lon="3.98305">
        <ele>355.83</ele>
        <time>2021-08-11T15:16:12Z</time>
      </trkpt>
      <trkpt lat="47.44293" lon="3.98296">
        <ele>355.83</ele>
        <time>2021-08-11T15:16:13Z</time>
      </trkpt>
      <trkpt lat="47.44296" lon="3.98287">
        <ele>355.83</ele>
        <time>2021-08-11T15:16:14Z</time>
      </trkpt>
      <trkpt lat="47.44305" lon="3.98241">
        <ele>352.46</ele>
        <time>2021-08-11T15:16:18Z</time>
      </trkpt>
      <trkpt lat="47.44311" lon="3.98203">
        <ele>349.1</ele>
        <time>2021-08-11T15:16:21Z</time>
      </trkpt>
      <trkpt lat="47.44325" lon="3.98135">
        <ele>346.21</ele>
        <time>2021-08-11T15:16:26Z</time>
      </trkpt>
      <trkpt lat="47.44337" lon="3.98083">
        <ele>345.25</ele>
        <time>2021-08-11T15:16:30Z</time>
      </trkpt>
      <trkpt lat="47.44338" lon="3.9807">
        <ele>344.77</ele>
        <time>2021-08-11T15:16:31Z</time>
      </trkpt>
      <trkpt lat="47.44338" lon="3.98057">
        <ele>344.29</ele>
        <time>2021-08-11T15:16:32Z</time>
      </trkpt>
      <trkpt lat="47.44337" lon="3.98044">
        <ele>343.81</ele>
        <time>2021-08-11T15:16:33Z</time>
      </trkpt>
      <trkpt lat="47.44337" lon="3.98032">
        <ele>343.81</ele>
        <time>2021-08-11T15:16:34Z</time>
      </trkpt>
      <trkpt lat="47.44335" lon="3.9802">
        <ele>343.81</ele>
        <time>2021-08-11T15:16:35Z</time>
      </trkpt>
      <trkpt lat="47.44332" lon="3.98008">
        <ele>343.81</ele>
        <time>2021-08-11T15:16:36Z</time>
      </trkpt>
      <trkpt lat="47.44329" lon="3.97997">
        <ele>343.81</ele>
        <time>2021-08-11T15:16:37Z</time>
      </trkpt>
      <trkpt lat="47.44326" lon="3.97987">
        <ele>343.81</ele>
        <time>2021-08-11T15:16:38Z</time>
      </trkpt>
      <trkpt lat="47.44323" lon="3.97978">
        <ele>343.81</ele>
        <time>2021-08-11T15:16:39Z</time>
      </trkpt>
      <trkpt lat="47.44316" lon="3.9796">
        <ele>345.25</ele>
        <time>2021-08-11T15:16:41Z</time>
      </trkpt>
      <trkpt lat="47.44295" lon="3.97907">
        <ele>347.17</ele>
        <time>2021-08-11T15:16:49Z</time>
      </trkpt>
      <trkpt lat="47.44277" lon="3.9786">
        <ele>349.58</ele>
        <time>2021-08-11T15:16:58Z</time>
      </trkpt>
      <trkpt lat="47.44261" lon="3.97821">
        <ele>350.54</ele>
        <time>2021-08-11T15:17:07Z</time>
      </trkpt>
      <trkpt lat="47.44249" lon="3.97774">
        <ele>352.46</ele>
        <time>2021-08-11T15:17:17Z</time>
      </trkpt>
      <trkpt lat="47.44245" lon="3.97734">
        <ele>353.42</ele>
        <time>2021-08-11T15:17:26Z</time>
      </trkpt>
      <trkpt lat="47.44241" lon="3.97683">
        <ele>354.38</ele>
        <time>2021-08-11T15:17:37Z</time>
      </trkpt>
      <trkpt lat="47.44238" lon="3.97634">
        <ele>352.94</ele>
        <time>2021-08-11T15:17:45Z</time>
      </trkpt>
      <trkpt lat="47.44238" lon="3.97626">
        <ele>352.94</ele>
        <time>2021-08-11T15:17:46Z</time>
      </trkpt>
      <trkpt lat="47.4424" lon="3.97556">
        <ele>350.06</ele>
        <time>2021-08-11T15:17:54Z</time>
      </trkpt>
      <trkpt lat="47.44244" lon="3.97519">
        <ele>348.13</ele>
        <time>2021-08-11T15:17:59Z</time>
      </trkpt>
      <trkpt lat="47.44241" lon="3.97506">
        <ele>346.21</ele>
        <time>2021-08-11T15:18:03Z</time>
      </trkpt>
      <trkpt lat="47.44239" lon="3.97506">
        <ele>346.69</ele>
        <time>2021-08-11T15:18:04Z</time>
      </trkpt>
      <trkpt lat="47.44237" lon="3.97506">
        <ele>345.25</ele>
        <time>2021-08-11T15:18:05Z</time>
      </trkpt>
      <trkpt lat="47.44234" lon="3.97505">
        <ele>345.25</ele>
        <time>2021-08-11T15:18:06Z</time>
      </trkpt>
      <trkpt lat="47.44231" lon="3.97502">
        <ele>345.25</ele>
        <time>2021-08-11T15:18:07Z</time>
      </trkpt>
      <trkpt lat="47.44229" lon="3.97499">
        <ele>344.29</ele>
        <time>2021-08-11T15:18:08Z</time>
      </trkpt>
      <trkpt lat="47.44227" lon="3.97494">
        <ele>344.29</ele>
        <time>2021-08-11T15:18:09Z</time>
      </trkpt>
      <trkpt lat="47.44224" lon="3.9749">
        <ele>343.81</ele>
        <time>2021-08-11T15:18:10Z</time>
      </trkpt>
      <trkpt lat="47.44222" lon="3.97485">
        <ele>343.33</ele>
        <time>2021-08-11T15:18:11Z</time>
      </trkpt>
      <trkpt lat="47.44219" lon="3.9748">
        <ele>343.33</ele>
        <time>2021-08-11T15:18:12Z</time>
      </trkpt>
      <trkpt lat="47.44216" lon="3.97475">
        <ele>342.85</ele>
        <time>2021-08-11T15:18:13Z</time>
      </trkpt>
      <trkpt lat="47.4419" lon="3.97429">
        <ele>340.44</ele>
        <time>2021-08-11T15:18:21Z</time>
      </trkpt>
      <trkpt lat="47.44177" lon="3.97405">
        <ele>339.96</ele>
        <time>2021-08-11T15:18:27Z</time>
      </trkpt>
      <trkpt lat="47.44163" lon="3.97381">
        <ele>339.96</ele>
        <time>2021-08-11T15:18:33Z</time>
      </trkpt>
      <trkpt lat="47.44146" lon="3.97351">
        <ele>339.96</ele>
        <time>2021-08-11T15:18:40Z</time>
      </trkpt>
      <trkpt lat="47.44129" lon="3.9732">
        <ele>339.96</ele>
        <time>2021-08-11T15:18:47Z</time>
      </trkpt>
      <trkpt lat="47.44106" lon="3.9729">
        <ele>339.96</ele>
        <time>2021-08-11T15:18:55Z</time>
      </trkpt>
      <trkpt lat="47.44088" lon="3.97268">
        <ele>339.48</ele>
        <time>2021-08-11T15:19:03Z</time>
      </trkpt>
      <trkpt lat="47.44071" lon="3.97252">
        <ele>339</ele>
        <time>2021-08-11T15:19:10Z</time>
      </trkpt>
      <trkpt lat="47.4405" lon="3.97238">
        <ele>338.52</ele>
        <time>2021-08-11T15:19:19Z</time>
      </trkpt>
      <trkpt lat="47.44031" lon="3.97225">
        <ele>338.04</ele>
        <time>2021-08-11T15:19:26Z</time>
      </trkpt>
      <trkpt lat="47.43999" lon="3.972">
        <ele>336.12</ele>
        <time>2021-08-11T15:19:36Z</time>
      </trkpt>
      <trkpt lat="47.43978" lon="3.97177">
        <ele>334.68</ele>
        <time>2021-08-11T15:19:44Z</time>
      </trkpt>
      <trkpt lat="47.43963" lon="3.97162">
        <ele>333.23</ele>
        <time>2021-08-11T15:19:51Z</time>
      </trkpt>
      <trkpt lat="47.43952" lon="3.97148">
        <ele>332.75</ele>
        <time>2021-08-11T15:19:57Z</time>
      </trkpt>
      <trkpt lat="47.43934" lon="3.97129">
        <ele>331.79</ele>
        <time>2021-08-11T15:20:04Z</time>
      </trkpt>
      <trkpt lat="47.43918" lon="3.97114">
        <ele>331.79</ele>
        <time>2021-08-11T15:20:11Z</time>
      </trkpt>
      <trkpt lat="47.43915" lon="3.97112">
        <ele>331.79</ele>
        <time>2021-08-11T15:20:15Z</time>
      </trkpt>
      <trkpt lat="47.43905" lon="3.97107">
        <ele>331.79</ele>
        <time>2021-08-11T15:20:21Z</time>
      </trkpt>
      <trkpt lat="47.439" lon="3.97103">
        <ele>331.31</ele>
        <time>2021-08-11T15:20:28Z</time>
      </trkpt>
      <trkpt lat="47.43902" lon="3.97103">
        <ele>331.31</ele>
        <time>2021-08-11T15:20:38Z</time>
      </trkpt>
      <trkpt lat="47.43902" lon="3.97103">
        <ele>331.31</ele>
        <time>2021-08-11T15:20:39Z</time>
      </trkpt>
      <trkpt lat="47.43903" lon="3.97104">
        <ele>331.31</ele>
        <time>2021-08-11T15:20:40Z</time>
      </trkpt>
      <trkpt lat="47.43909" lon="3.97109">
        <ele>331.31</ele>
        <time>2021-08-11T15:20:47Z</time>
      </trkpt>
      <trkpt lat="47.4391" lon="3.97109">
        <ele>331.31</ele>
        <time>2021-08-11T15:20:48Z</time>
      </trkpt>
      <trkpt lat="47.43911" lon="3.9711">
        <ele>331.31</ele>
        <time>2021-08-11T15:20:49Z</time>
      </trkpt>
      <trkpt lat="47.43912" lon="3.9711">
        <ele>331.31</ele>
        <time>2021-08-11T15:20:50Z</time>
      </trkpt>
      <trkpt lat="47.43913" lon="3.9711">
        <ele>331.31</ele>
        <time>2021-08-11T15:20:51Z</time>
      </trkpt>
      <trkpt lat="47.43913" lon="3.97105">
        <ele>331.31</ele>
        <time>2021-08-11T15:20:56Z</time>
      </trkpt>
      <trkpt lat="47.43912" lon="3.97104">
        <ele>331.31</ele>
        <time>2021-08-11T15:21:00Z</time>
      </trkpt>
      <trkpt lat="47.43908" lon="3.97099">
        <ele>330.83</ele>
        <time>2021-08-11T15:21:07Z</time>
      </trkpt>
      <trkpt lat="47.43908" lon="3.971">
        <ele>330.83</ele>
        <time>2021-08-11T15:21:21Z</time>
      </trkpt>
      <trkpt lat="47.43907" lon="3.971">
        <ele>330.83</ele>
        <time>2021-08-11T15:21:22Z</time>
      </trkpt>
      <trkpt lat="47.43907" lon="3.97099">
        <ele>330.83</ele>
        <time>2021-08-11T15:21:29Z</time>
      </trkpt>
      <trkpt lat="47.43901" lon="3.97097">
        <ele>330.83</ele>
        <time>2021-08-11T15:21:37Z</time>
      </trkpt>
      <trkpt lat="47.43899" lon="3.97097">
        <ele>330.83</ele>
        <time>2021-08-11T15:21:43Z</time>
      </trkpt>
      <trkpt lat="47.43899" lon="3.97096">
        <ele>329.87</ele>
        <time>2021-08-11T15:21:52Z</time>
      </trkpt>
      <trkpt lat="47.43897" lon="3.97095">
        <ele>329.87</ele>
        <time>2021-08-11T15:21:59Z</time>
      </trkpt>
      <trkpt lat="47.43897" lon="3.97094">
        <ele>329.87</ele>
        <time>2021-08-11T15:22:06Z</time>
      </trkpt>
      <trkpt lat="47.43896" lon="3.97092">
        <ele>329.87</ele>
        <time>2021-08-11T15:22:24Z</time>
      </trkpt>
      <trkpt lat="47.43896" lon="3.97091">
        <ele>329.87</ele>
        <time>2021-08-11T15:22:42Z</time>
      </trkpt>
      <trkpt lat="47.43896" lon="3.97092">
        <ele>330.83</ele>
        <time>2021-08-11T15:22:48Z</time>
      </trkpt>
      <trkpt lat="47.43894" lon="3.97088">
        <ele>330.83</ele>
        <time>2021-08-11T15:22:55Z</time>
      </trkpt>
      <trkpt lat="47.43888" lon="3.97084">
        <ele>330.83</ele>
        <time>2021-08-11T15:22:59Z</time>
      </trkpt>
      <trkpt lat="47.43888" lon="3.97081">
        <ele>329.87</ele>
        <time>2021-08-11T15:23:00Z</time>
      </trkpt>
      <trkpt lat="47.43887" lon="3.97078">
        <ele>329.39</ele>
        <time>2021-08-11T15:23:01Z</time>
      </trkpt>
      <trkpt lat="47.43876" lon="3.97053">
        <ele>326.99</ele>
        <time>2021-08-11T15:23:06Z</time>
      </trkpt>
      <trkpt lat="47.43867" lon="3.97034">
        <ele>325.54</ele>
        <time>2021-08-11T15:23:09Z</time>
      </trkpt>
      <trkpt lat="47.43851" lon="3.97003">
        <ele>322.66</ele>
        <time>2021-08-11T15:23:14Z</time>
      </trkpt>
      <trkpt lat="47.43845" lon="3.96992">
        <ele>321.22</ele>
        <time>2021-08-11T15:23:19Z</time>
      </trkpt>
      <trkpt lat="47.43843" lon="3.96994">
        <ele>321.22</ele>
        <time>2021-08-11T15:23:25Z</time>
      </trkpt>
      <trkpt lat="47.43842" lon="3.96994">
        <ele>322.18</ele>
        <time>2021-08-11T15:23:30Z</time>
      </trkpt>
      <trkpt lat="47.43842" lon="3.96994">
        <ele>320.74</ele>
        <time>2021-08-11T15:23:36Z</time>
      </trkpt>
      <trkpt lat="47.4384" lon="3.9699">
        <ele>321.7</ele>
        <time>2021-08-11T15:23:49Z</time>
      </trkpt>
      <trkpt lat="47.43839" lon="3.96988">
        <ele>321.7</ele>
        <time>2021-08-11T15:23:56Z</time>
      </trkpt>
      <trkpt lat="47.43839" lon="3.96989">
        <ele>321.7</ele>
        <time>2021-08-11T15:24:12Z</time>
      </trkpt>
      <trkpt lat="47.43838" lon="3.96985">
        <ele>321.7</ele>
        <time>2021-08-11T15:24:27Z</time>
      </trkpt>
      <trkpt lat="47.43837" lon="3.96984">
        <ele>321.7</ele>
        <time>2021-08-11T15:24:28Z</time>
      </trkpt>
      <trkpt lat="47.43837" lon="3.96982">
        <ele>321.7</ele>
        <time>2021-08-11T15:24:29Z</time>
      </trkpt>
      <trkpt lat="47.43837" lon="3.9698">
        <ele>321.7</ele>
        <time>2021-08-11T15:24:30Z</time>
      </trkpt>
      <trkpt lat="47.43836" lon="3.96978">
        <ele>321.7</ele>
        <time>2021-08-11T15:24:31Z</time>
      </trkpt>
      <trkpt lat="47.43835" lon="3.96975">
        <ele>321.7</ele>
        <time>2021-08-11T15:24:32Z</time>
      </trkpt>
      <trkpt lat="47.43834" lon="3.96972">
        <ele>321.7</ele>
        <time>2021-08-11T15:24:33Z</time>
      </trkpt>
      <trkpt lat="47.43834" lon="3.9697">
        <ele>321.7</ele>
        <time>2021-08-11T15:24:34Z</time>
      </trkpt>
      <trkpt lat="47.43833" lon="3.96968">
        <ele>321.7</ele>
        <time>2021-08-11T15:24:35Z</time>
      </trkpt>
      <trkpt lat="47.4383" lon="3.96951">
        <ele>320.26</ele>
        <time>2021-08-11T15:24:43Z</time>
      </trkpt>
      <trkpt lat="47.43827" lon="3.96935">
        <ele>320.26</ele>
        <time>2021-08-11T15:24:49Z</time>
      </trkpt>
      <trkpt lat="47.43819" lon="3.96908">
        <ele>320.26</ele>
        <time>2021-08-11T15:24:56Z</time>
      </trkpt>
      <trkpt lat="47.43812" lon="3.96881">
        <ele>320.26</ele>
        <time>2021-08-11T15:25:03Z</time>
      </trkpt>
      <trkpt lat="47.4381" lon="3.96874">
        <ele>320.26</ele>
        <time>2021-08-11T15:25:05Z</time>
      </trkpt>
      <trkpt lat="47.43808" lon="3.96871">
        <ele>320.26</ele>
        <time>2021-08-11T15:25:06Z</time>
      </trkpt>
      <trkpt lat="47.43807" lon="3.96868">
        <ele>320.26</ele>
        <time>2021-08-11T15:25:07Z</time>
      </trkpt>
      <trkpt lat="47.43806" lon="3.96865">
        <ele>320.26</ele>
        <time>2021-08-11T15:25:08Z</time>
      </trkpt>
      <trkpt lat="47.43806" lon="3.96863">
        <ele>320.26</ele>
        <time>2021-08-11T15:25:09Z</time>
      </trkpt>
      <trkpt lat="47.438" lon="3.96849">
        <ele>320.26</ele>
        <time>2021-08-11T15:25:15Z</time>
      </trkpt>
      <trkpt lat="47.43796" lon="3.96835">
        <ele>320.26</ele>
        <time>2021-08-11T15:25:24Z</time>
      </trkpt>
      <trkpt lat="47.43794" lon="3.96828">
        <ele>320.26</ele>
        <time>2021-08-11T15:25:31Z</time>
      </trkpt>
      <trkpt lat="47.43788" lon="3.96813">
        <ele>320.26</ele>
        <time>2021-08-11T15:25:37Z</time>
      </trkpt>
      <trkpt lat="47.43776" lon="3.96792">
        <ele>322.18</ele>
        <time>2021-08-11T15:25:44Z</time>
      </trkpt>
      <trkpt lat="47.43763" lon="3.96772">
        <ele>323.14</ele>
        <time>2021-08-11T15:25:52Z</time>
      </trkpt>
      <trkpt lat="47.43745" lon="3.96748">
        <ele>323.62</ele>
        <time>2021-08-11T15:26:01Z</time>
      </trkpt>
      <trkpt lat="47.43732" lon="3.96732">
        <ele>324.58</ele>
        <time>2021-08-11T15:26:08Z</time>
      </trkpt>
      <trkpt lat="47.43718" lon="3.96713">
        <ele>325.06</ele>
        <time>2021-08-11T15:26:16Z</time>
      </trkpt>
      <trkpt lat="47.43703" lon="3.96696">
        <ele>326.99</ele>
        <time>2021-08-11T15:26:25Z</time>
      </trkpt>
      <trkpt lat="47.43687" lon="3.96684">
        <ele>327.47</ele>
        <time>2021-08-11T15:26:34Z</time>
      </trkpt>
      <trkpt lat="47.43672" lon="3.96676">
        <ele>328.91</ele>
        <time>2021-08-11T15:26:43Z</time>
      </trkpt>
      <trkpt lat="47.43658" lon="3.96664">
        <ele>329.39</ele>
        <time>2021-08-11T15:26:52Z</time>
      </trkpt>
      <trkpt lat="47.43646" lon="3.96649">
        <ele>331.31</ele>
        <time>2021-08-11T15:27:01Z</time>
      </trkpt>
      <trkpt lat="47.43634" lon="3.96635">
        <ele>332.27</ele>
        <time>2021-08-11T15:27:10Z</time>
      </trkpt>
      <trkpt lat="47.43626" lon="3.96611">
        <ele>333.71</ele>
        <time>2021-08-11T15:27:21Z</time>
      </trkpt>
      <trkpt lat="47.43624" lon="3.96599">
        <ele>334.2</ele>
        <time>2021-08-11T15:27:26Z</time>
      </trkpt>
      <trkpt lat="47.43624" lon="3.96597">
        <ele>334.2</ele>
        <time>2021-08-11T15:27:27Z</time>
      </trkpt>
      <trkpt lat="47.43623" lon="3.96594">
        <ele>334.2</ele>
        <time>2021-08-11T15:27:28Z</time>
      </trkpt>
      <trkpt lat="47.4362" lon="3.96569">
        <ele>336.12</ele>
        <time>2021-08-11T15:27:38Z</time>
      </trkpt>
      <trkpt lat="47.4361" lon="3.96543">
        <ele>336.6</ele>
        <time>2021-08-11T15:27:48Z</time>
      </trkpt>
      <trkpt lat="47.43604" lon="3.96526">
        <ele>337.08</ele>
        <time>2021-08-11T15:27:55Z</time>
      </trkpt>
      <trkpt lat="47.43594" lon="3.96499">
        <ele>337.56</ele>
        <time>2021-08-11T15:28:05Z</time>
      </trkpt>
      <trkpt lat="47.43585" lon="3.96471">
        <ele>338.52</ele>
        <time>2021-08-11T15:28:15Z</time>
      </trkpt>
      <trkpt lat="47.43576" lon="3.96443">
        <ele>339.96</ele>
        <time>2021-08-11T15:28:25Z</time>
      </trkpt>
      <trkpt lat="47.4357" lon="3.96424">
        <ele>340.44</ele>
        <time>2021-08-11T15:28:32Z</time>
      </trkpt>
      <trkpt lat="47.43566" lon="3.96401">
        <ele>340.92</ele>
        <time>2021-08-11T15:28:41Z</time>
      </trkpt>
      <trkpt lat="47.43557" lon="3.96362">
        <ele>341.41</ele>
        <time>2021-08-11T15:28:54Z</time>
      </trkpt>
      <trkpt lat="47.43544" lon="3.9633">
        <ele>342.37</ele>
        <time>2021-08-11T15:29:05Z</time>
      </trkpt>
      <trkpt lat="47.4353" lon="3.96315">
        <ele>343.33</ele>
        <time>2021-08-11T15:29:13Z</time>
      </trkpt>
      <trkpt lat="47.43517" lon="3.96297">
        <ele>344.29</ele>
        <time>2021-08-11T15:29:21Z</time>
      </trkpt>
      <trkpt lat="47.43512" lon="3.96273">
        <ele>345.73</ele>
        <time>2021-08-11T15:29:29Z</time>
      </trkpt>
      <trkpt lat="47.43508" lon="3.96248">
        <ele>346.21</ele>
        <time>2021-08-11T15:29:38Z</time>
      </trkpt>
      <trkpt lat="47.43507" lon="3.96245">
        <ele>346.21</ele>
        <time>2021-08-11T15:29:39Z</time>
      </trkpt>
      <trkpt lat="47.43503" lon="3.96222">
        <ele>346.69</ele>
        <time>2021-08-11T15:29:47Z</time>
      </trkpt>
      <trkpt lat="47.43498" lon="3.96195">
        <ele>347.17</ele>
        <time>2021-08-11T15:29:56Z</time>
      </trkpt>
      <trkpt lat="47.43494" lon="3.96176">
        <ele>347.17</ele>
        <time>2021-08-11T15:30:03Z</time>
      </trkpt>
      <trkpt lat="47.43492" lon="3.96175">
        <ele>347.17</ele>
        <time>2021-08-11T15:30:04Z</time>
      </trkpt>
      <trkpt lat="47.43475" lon="3.96171">
        <ele>347.65</ele>
        <time>2021-08-11T15:30:13Z</time>
      </trkpt>
      <trkpt lat="47.43463" lon="3.96172">
        <ele>348.13</ele>
        <time>2021-08-11T15:30:18Z</time>
      </trkpt>
      <trkpt lat="47.43443" lon="3.96169">
        <ele>348.13</ele>
        <time>2021-08-11T15:30:25Z</time>
      </trkpt>
      <trkpt lat="47.4342" lon="3.96166">
        <ele>348.62</ele>
        <time>2021-08-11T15:30:34Z</time>
      </trkpt>
      <trkpt lat="47.43401" lon="3.96163">
        <ele>349.1</ele>
        <time>2021-08-11T15:30:42Z</time>
      </trkpt>
      <trkpt lat="47.43391" lon="3.96156">
        <ele>349.1</ele>
        <time>2021-08-11T15:30:46Z</time>
      </trkpt>
      <trkpt lat="47.4339" lon="3.96151">
        <ele>349.58</ele>
        <time>2021-08-11T15:30:47Z</time>
      </trkpt>
      <trkpt lat="47.43389" lon="3.96146">
        <ele>349.58</ele>
        <time>2021-08-11T15:30:48Z</time>
      </trkpt>
      <trkpt lat="47.43387" lon="3.96141">
        <ele>349.58</ele>
        <time>2021-08-11T15:30:49Z</time>
      </trkpt>
      <trkpt lat="47.43385" lon="3.96137">
        <ele>349.58</ele>
        <time>2021-08-11T15:30:50Z</time>
      </trkpt>
      <trkpt lat="47.43367" lon="3.96091">
        <ele>349.58</ele>
        <time>2021-08-11T15:31:00Z</time>
      </trkpt>
      <trkpt lat="47.43355" lon="3.96067">
        <ele>348.13</ele>
        <time>2021-08-11T15:31:05Z</time>
      </trkpt>
      <trkpt lat="47.43333" lon="3.96026">
        <ele>346.69</ele>
        <time>2021-08-11T15:31:13Z</time>
      </trkpt>
      <trkpt lat="47.43307" lon="3.95979">
        <ele>345.25</ele>
        <time>2021-08-11T15:31:21Z</time>
      </trkpt>
      <trkpt lat="47.43276" lon="3.95926">
        <ele>343.81</ele>
        <time>2021-08-11T15:31:30Z</time>
      </trkpt>
      <trkpt lat="47.43273" lon="3.9592">
        <ele>343.81</ele>
        <time>2021-08-11T15:31:31Z</time>
      </trkpt>
      <trkpt lat="47.4327" lon="3.95915">
        <ele>343.81</ele>
        <time>2021-08-11T15:31:32Z</time>
      </trkpt>
      <trkpt lat="47.43252" lon="3.9588">
        <ele>343.33</ele>
        <time>2021-08-11T15:31:40Z</time>
      </trkpt>
      <trkpt lat="47.43246" lon="3.95869">
        <ele>343.33</ele>
        <time>2021-08-11T15:31:44Z</time>
      </trkpt>
      <trkpt lat="47.43246" lon="3.95867">
        <ele>343.33</ele>
        <time>2021-08-11T15:31:45Z</time>
      </trkpt>
      <trkpt lat="47.43248" lon="3.95864">
        <ele>343.33</ele>
        <time>2021-08-11T15:31:48Z</time>
      </trkpt>
      <trkpt lat="47.4325" lon="3.95865">
        <ele>343.33</ele>
        <time>2021-08-11T15:31:49Z</time>
      </trkpt>
      <trkpt lat="47.43251" lon="3.95865">
        <ele>343.33</ele>
        <time>2021-08-11T15:31:50Z</time>
      </trkpt>
      <trkpt lat="47.43253" lon="3.95865">
        <ele>343.33</ele>
        <time>2021-08-11T15:31:51Z</time>
      </trkpt>
      <trkpt lat="47.43255" lon="3.95864">
        <ele>342.37</ele>
        <time>2021-08-11T15:31:52Z</time>
      </trkpt>
      <trkpt lat="47.43258" lon="3.95864">
        <ele>342.37</ele>
        <time>2021-08-11T15:31:53Z</time>
      </trkpt>
      <trkpt lat="47.4326" lon="3.95864">
        <ele>342.37</ele>
        <time>2021-08-11T15:31:54Z</time>
      </trkpt>
      <trkpt lat="47.43262" lon="3.95864">
        <ele>341.89</ele>
        <time>2021-08-11T15:31:55Z</time>
      </trkpt>
      <trkpt lat="47.43263" lon="3.95864">
        <ele>341.89</ele>
        <time>2021-08-11T15:31:56Z</time>
      </trkpt>
      <trkpt lat="47.43265" lon="3.95865">
        <ele>341.89</ele>
        <time>2021-08-11T15:31:57Z</time>
      </trkpt>
      <trkpt lat="47.43267" lon="3.95864">
        <ele>341.89</ele>
        <time>2021-08-11T15:31:58Z</time>
      </trkpt>
      <trkpt lat="47.43269" lon="3.95864">
        <ele>341.89</ele>
        <time>2021-08-11T15:31:59Z</time>
      </trkpt>
      <trkpt lat="47.43271" lon="3.95864">
        <ele>341.89</ele>
        <time>2021-08-11T15:32:00Z</time>
      </trkpt>
      <trkpt lat="47.43286" lon="3.95864">
        <ele>340.92</ele>
        <time>2021-08-11T15:32:07Z</time>
      </trkpt>
      <trkpt lat="47.43304" lon="3.95867">
        <ele>339</ele>
        <time>2021-08-11T15:32:14Z</time>
      </trkpt>
      <trkpt lat="47.43329" lon="3.95874">
        <ele>338.52</ele>
        <time>2021-08-11T15:32:22Z</time>
      </trkpt>
      <trkpt lat="47.43345" lon="3.95879">
        <ele>338.04</ele>
        <time>2021-08-11T15:32:29Z</time>
      </trkpt>
      <trkpt lat="47.43359" lon="3.95879">
        <ele>337.56</ele>
        <time>2021-08-11T15:32:36Z</time>
      </trkpt>
      <trkpt lat="47.43377" lon="3.95875">
        <ele>337.08</ele>
        <time>2021-08-11T15:32:45Z</time>
      </trkpt>
      <trkpt lat="47.43396" lon="3.95868">
        <ele>336.6</ele>
        <time>2021-08-11T15:32:55Z</time>
      </trkpt>
      <trkpt lat="47.43409" lon="3.95861">
        <ele>336.6</ele>
        <time>2021-08-11T15:33:02Z</time>
      </trkpt>
      <trkpt lat="47.43421" lon="3.95858">
        <ele>336.6</ele>
        <time>2021-08-11T15:33:09Z</time>
      </trkpt>
      <trkpt lat="47.43433" lon="3.95854">
        <ele>336.6</ele>
        <time>2021-08-11T15:33:16Z</time>
      </trkpt>
      <trkpt lat="47.43449" lon="3.95852">
        <ele>336.6</ele>
        <time>2021-08-11T15:33:23Z</time>
      </trkpt>
      <trkpt lat="47.43466" lon="3.95851">
        <ele>335.64</ele>
        <time>2021-08-11T15:33:30Z</time>
      </trkpt>
      <trkpt lat="47.43488" lon="3.95851">
        <ele>335.64</ele>
        <time>2021-08-11T15:33:37Z</time>
      </trkpt>
      <trkpt lat="47.43511" lon="3.95848">
        <ele>335.16</ele>
        <time>2021-08-11T15:33:45Z</time>
      </trkpt>
      <trkpt lat="47.43536" lon="3.95843">
        <ele>334.2</ele>
        <time>2021-08-11T15:33:54Z</time>
      </trkpt>
      <trkpt lat="47.43562" lon="3.95842">
        <ele>333.23</ele>
        <time>2021-08-11T15:34:02Z</time>
      </trkpt>
      <trkpt lat="47.43582" lon="3.95843">
        <ele>333.23</ele>
        <time>2021-08-11T15:34:10Z</time>
      </trkpt>
      <trkpt lat="47.43603" lon="3.95844">
        <ele>333.23</ele>
        <time>2021-08-11T15:34:18Z</time>
      </trkpt>
      <trkpt lat="47.43627" lon="3.95844">
        <ele>334.68</ele>
        <time>2021-08-11T15:34:27Z</time>
      </trkpt>
      <trkpt lat="47.43643" lon="3.95839">
        <ele>336.12</ele>
        <time>2021-08-11T15:34:35Z</time>
      </trkpt>
      <trkpt lat="47.43657" lon="3.95834">
        <ele>337.56</ele>
        <time>2021-08-11T15:34:42Z</time>
      </trkpt>
      <trkpt lat="47.43675" lon="3.95832">
        <ele>338.52</ele>
        <time>2021-08-11T15:34:50Z</time>
      </trkpt>
      <trkpt lat="47.43697" lon="3.95836">
        <ele>339.96</ele>
        <time>2021-08-11T15:34:59Z</time>
      </trkpt>
      <trkpt lat="47.43714" lon="3.95841">
        <ele>340.92</ele>
        <time>2021-08-11T15:35:07Z</time>
      </trkpt>
      <trkpt lat="47.43722" lon="3.95842">
        <ele>340.92</ele>
        <time>2021-08-11T15:35:11Z</time>
      </trkpt>
      <trkpt lat="47.43724" lon="3.95843">
        <ele>340.92</ele>
        <time>2021-08-11T15:35:12Z</time>
      </trkpt>
      <trkpt lat="47.43726" lon="3.95844">
        <ele>340.92</ele>
        <time>2021-08-11T15:35:13Z</time>
      </trkpt>
      <trkpt lat="47.43741" lon="3.95847">
        <ele>341.89</ele>
        <time>2021-08-11T15:35:20Z</time>
      </trkpt>
      <trkpt lat="47.43761" lon="3.95853">
        <ele>342.85</ele>
        <time>2021-08-11T15:35:29Z</time>
      </trkpt>
      <trkpt lat="47.43783" lon="3.95853">
        <ele>343.33</ele>
        <time>2021-08-11T15:35:38Z</time>
      </trkpt>
      <trkpt lat="47.43801" lon="3.95855">
        <ele>343.33</ele>
        <time>2021-08-11T15:35:46Z</time>
      </trkpt>
      <trkpt lat="47.43825" lon="3.95858">
        <ele>344.29</ele>
        <time>2021-08-11T15:35:57Z</time>
      </trkpt>
      <trkpt lat="47.43841" lon="3.95865">
        <ele>344.29</ele>
        <time>2021-08-11T15:36:03Z</time>
      </trkpt>
      <trkpt lat="47.43849" lon="3.9587">
        <ele>342.85</ele>
        <time>2021-08-11T15:36:05Z</time>
      </trkpt>
      <trkpt lat="47.43883" lon="3.95895">
        <ele>340.92</ele>
        <time>2021-08-11T15:36:12Z</time>
      </trkpt>
      <trkpt lat="47.43912" lon="3.9591">
        <ele>340.92</ele>
        <time>2021-08-11T15:36:19Z</time>
      </trkpt>
      <trkpt lat="47.43934" lon="3.95912">
        <ele>340.92</ele>
        <time>2021-08-11T15:36:26Z</time>
      </trkpt>
      <trkpt lat="47.43965" lon="3.95909">
        <ele>342.85</ele>
        <time>2021-08-11T15:36:36Z</time>
      </trkpt>
      <trkpt lat="47.43991" lon="3.95894">
        <ele>342.85</ele>
        <time>2021-08-11T15:36:45Z</time>
      </trkpt>
      <trkpt lat="47.44008" lon="3.9588">
        <ele>342.85</ele>
        <time>2021-08-11T15:36:53Z</time>
      </trkpt>
      <trkpt lat="47.44018" lon="3.95867">
        <ele>342.37</ele>
        <time>2021-08-11T15:37:01Z</time>
      </trkpt>
      <trkpt lat="47.44022" lon="3.95861">
        <ele>342.37</ele>
        <time>2021-08-11T15:37:07Z</time>
      </trkpt>
      <trkpt lat="47.44039" lon="3.95836">
        <ele>343.33</ele>
        <time>2021-08-11T15:37:16Z</time>
      </trkpt>
      <trkpt lat="47.44057" lon="3.95808">
        <ele>344.77</ele>
        <time>2021-08-11T15:37:26Z</time>
      </trkpt>
      <trkpt lat="47.44081" lon="3.95774">
        <ele>345.25</ele>
        <time>2021-08-11T15:37:38Z</time>
      </trkpt>
      <trkpt lat="47.44098" lon="3.95737">
        <ele>345.25</ele>
        <time>2021-08-11T15:37:48Z</time>
      </trkpt>
      <trkpt lat="47.44112" lon="3.95696">
        <ele>346.21</ele>
        <time>2021-08-11T15:37:58Z</time>
      </trkpt>
      <trkpt lat="47.44131" lon="3.9566">
        <ele>347.17</ele>
        <time>2021-08-11T15:38:09Z</time>
      </trkpt>
      <trkpt lat="47.44141" lon="3.95648">
        <ele>347.65</ele>
        <time>2021-08-11T15:38:14Z</time>
      </trkpt>
      <trkpt lat="47.44142" lon="3.95644">
        <ele>347.65</ele>
        <time>2021-08-11T15:38:15Z</time>
      </trkpt>
      <trkpt lat="47.44141" lon="3.95641">
        <ele>347.65</ele>
        <time>2021-08-11T15:38:16Z</time>
      </trkpt>
      <trkpt lat="47.4414" lon="3.95639">
        <ele>347.65</ele>
        <time>2021-08-11T15:38:17Z</time>
      </trkpt>
      <trkpt lat="47.44139" lon="3.95637">
        <ele>347.65</ele>
        <time>2021-08-11T15:38:18Z</time>
      </trkpt>
      <trkpt lat="47.44121" lon="3.95616">
        <ele>345.73</ele>
        <time>2021-08-11T15:38:24Z</time>
      </trkpt>
      <trkpt lat="47.44104" lon="3.95593">
        <ele>341.89</ele>
        <time>2021-08-11T15:38:28Z</time>
      </trkpt>
      <trkpt lat="47.44081" lon="3.95559">
        <ele>339</ele>
        <time>2021-08-11T15:38:33Z</time>
      </trkpt>
      <trkpt lat="47.44051" lon="3.95519">
        <ele>335.64</ele>
        <time>2021-08-11T15:38:39Z</time>
      </trkpt>
      <trkpt lat="47.44016" lon="3.95468">
        <ele>332.75</ele>
        <time>2021-08-11T15:38:46Z</time>
      </trkpt>
      <trkpt lat="47.44005" lon="3.95454">
        <ele>331.79</ele>
        <time>2021-08-11T15:38:48Z</time>
      </trkpt>
      <trkpt lat="47.43959" lon="3.95401">
        <ele>328.43</ele>
        <time>2021-08-11T15:38:56Z</time>
      </trkpt>
      <trkpt lat="47.43953" lon="3.95396">
        <ele>328.43</ele>
        <time>2021-08-11T15:38:57Z</time>
      </trkpt>
      <trkpt lat="47.43914" lon="3.95365">
        <ele>324.58</ele>
        <time>2021-08-11T15:39:03Z</time>
      </trkpt>
      <trkpt lat="47.43882" lon="3.95335">
        <ele>321.7</ele>
        <time>2021-08-11T15:39:08Z</time>
      </trkpt>
      <trkpt lat="47.43877" lon="3.95328">
        <ele>321.22</ele>
        <time>2021-08-11T15:39:09Z</time>
      </trkpt>
      <trkpt lat="47.43872" lon="3.9532">
        <ele>321.22</ele>
        <time>2021-08-11T15:39:10Z</time>
      </trkpt>
      <trkpt lat="47.43844" lon="3.9527">
        <ele>317.37</ele>
        <time>2021-08-11T15:39:16Z</time>
      </trkpt>
      <trkpt lat="47.43839" lon="3.95262">
        <ele>317.37</ele>
        <time>2021-08-11T15:39:17Z</time>
      </trkpt>
      <trkpt lat="47.43817" lon="3.95208">
        <ele>315.93</ele>
        <time>2021-08-11T15:39:23Z</time>
      </trkpt>
      <trkpt lat="47.43793" lon="3.95133">
        <ele>314.49</ele>
        <time>2021-08-11T15:39:31Z</time>
      </trkpt>
      <trkpt lat="47.4376" lon="3.95072">
        <ele>313.53</ele>
        <time>2021-08-11T15:39:39Z</time>
      </trkpt>
      <trkpt lat="47.43752" lon="3.95058">
        <ele>313.53</ele>
        <time>2021-08-11T15:39:41Z</time>
      </trkpt>
      <trkpt lat="47.43749" lon="3.95051">
        <ele>313.53</ele>
        <time>2021-08-11T15:39:42Z</time>
      </trkpt>
      <trkpt lat="47.43734" lon="3.9502">
        <ele>313.53</ele>
        <time>2021-08-11T15:39:47Z</time>
      </trkpt>
      <trkpt lat="47.4373" lon="3.95016">
        <ele>313.53</ele>
        <time>2021-08-11T15:39:48Z</time>
      </trkpt>
      <trkpt lat="47.43722" lon="3.95008">
        <ele>313.53</ele>
        <time>2021-08-11T15:39:50Z</time>
      </trkpt>
      <trkpt lat="47.43708" lon="3.95001">
        <ele>313.53</ele>
        <time>2021-08-11T15:39:53Z</time>
      </trkpt>
      <trkpt lat="47.43703" lon="3.94999">
        <ele>313.53</ele>
        <time>2021-08-11T15:39:54Z</time>
      </trkpt>
      <trkpt lat="47.43695" lon="3.94994">
        <ele>313.53</ele>
        <time>2021-08-11T15:39:56Z</time>
      </trkpt>
      <trkpt lat="47.4369" lon="3.94992">
        <ele>313.53</ele>
        <time>2021-08-11T15:39:57Z</time>
      </trkpt>
      <trkpt lat="47.43685" lon="3.9499">
        <ele>313.53</ele>
        <time>2021-08-11T15:39:58Z</time>
      </trkpt>
      <trkpt lat="47.43681" lon="3.94989">
        <ele>313.53</ele>
        <time>2021-08-11T15:39:59Z</time>
      </trkpt>
      <trkpt lat="47.43676" lon="3.94987">
        <ele>313.53</ele>
        <time>2021-08-11T15:40:00Z</time>
      </trkpt>
      <trkpt lat="47.43672" lon="3.94985">
        <ele>313.53</ele>
        <time>2021-08-11T15:40:01Z</time>
      </trkpt>
      <trkpt lat="47.43659" lon="3.94978">
        <ele>314.97</ele>
        <time>2021-08-11T15:40:04Z</time>
      </trkpt>
      <trkpt lat="47.43655" lon="3.94976">
        <ele>314.97</ele>
        <time>2021-08-11T15:40:05Z</time>
      </trkpt>
      <trkpt lat="47.43651" lon="3.94974">
        <ele>314.97</ele>
        <time>2021-08-11T15:40:06Z</time>
      </trkpt>
      <trkpt lat="47.43643" lon="3.94967">
        <ele>315.45</ele>
        <time>2021-08-11T15:40:09Z</time>
      </trkpt>
      <trkpt lat="47.43644" lon="3.94966">
        <ele>315.45</ele>
        <time>2021-08-11T15:40:10Z</time>
      </trkpt>
      <trkpt lat="47.43645" lon="3.94965">
        <ele>315.45</ele>
        <time>2021-08-11T15:40:11Z</time>
      </trkpt>
      <trkpt lat="47.43647" lon="3.94961">
        <ele>315.45</ele>
        <time>2021-08-11T15:40:14Z</time>
      </trkpt>
      <trkpt lat="47.43647" lon="3.94959">
        <ele>315.45</ele>
        <time>2021-08-11T15:40:15Z</time>
      </trkpt>
      <trkpt lat="47.43648" lon="3.94957">
        <ele>316.41</ele>
        <time>2021-08-11T15:40:16Z</time>
      </trkpt>
      <trkpt lat="47.43651" lon="3.94938">
        <ele>318.33</ele>
        <time>2021-08-11T15:40:24Z</time>
      </trkpt>
      <trkpt lat="47.43653" lon="3.94919">
        <ele>319.78</ele>
        <time>2021-08-11T15:40:32Z</time>
      </trkpt>
      <trkpt lat="47.43653" lon="3.94916">
        <ele>319.3</ele>
        <time>2021-08-11T15:40:33Z</time>
      </trkpt>
      <trkpt lat="47.43654" lon="3.94914">
        <ele>320.26</ele>
        <time>2021-08-11T15:40:34Z</time>
      </trkpt>
      <trkpt lat="47.43656" lon="3.94901">
        <ele>321.22</ele>
        <time>2021-08-11T15:40:39Z</time>
      </trkpt>
      <trkpt lat="47.43656" lon="3.94898">
        <ele>321.22</ele>
        <time>2021-08-11T15:40:40Z</time>
      </trkpt>
      <trkpt lat="47.43656" lon="3.94896">
        <ele>321.22</ele>
        <time>2021-08-11T15:40:41Z</time>
      </trkpt>
      <trkpt lat="47.43657" lon="3.94893">
        <ele>321.22</ele>
        <time>2021-08-11T15:40:42Z</time>
      </trkpt>
      <trkpt lat="47.43657" lon="3.94891">
        <ele>321.22</ele>
        <time>2021-08-11T15:40:43Z</time>
      </trkpt>
      <trkpt lat="47.43658" lon="3.94888">
        <ele>321.22</ele>
        <time>2021-08-11T15:40:44Z</time>
      </trkpt>
      <trkpt lat="47.43658" lon="3.94885">
        <ele>322.18</ele>
        <time>2021-08-11T15:40:45Z</time>
      </trkpt>
      <trkpt lat="47.43658" lon="3.94882">
        <ele>322.18</ele>
        <time>2021-08-11T15:40:46Z</time>
      </trkpt>
      <trkpt lat="47.43655" lon="3.94859">
        <ele>323.62</ele>
        <time>2021-08-11T15:40:54Z</time>
      </trkpt>
      <trkpt lat="47.43648" lon="3.94838">
        <ele>324.58</ele>
        <time>2021-08-11T15:41:03Z</time>
      </trkpt>
      <trkpt lat="47.4364" lon="3.94813">
        <ele>325.54</ele>
        <time>2021-08-11T15:41:13Z</time>
      </trkpt>
      <trkpt lat="47.43633" lon="3.94792">
        <ele>326.02</ele>
        <time>2021-08-11T15:41:22Z</time>
      </trkpt>
      <trkpt lat="47.43628" lon="3.94776">
        <ele>327.95</ele>
        <time>2021-08-11T15:41:29Z</time>
      </trkpt>
      <trkpt lat="47.43622" lon="3.94758">
        <ele>328.91</ele>
        <time>2021-08-11T15:41:37Z</time>
      </trkpt>
      <trkpt lat="47.43617" lon="3.94733">
        <ele>329.87</ele>
        <time>2021-08-11T15:41:47Z</time>
      </trkpt>
      <trkpt lat="47.43612" lon="3.94703">
        <ele>331.79</ele>
        <time>2021-08-11T15:41:59Z</time>
      </trkpt>
      <trkpt lat="47.4361" lon="3.94677">
        <ele>332.75</ele>
        <time>2021-08-11T15:42:09Z</time>
      </trkpt>
      <trkpt lat="47.43609" lon="3.94651">
        <ele>334.2</ele>
        <time>2021-08-11T15:42:19Z</time>
      </trkpt>
      <trkpt lat="47.43608" lon="3.94629">
        <ele>335.64</ele>
        <time>2021-08-11T15:42:28Z</time>
      </trkpt>
      <trkpt lat="47.43609" lon="3.94606">
        <ele>336.6</ele>
        <time>2021-08-11T15:42:37Z</time>
      </trkpt>
      <trkpt lat="47.4361" lon="3.9458">
        <ele>337.56</ele>
        <time>2021-08-11T15:42:48Z</time>
      </trkpt>
      <trkpt lat="47.4361" lon="3.94552">
        <ele>338.52</ele>
        <time>2021-08-11T15:42:58Z</time>
      </trkpt>
      <trkpt lat="47.4361" lon="3.94521">
        <ele>339</ele>
        <time>2021-08-11T15:43:08Z</time>
      </trkpt>
      <trkpt lat="47.43609" lon="3.94488">
        <ele>339.96</ele>
        <time>2021-08-11T15:43:18Z</time>
      </trkpt>
      <trkpt lat="47.43607" lon="3.94452">
        <ele>340.44</ele>
        <time>2021-08-11T15:43:29Z</time>
      </trkpt>
      <trkpt lat="47.43606" lon="3.94418">
        <ele>341.89</ele>
        <time>2021-08-11T15:43:40Z</time>
      </trkpt>
      <trkpt lat="47.43605" lon="3.94394">
        <ele>342.37</ele>
        <time>2021-08-11T15:43:48Z</time>
      </trkpt>
      <trkpt lat="47.43603" lon="3.94369">
        <ele>342.85</ele>
        <time>2021-08-11T15:43:57Z</time>
      </trkpt>
      <trkpt lat="47.436" lon="3.94345">
        <ele>343.81</ele>
        <time>2021-08-11T15:44:05Z</time>
      </trkpt>
      <trkpt lat="47.43597" lon="3.94315">
        <ele>344.29</ele>
        <time>2021-08-11T15:44:15Z</time>
      </trkpt>
      <trkpt lat="47.43601" lon="3.94289">
        <ele>345.25</ele>
        <time>2021-08-11T15:44:24Z</time>
      </trkpt>
      <trkpt lat="47.43606" lon="3.94263">
        <ele>345.73</ele>
        <time>2021-08-11T15:44:32Z</time>
      </trkpt>
      <trkpt lat="47.43608" lon="3.94238">
        <ele>347.17</ele>
        <time>2021-08-11T15:44:40Z</time>
      </trkpt>
      <trkpt lat="47.43605" lon="3.94213">
        <ele>347.65</ele>
        <time>2021-08-11T15:44:48Z</time>
      </trkpt>
      <trkpt lat="47.43602" lon="3.94187">
        <ele>349.1</ele>
        <time>2021-08-11T15:44:56Z</time>
      </trkpt>
      <trkpt lat="47.436" lon="3.94166">
        <ele>350.06</ele>
        <time>2021-08-11T15:45:04Z</time>
      </trkpt>
      <trkpt lat="47.43598" lon="3.94142">
        <ele>351.02</ele>
        <time>2021-08-11T15:45:13Z</time>
      </trkpt>
      <trkpt lat="47.43597" lon="3.94118">
        <ele>352.46</ele>
        <time>2021-08-11T15:45:22Z</time>
      </trkpt>
      <trkpt lat="47.43594" lon="3.94091">
        <ele>353.9</ele>
        <time>2021-08-11T15:45:32Z</time>
      </trkpt>
      <trkpt lat="47.43593" lon="3.94076">
        <ele>354.86</ele>
        <time>2021-08-11T15:45:38Z</time>
      </trkpt>
      <trkpt lat="47.43593" lon="3.94073">
        <ele>354.86</ele>
        <time>2021-08-11T15:45:39Z</time>
      </trkpt>
      <trkpt lat="47.43593" lon="3.9407">
        <ele>354.86</ele>
        <time>2021-08-11T15:45:40Z</time>
      </trkpt>
      <trkpt lat="47.43594" lon="3.94068">
        <ele>354.86</ele>
        <time>2021-08-11T15:45:41Z</time>
      </trkpt>
      <trkpt lat="47.43593" lon="3.94065">
        <ele>355.34</ele>
        <time>2021-08-11T15:45:42Z</time>
      </trkpt>
      <trkpt lat="47.43595" lon="3.94045">
        <ele>355.83</ele>
        <time>2021-08-11T15:45:49Z</time>
      </trkpt>
      <trkpt lat="47.43596" lon="3.94015">
        <ele>356.79</ele>
        <time>2021-08-11T15:45:59Z</time>
      </trkpt>
      <trkpt lat="47.43596" lon="3.93995">
        <ele>357.75</ele>
        <time>2021-08-11T15:46:06Z</time>
      </trkpt>
      <trkpt lat="47.43594" lon="3.93969">
        <ele>358.71</ele>
        <time>2021-08-11T15:46:15Z</time>
      </trkpt>
      <trkpt lat="47.4359" lon="3.93938">
        <ele>359.19</ele>
        <time>2021-08-11T15:46:25Z</time>
      </trkpt>
      <trkpt lat="47.43583" lon="3.9391">
        <ele>360.15</ele>
        <time>2021-08-11T15:46:34Z</time>
      </trkpt>
      <trkpt lat="47.43577" lon="3.93883">
        <ele>360.63</ele>
        <time>2021-08-11T15:46:42Z</time>
      </trkpt>
      <trkpt lat="47.43568" lon="3.93853">
        <ele>361.11</ele>
        <time>2021-08-11T15:46:51Z</time>
      </trkpt>
      <trkpt lat="47.43559" lon="3.93818">
        <ele>361.59</ele>
        <time>2021-08-11T15:47:01Z</time>
      </trkpt>
      <trkpt lat="47.43548" lon="3.93789">
        <ele>363.04</ele>
        <time>2021-08-11T15:47:10Z</time>
      </trkpt>
      <trkpt lat="47.43538" lon="3.93763">
        <ele>363.52</ele>
        <time>2021-08-11T15:47:18Z</time>
      </trkpt>
      <trkpt lat="47.43525" lon="3.93731">
        <ele>364</ele>
        <time>2021-08-11T15:47:28Z</time>
      </trkpt>
      <trkpt lat="47.43512" lon="3.9371">
        <ele>364.96</ele>
        <time>2021-08-11T15:47:35Z</time>
      </trkpt>
      <trkpt lat="47.435" lon="3.93687">
        <ele>364</ele>
        <time>2021-08-11T15:47:42Z</time>
      </trkpt>
      <trkpt lat="47.4349" lon="3.93671">
        <ele>365.44</ele>
        <time>2021-08-11T15:47:47Z</time>
      </trkpt>
      <trkpt lat="47.4347" lon="3.93637">
        <ele>365.44</ele>
        <time>2021-08-11T15:47:57Z</time>
      </trkpt>
      <trkpt lat="47.43451" lon="3.93608">
        <ele>365.92</ele>
        <time>2021-08-11T15:48:06Z</time>
      </trkpt>
      <trkpt lat="47.43427" lon="3.93575">
        <ele>367.36</ele>
        <time>2021-08-11T15:48:17Z</time>
      </trkpt>
      <trkpt lat="47.43408" lon="3.93546">
        <ele>367.84</ele>
        <time>2021-08-11T15:48:26Z</time>
      </trkpt>
      <trkpt lat="47.4339" lon="3.93527">
        <ele>368.8</ele>
        <time>2021-08-11T15:48:33Z</time>
      </trkpt>
      <trkpt lat="47.43372" lon="3.9351">
        <ele>369.28</ele>
        <time>2021-08-11T15:48:40Z</time>
      </trkpt>
      <trkpt lat="47.43344" lon="3.93488">
        <ele>371.21</ele>
        <time>2021-08-11T15:48:51Z</time>
      </trkpt>
      <trkpt lat="47.43329" lon="3.93464">
        <ele>372.17</ele>
        <time>2021-08-11T15:48:59Z</time>
      </trkpt>
      <trkpt lat="47.43314" lon="3.93435">
        <ele>373.61</ele>
        <time>2021-08-11T15:49:09Z</time>
      </trkpt>
      <trkpt lat="47.43301" lon="3.93412">
        <ele>375.05</ele>
        <time>2021-08-11T15:49:18Z</time>
      </trkpt>
      <trkpt lat="47.43282" lon="3.93385">
        <ele>377.45</ele>
        <time>2021-08-11T15:49:29Z</time>
      </trkpt>
      <trkpt lat="47.43269" lon="3.93367">
        <ele>378.42</ele>
        <time>2021-08-11T15:49:37Z</time>
      </trkpt>
      <trkpt lat="47.43261" lon="3.93358">
        <ele>378.9</ele>
        <time>2021-08-11T15:49:41Z</time>
      </trkpt>
      <trkpt lat="47.43259" lon="3.93356">
        <ele>378.9</ele>
        <time>2021-08-11T15:49:42Z</time>
      </trkpt>
      <trkpt lat="47.43244" lon="3.93336">
        <ele>380.34</ele>
        <time>2021-08-11T15:49:50Z</time>
      </trkpt>
      <trkpt lat="47.4323" lon="3.93315">
        <ele>380.82</ele>
        <time>2021-08-11T15:49:58Z</time>
      </trkpt>
      <trkpt lat="47.43218" lon="3.93301">
        <ele>381.3</ele>
        <time>2021-08-11T15:50:04Z</time>
      </trkpt>
      <trkpt lat="47.43204" lon="3.93286">
        <ele>381.3</ele>
        <time>2021-08-11T15:50:10Z</time>
      </trkpt>
      <trkpt lat="47.43179" lon="3.93259">
        <ele>381.3</ele>
        <time>2021-08-11T15:50:19Z</time>
      </trkpt>
      <trkpt lat="47.43149" lon="3.93226">
        <ele>381.3</ele>
        <time>2021-08-11T15:50:28Z</time>
      </trkpt>
      <trkpt lat="47.43135" lon="3.93209">
        <ele>379.38</ele>
        <time>2021-08-11T15:50:32Z</time>
      </trkpt>
      <trkpt lat="47.43099" lon="3.93172">
        <ele>378.9</ele>
        <time>2021-08-11T15:50:41Z</time>
      </trkpt>
      <trkpt lat="47.43095" lon="3.93169">
        <ele>378.42</ele>
        <time>2021-08-11T15:50:42Z</time>
      </trkpt>
      <trkpt lat="47.43091" lon="3.93167">
        <ele>378.42</ele>
        <time>2021-08-11T15:50:43Z</time>
      </trkpt>
      <trkpt lat="47.43087" lon="3.93166">
        <ele>378.42</ele>
        <time>2021-08-11T15:50:44Z</time>
      </trkpt>
      <trkpt lat="47.43082" lon="3.93165">
        <ele>378.42</ele>
        <time>2021-08-11T15:50:45Z</time>
      </trkpt>
      <trkpt lat="47.43077" lon="3.93165">
        <ele>378.42</ele>
        <time>2021-08-11T15:50:46Z</time>
      </trkpt>
      <trkpt lat="47.43036" lon="3.93161">
        <ele>377.94</ele>
        <time>2021-08-11T15:50:54Z</time>
      </trkpt>
      <trkpt lat="47.42977" lon="3.93151">
        <ele>376.97</ele>
        <time>2021-08-11T15:51:06Z</time>
      </trkpt>
      <trkpt lat="47.42951" lon="3.93141">
        <ele>376.97</ele>
        <time>2021-08-11T15:51:12Z</time>
      </trkpt>
      <trkpt lat="47.42916" lon="3.93118">
        <ele>376.97</ele>
        <time>2021-08-11T15:51:21Z</time>
      </trkpt>
      <trkpt lat="47.42883" lon="3.93096">
        <ele>379.86</ele>
        <time>2021-08-11T15:51:31Z</time>
      </trkpt>
      <trkpt lat="47.42849" lon="3.93076">
        <ele>380.34</ele>
        <time>2021-08-11T15:51:42Z</time>
      </trkpt>
      <trkpt lat="47.42822" lon="3.93071">
        <ele>381.78</ele>
        <time>2021-08-11T15:51:50Z</time>
      </trkpt>
      <trkpt lat="47.42796" lon="3.93069">
        <ele>382.74</ele>
        <time>2021-08-11T15:51:58Z</time>
      </trkpt>
      <trkpt lat="47.42771" lon="3.9307">
        <ele>383.7</ele>
        <time>2021-08-11T15:52:07Z</time>
      </trkpt>
      <trkpt lat="47.42745" lon="3.93082">
        <ele>385.63</ele>
        <time>2021-08-11T15:52:17Z</time>
      </trkpt>
      <trkpt lat="47.42721" lon="3.93087">
        <ele>386.59</ele>
        <time>2021-08-11T15:52:26Z</time>
      </trkpt>
      <trkpt lat="47.427" lon="3.93074">
        <ele>386.59</ele>
        <time>2021-08-11T15:52:33Z</time>
      </trkpt>
      <trkpt lat="47.42674" lon="3.93049">
        <ele>386.59</ele>
        <time>2021-08-11T15:52:41Z</time>
      </trkpt>
      <trkpt lat="47.42644" lon="3.93017">
        <ele>387.07</ele>
        <time>2021-08-11T15:52:50Z</time>
      </trkpt>
      <trkpt lat="47.4264" lon="3.93014">
        <ele>387.07</ele>
        <time>2021-08-11T15:52:51Z</time>
      </trkpt>
      <trkpt lat="47.42638" lon="3.9301">
        <ele>387.07</ele>
        <time>2021-08-11T15:52:52Z</time>
      </trkpt>
      <trkpt lat="47.42634" lon="3.93005">
        <ele>387.07</ele>
        <time>2021-08-11T15:52:53Z</time>
      </trkpt>
      <trkpt lat="47.42632" lon="3.93001">
        <ele>387.07</ele>
        <time>2021-08-11T15:52:54Z</time>
      </trkpt>
      <trkpt lat="47.42629" lon="3.92994">
        <ele>387.07</ele>
        <time>2021-08-11T15:52:55Z</time>
      </trkpt>
      <trkpt lat="47.42627" lon="3.92988">
        <ele>387.07</ele>
        <time>2021-08-11T15:52:56Z</time>
      </trkpt>
      <trkpt lat="47.4262" lon="3.92971">
        <ele>387.07</ele>
        <time>2021-08-11T15:52:59Z</time>
      </trkpt>
      <trkpt lat="47.42608" lon="3.92909">
        <ele>387.07</ele>
        <time>2021-08-11T15:53:09Z</time>
      </trkpt>
      <trkpt lat="47.42605" lon="3.92871">
        <ele>385.63</ele>
        <time>2021-08-11T15:53:15Z</time>
      </trkpt>
      <trkpt lat="47.42604" lon="3.92828">
        <ele>386.59</ele>
        <time>2021-08-11T15:53:22Z</time>
      </trkpt>
      <trkpt lat="47.42604" lon="3.92822">
        <ele>386.59</ele>
        <time>2021-08-11T15:53:23Z</time>
      </trkpt>
      <trkpt lat="47.42597" lon="3.92767">
        <ele>386.59</ele>
        <time>2021-08-11T15:53:32Z</time>
      </trkpt>
      <trkpt lat="47.42595" lon="3.92761">
        <ele>386.59</ele>
        <time>2021-08-11T15:53:33Z</time>
      </trkpt>
      <trkpt lat="47.42593" lon="3.9275">
        <ele>386.59</ele>
        <time>2021-08-11T15:53:35Z</time>
      </trkpt>
      <trkpt lat="47.42589" lon="3.92739">
        <ele>386.59</ele>
        <time>2021-08-11T15:53:37Z</time>
      </trkpt>
      <trkpt lat="47.42586" lon="3.92733">
        <ele>386.59</ele>
        <time>2021-08-11T15:53:38Z</time>
      </trkpt>
      <trkpt lat="47.42583" lon="3.92727">
        <ele>385.15</ele>
        <time>2021-08-11T15:53:39Z</time>
      </trkpt>
      <trkpt lat="47.42578" lon="3.92722">
        <ele>385.15</ele>
        <time>2021-08-11T15:53:40Z</time>
      </trkpt>
      <trkpt lat="47.42574" lon="3.92717">
        <ele>385.15</ele>
        <time>2021-08-11T15:53:41Z</time>
      </trkpt>
      <trkpt lat="47.42569" lon="3.92714">
        <ele>384.18</ele>
        <time>2021-08-11T15:53:42Z</time>
      </trkpt>
      <trkpt lat="47.42564" lon="3.9271">
        <ele>384.18</ele>
        <time>2021-08-11T15:53:43Z</time>
      </trkpt>
      <trkpt lat="47.42559" lon="3.92707">
        <ele>384.18</ele>
        <time>2021-08-11T15:53:44Z</time>
      </trkpt>
      <trkpt lat="47.42504" lon="3.92676">
        <ele>382.26</ele>
        <time>2021-08-11T15:53:53Z</time>
      </trkpt>
      <trkpt lat="47.4245" lon="3.92646">
        <ele>381.3</ele>
        <time>2021-08-11T15:54:02Z</time>
      </trkpt>
      <trkpt lat="47.42428" lon="3.92639">
        <ele>381.3</ele>
        <time>2021-08-11T15:54:06Z</time>
      </trkpt>
      <trkpt lat="47.42396" lon="3.92636">
        <ele>383.7</ele>
        <time>2021-08-11T15:54:13Z</time>
      </trkpt>
      <trkpt lat="47.42369" lon="3.92636">
        <ele>385.63</ele>
        <time>2021-08-11T15:54:21Z</time>
      </trkpt>
      <trkpt lat="47.42345" lon="3.92638">
        <ele>387.07</ele>
        <time>2021-08-11T15:54:29Z</time>
      </trkpt>
      <trkpt lat="47.42319" lon="3.92646">
        <ele>388.03</ele>
        <time>2021-08-11T15:54:39Z</time>
      </trkpt>
      <trkpt lat="47.42291" lon="3.92657">
        <ele>389.47</ele>
        <time>2021-08-11T15:54:49Z</time>
      </trkpt>
      <trkpt lat="47.42271" lon="3.92669">
        <ele>390.43</ele>
        <time>2021-08-11T15:54:57Z</time>
      </trkpt>
      <trkpt lat="47.42261" lon="3.9268">
        <ele>390.43</ele>
        <time>2021-08-11T15:55:03Z</time>
      </trkpt>
      <trkpt lat="47.42254" lon="3.92685">
        <ele>390.43</ele>
        <time>2021-08-11T15:55:07Z</time>
      </trkpt>
      <trkpt lat="47.4225" lon="3.92689">
        <ele>390.91</ele>
        <time>2021-08-11T15:55:09Z</time>
      </trkpt>
      <trkpt lat="47.42248" lon="3.9269">
        <ele>390.91</ele>
        <time>2021-08-11T15:55:10Z</time>
      </trkpt>
      <trkpt lat="47.42246" lon="3.92691">
        <ele>390.91</ele>
        <time>2021-08-11T15:55:11Z</time>
      </trkpt>
      <trkpt lat="47.42244" lon="3.92692">
        <ele>391.39</ele>
        <time>2021-08-11T15:55:12Z</time>
      </trkpt>
      <trkpt lat="47.42242" lon="3.92693">
        <ele>391.39</ele>
        <time>2021-08-11T15:55:13Z</time>
      </trkpt>
      <trkpt lat="47.4224" lon="3.92694">
        <ele>391.39</ele>
        <time>2021-08-11T15:55:14Z</time>
      </trkpt>
      <trkpt lat="47.42238" lon="3.92695">
        <ele>391.39</ele>
        <time>2021-08-11T15:55:15Z</time>
      </trkpt>
      <trkpt lat="47.42237" lon="3.92696">
        <ele>391.39</ele>
        <time>2021-08-11T15:55:16Z</time>
      </trkpt>
      <trkpt lat="47.42235" lon="3.92698">
        <ele>391.39</ele>
        <time>2021-08-11T15:55:17Z</time>
      </trkpt>
      <trkpt lat="47.42234" lon="3.92699">
        <ele>391.39</ele>
        <time>2021-08-11T15:55:18Z</time>
      </trkpt>
      <trkpt lat="47.42219" lon="3.9271">
        <ele>392.36</ele>
        <time>2021-08-11T15:55:25Z</time>
      </trkpt>
      <trkpt lat="47.422" lon="3.92726">
        <ele>392.84</ele>
        <time>2021-08-11T15:55:34Z</time>
      </trkpt>
      <trkpt lat="47.42183" lon="3.92739">
        <ele>393.8</ele>
        <time>2021-08-11T15:55:41Z</time>
      </trkpt>
      <trkpt lat="47.42171" lon="3.9275">
        <ele>394.28</ele>
        <time>2021-08-11T15:55:47Z</time>
      </trkpt>
      <trkpt lat="47.42141" lon="3.9277">
        <ele>395.24</ele>
        <time>2021-08-11T15:55:59Z</time>
      </trkpt>
      <trkpt lat="47.42124" lon="3.92783">
        <ele>396.2</ele>
        <time>2021-08-11T15:56:06Z</time>
      </trkpt>
      <trkpt lat="47.4211" lon="3.92794">
        <ele>396.68</ele>
        <time>2021-08-11T15:56:12Z</time>
      </trkpt>
      <trkpt lat="47.42092" lon="3.92807">
        <ele>397.16</ele>
        <time>2021-08-11T15:56:20Z</time>
      </trkpt>
      <trkpt lat="47.42076" lon="3.92817">
        <ele>398.12</ele>
        <time>2021-08-11T15:56:26Z</time>
      </trkpt>
      <trkpt lat="47.4206" lon="3.92829">
        <ele>398.6</ele>
        <time>2021-08-11T15:56:33Z</time>
      </trkpt>
      <trkpt lat="47.42046" lon="3.92837">
        <ele>399.08</ele>
        <time>2021-08-11T15:56:39Z</time>
      </trkpt>
      <trkpt lat="47.42031" lon="3.92845">
        <ele>400.53</ele>
        <time>2021-08-11T15:56:48Z</time>
      </trkpt>
      <trkpt lat="47.42029" lon="3.92846">
        <ele>400.53</ele>
        <time>2021-08-11T15:56:49Z</time>
      </trkpt>
      <trkpt lat="47.42016" lon="3.92855">
        <ele>401.01</ele>
        <time>2021-08-11T15:56:56Z</time>
      </trkpt>
      <trkpt lat="47.42012" lon="3.9286">
        <ele>401.01</ele>
        <time>2021-08-11T15:57:01Z</time>
      </trkpt>
      <trkpt lat="47.42008" lon="3.92864">
        <ele>401.49</ele>
        <time>2021-08-11T15:57:03Z</time>
      </trkpt>
      <trkpt lat="47.41993" lon="3.92878">
        <ele>402.45</ele>
        <time>2021-08-11T15:57:10Z</time>
      </trkpt>
      <trkpt lat="47.41985" lon="3.92886">
        <ele>402.93</ele>
        <time>2021-08-11T15:57:17Z</time>
      </trkpt>
      <trkpt lat="47.41988" lon="3.92898">
        <ele>403.41</ele>
        <time>2021-08-11T15:57:36Z</time>
      </trkpt>
      <trkpt lat="47.41981" lon="3.92907">
        <ele>403.41</ele>
        <time>2021-08-11T15:57:43Z</time>
      </trkpt>
      <trkpt lat="47.41968" lon="3.92918">
        <ele>403.89</ele>
        <time>2021-08-11T15:57:49Z</time>
      </trkpt>
      <trkpt lat="47.41958" lon="3.92933">
        <ele>404.37</ele>
        <time>2021-08-11T15:57:56Z</time>
      </trkpt>
      <trkpt lat="47.41952" lon="3.92945">
        <ele>404.37</ele>
        <time>2021-08-11T15:58:03Z</time>
      </trkpt>
      <trkpt lat="47.41942" lon="3.92958">
        <ele>405.33</ele>
        <time>2021-08-11T15:58:12Z</time>
      </trkpt>
      <trkpt lat="47.41938" lon="3.92963">
        <ele>405.33</ele>
        <time>2021-08-11T15:58:14Z</time>
      </trkpt>
      <trkpt lat="47.41935" lon="3.92965">
        <ele>403.89</ele>
        <time>2021-08-11T15:58:16Z</time>
      </trkpt>
      <trkpt lat="47.41928" lon="3.92973">
        <ele>403.89</ele>
        <time>2021-08-11T15:58:28Z</time>
      </trkpt>
      <trkpt lat="47.41923" lon="3.92983">
        <ele>403.89</ele>
        <time>2021-08-11T15:58:35Z</time>
      </trkpt>
      <trkpt lat="47.4192" lon="3.92988">
        <ele>405.33</ele>
        <time>2021-08-11T15:58:38Z</time>
      </trkpt>
      <trkpt lat="47.41914" lon="3.93003">
        <ele>405.33</ele>
        <time>2021-08-11T15:58:44Z</time>
      </trkpt>
      <trkpt lat="47.41904" lon="3.93024">
        <ele>404.37</ele>
        <time>2021-08-11T15:58:51Z</time>
      </trkpt>
      <trkpt lat="47.41892" lon="3.9305">
        <ele>402.93</ele>
        <time>2021-08-11T15:58:59Z</time>
      </trkpt>
      <trkpt lat="47.41885" lon="3.93064">
        <ele>402.45</ele>
        <time>2021-08-11T15:59:04Z</time>
      </trkpt>
      <trkpt lat="47.41875" lon="3.93077">
        <ele>402.45</ele>
        <time>2021-08-11T15:59:11Z</time>
      </trkpt>
      <trkpt lat="47.41866" lon="3.93088">
        <ele>401.49</ele>
        <time>2021-08-11T15:59:18Z</time>
      </trkpt>
      <trkpt lat="47.41859" lon="3.93098">
        <ele>401.01</ele>
        <time>2021-08-11T15:59:22Z</time>
      </trkpt>
      <trkpt lat="47.41849" lon="3.93119">
        <ele>399.08</ele>
        <time>2021-08-11T15:59:29Z</time>
      </trkpt>
      <trkpt lat="47.41836" lon="3.93137">
        <ele>397.64</ele>
        <time>2021-08-11T15:59:36Z</time>
      </trkpt>
      <trkpt lat="47.41806" lon="3.93161">
        <ele>396.2</ele>
        <time>2021-08-11T15:59:44Z</time>
      </trkpt>
      <trkpt lat="47.41777" lon="3.93184">
        <ele>395.24</ele>
        <time>2021-08-11T15:59:52Z</time>
      </trkpt>
      <trkpt lat="47.4175" lon="3.93205">
        <ele>394.28</ele>
        <time>2021-08-11T16:00:00Z</time>
      </trkpt>
      <trkpt lat="47.41731" lon="3.93217">
        <ele>393.8</ele>
        <time>2021-08-11T16:00:06Z</time>
      </trkpt>
      <trkpt lat="47.41706" lon="3.93223">
        <ele>392.84</ele>
        <time>2021-08-11T16:00:13Z</time>
      </trkpt>
      <trkpt lat="47.41703" lon="3.9322">
        <ele>392.84</ele>
        <time>2021-08-11T16:00:14Z</time>
      </trkpt>
      <trkpt lat="47.41702" lon="3.93217">
        <ele>392.84</ele>
        <time>2021-08-11T16:00:15Z</time>
      </trkpt>
      <trkpt lat="47.41695" lon="3.93172">
        <ele>392.36</ele>
        <time>2021-08-11T16:00:24Z</time>
      </trkpt>
      <trkpt lat="47.41688" lon="3.93117">
        <ele>391.39</ele>
        <time>2021-08-11T16:00:33Z</time>
      </trkpt>
      <trkpt lat="47.41688" lon="3.93072">
        <ele>391.39</ele>
        <time>2021-08-11T16:00:41Z</time>
      </trkpt>
      <trkpt lat="47.41685" lon="3.93034">
        <ele>391.39</ele>
        <time>2021-08-11T16:00:49Z</time>
      </trkpt>
      <trkpt lat="47.41679" lon="3.93001">
        <ele>391.39</ele>
        <time>2021-08-11T16:00:57Z</time>
      </trkpt>
      <trkpt lat="47.41673" lon="3.92978">
        <ele>392.36</ele>
        <time>2021-08-11T16:01:03Z</time>
      </trkpt>
      <trkpt lat="47.4166" lon="3.92953">
        <ele>393.8</ele>
        <time>2021-08-11T16:01:12Z</time>
      </trkpt>
      <trkpt lat="47.41644" lon="3.92946">
        <ele>393.8</ele>
        <time>2021-08-11T16:01:18Z</time>
      </trkpt>
      <trkpt lat="47.41638" lon="3.92946">
        <ele>392.36</ele>
        <time>2021-08-11T16:01:20Z</time>
      </trkpt>
      <trkpt lat="47.41624" lon="3.92937">
        <ele>392.36</ele>
        <time>2021-08-11T16:01:25Z</time>
      </trkpt>
      <trkpt lat="47.41602" lon="3.92926">
        <ele>392.36</ele>
        <time>2021-08-11T16:01:33Z</time>
      </trkpt>
      <trkpt lat="47.41579" lon="3.92919">
        <ele>392.36</ele>
        <time>2021-08-11T16:01:41Z</time>
      </trkpt>
      <trkpt lat="47.41573" lon="3.92917">
        <ele>393.8</ele>
        <time>2021-08-11T16:01:43Z</time>
      </trkpt>
      <trkpt lat="47.41554" lon="3.92908">
        <ele>393.8</ele>
        <time>2021-08-11T16:01:49Z</time>
      </trkpt>
      <trkpt lat="47.41536" lon="3.92891">
        <ele>393.8</ele>
        <time>2021-08-11T16:01:56Z</time>
      </trkpt>
      <trkpt lat="47.41518" lon="3.92866">
        <ele>393.8</ele>
        <time>2021-08-11T16:02:03Z</time>
      </trkpt>
      <trkpt lat="47.41492" lon="3.92823">
        <ele>393.8</ele>
        <time>2021-08-11T16:02:14Z</time>
      </trkpt>
      <trkpt lat="47.41475" lon="3.92792">
        <ele>393.8</ele>
        <time>2021-08-11T16:02:21Z</time>
      </trkpt>
      <trkpt lat="47.41473" lon="3.92787">
        <ele>393.8</ele>
        <time>2021-08-11T16:02:22Z</time>
      </trkpt>
      <trkpt lat="47.41461" lon="3.92762">
        <ele>394.28</ele>
        <time>2021-08-11T16:02:29Z</time>
      </trkpt>
      <trkpt lat="47.41453" lon="3.92747">
        <ele>394.28</ele>
        <time>2021-08-11T16:02:35Z</time>
      </trkpt>
      <trkpt lat="47.41442" lon="3.92715">
        <ele>392.84</ele>
        <time>2021-08-11T16:02:42Z</time>
      </trkpt>
      <trkpt lat="47.41425" lon="3.92672">
        <ele>391.39</ele>
        <time>2021-08-11T16:02:49Z</time>
      </trkpt>
      <trkpt lat="47.41422" lon="3.92665">
        <ele>390.43</ele>
        <time>2021-08-11T16:02:50Z</time>
      </trkpt>
      <trkpt lat="47.41403" lon="3.92604">
        <ele>388.51</ele>
        <time>2021-08-11T16:02:57Z</time>
      </trkpt>
      <trkpt lat="47.41384" lon="3.92507">
        <ele>385.15</ele>
        <time>2021-08-11T16:03:06Z</time>
      </trkpt>
      <trkpt lat="47.41362" lon="3.92425">
        <ele>384.18</ele>
        <time>2021-08-11T16:03:14Z</time>
      </trkpt>
      <trkpt lat="47.41329" lon="3.92325">
        <ele>382.74</ele>
        <time>2021-08-11T16:03:25Z</time>
      </trkpt>
      <trkpt lat="47.41317" lon="3.92286">
        <ele>382.26</ele>
        <time>2021-08-11T16:03:30Z</time>
      </trkpt>
      <trkpt lat="47.41311" lon="3.92266">
        <ele>382.26</ele>
        <time>2021-08-11T16:03:34Z</time>
      </trkpt>
      <trkpt lat="47.41307" lon="3.92264">
        <ele>381.78</ele>
        <time>2021-08-11T16:03:35Z</time>
      </trkpt>
      <trkpt lat="47.41304" lon="3.92264">
        <ele>381.78</ele>
        <time>2021-08-11T16:03:36Z</time>
      </trkpt>
      <trkpt lat="47.41299" lon="3.92268">
        <ele>381.3</ele>
        <time>2021-08-11T16:03:37Z</time>
      </trkpt>
      <trkpt lat="47.41295" lon="3.92271">
        <ele>380.82</ele>
        <time>2021-08-11T16:03:38Z</time>
      </trkpt>
      <trkpt lat="47.41284" lon="3.92279">
        <ele>379.86</ele>
        <time>2021-08-11T16:03:40Z</time>
      </trkpt>
      <trkpt lat="47.4128" lon="3.92282">
        <ele>378.9</ele>
        <time>2021-08-11T16:03:41Z</time>
      </trkpt>
      <trkpt lat="47.41274" lon="3.92284">
        <ele>378.9</ele>
        <time>2021-08-11T16:03:42Z</time>
      </trkpt>
      <trkpt lat="47.41268" lon="3.92286">
        <ele>378.9</ele>
        <time>2021-08-11T16:03:43Z</time>
      </trkpt>
      <trkpt lat="47.41261" lon="3.92286">
        <ele>377.45</ele>
        <time>2021-08-11T16:03:44Z</time>
      </trkpt>
      <trkpt lat="47.41254" lon="3.92285">
        <ele>377.45</ele>
        <time>2021-08-11T16:03:45Z</time>
      </trkpt>
      <trkpt lat="47.41247" lon="3.92284">
        <ele>376.97</ele>
        <time>2021-08-11T16:03:46Z</time>
      </trkpt>
      <trkpt lat="47.41241" lon="3.92282">
        <ele>376.49</ele>
        <time>2021-08-11T16:03:47Z</time>
      </trkpt>
      <trkpt lat="47.41234" lon="3.92279">
        <ele>376.49</ele>
        <time>2021-08-11T16:03:48Z</time>
      </trkpt>
      <trkpt lat="47.41227" lon="3.92276">
        <ele>375.53</ele>
        <time>2021-08-11T16:03:49Z</time>
      </trkpt>
      <trkpt lat="47.41165" lon="3.92254">
        <ele>372.65</ele>
        <time>2021-08-11T16:03:57Z</time>
      </trkpt>
      <trkpt lat="47.41115" lon="3.92235">
        <ele>371.21</ele>
        <time>2021-08-11T16:04:04Z</time>
      </trkpt>
      <trkpt lat="47.41096" lon="3.92226">
        <ele>370.73</ele>
        <time>2021-08-11T16:04:07Z</time>
      </trkpt>
      <trkpt lat="47.41091" lon="3.92221">
        <ele>370.24</ele>
        <time>2021-08-11T16:04:08Z</time>
      </trkpt>
      <trkpt lat="47.41076" lon="3.92203">
        <ele>369.76</ele>
        <time>2021-08-11T16:04:11Z</time>
      </trkpt>
      <trkpt lat="47.41072" lon="3.92197">
        <ele>368.8</ele>
        <time>2021-08-11T16:04:12Z</time>
      </trkpt>
      <trkpt lat="47.41068" lon="3.9219">
        <ele>368.8</ele>
        <time>2021-08-11T16:04:13Z</time>
      </trkpt>
      <trkpt lat="47.41065" lon="3.92183">
        <ele>368.32</ele>
        <time>2021-08-11T16:04:14Z</time>
      </trkpt>
      <trkpt lat="47.41063" lon="3.92176">
        <ele>367.36</ele>
        <time>2021-08-11T16:04:15Z</time>
      </trkpt>
      <trkpt lat="47.41052" lon="3.92159">
        <ele>366.88</ele>
        <time>2021-08-11T16:04:19Z</time>
      </trkpt>
      <trkpt lat="47.41041" lon="3.92158">
        <ele>365.92</ele>
        <time>2021-08-11T16:04:23Z</time>
      </trkpt>
      <trkpt lat="47.41039" lon="3.92161">
        <ele>365.92</ele>
        <time>2021-08-11T16:04:24Z</time>
      </trkpt>
      <trkpt lat="47.41033" lon="3.92171">
        <ele>364.96</ele>
        <time>2021-08-11T16:04:28Z</time>
      </trkpt>
      <trkpt lat="47.41031" lon="3.92172">
        <ele>364.96</ele>
        <time>2021-08-11T16:04:29Z</time>
      </trkpt>
      <trkpt lat="47.4103" lon="3.92174">
        <ele>364.96</ele>
        <time>2021-08-11T16:04:30Z</time>
      </trkpt>
      <trkpt lat="47.41029" lon="3.92176">
        <ele>364.96</ele>
        <time>2021-08-11T16:04:31Z</time>
      </trkpt>
      <trkpt lat="47.41029" lon="3.92179">
        <ele>364.48</ele>
        <time>2021-08-11T16:04:32Z</time>
      </trkpt>
      <trkpt lat="47.41028" lon="3.92182">
        <ele>364.48</ele>
        <time>2021-08-11T16:04:33Z</time>
      </trkpt>
      <trkpt lat="47.41025" lon="3.92192">
        <ele>364.48</ele>
        <time>2021-08-11T16:04:39Z</time>
      </trkpt>
      <trkpt lat="47.41027" lon="3.92192">
        <ele>364</ele>
        <time>2021-08-11T16:04:53Z</time>
      </trkpt>
      <trkpt lat="47.41028" lon="3.92192">
        <ele>364</ele>
        <time>2021-08-11T16:05:01Z</time>
      </trkpt>
      <trkpt lat="47.41028" lon="3.92193">
        <ele>364</ele>
        <time>2021-08-11T16:05:07Z</time>
      </trkpt>
      <trkpt lat="47.41028" lon="3.92193">
        <ele>364</ele>
        <time>2021-08-11T16:05:20Z</time>
      </trkpt>
      <trkpt lat="47.41028" lon="3.92194">
        <ele>364</ele>
        <time>2021-08-11T16:05:36Z</time>
      </trkpt>
      <trkpt lat="47.41027" lon="3.92194">
        <ele>364</ele>
        <time>2021-08-11T16:05:46Z</time>
      </trkpt>
      <trkpt lat="47.41027" lon="3.92193">
        <ele>364</ele>
        <time>2021-08-11T16:05:54Z</time>
      </trkpt>
      <trkpt lat="47.41027" lon="3.92193">
        <ele>364</ele>
        <time>2021-08-11T16:06:04Z</time>
      </trkpt>
      <trkpt lat="47.41027" lon="3.92192">
        <ele>364</ele>
        <time>2021-08-11T16:06:18Z</time>
      </trkpt>
      <trkpt lat="47.41029" lon="3.92192">
        <ele>364</ele>
        <time>2021-08-11T16:06:42Z</time>
      </trkpt>
      <trkpt lat="47.41029" lon="3.92193">
        <ele>364</ele>
        <time>2021-08-11T16:07:06Z</time>
      </trkpt>
      <trkpt lat="47.41029" lon="3.92194">
        <ele>364</ele>
        <time>2021-08-11T16:07:13Z</time>
      </trkpt>
      <trkpt lat="47.41029" lon="3.92195">
        <ele>364</ele>
        <time>2021-08-11T16:07:29Z</time>
      </trkpt>
      <trkpt lat="47.41029" lon="3.92195">
        <ele>364</ele>
        <time>2021-08-11T16:07:41Z</time>
      </trkpt>
      <trkpt lat="47.41028" lon="3.92195">
        <ele>364</ele>
        <time>2021-08-11T16:07:53Z</time>
      </trkpt>
      <trkpt lat="47.41029" lon="3.92195">
        <ele>364</ele>
        <time>2021-08-11T16:08:02Z</time>
      </trkpt>
      <trkpt lat="47.41028" lon="3.92197">
        <ele>364</ele>
        <time>2021-08-11T16:08:07Z</time>
      </trkpt>
      <trkpt lat="47.4103" lon="3.92199">
        <ele>363.52</ele>
        <time>2021-08-11T16:08:09Z</time>
      </trkpt>
      <trkpt lat="47.41033" lon="3.92193">
        <ele>364</ele>
        <time>2021-08-11T16:08:13Z</time>
      </trkpt>
      <trkpt lat="47.41033" lon="3.9219">
        <ele>363.52</ele>
        <time>2021-08-11T16:08:14Z</time>
      </trkpt>
      <trkpt lat="47.41034" lon="3.92184">
        <ele>364</ele>
        <time>2021-08-11T16:08:17Z</time>
      </trkpt>
      <trkpt lat="47.41032" lon="3.9218">
        <ele>364</ele>
        <time>2021-08-11T16:08:19Z</time>
      </trkpt>
      <trkpt lat="47.41028" lon="3.92178">
        <ele>364</ele>
        <time>2021-08-11T16:08:20Z</time>
      </trkpt>
      <trkpt lat="47.41024" lon="3.92178">
        <ele>363.04</ele>
        <time>2021-08-11T16:08:21Z</time>
      </trkpt>
      <trkpt lat="47.41019" lon="3.92178">
        <ele>362.55</ele>
        <time>2021-08-11T16:08:22Z</time>
      </trkpt>
      <trkpt lat="47.41005" lon="3.92178">
        <ele>361.59</ele>
        <time>2021-08-11T16:08:24Z</time>
      </trkpt>
      <trkpt lat="47.40964" lon="3.92172">
        <ele>357.75</ele>
        <time>2021-08-11T16:08:30Z</time>
      </trkpt>
      <trkpt lat="47.40919" lon="3.92167">
        <ele>354.86</ele>
        <time>2021-08-11T16:08:36Z</time>
      </trkpt>
      <trkpt lat="47.40873" lon="3.92168">
        <ele>351.02</ele>
        <time>2021-08-11T16:08:41Z</time>
      </trkpt>
      <trkpt lat="47.40845" lon="3.92172">
        <ele>349.58</ele>
        <time>2021-08-11T16:08:44Z</time>
      </trkpt>
      <trkpt lat="47.40786" lon="3.92182">
        <ele>346.21</ele>
        <time>2021-08-11T16:08:50Z</time>
      </trkpt>
      <trkpt lat="47.40723" lon="3.92187">
        <ele>343.33</ele>
        <time>2021-08-11T16:08:56Z</time>
      </trkpt>
      <trkpt lat="47.40679" lon="3.92191">
        <ele>339.96</ele>
        <time>2021-08-11T16:09:00Z</time>
      </trkpt>
      <trkpt lat="47.40624" lon="3.92185">
        <ele>337.08</ele>
        <time>2021-08-11T16:09:05Z</time>
      </trkpt>
      <trkpt lat="47.40559" lon="3.92174">
        <ele>334.2</ele>
        <time>2021-08-11T16:09:11Z</time>
      </trkpt>
      <trkpt lat="47.40538" lon="3.92172">
        <ele>332.75</ele>
        <time>2021-08-11T16:09:13Z</time>
      </trkpt>
      <trkpt lat="47.40491" lon="3.92167">
        <ele>329.87</ele>
        <time>2021-08-11T16:09:18Z</time>
      </trkpt>
      <trkpt lat="47.40457" lon="3.92165">
        <ele>327.47</ele>
        <time>2021-08-11T16:09:22Z</time>
      </trkpt>
      <trkpt lat="47.40443" lon="3.92168">
        <ele>326.5</ele>
        <time>2021-08-11T16:09:24Z</time>
      </trkpt>
      <trkpt lat="47.40436" lon="3.92166">
        <ele>325.54</ele>
        <time>2021-08-11T16:09:25Z</time>
      </trkpt>
      <trkpt lat="47.40428" lon="3.92163">
        <ele>324.58</ele>
        <time>2021-08-11T16:09:26Z</time>
      </trkpt>
      <trkpt lat="47.40421" lon="3.92158">
        <ele>324.1</ele>
        <time>2021-08-11T16:09:27Z</time>
      </trkpt>
      <trkpt lat="47.40415" lon="3.92151">
        <ele>324.1</ele>
        <time>2021-08-11T16:09:28Z</time>
      </trkpt>
      <trkpt lat="47.40372" lon="3.9211">
        <ele>320.74</ele>
        <time>2021-08-11T16:09:34Z</time>
      </trkpt>
      <trkpt lat="47.4035" lon="3.92084">
        <ele>320.26</ele>
        <time>2021-08-11T16:09:38Z</time>
      </trkpt>
      <trkpt lat="47.40346" lon="3.92079">
        <ele>320.26</ele>
        <time>2021-08-11T16:09:39Z</time>
      </trkpt>
      <trkpt lat="47.40342" lon="3.92076">
        <ele>320.74</ele>
        <time>2021-08-11T16:09:40Z</time>
      </trkpt>
      <trkpt lat="47.40339" lon="3.92075">
        <ele>320.74</ele>
        <time>2021-08-11T16:09:41Z</time>
      </trkpt>
      <trkpt lat="47.40336" lon="3.92077">
        <ele>320.74</ele>
        <time>2021-08-11T16:09:42Z</time>
      </trkpt>
      <trkpt lat="47.40333" lon="3.92079">
        <ele>320.74</ele>
        <time>2021-08-11T16:09:43Z</time>
      </trkpt>
      <trkpt lat="47.4033" lon="3.92081">
        <ele>320.74</ele>
        <time>2021-08-11T16:09:44Z</time>
      </trkpt>
      <trkpt lat="47.40328" lon="3.92083">
        <ele>320.74</ele>
        <time>2021-08-11T16:09:45Z</time>
      </trkpt>
      <trkpt lat="47.40326" lon="3.92085">
        <ele>320.74</ele>
        <time>2021-08-11T16:09:46Z</time>
      </trkpt>
      <trkpt lat="47.40322" lon="3.92088">
        <ele>322.18</ele>
        <time>2021-08-11T16:09:48Z</time>
      </trkpt>
      <trkpt lat="47.40311" lon="3.92097">
        <ele>322.66</ele>
        <time>2021-08-11T16:09:54Z</time>
      </trkpt>
      <trkpt lat="47.40297" lon="3.92104">
        <ele>324.58</ele>
        <time>2021-08-11T16:10:03Z</time>
      </trkpt>
      <trkpt lat="47.40282" lon="3.92113">
        <ele>325.54</ele>
        <time>2021-08-11T16:10:13Z</time>
      </trkpt>
      <trkpt lat="47.40269" lon="3.92115">
        <ele>327.47</ele>
        <time>2021-08-11T16:10:21Z</time>
      </trkpt>
      <trkpt lat="47.40257" lon="3.92118">
        <ele>328.91</ele>
        <time>2021-08-11T16:10:29Z</time>
      </trkpt>
      <trkpt lat="47.4025" lon="3.9212">
        <ele>329.87</ele>
        <time>2021-08-11T16:10:35Z</time>
      </trkpt>
      <trkpt lat="47.40239" lon="3.92126">
        <ele>331.79</ele>
        <time>2021-08-11T16:10:45Z</time>
      </trkpt>
      <trkpt lat="47.40231" lon="3.92128">
        <ele>333.71</ele>
        <time>2021-08-11T16:10:54Z</time>
      </trkpt>
      <trkpt lat="47.40221" lon="3.92131">
        <ele>335.16</ele>
        <time>2021-08-11T16:11:05Z</time>
      </trkpt>
      <trkpt lat="47.4021" lon="3.92133">
        <ele>336.6</ele>
        <time>2021-08-11T16:11:17Z</time>
      </trkpt>
      <trkpt lat="47.40204" lon="3.92133">
        <ele>337.56</ele>
        <time>2021-08-11T16:11:26Z</time>
      </trkpt>
      <trkpt lat="47.40203" lon="3.92133">
        <ele>337.56</ele>
        <time>2021-08-11T16:11:27Z</time>
      </trkpt>
      <trkpt lat="47.40202" lon="3.92134">
        <ele>338.04</ele>
        <time>2021-08-11T16:11:28Z</time>
      </trkpt>
      <trkpt lat="47.40192" lon="3.92138">
        <ele>339</ele>
        <time>2021-08-11T16:11:38Z</time>
      </trkpt>
      <trkpt lat="47.40183" lon="3.92142">
        <ele>339.96</ele>
        <time>2021-08-11T16:11:48Z</time>
      </trkpt>
      <trkpt lat="47.40177" lon="3.92145">
        <ele>340.92</ele>
        <time>2021-08-11T16:11:55Z</time>
      </trkpt>
      <trkpt lat="47.4017" lon="3.9215">
        <ele>342.37</ele>
        <time>2021-08-11T16:12:05Z</time>
      </trkpt>
      <trkpt lat="47.40163" lon="3.92153">
        <ele>343.33</ele>
        <time>2021-08-11T16:12:14Z</time>
      </trkpt>
      <trkpt lat="47.40156" lon="3.92157">
        <ele>344.77</ele>
        <time>2021-08-11T16:12:24Z</time>
      </trkpt>
      <trkpt lat="47.40148" lon="3.9216">
        <ele>345.73</ele>
        <time>2021-08-11T16:12:34Z</time>
      </trkpt>
      <trkpt lat="47.40141" lon="3.92164">
        <ele>346.69</ele>
        <time>2021-08-11T16:12:44Z</time>
      </trkpt>
      <trkpt lat="47.40135" lon="3.92173">
        <ele>349.1</ele>
        <time>2021-08-11T16:12:56Z</time>
      </trkpt>
      <trkpt lat="47.40134" lon="3.9218">
        <ele>349.1</ele>
        <time>2021-08-11T16:13:03Z</time>
      </trkpt>
      <trkpt lat="47.40134" lon="3.92185">
        <ele>349.58</ele>
        <time>2021-08-11T16:13:07Z</time>
      </trkpt>
      <trkpt lat="47.40134" lon="3.92197">
        <ele>351.5</ele>
        <time>2021-08-11T16:13:16Z</time>
      </trkpt>
      <trkpt lat="47.40134" lon="3.92205">
        <ele>351.98</ele>
        <time>2021-08-11T16:13:24Z</time>
      </trkpt>
      <trkpt lat="47.40136" lon="3.92215">
        <ele>353.42</ele>
        <time>2021-08-11T16:13:33Z</time>
      </trkpt>
      <trkpt lat="47.40137" lon="3.92223">
        <ele>353.9</ele>
        <time>2021-08-11T16:13:41Z</time>
      </trkpt>
      <trkpt lat="47.40139" lon="3.92233">
        <ele>354.86</ele>
        <time>2021-08-11T16:13:49Z</time>
      </trkpt>
      <trkpt lat="47.40142" lon="3.92245">
        <ele>355.83</ele>
        <time>2021-08-11T16:13:57Z</time>
      </trkpt>
      <trkpt lat="47.40144" lon="3.92252">
        <ele>356.31</ele>
        <time>2021-08-11T16:14:04Z</time>
      </trkpt>
      <trkpt lat="47.40146" lon="3.92262">
        <ele>356.79</ele>
        <time>2021-08-11T16:14:10Z</time>
      </trkpt>
      <trkpt lat="47.40147" lon="3.92271">
        <ele>357.75</ele>
        <time>2021-08-11T16:14:15Z</time>
      </trkpt>
      <trkpt lat="47.40147" lon="3.92273">
        <ele>357.75</ele>
        <time>2021-08-11T16:14:16Z</time>
      </trkpt>
      <trkpt lat="47.40147" lon="3.92275">
        <ele>357.75</ele>
        <time>2021-08-11T16:14:17Z</time>
      </trkpt>
      <trkpt lat="47.40148" lon="3.92277">
        <ele>358.23</ele>
        <time>2021-08-11T16:14:18Z</time>
      </trkpt>
      <trkpt lat="47.40148" lon="3.92278">
        <ele>358.23</ele>
        <time>2021-08-11T16:14:19Z</time>
      </trkpt>
      <trkpt lat="47.40148" lon="3.9228">
        <ele>358.23</ele>
        <time>2021-08-11T16:14:20Z</time>
      </trkpt>
      <trkpt lat="47.40149" lon="3.92291">
        <ele>359.19</ele>
        <time>2021-08-11T16:14:27Z</time>
      </trkpt>
      <trkpt lat="47.40149" lon="3.92293">
        <ele>359.19</ele>
        <time>2021-08-11T16:14:28Z</time>
      </trkpt>
      <trkpt lat="47.4015" lon="3.92302">
        <ele>359.67</ele>
        <time>2021-08-11T16:14:34Z</time>
      </trkpt>
      <trkpt lat="47.4015" lon="3.92314">
        <ele>361.11</ele>
        <time>2021-08-11T16:14:42Z</time>
      </trkpt>
      <trkpt lat="47.40149" lon="3.92324">
        <ele>361.59</ele>
        <time>2021-08-11T16:14:49Z</time>
      </trkpt>
      <trkpt lat="47.4015" lon="3.92332">
        <ele>362.55</ele>
        <time>2021-08-11T16:14:54Z</time>
      </trkpt>
      <trkpt lat="47.4015" lon="3.92338">
        <ele>363.52</ele>
        <time>2021-08-11T16:15:00Z</time>
      </trkpt>
      <trkpt lat="47.40149" lon="3.92343">
        <ele>364.48</ele>
        <time>2021-08-11T16:15:04Z</time>
      </trkpt>
      <trkpt lat="47.40148" lon="3.92353">
        <ele>364.96</ele>
        <time>2021-08-11T16:15:10Z</time>
      </trkpt>
      <trkpt lat="47.40147" lon="3.92354">
        <ele>364.96</ele>
        <time>2021-08-11T16:15:11Z</time>
      </trkpt>
      <trkpt lat="47.40141" lon="3.92369">
        <ele>366.88</ele>
        <time>2021-08-11T16:15:20Z</time>
      </trkpt>
      <trkpt lat="47.40135" lon="3.92385">
        <ele>367.84</ele>
        <time>2021-08-11T16:15:30Z</time>
      </trkpt>
      <trkpt lat="47.40134" lon="3.92389">
        <ele>368.32</ele>
        <time>2021-08-11T16:15:32Z</time>
      </trkpt>
      <trkpt lat="47.40133" lon="3.9239">
        <ele>368.32</ele>
        <time>2021-08-11T16:15:33Z</time>
      </trkpt>
      <trkpt lat="47.40132" lon="3.92391">
        <ele>368.32</ele>
        <time>2021-08-11T16:15:34Z</time>
      </trkpt>
      <trkpt lat="47.40131" lon="3.92393">
        <ele>368.8</ele>
        <time>2021-08-11T16:15:35Z</time>
      </trkpt>
      <trkpt lat="47.4013" lon="3.92395">
        <ele>368.8</ele>
        <time>2021-08-11T16:15:36Z</time>
      </trkpt>
      <trkpt lat="47.40129" lon="3.92397">
        <ele>368.8</ele>
        <time>2021-08-11T16:15:37Z</time>
      </trkpt>
      <trkpt lat="47.40121" lon="3.92411">
        <ele>369.76</ele>
        <time>2021-08-11T16:15:47Z</time>
      </trkpt>
      <trkpt lat="47.4011" lon="3.92426">
        <ele>370.73</ele>
        <time>2021-08-11T16:15:56Z</time>
      </trkpt>
      <trkpt lat="47.40095" lon="3.92446">
        <ele>371.21</ele>
        <time>2021-08-11T16:16:06Z</time>
      </trkpt>
      <trkpt lat="47.40079" lon="3.9247">
        <ele>371.69</ele>
        <time>2021-08-11T16:16:18Z</time>
      </trkpt>
      <trkpt lat="47.40064" lon="3.92483">
        <ele>372.65</ele>
        <time>2021-08-11T16:16:27Z</time>
      </trkpt>
      <trkpt lat="47.4005" lon="3.92501">
        <ele>373.61</ele>
        <time>2021-08-11T16:16:37Z</time>
      </trkpt>
      <trkpt lat="47.40035" lon="3.92518">
        <ele>375.05</ele>
        <time>2021-08-11T16:16:48Z</time>
      </trkpt>
      <trkpt lat="47.40024" lon="3.92529">
        <ele>375.53</ele>
        <time>2021-08-11T16:16:56Z</time>
      </trkpt>
      <trkpt lat="47.40009" lon="3.92546">
        <ele>376.49</ele>
        <time>2021-08-11T16:17:06Z</time>
      </trkpt>
      <trkpt lat="47.39996" lon="3.92563">
        <ele>376.97</ele>
        <time>2021-08-11T16:17:15Z</time>
      </trkpt>
      <trkpt lat="47.39984" lon="3.92577">
        <ele>377.45</ele>
        <time>2021-08-11T16:17:23Z</time>
      </trkpt>
      <trkpt lat="47.39976" lon="3.92589">
        <ele>377.94</ele>
        <time>2021-08-11T16:17:29Z</time>
      </trkpt>
      <trkpt lat="47.39961" lon="3.92604">
        <ele>378.42</ele>
        <time>2021-08-11T16:17:38Z</time>
      </trkpt>
      <trkpt lat="47.39948" lon="3.92616">
        <ele>379.86</ele>
        <time>2021-08-11T16:17:46Z</time>
      </trkpt>
      <trkpt lat="47.39936" lon="3.92624">
        <ele>380.34</ele>
        <time>2021-08-11T16:17:53Z</time>
      </trkpt>
      <trkpt lat="47.39922" lon="3.9263">
        <ele>381.78</ele>
        <time>2021-08-11T16:18:01Z</time>
      </trkpt>
      <trkpt lat="47.39909" lon="3.92633">
        <ele>382.26</ele>
        <time>2021-08-11T16:18:08Z</time>
      </trkpt>
      <trkpt lat="47.39893" lon="3.92636">
        <ele>382.74</ele>
        <time>2021-08-11T16:18:16Z</time>
      </trkpt>
      <trkpt lat="47.39871" lon="3.92644">
        <ele>383.7</ele>
        <time>2021-08-11T16:18:26Z</time>
      </trkpt>
      <trkpt lat="47.39856" lon="3.92652">
        <ele>384.18</ele>
        <time>2021-08-11T16:18:34Z</time>
      </trkpt>
      <trkpt lat="47.39843" lon="3.92657">
        <ele>384.66</ele>
        <time>2021-08-11T16:18:41Z</time>
      </trkpt>
      <trkpt lat="47.3983" lon="3.92661">
        <ele>385.63</ele>
        <time>2021-08-11T16:18:48Z</time>
      </trkpt>
      <trkpt lat="47.39817" lon="3.92666">
        <ele>386.11</ele>
        <time>2021-08-11T16:18:55Z</time>
      </trkpt>
      <trkpt lat="47.39815" lon="3.92667">
        <ele>386.59</ele>
        <time>2021-08-11T16:18:56Z</time>
      </trkpt>
      <trkpt lat="47.39796" lon="3.92679">
        <ele>387.55</ele>
        <time>2021-08-11T16:19:07Z</time>
      </trkpt>
      <trkpt lat="47.39785" lon="3.9269">
        <ele>388.03</ele>
        <time>2021-08-11T16:19:14Z</time>
      </trkpt>
      <trkpt lat="47.39774" lon="3.92703">
        <ele>389.47</ele>
        <time>2021-08-11T16:19:22Z</time>
      </trkpt>
      <trkpt lat="47.3976" lon="3.9272">
        <ele>390.91</ele>
        <time>2021-08-11T16:19:31Z</time>
      </trkpt>
      <trkpt lat="47.39749" lon="3.92738">
        <ele>391.39</ele>
        <time>2021-08-11T16:19:39Z</time>
      </trkpt>
      <trkpt lat="47.39734" lon="3.92762">
        <ele>392.84</ele>
        <time>2021-08-11T16:19:49Z</time>
      </trkpt>
      <trkpt lat="47.39723" lon="3.92779">
        <ele>392.84</ele>
        <time>2021-08-11T16:19:56Z</time>
      </trkpt>
      <trkpt lat="47.39703" lon="3.92803">
        <ele>392.84</ele>
        <time>2021-08-11T16:20:04Z</time>
      </trkpt>
      <trkpt lat="47.39681" lon="3.92826">
        <ele>392.84</ele>
        <time>2021-08-11T16:20:13Z</time>
      </trkpt>
      <trkpt lat="47.39658" lon="3.92846">
        <ele>392.84</ele>
        <time>2021-08-11T16:20:22Z</time>
      </trkpt>
      <trkpt lat="47.39636" lon="3.92861">
        <ele>392.84</ele>
        <time>2021-08-11T16:20:30Z</time>
      </trkpt>
      <trkpt lat="47.39606" lon="3.92874">
        <ele>392.84</ele>
        <time>2021-08-11T16:20:39Z</time>
      </trkpt>
      <trkpt lat="47.39583" lon="3.92877">
        <ele>392.84</ele>
        <time>2021-08-11T16:20:46Z</time>
      </trkpt>
      <trkpt lat="47.39553" lon="3.92874">
        <ele>392.84</ele>
        <time>2021-08-11T16:20:54Z</time>
      </trkpt>
      <trkpt lat="47.39534" lon="3.92875">
        <ele>392.84</ele>
        <time>2021-08-11T16:21:00Z</time>
      </trkpt>
      <trkpt lat="47.39506" lon="3.92885">
        <ele>392.84</ele>
        <time>2021-08-11T16:21:08Z</time>
      </trkpt>
      <trkpt lat="47.39487" lon="3.92899">
        <ele>393.32</ele>
        <time>2021-08-11T16:21:15Z</time>
      </trkpt>
      <trkpt lat="47.39469" lon="3.92932">
        <ele>394.28</ele>
        <time>2021-08-11T16:21:25Z</time>
      </trkpt>
      <trkpt lat="47.39447" lon="3.92963">
        <ele>396.2</ele>
        <time>2021-08-11T16:21:37Z</time>
      </trkpt>
      <trkpt lat="47.39433" lon="3.92979">
        <ele>397.16</ele>
        <time>2021-08-11T16:21:45Z</time>
      </trkpt>
      <trkpt lat="47.39417" lon="3.92998">
        <ele>398.12</ele>
        <time>2021-08-11T16:21:53Z</time>
      </trkpt>
      <trkpt lat="47.39397" lon="3.93019">
        <ele>399.08</ele>
        <time>2021-08-11T16:22:02Z</time>
      </trkpt>
      <trkpt lat="47.39376" lon="3.93046">
        <ele>401.01</ele>
        <time>2021-08-11T16:22:14Z</time>
      </trkpt>
      <trkpt lat="47.39365" lon="3.93059">
        <ele>402.45</ele>
        <time>2021-08-11T16:22:22Z</time>
      </trkpt>
      <trkpt lat="47.39347" lon="3.9307">
        <ele>403.41</ele>
        <time>2021-08-11T16:22:30Z</time>
      </trkpt>
      <trkpt lat="47.39329" lon="3.93069">
        <ele>403.41</ele>
        <time>2021-08-11T16:22:37Z</time>
      </trkpt>
      <trkpt lat="47.39314" lon="3.93066">
        <ele>403.41</ele>
        <time>2021-08-11T16:22:41Z</time>
      </trkpt>
      <trkpt lat="47.39309" lon="3.93065">
        <ele>401.97</ele>
        <time>2021-08-11T16:22:42Z</time>
      </trkpt>
      <trkpt lat="47.39305" lon="3.93064">
        <ele>401.97</ele>
        <time>2021-08-11T16:22:43Z</time>
      </trkpt>
      <trkpt lat="47.3926" lon="3.93058">
        <ele>401.97</ele>
        <time>2021-08-11T16:22:53Z</time>
      </trkpt>
      <trkpt lat="47.39219" lon="3.93052">
        <ele>402.45</ele>
        <time>2021-08-11T16:23:02Z</time>
      </trkpt>
      <trkpt lat="47.39197" lon="3.93046">
        <ele>402.45</ele>
        <time>2021-08-11T16:23:07Z</time>
      </trkpt>
      <trkpt lat="47.39173" lon="3.9304">
        <ele>401.97</ele>
        <time>2021-08-11T16:23:13Z</time>
      </trkpt>
      <trkpt lat="47.3917" lon="3.93042">
        <ele>401.97</ele>
        <time>2021-08-11T16:23:14Z</time>
      </trkpt>
      <trkpt lat="47.39166" lon="3.93046">
        <ele>401.49</ele>
        <time>2021-08-11T16:23:15Z</time>
      </trkpt>
      <trkpt lat="47.39139" lon="3.93083">
        <ele>401.49</ele>
        <time>2021-08-11T16:23:23Z</time>
      </trkpt>
      <trkpt lat="47.39127" lon="3.93093">
        <ele>401.49</ele>
        <time>2021-08-11T16:23:26Z</time>
      </trkpt>
      <trkpt lat="47.39114" lon="3.931">
        <ele>401.49</ele>
        <time>2021-08-11T16:23:29Z</time>
      </trkpt>
      <trkpt lat="47.39071" lon="3.93114">
        <ele>399.57</ele>
        <time>2021-08-11T16:23:37Z</time>
      </trkpt>
      <trkpt lat="47.39059" lon="3.93121">
        <ele>399.08</ele>
        <time>2021-08-11T16:23:39Z</time>
      </trkpt>
      <trkpt lat="47.39054" lon="3.93126">
        <ele>398.6</ele>
        <time>2021-08-11T16:23:40Z</time>
      </trkpt>
      <trkpt lat="47.39044" lon="3.93137">
        <ele>398.12</ele>
        <time>2021-08-11T16:23:42Z</time>
      </trkpt>
      <trkpt lat="47.3904" lon="3.93145">
        <ele>398.12</ele>
        <time>2021-08-11T16:23:43Z</time>
      </trkpt>
      <trkpt lat="47.39022" lon="3.93189">
        <ele>396.2</ele>
        <time>2021-08-11T16:23:48Z</time>
      </trkpt>
      <trkpt lat="47.39018" lon="3.93197">
        <ele>395.24</ele>
        <time>2021-08-11T16:23:49Z</time>
      </trkpt>
      <trkpt lat="47.38989" lon="3.93239">
        <ele>391.87</ele>
        <time>2021-08-11T16:23:54Z</time>
      </trkpt>
      <trkpt lat="47.38938" lon="3.93291">
        <ele>388.51</ele>
        <time>2021-08-11T16:24:01Z</time>
      </trkpt>
      <trkpt lat="47.38892" lon="3.93309">
        <ele>388.51</ele>
        <time>2021-08-11T16:24:07Z</time>
      </trkpt>
      <trkpt lat="47.38824" lon="3.93318">
        <ele>386.59</ele>
        <time>2021-08-11T16:24:16Z</time>
      </trkpt>
      <trkpt lat="47.38755" lon="3.93326">
        <ele>384.18</ele>
        <time>2021-08-11T16:24:25Z</time>
      </trkpt>
      <trkpt lat="47.38714" lon="3.93328">
        <ele>381.3</ele>
        <time>2021-08-11T16:24:30Z</time>
      </trkpt>
      <trkpt lat="47.38696" lon="3.93329">
        <ele>380.34</ele>
        <time>2021-08-11T16:24:32Z</time>
      </trkpt>
      <trkpt lat="47.38609" lon="3.93341">
        <ele>377.45</ele>
        <time>2021-08-11T16:24:42Z</time>
      </trkpt>
      <trkpt lat="47.38565" lon="3.9334">
        <ele>374.09</ele>
        <time>2021-08-11T16:24:47Z</time>
      </trkpt>
      <trkpt lat="47.38531" lon="3.93338">
        <ele>371.21</ele>
        <time>2021-08-11T16:24:51Z</time>
      </trkpt>
      <trkpt lat="47.38505" lon="3.93338">
        <ele>368.8</ele>
        <time>2021-08-11T16:24:54Z</time>
      </trkpt>
      <trkpt lat="47.38495" lon="3.93341">
        <ele>367.84</ele>
        <time>2021-08-11T16:24:55Z</time>
      </trkpt>
      <trkpt lat="47.38487" lon="3.93345">
        <ele>367.36</ele>
        <time>2021-08-11T16:24:56Z</time>
      </trkpt>
      <trkpt lat="47.38478" lon="3.93353">
        <ele>365.92</ele>
        <time>2021-08-11T16:24:57Z</time>
      </trkpt>
      <trkpt lat="47.38471" lon="3.93362">
        <ele>364.96</ele>
        <time>2021-08-11T16:24:58Z</time>
      </trkpt>
      <trkpt lat="47.38463" lon="3.93373">
        <ele>363.52</ele>
        <time>2021-08-11T16:24:59Z</time>
      </trkpt>
      <trkpt lat="47.3844" lon="3.93406">
        <ele>361.59</ele>
        <time>2021-08-11T16:25:02Z</time>
      </trkpt>
      <trkpt lat="47.38416" lon="3.93442">
        <ele>359.19</ele>
        <time>2021-08-11T16:25:05Z</time>
      </trkpt>
      <trkpt lat="47.38411" lon="3.93454">
        <ele>359.19</ele>
        <time>2021-08-11T16:25:06Z</time>
      </trkpt>
      <trkpt lat="47.38401" lon="3.93479">
        <ele>357.27</ele>
        <time>2021-08-11T16:25:08Z</time>
      </trkpt>
      <trkpt lat="47.38398" lon="3.93492">
        <ele>356.79</ele>
        <time>2021-08-11T16:25:09Z</time>
      </trkpt>
      <trkpt lat="47.38396" lon="3.93505">
        <ele>356.31</ele>
        <time>2021-08-11T16:25:10Z</time>
      </trkpt>
      <trkpt lat="47.38395" lon="3.93517">
        <ele>354.86</ele>
        <time>2021-08-11T16:25:11Z</time>
      </trkpt>
      <trkpt lat="47.38396" lon="3.93526">
        <ele>353.9</ele>
        <time>2021-08-11T16:25:12Z</time>
      </trkpt>
      <trkpt lat="47.38397" lon="3.93535">
        <ele>353.42</ele>
        <time>2021-08-11T16:25:13Z</time>
      </trkpt>
      <trkpt lat="47.384" lon="3.93543">
        <ele>352.46</ele>
        <time>2021-08-11T16:25:14Z</time>
      </trkpt>
      <trkpt lat="47.38408" lon="3.93553">
        <ele>351.98</ele>
        <time>2021-08-11T16:25:15Z</time>
      </trkpt>
      <trkpt lat="47.38413" lon="3.93562">
        <ele>351.02</ele>
        <time>2021-08-11T16:25:16Z</time>
      </trkpt>
      <trkpt lat="47.38417" lon="3.93572">
        <ele>350.54</ele>
        <time>2021-08-11T16:25:17Z</time>
      </trkpt>
      <trkpt lat="47.38419" lon="3.9358">
        <ele>350.06</ele>
        <time>2021-08-11T16:25:18Z</time>
      </trkpt>
      <trkpt lat="47.38421" lon="3.93588">
        <ele>349.1</ele>
        <time>2021-08-11T16:25:19Z</time>
      </trkpt>
      <trkpt lat="47.38421" lon="3.93599">
        <ele>348.13</ele>
        <time>2021-08-11T16:25:21Z</time>
      </trkpt>
      <trkpt lat="47.38419" lon="3.936">
        <ele>347.17</ele>
        <time>2021-08-11T16:25:22Z</time>
      </trkpt>
      <trkpt lat="47.38415" lon="3.93596">
        <ele>346.69</ele>
        <time>2021-08-11T16:25:23Z</time>
      </trkpt>
      <trkpt lat="47.38407" lon="3.93588">
        <ele>346.21</ele>
        <time>2021-08-11T16:25:24Z</time>
      </trkpt>
      <trkpt lat="47.38364" lon="3.93554">
        <ele>343.33</ele>
        <time>2021-08-11T16:25:29Z</time>
      </trkpt>
      <trkpt lat="47.38348" lon="3.93539">
        <ele>342.37</ele>
        <time>2021-08-11T16:25:31Z</time>
      </trkpt>
      <trkpt lat="47.38332" lon="3.93523">
        <ele>340.44</ele>
        <time>2021-08-11T16:25:33Z</time>
      </trkpt>
      <trkpt lat="47.38324" lon="3.93513">
        <ele>340.44</ele>
        <time>2021-08-11T16:25:34Z</time>
      </trkpt>
      <trkpt lat="47.38287" lon="3.93459">
        <ele>336.12</ele>
        <time>2021-08-11T16:25:39Z</time>
      </trkpt>
      <trkpt lat="47.3828" lon="3.93446">
        <ele>335.16</ele>
        <time>2021-08-11T16:25:40Z</time>
      </trkpt>
      <trkpt lat="47.38276" lon="3.93435">
        <ele>335.16</ele>
        <time>2021-08-11T16:25:41Z</time>
      </trkpt>
      <trkpt lat="47.38271" lon="3.93425">
        <ele>334.68</ele>
        <time>2021-08-11T16:25:42Z</time>
      </trkpt>
      <trkpt lat="47.38265" lon="3.93419">
        <ele>334.68</ele>
        <time>2021-08-11T16:25:43Z</time>
      </trkpt>
      <trkpt lat="47.38259" lon="3.93416">
        <ele>333.71</ele>
        <time>2021-08-11T16:25:44Z</time>
      </trkpt>
      <trkpt lat="47.38253" lon="3.93417">
        <ele>333.23</ele>
        <time>2021-08-11T16:25:45Z</time>
      </trkpt>
      <trkpt lat="47.38247" lon="3.93423">
        <ele>333.23</ele>
        <time>2021-08-11T16:25:46Z</time>
      </trkpt>
      <trkpt lat="47.38245" lon="3.93431">
        <ele>331.79</ele>
        <time>2021-08-11T16:25:47Z</time>
      </trkpt>
      <trkpt lat="47.38245" lon="3.93442">
        <ele>331.79</ele>
        <time>2021-08-11T16:25:48Z</time>
      </trkpt>
      <trkpt lat="47.38246" lon="3.93453">
        <ele>331.79</ele>
        <time>2021-08-11T16:25:49Z</time>
      </trkpt>
      <trkpt lat="47.38248" lon="3.93464">
        <ele>330.83</ele>
        <time>2021-08-11T16:25:50Z</time>
      </trkpt>
      <trkpt lat="47.38259" lon="3.93538">
        <ele>327.47</ele>
        <time>2021-08-11T16:25:56Z</time>
      </trkpt>
      <trkpt lat="47.38276" lon="3.93591">
        <ele>324.58</ele>
        <time>2021-08-11T16:26:00Z</time>
      </trkpt>
      <trkpt lat="47.38294" lon="3.93631">
        <ele>320.74</ele>
        <time>2021-08-11T16:26:03Z</time>
      </trkpt>
      <trkpt lat="47.38327" lon="3.93699">
        <ele>316.89</ele>
        <time>2021-08-11T16:26:08Z</time>
      </trkpt>
      <trkpt lat="47.38355" lon="3.93757">
        <ele>314.49</ele>
        <time>2021-08-11T16:26:12Z</time>
      </trkpt>
      <trkpt lat="47.38378" lon="3.93799">
        <ele>312.57</ele>
        <time>2021-08-11T16:26:15Z</time>
      </trkpt>
      <trkpt lat="47.38386" lon="3.93809">
        <ele>311.6</ele>
        <time>2021-08-11T16:26:16Z</time>
      </trkpt>
      <trkpt lat="47.38394" lon="3.93819">
        <ele>311.12</ele>
        <time>2021-08-11T16:26:17Z</time>
      </trkpt>
      <trkpt lat="47.38399" lon="3.93829">
        <ele>310.64</ele>
        <time>2021-08-11T16:26:18Z</time>
      </trkpt>
      <trkpt lat="47.38402" lon="3.93842">
        <ele>309.68</ele>
        <time>2021-08-11T16:26:19Z</time>
      </trkpt>
      <trkpt lat="47.38402" lon="3.93855">
        <ele>309.2</ele>
        <time>2021-08-11T16:26:20Z</time>
      </trkpt>
      <trkpt lat="47.384" lon="3.93868">
        <ele>308.72</ele>
        <time>2021-08-11T16:26:21Z</time>
      </trkpt>
      <trkpt lat="47.38395" lon="3.93879">
        <ele>308.72</ele>
        <time>2021-08-11T16:26:22Z</time>
      </trkpt>
      <trkpt lat="47.38389" lon="3.93886">
        <ele>308.72</ele>
        <time>2021-08-11T16:26:23Z</time>
      </trkpt>
      <trkpt lat="47.38381" lon="3.9389">
        <ele>308.72</ele>
        <time>2021-08-11T16:26:24Z</time>
      </trkpt>
      <trkpt lat="47.38374" lon="3.93892">
        <ele>308.72</ele>
        <time>2021-08-11T16:26:25Z</time>
      </trkpt>
      <trkpt lat="47.38366" lon="3.93891">
        <ele>308.72</ele>
        <time>2021-08-11T16:26:26Z</time>
      </trkpt>
      <trkpt lat="47.38359" lon="3.93889">
        <ele>308.72</ele>
        <time>2021-08-11T16:26:27Z</time>
      </trkpt>
      <trkpt lat="47.38351" lon="3.93887">
        <ele>308.72</ele>
        <time>2021-08-11T16:26:28Z</time>
      </trkpt>
      <trkpt lat="47.38298" lon="3.93873">
        <ele>305.36</ele>
        <time>2021-08-11T16:26:35Z</time>
      </trkpt>
      <trkpt lat="47.38245" lon="3.93858">
        <ele>301.99</ele>
        <time>2021-08-11T16:26:41Z</time>
      </trkpt>
      <trkpt lat="47.38235" lon="3.93856">
        <ele>301.99</ele>
        <time>2021-08-11T16:26:42Z</time>
      </trkpt>
      <trkpt lat="47.38206" lon="3.93847">
        <ele>300.55</ele>
        <time>2021-08-11T16:26:45Z</time>
      </trkpt>
      <trkpt lat="47.38175" lon="3.93839">
        <ele>298.63</ele>
        <time>2021-08-11T16:26:48Z</time>
      </trkpt>
      <trkpt lat="47.38144" lon="3.9383">
        <ele>297.18</ele>
        <time>2021-08-11T16:26:51Z</time>
      </trkpt>
      <trkpt lat="47.3808" lon="3.93813">
        <ele>294.3</ele>
        <time>2021-08-11T16:26:57Z</time>
      </trkpt>
      <trkpt lat="47.3807" lon="3.93812">
        <ele>293.34</ele>
        <time>2021-08-11T16:26:58Z</time>
      </trkpt>
      <trkpt lat="47.38061" lon="3.93813">
        <ele>292.86</ele>
        <time>2021-08-11T16:26:59Z</time>
      </trkpt>
      <trkpt lat="47.38053" lon="3.93818">
        <ele>292.38</ele>
        <time>2021-08-11T16:27:00Z</time>
      </trkpt>
      <trkpt lat="47.38046" lon="3.93826">
        <ele>291.42</ele>
        <time>2021-08-11T16:27:01Z</time>
      </trkpt>
      <trkpt lat="47.38042" lon="3.93837">
        <ele>291.42</ele>
        <time>2021-08-11T16:27:02Z</time>
      </trkpt>
      <trkpt lat="47.38038" lon="3.9385">
        <ele>289.97</ele>
        <time>2021-08-11T16:27:03Z</time>
      </trkpt>
      <trkpt lat="47.38034" lon="3.93862">
        <ele>289.49</ele>
        <time>2021-08-11T16:27:04Z</time>
      </trkpt>
      <trkpt lat="47.38028" lon="3.93873">
        <ele>288.53</ele>
        <time>2021-08-11T16:27:05Z</time>
      </trkpt>
      <trkpt lat="47.3802" lon="3.93881">
        <ele>287.57</ele>
        <time>2021-08-11T16:27:06Z</time>
      </trkpt>
      <trkpt lat="47.38013" lon="3.93885">
        <ele>288.05</ele>
        <time>2021-08-11T16:27:07Z</time>
      </trkpt>
      <trkpt lat="47.38004" lon="3.93885">
        <ele>288.05</ele>
        <time>2021-08-11T16:27:08Z</time>
      </trkpt>
      <trkpt lat="47.37996" lon="3.93882">
        <ele>287.57</ele>
        <time>2021-08-11T16:27:09Z</time>
      </trkpt>
      <trkpt lat="47.37989" lon="3.93877">
        <ele>287.57</ele>
        <time>2021-08-11T16:27:10Z</time>
      </trkpt>
      <trkpt lat="47.37982" lon="3.93871">
        <ele>287.57</ele>
        <time>2021-08-11T16:27:11Z</time>
      </trkpt>
      <trkpt lat="47.37976" lon="3.93865">
        <ele>288.05</ele>
        <time>2021-08-11T16:27:12Z</time>
      </trkpt>
      <trkpt lat="47.37936" lon="3.93815">
        <ele>287.57</ele>
        <time>2021-08-11T16:27:20Z</time>
      </trkpt>
      <trkpt lat="47.3793" lon="3.93806">
        <ele>288.53</ele>
        <time>2021-08-11T16:27:22Z</time>
      </trkpt>
      <trkpt lat="47.37924" lon="3.93796">
        <ele>288.53</ele>
        <time>2021-08-11T16:27:24Z</time>
      </trkpt>
      <trkpt lat="47.37905" lon="3.93771">
        <ele>289.97</ele>
        <time>2021-08-11T16:27:31Z</time>
      </trkpt>
      <trkpt lat="47.37902" lon="3.93765">
        <ele>290.46</ele>
        <time>2021-08-11T16:27:37Z</time>
      </trkpt>
      <trkpt lat="47.37903" lon="3.93764">
        <ele>289.97</ele>
        <time>2021-08-11T16:27:55Z</time>
      </trkpt>
      <trkpt lat="47.37902" lon="3.93763">
        <ele>289.97</ele>
        <time>2021-08-11T16:28:12Z</time>
      </trkpt>
      <trkpt lat="47.37905" lon="3.93762">
        <ele>289.97</ele>
        <time>2021-08-11T16:28:33Z</time>
      </trkpt>
      <trkpt lat="47.37906" lon="3.93763">
        <ele>289.97</ele>
        <time>2021-08-11T16:28:48Z</time>
      </trkpt>
      <trkpt lat="47.37906" lon="3.93762">
        <ele>289.97</ele>
        <time>2021-08-11T16:29:03Z</time>
      </trkpt>
      <trkpt lat="47.37902" lon="3.93759">
        <ele>290.46</ele>
        <time>2021-08-11T16:29:09Z</time>
      </trkpt>
      <trkpt lat="47.37901" lon="3.93758">
        <ele>290.46</ele>
        <time>2021-08-11T16:29:10Z</time>
      </trkpt>
      <trkpt lat="47.379" lon="3.93757">
        <ele>290.46</ele>
        <time>2021-08-11T16:29:11Z</time>
      </trkpt>
      <trkpt lat="47.37898" lon="3.93756">
        <ele>290.94</ele>
        <time>2021-08-11T16:29:12Z</time>
      </trkpt>
      <trkpt lat="47.37897" lon="3.93754">
        <ele>290.94</ele>
        <time>2021-08-11T16:29:13Z</time>
      </trkpt>
      <trkpt lat="47.37897" lon="3.93752">
        <ele>290.94</ele>
        <time>2021-08-11T16:29:14Z</time>
      </trkpt>
      <trkpt lat="47.37896" lon="3.93751">
        <ele>290.94</ele>
        <time>2021-08-11T16:29:15Z</time>
      </trkpt>
      <trkpt lat="47.37894" lon="3.93749">
        <ele>291.42</ele>
        <time>2021-08-11T16:29:16Z</time>
      </trkpt>
      <trkpt lat="47.37893" lon="3.93747">
        <ele>291.42</ele>
        <time>2021-08-11T16:29:17Z</time>
      </trkpt>
      <trkpt lat="47.37892" lon="3.93746">
        <ele>291.9</ele>
        <time>2021-08-11T16:29:18Z</time>
      </trkpt>
      <trkpt lat="47.37887" lon="3.93737">
        <ele>293.34</ele>
        <time>2021-08-11T16:29:25Z</time>
      </trkpt>
      <trkpt lat="47.37878" lon="3.93724">
        <ele>294.78</ele>
        <time>2021-08-11T16:29:33Z</time>
      </trkpt>
      <trkpt lat="47.37866" lon="3.93714">
        <ele>294.78</ele>
        <time>2021-08-11T16:29:40Z</time>
      </trkpt>
      <trkpt lat="47.37854" lon="3.93704">
        <ele>296.22</ele>
        <time>2021-08-11T16:29:46Z</time>
      </trkpt>
      <trkpt lat="47.37841" lon="3.93695">
        <ele>296.7</ele>
        <time>2021-08-11T16:29:53Z</time>
      </trkpt>
      <trkpt lat="47.37827" lon="3.93685">
        <ele>298.63</ele>
        <time>2021-08-11T16:30:01Z</time>
      </trkpt>
      <trkpt lat="47.37812" lon="3.93673">
        <ele>299.11</ele>
        <time>2021-08-11T16:30:10Z</time>
      </trkpt>
      <trkpt lat="47.37805" lon="3.93668">
        <ele>300.07</ele>
        <time>2021-08-11T16:30:15Z</time>
      </trkpt>
      <trkpt lat="47.37803" lon="3.93666">
        <ele>300.07</ele>
        <time>2021-08-11T16:30:16Z</time>
      </trkpt>
      <trkpt lat="47.37801" lon="3.93665">
        <ele>300.07</ele>
        <time>2021-08-11T16:30:17Z</time>
      </trkpt>
      <trkpt lat="47.37799" lon="3.93664">
        <ele>300.07</ele>
        <time>2021-08-11T16:30:18Z</time>
      </trkpt>
      <trkpt lat="47.37798" lon="3.93663">
        <ele>300.07</ele>
        <time>2021-08-11T16:30:19Z</time>
      </trkpt>
      <trkpt lat="47.37787" lon="3.93655">
        <ele>300.55</ele>
        <time>2021-08-11T16:30:27Z</time>
      </trkpt>
      <trkpt lat="47.37786" lon="3.93653">
        <ele>301.51</ele>
        <time>2021-08-11T16:30:34Z</time>
      </trkpt>
      <trkpt lat="47.37785" lon="3.93653">
        <ele>300.07</ele>
        <time>2021-08-11T16:30:36Z</time>
      </trkpt>
      <trkpt lat="47.37786" lon="3.93653">
        <ele>300.07</ele>
        <time>2021-08-11T16:30:51Z</time>
      </trkpt>
      <trkpt lat="47.37785" lon="3.93652">
        <ele>300.07</ele>
        <time>2021-08-11T16:30:57Z</time>
      </trkpt>
      <trkpt lat="47.37776" lon="3.93645">
        <ele>301.99</ele>
        <time>2021-08-11T16:31:04Z</time>
      </trkpt>
      <trkpt lat="47.37764" lon="3.93636">
        <ele>302.47</ele>
        <time>2021-08-11T16:31:12Z</time>
      </trkpt>
      <trkpt lat="47.37753" lon="3.93629">
        <ele>302.95</ele>
        <time>2021-08-11T16:31:21Z</time>
      </trkpt>
      <trkpt lat="47.37741" lon="3.93623">
        <ele>304.39</ele>
        <time>2021-08-11T16:31:29Z</time>
      </trkpt>
      <trkpt lat="47.37723" lon="3.93614">
        <ele>305.84</ele>
        <time>2021-08-11T16:31:39Z</time>
      </trkpt>
      <trkpt lat="47.37709" lon="3.93606">
        <ele>306.32</ele>
        <time>2021-08-11T16:31:48Z</time>
      </trkpt>
      <trkpt lat="47.37695" lon="3.93599">
        <ele>306.8</ele>
        <time>2021-08-11T16:31:56Z</time>
      </trkpt>
      <trkpt lat="47.37675" lon="3.93591">
        <ele>309.2</ele>
        <time>2021-08-11T16:32:08Z</time>
      </trkpt>
      <trkpt lat="47.37665" lon="3.93588">
        <ele>309.68</ele>
        <time>2021-08-11T16:32:14Z</time>
      </trkpt>
      <trkpt lat="47.37652" lon="3.93587">
        <ele>310.64</ele>
        <time>2021-08-11T16:32:21Z</time>
      </trkpt>
      <trkpt lat="47.37633" lon="3.93587">
        <ele>311.6</ele>
        <time>2021-08-11T16:32:32Z</time>
      </trkpt>
      <trkpt lat="47.3761" lon="3.93587">
        <ele>313.05</ele>
        <time>2021-08-11T16:32:44Z</time>
      </trkpt>
      <trkpt lat="47.37597" lon="3.93587">
        <ele>314.01</ele>
        <time>2021-08-11T16:32:51Z</time>
      </trkpt>
      <trkpt lat="47.37585" lon="3.93587">
        <ele>314.97</ele>
        <time>2021-08-11T16:32:58Z</time>
      </trkpt>
      <trkpt lat="47.37566" lon="3.93584">
        <ele>315.93</ele>
        <time>2021-08-11T16:33:09Z</time>
      </trkpt>
      <trkpt lat="47.37556" lon="3.93585">
        <ele>317.37</ele>
        <time>2021-08-11T16:33:15Z</time>
      </trkpt>
      <trkpt lat="47.37541" lon="3.93585">
        <ele>318.33</ele>
        <time>2021-08-11T16:33:23Z</time>
      </trkpt>
      <trkpt lat="47.37524" lon="3.93586">
        <ele>319.78</ele>
        <time>2021-08-11T16:33:33Z</time>
      </trkpt>
      <trkpt lat="47.37506" lon="3.93591">
        <ele>320.26</ele>
        <time>2021-08-11T16:33:42Z</time>
      </trkpt>
      <trkpt lat="47.37491" lon="3.93593">
        <ele>321.22</ele>
        <time>2021-08-11T16:33:50Z</time>
      </trkpt>
      <trkpt lat="47.37475" lon="3.93597">
        <ele>322.18</ele>
        <time>2021-08-11T16:33:58Z</time>
      </trkpt>
      <trkpt lat="47.37456" lon="3.93606">
        <ele>323.62</ele>
        <time>2021-08-11T16:34:09Z</time>
      </trkpt>
      <trkpt lat="47.37439" lon="3.93619">
        <ele>324.58</ele>
        <time>2021-08-11T16:34:18Z</time>
      </trkpt>
      <trkpt lat="47.37424" lon="3.93627">
        <ele>325.54</ele>
        <time>2021-08-11T16:34:26Z</time>
      </trkpt>
      <trkpt lat="47.37414" lon="3.93633">
        <ele>326.99</ele>
        <time>2021-08-11T16:34:32Z</time>
      </trkpt>
      <trkpt lat="47.37412" lon="3.93634">
        <ele>326.99</ele>
        <time>2021-08-11T16:34:33Z</time>
      </trkpt>
      <trkpt lat="47.3741" lon="3.93636">
        <ele>327.47</ele>
        <time>2021-08-11T16:34:34Z</time>
      </trkpt>
      <trkpt lat="47.37409" lon="3.93638">
        <ele>327.47</ele>
        <time>2021-08-11T16:34:35Z</time>
      </trkpt>
      <trkpt lat="47.37407" lon="3.9364">
        <ele>327.47</ele>
        <time>2021-08-11T16:34:36Z</time>
      </trkpt>
      <trkpt lat="47.37406" lon="3.93642">
        <ele>327.47</ele>
        <time>2021-08-11T16:34:37Z</time>
      </trkpt>
      <trkpt lat="47.37404" lon="3.93645">
        <ele>327.95</ele>
        <time>2021-08-11T16:34:38Z</time>
      </trkpt>
      <trkpt lat="47.37404" lon="3.93648">
        <ele>327.95</ele>
        <time>2021-08-11T16:34:39Z</time>
      </trkpt>
      <trkpt lat="47.37403" lon="3.93651">
        <ele>328.43</ele>
        <time>2021-08-11T16:34:40Z</time>
      </trkpt>
      <trkpt lat="47.37403" lon="3.93653">
        <ele>328.43</ele>
        <time>2021-08-11T16:34:41Z</time>
      </trkpt>
      <trkpt lat="47.37403" lon="3.93656">
        <ele>328.91</ele>
        <time>2021-08-11T16:34:42Z</time>
      </trkpt>
      <trkpt lat="47.37404" lon="3.93658">
        <ele>328.91</ele>
        <time>2021-08-11T16:34:43Z</time>
      </trkpt>
      <trkpt lat="47.37405" lon="3.93662">
        <ele>328.91</ele>
        <time>2021-08-11T16:34:44Z</time>
      </trkpt>
      <trkpt lat="47.37407" lon="3.93665">
        <ele>329.39</ele>
        <time>2021-08-11T16:34:45Z</time>
      </trkpt>
      <trkpt lat="47.37409" lon="3.93667">
        <ele>329.39</ele>
        <time>2021-08-11T16:34:46Z</time>
      </trkpt>
      <trkpt lat="47.37411" lon="3.93668">
        <ele>329.39</ele>
        <time>2021-08-11T16:34:47Z</time>
      </trkpt>
      <trkpt lat="47.37413" lon="3.93668">
        <ele>329.39</ele>
        <time>2021-08-11T16:34:48Z</time>
      </trkpt>
      <trkpt lat="47.37415" lon="3.93668">
        <ele>329.39</ele>
        <time>2021-08-11T16:34:49Z</time>
      </trkpt>
      <trkpt lat="47.37417" lon="3.93668">
        <ele>329.87</ele>
        <time>2021-08-11T16:34:50Z</time>
      </trkpt>
      <trkpt lat="47.37419" lon="3.93668">
        <ele>329.87</ele>
        <time>2021-08-11T16:34:51Z</time>
      </trkpt>
      <trkpt lat="47.37421" lon="3.93667">
        <ele>330.83</ele>
        <time>2021-08-11T16:34:52Z</time>
      </trkpt>
      <trkpt lat="47.37423" lon="3.93665">
        <ele>330.83</ele>
        <time>2021-08-11T16:34:53Z</time>
      </trkpt>
      <trkpt lat="47.37425" lon="3.93663">
        <ele>330.83</ele>
        <time>2021-08-11T16:34:54Z</time>
      </trkpt>
      <trkpt lat="47.37427" lon="3.93662">
        <ele>330.83</ele>
        <time>2021-08-11T16:34:55Z</time>
      </trkpt>
      <trkpt lat="47.37428" lon="3.93659">
        <ele>330.83</ele>
        <time>2021-08-11T16:34:56Z</time>
      </trkpt>
      <trkpt lat="47.3743" lon="3.93657">
        <ele>330.83</ele>
        <time>2021-08-11T16:34:57Z</time>
      </trkpt>
      <trkpt lat="47.37444" lon="3.93646">
        <ele>329.87</ele>
        <time>2021-08-11T16:35:04Z</time>
      </trkpt>
      <trkpt lat="47.37461" lon="3.93643">
        <ele>331.31</ele>
        <time>2021-08-11T16:35:11Z</time>
      </trkpt>
      <trkpt lat="47.37481" lon="3.93648">
        <ele>333.23</ele>
        <time>2021-08-11T16:35:21Z</time>
      </trkpt>
      <trkpt lat="47.37495" lon="3.93655">
        <ele>334.2</ele>
        <time>2021-08-11T16:35:29Z</time>
      </trkpt>
      <trkpt lat="47.3751" lon="3.93674">
        <ele>335.16</ele>
        <time>2021-08-11T16:35:38Z</time>
      </trkpt>
      <trkpt lat="47.37516" lon="3.93696">
        <ele>337.08</ele>
        <time>2021-08-11T16:35:46Z</time>
      </trkpt>
      <trkpt lat="47.37519" lon="3.93713">
        <ele>337.56</ele>
        <time>2021-08-11T16:35:52Z</time>
      </trkpt>
      <trkpt lat="47.37521" lon="3.9374">
        <ele>339</ele>
        <time>2021-08-11T16:36:01Z</time>
      </trkpt>
      <trkpt lat="47.37523" lon="3.93765">
        <ele>339.48</ele>
        <time>2021-08-11T16:36:09Z</time>
      </trkpt>
      <trkpt lat="47.37526" lon="3.93794">
        <ele>341.89</ele>
        <time>2021-08-11T16:36:19Z</time>
      </trkpt>
      <trkpt lat="47.37528" lon="3.93819">
        <ele>342.85</ele>
        <time>2021-08-11T16:36:28Z</time>
      </trkpt>
      <trkpt lat="47.3753" lon="3.93844">
        <ele>345.25</ele>
        <time>2021-08-11T16:36:36Z</time>
      </trkpt>
      <trkpt lat="47.37532" lon="3.93877">
        <ele>346.21</ele>
        <time>2021-08-11T16:36:47Z</time>
      </trkpt>
      <trkpt lat="47.37532" lon="3.93905">
        <ele>346.21</ele>
        <time>2021-08-11T16:36:56Z</time>
      </trkpt>
      <trkpt lat="47.37531" lon="3.9392">
        <ele>348.62</ele>
        <time>2021-08-11T16:37:01Z</time>
      </trkpt>
      <trkpt lat="47.3753" lon="3.93939">
        <ele>349.1</ele>
        <time>2021-08-11T16:37:08Z</time>
      </trkpt>
      <trkpt lat="47.37528" lon="3.93956">
        <ele>350.54</ele>
        <time>2021-08-11T16:37:13Z</time>
      </trkpt>
      <trkpt lat="47.37524" lon="3.93991">
        <ele>351.98</ele>
        <time>2021-08-11T16:37:24Z</time>
      </trkpt>
      <trkpt lat="47.37524" lon="3.93995">
        <ele>351.98</ele>
        <time>2021-08-11T16:37:25Z</time>
      </trkpt>
      <trkpt lat="47.37518" lon="3.94026">
        <ele>352.94</ele>
        <time>2021-08-11T16:37:35Z</time>
      </trkpt>
      <trkpt lat="47.3751" lon="3.94049">
        <ele>354.38</ele>
        <time>2021-08-11T16:37:43Z</time>
      </trkpt>
      <trkpt lat="47.37493" lon="3.94079">
        <ele>356.31</ele>
        <time>2021-08-11T16:37:55Z</time>
      </trkpt>
      <trkpt lat="47.37474" lon="3.94098">
        <ele>357.27</ele>
        <time>2021-08-11T16:38:06Z</time>
      </trkpt>
      <trkpt lat="47.37454" lon="3.94114">
        <ele>358.23</ele>
        <time>2021-08-11T16:38:17Z</time>
      </trkpt>
      <trkpt lat="47.37435" lon="3.94126">
        <ele>359.67</ele>
        <time>2021-08-11T16:38:26Z</time>
      </trkpt>
      <trkpt lat="47.37415" lon="3.94137">
        <ele>360.15</ele>
        <time>2021-08-11T16:38:36Z</time>
      </trkpt>
      <trkpt lat="47.3739" lon="3.94143">
        <ele>362.07</ele>
        <time>2021-08-11T16:38:47Z</time>
      </trkpt>
      <trkpt lat="47.37373" lon="3.94133">
        <ele>364</ele>
        <time>2021-08-11T16:38:55Z</time>
      </trkpt>
      <trkpt lat="47.37363" lon="3.94111">
        <ele>365.44</ele>
        <time>2021-08-11T16:39:02Z</time>
      </trkpt>
      <trkpt lat="47.37358" lon="3.9408">
        <ele>366.88</ele>
        <time>2021-08-11T16:39:11Z</time>
      </trkpt>
      <trkpt lat="47.37351" lon="3.94054">
        <ele>368.8</ele>
        <time>2021-08-11T16:39:19Z</time>
      </trkpt>
      <trkpt lat="47.37342" lon="3.9403">
        <ele>369.28</ele>
        <time>2021-08-11T16:39:27Z</time>
      </trkpt>
      <trkpt lat="47.37323" lon="3.94004">
        <ele>371.21</ele>
        <time>2021-08-11T16:39:38Z</time>
      </trkpt>
      <trkpt lat="47.37305" lon="3.93985">
        <ele>371.69</ele>
        <time>2021-08-11T16:39:46Z</time>
      </trkpt>
      <trkpt lat="47.3728" lon="3.9397">
        <ele>373.13</ele>
        <time>2021-08-11T16:39:55Z</time>
      </trkpt>
      <trkpt lat="47.37259" lon="3.93968">
        <ele>373.13</ele>
        <time>2021-08-11T16:40:03Z</time>
      </trkpt>
      <trkpt lat="47.37236" lon="3.93969">
        <ele>375.53</ele>
        <time>2021-08-11T16:40:13Z</time>
      </trkpt>
      <trkpt lat="47.3722" lon="3.93972">
        <ele>376.49</ele>
        <time>2021-08-11T16:40:20Z</time>
      </trkpt>
      <trkpt lat="47.37203" lon="3.93976">
        <ele>377.94</ele>
        <time>2021-08-11T16:40:28Z</time>
      </trkpt>
      <trkpt lat="47.37183" lon="3.93978">
        <ele>378.9</ele>
        <time>2021-08-11T16:40:38Z</time>
      </trkpt>
      <trkpt lat="47.37159" lon="3.93982">
        <ele>379.86</ele>
        <time>2021-08-11T16:40:47Z</time>
      </trkpt>
      <trkpt lat="47.37135" lon="3.93986">
        <ele>380.82</ele>
        <time>2021-08-11T16:40:57Z</time>
      </trkpt>
      <trkpt lat="47.3711" lon="3.9399">
        <ele>382.74</ele>
        <time>2021-08-11T16:41:08Z</time>
      </trkpt>
      <trkpt lat="47.3709" lon="3.93993">
        <ele>384.66</ele>
        <time>2021-08-11T16:41:17Z</time>
      </trkpt>
      <trkpt lat="47.37069" lon="3.93996">
        <ele>385.63</ele>
        <time>2021-08-11T16:41:26Z</time>
      </trkpt>
      <trkpt lat="47.37046" lon="3.94001">
        <ele>387.07</ele>
        <time>2021-08-11T16:41:36Z</time>
      </trkpt>
      <trkpt lat="47.3704" lon="3.94002">
        <ele>388.51</ele>
        <time>2021-08-11T16:41:39Z</time>
      </trkpt>
      <trkpt lat="47.3702" lon="3.94005">
        <ele>389.95</ele>
        <time>2021-08-11T16:41:49Z</time>
      </trkpt>
      <trkpt lat="47.37002" lon="3.94005">
        <ele>389.95</ele>
        <time>2021-08-11T16:41:57Z</time>
      </trkpt>
      <trkpt lat="47.36997" lon="3.94005">
        <ele>391.39</ele>
        <time>2021-08-11T16:41:59Z</time>
      </trkpt>
      <trkpt lat="47.36976" lon="3.94005">
        <ele>392.84</ele>
        <time>2021-08-11T16:42:08Z</time>
      </trkpt>
      <trkpt lat="47.36954" lon="3.94002">
        <ele>393.8</ele>
        <time>2021-08-11T16:42:17Z</time>
      </trkpt>
      <trkpt lat="47.36933" lon="3.93997">
        <ele>395.24</ele>
        <time>2021-08-11T16:42:26Z</time>
      </trkpt>
      <trkpt lat="47.36911" lon="3.9399">
        <ele>396.2</ele>
        <time>2021-08-11T16:42:36Z</time>
      </trkpt>
      <trkpt lat="47.36893" lon="3.93985">
        <ele>397.64</ele>
        <time>2021-08-11T16:42:44Z</time>
      </trkpt>
      <trkpt lat="47.36877" lon="3.9398">
        <ele>399.08</ele>
        <time>2021-08-11T16:42:52Z</time>
      </trkpt>
      <trkpt lat="47.36856" lon="3.93973">
        <ele>400.05</ele>
        <time>2021-08-11T16:43:01Z</time>
      </trkpt>
      <trkpt lat="47.36836" lon="3.93965">
        <ele>401.97</ele>
        <time>2021-08-11T16:43:10Z</time>
      </trkpt>
      <trkpt lat="47.36819" lon="3.93955">
        <ele>402.45</ele>
        <time>2021-08-11T16:43:18Z</time>
      </trkpt>
      <trkpt lat="47.36798" lon="3.93939">
        <ele>403.89</ele>
        <time>2021-08-11T16:43:28Z</time>
      </trkpt>
      <trkpt lat="47.36781" lon="3.93921">
        <ele>405.33</ele>
        <time>2021-08-11T16:43:37Z</time>
      </trkpt>
      <trkpt lat="47.36766" lon="3.93904">
        <ele>406.77</ele>
        <time>2021-08-11T16:43:46Z</time>
      </trkpt>
      <trkpt lat="47.36751" lon="3.93886">
        <ele>407.74</ele>
        <time>2021-08-11T16:43:54Z</time>
      </trkpt>
      <trkpt lat="47.36732" lon="3.9386">
        <ele>409.18</ele>
        <time>2021-08-11T16:44:05Z</time>
      </trkpt>
      <trkpt lat="47.36723" lon="3.93833">
        <ele>410.62</ele>
        <time>2021-08-11T16:44:14Z</time>
      </trkpt>
      <trkpt lat="47.36722" lon="3.9383">
        <ele>410.62</ele>
        <time>2021-08-11T16:44:15Z</time>
      </trkpt>
      <trkpt lat="47.36716" lon="3.93803">
        <ele>412.06</ele>
        <time>2021-08-11T16:44:24Z</time>
      </trkpt>
      <trkpt lat="47.36711" lon="3.93783">
        <ele>413.02</ele>
        <time>2021-08-11T16:44:31Z</time>
      </trkpt>
      <trkpt lat="47.36704" lon="3.93757">
        <ele>414.47</ele>
        <time>2021-08-11T16:44:40Z</time>
      </trkpt>
      <trkpt lat="47.36696" lon="3.93729">
        <ele>416.39</ele>
        <time>2021-08-11T16:44:50Z</time>
      </trkpt>
      <trkpt lat="47.36689" lon="3.9371">
        <ele>416.87</ele>
        <time>2021-08-11T16:44:57Z</time>
      </trkpt>
      <trkpt lat="47.36678" lon="3.93688">
        <ele>418.31</ele>
        <time>2021-08-11T16:45:06Z</time>
      </trkpt>
      <trkpt lat="47.36663" lon="3.93665">
        <ele>419.75</ele>
        <time>2021-08-11T16:45:16Z</time>
      </trkpt>
      <trkpt lat="47.36647" lon="3.93647">
        <ele>421.19</ele>
        <time>2021-08-11T16:45:25Z</time>
      </trkpt>
      <trkpt lat="47.36631" lon="3.93636">
        <ele>422.16</ele>
        <time>2021-08-11T16:45:33Z</time>
      </trkpt>
      <trkpt lat="47.36612" lon="3.93627">
        <ele>423.6</ele>
        <time>2021-08-11T16:45:42Z</time>
      </trkpt>
      <trkpt lat="47.36592" lon="3.93622">
        <ele>425.04</ele>
        <time>2021-08-11T16:45:51Z</time>
      </trkpt>
      <trkpt lat="47.36571" lon="3.93619">
        <ele>426</ele>
        <time>2021-08-11T16:46:00Z</time>
      </trkpt>
      <trkpt lat="47.36549" lon="3.93615">
        <ele>427.44</ele>
        <time>2021-08-11T16:46:10Z</time>
      </trkpt>
      <trkpt lat="47.36524" lon="3.93605">
        <ele>428.4</ele>
        <time>2021-08-11T16:46:20Z</time>
      </trkpt>
      <trkpt lat="47.36503" lon="3.93585">
        <ele>429.37</ele>
        <time>2021-08-11T16:46:30Z</time>
      </trkpt>
      <trkpt lat="47.36483" lon="3.93562">
        <ele>429.85</ele>
        <time>2021-08-11T16:46:40Z</time>
      </trkpt>
      <trkpt lat="47.36461" lon="3.93538">
        <ele>431.29</ele>
        <time>2021-08-11T16:46:51Z</time>
      </trkpt>
      <trkpt lat="47.36434" lon="3.93508">
        <ele>433.21</ele>
        <time>2021-08-11T16:47:05Z</time>
      </trkpt>
      <trkpt lat="47.36421" lon="3.93493">
        <ele>434.65</ele>
        <time>2021-08-11T16:47:13Z</time>
      </trkpt>
      <trkpt lat="47.36404" lon="3.93475">
        <ele>436.1</ele>
        <time>2021-08-11T16:47:23Z</time>
      </trkpt>
      <trkpt lat="47.36386" lon="3.93454">
        <ele>438.02</ele>
        <time>2021-08-11T16:47:34Z</time>
      </trkpt>
      <trkpt lat="47.36369" lon="3.93436">
        <ele>438.98</ele>
        <time>2021-08-11T16:47:44Z</time>
      </trkpt>
      <trkpt lat="47.36351" lon="3.93415">
        <ele>440.42</ele>
        <time>2021-08-11T16:47:54Z</time>
      </trkpt>
      <trkpt lat="47.36329" lon="3.93391">
        <ele>441.86</ele>
        <time>2021-08-11T16:48:06Z</time>
      </trkpt>
      <trkpt lat="47.3631" lon="3.9337">
        <ele>442.34</ele>
        <time>2021-08-11T16:48:15Z</time>
      </trkpt>
      <trkpt lat="47.36285" lon="3.93343">
        <ele>442.82</ele>
        <time>2021-08-11T16:48:26Z</time>
      </trkpt>
      <trkpt lat="47.36259" lon="3.9332">
        <ele>442.82</ele>
        <time>2021-08-11T16:48:35Z</time>
      </trkpt>
      <trkpt lat="47.36223" lon="3.93314">
        <ele>442.82</ele>
        <time>2021-08-11T16:48:44Z</time>
      </trkpt>
      <trkpt lat="47.36215" lon="3.93314">
        <ele>441.38</ele>
        <time>2021-08-11T16:48:46Z</time>
      </trkpt>
      <trkpt lat="47.36201" lon="3.93315">
        <ele>441.38</ele>
        <time>2021-08-11T16:48:49Z</time>
      </trkpt>
      <trkpt lat="47.36197" lon="3.93315">
        <ele>441.38</ele>
        <time>2021-08-11T16:48:50Z</time>
      </trkpt>
      <trkpt lat="47.3616" lon="3.93321">
        <ele>440.9</ele>
        <time>2021-08-11T16:48:58Z</time>
      </trkpt>
      <trkpt lat="47.36112" lon="3.93338">
        <ele>440.9</ele>
        <time>2021-08-11T16:49:08Z</time>
      </trkpt>
      <trkpt lat="47.36084" lon="3.93348">
        <ele>440.42</ele>
        <time>2021-08-11T16:49:14Z</time>
      </trkpt>
      <trkpt lat="47.3608" lon="3.9335">
        <ele>440.42</ele>
        <time>2021-08-11T16:49:15Z</time>
      </trkpt>
      <trkpt lat="47.36076" lon="3.93352">
        <ele>440.42</ele>
        <time>2021-08-11T16:49:16Z</time>
      </trkpt>
      <trkpt lat="47.36071" lon="3.93354">
        <ele>440.42</ele>
        <time>2021-08-11T16:49:17Z</time>
      </trkpt>
      <trkpt lat="47.36067" lon="3.93356">
        <ele>440.42</ele>
        <time>2021-08-11T16:49:18Z</time>
      </trkpt>
      <trkpt lat="47.36014" lon="3.93375">
        <ele>441.38</ele>
        <time>2021-08-11T16:49:30Z</time>
      </trkpt>
      <trkpt lat="47.35984" lon="3.93386">
        <ele>442.34</ele>
        <time>2021-08-11T16:49:37Z</time>
      </trkpt>
      <trkpt lat="47.3598" lon="3.93387">
        <ele>442.34</ele>
        <time>2021-08-11T16:49:38Z</time>
      </trkpt>
      <trkpt lat="47.35975" lon="3.93388">
        <ele>442.34</ele>
        <time>2021-08-11T16:49:39Z</time>
      </trkpt>
      <trkpt lat="47.35956" lon="3.93396">
        <ele>443.31</ele>
        <time>2021-08-11T16:49:44Z</time>
      </trkpt>
      <trkpt lat="47.35953" lon="3.93398">
        <ele>443.31</ele>
        <time>2021-08-11T16:49:45Z</time>
      </trkpt>
      <trkpt lat="47.35916" lon="3.93411">
        <ele>443.79</ele>
        <time>2021-08-11T16:49:55Z</time>
      </trkpt>
      <trkpt lat="47.35881" lon="3.93425">
        <ele>445.71</ele>
        <time>2021-08-11T16:50:06Z</time>
      </trkpt>
      <trkpt lat="47.35864" lon="3.93431">
        <ele>446.19</ele>
        <time>2021-08-11T16:50:12Z</time>
      </trkpt>
      <trkpt lat="47.35857" lon="3.93434">
        <ele>447.15</ele>
        <time>2021-08-11T16:50:14Z</time>
      </trkpt>
      <trkpt lat="47.35853" lon="3.93435">
        <ele>447.15</ele>
        <time>2021-08-11T16:50:15Z</time>
      </trkpt>
      <trkpt lat="47.35849" lon="3.93437">
        <ele>447.15</ele>
        <time>2021-08-11T16:50:16Z</time>
      </trkpt>
      <trkpt lat="47.35845" lon="3.93439">
        <ele>447.63</ele>
        <time>2021-08-11T16:50:17Z</time>
      </trkpt>
      <trkpt lat="47.35842" lon="3.9344">
        <ele>447.63</ele>
        <time>2021-08-11T16:50:18Z</time>
      </trkpt>
      <trkpt lat="47.35821" lon="3.93449">
        <ele>448.59</ele>
        <time>2021-08-11T16:50:25Z</time>
      </trkpt>
      <trkpt lat="47.35805" lon="3.93455">
        <ele>449.55</ele>
        <time>2021-08-11T16:50:32Z</time>
      </trkpt>
      <trkpt lat="47.35784" lon="3.93464">
        <ele>450.52</ele>
        <time>2021-08-11T16:50:40Z</time>
      </trkpt>
      <trkpt lat="47.35761" lon="3.93473">
        <ele>451</ele>
        <time>2021-08-11T16:50:49Z</time>
      </trkpt>
      <trkpt lat="47.35733" lon="3.93483">
        <ele>452.44</ele>
        <time>2021-08-11T16:51:00Z</time>
      </trkpt>
      <trkpt lat="47.35715" lon="3.93493">
        <ele>453.4</ele>
        <time>2021-08-11T16:51:07Z</time>
      </trkpt>
      <trkpt lat="47.35693" lon="3.93509">
        <ele>453.88</ele>
        <time>2021-08-11T16:51:15Z</time>
      </trkpt>
      <trkpt lat="47.35672" lon="3.93523">
        <ele>453.88</ele>
        <time>2021-08-11T16:51:22Z</time>
      </trkpt>
      <trkpt lat="47.35635" lon="3.93546">
        <ele>451.48</ele>
        <time>2021-08-11T16:51:31Z</time>
      </trkpt>
      <trkpt lat="47.35629" lon="3.9355">
        <ele>451.48</ele>
        <time>2021-08-11T16:51:32Z</time>
      </trkpt>
      <trkpt lat="47.35611" lon="3.93561">
        <ele>449.55</ele>
        <time>2021-08-11T16:51:35Z</time>
      </trkpt>
      <trkpt lat="47.35562" lon="3.9359">
        <ele>447.15</ele>
        <time>2021-08-11T16:51:42Z</time>
      </trkpt>
      <trkpt lat="47.35547" lon="3.93605">
        <ele>446.67</ele>
        <time>2021-08-11T16:51:46Z</time>
      </trkpt>
      <trkpt lat="47.35545" lon="3.93609">
        <ele>446.19</ele>
        <time>2021-08-11T16:51:47Z</time>
      </trkpt>
      <trkpt lat="47.35545" lon="3.93614">
        <ele>446.19</ele>
        <time>2021-08-11T16:51:48Z</time>
      </trkpt>
      <trkpt lat="47.35546" lon="3.93619">
        <ele>446.19</ele>
        <time>2021-08-11T16:51:49Z</time>
      </trkpt>
      <trkpt lat="47.35547" lon="3.93623">
        <ele>446.19</ele>
        <time>2021-08-11T16:51:50Z</time>
      </trkpt>
      <trkpt lat="47.35548" lon="3.93627">
        <ele>446.19</ele>
        <time>2021-08-11T16:51:51Z</time>
      </trkpt>
      <trkpt lat="47.35549" lon="3.93632">
        <ele>446.19</ele>
        <time>2021-08-11T16:51:52Z</time>
      </trkpt>
      <trkpt lat="47.3555" lon="3.93638">
        <ele>446.19</ele>
        <time>2021-08-11T16:51:53Z</time>
      </trkpt>
      <trkpt lat="47.3555" lon="3.93679">
        <ele>446.19</ele>
        <time>2021-08-11T16:52:00Z</time>
      </trkpt>
      <trkpt lat="47.35547" lon="3.93692">
        <ele>446.19</ele>
        <time>2021-08-11T16:52:02Z</time>
      </trkpt>
      <trkpt lat="47.35532" lon="3.93737">
        <ele>444.75</ele>
        <time>2021-08-11T16:52:08Z</time>
      </trkpt>
      <trkpt lat="47.35527" lon="3.93745">
        <ele>444.27</ele>
        <time>2021-08-11T16:52:09Z</time>
      </trkpt>
      <trkpt lat="47.3549" lon="3.93801">
        <ele>442.34</ele>
        <time>2021-08-11T16:52:16Z</time>
      </trkpt>
      <trkpt lat="47.35442" lon="3.93867">
        <ele>438.5</ele>
        <time>2021-08-11T16:52:24Z</time>
      </trkpt>
      <trkpt lat="47.35434" lon="3.93881">
        <ele>438.5</ele>
        <time>2021-08-11T16:52:26Z</time>
      </trkpt>
      <trkpt lat="47.35432" lon="3.93888">
        <ele>438.5</ele>
        <time>2021-08-11T16:52:27Z</time>
      </trkpt>
      <trkpt lat="47.35433" lon="3.93893">
        <ele>438.02</ele>
        <time>2021-08-11T16:52:28Z</time>
      </trkpt>
      <trkpt lat="47.35435" lon="3.93897">
        <ele>437.54</ele>
        <time>2021-08-11T16:52:29Z</time>
      </trkpt>
      <trkpt lat="47.35438" lon="3.939">
        <ele>437.06</ele>
        <time>2021-08-11T16:52:30Z</time>
      </trkpt>
      <trkpt lat="47.35442" lon="3.93905">
        <ele>436.1</ele>
        <time>2021-08-11T16:52:31Z</time>
      </trkpt>
      <trkpt lat="47.35445" lon="3.93912">
        <ele>435.13</ele>
        <time>2021-08-11T16:52:32Z</time>
      </trkpt>
      <trkpt lat="47.35447" lon="3.93918">
        <ele>434.17</ele>
        <time>2021-08-11T16:52:33Z</time>
      </trkpt>
      <trkpt lat="47.3545" lon="3.93924">
        <ele>433.69</ele>
        <time>2021-08-11T16:52:34Z</time>
      </trkpt>
      <trkpt lat="47.35452" lon="3.93931">
        <ele>433.21</ele>
        <time>2021-08-11T16:52:35Z</time>
      </trkpt>
      <trkpt lat="47.35455" lon="3.93938">
        <ele>432.73</ele>
        <time>2021-08-11T16:52:36Z</time>
      </trkpt>
      <trkpt lat="47.35457" lon="3.93946">
        <ele>432.73</ele>
        <time>2021-08-11T16:52:37Z</time>
      </trkpt>
      <trkpt lat="47.35459" lon="3.93955">
        <ele>431.29</ele>
        <time>2021-08-11T16:52:38Z</time>
      </trkpt>
      <trkpt lat="47.35469" lon="3.93991">
        <ele>430.81</ele>
        <time>2021-08-11T16:52:42Z</time>
      </trkpt>
      <trkpt lat="47.35472" lon="3.93998">
        <ele>430.33</ele>
        <time>2021-08-11T16:52:43Z</time>
      </trkpt>
      <trkpt lat="47.35476" lon="3.94003">
        <ele>430.33</ele>
        <time>2021-08-11T16:52:44Z</time>
      </trkpt>
      <trkpt lat="47.3548" lon="3.94007">
        <ele>430.33</ele>
        <time>2021-08-11T16:52:45Z</time>
      </trkpt>
      <trkpt lat="47.35484" lon="3.9401">
        <ele>430.33</ele>
        <time>2021-08-11T16:52:46Z</time>
      </trkpt>
      <trkpt lat="47.35488" lon="3.94013">
        <ele>430.33</ele>
        <time>2021-08-11T16:52:47Z</time>
      </trkpt>
      <trkpt lat="47.35493" lon="3.94015">
        <ele>430.33</ele>
        <time>2021-08-11T16:52:48Z</time>
      </trkpt>
      <trkpt lat="47.35507" lon="3.94019">
        <ele>430.81</ele>
        <time>2021-08-11T16:52:51Z</time>
      </trkpt>
      <trkpt lat="47.35511" lon="3.94024">
        <ele>430.81</ele>
        <time>2021-08-11T16:52:52Z</time>
      </trkpt>
      <trkpt lat="47.35514" lon="3.9403">
        <ele>430.81</ele>
        <time>2021-08-11T16:52:53Z</time>
      </trkpt>
      <trkpt lat="47.35514" lon="3.94037">
        <ele>430.81</ele>
        <time>2021-08-11T16:52:54Z</time>
      </trkpt>
      <trkpt lat="47.35514" lon="3.94045">
        <ele>430.81</ele>
        <time>2021-08-11T16:52:55Z</time>
      </trkpt>
      <trkpt lat="47.35514" lon="3.94053">
        <ele>430.81</ele>
        <time>2021-08-11T16:52:56Z</time>
      </trkpt>
      <trkpt lat="47.35511" lon="3.941">
        <ele>428.89</ele>
        <time>2021-08-11T16:53:01Z</time>
      </trkpt>
      <trkpt lat="47.35508" lon="3.9414">
        <ele>427.92</ele>
        <time>2021-08-11T16:53:05Z</time>
      </trkpt>
      <trkpt lat="47.35508" lon="3.94149">
        <ele>427.44</ele>
        <time>2021-08-11T16:53:06Z</time>
      </trkpt>
      <trkpt lat="47.35507" lon="3.9416">
        <ele>426</ele>
        <time>2021-08-11T16:53:07Z</time>
      </trkpt>
      <trkpt lat="47.35506" lon="3.94171">
        <ele>425.52</ele>
        <time>2021-08-11T16:53:08Z</time>
      </trkpt>
      <trkpt lat="47.35504" lon="3.94181">
        <ele>425.52</ele>
        <time>2021-08-11T16:53:09Z</time>
      </trkpt>
      <trkpt lat="47.35484" lon="3.9428">
        <ele>423.6</ele>
        <time>2021-08-11T16:53:19Z</time>
      </trkpt>
      <trkpt lat="47.35463" lon="3.94343">
        <ele>422.16</ele>
        <time>2021-08-11T16:53:26Z</time>
      </trkpt>
      <trkpt lat="47.3546" lon="3.94351">
        <ele>421.68</ele>
        <time>2021-08-11T16:53:27Z</time>
      </trkpt>
      <trkpt lat="47.35433" lon="3.9441">
        <ele>420.71</ele>
        <time>2021-08-11T16:53:34Z</time>
      </trkpt>
      <trkpt lat="47.35418" lon="3.94446">
        <ele>420.71</ele>
        <time>2021-08-11T16:53:39Z</time>
      </trkpt>
      <trkpt lat="47.35416" lon="3.94453">
        <ele>420.71</ele>
        <time>2021-08-11T16:53:40Z</time>
      </trkpt>
      <trkpt lat="47.35409" lon="3.94483">
        <ele>420.71</ele>
        <time>2021-08-11T16:53:44Z</time>
      </trkpt>
      <trkpt lat="47.354" lon="3.94531">
        <ele>421.68</ele>
        <time>2021-08-11T16:53:52Z</time>
      </trkpt>
      <trkpt lat="47.35393" lon="3.94565">
        <ele>422.64</ele>
        <time>2021-08-11T16:54:00Z</time>
      </trkpt>
      <trkpt lat="47.35387" lon="3.9461">
        <ele>424.08</ele>
        <time>2021-08-11T16:54:11Z</time>
      </trkpt>
      <trkpt lat="47.35387" lon="3.94635">
        <ele>424.56</ele>
        <time>2021-08-11T16:54:18Z</time>
      </trkpt>
      <trkpt lat="47.35387" lon="3.94646">
        <ele>423.12</ele>
        <time>2021-08-11T16:54:20Z</time>
      </trkpt>
      <trkpt lat="47.35388" lon="3.94653">
        <ele>423.12</ele>
        <time>2021-08-11T16:54:21Z</time>
      </trkpt>
      <trkpt lat="47.35388" lon="3.94665">
        <ele>422.64</ele>
        <time>2021-08-11T16:54:23Z</time>
      </trkpt>
      <trkpt lat="47.35388" lon="3.94678">
        <ele>420.71</ele>
        <time>2021-08-11T16:54:25Z</time>
      </trkpt>
      <trkpt lat="47.35387" lon="3.94684">
        <ele>422.16</ele>
        <time>2021-08-11T16:54:26Z</time>
      </trkpt>
      <trkpt lat="47.35386" lon="3.94691">
        <ele>420.71</ele>
        <time>2021-08-11T16:54:27Z</time>
      </trkpt>
      <trkpt lat="47.35385" lon="3.94699">
        <ele>420.23</ele>
        <time>2021-08-11T16:54:28Z</time>
      </trkpt>
      <trkpt lat="47.35384" lon="3.94705">
        <ele>419.75</ele>
        <time>2021-08-11T16:54:29Z</time>
      </trkpt>
      <trkpt lat="47.35383" lon="3.94711">
        <ele>419.75</ele>
        <time>2021-08-11T16:54:30Z</time>
      </trkpt>
      <trkpt lat="47.35381" lon="3.94724">
        <ele>419.27</ele>
        <time>2021-08-11T16:54:32Z</time>
      </trkpt>
      <trkpt lat="47.35378" lon="3.94737">
        <ele>417.83</ele>
        <time>2021-08-11T16:54:34Z</time>
      </trkpt>
      <trkpt lat="47.35368" lon="3.94762">
        <ele>414.95</ele>
        <time>2021-08-11T16:54:37Z</time>
      </trkpt>
      <trkpt lat="47.35361" lon="3.94777">
        <ele>413.5</ele>
        <time>2021-08-11T16:54:39Z</time>
      </trkpt>
      <trkpt lat="47.35358" lon="3.94786">
        <ele>413.5</ele>
        <time>2021-08-11T16:54:40Z</time>
      </trkpt>
      <trkpt lat="47.35355" lon="3.94797">
        <ele>412.06</ele>
        <time>2021-08-11T16:54:41Z</time>
      </trkpt>
      <trkpt lat="47.35354" lon="3.94809">
        <ele>411.1</ele>
        <time>2021-08-11T16:54:42Z</time>
      </trkpt>
      <trkpt lat="47.35352" lon="3.94859">
        <ele>407.74</ele>
        <time>2021-08-11T16:54:46Z</time>
      </trkpt>
      <trkpt lat="47.35353" lon="3.9487">
        <ele>407.74</ele>
        <time>2021-08-11T16:54:47Z</time>
      </trkpt>
      <trkpt lat="47.35355" lon="3.94889">
        <ele>406.77</ele>
        <time>2021-08-11T16:54:49Z</time>
      </trkpt>
      <trkpt lat="47.35357" lon="3.94897">
        <ele>406.29</ele>
        <time>2021-08-11T16:54:50Z</time>
      </trkpt>
      <trkpt lat="47.35358" lon="3.94904">
        <ele>406.29</ele>
        <time>2021-08-11T16:54:51Z</time>
      </trkpt>
      <trkpt lat="47.35356" lon="3.94909">
        <ele>405.81</ele>
        <time>2021-08-11T16:54:52Z</time>
      </trkpt>
      <trkpt lat="47.35354" lon="3.94914">
        <ele>404.37</ele>
        <time>2021-08-11T16:54:53Z</time>
      </trkpt>
      <trkpt lat="47.35353" lon="3.94918">
        <ele>403.41</ele>
        <time>2021-08-11T16:54:54Z</time>
      </trkpt>
      <trkpt lat="47.35352" lon="3.94922">
        <ele>403.41</ele>
        <time>2021-08-11T16:54:55Z</time>
      </trkpt>
      <trkpt lat="47.35351" lon="3.94925">
        <ele>402.45</ele>
        <time>2021-08-11T16:54:56Z</time>
      </trkpt>
      <trkpt lat="47.35346" lon="3.94939">
        <ele>400.53</ele>
        <time>2021-08-11T16:54:59Z</time>
      </trkpt>
      <trkpt lat="47.35344" lon="3.94945">
        <ele>401.01</ele>
        <time>2021-08-11T16:55:00Z</time>
      </trkpt>
      <trkpt lat="47.35338" lon="3.94962">
        <ele>398.6</ele>
        <time>2021-08-11T16:55:03Z</time>
      </trkpt>
      <trkpt lat="47.35332" lon="3.9498">
        <ele>396.68</ele>
        <time>2021-08-11T16:55:06Z</time>
      </trkpt>
      <trkpt lat="47.35329" lon="3.94988">
        <ele>395.24</ele>
        <time>2021-08-11T16:55:07Z</time>
      </trkpt>
      <trkpt lat="47.35326" lon="3.94995">
        <ele>394.28</ele>
        <time>2021-08-11T16:55:08Z</time>
      </trkpt>
      <trkpt lat="47.35324" lon="3.95002">
        <ele>393.32</ele>
        <time>2021-08-11T16:55:09Z</time>
      </trkpt>
      <trkpt lat="47.35322" lon="3.95008">
        <ele>393.8</ele>
        <time>2021-08-11T16:55:10Z</time>
      </trkpt>
      <trkpt lat="47.35317" lon="3.9502">
        <ele>391.87</ele>
        <time>2021-08-11T16:55:12Z</time>
      </trkpt>
      <trkpt lat="47.35315" lon="3.95027">
        <ele>391.39</ele>
        <time>2021-08-11T16:55:13Z</time>
      </trkpt>
      <trkpt lat="47.35314" lon="3.95033">
        <ele>390.91</ele>
        <time>2021-08-11T16:55:14Z</time>
      </trkpt>
      <trkpt lat="47.35313" lon="3.9504">
        <ele>390.43</ele>
        <time>2021-08-11T16:55:15Z</time>
      </trkpt>
      <trkpt lat="47.35311" lon="3.95047">
        <ele>389.47</ele>
        <time>2021-08-11T16:55:16Z</time>
      </trkpt>
      <trkpt lat="47.35307" lon="3.95069">
        <ele>388.03</ele>
        <time>2021-08-11T16:55:19Z</time>
      </trkpt>
      <trkpt lat="47.35305" lon="3.95083">
        <ele>386.11</ele>
        <time>2021-08-11T16:55:21Z</time>
      </trkpt>
      <trkpt lat="47.35302" lon="3.95101">
        <ele>384.18</ele>
        <time>2021-08-11T16:55:25Z</time>
      </trkpt>
      <trkpt lat="47.353" lon="3.95127">
        <ele>381.3</ele>
        <time>2021-08-11T16:55:30Z</time>
      </trkpt>
      <trkpt lat="47.35297" lon="3.95151">
        <ele>378.9</ele>
        <time>2021-08-11T16:55:34Z</time>
      </trkpt>
      <trkpt lat="47.35297" lon="3.95161">
        <ele>377.94</ele>
        <time>2021-08-11T16:55:36Z</time>
      </trkpt>
      <trkpt lat="47.35296" lon="3.9517">
        <ele>376.49</ele>
        <time>2021-08-11T16:55:39Z</time>
      </trkpt>
      <trkpt lat="47.35295" lon="3.95186">
        <ele>374.57</ele>
        <time>2021-08-11T16:55:43Z</time>
      </trkpt>
      <trkpt lat="47.35292" lon="3.9521">
        <ele>371.69</ele>
        <time>2021-08-11T16:55:49Z</time>
      </trkpt>
      <trkpt lat="47.35287" lon="3.95234">
        <ele>369.76</ele>
        <time>2021-08-11T16:55:53Z</time>
      </trkpt>
      <trkpt lat="47.35285" lon="3.9524">
        <ele>368.8</ele>
        <time>2021-08-11T16:55:54Z</time>
      </trkpt>
      <trkpt lat="47.35283" lon="3.95245">
        <ele>368.8</ele>
        <time>2021-08-11T16:55:55Z</time>
      </trkpt>
      <trkpt lat="47.35282" lon="3.9525">
        <ele>367.84</ele>
        <time>2021-08-11T16:55:56Z</time>
      </trkpt>
      <trkpt lat="47.35282" lon="3.95253">
        <ele>367.36</ele>
        <time>2021-08-11T16:55:57Z</time>
      </trkpt>
      <trkpt lat="47.35281" lon="3.95257">
        <ele>366.88</ele>
        <time>2021-08-11T16:55:58Z</time>
      </trkpt>
      <trkpt lat="47.35281" lon="3.9526">
        <ele>366.4</ele>
        <time>2021-08-11T16:55:59Z</time>
      </trkpt>
      <trkpt lat="47.3528" lon="3.95263">
        <ele>365.92</ele>
        <time>2021-08-11T16:56:00Z</time>
      </trkpt>
      <trkpt lat="47.3528" lon="3.95266">
        <ele>365.92</ele>
        <time>2021-08-11T16:56:01Z</time>
      </trkpt>
      <trkpt lat="47.35279" lon="3.9527">
        <ele>365.44</ele>
        <time>2021-08-11T16:56:02Z</time>
      </trkpt>
      <trkpt lat="47.35277" lon="3.95295">
        <ele>362.55</ele>
        <time>2021-08-11T16:56:07Z</time>
      </trkpt>
      <trkpt lat="47.35273" lon="3.95323">
        <ele>360.15</ele>
        <time>2021-08-11T16:56:14Z</time>
      </trkpt>
      <trkpt lat="47.35274" lon="3.95354">
        <ele>357.75</ele>
        <time>2021-08-11T16:56:20Z</time>
      </trkpt>
      <trkpt lat="47.35278" lon="3.95374">
        <ele>356.31</ele>
        <time>2021-08-11T16:56:25Z</time>
      </trkpt>
      <trkpt lat="47.35281" lon="3.95396">
        <ele>354.38</ele>
        <time>2021-08-11T16:56:30Z</time>
      </trkpt>
      <trkpt lat="47.35279" lon="3.9541">
        <ele>352.94</ele>
        <time>2021-08-11T16:56:34Z</time>
      </trkpt>
      <trkpt lat="47.35274" lon="3.95434">
        <ele>350.54</ele>
        <time>2021-08-11T16:56:38Z</time>
      </trkpt>
      <trkpt lat="47.35268" lon="3.95449">
        <ele>349.58</ele>
        <time>2021-08-11T16:56:40Z</time>
      </trkpt>
      <trkpt lat="47.35261" lon="3.95469">
        <ele>348.62</ele>
        <time>2021-08-11T16:56:43Z</time>
      </trkpt>
      <trkpt lat="47.3526" lon="3.95474">
        <ele>348.62</ele>
        <time>2021-08-11T16:56:44Z</time>
      </trkpt>
      <trkpt lat="47.35258" lon="3.95478">
        <ele>348.62</ele>
        <time>2021-08-11T16:56:45Z</time>
      </trkpt>
      <trkpt lat="47.35258" lon="3.95484">
        <ele>347.65</ele>
        <time>2021-08-11T16:56:46Z</time>
      </trkpt>
      <trkpt lat="47.35257" lon="3.95488">
        <ele>347.17</ele>
        <time>2021-08-11T16:56:47Z</time>
      </trkpt>
      <trkpt lat="47.35257" lon="3.95494">
        <ele>347.17</ele>
        <time>2021-08-11T16:56:48Z</time>
      </trkpt>
      <trkpt lat="47.35255" lon="3.955">
        <ele>346.69</ele>
        <time>2021-08-11T16:56:49Z</time>
      </trkpt>
      <trkpt lat="47.35252" lon="3.95506">
        <ele>345.73</ele>
        <time>2021-08-11T16:56:50Z</time>
      </trkpt>
      <trkpt lat="47.3525" lon="3.95512">
        <ele>345.25</ele>
        <time>2021-08-11T16:56:51Z</time>
      </trkpt>
      <trkpt lat="47.3525" lon="3.9552">
        <ele>344.29</ele>
        <time>2021-08-11T16:56:52Z</time>
      </trkpt>
      <trkpt lat="47.3525" lon="3.95529">
        <ele>343.81</ele>
        <time>2021-08-11T16:56:53Z</time>
      </trkpt>
      <trkpt lat="47.35252" lon="3.95537">
        <ele>342.85</ele>
        <time>2021-08-11T16:56:54Z</time>
      </trkpt>
      <trkpt lat="47.35254" lon="3.95544">
        <ele>342.37</ele>
        <time>2021-08-11T16:56:55Z</time>
      </trkpt>
      <trkpt lat="47.35254" lon="3.95551">
        <ele>342.37</ele>
        <time>2021-08-11T16:56:56Z</time>
      </trkpt>
      <trkpt lat="47.35252" lon="3.95558">
        <ele>341.89</ele>
        <time>2021-08-11T16:56:57Z</time>
      </trkpt>
      <trkpt lat="47.35251" lon="3.95564">
        <ele>340.92</ele>
        <time>2021-08-11T16:56:58Z</time>
      </trkpt>
      <trkpt lat="47.35249" lon="3.95569">
        <ele>340.44</ele>
        <time>2021-08-11T16:56:59Z</time>
      </trkpt>
      <trkpt lat="47.35247" lon="3.95574">
        <ele>339.96</ele>
        <time>2021-08-11T16:57:00Z</time>
      </trkpt>
      <trkpt lat="47.35245" lon="3.95578">
        <ele>339.48</ele>
        <time>2021-08-11T16:57:01Z</time>
      </trkpt>
      <trkpt lat="47.35242" lon="3.95583">
        <ele>338.52</ele>
        <time>2021-08-11T16:57:02Z</time>
      </trkpt>
      <trkpt lat="47.35239" lon="3.95586">
        <ele>338.52</ele>
        <time>2021-08-11T16:57:03Z</time>
      </trkpt>
      <trkpt lat="47.35235" lon="3.95589">
        <ele>338.04</ele>
        <time>2021-08-11T16:57:04Z</time>
      </trkpt>
      <trkpt lat="47.3523" lon="3.95591">
        <ele>337.56</ele>
        <time>2021-08-11T16:57:05Z</time>
      </trkpt>
      <trkpt lat="47.35225" lon="3.95593">
        <ele>337.56</ele>
        <time>2021-08-11T16:57:06Z</time>
      </trkpt>
      <trkpt lat="47.35219" lon="3.95594">
        <ele>337.56</ele>
        <time>2021-08-11T16:57:07Z</time>
      </trkpt>
      <trkpt lat="47.35214" lon="3.95593">
        <ele>337.08</ele>
        <time>2021-08-11T16:57:08Z</time>
      </trkpt>
      <trkpt lat="47.35187" lon="3.95578">
        <ele>336.12</ele>
        <time>2021-08-11T16:57:13Z</time>
      </trkpt>
      <trkpt lat="47.35182" lon="3.95577">
        <ele>336.12</ele>
        <time>2021-08-11T16:57:14Z</time>
      </trkpt>
      <trkpt lat="47.35177" lon="3.95579">
        <ele>336.12</ele>
        <time>2021-08-11T16:57:15Z</time>
      </trkpt>
      <trkpt lat="47.35174" lon="3.95582">
        <ele>336.12</ele>
        <time>2021-08-11T16:57:16Z</time>
      </trkpt>
      <trkpt lat="47.35172" lon="3.95584">
        <ele>336.12</ele>
        <time>2021-08-11T16:57:17Z</time>
      </trkpt>
      <trkpt lat="47.35171" lon="3.95587">
        <ele>336.12</ele>
        <time>2021-08-11T16:57:18Z</time>
      </trkpt>
      <trkpt lat="47.3517" lon="3.9559">
        <ele>336.12</ele>
        <time>2021-08-11T16:57:19Z</time>
      </trkpt>
      <trkpt lat="47.3517" lon="3.95592">
        <ele>336.12</ele>
        <time>2021-08-11T16:57:20Z</time>
      </trkpt>
      <trkpt lat="47.35164" lon="3.95615">
        <ele>336.12</ele>
        <time>2021-08-11T16:57:28Z</time>
      </trkpt>
      <trkpt lat="47.35154" lon="3.95638">
        <ele>336.12</ele>
        <time>2021-08-11T16:57:34Z</time>
      </trkpt>
      <trkpt lat="47.35141" lon="3.95668">
        <ele>336.12</ele>
        <time>2021-08-11T16:57:41Z</time>
      </trkpt>
      <trkpt lat="47.35139" lon="3.95695">
        <ele>336.12</ele>
        <time>2021-08-11T16:57:47Z</time>
      </trkpt>
      <trkpt lat="47.35143" lon="3.95741">
        <ele>334.2</ele>
        <time>2021-08-11T16:57:53Z</time>
      </trkpt>
      <trkpt lat="47.35147" lon="3.95767">
        <ele>332.27</ele>
        <time>2021-08-11T16:57:57Z</time>
      </trkpt>
      <trkpt lat="47.3515" lon="3.95774">
        <ele>332.27</ele>
        <time>2021-08-11T16:57:58Z</time>
      </trkpt>
      <trkpt lat="47.3516" lon="3.95795">
        <ele>331.31</ele>
        <time>2021-08-11T16:58:02Z</time>
      </trkpt>
      <trkpt lat="47.35163" lon="3.95799">
        <ele>331.31</ele>
        <time>2021-08-11T16:58:03Z</time>
      </trkpt>
      <trkpt lat="47.35166" lon="3.95803">
        <ele>331.31</ele>
        <time>2021-08-11T16:58:04Z</time>
      </trkpt>
      <trkpt lat="47.35167" lon="3.95806">
        <ele>331.31</ele>
        <time>2021-08-11T16:58:05Z</time>
      </trkpt>
      <trkpt lat="47.35168" lon="3.95806">
        <ele>331.31</ele>
        <time>2021-08-11T16:58:10Z</time>
      </trkpt>
      <trkpt lat="47.35168" lon="3.95807">
        <ele>330.83</ele>
        <time>2021-08-11T16:58:31Z</time>
      </trkpt>
      <trkpt lat="47.35167" lon="3.95806">
        <ele>330.83</ele>
        <time>2021-08-11T16:58:47Z</time>
      </trkpt>
      <trkpt lat="47.35167" lon="3.95806">
        <ele>330.83</ele>
        <time>2021-08-11T16:59:00Z</time>
      </trkpt>
      <trkpt lat="47.35167" lon="3.95806">
        <ele>330.83</ele>
        <time>2021-08-11T16:59:12Z</time>
      </trkpt>
      <trkpt lat="47.35169" lon="3.95812">
        <ele>330.83</ele>
        <time>2021-08-11T16:59:18Z</time>
      </trkpt>
      <trkpt lat="47.3518" lon="3.95839">
        <ele>329.87</ele>
        <time>2021-08-11T16:59:25Z</time>
      </trkpt>
      <trkpt lat="47.35182" lon="3.95844">
        <ele>329.39</ele>
        <time>2021-08-11T16:59:26Z</time>
      </trkpt>
      <trkpt lat="47.35185" lon="3.95849">
        <ele>329.39</ele>
        <time>2021-08-11T16:59:27Z</time>
      </trkpt>
      <trkpt lat="47.35188" lon="3.95854">
        <ele>329.39</ele>
        <time>2021-08-11T16:59:28Z</time>
      </trkpt>
      <trkpt lat="47.35194" lon="3.95866">
        <ele>328.91</ele>
        <time>2021-08-11T16:59:30Z</time>
      </trkpt>
      <trkpt lat="47.35214" lon="3.95906">
        <ele>327.47</ele>
        <time>2021-08-11T16:59:36Z</time>
      </trkpt>
      <trkpt lat="47.3523" lon="3.95962">
        <ele>326.5</ele>
        <time>2021-08-11T16:59:43Z</time>
      </trkpt>
      <trkpt lat="47.35233" lon="3.95979">
        <ele>326.5</ele>
        <time>2021-08-11T16:59:45Z</time>
      </trkpt>
      <trkpt lat="47.35235" lon="3.95986">
        <ele>326.02</ele>
        <time>2021-08-11T16:59:46Z</time>
      </trkpt>
      <trkpt lat="47.35238" lon="3.95994">
        <ele>326.02</ele>
        <time>2021-08-11T16:59:47Z</time>
      </trkpt>
      <trkpt lat="47.35253" lon="3.96018">
        <ele>324.58</ele>
        <time>2021-08-11T16:59:51Z</time>
      </trkpt>
      <trkpt lat="47.35257" lon="3.96022">
        <ele>324.58</ele>
        <time>2021-08-11T16:59:52Z</time>
      </trkpt>
      <trkpt lat="47.3526" lon="3.96023">
        <ele>324.58</ele>
        <time>2021-08-11T16:59:53Z</time>
      </trkpt>
      <trkpt lat="47.35264" lon="3.96022">
        <ele>324.58</ele>
        <time>2021-08-11T16:59:54Z</time>
      </trkpt>
      <trkpt lat="47.35268" lon="3.9602">
        <ele>324.58</ele>
        <time>2021-08-11T16:59:55Z</time>
      </trkpt>
      <trkpt lat="47.35271" lon="3.96017">
        <ele>324.58</ele>
        <time>2021-08-11T16:59:56Z</time>
      </trkpt>
      <trkpt lat="47.35274" lon="3.96013">
        <ele>324.1</ele>
        <time>2021-08-11T16:59:57Z</time>
      </trkpt>
      <trkpt lat="47.35289" lon="3.96002">
        <ele>323.62</ele>
        <time>2021-08-11T17:00:01Z</time>
      </trkpt>
      <trkpt lat="47.35293" lon="3.95999">
        <ele>323.62</ele>
        <time>2021-08-11T17:00:02Z</time>
      </trkpt>
      <trkpt lat="47.35309" lon="3.95989">
        <ele>321.22</ele>
        <time>2021-08-11T17:00:05Z</time>
      </trkpt>
      <trkpt lat="47.35315" lon="3.95984">
        <ele>320.26</ele>
        <time>2021-08-11T17:00:06Z</time>
      </trkpt>
      <trkpt lat="47.35321" lon="3.95977">
        <ele>319.78</ele>
        <time>2021-08-11T17:00:07Z</time>
      </trkpt>
      <trkpt lat="47.35351" lon="3.95944">
        <ele>318.33</ele>
        <time>2021-08-11T17:00:12Z</time>
      </trkpt>
      <trkpt lat="47.35377" lon="3.95917">
        <ele>317.85</ele>
        <time>2021-08-11T17:00:17Z</time>
      </trkpt>
      <trkpt lat="47.35393" lon="3.95898">
        <ele>317.85</ele>
        <time>2021-08-11T17:00:21Z</time>
      </trkpt>
      <trkpt lat="47.35397" lon="3.95897">
        <ele>319.3</ele>
        <time>2021-08-11T17:00:22Z</time>
      </trkpt>
      <trkpt lat="47.354" lon="3.95896">
        <ele>319.3</ele>
        <time>2021-08-11T17:00:23Z</time>
      </trkpt>
      <trkpt lat="47.35404" lon="3.95896">
        <ele>319.3</ele>
        <time>2021-08-11T17:00:24Z</time>
      </trkpt>
      <trkpt lat="47.35407" lon="3.95896">
        <ele>319.3</ele>
        <time>2021-08-11T17:00:25Z</time>
      </trkpt>
      <trkpt lat="47.3541" lon="3.95896">
        <ele>319.3</ele>
        <time>2021-08-11T17:00:26Z</time>
      </trkpt>
      <trkpt lat="47.35413" lon="3.95897">
        <ele>319.3</ele>
        <time>2021-08-11T17:00:27Z</time>
      </trkpt>
      <trkpt lat="47.35415" lon="3.95897">
        <ele>319.3</ele>
        <time>2021-08-11T17:00:28Z</time>
      </trkpt>
      <trkpt lat="47.35417" lon="3.95898">
        <ele>319.3</ele>
        <time>2021-08-11T17:00:29Z</time>
      </trkpt>
      <trkpt lat="47.35418" lon="3.95898">
        <ele>319.3</ele>
        <time>2021-08-11T17:00:30Z</time>
      </trkpt>
      <trkpt lat="47.35426" lon="3.95904">
        <ele>319.3</ele>
        <time>2021-08-11T17:00:34Z</time>
      </trkpt>
      <trkpt lat="47.35429" lon="3.95904">
        <ele>319.3</ele>
        <time>2021-08-11T17:00:35Z</time>
      </trkpt>
      <trkpt lat="47.35432" lon="3.95904">
        <ele>319.3</ele>
        <time>2021-08-11T17:00:36Z</time>
      </trkpt>
      <trkpt lat="47.35455" lon="3.95904">
        <ele>316.89</ele>
        <time>2021-08-11T17:00:44Z</time>
      </trkpt>
      <trkpt lat="47.35473" lon="3.9591">
        <ele>316.89</ele>
        <time>2021-08-11T17:00:53Z</time>
      </trkpt>
      <trkpt lat="47.35477" lon="3.95912">
        <ele>317.85</ele>
        <time>2021-08-11T17:00:55Z</time>
      </trkpt>
      <trkpt lat="47.35491" lon="3.9592">
        <ele>318.33</ele>
        <time>2021-08-11T17:01:02Z</time>
      </trkpt>
      <trkpt lat="47.35506" lon="3.95932">
        <ele>318.81</ele>
        <time>2021-08-11T17:01:09Z</time>
      </trkpt>
      <trkpt lat="47.35525" lon="3.95937">
        <ele>317.85</ele>
        <time>2021-08-11T17:01:15Z</time>
      </trkpt>
      <trkpt lat="47.35536" lon="3.95934">
        <ele>317.85</ele>
        <time>2021-08-11T17:01:20Z</time>
      </trkpt>
      <trkpt lat="47.35538" lon="3.95934">
        <ele>317.85</ele>
        <time>2021-08-11T17:01:21Z</time>
      </trkpt>
      <trkpt lat="47.35541" lon="3.95934">
        <ele>317.85</ele>
        <time>2021-08-11T17:01:22Z</time>
      </trkpt>
      <trkpt lat="47.35543" lon="3.95934">
        <ele>317.85</ele>
        <time>2021-08-11T17:01:23Z</time>
      </trkpt>
      <trkpt lat="47.35546" lon="3.95933">
        <ele>317.85</ele>
        <time>2021-08-11T17:01:24Z</time>
      </trkpt>
      <trkpt lat="47.35563" lon="3.95928">
        <ele>317.85</ele>
        <time>2021-08-11T17:01:32Z</time>
      </trkpt>
      <trkpt lat="47.35578" lon="3.95925">
        <ele>317.85</ele>
        <time>2021-08-11T17:01:39Z</time>
      </trkpt>
      <trkpt lat="47.35591" lon="3.95925">
        <ele>317.37</ele>
        <time>2021-08-11T17:01:44Z</time>
      </trkpt>
      <trkpt lat="47.35612" lon="3.95922">
        <ele>317.37</ele>
        <time>2021-08-11T17:01:52Z</time>
      </trkpt>
      <trkpt lat="47.3563" lon="3.95917">
        <ele>317.37</ele>
        <time>2021-08-11T17:01:59Z</time>
      </trkpt>
      <trkpt lat="47.35648" lon="3.95914">
        <ele>317.37</ele>
        <time>2021-08-11T17:02:07Z</time>
      </trkpt>
      <trkpt lat="47.3565" lon="3.95914">
        <ele>317.37</ele>
        <time>2021-08-11T17:02:09Z</time>
      </trkpt>
      <trkpt lat="47.35651" lon="3.95915">
        <ele>316.89</ele>
        <time>2021-08-11T17:02:10Z</time>
      </trkpt>
      <trkpt lat="47.35653" lon="3.95915">
        <ele>316.89</ele>
        <time>2021-08-11T17:02:11Z</time>
      </trkpt>
      <trkpt lat="47.35664" lon="3.9592">
        <ele>316.89</ele>
        <time>2021-08-11T17:02:18Z</time>
      </trkpt>
      <trkpt lat="47.35666" lon="3.95922">
        <ele>316.89</ele>
        <time>2021-08-11T17:02:22Z</time>
      </trkpt>
      <trkpt lat="47.35668" lon="3.95924">
        <ele>316.89</ele>
        <time>2021-08-11T17:02:23Z</time>
      </trkpt>
      <trkpt lat="47.35669" lon="3.95925">
        <ele>316.89</ele>
        <time>2021-08-11T17:02:24Z</time>
      </trkpt>
      <trkpt lat="47.35682" lon="3.95936">
        <ele>316.41</ele>
        <time>2021-08-11T17:02:31Z</time>
      </trkpt>
      <trkpt lat="47.35694" lon="3.95946">
        <ele>315.93</ele>
        <time>2021-08-11T17:02:38Z</time>
      </trkpt>
      <trkpt lat="47.35704" lon="3.95955">
        <ele>315.93</ele>
        <time>2021-08-11T17:02:44Z</time>
      </trkpt>
      <trkpt lat="47.35715" lon="3.95962">
        <ele>315.93</ele>
        <time>2021-08-11T17:02:51Z</time>
      </trkpt>
      <trkpt lat="47.35717" lon="3.95964">
        <ele>315.45</ele>
        <time>2021-08-11T17:02:52Z</time>
      </trkpt>
      <trkpt lat="47.35718" lon="3.95965">
        <ele>315.45</ele>
        <time>2021-08-11T17:02:53Z</time>
      </trkpt>
      <trkpt lat="47.35719" lon="3.95967">
        <ele>315.45</ele>
        <time>2021-08-11T17:02:54Z</time>
      </trkpt>
      <trkpt lat="47.35721" lon="3.95968">
        <ele>315.45</ele>
        <time>2021-08-11T17:02:55Z</time>
      </trkpt>
      <trkpt lat="47.35723" lon="3.95969">
        <ele>315.45</ele>
        <time>2021-08-11T17:02:56Z</time>
      </trkpt>
      <trkpt lat="47.35736" lon="3.95974">
        <ele>314.97</ele>
        <time>2021-08-11T17:03:04Z</time>
      </trkpt>
      <trkpt lat="47.35745" lon="3.95982">
        <ele>314.97</ele>
        <time>2021-08-11T17:03:10Z</time>
      </trkpt>
      <trkpt lat="47.35759" lon="3.95995">
        <ele>314.97</ele>
        <time>2021-08-11T17:03:18Z</time>
      </trkpt>
      <trkpt lat="47.35761" lon="3.95997">
        <ele>314.97</ele>
        <time>2021-08-11T17:03:19Z</time>
      </trkpt>
      <trkpt lat="47.35778" lon="3.96006">
        <ele>314.97</ele>
        <time>2021-08-11T17:03:26Z</time>
      </trkpt>
      <trkpt lat="47.35783" lon="3.9601">
        <ele>314.97</ele>
        <time>2021-08-11T17:03:29Z</time>
      </trkpt>
      <trkpt lat="47.35784" lon="3.96011">
        <ele>314.49</ele>
        <time>2021-08-11T17:03:30Z</time>
      </trkpt>
      <trkpt lat="47.35787" lon="3.96012">
        <ele>314.49</ele>
        <time>2021-08-11T17:03:31Z</time>
      </trkpt>
      <trkpt lat="47.35789" lon="3.96012">
        <ele>314.49</ele>
        <time>2021-08-11T17:03:32Z</time>
      </trkpt>
      <trkpt lat="47.35795" lon="3.9601">
        <ele>314.49</ele>
        <time>2021-08-11T17:03:36Z</time>
      </trkpt>
      <trkpt lat="47.35808" lon="3.96">
        <ele>314.01</ele>
        <time>2021-08-11T17:03:42Z</time>
      </trkpt>
      <trkpt lat="47.35821" lon="3.95991">
        <ele>313.53</ele>
        <time>2021-08-11T17:03:48Z</time>
      </trkpt>
      <trkpt lat="47.35839" lon="3.95982">
        <ele>313.53</ele>
        <time>2021-08-11T17:03:53Z</time>
      </trkpt>
      <trkpt lat="47.35864" lon="3.95967">
        <ele>313.53</ele>
        <time>2021-08-11T17:03:59Z</time>
      </trkpt>
      <trkpt lat="47.35868" lon="3.95964">
        <ele>313.53</ele>
        <time>2021-08-11T17:04:00Z</time>
      </trkpt>
      <trkpt lat="47.35899" lon="3.95948">
        <ele>313.05</ele>
        <time>2021-08-11T17:04:07Z</time>
      </trkpt>
      <trkpt lat="47.35935" lon="3.95928">
        <ele>313.05</ele>
        <time>2021-08-11T17:04:15Z</time>
      </trkpt>
      <trkpt lat="47.35959" lon="3.95911">
        <ele>313.05</ele>
        <time>2021-08-11T17:04:21Z</time>
      </trkpt>
      <trkpt lat="47.35983" lon="3.95892">
        <ele>313.05</ele>
        <time>2021-08-11T17:04:28Z</time>
      </trkpt>
      <trkpt lat="47.36001" lon="3.95875">
        <ele>312.09</ele>
        <time>2021-08-11T17:04:34Z</time>
      </trkpt>
      <trkpt lat="47.36018" lon="3.95864">
        <ele>312.57</ele>
        <time>2021-08-11T17:04:39Z</time>
      </trkpt>
      <trkpt lat="47.36024" lon="3.9586">
        <ele>312.57</ele>
        <time>2021-08-11T17:04:45Z</time>
      </trkpt>
      <trkpt lat="47.36024" lon="3.9586">
        <ele>312.57</ele>
        <time>2021-08-11T17:04:56Z</time>
      </trkpt>
      <trkpt lat="47.36026" lon="3.95859">
        <ele>312.57</ele>
        <time>2021-08-11T17:05:07Z</time>
      </trkpt>
      <trkpt lat="47.36028" lon="3.95855">
        <ele>312.57</ele>
        <time>2021-08-11T17:05:13Z</time>
      </trkpt>
      <trkpt lat="47.3603" lon="3.95851">
        <ele>312.57</ele>
        <time>2021-08-11T17:05:20Z</time>
      </trkpt>
      <trkpt lat="47.36034" lon="3.95849">
        <ele>312.57</ele>
        <time>2021-08-11T17:05:25Z</time>
      </trkpt>
      <trkpt lat="47.36037" lon="3.95845">
        <ele>312.57</ele>
        <time>2021-08-11T17:05:29Z</time>
      </trkpt>
      <trkpt lat="47.3604" lon="3.9584">
        <ele>312.57</ele>
        <time>2021-08-11T17:05:36Z</time>
      </trkpt>
      <trkpt lat="47.36041" lon="3.95837">
        <ele>312.57</ele>
        <time>2021-08-11T17:05:49Z</time>
      </trkpt>
      <trkpt lat="47.36047" lon="3.95833">
        <ele>313.53</ele>
        <time>2021-08-11T17:05:57Z</time>
      </trkpt>
      <trkpt lat="47.36049" lon="3.95833">
        <ele>313.53</ele>
        <time>2021-08-11T17:06:04Z</time>
      </trkpt>
      <trkpt lat="47.36049" lon="3.95832">
        <ele>313.53</ele>
        <time>2021-08-11T17:06:17Z</time>
      </trkpt>
      <trkpt lat="47.36048" lon="3.95829">
        <ele>313.53</ele>
        <time>2021-08-11T17:06:35Z</time>
      </trkpt>
      <trkpt lat="47.36048" lon="3.9583">
        <ele>313.53</ele>
        <time>2021-08-11T17:06:50Z</time>
      </trkpt>
      <trkpt lat="47.36051" lon="3.95829">
        <ele>313.53</ele>
        <time>2021-08-11T17:07:01Z</time>
      </trkpt>
      <trkpt lat="47.3605" lon="3.95828">
        <ele>313.53</ele>
        <time>2021-08-11T17:07:16Z</time>
      </trkpt>
      <trkpt lat="47.3605" lon="3.9583">
        <ele>313.53</ele>
        <time>2021-08-11T17:07:33Z</time>
      </trkpt>
      <trkpt lat="47.36051" lon="3.95834">
        <ele>313.53</ele>
        <time>2021-08-11T17:07:52Z</time>
      </trkpt>
      <trkpt lat="47.36051" lon="3.95836">
        <ele>314.01</ele>
        <time>2021-08-11T17:08:06Z</time>
      </trkpt>
      <trkpt lat="47.36051" lon="3.95834">
        <ele>314.01</ele>
        <time>2021-08-11T17:08:19Z</time>
      </trkpt>
      <trkpt lat="47.36051" lon="3.95831">
        <ele>314.01</ele>
        <time>2021-08-11T17:08:32Z</time>
      </trkpt>
      <trkpt lat="47.36051" lon="3.95831">
        <ele>314.01</ele>
        <time>2021-08-11T17:08:42Z</time>
      </trkpt>
      <trkpt lat="47.36052" lon="3.95832">
        <ele>314.01</ele>
        <time>2021-08-11T17:08:56Z</time>
      </trkpt>
      <trkpt lat="47.36055" lon="3.95832">
        <ele>314.01</ele>
        <time>2021-08-11T17:09:00Z</time>
      </trkpt>
      <trkpt lat="47.36057" lon="3.95833">
        <ele>314.01</ele>
        <time>2021-08-11T17:09:07Z</time>
      </trkpt>
      <trkpt lat="47.36058" lon="3.95832">
        <ele>314.01</ele>
        <time>2021-08-11T17:09:19Z</time>
      </trkpt>
      <trkpt lat="47.3606" lon="3.95832">
        <ele>314.01</ele>
        <time>2021-08-11T17:09:27Z</time>
      </trkpt>
      <trkpt lat="47.3607" lon="3.95837">
        <ele>313.53</ele>
        <time>2021-08-11T17:09:33Z</time>
      </trkpt>
      <trkpt lat="47.36078" lon="3.95844">
        <ele>313.53</ele>
        <time>2021-08-11T17:09:38Z</time>
      </trkpt>
      <trkpt lat="47.36079" lon="3.95846">
        <ele>314.01</ele>
        <time>2021-08-11T17:09:39Z</time>
      </trkpt>
      <trkpt lat="47.36081" lon="3.95847">
        <ele>314.01</ele>
        <time>2021-08-11T17:09:40Z</time>
      </trkpt>
      <trkpt lat="47.36082" lon="3.95849">
        <ele>314.01</ele>
        <time>2021-08-11T17:09:41Z</time>
      </trkpt>
      <trkpt lat="47.36087" lon="3.95854">
        <ele>314.01</ele>
        <time>2021-08-11T17:09:46Z</time>
      </trkpt>
      <trkpt lat="47.36088" lon="3.95856">
        <ele>314.01</ele>
        <time>2021-08-11T17:09:47Z</time>
      </trkpt>
      <trkpt lat="47.36089" lon="3.95857">
        <ele>314.01</ele>
        <time>2021-08-11T17:09:48Z</time>
      </trkpt>
      <trkpt lat="47.36091" lon="3.95859">
        <ele>314.01</ele>
        <time>2021-08-11T17:09:49Z</time>
      </trkpt>
      <trkpt lat="47.36092" lon="3.9586">
        <ele>314.01</ele>
        <time>2021-08-11T17:09:50Z</time>
      </trkpt>
      <trkpt lat="47.36094" lon="3.95861">
        <ele>314.01</ele>
        <time>2021-08-11T17:09:51Z</time>
      </trkpt>
      <trkpt lat="47.36095" lon="3.95862">
        <ele>314.01</ele>
        <time>2021-08-11T17:09:52Z</time>
      </trkpt>
      <trkpt lat="47.36097" lon="3.95863">
        <ele>314.01</ele>
        <time>2021-08-11T17:09:53Z</time>
      </trkpt>
      <trkpt lat="47.36099" lon="3.95864">
        <ele>314.01</ele>
        <time>2021-08-11T17:09:54Z</time>
      </trkpt>
      <trkpt lat="47.361" lon="3.95864">
        <ele>314.01</ele>
        <time>2021-08-11T17:09:55Z</time>
      </trkpt>
      <trkpt lat="47.36102" lon="3.95865">
        <ele>314.01</ele>
        <time>2021-08-11T17:09:56Z</time>
      </trkpt>
      <trkpt lat="47.36105" lon="3.95867">
        <ele>313.53</ele>
        <time>2021-08-11T17:09:58Z</time>
      </trkpt>
      <trkpt lat="47.36106" lon="3.95868">
        <ele>313.53</ele>
        <time>2021-08-11T17:09:59Z</time>
      </trkpt>
      <trkpt lat="47.36108" lon="3.95869">
        <ele>313.53</ele>
        <time>2021-08-11T17:10:00Z</time>
      </trkpt>
      <trkpt lat="47.3611" lon="3.9587">
        <ele>314.01</ele>
        <time>2021-08-11T17:10:01Z</time>
      </trkpt>
      <trkpt lat="47.36112" lon="3.95871">
        <ele>314.01</ele>
        <time>2021-08-11T17:10:02Z</time>
      </trkpt>
      <trkpt lat="47.36113" lon="3.95872">
        <ele>314.49</ele>
        <time>2021-08-11T17:10:03Z</time>
      </trkpt>
      <trkpt lat="47.36115" lon="3.95873">
        <ele>314.49</ele>
        <time>2021-08-11T17:10:04Z</time>
      </trkpt>
      <trkpt lat="47.36117" lon="3.95874">
        <ele>314.49</ele>
        <time>2021-08-11T17:10:05Z</time>
      </trkpt>
      <trkpt lat="47.36131" lon="3.95882">
        <ele>314.97</ele>
        <time>2021-08-11T17:10:13Z</time>
      </trkpt>
      <trkpt lat="47.36141" lon="3.95893">
        <ele>315.93</ele>
        <time>2021-08-11T17:10:20Z</time>
      </trkpt>
      <trkpt lat="47.36151" lon="3.95915">
        <ele>316.89</ele>
        <time>2021-08-11T17:10:30Z</time>
      </trkpt>
      <trkpt lat="47.36156" lon="3.95928">
        <ele>317.37</ele>
        <time>2021-08-11T17:10:37Z</time>
      </trkpt>
      <trkpt lat="47.36157" lon="3.9593">
        <ele>317.85</ele>
        <time>2021-08-11T17:10:38Z</time>
      </trkpt>
      <trkpt lat="47.36157" lon="3.95932">
        <ele>317.85</ele>
        <time>2021-08-11T17:10:39Z</time>
      </trkpt>
      <trkpt lat="47.36158" lon="3.95934">
        <ele>317.85</ele>
        <time>2021-08-11T17:10:40Z</time>
      </trkpt>
      <trkpt lat="47.36158" lon="3.95936">
        <ele>317.85</ele>
        <time>2021-08-11T17:10:41Z</time>
      </trkpt>
      <trkpt lat="47.36164" lon="3.95954">
        <ele>319.3</ele>
        <time>2021-08-11T17:10:51Z</time>
      </trkpt>
      <trkpt lat="47.36166" lon="3.9596">
        <ele>319.78</ele>
        <time>2021-08-11T17:10:55Z</time>
      </trkpt>
      <trkpt lat="47.36167" lon="3.95962">
        <ele>319.78</ele>
        <time>2021-08-11T17:10:56Z</time>
      </trkpt>
      <trkpt lat="47.36167" lon="3.95964">
        <ele>319.78</ele>
        <time>2021-08-11T17:10:57Z</time>
      </trkpt>
      <trkpt lat="47.36172" lon="3.95981">
        <ele>321.7</ele>
        <time>2021-08-11T17:11:06Z</time>
      </trkpt>
      <trkpt lat="47.36175" lon="3.95995">
        <ele>323.14</ele>
        <time>2021-08-11T17:11:13Z</time>
      </trkpt>
      <trkpt lat="47.36179" lon="3.96012">
        <ele>325.06</ele>
        <time>2021-08-11T17:11:22Z</time>
      </trkpt>
      <trkpt lat="47.36181" lon="3.96025">
        <ele>326.02</ele>
        <time>2021-08-11T17:11:29Z</time>
      </trkpt>
      <trkpt lat="47.36186" lon="3.9604">
        <ele>327.47</ele>
        <time>2021-08-11T17:11:38Z</time>
      </trkpt>
      <trkpt lat="47.36188" lon="3.96047">
        <ele>326.99</ele>
        <time>2021-08-11T17:11:42Z</time>
      </trkpt>
      <trkpt lat="47.3619" lon="3.96048">
        <ele>326.99</ele>
        <time>2021-08-11T17:11:43Z</time>
      </trkpt>
      <trkpt lat="47.36191" lon="3.9605">
        <ele>327.47</ele>
        <time>2021-08-11T17:11:44Z</time>
      </trkpt>
      <trkpt lat="47.36192" lon="3.96051">
        <ele>327.47</ele>
        <time>2021-08-11T17:11:45Z</time>
      </trkpt>
      <trkpt lat="47.36193" lon="3.96052">
        <ele>327.47</ele>
        <time>2021-08-11T17:11:46Z</time>
      </trkpt>
      <trkpt lat="47.36194" lon="3.96053">
        <ele>327.47</ele>
        <time>2021-08-11T17:11:47Z</time>
      </trkpt>
      <trkpt lat="47.36195" lon="3.96054">
        <ele>327.95</ele>
        <time>2021-08-11T17:11:48Z</time>
      </trkpt>
      <trkpt lat="47.36196" lon="3.96055">
        <ele>327.95</ele>
        <time>2021-08-11T17:11:49Z</time>
      </trkpt>
      <trkpt lat="47.36197" lon="3.96056">
        <ele>327.95</ele>
        <time>2021-08-11T17:11:50Z</time>
      </trkpt>
      <trkpt lat="47.36198" lon="3.96057">
        <ele>327.95</ele>
        <time>2021-08-11T17:11:51Z</time>
      </trkpt>
      <trkpt lat="47.36199" lon="3.96057">
        <ele>327.95</ele>
        <time>2021-08-11T17:11:52Z</time>
      </trkpt>
      <trkpt lat="47.36202" lon="3.9606">
        <ele>328.43</ele>
        <time>2021-08-11T17:11:55Z</time>
      </trkpt>
      <trkpt lat="47.36203" lon="3.96061">
        <ele>328.43</ele>
        <time>2021-08-11T17:11:56Z</time>
      </trkpt>
      <trkpt lat="47.36204" lon="3.96062">
        <ele>328.43</ele>
        <time>2021-08-11T17:11:57Z</time>
      </trkpt>
      <trkpt lat="47.36206" lon="3.96063">
        <ele>328.43</ele>
        <time>2021-08-11T17:11:58Z</time>
      </trkpt>
      <trkpt lat="47.36207" lon="3.96064">
        <ele>328.91</ele>
        <time>2021-08-11T17:11:59Z</time>
      </trkpt>
      <trkpt lat="47.36208" lon="3.96064">
        <ele>328.91</ele>
        <time>2021-08-11T17:12:00Z</time>
      </trkpt>
      <trkpt lat="47.36209" lon="3.96065">
        <ele>328.91</ele>
        <time>2021-08-11T17:12:01Z</time>
      </trkpt>
      <trkpt lat="47.3621" lon="3.96065">
        <ele>329.39</ele>
        <time>2021-08-11T17:12:02Z</time>
      </trkpt>
      <trkpt lat="47.36211" lon="3.96066">
        <ele>329.39</ele>
        <time>2021-08-11T17:12:03Z</time>
      </trkpt>
      <trkpt lat="47.36212" lon="3.96067">
        <ele>329.39</ele>
        <time>2021-08-11T17:12:04Z</time>
      </trkpt>
      <trkpt lat="47.36213" lon="3.96068">
        <ele>329.39</ele>
        <time>2021-08-11T17:12:05Z</time>
      </trkpt>
      <trkpt lat="47.36214" lon="3.96069">
        <ele>329.87</ele>
        <time>2021-08-11T17:12:06Z</time>
      </trkpt>
      <trkpt lat="47.36216" lon="3.9607">
        <ele>329.87</ele>
        <time>2021-08-11T17:12:07Z</time>
      </trkpt>
      <trkpt lat="47.36221" lon="3.96074">
        <ele>330.35</ele>
        <time>2021-08-11T17:12:11Z</time>
      </trkpt>
      <trkpt lat="47.36222" lon="3.96074">
        <ele>330.35</ele>
        <time>2021-08-11T17:12:12Z</time>
      </trkpt>
      <trkpt lat="47.36224" lon="3.96075">
        <ele>330.35</ele>
        <time>2021-08-11T17:12:13Z</time>
      </trkpt>
      <trkpt lat="47.36226" lon="3.96076">
        <ele>330.83</ele>
        <time>2021-08-11T17:12:14Z</time>
      </trkpt>
      <trkpt lat="47.36227" lon="3.96076">
        <ele>330.83</ele>
        <time>2021-08-11T17:12:15Z</time>
      </trkpt>
      <trkpt lat="47.36229" lon="3.96077">
        <ele>331.31</ele>
        <time>2021-08-11T17:12:16Z</time>
      </trkpt>
      <trkpt lat="47.3623" lon="3.96077">
        <ele>331.31</ele>
        <time>2021-08-11T17:12:17Z</time>
      </trkpt>
      <trkpt lat="47.36232" lon="3.96078">
        <ele>331.31</ele>
        <time>2021-08-11T17:12:18Z</time>
      </trkpt>
      <trkpt lat="47.36234" lon="3.96079">
        <ele>331.79</ele>
        <time>2021-08-11T17:12:19Z</time>
      </trkpt>
      <trkpt lat="47.36247" lon="3.96082">
        <ele>331.79</ele>
        <time>2021-08-11T17:12:26Z</time>
      </trkpt>
      <trkpt lat="47.36265" lon="3.96087">
        <ele>332.27</ele>
        <time>2021-08-11T17:12:35Z</time>
      </trkpt>
      <trkpt lat="47.36284" lon="3.9609">
        <ele>332.27</ele>
        <time>2021-08-11T17:12:42Z</time>
      </trkpt>
      <trkpt lat="47.36288" lon="3.96091">
        <ele>330.83</ele>
        <time>2021-08-11T17:12:44Z</time>
      </trkpt>
      <trkpt lat="47.36301" lon="3.96086">
        <ele>329.39</ele>
        <time>2021-08-11T17:12:51Z</time>
      </trkpt>
      <trkpt lat="47.36317" lon="3.96079">
        <ele>326.99</ele>
        <time>2021-08-11T17:12:59Z</time>
      </trkpt>
      <trkpt lat="47.36316" lon="3.96078">
        <ele>326.99</ele>
        <time>2021-08-11T17:13:08Z</time>
      </trkpt>
      <trkpt lat="47.36316" lon="3.96078">
        <ele>326.99</ele>
        <time>2021-08-11T17:13:25Z</time>
      </trkpt>
      <trkpt lat="47.3632" lon="3.96078">
        <ele>326.5</ele>
        <time>2021-08-11T17:13:41Z</time>
      </trkpt>
      <trkpt lat="47.36322" lon="3.96077">
        <ele>326.5</ele>
        <time>2021-08-11T17:13:42Z</time>
      </trkpt>
      <trkpt lat="47.36341" lon="3.96072">
        <ele>323.14</ele>
        <time>2021-08-11T17:13:47Z</time>
      </trkpt>
      <trkpt lat="47.3636" lon="3.96067">
        <ele>319.78</ele>
        <time>2021-08-11T17:13:52Z</time>
      </trkpt>
      <trkpt lat="47.36365" lon="3.96065">
        <ele>319.3</ele>
        <time>2021-08-11T17:13:53Z</time>
      </trkpt>
      <trkpt lat="47.36392" lon="3.96058">
        <ele>315.45</ele>
        <time>2021-08-11T17:13:58Z</time>
      </trkpt>
      <trkpt lat="47.36411" lon="3.96055">
        <ele>313.53</ele>
        <time>2021-08-11T17:14:01Z</time>
      </trkpt>
      <trkpt lat="47.36434" lon="3.96055">
        <ele>311.6</ele>
        <time>2021-08-11T17:14:04Z</time>
      </trkpt>
      <trkpt lat="47.36471" lon="3.96056">
        <ele>308.24</ele>
        <time>2021-08-11T17:14:10Z</time>
      </trkpt>
      <trkpt lat="47.36477" lon="3.96055">
        <ele>308.24</ele>
        <time>2021-08-11T17:14:11Z</time>
      </trkpt>
      <trkpt lat="47.36483" lon="3.96052">
        <ele>307.28</ele>
        <time>2021-08-11T17:14:12Z</time>
      </trkpt>
      <trkpt lat="47.36488" lon="3.9605">
        <ele>307.76</ele>
        <time>2021-08-11T17:14:13Z</time>
      </trkpt>
      <trkpt lat="47.36493" lon="3.96045">
        <ele>306.32</ele>
        <time>2021-08-11T17:14:14Z</time>
      </trkpt>
      <trkpt lat="47.36497" lon="3.96041">
        <ele>306.32</ele>
        <time>2021-08-11T17:14:15Z</time>
      </trkpt>
      <trkpt lat="47.365" lon="3.96036">
        <ele>306.32</ele>
        <time>2021-08-11T17:14:16Z</time>
      </trkpt>
      <trkpt lat="47.36502" lon="3.96032">
        <ele>306.32</ele>
        <time>2021-08-11T17:14:17Z</time>
      </trkpt>
      <trkpt lat="47.36503" lon="3.96027">
        <ele>306.8</ele>
        <time>2021-08-11T17:14:18Z</time>
      </trkpt>
      <trkpt lat="47.36504" lon="3.96023">
        <ele>306.8</ele>
        <time>2021-08-11T17:14:19Z</time>
      </trkpt>
      <trkpt lat="47.36508" lon="3.96009">
        <ele>306.8</ele>
        <time>2021-08-11T17:14:25Z</time>
      </trkpt>
      <trkpt lat="47.36509" lon="3.96006">
        <ele>306.8</ele>
        <time>2021-08-11T17:14:30Z</time>
      </trkpt>
      <trkpt lat="47.36507" lon="3.96008">
        <ele>306.8</ele>
        <time>2021-08-11T17:14:42Z</time>
      </trkpt>
      <trkpt lat="47.36506" lon="3.96007">
        <ele>305.84</ele>
        <time>2021-08-11T17:15:00Z</time>
      </trkpt>
      <trkpt lat="47.36507" lon="3.96006">
        <ele>305.84</ele>
        <time>2021-08-11T17:15:19Z</time>
      </trkpt>
      <trkpt lat="47.36506" lon="3.96005">
        <ele>305.84</ele>
        <time>2021-08-11T17:15:38Z</time>
      </trkpt>
      <trkpt lat="47.36508" lon="3.96003">
        <ele>305.84</ele>
        <time>2021-08-11T17:15:45Z</time>
      </trkpt>
      <trkpt lat="47.3651" lon="3.95996">
        <ele>305.84</ele>
        <time>2021-08-11T17:15:52Z</time>
      </trkpt>
      <trkpt lat="47.3651" lon="3.95992">
        <ele>305.84</ele>
        <time>2021-08-11T17:15:59Z</time>
      </trkpt>
      <trkpt lat="47.36511" lon="3.95986">
        <ele>305.84</ele>
        <time>2021-08-11T17:16:05Z</time>
      </trkpt>
      <trkpt lat="47.36512" lon="3.95973">
        <ele>305.84</ele>
        <time>2021-08-11T17:16:14Z</time>
      </trkpt>
      <trkpt lat="47.36512" lon="3.95969">
        <ele>305.84</ele>
        <time>2021-08-11T17:16:17Z</time>
      </trkpt>
      <trkpt lat="47.36512" lon="3.95967">
        <ele>305.84</ele>
        <time>2021-08-11T17:16:18Z</time>
      </trkpt>
      <trkpt lat="47.36513" lon="3.95962">
        <ele>305.84</ele>
        <time>2021-08-11T17:16:22Z</time>
      </trkpt>
      <trkpt lat="47.36512" lon="3.95953">
        <ele>305.84</ele>
        <time>2021-08-11T17:16:30Z</time>
      </trkpt>
      <trkpt lat="47.36509" lon="3.95952">
        <ele>305.84</ele>
        <time>2021-08-11T17:16:37Z</time>
      </trkpt>
      <trkpt lat="47.36511" lon="3.95944">
        <ele>305.84</ele>
        <time>2021-08-11T17:16:43Z</time>
      </trkpt>
      <trkpt lat="47.36513" lon="3.95927">
        <ele>305.84</ele>
        <time>2021-08-11T17:16:50Z</time>
      </trkpt>
      <trkpt lat="47.36514" lon="3.95913">
        <ele>305.84</ele>
        <time>2021-08-11T17:16:55Z</time>
      </trkpt>
      <trkpt lat="47.36515" lon="3.95893">
        <ele>305.84</ele>
        <time>2021-08-11T17:17:02Z</time>
      </trkpt>
      <trkpt lat="47.36516" lon="3.95878">
        <ele>305.84</ele>
        <time>2021-08-11T17:17:08Z</time>
      </trkpt>
      <trkpt lat="47.36517" lon="3.95862">
        <ele>305.84</ele>
        <time>2021-08-11T17:17:15Z</time>
      </trkpt>
      <trkpt lat="47.36517" lon="3.95859">
        <ele>305.84</ele>
        <time>2021-08-11T17:17:21Z</time>
      </trkpt>
      <trkpt lat="47.36518" lon="3.95859">
        <ele>305.84</ele>
        <time>2021-08-11T17:17:32Z</time>
      </trkpt>
      <trkpt lat="47.36517" lon="3.95858">
        <ele>305.84</ele>
        <time>2021-08-11T17:17:35Z</time>
      </trkpt>
      <trkpt lat="47.36517" lon="3.95857">
        <ele>305.84</ele>
        <time>2021-08-11T17:17:36Z</time>
      </trkpt>
      <trkpt lat="47.36517" lon="3.95853">
        <ele>305.84</ele>
        <time>2021-08-11T17:17:39Z</time>
      </trkpt>
      <trkpt lat="47.36517" lon="3.9585">
        <ele>305.84</ele>
        <time>2021-08-11T17:17:41Z</time>
      </trkpt>
      <trkpt lat="47.36521" lon="3.95838">
        <ele>305.84</ele>
        <time>2021-08-11T17:17:49Z</time>
      </trkpt>
      <trkpt lat="47.36523" lon="3.95825">
        <ele>305.84</ele>
        <time>2021-08-11T17:17:57Z</time>
      </trkpt>
      <trkpt lat="47.36525" lon="3.95821">
        <ele>305.84</ele>
        <time>2021-08-11T17:18:08Z</time>
      </trkpt>
      <trkpt lat="47.36526" lon="3.95819">
        <ele>305.84</ele>
        <time>2021-08-11T17:18:09Z</time>
      </trkpt>
      <trkpt lat="47.36526" lon="3.95817">
        <ele>305.84</ele>
        <time>2021-08-11T17:18:10Z</time>
      </trkpt>
      <trkpt lat="47.3653" lon="3.95803">
        <ele>305.84</ele>
        <time>2021-08-11T17:18:18Z</time>
      </trkpt>
      <trkpt lat="47.36532" lon="3.95795">
        <ele>305.84</ele>
        <time>2021-08-11T17:18:25Z</time>
      </trkpt>
      <trkpt lat="47.36536" lon="3.95787">
        <ele>305.84</ele>
        <time>2021-08-11T17:18:32Z</time>
      </trkpt>
      <trkpt lat="47.36539" lon="3.9578">
        <ele>305.84</ele>
        <time>2021-08-11T17:18:40Z</time>
      </trkpt>
      <trkpt lat="47.36541" lon="3.95773">
        <ele>305.84</ele>
        <time>2021-08-11T17:18:47Z</time>
      </trkpt>
      <trkpt lat="47.36543" lon="3.95764">
        <ele>305.84</ele>
        <time>2021-08-11T17:18:54Z</time>
      </trkpt>
      <trkpt lat="47.36546" lon="3.95758">
        <ele>305.84</ele>
        <time>2021-08-11T17:18:59Z</time>
      </trkpt>
      <trkpt lat="47.36547" lon="3.95756">
        <ele>305.84</ele>
        <time>2021-08-11T17:19:00Z</time>
      </trkpt>
      <trkpt lat="47.3655" lon="3.95749">
        <ele>305.84</ele>
        <time>2021-08-11T17:19:07Z</time>
      </trkpt>
      <trkpt lat="47.36554" lon="3.95742">
        <ele>305.84</ele>
        <time>2021-08-11T17:19:14Z</time>
      </trkpt>
      <trkpt lat="47.36562" lon="3.95733">
        <ele>305.84</ele>
        <time>2021-08-11T17:19:23Z</time>
      </trkpt>
      <trkpt lat="47.36566" lon="3.95726">
        <ele>305.84</ele>
        <time>2021-08-11T17:19:28Z</time>
      </trkpt>
      <trkpt lat="47.36571" lon="3.95721">
        <ele>305.84</ele>
        <time>2021-08-11T17:19:34Z</time>
      </trkpt>
      <trkpt lat="47.36577" lon="3.9572">
        <ele>305.84</ele>
        <time>2021-08-11T17:19:42Z</time>
      </trkpt>
      <trkpt lat="47.36581" lon="3.95719">
        <ele>305.84</ele>
        <time>2021-08-11T17:19:49Z</time>
      </trkpt>
      <trkpt lat="47.36588" lon="3.95716">
        <ele>306.8</ele>
        <time>2021-08-11T17:19:56Z</time>
      </trkpt>
      <trkpt lat="47.36589" lon="3.95715">
        <ele>307.28</ele>
        <time>2021-08-11T17:19:57Z</time>
      </trkpt>
      <trkpt lat="47.36599" lon="3.9571">
        <ele>308.24</ele>
        <time>2021-08-11T17:20:04Z</time>
      </trkpt>
      <trkpt lat="47.36611" lon="3.95715">
        <ele>308.24</ele>
        <time>2021-08-11T17:20:12Z</time>
      </trkpt>
      <trkpt lat="47.36618" lon="3.9572">
        <ele>308.72</ele>
        <time>2021-08-11T17:20:18Z</time>
      </trkpt>
      <trkpt lat="47.36628" lon="3.95726">
        <ele>308.72</ele>
        <time>2021-08-11T17:20:23Z</time>
      </trkpt>
      <trkpt lat="47.36631" lon="3.95727">
        <ele>308.72</ele>
        <time>2021-08-11T17:20:24Z</time>
      </trkpt>
      <trkpt lat="47.36634" lon="3.95728">
        <ele>308.72</ele>
        <time>2021-08-11T17:20:25Z</time>
      </trkpt>
      <trkpt lat="47.36639" lon="3.95735">
        <ele>307.76</ele>
        <time>2021-08-11T17:20:33Z</time>
      </trkpt>
      <trkpt lat="47.36637" lon="3.95735">
        <ele>307.76</ele>
        <time>2021-08-11T17:20:49Z</time>
      </trkpt>
      <trkpt lat="47.36635" lon="3.95734">
        <ele>307.76</ele>
        <time>2021-08-11T17:21:11Z</time>
      </trkpt>
      <trkpt lat="47.36636" lon="3.95741">
        <ele>307.76</ele>
        <time>2021-08-11T17:21:25Z</time>
      </trkpt>
      <trkpt lat="47.36636" lon="3.95743">
        <ele>307.76</ele>
        <time>2021-08-11T17:21:26Z</time>
      </trkpt>
      <trkpt lat="47.36637" lon="3.95745">
        <ele>307.76</ele>
        <time>2021-08-11T17:21:27Z</time>
      </trkpt>
      <trkpt lat="47.36637" lon="3.95747">
        <ele>307.76</ele>
        <time>2021-08-11T17:21:28Z</time>
      </trkpt>
      <trkpt lat="47.36637" lon="3.9575">
        <ele>307.76</ele>
        <time>2021-08-11T17:21:29Z</time>
      </trkpt>
      <trkpt lat="47.36637" lon="3.95753">
        <ele>307.76</ele>
        <time>2021-08-11T17:21:30Z</time>
      </trkpt>
      <trkpt lat="47.36636" lon="3.95755">
        <ele>307.76</ele>
        <time>2021-08-11T17:21:31Z</time>
      </trkpt>
      <trkpt lat="47.36636" lon="3.95758">
        <ele>307.76</ele>
        <time>2021-08-11T17:21:32Z</time>
      </trkpt>
      <trkpt lat="47.36635" lon="3.95762">
        <ele>307.76</ele>
        <time>2021-08-11T17:21:33Z</time>
      </trkpt>
      <trkpt lat="47.36635" lon="3.95766">
        <ele>307.28</ele>
        <time>2021-08-11T17:21:34Z</time>
      </trkpt>
      <trkpt lat="47.36636" lon="3.95771">
        <ele>306.32</ele>
        <time>2021-08-11T17:21:35Z</time>
      </trkpt>
      <trkpt lat="47.36637" lon="3.95775">
        <ele>306.32</ele>
        <time>2021-08-11T17:21:36Z</time>
      </trkpt>
      <trkpt lat="47.36646" lon="3.95811">
        <ele>305.36</ele>
        <time>2021-08-11T17:21:43Z</time>
      </trkpt>
      <trkpt lat="47.36656" lon="3.95831">
        <ele>305.36</ele>
        <time>2021-08-11T17:21:49Z</time>
      </trkpt>
      <trkpt lat="47.36658" lon="3.95832">
        <ele>305.36</ele>
        <time>2021-08-11T17:21:50Z</time>
      </trkpt>
      <trkpt lat="47.3666" lon="3.95833">
        <ele>305.36</ele>
        <time>2021-08-11T17:21:51Z</time>
      </trkpt>
      <trkpt lat="47.36662" lon="3.95834">
        <ele>305.36</ele>
        <time>2021-08-11T17:21:52Z</time>
      </trkpt>
      <trkpt lat="47.36664" lon="3.95834">
        <ele>305.36</ele>
        <time>2021-08-11T17:21:53Z</time>
      </trkpt>
      <trkpt lat="47.36667" lon="3.95834">
        <ele>305.36</ele>
        <time>2021-08-11T17:21:54Z</time>
      </trkpt>
      <trkpt lat="47.36669" lon="3.95834">
        <ele>305.36</ele>
        <time>2021-08-11T17:21:55Z</time>
      </trkpt>
      <trkpt lat="47.36671" lon="3.95834">
        <ele>305.36</ele>
        <time>2021-08-11T17:21:56Z</time>
      </trkpt>
      <trkpt lat="47.36688" lon="3.95837">
        <ele>305.36</ele>
        <time>2021-08-11T17:22:04Z</time>
      </trkpt>
      <trkpt lat="47.367" lon="3.95841">
        <ele>305.36</ele>
        <time>2021-08-11T17:22:10Z</time>
      </trkpt>
      <trkpt lat="47.36718" lon="3.9585">
        <ele>305.36</ele>
        <time>2021-08-11T17:22:18Z</time>
      </trkpt>
      <trkpt lat="47.36738" lon="3.95857">
        <ele>305.36</ele>
        <time>2021-08-11T17:22:25Z</time>
      </trkpt>
      <trkpt lat="47.36755" lon="3.95874">
        <ele>304.88</ele>
        <time>2021-08-11T17:22:31Z</time>
      </trkpt>
      <trkpt lat="47.36772" lon="3.95895">
        <ele>304.88</ele>
        <time>2021-08-11T17:22:39Z</time>
      </trkpt>
      <trkpt lat="47.36791" lon="3.95912">
        <ele>304.88</ele>
        <time>2021-08-11T17:22:46Z</time>
      </trkpt>
      <trkpt lat="47.36803" lon="3.95932">
        <ele>304.88</ele>
        <time>2021-08-11T17:22:52Z</time>
      </trkpt>
      <trkpt lat="47.36817" lon="3.95961">
        <ele>304.88</ele>
        <time>2021-08-11T17:23:00Z</time>
      </trkpt>
      <trkpt lat="47.36842" lon="3.9598">
        <ele>304.88</ele>
        <time>2021-08-11T17:23:09Z</time>
      </trkpt>
      <trkpt lat="47.36871" lon="3.96002">
        <ele>304.88</ele>
        <time>2021-08-11T17:23:19Z</time>
      </trkpt>
      <trkpt lat="47.3689" lon="3.96036">
        <ele>305.84</ele>
        <time>2021-08-11T17:23:29Z</time>
      </trkpt>
      <trkpt lat="47.36891" lon="3.9604">
        <ele>305.84</ele>
        <time>2021-08-11T17:23:30Z</time>
      </trkpt>
      <trkpt lat="47.36886" lon="3.96069">
        <ele>305.84</ele>
        <time>2021-08-11T17:23:37Z</time>
      </trkpt>
      <trkpt lat="47.3687" lon="3.96096">
        <ele>306.8</ele>
        <time>2021-08-11T17:23:46Z</time>
      </trkpt>
      <trkpt lat="47.36866" lon="3.96107">
        <ele>307.28</ele>
        <time>2021-08-11T17:23:49Z</time>
      </trkpt>
      <trkpt lat="47.36865" lon="3.9611">
        <ele>307.28</ele>
        <time>2021-08-11T17:23:50Z</time>
      </trkpt>
      <trkpt lat="47.36864" lon="3.96138">
        <ele>308.24</ele>
        <time>2021-08-11T17:23:58Z</time>
      </trkpt>
      <trkpt lat="47.36869" lon="3.9616">
        <ele>309.68</ele>
        <time>2021-08-11T17:24:06Z</time>
      </trkpt>
      <trkpt lat="47.36873" lon="3.96173">
        <ele>310.64</ele>
        <time>2021-08-11T17:24:13Z</time>
      </trkpt>
      <trkpt lat="47.36874" lon="3.96179">
        <ele>311.6</ele>
        <time>2021-08-11T17:24:16Z</time>
      </trkpt>
      <trkpt lat="47.36876" lon="3.9619">
        <ele>313.05</ele>
        <time>2021-08-11T17:24:22Z</time>
      </trkpt>
      <trkpt lat="47.36876" lon="3.96192">
        <ele>313.05</ele>
        <time>2021-08-11T17:24:23Z</time>
      </trkpt>
      <trkpt lat="47.36887" lon="3.9621">
        <ele>311.6</ele>
        <time>2021-08-11T17:24:31Z</time>
      </trkpt>
      <trkpt lat="47.3689" lon="3.96213">
        <ele>311.6</ele>
        <time>2021-08-11T17:24:32Z</time>
      </trkpt>
      <trkpt lat="47.36901" lon="3.96224">
        <ele>311.12</ele>
        <time>2021-08-11T17:24:35Z</time>
      </trkpt>
      <trkpt lat="47.36904" lon="3.9623">
        <ele>310.64</ele>
        <time>2021-08-11T17:24:36Z</time>
      </trkpt>
      <trkpt lat="47.36907" lon="3.96235">
        <ele>309.68</ele>
        <time>2021-08-11T17:24:37Z</time>
      </trkpt>
      <trkpt lat="47.36909" lon="3.96243">
        <ele>309.2</ele>
        <time>2021-08-11T17:24:38Z</time>
      </trkpt>
      <trkpt lat="47.3691" lon="3.96248">
        <ele>309.2</ele>
        <time>2021-08-11T17:24:39Z</time>
      </trkpt>
      <trkpt lat="47.36912" lon="3.96256">
        <ele>309.2</ele>
        <time>2021-08-11T17:24:40Z</time>
      </trkpt>
      <trkpt lat="47.36913" lon="3.96262">
        <ele>309.2</ele>
        <time>2021-08-11T17:24:41Z</time>
      </trkpt>
      <trkpt lat="47.36914" lon="3.96268">
        <ele>309.2</ele>
        <time>2021-08-11T17:24:42Z</time>
      </trkpt>
      <trkpt lat="47.36914" lon="3.96275">
        <ele>309.2</ele>
        <time>2021-08-11T17:24:43Z</time>
      </trkpt>
      <trkpt lat="47.36915" lon="3.96293">
        <ele>311.12</ele>
        <time>2021-08-11T17:24:47Z</time>
      </trkpt>
      <trkpt lat="47.36917" lon="3.96303">
        <ele>311.12</ele>
        <time>2021-08-11T17:24:50Z</time>
      </trkpt>
      <trkpt lat="47.36919" lon="3.96306">
        <ele>311.6</ele>
        <time>2021-08-11T17:24:51Z</time>
      </trkpt>
      <trkpt lat="47.3692" lon="3.96307">
        <ele>312.09</ele>
        <time>2021-08-11T17:24:52Z</time>
      </trkpt>
      <trkpt lat="47.36921" lon="3.96308">
        <ele>312.09</ele>
        <time>2021-08-11T17:24:53Z</time>
      </trkpt>
      <trkpt lat="47.36923" lon="3.96309">
        <ele>312.57</ele>
        <time>2021-08-11T17:24:54Z</time>
      </trkpt>
      <trkpt lat="47.36925" lon="3.9631">
        <ele>312.57</ele>
        <time>2021-08-11T17:24:55Z</time>
      </trkpt>
      <trkpt lat="47.36926" lon="3.9631">
        <ele>312.57</ele>
        <time>2021-08-11T17:24:56Z</time>
      </trkpt>
      <trkpt lat="47.36931" lon="3.96309">
        <ele>314.01</ele>
        <time>2021-08-11T17:24:59Z</time>
      </trkpt>
      <trkpt lat="47.36943" lon="3.96303">
        <ele>314.97</ele>
        <time>2021-08-11T17:25:06Z</time>
      </trkpt>
      <trkpt lat="47.36954" lon="3.96296">
        <ele>316.89</ele>
        <time>2021-08-11T17:25:14Z</time>
      </trkpt>
      <trkpt lat="47.36966" lon="3.96293">
        <ele>317.85</ele>
        <time>2021-08-11T17:25:22Z</time>
      </trkpt>
      <trkpt lat="47.36968" lon="3.96295">
        <ele>318.81</ele>
        <time>2021-08-11T17:25:24Z</time>
      </trkpt>
      <trkpt lat="47.3697" lon="3.96296">
        <ele>318.81</ele>
        <time>2021-08-11T17:25:25Z</time>
      </trkpt>
      <trkpt lat="47.3697" lon="3.96298">
        <ele>318.81</ele>
        <time>2021-08-11T17:25:26Z</time>
      </trkpt>
      <trkpt lat="47.36973" lon="3.96302">
        <ele>319.3</ele>
        <time>2021-08-11T17:25:29Z</time>
      </trkpt>
      <trkpt lat="47.36974" lon="3.96303">
        <ele>319.3</ele>
        <time>2021-08-11T17:25:30Z</time>
      </trkpt>
      <trkpt lat="47.36974" lon="3.96306">
        <ele>319.78</ele>
        <time>2021-08-11T17:25:32Z</time>
      </trkpt>
      <trkpt lat="47.36974" lon="3.96308">
        <ele>319.78</ele>
        <time>2021-08-11T17:25:33Z</time>
      </trkpt>
      <trkpt lat="47.36974" lon="3.9631">
        <ele>319.78</ele>
        <time>2021-08-11T17:25:34Z</time>
      </trkpt>
      <trkpt lat="47.36968" lon="3.96323">
        <ele>320.74</ele>
        <time>2021-08-11T17:25:42Z</time>
      </trkpt>
      <trkpt lat="47.36967" lon="3.96325">
        <ele>321.22</ele>
        <time>2021-08-11T17:25:43Z</time>
      </trkpt>
      <trkpt lat="47.36967" lon="3.96327">
        <ele>321.22</ele>
        <time>2021-08-11T17:25:44Z</time>
      </trkpt>
      <trkpt lat="47.36966" lon="3.96329">
        <ele>321.7</ele>
        <time>2021-08-11T17:25:45Z</time>
      </trkpt>
      <trkpt lat="47.36965" lon="3.96331">
        <ele>321.7</ele>
        <time>2021-08-11T17:25:46Z</time>
      </trkpt>
      <trkpt lat="47.36964" lon="3.96332">
        <ele>321.7</ele>
        <time>2021-08-11T17:25:47Z</time>
      </trkpt>
      <trkpt lat="47.36964" lon="3.96334">
        <ele>321.7</ele>
        <time>2021-08-11T17:25:48Z</time>
      </trkpt>
      <trkpt lat="47.36963" lon="3.96336">
        <ele>321.7</ele>
        <time>2021-08-11T17:25:49Z</time>
      </trkpt>
      <trkpt lat="47.36958" lon="3.96352">
        <ele>322.66</ele>
        <time>2021-08-11T17:25:57Z</time>
      </trkpt>
      <trkpt lat="47.36956" lon="3.96359">
        <ele>322.66</ele>
        <time>2021-08-11T17:26:00Z</time>
      </trkpt>
      <trkpt lat="47.36954" lon="3.96364">
        <ele>323.14</ele>
        <time>2021-08-11T17:26:03Z</time>
      </trkpt>
      <trkpt lat="47.36952" lon="3.9638">
        <ele>324.1</ele>
        <time>2021-08-11T17:26:11Z</time>
      </trkpt>
      <trkpt lat="47.36953" lon="3.96396">
        <ele>324.1</ele>
        <time>2021-08-11T17:26:18Z</time>
      </trkpt>
      <trkpt lat="47.36958" lon="3.96414">
        <ele>324.58</ele>
        <time>2021-08-11T17:26:26Z</time>
      </trkpt>
      <trkpt lat="47.36961" lon="3.96431">
        <ele>325.06</ele>
        <time>2021-08-11T17:26:34Z</time>
      </trkpt>
      <trkpt lat="47.36963" lon="3.96457">
        <ele>325.54</ele>
        <time>2021-08-11T17:26:45Z</time>
      </trkpt>
      <trkpt lat="47.36965" lon="3.96472">
        <ele>326.02</ele>
        <time>2021-08-11T17:26:52Z</time>
      </trkpt>
      <trkpt lat="47.36966" lon="3.96491">
        <ele>326.5</ele>
        <time>2021-08-11T17:27:01Z</time>
      </trkpt>
      <trkpt lat="47.36966" lon="3.96495">
        <ele>326.99</ele>
        <time>2021-08-11T17:27:03Z</time>
      </trkpt>
      <trkpt lat="47.36966" lon="3.96497">
        <ele>326.99</ele>
        <time>2021-08-11T17:27:04Z</time>
      </trkpt>
      <trkpt lat="47.36966" lon="3.96499">
        <ele>326.99</ele>
        <time>2021-08-11T17:27:05Z</time>
      </trkpt>
      <trkpt lat="47.36968" lon="3.96514">
        <ele>327.47</ele>
        <time>2021-08-11T17:27:13Z</time>
      </trkpt>
      <trkpt lat="47.36973" lon="3.96534">
        <ele>328.43</ele>
        <time>2021-08-11T17:27:23Z</time>
      </trkpt>
      <trkpt lat="47.36976" lon="3.96544">
        <ele>328.91</ele>
        <time>2021-08-11T17:27:28Z</time>
      </trkpt>
      <trkpt lat="47.36976" lon="3.96546">
        <ele>328.91</ele>
        <time>2021-08-11T17:27:29Z</time>
      </trkpt>
      <trkpt lat="47.36977" lon="3.96548">
        <ele>328.91</ele>
        <time>2021-08-11T17:27:30Z</time>
      </trkpt>
      <trkpt lat="47.36977" lon="3.96551">
        <ele>328.91</ele>
        <time>2021-08-11T17:27:31Z</time>
      </trkpt>
      <trkpt lat="47.36977" lon="3.96552">
        <ele>329.39</ele>
        <time>2021-08-11T17:27:32Z</time>
      </trkpt>
      <trkpt lat="47.36978" lon="3.96554">
        <ele>329.39</ele>
        <time>2021-08-11T17:27:33Z</time>
      </trkpt>
      <trkpt lat="47.36979" lon="3.96556">
        <ele>329.39</ele>
        <time>2021-08-11T17:27:34Z</time>
      </trkpt>
      <trkpt lat="47.36979" lon="3.96558">
        <ele>329.39</ele>
        <time>2021-08-11T17:27:35Z</time>
      </trkpt>
      <trkpt lat="47.3698" lon="3.9656">
        <ele>329.39</ele>
        <time>2021-08-11T17:27:36Z</time>
      </trkpt>
      <trkpt lat="47.3698" lon="3.96562">
        <ele>329.87</ele>
        <time>2021-08-11T17:27:37Z</time>
      </trkpt>
      <trkpt lat="47.3698" lon="3.96564">
        <ele>329.87</ele>
        <time>2021-08-11T17:27:38Z</time>
      </trkpt>
      <trkpt lat="47.36983" lon="3.9658">
        <ele>330.83</ele>
        <time>2021-08-11T17:27:46Z</time>
      </trkpt>
      <trkpt lat="47.36988" lon="3.96597">
        <ele>331.79</ele>
        <time>2021-08-11T17:27:55Z</time>
      </trkpt>
      <trkpt lat="47.36994" lon="3.96614">
        <ele>332.27</ele>
        <time>2021-08-11T17:28:04Z</time>
      </trkpt>
      <trkpt lat="47.36999" lon="3.96626">
        <ele>333.71</ele>
        <time>2021-08-11T17:28:10Z</time>
      </trkpt>
      <trkpt lat="47.37002" lon="3.96636">
        <ele>333.71</ele>
        <time>2021-08-11T17:28:16Z</time>
      </trkpt>
      <trkpt lat="47.37005" lon="3.96644">
        <ele>334.2</ele>
        <time>2021-08-11T17:28:21Z</time>
      </trkpt>
      <trkpt lat="47.37005" lon="3.96646">
        <ele>334.2</ele>
        <time>2021-08-11T17:28:22Z</time>
      </trkpt>
      <trkpt lat="47.37006" lon="3.96647">
        <ele>334.2</ele>
        <time>2021-08-11T17:28:23Z</time>
      </trkpt>
      <trkpt lat="47.37007" lon="3.96649">
        <ele>334.2</ele>
        <time>2021-08-11T17:28:24Z</time>
      </trkpt>
      <trkpt lat="47.37007" lon="3.96651">
        <ele>334.2</ele>
        <time>2021-08-11T17:28:25Z</time>
      </trkpt>
      <trkpt lat="47.37008" lon="3.96653">
        <ele>334.68</ele>
        <time>2021-08-11T17:28:26Z</time>
      </trkpt>
      <trkpt lat="47.37009" lon="3.96654">
        <ele>334.68</ele>
        <time>2021-08-11T17:28:27Z</time>
      </trkpt>
      <trkpt lat="47.37009" lon="3.96656">
        <ele>334.68</ele>
        <time>2021-08-11T17:28:28Z</time>
      </trkpt>
      <trkpt lat="47.3701" lon="3.96658">
        <ele>334.68</ele>
        <time>2021-08-11T17:28:29Z</time>
      </trkpt>
      <trkpt lat="47.37011" lon="3.96659">
        <ele>334.68</ele>
        <time>2021-08-11T17:28:30Z</time>
      </trkpt>
      <trkpt lat="47.37011" lon="3.9666">
        <ele>334.68</ele>
        <time>2021-08-11T17:28:31Z</time>
      </trkpt>
      <trkpt lat="47.37012" lon="3.96662">
        <ele>335.64</ele>
        <time>2021-08-11T17:28:32Z</time>
      </trkpt>
      <trkpt lat="47.37012" lon="3.96664">
        <ele>335.64</ele>
        <time>2021-08-11T17:28:33Z</time>
      </trkpt>
      <trkpt lat="47.37015" lon="3.9667">
        <ele>335.64</ele>
        <time>2021-08-11T17:28:37Z</time>
      </trkpt>
      <trkpt lat="47.37015" lon="3.96672">
        <ele>335.64</ele>
        <time>2021-08-11T17:28:38Z</time>
      </trkpt>
      <trkpt lat="47.37016" lon="3.96674">
        <ele>336.6</ele>
        <time>2021-08-11T17:28:39Z</time>
      </trkpt>
      <trkpt lat="47.37022" lon="3.96688">
        <ele>337.08</ele>
        <time>2021-08-11T17:28:47Z</time>
      </trkpt>
      <trkpt lat="47.37028" lon="3.96706">
        <ele>339</ele>
        <time>2021-08-11T17:28:57Z</time>
      </trkpt>
      <trkpt lat="47.37033" lon="3.96722">
        <ele>339.96</ele>
        <time>2021-08-11T17:29:06Z</time>
      </trkpt>
      <trkpt lat="47.37038" lon="3.96734">
        <ele>341.41</ele>
        <time>2021-08-11T17:29:13Z</time>
      </trkpt>
      <trkpt lat="47.37038" lon="3.96737">
        <ele>341.89</ele>
        <time>2021-08-11T17:29:15Z</time>
      </trkpt>
      <trkpt lat="47.37039" lon="3.96739">
        <ele>341.89</ele>
        <time>2021-08-11T17:29:16Z</time>
      </trkpt>
      <trkpt lat="47.37045" lon="3.96751">
        <ele>343.81</ele>
        <time>2021-08-11T17:29:24Z</time>
      </trkpt>
      <trkpt lat="47.37046" lon="3.96752">
        <ele>343.81</ele>
        <time>2021-08-11T17:29:25Z</time>
      </trkpt>
      <trkpt lat="47.37047" lon="3.96754">
        <ele>343.81</ele>
        <time>2021-08-11T17:29:26Z</time>
      </trkpt>
      <trkpt lat="47.37048" lon="3.96755">
        <ele>344.29</ele>
        <time>2021-08-11T17:29:27Z</time>
      </trkpt>
      <trkpt lat="47.37049" lon="3.96756">
        <ele>344.29</ele>
        <time>2021-08-11T17:29:28Z</time>
      </trkpt>
      <trkpt lat="47.37052" lon="3.9676">
        <ele>344.77</ele>
        <time>2021-08-11T17:29:31Z</time>
      </trkpt>
      <trkpt lat="47.37053" lon="3.96761">
        <ele>344.77</ele>
        <time>2021-08-11T17:29:32Z</time>
      </trkpt>
      <trkpt lat="47.37059" lon="3.96775">
        <ele>345.73</ele>
        <time>2021-08-11T17:29:41Z</time>
      </trkpt>
      <trkpt lat="47.37062" lon="3.9679">
        <ele>347.65</ele>
        <time>2021-08-11T17:29:49Z</time>
      </trkpt>
      <trkpt lat="47.37066" lon="3.96804">
        <ele>348.13</ele>
        <time>2021-08-11T17:29:57Z</time>
      </trkpt>
      <trkpt lat="47.37067" lon="3.96805">
        <ele>348.13</ele>
        <time>2021-08-11T17:29:58Z</time>
      </trkpt>
      <trkpt lat="47.37067" lon="3.96807">
        <ele>348.62</ele>
        <time>2021-08-11T17:29:59Z</time>
      </trkpt>
      <trkpt lat="47.37068" lon="3.96809">
        <ele>348.62</ele>
        <time>2021-08-11T17:30:00Z</time>
      </trkpt>
      <trkpt lat="47.37068" lon="3.9681">
        <ele>348.62</ele>
        <time>2021-08-11T17:30:01Z</time>
      </trkpt>
      <trkpt lat="47.37069" lon="3.96812">
        <ele>349.58</ele>
        <time>2021-08-11T17:30:02Z</time>
      </trkpt>
      <trkpt lat="47.37069" lon="3.96813">
        <ele>349.58</ele>
        <time>2021-08-11T17:30:03Z</time>
      </trkpt>
      <trkpt lat="47.3707" lon="3.96815">
        <ele>349.58</ele>
        <time>2021-08-11T17:30:04Z</time>
      </trkpt>
      <trkpt lat="47.37071" lon="3.96816">
        <ele>350.06</ele>
        <time>2021-08-11T17:30:05Z</time>
      </trkpt>
      <trkpt lat="47.37071" lon="3.96818">
        <ele>350.06</ele>
        <time>2021-08-11T17:30:06Z</time>
      </trkpt>
      <trkpt lat="47.37072" lon="3.9682">
        <ele>350.06</ele>
        <time>2021-08-11T17:30:07Z</time>
      </trkpt>
      <trkpt lat="47.37073" lon="3.96821">
        <ele>350.54</ele>
        <time>2021-08-11T17:30:08Z</time>
      </trkpt>
      <trkpt lat="47.37073" lon="3.96823">
        <ele>351.02</ele>
        <time>2021-08-11T17:30:09Z</time>
      </trkpt>
      <trkpt lat="47.37074" lon="3.96825">
        <ele>351.02</ele>
        <time>2021-08-11T17:30:10Z</time>
      </trkpt>
      <trkpt lat="47.37075" lon="3.96826">
        <ele>351.02</ele>
        <time>2021-08-11T17:30:11Z</time>
      </trkpt>
      <trkpt lat="47.37075" lon="3.96828">
        <ele>351.02</ele>
        <time>2021-08-11T17:30:12Z</time>
      </trkpt>
      <trkpt lat="47.37076" lon="3.96829">
        <ele>351.5</ele>
        <time>2021-08-11T17:30:13Z</time>
      </trkpt>
      <trkpt lat="47.37081" lon="3.9684">
        <ele>353.42</ele>
        <time>2021-08-11T17:30:21Z</time>
      </trkpt>
      <trkpt lat="47.37086" lon="3.96851">
        <ele>354.38</ele>
        <time>2021-08-11T17:30:29Z</time>
      </trkpt>
      <trkpt lat="47.37087" lon="3.96852">
        <ele>354.86</ele>
        <time>2021-08-11T17:30:30Z</time>
      </trkpt>
      <trkpt lat="47.37087" lon="3.96854">
        <ele>354.86</ele>
        <time>2021-08-11T17:30:31Z</time>
      </trkpt>
      <trkpt lat="47.37088" lon="3.96856">
        <ele>354.86</ele>
        <time>2021-08-11T17:30:32Z</time>
      </trkpt>
      <trkpt lat="47.37088" lon="3.96857">
        <ele>354.86</ele>
        <time>2021-08-11T17:30:33Z</time>
      </trkpt>
      <trkpt lat="47.37092" lon="3.96868">
        <ele>355.83</ele>
        <time>2021-08-11T17:30:40Z</time>
      </trkpt>
      <trkpt lat="47.37093" lon="3.9687">
        <ele>356.31</ele>
        <time>2021-08-11T17:30:41Z</time>
      </trkpt>
      <trkpt lat="47.37094" lon="3.96872">
        <ele>356.31</ele>
        <time>2021-08-11T17:30:42Z</time>
      </trkpt>
      <trkpt lat="47.37094" lon="3.96873">
        <ele>356.79</ele>
        <time>2021-08-11T17:30:43Z</time>
      </trkpt>
      <trkpt lat="47.37095" lon="3.96875">
        <ele>356.79</ele>
        <time>2021-08-11T17:30:44Z</time>
      </trkpt>
      <trkpt lat="47.37096" lon="3.96876">
        <ele>357.27</ele>
        <time>2021-08-11T17:30:45Z</time>
      </trkpt>
      <trkpt lat="47.37097" lon="3.96877">
        <ele>357.27</ele>
        <time>2021-08-11T17:30:46Z</time>
      </trkpt>
      <trkpt lat="47.37103" lon="3.96891">
        <ele>359.19</ele>
        <time>2021-08-11T17:30:55Z</time>
      </trkpt>
      <trkpt lat="47.37105" lon="3.96895">
        <ele>359.67</ele>
        <time>2021-08-11T17:30:58Z</time>
      </trkpt>
      <trkpt lat="47.37105" lon="3.96897">
        <ele>359.67</ele>
        <time>2021-08-11T17:30:59Z</time>
      </trkpt>
      <trkpt lat="47.37106" lon="3.96899">
        <ele>359.67</ele>
        <time>2021-08-11T17:31:00Z</time>
      </trkpt>
      <trkpt lat="47.37106" lon="3.969">
        <ele>360.63</ele>
        <time>2021-08-11T17:31:01Z</time>
      </trkpt>
      <trkpt lat="47.37107" lon="3.96901">
        <ele>360.63</ele>
        <time>2021-08-11T17:31:02Z</time>
      </trkpt>
      <trkpt lat="47.37108" lon="3.96903">
        <ele>360.63</ele>
        <time>2021-08-11T17:31:03Z</time>
      </trkpt>
      <trkpt lat="47.37109" lon="3.96905">
        <ele>361.11</ele>
        <time>2021-08-11T17:31:04Z</time>
      </trkpt>
      <trkpt lat="47.37109" lon="3.96906">
        <ele>361.11</ele>
        <time>2021-08-11T17:31:05Z</time>
      </trkpt>
      <trkpt lat="47.3711" lon="3.96907">
        <ele>361.59</ele>
        <time>2021-08-11T17:31:06Z</time>
      </trkpt>
      <trkpt lat="47.37111" lon="3.96908">
        <ele>361.59</ele>
        <time>2021-08-11T17:31:07Z</time>
      </trkpt>
      <trkpt lat="47.37112" lon="3.9691">
        <ele>361.59</ele>
        <time>2021-08-11T17:31:08Z</time>
      </trkpt>
      <trkpt lat="47.37113" lon="3.96911">
        <ele>362.07</ele>
        <time>2021-08-11T17:31:09Z</time>
      </trkpt>
      <trkpt lat="47.37113" lon="3.96913">
        <ele>362.07</ele>
        <time>2021-08-11T17:31:10Z</time>
      </trkpt>
      <trkpt lat="47.37114" lon="3.96914">
        <ele>362.07</ele>
        <time>2021-08-11T17:31:11Z</time>
      </trkpt>
      <trkpt lat="47.37114" lon="3.96916">
        <ele>363.04</ele>
        <time>2021-08-11T17:31:12Z</time>
      </trkpt>
      <trkpt lat="47.37115" lon="3.96917">
        <ele>362.55</ele>
        <time>2021-08-11T17:31:13Z</time>
      </trkpt>
      <trkpt lat="47.37115" lon="3.96919">
        <ele>362.55</ele>
        <time>2021-08-11T17:31:14Z</time>
      </trkpt>
      <trkpt lat="47.37116" lon="3.9692">
        <ele>362.55</ele>
        <time>2021-08-11T17:31:15Z</time>
      </trkpt>
      <trkpt lat="47.37116" lon="3.96922">
        <ele>363.04</ele>
        <time>2021-08-11T17:31:16Z</time>
      </trkpt>
      <trkpt lat="47.37118" lon="3.96932">
        <ele>364.48</ele>
        <time>2021-08-11T17:31:22Z</time>
      </trkpt>
      <trkpt lat="47.37119" lon="3.96944">
        <ele>366.4</ele>
        <time>2021-08-11T17:31:30Z</time>
      </trkpt>
      <trkpt lat="47.37121" lon="3.96954">
        <ele>366.88</ele>
        <time>2021-08-11T17:31:36Z</time>
      </trkpt>
      <trkpt lat="47.37122" lon="3.96958">
        <ele>367.84</ele>
        <time>2021-08-11T17:31:41Z</time>
      </trkpt>
      <trkpt lat="47.37127" lon="3.96971">
        <ele>368.8</ele>
        <time>2021-08-11T17:31:52Z</time>
      </trkpt>
      <trkpt lat="47.37132" lon="3.96982">
        <ele>370.24</ele>
        <time>2021-08-11T17:32:03Z</time>
      </trkpt>
      <trkpt lat="47.37133" lon="3.96984">
        <ele>371.21</ele>
        <time>2021-08-11T17:32:11Z</time>
      </trkpt>
      <trkpt lat="47.37135" lon="3.96989">
        <ele>371.69</ele>
        <time>2021-08-11T17:32:22Z</time>
      </trkpt>
      <trkpt lat="47.37138" lon="3.96999">
        <ele>373.13</ele>
        <time>2021-08-11T17:32:31Z</time>
      </trkpt>
      <trkpt lat="47.37142" lon="3.9701">
        <ele>374.57</ele>
        <time>2021-08-11T17:32:40Z</time>
      </trkpt>
      <trkpt lat="47.37144" lon="3.97015">
        <ele>374.57</ele>
        <time>2021-08-11T17:32:43Z</time>
      </trkpt>
      <trkpt lat="47.37144" lon="3.97016">
        <ele>374.57</ele>
        <time>2021-08-11T17:32:44Z</time>
      </trkpt>
      <trkpt lat="47.37145" lon="3.97017">
        <ele>374.57</ele>
        <time>2021-08-11T17:32:45Z</time>
      </trkpt>
      <trkpt lat="47.37145" lon="3.97019">
        <ele>374.57</ele>
        <time>2021-08-11T17:32:46Z</time>
      </trkpt>
      <trkpt lat="47.37146" lon="3.97021">
        <ele>375.53</ele>
        <time>2021-08-11T17:32:47Z</time>
      </trkpt>
      <trkpt lat="47.37146" lon="3.97022">
        <ele>375.53</ele>
        <time>2021-08-11T17:32:48Z</time>
      </trkpt>
      <trkpt lat="47.37147" lon="3.97024">
        <ele>375.53</ele>
        <time>2021-08-11T17:32:49Z</time>
      </trkpt>
      <trkpt lat="47.37147" lon="3.97025">
        <ele>375.53</ele>
        <time>2021-08-11T17:32:50Z</time>
      </trkpt>
      <trkpt lat="47.37149" lon="3.97029">
        <ele>376.01</ele>
        <time>2021-08-11T17:32:58Z</time>
      </trkpt>
      <trkpt lat="47.37151" lon="3.97035">
        <ele>376.49</ele>
        <time>2021-08-11T17:33:03Z</time>
      </trkpt>
      <trkpt lat="47.37157" lon="3.9705">
        <ele>376.97</ele>
        <time>2021-08-11T17:33:13Z</time>
      </trkpt>
      <trkpt lat="47.37161" lon="3.97062">
        <ele>377.94</ele>
        <time>2021-08-11T17:33:20Z</time>
      </trkpt>
      <trkpt lat="47.37162" lon="3.97063">
        <ele>377.94</ele>
        <time>2021-08-11T17:33:21Z</time>
      </trkpt>
      <trkpt lat="47.37162" lon="3.97064">
        <ele>378.9</ele>
        <time>2021-08-11T17:33:22Z</time>
      </trkpt>
      <trkpt lat="47.37163" lon="3.97066">
        <ele>378.9</ele>
        <time>2021-08-11T17:33:23Z</time>
      </trkpt>
      <trkpt lat="47.37163" lon="3.97067">
        <ele>378.9</ele>
        <time>2021-08-11T17:33:24Z</time>
      </trkpt>
      <trkpt lat="47.37164" lon="3.97068">
        <ele>378.9</ele>
        <time>2021-08-11T17:33:25Z</time>
      </trkpt>
      <trkpt lat="47.37165" lon="3.9707">
        <ele>378.9</ele>
        <time>2021-08-11T17:33:26Z</time>
      </trkpt>
      <trkpt lat="47.37165" lon="3.97071">
        <ele>378.9</ele>
        <time>2021-08-11T17:33:27Z</time>
      </trkpt>
      <trkpt lat="47.37165" lon="3.97073">
        <ele>379.38</ele>
        <time>2021-08-11T17:33:28Z</time>
      </trkpt>
      <trkpt lat="47.37168" lon="3.97079">
        <ele>380.34</ele>
        <time>2021-08-11T17:33:32Z</time>
      </trkpt>
      <trkpt lat="47.37168" lon="3.97081">
        <ele>380.34</ele>
        <time>2021-08-11T17:33:33Z</time>
      </trkpt>
      <trkpt lat="47.37169" lon="3.97082">
        <ele>380.82</ele>
        <time>2021-08-11T17:33:34Z</time>
      </trkpt>
      <trkpt lat="47.37171" lon="3.97087">
        <ele>381.3</ele>
        <time>2021-08-11T17:33:37Z</time>
      </trkpt>
      <trkpt lat="47.37171" lon="3.97089">
        <ele>381.3</ele>
        <time>2021-08-11T17:33:38Z</time>
      </trkpt>
      <trkpt lat="47.37172" lon="3.9709">
        <ele>381.3</ele>
        <time>2021-08-11T17:33:39Z</time>
      </trkpt>
      <trkpt lat="47.37172" lon="3.97092">
        <ele>381.3</ele>
        <time>2021-08-11T17:33:40Z</time>
      </trkpt>
      <trkpt lat="47.37173" lon="3.97093">
        <ele>381.3</ele>
        <time>2021-08-11T17:33:41Z</time>
      </trkpt>
      <trkpt lat="47.37173" lon="3.97095">
        <ele>381.78</ele>
        <time>2021-08-11T17:33:42Z</time>
      </trkpt>
      <trkpt lat="47.37174" lon="3.97097">
        <ele>381.78</ele>
        <time>2021-08-11T17:33:43Z</time>
      </trkpt>
      <trkpt lat="47.37175" lon="3.97099">
        <ele>381.78</ele>
        <time>2021-08-11T17:33:44Z</time>
      </trkpt>
      <trkpt lat="47.37175" lon="3.971">
        <ele>381.78</ele>
        <time>2021-08-11T17:33:45Z</time>
      </trkpt>
      <trkpt lat="47.37175" lon="3.97102">
        <ele>382.26</ele>
        <time>2021-08-11T17:33:46Z</time>
      </trkpt>
      <trkpt lat="47.37176" lon="3.97103">
        <ele>382.26</ele>
        <time>2021-08-11T17:33:47Z</time>
      </trkpt>
      <trkpt lat="47.37179" lon="3.97113">
        <ele>382.74</ele>
        <time>2021-08-11T17:33:53Z</time>
      </trkpt>
      <trkpt lat="47.37181" lon="3.97119">
        <ele>383.7</ele>
        <time>2021-08-11T17:33:57Z</time>
      </trkpt>
      <trkpt lat="47.37183" lon="3.97132">
        <ele>384.66</ele>
        <time>2021-08-11T17:34:04Z</time>
      </trkpt>
      <trkpt lat="47.37183" lon="3.97134">
        <ele>384.66</ele>
        <time>2021-08-11T17:34:05Z</time>
      </trkpt>
      <trkpt lat="47.37184" lon="3.97136">
        <ele>384.66</ele>
        <time>2021-08-11T17:34:06Z</time>
      </trkpt>
      <trkpt lat="47.37188" lon="3.97149">
        <ele>385.15</ele>
        <time>2021-08-11T17:34:13Z</time>
      </trkpt>
      <trkpt lat="47.37188" lon="3.97151">
        <ele>385.63</ele>
        <time>2021-08-11T17:34:14Z</time>
      </trkpt>
      <trkpt lat="47.37189" lon="3.97153">
        <ele>385.63</ele>
        <time>2021-08-11T17:34:15Z</time>
      </trkpt>
      <trkpt lat="47.3719" lon="3.97159">
        <ele>386.59</ele>
        <time>2021-08-11T17:34:19Z</time>
      </trkpt>
      <trkpt lat="47.3719" lon="3.97161">
        <ele>386.59</ele>
        <time>2021-08-11T17:34:20Z</time>
      </trkpt>
      <trkpt lat="47.37192" lon="3.9717">
        <ele>387.07</ele>
        <time>2021-08-11T17:34:25Z</time>
      </trkpt>
      <trkpt lat="47.37192" lon="3.97174">
        <ele>387.07</ele>
        <time>2021-08-11T17:34:27Z</time>
      </trkpt>
      <trkpt lat="47.37192" lon="3.97175">
        <ele>387.07</ele>
        <time>2021-08-11T17:34:28Z</time>
      </trkpt>
      <trkpt lat="47.37192" lon="3.97177">
        <ele>387.55</ele>
        <time>2021-08-11T17:34:29Z</time>
      </trkpt>
      <trkpt lat="47.37193" lon="3.97179">
        <ele>387.55</ele>
        <time>2021-08-11T17:34:30Z</time>
      </trkpt>
      <trkpt lat="47.37193" lon="3.97181">
        <ele>387.55</ele>
        <time>2021-08-11T17:34:31Z</time>
      </trkpt>
      <trkpt lat="47.37194" lon="3.97183">
        <ele>387.55</ele>
        <time>2021-08-11T17:34:32Z</time>
      </trkpt>
      <trkpt lat="47.37194" lon="3.97184">
        <ele>388.03</ele>
        <time>2021-08-11T17:34:33Z</time>
      </trkpt>
      <trkpt lat="47.37194" lon="3.97186">
        <ele>388.03</ele>
        <time>2021-08-11T17:34:34Z</time>
      </trkpt>
      <trkpt lat="47.37195" lon="3.97188">
        <ele>388.03</ele>
        <time>2021-08-11T17:34:35Z</time>
      </trkpt>
      <trkpt lat="47.37195" lon="3.9719">
        <ele>388.03</ele>
        <time>2021-08-11T17:34:36Z</time>
      </trkpt>
      <trkpt lat="47.37195" lon="3.97192">
        <ele>388.03</ele>
        <time>2021-08-11T17:34:37Z</time>
      </trkpt>
      <trkpt lat="47.37197" lon="3.97195">
        <ele>388.51</ele>
        <time>2021-08-11T17:34:39Z</time>
      </trkpt>
      <trkpt lat="47.37197" lon="3.97197">
        <ele>388.51</ele>
        <time>2021-08-11T17:34:40Z</time>
      </trkpt>
      <trkpt lat="47.37197" lon="3.97199">
        <ele>388.51</ele>
        <time>2021-08-11T17:34:41Z</time>
      </trkpt>
      <trkpt lat="47.37197" lon="3.97201">
        <ele>388.51</ele>
        <time>2021-08-11T17:34:42Z</time>
      </trkpt>
      <trkpt lat="47.37197" lon="3.97203">
        <ele>388.51</ele>
        <time>2021-08-11T17:34:43Z</time>
      </trkpt>
      <trkpt lat="47.37198" lon="3.97205">
        <ele>388.51</ele>
        <time>2021-08-11T17:34:44Z</time>
      </trkpt>
      <trkpt lat="47.37198" lon="3.97206">
        <ele>388.99</ele>
        <time>2021-08-11T17:34:45Z</time>
      </trkpt>
      <trkpt lat="47.37202" lon="3.97221">
        <ele>389.95</ele>
        <time>2021-08-11T17:34:54Z</time>
      </trkpt>
      <trkpt lat="47.37209" lon="3.97236">
        <ele>390.43</ele>
        <time>2021-08-11T17:35:02Z</time>
      </trkpt>
      <trkpt lat="47.37218" lon="3.9725">
        <ele>390.91</ele>
        <time>2021-08-11T17:35:10Z</time>
      </trkpt>
      <trkpt lat="47.37226" lon="3.97259">
        <ele>391.39</ele>
        <time>2021-08-11T17:35:16Z</time>
      </trkpt>
      <trkpt lat="47.37229" lon="3.97264">
        <ele>391.87</ele>
        <time>2021-08-11T17:35:19Z</time>
      </trkpt>
      <trkpt lat="47.3723" lon="3.97266">
        <ele>391.87</ele>
        <time>2021-08-11T17:35:20Z</time>
      </trkpt>
      <trkpt lat="47.37243" lon="3.97283">
        <ele>392.36</ele>
        <time>2021-08-11T17:35:29Z</time>
      </trkpt>
      <trkpt lat="47.37257" lon="3.97301">
        <ele>392.36</ele>
        <time>2021-08-11T17:35:38Z</time>
      </trkpt>
      <trkpt lat="47.37274" lon="3.97318">
        <ele>393.32</ele>
        <time>2021-08-11T17:35:48Z</time>
      </trkpt>
      <trkpt lat="47.37283" lon="3.97331">
        <ele>394.28</ele>
        <time>2021-08-11T17:35:55Z</time>
      </trkpt>
      <trkpt lat="47.37285" lon="3.97333">
        <ele>394.76</ele>
        <time>2021-08-11T17:36:02Z</time>
      </trkpt>
      <trkpt lat="47.37286" lon="3.97333">
        <ele>394.76</ele>
        <time>2021-08-11T17:36:10Z</time>
      </trkpt>
      <trkpt lat="47.37285" lon="3.97334">
        <ele>394.76</ele>
        <time>2021-08-11T17:36:24Z</time>
      </trkpt>
      <trkpt lat="47.37285" lon="3.97334">
        <ele>394.76</ele>
        <time>2021-08-11T17:36:39Z</time>
      </trkpt>
      <trkpt lat="47.37286" lon="3.97337">
        <ele>394.76</ele>
        <time>2021-08-11T17:36:46Z</time>
      </trkpt>
      <trkpt lat="47.37286" lon="3.97339">
        <ele>394.76</ele>
        <time>2021-08-11T17:36:47Z</time>
      </trkpt>
      <trkpt lat="47.37286" lon="3.97341">
        <ele>394.76</ele>
        <time>2021-08-11T17:36:48Z</time>
      </trkpt>
      <trkpt lat="47.37286" lon="3.97342">
        <ele>394.76</ele>
        <time>2021-08-11T17:36:54Z</time>
      </trkpt>
      <trkpt lat="47.37288" lon="3.9735">
        <ele>395.72</ele>
        <time>2021-08-11T17:37:03Z</time>
      </trkpt>
      <trkpt lat="47.37296" lon="3.97369">
        <ele>396.68</ele>
        <time>2021-08-11T17:37:11Z</time>
      </trkpt>
      <trkpt lat="47.37303" lon="3.97389">
        <ele>398.12</ele>
        <time>2021-08-11T17:37:19Z</time>
      </trkpt>
      <trkpt lat="47.3731" lon="3.97409">
        <ele>399.57</ele>
        <time>2021-08-11T17:37:28Z</time>
      </trkpt>
      <trkpt lat="47.37321" lon="3.97417">
        <ele>401.01</ele>
        <time>2021-08-11T17:37:34Z</time>
      </trkpt>
      <trkpt lat="47.37336" lon="3.97418">
        <ele>401.49</ele>
        <time>2021-08-11T17:37:43Z</time>
      </trkpt>
      <trkpt lat="47.37336" lon="3.97418">
        <ele>401.49</ele>
        <time>2021-08-11T17:37:50Z</time>
      </trkpt>
      <trkpt lat="47.37336" lon="3.97416">
        <ele>401.49</ele>
        <time>2021-08-11T17:38:04Z</time>
      </trkpt>
      <trkpt lat="47.37335" lon="3.97417">
        <ele>401.97</ele>
        <time>2021-08-11T17:38:16Z</time>
      </trkpt>
      <trkpt lat="47.37336" lon="3.97419">
        <ele>401.97</ele>
        <time>2021-08-11T17:38:28Z</time>
      </trkpt>
      <trkpt lat="47.37339" lon="3.9742">
        <ele>401.97</ele>
        <time>2021-08-11T17:38:30Z</time>
      </trkpt>
      <trkpt lat="47.37353" lon="3.97422">
        <ele>401.97</ele>
        <time>2021-08-11T17:38:37Z</time>
      </trkpt>
      <trkpt lat="47.37379" lon="3.97434">
        <ele>402.45</ele>
        <time>2021-08-11T17:38:48Z</time>
      </trkpt>
      <trkpt lat="47.37398" lon="3.97446">
        <ele>402.93</ele>
        <time>2021-08-11T17:38:57Z</time>
      </trkpt>
      <trkpt lat="47.37418" lon="3.97459">
        <ele>403.89</ele>
        <time>2021-08-11T17:39:07Z</time>
      </trkpt>
      <trkpt lat="47.37433" lon="3.97468">
        <ele>404.37</ele>
        <time>2021-08-11T17:39:15Z</time>
      </trkpt>
      <trkpt lat="47.3745" lon="3.97478">
        <ele>404.85</ele>
        <time>2021-08-11T17:39:23Z</time>
      </trkpt>
      <trkpt lat="47.37461" lon="3.97493">
        <ele>404.85</ele>
        <time>2021-08-11T17:39:29Z</time>
      </trkpt>
      <trkpt lat="47.37471" lon="3.97512">
        <ele>404.85</ele>
        <time>2021-08-11T17:39:35Z</time>
      </trkpt>
      <trkpt lat="47.37475" lon="3.97529">
        <ele>405.33</ele>
        <time>2021-08-11T17:39:41Z</time>
      </trkpt>
      <trkpt lat="47.37471" lon="3.97545">
        <ele>406.29</ele>
        <time>2021-08-11T17:39:47Z</time>
      </trkpt>
      <trkpt lat="47.37466" lon="3.97549">
        <ele>406.29</ele>
        <time>2021-08-11T17:39:50Z</time>
      </trkpt>
      <trkpt lat="47.37464" lon="3.9755">
        <ele>406.77</ele>
        <time>2021-08-11T17:39:51Z</time>
      </trkpt>
      <trkpt lat="47.37451" lon="3.97565">
        <ele>408.7</ele>
        <time>2021-08-11T17:40:00Z</time>
      </trkpt>
      <trkpt lat="47.37442" lon="3.97584">
        <ele>410.14</ele>
        <time>2021-08-11T17:40:09Z</time>
      </trkpt>
      <trkpt lat="47.37436" lon="3.97609">
        <ele>412.06</ele>
        <time>2021-08-11T17:40:19Z</time>
      </trkpt>
      <trkpt lat="47.37431" lon="3.97628">
        <ele>413.02</ele>
        <time>2021-08-11T17:40:28Z</time>
      </trkpt>
      <trkpt lat="47.37428" lon="3.97644">
        <ele>413.98</ele>
        <time>2021-08-11T17:40:36Z</time>
      </trkpt>
      <trkpt lat="47.37428" lon="3.97646">
        <ele>413.98</ele>
        <time>2021-08-11T17:40:37Z</time>
      </trkpt>
      <trkpt lat="47.37427" lon="3.97648">
        <ele>413.98</ele>
        <time>2021-08-11T17:40:38Z</time>
      </trkpt>
      <trkpt lat="47.37427" lon="3.9765">
        <ele>414.47</ele>
        <time>2021-08-11T17:40:39Z</time>
      </trkpt>
      <trkpt lat="47.37426" lon="3.97652">
        <ele>414.47</ele>
        <time>2021-08-11T17:40:40Z</time>
      </trkpt>
      <trkpt lat="47.37426" lon="3.97654">
        <ele>414.47</ele>
        <time>2021-08-11T17:40:41Z</time>
      </trkpt>
      <trkpt lat="47.37425" lon="3.97656">
        <ele>414.47</ele>
        <time>2021-08-11T17:40:42Z</time>
      </trkpt>
      <trkpt lat="47.37425" lon="3.97658">
        <ele>414.95</ele>
        <time>2021-08-11T17:40:43Z</time>
      </trkpt>
      <trkpt lat="47.37424" lon="3.9766">
        <ele>414.95</ele>
        <time>2021-08-11T17:40:44Z</time>
      </trkpt>
      <trkpt lat="47.37424" lon="3.97662">
        <ele>415.43</ele>
        <time>2021-08-11T17:40:45Z</time>
      </trkpt>
      <trkpt lat="47.37423" lon="3.97664">
        <ele>415.43</ele>
        <time>2021-08-11T17:40:46Z</time>
      </trkpt>
      <trkpt lat="47.37423" lon="3.97666">
        <ele>415.43</ele>
        <time>2021-08-11T17:40:47Z</time>
      </trkpt>
      <trkpt lat="47.37422" lon="3.97668">
        <ele>415.43</ele>
        <time>2021-08-11T17:40:48Z</time>
      </trkpt>
      <trkpt lat="47.37421" lon="3.97674">
        <ele>415.91</ele>
        <time>2021-08-11T17:40:51Z</time>
      </trkpt>
      <trkpt lat="47.3742" lon="3.97676">
        <ele>415.91</ele>
        <time>2021-08-11T17:40:52Z</time>
      </trkpt>
      <trkpt lat="47.3742" lon="3.97678">
        <ele>416.39</ele>
        <time>2021-08-11T17:40:53Z</time>
      </trkpt>
      <trkpt lat="47.37419" lon="3.97681">
        <ele>416.39</ele>
        <time>2021-08-11T17:40:54Z</time>
      </trkpt>
      <trkpt lat="47.37418" lon="3.97683">
        <ele>416.87</ele>
        <time>2021-08-11T17:40:55Z</time>
      </trkpt>
      <trkpt lat="47.37418" lon="3.97685">
        <ele>416.87</ele>
        <time>2021-08-11T17:40:56Z</time>
      </trkpt>
      <trkpt lat="47.37417" lon="3.97688">
        <ele>416.87</ele>
        <time>2021-08-11T17:40:57Z</time>
      </trkpt>
      <trkpt lat="47.37416" lon="3.9769">
        <ele>416.87</ele>
        <time>2021-08-11T17:40:58Z</time>
      </trkpt>
      <trkpt lat="47.3741" lon="3.97716">
        <ele>418.31</ele>
        <time>2021-08-11T17:41:08Z</time>
      </trkpt>
      <trkpt lat="47.37397" lon="3.97744">
        <ele>420.71</ele>
        <time>2021-08-11T17:41:20Z</time>
      </trkpt>
      <trkpt lat="47.37386" lon="3.97766">
        <ele>421.68</ele>
        <time>2021-08-11T17:41:30Z</time>
      </trkpt>
      <trkpt lat="47.37373" lon="3.97794">
        <ele>421.68</ele>
        <time>2021-08-11T17:41:38Z</time>
      </trkpt>
      <trkpt lat="47.37357" lon="3.97829">
        <ele>421.68</ele>
        <time>2021-08-11T17:41:47Z</time>
      </trkpt>
      <trkpt lat="47.37339" lon="3.97865">
        <ele>421.68</ele>
        <time>2021-08-11T17:41:56Z</time>
      </trkpt>
      <trkpt lat="47.37323" lon="3.97898">
        <ele>420.23</ele>
        <time>2021-08-11T17:42:03Z</time>
      </trkpt>
      <trkpt lat="47.373" lon="3.97945">
        <ele>419.75</ele>
        <time>2021-08-11T17:42:12Z</time>
      </trkpt>
      <trkpt lat="47.37298" lon="3.9795">
        <ele>419.75</ele>
        <time>2021-08-11T17:42:13Z</time>
      </trkpt>
      <trkpt lat="47.37296" lon="3.97955">
        <ele>419.75</ele>
        <time>2021-08-11T17:42:14Z</time>
      </trkpt>
      <trkpt lat="47.37277" lon="3.98001">
        <ele>419.75</ele>
        <time>2021-08-11T17:42:23Z</time>
      </trkpt>
      <trkpt lat="47.37264" lon="3.98048">
        <ele>421.68</ele>
        <time>2021-08-11T17:42:33Z</time>
      </trkpt>
      <trkpt lat="47.37257" lon="3.98077">
        <ele>422.64</ele>
        <time>2021-08-11T17:42:40Z</time>
      </trkpt>
      <trkpt lat="47.37244" lon="3.98122">
        <ele>424.08</ele>
        <time>2021-08-11T17:42:51Z</time>
      </trkpt>
      <trkpt lat="47.37237" lon="3.98148">
        <ele>425.52</ele>
        <time>2021-08-11T17:42:58Z</time>
      </trkpt>
      <trkpt lat="47.37225" lon="3.98185">
        <ele>426</ele>
        <time>2021-08-11T17:43:08Z</time>
      </trkpt>
      <trkpt lat="47.37213" lon="3.98215">
        <ele>426.96</ele>
        <time>2021-08-11T17:43:16Z</time>
      </trkpt>
      <trkpt lat="47.372" lon="3.98248">
        <ele>427.44</ele>
        <time>2021-08-11T17:43:25Z</time>
      </trkpt>
      <trkpt lat="47.37187" lon="3.98284">
        <ele>427.92</ele>
        <time>2021-08-11T17:43:35Z</time>
      </trkpt>
      <trkpt lat="47.37184" lon="3.98324">
        <ele>429.85</ele>
        <time>2021-08-11T17:43:46Z</time>
      </trkpt>
      <trkpt lat="47.37185" lon="3.98356">
        <ele>431.29</ele>
        <time>2021-08-11T17:43:55Z</time>
      </trkpt>
      <trkpt lat="47.37187" lon="3.98397">
        <ele>433.21</ele>
        <time>2021-08-11T17:44:07Z</time>
      </trkpt>
      <trkpt lat="47.37189" lon="3.98428">
        <ele>434.65</ele>
        <time>2021-08-11T17:44:16Z</time>
      </trkpt>
      <trkpt lat="47.3719" lon="3.98465">
        <ele>435.61</ele>
        <time>2021-08-11T17:44:26Z</time>
      </trkpt>
      <trkpt lat="47.3719" lon="3.98504">
        <ele>435.61</ele>
        <time>2021-08-11T17:44:34Z</time>
      </trkpt>
      <trkpt lat="47.37186" lon="3.98579">
        <ele>433.21</ele>
        <time>2021-08-11T17:44:45Z</time>
      </trkpt>
      <trkpt lat="47.3718" lon="3.98665">
        <ele>432.25</ele>
        <time>2021-08-11T17:44:56Z</time>
      </trkpt>
      <trkpt lat="47.37171" lon="3.98734">
        <ele>432.25</ele>
        <time>2021-08-11T17:45:05Z</time>
      </trkpt>
      <trkpt lat="47.37162" lon="3.98803">
        <ele>433.69</ele>
        <time>2021-08-11T17:45:15Z</time>
      </trkpt>
      <trkpt lat="47.37156" lon="3.98846">
        <ele>435.61</ele>
        <time>2021-08-11T17:45:23Z</time>
      </trkpt>
      <trkpt lat="47.37146" lon="3.98884">
        <ele>436.58</ele>
        <time>2021-08-11T17:45:32Z</time>
      </trkpt>
      <trkpt lat="47.37136" lon="3.98917">
        <ele>438.02</ele>
        <time>2021-08-11T17:45:41Z</time>
      </trkpt>
      <trkpt lat="47.37123" lon="3.98962">
        <ele>439.46</ele>
        <time>2021-08-11T17:45:52Z</time>
      </trkpt>
      <trkpt lat="47.37115" lon="3.98997">
        <ele>440.42</ele>
        <time>2021-08-11T17:46:01Z</time>
      </trkpt>
      <trkpt lat="47.3712" lon="3.9903">
        <ele>441.38</ele>
        <time>2021-08-11T17:46:09Z</time>
      </trkpt>
      <trkpt lat="47.37138" lon="3.99063">
        <ele>441.38</ele>
        <time>2021-08-11T17:46:18Z</time>
      </trkpt>
      <trkpt lat="47.37156" lon="3.99096">
        <ele>441.38</ele>
        <time>2021-08-11T17:46:26Z</time>
      </trkpt>
      <trkpt lat="47.37174" lon="3.99133">
        <ele>439.94</ele>
        <time>2021-08-11T17:46:34Z</time>
      </trkpt>
      <trkpt lat="47.37201" lon="3.99183">
        <ele>438.5</ele>
        <time>2021-08-11T17:46:44Z</time>
      </trkpt>
      <trkpt lat="47.37226" lon="3.99213">
        <ele>438.02</ele>
        <time>2021-08-11T17:46:51Z</time>
      </trkpt>
      <trkpt lat="47.3723" lon="3.99218">
        <ele>438.02</ele>
        <time>2021-08-11T17:46:52Z</time>
      </trkpt>
      <trkpt lat="47.37234" lon="3.99222">
        <ele>437.54</ele>
        <time>2021-08-11T17:46:53Z</time>
      </trkpt>
      <trkpt lat="47.3725" lon="3.99245">
        <ele>436.58</ele>
        <time>2021-08-11T17:46:57Z</time>
      </trkpt>
      <trkpt lat="47.37253" lon="3.99253">
        <ele>436.58</ele>
        <time>2021-08-11T17:46:58Z</time>
      </trkpt>
      <trkpt lat="47.37255" lon="3.9926">
        <ele>436.58</ele>
        <time>2021-08-11T17:46:59Z</time>
      </trkpt>
      <trkpt lat="47.37255" lon="3.99267">
        <ele>435.61</ele>
        <time>2021-08-11T17:47:00Z</time>
      </trkpt>
      <trkpt lat="47.37253" lon="3.99273">
        <ele>435.61</ele>
        <time>2021-08-11T17:47:01Z</time>
      </trkpt>
      <trkpt lat="47.3725" lon="3.99279">
        <ele>435.61</ele>
        <time>2021-08-11T17:47:02Z</time>
      </trkpt>
      <trkpt lat="47.37247" lon="3.99283">
        <ele>435.61</ele>
        <time>2021-08-11T17:47:03Z</time>
      </trkpt>
      <trkpt lat="47.37244" lon="3.99287">
        <ele>435.61</ele>
        <time>2021-08-11T17:47:04Z</time>
      </trkpt>
      <trkpt lat="47.3721" lon="3.99333">
        <ele>435.13</ele>
        <time>2021-08-11T17:47:13Z</time>
      </trkpt>
      <trkpt lat="47.372" lon="3.9935">
        <ele>435.13</ele>
        <time>2021-08-11T17:47:16Z</time>
      </trkpt>
      <trkpt lat="47.37186" lon="3.99375">
        <ele>434.65</ele>
        <time>2021-08-11T17:47:20Z</time>
      </trkpt>
      <trkpt lat="47.37182" lon="3.9938">
        <ele>434.65</ele>
        <time>2021-08-11T17:47:21Z</time>
      </trkpt>
      <trkpt lat="47.3715" lon="3.99408">
        <ele>434.65</ele>
        <time>2021-08-11T17:47:29Z</time>
      </trkpt>
      <trkpt lat="47.3712" lon="3.99425">
        <ele>434.65</ele>
        <time>2021-08-11T17:47:37Z</time>
      </trkpt>
      <trkpt lat="47.37087" lon="3.99446">
        <ele>436.1</ele>
        <time>2021-08-11T17:47:46Z</time>
      </trkpt>
      <trkpt lat="47.37058" lon="3.99468">
        <ele>437.06</ele>
        <time>2021-08-11T17:47:55Z</time>
      </trkpt>
      <trkpt lat="47.37031" lon="3.99489">
        <ele>438.5</ele>
        <time>2021-08-11T17:48:06Z</time>
      </trkpt>
      <trkpt lat="47.37012" lon="3.99506">
        <ele>440.9</ele>
        <time>2021-08-11T17:48:15Z</time>
      </trkpt>
      <trkpt lat="47.36993" lon="3.99526">
        <ele>442.82</ele>
        <time>2021-08-11T17:48:26Z</time>
      </trkpt>
      <trkpt lat="47.36981" lon="3.99543">
        <ele>444.27</ele>
        <time>2021-08-11T17:48:35Z</time>
      </trkpt>
      <trkpt lat="47.36975" lon="3.99552">
        <ele>445.71</ele>
        <time>2021-08-11T17:48:40Z</time>
      </trkpt>
      <trkpt lat="47.36973" lon="3.99554">
        <ele>445.71</ele>
        <time>2021-08-11T17:48:41Z</time>
      </trkpt>
      <trkpt lat="47.36961" lon="3.99569">
        <ele>447.63</ele>
        <time>2021-08-11T17:48:51Z</time>
      </trkpt>
      <trkpt lat="47.3695" lon="3.99586">
        <ele>450.03</ele>
        <time>2021-08-11T17:49:01Z</time>
      </trkpt>
      <trkpt lat="47.36947" lon="3.99591">
        <ele>450.03</ele>
        <time>2021-08-11T17:49:04Z</time>
      </trkpt>
      <trkpt lat="47.36946" lon="3.99592">
        <ele>450.52</ele>
        <time>2021-08-11T17:49:05Z</time>
      </trkpt>
      <trkpt lat="47.36942" lon="3.99597">
        <ele>451</ele>
        <time>2021-08-11T17:49:08Z</time>
      </trkpt>
      <trkpt lat="47.36941" lon="3.99598">
        <ele>451</ele>
        <time>2021-08-11T17:49:09Z</time>
      </trkpt>
      <trkpt lat="47.36939" lon="3.99598">
        <ele>451.48</ele>
        <time>2021-08-11T17:49:10Z</time>
      </trkpt>
      <trkpt lat="47.36938" lon="3.99597">
        <ele>451.96</ele>
        <time>2021-08-11T17:49:11Z</time>
      </trkpt>
      <trkpt lat="47.36936" lon="3.99597">
        <ele>451.96</ele>
        <time>2021-08-11T17:49:12Z</time>
      </trkpt>
      <trkpt lat="47.36935" lon="3.99596">
        <ele>451.96</ele>
        <time>2021-08-11T17:49:13Z</time>
      </trkpt>
      <trkpt lat="47.36924" lon="3.99588">
        <ele>452.44</ele>
        <time>2021-08-11T17:49:20Z</time>
      </trkpt>
      <trkpt lat="47.36913" lon="3.99582">
        <ele>453.4</ele>
        <time>2021-08-11T17:49:26Z</time>
      </trkpt>
      <trkpt lat="47.36912" lon="3.99582">
        <ele>453.4</ele>
        <time>2021-08-11T17:49:27Z</time>
      </trkpt>
      <trkpt lat="47.36901" lon="3.99585">
        <ele>454.36</ele>
        <time>2021-08-11T17:49:34Z</time>
      </trkpt>
      <trkpt lat="47.369" lon="3.99586">
        <ele>454.36</ele>
        <time>2021-08-11T17:49:35Z</time>
      </trkpt>
      <trkpt lat="47.36898" lon="3.99587">
        <ele>454.36</ele>
        <time>2021-08-11T17:49:36Z</time>
      </trkpt>
      <trkpt lat="47.36897" lon="3.99589">
        <ele>454.36</ele>
        <time>2021-08-11T17:49:37Z</time>
      </trkpt>
      <trkpt lat="47.36897" lon="3.9959">
        <ele>454.36</ele>
        <time>2021-08-11T17:49:38Z</time>
      </trkpt>
      <trkpt lat="47.36896" lon="3.99592">
        <ele>454.36</ele>
        <time>2021-08-11T17:49:39Z</time>
      </trkpt>
      <trkpt lat="47.36894" lon="3.99594">
        <ele>455.32</ele>
        <time>2021-08-11T17:49:40Z</time>
      </trkpt>
      <trkpt lat="47.3689" lon="3.996">
        <ele>455.32</ele>
        <time>2021-08-11T17:49:44Z</time>
      </trkpt>
      <trkpt lat="47.3689" lon="3.99602">
        <ele>455.32</ele>
        <time>2021-08-11T17:49:45Z</time>
      </trkpt>
      <trkpt lat="47.36889" lon="3.99604">
        <ele>455.8</ele>
        <time>2021-08-11T17:49:46Z</time>
      </trkpt>
      <trkpt lat="47.36889" lon="3.99607">
        <ele>455.8</ele>
        <time>2021-08-11T17:49:47Z</time>
      </trkpt>
      <trkpt lat="47.36889" lon="3.99609">
        <ele>455.8</ele>
        <time>2021-08-11T17:49:48Z</time>
      </trkpt>
      <trkpt lat="47.36889" lon="3.99611">
        <ele>455.8</ele>
        <time>2021-08-11T17:49:49Z</time>
      </trkpt>
      <trkpt lat="47.3689" lon="3.99614">
        <ele>455.8</ele>
        <time>2021-08-11T17:49:50Z</time>
      </trkpt>
      <trkpt lat="47.36894" lon="3.99637">
        <ele>456.76</ele>
        <time>2021-08-11T17:49:59Z</time>
      </trkpt>
      <trkpt lat="47.36895" lon="3.99645">
        <ele>457.24</ele>
        <time>2021-08-11T17:50:02Z</time>
      </trkpt>
      <trkpt lat="47.36892" lon="3.99652">
        <ele>457.72</ele>
        <time>2021-08-11T17:50:05Z</time>
      </trkpt>
      <trkpt lat="47.36891" lon="3.99654">
        <ele>458.21</ele>
        <time>2021-08-11T17:50:06Z</time>
      </trkpt>
      <trkpt lat="47.36889" lon="3.99655">
        <ele>458.21</ele>
        <time>2021-08-11T17:50:07Z</time>
      </trkpt>
      <trkpt lat="47.36888" lon="3.99656">
        <ele>458.21</ele>
        <time>2021-08-11T17:50:08Z</time>
      </trkpt>
      <trkpt lat="47.36886" lon="3.99657">
        <ele>459.17</ele>
        <time>2021-08-11T17:50:09Z</time>
      </trkpt>
      <trkpt lat="47.36884" lon="3.99658">
        <ele>459.17</ele>
        <time>2021-08-11T17:50:10Z</time>
      </trkpt>
      <trkpt lat="47.36868" lon="3.99665">
        <ele>459.65</ele>
        <time>2021-08-11T17:50:18Z</time>
      </trkpt>
      <trkpt lat="47.36852" lon="3.99669">
        <ele>460.13</ele>
        <time>2021-08-11T17:50:26Z</time>
      </trkpt>
      <trkpt lat="47.36834" lon="3.99676">
        <ele>460.13</ele>
        <time>2021-08-11T17:50:34Z</time>
      </trkpt>
      <trkpt lat="47.36833" lon="3.99679">
        <ele>460.13</ele>
        <time>2021-08-11T17:50:35Z</time>
      </trkpt>
      <trkpt lat="47.36825" lon="3.99699">
        <ele>460.13</ele>
        <time>2021-08-11T17:50:42Z</time>
      </trkpt>
      <trkpt lat="47.36825" lon="3.99701">
        <ele>460.61</ele>
        <time>2021-08-11T17:50:43Z</time>
      </trkpt>
      <trkpt lat="47.36825" lon="3.99702">
        <ele>460.61</ele>
        <time>2021-08-11T17:50:44Z</time>
      </trkpt>
      <trkpt lat="47.36825" lon="3.99702">
        <ele>460.61</ele>
        <time>2021-08-11T17:50:50Z</time>
      </trkpt>
      <trkpt lat="47.36825" lon="3.99701">
        <ele>460.61</ele>
        <time>2021-08-11T17:51:00Z</time>
      </trkpt>
      <trkpt lat="47.36824" lon="3.99698">
        <ele>460.61</ele>
        <time>2021-08-11T17:51:03Z</time>
      </trkpt>
      <trkpt lat="47.3682" lon="3.99689">
        <ele>460.61</ele>
        <time>2021-08-11T17:51:08Z</time>
      </trkpt>
      <trkpt lat="47.36805" lon="3.99667">
        <ele>460.61</ele>
        <time>2021-08-11T17:51:18Z</time>
      </trkpt>
      <trkpt lat="47.36804" lon="3.99667">
        <ele>460.61</ele>
        <time>2021-08-11T17:51:29Z</time>
      </trkpt>
      <trkpt lat="47.36804" lon="3.99665">
        <ele>460.61</ele>
        <time>2021-08-11T17:51:41Z</time>
      </trkpt>
      <trkpt lat="47.36802" lon="3.99663">
        <ele>460.61</ele>
        <time>2021-08-11T17:51:47Z</time>
      </trkpt>
      <trkpt lat="47.36802" lon="3.99662">
        <ele>459.65</ele>
        <time>2021-08-11T17:51:48Z</time>
      </trkpt>
      <trkpt lat="47.36802" lon="3.9966">
        <ele>459.65</ele>
        <time>2021-08-11T17:51:49Z</time>
      </trkpt>
      <trkpt lat="47.36802" lon="3.99658">
        <ele>459.65</ele>
        <time>2021-08-11T17:51:50Z</time>
      </trkpt>
      <trkpt lat="47.36802" lon="3.99657">
        <ele>459.65</ele>
        <time>2021-08-11T17:51:51Z</time>
      </trkpt>
      <trkpt lat="47.36803" lon="3.99655">
        <ele>459.65</ele>
        <time>2021-08-11T17:51:58Z</time>
      </trkpt>
      <trkpt lat="47.36802" lon="3.99656">
        <ele>459.65</ele>
        <time>2021-08-11T17:52:16Z</time>
      </trkpt>
      <trkpt lat="47.36802" lon="3.99657">
        <ele>459.65</ele>
        <time>2021-08-11T17:52:31Z</time>
      </trkpt>
      <trkpt lat="47.36801" lon="3.99658">
        <ele>459.65</ele>
        <time>2021-08-11T17:52:47Z</time>
      </trkpt>
      <trkpt lat="47.36801" lon="3.99656">
        <ele>459.65</ele>
        <time>2021-08-11T17:53:06Z</time>
      </trkpt>
      <trkpt lat="47.36802" lon="3.99655">
        <ele>459.65</ele>
        <time>2021-08-11T17:53:26Z</time>
      </trkpt>
      <trkpt lat="47.36804" lon="3.99651">
        <ele>459.65</ele>
        <time>2021-08-11T17:53:41Z</time>
      </trkpt>
      <trkpt lat="47.36804" lon="3.99651">
        <ele>459.65</ele>
        <time>2021-08-11T17:53:55Z</time>
      </trkpt>
      <trkpt lat="47.36802" lon="3.99651">
        <ele>459.65</ele>
        <time>2021-08-11T17:54:07Z</time>
      </trkpt>
      <trkpt lat="47.36803" lon="3.99648">
        <ele>459.65</ele>
        <time>2021-08-11T17:54:12Z</time>
      </trkpt>
      <trkpt lat="47.36802" lon="3.99649">
        <ele>459.65</ele>
        <time>2021-08-11T17:54:27Z</time>
      </trkpt>
      <trkpt lat="47.36802" lon="3.99646">
        <ele>459.65</ele>
        <time>2021-08-11T17:54:44Z</time>
      </trkpt>
      <trkpt lat="47.36804" lon="3.99645">
        <ele>459.17</ele>
        <time>2021-08-11T17:54:58Z</time>
      </trkpt>
      <trkpt lat="47.36805" lon="3.99644">
        <ele>459.17</ele>
        <time>2021-08-11T17:55:11Z</time>
      </trkpt>
      <trkpt lat="47.36804" lon="3.99647">
        <ele>459.17</ele>
        <time>2021-08-11T17:55:28Z</time>
      </trkpt>
      <trkpt lat="47.36802" lon="3.99658">
        <ele>459.17</ele>
        <time>2021-08-11T17:55:48Z</time>
      </trkpt>
      <trkpt lat="47.36801" lon="3.99661">
        <ele>459.17</ele>
        <time>2021-08-11T17:56:12Z</time>
      </trkpt>
      <trkpt lat="47.36801" lon="3.99661">
        <ele>459.17</ele>
        <time>2021-08-11T17:56:32Z</time>
      </trkpt>
      <trkpt lat="47.368" lon="3.9966">
        <ele>459.17</ele>
        <time>2021-08-11T17:56:56Z</time>
      </trkpt>
      <trkpt lat="47.368" lon="3.99662">
        <ele>459.17</ele>
        <time>2021-08-11T17:57:11Z</time>
      </trkpt>
      <trkpt lat="47.368" lon="3.99663">
        <ele>459.17</ele>
        <time>2021-08-11T17:57:26Z</time>
      </trkpt>
      <trkpt lat="47.36801" lon="3.99659">
        <ele>459.17</ele>
        <time>2021-08-11T17:57:44Z</time>
      </trkpt>
      <trkpt lat="47.36804" lon="3.99654">
        <ele>459.17</ele>
        <time>2021-08-11T17:58:03Z</time>
      </trkpt>
      <trkpt lat="47.36804" lon="3.99649">
        <ele>459.17</ele>
        <time>2021-08-11T17:58:22Z</time>
      </trkpt>
      <trkpt lat="47.36801" lon="3.99651">
        <ele>458.69</ele>
        <time>2021-08-11T17:58:44Z</time>
      </trkpt>
      <trkpt lat="47.368" lon="3.99654">
        <ele>458.69</ele>
        <time>2021-08-11T17:59:01Z</time>
      </trkpt>
      <trkpt lat="47.36799" lon="3.99656">
        <ele>458.69</ele>
        <time>2021-08-11T17:59:11Z</time>
      </trkpt>
      <trkpt lat="47.368" lon="3.99657">
        <ele>458.69</ele>
        <time>2021-08-11T17:59:35Z</time>
      </trkpt>
      <trkpt lat="47.36802" lon="3.99657">
        <ele>458.69</ele>
        <time>2021-08-11T17:59:51Z</time>
      </trkpt>
      <trkpt lat="47.36804" lon="3.99654">
        <ele>458.69</ele>
        <time>2021-08-11T18:00:08Z</time>
      </trkpt>
      <trkpt lat="47.36804" lon="3.99651">
        <ele>458.69</ele>
        <time>2021-08-11T18:00:26Z</time>
      </trkpt>
      <trkpt lat="47.36799" lon="3.99654">
        <ele>458.69</ele>
        <time>2021-08-11T18:00:50Z</time>
      </trkpt>
      <trkpt lat="47.36799" lon="3.99655">
        <ele>458.69</ele>
        <time>2021-08-11T18:01:08Z</time>
      </trkpt>
      <trkpt lat="47.368" lon="3.99657">
        <ele>458.69</ele>
        <time>2021-08-11T18:01:25Z</time>
      </trkpt>
      <trkpt lat="47.368" lon="3.99656">
        <ele>458.69</ele>
        <time>2021-08-11T18:01:44Z</time>
      </trkpt>
      <trkpt lat="47.368" lon="3.99654">
        <ele>458.69</ele>
        <time>2021-08-11T18:01:59Z</time>
      </trkpt>
      <trkpt lat="47.368" lon="3.99652">
        <ele>458.21</ele>
        <time>2021-08-11T18:02:26Z</time>
      </trkpt>
      <trkpt lat="47.368" lon="3.99652">
        <ele>458.21</ele>
        <time>2021-08-11T18:02:45Z</time>
      </trkpt>
      <trkpt lat="47.36799" lon="3.99651">
        <ele>458.21</ele>
        <time>2021-08-11T18:03:02Z</time>
      </trkpt>
      <trkpt lat="47.36799" lon="3.99653">
        <ele>457.72</ele>
        <time>2021-08-11T18:03:23Z</time>
      </trkpt>
      <trkpt lat="47.36801" lon="3.99654">
        <ele>457.72</ele>
        <time>2021-08-11T18:03:39Z</time>
      </trkpt>
      <trkpt lat="47.368" lon="3.99661">
        <ele>457.72</ele>
        <time>2021-08-11T18:03:52Z</time>
      </trkpt>
      <trkpt lat="47.36797" lon="3.99656">
        <ele>457.72</ele>
        <time>2021-08-11T18:04:01Z</time>
      </trkpt>
      <trkpt lat="47.36797" lon="3.99659">
        <ele>457.72</ele>
        <time>2021-08-11T18:04:05Z</time>
      </trkpt>
      <trkpt lat="47.36796" lon="3.99658">
        <ele>457.72</ele>
        <time>2021-08-11T18:04:06Z</time>
      </trkpt>
      <trkpt lat="47.36796" lon="3.99654">
        <ele>457.72</ele>
        <time>2021-08-11T18:04:07Z</time>
      </trkpt>
      <trkpt lat="47.36796" lon="3.99655">
        <ele>457.72</ele>
        <time>2021-08-11T18:04:10Z</time>
      </trkpt>
      <trkpt lat="47.36796" lon="3.99659">
        <ele>457.72</ele>
        <time>2021-08-11T18:04:23Z</time>
      </trkpt>
      <trkpt lat="47.36799" lon="3.99658">
        <ele>457.24</ele>
        <time>2021-08-11T18:04:42Z</time>
      </trkpt>
      <trkpt lat="47.36797" lon="3.99659">
        <ele>457.24</ele>
        <time>2021-08-11T18:04:58Z</time>
      </trkpt>
      <trkpt lat="47.36797" lon="3.99661">
        <ele>457.24</ele>
        <time>2021-08-11T18:05:18Z</time>
      </trkpt>
      <trkpt lat="47.36798" lon="3.9966">
        <ele>457.24</ele>
        <time>2021-08-11T18:05:32Z</time>
      </trkpt>
      <trkpt lat="47.36796" lon="3.99661">
        <ele>457.24</ele>
        <time>2021-08-11T18:05:45Z</time>
      </trkpt>
      <trkpt lat="47.36796" lon="3.99661">
        <ele>457.24</ele>
        <time>2021-08-11T18:06:09Z</time>
      </trkpt>
      <trkpt lat="47.36797" lon="3.9966">
        <ele>457.24</ele>
        <time>2021-08-11T18:06:19Z</time>
      </trkpt>
      <trkpt lat="47.36797" lon="3.99665">
        <ele>457.24</ele>
        <time>2021-08-11T18:06:35Z</time>
      </trkpt>
      <trkpt lat="47.36797" lon="3.99666">
        <ele>457.24</ele>
        <time>2021-08-11T18:06:45Z</time>
      </trkpt>
      <trkpt lat="47.36795" lon="3.99664">
        <ele>456.76</ele>
        <time>2021-08-11T18:07:00Z</time>
      </trkpt>
      <trkpt lat="47.36795" lon="3.9966">
        <ele>456.76</ele>
        <time>2021-08-11T18:07:16Z</time>
      </trkpt>
      <trkpt lat="47.36791" lon="3.99669">
        <ele>456.76</ele>
        <time>2021-08-11T18:07:42Z</time>
      </trkpt>
      <trkpt lat="47.36789" lon="3.99674">
        <ele>456.76</ele>
        <time>2021-08-11T18:08:03Z</time>
      </trkpt>
      <trkpt lat="47.36789" lon="3.99675">
        <ele>456.28</ele>
        <time>2021-08-11T18:08:28Z</time>
      </trkpt>
      <trkpt lat="47.36788" lon="3.99673">
        <ele>456.28</ele>
        <time>2021-08-11T18:09:07Z</time>
      </trkpt>
      <trkpt lat="47.36792" lon="3.99669">
        <ele>456.28</ele>
        <time>2021-08-11T18:09:31Z</time>
      </trkpt>
      <trkpt lat="47.36793" lon="3.99668">
        <ele>456.28</ele>
        <time>2021-08-11T18:09:53Z</time>
      </trkpt>
      <trkpt lat="47.3679" lon="3.99669">
        <ele>456.28</ele>
        <time>2021-08-11T18:10:15Z</time>
      </trkpt>
      <trkpt lat="47.36785" lon="3.99672">
        <ele>456.28</ele>
        <time>2021-08-11T18:10:42Z</time>
      </trkpt>
      <trkpt lat="47.36787" lon="3.9967">
        <ele>455.8</ele>
        <time>2021-08-11T18:11:00Z</time>
      </trkpt>
      <trkpt lat="47.3679" lon="3.99671">
        <ele>455.8</ele>
        <time>2021-08-11T18:11:21Z</time>
      </trkpt>
      <trkpt lat="47.36793" lon="3.99673">
        <ele>455.8</ele>
        <time>2021-08-11T18:11:41Z</time>
      </trkpt>
      <trkpt lat="47.36792" lon="3.99668">
        <ele>455.8</ele>
        <time>2021-08-11T18:12:02Z</time>
      </trkpt>
      <trkpt lat="47.36791" lon="3.99666">
        <ele>455.32</ele>
        <time>2021-08-11T18:12:24Z</time>
      </trkpt>
      <trkpt lat="47.36791" lon="3.99664">
        <ele>455.32</ele>
        <time>2021-08-11T18:12:44Z</time>
      </trkpt>
      <trkpt lat="47.36791" lon="3.99665">
        <ele>455.32</ele>
        <time>2021-08-11T18:12:59Z</time>
      </trkpt>
      <trkpt lat="47.36789" lon="3.99664">
        <ele>455.32</ele>
        <time>2021-08-11T18:13:22Z</time>
      </trkpt>
      <trkpt lat="47.36789" lon="3.99662">
        <ele>455.32</ele>
        <time>2021-08-11T18:13:44Z</time>
      </trkpt>
      <trkpt lat="47.36789" lon="3.99656">
        <ele>455.32</ele>
        <time>2021-08-11T18:14:02Z</time>
      </trkpt>
      <trkpt lat="47.3679" lon="3.99653">
        <ele>455.32</ele>
        <time>2021-08-11T18:14:20Z</time>
      </trkpt>
      <trkpt lat="47.36791" lon="3.99651">
        <ele>455.32</ele>
        <time>2021-08-11T18:14:32Z</time>
      </trkpt>
      <trkpt lat="47.36792" lon="3.99651">
        <ele>455.32</ele>
        <time>2021-08-11T18:14:42Z</time>
      </trkpt>
      <trkpt lat="47.36794" lon="3.99651">
        <ele>455.32</ele>
        <time>2021-08-11T18:15:01Z</time>
      </trkpt>
      <trkpt lat="47.36796" lon="3.99649">
        <ele>455.32</ele>
        <time>2021-08-11T18:15:14Z</time>
      </trkpt>
      <trkpt lat="47.36796" lon="3.99649">
        <ele>455.32</ele>
        <time>2021-08-11T18:15:36Z</time>
      </trkpt>
      <trkpt lat="47.36796" lon="3.99649">
        <ele>455.32</ele>
        <time>2021-08-11T18:15:56Z</time>
      </trkpt>
      <trkpt lat="47.36797" lon="3.99649">
        <ele>455.8</ele>
        <time>2021-08-11T18:16:13Z</time>
      </trkpt>
      <trkpt lat="47.36797" lon="3.99651">
        <ele>455.8</ele>
        <time>2021-08-11T18:16:27Z</time>
      </trkpt>
      <trkpt lat="47.36798" lon="3.99653">
        <ele>455.8</ele>
        <time>2021-08-11T18:16:41Z</time>
      </trkpt>
      <trkpt lat="47.36798" lon="3.99655">
        <ele>455.8</ele>
        <time>2021-08-11T18:16:55Z</time>
      </trkpt>
      <trkpt lat="47.36797" lon="3.99656">
        <ele>455.8</ele>
        <time>2021-08-11T18:17:12Z</time>
      </trkpt>
      <trkpt lat="47.36797" lon="3.99655">
        <ele>455.8</ele>
        <time>2021-08-11T18:17:28Z</time>
      </trkpt>
      <trkpt lat="47.36796" lon="3.99656">
        <ele>455.8</ele>
        <time>2021-08-11T18:17:41Z</time>
      </trkpt>
      <trkpt lat="47.36794" lon="3.99655">
        <ele>456.28</ele>
        <time>2021-08-11T18:18:01Z</time>
      </trkpt>
      <trkpt lat="47.36793" lon="3.99654">
        <ele>456.28</ele>
        <time>2021-08-11T18:18:19Z</time>
      </trkpt>
      <trkpt lat="47.36794" lon="3.99652">
        <ele>456.28</ele>
        <time>2021-08-11T18:18:35Z</time>
      </trkpt>
      <trkpt lat="47.36796" lon="3.99652">
        <ele>455.8</ele>
        <time>2021-08-11T18:18:55Z</time>
      </trkpt>
      <trkpt lat="47.36798" lon="3.99653">
        <ele>455.8</ele>
        <time>2021-08-11T18:19:13Z</time>
      </trkpt>
      <trkpt lat="47.36798" lon="3.99651">
        <ele>455.8</ele>
        <time>2021-08-11T18:19:23Z</time>
      </trkpt>
      <trkpt lat="47.36797" lon="3.99647">
        <ele>455.8</ele>
        <time>2021-08-11T18:19:34Z</time>
      </trkpt>
      <trkpt lat="47.368" lon="3.99644">
        <ele>456.28</ele>
        <time>2021-08-11T18:19:49Z</time>
      </trkpt>
      <trkpt lat="47.36803" lon="3.99646">
        <ele>456.28</ele>
        <time>2021-08-11T18:20:11Z</time>
      </trkpt>
      <trkpt lat="47.36803" lon="3.99647">
        <ele>456.28</ele>
        <time>2021-08-11T18:20:32Z</time>
      </trkpt>
      <trkpt lat="47.36803" lon="3.99647">
        <ele>456.28</ele>
        <time>2021-08-11T18:20:42Z</time>
      </trkpt>
      <trkpt lat="47.36802" lon="3.99649">
        <ele>456.28</ele>
        <time>2021-08-11T18:20:54Z</time>
      </trkpt>
      <trkpt lat="47.36803" lon="3.99649">
        <ele>456.28</ele>
        <time>2021-08-11T18:21:11Z</time>
      </trkpt>
      <trkpt lat="47.36802" lon="3.99651">
        <ele>456.28</ele>
        <time>2021-08-11T18:21:22Z</time>
      </trkpt>
      <trkpt lat="47.36801" lon="3.99653">
        <ele>456.76</ele>
        <time>2021-08-11T18:21:26Z</time>
      </trkpt>
      <trkpt lat="47.368" lon="3.99655">
        <ele>456.76</ele>
        <time>2021-08-11T18:21:42Z</time>
      </trkpt>
      <trkpt lat="47.36797" lon="3.99657">
        <ele>456.76</ele>
        <time>2021-08-11T18:22:04Z</time>
      </trkpt>
      <trkpt lat="47.368" lon="3.9966">
        <ele>456.76</ele>
        <time>2021-08-11T18:22:27Z</time>
      </trkpt>
      <trkpt lat="47.36799" lon="3.99662">
        <ele>456.76</ele>
        <time>2021-08-11T18:22:42Z</time>
      </trkpt>
      <trkpt lat="47.36797" lon="3.99659">
        <ele>456.76</ele>
        <time>2021-08-11T18:23:09Z</time>
      </trkpt>
      <trkpt lat="47.36796" lon="3.99663">
        <ele>457.24</ele>
        <time>2021-08-11T18:23:28Z</time>
      </trkpt>
      <trkpt lat="47.36797" lon="3.9966">
        <ele>457.24</ele>
        <time>2021-08-11T18:23:44Z</time>
      </trkpt>
      <trkpt lat="47.36797" lon="3.99661">
        <ele>457.24</ele>
        <time>2021-08-11T18:24:06Z</time>
      </trkpt>
      <trkpt lat="47.36796" lon="3.99663">
        <ele>456.76</ele>
        <time>2021-08-11T18:24:24Z</time>
      </trkpt>
      <trkpt lat="47.36797" lon="3.99659">
        <ele>456.76</ele>
        <time>2021-08-11T18:24:42Z</time>
      </trkpt>
      <trkpt lat="47.36796" lon="3.9966">
        <ele>456.76</ele>
        <time>2021-08-11T18:24:55Z</time>
      </trkpt>
      <trkpt lat="47.36795" lon="3.99657">
        <ele>457.24</ele>
        <time>2021-08-11T18:25:16Z</time>
      </trkpt>
      <trkpt lat="47.36797" lon="3.99655">
        <ele>457.24</ele>
        <time>2021-08-11T18:25:39Z</time>
      </trkpt>
      <trkpt lat="47.36796" lon="3.99654">
        <ele>457.24</ele>
        <time>2021-08-11T18:26:01Z</time>
      </trkpt>
      <trkpt lat="47.36799" lon="3.99654">
        <ele>457.72</ele>
        <time>2021-08-11T18:26:24Z</time>
      </trkpt>
      <trkpt lat="47.36798" lon="3.99658">
        <ele>457.72</ele>
        <time>2021-08-11T18:26:46Z</time>
      </trkpt>
      <trkpt lat="47.36796" lon="3.99658">
        <ele>457.72</ele>
        <time>2021-08-11T18:27:14Z</time>
      </trkpt>
      <trkpt lat="47.36793" lon="3.99658">
        <ele>458.21</ele>
        <time>2021-08-11T18:27:42Z</time>
      </trkpt>
      <trkpt lat="47.36792" lon="3.9966">
        <ele>458.21</ele>
        <time>2021-08-11T18:28:03Z</time>
      </trkpt>
      <trkpt lat="47.36792" lon="3.99659">
        <ele>458.21</ele>
        <time>2021-08-11T18:28:29Z</time>
      </trkpt>
      <trkpt lat="47.36795" lon="3.99654">
        <ele>458.21</ele>
        <time>2021-08-11T18:28:53Z</time>
      </trkpt>
      <trkpt lat="47.36798" lon="3.99654">
        <ele>458.69</ele>
        <time>2021-08-11T18:29:09Z</time>
      </trkpt>
      <trkpt lat="47.36799" lon="3.99658">
        <ele>458.69</ele>
        <time>2021-08-11T18:29:33Z</time>
      </trkpt>
      <trkpt lat="47.36798" lon="3.99658">
        <ele>458.69</ele>
        <time>2021-08-11T18:29:52Z</time>
      </trkpt>
      <trkpt lat="47.36796" lon="3.99659">
        <ele>458.69</ele>
        <time>2021-08-11T18:30:19Z</time>
      </trkpt>
      <trkpt lat="47.36796" lon="3.99662">
        <ele>459.17</ele>
        <time>2021-08-11T18:30:46Z</time>
      </trkpt>
      <trkpt lat="47.36798" lon="3.99664">
        <ele>459.17</ele>
        <time>2021-08-11T18:31:04Z</time>
      </trkpt>
      <trkpt lat="47.368" lon="3.99662">
        <ele>459.17</ele>
        <time>2021-08-11T18:31:20Z</time>
      </trkpt>
      <trkpt lat="47.36798" lon="3.99659">
        <ele>459.17</ele>
        <time>2021-08-11T18:31:39Z</time>
      </trkpt>
      <trkpt lat="47.36799" lon="3.99657">
        <ele>459.17</ele>
        <time>2021-08-11T18:31:55Z</time>
      </trkpt>
      <trkpt lat="47.36799" lon="3.99657">
        <ele>459.17</ele>
        <time>2021-08-11T18:32:15Z</time>
      </trkpt>
      <trkpt lat="47.36799" lon="3.99655">
        <ele>459.17</ele>
        <time>2021-08-11T18:32:28Z</time>
      </trkpt>
      <trkpt lat="47.36799" lon="3.99651">
        <ele>459.65</ele>
        <time>2021-08-11T18:32:51Z</time>
      </trkpt>
      <trkpt lat="47.36795" lon="3.99651">
        <ele>459.65</ele>
        <time>2021-08-11T18:33:13Z</time>
      </trkpt>
      <trkpt lat="47.36795" lon="3.99655">
        <ele>459.65</ele>
        <time>2021-08-11T18:33:30Z</time>
      </trkpt>
      <trkpt lat="47.36795" lon="3.99657">
        <ele>460.13</ele>
        <time>2021-08-11T18:33:45Z</time>
      </trkpt>
      <trkpt lat="47.36795" lon="3.99656">
        <ele>460.13</ele>
        <time>2021-08-11T18:34:00Z</time>
      </trkpt>
      <trkpt lat="47.36794" lon="3.99653">
        <ele>460.13</ele>
        <time>2021-08-11T18:34:17Z</time>
      </trkpt>
      <trkpt lat="47.36797" lon="3.99654">
        <ele>460.13</ele>
        <time>2021-08-11T18:34:36Z</time>
      </trkpt>
      <trkpt lat="47.36794" lon="3.99652">
        <ele>460.61</ele>
        <time>2021-08-11T18:34:57Z</time>
      </trkpt>
      <trkpt lat="47.36791" lon="3.99656">
        <ele>460.61</ele>
        <time>2021-08-11T18:35:20Z</time>
      </trkpt>
      <trkpt lat="47.36789" lon="3.99651">
        <ele>461.09</ele>
        <time>2021-08-11T18:35:46Z</time>
      </trkpt>
      <trkpt lat="47.36788" lon="3.9965">
        <ele>461.09</ele>
        <time>2021-08-11T18:36:03Z</time>
      </trkpt>
      <trkpt lat="47.36788" lon="3.99649">
        <ele>461.09</ele>
        <time>2021-08-11T18:36:19Z</time>
      </trkpt>
      <trkpt lat="47.36788" lon="3.99647">
        <ele>461.09</ele>
        <time>2021-08-11T18:36:35Z</time>
      </trkpt>
      <trkpt lat="47.3679" lon="3.99647">
        <ele>461.57</ele>
        <time>2021-08-11T18:36:51Z</time>
      </trkpt>
      <trkpt lat="47.36791" lon="3.99645">
        <ele>461.57</ele>
        <time>2021-08-11T18:37:05Z</time>
      </trkpt>
      <trkpt lat="47.36791" lon="3.99646">
        <ele>461.57</ele>
        <time>2021-08-11T18:37:28Z</time>
      </trkpt>
      <trkpt lat="47.36791" lon="3.99643">
        <ele>462.05</ele>
        <time>2021-08-11T18:37:41Z</time>
      </trkpt>
      <trkpt lat="47.36789" lon="3.99638">
        <ele>462.05</ele>
        <time>2021-08-11T18:37:54Z</time>
      </trkpt>
      <trkpt lat="47.36789" lon="3.99642">
        <ele>462.05</ele>
        <time>2021-08-11T18:38:09Z</time>
      </trkpt>
      <trkpt lat="47.36788" lon="3.99645">
        <ele>462.05</ele>
        <time>2021-08-11T18:38:23Z</time>
      </trkpt>
      <trkpt lat="47.36789" lon="3.99646">
        <ele>462.53</ele>
        <time>2021-08-11T18:38:45Z</time>
      </trkpt>
      <trkpt lat="47.36791" lon="3.99648">
        <ele>462.53</ele>
        <time>2021-08-11T18:39:00Z</time>
      </trkpt>
      <trkpt lat="47.36794" lon="3.99649">
        <ele>462.53</ele>
        <time>2021-08-11T18:39:21Z</time>
      </trkpt>
      <trkpt lat="47.36795" lon="3.99646">
        <ele>462.53</ele>
        <time>2021-08-11T18:39:37Z</time>
      </trkpt>
      <trkpt lat="47.36793" lon="3.99648">
        <ele>463.01</ele>
        <time>2021-08-11T18:39:52Z</time>
      </trkpt>
      <trkpt lat="47.36793" lon="3.99648">
        <ele>463.01</ele>
        <time>2021-08-11T18:40:18Z</time>
      </trkpt>
      <trkpt lat="47.36792" lon="3.99643">
        <ele>462.53</ele>
        <time>2021-08-11T18:40:35Z</time>
      </trkpt>
      <trkpt lat="47.36794" lon="3.99642">
        <ele>463.01</ele>
        <time>2021-08-11T18:40:54Z</time>
      </trkpt>
      <trkpt lat="47.36796" lon="3.99643">
        <ele>463.01</ele>
        <time>2021-08-11T18:41:11Z</time>
      </trkpt>
      <trkpt lat="47.36799" lon="3.99647">
        <ele>463.01</ele>
        <time>2021-08-11T18:41:24Z</time>
      </trkpt>
      <trkpt lat="47.36799" lon="3.99654">
        <ele>463.01</ele>
        <time>2021-08-11T18:41:42Z</time>
      </trkpt>
      <trkpt lat="47.36799" lon="3.99656">
        <ele>463.01</ele>
        <time>2021-08-11T18:42:03Z</time>
      </trkpt>
      <trkpt lat="47.36802" lon="3.99653">
        <ele>463.01</ele>
        <time>2021-08-11T18:42:19Z</time>
      </trkpt>
      <trkpt lat="47.36803" lon="3.99649">
        <ele>463.01</ele>
        <time>2021-08-11T18:42:34Z</time>
      </trkpt>
      <trkpt lat="47.36802" lon="3.99648">
        <ele>463.01</ele>
        <time>2021-08-11T18:42:48Z</time>
      </trkpt>
      <trkpt lat="47.36805" lon="3.99651">
        <ele>463.01</ele>
        <time>2021-08-11T18:43:09Z</time>
      </trkpt>
      <trkpt lat="47.36802" lon="3.99654">
        <ele>463.01</ele>
        <time>2021-08-11T18:43:27Z</time>
      </trkpt>
      <trkpt lat="47.36802" lon="3.99654">
        <ele>463.01</ele>
        <time>2021-08-11T18:43:42Z</time>
      </trkpt>
      <trkpt lat="47.36802" lon="3.99653">
        <ele>463.01</ele>
        <time>2021-08-11T18:44:03Z</time>
      </trkpt>
      <trkpt lat="47.368" lon="3.99654">
        <ele>463.01</ele>
        <time>2021-08-11T18:44:21Z</time>
      </trkpt>
      <trkpt lat="47.36803" lon="3.99655">
        <ele>463.01</ele>
        <time>2021-08-11T18:44:42Z</time>
      </trkpt>
      <trkpt lat="47.36804" lon="3.99653">
        <ele>463.01</ele>
        <time>2021-08-11T18:45:03Z</time>
      </trkpt>
      <trkpt lat="47.36806" lon="3.99653">
        <ele>463.01</ele>
        <time>2021-08-11T18:45:20Z</time>
      </trkpt>
      <trkpt lat="47.36807" lon="3.99655">
        <ele>463.01</ele>
        <time>2021-08-11T18:45:42Z</time>
      </trkpt>
      <trkpt lat="47.36805" lon="3.99659">
        <ele>463.01</ele>
        <time>2021-08-11T18:46:03Z</time>
      </trkpt>
      <trkpt lat="47.36808" lon="3.99657">
        <ele>463.01</ele>
        <time>2021-08-11T18:46:20Z</time>
      </trkpt>
      <trkpt lat="47.36807" lon="3.99656">
        <ele>463.01</ele>
        <time>2021-08-11T18:46:34Z</time>
      </trkpt>
      <trkpt lat="47.36805" lon="3.99653">
        <ele>462.53</ele>
        <time>2021-08-11T18:46:47Z</time>
      </trkpt>
      <trkpt lat="47.36802" lon="3.99655">
        <ele>462.53</ele>
        <time>2021-08-11T18:47:07Z</time>
      </trkpt>
      <trkpt lat="47.36804" lon="3.99654">
        <ele>462.53</ele>
        <time>2021-08-11T18:47:24Z</time>
      </trkpt>
      <trkpt lat="47.36804" lon="3.99655">
        <ele>462.53</ele>
        <time>2021-08-11T18:47:44Z</time>
      </trkpt>
      <trkpt lat="47.36804" lon="3.99653">
        <ele>462.53</ele>
        <time>2021-08-11T18:48:03Z</time>
      </trkpt>
      <trkpt lat="47.36803" lon="3.99655">
        <ele>462.53</ele>
        <time>2021-08-11T18:48:19Z</time>
      </trkpt>
      <trkpt lat="47.36802" lon="3.99657">
        <ele>462.05</ele>
        <time>2021-08-11T18:48:43Z</time>
      </trkpt>
      <trkpt lat="47.36803" lon="3.99657">
        <ele>462.05</ele>
        <time>2021-08-11T18:49:03Z</time>
      </trkpt>
      <trkpt lat="47.36802" lon="3.99657">
        <ele>462.53</ele>
        <time>2021-08-11T18:49:24Z</time>
      </trkpt>
      <trkpt lat="47.368" lon="3.99655">
        <ele>462.53</ele>
        <time>2021-08-11T18:49:47Z</time>
      </trkpt>
      <trkpt lat="47.36799" lon="3.99654">
        <ele>462.53</ele>
        <time>2021-08-11T18:50:03Z</time>
      </trkpt>
      <trkpt lat="47.36798" lon="3.99655">
        <ele>462.53</ele>
        <time>2021-08-11T18:50:21Z</time>
      </trkpt>
      <trkpt lat="47.36797" lon="3.99662">
        <ele>462.53</ele>
        <time>2021-08-11T18:50:43Z</time>
      </trkpt>
      <trkpt lat="47.36798" lon="3.99661">
        <ele>462.53</ele>
        <time>2021-08-11T18:50:58Z</time>
      </trkpt>
      <trkpt lat="47.36798" lon="3.99657">
        <ele>462.53</ele>
        <time>2021-08-11T18:51:11Z</time>
      </trkpt>
      <trkpt lat="47.36797" lon="3.99657">
        <ele>462.53</ele>
        <time>2021-08-11T18:51:32Z</time>
      </trkpt>
      <trkpt lat="47.36797" lon="3.99656">
        <ele>462.53</ele>
        <time>2021-08-11T18:51:43Z</time>
      </trkpt>
      <trkpt lat="47.368" lon="3.99656">
        <ele>462.53</ele>
        <time>2021-08-11T18:51:58Z</time>
      </trkpt>
      <trkpt lat="47.36803" lon="3.9966">
        <ele>462.05</ele>
        <time>2021-08-11T18:52:16Z</time>
      </trkpt>
      <trkpt lat="47.36803" lon="3.99661">
        <ele>462.05</ele>
        <time>2021-08-11T18:52:31Z</time>
      </trkpt>
      <trkpt lat="47.36805" lon="3.99658">
        <ele>462.05</ele>
        <time>2021-08-11T18:52:42Z</time>
      </trkpt>
      <trkpt lat="47.36804" lon="3.99657">
        <ele>462.05</ele>
        <time>2021-08-11T18:52:59Z</time>
      </trkpt>
      <trkpt lat="47.36806" lon="3.99657">
        <ele>462.05</ele>
        <time>2021-08-11T18:53:20Z</time>
      </trkpt>
      <trkpt lat="47.36803" lon="3.99658">
        <ele>462.05</ele>
        <time>2021-08-11T18:53:39Z</time>
      </trkpt>
      <trkpt lat="47.36799" lon="3.99658">
        <ele>462.05</ele>
        <time>2021-08-11T18:53:52Z</time>
      </trkpt>
      <trkpt lat="47.36801" lon="3.99657">
        <ele>462.05</ele>
        <time>2021-08-11T18:54:02Z</time>
      </trkpt>
      <trkpt lat="47.368" lon="3.99655">
        <ele>462.05</ele>
        <time>2021-08-11T18:54:21Z</time>
      </trkpt>
      <trkpt lat="47.368" lon="3.99656">
        <ele>462.05</ele>
        <time>2021-08-11T18:54:37Z</time>
      </trkpt>
      <trkpt lat="47.368" lon="3.99656">
        <ele>462.05</ele>
        <time>2021-08-11T18:54:54Z</time>
      </trkpt>
      <trkpt lat="47.36799" lon="3.99653">
        <ele>462.05</ele>
        <time>2021-08-11T18:55:13Z</time>
      </trkpt>
      <trkpt lat="47.36799" lon="3.99656">
        <ele>462.05</ele>
        <time>2021-08-11T18:55:32Z</time>
      </trkpt>
      <trkpt lat="47.36804" lon="3.99658">
        <ele>462.05</ele>
        <time>2021-08-11T18:55:55Z</time>
      </trkpt>
      <trkpt lat="47.36804" lon="3.99661">
        <ele>462.05</ele>
        <time>2021-08-11T18:56:19Z</time>
      </trkpt>
      <trkpt lat="47.36805" lon="3.99661">
        <ele>463.01</ele>
        <time>2021-08-11T18:56:32Z</time>
      </trkpt>
      <trkpt lat="47.36803" lon="3.99659">
        <ele>463.01</ele>
        <time>2021-08-11T18:56:47Z</time>
      </trkpt>
      <trkpt lat="47.36802" lon="3.99658">
        <ele>461.57</ele>
        <time>2021-08-11T18:56:51Z</time>
      </trkpt>
      <trkpt lat="47.36801" lon="3.9966">
        <ele>462.53</ele>
        <time>2021-08-11T18:57:03Z</time>
      </trkpt>
      <trkpt lat="47.368" lon="3.9966">
        <ele>461.57</ele>
        <time>2021-08-11T18:57:08Z</time>
      </trkpt>
      <trkpt lat="47.368" lon="3.9966">
        <ele>462.53</ele>
        <time>2021-08-11T18:57:10Z</time>
      </trkpt>
      <trkpt lat="47.36801" lon="3.99659">
        <ele>462.53</ele>
        <time>2021-08-11T18:57:31Z</time>
      </trkpt>
      <trkpt lat="47.36802" lon="3.99658">
        <ele>461.09</ele>
        <time>2021-08-11T18:57:39Z</time>
      </trkpt>
      <trkpt lat="47.36798" lon="3.99658">
        <ele>462.05</ele>
        <time>2021-08-11T18:57:56Z</time>
      </trkpt>
      <trkpt lat="47.36796" lon="3.99658">
        <ele>461.09</ele>
        <time>2021-08-11T18:57:59Z</time>
      </trkpt>
      <trkpt lat="47.36795" lon="3.99658">
        <ele>462.05</ele>
        <time>2021-08-11T18:58:07Z</time>
      </trkpt>
      <trkpt lat="47.36793" lon="3.99658">
        <ele>461.09</ele>
        <time>2021-08-11T18:58:28Z</time>
      </trkpt>
      <trkpt lat="47.36793" lon="3.99657">
        <ele>461.57</ele>
        <time>2021-08-11T18:58:50Z</time>
      </trkpt>
      <trkpt lat="47.36792" lon="3.99655">
        <ele>461.57</ele>
        <time>2021-08-11T18:59:06Z</time>
      </trkpt>
      <trkpt lat="47.36786" lon="3.99655">
        <ele>461.57</ele>
        <time>2021-08-11T18:59:29Z</time>
      </trkpt>
      <trkpt lat="47.3679" lon="3.9966">
        <ele>461.09</ele>
        <time>2021-08-11T18:59:55Z</time>
      </trkpt>
      <trkpt lat="47.36798" lon="3.99662">
        <ele>461.09</ele>
        <time>2021-08-11T19:00:13Z</time>
      </trkpt>
      <trkpt lat="47.36805" lon="3.99661">
        <ele>461.09</ele>
        <time>2021-08-11T19:00:36Z</time>
      </trkpt>
      <trkpt lat="47.36798" lon="3.99658">
        <ele>460.61</ele>
        <time>2021-08-11T19:00:58Z</time>
      </trkpt>
      <trkpt lat="47.36797" lon="3.99657">
        <ele>460.61</ele>
        <time>2021-08-11T19:01:16Z</time>
      </trkpt>
      <trkpt lat="47.36797" lon="3.99655">
        <ele>460.61</ele>
        <time>2021-08-11T19:01:47Z</time>
      </trkpt>
      <trkpt lat="47.36798" lon="3.99655">
        <ele>460.61</ele>
        <time>2021-08-11T19:02:09Z</time>
      </trkpt>
      <trkpt lat="47.36797" lon="3.99654">
        <ele>460.61</ele>
        <time>2021-08-11T19:02:31Z</time>
      </trkpt>
      <trkpt lat="47.36803" lon="3.99655">
        <ele>460.61</ele>
        <time>2021-08-11T19:02:56Z</time>
      </trkpt>
      <trkpt lat="47.36803" lon="3.99653">
        <ele>460.61</ele>
        <time>2021-08-11T19:03:08Z</time>
      </trkpt>
      <trkpt lat="47.368" lon="3.99654">
        <ele>460.61</ele>
        <time>2021-08-11T19:03:22Z</time>
      </trkpt>
      <trkpt lat="47.368" lon="3.99651">
        <ele>460.61</ele>
        <time>2021-08-11T19:03:31Z</time>
      </trkpt>
      <trkpt lat="47.36799" lon="3.9965">
        <ele>460.61</ele>
        <time>2021-08-11T19:03:32Z</time>
      </trkpt>
      <trkpt lat="47.36798" lon="3.99648">
        <ele>459.17</ele>
        <time>2021-08-11T19:03:33Z</time>
      </trkpt>
      <trkpt lat="47.36797" lon="3.99646">
        <ele>459.17</ele>
        <time>2021-08-11T19:03:34Z</time>
      </trkpt>
      <trkpt lat="47.36797" lon="3.99644">
        <ele>459.17</ele>
        <time>2021-08-11T19:03:35Z</time>
      </trkpt>
      <trkpt lat="47.36798" lon="3.99643">
        <ele>459.17</ele>
        <time>2021-08-11T19:03:41Z</time>
      </trkpt>
      <trkpt lat="47.36799" lon="3.99643">
        <ele>459.17</ele>
        <time>2021-08-11T19:03:53Z</time>
      </trkpt>
      <trkpt lat="47.36798" lon="3.99642">
        <ele>459.17</ele>
        <time>2021-08-11T19:03:57Z</time>
      </trkpt>
      <trkpt lat="47.36797" lon="3.99641">
        <ele>459.17</ele>
        <time>2021-08-11T19:03:58Z</time>
      </trkpt>
      <trkpt lat="47.36796" lon="3.99641">
        <ele>459.17</ele>
        <time>2021-08-11T19:03:59Z</time>
      </trkpt>
      <trkpt lat="47.36795" lon="3.99639">
        <ele>459.17</ele>
        <time>2021-08-11T19:04:05Z</time>
      </trkpt>
      <trkpt lat="47.36793" lon="3.99638">
        <ele>459.17</ele>
        <time>2021-08-11T19:04:21Z</time>
      </trkpt>
      <trkpt lat="47.36789" lon="3.99636">
        <ele>458.69</ele>
        <time>2021-08-11T19:04:34Z</time>
      </trkpt>
      <trkpt lat="47.36788" lon="3.99635">
        <ele>458.69</ele>
        <time>2021-08-11T19:04:35Z</time>
      </trkpt>
      <trkpt lat="47.36788" lon="3.99635">
        <ele>458.69</ele>
        <time>2021-08-11T19:04:36Z</time>
      </trkpt>
      <trkpt lat="47.36786" lon="3.99634">
        <ele>458.69</ele>
        <time>2021-08-11T19:04:37Z</time>
      </trkpt>
      <trkpt lat="47.36785" lon="3.99634">
        <ele>458.69</ele>
        <time>2021-08-11T19:04:38Z</time>
      </trkpt>
      <trkpt lat="47.36784" lon="3.99633">
        <ele>458.69</ele>
        <time>2021-08-11T19:04:39Z</time>
      </trkpt>
      <trkpt lat="47.36768" lon="3.99622">
        <ele>458.21</ele>
        <time>2021-08-11T19:04:47Z</time>
      </trkpt>
      <trkpt lat="47.36765" lon="3.9962">
        <ele>458.21</ele>
        <time>2021-08-11T19:04:49Z</time>
      </trkpt>
      <trkpt lat="47.36764" lon="3.99621">
        <ele>458.21</ele>
        <time>2021-08-11T19:04:50Z</time>
      </trkpt>
      <trkpt lat="47.36764" lon="3.99622">
        <ele>458.21</ele>
        <time>2021-08-11T19:04:51Z</time>
      </trkpt>
      <trkpt lat="47.36766" lon="3.99623">
        <ele>458.21</ele>
        <time>2021-08-11T19:04:52Z</time>
      </trkpt>
      <trkpt lat="47.36767" lon="3.99623">
        <ele>458.21</ele>
        <time>2021-08-11T19:04:53Z</time>
      </trkpt>
      <trkpt lat="47.36769" lon="3.99622">
        <ele>458.21</ele>
        <time>2021-08-11T19:04:54Z</time>
      </trkpt>
      <trkpt lat="47.36771" lon="3.99622">
        <ele>458.21</ele>
        <time>2021-08-11T19:04:55Z</time>
      </trkpt>
      <trkpt lat="47.36772" lon="3.99621">
        <ele>458.21</ele>
        <time>2021-08-11T19:04:56Z</time>
      </trkpt>
      <trkpt lat="47.36773" lon="3.9962">
        <ele>458.21</ele>
        <time>2021-08-11T19:04:57Z</time>
      </trkpt>
      <trkpt lat="47.36776" lon="3.99615">
        <ele>458.21</ele>
        <time>2021-08-11T19:05:04Z</time>
      </trkpt>
      <trkpt lat="47.36777" lon="3.99614">
        <ele>458.21</ele>
        <time>2021-08-11T19:05:10Z</time>
      </trkpt>
      <trkpt lat="47.3677" lon="3.99594">
        <ele>457.72</ele>
        <time>2021-08-11T19:05:17Z</time>
      </trkpt>
      <trkpt lat="47.36766" lon="3.99567">
        <ele>455.32</ele>
        <time>2021-08-11T19:05:22Z</time>
      </trkpt>
      <trkpt lat="47.36758" lon="3.99543">
        <ele>453.4</ele>
        <time>2021-08-11T19:05:26Z</time>
      </trkpt>
      <trkpt lat="47.36757" lon="3.99536">
        <ele>452.92</ele>
        <time>2021-08-11T19:05:27Z</time>
      </trkpt>
      <trkpt lat="47.36751" lon="3.99503">
        <ele>449.55</ele>
        <time>2021-08-11T19:05:32Z</time>
      </trkpt>
      <trkpt lat="47.36746" lon="3.9945">
        <ele>446.67</ele>
        <time>2021-08-11T19:05:39Z</time>
      </trkpt>
      <trkpt lat="47.36746" lon="3.99406">
        <ele>444.27</ele>
        <time>2021-08-11T19:05:45Z</time>
      </trkpt>
      <trkpt lat="47.36746" lon="3.994">
        <ele>443.79</ele>
        <time>2021-08-11T19:05:46Z</time>
      </trkpt>
      <trkpt lat="47.36745" lon="3.99393">
        <ele>443.79</ele>
        <time>2021-08-11T19:05:47Z</time>
      </trkpt>
      <trkpt lat="47.36744" lon="3.99386">
        <ele>442.82</ele>
        <time>2021-08-11T19:05:48Z</time>
      </trkpt>
      <trkpt lat="47.36743" lon="3.99379">
        <ele>442.82</ele>
        <time>2021-08-11T19:05:49Z</time>
      </trkpt>
      <trkpt lat="47.36731" lon="3.99336">
        <ele>439.94</ele>
        <time>2021-08-11T19:05:55Z</time>
      </trkpt>
      <trkpt lat="47.36715" lon="3.99303">
        <ele>438.98</ele>
        <time>2021-08-11T19:06:00Z</time>
      </trkpt>
      <trkpt lat="47.36699" lon="3.99275">
        <ele>437.06</ele>
        <time>2021-08-11T19:06:07Z</time>
      </trkpt>
      <trkpt lat="47.36699" lon="3.99275">
        <ele>437.54</ele>
        <time>2021-08-11T19:06:17Z</time>
      </trkpt>
      <trkpt lat="47.36698" lon="3.99275">
        <ele>437.54</ele>
        <time>2021-08-11T19:06:19Z</time>
      </trkpt>
      <trkpt lat="47.36698" lon="3.99275">
        <ele>437.54</ele>
        <time>2021-08-11T19:06:24Z</time>
      </trkpt>
      <trkpt lat="47.36696" lon="3.99273">
        <ele>437.54</ele>
        <time>2021-08-11T19:06:26Z</time>
      </trkpt>
      <trkpt lat="47.36695" lon="3.99271">
        <ele>437.54</ele>
        <time>2021-08-11T19:06:27Z</time>
      </trkpt>
      <trkpt lat="47.36694" lon="3.99268">
        <ele>437.54</ele>
        <time>2021-08-11T19:06:28Z</time>
      </trkpt>
      <trkpt lat="47.36683" lon="3.99247">
        <ele>437.06</ele>
        <time>2021-08-11T19:06:33Z</time>
      </trkpt>
      <trkpt lat="47.36677" lon="3.99237">
        <ele>435.61</ele>
        <time>2021-08-11T19:06:35Z</time>
      </trkpt>
      <trkpt lat="47.36666" lon="3.99222">
        <ele>434.17</ele>
        <time>2021-08-11T19:06:38Z</time>
      </trkpt>
      <trkpt lat="47.36662" lon="3.99218">
        <ele>434.17</ele>
        <time>2021-08-11T19:06:39Z</time>
      </trkpt>
      <trkpt lat="47.36652" lon="3.99204">
        <ele>432.25</ele>
        <time>2021-08-11T19:06:42Z</time>
      </trkpt>
      <trkpt lat="47.36638" lon="3.99189">
        <ele>430.81</ele>
        <time>2021-08-11T19:06:46Z</time>
      </trkpt>
      <trkpt lat="47.36627" lon="3.99174">
        <ele>428.89</ele>
        <time>2021-08-11T19:06:51Z</time>
      </trkpt>
      <trkpt lat="47.36614" lon="3.9915">
        <ele>426.96</ele>
        <time>2021-08-11T19:06:58Z</time>
      </trkpt>
      <trkpt lat="47.36604" lon="3.99126">
        <ele>425.04</ele>
        <time>2021-08-11T19:07:04Z</time>
      </trkpt>
      <trkpt lat="47.36598" lon="3.99107">
        <ele>423.6</ele>
        <time>2021-08-11T19:07:08Z</time>
      </trkpt>
      <trkpt lat="47.36591" lon="3.99084">
        <ele>421.19</ele>
        <time>2021-08-11T19:07:14Z</time>
      </trkpt>
      <trkpt lat="47.36582" lon="3.9905">
        <ele>418.79</ele>
        <time>2021-08-11T19:07:21Z</time>
      </trkpt>
      <trkpt lat="47.36581" lon="3.99043">
        <ele>418.79</ele>
        <time>2021-08-11T19:07:22Z</time>
      </trkpt>
      <trkpt lat="47.3658" lon="3.9903">
        <ele>417.35</ele>
        <time>2021-08-11T19:07:24Z</time>
      </trkpt>
      <trkpt lat="47.36578" lon="3.99021">
        <ele>416.87</ele>
        <time>2021-08-11T19:07:25Z</time>
      </trkpt>
      <trkpt lat="47.36577" lon="3.99013">
        <ele>416.39</ele>
        <time>2021-08-11T19:07:26Z</time>
      </trkpt>
      <trkpt lat="47.36569" lon="3.98967">
        <ele>413.02</ele>
        <time>2021-08-11T19:07:31Z</time>
      </trkpt>
      <trkpt lat="47.36562" lon="3.98938">
        <ele>411.58</ele>
        <time>2021-08-11T19:07:34Z</time>
      </trkpt>
      <trkpt lat="47.36558" lon="3.98927">
        <ele>411.58</ele>
        <time>2021-08-11T19:07:37Z</time>
      </trkpt>
      <trkpt lat="47.36556" lon="3.98924">
        <ele>411.58</ele>
        <time>2021-08-11T19:07:40Z</time>
      </trkpt>
      <trkpt lat="47.36556" lon="3.98922">
        <ele>411.1</ele>
        <time>2021-08-11T19:07:41Z</time>
      </trkpt>
      <trkpt lat="47.36555" lon="3.98919">
        <ele>411.1</ele>
        <time>2021-08-11T19:07:42Z</time>
      </trkpt>
      <trkpt lat="47.36555" lon="3.98916">
        <ele>411.1</ele>
        <time>2021-08-11T19:07:43Z</time>
      </trkpt>
      <trkpt lat="47.36553" lon="3.98912">
        <ele>410.62</ele>
        <time>2021-08-11T19:07:44Z</time>
      </trkpt>
      <trkpt lat="47.36552" lon="3.98908">
        <ele>410.62</ele>
        <time>2021-08-11T19:07:45Z</time>
      </trkpt>
      <trkpt lat="47.3655" lon="3.98904">
        <ele>410.62</ele>
        <time>2021-08-11T19:07:46Z</time>
      </trkpt>
      <trkpt lat="47.36548" lon="3.98901">
        <ele>410.62</ele>
        <time>2021-08-11T19:07:47Z</time>
      </trkpt>
      <trkpt lat="47.36547" lon="3.98898">
        <ele>410.62</ele>
        <time>2021-08-11T19:07:48Z</time>
      </trkpt>
      <trkpt lat="47.36547" lon="3.98895">
        <ele>410.14</ele>
        <time>2021-08-11T19:07:55Z</time>
      </trkpt>
      <trkpt lat="47.36545" lon="3.98888">
        <ele>409.66</ele>
        <time>2021-08-11T19:08:02Z</time>
      </trkpt>
      <trkpt lat="47.36541" lon="3.98867">
        <ele>408.7</ele>
        <time>2021-08-11T19:08:07Z</time>
      </trkpt>
      <trkpt lat="47.36538" lon="3.98861">
        <ele>408.22</ele>
        <time>2021-08-11T19:08:08Z</time>
      </trkpt>
      <trkpt lat="47.36534" lon="3.98855">
        <ele>407.74</ele>
        <time>2021-08-11T19:08:09Z</time>
      </trkpt>
      <trkpt lat="47.36503" lon="3.98808">
        <ele>404.37</ele>
        <time>2021-08-11T19:08:15Z</time>
      </trkpt>
      <trkpt lat="47.36491" lon="3.98794">
        <ele>403.41</ele>
        <time>2021-08-11T19:08:17Z</time>
      </trkpt>
      <trkpt lat="47.36476" lon="3.98782">
        <ele>401.49</ele>
        <time>2021-08-11T19:08:19Z</time>
      </trkpt>
      <trkpt lat="47.36452" lon="3.98767">
        <ele>401.01</ele>
        <time>2021-08-11T19:08:22Z</time>
      </trkpt>
      <trkpt lat="47.36442" lon="3.98764">
        <ele>399.57</ele>
        <time>2021-08-11T19:08:23Z</time>
      </trkpt>
      <trkpt lat="47.36435" lon="3.98764">
        <ele>399.57</ele>
        <time>2021-08-11T19:08:24Z</time>
      </trkpt>
      <trkpt lat="47.36426" lon="3.98766">
        <ele>398.6</ele>
        <time>2021-08-11T19:08:25Z</time>
      </trkpt>
      <trkpt lat="47.36419" lon="3.98769">
        <ele>398.6</ele>
        <time>2021-08-11T19:08:26Z</time>
      </trkpt>
      <trkpt lat="47.3641" lon="3.98775">
        <ele>398.12</ele>
        <time>2021-08-11T19:08:27Z</time>
      </trkpt>
      <trkpt lat="47.36402" lon="3.98781">
        <ele>398.12</ele>
        <time>2021-08-11T19:08:28Z</time>
      </trkpt>
      <trkpt lat="47.36397" lon="3.98785">
        <ele>398.12</ele>
        <time>2021-08-11T19:08:29Z</time>
      </trkpt>
      <trkpt lat="47.36367" lon="3.98805">
        <ele>397.16</ele>
        <time>2021-08-11T19:08:33Z</time>
      </trkpt>
      <trkpt lat="47.36361" lon="3.98808">
        <ele>397.16</ele>
        <time>2021-08-11T19:08:34Z</time>
      </trkpt>
      <trkpt lat="47.36354" lon="3.9881">
        <ele>397.16</ele>
        <time>2021-08-11T19:08:35Z</time>
      </trkpt>
      <trkpt lat="47.36331" lon="3.98813">
        <ele>398.6</ele>
        <time>2021-08-11T19:08:39Z</time>
      </trkpt>
      <trkpt lat="47.36323" lon="3.98811">
        <ele>399.57</ele>
        <time>2021-08-11T19:08:41Z</time>
      </trkpt>
      <trkpt lat="47.3632" lon="3.98807">
        <ele>399.57</ele>
        <time>2021-08-11T19:08:42Z</time>
      </trkpt>
      <trkpt lat="47.36318" lon="3.98803">
        <ele>399.57</ele>
        <time>2021-08-11T19:08:43Z</time>
      </trkpt>
      <trkpt lat="47.36316" lon="3.98797">
        <ele>399.57</ele>
        <time>2021-08-11T19:08:44Z</time>
      </trkpt>
      <trkpt lat="47.36314" lon="3.98792">
        <ele>399.57</ele>
        <time>2021-08-11T19:08:45Z</time>
      </trkpt>
      <trkpt lat="47.3631" lon="3.98781">
        <ele>398.6</ele>
        <time>2021-08-11T19:08:47Z</time>
      </trkpt>
      <trkpt lat="47.36307" lon="3.98775">
        <ele>398.6</ele>
        <time>2021-08-11T19:08:48Z</time>
      </trkpt>
      <trkpt lat="47.3629" lon="3.98736">
        <ele>398.12</ele>
        <time>2021-08-11T19:08:55Z</time>
      </trkpt>
      <trkpt lat="47.36274" lon="3.98699">
        <ele>397.64</ele>
        <time>2021-08-11T19:09:02Z</time>
      </trkpt>
      <trkpt lat="47.36267" lon="3.98672">
        <ele>397.64</ele>
        <time>2021-08-11T19:09:08Z</time>
      </trkpt>
      <trkpt lat="47.3625" lon="3.98644">
        <ele>397.64</ele>
        <time>2021-08-11T19:09:15Z</time>
      </trkpt>
      <trkpt lat="47.36243" lon="3.98626">
        <ele>399.08</ele>
        <time>2021-08-11T19:09:22Z</time>
      </trkpt>
      <trkpt lat="47.36235" lon="3.98606">
        <ele>399.57</ele>
        <time>2021-08-11T19:09:31Z</time>
      </trkpt>
      <trkpt lat="47.36229" lon="3.98587">
        <ele>400.05</ele>
        <time>2021-08-11T19:09:40Z</time>
      </trkpt>
      <trkpt lat="47.36227" lon="3.98578">
        <ele>401.01</ele>
        <time>2021-08-11T19:09:44Z</time>
      </trkpt>
      <trkpt lat="47.36226" lon="3.98576">
        <ele>401.01</ele>
        <time>2021-08-11T19:09:45Z</time>
      </trkpt>
      <trkpt lat="47.36225" lon="3.98574">
        <ele>401.01</ele>
        <time>2021-08-11T19:09:46Z</time>
      </trkpt>
      <trkpt lat="47.36225" lon="3.98572">
        <ele>401.01</ele>
        <time>2021-08-11T19:09:47Z</time>
      </trkpt>
      <trkpt lat="47.36224" lon="3.9857">
        <ele>401.01</ele>
        <time>2021-08-11T19:09:48Z</time>
      </trkpt>
      <trkpt lat="47.36224" lon="3.98568">
        <ele>401.01</ele>
        <time>2021-08-11T19:09:49Z</time>
      </trkpt>
      <trkpt lat="47.36223" lon="3.98563">
        <ele>401.01</ele>
        <time>2021-08-11T19:09:51Z</time>
      </trkpt>
      <trkpt lat="47.36223" lon="3.98562">
        <ele>401.01</ele>
        <time>2021-08-11T19:09:52Z</time>
      </trkpt>
      <trkpt lat="47.36223" lon="3.9856">
        <ele>401.49</ele>
        <time>2021-08-11T19:09:53Z</time>
      </trkpt>
      <trkpt lat="47.36222" lon="3.98558">
        <ele>401.49</ele>
        <time>2021-08-11T19:09:54Z</time>
      </trkpt>
      <trkpt lat="47.36221" lon="3.98556">
        <ele>401.97</ele>
        <time>2021-08-11T19:09:55Z</time>
      </trkpt>
      <trkpt lat="47.36221" lon="3.98554">
        <ele>401.97</ele>
        <time>2021-08-11T19:09:56Z</time>
      </trkpt>
      <trkpt lat="47.36219" lon="3.98543">
        <ele>402.93</ele>
        <time>2021-08-11T19:10:04Z</time>
      </trkpt>
      <trkpt lat="47.36217" lon="3.98536">
        <ele>403.89</ele>
        <time>2021-08-11T19:10:10Z</time>
      </trkpt>
      <trkpt lat="47.36216" lon="3.9853">
        <ele>403.89</ele>
        <time>2021-08-11T19:10:14Z</time>
      </trkpt>
      <trkpt lat="47.36214" lon="3.98529">
        <ele>403.89</ele>
        <time>2021-08-11T19:10:15Z</time>
      </trkpt>
      <trkpt lat="47.36214" lon="3.98527">
        <ele>403.89</ele>
        <time>2021-08-11T19:10:16Z</time>
      </trkpt>
      <trkpt lat="47.36213" lon="3.98526">
        <ele>404.37</ele>
        <time>2021-08-11T19:10:17Z</time>
      </trkpt>
      <trkpt lat="47.36213" lon="3.98517">
        <ele>404.85</ele>
        <time>2021-08-11T19:10:23Z</time>
      </trkpt>
      <trkpt lat="47.36212" lon="3.98514">
        <ele>405.81</ele>
        <time>2021-08-11T19:10:26Z</time>
      </trkpt>
      <trkpt lat="47.36212" lon="3.98512">
        <ele>405.81</ele>
        <time>2021-08-11T19:10:27Z</time>
      </trkpt>
      <trkpt lat="47.36211" lon="3.9851">
        <ele>405.81</ele>
        <time>2021-08-11T19:10:28Z</time>
      </trkpt>
      <trkpt lat="47.36211" lon="3.98498">
        <ele>406.77</ele>
        <time>2021-08-11T19:10:37Z</time>
      </trkpt>
      <trkpt lat="47.36212" lon="3.98488">
        <ele>407.26</ele>
        <time>2021-08-11T19:10:44Z</time>
      </trkpt>
      <trkpt lat="47.36212" lon="3.9848">
        <ele>407.74</ele>
        <time>2021-08-11T19:10:50Z</time>
      </trkpt>
      <trkpt lat="47.36211" lon="3.98479">
        <ele>407.74</ele>
        <time>2021-08-11T19:10:51Z</time>
      </trkpt>
      <trkpt lat="47.36204" lon="3.98469">
        <ele>409.18</ele>
        <time>2021-08-11T19:10:59Z</time>
      </trkpt>
      <trkpt lat="47.36202" lon="3.98466">
        <ele>409.18</ele>
        <time>2021-08-11T19:11:01Z</time>
      </trkpt>
      <trkpt lat="47.362" lon="3.98464">
        <ele>409.18</ele>
        <time>2021-08-11T19:11:03Z</time>
      </trkpt>
      <trkpt lat="47.36199" lon="3.98462">
        <ele>409.18</ele>
        <time>2021-08-11T19:11:04Z</time>
      </trkpt>
      <trkpt lat="47.36197" lon="3.98452">
        <ele>410.14</ele>
        <time>2021-08-11T19:11:11Z</time>
      </trkpt>
      <trkpt lat="47.36195" lon="3.98445">
        <ele>411.1</ele>
        <time>2021-08-11T19:11:18Z</time>
      </trkpt>
      <trkpt lat="47.36193" lon="3.98438">
        <ele>412.06</ele>
        <time>2021-08-11T19:11:25Z</time>
      </trkpt>
      <trkpt lat="47.36188" lon="3.98429">
        <ele>413.02</ele>
        <time>2021-08-11T19:11:33Z</time>
      </trkpt>
      <trkpt lat="47.36185" lon="3.98422">
        <ele>414.47</ele>
        <time>2021-08-11T19:11:40Z</time>
      </trkpt>
      <trkpt lat="47.36181" lon="3.98412">
        <ele>415.91</ele>
        <time>2021-08-11T19:11:50Z</time>
      </trkpt>
      <trkpt lat="47.36178" lon="3.98407">
        <ele>416.39</ele>
        <time>2021-08-11T19:11:57Z</time>
      </trkpt>
      <trkpt lat="47.36172" lon="3.98401">
        <ele>417.83</ele>
        <time>2021-08-11T19:12:05Z</time>
      </trkpt>
      <trkpt lat="47.36168" lon="3.98395">
        <ele>418.79</ele>
        <time>2021-08-11T19:12:13Z</time>
      </trkpt>
      <trkpt lat="47.36166" lon="3.98389">
        <ele>419.75</ele>
        <time>2021-08-11T19:12:21Z</time>
      </trkpt>
      <trkpt lat="47.36162" lon="3.98384">
        <ele>421.19</ele>
        <time>2021-08-11T19:12:30Z</time>
      </trkpt>
      <trkpt lat="47.36159" lon="3.98378">
        <ele>423.12</ele>
        <time>2021-08-11T19:12:39Z</time>
      </trkpt>
      <trkpt lat="47.36155" lon="3.98372">
        <ele>424.56</ele>
        <time>2021-08-11T19:12:48Z</time>
      </trkpt>
      <trkpt lat="47.36149" lon="3.98367">
        <ele>426</ele>
        <time>2021-08-11T19:12:56Z</time>
      </trkpt>
      <trkpt lat="47.36147" lon="3.98363">
        <ele>426.96</ele>
        <time>2021-08-11T19:13:01Z</time>
      </trkpt>
      <trkpt lat="47.36142" lon="3.98357">
        <ele>427.92</ele>
        <time>2021-08-11T19:13:08Z</time>
      </trkpt>
      <trkpt lat="47.36136" lon="3.98351">
        <ele>429.85</ele>
        <time>2021-08-11T19:13:16Z</time>
      </trkpt>
      <trkpt lat="47.36129" lon="3.98343">
        <ele>430.33</ele>
        <time>2021-08-11T19:13:24Z</time>
      </trkpt>
      <trkpt lat="47.36128" lon="3.98341">
        <ele>430.81</ele>
        <time>2021-08-11T19:13:32Z</time>
      </trkpt>
      <trkpt lat="47.36125" lon="3.9834">
        <ele>430.81</ele>
        <time>2021-08-11T19:13:41Z</time>
      </trkpt>
      <trkpt lat="47.36123" lon="3.98337">
        <ele>430.81</ele>
        <time>2021-08-11T19:13:44Z</time>
      </trkpt>
      <trkpt lat="47.36123" lon="3.98335">
        <ele>430.81</ele>
        <time>2021-08-11T19:13:45Z</time>
      </trkpt>
      <trkpt lat="47.36122" lon="3.98333">
        <ele>430.81</ele>
        <time>2021-08-11T19:13:46Z</time>
      </trkpt>
      <trkpt lat="47.36121" lon="3.98332">
        <ele>430.81</ele>
        <time>2021-08-11T19:13:47Z</time>
      </trkpt>
      <trkpt lat="47.3612" lon="3.98331">
        <ele>430.81</ele>
        <time>2021-08-11T19:13:48Z</time>
      </trkpt>
      <trkpt lat="47.3612" lon="3.98329">
        <ele>430.81</ele>
        <time>2021-08-11T19:13:49Z</time>
      </trkpt>
      <trkpt lat="47.36117" lon="3.98328">
        <ele>430.81</ele>
        <time>2021-08-11T19:13:52Z</time>
      </trkpt>
      <trkpt lat="47.36116" lon="3.98329">
        <ele>431.29</ele>
        <time>2021-08-11T19:13:53Z</time>
      </trkpt>
      <trkpt lat="47.36116" lon="3.98331">
        <ele>431.29</ele>
        <time>2021-08-11T19:13:54Z</time>
      </trkpt>
      <trkpt lat="47.36114" lon="3.98332">
        <ele>431.29</ele>
        <time>2021-08-11T19:13:55Z</time>
      </trkpt>
      <trkpt lat="47.36113" lon="3.98333">
        <ele>431.77</ele>
        <time>2021-08-11T19:13:56Z</time>
      </trkpt>
      <trkpt lat="47.36111" lon="3.98334">
        <ele>431.77</ele>
        <time>2021-08-11T19:13:58Z</time>
      </trkpt>
      <trkpt lat="47.36109" lon="3.98335">
        <ele>432.73</ele>
        <time>2021-08-11T19:13:59Z</time>
      </trkpt>
      <trkpt lat="47.36108" lon="3.98335">
        <ele>432.73</ele>
        <time>2021-08-11T19:14:00Z</time>
      </trkpt>
      <trkpt lat="47.36106" lon="3.98336">
        <ele>432.73</ele>
        <time>2021-08-11T19:14:01Z</time>
      </trkpt>
      <trkpt lat="47.36105" lon="3.98337">
        <ele>433.21</ele>
        <time>2021-08-11T19:14:02Z</time>
      </trkpt>
      <trkpt lat="47.36102" lon="3.98339">
        <ele>433.21</ele>
        <time>2021-08-11T19:14:04Z</time>
      </trkpt>
      <trkpt lat="47.36098" lon="3.98353">
        <ele>434.17</ele>
        <time>2021-08-11T19:14:12Z</time>
      </trkpt>
      <trkpt lat="47.36098" lon="3.98355">
        <ele>434.65</ele>
        <time>2021-08-11T19:14:13Z</time>
      </trkpt>
      <trkpt lat="47.36097" lon="3.98357">
        <ele>434.65</ele>
        <time>2021-08-11T19:14:14Z</time>
      </trkpt>
      <trkpt lat="47.36095" lon="3.98371">
        <ele>435.13</ele>
        <time>2021-08-11T19:14:22Z</time>
      </trkpt>
      <trkpt lat="47.361" lon="3.98396">
        <ele>436.58</ele>
        <time>2021-08-11T19:14:32Z</time>
      </trkpt>
      <trkpt lat="47.36103" lon="3.98408">
        <ele>437.54</ele>
        <time>2021-08-11T19:14:40Z</time>
      </trkpt>
      <trkpt lat="47.36103" lon="3.98403">
        <ele>437.54</ele>
        <time>2021-08-11T19:14:45Z</time>
      </trkpt>
      <trkpt lat="47.36102" lon="3.98401">
        <ele>437.54</ele>
        <time>2021-08-11T19:14:46Z</time>
      </trkpt>
      <trkpt lat="47.36101" lon="3.98397">
        <ele>437.54</ele>
        <time>2021-08-11T19:14:47Z</time>
      </trkpt>
      <trkpt lat="47.361" lon="3.98394">
        <ele>436.58</ele>
        <time>2021-08-11T19:14:48Z</time>
      </trkpt>
      <trkpt lat="47.361" lon="3.98389">
        <ele>436.58</ele>
        <time>2021-08-11T19:14:49Z</time>
      </trkpt>
      <trkpt lat="47.361" lon="3.98363">
        <ele>435.13</ele>
        <time>2021-08-11T19:14:55Z</time>
      </trkpt>
      <trkpt lat="47.36106" lon="3.98339">
        <ele>432.73</ele>
        <time>2021-08-11T19:15:01Z</time>
      </trkpt>
      <trkpt lat="47.36105" lon="3.98334">
        <ele>432.73</ele>
        <time>2021-08-11T19:15:04Z</time>
      </trkpt>
      <trkpt lat="47.36103" lon="3.98334">
        <ele>432.73</ele>
        <time>2021-08-11T19:15:05Z</time>
      </trkpt>
      <trkpt lat="47.36097" lon="3.98334">
        <ele>432.73</ele>
        <time>2021-08-11T19:15:09Z</time>
      </trkpt>
      <trkpt lat="47.36093" lon="3.98336">
        <ele>434.17</ele>
        <time>2021-08-11T19:15:12Z</time>
      </trkpt>
      <trkpt lat="47.36092" lon="3.98338">
        <ele>434.17</ele>
        <time>2021-08-11T19:15:13Z</time>
      </trkpt>
      <trkpt lat="47.36091" lon="3.9834">
        <ele>434.17</ele>
        <time>2021-08-11T19:15:14Z</time>
      </trkpt>
      <trkpt lat="47.3609" lon="3.98342">
        <ele>434.17</ele>
        <time>2021-08-11T19:15:15Z</time>
      </trkpt>
      <trkpt lat="47.36089" lon="3.98344">
        <ele>434.17</ele>
        <time>2021-08-11T19:15:16Z</time>
      </trkpt>
      <trkpt lat="47.36088" lon="3.98346">
        <ele>434.17</ele>
        <time>2021-08-11T19:15:17Z</time>
      </trkpt>
      <trkpt lat="47.36083" lon="3.98363">
        <ele>435.13</ele>
        <time>2021-08-11T19:15:26Z</time>
      </trkpt>
      <trkpt lat="47.36082" lon="3.98364">
        <ele>435.13</ele>
        <time>2021-08-11T19:15:27Z</time>
      </trkpt>
      <trkpt lat="47.36081" lon="3.98366">
        <ele>436.1</ele>
        <time>2021-08-11T19:15:28Z</time>
      </trkpt>
      <trkpt lat="47.36076" lon="3.98373">
        <ele>436.58</ele>
        <time>2021-08-11T19:15:33Z</time>
      </trkpt>
      <trkpt lat="47.36066" lon="3.98382">
        <ele>437.54</ele>
        <time>2021-08-11T19:15:41Z</time>
      </trkpt>
      <trkpt lat="47.36056" lon="3.98389">
        <ele>438.02</ele>
        <time>2021-08-11T19:15:49Z</time>
      </trkpt>
      <trkpt lat="47.36046" lon="3.98398">
        <ele>440.42</ele>
        <time>2021-08-11T19:15:57Z</time>
      </trkpt>
      <trkpt lat="47.36036" lon="3.98411">
        <ele>441.86</ele>
        <time>2021-08-11T19:16:05Z</time>
      </trkpt>
      <trkpt lat="47.36033" lon="3.98414">
        <ele>441.86</ele>
        <time>2021-08-11T19:16:07Z</time>
      </trkpt>
      <trkpt lat="47.36032" lon="3.98415">
        <ele>442.34</ele>
        <time>2021-08-11T19:16:08Z</time>
      </trkpt>
      <trkpt lat="47.36031" lon="3.98417">
        <ele>442.34</ele>
        <time>2021-08-11T19:16:09Z</time>
      </trkpt>
      <trkpt lat="47.3603" lon="3.98419">
        <ele>442.82</ele>
        <time>2021-08-11T19:16:10Z</time>
      </trkpt>
      <trkpt lat="47.36029" lon="3.9842">
        <ele>442.82</ele>
        <time>2021-08-11T19:16:11Z</time>
      </trkpt>
      <trkpt lat="47.36028" lon="3.98422">
        <ele>442.82</ele>
        <time>2021-08-11T19:16:12Z</time>
      </trkpt>
      <trkpt lat="47.36021" lon="3.98434">
        <ele>443.31</ele>
        <time>2021-08-11T19:16:19Z</time>
      </trkpt>
      <trkpt lat="47.3602" lon="3.98436">
        <ele>443.79</ele>
        <time>2021-08-11T19:16:20Z</time>
      </trkpt>
      <trkpt lat="47.36019" lon="3.98438">
        <ele>443.79</ele>
        <time>2021-08-11T19:16:21Z</time>
      </trkpt>
      <trkpt lat="47.36018" lon="3.9844">
        <ele>443.79</ele>
        <time>2021-08-11T19:16:22Z</time>
      </trkpt>
      <trkpt lat="47.36017" lon="3.98441">
        <ele>443.79</ele>
        <time>2021-08-11T19:16:23Z</time>
      </trkpt>
      <trkpt lat="47.36015" lon="3.98443">
        <ele>443.79</ele>
        <time>2021-08-11T19:16:24Z</time>
      </trkpt>
      <trkpt lat="47.36007" lon="3.98458">
        <ele>443.79</ele>
        <time>2021-08-11T19:16:31Z</time>
      </trkpt>
      <trkpt lat="47.35994" lon="3.98478">
        <ele>443.79</ele>
        <time>2021-08-11T19:16:39Z</time>
      </trkpt>
      <trkpt lat="47.3598" lon="3.98488">
        <ele>444.27</ele>
        <time>2021-08-11T19:16:46Z</time>
      </trkpt>
      <trkpt lat="47.3596" lon="3.98497">
        <ele>445.23</ele>
        <time>2021-08-11T19:16:55Z</time>
      </trkpt>
      <trkpt lat="47.35939" lon="3.98498">
        <ele>445.71</ele>
        <time>2021-08-11T19:17:04Z</time>
      </trkpt>
      <trkpt lat="47.35918" lon="3.98497">
        <ele>446.67</ele>
        <time>2021-08-11T19:17:14Z</time>
      </trkpt>
      <trkpt lat="47.35906" lon="3.98495">
        <ele>447.63</ele>
        <time>2021-08-11T19:17:21Z</time>
      </trkpt>
      <trkpt lat="47.35889" lon="3.98494">
        <ele>449.07</ele>
        <time>2021-08-11T19:17:30Z</time>
      </trkpt>
      <trkpt lat="47.35871" lon="3.9849">
        <ele>450.52</ele>
        <time>2021-08-11T19:17:40Z</time>
      </trkpt>
      <trkpt lat="47.35859" lon="3.98485">
        <ele>451.48</ele>
        <time>2021-08-11T19:17:47Z</time>
      </trkpt>
      <trkpt lat="47.35846" lon="3.98481">
        <ele>452.92</ele>
        <time>2021-08-11T19:17:55Z</time>
      </trkpt>
      <trkpt lat="47.35834" lon="3.98482">
        <ele>454.36</ele>
        <time>2021-08-11T19:18:04Z</time>
      </trkpt>
      <trkpt lat="47.35824" lon="3.98484">
        <ele>456.28</ele>
        <time>2021-08-11T19:18:11Z</time>
      </trkpt>
      <trkpt lat="47.35813" lon="3.98486">
        <ele>457.72</ele>
        <time>2021-08-11T19:18:19Z</time>
      </trkpt>
      <trkpt lat="47.35804" lon="3.9849">
        <ele>459.17</ele>
        <time>2021-08-11T19:18:26Z</time>
      </trkpt>
      <trkpt lat="47.35796" lon="3.98496">
        <ele>459.65</ele>
        <time>2021-08-11T19:18:34Z</time>
      </trkpt>
      <trkpt lat="47.35783" lon="3.98506">
        <ele>462.05</ele>
        <time>2021-08-11T19:18:44Z</time>
      </trkpt>
      <trkpt lat="47.35775" lon="3.98514">
        <ele>462.05</ele>
        <time>2021-08-11T19:18:51Z</time>
      </trkpt>
      <trkpt lat="47.35769" lon="3.98519">
        <ele>463.01</ele>
        <time>2021-08-11T19:18:57Z</time>
      </trkpt>
      <trkpt lat="47.35758" lon="3.98532">
        <ele>463.01</ele>
        <time>2021-08-11T19:19:04Z</time>
      </trkpt>
      <trkpt lat="47.35747" lon="3.9855">
        <ele>463.49</ele>
        <time>2021-08-11T19:19:11Z</time>
      </trkpt>
      <trkpt lat="47.35733" lon="3.98568">
        <ele>463.97</ele>
        <time>2021-08-11T19:19:19Z</time>
      </trkpt>
      <trkpt lat="47.35724" lon="3.9858">
        <ele>464.93</ele>
        <time>2021-08-11T19:19:26Z</time>
      </trkpt>
      <trkpt lat="47.35717" lon="3.98594">
        <ele>465.42</ele>
        <time>2021-08-11T19:19:33Z</time>
      </trkpt>
      <trkpt lat="47.35709" lon="3.98609">
        <ele>465.9</ele>
        <time>2021-08-11T19:19:39Z</time>
      </trkpt>
      <trkpt lat="47.35699" lon="3.98628">
        <ele>466.38</ele>
        <time>2021-08-11T19:19:47Z</time>
      </trkpt>
      <trkpt lat="47.35695" lon="3.98636">
        <ele>463.97</ele>
        <time>2021-08-11T19:19:50Z</time>
      </trkpt>
      <trkpt lat="47.35685" lon="3.98659">
        <ele>463.01</ele>
        <time>2021-08-11T19:19:55Z</time>
      </trkpt>
      <trkpt lat="47.35679" lon="3.98673">
        <ele>462.53</ele>
        <time>2021-08-11T19:19:58Z</time>
      </trkpt>
      <trkpt lat="47.35663" lon="3.98695">
        <ele>462.53</ele>
        <time>2021-08-11T19:20:03Z</time>
      </trkpt>
      <trkpt lat="47.35657" lon="3.987">
        <ele>462.53</ele>
        <time>2021-08-11T19:20:09Z</time>
      </trkpt>
      <trkpt lat="47.35658" lon="3.98702">
        <ele>462.53</ele>
        <time>2021-08-11T19:20:11Z</time>
      </trkpt>
      <trkpt lat="47.35657" lon="3.98703">
        <ele>462.53</ele>
        <time>2021-08-11T19:20:16Z</time>
      </trkpt>
      <trkpt lat="47.35657" lon="3.98703">
        <ele>462.53</ele>
        <time>2021-08-11T19:20:17Z</time>
      </trkpt>
      <trkpt lat="47.35661" lon="3.98707">
        <ele>462.53</ele>
        <time>2021-08-11T19:20:24Z</time>
      </trkpt>
      <trkpt lat="47.35663" lon="3.98707">
        <ele>462.53</ele>
        <time>2021-08-11T19:20:30Z</time>
      </trkpt>
      <trkpt lat="47.35663" lon="3.98709">
        <ele>462.53</ele>
        <time>2021-08-11T19:20:33Z</time>
      </trkpt>
      <trkpt lat="47.35667" lon="3.98715">
        <ele>463.97</ele>
        <time>2021-08-11T19:20:36Z</time>
      </trkpt>
      <trkpt lat="47.35669" lon="3.98717">
        <ele>463.97</ele>
        <time>2021-08-11T19:20:37Z</time>
      </trkpt>
      <trkpt lat="47.3567" lon="3.98719">
        <ele>464.45</ele>
        <time>2021-08-11T19:20:38Z</time>
      </trkpt>
      <trkpt lat="47.35672" lon="3.98723">
        <ele>464.45</ele>
        <time>2021-08-11T19:20:39Z</time>
      </trkpt>
      <trkpt lat="47.35674" lon="3.98726">
        <ele>464.45</ele>
        <time>2021-08-11T19:20:40Z</time>
      </trkpt>
      <trkpt lat="47.35676" lon="3.9873">
        <ele>465.42</ele>
        <time>2021-08-11T19:20:41Z</time>
      </trkpt>
      <trkpt lat="47.35689" lon="3.98751">
        <ele>466.86</ele>
        <time>2021-08-11T19:20:49Z</time>
      </trkpt>
      <trkpt lat="47.35699" lon="3.98773">
        <ele>467.82</ele>
        <time>2021-08-11T19:20:58Z</time>
      </trkpt>
      <trkpt lat="47.35696" lon="3.98792">
        <ele>467.82</ele>
        <time>2021-08-11T19:21:05Z</time>
      </trkpt>
      <trkpt lat="47.35692" lon="3.9882">
        <ele>468.78</ele>
        <time>2021-08-11T19:21:15Z</time>
      </trkpt>
      <trkpt lat="47.35692" lon="3.98834">
        <ele>469.74</ele>
        <time>2021-08-11T19:21:20Z</time>
      </trkpt>
      <trkpt lat="47.35691" lon="3.98837">
        <ele>469.26</ele>
        <time>2021-08-11T19:21:21Z</time>
      </trkpt>
      <trkpt lat="47.35691" lon="3.98839">
        <ele>469.26</ele>
        <time>2021-08-11T19:21:22Z</time>
      </trkpt>
      <trkpt lat="47.35691" lon="3.98859">
        <ele>470.7</ele>
        <time>2021-08-11T19:21:31Z</time>
      </trkpt>
      <trkpt lat="47.35689" lon="3.98861">
        <ele>471.18</ele>
        <time>2021-08-11T19:21:36Z</time>
      </trkpt>
      <trkpt lat="47.35688" lon="3.98861">
        <ele>471.18</ele>
        <time>2021-08-11T19:21:37Z</time>
      </trkpt>
      <trkpt lat="47.35688" lon="3.98859">
        <ele>471.18</ele>
        <time>2021-08-11T19:21:38Z</time>
      </trkpt>
      <trkpt lat="47.35689" lon="3.98857">
        <ele>471.18</ele>
        <time>2021-08-11T19:21:39Z</time>
      </trkpt>
      <trkpt lat="47.35689" lon="3.98854">
        <ele>471.18</ele>
        <time>2021-08-11T19:21:40Z</time>
      </trkpt>
      <trkpt lat="47.3569" lon="3.9885">
        <ele>471.18</ele>
        <time>2021-08-11T19:21:41Z</time>
      </trkpt>
      <trkpt lat="47.3569" lon="3.98846">
        <ele>471.18</ele>
        <time>2021-08-11T19:21:42Z</time>
      </trkpt>
      <trkpt lat="47.35691" lon="3.98829">
        <ele>469.74</ele>
        <time>2021-08-11T19:21:45Z</time>
      </trkpt>
      <trkpt lat="47.35687" lon="3.9881">
        <ele>468.3</ele>
        <time>2021-08-11T19:21:49Z</time>
      </trkpt>
      <trkpt lat="47.35685" lon="3.98808">
        <ele>468.3</ele>
        <time>2021-08-11T19:21:50Z</time>
      </trkpt>
      <trkpt lat="47.35683" lon="3.98808">
        <ele>468.3</ele>
        <time>2021-08-11T19:21:51Z</time>
      </trkpt>
      <trkpt lat="47.35681" lon="3.98809">
        <ele>468.3</ele>
        <time>2021-08-11T19:21:52Z</time>
      </trkpt>
      <trkpt lat="47.3568" lon="3.98811">
        <ele>468.3</ele>
        <time>2021-08-11T19:21:53Z</time>
      </trkpt>
      <trkpt lat="47.35668" lon="3.98817">
        <ele>471.66</ele>
        <time>2021-08-11T19:22:02Z</time>
      </trkpt>
      <trkpt lat="47.35659" lon="3.98819">
        <ele>472.63</ele>
        <time>2021-08-11T19:22:11Z</time>
      </trkpt>
      <trkpt lat="47.35653" lon="3.98822">
        <ele>474.07</ele>
        <time>2021-08-11T19:22:19Z</time>
      </trkpt>
      <trkpt lat="47.35651" lon="3.98822">
        <ele>474.55</ele>
        <time>2021-08-11T19:22:24Z</time>
      </trkpt>
      <trkpt lat="47.35646" lon="3.98822">
        <ele>475.03</ele>
        <time>2021-08-11T19:22:31Z</time>
      </trkpt>
      <trkpt lat="47.3564" lon="3.98823">
        <ele>476.47</ele>
        <time>2021-08-11T19:22:38Z</time>
      </trkpt>
      <trkpt lat="47.35634" lon="3.98824">
        <ele>477.91</ele>
        <time>2021-08-11T19:22:46Z</time>
      </trkpt>
      <trkpt lat="47.35629" lon="3.98825">
        <ele>478.87</ele>
        <time>2021-08-11T19:22:53Z</time>
      </trkpt>
      <trkpt lat="47.35625" lon="3.9883">
        <ele>480.32</ele>
        <time>2021-08-11T19:23:01Z</time>
      </trkpt>
      <trkpt lat="47.35621" lon="3.98835">
        <ele>481.76</ele>
        <time>2021-08-11T19:23:09Z</time>
      </trkpt>
      <trkpt lat="47.35617" lon="3.98842">
        <ele>482.72</ele>
        <time>2021-08-11T19:23:17Z</time>
      </trkpt>
      <trkpt lat="47.35613" lon="3.98849">
        <ele>483.68</ele>
        <time>2021-08-11T19:23:25Z</time>
      </trkpt>
      <trkpt lat="47.35609" lon="3.98853">
        <ele>485.12</ele>
        <time>2021-08-11T19:23:32Z</time>
      </trkpt>
      <trkpt lat="47.35606" lon="3.98861">
        <ele>487.05</ele>
        <time>2021-08-11T19:23:42Z</time>
      </trkpt>
      <trkpt lat="47.35605" lon="3.98866">
        <ele>487.53</ele>
        <time>2021-08-11T19:23:50Z</time>
      </trkpt>
      <trkpt lat="47.35603" lon="3.98876">
        <ele>488.97</ele>
        <time>2021-08-11T19:23:59Z</time>
      </trkpt>
      <trkpt lat="47.35602" lon="3.98886">
        <ele>489.93</ele>
        <time>2021-08-11T19:24:08Z</time>
      </trkpt>
      <trkpt lat="47.35601" lon="3.98893">
        <ele>491.37</ele>
        <time>2021-08-11T19:24:16Z</time>
      </trkpt>
      <trkpt lat="47.35603" lon="3.98904">
        <ele>492.81</ele>
        <time>2021-08-11T19:24:25Z</time>
      </trkpt>
      <trkpt lat="47.35603" lon="3.98906">
        <ele>492.81</ele>
        <time>2021-08-11T19:24:26Z</time>
      </trkpt>
      <trkpt lat="47.35604" lon="3.98914">
        <ele>493.29</ele>
        <time>2021-08-11T19:24:32Z</time>
      </trkpt>
      <trkpt lat="47.35604" lon="3.98923">
        <ele>494.74</ele>
        <time>2021-08-11T19:24:39Z</time>
      </trkpt>
      <trkpt lat="47.35603" lon="3.98936">
        <ele>495.22</ele>
        <time>2021-08-11T19:24:48Z</time>
      </trkpt>
      <trkpt lat="47.35602" lon="3.98942">
        <ele>496.18</ele>
        <time>2021-08-11T19:24:53Z</time>
      </trkpt>
      <trkpt lat="47.35604" lon="3.98945">
        <ele>496.18</ele>
        <time>2021-08-11T19:25:00Z</time>
      </trkpt>
      <trkpt lat="47.356" lon="3.98953">
        <ele>496.18</ele>
        <time>2021-08-11T19:25:07Z</time>
      </trkpt>
      <trkpt lat="47.35598" lon="3.98958">
        <ele>497.62</ele>
        <time>2021-08-11T19:25:14Z</time>
      </trkpt>
      <trkpt lat="47.35596" lon="3.98961">
        <ele>497.62</ele>
        <time>2021-08-11T19:25:16Z</time>
      </trkpt>
      <trkpt lat="47.35595" lon="3.98961">
        <ele>497.62</ele>
        <time>2021-08-11T19:25:17Z</time>
      </trkpt>
      <trkpt lat="47.35592" lon="3.98969">
        <ele>498.1</ele>
        <time>2021-08-11T19:25:22Z</time>
      </trkpt>
      <trkpt lat="47.35588" lon="3.98982">
        <ele>499.54</ele>
        <time>2021-08-11T19:25:30Z</time>
      </trkpt>
      <trkpt lat="47.35584" lon="3.98996">
        <ele>500.5</ele>
        <time>2021-08-11T19:25:38Z</time>
      </trkpt>
      <trkpt lat="47.35584" lon="3.99001">
        <ele>500.98</ele>
        <time>2021-08-11T19:25:41Z</time>
      </trkpt>
      <trkpt lat="47.35584" lon="3.99003">
        <ele>500.98</ele>
        <time>2021-08-11T19:25:42Z</time>
      </trkpt>
      <trkpt lat="47.35583" lon="3.99008">
        <ele>502.43</ele>
        <time>2021-08-11T19:25:45Z</time>
      </trkpt>
      <trkpt lat="47.35578" lon="3.9902">
        <ele>503.87</ele>
        <time>2021-08-11T19:25:52Z</time>
      </trkpt>
      <trkpt lat="47.35577" lon="3.99023">
        <ele>503.87</ele>
        <time>2021-08-11T19:25:53Z</time>
      </trkpt>
      <trkpt lat="47.35576" lon="3.99025">
        <ele>503.87</ele>
        <time>2021-08-11T19:25:54Z</time>
      </trkpt>
      <trkpt lat="47.35571" lon="3.99038">
        <ele>505.31</ele>
        <time>2021-08-11T19:26:00Z</time>
      </trkpt>
      <trkpt lat="47.3557" lon="3.9904">
        <ele>505.31</ele>
        <time>2021-08-11T19:26:01Z</time>
      </trkpt>
      <trkpt lat="47.35566" lon="3.99055">
        <ele>505.79</ele>
        <time>2021-08-11T19:26:08Z</time>
      </trkpt>
      <trkpt lat="47.35566" lon="3.9906">
        <ele>506.27</ele>
        <time>2021-08-11T19:26:11Z</time>
      </trkpt>
      <trkpt lat="47.35566" lon="3.99062">
        <ele>506.27</ele>
        <time>2021-08-11T19:26:12Z</time>
      </trkpt>
      <trkpt lat="47.35566" lon="3.99064">
        <ele>506.27</ele>
        <time>2021-08-11T19:26:13Z</time>
      </trkpt>
      <trkpt lat="47.35566" lon="3.99072">
        <ele>507.23</ele>
        <time>2021-08-11T19:26:17Z</time>
      </trkpt>
      <trkpt lat="47.35566" lon="3.99074">
        <ele>507.23</ele>
        <time>2021-08-11T19:26:18Z</time>
      </trkpt>
      <trkpt lat="47.35565" lon="3.99076">
        <ele>507.23</ele>
        <time>2021-08-11T19:26:19Z</time>
      </trkpt>
      <trkpt lat="47.35563" lon="3.99084">
        <ele>507.23</ele>
        <time>2021-08-11T19:26:23Z</time>
      </trkpt>
      <trkpt lat="47.35562" lon="3.99086">
        <ele>507.23</ele>
        <time>2021-08-11T19:26:24Z</time>
      </trkpt>
      <trkpt lat="47.35562" lon="3.99088">
        <ele>505.79</ele>
        <time>2021-08-11T19:26:25Z</time>
      </trkpt>
      <trkpt lat="47.35562" lon="3.9909">
        <ele>505.79</ele>
        <time>2021-08-11T19:26:26Z</time>
      </trkpt>
      <trkpt lat="47.35561" lon="3.99094">
        <ele>504.35</ele>
        <time>2021-08-11T19:26:27Z</time>
      </trkpt>
      <trkpt lat="47.35562" lon="3.99097">
        <ele>503.87</ele>
        <time>2021-08-11T19:26:28Z</time>
      </trkpt>
      <trkpt lat="47.35561" lon="3.99101">
        <ele>503.39</ele>
        <time>2021-08-11T19:26:29Z</time>
      </trkpt>
      <trkpt lat="47.3556" lon="3.99108">
        <ele>502.91</ele>
        <time>2021-08-11T19:26:33Z</time>
      </trkpt>
      <trkpt lat="47.35558" lon="3.99111">
        <ele>501.95</ele>
        <time>2021-08-11T19:26:35Z</time>
      </trkpt>
      <trkpt lat="47.35557" lon="3.99114">
        <ele>500.98</ele>
        <time>2021-08-11T19:26:36Z</time>
      </trkpt>
      <trkpt lat="47.35557" lon="3.99119">
        <ele>500.5</ele>
        <time>2021-08-11T19:26:37Z</time>
      </trkpt>
      <trkpt lat="47.35557" lon="3.99124">
        <ele>500.5</ele>
        <time>2021-08-11T19:26:38Z</time>
      </trkpt>
      <trkpt lat="47.35557" lon="3.99128">
        <ele>499.54</ele>
        <time>2021-08-11T19:26:39Z</time>
      </trkpt>
      <trkpt lat="47.35556" lon="3.99131">
        <ele>499.06</ele>
        <time>2021-08-11T19:26:40Z</time>
      </trkpt>
      <trkpt lat="47.35555" lon="3.99135">
        <ele>499.06</ele>
        <time>2021-08-11T19:26:41Z</time>
      </trkpt>
      <trkpt lat="47.35549" lon="3.99163">
        <ele>498.1</ele>
        <time>2021-08-11T19:26:48Z</time>
      </trkpt>
      <trkpt lat="47.35547" lon="3.99169">
        <ele>497.62</ele>
        <time>2021-08-11T19:26:50Z</time>
      </trkpt>
      <trkpt lat="47.35543" lon="3.99177">
        <ele>497.62</ele>
        <time>2021-08-11T19:26:55Z</time>
      </trkpt>
      <trkpt lat="47.3554" lon="3.99183">
        <ele>497.62</ele>
        <time>2021-08-11T19:27:05Z</time>
      </trkpt>
      <trkpt lat="47.35541" lon="3.99181">
        <ele>497.62</ele>
        <time>2021-08-11T19:27:11Z</time>
      </trkpt>
      <trkpt lat="47.35543" lon="3.9918">
        <ele>497.62</ele>
        <time>2021-08-11T19:27:17Z</time>
      </trkpt>
      <trkpt lat="47.35545" lon="3.99178">
        <ele>497.62</ele>
        <time>2021-08-11T19:27:19Z</time>
      </trkpt>
      <trkpt lat="47.35546" lon="3.99178">
        <ele>498.1</ele>
        <time>2021-08-11T19:27:20Z</time>
      </trkpt>
      <trkpt lat="47.35549" lon="3.99178">
        <ele>498.1</ele>
        <time>2021-08-11T19:27:22Z</time>
      </trkpt>
      <trkpt lat="47.35553" lon="3.99177">
        <ele>498.1</ele>
        <time>2021-08-11T19:27:26Z</time>
      </trkpt>
      <trkpt lat="47.35572" lon="3.99181">
        <ele>498.1</ele>
        <time>2021-08-11T19:27:35Z</time>
      </trkpt>
      <trkpt lat="47.35587" lon="3.99186">
        <ele>499.06</ele>
        <time>2021-08-11T19:27:42Z</time>
      </trkpt>
      <trkpt lat="47.35589" lon="3.99189">
        <ele>499.54</ele>
        <time>2021-08-11T19:27:44Z</time>
      </trkpt>
      <trkpt lat="47.35604" lon="3.99197">
        <ele>499.54</ele>
        <time>2021-08-11T19:27:54Z</time>
      </trkpt>
      <trkpt lat="47.3561" lon="3.99198">
        <ele>499.54</ele>
        <time>2021-08-11T19:27:57Z</time>
      </trkpt>
      <trkpt lat="47.35614" lon="3.99199">
        <ele>498.58</ele>
        <time>2021-08-11T19:28:01Z</time>
      </trkpt>
      <trkpt lat="47.3561" lon="3.99199">
        <ele>498.58</ele>
        <time>2021-08-11T19:28:18Z</time>
      </trkpt>
      <trkpt lat="47.35612" lon="3.99202">
        <ele>498.58</ele>
        <time>2021-08-11T19:28:30Z</time>
      </trkpt>
      <trkpt lat="47.35614" lon="3.99204">
        <ele>498.58</ele>
        <time>2021-08-11T19:28:32Z</time>
      </trkpt>
      <trkpt lat="47.35614" lon="3.99209">
        <ele>498.58</ele>
        <time>2021-08-11T19:28:35Z</time>
      </trkpt>
      <trkpt lat="47.35618" lon="3.99214">
        <ele>498.58</ele>
        <time>2021-08-11T19:28:38Z</time>
      </trkpt>
      <trkpt lat="47.35629" lon="3.99217">
        <ele>498.58</ele>
        <time>2021-08-11T19:28:44Z</time>
      </trkpt>
      <trkpt lat="47.35635" lon="3.99221">
        <ele>498.1</ele>
        <time>2021-08-11T19:28:50Z</time>
      </trkpt>
      <trkpt lat="47.35641" lon="3.99225">
        <ele>498.1</ele>
        <time>2021-08-11T19:29:02Z</time>
      </trkpt>
      <trkpt lat="47.35641" lon="3.99222">
        <ele>497.14</ele>
        <time>2021-08-11T19:29:08Z</time>
      </trkpt>
      <trkpt lat="47.35642" lon="3.99222">
        <ele>497.14</ele>
        <time>2021-08-11T19:29:24Z</time>
      </trkpt>
      <trkpt lat="47.35639" lon="3.99222">
        <ele>498.1</ele>
        <time>2021-08-11T19:29:31Z</time>
      </trkpt>
      <trkpt lat="47.35635" lon="3.99223">
        <ele>498.58</ele>
        <time>2021-08-11T19:29:44Z</time>
      </trkpt>
      <trkpt lat="47.35633" lon="3.99226">
        <ele>499.06</ele>
        <time>2021-08-11T19:29:49Z</time>
      </trkpt>
      <trkpt lat="47.3563" lon="3.99234">
        <ele>500.5</ele>
        <time>2021-08-11T19:29:58Z</time>
      </trkpt>
      <trkpt lat="47.35628" lon="3.99245">
        <ele>502.43</ele>
        <time>2021-08-11T19:30:08Z</time>
      </trkpt>
      <trkpt lat="47.35628" lon="3.99251">
        <ele>502.43</ele>
        <time>2021-08-11T19:30:12Z</time>
      </trkpt>
      <trkpt lat="47.35628" lon="3.99263">
        <ele>503.39</ele>
        <time>2021-08-11T19:30:19Z</time>
      </trkpt>
      <trkpt lat="47.35627" lon="3.99271">
        <ele>504.35</ele>
        <time>2021-08-11T19:30:25Z</time>
      </trkpt>
      <trkpt lat="47.35627" lon="3.99283">
        <ele>504.83</ele>
        <time>2021-08-11T19:30:33Z</time>
      </trkpt>
      <trkpt lat="47.35625" lon="3.99293">
        <ele>506.27</ele>
        <time>2021-08-11T19:30:41Z</time>
      </trkpt>
      <trkpt lat="47.35625" lon="3.99305">
        <ele>507.23</ele>
        <time>2021-08-11T19:30:50Z</time>
      </trkpt>
      <trkpt lat="47.35625" lon="3.99309">
        <ele>507.71</ele>
        <time>2021-08-11T19:30:54Z</time>
      </trkpt>
      <trkpt lat="47.35629" lon="3.99324">
        <ele>508.67</ele>
        <time>2021-08-11T19:31:02Z</time>
      </trkpt>
      <trkpt lat="47.35631" lon="3.9934">
        <ele>508.67</ele>
        <time>2021-08-11T19:31:10Z</time>
      </trkpt>
      <trkpt lat="47.35631" lon="3.99343">
        <ele>509.64</ele>
        <time>2021-08-11T19:31:12Z</time>
      </trkpt>
      <trkpt lat="47.35633" lon="3.99361">
        <ele>510.6</ele>
        <time>2021-08-11T19:31:20Z</time>
      </trkpt>
      <trkpt lat="47.35636" lon="3.9938">
        <ele>511.56</ele>
        <time>2021-08-11T19:31:28Z</time>
      </trkpt>
      <trkpt lat="47.35638" lon="3.99393">
        <ele>513</ele>
        <time>2021-08-11T19:31:33Z</time>
      </trkpt>
      <trkpt lat="47.3564" lon="3.99399">
        <ele>513</ele>
        <time>2021-08-11T19:31:36Z</time>
      </trkpt>
      <trkpt lat="47.35647" lon="3.99414">
        <ele>513</ele>
        <time>2021-08-11T19:31:44Z</time>
      </trkpt>
      <trkpt lat="47.35657" lon="3.99426">
        <ele>513</ele>
        <time>2021-08-11T19:31:52Z</time>
      </trkpt>
      <trkpt lat="47.35664" lon="3.99436">
        <ele>513</ele>
        <time>2021-08-11T19:31:59Z</time>
      </trkpt>
      <trkpt lat="47.3567" lon="3.99448">
        <ele>511.56</ele>
        <time>2021-08-11T19:32:04Z</time>
      </trkpt>
      <trkpt lat="47.35681" lon="3.99471">
        <ele>510.12</ele>
        <time>2021-08-11T19:32:10Z</time>
      </trkpt>
      <trkpt lat="47.35686" lon="3.99486">
        <ele>510.12</ele>
        <time>2021-08-11T19:32:16Z</time>
      </trkpt>
      <trkpt lat="47.35686" lon="3.99496">
        <ele>510.12</ele>
        <time>2021-08-11T19:32:20Z</time>
      </trkpt>
      <trkpt lat="47.35691" lon="3.99508">
        <ele>509.64</ele>
        <time>2021-08-11T19:32:28Z</time>
      </trkpt>
      <trkpt lat="47.35692" lon="3.99509">
        <ele>509.16</ele>
        <time>2021-08-11T19:32:43Z</time>
      </trkpt>
      <trkpt lat="47.35696" lon="3.99509">
        <ele>509.16</ele>
        <time>2021-08-11T19:33:00Z</time>
      </trkpt>
      <trkpt lat="47.35696" lon="3.99513">
        <ele>509.16</ele>
        <time>2021-08-11T19:33:16Z</time>
      </trkpt>
      <trkpt lat="47.35696" lon="3.99515">
        <ele>509.64</ele>
        <time>2021-08-11T19:33:23Z</time>
      </trkpt>
      <trkpt lat="47.35699" lon="3.9952">
        <ele>509.64</ele>
        <time>2021-08-11T19:33:26Z</time>
      </trkpt>
      <trkpt lat="47.35712" lon="3.99549">
        <ele>507.23</ele>
        <time>2021-08-11T19:33:33Z</time>
      </trkpt>
      <trkpt lat="47.35725" lon="3.99579">
        <ele>505.31</ele>
        <time>2021-08-11T19:33:40Z</time>
      </trkpt>
      <trkpt lat="47.35734" lon="3.99598">
        <ele>504.35</ele>
        <time>2021-08-11T19:33:45Z</time>
      </trkpt>
      <trkpt lat="47.35734" lon="3.99599">
        <ele>503.87</ele>
        <time>2021-08-11T19:33:46Z</time>
      </trkpt>
      <trkpt lat="47.35735" lon="3.99601">
        <ele>503.87</ele>
        <time>2021-08-11T19:33:47Z</time>
      </trkpt>
      <trkpt lat="47.35736" lon="3.99605">
        <ele>503.87</ele>
        <time>2021-08-11T19:33:48Z</time>
      </trkpt>
      <trkpt lat="47.3574" lon="3.99624">
        <ele>501.95</ele>
        <time>2021-08-11T19:33:52Z</time>
      </trkpt>
      <trkpt lat="47.35742" lon="3.99637">
        <ele>500.5</ele>
        <time>2021-08-11T19:33:54Z</time>
      </trkpt>
      <trkpt lat="47.35744" lon="3.99645">
        <ele>500.5</ele>
        <time>2021-08-11T19:33:55Z</time>
      </trkpt>
      <trkpt lat="47.35747" lon="3.99664">
        <ele>498.58</ele>
        <time>2021-08-11T19:33:58Z</time>
      </trkpt>
      <trkpt lat="47.35746" lon="3.99695">
        <ele>497.14</ele>
        <time>2021-08-11T19:34:04Z</time>
      </trkpt>
      <trkpt lat="47.35743" lon="3.99733">
        <ele>495.7</ele>
        <time>2021-08-11T19:34:10Z</time>
      </trkpt>
      <trkpt lat="47.35743" lon="3.99747">
        <ele>495.7</ele>
        <time>2021-08-11T19:34:12Z</time>
      </trkpt>
      <trkpt lat="47.35744" lon="3.99753">
        <ele>495.7</ele>
        <time>2021-08-11T19:34:13Z</time>
      </trkpt>
      <trkpt lat="47.35745" lon="3.99758">
        <ele>495.7</ele>
        <time>2021-08-11T19:34:14Z</time>
      </trkpt>
      <trkpt lat="47.35746" lon="3.99764">
        <ele>495.7</ele>
        <time>2021-08-11T19:34:15Z</time>
      </trkpt>
      <trkpt lat="47.35747" lon="3.9977">
        <ele>495.22</ele>
        <time>2021-08-11T19:34:16Z</time>
      </trkpt>
      <trkpt lat="47.35749" lon="3.99783">
        <ele>494.26</ele>
        <time>2021-08-11T19:34:18Z</time>
      </trkpt>
      <trkpt lat="47.35749" lon="3.99824">
        <ele>494.26</ele>
        <time>2021-08-11T19:34:24Z</time>
      </trkpt>
      <trkpt lat="47.35748" lon="3.99838">
        <ele>494.26</ele>
        <time>2021-08-11T19:34:29Z</time>
      </trkpt>
      <trkpt lat="47.35748" lon="3.99861">
        <ele>494.26</ele>
        <time>2021-08-11T19:34:37Z</time>
      </trkpt>
      <trkpt lat="47.35749" lon="3.99884">
        <ele>494.26</ele>
        <time>2021-08-11T19:34:44Z</time>
      </trkpt>
      <trkpt lat="47.35745" lon="3.99916">
        <ele>492.33</ele>
        <time>2021-08-11T19:34:51Z</time>
      </trkpt>
      <trkpt lat="47.35745" lon="3.99932">
        <ele>492.33</ele>
        <time>2021-08-11T19:34:54Z</time>
      </trkpt>
      <trkpt lat="47.35743" lon="3.99936">
        <ele>491.37</ele>
        <time>2021-08-11T19:34:55Z</time>
      </trkpt>
      <trkpt lat="47.35742" lon="3.99939">
        <ele>491.37</ele>
        <time>2021-08-11T19:34:56Z</time>
      </trkpt>
      <trkpt lat="47.35739" lon="3.99942">
        <ele>491.37</ele>
        <time>2021-08-11T19:34:57Z</time>
      </trkpt>
      <trkpt lat="47.35737" lon="3.99946">
        <ele>490.89</ele>
        <time>2021-08-11T19:34:58Z</time>
      </trkpt>
      <trkpt lat="47.35735" lon="3.99949">
        <ele>490.41</ele>
        <time>2021-08-11T19:34:59Z</time>
      </trkpt>
      <trkpt lat="47.35733" lon="3.99957">
        <ele>490.41</ele>
        <time>2021-08-11T19:35:01Z</time>
      </trkpt>
      <trkpt lat="47.35733" lon="3.99961">
        <ele>489.93</ele>
        <time>2021-08-11T19:35:02Z</time>
      </trkpt>
      <trkpt lat="47.35733" lon="3.99965">
        <ele>489.45</ele>
        <time>2021-08-11T19:35:03Z</time>
      </trkpt>
      <trkpt lat="47.35732" lon="3.99968">
        <ele>489.45</ele>
        <time>2021-08-11T19:35:04Z</time>
      </trkpt>
      <trkpt lat="47.3573" lon="3.99971">
        <ele>489.45</ele>
        <time>2021-08-11T19:35:05Z</time>
      </trkpt>
      <trkpt lat="47.35729" lon="3.99974">
        <ele>489.45</ele>
        <time>2021-08-11T19:35:06Z</time>
      </trkpt>
      <trkpt lat="47.35728" lon="3.99976">
        <ele>489.45</ele>
        <time>2021-08-11T19:35:07Z</time>
      </trkpt>
      <trkpt lat="47.35726" lon="3.9998">
        <ele>489.45</ele>
        <time>2021-08-11T19:35:08Z</time>
      </trkpt>
      <trkpt lat="47.35709" lon="4.00009">
        <ele>488.97</ele>
        <time>2021-08-11T19:35:15Z</time>
      </trkpt>
      <trkpt lat="47.35692" lon="4.00036">
        <ele>488.97</ele>
        <time>2021-08-11T19:35:22Z</time>
      </trkpt>
      <trkpt lat="47.35687" lon="4.00046">
        <ele>488.97</ele>
        <time>2021-08-11T19:35:29Z</time>
      </trkpt>
      <trkpt lat="47.35688" lon="4.00049">
        <ele>488.97</ele>
        <time>2021-08-11T19:35:46Z</time>
      </trkpt>
      <trkpt lat="47.35684" lon="4.00045">
        <ele>488.97</ele>
        <time>2021-08-11T19:36:01Z</time>
      </trkpt>
      <trkpt lat="47.35682" lon="4.00048">
        <ele>488.97</ele>
        <time>2021-08-11T19:36:27Z</time>
      </trkpt>
      <trkpt lat="47.35682" lon="4.00057">
        <ele>488.97</ele>
        <time>2021-08-11T19:36:48Z</time>
      </trkpt>
      <trkpt lat="47.35682" lon="4.00057">
        <ele>488.97</ele>
        <time>2021-08-11T19:37:04Z</time>
      </trkpt>
      <trkpt lat="47.35677" lon="4.00067">
        <ele>490.41</ele>
        <time>2021-08-11T19:37:09Z</time>
      </trkpt>
      <trkpt lat="47.35669" lon="4.00086">
        <ele>490.89</ele>
        <time>2021-08-11T19:37:16Z</time>
      </trkpt>
      <trkpt lat="47.35663" lon="4.00104">
        <ele>491.37</ele>
        <time>2021-08-11T19:37:23Z</time>
      </trkpt>
      <trkpt lat="47.35664" lon="4.00106">
        <ele>491.85</ele>
        <time>2021-08-11T19:37:24Z</time>
      </trkpt>
      <trkpt lat="47.35664" lon="4.00108">
        <ele>491.85</ele>
        <time>2021-08-11T19:37:25Z</time>
      </trkpt>
      <trkpt lat="47.35665" lon="4.0011">
        <ele>491.85</ele>
        <time>2021-08-11T19:37:26Z</time>
      </trkpt>
      <trkpt lat="47.35667" lon="4.00112">
        <ele>491.85</ele>
        <time>2021-08-11T19:37:27Z</time>
      </trkpt>
      <trkpt lat="47.35676" lon="4.00131">
        <ele>492.81</ele>
        <time>2021-08-11T19:37:34Z</time>
      </trkpt>
      <trkpt lat="47.35685" lon="4.00148">
        <ele>494.26</ele>
        <time>2021-08-11T19:37:41Z</time>
      </trkpt>
      <trkpt lat="47.35698" lon="4.00162">
        <ele>494.26</ele>
        <time>2021-08-11T19:37:48Z</time>
      </trkpt>
      <trkpt lat="47.35713" lon="4.00174">
        <ele>494.26</ele>
        <time>2021-08-11T19:37:53Z</time>
      </trkpt>
      <trkpt lat="47.35737" lon="4.00189">
        <ele>491.37</ele>
        <time>2021-08-11T19:37:59Z</time>
      </trkpt>
      <trkpt lat="47.35746" lon="4.00192">
        <ele>490.41</ele>
        <time>2021-08-11T19:38:01Z</time>
      </trkpt>
      <trkpt lat="47.35756" lon="4.00194">
        <ele>488.97</ele>
        <time>2021-08-11T19:38:03Z</time>
      </trkpt>
      <trkpt lat="47.35761" lon="4.00197">
        <ele>488.49</ele>
        <time>2021-08-11T19:38:04Z</time>
      </trkpt>
      <trkpt lat="47.35788" lon="4.00214">
        <ele>485.12</ele>
        <time>2021-08-11T19:38:10Z</time>
      </trkpt>
      <trkpt lat="47.35792" lon="4.00218">
        <ele>485.12</ele>
        <time>2021-08-11T19:38:11Z</time>
      </trkpt>
      <trkpt lat="47.35806" lon="4.00234">
        <ele>482.72</ele>
        <time>2021-08-11T19:38:16Z</time>
      </trkpt>
      <trkpt lat="47.35808" lon="4.00237">
        <ele>482.24</ele>
        <time>2021-08-11T19:38:17Z</time>
      </trkpt>
      <trkpt lat="47.35809" lon="4.00239">
        <ele>482.24</ele>
        <time>2021-08-11T19:38:18Z</time>
      </trkpt>
      <trkpt lat="47.3581" lon="4.00241">
        <ele>481.76</ele>
        <time>2021-08-11T19:38:19Z</time>
      </trkpt>
      <trkpt lat="47.35812" lon="4.00243">
        <ele>481.28</ele>
        <time>2021-08-11T19:38:20Z</time>
      </trkpt>
      <trkpt lat="47.35824" lon="4.00261">
        <ele>478.39</ele>
        <time>2021-08-11T19:38:27Z</time>
      </trkpt>
      <trkpt lat="47.35837" lon="4.00277">
        <ele>475.99</ele>
        <time>2021-08-11T19:38:33Z</time>
      </trkpt>
      <trkpt lat="47.35848" lon="4.00288">
        <ele>474.55</ele>
        <time>2021-08-11T19:38:39Z</time>
      </trkpt>
      <trkpt lat="47.35854" lon="4.00295">
        <ele>473.59</ele>
        <time>2021-08-11T19:38:41Z</time>
      </trkpt>
      <trkpt lat="47.35857" lon="4.00298">
        <ele>472.14</ele>
        <time>2021-08-11T19:38:42Z</time>
      </trkpt>
      <trkpt lat="47.35861" lon="4.00301">
        <ele>472.14</ele>
        <time>2021-08-11T19:38:43Z</time>
      </trkpt>
      <trkpt lat="47.35882" lon="4.0031">
        <ele>469.74</ele>
        <time>2021-08-11T19:38:47Z</time>
      </trkpt>
      <trkpt lat="47.35887" lon="4.00314">
        <ele>469.26</ele>
        <time>2021-08-11T19:38:48Z</time>
      </trkpt>
      <trkpt lat="47.35892" lon="4.00319">
        <ele>468.3</ele>
        <time>2021-08-11T19:38:49Z</time>
      </trkpt>
      <trkpt lat="47.35898" lon="4.00325">
        <ele>467.82</ele>
        <time>2021-08-11T19:38:50Z</time>
      </trkpt>
      <trkpt lat="47.35903" lon="4.00333">
        <ele>467.34</ele>
        <time>2021-08-11T19:38:51Z</time>
      </trkpt>
      <trkpt lat="47.35931" lon="4.00382">
        <ele>464.93</ele>
        <time>2021-08-11T19:38:58Z</time>
      </trkpt>
      <trkpt lat="47.35933" lon="4.00389">
        <ele>464.93</ele>
        <time>2021-08-11T19:38:59Z</time>
      </trkpt>
      <trkpt lat="47.35935" lon="4.00394">
        <ele>464.93</ele>
        <time>2021-08-11T19:39:00Z</time>
      </trkpt>
      <trkpt lat="47.35938" lon="4.00399">
        <ele>464.93</ele>
        <time>2021-08-11T19:39:01Z</time>
      </trkpt>
      <trkpt lat="47.35939" lon="4.00402">
        <ele>464.93</ele>
        <time>2021-08-11T19:39:02Z</time>
      </trkpt>
      <trkpt lat="47.35942" lon="4.00404">
        <ele>464.93</ele>
        <time>2021-08-11T19:39:03Z</time>
      </trkpt>
      <trkpt lat="47.35944" lon="4.00405">
        <ele>465.42</ele>
        <time>2021-08-11T19:39:04Z</time>
      </trkpt>
      <trkpt lat="47.35946" lon="4.00407">
        <ele>465.42</ele>
        <time>2021-08-11T19:39:05Z</time>
      </trkpt>
      <trkpt lat="47.35949" lon="4.00409">
        <ele>464.93</ele>
        <time>2021-08-11T19:39:06Z</time>
      </trkpt>
      <trkpt lat="47.35952" lon="4.00412">
        <ele>464.45</ele>
        <time>2021-08-11T19:39:07Z</time>
      </trkpt>
      <trkpt lat="47.35966" lon="4.00419">
        <ele>463.97</ele>
        <time>2021-08-11T19:39:12Z</time>
      </trkpt>
      <trkpt lat="47.35969" lon="4.00419">
        <ele>463.49</ele>
        <time>2021-08-11T19:39:13Z</time>
      </trkpt>
      <trkpt lat="47.35972" lon="4.00417">
        <ele>463.49</ele>
        <time>2021-08-11T19:39:14Z</time>
      </trkpt>
      <trkpt lat="47.35976" lon="4.00414">
        <ele>463.01</ele>
        <time>2021-08-11T19:39:15Z</time>
      </trkpt>
      <trkpt lat="47.35978" lon="4.00411">
        <ele>463.01</ele>
        <time>2021-08-11T19:39:16Z</time>
      </trkpt>
      <trkpt lat="47.35982" lon="4.00408">
        <ele>462.05</ele>
        <time>2021-08-11T19:39:17Z</time>
      </trkpt>
      <trkpt lat="47.35984" lon="4.00405">
        <ele>462.05</ele>
        <time>2021-08-11T19:39:18Z</time>
      </trkpt>
      <trkpt lat="47.36003" lon="4.00382">
        <ele>460.13</ele>
        <time>2021-08-11T19:39:25Z</time>
      </trkpt>
      <trkpt lat="47.36006" lon="4.00382">
        <ele>460.13</ele>
        <time>2021-08-11T19:39:26Z</time>
      </trkpt>
      <trkpt lat="47.36008" lon="4.00381">
        <ele>460.13</ele>
        <time>2021-08-11T19:39:27Z</time>
      </trkpt>
      <trkpt lat="47.3601" lon="4.00383">
        <ele>460.13</ele>
        <time>2021-08-11T19:39:28Z</time>
      </trkpt>
      <trkpt lat="47.36012" lon="4.00384">
        <ele>460.13</ele>
        <time>2021-08-11T19:39:29Z</time>
      </trkpt>
      <trkpt lat="47.36028" lon="4.00403">
        <ele>460.13</ele>
        <time>2021-08-11T19:39:37Z</time>
      </trkpt>
      <trkpt lat="47.36047" lon="4.00427">
        <ele>461.57</ele>
        <time>2021-08-11T19:39:46Z</time>
      </trkpt>
      <trkpt lat="47.36072" lon="4.00456">
        <ele>462.05</ele>
        <time>2021-08-11T19:39:56Z</time>
      </trkpt>
      <trkpt lat="47.36085" lon="4.00473">
        <ele>462.53</ele>
        <time>2021-08-11T19:40:02Z</time>
      </trkpt>
      <trkpt lat="47.36098" lon="4.00489">
        <ele>463.49</ele>
        <time>2021-08-11T19:40:08Z</time>
      </trkpt>
      <trkpt lat="47.36112" lon="4.00508">
        <ele>464.45</ele>
        <time>2021-08-11T19:40:16Z</time>
      </trkpt>
      <trkpt lat="47.36128" lon="4.00535">
        <ele>464.93</ele>
        <time>2021-08-11T19:40:25Z</time>
      </trkpt>
      <trkpt lat="47.36131" lon="4.00549">
        <ele>464.93</ele>
        <time>2021-08-11T19:40:29Z</time>
      </trkpt>
      <trkpt lat="47.36129" lon="4.00551">
        <ele>464.93</ele>
        <time>2021-08-11T19:40:30Z</time>
      </trkpt>
      <trkpt lat="47.36127" lon="4.00552">
        <ele>464.93</ele>
        <time>2021-08-11T19:40:31Z</time>
      </trkpt>
      <trkpt lat="47.36125" lon="4.00553">
        <ele>464.93</ele>
        <time>2021-08-11T19:40:32Z</time>
      </trkpt>
      <trkpt lat="47.36123" lon="4.00555">
        <ele>464.93</ele>
        <time>2021-08-11T19:40:33Z</time>
      </trkpt>
      <trkpt lat="47.36121" lon="4.00556">
        <ele>464.93</ele>
        <time>2021-08-11T19:40:34Z</time>
      </trkpt>
      <trkpt lat="47.3612" lon="4.00557">
        <ele>464.93</ele>
        <time>2021-08-11T19:40:35Z</time>
      </trkpt>
      <trkpt lat="47.36112" lon="4.00572">
        <ele>465.42</ele>
        <time>2021-08-11T19:40:41Z</time>
      </trkpt>
      <trkpt lat="47.36112" lon="4.00575">
        <ele>465.42</ele>
        <time>2021-08-11T19:40:42Z</time>
      </trkpt>
      <trkpt lat="47.36114" lon="4.00579">
        <ele>465.42</ele>
        <time>2021-08-11T19:40:43Z</time>
      </trkpt>
      <trkpt lat="47.36127" lon="4.006">
        <ele>463.49</ele>
        <time>2021-08-11T19:40:48Z</time>
      </trkpt>
      <trkpt lat="47.36135" lon="4.00614">
        <ele>463.01</ele>
        <time>2021-08-11T19:40:51Z</time>
      </trkpt>
      <trkpt lat="47.36135" lon="4.00619">
        <ele>462.53</ele>
        <time>2021-08-11T19:40:52Z</time>
      </trkpt>
      <trkpt lat="47.36135" lon="4.00624">
        <ele>462.53</ele>
        <time>2021-08-11T19:40:53Z</time>
      </trkpt>
      <trkpt lat="47.36134" lon="4.00626">
        <ele>462.53</ele>
        <time>2021-08-11T19:40:54Z</time>
      </trkpt>
      <trkpt lat="47.36133" lon="4.00629">
        <ele>462.53</ele>
        <time>2021-08-11T19:40:55Z</time>
      </trkpt>
      <trkpt lat="47.36132" lon="4.00632">
        <ele>462.53</ele>
        <time>2021-08-11T19:40:56Z</time>
      </trkpt>
      <trkpt lat="47.36131" lon="4.00634">
        <ele>462.53</ele>
        <time>2021-08-11T19:40:57Z</time>
      </trkpt>
      <trkpt lat="47.3613" lon="4.00636">
        <ele>462.53</ele>
        <time>2021-08-11T19:40:58Z</time>
      </trkpt>
      <trkpt lat="47.36121" lon="4.00656">
        <ele>464.45</ele>
        <time>2021-08-11T19:41:06Z</time>
      </trkpt>
      <trkpt lat="47.36108" lon="4.00676">
        <ele>466.38</ele>
        <time>2021-08-11T19:41:16Z</time>
      </trkpt>
      <trkpt lat="47.36098" lon="4.00696">
        <ele>467.82</ele>
        <time>2021-08-11T19:41:26Z</time>
      </trkpt>
      <trkpt lat="47.36089" lon="4.00714">
        <ele>468.78</ele>
        <time>2021-08-11T19:41:35Z</time>
      </trkpt>
      <trkpt lat="47.3608" lon="4.00734">
        <ele>469.74</ele>
        <time>2021-08-11T19:41:44Z</time>
      </trkpt>
      <trkpt lat="47.36073" lon="4.00751">
        <ele>470.7</ele>
        <time>2021-08-11T19:41:52Z</time>
      </trkpt>
      <trkpt lat="47.36063" lon="4.00775">
        <ele>471.66</ele>
        <time>2021-08-11T19:42:02Z</time>
      </trkpt>
      <trkpt lat="47.36054" lon="4.00802">
        <ele>472.14</ele>
        <time>2021-08-11T19:42:13Z</time>
      </trkpt>
      <trkpt lat="47.36047" lon="4.00831">
        <ele>472.14</ele>
        <time>2021-08-11T19:42:21Z</time>
      </trkpt>
      <trkpt lat="47.36042" lon="4.00855">
        <ele>470.7</ele>
        <time>2021-08-11T19:42:26Z</time>
      </trkpt>
      <trkpt lat="47.36041" lon="4.00875">
        <ele>469.74</ele>
        <time>2021-08-11T19:42:29Z</time>
      </trkpt>
      <trkpt lat="47.36034" lon="4.00916">
        <ele>467.34</ele>
        <time>2021-08-11T19:42:34Z</time>
      </trkpt>
      <trkpt lat="47.36025" lon="4.00967">
        <ele>464.45</ele>
        <time>2021-08-11T19:42:40Z</time>
      </trkpt>
      <trkpt lat="47.36016" lon="4.00989">
        <ele>462.53</ele>
        <time>2021-08-11T19:42:45Z</time>
      </trkpt>
      <trkpt lat="47.35995" lon="4.01021">
        <ele>459.65</ele>
        <time>2021-08-11T19:42:51Z</time>
      </trkpt>
      <trkpt lat="47.35971" lon="4.01062">
        <ele>456.76</ele>
        <time>2021-08-11T19:42:57Z</time>
      </trkpt>
      <trkpt lat="47.35941" lon="4.01111">
        <ele>454.84</ele>
        <time>2021-08-11T19:43:05Z</time>
      </trkpt>
      <trkpt lat="47.35934" lon="4.01135">
        <ele>452.92</ele>
        <time>2021-08-11T19:43:10Z</time>
      </trkpt>
      <trkpt lat="47.35936" lon="4.01152">
        <ele>451.48</ele>
        <time>2021-08-11T19:43:13Z</time>
      </trkpt>
      <trkpt lat="47.35937" lon="4.0116">
        <ele>450.52</ele>
        <time>2021-08-11T19:43:14Z</time>
      </trkpt>
      <trkpt lat="47.3594" lon="4.0121">
        <ele>447.15</ele>
        <time>2021-08-11T19:43:19Z</time>
      </trkpt>
      <trkpt lat="47.35938" lon="4.01282">
        <ele>445.23</ele>
        <time>2021-08-11T19:43:26Z</time>
      </trkpt>
      <trkpt lat="47.35935" lon="4.01292">
        <ele>445.23</ele>
        <time>2021-08-11T19:43:27Z</time>
      </trkpt>
      <trkpt lat="47.35931" lon="4.01309">
        <ele>444.75</ele>
        <time>2021-08-11T19:43:29Z</time>
      </trkpt>
      <trkpt lat="47.35923" lon="4.01341">
        <ele>443.79</ele>
        <time>2021-08-11T19:43:33Z</time>
      </trkpt>
      <trkpt lat="47.35912" lon="4.01369">
        <ele>441.86</ele>
        <time>2021-08-11T19:43:37Z</time>
      </trkpt>
      <trkpt lat="47.35906" lon="4.01383">
        <ele>440.9</ele>
        <time>2021-08-11T19:43:41Z</time>
      </trkpt>
      <trkpt lat="47.35906" lon="4.01386">
        <ele>440.9</ele>
        <time>2021-08-11T19:43:42Z</time>
      </trkpt>
      <trkpt lat="47.35907" lon="4.01389">
        <ele>439.94</ele>
        <time>2021-08-11T19:43:43Z</time>
      </trkpt>
      <trkpt lat="47.35908" lon="4.01392">
        <ele>439.94</ele>
        <time>2021-08-11T19:43:44Z</time>
      </trkpt>
      <trkpt lat="47.35909" lon="4.01395">
        <ele>439.94</ele>
        <time>2021-08-11T19:43:45Z</time>
      </trkpt>
      <trkpt lat="47.35911" lon="4.01399">
        <ele>439.46</ele>
        <time>2021-08-11T19:43:46Z</time>
      </trkpt>
      <trkpt lat="47.35925" lon="4.01421">
        <ele>438.5</ele>
        <time>2021-08-11T19:43:52Z</time>
      </trkpt>
      <trkpt lat="47.35938" lon="4.0145">
        <ele>437.06</ele>
        <time>2021-08-11T19:43:58Z</time>
      </trkpt>
      <trkpt lat="47.3594" lon="4.01456">
        <ele>436.1</ele>
        <time>2021-08-11T19:43:59Z</time>
      </trkpt>
      <trkpt lat="47.35952" lon="4.0149">
        <ele>433.69</ele>
        <time>2021-08-11T19:44:04Z</time>
      </trkpt>
      <trkpt lat="47.35956" lon="4.01496">
        <ele>432.73</ele>
        <time>2021-08-11T19:44:05Z</time>
      </trkpt>
      <trkpt lat="47.3596" lon="4.01501">
        <ele>432.73</ele>
        <time>2021-08-11T19:44:06Z</time>
      </trkpt>
      <trkpt lat="47.35976" lon="4.01521">
        <ele>431.29</ele>
        <time>2021-08-11T19:44:10Z</time>
      </trkpt>
      <trkpt lat="47.3598" lon="4.01527">
        <ele>430.81</ele>
        <time>2021-08-11T19:44:11Z</time>
      </trkpt>
      <trkpt lat="47.36004" lon="4.01577">
        <ele>430.33</ele>
        <time>2021-08-11T19:44:19Z</time>
      </trkpt>
      <trkpt lat="47.36021" lon="4.0161">
        <ele>429.85</ele>
        <time>2021-08-11T19:44:27Z</time>
      </trkpt>
      <trkpt lat="47.36034" lon="4.01623">
        <ele>429.85</ele>
        <time>2021-08-11T19:44:33Z</time>
      </trkpt>
      <trkpt lat="47.36047" lon="4.01624">
        <ele>431.77</ele>
        <time>2021-08-11T19:44:40Z</time>
      </trkpt>
      <trkpt lat="47.36055" lon="4.01623">
        <ele>432.73</ele>
        <time>2021-08-11T19:44:45Z</time>
      </trkpt>
      <trkpt lat="47.36057" lon="4.01622">
        <ele>432.73</ele>
        <time>2021-08-11T19:44:46Z</time>
      </trkpt>
      <trkpt lat="47.36058" lon="4.01621">
        <ele>432.73</ele>
        <time>2021-08-11T19:44:47Z</time>
      </trkpt>
      <trkpt lat="47.3606" lon="4.0162">
        <ele>433.21</ele>
        <time>2021-08-11T19:44:48Z</time>
      </trkpt>
      <trkpt lat="47.36062" lon="4.01619">
        <ele>433.21</ele>
        <time>2021-08-11T19:44:49Z</time>
      </trkpt>
      <trkpt lat="47.36078" lon="4.01609">
        <ele>433.69</ele>
        <time>2021-08-11T19:44:57Z</time>
      </trkpt>
      <trkpt lat="47.36093" lon="4.01602">
        <ele>434.17</ele>
        <time>2021-08-11T19:45:05Z</time>
      </trkpt>
      <trkpt lat="47.36107" lon="4.01601">
        <ele>435.13</ele>
        <time>2021-08-11T19:45:11Z</time>
      </trkpt>
      <trkpt lat="47.36115" lon="4.01604">
        <ele>436.58</ele>
        <time>2021-08-11T19:45:16Z</time>
      </trkpt>
      <trkpt lat="47.36118" lon="4.01606">
        <ele>436.58</ele>
        <time>2021-08-11T19:45:18Z</time>
      </trkpt>
      <trkpt lat="47.36119" lon="4.01606">
        <ele>437.06</ele>
        <time>2021-08-11T19:45:19Z</time>
      </trkpt>
      <trkpt lat="47.36127" lon="4.01612">
        <ele>438.02</ele>
        <time>2021-08-11T19:45:27Z</time>
      </trkpt>
      <trkpt lat="47.36132" lon="4.01615">
        <ele>438.98</ele>
        <time>2021-08-11T19:45:34Z</time>
      </trkpt>
      <trkpt lat="47.36138" lon="4.01617">
        <ele>440.42</ele>
        <time>2021-08-11T19:45:43Z</time>
      </trkpt>
      <trkpt lat="47.36147" lon="4.01623">
        <ele>441.86</ele>
        <time>2021-08-11T19:45:51Z</time>
      </trkpt>
      <trkpt lat="47.36157" lon="4.01631">
        <ele>442.34</ele>
        <time>2021-08-11T19:46:00Z</time>
      </trkpt>
      <trkpt lat="47.36168" lon="4.01639">
        <ele>443.79</ele>
        <time>2021-08-11T19:46:10Z</time>
      </trkpt>
      <trkpt lat="47.36169" lon="4.0164">
        <ele>443.79</ele>
        <time>2021-08-11T19:46:11Z</time>
      </trkpt>
      <trkpt lat="47.36178" lon="4.01646">
        <ele>444.75</ele>
        <time>2021-08-11T19:46:19Z</time>
      </trkpt>
      <trkpt lat="47.36191" lon="4.01653">
        <ele>446.19</ele>
        <time>2021-08-11T19:46:30Z</time>
      </trkpt>
      <trkpt lat="47.36196" lon="4.01654">
        <ele>446.19</ele>
        <time>2021-08-11T19:46:36Z</time>
      </trkpt>
      <trkpt lat="47.36209" lon="4.01662">
        <ele>446.19</ele>
        <time>2021-08-11T19:46:44Z</time>
      </trkpt>
      <trkpt lat="47.36219" lon="4.01662">
        <ele>447.15</ele>
        <time>2021-08-11T19:46:50Z</time>
      </trkpt>
      <trkpt lat="47.36221" lon="4.01662">
        <ele>447.15</ele>
        <time>2021-08-11T19:46:51Z</time>
      </trkpt>
      <trkpt lat="47.36223" lon="4.01662">
        <ele>447.15</ele>
        <time>2021-08-11T19:46:52Z</time>
      </trkpt>
      <trkpt lat="47.36224" lon="4.01662">
        <ele>447.15</ele>
        <time>2021-08-11T19:46:53Z</time>
      </trkpt>
      <trkpt lat="47.36226" lon="4.01662">
        <ele>447.15</ele>
        <time>2021-08-11T19:46:54Z</time>
      </trkpt>
      <trkpt lat="47.36228" lon="4.01662">
        <ele>447.63</ele>
        <time>2021-08-11T19:46:55Z</time>
      </trkpt>
      <trkpt lat="47.36229" lon="4.01662">
        <ele>447.63</ele>
        <time>2021-08-11T19:46:56Z</time>
      </trkpt>
      <trkpt lat="47.36231" lon="4.01661">
        <ele>447.63</ele>
        <time>2021-08-11T19:46:57Z</time>
      </trkpt>
      <trkpt lat="47.36233" lon="4.01661">
        <ele>447.63</ele>
        <time>2021-08-11T19:46:58Z</time>
      </trkpt>
      <trkpt lat="47.36235" lon="4.0166">
        <ele>447.63</ele>
        <time>2021-08-11T19:46:59Z</time>
      </trkpt>
      <trkpt lat="47.36247" lon="4.01656">
        <ele>448.59</ele>
        <time>2021-08-11T19:47:06Z</time>
      </trkpt>
      <trkpt lat="47.36248" lon="4.01655">
        <ele>448.59</ele>
        <time>2021-08-11T19:47:07Z</time>
      </trkpt>
      <trkpt lat="47.3625" lon="4.01653">
        <ele>448.59</ele>
        <time>2021-08-11T19:47:08Z</time>
      </trkpt>
      <trkpt lat="47.36251" lon="4.01652">
        <ele>449.07</ele>
        <time>2021-08-11T19:47:09Z</time>
      </trkpt>
      <trkpt lat="47.36252" lon="4.0165">
        <ele>449.07</ele>
        <time>2021-08-11T19:47:10Z</time>
      </trkpt>
      <trkpt lat="47.36254" lon="4.01648">
        <ele>449.07</ele>
        <time>2021-08-11T19:47:11Z</time>
      </trkpt>
      <trkpt lat="47.36268" lon="4.01633">
        <ele>449.55</ele>
        <time>2021-08-11T19:47:19Z</time>
      </trkpt>
      <trkpt lat="47.36285" lon="4.01624">
        <ele>449.55</ele>
        <time>2021-08-11T19:47:26Z</time>
      </trkpt>
      <trkpt lat="47.36291" lon="4.01623">
        <ele>448.11</ele>
        <time>2021-08-11T19:47:28Z</time>
      </trkpt>
      <trkpt lat="47.36313" lon="4.01623">
        <ele>445.71</ele>
        <time>2021-08-11T19:47:34Z</time>
      </trkpt>
      <trkpt lat="47.36324" lon="4.01625">
        <ele>443.31</ele>
        <time>2021-08-11T19:47:36Z</time>
      </trkpt>
      <trkpt lat="47.36352" lon="4.01636">
        <ele>440.42</ele>
        <time>2021-08-11T19:47:42Z</time>
      </trkpt>
      <trkpt lat="47.3637" lon="4.0164">
        <ele>438.5</ele>
        <time>2021-08-11T19:47:46Z</time>
      </trkpt>
      <trkpt lat="47.36383" lon="4.01646">
        <ele>435.61</ele>
        <time>2021-08-11T19:47:51Z</time>
      </trkpt>
      <trkpt lat="47.36396" lon="4.01643">
        <ele>432.25</ele>
        <time>2021-08-11T19:47:54Z</time>
      </trkpt>
      <trkpt lat="47.36407" lon="4.01642">
        <ele>430.33</ele>
        <time>2021-08-11T19:47:57Z</time>
      </trkpt>
      <trkpt lat="47.36418" lon="4.01646">
        <ele>427.44</ele>
        <time>2021-08-11T19:48:01Z</time>
      </trkpt>
      <trkpt lat="47.36438" lon="4.01656">
        <ele>425.04</ele>
        <time>2021-08-11T19:48:06Z</time>
      </trkpt>
      <trkpt lat="47.36443" lon="4.0166">
        <ele>424.08</ele>
        <time>2021-08-11T19:48:07Z</time>
      </trkpt>
      <trkpt lat="47.36448" lon="4.01662">
        <ele>423.6</ele>
        <time>2021-08-11T19:48:08Z</time>
      </trkpt>
      <trkpt lat="47.3646" lon="4.01668">
        <ele>422.64</ele>
        <time>2021-08-11T19:48:10Z</time>
      </trkpt>
      <trkpt lat="47.36466" lon="4.01672">
        <ele>422.16</ele>
        <time>2021-08-11T19:48:11Z</time>
      </trkpt>
      <trkpt lat="47.36483" lon="4.01683">
        <ele>419.27</ele>
        <time>2021-08-11T19:48:14Z</time>
      </trkpt>
      <trkpt lat="47.3649" lon="4.01685">
        <ele>419.27</ele>
        <time>2021-08-11T19:48:15Z</time>
      </trkpt>
      <trkpt lat="47.36495" lon="4.01688">
        <ele>418.31</ele>
        <time>2021-08-11T19:48:16Z</time>
      </trkpt>
      <trkpt lat="47.36501" lon="4.01692">
        <ele>418.31</ele>
        <time>2021-08-11T19:48:17Z</time>
      </trkpt>
      <trkpt lat="47.36506" lon="4.01696">
        <ele>417.35</ele>
        <time>2021-08-11T19:48:18Z</time>
      </trkpt>
      <trkpt lat="47.36517" lon="4.01702">
        <ele>416.87</ele>
        <time>2021-08-11T19:48:20Z</time>
      </trkpt>
      <trkpt lat="47.36522" lon="4.01706">
        <ele>416.39</ele>
        <time>2021-08-11T19:48:21Z</time>
      </trkpt>
      <trkpt lat="47.36527" lon="4.0171">
        <ele>416.39</ele>
        <time>2021-08-11T19:48:22Z</time>
      </trkpt>
      <trkpt lat="47.36563" lon="4.01747">
        <ele>414.95</ele>
        <time>2021-08-11T19:48:28Z</time>
      </trkpt>
      <trkpt lat="47.36582" lon="4.01772">
        <ele>414.47</ele>
        <time>2021-08-11T19:48:33Z</time>
      </trkpt>
      <trkpt lat="47.36586" lon="4.01778">
        <ele>413.98</ele>
        <time>2021-08-11T19:48:34Z</time>
      </trkpt>
      <trkpt lat="47.36589" lon="4.01783">
        <ele>413.98</ele>
        <time>2021-08-11T19:48:35Z</time>
      </trkpt>
      <trkpt lat="47.36595" lon="4.01798">
        <ele>413.5</ele>
        <time>2021-08-11T19:48:37Z</time>
      </trkpt>
      <trkpt lat="47.36597" lon="4.01805">
        <ele>413.5</ele>
        <time>2021-08-11T19:48:38Z</time>
      </trkpt>
      <trkpt lat="47.36599" lon="4.01812">
        <ele>413.5</ele>
        <time>2021-08-11T19:48:39Z</time>
      </trkpt>
      <trkpt lat="47.36607" lon="4.01844">
        <ele>409.66</ele>
        <time>2021-08-11T19:48:44Z</time>
      </trkpt>
      <trkpt lat="47.36616" lon="4.0187">
        <ele>407.74</ele>
        <time>2021-08-11T19:48:47Z</time>
      </trkpt>
      <trkpt lat="47.36626" lon="4.01932">
        <ele>406.29</ele>
        <time>2021-08-11T19:48:54Z</time>
      </trkpt>
      <trkpt lat="47.36638" lon="4.02002">
        <ele>405.81</ele>
        <time>2021-08-11T19:49:03Z</time>
      </trkpt>
      <trkpt lat="47.3664" lon="4.02011">
        <ele>406.77</ele>
        <time>2021-08-11T19:49:05Z</time>
      </trkpt>
      <trkpt lat="47.36641" lon="4.02015">
        <ele>406.77</ele>
        <time>2021-08-11T19:49:06Z</time>
      </trkpt>
      <trkpt lat="47.36642" lon="4.02019">
        <ele>406.77</ele>
        <time>2021-08-11T19:49:07Z</time>
      </trkpt>
      <trkpt lat="47.3665" lon="4.02045">
        <ele>407.74</ele>
        <time>2021-08-11T19:49:14Z</time>
      </trkpt>
      <trkpt lat="47.36663" lon="4.02083">
        <ele>407.74</ele>
        <time>2021-08-11T19:49:22Z</time>
      </trkpt>
      <trkpt lat="47.36665" lon="4.02089">
        <ele>407.74</ele>
        <time>2021-08-11T19:49:23Z</time>
      </trkpt>
      <trkpt lat="47.36666" lon="4.02095">
        <ele>406.77</ele>
        <time>2021-08-11T19:49:24Z</time>
      </trkpt>
      <trkpt lat="47.36669" lon="4.0212">
        <ele>404.37</ele>
        <time>2021-08-11T19:49:27Z</time>
      </trkpt>
      <trkpt lat="47.36671" lon="4.02127">
        <ele>404.37</ele>
        <time>2021-08-11T19:49:28Z</time>
      </trkpt>
      <trkpt lat="47.36682" lon="4.02148">
        <ele>401.97</ele>
        <time>2021-08-11T19:49:33Z</time>
      </trkpt>
      <trkpt lat="47.36684" lon="4.02152">
        <ele>401.97</ele>
        <time>2021-08-11T19:49:34Z</time>
      </trkpt>
      <trkpt lat="47.36685" lon="4.02158">
        <ele>401.01</ele>
        <time>2021-08-11T19:49:35Z</time>
      </trkpt>
      <trkpt lat="47.36684" lon="4.02164">
        <ele>401.01</ele>
        <time>2021-08-11T19:49:36Z</time>
      </trkpt>
      <trkpt lat="47.36683" lon="4.0217">
        <ele>399.57</ele>
        <time>2021-08-11T19:49:37Z</time>
      </trkpt>
      <trkpt lat="47.36682" lon="4.02177">
        <ele>398.6</ele>
        <time>2021-08-11T19:49:38Z</time>
      </trkpt>
      <trkpt lat="47.36681" lon="4.02183">
        <ele>398.6</ele>
        <time>2021-08-11T19:49:39Z</time>
      </trkpt>
      <trkpt lat="47.3668" lon="4.02187">
        <ele>398.6</ele>
        <time>2021-08-11T19:49:40Z</time>
      </trkpt>
      <trkpt lat="47.36679" lon="4.02189">
        <ele>398.6</ele>
        <time>2021-08-11T19:49:41Z</time>
      </trkpt>
      <trkpt lat="47.36677" lon="4.02195">
        <ele>398.12</ele>
        <time>2021-08-11T19:49:46Z</time>
      </trkpt>
      <trkpt lat="47.36676" lon="4.02197">
        <ele>398.12</ele>
        <time>2021-08-11T19:49:47Z</time>
      </trkpt>
      <trkpt lat="47.36674" lon="4.02198">
        <ele>398.12</ele>
        <time>2021-08-11T19:49:48Z</time>
      </trkpt>
      <trkpt lat="47.36673" lon="4.02199">
        <ele>398.12</ele>
        <time>2021-08-11T19:49:49Z</time>
      </trkpt>
      <trkpt lat="47.3667" lon="4.02204">
        <ele>399.57</ele>
        <time>2021-08-11T19:49:52Z</time>
      </trkpt>
      <trkpt lat="47.36669" lon="4.02206">
        <ele>400.05</ele>
        <time>2021-08-11T19:49:53Z</time>
      </trkpt>
      <trkpt lat="47.36668" lon="4.02209">
        <ele>400.05</ele>
        <time>2021-08-11T19:49:54Z</time>
      </trkpt>
      <trkpt lat="47.36667" lon="4.02211">
        <ele>400.05</ele>
        <time>2021-08-11T19:49:55Z</time>
      </trkpt>
      <trkpt lat="47.36667" lon="4.02213">
        <ele>400.05</ele>
        <time>2021-08-11T19:49:56Z</time>
      </trkpt>
      <trkpt lat="47.36666" lon="4.02215">
        <ele>400.05</ele>
        <time>2021-08-11T19:49:57Z</time>
      </trkpt>
      <trkpt lat="47.36665" lon="4.02218">
        <ele>400.53</ele>
        <time>2021-08-11T19:49:58Z</time>
      </trkpt>
      <trkpt lat="47.36664" lon="4.02221">
        <ele>400.53</ele>
        <time>2021-08-11T19:49:59Z</time>
      </trkpt>
      <trkpt lat="47.36659" lon="4.02231">
        <ele>400.53</ele>
        <time>2021-08-11T19:50:03Z</time>
      </trkpt>
      <trkpt lat="47.36658" lon="4.02234">
        <ele>400.53</ele>
        <time>2021-08-11T19:50:04Z</time>
      </trkpt>
      <trkpt lat="47.36657" lon="4.02237">
        <ele>400.53</ele>
        <time>2021-08-11T19:50:05Z</time>
      </trkpt>
      <trkpt lat="47.36646" lon="4.02261">
        <ele>401.01</ele>
        <time>2021-08-11T19:50:14Z</time>
      </trkpt>
      <trkpt lat="47.36635" lon="4.02285">
        <ele>401.97</ele>
        <time>2021-08-11T19:50:22Z</time>
      </trkpt>
      <trkpt lat="47.36625" lon="4.02312">
        <ele>401.97</ele>
        <time>2021-08-11T19:50:32Z</time>
      </trkpt>
      <trkpt lat="47.36618" lon="4.02342">
        <ele>403.89</ele>
        <time>2021-08-11T19:50:42Z</time>
      </trkpt>
      <trkpt lat="47.36618" lon="4.02353">
        <ele>404.37</ele>
        <time>2021-08-11T19:50:46Z</time>
      </trkpt>
      <trkpt lat="47.36617" lon="4.02356">
        <ele>404.85</ele>
        <time>2021-08-11T19:50:47Z</time>
      </trkpt>
      <trkpt lat="47.36617" lon="4.02358">
        <ele>404.85</ele>
        <time>2021-08-11T19:50:48Z</time>
      </trkpt>
      <trkpt lat="47.36618" lon="4.02361">
        <ele>404.85</ele>
        <time>2021-08-11T19:50:49Z</time>
      </trkpt>
      <trkpt lat="47.36618" lon="4.02364">
        <ele>404.85</ele>
        <time>2021-08-11T19:50:50Z</time>
      </trkpt>
      <trkpt lat="47.36621" lon="4.02384">
        <ele>406.29</ele>
        <time>2021-08-11T19:50:58Z</time>
      </trkpt>
      <trkpt lat="47.36623" lon="4.02406">
        <ele>406.29</ele>
        <time>2021-08-11T19:51:05Z</time>
      </trkpt>
      <trkpt lat="47.36621" lon="4.0243">
        <ele>404.85</ele>
        <time>2021-08-11T19:51:10Z</time>
      </trkpt>
      <trkpt lat="47.36621" lon="4.02461">
        <ele>403.41</ele>
        <time>2021-08-11T19:51:16Z</time>
      </trkpt>
      <trkpt lat="47.36614" lon="4.0249">
        <ele>400.05</ele>
        <time>2021-08-11T19:51:22Z</time>
      </trkpt>
      <trkpt lat="47.36606" lon="4.02503">
        <ele>399.08</ele>
        <time>2021-08-11T19:51:24Z</time>
      </trkpt>
      <trkpt lat="47.36602" lon="4.02509">
        <ele>398.6</ele>
        <time>2021-08-11T19:51:25Z</time>
      </trkpt>
      <trkpt lat="47.36595" lon="4.02518">
        <ele>397.16</ele>
        <time>2021-08-11T19:51:27Z</time>
      </trkpt>
      <trkpt lat="47.36591" lon="4.02522">
        <ele>397.16</ele>
        <time>2021-08-11T19:51:28Z</time>
      </trkpt>
      <trkpt lat="47.36587" lon="4.02527">
        <ele>395.72</ele>
        <time>2021-08-11T19:51:29Z</time>
      </trkpt>
      <trkpt lat="47.36577" lon="4.02537">
        <ele>393.8</ele>
        <time>2021-08-11T19:51:32Z</time>
      </trkpt>
      <trkpt lat="47.36563" lon="4.02554">
        <ele>390.43</ele>
        <time>2021-08-11T19:51:35Z</time>
      </trkpt>
      <trkpt lat="47.36549" lon="4.02566">
        <ele>388.99</ele>
        <time>2021-08-11T19:51:38Z</time>
      </trkpt>
      <trkpt lat="47.36543" lon="4.02569">
        <ele>388.51</ele>
        <time>2021-08-11T19:51:39Z</time>
      </trkpt>
      <trkpt lat="47.36537" lon="4.02571">
        <ele>388.51</ele>
        <time>2021-08-11T19:51:40Z</time>
      </trkpt>
      <trkpt lat="47.36531" lon="4.02574">
        <ele>387.55</ele>
        <time>2021-08-11T19:51:41Z</time>
      </trkpt>
      <trkpt lat="47.36525" lon="4.02577">
        <ele>387.55</ele>
        <time>2021-08-11T19:51:42Z</time>
      </trkpt>
      <trkpt lat="47.36519" lon="4.02582">
        <ele>386.59</ele>
        <time>2021-08-11T19:51:43Z</time>
      </trkpt>
      <trkpt lat="47.36512" lon="4.02587">
        <ele>386.11</ele>
        <time>2021-08-11T19:51:44Z</time>
      </trkpt>
      <trkpt lat="47.36505" lon="4.02592">
        <ele>385.63</ele>
        <time>2021-08-11T19:51:45Z</time>
      </trkpt>
      <trkpt lat="47.36493" lon="4.02603">
        <ele>384.66</ele>
        <time>2021-08-11T19:51:47Z</time>
      </trkpt>
      <trkpt lat="47.36488" lon="4.02608">
        <ele>384.66</ele>
        <time>2021-08-11T19:51:48Z</time>
      </trkpt>
      <trkpt lat="47.36483" lon="4.02613">
        <ele>384.66</ele>
        <time>2021-08-11T19:51:49Z</time>
      </trkpt>
      <trkpt lat="47.36465" lon="4.0264">
        <ele>383.7</ele>
        <time>2021-08-11T19:51:54Z</time>
      </trkpt>
      <trkpt lat="47.36462" lon="4.02645">
        <ele>383.7</ele>
        <time>2021-08-11T19:51:55Z</time>
      </trkpt>
      <trkpt lat="47.36452" lon="4.02659">
        <ele>383.7</ele>
        <time>2021-08-11T19:51:58Z</time>
      </trkpt>
      <trkpt lat="47.36448" lon="4.02663">
        <ele>383.7</ele>
        <time>2021-08-11T19:51:59Z</time>
      </trkpt>
      <trkpt lat="47.36444" lon="4.02666">
        <ele>383.7</ele>
        <time>2021-08-11T19:52:00Z</time>
      </trkpt>
      <trkpt lat="47.3641" lon="4.02695">
        <ele>381.78</ele>
        <time>2021-08-11T19:52:07Z</time>
      </trkpt>
      <trkpt lat="47.36385" lon="4.0274">
        <ele>380.82</ele>
        <time>2021-08-11T19:52:13Z</time>
      </trkpt>
      <trkpt lat="47.36382" lon="4.02748">
        <ele>380.82</ele>
        <time>2021-08-11T19:52:14Z</time>
      </trkpt>
      <trkpt lat="47.3638" lon="4.02758">
        <ele>380.82</ele>
        <time>2021-08-11T19:52:15Z</time>
      </trkpt>
      <trkpt lat="47.36377" lon="4.02767">
        <ele>380.82</ele>
        <time>2021-08-11T19:52:16Z</time>
      </trkpt>
      <trkpt lat="47.36376" lon="4.02776">
        <ele>380.82</ele>
        <time>2021-08-11T19:52:17Z</time>
      </trkpt>
      <trkpt lat="47.36375" lon="4.02785">
        <ele>380.82</ele>
        <time>2021-08-11T19:52:18Z</time>
      </trkpt>
      <trkpt lat="47.36375" lon="4.02794">
        <ele>380.82</ele>
        <time>2021-08-11T19:52:19Z</time>
      </trkpt>
      <trkpt lat="47.36375" lon="4.02819">
        <ele>380.82</ele>
        <time>2021-08-11T19:52:22Z</time>
      </trkpt>
      <trkpt lat="47.36376" lon="4.02827">
        <ele>380.82</ele>
        <time>2021-08-11T19:52:23Z</time>
      </trkpt>
      <trkpt lat="47.36383" lon="4.02868">
        <ele>379.86</ele>
        <time>2021-08-11T19:52:28Z</time>
      </trkpt>
      <trkpt lat="47.36384" lon="4.02877">
        <ele>379.86</ele>
        <time>2021-08-11T19:52:29Z</time>
      </trkpt>
      <trkpt lat="47.36384" lon="4.02885">
        <ele>379.86</ele>
        <time>2021-08-11T19:52:30Z</time>
      </trkpt>
      <trkpt lat="47.36384" lon="4.0291">
        <ele>379.38</ele>
        <time>2021-08-11T19:52:33Z</time>
      </trkpt>
      <trkpt lat="47.36383" lon="4.02917">
        <ele>379.38</ele>
        <time>2021-08-11T19:52:34Z</time>
      </trkpt>
      <trkpt lat="47.36382" lon="4.02924">
        <ele>379.38</ele>
        <time>2021-08-11T19:52:35Z</time>
      </trkpt>
      <trkpt lat="47.36371" lon="4.02974">
        <ele>378.9</ele>
        <time>2021-08-11T19:52:43Z</time>
      </trkpt>
      <trkpt lat="47.36369" lon="4.02996">
        <ele>378.9</ele>
        <time>2021-08-11T19:52:49Z</time>
      </trkpt>
      <trkpt lat="47.36371" lon="4.03015">
        <ele>378.42</ele>
        <time>2021-08-11T19:52:54Z</time>
      </trkpt>
      <trkpt lat="47.3637" lon="4.03018">
        <ele>378.42</ele>
        <time>2021-08-11T19:52:55Z</time>
      </trkpt>
      <trkpt lat="47.36368" lon="4.0302">
        <ele>378.42</ele>
        <time>2021-08-11T19:52:56Z</time>
      </trkpt>
      <trkpt lat="47.36348" lon="4.0303">
        <ele>377.94</ele>
        <time>2021-08-11T19:53:04Z</time>
      </trkpt>
      <trkpt lat="47.36322" lon="4.03036">
        <ele>377.94</ele>
        <time>2021-08-11T19:53:12Z</time>
      </trkpt>
      <trkpt lat="47.36296" lon="4.03043">
        <ele>377.45</ele>
        <time>2021-08-11T19:53:20Z</time>
      </trkpt>
      <trkpt lat="47.36263" lon="4.03048">
        <ele>377.45</ele>
        <time>2021-08-11T19:53:30Z</time>
      </trkpt>
      <trkpt lat="47.36238" lon="4.03047">
        <ele>377.45</ele>
        <time>2021-08-11T19:53:38Z</time>
      </trkpt>
      <trkpt lat="47.36223" lon="4.03045">
        <ele>378.9</ele>
        <time>2021-08-11T19:53:43Z</time>
      </trkpt>
      <trkpt lat="47.36193" lon="4.03035">
        <ele>379.38</ele>
        <time>2021-08-11T19:53:53Z</time>
      </trkpt>
      <trkpt lat="47.36164" lon="4.03022">
        <ele>379.38</ele>
        <time>2021-08-11T19:54:02Z</time>
      </trkpt>
      <trkpt lat="47.36138" lon="4.03014">
        <ele>379.38</ele>
        <time>2021-08-11T19:54:10Z</time>
      </trkpt>
      <trkpt lat="47.36116" lon="4.03024">
        <ele>379.38</ele>
        <time>2021-08-11T19:54:17Z</time>
      </trkpt>
      <trkpt lat="47.36085" lon="4.03053">
        <ele>379.38</ele>
        <time>2021-08-11T19:54:27Z</time>
      </trkpt>
      <trkpt lat="47.36067" lon="4.03071">
        <ele>379.38</ele>
        <time>2021-08-11T19:54:34Z</time>
      </trkpt>
      <trkpt lat="47.36051" lon="4.03089">
        <ele>380.34</ele>
        <time>2021-08-11T19:54:42Z</time>
      </trkpt>
      <trkpt lat="47.36042" lon="4.03114">
        <ele>380.82</ele>
        <time>2021-08-11T19:54:50Z</time>
      </trkpt>
      <trkpt lat="47.36036" lon="4.03142">
        <ele>380.82</ele>
        <time>2021-08-11T19:54:56Z</time>
      </trkpt>
      <trkpt lat="47.36024" lon="4.03169">
        <ele>380.82</ele>
        <time>2021-08-11T19:55:03Z</time>
      </trkpt>
      <trkpt lat="47.36011" lon="4.03202">
        <ele>381.3</ele>
        <time>2021-08-11T19:55:13Z</time>
      </trkpt>
      <trkpt lat="47.35995" lon="4.03208">
        <ele>381.78</ele>
        <time>2021-08-11T19:55:20Z</time>
      </trkpt>
      <trkpt lat="47.35973" lon="4.03206">
        <ele>382.26</ele>
        <time>2021-08-11T19:55:29Z</time>
      </trkpt>
      <trkpt lat="47.35952" lon="4.03208">
        <ele>382.74</ele>
        <time>2021-08-11T19:55:38Z</time>
      </trkpt>
      <trkpt lat="47.35935" lon="4.03211">
        <ele>383.22</ele>
        <time>2021-08-11T19:55:46Z</time>
      </trkpt>
      <trkpt lat="47.35915" lon="4.0322">
        <ele>383.7</ele>
        <time>2021-08-11T19:55:55Z</time>
      </trkpt>
      <trkpt lat="47.35891" lon="4.03235">
        <ele>384.18</ele>
        <time>2021-08-11T19:56:05Z</time>
      </trkpt>
      <trkpt lat="47.35869" lon="4.03251">
        <ele>384.18</ele>
        <time>2021-08-11T19:56:13Z</time>
      </trkpt>
      <trkpt lat="47.3585" lon="4.03273">
        <ele>384.18</ele>
        <time>2021-08-11T19:56:21Z</time>
      </trkpt>
      <trkpt lat="47.35833" lon="4.03298">
        <ele>384.18</ele>
        <time>2021-08-11T19:56:29Z</time>
      </trkpt>
      <trkpt lat="47.35827" lon="4.03323">
        <ele>384.18</ele>
        <time>2021-08-11T19:56:35Z</time>
      </trkpt>
      <trkpt lat="47.35829" lon="4.03349">
        <ele>384.18</ele>
        <time>2021-08-11T19:56:41Z</time>
      </trkpt>
      <trkpt lat="47.35823" lon="4.03382">
        <ele>384.66</ele>
        <time>2021-08-11T19:56:50Z</time>
      </trkpt>
      <trkpt lat="47.35814" lon="4.03414">
        <ele>385.15</ele>
        <time>2021-08-11T19:56:59Z</time>
      </trkpt>
      <trkpt lat="47.358" lon="4.03445">
        <ele>385.15</ele>
        <time>2021-08-11T19:57:08Z</time>
      </trkpt>
      <trkpt lat="47.35776" lon="4.03472">
        <ele>385.63</ele>
        <time>2021-08-11T19:57:19Z</time>
      </trkpt>
      <trkpt lat="47.35757" lon="4.03486">
        <ele>386.59</ele>
        <time>2021-08-11T19:57:27Z</time>
      </trkpt>
      <trkpt lat="47.35734" lon="4.03494">
        <ele>386.59</ele>
        <time>2021-08-11T19:57:37Z</time>
      </trkpt>
      <trkpt lat="47.35712" lon="4.03508">
        <ele>387.55</ele>
        <time>2021-08-11T19:57:47Z</time>
      </trkpt>
      <trkpt lat="47.35699" lon="4.03533">
        <ele>388.03</ele>
        <time>2021-08-11T19:57:55Z</time>
      </trkpt>
      <trkpt lat="47.35692" lon="4.03566">
        <ele>388.51</ele>
        <time>2021-08-11T19:58:04Z</time>
      </trkpt>
      <trkpt lat="47.35688" lon="4.03589">
        <ele>389.47</ele>
        <time>2021-08-11T19:58:11Z</time>
      </trkpt>
      <trkpt lat="47.35687" lon="4.03597">
        <ele>389.47</ele>
        <time>2021-08-11T19:58:14Z</time>
      </trkpt>
      <trkpt lat="47.35686" lon="4.03601">
        <ele>389.47</ele>
        <time>2021-08-11T19:58:16Z</time>
      </trkpt>
      <trkpt lat="47.35688" lon="4.03602">
        <ele>389.47</ele>
        <time>2021-08-11T19:58:18Z</time>
      </trkpt>
      <trkpt lat="47.35688" lon="4.03599">
        <ele>389.47</ele>
        <time>2021-08-11T19:58:20Z</time>
      </trkpt>
      <trkpt lat="47.35689" lon="4.03594">
        <ele>389.47</ele>
        <time>2021-08-11T19:58:22Z</time>
      </trkpt>
      <trkpt lat="47.35693" lon="4.03565">
        <ele>389.47</ele>
        <time>2021-08-11T19:58:30Z</time>
      </trkpt>
      <trkpt lat="47.35701" lon="4.03529">
        <ele>388.03</ele>
        <time>2021-08-11T19:58:39Z</time>
      </trkpt>
      <trkpt lat="47.35706" lon="4.03533">
        <ele>388.03</ele>
        <time>2021-08-11T19:58:42Z</time>
      </trkpt>
      <trkpt lat="47.35706" lon="4.03538">
        <ele>387.55</ele>
        <time>2021-08-11T19:58:44Z</time>
      </trkpt>
      <trkpt lat="47.35706" lon="4.03543">
        <ele>387.55</ele>
        <time>2021-08-11T19:58:45Z</time>
      </trkpt>
      <trkpt lat="47.35706" lon="4.03547">
        <ele>387.55</ele>
        <time>2021-08-11T19:58:46Z</time>
      </trkpt>
      <trkpt lat="47.35705" lon="4.03553">
        <ele>387.55</ele>
        <time>2021-08-11T19:58:47Z</time>
      </trkpt>
      <trkpt lat="47.35701" lon="4.03571">
        <ele>387.07</ele>
        <time>2021-08-11T19:58:52Z</time>
      </trkpt>
      <trkpt lat="47.35701" lon="4.03573">
        <ele>387.07</ele>
        <time>2021-08-11T19:58:53Z</time>
      </trkpt>
      <trkpt lat="47.35702" lon="4.03576">
        <ele>387.07</ele>
        <time>2021-08-11T19:58:54Z</time>
      </trkpt>
      <trkpt lat="47.35704" lon="4.03583">
        <ele>387.07</ele>
        <time>2021-08-11T19:58:57Z</time>
      </trkpt>
      <trkpt lat="47.35705" lon="4.03585">
        <ele>387.07</ele>
        <time>2021-08-11T19:58:58Z</time>
      </trkpt>
      <trkpt lat="47.35716" lon="4.03608">
        <ele>387.07</ele>
        <time>2021-08-11T19:59:06Z</time>
      </trkpt>
      <trkpt lat="47.35718" lon="4.03613">
        <ele>388.99</ele>
        <time>2021-08-11T19:59:08Z</time>
      </trkpt>
      <trkpt lat="47.3572" lon="4.03615">
        <ele>388.99</ele>
        <time>2021-08-11T19:59:09Z</time>
      </trkpt>
      <trkpt lat="47.3572" lon="4.03617">
        <ele>388.99</ele>
        <time>2021-08-11T19:59:10Z</time>
      </trkpt>
      <trkpt lat="47.35721" lon="4.0362">
        <ele>388.99</ele>
        <time>2021-08-11T19:59:11Z</time>
      </trkpt>
      <trkpt lat="47.35722" lon="4.03622">
        <ele>388.99</ele>
        <time>2021-08-11T19:59:12Z</time>
      </trkpt>
      <trkpt lat="47.35724" lon="4.03626">
        <ele>388.99</ele>
        <time>2021-08-11T19:59:13Z</time>
      </trkpt>
      <trkpt lat="47.35727" lon="4.0363">
        <ele>388.99</ele>
        <time>2021-08-11T19:59:14Z</time>
      </trkpt>
      <trkpt lat="47.3573" lon="4.03633">
        <ele>388.99</ele>
        <time>2021-08-11T19:59:15Z</time>
      </trkpt>
      <trkpt lat="47.35744" lon="4.03656">
        <ele>388.99</ele>
        <time>2021-08-11T19:59:22Z</time>
      </trkpt>
      <trkpt lat="47.35756" lon="4.03668">
        <ele>389.47</ele>
        <time>2021-08-11T19:59:28Z</time>
      </trkpt>
      <trkpt lat="47.35769" lon="4.03685">
        <ele>389.95</ele>
        <time>2021-08-11T19:59:36Z</time>
      </trkpt>
      <trkpt lat="47.35783" lon="4.03702">
        <ele>389.95</ele>
        <time>2021-08-11T19:59:43Z</time>
      </trkpt>
      <trkpt lat="47.358" lon="4.03715">
        <ele>390.91</ele>
        <time>2021-08-11T19:59:49Z</time>
      </trkpt>
      <trkpt lat="47.35802" lon="4.03718">
        <ele>390.91</ele>
        <time>2021-08-11T19:59:50Z</time>
      </trkpt>
      <trkpt lat="47.35804" lon="4.0372">
        <ele>390.91</ele>
        <time>2021-08-11T19:59:51Z</time>
      </trkpt>
      <trkpt lat="47.35806" lon="4.03723">
        <ele>390.91</ele>
        <time>2021-08-11T19:59:52Z</time>
      </trkpt>
      <trkpt lat="47.35808" lon="4.03726">
        <ele>390.91</ele>
        <time>2021-08-11T19:59:53Z</time>
      </trkpt>
      <trkpt lat="47.35821" lon="4.03734">
        <ele>390.91</ele>
        <time>2021-08-11T19:59:59Z</time>
      </trkpt>
      <trkpt lat="47.35838" lon="4.03737">
        <ele>391.39</ele>
        <time>2021-08-11T20:00:06Z</time>
      </trkpt>
      <trkpt lat="47.35839" lon="4.03738">
        <ele>391.39</ele>
        <time>2021-08-11T20:00:07Z</time>
      </trkpt>
      <trkpt lat="47.3584" lon="4.0374">
        <ele>391.39</ele>
        <time>2021-08-11T20:00:08Z</time>
      </trkpt>
      <trkpt lat="47.35841" lon="4.03741">
        <ele>391.39</ele>
        <time>2021-08-11T20:00:09Z</time>
      </trkpt>
      <trkpt lat="47.35842" lon="4.03743">
        <ele>391.39</ele>
        <time>2021-08-11T20:00:10Z</time>
      </trkpt>
      <trkpt lat="47.35843" lon="4.03745">
        <ele>391.39</ele>
        <time>2021-08-11T20:00:11Z</time>
      </trkpt>
      <trkpt lat="47.35844" lon="4.03746">
        <ele>391.39</ele>
        <time>2021-08-11T20:00:12Z</time>
      </trkpt>
      <trkpt lat="47.35845" lon="4.03748">
        <ele>391.39</ele>
        <time>2021-08-11T20:00:13Z</time>
      </trkpt>
      <trkpt lat="47.35851" lon="4.03754">
        <ele>391.39</ele>
        <time>2021-08-11T20:00:17Z</time>
      </trkpt>
      <trkpt lat="47.35852" lon="4.03755">
        <ele>391.39</ele>
        <time>2021-08-11T20:00:18Z</time>
      </trkpt>
      <trkpt lat="47.35854" lon="4.03757">
        <ele>391.39</ele>
        <time>2021-08-11T20:00:19Z</time>
      </trkpt>
      <trkpt lat="47.35857" lon="4.03758">
        <ele>391.87</ele>
        <time>2021-08-11T20:00:24Z</time>
      </trkpt>
      <trkpt lat="47.35861" lon="4.03763">
        <ele>392.36</ele>
        <time>2021-08-11T20:00:31Z</time>
      </trkpt>
      <trkpt lat="47.35863" lon="4.03764">
        <ele>392.36</ele>
        <time>2021-08-11T20:00:38Z</time>
      </trkpt>
      <trkpt lat="47.35871" lon="4.03766">
        <ele>392.36</ele>
        <time>2021-08-11T20:00:45Z</time>
      </trkpt>
      <trkpt lat="47.35872" lon="4.03768">
        <ele>392.36</ele>
        <time>2021-08-11T20:00:50Z</time>
      </trkpt>
      <trkpt lat="47.35877" lon="4.0377">
        <ele>392.36</ele>
        <time>2021-08-11T20:00:54Z</time>
      </trkpt>
      <trkpt lat="47.35878" lon="4.03772">
        <ele>392.36</ele>
        <time>2021-08-11T20:00:55Z</time>
      </trkpt>
      <trkpt lat="47.35879" lon="4.03773">
        <ele>392.36</ele>
        <time>2021-08-11T20:00:56Z</time>
      </trkpt>
      <trkpt lat="47.35879" lon="4.03775">
        <ele>392.36</ele>
        <time>2021-08-11T20:00:57Z</time>
      </trkpt>
      <trkpt lat="47.35881" lon="4.03777">
        <ele>392.36</ele>
        <time>2021-08-11T20:00:58Z</time>
      </trkpt>
      <trkpt lat="47.35883" lon="4.03779">
        <ele>392.36</ele>
        <time>2021-08-11T20:00:59Z</time>
      </trkpt>
      <trkpt lat="47.35889" lon="4.03786">
        <ele>392.84</ele>
        <time>2021-08-11T20:01:03Z</time>
      </trkpt>
      <trkpt lat="47.3589" lon="4.03789">
        <ele>392.84</ele>
        <time>2021-08-11T20:01:04Z</time>
      </trkpt>
      <trkpt lat="47.35892" lon="4.03792">
        <ele>393.32</ele>
        <time>2021-08-11T20:01:06Z</time>
      </trkpt>
      <trkpt lat="47.35893" lon="4.03794">
        <ele>393.32</ele>
        <time>2021-08-11T20:01:07Z</time>
      </trkpt>
      <trkpt lat="47.35894" lon="4.03796">
        <ele>393.32</ele>
        <time>2021-08-11T20:01:08Z</time>
      </trkpt>
      <trkpt lat="47.35895" lon="4.03798">
        <ele>393.32</ele>
        <time>2021-08-11T20:01:09Z</time>
      </trkpt>
      <trkpt lat="47.35897" lon="4.038">
        <ele>393.32</ele>
        <time>2021-08-11T20:01:10Z</time>
      </trkpt>
      <trkpt lat="47.359" lon="4.03803">
        <ele>393.32</ele>
        <time>2021-08-11T20:01:12Z</time>
      </trkpt>
      <trkpt lat="47.35902" lon="4.03805">
        <ele>393.8</ele>
        <time>2021-08-11T20:01:13Z</time>
      </trkpt>
      <trkpt lat="47.35903" lon="4.03808">
        <ele>393.8</ele>
        <time>2021-08-11T20:01:14Z</time>
      </trkpt>
      <trkpt lat="47.35907" lon="4.03812">
        <ele>393.8</ele>
        <time>2021-08-11T20:01:17Z</time>
      </trkpt>
      <trkpt lat="47.35908" lon="4.03813">
        <ele>393.8</ele>
        <time>2021-08-11T20:01:18Z</time>
      </trkpt>
      <trkpt lat="47.35911" lon="4.03813">
        <ele>393.8</ele>
        <time>2021-08-11T20:01:20Z</time>
      </trkpt>
      <trkpt lat="47.35913" lon="4.03814">
        <ele>393.8</ele>
        <time>2021-08-11T20:01:21Z</time>
      </trkpt>
      <trkpt lat="47.35922" lon="4.03818">
        <ele>394.28</ele>
        <time>2021-08-11T20:01:28Z</time>
      </trkpt>
      <trkpt lat="47.35923" lon="4.0382">
        <ele>394.28</ele>
        <time>2021-08-11T20:01:29Z</time>
      </trkpt>
      <trkpt lat="47.35924" lon="4.03821">
        <ele>394.28</ele>
        <time>2021-08-11T20:01:30Z</time>
      </trkpt>
      <trkpt lat="47.35924" lon="4.03823">
        <ele>394.28</ele>
        <time>2021-08-11T20:01:31Z</time>
      </trkpt>
      <trkpt lat="47.35925" lon="4.03825">
        <ele>394.28</ele>
        <time>2021-08-11T20:01:32Z</time>
      </trkpt>
      <trkpt lat="47.35926" lon="4.03826">
        <ele>394.28</ele>
        <time>2021-08-11T20:01:33Z</time>
      </trkpt>
      <trkpt lat="47.35927" lon="4.03827">
        <ele>394.28</ele>
        <time>2021-08-11T20:01:34Z</time>
      </trkpt>
      <trkpt lat="47.35928" lon="4.03829">
        <ele>394.28</ele>
        <time>2021-08-11T20:01:35Z</time>
      </trkpt>
      <trkpt lat="47.35928" lon="4.0383">
        <ele>394.28</ele>
        <time>2021-08-11T20:01:36Z</time>
      </trkpt>
      <trkpt lat="47.35934" lon="4.03843">
        <ele>394.76</ele>
        <time>2021-08-11T20:01:41Z</time>
      </trkpt>
      <trkpt lat="47.35935" lon="4.03844">
        <ele>394.76</ele>
        <time>2021-08-11T20:01:42Z</time>
      </trkpt>
      <trkpt lat="47.35936" lon="4.03845">
        <ele>394.76</ele>
        <time>2021-08-11T20:01:43Z</time>
      </trkpt>
      <trkpt lat="47.35941" lon="4.0385">
        <ele>394.76</ele>
        <time>2021-08-11T20:01:47Z</time>
      </trkpt>
      <trkpt lat="47.35943" lon="4.03852">
        <ele>394.76</ele>
        <time>2021-08-11T20:01:48Z</time>
      </trkpt>
      <trkpt lat="47.35944" lon="4.03854">
        <ele>394.76</ele>
        <time>2021-08-11T20:01:49Z</time>
      </trkpt>
      <trkpt lat="47.35958" lon="4.03859">
        <ele>395.24</ele>
        <time>2021-08-11T20:01:55Z</time>
      </trkpt>
      <trkpt lat="47.35961" lon="4.03861">
        <ele>395.24</ele>
        <time>2021-08-11T20:01:56Z</time>
      </trkpt>
      <trkpt lat="47.35963" lon="4.03863">
        <ele>395.24</ele>
        <time>2021-08-11T20:01:57Z</time>
      </trkpt>
      <trkpt lat="47.35965" lon="4.03865">
        <ele>395.24</ele>
        <time>2021-08-11T20:01:58Z</time>
      </trkpt>
      <trkpt lat="47.35967" lon="4.03867">
        <ele>395.72</ele>
        <time>2021-08-11T20:01:59Z</time>
      </trkpt>
      <trkpt lat="47.35969" lon="4.03869">
        <ele>395.72</ele>
        <time>2021-08-11T20:02:00Z</time>
      </trkpt>
      <trkpt lat="47.35971" lon="4.03871">
        <ele>395.72</ele>
        <time>2021-08-11T20:02:01Z</time>
      </trkpt>
      <trkpt lat="47.35972" lon="4.03873">
        <ele>395.72</ele>
        <time>2021-08-11T20:02:02Z</time>
      </trkpt>
      <trkpt lat="47.35974" lon="4.03875">
        <ele>395.72</ele>
        <time>2021-08-11T20:02:03Z</time>
      </trkpt>
      <trkpt lat="47.35986" lon="4.03892">
        <ele>396.68</ele>
        <time>2021-08-11T20:02:10Z</time>
      </trkpt>
      <trkpt lat="47.35993" lon="4.03913">
        <ele>396.68</ele>
        <time>2021-08-11T20:02:16Z</time>
      </trkpt>
      <trkpt lat="47.36004" lon="4.03937">
        <ele>397.16</ele>
        <time>2021-08-11T20:02:24Z</time>
      </trkpt>
      <trkpt lat="47.36013" lon="4.03952">
        <ele>397.16</ele>
        <time>2021-08-11T20:02:30Z</time>
      </trkpt>
      <trkpt lat="47.36023" lon="4.03966">
        <ele>397.16</ele>
        <time>2021-08-11T20:02:36Z</time>
      </trkpt>
      <trkpt lat="47.36032" lon="4.03979">
        <ele>397.16</ele>
        <time>2021-08-11T20:02:43Z</time>
      </trkpt>
      <trkpt lat="47.36034" lon="4.03982">
        <ele>397.64</ele>
        <time>2021-08-11T20:02:49Z</time>
      </trkpt>
      <trkpt lat="47.36037" lon="4.03988">
        <ele>398.6</ele>
        <time>2021-08-11T20:02:56Z</time>
      </trkpt>
      <trkpt lat="47.36041" lon="4.03987">
        <ele>400.05</ele>
        <time>2021-08-11T20:03:04Z</time>
      </trkpt>
      <trkpt lat="47.36042" lon="4.0399">
        <ele>400.05</ele>
        <time>2021-08-11T20:03:10Z</time>
      </trkpt>
      <trkpt lat="47.36042" lon="4.03992">
        <ele>400.05</ele>
        <time>2021-08-11T20:03:12Z</time>
      </trkpt>
      <trkpt lat="47.36044" lon="4.03996">
        <ele>400.05</ele>
        <time>2021-08-11T20:03:15Z</time>
      </trkpt>
      <trkpt lat="47.36045" lon="4.03997">
        <ele>400.05</ele>
        <time>2021-08-11T20:03:16Z</time>
      </trkpt>
      <trkpt lat="47.36046" lon="4.03999">
        <ele>400.05</ele>
        <time>2021-08-11T20:03:17Z</time>
      </trkpt>
      <trkpt lat="47.36048" lon="4.0401">
        <ele>398.6</ele>
        <time>2021-08-11T20:03:21Z</time>
      </trkpt>
      <trkpt lat="47.36074" lon="4.04045">
        <ele>400.05</ele>
        <time>2021-08-11T20:03:35Z</time>
      </trkpt>
      <trkpt lat="47.36076" lon="4.04048">
        <ele>400.05</ele>
        <time>2021-08-11T20:03:36Z</time>
      </trkpt>
      <trkpt lat="47.36094" lon="4.04072">
        <ele>401.01</ele>
        <time>2021-08-11T20:03:44Z</time>
      </trkpt>
      <trkpt lat="47.36102" lon="4.04082">
        <ele>401.97</ele>
        <time>2021-08-11T20:03:49Z</time>
      </trkpt>
      <trkpt lat="47.36111" lon="4.04101">
        <ele>401.49</ele>
        <time>2021-08-11T20:03:56Z</time>
      </trkpt>
      <trkpt lat="47.3612" lon="4.04116">
        <ele>401.97</ele>
        <time>2021-08-11T20:04:02Z</time>
      </trkpt>
      <trkpt lat="47.3613" lon="4.04136">
        <ele>402.45</ele>
        <time>2021-08-11T20:04:09Z</time>
      </trkpt>
      <trkpt lat="47.36136" lon="4.04149">
        <ele>403.41</ele>
        <time>2021-08-11T20:04:15Z</time>
      </trkpt>
      <trkpt lat="47.36144" lon="4.04167">
        <ele>405.33</ele>
        <time>2021-08-11T20:04:23Z</time>
      </trkpt>
      <trkpt lat="47.36151" lon="4.04179">
        <ele>405.81</ele>
        <time>2021-08-11T20:04:30Z</time>
      </trkpt>
      <trkpt lat="47.36158" lon="4.04192">
        <ele>407.26</ele>
        <time>2021-08-11T20:04:37Z</time>
      </trkpt>
      <trkpt lat="47.36161" lon="4.04205">
        <ele>407.74</ele>
        <time>2021-08-11T20:04:43Z</time>
      </trkpt>
      <trkpt lat="47.36162" lon="4.04222">
        <ele>409.18</ele>
        <time>2021-08-11T20:04:50Z</time>
      </trkpt>
      <trkpt lat="47.36163" lon="4.04246">
        <ele>409.66</ele>
        <time>2021-08-11T20:04:57Z</time>
      </trkpt>
      <trkpt lat="47.36163" lon="4.04268">
        <ele>409.66</ele>
        <time>2021-08-11T20:05:03Z</time>
      </trkpt>
      <trkpt lat="47.36163" lon="4.04288">
        <ele>409.66</ele>
        <time>2021-08-11T20:05:09Z</time>
      </trkpt>
      <trkpt lat="47.36163" lon="4.04291">
        <ele>409.66</ele>
        <time>2021-08-11T20:05:10Z</time>
      </trkpt>
      <trkpt lat="47.36163" lon="4.04295">
        <ele>407.74</ele>
        <time>2021-08-11T20:05:11Z</time>
      </trkpt>
      <trkpt lat="47.36163" lon="4.04299">
        <ele>407.74</ele>
        <time>2021-08-11T20:05:12Z</time>
      </trkpt>
      <trkpt lat="47.36163" lon="4.04303">
        <ele>406.77</ele>
        <time>2021-08-11T20:05:13Z</time>
      </trkpt>
      <trkpt lat="47.36162" lon="4.04308">
        <ele>406.77</ele>
        <time>2021-08-11T20:05:14Z</time>
      </trkpt>
      <trkpt lat="47.36162" lon="4.04312">
        <ele>405.81</ele>
        <time>2021-08-11T20:05:15Z</time>
      </trkpt>
      <trkpt lat="47.36161" lon="4.04316">
        <ele>405.33</ele>
        <time>2021-08-11T20:05:16Z</time>
      </trkpt>
      <trkpt lat="47.3616" lon="4.04319">
        <ele>405.33</ele>
        <time>2021-08-11T20:05:17Z</time>
      </trkpt>
      <trkpt lat="47.3616" lon="4.0434">
        <ele>404.85</ele>
        <time>2021-08-11T20:05:21Z</time>
      </trkpt>
      <trkpt lat="47.36163" lon="4.04359">
        <ele>406.29</ele>
        <time>2021-08-11T20:05:25Z</time>
      </trkpt>
      <trkpt lat="47.36164" lon="4.04366">
        <ele>406.77</ele>
        <time>2021-08-11T20:05:27Z</time>
      </trkpt>
      <trkpt lat="47.36164" lon="4.04371">
        <ele>406.77</ele>
        <time>2021-08-11T20:05:28Z</time>
      </trkpt>
      <trkpt lat="47.36165" lon="4.04377">
        <ele>407.26</ele>
        <time>2021-08-11T20:05:29Z</time>
      </trkpt>
      <trkpt lat="47.36166" lon="4.04381">
        <ele>407.74</ele>
        <time>2021-08-11T20:05:30Z</time>
      </trkpt>
      <trkpt lat="47.36166" lon="4.04386">
        <ele>407.74</ele>
        <time>2021-08-11T20:05:31Z</time>
      </trkpt>
      <trkpt lat="47.36166" lon="4.04391">
        <ele>407.74</ele>
        <time>2021-08-11T20:05:32Z</time>
      </trkpt>
      <trkpt lat="47.36165" lon="4.04396">
        <ele>407.74</ele>
        <time>2021-08-11T20:05:33Z</time>
      </trkpt>
      <trkpt lat="47.36165" lon="4.04424">
        <ele>407.74</ele>
        <time>2021-08-11T20:05:38Z</time>
      </trkpt>
      <trkpt lat="47.36164" lon="4.04426">
        <ele>407.74</ele>
        <time>2021-08-11T20:05:39Z</time>
      </trkpt>
      <trkpt lat="47.36164" lon="4.04428">
        <ele>407.74</ele>
        <time>2021-08-11T20:05:40Z</time>
      </trkpt>
      <trkpt lat="47.36164" lon="4.0443">
        <ele>407.74</ele>
        <time>2021-08-11T20:05:41Z</time>
      </trkpt>
      <trkpt lat="47.36163" lon="4.04432">
        <ele>407.74</ele>
        <time>2021-08-11T20:05:42Z</time>
      </trkpt>
      <trkpt lat="47.36163" lon="4.04439">
        <ele>408.7</ele>
        <time>2021-08-11T20:05:47Z</time>
      </trkpt>
      <trkpt lat="47.36161" lon="4.04449">
        <ele>409.18</ele>
        <time>2021-08-11T20:05:55Z</time>
      </trkpt>
      <trkpt lat="47.36165" lon="4.04456">
        <ele>409.66</ele>
        <time>2021-08-11T20:06:05Z</time>
      </trkpt>
      <trkpt lat="47.36164" lon="4.04462">
        <ele>409.66</ele>
        <time>2021-08-11T20:06:11Z</time>
      </trkpt>
      <trkpt lat="47.36163" lon="4.04464">
        <ele>408.7</ele>
        <time>2021-08-11T20:06:12Z</time>
      </trkpt>
      <trkpt lat="47.36163" lon="4.04467">
        <ele>408.7</ele>
        <time>2021-08-11T20:06:13Z</time>
      </trkpt>
      <trkpt lat="47.36163" lon="4.04472">
        <ele>408.7</ele>
        <time>2021-08-11T20:06:15Z</time>
      </trkpt>
      <trkpt lat="47.36163" lon="4.04475">
        <ele>408.7</ele>
        <time>2021-08-11T20:06:16Z</time>
      </trkpt>
      <trkpt lat="47.36158" lon="4.04488">
        <ele>408.7</ele>
        <time>2021-08-11T20:06:20Z</time>
      </trkpt>
      <trkpt lat="47.36156" lon="4.0449">
        <ele>408.7</ele>
        <time>2021-08-11T20:06:21Z</time>
      </trkpt>
      <trkpt lat="47.36154" lon="4.04491">
        <ele>408.7</ele>
        <time>2021-08-11T20:06:22Z</time>
      </trkpt>
      <trkpt lat="47.36146" lon="4.04509">
        <ele>408.22</ele>
        <time>2021-08-11T20:06:29Z</time>
      </trkpt>
      <trkpt lat="47.36145" lon="4.04515">
        <ele>408.22</ele>
        <time>2021-08-11T20:06:31Z</time>
      </trkpt>
      <trkpt lat="47.36141" lon="4.04522">
        <ele>408.22</ele>
        <time>2021-08-11T20:06:39Z</time>
      </trkpt>
      <trkpt lat="47.3614" lon="4.04524">
        <ele>408.22</ele>
        <time>2021-08-11T20:06:57Z</time>
      </trkpt>
      <trkpt lat="47.36139" lon="4.04525">
        <ele>408.22</ele>
        <time>2021-08-11T20:07:09Z</time>
      </trkpt>
      <trkpt lat="47.36141" lon="4.04523">
        <ele>409.66</ele>
        <time>2021-08-11T20:07:24Z</time>
      </trkpt>
      <trkpt lat="47.36139" lon="4.04531">
        <ele>409.66</ele>
        <time>2021-08-11T20:07:30Z</time>
      </trkpt>
      <trkpt lat="47.3614" lon="4.04543">
        <ele>409.66</ele>
        <time>2021-08-11T20:07:35Z</time>
      </trkpt>
      <trkpt lat="47.3614" lon="4.04552">
        <ele>409.66</ele>
        <time>2021-08-11T20:07:41Z</time>
      </trkpt>
      <trkpt lat="47.36144" lon="4.04572">
        <ele>409.66</ele>
        <time>2021-08-11T20:07:46Z</time>
      </trkpt>
      <trkpt lat="47.36144" lon="4.04588">
        <ele>409.66</ele>
        <time>2021-08-11T20:07:51Z</time>
      </trkpt>
      <trkpt lat="47.36144" lon="4.04597">
        <ele>409.66</ele>
        <time>2021-08-11T20:07:54Z</time>
      </trkpt>
      <trkpt lat="47.36144" lon="4.046">
        <ele>409.66</ele>
        <time>2021-08-11T20:07:55Z</time>
      </trkpt>
      <trkpt lat="47.36147" lon="4.04623">
        <ele>410.14</ele>
        <time>2021-08-11T20:08:02Z</time>
      </trkpt>
      <trkpt lat="47.36152" lon="4.04644">
        <ele>410.14</ele>
        <time>2021-08-11T20:08:09Z</time>
      </trkpt>
      <trkpt lat="47.36157" lon="4.04661">
        <ele>410.14</ele>
        <time>2021-08-11T20:08:15Z</time>
      </trkpt>
      <trkpt lat="47.36158" lon="4.04674">
        <ele>410.62</ele>
        <time>2021-08-11T20:08:21Z</time>
      </trkpt>
      <trkpt lat="47.36158" lon="4.04688">
        <ele>411.1</ele>
        <time>2021-08-11T20:08:28Z</time>
      </trkpt>
      <trkpt lat="47.36157" lon="4.04691">
        <ele>411.58</ele>
        <time>2021-08-11T20:08:30Z</time>
      </trkpt>
      <trkpt lat="47.36156" lon="4.04699">
        <ele>411.58</ele>
        <time>2021-08-11T20:08:36Z</time>
      </trkpt>
      <trkpt lat="47.36159" lon="4.04704">
        <ele>411.58</ele>
        <time>2021-08-11T20:08:40Z</time>
      </trkpt>
      <trkpt lat="47.36163" lon="4.04713">
        <ele>412.06</ele>
        <time>2021-08-11T20:08:48Z</time>
      </trkpt>
      <trkpt lat="47.36164" lon="4.04716">
        <ele>413.5</ele>
        <time>2021-08-11T20:08:51Z</time>
      </trkpt>
      <trkpt lat="47.36165" lon="4.04719">
        <ele>411.58</ele>
        <time>2021-08-11T20:08:52Z</time>
      </trkpt>
      <trkpt lat="47.36167" lon="4.04723">
        <ele>413.98</ele>
        <time>2021-08-11T20:08:54Z</time>
      </trkpt>
      <trkpt lat="47.36169" lon="4.04736">
        <ele>413.5</ele>
        <time>2021-08-11T20:08:59Z</time>
      </trkpt>
      <trkpt lat="47.36176" lon="4.04755">
        <ele>414.47</ele>
        <time>2021-08-11T20:09:05Z</time>
      </trkpt>
      <trkpt lat="47.3618" lon="4.04765">
        <ele>414.47</ele>
        <time>2021-08-11T20:09:09Z</time>
      </trkpt>
      <trkpt lat="47.36181" lon="4.04766">
        <ele>414.47</ele>
        <time>2021-08-11T20:09:10Z</time>
      </trkpt>
      <trkpt lat="47.36183" lon="4.0477">
        <ele>416.39</ele>
        <time>2021-08-11T20:09:13Z</time>
      </trkpt>
      <trkpt lat="47.36186" lon="4.04777">
        <ele>416.87</ele>
        <time>2021-08-11T20:09:20Z</time>
      </trkpt>
      <trkpt lat="47.36188" lon="4.04784">
        <ele>416.87</ele>
        <time>2021-08-11T20:09:27Z</time>
      </trkpt>
      <trkpt lat="47.36191" lon="4.04787">
        <ele>417.35</ele>
        <time>2021-08-11T20:09:36Z</time>
      </trkpt>
      <trkpt lat="47.36193" lon="4.04793">
        <ele>417.35</ele>
        <time>2021-08-11T20:09:43Z</time>
      </trkpt>
      <trkpt lat="47.36193" lon="4.04798">
        <ele>417.35</ele>
        <time>2021-08-11T20:09:50Z</time>
      </trkpt>
      <trkpt lat="47.36194" lon="4.04799">
        <ele>416.87</ele>
        <time>2021-08-11T20:09:56Z</time>
      </trkpt>
      <trkpt lat="47.36194" lon="4.04805">
        <ele>415.43</ele>
        <time>2021-08-11T20:10:02Z</time>
      </trkpt>
      <trkpt lat="47.36194" lon="4.04808">
        <ele>414.47</ele>
        <time>2021-08-11T20:10:04Z</time>
      </trkpt>
      <trkpt lat="47.36195" lon="4.04811">
        <ele>413.98</ele>
        <time>2021-08-11T20:10:12Z</time>
      </trkpt>
      <trkpt lat="47.36198" lon="4.04815">
        <ele>413.98</ele>
        <time>2021-08-11T20:10:18Z</time>
      </trkpt>
      <trkpt lat="47.36201" lon="4.04818">
        <ele>414.95</ele>
        <time>2021-08-11T20:10:26Z</time>
      </trkpt>
      <trkpt lat="47.36206" lon="4.04818">
        <ele>414.95</ele>
        <time>2021-08-11T20:10:34Z</time>
      </trkpt>
      <trkpt lat="47.36207" lon="4.04822">
        <ele>414.95</ele>
        <time>2021-08-11T20:10:42Z</time>
      </trkpt>
      <trkpt lat="47.36208" lon="4.04828">
        <ele>414.95</ele>
        <time>2021-08-11T20:10:50Z</time>
      </trkpt>
      <trkpt lat="47.36209" lon="4.0483">
        <ele>416.39</ele>
        <time>2021-08-11T20:10:52Z</time>
      </trkpt>
      <trkpt lat="47.36209" lon="4.04839">
        <ele>416.87</ele>
        <time>2021-08-11T20:11:00Z</time>
      </trkpt>
      <trkpt lat="47.3621" lon="4.04849">
        <ele>416.87</ele>
        <time>2021-08-11T20:11:06Z</time>
      </trkpt>
      <trkpt lat="47.3621" lon="4.04855">
        <ele>417.83</ele>
        <time>2021-08-11T20:11:09Z</time>
      </trkpt>
      <trkpt lat="47.36211" lon="4.04858">
        <ele>417.83</ele>
        <time>2021-08-11T20:11:10Z</time>
      </trkpt>
      <trkpt lat="47.36211" lon="4.04859">
        <ele>417.83</ele>
        <time>2021-08-11T20:11:11Z</time>
      </trkpt>
      <trkpt lat="47.36212" lon="4.04864">
        <ele>417.83</ele>
        <time>2021-08-11T20:11:14Z</time>
      </trkpt>
      <trkpt lat="47.36212" lon="4.04868">
        <ele>417.83</ele>
        <time>2021-08-11T20:11:16Z</time>
      </trkpt>
      <trkpt lat="47.36212" lon="4.0487">
        <ele>417.83</ele>
        <time>2021-08-11T20:11:17Z</time>
      </trkpt>
      <trkpt lat="47.36212" lon="4.04873">
        <ele>417.83</ele>
        <time>2021-08-11T20:11:18Z</time>
      </trkpt>
      <trkpt lat="47.36213" lon="4.04876">
        <ele>417.83</ele>
        <time>2021-08-11T20:11:19Z</time>
      </trkpt>
      <trkpt lat="47.36213" lon="4.04883">
        <ele>418.31</ele>
        <time>2021-08-11T20:11:23Z</time>
      </trkpt>
      <trkpt lat="47.36211" lon="4.04885">
        <ele>418.31</ele>
        <time>2021-08-11T20:11:24Z</time>
      </trkpt>
      <trkpt lat="47.36209" lon="4.04886">
        <ele>418.31</ele>
        <time>2021-08-11T20:11:25Z</time>
      </trkpt>
      <trkpt lat="47.36208" lon="4.04888">
        <ele>418.31</ele>
        <time>2021-08-11T20:11:26Z</time>
      </trkpt>
      <trkpt lat="47.36207" lon="4.0489">
        <ele>418.31</ele>
        <time>2021-08-11T20:11:27Z</time>
      </trkpt>
      <trkpt lat="47.36207" lon="4.04899">
        <ele>417.35</ele>
        <time>2021-08-11T20:11:32Z</time>
      </trkpt>
      <trkpt lat="47.36206" lon="4.04902">
        <ele>417.35</ele>
        <time>2021-08-11T20:11:41Z</time>
      </trkpt>
      <trkpt lat="47.36202" lon="4.04906">
        <ele>417.35</ele>
        <time>2021-08-11T20:11:48Z</time>
      </trkpt>
      <trkpt lat="47.36197" lon="4.04914">
        <ele>417.83</ele>
        <time>2021-08-11T20:11:56Z</time>
      </trkpt>
      <trkpt lat="47.36192" lon="4.04921">
        <ele>417.83</ele>
        <time>2021-08-11T20:12:03Z</time>
      </trkpt>
      <trkpt lat="47.36189" lon="4.04924">
        <ele>417.83</ele>
        <time>2021-08-11T20:12:08Z</time>
      </trkpt>
      <trkpt lat="47.36183" lon="4.04926">
        <ele>417.83</ele>
        <time>2021-08-11T20:12:16Z</time>
      </trkpt>
      <trkpt lat="47.36178" lon="4.04926">
        <ele>419.27</ele>
        <time>2021-08-11T20:12:20Z</time>
      </trkpt>
      <trkpt lat="47.36175" lon="4.04932">
        <ele>419.27</ele>
        <time>2021-08-11T20:12:28Z</time>
      </trkpt>
      <trkpt lat="47.36173" lon="4.04932">
        <ele>419.27</ele>
        <time>2021-08-11T20:12:46Z</time>
      </trkpt>
      <trkpt lat="47.3617" lon="4.04935">
        <ele>419.75</ele>
        <time>2021-08-11T20:13:02Z</time>
      </trkpt>
      <trkpt lat="47.36171" lon="4.04937">
        <ele>419.75</ele>
        <time>2021-08-11T20:13:19Z</time>
      </trkpt>
      <trkpt lat="47.3617" lon="4.04937">
        <ele>419.75</ele>
        <time>2021-08-11T20:13:39Z</time>
      </trkpt>
      <trkpt lat="47.36166" lon="4.04942">
        <ele>419.75</ele>
        <time>2021-08-11T20:13:55Z</time>
      </trkpt>
      <trkpt lat="47.36165" lon="4.04941">
        <ele>419.75</ele>
        <time>2021-08-11T20:14:05Z</time>
      </trkpt>
      <trkpt lat="47.36161" lon="4.04943">
        <ele>419.75</ele>
        <time>2021-08-11T20:14:19Z</time>
      </trkpt>
      <trkpt lat="47.36163" lon="4.04939">
        <ele>419.75</ele>
        <time>2021-08-11T20:14:32Z</time>
      </trkpt>
      <trkpt lat="47.36164" lon="4.04939">
        <ele>419.75</ele>
        <time>2021-08-11T20:14:48Z</time>
      </trkpt>
      <trkpt lat="47.36162" lon="4.04936">
        <ele>419.75</ele>
        <time>2021-08-11T20:14:55Z</time>
      </trkpt>
      <trkpt lat="47.36157" lon="4.04937">
        <ele>419.75</ele>
        <time>2021-08-11T20:15:03Z</time>
      </trkpt>
      <trkpt lat="47.36154" lon="4.04937">
        <ele>419.75</ele>
        <time>2021-08-11T20:15:12Z</time>
      </trkpt>
      <trkpt lat="47.36151" lon="4.04938">
        <ele>419.75</ele>
        <time>2021-08-11T20:15:20Z</time>
      </trkpt>
      <trkpt lat="47.36148" lon="4.04935">
        <ele>419.75</ele>
        <time>2021-08-11T20:15:27Z</time>
      </trkpt>
      <trkpt lat="47.36143" lon="4.04936">
        <ele>419.75</ele>
        <time>2021-08-11T20:15:35Z</time>
      </trkpt>
      <trkpt lat="47.36134" lon="4.04938">
        <ele>420.23</ele>
        <time>2021-08-11T20:15:43Z</time>
      </trkpt>
      <trkpt lat="47.36131" lon="4.04943">
        <ele>420.23</ele>
        <time>2021-08-11T20:15:50Z</time>
      </trkpt>
      <trkpt lat="47.36127" lon="4.04945">
        <ele>420.23</ele>
        <time>2021-08-11T20:15:53Z</time>
      </trkpt>
      <trkpt lat="47.36117" lon="4.04954">
        <ele>420.71</ele>
        <time>2021-08-11T20:16:01Z</time>
      </trkpt>
      <trkpt lat="47.36109" lon="4.04967">
        <ele>420.71</ele>
        <time>2021-08-11T20:16:07Z</time>
      </trkpt>
      <trkpt lat="47.36102" lon="4.0498">
        <ele>421.68</ele>
        <time>2021-08-11T20:16:13Z</time>
      </trkpt>
      <trkpt lat="47.36091" lon="4.04983">
        <ele>421.68</ele>
        <time>2021-08-11T20:16:20Z</time>
      </trkpt>
      <trkpt lat="47.36088" lon="4.04986">
        <ele>421.68</ele>
        <time>2021-08-11T20:16:23Z</time>
      </trkpt>
      <trkpt lat="47.36088" lon="4.04991">
        <ele>422.16</ele>
        <time>2021-08-11T20:16:26Z</time>
      </trkpt>
      <trkpt lat="47.36079" lon="4.05005">
        <ele>422.16</ele>
        <time>2021-08-11T20:16:35Z</time>
      </trkpt>
      <trkpt lat="47.36073" lon="4.05021">
        <ele>422.64</ele>
        <time>2021-08-11T20:16:42Z</time>
      </trkpt>
      <trkpt lat="47.36066" lon="4.05036">
        <ele>423.12</ele>
        <time>2021-08-11T20:16:49Z</time>
      </trkpt>
      <trkpt lat="47.36056" lon="4.05048">
        <ele>423.12</ele>
        <time>2021-08-11T20:16:56Z</time>
      </trkpt>
      <trkpt lat="47.36051" lon="4.05054">
        <ele>423.12</ele>
        <time>2021-08-11T20:17:01Z</time>
      </trkpt>
      <trkpt lat="47.36045" lon="4.05055">
        <ele>423.12</ele>
        <time>2021-08-11T20:17:07Z</time>
      </trkpt>
      <trkpt lat="47.36041" lon="4.05058">
        <ele>423.12</ele>
        <time>2021-08-11T20:17:15Z</time>
      </trkpt>
      <trkpt lat="47.36036" lon="4.05059">
        <ele>423.12</ele>
        <time>2021-08-11T20:17:23Z</time>
      </trkpt>
      <trkpt lat="47.36032" lon="4.05063">
        <ele>423.12</ele>
        <time>2021-08-11T20:17:29Z</time>
      </trkpt>
      <trkpt lat="47.36027" lon="4.05067">
        <ele>423.12</ele>
        <time>2021-08-11T20:17:37Z</time>
      </trkpt>
      <trkpt lat="47.36025" lon="4.05076">
        <ele>423.6</ele>
        <time>2021-08-11T20:17:45Z</time>
      </trkpt>
      <trkpt lat="47.36022" lon="4.05081">
        <ele>423.6</ele>
        <time>2021-08-11T20:17:52Z</time>
      </trkpt>
      <trkpt lat="47.36017" lon="4.05079">
        <ele>423.6</ele>
        <time>2021-08-11T20:18:04Z</time>
      </trkpt>
      <trkpt lat="47.36019" lon="4.05081">
        <ele>423.6</ele>
        <time>2021-08-11T20:18:19Z</time>
      </trkpt>
      <trkpt lat="47.3602" lon="4.05079">
        <ele>423.6</ele>
        <time>2021-08-11T20:18:34Z</time>
      </trkpt>
      <trkpt lat="47.36021" lon="4.05083">
        <ele>423.6</ele>
        <time>2021-08-11T20:18:51Z</time>
      </trkpt>
      <trkpt lat="47.36019" lon="4.05086">
        <ele>423.6</ele>
        <time>2021-08-11T20:18:59Z</time>
      </trkpt>
      <trkpt lat="47.36014" lon="4.05091">
        <ele>423.6</ele>
        <time>2021-08-11T20:19:04Z</time>
      </trkpt>
      <trkpt lat="47.36012" lon="4.05102">
        <ele>423.6</ele>
        <time>2021-08-11T20:19:11Z</time>
      </trkpt>
      <trkpt lat="47.36008" lon="4.05108">
        <ele>424.08</ele>
        <time>2021-08-11T20:19:16Z</time>
      </trkpt>
      <trkpt lat="47.36006" lon="4.05111">
        <ele>424.08</ele>
        <time>2021-08-11T20:19:19Z</time>
      </trkpt>
      <trkpt lat="47.35996" lon="4.0512">
        <ele>425.04</ele>
        <time>2021-08-11T20:19:27Z</time>
      </trkpt>
      <trkpt lat="47.35989" lon="4.05127">
        <ele>425.52</ele>
        <time>2021-08-11T20:19:33Z</time>
      </trkpt>
      <trkpt lat="47.35983" lon="4.05131">
        <ele>426</ele>
        <time>2021-08-11T20:19:37Z</time>
      </trkpt>
      <trkpt lat="47.35977" lon="4.05141">
        <ele>426.48</ele>
        <time>2021-08-11T20:19:44Z</time>
      </trkpt>
      <trkpt lat="47.35967" lon="4.05151">
        <ele>426.48</ele>
        <time>2021-08-11T20:19:50Z</time>
      </trkpt>
      <trkpt lat="47.35958" lon="4.05162">
        <ele>426.96</ele>
        <time>2021-08-11T20:19:58Z</time>
      </trkpt>
      <trkpt lat="47.35954" lon="4.05166">
        <ele>426.96</ele>
        <time>2021-08-11T20:20:05Z</time>
      </trkpt>
      <trkpt lat="47.35951" lon="4.05166">
        <ele>427.44</ele>
        <time>2021-08-11T20:20:11Z</time>
      </trkpt>
      <trkpt lat="47.3595" lon="4.05166">
        <ele>427.44</ele>
        <time>2021-08-11T20:20:12Z</time>
      </trkpt>
      <trkpt lat="47.35945" lon="4.05171">
        <ele>427.44</ele>
        <time>2021-08-11T20:20:19Z</time>
      </trkpt>
      <trkpt lat="47.35941" lon="4.05178">
        <ele>427.92</ele>
        <time>2021-08-11T20:20:26Z</time>
      </trkpt>
      <trkpt lat="47.35937" lon="4.05183">
        <ele>429.37</ele>
        <time>2021-08-11T20:20:33Z</time>
      </trkpt>
      <trkpt lat="47.35932" lon="4.0519">
        <ele>429.37</ele>
        <time>2021-08-11T20:20:40Z</time>
      </trkpt>
      <trkpt lat="47.35929" lon="4.05196">
        <ele>429.37</ele>
        <time>2021-08-11T20:20:47Z</time>
      </trkpt>
      <trkpt lat="47.35927" lon="4.05198">
        <ele>429.85</ele>
        <time>2021-08-11T20:20:54Z</time>
      </trkpt>
      <trkpt lat="47.35927" lon="4.05195">
        <ele>429.85</ele>
        <time>2021-08-11T20:21:03Z</time>
      </trkpt>
      <trkpt lat="47.35924" lon="4.05201">
        <ele>429.85</ele>
        <time>2021-08-11T20:21:11Z</time>
      </trkpt>
      <trkpt lat="47.35922" lon="4.05207">
        <ele>431.29</ele>
        <time>2021-08-11T20:21:19Z</time>
      </trkpt>
      <trkpt lat="47.35917" lon="4.05213">
        <ele>431.29</ele>
        <time>2021-08-11T20:21:28Z</time>
      </trkpt>
      <trkpt lat="47.35914" lon="4.05214">
        <ele>431.29</ele>
        <time>2021-08-11T20:21:35Z</time>
      </trkpt>
      <trkpt lat="47.35909" lon="4.05217">
        <ele>429.85</ele>
        <time>2021-08-11T20:21:40Z</time>
      </trkpt>
      <trkpt lat="47.35903" lon="4.05222">
        <ele>429.85</ele>
        <time>2021-08-11T20:21:47Z</time>
      </trkpt>
      <trkpt lat="47.35902" lon="4.05225">
        <ele>430.33</ele>
        <time>2021-08-11T20:21:54Z</time>
      </trkpt>
      <trkpt lat="47.359" lon="4.05225">
        <ele>430.33</ele>
        <time>2021-08-11T20:22:08Z</time>
      </trkpt>
      <trkpt lat="47.35903" lon="4.05227">
        <ele>430.33</ele>
        <time>2021-08-11T20:22:29Z</time>
      </trkpt>
      <trkpt lat="47.359" lon="4.05226">
        <ele>430.33</ele>
        <time>2021-08-11T20:22:49Z</time>
      </trkpt>
      <trkpt lat="47.35898" lon="4.05223">
        <ele>429.37</ele>
        <time>2021-08-11T20:23:09Z</time>
      </trkpt>
      <trkpt lat="47.35897" lon="4.05222">
        <ele>429.37</ele>
        <time>2021-08-11T20:23:28Z</time>
      </trkpt>
      <trkpt lat="47.35899" lon="4.05214">
        <ele>429.37</ele>
        <time>2021-08-11T20:23:50Z</time>
      </trkpt>
      <trkpt lat="47.35896" lon="4.05217">
        <ele>429.37</ele>
        <time>2021-08-11T20:24:03Z</time>
      </trkpt>
      <trkpt lat="47.35896" lon="4.05223">
        <ele>430.81</ele>
        <time>2021-08-11T20:24:06Z</time>
      </trkpt>
      <trkpt lat="47.35893" lon="4.05232">
        <ele>431.77</ele>
        <time>2021-08-11T20:24:13Z</time>
      </trkpt>
      <trkpt lat="47.35889" lon="4.05239">
        <ele>433.69</ele>
        <time>2021-08-11T20:24:21Z</time>
      </trkpt>
      <trkpt lat="47.35884" lon="4.05246">
        <ele>433.69</ele>
        <time>2021-08-11T20:24:29Z</time>
      </trkpt>
      <trkpt lat="47.35879" lon="4.05251">
        <ele>433.69</ele>
        <time>2021-08-11T20:24:35Z</time>
      </trkpt>
      <trkpt lat="47.35876" lon="4.05255">
        <ele>432.25</ele>
        <time>2021-08-11T20:24:40Z</time>
      </trkpt>
      <trkpt lat="47.35871" lon="4.05256">
        <ele>431.77</ele>
        <time>2021-08-11T20:24:45Z</time>
      </trkpt>
      <trkpt lat="47.35867" lon="4.05259">
        <ele>431.29</ele>
        <time>2021-08-11T20:24:51Z</time>
      </trkpt>
      <trkpt lat="47.35862" lon="4.05264">
        <ele>431.29</ele>
        <time>2021-08-11T20:24:58Z</time>
      </trkpt>
      <trkpt lat="47.35855" lon="4.05266">
        <ele>429.85</ele>
        <time>2021-08-11T20:25:04Z</time>
      </trkpt>
      <trkpt lat="47.35853" lon="4.05266">
        <ele>429.37</ele>
        <time>2021-08-11T20:25:07Z</time>
      </trkpt>
      <trkpt lat="47.35846" lon="4.05265">
        <ele>428.4</ele>
        <time>2021-08-11T20:25:12Z</time>
      </trkpt>
      <trkpt lat="47.35839" lon="4.05267">
        <ele>428.89</ele>
        <time>2021-08-11T20:25:19Z</time>
      </trkpt>
      <trkpt lat="47.35826" lon="4.05268">
        <ele>428.89</ele>
        <time>2021-08-11T20:25:27Z</time>
      </trkpt>
      <trkpt lat="47.35821" lon="4.0527">
        <ele>429.85</ele>
        <time>2021-08-11T20:25:33Z</time>
      </trkpt>
      <trkpt lat="47.35819" lon="4.05272">
        <ele>429.85</ele>
        <time>2021-08-11T20:25:36Z</time>
      </trkpt>
      <trkpt lat="47.35812" lon="4.05279">
        <ele>430.81</ele>
        <time>2021-08-11T20:25:45Z</time>
      </trkpt>
      <trkpt lat="47.35811" lon="4.05282">
        <ele>431.29</ele>
        <time>2021-08-11T20:25:51Z</time>
      </trkpt>
      <trkpt lat="47.35807" lon="4.0529">
        <ele>431.77</ele>
        <time>2021-08-11T20:26:03Z</time>
      </trkpt>
      <trkpt lat="47.35804" lon="4.05293">
        <ele>431.77</ele>
        <time>2021-08-11T20:26:06Z</time>
      </trkpt>
      <trkpt lat="47.35799" lon="4.05303">
        <ele>432.73</ele>
        <time>2021-08-11T20:26:14Z</time>
      </trkpt>
      <trkpt lat="47.35797" lon="4.05305">
        <ele>432.73</ele>
        <time>2021-08-11T20:26:16Z</time>
      </trkpt>
      <trkpt lat="47.3579" lon="4.05312">
        <ele>432.25</ele>
        <time>2021-08-11T20:26:24Z</time>
      </trkpt>
      <trkpt lat="47.35788" lon="4.05317">
        <ele>432.25</ele>
        <time>2021-08-11T20:26:30Z</time>
      </trkpt>
      <trkpt lat="47.35787" lon="4.05321">
        <ele>432.25</ele>
        <time>2021-08-11T20:26:37Z</time>
      </trkpt>
      <trkpt lat="47.35784" lon="4.05326">
        <ele>432.25</ele>
        <time>2021-08-11T20:26:44Z</time>
      </trkpt>
      <trkpt lat="47.35781" lon="4.0533">
        <ele>432.25</ele>
        <time>2021-08-11T20:26:51Z</time>
      </trkpt>
      <trkpt lat="47.35778" lon="4.05333">
        <ele>432.25</ele>
        <time>2021-08-11T20:26:57Z</time>
      </trkpt>
      <trkpt lat="47.35775" lon="4.05341">
        <ele>432.25</ele>
        <time>2021-08-11T20:27:05Z</time>
      </trkpt>
      <trkpt lat="47.35772" lon="4.05347">
        <ele>432.25</ele>
        <time>2021-08-11T20:27:11Z</time>
      </trkpt>
      <trkpt lat="47.3577" lon="4.05358">
        <ele>432.25</ele>
        <time>2021-08-11T20:27:19Z</time>
      </trkpt>
      <trkpt lat="47.35768" lon="4.05361">
        <ele>432.25</ele>
        <time>2021-08-11T20:27:22Z</time>
      </trkpt>
      <trkpt lat="47.35767" lon="4.05374">
        <ele>432.73</ele>
        <time>2021-08-11T20:27:31Z</time>
      </trkpt>
      <trkpt lat="47.35764" lon="4.05382">
        <ele>432.73</ele>
        <time>2021-08-11T20:27:38Z</time>
      </trkpt>
      <trkpt lat="47.35758" lon="4.05391">
        <ele>433.21</ele>
        <time>2021-08-11T20:27:46Z</time>
      </trkpt>
      <trkpt lat="47.3575" lon="4.05395">
        <ele>434.17</ele>
        <time>2021-08-11T20:27:55Z</time>
      </trkpt>
      <trkpt lat="47.35749" lon="4.05401">
        <ele>434.17</ele>
        <time>2021-08-11T20:28:01Z</time>
      </trkpt>
      <trkpt lat="47.35749" lon="4.05408">
        <ele>434.17</ele>
        <time>2021-08-11T20:28:08Z</time>
      </trkpt>
      <trkpt lat="47.3575" lon="4.0541">
        <ele>434.17</ele>
        <time>2021-08-11T20:28:16Z</time>
      </trkpt>
      <trkpt lat="47.3575" lon="4.05414">
        <ele>434.17</ele>
        <time>2021-08-11T20:28:22Z</time>
      </trkpt>
      <trkpt lat="47.35749" lon="4.05422">
        <ele>434.17</ele>
        <time>2021-08-11T20:28:26Z</time>
      </trkpt>
      <trkpt lat="47.35746" lon="4.05434">
        <ele>434.17</ele>
        <time>2021-08-11T20:28:32Z</time>
      </trkpt>
      <trkpt lat="47.35745" lon="4.05438">
        <ele>434.17</ele>
        <time>2021-08-11T20:28:34Z</time>
      </trkpt>
      <trkpt lat="47.35743" lon="4.05444">
        <ele>434.17</ele>
        <time>2021-08-11T20:28:37Z</time>
      </trkpt>
      <trkpt lat="47.3574" lon="4.05461">
        <ele>434.65</ele>
        <time>2021-08-11T20:28:46Z</time>
      </trkpt>
      <trkpt lat="47.3574" lon="4.05466">
        <ele>434.65</ele>
        <time>2021-08-11T20:28:48Z</time>
      </trkpt>
      <trkpt lat="47.35739" lon="4.05477">
        <ele>435.61</ele>
        <time>2021-08-11T20:28:53Z</time>
      </trkpt>
      <trkpt lat="47.35738" lon="4.05484">
        <ele>436.58</ele>
        <time>2021-08-11T20:28:57Z</time>
      </trkpt>
      <trkpt lat="47.35737" lon="4.05503">
        <ele>437.54</ele>
        <time>2021-08-11T20:29:05Z</time>
      </trkpt>
      <trkpt lat="47.35735" lon="4.05514">
        <ele>438.02</ele>
        <time>2021-08-11T20:29:11Z</time>
      </trkpt>
      <trkpt lat="47.35735" lon="4.05523">
        <ele>438.5</ele>
        <time>2021-08-11T20:29:15Z</time>
      </trkpt>
      <trkpt lat="47.35733" lon="4.05541">
        <ele>438.5</ele>
        <time>2021-08-11T20:29:23Z</time>
      </trkpt>
      <trkpt lat="47.35736" lon="4.05557">
        <ele>438.98</ele>
        <time>2021-08-11T20:29:29Z</time>
      </trkpt>
      <trkpt lat="47.35737" lon="4.05566">
        <ele>438.5</ele>
        <time>2021-08-11T20:29:34Z</time>
      </trkpt>
      <trkpt lat="47.35737" lon="4.05582">
        <ele>439.94</ele>
        <time>2021-08-11T20:29:43Z</time>
      </trkpt>
      <trkpt lat="47.35739" lon="4.05599">
        <ele>440.42</ele>
        <time>2021-08-11T20:29:49Z</time>
      </trkpt>
      <trkpt lat="47.3574" lon="4.05615">
        <ele>441.38</ele>
        <time>2021-08-11T20:29:56Z</time>
      </trkpt>
      <trkpt lat="47.35743" lon="4.05628">
        <ele>441.86</ele>
        <time>2021-08-11T20:30:03Z</time>
      </trkpt>
      <trkpt lat="47.35741" lon="4.05641">
        <ele>442.34</ele>
        <time>2021-08-11T20:30:11Z</time>
      </trkpt>
      <trkpt lat="47.35741" lon="4.05646">
        <ele>442.34</ele>
        <time>2021-08-11T20:30:13Z</time>
      </trkpt>
      <trkpt lat="47.35746" lon="4.05663">
        <ele>442.82</ele>
        <time>2021-08-11T20:30:21Z</time>
      </trkpt>
      <trkpt lat="47.35749" lon="4.05667">
        <ele>443.79</ele>
        <time>2021-08-11T20:30:27Z</time>
      </trkpt>
      <trkpt lat="47.35755" lon="4.05668">
        <ele>444.75</ele>
        <time>2021-08-11T20:30:31Z</time>
      </trkpt>
      <trkpt lat="47.35762" lon="4.05676">
        <ele>446.19</ele>
        <time>2021-08-11T20:30:38Z</time>
      </trkpt>
      <trkpt lat="47.35767" lon="4.05685">
        <ele>447.15</ele>
        <time>2021-08-11T20:30:46Z</time>
      </trkpt>
      <trkpt lat="47.35771" lon="4.05693">
        <ele>447.63</ele>
        <time>2021-08-11T20:30:54Z</time>
      </trkpt>
      <trkpt lat="47.35777" lon="4.05699">
        <ele>448.59</ele>
        <time>2021-08-11T20:31:03Z</time>
      </trkpt>
      <trkpt lat="47.3578" lon="4.05705">
        <ele>449.55</ele>
        <time>2021-08-11T20:31:10Z</time>
      </trkpt>
      <trkpt lat="47.35783" lon="4.05712">
        <ele>450.52</ele>
        <time>2021-08-11T20:31:17Z</time>
      </trkpt>
      <trkpt lat="47.35786" lon="4.05714">
        <ele>452.44</ele>
        <time>2021-08-11T20:31:25Z</time>
      </trkpt>
      <trkpt lat="47.35791" lon="4.05714">
        <ele>452.92</ele>
        <time>2021-08-11T20:31:35Z</time>
      </trkpt>
      <trkpt lat="47.35795" lon="4.05715">
        <ele>454.36</ele>
        <time>2021-08-11T20:31:44Z</time>
      </trkpt>
      <trkpt lat="47.35797" lon="4.05714">
        <ele>454.84</ele>
        <time>2021-08-11T20:31:59Z</time>
      </trkpt>
      <trkpt lat="47.35796" lon="4.05711">
        <ele>454.84</ele>
        <time>2021-08-11T20:32:12Z</time>
      </trkpt>
      <trkpt lat="47.35796" lon="4.05713">
        <ele>453.4</ele>
        <time>2021-08-11T20:32:18Z</time>
      </trkpt>
      <trkpt lat="47.35795" lon="4.05713">
        <ele>452.92</ele>
        <time>2021-08-11T20:32:24Z</time>
      </trkpt>
      <trkpt lat="47.3579" lon="4.05715">
        <ele>451.48</ele>
        <time>2021-08-11T20:32:28Z</time>
      </trkpt>
      <trkpt lat="47.35785" lon="4.05715">
        <ele>450.03</ele>
        <time>2021-08-11T20:32:34Z</time>
      </trkpt>
      <trkpt lat="47.35781" lon="4.05715">
        <ele>449.07</ele>
        <time>2021-08-11T20:32:39Z</time>
      </trkpt>
      <trkpt lat="47.35778" lon="4.05719">
        <ele>447.63</ele>
        <time>2021-08-11T20:32:42Z</time>
      </trkpt>
      <trkpt lat="47.35779" lon="4.05723">
        <ele>446.19</ele>
        <time>2021-08-11T20:32:48Z</time>
      </trkpt>
      <trkpt lat="47.35783" lon="4.05726">
        <ele>446.19</ele>
        <time>2021-08-11T20:32:54Z</time>
      </trkpt>
      <trkpt lat="47.35784" lon="4.05727">
        <ele>447.63</ele>
        <time>2021-08-11T20:32:56Z</time>
      </trkpt>
      <trkpt lat="47.35788" lon="4.05731">
        <ele>448.59</ele>
        <time>2021-08-11T20:33:05Z</time>
      </trkpt>
      <trkpt lat="47.35792" lon="4.05735">
        <ele>449.07</ele>
        <time>2021-08-11T20:33:13Z</time>
      </trkpt>
      <trkpt lat="47.35801" lon="4.0574">
        <ele>450.03</ele>
        <time>2021-08-11T20:33:21Z</time>
      </trkpt>
      <trkpt lat="47.35809" lon="4.05746">
        <ele>450.52</ele>
        <time>2021-08-11T20:33:28Z</time>
      </trkpt>
      <trkpt lat="47.35818" lon="4.05753">
        <ele>451.48</ele>
        <time>2021-08-11T20:33:36Z</time>
      </trkpt>
      <trkpt lat="47.35828" lon="4.05761">
        <ele>452.44</ele>
        <time>2021-08-11T20:33:44Z</time>
      </trkpt>
      <trkpt lat="47.35837" lon="4.05767">
        <ele>452.92</ele>
        <time>2021-08-11T20:33:52Z</time>
      </trkpt>
      <trkpt lat="47.35846" lon="4.05772">
        <ele>453.88</ele>
        <time>2021-08-11T20:33:59Z</time>
      </trkpt>
      <trkpt lat="47.35857" lon="4.05777">
        <ele>454.84</ele>
        <time>2021-08-11T20:34:07Z</time>
      </trkpt>
      <trkpt lat="47.35868" lon="4.0578">
        <ele>456.76</ele>
        <time>2021-08-11T20:34:15Z</time>
      </trkpt>
      <trkpt lat="47.35877" lon="4.05785">
        <ele>457.24</ele>
        <time>2021-08-11T20:34:22Z</time>
      </trkpt>
      <trkpt lat="47.35886" lon="4.0579">
        <ele>457.24</ele>
        <time>2021-08-11T20:34:27Z</time>
      </trkpt>
      <trkpt lat="47.35897" lon="4.05793">
        <ele>458.21</ele>
        <time>2021-08-11T20:34:35Z</time>
      </trkpt>
      <trkpt lat="47.35905" lon="4.05798">
        <ele>459.17</ele>
        <time>2021-08-11T20:34:40Z</time>
      </trkpt>
      <trkpt lat="47.35915" lon="4.05804">
        <ele>459.65</ele>
        <time>2021-08-11T20:34:46Z</time>
      </trkpt>
      <trkpt lat="47.35935" lon="4.05823">
        <ele>460.13</ele>
        <time>2021-08-11T20:34:54Z</time>
      </trkpt>
      <trkpt lat="47.35942" lon="4.0583">
        <ele>460.13</ele>
        <time>2021-08-11T20:34:59Z</time>
      </trkpt>
      <trkpt lat="47.35945" lon="4.05831">
        <ele>460.13</ele>
        <time>2021-08-11T20:35:00Z</time>
      </trkpt>
      <trkpt lat="47.35955" lon="4.0584">
        <ele>460.13</ele>
        <time>2021-08-11T20:35:05Z</time>
      </trkpt>
      <trkpt lat="47.35959" lon="4.05845">
        <ele>460.13</ele>
        <time>2021-08-11T20:35:07Z</time>
      </trkpt>
      <trkpt lat="47.3596" lon="4.05847">
        <ele>460.13</ele>
        <time>2021-08-11T20:35:08Z</time>
      </trkpt>
      <trkpt lat="47.35962" lon="4.0585">
        <ele>460.13</ele>
        <time>2021-08-11T20:35:09Z</time>
      </trkpt>
      <trkpt lat="47.35975" lon="4.05868">
        <ele>458.69</ele>
        <time>2021-08-11T20:35:17Z</time>
      </trkpt>
      <trkpt lat="47.35975" lon="4.05869">
        <ele>458.69</ele>
        <time>2021-08-11T20:35:18Z</time>
      </trkpt>
      <trkpt lat="47.35978" lon="4.05873">
        <ele>458.69</ele>
        <time>2021-08-11T20:35:20Z</time>
      </trkpt>
      <trkpt lat="47.35979" lon="4.05877">
        <ele>458.69</ele>
        <time>2021-08-11T20:35:22Z</time>
      </trkpt>
      <trkpt lat="47.35987" lon="4.0589">
        <ele>459.17</ele>
        <time>2021-08-11T20:35:28Z</time>
      </trkpt>
      <trkpt lat="47.35992" lon="4.05895">
        <ele>459.17</ele>
        <time>2021-08-11T20:35:30Z</time>
      </trkpt>
      <trkpt lat="47.35995" lon="4.05908">
        <ele>459.17</ele>
        <time>2021-08-11T20:35:36Z</time>
      </trkpt>
      <trkpt lat="47.35996" lon="4.0591">
        <ele>459.17</ele>
        <time>2021-08-11T20:35:43Z</time>
      </trkpt>
      <trkpt lat="47.36002" lon="4.05914">
        <ele>459.17</ele>
        <time>2021-08-11T20:36:07Z</time>
      </trkpt>
      <trkpt lat="47.36005" lon="4.05916">
        <ele>459.17</ele>
        <time>2021-08-11T20:36:23Z</time>
      </trkpt>
      <trkpt lat="47.36003" lon="4.05919">
        <ele>459.17</ele>
        <time>2021-08-11T20:36:30Z</time>
      </trkpt>
      <trkpt lat="47.36001" lon="4.05922">
        <ele>459.17</ele>
        <time>2021-08-11T20:36:31Z</time>
      </trkpt>
      <trkpt lat="47.35989" lon="4.05941">
        <ele>457.24</ele>
        <time>2021-08-11T20:36:36Z</time>
      </trkpt>
      <trkpt lat="47.35975" lon="4.05961">
        <ele>458.21</ele>
        <time>2021-08-11T20:36:42Z</time>
      </trkpt>
      <trkpt lat="47.35974" lon="4.05963">
        <ele>458.69</ele>
        <time>2021-08-11T20:36:43Z</time>
      </trkpt>
      <trkpt lat="47.35968" lon="4.05971">
        <ele>459.65</ele>
        <time>2021-08-11T20:36:50Z</time>
      </trkpt>
      <trkpt lat="47.35967" lon="4.05973">
        <ele>460.13</ele>
        <time>2021-08-11T20:36:51Z</time>
      </trkpt>
      <trkpt lat="47.35964" lon="4.0598">
        <ele>461.09</ele>
        <time>2021-08-11T20:36:58Z</time>
      </trkpt>
      <trkpt lat="47.35962" lon="4.05982">
        <ele>461.57</ele>
        <time>2021-08-11T20:37:05Z</time>
      </trkpt>
      <trkpt lat="47.35955" lon="4.05987">
        <ele>463.01</ele>
        <time>2021-08-11T20:37:14Z</time>
      </trkpt>
      <trkpt lat="47.3595" lon="4.0599">
        <ele>464.45</ele>
        <time>2021-08-11T20:37:23Z</time>
      </trkpt>
      <trkpt lat="47.35937" lon="4.05994">
        <ele>466.38</ele>
        <time>2021-08-11T20:37:34Z</time>
      </trkpt>
      <trkpt lat="47.35931" lon="4.05998">
        <ele>467.34</ele>
        <time>2021-08-11T20:37:44Z</time>
      </trkpt>
      <trkpt lat="47.35927" lon="4.06">
        <ele>468.78</ele>
        <time>2021-08-11T20:37:52Z</time>
      </trkpt>
      <trkpt lat="47.35923" lon="4.06005">
        <ele>469.74</ele>
        <time>2021-08-11T20:38:00Z</time>
      </trkpt>
      <trkpt lat="47.35918" lon="4.06009">
        <ele>471.66</ele>
        <time>2021-08-11T20:38:10Z</time>
      </trkpt>
      <trkpt lat="47.35912" lon="4.06011">
        <ele>472.63</ele>
        <time>2021-08-11T20:38:20Z</time>
      </trkpt>
      <trkpt lat="47.35907" lon="4.06011">
        <ele>473.59</ele>
        <time>2021-08-11T20:38:27Z</time>
      </trkpt>
      <trkpt lat="47.35904" lon="4.06011">
        <ele>473.59</ele>
        <time>2021-08-11T20:38:34Z</time>
      </trkpt>
      <trkpt lat="47.359" lon="4.06008">
        <ele>474.07</ele>
        <time>2021-08-11T20:38:38Z</time>
      </trkpt>
      <trkpt lat="47.35899" lon="4.06007">
        <ele>474.07</ele>
        <time>2021-08-11T20:38:39Z</time>
      </trkpt>
      <trkpt lat="47.35888" lon="4.06005">
        <ele>475.51</ele>
        <time>2021-08-11T20:38:46Z</time>
      </trkpt>
      <trkpt lat="47.3587" lon="4.06002">
        <ele>476.95</ele>
        <time>2021-08-11T20:38:57Z</time>
      </trkpt>
      <trkpt lat="47.35868" lon="4.06002">
        <ele>477.91</ele>
        <time>2021-08-11T20:38:58Z</time>
      </trkpt>
      <trkpt lat="47.35867" lon="4.06001">
        <ele>477.91</ele>
        <time>2021-08-11T20:38:59Z</time>
      </trkpt>
      <trkpt lat="47.35864" lon="4.05999">
        <ele>477.91</ele>
        <time>2021-08-11T20:39:01Z</time>
      </trkpt>
      <trkpt lat="47.35856" lon="4.05998">
        <ele>478.87</ele>
        <time>2021-08-11T20:39:07Z</time>
      </trkpt>
      <trkpt lat="47.35842" lon="4.05995">
        <ele>478.87</ele>
        <time>2021-08-11T20:39:15Z</time>
      </trkpt>
      <trkpt lat="47.35836" lon="4.05999">
        <ele>479.84</ele>
        <time>2021-08-11T20:39:21Z</time>
      </trkpt>
      <trkpt lat="47.35833" lon="4.06004">
        <ele>480.8</ele>
        <time>2021-08-11T20:39:27Z</time>
      </trkpt>
      <trkpt lat="47.35832" lon="4.06007">
        <ele>481.28</ele>
        <time>2021-08-11T20:39:29Z</time>
      </trkpt>
      <trkpt lat="47.35832" lon="4.06014">
        <ele>481.76</ele>
        <time>2021-08-11T20:39:33Z</time>
      </trkpt>
      <trkpt lat="47.35832" lon="4.06019">
        <ele>482.24</ele>
        <time>2021-08-11T20:39:36Z</time>
      </trkpt>
      <trkpt lat="47.35826" lon="4.06031">
        <ele>482.72</ele>
        <time>2021-08-11T20:39:43Z</time>
      </trkpt>
      <trkpt lat="47.35826" lon="4.06035">
        <ele>483.68</ele>
        <time>2021-08-11T20:39:45Z</time>
      </trkpt>
      <trkpt lat="47.35826" lon="4.06037">
        <ele>483.68</ele>
        <time>2021-08-11T20:39:46Z</time>
      </trkpt>
      <trkpt lat="47.35825" lon="4.06039">
        <ele>483.68</ele>
        <time>2021-08-11T20:39:47Z</time>
      </trkpt>
      <trkpt lat="47.35825" lon="4.06042">
        <ele>483.68</ele>
        <time>2021-08-11T20:39:48Z</time>
      </trkpt>
      <trkpt lat="47.35825" lon="4.06053">
        <ele>483.68</ele>
        <time>2021-08-11T20:39:56Z</time>
      </trkpt>
      <trkpt lat="47.35822" lon="4.06051">
        <ele>483.68</ele>
        <time>2021-08-11T20:40:17Z</time>
      </trkpt>
      <trkpt lat="47.35824" lon="4.06054">
        <ele>483.2</ele>
        <time>2021-08-11T20:40:32Z</time>
      </trkpt>
      <trkpt lat="47.35827" lon="4.06052">
        <ele>483.2</ele>
        <time>2021-08-11T20:40:45Z</time>
      </trkpt>
      <trkpt lat="47.35824" lon="4.06053">
        <ele>483.2</ele>
        <time>2021-08-11T20:41:07Z</time>
      </trkpt>
      <trkpt lat="47.35826" lon="4.06057">
        <ele>483.2</ele>
        <time>2021-08-11T20:41:20Z</time>
      </trkpt>
      <trkpt lat="47.35824" lon="4.06057">
        <ele>483.2</ele>
        <time>2021-08-11T20:41:31Z</time>
      </trkpt>
      <trkpt lat="47.35822" lon="4.06054">
        <ele>483.2</ele>
        <time>2021-08-11T20:41:55Z</time>
      </trkpt>
      <trkpt lat="47.35823" lon="4.06057">
        <ele>483.2</ele>
        <time>2021-08-11T20:42:00Z</time>
      </trkpt>
      <trkpt lat="47.35824" lon="4.06059">
        <ele>483.2</ele>
        <time>2021-08-11T20:42:01Z</time>
      </trkpt>
      <trkpt lat="47.35825" lon="4.06061">
        <ele>483.2</ele>
        <time>2021-08-11T20:42:02Z</time>
      </trkpt>
      <trkpt lat="47.35826" lon="4.06063">
        <ele>483.2</ele>
        <time>2021-08-11T20:42:03Z</time>
      </trkpt>
      <trkpt lat="47.35828" lon="4.06065">
        <ele>483.2</ele>
        <time>2021-08-11T20:42:04Z</time>
      </trkpt>
      <trkpt lat="47.35829" lon="4.06067">
        <ele>483.2</ele>
        <time>2021-08-11T20:42:05Z</time>
      </trkpt>
      <trkpt lat="47.35843" lon="4.06083">
        <ele>483.2</ele>
        <time>2021-08-11T20:42:12Z</time>
      </trkpt>
      <trkpt lat="47.3586" lon="4.06104">
        <ele>483.68</ele>
        <time>2021-08-11T20:42:20Z</time>
      </trkpt>
      <trkpt lat="47.35873" lon="4.06112">
        <ele>483.68</ele>
        <time>2021-08-11T20:42:26Z</time>
      </trkpt>
      <trkpt lat="47.35874" lon="4.06111">
        <ele>483.68</ele>
        <time>2021-08-11T20:42:27Z</time>
      </trkpt>
      <trkpt lat="47.35876" lon="4.0611">
        <ele>483.68</ele>
        <time>2021-08-11T20:42:28Z</time>
      </trkpt>
      <trkpt lat="47.35878" lon="4.0611">
        <ele>483.2</ele>
        <time>2021-08-11T20:42:29Z</time>
      </trkpt>
      <trkpt lat="47.3588" lon="4.06111">
        <ele>483.2</ele>
        <time>2021-08-11T20:42:30Z</time>
      </trkpt>
      <trkpt lat="47.35882" lon="4.06113">
        <ele>483.2</ele>
        <time>2021-08-11T20:42:31Z</time>
      </trkpt>
      <trkpt lat="47.35884" lon="4.06115">
        <ele>483.2</ele>
        <time>2021-08-11T20:42:32Z</time>
      </trkpt>
      <trkpt lat="47.35886" lon="4.06117">
        <ele>483.2</ele>
        <time>2021-08-11T20:42:33Z</time>
      </trkpt>
      <trkpt lat="47.35896" lon="4.06125">
        <ele>482.24</ele>
        <time>2021-08-11T20:42:37Z</time>
      </trkpt>
      <trkpt lat="47.35902" lon="4.06144">
        <ele>482.24</ele>
        <time>2021-08-11T20:42:42Z</time>
      </trkpt>
      <trkpt lat="47.35895" lon="4.06161">
        <ele>482.24</ele>
        <time>2021-08-11T20:42:48Z</time>
      </trkpt>
      <trkpt lat="47.35883" lon="4.06189">
        <ele>482.24</ele>
        <time>2021-08-11T20:42:57Z</time>
      </trkpt>
      <trkpt lat="47.35868" lon="4.06226">
        <ele>482.24</ele>
        <time>2021-08-11T20:43:07Z</time>
      </trkpt>
      <trkpt lat="47.35864" lon="4.06238">
        <ele>483.2</ele>
        <time>2021-08-11T20:43:10Z</time>
      </trkpt>
      <trkpt lat="47.35859" lon="4.06265">
        <ele>484.64</ele>
        <time>2021-08-11T20:43:18Z</time>
      </trkpt>
      <trkpt lat="47.35856" lon="4.06285">
        <ele>485.6</ele>
        <time>2021-08-11T20:43:25Z</time>
      </trkpt>
      <trkpt lat="47.35853" lon="4.06304">
        <ele>487.05</ele>
        <time>2021-08-11T20:43:32Z</time>
      </trkpt>
      <trkpt lat="47.35848" lon="4.06333">
        <ele>488.49</ele>
        <time>2021-08-11T20:43:42Z</time>
      </trkpt>
      <trkpt lat="47.3584" lon="4.06351">
        <ele>488.97</ele>
        <time>2021-08-11T20:43:49Z</time>
      </trkpt>
      <trkpt lat="47.35831" lon="4.06368">
        <ele>489.93</ele>
        <time>2021-08-11T20:43:56Z</time>
      </trkpt>
      <trkpt lat="47.35821" lon="4.06387">
        <ele>490.41</ele>
        <time>2021-08-11T20:44:04Z</time>
      </trkpt>
      <trkpt lat="47.35814" lon="4.06402">
        <ele>490.89</ele>
        <time>2021-08-11T20:44:10Z</time>
      </trkpt>
      <trkpt lat="47.35805" lon="4.06422">
        <ele>491.85</ele>
        <time>2021-08-11T20:44:18Z</time>
      </trkpt>
      <trkpt lat="47.35796" lon="4.0644">
        <ele>491.85</ele>
        <time>2021-08-11T20:44:26Z</time>
      </trkpt>
      <trkpt lat="47.35784" lon="4.06462">
        <ele>493.29</ele>
        <time>2021-08-11T20:44:36Z</time>
      </trkpt>
      <trkpt lat="47.35783" lon="4.06463">
        <ele>493.29</ele>
        <time>2021-08-11T20:44:37Z</time>
      </trkpt>
      <trkpt lat="47.35781" lon="4.06465">
        <ele>493.77</ele>
        <time>2021-08-11T20:44:38Z</time>
      </trkpt>
      <trkpt lat="47.35781" lon="4.06468">
        <ele>493.77</ele>
        <time>2021-08-11T20:44:39Z</time>
      </trkpt>
      <trkpt lat="47.3578" lon="4.06471">
        <ele>493.77</ele>
        <time>2021-08-11T20:44:40Z</time>
      </trkpt>
      <trkpt lat="47.35779" lon="4.06473">
        <ele>494.26</ele>
        <time>2021-08-11T20:44:41Z</time>
      </trkpt>
      <trkpt lat="47.35778" lon="4.06476">
        <ele>494.26</ele>
        <time>2021-08-11T20:44:42Z</time>
      </trkpt>
      <trkpt lat="47.35771" lon="4.06493">
        <ele>494.74</ele>
        <time>2021-08-11T20:44:49Z</time>
      </trkpt>
      <trkpt lat="47.35761" lon="4.0651">
        <ele>496.18</ele>
        <time>2021-08-11T20:44:57Z</time>
      </trkpt>
      <trkpt lat="47.35749" lon="4.06536">
        <ele>497.62</ele>
        <time>2021-08-11T20:45:08Z</time>
      </trkpt>
      <trkpt lat="47.35738" lon="4.06558">
        <ele>498.58</ele>
        <time>2021-08-11T20:45:18Z</time>
      </trkpt>
      <trkpt lat="47.35735" lon="4.06583">
        <ele>500.02</ele>
        <time>2021-08-11T20:45:27Z</time>
      </trkpt>
      <trkpt lat="47.35733" lon="4.06612">
        <ele>500.5</ele>
        <time>2021-08-11T20:45:37Z</time>
      </trkpt>
      <trkpt lat="47.35732" lon="4.0663">
        <ele>501.95</ele>
        <time>2021-08-11T20:45:44Z</time>
      </trkpt>
      <trkpt lat="47.35731" lon="4.06653">
        <ele>503.39</ele>
        <time>2021-08-11T20:45:54Z</time>
      </trkpt>
      <trkpt lat="47.35727" lon="4.06672">
        <ele>504.83</ele>
        <time>2021-08-11T20:46:02Z</time>
      </trkpt>
      <trkpt lat="47.35722" lon="4.06691">
        <ele>506.27</ele>
        <time>2021-08-11T20:46:11Z</time>
      </trkpt>
      <trkpt lat="47.35715" lon="4.06712">
        <ele>507.71</ele>
        <time>2021-08-11T20:46:21Z</time>
      </trkpt>
      <trkpt lat="47.35714" lon="4.06714">
        <ele>508.19</ele>
        <time>2021-08-11T20:46:22Z</time>
      </trkpt>
      <trkpt lat="47.35713" lon="4.06716">
        <ele>508.19</ele>
        <time>2021-08-11T20:46:23Z</time>
      </trkpt>
      <trkpt lat="47.35712" lon="4.06717">
        <ele>508.19</ele>
        <time>2021-08-11T20:46:24Z</time>
      </trkpt>
      <trkpt lat="47.35701" lon="4.06732">
        <ele>509.64</ele>
        <time>2021-08-11T20:46:32Z</time>
      </trkpt>
      <trkpt lat="47.35694" lon="4.06746">
        <ele>510.6</ele>
        <time>2021-08-11T20:46:38Z</time>
      </trkpt>
      <trkpt lat="47.35692" lon="4.06747">
        <ele>510.6</ele>
        <time>2021-08-11T20:46:39Z</time>
      </trkpt>
      <trkpt lat="47.3569" lon="4.06748">
        <ele>510.6</ele>
        <time>2021-08-11T20:46:40Z</time>
      </trkpt>
      <trkpt lat="47.35688" lon="4.06749">
        <ele>510.6</ele>
        <time>2021-08-11T20:46:41Z</time>
      </trkpt>
      <trkpt lat="47.35686" lon="4.0675">
        <ele>511.08</ele>
        <time>2021-08-11T20:46:42Z</time>
      </trkpt>
      <trkpt lat="47.35684" lon="4.06751">
        <ele>511.08</ele>
        <time>2021-08-11T20:46:43Z</time>
      </trkpt>
      <trkpt lat="47.35671" lon="4.06757">
        <ele>511.08</ele>
        <time>2021-08-11T20:46:50Z</time>
      </trkpt>
      <trkpt lat="47.35647" lon="4.06767">
        <ele>508.19</ele>
        <time>2021-08-11T20:46:56Z</time>
      </trkpt>
      <trkpt lat="47.35631" lon="4.0678">
        <ele>506.75</ele>
        <time>2021-08-11T20:47:00Z</time>
      </trkpt>
      <trkpt lat="47.35627" lon="4.06783">
        <ele>506.75</ele>
        <time>2021-08-11T20:47:01Z</time>
      </trkpt>
      <trkpt lat="47.35623" lon="4.06788">
        <ele>505.79</ele>
        <time>2021-08-11T20:47:02Z</time>
      </trkpt>
      <trkpt lat="47.35599" lon="4.06815">
        <ele>504.83</ele>
        <time>2021-08-11T20:47:08Z</time>
      </trkpt>
      <trkpt lat="47.35596" lon="4.06821">
        <ele>504.35</ele>
        <time>2021-08-11T20:47:09Z</time>
      </trkpt>
      <trkpt lat="47.35584" lon="4.0685">
        <ele>503.39</ele>
        <time>2021-08-11T20:47:14Z</time>
      </trkpt>
      <trkpt lat="47.35568" lon="4.06876">
        <ele>502.91</ele>
        <time>2021-08-11T20:47:19Z</time>
      </trkpt>
      <trkpt lat="47.35558" lon="4.06899">
        <ele>501.46</ele>
        <time>2021-08-11T20:47:23Z</time>
      </trkpt>
      <trkpt lat="47.35556" lon="4.06905">
        <ele>501.46</ele>
        <time>2021-08-11T20:47:24Z</time>
      </trkpt>
      <trkpt lat="47.35554" lon="4.06911">
        <ele>500.98</ele>
        <time>2021-08-11T20:47:25Z</time>
      </trkpt>
      <trkpt lat="47.35551" lon="4.06917">
        <ele>500.98</ele>
        <time>2021-08-11T20:47:26Z</time>
      </trkpt>
      <trkpt lat="47.35548" lon="4.06923">
        <ele>500.98</ele>
        <time>2021-08-11T20:47:27Z</time>
      </trkpt>
      <trkpt lat="47.35544" lon="4.06928">
        <ele>500.02</ele>
        <time>2021-08-11T20:47:28Z</time>
      </trkpt>
      <trkpt lat="47.35541" lon="4.06931">
        <ele>500.02</ele>
        <time>2021-08-11T20:47:29Z</time>
      </trkpt>
      <trkpt lat="47.35534" lon="4.06939">
        <ele>499.54</ele>
        <time>2021-08-11T20:47:31Z</time>
      </trkpt>
      <trkpt lat="47.35531" lon="4.06942">
        <ele>499.54</ele>
        <time>2021-08-11T20:47:32Z</time>
      </trkpt>
      <trkpt lat="47.35528" lon="4.06944">
        <ele>499.54</ele>
        <time>2021-08-11T20:47:33Z</time>
      </trkpt>
      <trkpt lat="47.35524" lon="4.06946">
        <ele>499.54</ele>
        <time>2021-08-11T20:47:34Z</time>
      </trkpt>
      <trkpt lat="47.35523" lon="4.06947">
        <ele>499.54</ele>
        <time>2021-08-11T20:47:35Z</time>
      </trkpt>
      <trkpt lat="47.3552" lon="4.06947">
        <ele>499.54</ele>
        <time>2021-08-11T20:47:36Z</time>
      </trkpt>
      <trkpt lat="47.35518" lon="4.06948">
        <ele>499.54</ele>
        <time>2021-08-11T20:47:37Z</time>
      </trkpt>
      <trkpt lat="47.35508" lon="4.0695">
        <ele>500.98</ele>
        <time>2021-08-11T20:47:41Z</time>
      </trkpt>
      <trkpt lat="47.3549" lon="4.06956">
        <ele>501.46</ele>
        <time>2021-08-11T20:47:48Z</time>
      </trkpt>
      <trkpt lat="47.35474" lon="4.06958">
        <ele>502.43</ele>
        <time>2021-08-11T20:47:54Z</time>
      </trkpt>
      <trkpt lat="47.35458" lon="4.06958">
        <ele>502.43</ele>
        <time>2021-08-11T20:48:00Z</time>
      </trkpt>
      <trkpt lat="47.35444" lon="4.06962">
        <ele>503.87</ele>
        <time>2021-08-11T20:48:06Z</time>
      </trkpt>
      <trkpt lat="47.35436" lon="4.06964">
        <ele>504.35</ele>
        <time>2021-08-11T20:48:10Z</time>
      </trkpt>
      <trkpt lat="47.35434" lon="4.06964">
        <ele>504.35</ele>
        <time>2021-08-11T20:48:11Z</time>
      </trkpt>
      <trkpt lat="47.35432" lon="4.06965">
        <ele>504.35</ele>
        <time>2021-08-11T20:48:12Z</time>
      </trkpt>
      <trkpt lat="47.35417" lon="4.06968">
        <ele>504.83</ele>
        <time>2021-08-11T20:48:19Z</time>
      </trkpt>
      <trkpt lat="47.35399" lon="4.06972">
        <ele>504.83</ele>
        <time>2021-08-11T20:48:25Z</time>
      </trkpt>
      <trkpt lat="47.35393" lon="4.06975">
        <ele>504.83</ele>
        <time>2021-08-11T20:48:27Z</time>
      </trkpt>
      <trkpt lat="47.3539" lon="4.06975">
        <ele>504.83</ele>
        <time>2021-08-11T20:48:28Z</time>
      </trkpt>
      <trkpt lat="47.35388" lon="4.06975">
        <ele>504.83</ele>
        <time>2021-08-11T20:48:29Z</time>
      </trkpt>
      <trkpt lat="47.35371" lon="4.06983">
        <ele>504.83</ele>
        <time>2021-08-11T20:48:35Z</time>
      </trkpt>
      <trkpt lat="47.35355" lon="4.0699">
        <ele>504.83</ele>
        <time>2021-08-11T20:48:41Z</time>
      </trkpt>
      <trkpt lat="47.35342" lon="4.07">
        <ele>505.31</ele>
        <time>2021-08-11T20:48:47Z</time>
      </trkpt>
      <trkpt lat="47.35329" lon="4.07007">
        <ele>506.27</ele>
        <time>2021-08-11T20:48:53Z</time>
      </trkpt>
      <trkpt lat="47.35313" lon="4.07014">
        <ele>507.71</ele>
        <time>2021-08-11T20:49:00Z</time>
      </trkpt>
      <trkpt lat="47.35296" lon="4.07021">
        <ele>508.19</ele>
        <time>2021-08-11T20:49:08Z</time>
      </trkpt>
      <trkpt lat="47.35283" lon="4.07026">
        <ele>509.16</ele>
        <time>2021-08-11T20:49:15Z</time>
      </trkpt>
      <trkpt lat="47.35264" lon="4.07035">
        <ele>510.6</ele>
        <time>2021-08-11T20:49:24Z</time>
      </trkpt>
      <trkpt lat="47.35262" lon="4.07036">
        <ele>510.6</ele>
        <time>2021-08-11T20:49:25Z</time>
      </trkpt>
      <trkpt lat="47.3526" lon="4.07037">
        <ele>510.6</ele>
        <time>2021-08-11T20:49:26Z</time>
      </trkpt>
      <trkpt lat="47.35258" lon="4.07038">
        <ele>510.6</ele>
        <time>2021-08-11T20:49:27Z</time>
      </trkpt>
      <trkpt lat="47.3524" lon="4.07046">
        <ele>512.04</ele>
        <time>2021-08-11T20:49:35Z</time>
      </trkpt>
      <trkpt lat="47.35219" lon="4.07056">
        <ele>512.04</ele>
        <time>2021-08-11T20:49:42Z</time>
      </trkpt>
      <trkpt lat="47.35202" lon="4.07073">
        <ele>512.04</ele>
        <time>2021-08-11T20:49:48Z</time>
      </trkpt>
      <trkpt lat="47.35191" lon="4.07095">
        <ele>512.04</ele>
        <time>2021-08-11T20:49:54Z</time>
      </trkpt>
      <trkpt lat="47.35184" lon="4.07119">
        <ele>512.04</ele>
        <time>2021-08-11T20:50:00Z</time>
      </trkpt>
      <trkpt lat="47.35174" lon="4.07146">
        <ele>512.04</ele>
        <time>2021-08-11T20:50:06Z</time>
      </trkpt>
      <trkpt lat="47.35161" lon="4.07177">
        <ele>512.52</ele>
        <time>2021-08-11T20:50:13Z</time>
      </trkpt>
      <trkpt lat="47.3515" lon="4.07205">
        <ele>512.52</ele>
        <time>2021-08-11T20:50:19Z</time>
      </trkpt>
      <trkpt lat="47.35143" lon="4.0724">
        <ele>512.52</ele>
        <time>2021-08-11T20:50:26Z</time>
      </trkpt>
      <trkpt lat="47.35141" lon="4.0725">
        <ele>512.52</ele>
        <time>2021-08-11T20:50:28Z</time>
      </trkpt>
      <trkpt lat="47.3514" lon="4.07254">
        <ele>512.52</ele>
        <time>2021-08-11T20:50:29Z</time>
      </trkpt>
      <trkpt lat="47.35138" lon="4.07261">
        <ele>512.52</ele>
        <time>2021-08-11T20:50:30Z</time>
      </trkpt>
      <trkpt lat="47.35136" lon="4.07265">
        <ele>512.52</ele>
        <time>2021-08-11T20:50:31Z</time>
      </trkpt>
      <trkpt lat="47.35134" lon="4.0727">
        <ele>511.08</ele>
        <time>2021-08-11T20:50:32Z</time>
      </trkpt>
      <trkpt lat="47.35127" lon="4.07292">
        <ele>510.12</ele>
        <time>2021-08-11T20:50:35Z</time>
      </trkpt>
      <trkpt lat="47.35124" lon="4.07299">
        <ele>510.12</ele>
        <time>2021-08-11T20:50:36Z</time>
      </trkpt>
      <trkpt lat="47.35119" lon="4.07313">
        <ele>509.64</ele>
        <time>2021-08-11T20:50:38Z</time>
      </trkpt>
      <trkpt lat="47.35109" lon="4.07341">
        <ele>509.16</ele>
        <time>2021-08-11T20:50:42Z</time>
      </trkpt>
      <trkpt lat="47.35094" lon="4.07381">
        <ele>508.19</ele>
        <time>2021-08-11T20:50:49Z</time>
      </trkpt>
      <trkpt lat="47.35092" lon="4.07387">
        <ele>507.71</ele>
        <time>2021-08-11T20:50:50Z</time>
      </trkpt>
      <trkpt lat="47.3509" lon="4.07392">
        <ele>507.23</ele>
        <time>2021-08-11T20:50:51Z</time>
      </trkpt>
      <trkpt lat="47.35088" lon="4.07399">
        <ele>506.75</ele>
        <time>2021-08-11T20:50:52Z</time>
      </trkpt>
      <trkpt lat="47.35086" lon="4.07405">
        <ele>506.75</ele>
        <time>2021-08-11T20:50:53Z</time>
      </trkpt>
      <trkpt lat="47.35079" lon="4.07424">
        <ele>505.79</ele>
        <time>2021-08-11T20:50:57Z</time>
      </trkpt>
      <trkpt lat="47.35076" lon="4.07432">
        <ele>504.83</ele>
        <time>2021-08-11T20:51:00Z</time>
      </trkpt>
      <trkpt lat="47.3507" lon="4.07436">
        <ele>503.87</ele>
        <time>2021-08-11T20:51:06Z</time>
      </trkpt>
      <trkpt lat="47.35069" lon="4.0744">
        <ele>503.87</ele>
        <time>2021-08-11T20:51:12Z</time>
      </trkpt>
      <trkpt lat="47.3507" lon="4.07444">
        <ele>503.87</ele>
        <time>2021-08-11T20:51:20Z</time>
      </trkpt>
      <trkpt lat="47.35069" lon="4.07446">
        <ele>503.87</ele>
        <time>2021-08-11T20:51:21Z</time>
      </trkpt>
      <trkpt lat="47.35068" lon="4.07448">
        <ele>503.87</ele>
        <time>2021-08-11T20:51:22Z</time>
      </trkpt>
      <trkpt lat="47.35067" lon="4.0745">
        <ele>503.87</ele>
        <time>2021-08-11T20:51:23Z</time>
      </trkpt>
      <trkpt lat="47.35066" lon="4.07453">
        <ele>503.87</ele>
        <time>2021-08-11T20:51:24Z</time>
      </trkpt>
      <trkpt lat="47.35064" lon="4.07456">
        <ele>503.87</ele>
        <time>2021-08-11T20:51:25Z</time>
      </trkpt>
      <trkpt lat="47.35061" lon="4.07463">
        <ele>503.39</ele>
        <time>2021-08-11T20:51:27Z</time>
      </trkpt>
      <trkpt lat="47.3506" lon="4.07466">
        <ele>503.39</ele>
        <time>2021-08-11T20:51:28Z</time>
      </trkpt>
      <trkpt lat="47.35054" lon="4.07481">
        <ele>505.31</ele>
        <time>2021-08-11T20:51:34Z</time>
      </trkpt>
      <trkpt lat="47.35051" lon="4.0749">
        <ele>506.75</ele>
        <time>2021-08-11T20:51:40Z</time>
      </trkpt>
      <trkpt lat="47.35045" lon="4.07502">
        <ele>508.19</ele>
        <time>2021-08-11T20:51:49Z</time>
      </trkpt>
      <trkpt lat="47.35041" lon="4.0751">
        <ele>508.67</ele>
        <time>2021-08-11T20:51:56Z</time>
      </trkpt>
      <trkpt lat="47.35035" lon="4.07516">
        <ele>509.16</ele>
        <time>2021-08-11T20:52:02Z</time>
      </trkpt>
      <trkpt lat="47.35028" lon="4.07525">
        <ele>509.64</ele>
        <time>2021-08-11T20:52:08Z</time>
      </trkpt>
      <trkpt lat="47.35022" lon="4.07534">
        <ele>510.12</ele>
        <time>2021-08-11T20:52:16Z</time>
      </trkpt>
      <trkpt lat="47.35014" lon="4.07545">
        <ele>511.08</ele>
        <time>2021-08-11T20:52:23Z</time>
      </trkpt>
      <trkpt lat="47.35007" lon="4.07554">
        <ele>512.52</ele>
        <time>2021-08-11T20:52:30Z</time>
      </trkpt>
      <trkpt lat="47.35" lon="4.07567">
        <ele>513</ele>
        <time>2021-08-11T20:52:39Z</time>
      </trkpt>
      <trkpt lat="47.34998" lon="4.07572">
        <ele>513.96</ele>
        <time>2021-08-11T20:52:43Z</time>
      </trkpt>
      <trkpt lat="47.34997" lon="4.07574">
        <ele>513.96</ele>
        <time>2021-08-11T20:52:44Z</time>
      </trkpt>
      <trkpt lat="47.34997" lon="4.07575">
        <ele>513.96</ele>
        <time>2021-08-11T20:52:45Z</time>
      </trkpt>
      <trkpt lat="47.34996" lon="4.07577">
        <ele>513.96</ele>
        <time>2021-08-11T20:52:46Z</time>
      </trkpt>
      <trkpt lat="47.34995" lon="4.07578">
        <ele>513.96</ele>
        <time>2021-08-11T20:52:47Z</time>
      </trkpt>
      <trkpt lat="47.34995" lon="4.0758">
        <ele>513.48</ele>
        <time>2021-08-11T20:52:48Z</time>
      </trkpt>
      <trkpt lat="47.3499" lon="4.0759">
        <ele>514.92</ele>
        <time>2021-08-11T20:52:56Z</time>
      </trkpt>
      <trkpt lat="47.34984" lon="4.07603">
        <ele>515.4</ele>
        <time>2021-08-11T20:53:05Z</time>
      </trkpt>
      <trkpt lat="47.3498" lon="4.07617">
        <ele>516.37</ele>
        <time>2021-08-11T20:53:15Z</time>
      </trkpt>
      <trkpt lat="47.34979" lon="4.07621">
        <ele>516.85</ele>
        <time>2021-08-11T20:53:22Z</time>
      </trkpt>
      <trkpt lat="47.34978" lon="4.07623">
        <ele>516.85</ele>
        <time>2021-08-11T20:53:25Z</time>
      </trkpt>
      <trkpt lat="47.34978" lon="4.07625">
        <ele>516.85</ele>
        <time>2021-08-11T20:53:26Z</time>
      </trkpt>
      <trkpt lat="47.34977" lon="4.07627">
        <ele>516.85</ele>
        <time>2021-08-11T20:53:27Z</time>
      </trkpt>
      <trkpt lat="47.34976" lon="4.07629">
        <ele>516.85</ele>
        <time>2021-08-11T20:53:28Z</time>
      </trkpt>
      <trkpt lat="47.34975" lon="4.07631">
        <ele>516.85</ele>
        <time>2021-08-11T20:53:29Z</time>
      </trkpt>
      <trkpt lat="47.34969" lon="4.07646">
        <ele>517.33</ele>
        <time>2021-08-11T20:53:35Z</time>
      </trkpt>
      <trkpt lat="47.34961" lon="4.07666">
        <ele>518.29</ele>
        <time>2021-08-11T20:53:43Z</time>
      </trkpt>
      <trkpt lat="47.3495" lon="4.0769">
        <ele>519.25</ele>
        <time>2021-08-11T20:53:53Z</time>
      </trkpt>
      <trkpt lat="47.34944" lon="4.07707">
        <ele>519.73</ele>
        <time>2021-08-11T20:54:00Z</time>
      </trkpt>
      <trkpt lat="47.34939" lon="4.0774">
        <ele>518.29</ele>
        <time>2021-08-11T20:54:09Z</time>
      </trkpt>
      <trkpt lat="47.34933" lon="4.07763">
        <ele>516.85</ele>
        <time>2021-08-11T20:54:17Z</time>
      </trkpt>
      <trkpt lat="47.34929" lon="4.07774">
        <ele>514.92</ele>
        <time>2021-08-11T20:54:23Z</time>
      </trkpt>
      <trkpt lat="47.34927" lon="4.07776">
        <ele>514.92</ele>
        <time>2021-08-11T20:54:25Z</time>
      </trkpt>
      <trkpt lat="47.34926" lon="4.07778">
        <ele>514.92</ele>
        <time>2021-08-11T20:54:26Z</time>
      </trkpt>
      <trkpt lat="47.34925" lon="4.07779">
        <ele>514.44</ele>
        <time>2021-08-11T20:54:27Z</time>
      </trkpt>
      <trkpt lat="47.34924" lon="4.0778">
        <ele>513.48</ele>
        <time>2021-08-11T20:54:28Z</time>
      </trkpt>
      <trkpt lat="47.34922" lon="4.07781">
        <ele>513</ele>
        <time>2021-08-11T20:54:29Z</time>
      </trkpt>
      <trkpt lat="47.34921" lon="4.07781">
        <ele>513</ele>
        <time>2021-08-11T20:54:30Z</time>
      </trkpt>
      <trkpt lat="47.34918" lon="4.07778">
        <ele>513</ele>
        <time>2021-08-11T20:54:33Z</time>
      </trkpt>
      <trkpt lat="47.34916" lon="4.07779">
        <ele>512.52</ele>
        <time>2021-08-11T20:54:38Z</time>
      </trkpt>
      <trkpt lat="47.34913" lon="4.07778">
        <ele>512.52</ele>
        <time>2021-08-11T20:54:45Z</time>
      </trkpt>
      <trkpt lat="47.3491" lon="4.07773">
        <ele>512.52</ele>
        <time>2021-08-11T20:54:52Z</time>
      </trkpt>
      <trkpt lat="47.34909" lon="4.0777">
        <ele>512.52</ele>
        <time>2021-08-11T20:54:54Z</time>
      </trkpt>
      <trkpt lat="47.34908" lon="4.07767">
        <ele>512.52</ele>
        <time>2021-08-11T20:54:55Z</time>
      </trkpt>
      <trkpt lat="47.34907" lon="4.07765">
        <ele>512.52</ele>
        <time>2021-08-11T20:54:56Z</time>
      </trkpt>
      <trkpt lat="47.34898" lon="4.07747">
        <ele>512.52</ele>
        <time>2021-08-11T20:55:04Z</time>
      </trkpt>
      <trkpt lat="47.34896" lon="4.07743">
        <ele>513.96</ele>
        <time>2021-08-11T20:55:06Z</time>
      </trkpt>
      <trkpt lat="47.34884" lon="4.07727">
        <ele>513.96</ele>
        <time>2021-08-11T20:55:13Z</time>
      </trkpt>
      <trkpt lat="47.34871" lon="4.07707">
        <ele>514.44</ele>
        <time>2021-08-11T20:55:21Z</time>
      </trkpt>
      <trkpt lat="47.34855" lon="4.07683">
        <ele>514.44</ele>
        <time>2021-08-11T20:55:29Z</time>
      </trkpt>
      <trkpt lat="47.3484" lon="4.07661">
        <ele>514.44</ele>
        <time>2021-08-11T20:55:37Z</time>
      </trkpt>
      <trkpt lat="47.34823" lon="4.07649">
        <ele>514.44</ele>
        <time>2021-08-11T20:55:44Z</time>
      </trkpt>
      <trkpt lat="47.34802" lon="4.07642">
        <ele>514.44</ele>
        <time>2021-08-11T20:55:51Z</time>
      </trkpt>
      <trkpt lat="47.34774" lon="4.0763">
        <ele>514.44</ele>
        <time>2021-08-11T20:56:00Z</time>
      </trkpt>
      <trkpt lat="47.34752" lon="4.07626">
        <ele>514.44</ele>
        <time>2021-08-11T20:56:08Z</time>
      </trkpt>
      <trkpt lat="47.34721" lon="4.07634">
        <ele>514.92</ele>
        <time>2021-08-11T20:56:18Z</time>
      </trkpt>
      <trkpt lat="47.34686" lon="4.07642">
        <ele>514.44</ele>
        <time>2021-08-11T20:56:26Z</time>
      </trkpt>
      <trkpt lat="47.3464" lon="4.07647">
        <ele>514.44</ele>
        <time>2021-08-11T20:56:36Z</time>
      </trkpt>
      <trkpt lat="47.34605" lon="4.07643">
        <ele>514.44</ele>
        <time>2021-08-11T20:56:44Z</time>
      </trkpt>
      <trkpt lat="47.34568" lon="4.07629">
        <ele>514.44</ele>
        <time>2021-08-11T20:56:52Z</time>
      </trkpt>
      <trkpt lat="47.34526" lon="4.07616">
        <ele>514.44</ele>
        <time>2021-08-11T20:57:02Z</time>
      </trkpt>
      <trkpt lat="47.34493" lon="4.07613">
        <ele>515.4</ele>
        <time>2021-08-11T20:57:11Z</time>
      </trkpt>
      <trkpt lat="47.34458" lon="4.07609">
        <ele>515.88</ele>
        <time>2021-08-11T20:57:20Z</time>
      </trkpt>
      <trkpt lat="47.34426" lon="4.07614">
        <ele>515.4</ele>
        <time>2021-08-11T20:57:28Z</time>
      </trkpt>
      <trkpt lat="47.34422" lon="4.07615">
        <ele>515.4</ele>
        <time>2021-08-11T20:57:29Z</time>
      </trkpt>
      <trkpt lat="47.34418" lon="4.07616">
        <ele>515.4</ele>
        <time>2021-08-11T20:57:30Z</time>
      </trkpt>
      <trkpt lat="47.34413" lon="4.07619">
        <ele>515.4</ele>
        <time>2021-08-11T20:57:31Z</time>
      </trkpt>
      <trkpt lat="47.34409" lon="4.07622">
        <ele>515.4</ele>
        <time>2021-08-11T20:57:32Z</time>
      </trkpt>
      <trkpt lat="47.34406" lon="4.07625">
        <ele>515.4</ele>
        <time>2021-08-11T20:57:33Z</time>
      </trkpt>
      <trkpt lat="47.34401" lon="4.07628">
        <ele>515.4</ele>
        <time>2021-08-11T20:57:34Z</time>
      </trkpt>
      <trkpt lat="47.3437" lon="4.07659">
        <ele>515.4</ele>
        <time>2021-08-11T20:57:43Z</time>
      </trkpt>
      <trkpt lat="47.34336" lon="4.07679">
        <ele>515.88</ele>
        <time>2021-08-11T20:57:52Z</time>
      </trkpt>
      <trkpt lat="47.34301" lon="4.07693">
        <ele>515.88</ele>
        <time>2021-08-11T20:58:00Z</time>
      </trkpt>
      <trkpt lat="47.34252" lon="4.0771">
        <ele>515.88</ele>
        <time>2021-08-11T20:58:11Z</time>
      </trkpt>
      <trkpt lat="47.34211" lon="4.07732">
        <ele>516.37</ele>
        <time>2021-08-11T20:58:21Z</time>
      </trkpt>
      <trkpt lat="47.34197" lon="4.07741">
        <ele>516.85</ele>
        <time>2021-08-11T20:58:28Z</time>
      </trkpt>
      <trkpt lat="47.34182" lon="4.07758">
        <ele>515.88</ele>
        <time>2021-08-11T20:58:33Z</time>
      </trkpt>
      <trkpt lat="47.34159" lon="4.07788">
        <ele>515.88</ele>
        <time>2021-08-11T20:58:39Z</time>
      </trkpt>
      <trkpt lat="47.34155" lon="4.07793">
        <ele>515.88</ele>
        <time>2021-08-11T20:58:40Z</time>
      </trkpt>
      <trkpt lat="47.34132" lon="4.07818">
        <ele>515.88</ele>
        <time>2021-08-11T20:58:47Z</time>
      </trkpt>
      <trkpt lat="47.34117" lon="4.07833">
        <ele>515.4</ele>
        <time>2021-08-11T20:58:53Z</time>
      </trkpt>
      <trkpt lat="47.34109" lon="4.07843">
        <ele>515.4</ele>
        <time>2021-08-11T20:58:58Z</time>
      </trkpt>
      <trkpt lat="47.34107" lon="4.07844">
        <ele>515.88</ele>
        <time>2021-08-11T20:58:59Z</time>
      </trkpt>
      <trkpt lat="47.34106" lon="4.07846">
        <ele>515.4</ele>
        <time>2021-08-11T20:59:00Z</time>
      </trkpt>
      <trkpt lat="47.34104" lon="4.07847">
        <ele>515.4</ele>
        <time>2021-08-11T20:59:01Z</time>
      </trkpt>
      <trkpt lat="47.34103" lon="4.07845">
        <ele>515.4</ele>
        <time>2021-08-11T20:59:06Z</time>
      </trkpt>
      <trkpt lat="47.34102" lon="4.07844">
        <ele>514.92</ele>
        <time>2021-08-11T20:59:07Z</time>
      </trkpt>
      <trkpt lat="47.341" lon="4.07845">
        <ele>514.44</ele>
        <time>2021-08-11T20:59:11Z</time>
      </trkpt>
      <trkpt lat="47.34098" lon="4.07848">
        <ele>513.48</ele>
        <time>2021-08-11T20:59:18Z</time>
      </trkpt>
      <trkpt lat="47.34093" lon="4.07849">
        <ele>513</ele>
        <time>2021-08-11T20:59:24Z</time>
      </trkpt>
      <trkpt lat="47.34091" lon="4.0785">
        <ele>512.52</ele>
        <time>2021-08-11T20:59:31Z</time>
      </trkpt>
      <trkpt lat="47.34086" lon="4.07851">
        <ele>512.52</ele>
        <time>2021-08-11T20:59:38Z</time>
      </trkpt>
      <trkpt lat="47.34085" lon="4.07851">
        <ele>512.52</ele>
        <time>2021-08-11T20:59:45Z</time>
      </trkpt>
      <trkpt lat="47.34083" lon="4.07851">
        <ele>512.52</ele>
        <time>2021-08-11T20:59:49Z</time>
      </trkpt>
      <trkpt lat="47.34079" lon="4.07853">
        <ele>513.48</ele>
        <time>2021-08-11T20:59:55Z</time>
      </trkpt>
      <trkpt lat="47.34072" lon="4.07857">
        <ele>513.96</ele>
        <time>2021-08-11T21:00:03Z</time>
      </trkpt>
      <trkpt lat="47.34066" lon="4.07859">
        <ele>513.96</ele>
        <time>2021-08-11T21:00:09Z</time>
      </trkpt>
      <trkpt lat="47.34064" lon="4.0786">
        <ele>513.96</ele>
        <time>2021-08-11T21:00:16Z</time>
      </trkpt>
      <trkpt lat="47.34051" lon="4.07864">
        <ele>513.96</ele>
        <time>2021-08-11T21:00:22Z</time>
      </trkpt>
      <trkpt lat="47.3403" lon="4.07869">
        <ele>514.44</ele>
        <time>2021-08-11T21:00:31Z</time>
      </trkpt>
      <trkpt lat="47.34015" lon="4.07873">
        <ele>514.44</ele>
        <time>2021-08-11T21:00:37Z</time>
      </trkpt>
      <trkpt lat="47.34" lon="4.07876">
        <ele>514.44</ele>
        <time>2021-08-11T21:00:43Z</time>
      </trkpt>
      <trkpt lat="47.33985" lon="4.0788">
        <ele>514.44</ele>
        <time>2021-08-11T21:00:50Z</time>
      </trkpt>
      <trkpt lat="47.33971" lon="4.07886">
        <ele>514.44</ele>
        <time>2021-08-11T21:00:57Z</time>
      </trkpt>
      <trkpt lat="47.33957" lon="4.0789">
        <ele>514.44</ele>
        <time>2021-08-11T21:01:04Z</time>
      </trkpt>
      <trkpt lat="47.33946" lon="4.07893">
        <ele>514.44</ele>
        <time>2021-08-11T21:01:10Z</time>
      </trkpt>
      <trkpt lat="47.33931" lon="4.07894">
        <ele>514.44</ele>
        <time>2021-08-11T21:01:17Z</time>
      </trkpt>
      <trkpt lat="47.33929" lon="4.07893">
        <ele>514.44</ele>
        <time>2021-08-11T21:01:18Z</time>
      </trkpt>
      <trkpt lat="47.33928" lon="4.07892">
        <ele>514.44</ele>
        <time>2021-08-11T21:01:19Z</time>
      </trkpt>
      <trkpt lat="47.33926" lon="4.07892">
        <ele>514.44</ele>
        <time>2021-08-11T21:01:20Z</time>
      </trkpt>
      <trkpt lat="47.33923" lon="4.07891">
        <ele>514.44</ele>
        <time>2021-08-11T21:01:21Z</time>
      </trkpt>
      <trkpt lat="47.33921" lon="4.07891">
        <ele>514.44</ele>
        <time>2021-08-11T21:01:22Z</time>
      </trkpt>
      <trkpt lat="47.33918" lon="4.07891">
        <ele>514.44</ele>
        <time>2021-08-11T21:01:23Z</time>
      </trkpt>
      <trkpt lat="47.33916" lon="4.0789">
        <ele>514.44</ele>
        <time>2021-08-11T21:01:24Z</time>
      </trkpt>
      <trkpt lat="47.33914" lon="4.07889">
        <ele>514.44</ele>
        <time>2021-08-11T21:01:25Z</time>
      </trkpt>
      <trkpt lat="47.33911" lon="4.07889">
        <ele>514.44</ele>
        <time>2021-08-11T21:01:26Z</time>
      </trkpt>
      <trkpt lat="47.33909" lon="4.07888">
        <ele>514.44</ele>
        <time>2021-08-11T21:01:27Z</time>
      </trkpt>
      <trkpt lat="47.33889" lon="4.07885">
        <ele>514.44</ele>
        <time>2021-08-11T21:01:34Z</time>
      </trkpt>
      <trkpt lat="47.33878" lon="4.07883">
        <ele>514.92</ele>
        <time>2021-08-11T21:01:40Z</time>
      </trkpt>
      <trkpt lat="47.33862" lon="4.0788">
        <ele>514.92</ele>
        <time>2021-08-11T21:01:47Z</time>
      </trkpt>
      <trkpt lat="47.3385" lon="4.07878">
        <ele>514.92</ele>
        <time>2021-08-11T21:01:54Z</time>
      </trkpt>
      <trkpt lat="47.33844" lon="4.07878">
        <ele>514.92</ele>
        <time>2021-08-11T21:02:01Z</time>
      </trkpt>
      <trkpt lat="47.33839" lon="4.07876">
        <ele>514.92</ele>
        <time>2021-08-11T21:02:14Z</time>
      </trkpt>
      <trkpt lat="47.33834" lon="4.07874">
        <ele>514.92</ele>
        <time>2021-08-11T21:02:24Z</time>
      </trkpt>
      <trkpt lat="47.33829" lon="4.07874">
        <ele>514.92</ele>
        <time>2021-08-11T21:02:27Z</time>
      </trkpt>
      <trkpt lat="47.33827" lon="4.07873">
        <ele>514.92</ele>
        <time>2021-08-11T21:02:30Z</time>
      </trkpt>
      <trkpt lat="47.33825" lon="4.07873">
        <ele>514.92</ele>
        <time>2021-08-11T21:02:31Z</time>
      </trkpt>
      <trkpt lat="47.33823" lon="4.07873">
        <ele>514.92</ele>
        <time>2021-08-11T21:02:32Z</time>
      </trkpt>
      <trkpt lat="47.33808" lon="4.07868">
        <ele>514.92</ele>
        <time>2021-08-11T21:02:40Z</time>
      </trkpt>
      <trkpt lat="47.33799" lon="4.07866">
        <ele>514.92</ele>
        <time>2021-08-11T21:02:46Z</time>
      </trkpt>
      <trkpt lat="47.3379" lon="4.07865">
        <ele>516.85</ele>
        <time>2021-08-11T21:02:54Z</time>
      </trkpt>
      <trkpt lat="47.33786" lon="4.07862">
        <ele>517.81</ele>
        <time>2021-08-11T21:03:01Z</time>
      </trkpt>
      <trkpt lat="47.33783" lon="4.07861">
        <ele>517.81</ele>
        <time>2021-08-11T21:03:09Z</time>
      </trkpt>
      <trkpt lat="47.3377" lon="4.07864">
        <ele>518.29</ele>
        <time>2021-08-11T21:03:16Z</time>
      </trkpt>
      <trkpt lat="47.33756" lon="4.07865">
        <ele>519.73</ele>
        <time>2021-08-11T21:03:24Z</time>
      </trkpt>
      <trkpt lat="47.33754" lon="4.07865">
        <ele>520.21</ele>
        <time>2021-08-11T21:03:25Z</time>
      </trkpt>
      <trkpt lat="47.33753" lon="4.07865">
        <ele>520.21</ele>
        <time>2021-08-11T21:03:26Z</time>
      </trkpt>
      <trkpt lat="47.33751" lon="4.07865">
        <ele>520.21</ele>
        <time>2021-08-11T21:03:27Z</time>
      </trkpt>
      <trkpt lat="47.3375" lon="4.07864">
        <ele>520.21</ele>
        <time>2021-08-11T21:03:28Z</time>
      </trkpt>
      <trkpt lat="47.33748" lon="4.07864">
        <ele>520.21</ele>
        <time>2021-08-11T21:03:29Z</time>
      </trkpt>
      <trkpt lat="47.33733" lon="4.07859">
        <ele>521.65</ele>
        <time>2021-08-11T21:03:38Z</time>
      </trkpt>
      <trkpt lat="47.33717" lon="4.07852">
        <ele>522.61</ele>
        <time>2021-08-11T21:03:47Z</time>
      </trkpt>
      <trkpt lat="47.33704" lon="4.07848">
        <ele>524.06</ele>
        <time>2021-08-11T21:03:55Z</time>
      </trkpt>
      <trkpt lat="47.33692" lon="4.07844">
        <ele>524.54</ele>
        <time>2021-08-11T21:04:02Z</time>
      </trkpt>
      <trkpt lat="47.33681" lon="4.07844">
        <ele>525.5</ele>
        <time>2021-08-11T21:04:11Z</time>
      </trkpt>
      <trkpt lat="47.33681" lon="4.07843">
        <ele>525.5</ele>
        <time>2021-08-11T21:04:12Z</time>
      </trkpt>
      <trkpt lat="47.33682" lon="4.07843">
        <ele>525.5</ele>
        <time>2021-08-11T21:04:13Z</time>
      </trkpt>
      <trkpt lat="47.33683" lon="4.07843">
        <ele>525.5</ele>
        <time>2021-08-11T21:04:14Z</time>
      </trkpt>
      <trkpt lat="47.33684" lon="4.07843">
        <ele>525.5</ele>
        <time>2021-08-11T21:04:15Z</time>
      </trkpt>
      <trkpt lat="47.33685" lon="4.07843">
        <ele>525.5</ele>
        <time>2021-08-11T21:04:16Z</time>
      </trkpt>
      <trkpt lat="47.3369" lon="4.07844">
        <ele>525.5</ele>
        <time>2021-08-11T21:04:19Z</time>
      </trkpt>
      <trkpt lat="47.33689" lon="4.07843">
        <ele>525.5</ele>
        <time>2021-08-11T21:04:21Z</time>
      </trkpt>
      <trkpt lat="47.33688" lon="4.07843">
        <ele>525.5</ele>
        <time>2021-08-11T21:04:22Z</time>
      </trkpt>
      <trkpt lat="47.33686" lon="4.07843">
        <ele>525.5</ele>
        <time>2021-08-11T21:04:23Z</time>
      </trkpt>
      <trkpt lat="47.33685" lon="4.07843">
        <ele>525.5</ele>
        <time>2021-08-11T21:04:24Z</time>
      </trkpt>
      <trkpt lat="47.33683" lon="4.07843">
        <ele>525.5</ele>
        <time>2021-08-11T21:04:25Z</time>
      </trkpt>
      <trkpt lat="47.33682" lon="4.07843">
        <ele>525.5</ele>
        <time>2021-08-11T21:04:26Z</time>
      </trkpt>
      <trkpt lat="47.3368" lon="4.07843">
        <ele>525.5</ele>
        <time>2021-08-11T21:04:27Z</time>
      </trkpt>
      <trkpt lat="47.33679" lon="4.07842">
        <ele>525.5</ele>
        <time>2021-08-11T21:04:28Z</time>
      </trkpt>
      <trkpt lat="47.33678" lon="4.07842">
        <ele>525.5</ele>
        <time>2021-08-11T21:04:29Z</time>
      </trkpt>
      <trkpt lat="47.33677" lon="4.07842">
        <ele>525.5</ele>
        <time>2021-08-11T21:04:30Z</time>
      </trkpt>
      <trkpt lat="47.33675" lon="4.07842">
        <ele>525.98</ele>
        <time>2021-08-11T21:04:31Z</time>
      </trkpt>
      <trkpt lat="47.33674" lon="4.07842">
        <ele>525.98</ele>
        <time>2021-08-11T21:04:32Z</time>
      </trkpt>
      <trkpt lat="47.33663" lon="4.07842">
        <ele>526.46</ele>
        <time>2021-08-11T21:04:40Z</time>
      </trkpt>
      <trkpt lat="47.33647" lon="4.07838">
        <ele>528.38</ele>
        <time>2021-08-11T21:04:50Z</time>
      </trkpt>
      <trkpt lat="47.33646" lon="4.07838">
        <ele>528.38</ele>
        <time>2021-08-11T21:04:51Z</time>
      </trkpt>
      <trkpt lat="47.33644" lon="4.07837">
        <ele>528.38</ele>
        <time>2021-08-11T21:04:52Z</time>
      </trkpt>
      <trkpt lat="47.33643" lon="4.07837">
        <ele>528.38</ele>
        <time>2021-08-11T21:04:53Z</time>
      </trkpt>
      <trkpt lat="47.33641" lon="4.07838">
        <ele>528.38</ele>
        <time>2021-08-11T21:04:54Z</time>
      </trkpt>
      <trkpt lat="47.3364" lon="4.07839">
        <ele>528.38</ele>
        <time>2021-08-11T21:04:55Z</time>
      </trkpt>
      <trkpt lat="47.33639" lon="4.0784">
        <ele>528.86</ele>
        <time>2021-08-11T21:04:56Z</time>
      </trkpt>
      <trkpt lat="47.33634" lon="4.07846">
        <ele>528.38</ele>
        <time>2021-08-11T21:05:02Z</time>
      </trkpt>
      <trkpt lat="47.33633" lon="4.07847">
        <ele>528.86</ele>
        <time>2021-08-11T21:05:11Z</time>
      </trkpt>
      <trkpt lat="47.33633" lon="4.07845">
        <ele>528.86</ele>
        <time>2021-08-11T21:05:19Z</time>
      </trkpt>
      <trkpt lat="47.33634" lon="4.07842">
        <ele>528.86</ele>
        <time>2021-08-11T21:05:35Z</time>
      </trkpt>
      <trkpt lat="47.33634" lon="4.07843">
        <ele>528.86</ele>
        <time>2021-08-11T21:05:58Z</time>
      </trkpt>
      <trkpt lat="47.33634" lon="4.07847">
        <ele>528.86</ele>
        <time>2021-08-11T21:06:14Z</time>
      </trkpt>
      <trkpt lat="47.3363" lon="4.07848">
        <ele>528.86</ele>
        <time>2021-08-11T21:06:30Z</time>
      </trkpt>
      <trkpt lat="47.33618" lon="4.07842">
        <ele>528.86</ele>
        <time>2021-08-11T21:06:36Z</time>
      </trkpt>
      <trkpt lat="47.33606" lon="4.07843">
        <ele>528.86</ele>
        <time>2021-08-11T21:06:42Z</time>
      </trkpt>
      <trkpt lat="47.33593" lon="4.07856">
        <ele>527.42</ele>
        <time>2021-08-11T21:06:49Z</time>
      </trkpt>
      <trkpt lat="47.33592" lon="4.07857">
        <ele>527.42</ele>
        <time>2021-08-11T21:06:50Z</time>
      </trkpt>
      <trkpt lat="47.33586" lon="4.07872">
        <ele>526.46</ele>
        <time>2021-08-11T21:06:56Z</time>
      </trkpt>
      <trkpt lat="47.33578" lon="4.07886">
        <ele>526.46</ele>
        <time>2021-08-11T21:07:01Z</time>
      </trkpt>
      <trkpt lat="47.33565" lon="4.07915">
        <ele>525.98</ele>
        <time>2021-08-11T21:07:08Z</time>
      </trkpt>
      <trkpt lat="47.33553" lon="4.0794">
        <ele>525.98</ele>
        <time>2021-08-11T21:07:16Z</time>
      </trkpt>
      <trkpt lat="47.33542" lon="4.07975">
        <ele>526.46</ele>
        <time>2021-08-11T21:07:25Z</time>
      </trkpt>
      <trkpt lat="47.3353" lon="4.08001">
        <ele>525.98</ele>
        <time>2021-08-11T21:07:32Z</time>
      </trkpt>
      <trkpt lat="47.33521" lon="4.08019">
        <ele>525.98</ele>
        <time>2021-08-11T21:07:38Z</time>
      </trkpt>
      <trkpt lat="47.33521" lon="4.08022">
        <ele>525.98</ele>
        <time>2021-08-11T21:07:39Z</time>
      </trkpt>
      <trkpt lat="47.33522" lon="4.08026">
        <ele>525.98</ele>
        <time>2021-08-11T21:07:41Z</time>
      </trkpt>
      <trkpt lat="47.33522" lon="4.08028">
        <ele>526.46</ele>
        <time>2021-08-11T21:07:46Z</time>
      </trkpt>
      <trkpt lat="47.33524" lon="4.08029">
        <ele>527.42</ele>
        <time>2021-08-11T21:07:49Z</time>
      </trkpt>
      <trkpt lat="47.33525" lon="4.08035">
        <ele>527.9</ele>
        <time>2021-08-11T21:07:56Z</time>
      </trkpt>
      <trkpt lat="47.33523" lon="4.08038">
        <ele>527.9</ele>
        <time>2021-08-11T21:07:59Z</time>
      </trkpt>
      <trkpt lat="47.33522" lon="4.08041">
        <ele>527.9</ele>
        <time>2021-08-11T21:08:01Z</time>
      </trkpt>
      <trkpt lat="47.33521" lon="4.08042">
        <ele>527.9</ele>
        <time>2021-08-11T21:08:02Z</time>
      </trkpt>
      <trkpt lat="47.3352" lon="4.08044">
        <ele>527.9</ele>
        <time>2021-08-11T21:08:03Z</time>
      </trkpt>
      <trkpt lat="47.33514" lon="4.08056">
        <ele>527.9</ele>
        <time>2021-08-11T21:08:10Z</time>
      </trkpt>
      <trkpt lat="47.33511" lon="4.08059">
        <ele>527.9</ele>
        <time>2021-08-11T21:08:21Z</time>
      </trkpt>
      <trkpt lat="47.3351" lon="4.08058">
        <ele>527.9</ele>
        <time>2021-08-11T21:08:30Z</time>
      </trkpt>
      <trkpt lat="47.33509" lon="4.08059">
        <ele>528.38</ele>
        <time>2021-08-11T21:08:38Z</time>
      </trkpt>
      <trkpt lat="47.3351" lon="4.08062">
        <ele>528.38</ele>
        <time>2021-08-11T21:08:47Z</time>
      </trkpt>
      <trkpt lat="47.3351" lon="4.08065">
        <ele>528.86</ele>
        <time>2021-08-11T21:08:49Z</time>
      </trkpt>
      <trkpt lat="47.3351" lon="4.08066">
        <ele>528.86</ele>
        <time>2021-08-11T21:08:50Z</time>
      </trkpt>
      <trkpt lat="47.33509" lon="4.08074">
        <ele>529.82</ele>
        <time>2021-08-11T21:08:56Z</time>
      </trkpt>
      <trkpt lat="47.33507" lon="4.08076">
        <ele>529.82</ele>
        <time>2021-08-11T21:08:59Z</time>
      </trkpt>
      <trkpt lat="47.33503" lon="4.08075">
        <ele>530.79</ele>
        <time>2021-08-11T21:09:05Z</time>
      </trkpt>
      <trkpt lat="47.33502" lon="4.08075">
        <ele>530.79</ele>
        <time>2021-08-11T21:09:06Z</time>
      </trkpt>
      <trkpt lat="47.33489" lon="4.08072">
        <ele>530.79</ele>
        <time>2021-08-11T21:09:13Z</time>
      </trkpt>
      <trkpt lat="47.3347" lon="4.08076">
        <ele>530.79</ele>
        <time>2021-08-11T21:09:20Z</time>
      </trkpt>
      <trkpt lat="47.33461" lon="4.08089">
        <ele>530.79</ele>
        <time>2021-08-11T21:09:26Z</time>
      </trkpt>
      <trkpt lat="47.3345" lon="4.08103">
        <ele>531.27</ele>
        <time>2021-08-11T21:09:32Z</time>
      </trkpt>
      <trkpt lat="47.33433" lon="4.08123">
        <ele>531.27</ele>
        <time>2021-08-11T21:09:38Z</time>
      </trkpt>
      <trkpt lat="47.3343" lon="4.08128">
        <ele>531.27</ele>
        <time>2021-08-11T21:09:39Z</time>
      </trkpt>
      <trkpt lat="47.33429" lon="4.08133">
        <ele>529.82</ele>
        <time>2021-08-11T21:09:40Z</time>
      </trkpt>
      <trkpt lat="47.33425" lon="4.0816">
        <ele>529.82</ele>
        <time>2021-08-11T21:09:46Z</time>
      </trkpt>
      <trkpt lat="47.3342" lon="4.08185">
        <ele>529.82</ele>
        <time>2021-08-11T21:09:53Z</time>
      </trkpt>
      <trkpt lat="47.33416" lon="4.08206">
        <ele>529.82</ele>
        <time>2021-08-11T21:09:59Z</time>
      </trkpt>
      <trkpt lat="47.33415" lon="4.0821">
        <ele>529.82</ele>
        <time>2021-08-11T21:10:00Z</time>
      </trkpt>
      <trkpt lat="47.33414" lon="4.08213">
        <ele>529.82</ele>
        <time>2021-08-11T21:10:01Z</time>
      </trkpt>
      <trkpt lat="47.33413" lon="4.08218">
        <ele>529.82</ele>
        <time>2021-08-11T21:10:02Z</time>
      </trkpt>
      <trkpt lat="47.33413" lon="4.08222">
        <ele>529.82</ele>
        <time>2021-08-11T21:10:03Z</time>
      </trkpt>
      <trkpt lat="47.33412" lon="4.08246">
        <ele>529.82</ele>
        <time>2021-08-11T21:10:10Z</time>
      </trkpt>
      <trkpt lat="47.33411" lon="4.08261">
        <ele>529.82</ele>
        <time>2021-08-11T21:10:15Z</time>
      </trkpt>
      <trkpt lat="47.33411" lon="4.08265">
        <ele>529.82</ele>
        <time>2021-08-11T21:10:16Z</time>
      </trkpt>
      <trkpt lat="47.33407" lon="4.08284">
        <ele>529.82</ele>
        <time>2021-08-11T21:10:22Z</time>
      </trkpt>
      <trkpt lat="47.33399" lon="4.08311">
        <ele>529.82</ele>
        <time>2021-08-11T21:10:29Z</time>
      </trkpt>
      <trkpt lat="47.3339" lon="4.08333">
        <ele>529.82</ele>
        <time>2021-08-11T21:10:35Z</time>
      </trkpt>
      <trkpt lat="47.33384" lon="4.08349">
        <ele>529.82</ele>
        <time>2021-08-11T21:10:39Z</time>
      </trkpt>
      <trkpt lat="47.33382" lon="4.08352">
        <ele>529.82</ele>
        <time>2021-08-11T21:10:40Z</time>
      </trkpt>
      <trkpt lat="47.3338" lon="4.08355">
        <ele>531.27</ele>
        <time>2021-08-11T21:10:41Z</time>
      </trkpt>
      <trkpt lat="47.33379" lon="4.08359">
        <ele>531.27</ele>
        <time>2021-08-11T21:10:42Z</time>
      </trkpt>
      <trkpt lat="47.33377" lon="4.08362">
        <ele>531.27</ele>
        <time>2021-08-11T21:10:43Z</time>
      </trkpt>
      <trkpt lat="47.33375" lon="4.08365">
        <ele>531.27</ele>
        <time>2021-08-11T21:10:44Z</time>
      </trkpt>
      <trkpt lat="47.33374" lon="4.08367">
        <ele>531.27</ele>
        <time>2021-08-11T21:10:45Z</time>
      </trkpt>
      <trkpt lat="47.33372" lon="4.08371">
        <ele>531.27</ele>
        <time>2021-08-11T21:10:46Z</time>
      </trkpt>
      <trkpt lat="47.3337" lon="4.08374">
        <ele>531.27</ele>
        <time>2021-08-11T21:10:47Z</time>
      </trkpt>
      <trkpt lat="47.33361" lon="4.08389">
        <ele>531.27</ele>
        <time>2021-08-11T21:10:54Z</time>
      </trkpt>
      <trkpt lat="47.33354" lon="4.08411">
        <ele>531.27</ele>
        <time>2021-08-11T21:11:00Z</time>
      </trkpt>
      <trkpt lat="47.33345" lon="4.08433">
        <ele>531.27</ele>
        <time>2021-08-11T21:11:06Z</time>
      </trkpt>
      <trkpt lat="47.3334" lon="4.08453">
        <ele>531.27</ele>
        <time>2021-08-11T21:11:11Z</time>
      </trkpt>
      <trkpt lat="47.33334" lon="4.08483">
        <ele>531.27</ele>
        <time>2021-08-11T21:11:18Z</time>
      </trkpt>
      <trkpt lat="47.33328" lon="4.08518">
        <ele>531.27</ele>
        <time>2021-08-11T21:11:25Z</time>
      </trkpt>
      <trkpt lat="47.3333" lon="4.08543">
        <ele>531.27</ele>
        <time>2021-08-11T21:11:31Z</time>
      </trkpt>
      <trkpt lat="47.33331" lon="4.08576">
        <ele>531.27</ele>
        <time>2021-08-11T21:11:39Z</time>
      </trkpt>
      <trkpt lat="47.33338" lon="4.08619">
        <ele>531.27</ele>
        <time>2021-08-11T21:11:47Z</time>
      </trkpt>
      <trkpt lat="47.33348" lon="4.08648">
        <ele>531.27</ele>
        <time>2021-08-11T21:11:53Z</time>
      </trkpt>
      <trkpt lat="47.3336" lon="4.08674">
        <ele>531.27</ele>
        <time>2021-08-11T21:12:00Z</time>
      </trkpt>
      <trkpt lat="47.33369" lon="4.08689">
        <ele>531.27</ele>
        <time>2021-08-11T21:12:06Z</time>
      </trkpt>
      <trkpt lat="47.33371" lon="4.08691">
        <ele>531.27</ele>
        <time>2021-08-11T21:12:07Z</time>
      </trkpt>
      <trkpt lat="47.33372" lon="4.08694">
        <ele>531.27</ele>
        <time>2021-08-11T21:12:08Z</time>
      </trkpt>
      <trkpt lat="47.33373" lon="4.08697">
        <ele>531.27</ele>
        <time>2021-08-11T21:12:09Z</time>
      </trkpt>
      <trkpt lat="47.33375" lon="4.08699">
        <ele>531.27</ele>
        <time>2021-08-11T21:12:10Z</time>
      </trkpt>
      <trkpt lat="47.33377" lon="4.08701">
        <ele>531.27</ele>
        <time>2021-08-11T21:12:11Z</time>
      </trkpt>
      <trkpt lat="47.33379" lon="4.08703">
        <ele>531.27</ele>
        <time>2021-08-11T21:12:12Z</time>
      </trkpt>
      <trkpt lat="47.33381" lon="4.08705">
        <ele>531.27</ele>
        <time>2021-08-11T21:12:13Z</time>
      </trkpt>
      <trkpt lat="47.33396" lon="4.08722">
        <ele>531.75</ele>
        <time>2021-08-11T21:12:20Z</time>
      </trkpt>
      <trkpt lat="47.33413" lon="4.08743">
        <ele>531.75</ele>
        <time>2021-08-11T21:12:27Z</time>
      </trkpt>
      <trkpt lat="47.33426" lon="4.08758">
        <ele>531.75</ele>
        <time>2021-08-11T21:12:33Z</time>
      </trkpt>
      <trkpt lat="47.33438" lon="4.08769">
        <ele>531.75</ele>
        <time>2021-08-11T21:12:41Z</time>
      </trkpt>
      <trkpt lat="47.33445" lon="4.08777">
        <ele>531.75</ele>
        <time>2021-08-11T21:12:48Z</time>
      </trkpt>
      <trkpt lat="47.3347" lon="4.08801">
        <ele>532.71</ele>
        <time>2021-08-11T21:12:54Z</time>
      </trkpt>
      <trkpt lat="47.33472" lon="4.08805">
        <ele>532.71</ele>
        <time>2021-08-11T21:12:55Z</time>
      </trkpt>
      <trkpt lat="47.33473" lon="4.08809">
        <ele>532.71</ele>
        <time>2021-08-11T21:12:56Z</time>
      </trkpt>
      <trkpt lat="47.33474" lon="4.08814">
        <ele>532.71</ele>
        <time>2021-08-11T21:12:57Z</time>
      </trkpt>
      <trkpt lat="47.33475" lon="4.08819">
        <ele>532.71</ele>
        <time>2021-08-11T21:12:58Z</time>
      </trkpt>
      <trkpt lat="47.33477" lon="4.08824">
        <ele>532.71</ele>
        <time>2021-08-11T21:12:59Z</time>
      </trkpt>
      <trkpt lat="47.33477" lon="4.08828">
        <ele>532.71</ele>
        <time>2021-08-11T21:13:00Z</time>
      </trkpt>
      <trkpt lat="47.33477" lon="4.08833">
        <ele>532.71</ele>
        <time>2021-08-11T21:13:01Z</time>
      </trkpt>
      <trkpt lat="47.33477" lon="4.08837">
        <ele>532.71</ele>
        <time>2021-08-11T21:13:02Z</time>
      </trkpt>
      <trkpt lat="47.33477" lon="4.08841">
        <ele>532.71</ele>
        <time>2021-08-11T21:13:03Z</time>
      </trkpt>
      <trkpt lat="47.33477" lon="4.08845">
        <ele>532.71</ele>
        <time>2021-08-11T21:13:04Z</time>
      </trkpt>
      <trkpt lat="47.33477" lon="4.08859">
        <ele>532.71</ele>
        <time>2021-08-11T21:13:09Z</time>
      </trkpt>
      <trkpt lat="47.33477" lon="4.08862">
        <ele>532.71</ele>
        <time>2021-08-11T21:13:10Z</time>
      </trkpt>
      <trkpt lat="47.33479" lon="4.0889">
        <ele>532.71</ele>
        <time>2021-08-11T21:13:18Z</time>
      </trkpt>
      <trkpt lat="47.33479" lon="4.08902">
        <ele>532.71</ele>
        <time>2021-08-11T21:13:22Z</time>
      </trkpt>
      <trkpt lat="47.33478" lon="4.08904">
        <ele>532.71</ele>
        <time>2021-08-11T21:13:23Z</time>
      </trkpt>
      <trkpt lat="47.33478" lon="4.08908">
        <ele>532.71</ele>
        <time>2021-08-11T21:13:24Z</time>
      </trkpt>
      <trkpt lat="47.33477" lon="4.0891">
        <ele>532.71</ele>
        <time>2021-08-11T21:13:25Z</time>
      </trkpt>
      <trkpt lat="47.33476" lon="4.08913">
        <ele>532.71</ele>
        <time>2021-08-11T21:13:26Z</time>
      </trkpt>
      <trkpt lat="47.33472" lon="4.08923">
        <ele>533.67</ele>
        <time>2021-08-11T21:13:33Z</time>
      </trkpt>
      <trkpt lat="47.33471" lon="4.08923">
        <ele>533.67</ele>
        <time>2021-08-11T21:13:50Z</time>
      </trkpt>
      <trkpt lat="47.33471" lon="4.08923">
        <ele>534.15</ele>
        <time>2021-08-11T21:14:07Z</time>
      </trkpt>
      <trkpt lat="47.33466" lon="4.08933">
        <ele>534.15</ele>
        <time>2021-08-11T21:14:21Z</time>
      </trkpt>
      <trkpt lat="47.33461" lon="4.08948">
        <ele>534.15</ele>
        <time>2021-08-11T21:14:27Z</time>
      </trkpt>
      <trkpt lat="47.33461" lon="4.08952">
        <ele>534.15</ele>
        <time>2021-08-11T21:14:28Z</time>
      </trkpt>
      <trkpt lat="47.3346" lon="4.08963">
        <ele>534.15</ele>
        <time>2021-08-11T21:14:33Z</time>
      </trkpt>
      <trkpt lat="47.3346" lon="4.08969">
        <ele>534.15</ele>
        <time>2021-08-11T21:14:35Z</time>
      </trkpt>
      <trkpt lat="47.33454" lon="4.09012">
        <ele>534.15</ele>
        <time>2021-08-11T21:14:43Z</time>
      </trkpt>
      <trkpt lat="47.3345" lon="4.09047">
        <ele>534.15</ele>
        <time>2021-08-11T21:14:50Z</time>
      </trkpt>
      <trkpt lat="47.33452" lon="4.09076">
        <ele>535.11</ele>
        <time>2021-08-11T21:14:57Z</time>
      </trkpt>
      <trkpt lat="47.33462" lon="4.09101">
        <ele>535.59</ele>
        <time>2021-08-11T21:15:04Z</time>
      </trkpt>
      <trkpt lat="47.33463" lon="4.09126">
        <ele>537.03</ele>
        <time>2021-08-11T21:15:11Z</time>
      </trkpt>
      <trkpt lat="47.33458" lon="4.09147">
        <ele>537.03</ele>
        <time>2021-08-11T21:15:16Z</time>
      </trkpt>
      <trkpt lat="47.33457" lon="4.09179">
        <ele>537.03</ele>
        <time>2021-08-11T21:15:24Z</time>
      </trkpt>
      <trkpt lat="47.33457" lon="4.09181">
        <ele>537.03</ele>
        <time>2021-08-11T21:15:25Z</time>
      </trkpt>
      <trkpt lat="47.33458" lon="4.09183">
        <ele>537.03</ele>
        <time>2021-08-11T21:15:26Z</time>
      </trkpt>
      <trkpt lat="47.33458" lon="4.09186">
        <ele>537.03</ele>
        <time>2021-08-11T21:15:27Z</time>
      </trkpt>
      <trkpt lat="47.33458" lon="4.09188">
        <ele>537.03</ele>
        <time>2021-08-11T21:15:28Z</time>
      </trkpt>
      <trkpt lat="47.33458" lon="4.0919">
        <ele>537.03</ele>
        <time>2021-08-11T21:15:29Z</time>
      </trkpt>
      <trkpt lat="47.33457" lon="4.09192">
        <ele>537.03</ele>
        <time>2021-08-11T21:15:30Z</time>
      </trkpt>
      <trkpt lat="47.33457" lon="4.09194">
        <ele>537.03</ele>
        <time>2021-08-11T21:15:31Z</time>
      </trkpt>
      <trkpt lat="47.33454" lon="4.09198">
        <ele>537.03</ele>
        <time>2021-08-11T21:15:39Z</time>
      </trkpt>
      <trkpt lat="47.33452" lon="4.09202">
        <ele>537.51</ele>
        <time>2021-08-11T21:15:48Z</time>
      </trkpt>
      <trkpt lat="47.33452" lon="4.09207">
        <ele>537.51</ele>
        <time>2021-08-11T21:15:55Z</time>
      </trkpt>
      <trkpt lat="47.33449" lon="4.09219">
        <ele>537.51</ele>
        <time>2021-08-11T21:16:03Z</time>
      </trkpt>
      <trkpt lat="47.33447" lon="4.09227">
        <ele>537.51</ele>
        <time>2021-08-11T21:16:08Z</time>
      </trkpt>
      <trkpt lat="47.33445" lon="4.09233">
        <ele>537.99</ele>
        <time>2021-08-11T21:16:16Z</time>
      </trkpt>
      <trkpt lat="47.33442" lon="4.09242">
        <ele>538.96</ele>
        <time>2021-08-11T21:16:23Z</time>
      </trkpt>
      <trkpt lat="47.33441" lon="4.09255">
        <ele>539.44</ele>
        <time>2021-08-11T21:16:30Z</time>
      </trkpt>
      <trkpt lat="47.33439" lon="4.09273">
        <ele>540.4</ele>
        <time>2021-08-11T21:16:37Z</time>
      </trkpt>
      <trkpt lat="47.33436" lon="4.09288">
        <ele>540.88</ele>
        <time>2021-08-11T21:16:41Z</time>
      </trkpt>
      <trkpt lat="47.33435" lon="4.09291">
        <ele>540.88</ele>
        <time>2021-08-11T21:16:42Z</time>
      </trkpt>
      <trkpt lat="47.33422" lon="4.09305">
        <ele>540.88</ele>
        <time>2021-08-11T21:16:48Z</time>
      </trkpt>
      <trkpt lat="47.33406" lon="4.09315">
        <ele>540.88</ele>
        <time>2021-08-11T21:16:55Z</time>
      </trkpt>
      <trkpt lat="47.33389" lon="4.09326">
        <ele>539.44</ele>
        <time>2021-08-11T21:17:03Z</time>
      </trkpt>
      <trkpt lat="47.3337" lon="4.09343">
        <ele>538.96</ele>
        <time>2021-08-11T21:17:10Z</time>
      </trkpt>
      <trkpt lat="47.3335" lon="4.09359">
        <ele>538.48</ele>
        <time>2021-08-11T21:17:16Z</time>
      </trkpt>
      <trkpt lat="47.33337" lon="4.0938">
        <ele>538.48</ele>
        <time>2021-08-11T21:17:22Z</time>
      </trkpt>
      <trkpt lat="47.33324" lon="4.09403">
        <ele>539.44</ele>
        <time>2021-08-11T21:17:28Z</time>
      </trkpt>
      <trkpt lat="47.33317" lon="4.09421">
        <ele>539.44</ele>
        <time>2021-08-11T21:17:32Z</time>
      </trkpt>
      <trkpt lat="47.33318" lon="4.09424">
        <ele>539.44</ele>
        <time>2021-08-11T21:17:33Z</time>
      </trkpt>
      <trkpt lat="47.33319" lon="4.09427">
        <ele>539.44</ele>
        <time>2021-08-11T21:17:34Z</time>
      </trkpt>
      <trkpt lat="47.3332" lon="4.09428">
        <ele>539.44</ele>
        <time>2021-08-11T21:17:35Z</time>
      </trkpt>
      <trkpt lat="47.33322" lon="4.0943">
        <ele>539.44</ele>
        <time>2021-08-11T21:17:36Z</time>
      </trkpt>
      <trkpt lat="47.33328" lon="4.09436">
        <ele>540.4</ele>
        <time>2021-08-11T21:17:41Z</time>
      </trkpt>
      <trkpt lat="47.3333" lon="4.09436">
        <ele>540.4</ele>
        <time>2021-08-11T21:17:42Z</time>
      </trkpt>
      <trkpt lat="47.33331" lon="4.09435">
        <ele>540.88</ele>
        <time>2021-08-11T21:17:43Z</time>
      </trkpt>
      <trkpt lat="47.33337" lon="4.09431">
        <ele>540.88</ele>
        <time>2021-08-11T21:17:46Z</time>
      </trkpt>
      <trkpt lat="47.33347" lon="4.0943">
        <ele>541.84</ele>
        <time>2021-08-11T21:17:51Z</time>
      </trkpt>
      <trkpt lat="47.33349" lon="4.09431">
        <ele>542.32</ele>
        <time>2021-08-11T21:17:52Z</time>
      </trkpt>
      <trkpt lat="47.33352" lon="4.09431">
        <ele>541.84</ele>
        <time>2021-08-11T21:17:53Z</time>
      </trkpt>
      <trkpt lat="47.33354" lon="4.09431">
        <ele>541.84</ele>
        <time>2021-08-11T21:17:54Z</time>
      </trkpt>
      <trkpt lat="47.33356" lon="4.09432">
        <ele>542.32</ele>
        <time>2021-08-11T21:17:55Z</time>
      </trkpt>
      <trkpt lat="47.33359" lon="4.09432">
        <ele>542.8</ele>
        <time>2021-08-11T21:17:56Z</time>
      </trkpt>
      <trkpt lat="47.33362" lon="4.09433">
        <ele>542.8</ele>
        <time>2021-08-11T21:17:57Z</time>
      </trkpt>
      <trkpt lat="47.33365" lon="4.09434">
        <ele>542.8</ele>
        <time>2021-08-11T21:17:58Z</time>
      </trkpt>
      <trkpt lat="47.33367" lon="4.09435">
        <ele>542.8</ele>
        <time>2021-08-11T21:17:59Z</time>
      </trkpt>
      <trkpt lat="47.33389" lon="4.09446">
        <ele>543.76</ele>
        <time>2021-08-11T21:18:08Z</time>
      </trkpt>
      <trkpt lat="47.33398" lon="4.0945">
        <ele>544.72</ele>
        <time>2021-08-11T21:18:13Z</time>
      </trkpt>
      <trkpt lat="47.33399" lon="4.0945">
        <ele>544.72</ele>
        <time>2021-08-11T21:18:14Z</time>
      </trkpt>
      <trkpt lat="47.33401" lon="4.09451">
        <ele>544.72</ele>
        <time>2021-08-11T21:18:15Z</time>
      </trkpt>
      <trkpt lat="47.33403" lon="4.09451">
        <ele>544.72</ele>
        <time>2021-08-11T21:18:16Z</time>
      </trkpt>
      <trkpt lat="47.33404" lon="4.09452">
        <ele>544.72</ele>
        <time>2021-08-11T21:18:17Z</time>
      </trkpt>
      <trkpt lat="47.33406" lon="4.09452">
        <ele>544.72</ele>
        <time>2021-08-11T21:18:18Z</time>
      </trkpt>
      <trkpt lat="47.33407" lon="4.09452">
        <ele>544.72</ele>
        <time>2021-08-11T21:18:19Z</time>
      </trkpt>
      <trkpt lat="47.33412" lon="4.09456">
        <ele>545.2</ele>
        <time>2021-08-11T21:18:24Z</time>
      </trkpt>
      <trkpt lat="47.33407" lon="4.09465">
        <ele>545.2</ele>
        <time>2021-08-11T21:18:29Z</time>
      </trkpt>
      <trkpt lat="47.33406" lon="4.0948">
        <ele>545.2</ele>
        <time>2021-08-11T21:18:34Z</time>
      </trkpt>
      <trkpt lat="47.33411" lon="4.09507">
        <ele>546.17</ele>
        <time>2021-08-11T21:18:43Z</time>
      </trkpt>
      <trkpt lat="47.3342" lon="4.09528">
        <ele>547.13</ele>
        <time>2021-08-11T21:18:51Z</time>
      </trkpt>
      <trkpt lat="47.33427" lon="4.09546">
        <ele>548.09</ele>
        <time>2021-08-11T21:18:58Z</time>
      </trkpt>
      <trkpt lat="47.33422" lon="4.09563">
        <ele>549.05</ele>
        <time>2021-08-11T21:19:04Z</time>
      </trkpt>
      <trkpt lat="47.33424" lon="4.09588">
        <ele>549.05</ele>
        <time>2021-08-11T21:19:12Z</time>
      </trkpt>
      <trkpt lat="47.33423" lon="4.09607">
        <ele>550.01</ele>
        <time>2021-08-11T21:19:18Z</time>
      </trkpt>
      <trkpt lat="47.33424" lon="4.09615">
        <ele>550.01</ele>
        <time>2021-08-11T21:19:21Z</time>
      </trkpt>
      <trkpt lat="47.33426" lon="4.09634">
        <ele>550.49</ele>
        <time>2021-08-11T21:19:28Z</time>
      </trkpt>
      <trkpt lat="47.33426" lon="4.09636">
        <ele>550.49</ele>
        <time>2021-08-11T21:19:29Z</time>
      </trkpt>
      <trkpt lat="47.33423" lon="4.09645">
        <ele>550.49</ele>
        <time>2021-08-11T21:19:33Z</time>
      </trkpt>
      <trkpt lat="47.33407" lon="4.09659">
        <ele>550.97</ele>
        <time>2021-08-11T21:19:42Z</time>
      </trkpt>
      <trkpt lat="47.33404" lon="4.09661">
        <ele>550.97</ele>
        <time>2021-08-11T21:19:44Z</time>
      </trkpt>
      <trkpt lat="47.33403" lon="4.09661">
        <ele>550.97</ele>
        <time>2021-08-11T21:19:45Z</time>
      </trkpt>
      <trkpt lat="47.33401" lon="4.09661">
        <ele>550.97</ele>
        <time>2021-08-11T21:19:46Z</time>
      </trkpt>
      <trkpt lat="47.33399" lon="4.0966">
        <ele>550.97</ele>
        <time>2021-08-11T21:19:47Z</time>
      </trkpt>
      <trkpt lat="47.33397" lon="4.09655">
        <ele>550.97</ele>
        <time>2021-08-11T21:19:49Z</time>
      </trkpt>
      <trkpt lat="47.33395" lon="4.09646">
        <ele>550.97</ele>
        <time>2021-08-11T21:19:56Z</time>
      </trkpt>
      <trkpt lat="47.33396" lon="4.09645">
        <ele>550.97</ele>
        <time>2021-08-11T21:20:09Z</time>
      </trkpt>
      <trkpt lat="47.33397" lon="4.09644">
        <ele>550.97</ele>
        <time>2021-08-11T21:20:22Z</time>
      </trkpt>
      <trkpt lat="47.33397" lon="4.09645">
        <ele>550.97</ele>
        <time>2021-08-11T21:20:35Z</time>
      </trkpt>
      <trkpt lat="47.33397" lon="4.09646">
        <ele>550.97</ele>
        <time>2021-08-11T21:20:46Z</time>
      </trkpt>
      <trkpt lat="47.33397" lon="4.09648">
        <ele>550.97</ele>
        <time>2021-08-11T21:20:56Z</time>
      </trkpt>
      <trkpt lat="47.33397" lon="4.09647">
        <ele>550.97</ele>
        <time>2021-08-11T21:21:04Z</time>
      </trkpt>
      <trkpt lat="47.33397" lon="4.09645">
        <ele>550.49</ele>
        <time>2021-08-11T21:21:19Z</time>
      </trkpt>
      <trkpt lat="47.33398" lon="4.09642">
        <ele>550.49</ele>
        <time>2021-08-11T21:21:33Z</time>
      </trkpt>
      <trkpt lat="47.33398" lon="4.09643">
        <ele>550.49</ele>
        <time>2021-08-11T21:21:43Z</time>
      </trkpt>
      <trkpt lat="47.334" lon="4.09639">
        <ele>550.49</ele>
        <time>2021-08-11T21:21:54Z</time>
      </trkpt>
      <trkpt lat="47.334" lon="4.09639">
        <ele>550.49</ele>
        <time>2021-08-11T21:22:10Z</time>
      </trkpt>
      <trkpt lat="47.33396" lon="4.09648">
        <ele>550.49</ele>
        <time>2021-08-11T21:22:24Z</time>
      </trkpt>
      <trkpt lat="47.33394" lon="4.09649">
        <ele>550.01</ele>
        <time>2021-08-11T21:22:39Z</time>
      </trkpt>
      <trkpt lat="47.33394" lon="4.09649">
        <ele>550.01</ele>
        <time>2021-08-11T21:22:52Z</time>
      </trkpt>
      <trkpt lat="47.33394" lon="4.09651">
        <ele>550.01</ele>
        <time>2021-08-11T21:23:04Z</time>
      </trkpt>
      <trkpt lat="47.33392" lon="4.09653">
        <ele>550.01</ele>
        <time>2021-08-11T21:23:22Z</time>
      </trkpt>
      <trkpt lat="47.33391" lon="4.09653">
        <ele>550.01</ele>
        <time>2021-08-11T21:23:34Z</time>
      </trkpt>
      <trkpt lat="47.33391" lon="4.09652">
        <ele>550.01</ele>
        <time>2021-08-11T21:23:52Z</time>
      </trkpt>
      <trkpt lat="47.33392" lon="4.09653">
        <ele>550.01</ele>
        <time>2021-08-11T21:24:03Z</time>
      </trkpt>
      <trkpt lat="47.33391" lon="4.09652">
        <ele>549.53</ele>
        <time>2021-08-11T21:24:19Z</time>
      </trkpt>
      <trkpt lat="47.33392" lon="4.09648">
        <ele>549.53</ele>
        <time>2021-08-11T21:24:30Z</time>
      </trkpt>
      <trkpt lat="47.33393" lon="4.09647">
        <ele>549.53</ele>
        <time>2021-08-11T21:24:39Z</time>
      </trkpt>
      <trkpt lat="47.33393" lon="4.09651">
        <ele>549.53</ele>
        <time>2021-08-11T21:24:49Z</time>
      </trkpt>
      <trkpt lat="47.33393" lon="4.09654">
        <ele>549.53</ele>
        <time>2021-08-11T21:25:01Z</time>
      </trkpt>
      <trkpt lat="47.33393" lon="4.09656">
        <ele>549.53</ele>
        <time>2021-08-11T21:25:10Z</time>
      </trkpt>
      <trkpt lat="47.33394" lon="4.09652">
        <ele>549.53</ele>
        <time>2021-08-11T21:25:25Z</time>
      </trkpt>
      <trkpt lat="47.33394" lon="4.0965">
        <ele>549.53</ele>
        <time>2021-08-11T21:25:38Z</time>
      </trkpt>
      <trkpt lat="47.33394" lon="4.09651">
        <ele>549.53</ele>
        <time>2021-08-11T21:25:50Z</time>
      </trkpt>
      <trkpt lat="47.33392" lon="4.09653">
        <ele>549.53</ele>
        <time>2021-08-11T21:26:03Z</time>
      </trkpt>
      <trkpt lat="47.33391" lon="4.09656">
        <ele>549.53</ele>
        <time>2021-08-11T21:26:23Z</time>
      </trkpt>
      <trkpt lat="47.33387" lon="4.09661">
        <ele>549.53</ele>
        <time>2021-08-11T21:26:43Z</time>
      </trkpt>
      <trkpt lat="47.33384" lon="4.09664">
        <ele>549.53</ele>
        <time>2021-08-11T21:27:04Z</time>
      </trkpt>
      <trkpt lat="47.33386" lon="4.09663">
        <ele>549.53</ele>
        <time>2021-08-11T21:27:26Z</time>
      </trkpt>
      <trkpt lat="47.33389" lon="4.09658">
        <ele>549.53</ele>
        <time>2021-08-11T21:27:34Z</time>
      </trkpt>
      <trkpt lat="47.3339" lon="4.09655">
        <ele>549.53</ele>
        <time>2021-08-11T21:27:44Z</time>
      </trkpt>
      <trkpt lat="47.3339" lon="4.09654">
        <ele>549.53</ele>
        <time>2021-08-11T21:27:56Z</time>
      </trkpt>
      <trkpt lat="47.33391" lon="4.09655">
        <ele>549.05</ele>
        <time>2021-08-11T21:28:14Z</time>
      </trkpt>
      <trkpt lat="47.33393" lon="4.09657">
        <ele>549.05</ele>
        <time>2021-08-11T21:28:27Z</time>
      </trkpt>
      <trkpt lat="47.33395" lon="4.09655">
        <ele>549.05</ele>
        <time>2021-08-11T21:28:37Z</time>
      </trkpt>
      <trkpt lat="47.33397" lon="4.09654">
        <ele>549.05</ele>
        <time>2021-08-11T21:28:52Z</time>
      </trkpt>
      <trkpt lat="47.33393" lon="4.09658">
        <ele>549.05</ele>
        <time>2021-08-11T21:29:11Z</time>
      </trkpt>
      <trkpt lat="47.33393" lon="4.09656">
        <ele>549.05</ele>
        <time>2021-08-11T21:29:24Z</time>
      </trkpt>
      <trkpt lat="47.33393" lon="4.09655">
        <ele>549.05</ele>
        <time>2021-08-11T21:29:34Z</time>
      </trkpt>
      <trkpt lat="47.33394" lon="4.09652">
        <ele>549.05</ele>
        <time>2021-08-11T21:29:45Z</time>
      </trkpt>
      <trkpt lat="47.33395" lon="4.09649">
        <ele>549.05</ele>
        <time>2021-08-11T21:29:56Z</time>
      </trkpt>
      <trkpt lat="47.33394" lon="4.09649">
        <ele>549.05</ele>
        <time>2021-08-11T21:30:05Z</time>
      </trkpt>
      <trkpt lat="47.33394" lon="4.09648">
        <ele>549.05</ele>
        <time>2021-08-11T21:30:16Z</time>
      </trkpt>
      <trkpt lat="47.33393" lon="4.0965">
        <ele>549.05</ele>
        <time>2021-08-11T21:30:30Z</time>
      </trkpt>
      <trkpt lat="47.33391" lon="4.09653">
        <ele>549.05</ele>
        <time>2021-08-11T21:30:39Z</time>
      </trkpt>
      <trkpt lat="47.33391" lon="4.09654">
        <ele>549.05</ele>
        <time>2021-08-11T21:30:53Z</time>
      </trkpt>
      <trkpt lat="47.33391" lon="4.09652">
        <ele>549.05</ele>
        <time>2021-08-11T21:31:02Z</time>
      </trkpt>
      <trkpt lat="47.33391" lon="4.09653">
        <ele>549.05</ele>
        <time>2021-08-11T21:31:10Z</time>
      </trkpt>
      <trkpt lat="47.3339" lon="4.09652">
        <ele>549.05</ele>
        <time>2021-08-11T21:31:20Z</time>
      </trkpt>
      <trkpt lat="47.33391" lon="4.09651">
        <ele>548.57</ele>
        <time>2021-08-11T21:31:29Z</time>
      </trkpt>
      <trkpt lat="47.33394" lon="4.09647">
        <ele>548.57</ele>
        <time>2021-08-11T21:31:42Z</time>
      </trkpt>
      <trkpt lat="47.33398" lon="4.09644">
        <ele>548.57</ele>
        <time>2021-08-11T21:31:53Z</time>
      </trkpt>
      <trkpt lat="47.334" lon="4.09643">
        <ele>548.57</ele>
        <time>2021-08-11T21:32:07Z</time>
      </trkpt>
      <trkpt lat="47.33401" lon="4.09643">
        <ele>548.57</ele>
        <time>2021-08-11T21:32:17Z</time>
      </trkpt>
      <trkpt lat="47.33401" lon="4.09642">
        <ele>548.57</ele>
        <time>2021-08-11T21:32:35Z</time>
      </trkpt>
      <trkpt lat="47.33402" lon="4.09641">
        <ele>548.57</ele>
        <time>2021-08-11T21:32:43Z</time>
      </trkpt>
      <trkpt lat="47.33403" lon="4.09639">
        <ele>548.57</ele>
        <time>2021-08-11T21:32:59Z</time>
      </trkpt>
      <trkpt lat="47.33402" lon="4.09637">
        <ele>548.57</ele>
        <time>2021-08-11T21:33:08Z</time>
      </trkpt>
      <trkpt lat="47.33404" lon="4.09634">
        <ele>548.57</ele>
        <time>2021-08-11T21:33:22Z</time>
      </trkpt>
      <trkpt lat="47.33403" lon="4.09635">
        <ele>548.57</ele>
        <time>2021-08-11T21:33:33Z</time>
      </trkpt>
      <trkpt lat="47.33402" lon="4.09637">
        <ele>548.09</ele>
        <time>2021-08-11T21:33:45Z</time>
      </trkpt>
      <trkpt lat="47.33401" lon="4.09639">
        <ele>546.65</ele>
        <time>2021-08-11T21:34:00Z</time>
      </trkpt>
    </trkseg>
  </trk>
  <trk>
    <name><![CDATA[06 FD]]></name>
    <trkseg>
      <trkpt lat="47.33383" lon="4.09732">
        <ele>517.33</ele>
        <time>2021-08-12T06:08:38Z</time>
      </trkpt>
      <trkpt lat="47.33384" lon="4.09732">
        <ele>517.33</ele>
        <time>2021-08-12T06:08:39Z</time>
      </trkpt>
      <trkpt lat="47.3339" lon="4.09732">
        <ele>517.33</ele>
        <time>2021-08-12T06:08:54Z</time>
      </trkpt>
      <trkpt lat="47.33391" lon="4.09733">
        <ele>520.69</ele>
        <time>2021-08-12T06:09:00Z</time>
      </trkpt>
      <trkpt lat="47.33392" lon="4.09733">
        <ele>524.06</ele>
        <time>2021-08-12T06:09:05Z</time>
      </trkpt>
      <trkpt lat="47.33392" lon="4.09733">
        <ele>527.42</ele>
        <time>2021-08-12T06:09:10Z</time>
      </trkpt>
      <trkpt lat="47.33393" lon="4.09732">
        <ele>530.79</ele>
        <time>2021-08-12T06:09:16Z</time>
      </trkpt>
      <trkpt lat="47.33392" lon="4.09734">
        <ele>533.67</ele>
        <time>2021-08-12T06:09:22Z</time>
      </trkpt>
      <trkpt lat="47.33392" lon="4.09734">
        <ele>536.55</ele>
        <time>2021-08-12T06:09:31Z</time>
      </trkpt>
      <trkpt lat="47.33405" lon="4.09735">
        <ele>539.92</ele>
        <time>2021-08-12T06:09:43Z</time>
      </trkpt>
      <trkpt lat="47.3342" lon="4.09733">
        <ele>542.8</ele>
        <time>2021-08-12T06:09:58Z</time>
      </trkpt>
      <trkpt lat="47.33418" lon="4.09727">
        <ele>546.17</ele>
        <time>2021-08-12T06:10:13Z</time>
      </trkpt>
      <trkpt lat="47.33413" lon="4.0973">
        <ele>549.05</ele>
        <time>2021-08-12T06:10:27Z</time>
      </trkpt>
      <trkpt lat="47.33408" lon="4.09732">
        <ele>552.41</ele>
        <time>2021-08-12T06:10:37Z</time>
      </trkpt>
      <trkpt lat="47.33409" lon="4.09731">
        <ele>556.26</ele>
        <time>2021-08-12T06:10:54Z</time>
      </trkpt>
      <trkpt lat="47.33411" lon="4.0973">
        <ele>556.26</ele>
        <time>2021-08-12T06:11:14Z</time>
      </trkpt>
      <trkpt lat="47.33409" lon="4.09732">
        <ele>556.26</ele>
        <time>2021-08-12T06:11:31Z</time>
      </trkpt>
      <trkpt lat="47.33403" lon="4.09738">
        <ele>556.26</ele>
        <time>2021-08-12T06:11:50Z</time>
      </trkpt>
      <trkpt lat="47.33407" lon="4.09736">
        <ele>556.26</ele>
        <time>2021-08-12T06:12:05Z</time>
      </trkpt>
      <trkpt lat="47.33407" lon="4.09735">
        <ele>556.26</ele>
        <time>2021-08-12T06:12:25Z</time>
      </trkpt>
      <trkpt lat="47.334" lon="4.09738">
        <ele>556.26</ele>
        <time>2021-08-12T06:12:43Z</time>
      </trkpt>
      <trkpt lat="47.33396" lon="4.09737">
        <ele>556.26</ele>
        <time>2021-08-12T06:13:04Z</time>
      </trkpt>
      <trkpt lat="47.33391" lon="4.0974">
        <ele>556.74</ele>
        <time>2021-08-12T06:13:27Z</time>
      </trkpt>
      <trkpt lat="47.33396" lon="4.09731">
        <ele>556.74</ele>
        <time>2021-08-12T06:13:49Z</time>
      </trkpt>
      <trkpt lat="47.33395" lon="4.09735">
        <ele>556.74</ele>
        <time>2021-08-12T06:14:09Z</time>
      </trkpt>
      <trkpt lat="47.33394" lon="4.09733">
        <ele>556.74</ele>
        <time>2021-08-12T06:14:33Z</time>
      </trkpt>
      <trkpt lat="47.33391" lon="4.09734">
        <ele>556.74</ele>
        <time>2021-08-12T06:15:02Z</time>
      </trkpt>
      <trkpt lat="47.33395" lon="4.09736">
        <ele>556.74</ele>
        <time>2021-08-12T06:15:25Z</time>
      </trkpt>
      <trkpt lat="47.33398" lon="4.09733">
        <ele>556.74</ele>
        <time>2021-08-12T06:15:46Z</time>
      </trkpt>
      <trkpt lat="47.33399" lon="4.09734">
        <ele>556.74</ele>
        <time>2021-08-12T06:16:03Z</time>
      </trkpt>
      <trkpt lat="47.33399" lon="4.09734">
        <ele>556.74</ele>
        <time>2021-08-12T06:16:21Z</time>
      </trkpt>
      <trkpt lat="47.33399" lon="4.09735">
        <ele>557.22</ele>
        <time>2021-08-12T06:16:34Z</time>
      </trkpt>
      <trkpt lat="47.33394" lon="4.09732">
        <ele>557.22</ele>
        <time>2021-08-12T06:16:49Z</time>
      </trkpt>
      <trkpt lat="47.334" lon="4.09731">
        <ele>557.22</ele>
        <time>2021-08-12T06:17:07Z</time>
      </trkpt>
      <trkpt lat="47.33399" lon="4.09731">
        <ele>557.22</ele>
        <time>2021-08-12T06:17:23Z</time>
      </trkpt>
      <trkpt lat="47.33397" lon="4.09731">
        <ele>557.22</ele>
        <time>2021-08-12T06:17:43Z</time>
      </trkpt>
      <trkpt lat="47.33394" lon="4.09731">
        <ele>557.22</ele>
        <time>2021-08-12T06:18:10Z</time>
      </trkpt>
      <trkpt lat="47.33398" lon="4.09737">
        <ele>557.22</ele>
        <time>2021-08-12T06:18:30Z</time>
      </trkpt>
      <trkpt lat="47.33402" lon="4.09739">
        <ele>557.22</ele>
        <time>2021-08-12T06:18:52Z</time>
      </trkpt>
      <trkpt lat="47.33404" lon="4.09733">
        <ele>557.7</ele>
        <time>2021-08-12T06:19:12Z</time>
      </trkpt>
      <trkpt lat="47.33405" lon="4.09734">
        <ele>557.7</ele>
        <time>2021-08-12T06:19:32Z</time>
      </trkpt>
      <trkpt lat="47.334" lon="4.09737">
        <ele>557.7</ele>
        <time>2021-08-12T06:19:51Z</time>
      </trkpt>
      <trkpt lat="47.33406" lon="4.09737">
        <ele>557.7</ele>
        <time>2021-08-12T06:20:05Z</time>
      </trkpt>
      <trkpt lat="47.33407" lon="4.09737">
        <ele>557.7</ele>
        <time>2021-08-12T06:20:11Z</time>
      </trkpt>
      <trkpt lat="47.33405" lon="4.09735">
        <ele>557.7</ele>
        <time>2021-08-12T06:20:22Z</time>
      </trkpt>
      <trkpt lat="47.33401" lon="4.09742">
        <ele>558.18</ele>
        <time>2021-08-12T06:20:39Z</time>
      </trkpt>
      <trkpt lat="47.33404" lon="4.09739">
        <ele>558.18</ele>
        <time>2021-08-12T06:20:46Z</time>
      </trkpt>
      <trkpt lat="47.33405" lon="4.09738">
        <ele>558.18</ele>
        <time>2021-08-12T06:20:49Z</time>
      </trkpt>
      <trkpt lat="47.33411" lon="4.09727">
        <ele>558.18</ele>
        <time>2021-08-12T06:20:56Z</time>
      </trkpt>
      <trkpt lat="47.33418" lon="4.09712">
        <ele>558.18</ele>
        <time>2021-08-12T06:21:05Z</time>
      </trkpt>
      <trkpt lat="47.33411" lon="4.09695">
        <ele>558.18</ele>
        <time>2021-08-12T06:21:11Z</time>
      </trkpt>
      <trkpt lat="47.33398" lon="4.09669">
        <ele>556.74</ele>
        <time>2021-08-12T06:21:18Z</time>
      </trkpt>
      <trkpt lat="47.33392" lon="4.09647">
        <ele>556.26</ele>
        <time>2021-08-12T06:21:25Z</time>
      </trkpt>
      <trkpt lat="47.33391" lon="4.09647">
        <ele>556.26</ele>
        <time>2021-08-12T06:21:35Z</time>
      </trkpt>
      <trkpt lat="47.33391" lon="4.09649">
        <ele>556.26</ele>
        <time>2021-08-12T06:21:55Z</time>
      </trkpt>
      <trkpt lat="47.33391" lon="4.09648">
        <ele>556.26</ele>
        <time>2021-08-12T06:22:12Z</time>
      </trkpt>
      <trkpt lat="47.33388" lon="4.09653">
        <ele>556.26</ele>
        <time>2021-08-12T06:22:33Z</time>
      </trkpt>
      <trkpt lat="47.3339" lon="4.09655">
        <ele>555.78</ele>
        <time>2021-08-12T06:22:47Z</time>
      </trkpt>
      <trkpt lat="47.33392" lon="4.09655">
        <ele>555.78</ele>
        <time>2021-08-12T06:22:59Z</time>
      </trkpt>
      <trkpt lat="47.33393" lon="4.0965">
        <ele>555.78</ele>
        <time>2021-08-12T06:23:17Z</time>
      </trkpt>
      <trkpt lat="47.33393" lon="4.09652">
        <ele>555.78</ele>
        <time>2021-08-12T06:23:30Z</time>
      </trkpt>
      <trkpt lat="47.33394" lon="4.0965">
        <ele>555.78</ele>
        <time>2021-08-12T06:23:45Z</time>
      </trkpt>
      <trkpt lat="47.33394" lon="4.09648">
        <ele>555.78</ele>
        <time>2021-08-12T06:24:08Z</time>
      </trkpt>
      <trkpt lat="47.33392" lon="4.09655">
        <ele>555.78</ele>
        <time>2021-08-12T06:24:34Z</time>
      </trkpt>
      <trkpt lat="47.33393" lon="4.09654">
        <ele>555.78</ele>
        <time>2021-08-12T06:24:48Z</time>
      </trkpt>
      <trkpt lat="47.33392" lon="4.0965">
        <ele>555.3</ele>
        <time>2021-08-12T06:24:56Z</time>
      </trkpt>
      <trkpt lat="47.33391" lon="4.0965">
        <ele>555.3</ele>
        <time>2021-08-12T06:25:12Z</time>
      </trkpt>
      <trkpt lat="47.33392" lon="4.09649">
        <ele>555.3</ele>
        <time>2021-08-12T06:25:22Z</time>
      </trkpt>
      <trkpt lat="47.33395" lon="4.0965">
        <ele>555.3</ele>
        <time>2021-08-12T06:25:39Z</time>
      </trkpt>
      <trkpt lat="47.33397" lon="4.09655">
        <ele>555.3</ele>
        <time>2021-08-12T06:25:43Z</time>
      </trkpt>
      <trkpt lat="47.33397" lon="4.09661">
        <ele>555.3</ele>
        <time>2021-08-12T06:25:46Z</time>
      </trkpt>
      <trkpt lat="47.33402" lon="4.09661">
        <ele>555.3</ele>
        <time>2021-08-12T06:25:52Z</time>
      </trkpt>
      <trkpt lat="47.33406" lon="4.09656">
        <ele>555.3</ele>
        <time>2021-08-12T06:25:55Z</time>
      </trkpt>
      <trkpt lat="47.33419" lon="4.09646">
        <ele>555.3</ele>
        <time>2021-08-12T06:26:03Z</time>
      </trkpt>
      <trkpt lat="47.33427" lon="4.09636">
        <ele>555.3</ele>
        <time>2021-08-12T06:26:07Z</time>
      </trkpt>
      <trkpt lat="47.33427" lon="4.09633">
        <ele>555.3</ele>
        <time>2021-08-12T06:26:08Z</time>
      </trkpt>
      <trkpt lat="47.33427" lon="4.0963">
        <ele>555.3</ele>
        <time>2021-08-12T06:26:09Z</time>
      </trkpt>
      <trkpt lat="47.33425" lon="4.09623">
        <ele>555.3</ele>
        <time>2021-08-12T06:26:11Z</time>
      </trkpt>
      <trkpt lat="47.33419" lon="4.09602">
        <ele>554.34</ele>
        <time>2021-08-12T06:26:16Z</time>
      </trkpt>
      <trkpt lat="47.33421" lon="4.09587">
        <ele>553.86</ele>
        <time>2021-08-12T06:26:22Z</time>
      </trkpt>
      <trkpt lat="47.33419" lon="4.09561">
        <ele>552.9</ele>
        <time>2021-08-12T06:26:28Z</time>
      </trkpt>
      <trkpt lat="47.33408" lon="4.09522">
        <ele>551.45</ele>
        <time>2021-08-12T06:26:36Z</time>
      </trkpt>
      <trkpt lat="47.33409" lon="4.09493">
        <ele>550.49</ele>
        <time>2021-08-12T06:26:42Z</time>
      </trkpt>
      <trkpt lat="47.33404" lon="4.09477">
        <ele>549.53</ele>
        <time>2021-08-12T06:26:46Z</time>
      </trkpt>
      <trkpt lat="47.3341" lon="4.09461">
        <ele>550.01</ele>
        <time>2021-08-12T06:26:51Z</time>
      </trkpt>
      <trkpt lat="47.33418" lon="4.09441">
        <ele>549.53</ele>
        <time>2021-08-12T06:26:59Z</time>
      </trkpt>
      <trkpt lat="47.33412" lon="4.09437">
        <ele>549.53</ele>
        <time>2021-08-12T06:27:03Z</time>
      </trkpt>
      <trkpt lat="47.33391" lon="4.09446">
        <ele>548.57</ele>
        <time>2021-08-12T06:27:10Z</time>
      </trkpt>
      <trkpt lat="47.33389" lon="4.09444">
        <ele>548.57</ele>
        <time>2021-08-12T06:27:11Z</time>
      </trkpt>
      <trkpt lat="47.33374" lon="4.09435">
        <ele>547.13</ele>
        <time>2021-08-12T06:27:15Z</time>
      </trkpt>
      <trkpt lat="47.3337" lon="4.09433">
        <ele>547.13</ele>
        <time>2021-08-12T06:27:16Z</time>
      </trkpt>
      <trkpt lat="47.33362" lon="4.09431">
        <ele>547.13</ele>
        <time>2021-08-12T06:27:18Z</time>
      </trkpt>
      <trkpt lat="47.33358" lon="4.09429">
        <ele>546.17</ele>
        <time>2021-08-12T06:27:19Z</time>
      </trkpt>
      <trkpt lat="47.33353" lon="4.09428">
        <ele>546.17</ele>
        <time>2021-08-12T06:27:20Z</time>
      </trkpt>
      <trkpt lat="47.33349" lon="4.09427">
        <ele>545.69</ele>
        <time>2021-08-12T06:27:21Z</time>
      </trkpt>
      <trkpt lat="47.33344" lon="4.09428">
        <ele>545.69</ele>
        <time>2021-08-12T06:27:22Z</time>
      </trkpt>
      <trkpt lat="47.3334" lon="4.09428">
        <ele>544.72</ele>
        <time>2021-08-12T06:27:23Z</time>
      </trkpt>
      <trkpt lat="47.33335" lon="4.09428">
        <ele>544.72</ele>
        <time>2021-08-12T06:27:24Z</time>
      </trkpt>
      <trkpt lat="47.33331" lon="4.09428">
        <ele>544.24</ele>
        <time>2021-08-12T06:27:25Z</time>
      </trkpt>
      <trkpt lat="47.33327" lon="4.09429">
        <ele>543.76</ele>
        <time>2021-08-12T06:27:26Z</time>
      </trkpt>
      <trkpt lat="47.33323" lon="4.09431">
        <ele>543.28</ele>
        <time>2021-08-12T06:27:27Z</time>
      </trkpt>
      <trkpt lat="47.33318" lon="4.09432">
        <ele>543.28</ele>
        <time>2021-08-12T06:27:28Z</time>
      </trkpt>
      <trkpt lat="47.33312" lon="4.09434">
        <ele>542.8</ele>
        <time>2021-08-12T06:27:29Z</time>
      </trkpt>
      <trkpt lat="47.33306" lon="4.09438">
        <ele>542.32</ele>
        <time>2021-08-12T06:27:30Z</time>
      </trkpt>
      <trkpt lat="47.33303" lon="4.0944">
        <ele>542.32</ele>
        <time>2021-08-12T06:27:31Z</time>
      </trkpt>
      <trkpt lat="47.33297" lon="4.09442">
        <ele>542.32</ele>
        <time>2021-08-12T06:27:32Z</time>
      </trkpt>
      <trkpt lat="47.33292" lon="4.09443">
        <ele>542.32</ele>
        <time>2021-08-12T06:27:33Z</time>
      </trkpt>
      <trkpt lat="47.33287" lon="4.09445">
        <ele>542.32</ele>
        <time>2021-08-12T06:27:34Z</time>
      </trkpt>
      <trkpt lat="47.33282" lon="4.09447">
        <ele>542.32</ele>
        <time>2021-08-12T06:27:35Z</time>
      </trkpt>
      <trkpt lat="47.33278" lon="4.09449">
        <ele>542.32</ele>
        <time>2021-08-12T06:27:36Z</time>
      </trkpt>
      <trkpt lat="47.33274" lon="4.0945">
        <ele>542.32</ele>
        <time>2021-08-12T06:27:37Z</time>
      </trkpt>
      <trkpt lat="47.3327" lon="4.09452">
        <ele>542.32</ele>
        <time>2021-08-12T06:27:38Z</time>
      </trkpt>
      <trkpt lat="47.33266" lon="4.09454">
        <ele>542.32</ele>
        <time>2021-08-12T06:27:39Z</time>
      </trkpt>
      <trkpt lat="47.33263" lon="4.09457">
        <ele>542.32</ele>
        <time>2021-08-12T06:27:40Z</time>
      </trkpt>
      <trkpt lat="47.3326" lon="4.0946">
        <ele>542.32</ele>
        <time>2021-08-12T06:27:41Z</time>
      </trkpt>
      <trkpt lat="47.33244" lon="4.09487">
        <ele>541.84</ele>
        <time>2021-08-12T06:27:48Z</time>
      </trkpt>
      <trkpt lat="47.33234" lon="4.09514">
        <ele>541.84</ele>
        <time>2021-08-12T06:27:54Z</time>
      </trkpt>
      <trkpt lat="47.33229" lon="4.09542">
        <ele>541.84</ele>
        <time>2021-08-12T06:28:00Z</time>
      </trkpt>
      <trkpt lat="47.33218" lon="4.09572">
        <ele>541.84</ele>
        <time>2021-08-12T06:28:07Z</time>
      </trkpt>
      <trkpt lat="47.33201" lon="4.09594">
        <ele>541.84</ele>
        <time>2021-08-12T06:28:13Z</time>
      </trkpt>
      <trkpt lat="47.3318" lon="4.09614">
        <ele>541.84</ele>
        <time>2021-08-12T06:28:20Z</time>
      </trkpt>
      <trkpt lat="47.33154" lon="4.09634">
        <ele>541.84</ele>
        <time>2021-08-12T06:28:27Z</time>
      </trkpt>
      <trkpt lat="47.33139" lon="4.09644">
        <ele>541.36</ele>
        <time>2021-08-12T06:28:31Z</time>
      </trkpt>
      <trkpt lat="47.33106" lon="4.09665">
        <ele>540.4</ele>
        <time>2021-08-12T06:28:39Z</time>
      </trkpt>
      <trkpt lat="47.33097" lon="4.09669">
        <ele>539.92</ele>
        <time>2021-08-12T06:28:41Z</time>
      </trkpt>
      <trkpt lat="47.33078" lon="4.09679">
        <ele>539.44</ele>
        <time>2021-08-12T06:28:45Z</time>
      </trkpt>
      <trkpt lat="47.33063" lon="4.09689">
        <ele>539.44</ele>
        <time>2021-08-12T06:28:50Z</time>
      </trkpt>
      <trkpt lat="47.33047" lon="4.09706">
        <ele>538.96</ele>
        <time>2021-08-12T06:28:57Z</time>
      </trkpt>
      <trkpt lat="47.33032" lon="4.09715">
        <ele>538.96</ele>
        <time>2021-08-12T06:29:03Z</time>
      </trkpt>
      <trkpt lat="47.3301" lon="4.09731">
        <ele>538.96</ele>
        <time>2021-08-12T06:29:10Z</time>
      </trkpt>
      <trkpt lat="47.32998" lon="4.09747">
        <ele>538.96</ele>
        <time>2021-08-12T06:29:15Z</time>
      </trkpt>
      <trkpt lat="47.32985" lon="4.09774">
        <ele>538.96</ele>
        <time>2021-08-12T06:29:22Z</time>
      </trkpt>
      <trkpt lat="47.32965" lon="4.09785">
        <ele>538.96</ele>
        <time>2021-08-12T06:29:28Z</time>
      </trkpt>
      <trkpt lat="47.32945" lon="4.09776">
        <ele>538.96</ele>
        <time>2021-08-12T06:29:35Z</time>
      </trkpt>
      <trkpt lat="47.32928" lon="4.09762">
        <ele>538.96</ele>
        <time>2021-08-12T06:29:42Z</time>
      </trkpt>
      <trkpt lat="47.32911" lon="4.09749">
        <ele>539.92</ele>
        <time>2021-08-12T06:29:49Z</time>
      </trkpt>
      <trkpt lat="47.32891" lon="4.09737">
        <ele>540.4</ele>
        <time>2021-08-12T06:29:55Z</time>
      </trkpt>
      <trkpt lat="47.32864" lon="4.09737">
        <ele>540.4</ele>
        <time>2021-08-12T06:30:02Z</time>
      </trkpt>
      <trkpt lat="47.3285" lon="4.09746">
        <ele>540.4</ele>
        <time>2021-08-12T06:30:06Z</time>
      </trkpt>
      <trkpt lat="47.32818" lon="4.09765">
        <ele>540.4</ele>
        <time>2021-08-12T06:30:13Z</time>
      </trkpt>
      <trkpt lat="47.32786" lon="4.0979">
        <ele>540.4</ele>
        <time>2021-08-12T06:30:20Z</time>
      </trkpt>
      <trkpt lat="47.32758" lon="4.09825">
        <ele>540.88</ele>
        <time>2021-08-12T06:30:29Z</time>
      </trkpt>
      <trkpt lat="47.32731" lon="4.09861">
        <ele>542.8</ele>
        <time>2021-08-12T06:30:40Z</time>
      </trkpt>
      <trkpt lat="47.32717" lon="4.0988">
        <ele>543.76</ele>
        <time>2021-08-12T06:30:47Z</time>
      </trkpt>
      <trkpt lat="47.32704" lon="4.09908">
        <ele>544.72</ele>
        <time>2021-08-12T06:30:55Z</time>
      </trkpt>
      <trkpt lat="47.32696" lon="4.09936">
        <ele>545.69</ele>
        <time>2021-08-12T06:31:03Z</time>
      </trkpt>
      <trkpt lat="47.32682" lon="4.09967">
        <ele>544.24</ele>
        <time>2021-08-12T06:31:10Z</time>
      </trkpt>
      <trkpt lat="47.32679" lon="4.09972">
        <ele>544.24</ele>
        <time>2021-08-12T06:31:11Z</time>
      </trkpt>
      <trkpt lat="47.32676" lon="4.09978">
        <ele>543.76</ele>
        <time>2021-08-12T06:31:12Z</time>
      </trkpt>
      <trkpt lat="47.32673" lon="4.09984">
        <ele>543.76</ele>
        <time>2021-08-12T06:31:13Z</time>
      </trkpt>
      <trkpt lat="47.3267" lon="4.0999">
        <ele>543.28</ele>
        <time>2021-08-12T06:31:14Z</time>
      </trkpt>
      <trkpt lat="47.32667" lon="4.09997">
        <ele>543.28</ele>
        <time>2021-08-12T06:31:15Z</time>
      </trkpt>
      <trkpt lat="47.32659" lon="4.10019">
        <ele>542.32</ele>
        <time>2021-08-12T06:31:18Z</time>
      </trkpt>
      <trkpt lat="47.32656" lon="4.10029">
        <ele>542.32</ele>
        <time>2021-08-12T06:31:19Z</time>
      </trkpt>
      <trkpt lat="47.32649" lon="4.10079">
        <ele>539.92</ele>
        <time>2021-08-12T06:31:24Z</time>
      </trkpt>
      <trkpt lat="47.32647" lon="4.10088">
        <ele>539.92</ele>
        <time>2021-08-12T06:31:25Z</time>
      </trkpt>
      <trkpt lat="47.32645" lon="4.10097">
        <ele>539.44</ele>
        <time>2021-08-12T06:31:26Z</time>
      </trkpt>
      <trkpt lat="47.3264" lon="4.10128">
        <ele>539.44</ele>
        <time>2021-08-12T06:31:29Z</time>
      </trkpt>
      <trkpt lat="47.32637" lon="4.10137">
        <ele>539.44</ele>
        <time>2021-08-12T06:31:30Z</time>
      </trkpt>
      <trkpt lat="47.32634" lon="4.10146">
        <ele>539.44</ele>
        <time>2021-08-12T06:31:31Z</time>
      </trkpt>
      <trkpt lat="47.32605" lon="4.10211">
        <ele>538.96</ele>
        <time>2021-08-12T06:31:40Z</time>
      </trkpt>
      <trkpt lat="47.32596" lon="4.10227">
        <ele>538.96</ele>
        <time>2021-08-12T06:31:45Z</time>
      </trkpt>
      <trkpt lat="47.32596" lon="4.10226">
        <ele>538.96</ele>
        <time>2021-08-12T06:31:57Z</time>
      </trkpt>
      <trkpt lat="47.32596" lon="4.10227">
        <ele>538.96</ele>
        <time>2021-08-12T06:32:15Z</time>
      </trkpt>
      <trkpt lat="47.32597" lon="4.10227">
        <ele>538.96</ele>
        <time>2021-08-12T06:32:34Z</time>
      </trkpt>
      <trkpt lat="47.32597" lon="4.10227">
        <ele>538.96</ele>
        <time>2021-08-12T06:32:47Z</time>
      </trkpt>
      <trkpt lat="47.326" lon="4.10227">
        <ele>538.96</ele>
        <time>2021-08-12T06:33:04Z</time>
      </trkpt>
      <trkpt lat="47.32598" lon="4.10227">
        <ele>538.96</ele>
        <time>2021-08-12T06:33:14Z</time>
      </trkpt>
      <trkpt lat="47.32598" lon="4.10227">
        <ele>538.96</ele>
        <time>2021-08-12T06:33:30Z</time>
      </trkpt>
      <trkpt lat="47.32597" lon="4.10225">
        <ele>538.48</ele>
        <time>2021-08-12T06:33:54Z</time>
      </trkpt>
      <trkpt lat="47.32598" lon="4.10226">
        <ele>538.48</ele>
        <time>2021-08-12T06:34:06Z</time>
      </trkpt>
      <trkpt lat="47.32598" lon="4.10225">
        <ele>538.48</ele>
        <time>2021-08-12T06:34:22Z</time>
      </trkpt>
      <trkpt lat="47.32597" lon="4.10225">
        <ele>538.48</ele>
        <time>2021-08-12T06:34:44Z</time>
      </trkpt>
      <trkpt lat="47.32596" lon="4.10226">
        <ele>538.48</ele>
        <time>2021-08-12T06:34:57Z</time>
      </trkpt>
      <trkpt lat="47.32594" lon="4.10225">
        <ele>538.48</ele>
        <time>2021-08-12T06:35:14Z</time>
      </trkpt>
      <trkpt lat="47.32595" lon="4.10227">
        <ele>538.48</ele>
        <time>2021-08-12T06:35:30Z</time>
      </trkpt>
      <trkpt lat="47.32592" lon="4.10233">
        <ele>538.48</ele>
        <time>2021-08-12T06:35:34Z</time>
      </trkpt>
      <trkpt lat="47.32591" lon="4.10236">
        <ele>538.48</ele>
        <time>2021-08-12T06:35:35Z</time>
      </trkpt>
      <trkpt lat="47.3259" lon="4.1024">
        <ele>538.48</ele>
        <time>2021-08-12T06:35:36Z</time>
      </trkpt>
      <trkpt lat="47.32579" lon="4.10267">
        <ele>538.48</ele>
        <time>2021-08-12T06:35:43Z</time>
      </trkpt>
      <trkpt lat="47.32562" lon="4.10312">
        <ele>538.48</ele>
        <time>2021-08-12T06:35:53Z</time>
      </trkpt>
      <trkpt lat="47.32551" lon="4.10352">
        <ele>538.48</ele>
        <time>2021-08-12T06:36:00Z</time>
      </trkpt>
      <trkpt lat="47.32525" lon="4.10405">
        <ele>537.51</ele>
        <time>2021-08-12T06:36:09Z</time>
      </trkpt>
      <trkpt lat="47.325" lon="4.10451">
        <ele>537.51</ele>
        <time>2021-08-12T06:36:18Z</time>
      </trkpt>
      <trkpt lat="47.32484" lon="4.10502">
        <ele>538.96</ele>
        <time>2021-08-12T06:36:28Z</time>
      </trkpt>
      <trkpt lat="47.32472" lon="4.10557">
        <ele>538.96</ele>
        <time>2021-08-12T06:36:38Z</time>
      </trkpt>
      <trkpt lat="47.32459" lon="4.10605">
        <ele>537.99</ele>
        <time>2021-08-12T06:36:45Z</time>
      </trkpt>
      <trkpt lat="47.32451" lon="4.10629">
        <ele>537.03</ele>
        <time>2021-08-12T06:36:48Z</time>
      </trkpt>
      <trkpt lat="47.32449" lon="4.10638">
        <ele>536.55</ele>
        <time>2021-08-12T06:36:49Z</time>
      </trkpt>
      <trkpt lat="47.32448" lon="4.10647">
        <ele>536.55</ele>
        <time>2021-08-12T06:36:50Z</time>
      </trkpt>
      <trkpt lat="47.32447" lon="4.10656">
        <ele>536.07</ele>
        <time>2021-08-12T06:36:51Z</time>
      </trkpt>
      <trkpt lat="47.32446" lon="4.10666">
        <ele>535.59</ele>
        <time>2021-08-12T06:36:52Z</time>
      </trkpt>
      <trkpt lat="47.32445" lon="4.10675">
        <ele>535.59</ele>
        <time>2021-08-12T06:36:53Z</time>
      </trkpt>
      <trkpt lat="47.32439" lon="4.1075">
        <ele>534.63</ele>
        <time>2021-08-12T06:37:01Z</time>
      </trkpt>
      <trkpt lat="47.32436" lon="4.10766">
        <ele>534.63</ele>
        <time>2021-08-12T06:37:03Z</time>
      </trkpt>
      <trkpt lat="47.32434" lon="4.10772">
        <ele>534.63</ele>
        <time>2021-08-12T06:37:04Z</time>
      </trkpt>
      <trkpt lat="47.3243" lon="4.10777">
        <ele>534.63</ele>
        <time>2021-08-12T06:37:05Z</time>
      </trkpt>
      <trkpt lat="47.32425" lon="4.1078">
        <ele>534.15</ele>
        <time>2021-08-12T06:37:06Z</time>
      </trkpt>
      <trkpt lat="47.3242" lon="4.10783">
        <ele>534.15</ele>
        <time>2021-08-12T06:37:07Z</time>
      </trkpt>
      <trkpt lat="47.32405" lon="4.10789">
        <ele>533.67</ele>
        <time>2021-08-12T06:37:10Z</time>
      </trkpt>
      <trkpt lat="47.324" lon="4.10789">
        <ele>533.67</ele>
        <time>2021-08-12T06:37:11Z</time>
      </trkpt>
      <trkpt lat="47.32394" lon="4.10788">
        <ele>533.19</ele>
        <time>2021-08-12T06:37:12Z</time>
      </trkpt>
      <trkpt lat="47.32361" lon="4.10774">
        <ele>533.19</ele>
        <time>2021-08-12T06:37:19Z</time>
      </trkpt>
      <trkpt lat="47.3235" lon="4.10768">
        <ele>533.19</ele>
        <time>2021-08-12T06:37:22Z</time>
      </trkpt>
      <trkpt lat="47.32343" lon="4.10763">
        <ele>533.19</ele>
        <time>2021-08-12T06:37:24Z</time>
      </trkpt>
      <trkpt lat="47.32319" lon="4.10753">
        <ele>533.19</ele>
        <time>2021-08-12T06:37:30Z</time>
      </trkpt>
      <trkpt lat="47.32315" lon="4.1075">
        <ele>533.19</ele>
        <time>2021-08-12T06:37:31Z</time>
      </trkpt>
      <trkpt lat="47.32311" lon="4.10748">
        <ele>533.19</ele>
        <time>2021-08-12T06:37:32Z</time>
      </trkpt>
      <trkpt lat="47.3228" lon="4.10726">
        <ele>535.11</ele>
        <time>2021-08-12T06:37:41Z</time>
      </trkpt>
      <trkpt lat="47.32272" lon="4.10695">
        <ele>536.55</ele>
        <time>2021-08-12T06:37:48Z</time>
      </trkpt>
      <trkpt lat="47.32269" lon="4.10655">
        <ele>537.99</ele>
        <time>2021-08-12T06:37:58Z</time>
      </trkpt>
      <trkpt lat="47.3226" lon="4.10619">
        <ele>539.44</ele>
        <time>2021-08-12T06:38:08Z</time>
      </trkpt>
      <trkpt lat="47.32247" lon="4.10584">
        <ele>540.88</ele>
        <time>2021-08-12T06:38:18Z</time>
      </trkpt>
      <trkpt lat="47.32225" lon="4.10557">
        <ele>542.32</ele>
        <time>2021-08-12T06:38:29Z</time>
      </trkpt>
      <trkpt lat="47.32204" lon="4.10535">
        <ele>544.24</ele>
        <time>2021-08-12T06:38:39Z</time>
      </trkpt>
      <trkpt lat="47.32183" lon="4.10513">
        <ele>545.2</ele>
        <time>2021-08-12T06:38:48Z</time>
      </trkpt>
      <trkpt lat="47.32152" lon="4.1048">
        <ele>545.69</ele>
        <time>2021-08-12T06:39:00Z</time>
      </trkpt>
      <trkpt lat="47.32125" lon="4.10451">
        <ele>546.65</ele>
        <time>2021-08-12T06:39:09Z</time>
      </trkpt>
      <trkpt lat="47.32097" lon="4.10422">
        <ele>546.65</ele>
        <time>2021-08-12T06:39:17Z</time>
      </trkpt>
      <trkpt lat="47.32072" lon="4.10397">
        <ele>545.69</ele>
        <time>2021-08-12T06:39:23Z</time>
      </trkpt>
      <trkpt lat="47.32029" lon="4.10351">
        <ele>544.72</ele>
        <time>2021-08-12T06:39:33Z</time>
      </trkpt>
      <trkpt lat="47.31967" lon="4.10286">
        <ele>543.28</ele>
        <time>2021-08-12T06:39:47Z</time>
      </trkpt>
      <trkpt lat="47.31917" lon="4.10236">
        <ele>540.88</ele>
        <time>2021-08-12T06:39:57Z</time>
      </trkpt>
      <trkpt lat="47.31851" lon="4.10169">
        <ele>538.48</ele>
        <time>2021-08-12T06:40:09Z</time>
      </trkpt>
      <trkpt lat="47.31813" lon="4.10128">
        <ele>536.07</ele>
        <time>2021-08-12T06:40:16Z</time>
      </trkpt>
      <trkpt lat="47.3181" lon="4.10122">
        <ele>535.59</ele>
        <time>2021-08-12T06:40:17Z</time>
      </trkpt>
      <trkpt lat="47.31807" lon="4.10114">
        <ele>535.11</ele>
        <time>2021-08-12T06:40:18Z</time>
      </trkpt>
      <trkpt lat="47.31807" lon="4.10105">
        <ele>534.15</ele>
        <time>2021-08-12T06:40:19Z</time>
      </trkpt>
      <trkpt lat="47.31808" lon="4.10096">
        <ele>533.67</ele>
        <time>2021-08-12T06:40:20Z</time>
      </trkpt>
      <trkpt lat="47.3181" lon="4.10087">
        <ele>533.19</ele>
        <time>2021-08-12T06:40:21Z</time>
      </trkpt>
      <trkpt lat="47.31812" lon="4.10077">
        <ele>532.71</ele>
        <time>2021-08-12T06:40:22Z</time>
      </trkpt>
      <trkpt lat="47.31828" lon="4.10003">
        <ele>531.27</ele>
        <time>2021-08-12T06:40:29Z</time>
      </trkpt>
      <trkpt lat="47.3184" lon="4.09951">
        <ele>531.27</ele>
        <time>2021-08-12T06:40:34Z</time>
      </trkpt>
      <trkpt lat="47.31841" lon="4.09941">
        <ele>531.27</ele>
        <time>2021-08-12T06:40:35Z</time>
      </trkpt>
      <trkpt lat="47.31843" lon="4.09884">
        <ele>531.27</ele>
        <time>2021-08-12T06:40:41Z</time>
      </trkpt>
      <trkpt lat="47.31834" lon="4.0984">
        <ele>531.27</ele>
        <time>2021-08-12T06:40:46Z</time>
      </trkpt>
      <trkpt lat="47.31831" lon="4.09832">
        <ele>531.27</ele>
        <time>2021-08-12T06:40:47Z</time>
      </trkpt>
      <trkpt lat="47.31824" lon="4.09817">
        <ele>531.27</ele>
        <time>2021-08-12T06:40:49Z</time>
      </trkpt>
      <trkpt lat="47.31821" lon="4.09811">
        <ele>530.79</ele>
        <time>2021-08-12T06:40:50Z</time>
      </trkpt>
      <trkpt lat="47.31817" lon="4.09805">
        <ele>530.79</ele>
        <time>2021-08-12T06:40:51Z</time>
      </trkpt>
      <trkpt lat="47.31804" lon="4.09785">
        <ele>530.79</ele>
        <time>2021-08-12T06:40:55Z</time>
      </trkpt>
      <trkpt lat="47.31801" lon="4.0978">
        <ele>530.79</ele>
        <time>2021-08-12T06:40:56Z</time>
      </trkpt>
      <trkpt lat="47.31795" lon="4.09769">
        <ele>530.79</ele>
        <time>2021-08-12T06:40:58Z</time>
      </trkpt>
      <trkpt lat="47.31779" lon="4.09731">
        <ele>532.71</ele>
        <time>2021-08-12T06:41:06Z</time>
      </trkpt>
      <trkpt lat="47.31768" lon="4.09687">
        <ele>535.11</ele>
        <time>2021-08-12T06:41:16Z</time>
      </trkpt>
      <trkpt lat="47.31768" lon="4.09653">
        <ele>536.55</ele>
        <time>2021-08-12T06:41:25Z</time>
      </trkpt>
      <trkpt lat="47.31773" lon="4.09618">
        <ele>537.99</ele>
        <time>2021-08-12T06:41:34Z</time>
      </trkpt>
      <trkpt lat="47.31782" lon="4.09586">
        <ele>538.48</ele>
        <time>2021-08-12T06:41:42Z</time>
      </trkpt>
      <trkpt lat="47.31796" lon="4.09542">
        <ele>538.96</ele>
        <time>2021-08-12T06:41:52Z</time>
      </trkpt>
      <trkpt lat="47.31806" lon="4.09506">
        <ele>538.96</ele>
        <time>2021-08-12T06:42:01Z</time>
      </trkpt>
      <trkpt lat="47.31806" lon="4.09495">
        <ele>539.92</ele>
        <time>2021-08-12T06:42:04Z</time>
      </trkpt>
      <trkpt lat="47.31805" lon="4.09492">
        <ele>539.92</ele>
        <time>2021-08-12T06:42:05Z</time>
      </trkpt>
      <trkpt lat="47.31804" lon="4.09487">
        <ele>539.92</ele>
        <time>2021-08-12T06:42:11Z</time>
      </trkpt>
      <trkpt lat="47.31803" lon="4.09487">
        <ele>539.44</ele>
        <time>2021-08-12T06:42:27Z</time>
      </trkpt>
      <trkpt lat="47.31803" lon="4.09487">
        <ele>539.44</ele>
        <time>2021-08-12T06:42:48Z</time>
      </trkpt>
      <trkpt lat="47.31802" lon="4.09487">
        <ele>539.44</ele>
        <time>2021-08-12T06:43:09Z</time>
      </trkpt>
      <trkpt lat="47.31802" lon="4.09486">
        <ele>539.44</ele>
        <time>2021-08-12T06:43:30Z</time>
      </trkpt>
      <trkpt lat="47.31801" lon="4.09486">
        <ele>539.44</ele>
        <time>2021-08-12T06:43:43Z</time>
      </trkpt>
      <trkpt lat="47.31799" lon="4.09486">
        <ele>539.44</ele>
        <time>2021-08-12T06:44:02Z</time>
      </trkpt>
      <trkpt lat="47.31803" lon="4.09487">
        <ele>539.44</ele>
        <time>2021-08-12T06:44:17Z</time>
      </trkpt>
      <trkpt lat="47.31801" lon="4.09485">
        <ele>539.44</ele>
        <time>2021-08-12T06:44:37Z</time>
      </trkpt>
      <trkpt lat="47.31802" lon="4.09486">
        <ele>539.44</ele>
        <time>2021-08-12T06:45:02Z</time>
      </trkpt>
      <trkpt lat="47.318" lon="4.09484">
        <ele>539.44</ele>
        <time>2021-08-12T06:45:23Z</time>
      </trkpt>
      <trkpt lat="47.31799" lon="4.09485">
        <ele>539.44</ele>
        <time>2021-08-12T06:45:34Z</time>
      </trkpt>
      <trkpt lat="47.31799" lon="4.09485">
        <ele>539.92</ele>
        <time>2021-08-12T06:45:44Z</time>
      </trkpt>
      <trkpt lat="47.31801" lon="4.0949">
        <ele>539.92</ele>
        <time>2021-08-12T06:45:58Z</time>
      </trkpt>
      <trkpt lat="47.318" lon="4.09488">
        <ele>539.92</ele>
        <time>2021-08-12T06:46:15Z</time>
      </trkpt>
      <trkpt lat="47.318" lon="4.09485">
        <ele>539.92</ele>
        <time>2021-08-12T06:46:17Z</time>
      </trkpt>
      <trkpt lat="47.31799" lon="4.09483">
        <ele>539.92</ele>
        <time>2021-08-12T06:46:19Z</time>
      </trkpt>
      <trkpt lat="47.31798" lon="4.09483">
        <ele>539.92</ele>
        <time>2021-08-12T06:46:20Z</time>
      </trkpt>
      <trkpt lat="47.31796" lon="4.09483">
        <ele>539.92</ele>
        <time>2021-08-12T06:46:21Z</time>
      </trkpt>
      <trkpt lat="47.31785" lon="4.09475">
        <ele>540.88</ele>
        <time>2021-08-12T06:46:28Z</time>
      </trkpt>
      <trkpt lat="47.31781" lon="4.0947">
        <ele>541.36</ele>
        <time>2021-08-12T06:46:31Z</time>
      </trkpt>
      <trkpt lat="47.31768" lon="4.0946">
        <ele>542.8</ele>
        <time>2021-08-12T06:46:40Z</time>
      </trkpt>
      <trkpt lat="47.31756" lon="4.09452">
        <ele>544.24</ele>
        <time>2021-08-12T06:46:48Z</time>
      </trkpt>
      <trkpt lat="47.31745" lon="4.09444">
        <ele>546.17</ele>
        <time>2021-08-12T06:46:58Z</time>
      </trkpt>
      <trkpt lat="47.3174" lon="4.09442">
        <ele>546.17</ele>
        <time>2021-08-12T06:47:02Z</time>
      </trkpt>
      <trkpt lat="47.31739" lon="4.09441">
        <ele>546.17</ele>
        <time>2021-08-12T06:47:03Z</time>
      </trkpt>
      <trkpt lat="47.31729" lon="4.09435">
        <ele>547.61</ele>
        <time>2021-08-12T06:47:12Z</time>
      </trkpt>
      <trkpt lat="47.3172" lon="4.09431">
        <ele>549.05</ele>
        <time>2021-08-12T06:47:20Z</time>
      </trkpt>
      <trkpt lat="47.31707" lon="4.09424">
        <ele>550.49</ele>
        <time>2021-08-12T06:47:30Z</time>
      </trkpt>
      <trkpt lat="47.31699" lon="4.09421">
        <ele>551.93</ele>
        <time>2021-08-12T06:47:36Z</time>
      </trkpt>
      <trkpt lat="47.31688" lon="4.09417">
        <ele>546.65</ele>
        <time>2021-08-12T06:47:44Z</time>
      </trkpt>
      <trkpt lat="47.31681" lon="4.09415">
        <ele>550.01</ele>
        <time>2021-08-12T06:47:47Z</time>
      </trkpt>
      <trkpt lat="47.31679" lon="4.09413">
        <ele>550.01</ele>
        <time>2021-08-12T06:47:48Z</time>
      </trkpt>
      <trkpt lat="47.3167" lon="4.09411">
        <ele>550.01</ele>
        <time>2021-08-12T06:47:52Z</time>
      </trkpt>
      <trkpt lat="47.3167" lon="4.0941">
        <ele>550.01</ele>
        <time>2021-08-12T06:47:53Z</time>
      </trkpt>
      <trkpt lat="47.31668" lon="4.09409">
        <ele>550.01</ele>
        <time>2021-08-12T06:47:54Z</time>
      </trkpt>
      <trkpt lat="47.31667" lon="4.09407">
        <ele>550.01</ele>
        <time>2021-08-12T06:47:55Z</time>
      </trkpt>
      <trkpt lat="47.31665" lon="4.09406">
        <ele>550.01</ele>
        <time>2021-08-12T06:47:56Z</time>
      </trkpt>
      <trkpt lat="47.31663" lon="4.09406">
        <ele>550.01</ele>
        <time>2021-08-12T06:47:57Z</time>
      </trkpt>
      <trkpt lat="47.3166" lon="4.09404">
        <ele>551.45</ele>
        <time>2021-08-12T06:47:59Z</time>
      </trkpt>
      <trkpt lat="47.31639" lon="4.09394">
        <ele>551.93</ele>
        <time>2021-08-12T06:48:09Z</time>
      </trkpt>
      <trkpt lat="47.31623" lon="4.09385">
        <ele>552.9</ele>
        <time>2021-08-12T06:48:16Z</time>
      </trkpt>
      <trkpt lat="47.31601" lon="4.09381">
        <ele>553.86</ele>
        <time>2021-08-12T06:48:25Z</time>
      </trkpt>
      <trkpt lat="47.31574" lon="4.09377">
        <ele>554.34</ele>
        <time>2021-08-12T06:48:36Z</time>
      </trkpt>
      <trkpt lat="47.31545" lon="4.09375">
        <ele>555.78</ele>
        <time>2021-08-12T06:48:48Z</time>
      </trkpt>
      <trkpt lat="47.31514" lon="4.09374">
        <ele>556.74</ele>
        <time>2021-08-12T06:49:01Z</time>
      </trkpt>
      <trkpt lat="47.31487" lon="4.0937">
        <ele>557.7</ele>
        <time>2021-08-12T06:49:12Z</time>
      </trkpt>
      <trkpt lat="47.31459" lon="4.0936">
        <ele>559.14</ele>
        <time>2021-08-12T06:49:24Z</time>
      </trkpt>
      <trkpt lat="47.31438" lon="4.09349">
        <ele>560.11</ele>
        <time>2021-08-12T06:49:34Z</time>
      </trkpt>
      <trkpt lat="47.31424" lon="4.09336">
        <ele>561.07</ele>
        <time>2021-08-12T06:49:42Z</time>
      </trkpt>
      <trkpt lat="47.31408" lon="4.09316">
        <ele>562.03</ele>
        <time>2021-08-12T06:49:51Z</time>
      </trkpt>
      <trkpt lat="47.31392" lon="4.09296">
        <ele>563.47</ele>
        <time>2021-08-12T06:50:00Z</time>
      </trkpt>
      <trkpt lat="47.31374" lon="4.09274">
        <ele>564.43</ele>
        <time>2021-08-12T06:50:10Z</time>
      </trkpt>
      <trkpt lat="47.31357" lon="4.09255">
        <ele>565.39</ele>
        <time>2021-08-12T06:50:18Z</time>
      </trkpt>
      <trkpt lat="47.31337" lon="4.09232">
        <ele>566.83</ele>
        <time>2021-08-12T06:50:28Z</time>
      </trkpt>
      <trkpt lat="47.31321" lon="4.0921">
        <ele>567.32</ele>
        <time>2021-08-12T06:50:37Z</time>
      </trkpt>
      <trkpt lat="47.3131" lon="4.09195">
        <ele>567.8</ele>
        <time>2021-08-12T06:50:43Z</time>
      </trkpt>
      <trkpt lat="47.31297" lon="4.09175">
        <ele>568.76</ele>
        <time>2021-08-12T06:50:51Z</time>
      </trkpt>
      <trkpt lat="47.31284" lon="4.09146">
        <ele>569.72</ele>
        <time>2021-08-12T06:51:01Z</time>
      </trkpt>
      <trkpt lat="47.31277" lon="4.09122">
        <ele>571.16</ele>
        <time>2021-08-12T06:51:09Z</time>
      </trkpt>
      <trkpt lat="47.31265" lon="4.09098">
        <ele>572.12</ele>
        <time>2021-08-12T06:51:18Z</time>
      </trkpt>
      <trkpt lat="47.31261" lon="4.09079">
        <ele>572.6</ele>
        <time>2021-08-12T06:51:24Z</time>
      </trkpt>
      <trkpt lat="47.31256" lon="4.09062">
        <ele>570.2</ele>
        <time>2021-08-12T06:51:31Z</time>
      </trkpt>
      <trkpt lat="47.31254" lon="4.09051">
        <ele>569.72</ele>
        <time>2021-08-12T06:51:35Z</time>
      </trkpt>
      <trkpt lat="47.31254" lon="4.09046">
        <ele>568.76</ele>
        <time>2021-08-12T06:51:36Z</time>
      </trkpt>
      <trkpt lat="47.31255" lon="4.09042">
        <ele>569.24</ele>
        <time>2021-08-12T06:51:37Z</time>
      </trkpt>
      <trkpt lat="47.31257" lon="4.09039">
        <ele>568.28</ele>
        <time>2021-08-12T06:51:38Z</time>
      </trkpt>
      <trkpt lat="47.31258" lon="4.09036">
        <ele>568.28</ele>
        <time>2021-08-12T06:51:39Z</time>
      </trkpt>
      <trkpt lat="47.3126" lon="4.09033">
        <ele>568.28</ele>
        <time>2021-08-12T06:51:40Z</time>
      </trkpt>
      <trkpt lat="47.31267" lon="4.09016">
        <ele>567.8</ele>
        <time>2021-08-12T06:51:47Z</time>
      </trkpt>
      <trkpt lat="47.31274" lon="4.09001">
        <ele>567.8</ele>
        <time>2021-08-12T06:51:54Z</time>
      </trkpt>
      <trkpt lat="47.31272" lon="4.08983">
        <ele>567.8</ele>
        <time>2021-08-12T06:52:01Z</time>
      </trkpt>
      <trkpt lat="47.31265" lon="4.08963">
        <ele>567.8</ele>
        <time>2021-08-12T06:52:08Z</time>
      </trkpt>
      <trkpt lat="47.31262" lon="4.08958">
        <ele>569.24</ele>
        <time>2021-08-12T06:52:11Z</time>
      </trkpt>
      <trkpt lat="47.31258" lon="4.08944">
        <ele>570.68</ele>
        <time>2021-08-12T06:52:18Z</time>
      </trkpt>
      <trkpt lat="47.31257" lon="4.08926">
        <ele>571.64</ele>
        <time>2021-08-12T06:52:26Z</time>
      </trkpt>
      <trkpt lat="47.31257" lon="4.08924">
        <ele>571.64</ele>
        <time>2021-08-12T06:52:27Z</time>
      </trkpt>
      <trkpt lat="47.31257" lon="4.08921">
        <ele>571.64</ele>
        <time>2021-08-12T06:52:33Z</time>
      </trkpt>
      <trkpt lat="47.31258" lon="4.0891">
        <ele>572.6</ele>
        <time>2021-08-12T06:52:42Z</time>
      </trkpt>
      <trkpt lat="47.31258" lon="4.08899">
        <ele>573.56</ele>
        <time>2021-08-12T06:52:50Z</time>
      </trkpt>
      <trkpt lat="47.31259" lon="4.0889">
        <ele>575.01</ele>
        <time>2021-08-12T06:52:58Z</time>
      </trkpt>
      <trkpt lat="47.3126" lon="4.08881">
        <ele>575.97</ele>
        <time>2021-08-12T06:53:07Z</time>
      </trkpt>
      <trkpt lat="47.31262" lon="4.08873">
        <ele>576.45</ele>
        <time>2021-08-12T06:53:15Z</time>
      </trkpt>
      <trkpt lat="47.31263" lon="4.08873">
        <ele>576.93</ele>
        <time>2021-08-12T06:53:16Z</time>
      </trkpt>
      <trkpt lat="47.31266" lon="4.08871">
        <ele>577.89</ele>
        <time>2021-08-12T06:53:22Z</time>
      </trkpt>
      <trkpt lat="47.31272" lon="4.08865">
        <ele>578.37</ele>
        <time>2021-08-12T06:53:29Z</time>
      </trkpt>
      <trkpt lat="47.3128" lon="4.08856">
        <ele>579.33</ele>
        <time>2021-08-12T06:53:40Z</time>
      </trkpt>
      <trkpt lat="47.31283" lon="4.08849">
        <ele>579.81</ele>
        <time>2021-08-12T06:53:48Z</time>
      </trkpt>
      <trkpt lat="47.31286" lon="4.08838">
        <ele>580.77</ele>
        <time>2021-08-12T06:53:55Z</time>
      </trkpt>
      <trkpt lat="47.3129" lon="4.08829">
        <ele>582.22</ele>
        <time>2021-08-12T06:54:03Z</time>
      </trkpt>
      <trkpt lat="47.31291" lon="4.08824">
        <ele>581.73</ele>
        <time>2021-08-12T06:54:06Z</time>
      </trkpt>
      <trkpt lat="47.31292" lon="4.08816">
        <ele>582.22</ele>
        <time>2021-08-12T06:54:12Z</time>
      </trkpt>
      <trkpt lat="47.31293" lon="4.08808">
        <ele>582.7</ele>
        <time>2021-08-12T06:54:20Z</time>
      </trkpt>
      <trkpt lat="47.31294" lon="4.08805">
        <ele>583.18</ele>
        <time>2021-08-12T06:54:22Z</time>
      </trkpt>
      <trkpt lat="47.31294" lon="4.08803">
        <ele>583.18</ele>
        <time>2021-08-12T06:54:23Z</time>
      </trkpt>
      <trkpt lat="47.31295" lon="4.088">
        <ele>583.66</ele>
        <time>2021-08-12T06:54:24Z</time>
      </trkpt>
      <trkpt lat="47.31301" lon="4.08781">
        <ele>584.14</ele>
        <time>2021-08-12T06:54:33Z</time>
      </trkpt>
      <trkpt lat="47.31306" lon="4.08764">
        <ele>584.62</ele>
        <time>2021-08-12T06:54:41Z</time>
      </trkpt>
      <trkpt lat="47.31308" lon="4.08751">
        <ele>585.58</ele>
        <time>2021-08-12T06:54:47Z</time>
      </trkpt>
      <trkpt lat="47.31308" lon="4.08749">
        <ele>586.06</ele>
        <time>2021-08-12T06:54:48Z</time>
      </trkpt>
      <trkpt lat="47.31308" lon="4.08747">
        <ele>586.06</ele>
        <time>2021-08-12T06:54:49Z</time>
      </trkpt>
      <trkpt lat="47.31308" lon="4.08745">
        <ele>586.06</ele>
        <time>2021-08-12T06:54:50Z</time>
      </trkpt>
      <trkpt lat="47.31307" lon="4.08743">
        <ele>586.54</ele>
        <time>2021-08-12T06:54:51Z</time>
      </trkpt>
      <trkpt lat="47.31305" lon="4.08733">
        <ele>587.02</ele>
        <time>2021-08-12T06:54:55Z</time>
      </trkpt>
      <trkpt lat="47.313" lon="4.08717">
        <ele>587.5</ele>
        <time>2021-08-12T06:55:03Z</time>
      </trkpt>
      <trkpt lat="47.31299" lon="4.0871">
        <ele>587.98</ele>
        <time>2021-08-12T06:55:06Z</time>
      </trkpt>
      <trkpt lat="47.31292" lon="4.08689">
        <ele>588.46</ele>
        <time>2021-08-12T06:55:14Z</time>
      </trkpt>
      <trkpt lat="47.3129" lon="4.08667">
        <ele>588.95</ele>
        <time>2021-08-12T06:55:20Z</time>
      </trkpt>
      <trkpt lat="47.31292" lon="4.0865">
        <ele>589.43</ele>
        <time>2021-08-12T06:55:26Z</time>
      </trkpt>
      <trkpt lat="47.31293" lon="4.0864">
        <ele>589.43</ele>
        <time>2021-08-12T06:55:29Z</time>
      </trkpt>
      <trkpt lat="47.31291" lon="4.08637">
        <ele>589.91</ele>
        <time>2021-08-12T06:55:30Z</time>
      </trkpt>
      <trkpt lat="47.31291" lon="4.08634">
        <ele>590.39</ele>
        <time>2021-08-12T06:55:31Z</time>
      </trkpt>
      <trkpt lat="47.31291" lon="4.08631">
        <ele>589.91</ele>
        <time>2021-08-12T06:55:32Z</time>
      </trkpt>
      <trkpt lat="47.3129" lon="4.08625">
        <ele>590.39</ele>
        <time>2021-08-12T06:55:33Z</time>
      </trkpt>
      <trkpt lat="47.31289" lon="4.0862">
        <ele>590.39</ele>
        <time>2021-08-12T06:55:34Z</time>
      </trkpt>
      <trkpt lat="47.3129" lon="4.08616">
        <ele>590.39</ele>
        <time>2021-08-12T06:55:35Z</time>
      </trkpt>
      <trkpt lat="47.31291" lon="4.08612">
        <ele>590.39</ele>
        <time>2021-08-12T06:55:36Z</time>
      </trkpt>
      <trkpt lat="47.31292" lon="4.08608">
        <ele>590.39</ele>
        <time>2021-08-12T06:55:37Z</time>
      </trkpt>
      <trkpt lat="47.31292" lon="4.08604">
        <ele>590.39</ele>
        <time>2021-08-12T06:55:38Z</time>
      </trkpt>
      <trkpt lat="47.31292" lon="4.08598">
        <ele>590.39</ele>
        <time>2021-08-12T06:55:40Z</time>
      </trkpt>
      <trkpt lat="47.31293" lon="4.08595">
        <ele>590.87</ele>
        <time>2021-08-12T06:55:41Z</time>
      </trkpt>
      <trkpt lat="47.31297" lon="4.08578">
        <ele>591.35</ele>
        <time>2021-08-12T06:55:49Z</time>
      </trkpt>
      <trkpt lat="47.31297" lon="4.08561">
        <ele>591.83</ele>
        <time>2021-08-12T06:55:55Z</time>
      </trkpt>
      <trkpt lat="47.31297" lon="4.08544">
        <ele>593.27</ele>
        <time>2021-08-12T06:56:01Z</time>
      </trkpt>
      <trkpt lat="47.31297" lon="4.08542">
        <ele>593.27</ele>
        <time>2021-08-12T06:56:02Z</time>
      </trkpt>
      <trkpt lat="47.31297" lon="4.0854">
        <ele>593.27</ele>
        <time>2021-08-12T06:56:03Z</time>
      </trkpt>
      <trkpt lat="47.31297" lon="4.08537">
        <ele>593.75</ele>
        <time>2021-08-12T06:56:04Z</time>
      </trkpt>
      <trkpt lat="47.31297" lon="4.08534">
        <ele>593.75</ele>
        <time>2021-08-12T06:56:05Z</time>
      </trkpt>
      <trkpt lat="47.313" lon="4.08516">
        <ele>595.19</ele>
        <time>2021-08-12T06:56:13Z</time>
      </trkpt>
      <trkpt lat="47.31304" lon="4.08495">
        <ele>597.12</ele>
        <time>2021-08-12T06:56:20Z</time>
      </trkpt>
      <trkpt lat="47.31309" lon="4.0848">
        <ele>598.08</ele>
        <time>2021-08-12T06:56:27Z</time>
      </trkpt>
      <trkpt lat="47.31311" lon="4.08475">
        <ele>598.08</ele>
        <time>2021-08-12T06:56:33Z</time>
      </trkpt>
      <trkpt lat="47.31316" lon="4.08464">
        <ele>599.04</ele>
        <time>2021-08-12T06:56:42Z</time>
      </trkpt>
      <trkpt lat="47.31319" lon="4.08455">
        <ele>600.48</ele>
        <time>2021-08-12T06:56:49Z</time>
      </trkpt>
      <trkpt lat="47.31319" lon="4.08445">
        <ele>601.44</ele>
        <time>2021-08-12T06:56:57Z</time>
      </trkpt>
      <trkpt lat="47.31321" lon="4.08432">
        <ele>602.4</ele>
        <time>2021-08-12T06:57:07Z</time>
      </trkpt>
      <trkpt lat="47.31322" lon="4.08421">
        <ele>603.36</ele>
        <time>2021-08-12T06:57:15Z</time>
      </trkpt>
      <trkpt lat="47.31325" lon="4.08412">
        <ele>605.29</ele>
        <time>2021-08-12T06:57:25Z</time>
      </trkpt>
      <trkpt lat="47.31327" lon="4.08401">
        <ele>606.25</ele>
        <time>2021-08-12T06:57:33Z</time>
      </trkpt>
      <trkpt lat="47.3133" lon="4.08389">
        <ele>607.21</ele>
        <time>2021-08-12T06:57:42Z</time>
      </trkpt>
      <trkpt lat="47.31335" lon="4.08376">
        <ele>608.65</ele>
        <time>2021-08-12T06:57:52Z</time>
      </trkpt>
      <trkpt lat="47.31339" lon="4.0837">
        <ele>609.13</ele>
        <time>2021-08-12T06:57:58Z</time>
      </trkpt>
      <trkpt lat="47.31343" lon="4.08358">
        <ele>610.09</ele>
        <time>2021-08-12T06:58:06Z</time>
      </trkpt>
      <trkpt lat="47.31346" lon="4.08352">
        <ele>611.54</ele>
        <time>2021-08-12T06:58:13Z</time>
      </trkpt>
      <trkpt lat="47.31347" lon="4.08348">
        <ele>611.54</ele>
        <time>2021-08-12T06:58:19Z</time>
      </trkpt>
      <trkpt lat="47.31347" lon="4.08345">
        <ele>611.54</ele>
        <time>2021-08-12T06:58:21Z</time>
      </trkpt>
      <trkpt lat="47.31348" lon="4.08342">
        <ele>612.02</ele>
        <time>2021-08-12T06:58:22Z</time>
      </trkpt>
      <trkpt lat="47.31348" lon="4.0834">
        <ele>612.02</ele>
        <time>2021-08-12T06:58:23Z</time>
      </trkpt>
      <trkpt lat="47.31348" lon="4.08325">
        <ele>612.98</ele>
        <time>2021-08-12T06:58:29Z</time>
      </trkpt>
      <trkpt lat="47.31343" lon="4.0831">
        <ele>613.94</ele>
        <time>2021-08-12T06:58:36Z</time>
      </trkpt>
      <trkpt lat="47.31342" lon="4.08308">
        <ele>613.94</ele>
        <time>2021-08-12T06:58:37Z</time>
      </trkpt>
      <trkpt lat="47.3134" lon="4.08301">
        <ele>614.42</ele>
        <time>2021-08-12T06:58:40Z</time>
      </trkpt>
      <trkpt lat="47.31337" lon="4.08286">
        <ele>614.9</ele>
        <time>2021-08-12T06:58:46Z</time>
      </trkpt>
      <trkpt lat="47.31337" lon="4.08283">
        <ele>614.9</ele>
        <time>2021-08-12T06:58:47Z</time>
      </trkpt>
      <trkpt lat="47.31338" lon="4.0826">
        <ele>616.34</ele>
        <time>2021-08-12T06:58:55Z</time>
      </trkpt>
      <trkpt lat="47.31341" lon="4.08237">
        <ele>617.3</ele>
        <time>2021-08-12T06:59:03Z</time>
      </trkpt>
      <trkpt lat="47.31339" lon="4.08208">
        <ele>618.26</ele>
        <time>2021-08-12T06:59:13Z</time>
      </trkpt>
      <trkpt lat="47.31336" lon="4.08182">
        <ele>618.26</ele>
        <time>2021-08-12T06:59:20Z</time>
      </trkpt>
      <trkpt lat="47.31334" lon="4.08155">
        <ele>618.75</ele>
        <time>2021-08-12T06:59:27Z</time>
      </trkpt>
      <trkpt lat="47.31335" lon="4.08154">
        <ele>618.75</ele>
        <time>2021-08-12T06:59:40Z</time>
      </trkpt>
      <trkpt lat="47.31333" lon="4.08154">
        <ele>618.75</ele>
        <time>2021-08-12T06:59:54Z</time>
      </trkpt>
      <trkpt lat="47.31334" lon="4.08154">
        <ele>618.75</ele>
        <time>2021-08-12T07:00:15Z</time>
      </trkpt>
      <trkpt lat="47.31334" lon="4.08152">
        <ele>618.75</ele>
        <time>2021-08-12T07:00:25Z</time>
      </trkpt>
      <trkpt lat="47.31335" lon="4.08151">
        <ele>618.75</ele>
        <time>2021-08-12T07:00:42Z</time>
      </trkpt>
      <trkpt lat="47.31337" lon="4.08155">
        <ele>618.75</ele>
        <time>2021-08-12T07:00:57Z</time>
      </trkpt>
      <trkpt lat="47.31335" lon="4.08152">
        <ele>618.75</ele>
        <time>2021-08-12T07:01:11Z</time>
      </trkpt>
      <trkpt lat="47.31334" lon="4.0815">
        <ele>618.75</ele>
        <time>2021-08-12T07:01:12Z</time>
      </trkpt>
      <trkpt lat="47.31334" lon="4.08147">
        <ele>618.75</ele>
        <time>2021-08-12T07:01:13Z</time>
      </trkpt>
      <trkpt lat="47.31333" lon="4.08144">
        <ele>618.75</ele>
        <time>2021-08-12T07:01:14Z</time>
      </trkpt>
      <trkpt lat="47.31333" lon="4.08141">
        <ele>618.75</ele>
        <time>2021-08-12T07:01:15Z</time>
      </trkpt>
      <trkpt lat="47.31334" lon="4.08137">
        <ele>618.75</ele>
        <time>2021-08-12T07:01:16Z</time>
      </trkpt>
      <trkpt lat="47.31335" lon="4.08107">
        <ele>618.75</ele>
        <time>2021-08-12T07:01:24Z</time>
      </trkpt>
      <trkpt lat="47.31335" lon="4.08076">
        <ele>618.75</ele>
        <time>2021-08-12T07:01:31Z</time>
      </trkpt>
      <trkpt lat="47.31326" lon="4.08041">
        <ele>619.23</ele>
        <time>2021-08-12T07:01:39Z</time>
      </trkpt>
      <trkpt lat="47.31305" lon="4.08011">
        <ele>619.23</ele>
        <time>2021-08-12T07:01:48Z</time>
      </trkpt>
      <trkpt lat="47.31298" lon="4.08003">
        <ele>619.71</ele>
        <time>2021-08-12T07:01:53Z</time>
      </trkpt>
      <trkpt lat="47.31296" lon="4.08">
        <ele>619.71</ele>
        <time>2021-08-12T07:02:02Z</time>
      </trkpt>
      <trkpt lat="47.31282" lon="4.07986">
        <ele>619.71</ele>
        <time>2021-08-12T07:02:08Z</time>
      </trkpt>
      <trkpt lat="47.31266" lon="4.07967">
        <ele>620.19</ele>
        <time>2021-08-12T07:02:15Z</time>
      </trkpt>
      <trkpt lat="47.31248" lon="4.07946">
        <ele>621.15</ele>
        <time>2021-08-12T07:02:22Z</time>
      </trkpt>
      <trkpt lat="47.31228" lon="4.0792">
        <ele>621.15</ele>
        <time>2021-08-12T07:02:30Z</time>
      </trkpt>
      <trkpt lat="47.31209" lon="4.07901">
        <ele>621.15</ele>
        <time>2021-08-12T07:02:36Z</time>
      </trkpt>
      <trkpt lat="47.31181" lon="4.0788">
        <ele>621.63</ele>
        <time>2021-08-12T07:02:44Z</time>
      </trkpt>
      <trkpt lat="47.31155" lon="4.07872">
        <ele>622.11</ele>
        <time>2021-08-12T07:02:51Z</time>
      </trkpt>
      <trkpt lat="47.31134" lon="4.07863">
        <ele>622.59</ele>
        <time>2021-08-12T07:02:57Z</time>
      </trkpt>
      <trkpt lat="47.31107" lon="4.07848">
        <ele>623.07</ele>
        <time>2021-08-12T07:03:05Z</time>
      </trkpt>
      <trkpt lat="47.31076" lon="4.07831">
        <ele>623.07</ele>
        <time>2021-08-12T07:03:14Z</time>
      </trkpt>
      <trkpt lat="47.31041" lon="4.07813">
        <ele>623.55</ele>
        <time>2021-08-12T07:03:24Z</time>
      </trkpt>
      <trkpt lat="47.31017" lon="4.07802">
        <ele>624.51</ele>
        <time>2021-08-12T07:03:31Z</time>
      </trkpt>
      <trkpt lat="47.30997" lon="4.07798">
        <ele>624.99</ele>
        <time>2021-08-12T07:03:37Z</time>
      </trkpt>
      <trkpt lat="47.30968" lon="4.07801">
        <ele>625.47</ele>
        <time>2021-08-12T07:03:45Z</time>
      </trkpt>
      <trkpt lat="47.30939" lon="4.07804">
        <ele>625.96</ele>
        <time>2021-08-12T07:03:53Z</time>
      </trkpt>
      <trkpt lat="47.30903" lon="4.07799">
        <ele>627.4</ele>
        <time>2021-08-12T07:04:03Z</time>
      </trkpt>
      <trkpt lat="47.30885" lon="4.07789">
        <ele>627.88</ele>
        <time>2021-08-12T07:04:10Z</time>
      </trkpt>
      <trkpt lat="47.3086" lon="4.07775">
        <ele>628.36</ele>
        <time>2021-08-12T07:04:19Z</time>
      </trkpt>
      <trkpt lat="47.30833" lon="4.07764">
        <ele>628.84</ele>
        <time>2021-08-12T07:04:27Z</time>
      </trkpt>
      <trkpt lat="47.30803" lon="4.07758">
        <ele>628.84</ele>
        <time>2021-08-12T07:04:36Z</time>
      </trkpt>
      <trkpt lat="47.30773" lon="4.07757">
        <ele>628.84</ele>
        <time>2021-08-12T07:04:44Z</time>
      </trkpt>
      <trkpt lat="47.30744" lon="4.07757">
        <ele>629.8</ele>
        <time>2021-08-12T07:04:53Z</time>
      </trkpt>
      <trkpt lat="47.30715" lon="4.07762">
        <ele>629.8</ele>
        <time>2021-08-12T07:05:01Z</time>
      </trkpt>
      <trkpt lat="47.30689" lon="4.07767">
        <ele>630.28</ele>
        <time>2021-08-12T07:05:08Z</time>
      </trkpt>
      <trkpt lat="47.30668" lon="4.07771">
        <ele>631.72</ele>
        <time>2021-08-12T07:05:16Z</time>
      </trkpt>
      <trkpt lat="47.30649" lon="4.07771">
        <ele>632.68</ele>
        <time>2021-08-12T07:05:23Z</time>
      </trkpt>
      <trkpt lat="47.30621" lon="4.0777">
        <ele>633.17</ele>
        <time>2021-08-12T07:05:32Z</time>
      </trkpt>
      <trkpt lat="47.30594" lon="4.07776">
        <ele>633.17</ele>
        <time>2021-08-12T07:05:40Z</time>
      </trkpt>
      <trkpt lat="47.3056" lon="4.07787">
        <ele>633.17</ele>
        <time>2021-08-12T07:05:47Z</time>
      </trkpt>
      <trkpt lat="47.3053" lon="4.078">
        <ele>633.17</ele>
        <time>2021-08-12T07:05:55Z</time>
      </trkpt>
      <trkpt lat="47.30511" lon="4.07809">
        <ele>633.65</ele>
        <time>2021-08-12T07:06:02Z</time>
      </trkpt>
      <trkpt lat="47.30479" lon="4.0782">
        <ele>634.61</ele>
        <time>2021-08-12T07:06:11Z</time>
      </trkpt>
      <trkpt lat="47.30451" lon="4.07833">
        <ele>635.57</ele>
        <time>2021-08-12T07:06:17Z</time>
      </trkpt>
      <trkpt lat="47.30412" lon="4.07844">
        <ele>636.05</ele>
        <time>2021-08-12T07:06:25Z</time>
      </trkpt>
      <trkpt lat="47.30387" lon="4.0785">
        <ele>636.53</ele>
        <time>2021-08-12T07:06:31Z</time>
      </trkpt>
      <trkpt lat="47.30361" lon="4.07855">
        <ele>637.01</ele>
        <time>2021-08-12T07:06:39Z</time>
      </trkpt>
      <trkpt lat="47.3034" lon="4.07851">
        <ele>637.49</ele>
        <time>2021-08-12T07:06:46Z</time>
      </trkpt>
      <trkpt lat="47.30311" lon="4.07851">
        <ele>638.45</ele>
        <time>2021-08-12T07:06:54Z</time>
      </trkpt>
      <trkpt lat="47.30292" lon="4.07852">
        <ele>638.93</ele>
        <time>2021-08-12T07:07:00Z</time>
      </trkpt>
      <trkpt lat="47.30268" lon="4.07856">
        <ele>639.89</ele>
        <time>2021-08-12T07:07:08Z</time>
      </trkpt>
      <trkpt lat="47.30244" lon="4.07865">
        <ele>640.86</ele>
        <time>2021-08-12T07:07:16Z</time>
      </trkpt>
      <trkpt lat="47.30228" lon="4.07873">
        <ele>641.34</ele>
        <time>2021-08-12T07:07:22Z</time>
      </trkpt>
      <trkpt lat="47.30213" lon="4.07884">
        <ele>641.82</ele>
        <time>2021-08-12T07:07:29Z</time>
      </trkpt>
      <trkpt lat="47.30198" lon="4.07895">
        <ele>641.82</ele>
        <time>2021-08-12T07:07:35Z</time>
      </trkpt>
      <trkpt lat="47.30179" lon="4.07895">
        <ele>641.82</ele>
        <time>2021-08-12T07:07:41Z</time>
      </trkpt>
      <trkpt lat="47.30163" lon="4.07875">
        <ele>641.82</ele>
        <time>2021-08-12T07:07:47Z</time>
      </trkpt>
      <trkpt lat="47.30148" lon="4.0785">
        <ele>642.78</ele>
        <time>2021-08-12T07:07:54Z</time>
      </trkpt>
      <trkpt lat="47.30135" lon="4.07822">
        <ele>643.74</ele>
        <time>2021-08-12T07:08:02Z</time>
      </trkpt>
      <trkpt lat="47.30123" lon="4.07795">
        <ele>643.74</ele>
        <time>2021-08-12T07:08:08Z</time>
      </trkpt>
      <trkpt lat="47.30113" lon="4.07774">
        <ele>643.74</ele>
        <time>2021-08-12T07:08:13Z</time>
      </trkpt>
      <trkpt lat="47.30098" lon="4.07739">
        <ele>643.74</ele>
        <time>2021-08-12T07:08:20Z</time>
      </trkpt>
      <trkpt lat="47.30085" lon="4.07711">
        <ele>642.78</ele>
        <time>2021-08-12T07:08:25Z</time>
      </trkpt>
      <trkpt lat="47.30072" lon="4.07683">
        <ele>641.82</ele>
        <time>2021-08-12T07:08:30Z</time>
      </trkpt>
      <trkpt lat="47.30056" lon="4.07635">
        <ele>641.34</ele>
        <time>2021-08-12T07:08:36Z</time>
      </trkpt>
      <trkpt lat="47.30053" lon="4.07628">
        <ele>641.34</ele>
        <time>2021-08-12T07:08:37Z</time>
      </trkpt>
      <trkpt lat="47.3004" lon="4.07595">
        <ele>640.38</ele>
        <time>2021-08-12T07:08:42Z</time>
      </trkpt>
      <trkpt lat="47.30037" lon="4.07591">
        <ele>640.38</ele>
        <time>2021-08-12T07:08:43Z</time>
      </trkpt>
      <trkpt lat="47.30027" lon="4.07592">
        <ele>639.89</ele>
        <time>2021-08-12T07:08:46Z</time>
      </trkpt>
      <trkpt lat="47.30026" lon="4.07596">
        <ele>639.89</ele>
        <time>2021-08-12T07:08:47Z</time>
      </trkpt>
      <trkpt lat="47.30026" lon="4.07599">
        <ele>639.89</ele>
        <time>2021-08-12T07:08:48Z</time>
      </trkpt>
      <trkpt lat="47.30025" lon="4.07604">
        <ele>639.89</ele>
        <time>2021-08-12T07:08:49Z</time>
      </trkpt>
      <trkpt lat="47.30024" lon="4.07607">
        <ele>639.89</ele>
        <time>2021-08-12T07:08:50Z</time>
      </trkpt>
      <trkpt lat="47.30023" lon="4.07611">
        <ele>639.89</ele>
        <time>2021-08-12T07:08:51Z</time>
      </trkpt>
      <trkpt lat="47.30012" lon="4.07643">
        <ele>640.38</ele>
        <time>2021-08-12T07:08:58Z</time>
      </trkpt>
      <trkpt lat="47.30004" lon="4.07661">
        <ele>640.38</ele>
        <time>2021-08-12T07:09:02Z</time>
      </trkpt>
      <trkpt lat="47.3" lon="4.07665">
        <ele>640.38</ele>
        <time>2021-08-12T07:09:03Z</time>
      </trkpt>
      <trkpt lat="47.29997" lon="4.07669">
        <ele>640.38</ele>
        <time>2021-08-12T07:09:04Z</time>
      </trkpt>
      <trkpt lat="47.29992" lon="4.07672">
        <ele>640.38</ele>
        <time>2021-08-12T07:09:05Z</time>
      </trkpt>
      <trkpt lat="47.29988" lon="4.07676">
        <ele>640.38</ele>
        <time>2021-08-12T07:09:06Z</time>
      </trkpt>
      <trkpt lat="47.29984" lon="4.07679">
        <ele>640.38</ele>
        <time>2021-08-12T07:09:07Z</time>
      </trkpt>
      <trkpt lat="47.29967" lon="4.07692">
        <ele>640.38</ele>
        <time>2021-08-12T07:09:11Z</time>
      </trkpt>
      <trkpt lat="47.29939" lon="4.07708">
        <ele>641.34</ele>
        <time>2021-08-12T07:09:18Z</time>
      </trkpt>
      <trkpt lat="47.29923" lon="4.07708">
        <ele>641.34</ele>
        <time>2021-08-12T07:09:22Z</time>
      </trkpt>
      <trkpt lat="47.29906" lon="4.07702">
        <ele>641.82</ele>
        <time>2021-08-12T07:09:26Z</time>
      </trkpt>
      <trkpt lat="47.29875" lon="4.07678">
        <ele>641.82</ele>
        <time>2021-08-12T07:09:34Z</time>
      </trkpt>
      <trkpt lat="47.29851" lon="4.07659">
        <ele>641.82</ele>
        <time>2021-08-12T07:09:41Z</time>
      </trkpt>
      <trkpt lat="47.29847" lon="4.07657">
        <ele>641.82</ele>
        <time>2021-08-12T07:09:42Z</time>
      </trkpt>
      <trkpt lat="47.29811" lon="4.07643">
        <ele>643.26</ele>
        <time>2021-08-12T07:09:51Z</time>
      </trkpt>
      <trkpt lat="47.29784" lon="4.07631">
        <ele>643.26</ele>
        <time>2021-08-12T07:09:58Z</time>
      </trkpt>
      <trkpt lat="47.29764" lon="4.07621">
        <ele>643.74</ele>
        <time>2021-08-12T07:10:03Z</time>
      </trkpt>
      <trkpt lat="47.29734" lon="4.07611">
        <ele>643.74</ele>
        <time>2021-08-12T07:10:09Z</time>
      </trkpt>
      <trkpt lat="47.29695" lon="4.07603">
        <ele>644.7</ele>
        <time>2021-08-12T07:10:18Z</time>
      </trkpt>
      <trkpt lat="47.29666" lon="4.07592">
        <ele>646.62</ele>
        <time>2021-08-12T07:10:26Z</time>
      </trkpt>
      <trkpt lat="47.29639" lon="4.07587">
        <ele>647.59</ele>
        <time>2021-08-12T07:10:34Z</time>
      </trkpt>
      <trkpt lat="47.29624" lon="4.07582">
        <ele>648.55</ele>
        <time>2021-08-12T07:10:39Z</time>
      </trkpt>
      <trkpt lat="47.29603" lon="4.07578">
        <ele>649.51</ele>
        <time>2021-08-12T07:10:46Z</time>
      </trkpt>
      <trkpt lat="47.29584" lon="4.07573">
        <ele>650.47</ele>
        <time>2021-08-12T07:10:53Z</time>
      </trkpt>
      <trkpt lat="47.29568" lon="4.0757">
        <ele>650.95</ele>
        <time>2021-08-12T07:10:59Z</time>
      </trkpt>
      <trkpt lat="47.29542" lon="4.07567">
        <ele>651.91</ele>
        <time>2021-08-12T07:11:08Z</time>
      </trkpt>
      <trkpt lat="47.29517" lon="4.07565">
        <ele>652.39</ele>
        <time>2021-08-12T07:11:15Z</time>
      </trkpt>
      <trkpt lat="47.29498" lon="4.07557">
        <ele>652.39</ele>
        <time>2021-08-12T07:11:21Z</time>
      </trkpt>
      <trkpt lat="47.2948" lon="4.0751">
        <ele>652.39</ele>
        <time>2021-08-12T07:11:28Z</time>
      </trkpt>
      <trkpt lat="47.29475" lon="4.07496">
        <ele>650.95</ele>
        <time>2021-08-12T07:11:30Z</time>
      </trkpt>
      <trkpt lat="47.29454" lon="4.07437">
        <ele>648.55</ele>
        <time>2021-08-12T07:11:37Z</time>
      </trkpt>
      <trkpt lat="47.2943" lon="4.07365">
        <ele>646.62</ele>
        <time>2021-08-12T07:11:45Z</time>
      </trkpt>
      <trkpt lat="47.29427" lon="4.07356">
        <ele>646.14</ele>
        <time>2021-08-12T07:11:46Z</time>
      </trkpt>
      <trkpt lat="47.29423" lon="4.07348">
        <ele>646.14</ele>
        <time>2021-08-12T07:11:47Z</time>
      </trkpt>
      <trkpt lat="47.29411" lon="4.07312">
        <ele>645.18</ele>
        <time>2021-08-12T07:11:51Z</time>
      </trkpt>
      <trkpt lat="47.29407" lon="4.07304">
        <ele>644.7</ele>
        <time>2021-08-12T07:11:52Z</time>
      </trkpt>
      <trkpt lat="47.29402" lon="4.07298">
        <ele>644.7</ele>
        <time>2021-08-12T07:11:53Z</time>
      </trkpt>
      <trkpt lat="47.29397" lon="4.07294">
        <ele>644.7</ele>
        <time>2021-08-12T07:11:54Z</time>
      </trkpt>
      <trkpt lat="47.29392" lon="4.07291">
        <ele>644.7</ele>
        <time>2021-08-12T07:11:55Z</time>
      </trkpt>
      <trkpt lat="47.29387" lon="4.0729">
        <ele>644.7</ele>
        <time>2021-08-12T07:11:56Z</time>
      </trkpt>
      <trkpt lat="47.29381" lon="4.07289">
        <ele>644.7</ele>
        <time>2021-08-12T07:11:57Z</time>
      </trkpt>
      <trkpt lat="47.29371" lon="4.07289">
        <ele>644.7</ele>
        <time>2021-08-12T07:11:59Z</time>
      </trkpt>
      <trkpt lat="47.29325" lon="4.07298">
        <ele>646.14</ele>
        <time>2021-08-12T07:12:09Z</time>
      </trkpt>
      <trkpt lat="47.2928" lon="4.0731">
        <ele>645.18</ele>
        <time>2021-08-12T07:12:17Z</time>
      </trkpt>
      <trkpt lat="47.29246" lon="4.07321">
        <ele>644.7</ele>
        <time>2021-08-12T07:12:23Z</time>
      </trkpt>
      <trkpt lat="47.2921" lon="4.07335">
        <ele>643.74</ele>
        <time>2021-08-12T07:12:29Z</time>
      </trkpt>
      <trkpt lat="47.29183" lon="4.0735">
        <ele>643.74</ele>
        <time>2021-08-12T07:12:34Z</time>
      </trkpt>
      <trkpt lat="47.29173" lon="4.07353">
        <ele>643.74</ele>
        <time>2021-08-12T07:12:36Z</time>
      </trkpt>
      <trkpt lat="47.29167" lon="4.07353">
        <ele>643.74</ele>
        <time>2021-08-12T07:12:37Z</time>
      </trkpt>
      <trkpt lat="47.29162" lon="4.07353">
        <ele>643.74</ele>
        <time>2021-08-12T07:12:38Z</time>
      </trkpt>
      <trkpt lat="47.29156" lon="4.07354">
        <ele>643.74</ele>
        <time>2021-08-12T07:12:39Z</time>
      </trkpt>
      <trkpt lat="47.29151" lon="4.07353">
        <ele>643.74</ele>
        <time>2021-08-12T07:12:40Z</time>
      </trkpt>
      <trkpt lat="47.29146" lon="4.07352">
        <ele>643.74</ele>
        <time>2021-08-12T07:12:41Z</time>
      </trkpt>
      <trkpt lat="47.29141" lon="4.07351">
        <ele>643.74</ele>
        <time>2021-08-12T07:12:42Z</time>
      </trkpt>
      <trkpt lat="47.29133" lon="4.07349">
        <ele>643.74</ele>
        <time>2021-08-12T07:12:44Z</time>
      </trkpt>
      <trkpt lat="47.29129" lon="4.07348">
        <ele>643.74</ele>
        <time>2021-08-12T07:12:45Z</time>
      </trkpt>
      <trkpt lat="47.29117" lon="4.07345">
        <ele>645.18</ele>
        <time>2021-08-12T07:12:48Z</time>
      </trkpt>
      <trkpt lat="47.29099" lon="4.07337">
        <ele>645.66</ele>
        <time>2021-08-12T07:12:54Z</time>
      </trkpt>
      <trkpt lat="47.2908" lon="4.07329">
        <ele>646.62</ele>
        <time>2021-08-12T07:13:00Z</time>
      </trkpt>
      <trkpt lat="47.2905" lon="4.07316">
        <ele>648.07</ele>
        <time>2021-08-12T07:13:08Z</time>
      </trkpt>
      <trkpt lat="47.29029" lon="4.07299">
        <ele>648.55</ele>
        <time>2021-08-12T07:13:14Z</time>
      </trkpt>
      <trkpt lat="47.29008" lon="4.07278">
        <ele>649.03</ele>
        <time>2021-08-12T07:13:21Z</time>
      </trkpt>
      <trkpt lat="47.28983" lon="4.07256">
        <ele>649.51</ele>
        <time>2021-08-12T07:13:28Z</time>
      </trkpt>
      <trkpt lat="47.28965" lon="4.07245">
        <ele>649.99</ele>
        <time>2021-08-12T07:13:34Z</time>
      </trkpt>
      <trkpt lat="47.2895" lon="4.07238">
        <ele>651.43</ele>
        <time>2021-08-12T07:13:41Z</time>
      </trkpt>
      <trkpt lat="47.28947" lon="4.07238">
        <ele>651.43</ele>
        <time>2021-08-12T07:13:49Z</time>
      </trkpt>
      <trkpt lat="47.28949" lon="4.07236">
        <ele>651.91</ele>
        <time>2021-08-12T07:14:05Z</time>
      </trkpt>
      <trkpt lat="47.28945" lon="4.0723">
        <ele>651.91</ele>
        <time>2021-08-12T07:14:18Z</time>
      </trkpt>
      <trkpt lat="47.28944" lon="4.07222">
        <ele>652.39</ele>
        <time>2021-08-12T07:14:33Z</time>
      </trkpt>
      <trkpt lat="47.28936" lon="4.07225">
        <ele>652.87</ele>
        <time>2021-08-12T07:14:54Z</time>
      </trkpt>
      <trkpt lat="47.28936" lon="4.07225">
        <ele>652.87</ele>
        <time>2021-08-12T07:15:09Z</time>
      </trkpt>
      <trkpt lat="47.28933" lon="4.07225">
        <ele>652.87</ele>
        <time>2021-08-12T07:15:17Z</time>
      </trkpt>
      <trkpt lat="47.28934" lon="4.07225">
        <ele>652.87</ele>
        <time>2021-08-12T07:15:18Z</time>
      </trkpt>
      <trkpt lat="47.28936" lon="4.07224">
        <ele>652.87</ele>
        <time>2021-08-12T07:15:24Z</time>
      </trkpt>
      <trkpt lat="47.28938" lon="4.07227">
        <ele>653.35</ele>
        <time>2021-08-12T07:15:34Z</time>
      </trkpt>
      <trkpt lat="47.28939" lon="4.0723">
        <ele>653.35</ele>
        <time>2021-08-12T07:15:46Z</time>
      </trkpt>
      <trkpt lat="47.28944" lon="4.0723">
        <ele>653.35</ele>
        <time>2021-08-12T07:15:59Z</time>
      </trkpt>
      <trkpt lat="47.28946" lon="4.07231">
        <ele>653.35</ele>
        <time>2021-08-12T07:16:07Z</time>
      </trkpt>
      <trkpt lat="47.28949" lon="4.07234">
        <ele>653.35</ele>
        <time>2021-08-12T07:16:22Z</time>
      </trkpt>
      <trkpt lat="47.28951" lon="4.07233">
        <ele>653.35</ele>
        <time>2021-08-12T07:16:37Z</time>
      </trkpt>
      <trkpt lat="47.28951" lon="4.07234">
        <ele>653.35</ele>
        <time>2021-08-12T07:16:38Z</time>
      </trkpt>
      <trkpt lat="47.28951" lon="4.07236">
        <ele>653.35</ele>
        <time>2021-08-12T07:16:39Z</time>
      </trkpt>
      <trkpt lat="47.28952" lon="4.07238">
        <ele>653.35</ele>
        <time>2021-08-12T07:16:40Z</time>
      </trkpt>
      <trkpt lat="47.28953" lon="4.07241">
        <ele>653.35</ele>
        <time>2021-08-12T07:16:41Z</time>
      </trkpt>
      <trkpt lat="47.28954" lon="4.07244">
        <ele>653.35</ele>
        <time>2021-08-12T07:16:42Z</time>
      </trkpt>
      <trkpt lat="47.28956" lon="4.07246">
        <ele>653.35</ele>
        <time>2021-08-12T07:16:43Z</time>
      </trkpt>
      <trkpt lat="47.28958" lon="4.07248">
        <ele>653.35</ele>
        <time>2021-08-12T07:16:44Z</time>
      </trkpt>
      <trkpt lat="47.2896" lon="4.07251">
        <ele>653.35</ele>
        <time>2021-08-12T07:16:45Z</time>
      </trkpt>
      <trkpt lat="47.28961" lon="4.07255">
        <ele>651.91</ele>
        <time>2021-08-12T07:16:46Z</time>
      </trkpt>
      <trkpt lat="47.28962" lon="4.07258">
        <ele>651.91</ele>
        <time>2021-08-12T07:16:47Z</time>
      </trkpt>
      <trkpt lat="47.28963" lon="4.07261">
        <ele>651.91</ele>
        <time>2021-08-12T07:16:48Z</time>
      </trkpt>
      <trkpt lat="47.28964" lon="4.07265">
        <ele>651.91</ele>
        <time>2021-08-12T07:16:49Z</time>
      </trkpt>
      <trkpt lat="47.28963" lon="4.07269">
        <ele>651.91</ele>
        <time>2021-08-12T07:16:50Z</time>
      </trkpt>
      <trkpt lat="47.28965" lon="4.07303">
        <ele>650.47</ele>
        <time>2021-08-12T07:16:56Z</time>
      </trkpt>
      <trkpt lat="47.28967" lon="4.0731">
        <ele>649.99</ele>
        <time>2021-08-12T07:16:57Z</time>
      </trkpt>
      <trkpt lat="47.28968" lon="4.07316">
        <ele>649.99</ele>
        <time>2021-08-12T07:16:58Z</time>
      </trkpt>
      <trkpt lat="47.2898" lon="4.07353">
        <ele>648.55</ele>
        <time>2021-08-12T07:17:04Z</time>
      </trkpt>
      <trkpt lat="47.28986" lon="4.07364">
        <ele>648.55</ele>
        <time>2021-08-12T07:17:06Z</time>
      </trkpt>
      <trkpt lat="47.28989" lon="4.0737">
        <ele>647.1</ele>
        <time>2021-08-12T07:17:07Z</time>
      </trkpt>
      <trkpt lat="47.28991" lon="4.07376">
        <ele>647.1</ele>
        <time>2021-08-12T07:17:08Z</time>
      </trkpt>
      <trkpt lat="47.28993" lon="4.07381">
        <ele>647.1</ele>
        <time>2021-08-12T07:17:09Z</time>
      </trkpt>
      <trkpt lat="47.28993" lon="4.07385">
        <ele>646.62</ele>
        <time>2021-08-12T07:17:10Z</time>
      </trkpt>
      <trkpt lat="47.28994" lon="4.07389">
        <ele>646.62</ele>
        <time>2021-08-12T07:17:11Z</time>
      </trkpt>
      <trkpt lat="47.28993" lon="4.07392">
        <ele>645.66</ele>
        <time>2021-08-12T07:17:12Z</time>
      </trkpt>
      <trkpt lat="47.28992" lon="4.07395">
        <ele>645.66</ele>
        <time>2021-08-12T07:17:13Z</time>
      </trkpt>
      <trkpt lat="47.28992" lon="4.07398">
        <ele>645.18</ele>
        <time>2021-08-12T07:17:14Z</time>
      </trkpt>
      <trkpt lat="47.28991" lon="4.07419">
        <ele>641.82</ele>
        <time>2021-08-12T07:17:20Z</time>
      </trkpt>
      <trkpt lat="47.2899" lon="4.07423">
        <ele>641.82</ele>
        <time>2021-08-12T07:17:21Z</time>
      </trkpt>
      <trkpt lat="47.28988" lon="4.07447">
        <ele>639.89</ele>
        <time>2021-08-12T07:17:26Z</time>
      </trkpt>
      <trkpt lat="47.28987" lon="4.07455">
        <ele>639.41</ele>
        <time>2021-08-12T07:17:27Z</time>
      </trkpt>
      <trkpt lat="47.2898" lon="4.07486">
        <ele>637.49</ele>
        <time>2021-08-12T07:17:33Z</time>
      </trkpt>
      <trkpt lat="47.2898" lon="4.07501">
        <ele>637.01</ele>
        <time>2021-08-12T07:17:37Z</time>
      </trkpt>
      <trkpt lat="47.28979" lon="4.07504">
        <ele>637.01</ele>
        <time>2021-08-12T07:17:38Z</time>
      </trkpt>
      <trkpt lat="47.28967" lon="4.07531">
        <ele>635.57</ele>
        <time>2021-08-12T07:17:45Z</time>
      </trkpt>
      <trkpt lat="47.28963" lon="4.07539">
        <ele>635.09</ele>
        <time>2021-08-12T07:17:46Z</time>
      </trkpt>
      <trkpt lat="47.28962" lon="4.0755">
        <ele>634.61</ele>
        <time>2021-08-12T07:17:47Z</time>
      </trkpt>
      <trkpt lat="47.28957" lon="4.07581">
        <ele>633.17</ele>
        <time>2021-08-12T07:17:50Z</time>
      </trkpt>
      <trkpt lat="47.28955" lon="4.07591">
        <ele>633.17</ele>
        <time>2021-08-12T07:17:51Z</time>
      </trkpt>
      <trkpt lat="47.28957" lon="4.07605">
        <ele>632.2</ele>
        <time>2021-08-12T07:17:52Z</time>
      </trkpt>
      <trkpt lat="47.28954" lon="4.07612">
        <ele>632.2</ele>
        <time>2021-08-12T07:17:53Z</time>
      </trkpt>
      <trkpt lat="47.2895" lon="4.07618">
        <ele>632.2</ele>
        <time>2021-08-12T07:17:54Z</time>
      </trkpt>
      <trkpt lat="47.28948" lon="4.07625">
        <ele>631.24</ele>
        <time>2021-08-12T07:17:55Z</time>
      </trkpt>
      <trkpt lat="47.28945" lon="4.0763">
        <ele>630.28</ele>
        <time>2021-08-12T07:17:56Z</time>
      </trkpt>
      <trkpt lat="47.28942" lon="4.07634">
        <ele>629.8</ele>
        <time>2021-08-12T07:17:57Z</time>
      </trkpt>
      <trkpt lat="47.2894" lon="4.07638">
        <ele>629.32</ele>
        <time>2021-08-12T07:17:58Z</time>
      </trkpt>
      <trkpt lat="47.28929" lon="4.07655">
        <ele>627.4</ele>
        <time>2021-08-12T07:18:04Z</time>
      </trkpt>
      <trkpt lat="47.28926" lon="4.07666">
        <ele>625.96</ele>
        <time>2021-08-12T07:18:07Z</time>
      </trkpt>
      <trkpt lat="47.28927" lon="4.07698">
        <ele>624.03</ele>
        <time>2021-08-12T07:18:12Z</time>
      </trkpt>
      <trkpt lat="47.28926" lon="4.07723">
        <ele>623.55</ele>
        <time>2021-08-12T07:18:17Z</time>
      </trkpt>
      <trkpt lat="47.28924" lon="4.07732">
        <ele>623.55</ele>
        <time>2021-08-12T07:18:23Z</time>
      </trkpt>
      <trkpt lat="47.28925" lon="4.07745">
        <ele>623.07</ele>
        <time>2021-08-12T07:18:32Z</time>
      </trkpt>
      <trkpt lat="47.2892" lon="4.07747">
        <ele>623.07</ele>
        <time>2021-08-12T07:18:38Z</time>
      </trkpt>
      <trkpt lat="47.28917" lon="4.07748">
        <ele>623.07</ele>
        <time>2021-08-12T07:18:40Z</time>
      </trkpt>
      <trkpt lat="47.28915" lon="4.07748">
        <ele>623.07</ele>
        <time>2021-08-12T07:18:41Z</time>
      </trkpt>
      <trkpt lat="47.28912" lon="4.07755">
        <ele>623.07</ele>
        <time>2021-08-12T07:18:47Z</time>
      </trkpt>
      <trkpt lat="47.2891" lon="4.0776">
        <ele>623.07</ele>
        <time>2021-08-12T07:18:54Z</time>
      </trkpt>
      <trkpt lat="47.2891" lon="4.07762">
        <ele>623.07</ele>
        <time>2021-08-12T07:18:55Z</time>
      </trkpt>
      <trkpt lat="47.2891" lon="4.07764">
        <ele>623.07</ele>
        <time>2021-08-12T07:18:56Z</time>
      </trkpt>
      <trkpt lat="47.2891" lon="4.07767">
        <ele>623.07</ele>
        <time>2021-08-12T07:18:57Z</time>
      </trkpt>
      <trkpt lat="47.2891" lon="4.07769">
        <ele>623.07</ele>
        <time>2021-08-12T07:18:58Z</time>
      </trkpt>
      <trkpt lat="47.2891" lon="4.07771">
        <ele>623.07</ele>
        <time>2021-08-12T07:18:59Z</time>
      </trkpt>
      <trkpt lat="47.2891" lon="4.07774">
        <ele>623.07</ele>
        <time>2021-08-12T07:19:00Z</time>
      </trkpt>
      <trkpt lat="47.28911" lon="4.07778">
        <ele>623.07</ele>
        <time>2021-08-12T07:19:03Z</time>
      </trkpt>
      <trkpt lat="47.28912" lon="4.07779">
        <ele>623.07</ele>
        <time>2021-08-12T07:19:04Z</time>
      </trkpt>
      <trkpt lat="47.28914" lon="4.07788">
        <ele>623.07</ele>
        <time>2021-08-12T07:19:11Z</time>
      </trkpt>
      <trkpt lat="47.28914" lon="4.07789">
        <ele>623.07</ele>
        <time>2021-08-12T07:19:12Z</time>
      </trkpt>
      <trkpt lat="47.28918" lon="4.07793">
        <ele>624.03</ele>
        <time>2021-08-12T07:19:19Z</time>
      </trkpt>
      <trkpt lat="47.28919" lon="4.07797">
        <ele>624.03</ele>
        <time>2021-08-12T07:19:22Z</time>
      </trkpt>
      <trkpt lat="47.28919" lon="4.07799">
        <ele>624.03</ele>
        <time>2021-08-12T07:19:23Z</time>
      </trkpt>
      <trkpt lat="47.28919" lon="4.07803">
        <ele>624.03</ele>
        <time>2021-08-12T07:19:24Z</time>
      </trkpt>
      <trkpt lat="47.28918" lon="4.07806">
        <ele>624.03</ele>
        <time>2021-08-12T07:19:25Z</time>
      </trkpt>
      <trkpt lat="47.28918" lon="4.07809">
        <ele>624.03</ele>
        <time>2021-08-12T07:19:26Z</time>
      </trkpt>
      <trkpt lat="47.28917" lon="4.07812">
        <ele>624.03</ele>
        <time>2021-08-12T07:19:27Z</time>
      </trkpt>
      <trkpt lat="47.28917" lon="4.07816">
        <ele>624.99</ele>
        <time>2021-08-12T07:19:28Z</time>
      </trkpt>
      <trkpt lat="47.28916" lon="4.07819">
        <ele>624.99</ele>
        <time>2021-08-12T07:19:29Z</time>
      </trkpt>
      <trkpt lat="47.28915" lon="4.07822">
        <ele>624.99</ele>
        <time>2021-08-12T07:19:30Z</time>
      </trkpt>
      <trkpt lat="47.2891" lon="4.07834">
        <ele>624.99</ele>
        <time>2021-08-12T07:19:35Z</time>
      </trkpt>
      <trkpt lat="47.28908" lon="4.0784">
        <ele>624.99</ele>
        <time>2021-08-12T07:19:38Z</time>
      </trkpt>
      <trkpt lat="47.28907" lon="4.07841">
        <ele>624.99</ele>
        <time>2021-08-12T07:19:39Z</time>
      </trkpt>
      <trkpt lat="47.28906" lon="4.07842">
        <ele>624.99</ele>
        <time>2021-08-12T07:19:40Z</time>
      </trkpt>
      <trkpt lat="47.28894" lon="4.07861">
        <ele>625.96</ele>
        <time>2021-08-12T07:19:47Z</time>
      </trkpt>
      <trkpt lat="47.28887" lon="4.07872">
        <ele>625.96</ele>
        <time>2021-08-12T07:19:53Z</time>
      </trkpt>
      <trkpt lat="47.28885" lon="4.07875">
        <ele>626.44</ele>
        <time>2021-08-12T07:19:55Z</time>
      </trkpt>
      <trkpt lat="47.28884" lon="4.07876">
        <ele>626.44</ele>
        <time>2021-08-12T07:19:56Z</time>
      </trkpt>
      <trkpt lat="47.28879" lon="4.07883">
        <ele>626.92</ele>
        <time>2021-08-12T07:20:02Z</time>
      </trkpt>
      <trkpt lat="47.28877" lon="4.07884">
        <ele>626.92</ele>
        <time>2021-08-12T07:20:03Z</time>
      </trkpt>
      <trkpt lat="47.28864" lon="4.07886">
        <ele>626.92</ele>
        <time>2021-08-12T07:20:10Z</time>
      </trkpt>
      <trkpt lat="47.28857" lon="4.07891">
        <ele>627.88</ele>
        <time>2021-08-12T07:20:16Z</time>
      </trkpt>
      <trkpt lat="47.28851" lon="4.07895">
        <ele>628.36</ele>
        <time>2021-08-12T07:20:20Z</time>
      </trkpt>
      <trkpt lat="47.28849" lon="4.07896">
        <ele>628.36</ele>
        <time>2021-08-12T07:20:21Z</time>
      </trkpt>
      <trkpt lat="47.28848" lon="4.07896">
        <ele>628.84</ele>
        <time>2021-08-12T07:20:22Z</time>
      </trkpt>
      <trkpt lat="47.28839" lon="4.07901">
        <ele>629.8</ele>
        <time>2021-08-12T07:20:30Z</time>
      </trkpt>
      <trkpt lat="47.28831" lon="4.07902">
        <ele>630.28</ele>
        <time>2021-08-12T07:20:36Z</time>
      </trkpt>
      <trkpt lat="47.28829" lon="4.07903">
        <ele>630.28</ele>
        <time>2021-08-12T07:20:37Z</time>
      </trkpt>
      <trkpt lat="47.28827" lon="4.07903">
        <ele>630.28</ele>
        <time>2021-08-12T07:20:38Z</time>
      </trkpt>
      <trkpt lat="47.2882" lon="4.07904">
        <ele>631.72</ele>
        <time>2021-08-12T07:20:44Z</time>
      </trkpt>
      <trkpt lat="47.28815" lon="4.0791">
        <ele>632.68</ele>
        <time>2021-08-12T07:20:51Z</time>
      </trkpt>
      <trkpt lat="47.28808" lon="4.07919">
        <ele>634.13</ele>
        <time>2021-08-12T07:21:00Z</time>
      </trkpt>
      <trkpt lat="47.28806" lon="4.07925">
        <ele>634.61</ele>
        <time>2021-08-12T07:21:05Z</time>
      </trkpt>
      <trkpt lat="47.28799" lon="4.07933">
        <ele>636.05</ele>
        <time>2021-08-12T07:21:12Z</time>
      </trkpt>
      <trkpt lat="47.28793" lon="4.07939">
        <ele>637.01</ele>
        <time>2021-08-12T07:21:18Z</time>
      </trkpt>
      <trkpt lat="47.28788" lon="4.0795">
        <ele>637.97</ele>
        <time>2021-08-12T07:21:26Z</time>
      </trkpt>
      <trkpt lat="47.28783" lon="4.07957">
        <ele>638.93</ele>
        <time>2021-08-12T07:21:32Z</time>
      </trkpt>
      <trkpt lat="47.28779" lon="4.07969">
        <ele>639.89</ele>
        <time>2021-08-12T07:21:38Z</time>
      </trkpt>
      <trkpt lat="47.28777" lon="4.07972">
        <ele>639.89</ele>
        <time>2021-08-12T07:21:40Z</time>
      </trkpt>
      <trkpt lat="47.28772" lon="4.07981">
        <ele>640.86</ele>
        <time>2021-08-12T07:21:46Z</time>
      </trkpt>
      <trkpt lat="47.28767" lon="4.0799">
        <ele>641.82</ele>
        <time>2021-08-12T07:21:55Z</time>
      </trkpt>
      <trkpt lat="47.28762" lon="4.08">
        <ele>643.26</ele>
        <time>2021-08-12T07:22:03Z</time>
      </trkpt>
      <trkpt lat="47.28757" lon="4.08008">
        <ele>644.22</ele>
        <time>2021-08-12T07:22:11Z</time>
      </trkpt>
      <trkpt lat="47.28751" lon="4.08019">
        <ele>645.18</ele>
        <time>2021-08-12T07:22:19Z</time>
      </trkpt>
      <trkpt lat="47.28745" lon="4.08029">
        <ele>646.62</ele>
        <time>2021-08-12T07:22:26Z</time>
      </trkpt>
      <trkpt lat="47.28739" lon="4.08037">
        <ele>647.1</ele>
        <time>2021-08-12T07:22:34Z</time>
      </trkpt>
      <trkpt lat="47.28736" lon="4.08044">
        <ele>648.07</ele>
        <time>2021-08-12T07:22:40Z</time>
      </trkpt>
      <trkpt lat="47.2873" lon="4.08052">
        <ele>648.55</ele>
        <time>2021-08-12T07:22:47Z</time>
      </trkpt>
      <trkpt lat="47.28727" lon="4.08058">
        <ele>649.03</ele>
        <time>2021-08-12T07:22:52Z</time>
      </trkpt>
      <trkpt lat="47.28724" lon="4.08067">
        <ele>650.95</ele>
        <time>2021-08-12T07:23:00Z</time>
      </trkpt>
      <trkpt lat="47.2872" lon="4.08074">
        <ele>650.95</ele>
        <time>2021-08-12T07:23:06Z</time>
      </trkpt>
      <trkpt lat="47.28714" lon="4.08082">
        <ele>651.91</ele>
        <time>2021-08-12T07:23:12Z</time>
      </trkpt>
      <trkpt lat="47.28704" lon="4.0809">
        <ele>653.35</ele>
        <time>2021-08-12T07:23:19Z</time>
      </trkpt>
      <trkpt lat="47.28698" lon="4.081">
        <ele>653.83</ele>
        <time>2021-08-12T07:23:26Z</time>
      </trkpt>
      <trkpt lat="47.2869" lon="4.0811">
        <ele>654.31</ele>
        <time>2021-08-12T07:23:34Z</time>
      </trkpt>
      <trkpt lat="47.28684" lon="4.0812">
        <ele>655.76</ele>
        <time>2021-08-12T07:23:41Z</time>
      </trkpt>
      <trkpt lat="47.28675" lon="4.08131">
        <ele>656.24</ele>
        <time>2021-08-12T07:23:48Z</time>
      </trkpt>
      <trkpt lat="47.28673" lon="4.08134">
        <ele>656.24</ele>
        <time>2021-08-12T07:23:50Z</time>
      </trkpt>
      <trkpt lat="47.28667" lon="4.08145">
        <ele>657.2</ele>
        <time>2021-08-12T07:23:57Z</time>
      </trkpt>
      <trkpt lat="47.28662" lon="4.08152">
        <ele>657.2</ele>
        <time>2021-08-12T07:24:01Z</time>
      </trkpt>
      <trkpt lat="47.28654" lon="4.08174">
        <ele>658.64</ele>
        <time>2021-08-12T07:24:10Z</time>
      </trkpt>
      <trkpt lat="47.28644" lon="4.08187">
        <ele>659.12</ele>
        <time>2021-08-12T07:24:16Z</time>
      </trkpt>
      <trkpt lat="47.28642" lon="4.08199">
        <ele>659.6</ele>
        <time>2021-08-12T07:24:22Z</time>
      </trkpt>
      <trkpt lat="47.28636" lon="4.08213">
        <ele>661.04</ele>
        <time>2021-08-12T07:24:28Z</time>
      </trkpt>
      <trkpt lat="47.2862" lon="4.08235">
        <ele>661.52</ele>
        <time>2021-08-12T07:24:36Z</time>
      </trkpt>
      <trkpt lat="47.28611" lon="4.08252">
        <ele>662.49</ele>
        <time>2021-08-12T07:24:45Z</time>
      </trkpt>
      <trkpt lat="47.28601" lon="4.08271">
        <ele>663.45</ele>
        <time>2021-08-12T07:24:54Z</time>
      </trkpt>
      <trkpt lat="47.28588" lon="4.08295">
        <ele>664.41</ele>
        <time>2021-08-12T07:25:05Z</time>
      </trkpt>
      <trkpt lat="47.28577" lon="4.08311">
        <ele>665.37</ele>
        <time>2021-08-12T07:25:12Z</time>
      </trkpt>
      <trkpt lat="47.28561" lon="4.08331">
        <ele>665.85</ele>
        <time>2021-08-12T07:25:19Z</time>
      </trkpt>
      <trkpt lat="47.28541" lon="4.0836">
        <ele>665.85</ele>
        <time>2021-08-12T07:25:28Z</time>
      </trkpt>
      <trkpt lat="47.28522" lon="4.08384">
        <ele>666.33</ele>
        <time>2021-08-12T07:25:36Z</time>
      </trkpt>
      <trkpt lat="47.28515" lon="4.08419">
        <ele>666.81</ele>
        <time>2021-08-12T07:25:44Z</time>
      </trkpt>
      <trkpt lat="47.28501" lon="4.08445">
        <ele>667.29</ele>
        <time>2021-08-12T07:25:51Z</time>
      </trkpt>
      <trkpt lat="47.28486" lon="4.08471">
        <ele>667.77</ele>
        <time>2021-08-12T07:25:58Z</time>
      </trkpt>
      <trkpt lat="47.28471" lon="4.08497">
        <ele>667.29</ele>
        <time>2021-08-12T07:26:06Z</time>
      </trkpt>
      <trkpt lat="47.28456" lon="4.08524">
        <ele>667.77</ele>
        <time>2021-08-12T07:26:13Z</time>
      </trkpt>
      <trkpt lat="47.28438" lon="4.08556">
        <ele>668.25</ele>
        <time>2021-08-12T07:26:21Z</time>
      </trkpt>
      <trkpt lat="47.28424" lon="4.08584">
        <ele>668.25</ele>
        <time>2021-08-12T07:26:28Z</time>
      </trkpt>
      <trkpt lat="47.28416" lon="4.08612">
        <ele>668.25</ele>
        <time>2021-08-12T07:26:34Z</time>
      </trkpt>
      <trkpt lat="47.28406" lon="4.08655">
        <ele>665.85</ele>
        <time>2021-08-12T07:26:42Z</time>
      </trkpt>
      <trkpt lat="47.28403" lon="4.08671">
        <ele>664.89</ele>
        <time>2021-08-12T07:26:45Z</time>
      </trkpt>
      <trkpt lat="47.28401" lon="4.08675">
        <ele>664.89</ele>
        <time>2021-08-12T07:26:46Z</time>
      </trkpt>
      <trkpt lat="47.28389" lon="4.08695">
        <ele>662.49</ele>
        <time>2021-08-12T07:26:51Z</time>
      </trkpt>
      <trkpt lat="47.28384" lon="4.08701">
        <ele>662.49</ele>
        <time>2021-08-12T07:26:52Z</time>
      </trkpt>
      <trkpt lat="47.28376" lon="4.08712">
        <ele>661.52</ele>
        <time>2021-08-12T07:26:54Z</time>
      </trkpt>
      <trkpt lat="47.28371" lon="4.08719">
        <ele>660.56</ele>
        <time>2021-08-12T07:26:55Z</time>
      </trkpt>
      <trkpt lat="47.28366" lon="4.08726">
        <ele>660.08</ele>
        <time>2021-08-12T07:26:56Z</time>
      </trkpt>
      <trkpt lat="47.28357" lon="4.08738">
        <ele>658.64</ele>
        <time>2021-08-12T07:26:58Z</time>
      </trkpt>
      <trkpt lat="47.28353" lon="4.08746">
        <ele>657.2</ele>
        <time>2021-08-12T07:26:59Z</time>
      </trkpt>
      <trkpt lat="47.28331" lon="4.08801">
        <ele>654.31</ele>
        <time>2021-08-12T07:27:05Z</time>
      </trkpt>
      <trkpt lat="47.28327" lon="4.08811">
        <ele>653.83</ele>
        <time>2021-08-12T07:27:06Z</time>
      </trkpt>
      <trkpt lat="47.28322" lon="4.08818">
        <ele>654.31</ele>
        <time>2021-08-12T07:27:07Z</time>
      </trkpt>
      <trkpt lat="47.28317" lon="4.08825">
        <ele>653.83</ele>
        <time>2021-08-12T07:27:08Z</time>
      </trkpt>
      <trkpt lat="47.28298" lon="4.08847">
        <ele>653.35</ele>
        <time>2021-08-12T07:27:12Z</time>
      </trkpt>
      <trkpt lat="47.28293" lon="4.0885">
        <ele>653.35</ele>
        <time>2021-08-12T07:27:13Z</time>
      </trkpt>
      <trkpt lat="47.28287" lon="4.08852">
        <ele>653.35</ele>
        <time>2021-08-12T07:27:14Z</time>
      </trkpt>
      <trkpt lat="47.28237" lon="4.08859">
        <ele>649.99</ele>
        <time>2021-08-12T07:27:21Z</time>
      </trkpt>
      <trkpt lat="47.28205" lon="4.08865">
        <ele>648.55</ele>
        <time>2021-08-12T07:27:25Z</time>
      </trkpt>
      <trkpt lat="47.28188" lon="4.08871">
        <ele>647.1</ele>
        <time>2021-08-12T07:27:27Z</time>
      </trkpt>
      <trkpt lat="47.28181" lon="4.08876">
        <ele>647.1</ele>
        <time>2021-08-12T07:27:28Z</time>
      </trkpt>
      <trkpt lat="47.28134" lon="4.08905">
        <ele>644.22</ele>
        <time>2021-08-12T07:27:35Z</time>
      </trkpt>
      <trkpt lat="47.2812" lon="4.08918">
        <ele>643.26</ele>
        <time>2021-08-12T07:27:37Z</time>
      </trkpt>
      <trkpt lat="47.28114" lon="4.08925">
        <ele>642.78</ele>
        <time>2021-08-12T07:27:38Z</time>
      </trkpt>
      <trkpt lat="47.28109" lon="4.08933">
        <ele>642.3</ele>
        <time>2021-08-12T07:27:39Z</time>
      </trkpt>
      <trkpt lat="47.28087" lon="4.08974">
        <ele>639.41</ele>
        <time>2021-08-12T07:27:43Z</time>
      </trkpt>
      <trkpt lat="47.28061" lon="4.09036">
        <ele>635.57</ele>
        <time>2021-08-12T07:27:48Z</time>
      </trkpt>
      <trkpt lat="47.28057" lon="4.0905">
        <ele>634.61</ele>
        <time>2021-08-12T07:27:49Z</time>
      </trkpt>
      <trkpt lat="47.28043" lon="4.09113">
        <ele>631.24</ele>
        <time>2021-08-12T07:27:53Z</time>
      </trkpt>
      <trkpt lat="47.2803" lon="4.09178">
        <ele>627.88</ele>
        <time>2021-08-12T07:27:57Z</time>
      </trkpt>
      <trkpt lat="47.28022" lon="4.09209">
        <ele>625.96</ele>
        <time>2021-08-12T07:27:59Z</time>
      </trkpt>
      <trkpt lat="47.28015" lon="4.09224">
        <ele>624.99</ele>
        <time>2021-08-12T07:28:00Z</time>
      </trkpt>
      <trkpt lat="47.28007" lon="4.09235">
        <ele>624.03</ele>
        <time>2021-08-12T07:28:01Z</time>
      </trkpt>
      <trkpt lat="47.27997" lon="4.09242">
        <ele>623.55</ele>
        <time>2021-08-12T07:28:02Z</time>
      </trkpt>
      <trkpt lat="47.27987" lon="4.09248">
        <ele>623.55</ele>
        <time>2021-08-12T07:28:03Z</time>
      </trkpt>
      <trkpt lat="47.27977" lon="4.09252">
        <ele>623.55</ele>
        <time>2021-08-12T07:28:04Z</time>
      </trkpt>
      <trkpt lat="47.27925" lon="4.09273">
        <ele>623.55</ele>
        <time>2021-08-12T07:28:10Z</time>
      </trkpt>
      <trkpt lat="47.27914" lon="4.09278">
        <ele>623.55</ele>
        <time>2021-08-12T07:28:12Z</time>
      </trkpt>
      <trkpt lat="47.27909" lon="4.09282">
        <ele>623.55</ele>
        <time>2021-08-12T07:28:13Z</time>
      </trkpt>
      <trkpt lat="47.27905" lon="4.09285">
        <ele>623.55</ele>
        <time>2021-08-12T07:28:14Z</time>
      </trkpt>
      <trkpt lat="47.27884" lon="4.09308">
        <ele>624.99</ele>
        <time>2021-08-12T07:28:20Z</time>
      </trkpt>
      <trkpt lat="47.27858" lon="4.09325">
        <ele>625.47</ele>
        <time>2021-08-12T07:28:27Z</time>
      </trkpt>
      <trkpt lat="47.27844" lon="4.09324">
        <ele>625.47</ele>
        <time>2021-08-12T07:28:31Z</time>
      </trkpt>
      <trkpt lat="47.27842" lon="4.09323">
        <ele>625.47</ele>
        <time>2021-08-12T07:28:32Z</time>
      </trkpt>
      <trkpt lat="47.27841" lon="4.09325">
        <ele>625.47</ele>
        <time>2021-08-12T07:28:33Z</time>
      </trkpt>
      <trkpt lat="47.27841" lon="4.09327">
        <ele>625.47</ele>
        <time>2021-08-12T07:28:34Z</time>
      </trkpt>
      <trkpt lat="47.27843" lon="4.09329">
        <ele>625.47</ele>
        <time>2021-08-12T07:28:35Z</time>
      </trkpt>
      <trkpt lat="47.27845" lon="4.09329">
        <ele>625.47</ele>
        <time>2021-08-12T07:28:36Z</time>
      </trkpt>
      <trkpt lat="47.27852" lon="4.09337">
        <ele>625.47</ele>
        <time>2021-08-12T07:28:41Z</time>
      </trkpt>
      <trkpt lat="47.27852" lon="4.0934">
        <ele>625.47</ele>
        <time>2021-08-12T07:28:42Z</time>
      </trkpt>
      <trkpt lat="47.27851" lon="4.09342">
        <ele>625.96</ele>
        <time>2021-08-12T07:28:43Z</time>
      </trkpt>
      <trkpt lat="47.2785" lon="4.09345">
        <ele>625.96</ele>
        <time>2021-08-12T07:28:44Z</time>
      </trkpt>
      <trkpt lat="47.27848" lon="4.09347">
        <ele>625.96</ele>
        <time>2021-08-12T07:28:45Z</time>
      </trkpt>
      <trkpt lat="47.27846" lon="4.09349">
        <ele>625.96</ele>
        <time>2021-08-12T07:28:46Z</time>
      </trkpt>
      <trkpt lat="47.27844" lon="4.09351">
        <ele>625.96</ele>
        <time>2021-08-12T07:28:47Z</time>
      </trkpt>
      <trkpt lat="47.27842" lon="4.09353">
        <ele>625.96</ele>
        <time>2021-08-12T07:28:48Z</time>
      </trkpt>
      <trkpt lat="47.2784" lon="4.09356">
        <ele>626.44</ele>
        <time>2021-08-12T07:28:49Z</time>
      </trkpt>
      <trkpt lat="47.27838" lon="4.09359">
        <ele>626.44</ele>
        <time>2021-08-12T07:28:50Z</time>
      </trkpt>
      <trkpt lat="47.27818" lon="4.0938">
        <ele>627.4</ele>
        <time>2021-08-12T07:28:58Z</time>
      </trkpt>
      <trkpt lat="47.27791" lon="4.09409">
        <ele>628.36</ele>
        <time>2021-08-12T07:29:08Z</time>
      </trkpt>
      <trkpt lat="47.27767" lon="4.09436">
        <ele>629.32</ele>
        <time>2021-08-12T07:29:17Z</time>
      </trkpt>
      <trkpt lat="47.2774" lon="4.09466">
        <ele>630.28</ele>
        <time>2021-08-12T07:29:27Z</time>
      </trkpt>
      <trkpt lat="47.27712" lon="4.09497">
        <ele>631.24</ele>
        <time>2021-08-12T07:29:37Z</time>
      </trkpt>
      <trkpt lat="47.27687" lon="4.09523">
        <ele>632.2</ele>
        <time>2021-08-12T07:29:46Z</time>
      </trkpt>
      <trkpt lat="47.27659" lon="4.09553">
        <ele>633.17</ele>
        <time>2021-08-12T07:29:56Z</time>
      </trkpt>
      <trkpt lat="47.27632" lon="4.0959">
        <ele>634.13</ele>
        <time>2021-08-12T07:30:07Z</time>
      </trkpt>
      <trkpt lat="47.27615" lon="4.09629">
        <ele>635.09</ele>
        <time>2021-08-12T07:30:16Z</time>
      </trkpt>
      <trkpt lat="47.27604" lon="4.09666">
        <ele>635.57</ele>
        <time>2021-08-12T07:30:24Z</time>
      </trkpt>
      <trkpt lat="47.27601" lon="4.097">
        <ele>635.57</ele>
        <time>2021-08-12T07:30:31Z</time>
      </trkpt>
      <trkpt lat="47.27602" lon="4.09753">
        <ele>637.01</ele>
        <time>2021-08-12T07:30:42Z</time>
      </trkpt>
      <trkpt lat="47.27602" lon="4.09799">
        <ele>637.97</ele>
        <time>2021-08-12T07:30:52Z</time>
      </trkpt>
      <trkpt lat="47.27606" lon="4.09836">
        <ele>638.93</ele>
        <time>2021-08-12T07:31:00Z</time>
      </trkpt>
      <trkpt lat="47.27611" lon="4.09879">
        <ele>639.41</ele>
        <time>2021-08-12T07:31:10Z</time>
      </trkpt>
      <trkpt lat="47.27609" lon="4.09911">
        <ele>640.38</ele>
        <time>2021-08-12T07:31:16Z</time>
      </trkpt>
      <trkpt lat="47.27609" lon="4.09942">
        <ele>640.86</ele>
        <time>2021-08-12T07:31:23Z</time>
      </trkpt>
      <trkpt lat="47.27609" lon="4.09972">
        <ele>641.34</ele>
        <time>2021-08-12T07:31:30Z</time>
      </trkpt>
      <trkpt lat="47.27615" lon="4.10021">
        <ele>641.82</ele>
        <time>2021-08-12T07:31:41Z</time>
      </trkpt>
      <trkpt lat="47.27629" lon="4.10063">
        <ele>642.78</ele>
        <time>2021-08-12T07:31:50Z</time>
      </trkpt>
      <trkpt lat="47.27642" lon="4.10102">
        <ele>642.78</ele>
        <time>2021-08-12T07:31:59Z</time>
      </trkpt>
      <trkpt lat="47.27654" lon="4.10128">
        <ele>643.26</ele>
        <time>2021-08-12T07:32:06Z</time>
      </trkpt>
      <trkpt lat="47.27658" lon="4.10137">
        <ele>643.26</ele>
        <time>2021-08-12T07:32:12Z</time>
      </trkpt>
      <trkpt lat="47.27656" lon="4.10139">
        <ele>643.26</ele>
        <time>2021-08-12T07:32:29Z</time>
      </trkpt>
      <trkpt lat="47.27654" lon="4.10131">
        <ele>643.26</ele>
        <time>2021-08-12T07:32:48Z</time>
      </trkpt>
      <trkpt lat="47.27653" lon="4.10133">
        <ele>643.74</ele>
        <time>2021-08-12T07:33:09Z</time>
      </trkpt>
      <trkpt lat="47.27653" lon="4.10138">
        <ele>643.26</ele>
        <time>2021-08-12T07:33:28Z</time>
      </trkpt>
      <trkpt lat="47.27654" lon="4.10137">
        <ele>643.26</ele>
        <time>2021-08-12T07:33:37Z</time>
      </trkpt>
      <trkpt lat="47.27653" lon="4.10137">
        <ele>643.26</ele>
        <time>2021-08-12T07:33:38Z</time>
      </trkpt>
      <trkpt lat="47.27653" lon="4.10135">
        <ele>643.26</ele>
        <time>2021-08-12T07:33:39Z</time>
      </trkpt>
      <trkpt lat="47.27653" lon="4.10133">
        <ele>643.26</ele>
        <time>2021-08-12T07:33:40Z</time>
      </trkpt>
      <trkpt lat="47.27652" lon="4.10132">
        <ele>643.26</ele>
        <time>2021-08-12T07:33:41Z</time>
      </trkpt>
      <trkpt lat="47.27652" lon="4.1013">
        <ele>643.26</ele>
        <time>2021-08-12T07:33:42Z</time>
      </trkpt>
      <trkpt lat="47.27652" lon="4.10128">
        <ele>643.26</ele>
        <time>2021-08-12T07:33:43Z</time>
      </trkpt>
      <trkpt lat="47.27651" lon="4.10126">
        <ele>643.26</ele>
        <time>2021-08-12T07:33:44Z</time>
      </trkpt>
      <trkpt lat="47.2765" lon="4.10124">
        <ele>643.26</ele>
        <time>2021-08-12T07:33:45Z</time>
      </trkpt>
      <trkpt lat="47.27649" lon="4.10121">
        <ele>643.26</ele>
        <time>2021-08-12T07:33:46Z</time>
      </trkpt>
      <trkpt lat="47.27648" lon="4.10118">
        <ele>643.26</ele>
        <time>2021-08-12T07:33:47Z</time>
      </trkpt>
      <trkpt lat="47.27643" lon="4.10103">
        <ele>643.26</ele>
        <time>2021-08-12T07:33:53Z</time>
      </trkpt>
      <trkpt lat="47.2764" lon="4.101">
        <ele>643.26</ele>
        <time>2021-08-12T07:33:55Z</time>
      </trkpt>
      <trkpt lat="47.27639" lon="4.10101">
        <ele>643.26</ele>
        <time>2021-08-12T07:33:56Z</time>
      </trkpt>
      <trkpt lat="47.27639" lon="4.10103">
        <ele>643.26</ele>
        <time>2021-08-12T07:33:57Z</time>
      </trkpt>
      <trkpt lat="47.27641" lon="4.10104">
        <ele>643.26</ele>
        <time>2021-08-12T07:33:58Z</time>
      </trkpt>
      <trkpt lat="47.27643" lon="4.10107">
        <ele>643.26</ele>
        <time>2021-08-12T07:33:59Z</time>
      </trkpt>
      <trkpt lat="47.27653" lon="4.10127">
        <ele>643.26</ele>
        <time>2021-08-12T07:34:05Z</time>
      </trkpt>
      <trkpt lat="47.27666" lon="4.10157">
        <ele>643.26</ele>
        <time>2021-08-12T07:34:12Z</time>
      </trkpt>
      <trkpt lat="47.2768" lon="4.10202">
        <ele>643.74</ele>
        <time>2021-08-12T07:34:21Z</time>
      </trkpt>
      <trkpt lat="47.27678" lon="4.10246">
        <ele>644.22</ele>
        <time>2021-08-12T07:34:29Z</time>
      </trkpt>
      <trkpt lat="47.27663" lon="4.10288">
        <ele>644.7</ele>
        <time>2021-08-12T07:34:38Z</time>
      </trkpt>
      <trkpt lat="47.27642" lon="4.10315">
        <ele>645.66</ele>
        <time>2021-08-12T07:34:46Z</time>
      </trkpt>
      <trkpt lat="47.27617" lon="4.10331">
        <ele>646.62</ele>
        <time>2021-08-12T07:34:54Z</time>
      </trkpt>
      <trkpt lat="47.27582" lon="4.10338">
        <ele>647.59</ele>
        <time>2021-08-12T07:35:04Z</time>
      </trkpt>
      <trkpt lat="47.27554" lon="4.10342">
        <ele>648.07</ele>
        <time>2021-08-12T07:35:12Z</time>
      </trkpt>
      <trkpt lat="47.27528" lon="4.10346">
        <ele>648.07</ele>
        <time>2021-08-12T07:35:19Z</time>
      </trkpt>
      <trkpt lat="47.2749" lon="4.10353">
        <ele>649.03</ele>
        <time>2021-08-12T07:35:29Z</time>
      </trkpt>
      <trkpt lat="47.27469" lon="4.10362">
        <ele>649.03</ele>
        <time>2021-08-12T07:35:35Z</time>
      </trkpt>
      <trkpt lat="47.27467" lon="4.10367">
        <ele>649.03</ele>
        <time>2021-08-12T07:35:36Z</time>
      </trkpt>
      <trkpt lat="47.27461" lon="4.10388">
        <ele>649.51</ele>
        <time>2021-08-12T07:35:42Z</time>
      </trkpt>
      <trkpt lat="47.27455" lon="4.10405">
        <ele>650.47</ele>
        <time>2021-08-12T07:35:48Z</time>
      </trkpt>
      <trkpt lat="47.27455" lon="4.10425">
        <ele>650.47</ele>
        <time>2021-08-12T07:35:53Z</time>
      </trkpt>
      <trkpt lat="47.27457" lon="4.10436">
        <ele>650.95</ele>
        <time>2021-08-12T07:35:58Z</time>
      </trkpt>
      <trkpt lat="47.27453" lon="4.10439">
        <ele>652.39</ele>
        <time>2021-08-12T07:36:05Z</time>
      </trkpt>
      <trkpt lat="47.27453" lon="4.10446">
        <ele>653.35</ele>
        <time>2021-08-12T07:36:13Z</time>
      </trkpt>
      <trkpt lat="47.27452" lon="4.10452">
        <ele>654.31</ele>
        <time>2021-08-12T07:36:19Z</time>
      </trkpt>
      <trkpt lat="47.27453" lon="4.10459">
        <ele>654.31</ele>
        <time>2021-08-12T07:36:27Z</time>
      </trkpt>
      <trkpt lat="47.27449" lon="4.10477">
        <ele>653.83</ele>
        <time>2021-08-12T07:36:34Z</time>
      </trkpt>
      <trkpt lat="47.27448" lon="4.1048">
        <ele>653.83</ele>
        <time>2021-08-12T07:36:35Z</time>
      </trkpt>
      <trkpt lat="47.27447" lon="4.10482">
        <ele>653.83</ele>
        <time>2021-08-12T07:36:36Z</time>
      </trkpt>
      <trkpt lat="47.27447" lon="4.10486">
        <ele>654.8</ele>
        <time>2021-08-12T07:36:37Z</time>
      </trkpt>
      <trkpt lat="47.27446" lon="4.10492">
        <ele>654.8</ele>
        <time>2021-08-12T07:36:39Z</time>
      </trkpt>
      <trkpt lat="47.27438" lon="4.10507">
        <ele>655.28</ele>
        <time>2021-08-12T07:36:46Z</time>
      </trkpt>
      <trkpt lat="47.27436" lon="4.1053">
        <ele>655.76</ele>
        <time>2021-08-12T07:36:53Z</time>
      </trkpt>
      <trkpt lat="47.2744" lon="4.10559">
        <ele>656.72</ele>
        <time>2021-08-12T07:37:00Z</time>
      </trkpt>
      <trkpt lat="47.27443" lon="4.10593">
        <ele>657.2</ele>
        <time>2021-08-12T07:37:08Z</time>
      </trkpt>
      <trkpt lat="47.27448" lon="4.10622">
        <ele>658.16</ele>
        <time>2021-08-12T07:37:15Z</time>
      </trkpt>
      <trkpt lat="47.27452" lon="4.10653">
        <ele>658.64</ele>
        <time>2021-08-12T07:37:24Z</time>
      </trkpt>
      <trkpt lat="47.27456" lon="4.10689">
        <ele>659.6</ele>
        <time>2021-08-12T07:37:34Z</time>
      </trkpt>
      <trkpt lat="47.27459" lon="4.1071">
        <ele>659.6</ele>
        <time>2021-08-12T07:37:40Z</time>
      </trkpt>
      <trkpt lat="47.27462" lon="4.10732">
        <ele>660.56</ele>
        <time>2021-08-12T07:37:47Z</time>
      </trkpt>
      <trkpt lat="47.27464" lon="4.10756">
        <ele>660.56</ele>
        <time>2021-08-12T07:37:54Z</time>
      </trkpt>
      <trkpt lat="47.27465" lon="4.10775">
        <ele>661.04</ele>
        <time>2021-08-12T07:38:00Z</time>
      </trkpt>
      <trkpt lat="47.27468" lon="4.10799">
        <ele>662.01</ele>
        <time>2021-08-12T07:38:07Z</time>
      </trkpt>
      <trkpt lat="47.2747" lon="4.10812">
        <ele>662.49</ele>
        <time>2021-08-12T07:38:13Z</time>
      </trkpt>
      <trkpt lat="47.27471" lon="4.10831">
        <ele>662.97</ele>
        <time>2021-08-12T07:38:19Z</time>
      </trkpt>
      <trkpt lat="47.27473" lon="4.10855">
        <ele>663.45</ele>
        <time>2021-08-12T07:38:27Z</time>
      </trkpt>
      <trkpt lat="47.27473" lon="4.10863">
        <ele>663.93</ele>
        <time>2021-08-12T07:38:31Z</time>
      </trkpt>
      <trkpt lat="47.27475" lon="4.10879">
        <ele>664.89</ele>
        <time>2021-08-12T07:38:37Z</time>
      </trkpt>
      <trkpt lat="47.27477" lon="4.10896">
        <ele>665.85</ele>
        <time>2021-08-12T07:38:44Z</time>
      </trkpt>
      <trkpt lat="47.2748" lon="4.10915">
        <ele>666.33</ele>
        <time>2021-08-12T07:38:51Z</time>
      </trkpt>
      <trkpt lat="47.27479" lon="4.1092">
        <ele>666.81</ele>
        <time>2021-08-12T07:38:53Z</time>
      </trkpt>
      <trkpt lat="47.27479" lon="4.10923">
        <ele>666.81</ele>
        <time>2021-08-12T07:38:54Z</time>
      </trkpt>
      <trkpt lat="47.27479" lon="4.10926">
        <ele>667.29</ele>
        <time>2021-08-12T07:38:55Z</time>
      </trkpt>
      <trkpt lat="47.27479" lon="4.10928">
        <ele>667.29</ele>
        <time>2021-08-12T07:38:56Z</time>
      </trkpt>
      <trkpt lat="47.27479" lon="4.10931">
        <ele>667.29</ele>
        <time>2021-08-12T07:38:57Z</time>
      </trkpt>
      <trkpt lat="47.2748" lon="4.10934">
        <ele>667.29</ele>
        <time>2021-08-12T07:38:58Z</time>
      </trkpt>
      <trkpt lat="47.2748" lon="4.10937">
        <ele>667.29</ele>
        <time>2021-08-12T07:38:59Z</time>
      </trkpt>
      <trkpt lat="47.2748" lon="4.1094">
        <ele>667.29</ele>
        <time>2021-08-12T07:39:00Z</time>
      </trkpt>
      <trkpt lat="47.2748" lon="4.10943">
        <ele>667.29</ele>
        <time>2021-08-12T07:39:01Z</time>
      </trkpt>
      <trkpt lat="47.2748" lon="4.10946">
        <ele>667.29</ele>
        <time>2021-08-12T07:39:02Z</time>
      </trkpt>
      <trkpt lat="47.2748" lon="4.10949">
        <ele>667.29</ele>
        <time>2021-08-12T07:39:03Z</time>
      </trkpt>
      <trkpt lat="47.2748" lon="4.10952">
        <ele>667.29</ele>
        <time>2021-08-12T07:39:04Z</time>
      </trkpt>
      <trkpt lat="47.2748" lon="4.10955">
        <ele>667.77</ele>
        <time>2021-08-12T07:39:05Z</time>
      </trkpt>
      <trkpt lat="47.27484" lon="4.10974">
        <ele>667.77</ele>
        <time>2021-08-12T07:39:11Z</time>
      </trkpt>
      <trkpt lat="47.27484" lon="4.10977">
        <ele>668.25</ele>
        <time>2021-08-12T07:39:12Z</time>
      </trkpt>
      <trkpt lat="47.27484" lon="4.11005">
        <ele>668.73</ele>
        <time>2021-08-12T07:39:21Z</time>
      </trkpt>
      <trkpt lat="47.27484" lon="4.11027">
        <ele>669.22</ele>
        <time>2021-08-12T07:39:27Z</time>
      </trkpt>
      <trkpt lat="47.27484" lon="4.11058">
        <ele>669.7</ele>
        <time>2021-08-12T07:39:34Z</time>
      </trkpt>
      <trkpt lat="47.27478" lon="4.11096">
        <ele>669.7</ele>
        <time>2021-08-12T07:39:41Z</time>
      </trkpt>
      <trkpt lat="47.27463" lon="4.11136">
        <ele>669.7</ele>
        <time>2021-08-12T07:39:50Z</time>
      </trkpt>
      <trkpt lat="47.27451" lon="4.11163">
        <ele>669.7</ele>
        <time>2021-08-12T07:39:58Z</time>
      </trkpt>
      <trkpt lat="47.27441" lon="4.11197">
        <ele>668.25</ele>
        <time>2021-08-12T07:40:04Z</time>
      </trkpt>
      <trkpt lat="47.27443" lon="4.11225">
        <ele>667.29</ele>
        <time>2021-08-12T07:40:08Z</time>
      </trkpt>
      <trkpt lat="47.27443" lon="4.1125">
        <ele>666.33</ele>
        <time>2021-08-12T07:40:11Z</time>
      </trkpt>
      <trkpt lat="47.27442" lon="4.11257">
        <ele>666.33</ele>
        <time>2021-08-12T07:40:12Z</time>
      </trkpt>
      <trkpt lat="47.27441" lon="4.11265">
        <ele>665.37</ele>
        <time>2021-08-12T07:40:13Z</time>
      </trkpt>
      <trkpt lat="47.27434" lon="4.11315">
        <ele>665.37</ele>
        <time>2021-08-12T07:40:20Z</time>
      </trkpt>
      <trkpt lat="47.27427" lon="4.11349">
        <ele>664.89</ele>
        <time>2021-08-12T07:40:26Z</time>
      </trkpt>
      <trkpt lat="47.27425" lon="4.11351">
        <ele>664.89</ele>
        <time>2021-08-12T07:40:27Z</time>
      </trkpt>
      <trkpt lat="47.27424" lon="4.11354">
        <ele>664.89</ele>
        <time>2021-08-12T07:40:28Z</time>
      </trkpt>
      <trkpt lat="47.27424" lon="4.11358">
        <ele>664.89</ele>
        <time>2021-08-12T07:40:29Z</time>
      </trkpt>
      <trkpt lat="47.27424" lon="4.11363">
        <ele>664.89</ele>
        <time>2021-08-12T07:40:30Z</time>
      </trkpt>
      <trkpt lat="47.27423" lon="4.11368">
        <ele>664.41</ele>
        <time>2021-08-12T07:40:31Z</time>
      </trkpt>
      <trkpt lat="47.27422" lon="4.11373">
        <ele>664.41</ele>
        <time>2021-08-12T07:40:32Z</time>
      </trkpt>
      <trkpt lat="47.27418" lon="4.11391">
        <ele>663.93</ele>
        <time>2021-08-12T07:40:36Z</time>
      </trkpt>
      <trkpt lat="47.27417" lon="4.11395">
        <ele>663.93</ele>
        <time>2021-08-12T07:40:37Z</time>
      </trkpt>
      <trkpt lat="47.27416" lon="4.114">
        <ele>663.93</ele>
        <time>2021-08-12T07:40:38Z</time>
      </trkpt>
      <trkpt lat="47.27416" lon="4.11404">
        <ele>663.93</ele>
        <time>2021-08-12T07:40:39Z</time>
      </trkpt>
      <trkpt lat="47.27416" lon="4.11409">
        <ele>663.93</ele>
        <time>2021-08-12T07:40:40Z</time>
      </trkpt>
      <trkpt lat="47.27418" lon="4.11442">
        <ele>663.93</ele>
        <time>2021-08-12T07:40:46Z</time>
      </trkpt>
      <trkpt lat="47.27421" lon="4.11477">
        <ele>662.49</ele>
        <time>2021-08-12T07:40:52Z</time>
      </trkpt>
      <trkpt lat="47.27421" lon="4.11484">
        <ele>662.49</ele>
        <time>2021-08-12T07:40:53Z</time>
      </trkpt>
      <trkpt lat="47.27418" lon="4.11525">
        <ele>660.56</ele>
        <time>2021-08-12T07:40:58Z</time>
      </trkpt>
      <trkpt lat="47.27418" lon="4.11534">
        <ele>659.6</ele>
        <time>2021-08-12T07:40:59Z</time>
      </trkpt>
      <trkpt lat="47.27416" lon="4.11574">
        <ele>657.68</ele>
        <time>2021-08-12T07:41:04Z</time>
      </trkpt>
      <trkpt lat="47.27415" lon="4.11582">
        <ele>656.72</ele>
        <time>2021-08-12T07:41:05Z</time>
      </trkpt>
      <trkpt lat="47.27413" lon="4.11589">
        <ele>656.72</ele>
        <time>2021-08-12T07:41:06Z</time>
      </trkpt>
      <trkpt lat="47.27411" lon="4.11597">
        <ele>655.76</ele>
        <time>2021-08-12T07:41:07Z</time>
      </trkpt>
      <trkpt lat="47.27409" lon="4.11605">
        <ele>655.76</ele>
        <time>2021-08-12T07:41:08Z</time>
      </trkpt>
      <trkpt lat="47.27407" lon="4.11612">
        <ele>654.8</ele>
        <time>2021-08-12T07:41:09Z</time>
      </trkpt>
      <trkpt lat="47.27405" lon="4.11637">
        <ele>652.87</ele>
        <time>2021-08-12T07:41:13Z</time>
      </trkpt>
      <trkpt lat="47.27406" lon="4.11662">
        <ele>649.99</ele>
        <time>2021-08-12T07:41:19Z</time>
      </trkpt>
      <trkpt lat="47.27406" lon="4.11668">
        <ele>649.51</ele>
        <time>2021-08-12T07:41:20Z</time>
      </trkpt>
      <trkpt lat="47.27407" lon="4.11691">
        <ele>647.59</ele>
        <time>2021-08-12T07:41:24Z</time>
      </trkpt>
      <trkpt lat="47.27409" lon="4.11709">
        <ele>645.66</ele>
        <time>2021-08-12T07:41:27Z</time>
      </trkpt>
      <trkpt lat="47.27412" lon="4.11724">
        <ele>644.22</ele>
        <time>2021-08-12T07:41:29Z</time>
      </trkpt>
      <trkpt lat="47.27421" lon="4.11759">
        <ele>640.38</ele>
        <time>2021-08-12T07:41:33Z</time>
      </trkpt>
      <trkpt lat="47.27424" lon="4.11779">
        <ele>638.93</ele>
        <time>2021-08-12T07:41:35Z</time>
      </trkpt>
      <trkpt lat="47.27432" lon="4.11816">
        <ele>635.09</ele>
        <time>2021-08-12T07:41:39Z</time>
      </trkpt>
      <trkpt lat="47.27433" lon="4.11825">
        <ele>634.13</ele>
        <time>2021-08-12T07:41:40Z</time>
      </trkpt>
      <trkpt lat="47.27432" lon="4.11835">
        <ele>633.65</ele>
        <time>2021-08-12T07:41:41Z</time>
      </trkpt>
      <trkpt lat="47.27432" lon="4.11853">
        <ele>632.2</ele>
        <time>2021-08-12T07:41:43Z</time>
      </trkpt>
      <trkpt lat="47.27433" lon="4.11872">
        <ele>630.28</ele>
        <time>2021-08-12T07:41:45Z</time>
      </trkpt>
      <trkpt lat="47.27432" lon="4.11881">
        <ele>629.32</ele>
        <time>2021-08-12T07:41:46Z</time>
      </trkpt>
      <trkpt lat="47.27431" lon="4.11887">
        <ele>629.32</ele>
        <time>2021-08-12T07:41:47Z</time>
      </trkpt>
      <trkpt lat="47.27424" lon="4.11915">
        <ele>626.92</ele>
        <time>2021-08-12T07:41:53Z</time>
      </trkpt>
      <trkpt lat="47.27421" lon="4.11928">
        <ele>625.96</ele>
        <time>2021-08-12T07:41:55Z</time>
      </trkpt>
      <trkpt lat="47.27418" lon="4.1194">
        <ele>624.99</ele>
        <time>2021-08-12T07:41:57Z</time>
      </trkpt>
      <trkpt lat="47.27416" lon="4.11947">
        <ele>624.03</ele>
        <time>2021-08-12T07:41:58Z</time>
      </trkpt>
      <trkpt lat="47.27414" lon="4.11954">
        <ele>623.55</ele>
        <time>2021-08-12T07:41:59Z</time>
      </trkpt>
      <trkpt lat="47.27412" lon="4.11962">
        <ele>622.59</ele>
        <time>2021-08-12T07:42:00Z</time>
      </trkpt>
      <trkpt lat="47.2741" lon="4.1197">
        <ele>622.59</ele>
        <time>2021-08-12T07:42:01Z</time>
      </trkpt>
      <trkpt lat="47.27409" lon="4.11979">
        <ele>621.15</ele>
        <time>2021-08-12T07:42:02Z</time>
      </trkpt>
      <trkpt lat="47.27404" lon="4.12002">
        <ele>619.71</ele>
        <time>2021-08-12T07:42:05Z</time>
      </trkpt>
      <trkpt lat="47.27403" lon="4.12009">
        <ele>618.75</ele>
        <time>2021-08-12T07:42:06Z</time>
      </trkpt>
      <trkpt lat="47.27402" lon="4.12014">
        <ele>618.26</ele>
        <time>2021-08-12T07:42:07Z</time>
      </trkpt>
      <trkpt lat="47.27401" lon="4.12019">
        <ele>618.26</ele>
        <time>2021-08-12T07:42:08Z</time>
      </trkpt>
      <trkpt lat="47.274" lon="4.12025">
        <ele>617.3</ele>
        <time>2021-08-12T07:42:09Z</time>
      </trkpt>
      <trkpt lat="47.27399" lon="4.12029">
        <ele>617.3</ele>
        <time>2021-08-12T07:42:10Z</time>
      </trkpt>
      <trkpt lat="47.27396" lon="4.12032">
        <ele>616.82</ele>
        <time>2021-08-12T07:42:11Z</time>
      </trkpt>
      <trkpt lat="47.27394" lon="4.12035">
        <ele>615.86</ele>
        <time>2021-08-12T07:42:12Z</time>
      </trkpt>
      <trkpt lat="47.27382" lon="4.12056">
        <ele>612.5</ele>
        <time>2021-08-12T07:42:18Z</time>
      </trkpt>
      <trkpt lat="47.27381" lon="4.12059">
        <ele>612.5</ele>
        <time>2021-08-12T07:42:19Z</time>
      </trkpt>
      <trkpt lat="47.27373" lon="4.12085">
        <ele>609.61</ele>
        <time>2021-08-12T07:42:25Z</time>
      </trkpt>
      <trkpt lat="47.27371" lon="4.12088">
        <ele>609.61</ele>
        <time>2021-08-12T07:42:26Z</time>
      </trkpt>
      <trkpt lat="47.2737" lon="4.12091">
        <ele>609.13</ele>
        <time>2021-08-12T07:42:27Z</time>
      </trkpt>
      <trkpt lat="47.27369" lon="4.12094">
        <ele>609.13</ele>
        <time>2021-08-12T07:42:28Z</time>
      </trkpt>
      <trkpt lat="47.27367" lon="4.12097">
        <ele>609.13</ele>
        <time>2021-08-12T07:42:29Z</time>
      </trkpt>
      <trkpt lat="47.27365" lon="4.12102">
        <ele>608.65</ele>
        <time>2021-08-12T07:42:31Z</time>
      </trkpt>
      <trkpt lat="47.27363" lon="4.1212">
        <ele>609.13</ele>
        <time>2021-08-12T07:42:40Z</time>
      </trkpt>
      <trkpt lat="47.27365" lon="4.12132">
        <ele>610.57</ele>
        <time>2021-08-12T07:42:47Z</time>
      </trkpt>
      <trkpt lat="47.27366" lon="4.12135">
        <ele>611.06</ele>
        <time>2021-08-12T07:42:48Z</time>
      </trkpt>
      <trkpt lat="47.27366" lon="4.12137">
        <ele>611.06</ele>
        <time>2021-08-12T07:42:49Z</time>
      </trkpt>
      <trkpt lat="47.27368" lon="4.12154">
        <ele>612.02</ele>
        <time>2021-08-12T07:42:57Z</time>
      </trkpt>
      <trkpt lat="47.27368" lon="4.12163">
        <ele>612.5</ele>
        <time>2021-08-12T07:43:01Z</time>
      </trkpt>
      <trkpt lat="47.27368" lon="4.12165">
        <ele>612.5</ele>
        <time>2021-08-12T07:43:02Z</time>
      </trkpt>
      <trkpt lat="47.27369" lon="4.12168">
        <ele>612.5</ele>
        <time>2021-08-12T07:43:03Z</time>
      </trkpt>
      <trkpt lat="47.2737" lon="4.1217">
        <ele>612.5</ele>
        <time>2021-08-12T07:43:04Z</time>
      </trkpt>
      <trkpt lat="47.2737" lon="4.12173">
        <ele>612.5</ele>
        <time>2021-08-12T07:43:05Z</time>
      </trkpt>
      <trkpt lat="47.27371" lon="4.12176">
        <ele>612.5</ele>
        <time>2021-08-12T07:43:06Z</time>
      </trkpt>
      <trkpt lat="47.27373" lon="4.12195">
        <ele>612.98</ele>
        <time>2021-08-12T07:43:12Z</time>
      </trkpt>
      <trkpt lat="47.27373" lon="4.12199">
        <ele>612.98</ele>
        <time>2021-08-12T07:43:13Z</time>
      </trkpt>
      <trkpt lat="47.27373" lon="4.12202">
        <ele>612.98</ele>
        <time>2021-08-12T07:43:14Z</time>
      </trkpt>
      <trkpt lat="47.27375" lon="4.12226">
        <ele>612.98</ele>
        <time>2021-08-12T07:43:22Z</time>
      </trkpt>
      <trkpt lat="47.27376" lon="4.12249">
        <ele>613.46</ele>
        <time>2021-08-12T07:43:30Z</time>
      </trkpt>
      <trkpt lat="47.27376" lon="4.12272">
        <ele>613.46</ele>
        <time>2021-08-12T07:43:36Z</time>
      </trkpt>
      <trkpt lat="47.27374" lon="4.12282">
        <ele>613.94</ele>
        <time>2021-08-12T07:43:40Z</time>
      </trkpt>
      <trkpt lat="47.27375" lon="4.12297">
        <ele>614.9</ele>
        <time>2021-08-12T07:43:45Z</time>
      </trkpt>
      <trkpt lat="47.27378" lon="4.12315">
        <ele>615.86</ele>
        <time>2021-08-12T07:43:54Z</time>
      </trkpt>
      <trkpt lat="47.27379" lon="4.12321">
        <ele>616.34</ele>
        <time>2021-08-12T07:43:57Z</time>
      </trkpt>
      <trkpt lat="47.2738" lon="4.12323">
        <ele>616.34</ele>
        <time>2021-08-12T07:43:58Z</time>
      </trkpt>
      <trkpt lat="47.27381" lon="4.12326">
        <ele>617.3</ele>
        <time>2021-08-12T07:43:59Z</time>
      </trkpt>
      <trkpt lat="47.27387" lon="4.12342">
        <ele>618.75</ele>
        <time>2021-08-12T07:44:04Z</time>
      </trkpt>
      <trkpt lat="47.27387" lon="4.12374">
        <ele>618.75</ele>
        <time>2021-08-12T07:44:11Z</time>
      </trkpt>
      <trkpt lat="47.27389" lon="4.1241">
        <ele>618.75</ele>
        <time>2021-08-12T07:44:17Z</time>
      </trkpt>
      <trkpt lat="47.274" lon="4.12464">
        <ele>617.3</ele>
        <time>2021-08-12T07:44:24Z</time>
      </trkpt>
      <trkpt lat="47.274" lon="4.12478">
        <ele>615.86</ele>
        <time>2021-08-12T07:44:26Z</time>
      </trkpt>
      <trkpt lat="47.27399" lon="4.12485">
        <ele>615.38</ele>
        <time>2021-08-12T07:44:27Z</time>
      </trkpt>
      <trkpt lat="47.27398" lon="4.12491">
        <ele>614.42</ele>
        <time>2021-08-12T07:44:28Z</time>
      </trkpt>
      <trkpt lat="47.27398" lon="4.12497">
        <ele>613.46</ele>
        <time>2021-08-12T07:44:29Z</time>
      </trkpt>
      <trkpt lat="47.27397" lon="4.12504">
        <ele>612.98</ele>
        <time>2021-08-12T07:44:30Z</time>
      </trkpt>
      <trkpt lat="47.27396" lon="4.12519">
        <ele>612.5</ele>
        <time>2021-08-12T07:44:32Z</time>
      </trkpt>
      <trkpt lat="47.27395" lon="4.12525">
        <ele>611.54</ele>
        <time>2021-08-12T07:44:33Z</time>
      </trkpt>
      <trkpt lat="47.27393" lon="4.12533">
        <ele>611.06</ele>
        <time>2021-08-12T07:44:34Z</time>
      </trkpt>
      <trkpt lat="47.2739" lon="4.12547">
        <ele>610.09</ele>
        <time>2021-08-12T07:44:36Z</time>
      </trkpt>
      <trkpt lat="47.27387" lon="4.12559">
        <ele>609.13</ele>
        <time>2021-08-12T07:44:38Z</time>
      </trkpt>
      <trkpt lat="47.27386" lon="4.12566">
        <ele>608.17</ele>
        <time>2021-08-12T07:44:39Z</time>
      </trkpt>
      <trkpt lat="47.2738" lon="4.12597">
        <ele>605.29</ele>
        <time>2021-08-12T07:44:45Z</time>
      </trkpt>
      <trkpt lat="47.27374" lon="4.12617">
        <ele>603.36</ele>
        <time>2021-08-12T07:44:50Z</time>
      </trkpt>
      <trkpt lat="47.27363" lon="4.1264">
        <ele>602.88</ele>
        <time>2021-08-12T07:44:55Z</time>
      </trkpt>
      <trkpt lat="47.2736" lon="4.12646">
        <ele>602.88</ele>
        <time>2021-08-12T07:44:56Z</time>
      </trkpt>
      <trkpt lat="47.27348" lon="4.12669">
        <ele>602.4</ele>
        <time>2021-08-12T07:45:00Z</time>
      </trkpt>
      <trkpt lat="47.27346" lon="4.12676">
        <ele>602.4</ele>
        <time>2021-08-12T07:45:01Z</time>
      </trkpt>
      <trkpt lat="47.27344" lon="4.12683">
        <ele>601.44</ele>
        <time>2021-08-12T07:45:02Z</time>
      </trkpt>
      <trkpt lat="47.27345" lon="4.12748">
        <ele>600.96</ele>
        <time>2021-08-12T07:45:10Z</time>
      </trkpt>
      <trkpt lat="47.27347" lon="4.12779">
        <ele>600.48</ele>
        <time>2021-08-12T07:45:14Z</time>
      </trkpt>
      <trkpt lat="47.27348" lon="4.12784">
        <ele>600.48</ele>
        <time>2021-08-12T07:45:15Z</time>
      </trkpt>
      <trkpt lat="47.27348" lon="4.12787">
        <ele>600</ele>
        <time>2021-08-12T07:45:16Z</time>
      </trkpt>
      <trkpt lat="47.27356" lon="4.12808">
        <ele>599.04</ele>
        <time>2021-08-12T07:45:21Z</time>
      </trkpt>
      <trkpt lat="47.27359" lon="4.12812">
        <ele>599.04</ele>
        <time>2021-08-12T07:45:22Z</time>
      </trkpt>
      <trkpt lat="47.27391" lon="4.12846">
        <ele>596.15</ele>
        <time>2021-08-12T07:45:28Z</time>
      </trkpt>
      <trkpt lat="47.27403" lon="4.12861">
        <ele>595.67</ele>
        <time>2021-08-12T07:45:30Z</time>
      </trkpt>
      <trkpt lat="47.27428" lon="4.12909">
        <ele>593.27</ele>
        <time>2021-08-12T07:45:35Z</time>
      </trkpt>
      <trkpt lat="47.27432" lon="4.1292">
        <ele>593.27</ele>
        <time>2021-08-12T07:45:36Z</time>
      </trkpt>
      <trkpt lat="47.27458" lon="4.13012">
        <ele>590.87</ele>
        <time>2021-08-12T07:45:44Z</time>
      </trkpt>
      <trkpt lat="47.27459" lon="4.13021">
        <ele>590.87</ele>
        <time>2021-08-12T07:45:45Z</time>
      </trkpt>
      <trkpt lat="47.27459" lon="4.1303">
        <ele>590.87</ele>
        <time>2021-08-12T07:45:46Z</time>
      </trkpt>
      <trkpt lat="47.27458" lon="4.13034">
        <ele>590.39</ele>
        <time>2021-08-12T07:45:47Z</time>
      </trkpt>
      <trkpt lat="47.27457" lon="4.13039">
        <ele>590.39</ele>
        <time>2021-08-12T07:45:48Z</time>
      </trkpt>
      <trkpt lat="47.27456" lon="4.13043">
        <ele>590.39</ele>
        <time>2021-08-12T07:45:49Z</time>
      </trkpt>
      <trkpt lat="47.27455" lon="4.13048">
        <ele>590.39</ele>
        <time>2021-08-12T07:45:50Z</time>
      </trkpt>
      <trkpt lat="47.27455" lon="4.13052">
        <ele>590.39</ele>
        <time>2021-08-12T07:45:51Z</time>
      </trkpt>
      <trkpt lat="47.27455" lon="4.13094">
        <ele>590.39</ele>
        <time>2021-08-12T07:45:58Z</time>
      </trkpt>
      <trkpt lat="47.27456" lon="4.13113">
        <ele>590.39</ele>
        <time>2021-08-12T07:46:01Z</time>
      </trkpt>
      <trkpt lat="47.27458" lon="4.13119">
        <ele>590.39</ele>
        <time>2021-08-12T07:46:02Z</time>
      </trkpt>
      <trkpt lat="47.27466" lon="4.13154">
        <ele>589.91</ele>
        <time>2021-08-12T07:46:07Z</time>
      </trkpt>
      <trkpt lat="47.27472" lon="4.13173">
        <ele>589.91</ele>
        <time>2021-08-12T07:46:10Z</time>
      </trkpt>
      <trkpt lat="47.27475" lon="4.13178">
        <ele>591.35</ele>
        <time>2021-08-12T07:46:11Z</time>
      </trkpt>
      <trkpt lat="47.27478" lon="4.13183">
        <ele>591.35</ele>
        <time>2021-08-12T07:46:12Z</time>
      </trkpt>
      <trkpt lat="47.27499" lon="4.13208">
        <ele>592.31</ele>
        <time>2021-08-12T07:46:20Z</time>
      </trkpt>
      <trkpt lat="47.27519" lon="4.13233">
        <ele>593.27</ele>
        <time>2021-08-12T07:46:30Z</time>
      </trkpt>
      <trkpt lat="47.2754" lon="4.13254">
        <ele>594.71</ele>
        <time>2021-08-12T07:46:39Z</time>
      </trkpt>
      <trkpt lat="47.27561" lon="4.13284">
        <ele>595.19</ele>
        <time>2021-08-12T07:46:47Z</time>
      </trkpt>
      <trkpt lat="47.27566" lon="4.13295">
        <ele>595.19</ele>
        <time>2021-08-12T07:46:49Z</time>
      </trkpt>
      <trkpt lat="47.27582" lon="4.13346">
        <ele>593.75</ele>
        <time>2021-08-12T07:46:56Z</time>
      </trkpt>
      <trkpt lat="47.2759" lon="4.13363">
        <ele>592.31</ele>
        <time>2021-08-12T07:46:58Z</time>
      </trkpt>
      <trkpt lat="47.27599" lon="4.13379">
        <ele>590.87</ele>
        <time>2021-08-12T07:47:00Z</time>
      </trkpt>
      <trkpt lat="47.27628" lon="4.13417">
        <ele>587.98</ele>
        <time>2021-08-12T07:47:05Z</time>
      </trkpt>
      <trkpt lat="47.27635" lon="4.13426">
        <ele>587.98</ele>
        <time>2021-08-12T07:47:06Z</time>
      </trkpt>
      <trkpt lat="47.27656" lon="4.13454">
        <ele>584.62</ele>
        <time>2021-08-12T07:47:09Z</time>
      </trkpt>
      <trkpt lat="47.27661" lon="4.13465">
        <ele>583.66</ele>
        <time>2021-08-12T07:47:10Z</time>
      </trkpt>
      <trkpt lat="47.27666" lon="4.13478">
        <ele>582.7</ele>
        <time>2021-08-12T07:47:11Z</time>
      </trkpt>
      <trkpt lat="47.27669" lon="4.13493">
        <ele>581.73</ele>
        <time>2021-08-12T07:47:12Z</time>
      </trkpt>
      <trkpt lat="47.2767" lon="4.13509">
        <ele>580.77</ele>
        <time>2021-08-12T07:47:13Z</time>
      </trkpt>
      <trkpt lat="47.2767" lon="4.13525">
        <ele>579.81</ele>
        <time>2021-08-12T07:47:14Z</time>
      </trkpt>
      <trkpt lat="47.27666" lon="4.13539">
        <ele>579.33</ele>
        <time>2021-08-12T07:47:15Z</time>
      </trkpt>
      <trkpt lat="47.27661" lon="4.13552">
        <ele>578.85</ele>
        <time>2021-08-12T07:47:16Z</time>
      </trkpt>
      <trkpt lat="47.27655" lon="4.13565">
        <ele>578.37</ele>
        <time>2021-08-12T07:47:17Z</time>
      </trkpt>
      <trkpt lat="47.27648" lon="4.13578">
        <ele>577.41</ele>
        <time>2021-08-12T07:47:18Z</time>
      </trkpt>
      <trkpt lat="47.27641" lon="4.1359">
        <ele>576.45</ele>
        <time>2021-08-12T07:47:19Z</time>
      </trkpt>
      <trkpt lat="47.27635" lon="4.136">
        <ele>576.45</ele>
        <time>2021-08-12T07:47:20Z</time>
      </trkpt>
      <trkpt lat="47.27631" lon="4.13613">
        <ele>575.01</ele>
        <time>2021-08-12T07:47:21Z</time>
      </trkpt>
      <trkpt lat="47.27628" lon="4.13626">
        <ele>574.53</ele>
        <time>2021-08-12T07:47:22Z</time>
      </trkpt>
      <trkpt lat="47.27627" lon="4.13641">
        <ele>573.56</ele>
        <time>2021-08-12T07:47:23Z</time>
      </trkpt>
      <trkpt lat="47.27628" lon="4.13656">
        <ele>573.08</ele>
        <time>2021-08-12T07:47:24Z</time>
      </trkpt>
      <trkpt lat="47.2763" lon="4.13671">
        <ele>571.64</ele>
        <time>2021-08-12T07:47:25Z</time>
      </trkpt>
      <trkpt lat="47.27634" lon="4.13686">
        <ele>570.68</ele>
        <time>2021-08-12T07:47:26Z</time>
      </trkpt>
      <trkpt lat="47.27641" lon="4.13717">
        <ele>569.24</ele>
        <time>2021-08-12T07:47:28Z</time>
      </trkpt>
      <trkpt lat="47.27643" lon="4.13733">
        <ele>568.28</ele>
        <time>2021-08-12T07:47:29Z</time>
      </trkpt>
      <trkpt lat="47.27642" lon="4.1375">
        <ele>567.32</ele>
        <time>2021-08-12T07:47:30Z</time>
      </trkpt>
      <trkpt lat="47.27639" lon="4.13765">
        <ele>566.83</ele>
        <time>2021-08-12T07:47:31Z</time>
      </trkpt>
      <trkpt lat="47.27633" lon="4.1378">
        <ele>565.87</ele>
        <time>2021-08-12T07:47:32Z</time>
      </trkpt>
      <trkpt lat="47.27626" lon="4.13793">
        <ele>565.39</ele>
        <time>2021-08-12T07:47:33Z</time>
      </trkpt>
      <trkpt lat="47.27618" lon="4.13804">
        <ele>564.43</ele>
        <time>2021-08-12T07:47:34Z</time>
      </trkpt>
      <trkpt lat="47.27608" lon="4.13814">
        <ele>563.95</ele>
        <time>2021-08-12T07:47:35Z</time>
      </trkpt>
      <trkpt lat="47.27598" lon="4.13822">
        <ele>562.99</ele>
        <time>2021-08-12T07:47:36Z</time>
      </trkpt>
      <trkpt lat="47.27588" lon="4.1383">
        <ele>562.51</ele>
        <time>2021-08-12T07:47:37Z</time>
      </trkpt>
      <trkpt lat="47.27533" lon="4.13861">
        <ele>560.59</ele>
        <time>2021-08-12T07:47:42Z</time>
      </trkpt>
      <trkpt lat="47.27518" lon="4.13872">
        <ele>560.11</ele>
        <time>2021-08-12T07:47:44Z</time>
      </trkpt>
      <trkpt lat="47.27511" lon="4.1388">
        <ele>559.62</ele>
        <time>2021-08-12T07:47:45Z</time>
      </trkpt>
      <trkpt lat="47.27507" lon="4.13888">
        <ele>559.14</ele>
        <time>2021-08-12T07:47:46Z</time>
      </trkpt>
      <trkpt lat="47.27503" lon="4.13901">
        <ele>558.18</ele>
        <time>2021-08-12T07:47:47Z</time>
      </trkpt>
      <trkpt lat="47.27502" lon="4.13912">
        <ele>558.18</ele>
        <time>2021-08-12T07:47:48Z</time>
      </trkpt>
      <trkpt lat="47.27503" lon="4.13922">
        <ele>558.18</ele>
        <time>2021-08-12T07:47:49Z</time>
      </trkpt>
      <trkpt lat="47.27504" lon="4.13934">
        <ele>558.18</ele>
        <time>2021-08-12T07:47:50Z</time>
      </trkpt>
      <trkpt lat="47.27506" lon="4.13944">
        <ele>558.18</ele>
        <time>2021-08-12T07:47:51Z</time>
      </trkpt>
      <trkpt lat="47.27508" lon="4.13956">
        <ele>558.18</ele>
        <time>2021-08-12T07:47:52Z</time>
      </trkpt>
      <trkpt lat="47.27511" lon="4.13966">
        <ele>558.18</ele>
        <time>2021-08-12T07:47:53Z</time>
      </trkpt>
      <trkpt lat="47.27537" lon="4.14036">
        <ele>557.7</ele>
        <time>2021-08-12T07:48:01Z</time>
      </trkpt>
      <trkpt lat="47.27542" lon="4.14053">
        <ele>557.7</ele>
        <time>2021-08-12T07:48:03Z</time>
      </trkpt>
      <trkpt lat="47.27545" lon="4.1407">
        <ele>557.7</ele>
        <time>2021-08-12T07:48:05Z</time>
      </trkpt>
      <trkpt lat="47.27545" lon="4.14078">
        <ele>557.7</ele>
        <time>2021-08-12T07:48:06Z</time>
      </trkpt>
      <trkpt lat="47.27545" lon="4.14087">
        <ele>557.7</ele>
        <time>2021-08-12T07:48:07Z</time>
      </trkpt>
      <trkpt lat="47.27545" lon="4.14096">
        <ele>557.7</ele>
        <time>2021-08-12T07:48:08Z</time>
      </trkpt>
      <trkpt lat="47.27543" lon="4.14105">
        <ele>557.7</ele>
        <time>2021-08-12T07:48:09Z</time>
      </trkpt>
      <trkpt lat="47.27542" lon="4.14113">
        <ele>557.7</ele>
        <time>2021-08-12T07:48:10Z</time>
      </trkpt>
      <trkpt lat="47.2754" lon="4.14121">
        <ele>557.7</ele>
        <time>2021-08-12T07:48:11Z</time>
      </trkpt>
      <trkpt lat="47.27532" lon="4.14172">
        <ele>558.66</ele>
        <time>2021-08-12T07:48:18Z</time>
      </trkpt>
      <trkpt lat="47.27531" lon="4.14186">
        <ele>559.62</ele>
        <time>2021-08-12T07:48:21Z</time>
      </trkpt>
      <trkpt lat="47.27529" lon="4.14188">
        <ele>559.62</ele>
        <time>2021-08-12T07:48:22Z</time>
      </trkpt>
      <trkpt lat="47.27527" lon="4.14188">
        <ele>560.59</ele>
        <time>2021-08-12T07:48:23Z</time>
      </trkpt>
      <trkpt lat="47.27526" lon="4.14187">
        <ele>560.59</ele>
        <time>2021-08-12T07:48:24Z</time>
      </trkpt>
      <trkpt lat="47.27525" lon="4.14186">
        <ele>560.11</ele>
        <time>2021-08-12T07:48:25Z</time>
      </trkpt>
      <trkpt lat="47.27524" lon="4.14184">
        <ele>561.07</ele>
        <time>2021-08-12T07:48:26Z</time>
      </trkpt>
      <trkpt lat="47.27522" lon="4.14181">
        <ele>561.07</ele>
        <time>2021-08-12T07:48:27Z</time>
      </trkpt>
      <trkpt lat="47.27505" lon="4.14159">
        <ele>560.59</ele>
        <time>2021-08-12T07:48:35Z</time>
      </trkpt>
      <trkpt lat="47.27481" lon="4.14146">
        <ele>561.07</ele>
        <time>2021-08-12T07:48:43Z</time>
      </trkpt>
      <trkpt lat="47.27454" lon="4.1414">
        <ele>562.51</ele>
        <time>2021-08-12T07:48:51Z</time>
      </trkpt>
      <trkpt lat="47.2743" lon="4.14137">
        <ele>563.47</ele>
        <time>2021-08-12T07:48:59Z</time>
      </trkpt>
      <trkpt lat="47.27401" lon="4.14128">
        <ele>564.43</ele>
        <time>2021-08-12T07:49:09Z</time>
      </trkpt>
      <trkpt lat="47.27375" lon="4.14112">
        <ele>566.35</ele>
        <time>2021-08-12T07:49:19Z</time>
      </trkpt>
      <trkpt lat="47.27348" lon="4.14095">
        <ele>567.32</ele>
        <time>2021-08-12T07:49:29Z</time>
      </trkpt>
      <trkpt lat="47.27327" lon="4.14081">
        <ele>567.8</ele>
        <time>2021-08-12T07:49:37Z</time>
      </trkpt>
      <trkpt lat="47.27298" lon="4.14054">
        <ele>568.28</ele>
        <time>2021-08-12T07:49:48Z</time>
      </trkpt>
      <trkpt lat="47.27275" lon="4.14034">
        <ele>569.72</ele>
        <time>2021-08-12T07:49:57Z</time>
      </trkpt>
      <trkpt lat="47.27261" lon="4.14023">
        <ele>570.2</ele>
        <time>2021-08-12T07:50:04Z</time>
      </trkpt>
      <trkpt lat="47.27246" lon="4.1401">
        <ele>570.68</ele>
        <time>2021-08-12T07:50:11Z</time>
      </trkpt>
      <trkpt lat="47.27238" lon="4.14002">
        <ele>571.64</ele>
        <time>2021-08-12T07:50:16Z</time>
      </trkpt>
      <trkpt lat="47.27236" lon="4.14">
        <ele>571.16</ele>
        <time>2021-08-12T07:50:17Z</time>
      </trkpt>
      <trkpt lat="47.27234" lon="4.13997">
        <ele>571.16</ele>
        <time>2021-08-12T07:50:18Z</time>
      </trkpt>
      <trkpt lat="47.27219" lon="4.13974">
        <ele>572.6</ele>
        <time>2021-08-12T07:50:28Z</time>
      </trkpt>
      <trkpt lat="47.27206" lon="4.13963">
        <ele>573.56</ele>
        <time>2021-08-12T07:50:37Z</time>
      </trkpt>
      <trkpt lat="47.27196" lon="4.13959">
        <ele>575.49</ele>
        <time>2021-08-12T07:50:45Z</time>
      </trkpt>
      <trkpt lat="47.27188" lon="4.13953">
        <ele>575.97</ele>
        <time>2021-08-12T07:50:51Z</time>
      </trkpt>
      <trkpt lat="47.27179" lon="4.13946">
        <ele>576.93</ele>
        <time>2021-08-12T07:50:59Z</time>
      </trkpt>
      <trkpt lat="47.27166" lon="4.13942">
        <ele>578.85</ele>
        <time>2021-08-12T07:51:08Z</time>
      </trkpt>
      <trkpt lat="47.27155" lon="4.13939">
        <ele>580.77</ele>
        <time>2021-08-12T07:51:18Z</time>
      </trkpt>
      <trkpt lat="47.27143" lon="4.13939">
        <ele>582.22</ele>
        <time>2021-08-12T07:51:28Z</time>
      </trkpt>
      <trkpt lat="47.27134" lon="4.13943">
        <ele>583.66</ele>
        <time>2021-08-12T07:51:36Z</time>
      </trkpt>
      <trkpt lat="47.27124" lon="4.13951">
        <ele>584.62</ele>
        <time>2021-08-12T07:51:44Z</time>
      </trkpt>
      <trkpt lat="47.27114" lon="4.1396">
        <ele>585.58</ele>
        <time>2021-08-12T07:51:52Z</time>
      </trkpt>
      <trkpt lat="47.27098" lon="4.13984">
        <ele>587.5</ele>
        <time>2021-08-12T07:52:03Z</time>
      </trkpt>
      <trkpt lat="47.27085" lon="4.13996">
        <ele>587.5</ele>
        <time>2021-08-12T07:52:10Z</time>
      </trkpt>
      <trkpt lat="47.27062" lon="4.14026">
        <ele>587.5</ele>
        <time>2021-08-12T07:52:20Z</time>
      </trkpt>
      <trkpt lat="47.27041" lon="4.14043">
        <ele>587.98</ele>
        <time>2021-08-12T07:52:27Z</time>
      </trkpt>
      <trkpt lat="47.27034" lon="4.14048">
        <ele>587.98</ele>
        <time>2021-08-12T07:52:29Z</time>
      </trkpt>
      <trkpt lat="47.2703" lon="4.14052">
        <ele>587.98</ele>
        <time>2021-08-12T07:52:30Z</time>
      </trkpt>
      <trkpt lat="47.27026" lon="4.14055">
        <ele>587.98</ele>
        <time>2021-08-12T07:52:31Z</time>
      </trkpt>
      <trkpt lat="47.27017" lon="4.1406">
        <ele>587.98</ele>
        <time>2021-08-12T07:52:33Z</time>
      </trkpt>
      <trkpt lat="47.27013" lon="4.14061">
        <ele>587.98</ele>
        <time>2021-08-12T07:52:34Z</time>
      </trkpt>
      <trkpt lat="47.27008" lon="4.14061">
        <ele>587.98</ele>
        <time>2021-08-12T07:52:35Z</time>
      </trkpt>
      <trkpt lat="47.26995" lon="4.14061">
        <ele>587.98</ele>
        <time>2021-08-12T07:52:38Z</time>
      </trkpt>
      <trkpt lat="47.2699" lon="4.14062">
        <ele>586.06</ele>
        <time>2021-08-12T07:52:39Z</time>
      </trkpt>
      <trkpt lat="47.26966" lon="4.14067">
        <ele>584.62</ele>
        <time>2021-08-12T07:52:43Z</time>
      </trkpt>
      <trkpt lat="47.2696" lon="4.14067">
        <ele>584.14</ele>
        <time>2021-08-12T07:52:44Z</time>
      </trkpt>
      <trkpt lat="47.26954" lon="4.14065">
        <ele>584.14</ele>
        <time>2021-08-12T07:52:45Z</time>
      </trkpt>
      <trkpt lat="47.26928" lon="4.14055">
        <ele>584.62</ele>
        <time>2021-08-12T07:52:50Z</time>
      </trkpt>
      <trkpt lat="47.26923" lon="4.14054">
        <ele>584.62</ele>
        <time>2021-08-12T07:52:51Z</time>
      </trkpt>
      <trkpt lat="47.26919" lon="4.14055">
        <ele>584.62</ele>
        <time>2021-08-12T07:52:52Z</time>
      </trkpt>
      <trkpt lat="47.2691" lon="4.14056">
        <ele>585.58</ele>
        <time>2021-08-12T07:52:54Z</time>
      </trkpt>
      <trkpt lat="47.26905" lon="4.14058">
        <ele>584.62</ele>
        <time>2021-08-12T07:52:55Z</time>
      </trkpt>
      <trkpt lat="47.26882" lon="4.14069">
        <ele>581.25</ele>
        <time>2021-08-12T07:52:59Z</time>
      </trkpt>
      <trkpt lat="47.26875" lon="4.14071">
        <ele>580.77</ele>
        <time>2021-08-12T07:53:00Z</time>
      </trkpt>
      <trkpt lat="47.2686" lon="4.14073">
        <ele>579.81</ele>
        <time>2021-08-12T07:53:02Z</time>
      </trkpt>
      <trkpt lat="47.26835" lon="4.14078">
        <ele>576.45</ele>
        <time>2021-08-12T07:53:06Z</time>
      </trkpt>
      <trkpt lat="47.2683" lon="4.14081">
        <ele>575.49</ele>
        <time>2021-08-12T07:53:07Z</time>
      </trkpt>
      <trkpt lat="47.26825" lon="4.14084">
        <ele>575.01</ele>
        <time>2021-08-12T07:53:08Z</time>
      </trkpt>
      <trkpt lat="47.26816" lon="4.14091">
        <ele>573.56</ele>
        <time>2021-08-12T07:53:10Z</time>
      </trkpt>
      <trkpt lat="47.26811" lon="4.14093">
        <ele>572.6</ele>
        <time>2021-08-12T07:53:11Z</time>
      </trkpt>
      <trkpt lat="47.26793" lon="4.14101">
        <ele>571.16</ele>
        <time>2021-08-12T07:53:15Z</time>
      </trkpt>
      <trkpt lat="47.26787" lon="4.14103">
        <ele>569.72</ele>
        <time>2021-08-12T07:53:16Z</time>
      </trkpt>
      <trkpt lat="47.26774" lon="4.1411">
        <ele>568.76</ele>
        <time>2021-08-12T07:53:18Z</time>
      </trkpt>
      <trkpt lat="47.26768" lon="4.14115">
        <ele>568.28</ele>
        <time>2021-08-12T07:53:19Z</time>
      </trkpt>
      <trkpt lat="47.26763" lon="4.14122">
        <ele>568.76</ele>
        <time>2021-08-12T07:53:20Z</time>
      </trkpt>
      <trkpt lat="47.26759" lon="4.1413">
        <ele>568.28</ele>
        <time>2021-08-12T07:53:21Z</time>
      </trkpt>
      <trkpt lat="47.26756" lon="4.14137">
        <ele>568.28</ele>
        <time>2021-08-12T07:53:22Z</time>
      </trkpt>
      <trkpt lat="47.26743" lon="4.14174">
        <ele>570.2</ele>
        <time>2021-08-12T07:53:28Z</time>
      </trkpt>
      <trkpt lat="47.26742" lon="4.14179">
        <ele>570.2</ele>
        <time>2021-08-12T07:53:29Z</time>
      </trkpt>
      <trkpt lat="47.26743" lon="4.14205">
        <ele>570.68</ele>
        <time>2021-08-12T07:53:35Z</time>
      </trkpt>
      <trkpt lat="47.26756" lon="4.14229">
        <ele>571.16</ele>
        <time>2021-08-12T07:53:42Z</time>
      </trkpt>
      <trkpt lat="47.26775" lon="4.14264">
        <ele>571.16</ele>
        <time>2021-08-12T07:53:50Z</time>
      </trkpt>
      <trkpt lat="47.26796" lon="4.14303">
        <ele>571.16</ele>
        <time>2021-08-12T07:53:59Z</time>
      </trkpt>
      <trkpt lat="47.26813" lon="4.14332">
        <ele>571.64</ele>
        <time>2021-08-12T07:54:06Z</time>
      </trkpt>
      <trkpt lat="47.26827" lon="4.14364">
        <ele>572.12</ele>
        <time>2021-08-12T07:54:13Z</time>
      </trkpt>
      <trkpt lat="47.26829" lon="4.14391">
        <ele>573.08</ele>
        <time>2021-08-12T07:54:19Z</time>
      </trkpt>
      <trkpt lat="47.26834" lon="4.14417">
        <ele>574.04</ele>
        <time>2021-08-12T07:54:25Z</time>
      </trkpt>
      <trkpt lat="47.26841" lon="4.14443">
        <ele>575.01</ele>
        <time>2021-08-12T07:54:33Z</time>
      </trkpt>
      <trkpt lat="47.26848" lon="4.14471">
        <ele>576.45</ele>
        <time>2021-08-12T07:54:43Z</time>
      </trkpt>
      <trkpt lat="47.26851" lon="4.14491">
        <ele>577.89</ele>
        <time>2021-08-12T07:54:51Z</time>
      </trkpt>
      <trkpt lat="47.26855" lon="4.14506">
        <ele>578.85</ele>
        <time>2021-08-12T07:55:00Z</time>
      </trkpt>
      <trkpt lat="47.26858" lon="4.14521">
        <ele>580.29</ele>
        <time>2021-08-12T07:55:09Z</time>
      </trkpt>
      <trkpt lat="47.26862" lon="4.14534">
        <ele>581.25</ele>
        <time>2021-08-12T07:55:15Z</time>
      </trkpt>
      <trkpt lat="47.26865" lon="4.14548">
        <ele>582.7</ele>
        <time>2021-08-12T07:55:22Z</time>
      </trkpt>
      <trkpt lat="47.2686" lon="4.14559">
        <ele>584.14</ele>
        <time>2021-08-12T07:55:30Z</time>
      </trkpt>
      <trkpt lat="47.26856" lon="4.14565">
        <ele>585.58</ele>
        <time>2021-08-12T07:55:38Z</time>
      </trkpt>
      <trkpt lat="47.26853" lon="4.14571">
        <ele>586.54</ele>
        <time>2021-08-12T07:55:44Z</time>
      </trkpt>
      <trkpt lat="47.26853" lon="4.14582">
        <ele>587.98</ele>
        <time>2021-08-12T07:55:54Z</time>
      </trkpt>
      <trkpt lat="47.26849" lon="4.14595">
        <ele>589.43</ele>
        <time>2021-08-12T07:56:03Z</time>
      </trkpt>
      <trkpt lat="47.26846" lon="4.14601">
        <ele>589.91</ele>
        <time>2021-08-12T07:56:09Z</time>
      </trkpt>
      <trkpt lat="47.26844" lon="4.14605">
        <ele>591.35</ele>
        <time>2021-08-12T07:56:12Z</time>
      </trkpt>
      <trkpt lat="47.26839" lon="4.14617">
        <ele>591.83</ele>
        <time>2021-08-12T07:56:20Z</time>
      </trkpt>
      <trkpt lat="47.26839" lon="4.14622">
        <ele>591.83</ele>
        <time>2021-08-12T07:56:22Z</time>
      </trkpt>
      <trkpt lat="47.26836" lon="4.14631">
        <ele>592.31</ele>
        <time>2021-08-12T07:56:29Z</time>
      </trkpt>
      <trkpt lat="47.26833" lon="4.14638">
        <ele>593.27</ele>
        <time>2021-08-12T07:56:39Z</time>
      </trkpt>
      <trkpt lat="47.26833" lon="4.1464">
        <ele>593.27</ele>
        <time>2021-08-12T07:56:40Z</time>
      </trkpt>
      <trkpt lat="47.26834" lon="4.14643">
        <ele>591.83</ele>
        <time>2021-08-12T07:56:41Z</time>
      </trkpt>
      <trkpt lat="47.26835" lon="4.14646">
        <ele>591.83</ele>
        <time>2021-08-12T07:56:42Z</time>
      </trkpt>
      <trkpt lat="47.26836" lon="4.1465">
        <ele>591.83</ele>
        <time>2021-08-12T07:56:43Z</time>
      </trkpt>
      <trkpt lat="47.2684" lon="4.14664">
        <ele>591.35</ele>
        <time>2021-08-12T07:56:47Z</time>
      </trkpt>
      <trkpt lat="47.26841" lon="4.14667">
        <ele>591.35</ele>
        <time>2021-08-12T07:56:48Z</time>
      </trkpt>
      <trkpt lat="47.26843" lon="4.14671">
        <ele>590.87</ele>
        <time>2021-08-12T07:56:49Z</time>
      </trkpt>
      <trkpt lat="47.26845" lon="4.14676">
        <ele>590.39</ele>
        <time>2021-08-12T07:56:50Z</time>
      </trkpt>
      <trkpt lat="47.26847" lon="4.1468">
        <ele>590.39</ele>
        <time>2021-08-12T07:56:51Z</time>
      </trkpt>
      <trkpt lat="47.26855" lon="4.14693">
        <ele>588.95</ele>
        <time>2021-08-12T07:56:54Z</time>
      </trkpt>
      <trkpt lat="47.26858" lon="4.14699">
        <ele>588.46</ele>
        <time>2021-08-12T07:56:55Z</time>
      </trkpt>
      <trkpt lat="47.26861" lon="4.14704">
        <ele>588.46</ele>
        <time>2021-08-12T07:56:56Z</time>
      </trkpt>
      <trkpt lat="47.26869" lon="4.14727">
        <ele>587.5</ele>
        <time>2021-08-12T07:57:00Z</time>
      </trkpt>
      <trkpt lat="47.26868" lon="4.14731">
        <ele>587.5</ele>
        <time>2021-08-12T07:57:01Z</time>
      </trkpt>
      <trkpt lat="47.26867" lon="4.14734">
        <ele>587.5</ele>
        <time>2021-08-12T07:57:02Z</time>
      </trkpt>
      <trkpt lat="47.26866" lon="4.14736">
        <ele>587.5</ele>
        <time>2021-08-12T07:57:03Z</time>
      </trkpt>
      <trkpt lat="47.26864" lon="4.14738">
        <ele>587.5</ele>
        <time>2021-08-12T07:57:04Z</time>
      </trkpt>
      <trkpt lat="47.26862" lon="4.1474">
        <ele>587.5</ele>
        <time>2021-08-12T07:57:05Z</time>
      </trkpt>
      <trkpt lat="47.26836" lon="4.14763">
        <ele>587.5</ele>
        <time>2021-08-12T07:57:13Z</time>
      </trkpt>
      <trkpt lat="47.26801" lon="4.14792">
        <ele>586.06</ele>
        <time>2021-08-12T07:57:21Z</time>
      </trkpt>
      <trkpt lat="47.26761" lon="4.14824">
        <ele>582.7</ele>
        <time>2021-08-12T07:57:29Z</time>
      </trkpt>
      <trkpt lat="47.26725" lon="4.14856">
        <ele>579.33</ele>
        <time>2021-08-12T07:57:35Z</time>
      </trkpt>
      <trkpt lat="47.26719" lon="4.14863">
        <ele>578.85</ele>
        <time>2021-08-12T07:57:36Z</time>
      </trkpt>
      <trkpt lat="47.26714" lon="4.14872">
        <ele>577.89</ele>
        <time>2021-08-12T07:57:37Z</time>
      </trkpt>
      <trkpt lat="47.26708" lon="4.14883">
        <ele>577.41</ele>
        <time>2021-08-12T07:57:38Z</time>
      </trkpt>
      <trkpt lat="47.26704" lon="4.14893">
        <ele>576.93</ele>
        <time>2021-08-12T07:57:39Z</time>
      </trkpt>
      <trkpt lat="47.26699" lon="4.14905">
        <ele>575.49</ele>
        <time>2021-08-12T07:57:40Z</time>
      </trkpt>
      <trkpt lat="47.26682" lon="4.14958">
        <ele>572.12</ele>
        <time>2021-08-12T07:57:44Z</time>
      </trkpt>
      <trkpt lat="47.26669" lon="4.14997">
        <ele>569.72</ele>
        <time>2021-08-12T07:57:47Z</time>
      </trkpt>
      <trkpt lat="47.26663" lon="4.15007">
        <ele>569.72</ele>
        <time>2021-08-12T07:57:48Z</time>
      </trkpt>
      <trkpt lat="47.26656" lon="4.15012">
        <ele>568.76</ele>
        <time>2021-08-12T07:57:49Z</time>
      </trkpt>
      <trkpt lat="47.26649" lon="4.15013">
        <ele>568.76</ele>
        <time>2021-08-12T07:57:50Z</time>
      </trkpt>
      <trkpt lat="47.26642" lon="4.15011">
        <ele>568.28</ele>
        <time>2021-08-12T07:57:51Z</time>
      </trkpt>
      <trkpt lat="47.26637" lon="4.15009">
        <ele>568.28</ele>
        <time>2021-08-12T07:57:52Z</time>
      </trkpt>
      <trkpt lat="47.26632" lon="4.15006">
        <ele>568.28</ele>
        <time>2021-08-12T07:57:53Z</time>
      </trkpt>
      <trkpt lat="47.26628" lon="4.15003">
        <ele>567.8</ele>
        <time>2021-08-12T07:57:54Z</time>
      </trkpt>
      <trkpt lat="47.26625" lon="4.14997">
        <ele>567.8</ele>
        <time>2021-08-12T07:57:55Z</time>
      </trkpt>
      <trkpt lat="47.26623" lon="4.1499">
        <ele>567.32</ele>
        <time>2021-08-12T07:57:56Z</time>
      </trkpt>
      <trkpt lat="47.26621" lon="4.14983">
        <ele>567.32</ele>
        <time>2021-08-12T07:57:57Z</time>
      </trkpt>
      <trkpt lat="47.26621" lon="4.14976">
        <ele>567.32</ele>
        <time>2021-08-12T07:57:58Z</time>
      </trkpt>
      <trkpt lat="47.2662" lon="4.14969">
        <ele>567.32</ele>
        <time>2021-08-12T07:57:59Z</time>
      </trkpt>
      <trkpt lat="47.2662" lon="4.14963">
        <ele>567.32</ele>
        <time>2021-08-12T07:58:00Z</time>
      </trkpt>
      <trkpt lat="47.26615" lon="4.14948">
        <ele>567.32</ele>
        <time>2021-08-12T07:58:03Z</time>
      </trkpt>
      <trkpt lat="47.26611" lon="4.14946">
        <ele>567.32</ele>
        <time>2021-08-12T07:58:04Z</time>
      </trkpt>
      <trkpt lat="47.26607" lon="4.14947">
        <ele>567.32</ele>
        <time>2021-08-12T07:58:05Z</time>
      </trkpt>
      <trkpt lat="47.26604" lon="4.14948">
        <ele>567.32</ele>
        <time>2021-08-12T07:58:06Z</time>
      </trkpt>
      <trkpt lat="47.26599" lon="4.1495">
        <ele>567.32</ele>
        <time>2021-08-12T07:58:07Z</time>
      </trkpt>
      <trkpt lat="47.26594" lon="4.14952">
        <ele>567.32</ele>
        <time>2021-08-12T07:58:08Z</time>
      </trkpt>
      <trkpt lat="47.2655" lon="4.1497">
        <ele>566.83</ele>
        <time>2021-08-12T07:58:17Z</time>
      </trkpt>
      <trkpt lat="47.26546" lon="4.14972">
        <ele>566.83</ele>
        <time>2021-08-12T07:58:18Z</time>
      </trkpt>
      <trkpt lat="47.26537" lon="4.14976">
        <ele>567.8</ele>
        <time>2021-08-12T07:58:20Z</time>
      </trkpt>
      <trkpt lat="47.26508" lon="4.14988">
        <ele>568.76</ele>
        <time>2021-08-12T07:58:28Z</time>
      </trkpt>
      <trkpt lat="47.26484" lon="4.14998">
        <ele>570.68</ele>
        <time>2021-08-12T07:58:37Z</time>
      </trkpt>
      <trkpt lat="47.26467" lon="4.1501">
        <ele>572.12</ele>
        <time>2021-08-12T07:58:45Z</time>
      </trkpt>
      <trkpt lat="47.26444" lon="4.15026">
        <ele>573.56</ele>
        <time>2021-08-12T07:58:55Z</time>
      </trkpt>
      <trkpt lat="47.2642" lon="4.15043">
        <ele>574.53</ele>
        <time>2021-08-12T07:59:05Z</time>
      </trkpt>
      <trkpt lat="47.26397" lon="4.15055">
        <ele>575.01</ele>
        <time>2021-08-12T07:59:14Z</time>
      </trkpt>
      <trkpt lat="47.26377" lon="4.15067">
        <ele>575.01</ele>
        <time>2021-08-12T07:59:21Z</time>
      </trkpt>
      <trkpt lat="47.26359" lon="4.15085">
        <ele>575.49</ele>
        <time>2021-08-12T07:59:28Z</time>
      </trkpt>
      <trkpt lat="47.26342" lon="4.15109">
        <ele>576.45</ele>
        <time>2021-08-12T07:59:36Z</time>
      </trkpt>
      <trkpt lat="47.26331" lon="4.15129">
        <ele>576.45</ele>
        <time>2021-08-12T07:59:42Z</time>
      </trkpt>
      <trkpt lat="47.26321" lon="4.15141">
        <ele>577.89</ele>
        <time>2021-08-12T07:59:48Z</time>
      </trkpt>
      <trkpt lat="47.26307" lon="4.15153">
        <ele>578.85</ele>
        <time>2021-08-12T07:59:55Z</time>
      </trkpt>
      <trkpt lat="47.26289" lon="4.15165">
        <ele>579.81</ele>
        <time>2021-08-12T08:00:03Z</time>
      </trkpt>
      <trkpt lat="47.26272" lon="4.15176">
        <ele>580.77</ele>
        <time>2021-08-12T08:00:10Z</time>
      </trkpt>
      <trkpt lat="47.26252" lon="4.15181">
        <ele>581.25</ele>
        <time>2021-08-12T08:00:18Z</time>
      </trkpt>
      <trkpt lat="47.26232" lon="4.15186">
        <ele>583.18</ele>
        <time>2021-08-12T08:00:27Z</time>
      </trkpt>
      <trkpt lat="47.2622" lon="4.15193">
        <ele>583.66</ele>
        <time>2021-08-12T08:00:34Z</time>
      </trkpt>
      <trkpt lat="47.26219" lon="4.15194">
        <ele>584.14</ele>
        <time>2021-08-12T08:00:35Z</time>
      </trkpt>
      <trkpt lat="47.2621" lon="4.15195">
        <ele>584.62</ele>
        <time>2021-08-12T08:00:42Z</time>
      </trkpt>
      <trkpt lat="47.26202" lon="4.15195">
        <ele>585.1</ele>
        <time>2021-08-12T08:00:47Z</time>
      </trkpt>
      <trkpt lat="47.26186" lon="4.15194">
        <ele>586.06</ele>
        <time>2021-08-12T08:00:55Z</time>
      </trkpt>
      <trkpt lat="47.26172" lon="4.15191">
        <ele>587.02</ele>
        <time>2021-08-12T08:01:03Z</time>
      </trkpt>
      <trkpt lat="47.26168" lon="4.1519">
        <ele>587.5</ele>
        <time>2021-08-12T08:01:06Z</time>
      </trkpt>
      <trkpt lat="47.26161" lon="4.15187">
        <ele>587.5</ele>
        <time>2021-08-12T08:01:10Z</time>
      </trkpt>
      <trkpt lat="47.26152" lon="4.15181">
        <ele>588.95</ele>
        <time>2021-08-12T08:01:16Z</time>
      </trkpt>
      <trkpt lat="47.26143" lon="4.15163">
        <ele>588.95</ele>
        <time>2021-08-12T08:01:23Z</time>
      </trkpt>
      <trkpt lat="47.26142" lon="4.1516">
        <ele>588.95</ele>
        <time>2021-08-12T08:01:24Z</time>
      </trkpt>
      <trkpt lat="47.26135" lon="4.15134">
        <ele>588.95</ele>
        <time>2021-08-12T08:01:31Z</time>
      </trkpt>
      <trkpt lat="47.26132" lon="4.15125">
        <ele>588.95</ele>
        <time>2021-08-12T08:01:33Z</time>
      </trkpt>
      <trkpt lat="47.2613" lon="4.15121">
        <ele>588.95</ele>
        <time>2021-08-12T08:01:34Z</time>
      </trkpt>
      <trkpt lat="47.26127" lon="4.15114">
        <ele>588.95</ele>
        <time>2021-08-12T08:01:35Z</time>
      </trkpt>
      <trkpt lat="47.26122" lon="4.15106">
        <ele>588.95</ele>
        <time>2021-08-12T08:01:36Z</time>
      </trkpt>
      <trkpt lat="47.26119" lon="4.151">
        <ele>588.95</ele>
        <time>2021-08-12T08:01:37Z</time>
      </trkpt>
      <trkpt lat="47.26097" lon="4.15056">
        <ele>588.95</ele>
        <time>2021-08-12T08:01:46Z</time>
      </trkpt>
      <trkpt lat="47.26081" lon="4.15027">
        <ele>588.95</ele>
        <time>2021-08-12T08:01:53Z</time>
      </trkpt>
      <trkpt lat="47.26068" lon="4.15004">
        <ele>588.95</ele>
        <time>2021-08-12T08:02:00Z</time>
      </trkpt>
      <trkpt lat="47.26054" lon="4.14979">
        <ele>589.43</ele>
        <time>2021-08-12T08:02:06Z</time>
      </trkpt>
      <trkpt lat="47.26046" lon="4.14962">
        <ele>589.43</ele>
        <time>2021-08-12T08:02:09Z</time>
      </trkpt>
      <trkpt lat="47.2603" lon="4.14927">
        <ele>587.5</ele>
        <time>2021-08-12T08:02:15Z</time>
      </trkpt>
      <trkpt lat="47.26027" lon="4.1492">
        <ele>587.5</ele>
        <time>2021-08-12T08:02:16Z</time>
      </trkpt>
      <trkpt lat="47.26017" lon="4.149">
        <ele>586.06</ele>
        <time>2021-08-12T08:02:19Z</time>
      </trkpt>
      <trkpt lat="47.25991" lon="4.14858">
        <ele>584.62</ele>
        <time>2021-08-12T08:02:25Z</time>
      </trkpt>
      <trkpt lat="47.25982" lon="4.14847">
        <ele>584.14</ele>
        <time>2021-08-12T08:02:27Z</time>
      </trkpt>
      <trkpt lat="47.25976" lon="4.14842">
        <ele>584.14</ele>
        <time>2021-08-12T08:02:28Z</time>
      </trkpt>
      <trkpt lat="47.25942" lon="4.14812">
        <ele>583.66</ele>
        <time>2021-08-12T08:02:35Z</time>
      </trkpt>
      <trkpt lat="47.25927" lon="4.14805">
        <ele>583.66</ele>
        <time>2021-08-12T08:02:38Z</time>
      </trkpt>
      <trkpt lat="47.25896" lon="4.14794">
        <ele>583.66</ele>
        <time>2021-08-12T08:02:44Z</time>
      </trkpt>
      <trkpt lat="47.25858" lon="4.14793">
        <ele>585.58</ele>
        <time>2021-08-12T08:02:51Z</time>
      </trkpt>
      <trkpt lat="47.25853" lon="4.14793">
        <ele>585.58</ele>
        <time>2021-08-12T08:02:52Z</time>
      </trkpt>
      <trkpt lat="47.25849" lon="4.14792">
        <ele>586.06</ele>
        <time>2021-08-12T08:02:53Z</time>
      </trkpt>
      <trkpt lat="47.25838" lon="4.14792">
        <ele>586.06</ele>
        <time>2021-08-12T08:02:56Z</time>
      </trkpt>
      <trkpt lat="47.25836" lon="4.14791">
        <ele>586.06</ele>
        <time>2021-08-12T08:02:57Z</time>
      </trkpt>
      <trkpt lat="47.25835" lon="4.1479">
        <ele>586.06</ele>
        <time>2021-08-12T08:02:58Z</time>
      </trkpt>
      <trkpt lat="47.25833" lon="4.1479">
        <ele>586.06</ele>
        <time>2021-08-12T08:02:59Z</time>
      </trkpt>
      <trkpt lat="47.25831" lon="4.14789">
        <ele>586.06</ele>
        <time>2021-08-12T08:03:00Z</time>
      </trkpt>
      <trkpt lat="47.25816" lon="4.14788">
        <ele>586.06</ele>
        <time>2021-08-12T08:03:07Z</time>
      </trkpt>
      <trkpt lat="47.258" lon="4.14789">
        <ele>587.02</ele>
        <time>2021-08-12T08:03:13Z</time>
      </trkpt>
      <trkpt lat="47.25778" lon="4.14794">
        <ele>587.02</ele>
        <time>2021-08-12T08:03:20Z</time>
      </trkpt>
      <trkpt lat="47.25758" lon="4.14797">
        <ele>587.02</ele>
        <time>2021-08-12T08:03:26Z</time>
      </trkpt>
      <trkpt lat="47.25738" lon="4.14803">
        <ele>587.02</ele>
        <time>2021-08-12T08:03:32Z</time>
      </trkpt>
      <trkpt lat="47.25729" lon="4.1481">
        <ele>587.02</ele>
        <time>2021-08-12T08:03:35Z</time>
      </trkpt>
      <trkpt lat="47.25725" lon="4.1481">
        <ele>587.5</ele>
        <time>2021-08-12T08:03:36Z</time>
      </trkpt>
      <trkpt lat="47.25704" lon="4.1481">
        <ele>587.5</ele>
        <time>2021-08-12T08:03:42Z</time>
      </trkpt>
      <trkpt lat="47.25674" lon="4.1481">
        <ele>587.5</ele>
        <time>2021-08-12T08:03:49Z</time>
      </trkpt>
      <trkpt lat="47.25644" lon="4.14809">
        <ele>587.5</ele>
        <time>2021-08-12T08:03:56Z</time>
      </trkpt>
      <trkpt lat="47.25633" lon="4.14805">
        <ele>588.46</ele>
        <time>2021-08-12T08:04:00Z</time>
      </trkpt>
      <trkpt lat="47.25611" lon="4.14789">
        <ele>588.95</ele>
        <time>2021-08-12T08:04:07Z</time>
      </trkpt>
      <trkpt lat="47.2559" lon="4.14776">
        <ele>587.5</ele>
        <time>2021-08-12T08:04:13Z</time>
      </trkpt>
      <trkpt lat="47.25564" lon="4.14766">
        <ele>587.5</ele>
        <time>2021-08-12T08:04:20Z</time>
      </trkpt>
      <trkpt lat="47.2556" lon="4.14766">
        <ele>588.95</ele>
        <time>2021-08-12T08:04:21Z</time>
      </trkpt>
      <trkpt lat="47.25539" lon="4.14765">
        <ele>589.91</ele>
        <time>2021-08-12T08:04:29Z</time>
      </trkpt>
      <trkpt lat="47.25518" lon="4.14756">
        <ele>589.91</ele>
        <time>2021-08-12T08:04:35Z</time>
      </trkpt>
      <trkpt lat="47.25499" lon="4.1475">
        <ele>587.02</ele>
        <time>2021-08-12T08:04:39Z</time>
      </trkpt>
      <trkpt lat="47.25495" lon="4.1475">
        <ele>586.54</ele>
        <time>2021-08-12T08:04:40Z</time>
      </trkpt>
      <trkpt lat="47.25484" lon="4.14747">
        <ele>586.54</ele>
        <time>2021-08-12T08:04:43Z</time>
      </trkpt>
      <trkpt lat="47.25481" lon="4.14744">
        <ele>586.54</ele>
        <time>2021-08-12T08:04:44Z</time>
      </trkpt>
      <trkpt lat="47.25479" lon="4.1474">
        <ele>586.54</ele>
        <time>2021-08-12T08:04:45Z</time>
      </trkpt>
      <trkpt lat="47.25477" lon="4.14735">
        <ele>586.54</ele>
        <time>2021-08-12T08:04:46Z</time>
      </trkpt>
      <trkpt lat="47.25476" lon="4.14732">
        <ele>586.54</ele>
        <time>2021-08-12T08:04:47Z</time>
      </trkpt>
      <trkpt lat="47.25474" lon="4.14728">
        <ele>586.54</ele>
        <time>2021-08-12T08:04:48Z</time>
      </trkpt>
      <trkpt lat="47.25474" lon="4.14724">
        <ele>586.54</ele>
        <time>2021-08-12T08:04:49Z</time>
      </trkpt>
      <trkpt lat="47.25473" lon="4.14721">
        <ele>586.54</ele>
        <time>2021-08-12T08:04:50Z</time>
      </trkpt>
      <trkpt lat="47.25472" lon="4.14717">
        <ele>586.54</ele>
        <time>2021-08-12T08:04:51Z</time>
      </trkpt>
      <trkpt lat="47.25471" lon="4.14713">
        <ele>586.54</ele>
        <time>2021-08-12T08:04:52Z</time>
      </trkpt>
      <trkpt lat="47.25468" lon="4.14705">
        <ele>587.98</ele>
        <time>2021-08-12T08:04:54Z</time>
      </trkpt>
      <trkpt lat="47.25465" lon="4.1467">
        <ele>587.98</ele>
        <time>2021-08-12T08:05:01Z</time>
      </trkpt>
      <trkpt lat="47.25463" lon="4.14644">
        <ele>586.54</ele>
        <time>2021-08-12T08:05:06Z</time>
      </trkpt>
      <trkpt lat="47.25463" lon="4.14617">
        <ele>585.58</ele>
        <time>2021-08-12T08:05:10Z</time>
      </trkpt>
      <trkpt lat="47.25466" lon="4.14601">
        <ele>585.1</ele>
        <time>2021-08-12T08:05:12Z</time>
      </trkpt>
      <trkpt lat="47.25465" lon="4.14593">
        <ele>585.1</ele>
        <time>2021-08-12T08:05:13Z</time>
      </trkpt>
      <trkpt lat="47.25464" lon="4.14585">
        <ele>584.62</ele>
        <time>2021-08-12T08:05:14Z</time>
      </trkpt>
      <trkpt lat="47.25457" lon="4.14542">
        <ele>583.18</ele>
        <time>2021-08-12T08:05:21Z</time>
      </trkpt>
      <trkpt lat="47.25448" lon="4.14517">
        <ele>583.18</ele>
        <time>2021-08-12T08:05:26Z</time>
      </trkpt>
      <trkpt lat="47.25447" lon="4.14511">
        <ele>583.18</ele>
        <time>2021-08-12T08:05:27Z</time>
      </trkpt>
      <trkpt lat="47.25446" lon="4.14505">
        <ele>582.7</ele>
        <time>2021-08-12T08:05:28Z</time>
      </trkpt>
      <trkpt lat="47.25446" lon="4.14498">
        <ele>582.7</ele>
        <time>2021-08-12T08:05:29Z</time>
      </trkpt>
      <trkpt lat="47.2545" lon="4.14456">
        <ele>579.81</ele>
        <time>2021-08-12T08:05:36Z</time>
      </trkpt>
      <trkpt lat="47.25456" lon="4.14435">
        <ele>578.85</ele>
        <time>2021-08-12T08:05:42Z</time>
      </trkpt>
      <trkpt lat="47.25459" lon="4.14424">
        <ele>578.37</ele>
        <time>2021-08-12T08:05:48Z</time>
      </trkpt>
      <trkpt lat="47.25459" lon="4.14421">
        <ele>578.37</ele>
        <time>2021-08-12T08:05:49Z</time>
      </trkpt>
      <trkpt lat="47.25453" lon="4.14398">
        <ele>577.89</ele>
        <time>2021-08-12T08:05:56Z</time>
      </trkpt>
      <trkpt lat="47.25447" lon="4.14384">
        <ele>577.89</ele>
        <time>2021-08-12T08:06:02Z</time>
      </trkpt>
      <trkpt lat="47.25447" lon="4.14381">
        <ele>577.89</ele>
        <time>2021-08-12T08:06:03Z</time>
      </trkpt>
      <trkpt lat="47.25447" lon="4.14378">
        <ele>577.89</ele>
        <time>2021-08-12T08:06:04Z</time>
      </trkpt>
      <trkpt lat="47.25447" lon="4.14353">
        <ele>576.93</ele>
        <time>2021-08-12T08:06:11Z</time>
      </trkpt>
      <trkpt lat="47.25445" lon="4.1433">
        <ele>576.93</ele>
        <time>2021-08-12T08:06:18Z</time>
      </trkpt>
      <trkpt lat="47.25439" lon="4.14308">
        <ele>576.45</ele>
        <time>2021-08-12T08:06:24Z</time>
      </trkpt>
      <trkpt lat="47.25433" lon="4.14276">
        <ele>575.49</ele>
        <time>2021-08-12T08:06:32Z</time>
      </trkpt>
      <trkpt lat="47.25438" lon="4.14247">
        <ele>574.53</ele>
        <time>2021-08-12T08:06:38Z</time>
      </trkpt>
      <trkpt lat="47.25439" lon="4.14241">
        <ele>574.53</ele>
        <time>2021-08-12T08:06:39Z</time>
      </trkpt>
      <trkpt lat="47.25439" lon="4.14234">
        <ele>573.56</ele>
        <time>2021-08-12T08:06:40Z</time>
      </trkpt>
      <trkpt lat="47.2544" lon="4.14227">
        <ele>573.56</ele>
        <time>2021-08-12T08:06:41Z</time>
      </trkpt>
      <trkpt lat="47.25443" lon="4.1422">
        <ele>573.08</ele>
        <time>2021-08-12T08:06:42Z</time>
      </trkpt>
      <trkpt lat="47.25445" lon="4.14213">
        <ele>573.08</ele>
        <time>2021-08-12T08:06:43Z</time>
      </trkpt>
      <trkpt lat="47.25448" lon="4.14206">
        <ele>572.12</ele>
        <time>2021-08-12T08:06:44Z</time>
      </trkpt>
      <trkpt lat="47.25456" lon="4.14182">
        <ele>571.16</ele>
        <time>2021-08-12T08:06:47Z</time>
      </trkpt>
      <trkpt lat="47.2546" lon="4.14164">
        <ele>570.2</ele>
        <time>2021-08-12T08:06:49Z</time>
      </trkpt>
      <trkpt lat="47.25462" lon="4.14145">
        <ele>570.2</ele>
        <time>2021-08-12T08:06:51Z</time>
      </trkpt>
      <trkpt lat="47.25462" lon="4.14136">
        <ele>570.2</ele>
        <time>2021-08-12T08:06:52Z</time>
      </trkpt>
      <trkpt lat="47.25462" lon="4.14127">
        <ele>570.2</ele>
        <time>2021-08-12T08:06:53Z</time>
      </trkpt>
      <trkpt lat="47.25458" lon="4.1411">
        <ele>570.2</ele>
        <time>2021-08-12T08:06:56Z</time>
      </trkpt>
      <trkpt lat="47.25454" lon="4.14108">
        <ele>570.2</ele>
        <time>2021-08-12T08:06:57Z</time>
      </trkpt>
      <trkpt lat="47.25452" lon="4.14109">
        <ele>570.2</ele>
        <time>2021-08-12T08:06:58Z</time>
      </trkpt>
      <trkpt lat="47.25448" lon="4.1411">
        <ele>570.2</ele>
        <time>2021-08-12T08:06:59Z</time>
      </trkpt>
      <trkpt lat="47.25445" lon="4.14112">
        <ele>570.2</ele>
        <time>2021-08-12T08:07:00Z</time>
      </trkpt>
      <trkpt lat="47.25442" lon="4.14114">
        <ele>570.2</ele>
        <time>2021-08-12T08:07:01Z</time>
      </trkpt>
      <trkpt lat="47.25439" lon="4.14117">
        <ele>570.2</ele>
        <time>2021-08-12T08:07:02Z</time>
      </trkpt>
      <trkpt lat="47.25436" lon="4.14121">
        <ele>570.2</ele>
        <time>2021-08-12T08:07:03Z</time>
      </trkpt>
      <trkpt lat="47.25434" lon="4.14124">
        <ele>570.2</ele>
        <time>2021-08-12T08:07:04Z</time>
      </trkpt>
      <trkpt lat="47.25431" lon="4.14128">
        <ele>570.2</ele>
        <time>2021-08-12T08:07:05Z</time>
      </trkpt>
      <trkpt lat="47.25428" lon="4.14131">
        <ele>570.2</ele>
        <time>2021-08-12T08:07:06Z</time>
      </trkpt>
      <trkpt lat="47.25416" lon="4.14148">
        <ele>571.64</ele>
        <time>2021-08-12T08:07:12Z</time>
      </trkpt>
      <trkpt lat="47.25398" lon="4.14169">
        <ele>572.6</ele>
        <time>2021-08-12T08:07:20Z</time>
      </trkpt>
      <trkpt lat="47.25384" lon="4.1418">
        <ele>573.56</ele>
        <time>2021-08-12T08:07:27Z</time>
      </trkpt>
      <trkpt lat="47.25364" lon="4.14199">
        <ele>574.53</ele>
        <time>2021-08-12T08:07:36Z</time>
      </trkpt>
      <trkpt lat="47.25348" lon="4.14213">
        <ele>575.49</ele>
        <time>2021-08-12T08:07:44Z</time>
      </trkpt>
      <trkpt lat="47.25333" lon="4.14238">
        <ele>576.45</ele>
        <time>2021-08-12T08:07:53Z</time>
      </trkpt>
      <trkpt lat="47.25313" lon="4.14267">
        <ele>577.89</ele>
        <time>2021-08-12T08:08:03Z</time>
      </trkpt>
      <trkpt lat="47.25294" lon="4.14287">
        <ele>578.85</ele>
        <time>2021-08-12T08:08:13Z</time>
      </trkpt>
      <trkpt lat="47.25274" lon="4.14293">
        <ele>580.29</ele>
        <time>2021-08-12T08:08:22Z</time>
      </trkpt>
      <trkpt lat="47.25261" lon="4.14299">
        <ele>580.29</ele>
        <time>2021-08-12T08:08:29Z</time>
      </trkpt>
      <trkpt lat="47.25247" lon="4.14314">
        <ele>581.73</ele>
        <time>2021-08-12T08:08:37Z</time>
      </trkpt>
      <trkpt lat="47.25237" lon="4.14325">
        <ele>583.18</ele>
        <time>2021-08-12T08:08:44Z</time>
      </trkpt>
      <trkpt lat="47.25226" lon="4.14338">
        <ele>584.14</ele>
        <time>2021-08-12T08:08:51Z</time>
      </trkpt>
      <trkpt lat="47.25213" lon="4.14349">
        <ele>585.58</ele>
        <time>2021-08-12T08:08:58Z</time>
      </trkpt>
      <trkpt lat="47.25195" lon="4.14356">
        <ele>586.06</ele>
        <time>2021-08-12T08:09:06Z</time>
      </trkpt>
      <trkpt lat="47.25175" lon="4.14364">
        <ele>587.02</ele>
        <time>2021-08-12T08:09:16Z</time>
      </trkpt>
      <trkpt lat="47.25163" lon="4.14368">
        <ele>588.46</ele>
        <time>2021-08-12T08:09:23Z</time>
      </trkpt>
      <trkpt lat="47.25147" lon="4.14359">
        <ele>588.95</ele>
        <time>2021-08-12T08:09:30Z</time>
      </trkpt>
      <trkpt lat="47.2513" lon="4.14345">
        <ele>587.5</ele>
        <time>2021-08-12T08:09:36Z</time>
      </trkpt>
      <trkpt lat="47.2511" lon="4.14332">
        <ele>587.5</ele>
        <time>2021-08-12T08:09:43Z</time>
      </trkpt>
      <trkpt lat="47.25085" lon="4.14333">
        <ele>587.5</ele>
        <time>2021-08-12T08:09:50Z</time>
      </trkpt>
      <trkpt lat="47.25068" lon="4.1434">
        <ele>589.43</ele>
        <time>2021-08-12T08:09:56Z</time>
      </trkpt>
      <trkpt lat="47.25048" lon="4.14346">
        <ele>590.39</ele>
        <time>2021-08-12T08:10:03Z</time>
      </trkpt>
      <trkpt lat="47.25025" lon="4.14355">
        <ele>591.35</ele>
        <time>2021-08-12T08:10:10Z</time>
      </trkpt>
      <trkpt lat="47.25006" lon="4.14372">
        <ele>592.79</ele>
        <time>2021-08-12T08:10:19Z</time>
      </trkpt>
      <trkpt lat="47.2499" lon="4.14378">
        <ele>594.23</ele>
        <time>2021-08-12T08:10:27Z</time>
      </trkpt>
      <trkpt lat="47.24969" lon="4.14381">
        <ele>595.67</ele>
        <time>2021-08-12T08:10:37Z</time>
      </trkpt>
      <trkpt lat="47.24952" lon="4.14386">
        <ele>596.64</ele>
        <time>2021-08-12T08:10:45Z</time>
      </trkpt>
      <trkpt lat="47.24936" lon="4.14394">
        <ele>597.6</ele>
        <time>2021-08-12T08:10:53Z</time>
      </trkpt>
      <trkpt lat="47.24925" lon="4.14403">
        <ele>599.04</ele>
        <time>2021-08-12T08:11:00Z</time>
      </trkpt>
      <trkpt lat="47.24918" lon="4.14416">
        <ele>600.48</ele>
        <time>2021-08-12T08:11:08Z</time>
      </trkpt>
      <trkpt lat="47.24914" lon="4.14427">
        <ele>601.44</ele>
        <time>2021-08-12T08:11:15Z</time>
      </trkpt>
      <trkpt lat="47.24914" lon="4.14434">
        <ele>602.4</ele>
        <time>2021-08-12T08:11:19Z</time>
      </trkpt>
      <trkpt lat="47.24911" lon="4.14452">
        <ele>603.36</ele>
        <time>2021-08-12T08:11:28Z</time>
      </trkpt>
      <trkpt lat="47.24908" lon="4.14458">
        <ele>604.33</ele>
        <time>2021-08-12T08:11:32Z</time>
      </trkpt>
      <trkpt lat="47.24907" lon="4.1446">
        <ele>604.33</ele>
        <time>2021-08-12T08:11:33Z</time>
      </trkpt>
      <trkpt lat="47.24906" lon="4.14461">
        <ele>604.33</ele>
        <time>2021-08-12T08:11:34Z</time>
      </trkpt>
      <trkpt lat="47.24894" lon="4.14474">
        <ele>606.25</ele>
        <time>2021-08-12T08:11:44Z</time>
      </trkpt>
      <trkpt lat="47.24891" lon="4.14477">
        <ele>606.73</ele>
        <time>2021-08-12T08:11:47Z</time>
      </trkpt>
      <trkpt lat="47.2489" lon="4.14479">
        <ele>606.73</ele>
        <time>2021-08-12T08:11:48Z</time>
      </trkpt>
      <trkpt lat="47.24889" lon="4.14481">
        <ele>607.21</ele>
        <time>2021-08-12T08:11:49Z</time>
      </trkpt>
      <trkpt lat="47.24888" lon="4.14482">
        <ele>607.21</ele>
        <time>2021-08-12T08:11:50Z</time>
      </trkpt>
      <trkpt lat="47.24888" lon="4.14484">
        <ele>607.21</ele>
        <time>2021-08-12T08:11:51Z</time>
      </trkpt>
      <trkpt lat="47.24887" lon="4.14486">
        <ele>607.21</ele>
        <time>2021-08-12T08:11:52Z</time>
      </trkpt>
      <trkpt lat="47.24886" lon="4.14488">
        <ele>607.69</ele>
        <time>2021-08-12T08:11:53Z</time>
      </trkpt>
      <trkpt lat="47.24886" lon="4.1449">
        <ele>607.69</ele>
        <time>2021-08-12T08:11:54Z</time>
      </trkpt>
      <trkpt lat="47.24885" lon="4.14493">
        <ele>608.17</ele>
        <time>2021-08-12T08:11:55Z</time>
      </trkpt>
      <trkpt lat="47.24884" lon="4.14494">
        <ele>608.17</ele>
        <time>2021-08-12T08:11:56Z</time>
      </trkpt>
      <trkpt lat="47.24883" lon="4.14497">
        <ele>608.17</ele>
        <time>2021-08-12T08:11:57Z</time>
      </trkpt>
      <trkpt lat="47.24882" lon="4.14499">
        <ele>608.65</ele>
        <time>2021-08-12T08:11:58Z</time>
      </trkpt>
      <trkpt lat="47.2487" lon="4.14514">
        <ele>610.09</ele>
        <time>2021-08-12T08:12:07Z</time>
      </trkpt>
      <trkpt lat="47.24849" lon="4.14527">
        <ele>610.57</ele>
        <time>2021-08-12T08:12:17Z</time>
      </trkpt>
      <trkpt lat="47.24824" lon="4.14545">
        <ele>611.06</ele>
        <time>2021-08-12T08:12:27Z</time>
      </trkpt>
      <trkpt lat="47.24799" lon="4.14568">
        <ele>611.06</ele>
        <time>2021-08-12T08:12:36Z</time>
      </trkpt>
      <trkpt lat="47.24769" lon="4.14589">
        <ele>611.06</ele>
        <time>2021-08-12T08:12:45Z</time>
      </trkpt>
      <trkpt lat="47.24748" lon="4.14587">
        <ele>611.06</ele>
        <time>2021-08-12T08:12:51Z</time>
      </trkpt>
      <trkpt lat="47.24718" lon="4.14576">
        <ele>611.06</ele>
        <time>2021-08-12T08:12:59Z</time>
      </trkpt>
      <trkpt lat="47.24711" lon="4.14575">
        <ele>611.54</ele>
        <time>2021-08-12T08:13:01Z</time>
      </trkpt>
      <trkpt lat="47.24708" lon="4.14575">
        <ele>611.54</ele>
        <time>2021-08-12T08:13:02Z</time>
      </trkpt>
      <trkpt lat="47.24705" lon="4.14576">
        <ele>612.5</ele>
        <time>2021-08-12T08:13:03Z</time>
      </trkpt>
      <trkpt lat="47.24703" lon="4.14577">
        <ele>612.5</ele>
        <time>2021-08-12T08:13:04Z</time>
      </trkpt>
      <trkpt lat="47.24701" lon="4.14579">
        <ele>612.98</ele>
        <time>2021-08-12T08:13:05Z</time>
      </trkpt>
      <trkpt lat="47.247" lon="4.1458">
        <ele>612.98</ele>
        <time>2021-08-12T08:13:06Z</time>
      </trkpt>
      <trkpt lat="47.24698" lon="4.14583">
        <ele>612.98</ele>
        <time>2021-08-12T08:13:07Z</time>
      </trkpt>
      <trkpt lat="47.24697" lon="4.14586">
        <ele>613.46</ele>
        <time>2021-08-12T08:13:08Z</time>
      </trkpt>
      <trkpt lat="47.24686" lon="4.14608">
        <ele>615.38</ele>
        <time>2021-08-12T08:13:16Z</time>
      </trkpt>
      <trkpt lat="47.24669" lon="4.14615">
        <ele>615.86</ele>
        <time>2021-08-12T08:13:23Z</time>
      </trkpt>
      <trkpt lat="47.2465" lon="4.14608">
        <ele>616.34</ele>
        <time>2021-08-12T08:13:30Z</time>
      </trkpt>
      <trkpt lat="47.24632" lon="4.14599">
        <ele>616.34</ele>
        <time>2021-08-12T08:13:36Z</time>
      </trkpt>
      <trkpt lat="47.2461" lon="4.14581">
        <ele>614.9</ele>
        <time>2021-08-12T08:13:42Z</time>
      </trkpt>
      <trkpt lat="47.24577" lon="4.14546">
        <ele>613.94</ele>
        <time>2021-08-12T08:13:50Z</time>
      </trkpt>
      <trkpt lat="47.2454" lon="4.14513">
        <ele>612.02</ele>
        <time>2021-08-12T08:13:58Z</time>
      </trkpt>
      <trkpt lat="47.24511" lon="4.14492">
        <ele>610.57</ele>
        <time>2021-08-12T08:14:04Z</time>
      </trkpt>
      <trkpt lat="47.24507" lon="4.1449">
        <ele>610.57</ele>
        <time>2021-08-12T08:14:05Z</time>
      </trkpt>
      <trkpt lat="47.24489" lon="4.14479">
        <ele>610.57</ele>
        <time>2021-08-12T08:14:11Z</time>
      </trkpt>
      <trkpt lat="47.24479" lon="4.14474">
        <ele>610.57</ele>
        <time>2021-08-12T08:14:14Z</time>
      </trkpt>
      <trkpt lat="47.24475" lon="4.14473">
        <ele>610.57</ele>
        <time>2021-08-12T08:14:15Z</time>
      </trkpt>
      <trkpt lat="47.24462" lon="4.14469">
        <ele>610.57</ele>
        <time>2021-08-12T08:14:18Z</time>
      </trkpt>
      <trkpt lat="47.24458" lon="4.14467">
        <ele>610.57</ele>
        <time>2021-08-12T08:14:19Z</time>
      </trkpt>
      <trkpt lat="47.24435" lon="4.14463">
        <ele>610.57</ele>
        <time>2021-08-12T08:14:26Z</time>
      </trkpt>
      <trkpt lat="47.24412" lon="4.14465">
        <ele>609.61</ele>
        <time>2021-08-12T08:14:31Z</time>
      </trkpt>
      <trkpt lat="47.24379" lon="4.14477">
        <ele>609.13</ele>
        <time>2021-08-12T08:14:38Z</time>
      </trkpt>
      <trkpt lat="47.24375" lon="4.14478">
        <ele>609.13</ele>
        <time>2021-08-12T08:14:39Z</time>
      </trkpt>
      <trkpt lat="47.24359" lon="4.14483">
        <ele>609.13</ele>
        <time>2021-08-12T08:14:44Z</time>
      </trkpt>
      <trkpt lat="47.24346" lon="4.14498">
        <ele>609.13</ele>
        <time>2021-08-12T08:14:49Z</time>
      </trkpt>
      <trkpt lat="47.2433" lon="4.14521">
        <ele>610.57</ele>
        <time>2021-08-12T08:14:56Z</time>
      </trkpt>
      <trkpt lat="47.24313" lon="4.14529">
        <ele>611.06</ele>
        <time>2021-08-12T08:15:02Z</time>
      </trkpt>
      <trkpt lat="47.24299" lon="4.1453">
        <ele>611.06</ele>
        <time>2021-08-12T08:15:07Z</time>
      </trkpt>
      <trkpt lat="47.24295" lon="4.14529">
        <ele>611.06</ele>
        <time>2021-08-12T08:15:08Z</time>
      </trkpt>
      <trkpt lat="47.24263" lon="4.1452">
        <ele>611.06</ele>
        <time>2021-08-12T08:15:16Z</time>
      </trkpt>
      <trkpt lat="47.24233" lon="4.14505">
        <ele>611.06</ele>
        <time>2021-08-12T08:15:24Z</time>
      </trkpt>
      <trkpt lat="47.24209" lon="4.14505">
        <ele>610.09</ele>
        <time>2021-08-12T08:15:30Z</time>
      </trkpt>
      <trkpt lat="47.24203" lon="4.14507">
        <ele>610.09</ele>
        <time>2021-08-12T08:15:31Z</time>
      </trkpt>
      <trkpt lat="47.24199" lon="4.14507">
        <ele>609.13</ele>
        <time>2021-08-12T08:15:32Z</time>
      </trkpt>
      <trkpt lat="47.24194" lon="4.14508">
        <ele>609.13</ele>
        <time>2021-08-12T08:15:33Z</time>
      </trkpt>
      <trkpt lat="47.24189" lon="4.14508">
        <ele>608.17</ele>
        <time>2021-08-12T08:15:34Z</time>
      </trkpt>
      <trkpt lat="47.24185" lon="4.14507">
        <ele>608.17</ele>
        <time>2021-08-12T08:15:35Z</time>
      </trkpt>
      <trkpt lat="47.24181" lon="4.14507">
        <ele>608.17</ele>
        <time>2021-08-12T08:15:36Z</time>
      </trkpt>
      <trkpt lat="47.24177" lon="4.14506">
        <ele>608.17</ele>
        <time>2021-08-12T08:15:37Z</time>
      </trkpt>
      <trkpt lat="47.24173" lon="4.14505">
        <ele>608.17</ele>
        <time>2021-08-12T08:15:38Z</time>
      </trkpt>
      <trkpt lat="47.2417" lon="4.14502">
        <ele>608.17</ele>
        <time>2021-08-12T08:15:39Z</time>
      </trkpt>
      <trkpt lat="47.24166" lon="4.14499">
        <ele>608.17</ele>
        <time>2021-08-12T08:15:40Z</time>
      </trkpt>
      <trkpt lat="47.24163" lon="4.14495">
        <ele>608.17</ele>
        <time>2021-08-12T08:15:41Z</time>
      </trkpt>
      <trkpt lat="47.24159" lon="4.14491">
        <ele>608.17</ele>
        <time>2021-08-12T08:15:42Z</time>
      </trkpt>
      <trkpt lat="47.24155" lon="4.14488">
        <ele>608.17</ele>
        <time>2021-08-12T08:15:43Z</time>
      </trkpt>
      <trkpt lat="47.24128" lon="4.14467">
        <ele>608.17</ele>
        <time>2021-08-12T08:15:50Z</time>
      </trkpt>
      <trkpt lat="47.24114" lon="4.14458">
        <ele>609.61</ele>
        <time>2021-08-12T08:15:54Z</time>
      </trkpt>
      <trkpt lat="47.24086" lon="4.14444">
        <ele>610.09</ele>
        <time>2021-08-12T08:16:01Z</time>
      </trkpt>
      <trkpt lat="47.24058" lon="4.14422">
        <ele>608.65</ele>
        <time>2021-08-12T08:16:08Z</time>
      </trkpt>
      <trkpt lat="47.24039" lon="4.14411">
        <ele>607.69</ele>
        <time>2021-08-12T08:16:12Z</time>
      </trkpt>
      <trkpt lat="47.24034" lon="4.1441">
        <ele>607.21</ele>
        <time>2021-08-12T08:16:13Z</time>
      </trkpt>
      <trkpt lat="47.24022" lon="4.14407">
        <ele>605.77</ele>
        <time>2021-08-12T08:16:15Z</time>
      </trkpt>
      <trkpt lat="47.24017" lon="4.14404">
        <ele>605.77</ele>
        <time>2021-08-12T08:16:16Z</time>
      </trkpt>
      <trkpt lat="47.24012" lon="4.144">
        <ele>605.29</ele>
        <time>2021-08-12T08:16:17Z</time>
      </trkpt>
      <trkpt lat="47.23987" lon="4.1438">
        <ele>602.88</ele>
        <time>2021-08-12T08:16:22Z</time>
      </trkpt>
      <trkpt lat="47.23977" lon="4.14374">
        <ele>602.4</ele>
        <time>2021-08-12T08:16:24Z</time>
      </trkpt>
      <trkpt lat="47.23973" lon="4.14372">
        <ele>601.92</ele>
        <time>2021-08-12T08:16:25Z</time>
      </trkpt>
      <trkpt lat="47.23971" lon="4.14372">
        <ele>601.92</ele>
        <time>2021-08-12T08:16:26Z</time>
      </trkpt>
      <trkpt lat="47.23969" lon="4.14372">
        <ele>601.92</ele>
        <time>2021-08-12T08:16:27Z</time>
      </trkpt>
      <trkpt lat="47.23967" lon="4.14371">
        <ele>601.92</ele>
        <time>2021-08-12T08:16:32Z</time>
      </trkpt>
      <trkpt lat="47.23965" lon="4.14371">
        <ele>601.92</ele>
        <time>2021-08-12T08:16:39Z</time>
      </trkpt>
      <trkpt lat="47.23963" lon="4.14371">
        <ele>601.92</ele>
        <time>2021-08-12T08:16:40Z</time>
      </trkpt>
      <trkpt lat="47.23961" lon="4.14372">
        <ele>601.92</ele>
        <time>2021-08-12T08:16:41Z</time>
      </trkpt>
      <trkpt lat="47.2396" lon="4.14372">
        <ele>601.92</ele>
        <time>2021-08-12T08:16:42Z</time>
      </trkpt>
      <trkpt lat="47.23957" lon="4.14373">
        <ele>601.92</ele>
        <time>2021-08-12T08:16:43Z</time>
      </trkpt>
      <trkpt lat="47.23955" lon="4.14375">
        <ele>601.92</ele>
        <time>2021-08-12T08:16:44Z</time>
      </trkpt>
      <trkpt lat="47.23954" lon="4.14377">
        <ele>601.92</ele>
        <time>2021-08-12T08:16:45Z</time>
      </trkpt>
      <trkpt lat="47.23952" lon="4.1438">
        <ele>601.92</ele>
        <time>2021-08-12T08:16:46Z</time>
      </trkpt>
      <trkpt lat="47.23951" lon="4.14382">
        <ele>601.92</ele>
        <time>2021-08-12T08:16:47Z</time>
      </trkpt>
      <trkpt lat="47.23949" lon="4.14384">
        <ele>601.92</ele>
        <time>2021-08-12T08:16:48Z</time>
      </trkpt>
      <trkpt lat="47.23948" lon="4.14386">
        <ele>601.92</ele>
        <time>2021-08-12T08:16:49Z</time>
      </trkpt>
      <trkpt lat="47.23947" lon="4.14389">
        <ele>601.92</ele>
        <time>2021-08-12T08:16:50Z</time>
      </trkpt>
      <trkpt lat="47.23946" lon="4.14392">
        <ele>601.92</ele>
        <time>2021-08-12T08:16:51Z</time>
      </trkpt>
      <trkpt lat="47.23944" lon="4.14396">
        <ele>601.92</ele>
        <time>2021-08-12T08:16:52Z</time>
      </trkpt>
      <trkpt lat="47.23931" lon="4.14421">
        <ele>603.85</ele>
        <time>2021-08-12T08:16:59Z</time>
      </trkpt>
      <trkpt lat="47.23921" lon="4.14447">
        <ele>604.81</ele>
        <time>2021-08-12T08:17:06Z</time>
      </trkpt>
      <trkpt lat="47.23914" lon="4.14473">
        <ele>605.29</ele>
        <time>2021-08-12T08:17:13Z</time>
      </trkpt>
      <trkpt lat="47.2391" lon="4.145">
        <ele>605.77</ele>
        <time>2021-08-12T08:17:21Z</time>
      </trkpt>
      <trkpt lat="47.23911" lon="4.14522">
        <ele>605.77</ele>
        <time>2021-08-12T08:17:26Z</time>
      </trkpt>
      <trkpt lat="47.23909" lon="4.14551">
        <ele>606.25</ele>
        <time>2021-08-12T08:17:34Z</time>
      </trkpt>
      <trkpt lat="47.23906" lon="4.14574">
        <ele>606.73</ele>
        <time>2021-08-12T08:17:41Z</time>
      </trkpt>
      <trkpt lat="47.23904" lon="4.14583">
        <ele>607.21</ele>
        <time>2021-08-12T08:17:45Z</time>
      </trkpt>
      <trkpt lat="47.23902" lon="4.14584">
        <ele>607.21</ele>
        <time>2021-08-12T08:17:46Z</time>
      </trkpt>
      <trkpt lat="47.23897" lon="4.14594">
        <ele>607.69</ele>
        <time>2021-08-12T08:17:52Z</time>
      </trkpt>
      <trkpt lat="47.23894" lon="4.14612">
        <ele>608.17</ele>
        <time>2021-08-12T08:17:58Z</time>
      </trkpt>
      <trkpt lat="47.23893" lon="4.14641">
        <ele>608.17</ele>
        <time>2021-08-12T08:18:05Z</time>
      </trkpt>
      <trkpt lat="47.23893" lon="4.14663">
        <ele>608.65</ele>
        <time>2021-08-12T08:18:10Z</time>
      </trkpt>
      <trkpt lat="47.23893" lon="4.14684">
        <ele>609.13</ele>
        <time>2021-08-12T08:18:15Z</time>
      </trkpt>
      <trkpt lat="47.23893" lon="4.14688">
        <ele>609.13</ele>
        <time>2021-08-12T08:18:16Z</time>
      </trkpt>
      <trkpt lat="47.23892" lon="4.1469">
        <ele>609.13</ele>
        <time>2021-08-12T08:18:17Z</time>
      </trkpt>
      <trkpt lat="47.2389" lon="4.14732">
        <ele>610.09</ele>
        <time>2021-08-12T08:18:24Z</time>
      </trkpt>
      <trkpt lat="47.23891" lon="4.14762">
        <ele>611.06</ele>
        <time>2021-08-12T08:18:30Z</time>
      </trkpt>
      <trkpt lat="47.23885" lon="4.14779">
        <ele>611.54</ele>
        <time>2021-08-12T08:18:37Z</time>
      </trkpt>
      <trkpt lat="47.23881" lon="4.14816">
        <ele>612.5</ele>
        <time>2021-08-12T08:18:44Z</time>
      </trkpt>
      <trkpt lat="47.23874" lon="4.14833">
        <ele>613.46</ele>
        <time>2021-08-12T08:18:51Z</time>
      </trkpt>
      <trkpt lat="47.2387" lon="4.14854">
        <ele>614.9</ele>
        <time>2021-08-12T08:18:58Z</time>
      </trkpt>
      <trkpt lat="47.23864" lon="4.14876">
        <ele>615.86</ele>
        <time>2021-08-12T08:19:06Z</time>
      </trkpt>
      <trkpt lat="47.23859" lon="4.14901">
        <ele>616.82</ele>
        <time>2021-08-12T08:19:14Z</time>
      </trkpt>
      <trkpt lat="47.23864" lon="4.14929">
        <ele>616.82</ele>
        <time>2021-08-12T08:19:20Z</time>
      </trkpt>
      <trkpt lat="47.23876" lon="4.14985">
        <ele>614.9</ele>
        <time>2021-08-12T08:19:28Z</time>
      </trkpt>
      <trkpt lat="47.2389" lon="4.15061">
        <ele>613.94</ele>
        <time>2021-08-12T08:19:37Z</time>
      </trkpt>
      <trkpt lat="47.23903" lon="4.15124">
        <ele>613.46</ele>
        <time>2021-08-12T08:19:45Z</time>
      </trkpt>
      <trkpt lat="47.2392" lon="4.15204">
        <ele>612.5</ele>
        <time>2021-08-12T08:19:55Z</time>
      </trkpt>
      <trkpt lat="47.23935" lon="4.15256">
        <ele>611.06</ele>
        <time>2021-08-12T08:20:01Z</time>
      </trkpt>
      <trkpt lat="47.23955" lon="4.1533">
        <ele>607.69</ele>
        <time>2021-08-12T08:20:09Z</time>
      </trkpt>
      <trkpt lat="47.23964" lon="4.15361">
        <ele>606.25</ele>
        <time>2021-08-12T08:20:12Z</time>
      </trkpt>
      <trkpt lat="47.23978" lon="4.15414">
        <ele>602.88</ele>
        <time>2021-08-12T08:20:16Z</time>
      </trkpt>
      <trkpt lat="47.24001" lon="4.15494">
        <ele>599.52</ele>
        <time>2021-08-12T08:20:21Z</time>
      </trkpt>
      <trkpt lat="47.24027" lon="4.15588">
        <ele>598.56</ele>
        <time>2021-08-12T08:20:28Z</time>
      </trkpt>
      <trkpt lat="47.24029" lon="4.15597">
        <ele>599.04</ele>
        <time>2021-08-12T08:20:29Z</time>
      </trkpt>
      <trkpt lat="47.24028" lon="4.15608">
        <ele>599.04</ele>
        <time>2021-08-12T08:20:30Z</time>
      </trkpt>
      <trkpt lat="47.24025" lon="4.15613">
        <ele>599.04</ele>
        <time>2021-08-12T08:20:31Z</time>
      </trkpt>
      <trkpt lat="47.24022" lon="4.15618">
        <ele>599.04</ele>
        <time>2021-08-12T08:20:32Z</time>
      </trkpt>
      <trkpt lat="47.24018" lon="4.15622">
        <ele>599.04</ele>
        <time>2021-08-12T08:20:33Z</time>
      </trkpt>
      <trkpt lat="47.24015" lon="4.15626">
        <ele>599.04</ele>
        <time>2021-08-12T08:20:34Z</time>
      </trkpt>
      <trkpt lat="47.24011" lon="4.1563">
        <ele>599.04</ele>
        <time>2021-08-12T08:20:35Z</time>
      </trkpt>
      <trkpt lat="47.24004" lon="4.15637">
        <ele>600.96</ele>
        <time>2021-08-12T08:20:37Z</time>
      </trkpt>
      <trkpt lat="47.23984" lon="4.15663">
        <ele>602.88</ele>
        <time>2021-08-12T08:20:45Z</time>
      </trkpt>
      <trkpt lat="47.23969" lon="4.15691">
        <ele>604.81</ele>
        <time>2021-08-12T08:20:54Z</time>
      </trkpt>
      <trkpt lat="47.23952" lon="4.1571">
        <ele>606.25</ele>
        <time>2021-08-12T08:21:02Z</time>
      </trkpt>
      <trkpt lat="47.23929" lon="4.15735">
        <ele>608.17</ele>
        <time>2021-08-12T08:21:12Z</time>
      </trkpt>
      <trkpt lat="47.23913" lon="4.15754">
        <ele>609.13</ele>
        <time>2021-08-12T08:21:19Z</time>
      </trkpt>
      <trkpt lat="47.23892" lon="4.15775">
        <ele>610.09</ele>
        <time>2021-08-12T08:21:28Z</time>
      </trkpt>
      <trkpt lat="47.23868" lon="4.15804">
        <ele>610.57</ele>
        <time>2021-08-12T08:21:36Z</time>
      </trkpt>
      <trkpt lat="47.23864" lon="4.15811">
        <ele>610.57</ele>
        <time>2021-08-12T08:21:38Z</time>
      </trkpt>
      <trkpt lat="47.23854" lon="4.15823">
        <ele>610.57</ele>
        <time>2021-08-12T08:21:41Z</time>
      </trkpt>
      <trkpt lat="47.2385" lon="4.15826">
        <ele>610.57</ele>
        <time>2021-08-12T08:21:42Z</time>
      </trkpt>
      <trkpt lat="47.23846" lon="4.15828">
        <ele>610.57</ele>
        <time>2021-08-12T08:21:43Z</time>
      </trkpt>
      <trkpt lat="47.23842" lon="4.1583">
        <ele>610.57</ele>
        <time>2021-08-12T08:21:44Z</time>
      </trkpt>
      <trkpt lat="47.23837" lon="4.15832">
        <ele>610.57</ele>
        <time>2021-08-12T08:21:45Z</time>
      </trkpt>
      <trkpt lat="47.23833" lon="4.15834">
        <ele>610.57</ele>
        <time>2021-08-12T08:21:46Z</time>
      </trkpt>
      <trkpt lat="47.23823" lon="4.15839">
        <ele>608.65</ele>
        <time>2021-08-12T08:21:48Z</time>
      </trkpt>
      <trkpt lat="47.23804" lon="4.15849">
        <ele>605.29</ele>
        <time>2021-08-12T08:21:52Z</time>
      </trkpt>
      <trkpt lat="47.23798" lon="4.15853">
        <ele>604.81</ele>
        <time>2021-08-12T08:21:53Z</time>
      </trkpt>
      <trkpt lat="47.23794" lon="4.15859">
        <ele>603.85</ele>
        <time>2021-08-12T08:21:54Z</time>
      </trkpt>
      <trkpt lat="47.23791" lon="4.15867">
        <ele>602.88</ele>
        <time>2021-08-12T08:21:55Z</time>
      </trkpt>
      <trkpt lat="47.23789" lon="4.15877">
        <ele>601.92</ele>
        <time>2021-08-12T08:21:56Z</time>
      </trkpt>
      <trkpt lat="47.23788" lon="4.15889">
        <ele>600.48</ele>
        <time>2021-08-12T08:21:57Z</time>
      </trkpt>
      <trkpt lat="47.23786" lon="4.15922">
        <ele>597.12</ele>
        <time>2021-08-12T08:22:00Z</time>
      </trkpt>
      <trkpt lat="47.23785" lon="4.15931">
        <ele>597.12</ele>
        <time>2021-08-12T08:22:01Z</time>
      </trkpt>
      <trkpt lat="47.23784" lon="4.15948">
        <ele>595.19</ele>
        <time>2021-08-12T08:22:03Z</time>
      </trkpt>
      <trkpt lat="47.23785" lon="4.15959">
        <ele>594.71</ele>
        <time>2021-08-12T08:22:04Z</time>
      </trkpt>
      <trkpt lat="47.23788" lon="4.15987">
        <ele>590.87</ele>
        <time>2021-08-12T08:22:07Z</time>
      </trkpt>
      <trkpt lat="47.23786" lon="4.15998">
        <ele>589.91</ele>
        <time>2021-08-12T08:22:08Z</time>
      </trkpt>
      <trkpt lat="47.23783" lon="4.16009">
        <ele>588.46</ele>
        <time>2021-08-12T08:22:09Z</time>
      </trkpt>
      <trkpt lat="47.2377" lon="4.16042">
        <ele>584.62</ele>
        <time>2021-08-12T08:22:12Z</time>
      </trkpt>
      <trkpt lat="47.23753" lon="4.16086">
        <ele>581.25</ele>
        <time>2021-08-12T08:22:16Z</time>
      </trkpt>
      <trkpt lat="47.23748" lon="4.16095">
        <ele>580.77</ele>
        <time>2021-08-12T08:22:17Z</time>
      </trkpt>
      <trkpt lat="47.23741" lon="4.16102">
        <ele>580.77</ele>
        <time>2021-08-12T08:22:18Z</time>
      </trkpt>
      <trkpt lat="47.23737" lon="4.16108">
        <ele>580.77</ele>
        <time>2021-08-12T08:22:19Z</time>
      </trkpt>
      <trkpt lat="47.23734" lon="4.16116">
        <ele>580.29</ele>
        <time>2021-08-12T08:22:20Z</time>
      </trkpt>
      <trkpt lat="47.23734" lon="4.16126">
        <ele>580.29</ele>
        <time>2021-08-12T08:22:21Z</time>
      </trkpt>
      <trkpt lat="47.23735" lon="4.16134">
        <ele>580.29</ele>
        <time>2021-08-12T08:22:22Z</time>
      </trkpt>
      <trkpt lat="47.23737" lon="4.16143">
        <ele>579.81</ele>
        <time>2021-08-12T08:22:23Z</time>
      </trkpt>
      <trkpt lat="47.23739" lon="4.16151">
        <ele>579.81</ele>
        <time>2021-08-12T08:22:24Z</time>
      </trkpt>
      <trkpt lat="47.23747" lon="4.16186">
        <ele>577.89</ele>
        <time>2021-08-12T08:22:28Z</time>
      </trkpt>
      <trkpt lat="47.23751" lon="4.16195">
        <ele>577.41</ele>
        <time>2021-08-12T08:22:29Z</time>
      </trkpt>
      <trkpt lat="47.23757" lon="4.16202">
        <ele>576.45</ele>
        <time>2021-08-12T08:22:30Z</time>
      </trkpt>
      <trkpt lat="47.23771" lon="4.16217">
        <ele>575.01</ele>
        <time>2021-08-12T08:22:32Z</time>
      </trkpt>
      <trkpt lat="47.23776" lon="4.16226">
        <ele>575.01</ele>
        <time>2021-08-12T08:22:33Z</time>
      </trkpt>
      <trkpt lat="47.2378" lon="4.16235">
        <ele>575.01</ele>
        <time>2021-08-12T08:22:34Z</time>
      </trkpt>
      <trkpt lat="47.23782" lon="4.16244">
        <ele>575.01</ele>
        <time>2021-08-12T08:22:35Z</time>
      </trkpt>
      <trkpt lat="47.23783" lon="4.16253">
        <ele>575.01</ele>
        <time>2021-08-12T08:22:36Z</time>
      </trkpt>
      <trkpt lat="47.23783" lon="4.16262">
        <ele>575.01</ele>
        <time>2021-08-12T08:22:37Z</time>
      </trkpt>
      <trkpt lat="47.23783" lon="4.16271">
        <ele>575.01</ele>
        <time>2021-08-12T08:22:38Z</time>
      </trkpt>
      <trkpt lat="47.23784" lon="4.16279">
        <ele>575.01</ele>
        <time>2021-08-12T08:22:39Z</time>
      </trkpt>
      <trkpt lat="47.23786" lon="4.16287">
        <ele>575.01</ele>
        <time>2021-08-12T08:22:40Z</time>
      </trkpt>
      <trkpt lat="47.23789" lon="4.16295">
        <ele>575.01</ele>
        <time>2021-08-12T08:22:41Z</time>
      </trkpt>
      <trkpt lat="47.23792" lon="4.16302">
        <ele>575.01</ele>
        <time>2021-08-12T08:22:42Z</time>
      </trkpt>
      <trkpt lat="47.23808" lon="4.16343">
        <ele>575.01</ele>
        <time>2021-08-12T08:22:48Z</time>
      </trkpt>
      <trkpt lat="47.23809" lon="4.16349">
        <ele>575.01</ele>
        <time>2021-08-12T08:22:49Z</time>
      </trkpt>
      <trkpt lat="47.23809" lon="4.16354">
        <ele>575.01</ele>
        <time>2021-08-12T08:22:50Z</time>
      </trkpt>
      <trkpt lat="47.23809" lon="4.1636">
        <ele>575.01</ele>
        <time>2021-08-12T08:22:51Z</time>
      </trkpt>
      <trkpt lat="47.23808" lon="4.16365">
        <ele>575.01</ele>
        <time>2021-08-12T08:22:52Z</time>
      </trkpt>
      <trkpt lat="47.23806" lon="4.16369">
        <ele>575.01</ele>
        <time>2021-08-12T08:22:53Z</time>
      </trkpt>
      <trkpt lat="47.23803" lon="4.16372">
        <ele>575.01</ele>
        <time>2021-08-12T08:22:54Z</time>
      </trkpt>
      <trkpt lat="47.2378" lon="4.16392">
        <ele>574.53</ele>
        <time>2021-08-12T08:23:02Z</time>
      </trkpt>
      <trkpt lat="47.2375" lon="4.16422">
        <ele>574.53</ele>
        <time>2021-08-12T08:23:12Z</time>
      </trkpt>
      <trkpt lat="47.23735" lon="4.16444">
        <ele>575.97</ele>
        <time>2021-08-12T08:23:19Z</time>
      </trkpt>
      <trkpt lat="47.23722" lon="4.16469">
        <ele>576.93</ele>
        <time>2021-08-12T08:23:26Z</time>
      </trkpt>
      <trkpt lat="47.23714" lon="4.16494">
        <ele>576.93</ele>
        <time>2021-08-12T08:23:33Z</time>
      </trkpt>
      <trkpt lat="47.23709" lon="4.16527">
        <ele>577.89</ele>
        <time>2021-08-12T08:23:41Z</time>
      </trkpt>
      <trkpt lat="47.23706" lon="4.16559">
        <ele>578.37</ele>
        <time>2021-08-12T08:23:48Z</time>
      </trkpt>
      <trkpt lat="47.23694" lon="4.16602">
        <ele>578.85</ele>
        <time>2021-08-12T08:23:56Z</time>
      </trkpt>
      <trkpt lat="47.23692" lon="4.16608">
        <ele>577.89</ele>
        <time>2021-08-12T08:23:57Z</time>
      </trkpt>
      <trkpt lat="47.2369" lon="4.16616">
        <ele>576.93</ele>
        <time>2021-08-12T08:23:58Z</time>
      </trkpt>
      <trkpt lat="47.23691" lon="4.16625">
        <ele>575.97</ele>
        <time>2021-08-12T08:23:59Z</time>
      </trkpt>
      <trkpt lat="47.23693" lon="4.16635">
        <ele>575.49</ele>
        <time>2021-08-12T08:24:00Z</time>
      </trkpt>
      <trkpt lat="47.23696" lon="4.16645">
        <ele>574.53</ele>
        <time>2021-08-12T08:24:01Z</time>
      </trkpt>
      <trkpt lat="47.23706" lon="4.16671">
        <ele>572.6</ele>
        <time>2021-08-12T08:24:04Z</time>
      </trkpt>
      <trkpt lat="47.23709" lon="4.16678">
        <ele>572.12</ele>
        <time>2021-08-12T08:24:05Z</time>
      </trkpt>
      <trkpt lat="47.2371" lon="4.16686">
        <ele>572.12</ele>
        <time>2021-08-12T08:24:06Z</time>
      </trkpt>
      <trkpt lat="47.23708" lon="4.16693">
        <ele>571.16</ele>
        <time>2021-08-12T08:24:07Z</time>
      </trkpt>
      <trkpt lat="47.23705" lon="4.16699">
        <ele>571.16</ele>
        <time>2021-08-12T08:24:08Z</time>
      </trkpt>
      <trkpt lat="47.237" lon="4.16704">
        <ele>570.2</ele>
        <time>2021-08-12T08:24:09Z</time>
      </trkpt>
      <trkpt lat="47.23695" lon="4.1671">
        <ele>569.24</ele>
        <time>2021-08-12T08:24:10Z</time>
      </trkpt>
      <trkpt lat="47.23689" lon="4.16716">
        <ele>569.24</ele>
        <time>2021-08-12T08:24:11Z</time>
      </trkpt>
      <trkpt lat="47.23676" lon="4.16729">
        <ele>567.8</ele>
        <time>2021-08-12T08:24:13Z</time>
      </trkpt>
      <trkpt lat="47.23632" lon="4.16768">
        <ele>565.87</ele>
        <time>2021-08-12T08:24:19Z</time>
      </trkpt>
      <trkpt lat="47.23627" lon="4.1677">
        <ele>565.87</ele>
        <time>2021-08-12T08:24:20Z</time>
      </trkpt>
      <trkpt lat="47.23625" lon="4.16772">
        <ele>565.87</ele>
        <time>2021-08-12T08:24:21Z</time>
      </trkpt>
      <trkpt lat="47.23625" lon="4.16775">
        <ele>565.87</ele>
        <time>2021-08-12T08:24:22Z</time>
      </trkpt>
      <trkpt lat="47.23627" lon="4.16777">
        <ele>565.87</ele>
        <time>2021-08-12T08:24:23Z</time>
      </trkpt>
      <trkpt lat="47.2363" lon="4.16778">
        <ele>565.87</ele>
        <time>2021-08-12T08:24:24Z</time>
      </trkpt>
      <trkpt lat="47.23634" lon="4.16779">
        <ele>565.87</ele>
        <time>2021-08-12T08:24:25Z</time>
      </trkpt>
      <trkpt lat="47.23637" lon="4.1678">
        <ele>565.87</ele>
        <time>2021-08-12T08:24:26Z</time>
      </trkpt>
      <trkpt lat="47.23642" lon="4.1678">
        <ele>565.87</ele>
        <time>2021-08-12T08:24:27Z</time>
      </trkpt>
      <trkpt lat="47.23647" lon="4.16778">
        <ele>565.39</ele>
        <time>2021-08-12T08:24:28Z</time>
      </trkpt>
      <trkpt lat="47.23652" lon="4.16774">
        <ele>564.91</ele>
        <time>2021-08-12T08:24:29Z</time>
      </trkpt>
      <trkpt lat="47.23657" lon="4.1677">
        <ele>564.91</ele>
        <time>2021-08-12T08:24:30Z</time>
      </trkpt>
      <trkpt lat="47.23662" lon="4.16765">
        <ele>563.95</ele>
        <time>2021-08-12T08:24:31Z</time>
      </trkpt>
      <trkpt lat="47.23666" lon="4.1676">
        <ele>563.47</ele>
        <time>2021-08-12T08:24:32Z</time>
      </trkpt>
      <trkpt lat="47.23671" lon="4.16757">
        <ele>562.99</ele>
        <time>2021-08-12T08:24:33Z</time>
      </trkpt>
      <trkpt lat="47.23677" lon="4.16756">
        <ele>562.03</ele>
        <time>2021-08-12T08:24:34Z</time>
      </trkpt>
      <trkpt lat="47.23683" lon="4.16759">
        <ele>561.55</ele>
        <time>2021-08-12T08:24:35Z</time>
      </trkpt>
      <trkpt lat="47.23688" lon="4.16767">
        <ele>561.07</ele>
        <time>2021-08-12T08:24:36Z</time>
      </trkpt>
      <trkpt lat="47.2369" lon="4.16775">
        <ele>560.11</ele>
        <time>2021-08-12T08:24:37Z</time>
      </trkpt>
      <trkpt lat="47.2369" lon="4.16785">
        <ele>559.62</ele>
        <time>2021-08-12T08:24:38Z</time>
      </trkpt>
      <trkpt lat="47.23688" lon="4.16796">
        <ele>559.14</ele>
        <time>2021-08-12T08:24:39Z</time>
      </trkpt>
      <trkpt lat="47.23686" lon="4.16807">
        <ele>558.18</ele>
        <time>2021-08-12T08:24:40Z</time>
      </trkpt>
      <trkpt lat="47.23683" lon="4.16819">
        <ele>557.7</ele>
        <time>2021-08-12T08:24:41Z</time>
      </trkpt>
      <trkpt lat="47.23673" lon="4.1686">
        <ele>554.34</ele>
        <time>2021-08-12T08:24:44Z</time>
      </trkpt>
      <trkpt lat="47.23664" lon="4.16902">
        <ele>551.45</ele>
        <time>2021-08-12T08:24:47Z</time>
      </trkpt>
      <trkpt lat="47.23654" lon="4.16951">
        <ele>548.09</ele>
        <time>2021-08-12T08:24:50Z</time>
      </trkpt>
      <trkpt lat="47.23649" lon="4.16965">
        <ele>547.13</ele>
        <time>2021-08-12T08:24:51Z</time>
      </trkpt>
      <trkpt lat="47.23641" lon="4.16979">
        <ele>545.69</ele>
        <time>2021-08-12T08:24:52Z</time>
      </trkpt>
      <trkpt lat="47.23616" lon="4.17016">
        <ele>542.8</ele>
        <time>2021-08-12T08:24:55Z</time>
      </trkpt>
      <trkpt lat="47.23607" lon="4.17025">
        <ele>541.36</ele>
        <time>2021-08-12T08:24:56Z</time>
      </trkpt>
      <trkpt lat="47.23601" lon="4.17032">
        <ele>540.88</ele>
        <time>2021-08-12T08:24:57Z</time>
      </trkpt>
      <trkpt lat="47.23598" lon="4.17041">
        <ele>539.92</ele>
        <time>2021-08-12T08:24:58Z</time>
      </trkpt>
      <trkpt lat="47.23598" lon="4.17054">
        <ele>538.48</ele>
        <time>2021-08-12T08:24:59Z</time>
      </trkpt>
      <trkpt lat="47.23601" lon="4.17066">
        <ele>537.99</ele>
        <time>2021-08-12T08:25:00Z</time>
      </trkpt>
      <trkpt lat="47.23604" lon="4.17078">
        <ele>537.03</ele>
        <time>2021-08-12T08:25:01Z</time>
      </trkpt>
      <trkpt lat="47.23606" lon="4.17092">
        <ele>536.07</ele>
        <time>2021-08-12T08:25:02Z</time>
      </trkpt>
      <trkpt lat="47.23606" lon="4.17108">
        <ele>534.63</ele>
        <time>2021-08-12T08:25:03Z</time>
      </trkpt>
      <trkpt lat="47.23605" lon="4.17123">
        <ele>534.15</ele>
        <time>2021-08-12T08:25:04Z</time>
      </trkpt>
      <trkpt lat="47.23603" lon="4.17139">
        <ele>532.71</ele>
        <time>2021-08-12T08:25:05Z</time>
      </trkpt>
      <trkpt lat="47.23598" lon="4.17155">
        <ele>531.75</ele>
        <time>2021-08-12T08:25:06Z</time>
      </trkpt>
      <trkpt lat="47.23592" lon="4.17168">
        <ele>530.79</ele>
        <time>2021-08-12T08:25:07Z</time>
      </trkpt>
      <trkpt lat="47.23584" lon="4.17181">
        <ele>529.34</ele>
        <time>2021-08-12T08:25:08Z</time>
      </trkpt>
      <trkpt lat="47.23575" lon="4.17193">
        <ele>527.9</ele>
        <time>2021-08-12T08:25:09Z</time>
      </trkpt>
      <trkpt lat="47.23566" lon="4.17203">
        <ele>526.94</ele>
        <time>2021-08-12T08:25:10Z</time>
      </trkpt>
      <trkpt lat="47.23556" lon="4.17209">
        <ele>525.98</ele>
        <time>2021-08-12T08:25:11Z</time>
      </trkpt>
      <trkpt lat="47.23547" lon="4.17211">
        <ele>525.5</ele>
        <time>2021-08-12T08:25:12Z</time>
      </trkpt>
      <trkpt lat="47.23537" lon="4.17211">
        <ele>524.54</ele>
        <time>2021-08-12T08:25:13Z</time>
      </trkpt>
      <trkpt lat="47.23527" lon="4.17214">
        <ele>523.58</ele>
        <time>2021-08-12T08:25:14Z</time>
      </trkpt>
      <trkpt lat="47.23519" lon="4.1722">
        <ele>522.61</ele>
        <time>2021-08-12T08:25:15Z</time>
      </trkpt>
      <trkpt lat="47.23514" lon="4.1723">
        <ele>521.65</ele>
        <time>2021-08-12T08:25:16Z</time>
      </trkpt>
      <trkpt lat="47.23512" lon="4.17243">
        <ele>520.69</ele>
        <time>2021-08-12T08:25:17Z</time>
      </trkpt>
      <trkpt lat="47.23513" lon="4.17257">
        <ele>519.73</ele>
        <time>2021-08-12T08:25:18Z</time>
      </trkpt>
      <trkpt lat="47.23514" lon="4.17271">
        <ele>518.77</ele>
        <time>2021-08-12T08:25:19Z</time>
      </trkpt>
      <trkpt lat="47.23514" lon="4.17285">
        <ele>517.81</ele>
        <time>2021-08-12T08:25:20Z</time>
      </trkpt>
      <trkpt lat="47.23512" lon="4.17296">
        <ele>516.85</ele>
        <time>2021-08-12T08:25:21Z</time>
      </trkpt>
      <trkpt lat="47.23508" lon="4.17304">
        <ele>516.37</ele>
        <time>2021-08-12T08:25:22Z</time>
      </trkpt>
      <trkpt lat="47.23505" lon="4.17308">
        <ele>515.88</ele>
        <time>2021-08-12T08:25:23Z</time>
      </trkpt>
      <trkpt lat="47.23503" lon="4.1731">
        <ele>515.4</ele>
        <time>2021-08-12T08:25:24Z</time>
      </trkpt>
      <trkpt lat="47.23501" lon="4.1731">
        <ele>515.4</ele>
        <time>2021-08-12T08:25:25Z</time>
      </trkpt>
      <trkpt lat="47.23498" lon="4.17308">
        <ele>514.92</ele>
        <time>2021-08-12T08:25:26Z</time>
      </trkpt>
      <trkpt lat="47.23496" lon="4.17305">
        <ele>514.92</ele>
        <time>2021-08-12T08:25:27Z</time>
      </trkpt>
      <trkpt lat="47.23493" lon="4.17301">
        <ele>514.92</ele>
        <time>2021-08-12T08:25:28Z</time>
      </trkpt>
      <trkpt lat="47.23486" lon="4.17278">
        <ele>514.92</ele>
        <time>2021-08-12T08:25:33Z</time>
      </trkpt>
      <trkpt lat="47.23485" lon="4.17272">
        <ele>514.44</ele>
        <time>2021-08-12T08:25:34Z</time>
      </trkpt>
      <trkpt lat="47.23478" lon="4.1725">
        <ele>513.96</ele>
        <time>2021-08-12T08:25:37Z</time>
      </trkpt>
      <trkpt lat="47.23476" lon="4.17243">
        <ele>513</ele>
        <time>2021-08-12T08:25:38Z</time>
      </trkpt>
      <trkpt lat="47.23472" lon="4.17236">
        <ele>513</ele>
        <time>2021-08-12T08:25:39Z</time>
      </trkpt>
      <trkpt lat="47.23468" lon="4.1723">
        <ele>512.52</ele>
        <time>2021-08-12T08:25:40Z</time>
      </trkpt>
      <trkpt lat="47.23463" lon="4.17222">
        <ele>512.04</ele>
        <time>2021-08-12T08:25:41Z</time>
      </trkpt>
      <trkpt lat="47.23458" lon="4.17215">
        <ele>511.08</ele>
        <time>2021-08-12T08:25:42Z</time>
      </trkpt>
      <trkpt lat="47.23452" lon="4.17209">
        <ele>511.08</ele>
        <time>2021-08-12T08:25:43Z</time>
      </trkpt>
      <trkpt lat="47.23447" lon="4.17202">
        <ele>510.6</ele>
        <time>2021-08-12T08:25:44Z</time>
      </trkpt>
      <trkpt lat="47.23443" lon="4.17194">
        <ele>509.64</ele>
        <time>2021-08-12T08:25:45Z</time>
      </trkpt>
      <trkpt lat="47.2344" lon="4.17185">
        <ele>509.64</ele>
        <time>2021-08-12T08:25:46Z</time>
      </trkpt>
      <trkpt lat="47.23437" lon="4.17176">
        <ele>509.64</ele>
        <time>2021-08-12T08:25:47Z</time>
      </trkpt>
      <trkpt lat="47.23436" lon="4.17167">
        <ele>509.64</ele>
        <time>2021-08-12T08:25:48Z</time>
      </trkpt>
      <trkpt lat="47.23435" lon="4.17159">
        <ele>509.64</ele>
        <time>2021-08-12T08:25:49Z</time>
      </trkpt>
      <trkpt lat="47.23434" lon="4.17151">
        <ele>508.67</ele>
        <time>2021-08-12T08:25:50Z</time>
      </trkpt>
      <trkpt lat="47.23433" lon="4.17122">
        <ele>507.71</ele>
        <time>2021-08-12T08:25:53Z</time>
      </trkpt>
      <trkpt lat="47.23436" lon="4.17071">
        <ele>507.71</ele>
        <time>2021-08-12T08:25:59Z</time>
      </trkpt>
      <trkpt lat="47.23435" lon="4.17063">
        <ele>507.71</ele>
        <time>2021-08-12T08:26:00Z</time>
      </trkpt>
      <trkpt lat="47.23433" lon="4.17056">
        <ele>507.71</ele>
        <time>2021-08-12T08:26:01Z</time>
      </trkpt>
      <trkpt lat="47.2343" lon="4.1705">
        <ele>506.75</ele>
        <time>2021-08-12T08:26:02Z</time>
      </trkpt>
      <trkpt lat="47.23426" lon="4.17047">
        <ele>506.75</ele>
        <time>2021-08-12T08:26:03Z</time>
      </trkpt>
      <trkpt lat="47.23421" lon="4.17044">
        <ele>506.75</ele>
        <time>2021-08-12T08:26:04Z</time>
      </trkpt>
      <trkpt lat="47.23417" lon="4.17043">
        <ele>506.27</ele>
        <time>2021-08-12T08:26:05Z</time>
      </trkpt>
      <trkpt lat="47.23414" lon="4.17044">
        <ele>506.27</ele>
        <time>2021-08-12T08:26:06Z</time>
      </trkpt>
      <trkpt lat="47.23412" lon="4.17044">
        <ele>506.27</ele>
        <time>2021-08-12T08:26:07Z</time>
      </trkpt>
      <trkpt lat="47.2341" lon="4.17043">
        <ele>506.27</ele>
        <time>2021-08-12T08:26:08Z</time>
      </trkpt>
      <trkpt lat="47.23409" lon="4.17043">
        <ele>506.27</ele>
        <time>2021-08-12T08:26:09Z</time>
      </trkpt>
      <trkpt lat="47.23407" lon="4.17043">
        <ele>506.27</ele>
        <time>2021-08-12T08:26:10Z</time>
      </trkpt>
      <trkpt lat="47.23404" lon="4.17043">
        <ele>506.27</ele>
        <time>2021-08-12T08:26:11Z</time>
      </trkpt>
      <trkpt lat="47.23397" lon="4.17043">
        <ele>505.79</ele>
        <time>2021-08-12T08:26:13Z</time>
      </trkpt>
      <trkpt lat="47.23363" lon="4.17039">
        <ele>505.79</ele>
        <time>2021-08-12T08:26:20Z</time>
      </trkpt>
      <trkpt lat="47.23317" lon="4.17042">
        <ele>503.39</ele>
        <time>2021-08-12T08:26:28Z</time>
      </trkpt>
      <trkpt lat="47.23281" lon="4.17049">
        <ele>502.91</ele>
        <time>2021-08-12T08:26:34Z</time>
      </trkpt>
      <trkpt lat="47.23276" lon="4.17052">
        <ele>502.43</ele>
        <time>2021-08-12T08:26:35Z</time>
      </trkpt>
      <trkpt lat="47.23249" lon="4.17063">
        <ele>503.87</ele>
        <time>2021-08-12T08:26:41Z</time>
      </trkpt>
      <trkpt lat="47.23237" lon="4.17071">
        <ele>504.83</ele>
        <time>2021-08-12T08:26:45Z</time>
      </trkpt>
      <trkpt lat="47.23235" lon="4.17075">
        <ele>504.83</ele>
        <time>2021-08-12T08:26:46Z</time>
      </trkpt>
      <trkpt lat="47.23234" lon="4.17079">
        <ele>504.83</ele>
        <time>2021-08-12T08:26:47Z</time>
      </trkpt>
      <trkpt lat="47.23233" lon="4.17084">
        <ele>504.83</ele>
        <time>2021-08-12T08:26:48Z</time>
      </trkpt>
      <trkpt lat="47.23233" lon="4.1709">
        <ele>503.87</ele>
        <time>2021-08-12T08:26:49Z</time>
      </trkpt>
      <trkpt lat="47.23233" lon="4.17097">
        <ele>503.39</ele>
        <time>2021-08-12T08:26:50Z</time>
      </trkpt>
      <trkpt lat="47.2323" lon="4.17134">
        <ele>502.91</ele>
        <time>2021-08-12T08:26:56Z</time>
      </trkpt>
      <trkpt lat="47.23228" lon="4.17144">
        <ele>504.83</ele>
        <time>2021-08-12T08:26:59Z</time>
      </trkpt>
      <trkpt lat="47.23218" lon="4.17172">
        <ele>505.31</ele>
        <time>2021-08-12T08:27:05Z</time>
      </trkpt>
      <trkpt lat="47.23212" lon="4.17179">
        <ele>503.87</ele>
        <time>2021-08-12T08:27:07Z</time>
      </trkpt>
      <trkpt lat="47.23208" lon="4.17181">
        <ele>503.87</ele>
        <time>2021-08-12T08:27:08Z</time>
      </trkpt>
      <trkpt lat="47.23203" lon="4.1718">
        <ele>503.39</ele>
        <time>2021-08-12T08:27:09Z</time>
      </trkpt>
      <trkpt lat="47.23199" lon="4.17178">
        <ele>502.91</ele>
        <time>2021-08-12T08:27:10Z</time>
      </trkpt>
      <trkpt lat="47.23195" lon="4.17174">
        <ele>501.95</ele>
        <time>2021-08-12T08:27:11Z</time>
      </trkpt>
      <trkpt lat="47.23191" lon="4.1717">
        <ele>501.95</ele>
        <time>2021-08-12T08:27:12Z</time>
      </trkpt>
      <trkpt lat="47.23186" lon="4.17165">
        <ele>500.98</ele>
        <time>2021-08-12T08:27:13Z</time>
      </trkpt>
      <trkpt lat="47.23181" lon="4.17162">
        <ele>500.98</ele>
        <time>2021-08-12T08:27:14Z</time>
      </trkpt>
      <trkpt lat="47.23175" lon="4.17158">
        <ele>500.02</ele>
        <time>2021-08-12T08:27:15Z</time>
      </trkpt>
      <trkpt lat="47.23164" lon="4.17155">
        <ele>499.06</ele>
        <time>2021-08-12T08:27:17Z</time>
      </trkpt>
      <trkpt lat="47.23159" lon="4.17155">
        <ele>498.58</ele>
        <time>2021-08-12T08:27:18Z</time>
      </trkpt>
      <trkpt lat="47.23156" lon="4.17156">
        <ele>498.58</ele>
        <time>2021-08-12T08:27:19Z</time>
      </trkpt>
      <trkpt lat="47.23152" lon="4.17157">
        <ele>497.62</ele>
        <time>2021-08-12T08:27:20Z</time>
      </trkpt>
      <trkpt lat="47.23148" lon="4.17159">
        <ele>496.66</ele>
        <time>2021-08-12T08:27:21Z</time>
      </trkpt>
      <trkpt lat="47.23144" lon="4.17164">
        <ele>495.7</ele>
        <time>2021-08-12T08:27:22Z</time>
      </trkpt>
      <trkpt lat="47.2314" lon="4.17172">
        <ele>495.22</ele>
        <time>2021-08-12T08:27:23Z</time>
      </trkpt>
      <trkpt lat="47.23137" lon="4.17181">
        <ele>493.77</ele>
        <time>2021-08-12T08:27:24Z</time>
      </trkpt>
      <trkpt lat="47.23127" lon="4.17211">
        <ele>491.37</ele>
        <time>2021-08-12T08:27:27Z</time>
      </trkpt>
      <trkpt lat="47.23122" lon="4.17228">
        <ele>489.93</ele>
        <time>2021-08-12T08:27:29Z</time>
      </trkpt>
      <trkpt lat="47.23119" lon="4.17236">
        <ele>488.97</ele>
        <time>2021-08-12T08:27:30Z</time>
      </trkpt>
      <trkpt lat="47.23112" lon="4.17251">
        <ele>488.01</ele>
        <time>2021-08-12T08:27:32Z</time>
      </trkpt>
      <trkpt lat="47.23109" lon="4.17255">
        <ele>487.05</ele>
        <time>2021-08-12T08:27:33Z</time>
      </trkpt>
      <trkpt lat="47.23105" lon="4.17255">
        <ele>486.08</ele>
        <time>2021-08-12T08:27:34Z</time>
      </trkpt>
      <trkpt lat="47.23102" lon="4.17252">
        <ele>485.6</ele>
        <time>2021-08-12T08:27:35Z</time>
      </trkpt>
      <trkpt lat="47.23099" lon="4.17251">
        <ele>485.6</ele>
        <time>2021-08-12T08:27:36Z</time>
      </trkpt>
      <trkpt lat="47.23098" lon="4.17249">
        <ele>485.12</ele>
        <time>2021-08-12T08:27:37Z</time>
      </trkpt>
      <trkpt lat="47.23097" lon="4.17248">
        <ele>485.12</ele>
        <time>2021-08-12T08:27:38Z</time>
      </trkpt>
      <trkpt lat="47.23095" lon="4.17246">
        <ele>485.12</ele>
        <time>2021-08-12T08:27:39Z</time>
      </trkpt>
      <trkpt lat="47.23093" lon="4.17245">
        <ele>484.16</ele>
        <time>2021-08-12T08:27:40Z</time>
      </trkpt>
      <trkpt lat="47.23092" lon="4.17244">
        <ele>484.16</ele>
        <time>2021-08-12T08:27:41Z</time>
      </trkpt>
      <trkpt lat="47.23091" lon="4.17242">
        <ele>484.16</ele>
        <time>2021-08-12T08:27:42Z</time>
      </trkpt>
      <trkpt lat="47.23089" lon="4.17241">
        <ele>484.16</ele>
        <time>2021-08-12T08:27:43Z</time>
      </trkpt>
      <trkpt lat="47.23086" lon="4.17237">
        <ele>485.6</ele>
        <time>2021-08-12T08:27:48Z</time>
      </trkpt>
      <trkpt lat="47.23081" lon="4.17228">
        <ele>485.6</ele>
        <time>2021-08-12T08:27:56Z</time>
      </trkpt>
      <trkpt lat="47.23076" lon="4.17217">
        <ele>485.6</ele>
        <time>2021-08-12T08:28:05Z</time>
      </trkpt>
      <trkpt lat="47.23072" lon="4.17209">
        <ele>485.6</ele>
        <time>2021-08-12T08:28:13Z</time>
      </trkpt>
      <trkpt lat="47.23069" lon="4.17204">
        <ele>485.6</ele>
        <time>2021-08-12T08:28:16Z</time>
      </trkpt>
      <trkpt lat="47.23063" lon="4.17195">
        <ele>486.08</ele>
        <time>2021-08-12T08:28:22Z</time>
      </trkpt>
      <trkpt lat="47.23056" lon="4.17192">
        <ele>487.05</ele>
        <time>2021-08-12T08:28:29Z</time>
      </trkpt>
      <trkpt lat="47.23048" lon="4.17195">
        <ele>488.01</ele>
        <time>2021-08-12T08:28:36Z</time>
      </trkpt>
      <trkpt lat="47.23038" lon="4.17199">
        <ele>488.49</ele>
        <time>2021-08-12T08:28:44Z</time>
      </trkpt>
      <trkpt lat="47.23032" lon="4.17204">
        <ele>489.45</ele>
        <time>2021-08-12T08:28:49Z</time>
      </trkpt>
      <trkpt lat="47.23031" lon="4.17205">
        <ele>489.45</ele>
        <time>2021-08-12T08:28:50Z</time>
      </trkpt>
      <trkpt lat="47.23029" lon="4.17207">
        <ele>489.45</ele>
        <time>2021-08-12T08:28:51Z</time>
      </trkpt>
      <trkpt lat="47.23021" lon="4.17216">
        <ele>488.97</ele>
        <time>2021-08-12T08:28:56Z</time>
      </trkpt>
      <trkpt lat="47.23003" lon="4.17249">
        <ele>487.53</ele>
        <time>2021-08-12T08:29:02Z</time>
      </trkpt>
      <trkpt lat="47.22991" lon="4.17269">
        <ele>488.97</ele>
        <time>2021-08-12T08:29:08Z</time>
      </trkpt>
      <trkpt lat="47.22984" lon="4.17288">
        <ele>489.45</ele>
        <time>2021-08-12T08:29:15Z</time>
      </trkpt>
      <trkpt lat="47.22978" lon="4.17326">
        <ele>490.41</ele>
        <time>2021-08-12T08:29:23Z</time>
      </trkpt>
      <trkpt lat="47.22982" lon="4.17359">
        <ele>490.41</ele>
        <time>2021-08-12T08:29:30Z</time>
      </trkpt>
      <trkpt lat="47.22986" lon="4.17371">
        <ele>490.41</ele>
        <time>2021-08-12T08:29:32Z</time>
      </trkpt>
      <trkpt lat="47.22987" lon="4.17377">
        <ele>490.41</ele>
        <time>2021-08-12T08:29:33Z</time>
      </trkpt>
      <trkpt lat="47.22987" lon="4.17383">
        <ele>489.93</ele>
        <time>2021-08-12T08:29:34Z</time>
      </trkpt>
      <trkpt lat="47.22987" lon="4.1739">
        <ele>489.93</ele>
        <time>2021-08-12T08:29:35Z</time>
      </trkpt>
      <trkpt lat="47.22986" lon="4.17397">
        <ele>489.93</ele>
        <time>2021-08-12T08:29:36Z</time>
      </trkpt>
      <trkpt lat="47.22983" lon="4.17404">
        <ele>488.97</ele>
        <time>2021-08-12T08:29:37Z</time>
      </trkpt>
      <trkpt lat="47.2298" lon="4.17409">
        <ele>488.97</ele>
        <time>2021-08-12T08:29:38Z</time>
      </trkpt>
      <trkpt lat="47.22977" lon="4.17415">
        <ele>488.01</ele>
        <time>2021-08-12T08:29:39Z</time>
      </trkpt>
      <trkpt lat="47.22973" lon="4.17419">
        <ele>488.01</ele>
        <time>2021-08-12T08:29:40Z</time>
      </trkpt>
      <trkpt lat="47.22968" lon="4.17422">
        <ele>488.01</ele>
        <time>2021-08-12T08:29:41Z</time>
      </trkpt>
      <trkpt lat="47.22964" lon="4.17424">
        <ele>488.01</ele>
        <time>2021-08-12T08:29:42Z</time>
      </trkpt>
      <trkpt lat="47.22959" lon="4.17425">
        <ele>488.01</ele>
        <time>2021-08-12T08:29:43Z</time>
      </trkpt>
      <trkpt lat="47.22954" lon="4.17426">
        <ele>487.53</ele>
        <time>2021-08-12T08:29:44Z</time>
      </trkpt>
      <trkpt lat="47.22949" lon="4.17425">
        <ele>487.53</ele>
        <time>2021-08-12T08:29:45Z</time>
      </trkpt>
      <trkpt lat="47.22944" lon="4.17424">
        <ele>487.53</ele>
        <time>2021-08-12T08:29:46Z</time>
      </trkpt>
      <trkpt lat="47.22939" lon="4.17422">
        <ele>487.53</ele>
        <time>2021-08-12T08:29:47Z</time>
      </trkpt>
      <trkpt lat="47.22929" lon="4.17418">
        <ele>487.05</ele>
        <time>2021-08-12T08:29:49Z</time>
      </trkpt>
      <trkpt lat="47.22901" lon="4.17405">
        <ele>485.12</ele>
        <time>2021-08-12T08:29:54Z</time>
      </trkpt>
      <trkpt lat="47.22895" lon="4.17403">
        <ele>484.64</ele>
        <time>2021-08-12T08:29:55Z</time>
      </trkpt>
      <trkpt lat="47.22889" lon="4.17399">
        <ele>484.64</ele>
        <time>2021-08-12T08:29:56Z</time>
      </trkpt>
      <trkpt lat="47.2284" lon="4.17367">
        <ele>481.28</ele>
        <time>2021-08-12T08:30:03Z</time>
      </trkpt>
      <trkpt lat="47.22832" lon="4.17363">
        <ele>480.8</ele>
        <time>2021-08-12T08:30:04Z</time>
      </trkpt>
      <trkpt lat="47.22824" lon="4.17362">
        <ele>479.84</ele>
        <time>2021-08-12T08:30:05Z</time>
      </trkpt>
      <trkpt lat="47.22816" lon="4.17365">
        <ele>478.87</ele>
        <time>2021-08-12T08:30:06Z</time>
      </trkpt>
      <trkpt lat="47.22809" lon="4.1737">
        <ele>478.87</ele>
        <time>2021-08-12T08:30:07Z</time>
      </trkpt>
      <trkpt lat="47.22803" lon="4.17378">
        <ele>477.91</ele>
        <time>2021-08-12T08:30:08Z</time>
      </trkpt>
      <trkpt lat="47.22798" lon="4.17384">
        <ele>477.43</ele>
        <time>2021-08-12T08:30:09Z</time>
      </trkpt>
      <trkpt lat="47.22791" lon="4.1739">
        <ele>477.43</ele>
        <time>2021-08-12T08:30:10Z</time>
      </trkpt>
      <trkpt lat="47.22785" lon="4.17392">
        <ele>477.43</ele>
        <time>2021-08-12T08:30:11Z</time>
      </trkpt>
      <trkpt lat="47.2278" lon="4.17392">
        <ele>477.43</ele>
        <time>2021-08-12T08:30:12Z</time>
      </trkpt>
      <trkpt lat="47.22774" lon="4.17392">
        <ele>477.43</ele>
        <time>2021-08-12T08:30:13Z</time>
      </trkpt>
      <trkpt lat="47.22721" lon="4.17395">
        <ele>476.95</ele>
        <time>2021-08-12T08:30:22Z</time>
      </trkpt>
      <trkpt lat="47.2271" lon="4.17397">
        <ele>476.47</ele>
        <time>2021-08-12T08:30:24Z</time>
      </trkpt>
      <trkpt lat="47.22704" lon="4.17399">
        <ele>476.47</ele>
        <time>2021-08-12T08:30:25Z</time>
      </trkpt>
      <trkpt lat="47.22699" lon="4.17401">
        <ele>476.47</ele>
        <time>2021-08-12T08:30:26Z</time>
      </trkpt>
      <trkpt lat="47.22688" lon="4.1741">
        <ele>476.47</ele>
        <time>2021-08-12T08:30:28Z</time>
      </trkpt>
      <trkpt lat="47.22684" lon="4.17414">
        <ele>476.47</ele>
        <time>2021-08-12T08:30:29Z</time>
      </trkpt>
      <trkpt lat="47.22679" lon="4.17421">
        <ele>476.47</ele>
        <time>2021-08-12T08:30:30Z</time>
      </trkpt>
      <trkpt lat="47.22674" lon="4.17426">
        <ele>476.47</ele>
        <time>2021-08-12T08:30:31Z</time>
      </trkpt>
      <trkpt lat="47.2267" lon="4.17433">
        <ele>476.47</ele>
        <time>2021-08-12T08:30:32Z</time>
      </trkpt>
      <trkpt lat="47.22634" lon="4.17481">
        <ele>475.51</ele>
        <time>2021-08-12T08:30:40Z</time>
      </trkpt>
      <trkpt lat="47.22606" lon="4.17501">
        <ele>474.55</ele>
        <time>2021-08-12T08:30:45Z</time>
      </trkpt>
      <trkpt lat="47.22553" lon="4.17531">
        <ele>473.59</ele>
        <time>2021-08-12T08:30:54Z</time>
      </trkpt>
      <trkpt lat="47.22488" lon="4.17563">
        <ele>474.55</ele>
        <time>2021-08-12T08:31:05Z</time>
      </trkpt>
      <trkpt lat="47.22428" lon="4.17583">
        <ele>474.55</ele>
        <time>2021-08-12T08:31:15Z</time>
      </trkpt>
      <trkpt lat="47.22389" lon="4.17601">
        <ele>474.55</ele>
        <time>2021-08-12T08:31:22Z</time>
      </trkpt>
      <trkpt lat="47.22355" lon="4.17636">
        <ele>474.55</ele>
        <time>2021-08-12T08:31:29Z</time>
      </trkpt>
      <trkpt lat="47.2234" lon="4.17648">
        <ele>474.55</ele>
        <time>2021-08-12T08:31:32Z</time>
      </trkpt>
      <trkpt lat="47.22308" lon="4.17659">
        <ele>474.55</ele>
        <time>2021-08-12T08:31:38Z</time>
      </trkpt>
      <trkpt lat="47.22303" lon="4.17659">
        <ele>474.55</ele>
        <time>2021-08-12T08:31:39Z</time>
      </trkpt>
      <trkpt lat="47.22279" lon="4.17659">
        <ele>475.03</ele>
        <time>2021-08-12T08:31:44Z</time>
      </trkpt>
      <trkpt lat="47.22275" lon="4.17661">
        <ele>475.03</ele>
        <time>2021-08-12T08:31:45Z</time>
      </trkpt>
      <trkpt lat="47.22267" lon="4.17667">
        <ele>475.03</ele>
        <time>2021-08-12T08:31:47Z</time>
      </trkpt>
      <trkpt lat="47.22262" lon="4.1767">
        <ele>474.07</ele>
        <time>2021-08-12T08:31:48Z</time>
      </trkpt>
      <trkpt lat="47.22257" lon="4.17674">
        <ele>473.59</ele>
        <time>2021-08-12T08:31:49Z</time>
      </trkpt>
      <trkpt lat="47.22252" lon="4.17675">
        <ele>473.59</ele>
        <time>2021-08-12T08:31:50Z</time>
      </trkpt>
      <trkpt lat="47.22246" lon="4.17673">
        <ele>472.63</ele>
        <time>2021-08-12T08:31:51Z</time>
      </trkpt>
      <trkpt lat="47.2224" lon="4.1767">
        <ele>472.14</ele>
        <time>2021-08-12T08:31:52Z</time>
      </trkpt>
      <trkpt lat="47.22234" lon="4.17666">
        <ele>472.14</ele>
        <time>2021-08-12T08:31:53Z</time>
      </trkpt>
      <trkpt lat="47.22218" lon="4.17657">
        <ele>471.66</ele>
        <time>2021-08-12T08:31:56Z</time>
      </trkpt>
      <trkpt lat="47.22213" lon="4.17655">
        <ele>471.66</ele>
        <time>2021-08-12T08:31:57Z</time>
      </trkpt>
      <trkpt lat="47.22207" lon="4.17652">
        <ele>471.18</ele>
        <time>2021-08-12T08:31:58Z</time>
      </trkpt>
      <trkpt lat="47.22168" lon="4.17636">
        <ele>470.22</ele>
        <time>2021-08-12T08:32:05Z</time>
      </trkpt>
      <trkpt lat="47.22128" lon="4.17619">
        <ele>470.22</ele>
        <time>2021-08-12T08:32:12Z</time>
      </trkpt>
      <trkpt lat="47.22093" lon="4.17606">
        <ele>469.74</ele>
        <time>2021-08-12T08:32:18Z</time>
      </trkpt>
      <trkpt lat="47.22074" lon="4.17598">
        <ele>469.26</ele>
        <time>2021-08-12T08:32:21Z</time>
      </trkpt>
      <trkpt lat="47.22069" lon="4.17596">
        <ele>468.3</ele>
        <time>2021-08-12T08:32:22Z</time>
      </trkpt>
      <trkpt lat="47.2202" lon="4.17579">
        <ele>468.3</ele>
        <time>2021-08-12T08:32:30Z</time>
      </trkpt>
      <trkpt lat="47.21972" lon="4.1758">
        <ele>468.3</ele>
        <time>2021-08-12T08:32:38Z</time>
      </trkpt>
      <trkpt lat="47.21948" lon="4.17584">
        <ele>468.3</ele>
        <time>2021-08-12T08:32:42Z</time>
      </trkpt>
      <trkpt lat="47.21908" lon="4.17602">
        <ele>468.3</ele>
        <time>2021-08-12T08:32:49Z</time>
      </trkpt>
      <trkpt lat="47.21862" lon="4.17635">
        <ele>468.3</ele>
        <time>2021-08-12T08:32:58Z</time>
      </trkpt>
      <trkpt lat="47.21819" lon="4.17664">
        <ele>468.3</ele>
        <time>2021-08-12T08:33:07Z</time>
      </trkpt>
      <trkpt lat="47.21815" lon="4.17666">
        <ele>468.3</ele>
        <time>2021-08-12T08:33:08Z</time>
      </trkpt>
      <trkpt lat="47.21802" lon="4.17672">
        <ele>468.3</ele>
        <time>2021-08-12T08:33:11Z</time>
      </trkpt>
      <trkpt lat="47.21798" lon="4.17674">
        <ele>468.3</ele>
        <time>2021-08-12T08:33:12Z</time>
      </trkpt>
      <trkpt lat="47.21793" lon="4.17675">
        <ele>468.3</ele>
        <time>2021-08-12T08:33:13Z</time>
      </trkpt>
      <trkpt lat="47.21788" lon="4.17677">
        <ele>468.3</ele>
        <time>2021-08-12T08:33:14Z</time>
      </trkpt>
      <trkpt lat="47.21783" lon="4.17679">
        <ele>468.3</ele>
        <time>2021-08-12T08:33:15Z</time>
      </trkpt>
      <trkpt lat="47.21767" lon="4.17682">
        <ele>468.3</ele>
        <time>2021-08-12T08:33:18Z</time>
      </trkpt>
      <trkpt lat="47.21761" lon="4.17683">
        <ele>468.3</ele>
        <time>2021-08-12T08:33:19Z</time>
      </trkpt>
      <trkpt lat="47.21717" lon="4.1768">
        <ele>467.34</ele>
        <time>2021-08-12T08:33:27Z</time>
      </trkpt>
      <trkpt lat="47.21663" lon="4.17672">
        <ele>467.34</ele>
        <time>2021-08-12T08:33:37Z</time>
      </trkpt>
      <trkpt lat="47.21647" lon="4.17673">
        <ele>467.34</ele>
        <time>2021-08-12T08:33:40Z</time>
      </trkpt>
      <trkpt lat="47.216" lon="4.17681">
        <ele>467.34</ele>
        <time>2021-08-12T08:33:49Z</time>
      </trkpt>
      <trkpt lat="47.21549" lon="4.17691">
        <ele>467.34</ele>
        <time>2021-08-12T08:33:59Z</time>
      </trkpt>
      <trkpt lat="47.21493" lon="4.17702">
        <ele>467.34</ele>
        <time>2021-08-12T08:34:10Z</time>
      </trkpt>
      <trkpt lat="47.2144" lon="4.17713">
        <ele>467.34</ele>
        <time>2021-08-12T08:34:20Z</time>
      </trkpt>
      <trkpt lat="47.21384" lon="4.17724">
        <ele>467.34</ele>
        <time>2021-08-12T08:34:31Z</time>
      </trkpt>
      <trkpt lat="47.21344" lon="4.17735">
        <ele>466.38</ele>
        <time>2021-08-12T08:34:39Z</time>
      </trkpt>
      <trkpt lat="47.21339" lon="4.17737">
        <ele>466.38</ele>
        <time>2021-08-12T08:34:40Z</time>
      </trkpt>
      <trkpt lat="47.21315" lon="4.17746">
        <ele>466.38</ele>
        <time>2021-08-12T08:34:45Z</time>
      </trkpt>
      <trkpt lat="47.21281" lon="4.17764">
        <ele>465.9</ele>
        <time>2021-08-12T08:34:52Z</time>
      </trkpt>
      <trkpt lat="47.21241" lon="4.17785">
        <ele>465.9</ele>
        <time>2021-08-12T08:35:00Z</time>
      </trkpt>
      <trkpt lat="47.21207" lon="4.17799">
        <ele>465.9</ele>
        <time>2021-08-12T08:35:07Z</time>
      </trkpt>
      <trkpt lat="47.21162" lon="4.17803">
        <ele>465.42</ele>
        <time>2021-08-12T08:35:15Z</time>
      </trkpt>
      <trkpt lat="47.21131" lon="4.17795">
        <ele>465.42</ele>
        <time>2021-08-12T08:35:21Z</time>
      </trkpt>
      <trkpt lat="47.21101" lon="4.17779">
        <ele>464.45</ele>
        <time>2021-08-12T08:35:27Z</time>
      </trkpt>
      <trkpt lat="47.21083" lon="4.17766">
        <ele>464.45</ele>
        <time>2021-08-12T08:35:31Z</time>
      </trkpt>
      <trkpt lat="47.21079" lon="4.17763">
        <ele>464.45</ele>
        <time>2021-08-12T08:35:32Z</time>
      </trkpt>
      <trkpt lat="47.21075" lon="4.17759">
        <ele>464.45</ele>
        <time>2021-08-12T08:35:33Z</time>
      </trkpt>
      <trkpt lat="47.2105" lon="4.17737">
        <ele>463.97</ele>
        <time>2021-08-12T08:35:39Z</time>
      </trkpt>
      <trkpt lat="47.2103" lon="4.17718">
        <ele>463.49</ele>
        <time>2021-08-12T08:35:43Z</time>
      </trkpt>
      <trkpt lat="47.2102" lon="4.1771">
        <ele>463.49</ele>
        <time>2021-08-12T08:35:45Z</time>
      </trkpt>
      <trkpt lat="47.20985" lon="4.17678">
        <ele>463.49</ele>
        <time>2021-08-12T08:35:52Z</time>
      </trkpt>
      <trkpt lat="47.20945" lon="4.1764">
        <ele>462.53</ele>
        <time>2021-08-12T08:36:00Z</time>
      </trkpt>
      <trkpt lat="47.209" lon="4.17601">
        <ele>462.53</ele>
        <time>2021-08-12T08:36:09Z</time>
      </trkpt>
      <trkpt lat="47.20891" lon="4.17592">
        <ele>462.53</ele>
        <time>2021-08-12T08:36:11Z</time>
      </trkpt>
      <trkpt lat="47.20886" lon="4.17587">
        <ele>462.53</ele>
        <time>2021-08-12T08:36:12Z</time>
      </trkpt>
      <trkpt lat="47.2085" lon="4.17555">
        <ele>462.53</ele>
        <time>2021-08-12T08:36:20Z</time>
      </trkpt>
      <trkpt lat="47.20815" lon="4.17524">
        <ele>463.49</ele>
        <time>2021-08-12T08:36:28Z</time>
      </trkpt>
      <trkpt lat="47.208" lon="4.17511">
        <ele>464.45</ele>
        <time>2021-08-12T08:36:32Z</time>
      </trkpt>
      <trkpt lat="47.20797" lon="4.17507">
        <ele>464.45</ele>
        <time>2021-08-12T08:36:33Z</time>
      </trkpt>
      <trkpt lat="47.20794" lon="4.17503">
        <ele>464.93</ele>
        <time>2021-08-12T08:36:34Z</time>
      </trkpt>
      <trkpt lat="47.20787" lon="4.17498">
        <ele>464.93</ele>
        <time>2021-08-12T08:36:36Z</time>
      </trkpt>
      <trkpt lat="47.20783" lon="4.17495">
        <ele>464.93</ele>
        <time>2021-08-12T08:36:37Z</time>
      </trkpt>
      <trkpt lat="47.20779" lon="4.17493">
        <ele>464.93</ele>
        <time>2021-08-12T08:36:38Z</time>
      </trkpt>
      <trkpt lat="47.20746" lon="4.17485">
        <ele>464.93</ele>
        <time>2021-08-12T08:36:45Z</time>
      </trkpt>
      <trkpt lat="47.20719" lon="4.17477">
        <ele>463.49</ele>
        <time>2021-08-12T08:36:50Z</time>
      </trkpt>
      <trkpt lat="47.20713" lon="4.17475">
        <ele>463.49</ele>
        <time>2021-08-12T08:36:51Z</time>
      </trkpt>
      <trkpt lat="47.20648" lon="4.17456">
        <ele>463.01</ele>
        <time>2021-08-12T08:37:02Z</time>
      </trkpt>
      <trkpt lat="47.20605" lon="4.17454">
        <ele>463.01</ele>
        <time>2021-08-12T08:37:09Z</time>
      </trkpt>
      <trkpt lat="47.20556" lon="4.1747">
        <ele>462.53</ele>
        <time>2021-08-12T08:37:18Z</time>
      </trkpt>
      <trkpt lat="47.20508" lon="4.1749">
        <ele>462.05</ele>
        <time>2021-08-12T08:37:27Z</time>
      </trkpt>
      <trkpt lat="47.20454" lon="4.17513">
        <ele>463.49</ele>
        <time>2021-08-12T08:37:37Z</time>
      </trkpt>
      <trkpt lat="47.20405" lon="4.17533">
        <ele>464.45</ele>
        <time>2021-08-12T08:37:46Z</time>
      </trkpt>
      <trkpt lat="47.20377" lon="4.17542">
        <ele>464.93</ele>
        <time>2021-08-12T08:37:52Z</time>
      </trkpt>
      <trkpt lat="47.20372" lon="4.17544">
        <ele>464.93</ele>
        <time>2021-08-12T08:37:53Z</time>
      </trkpt>
      <trkpt lat="47.20333" lon="4.1756">
        <ele>465.9</ele>
        <time>2021-08-12T08:38:01Z</time>
      </trkpt>
      <trkpt lat="47.2031" lon="4.17569">
        <ele>466.38</ele>
        <time>2021-08-12T08:38:06Z</time>
      </trkpt>
      <trkpt lat="47.20305" lon="4.17572">
        <ele>466.86</ele>
        <time>2021-08-12T08:38:07Z</time>
      </trkpt>
      <trkpt lat="47.20301" lon="4.17573">
        <ele>466.86</ele>
        <time>2021-08-12T08:38:08Z</time>
      </trkpt>
      <trkpt lat="47.20254" lon="4.17591">
        <ele>468.78</ele>
        <time>2021-08-12T08:38:19Z</time>
      </trkpt>
      <trkpt lat="47.20213" lon="4.17606">
        <ele>469.74</ele>
        <time>2021-08-12T08:38:28Z</time>
      </trkpt>
      <trkpt lat="47.20192" lon="4.17614">
        <ele>468.3</ele>
        <time>2021-08-12T08:38:32Z</time>
      </trkpt>
      <trkpt lat="47.20144" lon="4.17643">
        <ele>467.82</ele>
        <time>2021-08-12T08:38:41Z</time>
      </trkpt>
      <trkpt lat="47.20139" lon="4.17646">
        <ele>467.82</ele>
        <time>2021-08-12T08:38:42Z</time>
      </trkpt>
      <trkpt lat="47.20134" lon="4.17648">
        <ele>467.82</ele>
        <time>2021-08-12T08:38:43Z</time>
      </trkpt>
      <trkpt lat="47.20129" lon="4.1765">
        <ele>467.82</ele>
        <time>2021-08-12T08:38:44Z</time>
      </trkpt>
      <trkpt lat="47.20124" lon="4.17652">
        <ele>467.82</ele>
        <time>2021-08-12T08:38:45Z</time>
      </trkpt>
      <trkpt lat="47.20119" lon="4.17653">
        <ele>467.82</ele>
        <time>2021-08-12T08:38:46Z</time>
      </trkpt>
      <trkpt lat="47.20074" lon="4.17667">
        <ele>467.82</ele>
        <time>2021-08-12T08:38:55Z</time>
      </trkpt>
      <trkpt lat="47.20059" lon="4.17669">
        <ele>466.38</ele>
        <time>2021-08-12T08:38:58Z</time>
      </trkpt>
      <trkpt lat="47.20056" lon="4.17668">
        <ele>466.38</ele>
        <time>2021-08-12T08:38:59Z</time>
      </trkpt>
      <trkpt lat="47.20054" lon="4.17665">
        <ele>466.38</ele>
        <time>2021-08-12T08:39:00Z</time>
      </trkpt>
      <trkpt lat="47.20056" lon="4.17661">
        <ele>466.38</ele>
        <time>2021-08-12T08:39:03Z</time>
      </trkpt>
      <trkpt lat="47.20056" lon="4.17662">
        <ele>466.38</ele>
        <time>2021-08-12T08:39:11Z</time>
      </trkpt>
      <trkpt lat="47.20055" lon="4.17666">
        <ele>466.38</ele>
        <time>2021-08-12T08:39:25Z</time>
      </trkpt>
      <trkpt lat="47.20055" lon="4.17667">
        <ele>466.38</ele>
        <time>2021-08-12T08:39:47Z</time>
      </trkpt>
      <trkpt lat="47.20054" lon="4.17668">
        <ele>466.38</ele>
        <time>2021-08-12T08:39:57Z</time>
      </trkpt>
      <trkpt lat="47.20053" lon="4.1767">
        <ele>466.38</ele>
        <time>2021-08-12T08:40:15Z</time>
      </trkpt>
      <trkpt lat="47.20053" lon="4.17671">
        <ele>466.38</ele>
        <time>2021-08-12T08:40:29Z</time>
      </trkpt>
      <trkpt lat="47.20052" lon="4.17671">
        <ele>466.38</ele>
        <time>2021-08-12T08:40:43Z</time>
      </trkpt>
      <trkpt lat="47.20051" lon="4.17671">
        <ele>466.38</ele>
        <time>2021-08-12T08:40:44Z</time>
      </trkpt>
      <trkpt lat="47.20041" lon="4.17671">
        <ele>465.9</ele>
        <time>2021-08-12T08:40:55Z</time>
      </trkpt>
      <trkpt lat="47.20041" lon="4.17671">
        <ele>465.9</ele>
        <time>2021-08-12T08:40:56Z</time>
      </trkpt>
      <trkpt lat="47.20037" lon="4.17672">
        <ele>465.42</ele>
        <time>2021-08-12T08:40:58Z</time>
      </trkpt>
      <trkpt lat="47.20034" lon="4.17673">
        <ele>465.42</ele>
        <time>2021-08-12T08:40:59Z</time>
      </trkpt>
      <trkpt lat="47.20032" lon="4.17675">
        <ele>465.42</ele>
        <time>2021-08-12T08:41:00Z</time>
      </trkpt>
      <trkpt lat="47.20029" lon="4.17678">
        <ele>464.45</ele>
        <time>2021-08-12T08:41:01Z</time>
      </trkpt>
      <trkpt lat="47.20027" lon="4.17681">
        <ele>464.45</ele>
        <time>2021-08-12T08:41:02Z</time>
      </trkpt>
      <trkpt lat="47.20025" lon="4.17684">
        <ele>463.97</ele>
        <time>2021-08-12T08:41:03Z</time>
      </trkpt>
      <trkpt lat="47.20022" lon="4.17687">
        <ele>463.49</ele>
        <time>2021-08-12T08:41:04Z</time>
      </trkpt>
      <trkpt lat="47.20014" lon="4.17702">
        <ele>462.53</ele>
        <time>2021-08-12T08:41:09Z</time>
      </trkpt>
      <trkpt lat="47.20016" lon="4.17708">
        <ele>462.53</ele>
        <time>2021-08-12T08:41:15Z</time>
      </trkpt>
      <trkpt lat="47.20015" lon="4.17707">
        <ele>462.53</ele>
        <time>2021-08-12T08:41:27Z</time>
      </trkpt>
      <trkpt lat="47.20015" lon="4.17708">
        <ele>462.53</ele>
        <time>2021-08-12T08:41:41Z</time>
      </trkpt>
      <trkpt lat="47.20016" lon="4.1771">
        <ele>462.53</ele>
        <time>2021-08-12T08:41:58Z</time>
      </trkpt>
      <trkpt lat="47.20016" lon="4.17709">
        <ele>462.53</ele>
        <time>2021-08-12T08:42:15Z</time>
      </trkpt>
      <trkpt lat="47.20016" lon="4.17706">
        <ele>462.53</ele>
        <time>2021-08-12T08:42:27Z</time>
      </trkpt>
      <trkpt lat="47.20015" lon="4.17703">
        <ele>462.53</ele>
        <time>2021-08-12T08:42:33Z</time>
      </trkpt>
      <trkpt lat="47.20014" lon="4.17701">
        <ele>462.53</ele>
        <time>2021-08-12T08:42:34Z</time>
      </trkpt>
      <trkpt lat="47.20012" lon="4.17699">
        <ele>462.53</ele>
        <time>2021-08-12T08:42:35Z</time>
      </trkpt>
      <trkpt lat="47.20009" lon="4.17699">
        <ele>462.53</ele>
        <time>2021-08-12T08:42:36Z</time>
      </trkpt>
      <trkpt lat="47.20007" lon="4.17701">
        <ele>462.53</ele>
        <time>2021-08-12T08:42:37Z</time>
      </trkpt>
      <trkpt lat="47.20004" lon="4.17702">
        <ele>462.05</ele>
        <time>2021-08-12T08:42:38Z</time>
      </trkpt>
      <trkpt lat="47.20001" lon="4.17705">
        <ele>462.05</ele>
        <time>2021-08-12T08:42:39Z</time>
      </trkpt>
      <trkpt lat="47.19981" lon="4.17717">
        <ele>461.09</ele>
        <time>2021-08-12T08:42:47Z</time>
      </trkpt>
      <trkpt lat="47.1996" lon="4.17717">
        <ele>461.09</ele>
        <time>2021-08-12T08:42:55Z</time>
      </trkpt>
      <trkpt lat="47.19931" lon="4.17706">
        <ele>461.09</ele>
        <time>2021-08-12T08:43:03Z</time>
      </trkpt>
      <trkpt lat="47.19905" lon="4.17694">
        <ele>462.53</ele>
        <time>2021-08-12T08:43:12Z</time>
      </trkpt>
      <trkpt lat="47.19897" lon="4.17679">
        <ele>463.49</ele>
        <time>2021-08-12T08:43:17Z</time>
      </trkpt>
      <trkpt lat="47.19898" lon="4.17675">
        <ele>463.49</ele>
        <time>2021-08-12T08:43:18Z</time>
      </trkpt>
      <trkpt lat="47.19899" lon="4.17672">
        <ele>463.49</ele>
        <time>2021-08-12T08:43:19Z</time>
      </trkpt>
      <trkpt lat="47.199" lon="4.1767">
        <ele>463.97</ele>
        <time>2021-08-12T08:43:20Z</time>
      </trkpt>
      <trkpt lat="47.19902" lon="4.17668">
        <ele>463.97</ele>
        <time>2021-08-12T08:43:21Z</time>
      </trkpt>
      <trkpt lat="47.19904" lon="4.17667">
        <ele>463.97</ele>
        <time>2021-08-12T08:43:22Z</time>
      </trkpt>
      <trkpt lat="47.19904" lon="4.17663">
        <ele>463.97</ele>
        <time>2021-08-12T08:43:27Z</time>
      </trkpt>
      <trkpt lat="47.19903" lon="4.17662">
        <ele>464.45</ele>
        <time>2021-08-12T08:43:44Z</time>
      </trkpt>
      <trkpt lat="47.19901" lon="4.17663">
        <ele>464.45</ele>
        <time>2021-08-12T08:44:04Z</time>
      </trkpt>
      <trkpt lat="47.19899" lon="4.17664">
        <ele>464.45</ele>
        <time>2021-08-12T08:44:16Z</time>
      </trkpt>
      <trkpt lat="47.19895" lon="4.17666">
        <ele>464.45</ele>
        <time>2021-08-12T08:44:35Z</time>
      </trkpt>
      <trkpt lat="47.19892" lon="4.17667">
        <ele>464.45</ele>
        <time>2021-08-12T08:44:51Z</time>
      </trkpt>
      <trkpt lat="47.19892" lon="4.17669">
        <ele>464.45</ele>
        <time>2021-08-12T08:45:00Z</time>
      </trkpt>
      <trkpt lat="47.19891" lon="4.1767">
        <ele>464.45</ele>
        <time>2021-08-12T08:45:18Z</time>
      </trkpt>
      <trkpt lat="47.19893" lon="4.17672">
        <ele>464.45</ele>
        <time>2021-08-12T08:45:36Z</time>
      </trkpt>
      <trkpt lat="47.19894" lon="4.17678">
        <ele>464.45</ele>
        <time>2021-08-12T08:46:00Z</time>
      </trkpt>
      <trkpt lat="47.19892" lon="4.17676">
        <ele>464.45</ele>
        <time>2021-08-12T08:46:15Z</time>
      </trkpt>
      <trkpt lat="47.19892" lon="4.17672">
        <ele>464.45</ele>
        <time>2021-08-12T08:46:28Z</time>
      </trkpt>
      <trkpt lat="47.19895" lon="4.17668">
        <ele>464.45</ele>
        <time>2021-08-12T08:46:45Z</time>
      </trkpt>
      <trkpt lat="47.19897" lon="4.17668">
        <ele>464.45</ele>
        <time>2021-08-12T08:46:51Z</time>
      </trkpt>
      <trkpt lat="47.19896" lon="4.17672">
        <ele>464.45</ele>
        <time>2021-08-12T08:46:54Z</time>
      </trkpt>
      <trkpt lat="47.19896" lon="4.17673">
        <ele>464.45</ele>
        <time>2021-08-12T08:46:55Z</time>
      </trkpt>
      <trkpt lat="47.19889" lon="4.17692">
        <ele>464.45</ele>
        <time>2021-08-12T08:47:03Z</time>
      </trkpt>
      <trkpt lat="47.19882" lon="4.17696">
        <ele>464.45</ele>
        <time>2021-08-12T08:47:06Z</time>
      </trkpt>
      <trkpt lat="47.19863" lon="4.17695">
        <ele>464.45</ele>
        <time>2021-08-12T08:47:13Z</time>
      </trkpt>
      <trkpt lat="47.19843" lon="4.17697">
        <ele>465.42</ele>
        <time>2021-08-12T08:47:21Z</time>
      </trkpt>
      <trkpt lat="47.19826" lon="4.17699">
        <ele>466.38</ele>
        <time>2021-08-12T08:47:28Z</time>
      </trkpt>
      <trkpt lat="47.19809" lon="4.17697">
        <ele>466.86</ele>
        <time>2021-08-12T08:47:36Z</time>
      </trkpt>
      <trkpt lat="47.19791" lon="4.17694">
        <ele>467.82</ele>
        <time>2021-08-12T08:47:45Z</time>
      </trkpt>
      <trkpt lat="47.19771" lon="4.17688">
        <ele>469.26</ele>
        <time>2021-08-12T08:47:55Z</time>
      </trkpt>
      <trkpt lat="47.1975" lon="4.17679">
        <ele>470.7</ele>
        <time>2021-08-12T08:48:06Z</time>
      </trkpt>
      <trkpt lat="47.19736" lon="4.17666">
        <ele>471.66</ele>
        <time>2021-08-12T08:48:15Z</time>
      </trkpt>
      <trkpt lat="47.19723" lon="4.17645">
        <ele>473.11</ele>
        <time>2021-08-12T08:48:25Z</time>
      </trkpt>
      <trkpt lat="47.19708" lon="4.17629">
        <ele>474.07</ele>
        <time>2021-08-12T08:48:34Z</time>
      </trkpt>
      <trkpt lat="47.19693" lon="4.17611">
        <ele>475.03</ele>
        <time>2021-08-12T08:48:43Z</time>
      </trkpt>
      <trkpt lat="47.19673" lon="4.1759">
        <ele>476.47</ele>
        <time>2021-08-12T08:48:54Z</time>
      </trkpt>
      <trkpt lat="47.19655" lon="4.17569">
        <ele>478.39</ele>
        <time>2021-08-12T08:49:04Z</time>
      </trkpt>
      <trkpt lat="47.19634" lon="4.17545">
        <ele>479.84</ele>
        <time>2021-08-12T08:49:15Z</time>
      </trkpt>
      <trkpt lat="47.1962" lon="4.17526">
        <ele>480.8</ele>
        <time>2021-08-12T08:49:23Z</time>
      </trkpt>
      <trkpt lat="47.19608" lon="4.17513">
        <ele>481.76</ele>
        <time>2021-08-12T08:49:30Z</time>
      </trkpt>
      <trkpt lat="47.19595" lon="4.17499">
        <ele>483.2</ele>
        <time>2021-08-12T08:49:37Z</time>
      </trkpt>
      <trkpt lat="47.1958" lon="4.17481">
        <ele>483.68</ele>
        <time>2021-08-12T08:49:45Z</time>
      </trkpt>
      <trkpt lat="47.19578" lon="4.17479">
        <ele>484.16</ele>
        <time>2021-08-12T08:49:46Z</time>
      </trkpt>
      <trkpt lat="47.19576" lon="4.17478">
        <ele>484.16</ele>
        <time>2021-08-12T08:49:47Z</time>
      </trkpt>
      <trkpt lat="47.19574" lon="4.17476">
        <ele>484.16</ele>
        <time>2021-08-12T08:49:48Z</time>
      </trkpt>
      <trkpt lat="47.19563" lon="4.1746">
        <ele>484.64</ele>
        <time>2021-08-12T08:49:54Z</time>
      </trkpt>
      <trkpt lat="47.19544" lon="4.1744">
        <ele>485.12</ele>
        <time>2021-08-12T08:50:02Z</time>
      </trkpt>
      <trkpt lat="47.19535" lon="4.1743">
        <ele>485.12</ele>
        <time>2021-08-12T08:50:05Z</time>
      </trkpt>
      <trkpt lat="47.19531" lon="4.17426">
        <ele>485.12</ele>
        <time>2021-08-12T08:50:06Z</time>
      </trkpt>
      <trkpt lat="47.19527" lon="4.17423">
        <ele>484.16</ele>
        <time>2021-08-12T08:50:07Z</time>
      </trkpt>
      <trkpt lat="47.19495" lon="4.1739">
        <ele>482.24</ele>
        <time>2021-08-12T08:50:14Z</time>
      </trkpt>
      <trkpt lat="47.19455" lon="4.17348">
        <ele>479.84</ele>
        <time>2021-08-12T08:50:21Z</time>
      </trkpt>
      <trkpt lat="47.19412" lon="4.17308">
        <ele>476.95</ele>
        <time>2021-08-12T08:50:27Z</time>
      </trkpt>
      <trkpt lat="47.19398" lon="4.17294">
        <ele>475.99</ele>
        <time>2021-08-12T08:50:29Z</time>
      </trkpt>
      <trkpt lat="47.19374" lon="4.17273">
        <ele>474.55</ele>
        <time>2021-08-12T08:50:32Z</time>
      </trkpt>
      <trkpt lat="47.19333" lon="4.17235">
        <ele>471.66</ele>
        <time>2021-08-12T08:50:37Z</time>
      </trkpt>
      <trkpt lat="47.19272" lon="4.17181">
        <ele>468.78</ele>
        <time>2021-08-12T08:50:45Z</time>
      </trkpt>
      <trkpt lat="47.19263" lon="4.17179">
        <ele>467.82</ele>
        <time>2021-08-12T08:50:46Z</time>
      </trkpt>
      <trkpt lat="47.19257" lon="4.1718">
        <ele>467.82</ele>
        <time>2021-08-12T08:50:47Z</time>
      </trkpt>
      <trkpt lat="47.1925" lon="4.17183">
        <ele>467.82</ele>
        <time>2021-08-12T08:50:48Z</time>
      </trkpt>
      <trkpt lat="47.19243" lon="4.17187">
        <ele>467.82</ele>
        <time>2021-08-12T08:50:49Z</time>
      </trkpt>
      <trkpt lat="47.19236" lon="4.17192">
        <ele>467.82</ele>
        <time>2021-08-12T08:50:50Z</time>
      </trkpt>
      <trkpt lat="47.1923" lon="4.17198">
        <ele>467.82</ele>
        <time>2021-08-12T08:50:51Z</time>
      </trkpt>
      <trkpt lat="47.19224" lon="4.17204">
        <ele>467.82</ele>
        <time>2021-08-12T08:50:52Z</time>
      </trkpt>
      <trkpt lat="47.19204" lon="4.17226">
        <ele>467.34</ele>
        <time>2021-08-12T08:50:56Z</time>
      </trkpt>
      <trkpt lat="47.19188" lon="4.1724">
        <ele>467.34</ele>
        <time>2021-08-12T08:50:59Z</time>
      </trkpt>
      <trkpt lat="47.19177" lon="4.17248">
        <ele>467.34</ele>
        <time>2021-08-12T08:51:01Z</time>
      </trkpt>
      <trkpt lat="47.19171" lon="4.1725">
        <ele>467.34</ele>
        <time>2021-08-12T08:51:02Z</time>
      </trkpt>
      <trkpt lat="47.19142" lon="4.17261">
        <ele>467.34</ele>
        <time>2021-08-12T08:51:08Z</time>
      </trkpt>
      <trkpt lat="47.19128" lon="4.17266">
        <ele>468.78</ele>
        <time>2021-08-12T08:51:11Z</time>
      </trkpt>
      <trkpt lat="47.19119" lon="4.1727">
        <ele>468.78</ele>
        <time>2021-08-12T08:51:13Z</time>
      </trkpt>
      <trkpt lat="47.19114" lon="4.17272">
        <ele>468.78</ele>
        <time>2021-08-12T08:51:14Z</time>
      </trkpt>
      <trkpt lat="47.1911" lon="4.17275">
        <ele>468.78</ele>
        <time>2021-08-12T08:51:15Z</time>
      </trkpt>
      <trkpt lat="47.19105" lon="4.17278">
        <ele>468.78</ele>
        <time>2021-08-12T08:51:16Z</time>
      </trkpt>
      <trkpt lat="47.191" lon="4.17281">
        <ele>468.78</ele>
        <time>2021-08-12T08:51:17Z</time>
      </trkpt>
      <trkpt lat="47.19095" lon="4.17285">
        <ele>468.78</ele>
        <time>2021-08-12T08:51:18Z</time>
      </trkpt>
      <trkpt lat="47.1909" lon="4.1729">
        <ele>468.78</ele>
        <time>2021-08-12T08:51:19Z</time>
      </trkpt>
      <trkpt lat="47.19085" lon="4.17294">
        <ele>467.34</ele>
        <time>2021-08-12T08:51:20Z</time>
      </trkpt>
      <trkpt lat="47.1908" lon="4.173">
        <ele>467.34</ele>
        <time>2021-08-12T08:51:21Z</time>
      </trkpt>
      <trkpt lat="47.19055" lon="4.17327">
        <ele>466.38</ele>
        <time>2021-08-12T08:51:26Z</time>
      </trkpt>
      <trkpt lat="47.1905" lon="4.17329">
        <ele>466.38</ele>
        <time>2021-08-12T08:51:27Z</time>
      </trkpt>
      <trkpt lat="47.19044" lon="4.17331">
        <ele>466.38</ele>
        <time>2021-08-12T08:51:28Z</time>
      </trkpt>
      <trkpt lat="47.19038" lon="4.1733">
        <ele>466.38</ele>
        <time>2021-08-12T08:51:29Z</time>
      </trkpt>
      <trkpt lat="47.19034" lon="4.17328">
        <ele>466.38</ele>
        <time>2021-08-12T08:51:30Z</time>
      </trkpt>
      <trkpt lat="47.19028" lon="4.17326">
        <ele>466.38</ele>
        <time>2021-08-12T08:51:31Z</time>
      </trkpt>
      <trkpt lat="47.19013" lon="4.17319">
        <ele>466.38</ele>
        <time>2021-08-12T08:51:34Z</time>
      </trkpt>
      <trkpt lat="47.19008" lon="4.17317">
        <ele>466.38</ele>
        <time>2021-08-12T08:51:35Z</time>
      </trkpt>
      <trkpt lat="47.19003" lon="4.17313">
        <ele>466.38</ele>
        <time>2021-08-12T08:51:36Z</time>
      </trkpt>
      <trkpt lat="47.19" lon="4.17309">
        <ele>466.38</ele>
        <time>2021-08-12T08:51:37Z</time>
      </trkpt>
      <trkpt lat="47.18998" lon="4.17304">
        <ele>466.38</ele>
        <time>2021-08-12T08:51:38Z</time>
      </trkpt>
      <trkpt lat="47.18998" lon="4.17299">
        <ele>467.82</ele>
        <time>2021-08-12T08:51:39Z</time>
      </trkpt>
      <trkpt lat="47.18999" lon="4.17293">
        <ele>467.82</ele>
        <time>2021-08-12T08:51:40Z</time>
      </trkpt>
      <trkpt lat="47.19" lon="4.1729">
        <ele>467.82</ele>
        <time>2021-08-12T08:51:41Z</time>
      </trkpt>
      <trkpt lat="47.19002" lon="4.17262">
        <ele>469.26</ele>
        <time>2021-08-12T08:51:48Z</time>
      </trkpt>
      <trkpt lat="47.19002" lon="4.1726">
        <ele>469.26</ele>
        <time>2021-08-12T08:51:49Z</time>
      </trkpt>
      <trkpt lat="47.19002" lon="4.17258">
        <ele>469.26</ele>
        <time>2021-08-12T08:51:50Z</time>
      </trkpt>
      <trkpt lat="47.19003" lon="4.17255">
        <ele>469.74</ele>
        <time>2021-08-12T08:51:51Z</time>
      </trkpt>
      <trkpt lat="47.19003" lon="4.17253">
        <ele>470.22</ele>
        <time>2021-08-12T08:51:52Z</time>
      </trkpt>
      <trkpt lat="47.19004" lon="4.17252">
        <ele>470.22</ele>
        <time>2021-08-12T08:51:53Z</time>
      </trkpt>
      <trkpt lat="47.19004" lon="4.1725">
        <ele>470.22</ele>
        <time>2021-08-12T08:51:54Z</time>
      </trkpt>
      <trkpt lat="47.19004" lon="4.17247">
        <ele>470.22</ele>
        <time>2021-08-12T08:51:55Z</time>
      </trkpt>
      <trkpt lat="47.19005" lon="4.17232">
        <ele>471.18</ele>
        <time>2021-08-12T08:52:02Z</time>
      </trkpt>
      <trkpt lat="47.19004" lon="4.17222">
        <ele>471.66</ele>
        <time>2021-08-12T08:52:07Z</time>
      </trkpt>
      <trkpt lat="47.19004" lon="4.1722">
        <ele>471.66</ele>
        <time>2021-08-12T08:52:08Z</time>
      </trkpt>
      <trkpt lat="47.19003" lon="4.17218">
        <ele>471.66</ele>
        <time>2021-08-12T08:52:09Z</time>
      </trkpt>
      <trkpt lat="47.19003" lon="4.17212">
        <ele>472.63</ele>
        <time>2021-08-12T08:52:13Z</time>
      </trkpt>
      <trkpt lat="47.19" lon="4.17202">
        <ele>473.11</ele>
        <time>2021-08-12T08:52:20Z</time>
      </trkpt>
      <trkpt lat="47.18996" lon="4.17193">
        <ele>474.55</ele>
        <time>2021-08-12T08:52:27Z</time>
      </trkpt>
      <trkpt lat="47.18992" lon="4.17187">
        <ele>475.51</ele>
        <time>2021-08-12T08:52:34Z</time>
      </trkpt>
      <trkpt lat="47.18986" lon="4.17182">
        <ele>476.47</ele>
        <time>2021-08-12T08:52:41Z</time>
      </trkpt>
      <trkpt lat="47.18979" lon="4.17177">
        <ele>477.43</ele>
        <time>2021-08-12T08:52:48Z</time>
      </trkpt>
      <trkpt lat="47.1897" lon="4.17169">
        <ele>478.87</ele>
        <time>2021-08-12T08:52:56Z</time>
      </trkpt>
      <trkpt lat="47.18962" lon="4.1716">
        <ele>479.84</ele>
        <time>2021-08-12T08:53:04Z</time>
      </trkpt>
      <trkpt lat="47.1896" lon="4.17158">
        <ele>480.8</ele>
        <time>2021-08-12T08:53:11Z</time>
      </trkpt>
      <trkpt lat="47.18955" lon="4.17153">
        <ele>480.8</ele>
        <time>2021-08-12T08:53:16Z</time>
      </trkpt>
      <trkpt lat="47.18943" lon="4.17143">
        <ele>482.72</ele>
        <time>2021-08-12T08:53:25Z</time>
      </trkpt>
      <trkpt lat="47.18941" lon="4.17142">
        <ele>482.72</ele>
        <time>2021-08-12T08:53:26Z</time>
      </trkpt>
      <trkpt lat="47.1894" lon="4.17142">
        <ele>483.2</ele>
        <time>2021-08-12T08:53:27Z</time>
      </trkpt>
      <trkpt lat="47.18939" lon="4.17141">
        <ele>483.2</ele>
        <time>2021-08-12T08:53:28Z</time>
      </trkpt>
      <trkpt lat="47.18938" lon="4.1714">
        <ele>483.2</ele>
        <time>2021-08-12T08:53:29Z</time>
      </trkpt>
      <trkpt lat="47.18936" lon="4.17139">
        <ele>483.68</ele>
        <time>2021-08-12T08:53:30Z</time>
      </trkpt>
      <trkpt lat="47.18935" lon="4.17139">
        <ele>483.68</ele>
        <time>2021-08-12T08:53:31Z</time>
      </trkpt>
      <trkpt lat="47.18934" lon="4.17138">
        <ele>483.68</ele>
        <time>2021-08-12T08:53:32Z</time>
      </trkpt>
      <trkpt lat="47.18923" lon="4.17129">
        <ele>484.64</ele>
        <time>2021-08-12T08:53:41Z</time>
      </trkpt>
      <trkpt lat="47.18917" lon="4.17125">
        <ele>485.12</ele>
        <time>2021-08-12T08:53:46Z</time>
      </trkpt>
      <trkpt lat="47.18916" lon="4.17124">
        <ele>485.6</ele>
        <time>2021-08-12T08:53:47Z</time>
      </trkpt>
      <trkpt lat="47.18915" lon="4.17124">
        <ele>485.6</ele>
        <time>2021-08-12T08:53:48Z</time>
      </trkpt>
      <trkpt lat="47.18913" lon="4.17123">
        <ele>485.6</ele>
        <time>2021-08-12T08:53:49Z</time>
      </trkpt>
      <trkpt lat="47.18912" lon="4.17123">
        <ele>485.6</ele>
        <time>2021-08-12T08:53:50Z</time>
      </trkpt>
      <trkpt lat="47.18911" lon="4.17123">
        <ele>485.6</ele>
        <time>2021-08-12T08:53:51Z</time>
      </trkpt>
      <trkpt lat="47.18904" lon="4.1712">
        <ele>487.05</ele>
        <time>2021-08-12T08:53:57Z</time>
      </trkpt>
      <trkpt lat="47.18903" lon="4.17119">
        <ele>487.05</ele>
        <time>2021-08-12T08:53:58Z</time>
      </trkpt>
      <trkpt lat="47.18902" lon="4.17119">
        <ele>487.05</ele>
        <time>2021-08-12T08:53:59Z</time>
      </trkpt>
      <trkpt lat="47.189" lon="4.17118">
        <ele>487.53</ele>
        <time>2021-08-12T08:54:00Z</time>
      </trkpt>
      <trkpt lat="47.18899" lon="4.17118">
        <ele>487.53</ele>
        <time>2021-08-12T08:54:01Z</time>
      </trkpt>
      <trkpt lat="47.18896" lon="4.17116">
        <ele>488.01</ele>
        <time>2021-08-12T08:54:04Z</time>
      </trkpt>
      <trkpt lat="47.18895" lon="4.17116">
        <ele>488.01</ele>
        <time>2021-08-12T08:54:05Z</time>
      </trkpt>
      <trkpt lat="47.18889" lon="4.17113">
        <ele>488.49</ele>
        <time>2021-08-12T08:54:10Z</time>
      </trkpt>
      <trkpt lat="47.18888" lon="4.17113">
        <ele>488.49</ele>
        <time>2021-08-12T08:54:11Z</time>
      </trkpt>
      <trkpt lat="47.18877" lon="4.17111">
        <ele>489.45</ele>
        <time>2021-08-12T08:54:19Z</time>
      </trkpt>
      <trkpt lat="47.18872" lon="4.17111">
        <ele>490.41</ele>
        <time>2021-08-12T08:54:23Z</time>
      </trkpt>
      <trkpt lat="47.18871" lon="4.1711">
        <ele>490.89</ele>
        <time>2021-08-12T08:54:24Z</time>
      </trkpt>
      <trkpt lat="47.18861" lon="4.17105">
        <ele>491.85</ele>
        <time>2021-08-12T08:54:32Z</time>
      </trkpt>
      <trkpt lat="47.18847" lon="4.17099">
        <ele>492.81</ele>
        <time>2021-08-12T08:54:41Z</time>
      </trkpt>
      <trkpt lat="47.18839" lon="4.17095">
        <ele>493.29</ele>
        <time>2021-08-12T08:54:46Z</time>
      </trkpt>
      <trkpt lat="47.18838" lon="4.17094">
        <ele>493.29</ele>
        <time>2021-08-12T08:54:47Z</time>
      </trkpt>
      <trkpt lat="47.18837" lon="4.17094">
        <ele>493.29</ele>
        <time>2021-08-12T08:54:48Z</time>
      </trkpt>
      <trkpt lat="47.18835" lon="4.17094">
        <ele>493.29</ele>
        <time>2021-08-12T08:54:49Z</time>
      </trkpt>
      <trkpt lat="47.18834" lon="4.17093">
        <ele>493.29</ele>
        <time>2021-08-12T08:54:50Z</time>
      </trkpt>
      <trkpt lat="47.18832" lon="4.17092">
        <ele>493.29</ele>
        <time>2021-08-12T08:54:51Z</time>
      </trkpt>
      <trkpt lat="47.18831" lon="4.17091">
        <ele>493.77</ele>
        <time>2021-08-12T08:54:52Z</time>
      </trkpt>
      <trkpt lat="47.1883" lon="4.17089">
        <ele>493.77</ele>
        <time>2021-08-12T08:54:53Z</time>
      </trkpt>
      <trkpt lat="47.18829" lon="4.17089">
        <ele>493.77</ele>
        <time>2021-08-12T08:54:54Z</time>
      </trkpt>
      <trkpt lat="47.18827" lon="4.17088">
        <ele>493.77</ele>
        <time>2021-08-12T08:54:55Z</time>
      </trkpt>
      <trkpt lat="47.18825" lon="4.17087">
        <ele>494.26</ele>
        <time>2021-08-12T08:54:56Z</time>
      </trkpt>
      <trkpt lat="47.18823" lon="4.17087">
        <ele>494.26</ele>
        <time>2021-08-12T08:54:57Z</time>
      </trkpt>
      <trkpt lat="47.18821" lon="4.17086">
        <ele>494.26</ele>
        <time>2021-08-12T08:54:58Z</time>
      </trkpt>
      <trkpt lat="47.18819" lon="4.17086">
        <ele>494.26</ele>
        <time>2021-08-12T08:54:59Z</time>
      </trkpt>
      <trkpt lat="47.18817" lon="4.17085">
        <ele>494.26</ele>
        <time>2021-08-12T08:55:00Z</time>
      </trkpt>
      <trkpt lat="47.18815" lon="4.17085">
        <ele>494.26</ele>
        <time>2021-08-12T08:55:01Z</time>
      </trkpt>
      <trkpt lat="47.18798" lon="4.17079">
        <ele>495.7</ele>
        <time>2021-08-12T08:55:10Z</time>
      </trkpt>
      <trkpt lat="47.18781" lon="4.17074">
        <ele>496.66</ele>
        <time>2021-08-12T08:55:18Z</time>
      </trkpt>
      <trkpt lat="47.1877" lon="4.17069">
        <ele>497.62</ele>
        <time>2021-08-12T08:55:24Z</time>
      </trkpt>
      <trkpt lat="47.18758" lon="4.17064">
        <ele>498.58</ele>
        <time>2021-08-12T08:55:30Z</time>
      </trkpt>
      <trkpt lat="47.18743" lon="4.17057">
        <ele>499.54</ele>
        <time>2021-08-12T08:55:38Z</time>
      </trkpt>
      <trkpt lat="47.18731" lon="4.17051">
        <ele>500.5</ele>
        <time>2021-08-12T08:55:45Z</time>
      </trkpt>
      <trkpt lat="47.18718" lon="4.17046">
        <ele>501.46</ele>
        <time>2021-08-12T08:55:53Z</time>
      </trkpt>
      <trkpt lat="47.18704" lon="4.17038">
        <ele>502.91</ele>
        <time>2021-08-12T08:56:01Z</time>
      </trkpt>
      <trkpt lat="47.18694" lon="4.1703">
        <ele>503.39</ele>
        <time>2021-08-12T08:56:07Z</time>
      </trkpt>
      <trkpt lat="47.18683" lon="4.17025">
        <ele>503.87</ele>
        <time>2021-08-12T08:56:12Z</time>
      </trkpt>
      <trkpt lat="47.18663" lon="4.17008">
        <ele>504.35</ele>
        <time>2021-08-12T08:56:19Z</time>
      </trkpt>
      <trkpt lat="47.1864" lon="4.16984">
        <ele>504.35</ele>
        <time>2021-08-12T08:56:26Z</time>
      </trkpt>
      <trkpt lat="47.18617" lon="4.16966">
        <ele>504.83</ele>
        <time>2021-08-12T08:56:33Z</time>
      </trkpt>
      <trkpt lat="47.18591" lon="4.16937">
        <ele>505.79</ele>
        <time>2021-08-12T08:56:42Z</time>
      </trkpt>
      <trkpt lat="47.18567" lon="4.16905">
        <ele>506.75</ele>
        <time>2021-08-12T08:56:50Z</time>
      </trkpt>
      <trkpt lat="47.18547" lon="4.16875">
        <ele>507.23</ele>
        <time>2021-08-12T08:56:57Z</time>
      </trkpt>
      <trkpt lat="47.18527" lon="4.1684">
        <ele>507.71</ele>
        <time>2021-08-12T08:57:05Z</time>
      </trkpt>
      <trkpt lat="47.18513" lon="4.16816">
        <ele>509.16</ele>
        <time>2021-08-12T08:57:12Z</time>
      </trkpt>
      <trkpt lat="47.18496" lon="4.16781">
        <ele>510.6</ele>
        <time>2021-08-12T08:57:21Z</time>
      </trkpt>
      <trkpt lat="47.18481" lon="4.16751">
        <ele>511.08</ele>
        <time>2021-08-12T08:57:29Z</time>
      </trkpt>
      <trkpt lat="47.18467" lon="4.16724">
        <ele>513.48</ele>
        <time>2021-08-12T08:57:38Z</time>
      </trkpt>
      <trkpt lat="47.18458" lon="4.16699">
        <ele>514.92</ele>
        <time>2021-08-12T08:57:46Z</time>
      </trkpt>
      <trkpt lat="47.18448" lon="4.16676">
        <ele>516.37</ele>
        <time>2021-08-12T08:57:55Z</time>
      </trkpt>
      <trkpt lat="47.18437" lon="4.1665">
        <ele>518.29</ele>
        <time>2021-08-12T08:58:06Z</time>
      </trkpt>
      <trkpt lat="47.18427" lon="4.16625">
        <ele>519.73</ele>
        <time>2021-08-12T08:58:16Z</time>
      </trkpt>
      <trkpt lat="47.1842" lon="4.1661">
        <ele>521.17</ele>
        <time>2021-08-12T08:58:23Z</time>
      </trkpt>
      <trkpt lat="47.18414" lon="4.16586">
        <ele>522.61</ele>
        <time>2021-08-12T08:58:32Z</time>
      </trkpt>
      <trkpt lat="47.18407" lon="4.16561">
        <ele>523.58</ele>
        <time>2021-08-12T08:58:41Z</time>
      </trkpt>
      <trkpt lat="47.184" lon="4.16529">
        <ele>524.06</ele>
        <time>2021-08-12T08:58:50Z</time>
      </trkpt>
      <trkpt lat="47.18395" lon="4.16508">
        <ele>524.06</ele>
        <time>2021-08-12T08:58:54Z</time>
      </trkpt>
      <trkpt lat="47.18394" lon="4.16502">
        <ele>524.06</ele>
        <time>2021-08-12T08:58:55Z</time>
      </trkpt>
      <trkpt lat="47.18391" lon="4.16488">
        <ele>522.13</ele>
        <time>2021-08-12T08:58:57Z</time>
      </trkpt>
      <trkpt lat="47.18377" lon="4.16424">
        <ele>520.21</ele>
        <time>2021-08-12T08:59:05Z</time>
      </trkpt>
      <trkpt lat="47.18361" lon="4.1635">
        <ele>519.73</ele>
        <time>2021-08-12T08:59:14Z</time>
      </trkpt>
      <trkpt lat="47.18353" lon="4.16316">
        <ele>519.73</ele>
        <time>2021-08-12T08:59:19Z</time>
      </trkpt>
      <trkpt lat="47.18348" lon="4.1629">
        <ele>519.73</ele>
        <time>2021-08-12T08:59:23Z</time>
      </trkpt>
      <trkpt lat="47.18346" lon="4.16261">
        <ele>520.69</ele>
        <time>2021-08-12T08:59:29Z</time>
      </trkpt>
      <trkpt lat="47.18344" lon="4.16258">
        <ele>521.17</ele>
        <time>2021-08-12T08:59:35Z</time>
      </trkpt>
      <trkpt lat="47.18344" lon="4.16259">
        <ele>521.65</ele>
        <time>2021-08-12T08:59:43Z</time>
      </trkpt>
      <trkpt lat="47.18342" lon="4.1626">
        <ele>521.65</ele>
        <time>2021-08-12T08:59:57Z</time>
      </trkpt>
      <trkpt lat="47.18341" lon="4.16263">
        <ele>521.65</ele>
        <time>2021-08-12T09:00:13Z</time>
      </trkpt>
      <trkpt lat="47.18341" lon="4.16262">
        <ele>521.65</ele>
        <time>2021-08-12T09:00:30Z</time>
      </trkpt>
      <trkpt lat="47.18341" lon="4.16262">
        <ele>521.17</ele>
        <time>2021-08-12T09:00:51Z</time>
      </trkpt>
      <trkpt lat="47.18343" lon="4.16262">
        <ele>521.17</ele>
        <time>2021-08-12T09:01:11Z</time>
      </trkpt>
      <trkpt lat="47.18343" lon="4.1626">
        <ele>521.17</ele>
        <time>2021-08-12T09:01:33Z</time>
      </trkpt>
      <trkpt lat="47.18341" lon="4.1626">
        <ele>521.17</ele>
        <time>2021-08-12T09:02:05Z</time>
      </trkpt>
      <trkpt lat="47.18341" lon="4.1626">
        <ele>521.17</ele>
        <time>2021-08-12T09:02:35Z</time>
      </trkpt>
      <trkpt lat="47.18342" lon="4.1626">
        <ele>520.69</ele>
        <time>2021-08-12T09:03:03Z</time>
      </trkpt>
      <trkpt lat="47.18339" lon="4.16262">
        <ele>520.69</ele>
        <time>2021-08-12T09:03:36Z</time>
      </trkpt>
      <trkpt lat="47.18339" lon="4.16261">
        <ele>520.69</ele>
        <time>2021-08-12T09:04:00Z</time>
      </trkpt>
      <trkpt lat="47.18341" lon="4.16259">
        <ele>519.25</ele>
        <time>2021-08-12T09:04:24Z</time>
      </trkpt>
      <trkpt lat="47.18343" lon="4.16257">
        <ele>519.25</ele>
        <time>2021-08-12T09:04:47Z</time>
      </trkpt>
      <trkpt lat="47.18342" lon="4.16259">
        <ele>519.25</ele>
        <time>2021-08-12T09:05:04Z</time>
      </trkpt>
      <trkpt lat="47.18342" lon="4.16259">
        <ele>518.77</ele>
        <time>2021-08-12T09:05:31Z</time>
      </trkpt>
      <trkpt lat="47.18343" lon="4.16258">
        <ele>518.77</ele>
        <time>2021-08-12T09:06:00Z</time>
      </trkpt>
      <trkpt lat="47.18343" lon="4.16259">
        <ele>518.29</ele>
        <time>2021-08-12T09:06:24Z</time>
      </trkpt>
      <trkpt lat="47.18343" lon="4.16261">
        <ele>518.29</ele>
        <time>2021-08-12T09:06:57Z</time>
      </trkpt>
      <trkpt lat="47.18344" lon="4.16258">
        <ele>517.81</ele>
        <time>2021-08-12T09:07:28Z</time>
      </trkpt>
      <trkpt lat="47.18343" lon="4.16258">
        <ele>517.33</ele>
        <time>2021-08-12T09:07:48Z</time>
      </trkpt>
      <trkpt lat="47.18342" lon="4.16259">
        <ele>517.33</ele>
        <time>2021-08-12T09:08:08Z</time>
      </trkpt>
      <trkpt lat="47.18343" lon="4.16259">
        <ele>517.33</ele>
        <time>2021-08-12T09:08:31Z</time>
      </trkpt>
      <trkpt lat="47.18343" lon="4.16259">
        <ele>517.33</ele>
        <time>2021-08-12T09:08:49Z</time>
      </trkpt>
      <trkpt lat="47.18342" lon="4.1626">
        <ele>517.33</ele>
        <time>2021-08-12T09:09:13Z</time>
      </trkpt>
      <trkpt lat="47.18342" lon="4.1626">
        <ele>516.85</ele>
        <time>2021-08-12T09:09:29Z</time>
      </trkpt>
      <trkpt lat="47.18341" lon="4.16259">
        <ele>516.85</ele>
        <time>2021-08-12T09:09:46Z</time>
      </trkpt>
      <trkpt lat="47.18341" lon="4.16261">
        <ele>516.37</ele>
        <time>2021-08-12T09:09:54Z</time>
      </trkpt>
      <trkpt lat="47.18343" lon="4.16257">
        <ele>516.37</ele>
        <time>2021-08-12T09:10:17Z</time>
      </trkpt>
      <trkpt lat="47.18344" lon="4.16258">
        <ele>516.37</ele>
        <time>2021-08-12T09:10:41Z</time>
      </trkpt>
      <trkpt lat="47.18344" lon="4.16258">
        <ele>516.37</ele>
        <time>2021-08-12T09:11:01Z</time>
      </trkpt>
      <trkpt lat="47.18346" lon="4.16258">
        <ele>516.37</ele>
        <time>2021-08-12T09:11:19Z</time>
      </trkpt>
      <trkpt lat="47.18346" lon="4.16258">
        <ele>515.88</ele>
        <time>2021-08-12T09:11:38Z</time>
      </trkpt>
      <trkpt lat="47.18347" lon="4.16259">
        <ele>515.88</ele>
        <time>2021-08-12T09:11:58Z</time>
      </trkpt>
      <trkpt lat="47.18347" lon="4.16259">
        <ele>515.88</ele>
        <time>2021-08-12T09:12:16Z</time>
      </trkpt>
      <trkpt lat="47.18346" lon="4.16258">
        <ele>515.88</ele>
        <time>2021-08-12T09:12:37Z</time>
      </trkpt>
      <trkpt lat="47.18347" lon="4.16257">
        <ele>515.88</ele>
        <time>2021-08-12T09:12:52Z</time>
      </trkpt>
      <trkpt lat="47.18347" lon="4.16256">
        <ele>515.88</ele>
        <time>2021-08-12T09:13:09Z</time>
      </trkpt>
      <trkpt lat="47.18345" lon="4.16256">
        <ele>515.88</ele>
        <time>2021-08-12T09:13:30Z</time>
      </trkpt>
      <trkpt lat="47.18344" lon="4.16256">
        <ele>515.88</ele>
        <time>2021-08-12T09:13:48Z</time>
      </trkpt>
      <trkpt lat="47.18344" lon="4.16258">
        <ele>515.88</ele>
        <time>2021-08-12T09:14:15Z</time>
      </trkpt>
      <trkpt lat="47.18345" lon="4.16258">
        <ele>515.88</ele>
        <time>2021-08-12T09:14:43Z</time>
      </trkpt>
      <trkpt lat="47.18344" lon="4.16258">
        <ele>515.88</ele>
        <time>2021-08-12T09:14:47Z</time>
      </trkpt>
      <trkpt lat="47.18343" lon="4.16259">
        <ele>515.88</ele>
        <time>2021-08-12T09:14:58Z</time>
      </trkpt>
      <trkpt lat="47.18344" lon="4.16259">
        <ele>515.88</ele>
        <time>2021-08-12T09:15:11Z</time>
      </trkpt>
      <trkpt lat="47.18345" lon="4.16259">
        <ele>515.88</ele>
        <time>2021-08-12T09:15:27Z</time>
      </trkpt>
      <trkpt lat="47.18345" lon="4.16258">
        <ele>515.88</ele>
        <time>2021-08-12T09:15:52Z</time>
      </trkpt>
      <trkpt lat="47.18345" lon="4.16257">
        <ele>515.88</ele>
        <time>2021-08-12T09:16:16Z</time>
      </trkpt>
      <trkpt lat="47.18344" lon="4.16257">
        <ele>515.88</ele>
        <time>2021-08-12T09:16:38Z</time>
      </trkpt>
      <trkpt lat="47.18344" lon="4.16258">
        <ele>515.88</ele>
        <time>2021-08-12T09:16:53Z</time>
      </trkpt>
      <trkpt lat="47.18342" lon="4.16259">
        <ele>515.88</ele>
        <time>2021-08-12T09:17:11Z</time>
      </trkpt>
      <trkpt lat="47.1834" lon="4.1626">
        <ele>515.88</ele>
        <time>2021-08-12T09:17:39Z</time>
      </trkpt>
      <trkpt lat="47.1834" lon="4.16261">
        <ele>515.88</ele>
        <time>2021-08-12T09:17:59Z</time>
      </trkpt>
      <trkpt lat="47.18339" lon="4.1626">
        <ele>515.88</ele>
        <time>2021-08-12T09:18:18Z</time>
      </trkpt>
      <trkpt lat="47.18338" lon="4.16261">
        <ele>515.88</ele>
        <time>2021-08-12T09:18:42Z</time>
      </trkpt>
      <trkpt lat="47.18339" lon="4.1626">
        <ele>515.88</ele>
        <time>2021-08-12T09:19:05Z</time>
      </trkpt>
      <trkpt lat="47.1834" lon="4.16261">
        <ele>515.88</ele>
        <time>2021-08-12T09:19:28Z</time>
      </trkpt>
      <trkpt lat="47.18341" lon="4.1626">
        <ele>515.88</ele>
        <time>2021-08-12T09:19:49Z</time>
      </trkpt>
      <trkpt lat="47.18342" lon="4.1626">
        <ele>515.88</ele>
        <time>2021-08-12T09:20:07Z</time>
      </trkpt>
      <trkpt lat="47.18341" lon="4.1626">
        <ele>515.88</ele>
        <time>2021-08-12T09:20:29Z</time>
      </trkpt>
      <trkpt lat="47.18342" lon="4.1626">
        <ele>515.88</ele>
        <time>2021-08-12T09:20:46Z</time>
      </trkpt>
      <trkpt lat="47.18342" lon="4.1626">
        <ele>515.4</ele>
        <time>2021-08-12T09:21:07Z</time>
      </trkpt>
      <trkpt lat="47.18343" lon="4.16259">
        <ele>515.4</ele>
        <time>2021-08-12T09:21:34Z</time>
      </trkpt>
      <trkpt lat="47.18346" lon="4.16259">
        <ele>515.4</ele>
        <time>2021-08-12T09:22:02Z</time>
      </trkpt>
      <trkpt lat="47.18347" lon="4.16258">
        <ele>515.4</ele>
        <time>2021-08-12T09:22:23Z</time>
      </trkpt>
      <trkpt lat="47.18349" lon="4.16257">
        <ele>515.4</ele>
        <time>2021-08-12T09:22:42Z</time>
      </trkpt>
      <trkpt lat="47.18348" lon="4.16257">
        <ele>515.4</ele>
        <time>2021-08-12T09:23:10Z</time>
      </trkpt>
      <trkpt lat="47.18347" lon="4.16257">
        <ele>515.4</ele>
        <time>2021-08-12T09:23:36Z</time>
      </trkpt>
      <trkpt lat="47.18347" lon="4.16256">
        <ele>515.4</ele>
        <time>2021-08-12T09:23:56Z</time>
      </trkpt>
      <trkpt lat="47.18347" lon="4.16256">
        <ele>515.4</ele>
        <time>2021-08-12T09:24:11Z</time>
      </trkpt>
      <trkpt lat="47.18346" lon="4.16257">
        <ele>515.4</ele>
        <time>2021-08-12T09:24:31Z</time>
      </trkpt>
      <trkpt lat="47.18346" lon="4.16258">
        <ele>515.4</ele>
        <time>2021-08-12T09:24:59Z</time>
      </trkpt>
      <trkpt lat="47.18347" lon="4.16258">
        <ele>516.37</ele>
        <time>2021-08-12T09:25:18Z</time>
      </trkpt>
      <trkpt lat="47.18346" lon="4.16258">
        <ele>516.37</ele>
        <time>2021-08-12T09:25:47Z</time>
      </trkpt>
      <trkpt lat="47.18345" lon="4.16258">
        <ele>516.37</ele>
        <time>2021-08-12T09:26:10Z</time>
      </trkpt>
      <trkpt lat="47.18344" lon="4.16258">
        <ele>516.37</ele>
        <time>2021-08-12T09:26:38Z</time>
      </trkpt>
      <trkpt lat="47.18344" lon="4.16256">
        <ele>516.37</ele>
        <time>2021-08-12T09:27:04Z</time>
      </trkpt>
      <trkpt lat="47.18344" lon="4.16256">
        <ele>516.37</ele>
        <time>2021-08-12T09:27:21Z</time>
      </trkpt>
      <trkpt lat="47.18342" lon="4.16257">
        <ele>515.88</ele>
        <time>2021-08-12T09:27:47Z</time>
      </trkpt>
      <trkpt lat="47.18342" lon="4.16257">
        <ele>515.88</ele>
        <time>2021-08-12T09:28:08Z</time>
      </trkpt>
      <trkpt lat="47.18343" lon="4.16257">
        <ele>515.88</ele>
        <time>2021-08-12T09:28:33Z</time>
      </trkpt>
      <trkpt lat="47.18345" lon="4.1626">
        <ele>515.88</ele>
        <time>2021-08-12T09:28:56Z</time>
      </trkpt>
      <trkpt lat="47.18345" lon="4.16261">
        <ele>515.88</ele>
        <time>2021-08-12T09:29:16Z</time>
      </trkpt>
      <trkpt lat="47.18345" lon="4.1626">
        <ele>515.4</ele>
        <time>2021-08-12T09:29:46Z</time>
      </trkpt>
      <trkpt lat="47.18343" lon="4.16261">
        <ele>515.4</ele>
        <time>2021-08-12T09:30:09Z</time>
      </trkpt>
      <trkpt lat="47.18341" lon="4.1626">
        <ele>515.4</ele>
        <time>2021-08-12T09:30:35Z</time>
      </trkpt>
      <trkpt lat="47.18341" lon="4.16259">
        <ele>515.4</ele>
        <time>2021-08-12T09:30:54Z</time>
      </trkpt>
      <trkpt lat="47.18342" lon="4.16259">
        <ele>515.4</ele>
        <time>2021-08-12T09:31:13Z</time>
      </trkpt>
      <trkpt lat="47.18343" lon="4.16258">
        <ele>515.4</ele>
        <time>2021-08-12T09:31:31Z</time>
      </trkpt>
      <trkpt lat="47.18344" lon="4.16257">
        <ele>515.4</ele>
        <time>2021-08-12T09:31:46Z</time>
      </trkpt>
      <trkpt lat="47.18345" lon="4.16256">
        <ele>514.92</ele>
        <time>2021-08-12T09:32:11Z</time>
      </trkpt>
      <trkpt lat="47.18345" lon="4.16254">
        <ele>514.92</ele>
        <time>2021-08-12T09:32:30Z</time>
      </trkpt>
      <trkpt lat="47.18344" lon="4.16253">
        <ele>514.92</ele>
        <time>2021-08-12T09:32:49Z</time>
      </trkpt>
      <trkpt lat="47.18344" lon="4.16251">
        <ele>514.92</ele>
        <time>2021-08-12T09:33:10Z</time>
      </trkpt>
      <trkpt lat="47.18346" lon="4.16254">
        <ele>514.92</ele>
        <time>2021-08-12T09:33:24Z</time>
      </trkpt>
      <trkpt lat="47.18347" lon="4.16257">
        <ele>514.92</ele>
        <time>2021-08-12T09:33:34Z</time>
      </trkpt>
      <trkpt lat="47.18348" lon="4.16254">
        <ele>514.92</ele>
        <time>2021-08-12T09:33:40Z</time>
      </trkpt>
      <trkpt lat="47.1835" lon="4.16231">
        <ele>514.92</ele>
        <time>2021-08-12T09:33:48Z</time>
      </trkpt>
      <trkpt lat="47.18352" lon="4.16196">
        <ele>513.48</ele>
        <time>2021-08-12T09:33:55Z</time>
      </trkpt>
      <trkpt lat="47.18352" lon="4.1619">
        <ele>513.48</ele>
        <time>2021-08-12T09:33:56Z</time>
      </trkpt>
      <trkpt lat="47.18351" lon="4.16163">
        <ele>513</ele>
        <time>2021-08-12T09:34:00Z</time>
      </trkpt>
      <trkpt lat="47.18351" lon="4.16132">
        <ele>512.04</ele>
        <time>2021-08-12T09:34:04Z</time>
      </trkpt>
      <trkpt lat="47.18348" lon="4.16081">
        <ele>511.56</ele>
        <time>2021-08-12T09:34:11Z</time>
      </trkpt>
      <trkpt lat="47.1835" lon="4.1606">
        <ele>511.56</ele>
        <time>2021-08-12T09:34:14Z</time>
      </trkpt>
      <trkpt lat="47.18355" lon="4.1604">
        <ele>511.56</ele>
        <time>2021-08-12T09:34:17Z</time>
      </trkpt>
      <trkpt lat="47.18362" lon="4.16001">
        <ele>513.48</ele>
        <time>2021-08-12T09:34:24Z</time>
      </trkpt>
      <trkpt lat="47.18364" lon="4.15965">
        <ele>513.96</ele>
        <time>2021-08-12T09:34:32Z</time>
      </trkpt>
      <trkpt lat="47.18365" lon="4.15944">
        <ele>512.52</ele>
        <time>2021-08-12T09:34:38Z</time>
      </trkpt>
      <trkpt lat="47.18365" lon="4.15944">
        <ele>512.52</ele>
        <time>2021-08-12T09:34:43Z</time>
      </trkpt>
      <trkpt lat="47.18366" lon="4.15936">
        <ele>512.52</ele>
        <time>2021-08-12T09:34:50Z</time>
      </trkpt>
      <trkpt lat="47.18366" lon="4.15908">
        <ele>513.96</ele>
        <time>2021-08-12T09:34:58Z</time>
      </trkpt>
      <trkpt lat="47.18366" lon="4.15879">
        <ele>514.44</ele>
        <time>2021-08-12T09:35:05Z</time>
      </trkpt>
      <trkpt lat="47.18366" lon="4.15857">
        <ele>515.4</ele>
        <time>2021-08-12T09:35:11Z</time>
      </trkpt>
      <trkpt lat="47.18367" lon="4.15844">
        <ele>516.37</ele>
        <time>2021-08-12T09:35:18Z</time>
      </trkpt>
      <trkpt lat="47.18366" lon="4.15843">
        <ele>516.85</ele>
        <time>2021-08-12T09:35:29Z</time>
      </trkpt>
      <trkpt lat="47.18366" lon="4.15838">
        <ele>516.85</ele>
        <time>2021-08-12T09:35:43Z</time>
      </trkpt>
      <trkpt lat="47.18367" lon="4.15839">
        <ele>516.85</ele>
        <time>2021-08-12T09:35:54Z</time>
      </trkpt>
      <trkpt lat="47.18368" lon="4.15841">
        <ele>516.85</ele>
        <time>2021-08-12T09:36:05Z</time>
      </trkpt>
      <trkpt lat="47.18366" lon="4.15834">
        <ele>516.85</ele>
        <time>2021-08-12T09:36:13Z</time>
      </trkpt>
      <trkpt lat="47.18366" lon="4.1581">
        <ele>518.29</ele>
        <time>2021-08-12T09:36:22Z</time>
      </trkpt>
      <trkpt lat="47.18363" lon="4.15786">
        <ele>519.25</ele>
        <time>2021-08-12T09:36:31Z</time>
      </trkpt>
      <trkpt lat="47.18356" lon="4.15768">
        <ele>520.69</ele>
        <time>2021-08-12T09:36:39Z</time>
      </trkpt>
      <trkpt lat="47.18348" lon="4.1574">
        <ele>521.65</ele>
        <time>2021-08-12T09:36:50Z</time>
      </trkpt>
      <trkpt lat="47.18344" lon="4.15714">
        <ele>523.09</ele>
        <time>2021-08-12T09:37:00Z</time>
      </trkpt>
      <trkpt lat="47.18344" lon="4.15706">
        <ele>524.06</ele>
        <time>2021-08-12T09:37:04Z</time>
      </trkpt>
      <trkpt lat="47.18345" lon="4.15703">
        <ele>524.06</ele>
        <time>2021-08-12T09:37:05Z</time>
      </trkpt>
      <trkpt lat="47.18345" lon="4.15701">
        <ele>524.06</ele>
        <time>2021-08-12T09:37:06Z</time>
      </trkpt>
      <trkpt lat="47.18345" lon="4.15699">
        <ele>524.54</ele>
        <time>2021-08-12T09:37:07Z</time>
      </trkpt>
      <trkpt lat="47.18346" lon="4.15697">
        <ele>524.54</ele>
        <time>2021-08-12T09:37:08Z</time>
      </trkpt>
      <trkpt lat="47.18346" lon="4.15695">
        <ele>524.54</ele>
        <time>2021-08-12T09:37:09Z</time>
      </trkpt>
      <trkpt lat="47.18346" lon="4.15693">
        <ele>524.54</ele>
        <time>2021-08-12T09:37:10Z</time>
      </trkpt>
      <trkpt lat="47.18347" lon="4.1569">
        <ele>525.02</ele>
        <time>2021-08-12T09:37:11Z</time>
      </trkpt>
      <trkpt lat="47.18347" lon="4.15688">
        <ele>525.02</ele>
        <time>2021-08-12T09:37:12Z</time>
      </trkpt>
      <trkpt lat="47.18347" lon="4.15685">
        <ele>525.02</ele>
        <time>2021-08-12T09:37:13Z</time>
      </trkpt>
      <trkpt lat="47.18347" lon="4.15683">
        <ele>525.02</ele>
        <time>2021-08-12T09:37:14Z</time>
      </trkpt>
      <trkpt lat="47.18346" lon="4.15681">
        <ele>525.02</ele>
        <time>2021-08-12T09:37:15Z</time>
      </trkpt>
      <trkpt lat="47.18343" lon="4.15656">
        <ele>526.46</ele>
        <time>2021-08-12T09:37:24Z</time>
      </trkpt>
      <trkpt lat="47.18337" lon="4.15636">
        <ele>527.42</ele>
        <time>2021-08-12T09:37:31Z</time>
      </trkpt>
      <trkpt lat="47.1833" lon="4.15609">
        <ele>528.38</ele>
        <time>2021-08-12T09:37:39Z</time>
      </trkpt>
      <trkpt lat="47.18328" lon="4.15576">
        <ele>528.86</ele>
        <time>2021-08-12T09:37:48Z</time>
      </trkpt>
      <trkpt lat="47.18322" lon="4.1555">
        <ele>530.79</ele>
        <time>2021-08-12T09:37:57Z</time>
      </trkpt>
      <trkpt lat="47.18316" lon="4.15535">
        <ele>531.75</ele>
        <time>2021-08-12T09:38:03Z</time>
      </trkpt>
      <trkpt lat="47.18309" lon="4.15513">
        <ele>532.71</ele>
        <time>2021-08-12T09:38:11Z</time>
      </trkpt>
      <trkpt lat="47.18307" lon="4.15486">
        <ele>533.67</ele>
        <time>2021-08-12T09:38:20Z</time>
      </trkpt>
      <trkpt lat="47.18309" lon="4.1546">
        <ele>535.11</ele>
        <time>2021-08-12T09:38:29Z</time>
      </trkpt>
      <trkpt lat="47.18317" lon="4.15441">
        <ele>536.55</ele>
        <time>2021-08-12T09:38:38Z</time>
      </trkpt>
      <trkpt lat="47.18328" lon="4.15432">
        <ele>538.48</ele>
        <time>2021-08-12T09:38:48Z</time>
      </trkpt>
      <trkpt lat="47.18336" lon="4.15421">
        <ele>540.4</ele>
        <time>2021-08-12T09:38:57Z</time>
      </trkpt>
      <trkpt lat="47.18343" lon="4.15407">
        <ele>541.36</ele>
        <time>2021-08-12T09:39:05Z</time>
      </trkpt>
      <trkpt lat="47.18346" lon="4.15394">
        <ele>542.32</ele>
        <time>2021-08-12T09:39:13Z</time>
      </trkpt>
      <trkpt lat="47.18345" lon="4.15377">
        <ele>543.76</ele>
        <time>2021-08-12T09:39:22Z</time>
      </trkpt>
      <trkpt lat="47.18345" lon="4.15376">
        <ele>543.76</ele>
        <time>2021-08-12T09:39:23Z</time>
      </trkpt>
      <trkpt lat="47.18346" lon="4.15374">
        <ele>543.76</ele>
        <time>2021-08-12T09:39:24Z</time>
      </trkpt>
      <trkpt lat="47.18346" lon="4.15373">
        <ele>544.24</ele>
        <time>2021-08-12T09:39:25Z</time>
      </trkpt>
      <trkpt lat="47.18342" lon="4.15355">
        <ele>545.69</ele>
        <time>2021-08-12T09:39:34Z</time>
      </trkpt>
      <trkpt lat="47.18332" lon="4.15335">
        <ele>547.13</ele>
        <time>2021-08-12T09:39:44Z</time>
      </trkpt>
      <trkpt lat="47.18322" lon="4.15323">
        <ele>547.61</ele>
        <time>2021-08-12T09:39:51Z</time>
      </trkpt>
      <trkpt lat="47.18307" lon="4.153">
        <ele>549.05</ele>
        <time>2021-08-12T09:40:03Z</time>
      </trkpt>
      <trkpt lat="47.18299" lon="4.15286">
        <ele>550.49</ele>
        <time>2021-08-12T09:40:13Z</time>
      </trkpt>
      <trkpt lat="47.18293" lon="4.15275">
        <ele>552.41</ele>
        <time>2021-08-12T09:40:21Z</time>
      </trkpt>
      <trkpt lat="47.1829" lon="4.15265">
        <ele>553.38</ele>
        <time>2021-08-12T09:40:27Z</time>
      </trkpt>
      <trkpt lat="47.18284" lon="4.15252">
        <ele>554.82</ele>
        <time>2021-08-12T09:40:34Z</time>
      </trkpt>
      <trkpt lat="47.18278" lon="4.15236">
        <ele>556.74</ele>
        <time>2021-08-12T09:40:42Z</time>
      </trkpt>
      <trkpt lat="47.18271" lon="4.15215">
        <ele>557.7</ele>
        <time>2021-08-12T09:40:52Z</time>
      </trkpt>
      <trkpt lat="47.18268" lon="4.15201">
        <ele>558.66</ele>
        <time>2021-08-12T09:40:59Z</time>
      </trkpt>
      <trkpt lat="47.18268" lon="4.15199">
        <ele>558.66</ele>
        <time>2021-08-12T09:41:00Z</time>
      </trkpt>
      <trkpt lat="47.18265" lon="4.15181">
        <ele>560.11</ele>
        <time>2021-08-12T09:41:09Z</time>
      </trkpt>
      <trkpt lat="47.18261" lon="4.15166">
        <ele>561.55</ele>
        <time>2021-08-12T09:41:17Z</time>
      </trkpt>
      <trkpt lat="47.18255" lon="4.15146">
        <ele>562.99</ele>
        <time>2021-08-12T09:41:26Z</time>
      </trkpt>
      <trkpt lat="47.18248" lon="4.15126">
        <ele>563.95</ele>
        <time>2021-08-12T09:41:35Z</time>
      </trkpt>
      <trkpt lat="47.18243" lon="4.15107">
        <ele>564.91</ele>
        <time>2021-08-12T09:41:44Z</time>
      </trkpt>
      <trkpt lat="47.18235" lon="4.15081">
        <ele>566.35</ele>
        <time>2021-08-12T09:41:54Z</time>
      </trkpt>
      <trkpt lat="47.18229" lon="4.15058">
        <ele>568.28</ele>
        <time>2021-08-12T09:42:03Z</time>
      </trkpt>
      <trkpt lat="47.18223" lon="4.15037">
        <ele>570.2</ele>
        <time>2021-08-12T09:42:12Z</time>
      </trkpt>
      <trkpt lat="47.18218" lon="4.15014">
        <ele>571.64</ele>
        <time>2021-08-12T09:42:22Z</time>
      </trkpt>
      <trkpt lat="47.18214" lon="4.14995">
        <ele>572.6</ele>
        <time>2021-08-12T09:42:30Z</time>
      </trkpt>
      <trkpt lat="47.18214" lon="4.14994">
        <ele>573.08</ele>
        <time>2021-08-12T09:42:35Z</time>
      </trkpt>
      <trkpt lat="47.18214" lon="4.14994">
        <ele>573.08</ele>
        <time>2021-08-12T09:42:42Z</time>
      </trkpt>
      <trkpt lat="47.18213" lon="4.14995">
        <ele>573.08</ele>
        <time>2021-08-12T09:43:01Z</time>
      </trkpt>
      <trkpt lat="47.18214" lon="4.14994">
        <ele>573.56</ele>
        <time>2021-08-12T09:43:28Z</time>
      </trkpt>
      <trkpt lat="47.18213" lon="4.14994">
        <ele>573.56</ele>
        <time>2021-08-12T09:43:44Z</time>
      </trkpt>
      <trkpt lat="47.18214" lon="4.14992">
        <ele>573.56</ele>
        <time>2021-08-12T09:44:02Z</time>
      </trkpt>
      <trkpt lat="47.18214" lon="4.14992">
        <ele>573.56</ele>
        <time>2021-08-12T09:44:12Z</time>
      </trkpt>
      <trkpt lat="47.18214" lon="4.14994">
        <ele>573.56</ele>
        <time>2021-08-12T09:44:31Z</time>
      </trkpt>
      <trkpt lat="47.18214" lon="4.14994">
        <ele>574.04</ele>
        <time>2021-08-12T09:44:51Z</time>
      </trkpt>
      <trkpt lat="47.18213" lon="4.14992">
        <ele>574.04</ele>
        <time>2021-08-12T09:45:12Z</time>
      </trkpt>
      <trkpt lat="47.18213" lon="4.1499">
        <ele>574.04</ele>
        <time>2021-08-12T09:45:29Z</time>
      </trkpt>
      <trkpt lat="47.18213" lon="4.14994">
        <ele>574.53</ele>
        <time>2021-08-12T09:45:47Z</time>
      </trkpt>
      <trkpt lat="47.18212" lon="4.14992">
        <ele>574.53</ele>
        <time>2021-08-12T09:45:59Z</time>
      </trkpt>
      <trkpt lat="47.18211" lon="4.14991">
        <ele>574.53</ele>
        <time>2021-08-12T09:46:00Z</time>
      </trkpt>
      <trkpt lat="47.18211" lon="4.14989">
        <ele>574.53</ele>
        <time>2021-08-12T09:46:06Z</time>
      </trkpt>
      <trkpt lat="47.18209" lon="4.14969">
        <ele>575.01</ele>
        <time>2021-08-12T09:46:14Z</time>
      </trkpt>
      <trkpt lat="47.18214" lon="4.14945">
        <ele>576.45</ele>
        <time>2021-08-12T09:46:22Z</time>
      </trkpt>
      <trkpt lat="47.18222" lon="4.14923">
        <ele>577.89</ele>
        <time>2021-08-12T09:46:31Z</time>
      </trkpt>
      <trkpt lat="47.18223" lon="4.1492">
        <ele>577.89</ele>
        <time>2021-08-12T09:46:33Z</time>
      </trkpt>
      <trkpt lat="47.18224" lon="4.14918">
        <ele>578.37</ele>
        <time>2021-08-12T09:46:34Z</time>
      </trkpt>
      <trkpt lat="47.18225" lon="4.14916">
        <ele>578.37</ele>
        <time>2021-08-12T09:46:35Z</time>
      </trkpt>
      <trkpt lat="47.18226" lon="4.14915">
        <ele>578.37</ele>
        <time>2021-08-12T09:46:36Z</time>
      </trkpt>
      <trkpt lat="47.18226" lon="4.14913">
        <ele>579.33</ele>
        <time>2021-08-12T09:46:37Z</time>
      </trkpt>
      <trkpt lat="47.18233" lon="4.14899">
        <ele>580.29</ele>
        <time>2021-08-12T09:46:45Z</time>
      </trkpt>
      <trkpt lat="47.18242" lon="4.14878">
        <ele>581.73</ele>
        <time>2021-08-12T09:46:56Z</time>
      </trkpt>
      <trkpt lat="47.18249" lon="4.14859">
        <ele>583.18</ele>
        <time>2021-08-12T09:47:06Z</time>
      </trkpt>
      <trkpt lat="47.18253" lon="4.14846">
        <ele>584.62</ele>
        <time>2021-08-12T09:47:14Z</time>
      </trkpt>
      <trkpt lat="47.18257" lon="4.14831">
        <ele>585.58</ele>
        <time>2021-08-12T09:47:22Z</time>
      </trkpt>
      <trkpt lat="47.18264" lon="4.1481">
        <ele>586.54</ele>
        <time>2021-08-12T09:47:30Z</time>
      </trkpt>
      <trkpt lat="47.18268" lon="4.14799">
        <ele>587.02</ele>
        <time>2021-08-12T09:47:34Z</time>
      </trkpt>
      <trkpt lat="47.18268" lon="4.14796">
        <ele>587.02</ele>
        <time>2021-08-12T09:47:35Z</time>
      </trkpt>
      <trkpt lat="47.18269" lon="4.14793">
        <ele>587.02</ele>
        <time>2021-08-12T09:47:36Z</time>
      </trkpt>
      <trkpt lat="47.18275" lon="4.14777">
        <ele>588.46</ele>
        <time>2021-08-12T09:47:42Z</time>
      </trkpt>
      <trkpt lat="47.18283" lon="4.14761">
        <ele>589.91</ele>
        <time>2021-08-12T09:47:49Z</time>
      </trkpt>
      <trkpt lat="47.18291" lon="4.14745">
        <ele>591.35</ele>
        <time>2021-08-12T09:47:56Z</time>
      </trkpt>
      <trkpt lat="47.18298" lon="4.14728">
        <ele>593.27</ele>
        <time>2021-08-12T09:48:05Z</time>
      </trkpt>
      <trkpt lat="47.18301" lon="4.14718">
        <ele>594.23</ele>
        <time>2021-08-12T09:48:12Z</time>
      </trkpt>
      <trkpt lat="47.18299" lon="4.14715">
        <ele>594.23</ele>
        <time>2021-08-12T09:48:25Z</time>
      </trkpt>
      <trkpt lat="47.18299" lon="4.14703">
        <ele>594.23</ele>
        <time>2021-08-12T09:48:30Z</time>
      </trkpt>
      <trkpt lat="47.183" lon="4.147">
        <ele>594.23</ele>
        <time>2021-08-12T09:48:31Z</time>
      </trkpt>
      <trkpt lat="47.183" lon="4.14697">
        <ele>594.23</ele>
        <time>2021-08-12T09:48:32Z</time>
      </trkpt>
      <trkpt lat="47.18301" lon="4.14694">
        <ele>594.71</ele>
        <time>2021-08-12T09:48:33Z</time>
      </trkpt>
      <trkpt lat="47.18301" lon="4.1469">
        <ele>595.19</ele>
        <time>2021-08-12T09:48:34Z</time>
      </trkpt>
      <trkpt lat="47.18302" lon="4.14686">
        <ele>595.19</ele>
        <time>2021-08-12T09:48:35Z</time>
      </trkpt>
      <trkpt lat="47.18303" lon="4.14682">
        <ele>595.19</ele>
        <time>2021-08-12T09:48:36Z</time>
      </trkpt>
      <trkpt lat="47.18304" lon="4.14679">
        <ele>595.19</ele>
        <time>2021-08-12T09:48:37Z</time>
      </trkpt>
      <trkpt lat="47.18305" lon="4.14676">
        <ele>595.19</ele>
        <time>2021-08-12T09:48:38Z</time>
      </trkpt>
      <trkpt lat="47.18312" lon="4.14657">
        <ele>597.12</ele>
        <time>2021-08-12T09:48:46Z</time>
      </trkpt>
      <trkpt lat="47.18321" lon="4.1464">
        <ele>598.56</ele>
        <time>2021-08-12T09:48:52Z</time>
      </trkpt>
      <trkpt lat="47.18327" lon="4.14627">
        <ele>599.04</ele>
        <time>2021-08-12T09:48:57Z</time>
      </trkpt>
      <trkpt lat="47.1833" lon="4.14619">
        <ele>599.52</ele>
        <time>2021-08-12T09:49:00Z</time>
      </trkpt>
      <trkpt lat="47.18331" lon="4.14613">
        <ele>599.52</ele>
        <time>2021-08-12T09:49:02Z</time>
      </trkpt>
      <trkpt lat="47.18332" lon="4.14609">
        <ele>600</ele>
        <time>2021-08-12T09:49:03Z</time>
      </trkpt>
      <trkpt lat="47.18332" lon="4.14606">
        <ele>600</ele>
        <time>2021-08-12T09:49:04Z</time>
      </trkpt>
      <trkpt lat="47.18334" lon="4.14603">
        <ele>600</ele>
        <time>2021-08-12T09:49:05Z</time>
      </trkpt>
      <trkpt lat="47.18335" lon="4.14601">
        <ele>600</ele>
        <time>2021-08-12T09:49:06Z</time>
      </trkpt>
      <trkpt lat="47.18346" lon="4.14575">
        <ele>600.96</ele>
        <time>2021-08-12T09:49:14Z</time>
      </trkpt>
      <trkpt lat="47.18365" lon="4.14551">
        <ele>601.92</ele>
        <time>2021-08-12T09:49:23Z</time>
      </trkpt>
      <trkpt lat="47.1838" lon="4.14526">
        <ele>602.4</ele>
        <time>2021-08-12T09:49:31Z</time>
      </trkpt>
      <trkpt lat="47.18389" lon="4.14505">
        <ele>602.88</ele>
        <time>2021-08-12T09:49:37Z</time>
      </trkpt>
      <trkpt lat="47.18403" lon="4.14479">
        <ele>602.88</ele>
        <time>2021-08-12T09:49:44Z</time>
      </trkpt>
      <trkpt lat="47.18422" lon="4.1446">
        <ele>602.88</ele>
        <time>2021-08-12T09:49:51Z</time>
      </trkpt>
      <trkpt lat="47.18443" lon="4.1444">
        <ele>604.81</ele>
        <time>2021-08-12T09:49:59Z</time>
      </trkpt>
      <trkpt lat="47.18457" lon="4.14427">
        <ele>605.29</ele>
        <time>2021-08-12T09:50:05Z</time>
      </trkpt>
      <trkpt lat="47.18472" lon="4.14407">
        <ele>605.77</ele>
        <time>2021-08-12T09:50:11Z</time>
      </trkpt>
      <trkpt lat="47.18489" lon="4.14385">
        <ele>606.25</ele>
        <time>2021-08-12T09:50:17Z</time>
      </trkpt>
      <trkpt lat="47.18505" lon="4.14371">
        <ele>606.73</ele>
        <time>2021-08-12T09:50:23Z</time>
      </trkpt>
      <trkpt lat="47.18523" lon="4.14362">
        <ele>607.69</ele>
        <time>2021-08-12T09:50:29Z</time>
      </trkpt>
      <trkpt lat="47.18545" lon="4.14354">
        <ele>608.17</ele>
        <time>2021-08-12T09:50:36Z</time>
      </trkpt>
      <trkpt lat="47.18553" lon="4.1435">
        <ele>608.65</ele>
        <time>2021-08-12T09:50:38Z</time>
      </trkpt>
      <trkpt lat="47.18556" lon="4.14349">
        <ele>609.13</ele>
        <time>2021-08-12T09:50:39Z</time>
      </trkpt>
      <trkpt lat="47.1856" lon="4.14349">
        <ele>609.13</ele>
        <time>2021-08-12T09:50:40Z</time>
      </trkpt>
      <trkpt lat="47.18576" lon="4.1435">
        <ele>610.09</ele>
        <time>2021-08-12T09:50:46Z</time>
      </trkpt>
      <trkpt lat="47.18579" lon="4.14349">
        <ele>611.06</ele>
        <time>2021-08-12T09:50:48Z</time>
      </trkpt>
      <trkpt lat="47.18579" lon="4.14347">
        <ele>611.06</ele>
        <time>2021-08-12T09:50:49Z</time>
      </trkpt>
      <trkpt lat="47.18579" lon="4.14344">
        <ele>611.06</ele>
        <time>2021-08-12T09:50:50Z</time>
      </trkpt>
      <trkpt lat="47.1858" lon="4.14341">
        <ele>611.06</ele>
        <time>2021-08-12T09:50:51Z</time>
      </trkpt>
      <trkpt lat="47.18581" lon="4.14339">
        <ele>611.06</ele>
        <time>2021-08-12T09:50:52Z</time>
      </trkpt>
      <trkpt lat="47.18584" lon="4.1432">
        <ele>612.98</ele>
        <time>2021-08-12T09:50:59Z</time>
      </trkpt>
      <trkpt lat="47.18584" lon="4.14318">
        <ele>612.98</ele>
        <time>2021-08-12T09:51:00Z</time>
      </trkpt>
      <trkpt lat="47.18584" lon="4.14315">
        <ele>612.98</ele>
        <time>2021-08-12T09:51:01Z</time>
      </trkpt>
      <trkpt lat="47.18585" lon="4.14312">
        <ele>613.46</ele>
        <time>2021-08-12T09:51:02Z</time>
      </trkpt>
      <trkpt lat="47.18585" lon="4.14309">
        <ele>613.46</ele>
        <time>2021-08-12T09:51:03Z</time>
      </trkpt>
      <trkpt lat="47.18586" lon="4.14298">
        <ele>613.94</ele>
        <time>2021-08-12T09:51:07Z</time>
      </trkpt>
      <trkpt lat="47.18586" lon="4.14295">
        <ele>614.42</ele>
        <time>2021-08-12T09:51:08Z</time>
      </trkpt>
      <trkpt lat="47.18587" lon="4.14293">
        <ele>614.42</ele>
        <time>2021-08-12T09:51:09Z</time>
      </trkpt>
      <trkpt lat="47.18592" lon="4.14267">
        <ele>615.86</ele>
        <time>2021-08-12T09:51:18Z</time>
      </trkpt>
      <trkpt lat="47.18593" lon="4.1425">
        <ele>617.78</ele>
        <time>2021-08-12T09:51:24Z</time>
      </trkpt>
      <trkpt lat="47.18592" lon="4.14232">
        <ele>618.75</ele>
        <time>2021-08-12T09:51:30Z</time>
      </trkpt>
      <trkpt lat="47.18596" lon="4.14207">
        <ele>619.71</ele>
        <time>2021-08-12T09:51:39Z</time>
      </trkpt>
      <trkpt lat="47.186" lon="4.14183">
        <ele>620.67</ele>
        <time>2021-08-12T09:51:47Z</time>
      </trkpt>
      <trkpt lat="47.18604" lon="4.14159">
        <ele>621.15</ele>
        <time>2021-08-12T09:51:54Z</time>
      </trkpt>
      <trkpt lat="47.1861" lon="4.14122">
        <ele>623.07</ele>
        <time>2021-08-12T09:52:02Z</time>
      </trkpt>
      <trkpt lat="47.18617" lon="4.14096">
        <ele>623.55</ele>
        <time>2021-08-12T09:52:09Z</time>
      </trkpt>
      <trkpt lat="47.1862" lon="4.14067">
        <ele>624.51</ele>
        <time>2021-08-12T09:52:16Z</time>
      </trkpt>
      <trkpt lat="47.18619" lon="4.14036">
        <ele>624.99</ele>
        <time>2021-08-12T09:52:23Z</time>
      </trkpt>
      <trkpt lat="47.18617" lon="4.14001">
        <ele>625.96</ele>
        <time>2021-08-12T09:52:31Z</time>
      </trkpt>
      <trkpt lat="47.18616" lon="4.1397">
        <ele>627.4</ele>
        <time>2021-08-12T09:52:38Z</time>
      </trkpt>
      <trkpt lat="47.18614" lon="4.13931">
        <ele>628.36</ele>
        <time>2021-08-12T09:52:47Z</time>
      </trkpt>
      <trkpt lat="47.18609" lon="4.13898">
        <ele>629.32</ele>
        <time>2021-08-12T09:52:54Z</time>
      </trkpt>
      <trkpt lat="47.18606" lon="4.13871">
        <ele>630.28</ele>
        <time>2021-08-12T09:53:00Z</time>
      </trkpt>
      <trkpt lat="47.18603" lon="4.13839">
        <ele>630.28</ele>
        <time>2021-08-12T09:53:07Z</time>
      </trkpt>
      <trkpt lat="47.18594" lon="4.13806">
        <ele>630.28</ele>
        <time>2021-08-12T09:53:14Z</time>
      </trkpt>
      <trkpt lat="47.18576" lon="4.13782">
        <ele>631.24</ele>
        <time>2021-08-12T09:53:22Z</time>
      </trkpt>
      <trkpt lat="47.18556" lon="4.13772">
        <ele>632.2</ele>
        <time>2021-08-12T09:53:28Z</time>
      </trkpt>
      <trkpt lat="47.18537" lon="4.13758">
        <ele>632.68</ele>
        <time>2021-08-12T09:53:35Z</time>
      </trkpt>
      <trkpt lat="47.18525" lon="4.13745">
        <ele>633.17</ele>
        <time>2021-08-12T09:53:40Z</time>
      </trkpt>
      <trkpt lat="47.18507" lon="4.13719">
        <ele>634.13</ele>
        <time>2021-08-12T09:53:48Z</time>
      </trkpt>
      <trkpt lat="47.18498" lon="4.13684">
        <ele>635.09</ele>
        <time>2021-08-12T09:53:56Z</time>
      </trkpt>
      <trkpt lat="47.18494" lon="4.13658">
        <ele>636.05</ele>
        <time>2021-08-12T09:54:01Z</time>
      </trkpt>
      <trkpt lat="47.18494" lon="4.13625">
        <ele>636.53</ele>
        <time>2021-08-12T09:54:08Z</time>
      </trkpt>
      <trkpt lat="47.18502" lon="4.136">
        <ele>638.45</ele>
        <time>2021-08-12T09:54:15Z</time>
      </trkpt>
      <trkpt lat="47.18511" lon="4.13582">
        <ele>639.89</ele>
        <time>2021-08-12T09:54:23Z</time>
      </trkpt>
      <trkpt lat="47.18519" lon="4.13565">
        <ele>641.34</ele>
        <time>2021-08-12T09:54:31Z</time>
      </trkpt>
      <trkpt lat="47.1852" lon="4.13558">
        <ele>642.3</ele>
        <time>2021-08-12T09:54:34Z</time>
      </trkpt>
      <trkpt lat="47.18519" lon="4.13557">
        <ele>642.78</ele>
        <time>2021-08-12T09:54:35Z</time>
      </trkpt>
      <trkpt lat="47.18518" lon="4.13555">
        <ele>642.78</ele>
        <time>2021-08-12T09:54:36Z</time>
      </trkpt>
      <trkpt lat="47.18516" lon="4.13555">
        <ele>642.78</ele>
        <time>2021-08-12T09:54:37Z</time>
      </trkpt>
      <trkpt lat="47.18514" lon="4.13554">
        <ele>642.78</ele>
        <time>2021-08-12T09:54:38Z</time>
      </trkpt>
      <trkpt lat="47.18512" lon="4.13553">
        <ele>642.78</ele>
        <time>2021-08-12T09:54:39Z</time>
      </trkpt>
      <trkpt lat="47.1851" lon="4.13552">
        <ele>642.78</ele>
        <time>2021-08-12T09:54:40Z</time>
      </trkpt>
      <trkpt lat="47.18508" lon="4.13551">
        <ele>642.78</ele>
        <time>2021-08-12T09:54:41Z</time>
      </trkpt>
      <trkpt lat="47.18506" lon="4.13551">
        <ele>642.78</ele>
        <time>2021-08-12T09:54:42Z</time>
      </trkpt>
      <trkpt lat="47.18503" lon="4.13551">
        <ele>642.78</ele>
        <time>2021-08-12T09:54:43Z</time>
      </trkpt>
      <trkpt lat="47.185" lon="4.13551">
        <ele>642.78</ele>
        <time>2021-08-12T09:54:44Z</time>
      </trkpt>
      <trkpt lat="47.18497" lon="4.1355">
        <ele>642.78</ele>
        <time>2021-08-12T09:54:45Z</time>
      </trkpt>
      <trkpt lat="47.18495" lon="4.13549">
        <ele>642.78</ele>
        <time>2021-08-12T09:54:46Z</time>
      </trkpt>
      <trkpt lat="47.18473" lon="4.13544">
        <ele>643.74</ele>
        <time>2021-08-12T09:54:55Z</time>
      </trkpt>
      <trkpt lat="47.18464" lon="4.13545">
        <ele>644.7</ele>
        <time>2021-08-12T09:55:00Z</time>
      </trkpt>
      <trkpt lat="47.18463" lon="4.13544">
        <ele>645.18</ele>
        <time>2021-08-12T09:55:01Z</time>
      </trkpt>
      <trkpt lat="47.18461" lon="4.13544">
        <ele>645.18</ele>
        <time>2021-08-12T09:55:02Z</time>
      </trkpt>
      <trkpt lat="47.1846" lon="4.13543">
        <ele>645.18</ele>
        <time>2021-08-12T09:55:03Z</time>
      </trkpt>
      <trkpt lat="47.18459" lon="4.13543">
        <ele>645.66</ele>
        <time>2021-08-12T09:55:04Z</time>
      </trkpt>
      <trkpt lat="47.18457" lon="4.13542">
        <ele>645.66</ele>
        <time>2021-08-12T09:55:05Z</time>
      </trkpt>
      <trkpt lat="47.18456" lon="4.13541">
        <ele>646.14</ele>
        <time>2021-08-12T09:55:06Z</time>
      </trkpt>
      <trkpt lat="47.18454" lon="4.1354">
        <ele>646.14</ele>
        <time>2021-08-12T09:55:07Z</time>
      </trkpt>
      <trkpt lat="47.18446" lon="4.13536">
        <ele>648.07</ele>
        <time>2021-08-12T09:55:15Z</time>
      </trkpt>
      <trkpt lat="47.18441" lon="4.13532">
        <ele>648.55</ele>
        <time>2021-08-12T09:55:21Z</time>
      </trkpt>
      <trkpt lat="47.18439" lon="4.13532">
        <ele>649.03</ele>
        <time>2021-08-12T09:55:22Z</time>
      </trkpt>
      <trkpt lat="47.18436" lon="4.1353">
        <ele>649.51</ele>
        <time>2021-08-12T09:55:25Z</time>
      </trkpt>
      <trkpt lat="47.18436" lon="4.1353">
        <ele>649.51</ele>
        <time>2021-08-12T09:55:26Z</time>
      </trkpt>
      <trkpt lat="47.18428" lon="4.13526">
        <ele>650.95</ele>
        <time>2021-08-12T09:55:33Z</time>
      </trkpt>
      <trkpt lat="47.1842" lon="4.13521">
        <ele>652.39</ele>
        <time>2021-08-12T09:55:41Z</time>
      </trkpt>
      <trkpt lat="47.18412" lon="4.13518">
        <ele>654.31</ele>
        <time>2021-08-12T09:55:48Z</time>
      </trkpt>
      <trkpt lat="47.18405" lon="4.13512">
        <ele>655.28</ele>
        <time>2021-08-12T09:55:54Z</time>
      </trkpt>
      <trkpt lat="47.18404" lon="4.13511">
        <ele>655.76</ele>
        <time>2021-08-12T09:55:55Z</time>
      </trkpt>
      <trkpt lat="47.18396" lon="4.13506">
        <ele>658.16</ele>
        <time>2021-08-12T09:56:03Z</time>
      </trkpt>
      <trkpt lat="47.18387" lon="4.13506">
        <ele>659.12</ele>
        <time>2021-08-12T09:56:09Z</time>
      </trkpt>
      <trkpt lat="47.18386" lon="4.13505">
        <ele>659.12</ele>
        <time>2021-08-12T09:56:10Z</time>
      </trkpt>
      <trkpt lat="47.18381" lon="4.13503">
        <ele>660.56</ele>
        <time>2021-08-12T09:56:15Z</time>
      </trkpt>
      <trkpt lat="47.18368" lon="4.13501">
        <ele>661.52</ele>
        <time>2021-08-12T09:56:24Z</time>
      </trkpt>
      <trkpt lat="47.18367" lon="4.135">
        <ele>661.52</ele>
        <time>2021-08-12T09:56:25Z</time>
      </trkpt>
      <trkpt lat="47.18365" lon="4.13499">
        <ele>661.52</ele>
        <time>2021-08-12T09:56:26Z</time>
      </trkpt>
      <trkpt lat="47.18364" lon="4.13498">
        <ele>661.52</ele>
        <time>2021-08-12T09:56:27Z</time>
      </trkpt>
      <trkpt lat="47.18361" lon="4.13497">
        <ele>661.52</ele>
        <time>2021-08-12T09:56:29Z</time>
      </trkpt>
      <trkpt lat="47.1836" lon="4.13496">
        <ele>662.01</ele>
        <time>2021-08-12T09:56:30Z</time>
      </trkpt>
      <trkpt lat="47.18358" lon="4.13495">
        <ele>662.01</ele>
        <time>2021-08-12T09:56:31Z</time>
      </trkpt>
      <trkpt lat="47.18355" lon="4.13493">
        <ele>662.49</ele>
        <time>2021-08-12T09:56:34Z</time>
      </trkpt>
      <trkpt lat="47.18353" lon="4.13491">
        <ele>662.49</ele>
        <time>2021-08-12T09:56:35Z</time>
      </trkpt>
      <trkpt lat="47.18343" lon="4.13483">
        <ele>662.97</ele>
        <time>2021-08-12T09:56:41Z</time>
      </trkpt>
      <trkpt lat="47.18341" lon="4.13482">
        <ele>662.97</ele>
        <time>2021-08-12T09:56:42Z</time>
      </trkpt>
      <trkpt lat="47.18339" lon="4.13481">
        <ele>662.97</ele>
        <time>2021-08-12T09:56:43Z</time>
      </trkpt>
      <trkpt lat="47.18337" lon="4.13479">
        <ele>662.97</ele>
        <time>2021-08-12T09:56:44Z</time>
      </trkpt>
      <trkpt lat="47.18335" lon="4.13477">
        <ele>662.97</ele>
        <time>2021-08-12T09:56:45Z</time>
      </trkpt>
      <trkpt lat="47.18333" lon="4.13474">
        <ele>662.97</ele>
        <time>2021-08-12T09:56:46Z</time>
      </trkpt>
      <trkpt lat="47.1833" lon="4.13472">
        <ele>662.97</ele>
        <time>2021-08-12T09:56:47Z</time>
      </trkpt>
      <trkpt lat="47.18327" lon="4.1347">
        <ele>662.97</ele>
        <time>2021-08-12T09:56:48Z</time>
      </trkpt>
      <trkpt lat="47.18325" lon="4.13468">
        <ele>662.97</ele>
        <time>2021-08-12T09:56:49Z</time>
      </trkpt>
      <trkpt lat="47.18322" lon="4.13465">
        <ele>662.97</ele>
        <time>2021-08-12T09:56:50Z</time>
      </trkpt>
      <trkpt lat="47.18319" lon="4.13463">
        <ele>662.97</ele>
        <time>2021-08-12T09:56:51Z</time>
      </trkpt>
      <trkpt lat="47.18298" lon="4.13443">
        <ele>662.97</ele>
        <time>2021-08-12T09:56:58Z</time>
      </trkpt>
      <trkpt lat="47.18273" lon="4.13434">
        <ele>660.56</ele>
        <time>2021-08-12T09:57:04Z</time>
      </trkpt>
      <trkpt lat="47.18267" lon="4.13435">
        <ele>660.56</ele>
        <time>2021-08-12T09:57:05Z</time>
      </trkpt>
      <trkpt lat="47.18236" lon="4.13441">
        <ele>657.2</ele>
        <time>2021-08-12T09:57:09Z</time>
      </trkpt>
      <trkpt lat="47.18216" lon="4.13446">
        <ele>656.24</ele>
        <time>2021-08-12T09:57:11Z</time>
      </trkpt>
      <trkpt lat="47.18197" lon="4.13451">
        <ele>655.76</ele>
        <time>2021-08-12T09:57:15Z</time>
      </trkpt>
      <trkpt lat="47.18196" lon="4.13449">
        <ele>655.76</ele>
        <time>2021-08-12T09:57:25Z</time>
      </trkpt>
      <trkpt lat="47.18189" lon="4.13453">
        <ele>655.76</ele>
        <time>2021-08-12T09:57:32Z</time>
      </trkpt>
      <trkpt lat="47.18175" lon="4.13456">
        <ele>654.8</ele>
        <time>2021-08-12T09:57:36Z</time>
      </trkpt>
      <trkpt lat="47.18173" lon="4.13453">
        <ele>654.31</ele>
        <time>2021-08-12T09:57:37Z</time>
      </trkpt>
      <trkpt lat="47.18172" lon="4.13449">
        <ele>654.31</ele>
        <time>2021-08-12T09:57:38Z</time>
      </trkpt>
      <trkpt lat="47.18173" lon="4.13446">
        <ele>654.31</ele>
        <time>2021-08-12T09:57:39Z</time>
      </trkpt>
      <trkpt lat="47.18173" lon="4.13442">
        <ele>654.31</ele>
        <time>2021-08-12T09:57:40Z</time>
      </trkpt>
      <trkpt lat="47.18174" lon="4.13409">
        <ele>655.76</ele>
        <time>2021-08-12T09:57:47Z</time>
      </trkpt>
      <trkpt lat="47.18174" lon="4.13378">
        <ele>657.2</ele>
        <time>2021-08-12T09:57:54Z</time>
      </trkpt>
      <trkpt lat="47.18171" lon="4.13344">
        <ele>658.16</ele>
        <time>2021-08-12T09:58:02Z</time>
      </trkpt>
      <trkpt lat="47.18168" lon="4.13307">
        <ele>659.12</ele>
        <time>2021-08-12T09:58:09Z</time>
      </trkpt>
      <trkpt lat="47.18164" lon="4.13278">
        <ele>659.12</ele>
        <time>2021-08-12T09:58:14Z</time>
      </trkpt>
      <trkpt lat="47.18161" lon="4.13266">
        <ele>659.12</ele>
        <time>2021-08-12T09:58:16Z</time>
      </trkpt>
      <trkpt lat="47.18156" lon="4.13255">
        <ele>659.12</ele>
        <time>2021-08-12T09:58:18Z</time>
      </trkpt>
      <trkpt lat="47.18154" lon="4.1325">
        <ele>659.12</ele>
        <time>2021-08-12T09:58:19Z</time>
      </trkpt>
      <trkpt lat="47.18145" lon="4.13236">
        <ele>659.12</ele>
        <time>2021-08-12T09:58:22Z</time>
      </trkpt>
      <trkpt lat="47.18129" lon="4.132">
        <ele>660.08</ele>
        <time>2021-08-12T09:58:30Z</time>
      </trkpt>
      <trkpt lat="47.1812" lon="4.13178">
        <ele>661.04</ele>
        <time>2021-08-12T09:58:36Z</time>
      </trkpt>
      <trkpt lat="47.18114" lon="4.13147">
        <ele>662.97</ele>
        <time>2021-08-12T09:58:44Z</time>
      </trkpt>
      <trkpt lat="47.18112" lon="4.13126">
        <ele>663.45</ele>
        <time>2021-08-12T09:58:49Z</time>
      </trkpt>
      <trkpt lat="47.1811" lon="4.13088">
        <ele>664.41</ele>
        <time>2021-08-12T09:58:57Z</time>
      </trkpt>
      <trkpt lat="47.1811" lon="4.1305">
        <ele>665.85</ele>
        <time>2021-08-12T09:59:05Z</time>
      </trkpt>
      <trkpt lat="47.18108" lon="4.13034">
        <ele>665.85</ele>
        <time>2021-08-12T09:59:09Z</time>
      </trkpt>
      <trkpt lat="47.18108" lon="4.13029">
        <ele>666.33</ele>
        <time>2021-08-12T09:59:10Z</time>
      </trkpt>
      <trkpt lat="47.18103" lon="4.12998">
        <ele>667.29</ele>
        <time>2021-08-12T09:59:16Z</time>
      </trkpt>
      <trkpt lat="47.18086" lon="4.12967">
        <ele>667.29</ele>
        <time>2021-08-12T09:59:22Z</time>
      </trkpt>
      <trkpt lat="47.18084" lon="4.12962">
        <ele>667.29</ele>
        <time>2021-08-12T09:59:23Z</time>
      </trkpt>
      <trkpt lat="47.18073" lon="4.12924">
        <ele>667.29</ele>
        <time>2021-08-12T09:59:30Z</time>
      </trkpt>
      <trkpt lat="47.18059" lon="4.1289">
        <ele>665.85</ele>
        <time>2021-08-12T09:59:37Z</time>
      </trkpt>
      <trkpt lat="47.18056" lon="4.12884">
        <ele>665.85</ele>
        <time>2021-08-12T09:59:38Z</time>
      </trkpt>
      <trkpt lat="47.18032" lon="4.1284">
        <ele>664.41</ele>
        <time>2021-08-12T09:59:46Z</time>
      </trkpt>
      <trkpt lat="47.18017" lon="4.12809">
        <ele>662.49</ele>
        <time>2021-08-12T09:59:51Z</time>
      </trkpt>
      <trkpt lat="47.18014" lon="4.12802">
        <ele>662.49</ele>
        <time>2021-08-12T09:59:52Z</time>
      </trkpt>
      <trkpt lat="47.18007" lon="4.1279">
        <ele>662.01</ele>
        <time>2021-08-12T09:59:54Z</time>
      </trkpt>
      <trkpt lat="47.18004" lon="4.12784">
        <ele>661.04</ele>
        <time>2021-08-12T09:59:55Z</time>
      </trkpt>
      <trkpt lat="47.18002" lon="4.12777">
        <ele>660.56</ele>
        <time>2021-08-12T09:59:56Z</time>
      </trkpt>
      <trkpt lat="47.17997" lon="4.12752">
        <ele>658.16</ele>
        <time>2021-08-12T09:59:59Z</time>
      </trkpt>
      <trkpt lat="47.17996" lon="4.12743">
        <ele>657.2</ele>
        <time>2021-08-12T10:00:00Z</time>
      </trkpt>
      <trkpt lat="47.17994" lon="4.12714">
        <ele>655.28</ele>
        <time>2021-08-12T10:00:03Z</time>
      </trkpt>
      <trkpt lat="47.17993" lon="4.12703">
        <ele>654.31</ele>
        <time>2021-08-12T10:00:04Z</time>
      </trkpt>
      <trkpt lat="47.17993" lon="4.12682">
        <ele>653.83</ele>
        <time>2021-08-12T10:00:06Z</time>
      </trkpt>
      <trkpt lat="47.17993" lon="4.12661">
        <ele>652.87</ele>
        <time>2021-08-12T10:00:08Z</time>
      </trkpt>
      <trkpt lat="47.17989" lon="4.12606">
        <ele>650.47</ele>
        <time>2021-08-12T10:00:13Z</time>
      </trkpt>
      <trkpt lat="47.17989" lon="4.1257">
        <ele>648.55</ele>
        <time>2021-08-12T10:00:16Z</time>
      </trkpt>
      <trkpt lat="47.17984" lon="4.12534">
        <ele>647.59</ele>
        <time>2021-08-12T10:00:19Z</time>
      </trkpt>
      <trkpt lat="47.1798" lon="4.12523">
        <ele>647.1</ele>
        <time>2021-08-12T10:00:20Z</time>
      </trkpt>
      <trkpt lat="47.17976" lon="4.12513">
        <ele>647.1</ele>
        <time>2021-08-12T10:00:21Z</time>
      </trkpt>
      <trkpt lat="47.17972" lon="4.12504">
        <ele>646.62</ele>
        <time>2021-08-12T10:00:22Z</time>
      </trkpt>
      <trkpt lat="47.17967" lon="4.12496">
        <ele>646.62</ele>
        <time>2021-08-12T10:00:23Z</time>
      </trkpt>
      <trkpt lat="47.17962" lon="4.12488">
        <ele>646.62</ele>
        <time>2021-08-12T10:00:24Z</time>
      </trkpt>
      <trkpt lat="47.17956" lon="4.12481">
        <ele>646.62</ele>
        <time>2021-08-12T10:00:25Z</time>
      </trkpt>
      <trkpt lat="47.17916" lon="4.12429">
        <ele>646.14</ele>
        <time>2021-08-12T10:00:33Z</time>
      </trkpt>
      <trkpt lat="47.17896" lon="4.12397">
        <ele>645.66</ele>
        <time>2021-08-12T10:00:38Z</time>
      </trkpt>
      <trkpt lat="47.17894" lon="4.1239">
        <ele>645.66</ele>
        <time>2021-08-12T10:00:39Z</time>
      </trkpt>
      <trkpt lat="47.1789" lon="4.12376">
        <ele>645.66</ele>
        <time>2021-08-12T10:00:41Z</time>
      </trkpt>
      <trkpt lat="47.17889" lon="4.1237">
        <ele>645.66</ele>
        <time>2021-08-12T10:00:42Z</time>
      </trkpt>
      <trkpt lat="47.17887" lon="4.12356">
        <ele>645.66</ele>
        <time>2021-08-12T10:00:44Z</time>
      </trkpt>
      <trkpt lat="47.17885" lon="4.12349">
        <ele>645.18</ele>
        <time>2021-08-12T10:00:45Z</time>
      </trkpt>
      <trkpt lat="47.17883" lon="4.12342">
        <ele>644.22</ele>
        <time>2021-08-12T10:00:46Z</time>
      </trkpt>
      <trkpt lat="47.1788" lon="4.12335">
        <ele>644.22</ele>
        <time>2021-08-12T10:00:47Z</time>
      </trkpt>
      <trkpt lat="47.17876" lon="4.12328">
        <ele>644.22</ele>
        <time>2021-08-12T10:00:48Z</time>
      </trkpt>
      <trkpt lat="47.17871" lon="4.12321">
        <ele>643.26</ele>
        <time>2021-08-12T10:00:49Z</time>
      </trkpt>
      <trkpt lat="47.17867" lon="4.12313">
        <ele>642.3</ele>
        <time>2021-08-12T10:00:50Z</time>
      </trkpt>
      <trkpt lat="47.17863" lon="4.12305">
        <ele>642.3</ele>
        <time>2021-08-12T10:00:51Z</time>
      </trkpt>
      <trkpt lat="47.1786" lon="4.12297">
        <ele>641.82</ele>
        <time>2021-08-12T10:00:52Z</time>
      </trkpt>
      <trkpt lat="47.17857" lon="4.12288">
        <ele>641.34</ele>
        <time>2021-08-12T10:00:53Z</time>
      </trkpt>
      <trkpt lat="47.17854" lon="4.12279">
        <ele>639.89</ele>
        <time>2021-08-12T10:00:54Z</time>
      </trkpt>
      <trkpt lat="47.17852" lon="4.12268">
        <ele>639.41</ele>
        <time>2021-08-12T10:00:55Z</time>
      </trkpt>
      <trkpt lat="47.17849" lon="4.12245">
        <ele>638.45</ele>
        <time>2021-08-12T10:00:57Z</time>
      </trkpt>
      <trkpt lat="47.17847" lon="4.12235">
        <ele>637.49</ele>
        <time>2021-08-12T10:00:58Z</time>
      </trkpt>
      <trkpt lat="47.1784" lon="4.12195">
        <ele>635.09</ele>
        <time>2021-08-12T10:01:02Z</time>
      </trkpt>
      <trkpt lat="47.1784" lon="4.12186">
        <ele>634.13</ele>
        <time>2021-08-12T10:01:03Z</time>
      </trkpt>
      <trkpt lat="47.1784" lon="4.12176">
        <ele>633.65</ele>
        <time>2021-08-12T10:01:04Z</time>
      </trkpt>
      <trkpt lat="47.1784" lon="4.12165">
        <ele>633.17</ele>
        <time>2021-08-12T10:01:05Z</time>
      </trkpt>
      <trkpt lat="47.17841" lon="4.12155">
        <ele>632.2</ele>
        <time>2021-08-12T10:01:06Z</time>
      </trkpt>
      <trkpt lat="47.17846" lon="4.1212">
        <ele>628.84</ele>
        <time>2021-08-12T10:01:09Z</time>
      </trkpt>
      <trkpt lat="47.17847" lon="4.12112">
        <ele>628.36</ele>
        <time>2021-08-12T10:01:10Z</time>
      </trkpt>
      <trkpt lat="47.1785" lon="4.12102">
        <ele>627.88</ele>
        <time>2021-08-12T10:01:11Z</time>
      </trkpt>
      <trkpt lat="47.17859" lon="4.12076">
        <ele>626.44</ele>
        <time>2021-08-12T10:01:14Z</time>
      </trkpt>
      <trkpt lat="47.17861" lon="4.12065">
        <ele>625.47</ele>
        <time>2021-08-12T10:01:15Z</time>
      </trkpt>
      <trkpt lat="47.17862" lon="4.12055">
        <ele>624.03</ele>
        <time>2021-08-12T10:01:16Z</time>
      </trkpt>
      <trkpt lat="47.17863" lon="4.12044">
        <ele>623.55</ele>
        <time>2021-08-12T10:01:17Z</time>
      </trkpt>
      <trkpt lat="47.17863" lon="4.12034">
        <ele>623.07</ele>
        <time>2021-08-12T10:01:18Z</time>
      </trkpt>
      <trkpt lat="47.17862" lon="4.12023">
        <ele>622.11</ele>
        <time>2021-08-12T10:01:19Z</time>
      </trkpt>
      <trkpt lat="47.1786" lon="4.12009">
        <ele>621.15</ele>
        <time>2021-08-12T10:01:20Z</time>
      </trkpt>
      <trkpt lat="47.17856" lon="4.11996">
        <ele>621.15</ele>
        <time>2021-08-12T10:01:21Z</time>
      </trkpt>
      <trkpt lat="47.17852" lon="4.11983">
        <ele>620.67</ele>
        <time>2021-08-12T10:01:22Z</time>
      </trkpt>
      <trkpt lat="47.17849" lon="4.1197">
        <ele>619.71</ele>
        <time>2021-08-12T10:01:23Z</time>
      </trkpt>
      <trkpt lat="47.17823" lon="4.11894">
        <ele>617.3</ele>
        <time>2021-08-12T10:01:29Z</time>
      </trkpt>
      <trkpt lat="47.17801" lon="4.11835">
        <ele>615.86</ele>
        <time>2021-08-12T10:01:34Z</time>
      </trkpt>
      <trkpt lat="47.17792" lon="4.11815">
        <ele>615.38</ele>
        <time>2021-08-12T10:01:36Z</time>
      </trkpt>
      <trkpt lat="47.1776" lon="4.11757">
        <ele>612.02</ele>
        <time>2021-08-12T10:01:42Z</time>
      </trkpt>
      <trkpt lat="47.17756" lon="4.11746">
        <ele>612.02</ele>
        <time>2021-08-12T10:01:43Z</time>
      </trkpt>
      <trkpt lat="47.17733" lon="4.11685">
        <ele>609.61</ele>
        <time>2021-08-12T10:01:49Z</time>
      </trkpt>
      <trkpt lat="47.17721" lon="4.11657">
        <ele>608.65</ele>
        <time>2021-08-12T10:01:52Z</time>
      </trkpt>
      <trkpt lat="47.17718" lon="4.11645">
        <ele>607.69</ele>
        <time>2021-08-12T10:01:53Z</time>
      </trkpt>
      <trkpt lat="47.1771" lon="4.11608">
        <ele>604.33</ele>
        <time>2021-08-12T10:01:56Z</time>
      </trkpt>
      <trkpt lat="47.177" lon="4.11569">
        <ele>601.44</ele>
        <time>2021-08-12T10:01:59Z</time>
      </trkpt>
      <trkpt lat="47.17697" lon="4.11557">
        <ele>601.44</ele>
        <time>2021-08-12T10:02:00Z</time>
      </trkpt>
      <trkpt lat="47.17691" lon="4.11522">
        <ele>600.48</ele>
        <time>2021-08-12T10:02:04Z</time>
      </trkpt>
      <trkpt lat="47.17689" lon="4.1152">
        <ele>600.48</ele>
        <time>2021-08-12T10:02:05Z</time>
      </trkpt>
      <trkpt lat="47.17687" lon="4.11519">
        <ele>600.48</ele>
        <time>2021-08-12T10:02:06Z</time>
      </trkpt>
      <trkpt lat="47.17677" lon="4.11516">
        <ele>600.96</ele>
        <time>2021-08-12T10:02:11Z</time>
      </trkpt>
      <trkpt lat="47.17674" lon="4.11517">
        <ele>600.96</ele>
        <time>2021-08-12T10:02:12Z</time>
      </trkpt>
      <trkpt lat="47.1767" lon="4.11518">
        <ele>600.96</ele>
        <time>2021-08-12T10:02:13Z</time>
      </trkpt>
      <trkpt lat="47.17667" lon="4.1152">
        <ele>600.96</ele>
        <time>2021-08-12T10:02:14Z</time>
      </trkpt>
      <trkpt lat="47.17664" lon="4.11521">
        <ele>600.96</ele>
        <time>2021-08-12T10:02:15Z</time>
      </trkpt>
      <trkpt lat="47.17651" lon="4.11527">
        <ele>602.4</ele>
        <time>2021-08-12T10:02:19Z</time>
      </trkpt>
      <trkpt lat="47.17626" lon="4.11552">
        <ele>602.88</ele>
        <time>2021-08-12T10:02:28Z</time>
      </trkpt>
      <trkpt lat="47.17616" lon="4.11587">
        <ele>603.85</ele>
        <time>2021-08-12T10:02:35Z</time>
      </trkpt>
      <trkpt lat="47.17607" lon="4.11634">
        <ele>604.81</ele>
        <time>2021-08-12T10:02:44Z</time>
      </trkpt>
      <trkpt lat="47.17613" lon="4.11666">
        <ele>605.29</ele>
        <time>2021-08-12T10:02:50Z</time>
      </trkpt>
      <trkpt lat="47.17626" lon="4.11705">
        <ele>606.25</ele>
        <time>2021-08-12T10:02:57Z</time>
      </trkpt>
      <trkpt lat="47.17636" lon="4.1174">
        <ele>606.25</ele>
        <time>2021-08-12T10:03:03Z</time>
      </trkpt>
      <trkpt lat="47.17637" lon="4.11747">
        <ele>606.25</ele>
        <time>2021-08-12T10:03:04Z</time>
      </trkpt>
      <trkpt lat="47.17637" lon="4.11752">
        <ele>606.25</ele>
        <time>2021-08-12T10:03:05Z</time>
      </trkpt>
      <trkpt lat="47.17637" lon="4.11759">
        <ele>606.25</ele>
        <time>2021-08-12T10:03:06Z</time>
      </trkpt>
      <trkpt lat="47.17637" lon="4.11766">
        <ele>606.25</ele>
        <time>2021-08-12T10:03:07Z</time>
      </trkpt>
      <trkpt lat="47.17629" lon="4.11794">
        <ele>606.73</ele>
        <time>2021-08-12T10:03:12Z</time>
      </trkpt>
      <trkpt lat="47.17614" lon="4.11817">
        <ele>607.69</ele>
        <time>2021-08-12T10:03:18Z</time>
      </trkpt>
      <trkpt lat="47.17591" lon="4.11842">
        <ele>606.25</ele>
        <time>2021-08-12T10:03:25Z</time>
      </trkpt>
      <trkpt lat="47.17581" lon="4.11852">
        <ele>605.29</ele>
        <time>2021-08-12T10:03:27Z</time>
      </trkpt>
      <trkpt lat="47.17559" lon="4.11869">
        <ele>604.33</ele>
        <time>2021-08-12T10:03:31Z</time>
      </trkpt>
      <trkpt lat="47.17553" lon="4.11872">
        <ele>604.33</ele>
        <time>2021-08-12T10:03:32Z</time>
      </trkpt>
      <trkpt lat="47.17547" lon="4.11874">
        <ele>604.33</ele>
        <time>2021-08-12T10:03:33Z</time>
      </trkpt>
      <trkpt lat="47.17541" lon="4.11875">
        <ele>604.33</ele>
        <time>2021-08-12T10:03:34Z</time>
      </trkpt>
      <trkpt lat="47.17535" lon="4.11874">
        <ele>604.33</ele>
        <time>2021-08-12T10:03:35Z</time>
      </trkpt>
      <trkpt lat="47.1753" lon="4.11873">
        <ele>604.33</ele>
        <time>2021-08-12T10:03:36Z</time>
      </trkpt>
      <trkpt lat="47.17524" lon="4.1187">
        <ele>603.85</ele>
        <time>2021-08-12T10:03:37Z</time>
      </trkpt>
      <trkpt lat="47.1752" lon="4.11867">
        <ele>603.85</ele>
        <time>2021-08-12T10:03:38Z</time>
      </trkpt>
      <trkpt lat="47.17517" lon="4.11864">
        <ele>603.85</ele>
        <time>2021-08-12T10:03:39Z</time>
      </trkpt>
      <trkpt lat="47.17514" lon="4.1186">
        <ele>605.29</ele>
        <time>2021-08-12T10:03:40Z</time>
      </trkpt>
      <trkpt lat="47.17511" lon="4.11857">
        <ele>605.77</ele>
        <time>2021-08-12T10:03:41Z</time>
      </trkpt>
      <trkpt lat="47.17508" lon="4.11853">
        <ele>605.77</ele>
        <time>2021-08-12T10:03:42Z</time>
      </trkpt>
      <trkpt lat="47.17507" lon="4.1185">
        <ele>606.25</ele>
        <time>2021-08-12T10:03:43Z</time>
      </trkpt>
      <trkpt lat="47.17505" lon="4.11847">
        <ele>606.73</ele>
        <time>2021-08-12T10:03:44Z</time>
      </trkpt>
      <trkpt lat="47.17492" lon="4.11831">
        <ele>608.17</ele>
        <time>2021-08-12T10:03:50Z</time>
      </trkpt>
      <trkpt lat="47.1749" lon="4.11829">
        <ele>608.17</ele>
        <time>2021-08-12T10:03:51Z</time>
      </trkpt>
      <trkpt lat="47.17487" lon="4.11826">
        <ele>608.65</ele>
        <time>2021-08-12T10:03:52Z</time>
      </trkpt>
      <trkpt lat="47.17471" lon="4.11798">
        <ele>610.09</ele>
        <time>2021-08-12T10:03:59Z</time>
      </trkpt>
      <trkpt lat="47.17444" lon="4.11754">
        <ele>610.57</ele>
        <time>2021-08-12T10:04:10Z</time>
      </trkpt>
      <trkpt lat="47.17413" lon="4.11702">
        <ele>610.57</ele>
        <time>2021-08-12T10:04:21Z</time>
      </trkpt>
      <trkpt lat="47.1739" lon="4.11667">
        <ele>610.57</ele>
        <time>2021-08-12T10:04:28Z</time>
      </trkpt>
      <trkpt lat="47.17386" lon="4.11664">
        <ele>610.57</ele>
        <time>2021-08-12T10:04:29Z</time>
      </trkpt>
      <trkpt lat="47.17381" lon="4.11661">
        <ele>610.57</ele>
        <time>2021-08-12T10:04:30Z</time>
      </trkpt>
      <trkpt lat="47.17358" lon="4.11651">
        <ele>612.5</ele>
        <time>2021-08-12T10:04:37Z</time>
      </trkpt>
      <trkpt lat="47.1734" lon="4.11643">
        <ele>613.94</ele>
        <time>2021-08-12T10:04:45Z</time>
      </trkpt>
      <trkpt lat="47.17314" lon="4.11636">
        <ele>615.86</ele>
        <time>2021-08-12T10:04:56Z</time>
      </trkpt>
      <trkpt lat="47.17301" lon="4.11639">
        <ele>616.34</ele>
        <time>2021-08-12T10:05:02Z</time>
      </trkpt>
      <trkpt lat="47.17288" lon="4.11645">
        <ele>618.26</ele>
        <time>2021-08-12T10:05:09Z</time>
      </trkpt>
      <trkpt lat="47.17272" lon="4.11653">
        <ele>619.23</ele>
        <time>2021-08-12T10:05:18Z</time>
      </trkpt>
      <trkpt lat="47.17257" lon="4.1166">
        <ele>620.67</ele>
        <time>2021-08-12T10:05:26Z</time>
      </trkpt>
      <trkpt lat="47.1724" lon="4.1167">
        <ele>622.11</ele>
        <time>2021-08-12T10:05:35Z</time>
      </trkpt>
      <trkpt lat="47.17222" lon="4.1168">
        <ele>624.03</ele>
        <time>2021-08-12T10:05:44Z</time>
      </trkpt>
      <trkpt lat="47.17202" lon="4.1169">
        <ele>624.99</ele>
        <time>2021-08-12T10:05:54Z</time>
      </trkpt>
      <trkpt lat="47.17178" lon="4.11703">
        <ele>626.44</ele>
        <time>2021-08-12T10:06:04Z</time>
      </trkpt>
      <trkpt lat="47.17152" lon="4.11715">
        <ele>626.44</ele>
        <time>2021-08-12T10:06:12Z</time>
      </trkpt>
      <trkpt lat="47.17119" lon="4.11735">
        <ele>625.96</ele>
        <time>2021-08-12T10:06:21Z</time>
      </trkpt>
      <trkpt lat="47.171" lon="4.11748">
        <ele>626.44</ele>
        <time>2021-08-12T10:06:27Z</time>
      </trkpt>
      <trkpt lat="47.17083" lon="4.11758">
        <ele>627.88</ele>
        <time>2021-08-12T10:06:34Z</time>
      </trkpt>
      <trkpt lat="47.17069" lon="4.1176">
        <ele>629.32</ele>
        <time>2021-08-12T10:06:42Z</time>
      </trkpt>
      <trkpt lat="47.17063" lon="4.11761">
        <ele>629.8</ele>
        <time>2021-08-12T10:06:45Z</time>
      </trkpt>
      <trkpt lat="47.17061" lon="4.11761">
        <ele>630.28</ele>
        <time>2021-08-12T10:06:46Z</time>
      </trkpt>
      <trkpt lat="47.1706" lon="4.11761">
        <ele>630.28</ele>
        <time>2021-08-12T10:06:47Z</time>
      </trkpt>
      <trkpt lat="47.17057" lon="4.11761">
        <ele>630.28</ele>
        <time>2021-08-12T10:06:48Z</time>
      </trkpt>
      <trkpt lat="47.17056" lon="4.11762">
        <ele>630.76</ele>
        <time>2021-08-12T10:06:49Z</time>
      </trkpt>
      <trkpt lat="47.17054" lon="4.11762">
        <ele>630.76</ele>
        <time>2021-08-12T10:06:50Z</time>
      </trkpt>
      <trkpt lat="47.17051" lon="4.11762">
        <ele>631.24</ele>
        <time>2021-08-12T10:06:51Z</time>
      </trkpt>
      <trkpt lat="47.17049" lon="4.11763">
        <ele>631.24</ele>
        <time>2021-08-12T10:06:52Z</time>
      </trkpt>
      <trkpt lat="47.17046" lon="4.11764">
        <ele>631.24</ele>
        <time>2021-08-12T10:06:53Z</time>
      </trkpt>
      <trkpt lat="47.17044" lon="4.11765">
        <ele>631.24</ele>
        <time>2021-08-12T10:06:54Z</time>
      </trkpt>
      <trkpt lat="47.17042" lon="4.11766">
        <ele>631.24</ele>
        <time>2021-08-12T10:06:55Z</time>
      </trkpt>
      <trkpt lat="47.17039" lon="4.11767">
        <ele>631.72</ele>
        <time>2021-08-12T10:06:56Z</time>
      </trkpt>
      <trkpt lat="47.17037" lon="4.11768">
        <ele>631.72</ele>
        <time>2021-08-12T10:06:57Z</time>
      </trkpt>
      <trkpt lat="47.17017" lon="4.11775">
        <ele>632.68</ele>
        <time>2021-08-12T10:07:05Z</time>
      </trkpt>
      <trkpt lat="47.16993" lon="4.11779">
        <ele>632.2</ele>
        <time>2021-08-12T10:07:12Z</time>
      </trkpt>
      <trkpt lat="47.16968" lon="4.11788">
        <ele>632.68</ele>
        <time>2021-08-12T10:07:19Z</time>
      </trkpt>
      <trkpt lat="47.16932" lon="4.11813">
        <ele>632.68</ele>
        <time>2021-08-12T10:07:29Z</time>
      </trkpt>
      <trkpt lat="47.16909" lon="4.1183">
        <ele>634.13</ele>
        <time>2021-08-12T10:07:36Z</time>
      </trkpt>
      <trkpt lat="47.16897" lon="4.11844">
        <ele>635.09</ele>
        <time>2021-08-12T10:07:41Z</time>
      </trkpt>
      <trkpt lat="47.1688" lon="4.11856">
        <ele>636.05</ele>
        <time>2021-08-12T10:07:49Z</time>
      </trkpt>
      <trkpt lat="47.16861" lon="4.11864">
        <ele>637.49</ele>
        <time>2021-08-12T10:07:57Z</time>
      </trkpt>
      <trkpt lat="47.1685" lon="4.11875">
        <ele>637.49</ele>
        <time>2021-08-12T10:08:01Z</time>
      </trkpt>
      <trkpt lat="47.16847" lon="4.11881">
        <ele>636.05</ele>
        <time>2021-08-12T10:08:02Z</time>
      </trkpt>
      <trkpt lat="47.16845" lon="4.11887">
        <ele>635.09</ele>
        <time>2021-08-12T10:08:03Z</time>
      </trkpt>
      <trkpt lat="47.16843" lon="4.11895">
        <ele>634.61</ele>
        <time>2021-08-12T10:08:04Z</time>
      </trkpt>
      <trkpt lat="47.16842" lon="4.11903">
        <ele>634.61</ele>
        <time>2021-08-12T10:08:05Z</time>
      </trkpt>
      <trkpt lat="47.16841" lon="4.1191">
        <ele>634.61</ele>
        <time>2021-08-12T10:08:06Z</time>
      </trkpt>
      <trkpt lat="47.16839" lon="4.11918">
        <ele>634.61</ele>
        <time>2021-08-12T10:08:07Z</time>
      </trkpt>
      <trkpt lat="47.16836" lon="4.11924">
        <ele>634.13</ele>
        <time>2021-08-12T10:08:08Z</time>
      </trkpt>
      <trkpt lat="47.16833" lon="4.11928">
        <ele>634.13</ele>
        <time>2021-08-12T10:08:09Z</time>
      </trkpt>
      <trkpt lat="47.16829" lon="4.1193">
        <ele>634.13</ele>
        <time>2021-08-12T10:08:10Z</time>
      </trkpt>
      <trkpt lat="47.16824" lon="4.11931">
        <ele>634.13</ele>
        <time>2021-08-12T10:08:11Z</time>
      </trkpt>
      <trkpt lat="47.16821" lon="4.1193">
        <ele>634.13</ele>
        <time>2021-08-12T10:08:12Z</time>
      </trkpt>
      <trkpt lat="47.16817" lon="4.11929">
        <ele>634.13</ele>
        <time>2021-08-12T10:08:13Z</time>
      </trkpt>
      <trkpt lat="47.16814" lon="4.11927">
        <ele>634.13</ele>
        <time>2021-08-12T10:08:14Z</time>
      </trkpt>
      <trkpt lat="47.1681" lon="4.11925">
        <ele>635.57</ele>
        <time>2021-08-12T10:08:15Z</time>
      </trkpt>
      <trkpt lat="47.16807" lon="4.11923">
        <ele>635.57</ele>
        <time>2021-08-12T10:08:16Z</time>
      </trkpt>
      <trkpt lat="47.16781" lon="4.1191">
        <ele>636.05</ele>
        <time>2021-08-12T10:08:24Z</time>
      </trkpt>
      <trkpt lat="47.16756" lon="4.11907">
        <ele>636.53</ele>
        <time>2021-08-12T10:08:30Z</time>
      </trkpt>
      <trkpt lat="47.16748" lon="4.11907">
        <ele>636.53</ele>
        <time>2021-08-12T10:08:32Z</time>
      </trkpt>
      <trkpt lat="47.16743" lon="4.11908">
        <ele>636.53</ele>
        <time>2021-08-12T10:08:33Z</time>
      </trkpt>
      <trkpt lat="47.16739" lon="4.11909">
        <ele>636.53</ele>
        <time>2021-08-12T10:08:34Z</time>
      </trkpt>
      <trkpt lat="47.16736" lon="4.11912">
        <ele>636.53</ele>
        <time>2021-08-12T10:08:35Z</time>
      </trkpt>
      <trkpt lat="47.16733" lon="4.11915">
        <ele>636.53</ele>
        <time>2021-08-12T10:08:36Z</time>
      </trkpt>
      <trkpt lat="47.1673" lon="4.11919">
        <ele>636.53</ele>
        <time>2021-08-12T10:08:37Z</time>
      </trkpt>
      <trkpt lat="47.16728" lon="4.11923">
        <ele>636.53</ele>
        <time>2021-08-12T10:08:38Z</time>
      </trkpt>
      <trkpt lat="47.16727" lon="4.11928">
        <ele>637.01</ele>
        <time>2021-08-12T10:08:39Z</time>
      </trkpt>
      <trkpt lat="47.16725" lon="4.11933">
        <ele>637.01</ele>
        <time>2021-08-12T10:08:40Z</time>
      </trkpt>
      <trkpt lat="47.16714" lon="4.11975">
        <ele>638.93</ele>
        <time>2021-08-12T10:08:48Z</time>
      </trkpt>
      <trkpt lat="47.16695" lon="4.11994">
        <ele>640.38</ele>
        <time>2021-08-12T10:08:55Z</time>
      </trkpt>
      <trkpt lat="47.16673" lon="4.11991">
        <ele>640.38</ele>
        <time>2021-08-12T10:09:02Z</time>
      </trkpt>
      <trkpt lat="47.16657" lon="4.11997">
        <ele>638.45</ele>
        <time>2021-08-12T10:09:06Z</time>
      </trkpt>
      <trkpt lat="47.16652" lon="4.12">
        <ele>637.97</ele>
        <time>2021-08-12T10:09:07Z</time>
      </trkpt>
      <trkpt lat="47.16633" lon="4.12007">
        <ele>636.53</ele>
        <time>2021-08-12T10:09:10Z</time>
      </trkpt>
      <trkpt lat="47.166" lon="4.12013">
        <ele>632.68</ele>
        <time>2021-08-12T10:09:14Z</time>
      </trkpt>
      <trkpt lat="47.16591" lon="4.12014">
        <ele>632.68</ele>
        <time>2021-08-12T10:09:15Z</time>
      </trkpt>
      <trkpt lat="47.16547" lon="4.12029">
        <ele>631.24</ele>
        <time>2021-08-12T10:09:20Z</time>
      </trkpt>
      <trkpt lat="47.1651" lon="4.12042">
        <ele>631.24</ele>
        <time>2021-08-12T10:09:25Z</time>
      </trkpt>
      <trkpt lat="47.16505" lon="4.12046">
        <ele>631.24</ele>
        <time>2021-08-12T10:09:26Z</time>
      </trkpt>
      <trkpt lat="47.16499" lon="4.12053">
        <ele>632.2</ele>
        <time>2021-08-12T10:09:27Z</time>
      </trkpt>
      <trkpt lat="47.16495" lon="4.1206">
        <ele>632.68</ele>
        <time>2021-08-12T10:09:28Z</time>
      </trkpt>
      <trkpt lat="47.16493" lon="4.12066">
        <ele>632.68</ele>
        <time>2021-08-12T10:09:29Z</time>
      </trkpt>
      <trkpt lat="47.1649" lon="4.12074">
        <ele>632.68</ele>
        <time>2021-08-12T10:09:30Z</time>
      </trkpt>
      <trkpt lat="47.16488" lon="4.12082">
        <ele>632.68</ele>
        <time>2021-08-12T10:09:31Z</time>
      </trkpt>
      <trkpt lat="47.16478" lon="4.12118">
        <ele>631.24</ele>
        <time>2021-08-12T10:09:35Z</time>
      </trkpt>
      <trkpt lat="47.16467" lon="4.12145">
        <ele>629.32</ele>
        <time>2021-08-12T10:09:38Z</time>
      </trkpt>
      <trkpt lat="47.16438" lon="4.12201">
        <ele>626.92</ele>
        <time>2021-08-12T10:09:44Z</time>
      </trkpt>
      <trkpt lat="47.16432" lon="4.12208">
        <ele>626.92</ele>
        <time>2021-08-12T10:09:45Z</time>
      </trkpt>
      <trkpt lat="47.16425" lon="4.12213">
        <ele>626.92</ele>
        <time>2021-08-12T10:09:46Z</time>
      </trkpt>
      <trkpt lat="47.16367" lon="4.12246">
        <ele>623.07</ele>
        <time>2021-08-12T10:09:54Z</time>
      </trkpt>
      <trkpt lat="47.16352" lon="4.12258">
        <ele>622.59</ele>
        <time>2021-08-12T10:09:56Z</time>
      </trkpt>
      <trkpt lat="47.16346" lon="4.12267">
        <ele>621.63</ele>
        <time>2021-08-12T10:09:57Z</time>
      </trkpt>
      <trkpt lat="47.1634" lon="4.12276">
        <ele>621.63</ele>
        <time>2021-08-12T10:09:58Z</time>
      </trkpt>
      <trkpt lat="47.16336" lon="4.12286">
        <ele>621.63</ele>
        <time>2021-08-12T10:09:59Z</time>
      </trkpt>
      <trkpt lat="47.16332" lon="4.12296">
        <ele>621.63</ele>
        <time>2021-08-12T10:10:00Z</time>
      </trkpt>
      <trkpt lat="47.16316" lon="4.12346">
        <ele>624.03</ele>
        <time>2021-08-12T10:10:06Z</time>
      </trkpt>
      <trkpt lat="47.16315" lon="4.12355">
        <ele>623.07</ele>
        <time>2021-08-12T10:10:07Z</time>
      </trkpt>
      <trkpt lat="47.16315" lon="4.12366">
        <ele>622.11</ele>
        <time>2021-08-12T10:10:08Z</time>
      </trkpt>
      <trkpt lat="47.16315" lon="4.12388">
        <ele>621.15</ele>
        <time>2021-08-12T10:10:10Z</time>
      </trkpt>
      <trkpt lat="47.16314" lon="4.124">
        <ele>620.19</ele>
        <time>2021-08-12T10:10:11Z</time>
      </trkpt>
      <trkpt lat="47.16313" lon="4.12412">
        <ele>619.71</ele>
        <time>2021-08-12T10:10:12Z</time>
      </trkpt>
      <trkpt lat="47.16311" lon="4.12424">
        <ele>618.75</ele>
        <time>2021-08-12T10:10:13Z</time>
      </trkpt>
      <trkpt lat="47.16307" lon="4.12436">
        <ele>618.26</ele>
        <time>2021-08-12T10:10:14Z</time>
      </trkpt>
      <trkpt lat="47.16303" lon="4.12448">
        <ele>617.78</ele>
        <time>2021-08-12T10:10:15Z</time>
      </trkpt>
      <trkpt lat="47.16299" lon="4.12458">
        <ele>617.78</ele>
        <time>2021-08-12T10:10:16Z</time>
      </trkpt>
      <trkpt lat="47.16261" lon="4.12546">
        <ele>616.82</ele>
        <time>2021-08-12T10:10:24Z</time>
      </trkpt>
      <trkpt lat="47.16258" lon="4.12557">
        <ele>616.82</ele>
        <time>2021-08-12T10:10:25Z</time>
      </trkpt>
      <trkpt lat="47.16257" lon="4.12568">
        <ele>616.82</ele>
        <time>2021-08-12T10:10:26Z</time>
      </trkpt>
      <trkpt lat="47.16256" lon="4.12579">
        <ele>616.82</ele>
        <time>2021-08-12T10:10:27Z</time>
      </trkpt>
      <trkpt lat="47.16256" lon="4.12589">
        <ele>616.82</ele>
        <time>2021-08-12T10:10:28Z</time>
      </trkpt>
      <trkpt lat="47.16256" lon="4.12598">
        <ele>616.82</ele>
        <time>2021-08-12T10:10:29Z</time>
      </trkpt>
      <trkpt lat="47.16256" lon="4.12605">
        <ele>618.26</ele>
        <time>2021-08-12T10:10:30Z</time>
      </trkpt>
      <trkpt lat="47.16255" lon="4.12617">
        <ele>619.23</ele>
        <time>2021-08-12T10:10:32Z</time>
      </trkpt>
      <trkpt lat="47.16254" lon="4.12627">
        <ele>620.67</ele>
        <time>2021-08-12T10:10:35Z</time>
      </trkpt>
      <trkpt lat="47.16251" lon="4.12642">
        <ele>622.59</ele>
        <time>2021-08-12T10:10:42Z</time>
      </trkpt>
      <trkpt lat="47.16245" lon="4.12663">
        <ele>623.55</ele>
        <time>2021-08-12T10:10:49Z</time>
      </trkpt>
      <trkpt lat="47.16238" lon="4.12693">
        <ele>624.51</ele>
        <time>2021-08-12T10:10:58Z</time>
      </trkpt>
      <trkpt lat="47.16228" lon="4.12723">
        <ele>624.99</ele>
        <time>2021-08-12T10:11:07Z</time>
      </trkpt>
      <trkpt lat="47.16218" lon="4.12746">
        <ele>625.96</ele>
        <time>2021-08-12T10:11:14Z</time>
      </trkpt>
      <trkpt lat="47.16198" lon="4.12778">
        <ele>626.44</ele>
        <time>2021-08-12T10:11:22Z</time>
      </trkpt>
      <trkpt lat="47.1617" lon="4.12815">
        <ele>625.96</ele>
        <time>2021-08-12T10:11:31Z</time>
      </trkpt>
      <trkpt lat="47.16164" lon="4.12823">
        <ele>625.96</ele>
        <time>2021-08-12T10:11:33Z</time>
      </trkpt>
      <trkpt lat="47.16161" lon="4.12828">
        <ele>625.96</ele>
        <time>2021-08-12T10:11:34Z</time>
      </trkpt>
      <trkpt lat="47.16156" lon="4.12839">
        <ele>626.44</ele>
        <time>2021-08-12T10:11:36Z</time>
      </trkpt>
      <trkpt lat="47.16153" lon="4.12845">
        <ele>626.44</ele>
        <time>2021-08-12T10:11:37Z</time>
      </trkpt>
      <trkpt lat="47.16151" lon="4.12851">
        <ele>626.44</ele>
        <time>2021-08-12T10:11:38Z</time>
      </trkpt>
      <trkpt lat="47.16148" lon="4.12863">
        <ele>626.44</ele>
        <time>2021-08-12T10:11:40Z</time>
      </trkpt>
      <trkpt lat="47.16147" lon="4.12876">
        <ele>626.44</ele>
        <time>2021-08-12T10:11:42Z</time>
      </trkpt>
      <trkpt lat="47.16145" lon="4.12911">
        <ele>626.92</ele>
        <time>2021-08-12T10:11:47Z</time>
      </trkpt>
      <trkpt lat="47.16143" lon="4.12916">
        <ele>626.44</ele>
        <time>2021-08-12T10:11:48Z</time>
      </trkpt>
      <trkpt lat="47.1614" lon="4.1292">
        <ele>626.44</ele>
        <time>2021-08-12T10:11:49Z</time>
      </trkpt>
      <trkpt lat="47.16137" lon="4.12922">
        <ele>626.44</ele>
        <time>2021-08-12T10:11:50Z</time>
      </trkpt>
      <trkpt lat="47.16134" lon="4.12922">
        <ele>626.44</ele>
        <time>2021-08-12T10:11:51Z</time>
      </trkpt>
      <trkpt lat="47.16132" lon="4.12921">
        <ele>626.44</ele>
        <time>2021-08-12T10:11:52Z</time>
      </trkpt>
      <trkpt lat="47.1613" lon="4.12919">
        <ele>627.4</ele>
        <time>2021-08-12T10:11:53Z</time>
      </trkpt>
      <trkpt lat="47.16127" lon="4.12918">
        <ele>627.4</ele>
        <time>2021-08-12T10:11:54Z</time>
      </trkpt>
      <trkpt lat="47.16125" lon="4.12916">
        <ele>627.4</ele>
        <time>2021-08-12T10:11:55Z</time>
      </trkpt>
      <trkpt lat="47.16122" lon="4.12914">
        <ele>627.4</ele>
        <time>2021-08-12T10:11:56Z</time>
      </trkpt>
      <trkpt lat="47.1612" lon="4.12912">
        <ele>627.4</ele>
        <time>2021-08-12T10:11:57Z</time>
      </trkpt>
      <trkpt lat="47.16118" lon="4.1291">
        <ele>627.4</ele>
        <time>2021-08-12T10:11:58Z</time>
      </trkpt>
      <trkpt lat="47.16097" lon="4.12888">
        <ele>629.32</ele>
        <time>2021-08-12T10:12:07Z</time>
      </trkpt>
      <trkpt lat="47.1608" lon="4.12868">
        <ele>630.76</ele>
        <time>2021-08-12T10:12:15Z</time>
      </trkpt>
      <trkpt lat="47.16067" lon="4.12848">
        <ele>631.72</ele>
        <time>2021-08-12T10:12:22Z</time>
      </trkpt>
      <trkpt lat="47.16044" lon="4.12824">
        <ele>633.17</ele>
        <time>2021-08-12T10:12:32Z</time>
      </trkpt>
      <trkpt lat="47.16021" lon="4.12806">
        <ele>634.61</ele>
        <time>2021-08-12T10:12:41Z</time>
      </trkpt>
      <trkpt lat="47.16" lon="4.12787">
        <ele>635.09</ele>
        <time>2021-08-12T10:12:49Z</time>
      </trkpt>
      <trkpt lat="47.15973" lon="4.12764">
        <ele>636.05</ele>
        <time>2021-08-12T10:12:59Z</time>
      </trkpt>
      <trkpt lat="47.15943" lon="4.12739">
        <ele>637.49</ele>
        <time>2021-08-12T10:13:10Z</time>
      </trkpt>
      <trkpt lat="47.15916" lon="4.12715">
        <ele>637.49</ele>
        <time>2021-08-12T10:13:20Z</time>
      </trkpt>
      <trkpt lat="47.1589" lon="4.1269">
        <ele>638.93</ele>
        <time>2021-08-12T10:13:30Z</time>
      </trkpt>
      <trkpt lat="47.1587" lon="4.12665">
        <ele>640.38</ele>
        <time>2021-08-12T10:13:39Z</time>
      </trkpt>
      <trkpt lat="47.15853" lon="4.12644">
        <ele>641.34</ele>
        <time>2021-08-12T10:13:47Z</time>
      </trkpt>
      <trkpt lat="47.15831" lon="4.12622">
        <ele>642.78</ele>
        <time>2021-08-12T10:13:57Z</time>
      </trkpt>
      <trkpt lat="47.15812" lon="4.12607">
        <ele>644.22</ele>
        <time>2021-08-12T10:14:07Z</time>
      </trkpt>
      <trkpt lat="47.15798" lon="4.12599">
        <ele>645.18</ele>
        <time>2021-08-12T10:14:14Z</time>
      </trkpt>
      <trkpt lat="47.15774" lon="4.12591">
        <ele>646.62</ele>
        <time>2021-08-12T10:14:25Z</time>
      </trkpt>
      <trkpt lat="47.15749" lon="4.12583">
        <ele>648.07</ele>
        <time>2021-08-12T10:14:36Z</time>
      </trkpt>
      <trkpt lat="47.15722" lon="4.12571">
        <ele>649.99</ele>
        <time>2021-08-12T10:14:47Z</time>
      </trkpt>
      <trkpt lat="47.15704" lon="4.12562">
        <ele>650.47</ele>
        <time>2021-08-12T10:14:54Z</time>
      </trkpt>
      <trkpt lat="47.1569" lon="4.12554">
        <ele>650.95</ele>
        <time>2021-08-12T10:15:00Z</time>
      </trkpt>
      <trkpt lat="47.15671" lon="4.12543">
        <ele>651.91</ele>
        <time>2021-08-12T10:15:07Z</time>
      </trkpt>
      <trkpt lat="47.15655" lon="4.1253">
        <ele>651.91</ele>
        <time>2021-08-12T10:15:14Z</time>
      </trkpt>
      <trkpt lat="47.1563" lon="4.12515">
        <ele>653.83</ele>
        <time>2021-08-12T10:15:25Z</time>
      </trkpt>
      <trkpt lat="47.15612" lon="4.12503">
        <ele>655.28</ele>
        <time>2021-08-12T10:15:34Z</time>
      </trkpt>
      <trkpt lat="47.15599" lon="4.12493">
        <ele>656.24</ele>
        <time>2021-08-12T10:15:41Z</time>
      </trkpt>
      <trkpt lat="47.15571" lon="4.12475">
        <ele>658.16</ele>
        <time>2021-08-12T10:15:54Z</time>
      </trkpt>
      <trkpt lat="47.15554" lon="4.12462">
        <ele>659.6</ele>
        <time>2021-08-12T10:16:03Z</time>
      </trkpt>
      <trkpt lat="47.15535" lon="4.12449">
        <ele>661.52</ele>
        <time>2021-08-12T10:16:13Z</time>
      </trkpt>
      <trkpt lat="47.15518" lon="4.12437">
        <ele>663.45</ele>
        <time>2021-08-12T10:16:22Z</time>
      </trkpt>
      <trkpt lat="47.15499" lon="4.12425">
        <ele>664.89</ele>
        <time>2021-08-12T10:16:33Z</time>
      </trkpt>
      <trkpt lat="47.15482" lon="4.12412">
        <ele>666.33</ele>
        <time>2021-08-12T10:16:43Z</time>
      </trkpt>
      <trkpt lat="47.15464" lon="4.12399">
        <ele>668.25</ele>
        <time>2021-08-12T10:16:53Z</time>
      </trkpt>
      <trkpt lat="47.15452" lon="4.12381">
        <ele>669.22</ele>
        <time>2021-08-12T10:17:02Z</time>
      </trkpt>
      <trkpt lat="47.15442" lon="4.12362">
        <ele>670.18</ele>
        <time>2021-08-12T10:17:10Z</time>
      </trkpt>
      <trkpt lat="47.15437" lon="4.12343">
        <ele>670.66</ele>
        <time>2021-08-12T10:17:17Z</time>
      </trkpt>
      <trkpt lat="47.15428" lon="4.12318">
        <ele>672.1</ele>
        <time>2021-08-12T10:17:26Z</time>
      </trkpt>
      <trkpt lat="47.1542" lon="4.12299">
        <ele>672.58</ele>
        <time>2021-08-12T10:17:32Z</time>
      </trkpt>
      <trkpt lat="47.15406" lon="4.12276">
        <ele>673.54</ele>
        <time>2021-08-12T10:17:40Z</time>
      </trkpt>
      <trkpt lat="47.15377" lon="4.12244">
        <ele>674.02</ele>
        <time>2021-08-12T10:17:50Z</time>
      </trkpt>
      <trkpt lat="47.15365" lon="4.12234">
        <ele>674.02</ele>
        <time>2021-08-12T10:17:53Z</time>
      </trkpt>
      <trkpt lat="47.15361" lon="4.1223">
        <ele>674.02</ele>
        <time>2021-08-12T10:17:54Z</time>
      </trkpt>
      <trkpt lat="47.15328" lon="4.12202">
        <ele>672.58</ele>
        <time>2021-08-12T10:18:02Z</time>
      </trkpt>
      <trkpt lat="47.15292" lon="4.12171">
        <ele>672.1</ele>
        <time>2021-08-12T10:18:10Z</time>
      </trkpt>
      <trkpt lat="47.15243" lon="4.12131">
        <ele>670.66</ele>
        <time>2021-08-12T10:18:20Z</time>
      </trkpt>
      <trkpt lat="47.15206" lon="4.12096">
        <ele>669.22</ele>
        <time>2021-08-12T10:18:28Z</time>
      </trkpt>
      <trkpt lat="47.15168" lon="4.12056">
        <ele>668.25</ele>
        <time>2021-08-12T10:18:36Z</time>
      </trkpt>
      <trkpt lat="47.15127" lon="4.12007">
        <ele>666.81</ele>
        <time>2021-08-12T10:18:43Z</time>
      </trkpt>
      <trkpt lat="47.15085" lon="4.1194">
        <ele>664.41</ele>
        <time>2021-08-12T10:18:51Z</time>
      </trkpt>
      <trkpt lat="47.15063" lon="4.1191">
        <ele>662.49</ele>
        <time>2021-08-12T10:18:55Z</time>
      </trkpt>
      <trkpt lat="47.15006" lon="4.11853">
        <ele>660.56</ele>
        <time>2021-08-12T10:19:03Z</time>
      </trkpt>
      <trkpt lat="47.14939" lon="4.11792">
        <ele>656.72</ele>
        <time>2021-08-12T10:19:12Z</time>
      </trkpt>
      <trkpt lat="47.14915" lon="4.11771">
        <ele>655.28</ele>
        <time>2021-08-12T10:19:15Z</time>
      </trkpt>
      <trkpt lat="47.14872" lon="4.11733">
        <ele>651.91</ele>
        <time>2021-08-12T10:19:20Z</time>
      </trkpt>
      <trkpt lat="47.14845" lon="4.11708">
        <ele>650.95</ele>
        <time>2021-08-12T10:19:23Z</time>
      </trkpt>
      <trkpt lat="47.14768" lon="4.11638">
        <ele>649.99</ele>
        <time>2021-08-12T10:19:32Z</time>
      </trkpt>
      <trkpt lat="47.147" lon="4.11577">
        <ele>649.03</ele>
        <time>2021-08-12T10:19:41Z</time>
      </trkpt>
      <trkpt lat="47.14655" lon="4.11536">
        <ele>647.1</ele>
        <time>2021-08-12T10:19:47Z</time>
      </trkpt>
      <trkpt lat="47.14615" lon="4.115">
        <ele>648.55</ele>
        <time>2021-08-12T10:19:53Z</time>
      </trkpt>
      <trkpt lat="47.1458" lon="4.11468">
        <ele>650.47</ele>
        <time>2021-08-12T10:20:00Z</time>
      </trkpt>
      <trkpt lat="47.14561" lon="4.11448">
        <ele>650.95</ele>
        <time>2021-08-12T10:20:05Z</time>
      </trkpt>
      <trkpt lat="47.14528" lon="4.1141">
        <ele>652.39</ele>
        <time>2021-08-12T10:20:15Z</time>
      </trkpt>
      <trkpt lat="47.14502" lon="4.11375">
        <ele>653.35</ele>
        <time>2021-08-12T10:20:24Z</time>
      </trkpt>
      <trkpt lat="47.14479" lon="4.11343">
        <ele>653.83</ele>
        <time>2021-08-12T10:20:32Z</time>
      </trkpt>
      <trkpt lat="47.14451" lon="4.11299">
        <ele>653.35</ele>
        <time>2021-08-12T10:20:42Z</time>
      </trkpt>
      <trkpt lat="47.14428" lon="4.1126">
        <ele>653.35</ele>
        <time>2021-08-12T10:20:49Z</time>
      </trkpt>
      <trkpt lat="47.14396" lon="4.11212">
        <ele>652.39</ele>
        <time>2021-08-12T10:20:57Z</time>
      </trkpt>
      <trkpt lat="47.14373" lon="4.11174">
        <ele>651.91</ele>
        <time>2021-08-12T10:21:03Z</time>
      </trkpt>
      <trkpt lat="47.1434" lon="4.11125">
        <ele>651.43</ele>
        <time>2021-08-12T10:21:11Z</time>
      </trkpt>
      <trkpt lat="47.14336" lon="4.11119">
        <ele>651.43</ele>
        <time>2021-08-12T10:21:12Z</time>
      </trkpt>
      <trkpt lat="47.143" lon="4.11062">
        <ele>649.99</ele>
        <time>2021-08-12T10:21:21Z</time>
      </trkpt>
      <trkpt lat="47.14257" lon="4.10992">
        <ele>649.51</ele>
        <time>2021-08-12T10:21:31Z</time>
      </trkpt>
      <trkpt lat="47.14219" lon="4.10934">
        <ele>649.03</ele>
        <time>2021-08-12T10:21:40Z</time>
      </trkpt>
      <trkpt lat="47.14183" lon="4.10875">
        <ele>649.51</ele>
        <time>2021-08-12T10:21:50Z</time>
      </trkpt>
      <trkpt lat="47.14143" lon="4.10814">
        <ele>648.07</ele>
        <time>2021-08-12T10:22:00Z</time>
      </trkpt>
      <trkpt lat="47.14098" lon="4.10744">
        <ele>645.18</ele>
        <time>2021-08-12T10:22:10Z</time>
      </trkpt>
      <trkpt lat="47.14048" lon="4.10667">
        <ele>641.82</ele>
        <time>2021-08-12T10:22:19Z</time>
      </trkpt>
      <trkpt lat="47.14022" lon="4.10612">
        <ele>639.41</ele>
        <time>2021-08-12T10:22:24Z</time>
      </trkpt>
      <trkpt lat="47.14008" lon="4.10543">
        <ele>637.97</ele>
        <time>2021-08-12T10:22:29Z</time>
      </trkpt>
      <trkpt lat="47.14" lon="4.10441">
        <ele>634.13</ele>
        <time>2021-08-12T10:22:36Z</time>
      </trkpt>
      <trkpt lat="47.13992" lon="4.10378">
        <ele>631.72</ele>
        <time>2021-08-12T10:22:40Z</time>
      </trkpt>
      <trkpt lat="47.13988" lon="4.10364">
        <ele>630.76</ele>
        <time>2021-08-12T10:22:41Z</time>
      </trkpt>
      <trkpt lat="47.13984" lon="4.10349">
        <ele>630.28</ele>
        <time>2021-08-12T10:22:42Z</time>
      </trkpt>
      <trkpt lat="47.13977" lon="4.10336">
        <ele>630.76</ele>
        <time>2021-08-12T10:22:43Z</time>
      </trkpt>
      <trkpt lat="47.13971" lon="4.10325">
        <ele>630.76</ele>
        <time>2021-08-12T10:22:44Z</time>
      </trkpt>
      <trkpt lat="47.13964" lon="4.10315">
        <ele>630.76</ele>
        <time>2021-08-12T10:22:45Z</time>
      </trkpt>
      <trkpt lat="47.13956" lon="4.10306">
        <ele>630.76</ele>
        <time>2021-08-12T10:22:46Z</time>
      </trkpt>
      <trkpt lat="47.13908" lon="4.1025">
        <ele>630.76</ele>
        <time>2021-08-12T10:22:53Z</time>
      </trkpt>
      <trkpt lat="47.13891" lon="4.10231">
        <ele>632.2</ele>
        <time>2021-08-12T10:22:56Z</time>
      </trkpt>
      <trkpt lat="47.13876" lon="4.10214">
        <ele>633.17</ele>
        <time>2021-08-12T10:22:59Z</time>
      </trkpt>
      <trkpt lat="47.13858" lon="4.10191">
        <ele>633.65</ele>
        <time>2021-08-12T10:23:04Z</time>
      </trkpt>
      <trkpt lat="47.1384" lon="4.10168">
        <ele>635.09</ele>
        <time>2021-08-12T10:23:10Z</time>
      </trkpt>
      <trkpt lat="47.13816" lon="4.10141">
        <ele>637.01</ele>
        <time>2021-08-12T10:23:19Z</time>
      </trkpt>
      <trkpt lat="47.13797" lon="4.10119">
        <ele>637.49</ele>
        <time>2021-08-12T10:23:28Z</time>
      </trkpt>
      <trkpt lat="47.1378" lon="4.101">
        <ele>638.45</ele>
        <time>2021-08-12T10:23:37Z</time>
      </trkpt>
      <trkpt lat="47.13766" lon="4.10084">
        <ele>639.41</ele>
        <time>2021-08-12T10:23:45Z</time>
      </trkpt>
      <trkpt lat="47.1375" lon="4.10064">
        <ele>640.86</ele>
        <time>2021-08-12T10:23:54Z</time>
      </trkpt>
      <trkpt lat="47.13731" lon="4.10037">
        <ele>642.3</ele>
        <time>2021-08-12T10:24:05Z</time>
      </trkpt>
      <trkpt lat="47.13715" lon="4.10013">
        <ele>642.78</ele>
        <time>2021-08-12T10:24:14Z</time>
      </trkpt>
      <trkpt lat="47.13697" lon="4.09982">
        <ele>644.22</ele>
        <time>2021-08-12T10:24:24Z</time>
      </trkpt>
      <trkpt lat="47.13689" lon="4.09954">
        <ele>644.7</ele>
        <time>2021-08-12T10:24:31Z</time>
      </trkpt>
      <trkpt lat="47.13686" lon="4.09915">
        <ele>644.7</ele>
        <time>2021-08-12T10:24:39Z</time>
      </trkpt>
      <trkpt lat="47.13684" lon="4.09878">
        <ele>644.7</ele>
        <time>2021-08-12T10:24:45Z</time>
      </trkpt>
      <trkpt lat="47.13684" lon="4.09871">
        <ele>644.7</ele>
        <time>2021-08-12T10:24:46Z</time>
      </trkpt>
      <trkpt lat="47.13684" lon="4.09819">
        <ele>641.82</ele>
        <time>2021-08-12T10:24:52Z</time>
      </trkpt>
      <trkpt lat="47.13685" lon="4.0976">
        <ele>637.97</ele>
        <time>2021-08-12T10:24:57Z</time>
      </trkpt>
      <trkpt lat="47.13686" lon="4.09748">
        <ele>637.97</ele>
        <time>2021-08-12T10:24:58Z</time>
      </trkpt>
      <trkpt lat="47.13694" lon="4.09678">
        <ele>634.61</ele>
        <time>2021-08-12T10:25:03Z</time>
      </trkpt>
      <trkpt lat="47.13695" lon="4.09664">
        <ele>634.61</ele>
        <time>2021-08-12T10:25:04Z</time>
      </trkpt>
      <trkpt lat="47.13701" lon="4.09604">
        <ele>632.2</ele>
        <time>2021-08-12T10:25:08Z</time>
      </trkpt>
      <trkpt lat="47.13698" lon="4.09511">
        <ele>629.32</ele>
        <time>2021-08-12T10:25:14Z</time>
      </trkpt>
      <trkpt lat="47.13678" lon="4.09409">
        <ele>627.4</ele>
        <time>2021-08-12T10:25:21Z</time>
      </trkpt>
      <trkpt lat="47.13659" lon="4.09306">
        <ele>628.36</ele>
        <time>2021-08-12T10:25:29Z</time>
      </trkpt>
      <trkpt lat="47.13648" lon="4.09251">
        <ele>629.8</ele>
        <time>2021-08-12T10:25:35Z</time>
      </trkpt>
      <trkpt lat="47.13641" lon="4.09208">
        <ele>631.72</ele>
        <time>2021-08-12T10:25:42Z</time>
      </trkpt>
      <trkpt lat="47.13634" lon="4.09175">
        <ele>632.68</ele>
        <time>2021-08-12T10:25:48Z</time>
      </trkpt>
      <trkpt lat="47.13623" lon="4.09132">
        <ele>633.65</ele>
        <time>2021-08-12T10:25:56Z</time>
      </trkpt>
      <trkpt lat="47.13614" lon="4.09099">
        <ele>634.61</ele>
        <time>2021-08-12T10:26:03Z</time>
      </trkpt>
      <trkpt lat="47.13603" lon="4.09057">
        <ele>635.57</ele>
        <time>2021-08-12T10:26:13Z</time>
      </trkpt>
      <trkpt lat="47.13592" lon="4.09019">
        <ele>635.57</ele>
        <time>2021-08-12T10:26:21Z</time>
      </trkpt>
      <trkpt lat="47.13576" lon="4.08972">
        <ele>633.17</ele>
        <time>2021-08-12T10:26:28Z</time>
      </trkpt>
      <trkpt lat="47.13567" lon="4.08945">
        <ele>631.72</ele>
        <time>2021-08-12T10:26:31Z</time>
      </trkpt>
      <trkpt lat="47.13544" lon="4.08873">
        <ele>628.36</ele>
        <time>2021-08-12T10:26:38Z</time>
      </trkpt>
      <trkpt lat="47.13534" lon="4.08839">
        <ele>626.92</ele>
        <time>2021-08-12T10:26:41Z</time>
      </trkpt>
      <trkpt lat="47.13526" lon="4.0877">
        <ele>624.51</ele>
        <time>2021-08-12T10:26:46Z</time>
      </trkpt>
      <trkpt lat="47.13527" lon="4.08754">
        <ele>623.55</ele>
        <time>2021-08-12T10:26:47Z</time>
      </trkpt>
      <trkpt lat="47.13529" lon="4.0871">
        <ele>621.63</ele>
        <time>2021-08-12T10:26:50Z</time>
      </trkpt>
      <trkpt lat="47.13529" lon="4.08662">
        <ele>620.19</ele>
        <time>2021-08-12T10:26:53Z</time>
      </trkpt>
      <trkpt lat="47.13521" lon="4.08559">
        <ele>619.23</ele>
        <time>2021-08-12T10:27:00Z</time>
      </trkpt>
      <trkpt lat="47.13508" lon="4.08484">
        <ele>619.23</ele>
        <time>2021-08-12T10:27:06Z</time>
      </trkpt>
      <trkpt lat="47.13501" lon="4.08453">
        <ele>619.23</ele>
        <time>2021-08-12T10:27:09Z</time>
      </trkpt>
      <trkpt lat="47.13494" lon="4.08436">
        <ele>620.67</ele>
        <time>2021-08-12T10:27:11Z</time>
      </trkpt>
      <trkpt lat="47.1349" lon="4.0843">
        <ele>620.67</ele>
        <time>2021-08-12T10:27:12Z</time>
      </trkpt>
      <trkpt lat="47.13487" lon="4.08425">
        <ele>621.15</ele>
        <time>2021-08-12T10:27:13Z</time>
      </trkpt>
      <trkpt lat="47.13483" lon="4.0842">
        <ele>621.15</ele>
        <time>2021-08-12T10:27:14Z</time>
      </trkpt>
      <trkpt lat="47.1348" lon="4.08416">
        <ele>621.63</ele>
        <time>2021-08-12T10:27:15Z</time>
      </trkpt>
      <trkpt lat="47.13473" lon="4.0841">
        <ele>622.59</ele>
        <time>2021-08-12T10:27:17Z</time>
      </trkpt>
      <trkpt lat="47.1345" lon="4.08397">
        <ele>623.55</ele>
        <time>2021-08-12T10:27:24Z</time>
      </trkpt>
      <trkpt lat="47.13426" lon="4.08383">
        <ele>625.47</ele>
        <time>2021-08-12T10:27:32Z</time>
      </trkpt>
      <trkpt lat="47.13408" lon="4.08362">
        <ele>626.92</ele>
        <time>2021-08-12T10:27:41Z</time>
      </trkpt>
      <trkpt lat="47.13399" lon="4.08343">
        <ele>627.88</ele>
        <time>2021-08-12T10:27:49Z</time>
      </trkpt>
      <trkpt lat="47.13391" lon="4.08317">
        <ele>628.84</ele>
        <time>2021-08-12T10:27:58Z</time>
      </trkpt>
      <trkpt lat="47.13384" lon="4.08283">
        <ele>630.28</ele>
        <time>2021-08-12T10:28:09Z</time>
      </trkpt>
      <trkpt lat="47.13382" lon="4.08252">
        <ele>632.2</ele>
        <time>2021-08-12T10:28:19Z</time>
      </trkpt>
      <trkpt lat="47.13382" lon="4.08224">
        <ele>633.17</ele>
        <time>2021-08-12T10:28:28Z</time>
      </trkpt>
      <trkpt lat="47.13383" lon="4.08194">
        <ele>634.13</ele>
        <time>2021-08-12T10:28:36Z</time>
      </trkpt>
      <trkpt lat="47.13383" lon="4.08191">
        <ele>634.13</ele>
        <time>2021-08-12T10:28:37Z</time>
      </trkpt>
      <trkpt lat="47.13384" lon="4.08187">
        <ele>634.61</ele>
        <time>2021-08-12T10:28:38Z</time>
      </trkpt>
      <trkpt lat="47.13384" lon="4.08183">
        <ele>634.61</ele>
        <time>2021-08-12T10:28:39Z</time>
      </trkpt>
      <trkpt lat="47.13384" lon="4.0818">
        <ele>634.61</ele>
        <time>2021-08-12T10:28:40Z</time>
      </trkpt>
      <trkpt lat="47.13384" lon="4.08176">
        <ele>634.61</ele>
        <time>2021-08-12T10:28:41Z</time>
      </trkpt>
      <trkpt lat="47.13385" lon="4.08172">
        <ele>635.09</ele>
        <time>2021-08-12T10:28:42Z</time>
      </trkpt>
      <trkpt lat="47.13385" lon="4.08169">
        <ele>635.09</ele>
        <time>2021-08-12T10:28:43Z</time>
      </trkpt>
      <trkpt lat="47.13385" lon="4.08165">
        <ele>635.09</ele>
        <time>2021-08-12T10:28:44Z</time>
      </trkpt>
      <trkpt lat="47.13385" lon="4.0813">
        <ele>636.53</ele>
        <time>2021-08-12T10:28:53Z</time>
      </trkpt>
      <trkpt lat="47.13383" lon="4.08088">
        <ele>637.49</ele>
        <time>2021-08-12T10:29:04Z</time>
      </trkpt>
      <trkpt lat="47.13376" lon="4.08053">
        <ele>639.41</ele>
        <time>2021-08-12T10:29:14Z</time>
      </trkpt>
      <trkpt lat="47.13365" lon="4.08026">
        <ele>640.38</ele>
        <time>2021-08-12T10:29:23Z</time>
      </trkpt>
      <trkpt lat="47.13357" lon="4.08003">
        <ele>642.3</ele>
        <time>2021-08-12T10:29:31Z</time>
      </trkpt>
      <trkpt lat="47.1335" lon="4.07966">
        <ele>643.26</ele>
        <time>2021-08-12T10:29:42Z</time>
      </trkpt>
      <trkpt lat="47.13349" lon="4.07939">
        <ele>644.7</ele>
        <time>2021-08-12T10:29:50Z</time>
      </trkpt>
      <trkpt lat="47.13344" lon="4.0791">
        <ele>645.18</ele>
        <time>2021-08-12T10:29:57Z</time>
      </trkpt>
      <trkpt lat="47.13338" lon="4.07867">
        <ele>646.62</ele>
        <time>2021-08-12T10:30:07Z</time>
      </trkpt>
      <trkpt lat="47.13333" lon="4.07829">
        <ele>647.59</ele>
        <time>2021-08-12T10:30:16Z</time>
      </trkpt>
      <trkpt lat="47.13331" lon="4.0779">
        <ele>648.55</ele>
        <time>2021-08-12T10:30:25Z</time>
      </trkpt>
      <trkpt lat="47.13328" lon="4.07766">
        <ele>649.51</ele>
        <time>2021-08-12T10:30:31Z</time>
      </trkpt>
      <trkpt lat="47.13326" lon="4.07737">
        <ele>649.99</ele>
        <time>2021-08-12T10:30:38Z</time>
      </trkpt>
      <trkpt lat="47.13324" lon="4.07707">
        <ele>651.91</ele>
        <time>2021-08-12T10:30:47Z</time>
      </trkpt>
      <trkpt lat="47.13323" lon="4.07682">
        <ele>652.87</ele>
        <time>2021-08-12T10:30:54Z</time>
      </trkpt>
      <trkpt lat="47.13321" lon="4.0766">
        <ele>653.83</ele>
        <time>2021-08-12T10:31:00Z</time>
      </trkpt>
      <trkpt lat="47.13314" lon="4.07635">
        <ele>654.8</ele>
        <time>2021-08-12T10:31:07Z</time>
      </trkpt>
      <trkpt lat="47.13306" lon="4.07614">
        <ele>656.24</ele>
        <time>2021-08-12T10:31:14Z</time>
      </trkpt>
      <trkpt lat="47.1329" lon="4.07598">
        <ele>657.68</ele>
        <time>2021-08-12T10:31:22Z</time>
      </trkpt>
      <trkpt lat="47.13274" lon="4.07591">
        <ele>658.16</ele>
        <time>2021-08-12T10:31:29Z</time>
      </trkpt>
      <trkpt lat="47.13255" lon="4.07584">
        <ele>659.6</ele>
        <time>2021-08-12T10:31:38Z</time>
      </trkpt>
      <trkpt lat="47.13237" lon="4.07577">
        <ele>661.04</ele>
        <time>2021-08-12T10:31:46Z</time>
      </trkpt>
      <trkpt lat="47.1322" lon="4.07562">
        <ele>662.97</ele>
        <time>2021-08-12T10:31:55Z</time>
      </trkpt>
      <trkpt lat="47.13206" lon="4.07545">
        <ele>663.93</ele>
        <time>2021-08-12T10:32:03Z</time>
      </trkpt>
      <trkpt lat="47.1319" lon="4.07521">
        <ele>665.85</ele>
        <time>2021-08-12T10:32:13Z</time>
      </trkpt>
      <trkpt lat="47.13172" lon="4.07497">
        <ele>666.81</ele>
        <time>2021-08-12T10:32:23Z</time>
      </trkpt>
      <trkpt lat="47.13155" lon="4.07474">
        <ele>668.25</ele>
        <time>2021-08-12T10:32:33Z</time>
      </trkpt>
      <trkpt lat="47.13141" lon="4.07456">
        <ele>669.22</ele>
        <time>2021-08-12T10:32:41Z</time>
      </trkpt>
      <trkpt lat="47.13124" lon="4.07438">
        <ele>671.62</ele>
        <time>2021-08-12T10:32:50Z</time>
      </trkpt>
      <trkpt lat="47.13103" lon="4.07426">
        <ele>672.58</ele>
        <time>2021-08-12T10:32:59Z</time>
      </trkpt>
      <trkpt lat="47.13082" lon="4.07426">
        <ele>673.54</ele>
        <time>2021-08-12T10:33:08Z</time>
      </trkpt>
      <trkpt lat="47.13058" lon="4.07429">
        <ele>675.46</ele>
        <time>2021-08-12T10:33:18Z</time>
      </trkpt>
      <trkpt lat="47.13036" lon="4.07431">
        <ele>676.91</ele>
        <time>2021-08-12T10:33:27Z</time>
      </trkpt>
      <trkpt lat="47.13019" lon="4.0743">
        <ele>677.87</ele>
        <time>2021-08-12T10:33:35Z</time>
      </trkpt>
      <trkpt lat="47.13005" lon="4.07423">
        <ele>678.83</ele>
        <time>2021-08-12T10:33:42Z</time>
      </trkpt>
      <trkpt lat="47.12983" lon="4.07409">
        <ele>680.27</ele>
        <time>2021-08-12T10:33:52Z</time>
      </trkpt>
      <trkpt lat="47.12958" lon="4.07397">
        <ele>681.71</ele>
        <time>2021-08-12T10:34:02Z</time>
      </trkpt>
      <trkpt lat="47.1293" lon="4.07398">
        <ele>683.15</ele>
        <time>2021-08-12T10:34:12Z</time>
      </trkpt>
      <trkpt lat="47.12902" lon="4.07408">
        <ele>683.63</ele>
        <time>2021-08-12T10:34:22Z</time>
      </trkpt>
      <trkpt lat="47.12884" lon="4.07416">
        <ele>683.63</ele>
        <time>2021-08-12T10:34:28Z</time>
      </trkpt>
      <trkpt lat="47.12853" lon="4.07426">
        <ele>685.08</ele>
        <time>2021-08-12T10:34:37Z</time>
      </trkpt>
      <trkpt lat="47.12829" lon="4.07426">
        <ele>685.56</ele>
        <time>2021-08-12T10:34:45Z</time>
      </trkpt>
      <trkpt lat="47.12813" lon="4.07425">
        <ele>684.12</ele>
        <time>2021-08-12T10:34:49Z</time>
      </trkpt>
      <trkpt lat="47.12807" lon="4.07422">
        <ele>684.12</ele>
        <time>2021-08-12T10:34:50Z</time>
      </trkpt>
      <trkpt lat="47.12802" lon="4.07419">
        <ele>682.67</ele>
        <time>2021-08-12T10:34:51Z</time>
      </trkpt>
      <trkpt lat="47.12797" lon="4.07414">
        <ele>682.19</ele>
        <time>2021-08-12T10:34:52Z</time>
      </trkpt>
      <trkpt lat="47.12792" lon="4.07408">
        <ele>681.71</ele>
        <time>2021-08-12T10:34:53Z</time>
      </trkpt>
      <trkpt lat="47.12787" lon="4.07401">
        <ele>681.23</ele>
        <time>2021-08-12T10:34:54Z</time>
      </trkpt>
      <trkpt lat="47.12782" lon="4.07393">
        <ele>681.23</ele>
        <time>2021-08-12T10:34:55Z</time>
      </trkpt>
      <trkpt lat="47.12777" lon="4.07387">
        <ele>680.27</ele>
        <time>2021-08-12T10:34:56Z</time>
      </trkpt>
      <trkpt lat="47.12771" lon="4.07381">
        <ele>679.31</ele>
        <time>2021-08-12T10:34:57Z</time>
      </trkpt>
      <trkpt lat="47.12765" lon="4.07375">
        <ele>678.83</ele>
        <time>2021-08-12T10:34:58Z</time>
      </trkpt>
      <trkpt lat="47.12759" lon="4.07371">
        <ele>678.83</ele>
        <time>2021-08-12T10:34:59Z</time>
      </trkpt>
      <trkpt lat="47.12751" lon="4.07366">
        <ele>677.39</ele>
        <time>2021-08-12T10:35:00Z</time>
      </trkpt>
      <trkpt lat="47.12715" lon="4.07354">
        <ele>674.02</ele>
        <time>2021-08-12T10:35:04Z</time>
      </trkpt>
      <trkpt lat="47.12705" lon="4.0735">
        <ele>673.54</ele>
        <time>2021-08-12T10:35:05Z</time>
      </trkpt>
      <trkpt lat="47.12697" lon="4.07343">
        <ele>673.06</ele>
        <time>2021-08-12T10:35:06Z</time>
      </trkpt>
      <trkpt lat="47.12691" lon="4.07335">
        <ele>672.1</ele>
        <time>2021-08-12T10:35:07Z</time>
      </trkpt>
      <trkpt lat="47.12687" lon="4.07325">
        <ele>672.1</ele>
        <time>2021-08-12T10:35:08Z</time>
      </trkpt>
      <trkpt lat="47.12686" lon="4.07313">
        <ele>671.14</ele>
        <time>2021-08-12T10:35:09Z</time>
      </trkpt>
      <trkpt lat="47.12688" lon="4.07301">
        <ele>671.14</ele>
        <time>2021-08-12T10:35:10Z</time>
      </trkpt>
      <trkpt lat="47.12692" lon="4.07289">
        <ele>670.18</ele>
        <time>2021-08-12T10:35:11Z</time>
      </trkpt>
      <trkpt lat="47.12697" lon="4.07277">
        <ele>669.7</ele>
        <time>2021-08-12T10:35:12Z</time>
      </trkpt>
      <trkpt lat="47.12703" lon="4.07253">
        <ele>668.73</ele>
        <time>2021-08-12T10:35:14Z</time>
      </trkpt>
      <trkpt lat="47.12704" lon="4.07243">
        <ele>668.25</ele>
        <time>2021-08-12T10:35:15Z</time>
      </trkpt>
      <trkpt lat="47.12703" lon="4.07234">
        <ele>667.29</ele>
        <time>2021-08-12T10:35:16Z</time>
      </trkpt>
      <trkpt lat="47.12699" lon="4.07224">
        <ele>666.81</ele>
        <time>2021-08-12T10:35:17Z</time>
      </trkpt>
      <trkpt lat="47.12693" lon="4.07218">
        <ele>665.37</ele>
        <time>2021-08-12T10:35:18Z</time>
      </trkpt>
      <trkpt lat="47.12685" lon="4.07215">
        <ele>663.93</ele>
        <time>2021-08-12T10:35:19Z</time>
      </trkpt>
      <trkpt lat="47.12678" lon="4.07212">
        <ele>663.45</ele>
        <time>2021-08-12T10:35:20Z</time>
      </trkpt>
      <trkpt lat="47.12669" lon="4.07207">
        <ele>662.49</ele>
        <time>2021-08-12T10:35:21Z</time>
      </trkpt>
      <trkpt lat="47.1266" lon="4.07201">
        <ele>662.01</ele>
        <time>2021-08-12T10:35:22Z</time>
      </trkpt>
      <trkpt lat="47.12652" lon="4.07193">
        <ele>661.04</ele>
        <time>2021-08-12T10:35:23Z</time>
      </trkpt>
      <trkpt lat="47.1261" lon="4.07146">
        <ele>657.68</ele>
        <time>2021-08-12T10:35:28Z</time>
      </trkpt>
      <trkpt lat="47.12603" lon="4.07134">
        <ele>656.72</ele>
        <time>2021-08-12T10:35:29Z</time>
      </trkpt>
      <trkpt lat="47.12597" lon="4.0712">
        <ele>656.72</ele>
        <time>2021-08-12T10:35:30Z</time>
      </trkpt>
      <trkpt lat="47.12592" lon="4.07107">
        <ele>656.72</ele>
        <time>2021-08-12T10:35:31Z</time>
      </trkpt>
      <trkpt lat="47.12588" lon="4.07093">
        <ele>656.24</ele>
        <time>2021-08-12T10:35:32Z</time>
      </trkpt>
      <trkpt lat="47.12585" lon="4.0708">
        <ele>656.72</ele>
        <time>2021-08-12T10:35:33Z</time>
      </trkpt>
      <trkpt lat="47.12583" lon="4.07067">
        <ele>656.24</ele>
        <time>2021-08-12T10:35:34Z</time>
      </trkpt>
      <trkpt lat="47.12582" lon="4.07055">
        <ele>656.72</ele>
        <time>2021-08-12T10:35:35Z</time>
      </trkpt>
      <trkpt lat="47.12581" lon="4.07043">
        <ele>658.16</ele>
        <time>2021-08-12T10:35:36Z</time>
      </trkpt>
      <trkpt lat="47.12582" lon="4.07033">
        <ele>658.64</ele>
        <time>2021-08-12T10:35:37Z</time>
      </trkpt>
      <trkpt lat="47.12583" lon="4.07023">
        <ele>659.6</ele>
        <time>2021-08-12T10:35:38Z</time>
      </trkpt>
      <trkpt lat="47.12584" lon="4.07016">
        <ele>660.56</ele>
        <time>2021-08-12T10:35:39Z</time>
      </trkpt>
      <trkpt lat="47.12586" lon="4.07009">
        <ele>661.04</ele>
        <time>2021-08-12T10:35:40Z</time>
      </trkpt>
      <trkpt lat="47.12587" lon="4.07003">
        <ele>662.01</ele>
        <time>2021-08-12T10:35:41Z</time>
      </trkpt>
      <trkpt lat="47.12589" lon="4.06998">
        <ele>662.01</ele>
        <time>2021-08-12T10:35:42Z</time>
      </trkpt>
      <trkpt lat="47.1259" lon="4.06993">
        <ele>662.49</ele>
        <time>2021-08-12T10:35:43Z</time>
      </trkpt>
      <trkpt lat="47.12592" lon="4.0699">
        <ele>662.49</ele>
        <time>2021-08-12T10:35:44Z</time>
      </trkpt>
      <trkpt lat="47.12598" lon="4.06972">
        <ele>663.93</ele>
        <time>2021-08-12T10:35:50Z</time>
      </trkpt>
      <trkpt lat="47.12599" lon="4.06967">
        <ele>663.93</ele>
        <time>2021-08-12T10:35:52Z</time>
      </trkpt>
      <trkpt lat="47.126" lon="4.06964">
        <ele>663.93</ele>
        <time>2021-08-12T10:35:53Z</time>
      </trkpt>
      <trkpt lat="47.126" lon="4.06963">
        <ele>663.93</ele>
        <time>2021-08-12T10:35:54Z</time>
      </trkpt>
      <trkpt lat="47.126" lon="4.0696">
        <ele>664.41</ele>
        <time>2021-08-12T10:35:56Z</time>
      </trkpt>
      <trkpt lat="47.12601" lon="4.06958">
        <ele>664.41</ele>
        <time>2021-08-12T10:35:57Z</time>
      </trkpt>
      <trkpt lat="47.12602" lon="4.06956">
        <ele>664.89</ele>
        <time>2021-08-12T10:35:58Z</time>
      </trkpt>
      <trkpt lat="47.12603" lon="4.06954">
        <ele>664.89</ele>
        <time>2021-08-12T10:35:59Z</time>
      </trkpt>
      <trkpt lat="47.12603" lon="4.06952">
        <ele>664.89</ele>
        <time>2021-08-12T10:36:00Z</time>
      </trkpt>
      <trkpt lat="47.12611" lon="4.06926">
        <ele>665.85</ele>
        <time>2021-08-12T10:36:09Z</time>
      </trkpt>
      <trkpt lat="47.12618" lon="4.06899">
        <ele>666.81</ele>
        <time>2021-08-12T10:36:17Z</time>
      </trkpt>
      <trkpt lat="47.12629" lon="4.0686">
        <ele>668.73</ele>
        <time>2021-08-12T10:36:29Z</time>
      </trkpt>
      <trkpt lat="47.12639" lon="4.06832">
        <ele>670.18</ele>
        <time>2021-08-12T10:36:39Z</time>
      </trkpt>
      <trkpt lat="47.12653" lon="4.06809">
        <ele>672.1</ele>
        <time>2021-08-12T10:36:49Z</time>
      </trkpt>
      <trkpt lat="47.12673" lon="4.06791">
        <ele>674.02</ele>
        <time>2021-08-12T10:37:01Z</time>
      </trkpt>
      <trkpt lat="47.12693" lon="4.06774">
        <ele>675.94</ele>
        <time>2021-08-12T10:37:12Z</time>
      </trkpt>
      <trkpt lat="47.12708" lon="4.0675">
        <ele>677.87</ele>
        <time>2021-08-12T10:37:23Z</time>
      </trkpt>
      <trkpt lat="47.12707" lon="4.06724">
        <ele>678.83</ele>
        <time>2021-08-12T10:37:32Z</time>
      </trkpt>
      <trkpt lat="47.12699" lon="4.06703">
        <ele>679.79</ele>
        <time>2021-08-12T10:37:40Z</time>
      </trkpt>
      <trkpt lat="47.12685" lon="4.06681">
        <ele>681.71</ele>
        <time>2021-08-12T10:37:49Z</time>
      </trkpt>
      <trkpt lat="47.12675" lon="4.06655">
        <ele>683.15</ele>
        <time>2021-08-12T10:37:57Z</time>
      </trkpt>
      <trkpt lat="47.1267" lon="4.06619">
        <ele>685.08</ele>
        <time>2021-08-12T10:38:05Z</time>
      </trkpt>
      <trkpt lat="47.12666" lon="4.06582">
        <ele>685.08</ele>
        <time>2021-08-12T10:38:13Z</time>
      </trkpt>
      <trkpt lat="47.12651" lon="4.06564">
        <ele>685.56</ele>
        <time>2021-08-12T10:38:19Z</time>
      </trkpt>
      <trkpt lat="47.12645" lon="4.06558">
        <ele>685.56</ele>
        <time>2021-08-12T10:38:21Z</time>
      </trkpt>
      <trkpt lat="47.12641" lon="4.06555">
        <ele>684.6</ele>
        <time>2021-08-12T10:38:22Z</time>
      </trkpt>
      <trkpt lat="47.12607" lon="4.06524">
        <ele>684.12</ele>
        <time>2021-08-12T10:38:30Z</time>
      </trkpt>
      <trkpt lat="47.12593" lon="4.06513">
        <ele>684.12</ele>
        <time>2021-08-12T10:38:33Z</time>
      </trkpt>
      <trkpt lat="47.12588" lon="4.0651">
        <ele>684.12</ele>
        <time>2021-08-12T10:38:34Z</time>
      </trkpt>
      <trkpt lat="47.12547" lon="4.06493">
        <ele>685.08</ele>
        <time>2021-08-12T10:38:42Z</time>
      </trkpt>
      <trkpt lat="47.12519" lon="4.06488">
        <ele>686.52</ele>
        <time>2021-08-12T10:38:49Z</time>
      </trkpt>
      <trkpt lat="47.12486" lon="4.06485">
        <ele>688.44</ele>
        <time>2021-08-12T10:38:58Z</time>
      </trkpt>
      <trkpt lat="47.1247" lon="4.06483">
        <ele>689.4</ele>
        <time>2021-08-12T10:39:02Z</time>
      </trkpt>
      <trkpt lat="47.1245" lon="4.06479">
        <ele>689.4</ele>
        <time>2021-08-12T10:39:07Z</time>
      </trkpt>
      <trkpt lat="47.12445" lon="4.06479">
        <ele>689.88</ele>
        <time>2021-08-12T10:39:08Z</time>
      </trkpt>
      <trkpt lat="47.12441" lon="4.06481">
        <ele>689.88</ele>
        <time>2021-08-12T10:39:09Z</time>
      </trkpt>
      <trkpt lat="47.12437" lon="4.06482">
        <ele>689.88</ele>
        <time>2021-08-12T10:39:10Z</time>
      </trkpt>
      <trkpt lat="47.12433" lon="4.06484">
        <ele>689.88</ele>
        <time>2021-08-12T10:39:11Z</time>
      </trkpt>
      <trkpt lat="47.1243" lon="4.06487">
        <ele>689.88</ele>
        <time>2021-08-12T10:39:12Z</time>
      </trkpt>
      <trkpt lat="47.12426" lon="4.0649">
        <ele>689.88</ele>
        <time>2021-08-12T10:39:13Z</time>
      </trkpt>
      <trkpt lat="47.12421" lon="4.06493">
        <ele>689.88</ele>
        <time>2021-08-12T10:39:14Z</time>
      </trkpt>
      <trkpt lat="47.12417" lon="4.06497">
        <ele>689.88</ele>
        <time>2021-08-12T10:39:15Z</time>
      </trkpt>
      <trkpt lat="47.12393" lon="4.06519">
        <ele>690.36</ele>
        <time>2021-08-12T10:39:21Z</time>
      </trkpt>
      <trkpt lat="47.1237" lon="4.06544">
        <ele>690.84</ele>
        <time>2021-08-12T10:39:27Z</time>
      </trkpt>
      <trkpt lat="47.12367" lon="4.06549">
        <ele>690.84</ele>
        <time>2021-08-12T10:39:28Z</time>
      </trkpt>
      <trkpt lat="47.12363" lon="4.06554">
        <ele>690.84</ele>
        <time>2021-08-12T10:39:29Z</time>
      </trkpt>
      <trkpt lat="47.12345" lon="4.066">
        <ele>691.33</ele>
        <time>2021-08-12T10:39:37Z</time>
      </trkpt>
      <trkpt lat="47.12342" lon="4.06611">
        <ele>691.33</ele>
        <time>2021-08-12T10:39:39Z</time>
      </trkpt>
      <trkpt lat="47.1234" lon="4.06617">
        <ele>691.33</ele>
        <time>2021-08-12T10:39:40Z</time>
      </trkpt>
      <trkpt lat="47.12326" lon="4.06649">
        <ele>692.29</ele>
        <time>2021-08-12T10:39:47Z</time>
      </trkpt>
      <trkpt lat="47.12309" lon="4.06664">
        <ele>693.73</ele>
        <time>2021-08-12T10:39:54Z</time>
      </trkpt>
      <trkpt lat="47.12301" lon="4.06663">
        <ele>693.73</ele>
        <time>2021-08-12T10:39:59Z</time>
      </trkpt>
      <trkpt lat="47.12302" lon="4.06667">
        <ele>694.21</ele>
        <time>2021-08-12T10:40:13Z</time>
      </trkpt>
      <trkpt lat="47.12304" lon="4.06668">
        <ele>694.21</ele>
        <time>2021-08-12T10:40:30Z</time>
      </trkpt>
      <trkpt lat="47.12306" lon="4.06666">
        <ele>694.21</ele>
        <time>2021-08-12T10:40:49Z</time>
      </trkpt>
      <trkpt lat="47.12305" lon="4.06667">
        <ele>694.21</ele>
        <time>2021-08-12T10:41:09Z</time>
      </trkpt>
      <trkpt lat="47.12305" lon="4.06668">
        <ele>694.21</ele>
        <time>2021-08-12T10:41:28Z</time>
      </trkpt>
      <trkpt lat="47.12304" lon="4.06667">
        <ele>694.21</ele>
        <time>2021-08-12T10:41:43Z</time>
      </trkpt>
      <trkpt lat="47.12302" lon="4.06668">
        <ele>694.21</ele>
        <time>2021-08-12T10:41:57Z</time>
      </trkpt>
      <trkpt lat="47.12303" lon="4.06671">
        <ele>694.21</ele>
        <time>2021-08-12T10:42:01Z</time>
      </trkpt>
      <trkpt lat="47.12304" lon="4.06671">
        <ele>694.21</ele>
        <time>2021-08-12T10:42:02Z</time>
      </trkpt>
      <trkpt lat="47.12305" lon="4.06671">
        <ele>694.21</ele>
        <time>2021-08-12T10:42:03Z</time>
      </trkpt>
      <trkpt lat="47.12307" lon="4.0667">
        <ele>694.21</ele>
        <time>2021-08-12T10:42:04Z</time>
      </trkpt>
      <trkpt lat="47.12308" lon="4.06669">
        <ele>694.21</ele>
        <time>2021-08-12T10:42:05Z</time>
      </trkpt>
      <trkpt lat="47.12304" lon="4.06667">
        <ele>694.21</ele>
        <time>2021-08-12T10:42:09Z</time>
      </trkpt>
      <trkpt lat="47.1229" lon="4.06674">
        <ele>694.21</ele>
        <time>2021-08-12T10:42:18Z</time>
      </trkpt>
      <trkpt lat="47.12269" lon="4.06678">
        <ele>694.21</ele>
        <time>2021-08-12T10:42:25Z</time>
      </trkpt>
      <trkpt lat="47.12253" lon="4.06678">
        <ele>694.21</ele>
        <time>2021-08-12T10:42:29Z</time>
      </trkpt>
      <trkpt lat="47.1224" lon="4.06677">
        <ele>693.25</ele>
        <time>2021-08-12T10:42:32Z</time>
      </trkpt>
      <trkpt lat="47.12233" lon="4.06681">
        <ele>692.77</ele>
        <time>2021-08-12T10:42:34Z</time>
      </trkpt>
      <trkpt lat="47.12231" lon="4.06686">
        <ele>692.77</ele>
        <time>2021-08-12T10:42:35Z</time>
      </trkpt>
      <trkpt lat="47.1223" lon="4.0669">
        <ele>692.77</ele>
        <time>2021-08-12T10:42:36Z</time>
      </trkpt>
      <trkpt lat="47.12229" lon="4.06695">
        <ele>692.77</ele>
        <time>2021-08-12T10:42:37Z</time>
      </trkpt>
      <trkpt lat="47.12229" lon="4.067">
        <ele>692.77</ele>
        <time>2021-08-12T10:42:38Z</time>
      </trkpt>
      <trkpt lat="47.12227" lon="4.06751">
        <ele>692.77</ele>
        <time>2021-08-12T10:42:47Z</time>
      </trkpt>
      <trkpt lat="47.12218" lon="4.06799">
        <ele>692.77</ele>
        <time>2021-08-12T10:42:55Z</time>
      </trkpt>
      <trkpt lat="47.1221" lon="4.06834">
        <ele>692.77</ele>
        <time>2021-08-12T10:43:01Z</time>
      </trkpt>
      <trkpt lat="47.12202" lon="4.06856">
        <ele>693.73</ele>
        <time>2021-08-12T10:43:05Z</time>
      </trkpt>
      <trkpt lat="47.12199" lon="4.06861">
        <ele>693.73</ele>
        <time>2021-08-12T10:43:06Z</time>
      </trkpt>
      <trkpt lat="47.12194" lon="4.06873">
        <ele>693.73</ele>
        <time>2021-08-12T10:43:08Z</time>
      </trkpt>
      <trkpt lat="47.12189" lon="4.06885">
        <ele>693.73</ele>
        <time>2021-08-12T10:43:10Z</time>
      </trkpt>
      <trkpt lat="47.12176" lon="4.06933">
        <ele>693.73</ele>
        <time>2021-08-12T10:43:18Z</time>
      </trkpt>
      <trkpt lat="47.1216" lon="4.06989">
        <ele>694.69</ele>
        <time>2021-08-12T10:43:27Z</time>
      </trkpt>
      <trkpt lat="47.12146" lon="4.07047">
        <ele>695.65</ele>
        <time>2021-08-12T10:43:37Z</time>
      </trkpt>
      <trkpt lat="47.12134" lon="4.071">
        <ele>696.13</ele>
        <time>2021-08-12T10:43:46Z</time>
      </trkpt>
      <trkpt lat="47.12115" lon="4.07152">
        <ele>696.61</ele>
        <time>2021-08-12T10:43:55Z</time>
      </trkpt>
      <trkpt lat="47.12104" lon="4.07197">
        <ele>696.61</ele>
        <time>2021-08-12T10:44:03Z</time>
      </trkpt>
      <trkpt lat="47.12099" lon="4.07238">
        <ele>696.61</ele>
        <time>2021-08-12T10:44:10Z</time>
      </trkpt>
      <trkpt lat="47.12087" lon="4.07294">
        <ele>697.57</ele>
        <time>2021-08-12T10:44:20Z</time>
      </trkpt>
      <trkpt lat="47.1208" lon="4.07355">
        <ele>698.05</ele>
        <time>2021-08-12T10:44:30Z</time>
      </trkpt>
      <trkpt lat="47.12072" lon="4.07391">
        <ele>698.53</ele>
        <time>2021-08-12T10:44:37Z</time>
      </trkpt>
      <trkpt lat="47.12057" lon="4.07448">
        <ele>699.02</ele>
        <time>2021-08-12T10:44:48Z</time>
      </trkpt>
      <trkpt lat="47.1204" lon="4.0749">
        <ele>699.5</ele>
        <time>2021-08-12T10:44:57Z</time>
      </trkpt>
      <trkpt lat="47.12025" lon="4.0752">
        <ele>699.98</ele>
        <time>2021-08-12T10:45:04Z</time>
      </trkpt>
      <trkpt lat="47.11999" lon="4.0757">
        <ele>701.42</ele>
        <time>2021-08-12T10:45:16Z</time>
      </trkpt>
      <trkpt lat="47.11978" lon="4.07607">
        <ele>701.42</ele>
        <time>2021-08-12T10:45:25Z</time>
      </trkpt>
      <trkpt lat="47.11957" lon="4.07618">
        <ele>701.9</ele>
        <time>2021-08-12T10:45:31Z</time>
      </trkpt>
      <trkpt lat="47.11939" lon="4.07617">
        <ele>701.9</ele>
        <time>2021-08-12T10:45:37Z</time>
      </trkpt>
      <trkpt lat="47.11918" lon="4.07625">
        <ele>702.38</ele>
        <time>2021-08-12T10:45:44Z</time>
      </trkpt>
      <trkpt lat="47.11901" lon="4.07636">
        <ele>702.86</ele>
        <time>2021-08-12T10:45:51Z</time>
      </trkpt>
      <trkpt lat="47.11881" lon="4.07648">
        <ele>704.3</ele>
        <time>2021-08-12T10:46:00Z</time>
      </trkpt>
      <trkpt lat="47.11868" lon="4.07657">
        <ele>705.26</ele>
        <time>2021-08-12T10:46:07Z</time>
      </trkpt>
      <trkpt lat="47.11858" lon="4.07674">
        <ele>705.75</ele>
        <time>2021-08-12T10:46:15Z</time>
      </trkpt>
      <trkpt lat="47.11847" lon="4.07685">
        <ele>706.23</ele>
        <time>2021-08-12T10:46:22Z</time>
      </trkpt>
      <trkpt lat="47.11833" lon="4.07693">
        <ele>706.71</ele>
        <time>2021-08-12T10:46:30Z</time>
      </trkpt>
      <trkpt lat="47.11818" lon="4.07702">
        <ele>707.19</ele>
        <time>2021-08-12T10:46:39Z</time>
      </trkpt>
      <trkpt lat="47.11804" lon="4.07713">
        <ele>709.11</ele>
        <time>2021-08-12T10:46:48Z</time>
      </trkpt>
      <trkpt lat="47.11802" lon="4.07716">
        <ele>709.11</ele>
        <time>2021-08-12T10:46:50Z</time>
      </trkpt>
      <trkpt lat="47.11801" lon="4.07717">
        <ele>709.11</ele>
        <time>2021-08-12T10:46:51Z</time>
      </trkpt>
      <trkpt lat="47.118" lon="4.07717">
        <ele>709.11</ele>
        <time>2021-08-12T10:46:52Z</time>
      </trkpt>
      <trkpt lat="47.11798" lon="4.07718">
        <ele>709.59</ele>
        <time>2021-08-12T10:46:53Z</time>
      </trkpt>
      <trkpt lat="47.11797" lon="4.07719">
        <ele>709.59</ele>
        <time>2021-08-12T10:46:54Z</time>
      </trkpt>
      <trkpt lat="47.11796" lon="4.07719">
        <ele>709.59</ele>
        <time>2021-08-12T10:46:55Z</time>
      </trkpt>
      <trkpt lat="47.11794" lon="4.0772">
        <ele>709.59</ele>
        <time>2021-08-12T10:46:56Z</time>
      </trkpt>
      <trkpt lat="47.11784" lon="4.07728">
        <ele>710.55</ele>
        <time>2021-08-12T10:47:03Z</time>
      </trkpt>
      <trkpt lat="47.11773" lon="4.07736">
        <ele>711.99</ele>
        <time>2021-08-12T10:47:12Z</time>
      </trkpt>
      <trkpt lat="47.11772" lon="4.07737">
        <ele>711.99</ele>
        <time>2021-08-12T10:47:13Z</time>
      </trkpt>
      <trkpt lat="47.11771" lon="4.07738">
        <ele>711.99</ele>
        <time>2021-08-12T10:47:14Z</time>
      </trkpt>
      <trkpt lat="47.11769" lon="4.07739">
        <ele>711.99</ele>
        <time>2021-08-12T10:47:15Z</time>
      </trkpt>
      <trkpt lat="47.1176" lon="4.07742">
        <ele>712.95</ele>
        <time>2021-08-12T10:47:23Z</time>
      </trkpt>
      <trkpt lat="47.11754" lon="4.07747">
        <ele>712.47</ele>
        <time>2021-08-12T10:47:29Z</time>
      </trkpt>
      <trkpt lat="47.11738" lon="4.07756">
        <ele>713.92</ele>
        <time>2021-08-12T10:47:37Z</time>
      </trkpt>
      <trkpt lat="47.11723" lon="4.07764">
        <ele>714.4</ele>
        <time>2021-08-12T10:47:45Z</time>
      </trkpt>
      <trkpt lat="47.1171" lon="4.0777">
        <ele>715.36</ele>
        <time>2021-08-12T10:47:53Z</time>
      </trkpt>
      <trkpt lat="47.11708" lon="4.07771">
        <ele>715.36</ele>
        <time>2021-08-12T10:47:54Z</time>
      </trkpt>
      <trkpt lat="47.11707" lon="4.07771">
        <ele>715.36</ele>
        <time>2021-08-12T10:47:55Z</time>
      </trkpt>
      <trkpt lat="47.11705" lon="4.07772">
        <ele>715.84</ele>
        <time>2021-08-12T10:47:56Z</time>
      </trkpt>
      <trkpt lat="47.11704" lon="4.07773">
        <ele>715.84</ele>
        <time>2021-08-12T10:47:57Z</time>
      </trkpt>
      <trkpt lat="47.11702" lon="4.07774">
        <ele>716.32</ele>
        <time>2021-08-12T10:47:58Z</time>
      </trkpt>
      <trkpt lat="47.1169" lon="4.07786">
        <ele>716.8</ele>
        <time>2021-08-12T10:48:06Z</time>
      </trkpt>
      <trkpt lat="47.11676" lon="4.07796">
        <ele>717.76</ele>
        <time>2021-08-12T10:48:14Z</time>
      </trkpt>
      <trkpt lat="47.1166" lon="4.07806">
        <ele>718.72</ele>
        <time>2021-08-12T10:48:23Z</time>
      </trkpt>
      <trkpt lat="47.11646" lon="4.07817">
        <ele>719.2</ele>
        <time>2021-08-12T10:48:32Z</time>
      </trkpt>
      <trkpt lat="47.11633" lon="4.07826">
        <ele>719.68</ele>
        <time>2021-08-12T10:48:40Z</time>
      </trkpt>
      <trkpt lat="47.11614" lon="4.07838">
        <ele>720.65</ele>
        <time>2021-08-12T10:48:50Z</time>
      </trkpt>
      <trkpt lat="47.11599" lon="4.07852">
        <ele>721.13</ele>
        <time>2021-08-12T10:48:59Z</time>
      </trkpt>
      <trkpt lat="47.11592" lon="4.07861">
        <ele>721.61</ele>
        <time>2021-08-12T10:49:05Z</time>
      </trkpt>
      <trkpt lat="47.11585" lon="4.07868">
        <ele>721.61</ele>
        <time>2021-08-12T10:49:10Z</time>
      </trkpt>
      <trkpt lat="47.11573" lon="4.07878">
        <ele>722.09</ele>
        <time>2021-08-12T10:49:17Z</time>
      </trkpt>
      <trkpt lat="47.11571" lon="4.0788">
        <ele>722.09</ele>
        <time>2021-08-12T10:49:18Z</time>
      </trkpt>
      <trkpt lat="47.11569" lon="4.07883">
        <ele>722.09</ele>
        <time>2021-08-12T10:49:19Z</time>
      </trkpt>
      <trkpt lat="47.11554" lon="4.07906">
        <ele>722.09</ele>
        <time>2021-08-12T10:49:27Z</time>
      </trkpt>
      <trkpt lat="47.11542" lon="4.07915">
        <ele>722.57</ele>
        <time>2021-08-12T10:49:33Z</time>
      </trkpt>
      <trkpt lat="47.11525" lon="4.07933">
        <ele>723.05</ele>
        <time>2021-08-12T10:49:42Z</time>
      </trkpt>
      <trkpt lat="47.11521" lon="4.07938">
        <ele>723.05</ele>
        <time>2021-08-12T10:49:45Z</time>
      </trkpt>
      <trkpt lat="47.11519" lon="4.0794">
        <ele>723.05</ele>
        <time>2021-08-12T10:49:46Z</time>
      </trkpt>
      <trkpt lat="47.11517" lon="4.07941">
        <ele>723.05</ele>
        <time>2021-08-12T10:49:47Z</time>
      </trkpt>
      <trkpt lat="47.11516" lon="4.07944">
        <ele>723.05</ele>
        <time>2021-08-12T10:49:48Z</time>
      </trkpt>
      <trkpt lat="47.11513" lon="4.07952">
        <ele>723.05</ele>
        <time>2021-08-12T10:49:52Z</time>
      </trkpt>
      <trkpt lat="47.11507" lon="4.07958">
        <ele>723.05</ele>
        <time>2021-08-12T10:49:55Z</time>
      </trkpt>
      <trkpt lat="47.11506" lon="4.07961">
        <ele>723.05</ele>
        <time>2021-08-12T10:49:56Z</time>
      </trkpt>
      <trkpt lat="47.11503" lon="4.07965">
        <ele>723.05</ele>
        <time>2021-08-12T10:49:57Z</time>
      </trkpt>
      <trkpt lat="47.115" lon="4.07971">
        <ele>723.53</ele>
        <time>2021-08-12T10:49:58Z</time>
      </trkpt>
      <trkpt lat="47.11498" lon="4.07977">
        <ele>723.53</ele>
        <time>2021-08-12T10:49:59Z</time>
      </trkpt>
      <trkpt lat="47.11496" lon="4.07981">
        <ele>723.53</ele>
        <time>2021-08-12T10:50:00Z</time>
      </trkpt>
      <trkpt lat="47.11493" lon="4.07986">
        <ele>723.53</ele>
        <time>2021-08-12T10:50:01Z</time>
      </trkpt>
      <trkpt lat="47.1149" lon="4.0799">
        <ele>723.53</ele>
        <time>2021-08-12T10:50:02Z</time>
      </trkpt>
      <trkpt lat="47.11486" lon="4.07993">
        <ele>723.53</ele>
        <time>2021-08-12T10:50:03Z</time>
      </trkpt>
      <trkpt lat="47.11483" lon="4.07996">
        <ele>723.53</ele>
        <time>2021-08-12T10:50:04Z</time>
      </trkpt>
      <trkpt lat="47.1148" lon="4.07999">
        <ele>722.09</ele>
        <time>2021-08-12T10:50:05Z</time>
      </trkpt>
      <trkpt lat="47.11478" lon="4.08002">
        <ele>722.09</ele>
        <time>2021-08-12T10:50:06Z</time>
      </trkpt>
      <trkpt lat="47.11475" lon="4.08005">
        <ele>722.09</ele>
        <time>2021-08-12T10:50:07Z</time>
      </trkpt>
      <trkpt lat="47.11455" lon="4.08022">
        <ele>721.61</ele>
        <time>2021-08-12T10:50:13Z</time>
      </trkpt>
      <trkpt lat="47.11448" lon="4.08028">
        <ele>721.61</ele>
        <time>2021-08-12T10:50:15Z</time>
      </trkpt>
      <trkpt lat="47.11444" lon="4.08032">
        <ele>721.13</ele>
        <time>2021-08-12T10:50:16Z</time>
      </trkpt>
      <trkpt lat="47.11431" lon="4.08044">
        <ele>720.65</ele>
        <time>2021-08-12T10:50:19Z</time>
      </trkpt>
      <trkpt lat="47.11426" lon="4.08046">
        <ele>720.65</ele>
        <time>2021-08-12T10:50:20Z</time>
      </trkpt>
      <trkpt lat="47.11421" lon="4.08047">
        <ele>720.65</ele>
        <time>2021-08-12T10:50:21Z</time>
      </trkpt>
      <trkpt lat="47.11396" lon="4.08061">
        <ele>721.13</ele>
        <time>2021-08-12T10:50:27Z</time>
      </trkpt>
      <trkpt lat="47.11377" lon="4.08067">
        <ele>720.65</ele>
        <time>2021-08-12T10:50:33Z</time>
      </trkpt>
      <trkpt lat="47.11356" lon="4.08076">
        <ele>720.65</ele>
        <time>2021-08-12T10:50:41Z</time>
      </trkpt>
      <trkpt lat="47.1135" lon="4.08078">
        <ele>721.13</ele>
        <time>2021-08-12T10:50:50Z</time>
      </trkpt>
      <trkpt lat="47.11351" lon="4.0808">
        <ele>721.13</ele>
        <time>2021-08-12T10:51:15Z</time>
      </trkpt>
      <trkpt lat="47.11349" lon="4.08082">
        <ele>721.61</ele>
        <time>2021-08-12T10:51:40Z</time>
      </trkpt>
      <trkpt lat="47.11348" lon="4.08084">
        <ele>721.61</ele>
        <time>2021-08-12T10:52:06Z</time>
      </trkpt>
      <trkpt lat="47.11345" lon="4.08081">
        <ele>721.61</ele>
        <time>2021-08-12T10:52:37Z</time>
      </trkpt>
      <trkpt lat="47.11346" lon="4.08083">
        <ele>722.09</ele>
        <time>2021-08-12T10:52:58Z</time>
      </trkpt>
      <trkpt lat="47.11345" lon="4.08074">
        <ele>722.09</ele>
        <time>2021-08-12T10:53:20Z</time>
      </trkpt>
      <trkpt lat="47.11344" lon="4.08074">
        <ele>722.09</ele>
        <time>2021-08-12T10:53:26Z</time>
      </trkpt>
      <trkpt lat="47.11343" lon="4.08077">
        <ele>721.61</ele>
        <time>2021-08-12T10:53:44Z</time>
      </trkpt>
      <trkpt lat="47.11346" lon="4.08078">
        <ele>721.61</ele>
        <time>2021-08-12T10:54:08Z</time>
      </trkpt>
      <trkpt lat="47.11346" lon="4.0808">
        <ele>721.61</ele>
        <time>2021-08-12T10:54:38Z</time>
      </trkpt>
      <trkpt lat="47.11347" lon="4.08078">
        <ele>721.61</ele>
        <time>2021-08-12T10:54:52Z</time>
      </trkpt>
      <trkpt lat="47.11349" lon="4.08078">
        <ele>721.61</ele>
        <time>2021-08-12T10:55:17Z</time>
      </trkpt>
      <trkpt lat="47.11346" lon="4.08075">
        <ele>721.61</ele>
        <time>2021-08-12T10:55:28Z</time>
      </trkpt>
      <trkpt lat="47.11346" lon="4.08071">
        <ele>721.61</ele>
        <time>2021-08-12T10:55:51Z</time>
      </trkpt>
      <trkpt lat="47.11347" lon="4.08075">
        <ele>721.61</ele>
        <time>2021-08-12T10:56:14Z</time>
      </trkpt>
      <trkpt lat="47.11348" lon="4.08072">
        <ele>721.61</ele>
        <time>2021-08-12T10:56:29Z</time>
      </trkpt>
      <trkpt lat="47.1135" lon="4.0807">
        <ele>721.61</ele>
        <time>2021-08-12T10:56:49Z</time>
      </trkpt>
      <trkpt lat="47.11348" lon="4.08074">
        <ele>721.61</ele>
        <time>2021-08-12T10:57:11Z</time>
      </trkpt>
      <trkpt lat="47.11349" lon="4.08072">
        <ele>721.61</ele>
        <time>2021-08-12T10:57:24Z</time>
      </trkpt>
      <trkpt lat="47.1135" lon="4.08074">
        <ele>721.61</ele>
        <time>2021-08-12T10:57:37Z</time>
      </trkpt>
      <trkpt lat="47.11348" lon="4.08075">
        <ele>721.61</ele>
        <time>2021-08-12T10:57:46Z</time>
      </trkpt>
      <trkpt lat="47.11348" lon="4.08075">
        <ele>721.13</ele>
        <time>2021-08-12T10:58:01Z</time>
      </trkpt>
      <trkpt lat="47.11346" lon="4.08076">
        <ele>721.13</ele>
        <time>2021-08-12T10:58:13Z</time>
      </trkpt>
      <trkpt lat="47.11346" lon="4.08077">
        <ele>721.13</ele>
        <time>2021-08-12T10:58:23Z</time>
      </trkpt>
      <trkpt lat="47.11346" lon="4.0808">
        <ele>721.13</ele>
        <time>2021-08-12T10:58:39Z</time>
      </trkpt>
      <trkpt lat="47.11349" lon="4.08076">
        <ele>721.13</ele>
        <time>2021-08-12T10:58:56Z</time>
      </trkpt>
      <trkpt lat="47.11349" lon="4.0808">
        <ele>720.16</ele>
        <time>2021-08-12T10:59:15Z</time>
      </trkpt>
      <trkpt lat="47.11349" lon="4.08082">
        <ele>720.16</ele>
        <time>2021-08-12T10:59:32Z</time>
      </trkpt>
      <trkpt lat="47.11351" lon="4.08078">
        <ele>720.16</ele>
        <time>2021-08-12T10:59:47Z</time>
      </trkpt>
      <trkpt lat="47.11345" lon="4.08077">
        <ele>720.16</ele>
        <time>2021-08-12T11:00:03Z</time>
      </trkpt>
      <trkpt lat="47.11344" lon="4.08076">
        <ele>720.16</ele>
        <time>2021-08-12T11:00:13Z</time>
      </trkpt>
      <trkpt lat="47.11348" lon="4.08079">
        <ele>720.16</ele>
        <time>2021-08-12T11:00:30Z</time>
      </trkpt>
      <trkpt lat="47.11348" lon="4.08076">
        <ele>720.16</ele>
        <time>2021-08-12T11:00:50Z</time>
      </trkpt>
      <trkpt lat="47.11344" lon="4.08079">
        <ele>720.16</ele>
        <time>2021-08-12T11:01:12Z</time>
      </trkpt>
      <trkpt lat="47.11347" lon="4.08081">
        <ele>720.16</ele>
        <time>2021-08-12T11:01:33Z</time>
      </trkpt>
      <trkpt lat="47.11346" lon="4.0808">
        <ele>720.16</ele>
        <time>2021-08-12T11:01:47Z</time>
      </trkpt>
      <trkpt lat="47.11347" lon="4.08082">
        <ele>719.68</ele>
        <time>2021-08-12T11:02:05Z</time>
      </trkpt>
      <trkpt lat="47.11345" lon="4.08077">
        <ele>719.68</ele>
        <time>2021-08-12T11:02:28Z</time>
      </trkpt>
      <trkpt lat="47.11343" lon="4.08083">
        <ele>720.16</ele>
        <time>2021-08-12T11:02:51Z</time>
      </trkpt>
      <trkpt lat="47.11343" lon="4.0808">
        <ele>720.16</ele>
        <time>2021-08-12T11:03:14Z</time>
      </trkpt>
      <trkpt lat="47.11343" lon="4.08077">
        <ele>720.16</ele>
        <time>2021-08-12T11:03:32Z</time>
      </trkpt>
      <trkpt lat="47.11344" lon="4.08077">
        <ele>720.16</ele>
        <time>2021-08-12T11:03:40Z</time>
      </trkpt>
      <trkpt lat="47.11345" lon="4.08079">
        <ele>720.16</ele>
        <time>2021-08-12T11:03:56Z</time>
      </trkpt>
      <trkpt lat="47.11342" lon="4.08076">
        <ele>720.16</ele>
        <time>2021-08-12T11:04:16Z</time>
      </trkpt>
      <trkpt lat="47.11345" lon="4.08084">
        <ele>720.16</ele>
        <time>2021-08-12T11:04:36Z</time>
      </trkpt>
      <trkpt lat="47.11346" lon="4.08088">
        <ele>720.16</ele>
        <time>2021-08-12T11:04:55Z</time>
      </trkpt>
      <trkpt lat="47.11343" lon="4.0808">
        <ele>720.16</ele>
        <time>2021-08-12T11:05:15Z</time>
      </trkpt>
      <trkpt lat="47.11339" lon="4.08077">
        <ele>720.16</ele>
        <time>2021-08-12T11:05:34Z</time>
      </trkpt>
      <trkpt lat="47.11337" lon="4.08075">
        <ele>720.16</ele>
        <time>2021-08-12T11:05:56Z</time>
      </trkpt>
      <trkpt lat="47.11341" lon="4.08076">
        <ele>720.16</ele>
        <time>2021-08-12T11:06:24Z</time>
      </trkpt>
      <trkpt lat="47.11343" lon="4.08079">
        <ele>720.16</ele>
        <time>2021-08-12T11:06:39Z</time>
      </trkpt>
      <trkpt lat="47.1134" lon="4.08078">
        <ele>720.16</ele>
        <time>2021-08-12T11:06:53Z</time>
      </trkpt>
      <trkpt lat="47.11339" lon="4.08079">
        <ele>720.16</ele>
        <time>2021-08-12T11:07:01Z</time>
      </trkpt>
      <trkpt lat="47.1134" lon="4.0808">
        <ele>720.16</ele>
        <time>2021-08-12T11:07:15Z</time>
      </trkpt>
      <trkpt lat="47.11341" lon="4.08079">
        <ele>720.16</ele>
        <time>2021-08-12T11:07:24Z</time>
      </trkpt>
      <trkpt lat="47.11341" lon="4.08083">
        <ele>720.16</ele>
        <time>2021-08-12T11:07:41Z</time>
      </trkpt>
      <trkpt lat="47.11337" lon="4.0808">
        <ele>720.16</ele>
        <time>2021-08-12T11:08:02Z</time>
      </trkpt>
      <trkpt lat="47.11339" lon="4.0808">
        <ele>720.16</ele>
        <time>2021-08-12T11:08:21Z</time>
      </trkpt>
      <trkpt lat="47.11344" lon="4.08079">
        <ele>720.16</ele>
        <time>2021-08-12T11:08:44Z</time>
      </trkpt>
      <trkpt lat="47.11339" lon="4.08079">
        <ele>720.16</ele>
        <time>2021-08-12T11:08:58Z</time>
      </trkpt>
      <trkpt lat="47.11339" lon="4.08078">
        <ele>720.16</ele>
        <time>2021-08-12T11:09:12Z</time>
      </trkpt>
      <trkpt lat="47.1134" lon="4.08078">
        <ele>719.68</ele>
        <time>2021-08-12T11:09:23Z</time>
      </trkpt>
      <trkpt lat="47.11341" lon="4.08078">
        <ele>719.68</ele>
        <time>2021-08-12T11:09:35Z</time>
      </trkpt>
      <trkpt lat="47.1134" lon="4.08078">
        <ele>719.68</ele>
        <time>2021-08-12T11:09:45Z</time>
      </trkpt>
      <trkpt lat="47.11341" lon="4.08078">
        <ele>721.13</ele>
        <time>2021-08-12T11:09:54Z</time>
      </trkpt>
      <trkpt lat="47.11341" lon="4.08079">
        <ele>721.13</ele>
        <time>2021-08-12T11:10:03Z</time>
      </trkpt>
      <trkpt lat="47.11341" lon="4.08078">
        <ele>721.13</ele>
        <time>2021-08-12T11:10:12Z</time>
      </trkpt>
      <trkpt lat="47.11342" lon="4.08076">
        <ele>721.13</ele>
        <time>2021-08-12T11:10:25Z</time>
      </trkpt>
      <trkpt lat="47.11345" lon="4.08079">
        <ele>721.13</ele>
        <time>2021-08-12T11:10:43Z</time>
      </trkpt>
      <trkpt lat="47.11347" lon="4.08077">
        <ele>721.13</ele>
        <time>2021-08-12T11:11:06Z</time>
      </trkpt>
      <trkpt lat="47.11347" lon="4.08073">
        <ele>721.13</ele>
        <time>2021-08-12T11:11:25Z</time>
      </trkpt>
      <trkpt lat="47.11344" lon="4.08072">
        <ele>720.65</ele>
        <time>2021-08-12T11:11:46Z</time>
      </trkpt>
      <trkpt lat="47.11346" lon="4.08081">
        <ele>720.65</ele>
        <time>2021-08-12T11:12:01Z</time>
      </trkpt>
      <trkpt lat="47.11342" lon="4.08082">
        <ele>720.65</ele>
        <time>2021-08-12T11:12:17Z</time>
      </trkpt>
      <trkpt lat="47.11341" lon="4.08082">
        <ele>720.65</ele>
        <time>2021-08-12T11:12:23Z</time>
      </trkpt>
      <trkpt lat="47.1134" lon="4.08083">
        <ele>720.65</ele>
        <time>2021-08-12T11:12:38Z</time>
      </trkpt>
      <trkpt lat="47.11342" lon="4.08079">
        <ele>720.65</ele>
        <time>2021-08-12T11:12:57Z</time>
      </trkpt>
      <trkpt lat="47.11343" lon="4.08075">
        <ele>720.65</ele>
        <time>2021-08-12T11:13:11Z</time>
      </trkpt>
      <trkpt lat="47.11342" lon="4.08075">
        <ele>720.65</ele>
        <time>2021-08-12T11:13:26Z</time>
      </trkpt>
      <trkpt lat="47.1134" lon="4.08077">
        <ele>720.65</ele>
        <time>2021-08-12T11:13:37Z</time>
      </trkpt>
      <trkpt lat="47.11339" lon="4.08081">
        <ele>720.65</ele>
        <time>2021-08-12T11:13:58Z</time>
      </trkpt>
      <trkpt lat="47.11334" lon="4.08091">
        <ele>720.65</ele>
        <time>2021-08-12T11:14:04Z</time>
      </trkpt>
      <trkpt lat="47.11332" lon="4.08093">
        <ele>720.65</ele>
        <time>2021-08-12T11:14:05Z</time>
      </trkpt>
      <trkpt lat="47.1133" lon="4.08093">
        <ele>720.65</ele>
        <time>2021-08-12T11:14:06Z</time>
      </trkpt>
      <trkpt lat="47.11311" lon="4.08097">
        <ele>720.65</ele>
        <time>2021-08-12T11:14:15Z</time>
      </trkpt>
      <trkpt lat="47.11287" lon="4.08106">
        <ele>720.65</ele>
        <time>2021-08-12T11:14:23Z</time>
      </trkpt>
      <trkpt lat="47.11268" lon="4.08111">
        <ele>721.13</ele>
        <time>2021-08-12T11:14:29Z</time>
      </trkpt>
      <trkpt lat="47.1125" lon="4.08123">
        <ele>721.13</ele>
        <time>2021-08-12T11:14:35Z</time>
      </trkpt>
      <trkpt lat="47.1123" lon="4.08141">
        <ele>721.61</ele>
        <time>2021-08-12T11:14:43Z</time>
      </trkpt>
      <trkpt lat="47.11202" lon="4.08162">
        <ele>723.53</ele>
        <time>2021-08-12T11:14:54Z</time>
      </trkpt>
      <trkpt lat="47.11191" lon="4.08173">
        <ele>724.01</ele>
        <time>2021-08-12T11:14:59Z</time>
      </trkpt>
      <trkpt lat="47.11176" lon="4.08185">
        <ele>724.01</ele>
        <time>2021-08-12T11:15:05Z</time>
      </trkpt>
      <trkpt lat="47.11155" lon="4.08198">
        <ele>724.97</ele>
        <time>2021-08-12T11:15:14Z</time>
      </trkpt>
      <trkpt lat="47.11139" lon="4.08202">
        <ele>725.93</ele>
        <time>2021-08-12T11:15:20Z</time>
      </trkpt>
      <trkpt lat="47.11121" lon="4.08201">
        <ele>726.41</ele>
        <time>2021-08-12T11:15:27Z</time>
      </trkpt>
      <trkpt lat="47.111" lon="4.082">
        <ele>727.37</ele>
        <time>2021-08-12T11:15:35Z</time>
      </trkpt>
      <trkpt lat="47.11086" lon="4.08199">
        <ele>727.86</ele>
        <time>2021-08-12T11:15:41Z</time>
      </trkpt>
      <trkpt lat="47.11065" lon="4.08199">
        <ele>729.78</ele>
        <time>2021-08-12T11:15:50Z</time>
      </trkpt>
      <trkpt lat="47.11046" lon="4.08199">
        <ele>730.26</ele>
        <time>2021-08-12T11:15:58Z</time>
      </trkpt>
      <trkpt lat="47.11031" lon="4.08197">
        <ele>730.74</ele>
        <time>2021-08-12T11:16:04Z</time>
      </trkpt>
      <trkpt lat="47.1101" lon="4.08183">
        <ele>731.7</ele>
        <time>2021-08-12T11:16:13Z</time>
      </trkpt>
      <trkpt lat="47.10985" lon="4.08163">
        <ele>732.18</ele>
        <time>2021-08-12T11:16:23Z</time>
      </trkpt>
      <trkpt lat="47.10968" lon="4.08153">
        <ele>732.18</ele>
        <time>2021-08-12T11:16:29Z</time>
      </trkpt>
      <trkpt lat="47.10946" lon="4.08148">
        <ele>732.18</ele>
        <time>2021-08-12T11:16:35Z</time>
      </trkpt>
      <trkpt lat="47.10918" lon="4.08142">
        <ele>730.74</ele>
        <time>2021-08-12T11:16:42Z</time>
      </trkpt>
      <trkpt lat="47.10914" lon="4.08142">
        <ele>730.74</ele>
        <time>2021-08-12T11:16:43Z</time>
      </trkpt>
      <trkpt lat="47.1091" lon="4.08141">
        <ele>730.26</ele>
        <time>2021-08-12T11:16:44Z</time>
      </trkpt>
      <trkpt lat="47.10906" lon="4.08141">
        <ele>730.26</ele>
        <time>2021-08-12T11:16:45Z</time>
      </trkpt>
      <trkpt lat="47.10903" lon="4.08141">
        <ele>730.26</ele>
        <time>2021-08-12T11:16:46Z</time>
      </trkpt>
      <trkpt lat="47.10899" lon="4.08141">
        <ele>730.26</ele>
        <time>2021-08-12T11:16:47Z</time>
      </trkpt>
      <trkpt lat="47.10896" lon="4.08139">
        <ele>730.26</ele>
        <time>2021-08-12T11:16:48Z</time>
      </trkpt>
      <trkpt lat="47.10869" lon="4.08136">
        <ele>732.18</ele>
        <time>2021-08-12T11:16:55Z</time>
      </trkpt>
      <trkpt lat="47.10837" lon="4.08127">
        <ele>730.74</ele>
        <time>2021-08-12T11:17:03Z</time>
      </trkpt>
      <trkpt lat="47.10828" lon="4.08123">
        <ele>731.22</ele>
        <time>2021-08-12T11:17:05Z</time>
      </trkpt>
      <trkpt lat="47.10824" lon="4.0812">
        <ele>731.22</ele>
        <time>2021-08-12T11:17:06Z</time>
      </trkpt>
      <trkpt lat="47.1082" lon="4.08117">
        <ele>730.74</ele>
        <time>2021-08-12T11:17:07Z</time>
      </trkpt>
      <trkpt lat="47.10788" lon="4.08099">
        <ele>732.18</ele>
        <time>2021-08-12T11:17:16Z</time>
      </trkpt>
      <trkpt lat="47.10761" lon="4.08099">
        <ele>732.66</ele>
        <time>2021-08-12T11:17:24Z</time>
      </trkpt>
      <trkpt lat="47.10739" lon="4.08103">
        <ele>734.1</ele>
        <time>2021-08-12T11:17:31Z</time>
      </trkpt>
      <trkpt lat="47.1071" lon="4.08108">
        <ele>734.1</ele>
        <time>2021-08-12T11:17:39Z</time>
      </trkpt>
      <trkpt lat="47.10687" lon="4.08122">
        <ele>734.1</ele>
        <time>2021-08-12T11:17:46Z</time>
      </trkpt>
      <trkpt lat="47.10679" lon="4.08126">
        <ele>734.1</ele>
        <time>2021-08-12T11:17:50Z</time>
      </trkpt>
      <trkpt lat="47.10668" lon="4.08133">
        <ele>734.1</ele>
        <time>2021-08-12T11:17:54Z</time>
      </trkpt>
      <trkpt lat="47.1065" lon="4.0814">
        <ele>735.07</ele>
        <time>2021-08-12T11:18:00Z</time>
      </trkpt>
      <trkpt lat="47.10638" lon="4.08142">
        <ele>735.55</ele>
        <time>2021-08-12T11:18:05Z</time>
      </trkpt>
      <trkpt lat="47.10636" lon="4.08144">
        <ele>735.55</ele>
        <time>2021-08-12T11:18:06Z</time>
      </trkpt>
      <trkpt lat="47.10635" lon="4.08148">
        <ele>735.55</ele>
        <time>2021-08-12T11:18:07Z</time>
      </trkpt>
      <trkpt lat="47.10634" lon="4.08152">
        <ele>735.55</ele>
        <time>2021-08-12T11:18:08Z</time>
      </trkpt>
      <trkpt lat="47.10634" lon="4.08158">
        <ele>735.55</ele>
        <time>2021-08-12T11:18:09Z</time>
      </trkpt>
      <trkpt lat="47.10635" lon="4.08164">
        <ele>734.58</ele>
        <time>2021-08-12T11:18:10Z</time>
      </trkpt>
      <trkpt lat="47.10635" lon="4.08171">
        <ele>734.1</ele>
        <time>2021-08-12T11:18:11Z</time>
      </trkpt>
      <trkpt lat="47.10635" lon="4.08185">
        <ele>732.66</ele>
        <time>2021-08-12T11:18:13Z</time>
      </trkpt>
      <trkpt lat="47.10634" lon="4.08193">
        <ele>732.66</ele>
        <time>2021-08-12T11:18:14Z</time>
      </trkpt>
      <trkpt lat="47.10631" lon="4.08206">
        <ele>732.66</ele>
        <time>2021-08-12T11:18:16Z</time>
      </trkpt>
      <trkpt lat="47.1063" lon="4.08213">
        <ele>732.66</ele>
        <time>2021-08-12T11:18:17Z</time>
      </trkpt>
      <trkpt lat="47.10629" lon="4.08218">
        <ele>732.66</ele>
        <time>2021-08-12T11:18:18Z</time>
      </trkpt>
      <trkpt lat="47.10621" lon="4.08248">
        <ele>732.18</ele>
        <time>2021-08-12T11:18:23Z</time>
      </trkpt>
      <trkpt lat="47.1062" lon="4.08254">
        <ele>732.18</ele>
        <time>2021-08-12T11:18:24Z</time>
      </trkpt>
      <trkpt lat="47.10614" lon="4.08284">
        <ele>732.18</ele>
        <time>2021-08-12T11:18:29Z</time>
      </trkpt>
      <trkpt lat="47.10611" lon="4.08343">
        <ele>727.86</ele>
        <time>2021-08-12T11:18:35Z</time>
      </trkpt>
      <trkpt lat="47.10609" lon="4.08354">
        <ele>726.89</ele>
        <time>2021-08-12T11:18:36Z</time>
      </trkpt>
      <trkpt lat="47.10606" lon="4.08368">
        <ele>725.93</ele>
        <time>2021-08-12T11:18:37Z</time>
      </trkpt>
      <trkpt lat="47.10602" lon="4.08381">
        <ele>724.97</ele>
        <time>2021-08-12T11:18:38Z</time>
      </trkpt>
      <trkpt lat="47.10597" lon="4.08395">
        <ele>724.01</ele>
        <time>2021-08-12T11:18:39Z</time>
      </trkpt>
      <trkpt lat="47.10591" lon="4.08408">
        <ele>723.53</ele>
        <time>2021-08-12T11:18:40Z</time>
      </trkpt>
      <trkpt lat="47.10572" lon="4.08448">
        <ele>721.13</ele>
        <time>2021-08-12T11:18:43Z</time>
      </trkpt>
      <trkpt lat="47.10546" lon="4.08513">
        <ele>719.68</ele>
        <time>2021-08-12T11:18:48Z</time>
      </trkpt>
      <trkpt lat="47.10542" lon="4.08525">
        <ele>719.68</ele>
        <time>2021-08-12T11:18:49Z</time>
      </trkpt>
      <trkpt lat="47.10536" lon="4.08549">
        <ele>719.68</ele>
        <time>2021-08-12T11:18:53Z</time>
      </trkpt>
      <trkpt lat="47.10533" lon="4.08558">
        <ele>720.16</ele>
        <time>2021-08-12T11:18:56Z</time>
      </trkpt>
      <trkpt lat="47.10531" lon="4.0856">
        <ele>720.16</ele>
        <time>2021-08-12T11:18:57Z</time>
      </trkpt>
      <trkpt lat="47.10526" lon="4.08565">
        <ele>720.16</ele>
        <time>2021-08-12T11:18:59Z</time>
      </trkpt>
      <trkpt lat="47.10524" lon="4.08567">
        <ele>720.16</ele>
        <time>2021-08-12T11:19:00Z</time>
      </trkpt>
      <trkpt lat="47.10521" lon="4.08568">
        <ele>720.16</ele>
        <time>2021-08-12T11:19:01Z</time>
      </trkpt>
      <trkpt lat="47.10515" lon="4.08568">
        <ele>721.13</ele>
        <time>2021-08-12T11:19:03Z</time>
      </trkpt>
      <trkpt lat="47.10495" lon="4.08571">
        <ele>721.61</ele>
        <time>2021-08-12T11:19:10Z</time>
      </trkpt>
      <trkpt lat="47.10497" lon="4.08569">
        <ele>722.57</ele>
        <time>2021-08-12T11:19:15Z</time>
      </trkpt>
      <trkpt lat="47.10499" lon="4.08569">
        <ele>722.57</ele>
        <time>2021-08-12T11:19:16Z</time>
      </trkpt>
      <trkpt lat="47.10501" lon="4.08568">
        <ele>722.57</ele>
        <time>2021-08-12T11:19:17Z</time>
      </trkpt>
      <trkpt lat="47.10516" lon="4.08569">
        <ele>722.09</ele>
        <time>2021-08-12T11:19:23Z</time>
      </trkpt>
      <trkpt lat="47.10522" lon="4.08575">
        <ele>721.13</ele>
        <time>2021-08-12T11:19:25Z</time>
      </trkpt>
      <trkpt lat="47.10525" lon="4.08581">
        <ele>721.13</ele>
        <time>2021-08-12T11:19:26Z</time>
      </trkpt>
      <trkpt lat="47.10526" lon="4.08585">
        <ele>720.65</ele>
        <time>2021-08-12T11:19:27Z</time>
      </trkpt>
      <trkpt lat="47.10528" lon="4.08591">
        <ele>720.65</ele>
        <time>2021-08-12T11:19:28Z</time>
      </trkpt>
      <trkpt lat="47.10529" lon="4.08597">
        <ele>720.65</ele>
        <time>2021-08-12T11:19:29Z</time>
      </trkpt>
      <trkpt lat="47.1053" lon="4.08603">
        <ele>720.16</ele>
        <time>2021-08-12T11:19:30Z</time>
      </trkpt>
      <trkpt lat="47.1053" lon="4.08609">
        <ele>719.68</ele>
        <time>2021-08-12T11:19:31Z</time>
      </trkpt>
      <trkpt lat="47.1053" lon="4.08617">
        <ele>718.72</ele>
        <time>2021-08-12T11:19:32Z</time>
      </trkpt>
      <trkpt lat="47.10529" lon="4.08624">
        <ele>719.2</ele>
        <time>2021-08-12T11:19:33Z</time>
      </trkpt>
      <trkpt lat="47.10528" lon="4.08631">
        <ele>718.72</ele>
        <time>2021-08-12T11:19:34Z</time>
      </trkpt>
      <trkpt lat="47.10516" lon="4.08672">
        <ele>718.72</ele>
        <time>2021-08-12T11:19:41Z</time>
      </trkpt>
      <trkpt lat="47.10515" lon="4.08679">
        <ele>719.2</ele>
        <time>2021-08-12T11:19:42Z</time>
      </trkpt>
      <trkpt lat="47.10513" lon="4.08718">
        <ele>718.24</ele>
        <time>2021-08-12T11:19:48Z</time>
      </trkpt>
      <trkpt lat="47.10512" lon="4.08725">
        <ele>718.24</ele>
        <time>2021-08-12T11:19:49Z</time>
      </trkpt>
      <trkpt lat="47.10509" lon="4.08744">
        <ele>718.24</ele>
        <time>2021-08-12T11:19:52Z</time>
      </trkpt>
      <trkpt lat="47.10506" lon="4.08771">
        <ele>718.24</ele>
        <time>2021-08-12T11:19:56Z</time>
      </trkpt>
      <trkpt lat="47.10506" lon="4.08777">
        <ele>718.24</ele>
        <time>2021-08-12T11:19:57Z</time>
      </trkpt>
      <trkpt lat="47.10514" lon="4.0882">
        <ele>718.24</ele>
        <time>2021-08-12T11:20:04Z</time>
      </trkpt>
      <trkpt lat="47.10514" lon="4.08826">
        <ele>718.24</ele>
        <time>2021-08-12T11:20:05Z</time>
      </trkpt>
      <trkpt lat="47.10515" lon="4.08832">
        <ele>718.24</ele>
        <time>2021-08-12T11:20:06Z</time>
      </trkpt>
      <trkpt lat="47.10516" lon="4.08839">
        <ele>718.24</ele>
        <time>2021-08-12T11:20:07Z</time>
      </trkpt>
      <trkpt lat="47.10519" lon="4.08875">
        <ele>718.24</ele>
        <time>2021-08-12T11:20:13Z</time>
      </trkpt>
      <trkpt lat="47.10524" lon="4.08928">
        <ele>718.24</ele>
        <time>2021-08-12T11:20:22Z</time>
      </trkpt>
      <trkpt lat="47.10525" lon="4.08934">
        <ele>718.24</ele>
        <time>2021-08-12T11:20:23Z</time>
      </trkpt>
      <trkpt lat="47.10533" lon="4.08992">
        <ele>718.24</ele>
        <time>2021-08-12T11:20:32Z</time>
      </trkpt>
      <trkpt lat="47.10535" lon="4.09004">
        <ele>718.24</ele>
        <time>2021-08-12T11:20:34Z</time>
      </trkpt>
      <trkpt lat="47.10535" lon="4.09011">
        <ele>718.24</ele>
        <time>2021-08-12T11:20:35Z</time>
      </trkpt>
      <trkpt lat="47.10535" lon="4.09017">
        <ele>718.24</ele>
        <time>2021-08-12T11:20:36Z</time>
      </trkpt>
      <trkpt lat="47.10533" lon="4.09056">
        <ele>717.28</ele>
        <time>2021-08-12T11:20:42Z</time>
      </trkpt>
      <trkpt lat="47.10529" lon="4.09103">
        <ele>715.36</ele>
        <time>2021-08-12T11:20:48Z</time>
      </trkpt>
      <trkpt lat="47.10529" lon="4.09111">
        <ele>714.88</ele>
        <time>2021-08-12T11:20:49Z</time>
      </trkpt>
      <trkpt lat="47.10534" lon="4.09171">
        <ele>714.4</ele>
        <time>2021-08-12T11:20:57Z</time>
      </trkpt>
      <trkpt lat="47.10533" lon="4.09185">
        <ele>714.4</ele>
        <time>2021-08-12T11:20:59Z</time>
      </trkpt>
      <trkpt lat="47.1053" lon="4.09214">
        <ele>713.44</ele>
        <time>2021-08-12T11:21:03Z</time>
      </trkpt>
      <trkpt lat="47.10529" lon="4.09222">
        <ele>712.95</ele>
        <time>2021-08-12T11:21:04Z</time>
      </trkpt>
      <trkpt lat="47.10519" lon="4.09264">
        <ele>711.51</ele>
        <time>2021-08-12T11:21:09Z</time>
      </trkpt>
      <trkpt lat="47.10511" lon="4.09287">
        <ele>711.03</ele>
        <time>2021-08-12T11:21:12Z</time>
      </trkpt>
      <trkpt lat="47.10508" lon="4.09296">
        <ele>710.07</ele>
        <time>2021-08-12T11:21:13Z</time>
      </trkpt>
      <trkpt lat="47.10507" lon="4.09303">
        <ele>710.07</ele>
        <time>2021-08-12T11:21:14Z</time>
      </trkpt>
      <trkpt lat="47.10507" lon="4.09311">
        <ele>710.07</ele>
        <time>2021-08-12T11:21:15Z</time>
      </trkpt>
      <trkpt lat="47.10508" lon="4.09319">
        <ele>710.07</ele>
        <time>2021-08-12T11:21:16Z</time>
      </trkpt>
      <trkpt lat="47.10509" lon="4.09325">
        <ele>710.07</ele>
        <time>2021-08-12T11:21:17Z</time>
      </trkpt>
      <trkpt lat="47.10509" lon="4.09331">
        <ele>711.03</ele>
        <time>2021-08-12T11:21:18Z</time>
      </trkpt>
      <trkpt lat="47.10511" lon="4.09336">
        <ele>711.03</ele>
        <time>2021-08-12T11:21:19Z</time>
      </trkpt>
      <trkpt lat="47.10514" lon="4.09363">
        <ele>711.99</ele>
        <time>2021-08-12T11:21:25Z</time>
      </trkpt>
      <trkpt lat="47.10524" lon="4.09408">
        <ele>713.92</ele>
        <time>2021-08-12T11:21:35Z</time>
      </trkpt>
      <trkpt lat="47.10532" lon="4.09449">
        <ele>715.36</ele>
        <time>2021-08-12T11:21:44Z</time>
      </trkpt>
      <trkpt lat="47.10539" lon="4.09487">
        <ele>715.84</ele>
        <time>2021-08-12T11:21:53Z</time>
      </trkpt>
      <trkpt lat="47.10537" lon="4.09512">
        <ele>715.84</ele>
        <time>2021-08-12T11:21:59Z</time>
      </trkpt>
      <trkpt lat="47.10522" lon="4.09529">
        <ele>715.84</ele>
        <time>2021-08-12T11:22:05Z</time>
      </trkpt>
      <trkpt lat="47.10503" lon="4.09538">
        <ele>715.84</ele>
        <time>2021-08-12T11:22:10Z</time>
      </trkpt>
      <trkpt lat="47.1049" lon="4.09543">
        <ele>713.92</ele>
        <time>2021-08-12T11:22:13Z</time>
      </trkpt>
      <trkpt lat="47.10479" lon="4.09545">
        <ele>713.44</ele>
        <time>2021-08-12T11:22:15Z</time>
      </trkpt>
      <trkpt lat="47.10442" lon="4.09556">
        <ele>711.03</ele>
        <time>2021-08-12T11:22:21Z</time>
      </trkpt>
      <trkpt lat="47.10424" lon="4.09561">
        <ele>710.55</ele>
        <time>2021-08-12T11:22:24Z</time>
      </trkpt>
      <trkpt lat="47.10384" lon="4.09565">
        <ele>710.55</ele>
        <time>2021-08-12T11:22:31Z</time>
      </trkpt>
      <trkpt lat="47.10345" lon="4.09569">
        <ele>710.07</ele>
        <time>2021-08-12T11:22:38Z</time>
      </trkpt>
      <trkpt lat="47.1034" lon="4.0957">
        <ele>710.07</ele>
        <time>2021-08-12T11:22:39Z</time>
      </trkpt>
      <trkpt lat="47.10334" lon="4.09571">
        <ele>709.11</ele>
        <time>2021-08-12T11:22:40Z</time>
      </trkpt>
      <trkpt lat="47.1033" lon="4.09572">
        <ele>709.11</ele>
        <time>2021-08-12T11:22:41Z</time>
      </trkpt>
      <trkpt lat="47.10324" lon="4.09573">
        <ele>709.11</ele>
        <time>2021-08-12T11:22:42Z</time>
      </trkpt>
      <trkpt lat="47.10314" lon="4.09577">
        <ele>709.11</ele>
        <time>2021-08-12T11:22:44Z</time>
      </trkpt>
      <trkpt lat="47.10309" lon="4.09579">
        <ele>708.63</ele>
        <time>2021-08-12T11:22:45Z</time>
      </trkpt>
      <trkpt lat="47.10277" lon="4.09594">
        <ele>708.63</ele>
        <time>2021-08-12T11:22:51Z</time>
      </trkpt>
      <trkpt lat="47.10268" lon="4.09601">
        <ele>708.15</ele>
        <time>2021-08-12T11:22:53Z</time>
      </trkpt>
      <trkpt lat="47.10262" lon="4.09605">
        <ele>708.15</ele>
        <time>2021-08-12T11:22:54Z</time>
      </trkpt>
      <trkpt lat="47.10256" lon="4.09609">
        <ele>707.19</ele>
        <time>2021-08-12T11:22:55Z</time>
      </trkpt>
      <trkpt lat="47.10251" lon="4.09611">
        <ele>707.19</ele>
        <time>2021-08-12T11:22:56Z</time>
      </trkpt>
      <trkpt lat="47.10245" lon="4.09615">
        <ele>707.19</ele>
        <time>2021-08-12T11:22:57Z</time>
      </trkpt>
      <trkpt lat="47.10223" lon="4.09631">
        <ele>705.75</ele>
        <time>2021-08-12T11:23:01Z</time>
      </trkpt>
      <trkpt lat="47.10218" lon="4.09636">
        <ele>705.75</ele>
        <time>2021-08-12T11:23:02Z</time>
      </trkpt>
      <trkpt lat="47.10213" lon="4.09642">
        <ele>705.75</ele>
        <time>2021-08-12T11:23:03Z</time>
      </trkpt>
      <trkpt lat="47.10209" lon="4.09649">
        <ele>705.26</ele>
        <time>2021-08-12T11:23:04Z</time>
      </trkpt>
      <trkpt lat="47.10206" lon="4.09655">
        <ele>705.26</ele>
        <time>2021-08-12T11:23:05Z</time>
      </trkpt>
      <trkpt lat="47.10194" lon="4.09673">
        <ele>704.3</ele>
        <time>2021-08-12T11:23:08Z</time>
      </trkpt>
      <trkpt lat="47.1019" lon="4.0968">
        <ele>703.82</ele>
        <time>2021-08-12T11:23:09Z</time>
      </trkpt>
      <trkpt lat="47.10182" lon="4.09694">
        <ele>703.34</ele>
        <time>2021-08-12T11:23:11Z</time>
      </trkpt>
      <trkpt lat="47.10179" lon="4.09702">
        <ele>702.86</ele>
        <time>2021-08-12T11:23:12Z</time>
      </trkpt>
      <trkpt lat="47.10157" lon="4.09738">
        <ele>700.94</ele>
        <time>2021-08-12T11:23:17Z</time>
      </trkpt>
      <trkpt lat="47.10149" lon="4.09755">
        <ele>700.46</ele>
        <time>2021-08-12T11:23:19Z</time>
      </trkpt>
      <trkpt lat="47.10123" lon="4.09812">
        <ele>697.09</ele>
        <time>2021-08-12T11:23:25Z</time>
      </trkpt>
      <trkpt lat="47.10113" lon="4.09832">
        <ele>696.61</ele>
        <time>2021-08-12T11:23:27Z</time>
      </trkpt>
      <trkpt lat="47.10087" lon="4.0988">
        <ele>693.25</ele>
        <time>2021-08-12T11:23:32Z</time>
      </trkpt>
      <trkpt lat="47.10082" lon="4.0989">
        <ele>692.77</ele>
        <time>2021-08-12T11:23:33Z</time>
      </trkpt>
      <trkpt lat="47.10073" lon="4.09906">
        <ele>692.29</ele>
        <time>2021-08-12T11:23:35Z</time>
      </trkpt>
      <trkpt lat="47.10068" lon="4.09913">
        <ele>691.33</ele>
        <time>2021-08-12T11:23:36Z</time>
      </trkpt>
      <trkpt lat="47.10058" lon="4.09931">
        <ele>689.88</ele>
        <time>2021-08-12T11:23:38Z</time>
      </trkpt>
      <trkpt lat="47.10053" lon="4.09941">
        <ele>688.92</ele>
        <time>2021-08-12T11:23:39Z</time>
      </trkpt>
      <trkpt lat="47.10043" lon="4.0997">
        <ele>686.04</ele>
        <time>2021-08-12T11:23:42Z</time>
      </trkpt>
      <trkpt lat="47.10039" lon="4.09978">
        <ele>686.04</ele>
        <time>2021-08-12T11:23:43Z</time>
      </trkpt>
      <trkpt lat="47.10034" lon="4.09985">
        <ele>684.12</ele>
        <time>2021-08-12T11:23:44Z</time>
      </trkpt>
      <trkpt lat="47.10029" lon="4.09993">
        <ele>682.67</ele>
        <time>2021-08-12T11:23:45Z</time>
      </trkpt>
      <trkpt lat="47.10025" lon="4.10002">
        <ele>682.19</ele>
        <time>2021-08-12T11:23:46Z</time>
      </trkpt>
      <trkpt lat="47.1002" lon="4.10012">
        <ele>680.75</ele>
        <time>2021-08-12T11:23:47Z</time>
      </trkpt>
      <trkpt lat="47.10015" lon="4.10022">
        <ele>680.27</ele>
        <time>2021-08-12T11:23:48Z</time>
      </trkpt>
      <trkpt lat="47.10012" lon="4.10033">
        <ele>678.83</ele>
        <time>2021-08-12T11:23:49Z</time>
      </trkpt>
      <trkpt lat="47.10009" lon="4.10043">
        <ele>678.83</ele>
        <time>2021-08-12T11:23:50Z</time>
      </trkpt>
      <trkpt lat="47.10002" lon="4.10072">
        <ele>677.39</ele>
        <time>2021-08-12T11:23:53Z</time>
      </trkpt>
      <trkpt lat="47.09989" lon="4.10105">
        <ele>674.02</ele>
        <time>2021-08-12T11:23:57Z</time>
      </trkpt>
      <trkpt lat="47.09986" lon="4.10115">
        <ele>673.06</ele>
        <time>2021-08-12T11:23:58Z</time>
      </trkpt>
      <trkpt lat="47.09984" lon="4.10127">
        <ele>672.58</ele>
        <time>2021-08-12T11:23:59Z</time>
      </trkpt>
      <trkpt lat="47.09983" lon="4.10138">
        <ele>672.1</ele>
        <time>2021-08-12T11:24:00Z</time>
      </trkpt>
      <trkpt lat="47.09983" lon="4.10151">
        <ele>672.1</ele>
        <time>2021-08-12T11:24:01Z</time>
      </trkpt>
      <trkpt lat="47.09975" lon="4.1024">
        <ele>668.25</ele>
        <time>2021-08-12T11:24:08Z</time>
      </trkpt>
      <trkpt lat="47.09969" lon="4.10325">
        <ele>664.89</ele>
        <time>2021-08-12T11:24:14Z</time>
      </trkpt>
      <trkpt lat="47.09965" lon="4.10378">
        <ele>663.45</ele>
        <time>2021-08-12T11:24:18Z</time>
      </trkpt>
      <trkpt lat="47.09962" lon="4.1039">
        <ele>662.49</ele>
        <time>2021-08-12T11:24:19Z</time>
      </trkpt>
      <trkpt lat="47.09958" lon="4.10402">
        <ele>662.01</ele>
        <time>2021-08-12T11:24:20Z</time>
      </trkpt>
      <trkpt lat="47.09953" lon="4.10413">
        <ele>662.01</ele>
        <time>2021-08-12T11:24:21Z</time>
      </trkpt>
      <trkpt lat="47.09948" lon="4.10423">
        <ele>660.56</ele>
        <time>2021-08-12T11:24:22Z</time>
      </trkpt>
      <trkpt lat="47.09941" lon="4.10433">
        <ele>660.08</ele>
        <time>2021-08-12T11:24:23Z</time>
      </trkpt>
      <trkpt lat="47.09926" lon="4.10452">
        <ele>658.64</ele>
        <time>2021-08-12T11:24:25Z</time>
      </trkpt>
      <trkpt lat="47.09918" lon="4.1046">
        <ele>658.16</ele>
        <time>2021-08-12T11:24:26Z</time>
      </trkpt>
      <trkpt lat="47.09908" lon="4.10467">
        <ele>657.68</ele>
        <time>2021-08-12T11:24:27Z</time>
      </trkpt>
      <trkpt lat="47.09899" lon="4.10472">
        <ele>656.72</ele>
        <time>2021-08-12T11:24:28Z</time>
      </trkpt>
      <trkpt lat="47.09888" lon="4.10477">
        <ele>656.24</ele>
        <time>2021-08-12T11:24:29Z</time>
      </trkpt>
      <trkpt lat="47.09867" lon="4.10484">
        <ele>655.28</ele>
        <time>2021-08-12T11:24:31Z</time>
      </trkpt>
      <trkpt lat="47.09847" lon="4.10492">
        <ele>654.8</ele>
        <time>2021-08-12T11:24:33Z</time>
      </trkpt>
      <trkpt lat="47.09792" lon="4.10532">
        <ele>652.87</ele>
        <time>2021-08-12T11:24:39Z</time>
      </trkpt>
      <trkpt lat="47.09731" lon="4.10585">
        <ele>649.03</ele>
        <time>2021-08-12T11:24:46Z</time>
      </trkpt>
      <trkpt lat="47.09724" lon="4.10595">
        <ele>648.55</ele>
        <time>2021-08-12T11:24:47Z</time>
      </trkpt>
      <trkpt lat="47.09716" lon="4.10604">
        <ele>648.55</ele>
        <time>2021-08-12T11:24:48Z</time>
      </trkpt>
      <trkpt lat="47.09711" lon="4.1061">
        <ele>648.55</ele>
        <time>2021-08-12T11:24:49Z</time>
      </trkpt>
      <trkpt lat="47.09709" lon="4.10613">
        <ele>648.55</ele>
        <time>2021-08-12T11:24:50Z</time>
      </trkpt>
      <trkpt lat="47.09707" lon="4.10615">
        <ele>648.55</ele>
        <time>2021-08-12T11:24:51Z</time>
      </trkpt>
      <trkpt lat="47.09705" lon="4.10616">
        <ele>648.55</ele>
        <time>2021-08-12T11:24:52Z</time>
      </trkpt>
      <trkpt lat="47.09704" lon="4.10617">
        <ele>648.55</ele>
        <time>2021-08-12T11:24:53Z</time>
      </trkpt>
      <trkpt lat="47.09703" lon="4.10617">
        <ele>648.55</ele>
        <time>2021-08-12T11:24:55Z</time>
      </trkpt>
      <trkpt lat="47.09707" lon="4.10613">
        <ele>648.55</ele>
        <time>2021-08-12T11:24:59Z</time>
      </trkpt>
      <trkpt lat="47.09709" lon="4.10612">
        <ele>648.55</ele>
        <time>2021-08-12T11:25:00Z</time>
      </trkpt>
      <trkpt lat="47.09714" lon="4.10605">
        <ele>649.99</ele>
        <time>2021-08-12T11:25:04Z</time>
      </trkpt>
      <trkpt lat="47.09731" lon="4.10585">
        <ele>650.47</ele>
        <time>2021-08-12T11:25:11Z</time>
      </trkpt>
      <trkpt lat="47.09755" lon="4.10562">
        <ele>652.87</ele>
        <time>2021-08-12T11:25:20Z</time>
      </trkpt>
      <trkpt lat="47.0976" lon="4.10562">
        <ele>652.87</ele>
        <time>2021-08-12T11:25:22Z</time>
      </trkpt>
      <trkpt lat="47.09763" lon="4.10568">
        <ele>654.31</ele>
        <time>2021-08-12T11:25:25Z</time>
      </trkpt>
      <trkpt lat="47.09761" lon="4.10571">
        <ele>654.31</ele>
        <time>2021-08-12T11:25:26Z</time>
      </trkpt>
      <trkpt lat="47.0976" lon="4.10573">
        <ele>654.31</ele>
        <time>2021-08-12T11:25:27Z</time>
      </trkpt>
      <trkpt lat="47.09759" lon="4.10576">
        <ele>654.31</ele>
        <time>2021-08-12T11:25:28Z</time>
      </trkpt>
      <trkpt lat="47.09757" lon="4.10579">
        <ele>654.31</ele>
        <time>2021-08-12T11:25:29Z</time>
      </trkpt>
      <trkpt lat="47.09755" lon="4.10583">
        <ele>653.83</ele>
        <time>2021-08-12T11:25:30Z</time>
      </trkpt>
      <trkpt lat="47.09752" lon="4.10587">
        <ele>653.83</ele>
        <time>2021-08-12T11:25:31Z</time>
      </trkpt>
      <trkpt lat="47.09741" lon="4.10613">
        <ele>652.87</ele>
        <time>2021-08-12T11:25:37Z</time>
      </trkpt>
      <trkpt lat="47.09737" lon="4.10624">
        <ele>652.87</ele>
        <time>2021-08-12T11:25:39Z</time>
      </trkpt>
      <trkpt lat="47.09734" lon="4.1063">
        <ele>652.87</ele>
        <time>2021-08-12T11:25:40Z</time>
      </trkpt>
      <trkpt lat="47.09732" lon="4.10635">
        <ele>652.87</ele>
        <time>2021-08-12T11:25:41Z</time>
      </trkpt>
      <trkpt lat="47.09715" lon="4.10679">
        <ele>651.91</ele>
        <time>2021-08-12T11:25:48Z</time>
      </trkpt>
      <trkpt lat="47.09707" lon="4.10707">
        <ele>651.91</ele>
        <time>2021-08-12T11:25:53Z</time>
      </trkpt>
      <trkpt lat="47.09693" lon="4.10743">
        <ele>651.91</ele>
        <time>2021-08-12T11:26:00Z</time>
      </trkpt>
      <trkpt lat="47.09682" lon="4.10763">
        <ele>651.91</ele>
        <time>2021-08-12T11:26:05Z</time>
      </trkpt>
      <trkpt lat="47.0966" lon="4.10798">
        <ele>651.91</ele>
        <time>2021-08-12T11:26:13Z</time>
      </trkpt>
      <trkpt lat="47.09644" lon="4.1083">
        <ele>651.91</ele>
        <time>2021-08-12T11:26:20Z</time>
      </trkpt>
      <trkpt lat="47.09631" lon="4.10866">
        <ele>650.95</ele>
        <time>2021-08-12T11:26:27Z</time>
      </trkpt>
      <trkpt lat="47.09629" lon="4.10874">
        <ele>650.95</ele>
        <time>2021-08-12T11:26:28Z</time>
      </trkpt>
      <trkpt lat="47.09627" lon="4.1088">
        <ele>649.99</ele>
        <time>2021-08-12T11:26:29Z</time>
      </trkpt>
      <trkpt lat="47.09619" lon="4.10909">
        <ele>648.07</ele>
        <time>2021-08-12T11:26:34Z</time>
      </trkpt>
      <trkpt lat="47.09612" lon="4.10926">
        <ele>645.18</ele>
        <time>2021-08-12T11:26:37Z</time>
      </trkpt>
      <trkpt lat="47.09612" lon="4.1093">
        <ele>644.22</ele>
        <time>2021-08-12T11:26:38Z</time>
      </trkpt>
      <trkpt lat="47.09606" lon="4.10957">
        <ele>640.86</ele>
        <time>2021-08-12T11:26:44Z</time>
      </trkpt>
      <trkpt lat="47.09597" lon="4.10995">
        <ele>639.41</ele>
        <time>2021-08-12T11:26:50Z</time>
      </trkpt>
      <trkpt lat="47.09592" lon="4.11032">
        <ele>637.49</ele>
        <time>2021-08-12T11:26:56Z</time>
      </trkpt>
      <trkpt lat="47.09585" lon="4.11069">
        <ele>635.09</ele>
        <time>2021-08-12T11:27:03Z</time>
      </trkpt>
      <trkpt lat="47.09579" lon="4.11092">
        <ele>633.17</ele>
        <time>2021-08-12T11:27:08Z</time>
      </trkpt>
      <trkpt lat="47.09575" lon="4.11099">
        <ele>632.68</ele>
        <time>2021-08-12T11:27:10Z</time>
      </trkpt>
      <trkpt lat="47.09559" lon="4.11122">
        <ele>630.76</ele>
        <time>2021-08-12T11:27:15Z</time>
      </trkpt>
      <trkpt lat="47.09556" lon="4.1113">
        <ele>630.28</ele>
        <time>2021-08-12T11:27:16Z</time>
      </trkpt>
      <trkpt lat="47.09553" lon="4.11137">
        <ele>629.8</ele>
        <time>2021-08-12T11:27:17Z</time>
      </trkpt>
      <trkpt lat="47.09549" lon="4.11143">
        <ele>629.32</ele>
        <time>2021-08-12T11:27:18Z</time>
      </trkpt>
      <trkpt lat="47.09546" lon="4.11147">
        <ele>629.32</ele>
        <time>2021-08-12T11:27:19Z</time>
      </trkpt>
      <trkpt lat="47.09539" lon="4.11159">
        <ele>628.36</ele>
        <time>2021-08-12T11:27:22Z</time>
      </trkpt>
      <trkpt lat="47.09523" lon="4.11175">
        <ele>626.92</ele>
        <time>2021-08-12T11:27:26Z</time>
      </trkpt>
      <trkpt lat="47.09518" lon="4.11181">
        <ele>626.44</ele>
        <time>2021-08-12T11:27:27Z</time>
      </trkpt>
      <trkpt lat="47.09513" lon="4.11187">
        <ele>625.96</ele>
        <time>2021-08-12T11:27:28Z</time>
      </trkpt>
      <trkpt lat="47.0951" lon="4.11202">
        <ele>625.96</ele>
        <time>2021-08-12T11:27:29Z</time>
      </trkpt>
      <trkpt lat="47.09506" lon="4.11211">
        <ele>624.51</ele>
        <time>2021-08-12T11:27:30Z</time>
      </trkpt>
      <trkpt lat="47.09502" lon="4.11219">
        <ele>624.51</ele>
        <time>2021-08-12T11:27:31Z</time>
      </trkpt>
      <trkpt lat="47.09494" lon="4.1123">
        <ele>624.51</ele>
        <time>2021-08-12T11:27:33Z</time>
      </trkpt>
      <trkpt lat="47.09482" lon="4.11244">
        <ele>623.55</ele>
        <time>2021-08-12T11:27:36Z</time>
      </trkpt>
      <trkpt lat="47.09459" lon="4.11263">
        <ele>622.11</ele>
        <time>2021-08-12T11:27:41Z</time>
      </trkpt>
      <trkpt lat="47.09426" lon="4.11289">
        <ele>621.15</ele>
        <time>2021-08-12T11:27:48Z</time>
      </trkpt>
      <trkpt lat="47.09418" lon="4.11294">
        <ele>621.15</ele>
        <time>2021-08-12T11:27:50Z</time>
      </trkpt>
      <trkpt lat="47.09413" lon="4.11296">
        <ele>621.15</ele>
        <time>2021-08-12T11:27:51Z</time>
      </trkpt>
      <trkpt lat="47.09409" lon="4.11298">
        <ele>621.15</ele>
        <time>2021-08-12T11:27:52Z</time>
      </trkpt>
      <trkpt lat="47.09406" lon="4.113">
        <ele>620.67</ele>
        <time>2021-08-12T11:27:53Z</time>
      </trkpt>
      <trkpt lat="47.09402" lon="4.11303">
        <ele>620.67</ele>
        <time>2021-08-12T11:27:54Z</time>
      </trkpt>
      <trkpt lat="47.09389" lon="4.11313">
        <ele>621.15</ele>
        <time>2021-08-12T11:28:00Z</time>
      </trkpt>
      <trkpt lat="47.09385" lon="4.11315">
        <ele>621.15</ele>
        <time>2021-08-12T11:28:07Z</time>
      </trkpt>
      <trkpt lat="47.09381" lon="4.11319">
        <ele>621.15</ele>
        <time>2021-08-12T11:28:16Z</time>
      </trkpt>
      <trkpt lat="47.09377" lon="4.11323">
        <ele>621.15</ele>
        <time>2021-08-12T11:28:24Z</time>
      </trkpt>
      <trkpt lat="47.09374" lon="4.11326">
        <ele>621.15</ele>
        <time>2021-08-12T11:28:27Z</time>
      </trkpt>
      <trkpt lat="47.09372" lon="4.11328">
        <ele>621.15</ele>
        <time>2021-08-12T11:28:28Z</time>
      </trkpt>
      <trkpt lat="47.09349" lon="4.11347">
        <ele>619.23</ele>
        <time>2021-08-12T11:28:34Z</time>
      </trkpt>
      <trkpt lat="47.09345" lon="4.11351">
        <ele>619.23</ele>
        <time>2021-08-12T11:28:35Z</time>
      </trkpt>
      <trkpt lat="47.09341" lon="4.11355">
        <ele>619.23</ele>
        <time>2021-08-12T11:28:36Z</time>
      </trkpt>
      <trkpt lat="47.09332" lon="4.11362">
        <ele>619.23</ele>
        <time>2021-08-12T11:28:38Z</time>
      </trkpt>
      <trkpt lat="47.09328" lon="4.11365">
        <ele>618.75</ele>
        <time>2021-08-12T11:28:39Z</time>
      </trkpt>
      <trkpt lat="47.09324" lon="4.11368">
        <ele>618.75</ele>
        <time>2021-08-12T11:28:40Z</time>
      </trkpt>
      <trkpt lat="47.09307" lon="4.11381">
        <ele>618.75</ele>
        <time>2021-08-12T11:28:44Z</time>
      </trkpt>
      <trkpt lat="47.09297" lon="4.11389">
        <ele>618.75</ele>
        <time>2021-08-12T11:28:46Z</time>
      </trkpt>
      <trkpt lat="47.09292" lon="4.11392">
        <ele>618.26</ele>
        <time>2021-08-12T11:28:47Z</time>
      </trkpt>
      <trkpt lat="47.09287" lon="4.11396">
        <ele>618.26</ele>
        <time>2021-08-12T11:28:48Z</time>
      </trkpt>
      <trkpt lat="47.09258" lon="4.11417">
        <ele>618.26</ele>
        <time>2021-08-12T11:28:55Z</time>
      </trkpt>
      <trkpt lat="47.09255" lon="4.1142">
        <ele>618.26</ele>
        <time>2021-08-12T11:28:56Z</time>
      </trkpt>
      <trkpt lat="47.09251" lon="4.11423">
        <ele>617.78</ele>
        <time>2021-08-12T11:28:57Z</time>
      </trkpt>
      <trkpt lat="47.09229" lon="4.11441">
        <ele>617.3</ele>
        <time>2021-08-12T11:29:03Z</time>
      </trkpt>
      <trkpt lat="47.09218" lon="4.11452">
        <ele>616.82</ele>
        <time>2021-08-12T11:29:06Z</time>
      </trkpt>
      <trkpt lat="47.09215" lon="4.11457">
        <ele>616.34</ele>
        <time>2021-08-12T11:29:07Z</time>
      </trkpt>
      <trkpt lat="47.09199" lon="4.11475">
        <ele>615.38</ele>
        <time>2021-08-12T11:29:11Z</time>
      </trkpt>
      <trkpt lat="47.09195" lon="4.11481">
        <ele>614.9</ele>
        <time>2021-08-12T11:29:12Z</time>
      </trkpt>
      <trkpt lat="47.09175" lon="4.11514">
        <ele>611.54</ele>
        <time>2021-08-12T11:29:18Z</time>
      </trkpt>
      <trkpt lat="47.0917" lon="4.1152">
        <ele>611.54</ele>
        <time>2021-08-12T11:29:19Z</time>
      </trkpt>
      <trkpt lat="47.09158" lon="4.11543">
        <ele>609.13</ele>
        <time>2021-08-12T11:29:22Z</time>
      </trkpt>
      <trkpt lat="47.09146" lon="4.11564">
        <ele>607.21</ele>
        <time>2021-08-12T11:29:25Z</time>
      </trkpt>
      <trkpt lat="47.0914" lon="4.11578">
        <ele>606.25</ele>
        <time>2021-08-12T11:29:27Z</time>
      </trkpt>
      <trkpt lat="47.09129" lon="4.11604">
        <ele>604.33</ele>
        <time>2021-08-12T11:29:32Z</time>
      </trkpt>
      <trkpt lat="47.09127" lon="4.1161">
        <ele>603.85</ele>
        <time>2021-08-12T11:29:33Z</time>
      </trkpt>
      <trkpt lat="47.09118" lon="4.11631">
        <ele>602.4</ele>
        <time>2021-08-12T11:29:36Z</time>
      </trkpt>
      <trkpt lat="47.09105" lon="4.11661">
        <ele>599.04</ele>
        <time>2021-08-12T11:29:39Z</time>
      </trkpt>
      <trkpt lat="47.09088" lon="4.117">
        <ele>594.71</ele>
        <time>2021-08-12T11:29:42Z</time>
      </trkpt>
      <trkpt lat="47.09076" lon="4.11728">
        <ele>591.35</ele>
        <time>2021-08-12T11:29:44Z</time>
      </trkpt>
      <trkpt lat="47.09056" lon="4.11778">
        <ele>587.5</ele>
        <time>2021-08-12T11:29:48Z</time>
      </trkpt>
      <trkpt lat="47.09037" lon="4.11824">
        <ele>583.66</ele>
        <time>2021-08-12T11:29:52Z</time>
      </trkpt>
      <trkpt lat="47.09028" lon="4.11856">
        <ele>581.25</ele>
        <time>2021-08-12T11:29:55Z</time>
      </trkpt>
      <trkpt lat="47.09027" lon="4.11866">
        <ele>580.77</ele>
        <time>2021-08-12T11:29:56Z</time>
      </trkpt>
      <trkpt lat="47.09027" lon="4.11879">
        <ele>579.81</ele>
        <time>2021-08-12T11:29:57Z</time>
      </trkpt>
      <trkpt lat="47.09028" lon="4.11887">
        <ele>579.33</ele>
        <time>2021-08-12T11:29:58Z</time>
      </trkpt>
      <trkpt lat="47.09031" lon="4.11898">
        <ele>578.37</ele>
        <time>2021-08-12T11:29:59Z</time>
      </trkpt>
      <trkpt lat="47.09035" lon="4.1191">
        <ele>576.45</ele>
        <time>2021-08-12T11:30:00Z</time>
      </trkpt>
      <trkpt lat="47.09039" lon="4.11921">
        <ele>575.97</ele>
        <time>2021-08-12T11:30:01Z</time>
      </trkpt>
      <trkpt lat="47.09069" lon="4.11997">
        <ele>572.12</ele>
        <time>2021-08-12T11:30:07Z</time>
      </trkpt>
      <trkpt lat="47.09083" lon="4.1204">
        <ele>571.64</ele>
        <time>2021-08-12T11:30:11Z</time>
      </trkpt>
      <trkpt lat="47.09085" lon="4.12049">
        <ele>571.64</ele>
        <time>2021-08-12T11:30:12Z</time>
      </trkpt>
      <trkpt lat="47.09085" lon="4.12058">
        <ele>571.16</ele>
        <time>2021-08-12T11:30:13Z</time>
      </trkpt>
      <trkpt lat="47.09084" lon="4.12066">
        <ele>571.16</ele>
        <time>2021-08-12T11:30:14Z</time>
      </trkpt>
      <trkpt lat="47.09081" lon="4.12075">
        <ele>570.68</ele>
        <time>2021-08-12T11:30:15Z</time>
      </trkpt>
      <trkpt lat="47.09078" lon="4.12084">
        <ele>569.24</ele>
        <time>2021-08-12T11:30:16Z</time>
      </trkpt>
      <trkpt lat="47.0907" lon="4.12104">
        <ele>568.76</ele>
        <time>2021-08-12T11:30:18Z</time>
      </trkpt>
      <trkpt lat="47.09061" lon="4.12119">
        <ele>568.28</ele>
        <time>2021-08-12T11:30:20Z</time>
      </trkpt>
      <trkpt lat="47.09057" lon="4.12122">
        <ele>568.28</ele>
        <time>2021-08-12T11:30:21Z</time>
      </trkpt>
      <trkpt lat="47.09053" lon="4.12121">
        <ele>568.28</ele>
        <time>2021-08-12T11:30:22Z</time>
      </trkpt>
      <trkpt lat="47.09051" lon="4.12117">
        <ele>568.28</ele>
        <time>2021-08-12T11:30:23Z</time>
      </trkpt>
      <trkpt lat="47.0905" lon="4.12109">
        <ele>568.28</ele>
        <time>2021-08-12T11:30:24Z</time>
      </trkpt>
      <trkpt lat="47.09048" lon="4.12104">
        <ele>568.28</ele>
        <time>2021-08-12T11:30:25Z</time>
      </trkpt>
      <trkpt lat="47.09047" lon="4.12097">
        <ele>568.28</ele>
        <time>2021-08-12T11:30:26Z</time>
      </trkpt>
      <trkpt lat="47.09034" lon="4.12046">
        <ele>566.83</ele>
        <time>2021-08-12T11:30:32Z</time>
      </trkpt>
      <trkpt lat="47.09007" lon="4.11974">
        <ele>566.83</ele>
        <time>2021-08-12T11:30:41Z</time>
      </trkpt>
      <trkpt lat="47.08997" lon="4.11956">
        <ele>568.28</ele>
        <time>2021-08-12T11:30:44Z</time>
      </trkpt>
      <trkpt lat="47.0897" lon="4.11914">
        <ele>569.72</ele>
        <time>2021-08-12T11:30:52Z</time>
      </trkpt>
      <trkpt lat="47.08941" lon="4.11874">
        <ele>570.68</ele>
        <time>2021-08-12T11:31:01Z</time>
      </trkpt>
      <trkpt lat="47.08912" lon="4.11834">
        <ele>572.12</ele>
        <time>2021-08-12T11:31:11Z</time>
      </trkpt>
      <trkpt lat="47.0889" lon="4.11814">
        <ele>573.08</ele>
        <time>2021-08-12T11:31:18Z</time>
      </trkpt>
      <trkpt lat="47.08861" lon="4.11792">
        <ele>574.53</ele>
        <time>2021-08-12T11:31:27Z</time>
      </trkpt>
      <trkpt lat="47.08835" lon="4.11765">
        <ele>575.01</ele>
        <time>2021-08-12T11:31:35Z</time>
      </trkpt>
      <trkpt lat="47.08818" lon="4.11736">
        <ele>575.01</ele>
        <time>2021-08-12T11:31:41Z</time>
      </trkpt>
      <trkpt lat="47.08812" lon="4.11726">
        <ele>575.01</ele>
        <time>2021-08-12T11:31:43Z</time>
      </trkpt>
      <trkpt lat="47.08809" lon="4.11721">
        <ele>575.01</ele>
        <time>2021-08-12T11:31:44Z</time>
      </trkpt>
      <trkpt lat="47.08785" lon="4.11677">
        <ele>573.56</ele>
        <time>2021-08-12T11:31:52Z</time>
      </trkpt>
      <trkpt lat="47.08781" lon="4.11673">
        <ele>573.56</ele>
        <time>2021-08-12T11:31:53Z</time>
      </trkpt>
      <trkpt lat="47.08769" lon="4.11662">
        <ele>573.56</ele>
        <time>2021-08-12T11:31:56Z</time>
      </trkpt>
      <trkpt lat="47.0873" lon="4.11613">
        <ele>573.56</ele>
        <time>2021-08-12T11:32:07Z</time>
      </trkpt>
      <trkpt lat="47.08723" lon="4.11607">
        <ele>575.01</ele>
        <time>2021-08-12T11:32:09Z</time>
      </trkpt>
      <trkpt lat="47.08716" lon="4.116">
        <ele>575.01</ele>
        <time>2021-08-12T11:32:11Z</time>
      </trkpt>
      <trkpt lat="47.08695" lon="4.11581">
        <ele>575.97</ele>
        <time>2021-08-12T11:32:18Z</time>
      </trkpt>
      <trkpt lat="47.08677" lon="4.11567">
        <ele>577.89</ele>
        <time>2021-08-12T11:32:25Z</time>
      </trkpt>
      <trkpt lat="47.08661" lon="4.1156">
        <ele>578.37</ele>
        <time>2021-08-12T11:32:32Z</time>
      </trkpt>
      <trkpt lat="47.08649" lon="4.11554">
        <ele>579.33</ele>
        <time>2021-08-12T11:32:40Z</time>
      </trkpt>
      <trkpt lat="47.08641" lon="4.11552">
        <ele>580.29</ele>
        <time>2021-08-12T11:32:47Z</time>
      </trkpt>
      <trkpt lat="47.08632" lon="4.11547">
        <ele>581.25</ele>
        <time>2021-08-12T11:32:55Z</time>
      </trkpt>
      <trkpt lat="47.08624" lon="4.11543">
        <ele>582.7</ele>
        <time>2021-08-12T11:33:01Z</time>
      </trkpt>
      <trkpt lat="47.08623" lon="4.11542">
        <ele>582.7</ele>
        <time>2021-08-12T11:33:02Z</time>
      </trkpt>
      <trkpt lat="47.08622" lon="4.11542">
        <ele>582.7</ele>
        <time>2021-08-12T11:33:03Z</time>
      </trkpt>
      <trkpt lat="47.08621" lon="4.11541">
        <ele>583.18</ele>
        <time>2021-08-12T11:33:04Z</time>
      </trkpt>
      <trkpt lat="47.08619" lon="4.11541">
        <ele>583.18</ele>
        <time>2021-08-12T11:33:05Z</time>
      </trkpt>
      <trkpt lat="47.08618" lon="4.1154">
        <ele>583.18</ele>
        <time>2021-08-12T11:33:06Z</time>
      </trkpt>
      <trkpt lat="47.08617" lon="4.11539">
        <ele>583.18</ele>
        <time>2021-08-12T11:33:07Z</time>
      </trkpt>
      <trkpt lat="47.08616" lon="4.11538">
        <ele>583.18</ele>
        <time>2021-08-12T11:33:08Z</time>
      </trkpt>
      <trkpt lat="47.08615" lon="4.11537">
        <ele>583.66</ele>
        <time>2021-08-12T11:33:09Z</time>
      </trkpt>
      <trkpt lat="47.08613" lon="4.11537">
        <ele>583.66</ele>
        <time>2021-08-12T11:33:10Z</time>
      </trkpt>
      <trkpt lat="47.08612" lon="4.11536">
        <ele>583.66</ele>
        <time>2021-08-12T11:33:11Z</time>
      </trkpt>
      <trkpt lat="47.086" lon="4.11531">
        <ele>585.1</ele>
        <time>2021-08-12T11:33:21Z</time>
      </trkpt>
      <trkpt lat="47.08598" lon="4.1153">
        <ele>585.58</ele>
        <time>2021-08-12T11:33:23Z</time>
      </trkpt>
      <trkpt lat="47.08596" lon="4.11529">
        <ele>585.58</ele>
        <time>2021-08-12T11:33:24Z</time>
      </trkpt>
      <trkpt lat="47.08595" lon="4.11529">
        <ele>585.58</ele>
        <time>2021-08-12T11:33:25Z</time>
      </trkpt>
      <trkpt lat="47.08593" lon="4.11529">
        <ele>585.58</ele>
        <time>2021-08-12T11:33:26Z</time>
      </trkpt>
      <trkpt lat="47.08592" lon="4.11528">
        <ele>586.06</ele>
        <time>2021-08-12T11:33:27Z</time>
      </trkpt>
      <trkpt lat="47.08591" lon="4.11528">
        <ele>586.06</ele>
        <time>2021-08-12T11:33:28Z</time>
      </trkpt>
      <trkpt lat="47.08584" lon="4.11526">
        <ele>586.54</ele>
        <time>2021-08-12T11:33:33Z</time>
      </trkpt>
      <trkpt lat="47.08581" lon="4.11526">
        <ele>587.02</ele>
        <time>2021-08-12T11:33:35Z</time>
      </trkpt>
      <trkpt lat="47.0858" lon="4.11525">
        <ele>587.02</ele>
        <time>2021-08-12T11:33:36Z</time>
      </trkpt>
      <trkpt lat="47.08579" lon="4.11524">
        <ele>587.5</ele>
        <time>2021-08-12T11:33:37Z</time>
      </trkpt>
      <trkpt lat="47.08577" lon="4.11523">
        <ele>587.5</ele>
        <time>2021-08-12T11:33:38Z</time>
      </trkpt>
      <trkpt lat="47.08576" lon="4.11523">
        <ele>587.5</ele>
        <time>2021-08-12T11:33:39Z</time>
      </trkpt>
      <trkpt lat="47.08574" lon="4.11523">
        <ele>587.5</ele>
        <time>2021-08-12T11:33:40Z</time>
      </trkpt>
      <trkpt lat="47.08559" lon="4.11523">
        <ele>589.43</ele>
        <time>2021-08-12T11:33:50Z</time>
      </trkpt>
      <trkpt lat="47.08546" lon="4.11521">
        <ele>590.87</ele>
        <time>2021-08-12T11:33:59Z</time>
      </trkpt>
      <trkpt lat="47.08535" lon="4.11519">
        <ele>591.83</ele>
        <time>2021-08-12T11:34:07Z</time>
      </trkpt>
      <trkpt lat="47.08519" lon="4.1151">
        <ele>593.27</ele>
        <time>2021-08-12T11:34:14Z</time>
      </trkpt>
      <trkpt lat="47.08496" lon="4.11497">
        <ele>593.27</ele>
        <time>2021-08-12T11:34:20Z</time>
      </trkpt>
      <trkpt lat="47.08488" lon="4.11491">
        <ele>591.83</ele>
        <time>2021-08-12T11:34:22Z</time>
      </trkpt>
      <trkpt lat="47.08463" lon="4.11472">
        <ele>591.83</ele>
        <time>2021-08-12T11:34:29Z</time>
      </trkpt>
      <trkpt lat="47.08437" lon="4.11456">
        <ele>591.83</ele>
        <time>2021-08-12T11:34:37Z</time>
      </trkpt>
      <trkpt lat="47.0841" lon="4.11444">
        <ele>591.83</ele>
        <time>2021-08-12T11:34:46Z</time>
      </trkpt>
      <trkpt lat="47.08385" lon="4.1143">
        <ele>591.83</ele>
        <time>2021-08-12T11:34:55Z</time>
      </trkpt>
      <trkpt lat="47.08353" lon="4.11414">
        <ele>592.79</ele>
        <time>2021-08-12T11:35:04Z</time>
      </trkpt>
      <trkpt lat="47.0835" lon="4.11413">
        <ele>592.79</ele>
        <time>2021-08-12T11:35:05Z</time>
      </trkpt>
      <trkpt lat="47.08318" lon="4.114">
        <ele>593.27</ele>
        <time>2021-08-12T11:35:15Z</time>
      </trkpt>
      <trkpt lat="47.08299" lon="4.11393">
        <ele>593.27</ele>
        <time>2021-08-12T11:35:20Z</time>
      </trkpt>
      <trkpt lat="47.08289" lon="4.1139">
        <ele>591.83</ele>
        <time>2021-08-12T11:35:22Z</time>
      </trkpt>
      <trkpt lat="47.08284" lon="4.11387">
        <ele>591.83</ele>
        <time>2021-08-12T11:35:23Z</time>
      </trkpt>
      <trkpt lat="47.08277" lon="4.11384">
        <ele>591.35</ele>
        <time>2021-08-12T11:35:24Z</time>
      </trkpt>
      <trkpt lat="47.08256" lon="4.11376">
        <ele>590.39</ele>
        <time>2021-08-12T11:35:27Z</time>
      </trkpt>
      <trkpt lat="47.08214" lon="4.11349">
        <ele>587.98</ele>
        <time>2021-08-12T11:35:33Z</time>
      </trkpt>
      <trkpt lat="47.08167" lon="4.11298">
        <ele>586.54</ele>
        <time>2021-08-12T11:35:41Z</time>
      </trkpt>
      <trkpt lat="47.08123" lon="4.11262">
        <ele>585.58</ele>
        <time>2021-08-12T11:35:48Z</time>
      </trkpt>
      <trkpt lat="47.08106" lon="4.11252">
        <ele>585.58</ele>
        <time>2021-08-12T11:35:51Z</time>
      </trkpt>
      <trkpt lat="47.08101" lon="4.11249">
        <ele>585.58</ele>
        <time>2021-08-12T11:35:52Z</time>
      </trkpt>
      <trkpt lat="47.08064" lon="4.11232">
        <ele>586.06</ele>
        <time>2021-08-12T11:35:59Z</time>
      </trkpt>
      <trkpt lat="47.08059" lon="4.11229">
        <ele>586.06</ele>
        <time>2021-08-12T11:36:00Z</time>
      </trkpt>
      <trkpt lat="47.08055" lon="4.11227">
        <ele>586.06</ele>
        <time>2021-08-12T11:36:01Z</time>
      </trkpt>
      <trkpt lat="47.0805" lon="4.11224">
        <ele>586.54</ele>
        <time>2021-08-12T11:36:02Z</time>
      </trkpt>
      <trkpt lat="47.08046" lon="4.11222">
        <ele>586.54</ele>
        <time>2021-08-12T11:36:03Z</time>
      </trkpt>
      <trkpt lat="47.08042" lon="4.1122">
        <ele>586.54</ele>
        <time>2021-08-12T11:36:04Z</time>
      </trkpt>
      <trkpt lat="47.08008" lon="4.11207">
        <ele>587.98</ele>
        <time>2021-08-12T11:36:13Z</time>
      </trkpt>
      <trkpt lat="47.07989" lon="4.11193">
        <ele>588.46</ele>
        <time>2021-08-12T11:36:19Z</time>
      </trkpt>
      <trkpt lat="47.0797" lon="4.11174">
        <ele>588.46</ele>
        <time>2021-08-12T11:36:26Z</time>
      </trkpt>
      <trkpt lat="47.07963" lon="4.11167">
        <ele>587.5</ele>
        <time>2021-08-12T11:36:28Z</time>
      </trkpt>
      <trkpt lat="47.07959" lon="4.11165">
        <ele>587.02</ele>
        <time>2021-08-12T11:36:29Z</time>
      </trkpt>
      <trkpt lat="47.07933" lon="4.11148">
        <ele>584.14</ele>
        <time>2021-08-12T11:36:34Z</time>
      </trkpt>
      <trkpt lat="47.07915" lon="4.11135">
        <ele>581.25</ele>
        <time>2021-08-12T11:36:37Z</time>
      </trkpt>
      <trkpt lat="47.07909" lon="4.1113">
        <ele>580.29</ele>
        <time>2021-08-12T11:36:38Z</time>
      </trkpt>
      <trkpt lat="47.07892" lon="4.11109">
        <ele>576.45</ele>
        <time>2021-08-12T11:36:42Z</time>
      </trkpt>
      <trkpt lat="47.07882" lon="4.11097">
        <ele>575.01</ele>
        <time>2021-08-12T11:36:45Z</time>
      </trkpt>
      <trkpt lat="47.07872" lon="4.11084">
        <ele>571.64</ele>
        <time>2021-08-12T11:36:48Z</time>
      </trkpt>
      <trkpt lat="47.07869" lon="4.1108">
        <ele>571.64</ele>
        <time>2021-08-12T11:36:49Z</time>
      </trkpt>
      <trkpt lat="47.07866" lon="4.11074">
        <ele>570.68</ele>
        <time>2021-08-12T11:36:50Z</time>
      </trkpt>
      <trkpt lat="47.07857" lon="4.11057">
        <ele>568.28</ele>
        <time>2021-08-12T11:36:53Z</time>
      </trkpt>
      <trkpt lat="47.07846" lon="4.11041">
        <ele>565.39</ele>
        <time>2021-08-12T11:36:56Z</time>
      </trkpt>
      <trkpt lat="47.07828" lon="4.11019">
        <ele>561.55</ele>
        <time>2021-08-12T11:37:00Z</time>
      </trkpt>
      <trkpt lat="47.07825" lon="4.11015">
        <ele>561.55</ele>
        <time>2021-08-12T11:37:01Z</time>
      </trkpt>
      <trkpt lat="47.07819" lon="4.11006">
        <ele>559.62</ele>
        <time>2021-08-12T11:37:03Z</time>
      </trkpt>
      <trkpt lat="47.07805" lon="4.10991">
        <ele>556.74</ele>
        <time>2021-08-12T11:37:07Z</time>
      </trkpt>
      <trkpt lat="47.07799" lon="4.1098">
        <ele>554.82</ele>
        <time>2021-08-12T11:37:09Z</time>
      </trkpt>
      <trkpt lat="47.07795" lon="4.10974">
        <ele>553.86</ele>
        <time>2021-08-12T11:37:10Z</time>
      </trkpt>
      <trkpt lat="47.0778" lon="4.10953">
        <ele>550.97</ele>
        <time>2021-08-12T11:37:13Z</time>
      </trkpt>
      <trkpt lat="47.07774" lon="4.10943">
        <ele>550.01</ele>
        <time>2021-08-12T11:37:15Z</time>
      </trkpt>
      <trkpt lat="47.07759" lon="4.10918">
        <ele>548.09</ele>
        <time>2021-08-12T11:37:20Z</time>
      </trkpt>
      <trkpt lat="47.0774" lon="4.10891">
        <ele>544.72</ele>
        <time>2021-08-12T11:37:25Z</time>
      </trkpt>
      <trkpt lat="47.07736" lon="4.10886">
        <ele>544.72</ele>
        <time>2021-08-12T11:37:26Z</time>
      </trkpt>
      <trkpt lat="47.07722" lon="4.10868">
        <ele>543.28</ele>
        <time>2021-08-12T11:37:29Z</time>
      </trkpt>
      <trkpt lat="47.07702" lon="4.10839">
        <ele>540.4</ele>
        <time>2021-08-12T11:37:33Z</time>
      </trkpt>
      <trkpt lat="47.0768" lon="4.10808">
        <ele>537.99</ele>
        <time>2021-08-12T11:37:37Z</time>
      </trkpt>
      <trkpt lat="47.0765" lon="4.10766">
        <ele>534.15</ele>
        <time>2021-08-12T11:37:42Z</time>
      </trkpt>
      <trkpt lat="47.07614" lon="4.10722">
        <ele>531.27</ele>
        <time>2021-08-12T11:37:48Z</time>
      </trkpt>
      <trkpt lat="47.07601" lon="4.10702">
        <ele>528.86</ele>
        <time>2021-08-12T11:37:51Z</time>
      </trkpt>
      <trkpt lat="47.07599" lon="4.10696">
        <ele>528.86</ele>
        <time>2021-08-12T11:37:52Z</time>
      </trkpt>
      <trkpt lat="47.07597" lon="4.10689">
        <ele>528.38</ele>
        <time>2021-08-12T11:37:53Z</time>
      </trkpt>
      <trkpt lat="47.07595" lon="4.10683">
        <ele>527.42</ele>
        <time>2021-08-12T11:37:54Z</time>
      </trkpt>
      <trkpt lat="47.07591" lon="4.10678">
        <ele>526.94</ele>
        <time>2021-08-12T11:37:55Z</time>
      </trkpt>
      <trkpt lat="47.07587" lon="4.10673">
        <ele>526.46</ele>
        <time>2021-08-12T11:37:56Z</time>
      </trkpt>
      <trkpt lat="47.07562" lon="4.10645">
        <ele>523.58</ele>
        <time>2021-08-12T11:38:02Z</time>
      </trkpt>
      <trkpt lat="47.07558" lon="4.10639">
        <ele>522.61</ele>
        <time>2021-08-12T11:38:03Z</time>
      </trkpt>
      <trkpt lat="47.07547" lon="4.10618">
        <ele>521.17</ele>
        <time>2021-08-12T11:38:06Z</time>
      </trkpt>
      <trkpt lat="47.07543" lon="4.10611">
        <ele>520.21</ele>
        <time>2021-08-12T11:38:07Z</time>
      </trkpt>
      <trkpt lat="47.07537" lon="4.10604">
        <ele>519.25</ele>
        <time>2021-08-12T11:38:08Z</time>
      </trkpt>
      <trkpt lat="47.07532" lon="4.10598">
        <ele>518.29</ele>
        <time>2021-08-12T11:38:09Z</time>
      </trkpt>
      <trkpt lat="47.07527" lon="4.10594">
        <ele>518.29</ele>
        <time>2021-08-12T11:38:10Z</time>
      </trkpt>
      <trkpt lat="47.07521" lon="4.10589">
        <ele>517.33</ele>
        <time>2021-08-12T11:38:11Z</time>
      </trkpt>
      <trkpt lat="47.07517" lon="4.10586">
        <ele>516.37</ele>
        <time>2021-08-12T11:38:12Z</time>
      </trkpt>
      <trkpt lat="47.07513" lon="4.10585">
        <ele>515.88</ele>
        <time>2021-08-12T11:38:13Z</time>
      </trkpt>
      <trkpt lat="47.07508" lon="4.10584">
        <ele>515.88</ele>
        <time>2021-08-12T11:38:14Z</time>
      </trkpt>
      <trkpt lat="47.07504" lon="4.10586">
        <ele>515.4</ele>
        <time>2021-08-12T11:38:15Z</time>
      </trkpt>
      <trkpt lat="47.07502" lon="4.10588">
        <ele>515.4</ele>
        <time>2021-08-12T11:38:16Z</time>
      </trkpt>
      <trkpt lat="47.075" lon="4.1059">
        <ele>515.88</ele>
        <time>2021-08-12T11:38:17Z</time>
      </trkpt>
      <trkpt lat="47.07499" lon="4.10592">
        <ele>515.4</ele>
        <time>2021-08-12T11:38:18Z</time>
      </trkpt>
      <trkpt lat="47.07492" lon="4.10601">
        <ele>517.81</ele>
        <time>2021-08-12T11:38:24Z</time>
      </trkpt>
      <trkpt lat="47.07491" lon="4.10602">
        <ele>517.81</ele>
        <time>2021-08-12T11:38:25Z</time>
      </trkpt>
      <trkpt lat="47.0749" lon="4.10604">
        <ele>517.81</ele>
        <time>2021-08-12T11:38:26Z</time>
      </trkpt>
      <trkpt lat="47.07485" lon="4.10613">
        <ele>519.25</ele>
        <time>2021-08-12T11:38:33Z</time>
      </trkpt>
      <trkpt lat="47.07479" lon="4.10619">
        <ele>520.21</ele>
        <time>2021-08-12T11:38:41Z</time>
      </trkpt>
      <trkpt lat="47.07476" lon="4.10623">
        <ele>520.69</ele>
        <time>2021-08-12T11:38:44Z</time>
      </trkpt>
      <trkpt lat="47.07476" lon="4.10625">
        <ele>520.69</ele>
        <time>2021-08-12T11:38:45Z</time>
      </trkpt>
      <trkpt lat="47.0747" lon="4.10635">
        <ele>522.13</ele>
        <time>2021-08-12T11:38:52Z</time>
      </trkpt>
      <trkpt lat="47.07467" lon="4.1064">
        <ele>523.09</ele>
        <time>2021-08-12T11:38:55Z</time>
      </trkpt>
      <trkpt lat="47.07463" lon="4.10648">
        <ele>524.06</ele>
        <time>2021-08-12T11:39:01Z</time>
      </trkpt>
      <trkpt lat="47.07462" lon="4.10649">
        <ele>524.06</ele>
        <time>2021-08-12T11:39:02Z</time>
      </trkpt>
      <trkpt lat="47.07458" lon="4.1066">
        <ele>525.5</ele>
        <time>2021-08-12T11:39:08Z</time>
      </trkpt>
      <trkpt lat="47.07456" lon="4.10669">
        <ele>525.98</ele>
        <time>2021-08-12T11:39:13Z</time>
      </trkpt>
      <trkpt lat="47.07456" lon="4.10672">
        <ele>525.98</ele>
        <time>2021-08-12T11:39:14Z</time>
      </trkpt>
      <trkpt lat="47.07455" lon="4.10674">
        <ele>526.46</ele>
        <time>2021-08-12T11:39:15Z</time>
      </trkpt>
      <trkpt lat="47.07455" lon="4.10677">
        <ele>526.46</ele>
        <time>2021-08-12T11:39:16Z</time>
      </trkpt>
      <trkpt lat="47.07455" lon="4.10679">
        <ele>526.46</ele>
        <time>2021-08-12T11:39:17Z</time>
      </trkpt>
      <trkpt lat="47.07454" lon="4.10681">
        <ele>526.46</ele>
        <time>2021-08-12T11:39:18Z</time>
      </trkpt>
      <trkpt lat="47.07454" lon="4.10683">
        <ele>526.46</ele>
        <time>2021-08-12T11:39:19Z</time>
      </trkpt>
      <trkpt lat="47.07453" lon="4.10685">
        <ele>526.46</ele>
        <time>2021-08-12T11:39:20Z</time>
      </trkpt>
      <trkpt lat="47.07452" lon="4.10687">
        <ele>526.94</ele>
        <time>2021-08-12T11:39:21Z</time>
      </trkpt>
      <trkpt lat="47.07451" lon="4.10689">
        <ele>526.94</ele>
        <time>2021-08-12T11:39:22Z</time>
      </trkpt>
      <trkpt lat="47.07451" lon="4.1069">
        <ele>527.42</ele>
        <time>2021-08-12T11:39:23Z</time>
      </trkpt>
      <trkpt lat="47.0745" lon="4.10692">
        <ele>527.42</ele>
        <time>2021-08-12T11:39:24Z</time>
      </trkpt>
      <trkpt lat="47.07448" lon="4.10699">
        <ele>527.9</ele>
        <time>2021-08-12T11:39:28Z</time>
      </trkpt>
      <trkpt lat="47.07448" lon="4.10703">
        <ele>528.38</ele>
        <time>2021-08-12T11:39:30Z</time>
      </trkpt>
      <trkpt lat="47.07447" lon="4.10704">
        <ele>528.38</ele>
        <time>2021-08-12T11:39:31Z</time>
      </trkpt>
      <trkpt lat="47.07445" lon="4.10706">
        <ele>528.86</ele>
        <time>2021-08-12T11:39:32Z</time>
      </trkpt>
      <trkpt lat="47.07445" lon="4.10707">
        <ele>528.86</ele>
        <time>2021-08-12T11:39:33Z</time>
      </trkpt>
      <trkpt lat="47.07443" lon="4.10709">
        <ele>528.86</ele>
        <time>2021-08-12T11:39:34Z</time>
      </trkpt>
      <trkpt lat="47.07441" lon="4.10709">
        <ele>528.86</ele>
        <time>2021-08-12T11:39:35Z</time>
      </trkpt>
      <trkpt lat="47.0744" lon="4.1071">
        <ele>528.86</ele>
        <time>2021-08-12T11:39:36Z</time>
      </trkpt>
      <trkpt lat="47.07439" lon="4.10712">
        <ele>528.86</ele>
        <time>2021-08-12T11:39:37Z</time>
      </trkpt>
      <trkpt lat="47.07438" lon="4.10713">
        <ele>529.34</ele>
        <time>2021-08-12T11:39:38Z</time>
      </trkpt>
      <trkpt lat="47.07433" lon="4.10723">
        <ele>530.3</ele>
        <time>2021-08-12T11:39:46Z</time>
      </trkpt>
      <trkpt lat="47.07427" lon="4.10735">
        <ele>530.79</ele>
        <time>2021-08-12T11:39:54Z</time>
      </trkpt>
      <trkpt lat="47.07419" lon="4.10746">
        <ele>532.23</ele>
        <time>2021-08-12T11:40:03Z</time>
      </trkpt>
      <trkpt lat="47.07413" lon="4.10755">
        <ele>533.67</ele>
        <time>2021-08-12T11:40:10Z</time>
      </trkpt>
      <trkpt lat="47.07405" lon="4.10765">
        <ele>535.11</ele>
        <time>2021-08-12T11:40:18Z</time>
      </trkpt>
      <trkpt lat="47.07398" lon="4.10774">
        <ele>536.07</ele>
        <time>2021-08-12T11:40:24Z</time>
      </trkpt>
      <trkpt lat="47.07392" lon="4.10781">
        <ele>537.03</ele>
        <time>2021-08-12T11:40:30Z</time>
      </trkpt>
      <trkpt lat="47.07385" lon="4.10788">
        <ele>538.48</ele>
        <time>2021-08-12T11:40:37Z</time>
      </trkpt>
      <trkpt lat="47.07378" lon="4.10799">
        <ele>539.44</ele>
        <time>2021-08-12T11:40:46Z</time>
      </trkpt>
      <trkpt lat="47.07371" lon="4.10805">
        <ele>539.92</ele>
        <time>2021-08-12T11:40:52Z</time>
      </trkpt>
      <trkpt lat="47.07358" lon="4.10815">
        <ele>541.36</ele>
        <time>2021-08-12T11:41:01Z</time>
      </trkpt>
      <trkpt lat="47.07357" lon="4.10815">
        <ele>541.36</ele>
        <time>2021-08-12T11:41:02Z</time>
      </trkpt>
      <trkpt lat="47.07347" lon="4.10821">
        <ele>542.8</ele>
        <time>2021-08-12T11:41:09Z</time>
      </trkpt>
      <trkpt lat="47.07341" lon="4.10828">
        <ele>543.28</ele>
        <time>2021-08-12T11:41:14Z</time>
      </trkpt>
      <trkpt lat="47.07339" lon="4.1083">
        <ele>543.28</ele>
        <time>2021-08-12T11:41:15Z</time>
      </trkpt>
      <trkpt lat="47.07337" lon="4.1083">
        <ele>543.28</ele>
        <time>2021-08-12T11:41:16Z</time>
      </trkpt>
      <trkpt lat="47.07318" lon="4.10822">
        <ele>540.88</ele>
        <time>2021-08-12T11:41:24Z</time>
      </trkpt>
      <trkpt lat="47.07298" lon="4.10809">
        <ele>540.4</ele>
        <time>2021-08-12T11:41:30Z</time>
      </trkpt>
      <trkpt lat="47.07271" lon="4.10796">
        <ele>540.4</ele>
        <time>2021-08-12T11:41:36Z</time>
      </trkpt>
      <trkpt lat="47.07238" lon="4.10776">
        <ele>542.32</ele>
        <time>2021-08-12T11:41:44Z</time>
      </trkpt>
      <trkpt lat="47.07223" lon="4.10767">
        <ele>543.28</ele>
        <time>2021-08-12T11:41:51Z</time>
      </trkpt>
      <trkpt lat="47.07209" lon="4.10756">
        <ele>543.28</ele>
        <time>2021-08-12T11:41:57Z</time>
      </trkpt>
      <trkpt lat="47.07195" lon="4.1075">
        <ele>544.72</ele>
        <time>2021-08-12T11:42:03Z</time>
      </trkpt>
      <trkpt lat="47.0718" lon="4.1075">
        <ele>545.2</ele>
        <time>2021-08-12T11:42:10Z</time>
      </trkpt>
      <trkpt lat="47.07163" lon="4.10753">
        <ele>545.69</ele>
        <time>2021-08-12T11:42:17Z</time>
      </trkpt>
      <trkpt lat="47.07142" lon="4.10766">
        <ele>543.76</ele>
        <time>2021-08-12T11:42:24Z</time>
      </trkpt>
      <trkpt lat="47.07138" lon="4.1077">
        <ele>543.76</ele>
        <time>2021-08-12T11:42:25Z</time>
      </trkpt>
      <trkpt lat="47.07121" lon="4.10787">
        <ele>542.32</ele>
        <time>2021-08-12T11:42:29Z</time>
      </trkpt>
      <trkpt lat="47.07118" lon="4.10795">
        <ele>540.88</ele>
        <time>2021-08-12T11:42:30Z</time>
      </trkpt>
      <trkpt lat="47.07114" lon="4.10802">
        <ele>540.4</ele>
        <time>2021-08-12T11:42:31Z</time>
      </trkpt>
      <trkpt lat="47.07108" lon="4.10811">
        <ele>540.4</ele>
        <time>2021-08-12T11:42:32Z</time>
      </trkpt>
      <trkpt lat="47.071" lon="4.10821">
        <ele>539.92</ele>
        <time>2021-08-12T11:42:33Z</time>
      </trkpt>
      <trkpt lat="47.07063" lon="4.10866">
        <ele>537.51</ele>
        <time>2021-08-12T11:42:39Z</time>
      </trkpt>
      <trkpt lat="47.07041" lon="4.10889">
        <ele>536.55</ele>
        <time>2021-08-12T11:42:43Z</time>
      </trkpt>
      <trkpt lat="47.07022" lon="4.10915">
        <ele>533.67</ele>
        <time>2021-08-12T11:42:47Z</time>
      </trkpt>
      <trkpt lat="47.07018" lon="4.10922">
        <ele>533.67</ele>
        <time>2021-08-12T11:42:48Z</time>
      </trkpt>
      <trkpt lat="47.07007" lon="4.10935">
        <ele>530.79</ele>
        <time>2021-08-12T11:42:50Z</time>
      </trkpt>
      <trkpt lat="47.06988" lon="4.10961">
        <ele>527.42</ele>
        <time>2021-08-12T11:42:53Z</time>
      </trkpt>
      <trkpt lat="47.06982" lon="4.10969">
        <ele>526.46</ele>
        <time>2021-08-12T11:42:54Z</time>
      </trkpt>
      <trkpt lat="47.06978" lon="4.10976">
        <ele>525.5</ele>
        <time>2021-08-12T11:42:55Z</time>
      </trkpt>
      <trkpt lat="47.06976" lon="4.10985">
        <ele>525.5</ele>
        <time>2021-08-12T11:42:56Z</time>
      </trkpt>
      <trkpt lat="47.06973" lon="4.10994">
        <ele>524.54</ele>
        <time>2021-08-12T11:42:57Z</time>
      </trkpt>
      <trkpt lat="47.06972" lon="4.11003">
        <ele>524.06</ele>
        <time>2021-08-12T11:42:58Z</time>
      </trkpt>
      <trkpt lat="47.06971" lon="4.11012">
        <ele>523.58</ele>
        <time>2021-08-12T11:42:59Z</time>
      </trkpt>
      <trkpt lat="47.06971" lon="4.11024">
        <ele>523.58</ele>
        <time>2021-08-12T11:43:00Z</time>
      </trkpt>
      <trkpt lat="47.06971" lon="4.11034">
        <ele>522.61</ele>
        <time>2021-08-12T11:43:01Z</time>
      </trkpt>
      <trkpt lat="47.06971" lon="4.11044">
        <ele>521.65</ele>
        <time>2021-08-12T11:43:02Z</time>
      </trkpt>
      <trkpt lat="47.06973" lon="4.11067">
        <ele>521.17</ele>
        <time>2021-08-12T11:43:04Z</time>
      </trkpt>
      <trkpt lat="47.06974" lon="4.11087">
        <ele>519.73</ele>
        <time>2021-08-12T11:43:06Z</time>
      </trkpt>
      <trkpt lat="47.06974" lon="4.11097">
        <ele>518.77</ele>
        <time>2021-08-12T11:43:07Z</time>
      </trkpt>
      <trkpt lat="47.06972" lon="4.11108">
        <ele>518.29</ele>
        <time>2021-08-12T11:43:08Z</time>
      </trkpt>
      <trkpt lat="47.0697" lon="4.11119">
        <ele>518.29</ele>
        <time>2021-08-12T11:43:09Z</time>
      </trkpt>
      <trkpt lat="47.06966" lon="4.11128">
        <ele>517.33</ele>
        <time>2021-08-12T11:43:10Z</time>
      </trkpt>
      <trkpt lat="47.06962" lon="4.11137">
        <ele>516.85</ele>
        <time>2021-08-12T11:43:11Z</time>
      </trkpt>
      <trkpt lat="47.06956" lon="4.11144">
        <ele>516.85</ele>
        <time>2021-08-12T11:43:12Z</time>
      </trkpt>
      <trkpt lat="47.06948" lon="4.11149">
        <ele>516.37</ele>
        <time>2021-08-12T11:43:13Z</time>
      </trkpt>
      <trkpt lat="47.0694" lon="4.11152">
        <ele>515.4</ele>
        <time>2021-08-12T11:43:14Z</time>
      </trkpt>
      <trkpt lat="47.06934" lon="4.11154">
        <ele>515.88</ele>
        <time>2021-08-12T11:43:15Z</time>
      </trkpt>
      <trkpt lat="47.06927" lon="4.11155">
        <ele>515.88</ele>
        <time>2021-08-12T11:43:16Z</time>
      </trkpt>
      <trkpt lat="47.0692" lon="4.11155">
        <ele>515.88</ele>
        <time>2021-08-12T11:43:17Z</time>
      </trkpt>
      <trkpt lat="47.06908" lon="4.11156">
        <ele>517.81</ele>
        <time>2021-08-12T11:43:19Z</time>
      </trkpt>
      <trkpt lat="47.06898" lon="4.11155">
        <ele>519.73</ele>
        <time>2021-08-12T11:43:23Z</time>
      </trkpt>
      <trkpt lat="47.06887" lon="4.11157">
        <ele>520.21</ele>
        <time>2021-08-12T11:43:30Z</time>
      </trkpt>
      <trkpt lat="47.06874" lon="4.11153">
        <ele>521.17</ele>
        <time>2021-08-12T11:43:39Z</time>
      </trkpt>
      <trkpt lat="47.06863" lon="4.11151">
        <ele>522.13</ele>
        <time>2021-08-12T11:43:47Z</time>
      </trkpt>
      <trkpt lat="47.06853" lon="4.11148">
        <ele>523.58</ele>
        <time>2021-08-12T11:43:56Z</time>
      </trkpt>
      <trkpt lat="47.06845" lon="4.11148">
        <ele>524.54</ele>
        <time>2021-08-12T11:44:04Z</time>
      </trkpt>
      <trkpt lat="47.06836" lon="4.11149">
        <ele>525.02</ele>
        <time>2021-08-12T11:44:12Z</time>
      </trkpt>
      <trkpt lat="47.06827" lon="4.11147">
        <ele>525.98</ele>
        <time>2021-08-12T11:44:20Z</time>
      </trkpt>
      <trkpt lat="47.06815" lon="4.11145">
        <ele>527.42</ele>
        <time>2021-08-12T11:44:29Z</time>
      </trkpt>
      <trkpt lat="47.06805" lon="4.11144">
        <ele>528.86</ele>
        <time>2021-08-12T11:44:37Z</time>
      </trkpt>
      <trkpt lat="47.06797" lon="4.11147">
        <ele>529.82</ele>
        <time>2021-08-12T11:44:47Z</time>
      </trkpt>
      <trkpt lat="47.06786" lon="4.11151">
        <ele>530.3</ele>
        <time>2021-08-12T11:44:54Z</time>
      </trkpt>
      <trkpt lat="47.06778" lon="4.11153">
        <ele>530.79</ele>
        <time>2021-08-12T11:45:01Z</time>
      </trkpt>
      <trkpt lat="47.06767" lon="4.11154">
        <ele>531.75</ele>
        <time>2021-08-12T11:45:09Z</time>
      </trkpt>
      <trkpt lat="47.06756" lon="4.11159">
        <ele>532.71</ele>
        <time>2021-08-12T11:45:17Z</time>
      </trkpt>
      <trkpt lat="47.06748" lon="4.11165">
        <ele>533.19</ele>
        <time>2021-08-12T11:45:25Z</time>
      </trkpt>
      <trkpt lat="47.06738" lon="4.1117">
        <ele>533.19</ele>
        <time>2021-08-12T11:45:31Z</time>
      </trkpt>
      <trkpt lat="47.06722" lon="4.1118">
        <ele>533.19</ele>
        <time>2021-08-12T11:45:38Z</time>
      </trkpt>
      <trkpt lat="47.06717" lon="4.11187">
        <ele>533.19</ele>
        <time>2021-08-12T11:45:41Z</time>
      </trkpt>
      <trkpt lat="47.06715" lon="4.11189">
        <ele>533.19</ele>
        <time>2021-08-12T11:45:42Z</time>
      </trkpt>
      <trkpt lat="47.06714" lon="4.11192">
        <ele>533.19</ele>
        <time>2021-08-12T11:45:43Z</time>
      </trkpt>
      <trkpt lat="47.06713" lon="4.11193">
        <ele>533.67</ele>
        <time>2021-08-12T11:45:44Z</time>
      </trkpt>
      <trkpt lat="47.06711" lon="4.11194">
        <ele>533.67</ele>
        <time>2021-08-12T11:45:45Z</time>
      </trkpt>
      <trkpt lat="47.06709" lon="4.11196">
        <ele>533.67</ele>
        <time>2021-08-12T11:45:46Z</time>
      </trkpt>
      <trkpt lat="47.06706" lon="4.11198">
        <ele>533.67</ele>
        <time>2021-08-12T11:45:47Z</time>
      </trkpt>
      <trkpt lat="47.06704" lon="4.112">
        <ele>533.67</ele>
        <time>2021-08-12T11:45:48Z</time>
      </trkpt>
      <trkpt lat="47.067" lon="4.11202">
        <ele>532.71</ele>
        <time>2021-08-12T11:45:49Z</time>
      </trkpt>
      <trkpt lat="47.06697" lon="4.11206">
        <ele>532.23</ele>
        <time>2021-08-12T11:45:50Z</time>
      </trkpt>
      <trkpt lat="47.06681" lon="4.11222">
        <ele>530.3</ele>
        <time>2021-08-12T11:45:54Z</time>
      </trkpt>
      <trkpt lat="47.0666" lon="4.11243">
        <ele>526.46</ele>
        <time>2021-08-12T11:45:58Z</time>
      </trkpt>
      <trkpt lat="47.06645" lon="4.11261">
        <ele>524.54</ele>
        <time>2021-08-12T11:46:02Z</time>
      </trkpt>
      <trkpt lat="47.06641" lon="4.11264">
        <ele>523.58</ele>
        <time>2021-08-12T11:46:03Z</time>
      </trkpt>
      <trkpt lat="47.06637" lon="4.11266">
        <ele>522.13</ele>
        <time>2021-08-12T11:46:04Z</time>
      </trkpt>
      <trkpt lat="47.06627" lon="4.11271">
        <ele>519.73</ele>
        <time>2021-08-12T11:46:06Z</time>
      </trkpt>
      <trkpt lat="47.06621" lon="4.11272">
        <ele>518.77</ele>
        <time>2021-08-12T11:46:07Z</time>
      </trkpt>
      <trkpt lat="47.06615" lon="4.11272">
        <ele>517.81</ele>
        <time>2021-08-12T11:46:08Z</time>
      </trkpt>
      <trkpt lat="47.06609" lon="4.11272">
        <ele>516.85</ele>
        <time>2021-08-12T11:46:09Z</time>
      </trkpt>
      <trkpt lat="47.06604" lon="4.11271">
        <ele>515.88</ele>
        <time>2021-08-12T11:46:10Z</time>
      </trkpt>
      <trkpt lat="47.06598" lon="4.11269">
        <ele>515.88</ele>
        <time>2021-08-12T11:46:11Z</time>
      </trkpt>
      <trkpt lat="47.06593" lon="4.11267">
        <ele>514.92</ele>
        <time>2021-08-12T11:46:12Z</time>
      </trkpt>
      <trkpt lat="47.06588" lon="4.11264">
        <ele>513.96</ele>
        <time>2021-08-12T11:46:13Z</time>
      </trkpt>
      <trkpt lat="47.06584" lon="4.11262">
        <ele>513</ele>
        <time>2021-08-12T11:46:14Z</time>
      </trkpt>
      <trkpt lat="47.06565" lon="4.11253">
        <ele>509.64</ele>
        <time>2021-08-12T11:46:18Z</time>
      </trkpt>
      <trkpt lat="47.06557" lon="4.11249">
        <ele>508.67</ele>
        <time>2021-08-12T11:46:20Z</time>
      </trkpt>
      <trkpt lat="47.06547" lon="4.11249">
        <ele>508.67</ele>
        <time>2021-08-12T11:46:22Z</time>
      </trkpt>
      <trkpt lat="47.06534" lon="4.11251">
        <ele>508.19</ele>
        <time>2021-08-12T11:46:25Z</time>
      </trkpt>
      <trkpt lat="47.0653" lon="4.11253">
        <ele>508.19</ele>
        <time>2021-08-12T11:46:26Z</time>
      </trkpt>
      <trkpt lat="47.06526" lon="4.11254">
        <ele>508.19</ele>
        <time>2021-08-12T11:46:27Z</time>
      </trkpt>
      <trkpt lat="47.06521" lon="4.11256">
        <ele>508.19</ele>
        <time>2021-08-12T11:46:28Z</time>
      </trkpt>
      <trkpt lat="47.06517" lon="4.11257">
        <ele>508.19</ele>
        <time>2021-08-12T11:46:29Z</time>
      </trkpt>
      <trkpt lat="47.06513" lon="4.11259">
        <ele>508.19</ele>
        <time>2021-08-12T11:46:30Z</time>
      </trkpt>
      <trkpt lat="47.06499" lon="4.11271">
        <ele>509.64</ele>
        <time>2021-08-12T11:46:34Z</time>
      </trkpt>
      <trkpt lat="47.06485" lon="4.11285">
        <ele>508.67</ele>
        <time>2021-08-12T11:46:39Z</time>
      </trkpt>
      <trkpt lat="47.06483" lon="4.11289">
        <ele>508.67</ele>
        <time>2021-08-12T11:46:40Z</time>
      </trkpt>
      <trkpt lat="47.06476" lon="4.11312">
        <ele>507.71</ele>
        <time>2021-08-12T11:46:45Z</time>
      </trkpt>
      <trkpt lat="47.06473" lon="4.11318">
        <ele>507.23</ele>
        <time>2021-08-12T11:46:50Z</time>
      </trkpt>
      <trkpt lat="47.06473" lon="4.11318">
        <ele>507.23</ele>
        <time>2021-08-12T11:47:03Z</time>
      </trkpt>
      <trkpt lat="47.06476" lon="4.11318">
        <ele>507.23</ele>
        <time>2021-08-12T11:47:21Z</time>
      </trkpt>
      <trkpt lat="47.06476" lon="4.11319">
        <ele>507.23</ele>
        <time>2021-08-12T11:47:35Z</time>
      </trkpt>
      <trkpt lat="47.06477" lon="4.11319">
        <ele>507.23</ele>
        <time>2021-08-12T11:47:48Z</time>
      </trkpt>
      <trkpt lat="47.06477" lon="4.11321">
        <ele>507.23</ele>
        <time>2021-08-12T11:47:53Z</time>
      </trkpt>
      <trkpt lat="47.06478" lon="4.1133">
        <ele>506.75</ele>
        <time>2021-08-12T11:47:56Z</time>
      </trkpt>
      <trkpt lat="47.06478" lon="4.11334">
        <ele>506.75</ele>
        <time>2021-08-12T11:47:57Z</time>
      </trkpt>
      <trkpt lat="47.06477" lon="4.1134">
        <ele>506.75</ele>
        <time>2021-08-12T11:47:58Z</time>
      </trkpt>
      <trkpt lat="47.06477" lon="4.11346">
        <ele>506.75</ele>
        <time>2021-08-12T11:47:59Z</time>
      </trkpt>
      <trkpt lat="47.06478" lon="4.11353">
        <ele>506.27</ele>
        <time>2021-08-12T11:48:00Z</time>
      </trkpt>
      <trkpt lat="47.06479" lon="4.1136">
        <ele>505.79</ele>
        <time>2021-08-12T11:48:01Z</time>
      </trkpt>
      <trkpt lat="47.0648" lon="4.11368">
        <ele>505.79</ele>
        <time>2021-08-12T11:48:02Z</time>
      </trkpt>
      <trkpt lat="47.06481" lon="4.11376">
        <ele>505.79</ele>
        <time>2021-08-12T11:48:03Z</time>
      </trkpt>
      <trkpt lat="47.06483" lon="4.11384">
        <ele>504.83</ele>
        <time>2021-08-12T11:48:04Z</time>
      </trkpt>
      <trkpt lat="47.06498" lon="4.11439">
        <ele>502.43</ele>
        <time>2021-08-12T11:48:10Z</time>
      </trkpt>
      <trkpt lat="47.06518" lon="4.11506">
        <ele>499.06</ele>
        <time>2021-08-12T11:48:16Z</time>
      </trkpt>
      <trkpt lat="47.06543" lon="4.11595">
        <ele>498.1</ele>
        <time>2021-08-12T11:48:24Z</time>
      </trkpt>
      <trkpt lat="47.06554" lon="4.11664">
        <ele>496.66</ele>
        <time>2021-08-12T11:48:30Z</time>
      </trkpt>
      <trkpt lat="47.06554" lon="4.11677">
        <ele>496.66</ele>
        <time>2021-08-12T11:48:31Z</time>
      </trkpt>
      <trkpt lat="47.06552" lon="4.11692">
        <ele>495.7</ele>
        <time>2021-08-12T11:48:32Z</time>
      </trkpt>
      <trkpt lat="47.0655" lon="4.11703">
        <ele>495.22</ele>
        <time>2021-08-12T11:48:33Z</time>
      </trkpt>
      <trkpt lat="47.06545" lon="4.11716">
        <ele>494.26</ele>
        <time>2021-08-12T11:48:34Z</time>
      </trkpt>
      <trkpt lat="47.06539" lon="4.11728">
        <ele>492.81</ele>
        <time>2021-08-12T11:48:35Z</time>
      </trkpt>
      <trkpt lat="47.06533" lon="4.11739">
        <ele>491.85</ele>
        <time>2021-08-12T11:48:36Z</time>
      </trkpt>
      <trkpt lat="47.06526" lon="4.11751">
        <ele>491.85</ele>
        <time>2021-08-12T11:48:37Z</time>
      </trkpt>
      <trkpt lat="47.06518" lon="4.1176">
        <ele>491.37</ele>
        <time>2021-08-12T11:48:38Z</time>
      </trkpt>
      <trkpt lat="47.0651" lon="4.11767">
        <ele>491.37</ele>
        <time>2021-08-12T11:48:39Z</time>
      </trkpt>
      <trkpt lat="47.065" lon="4.11772">
        <ele>490.89</ele>
        <time>2021-08-12T11:48:40Z</time>
      </trkpt>
      <trkpt lat="47.06491" lon="4.11775">
        <ele>489.93</ele>
        <time>2021-08-12T11:48:41Z</time>
      </trkpt>
      <trkpt lat="47.06481" lon="4.11778">
        <ele>488.49</ele>
        <time>2021-08-12T11:48:42Z</time>
      </trkpt>
      <trkpt lat="47.06471" lon="4.11781">
        <ele>488.49</ele>
        <time>2021-08-12T11:48:43Z</time>
      </trkpt>
      <trkpt lat="47.06463" lon="4.11786">
        <ele>488.01</ele>
        <time>2021-08-12T11:48:44Z</time>
      </trkpt>
      <trkpt lat="47.06457" lon="4.11794">
        <ele>487.53</ele>
        <time>2021-08-12T11:48:45Z</time>
      </trkpt>
      <trkpt lat="47.06453" lon="4.11804">
        <ele>486.56</ele>
        <time>2021-08-12T11:48:46Z</time>
      </trkpt>
      <trkpt lat="47.06451" lon="4.11816">
        <ele>486.56</ele>
        <time>2021-08-12T11:48:47Z</time>
      </trkpt>
      <trkpt lat="47.06451" lon="4.11829">
        <ele>485.6</ele>
        <time>2021-08-12T11:48:48Z</time>
      </trkpt>
      <trkpt lat="47.06452" lon="4.11843">
        <ele>485.12</ele>
        <time>2021-08-12T11:48:49Z</time>
      </trkpt>
      <trkpt lat="47.06455" lon="4.11856">
        <ele>484.64</ele>
        <time>2021-08-12T11:48:50Z</time>
      </trkpt>
      <trkpt lat="47.06459" lon="4.11869">
        <ele>484.16</ele>
        <time>2021-08-12T11:48:51Z</time>
      </trkpt>
      <trkpt lat="47.06472" lon="4.1191">
        <ele>483.68</ele>
        <time>2021-08-12T11:48:55Z</time>
      </trkpt>
      <trkpt lat="47.06473" lon="4.11918">
        <ele>483.68</ele>
        <time>2021-08-12T11:48:56Z</time>
      </trkpt>
      <trkpt lat="47.06472" lon="4.11924">
        <ele>483.68</ele>
        <time>2021-08-12T11:48:57Z</time>
      </trkpt>
      <trkpt lat="47.06469" lon="4.11928">
        <ele>483.2</ele>
        <time>2021-08-12T11:48:58Z</time>
      </trkpt>
      <trkpt lat="47.06463" lon="4.11931">
        <ele>482.24</ele>
        <time>2021-08-12T11:48:59Z</time>
      </trkpt>
      <trkpt lat="47.06458" lon="4.11931">
        <ele>481.76</ele>
        <time>2021-08-12T11:49:00Z</time>
      </trkpt>
      <trkpt lat="47.06452" lon="4.1193">
        <ele>481.76</ele>
        <time>2021-08-12T11:49:01Z</time>
      </trkpt>
      <trkpt lat="47.06447" lon="4.11928">
        <ele>480.8</ele>
        <time>2021-08-12T11:49:02Z</time>
      </trkpt>
      <trkpt lat="47.06427" lon="4.11922">
        <ele>480.8</ele>
        <time>2021-08-12T11:49:07Z</time>
      </trkpt>
      <trkpt lat="47.06417" lon="4.11918">
        <ele>480.8</ele>
        <time>2021-08-12T11:49:13Z</time>
      </trkpt>
      <trkpt lat="47.06402" lon="4.1191">
        <ele>479.84</ele>
        <time>2021-08-12T11:49:18Z</time>
      </trkpt>
      <trkpt lat="47.06393" lon="4.11907">
        <ele>478.87</ele>
        <time>2021-08-12T11:49:20Z</time>
      </trkpt>
      <trkpt lat="47.06388" lon="4.11905">
        <ele>478.87</ele>
        <time>2021-08-12T11:49:21Z</time>
      </trkpt>
      <trkpt lat="47.06377" lon="4.11902">
        <ele>478.39</ele>
        <time>2021-08-12T11:49:23Z</time>
      </trkpt>
      <trkpt lat="47.06371" lon="4.11898">
        <ele>477.91</ele>
        <time>2021-08-12T11:49:24Z</time>
      </trkpt>
      <trkpt lat="47.06365" lon="4.11896">
        <ele>476.95</ele>
        <time>2021-08-12T11:49:25Z</time>
      </trkpt>
      <trkpt lat="47.06359" lon="4.11896">
        <ele>476.95</ele>
        <time>2021-08-12T11:49:26Z</time>
      </trkpt>
      <trkpt lat="47.06353" lon="4.11897">
        <ele>476.95</ele>
        <time>2021-08-12T11:49:27Z</time>
      </trkpt>
      <trkpt lat="47.06347" lon="4.11898">
        <ele>476.47</ele>
        <time>2021-08-12T11:49:28Z</time>
      </trkpt>
      <trkpt lat="47.06309" lon="4.11904">
        <ele>475.03</ele>
        <time>2021-08-12T11:49:34Z</time>
      </trkpt>
      <trkpt lat="47.06303" lon="4.11905">
        <ele>475.51</ele>
        <time>2021-08-12T11:49:35Z</time>
      </trkpt>
      <trkpt lat="47.06281" lon="4.119">
        <ele>474.07</ele>
        <time>2021-08-12T11:49:39Z</time>
      </trkpt>
      <trkpt lat="47.06249" lon="4.11894">
        <ele>472.63</ele>
        <time>2021-08-12T11:49:44Z</time>
      </trkpt>
      <trkpt lat="47.06207" lon="4.11887">
        <ele>470.22</ele>
        <time>2021-08-12T11:49:51Z</time>
      </trkpt>
      <trkpt lat="47.06193" lon="4.11884">
        <ele>468.3</ele>
        <time>2021-08-12T11:49:54Z</time>
      </trkpt>
      <trkpt lat="47.06188" lon="4.11884">
        <ele>468.3</ele>
        <time>2021-08-12T11:49:55Z</time>
      </trkpt>
      <trkpt lat="47.06173" lon="4.11884">
        <ele>465.42</ele>
        <time>2021-08-12T11:49:58Z</time>
      </trkpt>
      <trkpt lat="47.06169" lon="4.11885">
        <ele>464.93</ele>
        <time>2021-08-12T11:49:59Z</time>
      </trkpt>
      <trkpt lat="47.0616" lon="4.11886">
        <ele>463.97</ele>
        <time>2021-08-12T11:50:01Z</time>
      </trkpt>
      <trkpt lat="47.06156" lon="4.11886">
        <ele>463.49</ele>
        <time>2021-08-12T11:50:02Z</time>
      </trkpt>
      <trkpt lat="47.06153" lon="4.11888">
        <ele>463.01</ele>
        <time>2021-08-12T11:50:03Z</time>
      </trkpt>
      <trkpt lat="47.06149" lon="4.11889">
        <ele>462.05</ele>
        <time>2021-08-12T11:50:04Z</time>
      </trkpt>
      <trkpt lat="47.06145" lon="4.11889">
        <ele>462.05</ele>
        <time>2021-08-12T11:50:05Z</time>
      </trkpt>
      <trkpt lat="47.06141" lon="4.11889">
        <ele>461.09</ele>
        <time>2021-08-12T11:50:06Z</time>
      </trkpt>
      <trkpt lat="47.06137" lon="4.11889">
        <ele>460.13</ele>
        <time>2021-08-12T11:50:07Z</time>
      </trkpt>
      <trkpt lat="47.06118" lon="4.11888">
        <ele>457.24</ele>
        <time>2021-08-12T11:50:12Z</time>
      </trkpt>
      <trkpt lat="47.06108" lon="4.11883">
        <ele>455.32</ele>
        <time>2021-08-12T11:50:15Z</time>
      </trkpt>
      <trkpt lat="47.06102" lon="4.11872">
        <ele>453.4</ele>
        <time>2021-08-12T11:50:18Z</time>
      </trkpt>
      <trkpt lat="47.06102" lon="4.11868">
        <ele>452.92</ele>
        <time>2021-08-12T11:50:19Z</time>
      </trkpt>
      <trkpt lat="47.06104" lon="4.11864">
        <ele>451.96</ele>
        <time>2021-08-12T11:50:20Z</time>
      </trkpt>
      <trkpt lat="47.06106" lon="4.1186">
        <ele>451.96</ele>
        <time>2021-08-12T11:50:21Z</time>
      </trkpt>
      <trkpt lat="47.06109" lon="4.11855">
        <ele>451</ele>
        <time>2021-08-12T11:50:22Z</time>
      </trkpt>
      <trkpt lat="47.06118" lon="4.11835">
        <ele>448.59</ele>
        <time>2021-08-12T11:50:25Z</time>
      </trkpt>
      <trkpt lat="47.06126" lon="4.11813">
        <ele>447.63</ele>
        <time>2021-08-12T11:50:28Z</time>
      </trkpt>
      <trkpt lat="47.06128" lon="4.11805">
        <ele>447.15</ele>
        <time>2021-08-12T11:50:29Z</time>
      </trkpt>
      <trkpt lat="47.0613" lon="4.11798">
        <ele>446.19</ele>
        <time>2021-08-12T11:50:30Z</time>
      </trkpt>
      <trkpt lat="47.0613" lon="4.1179">
        <ele>445.71</ele>
        <time>2021-08-12T11:50:31Z</time>
      </trkpt>
      <trkpt lat="47.0613" lon="4.11782">
        <ele>444.75</ele>
        <time>2021-08-12T11:50:32Z</time>
      </trkpt>
      <trkpt lat="47.0613" lon="4.11775">
        <ele>444.27</ele>
        <time>2021-08-12T11:50:33Z</time>
      </trkpt>
      <trkpt lat="47.0613" lon="4.11767">
        <ele>442.82</ele>
        <time>2021-08-12T11:50:34Z</time>
      </trkpt>
      <trkpt lat="47.06131" lon="4.1176">
        <ele>442.34</ele>
        <time>2021-08-12T11:50:35Z</time>
      </trkpt>
      <trkpt lat="47.06132" lon="4.11752">
        <ele>441.86</ele>
        <time>2021-08-12T11:50:36Z</time>
      </trkpt>
      <trkpt lat="47.06133" lon="4.11745">
        <ele>440.9</ele>
        <time>2021-08-12T11:50:37Z</time>
      </trkpt>
      <trkpt lat="47.06135" lon="4.11738">
        <ele>439.94</ele>
        <time>2021-08-12T11:50:38Z</time>
      </trkpt>
      <trkpt lat="47.06137" lon="4.11731">
        <ele>438.98</ele>
        <time>2021-08-12T11:50:39Z</time>
      </trkpt>
      <trkpt lat="47.06139" lon="4.11724">
        <ele>438.5</ele>
        <time>2021-08-12T11:50:40Z</time>
      </trkpt>
      <trkpt lat="47.06141" lon="4.11717">
        <ele>437.54</ele>
        <time>2021-08-12T11:50:41Z</time>
      </trkpt>
      <trkpt lat="47.06142" lon="4.1171">
        <ele>437.06</ele>
        <time>2021-08-12T11:50:42Z</time>
      </trkpt>
      <trkpt lat="47.06143" lon="4.11702">
        <ele>436.1</ele>
        <time>2021-08-12T11:50:43Z</time>
      </trkpt>
      <trkpt lat="47.06141" lon="4.11695">
        <ele>435.13</ele>
        <time>2021-08-12T11:50:44Z</time>
      </trkpt>
      <trkpt lat="47.06138" lon="4.11689">
        <ele>434.17</ele>
        <time>2021-08-12T11:50:45Z</time>
      </trkpt>
      <trkpt lat="47.06134" lon="4.11685">
        <ele>433.21</ele>
        <time>2021-08-12T11:50:46Z</time>
      </trkpt>
      <trkpt lat="47.06128" lon="4.11683">
        <ele>432.25</ele>
        <time>2021-08-12T11:50:47Z</time>
      </trkpt>
      <trkpt lat="47.0612" lon="4.1168">
        <ele>431.29</ele>
        <time>2021-08-12T11:50:48Z</time>
      </trkpt>
      <trkpt lat="47.06114" lon="4.11679">
        <ele>429.85</ele>
        <time>2021-08-12T11:50:49Z</time>
      </trkpt>
      <trkpt lat="47.06108" lon="4.11679">
        <ele>429.37</ele>
        <time>2021-08-12T11:50:50Z</time>
      </trkpt>
      <trkpt lat="47.06101" lon="4.11679">
        <ele>428.89</ele>
        <time>2021-08-12T11:50:51Z</time>
      </trkpt>
      <trkpt lat="47.06095" lon="4.11681">
        <ele>427.92</ele>
        <time>2021-08-12T11:50:52Z</time>
      </trkpt>
      <trkpt lat="47.06088" lon="4.11683">
        <ele>427.92</ele>
        <time>2021-08-12T11:50:53Z</time>
      </trkpt>
      <trkpt lat="47.06067" lon="4.11691">
        <ele>424.56</ele>
        <time>2021-08-12T11:50:56Z</time>
      </trkpt>
      <trkpt lat="47.06053" lon="4.11694">
        <ele>423.6</ele>
        <time>2021-08-12T11:50:58Z</time>
      </trkpt>
      <trkpt lat="47.06043" lon="4.11695">
        <ele>423.12</ele>
        <time>2021-08-12T11:51:00Z</time>
      </trkpt>
      <trkpt lat="47.06039" lon="4.11694">
        <ele>422.16</ele>
        <time>2021-08-12T11:51:01Z</time>
      </trkpt>
      <trkpt lat="47.06013" lon="4.11691">
        <ele>418.31</ele>
        <time>2021-08-12T11:51:07Z</time>
      </trkpt>
      <trkpt lat="47.05992" lon="4.11689">
        <ele>416.39</ele>
        <time>2021-08-12T11:51:11Z</time>
      </trkpt>
      <trkpt lat="47.05984" lon="4.11688">
        <ele>414.95</ele>
        <time>2021-08-12T11:51:13Z</time>
      </trkpt>
      <trkpt lat="47.05979" lon="4.11685">
        <ele>414.95</ele>
        <time>2021-08-12T11:51:14Z</time>
      </trkpt>
      <trkpt lat="47.05976" lon="4.11682">
        <ele>413.5</ele>
        <time>2021-08-12T11:51:15Z</time>
      </trkpt>
      <trkpt lat="47.05972" lon="4.11679">
        <ele>413.5</ele>
        <time>2021-08-12T11:51:16Z</time>
      </trkpt>
      <trkpt lat="47.05968" lon="4.11675">
        <ele>412.54</ele>
        <time>2021-08-12T11:51:17Z</time>
      </trkpt>
      <trkpt lat="47.05964" lon="4.11671">
        <ele>412.06</ele>
        <time>2021-08-12T11:51:18Z</time>
      </trkpt>
      <trkpt lat="47.05949" lon="4.11663">
        <ele>409.18</ele>
        <time>2021-08-12T11:51:22Z</time>
      </trkpt>
      <trkpt lat="47.05935" lon="4.11657">
        <ele>407.26</ele>
        <time>2021-08-12T11:51:25Z</time>
      </trkpt>
      <trkpt lat="47.05931" lon="4.11655">
        <ele>406.77</ele>
        <time>2021-08-12T11:51:26Z</time>
      </trkpt>
      <trkpt lat="47.05928" lon="4.11653">
        <ele>406.77</ele>
        <time>2021-08-12T11:51:27Z</time>
      </trkpt>
      <trkpt lat="47.0592" lon="4.11653">
        <ele>406.29</ele>
        <time>2021-08-12T11:51:30Z</time>
      </trkpt>
      <trkpt lat="47.05919" lon="4.11657">
        <ele>406.29</ele>
        <time>2021-08-12T11:51:31Z</time>
      </trkpt>
      <trkpt lat="47.05919" lon="4.11661">
        <ele>405.81</ele>
        <time>2021-08-12T11:51:32Z</time>
      </trkpt>
      <trkpt lat="47.05918" lon="4.11664">
        <ele>405.81</ele>
        <time>2021-08-12T11:51:33Z</time>
      </trkpt>
      <trkpt lat="47.05918" lon="4.11669">
        <ele>405.81</ele>
        <time>2021-08-12T11:51:34Z</time>
      </trkpt>
      <trkpt lat="47.05917" lon="4.11706">
        <ele>405.33</ele>
        <time>2021-08-12T11:51:41Z</time>
      </trkpt>
      <trkpt lat="47.05914" lon="4.11743">
        <ele>405.33</ele>
        <time>2021-08-12T11:51:48Z</time>
      </trkpt>
      <trkpt lat="47.05911" lon="4.11761">
        <ele>405.33</ele>
        <time>2021-08-12T11:51:51Z</time>
      </trkpt>
      <trkpt lat="47.05904" lon="4.1182">
        <ele>404.85</ele>
        <time>2021-08-12T11:52:01Z</time>
      </trkpt>
      <trkpt lat="47.05902" lon="4.11832">
        <ele>404.85</ele>
        <time>2021-08-12T11:52:03Z</time>
      </trkpt>
      <trkpt lat="47.05893" lon="4.11889">
        <ele>403.41</ele>
        <time>2021-08-12T11:52:11Z</time>
      </trkpt>
      <trkpt lat="47.05878" lon="4.11957">
        <ele>402.93</ele>
        <time>2021-08-12T11:52:20Z</time>
      </trkpt>
      <trkpt lat="47.05863" lon="4.12003">
        <ele>401.97</ele>
        <time>2021-08-12T11:52:26Z</time>
      </trkpt>
      <trkpt lat="47.05847" lon="4.12039">
        <ele>401.49</ele>
        <time>2021-08-12T11:52:31Z</time>
      </trkpt>
      <trkpt lat="47.05816" lon="4.12104">
        <ele>401.49</ele>
        <time>2021-08-12T11:52:40Z</time>
      </trkpt>
      <trkpt lat="47.0579" lon="4.12183">
        <ele>400.05</ele>
        <time>2021-08-12T11:52:50Z</time>
      </trkpt>
      <trkpt lat="47.05762" lon="4.12254">
        <ele>399.57</ele>
        <time>2021-08-12T11:53:00Z</time>
      </trkpt>
      <trkpt lat="47.05747" lon="4.12289">
        <ele>399.57</ele>
        <time>2021-08-12T11:53:07Z</time>
      </trkpt>
      <trkpt lat="47.05748" lon="4.12291">
        <ele>399.57</ele>
        <time>2021-08-12T11:53:08Z</time>
      </trkpt>
      <trkpt lat="47.0575" lon="4.12292">
        <ele>401.01</ele>
        <time>2021-08-12T11:53:09Z</time>
      </trkpt>
      <trkpt lat="47.05751" lon="4.12291">
        <ele>401.01</ele>
        <time>2021-08-12T11:53:10Z</time>
      </trkpt>
      <trkpt lat="47.05753" lon="4.12291">
        <ele>401.01</ele>
        <time>2021-08-12T11:53:11Z</time>
      </trkpt>
      <trkpt lat="47.05755" lon="4.12293">
        <ele>401.01</ele>
        <time>2021-08-12T11:53:12Z</time>
      </trkpt>
      <trkpt lat="47.05756" lon="4.12296">
        <ele>401.01</ele>
        <time>2021-08-12T11:53:13Z</time>
      </trkpt>
      <trkpt lat="47.05756" lon="4.123">
        <ele>401.01</ele>
        <time>2021-08-12T11:53:14Z</time>
      </trkpt>
      <trkpt lat="47.05756" lon="4.12306">
        <ele>401.01</ele>
        <time>2021-08-12T11:53:15Z</time>
      </trkpt>
      <trkpt lat="47.05755" lon="4.12311">
        <ele>399.57</ele>
        <time>2021-08-12T11:53:16Z</time>
      </trkpt>
      <trkpt lat="47.05755" lon="4.12316">
        <ele>399.57</ele>
        <time>2021-08-12T11:53:17Z</time>
      </trkpt>
      <trkpt lat="47.05755" lon="4.12321">
        <ele>399.57</ele>
        <time>2021-08-12T11:53:18Z</time>
      </trkpt>
      <trkpt lat="47.05756" lon="4.12357">
        <ele>399.57</ele>
        <time>2021-08-12T11:53:26Z</time>
      </trkpt>
      <trkpt lat="47.05759" lon="4.12412">
        <ele>399.57</ele>
        <time>2021-08-12T11:53:36Z</time>
      </trkpt>
      <trkpt lat="47.05762" lon="4.12462">
        <ele>399.08</ele>
        <time>2021-08-12T11:53:45Z</time>
      </trkpt>
      <trkpt lat="47.05764" lon="4.12505">
        <ele>399.08</ele>
        <time>2021-08-12T11:53:54Z</time>
      </trkpt>
      <trkpt lat="47.05768" lon="4.12551">
        <ele>399.08</ele>
        <time>2021-08-12T11:54:06Z</time>
      </trkpt>
      <trkpt lat="47.0577" lon="4.12583">
        <ele>399.08</ele>
        <time>2021-08-12T11:54:14Z</time>
      </trkpt>
      <trkpt lat="47.05771" lon="4.12622">
        <ele>399.08</ele>
        <time>2021-08-12T11:54:23Z</time>
      </trkpt>
      <trkpt lat="47.05767" lon="4.12665">
        <ele>399.08</ele>
        <time>2021-08-12T11:54:33Z</time>
      </trkpt>
      <trkpt lat="47.0576" lon="4.12702">
        <ele>399.08</ele>
        <time>2021-08-12T11:54:42Z</time>
      </trkpt>
      <trkpt lat="47.05749" lon="4.12736">
        <ele>398.6</ele>
        <time>2021-08-12T11:54:51Z</time>
      </trkpt>
      <trkpt lat="47.05738" lon="4.1276">
        <ele>398.6</ele>
        <time>2021-08-12T11:54:58Z</time>
      </trkpt>
      <trkpt lat="47.0572" lon="4.12797">
        <ele>398.6</ele>
        <time>2021-08-12T11:55:08Z</time>
      </trkpt>
      <trkpt lat="47.05705" lon="4.12828">
        <ele>398.6</ele>
        <time>2021-08-12T11:55:16Z</time>
      </trkpt>
      <trkpt lat="47.05693" lon="4.12853">
        <ele>398.6</ele>
        <time>2021-08-12T11:55:23Z</time>
      </trkpt>
      <trkpt lat="47.05681" lon="4.12884">
        <ele>399.57</ele>
        <time>2021-08-12T11:55:31Z</time>
      </trkpt>
      <trkpt lat="47.05669" lon="4.12911">
        <ele>399.57</ele>
        <time>2021-08-12T11:55:38Z</time>
      </trkpt>
      <trkpt lat="47.05654" lon="4.12938">
        <ele>399.57</ele>
        <time>2021-08-12T11:55:46Z</time>
      </trkpt>
      <trkpt lat="47.05638" lon="4.12972">
        <ele>399.57</ele>
        <time>2021-08-12T11:55:55Z</time>
      </trkpt>
      <trkpt lat="47.05625" lon="4.13009">
        <ele>398.12</ele>
        <time>2021-08-12T11:56:04Z</time>
      </trkpt>
      <trkpt lat="47.05614" lon="4.1304">
        <ele>398.12</ele>
        <time>2021-08-12T11:56:11Z</time>
      </trkpt>
      <trkpt lat="47.05598" lon="4.13076">
        <ele>398.12</ele>
        <time>2021-08-12T11:56:19Z</time>
      </trkpt>
      <trkpt lat="47.05591" lon="4.13088">
        <ele>398.12</ele>
        <time>2021-08-12T11:56:24Z</time>
      </trkpt>
      <trkpt lat="47.05592" lon="4.13089">
        <ele>398.12</ele>
        <time>2021-08-12T11:56:33Z</time>
      </trkpt>
      <trkpt lat="47.05593" lon="4.1309">
        <ele>398.12</ele>
        <time>2021-08-12T11:56:47Z</time>
      </trkpt>
      <trkpt lat="47.05595" lon="4.1309">
        <ele>397.64</ele>
        <time>2021-08-12T11:57:04Z</time>
      </trkpt>
      <trkpt lat="47.05594" lon="4.13089">
        <ele>397.64</ele>
        <time>2021-08-12T11:57:28Z</time>
      </trkpt>
      <trkpt lat="47.05594" lon="4.13089">
        <ele>397.64</ele>
        <time>2021-08-12T11:57:50Z</time>
      </trkpt>
      <trkpt lat="47.05595" lon="4.13088">
        <ele>397.16</ele>
        <time>2021-08-12T11:58:13Z</time>
      </trkpt>
      <trkpt lat="47.05595" lon="4.13089">
        <ele>397.16</ele>
        <time>2021-08-12T11:58:21Z</time>
      </trkpt>
      <trkpt lat="47.05596" lon="4.13091">
        <ele>398.12</ele>
        <time>2021-08-12T11:58:45Z</time>
      </trkpt>
      <trkpt lat="47.05596" lon="4.1309">
        <ele>398.12</ele>
        <time>2021-08-12T11:59:06Z</time>
      </trkpt>
      <trkpt lat="47.05595" lon="4.13089">
        <ele>398.12</ele>
        <time>2021-08-12T11:59:22Z</time>
      </trkpt>
      <trkpt lat="47.05593" lon="4.13087">
        <ele>398.12</ele>
        <time>2021-08-12T11:59:38Z</time>
      </trkpt>
      <trkpt lat="47.05596" lon="4.13087">
        <ele>397.64</ele>
        <time>2021-08-12T11:59:57Z</time>
      </trkpt>
      <trkpt lat="47.05595" lon="4.13088">
        <ele>397.64</ele>
        <time>2021-08-12T12:00:12Z</time>
      </trkpt>
      <trkpt lat="47.05594" lon="4.1309">
        <ele>397.64</ele>
        <time>2021-08-12T12:00:27Z</time>
      </trkpt>
      <trkpt lat="47.05595" lon="4.13091">
        <ele>397.64</ele>
        <time>2021-08-12T12:00:28Z</time>
      </trkpt>
      <trkpt lat="47.05596" lon="4.13093">
        <ele>397.64</ele>
        <time>2021-08-12T12:00:29Z</time>
      </trkpt>
      <trkpt lat="47.05596" lon="4.13095">
        <ele>397.64</ele>
        <time>2021-08-12T12:00:30Z</time>
      </trkpt>
      <trkpt lat="47.05595" lon="4.13098">
        <ele>397.64</ele>
        <time>2021-08-12T12:00:31Z</time>
      </trkpt>
      <trkpt lat="47.05594" lon="4.13102">
        <ele>397.64</ele>
        <time>2021-08-12T12:00:32Z</time>
      </trkpt>
      <trkpt lat="47.05586" lon="4.13122">
        <ele>397.64</ele>
        <time>2021-08-12T12:00:37Z</time>
      </trkpt>
      <trkpt lat="47.0557" lon="4.13161">
        <ele>397.64</ele>
        <time>2021-08-12T12:00:45Z</time>
      </trkpt>
      <trkpt lat="47.05563" lon="4.13179">
        <ele>397.64</ele>
        <time>2021-08-12T12:00:48Z</time>
      </trkpt>
      <trkpt lat="47.05561" lon="4.13186">
        <ele>396.2</ele>
        <time>2021-08-12T12:00:49Z</time>
      </trkpt>
      <trkpt lat="47.05558" lon="4.13192">
        <ele>396.2</ele>
        <time>2021-08-12T12:00:50Z</time>
      </trkpt>
      <trkpt lat="47.05533" lon="4.13254">
        <ele>395.72</ele>
        <time>2021-08-12T12:01:00Z</time>
      </trkpt>
      <trkpt lat="47.05519" lon="4.13281">
        <ele>395.72</ele>
        <time>2021-08-12T12:01:05Z</time>
      </trkpt>
      <trkpt lat="47.05491" lon="4.13327">
        <ele>395.72</ele>
        <time>2021-08-12T12:01:14Z</time>
      </trkpt>
      <trkpt lat="47.0548" lon="4.13344">
        <ele>397.16</ele>
        <time>2021-08-12T12:01:20Z</time>
      </trkpt>
      <trkpt lat="47.05479" lon="4.13345">
        <ele>397.16</ele>
        <time>2021-08-12T12:01:21Z</time>
      </trkpt>
      <trkpt lat="47.05473" lon="4.13358">
        <ele>397.64</ele>
        <time>2021-08-12T12:01:29Z</time>
      </trkpt>
      <trkpt lat="47.05465" lon="4.13372">
        <ele>398.6</ele>
        <time>2021-08-12T12:01:37Z</time>
      </trkpt>
      <trkpt lat="47.05457" lon="4.13387">
        <ele>399.08</ele>
        <time>2021-08-12T12:01:44Z</time>
      </trkpt>
      <trkpt lat="47.05456" lon="4.13389">
        <ele>399.57</ele>
        <time>2021-08-12T12:01:45Z</time>
      </trkpt>
      <trkpt lat="47.05455" lon="4.13391">
        <ele>399.57</ele>
        <time>2021-08-12T12:01:46Z</time>
      </trkpt>
      <trkpt lat="47.05449" lon="4.13406">
        <ele>400.53</ele>
        <time>2021-08-12T12:01:55Z</time>
      </trkpt>
      <trkpt lat="47.05449" lon="4.13407">
        <ele>400.53</ele>
        <time>2021-08-12T12:01:56Z</time>
      </trkpt>
      <trkpt lat="47.05446" lon="4.1342">
        <ele>401.49</ele>
        <time>2021-08-12T12:02:03Z</time>
      </trkpt>
      <trkpt lat="47.05441" lon="4.13435">
        <ele>401.97</ele>
        <time>2021-08-12T12:02:12Z</time>
      </trkpt>
      <trkpt lat="47.05438" lon="4.13445">
        <ele>402.93</ele>
        <time>2021-08-12T12:02:18Z</time>
      </trkpt>
      <trkpt lat="47.05437" lon="4.13446">
        <ele>402.93</ele>
        <time>2021-08-12T12:02:19Z</time>
      </trkpt>
      <trkpt lat="47.05433" lon="4.13464">
        <ele>404.37</ele>
        <time>2021-08-12T12:02:30Z</time>
      </trkpt>
      <trkpt lat="47.05428" lon="4.13477">
        <ele>404.85</ele>
        <time>2021-08-12T12:02:38Z</time>
      </trkpt>
      <trkpt lat="47.05424" lon="4.13492">
        <ele>405.33</ele>
        <time>2021-08-12T12:02:47Z</time>
      </trkpt>
      <trkpt lat="47.0542" lon="4.13505">
        <ele>406.29</ele>
        <time>2021-08-12T12:02:55Z</time>
      </trkpt>
      <trkpt lat="47.05419" lon="4.13509">
        <ele>406.29</ele>
        <time>2021-08-12T12:02:57Z</time>
      </trkpt>
      <trkpt lat="47.05416" lon="4.13521">
        <ele>407.26</ele>
        <time>2021-08-12T12:03:04Z</time>
      </trkpt>
      <trkpt lat="47.05413" lon="4.1353">
        <ele>407.74</ele>
        <time>2021-08-12T12:03:12Z</time>
      </trkpt>
      <trkpt lat="47.05413" lon="4.13532">
        <ele>408.22</ele>
        <time>2021-08-12T12:03:20Z</time>
      </trkpt>
      <trkpt lat="47.05413" lon="4.13533">
        <ele>408.7</ele>
        <time>2021-08-12T12:03:36Z</time>
      </trkpt>
      <trkpt lat="47.05415" lon="4.13533">
        <ele>408.7</ele>
        <time>2021-08-12T12:03:48Z</time>
      </trkpt>
      <trkpt lat="47.05416" lon="4.13535">
        <ele>408.7</ele>
        <time>2021-08-12T12:03:52Z</time>
      </trkpt>
      <trkpt lat="47.05416" lon="4.13532">
        <ele>408.7</ele>
        <time>2021-08-12T12:03:53Z</time>
      </trkpt>
      <trkpt lat="47.05416" lon="4.1352">
        <ele>406.77</ele>
        <time>2021-08-12T12:03:56Z</time>
      </trkpt>
      <trkpt lat="47.05432" lon="4.13464">
        <ele>403.41</ele>
        <time>2021-08-12T12:04:03Z</time>
      </trkpt>
      <trkpt lat="47.05443" lon="4.13427">
        <ele>400.53</ele>
        <time>2021-08-12T12:04:07Z</time>
      </trkpt>
      <trkpt lat="47.0546" lon="4.13381">
        <ele>397.16</ele>
        <time>2021-08-12T12:04:12Z</time>
      </trkpt>
      <trkpt lat="47.05464" lon="4.13371">
        <ele>395.72</ele>
        <time>2021-08-12T12:04:13Z</time>
      </trkpt>
      <trkpt lat="47.05468" lon="4.13362">
        <ele>395.72</ele>
        <time>2021-08-12T12:04:14Z</time>
      </trkpt>
      <trkpt lat="47.05472" lon="4.13354">
        <ele>395.72</ele>
        <time>2021-08-12T12:04:15Z</time>
      </trkpt>
      <trkpt lat="47.05477" lon="4.13347">
        <ele>395.24</ele>
        <time>2021-08-12T12:04:16Z</time>
      </trkpt>
      <trkpt lat="47.05481" lon="4.13342">
        <ele>395.24</ele>
        <time>2021-08-12T12:04:17Z</time>
      </trkpt>
      <trkpt lat="47.05483" lon="4.13337">
        <ele>394.76</ele>
        <time>2021-08-12T12:04:18Z</time>
      </trkpt>
      <trkpt lat="47.05479" lon="4.13331">
        <ele>394.76</ele>
        <time>2021-08-12T12:04:21Z</time>
      </trkpt>
      <trkpt lat="47.05477" lon="4.13331">
        <ele>394.28</ele>
        <time>2021-08-12T12:04:22Z</time>
      </trkpt>
      <trkpt lat="47.05474" lon="4.13335">
        <ele>394.28</ele>
        <time>2021-08-12T12:04:23Z</time>
      </trkpt>
      <trkpt lat="47.0547" lon="4.13338">
        <ele>393.8</ele>
        <time>2021-08-12T12:04:24Z</time>
      </trkpt>
      <trkpt lat="47.05451" lon="4.13362">
        <ele>392.84</ele>
        <time>2021-08-12T12:04:29Z</time>
      </trkpt>
      <trkpt lat="47.05434" lon="4.13396">
        <ele>392.36</ele>
        <time>2021-08-12T12:04:35Z</time>
      </trkpt>
      <trkpt lat="47.05427" lon="4.13411">
        <ele>392.36</ele>
        <time>2021-08-12T12:04:38Z</time>
      </trkpt>
      <trkpt lat="47.05424" lon="4.13416">
        <ele>392.36</ele>
        <time>2021-08-12T12:04:39Z</time>
      </trkpt>
      <trkpt lat="47.05415" lon="4.13435">
        <ele>391.87</ele>
        <time>2021-08-12T12:04:42Z</time>
      </trkpt>
      <trkpt lat="47.05393" lon="4.13482">
        <ele>390.91</ele>
        <time>2021-08-12T12:04:50Z</time>
      </trkpt>
      <trkpt lat="47.05377" lon="4.13515">
        <ele>388.51</ele>
        <time>2021-08-12T12:04:55Z</time>
      </trkpt>
      <trkpt lat="47.05374" lon="4.13522">
        <ele>387.55</ele>
        <time>2021-08-12T12:04:56Z</time>
      </trkpt>
      <trkpt lat="47.0537" lon="4.13528">
        <ele>387.55</ele>
        <time>2021-08-12T12:04:57Z</time>
      </trkpt>
      <trkpt lat="47.05366" lon="4.13535">
        <ele>387.07</ele>
        <time>2021-08-12T12:04:58Z</time>
      </trkpt>
      <trkpt lat="47.05363" lon="4.13543">
        <ele>386.59</ele>
        <time>2021-08-12T12:04:59Z</time>
      </trkpt>
      <trkpt lat="47.05348" lon="4.13581">
        <ele>385.63</ele>
        <time>2021-08-12T12:05:04Z</time>
      </trkpt>
      <trkpt lat="47.05344" lon="4.13595">
        <ele>385.15</ele>
        <time>2021-08-12T12:05:06Z</time>
      </trkpt>
      <trkpt lat="47.0534" lon="4.13608">
        <ele>384.66</ele>
        <time>2021-08-12T12:05:08Z</time>
      </trkpt>
      <trkpt lat="47.05338" lon="4.13615">
        <ele>384.66</ele>
        <time>2021-08-12T12:05:09Z</time>
      </trkpt>
      <trkpt lat="47.05337" lon="4.13621">
        <ele>384.18</ele>
        <time>2021-08-12T12:05:10Z</time>
      </trkpt>
      <trkpt lat="47.05335" lon="4.13652">
        <ele>386.11</ele>
        <time>2021-08-12T12:05:16Z</time>
      </trkpt>
      <trkpt lat="47.05335" lon="4.13677">
        <ele>388.03</ele>
        <time>2021-08-12T12:05:23Z</time>
      </trkpt>
      <trkpt lat="47.05336" lon="4.13697">
        <ele>388.03</ele>
        <time>2021-08-12T12:05:29Z</time>
      </trkpt>
      <trkpt lat="47.05338" lon="4.1373">
        <ele>387.55</ele>
        <time>2021-08-12T12:05:36Z</time>
      </trkpt>
      <trkpt lat="47.05348" lon="4.13762">
        <ele>389.47</ele>
        <time>2021-08-12T12:05:44Z</time>
      </trkpt>
      <trkpt lat="47.05355" lon="4.13788">
        <ele>389.95</ele>
        <time>2021-08-12T12:05:51Z</time>
      </trkpt>
      <trkpt lat="47.05355" lon="4.13828">
        <ele>387.55</ele>
        <time>2021-08-12T12:05:57Z</time>
      </trkpt>
      <trkpt lat="47.05354" lon="4.13841">
        <ele>387.55</ele>
        <time>2021-08-12T12:05:59Z</time>
      </trkpt>
      <trkpt lat="47.05354" lon="4.13848">
        <ele>387.55</ele>
        <time>2021-08-12T12:06:00Z</time>
      </trkpt>
      <trkpt lat="47.05353" lon="4.13854">
        <ele>387.07</ele>
        <time>2021-08-12T12:06:01Z</time>
      </trkpt>
      <trkpt lat="47.05353" lon="4.13913">
        <ele>387.07</ele>
        <time>2021-08-12T12:06:10Z</time>
      </trkpt>
      <trkpt lat="47.0535" lon="4.1396">
        <ele>386.59</ele>
        <time>2021-08-12T12:06:17Z</time>
      </trkpt>
      <trkpt lat="47.05348" lon="4.13997">
        <ele>385.63</ele>
        <time>2021-08-12T12:06:22Z</time>
      </trkpt>
      <trkpt lat="47.05348" lon="4.14004">
        <ele>385.15</ele>
        <time>2021-08-12T12:06:23Z</time>
      </trkpt>
      <trkpt lat="47.0534" lon="4.14067">
        <ele>384.66</ele>
        <time>2021-08-12T12:06:31Z</time>
      </trkpt>
      <trkpt lat="47.05329" lon="4.14141">
        <ele>384.18</ele>
        <time>2021-08-12T12:06:40Z</time>
      </trkpt>
      <trkpt lat="47.05322" lon="4.14192">
        <ele>383.7</ele>
        <time>2021-08-12T12:06:48Z</time>
      </trkpt>
      <trkpt lat="47.05316" lon="4.14227">
        <ele>384.18</ele>
        <time>2021-08-12T12:06:54Z</time>
      </trkpt>
      <trkpt lat="47.05312" lon="4.14249">
        <ele>382.74</ele>
        <time>2021-08-12T12:06:57Z</time>
      </trkpt>
      <trkpt lat="47.05309" lon="4.14273">
        <ele>382.74</ele>
        <time>2021-08-12T12:07:00Z</time>
      </trkpt>
      <trkpt lat="47.05302" lon="4.14323">
        <ele>382.74</ele>
        <time>2021-08-12T12:07:07Z</time>
      </trkpt>
      <trkpt lat="47.05291" lon="4.14376">
        <ele>382.26</ele>
        <time>2021-08-12T12:07:15Z</time>
      </trkpt>
      <trkpt lat="47.05288" lon="4.1439">
        <ele>382.26</ele>
        <time>2021-08-12T12:07:17Z</time>
      </trkpt>
      <trkpt lat="47.05279" lon="4.14444">
        <ele>382.26</ele>
        <time>2021-08-12T12:07:25Z</time>
      </trkpt>
      <trkpt lat="47.05276" lon="4.1447">
        <ele>381.78</ele>
        <time>2021-08-12T12:07:29Z</time>
      </trkpt>
      <trkpt lat="47.05267" lon="4.14526">
        <ele>381.3</ele>
        <time>2021-08-12T12:07:38Z</time>
      </trkpt>
      <trkpt lat="47.05261" lon="4.14572">
        <ele>383.7</ele>
        <time>2021-08-12T12:07:47Z</time>
      </trkpt>
      <trkpt lat="47.05253" lon="4.14601">
        <ele>383.7</ele>
        <time>2021-08-12T12:07:53Z</time>
      </trkpt>
      <trkpt lat="47.05245" lon="4.14638">
        <ele>383.22</ele>
        <time>2021-08-12T12:07:59Z</time>
      </trkpt>
      <trkpt lat="47.05244" lon="4.14644">
        <ele>383.22</ele>
        <time>2021-08-12T12:08:00Z</time>
      </trkpt>
      <trkpt lat="47.05242" lon="4.1465">
        <ele>383.22</ele>
        <time>2021-08-12T12:08:01Z</time>
      </trkpt>
      <trkpt lat="47.05235" lon="4.14676">
        <ele>381.78</ele>
        <time>2021-08-12T12:08:05Z</time>
      </trkpt>
      <trkpt lat="47.05221" lon="4.14736">
        <ele>381.3</ele>
        <time>2021-08-12T12:08:14Z</time>
      </trkpt>
      <trkpt lat="47.05212" lon="4.14785">
        <ele>381.3</ele>
        <time>2021-08-12T12:08:22Z</time>
      </trkpt>
      <trkpt lat="47.0521" lon="4.14797">
        <ele>381.3</ele>
        <time>2021-08-12T12:08:24Z</time>
      </trkpt>
      <trkpt lat="47.05208" lon="4.14844">
        <ele>380.82</ele>
        <time>2021-08-12T12:08:31Z</time>
      </trkpt>
      <trkpt lat="47.05206" lon="4.149">
        <ele>380.34</ele>
        <time>2021-08-12T12:08:40Z</time>
      </trkpt>
      <trkpt lat="47.05205" lon="4.14954">
        <ele>378.9</ele>
        <time>2021-08-12T12:08:49Z</time>
      </trkpt>
      <trkpt lat="47.05203" lon="4.1499">
        <ele>377.45</ele>
        <time>2021-08-12T12:08:55Z</time>
      </trkpt>
      <trkpt lat="47.05203" lon="4.15052">
        <ele>376.01</ele>
        <time>2021-08-12T12:09:03Z</time>
      </trkpt>
      <trkpt lat="47.05197" lon="4.151">
        <ele>375.05</ele>
        <time>2021-08-12T12:09:09Z</time>
      </trkpt>
      <trkpt lat="47.0518" lon="4.15154">
        <ele>373.13</ele>
        <time>2021-08-12T12:09:16Z</time>
      </trkpt>
      <trkpt lat="47.05165" lon="4.15195">
        <ele>373.13</ele>
        <time>2021-08-12T12:09:22Z</time>
      </trkpt>
      <trkpt lat="47.05152" lon="4.15237">
        <ele>373.13</ele>
        <time>2021-08-12T12:09:28Z</time>
      </trkpt>
      <trkpt lat="47.0515" lon="4.15244">
        <ele>373.13</ele>
        <time>2021-08-12T12:09:29Z</time>
      </trkpt>
      <trkpt lat="47.05147" lon="4.15265">
        <ele>372.65</ele>
        <time>2021-08-12T12:09:32Z</time>
      </trkpt>
      <trkpt lat="47.05146" lon="4.15273">
        <ele>372.65</ele>
        <time>2021-08-12T12:09:33Z</time>
      </trkpt>
      <trkpt lat="47.05141" lon="4.15327">
        <ele>371.69</ele>
        <time>2021-08-12T12:09:40Z</time>
      </trkpt>
      <trkpt lat="47.05141" lon="4.15335">
        <ele>371.69</ele>
        <time>2021-08-12T12:09:41Z</time>
      </trkpt>
      <trkpt lat="47.05136" lon="4.15401">
        <ele>371.21</ele>
        <time>2021-08-12T12:09:50Z</time>
      </trkpt>
      <trkpt lat="47.05135" lon="4.1542">
        <ele>370.73</ele>
        <time>2021-08-12T12:09:53Z</time>
      </trkpt>
      <trkpt lat="47.05135" lon="4.15427">
        <ele>370.73</ele>
        <time>2021-08-12T12:09:54Z</time>
      </trkpt>
      <trkpt lat="47.05132" lon="4.15474">
        <ele>370.73</ele>
        <time>2021-08-12T12:10:01Z</time>
      </trkpt>
      <trkpt lat="47.0513" lon="4.15495">
        <ele>370.73</ele>
        <time>2021-08-12T12:10:04Z</time>
      </trkpt>
      <trkpt lat="47.05126" lon="4.15539">
        <ele>372.17</ele>
        <time>2021-08-12T12:10:11Z</time>
      </trkpt>
      <trkpt lat="47.05123" lon="4.15568">
        <ele>372.17</ele>
        <time>2021-08-12T12:10:16Z</time>
      </trkpt>
      <trkpt lat="47.05119" lon="4.15616">
        <ele>373.13</ele>
        <time>2021-08-12T12:10:25Z</time>
      </trkpt>
      <trkpt lat="47.05116" lon="4.15648">
        <ele>374.09</ele>
        <time>2021-08-12T12:10:33Z</time>
      </trkpt>
      <trkpt lat="47.05113" lon="4.15675">
        <ele>374.57</ele>
        <time>2021-08-12T12:10:41Z</time>
      </trkpt>
      <trkpt lat="47.05103" lon="4.15694">
        <ele>375.05</ele>
        <time>2021-08-12T12:10:48Z</time>
      </trkpt>
      <trkpt lat="47.05088" lon="4.15708">
        <ele>373.61</ele>
        <time>2021-08-12T12:10:53Z</time>
      </trkpt>
      <trkpt lat="47.05061" lon="4.15736">
        <ele>373.61</ele>
        <time>2021-08-12T12:11:01Z</time>
      </trkpt>
      <trkpt lat="47.05047" lon="4.1575">
        <ele>372.65</ele>
        <time>2021-08-12T12:11:05Z</time>
      </trkpt>
      <trkpt lat="47.05006" lon="4.1579">
        <ele>372.65</ele>
        <time>2021-08-12T12:11:16Z</time>
      </trkpt>
      <trkpt lat="47.04969" lon="4.15825">
        <ele>372.65</ele>
        <time>2021-08-12T12:11:26Z</time>
      </trkpt>
      <trkpt lat="47.04949" lon="4.15845">
        <ele>372.65</ele>
        <time>2021-08-12T12:11:32Z</time>
      </trkpt>
      <trkpt lat="47.04946" lon="4.15849">
        <ele>372.65</ele>
        <time>2021-08-12T12:11:33Z</time>
      </trkpt>
      <trkpt lat="47.04942" lon="4.15853">
        <ele>372.65</ele>
        <time>2021-08-12T12:11:34Z</time>
      </trkpt>
      <trkpt lat="47.04939" lon="4.15858">
        <ele>372.65</ele>
        <time>2021-08-12T12:11:35Z</time>
      </trkpt>
      <trkpt lat="47.04938" lon="4.15865">
        <ele>372.65</ele>
        <time>2021-08-12T12:11:36Z</time>
      </trkpt>
      <trkpt lat="47.04938" lon="4.1587">
        <ele>372.65</ele>
        <time>2021-08-12T12:11:37Z</time>
      </trkpt>
      <trkpt lat="47.04933" lon="4.15889">
        <ele>374.09</ele>
        <time>2021-08-12T12:11:41Z</time>
      </trkpt>
      <trkpt lat="47.0492" lon="4.15922">
        <ele>375.53</ele>
        <time>2021-08-12T12:11:50Z</time>
      </trkpt>
      <trkpt lat="47.04901" lon="4.15951">
        <ele>376.01</ele>
        <time>2021-08-12T12:12:00Z</time>
      </trkpt>
      <trkpt lat="47.04875" lon="4.15982">
        <ele>377.45</ele>
        <time>2021-08-12T12:12:12Z</time>
      </trkpt>
      <trkpt lat="47.04862" lon="4.15997">
        <ele>378.42</ele>
        <time>2021-08-12T12:12:18Z</time>
      </trkpt>
      <trkpt lat="47.04845" lon="4.16017">
        <ele>378.9</ele>
        <time>2021-08-12T12:12:26Z</time>
      </trkpt>
      <trkpt lat="47.04825" lon="4.1604">
        <ele>378.9</ele>
        <time>2021-08-12T12:12:35Z</time>
      </trkpt>
      <trkpt lat="47.048" lon="4.16066">
        <ele>379.38</ele>
        <time>2021-08-12T12:12:44Z</time>
      </trkpt>
      <trkpt lat="47.04785" lon="4.16078">
        <ele>379.38</ele>
        <time>2021-08-12T12:12:48Z</time>
      </trkpt>
      <trkpt lat="47.04781" lon="4.1608">
        <ele>379.38</ele>
        <time>2021-08-12T12:12:49Z</time>
      </trkpt>
      <trkpt lat="47.04771" lon="4.16084">
        <ele>377.94</ele>
        <time>2021-08-12T12:12:51Z</time>
      </trkpt>
      <trkpt lat="47.04734" lon="4.16097">
        <ele>375.53</ele>
        <time>2021-08-12T12:12:57Z</time>
      </trkpt>
      <trkpt lat="47.04728" lon="4.16098">
        <ele>375.53</ele>
        <time>2021-08-12T12:12:58Z</time>
      </trkpt>
      <trkpt lat="47.04711" lon="4.16099">
        <ele>375.53</ele>
        <time>2021-08-12T12:13:01Z</time>
      </trkpt>
      <trkpt lat="47.04701" lon="4.16098">
        <ele>375.53</ele>
        <time>2021-08-12T12:13:03Z</time>
      </trkpt>
      <trkpt lat="47.04665" lon="4.16099">
        <ele>376.49</ele>
        <time>2021-08-12T12:13:11Z</time>
      </trkpt>
      <trkpt lat="47.04656" lon="4.16102">
        <ele>376.49</ele>
        <time>2021-08-12T12:13:13Z</time>
      </trkpt>
      <trkpt lat="47.04614" lon="4.16117">
        <ele>376.49</ele>
        <time>2021-08-12T12:13:22Z</time>
      </trkpt>
      <trkpt lat="47.04595" lon="4.16125">
        <ele>375.53</ele>
        <time>2021-08-12T12:13:26Z</time>
      </trkpt>
      <trkpt lat="47.04564" lon="4.16137">
        <ele>374.57</ele>
        <time>2021-08-12T12:13:32Z</time>
      </trkpt>
      <trkpt lat="47.04558" lon="4.16141">
        <ele>374.57</ele>
        <time>2021-08-12T12:13:33Z</time>
      </trkpt>
      <trkpt lat="47.04501" lon="4.1617">
        <ele>374.09</ele>
        <time>2021-08-12T12:13:44Z</time>
      </trkpt>
      <trkpt lat="47.04454" lon="4.16204">
        <ele>373.13</ele>
        <time>2021-08-12T12:13:54Z</time>
      </trkpt>
      <trkpt lat="47.04409" lon="4.16241">
        <ele>372.65</ele>
        <time>2021-08-12T12:14:04Z</time>
      </trkpt>
      <trkpt lat="47.04378" lon="4.16269">
        <ele>372.17</ele>
        <time>2021-08-12T12:14:11Z</time>
      </trkpt>
      <trkpt lat="47.04362" lon="4.16284">
        <ele>372.17</ele>
        <time>2021-08-12T12:14:15Z</time>
      </trkpt>
      <trkpt lat="47.04355" lon="4.16292">
        <ele>372.17</ele>
        <time>2021-08-12T12:14:17Z</time>
      </trkpt>
      <trkpt lat="47.04324" lon="4.16316">
        <ele>370.73</ele>
        <time>2021-08-12T12:14:24Z</time>
      </trkpt>
      <trkpt lat="47.04282" lon="4.16352">
        <ele>370.73</ele>
        <time>2021-08-12T12:14:33Z</time>
      </trkpt>
      <trkpt lat="47.04245" lon="4.16384">
        <ele>369.28</ele>
        <time>2021-08-12T12:14:41Z</time>
      </trkpt>
      <trkpt lat="47.04224" lon="4.16401">
        <ele>368.8</ele>
        <time>2021-08-12T12:14:45Z</time>
      </trkpt>
      <trkpt lat="47.04214" lon="4.16411">
        <ele>367.84</ele>
        <time>2021-08-12T12:14:47Z</time>
      </trkpt>
      <trkpt lat="47.04163" lon="4.16453">
        <ele>366.4</ele>
        <time>2021-08-12T12:14:56Z</time>
      </trkpt>
      <trkpt lat="47.04129" lon="4.16481">
        <ele>365.92</ele>
        <time>2021-08-12T12:15:02Z</time>
      </trkpt>
      <trkpt lat="47.04087" lon="4.16514">
        <ele>365.92</ele>
        <time>2021-08-12T12:15:10Z</time>
      </trkpt>
      <trkpt lat="47.04035" lon="4.16553">
        <ele>364</ele>
        <time>2021-08-12T12:15:19Z</time>
      </trkpt>
      <trkpt lat="47.0399" lon="4.16586">
        <ele>362.07</ele>
        <time>2021-08-12T12:15:26Z</time>
      </trkpt>
      <trkpt lat="47.03931" lon="4.16632">
        <ele>361.59</ele>
        <time>2021-08-12T12:15:35Z</time>
      </trkpt>
      <trkpt lat="47.03882" lon="4.16667">
        <ele>361.11</ele>
        <time>2021-08-12T12:15:43Z</time>
      </trkpt>
      <trkpt lat="47.03843" lon="4.16689">
        <ele>361.11</ele>
        <time>2021-08-12T12:15:50Z</time>
      </trkpt>
      <trkpt lat="47.03827" lon="4.16701">
        <ele>362.55</ele>
        <time>2021-08-12T12:15:54Z</time>
      </trkpt>
      <trkpt lat="47.03806" lon="4.16723">
        <ele>363.52</ele>
        <time>2021-08-12T12:16:01Z</time>
      </trkpt>
      <trkpt lat="47.03771" lon="4.16763">
        <ele>363.52</ele>
        <time>2021-08-12T12:16:12Z</time>
      </trkpt>
      <trkpt lat="47.03723" lon="4.16807">
        <ele>362.55</ele>
        <time>2021-08-12T12:16:24Z</time>
      </trkpt>
      <trkpt lat="47.03684" lon="4.16832">
        <ele>362.07</ele>
        <time>2021-08-12T12:16:33Z</time>
      </trkpt>
      <trkpt lat="47.03679" lon="4.16834">
        <ele>362.07</ele>
        <time>2021-08-12T12:16:34Z</time>
      </trkpt>
      <trkpt lat="47.03639" lon="4.16862">
        <ele>361.59</ele>
        <time>2021-08-12T12:16:44Z</time>
      </trkpt>
      <trkpt lat="47.0362" lon="4.1688">
        <ele>361.59</ele>
        <time>2021-08-12T12:16:49Z</time>
      </trkpt>
      <trkpt lat="47.03592" lon="4.16915">
        <ele>361.59</ele>
        <time>2021-08-12T12:16:57Z</time>
      </trkpt>
      <trkpt lat="47.03568" lon="4.16957">
        <ele>361.59</ele>
        <time>2021-08-12T12:17:05Z</time>
      </trkpt>
      <trkpt lat="47.03566" lon="4.16963">
        <ele>361.59</ele>
        <time>2021-08-12T12:17:06Z</time>
      </trkpt>
      <trkpt lat="47.03564" lon="4.16968">
        <ele>361.59</ele>
        <time>2021-08-12T12:17:07Z</time>
      </trkpt>
      <trkpt lat="47.03541" lon="4.17021">
        <ele>361.59</ele>
        <time>2021-08-12T12:17:16Z</time>
      </trkpt>
      <trkpt lat="47.03535" lon="4.17033">
        <ele>361.59</ele>
        <time>2021-08-12T12:17:18Z</time>
      </trkpt>
      <trkpt lat="47.03526" lon="4.1705">
        <ele>361.59</ele>
        <time>2021-08-12T12:17:21Z</time>
      </trkpt>
      <trkpt lat="47.03483" lon="4.17119">
        <ele>361.59</ele>
        <time>2021-08-12T12:17:34Z</time>
      </trkpt>
      <trkpt lat="47.03454" lon="4.1716">
        <ele>361.59</ele>
        <time>2021-08-12T12:17:42Z</time>
      </trkpt>
      <trkpt lat="47.03418" lon="4.17185">
        <ele>361.11</ele>
        <time>2021-08-12T12:17:50Z</time>
      </trkpt>
      <trkpt lat="47.03387" lon="4.17201">
        <ele>362.55</ele>
        <time>2021-08-12T12:17:58Z</time>
      </trkpt>
      <trkpt lat="47.0336" lon="4.1722">
        <ele>363.52</ele>
        <time>2021-08-12T12:18:06Z</time>
      </trkpt>
      <trkpt lat="47.03332" lon="4.17244">
        <ele>364.48</ele>
        <time>2021-08-12T12:18:15Z</time>
      </trkpt>
      <trkpt lat="47.03297" lon="4.17277">
        <ele>364.96</ele>
        <time>2021-08-12T12:18:26Z</time>
      </trkpt>
      <trkpt lat="47.03257" lon="4.17311">
        <ele>365.44</ele>
        <time>2021-08-12T12:18:38Z</time>
      </trkpt>
      <trkpt lat="47.03226" lon="4.17333">
        <ele>365.44</ele>
        <time>2021-08-12T12:18:46Z</time>
      </trkpt>
      <trkpt lat="47.03207" lon="4.17344">
        <ele>364</ele>
        <time>2021-08-12T12:18:50Z</time>
      </trkpt>
      <trkpt lat="47.03165" lon="4.17362">
        <ele>362.55</ele>
        <time>2021-08-12T12:18:58Z</time>
      </trkpt>
      <trkpt lat="47.03121" lon="4.17376">
        <ele>362.55</ele>
        <time>2021-08-12T12:19:06Z</time>
      </trkpt>
      <trkpt lat="47.03117" lon="4.17378">
        <ele>361.59</ele>
        <time>2021-08-12T12:19:07Z</time>
      </trkpt>
      <trkpt lat="47.03106" lon="4.17381">
        <ele>361.59</ele>
        <time>2021-08-12T12:19:09Z</time>
      </trkpt>
      <trkpt lat="47.03084" lon="4.17384">
        <ele>361.11</ele>
        <time>2021-08-12T12:19:13Z</time>
      </trkpt>
      <trkpt lat="47.03079" lon="4.17383">
        <ele>361.11</ele>
        <time>2021-08-12T12:19:14Z</time>
      </trkpt>
      <trkpt lat="47.03041" lon="4.17385">
        <ele>361.11</ele>
        <time>2021-08-12T12:19:21Z</time>
      </trkpt>
      <trkpt lat="47.03007" lon="4.17394">
        <ele>360.63</ele>
        <time>2021-08-12T12:19:27Z</time>
      </trkpt>
      <trkpt lat="47.02965" lon="4.17415">
        <ele>360.63</ele>
        <time>2021-08-12T12:19:35Z</time>
      </trkpt>
      <trkpt lat="47.02913" lon="4.17435">
        <ele>360.15</ele>
        <time>2021-08-12T12:19:45Z</time>
      </trkpt>
      <trkpt lat="47.02861" lon="4.1744">
        <ele>357.75</ele>
        <time>2021-08-12T12:19:54Z</time>
      </trkpt>
      <trkpt lat="47.02814" lon="4.17443">
        <ele>355.34</ele>
        <time>2021-08-12T12:20:01Z</time>
      </trkpt>
      <trkpt lat="47.02807" lon="4.17443">
        <ele>355.34</ele>
        <time>2021-08-12T12:20:02Z</time>
      </trkpt>
      <trkpt lat="47.02785" lon="4.17448">
        <ele>353.9</ele>
        <time>2021-08-12T12:20:05Z</time>
      </trkpt>
      <trkpt lat="47.02748" lon="4.17467">
        <ele>351.02</ele>
        <time>2021-08-12T12:20:10Z</time>
      </trkpt>
      <trkpt lat="47.02741" lon="4.17473">
        <ele>350.54</ele>
        <time>2021-08-12T12:20:11Z</time>
      </trkpt>
      <trkpt lat="47.02689" lon="4.17528">
        <ele>349.58</ele>
        <time>2021-08-12T12:20:19Z</time>
      </trkpt>
      <trkpt lat="47.02652" lon="4.17588">
        <ele>349.58</ele>
        <time>2021-08-12T12:20:27Z</time>
      </trkpt>
      <trkpt lat="47.02623" lon="4.17655">
        <ele>349.58</ele>
        <time>2021-08-12T12:20:36Z</time>
      </trkpt>
      <trkpt lat="47.02601" lon="4.17705">
        <ele>349.58</ele>
        <time>2021-08-12T12:20:43Z</time>
      </trkpt>
      <trkpt lat="47.02597" lon="4.17712">
        <ele>349.58</ele>
        <time>2021-08-12T12:20:44Z</time>
      </trkpt>
      <trkpt lat="47.02593" lon="4.17718">
        <ele>349.58</ele>
        <time>2021-08-12T12:20:45Z</time>
      </trkpt>
      <trkpt lat="47.02588" lon="4.17724">
        <ele>349.58</ele>
        <time>2021-08-12T12:20:46Z</time>
      </trkpt>
      <trkpt lat="47.02583" lon="4.17729">
        <ele>349.58</ele>
        <time>2021-08-12T12:20:47Z</time>
      </trkpt>
      <trkpt lat="47.02572" lon="4.17738">
        <ele>349.1</ele>
        <time>2021-08-12T12:20:49Z</time>
      </trkpt>
      <trkpt lat="47.0256" lon="4.17745">
        <ele>349.1</ele>
        <time>2021-08-12T12:20:51Z</time>
      </trkpt>
      <trkpt lat="47.02554" lon="4.17748">
        <ele>348.62</ele>
        <time>2021-08-12T12:20:52Z</time>
      </trkpt>
      <trkpt lat="47.02547" lon="4.17749">
        <ele>348.62</ele>
        <time>2021-08-12T12:20:53Z</time>
      </trkpt>
      <trkpt lat="47.0254" lon="4.1775">
        <ele>348.62</ele>
        <time>2021-08-12T12:20:54Z</time>
      </trkpt>
      <trkpt lat="47.02533" lon="4.1775">
        <ele>348.62</ele>
        <time>2021-08-12T12:20:55Z</time>
      </trkpt>
      <trkpt lat="47.0252" lon="4.17749">
        <ele>348.13</ele>
        <time>2021-08-12T12:20:57Z</time>
      </trkpt>
      <trkpt lat="47.02474" lon="4.17734">
        <ele>348.13</ele>
        <time>2021-08-12T12:21:05Z</time>
      </trkpt>
      <trkpt lat="47.02438" lon="4.17703">
        <ele>348.13</ele>
        <time>2021-08-12T12:21:13Z</time>
      </trkpt>
      <trkpt lat="47.02433" lon="4.177">
        <ele>348.13</ele>
        <time>2021-08-12T12:21:14Z</time>
      </trkpt>
      <trkpt lat="47.02409" lon="4.17686">
        <ele>348.13</ele>
        <time>2021-08-12T12:21:19Z</time>
      </trkpt>
      <trkpt lat="47.02405" lon="4.17685">
        <ele>348.13</ele>
        <time>2021-08-12T12:21:20Z</time>
      </trkpt>
      <trkpt lat="47.024" lon="4.17684">
        <ele>349.1</ele>
        <time>2021-08-12T12:21:21Z</time>
      </trkpt>
      <trkpt lat="47.02385" lon="4.17683">
        <ele>349.1</ele>
        <time>2021-08-12T12:21:24Z</time>
      </trkpt>
      <trkpt lat="47.02381" lon="4.17684">
        <ele>349.58</ele>
        <time>2021-08-12T12:21:25Z</time>
      </trkpt>
      <trkpt lat="47.02376" lon="4.17684">
        <ele>349.58</ele>
        <time>2021-08-12T12:21:26Z</time>
      </trkpt>
      <trkpt lat="47.02372" lon="4.17685">
        <ele>349.58</ele>
        <time>2021-08-12T12:21:27Z</time>
      </trkpt>
      <trkpt lat="47.02367" lon="4.17686">
        <ele>349.58</ele>
        <time>2021-08-12T12:21:28Z</time>
      </trkpt>
      <trkpt lat="47.02316" lon="4.17698">
        <ele>350.06</ele>
        <time>2021-08-12T12:21:39Z</time>
      </trkpt>
      <trkpt lat="47.02277" lon="4.17711">
        <ele>351.02</ele>
        <time>2021-08-12T12:21:48Z</time>
      </trkpt>
      <trkpt lat="47.02238" lon="4.17734">
        <ele>351.02</ele>
        <time>2021-08-12T12:21:57Z</time>
      </trkpt>
      <trkpt lat="47.02191" lon="4.17774">
        <ele>350.54</ele>
        <time>2021-08-12T12:22:08Z</time>
      </trkpt>
      <trkpt lat="47.02159" lon="4.17805">
        <ele>350.54</ele>
        <time>2021-08-12T12:22:16Z</time>
      </trkpt>
      <trkpt lat="47.02122" lon="4.17838">
        <ele>349.1</ele>
        <time>2021-08-12T12:22:25Z</time>
      </trkpt>
      <trkpt lat="47.02118" lon="4.17842">
        <ele>349.1</ele>
        <time>2021-08-12T12:22:26Z</time>
      </trkpt>
      <trkpt lat="47.02075" lon="4.17872">
        <ele>349.1</ele>
        <time>2021-08-12T12:22:36Z</time>
      </trkpt>
      <trkpt lat="47.02048" lon="4.17885">
        <ele>350.54</ele>
        <time>2021-08-12T12:22:42Z</time>
      </trkpt>
      <trkpt lat="47.02008" lon="4.17898">
        <ele>350.54</ele>
        <time>2021-08-12T12:22:51Z</time>
      </trkpt>
      <trkpt lat="47.01957" lon="4.17907">
        <ele>351.02</ele>
        <time>2021-08-12T12:23:02Z</time>
      </trkpt>
      <trkpt lat="47.01915" lon="4.17918">
        <ele>351.02</ele>
        <time>2021-08-12T12:23:11Z</time>
      </trkpt>
      <trkpt lat="47.01873" lon="4.17932">
        <ele>351.02</ele>
        <time>2021-08-12T12:23:19Z</time>
      </trkpt>
      <trkpt lat="47.01815" lon="4.17953">
        <ele>350.06</ele>
        <time>2021-08-12T12:23:30Z</time>
      </trkpt>
      <trkpt lat="47.01776" lon="4.17973">
        <ele>349.1</ele>
        <time>2021-08-12T12:23:38Z</time>
      </trkpt>
      <trkpt lat="47.0174" lon="4.17997">
        <ele>348.62</ele>
        <time>2021-08-12T12:23:46Z</time>
      </trkpt>
      <trkpt lat="47.01715" lon="4.1801">
        <ele>348.62</ele>
        <time>2021-08-12T12:23:51Z</time>
      </trkpt>
      <trkpt lat="47.01667" lon="4.18033">
        <ele>348.62</ele>
        <time>2021-08-12T12:24:01Z</time>
      </trkpt>
      <trkpt lat="47.01632" lon="4.18055">
        <ele>348.62</ele>
        <time>2021-08-12T12:24:08Z</time>
      </trkpt>
      <trkpt lat="47.01628" lon="4.18057">
        <ele>348.62</ele>
        <time>2021-08-12T12:24:09Z</time>
      </trkpt>
      <trkpt lat="47.01623" lon="4.18061">
        <ele>348.62</ele>
        <time>2021-08-12T12:24:10Z</time>
      </trkpt>
      <trkpt lat="47.01588" lon="4.18094">
        <ele>348.62</ele>
        <time>2021-08-12T12:24:18Z</time>
      </trkpt>
      <trkpt lat="47.01541" lon="4.18139">
        <ele>348.62</ele>
        <time>2021-08-12T12:24:29Z</time>
      </trkpt>
      <trkpt lat="47.0153" lon="4.18149">
        <ele>348.62</ele>
        <time>2021-08-12T12:24:33Z</time>
      </trkpt>
      <trkpt lat="47.0153" lon="4.18153">
        <ele>348.62</ele>
        <time>2021-08-12T12:24:34Z</time>
      </trkpt>
      <trkpt lat="47.01531" lon="4.18158">
        <ele>348.62</ele>
        <time>2021-08-12T12:24:35Z</time>
      </trkpt>
      <trkpt lat="47.01541" lon="4.18189">
        <ele>347.65</ele>
        <time>2021-08-12T12:24:41Z</time>
      </trkpt>
      <trkpt lat="47.01556" lon="4.18234">
        <ele>347.17</ele>
        <time>2021-08-12T12:24:48Z</time>
      </trkpt>
      <trkpt lat="47.01573" lon="4.1829">
        <ele>346.21</ele>
        <time>2021-08-12T12:24:56Z</time>
      </trkpt>
      <trkpt lat="47.01596" lon="4.1836">
        <ele>344.29</ele>
        <time>2021-08-12T12:25:05Z</time>
      </trkpt>
      <trkpt lat="47.01616" lon="4.18427">
        <ele>341.41</ele>
        <time>2021-08-12T12:25:12Z</time>
      </trkpt>
      <trkpt lat="47.01632" lon="4.18495">
        <ele>340.92</ele>
        <time>2021-08-12T12:25:19Z</time>
      </trkpt>
      <trkpt lat="47.01653" lon="4.18576">
        <ele>339.96</ele>
        <time>2021-08-12T12:25:28Z</time>
      </trkpt>
      <trkpt lat="47.01667" lon="4.18629">
        <ele>339.48</ele>
        <time>2021-08-12T12:25:34Z</time>
      </trkpt>
      <trkpt lat="47.0167" lon="4.18637">
        <ele>339.48</ele>
        <time>2021-08-12T12:25:35Z</time>
      </trkpt>
      <trkpt lat="47.01705" lon="4.18699">
        <ele>339.48</ele>
        <time>2021-08-12T12:25:44Z</time>
      </trkpt>
      <trkpt lat="47.01729" lon="4.1875">
        <ele>339.48</ele>
        <time>2021-08-12T12:25:52Z</time>
      </trkpt>
      <trkpt lat="47.01731" lon="4.18757">
        <ele>339.48</ele>
        <time>2021-08-12T12:25:53Z</time>
      </trkpt>
      <trkpt lat="47.01736" lon="4.18777">
        <ele>340.92</ele>
        <time>2021-08-12T12:25:56Z</time>
      </trkpt>
      <trkpt lat="47.01745" lon="4.18836">
        <ele>340.92</ele>
        <time>2021-08-12T12:26:04Z</time>
      </trkpt>
      <trkpt lat="47.01747" lon="4.18851">
        <ele>340.92</ele>
        <time>2021-08-12T12:26:06Z</time>
      </trkpt>
      <trkpt lat="47.01752" lon="4.1887">
        <ele>340.92</ele>
        <time>2021-08-12T12:26:09Z</time>
      </trkpt>
      <trkpt lat="47.01776" lon="4.18926">
        <ele>341.41</ele>
        <time>2021-08-12T12:26:19Z</time>
      </trkpt>
      <trkpt lat="47.01795" lon="4.1896">
        <ele>341.89</ele>
        <time>2021-08-12T12:26:26Z</time>
      </trkpt>
      <trkpt lat="47.01798" lon="4.18966">
        <ele>341.89</ele>
        <time>2021-08-12T12:26:27Z</time>
      </trkpt>
      <trkpt lat="47.0181" lon="4.19006">
        <ele>343.33</ele>
        <time>2021-08-12T12:26:35Z</time>
      </trkpt>
      <trkpt lat="47.01813" lon="4.19047">
        <ele>344.77</ele>
        <time>2021-08-12T12:26:43Z</time>
      </trkpt>
      <trkpt lat="47.01813" lon="4.19091">
        <ele>346.21</ele>
        <time>2021-08-12T12:26:52Z</time>
      </trkpt>
      <trkpt lat="47.01816" lon="4.19144">
        <ele>346.21</ele>
        <time>2021-08-12T12:27:02Z</time>
      </trkpt>
      <trkpt lat="47.01822" lon="4.19186">
        <ele>346.69</ele>
        <time>2021-08-12T12:27:10Z</time>
      </trkpt>
      <trkpt lat="47.01823" lon="4.19238">
        <ele>348.13</ele>
        <time>2021-08-12T12:27:20Z</time>
      </trkpt>
      <trkpt lat="47.01825" lon="4.19284">
        <ele>350.06</ele>
        <time>2021-08-12T12:27:30Z</time>
      </trkpt>
      <trkpt lat="47.01829" lon="4.19329">
        <ele>351.02</ele>
        <time>2021-08-12T12:27:39Z</time>
      </trkpt>
      <trkpt lat="47.01834" lon="4.19381">
        <ele>351.02</ele>
        <time>2021-08-12T12:27:48Z</time>
      </trkpt>
      <trkpt lat="47.0183" lon="4.19403">
        <ele>351.02</ele>
        <time>2021-08-12T12:27:52Z</time>
      </trkpt>
      <trkpt lat="47.01825" lon="4.19414">
        <ele>351.02</ele>
        <time>2021-08-12T12:27:54Z</time>
      </trkpt>
      <trkpt lat="47.01822" lon="4.19419">
        <ele>351.02</ele>
        <time>2021-08-12T12:27:55Z</time>
      </trkpt>
      <trkpt lat="47.01816" lon="4.19428">
        <ele>351.02</ele>
        <time>2021-08-12T12:27:57Z</time>
      </trkpt>
      <trkpt lat="47.01797" lon="4.19445">
        <ele>351.5</ele>
        <time>2021-08-12T12:28:03Z</time>
      </trkpt>
      <trkpt lat="47.01771" lon="4.19465">
        <ele>351.98</ele>
        <time>2021-08-12T12:28:11Z</time>
      </trkpt>
      <trkpt lat="47.01765" lon="4.19487">
        <ele>352.94</ele>
        <time>2021-08-12T12:28:17Z</time>
      </trkpt>
      <trkpt lat="47.01768" lon="4.19524">
        <ele>355.34</ele>
        <time>2021-08-12T12:28:27Z</time>
      </trkpt>
      <trkpt lat="47.01772" lon="4.19559">
        <ele>356.31</ele>
        <time>2021-08-12T12:28:37Z</time>
      </trkpt>
      <trkpt lat="47.01776" lon="4.19586">
        <ele>357.27</ele>
        <time>2021-08-12T12:28:45Z</time>
      </trkpt>
      <trkpt lat="47.01779" lon="4.19615">
        <ele>358.71</ele>
        <time>2021-08-12T12:28:54Z</time>
      </trkpt>
      <trkpt lat="47.01783" lon="4.19649">
        <ele>359.19</ele>
        <time>2021-08-12T12:29:04Z</time>
      </trkpt>
      <trkpt lat="47.01782" lon="4.19653">
        <ele>360.15</ele>
        <time>2021-08-12T12:29:05Z</time>
      </trkpt>
      <trkpt lat="47.01782" lon="4.19656">
        <ele>360.15</ele>
        <time>2021-08-12T12:29:06Z</time>
      </trkpt>
      <trkpt lat="47.0178" lon="4.19659">
        <ele>360.63</ele>
        <time>2021-08-12T12:29:07Z</time>
      </trkpt>
      <trkpt lat="47.01779" lon="4.19663">
        <ele>360.63</ele>
        <time>2021-08-12T12:29:08Z</time>
      </trkpt>
      <trkpt lat="47.01777" lon="4.19665">
        <ele>360.63</ele>
        <time>2021-08-12T12:29:09Z</time>
      </trkpt>
      <trkpt lat="47.01775" lon="4.19668">
        <ele>360.63</ele>
        <time>2021-08-12T12:29:10Z</time>
      </trkpt>
      <trkpt lat="47.01773" lon="4.19669">
        <ele>360.63</ele>
        <time>2021-08-12T12:29:11Z</time>
      </trkpt>
      <trkpt lat="47.01771" lon="4.19671">
        <ele>360.63</ele>
        <time>2021-08-12T12:29:12Z</time>
      </trkpt>
      <trkpt lat="47.01752" lon="4.19683">
        <ele>362.55</ele>
        <time>2021-08-12T12:29:21Z</time>
      </trkpt>
      <trkpt lat="47.01742" lon="4.19709">
        <ele>364.48</ele>
        <time>2021-08-12T12:29:30Z</time>
      </trkpt>
      <trkpt lat="47.01739" lon="4.19749">
        <ele>366.4</ele>
        <time>2021-08-12T12:29:42Z</time>
      </trkpt>
      <trkpt lat="47.01736" lon="4.1978">
        <ele>367.36</ele>
        <time>2021-08-12T12:29:51Z</time>
      </trkpt>
      <trkpt lat="47.01733" lon="4.19816">
        <ele>368.32</ele>
        <time>2021-08-12T12:30:02Z</time>
      </trkpt>
      <trkpt lat="47.0173" lon="4.19853">
        <ele>369.76</ele>
        <time>2021-08-12T12:30:13Z</time>
      </trkpt>
      <trkpt lat="47.01728" lon="4.19877">
        <ele>370.73</ele>
        <time>2021-08-12T12:30:20Z</time>
      </trkpt>
      <trkpt lat="47.01728" lon="4.19915">
        <ele>373.13</ele>
        <time>2021-08-12T12:30:31Z</time>
      </trkpt>
      <trkpt lat="47.01735" lon="4.19947">
        <ele>373.61</ele>
        <time>2021-08-12T12:30:40Z</time>
      </trkpt>
      <trkpt lat="47.01742" lon="4.19985">
        <ele>374.57</ele>
        <time>2021-08-12T12:30:49Z</time>
      </trkpt>
      <trkpt lat="47.01746" lon="4.20025">
        <ele>375.53</ele>
        <time>2021-08-12T12:30:57Z</time>
      </trkpt>
      <trkpt lat="47.0175" lon="4.2006">
        <ele>376.01</ele>
        <time>2021-08-12T12:31:04Z</time>
      </trkpt>
      <trkpt lat="47.01753" lon="4.20097">
        <ele>376.49</ele>
        <time>2021-08-12T12:31:11Z</time>
      </trkpt>
      <trkpt lat="47.01756" lon="4.20135">
        <ele>376.49</ele>
        <time>2021-08-12T12:31:18Z</time>
      </trkpt>
      <trkpt lat="47.01761" lon="4.20171">
        <ele>376.97</ele>
        <time>2021-08-12T12:31:25Z</time>
      </trkpt>
      <trkpt lat="47.01764" lon="4.20193">
        <ele>377.45</ele>
        <time>2021-08-12T12:31:30Z</time>
      </trkpt>
      <trkpt lat="47.01763" lon="4.20221">
        <ele>377.45</ele>
        <time>2021-08-12T12:31:36Z</time>
      </trkpt>
      <trkpt lat="47.01762" lon="4.20245">
        <ele>376.01</ele>
        <time>2021-08-12T12:31:40Z</time>
      </trkpt>
      <trkpt lat="47.01762" lon="4.20252">
        <ele>375.53</ele>
        <time>2021-08-12T12:31:41Z</time>
      </trkpt>
      <trkpt lat="47.01763" lon="4.20259">
        <ele>375.53</ele>
        <time>2021-08-12T12:31:42Z</time>
      </trkpt>
      <trkpt lat="47.01767" lon="4.20272">
        <ele>375.53</ele>
        <time>2021-08-12T12:31:44Z</time>
      </trkpt>
      <trkpt lat="47.0177" lon="4.20278">
        <ele>375.05</ele>
        <time>2021-08-12T12:31:45Z</time>
      </trkpt>
      <trkpt lat="47.01776" lon="4.20289">
        <ele>375.05</ele>
        <time>2021-08-12T12:31:47Z</time>
      </trkpt>
      <trkpt lat="47.01813" lon="4.20335">
        <ele>373.61</ele>
        <time>2021-08-12T12:31:56Z</time>
      </trkpt>
      <trkpt lat="47.01847" lon="4.20375">
        <ele>372.65</ele>
        <time>2021-08-12T12:32:04Z</time>
      </trkpt>
      <trkpt lat="47.01888" lon="4.20417">
        <ele>372.17</ele>
        <time>2021-08-12T12:32:13Z</time>
      </trkpt>
      <trkpt lat="47.01907" lon="4.20431">
        <ele>372.17</ele>
        <time>2021-08-12T12:32:17Z</time>
      </trkpt>
      <trkpt lat="47.0191" lon="4.20436">
        <ele>372.17</ele>
        <time>2021-08-12T12:32:18Z</time>
      </trkpt>
      <trkpt lat="47.01912" lon="4.20443">
        <ele>371.69</ele>
        <time>2021-08-12T12:32:19Z</time>
      </trkpt>
      <trkpt lat="47.01913" lon="4.20452">
        <ele>370.73</ele>
        <time>2021-08-12T12:32:20Z</time>
      </trkpt>
      <trkpt lat="47.01913" lon="4.20461">
        <ele>370.24</ele>
        <time>2021-08-12T12:32:21Z</time>
      </trkpt>
      <trkpt lat="47.01912" lon="4.20471">
        <ele>369.76</ele>
        <time>2021-08-12T12:32:22Z</time>
      </trkpt>
      <trkpt lat="47.0191" lon="4.20482">
        <ele>368.32</ele>
        <time>2021-08-12T12:32:23Z</time>
      </trkpt>
      <trkpt lat="47.01904" lon="4.20519">
        <ele>365.44</ele>
        <time>2021-08-12T12:32:26Z</time>
      </trkpt>
      <trkpt lat="47.01894" lon="4.20563">
        <ele>361.59</ele>
        <time>2021-08-12T12:32:29Z</time>
      </trkpt>
      <trkpt lat="47.01888" lon="4.20594">
        <ele>358.23</ele>
        <time>2021-08-12T12:32:31Z</time>
      </trkpt>
      <trkpt lat="47.01884" lon="4.20625">
        <ele>357.27</ele>
        <time>2021-08-12T12:32:33Z</time>
      </trkpt>
      <trkpt lat="47.01881" lon="4.20637">
        <ele>356.31</ele>
        <time>2021-08-12T12:32:34Z</time>
      </trkpt>
      <trkpt lat="47.01876" lon="4.20651">
        <ele>355.34</ele>
        <time>2021-08-12T12:32:35Z</time>
      </trkpt>
      <trkpt lat="47.0187" lon="4.20663">
        <ele>355.34</ele>
        <time>2021-08-12T12:32:36Z</time>
      </trkpt>
      <trkpt lat="47.01855" lon="4.20703">
        <ele>352.46</ele>
        <time>2021-08-12T12:32:39Z</time>
      </trkpt>
      <trkpt lat="47.01852" lon="4.20719">
        <ele>351.5</ele>
        <time>2021-08-12T12:32:40Z</time>
      </trkpt>
      <trkpt lat="47.01851" lon="4.20735">
        <ele>350.54</ele>
        <time>2021-08-12T12:32:41Z</time>
      </trkpt>
      <trkpt lat="47.01851" lon="4.20751">
        <ele>350.54</ele>
        <time>2021-08-12T12:32:42Z</time>
      </trkpt>
      <trkpt lat="47.01852" lon="4.20766">
        <ele>350.54</ele>
        <time>2021-08-12T12:32:43Z</time>
      </trkpt>
      <trkpt lat="47.01856" lon="4.20827">
        <ele>349.1</ele>
        <time>2021-08-12T12:32:47Z</time>
      </trkpt>
      <trkpt lat="47.01858" lon="4.2084">
        <ele>349.1</ele>
        <time>2021-08-12T12:32:48Z</time>
      </trkpt>
      <trkpt lat="47.01861" lon="4.20854">
        <ele>349.1</ele>
        <time>2021-08-12T12:32:49Z</time>
      </trkpt>
      <trkpt lat="47.01865" lon="4.20868">
        <ele>349.1</ele>
        <time>2021-08-12T12:32:50Z</time>
      </trkpt>
      <trkpt lat="47.01876" lon="4.20908">
        <ele>347.65</ele>
        <time>2021-08-12T12:32:53Z</time>
      </trkpt>
      <trkpt lat="47.01878" lon="4.20922">
        <ele>347.65</ele>
        <time>2021-08-12T12:32:54Z</time>
      </trkpt>
      <trkpt lat="47.01879" lon="4.20937">
        <ele>346.69</ele>
        <time>2021-08-12T12:32:55Z</time>
      </trkpt>
      <trkpt lat="47.01875" lon="4.21">
        <ele>344.29</ele>
        <time>2021-08-12T12:32:59Z</time>
      </trkpt>
      <trkpt lat="47.01866" lon="4.21064">
        <ele>340.92</ele>
        <time>2021-08-12T12:33:03Z</time>
      </trkpt>
      <trkpt lat="47.01864" lon="4.21079">
        <ele>340.44</ele>
        <time>2021-08-12T12:33:04Z</time>
      </trkpt>
      <trkpt lat="47.0186" lon="4.21094">
        <ele>340.44</ele>
        <time>2021-08-12T12:33:05Z</time>
      </trkpt>
      <trkpt lat="47.01855" lon="4.21108">
        <ele>339.48</ele>
        <time>2021-08-12T12:33:06Z</time>
      </trkpt>
      <trkpt lat="47.01848" lon="4.21119">
        <ele>339.48</ele>
        <time>2021-08-12T12:33:07Z</time>
      </trkpt>
      <trkpt lat="47.0184" lon="4.21127">
        <ele>339.48</ele>
        <time>2021-08-12T12:33:08Z</time>
      </trkpt>
      <trkpt lat="47.01832" lon="4.21134">
        <ele>339.48</ele>
        <time>2021-08-12T12:33:09Z</time>
      </trkpt>
      <trkpt lat="47.01817" lon="4.21147">
        <ele>339.48</ele>
        <time>2021-08-12T12:33:11Z</time>
      </trkpt>
      <trkpt lat="47.0181" lon="4.21156">
        <ele>339.48</ele>
        <time>2021-08-12T12:33:12Z</time>
      </trkpt>
      <trkpt lat="47.01805" lon="4.21164">
        <ele>340.92</ele>
        <time>2021-08-12T12:33:13Z</time>
      </trkpt>
      <trkpt lat="47.01792" lon="4.21185">
        <ele>343.81</ele>
        <time>2021-08-12T12:33:16Z</time>
      </trkpt>
      <trkpt lat="47.01789" lon="4.2119">
        <ele>344.29</ele>
        <time>2021-08-12T12:33:17Z</time>
      </trkpt>
      <trkpt lat="47.01787" lon="4.21196">
        <ele>344.77</ele>
        <time>2021-08-12T12:33:18Z</time>
      </trkpt>
      <trkpt lat="47.01785" lon="4.212">
        <ele>345.73</ele>
        <time>2021-08-12T12:33:19Z</time>
      </trkpt>
      <trkpt lat="47.01783" lon="4.21204">
        <ele>346.21</ele>
        <time>2021-08-12T12:33:20Z</time>
      </trkpt>
      <trkpt lat="47.01781" lon="4.21208">
        <ele>346.69</ele>
        <time>2021-08-12T12:33:21Z</time>
      </trkpt>
      <trkpt lat="47.01769" lon="4.21225">
        <ele>348.62</ele>
        <time>2021-08-12T12:33:27Z</time>
      </trkpt>
      <trkpt lat="47.01753" lon="4.21234">
        <ele>349.1</ele>
        <time>2021-08-12T12:33:33Z</time>
      </trkpt>
      <trkpt lat="47.01726" lon="4.21233">
        <ele>349.1</ele>
        <time>2021-08-12T12:33:41Z</time>
      </trkpt>
      <trkpt lat="47.01689" lon="4.21232">
        <ele>349.1</ele>
        <time>2021-08-12T12:33:50Z</time>
      </trkpt>
      <trkpt lat="47.01658" lon="4.21235">
        <ele>347.65</ele>
        <time>2021-08-12T12:33:56Z</time>
      </trkpt>
      <trkpt lat="47.01653" lon="4.21236">
        <ele>347.65</ele>
        <time>2021-08-12T12:33:57Z</time>
      </trkpt>
      <trkpt lat="47.01647" lon="4.21237">
        <ele>347.65</ele>
        <time>2021-08-12T12:33:58Z</time>
      </trkpt>
      <trkpt lat="47.01604" lon="4.21238">
        <ele>345.25</ele>
        <time>2021-08-12T12:34:05Z</time>
      </trkpt>
      <trkpt lat="47.01597" lon="4.21241">
        <ele>344.77</ele>
        <time>2021-08-12T12:34:06Z</time>
      </trkpt>
      <trkpt lat="47.01591" lon="4.21246">
        <ele>344.77</ele>
        <time>2021-08-12T12:34:07Z</time>
      </trkpt>
      <trkpt lat="47.01587" lon="4.21253">
        <ele>344.77</ele>
        <time>2021-08-12T12:34:08Z</time>
      </trkpt>
      <trkpt lat="47.01584" lon="4.21262">
        <ele>344.77</ele>
        <time>2021-08-12T12:34:09Z</time>
      </trkpt>
      <trkpt lat="47.01582" lon="4.21271">
        <ele>344.77</ele>
        <time>2021-08-12T12:34:10Z</time>
      </trkpt>
      <trkpt lat="47.01582" lon="4.2128">
        <ele>344.77</ele>
        <time>2021-08-12T12:34:11Z</time>
      </trkpt>
      <trkpt lat="47.01582" lon="4.21289">
        <ele>344.77</ele>
        <time>2021-08-12T12:34:12Z</time>
      </trkpt>
      <trkpt lat="47.01583" lon="4.21298">
        <ele>344.77</ele>
        <time>2021-08-12T12:34:13Z</time>
      </trkpt>
      <trkpt lat="47.01592" lon="4.21367">
        <ele>344.29</ele>
        <time>2021-08-12T12:34:21Z</time>
      </trkpt>
      <trkpt lat="47.01593" lon="4.21376">
        <ele>344.29</ele>
        <time>2021-08-12T12:34:22Z</time>
      </trkpt>
      <trkpt lat="47.01595" lon="4.21419">
        <ele>344.29</ele>
        <time>2021-08-12T12:34:27Z</time>
      </trkpt>
      <trkpt lat="47.01595" lon="4.21436">
        <ele>344.29</ele>
        <time>2021-08-12T12:34:29Z</time>
      </trkpt>
      <trkpt lat="47.01592" lon="4.21471">
        <ele>343.33</ele>
        <time>2021-08-12T12:34:33Z</time>
      </trkpt>
      <trkpt lat="47.01588" lon="4.21486">
        <ele>342.85</ele>
        <time>2021-08-12T12:34:35Z</time>
      </trkpt>
      <trkpt lat="47.01585" lon="4.21495">
        <ele>342.37</ele>
        <time>2021-08-12T12:34:36Z</time>
      </trkpt>
      <trkpt lat="47.01573" lon="4.21518">
        <ele>341.89</ele>
        <time>2021-08-12T12:34:39Z</time>
      </trkpt>
      <trkpt lat="47.01563" lon="4.21535">
        <ele>340.92</ele>
        <time>2021-08-12T12:34:41Z</time>
      </trkpt>
      <trkpt lat="47.01545" lon="4.21592">
        <ele>339.96</ele>
        <time>2021-08-12T12:34:47Z</time>
      </trkpt>
      <trkpt lat="47.01544" lon="4.21602">
        <ele>339.96</ele>
        <time>2021-08-12T12:34:48Z</time>
      </trkpt>
      <trkpt lat="47.01544" lon="4.21612">
        <ele>339.96</ele>
        <time>2021-08-12T12:34:49Z</time>
      </trkpt>
      <trkpt lat="47.01545" lon="4.21623">
        <ele>339.96</ele>
        <time>2021-08-12T12:34:50Z</time>
      </trkpt>
      <trkpt lat="47.01546" lon="4.21633">
        <ele>339.96</ele>
        <time>2021-08-12T12:34:51Z</time>
      </trkpt>
      <trkpt lat="47.01548" lon="4.21643">
        <ele>339.48</ele>
        <time>2021-08-12T12:34:52Z</time>
      </trkpt>
      <trkpt lat="47.01562" lon="4.21729">
        <ele>337.56</ele>
        <time>2021-08-12T12:35:00Z</time>
      </trkpt>
      <trkpt lat="47.01576" lon="4.21816">
        <ele>335.64</ele>
        <time>2021-08-12T12:35:08Z</time>
      </trkpt>
      <trkpt lat="47.01577" lon="4.21837">
        <ele>335.64</ele>
        <time>2021-08-12T12:35:10Z</time>
      </trkpt>
      <trkpt lat="47.01577" lon="4.21849">
        <ele>335.64</ele>
        <time>2021-08-12T12:35:11Z</time>
      </trkpt>
      <trkpt lat="47.01575" lon="4.21858">
        <ele>335.64</ele>
        <time>2021-08-12T12:35:12Z</time>
      </trkpt>
      <trkpt lat="47.01573" lon="4.21868">
        <ele>335.64</ele>
        <time>2021-08-12T12:35:13Z</time>
      </trkpt>
      <trkpt lat="47.0157" lon="4.21875">
        <ele>335.64</ele>
        <time>2021-08-12T12:35:14Z</time>
      </trkpt>
      <trkpt lat="47.01567" lon="4.21884">
        <ele>335.64</ele>
        <time>2021-08-12T12:35:15Z</time>
      </trkpt>
      <trkpt lat="47.01548" lon="4.21929">
        <ele>337.08</ele>
        <time>2021-08-12T12:35:22Z</time>
      </trkpt>
      <trkpt lat="47.01531" lon="4.2197">
        <ele>337.56</ele>
        <time>2021-08-12T12:35:29Z</time>
      </trkpt>
      <trkpt lat="47.01522" lon="4.21987">
        <ele>337.56</ele>
        <time>2021-08-12T12:35:32Z</time>
      </trkpt>
      <trkpt lat="47.01519" lon="4.21991">
        <ele>337.56</ele>
        <time>2021-08-12T12:35:33Z</time>
      </trkpt>
      <trkpt lat="47.01514" lon="4.21997">
        <ele>337.56</ele>
        <time>2021-08-12T12:35:34Z</time>
      </trkpt>
      <trkpt lat="47.01511" lon="4.22">
        <ele>337.56</ele>
        <time>2021-08-12T12:35:35Z</time>
      </trkpt>
      <trkpt lat="47.01507" lon="4.22004">
        <ele>337.56</ele>
        <time>2021-08-12T12:35:36Z</time>
      </trkpt>
      <trkpt lat="47.01502" lon="4.22008">
        <ele>336.12</ele>
        <time>2021-08-12T12:35:37Z</time>
      </trkpt>
      <trkpt lat="47.01497" lon="4.22011">
        <ele>336.12</ele>
        <time>2021-08-12T12:35:38Z</time>
      </trkpt>
      <trkpt lat="47.01481" lon="4.22022">
        <ele>334.2</ele>
        <time>2021-08-12T12:35:41Z</time>
      </trkpt>
      <trkpt lat="47.01476" lon="4.22028">
        <ele>333.23</ele>
        <time>2021-08-12T12:35:42Z</time>
      </trkpt>
      <trkpt lat="47.01472" lon="4.22035">
        <ele>332.75</ele>
        <time>2021-08-12T12:35:43Z</time>
      </trkpt>
      <trkpt lat="47.01468" lon="4.22043">
        <ele>332.27</ele>
        <time>2021-08-12T12:35:44Z</time>
      </trkpt>
      <trkpt lat="47.01464" lon="4.22052">
        <ele>331.31</ele>
        <time>2021-08-12T12:35:45Z</time>
      </trkpt>
      <trkpt lat="47.0146" lon="4.22061">
        <ele>331.31</ele>
        <time>2021-08-12T12:35:46Z</time>
      </trkpt>
      <trkpt lat="47.01434" lon="4.22141">
        <ele>330.83</ele>
        <time>2021-08-12T12:35:55Z</time>
      </trkpt>
      <trkpt lat="47.01425" lon="4.22202">
        <ele>329.39</ele>
        <time>2021-08-12T12:36:02Z</time>
      </trkpt>
      <trkpt lat="47.01412" lon="4.22261">
        <ele>328.91</ele>
        <time>2021-08-12T12:36:10Z</time>
      </trkpt>
      <trkpt lat="47.01408" lon="4.22274">
        <ele>328.91</ele>
        <time>2021-08-12T12:36:12Z</time>
      </trkpt>
      <trkpt lat="47.01405" lon="4.2228">
        <ele>328.91</ele>
        <time>2021-08-12T12:36:13Z</time>
      </trkpt>
      <trkpt lat="47.01403" lon="4.22283">
        <ele>328.91</ele>
        <time>2021-08-12T12:36:14Z</time>
      </trkpt>
      <trkpt lat="47.0137" lon="4.22327">
        <ele>328.91</ele>
        <time>2021-08-12T12:36:23Z</time>
      </trkpt>
      <trkpt lat="47.01336" lon="4.22373">
        <ele>327.47</ele>
        <time>2021-08-12T12:36:31Z</time>
      </trkpt>
      <trkpt lat="47.01293" lon="4.22431">
        <ele>326.5</ele>
        <time>2021-08-12T12:36:40Z</time>
      </trkpt>
      <trkpt lat="47.01283" lon="4.22445">
        <ele>326.02</ele>
        <time>2021-08-12T12:36:42Z</time>
      </trkpt>
      <trkpt lat="47.01232" lon="4.22507">
        <ele>324.1</ele>
        <time>2021-08-12T12:36:51Z</time>
      </trkpt>
      <trkpt lat="47.01191" lon="4.22548">
        <ele>323.62</ele>
        <time>2021-08-12T12:36:58Z</time>
      </trkpt>
      <trkpt lat="47.01169" lon="4.22569">
        <ele>323.62</ele>
        <time>2021-08-12T12:37:02Z</time>
      </trkpt>
      <trkpt lat="47.0116" lon="4.22578">
        <ele>323.62</ele>
        <time>2021-08-12T12:37:04Z</time>
      </trkpt>
      <trkpt lat="47.01139" lon="4.22597">
        <ele>323.62</ele>
        <time>2021-08-12T12:37:08Z</time>
      </trkpt>
      <trkpt lat="47.01092" lon="4.22642">
        <ele>323.62</ele>
        <time>2021-08-12T12:37:18Z</time>
      </trkpt>
      <trkpt lat="47.01047" lon="4.22681">
        <ele>323.62</ele>
        <time>2021-08-12T12:37:27Z</time>
      </trkpt>
      <trkpt lat="47.01009" lon="4.22714">
        <ele>324.58</ele>
        <time>2021-08-12T12:37:35Z</time>
      </trkpt>
      <trkpt lat="47.01004" lon="4.22718">
        <ele>324.58</ele>
        <time>2021-08-12T12:37:36Z</time>
      </trkpt>
      <trkpt lat="47.00993" lon="4.2273">
        <ele>325.06</ele>
        <time>2021-08-12T12:37:39Z</time>
      </trkpt>
      <trkpt lat="47.00979" lon="4.22749">
        <ele>325.54</ele>
        <time>2021-08-12T12:37:43Z</time>
      </trkpt>
      <trkpt lat="47.00961" lon="4.2278">
        <ele>326.02</ele>
        <time>2021-08-12T12:37:49Z</time>
      </trkpt>
      <trkpt lat="47.00935" lon="4.22823">
        <ele>326.02</ele>
        <time>2021-08-12T12:37:57Z</time>
      </trkpt>
      <trkpt lat="47.00933" lon="4.22829">
        <ele>326.02</ele>
        <time>2021-08-12T12:37:58Z</time>
      </trkpt>
      <trkpt lat="47.00933" lon="4.22837">
        <ele>326.02</ele>
        <time>2021-08-12T12:37:59Z</time>
      </trkpt>
      <trkpt lat="47.00936" lon="4.22845">
        <ele>326.02</ele>
        <time>2021-08-12T12:38:00Z</time>
      </trkpt>
      <trkpt lat="47.00938" lon="4.22848">
        <ele>326.02</ele>
        <time>2021-08-12T12:38:01Z</time>
      </trkpt>
      <trkpt lat="47.00943" lon="4.22851">
        <ele>326.02</ele>
        <time>2021-08-12T12:38:02Z</time>
      </trkpt>
      <trkpt lat="47.00948" lon="4.22853">
        <ele>326.02</ele>
        <time>2021-08-12T12:38:03Z</time>
      </trkpt>
      <trkpt lat="47.00953" lon="4.22855">
        <ele>326.02</ele>
        <time>2021-08-12T12:38:04Z</time>
      </trkpt>
      <trkpt lat="47.01005" lon="4.22882">
        <ele>326.02</ele>
        <time>2021-08-12T12:38:15Z</time>
      </trkpt>
      <trkpt lat="47.0105" lon="4.22911">
        <ele>324.1</ele>
        <time>2021-08-12T12:38:24Z</time>
      </trkpt>
      <trkpt lat="47.01062" lon="4.22919">
        <ele>323.14</ele>
        <time>2021-08-12T12:38:26Z</time>
      </trkpt>
      <trkpt lat="47.01095" lon="4.22947">
        <ele>320.74</ele>
        <time>2021-08-12T12:38:31Z</time>
      </trkpt>
      <trkpt lat="47.01122" lon="4.22982">
        <ele>318.33</ele>
        <time>2021-08-12T12:38:35Z</time>
      </trkpt>
      <trkpt lat="47.01172" lon="4.23047">
        <ele>317.85</ele>
        <time>2021-08-12T12:38:43Z</time>
      </trkpt>
      <trkpt lat="47.01219" lon="4.23111">
        <ele>317.37</ele>
        <time>2021-08-12T12:38:52Z</time>
      </trkpt>
      <trkpt lat="47.01246" lon="4.23154">
        <ele>317.37</ele>
        <time>2021-08-12T12:38:58Z</time>
      </trkpt>
      <trkpt lat="47.01268" lon="4.23203">
        <ele>317.37</ele>
        <time>2021-08-12T12:39:04Z</time>
      </trkpt>
      <trkpt lat="47.01297" lon="4.23264">
        <ele>317.37</ele>
        <time>2021-08-12T12:39:12Z</time>
      </trkpt>
      <trkpt lat="47.01328" lon="4.23305">
        <ele>319.3</ele>
        <time>2021-08-12T12:39:19Z</time>
      </trkpt>
      <trkpt lat="47.0134" lon="4.23318">
        <ele>319.3</ele>
        <time>2021-08-12T12:39:22Z</time>
      </trkpt>
      <trkpt lat="47.01343" lon="4.23322">
        <ele>319.3</ele>
        <time>2021-08-12T12:39:23Z</time>
      </trkpt>
      <trkpt lat="47.01357" lon="4.23338">
        <ele>317.85</ele>
        <time>2021-08-12T12:39:26Z</time>
      </trkpt>
      <trkpt lat="47.01384" lon="4.23377">
        <ele>318.33</ele>
        <time>2021-08-12T12:39:33Z</time>
      </trkpt>
      <trkpt lat="47.014" lon="4.23411">
        <ele>319.3</ele>
        <time>2021-08-12T12:39:39Z</time>
      </trkpt>
      <trkpt lat="47.01402" lon="4.23418">
        <ele>319.3</ele>
        <time>2021-08-12T12:39:40Z</time>
      </trkpt>
      <trkpt lat="47.01418" lon="4.23474">
        <ele>319.3</ele>
        <time>2021-08-12T12:39:48Z</time>
      </trkpt>
      <trkpt lat="47.01439" lon="4.23541">
        <ele>319.3</ele>
        <time>2021-08-12T12:39:57Z</time>
      </trkpt>
      <trkpt lat="47.01448" lon="4.23569">
        <ele>319.3</ele>
        <time>2021-08-12T12:40:01Z</time>
      </trkpt>
      <trkpt lat="47.0145" lon="4.23576">
        <ele>319.3</ele>
        <time>2021-08-12T12:40:02Z</time>
      </trkpt>
      <trkpt lat="47.01459" lon="4.23624">
        <ele>319.78</ele>
        <time>2021-08-12T12:40:09Z</time>
      </trkpt>
      <trkpt lat="47.01459" lon="4.2363">
        <ele>319.78</ele>
        <time>2021-08-12T12:40:10Z</time>
      </trkpt>
      <trkpt lat="47.0146" lon="4.23636">
        <ele>319.78</ele>
        <time>2021-08-12T12:40:11Z</time>
      </trkpt>
      <trkpt lat="47.0146" lon="4.23674">
        <ele>319.78</ele>
        <time>2021-08-12T12:40:17Z</time>
      </trkpt>
      <trkpt lat="47.0146" lon="4.23681">
        <ele>319.78</ele>
        <time>2021-08-12T12:40:18Z</time>
      </trkpt>
      <trkpt lat="47.0146" lon="4.23687">
        <ele>319.78</ele>
        <time>2021-08-12T12:40:19Z</time>
      </trkpt>
      <trkpt lat="47.01459" lon="4.23694">
        <ele>319.78</ele>
        <time>2021-08-12T12:40:20Z</time>
      </trkpt>
      <trkpt lat="47.01458" lon="4.237">
        <ele>319.78</ele>
        <time>2021-08-12T12:40:21Z</time>
      </trkpt>
      <trkpt lat="47.01453" lon="4.2374">
        <ele>318.33</ele>
        <time>2021-08-12T12:40:27Z</time>
      </trkpt>
      <trkpt lat="47.0145" lon="4.23807">
        <ele>318.33</ele>
        <time>2021-08-12T12:40:36Z</time>
      </trkpt>
      <trkpt lat="47.01455" lon="4.23884">
        <ele>317.85</ele>
        <time>2021-08-12T12:40:46Z</time>
      </trkpt>
      <trkpt lat="47.01464" lon="4.23981">
        <ele>317.85</ele>
        <time>2021-08-12T12:40:58Z</time>
      </trkpt>
      <trkpt lat="47.0147" lon="4.24061">
        <ele>317.85</ele>
        <time>2021-08-12T12:41:08Z</time>
      </trkpt>
      <trkpt lat="47.01471" lon="4.24122">
        <ele>317.85</ele>
        <time>2021-08-12T12:41:16Z</time>
      </trkpt>
      <trkpt lat="47.01467" lon="4.24179">
        <ele>319.3</ele>
        <time>2021-08-12T12:41:24Z</time>
      </trkpt>
      <trkpt lat="47.0146" lon="4.24226">
        <ele>320.26</ele>
        <time>2021-08-12T12:41:32Z</time>
      </trkpt>
      <trkpt lat="47.01451" lon="4.24275">
        <ele>321.7</ele>
        <time>2021-08-12T12:41:42Z</time>
      </trkpt>
      <trkpt lat="47.01442" lon="4.24315">
        <ele>323.62</ele>
        <time>2021-08-12T12:41:52Z</time>
      </trkpt>
      <trkpt lat="47.01434" lon="4.24341">
        <ele>324.58</ele>
        <time>2021-08-12T12:42:00Z</time>
      </trkpt>
      <trkpt lat="47.01427" lon="4.24367">
        <ele>326.5</ele>
        <time>2021-08-12T12:42:08Z</time>
      </trkpt>
      <trkpt lat="47.01425" lon="4.24389">
        <ele>327.95</ele>
        <time>2021-08-12T12:42:16Z</time>
      </trkpt>
      <trkpt lat="47.01423" lon="4.24416">
        <ele>328.91</ele>
        <time>2021-08-12T12:42:25Z</time>
      </trkpt>
      <trkpt lat="47.01422" lon="4.24446">
        <ele>330.35</ele>
        <time>2021-08-12T12:42:34Z</time>
      </trkpt>
      <trkpt lat="47.01423" lon="4.2448">
        <ele>330.83</ele>
        <time>2021-08-12T12:42:43Z</time>
      </trkpt>
      <trkpt lat="47.01421" lon="4.24521">
        <ele>331.31</ele>
        <time>2021-08-12T12:42:52Z</time>
      </trkpt>
      <trkpt lat="47.01411" lon="4.24564">
        <ele>331.79</ele>
        <time>2021-08-12T12:43:01Z</time>
      </trkpt>
      <trkpt lat="47.01393" lon="4.24592">
        <ele>332.75</ele>
        <time>2021-08-12T12:43:08Z</time>
      </trkpt>
      <trkpt lat="47.01374" lon="4.24606">
        <ele>332.75</ele>
        <time>2021-08-12T12:43:14Z</time>
      </trkpt>
      <trkpt lat="47.01354" lon="4.24617">
        <ele>332.75</ele>
        <time>2021-08-12T12:43:20Z</time>
      </trkpt>
      <trkpt lat="47.01351" lon="4.24619">
        <ele>332.75</ele>
        <time>2021-08-12T12:43:21Z</time>
      </trkpt>
      <trkpt lat="47.01348" lon="4.24622">
        <ele>332.75</ele>
        <time>2021-08-12T12:43:22Z</time>
      </trkpt>
      <trkpt lat="47.01344" lon="4.24625">
        <ele>332.75</ele>
        <time>2021-08-12T12:43:23Z</time>
      </trkpt>
      <trkpt lat="47.0134" lon="4.24627">
        <ele>332.75</ele>
        <time>2021-08-12T12:43:24Z</time>
      </trkpt>
      <trkpt lat="47.01336" lon="4.24629">
        <ele>332.75</ele>
        <time>2021-08-12T12:43:25Z</time>
      </trkpt>
      <trkpt lat="47.01333" lon="4.24631">
        <ele>332.75</ele>
        <time>2021-08-12T12:43:26Z</time>
      </trkpt>
      <trkpt lat="47.01304" lon="4.24656">
        <ele>333.71</ele>
        <time>2021-08-12T12:43:35Z</time>
      </trkpt>
      <trkpt lat="47.01297" lon="4.24687">
        <ele>333.71</ele>
        <time>2021-08-12T12:43:41Z</time>
      </trkpt>
      <trkpt lat="47.01302" lon="4.24725">
        <ele>334.2</ele>
        <time>2021-08-12T12:43:48Z</time>
      </trkpt>
      <trkpt lat="47.01307" lon="4.24772">
        <ele>334.68</ele>
        <time>2021-08-12T12:43:56Z</time>
      </trkpt>
      <trkpt lat="47.0131" lon="4.24819">
        <ele>335.16</ele>
        <time>2021-08-12T12:44:04Z</time>
      </trkpt>
      <trkpt lat="47.01309" lon="4.24863">
        <ele>335.64</ele>
        <time>2021-08-12T12:44:11Z</time>
      </trkpt>
      <trkpt lat="47.013" lon="4.24927">
        <ele>335.64</ele>
        <time>2021-08-12T12:44:21Z</time>
      </trkpt>
      <trkpt lat="47.01299" lon="4.24993">
        <ele>336.12</ele>
        <time>2021-08-12T12:44:31Z</time>
      </trkpt>
      <trkpt lat="47.01294" lon="4.25042">
        <ele>336.6</ele>
        <time>2021-08-12T12:44:39Z</time>
      </trkpt>
      <trkpt lat="47.01288" lon="4.25086">
        <ele>337.08</ele>
        <time>2021-08-12T12:44:46Z</time>
      </trkpt>
      <trkpt lat="47.01286" lon="4.25098">
        <ele>337.08</ele>
        <time>2021-08-12T12:44:48Z</time>
      </trkpt>
      <trkpt lat="47.01284" lon="4.25105">
        <ele>337.08</ele>
        <time>2021-08-12T12:44:49Z</time>
      </trkpt>
      <trkpt lat="47.01282" lon="4.2511">
        <ele>337.08</ele>
        <time>2021-08-12T12:44:50Z</time>
      </trkpt>
      <trkpt lat="47.0128" lon="4.25115">
        <ele>338.04</ele>
        <time>2021-08-12T12:44:51Z</time>
      </trkpt>
      <trkpt lat="47.01277" lon="4.2512">
        <ele>338.04</ele>
        <time>2021-08-12T12:44:52Z</time>
      </trkpt>
      <trkpt lat="47.01274" lon="4.25124">
        <ele>338.04</ele>
        <time>2021-08-12T12:44:53Z</time>
      </trkpt>
      <trkpt lat="47.0127" lon="4.25129">
        <ele>338.04</ele>
        <time>2021-08-12T12:44:54Z</time>
      </trkpt>
      <trkpt lat="47.01267" lon="4.25132">
        <ele>338.04</ele>
        <time>2021-08-12T12:44:55Z</time>
      </trkpt>
      <trkpt lat="47.01263" lon="4.25136">
        <ele>338.04</ele>
        <time>2021-08-12T12:44:56Z</time>
      </trkpt>
      <trkpt lat="47.01259" lon="4.25139">
        <ele>338.04</ele>
        <time>2021-08-12T12:44:57Z</time>
      </trkpt>
      <trkpt lat="47.01216" lon="4.25163">
        <ele>339</ele>
        <time>2021-08-12T12:45:07Z</time>
      </trkpt>
      <trkpt lat="47.01203" lon="4.25169">
        <ele>339.48</ele>
        <time>2021-08-12T12:45:10Z</time>
      </trkpt>
      <trkpt lat="47.01199" lon="4.25172">
        <ele>339.96</ele>
        <time>2021-08-12T12:45:11Z</time>
      </trkpt>
      <trkpt lat="47.01196" lon="4.25175">
        <ele>339.96</ele>
        <time>2021-08-12T12:45:12Z</time>
      </trkpt>
      <trkpt lat="47.01193" lon="4.25179">
        <ele>339.96</ele>
        <time>2021-08-12T12:45:13Z</time>
      </trkpt>
      <trkpt lat="47.0119" lon="4.25182">
        <ele>340.44</ele>
        <time>2021-08-12T12:45:14Z</time>
      </trkpt>
      <trkpt lat="47.01187" lon="4.25186">
        <ele>340.44</ele>
        <time>2021-08-12T12:45:15Z</time>
      </trkpt>
      <trkpt lat="47.01169" lon="4.25204">
        <ele>341.41</ele>
        <time>2021-08-12T12:45:22Z</time>
      </trkpt>
      <trkpt lat="47.01147" lon="4.25213">
        <ele>341.89</ele>
        <time>2021-08-12T12:45:29Z</time>
      </trkpt>
      <trkpt lat="47.01139" lon="4.25218">
        <ele>342.37</ele>
        <time>2021-08-12T12:45:31Z</time>
      </trkpt>
      <trkpt lat="47.01135" lon="4.25219">
        <ele>342.37</ele>
        <time>2021-08-12T12:45:32Z</time>
      </trkpt>
      <trkpt lat="47.01091" lon="4.25242">
        <ele>342.37</ele>
        <time>2021-08-12T12:45:42Z</time>
      </trkpt>
      <trkpt lat="47.01055" lon="4.2527">
        <ele>342.37</ele>
        <time>2021-08-12T12:45:51Z</time>
      </trkpt>
      <trkpt lat="47.01037" lon="4.25297">
        <ele>342.37</ele>
        <time>2021-08-12T12:45:58Z</time>
      </trkpt>
      <trkpt lat="47.01033" lon="4.25307">
        <ele>342.85</ele>
        <time>2021-08-12T12:46:00Z</time>
      </trkpt>
      <trkpt lat="47.01026" lon="4.25327">
        <ele>342.85</ele>
        <time>2021-08-12T12:46:04Z</time>
      </trkpt>
      <trkpt lat="47.01021" lon="4.25329">
        <ele>342.85</ele>
        <time>2021-08-12T12:46:05Z</time>
      </trkpt>
      <trkpt lat="47.01017" lon="4.2533">
        <ele>342.85</ele>
        <time>2021-08-12T12:46:06Z</time>
      </trkpt>
      <trkpt lat="47.01013" lon="4.25329">
        <ele>342.85</ele>
        <time>2021-08-12T12:46:07Z</time>
      </trkpt>
      <trkpt lat="47.01009" lon="4.25328">
        <ele>342.85</ele>
        <time>2021-08-12T12:46:08Z</time>
      </trkpt>
      <trkpt lat="47.00992" lon="4.25323">
        <ele>342.85</ele>
        <time>2021-08-12T12:46:12Z</time>
      </trkpt>
      <trkpt lat="47.00954" lon="4.2532">
        <ele>342.85</ele>
        <time>2021-08-12T12:46:20Z</time>
      </trkpt>
      <trkpt lat="47.0095" lon="4.25319">
        <ele>342.85</ele>
        <time>2021-08-12T12:46:21Z</time>
      </trkpt>
      <trkpt lat="47.00934" lon="4.25318">
        <ele>341.41</ele>
        <time>2021-08-12T12:46:24Z</time>
      </trkpt>
      <trkpt lat="47.00889" lon="4.25306">
        <ele>340.44</ele>
        <time>2021-08-12T12:46:32Z</time>
      </trkpt>
      <trkpt lat="47.00843" lon="4.25298">
        <ele>339.48</ele>
        <time>2021-08-12T12:46:39Z</time>
      </trkpt>
      <trkpt lat="47.00825" lon="4.25298">
        <ele>339.48</ele>
        <time>2021-08-12T12:46:42Z</time>
      </trkpt>
      <trkpt lat="47.00818" lon="4.253">
        <ele>339.48</ele>
        <time>2021-08-12T12:46:43Z</time>
      </trkpt>
      <trkpt lat="47.00775" lon="4.25322">
        <ele>340.92</ele>
        <time>2021-08-12T12:46:51Z</time>
      </trkpt>
      <trkpt lat="47.00771" lon="4.25325">
        <ele>340.92</ele>
        <time>2021-08-12T12:46:52Z</time>
      </trkpt>
      <trkpt lat="47.00767" lon="4.25327">
        <ele>340.92</ele>
        <time>2021-08-12T12:46:53Z</time>
      </trkpt>
      <trkpt lat="47.00735" lon="4.25354">
        <ele>340.92</ele>
        <time>2021-08-12T12:47:00Z</time>
      </trkpt>
      <trkpt lat="47.00719" lon="4.25368">
        <ele>339.48</ele>
        <time>2021-08-12T12:47:03Z</time>
      </trkpt>
      <trkpt lat="47.00662" lon="4.25415">
        <ele>338.04</ele>
        <time>2021-08-12T12:47:13Z</time>
      </trkpt>
      <trkpt lat="47.00638" lon="4.25434">
        <ele>337.56</ele>
        <time>2021-08-12T12:47:17Z</time>
      </trkpt>
      <trkpt lat="47.00586" lon="4.25475">
        <ele>337.08</ele>
        <time>2021-08-12T12:47:26Z</time>
      </trkpt>
      <trkpt lat="47.00556" lon="4.25497">
        <ele>337.08</ele>
        <time>2021-08-12T12:47:31Z</time>
      </trkpt>
      <trkpt lat="47.00551" lon="4.25502">
        <ele>337.08</ele>
        <time>2021-08-12T12:47:32Z</time>
      </trkpt>
      <trkpt lat="47.00546" lon="4.25508">
        <ele>337.08</ele>
        <time>2021-08-12T12:47:33Z</time>
      </trkpt>
      <trkpt lat="47.00503" lon="4.25559">
        <ele>337.08</ele>
        <time>2021-08-12T12:47:42Z</time>
      </trkpt>
      <trkpt lat="47.00495" lon="4.25571">
        <ele>338.52</ele>
        <time>2021-08-12T12:47:44Z</time>
      </trkpt>
      <trkpt lat="47.00492" lon="4.25577">
        <ele>338.52</ele>
        <time>2021-08-12T12:47:45Z</time>
      </trkpt>
      <trkpt lat="47.00489" lon="4.25583">
        <ele>338.52</ele>
        <time>2021-08-12T12:47:46Z</time>
      </trkpt>
      <trkpt lat="47.00467" lon="4.25633">
        <ele>338.52</ele>
        <time>2021-08-12T12:47:54Z</time>
      </trkpt>
      <trkpt lat="47.00462" lon="4.25645">
        <ele>339.48</ele>
        <time>2021-08-12T12:47:56Z</time>
      </trkpt>
      <trkpt lat="47.0046" lon="4.25652">
        <ele>339.48</ele>
        <time>2021-08-12T12:47:57Z</time>
      </trkpt>
      <trkpt lat="47.0045" lon="4.25681">
        <ele>338.04</ele>
        <time>2021-08-12T12:48:01Z</time>
      </trkpt>
      <trkpt lat="47.00446" lon="4.25688">
        <ele>337.08</ele>
        <time>2021-08-12T12:48:02Z</time>
      </trkpt>
      <trkpt lat="47.00442" lon="4.25695">
        <ele>337.08</ele>
        <time>2021-08-12T12:48:03Z</time>
      </trkpt>
      <trkpt lat="47.00401" lon="4.25752">
        <ele>334.68</ele>
        <time>2021-08-12T12:48:11Z</time>
      </trkpt>
      <trkpt lat="47.00365" lon="4.25801">
        <ele>331.79</ele>
        <time>2021-08-12T12:48:17Z</time>
      </trkpt>
      <trkpt lat="47.00345" lon="4.25827">
        <ele>330.83</ele>
        <time>2021-08-12T12:48:20Z</time>
      </trkpt>
      <trkpt lat="47.00311" lon="4.2587">
        <ele>328.43</ele>
        <time>2021-08-12T12:48:25Z</time>
      </trkpt>
      <trkpt lat="47.00274" lon="4.25914">
        <ele>325.06</ele>
        <time>2021-08-12T12:48:30Z</time>
      </trkpt>
      <trkpt lat="47.00202" lon="4.25994">
        <ele>322.66</ele>
        <time>2021-08-12T12:48:39Z</time>
      </trkpt>
      <trkpt lat="47.00148" lon="4.26068">
        <ele>321.22</ele>
        <time>2021-08-12T12:48:47Z</time>
      </trkpt>
      <trkpt lat="47.00107" lon="4.2614">
        <ele>321.7</ele>
        <time>2021-08-12T12:48:55Z</time>
      </trkpt>
      <trkpt lat="47.00074" lon="4.26196">
        <ele>322.66</ele>
        <time>2021-08-12T12:49:03Z</time>
      </trkpt>
      <trkpt lat="47.00061" lon="4.26223">
        <ele>323.62</ele>
        <time>2021-08-12T12:49:07Z</time>
      </trkpt>
      <trkpt lat="47.00056" lon="4.26235">
        <ele>323.62</ele>
        <time>2021-08-12T12:49:09Z</time>
      </trkpt>
      <trkpt lat="47.00053" lon="4.26241">
        <ele>323.62</ele>
        <time>2021-08-12T12:49:10Z</time>
      </trkpt>
      <trkpt lat="47.00049" lon="4.26247">
        <ele>323.62</ele>
        <time>2021-08-12T12:49:11Z</time>
      </trkpt>
      <trkpt lat="47.00046" lon="4.26254">
        <ele>323.62</ele>
        <time>2021-08-12T12:49:12Z</time>
      </trkpt>
      <trkpt lat="47.00043" lon="4.2626">
        <ele>323.62</ele>
        <time>2021-08-12T12:49:13Z</time>
      </trkpt>
      <trkpt lat="47.00019" lon="4.26311">
        <ele>323.62</ele>
        <time>2021-08-12T12:49:21Z</time>
      </trkpt>
      <trkpt lat="47.00005" lon="4.26345">
        <ele>321.7</ele>
        <time>2021-08-12T12:49:26Z</time>
      </trkpt>
      <trkpt lat="47" lon="4.2637">
        <ele>321.22</ele>
        <time>2021-08-12T12:49:29Z</time>
      </trkpt>
      <trkpt lat="46.99999" lon="4.26379">
        <ele>321.22</ele>
        <time>2021-08-12T12:49:30Z</time>
      </trkpt>
      <trkpt lat="46.99999" lon="4.26388">
        <ele>320.74</ele>
        <time>2021-08-12T12:49:31Z</time>
      </trkpt>
      <trkpt lat="47" lon="4.26396">
        <ele>320.74</ele>
        <time>2021-08-12T12:49:32Z</time>
      </trkpt>
      <trkpt lat="47" lon="4.26405">
        <ele>320.74</ele>
        <time>2021-08-12T12:49:33Z</time>
      </trkpt>
      <trkpt lat="47.00006" lon="4.26482">
        <ele>319.3</ele>
        <time>2021-08-12T12:49:41Z</time>
      </trkpt>
      <trkpt lat="47.00006" lon="4.26491">
        <ele>319.3</ele>
        <time>2021-08-12T12:49:42Z</time>
      </trkpt>
      <trkpt lat="46.99993" lon="4.26581">
        <ele>319.3</ele>
        <time>2021-08-12T12:49:52Z</time>
      </trkpt>
      <trkpt lat="46.99981" lon="4.26667">
        <ele>319.3</ele>
        <time>2021-08-12T12:50:02Z</time>
      </trkpt>
      <trkpt lat="46.99973" lon="4.26717">
        <ele>319.3</ele>
        <time>2021-08-12T12:50:08Z</time>
      </trkpt>
      <trkpt lat="46.9996" lon="4.268">
        <ele>319.3</ele>
        <time>2021-08-12T12:50:18Z</time>
      </trkpt>
      <trkpt lat="46.99951" lon="4.2685">
        <ele>320.74</ele>
        <time>2021-08-12T12:50:24Z</time>
      </trkpt>
      <trkpt lat="46.99943" lon="4.26899">
        <ele>322.18</ele>
        <time>2021-08-12T12:50:31Z</time>
      </trkpt>
      <trkpt lat="46.9994" lon="4.26904">
        <ele>322.18</ele>
        <time>2021-08-12T12:50:32Z</time>
      </trkpt>
      <trkpt lat="46.99938" lon="4.26909">
        <ele>322.18</ele>
        <time>2021-08-12T12:50:33Z</time>
      </trkpt>
      <trkpt lat="46.99934" lon="4.26913">
        <ele>322.18</ele>
        <time>2021-08-12T12:50:34Z</time>
      </trkpt>
      <trkpt lat="46.99931" lon="4.26916">
        <ele>322.18</ele>
        <time>2021-08-12T12:50:35Z</time>
      </trkpt>
      <trkpt lat="46.99927" lon="4.26918">
        <ele>322.18</ele>
        <time>2021-08-12T12:50:36Z</time>
      </trkpt>
      <trkpt lat="46.99923" lon="4.26919">
        <ele>322.66</ele>
        <time>2021-08-12T12:50:37Z</time>
      </trkpt>
      <trkpt lat="46.99918" lon="4.2692">
        <ele>322.66</ele>
        <time>2021-08-12T12:50:38Z</time>
      </trkpt>
      <trkpt lat="46.99878" lon="4.26932">
        <ele>322.66</ele>
        <time>2021-08-12T12:50:47Z</time>
      </trkpt>
      <trkpt lat="46.9987" lon="4.26936">
        <ele>322.66</ele>
        <time>2021-08-12T12:50:49Z</time>
      </trkpt>
      <trkpt lat="46.99865" lon="4.26939">
        <ele>322.66</ele>
        <time>2021-08-12T12:50:50Z</time>
      </trkpt>
      <trkpt lat="46.99849" lon="4.26954">
        <ele>323.14</ele>
        <time>2021-08-12T12:50:54Z</time>
      </trkpt>
      <trkpt lat="46.99845" lon="4.26958">
        <ele>323.14</ele>
        <time>2021-08-12T12:50:55Z</time>
      </trkpt>
      <trkpt lat="46.99842" lon="4.26963">
        <ele>323.14</ele>
        <time>2021-08-12T12:50:56Z</time>
      </trkpt>
      <trkpt lat="46.99807" lon="4.27022">
        <ele>323.14</ele>
        <time>2021-08-12T12:51:06Z</time>
      </trkpt>
      <trkpt lat="46.99804" lon="4.27028">
        <ele>323.14</ele>
        <time>2021-08-12T12:51:07Z</time>
      </trkpt>
      <trkpt lat="46.99796" lon="4.27041">
        <ele>323.14</ele>
        <time>2021-08-12T12:51:09Z</time>
      </trkpt>
      <trkpt lat="46.99792" lon="4.27048">
        <ele>321.7</ele>
        <time>2021-08-12T12:51:10Z</time>
      </trkpt>
      <trkpt lat="46.99788" lon="4.27055">
        <ele>321.7</ele>
        <time>2021-08-12T12:51:11Z</time>
      </trkpt>
      <trkpt lat="46.99748" lon="4.27125">
        <ele>321.22</ele>
        <time>2021-08-12T12:51:21Z</time>
      </trkpt>
      <trkpt lat="46.99718" lon="4.27181">
        <ele>320.74</ele>
        <time>2021-08-12T12:51:29Z</time>
      </trkpt>
      <trkpt lat="46.99703" lon="4.27208">
        <ele>321.22</ele>
        <time>2021-08-12T12:51:33Z</time>
      </trkpt>
      <trkpt lat="46.997" lon="4.27215">
        <ele>321.22</ele>
        <time>2021-08-12T12:51:34Z</time>
      </trkpt>
      <trkpt lat="46.99696" lon="4.27221">
        <ele>321.22</ele>
        <time>2021-08-12T12:51:35Z</time>
      </trkpt>
      <trkpt lat="46.99692" lon="4.27227">
        <ele>321.22</ele>
        <time>2021-08-12T12:51:36Z</time>
      </trkpt>
      <trkpt lat="46.99688" lon="4.27233">
        <ele>321.22</ele>
        <time>2021-08-12T12:51:37Z</time>
      </trkpt>
      <trkpt lat="46.99667" lon="4.27269">
        <ele>322.66</ele>
        <time>2021-08-12T12:51:43Z</time>
      </trkpt>
      <trkpt lat="46.99636" lon="4.27309">
        <ele>322.66</ele>
        <time>2021-08-12T12:51:51Z</time>
      </trkpt>
      <trkpt lat="46.99595" lon="4.27348">
        <ele>321.22</ele>
        <time>2021-08-12T12:51:59Z</time>
      </trkpt>
      <trkpt lat="46.99543" lon="4.27386">
        <ele>320.26</ele>
        <time>2021-08-12T12:52:08Z</time>
      </trkpt>
      <trkpt lat="46.99496" lon="4.27418">
        <ele>319.3</ele>
        <time>2021-08-12T12:52:15Z</time>
      </trkpt>
      <trkpt lat="46.99446" lon="4.27454">
        <ele>319.3</ele>
        <time>2021-08-12T12:52:23Z</time>
      </trkpt>
      <trkpt lat="46.99402" lon="4.27485">
        <ele>318.33</ele>
        <time>2021-08-12T12:52:30Z</time>
      </trkpt>
      <trkpt lat="46.99344" lon="4.27525">
        <ele>318.33</ele>
        <time>2021-08-12T12:52:39Z</time>
      </trkpt>
      <trkpt lat="46.99299" lon="4.27556">
        <ele>318.33</ele>
        <time>2021-08-12T12:52:47Z</time>
      </trkpt>
      <trkpt lat="46.99283" lon="4.27568">
        <ele>319.78</ele>
        <time>2021-08-12T12:52:50Z</time>
      </trkpt>
      <trkpt lat="46.99253" lon="4.27589">
        <ele>319.78</ele>
        <time>2021-08-12T12:52:56Z</time>
      </trkpt>
      <trkpt lat="46.99234" lon="4.27603">
        <ele>321.22</ele>
        <time>2021-08-12T12:53:00Z</time>
      </trkpt>
      <trkpt lat="46.9923" lon="4.27608">
        <ele>321.22</ele>
        <time>2021-08-12T12:53:01Z</time>
      </trkpt>
      <trkpt lat="46.9921" lon="4.27631">
        <ele>321.22</ele>
        <time>2021-08-12T12:53:06Z</time>
      </trkpt>
      <trkpt lat="46.99207" lon="4.27636">
        <ele>321.7</ele>
        <time>2021-08-12T12:53:07Z</time>
      </trkpt>
      <trkpt lat="46.99203" lon="4.27641">
        <ele>321.7</ele>
        <time>2021-08-12T12:53:08Z</time>
      </trkpt>
      <trkpt lat="46.992" lon="4.27646">
        <ele>321.7</ele>
        <time>2021-08-12T12:53:09Z</time>
      </trkpt>
      <trkpt lat="46.99197" lon="4.2765">
        <ele>322.18</ele>
        <time>2021-08-12T12:53:10Z</time>
      </trkpt>
      <trkpt lat="46.99171" lon="4.27686">
        <ele>322.18</ele>
        <time>2021-08-12T12:53:17Z</time>
      </trkpt>
      <trkpt lat="46.99139" lon="4.27731">
        <ele>322.18</ele>
        <time>2021-08-12T12:53:25Z</time>
      </trkpt>
      <trkpt lat="46.99127" lon="4.27748">
        <ele>322.18</ele>
        <time>2021-08-12T12:53:28Z</time>
      </trkpt>
      <trkpt lat="46.99095" lon="4.27793">
        <ele>322.18</ele>
        <time>2021-08-12T12:53:36Z</time>
      </trkpt>
      <trkpt lat="46.99078" lon="4.27818">
        <ele>320.74</ele>
        <time>2021-08-12T12:53:40Z</time>
      </trkpt>
      <trkpt lat="46.99042" lon="4.27865">
        <ele>320.26</ele>
        <time>2021-08-12T12:53:48Z</time>
      </trkpt>
      <trkpt lat="46.99" lon="4.27899">
        <ele>320.26</ele>
        <time>2021-08-12T12:53:56Z</time>
      </trkpt>
      <trkpt lat="46.98959" lon="4.27922">
        <ele>320.26</ele>
        <time>2021-08-12T12:54:04Z</time>
      </trkpt>
      <trkpt lat="46.98935" lon="4.27932">
        <ele>321.7</ele>
        <time>2021-08-12T12:54:09Z</time>
      </trkpt>
      <trkpt lat="46.98929" lon="4.27934">
        <ele>321.7</ele>
        <time>2021-08-12T12:54:10Z</time>
      </trkpt>
      <trkpt lat="46.98915" lon="4.27939">
        <ele>322.18</ele>
        <time>2021-08-12T12:54:13Z</time>
      </trkpt>
      <trkpt lat="46.98911" lon="4.27939">
        <ele>322.18</ele>
        <time>2021-08-12T12:54:14Z</time>
      </trkpt>
      <trkpt lat="46.98906" lon="4.2794">
        <ele>322.18</ele>
        <time>2021-08-12T12:54:15Z</time>
      </trkpt>
      <trkpt lat="46.98857" lon="4.27949">
        <ele>322.66</ele>
        <time>2021-08-12T12:54:24Z</time>
      </trkpt>
      <trkpt lat="46.98806" lon="4.27971">
        <ele>321.22</ele>
        <time>2021-08-12T12:54:33Z</time>
      </trkpt>
      <trkpt lat="46.98761" lon="4.28003">
        <ele>320.74</ele>
        <time>2021-08-12T12:54:41Z</time>
      </trkpt>
      <trkpt lat="46.98757" lon="4.28007">
        <ele>320.74</ele>
        <time>2021-08-12T12:54:42Z</time>
      </trkpt>
      <trkpt lat="46.98752" lon="4.2801">
        <ele>320.74</ele>
        <time>2021-08-12T12:54:43Z</time>
      </trkpt>
      <trkpt lat="46.98733" lon="4.28022">
        <ele>320.74</ele>
        <time>2021-08-12T12:54:47Z</time>
      </trkpt>
      <trkpt lat="46.98717" lon="4.28031">
        <ele>320.26</ele>
        <time>2021-08-12T12:54:50Z</time>
      </trkpt>
      <trkpt lat="46.98678" lon="4.28052">
        <ele>320.26</ele>
        <time>2021-08-12T12:54:58Z</time>
      </trkpt>
      <trkpt lat="46.98646" lon="4.28064">
        <ele>320.26</ele>
        <time>2021-08-12T12:55:05Z</time>
      </trkpt>
      <trkpt lat="46.98641" lon="4.28065">
        <ele>320.26</ele>
        <time>2021-08-12T12:55:06Z</time>
      </trkpt>
      <trkpt lat="46.98598" lon="4.28083">
        <ele>316.89</ele>
        <time>2021-08-12T12:55:14Z</time>
      </trkpt>
      <trkpt lat="46.98585" lon="4.28089">
        <ele>316.41</ele>
        <time>2021-08-12T12:55:16Z</time>
      </trkpt>
      <trkpt lat="46.98539" lon="4.28123">
        <ele>313.53</ele>
        <time>2021-08-12T12:55:23Z</time>
      </trkpt>
      <trkpt lat="46.98476" lon="4.28159">
        <ele>312.09</ele>
        <time>2021-08-12T12:55:32Z</time>
      </trkpt>
      <trkpt lat="46.9842" lon="4.28178">
        <ele>311.12</ele>
        <time>2021-08-12T12:55:40Z</time>
      </trkpt>
      <trkpt lat="46.98414" lon="4.2818">
        <ele>311.6</ele>
        <time>2021-08-12T12:55:41Z</time>
      </trkpt>
      <trkpt lat="46.98365" lon="4.28211">
        <ele>311.12</ele>
        <time>2021-08-12T12:55:49Z</time>
      </trkpt>
      <trkpt lat="46.98331" lon="4.28244">
        <ele>312.09</ele>
        <time>2021-08-12T12:55:56Z</time>
      </trkpt>
      <trkpt lat="46.98304" lon="4.28275">
        <ele>312.09</ele>
        <time>2021-08-12T12:56:02Z</time>
      </trkpt>
      <trkpt lat="46.98268" lon="4.28313">
        <ele>312.09</ele>
        <time>2021-08-12T12:56:09Z</time>
      </trkpt>
      <trkpt lat="46.98226" lon="4.28355">
        <ele>312.09</ele>
        <time>2021-08-12T12:56:17Z</time>
      </trkpt>
      <trkpt lat="46.98188" lon="4.28396">
        <ele>312.57</ele>
        <time>2021-08-12T12:56:25Z</time>
      </trkpt>
      <trkpt lat="46.98171" lon="4.28415">
        <ele>312.57</ele>
        <time>2021-08-12T12:56:29Z</time>
      </trkpt>
      <trkpt lat="46.98132" lon="4.28453">
        <ele>313.05</ele>
        <time>2021-08-12T12:56:37Z</time>
      </trkpt>
      <trkpt lat="46.98115" lon="4.28468">
        <ele>311.6</ele>
        <time>2021-08-12T12:56:40Z</time>
      </trkpt>
      <trkpt lat="46.98063" lon="4.28492">
        <ele>310.64</ele>
        <time>2021-08-12T12:56:48Z</time>
      </trkpt>
      <trkpt lat="46.9805" lon="4.28495">
        <ele>310.64</ele>
        <time>2021-08-12T12:56:50Z</time>
      </trkpt>
      <trkpt lat="46.98043" lon="4.28497">
        <ele>310.16</ele>
        <time>2021-08-12T12:56:51Z</time>
      </trkpt>
      <trkpt lat="46.97992" lon="4.2851">
        <ele>311.6</ele>
        <time>2021-08-12T12:57:00Z</time>
      </trkpt>
      <trkpt lat="46.97981" lon="4.28513">
        <ele>311.6</ele>
        <time>2021-08-12T12:57:02Z</time>
      </trkpt>
      <trkpt lat="46.97947" lon="4.2852">
        <ele>311.6</ele>
        <time>2021-08-12T12:57:08Z</time>
      </trkpt>
      <trkpt lat="46.97942" lon="4.28522">
        <ele>312.57</ele>
        <time>2021-08-12T12:57:09Z</time>
      </trkpt>
      <trkpt lat="46.97937" lon="4.28523">
        <ele>312.57</ele>
        <time>2021-08-12T12:57:10Z</time>
      </trkpt>
      <trkpt lat="46.97933" lon="4.28524">
        <ele>313.05</ele>
        <time>2021-08-12T12:57:11Z</time>
      </trkpt>
      <trkpt lat="46.97928" lon="4.28526">
        <ele>313.05</ele>
        <time>2021-08-12T12:57:12Z</time>
      </trkpt>
      <trkpt lat="46.97912" lon="4.28531">
        <ele>313.53</ele>
        <time>2021-08-12T12:57:16Z</time>
      </trkpt>
      <trkpt lat="46.97908" lon="4.28532">
        <ele>314.01</ele>
        <time>2021-08-12T12:57:17Z</time>
      </trkpt>
      <trkpt lat="46.97904" lon="4.28532">
        <ele>314.01</ele>
        <time>2021-08-12T12:57:18Z</time>
      </trkpt>
      <trkpt lat="46.979" lon="4.28532">
        <ele>314.01</ele>
        <time>2021-08-12T12:57:19Z</time>
      </trkpt>
      <trkpt lat="46.97895" lon="4.28534">
        <ele>314.01</ele>
        <time>2021-08-12T12:57:20Z</time>
      </trkpt>
      <trkpt lat="46.97854" lon="4.28547">
        <ele>312.57</ele>
        <time>2021-08-12T12:57:28Z</time>
      </trkpt>
      <trkpt lat="46.97849" lon="4.28548">
        <ele>312.57</ele>
        <time>2021-08-12T12:57:29Z</time>
      </trkpt>
      <trkpt lat="46.97843" lon="4.28549">
        <ele>312.57</ele>
        <time>2021-08-12T12:57:30Z</time>
      </trkpt>
      <trkpt lat="46.97795" lon="4.28559">
        <ele>312.09</ele>
        <time>2021-08-12T12:57:38Z</time>
      </trkpt>
      <trkpt lat="46.97742" lon="4.28573">
        <ele>310.64</ele>
        <time>2021-08-12T12:57:47Z</time>
      </trkpt>
      <trkpt lat="46.97693" lon="4.28587">
        <ele>309.68</ele>
        <time>2021-08-12T12:57:55Z</time>
      </trkpt>
      <trkpt lat="46.97652" lon="4.28596">
        <ele>309.2</ele>
        <time>2021-08-12T12:58:02Z</time>
      </trkpt>
      <trkpt lat="46.9761" lon="4.28605">
        <ele>309.2</ele>
        <time>2021-08-12T12:58:10Z</time>
      </trkpt>
      <trkpt lat="46.97568" lon="4.28616">
        <ele>308.72</ele>
        <time>2021-08-12T12:58:18Z</time>
      </trkpt>
      <trkpt lat="46.9752" lon="4.28632">
        <ele>307.28</ele>
        <time>2021-08-12T12:58:25Z</time>
      </trkpt>
      <trkpt lat="46.97513" lon="4.28637">
        <ele>306.8</ele>
        <time>2021-08-12T12:58:26Z</time>
      </trkpt>
      <trkpt lat="46.97492" lon="4.28654">
        <ele>306.32</ele>
        <time>2021-08-12T12:58:29Z</time>
      </trkpt>
      <trkpt lat="46.97486" lon="4.2866">
        <ele>306.32</ele>
        <time>2021-08-12T12:58:30Z</time>
      </trkpt>
      <trkpt lat="46.97481" lon="4.28667">
        <ele>305.84</ele>
        <time>2021-08-12T12:58:31Z</time>
      </trkpt>
      <trkpt lat="46.97441" lon="4.28734">
        <ele>304.39</ele>
        <time>2021-08-12T12:58:39Z</time>
      </trkpt>
      <trkpt lat="46.97406" lon="4.28795">
        <ele>303.43</ele>
        <time>2021-08-12T12:58:46Z</time>
      </trkpt>
      <trkpt lat="46.97367" lon="4.28867">
        <ele>301.99</ele>
        <time>2021-08-12T12:58:54Z</time>
      </trkpt>
      <trkpt lat="46.97343" lon="4.28897">
        <ele>301.03</ele>
        <time>2021-08-12T12:58:58Z</time>
      </trkpt>
      <trkpt lat="46.97331" lon="4.28913">
        <ele>300.55</ele>
        <time>2021-08-12T12:59:00Z</time>
      </trkpt>
      <trkpt lat="46.97287" lon="4.28961">
        <ele>301.03</ele>
        <time>2021-08-12T12:59:08Z</time>
      </trkpt>
      <trkpt lat="46.97253" lon="4.28998">
        <ele>301.03</ele>
        <time>2021-08-12T12:59:15Z</time>
      </trkpt>
      <trkpt lat="46.97216" lon="4.2904">
        <ele>300.55</ele>
        <time>2021-08-12T12:59:23Z</time>
      </trkpt>
      <trkpt lat="46.97178" lon="4.29078">
        <ele>300.55</ele>
        <time>2021-08-12T12:59:30Z</time>
      </trkpt>
      <trkpt lat="46.97146" lon="4.29105">
        <ele>300.07</ele>
        <time>2021-08-12T12:59:36Z</time>
      </trkpt>
      <trkpt lat="46.97101" lon="4.29137">
        <ele>300.07</ele>
        <time>2021-08-12T12:59:45Z</time>
      </trkpt>
      <trkpt lat="46.97096" lon="4.29141">
        <ele>300.07</ele>
        <time>2021-08-12T12:59:46Z</time>
      </trkpt>
      <trkpt lat="46.97087" lon="4.29148">
        <ele>300.07</ele>
        <time>2021-08-12T12:59:48Z</time>
      </trkpt>
      <trkpt lat="46.97077" lon="4.29154">
        <ele>300.07</ele>
        <time>2021-08-12T12:59:50Z</time>
      </trkpt>
      <trkpt lat="46.97016" lon="4.29202">
        <ele>300.07</ele>
        <time>2021-08-12T13:00:02Z</time>
      </trkpt>
      <trkpt lat="46.96965" lon="4.29256">
        <ele>300.07</ele>
        <time>2021-08-12T13:00:13Z</time>
      </trkpt>
      <trkpt lat="46.96928" lon="4.29311">
        <ele>300.07</ele>
        <time>2021-08-12T13:00:22Z</time>
      </trkpt>
      <trkpt lat="46.96898" lon="4.29364">
        <ele>300.07</ele>
        <time>2021-08-12T13:00:30Z</time>
      </trkpt>
      <trkpt lat="46.96869" lon="4.2941">
        <ele>300.07</ele>
        <time>2021-08-12T13:00:38Z</time>
      </trkpt>
      <trkpt lat="46.96862" lon="4.29419">
        <ele>300.07</ele>
        <time>2021-08-12T13:00:40Z</time>
      </trkpt>
      <trkpt lat="46.96858" lon="4.29422">
        <ele>300.07</ele>
        <time>2021-08-12T13:00:41Z</time>
      </trkpt>
      <trkpt lat="46.96854" lon="4.29423">
        <ele>300.07</ele>
        <time>2021-08-12T13:00:42Z</time>
      </trkpt>
      <trkpt lat="46.96849" lon="4.29423">
        <ele>300.07</ele>
        <time>2021-08-12T13:00:43Z</time>
      </trkpt>
      <trkpt lat="46.96843" lon="4.29422">
        <ele>300.07</ele>
        <time>2021-08-12T13:00:44Z</time>
      </trkpt>
      <trkpt lat="46.968" lon="4.29416">
        <ele>299.59</ele>
        <time>2021-08-12T13:00:52Z</time>
      </trkpt>
      <trkpt lat="46.96767" lon="4.29412">
        <ele>299.59</ele>
        <time>2021-08-12T13:00:58Z</time>
      </trkpt>
      <trkpt lat="46.96713" lon="4.29407">
        <ele>299.59</ele>
        <time>2021-08-12T13:01:07Z</time>
      </trkpt>
      <trkpt lat="46.96632" lon="4.294">
        <ele>299.59</ele>
        <time>2021-08-12T13:01:20Z</time>
      </trkpt>
      <trkpt lat="46.96564" lon="4.29399">
        <ele>299.11</ele>
        <time>2021-08-12T13:01:31Z</time>
      </trkpt>
      <trkpt lat="46.96499" lon="4.29397">
        <ele>298.63</ele>
        <time>2021-08-12T13:01:41Z</time>
      </trkpt>
      <trkpt lat="46.96443" lon="4.29401">
        <ele>298.63</ele>
        <time>2021-08-12T13:01:50Z</time>
      </trkpt>
      <trkpt lat="46.96374" lon="4.29408">
        <ele>298.63</ele>
        <time>2021-08-12T13:02:01Z</time>
      </trkpt>
      <trkpt lat="46.9631" lon="4.29414">
        <ele>298.63</ele>
        <time>2021-08-12T13:02:11Z</time>
      </trkpt>
      <trkpt lat="46.96251" lon="4.29421">
        <ele>298.63</ele>
        <time>2021-08-12T13:02:20Z</time>
      </trkpt>
      <trkpt lat="46.962" lon="4.29427">
        <ele>298.63</ele>
        <time>2021-08-12T13:02:28Z</time>
      </trkpt>
      <trkpt lat="46.96137" lon="4.29436">
        <ele>298.63</ele>
        <time>2021-08-12T13:02:38Z</time>
      </trkpt>
      <trkpt lat="46.96115" lon="4.2944">
        <ele>300.07</ele>
        <time>2021-08-12T13:02:42Z</time>
      </trkpt>
      <trkpt lat="46.96105" lon="4.29444">
        <ele>300.55</ele>
        <time>2021-08-12T13:02:44Z</time>
      </trkpt>
      <trkpt lat="46.96101" lon="4.29446">
        <ele>300.55</ele>
        <time>2021-08-12T13:02:45Z</time>
      </trkpt>
      <trkpt lat="46.96097" lon="4.29449">
        <ele>300.55</ele>
        <time>2021-08-12T13:02:46Z</time>
      </trkpt>
      <trkpt lat="46.9606" lon="4.29478">
        <ele>301.51</ele>
        <time>2021-08-12T13:02:55Z</time>
      </trkpt>
      <trkpt lat="46.96019" lon="4.2951">
        <ele>302.47</ele>
        <time>2021-08-12T13:03:05Z</time>
      </trkpt>
      <trkpt lat="46.95988" lon="4.29533">
        <ele>304.39</ele>
        <time>2021-08-12T13:03:14Z</time>
      </trkpt>
      <trkpt lat="46.95972" lon="4.29547">
        <ele>305.84</ele>
        <time>2021-08-12T13:03:20Z</time>
      </trkpt>
      <trkpt lat="46.95958" lon="4.29562">
        <ele>307.28</ele>
        <time>2021-08-12T13:03:27Z</time>
      </trkpt>
      <trkpt lat="46.95944" lon="4.29578">
        <ele>308.72</ele>
        <time>2021-08-12T13:03:35Z</time>
      </trkpt>
      <trkpt lat="46.95926" lon="4.29597">
        <ele>310.64</ele>
        <time>2021-08-12T13:03:44Z</time>
      </trkpt>
      <trkpt lat="46.95909" lon="4.29615">
        <ele>311.6</ele>
        <time>2021-08-12T13:03:52Z</time>
      </trkpt>
      <trkpt lat="46.959" lon="4.29624">
        <ele>312.57</ele>
        <time>2021-08-12T13:03:58Z</time>
      </trkpt>
      <trkpt lat="46.95882" lon="4.29646">
        <ele>314.01</ele>
        <time>2021-08-12T13:04:09Z</time>
      </trkpt>
      <trkpt lat="46.95859" lon="4.29665">
        <ele>314.49</ele>
        <time>2021-08-12T13:04:17Z</time>
      </trkpt>
      <trkpt lat="46.95842" lon="4.29681">
        <ele>315.45</ele>
        <time>2021-08-12T13:04:23Z</time>
      </trkpt>
      <trkpt lat="46.95811" lon="4.29704">
        <ele>316.41</ele>
        <time>2021-08-12T13:04:33Z</time>
      </trkpt>
      <trkpt lat="46.95781" lon="4.29734">
        <ele>317.85</ele>
        <time>2021-08-12T13:04:44Z</time>
      </trkpt>
      <trkpt lat="46.95748" lon="4.29763">
        <ele>317.85</ele>
        <time>2021-08-12T13:04:54Z</time>
      </trkpt>
      <trkpt lat="46.95719" lon="4.29787">
        <ele>318.33</ele>
        <time>2021-08-12T13:05:02Z</time>
      </trkpt>
      <trkpt lat="46.95687" lon="4.29816">
        <ele>319.3</ele>
        <time>2021-08-12T13:05:10Z</time>
      </trkpt>
      <trkpt lat="46.95679" lon="4.29824">
        <ele>319.3</ele>
        <time>2021-08-12T13:05:12Z</time>
      </trkpt>
      <trkpt lat="46.95645" lon="4.29855">
        <ele>320.26</ele>
        <time>2021-08-12T13:05:20Z</time>
      </trkpt>
      <trkpt lat="46.95619" lon="4.29886">
        <ele>320.74</ele>
        <time>2021-08-12T13:05:27Z</time>
      </trkpt>
      <trkpt lat="46.95586" lon="4.29911">
        <ele>321.22</ele>
        <time>2021-08-12T13:05:35Z</time>
      </trkpt>
      <trkpt lat="46.95584" lon="4.29915">
        <ele>321.22</ele>
        <time>2021-08-12T13:05:36Z</time>
      </trkpt>
      <trkpt lat="46.95584" lon="4.2992">
        <ele>321.22</ele>
        <time>2021-08-12T13:05:37Z</time>
      </trkpt>
      <trkpt lat="46.95585" lon="4.29925">
        <ele>321.22</ele>
        <time>2021-08-12T13:05:38Z</time>
      </trkpt>
      <trkpt lat="46.95587" lon="4.29929">
        <ele>321.22</ele>
        <time>2021-08-12T13:05:39Z</time>
      </trkpt>
      <trkpt lat="46.95589" lon="4.29933">
        <ele>321.22</ele>
        <time>2021-08-12T13:05:40Z</time>
      </trkpt>
      <trkpt lat="46.95605" lon="4.29974">
        <ele>321.22</ele>
        <time>2021-08-12T13:05:48Z</time>
      </trkpt>
      <trkpt lat="46.95616" lon="4.30012">
        <ele>319.78</ele>
        <time>2021-08-12T13:05:55Z</time>
      </trkpt>
      <trkpt lat="46.95614" lon="4.30018">
        <ele>319.3</ele>
        <time>2021-08-12T13:05:56Z</time>
      </trkpt>
      <trkpt lat="46.95612" lon="4.30023">
        <ele>319.3</ele>
        <time>2021-08-12T13:05:57Z</time>
      </trkpt>
      <trkpt lat="46.956" lon="4.30047">
        <ele>319.3</ele>
        <time>2021-08-12T13:06:01Z</time>
      </trkpt>
      <trkpt lat="46.95598" lon="4.30052">
        <ele>319.3</ele>
        <time>2021-08-12T13:06:02Z</time>
      </trkpt>
      <trkpt lat="46.95594" lon="4.30057">
        <ele>319.3</ele>
        <time>2021-08-12T13:06:03Z</time>
      </trkpt>
      <trkpt lat="46.95591" lon="4.30062">
        <ele>319.3</ele>
        <time>2021-08-12T13:06:04Z</time>
      </trkpt>
      <trkpt lat="46.95587" lon="4.30067">
        <ele>319.3</ele>
        <time>2021-08-12T13:06:05Z</time>
      </trkpt>
      <trkpt lat="46.95583" lon="4.30071">
        <ele>319.3</ele>
        <time>2021-08-12T13:06:06Z</time>
      </trkpt>
      <trkpt lat="46.95572" lon="4.30081">
        <ele>320.74</ele>
        <time>2021-08-12T13:06:09Z</time>
      </trkpt>
      <trkpt lat="46.95543" lon="4.301">
        <ele>321.22</ele>
        <time>2021-08-12T13:06:17Z</time>
      </trkpt>
      <trkpt lat="46.95509" lon="4.30124">
        <ele>321.7</ele>
        <time>2021-08-12T13:06:26Z</time>
      </trkpt>
      <trkpt lat="46.95474" lon="4.30148">
        <ele>321.7</ele>
        <time>2021-08-12T13:06:35Z</time>
      </trkpt>
      <trkpt lat="46.9544" lon="4.30173">
        <ele>322.18</ele>
        <time>2021-08-12T13:06:44Z</time>
      </trkpt>
      <trkpt lat="46.95417" lon="4.30193">
        <ele>322.66</ele>
        <time>2021-08-12T13:06:52Z</time>
      </trkpt>
      <trkpt lat="46.95406" lon="4.30198">
        <ele>323.14</ele>
        <time>2021-08-12T13:06:57Z</time>
      </trkpt>
      <trkpt lat="46.95405" lon="4.30195">
        <ele>323.14</ele>
        <time>2021-08-12T13:06:58Z</time>
      </trkpt>
      <trkpt lat="46.95403" lon="4.30191">
        <ele>323.14</ele>
        <time>2021-08-12T13:06:59Z</time>
      </trkpt>
      <trkpt lat="46.95401" lon="4.30186">
        <ele>323.14</ele>
        <time>2021-08-12T13:07:00Z</time>
      </trkpt>
      <trkpt lat="46.95398" lon="4.30181">
        <ele>323.14</ele>
        <time>2021-08-12T13:07:01Z</time>
      </trkpt>
      <trkpt lat="46.95395" lon="4.30176">
        <ele>323.14</ele>
        <time>2021-08-12T13:07:02Z</time>
      </trkpt>
      <trkpt lat="46.95392" lon="4.30172">
        <ele>323.14</ele>
        <time>2021-08-12T13:07:03Z</time>
      </trkpt>
      <trkpt lat="46.95376" lon="4.30147">
        <ele>323.62</ele>
        <time>2021-08-12T13:07:09Z</time>
      </trkpt>
      <trkpt lat="46.95363" lon="4.30127">
        <ele>324.1</ele>
        <time>2021-08-12T13:07:15Z</time>
      </trkpt>
      <trkpt lat="46.95347" lon="4.30101">
        <ele>324.58</ele>
        <time>2021-08-12T13:07:23Z</time>
      </trkpt>
      <trkpt lat="46.95332" lon="4.30089">
        <ele>325.06</ele>
        <time>2021-08-12T13:07:31Z</time>
      </trkpt>
      <trkpt lat="46.95332" lon="4.30087">
        <ele>325.06</ele>
        <time>2021-08-12T13:07:37Z</time>
      </trkpt>
      <trkpt lat="46.95332" lon="4.3008">
        <ele>325.06</ele>
        <time>2021-08-12T13:07:48Z</time>
      </trkpt>
      <trkpt lat="46.95331" lon="4.30078">
        <ele>325.06</ele>
        <time>2021-08-12T13:07:49Z</time>
      </trkpt>
      <trkpt lat="46.95331" lon="4.30076">
        <ele>325.06</ele>
        <time>2021-08-12T13:07:50Z</time>
      </trkpt>
      <trkpt lat="46.9533" lon="4.30074">
        <ele>325.06</ele>
        <time>2021-08-12T13:07:51Z</time>
      </trkpt>
      <trkpt lat="46.95327" lon="4.30072">
        <ele>325.06</ele>
        <time>2021-08-12T13:07:52Z</time>
      </trkpt>
      <trkpt lat="46.95324" lon="4.30069">
        <ele>325.06</ele>
        <time>2021-08-12T13:07:53Z</time>
      </trkpt>
      <trkpt lat="46.95321" lon="4.30064">
        <ele>325.06</ele>
        <time>2021-08-12T13:07:54Z</time>
      </trkpt>
      <trkpt lat="46.95319" lon="4.30057">
        <ele>325.06</ele>
        <time>2021-08-12T13:07:55Z</time>
      </trkpt>
      <trkpt lat="46.95318" lon="4.3005">
        <ele>325.06</ele>
        <time>2021-08-12T13:07:56Z</time>
      </trkpt>
      <trkpt lat="46.95318" lon="4.30043">
        <ele>325.06</ele>
        <time>2021-08-12T13:07:57Z</time>
      </trkpt>
      <trkpt lat="46.95317" lon="4.30027">
        <ele>325.06</ele>
        <time>2021-08-12T13:07:59Z</time>
      </trkpt>
      <trkpt lat="46.95324" lon="4.29973">
        <ele>325.06</ele>
        <time>2021-08-12T13:08:06Z</time>
      </trkpt>
      <trkpt lat="46.95324" lon="4.29966">
        <ele>325.06</ele>
        <time>2021-08-12T13:08:07Z</time>
      </trkpt>
      <trkpt lat="46.95322" lon="4.29959">
        <ele>325.06</ele>
        <time>2021-08-12T13:08:08Z</time>
      </trkpt>
      <trkpt lat="46.95319" lon="4.29953">
        <ele>325.06</ele>
        <time>2021-08-12T13:08:09Z</time>
      </trkpt>
      <trkpt lat="46.95316" lon="4.29948">
        <ele>325.06</ele>
        <time>2021-08-12T13:08:10Z</time>
      </trkpt>
      <trkpt lat="46.95308" lon="4.29935">
        <ele>325.06</ele>
        <time>2021-08-12T13:08:13Z</time>
      </trkpt>
      <trkpt lat="46.95309" lon="4.29933">
        <ele>325.06</ele>
        <time>2021-08-12T13:08:14Z</time>
      </trkpt>
      <trkpt lat="46.9531" lon="4.2993">
        <ele>325.06</ele>
        <time>2021-08-12T13:08:15Z</time>
      </trkpt>
      <trkpt lat="46.9531" lon="4.29928">
        <ele>325.06</ele>
        <time>2021-08-12T13:08:16Z</time>
      </trkpt>
      <trkpt lat="46.95309" lon="4.29928">
        <ele>325.06</ele>
        <time>2021-08-12T13:08:17Z</time>
      </trkpt>
      <trkpt lat="46.95307" lon="4.29929">
        <ele>325.06</ele>
        <time>2021-08-12T13:08:18Z</time>
      </trkpt>
      <trkpt lat="46.95305" lon="4.29929">
        <ele>325.06</ele>
        <time>2021-08-12T13:08:19Z</time>
      </trkpt>
      <trkpt lat="46.95302" lon="4.29926">
        <ele>325.06</ele>
        <time>2021-08-12T13:08:20Z</time>
      </trkpt>
      <trkpt lat="46.95288" lon="4.2991">
        <ele>325.06</ele>
        <time>2021-08-12T13:08:24Z</time>
      </trkpt>
      <trkpt lat="46.95266" lon="4.29869">
        <ele>325.54</ele>
        <time>2021-08-12T13:08:31Z</time>
      </trkpt>
      <trkpt lat="46.95237" lon="4.29816">
        <ele>326.02</ele>
        <time>2021-08-12T13:08:40Z</time>
      </trkpt>
      <trkpt lat="46.95216" lon="4.29774">
        <ele>326.02</ele>
        <time>2021-08-12T13:08:47Z</time>
      </trkpt>
      <trkpt lat="46.95212" lon="4.29767">
        <ele>326.02</ele>
        <time>2021-08-12T13:08:48Z</time>
      </trkpt>
      <trkpt lat="46.95209" lon="4.2976">
        <ele>326.02</ele>
        <time>2021-08-12T13:08:49Z</time>
      </trkpt>
      <trkpt lat="46.95205" lon="4.29754">
        <ele>326.02</ele>
        <time>2021-08-12T13:08:50Z</time>
      </trkpt>
      <trkpt lat="46.95203" lon="4.29749">
        <ele>326.02</ele>
        <time>2021-08-12T13:08:51Z</time>
      </trkpt>
      <trkpt lat="46.95199" lon="4.29744">
        <ele>326.02</ele>
        <time>2021-08-12T13:08:52Z</time>
      </trkpt>
      <trkpt lat="46.95196" lon="4.29736">
        <ele>326.02</ele>
        <time>2021-08-12T13:08:54Z</time>
      </trkpt>
      <trkpt lat="46.95195" lon="4.29731">
        <ele>326.02</ele>
        <time>2021-08-12T13:08:55Z</time>
      </trkpt>
      <trkpt lat="46.95194" lon="4.29728">
        <ele>326.02</ele>
        <time>2021-08-12T13:08:56Z</time>
      </trkpt>
      <trkpt lat="46.95193" lon="4.29727">
        <ele>326.02</ele>
        <time>2021-08-12T13:08:57Z</time>
      </trkpt>
      <trkpt lat="46.95191" lon="4.29726">
        <ele>326.02</ele>
        <time>2021-08-12T13:09:03Z</time>
      </trkpt>
      <trkpt lat="46.9519" lon="4.29722">
        <ele>326.02</ele>
        <time>2021-08-12T13:09:10Z</time>
      </trkpt>
      <trkpt lat="46.95189" lon="4.2972">
        <ele>326.02</ele>
        <time>2021-08-12T13:09:11Z</time>
      </trkpt>
      <trkpt lat="46.95188" lon="4.29719">
        <ele>326.02</ele>
        <time>2021-08-12T13:09:12Z</time>
      </trkpt>
      <trkpt lat="46.95187" lon="4.29719">
        <ele>326.02</ele>
        <time>2021-08-12T13:09:13Z</time>
      </trkpt>
      <trkpt lat="46.95186" lon="4.2972">
        <ele>326.02</ele>
        <time>2021-08-12T13:09:14Z</time>
      </trkpt>
      <trkpt lat="46.95174" lon="4.29732">
        <ele>326.02</ele>
        <time>2021-08-12T13:09:19Z</time>
      </trkpt>
      <trkpt lat="46.95153" lon="4.29751">
        <ele>327.95</ele>
        <time>2021-08-12T13:09:26Z</time>
      </trkpt>
      <trkpt lat="46.95129" lon="4.29772">
        <ele>328.91</ele>
        <time>2021-08-12T13:09:35Z</time>
      </trkpt>
      <trkpt lat="46.95106" lon="4.29789">
        <ele>329.87</ele>
        <time>2021-08-12T13:09:43Z</time>
      </trkpt>
      <trkpt lat="46.95097" lon="4.29801">
        <ele>330.35</ele>
        <time>2021-08-12T13:09:48Z</time>
      </trkpt>
      <trkpt lat="46.95096" lon="4.29803">
        <ele>330.35</ele>
        <time>2021-08-12T13:09:49Z</time>
      </trkpt>
      <trkpt lat="46.95096" lon="4.29806">
        <ele>330.35</ele>
        <time>2021-08-12T13:09:50Z</time>
      </trkpt>
      <trkpt lat="46.95096" lon="4.29809">
        <ele>330.35</ele>
        <time>2021-08-12T13:09:51Z</time>
      </trkpt>
      <trkpt lat="46.95095" lon="4.29811">
        <ele>330.35</ele>
        <time>2021-08-12T13:09:52Z</time>
      </trkpt>
      <trkpt lat="46.95092" lon="4.2981">
        <ele>330.35</ele>
        <time>2021-08-12T13:09:58Z</time>
      </trkpt>
      <trkpt lat="46.95089" lon="4.29805">
        <ele>330.83</ele>
        <time>2021-08-12T13:10:07Z</time>
      </trkpt>
      <trkpt lat="46.95087" lon="4.29799">
        <ele>330.83</ele>
        <time>2021-08-12T13:10:16Z</time>
      </trkpt>
      <trkpt lat="46.95086" lon="4.29793">
        <ele>330.83</ele>
        <time>2021-08-12T13:10:36Z</time>
      </trkpt>
      <trkpt lat="46.95086" lon="4.29791">
        <ele>330.83</ele>
        <time>2021-08-12T13:10:49Z</time>
      </trkpt>
      <trkpt lat="46.95086" lon="4.29792">
        <ele>330.83</ele>
        <time>2021-08-12T13:11:01Z</time>
      </trkpt>
      <trkpt lat="46.95085" lon="4.29792">
        <ele>330.83</ele>
        <time>2021-08-12T13:11:15Z</time>
      </trkpt>
      <trkpt lat="46.95084" lon="4.29791">
        <ele>330.83</ele>
        <time>2021-08-12T13:11:30Z</time>
      </trkpt>
      <trkpt lat="46.95084" lon="4.29792">
        <ele>330.83</ele>
        <time>2021-08-12T13:11:55Z</time>
      </trkpt>
      <trkpt lat="46.95084" lon="4.29793">
        <ele>330.83</ele>
        <time>2021-08-12T13:12:09Z</time>
      </trkpt>
      <trkpt lat="46.95085" lon="4.29794">
        <ele>330.83</ele>
        <time>2021-08-12T13:12:21Z</time>
      </trkpt>
      <trkpt lat="46.95088" lon="4.29799">
        <ele>330.83</ele>
        <time>2021-08-12T13:12:39Z</time>
      </trkpt>
      <trkpt lat="46.95088" lon="4.29801">
        <ele>330.83</ele>
        <time>2021-08-12T13:12:54Z</time>
      </trkpt>
      <trkpt lat="46.95088" lon="4.29801">
        <ele>330.83</ele>
        <time>2021-08-12T13:13:06Z</time>
      </trkpt>
      <trkpt lat="46.95088" lon="4.29801">
        <ele>330.83</ele>
        <time>2021-08-12T13:13:18Z</time>
      </trkpt>
      <trkpt lat="46.95088" lon="4.29799">
        <ele>330.83</ele>
        <time>2021-08-12T13:13:37Z</time>
      </trkpt>
      <trkpt lat="46.95088" lon="4.298">
        <ele>330.83</ele>
        <time>2021-08-12T13:13:50Z</time>
      </trkpt>
      <trkpt lat="46.95088" lon="4.29799">
        <ele>330.83</ele>
        <time>2021-08-12T13:13:58Z</time>
      </trkpt>
      <trkpt lat="46.95089" lon="4.29802">
        <ele>330.83</ele>
        <time>2021-08-12T13:14:05Z</time>
      </trkpt>
      <trkpt lat="46.9509" lon="4.29802">
        <ele>331.31</ele>
        <time>2021-08-12T13:14:19Z</time>
      </trkpt>
      <trkpt lat="46.95089" lon="4.298">
        <ele>331.31</ele>
        <time>2021-08-12T13:14:36Z</time>
      </trkpt>
      <trkpt lat="46.95089" lon="4.29801">
        <ele>331.31</ele>
        <time>2021-08-12T13:14:55Z</time>
      </trkpt>
      <trkpt lat="46.95088" lon="4.29803">
        <ele>331.31</ele>
        <time>2021-08-12T13:15:04Z</time>
      </trkpt>
      <trkpt lat="46.95088" lon="4.29802">
        <ele>331.31</ele>
        <time>2021-08-12T13:15:19Z</time>
      </trkpt>
      <trkpt lat="46.95088" lon="4.29801">
        <ele>330.83</ele>
        <time>2021-08-12T13:15:33Z</time>
      </trkpt>
      <trkpt lat="46.95087" lon="4.298">
        <ele>330.83</ele>
        <time>2021-08-12T13:15:49Z</time>
      </trkpt>
      <trkpt lat="46.95087" lon="4.29801">
        <ele>330.83</ele>
        <time>2021-08-12T13:15:56Z</time>
      </trkpt>
      <trkpt lat="46.95086" lon="4.29801">
        <ele>330.83</ele>
        <time>2021-08-12T13:16:08Z</time>
      </trkpt>
      <trkpt lat="46.95087" lon="4.298">
        <ele>330.83</ele>
        <time>2021-08-12T13:16:15Z</time>
      </trkpt>
      <trkpt lat="46.95089" lon="4.29799">
        <ele>330.83</ele>
        <time>2021-08-12T13:16:28Z</time>
      </trkpt>
      <trkpt lat="46.95089" lon="4.29801">
        <ele>330.83</ele>
        <time>2021-08-12T13:16:38Z</time>
      </trkpt>
      <trkpt lat="46.95088" lon="4.29802">
        <ele>330.83</ele>
        <time>2021-08-12T13:16:53Z</time>
      </trkpt>
      <trkpt lat="46.95088" lon="4.29799">
        <ele>330.83</ele>
        <time>2021-08-12T13:17:05Z</time>
      </trkpt>
      <trkpt lat="46.95087" lon="4.298">
        <ele>330.35</ele>
        <time>2021-08-12T13:17:16Z</time>
      </trkpt>
      <trkpt lat="46.95087" lon="4.29801">
        <ele>330.35</ele>
        <time>2021-08-12T13:17:26Z</time>
      </trkpt>
      <trkpt lat="46.95088" lon="4.29805">
        <ele>330.35</ele>
        <time>2021-08-12T13:17:42Z</time>
      </trkpt>
      <trkpt lat="46.95089" lon="4.29807">
        <ele>330.35</ele>
        <time>2021-08-12T13:17:50Z</time>
      </trkpt>
      <trkpt lat="46.95089" lon="4.29808">
        <ele>330.35</ele>
        <time>2021-08-12T13:18:00Z</time>
      </trkpt>
      <trkpt lat="46.95089" lon="4.29809">
        <ele>330.35</ele>
        <time>2021-08-12T13:18:09Z</time>
      </trkpt>
      <trkpt lat="46.95089" lon="4.29809">
        <ele>330.35</ele>
        <time>2021-08-12T13:18:16Z</time>
      </trkpt>
      <trkpt lat="46.95089" lon="4.2981">
        <ele>330.35</ele>
        <time>2021-08-12T13:18:27Z</time>
      </trkpt>
      <trkpt lat="46.9509" lon="4.29809">
        <ele>330.35</ele>
        <time>2021-08-12T13:18:39Z</time>
      </trkpt>
      <trkpt lat="46.9509" lon="4.29807">
        <ele>330.35</ele>
        <time>2021-08-12T13:18:53Z</time>
      </trkpt>
      <trkpt lat="46.9509" lon="4.29806">
        <ele>330.35</ele>
        <time>2021-08-12T13:19:03Z</time>
      </trkpt>
      <trkpt lat="46.95089" lon="4.29804">
        <ele>330.35</ele>
        <time>2021-08-12T13:19:17Z</time>
      </trkpt>
      <trkpt lat="46.95089" lon="4.29806">
        <ele>330.35</ele>
        <time>2021-08-12T13:19:33Z</time>
      </trkpt>
      <trkpt lat="46.9509" lon="4.2981">
        <ele>330.35</ele>
        <time>2021-08-12T13:19:46Z</time>
      </trkpt>
      <trkpt lat="46.95093" lon="4.29814">
        <ele>330.35</ele>
        <time>2021-08-12T13:19:57Z</time>
      </trkpt>
      <trkpt lat="46.95092" lon="4.29811">
        <ele>330.35</ele>
        <time>2021-08-12T13:20:08Z</time>
      </trkpt>
      <trkpt lat="46.95089" lon="4.29808">
        <ele>330.35</ele>
        <time>2021-08-12T13:20:20Z</time>
      </trkpt>
      <trkpt lat="46.95089" lon="4.29809">
        <ele>330.35</ele>
        <time>2021-08-12T13:20:33Z</time>
      </trkpt>
      <trkpt lat="46.95089" lon="4.2981">
        <ele>330.35</ele>
        <time>2021-08-12T13:20:45Z</time>
      </trkpt>
      <trkpt lat="46.95089" lon="4.29808">
        <ele>330.35</ele>
        <time>2021-08-12T13:21:00Z</time>
      </trkpt>
      <trkpt lat="46.95088" lon="4.29806">
        <ele>330.35</ele>
        <time>2021-08-12T13:21:18Z</time>
      </trkpt>
      <trkpt lat="46.95088" lon="4.29803">
        <ele>330.35</ele>
        <time>2021-08-12T13:21:32Z</time>
      </trkpt>
      <trkpt lat="46.95089" lon="4.29803">
        <ele>330.35</ele>
        <time>2021-08-12T13:21:43Z</time>
      </trkpt>
      <trkpt lat="46.9509" lon="4.29802">
        <ele>330.35</ele>
        <time>2021-08-12T13:21:56Z</time>
      </trkpt>
      <trkpt lat="46.9509" lon="4.29802">
        <ele>330.35</ele>
        <time>2021-08-12T13:22:05Z</time>
      </trkpt>
      <trkpt lat="46.9509" lon="4.29806">
        <ele>330.35</ele>
        <time>2021-08-12T13:22:18Z</time>
      </trkpt>
      <trkpt lat="46.95089" lon="4.29807">
        <ele>330.35</ele>
        <time>2021-08-12T13:22:31Z</time>
      </trkpt>
      <trkpt lat="46.95087" lon="4.29804">
        <ele>330.35</ele>
        <time>2021-08-12T13:22:46Z</time>
      </trkpt>
      <trkpt lat="46.95087" lon="4.29803">
        <ele>330.35</ele>
        <time>2021-08-12T13:22:53Z</time>
      </trkpt>
      <trkpt lat="46.95087" lon="4.29803">
        <ele>330.35</ele>
        <time>2021-08-12T13:22:54Z</time>
      </trkpt>
      <trkpt lat="46.95086" lon="4.29802">
        <ele>328.91</ele>
        <time>2021-08-12T13:22:59Z</time>
      </trkpt>
      <trkpt lat="46.95087" lon="4.29803">
        <ele>329.87</ele>
        <time>2021-08-12T13:23:03Z</time>
      </trkpt>
      <trkpt lat="46.95085" lon="4.298">
        <ele>329.87</ele>
        <time>2021-08-12T13:23:17Z</time>
      </trkpt>
      <trkpt lat="46.95086" lon="4.29798">
        <ele>330.35</ele>
        <time>2021-08-12T13:23:30Z</time>
      </trkpt>
      <trkpt lat="46.95088" lon="4.29799">
        <ele>330.35</ele>
        <time>2021-08-12T13:23:43Z</time>
      </trkpt>
      <trkpt lat="46.95088" lon="4.298">
        <ele>330.35</ele>
        <time>2021-08-12T13:23:52Z</time>
      </trkpt>
      <trkpt lat="46.95085" lon="4.29797">
        <ele>330.35</ele>
        <time>2021-08-12T13:24:01Z</time>
      </trkpt>
      <trkpt lat="46.95085" lon="4.29798">
        <ele>328.91</ele>
        <time>2021-08-12T13:24:10Z</time>
      </trkpt>
      <trkpt lat="46.95084" lon="4.29808">
        <ele>329.39</ele>
        <time>2021-08-12T13:24:17Z</time>
      </trkpt>
      <trkpt lat="46.95083" lon="4.2981">
        <ele>329.39</ele>
        <time>2021-08-12T13:24:18Z</time>
      </trkpt>
      <trkpt lat="46.95082" lon="4.29813">
        <ele>328.91</ele>
        <time>2021-08-12T13:24:19Z</time>
      </trkpt>
      <trkpt lat="46.95081" lon="4.29814">
        <ele>327.95</ele>
        <time>2021-08-12T13:24:20Z</time>
      </trkpt>
      <trkpt lat="46.95079" lon="4.29817">
        <ele>329.87</ele>
        <time>2021-08-12T13:24:21Z</time>
      </trkpt>
      <trkpt lat="46.95078" lon="4.29819">
        <ele>329.87</ele>
        <time>2021-08-12T13:24:22Z</time>
      </trkpt>
      <trkpt lat="46.95076" lon="4.29821">
        <ele>326.5</ele>
        <time>2021-08-12T13:24:23Z</time>
      </trkpt>
      <trkpt lat="46.95073" lon="4.29823">
        <ele>326.5</ele>
        <time>2021-08-12T13:24:24Z</time>
      </trkpt>
      <trkpt lat="46.95071" lon="4.29825">
        <ele>331.31</ele>
        <time>2021-08-12T13:24:25Z</time>
      </trkpt>
      <trkpt lat="46.95055" lon="4.29842">
        <ele>331.31</ele>
        <time>2021-08-12T13:24:33Z</time>
      </trkpt>
      <trkpt lat="46.9505" lon="4.29845">
        <ele>335.64</ele>
        <time>2021-08-12T13:24:35Z</time>
      </trkpt>
      <trkpt lat="46.95048" lon="4.29848">
        <ele>333.23</ele>
        <time>2021-08-12T13:24:36Z</time>
      </trkpt>
      <trkpt lat="46.95046" lon="4.2985">
        <ele>329.39</ele>
        <time>2021-08-12T13:24:37Z</time>
      </trkpt>
      <trkpt lat="46.95044" lon="4.29853">
        <ele>331.31</ele>
        <time>2021-08-12T13:24:38Z</time>
      </trkpt>
      <trkpt lat="46.95038" lon="4.29861">
        <ele>332.75</ele>
        <time>2021-08-12T13:24:42Z</time>
      </trkpt>
      <trkpt lat="46.95032" lon="4.29868">
        <ele>333.71</ele>
        <time>2021-08-12T13:24:46Z</time>
      </trkpt>
      <trkpt lat="46.9503" lon="4.29869">
        <ele>330.35</ele>
        <time>2021-08-12T13:24:47Z</time>
      </trkpt>
      <trkpt lat="46.95028" lon="4.2987">
        <ele>331.79</ele>
        <time>2021-08-12T13:24:48Z</time>
      </trkpt>
      <trkpt lat="46.95026" lon="4.29871">
        <ele>329.39</ele>
        <time>2021-08-12T13:24:49Z</time>
      </trkpt>
      <trkpt lat="46.95024" lon="4.29873">
        <ele>335.64</ele>
        <time>2021-08-12T13:24:50Z</time>
      </trkpt>
      <trkpt lat="46.95022" lon="4.29873">
        <ele>331.79</ele>
        <time>2021-08-12T13:24:51Z</time>
      </trkpt>
      <trkpt lat="46.9502" lon="4.29873">
        <ele>330.35</ele>
        <time>2021-08-12T13:24:52Z</time>
      </trkpt>
      <trkpt lat="46.95018" lon="4.29873">
        <ele>334.68</ele>
        <time>2021-08-12T13:24:53Z</time>
      </trkpt>
      <trkpt lat="46.95016" lon="4.29874">
        <ele>333.71</ele>
        <time>2021-08-12T13:24:54Z</time>
      </trkpt>
      <trkpt lat="46.95014" lon="4.29875">
        <ele>333.71</ele>
        <time>2021-08-12T13:24:55Z</time>
      </trkpt>
      <trkpt lat="46.95012" lon="4.29876">
        <ele>333.71</ele>
        <time>2021-08-12T13:24:56Z</time>
      </trkpt>
      <trkpt lat="46.95003" lon="4.29877">
        <ele>335.16</ele>
        <time>2021-08-12T13:25:00Z</time>
      </trkpt>
      <trkpt lat="46.94994" lon="4.29881">
        <ele>333.71</ele>
        <time>2021-08-12T13:25:04Z</time>
      </trkpt>
      <trkpt lat="46.94992" lon="4.29882">
        <ele>338.52</ele>
        <time>2021-08-12T13:25:05Z</time>
      </trkpt>
      <trkpt lat="46.9499" lon="4.29883">
        <ele>335.16</ele>
        <time>2021-08-12T13:25:06Z</time>
      </trkpt>
      <trkpt lat="46.94988" lon="4.29884">
        <ele>335.16</ele>
        <time>2021-08-12T13:25:07Z</time>
      </trkpt>
      <trkpt lat="46.94985" lon="4.29883">
        <ele>334.2</ele>
        <time>2021-08-12T13:25:08Z</time>
      </trkpt>
      <trkpt lat="46.94984" lon="4.29881">
        <ele>334.2</ele>
        <time>2021-08-12T13:25:09Z</time>
      </trkpt>
      <trkpt lat="46.94982" lon="4.29878">
        <ele>337.56</ele>
        <time>2021-08-12T13:25:10Z</time>
      </trkpt>
      <trkpt lat="46.94975" lon="4.29867">
        <ele>337.08</ele>
        <time>2021-08-12T13:25:14Z</time>
      </trkpt>
      <trkpt lat="46.94967" lon="4.29854">
        <ele>337.08</ele>
        <time>2021-08-12T13:25:21Z</time>
      </trkpt>
      <trkpt lat="46.94965" lon="4.29854">
        <ele>337.08</ele>
        <time>2021-08-12T13:25:22Z</time>
      </trkpt>
      <trkpt lat="46.94964" lon="4.29854">
        <ele>337.08</ele>
        <time>2021-08-12T13:25:23Z</time>
      </trkpt>
      <trkpt lat="46.94963" lon="4.29853">
        <ele>337.08</ele>
        <time>2021-08-12T13:25:24Z</time>
      </trkpt>
      <trkpt lat="46.94961" lon="4.29851">
        <ele>337.08</ele>
        <time>2021-08-12T13:25:26Z</time>
      </trkpt>
      <trkpt lat="46.94961" lon="4.29849">
        <ele>337.08</ele>
        <time>2021-08-12T13:25:33Z</time>
      </trkpt>
      <trkpt lat="46.9496" lon="4.29848">
        <ele>337.08</ele>
        <time>2021-08-12T13:25:44Z</time>
      </trkpt>
      <trkpt lat="46.94959" lon="4.2985">
        <ele>337.08</ele>
        <time>2021-08-12T13:25:51Z</time>
      </trkpt>
      <trkpt lat="46.94959" lon="4.29849">
        <ele>337.08</ele>
        <time>2021-08-12T13:26:08Z</time>
      </trkpt>
      <trkpt lat="46.9496" lon="4.29849">
        <ele>337.08</ele>
        <time>2021-08-12T13:26:26Z</time>
      </trkpt>
      <trkpt lat="46.94959" lon="4.29851">
        <ele>337.08</ele>
        <time>2021-08-12T13:26:45Z</time>
      </trkpt>
      <trkpt lat="46.94959" lon="4.29849">
        <ele>337.08</ele>
        <time>2021-08-12T13:27:03Z</time>
      </trkpt>
      <trkpt lat="46.94958" lon="4.2985">
        <ele>337.08</ele>
        <time>2021-08-12T13:27:24Z</time>
      </trkpt>
      <trkpt lat="46.9496" lon="4.29851">
        <ele>337.08</ele>
        <time>2021-08-12T13:27:51Z</time>
      </trkpt>
      <trkpt lat="46.9496" lon="4.2985">
        <ele>337.08</ele>
        <time>2021-08-12T13:28:16Z</time>
      </trkpt>
      <trkpt lat="46.94962" lon="4.29849">
        <ele>337.08</ele>
        <time>2021-08-12T13:28:37Z</time>
      </trkpt>
      <trkpt lat="46.94962" lon="4.29848">
        <ele>336.6</ele>
        <time>2021-08-12T13:28:45Z</time>
      </trkpt>
      <trkpt lat="46.94961" lon="4.29845">
        <ele>336.6</ele>
        <time>2021-08-12T13:29:11Z</time>
      </trkpt>
      <trkpt lat="46.94963" lon="4.29847">
        <ele>336.6</ele>
        <time>2021-08-12T13:29:35Z</time>
      </trkpt>
      <trkpt lat="46.94963" lon="4.29849">
        <ele>336.6</ele>
        <time>2021-08-12T13:29:59Z</time>
      </trkpt>
      <trkpt lat="46.94964" lon="4.29849">
        <ele>336.6</ele>
        <time>2021-08-12T13:30:19Z</time>
      </trkpt>
      <trkpt lat="46.94961" lon="4.29847">
        <ele>336.6</ele>
        <time>2021-08-12T13:30:49Z</time>
      </trkpt>
      <trkpt lat="46.94958" lon="4.29849">
        <ele>336.6</ele>
        <time>2021-08-12T13:31:12Z</time>
      </trkpt>
      <trkpt lat="46.94959" lon="4.29849">
        <ele>336.6</ele>
        <time>2021-08-12T13:31:36Z</time>
      </trkpt>
      <trkpt lat="46.94957" lon="4.29848">
        <ele>336.6</ele>
        <time>2021-08-12T13:32:02Z</time>
      </trkpt>
      <trkpt lat="46.94962" lon="4.29852">
        <ele>336.6</ele>
        <time>2021-08-12T13:32:34Z</time>
      </trkpt>
      <trkpt lat="46.94965" lon="4.29853">
        <ele>337.08</ele>
        <time>2021-08-12T13:32:54Z</time>
      </trkpt>
      <trkpt lat="46.94966" lon="4.29852">
        <ele>337.08</ele>
        <time>2021-08-12T13:33:13Z</time>
      </trkpt>
      <trkpt lat="46.9497" lon="4.29851">
        <ele>337.08</ele>
        <time>2021-08-12T13:33:39Z</time>
      </trkpt>
      <trkpt lat="46.94969" lon="4.2985">
        <ele>337.08</ele>
        <time>2021-08-12T13:34:00Z</time>
      </trkpt>
      <trkpt lat="46.94968" lon="4.29848">
        <ele>337.08</ele>
        <time>2021-08-12T13:34:15Z</time>
      </trkpt>
      <trkpt lat="46.94967" lon="4.29848">
        <ele>337.08</ele>
        <time>2021-08-12T13:34:22Z</time>
      </trkpt>
      <trkpt lat="46.94964" lon="4.29846">
        <ele>337.08</ele>
        <time>2021-08-12T13:34:44Z</time>
      </trkpt>
      <trkpt lat="46.94961" lon="4.29842">
        <ele>337.08</ele>
        <time>2021-08-12T13:35:07Z</time>
      </trkpt>
      <trkpt lat="46.94959" lon="4.29841">
        <ele>337.08</ele>
        <time>2021-08-12T13:35:23Z</time>
      </trkpt>
      <trkpt lat="46.94959" lon="4.29842">
        <ele>337.08</ele>
        <time>2021-08-12T13:35:42Z</time>
      </trkpt>
      <trkpt lat="46.94959" lon="4.29843">
        <ele>337.56</ele>
        <time>2021-08-12T13:36:12Z</time>
      </trkpt>
      <trkpt lat="46.94964" lon="4.29842">
        <ele>337.56</ele>
        <time>2021-08-12T13:36:34Z</time>
      </trkpt>
      <trkpt lat="46.94963" lon="4.29841">
        <ele>337.56</ele>
        <time>2021-08-12T13:36:59Z</time>
      </trkpt>
      <trkpt lat="46.94962" lon="4.29842">
        <ele>338.04</ele>
        <time>2021-08-12T13:37:19Z</time>
      </trkpt>
      <trkpt lat="46.94962" lon="4.29845">
        <ele>338.04</ele>
        <time>2021-08-12T13:37:41Z</time>
      </trkpt>
      <trkpt lat="46.94958" lon="4.29843">
        <ele>338.04</ele>
        <time>2021-08-12T13:38:01Z</time>
      </trkpt>
      <trkpt lat="46.94959" lon="4.29844">
        <ele>338.04</ele>
        <time>2021-08-12T13:38:24Z</time>
      </trkpt>
      <trkpt lat="46.9496" lon="4.29844">
        <ele>338.04</ele>
        <time>2021-08-12T13:38:33Z</time>
      </trkpt>
      <trkpt lat="46.9496" lon="4.29842">
        <ele>338.04</ele>
        <time>2021-08-12T13:38:38Z</time>
      </trkpt>
      <trkpt lat="46.9496" lon="4.29842">
        <ele>337.56</ele>
        <time>2021-08-12T13:38:44Z</time>
      </trkpt>
      <trkpt lat="46.94966" lon="4.2985">
        <ele>337.56</ele>
        <time>2021-08-12T13:39:06Z</time>
      </trkpt>
      <trkpt lat="46.94964" lon="4.29852">
        <ele>337.56</ele>
        <time>2021-08-12T13:39:28Z</time>
      </trkpt>
      <trkpt lat="46.94968" lon="4.29856">
        <ele>337.56</ele>
        <time>2021-08-12T13:39:47Z</time>
      </trkpt>
      <trkpt lat="46.9497" lon="4.29859">
        <ele>337.56</ele>
        <time>2021-08-12T13:40:02Z</time>
      </trkpt>
      <trkpt lat="46.94974" lon="4.29862">
        <ele>337.08</ele>
        <time>2021-08-12T13:40:20Z</time>
      </trkpt>
      <trkpt lat="46.94972" lon="4.2986">
        <ele>337.08</ele>
        <time>2021-08-12T13:40:41Z</time>
      </trkpt>
      <trkpt lat="46.94974" lon="4.2986">
        <ele>337.08</ele>
        <time>2021-08-12T13:41:05Z</time>
      </trkpt>
      <trkpt lat="46.94974" lon="4.2986">
        <ele>337.08</ele>
        <time>2021-08-12T13:41:19Z</time>
      </trkpt>
      <trkpt lat="46.9497" lon="4.29858">
        <ele>337.56</ele>
        <time>2021-08-12T13:41:38Z</time>
      </trkpt>
      <trkpt lat="46.94965" lon="4.29857">
        <ele>337.56</ele>
        <time>2021-08-12T13:41:56Z</time>
      </trkpt>
      <trkpt lat="46.94966" lon="4.29857">
        <ele>337.08</ele>
        <time>2021-08-12T13:42:16Z</time>
      </trkpt>
      <trkpt lat="46.94967" lon="4.29861">
        <ele>337.08</ele>
        <time>2021-08-12T13:42:37Z</time>
      </trkpt>
      <trkpt lat="46.94972" lon="4.29861">
        <ele>337.08</ele>
        <time>2021-08-12T13:42:53Z</time>
      </trkpt>
      <trkpt lat="46.94964" lon="4.29858">
        <ele>337.08</ele>
        <time>2021-08-12T13:43:12Z</time>
      </trkpt>
      <trkpt lat="46.94964" lon="4.29853">
        <ele>337.08</ele>
        <time>2021-08-12T13:43:34Z</time>
      </trkpt>
      <trkpt lat="46.94962" lon="4.2985">
        <ele>337.08</ele>
        <time>2021-08-12T13:43:51Z</time>
      </trkpt>
      <trkpt lat="46.94964" lon="4.29853">
        <ele>337.08</ele>
        <time>2021-08-12T13:44:09Z</time>
      </trkpt>
      <trkpt lat="46.94965" lon="4.29856">
        <ele>337.08</ele>
        <time>2021-08-12T13:44:21Z</time>
      </trkpt>
      <trkpt lat="46.94969" lon="4.29863">
        <ele>337.08</ele>
        <time>2021-08-12T13:44:40Z</time>
      </trkpt>
      <trkpt lat="46.94968" lon="4.29857">
        <ele>337.08</ele>
        <time>2021-08-12T13:44:59Z</time>
      </trkpt>
      <trkpt lat="46.94969" lon="4.29857">
        <ele>337.08</ele>
        <time>2021-08-12T13:45:18Z</time>
      </trkpt>
      <trkpt lat="46.94969" lon="4.29859">
        <ele>336.6</ele>
        <time>2021-08-12T13:45:39Z</time>
      </trkpt>
      <trkpt lat="46.94965" lon="4.29858">
        <ele>336.6</ele>
        <time>2021-08-12T13:45:57Z</time>
      </trkpt>
      <trkpt lat="46.94966" lon="4.29862">
        <ele>336.6</ele>
        <time>2021-08-12T13:46:11Z</time>
      </trkpt>
      <trkpt lat="46.94965" lon="4.29864">
        <ele>336.6</ele>
        <time>2021-08-12T13:46:22Z</time>
      </trkpt>
      <trkpt lat="46.94965" lon="4.29862">
        <ele>336.12</ele>
        <time>2021-08-12T13:46:37Z</time>
      </trkpt>
      <trkpt lat="46.94969" lon="4.2986">
        <ele>336.12</ele>
        <time>2021-08-12T13:46:51Z</time>
      </trkpt>
      <trkpt lat="46.94969" lon="4.29861">
        <ele>336.12</ele>
        <time>2021-08-12T13:47:01Z</time>
      </trkpt>
      <trkpt lat="46.94967" lon="4.29862">
        <ele>336.12</ele>
        <time>2021-08-12T13:47:12Z</time>
      </trkpt>
      <trkpt lat="46.94959" lon="4.29861">
        <ele>336.6</ele>
        <time>2021-08-12T13:47:17Z</time>
      </trkpt>
      <trkpt lat="46.94957" lon="4.2987">
        <ele>336.6</ele>
        <time>2021-08-12T13:47:26Z</time>
      </trkpt>
      <trkpt lat="46.94964" lon="4.2988">
        <ele>337.08</ele>
        <time>2021-08-12T13:47:37Z</time>
      </trkpt>
      <trkpt lat="46.94964" lon="4.29881">
        <ele>337.08</ele>
        <time>2021-08-12T13:47:47Z</time>
      </trkpt>
      <trkpt lat="46.94963" lon="4.29881">
        <ele>337.08</ele>
        <time>2021-08-12T13:47:48Z</time>
      </trkpt>
      <trkpt lat="46.94963" lon="4.29881">
        <ele>337.08</ele>
        <time>2021-08-12T13:47:55Z</time>
      </trkpt>
      <trkpt lat="46.94963" lon="4.29882">
        <ele>337.08</ele>
        <time>2021-08-12T13:48:02Z</time>
      </trkpt>
      <trkpt lat="46.94963" lon="4.29882">
        <ele>337.08</ele>
        <time>2021-08-12T13:48:15Z</time>
      </trkpt>
      <trkpt lat="46.94963" lon="4.29886">
        <ele>337.08</ele>
        <time>2021-08-12T13:48:33Z</time>
      </trkpt>
      <trkpt lat="46.94962" lon="4.29888">
        <ele>337.08</ele>
        <time>2021-08-12T13:48:45Z</time>
      </trkpt>
      <trkpt lat="46.9496" lon="4.2989">
        <ele>337.08</ele>
        <time>2021-08-12T13:48:59Z</time>
      </trkpt>
      <trkpt lat="46.9496" lon="4.29885">
        <ele>337.08</ele>
        <time>2021-08-12T13:49:18Z</time>
      </trkpt>
      <trkpt lat="46.94961" lon="4.29884">
        <ele>337.08</ele>
        <time>2021-08-12T13:49:37Z</time>
      </trkpt>
      <trkpt lat="46.94961" lon="4.29881">
        <ele>337.08</ele>
        <time>2021-08-12T13:49:52Z</time>
      </trkpt>
      <trkpt lat="46.94961" lon="4.29882">
        <ele>337.08</ele>
        <time>2021-08-12T13:50:13Z</time>
      </trkpt>
      <trkpt lat="46.94962" lon="4.29886">
        <ele>337.08</ele>
        <time>2021-08-12T13:50:32Z</time>
      </trkpt>
      <trkpt lat="46.94963" lon="4.29886">
        <ele>337.08</ele>
        <time>2021-08-12T13:50:49Z</time>
      </trkpt>
      <trkpt lat="46.94962" lon="4.29887">
        <ele>337.08</ele>
        <time>2021-08-12T13:51:14Z</time>
      </trkpt>
      <trkpt lat="46.94965" lon="4.29884">
        <ele>337.08</ele>
        <time>2021-08-12T13:51:36Z</time>
      </trkpt>
      <trkpt lat="46.94961" lon="4.29888">
        <ele>337.08</ele>
        <time>2021-08-12T13:51:53Z</time>
      </trkpt>
      <trkpt lat="46.94957" lon="4.29899">
        <ele>337.08</ele>
        <time>2021-08-12T13:52:12Z</time>
      </trkpt>
      <trkpt lat="46.94956" lon="4.29902">
        <ele>337.56</ele>
        <time>2021-08-12T13:52:30Z</time>
      </trkpt>
      <trkpt lat="46.94957" lon="4.29897">
        <ele>337.56</ele>
        <time>2021-08-12T13:52:45Z</time>
      </trkpt>
      <trkpt lat="46.9496" lon="4.29898">
        <ele>337.56</ele>
        <time>2021-08-12T13:52:51Z</time>
      </trkpt>
      <trkpt lat="46.9496" lon="4.29894">
        <ele>337.56</ele>
        <time>2021-08-12T13:52:57Z</time>
      </trkpt>
      <trkpt lat="46.94959" lon="4.29897">
        <ele>337.56</ele>
        <time>2021-08-12T13:53:20Z</time>
      </trkpt>
      <trkpt lat="46.94957" lon="4.29898">
        <ele>337.56</ele>
        <time>2021-08-12T13:53:37Z</time>
      </trkpt>
      <trkpt lat="46.94958" lon="4.29896">
        <ele>337.56</ele>
        <time>2021-08-12T13:53:54Z</time>
      </trkpt>
      <trkpt lat="46.94958" lon="4.29892">
        <ele>337.56</ele>
        <time>2021-08-12T13:54:14Z</time>
      </trkpt>
      <trkpt lat="46.94957" lon="4.29893">
        <ele>338.04</ele>
        <time>2021-08-12T13:54:37Z</time>
      </trkpt>
      <trkpt lat="46.94959" lon="4.29892">
        <ele>338.04</ele>
        <time>2021-08-12T13:54:52Z</time>
      </trkpt>
      <trkpt lat="46.9496" lon="4.29888">
        <ele>338.04</ele>
        <time>2021-08-12T13:55:11Z</time>
      </trkpt>
      <trkpt lat="46.94959" lon="4.29886">
        <ele>338.04</ele>
        <time>2021-08-12T13:55:29Z</time>
      </trkpt>
      <trkpt lat="46.94961" lon="4.29883">
        <ele>338.04</ele>
        <time>2021-08-12T13:55:49Z</time>
      </trkpt>
      <trkpt lat="46.94965" lon="4.29878">
        <ele>338.04</ele>
        <time>2021-08-12T13:56:08Z</time>
      </trkpt>
      <trkpt lat="46.94966" lon="4.29877">
        <ele>338.04</ele>
        <time>2021-08-12T13:56:26Z</time>
      </trkpt>
      <trkpt lat="46.94964" lon="4.29881">
        <ele>338.04</ele>
        <time>2021-08-12T13:56:44Z</time>
      </trkpt>
      <trkpt lat="46.94961" lon="4.29886">
        <ele>338.04</ele>
        <time>2021-08-12T13:57:08Z</time>
      </trkpt>
      <trkpt lat="46.94959" lon="4.29888">
        <ele>338.04</ele>
        <time>2021-08-12T13:57:29Z</time>
      </trkpt>
      <trkpt lat="46.94959" lon="4.29888">
        <ele>338.04</ele>
        <time>2021-08-12T13:57:45Z</time>
      </trkpt>
      <trkpt lat="46.94959" lon="4.29887">
        <ele>338.04</ele>
        <time>2021-08-12T13:57:53Z</time>
      </trkpt>
      <trkpt lat="46.94957" lon="4.29884">
        <ele>338.04</ele>
        <time>2021-08-12T13:58:18Z</time>
      </trkpt>
      <trkpt lat="46.94957" lon="4.29881">
        <ele>338.04</ele>
        <time>2021-08-12T13:58:39Z</time>
      </trkpt>
      <trkpt lat="46.94957" lon="4.29881">
        <ele>338.04</ele>
        <time>2021-08-12T13:59:00Z</time>
      </trkpt>
      <trkpt lat="46.94961" lon="4.29875">
        <ele>338.04</ele>
        <time>2021-08-12T13:59:20Z</time>
      </trkpt>
      <trkpt lat="46.94964" lon="4.29875">
        <ele>338.04</ele>
        <time>2021-08-12T13:59:41Z</time>
      </trkpt>
      <trkpt lat="46.94966" lon="4.29878">
        <ele>338.04</ele>
        <time>2021-08-12T13:59:57Z</time>
      </trkpt>
      <trkpt lat="46.94963" lon="4.29886">
        <ele>338.04</ele>
        <time>2021-08-12T14:00:15Z</time>
      </trkpt>
      <trkpt lat="46.94963" lon="4.29881">
        <ele>338.04</ele>
        <time>2021-08-12T14:00:39Z</time>
      </trkpt>
      <trkpt lat="46.94963" lon="4.29874">
        <ele>338.04</ele>
        <time>2021-08-12T14:01:01Z</time>
      </trkpt>
      <trkpt lat="46.94961" lon="4.29877">
        <ele>338.04</ele>
        <time>2021-08-12T14:01:17Z</time>
      </trkpt>
      <trkpt lat="46.94961" lon="4.29876">
        <ele>338.04</ele>
        <time>2021-08-12T14:01:39Z</time>
      </trkpt>
      <trkpt lat="46.94962" lon="4.29877">
        <ele>338.04</ele>
        <time>2021-08-12T14:01:55Z</time>
      </trkpt>
      <trkpt lat="46.94963" lon="4.29879">
        <ele>338.04</ele>
        <time>2021-08-12T14:02:12Z</time>
      </trkpt>
      <trkpt lat="46.94966" lon="4.29878">
        <ele>338.04</ele>
        <time>2021-08-12T14:02:29Z</time>
      </trkpt>
      <trkpt lat="46.94965" lon="4.2988">
        <ele>338.04</ele>
        <time>2021-08-12T14:02:46Z</time>
      </trkpt>
      <trkpt lat="46.94963" lon="4.29881">
        <ele>338.04</ele>
        <time>2021-08-12T14:02:57Z</time>
      </trkpt>
      <trkpt lat="46.94963" lon="4.29879">
        <ele>338.52</ele>
        <time>2021-08-12T14:03:16Z</time>
      </trkpt>
      <trkpt lat="46.94961" lon="4.29883">
        <ele>339</ele>
        <time>2021-08-12T14:03:40Z</time>
      </trkpt>
      <trkpt lat="46.94961" lon="4.29883">
        <ele>339</ele>
        <time>2021-08-12T14:03:54Z</time>
      </trkpt>
      <trkpt lat="46.94961" lon="4.29885">
        <ele>339</ele>
        <time>2021-08-12T14:04:16Z</time>
      </trkpt>
      <trkpt lat="46.94963" lon="4.29883">
        <ele>339</ele>
        <time>2021-08-12T14:04:36Z</time>
      </trkpt>
      <trkpt lat="46.9496" lon="4.29885">
        <ele>339</ele>
        <time>2021-08-12T14:04:53Z</time>
      </trkpt>
      <trkpt lat="46.9496" lon="4.29883">
        <ele>339</ele>
        <time>2021-08-12T14:05:18Z</time>
      </trkpt>
      <trkpt lat="46.9496" lon="4.29883">
        <ele>339</ele>
        <time>2021-08-12T14:05:40Z</time>
      </trkpt>
      <trkpt lat="46.94962" lon="4.29884">
        <ele>339</ele>
        <time>2021-08-12T14:05:56Z</time>
      </trkpt>
      <trkpt lat="46.94963" lon="4.29884">
        <ele>339</ele>
        <time>2021-08-12T14:06:10Z</time>
      </trkpt>
      <trkpt lat="46.94967" lon="4.29883">
        <ele>339</ele>
        <time>2021-08-12T14:06:27Z</time>
      </trkpt>
      <trkpt lat="46.94968" lon="4.29884">
        <ele>339</ele>
        <time>2021-08-12T14:06:48Z</time>
      </trkpt>
      <trkpt lat="46.94965" lon="4.29883">
        <ele>339.48</ele>
        <time>2021-08-12T14:07:12Z</time>
      </trkpt>
      <trkpt lat="46.94962" lon="4.29878">
        <ele>339.48</ele>
        <time>2021-08-12T14:07:27Z</time>
      </trkpt>
      <trkpt lat="46.9496" lon="4.29878">
        <ele>339.48</ele>
        <time>2021-08-12T14:07:50Z</time>
      </trkpt>
      <trkpt lat="46.94959" lon="4.29878">
        <ele>339.48</ele>
        <time>2021-08-12T14:08:08Z</time>
      </trkpt>
      <trkpt lat="46.94962" lon="4.2988">
        <ele>339.48</ele>
        <time>2021-08-12T14:08:27Z</time>
      </trkpt>
      <trkpt lat="46.94962" lon="4.29879">
        <ele>339.48</ele>
        <time>2021-08-12T14:08:47Z</time>
      </trkpt>
      <trkpt lat="46.9496" lon="4.29882">
        <ele>339.48</ele>
        <time>2021-08-12T14:09:03Z</time>
      </trkpt>
      <trkpt lat="46.94959" lon="4.29882">
        <ele>339.48</ele>
        <time>2021-08-12T14:09:23Z</time>
      </trkpt>
      <trkpt lat="46.94962" lon="4.29882">
        <ele>339.48</ele>
        <time>2021-08-12T14:09:43Z</time>
      </trkpt>
      <trkpt lat="46.94966" lon="4.29885">
        <ele>339.48</ele>
        <time>2021-08-12T14:10:00Z</time>
      </trkpt>
      <trkpt lat="46.94965" lon="4.29884">
        <ele>339.48</ele>
        <time>2021-08-12T14:10:20Z</time>
      </trkpt>
      <trkpt lat="46.94964" lon="4.29882">
        <ele>339.48</ele>
        <time>2021-08-12T14:10:42Z</time>
      </trkpt>
      <trkpt lat="46.94965" lon="4.29883">
        <ele>339.48</ele>
        <time>2021-08-12T14:11:07Z</time>
      </trkpt>
      <trkpt lat="46.94963" lon="4.29884">
        <ele>339.48</ele>
        <time>2021-08-12T14:11:25Z</time>
      </trkpt>
      <trkpt lat="46.94963" lon="4.29884">
        <ele>339.48</ele>
        <time>2021-08-12T14:11:39Z</time>
      </trkpt>
      <trkpt lat="46.94963" lon="4.29887">
        <ele>339.48</ele>
        <time>2021-08-12T14:11:56Z</time>
      </trkpt>
      <trkpt lat="46.94962" lon="4.29884">
        <ele>339</ele>
        <time>2021-08-12T14:12:08Z</time>
      </trkpt>
      <trkpt lat="46.9496" lon="4.29879">
        <ele>339</ele>
        <time>2021-08-12T14:12:29Z</time>
      </trkpt>
      <trkpt lat="46.94963" lon="4.29875">
        <ele>339</ele>
        <time>2021-08-12T14:12:52Z</time>
      </trkpt>
      <trkpt lat="46.94962" lon="4.29879">
        <ele>339</ele>
        <time>2021-08-12T14:13:17Z</time>
      </trkpt>
      <trkpt lat="46.9496" lon="4.29882">
        <ele>339</ele>
        <time>2021-08-12T14:13:36Z</time>
      </trkpt>
      <trkpt lat="46.94961" lon="4.2988">
        <ele>339</ele>
        <time>2021-08-12T14:13:58Z</time>
      </trkpt>
      <trkpt lat="46.94961" lon="4.29884">
        <ele>339</ele>
        <time>2021-08-12T14:14:22Z</time>
      </trkpt>
      <trkpt lat="46.94963" lon="4.29883">
        <ele>338.52</ele>
        <time>2021-08-12T14:14:35Z</time>
      </trkpt>
      <trkpt lat="46.94965" lon="4.2988">
        <ele>338.52</ele>
        <time>2021-08-12T14:14:57Z</time>
      </trkpt>
      <trkpt lat="46.94966" lon="4.29882">
        <ele>338.52</ele>
        <time>2021-08-12T14:15:14Z</time>
      </trkpt>
      <trkpt lat="46.94966" lon="4.29882">
        <ele>338.52</ele>
        <time>2021-08-12T14:15:35Z</time>
      </trkpt>
      <trkpt lat="46.94964" lon="4.2988">
        <ele>338.52</ele>
        <time>2021-08-12T14:15:54Z</time>
      </trkpt>
      <trkpt lat="46.94963" lon="4.29881">
        <ele>338.52</ele>
        <time>2021-08-12T14:16:08Z</time>
      </trkpt>
      <trkpt lat="46.94962" lon="4.29882">
        <ele>338.52</ele>
        <time>2021-08-12T14:16:31Z</time>
      </trkpt>
      <trkpt lat="46.94963" lon="4.2988">
        <ele>338.52</ele>
        <time>2021-08-12T14:16:50Z</time>
      </trkpt>
      <trkpt lat="46.94963" lon="4.2988">
        <ele>338.52</ele>
        <time>2021-08-12T14:17:07Z</time>
      </trkpt>
      <trkpt lat="46.94964" lon="4.29881">
        <ele>338.52</ele>
        <time>2021-08-12T14:17:26Z</time>
      </trkpt>
      <trkpt lat="46.94962" lon="4.29886">
        <ele>338.52</ele>
        <time>2021-08-12T14:17:44Z</time>
      </trkpt>
      <trkpt lat="46.94962" lon="4.29886">
        <ele>338.52</ele>
        <time>2021-08-12T14:17:51Z</time>
      </trkpt>
      <trkpt lat="46.94963" lon="4.29885">
        <ele>338.52</ele>
        <time>2021-08-12T14:18:01Z</time>
      </trkpt>
      <trkpt lat="46.94962" lon="4.29886">
        <ele>338.52</ele>
        <time>2021-08-12T14:18:09Z</time>
      </trkpt>
      <trkpt lat="46.94963" lon="4.29886">
        <ele>338.52</ele>
        <time>2021-08-12T14:18:20Z</time>
      </trkpt>
      <trkpt lat="46.94963" lon="4.29887">
        <ele>338.52</ele>
        <time>2021-08-12T14:18:22Z</time>
      </trkpt>
      <trkpt lat="46.94967" lon="4.29895">
        <ele>338.52</ele>
        <time>2021-08-12T14:18:27Z</time>
      </trkpt>
      <trkpt lat="46.94979" lon="4.2991">
        <ele>338.52</ele>
        <time>2021-08-12T14:18:35Z</time>
      </trkpt>
      <trkpt lat="46.94984" lon="4.29914">
        <ele>336.6</ele>
        <time>2021-08-12T14:18:38Z</time>
      </trkpt>
      <trkpt lat="46.94988" lon="4.29916">
        <ele>336.6</ele>
        <time>2021-08-12T14:18:40Z</time>
      </trkpt>
      <trkpt lat="46.94991" lon="4.29915">
        <ele>336.12</ele>
        <time>2021-08-12T14:18:41Z</time>
      </trkpt>
      <trkpt lat="46.94994" lon="4.29912">
        <ele>336.12</ele>
        <time>2021-08-12T14:18:42Z</time>
      </trkpt>
      <trkpt lat="46.95012" lon="4.2988">
        <ele>334.68</ele>
        <time>2021-08-12T14:18:49Z</time>
      </trkpt>
      <trkpt lat="46.95025" lon="4.29871">
        <ele>333.23</ele>
        <time>2021-08-12T14:18:54Z</time>
      </trkpt>
      <trkpt lat="46.95041" lon="4.29857">
        <ele>331.79</ele>
        <time>2021-08-12T14:19:00Z</time>
      </trkpt>
      <trkpt lat="46.95068" lon="4.29832">
        <ele>330.35</ele>
        <time>2021-08-12T14:19:07Z</time>
      </trkpt>
      <trkpt lat="46.95096" lon="4.29804">
        <ele>329.39</ele>
        <time>2021-08-12T14:19:15Z</time>
      </trkpt>
      <trkpt lat="46.95119" lon="4.29784">
        <ele>328.43</ele>
        <time>2021-08-12T14:19:23Z</time>
      </trkpt>
      <trkpt lat="46.95141" lon="4.29761">
        <ele>327.47</ele>
        <time>2021-08-12T14:19:29Z</time>
      </trkpt>
      <trkpt lat="46.95145" lon="4.29756">
        <ele>326.99</ele>
        <time>2021-08-12T14:19:30Z</time>
      </trkpt>
      <trkpt lat="46.9517" lon="4.29732">
        <ele>326.02</ele>
        <time>2021-08-12T14:19:36Z</time>
      </trkpt>
      <trkpt lat="46.95176" lon="4.29723">
        <ele>326.02</ele>
        <time>2021-08-12T14:19:39Z</time>
      </trkpt>
      <trkpt lat="46.95178" lon="4.2972">
        <ele>326.02</ele>
        <time>2021-08-12T14:19:40Z</time>
      </trkpt>
      <trkpt lat="46.95178" lon="4.29716">
        <ele>325.54</ele>
        <time>2021-08-12T14:19:41Z</time>
      </trkpt>
      <trkpt lat="46.95178" lon="4.29711">
        <ele>325.54</ele>
        <time>2021-08-12T14:19:42Z</time>
      </trkpt>
      <trkpt lat="46.95177" lon="4.29707">
        <ele>325.54</ele>
        <time>2021-08-12T14:19:43Z</time>
      </trkpt>
      <trkpt lat="46.95177" lon="4.29701">
        <ele>325.54</ele>
        <time>2021-08-12T14:19:44Z</time>
      </trkpt>
      <trkpt lat="46.95176" lon="4.29696">
        <ele>325.54</ele>
        <time>2021-08-12T14:19:45Z</time>
      </trkpt>
      <trkpt lat="46.95174" lon="4.29691">
        <ele>325.06</ele>
        <time>2021-08-12T14:19:46Z</time>
      </trkpt>
      <trkpt lat="46.95173" lon="4.29686">
        <ele>325.06</ele>
        <time>2021-08-12T14:19:47Z</time>
      </trkpt>
      <trkpt lat="46.9515" lon="4.29636">
        <ele>324.58</ele>
        <time>2021-08-12T14:19:57Z</time>
      </trkpt>
      <trkpt lat="46.9513" lon="4.29603">
        <ele>324.1</ele>
        <time>2021-08-12T14:20:05Z</time>
      </trkpt>
      <trkpt lat="46.95127" lon="4.29603">
        <ele>324.1</ele>
        <time>2021-08-12T14:20:06Z</time>
      </trkpt>
      <trkpt lat="46.95125" lon="4.29605">
        <ele>324.1</ele>
        <time>2021-08-12T14:20:07Z</time>
      </trkpt>
      <trkpt lat="46.95123" lon="4.29607">
        <ele>324.1</ele>
        <time>2021-08-12T14:20:08Z</time>
      </trkpt>
      <trkpt lat="46.95121" lon="4.2961">
        <ele>324.1</ele>
        <time>2021-08-12T14:20:09Z</time>
      </trkpt>
      <trkpt lat="46.95119" lon="4.29613">
        <ele>324.1</ele>
        <time>2021-08-12T14:20:10Z</time>
      </trkpt>
      <trkpt lat="46.95117" lon="4.29615">
        <ele>324.1</ele>
        <time>2021-08-12T14:20:11Z</time>
      </trkpt>
      <trkpt lat="46.95115" lon="4.29618">
        <ele>325.06</ele>
        <time>2021-08-12T14:20:12Z</time>
      </trkpt>
      <trkpt lat="46.95113" lon="4.2962">
        <ele>325.06</ele>
        <time>2021-08-12T14:20:13Z</time>
      </trkpt>
      <trkpt lat="46.951" lon="4.29638">
        <ele>326.02</ele>
        <time>2021-08-12T14:20:20Z</time>
      </trkpt>
      <trkpt lat="46.95085" lon="4.29654">
        <ele>326.5</ele>
        <time>2021-08-12T14:20:27Z</time>
      </trkpt>
      <trkpt lat="46.95063" lon="4.29673">
        <ele>327.47</ele>
        <time>2021-08-12T14:20:36Z</time>
      </trkpt>
      <trkpt lat="46.9505" lon="4.29682">
        <ele>328.43</ele>
        <time>2021-08-12T14:20:43Z</time>
      </trkpt>
      <trkpt lat="46.95039" lon="4.29684">
        <ele>328.91</ele>
        <time>2021-08-12T14:20:50Z</time>
      </trkpt>
      <trkpt lat="46.95033" lon="4.29683">
        <ele>329.39</ele>
        <time>2021-08-12T14:20:53Z</time>
      </trkpt>
      <trkpt lat="46.95031" lon="4.29682">
        <ele>329.39</ele>
        <time>2021-08-12T14:20:54Z</time>
      </trkpt>
      <trkpt lat="46.95029" lon="4.29683">
        <ele>329.39</ele>
        <time>2021-08-12T14:20:55Z</time>
      </trkpt>
      <trkpt lat="46.95027" lon="4.29683">
        <ele>329.39</ele>
        <time>2021-08-12T14:20:56Z</time>
      </trkpt>
      <trkpt lat="46.95025" lon="4.29685">
        <ele>329.87</ele>
        <time>2021-08-12T14:20:57Z</time>
      </trkpt>
      <trkpt lat="46.95023" lon="4.29687">
        <ele>329.87</ele>
        <time>2021-08-12T14:20:58Z</time>
      </trkpt>
      <trkpt lat="46.95021" lon="4.29688">
        <ele>330.35</ele>
        <time>2021-08-12T14:20:59Z</time>
      </trkpt>
      <trkpt lat="46.9502" lon="4.29689">
        <ele>330.35</ele>
        <time>2021-08-12T14:21:00Z</time>
      </trkpt>
      <trkpt lat="46.95019" lon="4.2969">
        <ele>330.35</ele>
        <time>2021-08-12T14:21:01Z</time>
      </trkpt>
      <trkpt lat="46.95018" lon="4.29691">
        <ele>330.35</ele>
        <time>2021-08-12T14:21:02Z</time>
      </trkpt>
      <trkpt lat="46.95016" lon="4.29692">
        <ele>330.35</ele>
        <time>2021-08-12T14:21:03Z</time>
      </trkpt>
      <trkpt lat="46.95015" lon="4.29692">
        <ele>330.83</ele>
        <time>2021-08-12T14:21:04Z</time>
      </trkpt>
      <trkpt lat="46.95014" lon="4.29693">
        <ele>330.83</ele>
        <time>2021-08-12T14:21:05Z</time>
      </trkpt>
      <trkpt lat="46.95004" lon="4.29704">
        <ele>331.31</ele>
        <time>2021-08-12T14:21:12Z</time>
      </trkpt>
      <trkpt lat="46.94988" lon="4.29717">
        <ele>332.75</ele>
        <time>2021-08-12T14:21:22Z</time>
      </trkpt>
      <trkpt lat="46.94975" lon="4.29731">
        <ele>333.71</ele>
        <time>2021-08-12T14:21:31Z</time>
      </trkpt>
      <trkpt lat="46.94966" lon="4.29747">
        <ele>335.16</ele>
        <time>2021-08-12T14:21:39Z</time>
      </trkpt>
      <trkpt lat="46.94956" lon="4.29756">
        <ele>335.16</ele>
        <time>2021-08-12T14:21:46Z</time>
      </trkpt>
      <trkpt lat="46.94944" lon="4.29763">
        <ele>336.6</ele>
        <time>2021-08-12T14:21:54Z</time>
      </trkpt>
      <trkpt lat="46.9493" lon="4.29771">
        <ele>337.08</ele>
        <time>2021-08-12T14:22:02Z</time>
      </trkpt>
      <trkpt lat="46.94918" lon="4.29781">
        <ele>337.56</ele>
        <time>2021-08-12T14:22:09Z</time>
      </trkpt>
      <trkpt lat="46.94915" lon="4.29785">
        <ele>338.52</ele>
        <time>2021-08-12T14:22:15Z</time>
      </trkpt>
      <trkpt lat="46.94916" lon="4.29788">
        <ele>338.52</ele>
        <time>2021-08-12T14:22:30Z</time>
      </trkpt>
      <trkpt lat="46.94916" lon="4.29784">
        <ele>338.52</ele>
        <time>2021-08-12T14:22:42Z</time>
      </trkpt>
      <trkpt lat="46.94915" lon="4.29783">
        <ele>338.52</ele>
        <time>2021-08-12T14:22:57Z</time>
      </trkpt>
      <trkpt lat="46.94911" lon="4.29784">
        <ele>338.52</ele>
        <time>2021-08-12T14:23:19Z</time>
      </trkpt>
      <trkpt lat="46.94912" lon="4.29785">
        <ele>339</ele>
        <time>2021-08-12T14:23:42Z</time>
      </trkpt>
      <trkpt lat="46.94912" lon="4.29784">
        <ele>339</ele>
        <time>2021-08-12T14:24:02Z</time>
      </trkpt>
      <trkpt lat="46.94912" lon="4.29784">
        <ele>339</ele>
        <time>2021-08-12T14:24:23Z</time>
      </trkpt>
      <trkpt lat="46.94912" lon="4.29782">
        <ele>339.48</ele>
        <time>2021-08-12T14:24:47Z</time>
      </trkpt>
      <trkpt lat="46.94912" lon="4.29784">
        <ele>339.96</ele>
        <time>2021-08-12T14:25:10Z</time>
      </trkpt>
      <trkpt lat="46.94913" lon="4.29781">
        <ele>339.96</ele>
        <time>2021-08-12T14:25:26Z</time>
      </trkpt>
      <trkpt lat="46.94913" lon="4.29781">
        <ele>339.96</ele>
        <time>2021-08-12T14:25:41Z</time>
      </trkpt>
      <trkpt lat="46.94913" lon="4.29783">
        <ele>339.96</ele>
        <time>2021-08-12T14:25:56Z</time>
      </trkpt>
      <trkpt lat="46.94912" lon="4.29784">
        <ele>339.96</ele>
        <time>2021-08-12T14:26:00Z</time>
      </trkpt>
      <trkpt lat="46.94912" lon="4.29787">
        <ele>340.44</ele>
        <time>2021-08-12T14:26:06Z</time>
      </trkpt>
      <trkpt lat="46.94916" lon="4.29784">
        <ele>340.92</ele>
        <time>2021-08-12T14:26:12Z</time>
      </trkpt>
      <trkpt lat="46.94915" lon="4.29785">
        <ele>340.92</ele>
        <time>2021-08-12T14:26:31Z</time>
      </trkpt>
      <trkpt lat="46.94916" lon="4.29785">
        <ele>340.92</ele>
        <time>2021-08-12T14:26:45Z</time>
      </trkpt>
      <trkpt lat="46.94915" lon="4.29789">
        <ele>340.92</ele>
        <time>2021-08-12T14:26:48Z</time>
      </trkpt>
      <trkpt lat="46.94912" lon="4.2979">
        <ele>340.92</ele>
        <time>2021-08-12T14:26:52Z</time>
      </trkpt>
      <trkpt lat="46.9491" lon="4.29788">
        <ele>340.92</ele>
        <time>2021-08-12T14:26:54Z</time>
      </trkpt>
      <trkpt lat="46.94906" lon="4.29794">
        <ele>340.92</ele>
        <time>2021-08-12T14:27:00Z</time>
      </trkpt>
      <trkpt lat="46.94897" lon="4.29798">
        <ele>341.41</ele>
        <time>2021-08-12T14:27:06Z</time>
      </trkpt>
      <trkpt lat="46.94891" lon="4.29802">
        <ele>341.41</ele>
        <time>2021-08-12T14:27:13Z</time>
      </trkpt>
      <trkpt lat="46.94893" lon="4.29803">
        <ele>341.89</ele>
        <time>2021-08-12T14:27:21Z</time>
      </trkpt>
      <trkpt lat="46.94892" lon="4.29802">
        <ele>341.89</ele>
        <time>2021-08-12T14:27:40Z</time>
      </trkpt>
      <trkpt lat="46.94891" lon="4.29803">
        <ele>341.89</ele>
        <time>2021-08-12T14:27:50Z</time>
      </trkpt>
      <trkpt lat="46.94892" lon="4.29801">
        <ele>341.89</ele>
        <time>2021-08-12T14:28:12Z</time>
      </trkpt>
      <trkpt lat="46.94893" lon="4.29799">
        <ele>341.89</ele>
        <time>2021-08-12T14:28:28Z</time>
      </trkpt>
      <trkpt lat="46.94891" lon="4.29802">
        <ele>341.89</ele>
        <time>2021-08-12T14:28:49Z</time>
      </trkpt>
      <trkpt lat="46.94889" lon="4.29801">
        <ele>342.37</ele>
        <time>2021-08-12T14:29:15Z</time>
      </trkpt>
      <trkpt lat="46.94888" lon="4.29802">
        <ele>342.37</ele>
        <time>2021-08-12T14:29:39Z</time>
      </trkpt>
      <trkpt lat="46.94889" lon="4.29805">
        <ele>342.37</ele>
        <time>2021-08-12T14:29:52Z</time>
      </trkpt>
      <trkpt lat="46.94893" lon="4.29807">
        <ele>342.37</ele>
        <time>2021-08-12T14:30:11Z</time>
      </trkpt>
      <trkpt lat="46.94895" lon="4.29804">
        <ele>342.85</ele>
        <time>2021-08-12T14:30:34Z</time>
      </trkpt>
      <trkpt lat="46.94893" lon="4.298">
        <ele>343.33</ele>
        <time>2021-08-12T14:30:57Z</time>
      </trkpt>
      <trkpt lat="46.94893" lon="4.29802">
        <ele>343.33</ele>
        <time>2021-08-12T14:31:17Z</time>
      </trkpt>
      <trkpt lat="46.94891" lon="4.298">
        <ele>343.33</ele>
        <time>2021-08-12T14:31:41Z</time>
      </trkpt>
      <trkpt lat="46.9489" lon="4.29803">
        <ele>343.81</ele>
        <time>2021-08-12T14:32:04Z</time>
      </trkpt>
      <trkpt lat="46.9489" lon="4.29804">
        <ele>343.81</ele>
        <time>2021-08-12T14:32:22Z</time>
      </trkpt>
      <trkpt lat="46.94891" lon="4.29802">
        <ele>343.81</ele>
        <time>2021-08-12T14:32:41Z</time>
      </trkpt>
      <trkpt lat="46.94891" lon="4.29803">
        <ele>344.29</ele>
        <time>2021-08-12T14:33:01Z</time>
      </trkpt>
      <trkpt lat="46.9489" lon="4.29804">
        <ele>344.77</ele>
        <time>2021-08-12T14:33:12Z</time>
      </trkpt>
      <trkpt lat="46.94889" lon="4.29807">
        <ele>344.77</ele>
        <time>2021-08-12T14:33:32Z</time>
      </trkpt>
      <trkpt lat="46.94886" lon="4.29807">
        <ele>344.77</ele>
        <time>2021-08-12T14:33:52Z</time>
      </trkpt>
      <trkpt lat="46.94889" lon="4.29803">
        <ele>345.25</ele>
        <time>2021-08-12T14:34:17Z</time>
      </trkpt>
      <trkpt lat="46.94889" lon="4.29803">
        <ele>345.25</ele>
        <time>2021-08-12T14:34:39Z</time>
      </trkpt>
      <trkpt lat="46.94888" lon="4.29804">
        <ele>345.73</ele>
        <time>2021-08-12T14:35:04Z</time>
      </trkpt>
      <trkpt lat="46.94888" lon="4.29804">
        <ele>345.73</ele>
        <time>2021-08-12T14:35:21Z</time>
      </trkpt>
      <trkpt lat="46.94889" lon="4.29803">
        <ele>345.73</ele>
        <time>2021-08-12T14:35:44Z</time>
      </trkpt>
      <trkpt lat="46.94886" lon="4.29804">
        <ele>345.73</ele>
        <time>2021-08-12T14:36:04Z</time>
      </trkpt>
      <trkpt lat="46.94887" lon="4.29803">
        <ele>346.21</ele>
        <time>2021-08-12T14:36:29Z</time>
      </trkpt>
      <trkpt lat="46.94888" lon="4.29803">
        <ele>346.21</ele>
        <time>2021-08-12T14:36:49Z</time>
      </trkpt>
      <trkpt lat="46.94887" lon="4.29801">
        <ele>346.21</ele>
        <time>2021-08-12T14:37:09Z</time>
      </trkpt>
      <trkpt lat="46.94888" lon="4.29803">
        <ele>346.21</ele>
        <time>2021-08-12T14:37:30Z</time>
      </trkpt>
      <trkpt lat="46.94888" lon="4.29804">
        <ele>346.21</ele>
        <time>2021-08-12T14:37:41Z</time>
      </trkpt>
      <trkpt lat="46.94891" lon="4.29802">
        <ele>346.21</ele>
        <time>2021-08-12T14:37:55Z</time>
      </trkpt>
      <trkpt lat="46.94889" lon="4.29806">
        <ele>346.21</ele>
        <time>2021-08-12T14:38:13Z</time>
      </trkpt>
      <trkpt lat="46.94886" lon="4.29808">
        <ele>346.21</ele>
        <time>2021-08-12T14:38:28Z</time>
      </trkpt>
      <trkpt lat="46.94876" lon="4.29814">
        <ele>346.69</ele>
        <time>2021-08-12T14:38:39Z</time>
      </trkpt>
      <trkpt lat="46.94872" lon="4.2982">
        <ele>347.65</ele>
        <time>2021-08-12T14:38:49Z</time>
      </trkpt>
      <trkpt lat="46.9487" lon="4.29823">
        <ele>347.65</ele>
        <time>2021-08-12T14:38:55Z</time>
      </trkpt>
      <trkpt lat="46.94871" lon="4.29823">
        <ele>348.13</ele>
        <time>2021-08-12T14:39:02Z</time>
      </trkpt>
      <trkpt lat="46.94873" lon="4.29821">
        <ele>348.13</ele>
        <time>2021-08-12T14:39:20Z</time>
      </trkpt>
      <trkpt lat="46.94874" lon="4.29821">
        <ele>348.13</ele>
        <time>2021-08-12T14:39:41Z</time>
      </trkpt>
      <trkpt lat="46.94876" lon="4.29819">
        <ele>348.13</ele>
        <time>2021-08-12T14:39:55Z</time>
      </trkpt>
      <trkpt lat="46.94878" lon="4.2982">
        <ele>348.13</ele>
        <time>2021-08-12T14:40:14Z</time>
      </trkpt>
      <trkpt lat="46.94877" lon="4.29823">
        <ele>348.13</ele>
        <time>2021-08-12T14:40:37Z</time>
      </trkpt>
      <trkpt lat="46.94875" lon="4.29824">
        <ele>348.62</ele>
        <time>2021-08-12T14:40:56Z</time>
      </trkpt>
      <trkpt lat="46.94875" lon="4.29824">
        <ele>348.62</ele>
        <time>2021-08-12T14:41:15Z</time>
      </trkpt>
      <trkpt lat="46.94875" lon="4.29825">
        <ele>348.62</ele>
        <time>2021-08-12T14:41:30Z</time>
      </trkpt>
      <trkpt lat="46.94874" lon="4.29826">
        <ele>348.62</ele>
        <time>2021-08-12T14:41:43Z</time>
      </trkpt>
      <trkpt lat="46.94874" lon="4.29826">
        <ele>348.62</ele>
        <time>2021-08-12T14:42:00Z</time>
      </trkpt>
      <trkpt lat="46.94874" lon="4.29826">
        <ele>348.13</ele>
        <time>2021-08-12T14:42:18Z</time>
      </trkpt>
      <trkpt lat="46.94875" lon="4.29826">
        <ele>348.13</ele>
        <time>2021-08-12T14:42:36Z</time>
      </trkpt>
      <trkpt lat="46.94874" lon="4.29826">
        <ele>348.13</ele>
        <time>2021-08-12T14:42:54Z</time>
      </trkpt>
      <trkpt lat="46.94875" lon="4.29827">
        <ele>348.13</ele>
        <time>2021-08-12T14:43:14Z</time>
      </trkpt>
      <trkpt lat="46.94876" lon="4.29827">
        <ele>348.62</ele>
        <time>2021-08-12T14:43:27Z</time>
      </trkpt>
      <trkpt lat="46.94876" lon="4.29826">
        <ele>348.62</ele>
        <time>2021-08-12T14:43:48Z</time>
      </trkpt>
      <trkpt lat="46.94876" lon="4.29825">
        <ele>348.13</ele>
        <time>2021-08-12T14:44:08Z</time>
      </trkpt>
      <trkpt lat="46.94876" lon="4.29826">
        <ele>348.13</ele>
        <time>2021-08-12T14:44:23Z</time>
      </trkpt>
      <trkpt lat="46.94876" lon="4.29828">
        <ele>348.13</ele>
        <time>2021-08-12T14:44:44Z</time>
      </trkpt>
      <trkpt lat="46.94876" lon="4.29827">
        <ele>348.13</ele>
        <time>2021-08-12T14:45:03Z</time>
      </trkpt>
      <trkpt lat="46.94875" lon="4.29827">
        <ele>347.65</ele>
        <time>2021-08-12T14:45:29Z</time>
      </trkpt>
      <trkpt lat="46.94875" lon="4.29827">
        <ele>347.65</ele>
        <time>2021-08-12T14:45:48Z</time>
      </trkpt>
      <trkpt lat="46.94874" lon="4.29826">
        <ele>348.13</ele>
        <time>2021-08-12T14:46:10Z</time>
      </trkpt>
      <trkpt lat="46.94873" lon="4.29825">
        <ele>348.13</ele>
        <time>2021-08-12T14:46:28Z</time>
      </trkpt>
      <trkpt lat="46.94873" lon="4.29826">
        <ele>348.13</ele>
        <time>2021-08-12T14:46:44Z</time>
      </trkpt>
      <trkpt lat="46.94875" lon="4.29829">
        <ele>347.65</ele>
        <time>2021-08-12T14:47:04Z</time>
      </trkpt>
      <trkpt lat="46.94874" lon="4.2983">
        <ele>347.65</ele>
        <time>2021-08-12T14:47:20Z</time>
      </trkpt>
      <trkpt lat="46.94874" lon="4.29828">
        <ele>347.65</ele>
        <time>2021-08-12T14:47:45Z</time>
      </trkpt>
      <trkpt lat="46.94875" lon="4.29827">
        <ele>347.65</ele>
        <time>2021-08-12T14:48:04Z</time>
      </trkpt>
      <trkpt lat="46.94873" lon="4.29825">
        <ele>347.65</ele>
        <time>2021-08-12T14:48:25Z</time>
      </trkpt>
      <trkpt lat="46.9487" lon="4.29826">
        <ele>347.65</ele>
        <time>2021-08-12T14:48:43Z</time>
      </trkpt>
      <trkpt lat="46.9487" lon="4.29827">
        <ele>347.17</ele>
        <time>2021-08-12T14:49:02Z</time>
      </trkpt>
      <trkpt lat="46.94873" lon="4.29826">
        <ele>347.17</ele>
        <time>2021-08-12T14:49:22Z</time>
      </trkpt>
      <trkpt lat="46.94875" lon="4.29828">
        <ele>347.65</ele>
        <time>2021-08-12T14:49:43Z</time>
      </trkpt>
      <trkpt lat="46.94876" lon="4.29829">
        <ele>347.17</ele>
        <time>2021-08-12T14:50:05Z</time>
      </trkpt>
      <trkpt lat="46.94875" lon="4.29827">
        <ele>347.17</ele>
        <time>2021-08-12T14:50:29Z</time>
      </trkpt>
      <trkpt lat="46.94873" lon="4.29827">
        <ele>347.17</ele>
        <time>2021-08-12T14:50:46Z</time>
      </trkpt>
      <trkpt lat="46.94872" lon="4.29826">
        <ele>347.17</ele>
        <time>2021-08-12T14:50:58Z</time>
      </trkpt>
      <trkpt lat="46.9487" lon="4.29827">
        <ele>347.17</ele>
        <time>2021-08-12T14:51:07Z</time>
      </trkpt>
      <trkpt lat="46.94869" lon="4.29828">
        <ele>346.69</ele>
        <time>2021-08-12T14:51:23Z</time>
      </trkpt>
      <trkpt lat="46.94869" lon="4.29829">
        <ele>346.69</ele>
        <time>2021-08-12T14:51:37Z</time>
      </trkpt>
      <trkpt lat="46.94866" lon="4.29827">
        <ele>347.17</ele>
        <time>2021-08-12T14:51:51Z</time>
      </trkpt>
      <trkpt lat="46.94861" lon="4.29832">
        <ele>347.17</ele>
        <time>2021-08-12T14:51:56Z</time>
      </trkpt>
      <trkpt lat="46.94857" lon="4.29837">
        <ele>347.65</ele>
        <time>2021-08-12T14:51:59Z</time>
      </trkpt>
      <trkpt lat="46.94856" lon="4.29838">
        <ele>347.65</ele>
        <time>2021-08-12T14:52:00Z</time>
      </trkpt>
      <trkpt lat="46.94847" lon="4.29848">
        <ele>348.62</ele>
        <time>2021-08-12T14:52:07Z</time>
      </trkpt>
      <trkpt lat="46.94842" lon="4.29854">
        <ele>349.1</ele>
        <time>2021-08-12T14:52:14Z</time>
      </trkpt>
      <trkpt lat="46.94842" lon="4.29853">
        <ele>349.1</ele>
        <time>2021-08-12T14:52:24Z</time>
      </trkpt>
      <trkpt lat="46.94845" lon="4.29853">
        <ele>349.1</ele>
        <time>2021-08-12T14:52:43Z</time>
      </trkpt>
      <trkpt lat="46.94844" lon="4.29854">
        <ele>349.1</ele>
        <time>2021-08-12T14:52:58Z</time>
      </trkpt>
      <trkpt lat="46.94841" lon="4.29853">
        <ele>349.58</ele>
        <time>2021-08-12T14:53:17Z</time>
      </trkpt>
      <trkpt lat="46.94841" lon="4.29854">
        <ele>349.58</ele>
        <time>2021-08-12T14:53:33Z</time>
      </trkpt>
      <trkpt lat="46.94842" lon="4.29855">
        <ele>349.58</ele>
        <time>2021-08-12T14:53:51Z</time>
      </trkpt>
      <trkpt lat="46.94841" lon="4.29858">
        <ele>350.06</ele>
        <time>2021-08-12T14:54:14Z</time>
      </trkpt>
      <trkpt lat="46.94842" lon="4.29858">
        <ele>350.06</ele>
        <time>2021-08-12T14:54:36Z</time>
      </trkpt>
      <trkpt lat="46.94843" lon="4.29856">
        <ele>350.54</ele>
        <time>2021-08-12T14:54:52Z</time>
      </trkpt>
      <trkpt lat="46.94846" lon="4.29855">
        <ele>350.54</ele>
        <time>2021-08-12T14:55:08Z</time>
      </trkpt>
      <trkpt lat="46.94844" lon="4.29855">
        <ele>350.54</ele>
        <time>2021-08-12T14:55:26Z</time>
      </trkpt>
      <trkpt lat="46.94841" lon="4.29856">
        <ele>350.54</ele>
        <time>2021-08-12T14:55:34Z</time>
      </trkpt>
      <trkpt lat="46.94842" lon="4.29852">
        <ele>350.54</ele>
        <time>2021-08-12T14:55:42Z</time>
      </trkpt>
      <trkpt lat="46.9484" lon="4.29852">
        <ele>350.54</ele>
        <time>2021-08-12T14:55:58Z</time>
      </trkpt>
      <trkpt lat="46.94842" lon="4.29852">
        <ele>351.02</ele>
        <time>2021-08-12T14:56:12Z</time>
      </trkpt>
      <trkpt lat="46.94846" lon="4.29851">
        <ele>351.02</ele>
        <time>2021-08-12T14:56:20Z</time>
      </trkpt>
      <trkpt lat="46.94847" lon="4.29849">
        <ele>351.02</ele>
        <time>2021-08-12T14:56:21Z</time>
      </trkpt>
      <trkpt lat="46.94848" lon="4.29848">
        <ele>351.02</ele>
        <time>2021-08-12T14:56:22Z</time>
      </trkpt>
      <trkpt lat="46.94857" lon="4.29839">
        <ele>351.02</ele>
        <time>2021-08-12T14:56:28Z</time>
      </trkpt>
      <trkpt lat="46.94859" lon="4.29838">
        <ele>349.58</ele>
        <time>2021-08-12T14:56:30Z</time>
      </trkpt>
      <trkpt lat="46.94861" lon="4.29837">
        <ele>349.58</ele>
        <time>2021-08-12T14:56:33Z</time>
      </trkpt>
      <trkpt lat="46.94863" lon="4.29834">
        <ele>349.1</ele>
        <time>2021-08-12T14:56:40Z</time>
      </trkpt>
      <trkpt lat="46.94868" lon="4.29827">
        <ele>348.62</ele>
        <time>2021-08-12T14:56:48Z</time>
      </trkpt>
      <trkpt lat="46.94879" lon="4.29817">
        <ele>348.13</ele>
        <time>2021-08-12T14:56:55Z</time>
      </trkpt>
      <trkpt lat="46.94896" lon="4.29803">
        <ele>347.17</ele>
        <time>2021-08-12T14:57:02Z</time>
      </trkpt>
      <trkpt lat="46.94906" lon="4.29795">
        <ele>347.17</ele>
        <time>2021-08-12T14:57:07Z</time>
      </trkpt>
      <trkpt lat="46.94917" lon="4.29782">
        <ele>346.21</ele>
        <time>2021-08-12T14:57:14Z</time>
      </trkpt>
      <trkpt lat="46.9493" lon="4.29768">
        <ele>345.73</ele>
        <time>2021-08-12T14:57:21Z</time>
      </trkpt>
      <trkpt lat="46.9494" lon="4.29758">
        <ele>345.25</ele>
        <time>2021-08-12T14:57:28Z</time>
      </trkpt>
      <trkpt lat="46.9494" lon="4.29757">
        <ele>345.25</ele>
        <time>2021-08-12T14:57:38Z</time>
      </trkpt>
      <trkpt lat="46.94941" lon="4.29757">
        <ele>344.77</ele>
        <time>2021-08-12T14:57:51Z</time>
      </trkpt>
      <trkpt lat="46.94942" lon="4.29756">
        <ele>344.77</ele>
        <time>2021-08-12T14:58:01Z</time>
      </trkpt>
      <trkpt lat="46.94946" lon="4.29757">
        <ele>344.77</ele>
        <time>2021-08-12T14:58:06Z</time>
      </trkpt>
      <trkpt lat="46.94958" lon="4.29749">
        <ele>343.33</ele>
        <time>2021-08-12T14:58:11Z</time>
      </trkpt>
      <trkpt lat="46.9496" lon="4.29748">
        <ele>343.33</ele>
        <time>2021-08-12T14:58:12Z</time>
      </trkpt>
      <trkpt lat="46.94962" lon="4.29745">
        <ele>342.85</ele>
        <time>2021-08-12T14:58:13Z</time>
      </trkpt>
      <trkpt lat="46.94964" lon="4.29742">
        <ele>342.85</ele>
        <time>2021-08-12T14:58:14Z</time>
      </trkpt>
      <trkpt lat="46.94965" lon="4.2974">
        <ele>342.85</ele>
        <time>2021-08-12T14:58:15Z</time>
      </trkpt>
      <trkpt lat="46.94966" lon="4.29738">
        <ele>342.85</ele>
        <time>2021-08-12T14:58:16Z</time>
      </trkpt>
      <trkpt lat="46.94966" lon="4.29735">
        <ele>342.37</ele>
        <time>2021-08-12T14:58:17Z</time>
      </trkpt>
      <trkpt lat="46.94965" lon="4.29731">
        <ele>342.37</ele>
        <time>2021-08-12T14:58:18Z</time>
      </trkpt>
      <trkpt lat="46.94963" lon="4.29726">
        <ele>342.37</ele>
        <time>2021-08-12T14:58:19Z</time>
      </trkpt>
      <trkpt lat="46.94962" lon="4.29724">
        <ele>342.37</ele>
        <time>2021-08-12T14:58:20Z</time>
      </trkpt>
      <trkpt lat="46.94961" lon="4.2972">
        <ele>342.37</ele>
        <time>2021-08-12T14:58:21Z</time>
      </trkpt>
      <trkpt lat="46.9496" lon="4.29716">
        <ele>341.89</ele>
        <time>2021-08-12T14:58:22Z</time>
      </trkpt>
      <trkpt lat="46.94951" lon="4.29686">
        <ele>341.41</ele>
        <time>2021-08-12T14:58:29Z</time>
      </trkpt>
      <trkpt lat="46.94941" lon="4.29646">
        <ele>340.92</ele>
        <time>2021-08-12T14:58:37Z</time>
      </trkpt>
      <trkpt lat="46.94939" lon="4.29632">
        <ele>340.44</ele>
        <time>2021-08-12T14:58:42Z</time>
      </trkpt>
      <trkpt lat="46.94938" lon="4.29632">
        <ele>340.44</ele>
        <time>2021-08-12T14:58:47Z</time>
      </trkpt>
      <trkpt lat="46.94936" lon="4.29633">
        <ele>340.44</ele>
        <time>2021-08-12T14:58:48Z</time>
      </trkpt>
      <trkpt lat="46.94935" lon="4.29634">
        <ele>340.44</ele>
        <time>2021-08-12T14:58:49Z</time>
      </trkpt>
      <trkpt lat="46.94934" lon="4.29634">
        <ele>340.44</ele>
        <time>2021-08-12T14:58:50Z</time>
      </trkpt>
      <trkpt lat="46.94933" lon="4.29635">
        <ele>340.44</ele>
        <time>2021-08-12T14:58:51Z</time>
      </trkpt>
      <trkpt lat="46.94932" lon="4.29636">
        <ele>340.44</ele>
        <time>2021-08-12T14:58:52Z</time>
      </trkpt>
      <trkpt lat="46.94922" lon="4.29643">
        <ele>340.44</ele>
        <time>2021-08-12T14:59:00Z</time>
      </trkpt>
      <trkpt lat="46.94912" lon="4.29642">
        <ele>341.41</ele>
        <time>2021-08-12T14:59:05Z</time>
      </trkpt>
      <trkpt lat="46.94909" lon="4.29642">
        <ele>341.41</ele>
        <time>2021-08-12T14:59:06Z</time>
      </trkpt>
      <trkpt lat="46.94907" lon="4.29642">
        <ele>341.41</ele>
        <time>2021-08-12T14:59:07Z</time>
      </trkpt>
      <trkpt lat="46.949" lon="4.29642">
        <ele>341.41</ele>
        <time>2021-08-12T14:59:10Z</time>
      </trkpt>
      <trkpt lat="46.94898" lon="4.29643">
        <ele>341.89</ele>
        <time>2021-08-12T14:59:11Z</time>
      </trkpt>
      <trkpt lat="46.94896" lon="4.29643">
        <ele>341.89</ele>
        <time>2021-08-12T14:59:12Z</time>
      </trkpt>
      <trkpt lat="46.94894" lon="4.29645">
        <ele>341.89</ele>
        <time>2021-08-12T14:59:13Z</time>
      </trkpt>
      <trkpt lat="46.94892" lon="4.29645">
        <ele>342.37</ele>
        <time>2021-08-12T14:59:14Z</time>
      </trkpt>
      <trkpt lat="46.94891" lon="4.29646">
        <ele>342.37</ele>
        <time>2021-08-12T14:59:15Z</time>
      </trkpt>
      <trkpt lat="46.94876" lon="4.29653">
        <ele>342.85</ele>
        <time>2021-08-12T14:59:22Z</time>
      </trkpt>
      <trkpt lat="46.94856" lon="4.29668">
        <ele>343.81</ele>
        <time>2021-08-12T14:59:33Z</time>
      </trkpt>
      <trkpt lat="46.94839" lon="4.29678">
        <ele>344.77</ele>
        <time>2021-08-12T14:59:42Z</time>
      </trkpt>
      <trkpt lat="46.94827" lon="4.29688">
        <ele>345.73</ele>
        <time>2021-08-12T14:59:49Z</time>
      </trkpt>
      <trkpt lat="46.9481" lon="4.29697">
        <ele>346.21</ele>
        <time>2021-08-12T14:59:57Z</time>
      </trkpt>
      <trkpt lat="46.94796" lon="4.29706">
        <ele>346.69</ele>
        <time>2021-08-12T15:00:04Z</time>
      </trkpt>
      <trkpt lat="46.94778" lon="4.29718">
        <ele>348.13</ele>
        <time>2021-08-12T15:00:13Z</time>
      </trkpt>
      <trkpt lat="46.94761" lon="4.29729">
        <ele>348.62</ele>
        <time>2021-08-12T15:00:23Z</time>
      </trkpt>
      <trkpt lat="46.94745" lon="4.29739">
        <ele>350.06</ele>
        <time>2021-08-12T15:00:32Z</time>
      </trkpt>
      <trkpt lat="46.94734" lon="4.29751">
        <ele>351.02</ele>
        <time>2021-08-12T15:00:40Z</time>
      </trkpt>
      <trkpt lat="46.94729" lon="4.29756">
        <ele>352.46</ele>
        <time>2021-08-12T15:00:44Z</time>
      </trkpt>
      <trkpt lat="46.94729" lon="4.29759">
        <ele>351.98</ele>
        <time>2021-08-12T15:00:46Z</time>
      </trkpt>
      <trkpt lat="46.94738" lon="4.29779">
        <ele>351.98</ele>
        <time>2021-08-12T15:00:54Z</time>
      </trkpt>
      <trkpt lat="46.94749" lon="4.29802">
        <ele>352.46</ele>
        <time>2021-08-12T15:01:01Z</time>
      </trkpt>
      <trkpt lat="46.94761" lon="4.29831">
        <ele>352.94</ele>
        <time>2021-08-12T15:01:10Z</time>
      </trkpt>
      <trkpt lat="46.94775" lon="4.29863">
        <ele>353.42</ele>
        <time>2021-08-12T15:01:19Z</time>
      </trkpt>
      <trkpt lat="46.94782" lon="4.29884">
        <ele>353.9</ele>
        <time>2021-08-12T15:01:25Z</time>
      </trkpt>
      <trkpt lat="46.94781" lon="4.29888">
        <ele>353.9</ele>
        <time>2021-08-12T15:01:26Z</time>
      </trkpt>
      <trkpt lat="46.94779" lon="4.2989">
        <ele>354.38</ele>
        <time>2021-08-12T15:01:27Z</time>
      </trkpt>
      <trkpt lat="46.94767" lon="4.29905">
        <ele>355.34</ele>
        <time>2021-08-12T15:01:36Z</time>
      </trkpt>
      <trkpt lat="46.94763" lon="4.29912">
        <ele>355.34</ele>
        <time>2021-08-12T15:01:40Z</time>
      </trkpt>
      <trkpt lat="46.94763" lon="4.29914">
        <ele>355.34</ele>
        <time>2021-08-12T15:01:41Z</time>
      </trkpt>
      <trkpt lat="46.94762" lon="4.29917">
        <ele>355.83</ele>
        <time>2021-08-12T15:01:42Z</time>
      </trkpt>
      <trkpt lat="46.94761" lon="4.29918">
        <ele>355.83</ele>
        <time>2021-08-12T15:01:43Z</time>
      </trkpt>
      <trkpt lat="46.94759" lon="4.2992">
        <ele>355.83</ele>
        <time>2021-08-12T15:01:44Z</time>
      </trkpt>
      <trkpt lat="46.94758" lon="4.29921">
        <ele>356.31</ele>
        <time>2021-08-12T15:01:45Z</time>
      </trkpt>
      <trkpt lat="46.94756" lon="4.29922">
        <ele>356.31</ele>
        <time>2021-08-12T15:01:46Z</time>
      </trkpt>
      <trkpt lat="46.94754" lon="4.29923">
        <ele>356.31</ele>
        <time>2021-08-12T15:01:47Z</time>
      </trkpt>
      <trkpt lat="46.94752" lon="4.29925">
        <ele>356.31</ele>
        <time>2021-08-12T15:01:48Z</time>
      </trkpt>
      <trkpt lat="46.94751" lon="4.29926">
        <ele>356.31</ele>
        <time>2021-08-12T15:01:49Z</time>
      </trkpt>
      <trkpt lat="46.9475" lon="4.29928">
        <ele>356.79</ele>
        <time>2021-08-12T15:01:50Z</time>
      </trkpt>
      <trkpt lat="46.9475" lon="4.2993">
        <ele>356.79</ele>
        <time>2021-08-12T15:01:51Z</time>
      </trkpt>
      <trkpt lat="46.94744" lon="4.29941">
        <ele>357.27</ele>
        <time>2021-08-12T15:01:58Z</time>
      </trkpt>
      <trkpt lat="46.94732" lon="4.29951">
        <ele>358.23</ele>
        <time>2021-08-12T15:02:05Z</time>
      </trkpt>
      <trkpt lat="46.94731" lon="4.29952">
        <ele>358.23</ele>
        <time>2021-08-12T15:02:06Z</time>
      </trkpt>
      <trkpt lat="46.9473" lon="4.29953">
        <ele>358.23</ele>
        <time>2021-08-12T15:02:07Z</time>
      </trkpt>
      <trkpt lat="46.9473" lon="4.29955">
        <ele>358.71</ele>
        <time>2021-08-12T15:02:08Z</time>
      </trkpt>
      <trkpt lat="46.94729" lon="4.29957">
        <ele>358.71</ele>
        <time>2021-08-12T15:02:09Z</time>
      </trkpt>
      <trkpt lat="46.94722" lon="4.29969">
        <ele>360.15</ele>
        <time>2021-08-12T15:02:16Z</time>
      </trkpt>
      <trkpt lat="46.94717" lon="4.29975">
        <ele>361.11</ele>
        <time>2021-08-12T15:02:20Z</time>
      </trkpt>
      <trkpt lat="46.94715" lon="4.29976">
        <ele>361.11</ele>
        <time>2021-08-12T15:02:21Z</time>
      </trkpt>
      <trkpt lat="46.94714" lon="4.29977">
        <ele>360.63</ele>
        <time>2021-08-12T15:02:22Z</time>
      </trkpt>
      <trkpt lat="46.94707" lon="4.29984">
        <ele>362.07</ele>
        <time>2021-08-12T15:02:29Z</time>
      </trkpt>
      <trkpt lat="46.94694" lon="4.29993">
        <ele>363.04</ele>
        <time>2021-08-12T15:02:37Z</time>
      </trkpt>
      <trkpt lat="46.94678" lon="4.3">
        <ele>364</ele>
        <time>2021-08-12T15:02:45Z</time>
      </trkpt>
      <trkpt lat="46.94675" lon="4.3">
        <ele>364</ele>
        <time>2021-08-12T15:02:46Z</time>
      </trkpt>
      <trkpt lat="46.94661" lon="4.30014">
        <ele>364.96</ele>
        <time>2021-08-12T15:02:54Z</time>
      </trkpt>
      <trkpt lat="46.94649" lon="4.30028">
        <ele>364.96</ele>
        <time>2021-08-12T15:03:02Z</time>
      </trkpt>
      <trkpt lat="46.94634" lon="4.30043">
        <ele>365.92</ele>
        <time>2021-08-12T15:03:12Z</time>
      </trkpt>
      <trkpt lat="46.94626" lon="4.30064">
        <ele>365.92</ele>
        <time>2021-08-12T15:03:19Z</time>
      </trkpt>
      <trkpt lat="46.94618" lon="4.301">
        <ele>364</ele>
        <time>2021-08-12T15:03:26Z</time>
      </trkpt>
      <trkpt lat="46.94617" lon="4.30105">
        <ele>363.04</ele>
        <time>2021-08-12T15:03:27Z</time>
      </trkpt>
      <trkpt lat="46.94615" lon="4.30111">
        <ele>363.04</ele>
        <time>2021-08-12T15:03:28Z</time>
      </trkpt>
      <trkpt lat="46.94612" lon="4.30116">
        <ele>363.04</ele>
        <time>2021-08-12T15:03:29Z</time>
      </trkpt>
      <trkpt lat="46.94592" lon="4.30154">
        <ele>360.15</ele>
        <time>2021-08-12T15:03:35Z</time>
      </trkpt>
      <trkpt lat="46.94585" lon="4.30168">
        <ele>359.19</ele>
        <time>2021-08-12T15:03:37Z</time>
      </trkpt>
      <trkpt lat="46.94573" lon="4.30191">
        <ele>357.27</ele>
        <time>2021-08-12T15:03:41Z</time>
      </trkpt>
      <trkpt lat="46.94572" lon="4.30197">
        <ele>356.31</ele>
        <time>2021-08-12T15:03:42Z</time>
      </trkpt>
      <trkpt lat="46.94572" lon="4.30203">
        <ele>356.31</ele>
        <time>2021-08-12T15:03:43Z</time>
      </trkpt>
      <trkpt lat="46.94574" lon="4.30218">
        <ele>355.34</ele>
        <time>2021-08-12T15:03:45Z</time>
      </trkpt>
      <trkpt lat="46.94575" lon="4.30225">
        <ele>354.38</ele>
        <time>2021-08-12T15:03:46Z</time>
      </trkpt>
      <trkpt lat="46.94581" lon="4.3025">
        <ele>354.38</ele>
        <time>2021-08-12T15:03:49Z</time>
      </trkpt>
      <trkpt lat="46.94586" lon="4.30269">
        <ele>352.46</ele>
        <time>2021-08-12T15:03:51Z</time>
      </trkpt>
      <trkpt lat="46.94599" lon="4.30328">
        <ele>349.1</ele>
        <time>2021-08-12T15:03:58Z</time>
      </trkpt>
      <trkpt lat="46.94602" lon="4.30335">
        <ele>348.62</ele>
        <time>2021-08-12T15:03:59Z</time>
      </trkpt>
      <trkpt lat="46.94606" lon="4.30342">
        <ele>348.13</ele>
        <time>2021-08-12T15:04:00Z</time>
      </trkpt>
      <trkpt lat="46.9461" lon="4.30347">
        <ele>348.13</ele>
        <time>2021-08-12T15:04:01Z</time>
      </trkpt>
      <trkpt lat="46.94614" lon="4.30358">
        <ele>347.65</ele>
        <time>2021-08-12T15:04:04Z</time>
      </trkpt>
      <trkpt lat="46.9461" lon="4.30366">
        <ele>346.21</ele>
        <time>2021-08-12T15:04:06Z</time>
      </trkpt>
      <trkpt lat="46.9459" lon="4.30392">
        <ele>342.37</ele>
        <time>2021-08-12T15:04:10Z</time>
      </trkpt>
      <trkpt lat="46.94572" lon="4.30404">
        <ele>340.44</ele>
        <time>2021-08-12T15:04:12Z</time>
      </trkpt>
      <trkpt lat="46.94556" lon="4.30417">
        <ele>337.56</ele>
        <time>2021-08-12T15:04:14Z</time>
      </trkpt>
      <trkpt lat="46.94547" lon="4.30427">
        <ele>337.08</ele>
        <time>2021-08-12T15:04:15Z</time>
      </trkpt>
      <trkpt lat="46.94523" lon="4.30455">
        <ele>337.08</ele>
        <time>2021-08-12T15:04:18Z</time>
      </trkpt>
      <trkpt lat="46.9449" lon="4.30493">
        <ele>336.6</ele>
        <time>2021-08-12T15:04:23Z</time>
      </trkpt>
      <trkpt lat="46.94477" lon="4.30508">
        <ele>339</ele>
        <time>2021-08-12T15:04:26Z</time>
      </trkpt>
      <trkpt lat="46.94467" lon="4.30519">
        <ele>340.92</ele>
        <time>2021-08-12T15:04:31Z</time>
      </trkpt>
      <trkpt lat="46.94466" lon="4.30521">
        <ele>340.92</ele>
        <time>2021-08-12T15:04:32Z</time>
      </trkpt>
      <trkpt lat="46.94456" lon="4.30531">
        <ele>342.37</ele>
        <time>2021-08-12T15:04:39Z</time>
      </trkpt>
      <trkpt lat="46.94443" lon="4.30546">
        <ele>343.33</ele>
        <time>2021-08-12T15:04:49Z</time>
      </trkpt>
      <trkpt lat="46.9444" lon="4.3055">
        <ele>345.25</ele>
        <time>2021-08-12T15:04:52Z</time>
      </trkpt>
      <trkpt lat="46.94425" lon="4.30568">
        <ele>345.25</ele>
        <time>2021-08-12T15:05:05Z</time>
      </trkpt>
      <trkpt lat="46.94412" lon="4.30582">
        <ele>347.17</ele>
        <time>2021-08-12T15:05:16Z</time>
      </trkpt>
      <trkpt lat="46.944" lon="4.30597">
        <ele>348.62</ele>
        <time>2021-08-12T15:05:27Z</time>
      </trkpt>
      <trkpt lat="46.94389" lon="4.30609">
        <ele>349.58</ele>
        <time>2021-08-12T15:05:36Z</time>
      </trkpt>
      <trkpt lat="46.94378" lon="4.30622">
        <ele>350.54</ele>
        <time>2021-08-12T15:05:46Z</time>
      </trkpt>
      <trkpt lat="46.94369" lon="4.30634">
        <ele>351.98</ele>
        <time>2021-08-12T15:05:55Z</time>
      </trkpt>
      <trkpt lat="46.94359" lon="4.30644">
        <ele>353.42</ele>
        <time>2021-08-12T15:06:03Z</time>
      </trkpt>
      <trkpt lat="46.94349" lon="4.30656">
        <ele>353.9</ele>
        <time>2021-08-12T15:06:12Z</time>
      </trkpt>
      <trkpt lat="46.94341" lon="4.30667">
        <ele>354.86</ele>
        <time>2021-08-12T15:06:20Z</time>
      </trkpt>
      <trkpt lat="46.94339" lon="4.30672">
        <ele>356.31</ele>
        <time>2021-08-12T15:06:23Z</time>
      </trkpt>
      <trkpt lat="46.94338" lon="4.30674">
        <ele>356.31</ele>
        <time>2021-08-12T15:06:24Z</time>
      </trkpt>
      <trkpt lat="46.94337" lon="4.30674">
        <ele>356.31</ele>
        <time>2021-08-12T15:06:25Z</time>
      </trkpt>
      <trkpt lat="46.94336" lon="4.30675">
        <ele>356.31</ele>
        <time>2021-08-12T15:06:26Z</time>
      </trkpt>
      <trkpt lat="46.94335" lon="4.30677">
        <ele>356.31</ele>
        <time>2021-08-12T15:06:27Z</time>
      </trkpt>
      <trkpt lat="46.94334" lon="4.30678">
        <ele>356.79</ele>
        <time>2021-08-12T15:06:28Z</time>
      </trkpt>
      <trkpt lat="46.94333" lon="4.3068">
        <ele>356.79</ele>
        <time>2021-08-12T15:06:29Z</time>
      </trkpt>
      <trkpt lat="46.9433" lon="4.30683">
        <ele>357.27</ele>
        <time>2021-08-12T15:06:31Z</time>
      </trkpt>
      <trkpt lat="46.94328" lon="4.30683">
        <ele>357.27</ele>
        <time>2021-08-12T15:06:32Z</time>
      </trkpt>
      <trkpt lat="46.94327" lon="4.30683">
        <ele>357.75</ele>
        <time>2021-08-12T15:06:33Z</time>
      </trkpt>
      <trkpt lat="46.94325" lon="4.30684">
        <ele>357.75</ele>
        <time>2021-08-12T15:06:34Z</time>
      </trkpt>
      <trkpt lat="46.94324" lon="4.30685">
        <ele>357.75</ele>
        <time>2021-08-12T15:06:35Z</time>
      </trkpt>
      <trkpt lat="46.94323" lon="4.30687">
        <ele>357.75</ele>
        <time>2021-08-12T15:06:36Z</time>
      </trkpt>
      <trkpt lat="46.94323" lon="4.30688">
        <ele>357.75</ele>
        <time>2021-08-12T15:06:37Z</time>
      </trkpt>
      <trkpt lat="46.94322" lon="4.3069">
        <ele>357.75</ele>
        <time>2021-08-12T15:06:38Z</time>
      </trkpt>
      <trkpt lat="46.94322" lon="4.30691">
        <ele>357.75</ele>
        <time>2021-08-12T15:06:39Z</time>
      </trkpt>
      <trkpt lat="46.94321" lon="4.30693">
        <ele>358.23</ele>
        <time>2021-08-12T15:06:40Z</time>
      </trkpt>
      <trkpt lat="46.9432" lon="4.30693">
        <ele>358.23</ele>
        <time>2021-08-12T15:06:41Z</time>
      </trkpt>
      <trkpt lat="46.94318" lon="4.30693">
        <ele>358.23</ele>
        <time>2021-08-12T15:06:42Z</time>
      </trkpt>
      <trkpt lat="46.94317" lon="4.30692">
        <ele>358.71</ele>
        <time>2021-08-12T15:06:43Z</time>
      </trkpt>
      <trkpt lat="46.94315" lon="4.30693">
        <ele>358.23</ele>
        <time>2021-08-12T15:06:44Z</time>
      </trkpt>
      <trkpt lat="46.94314" lon="4.30694">
        <ele>358.23</ele>
        <time>2021-08-12T15:06:45Z</time>
      </trkpt>
      <trkpt lat="46.94314" lon="4.30695">
        <ele>359.19</ele>
        <time>2021-08-12T15:06:46Z</time>
      </trkpt>
      <trkpt lat="46.94313" lon="4.30697">
        <ele>359.19</ele>
        <time>2021-08-12T15:06:47Z</time>
      </trkpt>
      <trkpt lat="46.94313" lon="4.30699">
        <ele>359.19</ele>
        <time>2021-08-12T15:06:48Z</time>
      </trkpt>
      <trkpt lat="46.94312" lon="4.30701">
        <ele>359.19</ele>
        <time>2021-08-12T15:06:49Z</time>
      </trkpt>
      <trkpt lat="46.94311" lon="4.30701">
        <ele>359.19</ele>
        <time>2021-08-12T15:06:50Z</time>
      </trkpt>
      <trkpt lat="46.94309" lon="4.30701">
        <ele>359.67</ele>
        <time>2021-08-12T15:06:51Z</time>
      </trkpt>
      <trkpt lat="46.94308" lon="4.30701">
        <ele>360.15</ele>
        <time>2021-08-12T15:06:52Z</time>
      </trkpt>
      <trkpt lat="46.94307" lon="4.30702">
        <ele>360.15</ele>
        <time>2021-08-12T15:06:53Z</time>
      </trkpt>
      <trkpt lat="46.94306" lon="4.30703">
        <ele>360.15</ele>
        <time>2021-08-12T15:06:54Z</time>
      </trkpt>
      <trkpt lat="46.94305" lon="4.30704">
        <ele>360.15</ele>
        <time>2021-08-12T15:06:55Z</time>
      </trkpt>
      <trkpt lat="46.94295" lon="4.3071">
        <ele>361.11</ele>
        <time>2021-08-12T15:07:03Z</time>
      </trkpt>
      <trkpt lat="46.94282" lon="4.30718">
        <ele>362.55</ele>
        <time>2021-08-12T15:07:14Z</time>
      </trkpt>
      <trkpt lat="46.94272" lon="4.30724">
        <ele>363.52</ele>
        <time>2021-08-12T15:07:22Z</time>
      </trkpt>
      <trkpt lat="46.94271" lon="4.30724">
        <ele>363.52</ele>
        <time>2021-08-12T15:07:23Z</time>
      </trkpt>
      <trkpt lat="46.9427" lon="4.30725">
        <ele>364.48</ele>
        <time>2021-08-12T15:07:24Z</time>
      </trkpt>
      <trkpt lat="46.94255" lon="4.30732">
        <ele>365.44</ele>
        <time>2021-08-12T15:07:35Z</time>
      </trkpt>
      <trkpt lat="46.94246" lon="4.30738">
        <ele>366.88</ele>
        <time>2021-08-12T15:07:42Z</time>
      </trkpt>
      <trkpt lat="46.94245" lon="4.30739">
        <ele>366.88</ele>
        <time>2021-08-12T15:07:43Z</time>
      </trkpt>
      <trkpt lat="46.94243" lon="4.30739">
        <ele>366.88</ele>
        <time>2021-08-12T15:07:44Z</time>
      </trkpt>
      <trkpt lat="46.94242" lon="4.30739">
        <ele>366.88</ele>
        <time>2021-08-12T15:07:45Z</time>
      </trkpt>
      <trkpt lat="46.94241" lon="4.30739">
        <ele>367.36</ele>
        <time>2021-08-12T15:07:46Z</time>
      </trkpt>
      <trkpt lat="46.94239" lon="4.30739">
        <ele>367.36</ele>
        <time>2021-08-12T15:07:47Z</time>
      </trkpt>
      <trkpt lat="46.94238" lon="4.3074">
        <ele>367.36</ele>
        <time>2021-08-12T15:07:48Z</time>
      </trkpt>
      <trkpt lat="46.94237" lon="4.30741">
        <ele>367.36</ele>
        <time>2021-08-12T15:07:49Z</time>
      </trkpt>
      <trkpt lat="46.94235" lon="4.30742">
        <ele>367.36</ele>
        <time>2021-08-12T15:07:50Z</time>
      </trkpt>
      <trkpt lat="46.94234" lon="4.30743">
        <ele>367.36</ele>
        <time>2021-08-12T15:07:51Z</time>
      </trkpt>
      <trkpt lat="46.94233" lon="4.30744">
        <ele>368.32</ele>
        <time>2021-08-12T15:07:52Z</time>
      </trkpt>
      <trkpt lat="46.94232" lon="4.30745">
        <ele>368.32</ele>
        <time>2021-08-12T15:07:53Z</time>
      </trkpt>
      <trkpt lat="46.9422" lon="4.30751">
        <ele>369.28</ele>
        <time>2021-08-12T15:08:02Z</time>
      </trkpt>
      <trkpt lat="46.94208" lon="4.30758">
        <ele>370.73</ele>
        <time>2021-08-12T15:08:11Z</time>
      </trkpt>
      <trkpt lat="46.94198" lon="4.30764">
        <ele>372.17</ele>
        <time>2021-08-12T15:08:19Z</time>
      </trkpt>
      <trkpt lat="46.94188" lon="4.30769">
        <ele>373.13</ele>
        <time>2021-08-12T15:08:28Z</time>
      </trkpt>
      <trkpt lat="46.94182" lon="4.30772">
        <ele>373.61</ele>
        <time>2021-08-12T15:08:33Z</time>
      </trkpt>
      <trkpt lat="46.94181" lon="4.30773">
        <ele>373.61</ele>
        <time>2021-08-12T15:08:34Z</time>
      </trkpt>
      <trkpt lat="46.94179" lon="4.30773">
        <ele>374.57</ele>
        <time>2021-08-12T15:08:35Z</time>
      </trkpt>
      <trkpt lat="46.94178" lon="4.30774">
        <ele>374.57</ele>
        <time>2021-08-12T15:08:36Z</time>
      </trkpt>
      <trkpt lat="46.94177" lon="4.30775">
        <ele>374.57</ele>
        <time>2021-08-12T15:08:37Z</time>
      </trkpt>
      <trkpt lat="46.94166" lon="4.30781">
        <ele>376.01</ele>
        <time>2021-08-12T15:08:46Z</time>
      </trkpt>
      <trkpt lat="46.94153" lon="4.30789">
        <ele>376.97</ele>
        <time>2021-08-12T15:08:57Z</time>
      </trkpt>
      <trkpt lat="46.94144" lon="4.30795">
        <ele>378.42</ele>
        <time>2021-08-12T15:09:05Z</time>
      </trkpt>
      <trkpt lat="46.94143" lon="4.30796">
        <ele>378.42</ele>
        <time>2021-08-12T15:09:06Z</time>
      </trkpt>
      <trkpt lat="46.94143" lon="4.30798">
        <ele>378.42</ele>
        <time>2021-08-12T15:09:07Z</time>
      </trkpt>
      <trkpt lat="46.94142" lon="4.30798">
        <ele>379.38</ele>
        <time>2021-08-12T15:09:08Z</time>
      </trkpt>
      <trkpt lat="46.94141" lon="4.30799">
        <ele>379.38</ele>
        <time>2021-08-12T15:09:09Z</time>
      </trkpt>
      <trkpt lat="46.94139" lon="4.308">
        <ele>379.38</ele>
        <time>2021-08-12T15:09:10Z</time>
      </trkpt>
      <trkpt lat="46.94136" lon="4.30802">
        <ele>379.86</ele>
        <time>2021-08-12T15:09:13Z</time>
      </trkpt>
      <trkpt lat="46.94135" lon="4.30803">
        <ele>380.34</ele>
        <time>2021-08-12T15:09:14Z</time>
      </trkpt>
      <trkpt lat="46.94125" lon="4.30815">
        <ele>381.3</ele>
        <time>2021-08-12T15:09:25Z</time>
      </trkpt>
      <trkpt lat="46.94118" lon="4.30822">
        <ele>382.74</ele>
        <time>2021-08-12T15:09:33Z</time>
      </trkpt>
      <trkpt lat="46.9411" lon="4.30832">
        <ele>384.66</ele>
        <time>2021-08-12T15:09:42Z</time>
      </trkpt>
      <trkpt lat="46.94101" lon="4.30843">
        <ele>385.63</ele>
        <time>2021-08-12T15:09:52Z</time>
      </trkpt>
      <trkpt lat="46.94093" lon="4.30854">
        <ele>387.07</ele>
        <time>2021-08-12T15:10:01Z</time>
      </trkpt>
      <trkpt lat="46.94085" lon="4.30867">
        <ele>388.51</ele>
        <time>2021-08-12T15:10:10Z</time>
      </trkpt>
      <trkpt lat="46.9408" lon="4.30881">
        <ele>389.47</ele>
        <time>2021-08-12T15:10:19Z</time>
      </trkpt>
      <trkpt lat="46.9408" lon="4.30882">
        <ele>389.47</ele>
        <time>2021-08-12T15:10:20Z</time>
      </trkpt>
      <trkpt lat="46.94079" lon="4.30884">
        <ele>389.47</ele>
        <time>2021-08-12T15:10:21Z</time>
      </trkpt>
      <trkpt lat="46.94079" lon="4.30886">
        <ele>389.47</ele>
        <time>2021-08-12T15:10:22Z</time>
      </trkpt>
      <trkpt lat="46.94078" lon="4.30887">
        <ele>389.95</ele>
        <time>2021-08-12T15:10:23Z</time>
      </trkpt>
      <trkpt lat="46.94074" lon="4.30902">
        <ele>390.91</ele>
        <time>2021-08-12T15:10:32Z</time>
      </trkpt>
      <trkpt lat="46.94069" lon="4.30919">
        <ele>392.36</ele>
        <time>2021-08-12T15:10:41Z</time>
      </trkpt>
      <trkpt lat="46.94067" lon="4.3094">
        <ele>393.32</ele>
        <time>2021-08-12T15:10:51Z</time>
      </trkpt>
      <trkpt lat="46.94067" lon="4.30942">
        <ele>393.32</ele>
        <time>2021-08-12T15:10:52Z</time>
      </trkpt>
      <trkpt lat="46.94066" lon="4.30952">
        <ele>393.32</ele>
        <time>2021-08-12T15:10:56Z</time>
      </trkpt>
      <trkpt lat="46.94065" lon="4.30969">
        <ele>394.76</ele>
        <time>2021-08-12T15:11:04Z</time>
      </trkpt>
      <trkpt lat="46.94062" lon="4.30991">
        <ele>395.72</ele>
        <time>2021-08-12T15:11:14Z</time>
      </trkpt>
      <trkpt lat="46.9406" lon="4.3101">
        <ele>396.68</ele>
        <time>2021-08-12T15:11:23Z</time>
      </trkpt>
      <trkpt lat="46.9406" lon="4.31019">
        <ele>397.64</ele>
        <time>2021-08-12T15:11:27Z</time>
      </trkpt>
      <trkpt lat="46.9406" lon="4.31021">
        <ele>397.64</ele>
        <time>2021-08-12T15:11:28Z</time>
      </trkpt>
      <trkpt lat="46.9406" lon="4.31023">
        <ele>397.64</ele>
        <time>2021-08-12T15:11:29Z</time>
      </trkpt>
      <trkpt lat="46.94059" lon="4.31025">
        <ele>398.12</ele>
        <time>2021-08-12T15:11:30Z</time>
      </trkpt>
      <trkpt lat="46.94059" lon="4.31027">
        <ele>398.12</ele>
        <time>2021-08-12T15:11:31Z</time>
      </trkpt>
      <trkpt lat="46.94059" lon="4.3103">
        <ele>398.12</ele>
        <time>2021-08-12T15:11:33Z</time>
      </trkpt>
      <trkpt lat="46.94058" lon="4.31032">
        <ele>398.12</ele>
        <time>2021-08-12T15:11:34Z</time>
      </trkpt>
      <trkpt lat="46.94058" lon="4.31035">
        <ele>398.6</ele>
        <time>2021-08-12T15:11:35Z</time>
      </trkpt>
      <trkpt lat="46.94056" lon="4.31054">
        <ele>399.57</ele>
        <time>2021-08-12T15:11:43Z</time>
      </trkpt>
      <trkpt lat="46.94054" lon="4.31073">
        <ele>401.01</ele>
        <time>2021-08-12T15:11:52Z</time>
      </trkpt>
      <trkpt lat="46.94052" lon="4.31094">
        <ele>402.45</ele>
        <time>2021-08-12T15:12:02Z</time>
      </trkpt>
      <trkpt lat="46.94051" lon="4.31114">
        <ele>403.41</ele>
        <time>2021-08-12T15:12:11Z</time>
      </trkpt>
      <trkpt lat="46.94052" lon="4.31141">
        <ele>405.33</ele>
        <time>2021-08-12T15:12:23Z</time>
      </trkpt>
      <trkpt lat="46.94052" lon="4.3116">
        <ele>406.29</ele>
        <time>2021-08-12T15:12:32Z</time>
      </trkpt>
      <trkpt lat="46.94054" lon="4.31172">
        <ele>406.77</ele>
        <time>2021-08-12T15:12:38Z</time>
      </trkpt>
      <trkpt lat="46.94054" lon="4.31174">
        <ele>406.77</ele>
        <time>2021-08-12T15:12:39Z</time>
      </trkpt>
      <trkpt lat="46.94056" lon="4.31196">
        <ele>408.22</ele>
        <time>2021-08-12T15:12:49Z</time>
      </trkpt>
      <trkpt lat="46.94057" lon="4.31217">
        <ele>409.66</ele>
        <time>2021-08-12T15:12:59Z</time>
      </trkpt>
      <trkpt lat="46.94058" lon="4.31242">
        <ele>411.58</ele>
        <time>2021-08-12T15:13:10Z</time>
      </trkpt>
      <trkpt lat="46.94058" lon="4.31255">
        <ele>411.58</ele>
        <time>2021-08-12T15:13:16Z</time>
      </trkpt>
      <trkpt lat="46.94057" lon="4.31257">
        <ele>412.06</ele>
        <time>2021-08-12T15:13:17Z</time>
      </trkpt>
      <trkpt lat="46.94057" lon="4.31259">
        <ele>412.06</ele>
        <time>2021-08-12T15:13:18Z</time>
      </trkpt>
      <trkpt lat="46.94057" lon="4.31261">
        <ele>412.54</ele>
        <time>2021-08-12T15:13:19Z</time>
      </trkpt>
      <trkpt lat="46.94057" lon="4.31263">
        <ele>412.54</ele>
        <time>2021-08-12T15:13:20Z</time>
      </trkpt>
      <trkpt lat="46.94057" lon="4.31266">
        <ele>412.54</ele>
        <time>2021-08-12T15:13:21Z</time>
      </trkpt>
      <trkpt lat="46.94058" lon="4.31268">
        <ele>413.02</ele>
        <time>2021-08-12T15:13:22Z</time>
      </trkpt>
      <trkpt lat="46.94058" lon="4.3127">
        <ele>413.02</ele>
        <time>2021-08-12T15:13:23Z</time>
      </trkpt>
      <trkpt lat="46.94059" lon="4.31292">
        <ele>414.47</ele>
        <time>2021-08-12T15:13:31Z</time>
      </trkpt>
      <trkpt lat="46.9406" lon="4.31314">
        <ele>414.95</ele>
        <time>2021-08-12T15:13:39Z</time>
      </trkpt>
      <trkpt lat="46.94062" lon="4.31332">
        <ele>415.43</ele>
        <time>2021-08-12T15:13:46Z</time>
      </trkpt>
      <trkpt lat="46.94062" lon="4.31353">
        <ele>416.39</ele>
        <time>2021-08-12T15:13:54Z</time>
      </trkpt>
      <trkpt lat="46.94059" lon="4.31375">
        <ele>416.87</ele>
        <time>2021-08-12T15:14:02Z</time>
      </trkpt>
      <trkpt lat="46.94056" lon="4.314">
        <ele>418.31</ele>
        <time>2021-08-12T15:14:12Z</time>
      </trkpt>
      <trkpt lat="46.94052" lon="4.31423">
        <ele>420.23</ele>
        <time>2021-08-12T15:14:24Z</time>
      </trkpt>
      <trkpt lat="46.94048" lon="4.31438">
        <ele>421.19</ele>
        <time>2021-08-12T15:14:32Z</time>
      </trkpt>
      <trkpt lat="46.94044" lon="4.3146">
        <ele>423.12</ele>
        <time>2021-08-12T15:14:43Z</time>
      </trkpt>
      <trkpt lat="46.94043" lon="4.31469">
        <ele>423.6</ele>
        <time>2021-08-12T15:14:47Z</time>
      </trkpt>
      <trkpt lat="46.94043" lon="4.31471">
        <ele>423.6</ele>
        <time>2021-08-12T15:14:48Z</time>
      </trkpt>
      <trkpt lat="46.94037" lon="4.31488">
        <ele>425.04</ele>
        <time>2021-08-12T15:14:57Z</time>
      </trkpt>
      <trkpt lat="46.94034" lon="4.315">
        <ele>426</ele>
        <time>2021-08-12T15:15:03Z</time>
      </trkpt>
      <trkpt lat="46.94033" lon="4.31501">
        <ele>426</ele>
        <time>2021-08-12T15:15:04Z</time>
      </trkpt>
      <trkpt lat="46.94032" lon="4.31503">
        <ele>426.48</ele>
        <time>2021-08-12T15:15:05Z</time>
      </trkpt>
      <trkpt lat="46.94031" lon="4.31504">
        <ele>426.48</ele>
        <time>2021-08-12T15:15:06Z</time>
      </trkpt>
      <trkpt lat="46.9403" lon="4.31506">
        <ele>426.48</ele>
        <time>2021-08-12T15:15:07Z</time>
      </trkpt>
      <trkpt lat="46.94024" lon="4.31522">
        <ele>427.44</ele>
        <time>2021-08-12T15:15:16Z</time>
      </trkpt>
      <trkpt lat="46.94018" lon="4.31539">
        <ele>427.92</ele>
        <time>2021-08-12T15:15:24Z</time>
      </trkpt>
      <trkpt lat="46.94015" lon="4.31552">
        <ele>428.4</ele>
        <time>2021-08-12T15:15:30Z</time>
      </trkpt>
      <trkpt lat="46.94014" lon="4.31554">
        <ele>428.4</ele>
        <time>2021-08-12T15:15:31Z</time>
      </trkpt>
      <trkpt lat="46.94008" lon="4.31576">
        <ele>428.89</ele>
        <time>2021-08-12T15:15:40Z</time>
      </trkpt>
      <trkpt lat="46.94002" lon="4.31595">
        <ele>429.85</ele>
        <time>2021-08-12T15:15:48Z</time>
      </trkpt>
      <trkpt lat="46.93998" lon="4.31602">
        <ele>430.81</ele>
        <time>2021-08-12T15:15:55Z</time>
      </trkpt>
      <trkpt lat="46.94" lon="4.31604">
        <ele>430.81</ele>
        <time>2021-08-12T15:16:12Z</time>
      </trkpt>
      <trkpt lat="46.93995" lon="4.31606">
        <ele>430.81</ele>
        <time>2021-08-12T15:16:21Z</time>
      </trkpt>
      <trkpt lat="46.93995" lon="4.31607">
        <ele>431.77</ele>
        <time>2021-08-12T15:16:30Z</time>
      </trkpt>
      <trkpt lat="46.93996" lon="4.31608">
        <ele>431.77</ele>
        <time>2021-08-12T15:16:46Z</time>
      </trkpt>
      <trkpt lat="46.93994" lon="4.31609">
        <ele>431.77</ele>
        <time>2021-08-12T15:17:09Z</time>
      </trkpt>
      <trkpt lat="46.93993" lon="4.31607">
        <ele>431.77</ele>
        <time>2021-08-12T15:17:30Z</time>
      </trkpt>
      <trkpt lat="46.93993" lon="4.31604">
        <ele>431.77</ele>
        <time>2021-08-12T15:17:47Z</time>
      </trkpt>
      <trkpt lat="46.93994" lon="4.31606">
        <ele>431.77</ele>
        <time>2021-08-12T15:18:05Z</time>
      </trkpt>
      <trkpt lat="46.93993" lon="4.31608">
        <ele>431.77</ele>
        <time>2021-08-12T15:18:10Z</time>
      </trkpt>
      <trkpt lat="46.93992" lon="4.31609">
        <ele>431.77</ele>
        <time>2021-08-12T15:18:11Z</time>
      </trkpt>
      <trkpt lat="46.93992" lon="4.31611">
        <ele>431.77</ele>
        <time>2021-08-12T15:18:12Z</time>
      </trkpt>
      <trkpt lat="46.93988" lon="4.3162">
        <ele>432.73</ele>
        <time>2021-08-12T15:18:18Z</time>
      </trkpt>
      <trkpt lat="46.93987" lon="4.31622">
        <ele>432.73</ele>
        <time>2021-08-12T15:18:19Z</time>
      </trkpt>
      <trkpt lat="46.93987" lon="4.31623">
        <ele>432.73</ele>
        <time>2021-08-12T15:18:20Z</time>
      </trkpt>
      <trkpt lat="46.93981" lon="4.31637">
        <ele>434.65</ele>
        <time>2021-08-12T15:18:29Z</time>
      </trkpt>
      <trkpt lat="46.93977" lon="4.31648">
        <ele>435.61</ele>
        <time>2021-08-12T15:18:36Z</time>
      </trkpt>
      <trkpt lat="46.93971" lon="4.31656">
        <ele>437.06</ele>
        <time>2021-08-12T15:18:44Z</time>
      </trkpt>
      <trkpt lat="46.93966" lon="4.31668">
        <ele>438.02</ele>
        <time>2021-08-12T15:18:53Z</time>
      </trkpt>
      <trkpt lat="46.9396" lon="4.31679">
        <ele>439.46</ele>
        <time>2021-08-12T15:19:01Z</time>
      </trkpt>
      <trkpt lat="46.93953" lon="4.31687">
        <ele>440.42</ele>
        <time>2021-08-12T15:19:08Z</time>
      </trkpt>
      <trkpt lat="46.93945" lon="4.31695">
        <ele>441.38</ele>
        <time>2021-08-12T15:19:16Z</time>
      </trkpt>
      <trkpt lat="46.93943" lon="4.31696">
        <ele>441.86</ele>
        <time>2021-08-12T15:19:18Z</time>
      </trkpt>
      <trkpt lat="46.93942" lon="4.31697">
        <ele>441.86</ele>
        <time>2021-08-12T15:19:19Z</time>
      </trkpt>
      <trkpt lat="46.93941" lon="4.31697">
        <ele>442.34</ele>
        <time>2021-08-12T15:19:20Z</time>
      </trkpt>
      <trkpt lat="46.93939" lon="4.31697">
        <ele>442.34</ele>
        <time>2021-08-12T15:19:21Z</time>
      </trkpt>
      <trkpt lat="46.93938" lon="4.31697">
        <ele>442.34</ele>
        <time>2021-08-12T15:19:22Z</time>
      </trkpt>
      <trkpt lat="46.93932" lon="4.31701">
        <ele>442.82</ele>
        <time>2021-08-12T15:19:27Z</time>
      </trkpt>
      <trkpt lat="46.93931" lon="4.31701">
        <ele>443.31</ele>
        <time>2021-08-12T15:19:28Z</time>
      </trkpt>
      <trkpt lat="46.9393" lon="4.31701">
        <ele>443.31</ele>
        <time>2021-08-12T15:19:29Z</time>
      </trkpt>
      <trkpt lat="46.93929" lon="4.31702">
        <ele>443.79</ele>
        <time>2021-08-12T15:19:30Z</time>
      </trkpt>
      <trkpt lat="46.93928" lon="4.31703">
        <ele>443.79</ele>
        <time>2021-08-12T15:19:31Z</time>
      </trkpt>
      <trkpt lat="46.93924" lon="4.31704">
        <ele>443.79</ele>
        <time>2021-08-12T15:19:34Z</time>
      </trkpt>
      <trkpt lat="46.93923" lon="4.31705">
        <ele>444.27</ele>
        <time>2021-08-12T15:19:35Z</time>
      </trkpt>
      <trkpt lat="46.93922" lon="4.31706">
        <ele>444.27</ele>
        <time>2021-08-12T15:19:36Z</time>
      </trkpt>
      <trkpt lat="46.93915" lon="4.31708">
        <ele>444.75</ele>
        <time>2021-08-12T15:19:42Z</time>
      </trkpt>
      <trkpt lat="46.93903" lon="4.31712">
        <ele>446.67</ele>
        <time>2021-08-12T15:19:51Z</time>
      </trkpt>
      <trkpt lat="46.93901" lon="4.31713">
        <ele>446.67</ele>
        <time>2021-08-12T15:19:53Z</time>
      </trkpt>
      <trkpt lat="46.93894" lon="4.31714">
        <ele>447.63</ele>
        <time>2021-08-12T15:19:58Z</time>
      </trkpt>
      <trkpt lat="46.93893" lon="4.31713">
        <ele>447.63</ele>
        <time>2021-08-12T15:19:59Z</time>
      </trkpt>
      <trkpt lat="46.93891" lon="4.31713">
        <ele>447.63</ele>
        <time>2021-08-12T15:20:00Z</time>
      </trkpt>
      <trkpt lat="46.9389" lon="4.31713">
        <ele>447.63</ele>
        <time>2021-08-12T15:20:01Z</time>
      </trkpt>
      <trkpt lat="46.93889" lon="4.31712">
        <ele>447.63</ele>
        <time>2021-08-12T15:20:02Z</time>
      </trkpt>
      <trkpt lat="46.93888" lon="4.31713">
        <ele>448.11</ele>
        <time>2021-08-12T15:20:03Z</time>
      </trkpt>
      <trkpt lat="46.93884" lon="4.31713">
        <ele>448.59</ele>
        <time>2021-08-12T15:20:06Z</time>
      </trkpt>
      <trkpt lat="46.93883" lon="4.31712">
        <ele>448.59</ele>
        <time>2021-08-12T15:20:07Z</time>
      </trkpt>
      <trkpt lat="46.93881" lon="4.31712">
        <ele>448.59</ele>
        <time>2021-08-12T15:20:08Z</time>
      </trkpt>
      <trkpt lat="46.9387" lon="4.31709">
        <ele>449.55</ele>
        <time>2021-08-12T15:20:18Z</time>
      </trkpt>
      <trkpt lat="46.93857" lon="4.31704">
        <ele>450.03</ele>
        <time>2021-08-12T15:20:28Z</time>
      </trkpt>
      <trkpt lat="46.93843" lon="4.31697">
        <ele>451.48</ele>
        <time>2021-08-12T15:20:38Z</time>
      </trkpt>
      <trkpt lat="46.93834" lon="4.31692">
        <ele>451.96</ele>
        <time>2021-08-12T15:20:45Z</time>
      </trkpt>
      <trkpt lat="46.93823" lon="4.31686">
        <ele>452.44</ele>
        <time>2021-08-12T15:20:53Z</time>
      </trkpt>
      <trkpt lat="46.93812" lon="4.3168">
        <ele>453.88</ele>
        <time>2021-08-12T15:21:00Z</time>
      </trkpt>
      <trkpt lat="46.93807" lon="4.31677">
        <ele>453.88</ele>
        <time>2021-08-12T15:21:04Z</time>
      </trkpt>
      <trkpt lat="46.93805" lon="4.31677">
        <ele>454.36</ele>
        <time>2021-08-12T15:21:05Z</time>
      </trkpt>
      <trkpt lat="46.93803" lon="4.31676">
        <ele>454.36</ele>
        <time>2021-08-12T15:21:06Z</time>
      </trkpt>
      <trkpt lat="46.93801" lon="4.31676">
        <ele>454.36</ele>
        <time>2021-08-12T15:21:07Z</time>
      </trkpt>
      <trkpt lat="46.938" lon="4.31676">
        <ele>454.36</ele>
        <time>2021-08-12T15:21:08Z</time>
      </trkpt>
      <trkpt lat="46.93787" lon="4.31669">
        <ele>454.84</ele>
        <time>2021-08-12T15:21:18Z</time>
      </trkpt>
      <trkpt lat="46.93775" lon="4.31664">
        <ele>455.32</ele>
        <time>2021-08-12T15:21:25Z</time>
      </trkpt>
      <trkpt lat="46.93772" lon="4.31662">
        <ele>455.8</ele>
        <time>2021-08-12T15:21:27Z</time>
      </trkpt>
      <trkpt lat="46.9377" lon="4.31661">
        <ele>455.8</ele>
        <time>2021-08-12T15:21:28Z</time>
      </trkpt>
      <trkpt lat="46.93763" lon="4.31659">
        <ele>455.8</ele>
        <time>2021-08-12T15:21:32Z</time>
      </trkpt>
      <trkpt lat="46.93761" lon="4.31659">
        <ele>455.8</ele>
        <time>2021-08-12T15:21:33Z</time>
      </trkpt>
      <trkpt lat="46.93759" lon="4.31658">
        <ele>456.28</ele>
        <time>2021-08-12T15:21:34Z</time>
      </trkpt>
      <trkpt lat="46.93757" lon="4.31658">
        <ele>456.28</ele>
        <time>2021-08-12T15:21:35Z</time>
      </trkpt>
      <trkpt lat="46.93756" lon="4.31657">
        <ele>456.28</ele>
        <time>2021-08-12T15:21:36Z</time>
      </trkpt>
      <trkpt lat="46.93741" lon="4.31653">
        <ele>456.76</ele>
        <time>2021-08-12T15:21:44Z</time>
      </trkpt>
      <trkpt lat="46.93727" lon="4.31651">
        <ele>457.72</ele>
        <time>2021-08-12T15:21:52Z</time>
      </trkpt>
      <trkpt lat="46.9372" lon="4.31648">
        <ele>458.21</ele>
        <time>2021-08-12T15:21:57Z</time>
      </trkpt>
      <trkpt lat="46.93703" lon="4.31644">
        <ele>459.17</ele>
        <time>2021-08-12T15:22:06Z</time>
      </trkpt>
      <trkpt lat="46.93693" lon="4.31641">
        <ele>460.13</ele>
        <time>2021-08-12T15:22:13Z</time>
      </trkpt>
      <trkpt lat="46.93685" lon="4.31637">
        <ele>460.61</ele>
        <time>2021-08-12T15:22:19Z</time>
      </trkpt>
      <trkpt lat="46.9368" lon="4.31633">
        <ele>461.09</ele>
        <time>2021-08-12T15:22:23Z</time>
      </trkpt>
      <trkpt lat="46.93679" lon="4.31632">
        <ele>461.57</ele>
        <time>2021-08-12T15:22:24Z</time>
      </trkpt>
      <trkpt lat="46.93669" lon="4.31622">
        <ele>462.53</ele>
        <time>2021-08-12T15:22:33Z</time>
      </trkpt>
      <trkpt lat="46.93667" lon="4.31618">
        <ele>462.53</ele>
        <time>2021-08-12T15:22:36Z</time>
      </trkpt>
      <trkpt lat="46.93662" lon="4.31604">
        <ele>463.49</ele>
        <time>2021-08-12T15:22:43Z</time>
      </trkpt>
      <trkpt lat="46.93663" lon="4.31601">
        <ele>463.49</ele>
        <time>2021-08-12T15:22:44Z</time>
      </trkpt>
      <trkpt lat="46.93662" lon="4.31587">
        <ele>463.97</ele>
        <time>2021-08-12T15:22:51Z</time>
      </trkpt>
      <trkpt lat="46.93661" lon="4.31581">
        <ele>464.45</ele>
        <time>2021-08-12T15:22:55Z</time>
      </trkpt>
      <trkpt lat="46.9366" lon="4.31579">
        <ele>464.45</ele>
        <time>2021-08-12T15:22:56Z</time>
      </trkpt>
      <trkpt lat="46.93659" lon="4.31578">
        <ele>464.93</ele>
        <time>2021-08-12T15:22:57Z</time>
      </trkpt>
      <trkpt lat="46.93658" lon="4.31577">
        <ele>465.42</ele>
        <time>2021-08-12T15:22:58Z</time>
      </trkpt>
      <trkpt lat="46.93651" lon="4.31565">
        <ele>465.42</ele>
        <time>2021-08-12T15:23:05Z</time>
      </trkpt>
      <trkpt lat="46.93645" lon="4.31554">
        <ele>466.86</ele>
        <time>2021-08-12T15:23:11Z</time>
      </trkpt>
      <trkpt lat="46.93638" lon="4.31546">
        <ele>467.34</ele>
        <time>2021-08-12T15:23:19Z</time>
      </trkpt>
      <trkpt lat="46.93633" lon="4.31537">
        <ele>468.3</ele>
        <time>2021-08-12T15:23:25Z</time>
      </trkpt>
      <trkpt lat="46.93633" lon="4.31535">
        <ele>468.3</ele>
        <time>2021-08-12T15:23:26Z</time>
      </trkpt>
      <trkpt lat="46.93629" lon="4.31525">
        <ele>469.26</ele>
        <time>2021-08-12T15:23:34Z</time>
      </trkpt>
      <trkpt lat="46.93626" lon="4.31525">
        <ele>470.22</ele>
        <time>2021-08-12T15:23:40Z</time>
      </trkpt>
      <trkpt lat="46.93623" lon="4.31529">
        <ele>470.7</ele>
        <time>2021-08-12T15:23:47Z</time>
      </trkpt>
      <trkpt lat="46.93621" lon="4.31532">
        <ele>471.66</ele>
        <time>2021-08-12T15:23:52Z</time>
      </trkpt>
      <trkpt lat="46.9362" lon="4.31533">
        <ele>471.66</ele>
        <time>2021-08-12T15:23:53Z</time>
      </trkpt>
      <trkpt lat="46.93615" lon="4.3154">
        <ele>473.59</ele>
        <time>2021-08-12T15:24:03Z</time>
      </trkpt>
      <trkpt lat="46.93613" lon="4.31552">
        <ele>474.55</ele>
        <time>2021-08-12T15:24:11Z</time>
      </trkpt>
      <trkpt lat="46.93611" lon="4.31567">
        <ele>475.99</ele>
        <time>2021-08-12T15:24:18Z</time>
      </trkpt>
      <trkpt lat="46.93607" lon="4.31578">
        <ele>476.47</ele>
        <time>2021-08-12T15:24:25Z</time>
      </trkpt>
      <trkpt lat="46.93602" lon="4.31588">
        <ele>478.39</ele>
        <time>2021-08-12T15:24:32Z</time>
      </trkpt>
      <trkpt lat="46.93596" lon="4.31594">
        <ele>478.87</ele>
        <time>2021-08-12T15:24:39Z</time>
      </trkpt>
      <trkpt lat="46.9359" lon="4.31595">
        <ele>479.84</ele>
        <time>2021-08-12T15:24:46Z</time>
      </trkpt>
      <trkpt lat="46.93581" lon="4.31596">
        <ele>480.8</ele>
        <time>2021-08-12T15:24:54Z</time>
      </trkpt>
      <trkpt lat="46.93574" lon="4.31597">
        <ele>482.24</ele>
        <time>2021-08-12T15:25:02Z</time>
      </trkpt>
      <trkpt lat="46.93568" lon="4.31596">
        <ele>483.2</ele>
        <time>2021-08-12T15:25:09Z</time>
      </trkpt>
      <trkpt lat="46.93561" lon="4.31596">
        <ele>483.68</ele>
        <time>2021-08-12T15:25:16Z</time>
      </trkpt>
      <trkpt lat="46.93557" lon="4.31596">
        <ele>484.16</ele>
        <time>2021-08-12T15:25:19Z</time>
      </trkpt>
      <trkpt lat="46.93555" lon="4.31595">
        <ele>484.16</ele>
        <time>2021-08-12T15:25:20Z</time>
      </trkpt>
      <trkpt lat="46.93542" lon="4.31587">
        <ele>484.64</ele>
        <time>2021-08-12T15:25:27Z</time>
      </trkpt>
      <trkpt lat="46.93529" lon="4.31574">
        <ele>485.12</ele>
        <time>2021-08-12T15:25:34Z</time>
      </trkpt>
      <trkpt lat="46.93512" lon="4.31574">
        <ele>485.12</ele>
        <time>2021-08-12T15:25:41Z</time>
      </trkpt>
      <trkpt lat="46.93504" lon="4.31581">
        <ele>485.12</ele>
        <time>2021-08-12T15:25:47Z</time>
      </trkpt>
      <trkpt lat="46.93498" lon="4.31595">
        <ele>485.6</ele>
        <time>2021-08-12T15:25:54Z</time>
      </trkpt>
      <trkpt lat="46.93492" lon="4.31609">
        <ele>487.05</ele>
        <time>2021-08-12T15:26:04Z</time>
      </trkpt>
      <trkpt lat="46.93491" lon="4.31617">
        <ele>488.97</ele>
        <time>2021-08-12T15:26:11Z</time>
      </trkpt>
      <trkpt lat="46.93491" lon="4.31624">
        <ele>489.93</ele>
        <time>2021-08-12T15:26:15Z</time>
      </trkpt>
      <trkpt lat="46.93491" lon="4.31626">
        <ele>489.93</ele>
        <time>2021-08-12T15:26:16Z</time>
      </trkpt>
      <trkpt lat="46.9349" lon="4.31627">
        <ele>489.93</ele>
        <time>2021-08-12T15:26:17Z</time>
      </trkpt>
      <trkpt lat="46.93486" lon="4.31633">
        <ele>490.89</ele>
        <time>2021-08-12T15:26:23Z</time>
      </trkpt>
      <trkpt lat="46.9348" lon="4.31633">
        <ele>491.85</ele>
        <time>2021-08-12T15:26:29Z</time>
      </trkpt>
      <trkpt lat="46.93472" lon="4.3163">
        <ele>492.81</ele>
        <time>2021-08-12T15:26:35Z</time>
      </trkpt>
      <trkpt lat="46.93468" lon="4.31626">
        <ele>493.29</ele>
        <time>2021-08-12T15:26:43Z</time>
      </trkpt>
      <trkpt lat="46.93463" lon="4.3163">
        <ele>494.26</ele>
        <time>2021-08-12T15:26:50Z</time>
      </trkpt>
      <trkpt lat="46.93456" lon="4.31632">
        <ele>495.7</ele>
        <time>2021-08-12T15:26:57Z</time>
      </trkpt>
      <trkpt lat="46.93451" lon="4.31631">
        <ele>496.18</ele>
        <time>2021-08-12T15:27:05Z</time>
      </trkpt>
      <trkpt lat="46.93446" lon="4.31631">
        <ele>497.14</ele>
        <time>2021-08-12T15:27:10Z</time>
      </trkpt>
      <trkpt lat="46.93435" lon="4.31631">
        <ele>498.1</ele>
        <time>2021-08-12T15:27:18Z</time>
      </trkpt>
      <trkpt lat="46.93427" lon="4.31634">
        <ele>498.1</ele>
        <time>2021-08-12T15:27:24Z</time>
      </trkpt>
      <trkpt lat="46.93418" lon="4.31639">
        <ele>499.06</ele>
        <time>2021-08-12T15:27:31Z</time>
      </trkpt>
      <trkpt lat="46.93412" lon="4.31645">
        <ele>499.54</ele>
        <time>2021-08-12T15:27:37Z</time>
      </trkpt>
      <trkpt lat="46.93403" lon="4.31652">
        <ele>500.02</ele>
        <time>2021-08-12T15:27:43Z</time>
      </trkpt>
      <trkpt lat="46.9339" lon="4.31662">
        <ele>500.5</ele>
        <time>2021-08-12T15:27:51Z</time>
      </trkpt>
      <trkpt lat="46.93383" lon="4.31668">
        <ele>500.98</ele>
        <time>2021-08-12T15:27:57Z</time>
      </trkpt>
      <trkpt lat="46.93377" lon="4.31675">
        <ele>500.98</ele>
        <time>2021-08-12T15:28:02Z</time>
      </trkpt>
      <trkpt lat="46.93376" lon="4.31676">
        <ele>500.98</ele>
        <time>2021-08-12T15:28:03Z</time>
      </trkpt>
      <trkpt lat="46.93374" lon="4.31678">
        <ele>501.46</ele>
        <time>2021-08-12T15:28:04Z</time>
      </trkpt>
      <trkpt lat="46.93367" lon="4.31688">
        <ele>502.43</ele>
        <time>2021-08-12T15:28:10Z</time>
      </trkpt>
      <trkpt lat="46.93359" lon="4.31694">
        <ele>503.39</ele>
        <time>2021-08-12T15:28:17Z</time>
      </trkpt>
      <trkpt lat="46.9335" lon="4.31699">
        <ele>503.87</ele>
        <time>2021-08-12T15:28:23Z</time>
      </trkpt>
      <trkpt lat="46.93333" lon="4.3172">
        <ele>505.31</ele>
        <time>2021-08-12T15:28:32Z</time>
      </trkpt>
      <trkpt lat="46.93327" lon="4.31723">
        <ele>506.27</ele>
        <time>2021-08-12T15:28:40Z</time>
      </trkpt>
      <trkpt lat="46.93321" lon="4.31725">
        <ele>507.71</ele>
        <time>2021-08-12T15:28:48Z</time>
      </trkpt>
      <trkpt lat="46.93312" lon="4.31729">
        <ele>509.16</ele>
        <time>2021-08-12T15:28:56Z</time>
      </trkpt>
      <trkpt lat="46.93305" lon="4.31734">
        <ele>510.12</ele>
        <time>2021-08-12T15:29:03Z</time>
      </trkpt>
      <trkpt lat="46.93297" lon="4.31741">
        <ele>512.04</ele>
        <time>2021-08-12T15:29:11Z</time>
      </trkpt>
      <trkpt lat="46.93293" lon="4.31744">
        <ele>513</ele>
        <time>2021-08-12T15:29:15Z</time>
      </trkpt>
      <trkpt lat="46.93286" lon="4.31745">
        <ele>514.44</ele>
        <time>2021-08-12T15:29:21Z</time>
      </trkpt>
      <trkpt lat="46.93276" lon="4.31754">
        <ele>515.88</ele>
        <time>2021-08-12T15:29:31Z</time>
      </trkpt>
      <trkpt lat="46.93271" lon="4.31759">
        <ele>516.37</ele>
        <time>2021-08-12T15:29:35Z</time>
      </trkpt>
      <trkpt lat="46.93264" lon="4.31765">
        <ele>517.33</ele>
        <time>2021-08-12T15:29:41Z</time>
      </trkpt>
      <trkpt lat="46.93253" lon="4.31771">
        <ele>517.81</ele>
        <time>2021-08-12T15:29:48Z</time>
      </trkpt>
      <trkpt lat="46.93244" lon="4.31781">
        <ele>518.77</ele>
        <time>2021-08-12T15:29:54Z</time>
      </trkpt>
      <trkpt lat="46.93242" lon="4.31783">
        <ele>518.77</ele>
        <time>2021-08-12T15:29:55Z</time>
      </trkpt>
      <trkpt lat="46.93234" lon="4.31786">
        <ele>518.77</ele>
        <time>2021-08-12T15:29:58Z</time>
      </trkpt>
      <trkpt lat="46.93218" lon="4.31795">
        <ele>519.25</ele>
        <time>2021-08-12T15:30:05Z</time>
      </trkpt>
      <trkpt lat="46.93195" lon="4.31807">
        <ele>517.81</ele>
        <time>2021-08-12T15:30:11Z</time>
      </trkpt>
      <trkpt lat="46.93191" lon="4.31809">
        <ele>517.81</ele>
        <time>2021-08-12T15:30:12Z</time>
      </trkpt>
      <trkpt lat="46.93165" lon="4.31825">
        <ele>517.81</ele>
        <time>2021-08-12T15:30:19Z</time>
      </trkpt>
      <trkpt lat="46.93142" lon="4.31842">
        <ele>516.85</ele>
        <time>2021-08-12T15:30:26Z</time>
      </trkpt>
      <trkpt lat="46.93117" lon="4.31858">
        <ele>516.37</ele>
        <time>2021-08-12T15:30:34Z</time>
      </trkpt>
      <trkpt lat="46.93097" lon="4.31884">
        <ele>515.88</ele>
        <time>2021-08-12T15:30:41Z</time>
      </trkpt>
      <trkpt lat="46.9308" lon="4.31923">
        <ele>515.4</ele>
        <time>2021-08-12T15:30:48Z</time>
      </trkpt>
      <trkpt lat="46.93073" lon="4.31945">
        <ele>513.96</ele>
        <time>2021-08-12T15:30:51Z</time>
      </trkpt>
      <trkpt lat="46.93067" lon="4.31964">
        <ele>513.96</ele>
        <time>2021-08-12T15:30:54Z</time>
      </trkpt>
      <trkpt lat="46.93063" lon="4.3197">
        <ele>513.96</ele>
        <time>2021-08-12T15:30:55Z</time>
      </trkpt>
      <trkpt lat="46.9306" lon="4.31976">
        <ele>513.96</ele>
        <time>2021-08-12T15:30:56Z</time>
      </trkpt>
      <trkpt lat="46.93057" lon="4.31982">
        <ele>513.48</ele>
        <time>2021-08-12T15:30:57Z</time>
      </trkpt>
      <trkpt lat="46.93054" lon="4.31989">
        <ele>513.48</ele>
        <time>2021-08-12T15:30:58Z</time>
      </trkpt>
      <trkpt lat="46.93051" lon="4.31995">
        <ele>513</ele>
        <time>2021-08-12T15:30:59Z</time>
      </trkpt>
      <trkpt lat="46.93047" lon="4.32001">
        <ele>513</ele>
        <time>2021-08-12T15:31:00Z</time>
      </trkpt>
      <trkpt lat="46.93043" lon="4.32007">
        <ele>513</ele>
        <time>2021-08-12T15:31:01Z</time>
      </trkpt>
      <trkpt lat="46.93038" lon="4.32012">
        <ele>512.52</ele>
        <time>2021-08-12T15:31:02Z</time>
      </trkpt>
      <trkpt lat="46.93033" lon="4.32015">
        <ele>512.04</ele>
        <time>2021-08-12T15:31:03Z</time>
      </trkpt>
      <trkpt lat="46.93027" lon="4.32019">
        <ele>511.56</ele>
        <time>2021-08-12T15:31:04Z</time>
      </trkpt>
      <trkpt lat="46.93007" lon="4.32029">
        <ele>509.64</ele>
        <time>2021-08-12T15:31:09Z</time>
      </trkpt>
      <trkpt lat="46.92997" lon="4.32035">
        <ele>509.16</ele>
        <time>2021-08-12T15:31:12Z</time>
      </trkpt>
      <trkpt lat="46.92995" lon="4.32039">
        <ele>509.16</ele>
        <time>2021-08-12T15:31:13Z</time>
      </trkpt>
      <trkpt lat="46.92986" lon="4.32068">
        <ele>508.19</ele>
        <time>2021-08-12T15:31:20Z</time>
      </trkpt>
      <trkpt lat="46.92975" lon="4.32086">
        <ele>507.71</ele>
        <time>2021-08-12T15:31:25Z</time>
      </trkpt>
      <trkpt lat="46.92963" lon="4.32107">
        <ele>508.19</ele>
        <time>2021-08-12T15:31:31Z</time>
      </trkpt>
      <trkpt lat="46.92955" lon="4.32121">
        <ele>508.19</ele>
        <time>2021-08-12T15:31:36Z</time>
      </trkpt>
      <trkpt lat="46.9295" lon="4.3213">
        <ele>508.19</ele>
        <time>2021-08-12T15:31:40Z</time>
      </trkpt>
      <trkpt lat="46.92946" lon="4.32136">
        <ele>508.19</ele>
        <time>2021-08-12T15:31:44Z</time>
      </trkpt>
      <trkpt lat="46.92941" lon="4.32142">
        <ele>509.64</ele>
        <time>2021-08-12T15:31:47Z</time>
      </trkpt>
      <trkpt lat="46.92934" lon="4.32154">
        <ele>509.64</ele>
        <time>2021-08-12T15:31:53Z</time>
      </trkpt>
      <trkpt lat="46.92933" lon="4.32156">
        <ele>509.64</ele>
        <time>2021-08-12T15:31:54Z</time>
      </trkpt>
      <trkpt lat="46.9292" lon="4.32176">
        <ele>510.6</ele>
        <time>2021-08-12T15:32:03Z</time>
      </trkpt>
      <trkpt lat="46.9291" lon="4.32193">
        <ele>510.6</ele>
        <time>2021-08-12T15:32:10Z</time>
      </trkpt>
      <trkpt lat="46.92896" lon="4.3221">
        <ele>511.08</ele>
        <time>2021-08-12T15:32:18Z</time>
      </trkpt>
      <trkpt lat="46.92884" lon="4.32226">
        <ele>511.56</ele>
        <time>2021-08-12T15:32:25Z</time>
      </trkpt>
      <trkpt lat="46.92883" lon="4.32228">
        <ele>511.56</ele>
        <time>2021-08-12T15:32:26Z</time>
      </trkpt>
      <trkpt lat="46.92882" lon="4.3223">
        <ele>511.56</ele>
        <time>2021-08-12T15:32:27Z</time>
      </trkpt>
      <trkpt lat="46.92869" lon="4.3225">
        <ele>512.04</ele>
        <time>2021-08-12T15:32:34Z</time>
      </trkpt>
      <trkpt lat="46.92861" lon="4.32262">
        <ele>513.48</ele>
        <time>2021-08-12T15:32:42Z</time>
      </trkpt>
      <trkpt lat="46.92855" lon="4.32272">
        <ele>514.44</ele>
        <time>2021-08-12T15:32:51Z</time>
      </trkpt>
      <trkpt lat="46.92849" lon="4.3229">
        <ele>515.88</ele>
        <time>2021-08-12T15:33:00Z</time>
      </trkpt>
      <trkpt lat="46.92846" lon="4.32299">
        <ele>516.37</ele>
        <time>2021-08-12T15:33:06Z</time>
      </trkpt>
      <trkpt lat="46.92843" lon="4.32308">
        <ele>516.85</ele>
        <time>2021-08-12T15:33:12Z</time>
      </trkpt>
      <trkpt lat="46.92844" lon="4.32312">
        <ele>516.85</ele>
        <time>2021-08-12T15:33:17Z</time>
      </trkpt>
      <trkpt lat="46.92842" lon="4.32325">
        <ele>517.81</ele>
        <time>2021-08-12T15:33:25Z</time>
      </trkpt>
      <trkpt lat="46.9284" lon="4.3233">
        <ele>518.29</ele>
        <time>2021-08-12T15:33:31Z</time>
      </trkpt>
      <trkpt lat="46.92839" lon="4.3234">
        <ele>518.29</ele>
        <time>2021-08-12T15:33:38Z</time>
      </trkpt>
      <trkpt lat="46.92839" lon="4.32341">
        <ele>518.29</ele>
        <time>2021-08-12T15:33:39Z</time>
      </trkpt>
      <trkpt lat="46.92838" lon="4.32343">
        <ele>518.29</ele>
        <time>2021-08-12T15:33:40Z</time>
      </trkpt>
      <trkpt lat="46.92837" lon="4.32347">
        <ele>518.77</ele>
        <time>2021-08-12T15:33:43Z</time>
      </trkpt>
      <trkpt lat="46.92837" lon="4.3235">
        <ele>519.25</ele>
        <time>2021-08-12T15:33:44Z</time>
      </trkpt>
      <trkpt lat="46.92838" lon="4.32353">
        <ele>519.25</ele>
        <time>2021-08-12T15:33:45Z</time>
      </trkpt>
      <trkpt lat="46.92838" lon="4.32355">
        <ele>519.25</ele>
        <time>2021-08-12T15:33:46Z</time>
      </trkpt>
      <trkpt lat="46.92835" lon="4.32365">
        <ele>519.73</ele>
        <time>2021-08-12T15:33:53Z</time>
      </trkpt>
      <trkpt lat="46.92834" lon="4.32374">
        <ele>520.21</ele>
        <time>2021-08-12T15:33:59Z</time>
      </trkpt>
      <trkpt lat="46.92832" lon="4.3238">
        <ele>520.69</ele>
        <time>2021-08-12T15:34:04Z</time>
      </trkpt>
      <trkpt lat="46.92831" lon="4.32382">
        <ele>520.69</ele>
        <time>2021-08-12T15:34:05Z</time>
      </trkpt>
      <trkpt lat="46.92831" lon="4.32384">
        <ele>520.69</ele>
        <time>2021-08-12T15:34:06Z</time>
      </trkpt>
      <trkpt lat="46.92827" lon="4.32392">
        <ele>521.65</ele>
        <time>2021-08-12T15:34:13Z</time>
      </trkpt>
      <trkpt lat="46.92826" lon="4.32395">
        <ele>522.13</ele>
        <time>2021-08-12T15:34:15Z</time>
      </trkpt>
      <trkpt lat="46.92824" lon="4.32399">
        <ele>522.13</ele>
        <time>2021-08-12T15:34:18Z</time>
      </trkpt>
      <trkpt lat="46.92823" lon="4.32412">
        <ele>523.09</ele>
        <time>2021-08-12T15:34:26Z</time>
      </trkpt>
      <trkpt lat="46.92822" lon="4.3242">
        <ele>523.58</ele>
        <time>2021-08-12T15:34:30Z</time>
      </trkpt>
      <trkpt lat="46.92819" lon="4.32432">
        <ele>524.06</ele>
        <time>2021-08-12T15:34:37Z</time>
      </trkpt>
      <trkpt lat="46.92815" lon="4.3244">
        <ele>525.02</ele>
        <time>2021-08-12T15:34:43Z</time>
      </trkpt>
      <trkpt lat="46.92811" lon="4.32445">
        <ele>525.98</ele>
        <time>2021-08-12T15:34:48Z</time>
      </trkpt>
      <trkpt lat="46.92808" lon="4.32459">
        <ele>526.94</ele>
        <time>2021-08-12T15:34:56Z</time>
      </trkpt>
      <trkpt lat="46.92806" lon="4.3247">
        <ele>527.42</ele>
        <time>2021-08-12T15:35:03Z</time>
      </trkpt>
      <trkpt lat="46.92801" lon="4.32484">
        <ele>528.38</ele>
        <time>2021-08-12T15:35:10Z</time>
      </trkpt>
      <trkpt lat="46.92798" lon="4.32493">
        <ele>529.34</ele>
        <time>2021-08-12T15:35:16Z</time>
      </trkpt>
      <trkpt lat="46.92797" lon="4.32496">
        <ele>529.82</ele>
        <time>2021-08-12T15:35:18Z</time>
      </trkpt>
      <trkpt lat="46.92794" lon="4.32505">
        <ele>530.3</ele>
        <time>2021-08-12T15:35:23Z</time>
      </trkpt>
      <trkpt lat="46.92793" lon="4.32506">
        <ele>530.3</ele>
        <time>2021-08-12T15:35:24Z</time>
      </trkpt>
      <trkpt lat="46.92792" lon="4.32508">
        <ele>530.3</ele>
        <time>2021-08-12T15:35:25Z</time>
      </trkpt>
      <trkpt lat="46.92789" lon="4.32513">
        <ele>530.79</ele>
        <time>2021-08-12T15:35:28Z</time>
      </trkpt>
      <trkpt lat="46.92782" lon="4.32526">
        <ele>531.27</ele>
        <time>2021-08-12T15:35:35Z</time>
      </trkpt>
      <trkpt lat="46.92779" lon="4.32532">
        <ele>531.75</ele>
        <time>2021-08-12T15:35:38Z</time>
      </trkpt>
      <trkpt lat="46.92779" lon="4.32534">
        <ele>532.23</ele>
        <time>2021-08-12T15:35:39Z</time>
      </trkpt>
      <trkpt lat="46.92774" lon="4.32546">
        <ele>532.71</ele>
        <time>2021-08-12T15:35:45Z</time>
      </trkpt>
      <trkpt lat="46.92766" lon="4.32563">
        <ele>533.67</ele>
        <time>2021-08-12T15:35:53Z</time>
      </trkpt>
      <trkpt lat="46.92761" lon="4.32577">
        <ele>534.63</ele>
        <time>2021-08-12T15:35:59Z</time>
      </trkpt>
      <trkpt lat="46.9275" lon="4.32589">
        <ele>535.59</ele>
        <time>2021-08-12T15:36:08Z</time>
      </trkpt>
      <trkpt lat="46.92744" lon="4.32596">
        <ele>536.07</ele>
        <time>2021-08-12T15:36:16Z</time>
      </trkpt>
      <trkpt lat="46.92738" lon="4.32605">
        <ele>537.51</ele>
        <time>2021-08-12T15:36:25Z</time>
      </trkpt>
      <trkpt lat="46.92727" lon="4.32612">
        <ele>538.96</ele>
        <time>2021-08-12T15:36:33Z</time>
      </trkpt>
      <trkpt lat="46.92716" lon="4.3262">
        <ele>539.44</ele>
        <time>2021-08-12T15:36:39Z</time>
      </trkpt>
      <trkpt lat="46.92714" lon="4.32622">
        <ele>539.44</ele>
        <time>2021-08-12T15:36:40Z</time>
      </trkpt>
      <trkpt lat="46.92706" lon="4.32627">
        <ele>539.92</ele>
        <time>2021-08-12T15:36:44Z</time>
      </trkpt>
      <trkpt lat="46.92704" lon="4.32629">
        <ele>540.4</ele>
        <time>2021-08-12T15:36:45Z</time>
      </trkpt>
      <trkpt lat="46.92695" lon="4.32635">
        <ele>540.88</ele>
        <time>2021-08-12T15:36:52Z</time>
      </trkpt>
      <trkpt lat="46.9269" lon="4.32639">
        <ele>541.84</ele>
        <time>2021-08-12T15:36:58Z</time>
      </trkpt>
      <trkpt lat="46.9269" lon="4.3264">
        <ele>541.84</ele>
        <time>2021-08-12T15:36:59Z</time>
      </trkpt>
      <trkpt lat="46.92688" lon="4.32641">
        <ele>541.84</ele>
        <time>2021-08-12T15:37:00Z</time>
      </trkpt>
      <trkpt lat="46.92682" lon="4.32643">
        <ele>542.32</ele>
        <time>2021-08-12T15:37:06Z</time>
      </trkpt>
      <trkpt lat="46.92673" lon="4.32647">
        <ele>543.76</ele>
        <time>2021-08-12T15:37:12Z</time>
      </trkpt>
      <trkpt lat="46.92672" lon="4.32648">
        <ele>543.76</ele>
        <time>2021-08-12T15:37:13Z</time>
      </trkpt>
      <trkpt lat="46.92669" lon="4.3265">
        <ele>543.76</ele>
        <time>2021-08-12T15:37:14Z</time>
      </trkpt>
      <trkpt lat="46.92668" lon="4.3265">
        <ele>543.76</ele>
        <time>2021-08-12T15:37:15Z</time>
      </trkpt>
      <trkpt lat="46.92666" lon="4.3265">
        <ele>543.76</ele>
        <time>2021-08-12T15:37:16Z</time>
      </trkpt>
      <trkpt lat="46.92663" lon="4.32652">
        <ele>543.76</ele>
        <time>2021-08-12T15:37:17Z</time>
      </trkpt>
      <trkpt lat="46.92661" lon="4.32652">
        <ele>543.76</ele>
        <time>2021-08-12T15:37:18Z</time>
      </trkpt>
      <trkpt lat="46.92649" lon="4.32658">
        <ele>544.72</ele>
        <time>2021-08-12T15:37:24Z</time>
      </trkpt>
      <trkpt lat="46.92636" lon="4.3266">
        <ele>545.2</ele>
        <time>2021-08-12T15:37:31Z</time>
      </trkpt>
      <trkpt lat="46.92626" lon="4.32659">
        <ele>546.17</ele>
        <time>2021-08-12T15:37:36Z</time>
      </trkpt>
      <trkpt lat="46.92624" lon="4.32658">
        <ele>546.17</ele>
        <time>2021-08-12T15:37:37Z</time>
      </trkpt>
      <trkpt lat="46.92619" lon="4.32659">
        <ele>546.65</ele>
        <time>2021-08-12T15:37:41Z</time>
      </trkpt>
      <trkpt lat="46.9261" lon="4.32657">
        <ele>547.13</ele>
        <time>2021-08-12T15:37:46Z</time>
      </trkpt>
      <trkpt lat="46.92608" lon="4.32657">
        <ele>547.61</ele>
        <time>2021-08-12T15:37:47Z</time>
      </trkpt>
      <trkpt lat="46.92597" lon="4.32653">
        <ele>548.09</ele>
        <time>2021-08-12T15:37:53Z</time>
      </trkpt>
      <trkpt lat="46.92581" lon="4.32645">
        <ele>548.57</ele>
        <time>2021-08-12T15:38:00Z</time>
      </trkpt>
      <trkpt lat="46.92568" lon="4.32629">
        <ele>549.05</ele>
        <time>2021-08-12T15:38:07Z</time>
      </trkpt>
      <trkpt lat="46.92556" lon="4.32613">
        <ele>550.01</ele>
        <time>2021-08-12T15:38:15Z</time>
      </trkpt>
      <trkpt lat="46.92547" lon="4.326">
        <ele>550.49</ele>
        <time>2021-08-12T15:38:22Z</time>
      </trkpt>
      <trkpt lat="46.92531" lon="4.32593">
        <ele>550.49</ele>
        <time>2021-08-12T15:38:29Z</time>
      </trkpt>
      <trkpt lat="46.92509" lon="4.32589">
        <ele>548.57</ele>
        <time>2021-08-12T15:38:36Z</time>
      </trkpt>
      <trkpt lat="46.92482" lon="4.32583">
        <ele>547.61</ele>
        <time>2021-08-12T15:38:42Z</time>
      </trkpt>
      <trkpt lat="46.92454" lon="4.32574">
        <ele>546.65</ele>
        <time>2021-08-12T15:38:48Z</time>
      </trkpt>
      <trkpt lat="46.9245" lon="4.32573">
        <ele>546.65</ele>
        <time>2021-08-12T15:38:49Z</time>
      </trkpt>
      <trkpt lat="46.92441" lon="4.32574">
        <ele>547.13</ele>
        <time>2021-08-12T15:38:51Z</time>
      </trkpt>
      <trkpt lat="46.92437" lon="4.32575">
        <ele>546.65</ele>
        <time>2021-08-12T15:38:52Z</time>
      </trkpt>
      <trkpt lat="46.92418" lon="4.32587">
        <ele>547.13</ele>
        <time>2021-08-12T15:38:58Z</time>
      </trkpt>
      <trkpt lat="46.92416" lon="4.3259">
        <ele>547.13</ele>
        <time>2021-08-12T15:38:59Z</time>
      </trkpt>
      <trkpt lat="46.92414" lon="4.32591">
        <ele>547.13</ele>
        <time>2021-08-12T15:39:00Z</time>
      </trkpt>
      <trkpt lat="46.92412" lon="4.32591">
        <ele>547.13</ele>
        <time>2021-08-12T15:39:01Z</time>
      </trkpt>
      <trkpt lat="46.92408" lon="4.32591">
        <ele>547.13</ele>
        <time>2021-08-12T15:39:02Z</time>
      </trkpt>
      <trkpt lat="46.92405" lon="4.3259">
        <ele>547.13</ele>
        <time>2021-08-12T15:39:03Z</time>
      </trkpt>
      <trkpt lat="46.92403" lon="4.32588">
        <ele>547.13</ele>
        <time>2021-08-12T15:39:04Z</time>
      </trkpt>
      <trkpt lat="46.92401" lon="4.32587">
        <ele>547.13</ele>
        <time>2021-08-12T15:39:05Z</time>
      </trkpt>
      <trkpt lat="46.92399" lon="4.32585">
        <ele>547.13</ele>
        <time>2021-08-12T15:39:06Z</time>
      </trkpt>
      <trkpt lat="46.92397" lon="4.32583">
        <ele>547.13</ele>
        <time>2021-08-12T15:39:07Z</time>
      </trkpt>
      <trkpt lat="46.92396" lon="4.3258">
        <ele>547.13</ele>
        <time>2021-08-12T15:39:08Z</time>
      </trkpt>
      <trkpt lat="46.92396" lon="4.32578">
        <ele>547.13</ele>
        <time>2021-08-12T15:39:09Z</time>
      </trkpt>
      <trkpt lat="46.92394" lon="4.32572">
        <ele>548.57</ele>
        <time>2021-08-12T15:39:13Z</time>
      </trkpt>
      <trkpt lat="46.92393" lon="4.3257">
        <ele>548.57</ele>
        <time>2021-08-12T15:39:14Z</time>
      </trkpt>
      <trkpt lat="46.92391" lon="4.32568">
        <ele>548.57</ele>
        <time>2021-08-12T15:39:16Z</time>
      </trkpt>
      <trkpt lat="46.92389" lon="4.32567">
        <ele>548.57</ele>
        <time>2021-08-12T15:39:17Z</time>
      </trkpt>
      <trkpt lat="46.92387" lon="4.32566">
        <ele>548.57</ele>
        <time>2021-08-12T15:39:18Z</time>
      </trkpt>
      <trkpt lat="46.92376" lon="4.32555">
        <ele>549.05</ele>
        <time>2021-08-12T15:39:25Z</time>
      </trkpt>
      <trkpt lat="46.92364" lon="4.3254">
        <ele>549.53</ele>
        <time>2021-08-12T15:39:31Z</time>
      </trkpt>
      <trkpt lat="46.92357" lon="4.32527">
        <ele>550.01</ele>
        <time>2021-08-12T15:39:37Z</time>
      </trkpt>
      <trkpt lat="46.92347" lon="4.3251">
        <ele>550.97</ele>
        <time>2021-08-12T15:39:44Z</time>
      </trkpt>
      <trkpt lat="46.92338" lon="4.32495">
        <ele>550.97</ele>
        <time>2021-08-12T15:39:50Z</time>
      </trkpt>
      <trkpt lat="46.92319" lon="4.32472">
        <ele>551.45</ele>
        <time>2021-08-12T15:39:58Z</time>
      </trkpt>
      <trkpt lat="46.92305" lon="4.32454">
        <ele>552.41</ele>
        <time>2021-08-12T15:40:06Z</time>
      </trkpt>
      <trkpt lat="46.92297" lon="4.32432">
        <ele>552.9</ele>
        <time>2021-08-12T15:40:14Z</time>
      </trkpt>
      <trkpt lat="46.923" lon="4.32407">
        <ele>553.86</ele>
        <time>2021-08-12T15:40:21Z</time>
      </trkpt>
      <trkpt lat="46.92296" lon="4.3239">
        <ele>553.86</ele>
        <time>2021-08-12T15:40:27Z</time>
      </trkpt>
      <trkpt lat="46.92296" lon="4.32387">
        <ele>553.86</ele>
        <time>2021-08-12T15:40:28Z</time>
      </trkpt>
      <trkpt lat="46.92298" lon="4.32358">
        <ele>554.34</ele>
        <time>2021-08-12T15:40:37Z</time>
      </trkpt>
      <trkpt lat="46.92305" lon="4.32334">
        <ele>554.34</ele>
        <time>2021-08-12T15:40:43Z</time>
      </trkpt>
      <trkpt lat="46.92306" lon="4.32325">
        <ele>554.82</ele>
        <time>2021-08-12T15:40:45Z</time>
      </trkpt>
      <trkpt lat="46.92304" lon="4.32321">
        <ele>554.82</ele>
        <time>2021-08-12T15:40:46Z</time>
      </trkpt>
      <trkpt lat="46.92303" lon="4.32318">
        <ele>554.82</ele>
        <time>2021-08-12T15:40:47Z</time>
      </trkpt>
      <trkpt lat="46.92302" lon="4.32314">
        <ele>554.82</ele>
        <time>2021-08-12T15:40:48Z</time>
      </trkpt>
      <trkpt lat="46.923" lon="4.3231">
        <ele>554.82</ele>
        <time>2021-08-12T15:40:49Z</time>
      </trkpt>
      <trkpt lat="46.92287" lon="4.32285">
        <ele>555.78</ele>
        <time>2021-08-12T15:40:56Z</time>
      </trkpt>
      <trkpt lat="46.92274" lon="4.32257">
        <ele>555.78</ele>
        <time>2021-08-12T15:41:03Z</time>
      </trkpt>
      <trkpt lat="46.92256" lon="4.32226">
        <ele>556.26</ele>
        <time>2021-08-12T15:41:11Z</time>
      </trkpt>
      <trkpt lat="46.9224" lon="4.32198">
        <ele>556.74</ele>
        <time>2021-08-12T15:41:18Z</time>
      </trkpt>
      <trkpt lat="46.92234" lon="4.32178">
        <ele>556.74</ele>
        <time>2021-08-12T15:41:24Z</time>
      </trkpt>
      <trkpt lat="46.92223" lon="4.32152">
        <ele>556.74</ele>
        <time>2021-08-12T15:41:31Z</time>
      </trkpt>
      <trkpt lat="46.92205" lon="4.32121">
        <ele>557.7</ele>
        <time>2021-08-12T15:41:39Z</time>
      </trkpt>
      <trkpt lat="46.92188" lon="4.32092">
        <ele>557.7</ele>
        <time>2021-08-12T15:41:46Z</time>
      </trkpt>
      <trkpt lat="46.92172" lon="4.32063">
        <ele>558.18</ele>
        <time>2021-08-12T15:41:53Z</time>
      </trkpt>
      <trkpt lat="46.92157" lon="4.32033">
        <ele>558.66</ele>
        <time>2021-08-12T15:42:00Z</time>
      </trkpt>
      <trkpt lat="46.9214" lon="4.32001">
        <ele>558.66</ele>
        <time>2021-08-12T15:42:08Z</time>
      </trkpt>
      <trkpt lat="46.92129" lon="4.31972">
        <ele>559.14</ele>
        <time>2021-08-12T15:42:14Z</time>
      </trkpt>
      <trkpt lat="46.92116" lon="4.31934">
        <ele>559.62</ele>
        <time>2021-08-12T15:42:21Z</time>
      </trkpt>
      <trkpt lat="46.92113" lon="4.31892">
        <ele>560.11</ele>
        <time>2021-08-12T15:42:29Z</time>
      </trkpt>
      <trkpt lat="46.92115" lon="4.31845">
        <ele>560.59</ele>
        <time>2021-08-12T15:42:38Z</time>
      </trkpt>
      <trkpt lat="46.92112" lon="4.31815">
        <ele>561.55</ele>
        <time>2021-08-12T15:42:45Z</time>
      </trkpt>
      <trkpt lat="46.92108" lon="4.31788">
        <ele>561.55</ele>
        <time>2021-08-12T15:42:52Z</time>
      </trkpt>
      <trkpt lat="46.92099" lon="4.31753">
        <ele>562.03</ele>
        <time>2021-08-12T15:43:00Z</time>
      </trkpt>
      <trkpt lat="46.9209" lon="4.31722">
        <ele>562.03</ele>
        <time>2021-08-12T15:43:07Z</time>
      </trkpt>
      <trkpt lat="46.92078" lon="4.3168">
        <ele>562.99</ele>
        <time>2021-08-12T15:43:16Z</time>
      </trkpt>
      <trkpt lat="46.92066" lon="4.3164">
        <ele>562.99</ele>
        <time>2021-08-12T15:43:24Z</time>
      </trkpt>
      <trkpt lat="46.92057" lon="4.31602">
        <ele>563.95</ele>
        <time>2021-08-12T15:43:31Z</time>
      </trkpt>
      <trkpt lat="46.92047" lon="4.31569">
        <ele>564.43</ele>
        <time>2021-08-12T15:43:38Z</time>
      </trkpt>
      <trkpt lat="46.92035" lon="4.31529">
        <ele>564.43</ele>
        <time>2021-08-12T15:43:46Z</time>
      </trkpt>
      <trkpt lat="46.92023" lon="4.31491">
        <ele>564.43</ele>
        <time>2021-08-12T15:43:54Z</time>
      </trkpt>
      <trkpt lat="46.92009" lon="4.31449">
        <ele>565.39</ele>
        <time>2021-08-12T15:44:02Z</time>
      </trkpt>
      <trkpt lat="46.91998" lon="4.31423">
        <ele>565.87</ele>
        <time>2021-08-12T15:44:09Z</time>
      </trkpt>
      <trkpt lat="46.91987" lon="4.31391">
        <ele>566.35</ele>
        <time>2021-08-12T15:44:17Z</time>
      </trkpt>
      <trkpt lat="46.91983" lon="4.31354">
        <ele>566.35</ele>
        <time>2021-08-12T15:44:23Z</time>
      </trkpt>
      <trkpt lat="46.91971" lon="4.31308">
        <ele>567.32</ele>
        <time>2021-08-12T15:44:32Z</time>
      </trkpt>
      <trkpt lat="46.91959" lon="4.31275">
        <ele>567.32</ele>
        <time>2021-08-12T15:44:39Z</time>
      </trkpt>
      <trkpt lat="46.91946" lon="4.31251">
        <ele>567.8</ele>
        <time>2021-08-12T15:44:44Z</time>
      </trkpt>
      <trkpt lat="46.91922" lon="4.31218">
        <ele>568.28</ele>
        <time>2021-08-12T15:44:52Z</time>
      </trkpt>
      <trkpt lat="46.91896" lon="4.31181">
        <ele>568.28</ele>
        <time>2021-08-12T15:45:01Z</time>
      </trkpt>
      <trkpt lat="46.91883" lon="4.31162">
        <ele>569.24</ele>
        <time>2021-08-12T15:45:06Z</time>
      </trkpt>
      <trkpt lat="46.91881" lon="4.31162">
        <ele>569.24</ele>
        <time>2021-08-12T15:45:07Z</time>
      </trkpt>
      <trkpt lat="46.91878" lon="4.31163">
        <ele>569.24</ele>
        <time>2021-08-12T15:45:08Z</time>
      </trkpt>
      <trkpt lat="46.91876" lon="4.31165">
        <ele>569.24</ele>
        <time>2021-08-12T15:45:09Z</time>
      </trkpt>
      <trkpt lat="46.91873" lon="4.31167">
        <ele>569.24</ele>
        <time>2021-08-12T15:45:10Z</time>
      </trkpt>
      <trkpt lat="46.91862" lon="4.31172">
        <ele>567.8</ele>
        <time>2021-08-12T15:45:13Z</time>
      </trkpt>
      <trkpt lat="46.91858" lon="4.31172">
        <ele>566.83</ele>
        <time>2021-08-12T15:45:14Z</time>
      </trkpt>
      <trkpt lat="46.91853" lon="4.31175">
        <ele>565.39</ele>
        <time>2021-08-12T15:45:19Z</time>
      </trkpt>
      <trkpt lat="46.91852" lon="4.31176">
        <ele>565.39</ele>
        <time>2021-08-12T15:45:20Z</time>
      </trkpt>
      <trkpt lat="46.91851" lon="4.31178">
        <ele>564.91</ele>
        <time>2021-08-12T15:45:21Z</time>
      </trkpt>
      <trkpt lat="46.91849" lon="4.3118">
        <ele>564.43</ele>
        <time>2021-08-12T15:45:22Z</time>
      </trkpt>
      <trkpt lat="46.91847" lon="4.31181">
        <ele>564.43</ele>
        <time>2021-08-12T15:45:23Z</time>
      </trkpt>
      <trkpt lat="46.91844" lon="4.31182">
        <ele>564.43</ele>
        <time>2021-08-12T15:45:24Z</time>
      </trkpt>
      <trkpt lat="46.91841" lon="4.31183">
        <ele>563.47</ele>
        <time>2021-08-12T15:45:25Z</time>
      </trkpt>
      <trkpt lat="46.9183" lon="4.31185">
        <ele>563.47</ele>
        <time>2021-08-12T15:45:31Z</time>
      </trkpt>
      <trkpt lat="46.91826" lon="4.31188">
        <ele>563.47</ele>
        <time>2021-08-12T15:45:34Z</time>
      </trkpt>
      <trkpt lat="46.91826" lon="4.3119">
        <ele>563.47</ele>
        <time>2021-08-12T15:45:35Z</time>
      </trkpt>
      <trkpt lat="46.91825" lon="4.31192">
        <ele>563.47</ele>
        <time>2021-08-12T15:45:36Z</time>
      </trkpt>
      <trkpt lat="46.91821" lon="4.31194">
        <ele>563.47</ele>
        <time>2021-08-12T15:45:39Z</time>
      </trkpt>
      <trkpt lat="46.9182" lon="4.31194">
        <ele>563.47</ele>
        <time>2021-08-12T15:45:40Z</time>
      </trkpt>
      <trkpt lat="46.91812" lon="4.31199">
        <ele>563.47</ele>
        <time>2021-08-12T15:45:47Z</time>
      </trkpt>
      <trkpt lat="46.91811" lon="4.31201">
        <ele>564.91</ele>
        <time>2021-08-12T15:45:49Z</time>
      </trkpt>
      <trkpt lat="46.91805" lon="4.31213">
        <ele>565.39</ele>
        <time>2021-08-12T15:45:55Z</time>
      </trkpt>
      <trkpt lat="46.91804" lon="4.31215">
        <ele>565.87</ele>
        <time>2021-08-12T15:46:00Z</time>
      </trkpt>
      <trkpt lat="46.91808" lon="4.31206">
        <ele>564.91</ele>
        <time>2021-08-12T15:46:04Z</time>
      </trkpt>
      <trkpt lat="46.91807" lon="4.31201">
        <ele>564.43</ele>
        <time>2021-08-12T15:46:09Z</time>
      </trkpt>
      <trkpt lat="46.91804" lon="4.31199">
        <ele>563.95</ele>
        <time>2021-08-12T15:46:22Z</time>
      </trkpt>
      <trkpt lat="46.91802" lon="4.31195">
        <ele>563.95</ele>
        <time>2021-08-12T15:46:36Z</time>
      </trkpt>
      <trkpt lat="46.91801" lon="4.31192">
        <ele>563.95</ele>
        <time>2021-08-12T15:46:47Z</time>
      </trkpt>
      <trkpt lat="46.91801" lon="4.31193">
        <ele>564.43</ele>
        <time>2021-08-12T15:46:56Z</time>
      </trkpt>
      <trkpt lat="46.91799" lon="4.31193">
        <ele>564.43</ele>
        <time>2021-08-12T15:47:00Z</time>
      </trkpt>
      <trkpt lat="46.91795" lon="4.31199">
        <ele>565.39</ele>
        <time>2021-08-12T15:47:05Z</time>
      </trkpt>
      <trkpt lat="46.9179" lon="4.31198">
        <ele>565.39</ele>
        <time>2021-08-12T15:47:07Z</time>
      </trkpt>
      <trkpt lat="46.91787" lon="4.31197">
        <ele>565.39</ele>
        <time>2021-08-12T15:47:08Z</time>
      </trkpt>
      <trkpt lat="46.91781" lon="4.31198">
        <ele>565.87</ele>
        <time>2021-08-12T15:47:10Z</time>
      </trkpt>
      <trkpt lat="46.91779" lon="4.312">
        <ele>566.83</ele>
        <time>2021-08-12T15:47:11Z</time>
      </trkpt>
      <trkpt lat="46.91777" lon="4.31201">
        <ele>566.83</ele>
        <time>2021-08-12T15:47:12Z</time>
      </trkpt>
      <trkpt lat="46.91775" lon="4.31203">
        <ele>567.32</ele>
        <time>2021-08-12T15:47:13Z</time>
      </trkpt>
      <trkpt lat="46.91772" lon="4.31204">
        <ele>567.32</ele>
        <time>2021-08-12T15:47:14Z</time>
      </trkpt>
      <trkpt lat="46.9177" lon="4.31206">
        <ele>568.28</ele>
        <time>2021-08-12T15:47:15Z</time>
      </trkpt>
      <trkpt lat="46.91769" lon="4.31208">
        <ele>568.28</ele>
        <time>2021-08-12T15:47:16Z</time>
      </trkpt>
      <trkpt lat="46.91768" lon="4.31209">
        <ele>568.76</ele>
        <time>2021-08-12T15:47:17Z</time>
      </trkpt>
      <trkpt lat="46.91766" lon="4.31211">
        <ele>568.76</ele>
        <time>2021-08-12T15:47:18Z</time>
      </trkpt>
      <trkpt lat="46.91765" lon="4.31211">
        <ele>569.24</ele>
        <time>2021-08-12T15:47:19Z</time>
      </trkpt>
      <trkpt lat="46.91759" lon="4.31219">
        <ele>570.2</ele>
        <time>2021-08-12T15:47:26Z</time>
      </trkpt>
      <trkpt lat="46.91758" lon="4.31221">
        <ele>570.2</ele>
        <time>2021-08-12T15:47:27Z</time>
      </trkpt>
      <trkpt lat="46.91756" lon="4.31223">
        <ele>570.2</ele>
        <time>2021-08-12T15:47:28Z</time>
      </trkpt>
      <trkpt lat="46.91755" lon="4.31224">
        <ele>570.68</ele>
        <time>2021-08-12T15:47:29Z</time>
      </trkpt>
      <trkpt lat="46.9175" lon="4.3123">
        <ele>571.16</ele>
        <time>2021-08-12T15:47:35Z</time>
      </trkpt>
      <trkpt lat="46.91744" lon="4.31238">
        <ele>572.6</ele>
        <time>2021-08-12T15:47:41Z</time>
      </trkpt>
      <trkpt lat="46.91738" lon="4.31245">
        <ele>573.56</ele>
        <time>2021-08-12T15:47:48Z</time>
      </trkpt>
      <trkpt lat="46.91732" lon="4.31251">
        <ele>574.53</ele>
        <time>2021-08-12T15:47:54Z</time>
      </trkpt>
      <trkpt lat="46.91727" lon="4.31255">
        <ele>575.01</ele>
        <time>2021-08-12T15:48:00Z</time>
      </trkpt>
      <trkpt lat="46.91719" lon="4.31261">
        <ele>575.97</ele>
        <time>2021-08-12T15:48:07Z</time>
      </trkpt>
      <trkpt lat="46.91711" lon="4.31268">
        <ele>576.93</ele>
        <time>2021-08-12T15:48:15Z</time>
      </trkpt>
      <trkpt lat="46.91696" lon="4.31279">
        <ele>577.89</ele>
        <time>2021-08-12T15:48:24Z</time>
      </trkpt>
      <trkpt lat="46.9169" lon="4.31284">
        <ele>578.37</ele>
        <time>2021-08-12T15:48:30Z</time>
      </trkpt>
      <trkpt lat="46.9168" lon="4.31289">
        <ele>579.33</ele>
        <time>2021-08-12T15:48:38Z</time>
      </trkpt>
      <trkpt lat="46.91674" lon="4.31289">
        <ele>580.77</ele>
        <time>2021-08-12T15:48:44Z</time>
      </trkpt>
      <trkpt lat="46.91664" lon="4.3129">
        <ele>581.73</ele>
        <time>2021-08-12T15:48:52Z</time>
      </trkpt>
      <trkpt lat="46.91657" lon="4.31294">
        <ele>582.7</ele>
        <time>2021-08-12T15:48:58Z</time>
      </trkpt>
      <trkpt lat="46.91647" lon="4.31295">
        <ele>584.62</ele>
        <time>2021-08-12T15:49:05Z</time>
      </trkpt>
      <trkpt lat="46.91643" lon="4.31295">
        <ele>585.1</ele>
        <time>2021-08-12T15:49:07Z</time>
      </trkpt>
      <trkpt lat="46.91641" lon="4.31295">
        <ele>585.1</ele>
        <time>2021-08-12T15:49:08Z</time>
      </trkpt>
      <trkpt lat="46.91639" lon="4.31296">
        <ele>585.1</ele>
        <time>2021-08-12T15:49:09Z</time>
      </trkpt>
      <trkpt lat="46.91637" lon="4.31296">
        <ele>585.1</ele>
        <time>2021-08-12T15:49:10Z</time>
      </trkpt>
      <trkpt lat="46.91635" lon="4.31297">
        <ele>585.1</ele>
        <time>2021-08-12T15:49:11Z</time>
      </trkpt>
      <trkpt lat="46.91626" lon="4.313">
        <ele>586.06</ele>
        <time>2021-08-12T15:49:17Z</time>
      </trkpt>
      <trkpt lat="46.91623" lon="4.313">
        <ele>586.54</ele>
        <time>2021-08-12T15:49:19Z</time>
      </trkpt>
      <trkpt lat="46.91611" lon="4.31302">
        <ele>587.5</ele>
        <time>2021-08-12T15:49:26Z</time>
      </trkpt>
      <trkpt lat="46.91596" lon="4.31311">
        <ele>587.98</ele>
        <time>2021-08-12T15:49:35Z</time>
      </trkpt>
      <trkpt lat="46.91592" lon="4.31313">
        <ele>587.98</ele>
        <time>2021-08-12T15:49:37Z</time>
      </trkpt>
      <trkpt lat="46.9159" lon="4.31315">
        <ele>587.98</ele>
        <time>2021-08-12T15:49:38Z</time>
      </trkpt>
      <trkpt lat="46.91588" lon="4.31317">
        <ele>587.98</ele>
        <time>2021-08-12T15:49:39Z</time>
      </trkpt>
      <trkpt lat="46.91586" lon="4.31318">
        <ele>587.98</ele>
        <time>2021-08-12T15:49:40Z</time>
      </trkpt>
      <trkpt lat="46.91583" lon="4.31319">
        <ele>588.46</ele>
        <time>2021-08-12T15:49:41Z</time>
      </trkpt>
      <trkpt lat="46.91566" lon="4.31325">
        <ele>589.43</ele>
        <time>2021-08-12T15:49:48Z</time>
      </trkpt>
      <trkpt lat="46.91551" lon="4.31332">
        <ele>589.91</ele>
        <time>2021-08-12T15:49:54Z</time>
      </trkpt>
      <trkpt lat="46.91533" lon="4.31344">
        <ele>590.39</ele>
        <time>2021-08-12T15:50:01Z</time>
      </trkpt>
      <trkpt lat="46.91524" lon="4.31358">
        <ele>590.39</ele>
        <time>2021-08-12T15:50:06Z</time>
      </trkpt>
      <trkpt lat="46.91511" lon="4.31377">
        <ele>590.39</ele>
        <time>2021-08-12T15:50:12Z</time>
      </trkpt>
      <trkpt lat="46.91504" lon="4.3138">
        <ele>590.39</ele>
        <time>2021-08-12T15:50:18Z</time>
      </trkpt>
      <trkpt lat="46.91499" lon="4.31387">
        <ele>590.39</ele>
        <time>2021-08-12T15:50:31Z</time>
      </trkpt>
      <trkpt lat="46.91492" lon="4.31395">
        <ele>590.87</ele>
        <time>2021-08-12T15:50:42Z</time>
      </trkpt>
      <trkpt lat="46.91473" lon="4.31404">
        <ele>589.43</ele>
        <time>2021-08-12T15:50:48Z</time>
      </trkpt>
      <trkpt lat="46.91452" lon="4.31413">
        <ele>588.46</ele>
        <time>2021-08-12T15:50:55Z</time>
      </trkpt>
      <trkpt lat="46.91426" lon="4.31425">
        <ele>586.54</ele>
        <time>2021-08-12T15:51:02Z</time>
      </trkpt>
      <trkpt lat="46.91422" lon="4.31427">
        <ele>586.54</ele>
        <time>2021-08-12T15:51:03Z</time>
      </trkpt>
      <trkpt lat="46.91417" lon="4.31428">
        <ele>586.54</ele>
        <time>2021-08-12T15:51:04Z</time>
      </trkpt>
      <trkpt lat="46.91395" lon="4.31436">
        <ele>585.1</ele>
        <time>2021-08-12T15:51:09Z</time>
      </trkpt>
      <trkpt lat="46.91391" lon="4.31438">
        <ele>584.62</ele>
        <time>2021-08-12T15:51:10Z</time>
      </trkpt>
      <trkpt lat="46.91376" lon="4.31444">
        <ele>583.66</ele>
        <time>2021-08-12T15:51:14Z</time>
      </trkpt>
      <trkpt lat="46.91344" lon="4.31458">
        <ele>582.7</ele>
        <time>2021-08-12T15:51:19Z</time>
      </trkpt>
      <trkpt lat="46.91306" lon="4.31479">
        <ele>582.22</ele>
        <time>2021-08-12T15:51:25Z</time>
      </trkpt>
      <trkpt lat="46.91286" lon="4.31495">
        <ele>582.22</ele>
        <time>2021-08-12T15:51:30Z</time>
      </trkpt>
      <trkpt lat="46.91278" lon="4.31498">
        <ele>582.22</ele>
        <time>2021-08-12T15:51:36Z</time>
      </trkpt>
      <trkpt lat="46.91272" lon="4.31503">
        <ele>582.22</ele>
        <time>2021-08-12T15:51:41Z</time>
      </trkpt>
      <trkpt lat="46.91259" lon="4.3151">
        <ele>582.22</ele>
        <time>2021-08-12T15:51:48Z</time>
      </trkpt>
      <trkpt lat="46.91254" lon="4.31514">
        <ele>583.66</ele>
        <time>2021-08-12T15:51:50Z</time>
      </trkpt>
      <trkpt lat="46.91235" lon="4.31524">
        <ele>585.58</ele>
        <time>2021-08-12T15:51:58Z</time>
      </trkpt>
      <trkpt lat="46.91219" lon="4.31535">
        <ele>585.58</ele>
        <time>2021-08-12T15:52:06Z</time>
      </trkpt>
      <trkpt lat="46.91203" lon="4.31543">
        <ele>585.58</ele>
        <time>2021-08-12T15:52:13Z</time>
      </trkpt>
      <trkpt lat="46.91187" lon="4.3155">
        <ele>586.06</ele>
        <time>2021-08-12T15:52:19Z</time>
      </trkpt>
      <trkpt lat="46.91167" lon="4.31559">
        <ele>586.06</ele>
        <time>2021-08-12T15:52:25Z</time>
      </trkpt>
      <trkpt lat="46.91147" lon="4.3157">
        <ele>586.06</ele>
        <time>2021-08-12T15:52:32Z</time>
      </trkpt>
      <trkpt lat="46.91142" lon="4.31573">
        <ele>586.54</ele>
        <time>2021-08-12T15:52:34Z</time>
      </trkpt>
      <trkpt lat="46.9114" lon="4.31576">
        <ele>586.54</ele>
        <time>2021-08-12T15:52:35Z</time>
      </trkpt>
      <trkpt lat="46.91121" lon="4.31591">
        <ele>586.54</ele>
        <time>2021-08-12T15:52:42Z</time>
      </trkpt>
      <trkpt lat="46.91102" lon="4.31604">
        <ele>586.54</ele>
        <time>2021-08-12T15:52:48Z</time>
      </trkpt>
      <trkpt lat="46.91093" lon="4.31609">
        <ele>586.54</ele>
        <time>2021-08-12T15:52:50Z</time>
      </trkpt>
      <trkpt lat="46.91088" lon="4.31612">
        <ele>586.54</ele>
        <time>2021-08-12T15:52:51Z</time>
      </trkpt>
      <trkpt lat="46.91085" lon="4.31615">
        <ele>586.54</ele>
        <time>2021-08-12T15:52:52Z</time>
      </trkpt>
      <trkpt lat="46.91082" lon="4.31617">
        <ele>586.54</ele>
        <time>2021-08-12T15:52:53Z</time>
      </trkpt>
      <trkpt lat="46.91079" lon="4.3162">
        <ele>586.54</ele>
        <time>2021-08-12T15:52:54Z</time>
      </trkpt>
      <trkpt lat="46.91076" lon="4.31623">
        <ele>586.54</ele>
        <time>2021-08-12T15:52:55Z</time>
      </trkpt>
      <trkpt lat="46.91075" lon="4.31624">
        <ele>586.54</ele>
        <time>2021-08-12T15:52:56Z</time>
      </trkpt>
      <trkpt lat="46.91053" lon="4.31637">
        <ele>586.54</ele>
        <time>2021-08-12T15:53:02Z</time>
      </trkpt>
      <trkpt lat="46.91041" lon="4.31641">
        <ele>586.54</ele>
        <time>2021-08-12T15:53:07Z</time>
      </trkpt>
      <trkpt lat="46.91026" lon="4.31652">
        <ele>585.58</ele>
        <time>2021-08-12T15:53:13Z</time>
      </trkpt>
      <trkpt lat="46.91024" lon="4.31654">
        <ele>585.58</ele>
        <time>2021-08-12T15:53:14Z</time>
      </trkpt>
      <trkpt lat="46.91022" lon="4.31656">
        <ele>585.58</ele>
        <time>2021-08-12T15:53:15Z</time>
      </trkpt>
      <trkpt lat="46.9102" lon="4.31658">
        <ele>585.1</ele>
        <time>2021-08-12T15:53:16Z</time>
      </trkpt>
      <trkpt lat="46.91016" lon="4.3166">
        <ele>585.1</ele>
        <time>2021-08-12T15:53:17Z</time>
      </trkpt>
      <trkpt lat="46.91014" lon="4.31662">
        <ele>585.1</ele>
        <time>2021-08-12T15:53:18Z</time>
      </trkpt>
      <trkpt lat="46.91011" lon="4.31664">
        <ele>585.1</ele>
        <time>2021-08-12T15:53:19Z</time>
      </trkpt>
      <trkpt lat="46.90992" lon="4.31679">
        <ele>585.1</ele>
        <time>2021-08-12T15:53:25Z</time>
      </trkpt>
      <trkpt lat="46.9097" lon="4.3169">
        <ele>584.62</ele>
        <time>2021-08-12T15:53:31Z</time>
      </trkpt>
      <trkpt lat="46.90955" lon="4.31696">
        <ele>585.1</ele>
        <time>2021-08-12T15:53:37Z</time>
      </trkpt>
      <trkpt lat="46.90952" lon="4.31698">
        <ele>585.1</ele>
        <time>2021-08-12T15:53:38Z</time>
      </trkpt>
      <trkpt lat="46.9095" lon="4.317">
        <ele>585.1</ele>
        <time>2021-08-12T15:53:39Z</time>
      </trkpt>
      <trkpt lat="46.90933" lon="4.31711">
        <ele>585.1</ele>
        <time>2021-08-12T15:53:46Z</time>
      </trkpt>
      <trkpt lat="46.90923" lon="4.31716">
        <ele>585.1</ele>
        <time>2021-08-12T15:53:51Z</time>
      </trkpt>
      <trkpt lat="46.90919" lon="4.31719">
        <ele>585.1</ele>
        <time>2021-08-12T15:53:53Z</time>
      </trkpt>
      <trkpt lat="46.90916" lon="4.3172">
        <ele>585.1</ele>
        <time>2021-08-12T15:53:54Z</time>
      </trkpt>
      <trkpt lat="46.90913" lon="4.31722">
        <ele>585.1</ele>
        <time>2021-08-12T15:53:55Z</time>
      </trkpt>
      <trkpt lat="46.90893" lon="4.31733">
        <ele>585.1</ele>
        <time>2021-08-12T15:54:01Z</time>
      </trkpt>
      <trkpt lat="46.90878" lon="4.3174">
        <ele>585.1</ele>
        <time>2021-08-12T15:54:09Z</time>
      </trkpt>
      <trkpt lat="46.90875" lon="4.31742">
        <ele>585.1</ele>
        <time>2021-08-12T15:54:11Z</time>
      </trkpt>
      <trkpt lat="46.90873" lon="4.31745">
        <ele>585.1</ele>
        <time>2021-08-12T15:54:12Z</time>
      </trkpt>
      <trkpt lat="46.90871" lon="4.31746">
        <ele>585.1</ele>
        <time>2021-08-12T15:54:13Z</time>
      </trkpt>
      <trkpt lat="46.90868" lon="4.31747">
        <ele>585.1</ele>
        <time>2021-08-12T15:54:14Z</time>
      </trkpt>
      <trkpt lat="46.90865" lon="4.31748">
        <ele>585.1</ele>
        <time>2021-08-12T15:54:15Z</time>
      </trkpt>
      <trkpt lat="46.90862" lon="4.31749">
        <ele>584.62</ele>
        <time>2021-08-12T15:54:16Z</time>
      </trkpt>
      <trkpt lat="46.90859" lon="4.31751">
        <ele>584.62</ele>
        <time>2021-08-12T15:54:17Z</time>
      </trkpt>
      <trkpt lat="46.90847" lon="4.31757">
        <ele>584.62</ele>
        <time>2021-08-12T15:54:23Z</time>
      </trkpt>
      <trkpt lat="46.90833" lon="4.31761">
        <ele>584.62</ele>
        <time>2021-08-12T15:54:29Z</time>
      </trkpt>
      <trkpt lat="46.90818" lon="4.31769">
        <ele>585.1</ele>
        <time>2021-08-12T15:54:36Z</time>
      </trkpt>
      <trkpt lat="46.90812" lon="4.31774">
        <ele>585.1</ele>
        <time>2021-08-12T15:54:38Z</time>
      </trkpt>
      <trkpt lat="46.9081" lon="4.31777">
        <ele>585.1</ele>
        <time>2021-08-12T15:54:39Z</time>
      </trkpt>
      <trkpt lat="46.90808" lon="4.3178">
        <ele>585.1</ele>
        <time>2021-08-12T15:54:40Z</time>
      </trkpt>
      <trkpt lat="46.90807" lon="4.31782">
        <ele>585.1</ele>
        <time>2021-08-12T15:54:41Z</time>
      </trkpt>
      <trkpt lat="46.90804" lon="4.31784">
        <ele>585.1</ele>
        <time>2021-08-12T15:54:42Z</time>
      </trkpt>
      <trkpt lat="46.90802" lon="4.31786">
        <ele>585.1</ele>
        <time>2021-08-12T15:54:43Z</time>
      </trkpt>
      <trkpt lat="46.90799" lon="4.31788">
        <ele>585.1</ele>
        <time>2021-08-12T15:54:44Z</time>
      </trkpt>
      <trkpt lat="46.90797" lon="4.3179">
        <ele>585.1</ele>
        <time>2021-08-12T15:54:45Z</time>
      </trkpt>
      <trkpt lat="46.9079" lon="4.31794">
        <ele>585.1</ele>
        <time>2021-08-12T15:54:48Z</time>
      </trkpt>
      <trkpt lat="46.90788" lon="4.31795">
        <ele>585.1</ele>
        <time>2021-08-12T15:54:49Z</time>
      </trkpt>
      <trkpt lat="46.90774" lon="4.31804">
        <ele>584.62</ele>
        <time>2021-08-12T15:54:54Z</time>
      </trkpt>
      <trkpt lat="46.90756" lon="4.31815">
        <ele>584.62</ele>
        <time>2021-08-12T15:55:01Z</time>
      </trkpt>
      <trkpt lat="46.90737" lon="4.31829">
        <ele>584.62</ele>
        <time>2021-08-12T15:55:08Z</time>
      </trkpt>
      <trkpt lat="46.90711" lon="4.31843">
        <ele>584.62</ele>
        <time>2021-08-12T15:55:14Z</time>
      </trkpt>
      <trkpt lat="46.90688" lon="4.31851">
        <ele>585.1</ele>
        <time>2021-08-12T15:55:20Z</time>
      </trkpt>
      <trkpt lat="46.90676" lon="4.31853">
        <ele>585.1</ele>
        <time>2021-08-12T15:55:25Z</time>
      </trkpt>
      <trkpt lat="46.90674" lon="4.31854">
        <ele>585.1</ele>
        <time>2021-08-12T15:55:26Z</time>
      </trkpt>
      <trkpt lat="46.90655" lon="4.31859">
        <ele>585.1</ele>
        <time>2021-08-12T15:55:33Z</time>
      </trkpt>
      <trkpt lat="46.90638" lon="4.31859">
        <ele>585.1</ele>
        <time>2021-08-12T15:55:40Z</time>
      </trkpt>
      <trkpt lat="46.90621" lon="4.3186">
        <ele>585.1</ele>
        <time>2021-08-12T15:55:46Z</time>
      </trkpt>
      <trkpt lat="46.90607" lon="4.3186">
        <ele>585.1</ele>
        <time>2021-08-12T15:55:51Z</time>
      </trkpt>
      <trkpt lat="46.90596" lon="4.3186">
        <ele>585.1</ele>
        <time>2021-08-12T15:55:55Z</time>
      </trkpt>
      <trkpt lat="46.90567" lon="4.31862">
        <ele>584.62</ele>
        <time>2021-08-12T15:56:03Z</time>
      </trkpt>
      <trkpt lat="46.90539" lon="4.31862">
        <ele>584.14</ele>
        <time>2021-08-12T15:56:09Z</time>
      </trkpt>
      <trkpt lat="46.90512" lon="4.31859">
        <ele>583.18</ele>
        <time>2021-08-12T15:56:16Z</time>
      </trkpt>
      <trkpt lat="46.90488" lon="4.31864">
        <ele>581.73</ele>
        <time>2021-08-12T15:56:22Z</time>
      </trkpt>
      <trkpt lat="46.90454" lon="4.31866">
        <ele>579.81</ele>
        <time>2021-08-12T15:56:29Z</time>
      </trkpt>
      <trkpt lat="46.90437" lon="4.31864">
        <ele>578.37</ele>
        <time>2021-08-12T15:56:33Z</time>
      </trkpt>
      <trkpt lat="46.90431" lon="4.31861">
        <ele>577.89</ele>
        <time>2021-08-12T15:56:34Z</time>
      </trkpt>
      <trkpt lat="46.90426" lon="4.31858">
        <ele>577.89</ele>
        <time>2021-08-12T15:56:35Z</time>
      </trkpt>
      <trkpt lat="46.90423" lon="4.31853">
        <ele>577.41</ele>
        <time>2021-08-12T15:56:36Z</time>
      </trkpt>
      <trkpt lat="46.90419" lon="4.31847">
        <ele>576.45</ele>
        <time>2021-08-12T15:56:37Z</time>
      </trkpt>
      <trkpt lat="46.90415" lon="4.31841">
        <ele>575.97</ele>
        <time>2021-08-12T15:56:38Z</time>
      </trkpt>
      <trkpt lat="46.90412" lon="4.31836">
        <ele>575.01</ele>
        <time>2021-08-12T15:56:39Z</time>
      </trkpt>
      <trkpt lat="46.90408" lon="4.3183">
        <ele>574.53</ele>
        <time>2021-08-12T15:56:40Z</time>
      </trkpt>
      <trkpt lat="46.90405" lon="4.31825">
        <ele>573.08</ele>
        <time>2021-08-12T15:56:41Z</time>
      </trkpt>
      <trkpt lat="46.90398" lon="4.31815">
        <ele>572.12</ele>
        <time>2021-08-12T15:56:43Z</time>
      </trkpt>
      <trkpt lat="46.90393" lon="4.3181">
        <ele>571.64</ele>
        <time>2021-08-12T15:56:44Z</time>
      </trkpt>
      <trkpt lat="46.90388" lon="4.31805">
        <ele>570.68</ele>
        <time>2021-08-12T15:56:45Z</time>
      </trkpt>
      <trkpt lat="46.90382" lon="4.31801">
        <ele>569.72</ele>
        <time>2021-08-12T15:56:46Z</time>
      </trkpt>
      <trkpt lat="46.90375" lon="4.31797">
        <ele>569.24</ele>
        <time>2021-08-12T15:56:47Z</time>
      </trkpt>
      <trkpt lat="46.9037" lon="4.31794">
        <ele>568.28</ele>
        <time>2021-08-12T15:56:48Z</time>
      </trkpt>
      <trkpt lat="46.90364" lon="4.31791">
        <ele>567.8</ele>
        <time>2021-08-12T15:56:49Z</time>
      </trkpt>
      <trkpt lat="46.90357" lon="4.31787">
        <ele>567.32</ele>
        <time>2021-08-12T15:56:50Z</time>
      </trkpt>
      <trkpt lat="46.90351" lon="4.31783">
        <ele>567.32</ele>
        <time>2021-08-12T15:56:51Z</time>
      </trkpt>
      <trkpt lat="46.90346" lon="4.31778">
        <ele>566.35</ele>
        <time>2021-08-12T15:56:52Z</time>
      </trkpt>
      <trkpt lat="46.90342" lon="4.31772">
        <ele>565.39</ele>
        <time>2021-08-12T15:56:53Z</time>
      </trkpt>
      <trkpt lat="46.90336" lon="4.31763">
        <ele>565.39</ele>
        <time>2021-08-12T15:56:54Z</time>
      </trkpt>
      <trkpt lat="46.90322" lon="4.3174">
        <ele>563.47</ele>
        <time>2021-08-12T15:56:57Z</time>
      </trkpt>
      <trkpt lat="46.90316" lon="4.31728">
        <ele>562.03</ele>
        <time>2021-08-12T15:56:59Z</time>
      </trkpt>
      <trkpt lat="46.90312" lon="4.31722">
        <ele>561.07</ele>
        <time>2021-08-12T15:57:00Z</time>
      </trkpt>
      <trkpt lat="46.90307" lon="4.31715">
        <ele>560.59</ele>
        <time>2021-08-12T15:57:01Z</time>
      </trkpt>
      <trkpt lat="46.90277" lon="4.31684">
        <ele>558.18</ele>
        <time>2021-08-12T15:57:05Z</time>
      </trkpt>
      <trkpt lat="46.90262" lon="4.31668">
        <ele>556.26</ele>
        <time>2021-08-12T15:57:07Z</time>
      </trkpt>
      <trkpt lat="46.90236" lon="4.3164">
        <ele>552.41</ele>
        <time>2021-08-12T15:57:12Z</time>
      </trkpt>
      <trkpt lat="46.90231" lon="4.31634">
        <ele>551.93</ele>
        <time>2021-08-12T15:57:14Z</time>
      </trkpt>
      <trkpt lat="46.9022" lon="4.31629">
        <ele>548.57</ele>
        <time>2021-08-12T15:57:19Z</time>
      </trkpt>
      <trkpt lat="46.9021" lon="4.31631">
        <ele>546.17</ele>
        <time>2021-08-12T15:57:24Z</time>
      </trkpt>
      <trkpt lat="46.90196" lon="4.31632">
        <ele>544.24</ele>
        <time>2021-08-12T15:57:29Z</time>
      </trkpt>
      <trkpt lat="46.90175" lon="4.31629">
        <ele>540.88</ele>
        <time>2021-08-12T15:57:35Z</time>
      </trkpt>
      <trkpt lat="46.90165" lon="4.31632">
        <ele>538.96</ele>
        <time>2021-08-12T15:57:38Z</time>
      </trkpt>
      <trkpt lat="46.90162" lon="4.31636">
        <ele>538.48</ele>
        <time>2021-08-12T15:57:39Z</time>
      </trkpt>
      <trkpt lat="46.90151" lon="4.31649">
        <ele>536.07</ele>
        <time>2021-08-12T15:57:43Z</time>
      </trkpt>
      <trkpt lat="46.90136" lon="4.31666">
        <ele>532.71</ele>
        <time>2021-08-12T15:57:48Z</time>
      </trkpt>
      <trkpt lat="46.90118" lon="4.31676">
        <ele>530.3</ele>
        <time>2021-08-12T15:57:53Z</time>
      </trkpt>
      <trkpt lat="46.90104" lon="4.31685">
        <ele>527.9</ele>
        <time>2021-08-12T15:57:59Z</time>
      </trkpt>
      <trkpt lat="46.90093" lon="4.31692">
        <ele>524.54</ele>
        <time>2021-08-12T15:58:04Z</time>
      </trkpt>
      <trkpt lat="46.90078" lon="4.31692">
        <ele>523.09</ele>
        <time>2021-08-12T15:58:07Z</time>
      </trkpt>
      <trkpt lat="46.90054" lon="4.3169">
        <ele>519.73</ele>
        <time>2021-08-12T15:58:11Z</time>
      </trkpt>
      <trkpt lat="46.90047" lon="4.31689">
        <ele>519.73</ele>
        <time>2021-08-12T15:58:12Z</time>
      </trkpt>
      <trkpt lat="46.90031" lon="4.31687">
        <ele>518.29</ele>
        <time>2021-08-12T15:58:15Z</time>
      </trkpt>
      <trkpt lat="46.90024" lon="4.31688">
        <ele>518.29</ele>
        <time>2021-08-12T15:58:19Z</time>
      </trkpt>
      <trkpt lat="46.90011" lon="4.31685">
        <ele>518.77</ele>
        <time>2021-08-12T15:58:26Z</time>
      </trkpt>
      <trkpt lat="46.89998" lon="4.3168">
        <ele>520.21</ele>
        <time>2021-08-12T15:58:33Z</time>
      </trkpt>
      <trkpt lat="46.89984" lon="4.31673">
        <ele>521.17</ele>
        <time>2021-08-12T15:58:41Z</time>
      </trkpt>
      <trkpt lat="46.89975" lon="4.31671">
        <ele>521.65</ele>
        <time>2021-08-12T15:58:49Z</time>
      </trkpt>
      <trkpt lat="46.89968" lon="4.31672">
        <ele>522.13</ele>
        <time>2021-08-12T15:59:02Z</time>
      </trkpt>
      <trkpt lat="46.89969" lon="4.31668">
        <ele>522.13</ele>
        <time>2021-08-12T15:59:14Z</time>
      </trkpt>
      <trkpt lat="46.89971" lon="4.31666">
        <ele>522.13</ele>
        <time>2021-08-12T15:59:30Z</time>
      </trkpt>
      <trkpt lat="46.89969" lon="4.31666">
        <ele>522.13</ele>
        <time>2021-08-12T15:59:44Z</time>
      </trkpt>
      <trkpt lat="46.89968" lon="4.31666">
        <ele>522.13</ele>
        <time>2021-08-12T15:59:55Z</time>
      </trkpt>
      <trkpt lat="46.89965" lon="4.31666">
        <ele>522.13</ele>
        <time>2021-08-12T16:00:12Z</time>
      </trkpt>
      <trkpt lat="46.89964" lon="4.31666">
        <ele>522.61</ele>
        <time>2021-08-12T16:00:27Z</time>
      </trkpt>
      <trkpt lat="46.89961" lon="4.31664">
        <ele>522.61</ele>
        <time>2021-08-12T16:00:47Z</time>
      </trkpt>
      <trkpt lat="46.89963" lon="4.31667">
        <ele>522.61</ele>
        <time>2021-08-12T16:01:01Z</time>
      </trkpt>
      <trkpt lat="46.89965" lon="4.31668">
        <ele>522.61</ele>
        <time>2021-08-12T16:01:12Z</time>
      </trkpt>
      <trkpt lat="46.89961" lon="4.31667">
        <ele>522.61</ele>
        <time>2021-08-12T16:01:22Z</time>
      </trkpt>
      <trkpt lat="46.89958" lon="4.31661">
        <ele>522.61</ele>
        <time>2021-08-12T16:01:32Z</time>
      </trkpt>
      <trkpt lat="46.89955" lon="4.31657">
        <ele>522.61</ele>
        <time>2021-08-12T16:01:34Z</time>
      </trkpt>
      <trkpt lat="46.89954" lon="4.31655">
        <ele>522.61</ele>
        <time>2021-08-12T16:01:35Z</time>
      </trkpt>
      <trkpt lat="46.8995" lon="4.31645">
        <ele>522.61</ele>
        <time>2021-08-12T16:01:42Z</time>
      </trkpt>
      <trkpt lat="46.89946" lon="4.3164">
        <ele>523.09</ele>
        <time>2021-08-12T16:01:46Z</time>
      </trkpt>
      <trkpt lat="46.89943" lon="4.31637">
        <ele>523.58</ele>
        <time>2021-08-12T16:01:48Z</time>
      </trkpt>
      <trkpt lat="46.89932" lon="4.31626">
        <ele>524.06</ele>
        <time>2021-08-12T16:01:56Z</time>
      </trkpt>
      <trkpt lat="46.89921" lon="4.31614">
        <ele>524.54</ele>
        <time>2021-08-12T16:02:03Z</time>
      </trkpt>
      <trkpt lat="46.8991" lon="4.31603">
        <ele>523.09</ele>
        <time>2021-08-12T16:02:08Z</time>
      </trkpt>
      <trkpt lat="46.89908" lon="4.31601">
        <ele>523.09</ele>
        <time>2021-08-12T16:02:09Z</time>
      </trkpt>
      <trkpt lat="46.89896" lon="4.31585">
        <ele>523.09</ele>
        <time>2021-08-12T16:02:16Z</time>
      </trkpt>
      <trkpt lat="46.89885" lon="4.3157">
        <ele>523.09</ele>
        <time>2021-08-12T16:02:24Z</time>
      </trkpt>
      <trkpt lat="46.89883" lon="4.31564">
        <ele>524.54</ele>
        <time>2021-08-12T16:02:27Z</time>
      </trkpt>
      <trkpt lat="46.89876" lon="4.31553">
        <ele>525.98</ele>
        <time>2021-08-12T16:02:35Z</time>
      </trkpt>
      <trkpt lat="46.89866" lon="4.31541">
        <ele>527.42</ele>
        <time>2021-08-12T16:02:43Z</time>
      </trkpt>
      <trkpt lat="46.89857" lon="4.31528">
        <ele>527.42</ele>
        <time>2021-08-12T16:02:50Z</time>
      </trkpt>
      <trkpt lat="46.8985" lon="4.31523">
        <ele>527.42</ele>
        <time>2021-08-12T16:02:57Z</time>
      </trkpt>
      <trkpt lat="46.89844" lon="4.31511">
        <ele>527.42</ele>
        <time>2021-08-12T16:03:16Z</time>
      </trkpt>
      <trkpt lat="46.8984" lon="4.31507">
        <ele>527.42</ele>
        <time>2021-08-12T16:03:28Z</time>
      </trkpt>
      <trkpt lat="46.8983" lon="4.31491">
        <ele>523.58</ele>
        <time>2021-08-12T16:03:36Z</time>
      </trkpt>
      <trkpt lat="46.8982" lon="4.31467">
        <ele>523.09</ele>
        <time>2021-08-12T16:03:42Z</time>
      </trkpt>
      <trkpt lat="46.89814" lon="4.31438">
        <ele>522.13</ele>
        <time>2021-08-12T16:03:48Z</time>
      </trkpt>
      <trkpt lat="46.8981" lon="4.31415">
        <ele>519.25</ele>
        <time>2021-08-12T16:03:53Z</time>
      </trkpt>
      <trkpt lat="46.89806" lon="4.3141">
        <ele>517.33</ele>
        <time>2021-08-12T16:03:56Z</time>
      </trkpt>
      <trkpt lat="46.898" lon="4.31414">
        <ele>514.44</ele>
        <time>2021-08-12T16:04:00Z</time>
      </trkpt>
      <trkpt lat="46.89793" lon="4.31423">
        <ele>511.08</ele>
        <time>2021-08-12T16:04:05Z</time>
      </trkpt>
      <trkpt lat="46.89785" lon="4.31446">
        <ele>507.71</ele>
        <time>2021-08-12T16:04:11Z</time>
      </trkpt>
      <trkpt lat="46.89783" lon="4.3146">
        <ele>504.83</ele>
        <time>2021-08-12T16:04:15Z</time>
      </trkpt>
      <trkpt lat="46.89779" lon="4.31472">
        <ele>502.91</ele>
        <time>2021-08-12T16:04:19Z</time>
      </trkpt>
      <trkpt lat="46.89775" lon="4.31483">
        <ele>501.46</ele>
        <time>2021-08-12T16:04:22Z</time>
      </trkpt>
      <trkpt lat="46.89758" lon="4.31516">
        <ele>498.58</ele>
        <time>2021-08-12T16:04:29Z</time>
      </trkpt>
      <trkpt lat="46.89741" lon="4.31536">
        <ele>497.14</ele>
        <time>2021-08-12T16:04:34Z</time>
      </trkpt>
      <trkpt lat="46.89734" lon="4.31541">
        <ele>497.14</ele>
        <time>2021-08-12T16:04:39Z</time>
      </trkpt>
      <trkpt lat="46.89723" lon="4.31541">
        <ele>496.66</ele>
        <time>2021-08-12T16:04:58Z</time>
      </trkpt>
      <trkpt lat="46.89716" lon="4.3154">
        <ele>497.14</ele>
        <time>2021-08-12T16:05:17Z</time>
      </trkpt>
      <trkpt lat="46.89717" lon="4.31542">
        <ele>496.66</ele>
        <time>2021-08-12T16:05:30Z</time>
      </trkpt>
      <trkpt lat="46.89716" lon="4.31542">
        <ele>496.66</ele>
        <time>2021-08-12T16:05:31Z</time>
      </trkpt>
      <trkpt lat="46.89712" lon="4.31544">
        <ele>495.7</ele>
        <time>2021-08-12T16:05:38Z</time>
      </trkpt>
      <trkpt lat="46.897" lon="4.31545">
        <ele>495.22</ele>
        <time>2021-08-12T16:05:48Z</time>
      </trkpt>
      <trkpt lat="46.89683" lon="4.31557">
        <ele>492.33</ele>
        <time>2021-08-12T16:05:53Z</time>
      </trkpt>
      <trkpt lat="46.89677" lon="4.31573">
        <ele>489.45</ele>
        <time>2021-08-12T16:05:57Z</time>
      </trkpt>
      <trkpt lat="46.8967" lon="4.31591">
        <ele>486.56</ele>
        <time>2021-08-12T16:06:01Z</time>
      </trkpt>
      <trkpt lat="46.89663" lon="4.3161">
        <ele>484.64</ele>
        <time>2021-08-12T16:06:06Z</time>
      </trkpt>
      <trkpt lat="46.8966" lon="4.31622">
        <ele>483.2</ele>
        <time>2021-08-12T16:06:09Z</time>
      </trkpt>
      <trkpt lat="46.89654" lon="4.3165">
        <ele>481.28</ele>
        <time>2021-08-12T16:06:14Z</time>
      </trkpt>
      <trkpt lat="46.89651" lon="4.31656">
        <ele>481.28</ele>
        <time>2021-08-12T16:06:15Z</time>
      </trkpt>
      <trkpt lat="46.89647" lon="4.31659">
        <ele>480.8</ele>
        <time>2021-08-12T16:06:16Z</time>
      </trkpt>
      <trkpt lat="46.89643" lon="4.3166">
        <ele>480.8</ele>
        <time>2021-08-12T16:06:17Z</time>
      </trkpt>
      <trkpt lat="46.89641" lon="4.3166">
        <ele>480.32</ele>
        <time>2021-08-12T16:06:18Z</time>
      </trkpt>
      <trkpt lat="46.89639" lon="4.31659">
        <ele>480.32</ele>
        <time>2021-08-12T16:06:19Z</time>
      </trkpt>
      <trkpt lat="46.89637" lon="4.31659">
        <ele>480.32</ele>
        <time>2021-08-12T16:06:20Z</time>
      </trkpt>
      <trkpt lat="46.89636" lon="4.31659">
        <ele>480.32</ele>
        <time>2021-08-12T16:06:21Z</time>
      </trkpt>
      <trkpt lat="46.89634" lon="4.31659">
        <ele>480.32</ele>
        <time>2021-08-12T16:06:22Z</time>
      </trkpt>
      <trkpt lat="46.89633" lon="4.31658">
        <ele>480.32</ele>
        <time>2021-08-12T16:06:23Z</time>
      </trkpt>
      <trkpt lat="46.89632" lon="4.31656">
        <ele>480.32</ele>
        <time>2021-08-12T16:06:24Z</time>
      </trkpt>
      <trkpt lat="46.8963" lon="4.31653">
        <ele>480.32</ele>
        <time>2021-08-12T16:06:25Z</time>
      </trkpt>
      <trkpt lat="46.89629" lon="4.31649">
        <ele>480.32</ele>
        <time>2021-08-12T16:06:26Z</time>
      </trkpt>
      <trkpt lat="46.89627" lon="4.31646">
        <ele>479.84</ele>
        <time>2021-08-12T16:06:27Z</time>
      </trkpt>
      <trkpt lat="46.89624" lon="4.31636">
        <ele>478.87</ele>
        <time>2021-08-12T16:06:29Z</time>
      </trkpt>
      <trkpt lat="46.89621" lon="4.31616">
        <ele>478.39</ele>
        <time>2021-08-12T16:06:32Z</time>
      </trkpt>
      <trkpt lat="46.8962" lon="4.31553">
        <ele>475.51</ele>
        <time>2021-08-12T16:06:39Z</time>
      </trkpt>
      <trkpt lat="46.89625" lon="4.31514">
        <ele>474.07</ele>
        <time>2021-08-12T16:06:43Z</time>
      </trkpt>
      <trkpt lat="46.89637" lon="4.31449">
        <ele>472.14</ele>
        <time>2021-08-12T16:06:49Z</time>
      </trkpt>
      <trkpt lat="46.89636" lon="4.31437">
        <ele>471.18</ele>
        <time>2021-08-12T16:06:50Z</time>
      </trkpt>
      <trkpt lat="46.89634" lon="4.31416">
        <ele>470.7</ele>
        <time>2021-08-12T16:06:52Z</time>
      </trkpt>
      <trkpt lat="46.89631" lon="4.31398">
        <ele>469.74</ele>
        <time>2021-08-12T16:06:53Z</time>
      </trkpt>
      <trkpt lat="46.89629" lon="4.31391">
        <ele>469.74</ele>
        <time>2021-08-12T16:06:54Z</time>
      </trkpt>
      <trkpt lat="46.89617" lon="4.31326">
        <ele>466.38</ele>
        <time>2021-08-12T16:06:59Z</time>
      </trkpt>
      <trkpt lat="46.89618" lon="4.31313">
        <ele>466.38</ele>
        <time>2021-08-12T16:07:00Z</time>
      </trkpt>
      <trkpt lat="46.8962" lon="4.31243">
        <ele>463.97</ele>
        <time>2021-08-12T16:07:05Z</time>
      </trkpt>
      <trkpt lat="46.89617" lon="4.3123">
        <ele>463.49</ele>
        <time>2021-08-12T16:07:06Z</time>
      </trkpt>
      <trkpt lat="46.89612" lon="4.31217">
        <ele>463.49</ele>
        <time>2021-08-12T16:07:07Z</time>
      </trkpt>
      <trkpt lat="46.89605" lon="4.31208">
        <ele>462.53</ele>
        <time>2021-08-12T16:07:08Z</time>
      </trkpt>
      <trkpt lat="46.89596" lon="4.31201">
        <ele>461.57</ele>
        <time>2021-08-12T16:07:09Z</time>
      </trkpt>
      <trkpt lat="46.89587" lon="4.31196">
        <ele>461.09</ele>
        <time>2021-08-12T16:07:10Z</time>
      </trkpt>
      <trkpt lat="46.89578" lon="4.31191">
        <ele>461.09</ele>
        <time>2021-08-12T16:07:11Z</time>
      </trkpt>
      <trkpt lat="46.8957" lon="4.31183">
        <ele>460.13</ele>
        <time>2021-08-12T16:07:12Z</time>
      </trkpt>
      <trkpt lat="46.89563" lon="4.31173">
        <ele>459.65</ele>
        <time>2021-08-12T16:07:13Z</time>
      </trkpt>
      <trkpt lat="46.89558" lon="4.3116">
        <ele>459.65</ele>
        <time>2021-08-12T16:07:14Z</time>
      </trkpt>
      <trkpt lat="46.89554" lon="4.31146">
        <ele>458.21</ele>
        <time>2021-08-12T16:07:15Z</time>
      </trkpt>
      <trkpt lat="46.89552" lon="4.31133">
        <ele>458.21</ele>
        <time>2021-08-12T16:07:16Z</time>
      </trkpt>
      <trkpt lat="46.8955" lon="4.3112">
        <ele>457.24</ele>
        <time>2021-08-12T16:07:17Z</time>
      </trkpt>
      <trkpt lat="46.89549" lon="4.31106">
        <ele>456.76</ele>
        <time>2021-08-12T16:07:18Z</time>
      </trkpt>
      <trkpt lat="46.8955" lon="4.31065">
        <ele>455.32</ele>
        <time>2021-08-12T16:07:21Z</time>
      </trkpt>
      <trkpt lat="46.89553" lon="4.31052">
        <ele>454.84</ele>
        <time>2021-08-12T16:07:22Z</time>
      </trkpt>
      <trkpt lat="46.89559" lon="4.31038">
        <ele>454.84</ele>
        <time>2021-08-12T16:07:23Z</time>
      </trkpt>
      <trkpt lat="46.89579" lon="4.30998">
        <ele>452.44</ele>
        <time>2021-08-12T16:07:26Z</time>
      </trkpt>
      <trkpt lat="46.89587" lon="4.30986">
        <ele>452.44</ele>
        <time>2021-08-12T16:07:27Z</time>
      </trkpt>
      <trkpt lat="46.89595" lon="4.30975">
        <ele>451.48</ele>
        <time>2021-08-12T16:07:28Z</time>
      </trkpt>
      <trkpt lat="46.89612" lon="4.30956">
        <ele>450.03</ele>
        <time>2021-08-12T16:07:30Z</time>
      </trkpt>
      <trkpt lat="46.89622" lon="4.30948">
        <ele>449.55</ele>
        <time>2021-08-12T16:07:31Z</time>
      </trkpt>
      <trkpt lat="46.89631" lon="4.30943">
        <ele>449.07</ele>
        <time>2021-08-12T16:07:32Z</time>
      </trkpt>
      <trkpt lat="46.89641" lon="4.30938">
        <ele>448.59</ele>
        <time>2021-08-12T16:07:33Z</time>
      </trkpt>
      <trkpt lat="46.89651" lon="4.30934">
        <ele>448.59</ele>
        <time>2021-08-12T16:07:34Z</time>
      </trkpt>
      <trkpt lat="46.8968" lon="4.30922">
        <ele>446.67</ele>
        <time>2021-08-12T16:07:37Z</time>
      </trkpt>
      <trkpt lat="46.89688" lon="4.30916">
        <ele>446.67</ele>
        <time>2021-08-12T16:07:38Z</time>
      </trkpt>
      <trkpt lat="46.89696" lon="4.30908">
        <ele>445.71</ele>
        <time>2021-08-12T16:07:39Z</time>
      </trkpt>
      <trkpt lat="46.89704" lon="4.309">
        <ele>445.23</ele>
        <time>2021-08-12T16:07:40Z</time>
      </trkpt>
      <trkpt lat="46.89711" lon="4.3089">
        <ele>445.23</ele>
        <time>2021-08-12T16:07:41Z</time>
      </trkpt>
      <trkpt lat="46.89718" lon="4.30879">
        <ele>444.27</ele>
        <time>2021-08-12T16:07:42Z</time>
      </trkpt>
      <trkpt lat="46.89748" lon="4.30827">
        <ele>442.34</ele>
        <time>2021-08-12T16:07:47Z</time>
      </trkpt>
      <trkpt lat="46.89753" lon="4.30816">
        <ele>441.38</ele>
        <time>2021-08-12T16:07:48Z</time>
      </trkpt>
      <trkpt lat="46.89756" lon="4.30805">
        <ele>440.9</ele>
        <time>2021-08-12T16:07:49Z</time>
      </trkpt>
      <trkpt lat="46.89758" lon="4.30794">
        <ele>440.42</ele>
        <time>2021-08-12T16:07:50Z</time>
      </trkpt>
      <trkpt lat="46.89759" lon="4.30781">
        <ele>439.94</ele>
        <time>2021-08-12T16:07:51Z</time>
      </trkpt>
      <trkpt lat="46.8976" lon="4.30768">
        <ele>439.94</ele>
        <time>2021-08-12T16:07:52Z</time>
      </trkpt>
      <trkpt lat="46.8976" lon="4.30756">
        <ele>439.94</ele>
        <time>2021-08-12T16:07:53Z</time>
      </trkpt>
      <trkpt lat="46.89759" lon="4.30747">
        <ele>439.94</ele>
        <time>2021-08-12T16:07:54Z</time>
      </trkpt>
      <trkpt lat="46.89757" lon="4.30739">
        <ele>441.38</ele>
        <time>2021-08-12T16:07:55Z</time>
      </trkpt>
      <trkpt lat="46.89754" lon="4.30732">
        <ele>441.86</ele>
        <time>2021-08-12T16:07:56Z</time>
      </trkpt>
      <trkpt lat="46.89752" lon="4.30726">
        <ele>442.82</ele>
        <time>2021-08-12T16:07:57Z</time>
      </trkpt>
      <trkpt lat="46.89749" lon="4.30722">
        <ele>442.82</ele>
        <time>2021-08-12T16:07:58Z</time>
      </trkpt>
      <trkpt lat="46.89742" lon="4.30707">
        <ele>444.75</ele>
        <time>2021-08-12T16:08:04Z</time>
      </trkpt>
      <trkpt lat="46.89733" lon="4.30692">
        <ele>445.23</ele>
        <time>2021-08-12T16:08:12Z</time>
      </trkpt>
      <trkpt lat="46.89724" lon="4.30674">
        <ele>446.67</ele>
        <time>2021-08-12T16:08:21Z</time>
      </trkpt>
      <trkpt lat="46.89714" lon="4.30655">
        <ele>447.15</ele>
        <time>2021-08-12T16:08:31Z</time>
      </trkpt>
      <trkpt lat="46.89704" lon="4.30641">
        <ele>448.11</ele>
        <time>2021-08-12T16:08:40Z</time>
      </trkpt>
      <trkpt lat="46.89695" lon="4.30629">
        <ele>448.59</ele>
        <time>2021-08-12T16:08:48Z</time>
      </trkpt>
      <trkpt lat="46.8968" lon="4.30613">
        <ele>450.52</ele>
        <time>2021-08-12T16:08:59Z</time>
      </trkpt>
      <trkpt lat="46.89676" lon="4.30605">
        <ele>451</ele>
        <time>2021-08-12T16:09:04Z</time>
      </trkpt>
      <trkpt lat="46.89675" lon="4.30603">
        <ele>451</ele>
        <time>2021-08-12T16:09:05Z</time>
      </trkpt>
      <trkpt lat="46.89669" lon="4.30584">
        <ele>451.96</ele>
        <time>2021-08-12T16:09:13Z</time>
      </trkpt>
      <trkpt lat="46.89667" lon="4.30573">
        <ele>452.44</ele>
        <time>2021-08-12T16:09:18Z</time>
      </trkpt>
      <trkpt lat="46.89667" lon="4.30571">
        <ele>452.44</ele>
        <time>2021-08-12T16:09:19Z</time>
      </trkpt>
      <trkpt lat="46.89666" lon="4.30568">
        <ele>452.92</ele>
        <time>2021-08-12T16:09:20Z</time>
      </trkpt>
      <trkpt lat="46.89666" lon="4.30566">
        <ele>452.92</ele>
        <time>2021-08-12T16:09:21Z</time>
      </trkpt>
      <trkpt lat="46.89666" lon="4.30564">
        <ele>452.92</ele>
        <time>2021-08-12T16:09:22Z</time>
      </trkpt>
      <trkpt lat="46.89666" lon="4.30562">
        <ele>452.92</ele>
        <time>2021-08-12T16:09:23Z</time>
      </trkpt>
      <trkpt lat="46.89666" lon="4.30559">
        <ele>453.4</ele>
        <time>2021-08-12T16:09:24Z</time>
      </trkpt>
      <trkpt lat="46.89666" lon="4.30557">
        <ele>453.4</ele>
        <time>2021-08-12T16:09:25Z</time>
      </trkpt>
      <trkpt lat="46.89666" lon="4.30556">
        <ele>453.4</ele>
        <time>2021-08-12T16:09:26Z</time>
      </trkpt>
      <trkpt lat="46.89667" lon="4.30554">
        <ele>453.88</ele>
        <time>2021-08-12T16:09:27Z</time>
      </trkpt>
      <trkpt lat="46.89667" lon="4.30553">
        <ele>453.88</ele>
        <time>2021-08-12T16:09:28Z</time>
      </trkpt>
      <trkpt lat="46.89668" lon="4.30549">
        <ele>454.36</ele>
        <time>2021-08-12T16:09:30Z</time>
      </trkpt>
      <trkpt lat="46.89668" lon="4.30548">
        <ele>454.36</ele>
        <time>2021-08-12T16:09:31Z</time>
      </trkpt>
      <trkpt lat="46.89668" lon="4.30546">
        <ele>454.36</ele>
        <time>2021-08-12T16:09:32Z</time>
      </trkpt>
      <trkpt lat="46.89668" lon="4.30544">
        <ele>454.36</ele>
        <time>2021-08-12T16:09:33Z</time>
      </trkpt>
      <trkpt lat="46.89668" lon="4.30542">
        <ele>454.36</ele>
        <time>2021-08-12T16:09:34Z</time>
      </trkpt>
      <trkpt lat="46.89669" lon="4.3054">
        <ele>454.36</ele>
        <time>2021-08-12T16:09:35Z</time>
      </trkpt>
      <trkpt lat="46.89669" lon="4.30537">
        <ele>454.36</ele>
        <time>2021-08-12T16:09:36Z</time>
      </trkpt>
      <trkpt lat="46.89669" lon="4.30525">
        <ele>455.32</ele>
        <time>2021-08-12T16:09:42Z</time>
      </trkpt>
      <trkpt lat="46.89669" lon="4.30523">
        <ele>455.32</ele>
        <time>2021-08-12T16:09:43Z</time>
      </trkpt>
      <trkpt lat="46.89669" lon="4.30521">
        <ele>455.32</ele>
        <time>2021-08-12T16:09:44Z</time>
      </trkpt>
      <trkpt lat="46.89669" lon="4.30519">
        <ele>455.8</ele>
        <time>2021-08-12T16:09:45Z</time>
      </trkpt>
      <trkpt lat="46.89669" lon="4.30517">
        <ele>455.8</ele>
        <time>2021-08-12T16:09:46Z</time>
      </trkpt>
      <trkpt lat="46.8967" lon="4.30513">
        <ele>456.28</ele>
        <time>2021-08-12T16:09:48Z</time>
      </trkpt>
      <trkpt lat="46.89671" lon="4.30511">
        <ele>456.28</ele>
        <time>2021-08-12T16:09:49Z</time>
      </trkpt>
      <trkpt lat="46.89671" lon="4.30509">
        <ele>456.28</ele>
        <time>2021-08-12T16:09:50Z</time>
      </trkpt>
      <trkpt lat="46.89672" lon="4.30507">
        <ele>456.28</ele>
        <time>2021-08-12T16:09:51Z</time>
      </trkpt>
      <trkpt lat="46.89672" lon="4.30505">
        <ele>456.28</ele>
        <time>2021-08-12T16:09:52Z</time>
      </trkpt>
      <trkpt lat="46.89673" lon="4.30502">
        <ele>456.28</ele>
        <time>2021-08-12T16:09:53Z</time>
      </trkpt>
      <trkpt lat="46.89674" lon="4.305">
        <ele>456.28</ele>
        <time>2021-08-12T16:09:54Z</time>
      </trkpt>
      <trkpt lat="46.89678" lon="4.30485">
        <ele>457.24</ele>
        <time>2021-08-12T16:10:01Z</time>
      </trkpt>
      <trkpt lat="46.89684" lon="4.30463">
        <ele>458.69</ele>
        <time>2021-08-12T16:10:09Z</time>
      </trkpt>
      <trkpt lat="46.8969" lon="4.30436">
        <ele>460.13</ele>
        <time>2021-08-12T16:10:19Z</time>
      </trkpt>
      <trkpt lat="46.8969" lon="4.30419">
        <ele>460.61</ele>
        <time>2021-08-12T16:10:25Z</time>
      </trkpt>
      <trkpt lat="46.8969" lon="4.30407">
        <ele>461.57</ele>
        <time>2021-08-12T16:10:31Z</time>
      </trkpt>
      <trkpt lat="46.8969" lon="4.30405">
        <ele>461.57</ele>
        <time>2021-08-12T16:10:32Z</time>
      </trkpt>
      <trkpt lat="46.8969" lon="4.30403">
        <ele>462.05</ele>
        <time>2021-08-12T16:10:33Z</time>
      </trkpt>
      <trkpt lat="46.89689" lon="4.30401">
        <ele>462.05</ele>
        <time>2021-08-12T16:10:34Z</time>
      </trkpt>
      <trkpt lat="46.89689" lon="4.30399">
        <ele>462.05</ele>
        <time>2021-08-12T16:10:35Z</time>
      </trkpt>
      <trkpt lat="46.89689" lon="4.30397">
        <ele>462.53</ele>
        <time>2021-08-12T16:10:36Z</time>
      </trkpt>
      <trkpt lat="46.89689" lon="4.30395">
        <ele>462.53</ele>
        <time>2021-08-12T16:10:37Z</time>
      </trkpt>
      <trkpt lat="46.89689" lon="4.30393">
        <ele>462.53</ele>
        <time>2021-08-12T16:10:38Z</time>
      </trkpt>
      <trkpt lat="46.89688" lon="4.30391">
        <ele>463.01</ele>
        <time>2021-08-12T16:10:39Z</time>
      </trkpt>
      <trkpt lat="46.89688" lon="4.30389">
        <ele>463.01</ele>
        <time>2021-08-12T16:10:40Z</time>
      </trkpt>
      <trkpt lat="46.89688" lon="4.30387">
        <ele>463.01</ele>
        <time>2021-08-12T16:10:41Z</time>
      </trkpt>
      <trkpt lat="46.89688" lon="4.30384">
        <ele>463.01</ele>
        <time>2021-08-12T16:10:42Z</time>
      </trkpt>
      <trkpt lat="46.89688" lon="4.30382">
        <ele>463.01</ele>
        <time>2021-08-12T16:10:43Z</time>
      </trkpt>
      <trkpt lat="46.89688" lon="4.30367">
        <ele>463.97</ele>
        <time>2021-08-12T16:10:51Z</time>
      </trkpt>
      <trkpt lat="46.89695" lon="4.30331">
        <ele>464.93</ele>
        <time>2021-08-12T16:10:59Z</time>
      </trkpt>
      <trkpt lat="46.89695" lon="4.30321">
        <ele>465.42</ele>
        <time>2021-08-12T16:11:04Z</time>
      </trkpt>
      <trkpt lat="46.89695" lon="4.30319">
        <ele>465.42</ele>
        <time>2021-08-12T16:11:05Z</time>
      </trkpt>
      <trkpt lat="46.89695" lon="4.30316">
        <ele>465.42</ele>
        <time>2021-08-12T16:11:06Z</time>
      </trkpt>
      <trkpt lat="46.89695" lon="4.30314">
        <ele>465.9</ele>
        <time>2021-08-12T16:11:07Z</time>
      </trkpt>
      <trkpt lat="46.89695" lon="4.30312">
        <ele>465.9</ele>
        <time>2021-08-12T16:11:08Z</time>
      </trkpt>
      <trkpt lat="46.89695" lon="4.30309">
        <ele>465.9</ele>
        <time>2021-08-12T16:11:09Z</time>
      </trkpt>
      <trkpt lat="46.89695" lon="4.30307">
        <ele>465.9</ele>
        <time>2021-08-12T16:11:10Z</time>
      </trkpt>
      <trkpt lat="46.89696" lon="4.30284">
        <ele>466.86</ele>
        <time>2021-08-12T16:11:19Z</time>
      </trkpt>
      <trkpt lat="46.89701" lon="4.30264">
        <ele>468.3</ele>
        <time>2021-08-12T16:11:27Z</time>
      </trkpt>
      <trkpt lat="46.89709" lon="4.30245">
        <ele>468.78</ele>
        <time>2021-08-12T16:11:36Z</time>
      </trkpt>
      <trkpt lat="46.89714" lon="4.30231">
        <ele>469.74</ele>
        <time>2021-08-12T16:11:43Z</time>
      </trkpt>
      <trkpt lat="46.89722" lon="4.30209">
        <ele>471.18</ele>
        <time>2021-08-12T16:11:54Z</time>
      </trkpt>
      <trkpt lat="46.89729" lon="4.30196">
        <ele>471.66</ele>
        <time>2021-08-12T16:12:01Z</time>
      </trkpt>
      <trkpt lat="46.89737" lon="4.30176">
        <ele>472.63</ele>
        <time>2021-08-12T16:12:11Z</time>
      </trkpt>
      <trkpt lat="46.89743" lon="4.30159">
        <ele>473.59</ele>
        <time>2021-08-12T16:12:20Z</time>
      </trkpt>
      <trkpt lat="46.89746" lon="4.30142">
        <ele>475.03</ele>
        <time>2021-08-12T16:12:29Z</time>
      </trkpt>
      <trkpt lat="46.89749" lon="4.30131">
        <ele>475.51</ele>
        <time>2021-08-12T16:12:36Z</time>
      </trkpt>
      <trkpt lat="46.89751" lon="4.30121">
        <ele>475.99</ele>
        <time>2021-08-12T16:12:40Z</time>
      </trkpt>
      <trkpt lat="46.89751" lon="4.30119">
        <ele>475.99</ele>
        <time>2021-08-12T16:12:41Z</time>
      </trkpt>
      <trkpt lat="46.89751" lon="4.30116">
        <ele>476.47</ele>
        <time>2021-08-12T16:12:42Z</time>
      </trkpt>
      <trkpt lat="46.89752" lon="4.3011">
        <ele>476.47</ele>
        <time>2021-08-12T16:12:45Z</time>
      </trkpt>
      <trkpt lat="46.89755" lon="4.30093">
        <ele>477.43</ele>
        <time>2021-08-12T16:12:52Z</time>
      </trkpt>
      <trkpt lat="46.89755" lon="4.30091">
        <ele>477.43</ele>
        <time>2021-08-12T16:12:53Z</time>
      </trkpt>
      <trkpt lat="46.89756" lon="4.30088">
        <ele>477.91</ele>
        <time>2021-08-12T16:12:54Z</time>
      </trkpt>
      <trkpt lat="46.89756" lon="4.30086">
        <ele>477.91</ele>
        <time>2021-08-12T16:12:55Z</time>
      </trkpt>
      <trkpt lat="46.89757" lon="4.30084">
        <ele>477.91</ele>
        <time>2021-08-12T16:12:56Z</time>
      </trkpt>
      <trkpt lat="46.89758" lon="4.30082">
        <ele>477.91</ele>
        <time>2021-08-12T16:12:57Z</time>
      </trkpt>
      <trkpt lat="46.89763" lon="4.30067">
        <ele>478.39</ele>
        <time>2021-08-12T16:13:04Z</time>
      </trkpt>
      <trkpt lat="46.89766" lon="4.30054">
        <ele>479.35</ele>
        <time>2021-08-12T16:13:09Z</time>
      </trkpt>
      <trkpt lat="46.89767" lon="4.30052">
        <ele>479.35</ele>
        <time>2021-08-12T16:13:10Z</time>
      </trkpt>
      <trkpt lat="46.89768" lon="4.30049">
        <ele>479.84</ele>
        <time>2021-08-12T16:13:11Z</time>
      </trkpt>
      <trkpt lat="46.89769" lon="4.30047">
        <ele>479.84</ele>
        <time>2021-08-12T16:13:12Z</time>
      </trkpt>
      <trkpt lat="46.8977" lon="4.30045">
        <ele>479.84</ele>
        <time>2021-08-12T16:13:13Z</time>
      </trkpt>
      <trkpt lat="46.8977" lon="4.30043">
        <ele>480.32</ele>
        <time>2021-08-12T16:13:14Z</time>
      </trkpt>
      <trkpt lat="46.89771" lon="4.30041">
        <ele>480.32</ele>
        <time>2021-08-12T16:13:15Z</time>
      </trkpt>
      <trkpt lat="46.89771" lon="4.30038">
        <ele>480.32</ele>
        <time>2021-08-12T16:13:16Z</time>
      </trkpt>
      <trkpt lat="46.8978" lon="4.30011">
        <ele>481.28</ele>
        <time>2021-08-12T16:13:24Z</time>
      </trkpt>
      <trkpt lat="46.89779" lon="4.2999">
        <ele>482.24</ele>
        <time>2021-08-12T16:13:33Z</time>
      </trkpt>
      <trkpt lat="46.89772" lon="4.29975">
        <ele>483.2</ele>
        <time>2021-08-12T16:13:41Z</time>
      </trkpt>
      <trkpt lat="46.89767" lon="4.29966">
        <ele>484.64</ele>
        <time>2021-08-12T16:13:47Z</time>
      </trkpt>
      <trkpt lat="46.89759" lon="4.2995">
        <ele>485.12</ele>
        <time>2021-08-12T16:13:55Z</time>
      </trkpt>
      <trkpt lat="46.89749" lon="4.29933">
        <ele>486.08</ele>
        <time>2021-08-12T16:14:05Z</time>
      </trkpt>
      <trkpt lat="46.89739" lon="4.29923">
        <ele>487.53</ele>
        <time>2021-08-12T16:14:14Z</time>
      </trkpt>
      <trkpt lat="46.89731" lon="4.29901">
        <ele>488.49</ele>
        <time>2021-08-12T16:14:23Z</time>
      </trkpt>
      <trkpt lat="46.89721" lon="4.29866">
        <ele>490.41</ele>
        <time>2021-08-12T16:14:35Z</time>
      </trkpt>
      <trkpt lat="46.89717" lon="4.29843">
        <ele>491.37</ele>
        <time>2021-08-12T16:14:45Z</time>
      </trkpt>
      <trkpt lat="46.89712" lon="4.29819">
        <ele>492.81</ele>
        <time>2021-08-12T16:14:55Z</time>
      </trkpt>
      <trkpt lat="46.89704" lon="4.29794">
        <ele>493.77</ele>
        <time>2021-08-12T16:15:06Z</time>
      </trkpt>
      <trkpt lat="46.897" lon="4.29772">
        <ele>494.74</ele>
        <time>2021-08-12T16:15:15Z</time>
      </trkpt>
      <trkpt lat="46.89697" lon="4.29747">
        <ele>495.7</ele>
        <time>2021-08-12T16:15:24Z</time>
      </trkpt>
      <trkpt lat="46.89696" lon="4.2973">
        <ele>497.14</ele>
        <time>2021-08-12T16:15:32Z</time>
      </trkpt>
      <trkpt lat="46.89694" lon="4.29707">
        <ele>498.1</ele>
        <time>2021-08-12T16:15:41Z</time>
      </trkpt>
      <trkpt lat="46.89692" lon="4.29684">
        <ele>499.06</ele>
        <time>2021-08-12T16:15:50Z</time>
      </trkpt>
      <trkpt lat="46.89688" lon="4.29667">
        <ele>500.02</ele>
        <time>2021-08-12T16:15:58Z</time>
      </trkpt>
      <trkpt lat="46.89688" lon="4.29662">
        <ele>500.5</ele>
        <time>2021-08-12T16:16:00Z</time>
      </trkpt>
      <trkpt lat="46.89687" lon="4.2966">
        <ele>500.5</ele>
        <time>2021-08-12T16:16:01Z</time>
      </trkpt>
      <trkpt lat="46.89687" lon="4.29658">
        <ele>500.98</ele>
        <time>2021-08-12T16:16:02Z</time>
      </trkpt>
      <trkpt lat="46.8968" lon="4.29641">
        <ele>501.95</ele>
        <time>2021-08-12T16:16:10Z</time>
      </trkpt>
      <trkpt lat="46.89675" lon="4.2963">
        <ele>502.91</ele>
        <time>2021-08-12T16:16:17Z</time>
      </trkpt>
      <trkpt lat="46.89673" lon="4.29623">
        <ele>503.39</ele>
        <time>2021-08-12T16:16:24Z</time>
      </trkpt>
      <trkpt lat="46.89673" lon="4.29627">
        <ele>503.39</ele>
        <time>2021-08-12T16:16:40Z</time>
      </trkpt>
      <trkpt lat="46.89672" lon="4.29627">
        <ele>503.39</ele>
        <time>2021-08-12T16:16:54Z</time>
      </trkpt>
      <trkpt lat="46.89672" lon="4.29628">
        <ele>503.87</ele>
        <time>2021-08-12T16:17:07Z</time>
      </trkpt>
      <trkpt lat="46.89673" lon="4.29626">
        <ele>503.87</ele>
        <time>2021-08-12T16:17:22Z</time>
      </trkpt>
      <trkpt lat="46.89675" lon="4.29622">
        <ele>503.87</ele>
        <time>2021-08-12T16:17:35Z</time>
      </trkpt>
      <trkpt lat="46.89673" lon="4.29617">
        <ele>503.87</ele>
        <time>2021-08-12T16:17:46Z</time>
      </trkpt>
      <trkpt lat="46.89672" lon="4.29605">
        <ele>504.35</ele>
        <time>2021-08-12T16:17:52Z</time>
      </trkpt>
      <trkpt lat="46.89671" lon="4.29602">
        <ele>504.35</ele>
        <time>2021-08-12T16:17:57Z</time>
      </trkpt>
      <trkpt lat="46.89671" lon="4.29603">
        <ele>504.35</ele>
        <time>2021-08-12T16:17:58Z</time>
      </trkpt>
      <trkpt lat="46.89672" lon="4.29604">
        <ele>504.35</ele>
        <time>2021-08-12T16:17:59Z</time>
      </trkpt>
      <trkpt lat="46.89672" lon="4.29606">
        <ele>504.35</ele>
        <time>2021-08-12T16:18:00Z</time>
      </trkpt>
      <trkpt lat="46.89672" lon="4.29607">
        <ele>504.35</ele>
        <time>2021-08-12T16:18:01Z</time>
      </trkpt>
      <trkpt lat="46.89674" lon="4.29617">
        <ele>504.35</ele>
        <time>2021-08-12T16:18:06Z</time>
      </trkpt>
      <trkpt lat="46.89675" lon="4.29619">
        <ele>504.35</ele>
        <time>2021-08-12T16:18:07Z</time>
      </trkpt>
      <trkpt lat="46.89675" lon="4.29622">
        <ele>504.35</ele>
        <time>2021-08-12T16:18:08Z</time>
      </trkpt>
      <trkpt lat="46.89676" lon="4.29625">
        <ele>504.35</ele>
        <time>2021-08-12T16:18:09Z</time>
      </trkpt>
      <trkpt lat="46.89677" lon="4.29628">
        <ele>504.35</ele>
        <time>2021-08-12T16:18:10Z</time>
      </trkpt>
      <trkpt lat="46.89681" lon="4.29647">
        <ele>501.95</ele>
        <time>2021-08-12T16:18:17Z</time>
      </trkpt>
      <trkpt lat="46.89681" lon="4.29645">
        <ele>501.95</ele>
        <time>2021-08-12T16:18:24Z</time>
      </trkpt>
      <trkpt lat="46.89681" lon="4.29644">
        <ele>501.95</ele>
        <time>2021-08-12T16:18:36Z</time>
      </trkpt>
      <trkpt lat="46.8968" lon="4.29646">
        <ele>501.95</ele>
        <time>2021-08-12T16:18:50Z</time>
      </trkpt>
      <trkpt lat="46.8968" lon="4.29647">
        <ele>501.95</ele>
        <time>2021-08-12T16:19:04Z</time>
      </trkpt>
      <trkpt lat="46.89681" lon="4.29648">
        <ele>501.46</ele>
        <time>2021-08-12T16:19:09Z</time>
      </trkpt>
      <trkpt lat="46.89682" lon="4.29654">
        <ele>501.46</ele>
        <time>2021-08-12T16:19:12Z</time>
      </trkpt>
      <trkpt lat="46.89683" lon="4.29657">
        <ele>501.46</ele>
        <time>2021-08-12T16:19:13Z</time>
      </trkpt>
      <trkpt lat="46.89683" lon="4.2966">
        <ele>500.98</ele>
        <time>2021-08-12T16:19:14Z</time>
      </trkpt>
      <trkpt lat="46.89684" lon="4.29664">
        <ele>500.98</ele>
        <time>2021-08-12T16:19:15Z</time>
      </trkpt>
      <trkpt lat="46.89685" lon="4.2967">
        <ele>500.02</ele>
        <time>2021-08-12T16:19:16Z</time>
      </trkpt>
      <trkpt lat="46.89686" lon="4.29675">
        <ele>500.02</ele>
        <time>2021-08-12T16:19:17Z</time>
      </trkpt>
      <trkpt lat="46.89687" lon="4.29679">
        <ele>500.02</ele>
        <time>2021-08-12T16:19:18Z</time>
      </trkpt>
      <trkpt lat="46.89688" lon="4.29681">
        <ele>500.02</ele>
        <time>2021-08-12T16:19:21Z</time>
      </trkpt>
      <trkpt lat="46.89688" lon="4.2968">
        <ele>499.54</ele>
        <time>2021-08-12T16:19:22Z</time>
      </trkpt>
      <trkpt lat="46.89686" lon="4.29678">
        <ele>499.54</ele>
        <time>2021-08-12T16:19:28Z</time>
      </trkpt>
      <trkpt lat="46.89684" lon="4.29678">
        <ele>499.54</ele>
        <time>2021-08-12T16:19:32Z</time>
      </trkpt>
      <trkpt lat="46.89682" lon="4.29676">
        <ele>499.06</ele>
        <time>2021-08-12T16:19:33Z</time>
      </trkpt>
      <trkpt lat="46.89671" lon="4.29673">
        <ele>495.7</ele>
        <time>2021-08-12T16:19:38Z</time>
      </trkpt>
      <trkpt lat="46.89668" lon="4.29666">
        <ele>495.22</ele>
        <time>2021-08-12T16:19:40Z</time>
      </trkpt>
      <trkpt lat="46.89665" lon="4.29661">
        <ele>494.74</ele>
        <time>2021-08-12T16:19:45Z</time>
      </trkpt>
      <trkpt lat="46.89667" lon="4.29661">
        <ele>494.74</ele>
        <time>2021-08-12T16:19:59Z</time>
      </trkpt>
      <trkpt lat="46.89664" lon="4.29657">
        <ele>494.26</ele>
        <time>2021-08-12T16:20:05Z</time>
      </trkpt>
      <trkpt lat="46.89659" lon="4.2965">
        <ele>493.77</ele>
        <time>2021-08-12T16:20:09Z</time>
      </trkpt>
      <trkpt lat="46.89653" lon="4.2964">
        <ele>492.33</ele>
        <time>2021-08-12T16:20:15Z</time>
      </trkpt>
      <trkpt lat="46.89646" lon="4.29626">
        <ele>489.93</ele>
        <time>2021-08-12T16:20:21Z</time>
      </trkpt>
      <trkpt lat="46.89645" lon="4.29621">
        <ele>489.45</ele>
        <time>2021-08-12T16:20:29Z</time>
      </trkpt>
      <trkpt lat="46.8964" lon="4.29611">
        <ele>488.97</ele>
        <time>2021-08-12T16:20:34Z</time>
      </trkpt>
      <trkpt lat="46.89639" lon="4.29609">
        <ele>488.97</ele>
        <time>2021-08-12T16:20:35Z</time>
      </trkpt>
      <trkpt lat="46.89632" lon="4.29605">
        <ele>488.49</ele>
        <time>2021-08-12T16:20:39Z</time>
      </trkpt>
      <trkpt lat="46.89628" lon="4.29607">
        <ele>488.49</ele>
        <time>2021-08-12T16:20:44Z</time>
      </trkpt>
      <trkpt lat="46.89624" lon="4.29614">
        <ele>488.49</ele>
        <time>2021-08-12T16:20:48Z</time>
      </trkpt>
      <trkpt lat="46.89622" lon="4.29634">
        <ele>488.49</ele>
        <time>2021-08-12T16:20:55Z</time>
      </trkpt>
      <trkpt lat="46.8962" lon="4.29656">
        <ele>488.49</ele>
        <time>2021-08-12T16:21:02Z</time>
      </trkpt>
      <trkpt lat="46.89618" lon="4.29668">
        <ele>488.49</ele>
        <time>2021-08-12T16:21:05Z</time>
      </trkpt>
      <trkpt lat="46.89617" lon="4.29672">
        <ele>488.49</ele>
        <time>2021-08-12T16:21:06Z</time>
      </trkpt>
      <trkpt lat="46.89617" lon="4.29676">
        <ele>488.49</ele>
        <time>2021-08-12T16:21:07Z</time>
      </trkpt>
      <trkpt lat="46.89613" lon="4.29698">
        <ele>488.49</ele>
        <time>2021-08-12T16:21:14Z</time>
      </trkpt>
      <trkpt lat="46.89612" lon="4.2971">
        <ele>489.93</ele>
        <time>2021-08-12T16:21:18Z</time>
      </trkpt>
      <trkpt lat="46.89613" lon="4.29713">
        <ele>489.93</ele>
        <time>2021-08-12T16:21:19Z</time>
      </trkpt>
      <trkpt lat="46.89614" lon="4.29715">
        <ele>489.93</ele>
        <time>2021-08-12T16:21:20Z</time>
      </trkpt>
      <trkpt lat="46.89614" lon="4.29718">
        <ele>489.93</ele>
        <time>2021-08-12T16:21:21Z</time>
      </trkpt>
      <trkpt lat="46.89614" lon="4.29721">
        <ele>489.93</ele>
        <time>2021-08-12T16:21:22Z</time>
      </trkpt>
      <trkpt lat="46.89613" lon="4.29724">
        <ele>490.41</ele>
        <time>2021-08-12T16:21:23Z</time>
      </trkpt>
      <trkpt lat="46.89612" lon="4.29726">
        <ele>490.41</ele>
        <time>2021-08-12T16:21:24Z</time>
      </trkpt>
      <trkpt lat="46.89607" lon="4.29739">
        <ele>490.89</ele>
        <time>2021-08-12T16:21:31Z</time>
      </trkpt>
      <trkpt lat="46.89605" lon="4.29753">
        <ele>491.85</ele>
        <time>2021-08-12T16:21:39Z</time>
      </trkpt>
      <trkpt lat="46.89604" lon="4.29764">
        <ele>492.33</ele>
        <time>2021-08-12T16:21:46Z</time>
      </trkpt>
      <trkpt lat="46.8959" lon="4.29786">
        <ele>492.81</ele>
        <time>2021-08-12T16:21:54Z</time>
      </trkpt>
      <trkpt lat="46.8958" lon="4.29798">
        <ele>493.77</ele>
        <time>2021-08-12T16:22:02Z</time>
      </trkpt>
      <trkpt lat="46.89568" lon="4.29807">
        <ele>493.77</ele>
        <time>2021-08-12T16:22:08Z</time>
      </trkpt>
      <trkpt lat="46.89558" lon="4.2982">
        <ele>495.22</ele>
        <time>2021-08-12T16:22:15Z</time>
      </trkpt>
      <trkpt lat="46.89538" lon="4.29829">
        <ele>495.7</ele>
        <time>2021-08-12T16:22:22Z</time>
      </trkpt>
      <trkpt lat="46.89534" lon="4.29822">
        <ele>495.7</ele>
        <time>2021-08-12T16:22:29Z</time>
      </trkpt>
      <trkpt lat="46.89532" lon="4.2982">
        <ele>496.18</ele>
        <time>2021-08-12T16:22:31Z</time>
      </trkpt>
      <trkpt lat="46.89531" lon="4.29808">
        <ele>497.14</ele>
        <time>2021-08-12T16:22:40Z</time>
      </trkpt>
      <trkpt lat="46.89533" lon="4.29795">
        <ele>498.58</ele>
        <time>2021-08-12T16:22:48Z</time>
      </trkpt>
      <trkpt lat="46.89533" lon="4.29793">
        <ele>498.58</ele>
        <time>2021-08-12T16:22:49Z</time>
      </trkpt>
      <trkpt lat="46.89535" lon="4.29784">
        <ele>499.06</ele>
        <time>2021-08-12T16:22:55Z</time>
      </trkpt>
      <trkpt lat="46.89536" lon="4.29773">
        <ele>500.5</ele>
        <time>2021-08-12T16:23:03Z</time>
      </trkpt>
      <trkpt lat="46.89536" lon="4.29767">
        <ele>500.5</ele>
        <time>2021-08-12T16:23:06Z</time>
      </trkpt>
      <trkpt lat="46.89537" lon="4.29755">
        <ele>500.98</ele>
        <time>2021-08-12T16:23:13Z</time>
      </trkpt>
      <trkpt lat="46.89538" lon="4.29753">
        <ele>500.98</ele>
        <time>2021-08-12T16:23:14Z</time>
      </trkpt>
      <trkpt lat="46.89538" lon="4.2975">
        <ele>500.98</ele>
        <time>2021-08-12T16:23:15Z</time>
      </trkpt>
      <trkpt lat="46.89538" lon="4.29736">
        <ele>501.95</ele>
        <time>2021-08-12T16:23:22Z</time>
      </trkpt>
      <trkpt lat="46.89537" lon="4.29723">
        <ele>502.43</ele>
        <time>2021-08-12T16:23:29Z</time>
      </trkpt>
      <trkpt lat="46.89533" lon="4.29713">
        <ele>503.87</ele>
        <time>2021-08-12T16:23:36Z</time>
      </trkpt>
      <trkpt lat="46.89528" lon="4.29707">
        <ele>504.83</ele>
        <time>2021-08-12T16:23:43Z</time>
      </trkpt>
      <trkpt lat="46.89522" lon="4.29706">
        <ele>505.79</ele>
        <time>2021-08-12T16:23:51Z</time>
      </trkpt>
      <trkpt lat="46.89517" lon="4.2971">
        <ele>506.75</ele>
        <time>2021-08-12T16:24:00Z</time>
      </trkpt>
      <trkpt lat="46.89512" lon="4.29716">
        <ele>507.71</ele>
        <time>2021-08-12T16:24:08Z</time>
      </trkpt>
      <trkpt lat="46.89501" lon="4.29725">
        <ele>509.16</ele>
        <time>2021-08-12T16:24:16Z</time>
      </trkpt>
      <trkpt lat="46.89492" lon="4.29732">
        <ele>509.64</ele>
        <time>2021-08-12T16:24:22Z</time>
      </trkpt>
      <trkpt lat="46.89484" lon="4.29737">
        <ele>510.6</ele>
        <time>2021-08-12T16:24:28Z</time>
      </trkpt>
      <trkpt lat="46.89476" lon="4.29742">
        <ele>511.08</ele>
        <time>2021-08-12T16:24:35Z</time>
      </trkpt>
      <trkpt lat="46.89467" lon="4.29747">
        <ele>511.56</ele>
        <time>2021-08-12T16:24:42Z</time>
      </trkpt>
      <trkpt lat="46.89457" lon="4.29753">
        <ele>512.04</ele>
        <time>2021-08-12T16:24:49Z</time>
      </trkpt>
      <trkpt lat="46.89446" lon="4.29759">
        <ele>513</ele>
        <time>2021-08-12T16:24:58Z</time>
      </trkpt>
      <trkpt lat="46.89433" lon="4.29765">
        <ele>513.48</ele>
        <time>2021-08-12T16:25:05Z</time>
      </trkpt>
      <trkpt lat="46.89431" lon="4.29766">
        <ele>513.96</ele>
        <time>2021-08-12T16:25:06Z</time>
      </trkpt>
      <trkpt lat="46.89427" lon="4.29769">
        <ele>513.96</ele>
        <time>2021-08-12T16:25:08Z</time>
      </trkpt>
      <trkpt lat="46.89425" lon="4.2977">
        <ele>514.44</ele>
        <time>2021-08-12T16:25:09Z</time>
      </trkpt>
      <trkpt lat="46.89413" lon="4.29781">
        <ele>514.92</ele>
        <time>2021-08-12T16:25:17Z</time>
      </trkpt>
      <trkpt lat="46.89399" lon="4.29787">
        <ele>515.88</ele>
        <time>2021-08-12T16:25:26Z</time>
      </trkpt>
      <trkpt lat="46.89396" lon="4.29789">
        <ele>516.37</ele>
        <time>2021-08-12T16:25:28Z</time>
      </trkpt>
      <trkpt lat="46.89379" lon="4.29794">
        <ele>516.85</ele>
        <time>2021-08-12T16:25:37Z</time>
      </trkpt>
      <trkpt lat="46.89373" lon="4.29797">
        <ele>517.33</ele>
        <time>2021-08-12T16:25:41Z</time>
      </trkpt>
      <trkpt lat="46.89365" lon="4.29803">
        <ele>518.77</ele>
        <time>2021-08-12T16:25:47Z</time>
      </trkpt>
      <trkpt lat="46.89354" lon="4.29808">
        <ele>519.25</ele>
        <time>2021-08-12T16:25:54Z</time>
      </trkpt>
      <trkpt lat="46.89347" lon="4.29812">
        <ele>519.73</ele>
        <time>2021-08-12T16:25:58Z</time>
      </trkpt>
      <trkpt lat="46.89345" lon="4.29813">
        <ele>520.21</ele>
        <time>2021-08-12T16:25:59Z</time>
      </trkpt>
      <trkpt lat="46.89334" lon="4.29821">
        <ele>521.17</ele>
        <time>2021-08-12T16:26:07Z</time>
      </trkpt>
      <trkpt lat="46.8932" lon="4.29824">
        <ele>521.65</ele>
        <time>2021-08-12T16:26:15Z</time>
      </trkpt>
      <trkpt lat="46.89307" lon="4.29831">
        <ele>522.61</ele>
        <time>2021-08-12T16:26:22Z</time>
      </trkpt>
      <trkpt lat="46.89298" lon="4.29839">
        <ele>523.09</ele>
        <time>2021-08-12T16:26:28Z</time>
      </trkpt>
      <trkpt lat="46.89296" lon="4.29839">
        <ele>523.09</ele>
        <time>2021-08-12T16:26:29Z</time>
      </trkpt>
      <trkpt lat="46.89295" lon="4.2984">
        <ele>523.09</ele>
        <time>2021-08-12T16:26:30Z</time>
      </trkpt>
      <trkpt lat="46.89294" lon="4.2984">
        <ele>523.09</ele>
        <time>2021-08-12T16:26:31Z</time>
      </trkpt>
      <trkpt lat="46.89293" lon="4.29839">
        <ele>523.58</ele>
        <time>2021-08-12T16:26:32Z</time>
      </trkpt>
      <trkpt lat="46.89291" lon="4.29839">
        <ele>523.58</ele>
        <time>2021-08-12T16:26:33Z</time>
      </trkpt>
      <trkpt lat="46.8929" lon="4.29838">
        <ele>523.58</ele>
        <time>2021-08-12T16:26:34Z</time>
      </trkpt>
      <trkpt lat="46.89289" lon="4.29836">
        <ele>524.54</ele>
        <time>2021-08-12T16:26:35Z</time>
      </trkpt>
      <trkpt lat="46.89288" lon="4.29835">
        <ele>524.54</ele>
        <time>2021-08-12T16:26:36Z</time>
      </trkpt>
      <trkpt lat="46.89287" lon="4.29834">
        <ele>524.54</ele>
        <time>2021-08-12T16:26:37Z</time>
      </trkpt>
      <trkpt lat="46.89285" lon="4.29833">
        <ele>524.54</ele>
        <time>2021-08-12T16:26:38Z</time>
      </trkpt>
      <trkpt lat="46.89284" lon="4.29831">
        <ele>524.54</ele>
        <time>2021-08-12T16:26:39Z</time>
      </trkpt>
      <trkpt lat="46.89284" lon="4.2983">
        <ele>524.54</ele>
        <time>2021-08-12T16:26:40Z</time>
      </trkpt>
      <trkpt lat="46.89279" lon="4.29821">
        <ele>525.02</ele>
        <time>2021-08-12T16:26:45Z</time>
      </trkpt>
      <trkpt lat="46.89277" lon="4.29819">
        <ele>525.02</ele>
        <time>2021-08-12T16:26:46Z</time>
      </trkpt>
      <trkpt lat="46.89276" lon="4.29816">
        <ele>525.02</ele>
        <time>2021-08-12T16:26:47Z</time>
      </trkpt>
      <trkpt lat="46.89275" lon="4.29813">
        <ele>525.02</ele>
        <time>2021-08-12T16:26:48Z</time>
      </trkpt>
      <trkpt lat="46.89274" lon="4.29809">
        <ele>525.02</ele>
        <time>2021-08-12T16:26:49Z</time>
      </trkpt>
      <trkpt lat="46.89268" lon="4.29778">
        <ele>523.58</ele>
        <time>2021-08-12T16:26:56Z</time>
      </trkpt>
      <trkpt lat="46.89264" lon="4.29755">
        <ele>522.61</ele>
        <time>2021-08-12T16:27:00Z</time>
      </trkpt>
      <trkpt lat="46.89264" lon="4.29747">
        <ele>522.13</ele>
        <time>2021-08-12T16:27:01Z</time>
      </trkpt>
      <trkpt lat="46.89264" lon="4.29741">
        <ele>522.13</ele>
        <time>2021-08-12T16:27:02Z</time>
      </trkpt>
      <trkpt lat="46.89268" lon="4.29709">
        <ele>521.65</ele>
        <time>2021-08-12T16:27:08Z</time>
      </trkpt>
      <trkpt lat="46.8927" lon="4.29696">
        <ele>523.58</ele>
        <time>2021-08-12T16:27:11Z</time>
      </trkpt>
      <trkpt lat="46.89274" lon="4.29671">
        <ele>525.02</ele>
        <time>2021-08-12T16:27:18Z</time>
      </trkpt>
      <trkpt lat="46.89274" lon="4.29655">
        <ele>526.94</ele>
        <time>2021-08-12T16:27:25Z</time>
      </trkpt>
      <trkpt lat="46.89274" lon="4.29652">
        <ele>527.42</ele>
        <time>2021-08-12T16:27:27Z</time>
      </trkpt>
      <trkpt lat="46.89277" lon="4.29634">
        <ele>528.38</ele>
        <time>2021-08-12T16:27:34Z</time>
      </trkpt>
      <trkpt lat="46.89278" lon="4.29629">
        <ele>529.82</ele>
        <time>2021-08-12T16:27:40Z</time>
      </trkpt>
      <trkpt lat="46.89282" lon="4.29624">
        <ele>529.82</ele>
        <time>2021-08-12T16:27:48Z</time>
      </trkpt>
      <trkpt lat="46.89285" lon="4.29619">
        <ele>530.79</ele>
        <time>2021-08-12T16:27:55Z</time>
      </trkpt>
      <trkpt lat="46.89288" lon="4.29612">
        <ele>532.23</ele>
        <time>2021-08-12T16:28:03Z</time>
      </trkpt>
      <trkpt lat="46.89292" lon="4.29601">
        <ele>533.67</ele>
        <time>2021-08-12T16:28:12Z</time>
      </trkpt>
      <trkpt lat="46.89295" lon="4.29593">
        <ele>534.63</ele>
        <time>2021-08-12T16:28:21Z</time>
      </trkpt>
      <trkpt lat="46.89296" lon="4.29584">
        <ele>535.59</ele>
        <time>2021-08-12T16:28:29Z</time>
      </trkpt>
      <trkpt lat="46.89299" lon="4.29575">
        <ele>537.03</ele>
        <time>2021-08-12T16:28:37Z</time>
      </trkpt>
      <trkpt lat="46.893" lon="4.29561">
        <ele>538.48</ele>
        <time>2021-08-12T16:28:46Z</time>
      </trkpt>
      <trkpt lat="46.89299" lon="4.2955">
        <ele>539.92</ele>
        <time>2021-08-12T16:28:55Z</time>
      </trkpt>
      <trkpt lat="46.89296" lon="4.29538">
        <ele>540.4</ele>
        <time>2021-08-12T16:29:04Z</time>
      </trkpt>
      <trkpt lat="46.89293" lon="4.29529">
        <ele>541.84</ele>
        <time>2021-08-12T16:29:13Z</time>
      </trkpt>
      <trkpt lat="46.89289" lon="4.29523">
        <ele>542.8</ele>
        <time>2021-08-12T16:29:22Z</time>
      </trkpt>
      <trkpt lat="46.89284" lon="4.29515">
        <ele>543.76</ele>
        <time>2021-08-12T16:29:30Z</time>
      </trkpt>
      <trkpt lat="46.89279" lon="4.29506">
        <ele>544.24</ele>
        <time>2021-08-12T16:29:38Z</time>
      </trkpt>
      <trkpt lat="46.89273" lon="4.295">
        <ele>545.69</ele>
        <time>2021-08-12T16:29:46Z</time>
      </trkpt>
      <trkpt lat="46.89268" lon="4.29494">
        <ele>546.17</ele>
        <time>2021-08-12T16:29:55Z</time>
      </trkpt>
      <trkpt lat="46.89262" lon="4.29487">
        <ele>547.61</ele>
        <time>2021-08-12T16:30:04Z</time>
      </trkpt>
      <trkpt lat="46.89257" lon="4.29481">
        <ele>548.57</ele>
        <time>2021-08-12T16:30:12Z</time>
      </trkpt>
      <trkpt lat="46.89254" lon="4.29472">
        <ele>550.01</ele>
        <time>2021-08-12T16:30:20Z</time>
      </trkpt>
      <trkpt lat="46.89253" lon="4.29466">
        <ele>550.97</ele>
        <time>2021-08-12T16:30:29Z</time>
      </trkpt>
      <trkpt lat="46.89254" lon="4.29459">
        <ele>551.93</ele>
        <time>2021-08-12T16:30:37Z</time>
      </trkpt>
      <trkpt lat="46.89256" lon="4.29446">
        <ele>552.9</ele>
        <time>2021-08-12T16:30:48Z</time>
      </trkpt>
      <trkpt lat="46.89257" lon="4.29439">
        <ele>553.38</ele>
        <time>2021-08-12T16:30:55Z</time>
      </trkpt>
      <trkpt lat="46.89258" lon="4.29434">
        <ele>553.86</ele>
        <time>2021-08-12T16:31:01Z</time>
      </trkpt>
      <trkpt lat="46.89258" lon="4.29427">
        <ele>554.34</ele>
        <time>2021-08-12T16:31:05Z</time>
      </trkpt>
      <trkpt lat="46.89259" lon="4.29413">
        <ele>555.3</ele>
        <time>2021-08-12T16:31:14Z</time>
      </trkpt>
      <trkpt lat="46.89258" lon="4.29403">
        <ele>555.3</ele>
        <time>2021-08-12T16:31:23Z</time>
      </trkpt>
      <trkpt lat="46.8926" lon="4.29396">
        <ele>555.3</ele>
        <time>2021-08-12T16:31:27Z</time>
      </trkpt>
      <trkpt lat="46.8926" lon="4.29394">
        <ele>555.3</ele>
        <time>2021-08-12T16:31:28Z</time>
      </trkpt>
      <trkpt lat="46.89266" lon="4.29377">
        <ele>556.26</ele>
        <time>2021-08-12T16:31:37Z</time>
      </trkpt>
      <trkpt lat="46.8927" lon="4.29359">
        <ele>557.7</ele>
        <time>2021-08-12T16:31:46Z</time>
      </trkpt>
      <trkpt lat="46.89272" lon="4.29354">
        <ele>558.18</ele>
        <time>2021-08-12T16:31:49Z</time>
      </trkpt>
      <trkpt lat="46.89272" lon="4.29351">
        <ele>558.18</ele>
        <time>2021-08-12T16:31:50Z</time>
      </trkpt>
      <trkpt lat="46.89274" lon="4.29335">
        <ele>559.14</ele>
        <time>2021-08-12T16:31:58Z</time>
      </trkpt>
      <trkpt lat="46.89277" lon="4.2932">
        <ele>560.11</ele>
        <time>2021-08-12T16:32:05Z</time>
      </trkpt>
      <trkpt lat="46.89278" lon="4.29311">
        <ele>560.59</ele>
        <time>2021-08-12T16:32:11Z</time>
      </trkpt>
      <trkpt lat="46.89281" lon="4.2929">
        <ele>562.03</ele>
        <time>2021-08-12T16:32:18Z</time>
      </trkpt>
      <trkpt lat="46.8928" lon="4.29279">
        <ele>562.99</ele>
        <time>2021-08-12T16:32:25Z</time>
      </trkpt>
      <trkpt lat="46.8928" lon="4.29267">
        <ele>563.95</ele>
        <time>2021-08-12T16:32:31Z</time>
      </trkpt>
      <trkpt lat="46.89278" lon="4.29255">
        <ele>564.91</ele>
        <time>2021-08-12T16:32:37Z</time>
      </trkpt>
      <trkpt lat="46.89275" lon="4.29232">
        <ele>565.39</ele>
        <time>2021-08-12T16:32:46Z</time>
      </trkpt>
      <trkpt lat="46.89274" lon="4.29228">
        <ele>565.39</ele>
        <time>2021-08-12T16:32:48Z</time>
      </trkpt>
      <trkpt lat="46.89273" lon="4.29225">
        <ele>565.39</ele>
        <time>2021-08-12T16:32:49Z</time>
      </trkpt>
      <trkpt lat="46.89273" lon="4.29222">
        <ele>565.39</ele>
        <time>2021-08-12T16:32:50Z</time>
      </trkpt>
      <trkpt lat="46.89268" lon="4.29212">
        <ele>565.87</ele>
        <time>2021-08-12T16:32:55Z</time>
      </trkpt>
      <trkpt lat="46.89266" lon="4.29209">
        <ele>565.87</ele>
        <time>2021-08-12T16:32:56Z</time>
      </trkpt>
      <trkpt lat="46.89265" lon="4.29207">
        <ele>566.35</ele>
        <time>2021-08-12T16:32:57Z</time>
      </trkpt>
      <trkpt lat="46.89264" lon="4.29205">
        <ele>566.35</ele>
        <time>2021-08-12T16:32:58Z</time>
      </trkpt>
      <trkpt lat="46.89263" lon="4.29204">
        <ele>566.35</ele>
        <time>2021-08-12T16:32:59Z</time>
      </trkpt>
      <trkpt lat="46.89262" lon="4.29203">
        <ele>566.35</ele>
        <time>2021-08-12T16:33:00Z</time>
      </trkpt>
      <trkpt lat="46.8926" lon="4.29201">
        <ele>566.35</ele>
        <time>2021-08-12T16:33:01Z</time>
      </trkpt>
      <trkpt lat="46.89259" lon="4.29199">
        <ele>566.35</ele>
        <time>2021-08-12T16:33:02Z</time>
      </trkpt>
      <trkpt lat="46.89247" lon="4.29185">
        <ele>566.83</ele>
        <time>2021-08-12T16:33:09Z</time>
      </trkpt>
      <trkpt lat="46.89234" lon="4.29173">
        <ele>566.83</ele>
        <time>2021-08-12T16:33:17Z</time>
      </trkpt>
      <trkpt lat="46.89219" lon="4.2915">
        <ele>565.39</ele>
        <time>2021-08-12T16:33:24Z</time>
      </trkpt>
      <trkpt lat="46.89216" lon="4.29144">
        <ele>565.39</ele>
        <time>2021-08-12T16:33:25Z</time>
      </trkpt>
      <trkpt lat="46.89199" lon="4.29115">
        <ele>565.39</ele>
        <time>2021-08-12T16:33:31Z</time>
      </trkpt>
      <trkpt lat="46.89186" lon="4.29114">
        <ele>566.83</ele>
        <time>2021-08-12T16:33:37Z</time>
      </trkpt>
      <trkpt lat="46.89184" lon="4.29115">
        <ele>566.83</ele>
        <time>2021-08-12T16:33:38Z</time>
      </trkpt>
      <trkpt lat="46.89171" lon="4.29119">
        <ele>568.28</ele>
        <time>2021-08-12T16:33:46Z</time>
      </trkpt>
      <trkpt lat="46.89162" lon="4.29111">
        <ele>569.24</ele>
        <time>2021-08-12T16:33:52Z</time>
      </trkpt>
      <trkpt lat="46.89158" lon="4.29097">
        <ele>569.72</ele>
        <time>2021-08-12T16:33:59Z</time>
      </trkpt>
      <trkpt lat="46.89159" lon="4.2908">
        <ele>571.16</ele>
        <time>2021-08-12T16:34:07Z</time>
      </trkpt>
      <trkpt lat="46.89164" lon="4.29072">
        <ele>571.16</ele>
        <time>2021-08-12T16:34:13Z</time>
      </trkpt>
      <trkpt lat="46.89173" lon="4.29061">
        <ele>571.16</ele>
        <time>2021-08-12T16:34:19Z</time>
      </trkpt>
      <trkpt lat="46.89188" lon="4.29042">
        <ele>571.16</ele>
        <time>2021-08-12T16:34:28Z</time>
      </trkpt>
      <trkpt lat="46.892" lon="4.29029">
        <ele>572.12</ele>
        <time>2021-08-12T16:34:34Z</time>
      </trkpt>
      <trkpt lat="46.89211" lon="4.2901">
        <ele>572.12</ele>
        <time>2021-08-12T16:34:39Z</time>
      </trkpt>
      <trkpt lat="46.89214" lon="4.29008">
        <ele>572.12</ele>
        <time>2021-08-12T16:34:40Z</time>
      </trkpt>
      <trkpt lat="46.89227" lon="4.28991">
        <ele>573.56</ele>
        <time>2021-08-12T16:34:48Z</time>
      </trkpt>
      <trkpt lat="46.89238" lon="4.28974">
        <ele>575.49</ele>
        <time>2021-08-12T16:34:56Z</time>
      </trkpt>
      <trkpt lat="46.89238" lon="4.28972">
        <ele>575.49</ele>
        <time>2021-08-12T16:34:57Z</time>
      </trkpt>
      <trkpt lat="46.89239" lon="4.2897">
        <ele>575.49</ele>
        <time>2021-08-12T16:34:58Z</time>
      </trkpt>
      <trkpt lat="46.8924" lon="4.28968">
        <ele>575.49</ele>
        <time>2021-08-12T16:34:59Z</time>
      </trkpt>
      <trkpt lat="46.8924" lon="4.28965">
        <ele>575.49</ele>
        <time>2021-08-12T16:35:00Z</time>
      </trkpt>
      <trkpt lat="46.89241" lon="4.28963">
        <ele>575.97</ele>
        <time>2021-08-12T16:35:01Z</time>
      </trkpt>
      <trkpt lat="46.89242" lon="4.28961">
        <ele>575.97</ele>
        <time>2021-08-12T16:35:02Z</time>
      </trkpt>
      <trkpt lat="46.8925" lon="4.28938">
        <ele>576.45</ele>
        <time>2021-08-12T16:35:11Z</time>
      </trkpt>
      <trkpt lat="46.89259" lon="4.28917">
        <ele>576.93</ele>
        <time>2021-08-12T16:35:18Z</time>
      </trkpt>
      <trkpt lat="46.89267" lon="4.28895">
        <ele>577.89</ele>
        <time>2021-08-12T16:35:27Z</time>
      </trkpt>
      <trkpt lat="46.89273" lon="4.2888">
        <ele>578.37</ele>
        <time>2021-08-12T16:35:34Z</time>
      </trkpt>
      <trkpt lat="46.89281" lon="4.28862">
        <ele>579.81</ele>
        <time>2021-08-12T16:35:44Z</time>
      </trkpt>
      <trkpt lat="46.89285" lon="4.28851">
        <ele>581.25</ele>
        <time>2021-08-12T16:35:48Z</time>
      </trkpt>
      <trkpt lat="46.89286" lon="4.28849">
        <ele>581.25</ele>
        <time>2021-08-12T16:35:49Z</time>
      </trkpt>
      <trkpt lat="46.89287" lon="4.28846">
        <ele>581.25</ele>
        <time>2021-08-12T16:35:50Z</time>
      </trkpt>
      <trkpt lat="46.89292" lon="4.28833">
        <ele>583.18</ele>
        <time>2021-08-12T16:35:56Z</time>
      </trkpt>
      <trkpt lat="46.89295" lon="4.28826">
        <ele>583.66</ele>
        <time>2021-08-12T16:35:59Z</time>
      </trkpt>
      <trkpt lat="46.89297" lon="4.28824">
        <ele>584.14</ele>
        <time>2021-08-12T16:36:00Z</time>
      </trkpt>
      <trkpt lat="46.89298" lon="4.28821">
        <ele>584.14</ele>
        <time>2021-08-12T16:36:01Z</time>
      </trkpt>
      <trkpt lat="46.89299" lon="4.28819">
        <ele>584.14</ele>
        <time>2021-08-12T16:36:02Z</time>
      </trkpt>
      <trkpt lat="46.89304" lon="4.28807">
        <ele>585.58</ele>
        <time>2021-08-12T16:36:08Z</time>
      </trkpt>
      <trkpt lat="46.89307" lon="4.28798">
        <ele>586.06</ele>
        <time>2021-08-12T16:36:12Z</time>
      </trkpt>
      <trkpt lat="46.89307" lon="4.28796">
        <ele>586.06</ele>
        <time>2021-08-12T16:36:13Z</time>
      </trkpt>
      <trkpt lat="46.89311" lon="4.28778">
        <ele>586.54</ele>
        <time>2021-08-12T16:36:21Z</time>
      </trkpt>
      <trkpt lat="46.89314" lon="4.28761">
        <ele>587.02</ele>
        <time>2021-08-12T16:36:27Z</time>
      </trkpt>
      <trkpt lat="46.89318" lon="4.28742">
        <ele>587.5</ele>
        <time>2021-08-12T16:36:35Z</time>
      </trkpt>
      <trkpt lat="46.89325" lon="4.28718">
        <ele>588.95</ele>
        <time>2021-08-12T16:36:44Z</time>
      </trkpt>
      <trkpt lat="46.89326" lon="4.28716">
        <ele>588.95</ele>
        <time>2021-08-12T16:36:45Z</time>
      </trkpt>
      <trkpt lat="46.89327" lon="4.28714">
        <ele>588.95</ele>
        <time>2021-08-12T16:36:46Z</time>
      </trkpt>
      <trkpt lat="46.89329" lon="4.28712">
        <ele>588.95</ele>
        <time>2021-08-12T16:36:47Z</time>
      </trkpt>
      <trkpt lat="46.89331" lon="4.2871">
        <ele>589.43</ele>
        <time>2021-08-12T16:36:48Z</time>
      </trkpt>
      <trkpt lat="46.89332" lon="4.28708">
        <ele>589.43</ele>
        <time>2021-08-12T16:36:49Z</time>
      </trkpt>
      <trkpt lat="46.89334" lon="4.28706">
        <ele>589.43</ele>
        <time>2021-08-12T16:36:50Z</time>
      </trkpt>
      <trkpt lat="46.89336" lon="4.28703">
        <ele>589.43</ele>
        <time>2021-08-12T16:36:51Z</time>
      </trkpt>
      <trkpt lat="46.89338" lon="4.287">
        <ele>589.43</ele>
        <time>2021-08-12T16:36:52Z</time>
      </trkpt>
      <trkpt lat="46.8934" lon="4.28697">
        <ele>589.43</ele>
        <time>2021-08-12T16:36:53Z</time>
      </trkpt>
      <trkpt lat="46.89342" lon="4.28694">
        <ele>589.43</ele>
        <time>2021-08-12T16:36:54Z</time>
      </trkpt>
      <trkpt lat="46.89345" lon="4.28691">
        <ele>589.43</ele>
        <time>2021-08-12T16:36:55Z</time>
      </trkpt>
      <trkpt lat="46.89347" lon="4.28689">
        <ele>589.43</ele>
        <time>2021-08-12T16:36:56Z</time>
      </trkpt>
      <trkpt lat="46.89367" lon="4.28672">
        <ele>589.43</ele>
        <time>2021-08-12T16:37:04Z</time>
      </trkpt>
      <trkpt lat="46.89374" lon="4.28668">
        <ele>589.43</ele>
        <time>2021-08-12T16:37:07Z</time>
      </trkpt>
      <trkpt lat="46.89379" lon="4.28647">
        <ele>589.91</ele>
        <time>2021-08-12T16:37:13Z</time>
      </trkpt>
      <trkpt lat="46.89379" lon="4.28625">
        <ele>589.91</ele>
        <time>2021-08-12T16:37:19Z</time>
      </trkpt>
      <trkpt lat="46.89378" lon="4.28603">
        <ele>590.87</ele>
        <time>2021-08-12T16:37:25Z</time>
      </trkpt>
      <trkpt lat="46.89377" lon="4.28583">
        <ele>591.35</ele>
        <time>2021-08-12T16:37:32Z</time>
      </trkpt>
      <trkpt lat="46.89378" lon="4.28565">
        <ele>589.91</ele>
        <time>2021-08-12T16:37:36Z</time>
      </trkpt>
      <trkpt lat="46.8938" lon="4.28535">
        <ele>589.43</ele>
        <time>2021-08-12T16:37:42Z</time>
      </trkpt>
      <trkpt lat="46.89381" lon="4.28505">
        <ele>589.43</ele>
        <time>2021-08-12T16:37:48Z</time>
      </trkpt>
      <trkpt lat="46.8938" lon="4.2848">
        <ele>590.87</ele>
        <time>2021-08-12T16:37:54Z</time>
      </trkpt>
      <trkpt lat="46.89379" lon="4.28465">
        <ele>592.31</ele>
        <time>2021-08-12T16:37:59Z</time>
      </trkpt>
      <trkpt lat="46.89378" lon="4.28444">
        <ele>593.75</ele>
        <time>2021-08-12T16:38:05Z</time>
      </trkpt>
      <trkpt lat="46.89378" lon="4.28429">
        <ele>594.23</ele>
        <time>2021-08-12T16:38:10Z</time>
      </trkpt>
      <trkpt lat="46.89377" lon="4.28411">
        <ele>594.71</ele>
        <time>2021-08-12T16:38:16Z</time>
      </trkpt>
      <trkpt lat="46.89377" lon="4.28388">
        <ele>594.71</ele>
        <time>2021-08-12T16:38:21Z</time>
      </trkpt>
      <trkpt lat="46.8937" lon="4.28359">
        <ele>594.71</ele>
        <time>2021-08-12T16:38:28Z</time>
      </trkpt>
      <trkpt lat="46.89361" lon="4.28336">
        <ele>594.71</ele>
        <time>2021-08-12T16:38:35Z</time>
      </trkpt>
      <trkpt lat="46.89352" lon="4.28323">
        <ele>594.71</ele>
        <time>2021-08-12T16:38:41Z</time>
      </trkpt>
      <trkpt lat="46.89342" lon="4.28314">
        <ele>596.15</ele>
        <time>2021-08-12T16:38:46Z</time>
      </trkpt>
      <trkpt lat="46.89341" lon="4.28314">
        <ele>596.15</ele>
        <time>2021-08-12T16:38:47Z</time>
      </trkpt>
      <trkpt lat="46.89334" lon="4.28315">
        <ele>597.6</ele>
        <time>2021-08-12T16:38:52Z</time>
      </trkpt>
      <trkpt lat="46.89327" lon="4.2831">
        <ele>598.08</ele>
        <time>2021-08-12T16:38:57Z</time>
      </trkpt>
      <trkpt lat="46.89326" lon="4.28309">
        <ele>598.08</ele>
        <time>2021-08-12T16:38:58Z</time>
      </trkpt>
      <trkpt lat="46.89326" lon="4.28307">
        <ele>598.08</ele>
        <time>2021-08-12T16:38:59Z</time>
      </trkpt>
      <trkpt lat="46.89325" lon="4.28305">
        <ele>598.56</ele>
        <time>2021-08-12T16:39:00Z</time>
      </trkpt>
      <trkpt lat="46.89324" lon="4.28303">
        <ele>598.56</ele>
        <time>2021-08-12T16:39:01Z</time>
      </trkpt>
      <trkpt lat="46.89323" lon="4.28301">
        <ele>598.56</ele>
        <time>2021-08-12T16:39:02Z</time>
      </trkpt>
      <trkpt lat="46.89321" lon="4.28299">
        <ele>598.56</ele>
        <time>2021-08-12T16:39:03Z</time>
      </trkpt>
      <trkpt lat="46.8932" lon="4.28297">
        <ele>598.56</ele>
        <time>2021-08-12T16:39:04Z</time>
      </trkpt>
      <trkpt lat="46.89319" lon="4.28295">
        <ele>598.56</ele>
        <time>2021-08-12T16:39:05Z</time>
      </trkpt>
      <trkpt lat="46.89318" lon="4.28292">
        <ele>599.04</ele>
        <time>2021-08-12T16:39:06Z</time>
      </trkpt>
      <trkpt lat="46.89318" lon="4.2829">
        <ele>599.04</ele>
        <time>2021-08-12T16:39:07Z</time>
      </trkpt>
      <trkpt lat="46.89317" lon="4.28288">
        <ele>599.04</ele>
        <time>2021-08-12T16:39:08Z</time>
      </trkpt>
      <trkpt lat="46.89317" lon="4.28286">
        <ele>599.52</ele>
        <time>2021-08-12T16:39:09Z</time>
      </trkpt>
      <trkpt lat="46.89316" lon="4.28284">
        <ele>600</ele>
        <time>2021-08-12T16:39:10Z</time>
      </trkpt>
      <trkpt lat="46.89315" lon="4.28282">
        <ele>600</ele>
        <time>2021-08-12T16:39:11Z</time>
      </trkpt>
      <trkpt lat="46.89314" lon="4.2828">
        <ele>600</ele>
        <time>2021-08-12T16:39:12Z</time>
      </trkpt>
      <trkpt lat="46.89313" lon="4.28278">
        <ele>600.48</ele>
        <time>2021-08-12T16:39:13Z</time>
      </trkpt>
      <trkpt lat="46.89308" lon="4.28263">
        <ele>600.96</ele>
        <time>2021-08-12T16:39:20Z</time>
      </trkpt>
      <trkpt lat="46.89306" lon="4.28256">
        <ele>601.44</ele>
        <time>2021-08-12T16:39:23Z</time>
      </trkpt>
      <trkpt lat="46.89305" lon="4.28254">
        <ele>601.44</ele>
        <time>2021-08-12T16:39:24Z</time>
      </trkpt>
      <trkpt lat="46.89304" lon="4.28251">
        <ele>601.44</ele>
        <time>2021-08-12T16:39:25Z</time>
      </trkpt>
      <trkpt lat="46.89303" lon="4.28249">
        <ele>601.44</ele>
        <time>2021-08-12T16:39:26Z</time>
      </trkpt>
      <trkpt lat="46.89297" lon="4.28234">
        <ele>601.92</ele>
        <time>2021-08-12T16:39:32Z</time>
      </trkpt>
      <trkpt lat="46.89288" lon="4.28215">
        <ele>601.92</ele>
        <time>2021-08-12T16:39:39Z</time>
      </trkpt>
      <trkpt lat="46.8928" lon="4.28196">
        <ele>602.88</ele>
        <time>2021-08-12T16:39:46Z</time>
      </trkpt>
      <trkpt lat="46.89276" lon="4.2818">
        <ele>602.88</ele>
        <time>2021-08-12T16:39:52Z</time>
      </trkpt>
      <trkpt lat="46.89268" lon="4.28154">
        <ele>603.85</ele>
        <time>2021-08-12T16:40:00Z</time>
      </trkpt>
      <trkpt lat="46.89255" lon="4.28123">
        <ele>604.33</ele>
        <time>2021-08-12T16:40:07Z</time>
      </trkpt>
      <trkpt lat="46.89249" lon="4.28108">
        <ele>602.88</ele>
        <time>2021-08-12T16:40:10Z</time>
      </trkpt>
      <trkpt lat="46.89232" lon="4.28079">
        <ele>603.36</ele>
        <time>2021-08-12T16:40:17Z</time>
      </trkpt>
      <trkpt lat="46.89219" lon="4.28062">
        <ele>603.36</ele>
        <time>2021-08-12T16:40:23Z</time>
      </trkpt>
      <trkpt lat="46.89209" lon="4.28053">
        <ele>604.33</ele>
        <time>2021-08-12T16:40:29Z</time>
      </trkpt>
      <trkpt lat="46.89195" lon="4.28042">
        <ele>605.77</ele>
        <time>2021-08-12T16:40:36Z</time>
      </trkpt>
      <trkpt lat="46.89181" lon="4.28032">
        <ele>607.21</ele>
        <time>2021-08-12T16:40:42Z</time>
      </trkpt>
      <trkpt lat="46.89173" lon="4.28023">
        <ele>608.65</ele>
        <time>2021-08-12T16:40:49Z</time>
      </trkpt>
      <trkpt lat="46.89172" lon="4.28022">
        <ele>608.65</ele>
        <time>2021-08-12T16:40:50Z</time>
      </trkpt>
      <trkpt lat="46.8917" lon="4.2802">
        <ele>608.65</ele>
        <time>2021-08-12T16:40:51Z</time>
      </trkpt>
      <trkpt lat="46.89163" lon="4.28012">
        <ele>610.09</ele>
        <time>2021-08-12T16:40:58Z</time>
      </trkpt>
      <trkpt lat="46.89152" lon="4.28002">
        <ele>611.06</ele>
        <time>2021-08-12T16:41:07Z</time>
      </trkpt>
      <trkpt lat="46.89144" lon="4.27989">
        <ele>612.5</ele>
        <time>2021-08-12T16:41:16Z</time>
      </trkpt>
      <trkpt lat="46.89136" lon="4.27975">
        <ele>613.46</ele>
        <time>2021-08-12T16:41:25Z</time>
      </trkpt>
      <trkpt lat="46.89132" lon="4.27961">
        <ele>614.9</ele>
        <time>2021-08-12T16:41:33Z</time>
      </trkpt>
      <trkpt lat="46.89131" lon="4.27959">
        <ele>614.9</ele>
        <time>2021-08-12T16:41:34Z</time>
      </trkpt>
      <trkpt lat="46.8913" lon="4.27957">
        <ele>614.9</ele>
        <time>2021-08-12T16:41:35Z</time>
      </trkpt>
      <trkpt lat="46.89118" lon="4.27945">
        <ele>615.38</ele>
        <time>2021-08-12T16:41:42Z</time>
      </trkpt>
      <trkpt lat="46.89105" lon="4.27937">
        <ele>615.38</ele>
        <time>2021-08-12T16:41:48Z</time>
      </trkpt>
      <trkpt lat="46.89091" lon="4.27931">
        <ele>615.38</ele>
        <time>2021-08-12T16:41:55Z</time>
      </trkpt>
      <trkpt lat="46.89073" lon="4.27925">
        <ele>615.38</ele>
        <time>2021-08-12T16:42:01Z</time>
      </trkpt>
      <trkpt lat="46.89053" lon="4.27913">
        <ele>615.86</ele>
        <time>2021-08-12T16:42:08Z</time>
      </trkpt>
      <trkpt lat="46.89038" lon="4.27907">
        <ele>615.86</ele>
        <time>2021-08-12T16:42:14Z</time>
      </trkpt>
      <trkpt lat="46.89009" lon="4.27901">
        <ele>615.86</ele>
        <time>2021-08-12T16:42:23Z</time>
      </trkpt>
      <trkpt lat="46.88988" lon="4.27897">
        <ele>615.86</ele>
        <time>2021-08-12T16:42:29Z</time>
      </trkpt>
      <trkpt lat="46.88967" lon="4.27891">
        <ele>614.42</ele>
        <time>2021-08-12T16:42:34Z</time>
      </trkpt>
      <trkpt lat="46.88956" lon="4.27887">
        <ele>613.46</ele>
        <time>2021-08-12T16:42:36Z</time>
      </trkpt>
      <trkpt lat="46.88951" lon="4.27884">
        <ele>613.46</ele>
        <time>2021-08-12T16:42:37Z</time>
      </trkpt>
      <trkpt lat="46.88946" lon="4.2788">
        <ele>613.46</ele>
        <time>2021-08-12T16:42:38Z</time>
      </trkpt>
      <trkpt lat="46.88942" lon="4.27877">
        <ele>613.46</ele>
        <time>2021-08-12T16:42:39Z</time>
      </trkpt>
      <trkpt lat="46.88938" lon="4.27876">
        <ele>613.46</ele>
        <time>2021-08-12T16:42:40Z</time>
      </trkpt>
      <trkpt lat="46.88934" lon="4.27876">
        <ele>613.46</ele>
        <time>2021-08-12T16:42:41Z</time>
      </trkpt>
      <trkpt lat="46.8893" lon="4.27876">
        <ele>613.46</ele>
        <time>2021-08-12T16:42:42Z</time>
      </trkpt>
      <trkpt lat="46.88927" lon="4.27877">
        <ele>613.46</ele>
        <time>2021-08-12T16:42:43Z</time>
      </trkpt>
      <trkpt lat="46.88917" lon="4.27879">
        <ele>612.02</ele>
        <time>2021-08-12T16:42:46Z</time>
      </trkpt>
      <trkpt lat="46.88903" lon="4.27886">
        <ele>610.09</ele>
        <time>2021-08-12T16:42:49Z</time>
      </trkpt>
      <trkpt lat="46.88898" lon="4.27885">
        <ele>609.61</ele>
        <time>2021-08-12T16:42:50Z</time>
      </trkpt>
      <trkpt lat="46.88893" lon="4.27882">
        <ele>608.65</ele>
        <time>2021-08-12T16:42:51Z</time>
      </trkpt>
      <trkpt lat="46.88888" lon="4.27878">
        <ele>607.69</ele>
        <time>2021-08-12T16:42:52Z</time>
      </trkpt>
      <trkpt lat="46.88884" lon="4.27872">
        <ele>607.21</ele>
        <time>2021-08-12T16:42:53Z</time>
      </trkpt>
      <trkpt lat="46.88879" lon="4.27867">
        <ele>607.21</ele>
        <time>2021-08-12T16:42:54Z</time>
      </trkpt>
      <trkpt lat="46.88876" lon="4.27862">
        <ele>606.73</ele>
        <time>2021-08-12T16:42:55Z</time>
      </trkpt>
      <trkpt lat="46.88876" lon="4.27855">
        <ele>606.73</ele>
        <time>2021-08-12T16:42:56Z</time>
      </trkpt>
      <trkpt lat="46.88877" lon="4.27847">
        <ele>606.73</ele>
        <time>2021-08-12T16:42:57Z</time>
      </trkpt>
      <trkpt lat="46.88879" lon="4.27839">
        <ele>606.73</ele>
        <time>2021-08-12T16:42:58Z</time>
      </trkpt>
      <trkpt lat="46.8888" lon="4.27831">
        <ele>606.73</ele>
        <time>2021-08-12T16:42:59Z</time>
      </trkpt>
      <trkpt lat="46.8888" lon="4.27821">
        <ele>604.81</ele>
        <time>2021-08-12T16:43:00Z</time>
      </trkpt>
      <trkpt lat="46.88879" lon="4.27813">
        <ele>604.33</ele>
        <time>2021-08-12T16:43:01Z</time>
      </trkpt>
      <trkpt lat="46.88877" lon="4.27804">
        <ele>603.85</ele>
        <time>2021-08-12T16:43:02Z</time>
      </trkpt>
      <trkpt lat="46.88875" lon="4.27795">
        <ele>602.4</ele>
        <time>2021-08-12T16:43:03Z</time>
      </trkpt>
      <trkpt lat="46.88872" lon="4.27786">
        <ele>601.44</ele>
        <time>2021-08-12T16:43:04Z</time>
      </trkpt>
      <trkpt lat="46.88869" lon="4.27776">
        <ele>600.96</ele>
        <time>2021-08-12T16:43:05Z</time>
      </trkpt>
      <trkpt lat="46.88865" lon="4.27767">
        <ele>600.96</ele>
        <time>2021-08-12T16:43:06Z</time>
      </trkpt>
      <trkpt lat="46.88861" lon="4.27759">
        <ele>600.96</ele>
        <time>2021-08-12T16:43:07Z</time>
      </trkpt>
      <trkpt lat="46.88857" lon="4.27754">
        <ele>600.96</ele>
        <time>2021-08-12T16:43:08Z</time>
      </trkpt>
      <trkpt lat="46.88847" lon="4.2774">
        <ele>603.85</ele>
        <time>2021-08-12T16:43:13Z</time>
      </trkpt>
      <trkpt lat="46.88837" lon="4.27728">
        <ele>606.73</ele>
        <time>2021-08-12T16:43:22Z</time>
      </trkpt>
      <trkpt lat="46.88831" lon="4.27722">
        <ele>607.69</ele>
        <time>2021-08-12T16:43:29Z</time>
      </trkpt>
      <trkpt lat="46.88825" lon="4.27715">
        <ele>609.13</ele>
        <time>2021-08-12T16:43:36Z</time>
      </trkpt>
      <trkpt lat="46.88821" lon="4.27714">
        <ele>609.13</ele>
        <time>2021-08-12T16:43:39Z</time>
      </trkpt>
      <trkpt lat="46.88809" lon="4.2771">
        <ele>608.17</ele>
        <time>2021-08-12T16:43:45Z</time>
      </trkpt>
      <trkpt lat="46.88804" lon="4.27709">
        <ele>607.69</ele>
        <time>2021-08-12T16:43:47Z</time>
      </trkpt>
      <trkpt lat="46.88802" lon="4.27708">
        <ele>607.69</ele>
        <time>2021-08-12T16:43:48Z</time>
      </trkpt>
      <trkpt lat="46.88779" lon="4.27706">
        <ele>604.33</ele>
        <time>2021-08-12T16:43:55Z</time>
      </trkpt>
      <trkpt lat="46.88768" lon="4.27708">
        <ele>603.85</ele>
        <time>2021-08-12T16:43:58Z</time>
      </trkpt>
      <trkpt lat="46.88757" lon="4.27704">
        <ele>601.44</ele>
        <time>2021-08-12T16:44:01Z</time>
      </trkpt>
      <trkpt lat="46.88751" lon="4.277">
        <ele>600.48</ele>
        <time>2021-08-12T16:44:02Z</time>
      </trkpt>
      <trkpt lat="46.88746" lon="4.27696">
        <ele>600.48</ele>
        <time>2021-08-12T16:44:03Z</time>
      </trkpt>
      <trkpt lat="46.8874" lon="4.27692">
        <ele>599.52</ele>
        <time>2021-08-12T16:44:04Z</time>
      </trkpt>
      <trkpt lat="46.88735" lon="4.27687">
        <ele>598.56</ele>
        <time>2021-08-12T16:44:05Z</time>
      </trkpt>
      <trkpt lat="46.8873" lon="4.27683">
        <ele>598.08</ele>
        <time>2021-08-12T16:44:06Z</time>
      </trkpt>
      <trkpt lat="46.88725" lon="4.27678">
        <ele>597.12</ele>
        <time>2021-08-12T16:44:07Z</time>
      </trkpt>
      <trkpt lat="46.88722" lon="4.27675">
        <ele>596.64</ele>
        <time>2021-08-12T16:44:08Z</time>
      </trkpt>
      <trkpt lat="46.88717" lon="4.27672">
        <ele>596.15</ele>
        <time>2021-08-12T16:44:09Z</time>
      </trkpt>
      <trkpt lat="46.88713" lon="4.27671">
        <ele>595.67</ele>
        <time>2021-08-12T16:44:10Z</time>
      </trkpt>
      <trkpt lat="46.88708" lon="4.2767">
        <ele>594.23</ele>
        <time>2021-08-12T16:44:11Z</time>
      </trkpt>
      <trkpt lat="46.88702" lon="4.27668">
        <ele>593.27</ele>
        <time>2021-08-12T16:44:12Z</time>
      </trkpt>
      <trkpt lat="46.88697" lon="4.27664">
        <ele>593.27</ele>
        <time>2021-08-12T16:44:13Z</time>
      </trkpt>
      <trkpt lat="46.88691" lon="4.27659">
        <ele>591.83</ele>
        <time>2021-08-12T16:44:14Z</time>
      </trkpt>
      <trkpt lat="46.88687" lon="4.27653">
        <ele>591.83</ele>
        <time>2021-08-12T16:44:15Z</time>
      </trkpt>
      <trkpt lat="46.88683" lon="4.27649">
        <ele>590.87</ele>
        <time>2021-08-12T16:44:16Z</time>
      </trkpt>
      <trkpt lat="46.88678" lon="4.27645">
        <ele>589.91</ele>
        <time>2021-08-12T16:44:17Z</time>
      </trkpt>
      <trkpt lat="46.88674" lon="4.27641">
        <ele>589.43</ele>
        <time>2021-08-12T16:44:18Z</time>
      </trkpt>
      <trkpt lat="46.88669" lon="4.27635">
        <ele>588.46</ele>
        <time>2021-08-12T16:44:19Z</time>
      </trkpt>
      <trkpt lat="46.88655" lon="4.27612">
        <ele>585.58</ele>
        <time>2021-08-12T16:44:22Z</time>
      </trkpt>
      <trkpt lat="46.88638" lon="4.27586">
        <ele>581.73</ele>
        <time>2021-08-12T16:44:25Z</time>
      </trkpt>
      <trkpt lat="46.88626" lon="4.2757">
        <ele>580.29</ele>
        <time>2021-08-12T16:44:27Z</time>
      </trkpt>
      <trkpt lat="46.88621" lon="4.27563">
        <ele>578.85</ele>
        <time>2021-08-12T16:44:28Z</time>
      </trkpt>
      <trkpt lat="46.88607" lon="4.27543">
        <ele>577.41</ele>
        <time>2021-08-12T16:44:31Z</time>
      </trkpt>
      <trkpt lat="46.88604" lon="4.27535">
        <ele>576.45</ele>
        <time>2021-08-12T16:44:32Z</time>
      </trkpt>
      <trkpt lat="46.88602" lon="4.27528">
        <ele>576.45</ele>
        <time>2021-08-12T16:44:33Z</time>
      </trkpt>
      <trkpt lat="46.88602" lon="4.2752">
        <ele>575.49</ele>
        <time>2021-08-12T16:44:34Z</time>
      </trkpt>
      <trkpt lat="46.88602" lon="4.27516">
        <ele>575.49</ele>
        <time>2021-08-12T16:44:35Z</time>
      </trkpt>
      <trkpt lat="46.88601" lon="4.2751">
        <ele>575.49</ele>
        <time>2021-08-12T16:44:36Z</time>
      </trkpt>
      <trkpt lat="46.88602" lon="4.27507">
        <ele>575.49</ele>
        <time>2021-08-12T16:44:37Z</time>
      </trkpt>
      <trkpt lat="46.88602" lon="4.27502">
        <ele>575.49</ele>
        <time>2021-08-12T16:44:38Z</time>
      </trkpt>
      <trkpt lat="46.88604" lon="4.275">
        <ele>575.49</ele>
        <time>2021-08-12T16:44:39Z</time>
      </trkpt>
      <trkpt lat="46.88605" lon="4.27499">
        <ele>575.49</ele>
        <time>2021-08-12T16:44:40Z</time>
      </trkpt>
      <trkpt lat="46.88608" lon="4.27499">
        <ele>575.49</ele>
        <time>2021-08-12T16:44:42Z</time>
      </trkpt>
      <trkpt lat="46.88609" lon="4.27498">
        <ele>575.49</ele>
        <time>2021-08-12T16:44:43Z</time>
      </trkpt>
      <trkpt lat="46.8861" lon="4.27496">
        <ele>575.49</ele>
        <time>2021-08-12T16:44:44Z</time>
      </trkpt>
      <trkpt lat="46.88612" lon="4.27494">
        <ele>575.97</ele>
        <time>2021-08-12T16:44:45Z</time>
      </trkpt>
      <trkpt lat="46.88613" lon="4.27492">
        <ele>575.97</ele>
        <time>2021-08-12T16:44:46Z</time>
      </trkpt>
      <trkpt lat="46.88613" lon="4.27489">
        <ele>575.97</ele>
        <time>2021-08-12T16:44:47Z</time>
      </trkpt>
      <trkpt lat="46.88612" lon="4.27485">
        <ele>575.97</ele>
        <time>2021-08-12T16:44:48Z</time>
      </trkpt>
      <trkpt lat="46.8861" lon="4.27482">
        <ele>575.97</ele>
        <time>2021-08-12T16:44:49Z</time>
      </trkpt>
      <trkpt lat="46.88606" lon="4.27478">
        <ele>575.01</ele>
        <time>2021-08-12T16:44:50Z</time>
      </trkpt>
      <trkpt lat="46.88588" lon="4.27458">
        <ele>573.56</ele>
        <time>2021-08-12T16:44:54Z</time>
      </trkpt>
      <trkpt lat="46.88584" lon="4.27452">
        <ele>572.6</ele>
        <time>2021-08-12T16:44:55Z</time>
      </trkpt>
      <trkpt lat="46.8857" lon="4.27431">
        <ele>571.64</ele>
        <time>2021-08-12T16:44:58Z</time>
      </trkpt>
      <trkpt lat="46.88554" lon="4.27418">
        <ele>570.68</ele>
        <time>2021-08-12T16:45:01Z</time>
      </trkpt>
      <trkpt lat="46.88541" lon="4.27414">
        <ele>570.2</ele>
        <time>2021-08-12T16:45:03Z</time>
      </trkpt>
      <trkpt lat="46.88536" lon="4.2741">
        <ele>570.2</ele>
        <time>2021-08-12T16:45:04Z</time>
      </trkpt>
      <trkpt lat="46.88526" lon="4.274">
        <ele>569.72</ele>
        <time>2021-08-12T16:45:06Z</time>
      </trkpt>
      <trkpt lat="46.88511" lon="4.27386">
        <ele>568.76</ele>
        <time>2021-08-12T16:45:09Z</time>
      </trkpt>
      <trkpt lat="46.88506" lon="4.27381">
        <ele>568.76</ele>
        <time>2021-08-12T16:45:10Z</time>
      </trkpt>
      <trkpt lat="46.88502" lon="4.27377">
        <ele>568.76</ele>
        <time>2021-08-12T16:45:11Z</time>
      </trkpt>
      <trkpt lat="46.88493" lon="4.27369">
        <ele>568.28</ele>
        <time>2021-08-12T16:45:13Z</time>
      </trkpt>
      <trkpt lat="46.88482" lon="4.2736">
        <ele>568.28</ele>
        <time>2021-08-12T16:45:15Z</time>
      </trkpt>
      <trkpt lat="46.88476" lon="4.27354">
        <ele>567.8</ele>
        <time>2021-08-12T16:45:16Z</time>
      </trkpt>
      <trkpt lat="46.88471" lon="4.2735">
        <ele>567.8</ele>
        <time>2021-08-12T16:45:17Z</time>
      </trkpt>
      <trkpt lat="46.88452" lon="4.27333">
        <ele>566.35</ele>
        <time>2021-08-12T16:45:21Z</time>
      </trkpt>
      <trkpt lat="46.88449" lon="4.27329">
        <ele>566.35</ele>
        <time>2021-08-12T16:45:22Z</time>
      </trkpt>
      <trkpt lat="46.88444" lon="4.27322">
        <ele>563.95</ele>
        <time>2021-08-12T16:45:23Z</time>
      </trkpt>
      <trkpt lat="46.88441" lon="4.27316">
        <ele>562.51</ele>
        <time>2021-08-12T16:45:24Z</time>
      </trkpt>
      <trkpt lat="46.88437" lon="4.27307">
        <ele>561.07</ele>
        <time>2021-08-12T16:45:25Z</time>
      </trkpt>
      <trkpt lat="46.88433" lon="4.27298">
        <ele>560.11</ele>
        <time>2021-08-12T16:45:26Z</time>
      </trkpt>
      <trkpt lat="46.88417" lon="4.27258">
        <ele>557.7</ele>
        <time>2021-08-12T16:45:30Z</time>
      </trkpt>
      <trkpt lat="46.88414" lon="4.27252">
        <ele>557.7</ele>
        <time>2021-08-12T16:45:31Z</time>
      </trkpt>
      <trkpt lat="46.88406" lon="4.27241">
        <ele>557.22</ele>
        <time>2021-08-12T16:45:32Z</time>
      </trkpt>
      <trkpt lat="46.884" lon="4.27234">
        <ele>555.78</ele>
        <time>2021-08-12T16:45:33Z</time>
      </trkpt>
      <trkpt lat="46.88381" lon="4.27213">
        <ele>553.86</ele>
        <time>2021-08-12T16:45:36Z</time>
      </trkpt>
      <trkpt lat="46.88374" lon="4.27206">
        <ele>552.41</ele>
        <time>2021-08-12T16:45:37Z</time>
      </trkpt>
      <trkpt lat="46.88367" lon="4.272">
        <ele>550.49</ele>
        <time>2021-08-12T16:45:38Z</time>
      </trkpt>
      <trkpt lat="46.88345" lon="4.27185">
        <ele>546.65</ele>
        <time>2021-08-12T16:45:41Z</time>
      </trkpt>
      <trkpt lat="46.88329" lon="4.27177">
        <ele>544.24</ele>
        <time>2021-08-12T16:45:43Z</time>
      </trkpt>
      <trkpt lat="46.8832" lon="4.27175">
        <ele>543.28</ele>
        <time>2021-08-12T16:45:44Z</time>
      </trkpt>
      <trkpt lat="46.88301" lon="4.27172">
        <ele>541.36</ele>
        <time>2021-08-12T16:45:46Z</time>
      </trkpt>
      <trkpt lat="46.88276" lon="4.27168">
        <ele>540.4</ele>
        <time>2021-08-12T16:45:49Z</time>
      </trkpt>
      <trkpt lat="46.88268" lon="4.27163">
        <ele>540.4</ele>
        <time>2021-08-12T16:45:50Z</time>
      </trkpt>
      <trkpt lat="46.88245" lon="4.27147">
        <ele>537.03</ele>
        <time>2021-08-12T16:45:54Z</time>
      </trkpt>
      <trkpt lat="46.88242" lon="4.27142">
        <ele>536.55</ele>
        <time>2021-08-12T16:45:55Z</time>
      </trkpt>
      <trkpt lat="46.88236" lon="4.27137">
        <ele>535.11</ele>
        <time>2021-08-12T16:45:56Z</time>
      </trkpt>
      <trkpt lat="46.88232" lon="4.2713">
        <ele>534.15</ele>
        <time>2021-08-12T16:45:57Z</time>
      </trkpt>
      <trkpt lat="46.88228" lon="4.27124">
        <ele>533.19</ele>
        <time>2021-08-12T16:45:58Z</time>
      </trkpt>
      <trkpt lat="46.88225" lon="4.27119">
        <ele>532.23</ele>
        <time>2021-08-12T16:45:59Z</time>
      </trkpt>
      <trkpt lat="46.88221" lon="4.27115">
        <ele>531.27</ele>
        <time>2021-08-12T16:46:00Z</time>
      </trkpt>
      <trkpt lat="46.88216" lon="4.27111">
        <ele>530.3</ele>
        <time>2021-08-12T16:46:01Z</time>
      </trkpt>
      <trkpt lat="46.88211" lon="4.27107">
        <ele>528.38</ele>
        <time>2021-08-12T16:46:02Z</time>
      </trkpt>
      <trkpt lat="46.88206" lon="4.27103">
        <ele>527.42</ele>
        <time>2021-08-12T16:46:03Z</time>
      </trkpt>
      <trkpt lat="46.88201" lon="4.27097">
        <ele>525.5</ele>
        <time>2021-08-12T16:46:04Z</time>
      </trkpt>
      <trkpt lat="46.88186" lon="4.27081">
        <ele>521.17</ele>
        <time>2021-08-12T16:46:07Z</time>
      </trkpt>
      <trkpt lat="46.88167" lon="4.27069">
        <ele>516.85</ele>
        <time>2021-08-12T16:46:10Z</time>
      </trkpt>
      <trkpt lat="46.88156" lon="4.27061">
        <ele>514.44</ele>
        <time>2021-08-12T16:46:12Z</time>
      </trkpt>
      <trkpt lat="46.88149" lon="4.27059">
        <ele>514.44</ele>
        <time>2021-08-12T16:46:13Z</time>
      </trkpt>
      <trkpt lat="46.8813" lon="4.27055">
        <ele>511.08</ele>
        <time>2021-08-12T16:46:16Z</time>
      </trkpt>
      <trkpt lat="46.88125" lon="4.27052">
        <ele>510.12</ele>
        <time>2021-08-12T16:46:17Z</time>
      </trkpt>
      <trkpt lat="46.88106" lon="4.27042">
        <ele>506.75</ele>
        <time>2021-08-12T16:46:21Z</time>
      </trkpt>
      <trkpt lat="46.88091" lon="4.27026">
        <ele>502.91</ele>
        <time>2021-08-12T16:46:25Z</time>
      </trkpt>
      <trkpt lat="46.8808" lon="4.27021">
        <ele>500.98</ele>
        <time>2021-08-12T16:46:29Z</time>
      </trkpt>
      <trkpt lat="46.88069" lon="4.27014">
        <ele>500.02</ele>
        <time>2021-08-12T16:46:36Z</time>
      </trkpt>
      <trkpt lat="46.88066" lon="4.27011">
        <ele>499.54</ele>
        <time>2021-08-12T16:46:37Z</time>
      </trkpt>
      <trkpt lat="46.88059" lon="4.27003">
        <ele>496.66</ele>
        <time>2021-08-12T16:46:39Z</time>
      </trkpt>
      <trkpt lat="46.88056" lon="4.26999">
        <ele>496.18</ele>
        <time>2021-08-12T16:46:40Z</time>
      </trkpt>
      <trkpt lat="46.88047" lon="4.26988">
        <ele>493.77</ele>
        <time>2021-08-12T16:46:42Z</time>
      </trkpt>
      <trkpt lat="46.88038" lon="4.26981">
        <ele>491.37</ele>
        <time>2021-08-12T16:46:44Z</time>
      </trkpt>
      <trkpt lat="46.88033" lon="4.26976">
        <ele>490.41</ele>
        <time>2021-08-12T16:46:45Z</time>
      </trkpt>
      <trkpt lat="46.88029" lon="4.26971">
        <ele>489.93</ele>
        <time>2021-08-12T16:46:46Z</time>
      </trkpt>
      <trkpt lat="46.88025" lon="4.26966">
        <ele>488.49</ele>
        <time>2021-08-12T16:46:47Z</time>
      </trkpt>
      <trkpt lat="46.88023" lon="4.26962">
        <ele>488.01</ele>
        <time>2021-08-12T16:46:48Z</time>
      </trkpt>
      <trkpt lat="46.88023" lon="4.26958">
        <ele>488.01</ele>
        <time>2021-08-12T16:46:49Z</time>
      </trkpt>
      <trkpt lat="46.88025" lon="4.26955">
        <ele>487.53</ele>
        <time>2021-08-12T16:46:50Z</time>
      </trkpt>
      <trkpt lat="46.88029" lon="4.26951">
        <ele>486.56</ele>
        <time>2021-08-12T16:46:51Z</time>
      </trkpt>
      <trkpt lat="46.88033" lon="4.26945">
        <ele>486.08</ele>
        <time>2021-08-12T16:46:52Z</time>
      </trkpt>
      <trkpt lat="46.88054" lon="4.26919">
        <ele>481.76</ele>
        <time>2021-08-12T16:46:56Z</time>
      </trkpt>
      <trkpt lat="46.88073" lon="4.26895">
        <ele>480.32</ele>
        <time>2021-08-12T16:46:59Z</time>
      </trkpt>
      <trkpt lat="46.88094" lon="4.26869">
        <ele>477.43</ele>
        <time>2021-08-12T16:47:02Z</time>
      </trkpt>
      <trkpt lat="46.88109" lon="4.26852">
        <ele>474.55</ele>
        <time>2021-08-12T16:47:04Z</time>
      </trkpt>
      <trkpt lat="46.88127" lon="4.26821">
        <ele>472.14</ele>
        <time>2021-08-12T16:47:07Z</time>
      </trkpt>
      <trkpt lat="46.88152" lon="4.26774">
        <ele>468.78</ele>
        <time>2021-08-12T16:47:11Z</time>
      </trkpt>
      <trkpt lat="46.88171" lon="4.2674">
        <ele>465.9</ele>
        <time>2021-08-12T16:47:14Z</time>
      </trkpt>
      <trkpt lat="46.88177" lon="4.26728">
        <ele>465.9</ele>
        <time>2021-08-12T16:47:15Z</time>
      </trkpt>
      <trkpt lat="46.88189" lon="4.26708">
        <ele>463.97</ele>
        <time>2021-08-12T16:47:17Z</time>
      </trkpt>
      <trkpt lat="46.88196" lon="4.26701">
        <ele>463.97</ele>
        <time>2021-08-12T16:47:18Z</time>
      </trkpt>
      <trkpt lat="46.88238" lon="4.26671">
        <ele>463.01</ele>
        <time>2021-08-12T16:47:24Z</time>
      </trkpt>
      <trkpt lat="46.88244" lon="4.26667">
        <ele>462.53</ele>
        <time>2021-08-12T16:47:25Z</time>
      </trkpt>
      <trkpt lat="46.8825" lon="4.26663">
        <ele>462.53</ele>
        <time>2021-08-12T16:47:26Z</time>
      </trkpt>
      <trkpt lat="46.88257" lon="4.26658">
        <ele>463.01</ele>
        <time>2021-08-12T16:47:27Z</time>
      </trkpt>
      <trkpt lat="46.88262" lon="4.26655">
        <ele>463.01</ele>
        <time>2021-08-12T16:47:28Z</time>
      </trkpt>
      <trkpt lat="46.88284" lon="4.2664">
        <ele>461.09</ele>
        <time>2021-08-12T16:47:32Z</time>
      </trkpt>
      <trkpt lat="46.88289" lon="4.26636">
        <ele>460.61</ele>
        <time>2021-08-12T16:47:33Z</time>
      </trkpt>
      <trkpt lat="46.88293" lon="4.26631">
        <ele>459.65</ele>
        <time>2021-08-12T16:47:34Z</time>
      </trkpt>
      <trkpt lat="46.88303" lon="4.26617">
        <ele>458.69</ele>
        <time>2021-08-12T16:47:36Z</time>
      </trkpt>
      <trkpt lat="46.88317" lon="4.26599">
        <ele>457.24</ele>
        <time>2021-08-12T16:47:39Z</time>
      </trkpt>
      <trkpt lat="46.88323" lon="4.26591">
        <ele>455.8</ele>
        <time>2021-08-12T16:47:40Z</time>
      </trkpt>
      <trkpt lat="46.88331" lon="4.26584">
        <ele>455.32</ele>
        <time>2021-08-12T16:47:41Z</time>
      </trkpt>
      <trkpt lat="46.88342" lon="4.26578">
        <ele>455.32</ele>
        <time>2021-08-12T16:47:42Z</time>
      </trkpt>
      <trkpt lat="46.88354" lon="4.2657">
        <ele>454.84</ele>
        <time>2021-08-12T16:47:44Z</time>
      </trkpt>
      <trkpt lat="46.88358" lon="4.26566">
        <ele>454.84</ele>
        <time>2021-08-12T16:47:45Z</time>
      </trkpt>
      <trkpt lat="46.88361" lon="4.2656">
        <ele>454.36</ele>
        <time>2021-08-12T16:47:46Z</time>
      </trkpt>
      <trkpt lat="46.88364" lon="4.26548">
        <ele>453.88</ele>
        <time>2021-08-12T16:47:48Z</time>
      </trkpt>
      <trkpt lat="46.88358" lon="4.2653">
        <ele>451.48</ele>
        <time>2021-08-12T16:47:51Z</time>
      </trkpt>
      <trkpt lat="46.88358" lon="4.26524">
        <ele>451</ele>
        <time>2021-08-12T16:47:52Z</time>
      </trkpt>
      <trkpt lat="46.88359" lon="4.26516">
        <ele>449.55</ele>
        <time>2021-08-12T16:47:53Z</time>
      </trkpt>
      <trkpt lat="46.88362" lon="4.2651">
        <ele>449.07</ele>
        <time>2021-08-12T16:47:54Z</time>
      </trkpt>
      <trkpt lat="46.88363" lon="4.26507">
        <ele>448.11</ele>
        <time>2021-08-12T16:47:55Z</time>
      </trkpt>
      <trkpt lat="46.88377" lon="4.26492">
        <ele>445.23</ele>
        <time>2021-08-12T16:47:58Z</time>
      </trkpt>
      <trkpt lat="46.88379" lon="4.26489">
        <ele>444.27</ele>
        <time>2021-08-12T16:47:59Z</time>
      </trkpt>
      <trkpt lat="46.88396" lon="4.26481">
        <ele>440.9</ele>
        <time>2021-08-12T16:48:02Z</time>
      </trkpt>
      <trkpt lat="46.88401" lon="4.26479">
        <ele>439.46</ele>
        <time>2021-08-12T16:48:03Z</time>
      </trkpt>
      <trkpt lat="46.88405" lon="4.26477">
        <ele>438.02</ele>
        <time>2021-08-12T16:48:04Z</time>
      </trkpt>
      <trkpt lat="46.8841" lon="4.26474">
        <ele>437.06</ele>
        <time>2021-08-12T16:48:05Z</time>
      </trkpt>
      <trkpt lat="46.88416" lon="4.26473">
        <ele>436.1</ele>
        <time>2021-08-12T16:48:06Z</time>
      </trkpt>
      <trkpt lat="46.88423" lon="4.26472">
        <ele>434.65</ele>
        <time>2021-08-12T16:48:07Z</time>
      </trkpt>
      <trkpt lat="46.8843" lon="4.26473">
        <ele>434.17</ele>
        <time>2021-08-12T16:48:08Z</time>
      </trkpt>
      <trkpt lat="46.88436" lon="4.26476">
        <ele>433.69</ele>
        <time>2021-08-12T16:48:09Z</time>
      </trkpt>
      <trkpt lat="46.88443" lon="4.2648">
        <ele>433.21</ele>
        <time>2021-08-12T16:48:10Z</time>
      </trkpt>
      <trkpt lat="46.88451" lon="4.26482">
        <ele>432.25</ele>
        <time>2021-08-12T16:48:11Z</time>
      </trkpt>
      <trkpt lat="46.88461" lon="4.26483">
        <ele>431.77</ele>
        <time>2021-08-12T16:48:14Z</time>
      </trkpt>
      <trkpt lat="46.88466" lon="4.26486">
        <ele>432.73</ele>
        <time>2021-08-12T16:48:27Z</time>
      </trkpt>
      <trkpt lat="46.88465" lon="4.26485">
        <ele>432.73</ele>
        <time>2021-08-12T16:48:28Z</time>
      </trkpt>
      <trkpt lat="46.88465" lon="4.26485">
        <ele>432.73</ele>
        <time>2021-08-12T16:48:29Z</time>
      </trkpt>
      <trkpt lat="46.88464" lon="4.26482">
        <ele>432.73</ele>
        <time>2021-08-12T16:48:35Z</time>
      </trkpt>
      <trkpt lat="46.88466" lon="4.26472">
        <ele>432.73</ele>
        <time>2021-08-12T16:48:54Z</time>
      </trkpt>
      <trkpt lat="46.88474" lon="4.26482">
        <ele>433.21</ele>
        <time>2021-08-12T16:49:08Z</time>
      </trkpt>
      <trkpt lat="46.88477" lon="4.26485">
        <ele>433.21</ele>
        <time>2021-08-12T16:49:18Z</time>
      </trkpt>
      <trkpt lat="46.88474" lon="4.26489">
        <ele>434.65</ele>
        <time>2021-08-12T16:49:33Z</time>
      </trkpt>
      <trkpt lat="46.8847" lon="4.26489">
        <ele>434.65</ele>
        <time>2021-08-12T16:49:50Z</time>
      </trkpt>
      <trkpt lat="46.88473" lon="4.26485">
        <ele>434.65</ele>
        <time>2021-08-12T16:50:07Z</time>
      </trkpt>
      <trkpt lat="46.88474" lon="4.26484">
        <ele>434.65</ele>
        <time>2021-08-12T16:50:08Z</time>
      </trkpt>
      <trkpt lat="46.88476" lon="4.26483">
        <ele>433.21</ele>
        <time>2021-08-12T16:50:09Z</time>
      </trkpt>
      <trkpt lat="46.88485" lon="4.26476">
        <ele>430.33</ele>
        <time>2021-08-12T16:50:13Z</time>
      </trkpt>
      <trkpt lat="46.88489" lon="4.26473">
        <ele>428.4</ele>
        <time>2021-08-12T16:50:16Z</time>
      </trkpt>
      <trkpt lat="46.88495" lon="4.26463">
        <ele>427.44</ele>
        <time>2021-08-12T16:50:22Z</time>
      </trkpt>
      <trkpt lat="46.88495" lon="4.26456">
        <ele>427.44</ele>
        <time>2021-08-12T16:50:25Z</time>
      </trkpt>
      <trkpt lat="46.88494" lon="4.26453">
        <ele>427.44</ele>
        <time>2021-08-12T16:50:26Z</time>
      </trkpt>
      <trkpt lat="46.88487" lon="4.26424">
        <ele>426.96</ele>
        <time>2021-08-12T16:50:32Z</time>
      </trkpt>
      <trkpt lat="46.88485" lon="4.26419">
        <ele>426.96</ele>
        <time>2021-08-12T16:50:33Z</time>
      </trkpt>
      <trkpt lat="46.88483" lon="4.26414">
        <ele>426.96</ele>
        <time>2021-08-12T16:50:34Z</time>
      </trkpt>
      <trkpt lat="46.88481" lon="4.2641">
        <ele>426.96</ele>
        <time>2021-08-12T16:50:35Z</time>
      </trkpt>
      <trkpt lat="46.88479" lon="4.26405">
        <ele>426.96</ele>
        <time>2021-08-12T16:50:36Z</time>
      </trkpt>
      <trkpt lat="46.88471" lon="4.26386">
        <ele>426.96</ele>
        <time>2021-08-12T16:50:40Z</time>
      </trkpt>
      <trkpt lat="46.88461" lon="4.26361">
        <ele>427.92</ele>
        <time>2021-08-12T16:50:46Z</time>
      </trkpt>
      <trkpt lat="46.88451" lon="4.26337">
        <ele>429.37</ele>
        <time>2021-08-12T16:50:53Z</time>
      </trkpt>
      <trkpt lat="46.88451" lon="4.26308">
        <ele>429.37</ele>
        <time>2021-08-12T16:50:59Z</time>
      </trkpt>
      <trkpt lat="46.88465" lon="4.26284">
        <ele>429.85</ele>
        <time>2021-08-12T16:51:06Z</time>
      </trkpt>
      <trkpt lat="46.88483" lon="4.26269">
        <ele>429.85</ele>
        <time>2021-08-12T16:51:13Z</time>
      </trkpt>
      <trkpt lat="46.88505" lon="4.26249">
        <ele>429.85</ele>
        <time>2021-08-12T16:51:21Z</time>
      </trkpt>
      <trkpt lat="46.88522" lon="4.26238">
        <ele>429.85</ele>
        <time>2021-08-12T16:51:27Z</time>
      </trkpt>
      <trkpt lat="46.88543" lon="4.26233">
        <ele>428.4</ele>
        <time>2021-08-12T16:51:33Z</time>
      </trkpt>
      <trkpt lat="46.88559" lon="4.2623">
        <ele>426.48</ele>
        <time>2021-08-12T16:51:36Z</time>
      </trkpt>
      <trkpt lat="46.88564" lon="4.26232">
        <ele>426.48</ele>
        <time>2021-08-12T16:51:37Z</time>
      </trkpt>
      <trkpt lat="46.88575" lon="4.26231">
        <ele>426.48</ele>
        <time>2021-08-12T16:51:39Z</time>
      </trkpt>
      <trkpt lat="46.88579" lon="4.26229">
        <ele>426.48</ele>
        <time>2021-08-12T16:51:40Z</time>
      </trkpt>
      <trkpt lat="46.88586" lon="4.26223">
        <ele>426.48</ele>
        <time>2021-08-12T16:51:41Z</time>
      </trkpt>
      <trkpt lat="46.88616" lon="4.26192">
        <ele>425.52</ele>
        <time>2021-08-12T16:51:47Z</time>
      </trkpt>
      <trkpt lat="46.88621" lon="4.26189">
        <ele>425.52</ele>
        <time>2021-08-12T16:51:48Z</time>
      </trkpt>
      <trkpt lat="46.88627" lon="4.26185">
        <ele>424.56</ele>
        <time>2021-08-12T16:51:49Z</time>
      </trkpt>
      <trkpt lat="46.88655" lon="4.26176">
        <ele>421.19</ele>
        <time>2021-08-12T16:51:53Z</time>
      </trkpt>
      <trkpt lat="46.88661" lon="4.26175">
        <ele>421.19</ele>
        <time>2021-08-12T16:51:54Z</time>
      </trkpt>
      <trkpt lat="46.88669" lon="4.26172">
        <ele>421.19</ele>
        <time>2021-08-12T16:51:55Z</time>
      </trkpt>
      <trkpt lat="46.88709" lon="4.26162">
        <ele>418.31</ele>
        <time>2021-08-12T16:52:00Z</time>
      </trkpt>
      <trkpt lat="46.88728" lon="4.2616">
        <ele>417.35</ele>
        <time>2021-08-12T16:52:02Z</time>
      </trkpt>
      <trkpt lat="46.88756" lon="4.2616">
        <ele>414.95</ele>
        <time>2021-08-12T16:52:05Z</time>
      </trkpt>
      <trkpt lat="46.88773" lon="4.26157">
        <ele>413.98</ele>
        <time>2021-08-12T16:52:07Z</time>
      </trkpt>
      <trkpt lat="46.8878" lon="4.26153">
        <ele>413.98</ele>
        <time>2021-08-12T16:52:08Z</time>
      </trkpt>
      <trkpt lat="46.88784" lon="4.2615">
        <ele>413.98</ele>
        <time>2021-08-12T16:52:09Z</time>
      </trkpt>
      <trkpt lat="46.88788" lon="4.26143">
        <ele>413.98</ele>
        <time>2021-08-12T16:52:10Z</time>
      </trkpt>
      <trkpt lat="46.88789" lon="4.26137">
        <ele>413.98</ele>
        <time>2021-08-12T16:52:11Z</time>
      </trkpt>
      <trkpt lat="46.88789" lon="4.26128">
        <ele>413.02</ele>
        <time>2021-08-12T16:52:12Z</time>
      </trkpt>
      <trkpt lat="46.88788" lon="4.26121">
        <ele>413.02</ele>
        <time>2021-08-12T16:52:13Z</time>
      </trkpt>
      <trkpt lat="46.88785" lon="4.26111">
        <ele>413.02</ele>
        <time>2021-08-12T16:52:14Z</time>
      </trkpt>
      <trkpt lat="46.88782" lon="4.26103">
        <ele>412.06</ele>
        <time>2021-08-12T16:52:15Z</time>
      </trkpt>
      <trkpt lat="46.88779" lon="4.26095">
        <ele>412.06</ele>
        <time>2021-08-12T16:52:16Z</time>
      </trkpt>
      <trkpt lat="46.88775" lon="4.26086">
        <ele>411.58</ele>
        <time>2021-08-12T16:52:17Z</time>
      </trkpt>
      <trkpt lat="46.88769" lon="4.26069">
        <ele>411.58</ele>
        <time>2021-08-12T16:52:19Z</time>
      </trkpt>
      <trkpt lat="46.88767" lon="4.2606">
        <ele>410.62</ele>
        <time>2021-08-12T16:52:20Z</time>
      </trkpt>
      <trkpt lat="46.88767" lon="4.2605">
        <ele>409.18</ele>
        <time>2021-08-12T16:52:21Z</time>
      </trkpt>
      <trkpt lat="46.8877" lon="4.26037">
        <ele>408.22</ele>
        <time>2021-08-12T16:52:22Z</time>
      </trkpt>
      <trkpt lat="46.88773" lon="4.26026">
        <ele>408.22</ele>
        <time>2021-08-12T16:52:23Z</time>
      </trkpt>
      <trkpt lat="46.88807" lon="4.25973">
        <ele>406.29</ele>
        <time>2021-08-12T16:52:29Z</time>
      </trkpt>
      <trkpt lat="46.88814" lon="4.25966">
        <ele>406.29</ele>
        <time>2021-08-12T16:52:30Z</time>
      </trkpt>
      <trkpt lat="46.88835" lon="4.25949">
        <ele>404.85</ele>
        <time>2021-08-12T16:52:33Z</time>
      </trkpt>
      <trkpt lat="46.88841" lon="4.25939">
        <ele>404.85</ele>
        <time>2021-08-12T16:52:34Z</time>
      </trkpt>
      <trkpt lat="46.88845" lon="4.25931">
        <ele>404.85</ele>
        <time>2021-08-12T16:52:35Z</time>
      </trkpt>
      <trkpt lat="46.88848" lon="4.25923">
        <ele>406.29</ele>
        <time>2021-08-12T16:52:36Z</time>
      </trkpt>
      <trkpt lat="46.88852" lon="4.25914">
        <ele>406.29</ele>
        <time>2021-08-12T16:52:37Z</time>
      </trkpt>
      <trkpt lat="46.88854" lon="4.25909">
        <ele>407.26</ele>
        <time>2021-08-12T16:52:38Z</time>
      </trkpt>
      <trkpt lat="46.88858" lon="4.25903">
        <ele>407.74</ele>
        <time>2021-08-12T16:52:39Z</time>
      </trkpt>
      <trkpt lat="46.88861" lon="4.25899">
        <ele>408.22</ele>
        <time>2021-08-12T16:52:40Z</time>
      </trkpt>
      <trkpt lat="46.8888" lon="4.25869">
        <ele>409.18</ele>
        <time>2021-08-12T16:52:47Z</time>
      </trkpt>
      <trkpt lat="46.88903" lon="4.25837">
        <ele>407.74</ele>
        <time>2021-08-12T16:52:54Z</time>
      </trkpt>
      <trkpt lat="46.88914" lon="4.25821">
        <ele>407.74</ele>
        <time>2021-08-12T16:52:57Z</time>
      </trkpt>
      <trkpt lat="46.88918" lon="4.25816">
        <ele>407.74</ele>
        <time>2021-08-12T16:52:58Z</time>
      </trkpt>
      <trkpt lat="46.88928" lon="4.25798">
        <ele>407.26</ele>
        <time>2021-08-12T16:53:01Z</time>
      </trkpt>
      <trkpt lat="46.8893" lon="4.25792">
        <ele>406.77</ele>
        <time>2021-08-12T16:53:02Z</time>
      </trkpt>
      <trkpt lat="46.88933" lon="4.25784">
        <ele>405.33</ele>
        <time>2021-08-12T16:53:03Z</time>
      </trkpt>
      <trkpt lat="46.88937" lon="4.25777">
        <ele>405.33</ele>
        <time>2021-08-12T16:53:04Z</time>
      </trkpt>
      <trkpt lat="46.88942" lon="4.25771">
        <ele>404.85</ele>
        <time>2021-08-12T16:53:05Z</time>
      </trkpt>
      <trkpt lat="46.88948" lon="4.25766">
        <ele>403.89</ele>
        <time>2021-08-12T16:53:06Z</time>
      </trkpt>
      <trkpt lat="46.88954" lon="4.25762">
        <ele>403.89</ele>
        <time>2021-08-12T16:53:07Z</time>
      </trkpt>
      <trkpt lat="46.8896" lon="4.25759">
        <ele>403.41</ele>
        <time>2021-08-12T16:53:08Z</time>
      </trkpt>
      <trkpt lat="46.88966" lon="4.25757">
        <ele>403.41</ele>
        <time>2021-08-12T16:53:09Z</time>
      </trkpt>
      <trkpt lat="46.88972" lon="4.25756">
        <ele>403.41</ele>
        <time>2021-08-12T16:53:10Z</time>
      </trkpt>
      <trkpt lat="46.88979" lon="4.25756">
        <ele>403.41</ele>
        <time>2021-08-12T16:53:11Z</time>
      </trkpt>
      <trkpt lat="46.88985" lon="4.25756">
        <ele>403.41</ele>
        <time>2021-08-12T16:53:12Z</time>
      </trkpt>
      <trkpt lat="46.89018" lon="4.2576">
        <ele>402.93</ele>
        <time>2021-08-12T16:53:18Z</time>
      </trkpt>
      <trkpt lat="46.89052" lon="4.25769">
        <ele>404.85</ele>
        <time>2021-08-12T16:53:26Z</time>
      </trkpt>
      <trkpt lat="46.89056" lon="4.2577">
        <ele>404.85</ele>
        <time>2021-08-12T16:53:27Z</time>
      </trkpt>
      <trkpt lat="46.8906" lon="4.25771">
        <ele>404.85</ele>
        <time>2021-08-12T16:53:28Z</time>
      </trkpt>
      <trkpt lat="46.89088" lon="4.25781">
        <ele>405.33</ele>
        <time>2021-08-12T16:53:35Z</time>
      </trkpt>
      <trkpt lat="46.89101" lon="4.25783">
        <ele>404.85</ele>
        <time>2021-08-12T16:53:38Z</time>
      </trkpt>
      <trkpt lat="46.89105" lon="4.25782">
        <ele>404.85</ele>
        <time>2021-08-12T16:53:39Z</time>
      </trkpt>
      <trkpt lat="46.89109" lon="4.2578">
        <ele>405.33</ele>
        <time>2021-08-12T16:53:40Z</time>
      </trkpt>
      <trkpt lat="46.89112" lon="4.25777">
        <ele>405.33</ele>
        <time>2021-08-12T16:53:41Z</time>
      </trkpt>
      <trkpt lat="46.89115" lon="4.25773">
        <ele>405.33</ele>
        <time>2021-08-12T16:53:42Z</time>
      </trkpt>
      <trkpt lat="46.89118" lon="4.25769">
        <ele>405.33</ele>
        <time>2021-08-12T16:53:43Z</time>
      </trkpt>
      <trkpt lat="46.8912" lon="4.25765">
        <ele>405.33</ele>
        <time>2021-08-12T16:53:44Z</time>
      </trkpt>
      <trkpt lat="46.89135" lon="4.25729">
        <ele>406.29</ele>
        <time>2021-08-12T16:53:52Z</time>
      </trkpt>
      <trkpt lat="46.89134" lon="4.25698">
        <ele>406.77</ele>
        <time>2021-08-12T16:53:59Z</time>
      </trkpt>
      <trkpt lat="46.89128" lon="4.25679">
        <ele>408.7</ele>
        <time>2021-08-12T16:54:05Z</time>
      </trkpt>
      <trkpt lat="46.89128" lon="4.25676">
        <ele>408.7</ele>
        <time>2021-08-12T16:54:06Z</time>
      </trkpt>
      <trkpt lat="46.89128" lon="4.25674">
        <ele>408.7</ele>
        <time>2021-08-12T16:54:07Z</time>
      </trkpt>
      <trkpt lat="46.89127" lon="4.25671">
        <ele>408.7</ele>
        <time>2021-08-12T16:54:08Z</time>
      </trkpt>
      <trkpt lat="46.89127" lon="4.25669">
        <ele>408.7</ele>
        <time>2021-08-12T16:54:09Z</time>
      </trkpt>
      <trkpt lat="46.89128" lon="4.25667">
        <ele>409.18</ele>
        <time>2021-08-12T16:54:10Z</time>
      </trkpt>
      <trkpt lat="46.89128" lon="4.25665">
        <ele>409.18</ele>
        <time>2021-08-12T16:54:11Z</time>
      </trkpt>
      <trkpt lat="46.89128" lon="4.25663">
        <ele>409.18</ele>
        <time>2021-08-12T16:54:12Z</time>
      </trkpt>
      <trkpt lat="46.89128" lon="4.2566">
        <ele>409.18</ele>
        <time>2021-08-12T16:54:13Z</time>
      </trkpt>
      <trkpt lat="46.89128" lon="4.25658">
        <ele>409.18</ele>
        <time>2021-08-12T16:54:14Z</time>
      </trkpt>
      <trkpt lat="46.89128" lon="4.25656">
        <ele>409.18</ele>
        <time>2021-08-12T16:54:15Z</time>
      </trkpt>
      <trkpt lat="46.8913" lon="4.25638">
        <ele>410.62</ele>
        <time>2021-08-12T16:54:23Z</time>
      </trkpt>
      <trkpt lat="46.89136" lon="4.25627">
        <ele>412.06</ele>
        <time>2021-08-12T16:54:30Z</time>
      </trkpt>
      <trkpt lat="46.89137" lon="4.25625">
        <ele>412.06</ele>
        <time>2021-08-12T16:54:31Z</time>
      </trkpt>
      <trkpt lat="46.89139" lon="4.25623">
        <ele>412.06</ele>
        <time>2021-08-12T16:54:33Z</time>
      </trkpt>
      <trkpt lat="46.8914" lon="4.25622">
        <ele>412.06</ele>
        <time>2021-08-12T16:54:34Z</time>
      </trkpt>
      <trkpt lat="46.89142" lon="4.25621">
        <ele>412.06</ele>
        <time>2021-08-12T16:54:35Z</time>
      </trkpt>
      <trkpt lat="46.89143" lon="4.2562">
        <ele>413.02</ele>
        <time>2021-08-12T16:54:36Z</time>
      </trkpt>
      <trkpt lat="46.89144" lon="4.25619">
        <ele>413.02</ele>
        <time>2021-08-12T16:54:37Z</time>
      </trkpt>
      <trkpt lat="46.89145" lon="4.25618">
        <ele>413.02</ele>
        <time>2021-08-12T16:54:38Z</time>
      </trkpt>
      <trkpt lat="46.89147" lon="4.25616">
        <ele>413.02</ele>
        <time>2021-08-12T16:54:43Z</time>
      </trkpt>
      <trkpt lat="46.89151" lon="4.25617">
        <ele>413.5</ele>
        <time>2021-08-12T16:54:46Z</time>
      </trkpt>
      <trkpt lat="46.89158" lon="4.25617">
        <ele>414.47</ele>
        <time>2021-08-12T16:54:53Z</time>
      </trkpt>
      <trkpt lat="46.89166" lon="4.25618">
        <ele>414.95</ele>
        <time>2021-08-12T16:55:01Z</time>
      </trkpt>
      <trkpt lat="46.89175" lon="4.25617">
        <ele>416.39</ele>
        <time>2021-08-12T16:55:10Z</time>
      </trkpt>
      <trkpt lat="46.89182" lon="4.25615">
        <ele>417.35</ele>
        <time>2021-08-12T16:55:17Z</time>
      </trkpt>
      <trkpt lat="46.89193" lon="4.2561">
        <ele>418.31</ele>
        <time>2021-08-12T16:55:29Z</time>
      </trkpt>
      <trkpt lat="46.89198" lon="4.25604">
        <ele>418.79</ele>
        <time>2021-08-12T16:55:37Z</time>
      </trkpt>
      <trkpt lat="46.89206" lon="4.25599">
        <ele>419.27</ele>
        <time>2021-08-12T16:55:44Z</time>
      </trkpt>
      <trkpt lat="46.89207" lon="4.25596">
        <ele>419.75</ele>
        <time>2021-08-12T16:55:45Z</time>
      </trkpt>
      <trkpt lat="46.89208" lon="4.25595">
        <ele>419.75</ele>
        <time>2021-08-12T16:55:46Z</time>
      </trkpt>
      <trkpt lat="46.89213" lon="4.25595">
        <ele>420.23</ele>
        <time>2021-08-12T16:55:53Z</time>
      </trkpt>
      <trkpt lat="46.89217" lon="4.25594">
        <ele>421.19</ele>
        <time>2021-08-12T16:55:56Z</time>
      </trkpt>
      <trkpt lat="46.89218" lon="4.25594">
        <ele>421.19</ele>
        <time>2021-08-12T16:55:57Z</time>
      </trkpt>
      <trkpt lat="46.89232" lon="4.2559">
        <ele>421.19</ele>
        <time>2021-08-12T16:56:08Z</time>
      </trkpt>
      <trkpt lat="46.89243" lon="4.25588">
        <ele>422.16</ele>
        <time>2021-08-12T16:56:18Z</time>
      </trkpt>
      <trkpt lat="46.89253" lon="4.25585">
        <ele>423.12</ele>
        <time>2021-08-12T16:56:28Z</time>
      </trkpt>
      <trkpt lat="46.89262" lon="4.25581">
        <ele>423.6</ele>
        <time>2021-08-12T16:56:39Z</time>
      </trkpt>
      <trkpt lat="46.89271" lon="4.25577">
        <ele>425.04</ele>
        <time>2021-08-12T16:56:49Z</time>
      </trkpt>
      <trkpt lat="46.89276" lon="4.25573">
        <ele>425.52</ele>
        <time>2021-08-12T16:56:56Z</time>
      </trkpt>
      <trkpt lat="46.89286" lon="4.25564">
        <ele>426.48</ele>
        <time>2021-08-12T16:57:08Z</time>
      </trkpt>
      <trkpt lat="46.89295" lon="4.25555">
        <ele>427.44</ele>
        <time>2021-08-12T16:57:19Z</time>
      </trkpt>
      <trkpt lat="46.89303" lon="4.25546">
        <ele>428.4</ele>
        <time>2021-08-12T16:57:29Z</time>
      </trkpt>
      <trkpt lat="46.89311" lon="4.25539">
        <ele>429.37</ele>
        <time>2021-08-12T16:57:38Z</time>
      </trkpt>
      <trkpt lat="46.89322" lon="4.25529">
        <ele>430.33</ele>
        <time>2021-08-12T16:57:50Z</time>
      </trkpt>
      <trkpt lat="46.89332" lon="4.2552">
        <ele>431.77</ele>
        <time>2021-08-12T16:58:00Z</time>
      </trkpt>
      <trkpt lat="46.89339" lon="4.25512">
        <ele>432.25</ele>
        <time>2021-08-12T16:58:10Z</time>
      </trkpt>
      <trkpt lat="46.89342" lon="4.25506">
        <ele>432.25</ele>
        <time>2021-08-12T16:58:16Z</time>
      </trkpt>
      <trkpt lat="46.89344" lon="4.25503">
        <ele>432.25</ele>
        <time>2021-08-12T16:58:18Z</time>
      </trkpt>
      <trkpt lat="46.89346" lon="4.25502">
        <ele>432.25</ele>
        <time>2021-08-12T16:58:19Z</time>
      </trkpt>
      <trkpt lat="46.89348" lon="4.25501">
        <ele>432.25</ele>
        <time>2021-08-12T16:58:20Z</time>
      </trkpt>
      <trkpt lat="46.89361" lon="4.25493">
        <ele>431.29</ele>
        <time>2021-08-12T16:58:27Z</time>
      </trkpt>
      <trkpt lat="46.89364" lon="4.25488">
        <ele>431.29</ele>
        <time>2021-08-12T16:58:29Z</time>
      </trkpt>
      <trkpt lat="46.89365" lon="4.25484">
        <ele>430.81</ele>
        <time>2021-08-12T16:58:30Z</time>
      </trkpt>
      <trkpt lat="46.89364" lon="4.25481">
        <ele>431.29</ele>
        <time>2021-08-12T16:58:31Z</time>
      </trkpt>
      <trkpt lat="46.89363" lon="4.25478">
        <ele>430.81</ele>
        <time>2021-08-12T16:58:32Z</time>
      </trkpt>
      <trkpt lat="46.89361" lon="4.25475">
        <ele>430.33</ele>
        <time>2021-08-12T16:58:33Z</time>
      </trkpt>
      <trkpt lat="46.89359" lon="4.25473">
        <ele>430.33</ele>
        <time>2021-08-12T16:58:34Z</time>
      </trkpt>
      <trkpt lat="46.89338" lon="4.2545">
        <ele>428.89</ele>
        <time>2021-08-12T16:58:41Z</time>
      </trkpt>
      <trkpt lat="46.89309" lon="4.25418">
        <ele>427.92</ele>
        <time>2021-08-12T16:58:48Z</time>
      </trkpt>
      <trkpt lat="46.89262" lon="4.25366">
        <ele>426</ele>
        <time>2021-08-12T16:58:58Z</time>
      </trkpt>
      <trkpt lat="46.89207" lon="4.25311">
        <ele>425.04</ele>
        <time>2021-08-12T16:59:09Z</time>
      </trkpt>
      <trkpt lat="46.89157" lon="4.25258">
        <ele>424.08</ele>
        <time>2021-08-12T16:59:20Z</time>
      </trkpt>
      <trkpt lat="46.89118" lon="4.25219">
        <ele>424.08</ele>
        <time>2021-08-12T16:59:29Z</time>
      </trkpt>
      <trkpt lat="46.89092" lon="4.25193">
        <ele>424.08</ele>
        <time>2021-08-12T16:59:36Z</time>
      </trkpt>
      <trkpt lat="46.89088" lon="4.25189">
        <ele>424.08</ele>
        <time>2021-08-12T16:59:37Z</time>
      </trkpt>
      <trkpt lat="46.89047" lon="4.25146">
        <ele>425.04</ele>
        <time>2021-08-12T16:59:48Z</time>
      </trkpt>
      <trkpt lat="46.89043" lon="4.25143">
        <ele>425.04</ele>
        <time>2021-08-12T16:59:49Z</time>
      </trkpt>
      <trkpt lat="46.89039" lon="4.25138">
        <ele>425.04</ele>
        <time>2021-08-12T16:59:50Z</time>
      </trkpt>
      <trkpt lat="46.89031" lon="4.25131">
        <ele>425.04</ele>
        <time>2021-08-12T16:59:52Z</time>
      </trkpt>
      <trkpt lat="46.88998" lon="4.25095">
        <ele>425.04</ele>
        <time>2021-08-12T17:00:01Z</time>
      </trkpt>
      <trkpt lat="46.88979" lon="4.25077">
        <ele>425.04</ele>
        <time>2021-08-12T17:00:06Z</time>
      </trkpt>
      <trkpt lat="46.88972" lon="4.25071">
        <ele>425.04</ele>
        <time>2021-08-12T17:00:08Z</time>
      </trkpt>
      <trkpt lat="46.88965" lon="4.25064">
        <ele>425.04</ele>
        <time>2021-08-12T17:00:10Z</time>
      </trkpt>
      <trkpt lat="46.88961" lon="4.2506">
        <ele>425.04</ele>
        <time>2021-08-12T17:00:11Z</time>
      </trkpt>
      <trkpt lat="46.88955" lon="4.25052">
        <ele>425.04</ele>
        <time>2021-08-12T17:00:13Z</time>
      </trkpt>
      <trkpt lat="46.88934" lon="4.25026">
        <ele>425.04</ele>
        <time>2021-08-12T17:00:20Z</time>
      </trkpt>
      <trkpt lat="46.88928" lon="4.25021">
        <ele>425.04</ele>
        <time>2021-08-12T17:00:22Z</time>
      </trkpt>
      <trkpt lat="46.88924" lon="4.25018">
        <ele>425.04</ele>
        <time>2021-08-12T17:00:23Z</time>
      </trkpt>
      <trkpt lat="46.8892" lon="4.25015">
        <ele>425.04</ele>
        <time>2021-08-12T17:00:24Z</time>
      </trkpt>
      <trkpt lat="46.88917" lon="4.25011">
        <ele>425.04</ele>
        <time>2021-08-12T17:00:25Z</time>
      </trkpt>
      <trkpt lat="46.88913" lon="4.25008">
        <ele>425.04</ele>
        <time>2021-08-12T17:00:26Z</time>
      </trkpt>
      <trkpt lat="46.88877" lon="4.24968">
        <ele>425.52</ele>
        <time>2021-08-12T17:00:36Z</time>
      </trkpt>
      <trkpt lat="46.88855" lon="4.24946">
        <ele>425.52</ele>
        <time>2021-08-12T17:00:42Z</time>
      </trkpt>
      <trkpt lat="46.88851" lon="4.24942">
        <ele>425.52</ele>
        <time>2021-08-12T17:00:43Z</time>
      </trkpt>
      <trkpt lat="46.8881" lon="4.24899">
        <ele>425.52</ele>
        <time>2021-08-12T17:00:54Z</time>
      </trkpt>
      <trkpt lat="46.88783" lon="4.24871">
        <ele>425.52</ele>
        <time>2021-08-12T17:01:01Z</time>
      </trkpt>
      <trkpt lat="46.88771" lon="4.24858">
        <ele>424.08</ele>
        <time>2021-08-12T17:01:04Z</time>
      </trkpt>
      <trkpt lat="46.88734" lon="4.2482">
        <ele>423.12</ele>
        <time>2021-08-12T17:01:13Z</time>
      </trkpt>
      <trkpt lat="46.88688" lon="4.2477">
        <ele>421.68</ele>
        <time>2021-08-12T17:01:23Z</time>
      </trkpt>
      <trkpt lat="46.88638" lon="4.24735">
        <ele>419.75</ele>
        <time>2021-08-12T17:01:31Z</time>
      </trkpt>
      <trkpt lat="46.8858" lon="4.2471">
        <ele>417.83</ele>
        <time>2021-08-12T17:01:39Z</time>
      </trkpt>
      <trkpt lat="46.88557" lon="4.24701">
        <ele>416.39</ele>
        <time>2021-08-12T17:01:42Z</time>
      </trkpt>
      <trkpt lat="46.88493" lon="4.24675">
        <ele>414.47</ele>
        <time>2021-08-12T17:01:50Z</time>
      </trkpt>
      <trkpt lat="46.88418" lon="4.24647">
        <ele>412.06</ele>
        <time>2021-08-12T17:01:59Z</time>
      </trkpt>
      <trkpt lat="46.88388" lon="4.24636">
        <ele>411.58</ele>
        <time>2021-08-12T17:02:03Z</time>
      </trkpt>
      <trkpt lat="46.88381" lon="4.24636">
        <ele>411.58</ele>
        <time>2021-08-12T17:02:04Z</time>
      </trkpt>
      <trkpt lat="46.88375" lon="4.24638">
        <ele>411.1</ele>
        <time>2021-08-12T17:02:05Z</time>
      </trkpt>
      <trkpt lat="46.88334" lon="4.24661">
        <ele>410.14</ele>
        <time>2021-08-12T17:02:12Z</time>
      </trkpt>
      <trkpt lat="46.88299" lon="4.2467">
        <ele>410.14</ele>
        <time>2021-08-12T17:02:18Z</time>
      </trkpt>
      <trkpt lat="46.88294" lon="4.24669">
        <ele>410.14</ele>
        <time>2021-08-12T17:02:19Z</time>
      </trkpt>
      <trkpt lat="46.88288" lon="4.24669">
        <ele>410.14</ele>
        <time>2021-08-12T17:02:20Z</time>
      </trkpt>
      <trkpt lat="46.88283" lon="4.24668">
        <ele>410.14</ele>
        <time>2021-08-12T17:02:21Z</time>
      </trkpt>
      <trkpt lat="46.88279" lon="4.24667">
        <ele>410.14</ele>
        <time>2021-08-12T17:02:22Z</time>
      </trkpt>
      <trkpt lat="46.88233" lon="4.24662">
        <ele>412.06</ele>
        <time>2021-08-12T17:02:33Z</time>
      </trkpt>
      <trkpt lat="46.88207" lon="4.24655">
        <ele>413.02</ele>
        <time>2021-08-12T17:02:41Z</time>
      </trkpt>
      <trkpt lat="46.88184" lon="4.24655">
        <ele>413.98</ele>
        <time>2021-08-12T17:02:49Z</time>
      </trkpt>
      <trkpt lat="46.8817" lon="4.24656">
        <ele>415.43</ele>
        <time>2021-08-12T17:02:56Z</time>
      </trkpt>
      <trkpt lat="46.88157" lon="4.2466">
        <ele>417.35</ele>
        <time>2021-08-12T17:03:05Z</time>
      </trkpt>
      <trkpt lat="46.88143" lon="4.24664">
        <ele>419.27</ele>
        <time>2021-08-12T17:03:13Z</time>
      </trkpt>
      <trkpt lat="46.88131" lon="4.24669">
        <ele>419.27</ele>
        <time>2021-08-12T17:03:20Z</time>
      </trkpt>
      <trkpt lat="46.88111" lon="4.24675">
        <ele>417.83</ele>
        <time>2021-08-12T17:03:26Z</time>
      </trkpt>
      <trkpt lat="46.88084" lon="4.24689">
        <ele>416.87</ele>
        <time>2021-08-12T17:03:33Z</time>
      </trkpt>
      <trkpt lat="46.88074" lon="4.24695">
        <ele>418.31</ele>
        <time>2021-08-12T17:03:39Z</time>
      </trkpt>
      <trkpt lat="46.88062" lon="4.24703">
        <ele>419.27</ele>
        <time>2021-08-12T17:03:47Z</time>
      </trkpt>
      <trkpt lat="46.88046" lon="4.24711">
        <ele>420.23</ele>
        <time>2021-08-12T17:03:55Z</time>
      </trkpt>
      <trkpt lat="46.88036" lon="4.24719">
        <ele>420.71</ele>
        <time>2021-08-12T17:04:01Z</time>
      </trkpt>
      <trkpt lat="46.88034" lon="4.2472">
        <ele>420.71</ele>
        <time>2021-08-12T17:04:02Z</time>
      </trkpt>
      <trkpt lat="46.88031" lon="4.24722">
        <ele>420.71</ele>
        <time>2021-08-12T17:04:03Z</time>
      </trkpt>
      <trkpt lat="46.88029" lon="4.24724">
        <ele>420.71</ele>
        <time>2021-08-12T17:04:04Z</time>
      </trkpt>
      <trkpt lat="46.88027" lon="4.24726">
        <ele>420.23</ele>
        <time>2021-08-12T17:04:05Z</time>
      </trkpt>
      <trkpt lat="46.88025" lon="4.24728">
        <ele>420.23</ele>
        <time>2021-08-12T17:04:06Z</time>
      </trkpt>
      <trkpt lat="46.88011" lon="4.24741">
        <ele>419.27</ele>
        <time>2021-08-12T17:04:11Z</time>
      </trkpt>
      <trkpt lat="46.87988" lon="4.24769">
        <ele>417.83</ele>
        <time>2021-08-12T17:04:18Z</time>
      </trkpt>
      <trkpt lat="46.87971" lon="4.24793">
        <ele>416.39</ele>
        <time>2021-08-12T17:04:23Z</time>
      </trkpt>
      <trkpt lat="46.87956" lon="4.24814">
        <ele>415.91</ele>
        <time>2021-08-12T17:04:29Z</time>
      </trkpt>
      <trkpt lat="46.87955" lon="4.24814">
        <ele>415.91</ele>
        <time>2021-08-12T17:04:34Z</time>
      </trkpt>
      <trkpt lat="46.87956" lon="4.24814">
        <ele>415.91</ele>
        <time>2021-08-12T17:04:35Z</time>
      </trkpt>
      <trkpt lat="46.87957" lon="4.24813">
        <ele>415.43</ele>
        <time>2021-08-12T17:04:36Z</time>
      </trkpt>
      <trkpt lat="46.87957" lon="4.24812">
        <ele>415.43</ele>
        <time>2021-08-12T17:04:37Z</time>
      </trkpt>
      <trkpt lat="46.87954" lon="4.24811">
        <ele>414.95</ele>
        <time>2021-08-12T17:04:41Z</time>
      </trkpt>
      <trkpt lat="46.87953" lon="4.24812">
        <ele>414.95</ele>
        <time>2021-08-12T17:04:42Z</time>
      </trkpt>
      <trkpt lat="46.87951" lon="4.24813">
        <ele>414.95</ele>
        <time>2021-08-12T17:04:43Z</time>
      </trkpt>
      <trkpt lat="46.87949" lon="4.24814">
        <ele>414.95</ele>
        <time>2021-08-12T17:04:44Z</time>
      </trkpt>
      <trkpt lat="46.87945" lon="4.24814">
        <ele>413.98</ele>
        <time>2021-08-12T17:04:45Z</time>
      </trkpt>
      <trkpt lat="46.87937" lon="4.24816">
        <ele>413.02</ele>
        <time>2021-08-12T17:04:47Z</time>
      </trkpt>
      <trkpt lat="46.87932" lon="4.24817">
        <ele>412.54</ele>
        <time>2021-08-12T17:04:48Z</time>
      </trkpt>
      <trkpt lat="46.8791" lon="4.24821">
        <ele>411.1</ele>
        <time>2021-08-12T17:04:53Z</time>
      </trkpt>
      <trkpt lat="46.879" lon="4.24822">
        <ele>410.62</ele>
        <time>2021-08-12T17:04:55Z</time>
      </trkpt>
      <trkpt lat="46.87895" lon="4.24823">
        <ele>410.14</ele>
        <time>2021-08-12T17:04:56Z</time>
      </trkpt>
      <trkpt lat="46.87881" lon="4.24825">
        <ele>408.7</ele>
        <time>2021-08-12T17:04:59Z</time>
      </trkpt>
      <trkpt lat="46.87876" lon="4.24825">
        <ele>408.7</ele>
        <time>2021-08-12T17:05:00Z</time>
      </trkpt>
      <trkpt lat="46.8787" lon="4.24826">
        <ele>408.7</ele>
        <time>2021-08-12T17:05:01Z</time>
      </trkpt>
      <trkpt lat="46.87854" lon="4.24829">
        <ele>408.22</ele>
        <time>2021-08-12T17:05:04Z</time>
      </trkpt>
      <trkpt lat="46.87842" lon="4.24833">
        <ele>407.74</ele>
        <time>2021-08-12T17:05:06Z</time>
      </trkpt>
      <trkpt lat="46.8781" lon="4.24857">
        <ele>406.29</ele>
        <time>2021-08-12T17:05:12Z</time>
      </trkpt>
      <trkpt lat="46.87806" lon="4.24861">
        <ele>405.81</ele>
        <time>2021-08-12T17:05:13Z</time>
      </trkpt>
      <trkpt lat="46.87798" lon="4.24872">
        <ele>404.85</ele>
        <time>2021-08-12T17:05:15Z</time>
      </trkpt>
      <trkpt lat="46.87775" lon="4.24904">
        <ele>401.97</ele>
        <time>2021-08-12T17:05:20Z</time>
      </trkpt>
      <trkpt lat="46.87757" lon="4.2495">
        <ele>398.6</ele>
        <time>2021-08-12T17:05:25Z</time>
      </trkpt>
      <trkpt lat="46.87753" lon="4.24961">
        <ele>398.12</ele>
        <time>2021-08-12T17:05:26Z</time>
      </trkpt>
      <trkpt lat="46.8775" lon="4.24971">
        <ele>398.12</ele>
        <time>2021-08-12T17:05:27Z</time>
      </trkpt>
      <trkpt lat="46.87746" lon="4.24981">
        <ele>396.68</ele>
        <time>2021-08-12T17:05:28Z</time>
      </trkpt>
      <trkpt lat="46.8774" lon="4.24989">
        <ele>396.68</ele>
        <time>2021-08-12T17:05:29Z</time>
      </trkpt>
      <trkpt lat="46.87734" lon="4.24996">
        <ele>395.24</ele>
        <time>2021-08-12T17:05:30Z</time>
      </trkpt>
      <trkpt lat="46.87727" lon="4.25002">
        <ele>395.24</ele>
        <time>2021-08-12T17:05:31Z</time>
      </trkpt>
      <trkpt lat="46.8772" lon="4.25008">
        <ele>393.8</ele>
        <time>2021-08-12T17:05:32Z</time>
      </trkpt>
      <trkpt lat="46.87711" lon="4.25017">
        <ele>393.8</ele>
        <time>2021-08-12T17:05:33Z</time>
      </trkpt>
      <trkpt lat="46.87691" lon="4.25039">
        <ele>391.39</ele>
        <time>2021-08-12T17:05:36Z</time>
      </trkpt>
      <trkpt lat="46.87686" lon="4.25048">
        <ele>391.39</ele>
        <time>2021-08-12T17:05:37Z</time>
      </trkpt>
      <trkpt lat="46.87672" lon="4.25076">
        <ele>389.47</ele>
        <time>2021-08-12T17:05:40Z</time>
      </trkpt>
      <trkpt lat="46.87667" lon="4.25085">
        <ele>388.99</ele>
        <time>2021-08-12T17:05:41Z</time>
      </trkpt>
      <trkpt lat="46.87662" lon="4.25094">
        <ele>388.51</ele>
        <time>2021-08-12T17:05:42Z</time>
      </trkpt>
      <trkpt lat="46.87657" lon="4.251">
        <ele>387.55</ele>
        <time>2021-08-12T17:05:43Z</time>
      </trkpt>
      <trkpt lat="46.87652" lon="4.25106">
        <ele>387.55</ele>
        <time>2021-08-12T17:05:44Z</time>
      </trkpt>
      <trkpt lat="46.87648" lon="4.25112">
        <ele>386.59</ele>
        <time>2021-08-12T17:05:45Z</time>
      </trkpt>
      <trkpt lat="46.87635" lon="4.25127">
        <ele>384.18</ele>
        <time>2021-08-12T17:05:48Z</time>
      </trkpt>
      <trkpt lat="46.87629" lon="4.25133">
        <ele>383.7</ele>
        <time>2021-08-12T17:05:49Z</time>
      </trkpt>
      <trkpt lat="46.87606" lon="4.25164">
        <ele>380.34</ele>
        <time>2021-08-12T17:05:54Z</time>
      </trkpt>
      <trkpt lat="46.876" lon="4.25176">
        <ele>379.38</ele>
        <time>2021-08-12T17:05:56Z</time>
      </trkpt>
      <trkpt lat="46.87588" lon="4.25194">
        <ele>378.9</ele>
        <time>2021-08-12T17:06:01Z</time>
      </trkpt>
      <trkpt lat="46.87577" lon="4.25212">
        <ele>376.97</ele>
        <time>2021-08-12T17:06:07Z</time>
      </trkpt>
      <trkpt lat="46.8757" lon="4.25212">
        <ele>376.01</ele>
        <time>2021-08-12T17:06:09Z</time>
      </trkpt>
      <trkpt lat="46.87568" lon="4.2521">
        <ele>376.01</ele>
        <time>2021-08-12T17:06:10Z</time>
      </trkpt>
      <trkpt lat="46.87565" lon="4.25208">
        <ele>375.53</ele>
        <time>2021-08-12T17:06:11Z</time>
      </trkpt>
      <trkpt lat="46.87563" lon="4.25208">
        <ele>375.53</ele>
        <time>2021-08-12T17:06:12Z</time>
      </trkpt>
      <trkpt lat="46.87563" lon="4.25207">
        <ele>375.05</ele>
        <time>2021-08-12T17:06:17Z</time>
      </trkpt>
      <trkpt lat="46.87562" lon="4.25206">
        <ele>374.57</ele>
        <time>2021-08-12T17:06:31Z</time>
      </trkpt>
      <trkpt lat="46.87546" lon="4.25198">
        <ele>373.13</ele>
        <time>2021-08-12T17:06:36Z</time>
      </trkpt>
      <trkpt lat="46.87513" lon="4.25179">
        <ele>370.24</ele>
        <time>2021-08-12T17:06:42Z</time>
      </trkpt>
      <trkpt lat="46.87508" lon="4.25174">
        <ele>369.76</ele>
        <time>2021-08-12T17:06:43Z</time>
      </trkpt>
      <trkpt lat="46.87505" lon="4.25168">
        <ele>369.28</ele>
        <time>2021-08-12T17:06:44Z</time>
      </trkpt>
      <trkpt lat="46.87503" lon="4.25164">
        <ele>369.28</ele>
        <time>2021-08-12T17:06:45Z</time>
      </trkpt>
      <trkpt lat="46.87501" lon="4.2516">
        <ele>369.28</ele>
        <time>2021-08-12T17:06:46Z</time>
      </trkpt>
      <trkpt lat="46.87499" lon="4.25158">
        <ele>369.28</ele>
        <time>2021-08-12T17:06:47Z</time>
      </trkpt>
      <trkpt lat="46.87496" lon="4.25158">
        <ele>368.8</ele>
        <time>2021-08-12T17:06:48Z</time>
      </trkpt>
      <trkpt lat="46.87492" lon="4.2516">
        <ele>367.84</ele>
        <time>2021-08-12T17:06:49Z</time>
      </trkpt>
      <trkpt lat="46.87486" lon="4.25161">
        <ele>367.36</ele>
        <time>2021-08-12T17:06:50Z</time>
      </trkpt>
      <trkpt lat="46.87475" lon="4.25165">
        <ele>365.92</ele>
        <time>2021-08-12T17:06:52Z</time>
      </trkpt>
      <trkpt lat="46.87469" lon="4.25166">
        <ele>365.92</ele>
        <time>2021-08-12T17:06:53Z</time>
      </trkpt>
      <trkpt lat="46.87456" lon="4.25169">
        <ele>364.96</ele>
        <time>2021-08-12T17:06:55Z</time>
      </trkpt>
      <trkpt lat="46.87429" lon="4.25181">
        <ele>363.52</ele>
        <time>2021-08-12T17:06:59Z</time>
      </trkpt>
      <trkpt lat="46.87423" lon="4.25185">
        <ele>362.07</ele>
        <time>2021-08-12T17:07:00Z</time>
      </trkpt>
      <trkpt lat="46.87416" lon="4.25191">
        <ele>362.07</ele>
        <time>2021-08-12T17:07:01Z</time>
      </trkpt>
      <trkpt lat="46.87378" lon="4.25231">
        <ele>360.15</ele>
        <time>2021-08-12T17:07:07Z</time>
      </trkpt>
      <trkpt lat="46.87348" lon="4.25283">
        <ele>358.23</ele>
        <time>2021-08-12T17:07:13Z</time>
      </trkpt>
      <trkpt lat="46.87339" lon="4.25301">
        <ele>357.75</ele>
        <time>2021-08-12T17:07:15Z</time>
      </trkpt>
      <trkpt lat="46.87333" lon="4.25309">
        <ele>357.27</ele>
        <time>2021-08-12T17:07:16Z</time>
      </trkpt>
      <trkpt lat="46.87328" lon="4.25316">
        <ele>356.31</ele>
        <time>2021-08-12T17:07:17Z</time>
      </trkpt>
      <trkpt lat="46.87319" lon="4.25332">
        <ele>355.83</ele>
        <time>2021-08-12T17:07:19Z</time>
      </trkpt>
      <trkpt lat="46.87303" lon="4.25361">
        <ele>354.38</ele>
        <time>2021-08-12T17:07:23Z</time>
      </trkpt>
      <trkpt lat="46.873" lon="4.25369">
        <ele>353.9</ele>
        <time>2021-08-12T17:07:24Z</time>
      </trkpt>
      <trkpt lat="46.87298" lon="4.25378">
        <ele>353.42</ele>
        <time>2021-08-12T17:07:25Z</time>
      </trkpt>
      <trkpt lat="46.87286" lon="4.25418">
        <ele>350.54</ele>
        <time>2021-08-12T17:07:29Z</time>
      </trkpt>
      <trkpt lat="46.87281" lon="4.25427">
        <ele>350.54</ele>
        <time>2021-08-12T17:07:30Z</time>
      </trkpt>
      <trkpt lat="46.87257" lon="4.25472">
        <ele>347.17</ele>
        <time>2021-08-12T17:07:35Z</time>
      </trkpt>
      <trkpt lat="46.87238" lon="4.25512">
        <ele>343.81</ele>
        <time>2021-08-12T17:07:39Z</time>
      </trkpt>
      <trkpt lat="46.87228" lon="4.25534">
        <ele>342.85</ele>
        <time>2021-08-12T17:07:41Z</time>
      </trkpt>
      <trkpt lat="46.87208" lon="4.2559">
        <ele>339.48</ele>
        <time>2021-08-12T17:07:46Z</time>
      </trkpt>
      <trkpt lat="46.87203" lon="4.256">
        <ele>339.48</ele>
        <time>2021-08-12T17:07:47Z</time>
      </trkpt>
      <trkpt lat="46.87188" lon="4.25631">
        <ele>338.04</ele>
        <time>2021-08-12T17:07:50Z</time>
      </trkpt>
      <trkpt lat="46.87174" lon="4.25661">
        <ele>337.08</ele>
        <time>2021-08-12T17:07:53Z</time>
      </trkpt>
      <trkpt lat="46.87164" lon="4.25678">
        <ele>336.6</ele>
        <time>2021-08-12T17:07:55Z</time>
      </trkpt>
      <trkpt lat="46.87158" lon="4.25685">
        <ele>336.12</ele>
        <time>2021-08-12T17:07:56Z</time>
      </trkpt>
      <trkpt lat="46.87119" lon="4.25728">
        <ele>333.71</ele>
        <time>2021-08-12T17:08:02Z</time>
      </trkpt>
      <trkpt lat="46.87065" lon="4.25785">
        <ele>330.83</ele>
        <time>2021-08-12T17:08:10Z</time>
      </trkpt>
      <trkpt lat="46.8703" lon="4.25819">
        <ele>328.91</ele>
        <time>2021-08-12T17:08:15Z</time>
      </trkpt>
      <trkpt lat="46.87025" lon="4.25825">
        <ele>328.91</ele>
        <time>2021-08-12T17:08:16Z</time>
      </trkpt>
      <trkpt lat="46.8702" lon="4.2583">
        <ele>327.95</ele>
        <time>2021-08-12T17:08:17Z</time>
      </trkpt>
      <trkpt lat="46.87015" lon="4.25831">
        <ele>327.95</ele>
        <time>2021-08-12T17:08:18Z</time>
      </trkpt>
      <trkpt lat="46.87009" lon="4.2583">
        <ele>327.95</ele>
        <time>2021-08-12T17:08:19Z</time>
      </trkpt>
      <trkpt lat="46.87004" lon="4.25828">
        <ele>327.47</ele>
        <time>2021-08-12T17:08:20Z</time>
      </trkpt>
      <trkpt lat="46.86999" lon="4.25827">
        <ele>326.99</ele>
        <time>2021-08-12T17:08:21Z</time>
      </trkpt>
      <trkpt lat="46.86994" lon="4.25828">
        <ele>326.99</ele>
        <time>2021-08-12T17:08:22Z</time>
      </trkpt>
      <trkpt lat="46.86989" lon="4.2583">
        <ele>326.99</ele>
        <time>2021-08-12T17:08:23Z</time>
      </trkpt>
      <trkpt lat="46.86981" lon="4.2584">
        <ele>326.5</ele>
        <time>2021-08-12T17:08:24Z</time>
      </trkpt>
      <trkpt lat="46.86975" lon="4.25845">
        <ele>326.5</ele>
        <time>2021-08-12T17:08:25Z</time>
      </trkpt>
      <trkpt lat="46.86969" lon="4.25849">
        <ele>326.02</ele>
        <time>2021-08-12T17:08:26Z</time>
      </trkpt>
      <trkpt lat="46.86927" lon="4.25874">
        <ele>324.1</ele>
        <time>2021-08-12T17:08:33Z</time>
      </trkpt>
      <trkpt lat="46.86914" lon="4.25883">
        <ele>323.62</ele>
        <time>2021-08-12T17:08:35Z</time>
      </trkpt>
      <trkpt lat="46.86862" lon="4.25929">
        <ele>322.18</ele>
        <time>2021-08-12T17:08:43Z</time>
      </trkpt>
      <trkpt lat="46.86806" lon="4.25978">
        <ele>319.78</ele>
        <time>2021-08-12T17:08:52Z</time>
      </trkpt>
      <trkpt lat="46.86799" lon="4.25981">
        <ele>319.3</ele>
        <time>2021-08-12T17:08:53Z</time>
      </trkpt>
      <trkpt lat="46.86792" lon="4.25981">
        <ele>319.3</ele>
        <time>2021-08-12T17:08:54Z</time>
      </trkpt>
      <trkpt lat="46.86786" lon="4.25979">
        <ele>318.81</ele>
        <time>2021-08-12T17:08:55Z</time>
      </trkpt>
      <trkpt lat="46.86782" lon="4.25974">
        <ele>318.81</ele>
        <time>2021-08-12T17:08:56Z</time>
      </trkpt>
      <trkpt lat="46.86778" lon="4.2597">
        <ele>318.81</ele>
        <time>2021-08-12T17:08:57Z</time>
      </trkpt>
      <trkpt lat="46.86768" lon="4.25955">
        <ele>318.81</ele>
        <time>2021-08-12T17:09:01Z</time>
      </trkpt>
      <trkpt lat="46.86767" lon="4.2595">
        <ele>318.81</ele>
        <time>2021-08-12T17:09:02Z</time>
      </trkpt>
      <trkpt lat="46.86766" lon="4.25945">
        <ele>318.81</ele>
        <time>2021-08-12T17:09:03Z</time>
      </trkpt>
      <trkpt lat="46.86765" lon="4.2594">
        <ele>318.81</ele>
        <time>2021-08-12T17:09:04Z</time>
      </trkpt>
      <trkpt lat="46.86764" lon="4.25935">
        <ele>318.81</ele>
        <time>2021-08-12T17:09:05Z</time>
      </trkpt>
      <trkpt lat="46.86764" lon="4.25929">
        <ele>318.81</ele>
        <time>2021-08-12T17:09:06Z</time>
      </trkpt>
      <trkpt lat="46.86763" lon="4.25922">
        <ele>318.81</ele>
        <time>2021-08-12T17:09:07Z</time>
      </trkpt>
      <trkpt lat="46.86763" lon="4.25916">
        <ele>318.81</ele>
        <time>2021-08-12T17:09:08Z</time>
      </trkpt>
      <trkpt lat="46.86759" lon="4.25898">
        <ele>318.33</ele>
        <time>2021-08-12T17:09:11Z</time>
      </trkpt>
      <trkpt lat="46.86746" lon="4.25835">
        <ele>318.33</ele>
        <time>2021-08-12T17:09:21Z</time>
      </trkpt>
      <trkpt lat="46.86731" lon="4.25764">
        <ele>318.33</ele>
        <time>2021-08-12T17:09:32Z</time>
      </trkpt>
      <trkpt lat="46.86717" lon="4.257">
        <ele>317.85</ele>
        <time>2021-08-12T17:09:41Z</time>
      </trkpt>
      <trkpt lat="46.86699" lon="4.25623">
        <ele>317.37</ele>
        <time>2021-08-12T17:09:51Z</time>
      </trkpt>
      <trkpt lat="46.86695" lon="4.25607">
        <ele>316.89</ele>
        <time>2021-08-12T17:09:53Z</time>
      </trkpt>
      <trkpt lat="46.86692" lon="4.256">
        <ele>316.89</ele>
        <time>2021-08-12T17:09:54Z</time>
      </trkpt>
      <trkpt lat="46.86689" lon="4.25592">
        <ele>316.41</ele>
        <time>2021-08-12T17:09:55Z</time>
      </trkpt>
      <trkpt lat="46.86687" lon="4.25584">
        <ele>316.41</ele>
        <time>2021-08-12T17:09:56Z</time>
      </trkpt>
      <trkpt lat="46.86685" lon="4.25576">
        <ele>316.41</ele>
        <time>2021-08-12T17:09:57Z</time>
      </trkpt>
      <trkpt lat="46.86657" lon="4.25501">
        <ele>315.45</ele>
        <time>2021-08-12T17:10:06Z</time>
      </trkpt>
      <trkpt lat="46.86632" lon="4.25436">
        <ele>314.49</ele>
        <time>2021-08-12T17:10:14Z</time>
      </trkpt>
      <trkpt lat="46.86613" lon="4.25366">
        <ele>314.01</ele>
        <time>2021-08-12T17:10:22Z</time>
      </trkpt>
      <trkpt lat="46.8658" lon="4.25258">
        <ele>312.57</ele>
        <time>2021-08-12T17:10:34Z</time>
      </trkpt>
      <trkpt lat="46.86551" lon="4.25182">
        <ele>311.6</ele>
        <time>2021-08-12T17:10:43Z</time>
      </trkpt>
      <trkpt lat="46.86516" lon="4.25102">
        <ele>310.64</ele>
        <time>2021-08-12T17:10:53Z</time>
      </trkpt>
      <trkpt lat="46.86475" lon="4.25">
        <ele>308.72</ele>
        <time>2021-08-12T17:11:05Z</time>
      </trkpt>
      <trkpt lat="46.86445" lon="4.24927">
        <ele>308.72</ele>
        <time>2021-08-12T17:11:14Z</time>
      </trkpt>
      <trkpt lat="46.86442" lon="4.24919">
        <ele>308.72</ele>
        <time>2021-08-12T17:11:15Z</time>
      </trkpt>
      <trkpt lat="46.86419" lon="4.24863">
        <ele>308.72</ele>
        <time>2021-08-12T17:11:23Z</time>
      </trkpt>
      <trkpt lat="46.86404" lon="4.24827">
        <ele>309.68</ele>
        <time>2021-08-12T17:11:29Z</time>
      </trkpt>
      <trkpt lat="46.86382" lon="4.24779">
        <ele>310.16</ele>
        <time>2021-08-12T17:11:37Z</time>
      </trkpt>
      <trkpt lat="46.86353" lon="4.24719">
        <ele>310.16</ele>
        <time>2021-08-12T17:11:47Z</time>
      </trkpt>
      <trkpt lat="46.86331" lon="4.24674">
        <ele>309.68</ele>
        <time>2021-08-12T17:11:54Z</time>
      </trkpt>
      <trkpt lat="46.86307" lon="4.24629">
        <ele>308.72</ele>
        <time>2021-08-12T17:12:01Z</time>
      </trkpt>
      <trkpt lat="46.86291" lon="4.24605">
        <ele>308.72</ele>
        <time>2021-08-12T17:12:05Z</time>
      </trkpt>
      <trkpt lat="46.86284" lon="4.24594">
        <ele>308.72</ele>
        <time>2021-08-12T17:12:07Z</time>
      </trkpt>
      <trkpt lat="46.86281" lon="4.2459">
        <ele>308.24</ele>
        <time>2021-08-12T17:12:08Z</time>
      </trkpt>
      <trkpt lat="46.86265" lon="4.24564">
        <ele>308.24</ele>
        <time>2021-08-12T17:12:13Z</time>
      </trkpt>
      <trkpt lat="46.86247" lon="4.24525">
        <ele>308.24</ele>
        <time>2021-08-12T17:12:21Z</time>
      </trkpt>
      <trkpt lat="46.8623" lon="4.245">
        <ele>308.24</ele>
        <time>2021-08-12T17:12:28Z</time>
      </trkpt>
      <trkpt lat="46.86206" lon="4.2447">
        <ele>307.76</ele>
        <time>2021-08-12T17:12:37Z</time>
      </trkpt>
      <trkpt lat="46.86185" lon="4.24449">
        <ele>307.76</ele>
        <time>2021-08-12T17:12:44Z</time>
      </trkpt>
      <trkpt lat="46.86151" lon="4.24411">
        <ele>306.32</ele>
        <time>2021-08-12T17:12:54Z</time>
      </trkpt>
      <trkpt lat="46.86142" lon="4.24396">
        <ele>305.84</ele>
        <time>2021-08-12T17:12:57Z</time>
      </trkpt>
      <trkpt lat="46.86139" lon="4.2439">
        <ele>305.84</ele>
        <time>2021-08-12T17:12:58Z</time>
      </trkpt>
      <trkpt lat="46.86137" lon="4.24383">
        <ele>305.84</ele>
        <time>2021-08-12T17:12:59Z</time>
      </trkpt>
      <trkpt lat="46.86136" lon="4.24375">
        <ele>305.84</ele>
        <time>2021-08-12T17:13:00Z</time>
      </trkpt>
      <trkpt lat="46.86135" lon="4.24367">
        <ele>305.36</ele>
        <time>2021-08-12T17:13:01Z</time>
      </trkpt>
      <trkpt lat="46.86137" lon="4.24314">
        <ele>304.39</ele>
        <time>2021-08-12T17:13:08Z</time>
      </trkpt>
      <trkpt lat="46.86137" lon="4.24309">
        <ele>304.39</ele>
        <time>2021-08-12T17:13:09Z</time>
      </trkpt>
      <trkpt lat="46.86135" lon="4.24304">
        <ele>304.39</ele>
        <time>2021-08-12T17:13:10Z</time>
      </trkpt>
      <trkpt lat="46.86133" lon="4.24301">
        <ele>304.39</ele>
        <time>2021-08-12T17:13:11Z</time>
      </trkpt>
      <trkpt lat="46.8613" lon="4.24297">
        <ele>303.91</ele>
        <time>2021-08-12T17:13:12Z</time>
      </trkpt>
      <trkpt lat="46.86128" lon="4.24292">
        <ele>303.91</ele>
        <time>2021-08-12T17:13:13Z</time>
      </trkpt>
      <trkpt lat="46.86128" lon="4.24286">
        <ele>303.43</ele>
        <time>2021-08-12T17:13:14Z</time>
      </trkpt>
      <trkpt lat="46.86128" lon="4.24279">
        <ele>303.43</ele>
        <time>2021-08-12T17:13:15Z</time>
      </trkpt>
      <trkpt lat="46.86128" lon="4.24274">
        <ele>302.95</ele>
        <time>2021-08-12T17:13:16Z</time>
      </trkpt>
      <trkpt lat="46.86129" lon="4.24269">
        <ele>302.95</ele>
        <time>2021-08-12T17:13:17Z</time>
      </trkpt>
      <trkpt lat="46.86129" lon="4.24263">
        <ele>302.95</ele>
        <time>2021-08-12T17:13:21Z</time>
      </trkpt>
      <trkpt lat="46.8613" lon="4.24261">
        <ele>302.47</ele>
        <time>2021-08-12T17:13:30Z</time>
      </trkpt>
      <trkpt lat="46.86129" lon="4.24261">
        <ele>302.47</ele>
        <time>2021-08-12T17:13:33Z</time>
      </trkpt>
      <trkpt lat="46.86129" lon="4.24264">
        <ele>302.47</ele>
        <time>2021-08-12T17:13:35Z</time>
      </trkpt>
      <trkpt lat="46.86128" lon="4.24266">
        <ele>302.47</ele>
        <time>2021-08-12T17:13:37Z</time>
      </trkpt>
      <trkpt lat="46.86127" lon="4.24282">
        <ele>302.47</ele>
        <time>2021-08-12T17:13:43Z</time>
      </trkpt>
      <trkpt lat="46.86132" lon="4.24296">
        <ele>302.47</ele>
        <time>2021-08-12T17:13:47Z</time>
      </trkpt>
      <trkpt lat="46.86135" lon="4.24297">
        <ele>302.47</ele>
        <time>2021-08-12T17:13:48Z</time>
      </trkpt>
      <trkpt lat="46.86144" lon="4.24294">
        <ele>303.43</ele>
        <time>2021-08-12T17:13:53Z</time>
      </trkpt>
      <trkpt lat="46.86146" lon="4.24292">
        <ele>303.43</ele>
        <time>2021-08-12T17:13:59Z</time>
      </trkpt>
      <trkpt lat="46.86144" lon="4.2429">
        <ele>303.43</ele>
        <time>2021-08-12T17:14:14Z</time>
      </trkpt>
      <trkpt lat="46.86141" lon="4.2429">
        <ele>303.43</ele>
        <time>2021-08-12T17:14:28Z</time>
      </trkpt>
      <trkpt lat="46.86142" lon="4.24291">
        <ele>303.43</ele>
        <time>2021-08-12T17:14:43Z</time>
      </trkpt>
      <trkpt lat="46.86141" lon="4.24291">
        <ele>302.95</ele>
        <time>2021-08-12T17:14:57Z</time>
      </trkpt>
      <trkpt lat="46.86138" lon="4.24291">
        <ele>301.99</ele>
        <time>2021-08-12T17:15:10Z</time>
      </trkpt>
      <trkpt lat="46.86136" lon="4.2429">
        <ele>301.99</ele>
        <time>2021-08-12T17:15:23Z</time>
      </trkpt>
      <trkpt lat="46.86135" lon="4.2429">
        <ele>301.99</ele>
        <time>2021-08-12T17:15:35Z</time>
      </trkpt>
      <trkpt lat="46.86135" lon="4.24291">
        <ele>301.99</ele>
        <time>2021-08-12T17:15:36Z</time>
      </trkpt>
      <trkpt lat="46.86135" lon="4.2429">
        <ele>301.51</ele>
        <time>2021-08-12T17:15:43Z</time>
      </trkpt>
      <trkpt lat="46.86133" lon="4.24288">
        <ele>301.51</ele>
        <time>2021-08-12T17:16:02Z</time>
      </trkpt>
      <trkpt lat="46.86132" lon="4.24287">
        <ele>301.03</ele>
        <time>2021-08-12T17:16:14Z</time>
      </trkpt>
      <trkpt lat="46.86131" lon="4.24285">
        <ele>301.03</ele>
        <time>2021-08-12T17:16:29Z</time>
      </trkpt>
      <trkpt lat="46.86134" lon="4.24284">
        <ele>301.03</ele>
        <time>2021-08-12T17:16:42Z</time>
      </trkpt>
      <trkpt lat="46.86133" lon="4.24284">
        <ele>300.55</ele>
        <time>2021-08-12T17:16:57Z</time>
      </trkpt>
      <trkpt lat="46.86131" lon="4.24283">
        <ele>300.55</ele>
        <time>2021-08-12T17:17:14Z</time>
      </trkpt>
      <trkpt lat="46.86131" lon="4.24282">
        <ele>300.07</ele>
        <time>2021-08-12T17:17:31Z</time>
      </trkpt>
      <trkpt lat="46.86132" lon="4.24285">
        <ele>299.59</ele>
        <time>2021-08-12T17:17:44Z</time>
      </trkpt>
      <trkpt lat="46.86133" lon="4.24287">
        <ele>299.11</ele>
        <time>2021-08-12T17:17:58Z</time>
      </trkpt>
      <trkpt lat="46.86134" lon="4.24286">
        <ele>299.11</ele>
        <time>2021-08-12T17:18:08Z</time>
      </trkpt>
      <trkpt lat="46.86136" lon="4.24288">
        <ele>298.15</ele>
        <time>2021-08-12T17:18:24Z</time>
      </trkpt>
      <trkpt lat="46.86137" lon="4.2429">
        <ele>297.67</ele>
        <time>2021-08-12T17:18:42Z</time>
      </trkpt>
      <trkpt lat="46.86137" lon="4.2429">
        <ele>296.7</ele>
        <time>2021-08-12T17:18:54Z</time>
      </trkpt>
      <trkpt lat="46.86138" lon="4.2429">
        <ele>295.74</ele>
        <time>2021-08-12T17:19:06Z</time>
      </trkpt>
      <trkpt lat="46.86136" lon="4.24293">
        <ele>294.3</ele>
        <time>2021-08-12T17:19:21Z</time>
      </trkpt>
      <trkpt lat="46.86134" lon="4.24292">
        <ele>293.82</ele>
        <time>2021-08-12T17:19:36Z</time>
      </trkpt>
      <trkpt lat="46.86133" lon="4.2429">
        <ele>294.3</ele>
        <time>2021-08-12T17:19:52Z</time>
      </trkpt>
      <trkpt lat="46.86133" lon="4.2429">
        <ele>295.26</ele>
        <time>2021-08-12T17:20:04Z</time>
      </trkpt>
      <trkpt lat="46.86135" lon="4.24291">
        <ele>296.22</ele>
        <time>2021-08-12T17:20:24Z</time>
      </trkpt>
      <trkpt lat="46.86135" lon="4.24288">
        <ele>296.7</ele>
        <time>2021-08-12T17:20:30Z</time>
      </trkpt>
      <trkpt lat="46.86136" lon="4.24285">
        <ele>296.7</ele>
        <time>2021-08-12T17:20:31Z</time>
      </trkpt>
      <trkpt lat="46.86135" lon="4.24283">
        <ele>296.7</ele>
        <time>2021-08-12T17:20:35Z</time>
      </trkpt>
      <trkpt lat="46.86135" lon="4.24283">
        <ele>296.7</ele>
        <time>2021-08-12T17:20:40Z</time>
      </trkpt>
      <trkpt lat="46.86133" lon="4.24283">
        <ele>295.74</ele>
        <time>2021-08-12T17:20:51Z</time>
      </trkpt>
      <trkpt lat="46.86134" lon="4.24283">
        <ele>295.26</ele>
        <time>2021-08-12T17:21:08Z</time>
      </trkpt>
      <trkpt lat="46.86134" lon="4.24282">
        <ele>297.18</ele>
        <time>2021-08-12T17:21:22Z</time>
      </trkpt>
      <trkpt lat="46.86133" lon="4.24282">
        <ele>297.18</ele>
        <time>2021-08-12T17:21:32Z</time>
      </trkpt>
      <trkpt lat="46.86132" lon="4.24281">
        <ele>296.22</ele>
        <time>2021-08-12T17:21:38Z</time>
      </trkpt>
      <trkpt lat="46.8613" lon="4.24282">
        <ele>297.18</ele>
        <time>2021-08-12T17:21:51Z</time>
      </trkpt>
      <trkpt lat="46.86132" lon="4.24286">
        <ele>295.74</ele>
        <time>2021-08-12T17:22:05Z</time>
      </trkpt>
      <trkpt lat="46.86131" lon="4.24286">
        <ele>297.18</ele>
        <time>2021-08-12T17:22:10Z</time>
      </trkpt>
      <trkpt lat="46.86131" lon="4.24285">
        <ele>295.74</ele>
        <time>2021-08-12T17:22:20Z</time>
      </trkpt>
      <trkpt lat="46.86134" lon="4.24287">
        <ele>297.18</ele>
        <time>2021-08-12T17:22:33Z</time>
      </trkpt>
      <trkpt lat="46.86136" lon="4.24287">
        <ele>295.74</ele>
        <time>2021-08-12T17:22:47Z</time>
      </trkpt>
      <trkpt lat="46.86139" lon="4.24286">
        <ele>297.67</ele>
        <time>2021-08-12T17:22:52Z</time>
      </trkpt>
      <trkpt lat="46.86141" lon="4.24286">
        <ele>296.22</ele>
        <time>2021-08-12T17:23:01Z</time>
      </trkpt>
      <trkpt lat="46.86138" lon="4.24292">
        <ele>298.15</ele>
        <time>2021-08-12T17:23:09Z</time>
      </trkpt>
      <trkpt lat="46.86138" lon="4.24294">
        <ele>298.15</ele>
        <time>2021-08-12T17:23:10Z</time>
      </trkpt>
      <trkpt lat="46.86141" lon="4.24308">
        <ele>297.67</ele>
        <time>2021-08-12T17:23:18Z</time>
      </trkpt>
      <trkpt lat="46.86143" lon="4.24308">
        <ele>297.67</ele>
        <time>2021-08-12T17:23:19Z</time>
      </trkpt>
      <trkpt lat="46.8615" lon="4.24309">
        <ele>299.11</ele>
        <time>2021-08-12T17:23:23Z</time>
      </trkpt>
      <trkpt lat="46.86152" lon="4.24309">
        <ele>299.59</ele>
        <time>2021-08-12T17:23:29Z</time>
      </trkpt>
      <trkpt lat="46.86147" lon="4.2431">
        <ele>299.59</ele>
        <time>2021-08-12T17:23:34Z</time>
      </trkpt>
      <trkpt lat="46.86143" lon="4.24309">
        <ele>298.63</ele>
        <time>2021-08-12T17:23:39Z</time>
      </trkpt>
      <trkpt lat="46.86141" lon="4.24307">
        <ele>298.15</ele>
        <time>2021-08-12T17:23:42Z</time>
      </trkpt>
      <trkpt lat="46.86134" lon="4.24299">
        <ele>298.15</ele>
        <time>2021-08-12T17:23:51Z</time>
      </trkpt>
      <trkpt lat="46.86125" lon="4.24291">
        <ele>297.18</ele>
        <time>2021-08-12T17:24:01Z</time>
      </trkpt>
      <trkpt lat="46.8612" lon="4.24289">
        <ele>296.7</ele>
        <time>2021-08-12T17:24:09Z</time>
      </trkpt>
      <trkpt lat="46.8612" lon="4.2429">
        <ele>296.7</ele>
        <time>2021-08-12T17:24:22Z</time>
      </trkpt>
      <trkpt lat="46.8612" lon="4.24288">
        <ele>296.7</ele>
        <time>2021-08-12T17:24:37Z</time>
      </trkpt>
      <trkpt lat="46.8612" lon="4.2429">
        <ele>296.7</ele>
        <time>2021-08-12T17:24:47Z</time>
      </trkpt>
      <trkpt lat="46.8612" lon="4.2429">
        <ele>296.22</ele>
        <time>2021-08-12T17:24:57Z</time>
      </trkpt>
      <trkpt lat="46.86124" lon="4.24291">
        <ele>297.18</ele>
        <time>2021-08-12T17:25:03Z</time>
      </trkpt>
      <trkpt lat="46.86123" lon="4.2429">
        <ele>297.67</ele>
        <time>2021-08-12T17:25:11Z</time>
      </trkpt>
      <trkpt lat="46.86124" lon="4.2428">
        <ele>297.67</ele>
        <time>2021-08-12T17:25:15Z</time>
      </trkpt>
      <trkpt lat="46.86125" lon="4.24277">
        <ele>297.67</ele>
        <time>2021-08-12T17:25:16Z</time>
      </trkpt>
      <trkpt lat="46.86128" lon="4.24236">
        <ele>294.78</ele>
        <time>2021-08-12T17:25:25Z</time>
      </trkpt>
      <trkpt lat="46.86131" lon="4.24209">
        <ele>294.3</ele>
        <time>2021-08-12T17:25:30Z</time>
      </trkpt>
      <trkpt lat="46.86138" lon="4.24163">
        <ele>291.9</ele>
        <time>2021-08-12T17:25:38Z</time>
      </trkpt>
      <trkpt lat="46.86139" lon="4.24155">
        <ele>295.26</ele>
        <time>2021-08-12T17:25:40Z</time>
      </trkpt>
      <trkpt lat="46.86139" lon="4.24153">
        <ele>294.78</ele>
        <time>2021-08-12T17:25:41Z</time>
      </trkpt>
      <trkpt lat="46.86138" lon="4.24151">
        <ele>294.78</ele>
        <time>2021-08-12T17:25:42Z</time>
      </trkpt>
      <trkpt lat="46.86136" lon="4.24151">
        <ele>295.74</ele>
        <time>2021-08-12T17:25:43Z</time>
      </trkpt>
      <trkpt lat="46.86135" lon="4.24154">
        <ele>295.74</ele>
        <time>2021-08-12T17:25:44Z</time>
      </trkpt>
      <trkpt lat="46.86134" lon="4.24156">
        <ele>293.34</ele>
        <time>2021-08-12T17:25:45Z</time>
      </trkpt>
      <trkpt lat="46.86131" lon="4.24158">
        <ele>293.34</ele>
        <time>2021-08-12T17:25:46Z</time>
      </trkpt>
      <trkpt lat="46.86129" lon="4.2416">
        <ele>293.34</ele>
        <time>2021-08-12T17:25:47Z</time>
      </trkpt>
      <trkpt lat="46.86126" lon="4.2416">
        <ele>293.34</ele>
        <time>2021-08-12T17:25:48Z</time>
      </trkpt>
      <trkpt lat="46.86119" lon="4.24162">
        <ele>294.78</ele>
        <time>2021-08-12T17:25:50Z</time>
      </trkpt>
      <trkpt lat="46.86099" lon="4.24161">
        <ele>292.86</ele>
        <time>2021-08-12T17:25:55Z</time>
      </trkpt>
      <trkpt lat="46.86096" lon="4.24158">
        <ele>292.86</ele>
        <time>2021-08-12T17:25:56Z</time>
      </trkpt>
      <trkpt lat="46.86094" lon="4.24154">
        <ele>292.86</ele>
        <time>2021-08-12T17:25:57Z</time>
      </trkpt>
      <trkpt lat="46.86092" lon="4.24149">
        <ele>292.86</ele>
        <time>2021-08-12T17:25:58Z</time>
      </trkpt>
      <trkpt lat="46.8609" lon="4.24144">
        <ele>292.86</ele>
        <time>2021-08-12T17:25:59Z</time>
      </trkpt>
      <trkpt lat="46.86089" lon="4.24139">
        <ele>292.86</ele>
        <time>2021-08-12T17:26:00Z</time>
      </trkpt>
      <trkpt lat="46.86076" lon="4.24083">
        <ele>291.9</ele>
        <time>2021-08-12T17:26:09Z</time>
      </trkpt>
      <trkpt lat="46.86065" lon="4.24034">
        <ele>290.46</ele>
        <time>2021-08-12T17:26:17Z</time>
      </trkpt>
      <trkpt lat="46.86056" lon="4.24006">
        <ele>289.01</ele>
        <time>2021-08-12T17:26:22Z</time>
      </trkpt>
      <trkpt lat="46.86041" lon="4.23983">
        <ele>289.97</ele>
        <time>2021-08-12T17:26:27Z</time>
      </trkpt>
      <trkpt lat="46.8603" lon="4.23968">
        <ele>289.97</ele>
        <time>2021-08-12T17:26:32Z</time>
      </trkpt>
      <trkpt lat="46.86028" lon="4.23967">
        <ele>291.42</ele>
        <time>2021-08-12T17:26:33Z</time>
      </trkpt>
      <trkpt lat="46.86027" lon="4.23968">
        <ele>291.9</ele>
        <time>2021-08-12T17:26:34Z</time>
      </trkpt>
      <trkpt lat="46.86027" lon="4.2397">
        <ele>291.9</ele>
        <time>2021-08-12T17:26:35Z</time>
      </trkpt>
      <trkpt lat="46.86028" lon="4.23971">
        <ele>291.9</ele>
        <time>2021-08-12T17:26:36Z</time>
      </trkpt>
      <trkpt lat="46.86029" lon="4.23974">
        <ele>291.9</ele>
        <time>2021-08-12T17:26:37Z</time>
      </trkpt>
      <trkpt lat="46.8603" lon="4.23977">
        <ele>291.9</ele>
        <time>2021-08-12T17:26:38Z</time>
      </trkpt>
      <trkpt lat="46.8603" lon="4.23979">
        <ele>291.9</ele>
        <time>2021-08-12T17:26:39Z</time>
      </trkpt>
      <trkpt lat="46.8603" lon="4.23982">
        <ele>290.46</ele>
        <time>2021-08-12T17:26:41Z</time>
      </trkpt>
      <trkpt lat="46.8603" lon="4.23979">
        <ele>289.97</ele>
        <time>2021-08-12T17:26:52Z</time>
      </trkpt>
      <trkpt lat="46.8603" lon="4.23977">
        <ele>291.42</ele>
        <time>2021-08-12T17:26:57Z</time>
      </trkpt>
      <trkpt lat="46.86029" lon="4.23971">
        <ele>291.42</ele>
        <time>2021-08-12T17:27:16Z</time>
      </trkpt>
      <trkpt lat="46.86029" lon="4.2397">
        <ele>290.94</ele>
        <time>2021-08-12T17:27:27Z</time>
      </trkpt>
      <trkpt lat="46.86029" lon="4.23968">
        <ele>291.42</ele>
        <time>2021-08-12T17:27:37Z</time>
      </trkpt>
      <trkpt lat="46.8603" lon="4.23962">
        <ele>291.42</ele>
        <time>2021-08-12T17:27:50Z</time>
      </trkpt>
      <trkpt lat="46.86028" lon="4.23961">
        <ele>291.42</ele>
        <time>2021-08-12T17:28:03Z</time>
      </trkpt>
      <trkpt lat="46.86028" lon="4.23966">
        <ele>291.9</ele>
        <time>2021-08-12T17:28:19Z</time>
      </trkpt>
      <trkpt lat="46.86028" lon="4.23966">
        <ele>291.42</ele>
        <time>2021-08-12T17:28:36Z</time>
      </trkpt>
      <trkpt lat="46.86027" lon="4.2397">
        <ele>291.42</ele>
        <time>2021-08-12T17:28:56Z</time>
      </trkpt>
      <trkpt lat="46.8603" lon="4.23969">
        <ele>292.38</ele>
        <time>2021-08-12T17:29:10Z</time>
      </trkpt>
      <trkpt lat="46.86028" lon="4.23971">
        <ele>292.38</ele>
        <time>2021-08-12T17:29:26Z</time>
      </trkpt>
      <trkpt lat="46.8603" lon="4.23976">
        <ele>292.38</ele>
        <time>2021-08-12T17:29:44Z</time>
      </trkpt>
      <trkpt lat="46.86028" lon="4.23978">
        <ele>291.9</ele>
        <time>2021-08-12T17:30:03Z</time>
      </trkpt>
      <trkpt lat="46.86028" lon="4.23978">
        <ele>290.94</ele>
        <time>2021-08-12T17:30:08Z</time>
      </trkpt>
      <trkpt lat="46.86032" lon="4.2398">
        <ele>290.94</ele>
        <time>2021-08-12T17:30:23Z</time>
      </trkpt>
      <trkpt lat="46.86033" lon="4.2398">
        <ele>290.94</ele>
        <time>2021-08-12T17:30:29Z</time>
      </trkpt>
      <trkpt lat="46.86034" lon="4.23979">
        <ele>290.94</ele>
        <time>2021-08-12T17:30:39Z</time>
      </trkpt>
      <trkpt lat="46.86035" lon="4.23979">
        <ele>290.46</ele>
        <time>2021-08-12T17:31:02Z</time>
      </trkpt>
      <trkpt lat="46.86037" lon="4.23979">
        <ele>289.97</ele>
        <time>2021-08-12T17:31:21Z</time>
      </trkpt>
      <trkpt lat="46.86036" lon="4.23978">
        <ele>289.49</ele>
        <time>2021-08-12T17:31:41Z</time>
      </trkpt>
      <trkpt lat="46.86035" lon="4.23979">
        <ele>289.01</ele>
        <time>2021-08-12T17:31:55Z</time>
      </trkpt>
      <trkpt lat="46.86036" lon="4.23977">
        <ele>289.01</ele>
        <time>2021-08-12T17:32:12Z</time>
      </trkpt>
      <trkpt lat="46.86037" lon="4.23975">
        <ele>288.53</ele>
        <time>2021-08-12T17:32:30Z</time>
      </trkpt>
      <trkpt lat="46.86037" lon="4.23976">
        <ele>288.53</ele>
        <time>2021-08-12T17:32:46Z</time>
      </trkpt>
      <trkpt lat="46.86037" lon="4.23978">
        <ele>288.05</ele>
        <time>2021-08-12T17:33:01Z</time>
      </trkpt>
      <trkpt lat="46.86035" lon="4.23981">
        <ele>287.57</ele>
        <time>2021-08-12T17:33:18Z</time>
      </trkpt>
      <trkpt lat="46.86036" lon="4.23983">
        <ele>287.57</ele>
        <time>2021-08-12T17:33:32Z</time>
      </trkpt>
      <trkpt lat="46.86037" lon="4.23984">
        <ele>287.57</ele>
        <time>2021-08-12T17:33:47Z</time>
      </trkpt>
      <trkpt lat="46.86038" lon="4.23982">
        <ele>287.09</ele>
        <time>2021-08-12T17:34:05Z</time>
      </trkpt>
      <trkpt lat="46.86035" lon="4.23976">
        <ele>287.09</ele>
        <time>2021-08-12T17:34:28Z</time>
      </trkpt>
      <trkpt lat="46.86034" lon="4.2397">
        <ele>287.09</ele>
        <time>2021-08-12T17:34:49Z</time>
      </trkpt>
      <trkpt lat="46.86035" lon="4.23969">
        <ele>288.05</ele>
        <time>2021-08-12T17:35:12Z</time>
      </trkpt>
      <trkpt lat="46.86036" lon="4.23972">
        <ele>288.05</ele>
        <time>2021-08-12T17:35:37Z</time>
      </trkpt>
      <trkpt lat="46.86034" lon="4.23974">
        <ele>288.05</ele>
        <time>2021-08-12T17:36:00Z</time>
      </trkpt>
      <trkpt lat="46.86035" lon="4.23975">
        <ele>288.53</ele>
        <time>2021-08-12T17:36:08Z</time>
      </trkpt>
      <trkpt lat="46.86038" lon="4.23972">
        <ele>289.97</ele>
        <time>2021-08-12T17:36:27Z</time>
      </trkpt>
      <trkpt lat="46.86037" lon="4.23973">
        <ele>289.97</ele>
        <time>2021-08-12T17:36:47Z</time>
      </trkpt>
      <trkpt lat="46.86041" lon="4.23976">
        <ele>291.42</ele>
        <time>2021-08-12T17:37:13Z</time>
      </trkpt>
      <trkpt lat="46.86041" lon="4.23977">
        <ele>291.9</ele>
        <time>2021-08-12T17:37:33Z</time>
      </trkpt>
      <trkpt lat="46.86043" lon="4.23978">
        <ele>291.9</ele>
        <time>2021-08-12T17:37:54Z</time>
      </trkpt>
      <trkpt lat="46.86043" lon="4.2398">
        <ele>291.9</ele>
        <time>2021-08-12T17:38:13Z</time>
      </trkpt>
      <trkpt lat="46.86041" lon="4.23981">
        <ele>292.86</ele>
        <time>2021-08-12T17:38:32Z</time>
      </trkpt>
      <trkpt lat="46.86042" lon="4.23979">
        <ele>292.86</ele>
        <time>2021-08-12T17:38:54Z</time>
      </trkpt>
      <trkpt lat="46.86041" lon="4.23978">
        <ele>292.38</ele>
        <time>2021-08-12T17:39:06Z</time>
      </trkpt>
      <trkpt lat="46.8604" lon="4.23976">
        <ele>292.86</ele>
        <time>2021-08-12T17:39:24Z</time>
      </trkpt>
      <trkpt lat="46.86038" lon="4.23974">
        <ele>293.82</ele>
        <time>2021-08-12T17:39:46Z</time>
      </trkpt>
      <trkpt lat="46.86038" lon="4.23975">
        <ele>293.82</ele>
        <time>2021-08-12T17:40:09Z</time>
      </trkpt>
      <trkpt lat="46.86035" lon="4.23976">
        <ele>294.3</ele>
        <time>2021-08-12T17:40:22Z</time>
      </trkpt>
      <trkpt lat="46.86034" lon="4.23975">
        <ele>294.3</ele>
        <time>2021-08-12T17:40:26Z</time>
      </trkpt>
      <trkpt lat="46.86031" lon="4.23971">
        <ele>294.3</ele>
        <time>2021-08-12T17:40:31Z</time>
      </trkpt>
      <trkpt lat="46.86035" lon="4.23974">
        <ele>294.78</ele>
        <time>2021-08-12T17:40:50Z</time>
      </trkpt>
      <trkpt lat="46.86036" lon="4.23978">
        <ele>294.78</ele>
        <time>2021-08-12T17:41:13Z</time>
      </trkpt>
      <trkpt lat="46.86035" lon="4.23977">
        <ele>294.78</ele>
        <time>2021-08-12T17:41:32Z</time>
      </trkpt>
      <trkpt lat="46.86037" lon="4.23978">
        <ele>294.78</ele>
        <time>2021-08-12T17:41:49Z</time>
      </trkpt>
      <trkpt lat="46.86036" lon="4.23975">
        <ele>294.3</ele>
        <time>2021-08-12T17:42:07Z</time>
      </trkpt>
      <trkpt lat="46.86034" lon="4.23973">
        <ele>294.3</ele>
        <time>2021-08-12T17:42:25Z</time>
      </trkpt>
      <trkpt lat="46.86036" lon="4.23972">
        <ele>293.34</ele>
        <time>2021-08-12T17:42:45Z</time>
      </trkpt>
      <trkpt lat="46.86036" lon="4.2397">
        <ele>293.34</ele>
        <time>2021-08-12T17:43:00Z</time>
      </trkpt>
      <trkpt lat="46.86038" lon="4.23972">
        <ele>292.86</ele>
        <time>2021-08-12T17:43:20Z</time>
      </trkpt>
      <trkpt lat="46.86038" lon="4.23974">
        <ele>292.86</ele>
        <time>2021-08-12T17:43:41Z</time>
      </trkpt>
      <trkpt lat="46.86039" lon="4.23971">
        <ele>292.86</ele>
        <time>2021-08-12T17:44:04Z</time>
      </trkpt>
      <trkpt lat="46.86039" lon="4.23971">
        <ele>292.86</ele>
        <time>2021-08-12T17:44:25Z</time>
      </trkpt>
      <trkpt lat="46.86042" lon="4.23973">
        <ele>292.86</ele>
        <time>2021-08-12T17:44:39Z</time>
      </trkpt>
      <trkpt lat="46.86041" lon="4.2397">
        <ele>292.38</ele>
        <time>2021-08-12T17:44:53Z</time>
      </trkpt>
      <trkpt lat="46.8604" lon="4.2397">
        <ele>293.82</ele>
        <time>2021-08-12T17:45:00Z</time>
      </trkpt>
      <trkpt lat="46.86041" lon="4.23969">
        <ele>293.82</ele>
        <time>2021-08-12T17:45:18Z</time>
      </trkpt>
      <trkpt lat="46.86039" lon="4.23973">
        <ele>292.86</ele>
        <time>2021-08-12T17:45:40Z</time>
      </trkpt>
      <trkpt lat="46.86042" lon="4.23977">
        <ele>292.86</ele>
        <time>2021-08-12T17:45:57Z</time>
      </trkpt>
      <trkpt lat="46.8604" lon="4.23978">
        <ele>293.82</ele>
        <time>2021-08-12T17:46:10Z</time>
      </trkpt>
      <trkpt lat="46.8604" lon="4.23979">
        <ele>293.82</ele>
        <time>2021-08-12T17:46:24Z</time>
      </trkpt>
      <trkpt lat="46.86039" lon="4.2398">
        <ele>292.86</ele>
        <time>2021-08-12T17:46:38Z</time>
      </trkpt>
      <trkpt lat="46.86037" lon="4.23981">
        <ele>292.86</ele>
        <time>2021-08-12T17:46:51Z</time>
      </trkpt>
      <trkpt lat="46.86035" lon="4.23979">
        <ele>292.86</ele>
        <time>2021-08-12T17:47:07Z</time>
      </trkpt>
      <trkpt lat="46.86036" lon="4.23978">
        <ele>293.82</ele>
        <time>2021-08-12T17:47:14Z</time>
      </trkpt>
      <trkpt lat="46.86038" lon="4.23979">
        <ele>292.38</ele>
        <time>2021-08-12T17:47:31Z</time>
      </trkpt>
      <trkpt lat="46.86037" lon="4.2398">
        <ele>292.38</ele>
        <time>2021-08-12T17:47:50Z</time>
      </trkpt>
      <trkpt lat="46.86045" lon="4.23972">
        <ele>293.34</ele>
        <time>2021-08-12T17:48:09Z</time>
      </trkpt>
      <trkpt lat="46.86045" lon="4.2397">
        <ele>292.38</ele>
        <time>2021-08-12T17:48:24Z</time>
      </trkpt>
      <trkpt lat="46.86046" lon="4.23969">
        <ele>292.38</ele>
        <time>2021-08-12T17:48:37Z</time>
      </trkpt>
      <trkpt lat="46.86049" lon="4.23968">
        <ele>291.9</ele>
        <time>2021-08-12T17:48:56Z</time>
      </trkpt>
      <trkpt lat="46.86049" lon="4.23965">
        <ele>291.9</ele>
        <time>2021-08-12T17:49:10Z</time>
      </trkpt>
      <trkpt lat="46.86048" lon="4.23968">
        <ele>291.9</ele>
        <time>2021-08-12T17:49:24Z</time>
      </trkpt>
      <trkpt lat="46.86049" lon="4.23966">
        <ele>291.42</ele>
        <time>2021-08-12T17:49:43Z</time>
      </trkpt>
      <trkpt lat="46.86049" lon="4.23967">
        <ele>291.42</ele>
        <time>2021-08-12T17:49:56Z</time>
      </trkpt>
      <trkpt lat="46.86047" lon="4.23968">
        <ele>291.42</ele>
        <time>2021-08-12T17:50:18Z</time>
      </trkpt>
      <trkpt lat="46.8605" lon="4.23967">
        <ele>290.94</ele>
        <time>2021-08-12T17:50:34Z</time>
      </trkpt>
      <trkpt lat="46.86054" lon="4.23972">
        <ele>292.38</ele>
        <time>2021-08-12T17:50:56Z</time>
      </trkpt>
      <trkpt lat="46.86052" lon="4.23973">
        <ele>292.38</ele>
        <time>2021-08-12T17:51:10Z</time>
      </trkpt>
      <trkpt lat="46.86049" lon="4.23972">
        <ele>292.38</ele>
        <time>2021-08-12T17:51:21Z</time>
      </trkpt>
      <trkpt lat="46.86054" lon="4.23968">
        <ele>292.38</ele>
        <time>2021-08-12T17:51:40Z</time>
      </trkpt>
      <trkpt lat="46.86051" lon="4.23972">
        <ele>292.38</ele>
        <time>2021-08-12T17:51:56Z</time>
      </trkpt>
      <trkpt lat="46.86049" lon="4.23974">
        <ele>292.38</ele>
        <time>2021-08-12T17:52:08Z</time>
      </trkpt>
      <trkpt lat="46.86047" lon="4.23974">
        <ele>292.38</ele>
        <time>2021-08-12T17:52:22Z</time>
      </trkpt>
      <trkpt lat="46.86047" lon="4.2397">
        <ele>292.38</ele>
        <time>2021-08-12T17:52:34Z</time>
      </trkpt>
      <trkpt lat="46.86046" lon="4.2397">
        <ele>291.42</ele>
        <time>2021-08-12T17:52:45Z</time>
      </trkpt>
      <trkpt lat="46.86045" lon="4.23972">
        <ele>291.42</ele>
        <time>2021-08-12T17:53:00Z</time>
      </trkpt>
      <trkpt lat="46.86047" lon="4.23977">
        <ele>291.42</ele>
        <time>2021-08-12T17:53:20Z</time>
      </trkpt>
      <trkpt lat="46.86044" lon="4.23974">
        <ele>291.42</ele>
        <time>2021-08-12T17:53:37Z</time>
      </trkpt>
      <trkpt lat="46.86043" lon="4.23976">
        <ele>291.42</ele>
        <time>2021-08-12T17:53:51Z</time>
      </trkpt>
      <trkpt lat="46.86043" lon="4.23978">
        <ele>291.42</ele>
        <time>2021-08-12T17:54:11Z</time>
      </trkpt>
      <trkpt lat="46.86045" lon="4.23981">
        <ele>290.94</ele>
        <time>2021-08-12T17:54:27Z</time>
      </trkpt>
      <trkpt lat="46.86045" lon="4.23982">
        <ele>290.94</ele>
        <time>2021-08-12T17:54:43Z</time>
      </trkpt>
      <trkpt lat="46.86042" lon="4.23981">
        <ele>290.94</ele>
        <time>2021-08-12T17:55:02Z</time>
      </trkpt>
      <trkpt lat="46.86042" lon="4.23983">
        <ele>290.94</ele>
        <time>2021-08-12T17:55:23Z</time>
      </trkpt>
      <trkpt lat="46.86041" lon="4.23983">
        <ele>290.46</ele>
        <time>2021-08-12T17:55:36Z</time>
      </trkpt>
      <trkpt lat="46.8604" lon="4.23981">
        <ele>290.46</ele>
        <time>2021-08-12T17:55:52Z</time>
      </trkpt>
      <trkpt lat="46.86042" lon="4.23981">
        <ele>290.46</ele>
        <time>2021-08-12T17:56:06Z</time>
      </trkpt>
      <trkpt lat="46.86042" lon="4.23982">
        <ele>289.97</ele>
        <time>2021-08-12T17:56:23Z</time>
      </trkpt>
      <trkpt lat="46.86043" lon="4.23985">
        <ele>289.97</ele>
        <time>2021-08-12T17:56:43Z</time>
      </trkpt>
      <trkpt lat="46.86045" lon="4.23987">
        <ele>289.49</ele>
        <time>2021-08-12T17:57:05Z</time>
      </trkpt>
      <trkpt lat="46.86048" lon="4.23987">
        <ele>289.49</ele>
        <time>2021-08-12T17:57:17Z</time>
      </trkpt>
      <trkpt lat="46.86045" lon="4.23985">
        <ele>289.01</ele>
        <time>2021-08-12T17:57:32Z</time>
      </trkpt>
      <trkpt lat="46.86043" lon="4.23981">
        <ele>289.01</ele>
        <time>2021-08-12T17:57:48Z</time>
      </trkpt>
      <trkpt lat="46.86044" lon="4.23981">
        <ele>289.01</ele>
        <time>2021-08-12T17:58:02Z</time>
      </trkpt>
      <trkpt lat="46.86043" lon="4.23981">
        <ele>289.01</ele>
        <time>2021-08-12T17:58:18Z</time>
      </trkpt>
      <trkpt lat="46.86042" lon="4.23985">
        <ele>288.05</ele>
        <time>2021-08-12T17:58:39Z</time>
      </trkpt>
      <trkpt lat="46.86043" lon="4.23986">
        <ele>288.05</ele>
        <time>2021-08-12T17:58:57Z</time>
      </trkpt>
      <trkpt lat="46.86043" lon="4.23983">
        <ele>288.05</ele>
        <time>2021-08-12T17:59:19Z</time>
      </trkpt>
      <trkpt lat="46.86039" lon="4.23982">
        <ele>288.05</ele>
        <time>2021-08-12T17:59:36Z</time>
      </trkpt>
      <trkpt lat="46.8604" lon="4.23982">
        <ele>288.05</ele>
        <time>2021-08-12T17:59:53Z</time>
      </trkpt>
      <trkpt lat="46.86038" lon="4.23983">
        <ele>288.05</ele>
        <time>2021-08-12T18:00:14Z</time>
      </trkpt>
      <trkpt lat="46.86037" lon="4.23983">
        <ele>288.05</ele>
        <time>2021-08-12T18:00:30Z</time>
      </trkpt>
      <trkpt lat="46.86042" lon="4.23986">
        <ele>287.57</ele>
        <time>2021-08-12T18:00:53Z</time>
      </trkpt>
      <trkpt lat="46.86041" lon="4.23986">
        <ele>287.57</ele>
        <time>2021-08-12T18:01:09Z</time>
      </trkpt>
      <trkpt lat="46.86042" lon="4.23987">
        <ele>287.57</ele>
        <time>2021-08-12T18:01:26Z</time>
      </trkpt>
      <trkpt lat="46.86039" lon="4.23983">
        <ele>287.57</ele>
        <time>2021-08-12T18:01:50Z</time>
      </trkpt>
      <trkpt lat="46.86038" lon="4.2398">
        <ele>287.57</ele>
        <time>2021-08-12T18:02:11Z</time>
      </trkpt>
      <trkpt lat="46.86037" lon="4.23981">
        <ele>287.57</ele>
        <time>2021-08-12T18:02:30Z</time>
      </trkpt>
      <trkpt lat="46.86036" lon="4.23984">
        <ele>287.57</ele>
        <time>2021-08-12T18:02:47Z</time>
      </trkpt>
      <trkpt lat="46.86039" lon="4.23987">
        <ele>287.57</ele>
        <time>2021-08-12T18:02:56Z</time>
      </trkpt>
      <trkpt lat="46.86038" lon="4.23984">
        <ele>287.57</ele>
        <time>2021-08-12T18:03:11Z</time>
      </trkpt>
      <trkpt lat="46.86038" lon="4.23983">
        <ele>287.57</ele>
        <time>2021-08-12T18:03:30Z</time>
      </trkpt>
      <trkpt lat="46.8604" lon="4.23985">
        <ele>288.53</ele>
        <time>2021-08-12T18:03:51Z</time>
      </trkpt>
      <trkpt lat="46.8604" lon="4.23984">
        <ele>288.53</ele>
        <time>2021-08-12T18:04:09Z</time>
      </trkpt>
      <trkpt lat="46.86035" lon="4.23979">
        <ele>288.53</ele>
        <time>2021-08-12T18:04:32Z</time>
      </trkpt>
      <trkpt lat="46.86039" lon="4.23982">
        <ele>288.53</ele>
        <time>2021-08-12T18:04:49Z</time>
      </trkpt>
      <trkpt lat="46.86042" lon="4.23983">
        <ele>288.53</ele>
        <time>2021-08-12T18:05:05Z</time>
      </trkpt>
      <trkpt lat="46.86043" lon="4.23983">
        <ele>288.53</ele>
        <time>2021-08-12T18:05:21Z</time>
      </trkpt>
      <trkpt lat="46.86043" lon="4.23982">
        <ele>288.53</ele>
        <time>2021-08-12T18:05:38Z</time>
      </trkpt>
      <trkpt lat="46.86044" lon="4.23985">
        <ele>288.53</ele>
        <time>2021-08-12T18:05:53Z</time>
      </trkpt>
      <trkpt lat="46.86044" lon="4.23986">
        <ele>288.53</ele>
        <time>2021-08-12T18:06:02Z</time>
      </trkpt>
      <trkpt lat="46.86044" lon="4.23987">
        <ele>288.53</ele>
        <time>2021-08-12T18:06:14Z</time>
      </trkpt>
      <trkpt lat="46.86043" lon="4.23987">
        <ele>288.53</ele>
        <time>2021-08-12T18:06:29Z</time>
      </trkpt>
      <trkpt lat="46.86041" lon="4.23982">
        <ele>288.53</ele>
        <time>2021-08-12T18:06:46Z</time>
      </trkpt>
      <trkpt lat="46.86042" lon="4.2398">
        <ele>288.53</ele>
        <time>2021-08-12T18:07:00Z</time>
      </trkpt>
      <trkpt lat="46.8604" lon="4.23979">
        <ele>289.01</ele>
        <time>2021-08-12T18:07:13Z</time>
      </trkpt>
      <trkpt lat="46.86039" lon="4.2398">
        <ele>289.01</ele>
        <time>2021-08-12T18:07:26Z</time>
      </trkpt>
      <trkpt lat="46.86038" lon="4.2398">
        <ele>289.01</ele>
        <time>2021-08-12T18:07:34Z</time>
      </trkpt>
      <trkpt lat="46.86037" lon="4.2398">
        <ele>288.53</ele>
        <time>2021-08-12T18:07:44Z</time>
      </trkpt>
      <trkpt lat="46.86037" lon="4.23978">
        <ele>288.53</ele>
        <time>2021-08-12T18:07:56Z</time>
      </trkpt>
      <trkpt lat="46.86036" lon="4.23975">
        <ele>288.53</ele>
        <time>2021-08-12T18:08:05Z</time>
      </trkpt>
      <trkpt lat="46.86035" lon="4.23973">
        <ele>289.49</ele>
        <time>2021-08-12T18:08:17Z</time>
      </trkpt>
      <trkpt lat="46.86035" lon="4.23976">
        <ele>289.49</ele>
        <time>2021-08-12T18:08:32Z</time>
      </trkpt>
      <trkpt lat="46.86033" lon="4.23976">
        <ele>289.49</ele>
        <time>2021-08-12T18:08:47Z</time>
      </trkpt>
      <trkpt lat="46.86032" lon="4.23973">
        <ele>289.01</ele>
        <time>2021-08-12T18:09:07Z</time>
      </trkpt>
      <trkpt lat="46.86032" lon="4.23974">
        <ele>289.97</ele>
        <time>2021-08-12T18:09:20Z</time>
      </trkpt>
      <trkpt lat="46.86032" lon="4.23977">
        <ele>289.49</ele>
        <time>2021-08-12T18:09:38Z</time>
      </trkpt>
      <trkpt lat="46.86033" lon="4.23976">
        <ele>289.49</ele>
        <time>2021-08-12T18:09:55Z</time>
      </trkpt>
      <trkpt lat="46.86032" lon="4.23978">
        <ele>289.49</ele>
        <time>2021-08-12T18:10:09Z</time>
      </trkpt>
      <trkpt lat="46.86032" lon="4.23977">
        <ele>289.49</ele>
        <time>2021-08-12T18:10:13Z</time>
      </trkpt>
      <trkpt lat="46.86034" lon="4.23976">
        <ele>289.49</ele>
        <time>2021-08-12T18:10:14Z</time>
      </trkpt>
      <trkpt lat="46.86035" lon="4.23974">
        <ele>289.49</ele>
        <time>2021-08-12T18:10:15Z</time>
      </trkpt>
      <trkpt lat="46.86036" lon="4.23974">
        <ele>289.49</ele>
        <time>2021-08-12T18:10:16Z</time>
      </trkpt>
      <trkpt lat="46.86035" lon="4.23971">
        <ele>289.49</ele>
        <time>2021-08-12T18:10:17Z</time>
      </trkpt>
      <trkpt lat="46.86035" lon="4.23969">
        <ele>289.49</ele>
        <time>2021-08-12T18:10:18Z</time>
      </trkpt>
      <trkpt lat="46.86033" lon="4.23968">
        <ele>289.49</ele>
        <time>2021-08-12T18:10:19Z</time>
      </trkpt>
      <trkpt lat="46.86032" lon="4.23967">
        <ele>289.49</ele>
        <time>2021-08-12T18:10:20Z</time>
      </trkpt>
      <trkpt lat="46.86031" lon="4.23964">
        <ele>289.49</ele>
        <time>2021-08-12T18:10:21Z</time>
      </trkpt>
      <trkpt lat="46.8603" lon="4.23963">
        <ele>289.49</ele>
        <time>2021-08-12T18:10:22Z</time>
      </trkpt>
      <trkpt lat="46.86029" lon="4.23962">
        <ele>289.49</ele>
        <time>2021-08-12T18:10:23Z</time>
      </trkpt>
      <trkpt lat="46.86027" lon="4.2396">
        <ele>289.49</ele>
        <time>2021-08-12T18:10:24Z</time>
      </trkpt>
      <trkpt lat="46.86026" lon="4.23958">
        <ele>289.49</ele>
        <time>2021-08-12T18:10:25Z</time>
      </trkpt>
      <trkpt lat="46.86024" lon="4.23955">
        <ele>289.49</ele>
        <time>2021-08-12T18:10:26Z</time>
      </trkpt>
      <trkpt lat="46.86022" lon="4.23953">
        <ele>289.49</ele>
        <time>2021-08-12T18:10:27Z</time>
      </trkpt>
      <trkpt lat="46.86019" lon="4.23952">
        <ele>289.49</ele>
        <time>2021-08-12T18:10:28Z</time>
      </trkpt>
      <trkpt lat="46.86017" lon="4.23951">
        <ele>289.49</ele>
        <time>2021-08-12T18:10:29Z</time>
      </trkpt>
      <trkpt lat="46.86" lon="4.23952">
        <ele>290.94</ele>
        <time>2021-08-12T18:10:36Z</time>
      </trkpt>
      <trkpt lat="46.85984" lon="4.23953">
        <ele>291.9</ele>
        <time>2021-08-12T18:10:43Z</time>
      </trkpt>
      <trkpt lat="46.85964" lon="4.2395">
        <ele>290.46</ele>
        <time>2021-08-12T18:10:50Z</time>
      </trkpt>
      <trkpt lat="46.85962" lon="4.23951">
        <ele>290.46</ele>
        <time>2021-08-12T18:10:51Z</time>
      </trkpt>
      <trkpt lat="46.8596" lon="4.23952">
        <ele>290.46</ele>
        <time>2021-08-12T18:10:52Z</time>
      </trkpt>
      <trkpt lat="46.85957" lon="4.23953">
        <ele>290.46</ele>
        <time>2021-08-12T18:10:53Z</time>
      </trkpt>
      <trkpt lat="46.85955" lon="4.23955">
        <ele>290.46</ele>
        <time>2021-08-12T18:10:54Z</time>
      </trkpt>
      <trkpt lat="46.85934" lon="4.23961">
        <ele>290.46</ele>
        <time>2021-08-12T18:11:02Z</time>
      </trkpt>
      <trkpt lat="46.85914" lon="4.23969">
        <ele>290.46</ele>
        <time>2021-08-12T18:11:10Z</time>
      </trkpt>
      <trkpt lat="46.85898" lon="4.23974">
        <ele>291.9</ele>
        <time>2021-08-12T18:11:16Z</time>
      </trkpt>
      <trkpt lat="46.85873" lon="4.23986">
        <ele>289.97</ele>
        <time>2021-08-12T18:11:22Z</time>
      </trkpt>
      <trkpt lat="46.8583" lon="4.24013">
        <ele>289.49</ele>
        <time>2021-08-12T18:11:32Z</time>
      </trkpt>
      <trkpt lat="46.85793" lon="4.24037">
        <ele>289.49</ele>
        <time>2021-08-12T18:11:41Z</time>
      </trkpt>
      <trkpt lat="46.8576" lon="4.24057">
        <ele>289.49</ele>
        <time>2021-08-12T18:11:50Z</time>
      </trkpt>
      <trkpt lat="46.85745" lon="4.24067">
        <ele>290.94</ele>
        <time>2021-08-12T18:11:54Z</time>
      </trkpt>
      <trkpt lat="46.85728" lon="4.24091">
        <ele>290.94</ele>
        <time>2021-08-12T18:12:01Z</time>
      </trkpt>
      <trkpt lat="46.85726" lon="4.24096">
        <ele>291.42</ele>
        <time>2021-08-12T18:12:06Z</time>
      </trkpt>
      <trkpt lat="46.85722" lon="4.24108">
        <ele>290.94</ele>
        <time>2021-08-12T18:12:12Z</time>
      </trkpt>
      <trkpt lat="46.8571" lon="4.24145">
        <ele>290.94</ele>
        <time>2021-08-12T18:12:20Z</time>
      </trkpt>
      <trkpt lat="46.85688" lon="4.24201">
        <ele>290.94</ele>
        <time>2021-08-12T18:12:31Z</time>
      </trkpt>
      <trkpt lat="46.8567" lon="4.24218">
        <ele>291.42</ele>
        <time>2021-08-12T18:12:37Z</time>
      </trkpt>
      <trkpt lat="46.85648" lon="4.24225">
        <ele>291.9</ele>
        <time>2021-08-12T18:12:43Z</time>
      </trkpt>
      <trkpt lat="46.85631" lon="4.2424">
        <ele>292.38</ele>
        <time>2021-08-12T18:12:49Z</time>
      </trkpt>
      <trkpt lat="46.85617" lon="4.2427">
        <ele>292.86</ele>
        <time>2021-08-12T18:12:56Z</time>
      </trkpt>
      <trkpt lat="46.85615" lon="4.24281">
        <ele>292.86</ele>
        <time>2021-08-12T18:12:58Z</time>
      </trkpt>
      <trkpt lat="46.85602" lon="4.24326">
        <ele>292.86</ele>
        <time>2021-08-12T18:13:07Z</time>
      </trkpt>
      <trkpt lat="46.85588" lon="4.2437">
        <ele>293.34</ele>
        <time>2021-08-12T18:13:16Z</time>
      </trkpt>
      <trkpt lat="46.85576" lon="4.24414">
        <ele>293.82</ele>
        <time>2021-08-12T18:13:25Z</time>
      </trkpt>
      <trkpt lat="46.8556" lon="4.2447">
        <ele>293.82</ele>
        <time>2021-08-12T18:13:36Z</time>
      </trkpt>
      <trkpt lat="46.85542" lon="4.24531">
        <ele>294.3</ele>
        <time>2021-08-12T18:13:48Z</time>
      </trkpt>
      <trkpt lat="46.8553" lon="4.24581">
        <ele>294.3</ele>
        <time>2021-08-12T18:13:58Z</time>
      </trkpt>
      <trkpt lat="46.85525" lon="4.24625">
        <ele>294.78</ele>
        <time>2021-08-12T18:14:07Z</time>
      </trkpt>
      <trkpt lat="46.85524" lon="4.24666">
        <ele>294.78</ele>
        <time>2021-08-12T18:14:15Z</time>
      </trkpt>
      <trkpt lat="46.85524" lon="4.24712">
        <ele>295.26</ele>
        <time>2021-08-12T18:14:24Z</time>
      </trkpt>
      <trkpt lat="46.85521" lon="4.24755">
        <ele>295.26</ele>
        <time>2021-08-12T18:14:32Z</time>
      </trkpt>
      <trkpt lat="46.85517" lon="4.24795">
        <ele>295.74</ele>
        <time>2021-08-12T18:14:40Z</time>
      </trkpt>
      <trkpt lat="46.85514" lon="4.24834">
        <ele>296.7</ele>
        <time>2021-08-12T18:14:48Z</time>
      </trkpt>
      <trkpt lat="46.85505" lon="4.24867">
        <ele>297.18</ele>
        <time>2021-08-12T18:14:55Z</time>
      </trkpt>
      <trkpt lat="46.85486" lon="4.24903">
        <ele>297.67</ele>
        <time>2021-08-12T18:15:05Z</time>
      </trkpt>
      <trkpt lat="46.8547" lon="4.24934">
        <ele>297.67</ele>
        <time>2021-08-12T18:15:13Z</time>
      </trkpt>
      <trkpt lat="46.85456" lon="4.24967">
        <ele>298.15</ele>
        <time>2021-08-12T18:15:21Z</time>
      </trkpt>
      <trkpt lat="46.85437" lon="4.24998">
        <ele>298.15</ele>
        <time>2021-08-12T18:15:29Z</time>
      </trkpt>
      <trkpt lat="46.85414" lon="4.25032">
        <ele>298.63</ele>
        <time>2021-08-12T18:15:38Z</time>
      </trkpt>
      <trkpt lat="46.85401" lon="4.25047">
        <ele>297.18</ele>
        <time>2021-08-12T18:15:42Z</time>
      </trkpt>
      <trkpt lat="46.85397" lon="4.2505">
        <ele>297.18</ele>
        <time>2021-08-12T18:15:43Z</time>
      </trkpt>
      <trkpt lat="46.85393" lon="4.25053">
        <ele>297.18</ele>
        <time>2021-08-12T18:15:44Z</time>
      </trkpt>
      <trkpt lat="46.85356" lon="4.25081">
        <ele>296.22</ele>
        <time>2021-08-12T18:15:53Z</time>
      </trkpt>
      <trkpt lat="46.85315" lon="4.25105">
        <ele>294.3</ele>
        <time>2021-08-12T18:16:01Z</time>
      </trkpt>
      <trkpt lat="46.85286" lon="4.25133">
        <ele>294.3</ele>
        <time>2021-08-12T18:16:08Z</time>
      </trkpt>
      <trkpt lat="46.85269" lon="4.25154">
        <ele>295.74</ele>
        <time>2021-08-12T18:16:14Z</time>
      </trkpt>
      <trkpt lat="46.85248" lon="4.25182">
        <ele>297.18</ele>
        <time>2021-08-12T18:16:23Z</time>
      </trkpt>
      <trkpt lat="46.85235" lon="4.25201">
        <ele>298.15</ele>
        <time>2021-08-12T18:16:31Z</time>
      </trkpt>
      <trkpt lat="46.85223" lon="4.25222">
        <ele>300.07</ele>
        <time>2021-08-12T18:16:40Z</time>
      </trkpt>
      <trkpt lat="46.85213" lon="4.25239">
        <ele>301.03</ele>
        <time>2021-08-12T18:16:47Z</time>
      </trkpt>
      <trkpt lat="46.85212" lon="4.25241">
        <ele>301.03</ele>
        <time>2021-08-12T18:16:48Z</time>
      </trkpt>
      <trkpt lat="46.85211" lon="4.25243">
        <ele>301.51</ele>
        <time>2021-08-12T18:16:49Z</time>
      </trkpt>
      <trkpt lat="46.85202" lon="4.25261">
        <ele>302.47</ele>
        <time>2021-08-12T18:16:58Z</time>
      </trkpt>
      <trkpt lat="46.85192" lon="4.25278">
        <ele>302.95</ele>
        <time>2021-08-12T18:17:07Z</time>
      </trkpt>
      <trkpt lat="46.85182" lon="4.25292">
        <ele>303.43</ele>
        <time>2021-08-12T18:17:15Z</time>
      </trkpt>
      <trkpt lat="46.85166" lon="4.25305">
        <ele>303.91</ele>
        <time>2021-08-12T18:17:25Z</time>
      </trkpt>
      <trkpt lat="46.85151" lon="4.25316">
        <ele>304.39</ele>
        <time>2021-08-12T18:17:34Z</time>
      </trkpt>
      <trkpt lat="46.85141" lon="4.25325">
        <ele>304.39</ele>
        <time>2021-08-12T18:17:40Z</time>
      </trkpt>
      <trkpt lat="46.85125" lon="4.25336">
        <ele>304.88</ele>
        <time>2021-08-12T18:17:49Z</time>
      </trkpt>
      <trkpt lat="46.85109" lon="4.25345">
        <ele>305.36</ele>
        <time>2021-08-12T18:17:58Z</time>
      </trkpt>
      <trkpt lat="46.8509" lon="4.25353">
        <ele>305.84</ele>
        <time>2021-08-12T18:18:08Z</time>
      </trkpt>
      <trkpt lat="46.85075" lon="4.2536">
        <ele>305.84</ele>
        <time>2021-08-12T18:18:16Z</time>
      </trkpt>
      <trkpt lat="46.85058" lon="4.25367">
        <ele>306.32</ele>
        <time>2021-08-12T18:18:25Z</time>
      </trkpt>
      <trkpt lat="46.85047" lon="4.25375">
        <ele>306.32</ele>
        <time>2021-08-12T18:18:31Z</time>
      </trkpt>
      <trkpt lat="46.85045" lon="4.25376">
        <ele>306.32</ele>
        <time>2021-08-12T18:18:32Z</time>
      </trkpt>
      <trkpt lat="46.85043" lon="4.25378">
        <ele>306.32</ele>
        <time>2021-08-12T18:18:33Z</time>
      </trkpt>
      <trkpt lat="46.85042" lon="4.25379">
        <ele>306.32</ele>
        <time>2021-08-12T18:18:34Z</time>
      </trkpt>
      <trkpt lat="46.85039" lon="4.25381">
        <ele>306.32</ele>
        <time>2021-08-12T18:18:35Z</time>
      </trkpt>
      <trkpt lat="46.85037" lon="4.25383">
        <ele>306.32</ele>
        <time>2021-08-12T18:18:36Z</time>
      </trkpt>
      <trkpt lat="46.85035" lon="4.25386">
        <ele>306.32</ele>
        <time>2021-08-12T18:18:37Z</time>
      </trkpt>
      <trkpt lat="46.8502" lon="4.25404">
        <ele>306.8</ele>
        <time>2021-08-12T18:18:46Z</time>
      </trkpt>
      <trkpt lat="46.85007" lon="4.25422">
        <ele>308.24</ele>
        <time>2021-08-12T18:18:55Z</time>
      </trkpt>
      <trkpt lat="46.84994" lon="4.25438">
        <ele>308.72</ele>
        <time>2021-08-12T18:19:05Z</time>
      </trkpt>
      <trkpt lat="46.84978" lon="4.25459">
        <ele>309.68</ele>
        <time>2021-08-12T18:19:17Z</time>
      </trkpt>
      <trkpt lat="46.84966" lon="4.25474">
        <ele>310.64</ele>
        <time>2021-08-12T18:19:26Z</time>
      </trkpt>
      <trkpt lat="46.84955" lon="4.25488">
        <ele>311.12</ele>
        <time>2021-08-12T18:19:34Z</time>
      </trkpt>
      <trkpt lat="46.84943" lon="4.25503">
        <ele>312.09</ele>
        <time>2021-08-12T18:19:43Z</time>
      </trkpt>
      <trkpt lat="46.84932" lon="4.25516">
        <ele>312.57</ele>
        <time>2021-08-12T18:19:51Z</time>
      </trkpt>
      <trkpt lat="46.8492" lon="4.25527">
        <ele>314.01</ele>
        <time>2021-08-12T18:20:00Z</time>
      </trkpt>
      <trkpt lat="46.84911" lon="4.25539">
        <ele>314.49</ele>
        <time>2021-08-12T18:20:07Z</time>
      </trkpt>
      <trkpt lat="46.84897" lon="4.25555">
        <ele>315.45</ele>
        <time>2021-08-12T18:20:17Z</time>
      </trkpt>
      <trkpt lat="46.84887" lon="4.25567">
        <ele>316.41</ele>
        <time>2021-08-12T18:20:25Z</time>
      </trkpt>
      <trkpt lat="46.84876" lon="4.25579">
        <ele>316.89</ele>
        <time>2021-08-12T18:20:33Z</time>
      </trkpt>
      <trkpt lat="46.84863" lon="4.25596">
        <ele>317.85</ele>
        <time>2021-08-12T18:20:43Z</time>
      </trkpt>
      <trkpt lat="46.84854" lon="4.25609">
        <ele>318.33</ele>
        <time>2021-08-12T18:20:51Z</time>
      </trkpt>
      <trkpt lat="46.84845" lon="4.25624">
        <ele>319.3</ele>
        <time>2021-08-12T18:20:59Z</time>
      </trkpt>
      <trkpt lat="46.84832" lon="4.25645">
        <ele>320.74</ele>
        <time>2021-08-12T18:21:11Z</time>
      </trkpt>
      <trkpt lat="46.84827" lon="4.25654">
        <ele>321.22</ele>
        <time>2021-08-12T18:21:16Z</time>
      </trkpt>
      <trkpt lat="46.84826" lon="4.25656">
        <ele>321.22</ele>
        <time>2021-08-12T18:21:17Z</time>
      </trkpt>
      <trkpt lat="46.84826" lon="4.25657">
        <ele>321.22</ele>
        <time>2021-08-12T18:21:18Z</time>
      </trkpt>
      <trkpt lat="46.84825" lon="4.25659">
        <ele>321.7</ele>
        <time>2021-08-12T18:21:19Z</time>
      </trkpt>
      <trkpt lat="46.84824" lon="4.25661">
        <ele>321.7</ele>
        <time>2021-08-12T18:21:20Z</time>
      </trkpt>
      <trkpt lat="46.84823" lon="4.25662">
        <ele>321.7</ele>
        <time>2021-08-12T18:21:21Z</time>
      </trkpt>
      <trkpt lat="46.84822" lon="4.25664">
        <ele>321.7</ele>
        <time>2021-08-12T18:21:22Z</time>
      </trkpt>
      <trkpt lat="46.84821" lon="4.25666">
        <ele>321.7</ele>
        <time>2021-08-12T18:21:23Z</time>
      </trkpt>
      <trkpt lat="46.8482" lon="4.25667">
        <ele>322.18</ele>
        <time>2021-08-12T18:21:24Z</time>
      </trkpt>
      <trkpt lat="46.84819" lon="4.25669">
        <ele>322.18</ele>
        <time>2021-08-12T18:21:25Z</time>
      </trkpt>
      <trkpt lat="46.84811" lon="4.25683">
        <ele>323.62</ele>
        <time>2021-08-12T18:21:34Z</time>
      </trkpt>
      <trkpt lat="46.84804" lon="4.25697">
        <ele>324.58</ele>
        <time>2021-08-12T18:21:42Z</time>
      </trkpt>
      <trkpt lat="46.84799" lon="4.25708">
        <ele>325.54</ele>
        <time>2021-08-12T18:21:49Z</time>
      </trkpt>
      <trkpt lat="46.84798" lon="4.25709">
        <ele>326.02</ele>
        <time>2021-08-12T18:21:50Z</time>
      </trkpt>
      <trkpt lat="46.84797" lon="4.25711">
        <ele>326.02</ele>
        <time>2021-08-12T18:21:51Z</time>
      </trkpt>
      <trkpt lat="46.84796" lon="4.25712">
        <ele>326.02</ele>
        <time>2021-08-12T18:21:52Z</time>
      </trkpt>
      <trkpt lat="46.84795" lon="4.25714">
        <ele>326.5</ele>
        <time>2021-08-12T18:21:53Z</time>
      </trkpt>
      <trkpt lat="46.84795" lon="4.25716">
        <ele>326.5</ele>
        <time>2021-08-12T18:21:54Z</time>
      </trkpt>
      <trkpt lat="46.84794" lon="4.25717">
        <ele>326.5</ele>
        <time>2021-08-12T18:21:55Z</time>
      </trkpt>
      <trkpt lat="46.84793" lon="4.25719">
        <ele>326.99</ele>
        <time>2021-08-12T18:21:56Z</time>
      </trkpt>
      <trkpt lat="46.84788" lon="4.2573">
        <ele>327.95</ele>
        <time>2021-08-12T18:22:04Z</time>
      </trkpt>
      <trkpt lat="46.84785" lon="4.25737">
        <ele>328.43</ele>
        <time>2021-08-12T18:22:11Z</time>
      </trkpt>
      <trkpt lat="46.84783" lon="4.25739">
        <ele>328.43</ele>
        <time>2021-08-12T18:22:13Z</time>
      </trkpt>
      <trkpt lat="46.8478" lon="4.25746">
        <ele>329.39</ele>
        <time>2021-08-12T18:22:20Z</time>
      </trkpt>
      <trkpt lat="46.84776" lon="4.25755">
        <ele>330.35</ele>
        <time>2021-08-12T18:22:29Z</time>
      </trkpt>
      <trkpt lat="46.84774" lon="4.2576">
        <ele>332.27</ele>
        <time>2021-08-12T18:22:36Z</time>
      </trkpt>
      <trkpt lat="46.84773" lon="4.25767">
        <ele>332.27</ele>
        <time>2021-08-12T18:22:42Z</time>
      </trkpt>
      <trkpt lat="46.84768" lon="4.25777">
        <ele>333.23</ele>
        <time>2021-08-12T18:22:50Z</time>
      </trkpt>
      <trkpt lat="46.84765" lon="4.25785">
        <ele>334.2</ele>
        <time>2021-08-12T18:22:58Z</time>
      </trkpt>
      <trkpt lat="46.84762" lon="4.25792">
        <ele>334.68</ele>
        <time>2021-08-12T18:23:05Z</time>
      </trkpt>
      <trkpt lat="46.84758" lon="4.25801">
        <ele>336.6</ele>
        <time>2021-08-12T18:23:15Z</time>
      </trkpt>
      <trkpt lat="46.84755" lon="4.25807">
        <ele>337.08</ele>
        <time>2021-08-12T18:23:23Z</time>
      </trkpt>
      <trkpt lat="46.8475" lon="4.25815">
        <ele>338.52</ele>
        <time>2021-08-12T18:23:33Z</time>
      </trkpt>
      <trkpt lat="46.84745" lon="4.25824">
        <ele>339.48</ele>
        <time>2021-08-12T18:23:43Z</time>
      </trkpt>
      <trkpt lat="46.8474" lon="4.25833">
        <ele>340.92</ele>
        <time>2021-08-12T18:23:53Z</time>
      </trkpt>
      <trkpt lat="46.84735" lon="4.25844">
        <ele>341.89</ele>
        <time>2021-08-12T18:24:02Z</time>
      </trkpt>
      <trkpt lat="46.84731" lon="4.25855">
        <ele>342.85</ele>
        <time>2021-08-12T18:24:11Z</time>
      </trkpt>
      <trkpt lat="46.84727" lon="4.25865">
        <ele>343.81</ele>
        <time>2021-08-12T18:24:20Z</time>
      </trkpt>
      <trkpt lat="46.84723" lon="4.25877">
        <ele>344.77</ele>
        <time>2021-08-12T18:24:29Z</time>
      </trkpt>
      <trkpt lat="46.8472" lon="4.25887">
        <ele>345.25</ele>
        <time>2021-08-12T18:24:37Z</time>
      </trkpt>
      <trkpt lat="46.84717" lon="4.25895">
        <ele>346.21</ele>
        <time>2021-08-12T18:24:45Z</time>
      </trkpt>
      <trkpt lat="46.84712" lon="4.25908">
        <ele>347.17</ele>
        <time>2021-08-12T18:24:56Z</time>
      </trkpt>
      <trkpt lat="46.84708" lon="4.25921">
        <ele>348.13</ele>
        <time>2021-08-12T18:25:06Z</time>
      </trkpt>
      <trkpt lat="46.84703" lon="4.25937">
        <ele>349.58</ele>
        <time>2021-08-12T18:25:18Z</time>
      </trkpt>
      <trkpt lat="46.84701" lon="4.25948">
        <ele>350.06</ele>
        <time>2021-08-12T18:25:27Z</time>
      </trkpt>
      <trkpt lat="46.84698" lon="4.25961">
        <ele>351.02</ele>
        <time>2021-08-12T18:25:36Z</time>
      </trkpt>
      <trkpt lat="46.84695" lon="4.25973">
        <ele>351.5</ele>
        <time>2021-08-12T18:25:46Z</time>
      </trkpt>
      <trkpt lat="46.84691" lon="4.25986">
        <ele>351.98</ele>
        <time>2021-08-12T18:25:56Z</time>
      </trkpt>
      <trkpt lat="46.84691" lon="4.25991">
        <ele>351.98</ele>
        <time>2021-08-12T18:26:02Z</time>
      </trkpt>
      <trkpt lat="46.8469" lon="4.25994">
        <ele>351.98</ele>
        <time>2021-08-12T18:26:04Z</time>
      </trkpt>
      <trkpt lat="46.84687" lon="4.2601">
        <ele>352.94</ele>
        <time>2021-08-12T18:26:12Z</time>
      </trkpt>
      <trkpt lat="46.84684" lon="4.26026">
        <ele>353.9</ele>
        <time>2021-08-12T18:26:20Z</time>
      </trkpt>
      <trkpt lat="46.84683" lon="4.26028">
        <ele>353.9</ele>
        <time>2021-08-12T18:26:21Z</time>
      </trkpt>
      <trkpt lat="46.84679" lon="4.26041">
        <ele>354.38</ele>
        <time>2021-08-12T18:26:28Z</time>
      </trkpt>
      <trkpt lat="46.84677" lon="4.26054">
        <ele>354.86</ele>
        <time>2021-08-12T18:26:35Z</time>
      </trkpt>
      <trkpt lat="46.84677" lon="4.26056">
        <ele>354.86</ele>
        <time>2021-08-12T18:26:36Z</time>
      </trkpt>
      <trkpt lat="46.84676" lon="4.26058">
        <ele>355.34</ele>
        <time>2021-08-12T18:26:37Z</time>
      </trkpt>
      <trkpt lat="46.84676" lon="4.2606">
        <ele>355.34</ele>
        <time>2021-08-12T18:26:38Z</time>
      </trkpt>
      <trkpt lat="46.84675" lon="4.26063">
        <ele>355.34</ele>
        <time>2021-08-12T18:26:39Z</time>
      </trkpt>
      <trkpt lat="46.84671" lon="4.26078">
        <ele>355.83</ele>
        <time>2021-08-12T18:26:47Z</time>
      </trkpt>
      <trkpt lat="46.84667" lon="4.26099">
        <ele>356.31</ele>
        <time>2021-08-12T18:26:56Z</time>
      </trkpt>
      <trkpt lat="46.84667" lon="4.26102">
        <ele>356.31</ele>
        <time>2021-08-12T18:26:57Z</time>
      </trkpt>
      <trkpt lat="46.84666" lon="4.26104">
        <ele>356.31</ele>
        <time>2021-08-12T18:26:58Z</time>
      </trkpt>
      <trkpt lat="46.84665" lon="4.26106">
        <ele>356.31</ele>
        <time>2021-08-12T18:26:59Z</time>
      </trkpt>
      <trkpt lat="46.84665" lon="4.26109">
        <ele>356.31</ele>
        <time>2021-08-12T18:27:00Z</time>
      </trkpt>
      <trkpt lat="46.84664" lon="4.26111">
        <ele>356.31</ele>
        <time>2021-08-12T18:27:01Z</time>
      </trkpt>
      <trkpt lat="46.84663" lon="4.26113">
        <ele>357.27</ele>
        <time>2021-08-12T18:27:02Z</time>
      </trkpt>
      <trkpt lat="46.8466" lon="4.26123">
        <ele>357.27</ele>
        <time>2021-08-12T18:27:07Z</time>
      </trkpt>
      <trkpt lat="46.84653" lon="4.2614">
        <ele>358.23</ele>
        <time>2021-08-12T18:27:15Z</time>
      </trkpt>
      <trkpt lat="46.84644" lon="4.2616">
        <ele>359.19</ele>
        <time>2021-08-12T18:27:25Z</time>
      </trkpt>
      <trkpt lat="46.84637" lon="4.26175">
        <ele>359.19</ele>
        <time>2021-08-12T18:27:32Z</time>
      </trkpt>
      <trkpt lat="46.8463" lon="4.26187">
        <ele>359.67</ele>
        <time>2021-08-12T18:27:38Z</time>
      </trkpt>
      <trkpt lat="46.84628" lon="4.26188">
        <ele>360.15</ele>
        <time>2021-08-12T18:27:39Z</time>
      </trkpt>
      <trkpt lat="46.84627" lon="4.26189">
        <ele>360.15</ele>
        <time>2021-08-12T18:27:40Z</time>
      </trkpt>
      <trkpt lat="46.84619" lon="4.26204">
        <ele>360.63</ele>
        <time>2021-08-12T18:27:48Z</time>
      </trkpt>
      <trkpt lat="46.84618" lon="4.26206">
        <ele>361.11</ele>
        <time>2021-08-12T18:27:49Z</time>
      </trkpt>
      <trkpt lat="46.84617" lon="4.26208">
        <ele>361.11</ele>
        <time>2021-08-12T18:27:50Z</time>
      </trkpt>
      <trkpt lat="46.84616" lon="4.26209">
        <ele>361.11</ele>
        <time>2021-08-12T18:27:51Z</time>
      </trkpt>
      <trkpt lat="46.84614" lon="4.26211">
        <ele>361.11</ele>
        <time>2021-08-12T18:27:52Z</time>
      </trkpt>
      <trkpt lat="46.84613" lon="4.26212">
        <ele>361.11</ele>
        <time>2021-08-12T18:27:53Z</time>
      </trkpt>
      <trkpt lat="46.84612" lon="4.26214">
        <ele>361.59</ele>
        <time>2021-08-12T18:27:54Z</time>
      </trkpt>
      <trkpt lat="46.8461" lon="4.26214">
        <ele>361.59</ele>
        <time>2021-08-12T18:27:55Z</time>
      </trkpt>
      <trkpt lat="46.84598" lon="4.26216">
        <ele>362.07</ele>
        <time>2021-08-12T18:28:03Z</time>
      </trkpt>
      <trkpt lat="46.84588" lon="4.26207">
        <ele>363.04</ele>
        <time>2021-08-12T18:28:11Z</time>
      </trkpt>
      <trkpt lat="46.8458" lon="4.26195">
        <ele>364</ele>
        <time>2021-08-12T18:28:18Z</time>
      </trkpt>
      <trkpt lat="46.84574" lon="4.26182">
        <ele>364.96</ele>
        <time>2021-08-12T18:28:26Z</time>
      </trkpt>
      <trkpt lat="46.84568" lon="4.26174">
        <ele>365.92</ele>
        <time>2021-08-12T18:28:32Z</time>
      </trkpt>
      <trkpt lat="46.84567" lon="4.26173">
        <ele>366.4</ele>
        <time>2021-08-12T18:28:33Z</time>
      </trkpt>
      <trkpt lat="46.84565" lon="4.26175">
        <ele>366.4</ele>
        <time>2021-08-12T18:28:36Z</time>
      </trkpt>
      <trkpt lat="46.84565" lon="4.26177">
        <ele>366.4</ele>
        <time>2021-08-12T18:28:37Z</time>
      </trkpt>
      <trkpt lat="46.84565" lon="4.26178">
        <ele>366.88</ele>
        <time>2021-08-12T18:28:38Z</time>
      </trkpt>
      <trkpt lat="46.84566" lon="4.2618">
        <ele>366.88</ele>
        <time>2021-08-12T18:28:39Z</time>
      </trkpt>
      <trkpt lat="46.84568" lon="4.2619">
        <ele>367.84</ele>
        <time>2021-08-12T18:28:46Z</time>
      </trkpt>
      <trkpt lat="46.84568" lon="4.26192">
        <ele>368.32</ele>
        <time>2021-08-12T18:28:47Z</time>
      </trkpt>
      <trkpt lat="46.84569" lon="4.26201">
        <ele>369.28</ele>
        <time>2021-08-12T18:28:53Z</time>
      </trkpt>
      <trkpt lat="46.84569" lon="4.26203">
        <ele>369.28</ele>
        <time>2021-08-12T18:28:54Z</time>
      </trkpt>
      <trkpt lat="46.84569" lon="4.26206">
        <ele>368.8</ele>
        <time>2021-08-12T18:28:56Z</time>
      </trkpt>
      <trkpt lat="46.8457" lon="4.26208">
        <ele>369.76</ele>
        <time>2021-08-12T18:28:57Z</time>
      </trkpt>
      <trkpt lat="46.84571" lon="4.26222">
        <ele>370.73</ele>
        <time>2021-08-12T18:29:06Z</time>
      </trkpt>
      <trkpt lat="46.84572" lon="4.26224">
        <ele>370.73</ele>
        <time>2021-08-12T18:29:07Z</time>
      </trkpt>
      <trkpt lat="46.84572" lon="4.26226">
        <ele>371.21</ele>
        <time>2021-08-12T18:29:08Z</time>
      </trkpt>
      <trkpt lat="46.84571" lon="4.2624">
        <ele>372.65</ele>
        <time>2021-08-12T18:29:17Z</time>
      </trkpt>
      <trkpt lat="46.84572" lon="4.26247">
        <ele>373.13</ele>
        <time>2021-08-12T18:29:21Z</time>
      </trkpt>
      <trkpt lat="46.84572" lon="4.26249">
        <ele>373.13</ele>
        <time>2021-08-12T18:29:22Z</time>
      </trkpt>
      <trkpt lat="46.84572" lon="4.26251">
        <ele>373.13</ele>
        <time>2021-08-12T18:29:23Z</time>
      </trkpt>
      <trkpt lat="46.84573" lon="4.26266">
        <ele>374.09</ele>
        <time>2021-08-12T18:29:32Z</time>
      </trkpt>
      <trkpt lat="46.84573" lon="4.26273">
        <ele>374.57</ele>
        <time>2021-08-12T18:29:37Z</time>
      </trkpt>
      <trkpt lat="46.84573" lon="4.26275">
        <ele>375.53</ele>
        <time>2021-08-12T18:29:38Z</time>
      </trkpt>
      <trkpt lat="46.84573" lon="4.26276">
        <ele>375.53</ele>
        <time>2021-08-12T18:29:39Z</time>
      </trkpt>
      <trkpt lat="46.84572" lon="4.26278">
        <ele>375.53</ele>
        <time>2021-08-12T18:29:40Z</time>
      </trkpt>
      <trkpt lat="46.84573" lon="4.2629">
        <ele>376.49</ele>
        <time>2021-08-12T18:29:48Z</time>
      </trkpt>
      <trkpt lat="46.84571" lon="4.26301">
        <ele>377.45</ele>
        <time>2021-08-12T18:29:55Z</time>
      </trkpt>
      <trkpt lat="46.8457" lon="4.26305">
        <ele>377.94</ele>
        <time>2021-08-12T18:29:57Z</time>
      </trkpt>
      <trkpt lat="46.84567" lon="4.26321">
        <ele>379.38</ele>
        <time>2021-08-12T18:30:06Z</time>
      </trkpt>
      <trkpt lat="46.84563" lon="4.26334">
        <ele>379.86</ele>
        <time>2021-08-12T18:30:14Z</time>
      </trkpt>
      <trkpt lat="46.8456" lon="4.26343">
        <ele>381.3</ele>
        <time>2021-08-12T18:30:21Z</time>
      </trkpt>
      <trkpt lat="46.84558" lon="4.26345">
        <ele>381.3</ele>
        <time>2021-08-12T18:30:23Z</time>
      </trkpt>
      <trkpt lat="46.84557" lon="4.26347">
        <ele>381.3</ele>
        <time>2021-08-12T18:30:24Z</time>
      </trkpt>
      <trkpt lat="46.84552" lon="4.26355">
        <ele>382.26</ele>
        <time>2021-08-12T18:30:32Z</time>
      </trkpt>
      <trkpt lat="46.84546" lon="4.26366">
        <ele>383.22</ele>
        <time>2021-08-12T18:30:40Z</time>
      </trkpt>
      <trkpt lat="46.84537" lon="4.26377">
        <ele>384.18</ele>
        <time>2021-08-12T18:30:48Z</time>
      </trkpt>
      <trkpt lat="46.84528" lon="4.26391">
        <ele>385.63</ele>
        <time>2021-08-12T18:30:56Z</time>
      </trkpt>
      <trkpt lat="46.8452" lon="4.26405">
        <ele>387.07</ele>
        <time>2021-08-12T18:31:05Z</time>
      </trkpt>
      <trkpt lat="46.84519" lon="4.26407">
        <ele>387.55</ele>
        <time>2021-08-12T18:31:06Z</time>
      </trkpt>
      <trkpt lat="46.84518" lon="4.26408">
        <ele>387.55</ele>
        <time>2021-08-12T18:31:07Z</time>
      </trkpt>
      <trkpt lat="46.84517" lon="4.2641">
        <ele>387.55</ele>
        <time>2021-08-12T18:31:08Z</time>
      </trkpt>
      <trkpt lat="46.84517" lon="4.26412">
        <ele>387.55</ele>
        <time>2021-08-12T18:31:09Z</time>
      </trkpt>
      <trkpt lat="46.84516" lon="4.26413">
        <ele>388.03</ele>
        <time>2021-08-12T18:31:10Z</time>
      </trkpt>
      <trkpt lat="46.84513" lon="4.26426">
        <ele>388.51</ele>
        <time>2021-08-12T18:31:18Z</time>
      </trkpt>
      <trkpt lat="46.84513" lon="4.2644">
        <ele>388.99</ele>
        <time>2021-08-12T18:31:26Z</time>
      </trkpt>
      <trkpt lat="46.84512" lon="4.26442">
        <ele>388.99</ele>
        <time>2021-08-12T18:31:27Z</time>
      </trkpt>
      <trkpt lat="46.84512" lon="4.26444">
        <ele>388.99</ele>
        <time>2021-08-12T18:31:28Z</time>
      </trkpt>
      <trkpt lat="46.84504" lon="4.26454">
        <ele>389.47</ele>
        <time>2021-08-12T18:31:37Z</time>
      </trkpt>
      <trkpt lat="46.84498" lon="4.26462">
        <ele>390.43</ele>
        <time>2021-08-12T18:31:44Z</time>
      </trkpt>
      <trkpt lat="46.84488" lon="4.2647">
        <ele>391.87</ele>
        <time>2021-08-12T18:31:52Z</time>
      </trkpt>
      <trkpt lat="46.84486" lon="4.26474">
        <ele>391.87</ele>
        <time>2021-08-12T18:31:55Z</time>
      </trkpt>
      <trkpt lat="46.84485" lon="4.26475">
        <ele>391.87</ele>
        <time>2021-08-12T18:31:56Z</time>
      </trkpt>
      <trkpt lat="46.84484" lon="4.26476">
        <ele>391.87</ele>
        <time>2021-08-12T18:31:57Z</time>
      </trkpt>
      <trkpt lat="46.8448" lon="4.26481">
        <ele>392.36</ele>
        <time>2021-08-12T18:32:01Z</time>
      </trkpt>
      <trkpt lat="46.84471" lon="4.26493">
        <ele>392.84</ele>
        <time>2021-08-12T18:32:09Z</time>
      </trkpt>
      <trkpt lat="46.84462" lon="4.26503">
        <ele>393.8</ele>
        <time>2021-08-12T18:32:17Z</time>
      </trkpt>
      <trkpt lat="46.84453" lon="4.26514">
        <ele>394.76</ele>
        <time>2021-08-12T18:32:26Z</time>
      </trkpt>
      <trkpt lat="46.84449" lon="4.26521">
        <ele>395.72</ele>
        <time>2021-08-12T18:32:33Z</time>
      </trkpt>
      <trkpt lat="46.84447" lon="4.26522">
        <ele>395.72</ele>
        <time>2021-08-12T18:32:34Z</time>
      </trkpt>
      <trkpt lat="46.84445" lon="4.26526">
        <ele>396.68</ele>
        <time>2021-08-12T18:32:37Z</time>
      </trkpt>
      <trkpt lat="46.84441" lon="4.26534">
        <ele>396.68</ele>
        <time>2021-08-12T18:32:42Z</time>
      </trkpt>
      <trkpt lat="46.84429" lon="4.26544">
        <ele>397.64</ele>
        <time>2021-08-12T18:32:50Z</time>
      </trkpt>
      <trkpt lat="46.84422" lon="4.26552">
        <ele>398.12</ele>
        <time>2021-08-12T18:32:56Z</time>
      </trkpt>
      <trkpt lat="46.84417" lon="4.26558">
        <ele>399.57</ele>
        <time>2021-08-12T18:33:01Z</time>
      </trkpt>
      <trkpt lat="46.84416" lon="4.26559">
        <ele>399.08</ele>
        <time>2021-08-12T18:33:02Z</time>
      </trkpt>
      <trkpt lat="46.8441" lon="4.26567">
        <ele>401.49</ele>
        <time>2021-08-12T18:33:09Z</time>
      </trkpt>
      <trkpt lat="46.84408" lon="4.26568">
        <ele>401.49</ele>
        <time>2021-08-12T18:33:10Z</time>
      </trkpt>
      <trkpt lat="46.84401" lon="4.26573">
        <ele>402.45</ele>
        <time>2021-08-12T18:33:17Z</time>
      </trkpt>
      <trkpt lat="46.84396" lon="4.26581">
        <ele>403.41</ele>
        <time>2021-08-12T18:33:26Z</time>
      </trkpt>
      <trkpt lat="46.84389" lon="4.26587">
        <ele>403.89</ele>
        <time>2021-08-12T18:33:34Z</time>
      </trkpt>
      <trkpt lat="46.84382" lon="4.26592">
        <ele>404.85</ele>
        <time>2021-08-12T18:33:43Z</time>
      </trkpt>
      <trkpt lat="46.84378" lon="4.266">
        <ele>405.81</ele>
        <time>2021-08-12T18:33:51Z</time>
      </trkpt>
      <trkpt lat="46.84376" lon="4.26604">
        <ele>406.29</ele>
        <time>2021-08-12T18:33:58Z</time>
      </trkpt>
      <trkpt lat="46.84371" lon="4.26609">
        <ele>407.26</ele>
        <time>2021-08-12T18:34:06Z</time>
      </trkpt>
      <trkpt lat="46.84366" lon="4.26617">
        <ele>408.22</ele>
        <time>2021-08-12T18:34:14Z</time>
      </trkpt>
      <trkpt lat="46.84359" lon="4.26627">
        <ele>409.18</ele>
        <time>2021-08-12T18:34:24Z</time>
      </trkpt>
      <trkpt lat="46.84355" lon="4.26634">
        <ele>410.14</ele>
        <time>2021-08-12T18:34:31Z</time>
      </trkpt>
      <trkpt lat="46.84351" lon="4.2664">
        <ele>410.14</ele>
        <time>2021-08-12T18:34:38Z</time>
      </trkpt>
      <trkpt lat="46.84345" lon="4.26648">
        <ele>410.62</ele>
        <time>2021-08-12T18:34:45Z</time>
      </trkpt>
      <trkpt lat="46.84336" lon="4.26657">
        <ele>411.58</ele>
        <time>2021-08-12T18:34:53Z</time>
      </trkpt>
      <trkpt lat="46.84335" lon="4.26659">
        <ele>411.58</ele>
        <time>2021-08-12T18:34:54Z</time>
      </trkpt>
      <trkpt lat="46.8433" lon="4.26666">
        <ele>412.54</ele>
        <time>2021-08-12T18:35:00Z</time>
      </trkpt>
      <trkpt lat="46.84324" lon="4.26676">
        <ele>413.98</ele>
        <time>2021-08-12T18:35:07Z</time>
      </trkpt>
      <trkpt lat="46.84323" lon="4.26677">
        <ele>413.98</ele>
        <time>2021-08-12T18:35:08Z</time>
      </trkpt>
      <trkpt lat="46.84314" lon="4.26687">
        <ele>414.47</ele>
        <time>2021-08-12T18:35:16Z</time>
      </trkpt>
      <trkpt lat="46.84309" lon="4.26694">
        <ele>414.95</ele>
        <time>2021-08-12T18:35:22Z</time>
      </trkpt>
      <trkpt lat="46.84307" lon="4.26695">
        <ele>414.95</ele>
        <time>2021-08-12T18:35:23Z</time>
      </trkpt>
      <trkpt lat="46.84297" lon="4.26711">
        <ele>415.43</ele>
        <time>2021-08-12T18:35:31Z</time>
      </trkpt>
      <trkpt lat="46.84291" lon="4.2672">
        <ele>415.91</ele>
        <time>2021-08-12T18:35:36Z</time>
      </trkpt>
      <trkpt lat="46.84281" lon="4.26727">
        <ele>416.87</ele>
        <time>2021-08-12T18:35:43Z</time>
      </trkpt>
      <trkpt lat="46.84272" lon="4.26735">
        <ele>417.83</ele>
        <time>2021-08-12T18:35:50Z</time>
      </trkpt>
      <trkpt lat="46.84267" lon="4.26741">
        <ele>418.79</ele>
        <time>2021-08-12T18:35:58Z</time>
      </trkpt>
      <trkpt lat="46.84263" lon="4.26745">
        <ele>419.75</ele>
        <time>2021-08-12T18:36:05Z</time>
      </trkpt>
      <trkpt lat="46.84258" lon="4.26751">
        <ele>420.71</ele>
        <time>2021-08-12T18:36:13Z</time>
      </trkpt>
      <trkpt lat="46.84252" lon="4.26757">
        <ele>422.16</ele>
        <time>2021-08-12T18:36:22Z</time>
      </trkpt>
      <trkpt lat="46.84246" lon="4.26762">
        <ele>423.12</ele>
        <time>2021-08-12T18:36:31Z</time>
      </trkpt>
      <trkpt lat="46.84241" lon="4.26768">
        <ele>424.56</ele>
        <time>2021-08-12T18:36:40Z</time>
      </trkpt>
      <trkpt lat="46.84238" lon="4.26772">
        <ele>425.04</ele>
        <time>2021-08-12T18:36:48Z</time>
      </trkpt>
      <trkpt lat="46.84232" lon="4.26778">
        <ele>425.52</ele>
        <time>2021-08-12T18:36:56Z</time>
      </trkpt>
      <trkpt lat="46.84227" lon="4.26782">
        <ele>426</ele>
        <time>2021-08-12T18:37:00Z</time>
      </trkpt>
      <trkpt lat="46.84219" lon="4.26792">
        <ele>426.48</ele>
        <time>2021-08-12T18:37:08Z</time>
      </trkpt>
      <trkpt lat="46.8421" lon="4.268">
        <ele>427.92</ele>
        <time>2021-08-12T18:37:16Z</time>
      </trkpt>
      <trkpt lat="46.84202" lon="4.2681">
        <ele>428.4</ele>
        <time>2021-08-12T18:37:24Z</time>
      </trkpt>
      <trkpt lat="46.84185" lon="4.26818">
        <ele>426.96</ele>
        <time>2021-08-12T18:37:30Z</time>
      </trkpt>
      <trkpt lat="46.84166" lon="4.26824">
        <ele>426.48</ele>
        <time>2021-08-12T18:37:36Z</time>
      </trkpt>
      <trkpt lat="46.84158" lon="4.26829">
        <ele>426.96</ele>
        <time>2021-08-12T18:37:42Z</time>
      </trkpt>
      <trkpt lat="46.84149" lon="4.26833">
        <ele>426.96</ele>
        <time>2021-08-12T18:37:48Z</time>
      </trkpt>
      <trkpt lat="46.84147" lon="4.26833">
        <ele>427.92</ele>
        <time>2021-08-12T18:37:49Z</time>
      </trkpt>
      <trkpt lat="46.84146" lon="4.26833">
        <ele>427.92</ele>
        <time>2021-08-12T18:37:50Z</time>
      </trkpt>
      <trkpt lat="46.84134" lon="4.2684">
        <ele>428.4</ele>
        <time>2021-08-12T18:37:58Z</time>
      </trkpt>
      <trkpt lat="46.84122" lon="4.26846">
        <ele>429.85</ele>
        <time>2021-08-12T18:38:06Z</time>
      </trkpt>
      <trkpt lat="46.84118" lon="4.2685">
        <ele>430.33</ele>
        <time>2021-08-12T18:38:10Z</time>
      </trkpt>
      <trkpt lat="46.84116" lon="4.2685">
        <ele>430.33</ele>
        <time>2021-08-12T18:38:11Z</time>
      </trkpt>
      <trkpt lat="46.84114" lon="4.26849">
        <ele>430.33</ele>
        <time>2021-08-12T18:38:12Z</time>
      </trkpt>
      <trkpt lat="46.84113" lon="4.26848">
        <ele>430.33</ele>
        <time>2021-08-12T18:38:13Z</time>
      </trkpt>
      <trkpt lat="46.84103" lon="4.26844">
        <ele>430.33</ele>
        <time>2021-08-12T18:38:19Z</time>
      </trkpt>
      <trkpt lat="46.84096" lon="4.26834">
        <ele>430.33</ele>
        <time>2021-08-12T18:38:26Z</time>
      </trkpt>
      <trkpt lat="46.84095" lon="4.26831">
        <ele>430.33</ele>
        <time>2021-08-12T18:38:28Z</time>
      </trkpt>
      <trkpt lat="46.8409" lon="4.26817">
        <ele>430.81</ele>
        <time>2021-08-12T18:38:36Z</time>
      </trkpt>
      <trkpt lat="46.84085" lon="4.26802">
        <ele>431.29</ele>
        <time>2021-08-12T18:38:44Z</time>
      </trkpt>
      <trkpt lat="46.84083" lon="4.26798">
        <ele>431.77</ele>
        <time>2021-08-12T18:38:46Z</time>
      </trkpt>
      <trkpt lat="46.84082" lon="4.26796">
        <ele>431.77</ele>
        <time>2021-08-12T18:38:47Z</time>
      </trkpt>
      <trkpt lat="46.84082" lon="4.26794">
        <ele>431.77</ele>
        <time>2021-08-12T18:38:48Z</time>
      </trkpt>
      <trkpt lat="46.8408" lon="4.26788">
        <ele>432.25</ele>
        <time>2021-08-12T18:38:52Z</time>
      </trkpt>
      <trkpt lat="46.8408" lon="4.2678">
        <ele>432.73</ele>
        <time>2021-08-12T18:38:56Z</time>
      </trkpt>
      <trkpt lat="46.84078" lon="4.26773">
        <ele>433.69</ele>
        <time>2021-08-12T18:39:02Z</time>
      </trkpt>
      <trkpt lat="46.84076" lon="4.26762">
        <ele>434.17</ele>
        <time>2021-08-12T18:39:10Z</time>
      </trkpt>
      <trkpt lat="46.84077" lon="4.26753">
        <ele>435.13</ele>
        <time>2021-08-12T18:39:16Z</time>
      </trkpt>
      <trkpt lat="46.84073" lon="4.26738">
        <ele>436.1</ele>
        <time>2021-08-12T18:39:24Z</time>
      </trkpt>
      <trkpt lat="46.84073" lon="4.26729">
        <ele>436.58</ele>
        <time>2021-08-12T18:39:31Z</time>
      </trkpt>
      <trkpt lat="46.84073" lon="4.26727">
        <ele>436.58</ele>
        <time>2021-08-12T18:39:32Z</time>
      </trkpt>
      <trkpt lat="46.84072" lon="4.26716">
        <ele>436.58</ele>
        <time>2021-08-12T18:39:39Z</time>
      </trkpt>
      <trkpt lat="46.84073" lon="4.26699">
        <ele>436.58</ele>
        <time>2021-08-12T18:39:46Z</time>
      </trkpt>
      <trkpt lat="46.84071" lon="4.26679">
        <ele>436.58</ele>
        <time>2021-08-12T18:39:53Z</time>
      </trkpt>
      <trkpt lat="46.84071" lon="4.26675">
        <ele>436.58</ele>
        <time>2021-08-12T18:39:55Z</time>
      </trkpt>
      <trkpt lat="46.84071" lon="4.26672">
        <ele>436.58</ele>
        <time>2021-08-12T18:39:56Z</time>
      </trkpt>
      <trkpt lat="46.84071" lon="4.2667">
        <ele>436.58</ele>
        <time>2021-08-12T18:39:57Z</time>
      </trkpt>
      <trkpt lat="46.84071" lon="4.26667">
        <ele>436.58</ele>
        <time>2021-08-12T18:39:58Z</time>
      </trkpt>
      <trkpt lat="46.84071" lon="4.26665">
        <ele>436.58</ele>
        <time>2021-08-12T18:39:59Z</time>
      </trkpt>
      <trkpt lat="46.84071" lon="4.26662">
        <ele>436.58</ele>
        <time>2021-08-12T18:40:00Z</time>
      </trkpt>
      <trkpt lat="46.8407" lon="4.26641">
        <ele>436.58</ele>
        <time>2021-08-12T18:40:07Z</time>
      </trkpt>
      <trkpt lat="46.84069" lon="4.26614">
        <ele>436.58</ele>
        <time>2021-08-12T18:40:14Z</time>
      </trkpt>
      <trkpt lat="46.84065" lon="4.26596">
        <ele>436.58</ele>
        <time>2021-08-12T18:40:19Z</time>
      </trkpt>
      <trkpt lat="46.84054" lon="4.26575">
        <ele>437.06</ele>
        <time>2021-08-12T18:40:25Z</time>
      </trkpt>
      <trkpt lat="46.84043" lon="4.26555">
        <ele>437.06</ele>
        <time>2021-08-12T18:40:32Z</time>
      </trkpt>
      <trkpt lat="46.84026" lon="4.26538">
        <ele>438.02</ele>
        <time>2021-08-12T18:40:40Z</time>
      </trkpt>
      <trkpt lat="46.84009" lon="4.2653">
        <ele>438.5</ele>
        <time>2021-08-12T18:40:47Z</time>
      </trkpt>
      <trkpt lat="46.84" lon="4.26534">
        <ele>439.46</ele>
        <time>2021-08-12T18:40:52Z</time>
      </trkpt>
      <trkpt lat="46.83996" lon="4.26537">
        <ele>439.94</ele>
        <time>2021-08-12T18:40:55Z</time>
      </trkpt>
      <trkpt lat="46.83995" lon="4.26538">
        <ele>439.94</ele>
        <time>2021-08-12T18:40:56Z</time>
      </trkpt>
      <trkpt lat="46.8399" lon="4.26544">
        <ele>441.38</ele>
        <time>2021-08-12T18:41:02Z</time>
      </trkpt>
      <trkpt lat="46.83987" lon="4.26549">
        <ele>441.86</ele>
        <time>2021-08-12T18:41:05Z</time>
      </trkpt>
      <trkpt lat="46.83986" lon="4.26551">
        <ele>441.86</ele>
        <time>2021-08-12T18:41:06Z</time>
      </trkpt>
      <trkpt lat="46.83985" lon="4.26552">
        <ele>441.86</ele>
        <time>2021-08-12T18:41:07Z</time>
      </trkpt>
      <trkpt lat="46.83984" lon="4.26553">
        <ele>441.86</ele>
        <time>2021-08-12T18:41:08Z</time>
      </trkpt>
      <trkpt lat="46.83983" lon="4.26555">
        <ele>441.86</ele>
        <time>2021-08-12T18:41:09Z</time>
      </trkpt>
      <trkpt lat="46.83973" lon="4.26566">
        <ele>443.31</ele>
        <time>2021-08-12T18:41:17Z</time>
      </trkpt>
      <trkpt lat="46.8396" lon="4.26571">
        <ele>443.79</ele>
        <time>2021-08-12T18:41:26Z</time>
      </trkpt>
      <trkpt lat="46.83947" lon="4.26573">
        <ele>444.27</ele>
        <time>2021-08-12T18:41:34Z</time>
      </trkpt>
      <trkpt lat="46.83939" lon="4.26574">
        <ele>444.75</ele>
        <time>2021-08-12T18:41:39Z</time>
      </trkpt>
      <trkpt lat="46.83937" lon="4.26574">
        <ele>444.75</ele>
        <time>2021-08-12T18:41:40Z</time>
      </trkpt>
      <trkpt lat="46.83922" lon="4.26577">
        <ele>446.19</ele>
        <time>2021-08-12T18:41:50Z</time>
      </trkpt>
      <trkpt lat="46.83908" lon="4.26579">
        <ele>446.67</ele>
        <time>2021-08-12T18:41:59Z</time>
      </trkpt>
      <trkpt lat="46.83892" lon="4.26583">
        <ele>447.63</ele>
        <time>2021-08-12T18:42:10Z</time>
      </trkpt>
      <trkpt lat="46.83883" lon="4.26588">
        <ele>449.07</ele>
        <time>2021-08-12T18:42:17Z</time>
      </trkpt>
      <trkpt lat="46.83873" lon="4.26595">
        <ele>449.55</ele>
        <time>2021-08-12T18:42:25Z</time>
      </trkpt>
      <trkpt lat="46.83871" lon="4.26599">
        <ele>449.07</ele>
        <time>2021-08-12T18:42:28Z</time>
      </trkpt>
      <trkpt lat="46.8387" lon="4.26601">
        <ele>450.03</ele>
        <time>2021-08-12T18:42:29Z</time>
      </trkpt>
      <trkpt lat="46.8387" lon="4.26603">
        <ele>450.03</ele>
        <time>2021-08-12T18:42:30Z</time>
      </trkpt>
      <trkpt lat="46.83871" lon="4.26623">
        <ele>451.48</ele>
        <time>2021-08-12T18:42:39Z</time>
      </trkpt>
      <trkpt lat="46.83875" lon="4.26628">
        <ele>451.48</ele>
        <time>2021-08-12T18:42:42Z</time>
      </trkpt>
      <trkpt lat="46.83876" lon="4.26629">
        <ele>451.48</ele>
        <time>2021-08-12T18:42:43Z</time>
      </trkpt>
      <trkpt lat="46.83878" lon="4.2663">
        <ele>451.96</ele>
        <time>2021-08-12T18:42:44Z</time>
      </trkpt>
      <trkpt lat="46.8388" lon="4.2663">
        <ele>451.96</ele>
        <time>2021-08-12T18:42:45Z</time>
      </trkpt>
      <trkpt lat="46.83881" lon="4.2663">
        <ele>451.96</ele>
        <time>2021-08-12T18:42:46Z</time>
      </trkpt>
      <trkpt lat="46.83883" lon="4.2663">
        <ele>451.96</ele>
        <time>2021-08-12T18:42:47Z</time>
      </trkpt>
      <trkpt lat="46.83884" lon="4.2663">
        <ele>451.96</ele>
        <time>2021-08-12T18:42:48Z</time>
      </trkpt>
      <trkpt lat="46.83896" lon="4.26628">
        <ele>452.44</ele>
        <time>2021-08-12T18:42:56Z</time>
      </trkpt>
      <trkpt lat="46.83914" lon="4.26631">
        <ele>453.88</ele>
        <time>2021-08-12T18:43:06Z</time>
      </trkpt>
      <trkpt lat="46.83917" lon="4.26634">
        <ele>453.88</ele>
        <time>2021-08-12T18:43:08Z</time>
      </trkpt>
      <trkpt lat="46.83923" lon="4.26642">
        <ele>453.88</ele>
        <time>2021-08-12T18:43:12Z</time>
      </trkpt>
      <trkpt lat="46.83924" lon="4.26645">
        <ele>453.88</ele>
        <time>2021-08-12T18:43:13Z</time>
      </trkpt>
      <trkpt lat="46.83934" lon="4.26663">
        <ele>455.8</ele>
        <time>2021-08-12T18:43:21Z</time>
      </trkpt>
      <trkpt lat="46.83945" lon="4.26683">
        <ele>456.28</ele>
        <time>2021-08-12T18:43:29Z</time>
      </trkpt>
      <trkpt lat="46.83955" lon="4.26701">
        <ele>457.24</ele>
        <time>2021-08-12T18:43:37Z</time>
      </trkpt>
      <trkpt lat="46.83961" lon="4.26726">
        <ele>458.69</ele>
        <time>2021-08-12T18:43:46Z</time>
      </trkpt>
      <trkpt lat="46.83961" lon="4.26744">
        <ele>459.17</ele>
        <time>2021-08-12T18:43:53Z</time>
      </trkpt>
      <trkpt lat="46.83961" lon="4.26761">
        <ele>460.13</ele>
        <time>2021-08-12T18:44:00Z</time>
      </trkpt>
      <trkpt lat="46.83962" lon="4.26784">
        <ele>461.09</ele>
        <time>2021-08-12T18:44:08Z</time>
      </trkpt>
      <trkpt lat="46.83961" lon="4.26807">
        <ele>461.57</ele>
        <time>2021-08-12T18:44:16Z</time>
      </trkpt>
      <trkpt lat="46.83961" lon="4.26833">
        <ele>463.01</ele>
        <time>2021-08-12T18:44:25Z</time>
      </trkpt>
      <trkpt lat="46.83959" lon="4.26852">
        <ele>463.49</ele>
        <time>2021-08-12T18:44:32Z</time>
      </trkpt>
      <trkpt lat="46.83954" lon="4.26874">
        <ele>464.45</ele>
        <time>2021-08-12T18:44:41Z</time>
      </trkpt>
      <trkpt lat="46.83953" lon="4.26876">
        <ele>464.45</ele>
        <time>2021-08-12T18:44:42Z</time>
      </trkpt>
      <trkpt lat="46.83952" lon="4.26879">
        <ele>464.45</ele>
        <time>2021-08-12T18:44:43Z</time>
      </trkpt>
      <trkpt lat="46.83951" lon="4.26881">
        <ele>464.93</ele>
        <time>2021-08-12T18:44:44Z</time>
      </trkpt>
      <trkpt lat="46.83951" lon="4.26884">
        <ele>464.93</ele>
        <time>2021-08-12T18:44:45Z</time>
      </trkpt>
      <trkpt lat="46.83951" lon="4.26886">
        <ele>464.93</ele>
        <time>2021-08-12T18:44:46Z</time>
      </trkpt>
      <trkpt lat="46.83951" lon="4.26889">
        <ele>464.93</ele>
        <time>2021-08-12T18:44:47Z</time>
      </trkpt>
      <trkpt lat="46.83951" lon="4.26891">
        <ele>464.93</ele>
        <time>2021-08-12T18:44:48Z</time>
      </trkpt>
      <trkpt lat="46.83951" lon="4.26893">
        <ele>464.93</ele>
        <time>2021-08-12T18:44:49Z</time>
      </trkpt>
      <trkpt lat="46.83951" lon="4.26896">
        <ele>465.42</ele>
        <time>2021-08-12T18:44:50Z</time>
      </trkpt>
      <trkpt lat="46.83951" lon="4.26898">
        <ele>465.42</ele>
        <time>2021-08-12T18:44:51Z</time>
      </trkpt>
      <trkpt lat="46.8395" lon="4.26901">
        <ele>465.42</ele>
        <time>2021-08-12T18:44:52Z</time>
      </trkpt>
      <trkpt lat="46.8395" lon="4.26904">
        <ele>465.9</ele>
        <time>2021-08-12T18:44:53Z</time>
      </trkpt>
      <trkpt lat="46.83949" lon="4.26906">
        <ele>465.9</ele>
        <time>2021-08-12T18:44:54Z</time>
      </trkpt>
      <trkpt lat="46.83951" lon="4.26928">
        <ele>466.38</ele>
        <time>2021-08-12T18:45:02Z</time>
      </trkpt>
      <trkpt lat="46.83951" lon="4.26931">
        <ele>466.86</ele>
        <time>2021-08-12T18:45:03Z</time>
      </trkpt>
      <trkpt lat="46.83957" lon="4.26953">
        <ele>467.82</ele>
        <time>2021-08-12T18:45:12Z</time>
      </trkpt>
      <trkpt lat="46.83961" lon="4.26972">
        <ele>468.78</ele>
        <time>2021-08-12T18:45:20Z</time>
      </trkpt>
      <trkpt lat="46.83963" lon="4.26997">
        <ele>469.74</ele>
        <time>2021-08-12T18:45:30Z</time>
      </trkpt>
      <trkpt lat="46.83966" lon="4.27015">
        <ele>470.7</ele>
        <time>2021-08-12T18:45:37Z</time>
      </trkpt>
      <trkpt lat="46.83966" lon="4.27017">
        <ele>470.7</ele>
        <time>2021-08-12T18:45:38Z</time>
      </trkpt>
      <trkpt lat="46.83969" lon="4.27038">
        <ele>472.14</ele>
        <time>2021-08-12T18:45:47Z</time>
      </trkpt>
      <trkpt lat="46.8397" lon="4.27053">
        <ele>472.14</ele>
        <time>2021-08-12T18:45:54Z</time>
      </trkpt>
      <trkpt lat="46.83971" lon="4.27055">
        <ele>472.63</ele>
        <time>2021-08-12T18:45:55Z</time>
      </trkpt>
      <trkpt lat="46.83972" lon="4.27058">
        <ele>472.63</ele>
        <time>2021-08-12T18:45:56Z</time>
      </trkpt>
      <trkpt lat="46.83972" lon="4.2706">
        <ele>472.63</ele>
        <time>2021-08-12T18:45:57Z</time>
      </trkpt>
      <trkpt lat="46.83972" lon="4.27062">
        <ele>472.63</ele>
        <time>2021-08-12T18:45:58Z</time>
      </trkpt>
      <trkpt lat="46.83972" lon="4.27064">
        <ele>472.63</ele>
        <time>2021-08-12T18:45:59Z</time>
      </trkpt>
      <trkpt lat="46.83973" lon="4.27066">
        <ele>472.63</ele>
        <time>2021-08-12T18:46:00Z</time>
      </trkpt>
      <trkpt lat="46.83974" lon="4.27069">
        <ele>473.11</ele>
        <time>2021-08-12T18:46:01Z</time>
      </trkpt>
      <trkpt lat="46.83974" lon="4.2707">
        <ele>473.11</ele>
        <time>2021-08-12T18:46:02Z</time>
      </trkpt>
      <trkpt lat="46.83974" lon="4.27073">
        <ele>473.11</ele>
        <time>2021-08-12T18:46:03Z</time>
      </trkpt>
      <trkpt lat="46.83973" lon="4.27075">
        <ele>473.11</ele>
        <time>2021-08-12T18:46:04Z</time>
      </trkpt>
      <trkpt lat="46.83973" lon="4.27077">
        <ele>473.11</ele>
        <time>2021-08-12T18:46:05Z</time>
      </trkpt>
      <trkpt lat="46.83965" lon="4.27076">
        <ele>474.07</ele>
        <time>2021-08-12T18:46:10Z</time>
      </trkpt>
      <trkpt lat="46.8396" lon="4.27067">
        <ele>475.03</ele>
        <time>2021-08-12T18:46:19Z</time>
      </trkpt>
      <trkpt lat="46.83962" lon="4.27067">
        <ele>475.03</ele>
        <time>2021-08-12T18:46:33Z</time>
      </trkpt>
      <trkpt lat="46.8396" lon="4.27064">
        <ele>475.03</ele>
        <time>2021-08-12T18:46:48Z</time>
      </trkpt>
      <trkpt lat="46.83953" lon="4.27058">
        <ele>475.03</ele>
        <time>2021-08-12T18:47:06Z</time>
      </trkpt>
      <trkpt lat="46.83957" lon="4.2706">
        <ele>475.03</ele>
        <time>2021-08-12T18:47:13Z</time>
      </trkpt>
      <trkpt lat="46.83957" lon="4.27061">
        <ele>475.03</ele>
        <time>2021-08-12T18:47:14Z</time>
      </trkpt>
      <trkpt lat="46.83965" lon="4.27074">
        <ele>474.07</ele>
        <time>2021-08-12T18:47:23Z</time>
      </trkpt>
      <trkpt lat="46.83966" lon="4.27075">
        <ele>474.07</ele>
        <time>2021-08-12T18:47:24Z</time>
      </trkpt>
      <trkpt lat="46.83973" lon="4.27084">
        <ele>473.59</ele>
        <time>2021-08-12T18:47:32Z</time>
      </trkpt>
      <trkpt lat="46.83974" lon="4.27085">
        <ele>473.59</ele>
        <time>2021-08-12T18:47:34Z</time>
      </trkpt>
      <trkpt lat="46.83974" lon="4.27088">
        <ele>473.59</ele>
        <time>2021-08-12T18:47:36Z</time>
      </trkpt>
      <trkpt lat="46.83971" lon="4.27093">
        <ele>475.03</ele>
        <time>2021-08-12T18:47:40Z</time>
      </trkpt>
      <trkpt lat="46.8397" lon="4.27095">
        <ele>475.99</ele>
        <time>2021-08-12T18:47:43Z</time>
      </trkpt>
      <trkpt lat="46.83964" lon="4.27084">
        <ele>477.43</ele>
        <time>2021-08-12T18:47:51Z</time>
      </trkpt>
      <trkpt lat="46.83957" lon="4.27073">
        <ele>477.91</ele>
        <time>2021-08-12T18:47:58Z</time>
      </trkpt>
      <trkpt lat="46.83947" lon="4.27063">
        <ele>478.87</ele>
        <time>2021-08-12T18:48:07Z</time>
      </trkpt>
      <trkpt lat="46.83943" lon="4.2706">
        <ele>478.87</ele>
        <time>2021-08-12T18:48:10Z</time>
      </trkpt>
      <trkpt lat="46.83938" lon="4.27056">
        <ele>479.84</ele>
        <time>2021-08-12T18:48:16Z</time>
      </trkpt>
      <trkpt lat="46.8393" lon="4.27049">
        <ele>480.8</ele>
        <time>2021-08-12T18:48:24Z</time>
      </trkpt>
      <trkpt lat="46.83921" lon="4.27042">
        <ele>482.72</ele>
        <time>2021-08-12T18:48:32Z</time>
      </trkpt>
      <trkpt lat="46.83914" lon="4.27037">
        <ele>482.72</ele>
        <time>2021-08-12T18:48:39Z</time>
      </trkpt>
      <trkpt lat="46.83906" lon="4.27029">
        <ele>484.16</ele>
        <time>2021-08-12T18:48:49Z</time>
      </trkpt>
      <trkpt lat="46.83901" lon="4.27027">
        <ele>484.64</ele>
        <time>2021-08-12T18:48:54Z</time>
      </trkpt>
      <trkpt lat="46.83896" lon="4.27021">
        <ele>485.6</ele>
        <time>2021-08-12T18:49:01Z</time>
      </trkpt>
      <trkpt lat="46.83887" lon="4.27014">
        <ele>486.56</ele>
        <time>2021-08-12T18:49:09Z</time>
      </trkpt>
      <trkpt lat="46.83881" lon="4.27007">
        <ele>487.53</ele>
        <time>2021-08-12T18:49:15Z</time>
      </trkpt>
      <trkpt lat="46.83874" lon="4.27">
        <ele>488.01</ele>
        <time>2021-08-12T18:49:21Z</time>
      </trkpt>
      <trkpt lat="46.83865" lon="4.2699">
        <ele>488.49</ele>
        <time>2021-08-12T18:49:30Z</time>
      </trkpt>
      <trkpt lat="46.83856" lon="4.2699">
        <ele>489.93</ele>
        <time>2021-08-12T18:49:37Z</time>
      </trkpt>
      <trkpt lat="46.83851" lon="4.26992">
        <ele>490.89</ele>
        <time>2021-08-12T18:49:45Z</time>
      </trkpt>
      <trkpt lat="46.83847" lon="4.26998">
        <ele>491.85</ele>
        <time>2021-08-12T18:49:53Z</time>
      </trkpt>
      <trkpt lat="46.83843" lon="4.27003">
        <ele>493.29</ele>
        <time>2021-08-12T18:50:01Z</time>
      </trkpt>
      <trkpt lat="46.83839" lon="4.27009">
        <ele>493.77</ele>
        <time>2021-08-12T18:50:08Z</time>
      </trkpt>
      <trkpt lat="46.83836" lon="4.27014">
        <ele>494.74</ele>
        <time>2021-08-12T18:50:15Z</time>
      </trkpt>
      <trkpt lat="46.83832" lon="4.27021">
        <ele>496.18</ele>
        <time>2021-08-12T18:50:24Z</time>
      </trkpt>
      <trkpt lat="46.83827" lon="4.27025">
        <ele>497.14</ele>
        <time>2021-08-12T18:50:32Z</time>
      </trkpt>
      <trkpt lat="46.83823" lon="4.27029">
        <ele>498.1</ele>
        <time>2021-08-12T18:50:40Z</time>
      </trkpt>
      <trkpt lat="46.83822" lon="4.27035">
        <ele>499.06</ele>
        <time>2021-08-12T18:50:48Z</time>
      </trkpt>
      <trkpt lat="46.8382" lon="4.2704">
        <ele>500.5</ele>
        <time>2021-08-12T18:50:56Z</time>
      </trkpt>
      <trkpt lat="46.83819" lon="4.27046">
        <ele>501.46</ele>
        <time>2021-08-12T18:51:05Z</time>
      </trkpt>
      <trkpt lat="46.83818" lon="4.27055">
        <ele>502.91</ele>
        <time>2021-08-12T18:51:15Z</time>
      </trkpt>
      <trkpt lat="46.83818" lon="4.27061">
        <ele>504.35</ele>
        <time>2021-08-12T18:51:24Z</time>
      </trkpt>
      <trkpt lat="46.83816" lon="4.27065">
        <ele>505.79</ele>
        <time>2021-08-12T18:51:32Z</time>
      </trkpt>
      <trkpt lat="46.83813" lon="4.27071">
        <ele>506.75</ele>
        <time>2021-08-12T18:51:40Z</time>
      </trkpt>
      <trkpt lat="46.83812" lon="4.27079">
        <ele>507.23</ele>
        <time>2021-08-12T18:51:47Z</time>
      </trkpt>
      <trkpt lat="46.83808" lon="4.27088">
        <ele>508.67</ele>
        <time>2021-08-12T18:51:54Z</time>
      </trkpt>
      <trkpt lat="46.83807" lon="4.27094">
        <ele>509.16</ele>
        <time>2021-08-12T18:51:58Z</time>
      </trkpt>
      <trkpt lat="46.83809" lon="4.27105">
        <ele>510.6</ele>
        <time>2021-08-12T18:52:06Z</time>
      </trkpt>
      <trkpt lat="46.83812" lon="4.2711">
        <ele>511.08</ele>
        <time>2021-08-12T18:52:12Z</time>
      </trkpt>
      <trkpt lat="46.83817" lon="4.27116">
        <ele>512.04</ele>
        <time>2021-08-12T18:52:20Z</time>
      </trkpt>
      <trkpt lat="46.83821" lon="4.27122">
        <ele>513.48</ele>
        <time>2021-08-12T18:52:27Z</time>
      </trkpt>
      <trkpt lat="46.83823" lon="4.27124">
        <ele>513.48</ele>
        <time>2021-08-12T18:52:29Z</time>
      </trkpt>
      <trkpt lat="46.83827" lon="4.27131">
        <ele>514.44</ele>
        <time>2021-08-12T18:52:34Z</time>
      </trkpt>
      <trkpt lat="46.83828" lon="4.27136">
        <ele>515.4</ele>
        <time>2021-08-12T18:52:42Z</time>
      </trkpt>
      <trkpt lat="46.83827" lon="4.27145">
        <ele>516.85</ele>
        <time>2021-08-12T18:52:51Z</time>
      </trkpt>
      <trkpt lat="46.83826" lon="4.27151">
        <ele>517.81</ele>
        <time>2021-08-12T18:52:58Z</time>
      </trkpt>
      <trkpt lat="46.83825" lon="4.27157">
        <ele>518.29</ele>
        <time>2021-08-12T18:53:05Z</time>
      </trkpt>
      <trkpt lat="46.83823" lon="4.27165">
        <ele>520.21</ele>
        <time>2021-08-12T18:53:14Z</time>
      </trkpt>
      <trkpt lat="46.8382" lon="4.27175">
        <ele>521.17</ele>
        <time>2021-08-12T18:53:22Z</time>
      </trkpt>
      <trkpt lat="46.83819" lon="4.27184">
        <ele>522.13</ele>
        <time>2021-08-12T18:53:29Z</time>
      </trkpt>
      <trkpt lat="46.83818" lon="4.27192">
        <ele>523.09</ele>
        <time>2021-08-12T18:53:37Z</time>
      </trkpt>
      <trkpt lat="46.83812" lon="4.27204">
        <ele>524.54</ele>
        <time>2021-08-12T18:53:46Z</time>
      </trkpt>
      <trkpt lat="46.83811" lon="4.27207">
        <ele>525.02</ele>
        <time>2021-08-12T18:53:48Z</time>
      </trkpt>
      <trkpt lat="46.83807" lon="4.27215">
        <ele>525.5</ele>
        <time>2021-08-12T18:53:55Z</time>
      </trkpt>
      <trkpt lat="46.83804" lon="4.27221">
        <ele>526.46</ele>
        <time>2021-08-12T18:54:02Z</time>
      </trkpt>
      <trkpt lat="46.838" lon="4.27232">
        <ele>527.9</ele>
        <time>2021-08-12T18:54:10Z</time>
      </trkpt>
      <trkpt lat="46.83797" lon="4.27241">
        <ele>528.38</ele>
        <time>2021-08-12T18:54:17Z</time>
      </trkpt>
      <trkpt lat="46.83795" lon="4.27247">
        <ele>528.86</ele>
        <time>2021-08-12T18:54:25Z</time>
      </trkpt>
      <trkpt lat="46.8379" lon="4.27258">
        <ele>528.86</ele>
        <time>2021-08-12T18:54:45Z</time>
      </trkpt>
      <trkpt lat="46.83787" lon="4.27269">
        <ele>529.34</ele>
        <time>2021-08-12T18:54:52Z</time>
      </trkpt>
      <trkpt lat="46.83782" lon="4.2728">
        <ele>529.82</ele>
        <time>2021-08-12T18:54:59Z</time>
      </trkpt>
      <trkpt lat="46.83779" lon="4.27294">
        <ele>530.3</ele>
        <time>2021-08-12T18:55:07Z</time>
      </trkpt>
      <trkpt lat="46.83778" lon="4.27297">
        <ele>530.3</ele>
        <time>2021-08-12T18:55:08Z</time>
      </trkpt>
      <trkpt lat="46.83778" lon="4.27299">
        <ele>530.3</ele>
        <time>2021-08-12T18:55:09Z</time>
      </trkpt>
      <trkpt lat="46.83777" lon="4.27301">
        <ele>530.3</ele>
        <time>2021-08-12T18:55:10Z</time>
      </trkpt>
      <trkpt lat="46.83772" lon="4.27321">
        <ele>531.27</ele>
        <time>2021-08-12T18:55:18Z</time>
      </trkpt>
      <trkpt lat="46.83771" lon="4.27337">
        <ele>532.23</ele>
        <time>2021-08-12T18:55:25Z</time>
      </trkpt>
      <trkpt lat="46.83766" lon="4.27358">
        <ele>533.19</ele>
        <time>2021-08-12T18:55:34Z</time>
      </trkpt>
      <trkpt lat="46.83762" lon="4.2738">
        <ele>534.15</ele>
        <time>2021-08-12T18:55:43Z</time>
      </trkpt>
      <trkpt lat="46.8376" lon="4.27388">
        <ele>534.63</ele>
        <time>2021-08-12T18:55:47Z</time>
      </trkpt>
      <trkpt lat="46.8376" lon="4.2739">
        <ele>535.59</ele>
        <time>2021-08-12T18:55:48Z</time>
      </trkpt>
      <trkpt lat="46.8376" lon="4.27393">
        <ele>535.59</ele>
        <time>2021-08-12T18:55:49Z</time>
      </trkpt>
      <trkpt lat="46.83756" lon="4.27415">
        <ele>536.07</ele>
        <time>2021-08-12T18:55:57Z</time>
      </trkpt>
      <trkpt lat="46.83752" lon="4.27431">
        <ele>537.03</ele>
        <time>2021-08-12T18:56:04Z</time>
      </trkpt>
      <trkpt lat="46.83752" lon="4.27432">
        <ele>537.03</ele>
        <time>2021-08-12T18:56:05Z</time>
      </trkpt>
      <trkpt lat="46.83752" lon="4.27434">
        <ele>537.03</ele>
        <time>2021-08-12T18:56:06Z</time>
      </trkpt>
      <trkpt lat="46.83749" lon="4.27453">
        <ele>538.96</ele>
        <time>2021-08-12T18:56:17Z</time>
      </trkpt>
      <trkpt lat="46.83747" lon="4.2746">
        <ele>539.44</ele>
        <time>2021-08-12T18:56:21Z</time>
      </trkpt>
      <trkpt lat="46.83746" lon="4.27462">
        <ele>539.92</ele>
        <time>2021-08-12T18:56:22Z</time>
      </trkpt>
      <trkpt lat="46.83746" lon="4.27464">
        <ele>539.92</ele>
        <time>2021-08-12T18:56:23Z</time>
      </trkpt>
      <trkpt lat="46.83745" lon="4.27466">
        <ele>539.92</ele>
        <time>2021-08-12T18:56:24Z</time>
      </trkpt>
      <trkpt lat="46.83745" lon="4.27468">
        <ele>539.92</ele>
        <time>2021-08-12T18:56:25Z</time>
      </trkpt>
      <trkpt lat="46.83745" lon="4.27469">
        <ele>539.92</ele>
        <time>2021-08-12T18:56:26Z</time>
      </trkpt>
      <trkpt lat="46.83744" lon="4.27471">
        <ele>539.92</ele>
        <time>2021-08-12T18:56:27Z</time>
      </trkpt>
      <trkpt lat="46.83744" lon="4.27472">
        <ele>539.92</ele>
        <time>2021-08-12T18:56:28Z</time>
      </trkpt>
      <trkpt lat="46.83743" lon="4.27474">
        <ele>539.92</ele>
        <time>2021-08-12T18:56:29Z</time>
      </trkpt>
      <trkpt lat="46.83743" lon="4.27476">
        <ele>540.4</ele>
        <time>2021-08-12T18:56:30Z</time>
      </trkpt>
      <trkpt lat="46.83743" lon="4.27478">
        <ele>540.4</ele>
        <time>2021-08-12T18:56:31Z</time>
      </trkpt>
      <trkpt lat="46.8374" lon="4.27489">
        <ele>541.36</ele>
        <time>2021-08-12T18:56:38Z</time>
      </trkpt>
      <trkpt lat="46.83738" lon="4.27498">
        <ele>541.84</ele>
        <time>2021-08-12T18:56:43Z</time>
      </trkpt>
      <trkpt lat="46.83737" lon="4.275">
        <ele>541.84</ele>
        <time>2021-08-12T18:56:44Z</time>
      </trkpt>
      <trkpt lat="46.83736" lon="4.27502">
        <ele>542.32</ele>
        <time>2021-08-12T18:56:45Z</time>
      </trkpt>
      <trkpt lat="46.83736" lon="4.27504">
        <ele>542.32</ele>
        <time>2021-08-12T18:56:46Z</time>
      </trkpt>
      <trkpt lat="46.83736" lon="4.27506">
        <ele>542.32</ele>
        <time>2021-08-12T18:56:47Z</time>
      </trkpt>
      <trkpt lat="46.83732" lon="4.27521">
        <ele>543.28</ele>
        <time>2021-08-12T18:56:56Z</time>
      </trkpt>
      <trkpt lat="46.83731" lon="4.27523">
        <ele>543.28</ele>
        <time>2021-08-12T18:56:57Z</time>
      </trkpt>
      <trkpt lat="46.8373" lon="4.27525">
        <ele>544.24</ele>
        <time>2021-08-12T18:56:58Z</time>
      </trkpt>
      <trkpt lat="46.8373" lon="4.27526">
        <ele>544.24</ele>
        <time>2021-08-12T18:56:59Z</time>
      </trkpt>
      <trkpt lat="46.8373" lon="4.27528">
        <ele>544.24</ele>
        <time>2021-08-12T18:57:00Z</time>
      </trkpt>
      <trkpt lat="46.83729" lon="4.2753">
        <ele>544.24</ele>
        <time>2021-08-12T18:57:01Z</time>
      </trkpt>
      <trkpt lat="46.83729" lon="4.27532">
        <ele>545.2</ele>
        <time>2021-08-12T18:57:02Z</time>
      </trkpt>
      <trkpt lat="46.83728" lon="4.27538">
        <ele>545.69</ele>
        <time>2021-08-12T18:57:05Z</time>
      </trkpt>
      <trkpt lat="46.83727" lon="4.2754">
        <ele>545.69</ele>
        <time>2021-08-12T18:57:06Z</time>
      </trkpt>
      <trkpt lat="46.83727" lon="4.27541">
        <ele>545.69</ele>
        <time>2021-08-12T18:57:07Z</time>
      </trkpt>
      <trkpt lat="46.83727" lon="4.27543">
        <ele>545.69</ele>
        <time>2021-08-12T18:57:08Z</time>
      </trkpt>
      <trkpt lat="46.83726" lon="4.27545">
        <ele>546.17</ele>
        <time>2021-08-12T18:57:09Z</time>
      </trkpt>
      <trkpt lat="46.83726" lon="4.27546">
        <ele>546.17</ele>
        <time>2021-08-12T18:57:10Z</time>
      </trkpt>
      <trkpt lat="46.83725" lon="4.27548">
        <ele>546.65</ele>
        <time>2021-08-12T18:57:11Z</time>
      </trkpt>
      <trkpt lat="46.83725" lon="4.2755">
        <ele>546.65</ele>
        <time>2021-08-12T18:57:12Z</time>
      </trkpt>
      <trkpt lat="46.83721" lon="4.27562">
        <ele>547.61</ele>
        <time>2021-08-12T18:57:20Z</time>
      </trkpt>
      <trkpt lat="46.8372" lon="4.27564">
        <ele>548.09</ele>
        <time>2021-08-12T18:57:21Z</time>
      </trkpt>
      <trkpt lat="46.8372" lon="4.27566">
        <ele>548.09</ele>
        <time>2021-08-12T18:57:22Z</time>
      </trkpt>
      <trkpt lat="46.83719" lon="4.27567">
        <ele>548.09</ele>
        <time>2021-08-12T18:57:23Z</time>
      </trkpt>
      <trkpt lat="46.83717" lon="4.27575">
        <ele>549.05</ele>
        <time>2021-08-12T18:57:28Z</time>
      </trkpt>
      <trkpt lat="46.83715" lon="4.27578">
        <ele>549.53</ele>
        <time>2021-08-12T18:57:30Z</time>
      </trkpt>
      <trkpt lat="46.83714" lon="4.2758">
        <ele>549.53</ele>
        <time>2021-08-12T18:57:31Z</time>
      </trkpt>
      <trkpt lat="46.83714" lon="4.27582">
        <ele>549.53</ele>
        <time>2021-08-12T18:57:32Z</time>
      </trkpt>
      <trkpt lat="46.83713" lon="4.27583">
        <ele>550.01</ele>
        <time>2021-08-12T18:57:33Z</time>
      </trkpt>
      <trkpt lat="46.83713" lon="4.27585">
        <ele>550.01</ele>
        <time>2021-08-12T18:57:34Z</time>
      </trkpt>
      <trkpt lat="46.83712" lon="4.27587">
        <ele>550.01</ele>
        <time>2021-08-12T18:57:35Z</time>
      </trkpt>
      <trkpt lat="46.83712" lon="4.27589">
        <ele>550.01</ele>
        <time>2021-08-12T18:57:36Z</time>
      </trkpt>
      <trkpt lat="46.83712" lon="4.27591">
        <ele>550.01</ele>
        <time>2021-08-12T18:57:37Z</time>
      </trkpt>
      <trkpt lat="46.83711" lon="4.27593">
        <ele>550.01</ele>
        <time>2021-08-12T18:57:38Z</time>
      </trkpt>
      <trkpt lat="46.83711" lon="4.27595">
        <ele>550.01</ele>
        <time>2021-08-12T18:57:39Z</time>
      </trkpt>
      <trkpt lat="46.83707" lon="4.27605">
        <ele>550.49</ele>
        <time>2021-08-12T18:57:45Z</time>
      </trkpt>
      <trkpt lat="46.83706" lon="4.27608">
        <ele>550.97</ele>
        <time>2021-08-12T18:57:46Z</time>
      </trkpt>
      <trkpt lat="46.83706" lon="4.27609">
        <ele>550.97</ele>
        <time>2021-08-12T18:57:47Z</time>
      </trkpt>
      <trkpt lat="46.83705" lon="4.27612">
        <ele>550.97</ele>
        <time>2021-08-12T18:57:48Z</time>
      </trkpt>
      <trkpt lat="46.83705" lon="4.27614">
        <ele>551.93</ele>
        <time>2021-08-12T18:57:49Z</time>
      </trkpt>
      <trkpt lat="46.83705" lon="4.27616">
        <ele>551.93</ele>
        <time>2021-08-12T18:57:50Z</time>
      </trkpt>
      <trkpt lat="46.83704" lon="4.27618">
        <ele>551.93</ele>
        <time>2021-08-12T18:57:51Z</time>
      </trkpt>
      <trkpt lat="46.83704" lon="4.2762">
        <ele>551.93</ele>
        <time>2021-08-12T18:57:52Z</time>
      </trkpt>
      <trkpt lat="46.83704" lon="4.27621">
        <ele>552.41</ele>
        <time>2021-08-12T18:57:53Z</time>
      </trkpt>
      <trkpt lat="46.83704" lon="4.27623">
        <ele>552.41</ele>
        <time>2021-08-12T18:57:54Z</time>
      </trkpt>
      <trkpt lat="46.83704" lon="4.27625">
        <ele>552.9</ele>
        <time>2021-08-12T18:57:55Z</time>
      </trkpt>
      <trkpt lat="46.83703" lon="4.27626">
        <ele>552.9</ele>
        <time>2021-08-12T18:57:56Z</time>
      </trkpt>
      <trkpt lat="46.83699" lon="4.2764">
        <ele>554.34</ele>
        <time>2021-08-12T18:58:05Z</time>
      </trkpt>
      <trkpt lat="46.83698" lon="4.2765">
        <ele>554.82</ele>
        <time>2021-08-12T18:58:11Z</time>
      </trkpt>
      <trkpt lat="46.83697" lon="4.27654">
        <ele>555.3</ele>
        <time>2021-08-12T18:58:13Z</time>
      </trkpt>
      <trkpt lat="46.83697" lon="4.27656">
        <ele>555.3</ele>
        <time>2021-08-12T18:58:14Z</time>
      </trkpt>
      <trkpt lat="46.83694" lon="4.27676">
        <ele>555.3</ele>
        <time>2021-08-12T18:58:23Z</time>
      </trkpt>
      <trkpt lat="46.83692" lon="4.27694">
        <ele>556.26</ele>
        <time>2021-08-12T18:58:31Z</time>
      </trkpt>
      <trkpt lat="46.83689" lon="4.27715">
        <ele>557.22</ele>
        <time>2021-08-12T18:58:40Z</time>
      </trkpt>
      <trkpt lat="46.83688" lon="4.27727">
        <ele>557.7</ele>
        <time>2021-08-12T18:58:45Z</time>
      </trkpt>
      <trkpt lat="46.83685" lon="4.27741">
        <ele>558.18</ele>
        <time>2021-08-12T18:58:51Z</time>
      </trkpt>
      <trkpt lat="46.83684" lon="4.27742">
        <ele>558.18</ele>
        <time>2021-08-12T18:58:52Z</time>
      </trkpt>
      <trkpt lat="46.83684" lon="4.27744">
        <ele>558.18</ele>
        <time>2021-08-12T18:58:53Z</time>
      </trkpt>
      <trkpt lat="46.83683" lon="4.27746">
        <ele>558.18</ele>
        <time>2021-08-12T18:58:54Z</time>
      </trkpt>
      <trkpt lat="46.83682" lon="4.27748">
        <ele>558.18</ele>
        <time>2021-08-12T18:58:55Z</time>
      </trkpt>
      <trkpt lat="46.83681" lon="4.27751">
        <ele>558.18</ele>
        <time>2021-08-12T18:58:56Z</time>
      </trkpt>
      <trkpt lat="46.8368" lon="4.27754">
        <ele>558.18</ele>
        <time>2021-08-12T18:58:57Z</time>
      </trkpt>
      <trkpt lat="46.83677" lon="4.27774">
        <ele>558.18</ele>
        <time>2021-08-12T18:59:04Z</time>
      </trkpt>
      <trkpt lat="46.83675" lon="4.27788">
        <ele>558.18</ele>
        <time>2021-08-12T18:59:11Z</time>
      </trkpt>
      <trkpt lat="46.83672" lon="4.27807">
        <ele>558.66</ele>
        <time>2021-08-12T18:59:18Z</time>
      </trkpt>
      <trkpt lat="46.83667" lon="4.27831">
        <ele>558.66</ele>
        <time>2021-08-12T18:59:26Z</time>
      </trkpt>
      <trkpt lat="46.83667" lon="4.27835">
        <ele>558.66</ele>
        <time>2021-08-12T18:59:27Z</time>
      </trkpt>
      <trkpt lat="46.83665" lon="4.2784">
        <ele>558.66</ele>
        <time>2021-08-12T18:59:29Z</time>
      </trkpt>
      <trkpt lat="46.83664" lon="4.27844">
        <ele>558.66</ele>
        <time>2021-08-12T18:59:30Z</time>
      </trkpt>
      <trkpt lat="46.83658" lon="4.27869">
        <ele>559.14</ele>
        <time>2021-08-12T18:59:39Z</time>
      </trkpt>
      <trkpt lat="46.83656" lon="4.27883">
        <ele>559.14</ele>
        <time>2021-08-12T18:59:44Z</time>
      </trkpt>
      <trkpt lat="46.83657" lon="4.27885">
        <ele>559.14</ele>
        <time>2021-08-12T18:59:45Z</time>
      </trkpt>
      <trkpt lat="46.83657" lon="4.27888">
        <ele>559.14</ele>
        <time>2021-08-12T18:59:46Z</time>
      </trkpt>
      <trkpt lat="46.83656" lon="4.27891">
        <ele>559.14</ele>
        <time>2021-08-12T18:59:47Z</time>
      </trkpt>
      <trkpt lat="46.83656" lon="4.27894">
        <ele>559.14</ele>
        <time>2021-08-12T18:59:48Z</time>
      </trkpt>
      <trkpt lat="46.83653" lon="4.27912">
        <ele>560.11</ele>
        <time>2021-08-12T18:59:55Z</time>
      </trkpt>
      <trkpt lat="46.83648" lon="4.27935">
        <ele>561.55</ele>
        <time>2021-08-12T19:00:03Z</time>
      </trkpt>
      <trkpt lat="46.83646" lon="4.27958">
        <ele>562.51</ele>
        <time>2021-08-12T19:00:11Z</time>
      </trkpt>
      <trkpt lat="46.83645" lon="4.2798">
        <ele>562.51</ele>
        <time>2021-08-12T19:00:19Z</time>
      </trkpt>
      <trkpt lat="46.83643" lon="4.28007">
        <ele>562.99</ele>
        <time>2021-08-12T19:00:29Z</time>
      </trkpt>
      <trkpt lat="46.83642" lon="4.28018">
        <ele>563.47</ele>
        <time>2021-08-12T19:00:34Z</time>
      </trkpt>
      <trkpt lat="46.83641" lon="4.28021">
        <ele>563.47</ele>
        <time>2021-08-12T19:00:35Z</time>
      </trkpt>
      <trkpt lat="46.83643" lon="4.28048">
        <ele>563.95</ele>
        <time>2021-08-12T19:00:44Z</time>
      </trkpt>
      <trkpt lat="46.83645" lon="4.28065">
        <ele>563.95</ele>
        <time>2021-08-12T19:00:50Z</time>
      </trkpt>
      <trkpt lat="46.83644" lon="4.28069">
        <ele>563.95</ele>
        <time>2021-08-12T19:00:51Z</time>
      </trkpt>
      <trkpt lat="46.83644" lon="4.28073">
        <ele>563.95</ele>
        <time>2021-08-12T19:00:52Z</time>
      </trkpt>
      <trkpt lat="46.83644" lon="4.28077">
        <ele>563.95</ele>
        <time>2021-08-12T19:00:53Z</time>
      </trkpt>
      <trkpt lat="46.83644" lon="4.2808">
        <ele>563.95</ele>
        <time>2021-08-12T19:00:54Z</time>
      </trkpt>
      <trkpt lat="46.83642" lon="4.28108">
        <ele>563.95</ele>
        <time>2021-08-12T19:01:01Z</time>
      </trkpt>
      <trkpt lat="46.83644" lon="4.28134">
        <ele>563.95</ele>
        <time>2021-08-12T19:01:11Z</time>
      </trkpt>
      <trkpt lat="46.83646" lon="4.28151">
        <ele>564.43</ele>
        <time>2021-08-12T19:01:18Z</time>
      </trkpt>
      <trkpt lat="46.83649" lon="4.28175">
        <ele>565.39</ele>
        <time>2021-08-12T19:01:27Z</time>
      </trkpt>
      <trkpt lat="46.83654" lon="4.28198">
        <ele>566.35</ele>
        <time>2021-08-12T19:01:36Z</time>
      </trkpt>
      <trkpt lat="46.83659" lon="4.28219">
        <ele>567.32</ele>
        <time>2021-08-12T19:01:45Z</time>
      </trkpt>
      <trkpt lat="46.83663" lon="4.28234">
        <ele>568.28</ele>
        <time>2021-08-12T19:01:53Z</time>
      </trkpt>
      <trkpt lat="46.83663" lon="4.28236">
        <ele>568.28</ele>
        <time>2021-08-12T19:01:54Z</time>
      </trkpt>
      <trkpt lat="46.83663" lon="4.28238">
        <ele>568.28</ele>
        <time>2021-08-12T19:01:55Z</time>
      </trkpt>
      <trkpt lat="46.83663" lon="4.2824">
        <ele>568.28</ele>
        <time>2021-08-12T19:01:56Z</time>
      </trkpt>
      <trkpt lat="46.83663" lon="4.28242">
        <ele>568.28</ele>
        <time>2021-08-12T19:01:57Z</time>
      </trkpt>
      <trkpt lat="46.83663" lon="4.28244">
        <ele>568.28</ele>
        <time>2021-08-12T19:01:58Z</time>
      </trkpt>
      <trkpt lat="46.83665" lon="4.28261">
        <ele>569.24</ele>
        <time>2021-08-12T19:02:06Z</time>
      </trkpt>
      <trkpt lat="46.83665" lon="4.28263">
        <ele>569.24</ele>
        <time>2021-08-12T19:02:07Z</time>
      </trkpt>
      <trkpt lat="46.83665" lon="4.28265">
        <ele>569.72</ele>
        <time>2021-08-12T19:02:08Z</time>
      </trkpt>
      <trkpt lat="46.83666" lon="4.28284">
        <ele>570.2</ele>
        <time>2021-08-12T19:02:17Z</time>
      </trkpt>
      <trkpt lat="46.83667" lon="4.28299">
        <ele>571.16</ele>
        <time>2021-08-12T19:02:24Z</time>
      </trkpt>
      <trkpt lat="46.83669" lon="4.28319">
        <ele>572.12</ele>
        <time>2021-08-12T19:02:31Z</time>
      </trkpt>
      <trkpt lat="46.8367" lon="4.28337">
        <ele>572.6</ele>
        <time>2021-08-12T19:02:38Z</time>
      </trkpt>
      <trkpt lat="46.8367" lon="4.28344">
        <ele>573.08</ele>
        <time>2021-08-12T19:02:42Z</time>
      </trkpt>
      <trkpt lat="46.8367" lon="4.28346">
        <ele>573.08</ele>
        <time>2021-08-12T19:02:43Z</time>
      </trkpt>
      <trkpt lat="46.83671" lon="4.28361">
        <ele>573.56</ele>
        <time>2021-08-12T19:02:49Z</time>
      </trkpt>
      <trkpt lat="46.83671" lon="4.28387">
        <ele>573.56</ele>
        <time>2021-08-12T19:02:57Z</time>
      </trkpt>
      <trkpt lat="46.83671" lon="4.28413">
        <ele>573.56</ele>
        <time>2021-08-12T19:03:05Z</time>
      </trkpt>
      <trkpt lat="46.83668" lon="4.28425">
        <ele>574.53</ele>
        <time>2021-08-12T19:03:11Z</time>
      </trkpt>
      <trkpt lat="46.83666" lon="4.28426">
        <ele>574.04</ele>
        <time>2021-08-12T19:03:24Z</time>
      </trkpt>
      <trkpt lat="46.83664" lon="4.28428">
        <ele>574.53</ele>
        <time>2021-08-12T19:03:37Z</time>
      </trkpt>
      <trkpt lat="46.83666" lon="4.28429">
        <ele>574.53</ele>
        <time>2021-08-12T19:03:52Z</time>
      </trkpt>
      <trkpt lat="46.83666" lon="4.28425">
        <ele>574.53</ele>
        <time>2021-08-12T19:04:05Z</time>
      </trkpt>
      <trkpt lat="46.83666" lon="4.28425">
        <ele>574.53</ele>
        <time>2021-08-12T19:04:22Z</time>
      </trkpt>
      <trkpt lat="46.83666" lon="4.28427">
        <ele>574.53</ele>
        <time>2021-08-12T19:04:39Z</time>
      </trkpt>
      <trkpt lat="46.83665" lon="4.28428">
        <ele>574.53</ele>
        <time>2021-08-12T19:04:52Z</time>
      </trkpt>
      <trkpt lat="46.83666" lon="4.28428">
        <ele>573.08</ele>
        <time>2021-08-12T19:05:02Z</time>
      </trkpt>
      <trkpt lat="46.83668" lon="4.2843">
        <ele>573.56</ele>
        <time>2021-08-12T19:05:23Z</time>
      </trkpt>
      <trkpt lat="46.83667" lon="4.28429">
        <ele>573.08</ele>
        <time>2021-08-12T19:05:40Z</time>
      </trkpt>
      <trkpt lat="46.83664" lon="4.2843">
        <ele>573.08</ele>
        <time>2021-08-12T19:05:55Z</time>
      </trkpt>
      <trkpt lat="46.83664" lon="4.28429">
        <ele>573.08</ele>
        <time>2021-08-12T19:06:01Z</time>
      </trkpt>
      <trkpt lat="46.83665" lon="4.2843">
        <ele>572.6</ele>
        <time>2021-08-12T19:06:14Z</time>
      </trkpt>
      <trkpt lat="46.83666" lon="4.28428">
        <ele>572.6</ele>
        <time>2021-08-12T19:06:30Z</time>
      </trkpt>
      <trkpt lat="46.83664" lon="4.28428">
        <ele>573.08</ele>
        <time>2021-08-12T19:06:41Z</time>
      </trkpt>
      <trkpt lat="46.83659" lon="4.28428">
        <ele>572.6</ele>
        <time>2021-08-12T19:06:46Z</time>
      </trkpt>
      <trkpt lat="46.83644" lon="4.28425">
        <ele>572.6</ele>
        <time>2021-08-12T19:06:55Z</time>
      </trkpt>
      <trkpt lat="46.83629" lon="4.28413">
        <ele>572.6</ele>
        <time>2021-08-12T19:07:03Z</time>
      </trkpt>
      <trkpt lat="46.83605" lon="4.28392">
        <ele>572.6</ele>
        <time>2021-08-12T19:07:15Z</time>
      </trkpt>
      <trkpt lat="46.83591" lon="4.28378">
        <ele>572.6</ele>
        <time>2021-08-12T19:07:23Z</time>
      </trkpt>
      <trkpt lat="46.83587" lon="4.28375">
        <ele>574.04</ele>
        <time>2021-08-12T19:07:25Z</time>
      </trkpt>
      <trkpt lat="46.83577" lon="4.28367">
        <ele>575.01</ele>
        <time>2021-08-12T19:07:32Z</time>
      </trkpt>
      <trkpt lat="46.83574" lon="4.28366">
        <ele>575.01</ele>
        <time>2021-08-12T19:07:38Z</time>
      </trkpt>
      <trkpt lat="46.83573" lon="4.28365">
        <ele>575.49</ele>
        <time>2021-08-12T19:08:00Z</time>
      </trkpt>
    </trkseg>
  </trk>
  <trk>
    <name><![CDATA[07 FD]]></name>
    <trkseg>
      <trkpt lat="46.83572" lon="4.28364">
        <ele>575.01</ele>
        <time>2021-08-13T03:00:57Z</time>
      </trkpt>
      <trkpt lat="46.83572" lon="4.28363">
        <ele>575.01</ele>
        <time>2021-08-13T03:00:58Z</time>
      </trkpt>
      <trkpt lat="46.83571" lon="4.28362">
        <ele>575.01</ele>
        <time>2021-08-13T03:00:59Z</time>
      </trkpt>
      <trkpt lat="46.83571" lon="4.2836">
        <ele>575.01</ele>
        <time>2021-08-13T03:01:00Z</time>
      </trkpt>
      <trkpt lat="46.8357" lon="4.2836">
        <ele>575.01</ele>
        <time>2021-08-13T03:01:01Z</time>
      </trkpt>
      <trkpt lat="46.83569" lon="4.28359">
        <ele>575.01</ele>
        <time>2021-08-13T03:01:02Z</time>
      </trkpt>
      <trkpt lat="46.83568" lon="4.28358">
        <ele>575.01</ele>
        <time>2021-08-13T03:01:03Z</time>
      </trkpt>
      <trkpt lat="46.83566" lon="4.28355">
        <ele>575.01</ele>
        <time>2021-08-13T03:01:05Z</time>
      </trkpt>
      <trkpt lat="46.83564" lon="4.28355">
        <ele>575.01</ele>
        <time>2021-08-13T03:01:06Z</time>
      </trkpt>
      <trkpt lat="46.83562" lon="4.28354">
        <ele>575.01</ele>
        <time>2021-08-13T03:01:07Z</time>
      </trkpt>
      <trkpt lat="46.8356" lon="4.28354">
        <ele>575.01</ele>
        <time>2021-08-13T03:01:08Z</time>
      </trkpt>
      <trkpt lat="46.83558" lon="4.28353">
        <ele>575.01</ele>
        <time>2021-08-13T03:01:09Z</time>
      </trkpt>
      <trkpt lat="46.83556" lon="4.28351">
        <ele>575.01</ele>
        <time>2021-08-13T03:01:10Z</time>
      </trkpt>
      <trkpt lat="46.83555" lon="4.2835">
        <ele>575.01</ele>
        <time>2021-08-13T03:01:11Z</time>
      </trkpt>
      <trkpt lat="46.83552" lon="4.2835">
        <ele>575.01</ele>
        <time>2021-08-13T03:01:12Z</time>
      </trkpt>
      <trkpt lat="46.8355" lon="4.2835">
        <ele>575.01</ele>
        <time>2021-08-13T03:01:13Z</time>
      </trkpt>
      <trkpt lat="46.83548" lon="4.28349">
        <ele>575.01</ele>
        <time>2021-08-13T03:01:14Z</time>
      </trkpt>
      <trkpt lat="46.83546" lon="4.28349">
        <ele>575.01</ele>
        <time>2021-08-13T03:01:15Z</time>
      </trkpt>
      <trkpt lat="46.83544" lon="4.28348">
        <ele>575.49</ele>
        <time>2021-08-13T03:01:16Z</time>
      </trkpt>
      <trkpt lat="46.83541" lon="4.28348">
        <ele>575.49</ele>
        <time>2021-08-13T03:01:17Z</time>
      </trkpt>
      <trkpt lat="46.83539" lon="4.28347">
        <ele>575.49</ele>
        <time>2021-08-13T03:01:18Z</time>
      </trkpt>
      <trkpt lat="46.83519" lon="4.28342">
        <ele>575.49</ele>
        <time>2021-08-13T03:01:26Z</time>
      </trkpt>
      <trkpt lat="46.83503" lon="4.28337">
        <ele>575.49</ele>
        <time>2021-08-13T03:01:33Z</time>
      </trkpt>
      <trkpt lat="46.83484" lon="4.28329">
        <ele>575.97</ele>
        <time>2021-08-13T03:01:42Z</time>
      </trkpt>
      <trkpt lat="46.83464" lon="4.28321">
        <ele>576.45</ele>
        <time>2021-08-13T03:01:51Z</time>
      </trkpt>
      <trkpt lat="46.8344" lon="4.28312">
        <ele>577.41</ele>
        <time>2021-08-13T03:02:02Z</time>
      </trkpt>
      <trkpt lat="46.83418" lon="4.28303">
        <ele>578.85</ele>
        <time>2021-08-13T03:02:13Z</time>
      </trkpt>
      <trkpt lat="46.83397" lon="4.28293">
        <ele>580.77</ele>
        <time>2021-08-13T03:02:24Z</time>
      </trkpt>
      <trkpt lat="46.83378" lon="4.28279">
        <ele>581.73</ele>
        <time>2021-08-13T03:02:35Z</time>
      </trkpt>
      <trkpt lat="46.83363" lon="4.28266">
        <ele>583.66</ele>
        <time>2021-08-13T03:02:45Z</time>
      </trkpt>
      <trkpt lat="46.83353" lon="4.28255">
        <ele>584.62</ele>
        <time>2021-08-13T03:02:53Z</time>
      </trkpt>
      <trkpt lat="46.83345" lon="4.28246">
        <ele>585.1</ele>
        <time>2021-08-13T03:03:00Z</time>
      </trkpt>
      <trkpt lat="46.83344" lon="4.28244">
        <ele>585.1</ele>
        <time>2021-08-13T03:03:01Z</time>
      </trkpt>
      <trkpt lat="46.83336" lon="4.28234">
        <ele>585.1</ele>
        <time>2021-08-13T03:03:07Z</time>
      </trkpt>
      <trkpt lat="46.83334" lon="4.28232">
        <ele>585.1</ele>
        <time>2021-08-13T03:03:08Z</time>
      </trkpt>
      <trkpt lat="46.83332" lon="4.2823">
        <ele>585.1</ele>
        <time>2021-08-13T03:03:09Z</time>
      </trkpt>
      <trkpt lat="46.8333" lon="4.28228">
        <ele>585.1</ele>
        <time>2021-08-13T03:03:10Z</time>
      </trkpt>
      <trkpt lat="46.83329" lon="4.28226">
        <ele>585.1</ele>
        <time>2021-08-13T03:03:11Z</time>
      </trkpt>
      <trkpt lat="46.83326" lon="4.28224">
        <ele>585.1</ele>
        <time>2021-08-13T03:03:12Z</time>
      </trkpt>
      <trkpt lat="46.83324" lon="4.28222">
        <ele>585.1</ele>
        <time>2021-08-13T03:03:13Z</time>
      </trkpt>
      <trkpt lat="46.83322" lon="4.28221">
        <ele>585.1</ele>
        <time>2021-08-13T03:03:14Z</time>
      </trkpt>
      <trkpt lat="46.8332" lon="4.28218">
        <ele>585.1</ele>
        <time>2021-08-13T03:03:15Z</time>
      </trkpt>
      <trkpt lat="46.83318" lon="4.28216">
        <ele>585.1</ele>
        <time>2021-08-13T03:03:16Z</time>
      </trkpt>
      <trkpt lat="46.83316" lon="4.28215">
        <ele>585.1</ele>
        <time>2021-08-13T03:03:17Z</time>
      </trkpt>
      <trkpt lat="46.83314" lon="4.28213">
        <ele>585.1</ele>
        <time>2021-08-13T03:03:18Z</time>
      </trkpt>
      <trkpt lat="46.83294" lon="4.28201">
        <ele>585.1</ele>
        <time>2021-08-13T03:03:24Z</time>
      </trkpt>
      <trkpt lat="46.83268" lon="4.28183">
        <ele>585.1</ele>
        <time>2021-08-13T03:03:32Z</time>
      </trkpt>
      <trkpt lat="46.83251" lon="4.28168">
        <ele>585.1</ele>
        <time>2021-08-13T03:03:39Z</time>
      </trkpt>
      <trkpt lat="46.83234" lon="4.28149">
        <ele>586.06</ele>
        <time>2021-08-13T03:03:48Z</time>
      </trkpt>
      <trkpt lat="46.83214" lon="4.28129">
        <ele>587.02</ele>
        <time>2021-08-13T03:03:58Z</time>
      </trkpt>
      <trkpt lat="46.83197" lon="4.2811">
        <ele>588.95</ele>
        <time>2021-08-13T03:04:08Z</time>
      </trkpt>
      <trkpt lat="46.83183" lon="4.28097">
        <ele>589.91</ele>
        <time>2021-08-13T03:04:16Z</time>
      </trkpt>
      <trkpt lat="46.83173" lon="4.28082">
        <ele>590.87</ele>
        <time>2021-08-13T03:04:24Z</time>
      </trkpt>
      <trkpt lat="46.83172" lon="4.28081">
        <ele>591.35</ele>
        <time>2021-08-13T03:04:25Z</time>
      </trkpt>
      <trkpt lat="46.83171" lon="4.28079">
        <ele>591.83</ele>
        <time>2021-08-13T03:04:26Z</time>
      </trkpt>
      <trkpt lat="46.83158" lon="4.28066">
        <ele>592.79</ele>
        <time>2021-08-13T03:04:33Z</time>
      </trkpt>
      <trkpt lat="46.83145" lon="4.28053">
        <ele>593.27</ele>
        <time>2021-08-13T03:04:40Z</time>
      </trkpt>
      <trkpt lat="46.8313" lon="4.28039">
        <ele>593.27</ele>
        <time>2021-08-13T03:04:48Z</time>
      </trkpt>
      <trkpt lat="46.83106" lon="4.2803">
        <ele>591.83</ele>
        <time>2021-08-13T03:04:55Z</time>
      </trkpt>
      <trkpt lat="46.83089" lon="4.2803">
        <ele>590.87</ele>
        <time>2021-08-13T03:05:00Z</time>
      </trkpt>
      <trkpt lat="46.83069" lon="4.28039">
        <ele>589.43</ele>
        <time>2021-08-13T03:05:06Z</time>
      </trkpt>
      <trkpt lat="46.83051" lon="4.28052">
        <ele>587.5</ele>
        <time>2021-08-13T03:05:12Z</time>
      </trkpt>
      <trkpt lat="46.83039" lon="4.28062">
        <ele>585.58</ele>
        <time>2021-08-13T03:05:17Z</time>
      </trkpt>
      <trkpt lat="46.83022" lon="4.28073">
        <ele>584.14</ele>
        <time>2021-08-13T03:05:23Z</time>
      </trkpt>
      <trkpt lat="46.83008" lon="4.28088">
        <ele>582.22</ele>
        <time>2021-08-13T03:05:28Z</time>
      </trkpt>
      <trkpt lat="46.82997" lon="4.28102">
        <ele>581.25</ele>
        <time>2021-08-13T03:05:33Z</time>
      </trkpt>
      <trkpt lat="46.82985" lon="4.28122">
        <ele>579.33</ele>
        <time>2021-08-13T03:05:38Z</time>
      </trkpt>
      <trkpt lat="46.82971" lon="4.28141">
        <ele>576.93</ele>
        <time>2021-08-13T03:05:44Z</time>
      </trkpt>
      <trkpt lat="46.82964" lon="4.28154">
        <ele>575.97</ele>
        <time>2021-08-13T03:05:47Z</time>
      </trkpt>
      <trkpt lat="46.82961" lon="4.28159">
        <ele>575.97</ele>
        <time>2021-08-13T03:05:48Z</time>
      </trkpt>
      <trkpt lat="46.82956" lon="4.28164">
        <ele>575.49</ele>
        <time>2021-08-13T03:05:49Z</time>
      </trkpt>
      <trkpt lat="46.82953" lon="4.28168">
        <ele>575.49</ele>
        <time>2021-08-13T03:05:50Z</time>
      </trkpt>
      <trkpt lat="46.8295" lon="4.28172">
        <ele>575.01</ele>
        <time>2021-08-13T03:05:51Z</time>
      </trkpt>
      <trkpt lat="46.82947" lon="4.28176">
        <ele>575.01</ele>
        <time>2021-08-13T03:05:52Z</time>
      </trkpt>
      <trkpt lat="46.82944" lon="4.2818">
        <ele>575.01</ele>
        <time>2021-08-13T03:05:53Z</time>
      </trkpt>
      <trkpt lat="46.82941" lon="4.28185">
        <ele>574.53</ele>
        <time>2021-08-13T03:05:54Z</time>
      </trkpt>
      <trkpt lat="46.82939" lon="4.28189">
        <ele>574.53</ele>
        <time>2021-08-13T03:05:55Z</time>
      </trkpt>
      <trkpt lat="46.82918" lon="4.28224">
        <ele>573.56</ele>
        <time>2021-08-13T03:06:02Z</time>
      </trkpt>
      <trkpt lat="46.82891" lon="4.28256">
        <ele>572.12</ele>
        <time>2021-08-13T03:06:09Z</time>
      </trkpt>
      <trkpt lat="46.82866" lon="4.28273">
        <ele>571.64</ele>
        <time>2021-08-13T03:06:17Z</time>
      </trkpt>
      <trkpt lat="46.82841" lon="4.28275">
        <ele>571.64</ele>
        <time>2021-08-13T03:06:24Z</time>
      </trkpt>
      <trkpt lat="46.82812" lon="4.28283">
        <ele>571.64</ele>
        <time>2021-08-13T03:06:33Z</time>
      </trkpt>
      <trkpt lat="46.82795" lon="4.28287">
        <ele>573.08</ele>
        <time>2021-08-13T03:06:39Z</time>
      </trkpt>
      <trkpt lat="46.82773" lon="4.28289">
        <ele>575.01</ele>
        <time>2021-08-13T03:06:47Z</time>
      </trkpt>
      <trkpt lat="46.82747" lon="4.28287">
        <ele>575.49</ele>
        <time>2021-08-13T03:06:56Z</time>
      </trkpt>
      <trkpt lat="46.82718" lon="4.28287">
        <ele>574.04</ele>
        <time>2021-08-13T03:07:04Z</time>
      </trkpt>
      <trkpt lat="46.82715" lon="4.28287">
        <ele>574.04</ele>
        <time>2021-08-13T03:07:05Z</time>
      </trkpt>
      <trkpt lat="46.82684" lon="4.28282">
        <ele>573.56</ele>
        <time>2021-08-13T03:07:14Z</time>
      </trkpt>
      <trkpt lat="46.82663" lon="4.2828">
        <ele>573.56</ele>
        <time>2021-08-13T03:07:21Z</time>
      </trkpt>
      <trkpt lat="46.82649" lon="4.28277">
        <ele>573.56</ele>
        <time>2021-08-13T03:07:27Z</time>
      </trkpt>
      <trkpt lat="46.82633" lon="4.28269">
        <ele>573.56</ele>
        <time>2021-08-13T03:07:34Z</time>
      </trkpt>
      <trkpt lat="46.82626" lon="4.28265">
        <ele>575.01</ele>
        <time>2021-08-13T03:07:37Z</time>
      </trkpt>
      <trkpt lat="46.82613" lon="4.28256">
        <ele>575.97</ele>
        <time>2021-08-13T03:07:43Z</time>
      </trkpt>
      <trkpt lat="46.82591" lon="4.28239">
        <ele>576.93</ele>
        <time>2021-08-13T03:07:52Z</time>
      </trkpt>
      <trkpt lat="46.82569" lon="4.28221">
        <ele>578.37</ele>
        <time>2021-08-13T03:08:02Z</time>
      </trkpt>
      <trkpt lat="46.82551" lon="4.28202">
        <ele>579.33</ele>
        <time>2021-08-13T03:08:11Z</time>
      </trkpt>
      <trkpt lat="46.82538" lon="4.28186">
        <ele>580.29</ele>
        <time>2021-08-13T03:08:18Z</time>
      </trkpt>
      <trkpt lat="46.82528" lon="4.28176">
        <ele>581.73</ele>
        <time>2021-08-13T03:08:24Z</time>
      </trkpt>
      <trkpt lat="46.82513" lon="4.28166">
        <ele>582.7</ele>
        <time>2021-08-13T03:08:32Z</time>
      </trkpt>
      <trkpt lat="46.825" lon="4.28158">
        <ele>583.66</ele>
        <time>2021-08-13T03:08:40Z</time>
      </trkpt>
      <trkpt lat="46.82491" lon="4.28153">
        <ele>585.1</ele>
        <time>2021-08-13T03:08:47Z</time>
      </trkpt>
      <trkpt lat="46.82487" lon="4.2815">
        <ele>585.58</ele>
        <time>2021-08-13T03:08:50Z</time>
      </trkpt>
      <trkpt lat="46.82476" lon="4.28145">
        <ele>586.54</ele>
        <time>2021-08-13T03:08:57Z</time>
      </trkpt>
      <trkpt lat="46.82468" lon="4.28144">
        <ele>587.5</ele>
        <time>2021-08-13T03:09:02Z</time>
      </trkpt>
      <trkpt lat="46.82466" lon="4.28143">
        <ele>587.98</ele>
        <time>2021-08-13T03:09:03Z</time>
      </trkpt>
      <trkpt lat="46.82458" lon="4.28143">
        <ele>588.95</ele>
        <time>2021-08-13T03:09:11Z</time>
      </trkpt>
      <trkpt lat="46.82452" lon="4.28145">
        <ele>589.91</ele>
        <time>2021-08-13T03:09:18Z</time>
      </trkpt>
      <trkpt lat="46.82447" lon="4.28145">
        <ele>590.87</ele>
        <time>2021-08-13T03:09:23Z</time>
      </trkpt>
      <trkpt lat="46.82438" lon="4.28145">
        <ele>591.83</ele>
        <time>2021-08-13T03:09:30Z</time>
      </trkpt>
      <trkpt lat="46.82437" lon="4.28145">
        <ele>591.83</ele>
        <time>2021-08-13T03:09:31Z</time>
      </trkpt>
      <trkpt lat="46.82435" lon="4.28144">
        <ele>591.83</ele>
        <time>2021-08-13T03:09:32Z</time>
      </trkpt>
      <trkpt lat="46.82424" lon="4.28142">
        <ele>593.75</ele>
        <time>2021-08-13T03:09:41Z</time>
      </trkpt>
      <trkpt lat="46.82413" lon="4.28139">
        <ele>594.23</ele>
        <time>2021-08-13T03:09:50Z</time>
      </trkpt>
      <trkpt lat="46.82396" lon="4.28135">
        <ele>594.71</ele>
        <time>2021-08-13T03:09:59Z</time>
      </trkpt>
      <trkpt lat="46.82374" lon="4.28133">
        <ele>593.75</ele>
        <time>2021-08-13T03:10:07Z</time>
      </trkpt>
      <trkpt lat="46.82354" lon="4.28132">
        <ele>592.79</ele>
        <time>2021-08-13T03:10:13Z</time>
      </trkpt>
      <trkpt lat="46.82348" lon="4.28132">
        <ele>592.79</ele>
        <time>2021-08-13T03:10:15Z</time>
      </trkpt>
      <trkpt lat="46.82347" lon="4.28133">
        <ele>592.31</ele>
        <time>2021-08-13T03:10:16Z</time>
      </trkpt>
      <trkpt lat="46.82345" lon="4.28133">
        <ele>592.31</ele>
        <time>2021-08-13T03:10:17Z</time>
      </trkpt>
      <trkpt lat="46.82326" lon="4.28134">
        <ele>591.83</ele>
        <time>2021-08-13T03:10:24Z</time>
      </trkpt>
      <trkpt lat="46.82315" lon="4.28133">
        <ele>591.83</ele>
        <time>2021-08-13T03:10:30Z</time>
      </trkpt>
      <trkpt lat="46.82304" lon="4.28132">
        <ele>592.31</ele>
        <time>2021-08-13T03:10:36Z</time>
      </trkpt>
      <trkpt lat="46.8229" lon="4.28132">
        <ele>592.31</ele>
        <time>2021-08-13T03:10:42Z</time>
      </trkpt>
      <trkpt lat="46.82275" lon="4.28127">
        <ele>592.31</ele>
        <time>2021-08-13T03:10:48Z</time>
      </trkpt>
      <trkpt lat="46.82263" lon="4.28123">
        <ele>593.75</ele>
        <time>2021-08-13T03:10:54Z</time>
      </trkpt>
      <trkpt lat="46.8225" lon="4.28121">
        <ele>594.23</ele>
        <time>2021-08-13T03:11:00Z</time>
      </trkpt>
      <trkpt lat="46.82237" lon="4.28119">
        <ele>595.19</ele>
        <time>2021-08-13T03:11:06Z</time>
      </trkpt>
      <trkpt lat="46.82219" lon="4.28119">
        <ele>595.67</ele>
        <time>2021-08-13T03:11:13Z</time>
      </trkpt>
      <trkpt lat="46.82202" lon="4.28118">
        <ele>597.12</ele>
        <time>2021-08-13T03:11:21Z</time>
      </trkpt>
      <trkpt lat="46.82189" lon="4.28116">
        <ele>597.6</ele>
        <time>2021-08-13T03:11:27Z</time>
      </trkpt>
      <trkpt lat="46.82175" lon="4.28113">
        <ele>598.56</ele>
        <time>2021-08-13T03:11:34Z</time>
      </trkpt>
      <trkpt lat="46.82172" lon="4.28113">
        <ele>598.56</ele>
        <time>2021-08-13T03:11:35Z</time>
      </trkpt>
      <trkpt lat="46.82154" lon="4.28116">
        <ele>599.04</ele>
        <time>2021-08-13T03:11:43Z</time>
      </trkpt>
      <trkpt lat="46.82143" lon="4.28121">
        <ele>599.52</ele>
        <time>2021-08-13T03:11:48Z</time>
      </trkpt>
      <trkpt lat="46.82131" lon="4.28131">
        <ele>600.48</ele>
        <time>2021-08-13T03:11:55Z</time>
      </trkpt>
      <trkpt lat="46.82126" lon="4.28136">
        <ele>601.44</ele>
        <time>2021-08-13T03:11:58Z</time>
      </trkpt>
      <trkpt lat="46.82125" lon="4.28137">
        <ele>601.92</ele>
        <time>2021-08-13T03:11:59Z</time>
      </trkpt>
      <trkpt lat="46.82123" lon="4.28139">
        <ele>601.92</ele>
        <time>2021-08-13T03:12:00Z</time>
      </trkpt>
      <trkpt lat="46.82119" lon="4.28142">
        <ele>602.4</ele>
        <time>2021-08-13T03:12:04Z</time>
      </trkpt>
      <trkpt lat="46.82116" lon="4.28144">
        <ele>602.4</ele>
        <time>2021-08-13T03:12:05Z</time>
      </trkpt>
      <trkpt lat="46.82114" lon="4.28146">
        <ele>602.4</ele>
        <time>2021-08-13T03:12:06Z</time>
      </trkpt>
      <trkpt lat="46.82112" lon="4.28147">
        <ele>602.88</ele>
        <time>2021-08-13T03:12:07Z</time>
      </trkpt>
      <trkpt lat="46.82099" lon="4.28154">
        <ele>603.36</ele>
        <time>2021-08-13T03:12:13Z</time>
      </trkpt>
      <trkpt lat="46.82085" lon="4.28165">
        <ele>603.85</ele>
        <time>2021-08-13T03:12:20Z</time>
      </trkpt>
      <trkpt lat="46.8207" lon="4.28179">
        <ele>603.85</ele>
        <time>2021-08-13T03:12:27Z</time>
      </trkpt>
      <trkpt lat="46.82057" lon="4.28201">
        <ele>605.29</ele>
        <time>2021-08-13T03:12:35Z</time>
      </trkpt>
      <trkpt lat="46.82045" lon="4.28213">
        <ele>606.25</ele>
        <time>2021-08-13T03:12:42Z</time>
      </trkpt>
      <trkpt lat="46.82043" lon="4.28215">
        <ele>606.73</ele>
        <time>2021-08-13T03:12:44Z</time>
      </trkpt>
      <trkpt lat="46.82041" lon="4.28216">
        <ele>607.21</ele>
        <time>2021-08-13T03:12:45Z</time>
      </trkpt>
      <trkpt lat="46.8204" lon="4.28216">
        <ele>607.21</ele>
        <time>2021-08-13T03:12:46Z</time>
      </trkpt>
      <trkpt lat="46.82039" lon="4.28216">
        <ele>607.21</ele>
        <time>2021-08-13T03:12:47Z</time>
      </trkpt>
      <trkpt lat="46.8203" lon="4.28218">
        <ele>608.65</ele>
        <time>2021-08-13T03:12:54Z</time>
      </trkpt>
      <trkpt lat="46.8202" lon="4.28217">
        <ele>610.09</ele>
        <time>2021-08-13T03:13:03Z</time>
      </trkpt>
      <trkpt lat="46.82012" lon="4.28216">
        <ele>611.06</ele>
        <time>2021-08-13T03:13:10Z</time>
      </trkpt>
      <trkpt lat="46.82002" lon="4.28217">
        <ele>612.5</ele>
        <time>2021-08-13T03:13:19Z</time>
      </trkpt>
      <trkpt lat="46.80801" lon="4.28393">
        <ele>619.23</ele>
        <time>2021-08-13T03:24:07Z</time>
      </trkpt>
      <trkpt lat="46.80784" lon="4.28402">
        <ele>619.71</ele>
        <time>2021-08-13T03:25:26Z</time>
      </trkpt>
      <trkpt lat="46.8081" lon="4.28387">
        <ele>620.67</ele>
        <time>2021-08-13T03:27:44Z</time>
      </trkpt>
      <trkpt lat="46.8081" lon="4.28387">
        <ele>620.67</ele>
        <time>2021-08-13T03:27:45Z</time>
      </trkpt>
      <trkpt lat="46.80809" lon="4.28385">
        <ele>620.67</ele>
        <time>2021-08-13T03:27:58Z</time>
      </trkpt>
      <trkpt lat="46.8081" lon="4.28384">
        <ele>620.67</ele>
        <time>2021-08-13T03:28:06Z</time>
      </trkpt>
      <trkpt lat="46.80811" lon="4.28383">
        <ele>620.67</ele>
        <time>2021-08-13T03:28:16Z</time>
      </trkpt>
      <trkpt lat="46.80814" lon="4.28389">
        <ele>620.67</ele>
        <time>2021-08-13T03:28:19Z</time>
      </trkpt>
      <trkpt lat="46.80816" lon="4.28391">
        <ele>620.67</ele>
        <time>2021-08-13T03:28:20Z</time>
      </trkpt>
      <trkpt lat="46.80818" lon="4.28392">
        <ele>620.67</ele>
        <time>2021-08-13T03:28:21Z</time>
      </trkpt>
      <trkpt lat="46.8082" lon="4.28394">
        <ele>620.67</ele>
        <time>2021-08-13T03:28:22Z</time>
      </trkpt>
      <trkpt lat="46.80822" lon="4.28397">
        <ele>619.23</ele>
        <time>2021-08-13T03:28:23Z</time>
      </trkpt>
      <trkpt lat="46.80833" lon="4.28409">
        <ele>618.26</ele>
        <time>2021-08-13T03:28:28Z</time>
      </trkpt>
      <trkpt lat="46.80833" lon="4.28411">
        <ele>617.78</ele>
        <time>2021-08-13T03:28:36Z</time>
      </trkpt>
      <trkpt lat="46.80835" lon="4.28416">
        <ele>617.78</ele>
        <time>2021-08-13T03:28:50Z</time>
      </trkpt>
      <trkpt lat="46.80837" lon="4.28418">
        <ele>617.78</ele>
        <time>2021-08-13T03:28:51Z</time>
      </trkpt>
      <trkpt lat="46.80839" lon="4.28422">
        <ele>617.3</ele>
        <time>2021-08-13T03:28:52Z</time>
      </trkpt>
      <trkpt lat="46.80847" lon="4.2843">
        <ele>616.82</ele>
        <time>2021-08-13T03:28:54Z</time>
      </trkpt>
      <trkpt lat="46.80865" lon="4.2845">
        <ele>614.42</ele>
        <time>2021-08-13T03:28:58Z</time>
      </trkpt>
      <trkpt lat="46.80884" lon="4.28473">
        <ele>612.02</ele>
        <time>2021-08-13T03:29:02Z</time>
      </trkpt>
      <trkpt lat="46.80888" lon="4.28479">
        <ele>611.54</ele>
        <time>2021-08-13T03:29:03Z</time>
      </trkpt>
      <trkpt lat="46.80916" lon="4.28515">
        <ele>611.06</ele>
        <time>2021-08-13T03:29:09Z</time>
      </trkpt>
      <trkpt lat="46.80933" lon="4.28538">
        <ele>610.09</ele>
        <time>2021-08-13T03:29:13Z</time>
      </trkpt>
      <trkpt lat="46.8095" lon="4.28566">
        <ele>610.09</ele>
        <time>2021-08-13T03:29:19Z</time>
      </trkpt>
      <trkpt lat="46.80956" lon="4.28574">
        <ele>611.54</ele>
        <time>2021-08-13T03:29:22Z</time>
      </trkpt>
      <trkpt lat="46.80972" lon="4.28591">
        <ele>612.5</ele>
        <time>2021-08-13T03:29:28Z</time>
      </trkpt>
      <trkpt lat="46.80994" lon="4.28606">
        <ele>613.46</ele>
        <time>2021-08-13T03:29:35Z</time>
      </trkpt>
      <trkpt lat="46.81014" lon="4.28609">
        <ele>614.42</ele>
        <time>2021-08-13T03:29:41Z</time>
      </trkpt>
      <trkpt lat="46.8103" lon="4.28608">
        <ele>614.9</ele>
        <time>2021-08-13T03:29:47Z</time>
      </trkpt>
      <trkpt lat="46.81044" lon="4.28606">
        <ele>616.82</ele>
        <time>2021-08-13T03:29:54Z</time>
      </trkpt>
      <trkpt lat="46.81059" lon="4.286">
        <ele>617.78</ele>
        <time>2021-08-13T03:30:02Z</time>
      </trkpt>
      <trkpt lat="46.81075" lon="4.28598">
        <ele>618.26</ele>
        <time>2021-08-13T03:30:08Z</time>
      </trkpt>
      <trkpt lat="46.81098" lon="4.28599">
        <ele>618.75</ele>
        <time>2021-08-13T03:30:16Z</time>
      </trkpt>
      <trkpt lat="46.81102" lon="4.28601">
        <ele>618.75</ele>
        <time>2021-08-13T03:30:17Z</time>
      </trkpt>
      <trkpt lat="46.81106" lon="4.28601">
        <ele>618.75</ele>
        <time>2021-08-13T03:30:18Z</time>
      </trkpt>
      <trkpt lat="46.8111" lon="4.28601">
        <ele>619.71</ele>
        <time>2021-08-13T03:30:19Z</time>
      </trkpt>
      <trkpt lat="46.81115" lon="4.286">
        <ele>619.71</ele>
        <time>2021-08-13T03:30:20Z</time>
      </trkpt>
      <trkpt lat="46.81118" lon="4.286">
        <ele>619.71</ele>
        <time>2021-08-13T03:30:21Z</time>
      </trkpt>
      <trkpt lat="46.81134" lon="4.28603">
        <ele>619.71</ele>
        <time>2021-08-13T03:30:26Z</time>
      </trkpt>
      <trkpt lat="46.81155" lon="4.28612">
        <ele>621.15</ele>
        <time>2021-08-13T03:30:33Z</time>
      </trkpt>
      <trkpt lat="46.81165" lon="4.28623">
        <ele>622.11</ele>
        <time>2021-08-13T03:30:38Z</time>
      </trkpt>
      <trkpt lat="46.81182" lon="4.28631">
        <ele>622.11</ele>
        <time>2021-08-13T03:30:44Z</time>
      </trkpt>
      <trkpt lat="46.81196" lon="4.28635">
        <ele>622.59</ele>
        <time>2021-08-13T03:30:49Z</time>
      </trkpt>
      <trkpt lat="46.81212" lon="4.28643">
        <ele>624.03</ele>
        <time>2021-08-13T03:30:54Z</time>
      </trkpt>
      <trkpt lat="46.81232" lon="4.28651">
        <ele>624.03</ele>
        <time>2021-08-13T03:31:01Z</time>
      </trkpt>
      <trkpt lat="46.81255" lon="4.28642">
        <ele>624.51</ele>
        <time>2021-08-13T03:31:07Z</time>
      </trkpt>
      <trkpt lat="46.8128" lon="4.28632">
        <ele>624.51</ele>
        <time>2021-08-13T03:31:14Z</time>
      </trkpt>
      <trkpt lat="46.81302" lon="4.28627">
        <ele>624.51</ele>
        <time>2021-08-13T03:31:20Z</time>
      </trkpt>
      <trkpt lat="46.81308" lon="4.28625">
        <ele>623.07</ele>
        <time>2021-08-13T03:31:21Z</time>
      </trkpt>
      <trkpt lat="46.81338" lon="4.2862">
        <ele>622.59</ele>
        <time>2021-08-13T03:31:27Z</time>
      </trkpt>
      <trkpt lat="46.81371" lon="4.2861">
        <ele>621.63</ele>
        <time>2021-08-13T03:31:34Z</time>
      </trkpt>
      <trkpt lat="46.81397" lon="4.28604">
        <ele>620.19</ele>
        <time>2021-08-13T03:31:40Z</time>
      </trkpt>
      <trkpt lat="46.81401" lon="4.28602">
        <ele>620.19</ele>
        <time>2021-08-13T03:31:41Z</time>
      </trkpt>
      <trkpt lat="46.81409" lon="4.28597">
        <ele>620.19</ele>
        <time>2021-08-13T03:31:43Z</time>
      </trkpt>
      <trkpt lat="46.81412" lon="4.28594">
        <ele>620.19</ele>
        <time>2021-08-13T03:31:44Z</time>
      </trkpt>
      <trkpt lat="46.81419" lon="4.28587">
        <ele>620.19</ele>
        <time>2021-08-13T03:31:46Z</time>
      </trkpt>
      <trkpt lat="46.81427" lon="4.28568">
        <ele>620.19</ele>
        <time>2021-08-13T03:31:51Z</time>
      </trkpt>
      <trkpt lat="46.81435" lon="4.2855">
        <ele>619.71</ele>
        <time>2021-08-13T03:31:56Z</time>
      </trkpt>
      <trkpt lat="46.81444" lon="4.28538">
        <ele>619.71</ele>
        <time>2021-08-13T03:31:59Z</time>
      </trkpt>
      <trkpt lat="46.81447" lon="4.28533">
        <ele>619.71</ele>
        <time>2021-08-13T03:32:00Z</time>
      </trkpt>
      <trkpt lat="46.81449" lon="4.28529">
        <ele>620.19</ele>
        <time>2021-08-13T03:32:01Z</time>
      </trkpt>
      <trkpt lat="46.81452" lon="4.28523">
        <ele>620.19</ele>
        <time>2021-08-13T03:32:02Z</time>
      </trkpt>
      <trkpt lat="46.81453" lon="4.28518">
        <ele>620.19</ele>
        <time>2021-08-13T03:32:03Z</time>
      </trkpt>
      <trkpt lat="46.81455" lon="4.28513">
        <ele>620.19</ele>
        <time>2021-08-13T03:32:04Z</time>
      </trkpt>
      <trkpt lat="46.81458" lon="4.28508">
        <ele>620.19</ele>
        <time>2021-08-13T03:32:05Z</time>
      </trkpt>
      <trkpt lat="46.8146" lon="4.28503">
        <ele>620.19</ele>
        <time>2021-08-13T03:32:06Z</time>
      </trkpt>
      <trkpt lat="46.81462" lon="4.28499">
        <ele>620.19</ele>
        <time>2021-08-13T03:32:07Z</time>
      </trkpt>
      <trkpt lat="46.8147" lon="4.28484">
        <ele>620.19</ele>
        <time>2021-08-13T03:32:10Z</time>
      </trkpt>
      <trkpt lat="46.8148" lon="4.28464">
        <ele>620.19</ele>
        <time>2021-08-13T03:32:14Z</time>
      </trkpt>
      <trkpt lat="46.81482" lon="4.28459">
        <ele>620.19</ele>
        <time>2021-08-13T03:32:15Z</time>
      </trkpt>
      <trkpt lat="46.81489" lon="4.28444">
        <ele>620.19</ele>
        <time>2021-08-13T03:32:18Z</time>
      </trkpt>
      <trkpt lat="46.81491" lon="4.28439">
        <ele>620.19</ele>
        <time>2021-08-13T03:32:19Z</time>
      </trkpt>
      <trkpt lat="46.81508" lon="4.28397">
        <ele>620.19</ele>
        <time>2021-08-13T03:32:27Z</time>
      </trkpt>
      <trkpt lat="46.81526" lon="4.28374">
        <ele>620.19</ele>
        <time>2021-08-13T03:32:34Z</time>
      </trkpt>
      <trkpt lat="46.81551" lon="4.28361">
        <ele>619.71</ele>
        <time>2021-08-13T03:32:41Z</time>
      </trkpt>
      <trkpt lat="46.81578" lon="4.28356">
        <ele>619.71</ele>
        <time>2021-08-13T03:32:48Z</time>
      </trkpt>
      <trkpt lat="46.81608" lon="4.28359">
        <ele>621.63</ele>
        <time>2021-08-13T03:32:56Z</time>
      </trkpt>
      <trkpt lat="46.81627" lon="4.28359">
        <ele>623.07</ele>
        <time>2021-08-13T03:33:02Z</time>
      </trkpt>
      <trkpt lat="46.8164" lon="4.28362">
        <ele>623.55</ele>
        <time>2021-08-13T03:33:08Z</time>
      </trkpt>
      <trkpt lat="46.81655" lon="4.28363">
        <ele>624.51</ele>
        <time>2021-08-13T03:33:15Z</time>
      </trkpt>
      <trkpt lat="46.81666" lon="4.2836">
        <ele>625.47</ele>
        <time>2021-08-13T03:33:22Z</time>
      </trkpt>
      <trkpt lat="46.81675" lon="4.28356">
        <ele>626.92</ele>
        <time>2021-08-13T03:33:28Z</time>
      </trkpt>
      <trkpt lat="46.81689" lon="4.28353">
        <ele>627.88</ele>
        <time>2021-08-13T03:33:35Z</time>
      </trkpt>
      <trkpt lat="46.81701" lon="4.28349">
        <ele>628.84</ele>
        <time>2021-08-13T03:33:42Z</time>
      </trkpt>
      <trkpt lat="46.81714" lon="4.28343">
        <ele>629.32</ele>
        <time>2021-08-13T03:33:48Z</time>
      </trkpt>
      <trkpt lat="46.81733" lon="4.28331">
        <ele>629.32</ele>
        <time>2021-08-13T03:33:55Z</time>
      </trkpt>
      <trkpt lat="46.81759" lon="4.28315">
        <ele>629.8</ele>
        <time>2021-08-13T03:34:03Z</time>
      </trkpt>
      <trkpt lat="46.81778" lon="4.28302">
        <ele>628.84</ele>
        <time>2021-08-13T03:34:09Z</time>
      </trkpt>
      <trkpt lat="46.81782" lon="4.28294">
        <ele>628.36</ele>
        <time>2021-08-13T03:34:11Z</time>
      </trkpt>
      <trkpt lat="46.81781" lon="4.28278">
        <ele>628.36</ele>
        <time>2021-08-13T03:34:16Z</time>
      </trkpt>
      <trkpt lat="46.81775" lon="4.28259">
        <ele>630.76</ele>
        <time>2021-08-13T03:34:23Z</time>
      </trkpt>
      <trkpt lat="46.81771" lon="4.2825">
        <ele>631.72</ele>
        <time>2021-08-13T03:34:27Z</time>
      </trkpt>
      <trkpt lat="46.8177" lon="4.28248">
        <ele>631.72</ele>
        <time>2021-08-13T03:34:28Z</time>
      </trkpt>
      <trkpt lat="46.81768" lon="4.28246">
        <ele>631.72</ele>
        <time>2021-08-13T03:34:29Z</time>
      </trkpt>
      <trkpt lat="46.81767" lon="4.28245">
        <ele>632.2</ele>
        <time>2021-08-13T03:34:30Z</time>
      </trkpt>
      <trkpt lat="46.81765" lon="4.28243">
        <ele>632.2</ele>
        <time>2021-08-13T03:34:31Z</time>
      </trkpt>
      <trkpt lat="46.81764" lon="4.28241">
        <ele>632.2</ele>
        <time>2021-08-13T03:34:32Z</time>
      </trkpt>
      <trkpt lat="46.81762" lon="4.28239">
        <ele>632.2</ele>
        <time>2021-08-13T03:34:33Z</time>
      </trkpt>
      <trkpt lat="46.8176" lon="4.28236">
        <ele>632.2</ele>
        <time>2021-08-13T03:34:34Z</time>
      </trkpt>
      <trkpt lat="46.81758" lon="4.28234">
        <ele>633.17</ele>
        <time>2021-08-13T03:34:35Z</time>
      </trkpt>
      <trkpt lat="46.81751" lon="4.28222">
        <ele>634.13</ele>
        <time>2021-08-13T03:34:42Z</time>
      </trkpt>
      <trkpt lat="46.81746" lon="4.28214">
        <ele>635.09</ele>
        <time>2021-08-13T03:34:48Z</time>
      </trkpt>
      <trkpt lat="46.81726" lon="4.28202">
        <ele>635.57</ele>
        <time>2021-08-13T03:34:56Z</time>
      </trkpt>
      <trkpt lat="46.81711" lon="4.28188">
        <ele>636.53</ele>
        <time>2021-08-13T03:35:02Z</time>
      </trkpt>
      <trkpt lat="46.81694" lon="4.28168">
        <ele>637.01</ele>
        <time>2021-08-13T03:35:10Z</time>
      </trkpt>
      <trkpt lat="46.81683" lon="4.28145">
        <ele>637.49</ele>
        <time>2021-08-13T03:35:16Z</time>
      </trkpt>
      <trkpt lat="46.81667" lon="4.28117">
        <ele>637.97</ele>
        <time>2021-08-13T03:35:22Z</time>
      </trkpt>
      <trkpt lat="46.81647" lon="4.28074">
        <ele>637.97</ele>
        <time>2021-08-13T03:35:30Z</time>
      </trkpt>
      <trkpt lat="46.81641" lon="4.28065">
        <ele>636.53</ele>
        <time>2021-08-13T03:35:32Z</time>
      </trkpt>
      <trkpt lat="46.8162" lon="4.28036">
        <ele>636.05</ele>
        <time>2021-08-13T03:35:38Z</time>
      </trkpt>
      <trkpt lat="46.81618" lon="4.2803">
        <ele>635.09</ele>
        <time>2021-08-13T03:35:39Z</time>
      </trkpt>
      <trkpt lat="46.81615" lon="4.28023">
        <ele>634.61</ele>
        <time>2021-08-13T03:35:40Z</time>
      </trkpt>
      <trkpt lat="46.81612" lon="4.28017">
        <ele>634.61</ele>
        <time>2021-08-13T03:35:41Z</time>
      </trkpt>
      <trkpt lat="46.81602" lon="4.27998">
        <ele>633.65</ele>
        <time>2021-08-13T03:35:44Z</time>
      </trkpt>
      <trkpt lat="46.81598" lon="4.27992">
        <ele>633.65</ele>
        <time>2021-08-13T03:35:45Z</time>
      </trkpt>
      <trkpt lat="46.81591" lon="4.2798">
        <ele>632.68</ele>
        <time>2021-08-13T03:35:47Z</time>
      </trkpt>
      <trkpt lat="46.81586" lon="4.27975">
        <ele>631.72</ele>
        <time>2021-08-13T03:35:48Z</time>
      </trkpt>
      <trkpt lat="46.81582" lon="4.27972">
        <ele>631.72</ele>
        <time>2021-08-13T03:35:49Z</time>
      </trkpt>
      <trkpt lat="46.81577" lon="4.2797">
        <ele>631.24</ele>
        <time>2021-08-13T03:35:50Z</time>
      </trkpt>
      <trkpt lat="46.81566" lon="4.27969">
        <ele>630.76</ele>
        <time>2021-08-13T03:35:52Z</time>
      </trkpt>
      <trkpt lat="46.81561" lon="4.27968">
        <ele>630.28</ele>
        <time>2021-08-13T03:35:53Z</time>
      </trkpt>
      <trkpt lat="46.81555" lon="4.27967">
        <ele>630.28</ele>
        <time>2021-08-13T03:35:54Z</time>
      </trkpt>
      <trkpt lat="46.81549" lon="4.27965">
        <ele>628.84</ele>
        <time>2021-08-13T03:35:55Z</time>
      </trkpt>
      <trkpt lat="46.81544" lon="4.27962">
        <ele>628.84</ele>
        <time>2021-08-13T03:35:56Z</time>
      </trkpt>
      <trkpt lat="46.81538" lon="4.27958">
        <ele>627.88</ele>
        <time>2021-08-13T03:35:57Z</time>
      </trkpt>
      <trkpt lat="46.81534" lon="4.27952">
        <ele>627.88</ele>
        <time>2021-08-13T03:35:58Z</time>
      </trkpt>
      <trkpt lat="46.81529" lon="4.27946">
        <ele>626.92</ele>
        <time>2021-08-13T03:35:59Z</time>
      </trkpt>
      <trkpt lat="46.81525" lon="4.2794">
        <ele>626.44</ele>
        <time>2021-08-13T03:36:00Z</time>
      </trkpt>
      <trkpt lat="46.81509" lon="4.27914">
        <ele>622.59</ele>
        <time>2021-08-13T03:36:04Z</time>
      </trkpt>
      <trkpt lat="46.81505" lon="4.27909">
        <ele>622.11</ele>
        <time>2021-08-13T03:36:05Z</time>
      </trkpt>
      <trkpt lat="46.81488" lon="4.27888">
        <ele>618.26</ele>
        <time>2021-08-13T03:36:08Z</time>
      </trkpt>
      <trkpt lat="46.81478" lon="4.27877">
        <ele>617.3</ele>
        <time>2021-08-13T03:36:10Z</time>
      </trkpt>
      <trkpt lat="46.81472" lon="4.27873">
        <ele>616.82</ele>
        <time>2021-08-13T03:36:13Z</time>
      </trkpt>
      <trkpt lat="46.81471" lon="4.27875">
        <ele>616.82</ele>
        <time>2021-08-13T03:36:14Z</time>
      </trkpt>
      <trkpt lat="46.81471" lon="4.27883">
        <ele>616.82</ele>
        <time>2021-08-13T03:36:19Z</time>
      </trkpt>
      <trkpt lat="46.81471" lon="4.2788">
        <ele>616.82</ele>
        <time>2021-08-13T03:36:20Z</time>
      </trkpt>
      <trkpt lat="46.81471" lon="4.27876">
        <ele>616.82</ele>
        <time>2021-08-13T03:36:21Z</time>
      </trkpt>
      <trkpt lat="46.81469" lon="4.27868">
        <ele>616.82</ele>
        <time>2021-08-13T03:36:23Z</time>
      </trkpt>
      <trkpt lat="46.81465" lon="4.27858">
        <ele>615.86</ele>
        <time>2021-08-13T03:36:25Z</time>
      </trkpt>
      <trkpt lat="46.81461" lon="4.27854">
        <ele>614.9</ele>
        <time>2021-08-13T03:36:26Z</time>
      </trkpt>
      <trkpt lat="46.81448" lon="4.2784">
        <ele>612.5</ele>
        <time>2021-08-13T03:36:30Z</time>
      </trkpt>
      <trkpt lat="46.81444" lon="4.27838">
        <ele>611.54</ele>
        <time>2021-08-13T03:36:31Z</time>
      </trkpt>
      <trkpt lat="46.8144" lon="4.27835">
        <ele>610.57</ele>
        <time>2021-08-13T03:36:32Z</time>
      </trkpt>
      <trkpt lat="46.81436" lon="4.27832">
        <ele>609.61</ele>
        <time>2021-08-13T03:36:33Z</time>
      </trkpt>
      <trkpt lat="46.81433" lon="4.2783">
        <ele>609.13</ele>
        <time>2021-08-13T03:36:34Z</time>
      </trkpt>
      <trkpt lat="46.81429" lon="4.27829">
        <ele>608.65</ele>
        <time>2021-08-13T03:36:35Z</time>
      </trkpt>
      <trkpt lat="46.81424" lon="4.27829">
        <ele>607.69</ele>
        <time>2021-08-13T03:36:36Z</time>
      </trkpt>
      <trkpt lat="46.81421" lon="4.2783">
        <ele>607.69</ele>
        <time>2021-08-13T03:36:37Z</time>
      </trkpt>
      <trkpt lat="46.81416" lon="4.27834">
        <ele>606.73</ele>
        <time>2021-08-13T03:36:38Z</time>
      </trkpt>
      <trkpt lat="46.81412" lon="4.27837">
        <ele>607.21</ele>
        <time>2021-08-13T03:36:39Z</time>
      </trkpt>
      <trkpt lat="46.81408" lon="4.27841">
        <ele>606.25</ele>
        <time>2021-08-13T03:36:40Z</time>
      </trkpt>
      <trkpt lat="46.81404" lon="4.27846">
        <ele>605.77</ele>
        <time>2021-08-13T03:36:41Z</time>
      </trkpt>
      <trkpt lat="46.81388" lon="4.2787">
        <ele>603.85</ele>
        <time>2021-08-13T03:36:47Z</time>
      </trkpt>
      <trkpt lat="46.81386" lon="4.2787">
        <ele>603.36</ele>
        <time>2021-08-13T03:36:48Z</time>
      </trkpt>
      <trkpt lat="46.81384" lon="4.27866">
        <ele>602.88</ele>
        <time>2021-08-13T03:36:49Z</time>
      </trkpt>
      <trkpt lat="46.81384" lon="4.27862">
        <ele>602.88</ele>
        <time>2021-08-13T03:36:50Z</time>
      </trkpt>
      <trkpt lat="46.81384" lon="4.27859">
        <ele>602.88</ele>
        <time>2021-08-13T03:36:51Z</time>
      </trkpt>
      <trkpt lat="46.81388" lon="4.27833">
        <ele>602.4</ele>
        <time>2021-08-13T03:36:56Z</time>
      </trkpt>
      <trkpt lat="46.81389" lon="4.27828">
        <ele>602.4</ele>
        <time>2021-08-13T03:36:57Z</time>
      </trkpt>
      <trkpt lat="46.81389" lon="4.27822">
        <ele>602.4</ele>
        <time>2021-08-13T03:36:58Z</time>
      </trkpt>
      <trkpt lat="46.81388" lon="4.27817">
        <ele>602.4</ele>
        <time>2021-08-13T03:36:59Z</time>
      </trkpt>
      <trkpt lat="46.81386" lon="4.27813">
        <ele>601.92</ele>
        <time>2021-08-13T03:37:00Z</time>
      </trkpt>
      <trkpt lat="46.81382" lon="4.2781">
        <ele>601.92</ele>
        <time>2021-08-13T03:37:01Z</time>
      </trkpt>
      <trkpt lat="46.81379" lon="4.27807">
        <ele>601.92</ele>
        <time>2021-08-13T03:37:02Z</time>
      </trkpt>
      <trkpt lat="46.81375" lon="4.27803">
        <ele>601.44</ele>
        <time>2021-08-13T03:37:03Z</time>
      </trkpt>
      <trkpt lat="46.81347" lon="4.27767">
        <ele>600.96</ele>
        <time>2021-08-13T03:37:11Z</time>
      </trkpt>
      <trkpt lat="46.81332" lon="4.27743">
        <ele>602.4</ele>
        <time>2021-08-13T03:37:17Z</time>
      </trkpt>
      <trkpt lat="46.81319" lon="4.27721">
        <ele>604.33</ele>
        <time>2021-08-13T03:37:25Z</time>
      </trkpt>
      <trkpt lat="46.8131" lon="4.27699">
        <ele>605.77</ele>
        <time>2021-08-13T03:37:33Z</time>
      </trkpt>
      <trkpt lat="46.813" lon="4.27679">
        <ele>607.21</ele>
        <time>2021-08-13T03:37:41Z</time>
      </trkpt>
      <trkpt lat="46.81295" lon="4.27652">
        <ele>608.17</ele>
        <time>2021-08-13T03:37:49Z</time>
      </trkpt>
      <trkpt lat="46.81288" lon="4.27626">
        <ele>608.65</ele>
        <time>2021-08-13T03:37:57Z</time>
      </trkpt>
      <trkpt lat="46.81279" lon="4.27587">
        <ele>609.61</ele>
        <time>2021-08-13T03:38:06Z</time>
      </trkpt>
      <trkpt lat="46.81274" lon="4.2755">
        <ele>610.09</ele>
        <time>2021-08-13T03:38:14Z</time>
      </trkpt>
      <trkpt lat="46.81272" lon="4.27493">
        <ele>611.06</ele>
        <time>2021-08-13T03:38:25Z</time>
      </trkpt>
      <trkpt lat="46.81266" lon="4.27448">
        <ele>611.54</ele>
        <time>2021-08-13T03:38:33Z</time>
      </trkpt>
      <trkpt lat="46.81261" lon="4.27397">
        <ele>612.5</ele>
        <time>2021-08-13T03:38:42Z</time>
      </trkpt>
      <trkpt lat="46.81257" lon="4.27344">
        <ele>612.5</ele>
        <time>2021-08-13T03:38:50Z</time>
      </trkpt>
      <trkpt lat="46.81251" lon="4.27288">
        <ele>612.5</ele>
        <time>2021-08-13T03:38:58Z</time>
      </trkpt>
      <trkpt lat="46.81238" lon="4.27253">
        <ele>612.5</ele>
        <time>2021-08-13T03:39:04Z</time>
      </trkpt>
      <trkpt lat="46.81221" lon="4.27215">
        <ele>612.98</ele>
        <time>2021-08-13T03:39:11Z</time>
      </trkpt>
      <trkpt lat="46.81208" lon="4.27183">
        <ele>614.9</ele>
        <time>2021-08-13T03:39:18Z</time>
      </trkpt>
      <trkpt lat="46.81204" lon="4.27166">
        <ele>615.38</ele>
        <time>2021-08-13T03:39:24Z</time>
      </trkpt>
      <trkpt lat="46.81198" lon="4.27152">
        <ele>616.82</ele>
        <time>2021-08-13T03:39:30Z</time>
      </trkpt>
      <trkpt lat="46.81181" lon="4.27127">
        <ele>618.26</ele>
        <time>2021-08-13T03:39:37Z</time>
      </trkpt>
      <trkpt lat="46.81167" lon="4.27107">
        <ele>619.71</ele>
        <time>2021-08-13T03:39:43Z</time>
      </trkpt>
      <trkpt lat="46.81155" lon="4.27082">
        <ele>620.67</ele>
        <time>2021-08-13T03:39:50Z</time>
      </trkpt>
      <trkpt lat="46.81152" lon="4.27061">
        <ele>620.67</ele>
        <time>2021-08-13T03:39:56Z</time>
      </trkpt>
      <trkpt lat="46.81158" lon="4.27027">
        <ele>621.15</ele>
        <time>2021-08-13T03:40:03Z</time>
      </trkpt>
      <trkpt lat="46.81166" lon="4.27009">
        <ele>621.15</ele>
        <time>2021-08-13T03:40:06Z</time>
      </trkpt>
      <trkpt lat="46.81165" lon="4.27007">
        <ele>621.15</ele>
        <time>2021-08-13T03:40:07Z</time>
      </trkpt>
      <trkpt lat="46.81163" lon="4.27005">
        <ele>621.15</ele>
        <time>2021-08-13T03:40:08Z</time>
      </trkpt>
      <trkpt lat="46.81153" lon="4.26997">
        <ele>621.15</ele>
        <time>2021-08-13T03:40:13Z</time>
      </trkpt>
      <trkpt lat="46.81147" lon="4.26983">
        <ele>622.59</ele>
        <time>2021-08-13T03:40:19Z</time>
      </trkpt>
      <trkpt lat="46.81138" lon="4.26972">
        <ele>623.07</ele>
        <time>2021-08-13T03:40:26Z</time>
      </trkpt>
      <trkpt lat="46.81127" lon="4.26963">
        <ele>624.51</ele>
        <time>2021-08-13T03:40:32Z</time>
      </trkpt>
      <trkpt lat="46.81114" lon="4.26955">
        <ele>625.96</ele>
        <time>2021-08-13T03:40:39Z</time>
      </trkpt>
      <trkpt lat="46.81103" lon="4.26943">
        <ele>626.92</ele>
        <time>2021-08-13T03:40:45Z</time>
      </trkpt>
      <trkpt lat="46.81087" lon="4.2692">
        <ele>625.47</ele>
        <time>2021-08-13T03:40:52Z</time>
      </trkpt>
      <trkpt lat="46.81076" lon="4.26904">
        <ele>625.47</ele>
        <time>2021-08-13T03:40:56Z</time>
      </trkpt>
      <trkpt lat="46.81062" lon="4.26886">
        <ele>624.99</ele>
        <time>2021-08-13T03:41:01Z</time>
      </trkpt>
      <trkpt lat="46.8105" lon="4.26861">
        <ele>624.99</ele>
        <time>2021-08-13T03:41:07Z</time>
      </trkpt>
      <trkpt lat="46.81046" lon="4.26851">
        <ele>625.96</ele>
        <time>2021-08-13T03:41:10Z</time>
      </trkpt>
      <trkpt lat="46.81039" lon="4.26836">
        <ele>627.4</ele>
        <time>2021-08-13T03:41:16Z</time>
      </trkpt>
      <trkpt lat="46.8104" lon="4.26833">
        <ele>627.88</ele>
        <time>2021-08-13T03:41:17Z</time>
      </trkpt>
      <trkpt lat="46.81041" lon="4.2683">
        <ele>627.88</ele>
        <time>2021-08-13T03:41:18Z</time>
      </trkpt>
      <trkpt lat="46.81041" lon="4.26823">
        <ele>627.88</ele>
        <time>2021-08-13T03:41:21Z</time>
      </trkpt>
      <trkpt lat="46.8104" lon="4.26821">
        <ele>628.36</ele>
        <time>2021-08-13T03:41:22Z</time>
      </trkpt>
      <trkpt lat="46.81035" lon="4.26808">
        <ele>629.32</ele>
        <time>2021-08-13T03:41:29Z</time>
      </trkpt>
      <trkpt lat="46.81032" lon="4.26804">
        <ele>630.28</ele>
        <time>2021-08-13T03:41:32Z</time>
      </trkpt>
      <trkpt lat="46.81032" lon="4.26802">
        <ele>630.28</ele>
        <time>2021-08-13T03:41:33Z</time>
      </trkpt>
      <trkpt lat="46.8103" lon="4.268">
        <ele>630.76</ele>
        <time>2021-08-13T03:41:35Z</time>
      </trkpt>
      <trkpt lat="46.81023" lon="4.2679">
        <ele>632.68</ele>
        <time>2021-08-13T03:41:41Z</time>
      </trkpt>
      <trkpt lat="46.81022" lon="4.26788">
        <ele>632.68</ele>
        <time>2021-08-13T03:41:42Z</time>
      </trkpt>
      <trkpt lat="46.81022" lon="4.26786">
        <ele>632.68</ele>
        <time>2021-08-13T03:41:43Z</time>
      </trkpt>
      <trkpt lat="46.81021" lon="4.26776">
        <ele>633.17</ele>
        <time>2021-08-13T03:41:49Z</time>
      </trkpt>
      <trkpt lat="46.8102" lon="4.26765">
        <ele>633.17</ele>
        <time>2021-08-13T03:41:56Z</time>
      </trkpt>
      <trkpt lat="46.8102" lon="4.26756">
        <ele>633.65</ele>
        <time>2021-08-13T03:42:00Z</time>
      </trkpt>
      <trkpt lat="46.8102" lon="4.26753">
        <ele>633.65</ele>
        <time>2021-08-13T03:42:01Z</time>
      </trkpt>
      <trkpt lat="46.8102" lon="4.2675">
        <ele>633.65</ele>
        <time>2021-08-13T03:42:02Z</time>
      </trkpt>
      <trkpt lat="46.8102" lon="4.26747">
        <ele>633.65</ele>
        <time>2021-08-13T03:42:03Z</time>
      </trkpt>
      <trkpt lat="46.8102" lon="4.26744">
        <ele>633.65</ele>
        <time>2021-08-13T03:42:04Z</time>
      </trkpt>
      <trkpt lat="46.81019" lon="4.26742">
        <ele>634.13</ele>
        <time>2021-08-13T03:42:05Z</time>
      </trkpt>
      <trkpt lat="46.81018" lon="4.26739">
        <ele>634.13</ele>
        <time>2021-08-13T03:42:06Z</time>
      </trkpt>
      <trkpt lat="46.81018" lon="4.26734">
        <ele>634.13</ele>
        <time>2021-08-13T03:42:08Z</time>
      </trkpt>
      <trkpt lat="46.81018" lon="4.26732">
        <ele>634.13</ele>
        <time>2021-08-13T03:42:09Z</time>
      </trkpt>
      <trkpt lat="46.81017" lon="4.26729">
        <ele>634.13</ele>
        <time>2021-08-13T03:42:10Z</time>
      </trkpt>
      <trkpt lat="46.81017" lon="4.26727">
        <ele>634.13</ele>
        <time>2021-08-13T03:42:11Z</time>
      </trkpt>
      <trkpt lat="46.81016" lon="4.26724">
        <ele>635.09</ele>
        <time>2021-08-13T03:42:12Z</time>
      </trkpt>
      <trkpt lat="46.81016" lon="4.26722">
        <ele>635.09</ele>
        <time>2021-08-13T03:42:13Z</time>
      </trkpt>
      <trkpt lat="46.81016" lon="4.2672">
        <ele>635.09</ele>
        <time>2021-08-13T03:42:14Z</time>
      </trkpt>
      <trkpt lat="46.81016" lon="4.26718">
        <ele>635.09</ele>
        <time>2021-08-13T03:42:15Z</time>
      </trkpt>
      <trkpt lat="46.81015" lon="4.26706">
        <ele>635.57</ele>
        <time>2021-08-13T03:42:21Z</time>
      </trkpt>
      <trkpt lat="46.81014" lon="4.267">
        <ele>636.05</ele>
        <time>2021-08-13T03:42:24Z</time>
      </trkpt>
      <trkpt lat="46.81012" lon="4.26684">
        <ele>637.49</ele>
        <time>2021-08-13T03:42:32Z</time>
      </trkpt>
      <trkpt lat="46.8101" lon="4.26666">
        <ele>638.93</ele>
        <time>2021-08-13T03:42:38Z</time>
      </trkpt>
      <trkpt lat="46.81009" lon="4.26661">
        <ele>639.41</ele>
        <time>2021-08-13T03:42:39Z</time>
      </trkpt>
      <trkpt lat="46.81008" lon="4.26657">
        <ele>639.41</ele>
        <time>2021-08-13T03:42:40Z</time>
      </trkpt>
      <trkpt lat="46.81006" lon="4.26651">
        <ele>639.41</ele>
        <time>2021-08-13T03:42:42Z</time>
      </trkpt>
      <trkpt lat="46.81004" lon="4.26648">
        <ele>639.89</ele>
        <time>2021-08-13T03:42:43Z</time>
      </trkpt>
      <trkpt lat="46.81001" lon="4.26643">
        <ele>640.38</ele>
        <time>2021-08-13T03:42:45Z</time>
      </trkpt>
      <trkpt lat="46.81" lon="4.2664">
        <ele>640.86</ele>
        <time>2021-08-13T03:42:46Z</time>
      </trkpt>
      <trkpt lat="46.80998" lon="4.26632">
        <ele>640.38</ele>
        <time>2021-08-13T03:42:49Z</time>
      </trkpt>
      <trkpt lat="46.80998" lon="4.26629">
        <ele>640.86</ele>
        <time>2021-08-13T03:42:50Z</time>
      </trkpt>
      <trkpt lat="46.80988" lon="4.26613">
        <ele>641.82</ele>
        <time>2021-08-13T03:42:57Z</time>
      </trkpt>
      <trkpt lat="46.80979" lon="4.26601">
        <ele>642.78</ele>
        <time>2021-08-13T03:43:03Z</time>
      </trkpt>
      <trkpt lat="46.80977" lon="4.26593">
        <ele>643.26</ele>
        <time>2021-08-13T03:43:06Z</time>
      </trkpt>
      <trkpt lat="46.80977" lon="4.2659">
        <ele>643.26</ele>
        <time>2021-08-13T03:43:07Z</time>
      </trkpt>
      <trkpt lat="46.80977" lon="4.26587">
        <ele>643.26</ele>
        <time>2021-08-13T03:43:08Z</time>
      </trkpt>
      <trkpt lat="46.80977" lon="4.26584">
        <ele>643.74</ele>
        <time>2021-08-13T03:43:09Z</time>
      </trkpt>
      <trkpt lat="46.80977" lon="4.26582">
        <ele>643.74</ele>
        <time>2021-08-13T03:43:10Z</time>
      </trkpt>
      <trkpt lat="46.80977" lon="4.2658">
        <ele>643.74</ele>
        <time>2021-08-13T03:43:11Z</time>
      </trkpt>
      <trkpt lat="46.80976" lon="4.26578">
        <ele>643.74</ele>
        <time>2021-08-13T03:43:12Z</time>
      </trkpt>
      <trkpt lat="46.80974" lon="4.26576">
        <ele>643.74</ele>
        <time>2021-08-13T03:43:13Z</time>
      </trkpt>
      <trkpt lat="46.8097" lon="4.26562">
        <ele>645.66</ele>
        <time>2021-08-13T03:43:21Z</time>
      </trkpt>
      <trkpt lat="46.80969" lon="4.26553">
        <ele>646.14</ele>
        <time>2021-08-13T03:43:27Z</time>
      </trkpt>
      <trkpt lat="46.80971" lon="4.26541">
        <ele>648.07</ele>
        <time>2021-08-13T03:43:34Z</time>
      </trkpt>
      <trkpt lat="46.80972" lon="4.26528">
        <ele>648.55</ele>
        <time>2021-08-13T03:43:41Z</time>
      </trkpt>
      <trkpt lat="46.80969" lon="4.26515">
        <ele>649.51</ele>
        <time>2021-08-13T03:43:49Z</time>
      </trkpt>
      <trkpt lat="46.80964" lon="4.26503">
        <ele>650.47</ele>
        <time>2021-08-13T03:43:56Z</time>
      </trkpt>
      <trkpt lat="46.80963" lon="4.2649">
        <ele>650.95</ele>
        <time>2021-08-13T03:44:03Z</time>
      </trkpt>
      <trkpt lat="46.80962" lon="4.2648">
        <ele>651.43</ele>
        <time>2021-08-13T03:44:09Z</time>
      </trkpt>
      <trkpt lat="46.80957" lon="4.26466">
        <ele>652.39</ele>
        <time>2021-08-13T03:44:16Z</time>
      </trkpt>
      <trkpt lat="46.8095" lon="4.26454">
        <ele>653.35</ele>
        <time>2021-08-13T03:44:24Z</time>
      </trkpt>
      <trkpt lat="46.80947" lon="4.26448">
        <ele>653.83</ele>
        <time>2021-08-13T03:44:30Z</time>
      </trkpt>
      <trkpt lat="46.80945" lon="4.26446">
        <ele>653.83</ele>
        <time>2021-08-13T03:44:32Z</time>
      </trkpt>
      <trkpt lat="46.80945" lon="4.26443">
        <ele>653.83</ele>
        <time>2021-08-13T03:44:33Z</time>
      </trkpt>
      <trkpt lat="46.80936" lon="4.26422">
        <ele>654.31</ele>
        <time>2021-08-13T03:44:40Z</time>
      </trkpt>
      <trkpt lat="46.80924" lon="4.26406">
        <ele>655.28</ele>
        <time>2021-08-13T03:44:45Z</time>
      </trkpt>
      <trkpt lat="46.80915" lon="4.26388">
        <ele>655.76</ele>
        <time>2021-08-13T03:44:51Z</time>
      </trkpt>
      <trkpt lat="46.80908" lon="4.26362">
        <ele>656.72</ele>
        <time>2021-08-13T03:44:58Z</time>
      </trkpt>
      <trkpt lat="46.80907" lon="4.26359">
        <ele>656.72</ele>
        <time>2021-08-13T03:44:59Z</time>
      </trkpt>
      <trkpt lat="46.80907" lon="4.26356">
        <ele>656.72</ele>
        <time>2021-08-13T03:45:00Z</time>
      </trkpt>
      <trkpt lat="46.80906" lon="4.26352">
        <ele>657.2</ele>
        <time>2021-08-13T03:45:01Z</time>
      </trkpt>
      <trkpt lat="46.80906" lon="4.26349">
        <ele>657.2</ele>
        <time>2021-08-13T03:45:02Z</time>
      </trkpt>
      <trkpt lat="46.80906" lon="4.26347">
        <ele>657.2</ele>
        <time>2021-08-13T03:45:03Z</time>
      </trkpt>
      <trkpt lat="46.80906" lon="4.26343">
        <ele>657.2</ele>
        <time>2021-08-13T03:45:04Z</time>
      </trkpt>
      <trkpt lat="46.809" lon="4.26322">
        <ele>658.16</ele>
        <time>2021-08-13T03:45:10Z</time>
      </trkpt>
      <trkpt lat="46.80888" lon="4.26305">
        <ele>658.64</ele>
        <time>2021-08-13T03:45:16Z</time>
      </trkpt>
      <trkpt lat="46.8088" lon="4.26281">
        <ele>659.6</ele>
        <time>2021-08-13T03:45:22Z</time>
      </trkpt>
      <trkpt lat="46.80875" lon="4.26256">
        <ele>660.56</ele>
        <time>2021-08-13T03:45:29Z</time>
      </trkpt>
      <trkpt lat="46.80864" lon="4.26236">
        <ele>660.56</ele>
        <time>2021-08-13T03:45:35Z</time>
      </trkpt>
      <trkpt lat="46.80851" lon="4.26208">
        <ele>661.04</ele>
        <time>2021-08-13T03:45:42Z</time>
      </trkpt>
      <trkpt lat="46.80847" lon="4.26205">
        <ele>661.04</ele>
        <time>2021-08-13T03:45:43Z</time>
      </trkpt>
      <trkpt lat="46.80832" lon="4.26184">
        <ele>661.52</ele>
        <time>2021-08-13T03:45:49Z</time>
      </trkpt>
      <trkpt lat="46.80814" lon="4.26158">
        <ele>662.01</ele>
        <time>2021-08-13T03:45:56Z</time>
      </trkpt>
      <trkpt lat="46.80796" lon="4.26143">
        <ele>662.49</ele>
        <time>2021-08-13T03:46:02Z</time>
      </trkpt>
      <trkpt lat="46.80774" lon="4.26128">
        <ele>662.97</ele>
        <time>2021-08-13T03:46:08Z</time>
      </trkpt>
      <trkpt lat="46.80756" lon="4.26115">
        <ele>662.97</ele>
        <time>2021-08-13T03:46:16Z</time>
      </trkpt>
      <trkpt lat="46.8074" lon="4.26098">
        <ele>662.97</ele>
        <time>2021-08-13T03:46:23Z</time>
      </trkpt>
      <trkpt lat="46.80738" lon="4.26091">
        <ele>662.97</ele>
        <time>2021-08-13T03:46:26Z</time>
      </trkpt>
      <trkpt lat="46.8074" lon="4.26087">
        <ele>662.97</ele>
        <time>2021-08-13T03:46:29Z</time>
      </trkpt>
      <trkpt lat="46.80749" lon="4.26083">
        <ele>663.45</ele>
        <time>2021-08-13T03:46:34Z</time>
      </trkpt>
      <trkpt lat="46.80749" lon="4.2607">
        <ele>663.45</ele>
        <time>2021-08-13T03:46:40Z</time>
      </trkpt>
      <trkpt lat="46.80748" lon="4.26067">
        <ele>663.45</ele>
        <time>2021-08-13T03:46:49Z</time>
      </trkpt>
      <trkpt lat="46.80748" lon="4.26062">
        <ele>663.45</ele>
        <time>2021-08-13T03:47:03Z</time>
      </trkpt>
      <trkpt lat="46.80747" lon="4.26064">
        <ele>663.45</ele>
        <time>2021-08-13T03:47:10Z</time>
      </trkpt>
      <trkpt lat="46.8075" lon="4.26067">
        <ele>663.45</ele>
        <time>2021-08-13T03:47:16Z</time>
      </trkpt>
      <trkpt lat="46.80749" lon="4.26071">
        <ele>663.45</ele>
        <time>2021-08-13T03:47:36Z</time>
      </trkpt>
      <trkpt lat="46.80752" lon="4.26072">
        <ele>663.93</ele>
        <time>2021-08-13T03:47:52Z</time>
      </trkpt>
      <trkpt lat="46.80751" lon="4.26073">
        <ele>663.93</ele>
        <time>2021-08-13T03:48:02Z</time>
      </trkpt>
      <trkpt lat="46.80751" lon="4.26071">
        <ele>663.93</ele>
        <time>2021-08-13T03:48:20Z</time>
      </trkpt>
      <trkpt lat="46.80752" lon="4.2607">
        <ele>664.41</ele>
        <time>2021-08-13T03:48:31Z</time>
      </trkpt>
      <trkpt lat="46.80752" lon="4.26069">
        <ele>664.41</ele>
        <time>2021-08-13T03:48:46Z</time>
      </trkpt>
      <trkpt lat="46.80746" lon="4.2607">
        <ele>664.41</ele>
        <time>2021-08-13T03:49:03Z</time>
      </trkpt>
      <trkpt lat="46.80744" lon="4.2607">
        <ele>664.41</ele>
        <time>2021-08-13T03:49:06Z</time>
      </trkpt>
      <trkpt lat="46.80737" lon="4.26082">
        <ele>664.89</ele>
        <time>2021-08-13T03:49:17Z</time>
      </trkpt>
      <trkpt lat="46.80736" lon="4.26082">
        <ele>664.89</ele>
        <time>2021-08-13T03:49:18Z</time>
      </trkpt>
      <trkpt lat="46.8073" lon="4.26082">
        <ele>664.89</ele>
        <time>2021-08-13T03:49:25Z</time>
      </trkpt>
      <trkpt lat="46.8073" lon="4.26081">
        <ele>664.89</ele>
        <time>2021-08-13T03:49:26Z</time>
      </trkpt>
      <trkpt lat="46.80725" lon="4.26069">
        <ele>665.37</ele>
        <time>2021-08-13T03:49:32Z</time>
      </trkpt>
      <trkpt lat="46.80723" lon="4.26066">
        <ele>665.37</ele>
        <time>2021-08-13T03:49:33Z</time>
      </trkpt>
      <trkpt lat="46.80723" lon="4.26064">
        <ele>665.37</ele>
        <time>2021-08-13T03:49:34Z</time>
      </trkpt>
      <trkpt lat="46.80721" lon="4.26062">
        <ele>665.37</ele>
        <time>2021-08-13T03:49:35Z</time>
      </trkpt>
      <trkpt lat="46.80719" lon="4.2606">
        <ele>665.37</ele>
        <time>2021-08-13T03:49:36Z</time>
      </trkpt>
      <trkpt lat="46.80718" lon="4.26057">
        <ele>665.37</ele>
        <time>2021-08-13T03:49:37Z</time>
      </trkpt>
      <trkpt lat="46.80717" lon="4.26055">
        <ele>665.37</ele>
        <time>2021-08-13T03:49:38Z</time>
      </trkpt>
      <trkpt lat="46.80715" lon="4.26054">
        <ele>665.37</ele>
        <time>2021-08-13T03:49:39Z</time>
      </trkpt>
      <trkpt lat="46.80695" lon="4.26042">
        <ele>666.81</ele>
        <time>2021-08-13T03:49:48Z</time>
      </trkpt>
      <trkpt lat="46.80673" lon="4.26027">
        <ele>667.77</ele>
        <time>2021-08-13T03:49:57Z</time>
      </trkpt>
      <trkpt lat="46.80653" lon="4.26016">
        <ele>668.73</ele>
        <time>2021-08-13T03:50:05Z</time>
      </trkpt>
      <trkpt lat="46.80645" lon="4.2601">
        <ele>669.7</ele>
        <time>2021-08-13T03:50:08Z</time>
      </trkpt>
      <trkpt lat="46.80644" lon="4.26007">
        <ele>669.7</ele>
        <time>2021-08-13T03:50:09Z</time>
      </trkpt>
      <trkpt lat="46.80643" lon="4.26002">
        <ele>669.7</ele>
        <time>2021-08-13T03:50:10Z</time>
      </trkpt>
      <trkpt lat="46.80643" lon="4.26">
        <ele>669.7</ele>
        <time>2021-08-13T03:50:11Z</time>
      </trkpt>
      <trkpt lat="46.80643" lon="4.25996">
        <ele>670.18</ele>
        <time>2021-08-13T03:50:12Z</time>
      </trkpt>
      <trkpt lat="46.8065" lon="4.25967">
        <ele>671.14</ele>
        <time>2021-08-13T03:50:20Z</time>
      </trkpt>
      <trkpt lat="46.80658" lon="4.25934">
        <ele>671.14</ele>
        <time>2021-08-13T03:50:28Z</time>
      </trkpt>
      <trkpt lat="46.8066" lon="4.25923">
        <ele>669.7</ele>
        <time>2021-08-13T03:50:30Z</time>
      </trkpt>
      <trkpt lat="46.8067" lon="4.25882">
        <ele>666.33</ele>
        <time>2021-08-13T03:50:36Z</time>
      </trkpt>
      <trkpt lat="46.80672" lon="4.25871">
        <ele>664.89</ele>
        <time>2021-08-13T03:50:37Z</time>
      </trkpt>
      <trkpt lat="46.80672" lon="4.25859">
        <ele>664.41</ele>
        <time>2021-08-13T03:50:38Z</time>
      </trkpt>
      <trkpt lat="46.80671" lon="4.25846">
        <ele>663.93</ele>
        <time>2021-08-13T03:50:39Z</time>
      </trkpt>
      <trkpt lat="46.80669" lon="4.25836">
        <ele>663.93</ele>
        <time>2021-08-13T03:50:40Z</time>
      </trkpt>
      <trkpt lat="46.80667" lon="4.25824">
        <ele>662.49</ele>
        <time>2021-08-13T03:50:41Z</time>
      </trkpt>
      <trkpt lat="46.80665" lon="4.25811">
        <ele>662.49</ele>
        <time>2021-08-13T03:50:42Z</time>
      </trkpt>
      <trkpt lat="46.80659" lon="4.25768">
        <ele>659.6</ele>
        <time>2021-08-13T03:50:45Z</time>
      </trkpt>
      <trkpt lat="46.80657" lon="4.25724">
        <ele>655.76</ele>
        <time>2021-08-13T03:50:48Z</time>
      </trkpt>
      <trkpt lat="46.80656" lon="4.25702">
        <ele>654.31</ele>
        <time>2021-08-13T03:50:50Z</time>
      </trkpt>
      <trkpt lat="46.80654" lon="4.25691">
        <ele>654.31</ele>
        <time>2021-08-13T03:50:51Z</time>
      </trkpt>
      <trkpt lat="46.8065" lon="4.25683">
        <ele>653.83</ele>
        <time>2021-08-13T03:50:52Z</time>
      </trkpt>
      <trkpt lat="46.80646" lon="4.25675">
        <ele>653.35</ele>
        <time>2021-08-13T03:50:53Z</time>
      </trkpt>
      <trkpt lat="46.80641" lon="4.2567">
        <ele>652.87</ele>
        <time>2021-08-13T03:50:54Z</time>
      </trkpt>
      <trkpt lat="46.80635" lon="4.25664">
        <ele>652.87</ele>
        <time>2021-08-13T03:50:55Z</time>
      </trkpt>
      <trkpt lat="46.80615" lon="4.25649">
        <ele>650.95</ele>
        <time>2021-08-13T03:51:00Z</time>
      </trkpt>
      <trkpt lat="46.80611" lon="4.2565">
        <ele>650.95</ele>
        <time>2021-08-13T03:51:01Z</time>
      </trkpt>
      <trkpt lat="46.80608" lon="4.25651">
        <ele>649.99</ele>
        <time>2021-08-13T03:51:02Z</time>
      </trkpt>
      <trkpt lat="46.80583" lon="4.25651">
        <ele>648.07</ele>
        <time>2021-08-13T03:51:09Z</time>
      </trkpt>
      <trkpt lat="46.80579" lon="4.25648">
        <ele>647.59</ele>
        <time>2021-08-13T03:51:10Z</time>
      </trkpt>
      <trkpt lat="46.80575" lon="4.25643">
        <ele>647.59</ele>
        <time>2021-08-13T03:51:11Z</time>
      </trkpt>
      <trkpt lat="46.80573" lon="4.25638">
        <ele>647.1</ele>
        <time>2021-08-13T03:51:12Z</time>
      </trkpt>
      <trkpt lat="46.8057" lon="4.25632">
        <ele>647.1</ele>
        <time>2021-08-13T03:51:13Z</time>
      </trkpt>
      <trkpt lat="46.80568" lon="4.25625">
        <ele>646.62</ele>
        <time>2021-08-13T03:51:14Z</time>
      </trkpt>
      <trkpt lat="46.80567" lon="4.25618">
        <ele>646.14</ele>
        <time>2021-08-13T03:51:15Z</time>
      </trkpt>
      <trkpt lat="46.80567" lon="4.25611">
        <ele>645.66</ele>
        <time>2021-08-13T03:51:16Z</time>
      </trkpt>
      <trkpt lat="46.80567" lon="4.25604">
        <ele>645.66</ele>
        <time>2021-08-13T03:51:17Z</time>
      </trkpt>
      <trkpt lat="46.80568" lon="4.25596">
        <ele>645.66</ele>
        <time>2021-08-13T03:51:18Z</time>
      </trkpt>
      <trkpt lat="46.80569" lon="4.25575">
        <ele>644.22</ele>
        <time>2021-08-13T03:51:21Z</time>
      </trkpt>
      <trkpt lat="46.80569" lon="4.25569">
        <ele>643.74</ele>
        <time>2021-08-13T03:51:22Z</time>
      </trkpt>
      <trkpt lat="46.80558" lon="4.25535">
        <ele>641.82</ele>
        <time>2021-08-13T03:51:28Z</time>
      </trkpt>
      <trkpt lat="46.8055" lon="4.25517">
        <ele>640.86</ele>
        <time>2021-08-13T03:51:31Z</time>
      </trkpt>
      <trkpt lat="46.80548" lon="4.2551">
        <ele>639.41</ele>
        <time>2021-08-13T03:51:32Z</time>
      </trkpt>
      <trkpt lat="46.80547" lon="4.25503">
        <ele>638.93</ele>
        <time>2021-08-13T03:51:33Z</time>
      </trkpt>
      <trkpt lat="46.80545" lon="4.25496">
        <ele>638.93</ele>
        <time>2021-08-13T03:51:34Z</time>
      </trkpt>
      <trkpt lat="46.80542" lon="4.25488">
        <ele>638.45</ele>
        <time>2021-08-13T03:51:35Z</time>
      </trkpt>
      <trkpt lat="46.80533" lon="4.25476">
        <ele>637.49</ele>
        <time>2021-08-13T03:51:37Z</time>
      </trkpt>
      <trkpt lat="46.80506" lon="4.25437">
        <ele>636.05</ele>
        <time>2021-08-13T03:51:42Z</time>
      </trkpt>
      <trkpt lat="46.80492" lon="4.25416">
        <ele>636.05</ele>
        <time>2021-08-13T03:51:45Z</time>
      </trkpt>
      <trkpt lat="46.80484" lon="4.25413">
        <ele>635.09</ele>
        <time>2021-08-13T03:51:46Z</time>
      </trkpt>
      <trkpt lat="46.80478" lon="4.25409">
        <ele>634.61</ele>
        <time>2021-08-13T03:51:47Z</time>
      </trkpt>
      <trkpt lat="46.80473" lon="4.25405">
        <ele>633.65</ele>
        <time>2021-08-13T03:51:48Z</time>
      </trkpt>
      <trkpt lat="46.80469" lon="4.25401">
        <ele>633.65</ele>
        <time>2021-08-13T03:51:49Z</time>
      </trkpt>
      <trkpt lat="46.80465" lon="4.25396">
        <ele>632.68</ele>
        <time>2021-08-13T03:51:50Z</time>
      </trkpt>
      <trkpt lat="46.80446" lon="4.25371">
        <ele>629.8</ele>
        <time>2021-08-13T03:51:54Z</time>
      </trkpt>
      <trkpt lat="46.80442" lon="4.25363">
        <ele>629.32</ele>
        <time>2021-08-13T03:51:55Z</time>
      </trkpt>
      <trkpt lat="46.80438" lon="4.25354">
        <ele>628.36</ele>
        <time>2021-08-13T03:51:56Z</time>
      </trkpt>
      <trkpt lat="46.80429" lon="4.25328">
        <ele>624.51</ele>
        <time>2021-08-13T03:51:59Z</time>
      </trkpt>
      <trkpt lat="46.80422" lon="4.25299">
        <ele>621.63</ele>
        <time>2021-08-13T03:52:03Z</time>
      </trkpt>
      <trkpt lat="46.80419" lon="4.25285">
        <ele>620.19</ele>
        <time>2021-08-13T03:52:05Z</time>
      </trkpt>
      <trkpt lat="46.80419" lon="4.25278">
        <ele>619.71</ele>
        <time>2021-08-13T03:52:06Z</time>
      </trkpt>
      <trkpt lat="46.8042" lon="4.25271">
        <ele>618.75</ele>
        <time>2021-08-13T03:52:07Z</time>
      </trkpt>
      <trkpt lat="46.80422" lon="4.25264">
        <ele>617.78</ele>
        <time>2021-08-13T03:52:08Z</time>
      </trkpt>
      <trkpt lat="46.80423" lon="4.25258">
        <ele>617.3</ele>
        <time>2021-08-13T03:52:09Z</time>
      </trkpt>
      <trkpt lat="46.80424" lon="4.25253">
        <ele>616.34</ele>
        <time>2021-08-13T03:52:10Z</time>
      </trkpt>
      <trkpt lat="46.80423" lon="4.2525">
        <ele>616.34</ele>
        <time>2021-08-13T03:52:11Z</time>
      </trkpt>
      <trkpt lat="46.80421" lon="4.25247">
        <ele>615.38</ele>
        <time>2021-08-13T03:52:12Z</time>
      </trkpt>
      <trkpt lat="46.8042" lon="4.25245">
        <ele>615.38</ele>
        <time>2021-08-13T03:52:13Z</time>
      </trkpt>
      <trkpt lat="46.8041" lon="4.25234">
        <ele>614.42</ele>
        <time>2021-08-13T03:52:17Z</time>
      </trkpt>
      <trkpt lat="46.80407" lon="4.25232">
        <ele>614.42</ele>
        <time>2021-08-13T03:52:18Z</time>
      </trkpt>
      <trkpt lat="46.804" lon="4.25234">
        <ele>614.9</ele>
        <time>2021-08-13T03:52:22Z</time>
      </trkpt>
      <trkpt lat="46.80385" lon="4.25236">
        <ele>614.9</ele>
        <time>2021-08-13T03:52:35Z</time>
      </trkpt>
      <trkpt lat="46.80363" lon="4.25225">
        <ele>614.9</ele>
        <time>2021-08-13T03:52:43Z</time>
      </trkpt>
      <trkpt lat="46.80344" lon="4.25217">
        <ele>614.9</ele>
        <time>2021-08-13T03:52:49Z</time>
      </trkpt>
      <trkpt lat="46.80324" lon="4.25212">
        <ele>616.82</ele>
        <time>2021-08-13T03:52:55Z</time>
      </trkpt>
      <trkpt lat="46.80307" lon="4.2521">
        <ele>617.78</ele>
        <time>2021-08-13T03:53:00Z</time>
      </trkpt>
      <trkpt lat="46.80291" lon="4.25211">
        <ele>619.23</ele>
        <time>2021-08-13T03:53:07Z</time>
      </trkpt>
      <trkpt lat="46.80273" lon="4.2522">
        <ele>620.19</ele>
        <time>2021-08-13T03:53:15Z</time>
      </trkpt>
      <trkpt lat="46.80256" lon="4.25243">
        <ele>618.26</ele>
        <time>2021-08-13T03:53:21Z</time>
      </trkpt>
      <trkpt lat="46.80239" lon="4.25267">
        <ele>614.42</ele>
        <time>2021-08-13T03:53:25Z</time>
      </trkpt>
      <trkpt lat="46.80229" lon="4.25281">
        <ele>612.98</ele>
        <time>2021-08-13T03:53:27Z</time>
      </trkpt>
      <trkpt lat="46.80224" lon="4.25287">
        <ele>612.02</ele>
        <time>2021-08-13T03:53:28Z</time>
      </trkpt>
      <trkpt lat="46.80218" lon="4.25292">
        <ele>610.57</ele>
        <time>2021-08-13T03:53:29Z</time>
      </trkpt>
      <trkpt lat="46.80212" lon="4.25296">
        <ele>609.61</ele>
        <time>2021-08-13T03:53:30Z</time>
      </trkpt>
      <trkpt lat="46.80206" lon="4.25298">
        <ele>608.65</ele>
        <time>2021-08-13T03:53:31Z</time>
      </trkpt>
      <trkpt lat="46.80199" lon="4.25301">
        <ele>608.17</ele>
        <time>2021-08-13T03:53:32Z</time>
      </trkpt>
      <trkpt lat="46.80181" lon="4.25307">
        <ele>606.25</ele>
        <time>2021-08-13T03:53:35Z</time>
      </trkpt>
      <trkpt lat="46.80174" lon="4.25307">
        <ele>605.77</ele>
        <time>2021-08-13T03:53:36Z</time>
      </trkpt>
      <trkpt lat="46.80162" lon="4.25305">
        <ele>603.85</ele>
        <time>2021-08-13T03:53:38Z</time>
      </trkpt>
      <trkpt lat="46.80155" lon="4.25306">
        <ele>602.88</ele>
        <time>2021-08-13T03:53:39Z</time>
      </trkpt>
      <trkpt lat="46.80149" lon="4.25308">
        <ele>602.4</ele>
        <time>2021-08-13T03:53:40Z</time>
      </trkpt>
      <trkpt lat="46.80144" lon="4.25311">
        <ele>602.4</ele>
        <time>2021-08-13T03:53:41Z</time>
      </trkpt>
      <trkpt lat="46.80135" lon="4.25315">
        <ele>601.44</ele>
        <time>2021-08-13T03:53:42Z</time>
      </trkpt>
      <trkpt lat="46.80114" lon="4.25326">
        <ele>603.36</ele>
        <time>2021-08-13T03:53:46Z</time>
      </trkpt>
      <trkpt lat="46.80113" lon="4.25326">
        <ele>603.36</ele>
        <time>2021-08-13T03:53:47Z</time>
      </trkpt>
      <trkpt lat="46.8011" lon="4.25327">
        <ele>604.33</ele>
        <time>2021-08-13T03:53:49Z</time>
      </trkpt>
      <trkpt lat="46.80108" lon="4.25327">
        <ele>604.33</ele>
        <time>2021-08-13T03:53:50Z</time>
      </trkpt>
      <trkpt lat="46.80106" lon="4.25326">
        <ele>604.81</ele>
        <time>2021-08-13T03:53:51Z</time>
      </trkpt>
      <trkpt lat="46.80104" lon="4.25326">
        <ele>604.81</ele>
        <time>2021-08-13T03:53:52Z</time>
      </trkpt>
      <trkpt lat="46.80103" lon="4.25325">
        <ele>604.81</ele>
        <time>2021-08-13T03:53:53Z</time>
      </trkpt>
      <trkpt lat="46.80102" lon="4.25325">
        <ele>604.81</ele>
        <time>2021-08-13T03:53:54Z</time>
      </trkpt>
      <trkpt lat="46.801" lon="4.25324">
        <ele>605.29</ele>
        <time>2021-08-13T03:53:55Z</time>
      </trkpt>
      <trkpt lat="46.80099" lon="4.25324">
        <ele>605.29</ele>
        <time>2021-08-13T03:53:56Z</time>
      </trkpt>
      <trkpt lat="46.80098" lon="4.25325">
        <ele>605.29</ele>
        <time>2021-08-13T03:54:02Z</time>
      </trkpt>
      <trkpt lat="46.80099" lon="4.25326">
        <ele>605.29</ele>
        <time>2021-08-13T03:54:10Z</time>
      </trkpt>
      <trkpt lat="46.80103" lon="4.25328">
        <ele>605.29</ele>
        <time>2021-08-13T03:54:18Z</time>
      </trkpt>
      <trkpt lat="46.80104" lon="4.25328">
        <ele>604.33</ele>
        <time>2021-08-13T03:54:27Z</time>
      </trkpt>
      <trkpt lat="46.80106" lon="4.25327">
        <ele>604.33</ele>
        <time>2021-08-13T03:54:29Z</time>
      </trkpt>
      <trkpt lat="46.80108" lon="4.25327">
        <ele>603.36</ele>
        <time>2021-08-13T03:54:30Z</time>
      </trkpt>
      <trkpt lat="46.8011" lon="4.25328">
        <ele>601.92</ele>
        <time>2021-08-13T03:54:32Z</time>
      </trkpt>
      <trkpt lat="46.80114" lon="4.25325">
        <ele>601.44</ele>
        <time>2021-08-13T03:54:38Z</time>
      </trkpt>
      <trkpt lat="46.80113" lon="4.25326">
        <ele>601.44</ele>
        <time>2021-08-13T03:54:46Z</time>
      </trkpt>
      <trkpt lat="46.80112" lon="4.25327">
        <ele>601.44</ele>
        <time>2021-08-13T03:54:47Z</time>
      </trkpt>
      <trkpt lat="46.80108" lon="4.25329">
        <ele>602.88</ele>
        <time>2021-08-13T03:54:53Z</time>
      </trkpt>
      <trkpt lat="46.80103" lon="4.25329">
        <ele>605.29</ele>
        <time>2021-08-13T03:54:58Z</time>
      </trkpt>
      <trkpt lat="46.80092" lon="4.25323">
        <ele>605.29</ele>
        <time>2021-08-13T03:55:05Z</time>
      </trkpt>
      <trkpt lat="46.8008" lon="4.25317">
        <ele>605.29</ele>
        <time>2021-08-13T03:55:10Z</time>
      </trkpt>
      <trkpt lat="46.80077" lon="4.25312">
        <ele>605.29</ele>
        <time>2021-08-13T03:55:12Z</time>
      </trkpt>
      <trkpt lat="46.80076" lon="4.25308">
        <ele>605.29</ele>
        <time>2021-08-13T03:55:13Z</time>
      </trkpt>
      <trkpt lat="46.80076" lon="4.25303">
        <ele>605.29</ele>
        <time>2021-08-13T03:55:14Z</time>
      </trkpt>
      <trkpt lat="46.80079" lon="4.25286">
        <ele>602.4</ele>
        <time>2021-08-13T03:55:17Z</time>
      </trkpt>
      <trkpt lat="46.80079" lon="4.2527">
        <ele>599.04</ele>
        <time>2021-08-13T03:55:20Z</time>
      </trkpt>
      <trkpt lat="46.8008" lon="4.25264">
        <ele>599.04</ele>
        <time>2021-08-13T03:55:21Z</time>
      </trkpt>
      <trkpt lat="46.80081" lon="4.25258">
        <ele>598.08</ele>
        <time>2021-08-13T03:55:22Z</time>
      </trkpt>
      <trkpt lat="46.80083" lon="4.25252">
        <ele>597.12</ele>
        <time>2021-08-13T03:55:23Z</time>
      </trkpt>
      <trkpt lat="46.80084" lon="4.25245">
        <ele>596.64</ele>
        <time>2021-08-13T03:55:24Z</time>
      </trkpt>
      <trkpt lat="46.80085" lon="4.25227">
        <ele>595.19</ele>
        <time>2021-08-13T03:55:27Z</time>
      </trkpt>
      <trkpt lat="46.80085" lon="4.2522">
        <ele>595.19</ele>
        <time>2021-08-13T03:55:28Z</time>
      </trkpt>
      <trkpt lat="46.80086" lon="4.25214">
        <ele>594.23</ele>
        <time>2021-08-13T03:55:29Z</time>
      </trkpt>
      <trkpt lat="46.80086" lon="4.25197">
        <ele>592.31</ele>
        <time>2021-08-13T03:55:32Z</time>
      </trkpt>
      <trkpt lat="46.80077" lon="4.25176">
        <ele>593.75</ele>
        <time>2021-08-13T03:55:37Z</time>
      </trkpt>
      <trkpt lat="46.80052" lon="4.25149">
        <ele>595.19</ele>
        <time>2021-08-13T03:55:42Z</time>
      </trkpt>
      <trkpt lat="46.80031" lon="4.25125">
        <ele>595.67</ele>
        <time>2021-08-13T03:55:48Z</time>
      </trkpt>
      <trkpt lat="46.80013" lon="4.25111">
        <ele>594.71</ele>
        <time>2021-08-13T03:55:51Z</time>
      </trkpt>
      <trkpt lat="46.8" lon="4.25105">
        <ele>593.75</ele>
        <time>2021-08-13T03:55:53Z</time>
      </trkpt>
      <trkpt lat="46.79969" lon="4.25087">
        <ele>590.39</ele>
        <time>2021-08-13T03:55:59Z</time>
      </trkpt>
      <trkpt lat="46.79946" lon="4.25075">
        <ele>587.5</ele>
        <time>2021-08-13T03:56:05Z</time>
      </trkpt>
      <trkpt lat="46.79943" lon="4.25073">
        <ele>587.5</ele>
        <time>2021-08-13T03:56:06Z</time>
      </trkpt>
      <trkpt lat="46.79931" lon="4.25068">
        <ele>584.14</ele>
        <time>2021-08-13T03:56:09Z</time>
      </trkpt>
      <trkpt lat="46.79918" lon="4.25064">
        <ele>580.77</ele>
        <time>2021-08-13T03:56:13Z</time>
      </trkpt>
      <trkpt lat="46.79913" lon="4.25065">
        <ele>578.85</ele>
        <time>2021-08-13T03:56:15Z</time>
      </trkpt>
      <trkpt lat="46.79911" lon="4.25067">
        <ele>577.89</ele>
        <time>2021-08-13T03:56:16Z</time>
      </trkpt>
      <trkpt lat="46.79902" lon="4.2507">
        <ele>575.01</ele>
        <time>2021-08-13T03:56:19Z</time>
      </trkpt>
      <trkpt lat="46.7989" lon="4.25075">
        <ele>571.64</ele>
        <time>2021-08-13T03:56:22Z</time>
      </trkpt>
      <trkpt lat="46.79879" lon="4.2508">
        <ele>568.76</ele>
        <time>2021-08-13T03:56:25Z</time>
      </trkpt>
      <trkpt lat="46.79846" lon="4.25083">
        <ele>565.39</ele>
        <time>2021-08-13T03:56:30Z</time>
      </trkpt>
      <trkpt lat="46.79808" lon="4.25086">
        <ele>566.35</ele>
        <time>2021-08-13T03:56:36Z</time>
      </trkpt>
      <trkpt lat="46.79791" lon="4.25088">
        <ele>565.39</ele>
        <time>2021-08-13T03:56:39Z</time>
      </trkpt>
      <trkpt lat="46.79785" lon="4.25088">
        <ele>564.91</ele>
        <time>2021-08-13T03:56:40Z</time>
      </trkpt>
      <trkpt lat="46.7978" lon="4.25089">
        <ele>563.47</ele>
        <time>2021-08-13T03:56:41Z</time>
      </trkpt>
      <trkpt lat="46.7977" lon="4.2509">
        <ele>561.55</ele>
        <time>2021-08-13T03:56:43Z</time>
      </trkpt>
      <trkpt lat="46.79764" lon="4.25089">
        <ele>561.55</ele>
        <time>2021-08-13T03:56:44Z</time>
      </trkpt>
      <trkpt lat="46.79757" lon="4.25087">
        <ele>561.07</ele>
        <time>2021-08-13T03:56:45Z</time>
      </trkpt>
      <trkpt lat="46.7975" lon="4.25086">
        <ele>561.07</ele>
        <time>2021-08-13T03:56:46Z</time>
      </trkpt>
      <trkpt lat="46.79742" lon="4.25087">
        <ele>560.11</ele>
        <time>2021-08-13T03:56:47Z</time>
      </trkpt>
      <trkpt lat="46.79735" lon="4.25089">
        <ele>560.11</ele>
        <time>2021-08-13T03:56:48Z</time>
      </trkpt>
      <trkpt lat="46.79728" lon="4.2509">
        <ele>559.62</ele>
        <time>2021-08-13T03:56:49Z</time>
      </trkpt>
      <trkpt lat="46.79723" lon="4.25091">
        <ele>559.62</ele>
        <time>2021-08-13T03:56:50Z</time>
      </trkpt>
      <trkpt lat="46.79704" lon="4.2509">
        <ele>559.14</ele>
        <time>2021-08-13T03:56:54Z</time>
      </trkpt>
      <trkpt lat="46.79697" lon="4.25084">
        <ele>557.22</ele>
        <time>2021-08-13T03:56:58Z</time>
      </trkpt>
      <trkpt lat="46.79688" lon="4.25075">
        <ele>553.86</ele>
        <time>2021-08-13T03:57:03Z</time>
      </trkpt>
      <trkpt lat="46.79668" lon="4.25069">
        <ele>551.45</ele>
        <time>2021-08-13T03:57:09Z</time>
      </trkpt>
      <trkpt lat="46.79651" lon="4.25063">
        <ele>549.53</ele>
        <time>2021-08-13T03:57:14Z</time>
      </trkpt>
      <trkpt lat="46.79643" lon="4.25058">
        <ele>547.61</ele>
        <time>2021-08-13T03:57:18Z</time>
      </trkpt>
      <trkpt lat="46.7963" lon="4.25048">
        <ele>546.17</ele>
        <time>2021-08-13T03:57:23Z</time>
      </trkpt>
      <trkpt lat="46.79626" lon="4.25048">
        <ele>545.69</ele>
        <time>2021-08-13T03:57:24Z</time>
      </trkpt>
      <trkpt lat="46.79623" lon="4.25048">
        <ele>545.2</ele>
        <time>2021-08-13T03:57:25Z</time>
      </trkpt>
      <trkpt lat="46.79603" lon="4.25049">
        <ele>543.76</ele>
        <time>2021-08-13T03:57:30Z</time>
      </trkpt>
      <trkpt lat="46.79585" lon="4.25036">
        <ele>541.36</ele>
        <time>2021-08-13T03:57:35Z</time>
      </trkpt>
      <trkpt lat="46.79579" lon="4.25005">
        <ele>538.48</ele>
        <time>2021-08-13T03:57:41Z</time>
      </trkpt>
      <trkpt lat="46.79568" lon="4.24987">
        <ele>537.51</ele>
        <time>2021-08-13T03:57:45Z</time>
      </trkpt>
      <trkpt lat="46.79557" lon="4.24955">
        <ele>535.59</ele>
        <time>2021-08-13T03:57:51Z</time>
      </trkpt>
      <trkpt lat="46.79546" lon="4.24926">
        <ele>533.19</ele>
        <time>2021-08-13T03:57:56Z</time>
      </trkpt>
      <trkpt lat="46.79546" lon="4.24924">
        <ele>532.23</ele>
        <time>2021-08-13T03:57:57Z</time>
      </trkpt>
      <trkpt lat="46.79542" lon="4.24916">
        <ele>532.23</ele>
        <time>2021-08-13T03:57:58Z</time>
      </trkpt>
      <trkpt lat="46.79542" lon="4.24901">
        <ele>530.79</ele>
        <time>2021-08-13T03:58:00Z</time>
      </trkpt>
      <trkpt lat="46.79545" lon="4.24867">
        <ele>527.42</ele>
        <time>2021-08-13T03:58:04Z</time>
      </trkpt>
      <trkpt lat="46.79547" lon="4.2485">
        <ele>526.94</ele>
        <time>2021-08-13T03:58:07Z</time>
      </trkpt>
      <trkpt lat="46.79529" lon="4.2484">
        <ele>526.94</ele>
        <time>2021-08-13T03:58:14Z</time>
      </trkpt>
      <trkpt lat="46.79533" lon="4.24835">
        <ele>525.5</ele>
        <time>2021-08-13T03:58:18Z</time>
      </trkpt>
      <trkpt lat="46.79538" lon="4.24828">
        <ele>524.06</ele>
        <time>2021-08-13T03:58:19Z</time>
      </trkpt>
      <trkpt lat="46.79541" lon="4.24825">
        <ele>523.09</ele>
        <time>2021-08-13T03:58:20Z</time>
      </trkpt>
      <trkpt lat="46.7955" lon="4.24801">
        <ele>520.69</ele>
        <time>2021-08-13T03:58:23Z</time>
      </trkpt>
      <trkpt lat="46.79553" lon="4.24783">
        <ele>519.73</ele>
        <time>2021-08-13T03:58:25Z</time>
      </trkpt>
      <trkpt lat="46.79554" lon="4.2477">
        <ele>518.29</ele>
        <time>2021-08-13T03:58:27Z</time>
      </trkpt>
      <trkpt lat="46.79554" lon="4.24746">
        <ele>516.37</ele>
        <time>2021-08-13T03:58:29Z</time>
      </trkpt>
      <trkpt lat="46.79554" lon="4.24741">
        <ele>515.4</ele>
        <time>2021-08-13T03:58:30Z</time>
      </trkpt>
      <trkpt lat="46.79556" lon="4.24724">
        <ele>513.48</ele>
        <time>2021-08-13T03:58:31Z</time>
      </trkpt>
      <trkpt lat="46.79559" lon="4.24711">
        <ele>511.56</ele>
        <time>2021-08-13T03:58:33Z</time>
      </trkpt>
      <trkpt lat="46.79561" lon="4.24701">
        <ele>510.6</ele>
        <time>2021-08-13T03:58:35Z</time>
      </trkpt>
      <trkpt lat="46.79565" lon="4.247">
        <ele>510.12</ele>
        <time>2021-08-13T03:58:36Z</time>
      </trkpt>
      <trkpt lat="46.79572" lon="4.24697">
        <ele>508.67</ele>
        <time>2021-08-13T03:58:38Z</time>
      </trkpt>
      <trkpt lat="46.79577" lon="4.24697">
        <ele>508.19</ele>
        <time>2021-08-13T03:58:39Z</time>
      </trkpt>
      <trkpt lat="46.79582" lon="4.24697">
        <ele>508.19</ele>
        <time>2021-08-13T03:58:40Z</time>
      </trkpt>
      <trkpt lat="46.79589" lon="4.247">
        <ele>507.23</ele>
        <time>2021-08-13T03:58:42Z</time>
      </trkpt>
      <trkpt lat="46.79599" lon="4.24692">
        <ele>506.75</ele>
        <time>2021-08-13T03:58:44Z</time>
      </trkpt>
      <trkpt lat="46.79606" lon="4.24686">
        <ele>505.79</ele>
        <time>2021-08-13T03:58:46Z</time>
      </trkpt>
      <trkpt lat="46.79612" lon="4.24678">
        <ele>505.31</ele>
        <time>2021-08-13T03:58:48Z</time>
      </trkpt>
      <trkpt lat="46.79615" lon="4.2467">
        <ele>504.83</ele>
        <time>2021-08-13T03:58:49Z</time>
      </trkpt>
      <trkpt lat="46.79615" lon="4.24641">
        <ele>503.87</ele>
        <time>2021-08-13T03:58:53Z</time>
      </trkpt>
      <trkpt lat="46.79604" lon="4.24575">
        <ele>501.46</ele>
        <time>2021-08-13T03:59:00Z</time>
      </trkpt>
      <trkpt lat="46.79598" lon="4.24544">
        <ele>498.58</ele>
        <time>2021-08-13T03:59:04Z</time>
      </trkpt>
      <trkpt lat="46.79594" lon="4.24523">
        <ele>497.62</ele>
        <time>2021-08-13T03:59:06Z</time>
      </trkpt>
      <trkpt lat="46.79589" lon="4.24493">
        <ele>496.18</ele>
        <time>2021-08-13T03:59:09Z</time>
      </trkpt>
      <trkpt lat="46.79586" lon="4.24482">
        <ele>495.22</ele>
        <time>2021-08-13T03:59:10Z</time>
      </trkpt>
      <trkpt lat="46.79574" lon="4.24427">
        <ele>491.85</ele>
        <time>2021-08-13T03:59:15Z</time>
      </trkpt>
      <trkpt lat="46.79566" lon="4.24415">
        <ele>491.37</ele>
        <time>2021-08-13T03:59:16Z</time>
      </trkpt>
      <trkpt lat="46.79558" lon="4.24405">
        <ele>490.89</ele>
        <time>2021-08-13T03:59:17Z</time>
      </trkpt>
      <trkpt lat="46.7955" lon="4.24386">
        <ele>489.93</ele>
        <time>2021-08-13T03:59:19Z</time>
      </trkpt>
      <trkpt lat="46.79547" lon="4.24367">
        <ele>488.97</ele>
        <time>2021-08-13T03:59:21Z</time>
      </trkpt>
      <trkpt lat="46.79547" lon="4.24357">
        <ele>487.53</ele>
        <time>2021-08-13T03:59:22Z</time>
      </trkpt>
      <trkpt lat="46.79548" lon="4.24347">
        <ele>487.53</ele>
        <time>2021-08-13T03:59:23Z</time>
      </trkpt>
      <trkpt lat="46.79551" lon="4.24339">
        <ele>487.05</ele>
        <time>2021-08-13T03:59:24Z</time>
      </trkpt>
      <trkpt lat="46.79559" lon="4.2432">
        <ele>485.6</ele>
        <time>2021-08-13T03:59:26Z</time>
      </trkpt>
      <trkpt lat="46.79571" lon="4.24284">
        <ele>482.24</ele>
        <time>2021-08-13T03:59:30Z</time>
      </trkpt>
      <trkpt lat="46.79574" lon="4.24275">
        <ele>481.28</ele>
        <time>2021-08-13T03:59:31Z</time>
      </trkpt>
      <trkpt lat="46.79578" lon="4.24267">
        <ele>479.84</ele>
        <time>2021-08-13T03:59:32Z</time>
      </trkpt>
      <trkpt lat="46.79581" lon="4.24258">
        <ele>479.35</ele>
        <time>2021-08-13T03:59:33Z</time>
      </trkpt>
      <trkpt lat="46.79584" lon="4.24248">
        <ele>478.39</ele>
        <time>2021-08-13T03:59:34Z</time>
      </trkpt>
      <trkpt lat="46.7959" lon="4.24228">
        <ele>475.99</ele>
        <time>2021-08-13T03:59:36Z</time>
      </trkpt>
      <trkpt lat="46.79593" lon="4.24218">
        <ele>475.03</ele>
        <time>2021-08-13T03:59:37Z</time>
      </trkpt>
      <trkpt lat="46.79599" lon="4.24201">
        <ele>473.11</ele>
        <time>2021-08-13T03:59:39Z</time>
      </trkpt>
      <trkpt lat="46.79607" lon="4.24178">
        <ele>469.74</ele>
        <time>2021-08-13T03:59:42Z</time>
      </trkpt>
      <trkpt lat="46.79618" lon="4.24148">
        <ele>466.86</ele>
        <time>2021-08-13T03:59:45Z</time>
      </trkpt>
      <trkpt lat="46.79624" lon="4.24136">
        <ele>465.42</ele>
        <time>2021-08-13T03:59:47Z</time>
      </trkpt>
      <trkpt lat="46.79633" lon="4.24127">
        <ele>464.45</ele>
        <time>2021-08-13T03:59:51Z</time>
      </trkpt>
      <trkpt lat="46.79628" lon="4.24119">
        <ele>463.01</ele>
        <time>2021-08-13T03:59:54Z</time>
      </trkpt>
      <trkpt lat="46.79631" lon="4.24109">
        <ele>461.57</ele>
        <time>2021-08-13T03:59:56Z</time>
      </trkpt>
      <trkpt lat="46.79639" lon="4.24088">
        <ele>458.69</ele>
        <time>2021-08-13T04:00:00Z</time>
      </trkpt>
      <trkpt lat="46.79641" lon="4.24073">
        <ele>456.76</ele>
        <time>2021-08-13T04:00:02Z</time>
      </trkpt>
      <trkpt lat="46.79643" lon="4.24068">
        <ele>455.8</ele>
        <time>2021-08-13T04:00:03Z</time>
      </trkpt>
      <trkpt lat="46.79648" lon="4.24047">
        <ele>452.44</ele>
        <time>2021-08-13T04:00:08Z</time>
      </trkpt>
      <trkpt lat="46.79652" lon="4.24027">
        <ele>449.07</ele>
        <time>2021-08-13T04:00:11Z</time>
      </trkpt>
      <trkpt lat="46.79653" lon="4.24021">
        <ele>448.11</ele>
        <time>2021-08-13T04:00:12Z</time>
      </trkpt>
      <trkpt lat="46.79657" lon="4.24005">
        <ele>444.75</ele>
        <time>2021-08-13T04:00:14Z</time>
      </trkpt>
      <trkpt lat="46.79659" lon="4.23997">
        <ele>443.79</ele>
        <time>2021-08-13T04:00:15Z</time>
      </trkpt>
      <trkpt lat="46.7966" lon="4.23991">
        <ele>443.31</ele>
        <time>2021-08-13T04:00:16Z</time>
      </trkpt>
      <trkpt lat="46.79661" lon="4.23982">
        <ele>441.86</ele>
        <time>2021-08-13T04:00:17Z</time>
      </trkpt>
      <trkpt lat="46.79663" lon="4.23959">
        <ele>438.02</ele>
        <time>2021-08-13T04:00:20Z</time>
      </trkpt>
      <trkpt lat="46.79663" lon="4.23937">
        <ele>435.61</ele>
        <time>2021-08-13T04:00:23Z</time>
      </trkpt>
      <trkpt lat="46.79662" lon="4.23924">
        <ele>433.21</ele>
        <time>2021-08-13T04:00:25Z</time>
      </trkpt>
      <trkpt lat="46.79662" lon="4.23915">
        <ele>431.77</ele>
        <time>2021-08-13T04:00:26Z</time>
      </trkpt>
      <trkpt lat="46.79662" lon="4.23908">
        <ele>432.25</ele>
        <time>2021-08-13T04:00:27Z</time>
      </trkpt>
      <trkpt lat="46.79662" lon="4.23903">
        <ele>430.81</ele>
        <time>2021-08-13T04:00:28Z</time>
      </trkpt>
      <trkpt lat="46.79661" lon="4.23899">
        <ele>430.81</ele>
        <time>2021-08-13T04:00:29Z</time>
      </trkpt>
      <trkpt lat="46.79659" lon="4.23892">
        <ele>429.37</ele>
        <time>2021-08-13T04:00:32Z</time>
      </trkpt>
      <trkpt lat="46.79657" lon="4.23858">
        <ele>426</ele>
        <time>2021-08-13T04:00:37Z</time>
      </trkpt>
      <trkpt lat="46.79656" lon="4.23839">
        <ele>424.08</ele>
        <time>2021-08-13T04:00:42Z</time>
      </trkpt>
      <trkpt lat="46.79655" lon="4.23837">
        <ele>422.64</ele>
        <time>2021-08-13T04:00:43Z</time>
      </trkpt>
      <trkpt lat="46.79654" lon="4.23832">
        <ele>422.16</ele>
        <time>2021-08-13T04:00:45Z</time>
      </trkpt>
      <trkpt lat="46.79649" lon="4.2382">
        <ele>420.23</ele>
        <time>2021-08-13T04:00:49Z</time>
      </trkpt>
      <trkpt lat="46.79647" lon="4.23818">
        <ele>419.27</ele>
        <time>2021-08-13T04:00:50Z</time>
      </trkpt>
      <trkpt lat="46.79645" lon="4.23815">
        <ele>418.79</ele>
        <time>2021-08-13T04:00:51Z</time>
      </trkpt>
      <trkpt lat="46.79639" lon="4.23807">
        <ele>417.35</ele>
        <time>2021-08-13T04:00:53Z</time>
      </trkpt>
      <trkpt lat="46.7963" lon="4.23801">
        <ele>415.91</ele>
        <time>2021-08-13T04:00:55Z</time>
      </trkpt>
      <trkpt lat="46.79617" lon="4.23791">
        <ele>414.95</ele>
        <time>2021-08-13T04:00:57Z</time>
      </trkpt>
      <trkpt lat="46.79596" lon="4.23772">
        <ele>413.98</ele>
        <time>2021-08-13T04:01:00Z</time>
      </trkpt>
      <trkpt lat="46.7959" lon="4.23766">
        <ele>412.54</ele>
        <time>2021-08-13T04:01:01Z</time>
      </trkpt>
      <trkpt lat="46.7955" lon="4.23722">
        <ele>411.1</ele>
        <time>2021-08-13T04:01:07Z</time>
      </trkpt>
      <trkpt lat="46.79543" lon="4.23716">
        <ele>410.62</ele>
        <time>2021-08-13T04:01:08Z</time>
      </trkpt>
      <trkpt lat="46.79535" lon="4.2371">
        <ele>411.1</ele>
        <time>2021-08-13T04:01:09Z</time>
      </trkpt>
      <trkpt lat="46.79514" lon="4.23694">
        <ele>411.1</ele>
        <time>2021-08-13T04:01:12Z</time>
      </trkpt>
      <trkpt lat="46.79478" lon="4.23661">
        <ele>411.1</ele>
        <time>2021-08-13T04:01:18Z</time>
      </trkpt>
      <trkpt lat="46.79441" lon="4.23632">
        <ele>411.58</ele>
        <time>2021-08-13T04:01:24Z</time>
      </trkpt>
      <trkpt lat="46.79377" lon="4.23581">
        <ele>412.06</ele>
        <time>2021-08-13T04:01:32Z</time>
      </trkpt>
      <trkpt lat="46.79347" lon="4.23541">
        <ele>412.06</ele>
        <time>2021-08-13T04:01:39Z</time>
      </trkpt>
      <trkpt lat="46.79313" lon="4.23473">
        <ele>409.66</ele>
        <time>2021-08-13T04:01:48Z</time>
      </trkpt>
      <trkpt lat="46.79297" lon="4.2344">
        <ele>407.74</ele>
        <time>2021-08-13T04:01:52Z</time>
      </trkpt>
      <trkpt lat="46.79286" lon="4.23414">
        <ele>406.29</ele>
        <time>2021-08-13T04:01:55Z</time>
      </trkpt>
      <trkpt lat="46.79272" lon="4.23369">
        <ele>402.45</ele>
        <time>2021-08-13T04:02:00Z</time>
      </trkpt>
      <trkpt lat="46.79267" lon="4.23338">
        <ele>400.05</ele>
        <time>2021-08-13T04:02:03Z</time>
      </trkpt>
      <trkpt lat="46.7926" lon="4.23328">
        <ele>399.57</ele>
        <time>2021-08-13T04:02:04Z</time>
      </trkpt>
      <trkpt lat="46.79249" lon="4.2331">
        <ele>397.16</ele>
        <time>2021-08-13T04:02:06Z</time>
      </trkpt>
      <trkpt lat="46.79207" lon="4.23265">
        <ele>393.8</ele>
        <time>2021-08-13T04:02:12Z</time>
      </trkpt>
      <trkpt lat="46.79165" lon="4.2322">
        <ele>390.43</ele>
        <time>2021-08-13T04:02:18Z</time>
      </trkpt>
      <trkpt lat="46.79138" lon="4.23183">
        <ele>388.03</ele>
        <time>2021-08-13T04:02:22Z</time>
      </trkpt>
      <trkpt lat="46.79118" lon="4.23151">
        <ele>386.59</ele>
        <time>2021-08-13T04:02:25Z</time>
      </trkpt>
      <trkpt lat="46.79093" lon="4.23108">
        <ele>385.15</ele>
        <time>2021-08-13T04:02:30Z</time>
      </trkpt>
      <trkpt lat="46.79091" lon="4.23101">
        <ele>384.66</ele>
        <time>2021-08-13T04:02:31Z</time>
      </trkpt>
      <trkpt lat="46.79089" lon="4.23091">
        <ele>384.66</ele>
        <time>2021-08-13T04:02:34Z</time>
      </trkpt>
      <trkpt lat="46.79086" lon="4.23085">
        <ele>384.18</ele>
        <time>2021-08-13T04:02:42Z</time>
      </trkpt>
      <trkpt lat="46.79082" lon="4.2306">
        <ele>383.22</ele>
        <time>2021-08-13T04:02:47Z</time>
      </trkpt>
      <trkpt lat="46.79078" lon="4.23029">
        <ele>380.82</ele>
        <time>2021-08-13T04:02:51Z</time>
      </trkpt>
      <trkpt lat="46.79077" lon="4.23012">
        <ele>380.34</ele>
        <time>2021-08-13T04:02:53Z</time>
      </trkpt>
      <trkpt lat="46.79077" lon="4.23004">
        <ele>380.34</ele>
        <time>2021-08-13T04:02:54Z</time>
      </trkpt>
      <trkpt lat="46.79072" lon="4.22941">
        <ele>377.94</ele>
        <time>2021-08-13T04:03:01Z</time>
      </trkpt>
      <trkpt lat="46.79074" lon="4.22867">
        <ele>375.05</ele>
        <time>2021-08-13T04:03:09Z</time>
      </trkpt>
      <trkpt lat="46.79076" lon="4.22857">
        <ele>375.05</ele>
        <time>2021-08-13T04:03:10Z</time>
      </trkpt>
      <trkpt lat="46.79094" lon="4.22774">
        <ele>373.13</ele>
        <time>2021-08-13T04:03:19Z</time>
      </trkpt>
      <trkpt lat="46.791" lon="4.22742">
        <ele>369.76</ele>
        <time>2021-08-13T04:03:22Z</time>
      </trkpt>
      <trkpt lat="46.79109" lon="4.22691">
        <ele>366.4</ele>
        <time>2021-08-13T04:03:27Z</time>
      </trkpt>
      <trkpt lat="46.79112" lon="4.22681">
        <ele>366.4</ele>
        <time>2021-08-13T04:03:28Z</time>
      </trkpt>
      <trkpt lat="46.79115" lon="4.22672">
        <ele>366.4</ele>
        <time>2021-08-13T04:03:29Z</time>
      </trkpt>
      <trkpt lat="46.79119" lon="4.22663">
        <ele>365.44</ele>
        <time>2021-08-13T04:03:30Z</time>
      </trkpt>
      <trkpt lat="46.79123" lon="4.22655">
        <ele>365.44</ele>
        <time>2021-08-13T04:03:31Z</time>
      </trkpt>
      <trkpt lat="46.7913" lon="4.22636">
        <ele>364</ele>
        <time>2021-08-13T04:03:33Z</time>
      </trkpt>
      <trkpt lat="46.79133" lon="4.22626">
        <ele>363.52</ele>
        <time>2021-08-13T04:03:34Z</time>
      </trkpt>
      <trkpt lat="46.79136" lon="4.22616">
        <ele>363.52</ele>
        <time>2021-08-13T04:03:35Z</time>
      </trkpt>
      <trkpt lat="46.79138" lon="4.22605">
        <ele>362.55</ele>
        <time>2021-08-13T04:03:36Z</time>
      </trkpt>
      <trkpt lat="46.79139" lon="4.22594">
        <ele>362.07</ele>
        <time>2021-08-13T04:03:37Z</time>
      </trkpt>
      <trkpt lat="46.79142" lon="4.22572">
        <ele>361.59</ele>
        <time>2021-08-13T04:03:39Z</time>
      </trkpt>
      <trkpt lat="46.79142" lon="4.22561">
        <ele>361.59</ele>
        <time>2021-08-13T04:03:40Z</time>
      </trkpt>
      <trkpt lat="46.79145" lon="4.22482">
        <ele>360.15</ele>
        <time>2021-08-13T04:03:48Z</time>
      </trkpt>
      <trkpt lat="46.79153" lon="4.22414">
        <ele>359.19</ele>
        <time>2021-08-13T04:03:56Z</time>
      </trkpt>
      <trkpt lat="46.79152" lon="4.22407">
        <ele>359.19</ele>
        <time>2021-08-13T04:03:57Z</time>
      </trkpt>
      <trkpt lat="46.79152" lon="4.224">
        <ele>359.19</ele>
        <time>2021-08-13T04:03:58Z</time>
      </trkpt>
      <trkpt lat="46.79151" lon="4.22393">
        <ele>359.19</ele>
        <time>2021-08-13T04:03:59Z</time>
      </trkpt>
      <trkpt lat="46.7915" lon="4.22386">
        <ele>359.19</ele>
        <time>2021-08-13T04:04:00Z</time>
      </trkpt>
      <trkpt lat="46.79148" lon="4.2238">
        <ele>359.19</ele>
        <time>2021-08-13T04:04:01Z</time>
      </trkpt>
      <trkpt lat="46.79146" lon="4.22372">
        <ele>359.19</ele>
        <time>2021-08-13T04:04:02Z</time>
      </trkpt>
      <trkpt lat="46.7913" lon="4.22324">
        <ele>355.83</ele>
        <time>2021-08-13T04:04:08Z</time>
      </trkpt>
      <trkpt lat="46.79124" lon="4.22306">
        <ele>354.86</ele>
        <time>2021-08-13T04:04:10Z</time>
      </trkpt>
      <trkpt lat="46.79116" lon="4.22278">
        <ele>353.9</ele>
        <time>2021-08-13T04:04:13Z</time>
      </trkpt>
      <trkpt lat="46.79114" lon="4.22269">
        <ele>353.42</ele>
        <time>2021-08-13T04:04:14Z</time>
      </trkpt>
      <trkpt lat="46.79113" lon="4.22259">
        <ele>353.42</ele>
        <time>2021-08-13T04:04:15Z</time>
      </trkpt>
      <trkpt lat="46.79108" lon="4.22182">
        <ele>351.02</ele>
        <time>2021-08-13T04:04:23Z</time>
      </trkpt>
      <trkpt lat="46.79107" lon="4.22171">
        <ele>350.54</ele>
        <time>2021-08-13T04:04:24Z</time>
      </trkpt>
      <trkpt lat="46.79106" lon="4.22161">
        <ele>350.54</ele>
        <time>2021-08-13T04:04:25Z</time>
      </trkpt>
      <trkpt lat="46.79104" lon="4.22152">
        <ele>350.06</ele>
        <time>2021-08-13T04:04:26Z</time>
      </trkpt>
      <trkpt lat="46.79102" lon="4.22143">
        <ele>350.06</ele>
        <time>2021-08-13T04:04:27Z</time>
      </trkpt>
      <trkpt lat="46.79099" lon="4.22134">
        <ele>349.58</ele>
        <time>2021-08-13T04:04:28Z</time>
      </trkpt>
      <trkpt lat="46.79096" lon="4.22126">
        <ele>349.58</ele>
        <time>2021-08-13T04:04:29Z</time>
      </trkpt>
      <trkpt lat="46.79092" lon="4.22118">
        <ele>349.1</ele>
        <time>2021-08-13T04:04:30Z</time>
      </trkpt>
      <trkpt lat="46.79087" lon="4.22111">
        <ele>348.62</ele>
        <time>2021-08-13T04:04:31Z</time>
      </trkpt>
      <trkpt lat="46.79066" lon="4.22074">
        <ele>347.65</ele>
        <time>2021-08-13T04:04:36Z</time>
      </trkpt>
      <trkpt lat="46.79057" lon="4.22054">
        <ele>345.25</ele>
        <time>2021-08-13T04:04:39Z</time>
      </trkpt>
      <trkpt lat="46.79053" lon="4.2205">
        <ele>343.81</ele>
        <time>2021-08-13T04:04:40Z</time>
      </trkpt>
      <trkpt lat="46.79049" lon="4.22046">
        <ele>342.37</ele>
        <time>2021-08-13T04:04:41Z</time>
      </trkpt>
      <trkpt lat="46.79043" lon="4.22043">
        <ele>341.41</ele>
        <time>2021-08-13T04:04:42Z</time>
      </trkpt>
      <trkpt lat="46.79036" lon="4.2204">
        <ele>340.44</ele>
        <time>2021-08-13T04:04:43Z</time>
      </trkpt>
      <trkpt lat="46.7903" lon="4.22037">
        <ele>340.44</ele>
        <time>2021-08-13T04:04:44Z</time>
      </trkpt>
      <trkpt lat="46.79018" lon="4.22028">
        <ele>338.04</ele>
        <time>2021-08-13T04:04:46Z</time>
      </trkpt>
      <trkpt lat="46.79013" lon="4.22022">
        <ele>337.08</ele>
        <time>2021-08-13T04:04:47Z</time>
      </trkpt>
      <trkpt lat="46.79009" lon="4.22014">
        <ele>336.12</ele>
        <time>2021-08-13T04:04:48Z</time>
      </trkpt>
      <trkpt lat="46.79006" lon="4.22005">
        <ele>335.16</ele>
        <time>2021-08-13T04:04:49Z</time>
      </trkpt>
      <trkpt lat="46.79003" lon="4.21995">
        <ele>334.68</ele>
        <time>2021-08-13T04:04:50Z</time>
      </trkpt>
      <trkpt lat="46.79002" lon="4.21986">
        <ele>333.71</ele>
        <time>2021-08-13T04:04:51Z</time>
      </trkpt>
      <trkpt lat="46.79001" lon="4.21977">
        <ele>333.23</ele>
        <time>2021-08-13T04:04:52Z</time>
      </trkpt>
      <trkpt lat="46.79" lon="4.21949">
        <ele>332.75</ele>
        <time>2021-08-13T04:04:55Z</time>
      </trkpt>
      <trkpt lat="46.79" lon="4.21933">
        <ele>332.27</ele>
        <time>2021-08-13T04:04:57Z</time>
      </trkpt>
      <trkpt lat="46.78998" lon="4.21926">
        <ele>332.27</ele>
        <time>2021-08-13T04:04:58Z</time>
      </trkpt>
      <trkpt lat="46.78995" lon="4.21918">
        <ele>332.27</ele>
        <time>2021-08-13T04:04:59Z</time>
      </trkpt>
      <trkpt lat="46.78976" lon="4.21881">
        <ele>330.35</ele>
        <time>2021-08-13T04:05:04Z</time>
      </trkpt>
      <trkpt lat="46.78973" lon="4.21873">
        <ele>330.35</ele>
        <time>2021-08-13T04:05:05Z</time>
      </trkpt>
      <trkpt lat="46.7897" lon="4.21863">
        <ele>330.35</ele>
        <time>2021-08-13T04:05:06Z</time>
      </trkpt>
      <trkpt lat="46.78968" lon="4.21854">
        <ele>330.35</ele>
        <time>2021-08-13T04:05:07Z</time>
      </trkpt>
      <trkpt lat="46.78967" lon="4.21845">
        <ele>330.35</ele>
        <time>2021-08-13T04:05:08Z</time>
      </trkpt>
      <trkpt lat="46.78964" lon="4.21796">
        <ele>327.47</ele>
        <time>2021-08-13T04:05:13Z</time>
      </trkpt>
      <trkpt lat="46.78963" lon="4.21789">
        <ele>326.99</ele>
        <time>2021-08-13T04:05:14Z</time>
      </trkpt>
      <trkpt lat="46.78962" lon="4.21781">
        <ele>326.5</ele>
        <time>2021-08-13T04:05:15Z</time>
      </trkpt>
      <trkpt lat="46.78959" lon="4.21767">
        <ele>324.58</ele>
        <time>2021-08-13T04:05:17Z</time>
      </trkpt>
      <trkpt lat="46.78956" lon="4.2176">
        <ele>323.62</ele>
        <time>2021-08-13T04:05:18Z</time>
      </trkpt>
      <trkpt lat="46.78952" lon="4.21755">
        <ele>323.62</ele>
        <time>2021-08-13T04:05:19Z</time>
      </trkpt>
      <trkpt lat="46.7894" lon="4.21741">
        <ele>323.62</ele>
        <time>2021-08-13T04:05:22Z</time>
      </trkpt>
      <trkpt lat="46.78936" lon="4.21739">
        <ele>323.62</ele>
        <time>2021-08-13T04:05:23Z</time>
      </trkpt>
      <trkpt lat="46.78931" lon="4.21737">
        <ele>324.58</ele>
        <time>2021-08-13T04:05:24Z</time>
      </trkpt>
      <trkpt lat="46.78926" lon="4.21737">
        <ele>325.54</ele>
        <time>2021-08-13T04:05:26Z</time>
      </trkpt>
      <trkpt lat="46.78924" lon="4.21736">
        <ele>326.02</ele>
        <time>2021-08-13T04:05:28Z</time>
      </trkpt>
      <trkpt lat="46.78923" lon="4.21736">
        <ele>326.5</ele>
        <time>2021-08-13T04:05:29Z</time>
      </trkpt>
      <trkpt lat="46.78922" lon="4.21736">
        <ele>326.5</ele>
        <time>2021-08-13T04:05:30Z</time>
      </trkpt>
      <trkpt lat="46.78921" lon="4.21737">
        <ele>326.99</ele>
        <time>2021-08-13T04:05:31Z</time>
      </trkpt>
      <trkpt lat="46.78919" lon="4.21737">
        <ele>326.99</ele>
        <time>2021-08-13T04:05:32Z</time>
      </trkpt>
      <trkpt lat="46.78918" lon="4.21737">
        <ele>326.99</ele>
        <time>2021-08-13T04:05:33Z</time>
      </trkpt>
      <trkpt lat="46.78917" lon="4.21737">
        <ele>327.95</ele>
        <time>2021-08-13T04:05:34Z</time>
      </trkpt>
      <trkpt lat="46.78909" lon="4.2174">
        <ele>328.91</ele>
        <time>2021-08-13T04:05:42Z</time>
      </trkpt>
      <trkpt lat="46.78899" lon="4.21748">
        <ele>330.35</ele>
        <time>2021-08-13T04:05:50Z</time>
      </trkpt>
      <trkpt lat="46.78884" lon="4.21755">
        <ele>331.31</ele>
        <time>2021-08-13T04:05:59Z</time>
      </trkpt>
      <trkpt lat="46.78877" lon="4.21754">
        <ele>331.31</ele>
        <time>2021-08-13T04:06:04Z</time>
      </trkpt>
      <trkpt lat="46.78875" lon="4.21753">
        <ele>331.79</ele>
        <time>2021-08-13T04:06:11Z</time>
      </trkpt>
      <trkpt lat="46.78874" lon="4.21752">
        <ele>331.79</ele>
        <time>2021-08-13T04:06:24Z</time>
      </trkpt>
      <trkpt lat="46.78873" lon="4.2175">
        <ele>331.79</ele>
        <time>2021-08-13T04:06:31Z</time>
      </trkpt>
      <trkpt lat="46.78866" lon="4.21735">
        <ele>332.75</ele>
        <time>2021-08-13T04:06:38Z</time>
      </trkpt>
      <trkpt lat="46.78857" lon="4.21718">
        <ele>334.68</ele>
        <time>2021-08-13T04:06:47Z</time>
      </trkpt>
      <trkpt lat="46.78849" lon="4.21709">
        <ele>335.64</ele>
        <time>2021-08-13T04:06:54Z</time>
      </trkpt>
      <trkpt lat="46.78847" lon="4.21707">
        <ele>335.64</ele>
        <time>2021-08-13T04:07:01Z</time>
      </trkpt>
      <trkpt lat="46.78845" lon="4.21709">
        <ele>335.64</ele>
        <time>2021-08-13T04:07:23Z</time>
      </trkpt>
      <trkpt lat="46.78842" lon="4.21705">
        <ele>335.64</ele>
        <time>2021-08-13T04:07:45Z</time>
      </trkpt>
      <trkpt lat="46.78842" lon="4.21701">
        <ele>335.64</ele>
        <time>2021-08-13T04:08:06Z</time>
      </trkpt>
      <trkpt lat="46.78842" lon="4.21702">
        <ele>335.64</ele>
        <time>2021-08-13T04:08:24Z</time>
      </trkpt>
      <trkpt lat="46.78843" lon="4.21702">
        <ele>335.64</ele>
        <time>2021-08-13T04:08:45Z</time>
      </trkpt>
      <trkpt lat="46.78844" lon="4.21703">
        <ele>335.64</ele>
        <time>2021-08-13T04:09:02Z</time>
      </trkpt>
      <trkpt lat="46.78848" lon="4.21706">
        <ele>335.64</ele>
        <time>2021-08-13T04:09:27Z</time>
      </trkpt>
      <trkpt lat="46.78846" lon="4.21708">
        <ele>335.16</ele>
        <time>2021-08-13T04:09:48Z</time>
      </trkpt>
      <trkpt lat="46.78847" lon="4.21709">
        <ele>335.16</ele>
        <time>2021-08-13T04:09:59Z</time>
      </trkpt>
      <trkpt lat="46.78849" lon="4.21706">
        <ele>335.16</ele>
        <time>2021-08-13T04:10:13Z</time>
      </trkpt>
      <trkpt lat="46.78846" lon="4.21705">
        <ele>335.16</ele>
        <time>2021-08-13T04:10:27Z</time>
      </trkpt>
      <trkpt lat="46.78845" lon="4.21706">
        <ele>335.16</ele>
        <time>2021-08-13T04:10:44Z</time>
      </trkpt>
      <trkpt lat="46.78848" lon="4.21704">
        <ele>335.16</ele>
        <time>2021-08-13T04:11:05Z</time>
      </trkpt>
      <trkpt lat="46.78847" lon="4.21706">
        <ele>334.68</ele>
        <time>2021-08-13T04:11:32Z</time>
      </trkpt>
      <trkpt lat="46.78847" lon="4.21704">
        <ele>333.71</ele>
        <time>2021-08-13T04:11:49Z</time>
      </trkpt>
      <trkpt lat="46.78845" lon="4.21706">
        <ele>333.23</ele>
        <time>2021-08-13T04:12:10Z</time>
      </trkpt>
      <trkpt lat="46.7884" lon="4.21706">
        <ele>333.23</ele>
        <time>2021-08-13T04:12:34Z</time>
      </trkpt>
      <trkpt lat="46.78846" lon="4.21706">
        <ele>333.23</ele>
        <time>2021-08-13T04:12:58Z</time>
      </trkpt>
      <trkpt lat="46.78848" lon="4.21707">
        <ele>333.23</ele>
        <time>2021-08-13T04:13:16Z</time>
      </trkpt>
      <trkpt lat="46.7885" lon="4.21707">
        <ele>333.23</ele>
        <time>2021-08-13T04:13:41Z</time>
      </trkpt>
      <trkpt lat="46.78852" lon="4.21708">
        <ele>333.23</ele>
        <time>2021-08-13T04:14:01Z</time>
      </trkpt>
      <trkpt lat="46.78851" lon="4.21708">
        <ele>333.23</ele>
        <time>2021-08-13T04:14:18Z</time>
      </trkpt>
      <trkpt lat="46.78847" lon="4.21707">
        <ele>333.23</ele>
        <time>2021-08-13T04:14:40Z</time>
      </trkpt>
      <trkpt lat="46.78842" lon="4.21707">
        <ele>333.23</ele>
        <time>2021-08-13T04:14:58Z</time>
      </trkpt>
      <trkpt lat="46.78844" lon="4.21707">
        <ele>332.75</ele>
        <time>2021-08-13T04:15:14Z</time>
      </trkpt>
      <trkpt lat="46.7884" lon="4.21705">
        <ele>332.75</ele>
        <time>2021-08-13T04:15:38Z</time>
      </trkpt>
      <trkpt lat="46.78841" lon="4.21702">
        <ele>332.75</ele>
        <time>2021-08-13T04:15:56Z</time>
      </trkpt>
      <trkpt lat="46.78841" lon="4.21702">
        <ele>332.75</ele>
        <time>2021-08-13T04:16:16Z</time>
      </trkpt>
      <trkpt lat="46.78837" lon="4.21703">
        <ele>332.75</ele>
        <time>2021-08-13T04:16:36Z</time>
      </trkpt>
      <trkpt lat="46.78834" lon="4.21705">
        <ele>332.75</ele>
        <time>2021-08-13T04:16:51Z</time>
      </trkpt>
      <trkpt lat="46.78832" lon="4.21704">
        <ele>332.75</ele>
        <time>2021-08-13T04:17:10Z</time>
      </trkpt>
      <trkpt lat="46.7883" lon="4.21704">
        <ele>332.75</ele>
        <time>2021-08-13T04:17:24Z</time>
      </trkpt>
      <trkpt lat="46.78833" lon="4.21704">
        <ele>332.75</ele>
        <time>2021-08-13T04:17:33Z</time>
      </trkpt>
      <trkpt lat="46.78837" lon="4.21703">
        <ele>332.75</ele>
        <time>2021-08-13T04:17:44Z</time>
      </trkpt>
      <trkpt lat="46.78838" lon="4.21703">
        <ele>332.75</ele>
        <time>2021-08-13T04:17:59Z</time>
      </trkpt>
      <trkpt lat="46.78839" lon="4.21703">
        <ele>332.75</ele>
        <time>2021-08-13T04:18:12Z</time>
      </trkpt>
      <trkpt lat="46.78842" lon="4.21703">
        <ele>332.75</ele>
        <time>2021-08-13T04:18:22Z</time>
      </trkpt>
      <trkpt lat="46.78849" lon="4.21705">
        <ele>332.75</ele>
        <time>2021-08-13T04:18:31Z</time>
      </trkpt>
      <trkpt lat="46.78853" lon="4.21706">
        <ele>332.75</ele>
        <time>2021-08-13T04:18:42Z</time>
      </trkpt>
      <trkpt lat="46.78851" lon="4.21706">
        <ele>332.75</ele>
        <time>2021-08-13T04:18:59Z</time>
      </trkpt>
      <trkpt lat="46.78851" lon="4.21707">
        <ele>332.75</ele>
        <time>2021-08-13T04:19:07Z</time>
      </trkpt>
      <trkpt lat="46.7885" lon="4.21707">
        <ele>332.75</ele>
        <time>2021-08-13T04:19:19Z</time>
      </trkpt>
      <trkpt lat="46.78851" lon="4.21706">
        <ele>332.27</ele>
        <time>2021-08-13T04:19:30Z</time>
      </trkpt>
      <trkpt lat="46.78852" lon="4.21705">
        <ele>332.27</ele>
        <time>2021-08-13T04:19:47Z</time>
      </trkpt>
      <trkpt lat="46.7885" lon="4.21705">
        <ele>332.27</ele>
        <time>2021-08-13T04:19:56Z</time>
      </trkpt>
      <trkpt lat="46.78849" lon="4.21706">
        <ele>332.27</ele>
        <time>2021-08-13T04:20:10Z</time>
      </trkpt>
      <trkpt lat="46.78848" lon="4.21708">
        <ele>332.27</ele>
        <time>2021-08-13T04:20:25Z</time>
      </trkpt>
      <trkpt lat="46.78848" lon="4.21709">
        <ele>332.27</ele>
        <time>2021-08-13T04:20:38Z</time>
      </trkpt>
      <trkpt lat="46.78849" lon="4.21706">
        <ele>332.27</ele>
        <time>2021-08-13T04:20:48Z</time>
      </trkpt>
      <trkpt lat="46.78847" lon="4.21704">
        <ele>332.27</ele>
        <time>2021-08-13T04:20:55Z</time>
      </trkpt>
      <trkpt lat="46.78845" lon="4.217">
        <ele>332.27</ele>
        <time>2021-08-13T04:20:58Z</time>
      </trkpt>
      <trkpt lat="46.78844" lon="4.21698">
        <ele>332.27</ele>
        <time>2021-08-13T04:20:59Z</time>
      </trkpt>
      <trkpt lat="46.78843" lon="4.21697">
        <ele>332.27</ele>
        <time>2021-08-13T04:21:00Z</time>
      </trkpt>
      <trkpt lat="46.78841" lon="4.21692">
        <ele>333.23</ele>
        <time>2021-08-13T04:21:03Z</time>
      </trkpt>
      <trkpt lat="46.78834" lon="4.21683">
        <ele>334.68</ele>
        <time>2021-08-13T04:21:09Z</time>
      </trkpt>
      <trkpt lat="46.78831" lon="4.21677">
        <ele>335.16</ele>
        <time>2021-08-13T04:21:14Z</time>
      </trkpt>
      <trkpt lat="46.7883" lon="4.21675">
        <ele>335.64</ele>
        <time>2021-08-13T04:21:15Z</time>
      </trkpt>
      <trkpt lat="46.78829" lon="4.21673">
        <ele>335.64</ele>
        <time>2021-08-13T04:21:16Z</time>
      </trkpt>
      <trkpt lat="46.78829" lon="4.21671">
        <ele>335.64</ele>
        <time>2021-08-13T04:21:17Z</time>
      </trkpt>
      <trkpt lat="46.78829" lon="4.21669">
        <ele>335.64</ele>
        <time>2021-08-13T04:21:18Z</time>
      </trkpt>
      <trkpt lat="46.78828" lon="4.21667">
        <ele>336.12</ele>
        <time>2021-08-13T04:21:19Z</time>
      </trkpt>
      <trkpt lat="46.78828" lon="4.21665">
        <ele>336.12</ele>
        <time>2021-08-13T04:21:20Z</time>
      </trkpt>
      <trkpt lat="46.78828" lon="4.21663">
        <ele>336.6</ele>
        <time>2021-08-13T04:21:21Z</time>
      </trkpt>
      <trkpt lat="46.78829" lon="4.21661">
        <ele>336.6</ele>
        <time>2021-08-13T04:21:22Z</time>
      </trkpt>
      <trkpt lat="46.7883" lon="4.21659">
        <ele>336.6</ele>
        <time>2021-08-13T04:21:23Z</time>
      </trkpt>
      <trkpt lat="46.7883" lon="4.21658">
        <ele>336.6</ele>
        <time>2021-08-13T04:21:24Z</time>
      </trkpt>
      <trkpt lat="46.78831" lon="4.21656">
        <ele>337.08</ele>
        <time>2021-08-13T04:21:25Z</time>
      </trkpt>
      <trkpt lat="46.78832" lon="4.21655">
        <ele>337.08</ele>
        <time>2021-08-13T04:21:26Z</time>
      </trkpt>
      <trkpt lat="46.78832" lon="4.21654">
        <ele>337.08</ele>
        <time>2021-08-13T04:21:27Z</time>
      </trkpt>
      <trkpt lat="46.78832" lon="4.21652">
        <ele>337.08</ele>
        <time>2021-08-13T04:21:28Z</time>
      </trkpt>
      <trkpt lat="46.78832" lon="4.2165">
        <ele>337.56</ele>
        <time>2021-08-13T04:21:29Z</time>
      </trkpt>
      <trkpt lat="46.78831" lon="4.21649">
        <ele>337.56</ele>
        <time>2021-08-13T04:21:30Z</time>
      </trkpt>
      <trkpt lat="46.78832" lon="4.21648">
        <ele>337.56</ele>
        <time>2021-08-13T04:21:31Z</time>
      </trkpt>
      <trkpt lat="46.78833" lon="4.21646">
        <ele>337.56</ele>
        <time>2021-08-13T04:21:32Z</time>
      </trkpt>
      <trkpt lat="46.78833" lon="4.21641">
        <ele>338.04</ele>
        <time>2021-08-13T04:21:38Z</time>
      </trkpt>
      <trkpt lat="46.78831" lon="4.21638">
        <ele>338.04</ele>
        <time>2021-08-13T04:21:49Z</time>
      </trkpt>
      <trkpt lat="46.7883" lon="4.21636">
        <ele>338.04</ele>
        <time>2021-08-13T04:21:50Z</time>
      </trkpt>
      <trkpt lat="46.78829" lon="4.21635">
        <ele>338.04</ele>
        <time>2021-08-13T04:21:51Z</time>
      </trkpt>
      <trkpt lat="46.78828" lon="4.21634">
        <ele>338.52</ele>
        <time>2021-08-13T04:21:52Z</time>
      </trkpt>
      <trkpt lat="46.78827" lon="4.21633">
        <ele>338.52</ele>
        <time>2021-08-13T04:21:53Z</time>
      </trkpt>
      <trkpt lat="46.78819" lon="4.21622">
        <ele>339.48</ele>
        <time>2021-08-13T04:22:02Z</time>
      </trkpt>
      <trkpt lat="46.78806" lon="4.21609">
        <ele>341.89</ele>
        <time>2021-08-13T04:22:14Z</time>
      </trkpt>
      <trkpt lat="46.78799" lon="4.21601">
        <ele>342.85</ele>
        <time>2021-08-13T04:22:22Z</time>
      </trkpt>
      <trkpt lat="46.78791" lon="4.21591">
        <ele>343.81</ele>
        <time>2021-08-13T04:22:30Z</time>
      </trkpt>
      <trkpt lat="46.7879" lon="4.2159">
        <ele>343.81</ele>
        <time>2021-08-13T04:22:31Z</time>
      </trkpt>
      <trkpt lat="46.78788" lon="4.21588">
        <ele>344.29</ele>
        <time>2021-08-13T04:22:33Z</time>
      </trkpt>
      <trkpt lat="46.78778" lon="4.21578">
        <ele>345.25</ele>
        <time>2021-08-13T04:22:41Z</time>
      </trkpt>
      <trkpt lat="46.78777" lon="4.21577">
        <ele>345.25</ele>
        <time>2021-08-13T04:22:42Z</time>
      </trkpt>
      <trkpt lat="46.78776" lon="4.21576">
        <ele>345.73</ele>
        <time>2021-08-13T04:22:43Z</time>
      </trkpt>
      <trkpt lat="46.78774" lon="4.21575">
        <ele>346.21</ele>
        <time>2021-08-13T04:22:44Z</time>
      </trkpt>
      <trkpt lat="46.78773" lon="4.21573">
        <ele>346.21</ele>
        <time>2021-08-13T04:22:45Z</time>
      </trkpt>
      <trkpt lat="46.78772" lon="4.21572">
        <ele>346.21</ele>
        <time>2021-08-13T04:22:46Z</time>
      </trkpt>
      <trkpt lat="46.78768" lon="4.21567">
        <ele>347.65</ele>
        <time>2021-08-13T04:22:50Z</time>
      </trkpt>
      <trkpt lat="46.78767" lon="4.21566">
        <ele>347.65</ele>
        <time>2021-08-13T04:22:51Z</time>
      </trkpt>
      <trkpt lat="46.78759" lon="4.21558">
        <ele>349.1</ele>
        <time>2021-08-13T04:22:59Z</time>
      </trkpt>
      <trkpt lat="46.78753" lon="4.21552">
        <ele>349.58</ele>
        <time>2021-08-13T04:23:04Z</time>
      </trkpt>
      <trkpt lat="46.78751" lon="4.2155">
        <ele>350.06</ele>
        <time>2021-08-13T04:23:05Z</time>
      </trkpt>
      <trkpt lat="46.78749" lon="4.21549">
        <ele>350.06</ele>
        <time>2021-08-13T04:23:06Z</time>
      </trkpt>
      <trkpt lat="46.78747" lon="4.21547">
        <ele>350.06</ele>
        <time>2021-08-13T04:23:07Z</time>
      </trkpt>
      <trkpt lat="46.78745" lon="4.21545">
        <ele>350.54</ele>
        <time>2021-08-13T04:23:08Z</time>
      </trkpt>
      <trkpt lat="46.78742" lon="4.21543">
        <ele>351.02</ele>
        <time>2021-08-13T04:23:09Z</time>
      </trkpt>
      <trkpt lat="46.78739" lon="4.2154">
        <ele>351.02</ele>
        <time>2021-08-13T04:23:10Z</time>
      </trkpt>
      <trkpt lat="46.78737" lon="4.21538">
        <ele>351.02</ele>
        <time>2021-08-13T04:23:11Z</time>
      </trkpt>
      <trkpt lat="46.78736" lon="4.21535">
        <ele>351.02</ele>
        <time>2021-08-13T04:23:12Z</time>
      </trkpt>
      <trkpt lat="46.78734" lon="4.21532">
        <ele>351.02</ele>
        <time>2021-08-13T04:23:13Z</time>
      </trkpt>
      <trkpt lat="46.78723" lon="4.21515">
        <ele>351.5</ele>
        <time>2021-08-13T04:23:20Z</time>
      </trkpt>
      <trkpt lat="46.78705" lon="4.21493">
        <ele>351.98</ele>
        <time>2021-08-13T04:23:29Z</time>
      </trkpt>
      <trkpt lat="46.78685" lon="4.21468">
        <ele>352.94</ele>
        <time>2021-08-13T04:23:38Z</time>
      </trkpt>
      <trkpt lat="46.78668" lon="4.2145">
        <ele>353.42</ele>
        <time>2021-08-13T04:23:45Z</time>
      </trkpt>
      <trkpt lat="46.78651" lon="4.21446">
        <ele>354.86</ele>
        <time>2021-08-13T04:23:52Z</time>
      </trkpt>
      <trkpt lat="46.78631" lon="4.21446">
        <ele>356.31</ele>
        <time>2021-08-13T04:24:01Z</time>
      </trkpt>
      <trkpt lat="46.7861" lon="4.21445">
        <ele>357.27</ele>
        <time>2021-08-13T04:24:11Z</time>
      </trkpt>
      <trkpt lat="46.78602" lon="4.21444">
        <ele>358.23</ele>
        <time>2021-08-13T04:24:15Z</time>
      </trkpt>
      <trkpt lat="46.786" lon="4.21445">
        <ele>358.71</ele>
        <time>2021-08-13T04:24:16Z</time>
      </trkpt>
      <trkpt lat="46.78598" lon="4.21445">
        <ele>358.71</ele>
        <time>2021-08-13T04:24:17Z</time>
      </trkpt>
      <trkpt lat="46.78596" lon="4.21445">
        <ele>358.71</ele>
        <time>2021-08-13T04:24:18Z</time>
      </trkpt>
      <trkpt lat="46.78594" lon="4.21444">
        <ele>359.19</ele>
        <time>2021-08-13T04:24:19Z</time>
      </trkpt>
      <trkpt lat="46.78593" lon="4.21443">
        <ele>359.19</ele>
        <time>2021-08-13T04:24:20Z</time>
      </trkpt>
      <trkpt lat="46.78591" lon="4.21443">
        <ele>359.67</ele>
        <time>2021-08-13T04:24:21Z</time>
      </trkpt>
      <trkpt lat="46.78589" lon="4.21442">
        <ele>359.67</ele>
        <time>2021-08-13T04:24:22Z</time>
      </trkpt>
      <trkpt lat="46.78587" lon="4.21441">
        <ele>359.67</ele>
        <time>2021-08-13T04:24:23Z</time>
      </trkpt>
      <trkpt lat="46.78585" lon="4.21441">
        <ele>359.67</ele>
        <time>2021-08-13T04:24:24Z</time>
      </trkpt>
      <trkpt lat="46.78583" lon="4.2144">
        <ele>360.15</ele>
        <time>2021-08-13T04:24:25Z</time>
      </trkpt>
      <trkpt lat="46.78581" lon="4.21439">
        <ele>360.15</ele>
        <time>2021-08-13T04:24:26Z</time>
      </trkpt>
      <trkpt lat="46.78579" lon="4.21439">
        <ele>360.63</ele>
        <time>2021-08-13T04:24:27Z</time>
      </trkpt>
      <trkpt lat="46.78576" lon="4.21438">
        <ele>360.63</ele>
        <time>2021-08-13T04:24:28Z</time>
      </trkpt>
      <trkpt lat="46.78574" lon="4.21437">
        <ele>360.63</ele>
        <time>2021-08-13T04:24:29Z</time>
      </trkpt>
      <trkpt lat="46.78572" lon="4.21436">
        <ele>360.63</ele>
        <time>2021-08-13T04:24:30Z</time>
      </trkpt>
      <trkpt lat="46.7857" lon="4.21435">
        <ele>360.63</ele>
        <time>2021-08-13T04:24:31Z</time>
      </trkpt>
      <trkpt lat="46.78568" lon="4.21434">
        <ele>361.11</ele>
        <time>2021-08-13T04:24:32Z</time>
      </trkpt>
      <trkpt lat="46.78566" lon="4.21433">
        <ele>361.11</ele>
        <time>2021-08-13T04:24:33Z</time>
      </trkpt>
      <trkpt lat="46.78549" lon="4.21423">
        <ele>362.07</ele>
        <time>2021-08-13T04:24:41Z</time>
      </trkpt>
      <trkpt lat="46.78531" lon="4.21406">
        <ele>363.04</ele>
        <time>2021-08-13T04:24:50Z</time>
      </trkpt>
      <trkpt lat="46.78518" lon="4.21388">
        <ele>364</ele>
        <time>2021-08-13T04:24:57Z</time>
      </trkpt>
      <trkpt lat="46.78494" lon="4.21361">
        <ele>365.92</ele>
        <time>2021-08-13T04:25:10Z</time>
      </trkpt>
      <trkpt lat="46.78473" lon="4.21344">
        <ele>366.88</ele>
        <time>2021-08-13T04:25:20Z</time>
      </trkpt>
      <trkpt lat="46.78451" lon="4.21329">
        <ele>368.32</ele>
        <time>2021-08-13T04:25:30Z</time>
      </trkpt>
      <trkpt lat="46.7843" lon="4.21315">
        <ele>369.28</ele>
        <time>2021-08-13T04:25:40Z</time>
      </trkpt>
      <trkpt lat="46.78409" lon="4.213">
        <ele>370.24</ele>
        <time>2021-08-13T04:25:50Z</time>
      </trkpt>
      <trkpt lat="46.78386" lon="4.21293">
        <ele>371.69</ele>
        <time>2021-08-13T04:26:00Z</time>
      </trkpt>
      <trkpt lat="46.7836" lon="4.21295">
        <ele>373.13</ele>
        <time>2021-08-13T04:26:11Z</time>
      </trkpt>
      <trkpt lat="46.78339" lon="4.2129">
        <ele>374.09</ele>
        <time>2021-08-13T04:26:20Z</time>
      </trkpt>
      <trkpt lat="46.78325" lon="4.21266">
        <ele>375.53</ele>
        <time>2021-08-13T04:26:28Z</time>
      </trkpt>
      <trkpt lat="46.78316" lon="4.21246">
        <ele>376.49</ele>
        <time>2021-08-13T04:26:34Z</time>
      </trkpt>
      <trkpt lat="46.78304" lon="4.21218">
        <ele>377.45</ele>
        <time>2021-08-13T04:26:44Z</time>
      </trkpt>
      <trkpt lat="46.7829" lon="4.212">
        <ele>379.38</ele>
        <time>2021-08-13T04:26:53Z</time>
      </trkpt>
      <trkpt lat="46.78273" lon="4.21184">
        <ele>380.34</ele>
        <time>2021-08-13T04:27:03Z</time>
      </trkpt>
      <trkpt lat="46.78257" lon="4.21175">
        <ele>381.78</ele>
        <time>2021-08-13T04:27:11Z</time>
      </trkpt>
      <trkpt lat="46.78238" lon="4.21156">
        <ele>381.78</ele>
        <time>2021-08-13T04:27:20Z</time>
      </trkpt>
      <trkpt lat="46.78227" lon="4.21134">
        <ele>382.74</ele>
        <time>2021-08-13T04:27:27Z</time>
      </trkpt>
      <trkpt lat="46.78213" lon="4.21108">
        <ele>383.7</ele>
        <time>2021-08-13T04:27:36Z</time>
      </trkpt>
      <trkpt lat="46.78195" lon="4.21092">
        <ele>384.66</ele>
        <time>2021-08-13T04:27:45Z</time>
      </trkpt>
      <trkpt lat="46.78171" lon="4.21075">
        <ele>385.63</ele>
        <time>2021-08-13T04:27:55Z</time>
      </trkpt>
      <trkpt lat="46.78157" lon="4.21047">
        <ele>387.07</ele>
        <time>2021-08-13T04:28:04Z</time>
      </trkpt>
      <trkpt lat="46.78156" lon="4.21039">
        <ele>388.03</ele>
        <time>2021-08-13T04:28:06Z</time>
      </trkpt>
      <trkpt lat="46.78155" lon="4.21035">
        <ele>388.03</ele>
        <time>2021-08-13T04:28:07Z</time>
      </trkpt>
      <trkpt lat="46.78155" lon="4.21032">
        <ele>388.03</ele>
        <time>2021-08-13T04:28:08Z</time>
      </trkpt>
      <trkpt lat="46.78155" lon="4.21028">
        <ele>388.03</ele>
        <time>2021-08-13T04:28:09Z</time>
      </trkpt>
      <trkpt lat="46.78154" lon="4.21024">
        <ele>388.03</ele>
        <time>2021-08-13T04:28:10Z</time>
      </trkpt>
      <trkpt lat="46.78155" lon="4.20993">
        <ele>389.47</ele>
        <time>2021-08-13T04:28:18Z</time>
      </trkpt>
      <trkpt lat="46.78145" lon="4.20964">
        <ele>390.43</ele>
        <time>2021-08-13T04:28:26Z</time>
      </trkpt>
      <trkpt lat="46.78124" lon="4.20952">
        <ele>390.91</ele>
        <time>2021-08-13T04:28:34Z</time>
      </trkpt>
      <trkpt lat="46.78093" lon="4.20956">
        <ele>391.87</ele>
        <time>2021-08-13T04:28:44Z</time>
      </trkpt>
      <trkpt lat="46.78057" lon="4.20955">
        <ele>391.87</ele>
        <time>2021-08-13T04:28:53Z</time>
      </trkpt>
      <trkpt lat="46.78026" lon="4.20948">
        <ele>391.87</ele>
        <time>2021-08-13T04:29:01Z</time>
      </trkpt>
      <trkpt lat="46.78001" lon="4.20943">
        <ele>392.84</ele>
        <time>2021-08-13T04:29:08Z</time>
      </trkpt>
      <trkpt lat="46.7798" lon="4.20955">
        <ele>392.84</ele>
        <time>2021-08-13T04:29:14Z</time>
      </trkpt>
      <trkpt lat="46.77977" lon="4.20959">
        <ele>392.84</ele>
        <time>2021-08-13T04:29:15Z</time>
      </trkpt>
      <trkpt lat="46.77961" lon="4.2098">
        <ele>392.84</ele>
        <time>2021-08-13T04:29:20Z</time>
      </trkpt>
      <trkpt lat="46.77957" lon="4.20984">
        <ele>392.84</ele>
        <time>2021-08-13T04:29:21Z</time>
      </trkpt>
      <trkpt lat="46.77953" lon="4.20987">
        <ele>392.84</ele>
        <time>2021-08-13T04:29:22Z</time>
      </trkpt>
      <trkpt lat="46.77949" lon="4.20989">
        <ele>392.84</ele>
        <time>2021-08-13T04:29:23Z</time>
      </trkpt>
      <trkpt lat="46.77945" lon="4.20991">
        <ele>392.36</ele>
        <time>2021-08-13T04:29:24Z</time>
      </trkpt>
      <trkpt lat="46.7794" lon="4.20992">
        <ele>392.84</ele>
        <time>2021-08-13T04:29:25Z</time>
      </trkpt>
      <trkpt lat="46.77936" lon="4.20992">
        <ele>392.36</ele>
        <time>2021-08-13T04:29:26Z</time>
      </trkpt>
      <trkpt lat="46.77932" lon="4.20992">
        <ele>392.36</ele>
        <time>2021-08-13T04:29:27Z</time>
      </trkpt>
      <trkpt lat="46.77927" lon="4.20991">
        <ele>392.36</ele>
        <time>2021-08-13T04:29:28Z</time>
      </trkpt>
      <trkpt lat="46.77915" lon="4.20987">
        <ele>392.36</ele>
        <time>2021-08-13T04:29:31Z</time>
      </trkpt>
      <trkpt lat="46.77887" lon="4.20973">
        <ele>392.36</ele>
        <time>2021-08-13T04:29:39Z</time>
      </trkpt>
      <trkpt lat="46.7787" lon="4.2095">
        <ele>392.36</ele>
        <time>2021-08-13T04:29:46Z</time>
      </trkpt>
      <trkpt lat="46.77867" lon="4.20946">
        <ele>393.32</ele>
        <time>2021-08-13T04:29:48Z</time>
      </trkpt>
      <trkpt lat="46.77867" lon="4.20951">
        <ele>393.32</ele>
        <time>2021-08-13T04:29:50Z</time>
      </trkpt>
      <trkpt lat="46.77869" lon="4.20955">
        <ele>393.32</ele>
        <time>2021-08-13T04:29:51Z</time>
      </trkpt>
      <trkpt lat="46.77871" lon="4.20957">
        <ele>393.32</ele>
        <time>2021-08-13T04:29:52Z</time>
      </trkpt>
      <trkpt lat="46.77875" lon="4.2096">
        <ele>393.32</ele>
        <time>2021-08-13T04:29:53Z</time>
      </trkpt>
      <trkpt lat="46.77878" lon="4.20964">
        <ele>393.32</ele>
        <time>2021-08-13T04:29:54Z</time>
      </trkpt>
      <trkpt lat="46.77881" lon="4.20967">
        <ele>393.32</ele>
        <time>2021-08-13T04:29:55Z</time>
      </trkpt>
      <trkpt lat="46.77885" lon="4.2097">
        <ele>393.32</ele>
        <time>2021-08-13T04:29:56Z</time>
      </trkpt>
      <trkpt lat="46.77913" lon="4.20987">
        <ele>391.87</ele>
        <time>2021-08-13T04:30:05Z</time>
      </trkpt>
      <trkpt lat="46.77931" lon="4.20991">
        <ele>391.87</ele>
        <time>2021-08-13T04:30:12Z</time>
      </trkpt>
      <trkpt lat="46.77932" lon="4.20992">
        <ele>391.87</ele>
        <time>2021-08-13T04:30:13Z</time>
      </trkpt>
      <trkpt lat="46.77931" lon="4.20993">
        <ele>391.87</ele>
        <time>2021-08-13T04:30:14Z</time>
      </trkpt>
      <trkpt lat="46.7793" lon="4.20992">
        <ele>391.87</ele>
        <time>2021-08-13T04:30:15Z</time>
      </trkpt>
      <trkpt lat="46.77928" lon="4.20992">
        <ele>391.87</ele>
        <time>2021-08-13T04:30:16Z</time>
      </trkpt>
      <trkpt lat="46.77927" lon="4.2099">
        <ele>391.87</ele>
        <time>2021-08-13T04:30:17Z</time>
      </trkpt>
      <trkpt lat="46.77914" lon="4.20985">
        <ele>391.87</ele>
        <time>2021-08-13T04:30:22Z</time>
      </trkpt>
      <trkpt lat="46.77882" lon="4.20968">
        <ele>391.87</ele>
        <time>2021-08-13T04:30:31Z</time>
      </trkpt>
      <trkpt lat="46.77865" lon="4.2094">
        <ele>393.32</ele>
        <time>2021-08-13T04:30:39Z</time>
      </trkpt>
      <trkpt lat="46.77857" lon="4.20913">
        <ele>395.24</ele>
        <time>2021-08-13T04:30:48Z</time>
      </trkpt>
      <trkpt lat="46.77846" lon="4.20877">
        <ele>396.68</ele>
        <time>2021-08-13T04:30:59Z</time>
      </trkpt>
      <trkpt lat="46.77832" lon="4.2085">
        <ele>398.12</ele>
        <time>2021-08-13T04:31:09Z</time>
      </trkpt>
      <trkpt lat="46.77817" lon="4.20839">
        <ele>399.08</ele>
        <time>2021-08-13T04:31:16Z</time>
      </trkpt>
      <trkpt lat="46.77805" lon="4.20841">
        <ele>400.53</ele>
        <time>2021-08-13T04:31:22Z</time>
      </trkpt>
      <trkpt lat="46.77783" lon="4.20847">
        <ele>401.01</ele>
        <time>2021-08-13T04:31:31Z</time>
      </trkpt>
      <trkpt lat="46.77763" lon="4.20835">
        <ele>402.45</ele>
        <time>2021-08-13T04:31:40Z</time>
      </trkpt>
      <trkpt lat="46.77752" lon="4.20818">
        <ele>403.41</ele>
        <time>2021-08-13T04:31:47Z</time>
      </trkpt>
      <trkpt lat="46.77751" lon="4.20792">
        <ele>403.41</ele>
        <time>2021-08-13T04:31:53Z</time>
      </trkpt>
      <trkpt lat="46.77761" lon="4.20766">
        <ele>403.89</ele>
        <time>2021-08-13T04:32:01Z</time>
      </trkpt>
      <trkpt lat="46.77765" lon="4.20738">
        <ele>404.85</ele>
        <time>2021-08-13T04:32:09Z</time>
      </trkpt>
      <trkpt lat="46.77755" lon="4.20725">
        <ele>405.33</ele>
        <time>2021-08-13T04:32:15Z</time>
      </trkpt>
      <trkpt lat="46.77742" lon="4.20723">
        <ele>406.29</ele>
        <time>2021-08-13T04:32:21Z</time>
      </trkpt>
      <trkpt lat="46.77737" lon="4.20724">
        <ele>406.77</ele>
        <time>2021-08-13T04:32:24Z</time>
      </trkpt>
      <trkpt lat="46.77735" lon="4.20723">
        <ele>406.77</ele>
        <time>2021-08-13T04:32:25Z</time>
      </trkpt>
      <trkpt lat="46.77734" lon="4.20722">
        <ele>406.77</ele>
        <time>2021-08-13T04:32:26Z</time>
      </trkpt>
      <trkpt lat="46.77733" lon="4.2072">
        <ele>406.77</ele>
        <time>2021-08-13T04:32:27Z</time>
      </trkpt>
      <trkpt lat="46.77731" lon="4.20717">
        <ele>406.77</ele>
        <time>2021-08-13T04:32:28Z</time>
      </trkpt>
      <trkpt lat="46.77721" lon="4.20707">
        <ele>404.37</ele>
        <time>2021-08-13T04:32:31Z</time>
      </trkpt>
      <trkpt lat="46.77717" lon="4.20702">
        <ele>404.37</ele>
        <time>2021-08-13T04:32:32Z</time>
      </trkpt>
      <trkpt lat="46.77713" lon="4.20695">
        <ele>403.41</ele>
        <time>2021-08-13T04:32:33Z</time>
      </trkpt>
      <trkpt lat="46.77709" lon="4.20687">
        <ele>403.41</ele>
        <time>2021-08-13T04:32:34Z</time>
      </trkpt>
      <trkpt lat="46.77705" lon="4.20679">
        <ele>402.93</ele>
        <time>2021-08-13T04:32:35Z</time>
      </trkpt>
      <trkpt lat="46.77702" lon="4.20672">
        <ele>402.93</ele>
        <time>2021-08-13T04:32:36Z</time>
      </trkpt>
      <trkpt lat="46.77691" lon="4.20642">
        <ele>404.37</ele>
        <time>2021-08-13T04:32:41Z</time>
      </trkpt>
      <trkpt lat="46.77682" lon="4.20628">
        <ele>405.33</ele>
        <time>2021-08-13T04:32:47Z</time>
      </trkpt>
      <trkpt lat="46.7767" lon="4.20612">
        <ele>407.26</ele>
        <time>2021-08-13T04:32:55Z</time>
      </trkpt>
      <trkpt lat="46.77655" lon="4.20592">
        <ele>409.18</ele>
        <time>2021-08-13T04:33:04Z</time>
      </trkpt>
      <trkpt lat="46.77644" lon="4.20565">
        <ele>410.62</ele>
        <time>2021-08-13T04:33:13Z</time>
      </trkpt>
      <trkpt lat="46.77639" lon="4.20549">
        <ele>411.1</ele>
        <time>2021-08-13T04:33:19Z</time>
      </trkpt>
      <trkpt lat="46.77634" lon="4.20526">
        <ele>412.06</ele>
        <time>2021-08-13T04:33:27Z</time>
      </trkpt>
      <trkpt lat="46.77629" lon="4.20503">
        <ele>413.02</ele>
        <time>2021-08-13T04:33:35Z</time>
      </trkpt>
      <trkpt lat="46.77622" lon="4.20478">
        <ele>415.43</ele>
        <time>2021-08-13T04:33:46Z</time>
      </trkpt>
      <trkpt lat="46.77612" lon="4.20454">
        <ele>416.87</ele>
        <time>2021-08-13T04:33:57Z</time>
      </trkpt>
      <trkpt lat="46.77603" lon="4.20439">
        <ele>418.31</ele>
        <time>2021-08-13T04:34:05Z</time>
      </trkpt>
      <trkpt lat="46.77596" lon="4.20425">
        <ele>419.27</ele>
        <time>2021-08-13T04:34:12Z</time>
      </trkpt>
      <trkpt lat="46.77586" lon="4.20408">
        <ele>420.23</ele>
        <time>2021-08-13T04:34:20Z</time>
      </trkpt>
      <trkpt lat="46.7757" lon="4.20387">
        <ele>420.23</ele>
        <time>2021-08-13T04:34:28Z</time>
      </trkpt>
      <trkpt lat="46.77559" lon="4.20372">
        <ele>422.16</ele>
        <time>2021-08-13T04:34:36Z</time>
      </trkpt>
      <trkpt lat="46.7755" lon="4.20363">
        <ele>423.12</ele>
        <time>2021-08-13T04:34:41Z</time>
      </trkpt>
      <trkpt lat="46.77548" lon="4.20362">
        <ele>423.6</ele>
        <time>2021-08-13T04:34:42Z</time>
      </trkpt>
      <trkpt lat="46.77547" lon="4.2036">
        <ele>423.6</ele>
        <time>2021-08-13T04:34:43Z</time>
      </trkpt>
      <trkpt lat="46.77535" lon="4.20338">
        <ele>424.08</ele>
        <time>2021-08-13T04:34:52Z</time>
      </trkpt>
      <trkpt lat="46.7752" lon="4.20308">
        <ele>424.56</ele>
        <time>2021-08-13T04:35:02Z</time>
      </trkpt>
      <trkpt lat="46.77513" lon="4.20294">
        <ele>425.52</ele>
        <time>2021-08-13T04:35:07Z</time>
      </trkpt>
      <trkpt lat="46.77513" lon="4.20292">
        <ele>425.52</ele>
        <time>2021-08-13T04:35:08Z</time>
      </trkpt>
      <trkpt lat="46.77512" lon="4.2029">
        <ele>426</ele>
        <time>2021-08-13T04:35:09Z</time>
      </trkpt>
      <trkpt lat="46.77511" lon="4.20287">
        <ele>426</ele>
        <time>2021-08-13T04:35:10Z</time>
      </trkpt>
      <trkpt lat="46.77509" lon="4.20284">
        <ele>426</ele>
        <time>2021-08-13T04:35:11Z</time>
      </trkpt>
      <trkpt lat="46.77507" lon="4.20282">
        <ele>426</ele>
        <time>2021-08-13T04:35:12Z</time>
      </trkpt>
      <trkpt lat="46.77497" lon="4.20263">
        <ele>426.48</ele>
        <time>2021-08-13T04:35:19Z</time>
      </trkpt>
      <trkpt lat="46.77484" lon="4.20244">
        <ele>426.96</ele>
        <time>2021-08-13T04:35:27Z</time>
      </trkpt>
      <trkpt lat="46.77468" lon="4.20221">
        <ele>428.4</ele>
        <time>2021-08-13T04:35:35Z</time>
      </trkpt>
      <trkpt lat="46.77453" lon="4.20195">
        <ele>430.33</ele>
        <time>2021-08-13T04:35:45Z</time>
      </trkpt>
      <trkpt lat="46.77445" lon="4.20184">
        <ele>430.81</ele>
        <time>2021-08-13T04:35:52Z</time>
      </trkpt>
      <trkpt lat="46.77432" lon="4.20176">
        <ele>432.73</ele>
        <time>2021-08-13T04:36:00Z</time>
      </trkpt>
      <trkpt lat="46.77413" lon="4.2017">
        <ele>434.65</ele>
        <time>2021-08-13T04:36:10Z</time>
      </trkpt>
      <trkpt lat="46.77394" lon="4.20157">
        <ele>436.1</ele>
        <time>2021-08-13T04:36:19Z</time>
      </trkpt>
      <trkpt lat="46.77381" lon="4.20139">
        <ele>436.1</ele>
        <time>2021-08-13T04:36:27Z</time>
      </trkpt>
      <trkpt lat="46.77366" lon="4.20111">
        <ele>437.54</ele>
        <time>2021-08-13T04:36:35Z</time>
      </trkpt>
      <trkpt lat="46.77347" lon="4.20075">
        <ele>438.5</ele>
        <time>2021-08-13T04:36:45Z</time>
      </trkpt>
      <trkpt lat="46.7733" lon="4.20031">
        <ele>439.46</ele>
        <time>2021-08-13T04:36:56Z</time>
      </trkpt>
      <trkpt lat="46.7732" lon="4.19989">
        <ele>440.9</ele>
        <time>2021-08-13T04:37:05Z</time>
      </trkpt>
      <trkpt lat="46.77312" lon="4.19953">
        <ele>441.38</ele>
        <time>2021-08-13T04:37:13Z</time>
      </trkpt>
      <trkpt lat="46.77305" lon="4.19907">
        <ele>442.82</ele>
        <time>2021-08-13T04:37:23Z</time>
      </trkpt>
      <trkpt lat="46.77297" lon="4.1987">
        <ele>443.79</ele>
        <time>2021-08-13T04:37:31Z</time>
      </trkpt>
      <trkpt lat="46.77291" lon="4.19821">
        <ele>444.75</ele>
        <time>2021-08-13T04:37:41Z</time>
      </trkpt>
      <trkpt lat="46.77285" lon="4.19776">
        <ele>445.23</ele>
        <time>2021-08-13T04:37:50Z</time>
      </trkpt>
      <trkpt lat="46.77275" lon="4.19722">
        <ele>445.71</ele>
        <time>2021-08-13T04:38:00Z</time>
      </trkpt>
      <trkpt lat="46.77266" lon="4.1967">
        <ele>445.71</ele>
        <time>2021-08-13T04:38:09Z</time>
      </trkpt>
      <trkpt lat="46.77255" lon="4.19614">
        <ele>446.19</ele>
        <time>2021-08-13T04:38:19Z</time>
      </trkpt>
      <trkpt lat="46.77244" lon="4.19565">
        <ele>446.67</ele>
        <time>2021-08-13T04:38:28Z</time>
      </trkpt>
      <trkpt lat="46.77242" lon="4.19552">
        <ele>445.71</ele>
        <time>2021-08-13T04:38:30Z</time>
      </trkpt>
      <trkpt lat="46.77237" lon="4.19517">
        <ele>443.31</ele>
        <time>2021-08-13T04:38:34Z</time>
      </trkpt>
      <trkpt lat="46.77234" lon="4.19496">
        <ele>441.86</ele>
        <time>2021-08-13T04:38:36Z</time>
      </trkpt>
      <trkpt lat="46.77232" lon="4.19487">
        <ele>440.9</ele>
        <time>2021-08-13T04:38:37Z</time>
      </trkpt>
      <trkpt lat="46.77228" lon="4.19479">
        <ele>440.42</ele>
        <time>2021-08-13T04:38:38Z</time>
      </trkpt>
      <trkpt lat="46.77224" lon="4.19471">
        <ele>439.46</ele>
        <time>2021-08-13T04:38:39Z</time>
      </trkpt>
      <trkpt lat="46.77218" lon="4.19465">
        <ele>438.5</ele>
        <time>2021-08-13T04:38:40Z</time>
      </trkpt>
      <trkpt lat="46.7721" lon="4.19461">
        <ele>437.06</ele>
        <time>2021-08-13T04:38:41Z</time>
      </trkpt>
      <trkpt lat="46.77202" lon="4.19458">
        <ele>436.58</ele>
        <time>2021-08-13T04:38:42Z</time>
      </trkpt>
      <trkpt lat="46.77193" lon="4.19456">
        <ele>435.61</ele>
        <time>2021-08-13T04:38:43Z</time>
      </trkpt>
      <trkpt lat="46.7717" lon="4.1945">
        <ele>433.69</ele>
        <time>2021-08-13T04:38:46Z</time>
      </trkpt>
      <trkpt lat="46.77159" lon="4.19449">
        <ele>433.21</ele>
        <time>2021-08-13T04:38:48Z</time>
      </trkpt>
      <trkpt lat="46.77155" lon="4.19447">
        <ele>432.73</ele>
        <time>2021-08-13T04:38:49Z</time>
      </trkpt>
      <trkpt lat="46.77144" lon="4.19445">
        <ele>432.25</ele>
        <time>2021-08-13T04:38:52Z</time>
      </trkpt>
      <trkpt lat="46.77141" lon="4.19447">
        <ele>432.25</ele>
        <time>2021-08-13T04:38:53Z</time>
      </trkpt>
      <trkpt lat="46.77139" lon="4.19449">
        <ele>431.77</ele>
        <time>2021-08-13T04:38:54Z</time>
      </trkpt>
      <trkpt lat="46.77139" lon="4.1945">
        <ele>432.25</ele>
        <time>2021-08-13T04:38:55Z</time>
      </trkpt>
      <trkpt lat="46.77138" lon="4.19452">
        <ele>432.25</ele>
        <time>2021-08-13T04:38:56Z</time>
      </trkpt>
      <trkpt lat="46.77137" lon="4.19453">
        <ele>432.25</ele>
        <time>2021-08-13T04:38:57Z</time>
      </trkpt>
      <trkpt lat="46.77137" lon="4.19455">
        <ele>433.21</ele>
        <time>2021-08-13T04:38:58Z</time>
      </trkpt>
      <trkpt lat="46.77137" lon="4.19456">
        <ele>433.21</ele>
        <time>2021-08-13T04:38:59Z</time>
      </trkpt>
      <trkpt lat="46.77136" lon="4.19458">
        <ele>433.21</ele>
        <time>2021-08-13T04:39:00Z</time>
      </trkpt>
      <trkpt lat="46.77136" lon="4.19459">
        <ele>433.21</ele>
        <time>2021-08-13T04:39:01Z</time>
      </trkpt>
      <trkpt lat="46.77136" lon="4.19461">
        <ele>433.69</ele>
        <time>2021-08-13T04:39:02Z</time>
      </trkpt>
      <trkpt lat="46.77135" lon="4.19462">
        <ele>433.69</ele>
        <time>2021-08-13T04:39:03Z</time>
      </trkpt>
      <trkpt lat="46.77136" lon="4.19468">
        <ele>434.65</ele>
        <time>2021-08-13T04:39:09Z</time>
      </trkpt>
      <trkpt lat="46.77136" lon="4.1948">
        <ele>436.1</ele>
        <time>2021-08-13T04:39:20Z</time>
      </trkpt>
      <trkpt lat="46.77135" lon="4.19489">
        <ele>438.02</ele>
        <time>2021-08-13T04:39:28Z</time>
      </trkpt>
      <trkpt lat="46.77135" lon="4.19502">
        <ele>439.46</ele>
        <time>2021-08-13T04:39:38Z</time>
      </trkpt>
      <trkpt lat="46.77134" lon="4.19511">
        <ele>440.9</ele>
        <time>2021-08-13T04:39:46Z</time>
      </trkpt>
      <trkpt lat="46.77133" lon="4.19519">
        <ele>441.38</ele>
        <time>2021-08-13T04:39:52Z</time>
      </trkpt>
      <trkpt lat="46.77133" lon="4.19534">
        <ele>443.31</ele>
        <time>2021-08-13T04:40:01Z</time>
      </trkpt>
      <trkpt lat="46.7713" lon="4.19543">
        <ele>443.31</ele>
        <time>2021-08-13T04:40:09Z</time>
      </trkpt>
      <trkpt lat="46.77129" lon="4.19543">
        <ele>443.79</ele>
        <time>2021-08-13T04:40:15Z</time>
      </trkpt>
      <trkpt lat="46.77128" lon="4.19546">
        <ele>443.79</ele>
        <time>2021-08-13T04:40:17Z</time>
      </trkpt>
      <trkpt lat="46.7712" lon="4.19556">
        <ele>445.23</ele>
        <time>2021-08-13T04:40:25Z</time>
      </trkpt>
      <trkpt lat="46.77112" lon="4.19568">
        <ele>446.67</ele>
        <time>2021-08-13T04:40:34Z</time>
      </trkpt>
      <trkpt lat="46.77104" lon="4.19582">
        <ele>447.63</ele>
        <time>2021-08-13T04:40:44Z</time>
      </trkpt>
      <trkpt lat="46.77093" lon="4.1959">
        <ele>449.07</ele>
        <time>2021-08-13T04:40:51Z</time>
      </trkpt>
      <trkpt lat="46.77092" lon="4.19589">
        <ele>449.55</ele>
        <time>2021-08-13T04:40:52Z</time>
      </trkpt>
      <trkpt lat="46.77091" lon="4.19588">
        <ele>449.55</ele>
        <time>2021-08-13T04:40:53Z</time>
      </trkpt>
      <trkpt lat="46.77089" lon="4.19587">
        <ele>449.55</ele>
        <time>2021-08-13T04:40:54Z</time>
      </trkpt>
      <trkpt lat="46.77077" lon="4.19577">
        <ele>451</ele>
        <time>2021-08-13T04:41:03Z</time>
      </trkpt>
      <trkpt lat="46.77063" lon="4.19566">
        <ele>451.96</ele>
        <time>2021-08-13T04:41:13Z</time>
      </trkpt>
      <trkpt lat="46.77049" lon="4.19562">
        <ele>452.92</ele>
        <time>2021-08-13T04:41:22Z</time>
      </trkpt>
      <trkpt lat="46.77035" lon="4.1956">
        <ele>454.36</ele>
        <time>2021-08-13T04:41:31Z</time>
      </trkpt>
      <trkpt lat="46.77022" lon="4.19557">
        <ele>454.36</ele>
        <time>2021-08-13T04:41:37Z</time>
      </trkpt>
      <trkpt lat="46.77001" lon="4.19555">
        <ele>455.8</ele>
        <time>2021-08-13T04:41:46Z</time>
      </trkpt>
      <trkpt lat="46.76971" lon="4.19544">
        <ele>456.28</ele>
        <time>2021-08-13T04:41:58Z</time>
      </trkpt>
      <trkpt lat="46.76943" lon="4.19523">
        <ele>457.24</ele>
        <time>2021-08-13T04:42:10Z</time>
      </trkpt>
      <trkpt lat="46.76921" lon="4.19498">
        <ele>458.21</ele>
        <time>2021-08-13T04:42:21Z</time>
      </trkpt>
      <trkpt lat="46.76904" lon="4.19467">
        <ele>459.65</ele>
        <time>2021-08-13T04:42:32Z</time>
      </trkpt>
      <trkpt lat="46.76895" lon="4.19446">
        <ele>460.61</ele>
        <time>2021-08-13T04:42:40Z</time>
      </trkpt>
      <trkpt lat="46.76886" lon="4.19425">
        <ele>462.05</ele>
        <time>2021-08-13T04:42:49Z</time>
      </trkpt>
      <trkpt lat="46.76877" lon="4.19412">
        <ele>463.49</ele>
        <time>2021-08-13T04:42:58Z</time>
      </trkpt>
      <trkpt lat="46.76869" lon="4.19395">
        <ele>463.97</ele>
        <time>2021-08-13T04:43:08Z</time>
      </trkpt>
      <trkpt lat="46.76868" lon="4.19393">
        <ele>463.97</ele>
        <time>2021-08-13T04:43:09Z</time>
      </trkpt>
      <trkpt lat="46.76867" lon="4.19391">
        <ele>464.93</ele>
        <time>2021-08-13T04:43:10Z</time>
      </trkpt>
      <trkpt lat="46.76866" lon="4.1939">
        <ele>464.93</ele>
        <time>2021-08-13T04:43:11Z</time>
      </trkpt>
      <trkpt lat="46.76866" lon="4.19388">
        <ele>464.93</ele>
        <time>2021-08-13T04:43:12Z</time>
      </trkpt>
      <trkpt lat="46.76865" lon="4.19387">
        <ele>464.93</ele>
        <time>2021-08-13T04:43:13Z</time>
      </trkpt>
      <trkpt lat="46.76864" lon="4.19386">
        <ele>465.42</ele>
        <time>2021-08-13T04:43:20Z</time>
      </trkpt>
      <trkpt lat="46.76861" lon="4.19382">
        <ele>465.42</ele>
        <time>2021-08-13T04:43:27Z</time>
      </trkpt>
      <trkpt lat="46.76852" lon="4.19367">
        <ele>467.34</ele>
        <time>2021-08-13T04:43:36Z</time>
      </trkpt>
      <trkpt lat="46.76842" lon="4.1935">
        <ele>468.78</ele>
        <time>2021-08-13T04:43:46Z</time>
      </trkpt>
      <trkpt lat="46.76834" lon="4.19336">
        <ele>469.74</ele>
        <time>2021-08-13T04:43:54Z</time>
      </trkpt>
      <trkpt lat="46.76822" lon="4.19316">
        <ele>471.18</ele>
        <time>2021-08-13T04:44:03Z</time>
      </trkpt>
      <trkpt lat="46.76806" lon="4.19281">
        <ele>472.14</ele>
        <time>2021-08-13T04:44:15Z</time>
      </trkpt>
      <trkpt lat="46.76789" lon="4.19243">
        <ele>472.63</ele>
        <time>2021-08-13T04:44:27Z</time>
      </trkpt>
      <trkpt lat="46.76772" lon="4.19218">
        <ele>473.59</ele>
        <time>2021-08-13T04:44:36Z</time>
      </trkpt>
      <trkpt lat="46.76754" lon="4.19202">
        <ele>474.07</ele>
        <time>2021-08-13T04:44:44Z</time>
      </trkpt>
      <trkpt lat="46.7674" lon="4.19194">
        <ele>475.51</ele>
        <time>2021-08-13T04:44:52Z</time>
      </trkpt>
      <trkpt lat="46.76738" lon="4.19193">
        <ele>475.51</ele>
        <time>2021-08-13T04:44:53Z</time>
      </trkpt>
      <trkpt lat="46.76723" lon="4.19187">
        <ele>476.95</ele>
        <time>2021-08-13T04:45:01Z</time>
      </trkpt>
      <trkpt lat="46.76716" lon="4.19184">
        <ele>477.43</ele>
        <time>2021-08-13T04:45:08Z</time>
      </trkpt>
      <trkpt lat="46.76713" lon="4.19179">
        <ele>477.91</ele>
        <time>2021-08-13T04:45:24Z</time>
      </trkpt>
      <trkpt lat="46.76713" lon="4.1918">
        <ele>477.91</ele>
        <time>2021-08-13T04:45:41Z</time>
      </trkpt>
      <trkpt lat="46.76713" lon="4.1918">
        <ele>477.91</ele>
        <time>2021-08-13T04:46:03Z</time>
      </trkpt>
      <trkpt lat="46.76712" lon="4.19179">
        <ele>477.43</ele>
        <time>2021-08-13T04:46:24Z</time>
      </trkpt>
      <trkpt lat="46.76711" lon="4.19178">
        <ele>477.43</ele>
        <time>2021-08-13T04:46:44Z</time>
      </trkpt>
      <trkpt lat="46.76711" lon="4.19177">
        <ele>477.43</ele>
        <time>2021-08-13T04:46:59Z</time>
      </trkpt>
      <trkpt lat="46.76711" lon="4.19178">
        <ele>477.43</ele>
        <time>2021-08-13T04:47:15Z</time>
      </trkpt>
      <trkpt lat="46.76713" lon="4.1918">
        <ele>477.91</ele>
        <time>2021-08-13T04:47:32Z</time>
      </trkpt>
      <trkpt lat="46.76713" lon="4.19181">
        <ele>477.91</ele>
        <time>2021-08-13T04:47:42Z</time>
      </trkpt>
      <trkpt lat="46.76711" lon="4.19181">
        <ele>477.91</ele>
        <time>2021-08-13T04:47:44Z</time>
      </trkpt>
      <trkpt lat="46.76697" lon="4.1917">
        <ele>477.91</ele>
        <time>2021-08-13T04:47:53Z</time>
      </trkpt>
      <trkpt lat="46.76676" lon="4.19154">
        <ele>478.39</ele>
        <time>2021-08-13T04:48:01Z</time>
      </trkpt>
      <trkpt lat="46.76647" lon="4.19127">
        <ele>478.39</ele>
        <time>2021-08-13T04:48:11Z</time>
      </trkpt>
      <trkpt lat="46.76622" lon="4.19101">
        <ele>476.95</ele>
        <time>2021-08-13T04:48:19Z</time>
      </trkpt>
      <trkpt lat="46.76588" lon="4.19066">
        <ele>476.47</ele>
        <time>2021-08-13T04:48:29Z</time>
      </trkpt>
      <trkpt lat="46.76566" lon="4.19051">
        <ele>477.91</ele>
        <time>2021-08-13T04:48:37Z</time>
      </trkpt>
      <trkpt lat="46.76553" lon="4.19031">
        <ele>478.87</ele>
        <time>2021-08-13T04:48:44Z</time>
      </trkpt>
      <trkpt lat="46.7654" lon="4.18999">
        <ele>479.84</ele>
        <time>2021-08-13T04:48:53Z</time>
      </trkpt>
      <trkpt lat="46.76529" lon="4.18967">
        <ele>481.28</ele>
        <time>2021-08-13T04:49:02Z</time>
      </trkpt>
      <trkpt lat="46.76521" lon="4.18942">
        <ele>482.72</ele>
        <time>2021-08-13T04:49:11Z</time>
      </trkpt>
      <trkpt lat="46.76511" lon="4.18926">
        <ele>484.64</ele>
        <time>2021-08-13T04:49:19Z</time>
      </trkpt>
      <trkpt lat="46.765" lon="4.18909">
        <ele>486.08</ele>
        <time>2021-08-13T04:49:27Z</time>
      </trkpt>
      <trkpt lat="46.76486" lon="4.1889">
        <ele>488.01</ele>
        <time>2021-08-13T04:49:36Z</time>
      </trkpt>
      <trkpt lat="46.76471" lon="4.18866">
        <ele>487.53</ele>
        <time>2021-08-13T04:49:43Z</time>
      </trkpt>
      <trkpt lat="46.76446" lon="4.18821">
        <ele>487.53</ele>
        <time>2021-08-13T04:49:53Z</time>
      </trkpt>
      <trkpt lat="46.76443" lon="4.18815">
        <ele>487.53</ele>
        <time>2021-08-13T04:49:54Z</time>
      </trkpt>
      <trkpt lat="46.76441" lon="4.1881">
        <ele>487.53</ele>
        <time>2021-08-13T04:49:55Z</time>
      </trkpt>
      <trkpt lat="46.76434" lon="4.18789">
        <ele>487.53</ele>
        <time>2021-08-13T04:49:59Z</time>
      </trkpt>
      <trkpt lat="46.76431" lon="4.18747">
        <ele>487.53</ele>
        <time>2021-08-13T04:50:07Z</time>
      </trkpt>
      <trkpt lat="46.76432" lon="4.18712">
        <ele>489.45</ele>
        <time>2021-08-13T04:50:16Z</time>
      </trkpt>
      <trkpt lat="46.76436" lon="4.18693">
        <ele>490.41</ele>
        <time>2021-08-13T04:50:23Z</time>
      </trkpt>
      <trkpt lat="46.76442" lon="4.1867">
        <ele>491.85</ele>
        <time>2021-08-13T04:50:32Z</time>
      </trkpt>
      <trkpt lat="46.76447" lon="4.18645">
        <ele>494.26</ele>
        <time>2021-08-13T04:50:42Z</time>
      </trkpt>
      <trkpt lat="46.76446" lon="4.18627">
        <ele>495.7</ele>
        <time>2021-08-13T04:50:50Z</time>
      </trkpt>
      <trkpt lat="46.76443" lon="4.18612">
        <ele>497.62</ele>
        <time>2021-08-13T04:50:58Z</time>
      </trkpt>
      <trkpt lat="46.76438" lon="4.18593">
        <ele>499.54</ele>
        <time>2021-08-13T04:51:07Z</time>
      </trkpt>
      <trkpt lat="46.76433" lon="4.18578">
        <ele>500.98</ele>
        <time>2021-08-13T04:51:16Z</time>
      </trkpt>
      <trkpt lat="46.76426" lon="4.18565">
        <ele>502.43</ele>
        <time>2021-08-13T04:51:25Z</time>
      </trkpt>
      <trkpt lat="46.76425" lon="4.18563">
        <ele>502.43</ele>
        <time>2021-08-13T04:51:26Z</time>
      </trkpt>
      <trkpt lat="46.76416" lon="4.18554">
        <ele>503.87</ele>
        <time>2021-08-13T04:51:35Z</time>
      </trkpt>
      <trkpt lat="46.76409" lon="4.18546">
        <ele>505.31</ele>
        <time>2021-08-13T04:51:42Z</time>
      </trkpt>
      <trkpt lat="46.76408" lon="4.18544">
        <ele>505.31</ele>
        <time>2021-08-13T04:51:43Z</time>
      </trkpt>
      <trkpt lat="46.76407" lon="4.18543">
        <ele>505.31</ele>
        <time>2021-08-13T04:51:44Z</time>
      </trkpt>
      <trkpt lat="46.76406" lon="4.18543">
        <ele>505.79</ele>
        <time>2021-08-13T04:51:45Z</time>
      </trkpt>
      <trkpt lat="46.76404" lon="4.18543">
        <ele>505.79</ele>
        <time>2021-08-13T04:51:46Z</time>
      </trkpt>
      <trkpt lat="46.76403" lon="4.18543">
        <ele>505.79</ele>
        <time>2021-08-13T04:51:47Z</time>
      </trkpt>
      <trkpt lat="46.76402" lon="4.18543">
        <ele>505.79</ele>
        <time>2021-08-13T04:51:48Z</time>
      </trkpt>
      <trkpt lat="46.764" lon="4.18542">
        <ele>506.27</ele>
        <time>2021-08-13T04:51:49Z</time>
      </trkpt>
      <trkpt lat="46.76399" lon="4.1854">
        <ele>506.27</ele>
        <time>2021-08-13T04:51:50Z</time>
      </trkpt>
      <trkpt lat="46.76386" lon="4.18528">
        <ele>507.71</ele>
        <time>2021-08-13T04:51:59Z</time>
      </trkpt>
      <trkpt lat="46.7637" lon="4.18514">
        <ele>509.64</ele>
        <time>2021-08-13T04:52:11Z</time>
      </trkpt>
      <trkpt lat="46.7636" lon="4.185">
        <ele>511.56</ele>
        <time>2021-08-13T04:52:20Z</time>
      </trkpt>
      <trkpt lat="46.76348" lon="4.18484">
        <ele>513.48</ele>
        <time>2021-08-13T04:52:30Z</time>
      </trkpt>
      <trkpt lat="46.76338" lon="4.18464">
        <ele>515.4</ele>
        <time>2021-08-13T04:52:41Z</time>
      </trkpt>
      <trkpt lat="46.76337" lon="4.18462">
        <ele>515.88</ele>
        <time>2021-08-13T04:52:42Z</time>
      </trkpt>
      <trkpt lat="46.76336" lon="4.1846">
        <ele>515.88</ele>
        <time>2021-08-13T04:52:43Z</time>
      </trkpt>
      <trkpt lat="46.76335" lon="4.18458">
        <ele>515.88</ele>
        <time>2021-08-13T04:52:44Z</time>
      </trkpt>
      <trkpt lat="46.76335" lon="4.18456">
        <ele>515.88</ele>
        <time>2021-08-13T04:52:45Z</time>
      </trkpt>
      <trkpt lat="46.76334" lon="4.18454">
        <ele>516.37</ele>
        <time>2021-08-13T04:52:46Z</time>
      </trkpt>
      <trkpt lat="46.76329" lon="4.18432">
        <ele>516.85</ele>
        <time>2021-08-13T04:52:54Z</time>
      </trkpt>
      <trkpt lat="46.76326" lon="4.18403">
        <ele>517.81</ele>
        <time>2021-08-13T04:53:03Z</time>
      </trkpt>
      <trkpt lat="46.76322" lon="4.18372">
        <ele>518.77</ele>
        <time>2021-08-13T04:53:13Z</time>
      </trkpt>
      <trkpt lat="46.7632" lon="4.18347">
        <ele>520.21</ele>
        <time>2021-08-13T04:53:21Z</time>
      </trkpt>
      <trkpt lat="46.76324" lon="4.18319">
        <ele>521.65</ele>
        <time>2021-08-13T04:53:30Z</time>
      </trkpt>
      <trkpt lat="46.7633" lon="4.18294">
        <ele>523.09</ele>
        <time>2021-08-13T04:53:39Z</time>
      </trkpt>
      <trkpt lat="46.7634" lon="4.18269">
        <ele>525.02</ele>
        <time>2021-08-13T04:53:48Z</time>
      </trkpt>
      <trkpt lat="46.76354" lon="4.18242">
        <ele>525.02</ele>
        <time>2021-08-13T04:53:57Z</time>
      </trkpt>
      <trkpt lat="46.76372" lon="4.18215">
        <ele>525.98</ele>
        <time>2021-08-13T04:54:06Z</time>
      </trkpt>
      <trkpt lat="46.76373" lon="4.18199">
        <ele>525.98</ele>
        <time>2021-08-13T04:54:10Z</time>
      </trkpt>
      <trkpt lat="46.76372" lon="4.182">
        <ele>525.98</ele>
        <time>2021-08-13T04:54:11Z</time>
      </trkpt>
      <trkpt lat="46.7637" lon="4.18201">
        <ele>525.98</ele>
        <time>2021-08-13T04:54:12Z</time>
      </trkpt>
      <trkpt lat="46.76369" lon="4.18202">
        <ele>525.98</ele>
        <time>2021-08-13T04:54:13Z</time>
      </trkpt>
      <trkpt lat="46.76367" lon="4.18203">
        <ele>525.98</ele>
        <time>2021-08-13T04:54:14Z</time>
      </trkpt>
      <trkpt lat="46.76365" lon="4.18204">
        <ele>525.98</ele>
        <time>2021-08-13T04:54:15Z</time>
      </trkpt>
      <trkpt lat="46.76361" lon="4.18207">
        <ele>525.98</ele>
        <time>2021-08-13T04:54:21Z</time>
      </trkpt>
      <trkpt lat="46.76361" lon="4.18208">
        <ele>525.98</ele>
        <time>2021-08-13T04:54:34Z</time>
      </trkpt>
      <trkpt lat="46.7636" lon="4.1821">
        <ele>525.98</ele>
        <time>2021-08-13T04:54:41Z</time>
      </trkpt>
      <trkpt lat="46.76361" lon="4.18209">
        <ele>525.98</ele>
        <time>2021-08-13T04:54:45Z</time>
      </trkpt>
      <trkpt lat="46.76362" lon="4.18207">
        <ele>525.98</ele>
        <time>2021-08-13T04:54:47Z</time>
      </trkpt>
      <trkpt lat="46.76362" lon="4.18204">
        <ele>525.98</ele>
        <time>2021-08-13T04:54:48Z</time>
      </trkpt>
      <trkpt lat="46.76362" lon="4.18201">
        <ele>525.98</ele>
        <time>2021-08-13T04:54:50Z</time>
      </trkpt>
      <trkpt lat="46.76362" lon="4.18199">
        <ele>525.98</ele>
        <time>2021-08-13T04:54:51Z</time>
      </trkpt>
      <trkpt lat="46.76362" lon="4.18197">
        <ele>525.98</ele>
        <time>2021-08-13T04:54:52Z</time>
      </trkpt>
      <trkpt lat="46.76361" lon="4.18194">
        <ele>525.98</ele>
        <time>2021-08-13T04:54:53Z</time>
      </trkpt>
      <trkpt lat="46.7636" lon="4.1819">
        <ele>525.98</ele>
        <time>2021-08-13T04:54:54Z</time>
      </trkpt>
      <trkpt lat="46.7636" lon="4.18185">
        <ele>525.98</ele>
        <time>2021-08-13T04:54:55Z</time>
      </trkpt>
      <trkpt lat="46.76354" lon="4.18159">
        <ele>524.54</ele>
        <time>2021-08-13T04:55:00Z</time>
      </trkpt>
      <trkpt lat="46.76352" lon="4.18154">
        <ele>524.54</ele>
        <time>2021-08-13T04:55:01Z</time>
      </trkpt>
      <trkpt lat="46.76347" lon="4.18144">
        <ele>523.58</ele>
        <time>2021-08-13T04:55:03Z</time>
      </trkpt>
      <trkpt lat="46.76344" lon="4.18138">
        <ele>523.58</ele>
        <time>2021-08-13T04:55:04Z</time>
      </trkpt>
      <trkpt lat="46.76342" lon="4.18133">
        <ele>523.58</ele>
        <time>2021-08-13T04:55:05Z</time>
      </trkpt>
      <trkpt lat="46.7634" lon="4.18128">
        <ele>523.58</ele>
        <time>2021-08-13T04:55:06Z</time>
      </trkpt>
      <trkpt lat="46.76339" lon="4.18123">
        <ele>523.58</ele>
        <time>2021-08-13T04:55:07Z</time>
      </trkpt>
      <trkpt lat="46.76338" lon="4.18117">
        <ele>523.58</ele>
        <time>2021-08-13T04:55:08Z</time>
      </trkpt>
      <trkpt lat="46.76334" lon="4.18091">
        <ele>523.09</ele>
        <time>2021-08-13T04:55:12Z</time>
      </trkpt>
      <trkpt lat="46.76334" lon="4.18083">
        <ele>523.58</ele>
        <time>2021-08-13T04:55:13Z</time>
      </trkpt>
      <trkpt lat="46.76334" lon="4.18076">
        <ele>522.61</ele>
        <time>2021-08-13T04:55:14Z</time>
      </trkpt>
      <trkpt lat="46.76336" lon="4.18042">
        <ele>521.65</ele>
        <time>2021-08-13T04:55:18Z</time>
      </trkpt>
      <trkpt lat="46.76338" lon="4.17973">
        <ele>520.69</ele>
        <time>2021-08-13T04:55:26Z</time>
      </trkpt>
      <trkpt lat="46.76339" lon="4.17965">
        <ele>520.69</ele>
        <time>2021-08-13T04:55:27Z</time>
      </trkpt>
      <trkpt lat="46.76342" lon="4.17958">
        <ele>520.21</ele>
        <time>2021-08-13T04:55:28Z</time>
      </trkpt>
      <trkpt lat="46.76345" lon="4.17952">
        <ele>520.21</ele>
        <time>2021-08-13T04:55:29Z</time>
      </trkpt>
      <trkpt lat="46.76349" lon="4.17947">
        <ele>520.21</ele>
        <time>2021-08-13T04:55:30Z</time>
      </trkpt>
      <trkpt lat="46.76354" lon="4.17943">
        <ele>520.21</ele>
        <time>2021-08-13T04:55:31Z</time>
      </trkpt>
      <trkpt lat="46.76358" lon="4.1794">
        <ele>520.21</ele>
        <time>2021-08-13T04:55:32Z</time>
      </trkpt>
      <trkpt lat="46.76363" lon="4.17938">
        <ele>520.21</ele>
        <time>2021-08-13T04:55:33Z</time>
      </trkpt>
      <trkpt lat="46.76396" lon="4.17922">
        <ele>517.81</ele>
        <time>2021-08-13T04:55:39Z</time>
      </trkpt>
      <trkpt lat="46.76401" lon="4.17916">
        <ele>517.81</ele>
        <time>2021-08-13T04:55:40Z</time>
      </trkpt>
      <trkpt lat="46.76405" lon="4.17907">
        <ele>516.85</ele>
        <time>2021-08-13T04:55:41Z</time>
      </trkpt>
      <trkpt lat="46.76409" lon="4.17898">
        <ele>515.88</ele>
        <time>2021-08-13T04:55:42Z</time>
      </trkpt>
      <trkpt lat="46.76412" lon="4.17888">
        <ele>514.92</ele>
        <time>2021-08-13T04:55:43Z</time>
      </trkpt>
      <trkpt lat="46.76414" lon="4.17878">
        <ele>513.96</ele>
        <time>2021-08-13T04:55:44Z</time>
      </trkpt>
      <trkpt lat="46.76415" lon="4.17868">
        <ele>513</ele>
        <time>2021-08-13T04:55:45Z</time>
      </trkpt>
      <trkpt lat="46.76415" lon="4.17859">
        <ele>511.56</ele>
        <time>2021-08-13T04:55:46Z</time>
      </trkpt>
      <trkpt lat="46.76412" lon="4.17852">
        <ele>511.08</ele>
        <time>2021-08-13T04:55:47Z</time>
      </trkpt>
      <trkpt lat="46.76409" lon="4.17847">
        <ele>510.6</ele>
        <time>2021-08-13T04:55:48Z</time>
      </trkpt>
      <trkpt lat="46.76405" lon="4.17842">
        <ele>510.12</ele>
        <time>2021-08-13T04:55:49Z</time>
      </trkpt>
      <trkpt lat="46.76401" lon="4.17838">
        <ele>508.67</ele>
        <time>2021-08-13T04:55:50Z</time>
      </trkpt>
      <trkpt lat="46.7638" lon="4.1782">
        <ele>505.31</ele>
        <time>2021-08-13T04:55:54Z</time>
      </trkpt>
      <trkpt lat="46.76366" lon="4.17807">
        <ele>503.39</ele>
        <time>2021-08-13T04:55:56Z</time>
      </trkpt>
      <trkpt lat="46.76359" lon="4.17798">
        <ele>501.95</ele>
        <time>2021-08-13T04:55:57Z</time>
      </trkpt>
      <trkpt lat="46.76353" lon="4.17787">
        <ele>500.02</ele>
        <time>2021-08-13T04:55:58Z</time>
      </trkpt>
      <trkpt lat="46.76349" lon="4.17776">
        <ele>497.62</ele>
        <time>2021-08-13T04:55:59Z</time>
      </trkpt>
      <trkpt lat="46.76345" lon="4.17763">
        <ele>495.7</ele>
        <time>2021-08-13T04:56:00Z</time>
      </trkpt>
      <trkpt lat="46.76341" lon="4.17751">
        <ele>494.26</ele>
        <time>2021-08-13T04:56:01Z</time>
      </trkpt>
      <trkpt lat="46.76335" lon="4.17724">
        <ele>491.37</ele>
        <time>2021-08-13T04:56:03Z</time>
      </trkpt>
      <trkpt lat="46.76329" lon="4.17712">
        <ele>490.41</ele>
        <time>2021-08-13T04:56:04Z</time>
      </trkpt>
      <trkpt lat="46.76322" lon="4.17702">
        <ele>489.45</ele>
        <time>2021-08-13T04:56:05Z</time>
      </trkpt>
      <trkpt lat="46.76314" lon="4.17694">
        <ele>488.97</ele>
        <time>2021-08-13T04:56:06Z</time>
      </trkpt>
      <trkpt lat="46.76305" lon="4.17686">
        <ele>488.49</ele>
        <time>2021-08-13T04:56:07Z</time>
      </trkpt>
      <trkpt lat="46.76287" lon="4.17671">
        <ele>488.49</ele>
        <time>2021-08-13T04:56:09Z</time>
      </trkpt>
      <trkpt lat="46.76279" lon="4.17668">
        <ele>488.49</ele>
        <time>2021-08-13T04:56:10Z</time>
      </trkpt>
      <trkpt lat="46.76269" lon="4.17666">
        <ele>487.05</ele>
        <time>2021-08-13T04:56:11Z</time>
      </trkpt>
      <trkpt lat="46.76259" lon="4.17667">
        <ele>486.08</ele>
        <time>2021-08-13T04:56:12Z</time>
      </trkpt>
      <trkpt lat="46.7625" lon="4.1767">
        <ele>485.6</ele>
        <time>2021-08-13T04:56:13Z</time>
      </trkpt>
      <trkpt lat="46.76242" lon="4.17672">
        <ele>485.6</ele>
        <time>2021-08-13T04:56:14Z</time>
      </trkpt>
      <trkpt lat="46.76227" lon="4.17676">
        <ele>484.64</ele>
        <time>2021-08-13T04:56:16Z</time>
      </trkpt>
      <trkpt lat="46.76218" lon="4.1768">
        <ele>482.72</ele>
        <time>2021-08-13T04:56:17Z</time>
      </trkpt>
      <trkpt lat="46.76209" lon="4.17686">
        <ele>480.8</ele>
        <time>2021-08-13T04:56:18Z</time>
      </trkpt>
      <trkpt lat="46.76189" lon="4.177">
        <ele>476.47</ele>
        <time>2021-08-13T04:56:20Z</time>
      </trkpt>
      <trkpt lat="46.76169" lon="4.17715">
        <ele>472.14</ele>
        <time>2021-08-13T04:56:22Z</time>
      </trkpt>
      <trkpt lat="46.76149" lon="4.17728">
        <ele>469.26</ele>
        <time>2021-08-13T04:56:24Z</time>
      </trkpt>
      <trkpt lat="46.76132" lon="4.17738">
        <ele>466.38</ele>
        <time>2021-08-13T04:56:26Z</time>
      </trkpt>
      <trkpt lat="46.76122" lon="4.17738">
        <ele>463.97</ele>
        <time>2021-08-13T04:56:27Z</time>
      </trkpt>
      <trkpt lat="46.76112" lon="4.17734">
        <ele>461.57</ele>
        <time>2021-08-13T04:56:28Z</time>
      </trkpt>
      <trkpt lat="46.76088" lon="4.17723">
        <ele>456.76</ele>
        <time>2021-08-13T04:56:30Z</time>
      </trkpt>
      <trkpt lat="46.7605" lon="4.17706">
        <ele>454.36</ele>
        <time>2021-08-13T04:56:34Z</time>
      </trkpt>
      <trkpt lat="46.76045" lon="4.17701">
        <ele>454.36</ele>
        <time>2021-08-13T04:56:35Z</time>
      </trkpt>
      <trkpt lat="46.76042" lon="4.17695">
        <ele>453.88</ele>
        <time>2021-08-13T04:56:36Z</time>
      </trkpt>
      <trkpt lat="46.7604" lon="4.17687">
        <ele>453.88</ele>
        <time>2021-08-13T04:56:37Z</time>
      </trkpt>
      <trkpt lat="46.7604" lon="4.17679">
        <ele>453.88</ele>
        <time>2021-08-13T04:56:38Z</time>
      </trkpt>
      <trkpt lat="46.7604" lon="4.17671">
        <ele>453.4</ele>
        <time>2021-08-13T04:56:39Z</time>
      </trkpt>
      <trkpt lat="46.76038" lon="4.17636">
        <ele>453.4</ele>
        <time>2021-08-13T04:56:43Z</time>
      </trkpt>
      <trkpt lat="46.76036" lon="4.17627">
        <ele>452.44</ele>
        <time>2021-08-13T04:56:44Z</time>
      </trkpt>
      <trkpt lat="46.76032" lon="4.1761">
        <ele>451.48</ele>
        <time>2021-08-13T04:56:46Z</time>
      </trkpt>
      <trkpt lat="46.76028" lon="4.17602">
        <ele>450.03</ele>
        <time>2021-08-13T04:56:47Z</time>
      </trkpt>
      <trkpt lat="46.76022" lon="4.17595">
        <ele>449.07</ele>
        <time>2021-08-13T04:56:48Z</time>
      </trkpt>
      <trkpt lat="46.76016" lon="4.17591">
        <ele>448.59</ele>
        <time>2021-08-13T04:56:49Z</time>
      </trkpt>
      <trkpt lat="46.76008" lon="4.1759">
        <ele>447.63</ele>
        <time>2021-08-13T04:56:50Z</time>
      </trkpt>
      <trkpt lat="46.76001" lon="4.1759">
        <ele>447.63</ele>
        <time>2021-08-13T04:56:51Z</time>
      </trkpt>
      <trkpt lat="46.75994" lon="4.17591">
        <ele>448.11</ele>
        <time>2021-08-13T04:56:52Z</time>
      </trkpt>
      <trkpt lat="46.75971" lon="4.17592">
        <ele>450.52</ele>
        <time>2021-08-13T04:56:57Z</time>
      </trkpt>
      <trkpt lat="46.75953" lon="4.1758">
        <ele>451</ele>
        <time>2021-08-13T04:57:04Z</time>
      </trkpt>
      <trkpt lat="46.75933" lon="4.17566">
        <ele>448.59</ele>
        <time>2021-08-13T04:57:10Z</time>
      </trkpt>
      <trkpt lat="46.75929" lon="4.17566">
        <ele>448.59</ele>
        <time>2021-08-13T04:57:11Z</time>
      </trkpt>
      <trkpt lat="46.75925" lon="4.17567">
        <ele>448.59</ele>
        <time>2021-08-13T04:57:12Z</time>
      </trkpt>
      <trkpt lat="46.75911" lon="4.17574">
        <ele>447.63</ele>
        <time>2021-08-13T04:57:15Z</time>
      </trkpt>
      <trkpt lat="46.75875" lon="4.17594">
        <ele>445.23</ele>
        <time>2021-08-13T04:57:22Z</time>
      </trkpt>
      <trkpt lat="46.75861" lon="4.17598">
        <ele>444.27</ele>
        <time>2021-08-13T04:57:24Z</time>
      </trkpt>
      <trkpt lat="46.75842" lon="4.17599">
        <ele>440.9</ele>
        <time>2021-08-13T04:57:27Z</time>
      </trkpt>
      <trkpt lat="46.75818" lon="4.17598">
        <ele>437.54</ele>
        <time>2021-08-13T04:57:31Z</time>
      </trkpt>
      <trkpt lat="46.75788" lon="4.17602">
        <ele>433.21</ele>
        <time>2021-08-13T04:57:35Z</time>
      </trkpt>
      <trkpt lat="46.75766" lon="4.17612">
        <ele>431.77</ele>
        <time>2021-08-13T04:57:38Z</time>
      </trkpt>
      <trkpt lat="46.75716" lon="4.17639">
        <ele>428.89</ele>
        <time>2021-08-13T04:57:45Z</time>
      </trkpt>
      <trkpt lat="46.75693" lon="4.17646">
        <ele>428.4</ele>
        <time>2021-08-13T04:57:49Z</time>
      </trkpt>
      <trkpt lat="46.75669" lon="4.17648">
        <ele>426.48</ele>
        <time>2021-08-13T04:57:53Z</time>
      </trkpt>
      <trkpt lat="46.75665" lon="4.17647">
        <ele>426.96</ele>
        <time>2021-08-13T04:57:54Z</time>
      </trkpt>
      <trkpt lat="46.75661" lon="4.17642">
        <ele>426.96</ele>
        <time>2021-08-13T04:57:55Z</time>
      </trkpt>
      <trkpt lat="46.75659" lon="4.17635">
        <ele>426.96</ele>
        <time>2021-08-13T04:57:56Z</time>
      </trkpt>
      <trkpt lat="46.75659" lon="4.17628">
        <ele>426.96</ele>
        <time>2021-08-13T04:57:57Z</time>
      </trkpt>
      <trkpt lat="46.75658" lon="4.17601">
        <ele>426</ele>
        <time>2021-08-13T04:58:01Z</time>
      </trkpt>
      <trkpt lat="46.75661" lon="4.17541">
        <ele>425.52</ele>
        <time>2021-08-13T04:58:09Z</time>
      </trkpt>
      <trkpt lat="46.75664" lon="4.17517">
        <ele>424.56</ele>
        <time>2021-08-13T04:58:12Z</time>
      </trkpt>
      <trkpt lat="46.7567" lon="4.17488">
        <ele>423.12</ele>
        <time>2021-08-13T04:58:16Z</time>
      </trkpt>
      <trkpt lat="46.75674" lon="4.17476">
        <ele>422.64</ele>
        <time>2021-08-13T04:58:18Z</time>
      </trkpt>
      <trkpt lat="46.75695" lon="4.17432">
        <ele>421.68</ele>
        <time>2021-08-13T04:58:26Z</time>
      </trkpt>
      <trkpt lat="46.75715" lon="4.17402">
        <ele>423.6</ele>
        <time>2021-08-13T04:58:34Z</time>
      </trkpt>
      <trkpt lat="46.75738" lon="4.17376">
        <ele>424.56</ele>
        <time>2021-08-13T04:58:43Z</time>
      </trkpt>
      <trkpt lat="46.75757" lon="4.17348">
        <ele>424.56</ele>
        <time>2021-08-13T04:58:52Z</time>
      </trkpt>
      <trkpt lat="46.7576" lon="4.17324">
        <ele>426</ele>
        <time>2021-08-13T04:58:58Z</time>
      </trkpt>
      <trkpt lat="46.7576" lon="4.17294">
        <ele>426.96</ele>
        <time>2021-08-13T04:59:05Z</time>
      </trkpt>
      <trkpt lat="46.75765" lon="4.17255">
        <ele>427.92</ele>
        <time>2021-08-13T04:59:14Z</time>
      </trkpt>
      <trkpt lat="46.75772" lon="4.17203">
        <ele>428.4</ele>
        <time>2021-08-13T04:59:25Z</time>
      </trkpt>
      <trkpt lat="46.75782" lon="4.17146">
        <ele>426.48</ele>
        <time>2021-08-13T04:59:34Z</time>
      </trkpt>
      <trkpt lat="46.75786" lon="4.17117">
        <ele>426</ele>
        <time>2021-08-13T04:59:38Z</time>
      </trkpt>
      <trkpt lat="46.75802" lon="4.17041">
        <ele>424.56</ele>
        <time>2021-08-13T04:59:48Z</time>
      </trkpt>
      <trkpt lat="46.75808" lon="4.17026">
        <ele>423.12</ele>
        <time>2021-08-13T04:59:50Z</time>
      </trkpt>
      <trkpt lat="46.75811" lon="4.17019">
        <ele>423.12</ele>
        <time>2021-08-13T04:59:51Z</time>
      </trkpt>
      <trkpt lat="46.75814" lon="4.17011">
        <ele>421.68</ele>
        <time>2021-08-13T04:59:52Z</time>
      </trkpt>
      <trkpt lat="46.75816" lon="4.17002">
        <ele>421.68</ele>
        <time>2021-08-13T04:59:53Z</time>
      </trkpt>
      <trkpt lat="46.75818" lon="4.16994">
        <ele>421.68</ele>
        <time>2021-08-13T04:59:54Z</time>
      </trkpt>
      <trkpt lat="46.75818" lon="4.16985">
        <ele>421.68</ele>
        <time>2021-08-13T04:59:55Z</time>
      </trkpt>
      <trkpt lat="46.75817" lon="4.16976">
        <ele>421.19</ele>
        <time>2021-08-13T04:59:56Z</time>
      </trkpt>
      <trkpt lat="46.75816" lon="4.16967">
        <ele>420.71</ele>
        <time>2021-08-13T04:59:57Z</time>
      </trkpt>
      <trkpt lat="46.75814" lon="4.16959">
        <ele>420.71</ele>
        <time>2021-08-13T04:59:58Z</time>
      </trkpt>
      <trkpt lat="46.75811" lon="4.16951">
        <ele>420.71</ele>
        <time>2021-08-13T04:59:59Z</time>
      </trkpt>
      <trkpt lat="46.75809" lon="4.16944">
        <ele>420.71</ele>
        <time>2021-08-13T05:00:00Z</time>
      </trkpt>
      <trkpt lat="46.75792" lon="4.16911">
        <ele>420.71</ele>
        <time>2021-08-13T05:00:06Z</time>
      </trkpt>
      <trkpt lat="46.75786" lon="4.169">
        <ele>420.71</ele>
        <time>2021-08-13T05:00:08Z</time>
      </trkpt>
      <trkpt lat="46.75783" lon="4.16895">
        <ele>420.71</ele>
        <time>2021-08-13T05:00:09Z</time>
      </trkpt>
      <trkpt lat="46.75778" lon="4.16891">
        <ele>420.71</ele>
        <time>2021-08-13T05:00:10Z</time>
      </trkpt>
      <trkpt lat="46.75773" lon="4.16887">
        <ele>420.71</ele>
        <time>2021-08-13T05:00:11Z</time>
      </trkpt>
      <trkpt lat="46.75769" lon="4.16884">
        <ele>420.71</ele>
        <time>2021-08-13T05:00:12Z</time>
      </trkpt>
      <trkpt lat="46.75764" lon="4.16882">
        <ele>420.71</ele>
        <time>2021-08-13T05:00:13Z</time>
      </trkpt>
      <trkpt lat="46.75739" lon="4.16871">
        <ele>422.16</ele>
        <time>2021-08-13T05:00:19Z</time>
      </trkpt>
      <trkpt lat="46.75732" lon="4.1686">
        <ele>423.12</ele>
        <time>2021-08-13T05:00:22Z</time>
      </trkpt>
      <trkpt lat="46.75729" lon="4.16824">
        <ele>424.56</ele>
        <time>2021-08-13T05:00:31Z</time>
      </trkpt>
      <trkpt lat="46.75728" lon="4.16783">
        <ele>425.52</ele>
        <time>2021-08-13T05:00:40Z</time>
      </trkpt>
      <trkpt lat="46.75726" lon="4.16734">
        <ele>426</ele>
        <time>2021-08-13T05:00:50Z</time>
      </trkpt>
      <trkpt lat="46.75727" lon="4.16684">
        <ele>426.48</ele>
        <time>2021-08-13T05:01:00Z</time>
      </trkpt>
      <trkpt lat="46.75727" lon="4.16661">
        <ele>426</ele>
        <time>2021-08-13T05:01:04Z</time>
      </trkpt>
      <trkpt lat="46.75725" lon="4.16654">
        <ele>425.04</ele>
        <time>2021-08-13T05:01:05Z</time>
      </trkpt>
      <trkpt lat="46.75723" lon="4.16648">
        <ele>425.04</ele>
        <time>2021-08-13T05:01:06Z</time>
      </trkpt>
      <trkpt lat="46.75719" lon="4.16642">
        <ele>424.56</ele>
        <time>2021-08-13T05:01:07Z</time>
      </trkpt>
      <trkpt lat="46.75716" lon="4.16637">
        <ele>424.08</ele>
        <time>2021-08-13T05:01:08Z</time>
      </trkpt>
      <trkpt lat="46.75706" lon="4.16624">
        <ele>423.12</ele>
        <time>2021-08-13T05:01:10Z</time>
      </trkpt>
      <trkpt lat="46.75701" lon="4.1662">
        <ele>423.12</ele>
        <time>2021-08-13T05:01:11Z</time>
      </trkpt>
      <trkpt lat="46.75667" lon="4.16589">
        <ele>421.19</ele>
        <time>2021-08-13T05:01:17Z</time>
      </trkpt>
      <trkpt lat="46.75634" lon="4.16558">
        <ele>420.71</ele>
        <time>2021-08-13T05:01:24Z</time>
      </trkpt>
      <trkpt lat="46.75604" lon="4.16533">
        <ele>422.16</ele>
        <time>2021-08-13T05:01:31Z</time>
      </trkpt>
      <trkpt lat="46.75575" lon="4.16506">
        <ele>423.12</ele>
        <time>2021-08-13T05:01:40Z</time>
      </trkpt>
      <trkpt lat="46.75552" lon="4.16483">
        <ele>424.56</ele>
        <time>2021-08-13T05:01:49Z</time>
      </trkpt>
      <trkpt lat="46.75539" lon="4.16471">
        <ele>425.04</ele>
        <time>2021-08-13T05:01:56Z</time>
      </trkpt>
      <trkpt lat="46.75515" lon="4.16458">
        <ele>426.48</ele>
        <time>2021-08-13T05:02:05Z</time>
      </trkpt>
      <trkpt lat="46.7549" lon="4.16451">
        <ele>427.44</ele>
        <time>2021-08-13T05:02:15Z</time>
      </trkpt>
      <trkpt lat="46.75457" lon="4.16452">
        <ele>429.37</ele>
        <time>2021-08-13T05:02:28Z</time>
      </trkpt>
      <trkpt lat="46.75429" lon="4.16459">
        <ele>430.33</ele>
        <time>2021-08-13T05:02:38Z</time>
      </trkpt>
      <trkpt lat="46.75409" lon="4.16455">
        <ele>430.81</ele>
        <time>2021-08-13T05:02:45Z</time>
      </trkpt>
      <trkpt lat="46.75394" lon="4.16456">
        <ele>431.77</ele>
        <time>2021-08-13T05:02:52Z</time>
      </trkpt>
      <trkpt lat="46.7539" lon="4.16457">
        <ele>432.25</ele>
        <time>2021-08-13T05:02:54Z</time>
      </trkpt>
      <trkpt lat="46.75378" lon="4.16454">
        <ele>433.69</ele>
        <time>2021-08-13T05:03:02Z</time>
      </trkpt>
      <trkpt lat="46.75363" lon="4.16452">
        <ele>433.69</ele>
        <time>2021-08-13T05:03:08Z</time>
      </trkpt>
      <trkpt lat="46.75348" lon="4.16455">
        <ele>434.17</ele>
        <time>2021-08-13T05:03:14Z</time>
      </trkpt>
      <trkpt lat="46.75335" lon="4.16463">
        <ele>435.13</ele>
        <time>2021-08-13T05:03:21Z</time>
      </trkpt>
      <trkpt lat="46.75328" lon="4.16465">
        <ele>436.1</ele>
        <time>2021-08-13T05:03:24Z</time>
      </trkpt>
      <trkpt lat="46.75325" lon="4.16465">
        <ele>436.1</ele>
        <time>2021-08-13T05:03:25Z</time>
      </trkpt>
      <trkpt lat="46.75323" lon="4.16466">
        <ele>436.1</ele>
        <time>2021-08-13T05:03:26Z</time>
      </trkpt>
      <trkpt lat="46.75307" lon="4.16472">
        <ele>436.58</ele>
        <time>2021-08-13T05:03:33Z</time>
      </trkpt>
      <trkpt lat="46.75288" lon="4.1648">
        <ele>438.02</ele>
        <time>2021-08-13T05:03:42Z</time>
      </trkpt>
      <trkpt lat="46.75272" lon="4.16479">
        <ele>438.5</ele>
        <time>2021-08-13T05:03:50Z</time>
      </trkpt>
      <trkpt lat="46.75261" lon="4.1648">
        <ele>439.94</ele>
        <time>2021-08-13T05:03:57Z</time>
      </trkpt>
      <trkpt lat="46.75252" lon="4.16483">
        <ele>440.9</ele>
        <time>2021-08-13T05:04:04Z</time>
      </trkpt>
      <trkpt lat="46.75244" lon="4.16486">
        <ele>441.86</ele>
        <time>2021-08-13T05:04:12Z</time>
      </trkpt>
      <trkpt lat="46.75237" lon="4.1649">
        <ele>443.31</ele>
        <time>2021-08-13T05:04:19Z</time>
      </trkpt>
      <trkpt lat="46.75232" lon="4.16496">
        <ele>444.75</ele>
        <time>2021-08-13T05:04:26Z</time>
      </trkpt>
      <trkpt lat="46.75226" lon="4.16497">
        <ele>445.71</ele>
        <time>2021-08-13T05:04:30Z</time>
      </trkpt>
      <trkpt lat="46.75219" lon="4.16498">
        <ele>446.19</ele>
        <time>2021-08-13T05:04:34Z</time>
      </trkpt>
      <trkpt lat="46.7521" lon="4.16501">
        <ele>447.15</ele>
        <time>2021-08-13T05:04:40Z</time>
      </trkpt>
      <trkpt lat="46.752" lon="4.165">
        <ele>448.11</ele>
        <time>2021-08-13T05:04:47Z</time>
      </trkpt>
      <trkpt lat="46.75187" lon="4.16497">
        <ele>450.03</ele>
        <time>2021-08-13T05:04:55Z</time>
      </trkpt>
      <trkpt lat="46.75178" lon="4.16495">
        <ele>450.52</ele>
        <time>2021-08-13T05:05:01Z</time>
      </trkpt>
      <trkpt lat="46.75175" lon="4.16495">
        <ele>450.52</ele>
        <time>2021-08-13T05:05:03Z</time>
      </trkpt>
      <trkpt lat="46.75173" lon="4.16496">
        <ele>451</ele>
        <time>2021-08-13T05:05:04Z</time>
      </trkpt>
      <trkpt lat="46.75172" lon="4.16496">
        <ele>451</ele>
        <time>2021-08-13T05:05:05Z</time>
      </trkpt>
      <trkpt lat="46.7517" lon="4.16496">
        <ele>451.48</ele>
        <time>2021-08-13T05:05:06Z</time>
      </trkpt>
      <trkpt lat="46.75169" lon="4.16496">
        <ele>451.48</ele>
        <time>2021-08-13T05:05:07Z</time>
      </trkpt>
      <trkpt lat="46.75157" lon="4.16497">
        <ele>452.44</ele>
        <time>2021-08-13T05:05:13Z</time>
      </trkpt>
      <trkpt lat="46.75143" lon="4.16499">
        <ele>453.88</ele>
        <time>2021-08-13T05:05:22Z</time>
      </trkpt>
      <trkpt lat="46.75129" lon="4.16503">
        <ele>455.32</ele>
        <time>2021-08-13T05:05:30Z</time>
      </trkpt>
      <trkpt lat="46.75121" lon="4.16494">
        <ele>456.76</ele>
        <time>2021-08-13T05:05:37Z</time>
      </trkpt>
      <trkpt lat="46.75118" lon="4.16491">
        <ele>456.76</ele>
        <time>2021-08-13T05:05:40Z</time>
      </trkpt>
      <trkpt lat="46.75116" lon="4.1649">
        <ele>457.24</ele>
        <time>2021-08-13T05:05:41Z</time>
      </trkpt>
      <trkpt lat="46.75112" lon="4.16485">
        <ele>457.72</ele>
        <time>2021-08-13T05:05:45Z</time>
      </trkpt>
      <trkpt lat="46.7511" lon="4.16484">
        <ele>458.21</ele>
        <time>2021-08-13T05:05:46Z</time>
      </trkpt>
      <trkpt lat="46.75109" lon="4.16483">
        <ele>458.69</ele>
        <time>2021-08-13T05:05:47Z</time>
      </trkpt>
      <trkpt lat="46.75107" lon="4.16482">
        <ele>458.69</ele>
        <time>2021-08-13T05:05:48Z</time>
      </trkpt>
      <trkpt lat="46.75099" lon="4.16472">
        <ele>459.65</ele>
        <time>2021-08-13T05:05:55Z</time>
      </trkpt>
      <trkpt lat="46.75093" lon="4.16456">
        <ele>461.57</ele>
        <time>2021-08-13T05:06:03Z</time>
      </trkpt>
      <trkpt lat="46.75092" lon="4.16455">
        <ele>461.57</ele>
        <time>2021-08-13T05:06:04Z</time>
      </trkpt>
      <trkpt lat="46.75091" lon="4.16453">
        <ele>461.57</ele>
        <time>2021-08-13T05:06:05Z</time>
      </trkpt>
      <trkpt lat="46.75082" lon="4.16446">
        <ele>463.01</ele>
        <time>2021-08-13T05:06:13Z</time>
      </trkpt>
      <trkpt lat="46.75073" lon="4.1644">
        <ele>464.93</ele>
        <time>2021-08-13T05:06:20Z</time>
      </trkpt>
      <trkpt lat="46.75066" lon="4.16425">
        <ele>466.38</ele>
        <time>2021-08-13T05:06:28Z</time>
      </trkpt>
      <trkpt lat="46.75063" lon="4.16404">
        <ele>466.38</ele>
        <time>2021-08-13T05:06:35Z</time>
      </trkpt>
      <trkpt lat="46.75053" lon="4.16391">
        <ele>467.34</ele>
        <time>2021-08-13T05:06:41Z</time>
      </trkpt>
      <trkpt lat="46.75037" lon="4.16386">
        <ele>468.78</ele>
        <time>2021-08-13T05:06:48Z</time>
      </trkpt>
      <trkpt lat="46.7503" lon="4.16381">
        <ele>469.26</ele>
        <time>2021-08-13T05:06:51Z</time>
      </trkpt>
      <trkpt lat="46.75029" lon="4.16379">
        <ele>469.26</ele>
        <time>2021-08-13T05:06:52Z</time>
      </trkpt>
      <trkpt lat="46.75027" lon="4.16377">
        <ele>469.26</ele>
        <time>2021-08-13T05:06:53Z</time>
      </trkpt>
      <trkpt lat="46.75025" lon="4.16374">
        <ele>468.78</ele>
        <time>2021-08-13T05:06:54Z</time>
      </trkpt>
      <trkpt lat="46.75024" lon="4.16371">
        <ele>469.26</ele>
        <time>2021-08-13T05:06:55Z</time>
      </trkpt>
      <trkpt lat="46.75023" lon="4.16368">
        <ele>469.26</ele>
        <time>2021-08-13T05:06:56Z</time>
      </trkpt>
      <trkpt lat="46.75023" lon="4.16365">
        <ele>469.26</ele>
        <time>2021-08-13T05:06:57Z</time>
      </trkpt>
      <trkpt lat="46.75023" lon="4.16362">
        <ele>469.26</ele>
        <time>2021-08-13T05:06:58Z</time>
      </trkpt>
      <trkpt lat="46.75022" lon="4.16359">
        <ele>469.26</ele>
        <time>2021-08-13T05:06:59Z</time>
      </trkpt>
      <trkpt lat="46.7502" lon="4.16355">
        <ele>469.74</ele>
        <time>2021-08-13T05:07:00Z</time>
      </trkpt>
      <trkpt lat="46.75009" lon="4.16337">
        <ele>469.74</ele>
        <time>2021-08-13T05:07:05Z</time>
      </trkpt>
      <trkpt lat="46.75004" lon="4.16328">
        <ele>469.74</ele>
        <time>2021-08-13T05:07:08Z</time>
      </trkpt>
      <trkpt lat="46.75002" lon="4.16326">
        <ele>469.74</ele>
        <time>2021-08-13T05:07:09Z</time>
      </trkpt>
      <trkpt lat="46.75" lon="4.16325">
        <ele>469.74</ele>
        <time>2021-08-13T05:07:10Z</time>
      </trkpt>
      <trkpt lat="46.74997" lon="4.16324">
        <ele>469.74</ele>
        <time>2021-08-13T05:07:11Z</time>
      </trkpt>
      <trkpt lat="46.74995" lon="4.16324">
        <ele>469.74</ele>
        <time>2021-08-13T05:07:12Z</time>
      </trkpt>
      <trkpt lat="46.74988" lon="4.16324">
        <ele>469.74</ele>
        <time>2021-08-13T05:07:14Z</time>
      </trkpt>
      <trkpt lat="46.74983" lon="4.16329">
        <ele>469.74</ele>
        <time>2021-08-13T05:07:16Z</time>
      </trkpt>
      <trkpt lat="46.74975" lon="4.16335">
        <ele>470.7</ele>
        <time>2021-08-13T05:07:19Z</time>
      </trkpt>
      <trkpt lat="46.74972" lon="4.16334">
        <ele>470.7</ele>
        <time>2021-08-13T05:07:20Z</time>
      </trkpt>
      <trkpt lat="46.7497" lon="4.16334">
        <ele>471.18</ele>
        <time>2021-08-13T05:07:21Z</time>
      </trkpt>
      <trkpt lat="46.74968" lon="4.16333">
        <ele>471.18</ele>
        <time>2021-08-13T05:07:22Z</time>
      </trkpt>
      <trkpt lat="46.74966" lon="4.16332">
        <ele>471.18</ele>
        <time>2021-08-13T05:07:23Z</time>
      </trkpt>
      <trkpt lat="46.74949" lon="4.16329">
        <ele>472.63</ele>
        <time>2021-08-13T05:07:31Z</time>
      </trkpt>
      <trkpt lat="46.74932" lon="4.16326">
        <ele>473.11</ele>
        <time>2021-08-13T05:07:38Z</time>
      </trkpt>
      <trkpt lat="46.74931" lon="4.16324">
        <ele>474.07</ele>
        <time>2021-08-13T05:07:39Z</time>
      </trkpt>
      <trkpt lat="46.74929" lon="4.16321">
        <ele>474.07</ele>
        <time>2021-08-13T05:07:40Z</time>
      </trkpt>
      <trkpt lat="46.74917" lon="4.16303">
        <ele>473.59</ele>
        <time>2021-08-13T05:07:46Z</time>
      </trkpt>
      <trkpt lat="46.74901" lon="4.163">
        <ele>474.07</ele>
        <time>2021-08-13T05:07:52Z</time>
      </trkpt>
      <trkpt lat="46.74884" lon="4.16313">
        <ele>474.07</ele>
        <time>2021-08-13T05:07:58Z</time>
      </trkpt>
      <trkpt lat="46.7488" lon="4.1632">
        <ele>474.07</ele>
        <time>2021-08-13T05:08:00Z</time>
      </trkpt>
      <trkpt lat="46.74878" lon="4.16321">
        <ele>474.55</ele>
        <time>2021-08-13T05:08:01Z</time>
      </trkpt>
      <trkpt lat="46.74875" lon="4.16322">
        <ele>474.55</ele>
        <time>2021-08-13T05:08:02Z</time>
      </trkpt>
      <trkpt lat="46.74869" lon="4.16323">
        <ele>474.55</ele>
        <time>2021-08-13T05:08:04Z</time>
      </trkpt>
      <trkpt lat="46.74867" lon="4.16323">
        <ele>474.55</ele>
        <time>2021-08-13T05:08:05Z</time>
      </trkpt>
      <trkpt lat="46.74864" lon="4.1632">
        <ele>474.55</ele>
        <time>2021-08-13T05:08:06Z</time>
      </trkpt>
      <trkpt lat="46.74862" lon="4.16317">
        <ele>474.55</ele>
        <time>2021-08-13T05:08:07Z</time>
      </trkpt>
      <trkpt lat="46.7486" lon="4.16313">
        <ele>474.55</ele>
        <time>2021-08-13T05:08:08Z</time>
      </trkpt>
      <trkpt lat="46.74857" lon="4.16309">
        <ele>473.11</ele>
        <time>2021-08-13T05:08:09Z</time>
      </trkpt>
      <trkpt lat="46.74854" lon="4.16307">
        <ele>473.11</ele>
        <time>2021-08-13T05:08:10Z</time>
      </trkpt>
      <trkpt lat="46.7485" lon="4.16306">
        <ele>473.11</ele>
        <time>2021-08-13T05:08:11Z</time>
      </trkpt>
      <trkpt lat="46.74848" lon="4.16306">
        <ele>473.11</ele>
        <time>2021-08-13T05:08:12Z</time>
      </trkpt>
      <trkpt lat="46.74846" lon="4.16307">
        <ele>473.11</ele>
        <time>2021-08-13T05:08:13Z</time>
      </trkpt>
      <trkpt lat="46.74844" lon="4.16308">
        <ele>473.11</ele>
        <time>2021-08-13T05:08:14Z</time>
      </trkpt>
      <trkpt lat="46.74842" lon="4.16308">
        <ele>475.03</ele>
        <time>2021-08-13T05:08:15Z</time>
      </trkpt>
      <trkpt lat="46.7484" lon="4.16309">
        <ele>475.03</ele>
        <time>2021-08-13T05:08:16Z</time>
      </trkpt>
      <trkpt lat="46.74838" lon="4.1631">
        <ele>475.03</ele>
        <time>2021-08-13T05:08:17Z</time>
      </trkpt>
      <trkpt lat="46.74827" lon="4.16309">
        <ele>475.99</ele>
        <time>2021-08-13T05:08:24Z</time>
      </trkpt>
      <trkpt lat="46.74825" lon="4.16307">
        <ele>475.99</ele>
        <time>2021-08-13T05:08:30Z</time>
      </trkpt>
      <trkpt lat="46.74822" lon="4.16305">
        <ele>475.99</ele>
        <time>2021-08-13T05:08:51Z</time>
      </trkpt>
      <trkpt lat="46.74824" lon="4.16305">
        <ele>475.99</ele>
        <time>2021-08-13T05:09:12Z</time>
      </trkpt>
      <trkpt lat="46.74823" lon="4.16306">
        <ele>475.99</ele>
        <time>2021-08-13T05:09:28Z</time>
      </trkpt>
      <trkpt lat="46.74821" lon="4.16305">
        <ele>475.99</ele>
        <time>2021-08-13T05:09:39Z</time>
      </trkpt>
      <trkpt lat="46.7482" lon="4.16304">
        <ele>475.99</ele>
        <time>2021-08-13T05:09:40Z</time>
      </trkpt>
      <trkpt lat="46.74818" lon="4.16303">
        <ele>475.99</ele>
        <time>2021-08-13T05:09:41Z</time>
      </trkpt>
      <trkpt lat="46.74816" lon="4.16302">
        <ele>475.03</ele>
        <time>2021-08-13T05:09:42Z</time>
      </trkpt>
      <trkpt lat="46.74812" lon="4.16301">
        <ele>475.03</ele>
        <time>2021-08-13T05:09:43Z</time>
      </trkpt>
      <trkpt lat="46.74809" lon="4.163">
        <ele>475.03</ele>
        <time>2021-08-13T05:09:44Z</time>
      </trkpt>
      <trkpt lat="46.74806" lon="4.16297">
        <ele>474.55</ele>
        <time>2021-08-13T05:09:45Z</time>
      </trkpt>
      <trkpt lat="46.74803" lon="4.16294">
        <ele>474.55</ele>
        <time>2021-08-13T05:09:46Z</time>
      </trkpt>
      <trkpt lat="46.74792" lon="4.16279">
        <ele>474.55</ele>
        <time>2021-08-13T05:09:51Z</time>
      </trkpt>
      <trkpt lat="46.74777" lon="4.16277">
        <ele>475.99</ele>
        <time>2021-08-13T05:09:58Z</time>
      </trkpt>
      <trkpt lat="46.74774" lon="4.16276">
        <ele>475.99</ele>
        <time>2021-08-13T05:09:59Z</time>
      </trkpt>
      <trkpt lat="46.74773" lon="4.16275">
        <ele>476.47</ele>
        <time>2021-08-13T05:10:00Z</time>
      </trkpt>
      <trkpt lat="46.74771" lon="4.16272">
        <ele>476.47</ele>
        <time>2021-08-13T05:10:01Z</time>
      </trkpt>
      <trkpt lat="46.74769" lon="4.1627">
        <ele>476.47</ele>
        <time>2021-08-13T05:10:02Z</time>
      </trkpt>
      <trkpt lat="46.74768" lon="4.16266">
        <ele>476.47</ele>
        <time>2021-08-13T05:10:03Z</time>
      </trkpt>
      <trkpt lat="46.74766" lon="4.16263">
        <ele>476.47</ele>
        <time>2021-08-13T05:10:04Z</time>
      </trkpt>
      <trkpt lat="46.74749" lon="4.16242">
        <ele>476.47</ele>
        <time>2021-08-13T05:10:12Z</time>
      </trkpt>
      <trkpt lat="46.74743" lon="4.16234">
        <ele>474.55</ele>
        <time>2021-08-13T05:10:14Z</time>
      </trkpt>
      <trkpt lat="46.74735" lon="4.16227">
        <ele>474.07</ele>
        <time>2021-08-13T05:10:16Z</time>
      </trkpt>
      <trkpt lat="46.74722" lon="4.16219">
        <ele>472.63</ele>
        <time>2021-08-13T05:10:19Z</time>
      </trkpt>
      <trkpt lat="46.74718" lon="4.16215">
        <ele>472.63</ele>
        <time>2021-08-13T05:10:20Z</time>
      </trkpt>
      <trkpt lat="46.747" lon="4.16196">
        <ele>472.14</ele>
        <time>2021-08-13T05:10:25Z</time>
      </trkpt>
      <trkpt lat="46.74697" lon="4.16192">
        <ele>472.14</ele>
        <time>2021-08-13T05:10:26Z</time>
      </trkpt>
      <trkpt lat="46.74695" lon="4.16189">
        <ele>472.14</ele>
        <time>2021-08-13T05:10:27Z</time>
      </trkpt>
      <trkpt lat="46.74672" lon="4.16162">
        <ele>471.66</ele>
        <time>2021-08-13T05:10:34Z</time>
      </trkpt>
      <trkpt lat="46.74655" lon="4.16146">
        <ele>471.66</ele>
        <time>2021-08-13T05:10:38Z</time>
      </trkpt>
      <trkpt lat="46.74648" lon="4.16136">
        <ele>471.66</ele>
        <time>2021-08-13T05:10:40Z</time>
      </trkpt>
      <trkpt lat="46.74646" lon="4.16132">
        <ele>471.66</ele>
        <time>2021-08-13T05:10:41Z</time>
      </trkpt>
      <trkpt lat="46.74643" lon="4.16127">
        <ele>471.66</ele>
        <time>2021-08-13T05:10:42Z</time>
      </trkpt>
      <trkpt lat="46.7464" lon="4.16123">
        <ele>471.66</ele>
        <time>2021-08-13T05:10:43Z</time>
      </trkpt>
      <trkpt lat="46.74638" lon="4.16119">
        <ele>471.66</ele>
        <time>2021-08-13T05:10:44Z</time>
      </trkpt>
      <trkpt lat="46.74636" lon="4.16115">
        <ele>471.66</ele>
        <time>2021-08-13T05:10:45Z</time>
      </trkpt>
      <trkpt lat="46.74629" lon="4.16104">
        <ele>473.11</ele>
        <time>2021-08-13T05:10:48Z</time>
      </trkpt>
      <trkpt lat="46.74609" lon="4.16073">
        <ele>474.07</ele>
        <time>2021-08-13T05:10:57Z</time>
      </trkpt>
      <trkpt lat="46.74593" lon="4.16043">
        <ele>475.03</ele>
        <time>2021-08-13T05:11:06Z</time>
      </trkpt>
      <trkpt lat="46.74582" lon="4.16021">
        <ele>476.47</ele>
        <time>2021-08-13T05:11:14Z</time>
      </trkpt>
      <trkpt lat="46.74574" lon="4.16006">
        <ele>477.43</ele>
        <time>2021-08-13T05:11:21Z</time>
      </trkpt>
      <trkpt lat="46.74562" lon="4.1599">
        <ele>478.39</ele>
        <time>2021-08-13T05:11:29Z</time>
      </trkpt>
      <trkpt lat="46.74552" lon="4.15973">
        <ele>480.8</ele>
        <time>2021-08-13T05:11:38Z</time>
      </trkpt>
      <trkpt lat="46.74545" lon="4.15948">
        <ele>481.28</ele>
        <time>2021-08-13T05:11:46Z</time>
      </trkpt>
      <trkpt lat="46.74534" lon="4.15918">
        <ele>481.76</ele>
        <time>2021-08-13T05:11:54Z</time>
      </trkpt>
      <trkpt lat="46.74531" lon="4.15896">
        <ele>482.24</ele>
        <time>2021-08-13T05:12:00Z</time>
      </trkpt>
      <trkpt lat="46.74532" lon="4.15885">
        <ele>482.24</ele>
        <time>2021-08-13T05:12:03Z</time>
      </trkpt>
      <trkpt lat="46.74532" lon="4.15882">
        <ele>482.24</ele>
        <time>2021-08-13T05:12:04Z</time>
      </trkpt>
      <trkpt lat="46.7453" lon="4.15858">
        <ele>482.72</ele>
        <time>2021-08-13T05:12:10Z</time>
      </trkpt>
      <trkpt lat="46.74526" lon="4.15828">
        <ele>483.2</ele>
        <time>2021-08-13T05:12:17Z</time>
      </trkpt>
      <trkpt lat="46.74518" lon="4.15804">
        <ele>481.76</ele>
        <time>2021-08-13T05:12:21Z</time>
      </trkpt>
      <trkpt lat="46.74506" lon="4.15785">
        <ele>481.76</ele>
        <time>2021-08-13T05:12:25Z</time>
      </trkpt>
      <trkpt lat="46.74492" lon="4.15773">
        <ele>480.8</ele>
        <time>2021-08-13T05:12:29Z</time>
      </trkpt>
      <trkpt lat="46.74467" lon="4.15767">
        <ele>479.84</ele>
        <time>2021-08-13T05:12:35Z</time>
      </trkpt>
      <trkpt lat="46.74451" lon="4.1576">
        <ele>475.51</ele>
        <time>2021-08-13T05:12:38Z</time>
      </trkpt>
      <trkpt lat="46.74444" lon="4.15757">
        <ele>474.07</ele>
        <time>2021-08-13T05:12:39Z</time>
      </trkpt>
      <trkpt lat="46.74419" lon="4.15741">
        <ele>470.22</ele>
        <time>2021-08-13T05:12:42Z</time>
      </trkpt>
      <trkpt lat="46.74386" lon="4.15714">
        <ele>467.82</ele>
        <time>2021-08-13T05:12:46Z</time>
      </trkpt>
      <trkpt lat="46.74355" lon="4.15698">
        <ele>467.34</ele>
        <time>2021-08-13T05:12:50Z</time>
      </trkpt>
      <trkpt lat="46.74338" lon="4.15699">
        <ele>469.26</ele>
        <time>2021-08-13T05:12:53Z</time>
      </trkpt>
      <trkpt lat="46.74306" lon="4.15708">
        <ele>469.26</ele>
        <time>2021-08-13T05:13:00Z</time>
      </trkpt>
      <trkpt lat="46.74291" lon="4.15711">
        <ele>466.38</ele>
        <time>2021-08-13T05:13:03Z</time>
      </trkpt>
      <trkpt lat="46.74262" lon="4.15712">
        <ele>463.01</ele>
        <time>2021-08-13T05:13:07Z</time>
      </trkpt>
      <trkpt lat="46.74254" lon="4.15711">
        <ele>463.01</ele>
        <time>2021-08-13T05:13:08Z</time>
      </trkpt>
      <trkpt lat="46.74213" lon="4.15704">
        <ele>463.01</ele>
        <time>2021-08-13T05:13:14Z</time>
      </trkpt>
      <trkpt lat="46.74208" lon="4.15702">
        <ele>463.01</ele>
        <time>2021-08-13T05:13:15Z</time>
      </trkpt>
      <trkpt lat="46.74203" lon="4.15701">
        <ele>463.01</ele>
        <time>2021-08-13T05:13:16Z</time>
      </trkpt>
      <trkpt lat="46.74198" lon="4.15699">
        <ele>463.01</ele>
        <time>2021-08-13T05:13:17Z</time>
      </trkpt>
      <trkpt lat="46.74178" lon="4.15696">
        <ele>463.97</ele>
        <time>2021-08-13T05:13:21Z</time>
      </trkpt>
      <trkpt lat="46.74162" lon="4.15697">
        <ele>463.97</ele>
        <time>2021-08-13T05:13:24Z</time>
      </trkpt>
      <trkpt lat="46.74158" lon="4.15695">
        <ele>463.97</ele>
        <time>2021-08-13T05:13:25Z</time>
      </trkpt>
      <trkpt lat="46.74154" lon="4.15694">
        <ele>463.97</ele>
        <time>2021-08-13T05:13:26Z</time>
      </trkpt>
      <trkpt lat="46.74123" lon="4.15677">
        <ele>464.45</ele>
        <time>2021-08-13T05:13:33Z</time>
      </trkpt>
      <trkpt lat="46.74118" lon="4.15674">
        <ele>463.01</ele>
        <time>2021-08-13T05:13:34Z</time>
      </trkpt>
      <trkpt lat="46.74093" lon="4.1566">
        <ele>459.17</ele>
        <time>2021-08-13T05:13:38Z</time>
      </trkpt>
      <trkpt lat="46.74085" lon="4.15657">
        <ele>458.69</ele>
        <time>2021-08-13T05:13:39Z</time>
      </trkpt>
      <trkpt lat="46.74072" lon="4.15652">
        <ele>457.24</ele>
        <time>2021-08-13T05:13:41Z</time>
      </trkpt>
      <trkpt lat="46.74065" lon="4.15648">
        <ele>456.76</ele>
        <time>2021-08-13T05:13:42Z</time>
      </trkpt>
      <trkpt lat="46.74059" lon="4.15644">
        <ele>456.76</ele>
        <time>2021-08-13T05:13:43Z</time>
      </trkpt>
      <trkpt lat="46.74052" lon="4.15641">
        <ele>456.28</ele>
        <time>2021-08-13T05:13:44Z</time>
      </trkpt>
      <trkpt lat="46.74044" lon="4.15639">
        <ele>456.28</ele>
        <time>2021-08-13T05:13:45Z</time>
      </trkpt>
      <trkpt lat="46.74037" lon="4.15638">
        <ele>455.8</ele>
        <time>2021-08-13T05:13:46Z</time>
      </trkpt>
      <trkpt lat="46.7399" lon="4.15635">
        <ele>454.84</ele>
        <time>2021-08-13T05:13:53Z</time>
      </trkpt>
      <trkpt lat="46.73968" lon="4.1563">
        <ele>454.84</ele>
        <time>2021-08-13T05:13:57Z</time>
      </trkpt>
      <trkpt lat="46.73964" lon="4.1563">
        <ele>454.84</ele>
        <time>2021-08-13T05:13:58Z</time>
      </trkpt>
      <trkpt lat="46.7396" lon="4.15629">
        <ele>454.84</ele>
        <time>2021-08-13T05:13:59Z</time>
      </trkpt>
      <trkpt lat="46.73956" lon="4.15628">
        <ele>456.76</ele>
        <time>2021-08-13T05:14:00Z</time>
      </trkpt>
      <trkpt lat="46.73952" lon="4.15626">
        <ele>456.76</ele>
        <time>2021-08-13T05:14:01Z</time>
      </trkpt>
      <trkpt lat="46.73927" lon="4.15619">
        <ele>457.72</ele>
        <time>2021-08-13T05:14:09Z</time>
      </trkpt>
      <trkpt lat="46.73914" lon="4.15614">
        <ele>457.72</ele>
        <time>2021-08-13T05:14:14Z</time>
      </trkpt>
      <trkpt lat="46.7389" lon="4.15606">
        <ele>458.21</ele>
        <time>2021-08-13T05:14:20Z</time>
      </trkpt>
      <trkpt lat="46.73865" lon="4.15602">
        <ele>456.28</ele>
        <time>2021-08-13T05:14:25Z</time>
      </trkpt>
      <trkpt lat="46.73852" lon="4.15603">
        <ele>454.36</ele>
        <time>2021-08-13T05:14:28Z</time>
      </trkpt>
      <trkpt lat="46.73846" lon="4.15603">
        <ele>453.88</ele>
        <time>2021-08-13T05:14:29Z</time>
      </trkpt>
      <trkpt lat="46.7384" lon="4.15603">
        <ele>452.44</ele>
        <time>2021-08-13T05:14:30Z</time>
      </trkpt>
      <trkpt lat="46.73822" lon="4.15598">
        <ele>449.55</ele>
        <time>2021-08-13T05:14:33Z</time>
      </trkpt>
      <trkpt lat="46.73788" lon="4.15579">
        <ele>447.15</ele>
        <time>2021-08-13T05:14:38Z</time>
      </trkpt>
      <trkpt lat="46.73774" lon="4.15567">
        <ele>445.71</ele>
        <time>2021-08-13T05:14:42Z</time>
      </trkpt>
      <trkpt lat="46.73765" lon="4.15559">
        <ele>446.19</ele>
        <time>2021-08-13T05:14:47Z</time>
      </trkpt>
      <trkpt lat="46.73765" lon="4.15559">
        <ele>446.67</ele>
        <time>2021-08-13T05:15:06Z</time>
      </trkpt>
      <trkpt lat="46.73764" lon="4.15559">
        <ele>446.67</ele>
        <time>2021-08-13T05:15:24Z</time>
      </trkpt>
      <trkpt lat="46.73765" lon="4.15558">
        <ele>446.67</ele>
        <time>2021-08-13T05:15:39Z</time>
      </trkpt>
      <trkpt lat="46.73763" lon="4.15555">
        <ele>446.19</ele>
        <time>2021-08-13T05:15:46Z</time>
      </trkpt>
      <trkpt lat="46.7376" lon="4.15551">
        <ele>446.19</ele>
        <time>2021-08-13T05:15:49Z</time>
      </trkpt>
      <trkpt lat="46.73758" lon="4.15548">
        <ele>446.19</ele>
        <time>2021-08-13T05:15:51Z</time>
      </trkpt>
      <trkpt lat="46.73758" lon="4.15546">
        <ele>446.19</ele>
        <time>2021-08-13T05:15:52Z</time>
      </trkpt>
      <trkpt lat="46.73757" lon="4.15544">
        <ele>445.71</ele>
        <time>2021-08-13T05:15:53Z</time>
      </trkpt>
      <trkpt lat="46.73754" lon="4.15535">
        <ele>445.23</ele>
        <time>2021-08-13T05:15:57Z</time>
      </trkpt>
      <trkpt lat="46.73755" lon="4.15513">
        <ele>443.79</ele>
        <time>2021-08-13T05:16:03Z</time>
      </trkpt>
      <trkpt lat="46.73756" lon="4.15487">
        <ele>442.82</ele>
        <time>2021-08-13T05:16:07Z</time>
      </trkpt>
      <trkpt lat="46.73749" lon="4.15441">
        <ele>439.94</ele>
        <time>2021-08-13T05:16:14Z</time>
      </trkpt>
      <trkpt lat="46.73748" lon="4.15435">
        <ele>439.46</ele>
        <time>2021-08-13T05:16:15Z</time>
      </trkpt>
      <trkpt lat="46.73738" lon="4.15408">
        <ele>438.02</ele>
        <time>2021-08-13T05:16:18Z</time>
      </trkpt>
      <trkpt lat="46.73734" lon="4.15399">
        <ele>438.02</ele>
        <time>2021-08-13T05:16:19Z</time>
      </trkpt>
      <trkpt lat="46.73719" lon="4.15383">
        <ele>436.58</ele>
        <time>2021-08-13T05:16:22Z</time>
      </trkpt>
      <trkpt lat="46.73714" lon="4.15381">
        <ele>436.1</ele>
        <time>2021-08-13T05:16:23Z</time>
      </trkpt>
      <trkpt lat="46.73696" lon="4.15385">
        <ele>434.17</ele>
        <time>2021-08-13T05:16:26Z</time>
      </trkpt>
      <trkpt lat="46.73687" lon="4.15393">
        <ele>433.21</ele>
        <time>2021-08-13T05:16:28Z</time>
      </trkpt>
      <trkpt lat="46.73663" lon="4.15431">
        <ele>430.33</ele>
        <time>2021-08-13T05:16:33Z</time>
      </trkpt>
      <trkpt lat="46.73648" lon="4.15454">
        <ele>427.92</ele>
        <time>2021-08-13T05:16:36Z</time>
      </trkpt>
      <trkpt lat="46.73642" lon="4.1546">
        <ele>427.92</ele>
        <time>2021-08-13T05:16:37Z</time>
      </trkpt>
      <trkpt lat="46.73632" lon="4.15466">
        <ele>426.48</ele>
        <time>2021-08-13T05:16:38Z</time>
      </trkpt>
      <trkpt lat="46.73623" lon="4.15471">
        <ele>425.52</ele>
        <time>2021-08-13T05:16:39Z</time>
      </trkpt>
      <trkpt lat="46.73611" lon="4.15475">
        <ele>425.04</ele>
        <time>2021-08-13T05:16:40Z</time>
      </trkpt>
      <trkpt lat="46.73603" lon="4.15476">
        <ele>425.04</ele>
        <time>2021-08-13T05:16:41Z</time>
      </trkpt>
      <trkpt lat="46.73593" lon="4.15476">
        <ele>425.04</ele>
        <time>2021-08-13T05:16:42Z</time>
      </trkpt>
      <trkpt lat="46.73584" lon="4.15477">
        <ele>424.56</ele>
        <time>2021-08-13T05:16:43Z</time>
      </trkpt>
      <trkpt lat="46.73542" lon="4.15488">
        <ele>421.68</ele>
        <time>2021-08-13T05:16:48Z</time>
      </trkpt>
      <trkpt lat="46.73526" lon="4.15497">
        <ele>422.16</ele>
        <time>2021-08-13T05:16:52Z</time>
      </trkpt>
      <trkpt lat="46.73511" lon="4.15508">
        <ele>422.16</ele>
        <time>2021-08-13T05:16:58Z</time>
      </trkpt>
      <trkpt lat="46.735" lon="4.15519">
        <ele>422.64</ele>
        <time>2021-08-13T05:17:04Z</time>
      </trkpt>
      <trkpt lat="46.7349" lon="4.15535">
        <ele>424.08</ele>
        <time>2021-08-13T05:17:10Z</time>
      </trkpt>
      <trkpt lat="46.73484" lon="4.15552">
        <ele>425.04</ele>
        <time>2021-08-13T05:17:16Z</time>
      </trkpt>
      <trkpt lat="46.73475" lon="4.15571">
        <ele>425.52</ele>
        <time>2021-08-13T05:17:22Z</time>
      </trkpt>
      <trkpt lat="46.73467" lon="4.15593">
        <ele>425.52</ele>
        <time>2021-08-13T05:17:28Z</time>
      </trkpt>
      <trkpt lat="46.73459" lon="4.15628">
        <ele>425.52</ele>
        <time>2021-08-13T05:17:36Z</time>
      </trkpt>
      <trkpt lat="46.73459" lon="4.15637">
        <ele>425.52</ele>
        <time>2021-08-13T05:17:38Z</time>
      </trkpt>
      <trkpt lat="46.73458" lon="4.15641">
        <ele>425.52</ele>
        <time>2021-08-13T05:17:39Z</time>
      </trkpt>
      <trkpt lat="46.73457" lon="4.15645">
        <ele>425.52</ele>
        <time>2021-08-13T05:17:40Z</time>
      </trkpt>
      <trkpt lat="46.73456" lon="4.1565">
        <ele>423.6</ele>
        <time>2021-08-13T05:17:41Z</time>
      </trkpt>
      <trkpt lat="46.73456" lon="4.15655">
        <ele>423.6</ele>
        <time>2021-08-13T05:17:42Z</time>
      </trkpt>
      <trkpt lat="46.73455" lon="4.15662">
        <ele>423.6</ele>
        <time>2021-08-13T05:17:43Z</time>
      </trkpt>
      <trkpt lat="46.73455" lon="4.15668">
        <ele>423.12</ele>
        <time>2021-08-13T05:17:44Z</time>
      </trkpt>
      <trkpt lat="46.73455" lon="4.15675">
        <ele>422.16</ele>
        <time>2021-08-13T05:17:45Z</time>
      </trkpt>
      <trkpt lat="46.73455" lon="4.15681">
        <ele>422.16</ele>
        <time>2021-08-13T05:17:46Z</time>
      </trkpt>
      <trkpt lat="46.73454" lon="4.15688">
        <ele>421.19</ele>
        <time>2021-08-13T05:17:47Z</time>
      </trkpt>
      <trkpt lat="46.73453" lon="4.15695">
        <ele>421.19</ele>
        <time>2021-08-13T05:17:48Z</time>
      </trkpt>
      <trkpt lat="46.73451" lon="4.157">
        <ele>420.23</ele>
        <time>2021-08-13T05:17:49Z</time>
      </trkpt>
      <trkpt lat="46.73449" lon="4.15704">
        <ele>419.75</ele>
        <time>2021-08-13T05:17:50Z</time>
      </trkpt>
      <trkpt lat="46.73448" lon="4.15707">
        <ele>419.75</ele>
        <time>2021-08-13T05:17:51Z</time>
      </trkpt>
      <trkpt lat="46.73445" lon="4.15709">
        <ele>419.75</ele>
        <time>2021-08-13T05:17:56Z</time>
      </trkpt>
      <trkpt lat="46.73444" lon="4.1571">
        <ele>418.79</ele>
        <time>2021-08-13T05:18:04Z</time>
      </trkpt>
      <trkpt lat="46.73444" lon="4.15709">
        <ele>418.79</ele>
        <time>2021-08-13T05:18:05Z</time>
      </trkpt>
      <trkpt lat="46.73443" lon="4.15706">
        <ele>418.79</ele>
        <time>2021-08-13T05:18:06Z</time>
      </trkpt>
      <trkpt lat="46.73442" lon="4.15704">
        <ele>418.79</ele>
        <time>2021-08-13T05:18:07Z</time>
      </trkpt>
      <trkpt lat="46.73442" lon="4.15702">
        <ele>418.79</ele>
        <time>2021-08-13T05:18:08Z</time>
      </trkpt>
      <trkpt lat="46.73437" lon="4.15685">
        <ele>418.79</ele>
        <time>2021-08-13T05:18:14Z</time>
      </trkpt>
      <trkpt lat="46.73423" lon="4.15654">
        <ele>417.83</ele>
        <time>2021-08-13T05:18:22Z</time>
      </trkpt>
      <trkpt lat="46.73401" lon="4.15621">
        <ele>416.87</ele>
        <time>2021-08-13T05:18:30Z</time>
      </trkpt>
      <trkpt lat="46.73379" lon="4.1559">
        <ele>415.43</ele>
        <time>2021-08-13T05:18:36Z</time>
      </trkpt>
      <trkpt lat="46.73369" lon="4.15578">
        <ele>413.98</ele>
        <time>2021-08-13T05:18:38Z</time>
      </trkpt>
      <trkpt lat="46.73327" lon="4.15552">
        <ele>410.62</ele>
        <time>2021-08-13T05:18:44Z</time>
      </trkpt>
      <trkpt lat="46.73311" lon="4.15541">
        <ele>409.66</ele>
        <time>2021-08-13T05:18:46Z</time>
      </trkpt>
      <trkpt lat="46.73304" lon="4.15533">
        <ele>409.18</ele>
        <time>2021-08-13T05:18:47Z</time>
      </trkpt>
      <trkpt lat="46.73298" lon="4.15524">
        <ele>408.22</ele>
        <time>2021-08-13T05:18:48Z</time>
      </trkpt>
      <trkpt lat="46.73294" lon="4.15513">
        <ele>408.22</ele>
        <time>2021-08-13T05:18:49Z</time>
      </trkpt>
      <trkpt lat="46.7329" lon="4.155">
        <ele>407.26</ele>
        <time>2021-08-13T05:18:50Z</time>
      </trkpt>
      <trkpt lat="46.73288" lon="4.15486">
        <ele>406.29</ele>
        <time>2021-08-13T05:18:51Z</time>
      </trkpt>
      <trkpt lat="46.73288" lon="4.15472">
        <ele>405.33</ele>
        <time>2021-08-13T05:18:52Z</time>
      </trkpt>
      <trkpt lat="46.73289" lon="4.15457">
        <ele>404.85</ele>
        <time>2021-08-13T05:18:53Z</time>
      </trkpt>
      <trkpt lat="46.73292" lon="4.15443">
        <ele>403.89</ele>
        <time>2021-08-13T05:18:54Z</time>
      </trkpt>
      <trkpt lat="46.73296" lon="4.15429">
        <ele>402.93</ele>
        <time>2021-08-13T05:18:55Z</time>
      </trkpt>
      <trkpt lat="46.733" lon="4.15416">
        <ele>403.41</ele>
        <time>2021-08-13T05:18:56Z</time>
      </trkpt>
      <trkpt lat="46.73316" lon="4.15376">
        <ele>401.01</ele>
        <time>2021-08-13T05:18:59Z</time>
      </trkpt>
      <trkpt lat="46.73324" lon="4.15365">
        <ele>400.05</ele>
        <time>2021-08-13T05:19:00Z</time>
      </trkpt>
      <trkpt lat="46.73332" lon="4.15358">
        <ele>399.57</ele>
        <time>2021-08-13T05:19:01Z</time>
      </trkpt>
      <trkpt lat="46.73343" lon="4.15353">
        <ele>399.08</ele>
        <time>2021-08-13T05:19:02Z</time>
      </trkpt>
      <trkpt lat="46.73353" lon="4.15351">
        <ele>398.6</ele>
        <time>2021-08-13T05:19:03Z</time>
      </trkpt>
      <trkpt lat="46.73365" lon="4.15351">
        <ele>397.64</ele>
        <time>2021-08-13T05:19:04Z</time>
      </trkpt>
      <trkpt lat="46.73376" lon="4.15351">
        <ele>396.68</ele>
        <time>2021-08-13T05:19:05Z</time>
      </trkpt>
      <trkpt lat="46.73387" lon="4.15351">
        <ele>396.2</ele>
        <time>2021-08-13T05:19:06Z</time>
      </trkpt>
      <trkpt lat="46.73395" lon="4.1535">
        <ele>396.2</ele>
        <time>2021-08-13T05:19:07Z</time>
      </trkpt>
      <trkpt lat="46.73407" lon="4.15346">
        <ele>395.24</ele>
        <time>2021-08-13T05:19:08Z</time>
      </trkpt>
      <trkpt lat="46.73414" lon="4.15341">
        <ele>394.76</ele>
        <time>2021-08-13T05:19:09Z</time>
      </trkpt>
      <trkpt lat="46.7342" lon="4.15333">
        <ele>394.28</ele>
        <time>2021-08-13T05:19:10Z</time>
      </trkpt>
      <trkpt lat="46.73424" lon="4.15323">
        <ele>393.32</ele>
        <time>2021-08-13T05:19:11Z</time>
      </trkpt>
      <trkpt lat="46.73425" lon="4.15311">
        <ele>393.32</ele>
        <time>2021-08-13T05:19:12Z</time>
      </trkpt>
      <trkpt lat="46.73427" lon="4.15299">
        <ele>392.36</ele>
        <time>2021-08-13T05:19:13Z</time>
      </trkpt>
      <trkpt lat="46.73429" lon="4.15286">
        <ele>391.87</ele>
        <time>2021-08-13T05:19:14Z</time>
      </trkpt>
      <trkpt lat="46.73433" lon="4.15274">
        <ele>390.91</ele>
        <time>2021-08-13T05:19:15Z</time>
      </trkpt>
      <trkpt lat="46.73442" lon="4.15253">
        <ele>389.47</ele>
        <time>2021-08-13T05:19:17Z</time>
      </trkpt>
      <trkpt lat="46.73448" lon="4.15243">
        <ele>388.99</ele>
        <time>2021-08-13T05:19:18Z</time>
      </trkpt>
      <trkpt lat="46.73455" lon="4.15233">
        <ele>388.51</ele>
        <time>2021-08-13T05:19:19Z</time>
      </trkpt>
      <trkpt lat="46.73463" lon="4.15224">
        <ele>387.55</ele>
        <time>2021-08-13T05:19:20Z</time>
      </trkpt>
      <trkpt lat="46.73471" lon="4.15215">
        <ele>387.07</ele>
        <time>2021-08-13T05:19:21Z</time>
      </trkpt>
      <trkpt lat="46.73479" lon="4.15207">
        <ele>386.11</ele>
        <time>2021-08-13T05:19:22Z</time>
      </trkpt>
      <trkpt lat="46.73489" lon="4.15199">
        <ele>385.15</ele>
        <time>2021-08-13T05:19:23Z</time>
      </trkpt>
      <trkpt lat="46.73509" lon="4.15184">
        <ele>384.66</ele>
        <time>2021-08-13T05:19:25Z</time>
      </trkpt>
      <trkpt lat="46.73519" lon="4.15181">
        <ele>383.22</ele>
        <time>2021-08-13T05:19:26Z</time>
      </trkpt>
      <trkpt lat="46.73529" lon="4.15179">
        <ele>383.22</ele>
        <time>2021-08-13T05:19:27Z</time>
      </trkpt>
      <trkpt lat="46.73539" lon="4.15176">
        <ele>382.26</ele>
        <time>2021-08-13T05:19:28Z</time>
      </trkpt>
      <trkpt lat="46.73549" lon="4.15171">
        <ele>381.3</ele>
        <time>2021-08-13T05:19:29Z</time>
      </trkpt>
      <trkpt lat="46.73566" lon="4.15157">
        <ele>380.82</ele>
        <time>2021-08-13T05:19:31Z</time>
      </trkpt>
      <trkpt lat="46.73572" lon="4.15144">
        <ele>379.86</ele>
        <time>2021-08-13T05:19:32Z</time>
      </trkpt>
      <trkpt lat="46.73576" lon="4.1513">
        <ele>378.42</ele>
        <time>2021-08-13T05:19:33Z</time>
      </trkpt>
      <trkpt lat="46.73578" lon="4.15114">
        <ele>377.94</ele>
        <time>2021-08-13T05:19:34Z</time>
      </trkpt>
      <trkpt lat="46.73578" lon="4.15098">
        <ele>377.94</ele>
        <time>2021-08-13T05:19:35Z</time>
      </trkpt>
      <trkpt lat="46.73576" lon="4.15082">
        <ele>376.97</ele>
        <time>2021-08-13T05:19:36Z</time>
      </trkpt>
      <trkpt lat="46.73573" lon="4.15066">
        <ele>376.01</ele>
        <time>2021-08-13T05:19:37Z</time>
      </trkpt>
      <trkpt lat="46.73569" lon="4.15051">
        <ele>375.05</ele>
        <time>2021-08-13T05:19:38Z</time>
      </trkpt>
      <trkpt lat="46.73549" lon="4.14972">
        <ele>372.17</ele>
        <time>2021-08-13T05:19:43Z</time>
      </trkpt>
      <trkpt lat="46.73548" lon="4.14958">
        <ele>370.73</ele>
        <time>2021-08-13T05:19:44Z</time>
      </trkpt>
      <trkpt lat="46.73549" lon="4.14942">
        <ele>370.24</ele>
        <time>2021-08-13T05:19:45Z</time>
      </trkpt>
      <trkpt lat="46.73553" lon="4.14928">
        <ele>369.76</ele>
        <time>2021-08-13T05:19:46Z</time>
      </trkpt>
      <trkpt lat="46.73558" lon="4.14915">
        <ele>368.8</ele>
        <time>2021-08-13T05:19:47Z</time>
      </trkpt>
      <trkpt lat="46.73563" lon="4.14903">
        <ele>368.8</ele>
        <time>2021-08-13T05:19:48Z</time>
      </trkpt>
      <trkpt lat="46.73569" lon="4.14892">
        <ele>367.36</ele>
        <time>2021-08-13T05:19:49Z</time>
      </trkpt>
      <trkpt lat="46.73576" lon="4.14879">
        <ele>366.88</ele>
        <time>2021-08-13T05:19:50Z</time>
      </trkpt>
      <trkpt lat="46.73581" lon="4.14867">
        <ele>365.92</ele>
        <time>2021-08-13T05:19:51Z</time>
      </trkpt>
      <trkpt lat="46.73586" lon="4.14854">
        <ele>365.44</ele>
        <time>2021-08-13T05:19:52Z</time>
      </trkpt>
      <trkpt lat="46.73601" lon="4.14817">
        <ele>364.48</ele>
        <time>2021-08-13T05:19:55Z</time>
      </trkpt>
      <trkpt lat="46.73616" lon="4.14788">
        <ele>363.52</ele>
        <time>2021-08-13T05:19:59Z</time>
      </trkpt>
      <trkpt lat="46.73617" lon="4.14783">
        <ele>363.52</ele>
        <time>2021-08-13T05:20:00Z</time>
      </trkpt>
      <trkpt lat="46.73616" lon="4.14781">
        <ele>363.04</ele>
        <time>2021-08-13T05:20:01Z</time>
      </trkpt>
      <trkpt lat="46.73613" lon="4.14781">
        <ele>363.04</ele>
        <time>2021-08-13T05:20:02Z</time>
      </trkpt>
      <trkpt lat="46.7361" lon="4.14784">
        <ele>362.55</ele>
        <time>2021-08-13T05:20:03Z</time>
      </trkpt>
      <trkpt lat="46.73608" lon="4.14787">
        <ele>362.55</ele>
        <time>2021-08-13T05:20:04Z</time>
      </trkpt>
      <trkpt lat="46.73606" lon="4.14791">
        <ele>362.55</ele>
        <time>2021-08-13T05:20:05Z</time>
      </trkpt>
      <trkpt lat="46.73589" lon="4.14823">
        <ele>362.55</ele>
        <time>2021-08-13T05:20:12Z</time>
      </trkpt>
      <trkpt lat="46.73574" lon="4.14851">
        <ele>362.55</ele>
        <time>2021-08-13T05:20:18Z</time>
      </trkpt>
      <trkpt lat="46.73565" lon="4.14863">
        <ele>362.55</ele>
        <time>2021-08-13T05:20:21Z</time>
      </trkpt>
      <trkpt lat="46.73562" lon="4.14866">
        <ele>362.55</ele>
        <time>2021-08-13T05:20:22Z</time>
      </trkpt>
      <trkpt lat="46.73558" lon="4.14869">
        <ele>362.55</ele>
        <time>2021-08-13T05:20:23Z</time>
      </trkpt>
      <trkpt lat="46.73554" lon="4.14872">
        <ele>362.55</ele>
        <time>2021-08-13T05:20:24Z</time>
      </trkpt>
      <trkpt lat="46.7355" lon="4.14874">
        <ele>362.55</ele>
        <time>2021-08-13T05:20:25Z</time>
      </trkpt>
      <trkpt lat="46.73527" lon="4.14902">
        <ele>362.55</ele>
        <time>2021-08-13T05:20:33Z</time>
      </trkpt>
      <trkpt lat="46.73517" lon="4.14943">
        <ele>362.55</ele>
        <time>2021-08-13T05:20:41Z</time>
      </trkpt>
      <trkpt lat="46.73519" lon="4.14972">
        <ele>362.55</ele>
        <time>2021-08-13T05:20:46Z</time>
      </trkpt>
      <trkpt lat="46.73534" lon="4.15019">
        <ele>363.52</ele>
        <time>2021-08-13T05:20:55Z</time>
      </trkpt>
      <trkpt lat="46.7353" lon="4.15043">
        <ele>363.52</ele>
        <time>2021-08-13T05:21:00Z</time>
      </trkpt>
      <trkpt lat="46.73514" lon="4.15055">
        <ele>363.52</ele>
        <time>2021-08-13T05:21:05Z</time>
      </trkpt>
      <trkpt lat="46.73485" lon="4.15057">
        <ele>364</ele>
        <time>2021-08-13T05:21:13Z</time>
      </trkpt>
      <trkpt lat="46.7346" lon="4.15075">
        <ele>364</ele>
        <time>2021-08-13T05:21:20Z</time>
      </trkpt>
      <trkpt lat="46.73432" lon="4.15104">
        <ele>364</ele>
        <time>2021-08-13T05:21:29Z</time>
      </trkpt>
      <trkpt lat="46.73418" lon="4.15122">
        <ele>364.48</ele>
        <time>2021-08-13T05:21:34Z</time>
      </trkpt>
      <trkpt lat="46.73396" lon="4.15139">
        <ele>364.48</ele>
        <time>2021-08-13T05:21:41Z</time>
      </trkpt>
      <trkpt lat="46.73373" lon="4.15138">
        <ele>364.48</ele>
        <time>2021-08-13T05:21:47Z</time>
      </trkpt>
      <trkpt lat="46.73354" lon="4.15139">
        <ele>364.48</ele>
        <time>2021-08-13T05:21:52Z</time>
      </trkpt>
      <trkpt lat="46.7333" lon="4.15148">
        <ele>364.48</ele>
        <time>2021-08-13T05:21:58Z</time>
      </trkpt>
      <trkpt lat="46.73297" lon="4.15161">
        <ele>364.48</ele>
        <time>2021-08-13T05:22:06Z</time>
      </trkpt>
      <trkpt lat="46.73288" lon="4.15164">
        <ele>364.48</ele>
        <time>2021-08-13T05:22:08Z</time>
      </trkpt>
      <trkpt lat="46.73253" lon="4.15182">
        <ele>364.96</ele>
        <time>2021-08-13T05:22:17Z</time>
      </trkpt>
      <trkpt lat="46.73234" lon="4.15191">
        <ele>365.44</ele>
        <time>2021-08-13T05:22:22Z</time>
      </trkpt>
      <trkpt lat="46.73229" lon="4.15192">
        <ele>365.44</ele>
        <time>2021-08-13T05:22:23Z</time>
      </trkpt>
      <trkpt lat="46.73201" lon="4.15189">
        <ele>365.44</ele>
        <time>2021-08-13T05:22:30Z</time>
      </trkpt>
      <trkpt lat="46.73172" lon="4.1518">
        <ele>364.96</ele>
        <time>2021-08-13T05:22:37Z</time>
      </trkpt>
      <trkpt lat="46.73159" lon="4.1518">
        <ele>364.96</ele>
        <time>2021-08-13T05:22:40Z</time>
      </trkpt>
      <trkpt lat="46.73155" lon="4.15179">
        <ele>364.96</ele>
        <time>2021-08-13T05:22:41Z</time>
      </trkpt>
      <trkpt lat="46.73151" lon="4.15177">
        <ele>364.96</ele>
        <time>2021-08-13T05:22:42Z</time>
      </trkpt>
      <trkpt lat="46.73146" lon="4.15173">
        <ele>364.96</ele>
        <time>2021-08-13T05:22:43Z</time>
      </trkpt>
      <trkpt lat="46.73143" lon="4.15171">
        <ele>364.96</ele>
        <time>2021-08-13T05:22:44Z</time>
      </trkpt>
      <trkpt lat="46.7314" lon="4.15168">
        <ele>364.96</ele>
        <time>2021-08-13T05:22:45Z</time>
      </trkpt>
      <trkpt lat="46.73129" lon="4.15156">
        <ele>364</ele>
        <time>2021-08-13T05:22:48Z</time>
      </trkpt>
      <trkpt lat="46.73125" lon="4.15153">
        <ele>364</ele>
        <time>2021-08-13T05:22:49Z</time>
      </trkpt>
      <trkpt lat="46.73121" lon="4.15151">
        <ele>364</ele>
        <time>2021-08-13T05:22:50Z</time>
      </trkpt>
      <trkpt lat="46.73095" lon="4.15135">
        <ele>364.96</ele>
        <time>2021-08-13T05:22:57Z</time>
      </trkpt>
      <trkpt lat="46.73071" lon="4.15107">
        <ele>364.48</ele>
        <time>2021-08-13T05:23:05Z</time>
      </trkpt>
      <trkpt lat="46.73068" lon="4.15102">
        <ele>364.48</ele>
        <time>2021-08-13T05:23:06Z</time>
      </trkpt>
      <trkpt lat="46.73065" lon="4.15097">
        <ele>364.48</ele>
        <time>2021-08-13T05:23:07Z</time>
      </trkpt>
      <trkpt lat="46.73052" lon="4.1508">
        <ele>363.52</ele>
        <time>2021-08-13T05:23:11Z</time>
      </trkpt>
      <trkpt lat="46.73049" lon="4.15078">
        <ele>363.52</ele>
        <time>2021-08-13T05:23:12Z</time>
      </trkpt>
      <trkpt lat="46.73027" lon="4.15072">
        <ele>364.96</ele>
        <time>2021-08-13T05:23:18Z</time>
      </trkpt>
      <trkpt lat="46.73007" lon="4.15066">
        <ele>365.44</ele>
        <time>2021-08-13T05:23:24Z</time>
      </trkpt>
      <trkpt lat="46.72986" lon="4.15056">
        <ele>366.88</ele>
        <time>2021-08-13T05:23:32Z</time>
      </trkpt>
      <trkpt lat="46.72968" lon="4.15043">
        <ele>366.88</ele>
        <time>2021-08-13T05:23:38Z</time>
      </trkpt>
      <trkpt lat="46.72951" lon="4.1503">
        <ele>366.88</ele>
        <time>2021-08-13T05:23:44Z</time>
      </trkpt>
      <trkpt lat="46.72927" lon="4.15016">
        <ele>367.36</ele>
        <time>2021-08-13T05:23:51Z</time>
      </trkpt>
      <trkpt lat="46.72923" lon="4.15013">
        <ele>365.92</ele>
        <time>2021-08-13T05:23:52Z</time>
      </trkpt>
      <trkpt lat="46.72919" lon="4.15011">
        <ele>365.92</ele>
        <time>2021-08-13T05:23:53Z</time>
      </trkpt>
      <trkpt lat="46.72904" lon="4.15004">
        <ele>364.96</ele>
        <time>2021-08-13T05:23:56Z</time>
      </trkpt>
      <trkpt lat="46.72899" lon="4.15">
        <ele>364.48</ele>
        <time>2021-08-13T05:23:57Z</time>
      </trkpt>
      <trkpt lat="46.72894" lon="4.14996">
        <ele>364</ele>
        <time>2021-08-13T05:23:58Z</time>
      </trkpt>
      <trkpt lat="46.72853" lon="4.1497">
        <ele>362.07</ele>
        <time>2021-08-13T05:24:05Z</time>
      </trkpt>
      <trkpt lat="46.72811" lon="4.14953">
        <ele>361.11</ele>
        <time>2021-08-13T05:24:12Z</time>
      </trkpt>
      <trkpt lat="46.72799" lon="4.1495">
        <ele>361.11</ele>
        <time>2021-08-13T05:24:14Z</time>
      </trkpt>
      <trkpt lat="46.72793" lon="4.1495">
        <ele>361.11</ele>
        <time>2021-08-13T05:24:15Z</time>
      </trkpt>
      <trkpt lat="46.72788" lon="4.14951">
        <ele>361.11</ele>
        <time>2021-08-13T05:24:16Z</time>
      </trkpt>
      <trkpt lat="46.72783" lon="4.14955">
        <ele>361.11</ele>
        <time>2021-08-13T05:24:17Z</time>
      </trkpt>
      <trkpt lat="46.72779" lon="4.14959">
        <ele>361.11</ele>
        <time>2021-08-13T05:24:18Z</time>
      </trkpt>
      <trkpt lat="46.72776" lon="4.14964">
        <ele>360.15</ele>
        <time>2021-08-13T05:24:19Z</time>
      </trkpt>
      <trkpt lat="46.72772" lon="4.14969">
        <ele>360.15</ele>
        <time>2021-08-13T05:24:20Z</time>
      </trkpt>
      <trkpt lat="46.72765" lon="4.14978">
        <ele>359.67</ele>
        <time>2021-08-13T05:24:22Z</time>
      </trkpt>
      <trkpt lat="46.72761" lon="4.14984">
        <ele>359.67</ele>
        <time>2021-08-13T05:24:23Z</time>
      </trkpt>
      <trkpt lat="46.72743" lon="4.15014">
        <ele>356.79</ele>
        <time>2021-08-13T05:24:28Z</time>
      </trkpt>
      <trkpt lat="46.72731" lon="4.15032">
        <ele>352.46</ele>
        <time>2021-08-13T05:24:31Z</time>
      </trkpt>
      <trkpt lat="46.72715" lon="4.1506">
        <ele>348.13</ele>
        <time>2021-08-13T05:24:34Z</time>
      </trkpt>
      <trkpt lat="46.72692" lon="4.15097">
        <ele>345.73</ele>
        <time>2021-08-13T05:24:38Z</time>
      </trkpt>
      <trkpt lat="46.72673" lon="4.15128">
        <ele>343.33</ele>
        <time>2021-08-13T05:24:42Z</time>
      </trkpt>
      <trkpt lat="46.72668" lon="4.15137">
        <ele>342.37</ele>
        <time>2021-08-13T05:24:43Z</time>
      </trkpt>
      <trkpt lat="46.72662" lon="4.15145">
        <ele>341.41</ele>
        <time>2021-08-13T05:24:44Z</time>
      </trkpt>
      <trkpt lat="46.72649" lon="4.1516">
        <ele>340.44</ele>
        <time>2021-08-13T05:24:46Z</time>
      </trkpt>
      <trkpt lat="46.72631" lon="4.15173">
        <ele>338.52</ele>
        <time>2021-08-13T05:24:48Z</time>
      </trkpt>
      <trkpt lat="46.72612" lon="4.1519">
        <ele>337.08</ele>
        <time>2021-08-13T05:24:50Z</time>
      </trkpt>
      <trkpt lat="46.72586" lon="4.15213">
        <ele>336.6</ele>
        <time>2021-08-13T05:24:53Z</time>
      </trkpt>
      <trkpt lat="46.7258" lon="4.15222">
        <ele>336.6</ele>
        <time>2021-08-13T05:24:54Z</time>
      </trkpt>
      <trkpt lat="46.72561" lon="4.15251">
        <ele>338.52</ele>
        <time>2021-08-13T05:24:58Z</time>
      </trkpt>
      <trkpt lat="46.72558" lon="4.15255">
        <ele>339</ele>
        <time>2021-08-13T05:24:59Z</time>
      </trkpt>
      <trkpt lat="46.72539" lon="4.15274">
        <ele>339.96</ele>
        <time>2021-08-13T05:25:05Z</time>
      </trkpt>
      <trkpt lat="46.72536" lon="4.15277">
        <ele>339.96</ele>
        <time>2021-08-13T05:25:06Z</time>
      </trkpt>
      <trkpt lat="46.72532" lon="4.15281">
        <ele>339.96</ele>
        <time>2021-08-13T05:25:07Z</time>
      </trkpt>
      <trkpt lat="46.72518" lon="4.15291">
        <ele>339.96</ele>
        <time>2021-08-13T05:25:11Z</time>
      </trkpt>
      <trkpt lat="46.72514" lon="4.15294">
        <ele>339.96</ele>
        <time>2021-08-13T05:25:12Z</time>
      </trkpt>
      <trkpt lat="46.72496" lon="4.15307">
        <ele>338.52</ele>
        <time>2021-08-13T05:25:17Z</time>
      </trkpt>
      <trkpt lat="46.72491" lon="4.15309">
        <ele>338.52</ele>
        <time>2021-08-13T05:25:18Z</time>
      </trkpt>
      <trkpt lat="46.72478" lon="4.15315">
        <ele>337.08</ele>
        <time>2021-08-13T05:25:21Z</time>
      </trkpt>
      <trkpt lat="46.72473" lon="4.15317">
        <ele>336.6</ele>
        <time>2021-08-13T05:25:22Z</time>
      </trkpt>
      <trkpt lat="46.72467" lon="4.15319">
        <ele>336.12</ele>
        <time>2021-08-13T05:25:23Z</time>
      </trkpt>
      <trkpt lat="46.72442" lon="4.15324">
        <ele>332.75</ele>
        <time>2021-08-13T05:25:27Z</time>
      </trkpt>
      <trkpt lat="46.72401" lon="4.15325">
        <ele>329.87</ele>
        <time>2021-08-13T05:25:33Z</time>
      </trkpt>
      <trkpt lat="46.72395" lon="4.15327">
        <ele>329.87</ele>
        <time>2021-08-13T05:25:34Z</time>
      </trkpt>
      <trkpt lat="46.72389" lon="4.1533">
        <ele>329.87</ele>
        <time>2021-08-13T05:25:35Z</time>
      </trkpt>
      <trkpt lat="46.72383" lon="4.15334">
        <ele>329.39</ele>
        <time>2021-08-13T05:25:36Z</time>
      </trkpt>
      <trkpt lat="46.72373" lon="4.15345">
        <ele>329.39</ele>
        <time>2021-08-13T05:25:38Z</time>
      </trkpt>
      <trkpt lat="46.7235" lon="4.15379">
        <ele>327.95</ele>
        <time>2021-08-13T05:25:43Z</time>
      </trkpt>
      <trkpt lat="46.72344" lon="4.15384">
        <ele>327.47</ele>
        <time>2021-08-13T05:25:44Z</time>
      </trkpt>
      <trkpt lat="46.72338" lon="4.15389">
        <ele>326.99</ele>
        <time>2021-08-13T05:25:45Z</time>
      </trkpt>
      <trkpt lat="46.72296" lon="4.15411">
        <ele>323.14</ele>
        <time>2021-08-13T05:25:51Z</time>
      </trkpt>
      <trkpt lat="46.72278" lon="4.15423">
        <ele>322.18</ele>
        <time>2021-08-13T05:25:54Z</time>
      </trkpt>
      <trkpt lat="46.72273" lon="4.1543">
        <ele>321.7</ele>
        <time>2021-08-13T05:25:55Z</time>
      </trkpt>
      <trkpt lat="46.72268" lon="4.15437">
        <ele>320.74</ele>
        <time>2021-08-13T05:25:56Z</time>
      </trkpt>
      <trkpt lat="46.72263" lon="4.15445">
        <ele>320.74</ele>
        <time>2021-08-13T05:25:57Z</time>
      </trkpt>
      <trkpt lat="46.72257" lon="4.15452">
        <ele>320.26</ele>
        <time>2021-08-13T05:25:58Z</time>
      </trkpt>
      <trkpt lat="46.72214" lon="4.15511">
        <ele>317.85</ele>
        <time>2021-08-13T05:26:06Z</time>
      </trkpt>
      <trkpt lat="46.72166" lon="4.15575">
        <ele>314.97</ele>
        <time>2021-08-13T05:26:15Z</time>
      </trkpt>
      <trkpt lat="46.72111" lon="4.15637">
        <ele>313.05</ele>
        <time>2021-08-13T05:26:25Z</time>
      </trkpt>
      <trkpt lat="46.72084" lon="4.15657">
        <ele>312.09</ele>
        <time>2021-08-13T05:26:31Z</time>
      </trkpt>
      <trkpt lat="46.72076" lon="4.15662">
        <ele>311.6</ele>
        <time>2021-08-13T05:26:33Z</time>
      </trkpt>
      <trkpt lat="46.72071" lon="4.15665">
        <ele>311.6</ele>
        <time>2021-08-13T05:26:34Z</time>
      </trkpt>
      <trkpt lat="46.72038" lon="4.15691">
        <ele>308.24</ele>
        <time>2021-08-13T05:26:40Z</time>
      </trkpt>
      <trkpt lat="46.71974" lon="4.15744">
        <ele>306.32</ele>
        <time>2021-08-13T05:26:50Z</time>
      </trkpt>
      <trkpt lat="46.71927" lon="4.15774">
        <ele>305.36</ele>
        <time>2021-08-13T05:26:57Z</time>
      </trkpt>
      <trkpt lat="46.71921" lon="4.15776">
        <ele>305.36</ele>
        <time>2021-08-13T05:26:58Z</time>
      </trkpt>
      <trkpt lat="46.71914" lon="4.15778">
        <ele>305.36</ele>
        <time>2021-08-13T05:26:59Z</time>
      </trkpt>
      <trkpt lat="46.71857" lon="4.1578">
        <ele>305.36</ele>
        <time>2021-08-13T05:27:08Z</time>
      </trkpt>
      <trkpt lat="46.7179" lon="4.15774">
        <ele>303.43</ele>
        <time>2021-08-13T05:27:18Z</time>
      </trkpt>
      <trkpt lat="46.7177" lon="4.15773">
        <ele>303.43</ele>
        <time>2021-08-13T05:27:21Z</time>
      </trkpt>
      <trkpt lat="46.71707" lon="4.15768">
        <ele>302.47</ele>
        <time>2021-08-13T05:27:30Z</time>
      </trkpt>
      <trkpt lat="46.7166" lon="4.15755">
        <ele>301.51</ele>
        <time>2021-08-13T05:27:37Z</time>
      </trkpt>
      <trkpt lat="46.71648" lon="4.15746">
        <ele>301.51</ele>
        <time>2021-08-13T05:27:39Z</time>
      </trkpt>
      <trkpt lat="46.71612" lon="4.15711">
        <ele>302.95</ele>
        <time>2021-08-13T05:27:47Z</time>
      </trkpt>
      <trkpt lat="46.71591" lon="4.15691">
        <ele>303.43</ele>
        <time>2021-08-13T05:27:53Z</time>
      </trkpt>
      <trkpt lat="46.71586" lon="4.15688">
        <ele>303.43</ele>
        <time>2021-08-13T05:27:54Z</time>
      </trkpt>
      <trkpt lat="46.71581" lon="4.15688">
        <ele>303.43</ele>
        <time>2021-08-13T05:27:55Z</time>
      </trkpt>
      <trkpt lat="46.71576" lon="4.15689">
        <ele>301.99</ele>
        <time>2021-08-13T05:27:56Z</time>
      </trkpt>
      <trkpt lat="46.71571" lon="4.15692">
        <ele>301.99</ele>
        <time>2021-08-13T05:27:57Z</time>
      </trkpt>
      <trkpt lat="46.71567" lon="4.15695">
        <ele>301.99</ele>
        <time>2021-08-13T05:27:58Z</time>
      </trkpt>
      <trkpt lat="46.71562" lon="4.157">
        <ele>301.03</ele>
        <time>2021-08-13T05:27:59Z</time>
      </trkpt>
      <trkpt lat="46.71523" lon="4.15745">
        <ele>298.63</ele>
        <time>2021-08-13T05:28:07Z</time>
      </trkpt>
      <trkpt lat="46.71491" lon="4.15792">
        <ele>294.3</ele>
        <time>2021-08-13T05:28:13Z</time>
      </trkpt>
      <trkpt lat="46.71472" lon="4.15823">
        <ele>290.94</ele>
        <time>2021-08-13T05:28:16Z</time>
      </trkpt>
      <trkpt lat="46.71417" lon="4.15913">
        <ele>288.05</ele>
        <time>2021-08-13T05:28:24Z</time>
      </trkpt>
      <trkpt lat="46.71387" lon="4.15968">
        <ele>289.97</ele>
        <time>2021-08-13T05:28:30Z</time>
      </trkpt>
      <trkpt lat="46.71383" lon="4.15975">
        <ele>289.97</ele>
        <time>2021-08-13T05:28:31Z</time>
      </trkpt>
      <trkpt lat="46.7137" lon="4.16001">
        <ele>292.86</ele>
        <time>2021-08-13T05:28:36Z</time>
      </trkpt>
      <trkpt lat="46.71359" lon="4.1602">
        <ele>294.78</ele>
        <time>2021-08-13T05:28:43Z</time>
      </trkpt>
      <trkpt lat="46.71344" lon="4.16048">
        <ele>296.22</ele>
        <time>2021-08-13T05:28:55Z</time>
      </trkpt>
      <trkpt lat="46.71334" lon="4.16067">
        <ele>297.67</ele>
        <time>2021-08-13T05:29:04Z</time>
      </trkpt>
      <trkpt lat="46.71324" lon="4.16084">
        <ele>299.11</ele>
        <time>2021-08-13T05:29:13Z</time>
      </trkpt>
      <trkpt lat="46.71316" lon="4.16099">
        <ele>300.07</ele>
        <time>2021-08-13T05:29:20Z</time>
      </trkpt>
      <trkpt lat="46.71307" lon="4.16117">
        <ele>301.51</ele>
        <time>2021-08-13T05:29:30Z</time>
      </trkpt>
      <trkpt lat="46.71299" lon="4.16135">
        <ele>302.47</ele>
        <time>2021-08-13T05:29:39Z</time>
      </trkpt>
      <trkpt lat="46.71285" lon="4.16155">
        <ele>303.91</ele>
        <time>2021-08-13T05:29:51Z</time>
      </trkpt>
      <trkpt lat="46.71274" lon="4.1616">
        <ele>304.88</ele>
        <time>2021-08-13T05:29:59Z</time>
      </trkpt>
      <trkpt lat="46.7126" lon="4.16152">
        <ele>305.84</ele>
        <time>2021-08-13T05:30:08Z</time>
      </trkpt>
      <trkpt lat="46.7125" lon="4.16141">
        <ele>307.28</ele>
        <time>2021-08-13T05:30:15Z</time>
      </trkpt>
      <trkpt lat="46.71239" lon="4.16131">
        <ele>307.76</ele>
        <time>2021-08-13T05:30:23Z</time>
      </trkpt>
      <trkpt lat="46.71226" lon="4.16117">
        <ele>309.2</ele>
        <time>2021-08-13T05:30:33Z</time>
      </trkpt>
      <trkpt lat="46.71213" lon="4.16104">
        <ele>311.12</ele>
        <time>2021-08-13T05:30:43Z</time>
      </trkpt>
      <trkpt lat="46.71211" lon="4.16102">
        <ele>311.12</ele>
        <time>2021-08-13T05:30:44Z</time>
      </trkpt>
      <trkpt lat="46.71209" lon="4.16101">
        <ele>311.12</ele>
        <time>2021-08-13T05:30:45Z</time>
      </trkpt>
      <trkpt lat="46.71208" lon="4.161">
        <ele>311.12</ele>
        <time>2021-08-13T05:30:46Z</time>
      </trkpt>
      <trkpt lat="46.71206" lon="4.16099">
        <ele>311.12</ele>
        <time>2021-08-13T05:30:47Z</time>
      </trkpt>
      <trkpt lat="46.71205" lon="4.16096">
        <ele>311.12</ele>
        <time>2021-08-13T05:30:48Z</time>
      </trkpt>
      <trkpt lat="46.71204" lon="4.16094">
        <ele>311.6</ele>
        <time>2021-08-13T05:30:49Z</time>
      </trkpt>
      <trkpt lat="46.71194" lon="4.1608">
        <ele>312.09</ele>
        <time>2021-08-13T05:30:56Z</time>
      </trkpt>
      <trkpt lat="46.71182" lon="4.16063">
        <ele>313.05</ele>
        <time>2021-08-13T05:31:04Z</time>
      </trkpt>
      <trkpt lat="46.71171" lon="4.16048">
        <ele>314.01</ele>
        <time>2021-08-13T05:31:11Z</time>
      </trkpt>
      <trkpt lat="46.71158" lon="4.1603">
        <ele>314.49</ele>
        <time>2021-08-13T05:31:19Z</time>
      </trkpt>
      <trkpt lat="46.71141" lon="4.16008">
        <ele>314.49</ele>
        <time>2021-08-13T05:31:27Z</time>
      </trkpt>
      <trkpt lat="46.71119" lon="4.15977">
        <ele>314.49</ele>
        <time>2021-08-13T05:31:36Z</time>
      </trkpt>
      <trkpt lat="46.71101" lon="4.15953">
        <ele>313.05</ele>
        <time>2021-08-13T05:31:42Z</time>
      </trkpt>
      <trkpt lat="46.71072" lon="4.15912">
        <ele>311.12</ele>
        <time>2021-08-13T05:31:50Z</time>
      </trkpt>
      <trkpt lat="46.71036" lon="4.15861">
        <ele>308.24</ele>
        <time>2021-08-13T05:31:57Z</time>
      </trkpt>
      <trkpt lat="46.70977" lon="4.15778">
        <ele>304.39</ele>
        <time>2021-08-13T05:32:07Z</time>
      </trkpt>
      <trkpt lat="46.70915" lon="4.15693">
        <ele>301.03</ele>
        <time>2021-08-13T05:32:17Z</time>
      </trkpt>
      <trkpt lat="46.70863" lon="4.1562">
        <ele>297.67</ele>
        <time>2021-08-13T05:32:25Z</time>
      </trkpt>
      <trkpt lat="46.70835" lon="4.1558">
        <ele>294.78</ele>
        <time>2021-08-13T05:32:29Z</time>
      </trkpt>
      <trkpt lat="46.70827" lon="4.15568">
        <ele>294.78</ele>
        <time>2021-08-13T05:32:30Z</time>
      </trkpt>
      <trkpt lat="46.70789" lon="4.15517">
        <ele>291.42</ele>
        <time>2021-08-13T05:32:35Z</time>
      </trkpt>
      <trkpt lat="46.70732" lon="4.15449">
        <ele>289.01</ele>
        <time>2021-08-13T05:32:42Z</time>
      </trkpt>
      <trkpt lat="46.70687" lon="4.15396">
        <ele>290.94</ele>
        <time>2021-08-13T05:32:48Z</time>
      </trkpt>
      <trkpt lat="46.7065" lon="4.15346">
        <ele>293.34</ele>
        <time>2021-08-13T05:32:55Z</time>
      </trkpt>
      <trkpt lat="46.70622" lon="4.15307">
        <ele>294.78</ele>
        <time>2021-08-13T05:33:02Z</time>
      </trkpt>
      <trkpt lat="46.70589" lon="4.15259">
        <ele>295.26</ele>
        <time>2021-08-13T05:33:12Z</time>
      </trkpt>
      <trkpt lat="46.70558" lon="4.15214">
        <ele>295.74</ele>
        <time>2021-08-13T05:33:21Z</time>
      </trkpt>
      <trkpt lat="46.70515" lon="4.15151">
        <ele>294.3</ele>
        <time>2021-08-13T05:33:32Z</time>
      </trkpt>
      <trkpt lat="46.70474" lon="4.15091">
        <ele>293.34</ele>
        <time>2021-08-13T05:33:42Z</time>
      </trkpt>
      <trkpt lat="46.70442" lon="4.15044">
        <ele>290.94</ele>
        <time>2021-08-13T05:33:50Z</time>
      </trkpt>
      <trkpt lat="46.7042" lon="4.15013">
        <ele>290.46</ele>
        <time>2021-08-13T05:33:55Z</time>
      </trkpt>
      <trkpt lat="46.70418" lon="4.15008">
        <ele>290.46</ele>
        <time>2021-08-13T05:33:56Z</time>
      </trkpt>
      <trkpt lat="46.70417" lon="4.15005">
        <ele>290.46</ele>
        <time>2021-08-13T05:33:57Z</time>
      </trkpt>
      <trkpt lat="46.70416" lon="4.15003">
        <ele>290.46</ele>
        <time>2021-08-13T05:33:58Z</time>
      </trkpt>
      <trkpt lat="46.70415" lon="4.15001">
        <ele>290.46</ele>
        <time>2021-08-13T05:34:04Z</time>
      </trkpt>
      <trkpt lat="46.70415" lon="4.15002">
        <ele>290.46</ele>
        <time>2021-08-13T05:34:19Z</time>
      </trkpt>
      <trkpt lat="46.70415" lon="4.15002">
        <ele>290.46</ele>
        <time>2021-08-13T05:34:25Z</time>
      </trkpt>
      <trkpt lat="46.70415" lon="4.14998">
        <ele>289.97</ele>
        <time>2021-08-13T05:34:43Z</time>
      </trkpt>
      <trkpt lat="46.70413" lon="4.14997">
        <ele>289.49</ele>
        <time>2021-08-13T05:34:52Z</time>
      </trkpt>
      <trkpt lat="46.70413" lon="4.15">
        <ele>289.01</ele>
        <time>2021-08-13T05:35:18Z</time>
      </trkpt>
      <trkpt lat="46.70414" lon="4.15">
        <ele>288.53</ele>
        <time>2021-08-13T05:35:35Z</time>
      </trkpt>
      <trkpt lat="46.70411" lon="4.14998">
        <ele>289.97</ele>
        <time>2021-08-13T05:35:41Z</time>
      </trkpt>
      <trkpt lat="46.70409" lon="4.14996">
        <ele>289.97</ele>
        <time>2021-08-13T05:35:49Z</time>
      </trkpt>
      <trkpt lat="46.704" lon="4.14982">
        <ele>289.97</ele>
        <time>2021-08-13T05:35:56Z</time>
      </trkpt>
      <trkpt lat="46.70386" lon="4.14962">
        <ele>289.97</ele>
        <time>2021-08-13T05:36:03Z</time>
      </trkpt>
      <trkpt lat="46.70365" lon="4.14931">
        <ele>289.97</ele>
        <time>2021-08-13T05:36:12Z</time>
      </trkpt>
      <trkpt lat="46.70344" lon="4.14899">
        <ele>289.97</ele>
        <time>2021-08-13T05:36:21Z</time>
      </trkpt>
      <trkpt lat="46.70321" lon="4.14865">
        <ele>289.97</ele>
        <time>2021-08-13T05:36:30Z</time>
      </trkpt>
      <trkpt lat="46.70296" lon="4.14829">
        <ele>289.97</ele>
        <time>2021-08-13T05:36:39Z</time>
      </trkpt>
      <trkpt lat="46.70267" lon="4.14788">
        <ele>289.97</ele>
        <time>2021-08-13T05:36:49Z</time>
      </trkpt>
      <trkpt lat="46.70232" lon="4.14738">
        <ele>289.97</ele>
        <time>2021-08-13T05:37:00Z</time>
      </trkpt>
      <trkpt lat="46.70224" lon="4.14727">
        <ele>288.53</ele>
        <time>2021-08-13T05:37:02Z</time>
      </trkpt>
      <trkpt lat="46.70189" lon="4.14676">
        <ele>287.57</ele>
        <time>2021-08-13T05:37:11Z</time>
      </trkpt>
      <trkpt lat="46.70144" lon="4.14612">
        <ele>285.65</ele>
        <time>2021-08-13T05:37:21Z</time>
      </trkpt>
      <trkpt lat="46.70097" lon="4.14546">
        <ele>283.73</ele>
        <time>2021-08-13T05:37:30Z</time>
      </trkpt>
      <trkpt lat="46.70035" lon="4.14461">
        <ele>282.28</ele>
        <time>2021-08-13T05:37:41Z</time>
      </trkpt>
      <trkpt lat="46.69977" lon="4.14378">
        <ele>280.36</ele>
        <time>2021-08-13T05:37:52Z</time>
      </trkpt>
      <trkpt lat="46.69946" lon="4.14336">
        <ele>277</ele>
        <time>2021-08-13T05:37:57Z</time>
      </trkpt>
      <trkpt lat="46.6994" lon="4.14326">
        <ele>277</ele>
        <time>2021-08-13T05:37:58Z</time>
      </trkpt>
      <trkpt lat="46.69881" lon="4.14243">
        <ele>273.63</ele>
        <time>2021-08-13T05:38:07Z</time>
      </trkpt>
      <trkpt lat="46.69828" lon="4.14168">
        <ele>273.15</ele>
        <time>2021-08-13T05:38:16Z</time>
      </trkpt>
      <trkpt lat="46.69776" lon="4.14094">
        <ele>273.15</ele>
        <time>2021-08-13T05:38:26Z</time>
      </trkpt>
      <trkpt lat="46.69736" lon="4.14037">
        <ele>271.23</ele>
        <time>2021-08-13T05:38:34Z</time>
      </trkpt>
      <trkpt lat="46.69731" lon="4.14029">
        <ele>270.75</ele>
        <time>2021-08-13T05:38:35Z</time>
      </trkpt>
      <trkpt lat="46.69693" lon="4.13974">
        <ele>268.35</ele>
        <time>2021-08-13T05:38:42Z</time>
      </trkpt>
      <trkpt lat="46.69688" lon="4.13969">
        <ele>267.86</ele>
        <time>2021-08-13T05:38:43Z</time>
      </trkpt>
      <trkpt lat="46.69682" lon="4.13966">
        <ele>267.38</ele>
        <time>2021-08-13T05:38:44Z</time>
      </trkpt>
      <trkpt lat="46.69676" lon="4.13965">
        <ele>266.42</ele>
        <time>2021-08-13T05:38:45Z</time>
      </trkpt>
      <trkpt lat="46.6967" lon="4.13965">
        <ele>265.94</ele>
        <time>2021-08-13T05:38:46Z</time>
      </trkpt>
      <trkpt lat="46.69665" lon="4.13966">
        <ele>265.46</ele>
        <time>2021-08-13T05:38:47Z</time>
      </trkpt>
      <trkpt lat="46.69635" lon="4.13965">
        <ele>263.54</ele>
        <time>2021-08-13T05:38:52Z</time>
      </trkpt>
      <trkpt lat="46.6963" lon="4.13964">
        <ele>262.58</ele>
        <time>2021-08-13T05:38:53Z</time>
      </trkpt>
      <trkpt lat="46.69625" lon="4.13962">
        <ele>263.06</ele>
        <time>2021-08-13T05:38:54Z</time>
      </trkpt>
      <trkpt lat="46.69616" lon="4.13962">
        <ele>262.58</ele>
        <time>2021-08-13T05:38:56Z</time>
      </trkpt>
      <trkpt lat="46.69611" lon="4.13962">
        <ele>262.58</ele>
        <time>2021-08-13T05:38:57Z</time>
      </trkpt>
      <trkpt lat="46.69607" lon="4.13962">
        <ele>262.58</ele>
        <time>2021-08-13T05:38:58Z</time>
      </trkpt>
      <trkpt lat="46.69602" lon="4.13963">
        <ele>262.58</ele>
        <time>2021-08-13T05:38:59Z</time>
      </trkpt>
      <trkpt lat="46.69598" lon="4.13964">
        <ele>262.58</ele>
        <time>2021-08-13T05:39:00Z</time>
      </trkpt>
      <trkpt lat="46.69562" lon="4.13962">
        <ele>263.06</ele>
        <time>2021-08-13T05:39:08Z</time>
      </trkpt>
      <trkpt lat="46.69528" lon="4.13961">
        <ele>263.06</ele>
        <time>2021-08-13T05:39:16Z</time>
      </trkpt>
      <trkpt lat="46.69497" lon="4.1396">
        <ele>262.1</ele>
        <time>2021-08-13T05:39:21Z</time>
      </trkpt>
      <trkpt lat="46.69462" lon="4.1396">
        <ele>261.62</ele>
        <time>2021-08-13T05:39:28Z</time>
      </trkpt>
      <trkpt lat="46.6944" lon="4.1396">
        <ele>263.06</ele>
        <time>2021-08-13T05:39:34Z</time>
      </trkpt>
      <trkpt lat="46.6942" lon="4.13961">
        <ele>264.02</ele>
        <time>2021-08-13T05:39:41Z</time>
      </trkpt>
      <trkpt lat="46.69396" lon="4.13961">
        <ele>266.42</ele>
        <time>2021-08-13T05:39:51Z</time>
      </trkpt>
      <trkpt lat="46.6937" lon="4.13957">
        <ele>268.35</ele>
        <time>2021-08-13T05:40:02Z</time>
      </trkpt>
      <trkpt lat="46.69352" lon="4.13949">
        <ele>270.27</ele>
        <time>2021-08-13T05:40:12Z</time>
      </trkpt>
      <trkpt lat="46.6935" lon="4.1395">
        <ele>270.27</ele>
        <time>2021-08-13T05:40:13Z</time>
      </trkpt>
      <trkpt lat="46.6935" lon="4.13951">
        <ele>270.27</ele>
        <time>2021-08-13T05:40:14Z</time>
      </trkpt>
      <trkpt lat="46.6935" lon="4.13953">
        <ele>270.27</ele>
        <time>2021-08-13T05:40:15Z</time>
      </trkpt>
      <trkpt lat="46.6935" lon="4.13955">
        <ele>270.27</ele>
        <time>2021-08-13T05:40:16Z</time>
      </trkpt>
      <trkpt lat="46.6935" lon="4.13957">
        <ele>269.79</ele>
        <time>2021-08-13T05:40:17Z</time>
      </trkpt>
      <trkpt lat="46.6935" lon="4.13959">
        <ele>269.79</ele>
        <time>2021-08-13T05:40:18Z</time>
      </trkpt>
      <trkpt lat="46.6935" lon="4.13961">
        <ele>269.79</ele>
        <time>2021-08-13T05:40:24Z</time>
      </trkpt>
      <trkpt lat="46.69351" lon="4.13961">
        <ele>270.27</ele>
        <time>2021-08-13T05:40:32Z</time>
      </trkpt>
      <trkpt lat="46.6935" lon="4.13959">
        <ele>270.27</ele>
        <time>2021-08-13T05:40:47Z</time>
      </trkpt>
      <trkpt lat="46.69349" lon="4.13961">
        <ele>270.27</ele>
        <time>2021-08-13T05:40:48Z</time>
      </trkpt>
      <trkpt lat="46.69349" lon="4.13962">
        <ele>270.27</ele>
        <time>2021-08-13T05:40:49Z</time>
      </trkpt>
      <trkpt lat="46.69344" lon="4.13974">
        <ele>270.27</ele>
        <time>2021-08-13T05:40:58Z</time>
      </trkpt>
      <trkpt lat="46.69345" lon="4.13973">
        <ele>270.27</ele>
        <time>2021-08-13T05:40:59Z</time>
      </trkpt>
      <trkpt lat="46.69346" lon="4.13972">
        <ele>270.27</ele>
        <time>2021-08-13T05:41:00Z</time>
      </trkpt>
      <trkpt lat="46.69346" lon="4.1397">
        <ele>270.27</ele>
        <time>2021-08-13T05:41:01Z</time>
      </trkpt>
      <trkpt lat="46.69346" lon="4.13969">
        <ele>270.27</ele>
        <time>2021-08-13T05:41:02Z</time>
      </trkpt>
      <trkpt lat="46.69347" lon="4.13967">
        <ele>270.27</ele>
        <time>2021-08-13T05:41:03Z</time>
      </trkpt>
      <trkpt lat="46.69347" lon="4.13966">
        <ele>270.27</ele>
        <time>2021-08-13T05:41:04Z</time>
      </trkpt>
      <trkpt lat="46.69351" lon="4.13959">
        <ele>270.27</ele>
        <time>2021-08-13T05:41:12Z</time>
      </trkpt>
      <trkpt lat="46.69353" lon="4.13958">
        <ele>270.27</ele>
        <time>2021-08-13T05:41:23Z</time>
      </trkpt>
      <trkpt lat="46.69352" lon="4.13956">
        <ele>270.27</ele>
        <time>2021-08-13T05:41:28Z</time>
      </trkpt>
      <trkpt lat="46.69348" lon="4.1396">
        <ele>270.27</ele>
        <time>2021-08-13T05:41:35Z</time>
      </trkpt>
      <trkpt lat="46.69345" lon="4.13958">
        <ele>270.27</ele>
        <time>2021-08-13T05:41:40Z</time>
      </trkpt>
      <trkpt lat="46.69345" lon="4.13956">
        <ele>270.27</ele>
        <time>2021-08-13T05:41:41Z</time>
      </trkpt>
      <trkpt lat="46.69344" lon="4.13954">
        <ele>270.27</ele>
        <time>2021-08-13T05:41:42Z</time>
      </trkpt>
      <trkpt lat="46.69344" lon="4.13952">
        <ele>270.27</ele>
        <time>2021-08-13T05:41:43Z</time>
      </trkpt>
      <trkpt lat="46.69343" lon="4.13951">
        <ele>270.27</ele>
        <time>2021-08-13T05:41:44Z</time>
      </trkpt>
      <trkpt lat="46.69336" lon="4.13931">
        <ele>270.75</ele>
        <time>2021-08-13T05:41:54Z</time>
      </trkpt>
      <trkpt lat="46.69336" lon="4.13927">
        <ele>270.75</ele>
        <time>2021-08-13T05:41:56Z</time>
      </trkpt>
      <trkpt lat="46.69336" lon="4.13925">
        <ele>270.75</ele>
        <time>2021-08-13T05:41:57Z</time>
      </trkpt>
      <trkpt lat="46.69335" lon="4.13923">
        <ele>270.75</ele>
        <time>2021-08-13T05:41:58Z</time>
      </trkpt>
      <trkpt lat="46.69335" lon="4.13921">
        <ele>270.75</ele>
        <time>2021-08-13T05:41:59Z</time>
      </trkpt>
      <trkpt lat="46.69335" lon="4.1392">
        <ele>270.75</ele>
        <time>2021-08-13T05:42:00Z</time>
      </trkpt>
      <trkpt lat="46.69335" lon="4.13917">
        <ele>270.75</ele>
        <time>2021-08-13T05:42:07Z</time>
      </trkpt>
      <trkpt lat="46.69335" lon="4.13917">
        <ele>270.75</ele>
        <time>2021-08-13T05:42:18Z</time>
      </trkpt>
      <trkpt lat="46.69331" lon="4.1392">
        <ele>270.75</ele>
        <time>2021-08-13T05:42:32Z</time>
      </trkpt>
      <trkpt lat="46.69328" lon="4.13923">
        <ele>270.75</ele>
        <time>2021-08-13T05:42:47Z</time>
      </trkpt>
      <trkpt lat="46.69324" lon="4.13924">
        <ele>270.75</ele>
        <time>2021-08-13T05:43:01Z</time>
      </trkpt>
      <trkpt lat="46.69323" lon="4.13925">
        <ele>270.27</ele>
        <time>2021-08-13T05:43:16Z</time>
      </trkpt>
      <trkpt lat="46.69321" lon="4.13927">
        <ele>270.27</ele>
        <time>2021-08-13T05:43:28Z</time>
      </trkpt>
      <trkpt lat="46.69318" lon="4.1393">
        <ele>270.27</ele>
        <time>2021-08-13T05:43:38Z</time>
      </trkpt>
      <trkpt lat="46.69315" lon="4.13931">
        <ele>270.27</ele>
        <time>2021-08-13T05:43:54Z</time>
      </trkpt>
      <trkpt lat="46.69312" lon="4.13932">
        <ele>270.27</ele>
        <time>2021-08-13T05:44:09Z</time>
      </trkpt>
      <trkpt lat="46.69309" lon="4.13935">
        <ele>270.27</ele>
        <time>2021-08-13T05:44:18Z</time>
      </trkpt>
      <trkpt lat="46.69308" lon="4.13936">
        <ele>270.27</ele>
        <time>2021-08-13T05:44:26Z</time>
      </trkpt>
      <trkpt lat="46.69308" lon="4.13934">
        <ele>270.27</ele>
        <time>2021-08-13T05:44:40Z</time>
      </trkpt>
      <trkpt lat="46.69307" lon="4.13934">
        <ele>270.27</ele>
        <time>2021-08-13T05:44:59Z</time>
      </trkpt>
      <trkpt lat="46.69307" lon="4.13936">
        <ele>269.79</ele>
        <time>2021-08-13T05:45:14Z</time>
      </trkpt>
      <trkpt lat="46.69302" lon="4.13938">
        <ele>269.79</ele>
        <time>2021-08-13T05:45:30Z</time>
      </trkpt>
      <trkpt lat="46.69307" lon="4.13938">
        <ele>269.79</ele>
        <time>2021-08-13T05:45:47Z</time>
      </trkpt>
      <trkpt lat="46.69308" lon="4.13938">
        <ele>269.31</ele>
        <time>2021-08-13T05:46:02Z</time>
      </trkpt>
      <trkpt lat="46.69304" lon="4.13941">
        <ele>269.31</ele>
        <time>2021-08-13T05:46:19Z</time>
      </trkpt>
      <trkpt lat="46.69307" lon="4.13941">
        <ele>269.31</ele>
        <time>2021-08-13T05:46:36Z</time>
      </trkpt>
      <trkpt lat="46.69308" lon="4.13941">
        <ele>269.31</ele>
        <time>2021-08-13T05:46:55Z</time>
      </trkpt>
      <trkpt lat="46.69303" lon="4.13949">
        <ele>268.83</ele>
        <time>2021-08-13T05:47:14Z</time>
      </trkpt>
      <trkpt lat="46.69306" lon="4.13947">
        <ele>268.83</ele>
        <time>2021-08-13T05:47:34Z</time>
      </trkpt>
      <trkpt lat="46.69311" lon="4.13942">
        <ele>268.83</ele>
        <time>2021-08-13T05:47:50Z</time>
      </trkpt>
      <trkpt lat="46.6931" lon="4.13947">
        <ele>268.35</ele>
        <time>2021-08-13T05:48:08Z</time>
      </trkpt>
      <trkpt lat="46.69306" lon="4.1395">
        <ele>268.35</ele>
        <time>2021-08-13T05:48:21Z</time>
      </trkpt>
      <trkpt lat="46.69303" lon="4.13952">
        <ele>268.35</ele>
        <time>2021-08-13T05:48:35Z</time>
      </trkpt>
      <trkpt lat="46.69303" lon="4.13951">
        <ele>267.86</ele>
        <time>2021-08-13T05:48:51Z</time>
      </trkpt>
      <trkpt lat="46.69302" lon="4.13952">
        <ele>267.86</ele>
        <time>2021-08-13T05:49:08Z</time>
      </trkpt>
      <trkpt lat="46.69302" lon="4.13949">
        <ele>267.86</ele>
        <time>2021-08-13T05:49:24Z</time>
      </trkpt>
      <trkpt lat="46.69303" lon="4.13945">
        <ele>267.38</ele>
        <time>2021-08-13T05:49:38Z</time>
      </trkpt>
      <trkpt lat="46.69306" lon="4.13942">
        <ele>267.38</ele>
        <time>2021-08-13T05:49:50Z</time>
      </trkpt>
      <trkpt lat="46.69305" lon="4.13947">
        <ele>267.38</ele>
        <time>2021-08-13T05:50:06Z</time>
      </trkpt>
      <trkpt lat="46.69312" lon="4.13945">
        <ele>267.38</ele>
        <time>2021-08-13T05:50:09Z</time>
      </trkpt>
      <trkpt lat="46.69315" lon="4.13943">
        <ele>267.38</ele>
        <time>2021-08-13T05:50:10Z</time>
      </trkpt>
      <trkpt lat="46.69329" lon="4.13939">
        <ele>266.9</ele>
        <time>2021-08-13T05:50:15Z</time>
      </trkpt>
      <trkpt lat="46.69342" lon="4.13951">
        <ele>266.9</ele>
        <time>2021-08-13T05:50:25Z</time>
      </trkpt>
      <trkpt lat="46.69339" lon="4.13957">
        <ele>266.9</ele>
        <time>2021-08-13T05:50:31Z</time>
      </trkpt>
      <trkpt lat="46.6934" lon="4.13956">
        <ele>266.9</ele>
        <time>2021-08-13T05:50:39Z</time>
      </trkpt>
      <trkpt lat="46.69342" lon="4.13957">
        <ele>265.94</ele>
        <time>2021-08-13T05:50:56Z</time>
      </trkpt>
      <trkpt lat="46.69341" lon="4.13961">
        <ele>265.94</ele>
        <time>2021-08-13T05:50:57Z</time>
      </trkpt>
      <trkpt lat="46.69341" lon="4.13962">
        <ele>265.94</ele>
        <time>2021-08-13T05:51:01Z</time>
      </trkpt>
      <trkpt lat="46.69343" lon="4.13961">
        <ele>265.94</ele>
        <time>2021-08-13T05:51:03Z</time>
      </trkpt>
      <trkpt lat="46.69343" lon="4.13958">
        <ele>265.94</ele>
        <time>2021-08-13T05:51:08Z</time>
      </trkpt>
      <trkpt lat="46.69341" lon="4.13952">
        <ele>266.42</ele>
        <time>2021-08-13T05:51:34Z</time>
      </trkpt>
      <trkpt lat="46.69342" lon="4.13953">
        <ele>266.42</ele>
        <time>2021-08-13T05:51:54Z</time>
      </trkpt>
      <trkpt lat="46.69342" lon="4.13953">
        <ele>266.42</ele>
        <time>2021-08-13T05:52:12Z</time>
      </trkpt>
      <trkpt lat="46.69343" lon="4.13952">
        <ele>266.42</ele>
        <time>2021-08-13T05:52:30Z</time>
      </trkpt>
      <trkpt lat="46.69342" lon="4.13949">
        <ele>266.9</ele>
        <time>2021-08-13T05:52:52Z</time>
      </trkpt>
      <trkpt lat="46.69342" lon="4.13949">
        <ele>266.9</ele>
        <time>2021-08-13T05:53:14Z</time>
      </trkpt>
      <trkpt lat="46.69342" lon="4.13949">
        <ele>266.9</ele>
        <time>2021-08-13T05:53:34Z</time>
      </trkpt>
      <trkpt lat="46.69341" lon="4.13953">
        <ele>266.9</ele>
        <time>2021-08-13T05:53:56Z</time>
      </trkpt>
      <trkpt lat="46.69341" lon="4.13951">
        <ele>266.9</ele>
        <time>2021-08-13T05:54:13Z</time>
      </trkpt>
      <trkpt lat="46.69341" lon="4.1395">
        <ele>266.9</ele>
        <time>2021-08-13T05:54:18Z</time>
      </trkpt>
      <trkpt lat="46.69341" lon="4.13946">
        <ele>266.9</ele>
        <time>2021-08-13T05:54:40Z</time>
      </trkpt>
      <trkpt lat="46.69341" lon="4.13946">
        <ele>266.9</ele>
        <time>2021-08-13T05:54:55Z</time>
      </trkpt>
      <trkpt lat="46.69342" lon="4.13947">
        <ele>266.9</ele>
        <time>2021-08-13T05:55:14Z</time>
      </trkpt>
      <trkpt lat="46.6934" lon="4.13952">
        <ele>266.9</ele>
        <time>2021-08-13T05:55:33Z</time>
      </trkpt>
      <trkpt lat="46.69338" lon="4.13949">
        <ele>266.9</ele>
        <time>2021-08-13T05:55:53Z</time>
      </trkpt>
      <trkpt lat="46.69338" lon="4.13948">
        <ele>266.9</ele>
        <time>2021-08-13T05:56:11Z</time>
      </trkpt>
      <trkpt lat="46.69339" lon="4.1395">
        <ele>266.9</ele>
        <time>2021-08-13T05:56:28Z</time>
      </trkpt>
      <trkpt lat="46.69342" lon="4.13955">
        <ele>267.38</ele>
        <time>2021-08-13T05:56:42Z</time>
      </trkpt>
      <trkpt lat="46.69344" lon="4.13959">
        <ele>267.38</ele>
        <time>2021-08-13T05:57:03Z</time>
      </trkpt>
      <trkpt lat="46.69341" lon="4.13957">
        <ele>267.38</ele>
        <time>2021-08-13T05:57:20Z</time>
      </trkpt>
      <trkpt lat="46.6934" lon="4.13951">
        <ele>267.38</ele>
        <time>2021-08-13T05:57:39Z</time>
      </trkpt>
      <trkpt lat="46.69339" lon="4.1395">
        <ele>267.38</ele>
        <time>2021-08-13T05:58:01Z</time>
      </trkpt>
      <trkpt lat="46.69336" lon="4.13949">
        <ele>267.38</ele>
        <time>2021-08-13T05:58:28Z</time>
      </trkpt>
      <trkpt lat="46.69338" lon="4.13948">
        <ele>267.38</ele>
        <time>2021-08-13T05:58:46Z</time>
      </trkpt>
      <trkpt lat="46.69342" lon="4.13951">
        <ele>267.38</ele>
        <time>2021-08-13T05:59:03Z</time>
      </trkpt>
      <trkpt lat="46.69343" lon="4.13952">
        <ele>267.38</ele>
        <time>2021-08-13T05:59:19Z</time>
      </trkpt>
      <trkpt lat="46.69343" lon="4.13951">
        <ele>267.38</ele>
        <time>2021-08-13T05:59:36Z</time>
      </trkpt>
      <trkpt lat="46.69343" lon="4.13951">
        <ele>267.38</ele>
        <time>2021-08-13T05:59:47Z</time>
      </trkpt>
      <trkpt lat="46.69343" lon="4.13951">
        <ele>267.38</ele>
        <time>2021-08-13T06:00:03Z</time>
      </trkpt>
      <trkpt lat="46.69341" lon="4.13951">
        <ele>266.9</ele>
        <time>2021-08-13T06:00:23Z</time>
      </trkpt>
      <trkpt lat="46.69336" lon="4.13948">
        <ele>267.38</ele>
        <time>2021-08-13T06:00:39Z</time>
      </trkpt>
      <trkpt lat="46.69337" lon="4.13949">
        <ele>267.38</ele>
        <time>2021-08-13T06:00:52Z</time>
      </trkpt>
      <trkpt lat="46.69338" lon="4.13949">
        <ele>267.38</ele>
        <time>2021-08-13T06:01:04Z</time>
      </trkpt>
      <trkpt lat="46.69335" lon="4.13944">
        <ele>267.38</ele>
        <time>2021-08-13T06:01:21Z</time>
      </trkpt>
      <trkpt lat="46.69338" lon="4.13949">
        <ele>267.38</ele>
        <time>2021-08-13T06:01:36Z</time>
      </trkpt>
      <trkpt lat="46.69339" lon="4.13951">
        <ele>266.9</ele>
        <time>2021-08-13T06:01:46Z</time>
      </trkpt>
      <trkpt lat="46.69336" lon="4.13947">
        <ele>267.38</ele>
        <time>2021-08-13T06:02:05Z</time>
      </trkpt>
      <trkpt lat="46.69334" lon="4.13944">
        <ele>267.38</ele>
        <time>2021-08-13T06:02:18Z</time>
      </trkpt>
      <trkpt lat="46.69336" lon="4.13944">
        <ele>267.38</ele>
        <time>2021-08-13T06:02:37Z</time>
      </trkpt>
      <trkpt lat="46.69337" lon="4.13945">
        <ele>267.38</ele>
        <time>2021-08-13T06:02:52Z</time>
      </trkpt>
      <trkpt lat="46.69339" lon="4.13946">
        <ele>267.38</ele>
        <time>2021-08-13T06:03:07Z</time>
      </trkpt>
      <trkpt lat="46.69339" lon="4.13945">
        <ele>267.86</ele>
        <time>2021-08-13T06:03:23Z</time>
      </trkpt>
      <trkpt lat="46.69337" lon="4.13944">
        <ele>267.86</ele>
        <time>2021-08-13T06:03:48Z</time>
      </trkpt>
      <trkpt lat="46.69333" lon="4.13943">
        <ele>267.38</ele>
        <time>2021-08-13T06:04:05Z</time>
      </trkpt>
      <trkpt lat="46.69334" lon="4.13944">
        <ele>267.86</ele>
        <time>2021-08-13T06:04:24Z</time>
      </trkpt>
      <trkpt lat="46.69338" lon="4.13947">
        <ele>267.86</ele>
        <time>2021-08-13T06:04:43Z</time>
      </trkpt>
      <trkpt lat="46.6934" lon="4.13951">
        <ele>267.86</ele>
        <time>2021-08-13T06:05:04Z</time>
      </trkpt>
      <trkpt lat="46.6934" lon="4.1395">
        <ele>267.86</ele>
        <time>2021-08-13T06:05:18Z</time>
      </trkpt>
      <trkpt lat="46.69337" lon="4.13943">
        <ele>268.35</ele>
        <time>2021-08-13T06:05:39Z</time>
      </trkpt>
      <trkpt lat="46.69334" lon="4.13943">
        <ele>268.35</ele>
        <time>2021-08-13T06:05:58Z</time>
      </trkpt>
      <trkpt lat="46.69335" lon="4.13944">
        <ele>268.35</ele>
        <time>2021-08-13T06:06:17Z</time>
      </trkpt>
      <trkpt lat="46.69337" lon="4.13946">
        <ele>268.83</ele>
        <time>2021-08-13T06:06:41Z</time>
      </trkpt>
      <trkpt lat="46.69338" lon="4.13944">
        <ele>268.83</ele>
        <time>2021-08-13T06:06:59Z</time>
      </trkpt>
      <trkpt lat="46.69338" lon="4.13944">
        <ele>268.83</ele>
        <time>2021-08-13T06:07:15Z</time>
      </trkpt>
      <trkpt lat="46.69337" lon="4.13943">
        <ele>269.31</ele>
        <time>2021-08-13T06:07:29Z</time>
      </trkpt>
      <trkpt lat="46.69336" lon="4.13946">
        <ele>269.31</ele>
        <time>2021-08-13T06:07:50Z</time>
      </trkpt>
      <trkpt lat="46.69337" lon="4.1395">
        <ele>269.31</ele>
        <time>2021-08-13T06:08:09Z</time>
      </trkpt>
      <trkpt lat="46.69338" lon="4.13948">
        <ele>269.31</ele>
        <time>2021-08-13T06:08:26Z</time>
      </trkpt>
      <trkpt lat="46.69338" lon="4.13946">
        <ele>269.79</ele>
        <time>2021-08-13T06:08:46Z</time>
      </trkpt>
      <trkpt lat="46.69336" lon="4.13947">
        <ele>269.79</ele>
        <time>2021-08-13T06:09:04Z</time>
      </trkpt>
      <trkpt lat="46.69334" lon="4.13947">
        <ele>269.79</ele>
        <time>2021-08-13T06:09:18Z</time>
      </trkpt>
      <trkpt lat="46.69334" lon="4.13945">
        <ele>269.79</ele>
        <time>2021-08-13T06:09:34Z</time>
      </trkpt>
      <trkpt lat="46.69335" lon="4.13944">
        <ele>270.27</ele>
        <time>2021-08-13T06:09:50Z</time>
      </trkpt>
      <trkpt lat="46.69335" lon="4.13946">
        <ele>270.27</ele>
        <time>2021-08-13T06:10:07Z</time>
      </trkpt>
      <trkpt lat="46.69335" lon="4.13948">
        <ele>270.27</ele>
        <time>2021-08-13T06:10:22Z</time>
      </trkpt>
      <trkpt lat="46.69336" lon="4.13948">
        <ele>270.27</ele>
        <time>2021-08-13T06:10:45Z</time>
      </trkpt>
      <trkpt lat="46.69336" lon="4.1395">
        <ele>270.27</ele>
        <time>2021-08-13T06:11:02Z</time>
      </trkpt>
      <trkpt lat="46.69336" lon="4.13951">
        <ele>270.27</ele>
        <time>2021-08-13T06:11:28Z</time>
      </trkpt>
      <trkpt lat="46.69336" lon="4.1395">
        <ele>270.27</ele>
        <time>2021-08-13T06:11:45Z</time>
      </trkpt>
      <trkpt lat="46.69338" lon="4.1395">
        <ele>270.75</ele>
        <time>2021-08-13T06:12:07Z</time>
      </trkpt>
      <trkpt lat="46.69336" lon="4.13952">
        <ele>270.75</ele>
        <time>2021-08-13T06:12:29Z</time>
      </trkpt>
      <trkpt lat="46.69336" lon="4.13955">
        <ele>270.75</ele>
        <time>2021-08-13T06:12:53Z</time>
      </trkpt>
      <trkpt lat="46.69336" lon="4.13954">
        <ele>270.75</ele>
        <time>2021-08-13T06:13:16Z</time>
      </trkpt>
      <trkpt lat="46.69336" lon="4.13953">
        <ele>270.75</ele>
        <time>2021-08-13T06:13:33Z</time>
      </trkpt>
      <trkpt lat="46.69336" lon="4.13952">
        <ele>270.75</ele>
        <time>2021-08-13T06:13:52Z</time>
      </trkpt>
      <trkpt lat="46.69336" lon="4.13955">
        <ele>270.75</ele>
        <time>2021-08-13T06:14:07Z</time>
      </trkpt>
      <trkpt lat="46.69337" lon="4.13958">
        <ele>270.75</ele>
        <time>2021-08-13T06:14:21Z</time>
      </trkpt>
      <trkpt lat="46.6934" lon="4.1396">
        <ele>270.75</ele>
        <time>2021-08-13T06:14:39Z</time>
      </trkpt>
      <trkpt lat="46.69342" lon="4.13961">
        <ele>270.27</ele>
        <time>2021-08-13T06:14:53Z</time>
      </trkpt>
      <trkpt lat="46.69341" lon="4.13959">
        <ele>270.27</ele>
        <time>2021-08-13T06:15:06Z</time>
      </trkpt>
      <trkpt lat="46.6934" lon="4.13958">
        <ele>270.27</ele>
        <time>2021-08-13T06:15:24Z</time>
      </trkpt>
      <trkpt lat="46.69342" lon="4.13957">
        <ele>270.27</ele>
        <time>2021-08-13T06:15:40Z</time>
      </trkpt>
      <trkpt lat="46.69342" lon="4.13958">
        <ele>270.27</ele>
        <time>2021-08-13T06:15:54Z</time>
      </trkpt>
      <trkpt lat="46.6934" lon="4.13959">
        <ele>270.27</ele>
        <time>2021-08-13T06:16:15Z</time>
      </trkpt>
      <trkpt lat="46.69339" lon="4.13959">
        <ele>270.27</ele>
        <time>2021-08-13T06:16:30Z</time>
      </trkpt>
      <trkpt lat="46.6934" lon="4.1396">
        <ele>270.27</ele>
        <time>2021-08-13T06:16:49Z</time>
      </trkpt>
      <trkpt lat="46.6934" lon="4.13956">
        <ele>270.27</ele>
        <time>2021-08-13T06:17:10Z</time>
      </trkpt>
      <trkpt lat="46.6934" lon="4.13956">
        <ele>270.27</ele>
        <time>2021-08-13T06:17:27Z</time>
      </trkpt>
      <trkpt lat="46.69342" lon="4.1396">
        <ele>269.79</ele>
        <time>2021-08-13T06:17:47Z</time>
      </trkpt>
      <trkpt lat="46.69342" lon="4.1396">
        <ele>269.79</ele>
        <time>2021-08-13T06:18:02Z</time>
      </trkpt>
      <trkpt lat="46.69341" lon="4.13959">
        <ele>269.79</ele>
        <time>2021-08-13T06:18:20Z</time>
      </trkpt>
      <trkpt lat="46.6934" lon="4.13958">
        <ele>269.79</ele>
        <time>2021-08-13T06:18:32Z</time>
      </trkpt>
      <trkpt lat="46.69339" lon="4.13957">
        <ele>269.31</ele>
        <time>2021-08-13T06:18:50Z</time>
      </trkpt>
      <trkpt lat="46.69336" lon="4.13957">
        <ele>269.31</ele>
        <time>2021-08-13T06:19:08Z</time>
      </trkpt>
      <trkpt lat="46.69335" lon="4.13956">
        <ele>269.31</ele>
        <time>2021-08-13T06:19:22Z</time>
      </trkpt>
      <trkpt lat="46.69335" lon="4.13956">
        <ele>269.31</ele>
        <time>2021-08-13T06:19:43Z</time>
      </trkpt>
      <trkpt lat="46.69335" lon="4.13957">
        <ele>269.31</ele>
        <time>2021-08-13T06:19:52Z</time>
      </trkpt>
      <trkpt lat="46.69336" lon="4.13958">
        <ele>269.31</ele>
        <time>2021-08-13T06:20:05Z</time>
      </trkpt>
      <trkpt lat="46.69336" lon="4.13959">
        <ele>269.31</ele>
        <time>2021-08-13T06:20:15Z</time>
      </trkpt>
      <trkpt lat="46.69337" lon="4.13958">
        <ele>269.31</ele>
        <time>2021-08-13T06:20:30Z</time>
      </trkpt>
      <trkpt lat="46.69332" lon="4.13955">
        <ele>269.31</ele>
        <time>2021-08-13T06:21:05Z</time>
      </trkpt>
      <trkpt lat="46.6933" lon="4.13954">
        <ele>269.31</ele>
        <time>2021-08-13T06:21:21Z</time>
      </trkpt>
      <trkpt lat="46.69331" lon="4.13956">
        <ele>269.31</ele>
        <time>2021-08-13T06:21:39Z</time>
      </trkpt>
      <trkpt lat="46.69334" lon="4.13957">
        <ele>269.31</ele>
        <time>2021-08-13T06:21:58Z</time>
      </trkpt>
      <trkpt lat="46.69338" lon="4.13958">
        <ele>269.31</ele>
        <time>2021-08-13T06:22:19Z</time>
      </trkpt>
      <trkpt lat="46.69339" lon="4.13959">
        <ele>269.31</ele>
        <time>2021-08-13T06:22:28Z</time>
      </trkpt>
      <trkpt lat="46.69342" lon="4.13958">
        <ele>269.31</ele>
        <time>2021-08-13T06:22:43Z</time>
      </trkpt>
      <trkpt lat="46.69343" lon="4.13958">
        <ele>269.31</ele>
        <time>2021-08-13T06:22:58Z</time>
      </trkpt>
      <trkpt lat="46.69345" lon="4.13957">
        <ele>269.31</ele>
        <time>2021-08-13T06:23:09Z</time>
      </trkpt>
      <trkpt lat="46.69345" lon="4.13957">
        <ele>269.31</ele>
        <time>2021-08-13T06:23:19Z</time>
      </trkpt>
      <trkpt lat="46.69344" lon="4.13957">
        <ele>269.31</ele>
        <time>2021-08-13T06:23:35Z</time>
      </trkpt>
      <trkpt lat="46.69341" lon="4.13959">
        <ele>269.31</ele>
        <time>2021-08-13T06:23:50Z</time>
      </trkpt>
      <trkpt lat="46.69338" lon="4.1396">
        <ele>269.31</ele>
        <time>2021-08-13T06:24:06Z</time>
      </trkpt>
      <trkpt lat="46.69335" lon="4.13958">
        <ele>269.31</ele>
        <time>2021-08-13T06:24:23Z</time>
      </trkpt>
      <trkpt lat="46.69335" lon="4.13958">
        <ele>269.31</ele>
        <time>2021-08-13T06:24:33Z</time>
      </trkpt>
      <trkpt lat="46.69337" lon="4.13957">
        <ele>269.31</ele>
        <time>2021-08-13T06:24:53Z</time>
      </trkpt>
      <trkpt lat="46.69337" lon="4.13959">
        <ele>268.83</ele>
        <time>2021-08-13T06:25:12Z</time>
      </trkpt>
      <trkpt lat="46.69337" lon="4.13961">
        <ele>268.83</ele>
        <time>2021-08-13T06:25:22Z</time>
      </trkpt>
      <trkpt lat="46.69336" lon="4.13962">
        <ele>268.83</ele>
        <time>2021-08-13T06:25:34Z</time>
      </trkpt>
      <trkpt lat="46.69333" lon="4.1396">
        <ele>268.83</ele>
        <time>2021-08-13T06:25:52Z</time>
      </trkpt>
      <trkpt lat="46.69333" lon="4.13959">
        <ele>268.83</ele>
        <time>2021-08-13T06:26:08Z</time>
      </trkpt>
      <trkpt lat="46.69335" lon="4.13958">
        <ele>268.83</ele>
        <time>2021-08-13T06:26:24Z</time>
      </trkpt>
      <trkpt lat="46.69338" lon="4.13958">
        <ele>268.83</ele>
        <time>2021-08-13T06:26:36Z</time>
      </trkpt>
      <trkpt lat="46.69341" lon="4.13959">
        <ele>268.83</ele>
        <time>2021-08-13T06:26:59Z</time>
      </trkpt>
      <trkpt lat="46.6934" lon="4.13958">
        <ele>268.83</ele>
        <time>2021-08-13T06:27:16Z</time>
      </trkpt>
      <trkpt lat="46.6934" lon="4.13958">
        <ele>268.83</ele>
        <time>2021-08-13T06:27:30Z</time>
      </trkpt>
      <trkpt lat="46.6934" lon="4.13959">
        <ele>268.83</ele>
        <time>2021-08-13T06:27:44Z</time>
      </trkpt>
      <trkpt lat="46.69341" lon="4.1396">
        <ele>268.35</ele>
        <time>2021-08-13T06:28:02Z</time>
      </trkpt>
      <trkpt lat="46.69342" lon="4.13959">
        <ele>268.35</ele>
        <time>2021-08-13T06:28:14Z</time>
      </trkpt>
      <trkpt lat="46.69342" lon="4.13959">
        <ele>268.35</ele>
        <time>2021-08-13T06:28:31Z</time>
      </trkpt>
      <trkpt lat="46.69343" lon="4.13958">
        <ele>268.35</ele>
        <time>2021-08-13T06:28:50Z</time>
      </trkpt>
      <trkpt lat="46.69345" lon="4.13959">
        <ele>268.35</ele>
        <time>2021-08-13T06:29:05Z</time>
      </trkpt>
      <trkpt lat="46.69342" lon="4.13956">
        <ele>268.35</ele>
        <time>2021-08-13T06:29:19Z</time>
      </trkpt>
      <trkpt lat="46.6934" lon="4.13956">
        <ele>267.86</ele>
        <time>2021-08-13T06:29:35Z</time>
      </trkpt>
      <trkpt lat="46.69336" lon="4.13956">
        <ele>267.86</ele>
        <time>2021-08-13T06:29:49Z</time>
      </trkpt>
      <trkpt lat="46.69336" lon="4.13956">
        <ele>267.86</ele>
        <time>2021-08-13T06:30:01Z</time>
      </trkpt>
      <trkpt lat="46.69338" lon="4.13955">
        <ele>267.86</ele>
        <time>2021-08-13T06:30:14Z</time>
      </trkpt>
      <trkpt lat="46.69338" lon="4.13955">
        <ele>267.86</ele>
        <time>2021-08-13T06:30:28Z</time>
      </trkpt>
      <trkpt lat="46.69338" lon="4.13955">
        <ele>267.86</ele>
        <time>2021-08-13T06:30:44Z</time>
      </trkpt>
      <trkpt lat="46.69339" lon="4.13957">
        <ele>267.86</ele>
        <time>2021-08-13T06:31:05Z</time>
      </trkpt>
      <trkpt lat="46.69339" lon="4.13957">
        <ele>267.86</ele>
        <time>2021-08-13T06:31:25Z</time>
      </trkpt>
      <trkpt lat="46.6934" lon="4.13957">
        <ele>267.38</ele>
        <time>2021-08-13T06:31:35Z</time>
      </trkpt>
      <trkpt lat="46.6934" lon="4.13958">
        <ele>267.38</ele>
        <time>2021-08-13T06:31:48Z</time>
      </trkpt>
      <trkpt lat="46.6934" lon="4.13957">
        <ele>267.38</ele>
        <time>2021-08-13T06:32:00Z</time>
      </trkpt>
      <trkpt lat="46.6934" lon="4.13957">
        <ele>267.38</ele>
        <time>2021-08-13T06:32:15Z</time>
      </trkpt>
      <trkpt lat="46.6934" lon="4.13957">
        <ele>267.38</ele>
        <time>2021-08-13T06:32:28Z</time>
      </trkpt>
      <trkpt lat="46.69338" lon="4.13958">
        <ele>266.9</ele>
        <time>2021-08-13T06:32:46Z</time>
      </trkpt>
      <trkpt lat="46.69338" lon="4.13961">
        <ele>266.9</ele>
        <time>2021-08-13T06:32:59Z</time>
      </trkpt>
      <trkpt lat="46.69339" lon="4.13961">
        <ele>266.9</ele>
        <time>2021-08-13T06:33:10Z</time>
      </trkpt>
      <trkpt lat="46.6934" lon="4.13959">
        <ele>266.9</ele>
        <time>2021-08-13T06:33:23Z</time>
      </trkpt>
      <trkpt lat="46.6934" lon="4.13958">
        <ele>266.9</ele>
        <time>2021-08-13T06:33:32Z</time>
      </trkpt>
      <trkpt lat="46.69336" lon="4.13956">
        <ele>266.9</ele>
        <time>2021-08-13T06:33:42Z</time>
      </trkpt>
      <trkpt lat="46.69335" lon="4.13956">
        <ele>266.9</ele>
        <time>2021-08-13T06:33:52Z</time>
      </trkpt>
      <trkpt lat="46.69335" lon="4.13954">
        <ele>266.9</ele>
        <time>2021-08-13T06:34:06Z</time>
      </trkpt>
      <trkpt lat="46.69333" lon="4.13955">
        <ele>266.9</ele>
        <time>2021-08-13T06:34:20Z</time>
      </trkpt>
      <trkpt lat="46.69333" lon="4.13955">
        <ele>266.9</ele>
        <time>2021-08-13T06:34:33Z</time>
      </trkpt>
      <trkpt lat="46.69334" lon="4.13957">
        <ele>266.9</ele>
        <time>2021-08-13T06:34:43Z</time>
      </trkpt>
      <trkpt lat="46.69334" lon="4.13958">
        <ele>266.9</ele>
        <time>2021-08-13T06:34:44Z</time>
      </trkpt>
      <trkpt lat="46.69337" lon="4.13958">
        <ele>266.9</ele>
        <time>2021-08-13T06:34:51Z</time>
      </trkpt>
      <trkpt lat="46.69339" lon="4.13959">
        <ele>266.9</ele>
        <time>2021-08-13T06:35:00Z</time>
      </trkpt>
      <trkpt lat="46.69343" lon="4.13958">
        <ele>266.9</ele>
        <time>2021-08-13T06:35:09Z</time>
      </trkpt>
      <trkpt lat="46.69344" lon="4.13957">
        <ele>266.9</ele>
        <time>2021-08-13T06:35:10Z</time>
      </trkpt>
      <trkpt lat="46.69345" lon="4.13956">
        <ele>266.9</ele>
        <time>2021-08-13T06:35:11Z</time>
      </trkpt>
      <trkpt lat="46.69354" lon="4.13939">
        <ele>266.9</ele>
        <time>2021-08-13T06:35:18Z</time>
      </trkpt>
      <trkpt lat="46.69366" lon="4.13903">
        <ele>267.86</ele>
        <time>2021-08-13T06:35:28Z</time>
      </trkpt>
      <trkpt lat="46.69367" lon="4.13899">
        <ele>267.86</ele>
        <time>2021-08-13T06:35:29Z</time>
      </trkpt>
      <trkpt lat="46.69368" lon="4.13871">
        <ele>268.35</ele>
        <time>2021-08-13T06:35:36Z</time>
      </trkpt>
      <trkpt lat="46.6936" lon="4.13852">
        <ele>268.35</ele>
        <time>2021-08-13T06:35:41Z</time>
      </trkpt>
      <trkpt lat="46.69357" lon="4.13841">
        <ele>267.38</ele>
        <time>2021-08-13T06:35:43Z</time>
      </trkpt>
      <trkpt lat="46.69356" lon="4.13835">
        <ele>267.38</ele>
        <time>2021-08-13T06:35:44Z</time>
      </trkpt>
      <trkpt lat="46.69355" lon="4.13828">
        <ele>266.42</ele>
        <time>2021-08-13T06:35:45Z</time>
      </trkpt>
      <trkpt lat="46.69356" lon="4.13821">
        <ele>266.42</ele>
        <time>2021-08-13T06:35:46Z</time>
      </trkpt>
      <trkpt lat="46.69356" lon="4.13813">
        <ele>265.94</ele>
        <time>2021-08-13T06:35:47Z</time>
      </trkpt>
      <trkpt lat="46.69358" lon="4.13782">
        <ele>264.5</ele>
        <time>2021-08-13T06:35:51Z</time>
      </trkpt>
      <trkpt lat="46.69359" lon="4.13751">
        <ele>262.58</ele>
        <time>2021-08-13T06:35:55Z</time>
      </trkpt>
      <trkpt lat="46.69361" lon="4.13718">
        <ele>261.62</ele>
        <time>2021-08-13T06:35:59Z</time>
      </trkpt>
      <trkpt lat="46.69362" lon="4.1371">
        <ele>261.62</ele>
        <time>2021-08-13T06:36:00Z</time>
      </trkpt>
      <trkpt lat="46.69364" lon="4.13703">
        <ele>261.14</ele>
        <time>2021-08-13T06:36:01Z</time>
      </trkpt>
      <trkpt lat="46.69367" lon="4.13696">
        <ele>261.14</ele>
        <time>2021-08-13T06:36:02Z</time>
      </trkpt>
      <trkpt lat="46.69371" lon="4.1369">
        <ele>260.17</ele>
        <time>2021-08-13T06:36:03Z</time>
      </trkpt>
      <trkpt lat="46.69376" lon="4.13684">
        <ele>260.17</ele>
        <time>2021-08-13T06:36:04Z</time>
      </trkpt>
      <trkpt lat="46.6938" lon="4.13679">
        <ele>259.69</ele>
        <time>2021-08-13T06:36:05Z</time>
      </trkpt>
      <trkpt lat="46.69414" lon="4.13634">
        <ele>257.77</ele>
        <time>2021-08-13T06:36:12Z</time>
      </trkpt>
      <trkpt lat="46.69447" lon="4.1359">
        <ele>259.69</ele>
        <time>2021-08-13T06:36:20Z</time>
      </trkpt>
      <trkpt lat="46.69479" lon="4.13545">
        <ele>258.25</ele>
        <time>2021-08-13T06:36:28Z</time>
      </trkpt>
      <trkpt lat="46.69483" lon="4.13539">
        <ele>258.25</ele>
        <time>2021-08-13T06:36:29Z</time>
      </trkpt>
      <trkpt lat="46.69501" lon="4.1351">
        <ele>257.29</ele>
        <time>2021-08-13T06:36:33Z</time>
      </trkpt>
      <trkpt lat="46.69505" lon="4.13501">
        <ele>257.29</ele>
        <time>2021-08-13T06:36:34Z</time>
      </trkpt>
      <trkpt lat="46.69539" lon="4.13427">
        <ele>256.33</ele>
        <time>2021-08-13T06:36:43Z</time>
      </trkpt>
      <trkpt lat="46.69583" lon="4.13334">
        <ele>256.33</ele>
        <time>2021-08-13T06:36:55Z</time>
      </trkpt>
      <trkpt lat="46.69616" lon="4.13273">
        <ele>257.29</ele>
        <time>2021-08-13T06:37:04Z</time>
      </trkpt>
      <trkpt lat="46.69649" lon="4.13212">
        <ele>257.29</ele>
        <time>2021-08-13T06:37:13Z</time>
      </trkpt>
      <trkpt lat="46.69682" lon="4.1315">
        <ele>258.25</ele>
        <time>2021-08-13T06:37:23Z</time>
      </trkpt>
      <trkpt lat="46.69712" lon="4.13093">
        <ele>258.25</ele>
        <time>2021-08-13T06:37:33Z</time>
      </trkpt>
      <trkpt lat="46.69741" lon="4.13038">
        <ele>258.25</ele>
        <time>2021-08-13T06:37:43Z</time>
      </trkpt>
      <trkpt lat="46.69744" lon="4.13032">
        <ele>258.25</ele>
        <time>2021-08-13T06:37:44Z</time>
      </trkpt>
      <trkpt lat="46.69747" lon="4.13026">
        <ele>258.25</ele>
        <time>2021-08-13T06:37:45Z</time>
      </trkpt>
      <trkpt lat="46.69773" lon="4.12977">
        <ele>258.25</ele>
        <time>2021-08-13T06:37:54Z</time>
      </trkpt>
      <trkpt lat="46.69807" lon="4.12917">
        <ele>258.73</ele>
        <time>2021-08-13T06:38:05Z</time>
      </trkpt>
      <trkpt lat="46.69834" lon="4.12864">
        <ele>259.21</ele>
        <time>2021-08-13T06:38:14Z</time>
      </trkpt>
      <trkpt lat="46.69851" lon="4.12832">
        <ele>259.21</ele>
        <time>2021-08-13T06:38:20Z</time>
      </trkpt>
      <trkpt lat="46.69853" lon="4.12826">
        <ele>259.21</ele>
        <time>2021-08-13T06:38:21Z</time>
      </trkpt>
      <trkpt lat="46.69854" lon="4.1282">
        <ele>259.21</ele>
        <time>2021-08-13T06:38:22Z</time>
      </trkpt>
      <trkpt lat="46.69855" lon="4.12814">
        <ele>259.21</ele>
        <time>2021-08-13T06:38:23Z</time>
      </trkpt>
      <trkpt lat="46.69855" lon="4.12807">
        <ele>259.21</ele>
        <time>2021-08-13T06:38:24Z</time>
      </trkpt>
      <trkpt lat="46.69853" lon="4.12802">
        <ele>259.21</ele>
        <time>2021-08-13T06:38:25Z</time>
      </trkpt>
      <trkpt lat="46.69851" lon="4.12798">
        <ele>259.21</ele>
        <time>2021-08-13T06:38:26Z</time>
      </trkpt>
      <trkpt lat="46.69849" lon="4.12793">
        <ele>259.21</ele>
        <time>2021-08-13T06:38:27Z</time>
      </trkpt>
      <trkpt lat="46.69839" lon="4.1278">
        <ele>259.21</ele>
        <time>2021-08-13T06:38:30Z</time>
      </trkpt>
      <trkpt lat="46.69803" lon="4.12737">
        <ele>260.17</ele>
        <time>2021-08-13T06:38:41Z</time>
      </trkpt>
      <trkpt lat="46.69778" lon="4.12707">
        <ele>262.1</ele>
        <time>2021-08-13T06:38:50Z</time>
      </trkpt>
      <trkpt lat="46.6976" lon="4.12686">
        <ele>262.1</ele>
        <time>2021-08-13T06:38:57Z</time>
      </trkpt>
      <trkpt lat="46.69733" lon="4.12653">
        <ele>262.1</ele>
        <time>2021-08-13T06:39:06Z</time>
      </trkpt>
      <trkpt lat="46.69725" lon="4.12639">
        <ele>262.1</ele>
        <time>2021-08-13T06:39:09Z</time>
      </trkpt>
      <trkpt lat="46.69717" lon="4.12624">
        <ele>262.1</ele>
        <time>2021-08-13T06:39:12Z</time>
      </trkpt>
      <trkpt lat="46.69712" lon="4.12607">
        <ele>262.1</ele>
        <time>2021-08-13T06:39:15Z</time>
      </trkpt>
      <trkpt lat="46.69695" lon="4.1254">
        <ele>262.1</ele>
        <time>2021-08-13T06:39:26Z</time>
      </trkpt>
      <trkpt lat="46.69685" lon="4.12499">
        <ele>262.1</ele>
        <time>2021-08-13T06:39:33Z</time>
      </trkpt>
      <trkpt lat="46.69678" lon="4.12439">
        <ele>262.1</ele>
        <time>2021-08-13T06:39:43Z</time>
      </trkpt>
      <trkpt lat="46.6968" lon="4.12385">
        <ele>263.06</ele>
        <time>2021-08-13T06:39:53Z</time>
      </trkpt>
      <trkpt lat="46.69677" lon="4.12358">
        <ele>264.02</ele>
        <time>2021-08-13T06:40:00Z</time>
      </trkpt>
      <trkpt lat="46.69681" lon="4.12333">
        <ele>265.94</ele>
        <time>2021-08-13T06:40:08Z</time>
      </trkpt>
      <trkpt lat="46.69685" lon="4.12312">
        <ele>267.38</ele>
        <time>2021-08-13T06:40:16Z</time>
      </trkpt>
      <trkpt lat="46.69687" lon="4.123">
        <ele>268.35</ele>
        <time>2021-08-13T06:40:22Z</time>
      </trkpt>
      <trkpt lat="46.69687" lon="4.12298">
        <ele>268.83</ele>
        <time>2021-08-13T06:40:23Z</time>
      </trkpt>
      <trkpt lat="46.69688" lon="4.12285">
        <ele>269.79</ele>
        <time>2021-08-13T06:40:30Z</time>
      </trkpt>
      <trkpt lat="46.69687" lon="4.1227">
        <ele>271.23</ele>
        <time>2021-08-13T06:40:38Z</time>
      </trkpt>
      <trkpt lat="46.69687" lon="4.12268">
        <ele>271.71</ele>
        <time>2021-08-13T06:40:39Z</time>
      </trkpt>
      <trkpt lat="46.69687" lon="4.12266">
        <ele>271.71</ele>
        <time>2021-08-13T06:40:40Z</time>
      </trkpt>
      <trkpt lat="46.69686" lon="4.12264">
        <ele>272.19</ele>
        <time>2021-08-13T06:40:42Z</time>
      </trkpt>
      <trkpt lat="46.69686" lon="4.12262">
        <ele>272.19</ele>
        <time>2021-08-13T06:40:43Z</time>
      </trkpt>
      <trkpt lat="46.69685" lon="4.12252">
        <ele>273.63</ele>
        <time>2021-08-13T06:40:50Z</time>
      </trkpt>
      <trkpt lat="46.69683" lon="4.12244">
        <ele>274.11</ele>
        <time>2021-08-13T06:40:55Z</time>
      </trkpt>
      <trkpt lat="46.69678" lon="4.12228">
        <ele>276.04</ele>
        <time>2021-08-13T06:41:05Z</time>
      </trkpt>
      <trkpt lat="46.69675" lon="4.12213">
        <ele>277.96</ele>
        <time>2021-08-13T06:41:14Z</time>
      </trkpt>
      <trkpt lat="46.6967" lon="4.12199">
        <ele>278.92</ele>
        <time>2021-08-13T06:41:22Z</time>
      </trkpt>
      <trkpt lat="46.6967" lon="4.12197">
        <ele>278.92</ele>
        <time>2021-08-13T06:41:23Z</time>
      </trkpt>
      <trkpt lat="46.6967" lon="4.12195">
        <ele>279.4</ele>
        <time>2021-08-13T06:41:24Z</time>
      </trkpt>
      <trkpt lat="46.69668" lon="4.12189">
        <ele>279.4</ele>
        <time>2021-08-13T06:41:27Z</time>
      </trkpt>
      <trkpt lat="46.69668" lon="4.12187">
        <ele>279.4</ele>
        <time>2021-08-13T06:41:28Z</time>
      </trkpt>
      <trkpt lat="46.69667" lon="4.12185">
        <ele>279.88</ele>
        <time>2021-08-13T06:41:29Z</time>
      </trkpt>
      <trkpt lat="46.69667" lon="4.12182">
        <ele>279.88</ele>
        <time>2021-08-13T06:41:30Z</time>
      </trkpt>
      <trkpt lat="46.69666" lon="4.1218">
        <ele>280.36</ele>
        <time>2021-08-13T06:41:31Z</time>
      </trkpt>
      <trkpt lat="46.69664" lon="4.12165">
        <ele>281.32</ele>
        <time>2021-08-13T06:41:39Z</time>
      </trkpt>
      <trkpt lat="46.69661" lon="4.12149">
        <ele>281.8</ele>
        <time>2021-08-13T06:41:48Z</time>
      </trkpt>
      <trkpt lat="46.6966" lon="4.12147">
        <ele>281.8</ele>
        <time>2021-08-13T06:41:49Z</time>
      </trkpt>
      <trkpt lat="46.69659" lon="4.12145">
        <ele>282.28</ele>
        <time>2021-08-13T06:41:50Z</time>
      </trkpt>
      <trkpt lat="46.69658" lon="4.12144">
        <ele>282.28</ele>
        <time>2021-08-13T06:41:51Z</time>
      </trkpt>
      <trkpt lat="46.69653" lon="4.12125">
        <ele>283.73</ele>
        <time>2021-08-13T06:42:01Z</time>
      </trkpt>
      <trkpt lat="46.69643" lon="4.12115">
        <ele>285.65</ele>
        <time>2021-08-13T06:42:11Z</time>
      </trkpt>
      <trkpt lat="46.69635" lon="4.1211">
        <ele>286.61</ele>
        <time>2021-08-13T06:42:18Z</time>
      </trkpt>
      <trkpt lat="46.69627" lon="4.12104">
        <ele>288.05</ele>
        <time>2021-08-13T06:42:27Z</time>
      </trkpt>
      <trkpt lat="46.69621" lon="4.121">
        <ele>289.49</ele>
        <time>2021-08-13T06:42:33Z</time>
      </trkpt>
      <trkpt lat="46.69613" lon="4.12094">
        <ele>291.42</ele>
        <time>2021-08-13T06:42:42Z</time>
      </trkpt>
      <trkpt lat="46.69605" lon="4.12088">
        <ele>292.86</ele>
        <time>2021-08-13T06:42:50Z</time>
      </trkpt>
      <trkpt lat="46.69604" lon="4.12087">
        <ele>292.86</ele>
        <time>2021-08-13T06:42:51Z</time>
      </trkpt>
      <trkpt lat="46.69596" lon="4.12079">
        <ele>294.78</ele>
        <time>2021-08-13T06:42:59Z</time>
      </trkpt>
      <trkpt lat="46.69595" lon="4.12078">
        <ele>294.3</ele>
        <time>2021-08-13T06:43:00Z</time>
      </trkpt>
      <trkpt lat="46.69591" lon="4.12076">
        <ele>294.78</ele>
        <time>2021-08-13T06:43:03Z</time>
      </trkpt>
      <trkpt lat="46.6959" lon="4.12075">
        <ele>295.26</ele>
        <time>2021-08-13T06:43:04Z</time>
      </trkpt>
      <trkpt lat="46.69589" lon="4.12074">
        <ele>295.26</ele>
        <time>2021-08-13T06:43:05Z</time>
      </trkpt>
      <trkpt lat="46.69575" lon="4.12061">
        <ele>297.18</ele>
        <time>2021-08-13T06:43:15Z</time>
      </trkpt>
      <trkpt lat="46.69556" lon="4.12046">
        <ele>298.15</ele>
        <time>2021-08-13T06:43:27Z</time>
      </trkpt>
      <trkpt lat="46.69541" lon="4.12034">
        <ele>299.59</ele>
        <time>2021-08-13T06:43:37Z</time>
      </trkpt>
      <trkpt lat="46.69529" lon="4.12023">
        <ele>300.55</ele>
        <time>2021-08-13T06:43:46Z</time>
      </trkpt>
      <trkpt lat="46.69516" lon="4.12009">
        <ele>302.47</ele>
        <time>2021-08-13T06:43:55Z</time>
      </trkpt>
      <trkpt lat="46.695" lon="4.11996">
        <ele>303.91</ele>
        <time>2021-08-13T06:44:05Z</time>
      </trkpt>
      <trkpt lat="46.69487" lon="4.11984">
        <ele>305.36</ele>
        <time>2021-08-13T06:44:13Z</time>
      </trkpt>
      <trkpt lat="46.69469" lon="4.1197">
        <ele>305.84</ele>
        <time>2021-08-13T06:44:23Z</time>
      </trkpt>
      <trkpt lat="46.69451" lon="4.11953">
        <ele>307.76</ele>
        <time>2021-08-13T06:44:33Z</time>
      </trkpt>
      <trkpt lat="46.69432" lon="4.11931">
        <ele>308.72</ele>
        <time>2021-08-13T06:44:44Z</time>
      </trkpt>
      <trkpt lat="46.69414" lon="4.1191">
        <ele>309.68</ele>
        <time>2021-08-13T06:44:54Z</time>
      </trkpt>
      <trkpt lat="46.69399" lon="4.11891">
        <ele>310.16</ele>
        <time>2021-08-13T06:45:02Z</time>
      </trkpt>
      <trkpt lat="46.69384" lon="4.11862">
        <ele>310.16</ele>
        <time>2021-08-13T06:45:10Z</time>
      </trkpt>
      <trkpt lat="46.69381" lon="4.1185">
        <ele>309.2</ele>
        <time>2021-08-13T06:45:12Z</time>
      </trkpt>
      <trkpt lat="46.6938" lon="4.11844">
        <ele>308.24</ele>
        <time>2021-08-13T06:45:13Z</time>
      </trkpt>
      <trkpt lat="46.69377" lon="4.1182">
        <ele>308.24</ele>
        <time>2021-08-13T06:45:17Z</time>
      </trkpt>
      <trkpt lat="46.69376" lon="4.11813">
        <ele>307.76</ele>
        <time>2021-08-13T06:45:18Z</time>
      </trkpt>
      <trkpt lat="46.69371" lon="4.11789">
        <ele>307.28</ele>
        <time>2021-08-13T06:45:22Z</time>
      </trkpt>
      <trkpt lat="46.69369" lon="4.11784">
        <ele>307.28</ele>
        <time>2021-08-13T06:45:23Z</time>
      </trkpt>
      <trkpt lat="46.69368" lon="4.11779">
        <ele>307.28</ele>
        <time>2021-08-13T06:45:24Z</time>
      </trkpt>
      <trkpt lat="46.69367" lon="4.11775">
        <ele>307.28</ele>
        <time>2021-08-13T06:45:25Z</time>
      </trkpt>
      <trkpt lat="46.69366" lon="4.11771">
        <ele>307.28</ele>
        <time>2021-08-13T06:45:26Z</time>
      </trkpt>
      <trkpt lat="46.69364" lon="4.11767">
        <ele>308.72</ele>
        <time>2021-08-13T06:45:27Z</time>
      </trkpt>
      <trkpt lat="46.69354" lon="4.11743">
        <ele>311.12</ele>
        <time>2021-08-13T06:45:35Z</time>
      </trkpt>
      <trkpt lat="46.69347" lon="4.11726">
        <ele>313.05</ele>
        <time>2021-08-13T06:45:42Z</time>
      </trkpt>
      <trkpt lat="46.69336" lon="4.11702">
        <ele>313.53</ele>
        <time>2021-08-13T06:45:50Z</time>
      </trkpt>
      <trkpt lat="46.69318" lon="4.1168">
        <ele>312.09</ele>
        <time>2021-08-13T06:45:57Z</time>
      </trkpt>
      <trkpt lat="46.693" lon="4.11664">
        <ele>310.64</ele>
        <time>2021-08-13T06:46:02Z</time>
      </trkpt>
      <trkpt lat="46.69288" lon="4.11656">
        <ele>310.16</ele>
        <time>2021-08-13T06:46:05Z</time>
      </trkpt>
      <trkpt lat="46.69249" lon="4.11637">
        <ele>307.28</ele>
        <time>2021-08-13T06:46:13Z</time>
      </trkpt>
      <trkpt lat="46.69235" lon="4.11627">
        <ele>306.8</ele>
        <time>2021-08-13T06:46:16Z</time>
      </trkpt>
      <trkpt lat="46.69201" lon="4.11606">
        <ele>303.43</ele>
        <time>2021-08-13T06:46:22Z</time>
      </trkpt>
      <trkpt lat="46.69195" lon="4.11603">
        <ele>303.43</ele>
        <time>2021-08-13T06:46:23Z</time>
      </trkpt>
      <trkpt lat="46.69176" lon="4.11595">
        <ele>301.99</ele>
        <time>2021-08-13T06:46:26Z</time>
      </trkpt>
      <trkpt lat="46.69172" lon="4.1159">
        <ele>301.99</ele>
        <time>2021-08-13T06:46:27Z</time>
      </trkpt>
      <trkpt lat="46.69167" lon="4.11583">
        <ele>301.03</ele>
        <time>2021-08-13T06:46:28Z</time>
      </trkpt>
      <trkpt lat="46.69162" lon="4.11575">
        <ele>301.03</ele>
        <time>2021-08-13T06:46:29Z</time>
      </trkpt>
      <trkpt lat="46.69158" lon="4.11568">
        <ele>300.55</ele>
        <time>2021-08-13T06:46:30Z</time>
      </trkpt>
      <trkpt lat="46.69145" lon="4.11548">
        <ele>300.07</ele>
        <time>2021-08-13T06:46:33Z</time>
      </trkpt>
      <trkpt lat="46.69128" lon="4.11524">
        <ele>298.63</ele>
        <time>2021-08-13T06:46:37Z</time>
      </trkpt>
      <trkpt lat="46.69126" lon="4.11517">
        <ele>299.11</ele>
        <time>2021-08-13T06:46:38Z</time>
      </trkpt>
      <trkpt lat="46.69125" lon="4.11508">
        <ele>298.15</ele>
        <time>2021-08-13T06:46:39Z</time>
      </trkpt>
      <trkpt lat="46.69125" lon="4.115">
        <ele>297.67</ele>
        <time>2021-08-13T06:46:40Z</time>
      </trkpt>
      <trkpt lat="46.69126" lon="4.11491">
        <ele>297.67</ele>
        <time>2021-08-13T06:46:41Z</time>
      </trkpt>
      <trkpt lat="46.69129" lon="4.11472">
        <ele>297.18</ele>
        <time>2021-08-13T06:46:43Z</time>
      </trkpt>
      <trkpt lat="46.69133" lon="4.11464">
        <ele>296.22</ele>
        <time>2021-08-13T06:46:44Z</time>
      </trkpt>
      <trkpt lat="46.69138" lon="4.11457">
        <ele>296.22</ele>
        <time>2021-08-13T06:46:45Z</time>
      </trkpt>
      <trkpt lat="46.69143" lon="4.11452">
        <ele>296.22</ele>
        <time>2021-08-13T06:46:46Z</time>
      </trkpt>
      <trkpt lat="46.69148" lon="4.11447">
        <ele>296.22</ele>
        <time>2021-08-13T06:46:47Z</time>
      </trkpt>
      <trkpt lat="46.69175" lon="4.1142">
        <ele>296.22</ele>
        <time>2021-08-13T06:46:53Z</time>
      </trkpt>
      <trkpt lat="46.69176" lon="4.11417">
        <ele>296.22</ele>
        <time>2021-08-13T06:46:54Z</time>
      </trkpt>
      <trkpt lat="46.69175" lon="4.11415">
        <ele>296.22</ele>
        <time>2021-08-13T06:46:55Z</time>
      </trkpt>
      <trkpt lat="46.69174" lon="4.11412">
        <ele>296.22</ele>
        <time>2021-08-13T06:46:56Z</time>
      </trkpt>
      <trkpt lat="46.69172" lon="4.1141">
        <ele>296.22</ele>
        <time>2021-08-13T06:46:57Z</time>
      </trkpt>
      <trkpt lat="46.69171" lon="4.11406">
        <ele>296.22</ele>
        <time>2021-08-13T06:46:58Z</time>
      </trkpt>
      <trkpt lat="46.69169" lon="4.11403">
        <ele>296.22</ele>
        <time>2021-08-13T06:46:59Z</time>
      </trkpt>
      <trkpt lat="46.69168" lon="4.11399">
        <ele>296.22</ele>
        <time>2021-08-13T06:47:00Z</time>
      </trkpt>
      <trkpt lat="46.69166" lon="4.11394">
        <ele>295.26</ele>
        <time>2021-08-13T06:47:01Z</time>
      </trkpt>
      <trkpt lat="46.69164" lon="4.1139">
        <ele>295.26</ele>
        <time>2021-08-13T06:47:02Z</time>
      </trkpt>
      <trkpt lat="46.69155" lon="4.11367">
        <ele>297.18</ele>
        <time>2021-08-13T06:47:09Z</time>
      </trkpt>
      <trkpt lat="46.69152" lon="4.11358">
        <ele>297.67</ele>
        <time>2021-08-13T06:47:12Z</time>
      </trkpt>
      <trkpt lat="46.69151" lon="4.11356">
        <ele>297.67</ele>
        <time>2021-08-13T06:47:13Z</time>
      </trkpt>
      <trkpt lat="46.6915" lon="4.11353">
        <ele>297.67</ele>
        <time>2021-08-13T06:47:14Z</time>
      </trkpt>
      <trkpt lat="46.69149" lon="4.1135">
        <ele>297.67</ele>
        <time>2021-08-13T06:47:15Z</time>
      </trkpt>
      <trkpt lat="46.69148" lon="4.11348">
        <ele>297.67</ele>
        <time>2021-08-13T06:47:16Z</time>
      </trkpt>
      <trkpt lat="46.69138" lon="4.11329">
        <ele>298.15</ele>
        <time>2021-08-13T06:47:24Z</time>
      </trkpt>
      <trkpt lat="46.69126" lon="4.11314">
        <ele>299.59</ele>
        <time>2021-08-13T06:47:32Z</time>
      </trkpt>
      <trkpt lat="46.69115" lon="4.11305">
        <ele>300.07</ele>
        <time>2021-08-13T06:47:39Z</time>
      </trkpt>
      <trkpt lat="46.69104" lon="4.11301">
        <ele>301.03</ele>
        <time>2021-08-13T06:47:47Z</time>
      </trkpt>
      <trkpt lat="46.69093" lon="4.11297">
        <ele>301.99</ele>
        <time>2021-08-13T06:47:55Z</time>
      </trkpt>
      <trkpt lat="46.69087" lon="4.11289">
        <ele>302.47</ele>
        <time>2021-08-13T06:48:02Z</time>
      </trkpt>
      <trkpt lat="46.6908" lon="4.11278">
        <ele>303.91</ele>
        <time>2021-08-13T06:48:09Z</time>
      </trkpt>
      <trkpt lat="46.69071" lon="4.11266">
        <ele>304.88</ele>
        <time>2021-08-13T06:48:16Z</time>
      </trkpt>
      <trkpt lat="46.69059" lon="4.11256">
        <ele>305.84</ele>
        <time>2021-08-13T06:48:23Z</time>
      </trkpt>
      <trkpt lat="46.69057" lon="4.11254">
        <ele>306.32</ele>
        <time>2021-08-13T06:48:24Z</time>
      </trkpt>
      <trkpt lat="46.69056" lon="4.11253">
        <ele>305.84</ele>
        <time>2021-08-13T06:48:25Z</time>
      </trkpt>
      <trkpt lat="46.69045" lon="4.11245">
        <ele>307.28</ele>
        <time>2021-08-13T06:48:33Z</time>
      </trkpt>
      <trkpt lat="46.69036" lon="4.11237">
        <ele>307.76</ele>
        <time>2021-08-13T06:48:40Z</time>
      </trkpt>
      <trkpt lat="46.69024" lon="4.11226">
        <ele>308.72</ele>
        <time>2021-08-13T06:48:49Z</time>
      </trkpt>
      <trkpt lat="46.69011" lon="4.11214">
        <ele>309.2</ele>
        <time>2021-08-13T06:48:59Z</time>
      </trkpt>
      <trkpt lat="46.6901" lon="4.11213">
        <ele>309.2</ele>
        <time>2021-08-13T06:49:00Z</time>
      </trkpt>
      <trkpt lat="46.69008" lon="4.11212">
        <ele>309.2</ele>
        <time>2021-08-13T06:49:01Z</time>
      </trkpt>
      <trkpt lat="46.69007" lon="4.11211">
        <ele>309.68</ele>
        <time>2021-08-13T06:49:02Z</time>
      </trkpt>
      <trkpt lat="46.69006" lon="4.1121">
        <ele>309.68</ele>
        <time>2021-08-13T06:49:03Z</time>
      </trkpt>
      <trkpt lat="46.69004" lon="4.1121">
        <ele>309.68</ele>
        <time>2021-08-13T06:49:04Z</time>
      </trkpt>
      <trkpt lat="46.69002" lon="4.11209">
        <ele>309.68</ele>
        <time>2021-08-13T06:49:05Z</time>
      </trkpt>
      <trkpt lat="46.69001" lon="4.11208">
        <ele>309.68</ele>
        <time>2021-08-13T06:49:06Z</time>
      </trkpt>
      <trkpt lat="46.69" lon="4.11207">
        <ele>309.68</ele>
        <time>2021-08-13T06:49:07Z</time>
      </trkpt>
      <trkpt lat="46.68998" lon="4.11206">
        <ele>310.16</ele>
        <time>2021-08-13T06:49:08Z</time>
      </trkpt>
      <trkpt lat="46.68997" lon="4.11206">
        <ele>310.16</ele>
        <time>2021-08-13T06:49:09Z</time>
      </trkpt>
      <trkpt lat="46.68995" lon="4.11205">
        <ele>310.16</ele>
        <time>2021-08-13T06:49:10Z</time>
      </trkpt>
      <trkpt lat="46.68994" lon="4.11204">
        <ele>310.16</ele>
        <time>2021-08-13T06:49:11Z</time>
      </trkpt>
      <trkpt lat="46.68993" lon="4.11204">
        <ele>310.16</ele>
        <time>2021-08-13T06:49:12Z</time>
      </trkpt>
      <trkpt lat="46.68991" lon="4.11203">
        <ele>310.64</ele>
        <time>2021-08-13T06:49:13Z</time>
      </trkpt>
      <trkpt lat="46.68989" lon="4.11202">
        <ele>310.64</ele>
        <time>2021-08-13T06:49:14Z</time>
      </trkpt>
      <trkpt lat="46.68988" lon="4.11201">
        <ele>310.64</ele>
        <time>2021-08-13T06:49:15Z</time>
      </trkpt>
      <trkpt lat="46.68977" lon="4.11198">
        <ele>311.12</ele>
        <time>2021-08-13T06:49:22Z</time>
      </trkpt>
      <trkpt lat="46.68967" lon="4.11191">
        <ele>312.09</ele>
        <time>2021-08-13T06:49:30Z</time>
      </trkpt>
      <trkpt lat="46.68956" lon="4.11181">
        <ele>312.09</ele>
        <time>2021-08-13T06:49:38Z</time>
      </trkpt>
      <trkpt lat="46.68944" lon="4.11168">
        <ele>313.05</ele>
        <time>2021-08-13T06:49:47Z</time>
      </trkpt>
      <trkpt lat="46.68935" lon="4.11158">
        <ele>313.53</ele>
        <time>2021-08-13T06:49:54Z</time>
      </trkpt>
      <trkpt lat="46.68928" lon="4.1115">
        <ele>313.53</ele>
        <time>2021-08-13T06:50:00Z</time>
      </trkpt>
      <trkpt lat="46.68927" lon="4.11149">
        <ele>313.53</ele>
        <time>2021-08-13T06:50:01Z</time>
      </trkpt>
      <trkpt lat="46.68926" lon="4.11147">
        <ele>313.53</ele>
        <time>2021-08-13T06:50:02Z</time>
      </trkpt>
      <trkpt lat="46.68925" lon="4.11146">
        <ele>313.53</ele>
        <time>2021-08-13T06:50:03Z</time>
      </trkpt>
      <trkpt lat="46.68924" lon="4.11145">
        <ele>314.49</ele>
        <time>2021-08-13T06:50:04Z</time>
      </trkpt>
      <trkpt lat="46.68922" lon="4.11144">
        <ele>314.49</ele>
        <time>2021-08-13T06:50:05Z</time>
      </trkpt>
      <trkpt lat="46.68921" lon="4.11143">
        <ele>314.49</ele>
        <time>2021-08-13T06:50:06Z</time>
      </trkpt>
      <trkpt lat="46.68911" lon="4.11135">
        <ele>314.97</ele>
        <time>2021-08-13T06:50:15Z</time>
      </trkpt>
      <trkpt lat="46.68902" lon="4.1113">
        <ele>315.93</ele>
        <time>2021-08-13T06:50:22Z</time>
      </trkpt>
      <trkpt lat="46.68889" lon="4.11122">
        <ele>316.89</ele>
        <time>2021-08-13T06:50:30Z</time>
      </trkpt>
      <trkpt lat="46.68888" lon="4.11122">
        <ele>317.37</ele>
        <time>2021-08-13T06:50:31Z</time>
      </trkpt>
      <trkpt lat="46.68883" lon="4.11121">
        <ele>317.37</ele>
        <time>2021-08-13T06:50:39Z</time>
      </trkpt>
      <trkpt lat="46.68878" lon="4.11118">
        <ele>318.33</ele>
        <time>2021-08-13T06:50:47Z</time>
      </trkpt>
      <trkpt lat="46.68873" lon="4.11113">
        <ele>319.78</ele>
        <time>2021-08-13T06:50:56Z</time>
      </trkpt>
      <trkpt lat="46.68868" lon="4.11108">
        <ele>320.74</ele>
        <time>2021-08-13T06:51:05Z</time>
      </trkpt>
      <trkpt lat="46.68863" lon="4.11099">
        <ele>321.7</ele>
        <time>2021-08-13T06:51:14Z</time>
      </trkpt>
      <trkpt lat="46.68858" lon="4.11093">
        <ele>322.18</ele>
        <time>2021-08-13T06:51:21Z</time>
      </trkpt>
      <trkpt lat="46.6885" lon="4.11085">
        <ele>323.62</ele>
        <time>2021-08-13T06:51:31Z</time>
      </trkpt>
      <trkpt lat="46.68845" lon="4.11078">
        <ele>324.58</ele>
        <time>2021-08-13T06:51:38Z</time>
      </trkpt>
      <trkpt lat="46.68843" lon="4.11075">
        <ele>324.58</ele>
        <time>2021-08-13T06:51:41Z</time>
      </trkpt>
      <trkpt lat="46.68838" lon="4.1107">
        <ele>325.06</ele>
        <time>2021-08-13T06:51:48Z</time>
      </trkpt>
      <trkpt lat="46.68833" lon="4.11064">
        <ele>325.54</ele>
        <time>2021-08-13T06:51:55Z</time>
      </trkpt>
      <trkpt lat="46.68826" lon="4.11052">
        <ele>326.5</ele>
        <time>2021-08-13T06:52:03Z</time>
      </trkpt>
      <trkpt lat="46.68818" lon="4.11041">
        <ele>327.47</ele>
        <time>2021-08-13T06:52:10Z</time>
      </trkpt>
      <trkpt lat="46.68817" lon="4.11039">
        <ele>327.47</ele>
        <time>2021-08-13T06:52:11Z</time>
      </trkpt>
      <trkpt lat="46.68809" lon="4.11033">
        <ele>328.43</ele>
        <time>2021-08-13T06:52:18Z</time>
      </trkpt>
      <trkpt lat="46.68805" lon="4.11029">
        <ele>328.43</ele>
        <time>2021-08-13T06:52:21Z</time>
      </trkpt>
      <trkpt lat="46.68802" lon="4.11027">
        <ele>328.91</ele>
        <time>2021-08-13T06:52:23Z</time>
      </trkpt>
      <trkpt lat="46.68787" lon="4.11015">
        <ele>329.87</ele>
        <time>2021-08-13T06:52:31Z</time>
      </trkpt>
      <trkpt lat="46.6877" lon="4.10996">
        <ele>330.83</ele>
        <time>2021-08-13T06:52:41Z</time>
      </trkpt>
      <trkpt lat="46.68755" lon="4.10988">
        <ele>331.79</ele>
        <time>2021-08-13T06:52:49Z</time>
      </trkpt>
      <trkpt lat="46.68736" lon="4.10978">
        <ele>332.75</ele>
        <time>2021-08-13T06:52:59Z</time>
      </trkpt>
      <trkpt lat="46.68735" lon="4.10977">
        <ele>332.75</ele>
        <time>2021-08-13T06:53:00Z</time>
      </trkpt>
      <trkpt lat="46.68733" lon="4.10977">
        <ele>332.75</ele>
        <time>2021-08-13T06:53:01Z</time>
      </trkpt>
      <trkpt lat="46.68732" lon="4.10977">
        <ele>332.75</ele>
        <time>2021-08-13T06:53:02Z</time>
      </trkpt>
      <trkpt lat="46.6873" lon="4.10977">
        <ele>332.75</ele>
        <time>2021-08-13T06:53:03Z</time>
      </trkpt>
      <trkpt lat="46.68728" lon="4.10976">
        <ele>332.75</ele>
        <time>2021-08-13T06:53:04Z</time>
      </trkpt>
      <trkpt lat="46.68726" lon="4.10976">
        <ele>332.75</ele>
        <time>2021-08-13T06:53:05Z</time>
      </trkpt>
      <trkpt lat="46.68724" lon="4.10977">
        <ele>332.75</ele>
        <time>2021-08-13T06:53:06Z</time>
      </trkpt>
      <trkpt lat="46.68723" lon="4.10978">
        <ele>333.23</ele>
        <time>2021-08-13T06:53:07Z</time>
      </trkpt>
      <trkpt lat="46.6872" lon="4.10978">
        <ele>333.23</ele>
        <time>2021-08-13T06:53:08Z</time>
      </trkpt>
      <trkpt lat="46.68718" lon="4.10979">
        <ele>333.23</ele>
        <time>2021-08-13T06:53:09Z</time>
      </trkpt>
      <trkpt lat="46.68716" lon="4.10978">
        <ele>333.23</ele>
        <time>2021-08-13T06:53:10Z</time>
      </trkpt>
      <trkpt lat="46.68713" lon="4.10978">
        <ele>333.23</ele>
        <time>2021-08-13T06:53:11Z</time>
      </trkpt>
      <trkpt lat="46.68694" lon="4.10965">
        <ele>333.71</ele>
        <time>2021-08-13T06:53:18Z</time>
      </trkpt>
      <trkpt lat="46.68679" lon="4.1094">
        <ele>332.27</ele>
        <time>2021-08-13T06:53:25Z</time>
      </trkpt>
      <trkpt lat="46.6868" lon="4.10911">
        <ele>331.31</ele>
        <time>2021-08-13T06:53:30Z</time>
      </trkpt>
      <trkpt lat="46.68679" lon="4.10884">
        <ele>329.87</ele>
        <time>2021-08-13T06:53:34Z</time>
      </trkpt>
      <trkpt lat="46.68678" lon="4.10877">
        <ele>329.87</ele>
        <time>2021-08-13T06:53:35Z</time>
      </trkpt>
      <trkpt lat="46.68676" lon="4.1087">
        <ele>329.39</ele>
        <time>2021-08-13T06:53:36Z</time>
      </trkpt>
      <trkpt lat="46.68666" lon="4.10834">
        <ele>327.95</ele>
        <time>2021-08-13T06:53:42Z</time>
      </trkpt>
      <trkpt lat="46.68662" lon="4.10832">
        <ele>327.47</ele>
        <time>2021-08-13T06:53:43Z</time>
      </trkpt>
      <trkpt lat="46.68658" lon="4.10832">
        <ele>327.47</ele>
        <time>2021-08-13T06:53:44Z</time>
      </trkpt>
      <trkpt lat="46.68655" lon="4.10832">
        <ele>327.47</ele>
        <time>2021-08-13T06:53:45Z</time>
      </trkpt>
      <trkpt lat="46.68651" lon="4.10832">
        <ele>327.47</ele>
        <time>2021-08-13T06:53:46Z</time>
      </trkpt>
      <trkpt lat="46.68648" lon="4.1083">
        <ele>327.47</ele>
        <time>2021-08-13T06:53:47Z</time>
      </trkpt>
      <trkpt lat="46.68645" lon="4.10828">
        <ele>326.99</ele>
        <time>2021-08-13T06:53:48Z</time>
      </trkpt>
      <trkpt lat="46.68641" lon="4.10825">
        <ele>326.5</ele>
        <time>2021-08-13T06:53:49Z</time>
      </trkpt>
      <trkpt lat="46.68637" lon="4.10821">
        <ele>326.02</ele>
        <time>2021-08-13T06:53:50Z</time>
      </trkpt>
      <trkpt lat="46.68634" lon="4.10816">
        <ele>325.54</ele>
        <time>2021-08-13T06:53:51Z</time>
      </trkpt>
      <trkpt lat="46.68632" lon="4.10811">
        <ele>325.06</ele>
        <time>2021-08-13T06:53:52Z</time>
      </trkpt>
      <trkpt lat="46.6863" lon="4.10805">
        <ele>325.06</ele>
        <time>2021-08-13T06:53:53Z</time>
      </trkpt>
      <trkpt lat="46.68616" lon="4.10773">
        <ele>321.7</ele>
        <time>2021-08-13T06:53:59Z</time>
      </trkpt>
      <trkpt lat="46.68601" lon="4.10751">
        <ele>320.26</ele>
        <time>2021-08-13T06:54:05Z</time>
      </trkpt>
      <trkpt lat="46.6858" lon="4.1074">
        <ele>319.3</ele>
        <time>2021-08-13T06:54:11Z</time>
      </trkpt>
      <trkpt lat="46.68561" lon="4.10729">
        <ele>319.78</ele>
        <time>2021-08-13T06:54:18Z</time>
      </trkpt>
      <trkpt lat="46.68558" lon="4.10728">
        <ele>319.78</ele>
        <time>2021-08-13T06:54:19Z</time>
      </trkpt>
      <trkpt lat="46.68554" lon="4.10726">
        <ele>319.78</ele>
        <time>2021-08-13T06:54:20Z</time>
      </trkpt>
      <trkpt lat="46.68536" lon="4.10711">
        <ele>318.33</ele>
        <time>2021-08-13T06:54:26Z</time>
      </trkpt>
      <trkpt lat="46.68517" lon="4.10689">
        <ele>316.89</ele>
        <time>2021-08-13T06:54:32Z</time>
      </trkpt>
      <trkpt lat="46.68514" lon="4.10685">
        <ele>316.41</ele>
        <time>2021-08-13T06:54:33Z</time>
      </trkpt>
      <trkpt lat="46.6848" lon="4.10653">
        <ele>314.01</ele>
        <time>2021-08-13T06:54:41Z</time>
      </trkpt>
      <trkpt lat="46.68444" lon="4.10619">
        <ele>310.64</ele>
        <time>2021-08-13T06:54:49Z</time>
      </trkpt>
      <trkpt lat="46.68416" lon="4.10582">
        <ele>307.76</ele>
        <time>2021-08-13T06:54:56Z</time>
      </trkpt>
      <trkpt lat="46.68413" lon="4.10576">
        <ele>307.76</ele>
        <time>2021-08-13T06:54:57Z</time>
      </trkpt>
      <trkpt lat="46.68411" lon="4.10571">
        <ele>307.76</ele>
        <time>2021-08-13T06:54:58Z</time>
      </trkpt>
      <trkpt lat="46.68408" lon="4.10563">
        <ele>306.8</ele>
        <time>2021-08-13T06:54:59Z</time>
      </trkpt>
      <trkpt lat="46.68407" lon="4.10556">
        <ele>306.32</ele>
        <time>2021-08-13T06:55:00Z</time>
      </trkpt>
      <trkpt lat="46.68406" lon="4.10548">
        <ele>306.32</ele>
        <time>2021-08-13T06:55:01Z</time>
      </trkpt>
      <trkpt lat="46.68405" lon="4.10541">
        <ele>305.84</ele>
        <time>2021-08-13T06:55:02Z</time>
      </trkpt>
      <trkpt lat="46.68406" lon="4.10535">
        <ele>305.84</ele>
        <time>2021-08-13T06:55:03Z</time>
      </trkpt>
      <trkpt lat="46.68404" lon="4.10499">
        <ele>304.88</ele>
        <time>2021-08-13T06:55:09Z</time>
      </trkpt>
      <trkpt lat="46.68396" lon="4.10449">
        <ele>303.91</ele>
        <time>2021-08-13T06:55:16Z</time>
      </trkpt>
      <trkpt lat="46.68394" lon="4.10441">
        <ele>303.91</ele>
        <time>2021-08-13T06:55:17Z</time>
      </trkpt>
      <trkpt lat="46.68382" lon="4.10409">
        <ele>302.95</ele>
        <time>2021-08-13T06:55:23Z</time>
      </trkpt>
      <trkpt lat="46.68369" lon="4.10379">
        <ele>302.95</ele>
        <time>2021-08-13T06:55:30Z</time>
      </trkpt>
      <trkpt lat="46.6836" lon="4.10357">
        <ele>304.39</ele>
        <time>2021-08-13T06:55:35Z</time>
      </trkpt>
      <trkpt lat="46.6834" lon="4.10303">
        <ele>302.47</ele>
        <time>2021-08-13T06:55:46Z</time>
      </trkpt>
      <trkpt lat="46.68323" lon="4.10259">
        <ele>301.51</ele>
        <time>2021-08-13T06:55:55Z</time>
      </trkpt>
      <trkpt lat="46.68312" lon="4.10227">
        <ele>300.55</ele>
        <time>2021-08-13T06:56:01Z</time>
      </trkpt>
      <trkpt lat="46.6831" lon="4.10221">
        <ele>300.07</ele>
        <time>2021-08-13T06:56:02Z</time>
      </trkpt>
      <trkpt lat="46.68301" lon="4.10202">
        <ele>299.59</ele>
        <time>2021-08-13T06:56:06Z</time>
      </trkpt>
      <trkpt lat="46.68297" lon="4.10198">
        <ele>299.11</ele>
        <time>2021-08-13T06:56:07Z</time>
      </trkpt>
      <trkpt lat="46.68294" lon="4.10194">
        <ele>299.11</ele>
        <time>2021-08-13T06:56:08Z</time>
      </trkpt>
      <trkpt lat="46.68279" lon="4.10162">
        <ele>297.67</ele>
        <time>2021-08-13T06:56:14Z</time>
      </trkpt>
      <trkpt lat="46.68277" lon="4.10156">
        <ele>297.18</ele>
        <time>2021-08-13T06:56:15Z</time>
      </trkpt>
      <trkpt lat="46.68276" lon="4.10149">
        <ele>296.22</ele>
        <time>2021-08-13T06:56:16Z</time>
      </trkpt>
      <trkpt lat="46.68275" lon="4.10143">
        <ele>296.22</ele>
        <time>2021-08-13T06:56:17Z</time>
      </trkpt>
      <trkpt lat="46.68274" lon="4.10137">
        <ele>295.26</ele>
        <time>2021-08-13T06:56:18Z</time>
      </trkpt>
      <trkpt lat="46.68274" lon="4.10124">
        <ele>294.3</ele>
        <time>2021-08-13T06:56:20Z</time>
      </trkpt>
      <trkpt lat="46.68275" lon="4.10099">
        <ele>292.86</ele>
        <time>2021-08-13T06:56:24Z</time>
      </trkpt>
      <trkpt lat="46.68277" lon="4.10088">
        <ele>291.9</ele>
        <time>2021-08-13T06:56:26Z</time>
      </trkpt>
      <trkpt lat="46.68277" lon="4.10075">
        <ele>290.46</ele>
        <time>2021-08-13T06:56:28Z</time>
      </trkpt>
      <trkpt lat="46.68277" lon="4.10069">
        <ele>290.46</ele>
        <time>2021-08-13T06:56:29Z</time>
      </trkpt>
      <trkpt lat="46.68276" lon="4.10063">
        <ele>289.01</ele>
        <time>2021-08-13T06:56:30Z</time>
      </trkpt>
      <trkpt lat="46.68268" lon="4.10024">
        <ele>286.13</ele>
        <time>2021-08-13T06:56:36Z</time>
      </trkpt>
      <trkpt lat="46.68264" lon="4.09992">
        <ele>283.73</ele>
        <time>2021-08-13T06:56:41Z</time>
      </trkpt>
      <trkpt lat="46.6826" lon="4.09962">
        <ele>280.36</ele>
        <time>2021-08-13T06:56:45Z</time>
      </trkpt>
      <trkpt lat="46.68256" lon="4.09931">
        <ele>279.4</ele>
        <time>2021-08-13T06:56:49Z</time>
      </trkpt>
      <trkpt lat="46.68248" lon="4.09886">
        <ele>275.56</ele>
        <time>2021-08-13T06:56:55Z</time>
      </trkpt>
      <trkpt lat="46.68244" lon="4.09867">
        <ele>274.11</ele>
        <time>2021-08-13T06:56:58Z</time>
      </trkpt>
      <trkpt lat="46.68241" lon="4.09854">
        <ele>272.67</ele>
        <time>2021-08-13T06:57:01Z</time>
      </trkpt>
      <trkpt lat="46.68238" lon="4.09853">
        <ele>272.19</ele>
        <time>2021-08-13T06:57:02Z</time>
      </trkpt>
      <trkpt lat="46.68235" lon="4.09854">
        <ele>271.71</ele>
        <time>2021-08-13T06:57:03Z</time>
      </trkpt>
      <trkpt lat="46.68216" lon="4.09874">
        <ele>270.75</ele>
        <time>2021-08-13T06:57:09Z</time>
      </trkpt>
      <trkpt lat="46.68203" lon="4.09885">
        <ele>270.27</ele>
        <time>2021-08-13T06:57:12Z</time>
      </trkpt>
      <trkpt lat="46.68199" lon="4.09888">
        <ele>270.27</ele>
        <time>2021-08-13T06:57:13Z</time>
      </trkpt>
      <trkpt lat="46.68194" lon="4.0989">
        <ele>270.27</ele>
        <time>2021-08-13T06:57:14Z</time>
      </trkpt>
      <trkpt lat="46.68172" lon="4.09893">
        <ele>271.71</ele>
        <time>2021-08-13T06:57:20Z</time>
      </trkpt>
      <trkpt lat="46.68155" lon="4.09891">
        <ele>273.15</ele>
        <time>2021-08-13T06:57:27Z</time>
      </trkpt>
      <trkpt lat="46.68145" lon="4.09897">
        <ele>275.07</ele>
        <time>2021-08-13T06:57:34Z</time>
      </trkpt>
      <trkpt lat="46.68143" lon="4.09902">
        <ele>275.56</ele>
        <time>2021-08-13T06:57:37Z</time>
      </trkpt>
      <trkpt lat="46.68141" lon="4.09903">
        <ele>276.04</ele>
        <time>2021-08-13T06:57:38Z</time>
      </trkpt>
      <trkpt lat="46.68141" lon="4.09904">
        <ele>276.04</ele>
        <time>2021-08-13T06:57:39Z</time>
      </trkpt>
      <trkpt lat="46.6814" lon="4.09905">
        <ele>276.04</ele>
        <time>2021-08-13T06:57:40Z</time>
      </trkpt>
      <trkpt lat="46.68138" lon="4.09918">
        <ele>277</ele>
        <time>2021-08-13T06:57:48Z</time>
      </trkpt>
      <trkpt lat="46.68137" lon="4.09921">
        <ele>277</ele>
        <time>2021-08-13T06:57:50Z</time>
      </trkpt>
      <trkpt lat="46.68136" lon="4.09929">
        <ele>277.96</ele>
        <time>2021-08-13T06:57:56Z</time>
      </trkpt>
      <trkpt lat="46.68133" lon="4.0994">
        <ele>279.4</ele>
        <time>2021-08-13T06:58:05Z</time>
      </trkpt>
      <trkpt lat="46.6813" lon="4.09946">
        <ele>279.88</ele>
        <time>2021-08-13T06:58:12Z</time>
      </trkpt>
      <trkpt lat="46.68128" lon="4.0995">
        <ele>280.36</ele>
        <time>2021-08-13T06:58:16Z</time>
      </trkpt>
      <trkpt lat="46.68123" lon="4.09959">
        <ele>282.28</ele>
        <time>2021-08-13T06:58:24Z</time>
      </trkpt>
      <trkpt lat="46.68119" lon="4.09972">
        <ele>283.25</ele>
        <time>2021-08-13T06:58:33Z</time>
      </trkpt>
      <trkpt lat="46.68116" lon="4.09984">
        <ele>284.69</ele>
        <time>2021-08-13T06:58:42Z</time>
      </trkpt>
      <trkpt lat="46.68112" lon="4.10001">
        <ele>286.13</ele>
        <time>2021-08-13T06:58:52Z</time>
      </trkpt>
      <trkpt lat="46.6811" lon="4.10013">
        <ele>287.57</ele>
        <time>2021-08-13T06:59:01Z</time>
      </trkpt>
      <trkpt lat="46.68108" lon="4.10021">
        <ele>288.53</ele>
        <time>2021-08-13T06:59:08Z</time>
      </trkpt>
      <trkpt lat="46.68107" lon="4.10023">
        <ele>288.53</ele>
        <time>2021-08-13T06:59:10Z</time>
      </trkpt>
      <trkpt lat="46.68101" lon="4.10027">
        <ele>289.49</ele>
        <time>2021-08-13T06:59:18Z</time>
      </trkpt>
      <trkpt lat="46.68096" lon="4.10031">
        <ele>291.42</ele>
        <time>2021-08-13T06:59:26Z</time>
      </trkpt>
      <trkpt lat="46.68089" lon="4.10034">
        <ele>292.38</ele>
        <time>2021-08-13T06:59:34Z</time>
      </trkpt>
      <trkpt lat="46.68081" lon="4.10036">
        <ele>293.34</ele>
        <time>2021-08-13T06:59:43Z</time>
      </trkpt>
      <trkpt lat="46.68071" lon="4.10036">
        <ele>294.78</ele>
        <time>2021-08-13T06:59:54Z</time>
      </trkpt>
      <trkpt lat="46.68061" lon="4.10035">
        <ele>296.22</ele>
        <time>2021-08-13T07:00:04Z</time>
      </trkpt>
      <trkpt lat="46.68053" lon="4.10035">
        <ele>297.67</ele>
        <time>2021-08-13T07:00:13Z</time>
      </trkpt>
      <trkpt lat="46.68045" lon="4.10036">
        <ele>299.11</ele>
        <time>2021-08-13T07:00:22Z</time>
      </trkpt>
      <trkpt lat="46.68035" lon="4.10036">
        <ele>300.07</ele>
        <time>2021-08-13T07:00:31Z</time>
      </trkpt>
      <trkpt lat="46.68024" lon="4.10036">
        <ele>301.51</ele>
        <time>2021-08-13T07:00:42Z</time>
      </trkpt>
      <trkpt lat="46.68011" lon="4.10037">
        <ele>303.43</ele>
        <time>2021-08-13T07:00:54Z</time>
      </trkpt>
      <trkpt lat="46.68001" lon="4.10039">
        <ele>304.88</ele>
        <time>2021-08-13T07:01:04Z</time>
      </trkpt>
      <trkpt lat="46.67993" lon="4.10041">
        <ele>305.84</ele>
        <time>2021-08-13T07:01:11Z</time>
      </trkpt>
      <trkpt lat="46.67989" lon="4.10043">
        <ele>306.8</ele>
        <time>2021-08-13T07:01:16Z</time>
      </trkpt>
      <trkpt lat="46.67982" lon="4.10046">
        <ele>307.76</ele>
        <time>2021-08-13T07:01:24Z</time>
      </trkpt>
      <trkpt lat="46.67974" lon="4.10055">
        <ele>308.72</ele>
        <time>2021-08-13T07:01:34Z</time>
      </trkpt>
      <trkpt lat="46.67971" lon="4.10057">
        <ele>309.2</ele>
        <time>2021-08-13T07:01:40Z</time>
      </trkpt>
      <trkpt lat="46.67969" lon="4.10059">
        <ele>309.2</ele>
        <time>2021-08-13T07:01:42Z</time>
      </trkpt>
      <trkpt lat="46.67968" lon="4.10061">
        <ele>309.2</ele>
        <time>2021-08-13T07:01:43Z</time>
      </trkpt>
      <trkpt lat="46.67967" lon="4.10063">
        <ele>309.2</ele>
        <time>2021-08-13T07:01:44Z</time>
      </trkpt>
      <trkpt lat="46.67966" lon="4.10064">
        <ele>309.2</ele>
        <time>2021-08-13T07:01:45Z</time>
      </trkpt>
      <trkpt lat="46.67965" lon="4.10066">
        <ele>309.2</ele>
        <time>2021-08-13T07:01:46Z</time>
      </trkpt>
      <trkpt lat="46.67963" lon="4.10067">
        <ele>309.2</ele>
        <time>2021-08-13T07:01:47Z</time>
      </trkpt>
      <trkpt lat="46.67962" lon="4.10069">
        <ele>309.2</ele>
        <time>2021-08-13T07:01:48Z</time>
      </trkpt>
      <trkpt lat="46.6796" lon="4.10072">
        <ele>309.2</ele>
        <time>2021-08-13T07:01:49Z</time>
      </trkpt>
      <trkpt lat="46.67959" lon="4.10074">
        <ele>309.2</ele>
        <time>2021-08-13T07:01:50Z</time>
      </trkpt>
      <trkpt lat="46.67946" lon="4.10096">
        <ele>309.68</ele>
        <time>2021-08-13T07:01:58Z</time>
      </trkpt>
      <trkpt lat="46.67935" lon="4.10133">
        <ele>308.72</ele>
        <time>2021-08-13T07:02:07Z</time>
      </trkpt>
      <trkpt lat="46.67925" lon="4.1017">
        <ele>304.88</ele>
        <time>2021-08-13T07:02:12Z</time>
      </trkpt>
      <trkpt lat="46.67923" lon="4.1018">
        <ele>303.43</ele>
        <time>2021-08-13T07:02:13Z</time>
      </trkpt>
      <trkpt lat="46.67914" lon="4.10213">
        <ele>299.11</ele>
        <time>2021-08-13T07:02:16Z</time>
      </trkpt>
      <trkpt lat="46.67896" lon="4.10268">
        <ele>295.74</ele>
        <time>2021-08-13T07:02:20Z</time>
      </trkpt>
      <trkpt lat="46.6788" lon="4.10334">
        <ele>295.26</ele>
        <time>2021-08-13T07:02:25Z</time>
      </trkpt>
      <trkpt lat="46.6788" lon="4.10346">
        <ele>296.7</ele>
        <time>2021-08-13T07:02:26Z</time>
      </trkpt>
      <trkpt lat="46.6788" lon="4.10357">
        <ele>297.18</ele>
        <time>2021-08-13T07:02:27Z</time>
      </trkpt>
      <trkpt lat="46.67881" lon="4.10374">
        <ele>297.67</ele>
        <time>2021-08-13T07:02:29Z</time>
      </trkpt>
      <trkpt lat="46.67879" lon="4.10378">
        <ele>297.67</ele>
        <time>2021-08-13T07:02:30Z</time>
      </trkpt>
      <trkpt lat="46.67877" lon="4.1038">
        <ele>297.67</ele>
        <time>2021-08-13T07:02:31Z</time>
      </trkpt>
      <trkpt lat="46.67876" lon="4.1038">
        <ele>297.67</ele>
        <time>2021-08-13T07:02:32Z</time>
      </trkpt>
      <trkpt lat="46.67874" lon="4.10378">
        <ele>297.67</ele>
        <time>2021-08-13T07:02:33Z</time>
      </trkpt>
      <trkpt lat="46.67872" lon="4.10375">
        <ele>297.67</ele>
        <time>2021-08-13T07:02:34Z</time>
      </trkpt>
      <trkpt lat="46.6787" lon="4.10371">
        <ele>296.7</ele>
        <time>2021-08-13T07:02:35Z</time>
      </trkpt>
      <trkpt lat="46.67868" lon="4.10367">
        <ele>296.7</ele>
        <time>2021-08-13T07:02:36Z</time>
      </trkpt>
      <trkpt lat="46.67867" lon="4.10362">
        <ele>296.7</ele>
        <time>2021-08-13T07:02:37Z</time>
      </trkpt>
      <trkpt lat="46.67866" lon="4.10358">
        <ele>296.22</ele>
        <time>2021-08-13T07:02:38Z</time>
      </trkpt>
      <trkpt lat="46.67864" lon="4.10353">
        <ele>295.26</ele>
        <time>2021-08-13T07:02:39Z</time>
      </trkpt>
      <trkpt lat="46.67862" lon="4.10347">
        <ele>295.26</ele>
        <time>2021-08-13T07:02:40Z</time>
      </trkpt>
      <trkpt lat="46.67843" lon="4.103">
        <ele>291.9</ele>
        <time>2021-08-13T07:02:46Z</time>
      </trkpt>
      <trkpt lat="46.6783" lon="4.1027">
        <ele>288.53</ele>
        <time>2021-08-13T07:02:49Z</time>
      </trkpt>
      <trkpt lat="46.67816" lon="4.10236">
        <ele>285.17</ele>
        <time>2021-08-13T07:02:52Z</time>
      </trkpt>
      <trkpt lat="46.67798" lon="4.10193">
        <ele>281.32</ele>
        <time>2021-08-13T07:02:55Z</time>
      </trkpt>
      <trkpt lat="46.67785" lon="4.10163">
        <ele>277.96</ele>
        <time>2021-08-13T07:02:57Z</time>
      </trkpt>
      <trkpt lat="46.67772" lon="4.10135">
        <ele>274.59</ele>
        <time>2021-08-13T07:02:59Z</time>
      </trkpt>
      <trkpt lat="46.6775" lon="4.10092">
        <ele>269.79</ele>
        <time>2021-08-13T07:03:02Z</time>
      </trkpt>
      <trkpt lat="46.67728" lon="4.10032">
        <ele>265.94</ele>
        <time>2021-08-13T07:03:06Z</time>
      </trkpt>
      <trkpt lat="46.6771" lon="4.09983">
        <ele>262.1</ele>
        <time>2021-08-13T07:03:09Z</time>
      </trkpt>
      <trkpt lat="46.67706" lon="4.09965">
        <ele>261.14</ele>
        <time>2021-08-13T07:03:10Z</time>
      </trkpt>
      <trkpt lat="46.67704" lon="4.09947">
        <ele>260.17</ele>
        <time>2021-08-13T07:03:11Z</time>
      </trkpt>
      <trkpt lat="46.67702" lon="4.09928">
        <ele>260.17</ele>
        <time>2021-08-13T07:03:12Z</time>
      </trkpt>
      <trkpt lat="46.67702" lon="4.09909">
        <ele>259.69</ele>
        <time>2021-08-13T07:03:13Z</time>
      </trkpt>
      <trkpt lat="46.67703" lon="4.09891">
        <ele>259.69</ele>
        <time>2021-08-13T07:03:14Z</time>
      </trkpt>
      <trkpt lat="46.67705" lon="4.09872">
        <ele>259.21</ele>
        <time>2021-08-13T07:03:15Z</time>
      </trkpt>
      <trkpt lat="46.67711" lon="4.09809">
        <ele>259.21</ele>
        <time>2021-08-13T07:03:19Z</time>
      </trkpt>
      <trkpt lat="46.67713" lon="4.09798">
        <ele>259.21</ele>
        <time>2021-08-13T07:03:20Z</time>
      </trkpt>
      <trkpt lat="46.67717" lon="4.09787">
        <ele>258.73</ele>
        <time>2021-08-13T07:03:21Z</time>
      </trkpt>
      <trkpt lat="46.67723" lon="4.09779">
        <ele>258.73</ele>
        <time>2021-08-13T07:03:22Z</time>
      </trkpt>
      <trkpt lat="46.6773" lon="4.09772">
        <ele>258.73</ele>
        <time>2021-08-13T07:03:23Z</time>
      </trkpt>
      <trkpt lat="46.67735" lon="4.09769">
        <ele>259.21</ele>
        <time>2021-08-13T07:03:24Z</time>
      </trkpt>
      <trkpt lat="46.67758" lon="4.09754">
        <ele>259.21</ele>
        <time>2021-08-13T07:03:28Z</time>
      </trkpt>
      <trkpt lat="46.67771" lon="4.09743">
        <ele>260.65</ele>
        <time>2021-08-13T07:03:31Z</time>
      </trkpt>
      <trkpt lat="46.67787" lon="4.09725">
        <ele>262.1</ele>
        <time>2021-08-13T07:03:37Z</time>
      </trkpt>
      <trkpt lat="46.67799" lon="4.0971">
        <ele>263.54</ele>
        <time>2021-08-13T07:03:43Z</time>
      </trkpt>
      <trkpt lat="46.67813" lon="4.09687">
        <ele>265.46</ele>
        <time>2021-08-13T07:03:53Z</time>
      </trkpt>
      <trkpt lat="46.67824" lon="4.09666">
        <ele>266.9</ele>
        <time>2021-08-13T07:04:02Z</time>
      </trkpt>
      <trkpt lat="46.67833" lon="4.09644">
        <ele>268.83</ele>
        <time>2021-08-13T07:04:11Z</time>
      </trkpt>
      <trkpt lat="46.67844" lon="4.09621">
        <ele>269.31</ele>
        <time>2021-08-13T07:04:20Z</time>
      </trkpt>
      <trkpt lat="46.67859" lon="4.09612">
        <ele>271.23</ele>
        <time>2021-08-13T07:04:29Z</time>
      </trkpt>
      <trkpt lat="46.67871" lon="4.09604">
        <ele>272.67</ele>
        <time>2021-08-13T07:04:36Z</time>
      </trkpt>
      <trkpt lat="46.67883" lon="4.09599">
        <ele>273.63</ele>
        <time>2021-08-13T07:04:44Z</time>
      </trkpt>
      <trkpt lat="46.67888" lon="4.09595">
        <ele>275.07</ele>
        <time>2021-08-13T07:04:48Z</time>
      </trkpt>
      <trkpt lat="46.67889" lon="4.09594">
        <ele>275.07</ele>
        <time>2021-08-13T07:04:49Z</time>
      </trkpt>
      <trkpt lat="46.6789" lon="4.09593">
        <ele>275.56</ele>
        <time>2021-08-13T07:04:50Z</time>
      </trkpt>
      <trkpt lat="46.67891" lon="4.09591">
        <ele>275.56</ele>
        <time>2021-08-13T07:04:51Z</time>
      </trkpt>
      <trkpt lat="46.67892" lon="4.0959">
        <ele>275.56</ele>
        <time>2021-08-13T07:04:52Z</time>
      </trkpt>
      <trkpt lat="46.67893" lon="4.09588">
        <ele>276.04</ele>
        <time>2021-08-13T07:04:53Z</time>
      </trkpt>
      <trkpt lat="46.67895" lon="4.09587">
        <ele>276.04</ele>
        <time>2021-08-13T07:04:54Z</time>
      </trkpt>
      <trkpt lat="46.67896" lon="4.09586">
        <ele>276.04</ele>
        <time>2021-08-13T07:04:55Z</time>
      </trkpt>
      <trkpt lat="46.67897" lon="4.09585">
        <ele>276.52</ele>
        <time>2021-08-13T07:04:56Z</time>
      </trkpt>
      <trkpt lat="46.67898" lon="4.09583">
        <ele>276.52</ele>
        <time>2021-08-13T07:04:57Z</time>
      </trkpt>
      <trkpt lat="46.67899" lon="4.09581">
        <ele>276.52</ele>
        <time>2021-08-13T07:04:58Z</time>
      </trkpt>
      <trkpt lat="46.679" lon="4.0958">
        <ele>276.52</ele>
        <time>2021-08-13T07:04:59Z</time>
      </trkpt>
      <trkpt lat="46.67901" lon="4.09578">
        <ele>276.52</ele>
        <time>2021-08-13T07:05:00Z</time>
      </trkpt>
      <trkpt lat="46.67909" lon="4.09564">
        <ele>278.44</ele>
        <time>2021-08-13T07:05:09Z</time>
      </trkpt>
      <trkpt lat="46.67919" lon="4.09549">
        <ele>279.4</ele>
        <time>2021-08-13T07:05:18Z</time>
      </trkpt>
      <trkpt lat="46.67928" lon="4.09533">
        <ele>280.84</ele>
        <time>2021-08-13T07:05:27Z</time>
      </trkpt>
      <trkpt lat="46.6794" lon="4.09516">
        <ele>281.32</ele>
        <time>2021-08-13T07:05:36Z</time>
      </trkpt>
      <trkpt lat="46.67945" lon="4.09492">
        <ele>281.8</ele>
        <time>2021-08-13T07:05:44Z</time>
      </trkpt>
      <trkpt lat="46.67941" lon="4.09457">
        <ele>282.77</ele>
        <time>2021-08-13T07:05:53Z</time>
      </trkpt>
      <trkpt lat="46.67939" lon="4.09424">
        <ele>283.25</ele>
        <time>2021-08-13T07:06:01Z</time>
      </trkpt>
      <trkpt lat="46.67936" lon="4.094">
        <ele>283.73</ele>
        <time>2021-08-13T07:06:07Z</time>
      </trkpt>
      <trkpt lat="46.67934" lon="4.09375">
        <ele>284.21</ele>
        <time>2021-08-13T07:06:13Z</time>
      </trkpt>
      <trkpt lat="46.6793" lon="4.09328">
        <ele>285.65</ele>
        <time>2021-08-13T07:06:25Z</time>
      </trkpt>
      <trkpt lat="46.67928" lon="4.09285">
        <ele>286.13</ele>
        <time>2021-08-13T07:06:36Z</time>
      </trkpt>
      <trkpt lat="46.67924" lon="4.0924">
        <ele>287.09</ele>
        <time>2021-08-13T07:06:47Z</time>
      </trkpt>
      <trkpt lat="46.67916" lon="4.09207">
        <ele>288.05</ele>
        <time>2021-08-13T07:06:55Z</time>
      </trkpt>
      <trkpt lat="46.67898" lon="4.09186">
        <ele>288.53</ele>
        <time>2021-08-13T07:07:03Z</time>
      </trkpt>
      <trkpt lat="46.6788" lon="4.09161">
        <ele>289.49</ele>
        <time>2021-08-13T07:07:12Z</time>
      </trkpt>
      <trkpt lat="46.67865" lon="4.09132">
        <ele>290.46</ele>
        <time>2021-08-13T07:07:21Z</time>
      </trkpt>
      <trkpt lat="46.67853" lon="4.09106">
        <ele>291.42</ele>
        <time>2021-08-13T07:07:29Z</time>
      </trkpt>
      <trkpt lat="46.67839" lon="4.0908">
        <ele>291.42</ele>
        <time>2021-08-13T07:07:36Z</time>
      </trkpt>
      <trkpt lat="46.67822" lon="4.09049">
        <ele>291.42</ele>
        <time>2021-08-13T07:07:44Z</time>
      </trkpt>
      <trkpt lat="46.67806" lon="4.09025">
        <ele>291.42</ele>
        <time>2021-08-13T07:07:50Z</time>
      </trkpt>
      <trkpt lat="46.67783" lon="4.08994">
        <ele>292.38</ele>
        <time>2021-08-13T07:07:58Z</time>
      </trkpt>
      <trkpt lat="46.67768" lon="4.08971">
        <ele>293.82</ele>
        <time>2021-08-13T07:08:04Z</time>
      </trkpt>
      <trkpt lat="46.67759" lon="4.08956">
        <ele>295.74</ele>
        <time>2021-08-13T07:08:11Z</time>
      </trkpt>
      <trkpt lat="46.67756" lon="4.08946">
        <ele>297.18</ele>
        <time>2021-08-13T07:08:16Z</time>
      </trkpt>
      <trkpt lat="46.67751" lon="4.08931">
        <ele>298.63</ele>
        <time>2021-08-13T07:08:22Z</time>
      </trkpt>
      <trkpt lat="46.6775" lon="4.08926">
        <ele>298.63</ele>
        <time>2021-08-13T07:08:24Z</time>
      </trkpt>
      <trkpt lat="46.67751" lon="4.08908">
        <ele>300.07</ele>
        <time>2021-08-13T07:08:31Z</time>
      </trkpt>
      <trkpt lat="46.67753" lon="4.08887">
        <ele>301.03</ele>
        <time>2021-08-13T07:08:38Z</time>
      </trkpt>
      <trkpt lat="46.67756" lon="4.08866">
        <ele>301.99</ele>
        <time>2021-08-13T07:08:45Z</time>
      </trkpt>
      <trkpt lat="46.67758" lon="4.08847">
        <ele>303.43</ele>
        <time>2021-08-13T07:08:52Z</time>
      </trkpt>
      <trkpt lat="46.67758" lon="4.08822">
        <ele>304.88</ele>
        <time>2021-08-13T07:08:59Z</time>
      </trkpt>
      <trkpt lat="46.67752" lon="4.08782">
        <ele>305.36</ele>
        <time>2021-08-13T07:09:08Z</time>
      </trkpt>
      <trkpt lat="46.67742" lon="4.08735">
        <ele>306.32</ele>
        <time>2021-08-13T07:09:19Z</time>
      </trkpt>
      <trkpt lat="46.67737" lon="4.08703">
        <ele>307.76</ele>
        <time>2021-08-13T07:09:27Z</time>
      </trkpt>
      <trkpt lat="46.67728" lon="4.08669">
        <ele>309.2</ele>
        <time>2021-08-13T07:09:36Z</time>
      </trkpt>
      <trkpt lat="46.67714" lon="4.08633">
        <ele>310.16</ele>
        <time>2021-08-13T07:09:46Z</time>
      </trkpt>
      <trkpt lat="46.67702" lon="4.08598">
        <ele>311.12</ele>
        <time>2021-08-13T07:09:55Z</time>
      </trkpt>
      <trkpt lat="46.67685" lon="4.0855">
        <ele>311.6</ele>
        <time>2021-08-13T07:10:07Z</time>
      </trkpt>
      <trkpt lat="46.67669" lon="4.08505">
        <ele>312.57</ele>
        <time>2021-08-13T07:10:18Z</time>
      </trkpt>
      <trkpt lat="46.67654" lon="4.08467">
        <ele>313.53</ele>
        <time>2021-08-13T07:10:28Z</time>
      </trkpt>
      <trkpt lat="46.67645" lon="4.08422">
        <ele>314.97</ele>
        <time>2021-08-13T07:10:39Z</time>
      </trkpt>
      <trkpt lat="46.67636" lon="4.08379">
        <ele>315.93</ele>
        <time>2021-08-13T07:10:49Z</time>
      </trkpt>
      <trkpt lat="46.67626" lon="4.08341">
        <ele>317.37</ele>
        <time>2021-08-13T07:10:59Z</time>
      </trkpt>
      <trkpt lat="46.67618" lon="4.08316">
        <ele>319.78</ele>
        <time>2021-08-13T07:11:06Z</time>
      </trkpt>
      <trkpt lat="46.67609" lon="4.08281">
        <ele>320.74</ele>
        <time>2021-08-13T07:11:16Z</time>
      </trkpt>
      <trkpt lat="46.67597" lon="4.0823">
        <ele>322.18</ele>
        <time>2021-08-13T07:11:28Z</time>
      </trkpt>
      <trkpt lat="46.67586" lon="4.08175">
        <ele>323.14</ele>
        <time>2021-08-13T07:11:40Z</time>
      </trkpt>
      <trkpt lat="46.6758" lon="4.08142">
        <ele>324.58</ele>
        <time>2021-08-13T07:11:48Z</time>
      </trkpt>
      <trkpt lat="46.67577" lon="4.08113">
        <ele>326.99</ele>
        <time>2021-08-13T07:11:57Z</time>
      </trkpt>
      <trkpt lat="46.67578" lon="4.08091">
        <ele>327.95</ele>
        <time>2021-08-13T07:12:04Z</time>
      </trkpt>
      <trkpt lat="46.67582" lon="4.08054">
        <ele>330.35</ele>
        <time>2021-08-13T07:12:15Z</time>
      </trkpt>
      <trkpt lat="46.67584" lon="4.08019">
        <ele>331.31</ele>
        <time>2021-08-13T07:12:24Z</time>
      </trkpt>
      <trkpt lat="46.67586" lon="4.07978">
        <ele>331.79</ele>
        <time>2021-08-13T07:12:32Z</time>
      </trkpt>
      <trkpt lat="46.67587" lon="4.0792">
        <ele>331.79</ele>
        <time>2021-08-13T07:12:42Z</time>
      </trkpt>
      <trkpt lat="46.67586" lon="4.07863">
        <ele>331.79</ele>
        <time>2021-08-13T07:12:52Z</time>
      </trkpt>
      <trkpt lat="46.67579" lon="4.07794">
        <ele>332.75</ele>
        <time>2021-08-13T07:13:04Z</time>
      </trkpt>
      <trkpt lat="46.67572" lon="4.07748">
        <ele>333.71</ele>
        <time>2021-08-13T07:13:13Z</time>
      </trkpt>
      <trkpt lat="46.67566" lon="4.07706">
        <ele>334.2</ele>
        <time>2021-08-13T07:13:21Z</time>
      </trkpt>
      <trkpt lat="46.67562" lon="4.07654">
        <ele>334.2</ele>
        <time>2021-08-13T07:13:31Z</time>
      </trkpt>
      <trkpt lat="46.67559" lon="4.07618">
        <ele>335.16</ele>
        <time>2021-08-13T07:13:38Z</time>
      </trkpt>
      <trkpt lat="46.67558" lon="4.07591">
        <ele>336.12</ele>
        <time>2021-08-13T07:13:44Z</time>
      </trkpt>
      <trkpt lat="46.67561" lon="4.07552">
        <ele>337.08</ele>
        <time>2021-08-13T07:13:52Z</time>
      </trkpt>
      <trkpt lat="46.67559" lon="4.07516">
        <ele>338.04</ele>
        <time>2021-08-13T07:14:00Z</time>
      </trkpt>
      <trkpt lat="46.67554" lon="4.07471">
        <ele>338.04</ele>
        <time>2021-08-13T07:14:08Z</time>
      </trkpt>
      <trkpt lat="46.67549" lon="4.07426">
        <ele>336.12</ele>
        <time>2021-08-13T07:14:14Z</time>
      </trkpt>
      <trkpt lat="46.67539" lon="4.07357">
        <ele>333.71</ele>
        <time>2021-08-13T07:14:22Z</time>
      </trkpt>
      <trkpt lat="46.67522" lon="4.07264">
        <ele>331.79</ele>
        <time>2021-08-13T07:14:32Z</time>
      </trkpt>
      <trkpt lat="46.67517" lon="4.0719">
        <ele>330.83</ele>
        <time>2021-08-13T07:14:40Z</time>
      </trkpt>
      <trkpt lat="46.67514" lon="4.07096">
        <ele>330.35</ele>
        <time>2021-08-13T07:14:51Z</time>
      </trkpt>
      <trkpt lat="46.67517" lon="4.07018">
        <ele>329.87</ele>
        <time>2021-08-13T07:15:01Z</time>
      </trkpt>
      <trkpt lat="46.67521" lon="4.06931">
        <ele>329.87</ele>
        <time>2021-08-13T07:15:12Z</time>
      </trkpt>
      <trkpt lat="46.67529" lon="4.06853">
        <ele>329.87</ele>
        <time>2021-08-13T07:15:23Z</time>
      </trkpt>
      <trkpt lat="46.67535" lon="4.06814">
        <ele>331.31</ele>
        <time>2021-08-13T07:15:29Z</time>
      </trkpt>
      <trkpt lat="46.67542" lon="4.06765">
        <ele>331.79</ele>
        <time>2021-08-13T07:15:37Z</time>
      </trkpt>
      <trkpt lat="46.67544" lon="4.067">
        <ele>332.75</ele>
        <time>2021-08-13T07:15:48Z</time>
      </trkpt>
      <trkpt lat="46.67543" lon="4.06674">
        <ele>333.71</ele>
        <time>2021-08-13T07:15:53Z</time>
      </trkpt>
      <trkpt lat="46.67542" lon="4.06669">
        <ele>333.71</ele>
        <time>2021-08-13T07:15:54Z</time>
      </trkpt>
      <trkpt lat="46.67542" lon="4.06616">
        <ele>334.68</ele>
        <time>2021-08-13T07:16:04Z</time>
      </trkpt>
      <trkpt lat="46.67544" lon="4.06563">
        <ele>334.68</ele>
        <time>2021-08-13T07:16:12Z</time>
      </trkpt>
      <trkpt lat="46.67551" lon="4.06503">
        <ele>334.68</ele>
        <time>2021-08-13T07:16:21Z</time>
      </trkpt>
      <trkpt lat="46.67559" lon="4.06437">
        <ele>333.23</ele>
        <time>2021-08-13T07:16:31Z</time>
      </trkpt>
      <trkpt lat="46.67559" lon="4.0643">
        <ele>332.75</ele>
        <time>2021-08-13T07:16:32Z</time>
      </trkpt>
      <trkpt lat="46.67557" lon="4.06424">
        <ele>332.75</ele>
        <time>2021-08-13T07:16:33Z</time>
      </trkpt>
      <trkpt lat="46.67554" lon="4.06419">
        <ele>332.75</ele>
        <time>2021-08-13T07:16:34Z</time>
      </trkpt>
      <trkpt lat="46.67551" lon="4.06416">
        <ele>332.75</ele>
        <time>2021-08-13T07:16:35Z</time>
      </trkpt>
      <trkpt lat="46.67548" lon="4.06415">
        <ele>332.75</ele>
        <time>2021-08-13T07:16:36Z</time>
      </trkpt>
      <trkpt lat="46.67544" lon="4.06414">
        <ele>334.2</ele>
        <time>2021-08-13T07:16:37Z</time>
      </trkpt>
      <trkpt lat="46.6754" lon="4.06413">
        <ele>334.2</ele>
        <time>2021-08-13T07:16:38Z</time>
      </trkpt>
      <trkpt lat="46.67515" lon="4.06411">
        <ele>335.64</ele>
        <time>2021-08-13T07:16:45Z</time>
      </trkpt>
      <trkpt lat="46.67495" lon="4.06411">
        <ele>335.64</ele>
        <time>2021-08-13T07:16:50Z</time>
      </trkpt>
      <trkpt lat="46.67489" lon="4.06411">
        <ele>334.2</ele>
        <time>2021-08-13T07:16:51Z</time>
      </trkpt>
      <trkpt lat="46.67484" lon="4.06411">
        <ele>334.2</ele>
        <time>2021-08-13T07:16:52Z</time>
      </trkpt>
      <trkpt lat="46.67461" lon="4.06417">
        <ele>332.75</ele>
        <time>2021-08-13T07:16:56Z</time>
      </trkpt>
      <trkpt lat="46.67455" lon="4.0642">
        <ele>332.27</ele>
        <time>2021-08-13T07:16:57Z</time>
      </trkpt>
      <trkpt lat="46.67449" lon="4.06425">
        <ele>332.27</ele>
        <time>2021-08-13T07:16:58Z</time>
      </trkpt>
      <trkpt lat="46.67443" lon="4.06431">
        <ele>331.31</ele>
        <time>2021-08-13T07:16:59Z</time>
      </trkpt>
      <trkpt lat="46.67438" lon="4.06437">
        <ele>330.83</ele>
        <time>2021-08-13T07:17:00Z</time>
      </trkpt>
      <trkpt lat="46.67433" lon="4.06444">
        <ele>330.35</ele>
        <time>2021-08-13T07:17:01Z</time>
      </trkpt>
      <trkpt lat="46.67415" lon="4.06464">
        <ele>329.39</ele>
        <time>2021-08-13T07:17:04Z</time>
      </trkpt>
      <trkpt lat="46.67393" lon="4.06482">
        <ele>326.02</ele>
        <time>2021-08-13T07:17:07Z</time>
      </trkpt>
      <trkpt lat="46.67351" lon="4.06514">
        <ele>322.66</ele>
        <time>2021-08-13T07:17:13Z</time>
      </trkpt>
      <trkpt lat="46.67344" lon="4.06517">
        <ele>321.7</ele>
        <time>2021-08-13T07:17:14Z</time>
      </trkpt>
      <trkpt lat="46.67336" lon="4.06519">
        <ele>320.74</ele>
        <time>2021-08-13T07:17:15Z</time>
      </trkpt>
      <trkpt lat="46.67327" lon="4.0652">
        <ele>320.26</ele>
        <time>2021-08-13T07:17:16Z</time>
      </trkpt>
      <trkpt lat="46.67318" lon="4.06519">
        <ele>319.78</ele>
        <time>2021-08-13T07:17:17Z</time>
      </trkpt>
      <trkpt lat="46.67309" lon="4.06518">
        <ele>319.3</ele>
        <time>2021-08-13T07:17:18Z</time>
      </trkpt>
      <trkpt lat="46.67261" lon="4.06519">
        <ele>315.93</ele>
        <time>2021-08-13T07:17:23Z</time>
      </trkpt>
      <trkpt lat="46.67252" lon="4.06521">
        <ele>315.93</ele>
        <time>2021-08-13T07:17:24Z</time>
      </trkpt>
      <trkpt lat="46.67222" lon="4.06532">
        <ele>314.97</ele>
        <time>2021-08-13T07:17:28Z</time>
      </trkpt>
      <trkpt lat="46.67218" lon="4.06531">
        <ele>315.45</ele>
        <time>2021-08-13T07:17:29Z</time>
      </trkpt>
      <trkpt lat="46.67215" lon="4.06526">
        <ele>315.45</ele>
        <time>2021-08-13T07:17:30Z</time>
      </trkpt>
      <trkpt lat="46.67214" lon="4.06523">
        <ele>315.45</ele>
        <time>2021-08-13T07:17:31Z</time>
      </trkpt>
      <trkpt lat="46.67213" lon="4.06518">
        <ele>315.45</ele>
        <time>2021-08-13T07:17:32Z</time>
      </trkpt>
      <trkpt lat="46.67212" lon="4.06514">
        <ele>315.45</ele>
        <time>2021-08-13T07:17:33Z</time>
      </trkpt>
      <trkpt lat="46.6721" lon="4.06509">
        <ele>314.97</ele>
        <time>2021-08-13T07:17:34Z</time>
      </trkpt>
      <trkpt lat="46.67196" lon="4.06464">
        <ele>314.49</ele>
        <time>2021-08-13T07:17:41Z</time>
      </trkpt>
      <trkpt lat="46.67176" lon="4.06391">
        <ele>312.57</ele>
        <time>2021-08-13T07:17:51Z</time>
      </trkpt>
      <trkpt lat="46.67172" lon="4.06377">
        <ele>312.57</ele>
        <time>2021-08-13T07:17:53Z</time>
      </trkpt>
      <trkpt lat="46.67165" lon="4.06317">
        <ele>311.6</ele>
        <time>2021-08-13T07:18:01Z</time>
      </trkpt>
      <trkpt lat="46.67166" lon="4.06303">
        <ele>311.6</ele>
        <time>2021-08-13T07:18:03Z</time>
      </trkpt>
      <trkpt lat="46.67167" lon="4.06296">
        <ele>311.6</ele>
        <time>2021-08-13T07:18:04Z</time>
      </trkpt>
      <trkpt lat="46.67169" lon="4.06282">
        <ele>311.6</ele>
        <time>2021-08-13T07:18:06Z</time>
      </trkpt>
      <trkpt lat="46.6717" lon="4.06276">
        <ele>311.6</ele>
        <time>2021-08-13T07:18:07Z</time>
      </trkpt>
      <trkpt lat="46.67181" lon="4.06234">
        <ele>311.12</ele>
        <time>2021-08-13T07:18:14Z</time>
      </trkpt>
      <trkpt lat="46.67182" lon="4.06215">
        <ele>311.12</ele>
        <time>2021-08-13T07:18:17Z</time>
      </trkpt>
      <trkpt lat="46.67182" lon="4.06209">
        <ele>311.12</ele>
        <time>2021-08-13T07:18:18Z</time>
      </trkpt>
      <trkpt lat="46.6718" lon="4.06202">
        <ele>311.12</ele>
        <time>2021-08-13T07:18:19Z</time>
      </trkpt>
      <trkpt lat="46.67179" lon="4.06196">
        <ele>310.64</ele>
        <time>2021-08-13T07:18:20Z</time>
      </trkpt>
      <trkpt lat="46.67177" lon="4.0619">
        <ele>310.64</ele>
        <time>2021-08-13T07:18:21Z</time>
      </trkpt>
      <trkpt lat="46.67175" lon="4.06185">
        <ele>310.64</ele>
        <time>2021-08-13T07:18:22Z</time>
      </trkpt>
      <trkpt lat="46.67173" lon="4.06179">
        <ele>310.64</ele>
        <time>2021-08-13T07:18:23Z</time>
      </trkpt>
      <trkpt lat="46.67165" lon="4.06151">
        <ele>310.64</ele>
        <time>2021-08-13T07:18:28Z</time>
      </trkpt>
      <trkpt lat="46.67164" lon="4.06145">
        <ele>310.64</ele>
        <time>2021-08-13T07:18:29Z</time>
      </trkpt>
      <trkpt lat="46.67159" lon="4.06122">
        <ele>310.64</ele>
        <time>2021-08-13T07:18:33Z</time>
      </trkpt>
      <trkpt lat="46.67142" lon="4.06078">
        <ele>311.6</ele>
        <time>2021-08-13T07:18:41Z</time>
      </trkpt>
      <trkpt lat="46.67124" lon="4.06038">
        <ele>313.05</ele>
        <time>2021-08-13T07:18:50Z</time>
      </trkpt>
      <trkpt lat="46.67108" lon="4.06015">
        <ele>314.01</ele>
        <time>2021-08-13T07:18:58Z</time>
      </trkpt>
      <trkpt lat="46.67092" lon="4.06002">
        <ele>315.45</ele>
        <time>2021-08-13T07:19:06Z</time>
      </trkpt>
      <trkpt lat="46.67078" lon="4.05993">
        <ele>316.89</ele>
        <time>2021-08-13T07:19:14Z</time>
      </trkpt>
      <trkpt lat="46.67064" lon="4.05986">
        <ele>318.33</ele>
        <time>2021-08-13T07:19:22Z</time>
      </trkpt>
      <trkpt lat="46.67047" lon="4.05978">
        <ele>320.26</ele>
        <time>2021-08-13T07:19:31Z</time>
      </trkpt>
      <trkpt lat="46.67036" lon="4.05971">
        <ele>320.74</ele>
        <time>2021-08-13T07:19:40Z</time>
      </trkpt>
      <trkpt lat="46.67022" lon="4.05964">
        <ele>321.7</ele>
        <time>2021-08-13T07:19:50Z</time>
      </trkpt>
      <trkpt lat="46.67012" lon="4.05949">
        <ele>323.62</ele>
        <time>2021-08-13T07:19:59Z</time>
      </trkpt>
      <trkpt lat="46.67006" lon="4.05937">
        <ele>324.1</ele>
        <time>2021-08-13T07:20:05Z</time>
      </trkpt>
      <trkpt lat="46.67005" lon="4.05935">
        <ele>325.06</ele>
        <time>2021-08-13T07:20:06Z</time>
      </trkpt>
      <trkpt lat="46.67004" lon="4.05933">
        <ele>325.06</ele>
        <time>2021-08-13T07:20:07Z</time>
      </trkpt>
      <trkpt lat="46.67004" lon="4.05932">
        <ele>325.06</ele>
        <time>2021-08-13T07:20:08Z</time>
      </trkpt>
      <trkpt lat="46.67002" lon="4.0593">
        <ele>325.54</ele>
        <time>2021-08-13T07:20:09Z</time>
      </trkpt>
      <trkpt lat="46.66994" lon="4.05913">
        <ele>326.99</ele>
        <time>2021-08-13T07:20:19Z</time>
      </trkpt>
      <trkpt lat="46.66992" lon="4.05906">
        <ele>327.47</ele>
        <time>2021-08-13T07:20:23Z</time>
      </trkpt>
      <trkpt lat="46.6699" lon="4.05905">
        <ele>327.47</ele>
        <time>2021-08-13T07:20:24Z</time>
      </trkpt>
      <trkpt lat="46.66989" lon="4.05904">
        <ele>328.43</ele>
        <time>2021-08-13T07:20:25Z</time>
      </trkpt>
      <trkpt lat="46.66988" lon="4.05903">
        <ele>328.43</ele>
        <time>2021-08-13T07:20:26Z</time>
      </trkpt>
      <trkpt lat="46.66987" lon="4.05901">
        <ele>328.43</ele>
        <time>2021-08-13T07:20:27Z</time>
      </trkpt>
      <trkpt lat="46.66986" lon="4.059">
        <ele>328.43</ele>
        <time>2021-08-13T07:20:28Z</time>
      </trkpt>
      <trkpt lat="46.66986" lon="4.05898">
        <ele>328.43</ele>
        <time>2021-08-13T07:20:29Z</time>
      </trkpt>
      <trkpt lat="46.66985" lon="4.05896">
        <ele>328.91</ele>
        <time>2021-08-13T07:20:30Z</time>
      </trkpt>
      <trkpt lat="46.66984" lon="4.05894">
        <ele>328.91</ele>
        <time>2021-08-13T07:20:31Z</time>
      </trkpt>
      <trkpt lat="46.66983" lon="4.05892">
        <ele>328.91</ele>
        <time>2021-08-13T07:20:32Z</time>
      </trkpt>
      <trkpt lat="46.66982" lon="4.0589">
        <ele>328.91</ele>
        <time>2021-08-13T07:20:33Z</time>
      </trkpt>
      <trkpt lat="46.66981" lon="4.05888">
        <ele>329.87</ele>
        <time>2021-08-13T07:20:34Z</time>
      </trkpt>
      <trkpt lat="46.66975" lon="4.05866">
        <ele>330.83</ele>
        <time>2021-08-13T07:20:44Z</time>
      </trkpt>
      <trkpt lat="46.66975" lon="4.05847">
        <ele>331.79</ele>
        <time>2021-08-13T07:20:52Z</time>
      </trkpt>
      <trkpt lat="46.66976" lon="4.05845">
        <ele>332.27</ele>
        <time>2021-08-13T07:20:53Z</time>
      </trkpt>
      <trkpt lat="46.66981" lon="4.05823">
        <ele>333.71</ele>
        <time>2021-08-13T07:21:02Z</time>
      </trkpt>
      <trkpt lat="46.66983" lon="4.05814">
        <ele>334.68</ele>
        <time>2021-08-13T07:21:06Z</time>
      </trkpt>
      <trkpt lat="46.66979" lon="4.05798">
        <ele>336.12</ele>
        <time>2021-08-13T07:21:14Z</time>
      </trkpt>
      <trkpt lat="46.66974" lon="4.05779">
        <ele>337.08</ele>
        <time>2021-08-13T07:21:23Z</time>
      </trkpt>
      <trkpt lat="46.66973" lon="4.05776">
        <ele>337.08</ele>
        <time>2021-08-13T07:21:24Z</time>
      </trkpt>
      <trkpt lat="46.66972" lon="4.05775">
        <ele>337.08</ele>
        <time>2021-08-13T07:21:25Z</time>
      </trkpt>
      <trkpt lat="46.66971" lon="4.05773">
        <ele>337.56</ele>
        <time>2021-08-13T07:21:26Z</time>
      </trkpt>
      <trkpt lat="46.6697" lon="4.05771">
        <ele>337.56</ele>
        <time>2021-08-13T07:21:27Z</time>
      </trkpt>
      <trkpt lat="46.66969" lon="4.05768">
        <ele>337.56</ele>
        <time>2021-08-13T07:21:28Z</time>
      </trkpt>
      <trkpt lat="46.66969" lon="4.05766">
        <ele>337.56</ele>
        <time>2021-08-13T07:21:29Z</time>
      </trkpt>
      <trkpt lat="46.66968" lon="4.05764">
        <ele>337.56</ele>
        <time>2021-08-13T07:21:30Z</time>
      </trkpt>
      <trkpt lat="46.66968" lon="4.05762">
        <ele>337.56</ele>
        <time>2021-08-13T07:21:31Z</time>
      </trkpt>
      <trkpt lat="46.66967" lon="4.05758">
        <ele>337.56</ele>
        <time>2021-08-13T07:21:33Z</time>
      </trkpt>
      <trkpt lat="46.66966" lon="4.05755">
        <ele>337.56</ele>
        <time>2021-08-13T07:21:34Z</time>
      </trkpt>
      <trkpt lat="46.66966" lon="4.05753">
        <ele>338.04</ele>
        <time>2021-08-13T07:21:35Z</time>
      </trkpt>
      <trkpt lat="46.66965" lon="4.0575">
        <ele>338.04</ele>
        <time>2021-08-13T07:21:36Z</time>
      </trkpt>
      <trkpt lat="46.66964" lon="4.05748">
        <ele>338.04</ele>
        <time>2021-08-13T07:21:37Z</time>
      </trkpt>
      <trkpt lat="46.66963" lon="4.05745">
        <ele>338.04</ele>
        <time>2021-08-13T07:21:38Z</time>
      </trkpt>
      <trkpt lat="46.66963" lon="4.05743">
        <ele>338.04</ele>
        <time>2021-08-13T07:21:39Z</time>
      </trkpt>
      <trkpt lat="46.66956" lon="4.05717">
        <ele>339.48</ele>
        <time>2021-08-13T07:21:49Z</time>
      </trkpt>
      <trkpt lat="46.6695" lon="4.05691">
        <ele>340.44</ele>
        <time>2021-08-13T07:21:59Z</time>
      </trkpt>
      <trkpt lat="46.66945" lon="4.05662">
        <ele>341.89</ele>
        <time>2021-08-13T07:22:10Z</time>
      </trkpt>
      <trkpt lat="46.66937" lon="4.05634">
        <ele>342.85</ele>
        <time>2021-08-13T07:22:20Z</time>
      </trkpt>
      <trkpt lat="46.6693" lon="4.05608">
        <ele>343.81</ele>
        <time>2021-08-13T07:22:29Z</time>
      </trkpt>
      <trkpt lat="46.66919" lon="4.05569">
        <ele>344.77</ele>
        <time>2021-08-13T07:22:41Z</time>
      </trkpt>
      <trkpt lat="46.66914" lon="4.0554">
        <ele>345.73</ele>
        <time>2021-08-13T07:22:49Z</time>
      </trkpt>
      <trkpt lat="46.66913" lon="4.05515">
        <ele>345.73</ele>
        <time>2021-08-13T07:22:55Z</time>
      </trkpt>
      <trkpt lat="46.66912" lon="4.05474">
        <ele>345.73</ele>
        <time>2021-08-13T07:23:03Z</time>
      </trkpt>
      <trkpt lat="46.66909" lon="4.05436">
        <ele>342.37</ele>
        <time>2021-08-13T07:23:09Z</time>
      </trkpt>
      <trkpt lat="46.6691" lon="4.05424">
        <ele>340.44</ele>
        <time>2021-08-13T07:23:11Z</time>
      </trkpt>
      <trkpt lat="46.6691" lon="4.05418">
        <ele>339.96</ele>
        <time>2021-08-13T07:23:12Z</time>
      </trkpt>
      <trkpt lat="46.66913" lon="4.05378">
        <ele>336.6</ele>
        <time>2021-08-13T07:23:16Z</time>
      </trkpt>
      <trkpt lat="46.66914" lon="4.05353">
        <ele>334.68</ele>
        <time>2021-08-13T07:23:18Z</time>
      </trkpt>
      <trkpt lat="46.66912" lon="4.05328">
        <ele>333.71</ele>
        <time>2021-08-13T07:23:20Z</time>
      </trkpt>
      <trkpt lat="46.66903" lon="4.05236">
        <ele>330.83</ele>
        <time>2021-08-13T07:23:27Z</time>
      </trkpt>
      <trkpt lat="46.66893" lon="4.05168">
        <ele>330.83</ele>
        <time>2021-08-13T07:23:33Z</time>
      </trkpt>
      <trkpt lat="46.66876" lon="4.05115">
        <ele>330.83</ele>
        <time>2021-08-13T07:23:39Z</time>
      </trkpt>
      <trkpt lat="46.66868" lon="4.05093">
        <ele>332.27</ele>
        <time>2021-08-13T07:23:42Z</time>
      </trkpt>
      <trkpt lat="46.66866" lon="4.05087">
        <ele>332.75</ele>
        <time>2021-08-13T07:23:43Z</time>
      </trkpt>
      <trkpt lat="46.66855" lon="4.05055">
        <ele>334.2</ele>
        <time>2021-08-13T07:23:50Z</time>
      </trkpt>
      <trkpt lat="46.66847" lon="4.05023">
        <ele>335.64</ele>
        <time>2021-08-13T07:23:59Z</time>
      </trkpt>
      <trkpt lat="46.6684" lon="4.04994">
        <ele>335.64</ele>
        <time>2021-08-13T07:24:06Z</time>
      </trkpt>
      <trkpt lat="46.66832" lon="4.04946">
        <ele>333.23</ele>
        <time>2021-08-13T07:24:13Z</time>
      </trkpt>
      <trkpt lat="46.66818" lon="4.04897">
        <ele>329.39</ele>
        <time>2021-08-13T07:24:19Z</time>
      </trkpt>
      <trkpt lat="46.66802" lon="4.04859">
        <ele>326.5</ele>
        <time>2021-08-13T07:24:23Z</time>
      </trkpt>
      <trkpt lat="46.6679" lon="4.04826">
        <ele>323.62</ele>
        <time>2021-08-13T07:24:26Z</time>
      </trkpt>
      <trkpt lat="46.66772" lon="4.04777">
        <ele>319.78</ele>
        <time>2021-08-13T07:24:30Z</time>
      </trkpt>
      <trkpt lat="46.66755" lon="4.04727">
        <ele>316.89</ele>
        <time>2021-08-13T07:24:34Z</time>
      </trkpt>
      <trkpt lat="46.66752" lon="4.04719">
        <ele>315.93</ele>
        <time>2021-08-13T07:24:35Z</time>
      </trkpt>
      <trkpt lat="46.66751" lon="4.04711">
        <ele>316.89</ele>
        <time>2021-08-13T07:24:36Z</time>
      </trkpt>
      <trkpt lat="46.66751" lon="4.04705">
        <ele>315.93</ele>
        <time>2021-08-13T07:24:37Z</time>
      </trkpt>
      <trkpt lat="46.66754" lon="4.04699">
        <ele>315.45</ele>
        <time>2021-08-13T07:24:38Z</time>
      </trkpt>
      <trkpt lat="46.66758" lon="4.04694">
        <ele>314.97</ele>
        <time>2021-08-13T07:24:39Z</time>
      </trkpt>
      <trkpt lat="46.66763" lon="4.0469">
        <ele>314.97</ele>
        <time>2021-08-13T07:24:40Z</time>
      </trkpt>
      <trkpt lat="46.66768" lon="4.04686">
        <ele>314.01</ele>
        <time>2021-08-13T07:24:41Z</time>
      </trkpt>
      <trkpt lat="46.66784" lon="4.04673">
        <ele>314.01</ele>
        <time>2021-08-13T07:24:44Z</time>
      </trkpt>
      <trkpt lat="46.66788" lon="4.04667">
        <ele>313.53</ele>
        <time>2021-08-13T07:24:45Z</time>
      </trkpt>
      <trkpt lat="46.66791" lon="4.04659">
        <ele>313.53</ele>
        <time>2021-08-13T07:24:46Z</time>
      </trkpt>
      <trkpt lat="46.66792" lon="4.04652">
        <ele>313.05</ele>
        <time>2021-08-13T07:24:47Z</time>
      </trkpt>
      <trkpt lat="46.66794" lon="4.04643">
        <ele>313.05</ele>
        <time>2021-08-13T07:24:48Z</time>
      </trkpt>
      <trkpt lat="46.66797" lon="4.04625">
        <ele>313.05</ele>
        <time>2021-08-13T07:24:51Z</time>
      </trkpt>
      <trkpt lat="46.66798" lon="4.04622">
        <ele>313.05</ele>
        <time>2021-08-13T07:24:52Z</time>
      </trkpt>
      <trkpt lat="46.66797" lon="4.04624">
        <ele>313.05</ele>
        <time>2021-08-13T07:24:56Z</time>
      </trkpt>
      <trkpt lat="46.66797" lon="4.04626">
        <ele>313.05</ele>
        <time>2021-08-13T07:24:57Z</time>
      </trkpt>
      <trkpt lat="46.66796" lon="4.04628">
        <ele>313.05</ele>
        <time>2021-08-13T07:24:58Z</time>
      </trkpt>
      <trkpt lat="46.66795" lon="4.0463">
        <ele>313.05</ele>
        <time>2021-08-13T07:24:59Z</time>
      </trkpt>
      <trkpt lat="46.66793" lon="4.0463">
        <ele>313.05</ele>
        <time>2021-08-13T07:25:00Z</time>
      </trkpt>
      <trkpt lat="46.66791" lon="4.04628">
        <ele>313.05</ele>
        <time>2021-08-13T07:25:01Z</time>
      </trkpt>
      <trkpt lat="46.66789" lon="4.04626">
        <ele>313.05</ele>
        <time>2021-08-13T07:25:02Z</time>
      </trkpt>
      <trkpt lat="46.66788" lon="4.04624">
        <ele>313.05</ele>
        <time>2021-08-13T07:25:03Z</time>
      </trkpt>
      <trkpt lat="46.66785" lon="4.04622">
        <ele>313.05</ele>
        <time>2021-08-13T07:25:04Z</time>
      </trkpt>
      <trkpt lat="46.66783" lon="4.0462">
        <ele>313.05</ele>
        <time>2021-08-13T07:25:05Z</time>
      </trkpt>
      <trkpt lat="46.66766" lon="4.04605">
        <ele>313.05</ele>
        <time>2021-08-13T07:25:12Z</time>
      </trkpt>
      <trkpt lat="46.66752" lon="4.04594">
        <ele>312.57</ele>
        <time>2021-08-13T07:25:18Z</time>
      </trkpt>
      <trkpt lat="46.66735" lon="4.04572">
        <ele>313.05</ele>
        <time>2021-08-13T07:25:27Z</time>
      </trkpt>
      <trkpt lat="46.6673" lon="4.04548">
        <ele>313.05</ele>
        <time>2021-08-13T07:25:35Z</time>
      </trkpt>
      <trkpt lat="46.6673" lon="4.04519">
        <ele>313.05</ele>
        <time>2021-08-13T07:25:44Z</time>
      </trkpt>
      <trkpt lat="46.6673" lon="4.04516">
        <ele>313.05</ele>
        <time>2021-08-13T07:25:45Z</time>
      </trkpt>
      <trkpt lat="46.66731" lon="4.04513">
        <ele>313.05</ele>
        <time>2021-08-13T07:25:46Z</time>
      </trkpt>
      <trkpt lat="46.66731" lon="4.04509">
        <ele>313.05</ele>
        <time>2021-08-13T07:25:47Z</time>
      </trkpt>
      <trkpt lat="46.66732" lon="4.04491">
        <ele>314.01</ele>
        <time>2021-08-13T07:25:53Z</time>
      </trkpt>
      <trkpt lat="46.66733" lon="4.04486">
        <ele>314.01</ele>
        <time>2021-08-13T07:25:55Z</time>
      </trkpt>
      <trkpt lat="46.6674" lon="4.04464">
        <ele>314.49</ele>
        <time>2021-08-13T07:26:02Z</time>
      </trkpt>
      <trkpt lat="46.66745" lon="4.04447">
        <ele>316.41</ele>
        <time>2021-08-13T07:26:09Z</time>
      </trkpt>
      <trkpt lat="46.66752" lon="4.04428">
        <ele>317.85</ele>
        <time>2021-08-13T07:26:17Z</time>
      </trkpt>
      <trkpt lat="46.66754" lon="4.04414">
        <ele>319.3</ele>
        <time>2021-08-13T07:26:24Z</time>
      </trkpt>
      <trkpt lat="46.66753" lon="4.04402">
        <ele>320.26</ele>
        <time>2021-08-13T07:26:30Z</time>
      </trkpt>
      <trkpt lat="46.66752" lon="4.04402">
        <ele>320.26</ele>
        <time>2021-08-13T07:26:31Z</time>
      </trkpt>
      <trkpt lat="46.66747" lon="4.04395">
        <ele>320.74</ele>
        <time>2021-08-13T07:26:38Z</time>
      </trkpt>
      <trkpt lat="46.6674" lon="4.04389">
        <ele>321.22</ele>
        <time>2021-08-13T07:26:47Z</time>
      </trkpt>
      <trkpt lat="46.66736" lon="4.04386">
        <ele>321.7</ele>
        <time>2021-08-13T07:26:53Z</time>
      </trkpt>
      <trkpt lat="46.6673" lon="4.04376">
        <ele>323.14</ele>
        <time>2021-08-13T07:27:02Z</time>
      </trkpt>
      <trkpt lat="46.66729" lon="4.04369">
        <ele>324.1</ele>
        <time>2021-08-13T07:27:10Z</time>
      </trkpt>
      <trkpt lat="46.6673" lon="4.04368">
        <ele>324.1</ele>
        <time>2021-08-13T07:27:12Z</time>
      </trkpt>
      <trkpt lat="46.6673" lon="4.0437">
        <ele>324.1</ele>
        <time>2021-08-13T07:27:13Z</time>
      </trkpt>
      <trkpt lat="46.66729" lon="4.04372">
        <ele>324.1</ele>
        <time>2021-08-13T07:27:14Z</time>
      </trkpt>
      <trkpt lat="46.66727" lon="4.04375">
        <ele>324.1</ele>
        <time>2021-08-13T07:27:15Z</time>
      </trkpt>
      <trkpt lat="46.66724" lon="4.04377">
        <ele>324.1</ele>
        <time>2021-08-13T07:27:16Z</time>
      </trkpt>
      <trkpt lat="46.66722" lon="4.04379">
        <ele>322.66</ele>
        <time>2021-08-13T07:27:17Z</time>
      </trkpt>
      <trkpt lat="46.66719" lon="4.04379">
        <ele>322.66</ele>
        <time>2021-08-13T07:27:18Z</time>
      </trkpt>
      <trkpt lat="46.66715" lon="4.0438">
        <ele>322.66</ele>
        <time>2021-08-13T07:27:19Z</time>
      </trkpt>
      <trkpt lat="46.66712" lon="4.04381">
        <ele>322.66</ele>
        <time>2021-08-13T07:27:20Z</time>
      </trkpt>
      <trkpt lat="46.66709" lon="4.04381">
        <ele>322.66</ele>
        <time>2021-08-13T07:27:21Z</time>
      </trkpt>
      <trkpt lat="46.66696" lon="4.04378">
        <ele>322.66</ele>
        <time>2021-08-13T07:27:27Z</time>
      </trkpt>
      <trkpt lat="46.66686" lon="4.04377">
        <ele>324.1</ele>
        <time>2021-08-13T07:27:33Z</time>
      </trkpt>
      <trkpt lat="46.66682" lon="4.04378">
        <ele>324.58</ele>
        <time>2021-08-13T07:27:45Z</time>
      </trkpt>
      <trkpt lat="46.66682" lon="4.0438">
        <ele>324.58</ele>
        <time>2021-08-13T07:27:58Z</time>
      </trkpt>
      <trkpt lat="46.66679" lon="4.04381">
        <ele>324.58</ele>
        <time>2021-08-13T07:28:15Z</time>
      </trkpt>
      <trkpt lat="46.6668" lon="4.04381">
        <ele>323.62</ele>
        <time>2021-08-13T07:28:24Z</time>
      </trkpt>
      <trkpt lat="46.6668" lon="4.04384">
        <ele>323.62</ele>
        <time>2021-08-13T07:28:41Z</time>
      </trkpt>
      <trkpt lat="46.66677" lon="4.04382">
        <ele>323.62</ele>
        <time>2021-08-13T07:29:02Z</time>
      </trkpt>
      <trkpt lat="46.66677" lon="4.04381">
        <ele>323.62</ele>
        <time>2021-08-13T07:29:16Z</time>
      </trkpt>
      <trkpt lat="46.66677" lon="4.0438">
        <ele>325.06</ele>
        <time>2021-08-13T07:29:19Z</time>
      </trkpt>
      <trkpt lat="46.66674" lon="4.0438">
        <ele>326.02</ele>
        <time>2021-08-13T07:29:26Z</time>
      </trkpt>
      <trkpt lat="46.66666" lon="4.04383">
        <ele>327.47</ele>
        <time>2021-08-13T07:29:36Z</time>
      </trkpt>
      <trkpt lat="46.66662" lon="4.04385">
        <ele>327.95</ele>
        <time>2021-08-13T07:29:44Z</time>
      </trkpt>
      <trkpt lat="46.66659" lon="4.04385">
        <ele>327.95</ele>
        <time>2021-08-13T07:29:50Z</time>
      </trkpt>
      <trkpt lat="46.66644" lon="4.04388">
        <ele>327.95</ele>
        <time>2021-08-13T07:29:57Z</time>
      </trkpt>
      <trkpt lat="46.6663" lon="4.04384">
        <ele>327.95</ele>
        <time>2021-08-13T07:30:04Z</time>
      </trkpt>
      <trkpt lat="46.66614" lon="4.04373">
        <ele>326.5</ele>
        <time>2021-08-13T07:30:10Z</time>
      </trkpt>
      <trkpt lat="46.66608" lon="4.04366">
        <ele>326.02</ele>
        <time>2021-08-13T07:30:12Z</time>
      </trkpt>
      <trkpt lat="46.66605" lon="4.04361">
        <ele>326.02</ele>
        <time>2021-08-13T07:30:13Z</time>
      </trkpt>
      <trkpt lat="46.66604" lon="4.04357">
        <ele>326.02</ele>
        <time>2021-08-13T07:30:14Z</time>
      </trkpt>
      <trkpt lat="46.66603" lon="4.04354">
        <ele>326.02</ele>
        <time>2021-08-13T07:30:15Z</time>
      </trkpt>
      <trkpt lat="46.66602" lon="4.04351">
        <ele>326.02</ele>
        <time>2021-08-13T07:30:16Z</time>
      </trkpt>
      <trkpt lat="46.66601" lon="4.04348">
        <ele>326.02</ele>
        <time>2021-08-13T07:30:17Z</time>
      </trkpt>
      <trkpt lat="46.666" lon="4.04345">
        <ele>326.99</ele>
        <time>2021-08-13T07:30:18Z</time>
      </trkpt>
      <trkpt lat="46.666" lon="4.04341">
        <ele>326.99</ele>
        <time>2021-08-13T07:30:19Z</time>
      </trkpt>
      <trkpt lat="46.66599" lon="4.04338">
        <ele>326.99</ele>
        <time>2021-08-13T07:30:20Z</time>
      </trkpt>
      <trkpt lat="46.66599" lon="4.04334">
        <ele>326.99</ele>
        <time>2021-08-13T07:30:21Z</time>
      </trkpt>
      <trkpt lat="46.66603" lon="4.0432">
        <ele>328.91</ele>
        <time>2021-08-13T07:30:27Z</time>
      </trkpt>
      <trkpt lat="46.66612" lon="4.04306">
        <ele>330.83</ele>
        <time>2021-08-13T07:30:34Z</time>
      </trkpt>
      <trkpt lat="46.6662" lon="4.04287">
        <ele>332.27</ele>
        <time>2021-08-13T07:30:43Z</time>
      </trkpt>
      <trkpt lat="46.6662" lon="4.04275">
        <ele>333.23</ele>
        <time>2021-08-13T07:30:48Z</time>
      </trkpt>
      <trkpt lat="46.6662" lon="4.04272">
        <ele>333.23</ele>
        <time>2021-08-13T07:30:49Z</time>
      </trkpt>
      <trkpt lat="46.66617" lon="4.0426">
        <ele>334.2</ele>
        <time>2021-08-13T07:30:55Z</time>
      </trkpt>
      <trkpt lat="46.66618" lon="4.04246">
        <ele>334.68</ele>
        <time>2021-08-13T07:31:01Z</time>
      </trkpt>
      <trkpt lat="46.66619" lon="4.04244">
        <ele>334.68</ele>
        <time>2021-08-13T07:31:02Z</time>
      </trkpt>
      <trkpt lat="46.6662" lon="4.04242">
        <ele>335.16</ele>
        <time>2021-08-13T07:31:03Z</time>
      </trkpt>
      <trkpt lat="46.66621" lon="4.04241">
        <ele>335.64</ele>
        <time>2021-08-13T07:31:04Z</time>
      </trkpt>
      <trkpt lat="46.66623" lon="4.0424">
        <ele>335.64</ele>
        <time>2021-08-13T07:31:05Z</time>
      </trkpt>
      <trkpt lat="46.66624" lon="4.04238">
        <ele>335.64</ele>
        <time>2021-08-13T07:31:06Z</time>
      </trkpt>
      <trkpt lat="46.66626" lon="4.04237">
        <ele>335.64</ele>
        <time>2021-08-13T07:31:07Z</time>
      </trkpt>
      <trkpt lat="46.66627" lon="4.04235">
        <ele>336.12</ele>
        <time>2021-08-13T07:31:08Z</time>
      </trkpt>
      <trkpt lat="46.66631" lon="4.04221">
        <ele>337.08</ele>
        <time>2021-08-13T07:31:15Z</time>
      </trkpt>
      <trkpt lat="46.66627" lon="4.04194">
        <ele>339</ele>
        <time>2021-08-13T07:31:26Z</time>
      </trkpt>
      <trkpt lat="46.66624" lon="4.0417">
        <ele>340.44</ele>
        <time>2021-08-13T07:31:36Z</time>
      </trkpt>
      <trkpt lat="46.66623" lon="4.04156">
        <ele>341.41</ele>
        <time>2021-08-13T07:31:44Z</time>
      </trkpt>
      <trkpt lat="46.66625" lon="4.04134">
        <ele>341.89</ele>
        <time>2021-08-13T07:31:52Z</time>
      </trkpt>
      <trkpt lat="46.66625" lon="4.04109">
        <ele>342.85</ele>
        <time>2021-08-13T07:31:59Z</time>
      </trkpt>
      <trkpt lat="46.66621" lon="4.04067">
        <ele>343.81</ele>
        <time>2021-08-13T07:32:08Z</time>
      </trkpt>
      <trkpt lat="46.66617" lon="4.04021">
        <ele>345.25</ele>
        <time>2021-08-13T07:32:16Z</time>
      </trkpt>
      <trkpt lat="46.66614" lon="4.03974">
        <ele>346.21</ele>
        <time>2021-08-13T07:32:26Z</time>
      </trkpt>
      <trkpt lat="46.66624" lon="4.0396">
        <ele>347.17</ele>
        <time>2021-08-13T07:32:31Z</time>
      </trkpt>
      <trkpt lat="46.66645" lon="4.0395">
        <ele>348.13</ele>
        <time>2021-08-13T07:32:38Z</time>
      </trkpt>
      <trkpt lat="46.66669" lon="4.03941">
        <ele>350.06</ele>
        <time>2021-08-13T07:32:47Z</time>
      </trkpt>
      <trkpt lat="46.66693" lon="4.03934">
        <ele>351.02</ele>
        <time>2021-08-13T07:32:57Z</time>
      </trkpt>
      <trkpt lat="46.66718" lon="4.03924">
        <ele>351.98</ele>
        <time>2021-08-13T07:33:07Z</time>
      </trkpt>
      <trkpt lat="46.66735" lon="4.03915">
        <ele>353.42</ele>
        <time>2021-08-13T07:33:14Z</time>
      </trkpt>
      <trkpt lat="46.66754" lon="4.03897">
        <ele>354.38</ele>
        <time>2021-08-13T07:33:22Z</time>
      </trkpt>
      <trkpt lat="46.66777" lon="4.03875">
        <ele>355.34</ele>
        <time>2021-08-13T07:33:31Z</time>
      </trkpt>
      <trkpt lat="46.66806" lon="4.03842">
        <ele>355.34</ele>
        <time>2021-08-13T07:33:41Z</time>
      </trkpt>
      <trkpt lat="46.66847" lon="4.038">
        <ele>355.83</ele>
        <time>2021-08-13T07:33:53Z</time>
      </trkpt>
      <trkpt lat="46.66892" lon="4.03748">
        <ele>355.83</ele>
        <time>2021-08-13T07:34:06Z</time>
      </trkpt>
      <trkpt lat="46.66923" lon="4.037">
        <ele>356.31</ele>
        <time>2021-08-13T07:34:16Z</time>
      </trkpt>
      <trkpt lat="46.66952" lon="4.03646">
        <ele>357.27</ele>
        <time>2021-08-13T07:34:27Z</time>
      </trkpt>
      <trkpt lat="46.66955" lon="4.03642">
        <ele>357.27</ele>
        <time>2021-08-13T07:34:28Z</time>
      </trkpt>
      <trkpt lat="46.66958" lon="4.03638">
        <ele>357.27</ele>
        <time>2021-08-13T07:34:29Z</time>
      </trkpt>
      <trkpt lat="46.66973" lon="4.03608">
        <ele>358.23</ele>
        <time>2021-08-13T07:34:36Z</time>
      </trkpt>
      <trkpt lat="46.66987" lon="4.03575">
        <ele>359.19</ele>
        <time>2021-08-13T07:34:44Z</time>
      </trkpt>
      <trkpt lat="46.67002" lon="4.03528">
        <ele>360.63</ele>
        <time>2021-08-13T07:34:55Z</time>
      </trkpt>
      <trkpt lat="46.67013" lon="4.03488">
        <ele>361.59</ele>
        <time>2021-08-13T07:35:04Z</time>
      </trkpt>
      <trkpt lat="46.67019" lon="4.03479">
        <ele>361.59</ele>
        <time>2021-08-13T07:35:07Z</time>
      </trkpt>
      <trkpt lat="46.67022" lon="4.03479">
        <ele>361.59</ele>
        <time>2021-08-13T07:35:08Z</time>
      </trkpt>
      <trkpt lat="46.67025" lon="4.0348">
        <ele>361.59</ele>
        <time>2021-08-13T07:35:09Z</time>
      </trkpt>
      <trkpt lat="46.67027" lon="4.03482">
        <ele>361.59</ele>
        <time>2021-08-13T07:35:10Z</time>
      </trkpt>
      <trkpt lat="46.67029" lon="4.03484">
        <ele>361.59</ele>
        <time>2021-08-13T07:35:11Z</time>
      </trkpt>
      <trkpt lat="46.67047" lon="4.03506">
        <ele>363.04</ele>
        <time>2021-08-13T07:35:19Z</time>
      </trkpt>
      <trkpt lat="46.67076" lon="4.03532">
        <ele>364</ele>
        <time>2021-08-13T07:35:30Z</time>
      </trkpt>
      <trkpt lat="46.67093" lon="4.03548">
        <ele>364.48</ele>
        <time>2021-08-13T07:35:37Z</time>
      </trkpt>
      <trkpt lat="46.67107" lon="4.0356">
        <ele>365.44</ele>
        <time>2021-08-13T07:35:43Z</time>
      </trkpt>
      <trkpt lat="46.67119" lon="4.03573">
        <ele>365.44</ele>
        <time>2021-08-13T07:35:48Z</time>
      </trkpt>
      <trkpt lat="46.67135" lon="4.03587">
        <ele>366.4</ele>
        <time>2021-08-13T07:35:54Z</time>
      </trkpt>
      <trkpt lat="46.67151" lon="4.03612">
        <ele>366.88</ele>
        <time>2021-08-13T07:36:02Z</time>
      </trkpt>
      <trkpt lat="46.67166" lon="4.03631">
        <ele>367.84</ele>
        <time>2021-08-13T07:36:10Z</time>
      </trkpt>
      <trkpt lat="46.67175" lon="4.03634">
        <ele>368.8</ele>
        <time>2021-08-13T07:36:16Z</time>
      </trkpt>
      <trkpt lat="46.6719" lon="4.03639">
        <ele>369.76</ele>
        <time>2021-08-13T07:36:24Z</time>
      </trkpt>
      <trkpt lat="46.67199" lon="4.03644">
        <ele>370.24</ele>
        <time>2021-08-13T07:36:30Z</time>
      </trkpt>
      <trkpt lat="46.67202" lon="4.03645">
        <ele>370.73</ele>
        <time>2021-08-13T07:36:32Z</time>
      </trkpt>
      <trkpt lat="46.67204" lon="4.03646">
        <ele>370.73</ele>
        <time>2021-08-13T07:36:33Z</time>
      </trkpt>
      <trkpt lat="46.67206" lon="4.03647">
        <ele>370.73</ele>
        <time>2021-08-13T07:36:34Z</time>
      </trkpt>
      <trkpt lat="46.67207" lon="4.03648">
        <ele>370.73</ele>
        <time>2021-08-13T07:36:35Z</time>
      </trkpt>
      <trkpt lat="46.67213" lon="4.03651">
        <ele>371.69</ele>
        <time>2021-08-13T07:36:39Z</time>
      </trkpt>
      <trkpt lat="46.67221" lon="4.03654">
        <ele>372.65</ele>
        <time>2021-08-13T07:36:47Z</time>
      </trkpt>
      <trkpt lat="46.67228" lon="4.03656">
        <ele>373.61</ele>
        <time>2021-08-13T07:36:55Z</time>
      </trkpt>
      <trkpt lat="46.67234" lon="4.03658">
        <ele>374.57</ele>
        <time>2021-08-13T07:37:04Z</time>
      </trkpt>
      <trkpt lat="46.67242" lon="4.03661">
        <ele>375.53</ele>
        <time>2021-08-13T07:37:13Z</time>
      </trkpt>
      <trkpt lat="46.67248" lon="4.03664">
        <ele>376.01</ele>
        <time>2021-08-13T07:37:22Z</time>
      </trkpt>
      <trkpt lat="46.67255" lon="4.03666">
        <ele>377.45</ele>
        <time>2021-08-13T07:37:32Z</time>
      </trkpt>
      <trkpt lat="46.6726" lon="4.03668">
        <ele>379.38</ele>
        <time>2021-08-13T07:37:41Z</time>
      </trkpt>
      <trkpt lat="46.67266" lon="4.03668">
        <ele>380.34</ele>
        <time>2021-08-13T07:37:51Z</time>
      </trkpt>
      <trkpt lat="46.67271" lon="4.03669">
        <ele>381.78</ele>
        <time>2021-08-13T07:38:00Z</time>
      </trkpt>
      <trkpt lat="46.67276" lon="4.03668">
        <ele>382.74</ele>
        <time>2021-08-13T07:38:08Z</time>
      </trkpt>
      <trkpt lat="46.67282" lon="4.03667">
        <ele>383.7</ele>
        <time>2021-08-13T07:38:17Z</time>
      </trkpt>
      <trkpt lat="46.67286" lon="4.03662">
        <ele>385.15</ele>
        <time>2021-08-13T07:38:26Z</time>
      </trkpt>
      <trkpt lat="46.67287" lon="4.03659">
        <ele>385.63</ele>
        <time>2021-08-13T07:38:29Z</time>
      </trkpt>
      <trkpt lat="46.67293" lon="4.03654">
        <ele>386.11</ele>
        <time>2021-08-13T07:38:37Z</time>
      </trkpt>
      <trkpt lat="46.673" lon="4.03648">
        <ele>387.55</ele>
        <time>2021-08-13T07:38:47Z</time>
      </trkpt>
      <trkpt lat="46.67302" lon="4.03642">
        <ele>388.03</ele>
        <time>2021-08-13T07:38:54Z</time>
      </trkpt>
      <trkpt lat="46.67303" lon="4.03639">
        <ele>388.03</ele>
        <time>2021-08-13T07:38:58Z</time>
      </trkpt>
      <trkpt lat="46.6731" lon="4.0362">
        <ele>388.51</ele>
        <time>2021-08-13T07:39:06Z</time>
      </trkpt>
      <trkpt lat="46.67315" lon="4.03593">
        <ele>389.95</ele>
        <time>2021-08-13T07:39:15Z</time>
      </trkpt>
      <trkpt lat="46.67319" lon="4.03564">
        <ele>390.91</ele>
        <time>2021-08-13T07:39:24Z</time>
      </trkpt>
      <trkpt lat="46.67321" lon="4.03554">
        <ele>391.39</ele>
        <time>2021-08-13T07:39:27Z</time>
      </trkpt>
      <trkpt lat="46.67321" lon="4.03551">
        <ele>391.39</ele>
        <time>2021-08-13T07:39:28Z</time>
      </trkpt>
      <trkpt lat="46.67321" lon="4.03526">
        <ele>391.87</ele>
        <time>2021-08-13T07:39:36Z</time>
      </trkpt>
      <trkpt lat="46.67322" lon="4.03501">
        <ele>392.84</ele>
        <time>2021-08-13T07:39:44Z</time>
      </trkpt>
      <trkpt lat="46.6732" lon="4.03483">
        <ele>393.32</ele>
        <time>2021-08-13T07:39:51Z</time>
      </trkpt>
      <trkpt lat="46.67319" lon="4.03472">
        <ele>393.8</ele>
        <time>2021-08-13T07:39:57Z</time>
      </trkpt>
      <trkpt lat="46.67318" lon="4.03466">
        <ele>393.8</ele>
        <time>2021-08-13T07:40:09Z</time>
      </trkpt>
      <trkpt lat="46.67315" lon="4.03448">
        <ele>394.28</ele>
        <time>2021-08-13T07:40:17Z</time>
      </trkpt>
      <trkpt lat="46.67314" lon="4.03429">
        <ele>395.72</ele>
        <time>2021-08-13T07:40:25Z</time>
      </trkpt>
      <trkpt lat="46.67315" lon="4.03407">
        <ele>397.16</ele>
        <time>2021-08-13T07:40:33Z</time>
      </trkpt>
      <trkpt lat="46.67315" lon="4.03404">
        <ele>397.16</ele>
        <time>2021-08-13T07:40:34Z</time>
      </trkpt>
      <trkpt lat="46.6732" lon="4.03391">
        <ele>398.12</ele>
        <time>2021-08-13T07:40:40Z</time>
      </trkpt>
      <trkpt lat="46.67322" lon="4.03387">
        <ele>398.6</ele>
        <time>2021-08-13T07:40:42Z</time>
      </trkpt>
      <trkpt lat="46.67322" lon="4.03384">
        <ele>398.6</ele>
        <time>2021-08-13T07:40:43Z</time>
      </trkpt>
      <trkpt lat="46.67323" lon="4.03381">
        <ele>398.6</ele>
        <time>2021-08-13T07:40:44Z</time>
      </trkpt>
      <trkpt lat="46.67323" lon="4.03379">
        <ele>399.08</ele>
        <time>2021-08-13T07:40:45Z</time>
      </trkpt>
      <trkpt lat="46.67324" lon="4.03375">
        <ele>399.08</ele>
        <time>2021-08-13T07:40:46Z</time>
      </trkpt>
      <trkpt lat="46.67324" lon="4.03372">
        <ele>399.08</ele>
        <time>2021-08-13T07:40:47Z</time>
      </trkpt>
      <trkpt lat="46.67324" lon="4.03369">
        <ele>399.57</ele>
        <time>2021-08-13T07:40:48Z</time>
      </trkpt>
      <trkpt lat="46.67325" lon="4.03366">
        <ele>399.57</ele>
        <time>2021-08-13T07:40:49Z</time>
      </trkpt>
      <trkpt lat="46.67325" lon="4.03364">
        <ele>399.57</ele>
        <time>2021-08-13T07:40:50Z</time>
      </trkpt>
      <trkpt lat="46.67327" lon="4.03362">
        <ele>400.05</ele>
        <time>2021-08-13T07:40:51Z</time>
      </trkpt>
      <trkpt lat="46.67327" lon="4.03359">
        <ele>400.05</ele>
        <time>2021-08-13T07:40:52Z</time>
      </trkpt>
      <trkpt lat="46.67328" lon="4.03357">
        <ele>400.05</ele>
        <time>2021-08-13T07:40:53Z</time>
      </trkpt>
      <trkpt lat="46.67329" lon="4.03355">
        <ele>400.05</ele>
        <time>2021-08-13T07:40:54Z</time>
      </trkpt>
      <trkpt lat="46.6733" lon="4.03353">
        <ele>400.05</ele>
        <time>2021-08-13T07:40:55Z</time>
      </trkpt>
      <trkpt lat="46.67331" lon="4.03351">
        <ele>400.53</ele>
        <time>2021-08-13T07:40:56Z</time>
      </trkpt>
      <trkpt lat="46.67332" lon="4.03349">
        <ele>400.53</ele>
        <time>2021-08-13T07:40:57Z</time>
      </trkpt>
      <trkpt lat="46.67339" lon="4.03336">
        <ele>401.97</ele>
        <time>2021-08-13T07:41:05Z</time>
      </trkpt>
      <trkpt lat="46.67348" lon="4.03323">
        <ele>402.93</ele>
        <time>2021-08-13T07:41:13Z</time>
      </trkpt>
      <trkpt lat="46.67356" lon="4.03312">
        <ele>403.89</ele>
        <time>2021-08-13T07:41:21Z</time>
      </trkpt>
      <trkpt lat="46.67364" lon="4.03299">
        <ele>404.85</ele>
        <time>2021-08-13T07:41:28Z</time>
      </trkpt>
      <trkpt lat="46.6737" lon="4.03284">
        <ele>405.81</ele>
        <time>2021-08-13T07:41:36Z</time>
      </trkpt>
      <trkpt lat="46.67376" lon="4.03263">
        <ele>407.74</ele>
        <time>2021-08-13T07:41:46Z</time>
      </trkpt>
      <trkpt lat="46.67381" lon="4.03245">
        <ele>408.7</ele>
        <time>2021-08-13T07:41:55Z</time>
      </trkpt>
      <trkpt lat="46.67384" lon="4.03233">
        <ele>409.66</ele>
        <time>2021-08-13T07:42:01Z</time>
      </trkpt>
      <trkpt lat="46.67387" lon="4.03219">
        <ele>411.58</ele>
        <time>2021-08-13T07:42:09Z</time>
      </trkpt>
      <trkpt lat="46.67388" lon="4.0321">
        <ele>412.54</ele>
        <time>2021-08-13T07:42:15Z</time>
      </trkpt>
      <trkpt lat="46.67388" lon="4.03208">
        <ele>413.02</ele>
        <time>2021-08-13T07:42:16Z</time>
      </trkpt>
      <trkpt lat="46.67388" lon="4.03205">
        <ele>413.5</ele>
        <time>2021-08-13T07:42:17Z</time>
      </trkpt>
      <trkpt lat="46.67389" lon="4.03191">
        <ele>414.47</ele>
        <time>2021-08-13T07:42:25Z</time>
      </trkpt>
      <trkpt lat="46.67389" lon="4.03174">
        <ele>415.43</ele>
        <time>2021-08-13T07:42:34Z</time>
      </trkpt>
      <trkpt lat="46.67388" lon="4.03161">
        <ele>416.39</ele>
        <time>2021-08-13T07:42:41Z</time>
      </trkpt>
      <trkpt lat="46.67386" lon="4.03147">
        <ele>417.83</ele>
        <time>2021-08-13T07:42:48Z</time>
      </trkpt>
      <trkpt lat="46.67386" lon="4.03145">
        <ele>417.83</ele>
        <time>2021-08-13T07:42:49Z</time>
      </trkpt>
      <trkpt lat="46.67385" lon="4.03144">
        <ele>417.83</ele>
        <time>2021-08-13T07:42:50Z</time>
      </trkpt>
      <trkpt lat="46.67385" lon="4.03142">
        <ele>418.31</ele>
        <time>2021-08-13T07:42:51Z</time>
      </trkpt>
      <trkpt lat="46.67384" lon="4.0314">
        <ele>418.31</ele>
        <time>2021-08-13T07:42:52Z</time>
      </trkpt>
      <trkpt lat="46.67384" lon="4.03138">
        <ele>418.79</ele>
        <time>2021-08-13T07:42:53Z</time>
      </trkpt>
      <trkpt lat="46.67384" lon="4.03136">
        <ele>418.79</ele>
        <time>2021-08-13T07:42:54Z</time>
      </trkpt>
      <trkpt lat="46.67383" lon="4.03133">
        <ele>419.27</ele>
        <time>2021-08-13T07:42:55Z</time>
      </trkpt>
      <trkpt lat="46.67383" lon="4.03131">
        <ele>419.27</ele>
        <time>2021-08-13T07:42:56Z</time>
      </trkpt>
      <trkpt lat="46.67382" lon="4.03129">
        <ele>419.75</ele>
        <time>2021-08-13T07:42:57Z</time>
      </trkpt>
      <trkpt lat="46.67382" lon="4.03126">
        <ele>420.23</ele>
        <time>2021-08-13T07:42:58Z</time>
      </trkpt>
      <trkpt lat="46.67381" lon="4.03124">
        <ele>420.71</ele>
        <time>2021-08-13T07:42:59Z</time>
      </trkpt>
      <trkpt lat="46.67381" lon="4.03122">
        <ele>420.71</ele>
        <time>2021-08-13T07:43:00Z</time>
      </trkpt>
      <trkpt lat="46.67381" lon="4.0312">
        <ele>420.71</ele>
        <time>2021-08-13T07:43:01Z</time>
      </trkpt>
      <trkpt lat="46.6738" lon="4.03118">
        <ele>420.71</ele>
        <time>2021-08-13T07:43:02Z</time>
      </trkpt>
      <trkpt lat="46.6738" lon="4.03116">
        <ele>420.71</ele>
        <time>2021-08-13T07:43:03Z</time>
      </trkpt>
      <trkpt lat="46.67379" lon="4.03102">
        <ele>421.68</ele>
        <time>2021-08-13T07:43:11Z</time>
      </trkpt>
      <trkpt lat="46.67378" lon="4.03092">
        <ele>422.16</ele>
        <time>2021-08-13T07:43:16Z</time>
      </trkpt>
      <trkpt lat="46.67379" lon="4.03087">
        <ele>422.64</ele>
        <time>2021-08-13T07:43:19Z</time>
      </trkpt>
      <trkpt lat="46.67386" lon="4.03072">
        <ele>424.56</ele>
        <time>2021-08-13T07:43:29Z</time>
      </trkpt>
      <trkpt lat="46.67388" lon="4.03065">
        <ele>426</ele>
        <time>2021-08-13T07:43:36Z</time>
      </trkpt>
      <trkpt lat="46.67391" lon="4.03059">
        <ele>426.48</ele>
        <time>2021-08-13T07:43:43Z</time>
      </trkpt>
      <trkpt lat="46.67393" lon="4.03053">
        <ele>426.48</ele>
        <time>2021-08-13T07:43:47Z</time>
      </trkpt>
      <trkpt lat="46.67399" lon="4.03038">
        <ele>427.92</ele>
        <time>2021-08-13T07:43:57Z</time>
      </trkpt>
      <trkpt lat="46.67403" lon="4.03028">
        <ele>428.4</ele>
        <time>2021-08-13T07:44:04Z</time>
      </trkpt>
      <trkpt lat="46.67406" lon="4.03014">
        <ele>429.85</ele>
        <time>2021-08-13T07:44:13Z</time>
      </trkpt>
      <trkpt lat="46.67409" lon="4.03003">
        <ele>431.77</ele>
        <time>2021-08-13T07:44:23Z</time>
      </trkpt>
      <trkpt lat="46.67413" lon="4.02992">
        <ele>432.25</ele>
        <time>2021-08-13T07:44:31Z</time>
      </trkpt>
      <trkpt lat="46.67417" lon="4.0298">
        <ele>433.69</ele>
        <time>2021-08-13T07:44:39Z</time>
      </trkpt>
      <trkpt lat="46.6742" lon="4.0297">
        <ele>434.17</ele>
        <time>2021-08-13T07:44:46Z</time>
      </trkpt>
      <trkpt lat="46.67427" lon="4.02951">
        <ele>435.13</ele>
        <time>2021-08-13T07:44:56Z</time>
      </trkpt>
      <trkpt lat="46.67429" lon="4.02945">
        <ele>435.13</ele>
        <time>2021-08-13T07:45:02Z</time>
      </trkpt>
      <trkpt lat="46.67431" lon="4.02929">
        <ele>435.61</ele>
        <time>2021-08-13T07:45:09Z</time>
      </trkpt>
      <trkpt lat="46.6743" lon="4.029">
        <ele>436.1</ele>
        <time>2021-08-13T07:45:17Z</time>
      </trkpt>
      <trkpt lat="46.6743" lon="4.0287">
        <ele>436.1</ele>
        <time>2021-08-13T07:45:24Z</time>
      </trkpt>
      <trkpt lat="46.67427" lon="4.02827">
        <ele>436.58</ele>
        <time>2021-08-13T07:45:33Z</time>
      </trkpt>
      <trkpt lat="46.67425" lon="4.02806">
        <ele>435.13</ele>
        <time>2021-08-13T07:45:37Z</time>
      </trkpt>
      <trkpt lat="46.67424" lon="4.02793">
        <ele>434.17</ele>
        <time>2021-08-13T07:45:39Z</time>
      </trkpt>
      <trkpt lat="46.67423" lon="4.02786">
        <ele>433.69</ele>
        <time>2021-08-13T07:45:40Z</time>
      </trkpt>
      <trkpt lat="46.67421" lon="4.0278">
        <ele>433.21</ele>
        <time>2021-08-13T07:45:41Z</time>
      </trkpt>
      <trkpt lat="46.67413" lon="4.02753">
        <ele>431.77</ele>
        <time>2021-08-13T07:45:46Z</time>
      </trkpt>
      <trkpt lat="46.67412" lon="4.02747">
        <ele>431.29</ele>
        <time>2021-08-13T07:45:47Z</time>
      </trkpt>
      <trkpt lat="46.67399" lon="4.02706">
        <ele>427.92</ele>
        <time>2021-08-13T07:45:53Z</time>
      </trkpt>
      <trkpt lat="46.6739" lon="4.02671">
        <ele>423.6</ele>
        <time>2021-08-13T07:45:57Z</time>
      </trkpt>
      <trkpt lat="46.67384" lon="4.02644">
        <ele>420.71</ele>
        <time>2021-08-13T07:46:00Z</time>
      </trkpt>
      <trkpt lat="46.67377" lon="4.02607">
        <ele>417.83</ele>
        <time>2021-08-13T07:46:04Z</time>
      </trkpt>
      <trkpt lat="46.67377" lon="4.02597">
        <ele>417.35</ele>
        <time>2021-08-13T07:46:05Z</time>
      </trkpt>
      <trkpt lat="46.67378" lon="4.02588">
        <ele>416.87</ele>
        <time>2021-08-13T07:46:06Z</time>
      </trkpt>
      <trkpt lat="46.67381" lon="4.02579">
        <ele>416.87</ele>
        <time>2021-08-13T07:46:07Z</time>
      </trkpt>
      <trkpt lat="46.67385" lon="4.02572">
        <ele>415.91</ele>
        <time>2021-08-13T07:46:08Z</time>
      </trkpt>
      <trkpt lat="46.67392" lon="4.02549">
        <ele>415.43</ele>
        <time>2021-08-13T07:46:11Z</time>
      </trkpt>
      <trkpt lat="46.67394" lon="4.02541">
        <ele>415.43</ele>
        <time>2021-08-13T07:46:12Z</time>
      </trkpt>
      <trkpt lat="46.67395" lon="4.02533">
        <ele>415.43</ele>
        <time>2021-08-13T07:46:13Z</time>
      </trkpt>
      <trkpt lat="46.67395" lon="4.02524">
        <ele>414.95</ele>
        <time>2021-08-13T07:46:14Z</time>
      </trkpt>
      <trkpt lat="46.67395" lon="4.02516">
        <ele>414.95</ele>
        <time>2021-08-13T07:46:15Z</time>
      </trkpt>
      <trkpt lat="46.67387" lon="4.02452">
        <ele>413.98</ele>
        <time>2021-08-13T07:46:23Z</time>
      </trkpt>
      <trkpt lat="46.67382" lon="4.02394">
        <ele>413.98</ele>
        <time>2021-08-13T07:46:31Z</time>
      </trkpt>
      <trkpt lat="46.6738" lon="4.02349">
        <ele>415.91</ele>
        <time>2021-08-13T07:46:39Z</time>
      </trkpt>
      <trkpt lat="46.67376" lon="4.02307">
        <ele>418.31</ele>
        <time>2021-08-13T07:46:48Z</time>
      </trkpt>
      <trkpt lat="46.67368" lon="4.02266">
        <ele>419.27</ele>
        <time>2021-08-13T07:46:57Z</time>
      </trkpt>
      <trkpt lat="46.67359" lon="4.02202">
        <ele>418.79</ele>
        <time>2021-08-13T07:47:08Z</time>
      </trkpt>
      <trkpt lat="46.67358" lon="4.02141">
        <ele>418.79</ele>
        <time>2021-08-13T07:47:18Z</time>
      </trkpt>
      <trkpt lat="46.67363" lon="4.02086">
        <ele>419.27</ele>
        <time>2021-08-13T07:47:28Z</time>
      </trkpt>
      <trkpt lat="46.67368" lon="4.0205">
        <ele>419.27</ele>
        <time>2021-08-13T07:47:34Z</time>
      </trkpt>
      <trkpt lat="46.67369" lon="4.0203">
        <ele>418.31</ele>
        <time>2021-08-13T07:47:37Z</time>
      </trkpt>
      <trkpt lat="46.67366" lon="4.01967">
        <ele>416.39</ele>
        <time>2021-08-13T07:47:45Z</time>
      </trkpt>
      <trkpt lat="46.67362" lon="4.01931">
        <ele>415.43</ele>
        <time>2021-08-13T07:47:49Z</time>
      </trkpt>
      <trkpt lat="46.67361" lon="4.01922">
        <ele>415.43</ele>
        <time>2021-08-13T07:47:50Z</time>
      </trkpt>
      <trkpt lat="46.67356" lon="4.01842">
        <ele>414.47</ele>
        <time>2021-08-13T07:47:59Z</time>
      </trkpt>
      <trkpt lat="46.67349" lon="4.01787">
        <ele>414.47</ele>
        <time>2021-08-13T07:48:06Z</time>
      </trkpt>
      <trkpt lat="46.67333" lon="4.01726">
        <ele>413.5</ele>
        <time>2021-08-13T07:48:15Z</time>
      </trkpt>
      <trkpt lat="46.67324" lon="4.01652">
        <ele>411.58</ele>
        <time>2021-08-13T07:48:24Z</time>
      </trkpt>
      <trkpt lat="46.67314" lon="4.0157">
        <ele>410.14</ele>
        <time>2021-08-13T07:48:33Z</time>
      </trkpt>
      <trkpt lat="46.67307" lon="4.01526">
        <ele>409.18</ele>
        <time>2021-08-13T07:48:38Z</time>
      </trkpt>
      <trkpt lat="46.67301" lon="4.01501">
        <ele>409.18</ele>
        <time>2021-08-13T07:48:41Z</time>
      </trkpt>
      <trkpt lat="46.67282" lon="4.01441">
        <ele>409.18</ele>
        <time>2021-08-13T07:48:49Z</time>
      </trkpt>
      <trkpt lat="46.67266" lon="4.01379">
        <ele>408.7</ele>
        <time>2021-08-13T07:48:58Z</time>
      </trkpt>
      <trkpt lat="46.67242" lon="4.01318">
        <ele>406.29</ele>
        <time>2021-08-13T07:49:06Z</time>
      </trkpt>
      <trkpt lat="46.67214" lon="4.0126">
        <ele>404.37</ele>
        <time>2021-08-13T07:49:13Z</time>
      </trkpt>
      <trkpt lat="46.67166" lon="4.01194">
        <ele>402.93</ele>
        <time>2021-08-13T07:49:23Z</time>
      </trkpt>
      <trkpt lat="46.67104" lon="4.01135">
        <ele>401.49</ele>
        <time>2021-08-13T07:49:34Z</time>
      </trkpt>
      <trkpt lat="46.67046" lon="4.01087">
        <ele>400.53</ele>
        <time>2021-08-13T07:49:44Z</time>
      </trkpt>
      <trkpt lat="46.67026" lon="4.01068">
        <ele>400.53</ele>
        <time>2021-08-13T07:49:48Z</time>
      </trkpt>
      <trkpt lat="46.67022" lon="4.01062">
        <ele>400.53</ele>
        <time>2021-08-13T07:49:49Z</time>
      </trkpt>
      <trkpt lat="46.67018" lon="4.01055">
        <ele>400.53</ele>
        <time>2021-08-13T07:49:50Z</time>
      </trkpt>
      <trkpt lat="46.66998" lon="4.01011">
        <ele>400.53</ele>
        <time>2021-08-13T07:49:57Z</time>
      </trkpt>
      <trkpt lat="46.66983" lon="4.00987">
        <ele>401.49</ele>
        <time>2021-08-13T07:50:02Z</time>
      </trkpt>
      <trkpt lat="46.66969" lon="4.00965">
        <ele>401.49</ele>
        <time>2021-08-13T07:50:06Z</time>
      </trkpt>
      <trkpt lat="46.66959" lon="4.00945">
        <ele>399.57</ele>
        <time>2021-08-13T07:50:09Z</time>
      </trkpt>
      <trkpt lat="46.66947" lon="4.00922">
        <ele>398.12</ele>
        <time>2021-08-13T07:50:12Z</time>
      </trkpt>
      <trkpt lat="46.66918" lon="4.00853">
        <ele>396.2</ele>
        <time>2021-08-13T07:50:20Z</time>
      </trkpt>
      <trkpt lat="46.66899" lon="4.00791">
        <ele>396.2</ele>
        <time>2021-08-13T07:50:28Z</time>
      </trkpt>
      <trkpt lat="46.66893" lon="4.00771">
        <ele>396.2</ele>
        <time>2021-08-13T07:50:31Z</time>
      </trkpt>
      <trkpt lat="46.66882" lon="4.00698">
        <ele>397.64</ele>
        <time>2021-08-13T07:50:42Z</time>
      </trkpt>
      <trkpt lat="46.66881" lon="4.00691">
        <ele>397.64</ele>
        <time>2021-08-13T07:50:43Z</time>
      </trkpt>
      <trkpt lat="46.66871" lon="4.00641">
        <ele>398.6</ele>
        <time>2021-08-13T07:50:52Z</time>
      </trkpt>
      <trkpt lat="46.66863" lon="4.00595">
        <ele>399.57</ele>
        <time>2021-08-13T07:51:01Z</time>
      </trkpt>
      <trkpt lat="46.66857" lon="4.00556">
        <ele>400.05</ele>
        <time>2021-08-13T07:51:09Z</time>
      </trkpt>
      <trkpt lat="46.66851" lon="4.00524">
        <ele>401.49</ele>
        <time>2021-08-13T07:51:15Z</time>
      </trkpt>
      <trkpt lat="46.66846" lon="4.00511">
        <ele>401.97</ele>
        <time>2021-08-13T07:51:19Z</time>
      </trkpt>
      <trkpt lat="46.6684" lon="4.00492">
        <ele>402.93</ele>
        <time>2021-08-13T07:51:24Z</time>
      </trkpt>
      <trkpt lat="46.66837" lon="4.00473">
        <ele>404.85</ele>
        <time>2021-08-13T07:51:33Z</time>
      </trkpt>
      <trkpt lat="46.66837" lon="4.00471">
        <ele>404.85</ele>
        <time>2021-08-13T07:51:34Z</time>
      </trkpt>
      <trkpt lat="46.66836" lon="4.00469">
        <ele>404.85</ele>
        <time>2021-08-13T07:51:35Z</time>
      </trkpt>
      <trkpt lat="46.66835" lon="4.00466">
        <ele>404.85</ele>
        <time>2021-08-13T07:51:36Z</time>
      </trkpt>
      <trkpt lat="46.66833" lon="4.00436">
        <ele>406.77</ele>
        <time>2021-08-13T07:51:47Z</time>
      </trkpt>
      <trkpt lat="46.66835" lon="4.00411">
        <ele>408.22</ele>
        <time>2021-08-13T07:51:56Z</time>
      </trkpt>
      <trkpt lat="46.66836" lon="4.00392">
        <ele>409.18</ele>
        <time>2021-08-13T07:52:03Z</time>
      </trkpt>
      <trkpt lat="46.66838" lon="4.00363">
        <ele>410.62</ele>
        <time>2021-08-13T07:52:13Z</time>
      </trkpt>
      <trkpt lat="46.66839" lon="4.00336">
        <ele>411.1</ele>
        <time>2021-08-13T07:52:22Z</time>
      </trkpt>
      <trkpt lat="46.6684" lon="4.00309">
        <ele>409.18</ele>
        <time>2021-08-13T07:52:28Z</time>
      </trkpt>
      <trkpt lat="46.66838" lon="4.0029">
        <ele>408.22</ele>
        <time>2021-08-13T07:52:31Z</time>
      </trkpt>
      <trkpt lat="46.66836" lon="4.00276">
        <ele>407.26</ele>
        <time>2021-08-13T07:52:33Z</time>
      </trkpt>
      <trkpt lat="46.66834" lon="4.00268">
        <ele>406.77</ele>
        <time>2021-08-13T07:52:34Z</time>
      </trkpt>
      <trkpt lat="46.66831" lon="4.00252">
        <ele>405.81</ele>
        <time>2021-08-13T07:52:36Z</time>
      </trkpt>
      <trkpt lat="46.6683" lon="4.00244">
        <ele>405.81</ele>
        <time>2021-08-13T07:52:37Z</time>
      </trkpt>
      <trkpt lat="46.66815" lon="4.00184">
        <ele>403.41</ele>
        <time>2021-08-13T07:52:44Z</time>
      </trkpt>
      <trkpt lat="46.66804" lon="4.00128">
        <ele>402.45</ele>
        <time>2021-08-13T07:52:50Z</time>
      </trkpt>
      <trkpt lat="46.66805" lon="4.00108">
        <ele>402.45</ele>
        <time>2021-08-13T07:52:52Z</time>
      </trkpt>
      <trkpt lat="46.66812" lon="4.00048">
        <ele>402.45</ele>
        <time>2021-08-13T07:52:59Z</time>
      </trkpt>
      <trkpt lat="46.66817" lon="3.99997">
        <ele>402.45</ele>
        <time>2021-08-13T07:53:06Z</time>
      </trkpt>
      <trkpt lat="46.66825" lon="3.99947">
        <ele>402.45</ele>
        <time>2021-08-13T07:53:14Z</time>
      </trkpt>
      <trkpt lat="46.66826" lon="3.99941">
        <ele>402.45</ele>
        <time>2021-08-13T07:53:15Z</time>
      </trkpt>
      <trkpt lat="46.66827" lon="3.99935">
        <ele>402.45</ele>
        <time>2021-08-13T07:53:16Z</time>
      </trkpt>
      <trkpt lat="46.6683" lon="3.99878">
        <ele>403.89</ele>
        <time>2021-08-13T07:53:26Z</time>
      </trkpt>
      <trkpt lat="46.66828" lon="3.99831">
        <ele>403.89</ele>
        <time>2021-08-13T07:53:34Z</time>
      </trkpt>
      <trkpt lat="46.66825" lon="3.99789">
        <ele>404.85</ele>
        <time>2021-08-13T07:53:42Z</time>
      </trkpt>
      <trkpt lat="46.66823" lon="3.99769">
        <ele>405.33</ele>
        <time>2021-08-13T07:53:47Z</time>
      </trkpt>
      <trkpt lat="46.66822" lon="3.99765">
        <ele>405.33</ele>
        <time>2021-08-13T07:53:48Z</time>
      </trkpt>
      <trkpt lat="46.66813" lon="3.99731">
        <ele>405.81</ele>
        <time>2021-08-13T07:53:56Z</time>
      </trkpt>
      <trkpt lat="46.66809" lon="3.99706">
        <ele>406.29</ele>
        <time>2021-08-13T07:54:02Z</time>
      </trkpt>
      <trkpt lat="46.66808" lon="3.99684">
        <ele>407.26</ele>
        <time>2021-08-13T07:54:07Z</time>
      </trkpt>
      <trkpt lat="46.66806" lon="3.99653">
        <ele>407.74</ele>
        <time>2021-08-13T07:54:14Z</time>
      </trkpt>
      <trkpt lat="46.66804" lon="3.99623">
        <ele>408.7</ele>
        <time>2021-08-13T07:54:21Z</time>
      </trkpt>
      <trkpt lat="46.66804" lon="3.996">
        <ele>409.18</ele>
        <time>2021-08-13T07:54:27Z</time>
      </trkpt>
      <trkpt lat="46.66802" lon="3.99579">
        <ele>410.14</ele>
        <time>2021-08-13T07:54:33Z</time>
      </trkpt>
      <trkpt lat="46.66799" lon="3.99553">
        <ele>410.62</ele>
        <time>2021-08-13T07:54:39Z</time>
      </trkpt>
      <trkpt lat="46.66791" lon="3.99524">
        <ele>412.06</ele>
        <time>2021-08-13T07:54:46Z</time>
      </trkpt>
      <trkpt lat="46.66784" lon="3.99505">
        <ele>412.54</ele>
        <time>2021-08-13T07:54:52Z</time>
      </trkpt>
      <trkpt lat="46.66772" lon="3.99486">
        <ele>413.5</ele>
        <time>2021-08-13T07:54:59Z</time>
      </trkpt>
      <trkpt lat="46.66754" lon="3.99456">
        <ele>413.98</ele>
        <time>2021-08-13T07:55:08Z</time>
      </trkpt>
      <trkpt lat="46.66748" lon="3.99424">
        <ele>413.98</ele>
        <time>2021-08-13T07:55:14Z</time>
      </trkpt>
      <trkpt lat="46.6674" lon="3.9938">
        <ele>413.98</ele>
        <time>2021-08-13T07:55:22Z</time>
      </trkpt>
      <trkpt lat="46.66735" lon="3.99335">
        <ele>413.98</ele>
        <time>2021-08-13T07:55:31Z</time>
      </trkpt>
      <trkpt lat="46.66733" lon="3.99295">
        <ele>414.47</ele>
        <time>2021-08-13T07:55:39Z</time>
      </trkpt>
      <trkpt lat="46.6673" lon="3.99269">
        <ele>414.95</ele>
        <time>2021-08-13T07:55:45Z</time>
      </trkpt>
      <trkpt lat="46.66723" lon="3.99232">
        <ele>416.39</ele>
        <time>2021-08-13T07:55:54Z</time>
      </trkpt>
      <trkpt lat="46.66717" lon="3.99198">
        <ele>417.35</ele>
        <time>2021-08-13T07:56:03Z</time>
      </trkpt>
      <trkpt lat="46.66719" lon="3.9917">
        <ele>418.31</ele>
        <time>2021-08-13T07:56:11Z</time>
      </trkpt>
      <trkpt lat="46.66725" lon="3.99148">
        <ele>419.27</ele>
        <time>2021-08-13T07:56:18Z</time>
      </trkpt>
      <trkpt lat="46.6674" lon="3.99124">
        <ele>421.19</ele>
        <time>2021-08-13T07:56:28Z</time>
      </trkpt>
      <trkpt lat="46.66749" lon="3.9911">
        <ele>422.16</ele>
        <time>2021-08-13T07:56:34Z</time>
      </trkpt>
      <trkpt lat="46.66754" lon="3.99104">
        <ele>422.64</ele>
        <time>2021-08-13T07:56:37Z</time>
      </trkpt>
      <trkpt lat="46.66755" lon="3.99102">
        <ele>422.64</ele>
        <time>2021-08-13T07:56:38Z</time>
      </trkpt>
      <trkpt lat="46.66756" lon="3.99099">
        <ele>423.12</ele>
        <time>2021-08-13T07:56:39Z</time>
      </trkpt>
      <trkpt lat="46.66758" lon="3.99098">
        <ele>423.12</ele>
        <time>2021-08-13T07:56:40Z</time>
      </trkpt>
      <trkpt lat="46.66759" lon="3.99095">
        <ele>423.12</ele>
        <time>2021-08-13T07:56:41Z</time>
      </trkpt>
      <trkpt lat="46.66761" lon="3.99093">
        <ele>423.12</ele>
        <time>2021-08-13T07:56:42Z</time>
      </trkpt>
      <trkpt lat="46.66776" lon="3.99068">
        <ele>423.6</ele>
        <time>2021-08-13T07:56:50Z</time>
      </trkpt>
      <trkpt lat="46.66788" lon="3.99047">
        <ele>422.16</ele>
        <time>2021-08-13T07:56:55Z</time>
      </trkpt>
      <trkpt lat="46.66791" lon="3.99042">
        <ele>422.16</ele>
        <time>2021-08-13T07:56:56Z</time>
      </trkpt>
      <trkpt lat="46.66817" lon="3.98994">
        <ele>420.23</ele>
        <time>2021-08-13T07:57:04Z</time>
      </trkpt>
      <trkpt lat="46.66824" lon="3.9898">
        <ele>419.75</ele>
        <time>2021-08-13T07:57:06Z</time>
      </trkpt>
      <trkpt lat="46.66859" lon="3.98909">
        <ele>418.79</ele>
        <time>2021-08-13T07:57:16Z</time>
      </trkpt>
      <trkpt lat="46.66886" lon="3.98866">
        <ele>418.31</ele>
        <time>2021-08-13T07:57:24Z</time>
      </trkpt>
      <trkpt lat="46.66925" lon="3.98837">
        <ele>417.83</ele>
        <time>2021-08-13T07:57:32Z</time>
      </trkpt>
      <trkpt lat="46.66975" lon="3.98804">
        <ele>417.35</ele>
        <time>2021-08-13T07:57:42Z</time>
      </trkpt>
      <trkpt lat="46.66987" lon="3.9879">
        <ele>416.87</ele>
        <time>2021-08-13T07:57:45Z</time>
      </trkpt>
      <trkpt lat="46.66991" lon="3.98784">
        <ele>416.87</ele>
        <time>2021-08-13T07:57:46Z</time>
      </trkpt>
      <trkpt lat="46.66993" lon="3.98778">
        <ele>416.87</ele>
        <time>2021-08-13T07:57:47Z</time>
      </trkpt>
      <trkpt lat="46.66996" lon="3.98772">
        <ele>416.87</ele>
        <time>2021-08-13T07:57:48Z</time>
      </trkpt>
      <trkpt lat="46.66998" lon="3.98766">
        <ele>416.87</ele>
        <time>2021-08-13T07:57:49Z</time>
      </trkpt>
      <trkpt lat="46.67" lon="3.9876">
        <ele>416.87</ele>
        <time>2021-08-13T07:57:50Z</time>
      </trkpt>
      <trkpt lat="46.67002" lon="3.98754">
        <ele>416.87</ele>
        <time>2021-08-13T07:57:51Z</time>
      </trkpt>
      <trkpt lat="46.67002" lon="3.98748">
        <ele>416.87</ele>
        <time>2021-08-13T07:57:52Z</time>
      </trkpt>
      <trkpt lat="46.67002" lon="3.98742">
        <ele>416.87</ele>
        <time>2021-08-13T07:57:53Z</time>
      </trkpt>
      <trkpt lat="46.67002" lon="3.98735">
        <ele>416.87</ele>
        <time>2021-08-13T07:57:54Z</time>
      </trkpt>
      <trkpt lat="46.67002" lon="3.9873">
        <ele>418.31</ele>
        <time>2021-08-13T07:57:55Z</time>
      </trkpt>
      <trkpt lat="46.67002" lon="3.98724">
        <ele>418.31</ele>
        <time>2021-08-13T07:57:56Z</time>
      </trkpt>
      <trkpt lat="46.67001" lon="3.98717">
        <ele>418.31</ele>
        <time>2021-08-13T07:57:57Z</time>
      </trkpt>
      <trkpt lat="46.67" lon="3.98711">
        <ele>418.31</ele>
        <time>2021-08-13T07:57:58Z</time>
      </trkpt>
      <trkpt lat="46.66999" lon="3.98705">
        <ele>418.31</ele>
        <time>2021-08-13T07:57:59Z</time>
      </trkpt>
      <trkpt lat="46.66997" lon="3.98699">
        <ele>418.31</ele>
        <time>2021-08-13T07:58:00Z</time>
      </trkpt>
      <trkpt lat="46.66996" lon="3.98693">
        <ele>418.31</ele>
        <time>2021-08-13T07:58:01Z</time>
      </trkpt>
      <trkpt lat="46.66994" lon="3.98686">
        <ele>418.31</ele>
        <time>2021-08-13T07:58:02Z</time>
      </trkpt>
      <trkpt lat="46.66992" lon="3.9868">
        <ele>418.31</ele>
        <time>2021-08-13T07:58:03Z</time>
      </trkpt>
      <trkpt lat="46.66984" lon="3.98654">
        <ele>418.31</ele>
        <time>2021-08-13T07:58:07Z</time>
      </trkpt>
      <trkpt lat="46.66974" lon="3.98632">
        <ele>418.31</ele>
        <time>2021-08-13T07:58:11Z</time>
      </trkpt>
      <trkpt lat="46.6695" lon="3.98589">
        <ele>418.31</ele>
        <time>2021-08-13T07:58:19Z</time>
      </trkpt>
      <trkpt lat="46.66931" lon="3.98557">
        <ele>417.35</ele>
        <time>2021-08-13T07:58:25Z</time>
      </trkpt>
      <trkpt lat="46.66905" lon="3.98517">
        <ele>416.39</ele>
        <time>2021-08-13T07:58:33Z</time>
      </trkpt>
      <trkpt lat="46.66877" lon="3.98481">
        <ele>414.95</ele>
        <time>2021-08-13T07:58:40Z</time>
      </trkpt>
      <trkpt lat="46.66829" lon="3.98417">
        <ele>412.06</ele>
        <time>2021-08-13T07:58:50Z</time>
      </trkpt>
      <trkpt lat="46.66826" lon="3.98407">
        <ele>411.58</ele>
        <time>2021-08-13T07:58:51Z</time>
      </trkpt>
      <trkpt lat="46.66825" lon="3.98396">
        <ele>411.58</ele>
        <time>2021-08-13T07:58:52Z</time>
      </trkpt>
      <trkpt lat="46.66826" lon="3.98385">
        <ele>410.14</ele>
        <time>2021-08-13T07:58:53Z</time>
      </trkpt>
      <trkpt lat="46.66828" lon="3.98374">
        <ele>409.66</ele>
        <time>2021-08-13T07:58:54Z</time>
      </trkpt>
      <trkpt lat="46.66832" lon="3.98364">
        <ele>409.18</ele>
        <time>2021-08-13T07:58:55Z</time>
      </trkpt>
      <trkpt lat="46.66837" lon="3.98354">
        <ele>409.18</ele>
        <time>2021-08-13T07:58:56Z</time>
      </trkpt>
      <trkpt lat="46.66842" lon="3.98345">
        <ele>408.22</ele>
        <time>2021-08-13T07:58:57Z</time>
      </trkpt>
      <trkpt lat="46.66848" lon="3.98338">
        <ele>408.22</ele>
        <time>2021-08-13T07:58:58Z</time>
      </trkpt>
      <trkpt lat="46.66876" lon="3.983">
        <ele>407.26</ele>
        <time>2021-08-13T07:59:03Z</time>
      </trkpt>
      <trkpt lat="46.6688" lon="3.98291">
        <ele>406.77</ele>
        <time>2021-08-13T07:59:04Z</time>
      </trkpt>
      <trkpt lat="46.66883" lon="3.9828">
        <ele>406.29</ele>
        <time>2021-08-13T07:59:05Z</time>
      </trkpt>
      <trkpt lat="46.66885" lon="3.98269">
        <ele>405.81</ele>
        <time>2021-08-13T07:59:06Z</time>
      </trkpt>
      <trkpt lat="46.66887" lon="3.98256">
        <ele>405.33</ele>
        <time>2021-08-13T07:59:07Z</time>
      </trkpt>
      <trkpt lat="46.66888" lon="3.98246">
        <ele>405.33</ele>
        <time>2021-08-13T07:59:08Z</time>
      </trkpt>
      <trkpt lat="46.66894" lon="3.9816">
        <ele>401.97</ele>
        <time>2021-08-13T07:59:15Z</time>
      </trkpt>
      <trkpt lat="46.66896" lon="3.98068">
        <ele>398.12</ele>
        <time>2021-08-13T07:59:22Z</time>
      </trkpt>
      <trkpt lat="46.66892" lon="3.97985">
        <ele>395.24</ele>
        <time>2021-08-13T07:59:28Z</time>
      </trkpt>
      <trkpt lat="46.66885" lon="3.97916">
        <ele>392.36</ele>
        <time>2021-08-13T07:59:33Z</time>
      </trkpt>
      <trkpt lat="46.66879" lon="3.97821">
        <ele>388.99</ele>
        <time>2021-08-13T07:59:40Z</time>
      </trkpt>
      <trkpt lat="46.66874" lon="3.97807">
        <ele>388.51</ele>
        <time>2021-08-13T07:59:41Z</time>
      </trkpt>
      <trkpt lat="46.6687" lon="3.97796">
        <ele>388.03</ele>
        <time>2021-08-13T07:59:42Z</time>
      </trkpt>
      <trkpt lat="46.66865" lon="3.97786">
        <ele>387.55</ele>
        <time>2021-08-13T07:59:43Z</time>
      </trkpt>
      <trkpt lat="46.66858" lon="3.97775">
        <ele>387.07</ele>
        <time>2021-08-13T07:59:44Z</time>
      </trkpt>
      <trkpt lat="46.66831" lon="3.97721">
        <ele>384.66</ele>
        <time>2021-08-13T07:59:49Z</time>
      </trkpt>
      <trkpt lat="46.66812" lon="3.97656">
        <ele>381.78</ele>
        <time>2021-08-13T07:59:54Z</time>
      </trkpt>
      <trkpt lat="46.6681" lon="3.97643">
        <ele>381.3</ele>
        <time>2021-08-13T07:59:55Z</time>
      </trkpt>
      <trkpt lat="46.66809" lon="3.97631">
        <ele>381.3</ele>
        <time>2021-08-13T07:59:56Z</time>
      </trkpt>
      <trkpt lat="46.66809" lon="3.97619">
        <ele>380.34</ele>
        <time>2021-08-13T07:59:57Z</time>
      </trkpt>
      <trkpt lat="46.66811" lon="3.97609">
        <ele>379.86</ele>
        <time>2021-08-13T07:59:58Z</time>
      </trkpt>
      <trkpt lat="46.66815" lon="3.97599">
        <ele>379.38</ele>
        <time>2021-08-13T07:59:59Z</time>
      </trkpt>
      <trkpt lat="46.66821" lon="3.97591">
        <ele>379.38</ele>
        <time>2021-08-13T08:00:00Z</time>
      </trkpt>
      <trkpt lat="46.66827" lon="3.97585">
        <ele>378.9</ele>
        <time>2021-08-13T08:00:01Z</time>
      </trkpt>
      <trkpt lat="46.66834" lon="3.97579">
        <ele>378.9</ele>
        <time>2021-08-13T08:00:02Z</time>
      </trkpt>
      <trkpt lat="46.66847" lon="3.97567">
        <ele>378.42</ele>
        <time>2021-08-13T08:00:04Z</time>
      </trkpt>
      <trkpt lat="46.66852" lon="3.9756">
        <ele>378.42</ele>
        <time>2021-08-13T08:00:05Z</time>
      </trkpt>
      <trkpt lat="46.66856" lon="3.97552">
        <ele>377.94</ele>
        <time>2021-08-13T08:00:06Z</time>
      </trkpt>
      <trkpt lat="46.66859" lon="3.97543">
        <ele>377.94</ele>
        <time>2021-08-13T08:00:07Z</time>
      </trkpt>
      <trkpt lat="46.66862" lon="3.97533">
        <ele>377.94</ele>
        <time>2021-08-13T08:00:08Z</time>
      </trkpt>
      <trkpt lat="46.66863" lon="3.97523">
        <ele>377.94</ele>
        <time>2021-08-13T08:00:09Z</time>
      </trkpt>
      <trkpt lat="46.66864" lon="3.97513">
        <ele>377.45</ele>
        <time>2021-08-13T08:00:10Z</time>
      </trkpt>
      <trkpt lat="46.66865" lon="3.97502">
        <ele>377.45</ele>
        <time>2021-08-13T08:00:11Z</time>
      </trkpt>
      <trkpt lat="46.66871" lon="3.9747">
        <ele>376.01</ele>
        <time>2021-08-13T08:00:14Z</time>
      </trkpt>
      <trkpt lat="46.66881" lon="3.97438">
        <ele>374.09</ele>
        <time>2021-08-13T08:00:17Z</time>
      </trkpt>
      <trkpt lat="46.66882" lon="3.97426">
        <ele>374.09</ele>
        <time>2021-08-13T08:00:18Z</time>
      </trkpt>
      <trkpt lat="46.66883" lon="3.97415">
        <ele>373.13</ele>
        <time>2021-08-13T08:00:19Z</time>
      </trkpt>
      <trkpt lat="46.66882" lon="3.97403">
        <ele>373.13</ele>
        <time>2021-08-13T08:00:20Z</time>
      </trkpt>
      <trkpt lat="46.6688" lon="3.97391">
        <ele>372.65</ele>
        <time>2021-08-13T08:00:21Z</time>
      </trkpt>
      <trkpt lat="46.66878" lon="3.9738">
        <ele>372.65</ele>
        <time>2021-08-13T08:00:22Z</time>
      </trkpt>
      <trkpt lat="46.66859" lon="3.97296">
        <ele>369.28</ele>
        <time>2021-08-13T08:00:29Z</time>
      </trkpt>
      <trkpt lat="46.66858" lon="3.97282">
        <ele>368.8</ele>
        <time>2021-08-13T08:00:30Z</time>
      </trkpt>
      <trkpt lat="46.66858" lon="3.97269">
        <ele>368.8</ele>
        <time>2021-08-13T08:00:31Z</time>
      </trkpt>
      <trkpt lat="46.66865" lon="3.97187">
        <ele>365.44</ele>
        <time>2021-08-13T08:00:37Z</time>
      </trkpt>
      <trkpt lat="46.66869" lon="3.97147">
        <ele>364</ele>
        <time>2021-08-13T08:00:40Z</time>
      </trkpt>
      <trkpt lat="46.66872" lon="3.97122">
        <ele>362.55</ele>
        <time>2021-08-13T08:00:42Z</time>
      </trkpt>
      <trkpt lat="46.66878" lon="3.97067">
        <ele>360.63</ele>
        <time>2021-08-13T08:00:46Z</time>
      </trkpt>
      <trkpt lat="46.6688" lon="3.97055">
        <ele>360.63</ele>
        <time>2021-08-13T08:00:47Z</time>
      </trkpt>
      <trkpt lat="46.66885" lon="3.97043">
        <ele>360.15</ele>
        <time>2021-08-13T08:00:48Z</time>
      </trkpt>
      <trkpt lat="46.66891" lon="3.97034">
        <ele>359.19</ele>
        <time>2021-08-13T08:00:49Z</time>
      </trkpt>
      <trkpt lat="46.66897" lon="3.97026">
        <ele>359.19</ele>
        <time>2021-08-13T08:00:50Z</time>
      </trkpt>
      <trkpt lat="46.66905" lon="3.97018">
        <ele>358.71</ele>
        <time>2021-08-13T08:00:51Z</time>
      </trkpt>
      <trkpt lat="46.66943" lon="3.96984">
        <ele>356.31</ele>
        <time>2021-08-13T08:00:56Z</time>
      </trkpt>
      <trkpt lat="46.66951" lon="3.96982">
        <ele>356.31</ele>
        <time>2021-08-13T08:00:57Z</time>
      </trkpt>
      <trkpt lat="46.6696" lon="3.96981">
        <ele>355.34</ele>
        <time>2021-08-13T08:00:58Z</time>
      </trkpt>
      <trkpt lat="46.66995" lon="3.96979">
        <ele>353.42</ele>
        <time>2021-08-13T08:01:02Z</time>
      </trkpt>
      <trkpt lat="46.67004" lon="3.96976">
        <ele>352.94</ele>
        <time>2021-08-13T08:01:03Z</time>
      </trkpt>
      <trkpt lat="46.67012" lon="3.96969">
        <ele>352.94</ele>
        <time>2021-08-13T08:01:04Z</time>
      </trkpt>
      <trkpt lat="46.6702" lon="3.96962">
        <ele>351.98</ele>
        <time>2021-08-13T08:01:05Z</time>
      </trkpt>
      <trkpt lat="46.67028" lon="3.96954">
        <ele>351.5</ele>
        <time>2021-08-13T08:01:06Z</time>
      </trkpt>
      <trkpt lat="46.67044" lon="3.96941">
        <ele>350.06</ele>
        <time>2021-08-13T08:01:08Z</time>
      </trkpt>
      <trkpt lat="46.67053" lon="3.96937">
        <ele>350.06</ele>
        <time>2021-08-13T08:01:09Z</time>
      </trkpt>
      <trkpt lat="46.67062" lon="3.96935">
        <ele>349.1</ele>
        <time>2021-08-13T08:01:10Z</time>
      </trkpt>
      <trkpt lat="46.67071" lon="3.96935">
        <ele>349.1</ele>
        <time>2021-08-13T08:01:11Z</time>
      </trkpt>
      <trkpt lat="46.67081" lon="3.96936">
        <ele>348.13</ele>
        <time>2021-08-13T08:01:12Z</time>
      </trkpt>
      <trkpt lat="46.67108" lon="3.96936">
        <ele>346.69</ele>
        <time>2021-08-13T08:01:15Z</time>
      </trkpt>
      <trkpt lat="46.67115" lon="3.96931">
        <ele>346.21</ele>
        <time>2021-08-13T08:01:16Z</time>
      </trkpt>
      <trkpt lat="46.67121" lon="3.96922">
        <ele>345.73</ele>
        <time>2021-08-13T08:01:17Z</time>
      </trkpt>
      <trkpt lat="46.67125" lon="3.96911">
        <ele>344.77</ele>
        <time>2021-08-13T08:01:18Z</time>
      </trkpt>
      <trkpt lat="46.67127" lon="3.96898">
        <ele>344.29</ele>
        <time>2021-08-13T08:01:19Z</time>
      </trkpt>
      <trkpt lat="46.67127" lon="3.96886">
        <ele>343.81</ele>
        <time>2021-08-13T08:01:20Z</time>
      </trkpt>
      <trkpt lat="46.67127" lon="3.96872">
        <ele>343.33</ele>
        <time>2021-08-13T08:01:21Z</time>
      </trkpt>
      <trkpt lat="46.67128" lon="3.96832">
        <ele>342.85</ele>
        <time>2021-08-13T08:01:24Z</time>
      </trkpt>
      <trkpt lat="46.6713" lon="3.9682">
        <ele>342.85</ele>
        <time>2021-08-13T08:01:25Z</time>
      </trkpt>
      <trkpt lat="46.67134" lon="3.96809">
        <ele>342.85</ele>
        <time>2021-08-13T08:01:26Z</time>
      </trkpt>
      <trkpt lat="46.67139" lon="3.968">
        <ele>342.85</ele>
        <time>2021-08-13T08:01:27Z</time>
      </trkpt>
      <trkpt lat="46.67144" lon="3.96791">
        <ele>342.85</ele>
        <time>2021-08-13T08:01:28Z</time>
      </trkpt>
      <trkpt lat="46.67149" lon="3.96784">
        <ele>344.29</ele>
        <time>2021-08-13T08:01:29Z</time>
      </trkpt>
      <trkpt lat="46.67155" lon="3.96778">
        <ele>344.29</ele>
        <time>2021-08-13T08:01:30Z</time>
      </trkpt>
      <trkpt lat="46.6716" lon="3.96773">
        <ele>344.29</ele>
        <time>2021-08-13T08:01:31Z</time>
      </trkpt>
      <trkpt lat="46.672" lon="3.96728">
        <ele>345.73</ele>
        <time>2021-08-13T08:01:40Z</time>
      </trkpt>
      <trkpt lat="46.67223" lon="3.96684">
        <ele>346.69</ele>
        <time>2021-08-13T08:01:48Z</time>
      </trkpt>
      <trkpt lat="46.67232" lon="3.96645">
        <ele>345.25</ele>
        <time>2021-08-13T08:01:53Z</time>
      </trkpt>
      <trkpt lat="46.67247" lon="3.96575">
        <ele>343.33</ele>
        <time>2021-08-13T08:02:01Z</time>
      </trkpt>
      <trkpt lat="46.67267" lon="3.96519">
        <ele>343.33</ele>
        <time>2021-08-13T08:02:09Z</time>
      </trkpt>
      <trkpt lat="46.67275" lon="3.96502">
        <ele>344.77</ele>
        <time>2021-08-13T08:02:12Z</time>
      </trkpt>
      <trkpt lat="46.67294" lon="3.96464">
        <ele>345.73</ele>
        <time>2021-08-13T08:02:20Z</time>
      </trkpt>
      <trkpt lat="46.6731" lon="3.96429">
        <ele>347.17</ele>
        <time>2021-08-13T08:02:29Z</time>
      </trkpt>
      <trkpt lat="46.6732" lon="3.96394">
        <ele>348.62</ele>
        <time>2021-08-13T08:02:38Z</time>
      </trkpt>
      <trkpt lat="46.67319" lon="3.96366">
        <ele>350.54</ele>
        <time>2021-08-13T08:02:45Z</time>
      </trkpt>
      <trkpt lat="46.67316" lon="3.96332">
        <ele>351.5</ele>
        <time>2021-08-13T08:02:54Z</time>
      </trkpt>
      <trkpt lat="46.67311" lon="3.96302">
        <ele>352.94</ele>
        <time>2021-08-13T08:03:03Z</time>
      </trkpt>
      <trkpt lat="46.67307" lon="3.96272">
        <ele>353.42</ele>
        <time>2021-08-13T08:03:13Z</time>
      </trkpt>
      <trkpt lat="46.67302" lon="3.96245">
        <ele>354.38</ele>
        <time>2021-08-13T08:03:22Z</time>
      </trkpt>
      <trkpt lat="46.67294" lon="3.96215">
        <ele>355.34</ele>
        <time>2021-08-13T08:03:33Z</time>
      </trkpt>
      <trkpt lat="46.67284" lon="3.96187">
        <ele>357.27</ele>
        <time>2021-08-13T08:03:44Z</time>
      </trkpt>
      <trkpt lat="46.6727" lon="3.96159">
        <ele>358.23</ele>
        <time>2021-08-13T08:03:55Z</time>
      </trkpt>
      <trkpt lat="46.67259" lon="3.9614">
        <ele>359.19</ele>
        <time>2021-08-13T08:04:03Z</time>
      </trkpt>
      <trkpt lat="46.67245" lon="3.96121">
        <ele>360.15</ele>
        <time>2021-08-13T08:04:12Z</time>
      </trkpt>
      <trkpt lat="46.67232" lon="3.96101">
        <ele>361.59</ele>
        <time>2021-08-13T08:04:21Z</time>
      </trkpt>
      <trkpt lat="46.6722" lon="3.9608">
        <ele>362.55</ele>
        <time>2021-08-13T08:04:30Z</time>
      </trkpt>
      <trkpt lat="46.67217" lon="3.96068">
        <ele>363.04</ele>
        <time>2021-08-13T08:04:34Z</time>
      </trkpt>
      <trkpt lat="46.67217" lon="3.96064">
        <ele>363.04</ele>
        <time>2021-08-13T08:04:35Z</time>
      </trkpt>
      <trkpt lat="46.67218" lon="3.96061">
        <ele>363.04</ele>
        <time>2021-08-13T08:04:36Z</time>
      </trkpt>
      <trkpt lat="46.6722" lon="3.96058">
        <ele>363.52</ele>
        <time>2021-08-13T08:04:37Z</time>
      </trkpt>
      <trkpt lat="46.67221" lon="3.96056">
        <ele>363.52</ele>
        <time>2021-08-13T08:04:38Z</time>
      </trkpt>
      <trkpt lat="46.67223" lon="3.96054">
        <ele>363.52</ele>
        <time>2021-08-13T08:04:39Z</time>
      </trkpt>
      <trkpt lat="46.67224" lon="3.96052">
        <ele>363.52</ele>
        <time>2021-08-13T08:04:40Z</time>
      </trkpt>
      <trkpt lat="46.67226" lon="3.96049">
        <ele>363.52</ele>
        <time>2021-08-13T08:04:41Z</time>
      </trkpt>
      <trkpt lat="46.67242" lon="3.96028">
        <ele>363.52</ele>
        <time>2021-08-13T08:04:49Z</time>
      </trkpt>
      <trkpt lat="46.67254" lon="3.96009">
        <ele>363.52</ele>
        <time>2021-08-13T08:04:55Z</time>
      </trkpt>
      <trkpt lat="46.67273" lon="3.9598">
        <ele>364.48</ele>
        <time>2021-08-13T08:05:04Z</time>
      </trkpt>
      <trkpt lat="46.67288" lon="3.95958">
        <ele>364.48</ele>
        <time>2021-08-13T08:05:11Z</time>
      </trkpt>
      <trkpt lat="46.67301" lon="3.95936">
        <ele>364.96</ele>
        <time>2021-08-13T08:05:17Z</time>
      </trkpt>
      <trkpt lat="46.67322" lon="3.95901">
        <ele>365.92</ele>
        <time>2021-08-13T08:05:27Z</time>
      </trkpt>
      <trkpt lat="46.67339" lon="3.9587">
        <ele>365.92</ele>
        <time>2021-08-13T08:05:35Z</time>
      </trkpt>
      <trkpt lat="46.67342" lon="3.95865">
        <ele>365.92</ele>
        <time>2021-08-13T08:05:36Z</time>
      </trkpt>
      <trkpt lat="46.67345" lon="3.95861">
        <ele>365.92</ele>
        <time>2021-08-13T08:05:37Z</time>
      </trkpt>
      <trkpt lat="46.67359" lon="3.95821">
        <ele>366.4</ele>
        <time>2021-08-13T08:05:46Z</time>
      </trkpt>
      <trkpt lat="46.67368" lon="3.95787">
        <ele>366.88</ele>
        <time>2021-08-13T08:05:54Z</time>
      </trkpt>
      <trkpt lat="46.67369" lon="3.95749">
        <ele>366.4</ele>
        <time>2021-08-13T08:06:01Z</time>
      </trkpt>
      <trkpt lat="46.67364" lon="3.95686">
        <ele>365.44</ele>
        <time>2021-08-13T08:06:11Z</time>
      </trkpt>
      <trkpt lat="46.67361" lon="3.95648">
        <ele>364.96</ele>
        <time>2021-08-13T08:06:18Z</time>
      </trkpt>
      <trkpt lat="46.67355" lon="3.95601">
        <ele>366.4</ele>
        <time>2021-08-13T08:06:28Z</time>
      </trkpt>
      <trkpt lat="46.6735" lon="3.95565">
        <ele>366.4</ele>
        <time>2021-08-13T08:06:36Z</time>
      </trkpt>
      <trkpt lat="46.67346" lon="3.95529">
        <ele>366.88</ele>
        <time>2021-08-13T08:06:44Z</time>
      </trkpt>
      <trkpt lat="46.67344" lon="3.95506">
        <ele>367.36</ele>
        <time>2021-08-13T08:06:50Z</time>
      </trkpt>
      <trkpt lat="46.6734" lon="3.9547">
        <ele>367.36</ele>
        <time>2021-08-13T08:06:57Z</time>
      </trkpt>
      <trkpt lat="46.67333" lon="3.95428">
        <ele>367.36</ele>
        <time>2021-08-13T08:07:04Z</time>
      </trkpt>
      <trkpt lat="46.67329" lon="3.9539">
        <ele>367.84</ele>
        <time>2021-08-13T08:07:11Z</time>
      </trkpt>
      <trkpt lat="46.67331" lon="3.95346">
        <ele>367.84</ele>
        <time>2021-08-13T08:07:19Z</time>
      </trkpt>
      <trkpt lat="46.67339" lon="3.95313">
        <ele>366.4</ele>
        <time>2021-08-13T08:07:25Z</time>
      </trkpt>
      <trkpt lat="46.67347" lon="3.95266">
        <ele>363.04</ele>
        <time>2021-08-13T08:07:31Z</time>
      </trkpt>
      <trkpt lat="46.6735" lon="3.95196">
        <ele>360.15</ele>
        <time>2021-08-13T08:07:39Z</time>
      </trkpt>
      <trkpt lat="46.67345" lon="3.95154">
        <ele>357.27</ele>
        <time>2021-08-13T08:07:45Z</time>
      </trkpt>
      <trkpt lat="46.67343" lon="3.95123">
        <ele>353.9</ele>
        <time>2021-08-13T08:07:49Z</time>
      </trkpt>
      <trkpt lat="46.67343" lon="3.95115">
        <ele>353.9</ele>
        <time>2021-08-13T08:07:50Z</time>
      </trkpt>
      <trkpt lat="46.67342" lon="3.95108">
        <ele>353.42</ele>
        <time>2021-08-13T08:07:51Z</time>
      </trkpt>
      <trkpt lat="46.67342" lon="3.95102">
        <ele>352.46</ele>
        <time>2021-08-13T08:07:52Z</time>
      </trkpt>
      <trkpt lat="46.67342" lon="3.95096">
        <ele>352.46</ele>
        <time>2021-08-13T08:07:53Z</time>
      </trkpt>
      <trkpt lat="46.67342" lon="3.95092">
        <ele>351.98</ele>
        <time>2021-08-13T08:07:54Z</time>
      </trkpt>
      <trkpt lat="46.67343" lon="3.95088">
        <ele>351.98</ele>
        <time>2021-08-13T08:07:55Z</time>
      </trkpt>
      <trkpt lat="46.67343" lon="3.95083">
        <ele>351.5</ele>
        <time>2021-08-13T08:07:56Z</time>
      </trkpt>
      <trkpt lat="46.6735" lon="3.95048">
        <ele>349.1</ele>
        <time>2021-08-13T08:08:02Z</time>
      </trkpt>
      <trkpt lat="46.67352" lon="3.95033">
        <ele>348.62</ele>
        <time>2021-08-13T08:08:04Z</time>
      </trkpt>
      <trkpt lat="46.6735" lon="3.94976">
        <ele>345.73</ele>
        <time>2021-08-13T08:08:11Z</time>
      </trkpt>
      <trkpt lat="46.67351" lon="3.94921">
        <ele>341.89</ele>
        <time>2021-08-13T08:08:18Z</time>
      </trkpt>
      <trkpt lat="46.67347" lon="3.94894">
        <ele>340.44</ele>
        <time>2021-08-13T08:08:21Z</time>
      </trkpt>
      <trkpt lat="46.67343" lon="3.94877">
        <ele>340.44</ele>
        <time>2021-08-13T08:08:23Z</time>
      </trkpt>
      <trkpt lat="46.6734" lon="3.94868">
        <ele>339.48</ele>
        <time>2021-08-13T08:08:24Z</time>
      </trkpt>
      <trkpt lat="46.67327" lon="3.94836">
        <ele>339</ele>
        <time>2021-08-13T08:08:28Z</time>
      </trkpt>
      <trkpt lat="46.67299" lon="3.94795">
        <ele>337.56</ele>
        <time>2021-08-13T08:08:34Z</time>
      </trkpt>
      <trkpt lat="46.67297" lon="3.94787">
        <ele>337.56</ele>
        <time>2021-08-13T08:08:35Z</time>
      </trkpt>
      <trkpt lat="46.67297" lon="3.94779">
        <ele>337.56</ele>
        <time>2021-08-13T08:08:36Z</time>
      </trkpt>
      <trkpt lat="46.67297" lon="3.94771">
        <ele>338.04</ele>
        <time>2021-08-13T08:08:37Z</time>
      </trkpt>
      <trkpt lat="46.67298" lon="3.94764">
        <ele>338.04</ele>
        <time>2021-08-13T08:08:38Z</time>
      </trkpt>
      <trkpt lat="46.67297" lon="3.94756">
        <ele>338.04</ele>
        <time>2021-08-13T08:08:39Z</time>
      </trkpt>
      <trkpt lat="46.67296" lon="3.94749">
        <ele>338.04</ele>
        <time>2021-08-13T08:08:40Z</time>
      </trkpt>
      <trkpt lat="46.67294" lon="3.94743">
        <ele>338.04</ele>
        <time>2021-08-13T08:08:41Z</time>
      </trkpt>
      <trkpt lat="46.67293" lon="3.94736">
        <ele>338.04</ele>
        <time>2021-08-13T08:08:42Z</time>
      </trkpt>
      <trkpt lat="46.67292" lon="3.9473">
        <ele>338.04</ele>
        <time>2021-08-13T08:08:43Z</time>
      </trkpt>
      <trkpt lat="46.6729" lon="3.94723">
        <ele>338.04</ele>
        <time>2021-08-13T08:08:44Z</time>
      </trkpt>
      <trkpt lat="46.67289" lon="3.94716">
        <ele>338.04</ele>
        <time>2021-08-13T08:08:45Z</time>
      </trkpt>
      <trkpt lat="46.67289" lon="3.94695">
        <ele>338.04</ele>
        <time>2021-08-13T08:08:49Z</time>
      </trkpt>
      <trkpt lat="46.67292" lon="3.94691">
        <ele>338.04</ele>
        <time>2021-08-13T08:08:50Z</time>
      </trkpt>
      <trkpt lat="46.67305" lon="3.94679">
        <ele>337.08</ele>
        <time>2021-08-13T08:08:53Z</time>
      </trkpt>
      <trkpt lat="46.67333" lon="3.94654">
        <ele>336.6</ele>
        <time>2021-08-13T08:09:00Z</time>
      </trkpt>
      <trkpt lat="46.67337" lon="3.94651">
        <ele>336.6</ele>
        <time>2021-08-13T08:09:01Z</time>
      </trkpt>
      <trkpt lat="46.67341" lon="3.94649">
        <ele>336.6</ele>
        <time>2021-08-13T08:09:02Z</time>
      </trkpt>
      <trkpt lat="46.67345" lon="3.94647">
        <ele>336.6</ele>
        <time>2021-08-13T08:09:03Z</time>
      </trkpt>
      <trkpt lat="46.67349" lon="3.94645">
        <ele>336.6</ele>
        <time>2021-08-13T08:09:04Z</time>
      </trkpt>
      <trkpt lat="46.67354" lon="3.94643">
        <ele>336.6</ele>
        <time>2021-08-13T08:09:05Z</time>
      </trkpt>
      <trkpt lat="46.6737" lon="3.94635">
        <ele>338.04</ele>
        <time>2021-08-13T08:09:09Z</time>
      </trkpt>
      <trkpt lat="46.67391" lon="3.94627">
        <ele>339</ele>
        <time>2021-08-13T08:09:15Z</time>
      </trkpt>
      <trkpt lat="46.67407" lon="3.94618">
        <ele>339.96</ele>
        <time>2021-08-13T08:09:21Z</time>
      </trkpt>
      <trkpt lat="46.6742" lon="3.94609">
        <ele>342.37</ele>
        <time>2021-08-13T08:09:28Z</time>
      </trkpt>
      <trkpt lat="46.67426" lon="3.94604">
        <ele>342.85</ele>
        <time>2021-08-13T08:09:32Z</time>
      </trkpt>
      <trkpt lat="46.67426" lon="3.94602">
        <ele>342.85</ele>
        <time>2021-08-13T08:09:33Z</time>
      </trkpt>
      <trkpt lat="46.67426" lon="3.946">
        <ele>342.85</ele>
        <time>2021-08-13T08:09:34Z</time>
      </trkpt>
      <trkpt lat="46.67426" lon="3.94597">
        <ele>342.85</ele>
        <time>2021-08-13T08:09:35Z</time>
      </trkpt>
      <trkpt lat="46.67426" lon="3.94595">
        <ele>342.85</ele>
        <time>2021-08-13T08:09:36Z</time>
      </trkpt>
      <trkpt lat="46.67426" lon="3.94592">
        <ele>342.85</ele>
        <time>2021-08-13T08:09:37Z</time>
      </trkpt>
      <trkpt lat="46.67426" lon="3.94589">
        <ele>342.85</ele>
        <time>2021-08-13T08:09:38Z</time>
      </trkpt>
      <trkpt lat="46.67426" lon="3.94586">
        <ele>342.85</ele>
        <time>2021-08-13T08:09:39Z</time>
      </trkpt>
      <trkpt lat="46.67426" lon="3.94582">
        <ele>342.85</ele>
        <time>2021-08-13T08:09:40Z</time>
      </trkpt>
      <trkpt lat="46.67428" lon="3.94562">
        <ele>342.85</ele>
        <time>2021-08-13T08:09:46Z</time>
      </trkpt>
      <trkpt lat="46.67433" lon="3.94532">
        <ele>342.37</ele>
        <time>2021-08-13T08:09:54Z</time>
      </trkpt>
      <trkpt lat="46.6743" lon="3.94502">
        <ele>342.37</ele>
        <time>2021-08-13T08:10:02Z</time>
      </trkpt>
      <trkpt lat="46.67426" lon="3.94468">
        <ele>342.37</ele>
        <time>2021-08-13T08:10:10Z</time>
      </trkpt>
      <trkpt lat="46.67428" lon="3.94432">
        <ele>342.37</ele>
        <time>2021-08-13T08:10:17Z</time>
      </trkpt>
      <trkpt lat="46.67428" lon="3.94393">
        <ele>342.37</ele>
        <time>2021-08-13T08:10:25Z</time>
      </trkpt>
      <trkpt lat="46.67426" lon="3.94349">
        <ele>342.37</ele>
        <time>2021-08-13T08:10:34Z</time>
      </trkpt>
      <trkpt lat="46.67428" lon="3.94346">
        <ele>342.37</ele>
        <time>2021-08-13T08:10:35Z</time>
      </trkpt>
      <trkpt lat="46.67429" lon="3.94342">
        <ele>342.85</ele>
        <time>2021-08-13T08:10:36Z</time>
      </trkpt>
      <trkpt lat="46.6743" lon="3.94337">
        <ele>342.85</ele>
        <time>2021-08-13T08:10:37Z</time>
      </trkpt>
      <trkpt lat="46.67431" lon="3.94333">
        <ele>342.85</ele>
        <time>2021-08-13T08:10:38Z</time>
      </trkpt>
      <trkpt lat="46.67441" lon="3.94307">
        <ele>344.29</ele>
        <time>2021-08-13T08:10:45Z</time>
      </trkpt>
      <trkpt lat="46.67456" lon="3.94283">
        <ele>344.77</ele>
        <time>2021-08-13T08:10:53Z</time>
      </trkpt>
      <trkpt lat="46.67472" lon="3.94261">
        <ele>345.73</ele>
        <time>2021-08-13T08:11:01Z</time>
      </trkpt>
      <trkpt lat="46.67481" lon="3.94233">
        <ele>346.69</ele>
        <time>2021-08-13T08:11:10Z</time>
      </trkpt>
      <trkpt lat="46.67487" lon="3.94212">
        <ele>347.17</ele>
        <time>2021-08-13T08:11:17Z</time>
      </trkpt>
      <trkpt lat="46.67494" lon="3.94189">
        <ele>348.62</ele>
        <time>2021-08-13T08:11:26Z</time>
      </trkpt>
      <trkpt lat="46.67504" lon="3.94171">
        <ele>348.62</ele>
        <time>2021-08-13T08:11:34Z</time>
      </trkpt>
      <trkpt lat="46.67511" lon="3.94154">
        <ele>349.1</ele>
        <time>2021-08-13T08:11:40Z</time>
      </trkpt>
      <trkpt lat="46.6752" lon="3.94122">
        <ele>350.06</ele>
        <time>2021-08-13T08:11:52Z</time>
      </trkpt>
      <trkpt lat="46.67524" lon="3.94103">
        <ele>351.02</ele>
        <time>2021-08-13T08:12:00Z</time>
      </trkpt>
      <trkpt lat="46.67528" lon="3.9408">
        <ele>352.46</ele>
        <time>2021-08-13T08:12:08Z</time>
      </trkpt>
      <trkpt lat="46.67527" lon="3.94054">
        <ele>353.42</ele>
        <time>2021-08-13T08:12:17Z</time>
      </trkpt>
      <trkpt lat="46.67525" lon="3.94031">
        <ele>354.86</ele>
        <time>2021-08-13T08:12:25Z</time>
      </trkpt>
      <trkpt lat="46.6752" lon="3.94011">
        <ele>355.34</ele>
        <time>2021-08-13T08:12:33Z</time>
      </trkpt>
      <trkpt lat="46.67509" lon="3.93993">
        <ele>357.27</ele>
        <time>2021-08-13T08:12:42Z</time>
      </trkpt>
      <trkpt lat="46.67502" lon="3.93973">
        <ele>358.23</ele>
        <time>2021-08-13T08:12:50Z</time>
      </trkpt>
      <trkpt lat="46.67492" lon="3.93949">
        <ele>358.23</ele>
        <time>2021-08-13T08:12:59Z</time>
      </trkpt>
      <trkpt lat="46.67485" lon="3.9393">
        <ele>359.19</ele>
        <time>2021-08-13T08:13:06Z</time>
      </trkpt>
      <trkpt lat="46.67486" lon="3.93902">
        <ele>359.19</ele>
        <time>2021-08-13T08:13:14Z</time>
      </trkpt>
      <trkpt lat="46.67499" lon="3.93876">
        <ele>357.75</ele>
        <time>2021-08-13T08:13:21Z</time>
      </trkpt>
      <trkpt lat="46.67502" lon="3.93871">
        <ele>357.75</ele>
        <time>2021-08-13T08:13:22Z</time>
      </trkpt>
      <trkpt lat="46.67519" lon="3.93834">
        <ele>354.38</ele>
        <time>2021-08-13T08:13:28Z</time>
      </trkpt>
      <trkpt lat="46.67535" lon="3.93799">
        <ele>351.5</ele>
        <time>2021-08-13T08:13:33Z</time>
      </trkpt>
      <trkpt lat="46.67544" lon="3.93778">
        <ele>348.62</ele>
        <time>2021-08-13T08:13:36Z</time>
      </trkpt>
      <trkpt lat="46.67554" lon="3.93745">
        <ele>345.25</ele>
        <time>2021-08-13T08:13:40Z</time>
      </trkpt>
      <trkpt lat="46.67556" lon="3.93739">
        <ele>344.77</ele>
        <time>2021-08-13T08:13:41Z</time>
      </trkpt>
      <trkpt lat="46.6756" lon="3.93731">
        <ele>342.85</ele>
        <time>2021-08-13T08:13:42Z</time>
      </trkpt>
      <trkpt lat="46.67569" lon="3.93705">
        <ele>339.48</ele>
        <time>2021-08-13T08:13:45Z</time>
      </trkpt>
      <trkpt lat="46.67572" lon="3.93693">
        <ele>338.52</ele>
        <time>2021-08-13T08:13:46Z</time>
      </trkpt>
      <trkpt lat="46.67573" lon="3.93683">
        <ele>338.52</ele>
        <time>2021-08-13T08:13:47Z</time>
      </trkpt>
      <trkpt lat="46.67574" lon="3.9367">
        <ele>337.56</ele>
        <time>2021-08-13T08:13:48Z</time>
      </trkpt>
      <trkpt lat="46.67575" lon="3.9366">
        <ele>337.56</ele>
        <time>2021-08-13T08:13:49Z</time>
      </trkpt>
      <trkpt lat="46.67575" lon="3.93648">
        <ele>337.08</ele>
        <time>2021-08-13T08:13:50Z</time>
      </trkpt>
      <trkpt lat="46.67574" lon="3.93637">
        <ele>337.08</ele>
        <time>2021-08-13T08:13:51Z</time>
      </trkpt>
      <trkpt lat="46.6757" lon="3.93585">
        <ele>338.52</ele>
        <time>2021-08-13T08:13:57Z</time>
      </trkpt>
      <trkpt lat="46.6757" lon="3.93578">
        <ele>338.52</ele>
        <time>2021-08-13T08:13:58Z</time>
      </trkpt>
      <trkpt lat="46.67573" lon="3.93543">
        <ele>339.96</ele>
        <time>2021-08-13T08:14:05Z</time>
      </trkpt>
      <trkpt lat="46.67577" lon="3.93509">
        <ele>340.44</ele>
        <time>2021-08-13T08:14:12Z</time>
      </trkpt>
      <trkpt lat="46.67584" lon="3.93477">
        <ele>340.44</ele>
        <time>2021-08-13T08:14:19Z</time>
      </trkpt>
      <trkpt lat="46.67593" lon="3.93438">
        <ele>340.92</ele>
        <time>2021-08-13T08:14:28Z</time>
      </trkpt>
      <trkpt lat="46.67594" lon="3.9341">
        <ele>340.92</ele>
        <time>2021-08-13T08:14:35Z</time>
      </trkpt>
      <trkpt lat="46.67594" lon="3.93381">
        <ele>340.92</ele>
        <time>2021-08-13T08:14:42Z</time>
      </trkpt>
      <trkpt lat="46.67593" lon="3.93352">
        <ele>340.92</ele>
        <time>2021-08-13T08:14:49Z</time>
      </trkpt>
      <trkpt lat="46.67592" lon="3.93315">
        <ele>341.89</ele>
        <time>2021-08-13T08:14:58Z</time>
      </trkpt>
      <trkpt lat="46.67592" lon="3.93289">
        <ele>342.37</ele>
        <time>2021-08-13T08:15:05Z</time>
      </trkpt>
      <trkpt lat="46.67592" lon="3.93263">
        <ele>343.33</ele>
        <time>2021-08-13T08:15:13Z</time>
      </trkpt>
      <trkpt lat="46.67594" lon="3.93238">
        <ele>344.29</ele>
        <time>2021-08-13T08:15:21Z</time>
      </trkpt>
      <trkpt lat="46.67595" lon="3.93235">
        <ele>344.29</ele>
        <time>2021-08-13T08:15:22Z</time>
      </trkpt>
      <trkpt lat="46.67596" lon="3.93233">
        <ele>344.29</ele>
        <time>2021-08-13T08:15:23Z</time>
      </trkpt>
      <trkpt lat="46.67596" lon="3.9323">
        <ele>344.29</ele>
        <time>2021-08-13T08:15:24Z</time>
      </trkpt>
      <trkpt lat="46.67595" lon="3.93227">
        <ele>344.77</ele>
        <time>2021-08-13T08:15:25Z</time>
      </trkpt>
      <trkpt lat="46.67595" lon="3.93224">
        <ele>344.77</ele>
        <time>2021-08-13T08:15:26Z</time>
      </trkpt>
      <trkpt lat="46.67594" lon="3.93221">
        <ele>344.77</ele>
        <time>2021-08-13T08:15:27Z</time>
      </trkpt>
      <trkpt lat="46.67593" lon="3.93218">
        <ele>344.77</ele>
        <time>2021-08-13T08:15:28Z</time>
      </trkpt>
      <trkpt lat="46.67593" lon="3.93215">
        <ele>344.77</ele>
        <time>2021-08-13T08:15:29Z</time>
      </trkpt>
      <trkpt lat="46.67593" lon="3.93212">
        <ele>344.77</ele>
        <time>2021-08-13T08:15:30Z</time>
      </trkpt>
      <trkpt lat="46.67592" lon="3.93209">
        <ele>344.77</ele>
        <time>2021-08-13T08:15:31Z</time>
      </trkpt>
      <trkpt lat="46.67591" lon="3.93207">
        <ele>344.77</ele>
        <time>2021-08-13T08:15:32Z</time>
      </trkpt>
      <trkpt lat="46.67591" lon="3.93204">
        <ele>344.77</ele>
        <time>2021-08-13T08:15:33Z</time>
      </trkpt>
      <trkpt lat="46.67592" lon="3.93201">
        <ele>344.77</ele>
        <time>2021-08-13T08:15:34Z</time>
      </trkpt>
      <trkpt lat="46.67594" lon="3.93199">
        <ele>344.77</ele>
        <time>2021-08-13T08:15:35Z</time>
      </trkpt>
      <trkpt lat="46.67595" lon="3.93196">
        <ele>344.77</ele>
        <time>2021-08-13T08:15:36Z</time>
      </trkpt>
      <trkpt lat="46.67599" lon="3.93174">
        <ele>344.77</ele>
        <time>2021-08-13T08:15:42Z</time>
      </trkpt>
      <trkpt lat="46.67607" lon="3.93133">
        <ele>341.89</ele>
        <time>2021-08-13T08:15:49Z</time>
      </trkpt>
      <trkpt lat="46.67616" lon="3.93084">
        <ele>338.04</ele>
        <time>2021-08-13T08:15:55Z</time>
      </trkpt>
      <trkpt lat="46.67623" lon="3.93041">
        <ele>334.68</ele>
        <time>2021-08-13T08:16:00Z</time>
      </trkpt>
      <trkpt lat="46.67627" lon="3.93011">
        <ele>330.83</ele>
        <time>2021-08-13T08:16:03Z</time>
      </trkpt>
      <trkpt lat="46.6763" lon="3.92972">
        <ele>326.99</ele>
        <time>2021-08-13T08:16:06Z</time>
      </trkpt>
      <trkpt lat="46.6763" lon="3.92959">
        <ele>325.06</ele>
        <time>2021-08-13T08:16:07Z</time>
      </trkpt>
      <trkpt lat="46.67631" lon="3.92903">
        <ele>321.7</ele>
        <time>2021-08-13T08:16:11Z</time>
      </trkpt>
      <trkpt lat="46.67631" lon="3.9289">
        <ele>321.7</ele>
        <time>2021-08-13T08:16:12Z</time>
      </trkpt>
      <trkpt lat="46.6763" lon="3.92879">
        <ele>321.7</ele>
        <time>2021-08-13T08:16:13Z</time>
      </trkpt>
      <trkpt lat="46.67629" lon="3.92869">
        <ele>321.7</ele>
        <time>2021-08-13T08:16:14Z</time>
      </trkpt>
      <trkpt lat="46.67626" lon="3.92818">
        <ele>323.62</ele>
        <time>2021-08-13T08:16:20Z</time>
      </trkpt>
      <trkpt lat="46.67624" lon="3.92792">
        <ele>324.1</ele>
        <time>2021-08-13T08:16:25Z</time>
      </trkpt>
      <trkpt lat="46.67624" lon="3.9276">
        <ele>325.06</ele>
        <time>2021-08-13T08:16:33Z</time>
      </trkpt>
      <trkpt lat="46.67621" lon="3.9272">
        <ele>324.58</ele>
        <time>2021-08-13T08:16:41Z</time>
      </trkpt>
      <trkpt lat="46.67617" lon="3.9267">
        <ele>324.58</ele>
        <time>2021-08-13T08:16:50Z</time>
      </trkpt>
      <trkpt lat="46.67612" lon="3.92617">
        <ele>325.06</ele>
        <time>2021-08-13T08:17:00Z</time>
      </trkpt>
      <trkpt lat="46.67606" lon="3.92568">
        <ele>326.02</ele>
        <time>2021-08-13T08:17:09Z</time>
      </trkpt>
      <trkpt lat="46.67603" lon="3.92527">
        <ele>326.99</ele>
        <time>2021-08-13T08:17:17Z</time>
      </trkpt>
      <trkpt lat="46.67598" lon="3.92489">
        <ele>326.99</ele>
        <time>2021-08-13T08:17:24Z</time>
      </trkpt>
      <trkpt lat="46.67594" lon="3.9244">
        <ele>327.47</ele>
        <time>2021-08-13T08:17:33Z</time>
      </trkpt>
      <trkpt lat="46.67592" lon="3.92385">
        <ele>327.47</ele>
        <time>2021-08-13T08:17:43Z</time>
      </trkpt>
      <trkpt lat="46.67586" lon="3.92336">
        <ele>327.47</ele>
        <time>2021-08-13T08:17:52Z</time>
      </trkpt>
      <trkpt lat="46.67578" lon="3.92289">
        <ele>327.47</ele>
        <time>2021-08-13T08:18:01Z</time>
      </trkpt>
      <trkpt lat="46.6757" lon="3.92258">
        <ele>327.47</ele>
        <time>2021-08-13T08:18:07Z</time>
      </trkpt>
      <trkpt lat="46.67544" lon="3.9222">
        <ele>325.54</ele>
        <time>2021-08-13T08:18:15Z</time>
      </trkpt>
      <trkpt lat="46.67512" lon="3.92166">
        <ele>324.58</ele>
        <time>2021-08-13T08:18:24Z</time>
      </trkpt>
      <trkpt lat="46.67483" lon="3.92106">
        <ele>322.66</ele>
        <time>2021-08-13T08:18:33Z</time>
      </trkpt>
      <trkpt lat="46.67471" lon="3.92063">
        <ele>320.74</ele>
        <time>2021-08-13T08:18:38Z</time>
      </trkpt>
      <trkpt lat="46.67464" lon="3.92026">
        <ele>319.3</ele>
        <time>2021-08-13T08:18:42Z</time>
      </trkpt>
      <trkpt lat="46.67464" lon="3.92016">
        <ele>319.3</ele>
        <time>2021-08-13T08:18:43Z</time>
      </trkpt>
      <trkpt lat="46.67466" lon="3.92007">
        <ele>319.3</ele>
        <time>2021-08-13T08:18:44Z</time>
      </trkpt>
      <trkpt lat="46.67468" lon="3.91997">
        <ele>317.85</ele>
        <time>2021-08-13T08:18:45Z</time>
      </trkpt>
      <trkpt lat="46.6747" lon="3.91988">
        <ele>317.85</ele>
        <time>2021-08-13T08:18:46Z</time>
      </trkpt>
      <trkpt lat="46.67474" lon="3.9197">
        <ele>317.37</ele>
        <time>2021-08-13T08:18:48Z</time>
      </trkpt>
      <trkpt lat="46.67475" lon="3.9196">
        <ele>316.89</ele>
        <time>2021-08-13T08:18:49Z</time>
      </trkpt>
      <trkpt lat="46.67476" lon="3.9195">
        <ele>316.89</ele>
        <time>2021-08-13T08:18:50Z</time>
      </trkpt>
      <trkpt lat="46.67473" lon="3.91859">
        <ele>315.93</ele>
        <time>2021-08-13T08:18:59Z</time>
      </trkpt>
      <trkpt lat="46.67461" lon="3.91791">
        <ele>315.93</ele>
        <time>2021-08-13T08:19:07Z</time>
      </trkpt>
      <trkpt lat="46.67439" lon="3.91722">
        <ele>314.01</ele>
        <time>2021-08-13T08:19:16Z</time>
      </trkpt>
      <trkpt lat="46.67435" lon="3.91705">
        <ele>313.05</ele>
        <time>2021-08-13T08:19:18Z</time>
      </trkpt>
      <trkpt lat="46.67434" lon="3.91696">
        <ele>312.57</ele>
        <time>2021-08-13T08:19:19Z</time>
      </trkpt>
      <trkpt lat="46.67434" lon="3.91687">
        <ele>312.57</ele>
        <time>2021-08-13T08:19:20Z</time>
      </trkpt>
      <trkpt lat="46.67436" lon="3.91641">
        <ele>308.72</ele>
        <time>2021-08-13T08:19:25Z</time>
      </trkpt>
      <trkpt lat="46.67439" lon="3.91631">
        <ele>307.28</ele>
        <time>2021-08-13T08:19:26Z</time>
      </trkpt>
      <trkpt lat="46.67442" lon="3.91619">
        <ele>306.8</ele>
        <time>2021-08-13T08:19:27Z</time>
      </trkpt>
      <trkpt lat="46.67453" lon="3.91586">
        <ele>303.43</ele>
        <time>2021-08-13T08:19:30Z</time>
      </trkpt>
      <trkpt lat="46.67468" lon="3.91552">
        <ele>300.07</ele>
        <time>2021-08-13T08:19:33Z</time>
      </trkpt>
      <trkpt lat="46.67492" lon="3.91514">
        <ele>296.7</ele>
        <time>2021-08-13T08:19:37Z</time>
      </trkpt>
      <trkpt lat="46.67501" lon="3.91501">
        <ele>295.74</ele>
        <time>2021-08-13T08:19:39Z</time>
      </trkpt>
      <trkpt lat="46.67503" lon="3.91495">
        <ele>295.26</ele>
        <time>2021-08-13T08:19:40Z</time>
      </trkpt>
      <trkpt lat="46.67505" lon="3.91487">
        <ele>294.3</ele>
        <time>2021-08-13T08:19:41Z</time>
      </trkpt>
      <trkpt lat="46.67505" lon="3.9148">
        <ele>292.86</ele>
        <time>2021-08-13T08:19:42Z</time>
      </trkpt>
      <trkpt lat="46.67505" lon="3.91469">
        <ele>291.42</ele>
        <time>2021-08-13T08:19:43Z</time>
      </trkpt>
      <trkpt lat="46.67505" lon="3.91456">
        <ele>290.46</ele>
        <time>2021-08-13T08:19:44Z</time>
      </trkpt>
      <trkpt lat="46.67503" lon="3.91432">
        <ele>289.49</ele>
        <time>2021-08-13T08:19:46Z</time>
      </trkpt>
      <trkpt lat="46.67501" lon="3.9141">
        <ele>289.49</ele>
        <time>2021-08-13T08:19:48Z</time>
      </trkpt>
      <trkpt lat="46.67501" lon="3.914">
        <ele>289.49</ele>
        <time>2021-08-13T08:19:49Z</time>
      </trkpt>
      <trkpt lat="46.67504" lon="3.91391">
        <ele>289.49</ele>
        <time>2021-08-13T08:19:50Z</time>
      </trkpt>
      <trkpt lat="46.67513" lon="3.91363">
        <ele>292.38</ele>
        <time>2021-08-13T08:19:55Z</time>
      </trkpt>
      <trkpt lat="46.67515" lon="3.91345">
        <ele>294.3</ele>
        <time>2021-08-13T08:20:03Z</time>
      </trkpt>
      <trkpt lat="46.67513" lon="3.91339">
        <ele>294.78</ele>
        <time>2021-08-13T08:20:07Z</time>
      </trkpt>
      <trkpt lat="46.67512" lon="3.91337">
        <ele>295.74</ele>
        <time>2021-08-13T08:20:09Z</time>
      </trkpt>
      <trkpt lat="46.67511" lon="3.91336">
        <ele>295.74</ele>
        <time>2021-08-13T08:20:10Z</time>
      </trkpt>
      <trkpt lat="46.6751" lon="3.91334">
        <ele>296.22</ele>
        <time>2021-08-13T08:20:11Z</time>
      </trkpt>
      <trkpt lat="46.67509" lon="3.91334">
        <ele>296.22</ele>
        <time>2021-08-13T08:20:17Z</time>
      </trkpt>
      <trkpt lat="46.67509" lon="3.91333">
        <ele>296.7</ele>
        <time>2021-08-13T08:20:22Z</time>
      </trkpt>
      <trkpt lat="46.67505" lon="3.91326">
        <ele>298.15</ele>
        <time>2021-08-13T08:20:31Z</time>
      </trkpt>
      <trkpt lat="46.67501" lon="3.91309">
        <ele>299.11</ele>
        <time>2021-08-13T08:20:38Z</time>
      </trkpt>
      <trkpt lat="46.67499" lon="3.91302">
        <ele>299.59</ele>
        <time>2021-08-13T08:20:39Z</time>
      </trkpt>
      <trkpt lat="46.67498" lon="3.91299">
        <ele>299.59</ele>
        <time>2021-08-13T08:20:40Z</time>
      </trkpt>
      <trkpt lat="46.67495" lon="3.91297">
        <ele>299.59</ele>
        <time>2021-08-13T08:20:41Z</time>
      </trkpt>
      <trkpt lat="46.6749" lon="3.91298">
        <ele>300.07</ele>
        <time>2021-08-13T08:20:43Z</time>
      </trkpt>
      <trkpt lat="46.67486" lon="3.91296">
        <ele>301.03</ele>
        <time>2021-08-13T08:20:49Z</time>
      </trkpt>
      <trkpt lat="46.67493" lon="3.91285">
        <ele>301.99</ele>
        <time>2021-08-13T08:20:58Z</time>
      </trkpt>
      <trkpt lat="46.67495" lon="3.91281">
        <ele>302.47</ele>
        <time>2021-08-13T08:21:01Z</time>
      </trkpt>
      <trkpt lat="46.67498" lon="3.91272">
        <ele>302.47</ele>
        <time>2021-08-13T08:21:07Z</time>
      </trkpt>
      <trkpt lat="46.67511" lon="3.91256">
        <ele>302.47</ele>
        <time>2021-08-13T08:21:17Z</time>
      </trkpt>
      <trkpt lat="46.6751" lon="3.91251">
        <ele>302.47</ele>
        <time>2021-08-13T08:21:23Z</time>
      </trkpt>
      <trkpt lat="46.67511" lon="3.9125">
        <ele>302.47</ele>
        <time>2021-08-13T08:21:25Z</time>
      </trkpt>
      <trkpt lat="46.67502" lon="3.9124">
        <ele>302.95</ele>
        <time>2021-08-13T08:21:33Z</time>
      </trkpt>
      <trkpt lat="46.67487" lon="3.91223">
        <ele>302.95</ele>
        <time>2021-08-13T08:21:42Z</time>
      </trkpt>
      <trkpt lat="46.6747" lon="3.91206">
        <ele>302.95</ele>
        <time>2021-08-13T08:21:50Z</time>
      </trkpt>
      <trkpt lat="46.67465" lon="3.91199">
        <ele>302.95</ele>
        <time>2021-08-13T08:21:53Z</time>
      </trkpt>
      <trkpt lat="46.67465" lon="3.91196">
        <ele>302.95</ele>
        <time>2021-08-13T08:21:54Z</time>
      </trkpt>
      <trkpt lat="46.67465" lon="3.91193">
        <ele>302.95</ele>
        <time>2021-08-13T08:21:55Z</time>
      </trkpt>
      <trkpt lat="46.67464" lon="3.9119">
        <ele>302.95</ele>
        <time>2021-08-13T08:21:56Z</time>
      </trkpt>
      <trkpt lat="46.67464" lon="3.91188">
        <ele>302.95</ele>
        <time>2021-08-13T08:21:57Z</time>
      </trkpt>
      <trkpt lat="46.67463" lon="3.91186">
        <ele>302.95</ele>
        <time>2021-08-13T08:21:58Z</time>
      </trkpt>
      <trkpt lat="46.67459" lon="3.91178">
        <ele>302.95</ele>
        <time>2021-08-13T08:22:02Z</time>
      </trkpt>
      <trkpt lat="46.67458" lon="3.91178">
        <ele>302.95</ele>
        <time>2021-08-13T08:22:03Z</time>
      </trkpt>
      <trkpt lat="46.67452" lon="3.91177">
        <ele>302.95</ele>
        <time>2021-08-13T08:22:07Z</time>
      </trkpt>
      <trkpt lat="46.67451" lon="3.91175">
        <ele>302.95</ele>
        <time>2021-08-13T08:22:08Z</time>
      </trkpt>
      <trkpt lat="46.67449" lon="3.91169">
        <ele>302.95</ele>
        <time>2021-08-13T08:22:11Z</time>
      </trkpt>
      <trkpt lat="46.67447" lon="3.91168">
        <ele>302.95</ele>
        <time>2021-08-13T08:22:12Z</time>
      </trkpt>
      <trkpt lat="46.67446" lon="3.91167">
        <ele>302.95</ele>
        <time>2021-08-13T08:22:18Z</time>
      </trkpt>
      <trkpt lat="46.67443" lon="3.91165">
        <ele>302.95</ele>
        <time>2021-08-13T08:22:25Z</time>
      </trkpt>
      <trkpt lat="46.67442" lon="3.91162">
        <ele>302.95</ele>
        <time>2021-08-13T08:22:26Z</time>
      </trkpt>
      <trkpt lat="46.67442" lon="3.91159">
        <ele>302.95</ele>
        <time>2021-08-13T08:22:27Z</time>
      </trkpt>
      <trkpt lat="46.67444" lon="3.91147">
        <ele>302.95</ele>
        <time>2021-08-13T08:22:31Z</time>
      </trkpt>
      <trkpt lat="46.67447" lon="3.91145">
        <ele>302.95</ele>
        <time>2021-08-13T08:22:36Z</time>
      </trkpt>
      <trkpt lat="46.67447" lon="3.91146">
        <ele>303.43</ele>
        <time>2021-08-13T08:22:51Z</time>
      </trkpt>
      <trkpt lat="46.67449" lon="3.91144">
        <ele>302.95</ele>
        <time>2021-08-13T08:23:13Z</time>
      </trkpt>
      <trkpt lat="46.67449" lon="3.91142">
        <ele>302.95</ele>
        <time>2021-08-13T08:23:23Z</time>
      </trkpt>
      <trkpt lat="46.67448" lon="3.91141">
        <ele>302.95</ele>
        <time>2021-08-13T08:23:34Z</time>
      </trkpt>
      <trkpt lat="46.67448" lon="3.91141">
        <ele>302.95</ele>
        <time>2021-08-13T08:23:44Z</time>
      </trkpt>
      <trkpt lat="46.67448" lon="3.91141">
        <ele>302.95</ele>
        <time>2021-08-13T08:23:58Z</time>
      </trkpt>
      <trkpt lat="46.67449" lon="3.9114">
        <ele>302.95</ele>
        <time>2021-08-13T08:24:14Z</time>
      </trkpt>
      <trkpt lat="46.67447" lon="3.91139">
        <ele>302.95</ele>
        <time>2021-08-13T08:24:27Z</time>
      </trkpt>
      <trkpt lat="46.67447" lon="3.91139">
        <ele>302.95</ele>
        <time>2021-08-13T08:24:29Z</time>
      </trkpt>
      <trkpt lat="46.67446" lon="3.91136">
        <ele>302.95</ele>
        <time>2021-08-13T08:24:31Z</time>
      </trkpt>
      <trkpt lat="46.67444" lon="3.91133">
        <ele>302.95</ele>
        <time>2021-08-13T08:24:33Z</time>
      </trkpt>
      <trkpt lat="46.67438" lon="3.91137">
        <ele>302.95</ele>
        <time>2021-08-13T08:24:38Z</time>
      </trkpt>
      <trkpt lat="46.67439" lon="3.91144">
        <ele>302.95</ele>
        <time>2021-08-13T08:24:41Z</time>
      </trkpt>
      <trkpt lat="46.67441" lon="3.91152">
        <ele>302.95</ele>
        <time>2021-08-13T08:24:45Z</time>
      </trkpt>
      <trkpt lat="46.67432" lon="3.91159">
        <ele>301.99</ele>
        <time>2021-08-13T08:24:51Z</time>
      </trkpt>
      <trkpt lat="46.67417" lon="3.9115">
        <ele>300.55</ele>
        <time>2021-08-13T08:24:57Z</time>
      </trkpt>
      <trkpt lat="46.67395" lon="3.91129">
        <ele>300.07</ele>
        <time>2021-08-13T08:25:04Z</time>
      </trkpt>
      <trkpt lat="46.67362" lon="3.91096">
        <ele>298.63</ele>
        <time>2021-08-13T08:25:12Z</time>
      </trkpt>
      <trkpt lat="46.67308" lon="3.91043">
        <ele>296.22</ele>
        <time>2021-08-13T08:25:23Z</time>
      </trkpt>
      <trkpt lat="46.67272" lon="3.91002">
        <ele>294.3</ele>
        <time>2021-08-13T08:25:30Z</time>
      </trkpt>
      <trkpt lat="46.67236" lon="3.90949">
        <ele>292.86</ele>
        <time>2021-08-13T08:25:38Z</time>
      </trkpt>
      <trkpt lat="46.67202" lon="3.90879">
        <ele>289.97</ele>
        <time>2021-08-13T08:25:46Z</time>
      </trkpt>
      <trkpt lat="46.67166" lon="3.908">
        <ele>286.61</ele>
        <time>2021-08-13T08:25:54Z</time>
      </trkpt>
      <trkpt lat="46.67121" lon="3.90701">
        <ele>283.73</ele>
        <time>2021-08-13T08:26:04Z</time>
      </trkpt>
      <trkpt lat="46.67104" lon="3.90638">
        <ele>283.25</ele>
        <time>2021-08-13T08:26:10Z</time>
      </trkpt>
      <trkpt lat="46.67098" lon="3.90573">
        <ele>283.73</ele>
        <time>2021-08-13T08:26:17Z</time>
      </trkpt>
      <trkpt lat="46.67088" lon="3.90519">
        <ele>283.73</ele>
        <time>2021-08-13T08:26:24Z</time>
      </trkpt>
      <trkpt lat="46.67085" lon="3.90513">
        <ele>283.73</ele>
        <time>2021-08-13T08:26:25Z</time>
      </trkpt>
      <trkpt lat="46.67082" lon="3.90507">
        <ele>283.73</ele>
        <time>2021-08-13T08:26:26Z</time>
      </trkpt>
      <trkpt lat="46.67074" lon="3.90497">
        <ele>283.73</ele>
        <time>2021-08-13T08:26:28Z</time>
      </trkpt>
      <trkpt lat="46.6707" lon="3.90495">
        <ele>283.73</ele>
        <time>2021-08-13T08:26:29Z</time>
      </trkpt>
      <trkpt lat="46.67065" lon="3.90493">
        <ele>283.73</ele>
        <time>2021-08-13T08:26:30Z</time>
      </trkpt>
      <trkpt lat="46.6703" lon="3.90485">
        <ele>283.73</ele>
        <time>2021-08-13T08:26:37Z</time>
      </trkpt>
      <trkpt lat="46.67025" lon="3.90485">
        <ele>283.73</ele>
        <time>2021-08-13T08:26:38Z</time>
      </trkpt>
      <trkpt lat="46.67019" lon="3.90485">
        <ele>283.73</ele>
        <time>2021-08-13T08:26:39Z</time>
      </trkpt>
      <trkpt lat="46.67014" lon="3.90487">
        <ele>283.73</ele>
        <time>2021-08-13T08:26:40Z</time>
      </trkpt>
      <trkpt lat="46.67009" lon="3.9049">
        <ele>283.73</ele>
        <time>2021-08-13T08:26:41Z</time>
      </trkpt>
      <trkpt lat="46.66964" lon="3.9051">
        <ele>283.73</ele>
        <time>2021-08-13T08:26:50Z</time>
      </trkpt>
      <trkpt lat="46.66951" lon="3.90516">
        <ele>283.73</ele>
        <time>2021-08-13T08:26:53Z</time>
      </trkpt>
      <trkpt lat="46.66947" lon="3.90517">
        <ele>283.73</ele>
        <time>2021-08-13T08:26:54Z</time>
      </trkpt>
      <trkpt lat="46.66928" lon="3.90518">
        <ele>284.69</ele>
        <time>2021-08-13T08:26:59Z</time>
      </trkpt>
      <trkpt lat="46.669" lon="3.90501">
        <ele>285.65</ele>
        <time>2021-08-13T08:27:07Z</time>
      </trkpt>
      <trkpt lat="46.66875" lon="3.90478">
        <ele>287.09</ele>
        <time>2021-08-13T08:27:16Z</time>
      </trkpt>
      <trkpt lat="46.66856" lon="3.90452">
        <ele>287.57</ele>
        <time>2021-08-13T08:27:24Z</time>
      </trkpt>
      <trkpt lat="46.66838" lon="3.90426">
        <ele>288.53</ele>
        <time>2021-08-13T08:27:32Z</time>
      </trkpt>
      <trkpt lat="46.66816" lon="3.90406">
        <ele>289.49</ele>
        <time>2021-08-13T08:27:41Z</time>
      </trkpt>
      <trkpt lat="46.66792" lon="3.90395">
        <ele>290.46</ele>
        <time>2021-08-13T08:27:50Z</time>
      </trkpt>
      <trkpt lat="46.66769" lon="3.90387">
        <ele>290.46</ele>
        <time>2021-08-13T08:27:58Z</time>
      </trkpt>
      <trkpt lat="46.66744" lon="3.90383">
        <ele>291.42</ele>
        <time>2021-08-13T08:28:07Z</time>
      </trkpt>
      <trkpt lat="46.66718" lon="3.90378">
        <ele>291.9</ele>
        <time>2021-08-13T08:28:16Z</time>
      </trkpt>
      <trkpt lat="46.66698" lon="3.90374">
        <ele>292.38</ele>
        <time>2021-08-13T08:28:23Z</time>
      </trkpt>
      <trkpt lat="46.66677" lon="3.9037">
        <ele>292.86</ele>
        <time>2021-08-13T08:28:31Z</time>
      </trkpt>
      <trkpt lat="46.66656" lon="3.90367">
        <ele>293.82</ele>
        <time>2021-08-13T08:28:39Z</time>
      </trkpt>
      <trkpt lat="46.66625" lon="3.90368">
        <ele>293.82</ele>
        <time>2021-08-13T08:28:49Z</time>
      </trkpt>
      <trkpt lat="46.66602" lon="3.9036">
        <ele>294.3</ele>
        <time>2021-08-13T08:28:56Z</time>
      </trkpt>
      <trkpt lat="46.66589" lon="3.90334">
        <ele>294.78</ele>
        <time>2021-08-13T08:29:03Z</time>
      </trkpt>
      <trkpt lat="46.66589" lon="3.90304">
        <ele>295.74</ele>
        <time>2021-08-13T08:29:10Z</time>
      </trkpt>
      <trkpt lat="46.66597" lon="3.90282">
        <ele>296.22</ele>
        <time>2021-08-13T08:29:16Z</time>
      </trkpt>
      <trkpt lat="46.66613" lon="3.90262">
        <ele>297.18</ele>
        <time>2021-08-13T08:29:23Z</time>
      </trkpt>
      <trkpt lat="46.6664" lon="3.90244">
        <ele>297.67</ele>
        <time>2021-08-13T08:29:32Z</time>
      </trkpt>
      <trkpt lat="46.66665" lon="3.90225">
        <ele>297.67</ele>
        <time>2021-08-13T08:29:40Z</time>
      </trkpt>
      <trkpt lat="46.66678" lon="3.90195">
        <ele>298.63</ele>
        <time>2021-08-13T08:29:47Z</time>
      </trkpt>
      <trkpt lat="46.66679" lon="3.90164">
        <ele>299.11</ele>
        <time>2021-08-13T08:29:53Z</time>
      </trkpt>
      <trkpt lat="46.66668" lon="3.90109">
        <ele>300.07</ele>
        <time>2021-08-13T08:30:03Z</time>
      </trkpt>
      <trkpt lat="46.66659" lon="3.90076">
        <ele>301.03</ele>
        <time>2021-08-13T08:30:10Z</time>
      </trkpt>
      <trkpt lat="46.66641" lon="3.90041">
        <ele>301.99</ele>
        <time>2021-08-13T08:30:19Z</time>
      </trkpt>
      <trkpt lat="46.66619" lon="3.90006">
        <ele>302.95</ele>
        <time>2021-08-13T08:30:29Z</time>
      </trkpt>
      <trkpt lat="46.66603" lon="3.89983">
        <ele>303.43</ele>
        <time>2021-08-13T08:30:36Z</time>
      </trkpt>
      <trkpt lat="46.66584" lon="3.89953">
        <ele>304.39</ele>
        <time>2021-08-13T08:30:44Z</time>
      </trkpt>
      <trkpt lat="46.66562" lon="3.8992">
        <ele>305.36</ele>
        <time>2021-08-13T08:30:53Z</time>
      </trkpt>
      <trkpt lat="46.66537" lon="3.89887">
        <ele>306.32</ele>
        <time>2021-08-13T08:31:03Z</time>
      </trkpt>
      <trkpt lat="46.66517" lon="3.89877">
        <ele>306.32</ele>
        <time>2021-08-13T08:31:09Z</time>
      </trkpt>
      <trkpt lat="46.66495" lon="3.89883">
        <ele>306.8</ele>
        <time>2021-08-13T08:31:15Z</time>
      </trkpt>
      <trkpt lat="46.66474" lon="3.89903">
        <ele>307.76</ele>
        <time>2021-08-13T08:31:22Z</time>
      </trkpt>
      <trkpt lat="46.66446" lon="3.89927">
        <ele>308.24</ele>
        <time>2021-08-13T08:31:31Z</time>
      </trkpt>
      <trkpt lat="46.66422" lon="3.89947">
        <ele>309.2</ele>
        <time>2021-08-13T08:31:39Z</time>
      </trkpt>
      <trkpt lat="46.66394" lon="3.89975">
        <ele>309.68</ele>
        <time>2021-08-13T08:31:48Z</time>
      </trkpt>
      <trkpt lat="46.66359" lon="3.90023">
        <ele>310.16</ele>
        <time>2021-08-13T08:32:00Z</time>
      </trkpt>
      <trkpt lat="46.6633" lon="3.90065">
        <ele>310.16</ele>
        <time>2021-08-13T08:32:10Z</time>
      </trkpt>
      <trkpt lat="46.66323" lon="3.90073">
        <ele>310.16</ele>
        <time>2021-08-13T08:32:12Z</time>
      </trkpt>
      <trkpt lat="46.66304" lon="3.90088">
        <ele>310.16</ele>
        <time>2021-08-13T08:32:17Z</time>
      </trkpt>
      <trkpt lat="46.663" lon="3.90089">
        <ele>310.16</ele>
        <time>2021-08-13T08:32:18Z</time>
      </trkpt>
      <trkpt lat="46.66296" lon="3.90091">
        <ele>310.64</ele>
        <time>2021-08-13T08:32:19Z</time>
      </trkpt>
      <trkpt lat="46.66292" lon="3.90092">
        <ele>310.64</ele>
        <time>2021-08-13T08:32:20Z</time>
      </trkpt>
      <trkpt lat="46.66288" lon="3.90092">
        <ele>310.64</ele>
        <time>2021-08-13T08:32:21Z</time>
      </trkpt>
      <trkpt lat="46.66285" lon="3.90093">
        <ele>310.64</ele>
        <time>2021-08-13T08:32:22Z</time>
      </trkpt>
      <trkpt lat="46.66254" lon="3.90086">
        <ele>311.6</ele>
        <time>2021-08-13T08:32:30Z</time>
      </trkpt>
      <trkpt lat="46.6621" lon="3.90077">
        <ele>312.09</ele>
        <time>2021-08-13T08:32:41Z</time>
      </trkpt>
      <trkpt lat="46.66176" lon="3.90075">
        <ele>313.05</ele>
        <time>2021-08-13T08:32:50Z</time>
      </trkpt>
      <trkpt lat="46.66153" lon="3.90082">
        <ele>313.53</ele>
        <time>2021-08-13T08:32:56Z</time>
      </trkpt>
      <trkpt lat="46.66111" lon="3.90106">
        <ele>314.01</ele>
        <time>2021-08-13T08:33:07Z</time>
      </trkpt>
      <trkpt lat="46.66104" lon="3.90111">
        <ele>314.01</ele>
        <time>2021-08-13T08:33:09Z</time>
      </trkpt>
      <trkpt lat="46.66071" lon="3.90137">
        <ele>314.49</ele>
        <time>2021-08-13T08:33:18Z</time>
      </trkpt>
      <trkpt lat="46.66036" lon="3.9016">
        <ele>314.49</ele>
        <time>2021-08-13T08:33:27Z</time>
      </trkpt>
      <trkpt lat="46.66002" lon="3.90168">
        <ele>315.45</ele>
        <time>2021-08-13T08:33:36Z</time>
      </trkpt>
      <trkpt lat="46.65961" lon="3.90171">
        <ele>316.89</ele>
        <time>2021-08-13T08:33:47Z</time>
      </trkpt>
      <trkpt lat="46.65953" lon="3.90172">
        <ele>316.89</ele>
        <time>2021-08-13T08:33:49Z</time>
      </trkpt>
      <trkpt lat="46.65949" lon="3.90171">
        <ele>316.89</ele>
        <time>2021-08-13T08:33:50Z</time>
      </trkpt>
      <trkpt lat="46.65933" lon="3.90166">
        <ele>316.89</ele>
        <time>2021-08-13T08:33:54Z</time>
      </trkpt>
      <trkpt lat="46.65929" lon="3.90163">
        <ele>316.89</ele>
        <time>2021-08-13T08:33:55Z</time>
      </trkpt>
      <trkpt lat="46.65925" lon="3.90159">
        <ele>316.89</ele>
        <time>2021-08-13T08:33:56Z</time>
      </trkpt>
      <trkpt lat="46.65921" lon="3.90155">
        <ele>316.89</ele>
        <time>2021-08-13T08:33:57Z</time>
      </trkpt>
      <trkpt lat="46.65918" lon="3.9015">
        <ele>316.89</ele>
        <time>2021-08-13T08:33:58Z</time>
      </trkpt>
      <trkpt lat="46.65916" lon="3.90145">
        <ele>316.89</ele>
        <time>2021-08-13T08:33:59Z</time>
      </trkpt>
      <trkpt lat="46.65913" lon="3.90138">
        <ele>316.89</ele>
        <time>2021-08-13T08:34:00Z</time>
      </trkpt>
      <trkpt lat="46.65912" lon="3.90131">
        <ele>316.89</ele>
        <time>2021-08-13T08:34:01Z</time>
      </trkpt>
      <trkpt lat="46.65912" lon="3.90124">
        <ele>316.89</ele>
        <time>2021-08-13T08:34:02Z</time>
      </trkpt>
      <trkpt lat="46.65913" lon="3.90118">
        <ele>316.89</ele>
        <time>2021-08-13T08:34:03Z</time>
      </trkpt>
      <trkpt lat="46.65914" lon="3.90111">
        <ele>316.89</ele>
        <time>2021-08-13T08:34:04Z</time>
      </trkpt>
      <trkpt lat="46.65916" lon="3.90106">
        <ele>316.89</ele>
        <time>2021-08-13T08:34:05Z</time>
      </trkpt>
      <trkpt lat="46.65919" lon="3.90101">
        <ele>316.89</ele>
        <time>2021-08-13T08:34:06Z</time>
      </trkpt>
      <trkpt lat="46.65921" lon="3.90097">
        <ele>316.89</ele>
        <time>2021-08-13T08:34:07Z</time>
      </trkpt>
      <trkpt lat="46.65945" lon="3.90067">
        <ele>317.85</ele>
        <time>2021-08-13T08:34:16Z</time>
      </trkpt>
      <trkpt lat="46.65966" lon="3.90041">
        <ele>318.81</ele>
        <time>2021-08-13T08:34:24Z</time>
      </trkpt>
      <trkpt lat="46.65979" lon="3.90005">
        <ele>320.26</ele>
        <time>2021-08-13T08:34:33Z</time>
      </trkpt>
      <trkpt lat="46.65975" lon="3.89972">
        <ele>321.22</ele>
        <time>2021-08-13T08:34:40Z</time>
      </trkpt>
      <trkpt lat="46.65964" lon="3.89927">
        <ele>321.7</ele>
        <time>2021-08-13T08:34:50Z</time>
      </trkpt>
      <trkpt lat="46.65946" lon="3.89865">
        <ele>321.7</ele>
        <time>2021-08-13T08:35:01Z</time>
      </trkpt>
      <trkpt lat="46.65922" lon="3.89811">
        <ele>320.26</ele>
        <time>2021-08-13T08:35:10Z</time>
      </trkpt>
      <trkpt lat="46.65894" lon="3.89744">
        <ele>318.81</ele>
        <time>2021-08-13T08:35:20Z</time>
      </trkpt>
      <trkpt lat="46.65877" lon="3.89709">
        <ele>317.85</ele>
        <time>2021-08-13T08:35:25Z</time>
      </trkpt>
      <trkpt lat="46.65868" lon="3.89696">
        <ele>317.37</ele>
        <time>2021-08-13T08:35:27Z</time>
      </trkpt>
      <trkpt lat="46.65863" lon="3.89691">
        <ele>316.41</ele>
        <time>2021-08-13T08:35:28Z</time>
      </trkpt>
      <trkpt lat="46.65857" lon="3.89688">
        <ele>316.41</ele>
        <time>2021-08-13T08:35:29Z</time>
      </trkpt>
      <trkpt lat="46.65851" lon="3.89686">
        <ele>315.93</ele>
        <time>2021-08-13T08:35:30Z</time>
      </trkpt>
      <trkpt lat="46.65844" lon="3.89686">
        <ele>315.93</ele>
        <time>2021-08-13T08:35:31Z</time>
      </trkpt>
      <trkpt lat="46.65831" lon="3.89685">
        <ele>314.97</ele>
        <time>2021-08-13T08:35:33Z</time>
      </trkpt>
      <trkpt lat="46.65825" lon="3.89687">
        <ele>314.97</ele>
        <time>2021-08-13T08:35:34Z</time>
      </trkpt>
      <trkpt lat="46.65818" lon="3.89688">
        <ele>314.97</ele>
        <time>2021-08-13T08:35:35Z</time>
      </trkpt>
      <trkpt lat="46.6581" lon="3.89689">
        <ele>314.01</ele>
        <time>2021-08-13T08:35:36Z</time>
      </trkpt>
      <trkpt lat="46.65802" lon="3.89687">
        <ele>313.53</ele>
        <time>2021-08-13T08:35:37Z</time>
      </trkpt>
      <trkpt lat="46.65795" lon="3.89685">
        <ele>313.53</ele>
        <time>2021-08-13T08:35:38Z</time>
      </trkpt>
      <trkpt lat="46.65787" lon="3.89682">
        <ele>313.53</ele>
        <time>2021-08-13T08:35:39Z</time>
      </trkpt>
      <trkpt lat="46.6578" lon="3.89677">
        <ele>312.57</ele>
        <time>2021-08-13T08:35:40Z</time>
      </trkpt>
      <trkpt lat="46.65772" lon="3.89673">
        <ele>312.57</ele>
        <time>2021-08-13T08:35:41Z</time>
      </trkpt>
      <trkpt lat="46.65718" lon="3.89634">
        <ele>311.6</ele>
        <time>2021-08-13T08:35:49Z</time>
      </trkpt>
      <trkpt lat="46.65713" lon="3.89629">
        <ele>311.6</ele>
        <time>2021-08-13T08:35:50Z</time>
      </trkpt>
      <trkpt lat="46.65709" lon="3.89623">
        <ele>313.05</ele>
        <time>2021-08-13T08:35:51Z</time>
      </trkpt>
      <trkpt lat="46.65705" lon="3.89616">
        <ele>313.05</ele>
        <time>2021-08-13T08:35:52Z</time>
      </trkpt>
      <trkpt lat="46.65703" lon="3.89608">
        <ele>313.05</ele>
        <time>2021-08-13T08:35:53Z</time>
      </trkpt>
      <trkpt lat="46.65701" lon="3.896">
        <ele>313.05</ele>
        <time>2021-08-13T08:35:54Z</time>
      </trkpt>
      <trkpt lat="46.657" lon="3.89592">
        <ele>313.05</ele>
        <time>2021-08-13T08:35:55Z</time>
      </trkpt>
      <trkpt lat="46.657" lon="3.89585">
        <ele>313.53</ele>
        <time>2021-08-13T08:35:56Z</time>
      </trkpt>
      <trkpt lat="46.65701" lon="3.89577">
        <ele>313.53</ele>
        <time>2021-08-13T08:35:57Z</time>
      </trkpt>
      <trkpt lat="46.65702" lon="3.89569">
        <ele>313.53</ele>
        <time>2021-08-13T08:35:58Z</time>
      </trkpt>
      <trkpt lat="46.65704" lon="3.89562">
        <ele>313.53</ele>
        <time>2021-08-13T08:35:59Z</time>
      </trkpt>
      <trkpt lat="46.65706" lon="3.89555">
        <ele>314.01</ele>
        <time>2021-08-13T08:36:00Z</time>
      </trkpt>
      <trkpt lat="46.6572" lon="3.89514">
        <ele>314.97</ele>
        <time>2021-08-13T08:36:07Z</time>
      </trkpt>
      <trkpt lat="46.65734" lon="3.89462">
        <ele>315.93</ele>
        <time>2021-08-13T08:36:16Z</time>
      </trkpt>
      <trkpt lat="46.65747" lon="3.89401">
        <ele>316.89</ele>
        <time>2021-08-13T08:36:27Z</time>
      </trkpt>
      <trkpt lat="46.65751" lon="3.89355">
        <ele>317.85</ele>
        <time>2021-08-13T08:36:36Z</time>
      </trkpt>
      <trkpt lat="46.65743" lon="3.8931">
        <ele>319.3</ele>
        <time>2021-08-13T08:36:45Z</time>
      </trkpt>
      <trkpt lat="46.65734" lon="3.8927">
        <ele>319.78</ele>
        <time>2021-08-13T08:36:53Z</time>
      </trkpt>
      <trkpt lat="46.65735" lon="3.89225">
        <ele>320.74</ele>
        <time>2021-08-13T08:37:02Z</time>
      </trkpt>
      <trkpt lat="46.65737" lon="3.89171">
        <ele>321.7</ele>
        <time>2021-08-13T08:37:13Z</time>
      </trkpt>
      <trkpt lat="46.65731" lon="3.89131">
        <ele>322.18</ele>
        <time>2021-08-13T08:37:21Z</time>
      </trkpt>
      <trkpt lat="46.65716" lon="3.89082">
        <ele>322.18</ele>
        <time>2021-08-13T08:37:31Z</time>
      </trkpt>
      <trkpt lat="46.65694" lon="3.89046">
        <ele>322.66</ele>
        <time>2021-08-13T08:37:40Z</time>
      </trkpt>
      <trkpt lat="46.65682" lon="3.89031">
        <ele>322.66</ele>
        <time>2021-08-13T08:37:44Z</time>
      </trkpt>
      <trkpt lat="46.65678" lon="3.89027">
        <ele>322.66</ele>
        <time>2021-08-13T08:37:45Z</time>
      </trkpt>
      <trkpt lat="46.65642" lon="3.88985">
        <ele>322.66</ele>
        <time>2021-08-13T08:37:56Z</time>
      </trkpt>
      <trkpt lat="46.65625" lon="3.88965">
        <ele>322.66</ele>
        <time>2021-08-13T08:38:01Z</time>
      </trkpt>
      <trkpt lat="46.65592" lon="3.88925">
        <ele>322.66</ele>
        <time>2021-08-13T08:38:11Z</time>
      </trkpt>
      <trkpt lat="46.65588" lon="3.88922">
        <ele>322.66</ele>
        <time>2021-08-13T08:38:12Z</time>
      </trkpt>
      <trkpt lat="46.65585" lon="3.88918">
        <ele>322.66</ele>
        <time>2021-08-13T08:38:13Z</time>
      </trkpt>
      <trkpt lat="46.65573" lon="3.88908">
        <ele>322.66</ele>
        <time>2021-08-13T08:38:16Z</time>
      </trkpt>
      <trkpt lat="46.65561" lon="3.88898">
        <ele>322.66</ele>
        <time>2021-08-13T08:38:19Z</time>
      </trkpt>
      <trkpt lat="46.65556" lon="3.88896">
        <ele>322.66</ele>
        <time>2021-08-13T08:38:20Z</time>
      </trkpt>
      <trkpt lat="46.65552" lon="3.88893">
        <ele>322.66</ele>
        <time>2021-08-13T08:38:21Z</time>
      </trkpt>
      <trkpt lat="46.65541" lon="3.8889">
        <ele>321.7</ele>
        <time>2021-08-13T08:38:23Z</time>
      </trkpt>
      <trkpt lat="46.65536" lon="3.8889">
        <ele>321.22</ele>
        <time>2021-08-13T08:38:24Z</time>
      </trkpt>
      <trkpt lat="46.6553" lon="3.8889">
        <ele>321.22</ele>
        <time>2021-08-13T08:38:25Z</time>
      </trkpt>
      <trkpt lat="46.65491" lon="3.88899">
        <ele>320.26</ele>
        <time>2021-08-13T08:38:32Z</time>
      </trkpt>
      <trkpt lat="46.65425" lon="3.88923">
        <ele>318.33</ele>
        <time>2021-08-13T08:38:43Z</time>
      </trkpt>
      <trkpt lat="46.65419" lon="3.88924">
        <ele>318.33</ele>
        <time>2021-08-13T08:38:44Z</time>
      </trkpt>
      <trkpt lat="46.65412" lon="3.88924">
        <ele>317.85</ele>
        <time>2021-08-13T08:38:45Z</time>
      </trkpt>
      <trkpt lat="46.65406" lon="3.88923">
        <ele>317.85</ele>
        <time>2021-08-13T08:38:46Z</time>
      </trkpt>
      <trkpt lat="46.65399" lon="3.88921">
        <ele>317.37</ele>
        <time>2021-08-13T08:38:47Z</time>
      </trkpt>
      <trkpt lat="46.65393" lon="3.88917">
        <ele>317.37</ele>
        <time>2021-08-13T08:38:48Z</time>
      </trkpt>
      <trkpt lat="46.65387" lon="3.88913">
        <ele>317.37</ele>
        <time>2021-08-13T08:38:49Z</time>
      </trkpt>
      <trkpt lat="46.65382" lon="3.88908">
        <ele>317.37</ele>
        <time>2021-08-13T08:38:50Z</time>
      </trkpt>
      <trkpt lat="46.65377" lon="3.88903">
        <ele>317.37</ele>
        <time>2021-08-13T08:38:51Z</time>
      </trkpt>
      <trkpt lat="46.65372" lon="3.88897">
        <ele>316.89</ele>
        <time>2021-08-13T08:38:52Z</time>
      </trkpt>
      <trkpt lat="46.65348" lon="3.88861">
        <ele>318.33</ele>
        <time>2021-08-13T08:38:58Z</time>
      </trkpt>
      <trkpt lat="46.65337" lon="3.88845">
        <ele>318.81</ele>
        <time>2021-08-13T08:39:01Z</time>
      </trkpt>
      <trkpt lat="46.65317" lon="3.88829">
        <ele>319.78</ele>
        <time>2021-08-13T08:39:06Z</time>
      </trkpt>
      <trkpt lat="46.65313" lon="3.88827">
        <ele>320.26</ele>
        <time>2021-08-13T08:39:07Z</time>
      </trkpt>
      <trkpt lat="46.65309" lon="3.88826">
        <ele>320.26</ele>
        <time>2021-08-13T08:39:08Z</time>
      </trkpt>
      <trkpt lat="46.65272" lon="3.88826">
        <ele>321.22</ele>
        <time>2021-08-13T08:39:17Z</time>
      </trkpt>
      <trkpt lat="46.65234" lon="3.88812">
        <ele>322.66</ele>
        <time>2021-08-13T08:39:27Z</time>
      </trkpt>
      <trkpt lat="46.65208" lon="3.88794">
        <ele>323.62</ele>
        <time>2021-08-13T08:39:35Z</time>
      </trkpt>
      <trkpt lat="46.65184" lon="3.88767">
        <ele>325.06</ele>
        <time>2021-08-13T08:39:44Z</time>
      </trkpt>
      <trkpt lat="46.65172" lon="3.88727">
        <ele>325.54</ele>
        <time>2021-08-13T08:39:53Z</time>
      </trkpt>
      <trkpt lat="46.65169" lon="3.8869">
        <ele>326.5</ele>
        <time>2021-08-13T08:40:01Z</time>
      </trkpt>
      <trkpt lat="46.65166" lon="3.88637">
        <ele>327.47</ele>
        <time>2021-08-13T08:40:12Z</time>
      </trkpt>
      <trkpt lat="46.65161" lon="3.88593">
        <ele>328.43</ele>
        <time>2021-08-13T08:40:21Z</time>
      </trkpt>
      <trkpt lat="46.65151" lon="3.88557">
        <ele>328.91</ele>
        <time>2021-08-13T08:40:29Z</time>
      </trkpt>
      <trkpt lat="46.65131" lon="3.88524">
        <ele>329.87</ele>
        <time>2021-08-13T08:40:38Z</time>
      </trkpt>
      <trkpt lat="46.65109" lon="3.88507">
        <ele>330.35</ele>
        <time>2021-08-13T08:40:46Z</time>
      </trkpt>
      <trkpt lat="46.65084" lon="3.88512">
        <ele>331.79</ele>
        <time>2021-08-13T08:40:54Z</time>
      </trkpt>
      <trkpt lat="46.6506" lon="3.88535">
        <ele>332.27</ele>
        <time>2021-08-13T08:41:03Z</time>
      </trkpt>
      <trkpt lat="46.65036" lon="3.88562">
        <ele>332.75</ele>
        <time>2021-08-13T08:41:12Z</time>
      </trkpt>
      <trkpt lat="46.65015" lon="3.88581">
        <ele>333.71</ele>
        <time>2021-08-13T08:41:19Z</time>
      </trkpt>
      <trkpt lat="46.65001" lon="3.88589">
        <ele>334.2</ele>
        <time>2021-08-13T08:41:24Z</time>
      </trkpt>
      <trkpt lat="46.64998" lon="3.88586">
        <ele>334.2</ele>
        <time>2021-08-13T08:41:25Z</time>
      </trkpt>
      <trkpt lat="46.64997" lon="3.8858">
        <ele>334.2</ele>
        <time>2021-08-13T08:41:26Z</time>
      </trkpt>
      <trkpt lat="46.64997" lon="3.88576">
        <ele>334.2</ele>
        <time>2021-08-13T08:41:27Z</time>
      </trkpt>
      <trkpt lat="46.64997" lon="3.88571">
        <ele>334.2</ele>
        <time>2021-08-13T08:41:28Z</time>
      </trkpt>
      <trkpt lat="46.64998" lon="3.88567">
        <ele>334.2</ele>
        <time>2021-08-13T08:41:29Z</time>
      </trkpt>
      <trkpt lat="46.65004" lon="3.88528">
        <ele>334.68</ele>
        <time>2021-08-13T08:41:37Z</time>
      </trkpt>
      <trkpt lat="46.65013" lon="3.8848">
        <ele>335.64</ele>
        <time>2021-08-13T08:41:47Z</time>
      </trkpt>
      <trkpt lat="46.65016" lon="3.88446">
        <ele>336.12</ele>
        <time>2021-08-13T08:41:54Z</time>
      </trkpt>
      <trkpt lat="46.65018" lon="3.884">
        <ele>337.08</ele>
        <time>2021-08-13T08:42:03Z</time>
      </trkpt>
      <trkpt lat="46.65021" lon="3.8836">
        <ele>338.04</ele>
        <time>2021-08-13T08:42:11Z</time>
      </trkpt>
      <trkpt lat="46.65025" lon="3.88305">
        <ele>338.52</ele>
        <time>2021-08-13T08:42:22Z</time>
      </trkpt>
      <trkpt lat="46.65033" lon="3.88242">
        <ele>339.48</ele>
        <time>2021-08-13T08:42:34Z</time>
      </trkpt>
      <trkpt lat="46.65036" lon="3.88188">
        <ele>339.48</ele>
        <time>2021-08-13T08:42:43Z</time>
      </trkpt>
      <trkpt lat="46.65033" lon="3.88117">
        <ele>340.44</ele>
        <time>2021-08-13T08:42:55Z</time>
      </trkpt>
      <trkpt lat="46.65028" lon="3.88073">
        <ele>341.41</ele>
        <time>2021-08-13T08:43:03Z</time>
      </trkpt>
      <trkpt lat="46.6502" lon="3.8801">
        <ele>341.41</ele>
        <time>2021-08-13T08:43:14Z</time>
      </trkpt>
      <trkpt lat="46.65018" lon="3.87998">
        <ele>341.41</ele>
        <time>2021-08-13T08:43:16Z</time>
      </trkpt>
      <trkpt lat="46.65013" lon="3.8797">
        <ele>339.96</ele>
        <time>2021-08-13T08:43:20Z</time>
      </trkpt>
      <trkpt lat="46.65" lon="3.87886">
        <ele>338.04</ele>
        <time>2021-08-13T08:43:30Z</time>
      </trkpt>
      <trkpt lat="46.64991" lon="3.87801">
        <ele>337.56</ele>
        <time>2021-08-13T08:43:40Z</time>
      </trkpt>
      <trkpt lat="46.64986" lon="3.87728">
        <ele>337.56</ele>
        <time>2021-08-13T08:43:50Z</time>
      </trkpt>
      <trkpt lat="46.64983" lon="3.87657">
        <ele>338.52</ele>
        <time>2021-08-13T08:44:00Z</time>
      </trkpt>
      <trkpt lat="46.64983" lon="3.87649">
        <ele>338.52</ele>
        <time>2021-08-13T08:44:01Z</time>
      </trkpt>
      <trkpt lat="46.6499" lon="3.87608">
        <ele>337.56</ele>
        <time>2021-08-13T08:44:07Z</time>
      </trkpt>
      <trkpt lat="46.65008" lon="3.87559">
        <ele>337.56</ele>
        <time>2021-08-13T08:44:15Z</time>
      </trkpt>
      <trkpt lat="46.65029" lon="3.87513">
        <ele>337.56</ele>
        <time>2021-08-13T08:44:23Z</time>
      </trkpt>
      <trkpt lat="46.65056" lon="3.87448">
        <ele>339</ele>
        <time>2021-08-13T08:44:34Z</time>
      </trkpt>
      <trkpt lat="46.65058" lon="3.87443">
        <ele>339</ele>
        <time>2021-08-13T08:44:35Z</time>
      </trkpt>
      <trkpt lat="46.65076" lon="3.87404">
        <ele>339.96</ele>
        <time>2021-08-13T08:44:43Z</time>
      </trkpt>
      <trkpt lat="46.6509" lon="3.87365">
        <ele>342.37</ele>
        <time>2021-08-13T08:44:52Z</time>
      </trkpt>
      <trkpt lat="46.65099" lon="3.87336">
        <ele>343.33</ele>
        <time>2021-08-13T08:44:59Z</time>
      </trkpt>
      <trkpt lat="46.65097" lon="3.8731">
        <ele>344.29</ele>
        <time>2021-08-13T08:45:05Z</time>
      </trkpt>
      <trkpt lat="46.65085" lon="3.87264">
        <ele>344.29</ele>
        <time>2021-08-13T08:45:15Z</time>
      </trkpt>
      <trkpt lat="46.65077" lon="3.87233">
        <ele>342.85</ele>
        <time>2021-08-13T08:45:21Z</time>
      </trkpt>
      <trkpt lat="46.65067" lon="3.87201">
        <ele>341.89</ele>
        <time>2021-08-13T08:45:26Z</time>
      </trkpt>
      <trkpt lat="46.65042" lon="3.87137">
        <ele>339.96</ele>
        <time>2021-08-13T08:45:35Z</time>
      </trkpt>
      <trkpt lat="46.65016" lon="3.87073">
        <ele>337.56</ele>
        <time>2021-08-13T08:45:43Z</time>
      </trkpt>
      <trkpt lat="46.64993" lon="3.87018">
        <ele>334.2</ele>
        <time>2021-08-13T08:45:49Z</time>
      </trkpt>
      <trkpt lat="46.64989" lon="3.87008">
        <ele>334.2</ele>
        <time>2021-08-13T08:45:50Z</time>
      </trkpt>
      <trkpt lat="46.64971" lon="3.86947">
        <ele>332.27</ele>
        <time>2021-08-13T08:45:56Z</time>
      </trkpt>
      <trkpt lat="46.64958" lon="3.86871">
        <ele>331.31</ele>
        <time>2021-08-13T08:46:03Z</time>
      </trkpt>
      <trkpt lat="46.64935" lon="3.86792">
        <ele>329.87</ele>
        <time>2021-08-13T08:46:11Z</time>
      </trkpt>
      <trkpt lat="46.6492" lon="3.86728">
        <ele>329.39</ele>
        <time>2021-08-13T08:46:18Z</time>
      </trkpt>
      <trkpt lat="46.6492" lon="3.86673">
        <ele>328.43</ele>
        <time>2021-08-13T08:46:24Z</time>
      </trkpt>
      <trkpt lat="46.64922" lon="3.86657">
        <ele>328.43</ele>
        <time>2021-08-13T08:46:26Z</time>
      </trkpt>
      <trkpt lat="46.64932" lon="3.86609">
        <ele>326.5</ele>
        <time>2021-08-13T08:46:32Z</time>
      </trkpt>
      <trkpt lat="46.64949" lon="3.86555">
        <ele>323.62</ele>
        <time>2021-08-13T08:46:39Z</time>
      </trkpt>
      <trkpt lat="46.64959" lon="3.86515">
        <ele>322.18</ele>
        <time>2021-08-13T08:46:44Z</time>
      </trkpt>
      <trkpt lat="46.64962" lon="3.86488">
        <ele>321.7</ele>
        <time>2021-08-13T08:46:47Z</time>
      </trkpt>
      <trkpt lat="46.6496" lon="3.8642">
        <ele>320.26</ele>
        <time>2021-08-13T08:46:55Z</time>
      </trkpt>
      <trkpt lat="46.64958" lon="3.86413">
        <ele>320.26</ele>
        <time>2021-08-13T08:46:56Z</time>
      </trkpt>
      <trkpt lat="46.64953" lon="3.86387">
        <ele>320.26</ele>
        <time>2021-08-13T08:47:01Z</time>
      </trkpt>
      <trkpt lat="46.64954" lon="3.86383">
        <ele>320.26</ele>
        <time>2021-08-13T08:47:02Z</time>
      </trkpt>
      <trkpt lat="46.64955" lon="3.8638">
        <ele>320.26</ele>
        <time>2021-08-13T08:47:03Z</time>
      </trkpt>
      <trkpt lat="46.64957" lon="3.86376">
        <ele>320.26</ele>
        <time>2021-08-13T08:47:04Z</time>
      </trkpt>
      <trkpt lat="46.64964" lon="3.86366">
        <ele>321.7</ele>
        <time>2021-08-13T08:47:08Z</time>
      </trkpt>
      <trkpt lat="46.64972" lon="3.86348">
        <ele>323.62</ele>
        <time>2021-08-13T08:47:15Z</time>
      </trkpt>
      <trkpt lat="46.64975" lon="3.86321">
        <ele>324.1</ele>
        <time>2021-08-13T08:47:23Z</time>
      </trkpt>
      <trkpt lat="46.64971" lon="3.86306">
        <ele>324.1</ele>
        <time>2021-08-13T08:47:26Z</time>
      </trkpt>
      <trkpt lat="46.64969" lon="3.86301">
        <ele>322.66</ele>
        <time>2021-08-13T08:47:27Z</time>
      </trkpt>
      <trkpt lat="46.64966" lon="3.86296">
        <ele>322.66</ele>
        <time>2021-08-13T08:47:28Z</time>
      </trkpt>
      <trkpt lat="46.64963" lon="3.86292">
        <ele>322.66</ele>
        <time>2021-08-13T08:47:29Z</time>
      </trkpt>
      <trkpt lat="46.6496" lon="3.86287">
        <ele>322.18</ele>
        <time>2021-08-13T08:47:30Z</time>
      </trkpt>
      <trkpt lat="46.64958" lon="3.86281">
        <ele>322.18</ele>
        <time>2021-08-13T08:47:31Z</time>
      </trkpt>
      <trkpt lat="46.64955" lon="3.86275">
        <ele>322.18</ele>
        <time>2021-08-13T08:47:32Z</time>
      </trkpt>
      <trkpt lat="46.64946" lon="3.86238">
        <ele>322.18</ele>
        <time>2021-08-13T08:47:39Z</time>
      </trkpt>
      <trkpt lat="46.64939" lon="3.86212">
        <ele>323.62</ele>
        <time>2021-08-13T08:47:45Z</time>
      </trkpt>
      <trkpt lat="46.64935" lon="3.86196">
        <ele>324.58</ele>
        <time>2021-08-13T08:47:50Z</time>
      </trkpt>
      <trkpt lat="46.64932" lon="3.86191">
        <ele>325.06</ele>
        <time>2021-08-13T08:47:51Z</time>
      </trkpt>
      <trkpt lat="46.64922" lon="3.86182">
        <ele>323.62</ele>
        <time>2021-08-13T08:47:53Z</time>
      </trkpt>
      <trkpt lat="46.64916" lon="3.86178">
        <ele>322.18</ele>
        <time>2021-08-13T08:47:54Z</time>
      </trkpt>
      <trkpt lat="46.64895" lon="3.86167">
        <ele>319.78</ele>
        <time>2021-08-13T08:47:57Z</time>
      </trkpt>
      <trkpt lat="46.64889" lon="3.86165">
        <ele>319.3</ele>
        <time>2021-08-13T08:47:58Z</time>
      </trkpt>
      <trkpt lat="46.64873" lon="3.86158">
        <ele>317.37</ele>
        <time>2021-08-13T08:48:00Z</time>
      </trkpt>
      <trkpt lat="46.64857" lon="3.86149">
        <ele>315.45</ele>
        <time>2021-08-13T08:48:02Z</time>
      </trkpt>
      <trkpt lat="46.64825" lon="3.86125">
        <ele>312.09</ele>
        <time>2021-08-13T08:48:06Z</time>
      </trkpt>
      <trkpt lat="46.64817" lon="3.86119">
        <ele>312.09</ele>
        <time>2021-08-13T08:48:07Z</time>
      </trkpt>
      <trkpt lat="46.6481" lon="3.86113">
        <ele>312.09</ele>
        <time>2021-08-13T08:48:08Z</time>
      </trkpt>
      <trkpt lat="46.64806" lon="3.86107">
        <ele>311.12</ele>
        <time>2021-08-13T08:48:09Z</time>
      </trkpt>
      <trkpt lat="46.64803" lon="3.86099">
        <ele>310.64</ele>
        <time>2021-08-13T08:48:10Z</time>
      </trkpt>
      <trkpt lat="46.648" lon="3.8609">
        <ele>310.64</ele>
        <time>2021-08-13T08:48:11Z</time>
      </trkpt>
      <trkpt lat="46.64798" lon="3.8608">
        <ele>310.16</ele>
        <time>2021-08-13T08:48:12Z</time>
      </trkpt>
      <trkpt lat="46.64796" lon="3.86071">
        <ele>309.2</ele>
        <time>2021-08-13T08:48:13Z</time>
      </trkpt>
      <trkpt lat="46.64794" lon="3.86064">
        <ele>308.72</ele>
        <time>2021-08-13T08:48:14Z</time>
      </trkpt>
      <trkpt lat="46.64788" lon="3.86043">
        <ele>306.8</ele>
        <time>2021-08-13T08:48:17Z</time>
      </trkpt>
      <trkpt lat="46.64787" lon="3.86036">
        <ele>306.32</ele>
        <time>2021-08-13T08:48:18Z</time>
      </trkpt>
      <trkpt lat="46.64787" lon="3.86029">
        <ele>305.84</ele>
        <time>2021-08-13T08:48:19Z</time>
      </trkpt>
      <trkpt lat="46.64787" lon="3.86023">
        <ele>304.88</ele>
        <time>2021-08-13T08:48:20Z</time>
      </trkpt>
      <trkpt lat="46.64787" lon="3.86016">
        <ele>304.39</ele>
        <time>2021-08-13T08:48:21Z</time>
      </trkpt>
      <trkpt lat="46.64788" lon="3.8601">
        <ele>303.91</ele>
        <time>2021-08-13T08:48:22Z</time>
      </trkpt>
      <trkpt lat="46.64791" lon="3.85995">
        <ele>301.99</ele>
        <time>2021-08-13T08:48:24Z</time>
      </trkpt>
      <trkpt lat="46.64794" lon="3.85988">
        <ele>301.51</ele>
        <time>2021-08-13T08:48:25Z</time>
      </trkpt>
      <trkpt lat="46.64796" lon="3.85981">
        <ele>300.55</ele>
        <time>2021-08-13T08:48:26Z</time>
      </trkpt>
      <trkpt lat="46.64799" lon="3.85975">
        <ele>300.07</ele>
        <time>2021-08-13T08:48:27Z</time>
      </trkpt>
      <trkpt lat="46.64802" lon="3.85969">
        <ele>300.07</ele>
        <time>2021-08-13T08:48:28Z</time>
      </trkpt>
      <trkpt lat="46.64806" lon="3.85964">
        <ele>299.11</ele>
        <time>2021-08-13T08:48:29Z</time>
      </trkpt>
      <trkpt lat="46.6481" lon="3.8596">
        <ele>299.11</ele>
        <time>2021-08-13T08:48:30Z</time>
      </trkpt>
      <trkpt lat="46.64815" lon="3.85956">
        <ele>298.15</ele>
        <time>2021-08-13T08:48:31Z</time>
      </trkpt>
      <trkpt lat="46.64819" lon="3.85953">
        <ele>298.15</ele>
        <time>2021-08-13T08:48:32Z</time>
      </trkpt>
      <trkpt lat="46.64822" lon="3.85951">
        <ele>297.18</ele>
        <time>2021-08-13T08:48:33Z</time>
      </trkpt>
      <trkpt lat="46.64839" lon="3.85945">
        <ele>294.3</ele>
        <time>2021-08-13T08:48:39Z</time>
      </trkpt>
      <trkpt lat="46.64843" lon="3.85943">
        <ele>294.3</ele>
        <time>2021-08-13T08:48:45Z</time>
      </trkpt>
      <trkpt lat="46.64845" lon="3.85943">
        <ele>293.82</ele>
        <time>2021-08-13T08:48:46Z</time>
      </trkpt>
      <trkpt lat="46.64847" lon="3.85943">
        <ele>293.82</ele>
        <time>2021-08-13T08:48:47Z</time>
      </trkpt>
      <trkpt lat="46.64849" lon="3.85942">
        <ele>293.34</ele>
        <time>2021-08-13T08:48:48Z</time>
      </trkpt>
      <trkpt lat="46.64852" lon="3.85942">
        <ele>292.86</ele>
        <time>2021-08-13T08:48:49Z</time>
      </trkpt>
      <trkpt lat="46.6487" lon="3.8594">
        <ele>289.01</ele>
        <time>2021-08-13T08:48:55Z</time>
      </trkpt>
      <trkpt lat="46.64873" lon="3.85937">
        <ele>289.01</ele>
        <time>2021-08-13T08:48:56Z</time>
      </trkpt>
      <trkpt lat="46.64882" lon="3.85928">
        <ele>287.09</ele>
        <time>2021-08-13T08:48:59Z</time>
      </trkpt>
      <trkpt lat="46.64901" lon="3.85911">
        <ele>282.77</ele>
        <time>2021-08-13T08:49:05Z</time>
      </trkpt>
      <trkpt lat="46.64915" lon="3.85901">
        <ele>279.88</ele>
        <time>2021-08-13T08:49:08Z</time>
      </trkpt>
      <trkpt lat="46.64926" lon="3.85888">
        <ele>277.48</ele>
        <time>2021-08-13T08:49:10Z</time>
      </trkpt>
      <trkpt lat="46.64939" lon="3.85873">
        <ele>276.52</ele>
        <time>2021-08-13T08:49:12Z</time>
      </trkpt>
      <trkpt lat="46.64944" lon="3.85865">
        <ele>275.07</ele>
        <time>2021-08-13T08:49:13Z</time>
      </trkpt>
      <trkpt lat="46.64954" lon="3.85845">
        <ele>274.11</ele>
        <time>2021-08-13T08:49:15Z</time>
      </trkpt>
      <trkpt lat="46.64957" lon="3.85834">
        <ele>274.11</ele>
        <time>2021-08-13T08:49:16Z</time>
      </trkpt>
      <trkpt lat="46.64959" lon="3.85814">
        <ele>274.59</ele>
        <time>2021-08-13T08:49:18Z</time>
      </trkpt>
      <trkpt lat="46.6496" lon="3.85781">
        <ele>272.67</ele>
        <time>2021-08-13T08:49:21Z</time>
      </trkpt>
      <trkpt lat="46.64962" lon="3.8574">
        <ele>271.71</ele>
        <time>2021-08-13T08:49:26Z</time>
      </trkpt>
      <trkpt lat="46.64962" lon="3.85735">
        <ele>271.71</ele>
        <time>2021-08-13T08:49:28Z</time>
      </trkpt>
      <trkpt lat="46.64966" lon="3.85723">
        <ele>271.71</ele>
        <time>2021-08-13T08:49:35Z</time>
      </trkpt>
      <trkpt lat="46.64966" lon="3.85722">
        <ele>271.71</ele>
        <time>2021-08-13T08:49:46Z</time>
      </trkpt>
      <trkpt lat="46.64967" lon="3.85727">
        <ele>271.71</ele>
        <time>2021-08-13T08:49:54Z</time>
      </trkpt>
      <trkpt lat="46.64966" lon="3.85727">
        <ele>271.71</ele>
        <time>2021-08-13T08:50:03Z</time>
      </trkpt>
      <trkpt lat="46.64966" lon="3.85727">
        <ele>271.71</ele>
        <time>2021-08-13T08:50:12Z</time>
      </trkpt>
      <trkpt lat="46.64968" lon="3.85726">
        <ele>271.71</ele>
        <time>2021-08-13T08:50:24Z</time>
      </trkpt>
      <trkpt lat="46.64966" lon="3.85721">
        <ele>271.71</ele>
        <time>2021-08-13T08:50:33Z</time>
      </trkpt>
      <trkpt lat="46.64965" lon="3.85718">
        <ele>272.19</ele>
        <time>2021-08-13T08:50:41Z</time>
      </trkpt>
      <trkpt lat="46.64966" lon="3.85715">
        <ele>272.19</ele>
        <time>2021-08-13T08:50:48Z</time>
      </trkpt>
      <trkpt lat="46.64966" lon="3.85713">
        <ele>272.19</ele>
        <time>2021-08-13T08:50:55Z</time>
      </trkpt>
      <trkpt lat="46.64965" lon="3.85709">
        <ele>272.19</ele>
        <time>2021-08-13T08:51:05Z</time>
      </trkpt>
      <trkpt lat="46.64961" lon="3.85705">
        <ele>272.19</ele>
        <time>2021-08-13T08:51:13Z</time>
      </trkpt>
      <trkpt lat="46.6496" lon="3.85704">
        <ele>273.63</ele>
        <time>2021-08-13T08:51:15Z</time>
      </trkpt>
      <trkpt lat="46.6496" lon="3.85702">
        <ele>273.63</ele>
        <time>2021-08-13T08:51:17Z</time>
      </trkpt>
      <trkpt lat="46.64956" lon="3.85698">
        <ele>274.59</ele>
        <time>2021-08-13T08:51:24Z</time>
      </trkpt>
      <trkpt lat="46.64954" lon="3.85691">
        <ele>275.07</ele>
        <time>2021-08-13T08:51:30Z</time>
      </trkpt>
      <trkpt lat="46.6495" lon="3.85683">
        <ele>275.56</ele>
        <time>2021-08-13T08:51:38Z</time>
      </trkpt>
      <trkpt lat="46.64949" lon="3.85679">
        <ele>276.52</ele>
        <time>2021-08-13T08:51:41Z</time>
      </trkpt>
      <trkpt lat="46.64947" lon="3.85669">
        <ele>277</ele>
        <time>2021-08-13T08:51:49Z</time>
      </trkpt>
      <trkpt lat="46.64944" lon="3.85658">
        <ele>277.48</ele>
        <time>2021-08-13T08:51:58Z</time>
      </trkpt>
      <trkpt lat="46.64941" lon="3.85653">
        <ele>277.96</ele>
        <time>2021-08-13T08:52:05Z</time>
      </trkpt>
      <trkpt lat="46.64938" lon="3.85646">
        <ele>278.92</ele>
        <time>2021-08-13T08:52:12Z</time>
      </trkpt>
      <trkpt lat="46.64934" lon="3.85636">
        <ele>279.88</ele>
        <time>2021-08-13T08:52:20Z</time>
      </trkpt>
      <trkpt lat="46.64931" lon="3.85627">
        <ele>280.36</ele>
        <time>2021-08-13T08:52:29Z</time>
      </trkpt>
      <trkpt lat="46.64929" lon="3.8562">
        <ele>281.32</ele>
        <time>2021-08-13T08:52:35Z</time>
      </trkpt>
      <trkpt lat="46.64926" lon="3.8561">
        <ele>282.28</ele>
        <time>2021-08-13T08:52:45Z</time>
      </trkpt>
      <trkpt lat="46.64925" lon="3.85602">
        <ele>282.77</ele>
        <time>2021-08-13T08:52:51Z</time>
      </trkpt>
      <trkpt lat="46.64922" lon="3.85593">
        <ele>283.73</ele>
        <time>2021-08-13T08:52:58Z</time>
      </trkpt>
      <trkpt lat="46.6492" lon="3.85583">
        <ele>284.69</ele>
        <time>2021-08-13T08:53:05Z</time>
      </trkpt>
      <trkpt lat="46.64919" lon="3.85571">
        <ele>285.65</ele>
        <time>2021-08-13T08:53:13Z</time>
      </trkpt>
      <trkpt lat="46.64918" lon="3.85562">
        <ele>286.13</ele>
        <time>2021-08-13T08:53:20Z</time>
      </trkpt>
      <trkpt lat="46.64918" lon="3.85548">
        <ele>287.57</ele>
        <time>2021-08-13T08:53:29Z</time>
      </trkpt>
      <trkpt lat="46.6492" lon="3.85539">
        <ele>289.01</ele>
        <time>2021-08-13T08:53:37Z</time>
      </trkpt>
      <trkpt lat="46.64923" lon="3.85536">
        <ele>289.97</ele>
        <time>2021-08-13T08:53:45Z</time>
      </trkpt>
      <trkpt lat="46.64926" lon="3.85537">
        <ele>290.46</ele>
        <time>2021-08-13T08:53:50Z</time>
      </trkpt>
      <trkpt lat="46.64934" lon="3.85534">
        <ele>291.9</ele>
        <time>2021-08-13T08:53:59Z</time>
      </trkpt>
      <trkpt lat="46.64938" lon="3.8554">
        <ele>292.38</ele>
        <time>2021-08-13T08:54:06Z</time>
      </trkpt>
      <trkpt lat="46.64941" lon="3.85547">
        <ele>293.34</ele>
        <time>2021-08-13T08:54:13Z</time>
      </trkpt>
      <trkpt lat="46.64943" lon="3.85551">
        <ele>294.3</ele>
        <time>2021-08-13T08:54:19Z</time>
      </trkpt>
      <trkpt lat="46.64949" lon="3.85557">
        <ele>295.26</ele>
        <time>2021-08-13T08:54:28Z</time>
      </trkpt>
      <trkpt lat="46.64957" lon="3.85562">
        <ele>297.18</ele>
        <time>2021-08-13T08:54:37Z</time>
      </trkpt>
      <trkpt lat="46.64964" lon="3.85561">
        <ele>297.67</ele>
        <time>2021-08-13T08:54:44Z</time>
      </trkpt>
      <trkpt lat="46.64969" lon="3.85557">
        <ele>298.63</ele>
        <time>2021-08-13T08:54:50Z</time>
      </trkpt>
      <trkpt lat="46.64977" lon="3.85555">
        <ele>299.59</ele>
        <time>2021-08-13T08:54:58Z</time>
      </trkpt>
      <trkpt lat="46.64981" lon="3.85553">
        <ele>299.59</ele>
        <time>2021-08-13T08:55:02Z</time>
      </trkpt>
      <trkpt lat="46.64982" lon="3.85553">
        <ele>299.59</ele>
        <time>2021-08-13T08:55:03Z</time>
      </trkpt>
      <trkpt lat="46.64984" lon="3.85552">
        <ele>300.07</ele>
        <time>2021-08-13T08:55:04Z</time>
      </trkpt>
      <trkpt lat="46.6499" lon="3.85552">
        <ele>301.51</ele>
        <time>2021-08-13T08:55:12Z</time>
      </trkpt>
      <trkpt lat="46.64992" lon="3.85547">
        <ele>301.51</ele>
        <time>2021-08-13T08:55:17Z</time>
      </trkpt>
      <trkpt lat="46.64994" lon="3.85539">
        <ele>302.47</ele>
        <time>2021-08-13T08:55:25Z</time>
      </trkpt>
      <trkpt lat="46.64992" lon="3.85529">
        <ele>302.95</ele>
        <time>2021-08-13T08:55:31Z</time>
      </trkpt>
      <trkpt lat="46.64991" lon="3.85525">
        <ele>303.43</ele>
        <time>2021-08-13T08:55:33Z</time>
      </trkpt>
      <trkpt lat="46.64988" lon="3.85522">
        <ele>303.91</ele>
        <time>2021-08-13T08:55:35Z</time>
      </trkpt>
      <trkpt lat="46.64988" lon="3.85519">
        <ele>303.91</ele>
        <time>2021-08-13T08:55:36Z</time>
      </trkpt>
      <trkpt lat="46.64983" lon="3.85499">
        <ele>305.84</ele>
        <time>2021-08-13T08:55:43Z</time>
      </trkpt>
      <trkpt lat="46.64981" lon="3.85486">
        <ele>305.84</ele>
        <time>2021-08-13T08:55:48Z</time>
      </trkpt>
      <trkpt lat="46.64981" lon="3.85484">
        <ele>306.32</ele>
        <time>2021-08-13T08:55:49Z</time>
      </trkpt>
      <trkpt lat="46.64981" lon="3.85481">
        <ele>306.32</ele>
        <time>2021-08-13T08:55:50Z</time>
      </trkpt>
      <trkpt lat="46.6498" lon="3.85478">
        <ele>306.8</ele>
        <time>2021-08-13T08:55:51Z</time>
      </trkpt>
      <trkpt lat="46.6498" lon="3.85476">
        <ele>306.8</ele>
        <time>2021-08-13T08:55:52Z</time>
      </trkpt>
      <trkpt lat="46.6498" lon="3.85473">
        <ele>307.28</ele>
        <time>2021-08-13T08:55:53Z</time>
      </trkpt>
      <trkpt lat="46.64978" lon="3.85465">
        <ele>307.28</ele>
        <time>2021-08-13T08:55:56Z</time>
      </trkpt>
      <trkpt lat="46.64978" lon="3.85463">
        <ele>307.76</ele>
        <time>2021-08-13T08:55:57Z</time>
      </trkpt>
      <trkpt lat="46.64977" lon="3.8546">
        <ele>307.76</ele>
        <time>2021-08-13T08:55:58Z</time>
      </trkpt>
      <trkpt lat="46.64977" lon="3.85458">
        <ele>307.76</ele>
        <time>2021-08-13T08:55:59Z</time>
      </trkpt>
      <trkpt lat="46.64977" lon="3.85455">
        <ele>308.72</ele>
        <time>2021-08-13T08:56:00Z</time>
      </trkpt>
      <trkpt lat="46.64976" lon="3.85438">
        <ele>309.2</ele>
        <time>2021-08-13T08:56:06Z</time>
      </trkpt>
      <trkpt lat="46.64973" lon="3.8542">
        <ele>309.68</ele>
        <time>2021-08-13T08:56:13Z</time>
      </trkpt>
      <trkpt lat="46.64973" lon="3.85394">
        <ele>311.12</ele>
        <time>2021-08-13T08:56:23Z</time>
      </trkpt>
      <trkpt lat="46.64972" lon="3.85375">
        <ele>312.57</ele>
        <time>2021-08-13T08:56:30Z</time>
      </trkpt>
      <trkpt lat="46.64971" lon="3.85367">
        <ele>313.05</ele>
        <time>2021-08-13T08:56:35Z</time>
      </trkpt>
      <trkpt lat="46.64966" lon="3.85352">
        <ele>314.49</ele>
        <time>2021-08-13T08:56:46Z</time>
      </trkpt>
      <trkpt lat="46.6496" lon="3.85337">
        <ele>316.41</ele>
        <time>2021-08-13T08:56:59Z</time>
      </trkpt>
      <trkpt lat="46.64957" lon="3.85327">
        <ele>317.37</ele>
        <time>2021-08-13T08:57:09Z</time>
      </trkpt>
      <trkpt lat="46.64954" lon="3.85319">
        <ele>318.33</ele>
        <time>2021-08-13T08:57:16Z</time>
      </trkpt>
      <trkpt lat="46.6495" lon="3.85306">
        <ele>320.26</ele>
        <time>2021-08-13T08:57:27Z</time>
      </trkpt>
      <trkpt lat="46.64947" lon="3.85297">
        <ele>321.22</ele>
        <time>2021-08-13T08:57:35Z</time>
      </trkpt>
      <trkpt lat="46.64944" lon="3.85291">
        <ele>322.66</ele>
        <time>2021-08-13T08:57:42Z</time>
      </trkpt>
      <trkpt lat="46.64943" lon="3.85288">
        <ele>322.66</ele>
        <time>2021-08-13T08:57:44Z</time>
      </trkpt>
      <trkpt lat="46.6494" lon="3.85283">
        <ele>323.62</ele>
        <time>2021-08-13T08:57:50Z</time>
      </trkpt>
      <trkpt lat="46.64937" lon="3.85272">
        <ele>324.58</ele>
        <time>2021-08-13T08:57:59Z</time>
      </trkpt>
      <trkpt lat="46.64932" lon="3.85263">
        <ele>325.54</ele>
        <time>2021-08-13T08:58:09Z</time>
      </trkpt>
      <trkpt lat="46.64931" lon="3.85256">
        <ele>326.02</ele>
        <time>2021-08-13T08:58:14Z</time>
      </trkpt>
      <trkpt lat="46.6493" lon="3.85246">
        <ele>326.99</ele>
        <time>2021-08-13T08:58:21Z</time>
      </trkpt>
      <trkpt lat="46.6493" lon="3.85245">
        <ele>326.99</ele>
        <time>2021-08-13T08:58:22Z</time>
      </trkpt>
      <trkpt lat="46.6493" lon="3.85235">
        <ele>328.43</ele>
        <time>2021-08-13T08:58:29Z</time>
      </trkpt>
      <trkpt lat="46.64929" lon="3.85221">
        <ele>329.39</ele>
        <time>2021-08-13T08:58:39Z</time>
      </trkpt>
      <trkpt lat="46.64929" lon="3.85205">
        <ele>330.83</ele>
        <time>2021-08-13T08:58:49Z</time>
      </trkpt>
      <trkpt lat="46.64929" lon="3.85204">
        <ele>331.31</ele>
        <time>2021-08-13T08:58:50Z</time>
      </trkpt>
      <trkpt lat="46.6493" lon="3.85202">
        <ele>331.31</ele>
        <time>2021-08-13T08:58:51Z</time>
      </trkpt>
      <trkpt lat="46.64932" lon="3.85192">
        <ele>331.79</ele>
        <time>2021-08-13T08:58:58Z</time>
      </trkpt>
      <trkpt lat="46.64932" lon="3.8519">
        <ele>332.27</ele>
        <time>2021-08-13T08:59:06Z</time>
      </trkpt>
      <trkpt lat="46.64933" lon="3.85185">
        <ele>332.27</ele>
        <time>2021-08-13T08:59:11Z</time>
      </trkpt>
      <trkpt lat="46.64937" lon="3.85173">
        <ele>333.23</ele>
        <time>2021-08-13T08:59:20Z</time>
      </trkpt>
      <trkpt lat="46.64939" lon="3.85171">
        <ele>333.71</ele>
        <time>2021-08-13T08:59:22Z</time>
      </trkpt>
      <trkpt lat="46.6494" lon="3.85169">
        <ele>333.71</ele>
        <time>2021-08-13T08:59:23Z</time>
      </trkpt>
      <trkpt lat="46.64941" lon="3.85168">
        <ele>334.2</ele>
        <time>2021-08-13T08:59:24Z</time>
      </trkpt>
      <trkpt lat="46.64947" lon="3.85155">
        <ele>334.68</ele>
        <time>2021-08-13T08:59:33Z</time>
      </trkpt>
      <trkpt lat="46.64949" lon="3.85148">
        <ele>335.64</ele>
        <time>2021-08-13T08:59:39Z</time>
      </trkpt>
      <trkpt lat="46.6495" lon="3.85147">
        <ele>335.64</ele>
        <time>2021-08-13T08:59:40Z</time>
      </trkpt>
      <trkpt lat="46.64951" lon="3.85146">
        <ele>335.64</ele>
        <time>2021-08-13T08:59:41Z</time>
      </trkpt>
      <trkpt lat="46.64952" lon="3.85144">
        <ele>335.64</ele>
        <time>2021-08-13T08:59:42Z</time>
      </trkpt>
      <trkpt lat="46.64953" lon="3.85143">
        <ele>335.64</ele>
        <time>2021-08-13T08:59:43Z</time>
      </trkpt>
      <trkpt lat="46.64954" lon="3.85142">
        <ele>335.64</ele>
        <time>2021-08-13T08:59:44Z</time>
      </trkpt>
      <trkpt lat="46.64956" lon="3.8514">
        <ele>335.64</ele>
        <time>2021-08-13T08:59:45Z</time>
      </trkpt>
      <trkpt lat="46.64958" lon="3.85139">
        <ele>335.64</ele>
        <time>2021-08-13T08:59:46Z</time>
      </trkpt>
      <trkpt lat="46.64959" lon="3.85138">
        <ele>335.64</ele>
        <time>2021-08-13T08:59:47Z</time>
      </trkpt>
      <trkpt lat="46.64961" lon="3.85137">
        <ele>335.64</ele>
        <time>2021-08-13T08:59:48Z</time>
      </trkpt>
      <trkpt lat="46.64963" lon="3.85136">
        <ele>335.64</ele>
        <time>2021-08-13T08:59:49Z</time>
      </trkpt>
      <trkpt lat="46.64965" lon="3.85135">
        <ele>335.64</ele>
        <time>2021-08-13T08:59:50Z</time>
      </trkpt>
      <trkpt lat="46.64966" lon="3.85133">
        <ele>335.64</ele>
        <time>2021-08-13T08:59:51Z</time>
      </trkpt>
      <trkpt lat="46.64968" lon="3.85132">
        <ele>335.64</ele>
        <time>2021-08-13T08:59:52Z</time>
      </trkpt>
      <trkpt lat="46.6497" lon="3.85129">
        <ele>335.64</ele>
        <time>2021-08-13T08:59:53Z</time>
      </trkpt>
      <trkpt lat="46.64983" lon="3.85115">
        <ele>335.64</ele>
        <time>2021-08-13T08:59:59Z</time>
      </trkpt>
      <trkpt lat="46.64996" lon="3.85109">
        <ele>335.64</ele>
        <time>2021-08-13T09:00:05Z</time>
      </trkpt>
      <trkpt lat="46.65001" lon="3.85105">
        <ele>334.2</ele>
        <time>2021-08-13T09:00:07Z</time>
      </trkpt>
      <trkpt lat="46.65018" lon="3.85099">
        <ele>333.71</ele>
        <time>2021-08-13T09:00:13Z</time>
      </trkpt>
      <trkpt lat="46.65033" lon="3.85097">
        <ele>333.71</ele>
        <time>2021-08-13T09:00:19Z</time>
      </trkpt>
      <trkpt lat="46.65045" lon="3.85095">
        <ele>335.16</ele>
        <time>2021-08-13T09:00:24Z</time>
      </trkpt>
      <trkpt lat="46.6506" lon="3.85091">
        <ele>335.64</ele>
        <time>2021-08-13T09:00:30Z</time>
      </trkpt>
      <trkpt lat="46.6508" lon="3.85085">
        <ele>335.64</ele>
        <time>2021-08-13T09:00:36Z</time>
      </trkpt>
      <trkpt lat="46.65097" lon="3.85076">
        <ele>337.08</ele>
        <time>2021-08-13T09:00:43Z</time>
      </trkpt>
      <trkpt lat="46.65109" lon="3.85064">
        <ele>338.04</ele>
        <time>2021-08-13T09:00:51Z</time>
      </trkpt>
      <trkpt lat="46.65119" lon="3.85052">
        <ele>338.52</ele>
        <time>2021-08-13T09:00:57Z</time>
      </trkpt>
      <trkpt lat="46.65137" lon="3.85032">
        <ele>338.52</ele>
        <time>2021-08-13T09:01:04Z</time>
      </trkpt>
      <trkpt lat="46.65153" lon="3.85018">
        <ele>338.52</ele>
        <time>2021-08-13T09:01:11Z</time>
      </trkpt>
      <trkpt lat="46.65167" lon="3.84997">
        <ele>337.08</ele>
        <time>2021-08-13T09:01:18Z</time>
      </trkpt>
      <trkpt lat="46.65169" lon="3.84994">
        <ele>337.08</ele>
        <time>2021-08-13T09:01:19Z</time>
      </trkpt>
      <trkpt lat="46.65182" lon="3.84975">
        <ele>336.6</ele>
        <time>2021-08-13T09:01:24Z</time>
      </trkpt>
      <trkpt lat="46.65201" lon="3.84953">
        <ele>336.6</ele>
        <time>2021-08-13T09:01:31Z</time>
      </trkpt>
      <trkpt lat="46.65217" lon="3.84938">
        <ele>336.6</ele>
        <time>2021-08-13T09:01:36Z</time>
      </trkpt>
      <trkpt lat="46.6523" lon="3.84929">
        <ele>336.6</ele>
        <time>2021-08-13T09:01:42Z</time>
      </trkpt>
      <trkpt lat="46.65237" lon="3.84924">
        <ele>338.04</ele>
        <time>2021-08-13T09:01:45Z</time>
      </trkpt>
      <trkpt lat="46.65255" lon="3.84917">
        <ele>340.44</ele>
        <time>2021-08-13T09:01:52Z</time>
      </trkpt>
      <trkpt lat="46.6527" lon="3.84911">
        <ele>341.89</ele>
        <time>2021-08-13T09:01:59Z</time>
      </trkpt>
      <trkpt lat="46.65282" lon="3.84902">
        <ele>342.37</ele>
        <time>2021-08-13T09:02:06Z</time>
      </trkpt>
      <trkpt lat="46.65296" lon="3.84893">
        <ele>343.33</ele>
        <time>2021-08-13T09:02:14Z</time>
      </trkpt>
      <trkpt lat="46.65313" lon="3.84878">
        <ele>343.33</ele>
        <time>2021-08-13T09:02:22Z</time>
      </trkpt>
      <trkpt lat="46.65344" lon="3.84863">
        <ele>341.89</ele>
        <time>2021-08-13T09:02:30Z</time>
      </trkpt>
      <trkpt lat="46.65348" lon="3.8486">
        <ele>341.41</ele>
        <time>2021-08-13T09:02:31Z</time>
      </trkpt>
      <trkpt lat="46.65353" lon="3.84856">
        <ele>340.44</ele>
        <time>2021-08-13T09:02:32Z</time>
      </trkpt>
      <trkpt lat="46.65356" lon="3.84852">
        <ele>340.44</ele>
        <time>2021-08-13T09:02:33Z</time>
      </trkpt>
      <trkpt lat="46.65358" lon="3.8485">
        <ele>340.44</ele>
        <time>2021-08-13T09:02:34Z</time>
      </trkpt>
      <trkpt lat="46.6536" lon="3.84849">
        <ele>340.44</ele>
        <time>2021-08-13T09:02:35Z</time>
      </trkpt>
      <trkpt lat="46.65361" lon="3.84844">
        <ele>340.44</ele>
        <time>2021-08-13T09:02:39Z</time>
      </trkpt>
      <trkpt lat="46.65361" lon="3.84842">
        <ele>340.44</ele>
        <time>2021-08-13T09:02:40Z</time>
      </trkpt>
      <trkpt lat="46.65361" lon="3.8484">
        <ele>340.44</ele>
        <time>2021-08-13T09:02:41Z</time>
      </trkpt>
      <trkpt lat="46.65362" lon="3.84838">
        <ele>341.89</ele>
        <time>2021-08-13T09:02:42Z</time>
      </trkpt>
      <trkpt lat="46.65361" lon="3.84836">
        <ele>342.37</ele>
        <time>2021-08-13T09:02:43Z</time>
      </trkpt>
      <trkpt lat="46.65361" lon="3.84833">
        <ele>342.85</ele>
        <time>2021-08-13T09:02:44Z</time>
      </trkpt>
      <trkpt lat="46.6536" lon="3.84831">
        <ele>342.85</ele>
        <time>2021-08-13T09:02:45Z</time>
      </trkpt>
      <trkpt lat="46.6536" lon="3.84826">
        <ele>343.33</ele>
        <time>2021-08-13T09:02:51Z</time>
      </trkpt>
      <trkpt lat="46.65358" lon="3.84815">
        <ele>344.77</ele>
        <time>2021-08-13T09:03:01Z</time>
      </trkpt>
      <trkpt lat="46.65356" lon="3.84807">
        <ele>345.73</ele>
        <time>2021-08-13T09:03:10Z</time>
      </trkpt>
      <trkpt lat="46.65353" lon="3.84796">
        <ele>347.17</ele>
        <time>2021-08-13T09:03:21Z</time>
      </trkpt>
      <trkpt lat="46.65351" lon="3.84794">
        <ele>347.65</ele>
        <time>2021-08-13T09:03:30Z</time>
      </trkpt>
      <trkpt lat="46.65349" lon="3.84789">
        <ele>348.62</ele>
        <time>2021-08-13T09:03:40Z</time>
      </trkpt>
      <trkpt lat="46.65347" lon="3.84782">
        <ele>349.58</ele>
        <time>2021-08-13T09:03:47Z</time>
      </trkpt>
      <trkpt lat="46.65343" lon="3.84772">
        <ele>351.02</ele>
        <time>2021-08-13T09:03:58Z</time>
      </trkpt>
      <trkpt lat="46.65339" lon="3.84766">
        <ele>352.46</ele>
        <time>2021-08-13T09:04:05Z</time>
      </trkpt>
      <trkpt lat="46.65335" lon="3.84756">
        <ele>353.9</ele>
        <time>2021-08-13T09:04:15Z</time>
      </trkpt>
      <trkpt lat="46.6533" lon="3.84748">
        <ele>354.86</ele>
        <time>2021-08-13T09:04:24Z</time>
      </trkpt>
      <trkpt lat="46.65324" lon="3.84739">
        <ele>355.83</ele>
        <time>2021-08-13T09:04:32Z</time>
      </trkpt>
      <trkpt lat="46.65322" lon="3.84737">
        <ele>355.83</ele>
        <time>2021-08-13T09:04:34Z</time>
      </trkpt>
      <trkpt lat="46.65321" lon="3.84735">
        <ele>355.83</ele>
        <time>2021-08-13T09:04:35Z</time>
      </trkpt>
      <trkpt lat="46.6532" lon="3.84734">
        <ele>356.31</ele>
        <time>2021-08-13T09:04:36Z</time>
      </trkpt>
      <trkpt lat="46.65312" lon="3.84725">
        <ele>357.27</ele>
        <time>2021-08-13T09:04:46Z</time>
      </trkpt>
      <trkpt lat="46.65309" lon="3.8472">
        <ele>357.75</ele>
        <time>2021-08-13T09:04:54Z</time>
      </trkpt>
      <trkpt lat="46.65299" lon="3.84709">
        <ele>358.23</ele>
        <time>2021-08-13T09:05:01Z</time>
      </trkpt>
      <trkpt lat="46.65286" lon="3.84697">
        <ele>359.19</ele>
        <time>2021-08-13T09:05:09Z</time>
      </trkpt>
      <trkpt lat="46.65269" lon="3.84682">
        <ele>360.15</ele>
        <time>2021-08-13T09:05:18Z</time>
      </trkpt>
      <trkpt lat="46.65269" lon="3.8468">
        <ele>360.15</ele>
        <time>2021-08-13T09:05:19Z</time>
      </trkpt>
      <trkpt lat="46.65269" lon="3.84674">
        <ele>360.63</ele>
        <time>2021-08-13T09:05:21Z</time>
      </trkpt>
      <trkpt lat="46.65267" lon="3.84665">
        <ele>360.63</ele>
        <time>2021-08-13T09:05:25Z</time>
      </trkpt>
      <trkpt lat="46.65267" lon="3.84663">
        <ele>360.63</ele>
        <time>2021-08-13T09:05:26Z</time>
      </trkpt>
      <trkpt lat="46.65267" lon="3.84661">
        <ele>360.63</ele>
        <time>2021-08-13T09:05:27Z</time>
      </trkpt>
      <trkpt lat="46.65267" lon="3.8466">
        <ele>360.63</ele>
        <time>2021-08-13T09:05:28Z</time>
      </trkpt>
      <trkpt lat="46.65265" lon="3.8466">
        <ele>360.63</ele>
        <time>2021-08-13T09:05:34Z</time>
      </trkpt>
      <trkpt lat="46.65263" lon="3.84662">
        <ele>360.63</ele>
        <time>2021-08-13T09:05:38Z</time>
      </trkpt>
      <trkpt lat="46.65261" lon="3.84663">
        <ele>360.63</ele>
        <time>2021-08-13T09:05:40Z</time>
      </trkpt>
      <trkpt lat="46.65254" lon="3.84659">
        <ele>361.59</ele>
        <time>2021-08-13T09:05:47Z</time>
      </trkpt>
      <trkpt lat="46.65248" lon="3.84654">
        <ele>362.55</ele>
        <time>2021-08-13T09:05:54Z</time>
      </trkpt>
      <trkpt lat="46.65239" lon="3.84645">
        <ele>364</ele>
        <time>2021-08-13T09:06:02Z</time>
      </trkpt>
      <trkpt lat="46.65234" lon="3.8464">
        <ele>365.44</ele>
        <time>2021-08-13T09:06:06Z</time>
      </trkpt>
      <trkpt lat="46.6523" lon="3.8463">
        <ele>366.4</ele>
        <time>2021-08-13T09:06:12Z</time>
      </trkpt>
      <trkpt lat="46.65229" lon="3.84622">
        <ele>367.36</ele>
        <time>2021-08-13T09:06:16Z</time>
      </trkpt>
      <trkpt lat="46.65228" lon="3.8462">
        <ele>367.36</ele>
        <time>2021-08-13T09:06:17Z</time>
      </trkpt>
      <trkpt lat="46.65228" lon="3.84618">
        <ele>367.36</ele>
        <time>2021-08-13T09:06:18Z</time>
      </trkpt>
      <trkpt lat="46.65227" lon="3.84616">
        <ele>367.36</ele>
        <time>2021-08-13T09:06:19Z</time>
      </trkpt>
      <trkpt lat="46.65226" lon="3.84615">
        <ele>367.84</ele>
        <time>2021-08-13T09:06:20Z</time>
      </trkpt>
      <trkpt lat="46.65222" lon="3.84601">
        <ele>368.8</ele>
        <time>2021-08-13T09:06:27Z</time>
      </trkpt>
      <trkpt lat="46.65219" lon="3.84584">
        <ele>369.76</ele>
        <time>2021-08-13T09:06:35Z</time>
      </trkpt>
      <trkpt lat="46.65219" lon="3.84562">
        <ele>371.69</ele>
        <time>2021-08-13T09:06:44Z</time>
      </trkpt>
      <trkpt lat="46.65219" lon="3.84555">
        <ele>372.17</ele>
        <time>2021-08-13T09:06:47Z</time>
      </trkpt>
      <trkpt lat="46.65218" lon="3.84549">
        <ele>372.65</ele>
        <time>2021-08-13T09:06:49Z</time>
      </trkpt>
      <trkpt lat="46.65218" lon="3.84545">
        <ele>373.13</ele>
        <time>2021-08-13T09:06:51Z</time>
      </trkpt>
      <trkpt lat="46.65218" lon="3.84543">
        <ele>373.13</ele>
        <time>2021-08-13T09:06:52Z</time>
      </trkpt>
      <trkpt lat="46.65217" lon="3.84523">
        <ele>373.61</ele>
        <time>2021-08-13T09:07:01Z</time>
      </trkpt>
      <trkpt lat="46.65218" lon="3.84518">
        <ele>374.09</ele>
        <time>2021-08-13T09:07:03Z</time>
      </trkpt>
      <trkpt lat="46.65218" lon="3.84516">
        <ele>374.09</ele>
        <time>2021-08-13T09:07:04Z</time>
      </trkpt>
      <trkpt lat="46.65218" lon="3.84513">
        <ele>374.09</ele>
        <time>2021-08-13T09:07:05Z</time>
      </trkpt>
      <trkpt lat="46.65218" lon="3.84511">
        <ele>374.09</ele>
        <time>2021-08-13T09:07:06Z</time>
      </trkpt>
      <trkpt lat="46.65218" lon="3.84508">
        <ele>374.09</ele>
        <time>2021-08-13T09:07:07Z</time>
      </trkpt>
      <trkpt lat="46.65221" lon="3.84492">
        <ele>375.05</ele>
        <time>2021-08-13T09:07:14Z</time>
      </trkpt>
      <trkpt lat="46.65222" lon="3.84487">
        <ele>375.05</ele>
        <time>2021-08-13T09:07:16Z</time>
      </trkpt>
      <trkpt lat="46.65224" lon="3.84485">
        <ele>375.05</ele>
        <time>2021-08-13T09:07:17Z</time>
      </trkpt>
      <trkpt lat="46.65224" lon="3.84483">
        <ele>375.53</ele>
        <time>2021-08-13T09:07:18Z</time>
      </trkpt>
      <trkpt lat="46.65225" lon="3.84481">
        <ele>375.53</ele>
        <time>2021-08-13T09:07:19Z</time>
      </trkpt>
      <trkpt lat="46.65225" lon="3.84479">
        <ele>375.53</ele>
        <time>2021-08-13T09:07:20Z</time>
      </trkpt>
      <trkpt lat="46.65226" lon="3.84477">
        <ele>375.53</ele>
        <time>2021-08-13T09:07:21Z</time>
      </trkpt>
      <trkpt lat="46.65226" lon="3.84475">
        <ele>375.53</ele>
        <time>2021-08-13T09:07:22Z</time>
      </trkpt>
      <trkpt lat="46.65225" lon="3.84472">
        <ele>375.53</ele>
        <time>2021-08-13T09:07:23Z</time>
      </trkpt>
      <trkpt lat="46.65225" lon="3.8447">
        <ele>376.01</ele>
        <time>2021-08-13T09:07:24Z</time>
      </trkpt>
      <trkpt lat="46.65225" lon="3.84468">
        <ele>376.01</ele>
        <time>2021-08-13T09:07:25Z</time>
      </trkpt>
      <trkpt lat="46.65227" lon="3.84452">
        <ele>376.49</ele>
        <time>2021-08-13T09:07:32Z</time>
      </trkpt>
      <trkpt lat="46.65227" lon="3.84449">
        <ele>376.97</ele>
        <time>2021-08-13T09:07:33Z</time>
      </trkpt>
      <trkpt lat="46.65226" lon="3.84446">
        <ele>376.97</ele>
        <time>2021-08-13T09:07:34Z</time>
      </trkpt>
      <trkpt lat="46.65226" lon="3.84443">
        <ele>376.97</ele>
        <time>2021-08-13T09:07:35Z</time>
      </trkpt>
      <trkpt lat="46.65226" lon="3.84441">
        <ele>376.97</ele>
        <time>2021-08-13T09:07:36Z</time>
      </trkpt>
      <trkpt lat="46.65225" lon="3.84438">
        <ele>376.97</ele>
        <time>2021-08-13T09:07:37Z</time>
      </trkpt>
      <trkpt lat="46.65225" lon="3.84434">
        <ele>376.97</ele>
        <time>2021-08-13T09:07:38Z</time>
      </trkpt>
      <trkpt lat="46.65224" lon="3.84405">
        <ele>377.94</ele>
        <time>2021-08-13T09:07:47Z</time>
      </trkpt>
      <trkpt lat="46.65223" lon="3.84385">
        <ele>378.9</ele>
        <time>2021-08-13T09:07:54Z</time>
      </trkpt>
      <trkpt lat="46.65222" lon="3.84366">
        <ele>379.86</ele>
        <time>2021-08-13T09:08:00Z</time>
      </trkpt>
      <trkpt lat="46.65222" lon="3.84362">
        <ele>380.82</ele>
        <time>2021-08-13T09:08:01Z</time>
      </trkpt>
      <trkpt lat="46.65221" lon="3.84353">
        <ele>381.3</ele>
        <time>2021-08-13T09:08:04Z</time>
      </trkpt>
      <trkpt lat="46.65222" lon="3.8435">
        <ele>381.3</ele>
        <time>2021-08-13T09:08:05Z</time>
      </trkpt>
      <trkpt lat="46.65222" lon="3.84346">
        <ele>381.78</ele>
        <time>2021-08-13T09:08:06Z</time>
      </trkpt>
      <trkpt lat="46.65222" lon="3.84343">
        <ele>382.26</ele>
        <time>2021-08-13T09:08:07Z</time>
      </trkpt>
      <trkpt lat="46.65222" lon="3.84341">
        <ele>382.26</ele>
        <time>2021-08-13T09:08:08Z</time>
      </trkpt>
      <trkpt lat="46.65222" lon="3.84338">
        <ele>382.74</ele>
        <time>2021-08-13T09:08:09Z</time>
      </trkpt>
      <trkpt lat="46.65222" lon="3.84336">
        <ele>382.74</ele>
        <time>2021-08-13T09:08:10Z</time>
      </trkpt>
      <trkpt lat="46.65221" lon="3.84324">
        <ele>383.7</ele>
        <time>2021-08-13T09:08:15Z</time>
      </trkpt>
      <trkpt lat="46.6522" lon="3.8431">
        <ele>384.66</ele>
        <time>2021-08-13T09:08:21Z</time>
      </trkpt>
      <trkpt lat="46.65216" lon="3.84293">
        <ele>385.63</ele>
        <time>2021-08-13T09:08:28Z</time>
      </trkpt>
      <trkpt lat="46.65215" lon="3.84288">
        <ele>385.63</ele>
        <time>2021-08-13T09:08:30Z</time>
      </trkpt>
      <trkpt lat="46.65215" lon="3.84285">
        <ele>386.11</ele>
        <time>2021-08-13T09:08:31Z</time>
      </trkpt>
      <trkpt lat="46.65215" lon="3.84281">
        <ele>386.11</ele>
        <time>2021-08-13T09:08:32Z</time>
      </trkpt>
      <trkpt lat="46.65215" lon="3.84278">
        <ele>386.11</ele>
        <time>2021-08-13T09:08:33Z</time>
      </trkpt>
      <trkpt lat="46.65214" lon="3.84274">
        <ele>386.59</ele>
        <time>2021-08-13T09:08:34Z</time>
      </trkpt>
      <trkpt lat="46.65214" lon="3.84271">
        <ele>386.59</ele>
        <time>2021-08-13T09:08:35Z</time>
      </trkpt>
      <trkpt lat="46.65214" lon="3.84269">
        <ele>386.59</ele>
        <time>2021-08-13T09:08:36Z</time>
      </trkpt>
      <trkpt lat="46.65213" lon="3.84266">
        <ele>386.59</ele>
        <time>2021-08-13T09:08:37Z</time>
      </trkpt>
      <trkpt lat="46.65212" lon="3.84263">
        <ele>386.59</ele>
        <time>2021-08-13T09:08:38Z</time>
      </trkpt>
      <trkpt lat="46.65211" lon="3.84259">
        <ele>386.59</ele>
        <time>2021-08-13T09:08:39Z</time>
      </trkpt>
      <trkpt lat="46.65211" lon="3.84256">
        <ele>386.59</ele>
        <time>2021-08-13T09:08:40Z</time>
      </trkpt>
      <trkpt lat="46.6521" lon="3.84251">
        <ele>387.07</ele>
        <time>2021-08-13T09:08:42Z</time>
      </trkpt>
      <trkpt lat="46.6521" lon="3.84248">
        <ele>387.07</ele>
        <time>2021-08-13T09:08:43Z</time>
      </trkpt>
      <trkpt lat="46.65207" lon="3.8423">
        <ele>387.55</ele>
        <time>2021-08-13T09:08:49Z</time>
      </trkpt>
      <trkpt lat="46.65205" lon="3.84211">
        <ele>388.51</ele>
        <time>2021-08-13T09:08:57Z</time>
      </trkpt>
      <trkpt lat="46.65202" lon="3.84195">
        <ele>389.95</ele>
        <time>2021-08-13T09:09:05Z</time>
      </trkpt>
      <trkpt lat="46.652" lon="3.8418">
        <ele>390.91</ele>
        <time>2021-08-13T09:09:12Z</time>
      </trkpt>
      <trkpt lat="46.652" lon="3.84165">
        <ele>392.84</ele>
        <time>2021-08-13T09:09:18Z</time>
      </trkpt>
      <trkpt lat="46.65199" lon="3.84151">
        <ele>394.28</ele>
        <time>2021-08-13T09:09:26Z</time>
      </trkpt>
      <trkpt lat="46.65201" lon="3.8413">
        <ele>395.72</ele>
        <time>2021-08-13T09:09:36Z</time>
      </trkpt>
      <trkpt lat="46.652" lon="3.84123">
        <ele>396.2</ele>
        <time>2021-08-13T09:09:39Z</time>
      </trkpt>
      <trkpt lat="46.65198" lon="3.8412">
        <ele>396.2</ele>
        <time>2021-08-13T09:09:42Z</time>
      </trkpt>
      <trkpt lat="46.65196" lon="3.8412">
        <ele>396.68</ele>
        <time>2021-08-13T09:09:43Z</time>
      </trkpt>
      <trkpt lat="46.65195" lon="3.84121">
        <ele>396.68</ele>
        <time>2021-08-13T09:09:44Z</time>
      </trkpt>
      <trkpt lat="46.65194" lon="3.84121">
        <ele>396.68</ele>
        <time>2021-08-13T09:09:45Z</time>
      </trkpt>
      <trkpt lat="46.65186" lon="3.84124">
        <ele>397.64</ele>
        <time>2021-08-13T09:09:53Z</time>
      </trkpt>
      <trkpt lat="46.65179" lon="3.84127">
        <ele>398.12</ele>
        <time>2021-08-13T09:10:00Z</time>
      </trkpt>
      <trkpt lat="46.65167" lon="3.84135">
        <ele>399.57</ele>
        <time>2021-08-13T09:10:08Z</time>
      </trkpt>
      <trkpt lat="46.65157" lon="3.84143">
        <ele>400.05</ele>
        <time>2021-08-13T09:10:15Z</time>
      </trkpt>
      <trkpt lat="46.6515" lon="3.8415">
        <ele>400.53</ele>
        <time>2021-08-13T09:10:21Z</time>
      </trkpt>
      <trkpt lat="46.65141" lon="3.84161">
        <ele>401.97</ele>
        <time>2021-08-13T09:10:27Z</time>
      </trkpt>
      <trkpt lat="46.65133" lon="3.84169">
        <ele>402.93</ele>
        <time>2021-08-13T09:10:32Z</time>
      </trkpt>
      <trkpt lat="46.65116" lon="3.84196">
        <ele>404.85</ele>
        <time>2021-08-13T09:10:42Z</time>
      </trkpt>
      <trkpt lat="46.65108" lon="3.8421">
        <ele>405.81</ele>
        <time>2021-08-13T09:10:49Z</time>
      </trkpt>
      <trkpt lat="46.65099" lon="3.84222">
        <ele>406.77</ele>
        <time>2021-08-13T09:10:55Z</time>
      </trkpt>
      <trkpt lat="46.65097" lon="3.84226">
        <ele>407.26</ele>
        <time>2021-08-13T09:10:57Z</time>
      </trkpt>
      <trkpt lat="46.65096" lon="3.84228">
        <ele>407.26</ele>
        <time>2021-08-13T09:10:58Z</time>
      </trkpt>
      <trkpt lat="46.65086" lon="3.84241">
        <ele>408.7</ele>
        <time>2021-08-13T09:11:05Z</time>
      </trkpt>
      <trkpt lat="46.65078" lon="3.84254">
        <ele>410.14</ele>
        <time>2021-08-13T09:11:12Z</time>
      </trkpt>
      <trkpt lat="46.65072" lon="3.84266">
        <ele>411.1</ele>
        <time>2021-08-13T09:11:18Z</time>
      </trkpt>
      <trkpt lat="46.65064" lon="3.84281">
        <ele>412.06</ele>
        <time>2021-08-13T09:11:25Z</time>
      </trkpt>
      <trkpt lat="46.65058" lon="3.84295">
        <ele>413.5</ele>
        <time>2021-08-13T09:11:31Z</time>
      </trkpt>
      <trkpt lat="46.65048" lon="3.84311">
        <ele>414.47</ele>
        <time>2021-08-13T09:11:38Z</time>
      </trkpt>
      <trkpt lat="46.65039" lon="3.84323">
        <ele>415.43</ele>
        <time>2021-08-13T09:11:45Z</time>
      </trkpt>
      <trkpt lat="46.6503" lon="3.8433">
        <ele>416.39</ele>
        <time>2021-08-13T09:11:51Z</time>
      </trkpt>
      <trkpt lat="46.65021" lon="3.84338">
        <ele>417.83</ele>
        <time>2021-08-13T09:11:57Z</time>
      </trkpt>
      <trkpt lat="46.65011" lon="3.84351">
        <ele>418.79</ele>
        <time>2021-08-13T09:12:04Z</time>
      </trkpt>
      <trkpt lat="46.65005" lon="3.84363">
        <ele>418.79</ele>
        <time>2021-08-13T09:12:10Z</time>
      </trkpt>
      <trkpt lat="46.65003" lon="3.8437">
        <ele>418.79</ele>
        <time>2021-08-13T09:12:15Z</time>
      </trkpt>
      <trkpt lat="46.64996" lon="3.84375">
        <ele>418.79</ele>
        <time>2021-08-13T09:12:22Z</time>
      </trkpt>
      <trkpt lat="46.64995" lon="3.84379">
        <ele>418.79</ele>
        <time>2021-08-13T09:12:34Z</time>
      </trkpt>
      <trkpt lat="46.64987" lon="3.84385">
        <ele>419.27</ele>
        <time>2021-08-13T09:12:48Z</time>
      </trkpt>
      <trkpt lat="46.6498" lon="3.84387">
        <ele>419.27</ele>
        <time>2021-08-13T09:13:05Z</time>
      </trkpt>
      <trkpt lat="46.64978" lon="3.84386">
        <ele>419.27</ele>
        <time>2021-08-13T09:13:19Z</time>
      </trkpt>
      <trkpt lat="46.6498" lon="3.84383">
        <ele>419.75</ele>
        <time>2021-08-13T09:13:30Z</time>
      </trkpt>
      <trkpt lat="46.64978" lon="3.84383">
        <ele>419.75</ele>
        <time>2021-08-13T09:13:50Z</time>
      </trkpt>
      <trkpt lat="46.64977" lon="3.84388">
        <ele>419.75</ele>
        <time>2021-08-13T09:13:53Z</time>
      </trkpt>
      <trkpt lat="46.64971" lon="3.84404">
        <ele>418.31</ele>
        <time>2021-08-13T09:14:00Z</time>
      </trkpt>
      <trkpt lat="46.64965" lon="3.84417">
        <ele>418.79</ele>
        <time>2021-08-13T09:14:06Z</time>
      </trkpt>
      <trkpt lat="46.64954" lon="3.84443">
        <ele>418.31</ele>
        <time>2021-08-13T09:14:13Z</time>
      </trkpt>
      <trkpt lat="46.64954" lon="3.84447">
        <ele>418.31</ele>
        <time>2021-08-13T09:14:14Z</time>
      </trkpt>
      <trkpt lat="46.64952" lon="3.84451">
        <ele>418.31</ele>
        <time>2021-08-13T09:14:15Z</time>
      </trkpt>
      <trkpt lat="46.64945" lon="3.84474">
        <ele>418.31</ele>
        <time>2021-08-13T09:14:21Z</time>
      </trkpt>
      <trkpt lat="46.64936" lon="3.84499">
        <ele>418.31</ele>
        <time>2021-08-13T09:14:27Z</time>
      </trkpt>
      <trkpt lat="46.64928" lon="3.84525">
        <ele>420.23</ele>
        <time>2021-08-13T09:14:34Z</time>
      </trkpt>
      <trkpt lat="46.64916" lon="3.84551">
        <ele>420.71</ele>
        <time>2021-08-13T09:14:41Z</time>
      </trkpt>
      <trkpt lat="46.64905" lon="3.84572">
        <ele>420.71</ele>
        <time>2021-08-13T09:14:48Z</time>
      </trkpt>
      <trkpt lat="46.64896" lon="3.84591">
        <ele>420.71</ele>
        <time>2021-08-13T09:14:54Z</time>
      </trkpt>
      <trkpt lat="46.64887" lon="3.84606">
        <ele>418.31</ele>
        <time>2021-08-13T09:14:59Z</time>
      </trkpt>
      <trkpt lat="46.6487" lon="3.84619">
        <ele>417.83</ele>
        <time>2021-08-13T09:15:05Z</time>
      </trkpt>
      <trkpt lat="46.64849" lon="3.84628">
        <ele>417.35</ele>
        <time>2021-08-13T09:15:11Z</time>
      </trkpt>
      <trkpt lat="46.64826" lon="3.84633">
        <ele>417.83</ele>
        <time>2021-08-13T09:15:17Z</time>
      </trkpt>
      <trkpt lat="46.648" lon="3.84639">
        <ele>416.39</ele>
        <time>2021-08-13T09:15:24Z</time>
      </trkpt>
      <trkpt lat="46.64798" lon="3.8464">
        <ele>416.39</ele>
        <time>2021-08-13T09:15:25Z</time>
      </trkpt>
      <trkpt lat="46.64782" lon="3.8465">
        <ele>413.5</ele>
        <time>2021-08-13T09:15:30Z</time>
      </trkpt>
      <trkpt lat="46.64768" lon="3.84663">
        <ele>411.1</ele>
        <time>2021-08-13T09:15:34Z</time>
      </trkpt>
      <trkpt lat="46.64743" lon="3.84684">
        <ele>407.74</ele>
        <time>2021-08-13T09:15:39Z</time>
      </trkpt>
      <trkpt lat="46.64719" lon="3.84708">
        <ele>407.26</ele>
        <time>2021-08-13T09:15:43Z</time>
      </trkpt>
      <trkpt lat="46.64714" lon="3.84713">
        <ele>406.77</ele>
        <time>2021-08-13T09:15:44Z</time>
      </trkpt>
      <trkpt lat="46.64709" lon="3.84719">
        <ele>406.77</ele>
        <time>2021-08-13T09:15:45Z</time>
      </trkpt>
      <trkpt lat="46.64677" lon="3.84752">
        <ele>405.33</ele>
        <time>2021-08-13T09:15:51Z</time>
      </trkpt>
      <trkpt lat="46.64661" lon="3.84766">
        <ele>405.33</ele>
        <time>2021-08-13T09:15:54Z</time>
      </trkpt>
      <trkpt lat="46.6465" lon="3.84779">
        <ele>405.33</ele>
        <time>2021-08-13T09:15:57Z</time>
      </trkpt>
      <trkpt lat="46.64646" lon="3.84784">
        <ele>405.33</ele>
        <time>2021-08-13T09:15:58Z</time>
      </trkpt>
      <trkpt lat="46.64623" lon="3.84813">
        <ele>405.33</ele>
        <time>2021-08-13T09:16:05Z</time>
      </trkpt>
      <trkpt lat="46.64601" lon="3.84848">
        <ele>405.33</ele>
        <time>2021-08-13T09:16:14Z</time>
      </trkpt>
      <trkpt lat="46.6459" lon="3.84876">
        <ele>407.26</ele>
        <time>2021-08-13T09:16:22Z</time>
      </trkpt>
      <trkpt lat="46.64582" lon="3.84899">
        <ele>407.74</ele>
        <time>2021-08-13T09:16:30Z</time>
      </trkpt>
      <trkpt lat="46.64574" lon="3.84922">
        <ele>406.29</ele>
        <time>2021-08-13T09:16:36Z</time>
      </trkpt>
      <trkpt lat="46.64563" lon="3.84952">
        <ele>404.85</ele>
        <time>2021-08-13T09:16:41Z</time>
      </trkpt>
      <trkpt lat="46.64561" lon="3.84956">
        <ele>404.85</ele>
        <time>2021-08-13T09:16:42Z</time>
      </trkpt>
      <trkpt lat="46.64558" lon="3.84957">
        <ele>404.85</ele>
        <time>2021-08-13T09:16:43Z</time>
      </trkpt>
      <trkpt lat="46.64556" lon="3.84958">
        <ele>404.85</ele>
        <time>2021-08-13T09:16:44Z</time>
      </trkpt>
      <trkpt lat="46.64552" lon="3.84958">
        <ele>404.85</ele>
        <time>2021-08-13T09:16:47Z</time>
      </trkpt>
      <trkpt lat="46.6455" lon="3.84956">
        <ele>406.29</ele>
        <time>2021-08-13T09:16:50Z</time>
      </trkpt>
      <trkpt lat="46.64549" lon="3.84953">
        <ele>406.77</ele>
        <time>2021-08-13T09:16:57Z</time>
      </trkpt>
      <trkpt lat="46.64549" lon="3.84947">
        <ele>407.74</ele>
        <time>2021-08-13T09:17:04Z</time>
      </trkpt>
      <trkpt lat="46.64548" lon="3.84942">
        <ele>409.18</ele>
        <time>2021-08-13T09:17:11Z</time>
      </trkpt>
      <trkpt lat="46.64546" lon="3.84935">
        <ele>410.62</ele>
        <time>2021-08-13T09:17:19Z</time>
      </trkpt>
      <trkpt lat="46.64543" lon="3.84927">
        <ele>412.06</ele>
        <time>2021-08-13T09:17:27Z</time>
      </trkpt>
      <trkpt lat="46.64541" lon="3.84921">
        <ele>413.02</ele>
        <time>2021-08-13T09:17:34Z</time>
      </trkpt>
      <trkpt lat="46.64539" lon="3.84913">
        <ele>413.98</ele>
        <time>2021-08-13T09:17:42Z</time>
      </trkpt>
      <trkpt lat="46.64538" lon="3.84912">
        <ele>413.98</ele>
        <time>2021-08-13T09:17:43Z</time>
      </trkpt>
      <trkpt lat="46.64537" lon="3.84912">
        <ele>414.47</ele>
        <time>2021-08-13T09:17:44Z</time>
      </trkpt>
      <trkpt lat="46.64533" lon="3.84905">
        <ele>414.95</ele>
        <time>2021-08-13T09:17:50Z</time>
      </trkpt>
      <trkpt lat="46.64528" lon="3.84899">
        <ele>415.91</ele>
        <time>2021-08-13T09:17:58Z</time>
      </trkpt>
      <trkpt lat="46.64523" lon="3.84896">
        <ele>416.87</ele>
        <time>2021-08-13T09:18:04Z</time>
      </trkpt>
      <trkpt lat="46.64519" lon="3.84896">
        <ele>416.87</ele>
        <time>2021-08-13T09:18:12Z</time>
      </trkpt>
      <trkpt lat="46.64512" lon="3.84895">
        <ele>417.83</ele>
        <time>2021-08-13T09:18:21Z</time>
      </trkpt>
      <trkpt lat="46.64507" lon="3.84892">
        <ele>418.79</ele>
        <time>2021-08-13T09:18:27Z</time>
      </trkpt>
      <trkpt lat="46.645" lon="3.8489">
        <ele>419.75</ele>
        <time>2021-08-13T09:18:33Z</time>
      </trkpt>
      <trkpt lat="46.6449" lon="3.84888">
        <ele>420.71</ele>
        <time>2021-08-13T09:18:41Z</time>
      </trkpt>
      <trkpt lat="46.64481" lon="3.84889">
        <ele>422.64</ele>
        <time>2021-08-13T09:18:49Z</time>
      </trkpt>
      <trkpt lat="46.64478" lon="3.84889">
        <ele>422.64</ele>
        <time>2021-08-13T09:18:51Z</time>
      </trkpt>
      <trkpt lat="46.64473" lon="3.8489">
        <ele>423.6</ele>
        <time>2021-08-13T09:18:57Z</time>
      </trkpt>
      <trkpt lat="46.64468" lon="3.84889">
        <ele>425.52</ele>
        <time>2021-08-13T09:19:05Z</time>
      </trkpt>
      <trkpt lat="46.64466" lon="3.84887">
        <ele>426</ele>
        <time>2021-08-13T09:19:11Z</time>
      </trkpt>
      <trkpt lat="46.64462" lon="3.84886">
        <ele>427.44</ele>
        <time>2021-08-13T09:19:18Z</time>
      </trkpt>
      <trkpt lat="46.64456" lon="3.84885">
        <ele>428.4</ele>
        <time>2021-08-13T09:19:24Z</time>
      </trkpt>
      <trkpt lat="46.64448" lon="3.84884">
        <ele>429.37</ele>
        <time>2021-08-13T09:19:32Z</time>
      </trkpt>
      <trkpt lat="46.64443" lon="3.84882">
        <ele>430.81</ele>
        <time>2021-08-13T09:19:40Z</time>
      </trkpt>
      <trkpt lat="46.64436" lon="3.84878">
        <ele>431.77</ele>
        <time>2021-08-13T09:19:48Z</time>
      </trkpt>
      <trkpt lat="46.6443" lon="3.84877">
        <ele>432.73</ele>
        <time>2021-08-13T09:19:56Z</time>
      </trkpt>
      <trkpt lat="46.64424" lon="3.84878">
        <ele>434.17</ele>
        <time>2021-08-13T09:20:04Z</time>
      </trkpt>
      <trkpt lat="46.64418" lon="3.84878">
        <ele>435.61</ele>
        <time>2021-08-13T09:20:13Z</time>
      </trkpt>
      <trkpt lat="46.64411" lon="3.8488">
        <ele>436.58</ele>
        <time>2021-08-13T09:20:20Z</time>
      </trkpt>
      <trkpt lat="46.64407" lon="3.84879">
        <ele>437.06</ele>
        <time>2021-08-13T09:20:25Z</time>
      </trkpt>
      <trkpt lat="46.64401" lon="3.84876">
        <ele>438.5</ele>
        <time>2021-08-13T09:20:33Z</time>
      </trkpt>
      <trkpt lat="46.64394" lon="3.84877">
        <ele>439.94</ele>
        <time>2021-08-13T09:20:43Z</time>
      </trkpt>
      <trkpt lat="46.6439" lon="3.84876">
        <ele>441.38</ele>
        <time>2021-08-13T09:20:49Z</time>
      </trkpt>
      <trkpt lat="46.64386" lon="3.84876">
        <ele>442.34</ele>
        <time>2021-08-13T09:20:58Z</time>
      </trkpt>
      <trkpt lat="46.64381" lon="3.84876">
        <ele>443.31</ele>
        <time>2021-08-13T09:21:06Z</time>
      </trkpt>
      <trkpt lat="46.64377" lon="3.8487">
        <ele>445.23</ele>
        <time>2021-08-13T09:21:13Z</time>
      </trkpt>
      <trkpt lat="46.64372" lon="3.84865">
        <ele>445.71</ele>
        <time>2021-08-13T09:21:20Z</time>
      </trkpt>
      <trkpt lat="46.64367" lon="3.84857">
        <ele>447.15</ele>
        <time>2021-08-13T09:21:28Z</time>
      </trkpt>
      <trkpt lat="46.64359" lon="3.84851">
        <ele>447.15</ele>
        <time>2021-08-13T09:21:34Z</time>
      </trkpt>
      <trkpt lat="46.64354" lon="3.84844">
        <ele>448.59</ele>
        <time>2021-08-13T09:21:41Z</time>
      </trkpt>
      <trkpt lat="46.6435" lon="3.84835">
        <ele>449.07</ele>
        <time>2021-08-13T09:21:47Z</time>
      </trkpt>
      <trkpt lat="46.6434" lon="3.84819">
        <ele>450.52</ele>
        <time>2021-08-13T09:21:55Z</time>
      </trkpt>
      <trkpt lat="46.64339" lon="3.84817">
        <ele>451</ele>
        <time>2021-08-13T09:21:56Z</time>
      </trkpt>
      <trkpt lat="46.64338" lon="3.84812">
        <ele>451.48</ele>
        <time>2021-08-13T09:21:59Z</time>
      </trkpt>
      <trkpt lat="46.64337" lon="3.8481">
        <ele>451.48</ele>
        <time>2021-08-13T09:22:00Z</time>
      </trkpt>
      <trkpt lat="46.64336" lon="3.84807">
        <ele>451.48</ele>
        <time>2021-08-13T09:22:01Z</time>
      </trkpt>
      <trkpt lat="46.64336" lon="3.84805">
        <ele>451.48</ele>
        <time>2021-08-13T09:22:02Z</time>
      </trkpt>
      <trkpt lat="46.64336" lon="3.84803">
        <ele>451.48</ele>
        <time>2021-08-13T09:22:03Z</time>
      </trkpt>
      <trkpt lat="46.64335" lon="3.848">
        <ele>451.96</ele>
        <time>2021-08-13T09:22:04Z</time>
      </trkpt>
      <trkpt lat="46.64334" lon="3.84786">
        <ele>452.44</ele>
        <time>2021-08-13T09:22:11Z</time>
      </trkpt>
      <trkpt lat="46.64334" lon="3.84784">
        <ele>452.92</ele>
        <time>2021-08-13T09:22:12Z</time>
      </trkpt>
      <trkpt lat="46.64334" lon="3.84781">
        <ele>452.92</ele>
        <time>2021-08-13T09:22:13Z</time>
      </trkpt>
      <trkpt lat="46.64332" lon="3.84766">
        <ele>453.4</ele>
        <time>2021-08-13T09:22:19Z</time>
      </trkpt>
      <trkpt lat="46.64329" lon="3.84736">
        <ele>453.4</ele>
        <time>2021-08-13T09:22:27Z</time>
      </trkpt>
      <trkpt lat="46.64327" lon="3.84712">
        <ele>453.88</ele>
        <time>2021-08-13T09:22:35Z</time>
      </trkpt>
      <trkpt lat="46.64325" lon="3.84693">
        <ele>452.92</ele>
        <time>2021-08-13T09:22:42Z</time>
      </trkpt>
      <trkpt lat="46.64324" lon="3.84691">
        <ele>452.92</ele>
        <time>2021-08-13T09:22:43Z</time>
      </trkpt>
      <trkpt lat="46.64322" lon="3.84683">
        <ele>451.96</ele>
        <time>2021-08-13T09:22:46Z</time>
      </trkpt>
      <trkpt lat="46.64322" lon="3.84681">
        <ele>451.96</ele>
        <time>2021-08-13T09:22:47Z</time>
      </trkpt>
      <trkpt lat="46.64322" lon="3.84678">
        <ele>451.96</ele>
        <time>2021-08-13T09:22:48Z</time>
      </trkpt>
      <trkpt lat="46.64321" lon="3.84676">
        <ele>451.48</ele>
        <time>2021-08-13T09:22:49Z</time>
      </trkpt>
      <trkpt lat="46.64321" lon="3.84674">
        <ele>451.48</ele>
        <time>2021-08-13T09:22:50Z</time>
      </trkpt>
      <trkpt lat="46.64321" lon="3.84671">
        <ele>451.48</ele>
        <time>2021-08-13T09:22:51Z</time>
      </trkpt>
      <trkpt lat="46.64321" lon="3.84669">
        <ele>451</ele>
        <time>2021-08-13T09:22:52Z</time>
      </trkpt>
      <trkpt lat="46.64321" lon="3.84666">
        <ele>451</ele>
        <time>2021-08-13T09:22:53Z</time>
      </trkpt>
      <trkpt lat="46.64317" lon="3.84648">
        <ele>449.55</ele>
        <time>2021-08-13T09:22:59Z</time>
      </trkpt>
      <trkpt lat="46.64313" lon="3.84623">
        <ele>447.63</ele>
        <time>2021-08-13T09:23:05Z</time>
      </trkpt>
      <trkpt lat="46.64311" lon="3.84609">
        <ele>446.67</ele>
        <time>2021-08-13T09:23:08Z</time>
      </trkpt>
      <trkpt lat="46.64309" lon="3.84581">
        <ele>443.79</ele>
        <time>2021-08-13T09:23:13Z</time>
      </trkpt>
      <trkpt lat="46.64309" lon="3.84568">
        <ele>442.34</ele>
        <time>2021-08-13T09:23:15Z</time>
      </trkpt>
      <trkpt lat="46.64309" lon="3.84541">
        <ele>438.98</ele>
        <time>2021-08-13T09:23:19Z</time>
      </trkpt>
      <trkpt lat="46.6431" lon="3.8451">
        <ele>436.1</ele>
        <time>2021-08-13T09:23:24Z</time>
      </trkpt>
      <trkpt lat="46.64311" lon="3.84472">
        <ele>434.17</ele>
        <time>2021-08-13T09:23:29Z</time>
      </trkpt>
      <trkpt lat="46.64309" lon="3.84463">
        <ele>433.69</ele>
        <time>2021-08-13T09:23:30Z</time>
      </trkpt>
      <trkpt lat="46.64301" lon="3.84431">
        <ele>435.13</ele>
        <time>2021-08-13T09:23:35Z</time>
      </trkpt>
      <trkpt lat="46.64287" lon="3.84391">
        <ele>434.65</ele>
        <time>2021-08-13T09:23:42Z</time>
      </trkpt>
      <trkpt lat="46.64275" lon="3.84354">
        <ele>432.73</ele>
        <time>2021-08-13T09:23:49Z</time>
      </trkpt>
      <trkpt lat="46.64259" lon="3.84322">
        <ele>430.33</ele>
        <time>2021-08-13T09:23:55Z</time>
      </trkpt>
      <trkpt lat="46.64249" lon="3.84292">
        <ele>426.96</ele>
        <time>2021-08-13T09:24:01Z</time>
      </trkpt>
      <trkpt lat="46.64239" lon="3.84265">
        <ele>424.08</ele>
        <time>2021-08-13T09:24:07Z</time>
      </trkpt>
      <trkpt lat="46.64237" lon="3.8426">
        <ele>423.12</ele>
        <time>2021-08-13T09:24:08Z</time>
      </trkpt>
      <trkpt lat="46.64234" lon="3.84253">
        <ele>423.12</ele>
        <time>2021-08-13T09:24:09Z</time>
      </trkpt>
      <trkpt lat="46.6423" lon="3.84246">
        <ele>422.16</ele>
        <time>2021-08-13T09:24:10Z</time>
      </trkpt>
      <trkpt lat="46.64222" lon="3.84233">
        <ele>422.16</ele>
        <time>2021-08-13T09:24:12Z</time>
      </trkpt>
      <trkpt lat="46.64217" lon="3.84227">
        <ele>421.68</ele>
        <time>2021-08-13T09:24:13Z</time>
      </trkpt>
      <trkpt lat="46.64211" lon="3.84221">
        <ele>421.68</ele>
        <time>2021-08-13T09:24:14Z</time>
      </trkpt>
      <trkpt lat="46.64206" lon="3.84217">
        <ele>421.68</ele>
        <time>2021-08-13T09:24:15Z</time>
      </trkpt>
      <trkpt lat="46.64201" lon="3.84213">
        <ele>421.19</ele>
        <time>2021-08-13T09:24:16Z</time>
      </trkpt>
      <trkpt lat="46.64182" lon="3.84194">
        <ele>421.68</ele>
        <time>2021-08-13T09:24:22Z</time>
      </trkpt>
      <trkpt lat="46.64175" lon="3.84186">
        <ele>422.64</ele>
        <time>2021-08-13T09:24:25Z</time>
      </trkpt>
      <trkpt lat="46.64163" lon="3.84169">
        <ele>424.08</ele>
        <time>2021-08-13T09:24:31Z</time>
      </trkpt>
      <trkpt lat="46.64148" lon="3.84144">
        <ele>424.08</ele>
        <time>2021-08-13T09:24:38Z</time>
      </trkpt>
      <trkpt lat="46.64131" lon="3.84116">
        <ele>424.08</ele>
        <time>2021-08-13T09:24:45Z</time>
      </trkpt>
      <trkpt lat="46.64119" lon="3.84094">
        <ele>424.08</ele>
        <time>2021-08-13T09:24:51Z</time>
      </trkpt>
      <trkpt lat="46.64112" lon="3.84077">
        <ele>424.08</ele>
        <time>2021-08-13T09:24:56Z</time>
      </trkpt>
      <trkpt lat="46.64097" lon="3.84052">
        <ele>424.08</ele>
        <time>2021-08-13T09:25:03Z</time>
      </trkpt>
      <trkpt lat="46.64082" lon="3.84036">
        <ele>423.12</ele>
        <time>2021-08-13T09:25:09Z</time>
      </trkpt>
      <trkpt lat="46.64069" lon="3.84018">
        <ele>422.64</ele>
        <time>2021-08-13T09:25:15Z</time>
      </trkpt>
      <trkpt lat="46.64065" lon="3.84011">
        <ele>422.64</ele>
        <time>2021-08-13T09:25:17Z</time>
      </trkpt>
      <trkpt lat="46.64064" lon="3.84003">
        <ele>422.64</ele>
        <time>2021-08-13T09:25:19Z</time>
      </trkpt>
      <trkpt lat="46.6405" lon="3.83981">
        <ele>422.64</ele>
        <time>2021-08-13T09:25:27Z</time>
      </trkpt>
      <trkpt lat="46.64042" lon="3.83966">
        <ele>422.64</ele>
        <time>2021-08-13T09:25:32Z</time>
      </trkpt>
      <trkpt lat="46.6403" lon="3.83945">
        <ele>422.64</ele>
        <time>2021-08-13T09:25:38Z</time>
      </trkpt>
      <trkpt lat="46.64028" lon="3.83942">
        <ele>422.16</ele>
        <time>2021-08-13T09:25:39Z</time>
      </trkpt>
      <trkpt lat="46.64016" lon="3.83921">
        <ele>421.68</ele>
        <time>2021-08-13T09:25:45Z</time>
      </trkpt>
      <trkpt lat="46.64" lon="3.83892">
        <ele>420.71</ele>
        <time>2021-08-13T09:25:52Z</time>
      </trkpt>
      <trkpt lat="46.63983" lon="3.83854">
        <ele>418.79</ele>
        <time>2021-08-13T09:25:59Z</time>
      </trkpt>
      <trkpt lat="46.63969" lon="3.83816">
        <ele>418.79</ele>
        <time>2021-08-13T09:26:06Z</time>
      </trkpt>
      <trkpt lat="46.63956" lon="3.83789">
        <ele>418.79</ele>
        <time>2021-08-13T09:26:12Z</time>
      </trkpt>
      <trkpt lat="46.6395" lon="3.83758">
        <ele>418.31</ele>
        <time>2021-08-13T09:26:18Z</time>
      </trkpt>
      <trkpt lat="46.63939" lon="3.83709">
        <ele>417.83</ele>
        <time>2021-08-13T09:26:26Z</time>
      </trkpt>
      <trkpt lat="46.63932" lon="3.83687">
        <ele>416.87</ele>
        <time>2021-08-13T09:26:29Z</time>
      </trkpt>
      <trkpt lat="46.63928" lon="3.83679">
        <ele>416.39</ele>
        <time>2021-08-13T09:26:30Z</time>
      </trkpt>
      <trkpt lat="46.63925" lon="3.83671">
        <ele>416.39</ele>
        <time>2021-08-13T09:26:31Z</time>
      </trkpt>
      <trkpt lat="46.63909" lon="3.83596">
        <ele>413.98</ele>
        <time>2021-08-13T09:26:40Z</time>
      </trkpt>
      <trkpt lat="46.6391" lon="3.83579">
        <ele>413.02</ele>
        <time>2021-08-13T09:26:42Z</time>
      </trkpt>
      <trkpt lat="46.63911" lon="3.8357">
        <ele>412.54</ele>
        <time>2021-08-13T09:26:43Z</time>
      </trkpt>
      <trkpt lat="46.63913" lon="3.83562">
        <ele>412.54</ele>
        <time>2021-08-13T09:26:44Z</time>
      </trkpt>
      <trkpt lat="46.63916" lon="3.83554">
        <ele>412.06</ele>
        <time>2021-08-13T09:26:45Z</time>
      </trkpt>
      <trkpt lat="46.63919" lon="3.83546">
        <ele>412.06</ele>
        <time>2021-08-13T09:26:46Z</time>
      </trkpt>
      <trkpt lat="46.63922" lon="3.83539">
        <ele>412.06</ele>
        <time>2021-08-13T09:26:47Z</time>
      </trkpt>
      <trkpt lat="46.63953" lon="3.83493">
        <ele>411.58</ele>
        <time>2021-08-13T09:26:55Z</time>
      </trkpt>
      <trkpt lat="46.63955" lon="3.83489">
        <ele>411.58</ele>
        <time>2021-08-13T09:26:56Z</time>
      </trkpt>
      <trkpt lat="46.63957" lon="3.83484">
        <ele>411.58</ele>
        <time>2021-08-13T09:26:57Z</time>
      </trkpt>
      <trkpt lat="46.63957" lon="3.83478">
        <ele>411.58</ele>
        <time>2021-08-13T09:26:58Z</time>
      </trkpt>
      <trkpt lat="46.63955" lon="3.83472">
        <ele>410.14</ele>
        <time>2021-08-13T09:26:59Z</time>
      </trkpt>
      <trkpt lat="46.63954" lon="3.83468">
        <ele>410.14</ele>
        <time>2021-08-13T09:27:00Z</time>
      </trkpt>
      <trkpt lat="46.63951" lon="3.83461">
        <ele>410.14</ele>
        <time>2021-08-13T09:27:01Z</time>
      </trkpt>
      <trkpt lat="46.63942" lon="3.8344">
        <ele>407.26</ele>
        <time>2021-08-13T09:27:04Z</time>
      </trkpt>
      <trkpt lat="46.63928" lon="3.8341">
        <ele>403.41</ele>
        <time>2021-08-13T09:27:08Z</time>
      </trkpt>
      <trkpt lat="46.63917" lon="3.83385">
        <ele>400.53</ele>
        <time>2021-08-13T09:27:11Z</time>
      </trkpt>
      <trkpt lat="46.63915" lon="3.83375">
        <ele>399.57</ele>
        <time>2021-08-13T09:27:12Z</time>
      </trkpt>
      <trkpt lat="46.63913" lon="3.83365">
        <ele>398.6</ele>
        <time>2021-08-13T09:27:13Z</time>
      </trkpt>
      <trkpt lat="46.63906" lon="3.83323">
        <ele>395.24</ele>
        <time>2021-08-13T09:27:17Z</time>
      </trkpt>
      <trkpt lat="46.63902" lon="3.83291">
        <ele>392.36</ele>
        <time>2021-08-13T09:27:20Z</time>
      </trkpt>
      <trkpt lat="46.63902" lon="3.83281">
        <ele>391.87</ele>
        <time>2021-08-13T09:27:21Z</time>
      </trkpt>
      <trkpt lat="46.63901" lon="3.83243">
        <ele>388.99</ele>
        <time>2021-08-13T09:27:24Z</time>
      </trkpt>
      <trkpt lat="46.639" lon="3.83231">
        <ele>387.55</ele>
        <time>2021-08-13T09:27:25Z</time>
      </trkpt>
      <trkpt lat="46.63897" lon="3.83218">
        <ele>386.59</ele>
        <time>2021-08-13T09:27:26Z</time>
      </trkpt>
      <trkpt lat="46.63891" lon="3.83189">
        <ele>383.7</ele>
        <time>2021-08-13T09:27:28Z</time>
      </trkpt>
      <trkpt lat="46.63888" lon="3.83144">
        <ele>380.34</ele>
        <time>2021-08-13T09:27:31Z</time>
      </trkpt>
      <trkpt lat="46.63887" lon="3.83131">
        <ele>380.34</ele>
        <time>2021-08-13T09:27:32Z</time>
      </trkpt>
      <trkpt lat="46.63885" lon="3.83107">
        <ele>379.38</ele>
        <time>2021-08-13T09:27:35Z</time>
      </trkpt>
      <trkpt lat="46.63887" lon="3.8308">
        <ele>378.42</ele>
        <time>2021-08-13T09:27:41Z</time>
      </trkpt>
      <trkpt lat="46.63889" lon="3.83067">
        <ele>377.94</ele>
        <time>2021-08-13T09:27:43Z</time>
      </trkpt>
      <trkpt lat="46.63889" lon="3.83059">
        <ele>377.94</ele>
        <time>2021-08-13T09:27:44Z</time>
      </trkpt>
      <trkpt lat="46.6389" lon="3.83041">
        <ele>377.45</ele>
        <time>2021-08-13T09:27:46Z</time>
      </trkpt>
      <trkpt lat="46.6389" lon="3.83032">
        <ele>376.49</ele>
        <time>2021-08-13T09:27:47Z</time>
      </trkpt>
      <trkpt lat="46.63878" lon="3.82971">
        <ele>373.61</ele>
        <time>2021-08-13T09:27:53Z</time>
      </trkpt>
      <trkpt lat="46.63874" lon="3.82961">
        <ele>373.61</ele>
        <time>2021-08-13T09:27:54Z</time>
      </trkpt>
      <trkpt lat="46.63843" lon="3.8289">
        <ele>370.24</ele>
        <time>2021-08-13T09:28:01Z</time>
      </trkpt>
      <trkpt lat="46.63817" lon="3.82824">
        <ele>367.36</ele>
        <time>2021-08-13T09:28:07Z</time>
      </trkpt>
      <trkpt lat="46.63804" lon="3.82747">
        <ele>364</ele>
        <time>2021-08-13T09:28:13Z</time>
      </trkpt>
      <trkpt lat="46.63803" lon="3.82733">
        <ele>364</ele>
        <time>2021-08-13T09:28:14Z</time>
      </trkpt>
      <trkpt lat="46.63794" lon="3.82667">
        <ele>361.59</ele>
        <time>2021-08-13T09:28:19Z</time>
      </trkpt>
      <trkpt lat="46.63782" lon="3.82582">
        <ele>358.23</ele>
        <time>2021-08-13T09:28:25Z</time>
      </trkpt>
      <trkpt lat="46.6377" lon="3.82458">
        <ele>355.34</ele>
        <time>2021-08-13T09:28:34Z</time>
      </trkpt>
      <trkpt lat="46.63762" lon="3.82347">
        <ele>354.38</ele>
        <time>2021-08-13T09:28:43Z</time>
      </trkpt>
      <trkpt lat="46.63755" lon="3.82253">
        <ele>353.42</ele>
        <time>2021-08-13T09:28:52Z</time>
      </trkpt>
      <trkpt lat="46.63746" lon="3.82162">
        <ele>353.42</ele>
        <time>2021-08-13T09:29:02Z</time>
      </trkpt>
      <trkpt lat="46.63732" lon="3.82088">
        <ele>353.42</ele>
        <time>2021-08-13T09:29:11Z</time>
      </trkpt>
      <trkpt lat="46.63709" lon="3.82005">
        <ele>353.42</ele>
        <time>2021-08-13T09:29:22Z</time>
      </trkpt>
      <trkpt lat="46.63698" lon="3.81936">
        <ele>353.42</ele>
        <time>2021-08-13T09:29:31Z</time>
      </trkpt>
      <trkpt lat="46.63694" lon="3.819">
        <ele>351.98</ele>
        <time>2021-08-13T09:29:35Z</time>
      </trkpt>
      <trkpt lat="46.6368" lon="3.81827">
        <ele>349.1</ele>
        <time>2021-08-13T09:29:42Z</time>
      </trkpt>
      <trkpt lat="46.6366" lon="3.81743">
        <ele>345.73</ele>
        <time>2021-08-13T09:29:49Z</time>
      </trkpt>
      <trkpt lat="46.63639" lon="3.81652">
        <ele>342.37</ele>
        <time>2021-08-13T09:29:56Z</time>
      </trkpt>
      <trkpt lat="46.63629" lon="3.8161">
        <ele>340.92</ele>
        <time>2021-08-13T09:29:59Z</time>
      </trkpt>
      <trkpt lat="46.6361" lon="3.8151">
        <ele>338.04</ele>
        <time>2021-08-13T09:30:06Z</time>
      </trkpt>
      <trkpt lat="46.63594" lon="3.81393">
        <ele>335.64</ele>
        <time>2021-08-13T09:30:14Z</time>
      </trkpt>
      <trkpt lat="46.63584" lon="3.81315">
        <ele>334.68</ele>
        <time>2021-08-13T09:30:20Z</time>
      </trkpt>
      <trkpt lat="46.63581" lon="3.81291">
        <ele>334.2</ele>
        <time>2021-08-13T09:30:22Z</time>
      </trkpt>
      <trkpt lat="46.6358" lon="3.8127">
        <ele>334.2</ele>
        <time>2021-08-13T09:30:24Z</time>
      </trkpt>
      <trkpt lat="46.63564" lon="3.81157">
        <ele>333.71</ele>
        <time>2021-08-13T09:30:34Z</time>
      </trkpt>
      <trkpt lat="46.6355" lon="3.81047">
        <ele>332.75</ele>
        <time>2021-08-13T09:30:44Z</time>
      </trkpt>
      <trkpt lat="46.63541" lon="3.80952">
        <ele>332.75</ele>
        <time>2021-08-13T09:30:53Z</time>
      </trkpt>
      <trkpt lat="46.63536" lon="3.80854">
        <ele>332.75</ele>
        <time>2021-08-13T09:31:03Z</time>
      </trkpt>
      <trkpt lat="46.63532" lon="3.80768">
        <ele>332.75</ele>
        <time>2021-08-13T09:31:13Z</time>
      </trkpt>
      <trkpt lat="46.63529" lon="3.80696">
        <ele>333.71</ele>
        <time>2021-08-13T09:31:22Z</time>
      </trkpt>
      <trkpt lat="46.63525" lon="3.80628">
        <ele>334.2</ele>
        <time>2021-08-13T09:31:31Z</time>
      </trkpt>
      <trkpt lat="46.63519" lon="3.80561">
        <ele>335.16</ele>
        <time>2021-08-13T09:31:41Z</time>
      </trkpt>
      <trkpt lat="46.63517" lon="3.80548">
        <ele>335.16</ele>
        <time>2021-08-13T09:31:43Z</time>
      </trkpt>
      <trkpt lat="46.63498" lon="3.80492">
        <ele>335.16</ele>
        <time>2021-08-13T09:31:52Z</time>
      </trkpt>
      <trkpt lat="46.63472" lon="3.80423">
        <ele>332.27</ele>
        <time>2021-08-13T09:32:01Z</time>
      </trkpt>
      <trkpt lat="46.63446" lon="3.80349">
        <ele>329.39</ele>
        <time>2021-08-13T09:32:09Z</time>
      </trkpt>
      <trkpt lat="46.63413" lon="3.80259">
        <ele>326.99</ele>
        <time>2021-08-13T09:32:18Z</time>
      </trkpt>
      <trkpt lat="46.63378" lon="3.80181">
        <ele>323.62</ele>
        <time>2021-08-13T09:32:26Z</time>
      </trkpt>
      <trkpt lat="46.63368" lon="3.80161">
        <ele>322.66</ele>
        <time>2021-08-13T09:32:28Z</time>
      </trkpt>
      <trkpt lat="46.63341" lon="3.80104">
        <ele>319.3</ele>
        <time>2021-08-13T09:32:33Z</time>
      </trkpt>
      <trkpt lat="46.63324" lon="3.80067">
        <ele>317.85</ele>
        <time>2021-08-13T09:32:36Z</time>
      </trkpt>
      <trkpt lat="46.63293" lon="3.80002">
        <ele>313.53</ele>
        <time>2021-08-13T09:32:41Z</time>
      </trkpt>
      <trkpt lat="46.63273" lon="3.79965">
        <ele>312.09</ele>
        <time>2021-08-13T09:32:44Z</time>
      </trkpt>
      <trkpt lat="46.63238" lon="3.79901">
        <ele>308.72</ele>
        <time>2021-08-13T09:32:49Z</time>
      </trkpt>
      <trkpt lat="46.63231" lon="3.79889">
        <ele>308.72</ele>
        <time>2021-08-13T09:32:50Z</time>
      </trkpt>
      <trkpt lat="46.63178" lon="3.79793">
        <ele>307.76</ele>
        <time>2021-08-13T09:32:58Z</time>
      </trkpt>
      <trkpt lat="46.63128" lon="3.79704">
        <ele>304.39</ele>
        <time>2021-08-13T09:33:06Z</time>
      </trkpt>
      <trkpt lat="46.63071" lon="3.79608">
        <ele>303.43</ele>
        <time>2021-08-13T09:33:15Z</time>
      </trkpt>
      <trkpt lat="46.63039" lon="3.79548">
        <ele>305.36</ele>
        <time>2021-08-13T09:33:22Z</time>
      </trkpt>
      <trkpt lat="46.63021" lon="3.79512">
        <ele>306.8</ele>
        <time>2021-08-13T09:33:28Z</time>
      </trkpt>
      <trkpt lat="46.63" lon="3.7946">
        <ele>306.8</ele>
        <time>2021-08-13T09:33:37Z</time>
      </trkpt>
      <trkpt lat="46.62979" lon="3.79409">
        <ele>306.8</ele>
        <time>2021-08-13T09:33:45Z</time>
      </trkpt>
      <trkpt lat="46.62947" lon="3.79345">
        <ele>303.43</ele>
        <time>2021-08-13T09:33:54Z</time>
      </trkpt>
      <trkpt lat="46.62923" lon="3.79299">
        <ele>300.55</ele>
        <time>2021-08-13T09:33:59Z</time>
      </trkpt>
      <trkpt lat="46.62919" lon="3.79288">
        <ele>300.55</ele>
        <time>2021-08-13T09:34:00Z</time>
      </trkpt>
      <trkpt lat="46.62884" lon="3.79214">
        <ele>297.18</ele>
        <time>2021-08-13T09:34:07Z</time>
      </trkpt>
      <trkpt lat="46.62843" lon="3.79128">
        <ele>293.82</ele>
        <time>2021-08-13T09:34:15Z</time>
      </trkpt>
      <trkpt lat="46.62822" lon="3.79085">
        <ele>292.38</ele>
        <time>2021-08-13T09:34:19Z</time>
      </trkpt>
      <trkpt lat="46.62793" lon="3.79027">
        <ele>290.94</ele>
        <time>2021-08-13T09:34:25Z</time>
      </trkpt>
      <trkpt lat="46.62791" lon="3.79019">
        <ele>291.42</ele>
        <time>2021-08-13T09:34:26Z</time>
      </trkpt>
      <trkpt lat="46.62792" lon="3.79012">
        <ele>290.94</ele>
        <time>2021-08-13T09:34:27Z</time>
      </trkpt>
      <trkpt lat="46.62795" lon="3.79007">
        <ele>290.94</ele>
        <time>2021-08-13T09:34:28Z</time>
      </trkpt>
      <trkpt lat="46.62797" lon="3.79004">
        <ele>290.94</ele>
        <time>2021-08-13T09:34:29Z</time>
      </trkpt>
      <trkpt lat="46.62809" lon="3.78991">
        <ele>293.82</ele>
        <time>2021-08-13T09:34:36Z</time>
      </trkpt>
      <trkpt lat="46.62813" lon="3.78983">
        <ele>293.82</ele>
        <time>2021-08-13T09:34:40Z</time>
      </trkpt>
      <trkpt lat="46.62815" lon="3.78982">
        <ele>293.82</ele>
        <time>2021-08-13T09:34:41Z</time>
      </trkpt>
      <trkpt lat="46.62816" lon="3.7898">
        <ele>294.3</ele>
        <time>2021-08-13T09:34:42Z</time>
      </trkpt>
      <trkpt lat="46.62818" lon="3.78975">
        <ele>294.3</ele>
        <time>2021-08-13T09:34:45Z</time>
      </trkpt>
      <trkpt lat="46.62819" lon="3.78974">
        <ele>294.78</ele>
        <time>2021-08-13T09:34:46Z</time>
      </trkpt>
      <trkpt lat="46.6282" lon="3.78972">
        <ele>294.78</ele>
        <time>2021-08-13T09:34:47Z</time>
      </trkpt>
      <trkpt lat="46.62821" lon="3.78971">
        <ele>294.78</ele>
        <time>2021-08-13T09:34:48Z</time>
      </trkpt>
      <trkpt lat="46.62822" lon="3.78969">
        <ele>294.78</ele>
        <time>2021-08-13T09:34:49Z</time>
      </trkpt>
      <trkpt lat="46.62823" lon="3.78967">
        <ele>295.26</ele>
        <time>2021-08-13T09:34:50Z</time>
      </trkpt>
      <trkpt lat="46.62824" lon="3.78965">
        <ele>295.26</ele>
        <time>2021-08-13T09:34:51Z</time>
      </trkpt>
      <trkpt lat="46.62824" lon="3.78964">
        <ele>295.26</ele>
        <time>2021-08-13T09:34:52Z</time>
      </trkpt>
      <trkpt lat="46.62825" lon="3.78962">
        <ele>296.22</ele>
        <time>2021-08-13T09:34:53Z</time>
      </trkpt>
      <trkpt lat="46.62826" lon="3.7896">
        <ele>296.22</ele>
        <time>2021-08-13T09:34:54Z</time>
      </trkpt>
      <trkpt lat="46.62826" lon="3.78959">
        <ele>296.22</ele>
        <time>2021-08-13T09:34:55Z</time>
      </trkpt>
      <trkpt lat="46.62827" lon="3.78957">
        <ele>296.22</ele>
        <time>2021-08-13T09:34:56Z</time>
      </trkpt>
      <trkpt lat="46.62831" lon="3.78949">
        <ele>297.67</ele>
        <time>2021-08-13T09:35:02Z</time>
      </trkpt>
      <trkpt lat="46.62832" lon="3.78947">
        <ele>297.67</ele>
        <time>2021-08-13T09:35:03Z</time>
      </trkpt>
      <trkpt lat="46.62832" lon="3.78946">
        <ele>297.67</ele>
        <time>2021-08-13T09:35:04Z</time>
      </trkpt>
      <trkpt lat="46.62833" lon="3.78944">
        <ele>297.67</ele>
        <time>2021-08-13T09:35:05Z</time>
      </trkpt>
      <trkpt lat="46.62834" lon="3.78943">
        <ele>298.15</ele>
        <time>2021-08-13T09:35:06Z</time>
      </trkpt>
      <trkpt lat="46.62835" lon="3.78942">
        <ele>298.15</ele>
        <time>2021-08-13T09:35:07Z</time>
      </trkpt>
      <trkpt lat="46.62836" lon="3.7894">
        <ele>298.15</ele>
        <time>2021-08-13T09:35:08Z</time>
      </trkpt>
      <trkpt lat="46.62839" lon="3.78934">
        <ele>298.63</ele>
        <time>2021-08-13T09:35:12Z</time>
      </trkpt>
      <trkpt lat="46.62839" lon="3.78933">
        <ele>298.63</ele>
        <time>2021-08-13T09:35:13Z</time>
      </trkpt>
      <trkpt lat="46.62843" lon="3.78924">
        <ele>299.59</ele>
        <time>2021-08-13T09:35:19Z</time>
      </trkpt>
      <trkpt lat="46.62846" lon="3.78915">
        <ele>300.55</ele>
        <time>2021-08-13T09:35:25Z</time>
      </trkpt>
      <trkpt lat="46.62853" lon="3.789">
        <ele>301.51</ele>
        <time>2021-08-13T09:35:35Z</time>
      </trkpt>
      <trkpt lat="46.62854" lon="3.78898">
        <ele>301.51</ele>
        <time>2021-08-13T09:35:36Z</time>
      </trkpt>
      <trkpt lat="46.62855" lon="3.78897">
        <ele>301.51</ele>
        <time>2021-08-13T09:35:37Z</time>
      </trkpt>
      <trkpt lat="46.62855" lon="3.78895">
        <ele>301.99</ele>
        <time>2021-08-13T09:35:38Z</time>
      </trkpt>
      <trkpt lat="46.62856" lon="3.78894">
        <ele>301.99</ele>
        <time>2021-08-13T09:35:39Z</time>
      </trkpt>
      <trkpt lat="46.62857" lon="3.78893">
        <ele>302.47</ele>
        <time>2021-08-13T09:35:40Z</time>
      </trkpt>
      <trkpt lat="46.62858" lon="3.78891">
        <ele>302.47</ele>
        <time>2021-08-13T09:35:41Z</time>
      </trkpt>
      <trkpt lat="46.62858" lon="3.7889">
        <ele>302.47</ele>
        <time>2021-08-13T09:35:42Z</time>
      </trkpt>
      <trkpt lat="46.62859" lon="3.78888">
        <ele>302.95</ele>
        <time>2021-08-13T09:35:43Z</time>
      </trkpt>
      <trkpt lat="46.62859" lon="3.78887">
        <ele>302.95</ele>
        <time>2021-08-13T09:35:44Z</time>
      </trkpt>
      <trkpt lat="46.6286" lon="3.78885">
        <ele>302.95</ele>
        <time>2021-08-13T09:35:45Z</time>
      </trkpt>
      <trkpt lat="46.62867" lon="3.78873">
        <ele>303.91</ele>
        <time>2021-08-13T09:35:53Z</time>
      </trkpt>
      <trkpt lat="46.62872" lon="3.78863">
        <ele>304.88</ele>
        <time>2021-08-13T09:36:01Z</time>
      </trkpt>
      <trkpt lat="46.62876" lon="3.7885">
        <ele>305.84</ele>
        <time>2021-08-13T09:36:10Z</time>
      </trkpt>
      <trkpt lat="46.62877" lon="3.78829">
        <ele>305.84</ele>
        <time>2021-08-13T09:36:18Z</time>
      </trkpt>
      <trkpt lat="46.62882" lon="3.78798">
        <ele>305.84</ele>
        <time>2021-08-13T09:36:26Z</time>
      </trkpt>
      <trkpt lat="46.62899" lon="3.78773">
        <ele>306.32</ele>
        <time>2021-08-13T09:36:34Z</time>
      </trkpt>
      <trkpt lat="46.62915" lon="3.78752">
        <ele>306.8</ele>
        <time>2021-08-13T09:36:42Z</time>
      </trkpt>
      <trkpt lat="46.62925" lon="3.78736">
        <ele>307.76</ele>
        <time>2021-08-13T09:36:49Z</time>
      </trkpt>
      <trkpt lat="46.62934" lon="3.78725">
        <ele>308.72</ele>
        <time>2021-08-13T09:36:55Z</time>
      </trkpt>
      <trkpt lat="46.62947" lon="3.78711">
        <ele>309.2</ele>
        <time>2021-08-13T09:37:02Z</time>
      </trkpt>
      <trkpt lat="46.62954" lon="3.78698">
        <ele>309.2</ele>
        <time>2021-08-13T09:37:07Z</time>
      </trkpt>
      <trkpt lat="46.62953" lon="3.78694">
        <ele>307.76</ele>
        <time>2021-08-13T09:37:08Z</time>
      </trkpt>
      <trkpt lat="46.62952" lon="3.78692">
        <ele>307.76</ele>
        <time>2021-08-13T09:37:09Z</time>
      </trkpt>
      <trkpt lat="46.6295" lon="3.78689">
        <ele>307.76</ele>
        <time>2021-08-13T09:37:10Z</time>
      </trkpt>
      <trkpt lat="46.62949" lon="3.78685">
        <ele>307.76</ele>
        <time>2021-08-13T09:37:11Z</time>
      </trkpt>
      <trkpt lat="46.62947" lon="3.78681">
        <ele>307.28</ele>
        <time>2021-08-13T09:37:12Z</time>
      </trkpt>
      <trkpt lat="46.6293" lon="3.78653">
        <ele>306.32</ele>
        <time>2021-08-13T09:37:19Z</time>
      </trkpt>
      <trkpt lat="46.62925" lon="3.78644">
        <ele>306.32</ele>
        <time>2021-08-13T09:37:21Z</time>
      </trkpt>
      <trkpt lat="46.62896" lon="3.78592">
        <ele>304.39</ele>
        <time>2021-08-13T09:37:31Z</time>
      </trkpt>
      <trkpt lat="46.62877" lon="3.78552">
        <ele>302.47</ele>
        <time>2021-08-13T09:37:38Z</time>
      </trkpt>
      <trkpt lat="46.62859" lon="3.78492">
        <ele>300.55</ele>
        <time>2021-08-13T09:37:46Z</time>
      </trkpt>
      <trkpt lat="46.62841" lon="3.78425">
        <ele>299.11</ele>
        <time>2021-08-13T09:37:54Z</time>
      </trkpt>
      <trkpt lat="46.62821" lon="3.78336">
        <ele>297.18</ele>
        <time>2021-08-13T09:38:04Z</time>
      </trkpt>
      <trkpt lat="46.62803" lon="3.78241">
        <ele>295.74</ele>
        <time>2021-08-13T09:38:15Z</time>
      </trkpt>
      <trkpt lat="46.62791" lon="3.78141">
        <ele>294.78</ele>
        <time>2021-08-13T09:38:27Z</time>
      </trkpt>
      <trkpt lat="46.62783" lon="3.78068">
        <ele>294.78</ele>
        <time>2021-08-13T09:38:37Z</time>
      </trkpt>
      <trkpt lat="46.6277" lon="3.78018">
        <ele>294.78</ele>
        <time>2021-08-13T09:38:45Z</time>
      </trkpt>
      <trkpt lat="46.62754" lon="3.77967">
        <ele>296.7</ele>
        <time>2021-08-13T09:38:55Z</time>
      </trkpt>
      <trkpt lat="46.62742" lon="3.77922">
        <ele>297.18</ele>
        <time>2021-08-13T09:39:04Z</time>
      </trkpt>
      <trkpt lat="46.62731" lon="3.77862">
        <ele>298.15</ele>
        <time>2021-08-13T09:39:16Z</time>
      </trkpt>
      <trkpt lat="46.62724" lon="3.77821">
        <ele>299.11</ele>
        <time>2021-08-13T09:39:25Z</time>
      </trkpt>
      <trkpt lat="46.6272" lon="3.77793">
        <ele>300.07</ele>
        <time>2021-08-13T09:39:32Z</time>
      </trkpt>
      <trkpt lat="46.62713" lon="3.77757">
        <ele>301.03</ele>
        <time>2021-08-13T09:39:40Z</time>
      </trkpt>
      <trkpt lat="46.62701" lon="3.77734">
        <ele>301.99</ele>
        <time>2021-08-13T09:39:46Z</time>
      </trkpt>
      <trkpt lat="46.62685" lon="3.77703">
        <ele>301.51</ele>
        <time>2021-08-13T09:39:54Z</time>
      </trkpt>
      <trkpt lat="46.62678" lon="3.77671">
        <ele>301.51</ele>
        <time>2021-08-13T09:40:01Z</time>
      </trkpt>
      <trkpt lat="46.62676" lon="3.77651">
        <ele>300.07</ele>
        <time>2021-08-13T09:40:04Z</time>
      </trkpt>
      <trkpt lat="46.62671" lon="3.77629">
        <ele>299.11</ele>
        <time>2021-08-13T09:40:07Z</time>
      </trkpt>
      <trkpt lat="46.62668" lon="3.77616">
        <ele>298.63</ele>
        <time>2021-08-13T09:40:09Z</time>
      </trkpt>
      <trkpt lat="46.62663" lon="3.77603">
        <ele>297.67</ele>
        <time>2021-08-13T09:40:11Z</time>
      </trkpt>
      <trkpt lat="46.62661" lon="3.77595">
        <ele>297.67</ele>
        <time>2021-08-13T09:40:12Z</time>
      </trkpt>
      <trkpt lat="46.62645" lon="3.77561">
        <ele>295.26</ele>
        <time>2021-08-13T09:40:18Z</time>
      </trkpt>
      <trkpt lat="46.62634" lon="3.77542">
        <ele>293.82</ele>
        <time>2021-08-13T09:40:21Z</time>
      </trkpt>
      <trkpt lat="46.62617" lon="3.77502">
        <ele>291.9</ele>
        <time>2021-08-13T09:40:26Z</time>
      </trkpt>
      <trkpt lat="46.62595" lon="3.77437">
        <ele>288.53</ele>
        <time>2021-08-13T09:40:33Z</time>
      </trkpt>
      <trkpt lat="46.62591" lon="3.77424">
        <ele>288.05</ele>
        <time>2021-08-13T09:40:35Z</time>
      </trkpt>
      <trkpt lat="46.6259" lon="3.77418">
        <ele>287.57</ele>
        <time>2021-08-13T09:40:36Z</time>
      </trkpt>
      <trkpt lat="46.62588" lon="3.77405">
        <ele>287.57</ele>
        <time>2021-08-13T09:40:40Z</time>
      </trkpt>
      <trkpt lat="46.62587" lon="3.77402">
        <ele>287.57</ele>
        <time>2021-08-13T09:40:41Z</time>
      </trkpt>
      <trkpt lat="46.62586" lon="3.774">
        <ele>287.57</ele>
        <time>2021-08-13T09:40:42Z</time>
      </trkpt>
      <trkpt lat="46.62584" lon="3.77398">
        <ele>287.57</ele>
        <time>2021-08-13T09:40:43Z</time>
      </trkpt>
      <trkpt lat="46.62581" lon="3.77396">
        <ele>287.57</ele>
        <time>2021-08-13T09:40:44Z</time>
      </trkpt>
      <trkpt lat="46.62579" lon="3.77395">
        <ele>287.57</ele>
        <time>2021-08-13T09:40:45Z</time>
      </trkpt>
      <trkpt lat="46.62577" lon="3.77393">
        <ele>287.57</ele>
        <time>2021-08-13T09:40:46Z</time>
      </trkpt>
      <trkpt lat="46.62575" lon="3.77391">
        <ele>287.57</ele>
        <time>2021-08-13T09:40:47Z</time>
      </trkpt>
      <trkpt lat="46.6256" lon="3.77385">
        <ele>287.57</ele>
        <time>2021-08-13T09:40:53Z</time>
      </trkpt>
      <trkpt lat="46.62543" lon="3.77381">
        <ele>288.53</ele>
        <time>2021-08-13T09:41:00Z</time>
      </trkpt>
      <trkpt lat="46.62515" lon="3.77374">
        <ele>289.49</ele>
        <time>2021-08-13T09:41:09Z</time>
      </trkpt>
      <trkpt lat="46.62484" lon="3.77369">
        <ele>290.46</ele>
        <time>2021-08-13T09:41:18Z</time>
      </trkpt>
      <trkpt lat="46.62456" lon="3.77368">
        <ele>290.94</ele>
        <time>2021-08-13T09:41:27Z</time>
      </trkpt>
      <trkpt lat="46.6245" lon="3.77371">
        <ele>291.42</ele>
        <time>2021-08-13T09:41:30Z</time>
      </trkpt>
      <trkpt lat="46.6245" lon="3.77373">
        <ele>291.42</ele>
        <time>2021-08-13T09:41:31Z</time>
      </trkpt>
      <trkpt lat="46.62452" lon="3.77376">
        <ele>291.42</ele>
        <time>2021-08-13T09:41:32Z</time>
      </trkpt>
      <trkpt lat="46.62454" lon="3.77377">
        <ele>291.42</ele>
        <time>2021-08-13T09:41:33Z</time>
      </trkpt>
      <trkpt lat="46.62456" lon="3.77378">
        <ele>291.42</ele>
        <time>2021-08-13T09:41:34Z</time>
      </trkpt>
      <trkpt lat="46.6246" lon="3.77378">
        <ele>291.42</ele>
        <time>2021-08-13T09:41:39Z</time>
      </trkpt>
      <trkpt lat="46.62459" lon="3.77378">
        <ele>291.42</ele>
        <time>2021-08-13T09:41:51Z</time>
      </trkpt>
      <trkpt lat="46.62459" lon="3.77379">
        <ele>291.42</ele>
        <time>2021-08-13T09:42:06Z</time>
      </trkpt>
      <trkpt lat="46.62457" lon="3.77377">
        <ele>291.42</ele>
        <time>2021-08-13T09:42:18Z</time>
      </trkpt>
      <trkpt lat="46.62454" lon="3.77373">
        <ele>291.42</ele>
        <time>2021-08-13T09:42:32Z</time>
      </trkpt>
      <trkpt lat="46.62453" lon="3.77374">
        <ele>291.42</ele>
        <time>2021-08-13T09:42:49Z</time>
      </trkpt>
      <trkpt lat="46.62455" lon="3.77376">
        <ele>291.42</ele>
        <time>2021-08-13T09:43:01Z</time>
      </trkpt>
      <trkpt lat="46.62455" lon="3.77378">
        <ele>291.42</ele>
        <time>2021-08-13T09:43:06Z</time>
      </trkpt>
      <trkpt lat="46.62455" lon="3.77376">
        <ele>291.42</ele>
        <time>2021-08-13T09:43:21Z</time>
      </trkpt>
      <trkpt lat="46.62453" lon="3.77372">
        <ele>291.42</ele>
        <time>2021-08-13T09:43:35Z</time>
      </trkpt>
      <trkpt lat="46.62453" lon="3.77371">
        <ele>291.42</ele>
        <time>2021-08-13T09:43:50Z</time>
      </trkpt>
      <trkpt lat="46.62452" lon="3.77369">
        <ele>291.42</ele>
        <time>2021-08-13T09:44:02Z</time>
      </trkpt>
      <trkpt lat="46.62449" lon="3.77363">
        <ele>291.42</ele>
        <time>2021-08-13T09:44:06Z</time>
      </trkpt>
      <trkpt lat="46.62446" lon="3.77363">
        <ele>291.42</ele>
        <time>2021-08-13T09:44:07Z</time>
      </trkpt>
      <trkpt lat="46.62444" lon="3.77362">
        <ele>291.42</ele>
        <time>2021-08-13T09:44:08Z</time>
      </trkpt>
      <trkpt lat="46.62441" lon="3.77362">
        <ele>291.42</ele>
        <time>2021-08-13T09:44:09Z</time>
      </trkpt>
      <trkpt lat="46.62438" lon="3.77363">
        <ele>291.42</ele>
        <time>2021-08-13T09:44:10Z</time>
      </trkpt>
      <trkpt lat="46.62415" lon="3.77366">
        <ele>291.42</ele>
        <time>2021-08-13T09:44:18Z</time>
      </trkpt>
      <trkpt lat="46.62387" lon="3.77363">
        <ele>291.9</ele>
        <time>2021-08-13T09:44:27Z</time>
      </trkpt>
      <trkpt lat="46.62357" lon="3.77351">
        <ele>291.9</ele>
        <time>2021-08-13T09:44:35Z</time>
      </trkpt>
      <trkpt lat="46.62353" lon="3.7735">
        <ele>291.9</ele>
        <time>2021-08-13T09:44:36Z</time>
      </trkpt>
      <trkpt lat="46.62348" lon="3.77348">
        <ele>291.9</ele>
        <time>2021-08-13T09:44:37Z</time>
      </trkpt>
      <trkpt lat="46.62344" lon="3.77347">
        <ele>291.9</ele>
        <time>2021-08-13T09:44:38Z</time>
      </trkpt>
      <trkpt lat="46.6234" lon="3.77345">
        <ele>291.9</ele>
        <time>2021-08-13T09:44:39Z</time>
      </trkpt>
      <trkpt lat="46.62335" lon="3.77343">
        <ele>291.9</ele>
        <time>2021-08-13T09:44:40Z</time>
      </trkpt>
      <trkpt lat="46.62331" lon="3.77342">
        <ele>291.9</ele>
        <time>2021-08-13T09:44:41Z</time>
      </trkpt>
      <trkpt lat="46.62312" lon="3.77334">
        <ele>291.9</ele>
        <time>2021-08-13T09:44:45Z</time>
      </trkpt>
      <trkpt lat="46.62307" lon="3.77332">
        <ele>291.9</ele>
        <time>2021-08-13T09:44:46Z</time>
      </trkpt>
      <trkpt lat="46.62302" lon="3.7733">
        <ele>291.9</ele>
        <time>2021-08-13T09:44:47Z</time>
      </trkpt>
      <trkpt lat="46.62297" lon="3.7733">
        <ele>291.9</ele>
        <time>2021-08-13T09:44:48Z</time>
      </trkpt>
      <trkpt lat="46.62293" lon="3.7733">
        <ele>291.9</ele>
        <time>2021-08-13T09:44:49Z</time>
      </trkpt>
      <trkpt lat="46.62252" lon="3.77324">
        <ele>290.94</ele>
        <time>2021-08-13T09:44:57Z</time>
      </trkpt>
      <trkpt lat="46.62214" lon="3.77317">
        <ele>289.97</ele>
        <time>2021-08-13T09:45:04Z</time>
      </trkpt>
      <trkpt lat="46.62174" lon="3.77298">
        <ele>289.97</ele>
        <time>2021-08-13T09:45:12Z</time>
      </trkpt>
      <trkpt lat="46.62168" lon="3.77293">
        <ele>289.97</ele>
        <time>2021-08-13T09:45:14Z</time>
      </trkpt>
      <trkpt lat="46.62149" lon="3.77282">
        <ele>289.97</ele>
        <time>2021-08-13T09:45:18Z</time>
      </trkpt>
      <trkpt lat="46.6214" lon="3.77275">
        <ele>289.97</ele>
        <time>2021-08-13T09:45:20Z</time>
      </trkpt>
      <trkpt lat="46.62105" lon="3.77256">
        <ele>289.97</ele>
        <time>2021-08-13T09:45:28Z</time>
      </trkpt>
      <trkpt lat="46.62066" lon="3.77235">
        <ele>289.01</ele>
        <time>2021-08-13T09:45:37Z</time>
      </trkpt>
      <trkpt lat="46.62048" lon="3.77215">
        <ele>288.05</ele>
        <time>2021-08-13T09:45:43Z</time>
      </trkpt>
      <trkpt lat="46.62048" lon="3.77198">
        <ele>287.57</ele>
        <time>2021-08-13T09:45:46Z</time>
      </trkpt>
      <trkpt lat="46.62055" lon="3.77167">
        <ele>286.13</ele>
        <time>2021-08-13T09:45:52Z</time>
      </trkpt>
      <trkpt lat="46.62058" lon="3.77161">
        <ele>286.13</ele>
        <time>2021-08-13T09:45:57Z</time>
      </trkpt>
      <trkpt lat="46.62057" lon="3.7716">
        <ele>286.13</ele>
        <time>2021-08-13T09:46:07Z</time>
      </trkpt>
      <trkpt lat="46.62057" lon="3.77158">
        <ele>286.13</ele>
        <time>2021-08-13T09:46:19Z</time>
      </trkpt>
      <trkpt lat="46.62057" lon="3.77156">
        <ele>286.13</ele>
        <time>2021-08-13T09:46:24Z</time>
      </trkpt>
      <trkpt lat="46.62059" lon="3.77156">
        <ele>285.65</ele>
        <time>2021-08-13T09:46:39Z</time>
      </trkpt>
      <trkpt lat="46.62062" lon="3.7716">
        <ele>285.65</ele>
        <time>2021-08-13T09:47:00Z</time>
      </trkpt>
      <trkpt lat="46.62061" lon="3.77162">
        <ele>285.65</ele>
        <time>2021-08-13T09:47:17Z</time>
      </trkpt>
      <trkpt lat="46.62059" lon="3.77163">
        <ele>285.65</ele>
        <time>2021-08-13T09:47:38Z</time>
      </trkpt>
      <trkpt lat="46.62059" lon="3.77165">
        <ele>285.65</ele>
        <time>2021-08-13T09:47:56Z</time>
      </trkpt>
      <trkpt lat="46.6206" lon="3.77165">
        <ele>285.65</ele>
        <time>2021-08-13T09:48:11Z</time>
      </trkpt>
      <trkpt lat="46.62059" lon="3.77166">
        <ele>285.65</ele>
        <time>2021-08-13T09:48:29Z</time>
      </trkpt>
      <trkpt lat="46.62059" lon="3.77164">
        <ele>285.65</ele>
        <time>2021-08-13T09:48:47Z</time>
      </trkpt>
      <trkpt lat="46.6206" lon="3.77165">
        <ele>285.65</ele>
        <time>2021-08-13T09:49:04Z</time>
      </trkpt>
      <trkpt lat="46.6206" lon="3.77166">
        <ele>285.65</ele>
        <time>2021-08-13T09:49:21Z</time>
      </trkpt>
      <trkpt lat="46.62059" lon="3.77168">
        <ele>285.65</ele>
        <time>2021-08-13T09:49:38Z</time>
      </trkpt>
      <trkpt lat="46.62057" lon="3.7717">
        <ele>285.65</ele>
        <time>2021-08-13T09:49:57Z</time>
      </trkpt>
      <trkpt lat="46.62056" lon="3.7717">
        <ele>285.65</ele>
        <time>2021-08-13T09:50:14Z</time>
      </trkpt>
      <trkpt lat="46.62054" lon="3.7717">
        <ele>285.65</ele>
        <time>2021-08-13T09:50:30Z</time>
      </trkpt>
      <trkpt lat="46.62054" lon="3.77173">
        <ele>285.65</ele>
        <time>2021-08-13T09:50:39Z</time>
      </trkpt>
      <trkpt lat="46.62056" lon="3.77172">
        <ele>285.65</ele>
        <time>2021-08-13T09:50:41Z</time>
      </trkpt>
      <trkpt lat="46.62057" lon="3.77171">
        <ele>285.65</ele>
        <time>2021-08-13T09:50:42Z</time>
      </trkpt>
      <trkpt lat="46.62058" lon="3.7717">
        <ele>285.65</ele>
        <time>2021-08-13T09:50:47Z</time>
      </trkpt>
      <trkpt lat="46.62055" lon="3.77171">
        <ele>285.65</ele>
        <time>2021-08-13T09:51:04Z</time>
      </trkpt>
      <trkpt lat="46.62054" lon="3.77169">
        <ele>285.65</ele>
        <time>2021-08-13T09:51:18Z</time>
      </trkpt>
      <trkpt lat="46.62054" lon="3.77171">
        <ele>285.65</ele>
        <time>2021-08-13T09:51:38Z</time>
      </trkpt>
      <trkpt lat="46.62054" lon="3.77172">
        <ele>285.65</ele>
        <time>2021-08-13T09:51:54Z</time>
      </trkpt>
      <trkpt lat="46.62055" lon="3.77172">
        <ele>285.65</ele>
        <time>2021-08-13T09:52:07Z</time>
      </trkpt>
      <trkpt lat="46.62055" lon="3.77167">
        <ele>285.65</ele>
        <time>2021-08-13T09:52:20Z</time>
      </trkpt>
      <trkpt lat="46.62057" lon="3.77163">
        <ele>286.13</ele>
        <time>2021-08-13T09:52:39Z</time>
      </trkpt>
      <trkpt lat="46.62059" lon="3.7716">
        <ele>286.13</ele>
        <time>2021-08-13T09:52:51Z</time>
      </trkpt>
      <trkpt lat="46.6206" lon="3.77159">
        <ele>286.13</ele>
        <time>2021-08-13T09:53:06Z</time>
      </trkpt>
      <trkpt lat="46.62061" lon="3.77158">
        <ele>286.13</ele>
        <time>2021-08-13T09:53:18Z</time>
      </trkpt>
      <trkpt lat="46.62064" lon="3.77158">
        <ele>286.13</ele>
        <time>2021-08-13T09:53:34Z</time>
      </trkpt>
      <trkpt lat="46.62063" lon="3.77158">
        <ele>286.13</ele>
        <time>2021-08-13T09:53:54Z</time>
      </trkpt>
      <trkpt lat="46.62062" lon="3.77159">
        <ele>286.13</ele>
        <time>2021-08-13T09:54:07Z</time>
      </trkpt>
      <trkpt lat="46.62059" lon="3.77158">
        <ele>286.13</ele>
        <time>2021-08-13T09:54:23Z</time>
      </trkpt>
      <trkpt lat="46.62057" lon="3.77159">
        <ele>286.13</ele>
        <time>2021-08-13T09:54:33Z</time>
      </trkpt>
      <trkpt lat="46.62057" lon="3.77158">
        <ele>286.13</ele>
        <time>2021-08-13T09:54:47Z</time>
      </trkpt>
      <trkpt lat="46.62058" lon="3.77158">
        <ele>286.13</ele>
        <time>2021-08-13T09:54:54Z</time>
      </trkpt>
      <trkpt lat="46.62058" lon="3.77157">
        <ele>286.13</ele>
        <time>2021-08-13T09:55:07Z</time>
      </trkpt>
      <trkpt lat="46.6206" lon="3.77157">
        <ele>286.13</ele>
        <time>2021-08-13T09:55:08Z</time>
      </trkpt>
      <trkpt lat="46.6206" lon="3.77158">
        <ele>286.13</ele>
        <time>2021-08-13T09:55:14Z</time>
      </trkpt>
      <trkpt lat="46.6206" lon="3.77159">
        <ele>286.13</ele>
        <time>2021-08-13T09:55:33Z</time>
      </trkpt>
      <trkpt lat="46.62061" lon="3.77159">
        <ele>286.13</ele>
        <time>2021-08-13T09:55:52Z</time>
      </trkpt>
      <trkpt lat="46.62059" lon="3.77159">
        <ele>285.65</ele>
        <time>2021-08-13T09:56:12Z</time>
      </trkpt>
      <trkpt lat="46.62059" lon="3.77158">
        <ele>287.09</ele>
        <time>2021-08-13T09:56:27Z</time>
      </trkpt>
      <trkpt lat="46.6206" lon="3.77159">
        <ele>286.61</ele>
        <time>2021-08-13T09:56:43Z</time>
      </trkpt>
      <trkpt lat="46.62059" lon="3.7716">
        <ele>286.61</ele>
        <time>2021-08-13T09:57:02Z</time>
      </trkpt>
      <trkpt lat="46.62058" lon="3.77161">
        <ele>286.61</ele>
        <time>2021-08-13T09:57:19Z</time>
      </trkpt>
      <trkpt lat="46.62058" lon="3.7716">
        <ele>286.61</ele>
        <time>2021-08-13T09:57:35Z</time>
      </trkpt>
      <trkpt lat="46.62057" lon="3.7716">
        <ele>286.61</ele>
        <time>2021-08-13T09:57:58Z</time>
      </trkpt>
      <trkpt lat="46.62057" lon="3.77159">
        <ele>286.61</ele>
        <time>2021-08-13T09:58:15Z</time>
      </trkpt>
      <trkpt lat="46.62058" lon="3.77159">
        <ele>286.61</ele>
        <time>2021-08-13T09:58:34Z</time>
      </trkpt>
      <trkpt lat="46.62062" lon="3.77159">
        <ele>286.13</ele>
        <time>2021-08-13T09:58:59Z</time>
      </trkpt>
      <trkpt lat="46.62063" lon="3.77159">
        <ele>286.13</ele>
        <time>2021-08-13T09:59:17Z</time>
      </trkpt>
      <trkpt lat="46.6206" lon="3.7716">
        <ele>286.13</ele>
        <time>2021-08-13T09:59:45Z</time>
      </trkpt>
      <trkpt lat="46.62059" lon="3.7716">
        <ele>286.61</ele>
        <time>2021-08-13T10:00:03Z</time>
      </trkpt>
      <trkpt lat="46.62057" lon="3.77159">
        <ele>286.61</ele>
        <time>2021-08-13T10:00:14Z</time>
      </trkpt>
      <trkpt lat="46.62057" lon="3.77159">
        <ele>286.61</ele>
        <time>2021-08-13T10:00:35Z</time>
      </trkpt>
      <trkpt lat="46.62056" lon="3.77158">
        <ele>286.61</ele>
        <time>2021-08-13T10:00:50Z</time>
      </trkpt>
      <trkpt lat="46.62055" lon="3.77158">
        <ele>286.13</ele>
        <time>2021-08-13T10:01:06Z</time>
      </trkpt>
      <trkpt lat="46.62055" lon="3.77159">
        <ele>286.13</ele>
        <time>2021-08-13T10:01:29Z</time>
      </trkpt>
      <trkpt lat="46.62056" lon="3.77159">
        <ele>286.13</ele>
        <time>2021-08-13T10:01:50Z</time>
      </trkpt>
      <trkpt lat="46.62059" lon="3.77158">
        <ele>286.13</ele>
        <time>2021-08-13T10:02:10Z</time>
      </trkpt>
      <trkpt lat="46.62061" lon="3.77157">
        <ele>286.13</ele>
        <time>2021-08-13T10:02:20Z</time>
      </trkpt>
      <trkpt lat="46.62061" lon="3.77157">
        <ele>286.13</ele>
        <time>2021-08-13T10:02:35Z</time>
      </trkpt>
      <trkpt lat="46.6206" lon="3.77159">
        <ele>286.13</ele>
        <time>2021-08-13T10:02:52Z</time>
      </trkpt>
      <trkpt lat="46.62062" lon="3.77156">
        <ele>286.13</ele>
        <time>2021-08-13T10:03:11Z</time>
      </trkpt>
      <trkpt lat="46.62063" lon="3.77155">
        <ele>286.13</ele>
        <time>2021-08-13T10:03:34Z</time>
      </trkpt>
      <trkpt lat="46.62063" lon="3.77154">
        <ele>285.65</ele>
        <time>2021-08-13T10:03:51Z</time>
      </trkpt>
      <trkpt lat="46.62062" lon="3.77156">
        <ele>285.65</ele>
        <time>2021-08-13T10:04:13Z</time>
      </trkpt>
      <trkpt lat="46.62058" lon="3.77155">
        <ele>285.65</ele>
        <time>2021-08-13T10:04:38Z</time>
      </trkpt>
      <trkpt lat="46.62056" lon="3.77157">
        <ele>285.65</ele>
        <time>2021-08-13T10:04:59Z</time>
      </trkpt>
      <trkpt lat="46.62056" lon="3.77156">
        <ele>285.65</ele>
        <time>2021-08-13T10:05:22Z</time>
      </trkpt>
      <trkpt lat="46.62057" lon="3.77157">
        <ele>285.65</ele>
        <time>2021-08-13T10:05:42Z</time>
      </trkpt>
      <trkpt lat="46.62057" lon="3.77156">
        <ele>285.65</ele>
        <time>2021-08-13T10:06:02Z</time>
      </trkpt>
      <trkpt lat="46.62057" lon="3.77157">
        <ele>285.65</ele>
        <time>2021-08-13T10:06:16Z</time>
      </trkpt>
      <trkpt lat="46.62056" lon="3.77159">
        <ele>285.65</ele>
        <time>2021-08-13T10:06:31Z</time>
      </trkpt>
      <trkpt lat="46.62056" lon="3.7716">
        <ele>285.65</ele>
        <time>2021-08-13T10:06:54Z</time>
      </trkpt>
      <trkpt lat="46.62056" lon="3.77159">
        <ele>285.65</ele>
        <time>2021-08-13T10:07:14Z</time>
      </trkpt>
      <trkpt lat="46.62056" lon="3.77159">
        <ele>285.65</ele>
        <time>2021-08-13T10:07:39Z</time>
      </trkpt>
      <trkpt lat="46.62057" lon="3.7716">
        <ele>286.13</ele>
        <time>2021-08-13T10:08:00Z</time>
      </trkpt>
      <trkpt lat="46.62059" lon="3.77158">
        <ele>286.13</ele>
        <time>2021-08-13T10:08:25Z</time>
      </trkpt>
      <trkpt lat="46.62058" lon="3.77157">
        <ele>286.13</ele>
        <time>2021-08-13T10:08:44Z</time>
      </trkpt>
      <trkpt lat="46.62057" lon="3.7716">
        <ele>286.13</ele>
        <time>2021-08-13T10:09:07Z</time>
      </trkpt>
      <trkpt lat="46.62059" lon="3.7716">
        <ele>285.65</ele>
        <time>2021-08-13T10:09:30Z</time>
      </trkpt>
      <trkpt lat="46.6206" lon="3.7716">
        <ele>285.65</ele>
        <time>2021-08-13T10:09:49Z</time>
      </trkpt>
      <trkpt lat="46.6206" lon="3.77162">
        <ele>285.65</ele>
        <time>2021-08-13T10:09:57Z</time>
      </trkpt>
      <trkpt lat="46.6206" lon="3.77163">
        <ele>285.65</ele>
        <time>2021-08-13T10:10:07Z</time>
      </trkpt>
      <trkpt lat="46.62057" lon="3.77169">
        <ele>285.65</ele>
        <time>2021-08-13T10:10:12Z</time>
      </trkpt>
      <trkpt lat="46.62053" lon="3.77177">
        <ele>286.13</ele>
        <time>2021-08-13T10:10:16Z</time>
      </trkpt>
      <trkpt lat="46.62051" lon="3.77182">
        <ele>286.13</ele>
        <time>2021-08-13T10:10:18Z</time>
      </trkpt>
      <trkpt lat="46.6205" lon="3.77184">
        <ele>286.13</ele>
        <time>2021-08-13T10:10:19Z</time>
      </trkpt>
      <trkpt lat="46.62041" lon="3.77203">
        <ele>287.09</ele>
        <time>2021-08-13T10:10:26Z</time>
      </trkpt>
      <trkpt lat="46.6203" lon="3.77217">
        <ele>287.57</ele>
        <time>2021-08-13T10:10:33Z</time>
      </trkpt>
      <trkpt lat="46.62027" lon="3.77219">
        <ele>287.57</ele>
        <time>2021-08-13T10:10:35Z</time>
      </trkpt>
      <trkpt lat="46.62025" lon="3.77219">
        <ele>287.57</ele>
        <time>2021-08-13T10:10:36Z</time>
      </trkpt>
      <trkpt lat="46.62006" lon="3.77223">
        <ele>287.57</ele>
        <time>2021-08-13T10:10:44Z</time>
      </trkpt>
      <trkpt lat="46.6199" lon="3.77227">
        <ele>286.13</ele>
        <time>2021-08-13T10:10:50Z</time>
      </trkpt>
      <trkpt lat="46.6198" lon="3.77229">
        <ele>285.65</ele>
        <time>2021-08-13T10:10:56Z</time>
      </trkpt>
      <trkpt lat="46.61969" lon="3.77228">
        <ele>285.17</ele>
        <time>2021-08-13T10:11:01Z</time>
      </trkpt>
      <trkpt lat="46.61964" lon="3.77229">
        <ele>285.17</ele>
        <time>2021-08-13T10:11:02Z</time>
      </trkpt>
      <trkpt lat="46.61959" lon="3.77232">
        <ele>284.69</ele>
        <time>2021-08-13T10:11:03Z</time>
      </trkpt>
      <trkpt lat="46.61955" lon="3.77233">
        <ele>284.69</ele>
        <time>2021-08-13T10:11:04Z</time>
      </trkpt>
      <trkpt lat="46.6195" lon="3.77233">
        <ele>284.69</ele>
        <time>2021-08-13T10:11:05Z</time>
      </trkpt>
      <trkpt lat="46.61945" lon="3.77234">
        <ele>284.21</ele>
        <time>2021-08-13T10:11:06Z</time>
      </trkpt>
      <trkpt lat="46.6194" lon="3.77236">
        <ele>284.21</ele>
        <time>2021-08-13T10:11:07Z</time>
      </trkpt>
      <trkpt lat="46.61936" lon="3.77237">
        <ele>284.21</ele>
        <time>2021-08-13T10:11:08Z</time>
      </trkpt>
      <trkpt lat="46.61922" lon="3.77241">
        <ele>283.25</ele>
        <time>2021-08-13T10:11:12Z</time>
      </trkpt>
      <trkpt lat="46.61921" lon="3.77239">
        <ele>283.25</ele>
        <time>2021-08-13T10:11:13Z</time>
      </trkpt>
      <trkpt lat="46.61922" lon="3.77234">
        <ele>283.25</ele>
        <time>2021-08-13T10:11:14Z</time>
      </trkpt>
      <trkpt lat="46.61922" lon="3.77229">
        <ele>283.25</ele>
        <time>2021-08-13T10:11:15Z</time>
      </trkpt>
      <trkpt lat="46.61922" lon="3.77224">
        <ele>283.25</ele>
        <time>2021-08-13T10:11:16Z</time>
      </trkpt>
      <trkpt lat="46.61923" lon="3.77218">
        <ele>282.77</ele>
        <time>2021-08-13T10:11:17Z</time>
      </trkpt>
      <trkpt lat="46.61923" lon="3.77211">
        <ele>282.77</ele>
        <time>2021-08-13T10:11:18Z</time>
      </trkpt>
      <trkpt lat="46.61923" lon="3.77205">
        <ele>282.77</ele>
        <time>2021-08-13T10:11:19Z</time>
      </trkpt>
      <trkpt lat="46.61924" lon="3.77199">
        <ele>282.77</ele>
        <time>2021-08-13T10:11:20Z</time>
      </trkpt>
      <trkpt lat="46.61933" lon="3.77155">
        <ele>281.8</ele>
        <time>2021-08-13T10:11:27Z</time>
      </trkpt>
      <trkpt lat="46.61934" lon="3.77149">
        <ele>281.8</ele>
        <time>2021-08-13T10:11:28Z</time>
      </trkpt>
      <trkpt lat="46.61937" lon="3.77144">
        <ele>281.32</ele>
        <time>2021-08-13T10:11:29Z</time>
      </trkpt>
      <trkpt lat="46.61939" lon="3.77139">
        <ele>280.36</ele>
        <time>2021-08-13T10:11:30Z</time>
      </trkpt>
      <trkpt lat="46.61942" lon="3.77135">
        <ele>280.36</ele>
        <time>2021-08-13T10:11:31Z</time>
      </trkpt>
      <trkpt lat="46.61946" lon="3.77124">
        <ele>279.4</ele>
        <time>2021-08-13T10:11:33Z</time>
      </trkpt>
      <trkpt lat="46.61949" lon="3.77118">
        <ele>278.44</ele>
        <time>2021-08-13T10:11:34Z</time>
      </trkpt>
      <trkpt lat="46.61953" lon="3.77111">
        <ele>278.44</ele>
        <time>2021-08-13T10:11:35Z</time>
      </trkpt>
      <trkpt lat="46.61957" lon="3.77104">
        <ele>278.44</ele>
        <time>2021-08-13T10:11:36Z</time>
      </trkpt>
      <trkpt lat="46.61961" lon="3.77097">
        <ele>278.44</ele>
        <time>2021-08-13T10:11:37Z</time>
      </trkpt>
      <trkpt lat="46.61963" lon="3.7709">
        <ele>277.96</ele>
        <time>2021-08-13T10:11:38Z</time>
      </trkpt>
      <trkpt lat="46.61966" lon="3.77082">
        <ele>277.96</ele>
        <time>2021-08-13T10:11:39Z</time>
      </trkpt>
      <trkpt lat="46.61968" lon="3.77075">
        <ele>277.96</ele>
        <time>2021-08-13T10:11:40Z</time>
      </trkpt>
      <trkpt lat="46.6197" lon="3.77067">
        <ele>277.96</ele>
        <time>2021-08-13T10:11:41Z</time>
      </trkpt>
      <trkpt lat="46.61979" lon="3.77041">
        <ele>277.48</ele>
        <time>2021-08-13T10:11:45Z</time>
      </trkpt>
      <trkpt lat="46.61982" lon="3.77035">
        <ele>277.48</ele>
        <time>2021-08-13T10:11:46Z</time>
      </trkpt>
      <trkpt lat="46.61996" lon="3.77">
        <ele>274.11</ele>
        <time>2021-08-13T10:11:51Z</time>
      </trkpt>
      <trkpt lat="46.62028" lon="3.76951">
        <ele>271.23</ele>
        <time>2021-08-13T10:11:57Z</time>
      </trkpt>
      <trkpt lat="46.62049" lon="3.76918">
        <ele>269.31</ele>
        <time>2021-08-13T10:12:01Z</time>
      </trkpt>
      <trkpt lat="46.62058" lon="3.76901">
        <ele>268.35</ele>
        <time>2021-08-13T10:12:03Z</time>
      </trkpt>
      <trkpt lat="46.62071" lon="3.76877">
        <ele>267.38</ele>
        <time>2021-08-13T10:12:06Z</time>
      </trkpt>
      <trkpt lat="46.62076" lon="3.7687">
        <ele>266.42</ele>
        <time>2021-08-13T10:12:07Z</time>
      </trkpt>
      <trkpt lat="46.62082" lon="3.76864">
        <ele>265.94</ele>
        <time>2021-08-13T10:12:08Z</time>
      </trkpt>
      <trkpt lat="46.62089" lon="3.76859">
        <ele>265.94</ele>
        <time>2021-08-13T10:12:09Z</time>
      </trkpt>
      <trkpt lat="46.62094" lon="3.76854">
        <ele>265.94</ele>
        <time>2021-08-13T10:12:10Z</time>
      </trkpt>
      <trkpt lat="46.62099" lon="3.76848">
        <ele>265.46</ele>
        <time>2021-08-13T10:12:11Z</time>
      </trkpt>
      <trkpt lat="46.62102" lon="3.7684">
        <ele>265.46</ele>
        <time>2021-08-13T10:12:12Z</time>
      </trkpt>
      <trkpt lat="46.62104" lon="3.76832">
        <ele>264.98</ele>
        <time>2021-08-13T10:12:13Z</time>
      </trkpt>
      <trkpt lat="46.62106" lon="3.76823">
        <ele>264.02</ele>
        <time>2021-08-13T10:12:14Z</time>
      </trkpt>
      <trkpt lat="46.62106" lon="3.76815">
        <ele>263.54</ele>
        <time>2021-08-13T10:12:15Z</time>
      </trkpt>
      <trkpt lat="46.62106" lon="3.76806">
        <ele>263.06</ele>
        <time>2021-08-13T10:12:16Z</time>
      </trkpt>
      <trkpt lat="46.62105" lon="3.76796">
        <ele>262.58</ele>
        <time>2021-08-13T10:12:17Z</time>
      </trkpt>
      <trkpt lat="46.62103" lon="3.76786">
        <ele>261.62</ele>
        <time>2021-08-13T10:12:18Z</time>
      </trkpt>
      <trkpt lat="46.62101" lon="3.76779">
        <ele>261.14</ele>
        <time>2021-08-13T10:12:19Z</time>
      </trkpt>
      <trkpt lat="46.62098" lon="3.76771">
        <ele>260.17</ele>
        <time>2021-08-13T10:12:20Z</time>
      </trkpt>
      <trkpt lat="46.62094" lon="3.76764">
        <ele>259.69</ele>
        <time>2021-08-13T10:12:21Z</time>
      </trkpt>
      <trkpt lat="46.6209" lon="3.76759">
        <ele>259.21</ele>
        <time>2021-08-13T10:12:22Z</time>
      </trkpt>
      <trkpt lat="46.62085" lon="3.76755">
        <ele>258.73</ele>
        <time>2021-08-13T10:12:23Z</time>
      </trkpt>
      <trkpt lat="46.62081" lon="3.76752">
        <ele>258.25</ele>
        <time>2021-08-13T10:12:24Z</time>
      </trkpt>
      <trkpt lat="46.62075" lon="3.7675">
        <ele>257.77</ele>
        <time>2021-08-13T10:12:25Z</time>
      </trkpt>
      <trkpt lat="46.62071" lon="3.7675">
        <ele>258.25</ele>
        <time>2021-08-13T10:12:26Z</time>
      </trkpt>
      <trkpt lat="46.62068" lon="3.7675">
        <ele>257.77</ele>
        <time>2021-08-13T10:12:27Z</time>
      </trkpt>
      <trkpt lat="46.62065" lon="3.76751">
        <ele>257.77</ele>
        <time>2021-08-13T10:12:28Z</time>
      </trkpt>
      <trkpt lat="46.62063" lon="3.76753">
        <ele>257.77</ele>
        <time>2021-08-13T10:12:29Z</time>
      </trkpt>
      <trkpt lat="46.62062" lon="3.76753">
        <ele>257.77</ele>
        <time>2021-08-13T10:12:30Z</time>
      </trkpt>
      <trkpt lat="46.6206" lon="3.76754">
        <ele>257.77</ele>
        <time>2021-08-13T10:12:31Z</time>
      </trkpt>
      <trkpt lat="46.6206" lon="3.76755">
        <ele>257.77</ele>
        <time>2021-08-13T10:12:32Z</time>
      </trkpt>
      <trkpt lat="46.62061" lon="3.76757">
        <ele>258.25</ele>
        <time>2021-08-13T10:12:35Z</time>
      </trkpt>
      <trkpt lat="46.62062" lon="3.76755">
        <ele>258.25</ele>
        <time>2021-08-13T10:12:36Z</time>
      </trkpt>
      <trkpt lat="46.62063" lon="3.76754">
        <ele>258.25</ele>
        <time>2021-08-13T10:12:37Z</time>
      </trkpt>
      <trkpt lat="46.62065" lon="3.76752">
        <ele>258.25</ele>
        <time>2021-08-13T10:12:38Z</time>
      </trkpt>
      <trkpt lat="46.62067" lon="3.76751">
        <ele>258.25</ele>
        <time>2021-08-13T10:12:39Z</time>
      </trkpt>
      <trkpt lat="46.62069" lon="3.7675">
        <ele>258.25</ele>
        <time>2021-08-13T10:12:40Z</time>
      </trkpt>
      <trkpt lat="46.62072" lon="3.7675">
        <ele>258.25</ele>
        <time>2021-08-13T10:12:41Z</time>
      </trkpt>
      <trkpt lat="46.62076" lon="3.76751">
        <ele>258.25</ele>
        <time>2021-08-13T10:12:42Z</time>
      </trkpt>
      <trkpt lat="46.62091" lon="3.76763">
        <ele>259.69</ele>
        <time>2021-08-13T10:12:48Z</time>
      </trkpt>
      <trkpt lat="46.621" lon="3.76781">
        <ele>261.14</ele>
        <time>2021-08-13T10:12:56Z</time>
      </trkpt>
      <trkpt lat="46.62105" lon="3.76798">
        <ele>263.06</ele>
        <time>2021-08-13T10:13:02Z</time>
      </trkpt>
      <trkpt lat="46.62106" lon="3.76804">
        <ele>263.54</ele>
        <time>2021-08-13T10:13:06Z</time>
      </trkpt>
      <trkpt lat="46.62106" lon="3.76806">
        <ele>263.54</ele>
        <time>2021-08-13T10:13:07Z</time>
      </trkpt>
      <trkpt lat="46.62106" lon="3.76808">
        <ele>264.02</ele>
        <time>2021-08-13T10:13:08Z</time>
      </trkpt>
      <trkpt lat="46.62107" lon="3.7681">
        <ele>264.02</ele>
        <time>2021-08-13T10:13:09Z</time>
      </trkpt>
      <trkpt lat="46.62107" lon="3.76812">
        <ele>264.02</ele>
        <time>2021-08-13T10:13:10Z</time>
      </trkpt>
      <trkpt lat="46.62107" lon="3.76814">
        <ele>264.02</ele>
        <time>2021-08-13T10:13:11Z</time>
      </trkpt>
      <trkpt lat="46.62109" lon="3.76815">
        <ele>264.02</ele>
        <time>2021-08-13T10:13:12Z</time>
      </trkpt>
      <trkpt lat="46.6211" lon="3.76816">
        <ele>264.02</ele>
        <time>2021-08-13T10:13:13Z</time>
      </trkpt>
      <trkpt lat="46.62111" lon="3.76815">
        <ele>264.02</ele>
        <time>2021-08-13T10:13:14Z</time>
      </trkpt>
      <trkpt lat="46.62113" lon="3.76815">
        <ele>264.02</ele>
        <time>2021-08-13T10:13:15Z</time>
      </trkpt>
      <trkpt lat="46.62115" lon="3.76814">
        <ele>264.02</ele>
        <time>2021-08-13T10:13:16Z</time>
      </trkpt>
      <trkpt lat="46.62118" lon="3.76813">
        <ele>264.02</ele>
        <time>2021-08-13T10:13:17Z</time>
      </trkpt>
      <trkpt lat="46.62119" lon="3.76811">
        <ele>264.02</ele>
        <time>2021-08-13T10:13:18Z</time>
      </trkpt>
      <trkpt lat="46.6212" lon="3.76808">
        <ele>262.58</ele>
        <time>2021-08-13T10:13:19Z</time>
      </trkpt>
      <trkpt lat="46.62121" lon="3.76803">
        <ele>262.58</ele>
        <time>2021-08-13T10:13:20Z</time>
      </trkpt>
      <trkpt lat="46.62122" lon="3.76799">
        <ele>262.1</ele>
        <time>2021-08-13T10:13:21Z</time>
      </trkpt>
      <trkpt lat="46.62125" lon="3.76789">
        <ele>261.62</ele>
        <time>2021-08-13T10:13:23Z</time>
      </trkpt>
      <trkpt lat="46.62127" lon="3.76785">
        <ele>260.65</ele>
        <time>2021-08-13T10:13:24Z</time>
      </trkpt>
      <trkpt lat="46.6213" lon="3.7678">
        <ele>260.65</ele>
        <time>2021-08-13T10:13:25Z</time>
      </trkpt>
      <trkpt lat="46.62132" lon="3.76775">
        <ele>260.17</ele>
        <time>2021-08-13T10:13:26Z</time>
      </trkpt>
      <trkpt lat="46.62131" lon="3.7677">
        <ele>260.17</ele>
        <time>2021-08-13T10:13:27Z</time>
      </trkpt>
      <trkpt lat="46.6213" lon="3.76765">
        <ele>259.69</ele>
        <time>2021-08-13T10:13:28Z</time>
      </trkpt>
      <trkpt lat="46.62132" lon="3.76744">
        <ele>258.73</ele>
        <time>2021-08-13T10:13:33Z</time>
      </trkpt>
      <trkpt lat="46.62136" lon="3.76717">
        <ele>257.29</ele>
        <time>2021-08-13T10:13:40Z</time>
      </trkpt>
      <trkpt lat="46.62139" lon="3.76691">
        <ele>255.37</ele>
        <time>2021-08-13T10:13:45Z</time>
      </trkpt>
      <trkpt lat="46.62138" lon="3.76669">
        <ele>253.93</ele>
        <time>2021-08-13T10:13:48Z</time>
      </trkpt>
      <trkpt lat="46.62136" lon="3.76663">
        <ele>253.93</ele>
        <time>2021-08-13T10:13:49Z</time>
      </trkpt>
      <trkpt lat="46.62132" lon="3.76656">
        <ele>253.44</ele>
        <time>2021-08-13T10:13:50Z</time>
      </trkpt>
      <trkpt lat="46.62128" lon="3.76652">
        <ele>252.96</ele>
        <time>2021-08-13T10:13:51Z</time>
      </trkpt>
      <trkpt lat="46.62123" lon="3.76649">
        <ele>252.48</ele>
        <time>2021-08-13T10:13:52Z</time>
      </trkpt>
      <trkpt lat="46.62118" lon="3.76646">
        <ele>252.48</ele>
        <time>2021-08-13T10:13:53Z</time>
      </trkpt>
      <trkpt lat="46.62113" lon="3.76642">
        <ele>252</ele>
        <time>2021-08-13T10:13:54Z</time>
      </trkpt>
      <trkpt lat="46.62102" lon="3.76627">
        <ele>250.56</ele>
        <time>2021-08-13T10:13:59Z</time>
      </trkpt>
      <trkpt lat="46.62102" lon="3.76623">
        <ele>250.08</ele>
        <time>2021-08-13T10:14:00Z</time>
      </trkpt>
      <trkpt lat="46.62107" lon="3.76595">
        <ele>249.12</ele>
        <time>2021-08-13T10:14:06Z</time>
      </trkpt>
      <trkpt lat="46.62109" lon="3.76577">
        <ele>248.64</ele>
        <time>2021-08-13T10:14:09Z</time>
      </trkpt>
      <trkpt lat="46.62107" lon="3.76572">
        <ele>248.16</ele>
        <time>2021-08-13T10:14:10Z</time>
      </trkpt>
      <trkpt lat="46.62104" lon="3.76569">
        <ele>247.68</ele>
        <time>2021-08-13T10:14:11Z</time>
      </trkpt>
      <trkpt lat="46.62101" lon="3.76565">
        <ele>247.68</ele>
        <time>2021-08-13T10:14:12Z</time>
      </trkpt>
      <trkpt lat="46.62099" lon="3.7656">
        <ele>247.68</ele>
        <time>2021-08-13T10:14:13Z</time>
      </trkpt>
      <trkpt lat="46.62098" lon="3.76556">
        <ele>247.68</ele>
        <time>2021-08-13T10:14:14Z</time>
      </trkpt>
      <trkpt lat="46.62098" lon="3.76553">
        <ele>247.68</ele>
        <time>2021-08-13T10:14:15Z</time>
      </trkpt>
      <trkpt lat="46.62097" lon="3.7655">
        <ele>247.68</ele>
        <time>2021-08-13T10:14:16Z</time>
      </trkpt>
      <trkpt lat="46.62096" lon="3.76547">
        <ele>247.2</ele>
        <time>2021-08-13T10:14:17Z</time>
      </trkpt>
      <trkpt lat="46.62091" lon="3.76541">
        <ele>246.23</ele>
        <time>2021-08-13T10:14:19Z</time>
      </trkpt>
      <trkpt lat="46.62074" lon="3.76526">
        <ele>245.27</ele>
        <time>2021-08-13T10:14:23Z</time>
      </trkpt>
      <trkpt lat="46.62055" lon="3.76507">
        <ele>243.83</ele>
        <time>2021-08-13T10:14:28Z</time>
      </trkpt>
      <trkpt lat="46.62044" lon="3.76478">
        <ele>242.87</ele>
        <time>2021-08-13T10:14:34Z</time>
      </trkpt>
      <trkpt lat="46.62046" lon="3.76473">
        <ele>242.87</ele>
        <time>2021-08-13T10:14:35Z</time>
      </trkpt>
      <trkpt lat="46.62048" lon="3.76471">
        <ele>242.87</ele>
        <time>2021-08-13T10:14:36Z</time>
      </trkpt>
      <trkpt lat="46.62071" lon="3.76446">
        <ele>243.35</ele>
        <time>2021-08-13T10:14:45Z</time>
      </trkpt>
      <trkpt lat="46.62086" lon="3.7643">
        <ele>243.35</ele>
        <time>2021-08-13T10:14:51Z</time>
      </trkpt>
      <trkpt lat="46.62088" lon="3.76427">
        <ele>243.35</ele>
        <time>2021-08-13T10:14:52Z</time>
      </trkpt>
      <trkpt lat="46.62085" lon="3.76401">
        <ele>243.35</ele>
        <time>2021-08-13T10:14:58Z</time>
      </trkpt>
      <trkpt lat="46.62087" lon="3.7637">
        <ele>242.87</ele>
        <time>2021-08-13T10:15:04Z</time>
      </trkpt>
      <trkpt lat="46.621" lon="3.76357">
        <ele>242.87</ele>
        <time>2021-08-13T10:15:09Z</time>
      </trkpt>
      <trkpt lat="46.6212" lon="3.76342">
        <ele>242.87</ele>
        <time>2021-08-13T10:15:15Z</time>
      </trkpt>
      <trkpt lat="46.62126" lon="3.76333">
        <ele>242.39</ele>
        <time>2021-08-13T10:15:17Z</time>
      </trkpt>
      <trkpt lat="46.62128" lon="3.76327">
        <ele>242.39</ele>
        <time>2021-08-13T10:15:18Z</time>
      </trkpt>
      <trkpt lat="46.62133" lon="3.7631">
        <ele>242.39</ele>
        <time>2021-08-13T10:15:21Z</time>
      </trkpt>
      <trkpt lat="46.62135" lon="3.76305">
        <ele>242.39</ele>
        <time>2021-08-13T10:15:22Z</time>
      </trkpt>
      <trkpt lat="46.6214" lon="3.76293">
        <ele>242.39</ele>
        <time>2021-08-13T10:15:24Z</time>
      </trkpt>
      <trkpt lat="46.62141" lon="3.76285">
        <ele>241.91</ele>
        <time>2021-08-13T10:15:25Z</time>
      </trkpt>
      <trkpt lat="46.62145" lon="3.7624">
        <ele>240.95</ele>
        <time>2021-08-13T10:15:31Z</time>
      </trkpt>
      <trkpt lat="46.62148" lon="3.76233">
        <ele>240.95</ele>
        <time>2021-08-13T10:15:32Z</time>
      </trkpt>
      <trkpt lat="46.62151" lon="3.76228">
        <ele>240.95</ele>
        <time>2021-08-13T10:15:33Z</time>
      </trkpt>
      <trkpt lat="46.62156" lon="3.76225">
        <ele>240.95</ele>
        <time>2021-08-13T10:15:34Z</time>
      </trkpt>
      <trkpt lat="46.6216" lon="3.76225">
        <ele>240.95</ele>
        <time>2021-08-13T10:15:35Z</time>
      </trkpt>
      <trkpt lat="46.62164" lon="3.76226">
        <ele>240.95</ele>
        <time>2021-08-13T10:15:36Z</time>
      </trkpt>
      <trkpt lat="46.62179" lon="3.76233">
        <ele>240.95</ele>
        <time>2021-08-13T10:15:40Z</time>
      </trkpt>
      <trkpt lat="46.62184" lon="3.76234">
        <ele>240.95</ele>
        <time>2021-08-13T10:15:41Z</time>
      </trkpt>
      <trkpt lat="46.62187" lon="3.76232">
        <ele>240.95</ele>
        <time>2021-08-13T10:15:42Z</time>
      </trkpt>
      <trkpt lat="46.62189" lon="3.76228">
        <ele>240.95</ele>
        <time>2021-08-13T10:15:43Z</time>
      </trkpt>
      <trkpt lat="46.6219" lon="3.76222">
        <ele>241.91</ele>
        <time>2021-08-13T10:15:44Z</time>
      </trkpt>
      <trkpt lat="46.62196" lon="3.76194">
        <ele>241.91</ele>
        <time>2021-08-13T10:15:49Z</time>
      </trkpt>
      <trkpt lat="46.62201" lon="3.76174">
        <ele>241.91</ele>
        <time>2021-08-13T10:15:52Z</time>
      </trkpt>
      <trkpt lat="46.62203" lon="3.76167">
        <ele>241.91</ele>
        <time>2021-08-13T10:15:53Z</time>
      </trkpt>
      <trkpt lat="46.62217" lon="3.76104">
        <ele>241.91</ele>
        <time>2021-08-13T10:16:02Z</time>
      </trkpt>
      <trkpt lat="46.62219" lon="3.76097">
        <ele>241.91</ele>
        <time>2021-08-13T10:16:03Z</time>
      </trkpt>
      <trkpt lat="46.62221" lon="3.7609">
        <ele>241.91</ele>
        <time>2021-08-13T10:16:04Z</time>
      </trkpt>
      <trkpt lat="46.62232" lon="3.76033">
        <ele>241.91</ele>
        <time>2021-08-13T10:16:12Z</time>
      </trkpt>
      <trkpt lat="46.62233" lon="3.76019">
        <ele>241.91</ele>
        <time>2021-08-13T10:16:14Z</time>
      </trkpt>
      <trkpt lat="46.62236" lon="3.75951">
        <ele>240.47</ele>
        <time>2021-08-13T10:16:24Z</time>
      </trkpt>
      <trkpt lat="46.62237" lon="3.75943">
        <ele>240.47</ele>
        <time>2021-08-13T10:16:25Z</time>
      </trkpt>
      <trkpt lat="46.62246" lon="3.75873">
        <ele>240.47</ele>
        <time>2021-08-13T10:16:35Z</time>
      </trkpt>
      <trkpt lat="46.62253" lon="3.75824">
        <ele>239.99</ele>
        <time>2021-08-13T10:16:42Z</time>
      </trkpt>
      <trkpt lat="46.62253" lon="3.75808">
        <ele>239.99</ele>
        <time>2021-08-13T10:16:44Z</time>
      </trkpt>
      <trkpt lat="46.62253" lon="3.758">
        <ele>239.51</ele>
        <time>2021-08-13T10:16:45Z</time>
      </trkpt>
      <trkpt lat="46.62263" lon="3.75734">
        <ele>239.51</ele>
        <time>2021-08-13T10:16:54Z</time>
      </trkpt>
      <trkpt lat="46.62272" lon="3.7567">
        <ele>239.51</ele>
        <time>2021-08-13T10:17:03Z</time>
      </trkpt>
      <trkpt lat="46.62278" lon="3.75618">
        <ele>239.51</ele>
        <time>2021-08-13T10:17:10Z</time>
      </trkpt>
      <trkpt lat="46.62277" lon="3.75611">
        <ele>239.51</ele>
        <time>2021-08-13T10:17:11Z</time>
      </trkpt>
      <trkpt lat="46.62276" lon="3.75604">
        <ele>239.51</ele>
        <time>2021-08-13T10:17:12Z</time>
      </trkpt>
      <trkpt lat="46.62274" lon="3.75592">
        <ele>239.51</ele>
        <time>2021-08-13T10:17:14Z</time>
      </trkpt>
      <trkpt lat="46.62273" lon="3.75584">
        <ele>239.51</ele>
        <time>2021-08-13T10:17:15Z</time>
      </trkpt>
      <trkpt lat="46.62274" lon="3.75578">
        <ele>239.51</ele>
        <time>2021-08-13T10:17:16Z</time>
      </trkpt>
      <trkpt lat="46.62273" lon="3.75551">
        <ele>239.51</ele>
        <time>2021-08-13T10:17:20Z</time>
      </trkpt>
      <trkpt lat="46.62272" lon="3.75544">
        <ele>239.51</ele>
        <time>2021-08-13T10:17:21Z</time>
      </trkpt>
      <trkpt lat="46.62269" lon="3.75482">
        <ele>239.51</ele>
        <time>2021-08-13T10:17:29Z</time>
      </trkpt>
      <trkpt lat="46.62265" lon="3.75431">
        <ele>239.51</ele>
        <time>2021-08-13T10:17:36Z</time>
      </trkpt>
      <trkpt lat="46.6226" lon="3.75403">
        <ele>239.51</ele>
        <time>2021-08-13T10:17:40Z</time>
      </trkpt>
      <trkpt lat="46.62255" lon="3.75383">
        <ele>239.51</ele>
        <time>2021-08-13T10:17:43Z</time>
      </trkpt>
      <trkpt lat="46.62252" lon="3.75377">
        <ele>239.51</ele>
        <time>2021-08-13T10:17:44Z</time>
      </trkpt>
      <trkpt lat="46.62249" lon="3.75371">
        <ele>239.51</ele>
        <time>2021-08-13T10:17:45Z</time>
      </trkpt>
      <trkpt lat="46.62246" lon="3.75367">
        <ele>239.51</ele>
        <time>2021-08-13T10:17:46Z</time>
      </trkpt>
      <trkpt lat="46.62243" lon="3.75361">
        <ele>239.51</ele>
        <time>2021-08-13T10:17:47Z</time>
      </trkpt>
      <trkpt lat="46.62241" lon="3.75355">
        <ele>239.51</ele>
        <time>2021-08-13T10:17:48Z</time>
      </trkpt>
      <trkpt lat="46.62238" lon="3.7535">
        <ele>239.51</ele>
        <time>2021-08-13T10:17:49Z</time>
      </trkpt>
      <trkpt lat="46.62234" lon="3.75347">
        <ele>239.51</ele>
        <time>2021-08-13T10:17:50Z</time>
      </trkpt>
      <trkpt lat="46.62215" lon="3.75332">
        <ele>239.51</ele>
        <time>2021-08-13T10:17:55Z</time>
      </trkpt>
      <trkpt lat="46.62212" lon="3.75328">
        <ele>239.51</ele>
        <time>2021-08-13T10:17:56Z</time>
      </trkpt>
      <trkpt lat="46.62209" lon="3.75323">
        <ele>239.51</ele>
        <time>2021-08-13T10:17:57Z</time>
      </trkpt>
      <trkpt lat="46.62207" lon="3.75317">
        <ele>239.51</ele>
        <time>2021-08-13T10:17:58Z</time>
      </trkpt>
      <trkpt lat="46.62205" lon="3.7531">
        <ele>239.51</ele>
        <time>2021-08-13T10:17:59Z</time>
      </trkpt>
      <trkpt lat="46.62204" lon="3.75304">
        <ele>239.51</ele>
        <time>2021-08-13T10:18:00Z</time>
      </trkpt>
      <trkpt lat="46.62202" lon="3.75291">
        <ele>239.51</ele>
        <time>2021-08-13T10:18:02Z</time>
      </trkpt>
      <trkpt lat="46.62201" lon="3.75277">
        <ele>239.51</ele>
        <time>2021-08-13T10:18:04Z</time>
      </trkpt>
      <trkpt lat="46.622" lon="3.75272">
        <ele>239.51</ele>
        <time>2021-08-13T10:18:05Z</time>
      </trkpt>
      <trkpt lat="46.62199" lon="3.75265">
        <ele>239.51</ele>
        <time>2021-08-13T10:18:06Z</time>
      </trkpt>
      <trkpt lat="46.62197" lon="3.75259">
        <ele>239.51</ele>
        <time>2021-08-13T10:18:07Z</time>
      </trkpt>
      <trkpt lat="46.62195" lon="3.75254">
        <ele>239.51</ele>
        <time>2021-08-13T10:18:08Z</time>
      </trkpt>
      <trkpt lat="46.62192" lon="3.75248">
        <ele>239.02</ele>
        <time>2021-08-13T10:18:09Z</time>
      </trkpt>
      <trkpt lat="46.6219" lon="3.75243">
        <ele>239.02</ele>
        <time>2021-08-13T10:18:10Z</time>
      </trkpt>
      <trkpt lat="46.62187" lon="3.75237">
        <ele>239.02</ele>
        <time>2021-08-13T10:18:11Z</time>
      </trkpt>
      <trkpt lat="46.62185" lon="3.75232">
        <ele>239.02</ele>
        <time>2021-08-13T10:18:12Z</time>
      </trkpt>
      <trkpt lat="46.62184" lon="3.75226">
        <ele>239.02</ele>
        <time>2021-08-13T10:18:13Z</time>
      </trkpt>
      <trkpt lat="46.62184" lon="3.75222">
        <ele>239.51</ele>
        <time>2021-08-13T10:18:14Z</time>
      </trkpt>
      <trkpt lat="46.62182" lon="3.75217">
        <ele>239.02</ele>
        <time>2021-08-13T10:18:15Z</time>
      </trkpt>
      <trkpt lat="46.62179" lon="3.75215">
        <ele>239.02</ele>
        <time>2021-08-13T10:18:16Z</time>
      </trkpt>
      <trkpt lat="46.62175" lon="3.75215">
        <ele>239.02</ele>
        <time>2021-08-13T10:18:17Z</time>
      </trkpt>
      <trkpt lat="46.62172" lon="3.75216">
        <ele>238.54</ele>
        <time>2021-08-13T10:18:18Z</time>
      </trkpt>
      <trkpt lat="46.62168" lon="3.75218">
        <ele>238.54</ele>
        <time>2021-08-13T10:18:19Z</time>
      </trkpt>
      <trkpt lat="46.62164" lon="3.75219">
        <ele>237.58</ele>
        <time>2021-08-13T10:18:20Z</time>
      </trkpt>
      <trkpt lat="46.6216" lon="3.75219">
        <ele>237.1</ele>
        <time>2021-08-13T10:18:21Z</time>
      </trkpt>
      <trkpt lat="46.62156" lon="3.75218">
        <ele>237.1</ele>
        <time>2021-08-13T10:18:22Z</time>
      </trkpt>
      <trkpt lat="46.62153" lon="3.75213">
        <ele>236.62</ele>
        <time>2021-08-13T10:18:23Z</time>
      </trkpt>
      <trkpt lat="46.62152" lon="3.75206">
        <ele>236.14</ele>
        <time>2021-08-13T10:18:24Z</time>
      </trkpt>
      <trkpt lat="46.6215" lon="3.75199">
        <ele>236.14</ele>
        <time>2021-08-13T10:18:25Z</time>
      </trkpt>
      <trkpt lat="46.62149" lon="3.75192">
        <ele>236.14</ele>
        <time>2021-08-13T10:18:26Z</time>
      </trkpt>
      <trkpt lat="46.62147" lon="3.75178">
        <ele>236.14</ele>
        <time>2021-08-13T10:18:28Z</time>
      </trkpt>
      <trkpt lat="46.62148" lon="3.75171">
        <ele>236.14</ele>
        <time>2021-08-13T10:18:29Z</time>
      </trkpt>
      <trkpt lat="46.6215" lon="3.75164">
        <ele>236.14</ele>
        <time>2021-08-13T10:18:30Z</time>
      </trkpt>
      <trkpt lat="46.62153" lon="3.75158">
        <ele>236.14</ele>
        <time>2021-08-13T10:18:31Z</time>
      </trkpt>
      <trkpt lat="46.62155" lon="3.75152">
        <ele>236.14</ele>
        <time>2021-08-13T10:18:32Z</time>
      </trkpt>
      <trkpt lat="46.62166" lon="3.7513">
        <ele>236.14</ele>
        <time>2021-08-13T10:18:36Z</time>
      </trkpt>
      <trkpt lat="46.62168" lon="3.75125">
        <ele>236.14</ele>
        <time>2021-08-13T10:18:37Z</time>
      </trkpt>
      <trkpt lat="46.62187" lon="3.75087">
        <ele>237.58</ele>
        <time>2021-08-13T10:18:45Z</time>
      </trkpt>
      <trkpt lat="46.62202" lon="3.75051">
        <ele>238.06</ele>
        <time>2021-08-13T10:18:53Z</time>
      </trkpt>
      <trkpt lat="46.62218" lon="3.75024">
        <ele>239.51</ele>
        <time>2021-08-13T10:19:01Z</time>
      </trkpt>
      <trkpt lat="46.62243" lon="3.75004">
        <ele>239.99</ele>
        <time>2021-08-13T10:19:11Z</time>
      </trkpt>
      <trkpt lat="46.62266" lon="3.74992">
        <ele>240.47</ele>
        <time>2021-08-13T10:19:19Z</time>
      </trkpt>
      <trkpt lat="46.62291" lon="3.74975">
        <ele>241.43</ele>
        <time>2021-08-13T10:19:27Z</time>
      </trkpt>
      <trkpt lat="46.62311" lon="3.74973">
        <ele>241.91</ele>
        <time>2021-08-13T10:19:34Z</time>
      </trkpt>
      <trkpt lat="46.62334" lon="3.74973">
        <ele>242.87</ele>
        <time>2021-08-13T10:19:42Z</time>
      </trkpt>
      <trkpt lat="46.62358" lon="3.74973">
        <ele>244.79</ele>
        <time>2021-08-13T10:19:52Z</time>
      </trkpt>
      <trkpt lat="46.62376" lon="3.74973">
        <ele>245.75</ele>
        <time>2021-08-13T10:20:00Z</time>
      </trkpt>
      <trkpt lat="46.624" lon="3.74978">
        <ele>246.72</ele>
        <time>2021-08-13T10:20:10Z</time>
      </trkpt>
      <trkpt lat="46.6242" lon="3.74987">
        <ele>247.2</ele>
        <time>2021-08-13T10:20:18Z</time>
      </trkpt>
      <trkpt lat="46.62424" lon="3.7499">
        <ele>247.68</ele>
        <time>2021-08-13T10:20:20Z</time>
      </trkpt>
      <trkpt lat="46.62426" lon="3.74991">
        <ele>247.2</ele>
        <time>2021-08-13T10:20:21Z</time>
      </trkpt>
      <trkpt lat="46.62428" lon="3.74992">
        <ele>248.16</ele>
        <time>2021-08-13T10:20:22Z</time>
      </trkpt>
      <trkpt lat="46.62444" lon="3.74987">
        <ele>249.12</ele>
        <time>2021-08-13T10:20:29Z</time>
      </trkpt>
      <trkpt lat="46.62465" lon="3.74984">
        <ele>249.6</ele>
        <time>2021-08-13T10:20:38Z</time>
      </trkpt>
      <trkpt lat="46.6249" lon="3.74982">
        <ele>250.56</ele>
        <time>2021-08-13T10:20:48Z</time>
      </trkpt>
      <trkpt lat="46.62497" lon="3.74979">
        <ele>251.04</ele>
        <time>2021-08-13T10:20:51Z</time>
      </trkpt>
      <trkpt lat="46.62499" lon="3.74976">
        <ele>251.04</ele>
        <time>2021-08-13T10:20:52Z</time>
      </trkpt>
      <trkpt lat="46.625" lon="3.74973">
        <ele>251.04</ele>
        <time>2021-08-13T10:20:53Z</time>
      </trkpt>
      <trkpt lat="46.62502" lon="3.7497">
        <ele>251.04</ele>
        <time>2021-08-13T10:20:54Z</time>
      </trkpt>
      <trkpt lat="46.62504" lon="3.74968">
        <ele>251.52</ele>
        <time>2021-08-13T10:20:55Z</time>
      </trkpt>
      <trkpt lat="46.62506" lon="3.74966">
        <ele>251.52</ele>
        <time>2021-08-13T10:20:56Z</time>
      </trkpt>
      <trkpt lat="46.62508" lon="3.74966">
        <ele>251.52</ele>
        <time>2021-08-13T10:20:57Z</time>
      </trkpt>
      <trkpt lat="46.6251" lon="3.74966">
        <ele>251.52</ele>
        <time>2021-08-13T10:20:58Z</time>
      </trkpt>
      <trkpt lat="46.62513" lon="3.74966">
        <ele>251.52</ele>
        <time>2021-08-13T10:20:59Z</time>
      </trkpt>
      <trkpt lat="46.62535" lon="3.74963">
        <ele>252.48</ele>
        <time>2021-08-13T10:21:08Z</time>
      </trkpt>
      <trkpt lat="46.62555" lon="3.74961">
        <ele>253.44</ele>
        <time>2021-08-13T10:21:14Z</time>
      </trkpt>
      <trkpt lat="46.62595" lon="3.7496">
        <ele>252.96</ele>
        <time>2021-08-13T10:21:24Z</time>
      </trkpt>
      <trkpt lat="46.62618" lon="3.74955">
        <ele>252.96</ele>
        <time>2021-08-13T10:21:31Z</time>
      </trkpt>
      <trkpt lat="46.62627" lon="3.74946">
        <ele>252.96</ele>
        <time>2021-08-13T10:21:34Z</time>
      </trkpt>
      <trkpt lat="46.62628" lon="3.74941">
        <ele>252.96</ele>
        <time>2021-08-13T10:21:35Z</time>
      </trkpt>
      <trkpt lat="46.62629" lon="3.74936">
        <ele>252.96</ele>
        <time>2021-08-13T10:21:36Z</time>
      </trkpt>
      <trkpt lat="46.62631" lon="3.74932">
        <ele>252.96</ele>
        <time>2021-08-13T10:21:37Z</time>
      </trkpt>
      <trkpt lat="46.62633" lon="3.74927">
        <ele>252.96</ele>
        <time>2021-08-13T10:21:38Z</time>
      </trkpt>
      <trkpt lat="46.62634" lon="3.74922">
        <ele>252.96</ele>
        <time>2021-08-13T10:21:39Z</time>
      </trkpt>
      <trkpt lat="46.62635" lon="3.74917">
        <ele>252.96</ele>
        <time>2021-08-13T10:21:40Z</time>
      </trkpt>
      <trkpt lat="46.62634" lon="3.74912">
        <ele>252.96</ele>
        <time>2021-08-13T10:21:41Z</time>
      </trkpt>
      <trkpt lat="46.62633" lon="3.74908">
        <ele>252.96</ele>
        <time>2021-08-13T10:21:42Z</time>
      </trkpt>
      <trkpt lat="46.62631" lon="3.74904">
        <ele>252.96</ele>
        <time>2021-08-13T10:21:43Z</time>
      </trkpt>
      <trkpt lat="46.62629" lon="3.74899">
        <ele>252</ele>
        <time>2021-08-13T10:21:44Z</time>
      </trkpt>
      <trkpt lat="46.62628" lon="3.74892">
        <ele>252</ele>
        <time>2021-08-13T10:21:45Z</time>
      </trkpt>
      <trkpt lat="46.62628" lon="3.74887">
        <ele>252</ele>
        <time>2021-08-13T10:21:46Z</time>
      </trkpt>
      <trkpt lat="46.6263" lon="3.74881">
        <ele>252</ele>
        <time>2021-08-13T10:21:47Z</time>
      </trkpt>
      <trkpt lat="46.62631" lon="3.74875">
        <ele>252</ele>
        <time>2021-08-13T10:21:48Z</time>
      </trkpt>
      <trkpt lat="46.62644" lon="3.74823">
        <ele>251.04</ele>
        <time>2021-08-13T10:21:56Z</time>
      </trkpt>
      <trkpt lat="46.62658" lon="3.74767">
        <ele>250.08</ele>
        <time>2021-08-13T10:22:04Z</time>
      </trkpt>
      <trkpt lat="46.62661" lon="3.74754">
        <ele>250.08</ele>
        <time>2021-08-13T10:22:06Z</time>
      </trkpt>
      <trkpt lat="46.62673" lon="3.74698">
        <ele>249.12</ele>
        <time>2021-08-13T10:22:13Z</time>
      </trkpt>
      <trkpt lat="46.62679" lon="3.74675">
        <ele>248.64</ele>
        <time>2021-08-13T10:22:16Z</time>
      </trkpt>
      <trkpt lat="46.62683" lon="3.74653">
        <ele>248.64</ele>
        <time>2021-08-13T10:22:19Z</time>
      </trkpt>
      <trkpt lat="46.62698" lon="3.74589">
        <ele>247.68</ele>
        <time>2021-08-13T10:22:27Z</time>
      </trkpt>
      <trkpt lat="46.62716" lon="3.74507">
        <ele>247.68</ele>
        <time>2021-08-13T10:22:37Z</time>
      </trkpt>
      <trkpt lat="46.62732" lon="3.74442">
        <ele>247.68</ele>
        <time>2021-08-13T10:22:46Z</time>
      </trkpt>
      <trkpt lat="46.62737" lon="3.74425">
        <ele>249.12</ele>
        <time>2021-08-13T10:22:49Z</time>
      </trkpt>
      <trkpt lat="46.6274" lon="3.74415">
        <ele>249.12</ele>
        <time>2021-08-13T10:22:51Z</time>
      </trkpt>
      <trkpt lat="46.62749" lon="3.74364">
        <ele>249.12</ele>
        <time>2021-08-13T10:22:58Z</time>
      </trkpt>
      <trkpt lat="46.62761" lon="3.74308">
        <ele>248.64</ele>
        <time>2021-08-13T10:23:06Z</time>
      </trkpt>
      <trkpt lat="46.62772" lon="3.74259">
        <ele>248.64</ele>
        <time>2021-08-13T10:23:13Z</time>
      </trkpt>
      <trkpt lat="46.62772" lon="3.74252">
        <ele>248.64</ele>
        <time>2021-08-13T10:23:14Z</time>
      </trkpt>
      <trkpt lat="46.62771" lon="3.74245">
        <ele>248.64</ele>
        <time>2021-08-13T10:23:15Z</time>
      </trkpt>
      <trkpt lat="46.62769" lon="3.74231">
        <ele>248.64</ele>
        <time>2021-08-13T10:23:17Z</time>
      </trkpt>
      <trkpt lat="46.62769" lon="3.74223">
        <ele>247.2</ele>
        <time>2021-08-13T10:23:18Z</time>
      </trkpt>
      <trkpt lat="46.6277" lon="3.74215">
        <ele>247.2</ele>
        <time>2021-08-13T10:23:19Z</time>
      </trkpt>
      <trkpt lat="46.62769" lon="3.74199">
        <ele>247.2</ele>
        <time>2021-08-13T10:23:21Z</time>
      </trkpt>
      <trkpt lat="46.62768" lon="3.74191">
        <ele>246.72</ele>
        <time>2021-08-13T10:23:22Z</time>
      </trkpt>
      <trkpt lat="46.62763" lon="3.74138">
        <ele>246.72</ele>
        <time>2021-08-13T10:23:29Z</time>
      </trkpt>
      <trkpt lat="46.62757" lon="3.74096">
        <ele>246.23</ele>
        <time>2021-08-13T10:23:35Z</time>
      </trkpt>
      <trkpt lat="46.62757" lon="3.74089">
        <ele>246.23</ele>
        <time>2021-08-13T10:23:36Z</time>
      </trkpt>
      <trkpt lat="46.62757" lon="3.74081">
        <ele>246.23</ele>
        <time>2021-08-13T10:23:37Z</time>
      </trkpt>
      <trkpt lat="46.62756" lon="3.74067">
        <ele>246.23</ele>
        <time>2021-08-13T10:23:39Z</time>
      </trkpt>
      <trkpt lat="46.62746" lon="3.73995">
        <ele>244.79</ele>
        <time>2021-08-13T10:23:48Z</time>
      </trkpt>
      <trkpt lat="46.62727" lon="3.73875">
        <ele>242.87</ele>
        <time>2021-08-13T10:24:02Z</time>
      </trkpt>
      <trkpt lat="46.62712" lon="3.7378">
        <ele>241.43</ele>
        <time>2021-08-13T10:24:13Z</time>
      </trkpt>
      <trkpt lat="46.62701" lon="3.7371">
        <ele>240.47</ele>
        <time>2021-08-13T10:24:22Z</time>
      </trkpt>
      <trkpt lat="46.62699" lon="3.737">
        <ele>240.47</ele>
        <time>2021-08-13T10:24:25Z</time>
      </trkpt>
      <trkpt lat="46.62696" lon="3.73671">
        <ele>239.51</ele>
        <time>2021-08-13T10:24:31Z</time>
      </trkpt>
      <trkpt lat="46.62687" lon="3.73621">
        <ele>238.54</ele>
        <time>2021-08-13T10:24:38Z</time>
      </trkpt>
      <trkpt lat="46.62672" lon="3.73522">
        <ele>237.1</ele>
        <time>2021-08-13T10:24:50Z</time>
      </trkpt>
      <trkpt lat="46.6266" lon="3.73445">
        <ele>235.66</ele>
        <time>2021-08-13T10:24:59Z</time>
      </trkpt>
      <trkpt lat="46.62655" lon="3.73368">
        <ele>234.7</ele>
        <time>2021-08-13T10:25:07Z</time>
      </trkpt>
      <trkpt lat="46.62664" lon="3.73311">
        <ele>234.22</ele>
        <time>2021-08-13T10:25:13Z</time>
      </trkpt>
      <trkpt lat="46.62687" lon="3.73254">
        <ele>232.78</ele>
        <time>2021-08-13T10:25:20Z</time>
      </trkpt>
      <trkpt lat="46.62709" lon="3.73225">
        <ele>232.3</ele>
        <time>2021-08-13T10:25:25Z</time>
      </trkpt>
      <trkpt lat="46.62712" lon="3.7322">
        <ele>232.3</ele>
        <time>2021-08-13T10:25:26Z</time>
      </trkpt>
      <trkpt lat="46.62711" lon="3.73214">
        <ele>232.3</ele>
        <time>2021-08-13T10:25:27Z</time>
      </trkpt>
      <trkpt lat="46.6271" lon="3.7321">
        <ele>232.3</ele>
        <time>2021-08-13T10:25:28Z</time>
      </trkpt>
      <trkpt lat="46.62709" lon="3.73205">
        <ele>232.3</ele>
        <time>2021-08-13T10:25:29Z</time>
      </trkpt>
      <trkpt lat="46.62709" lon="3.732">
        <ele>232.3</ele>
        <time>2021-08-13T10:25:30Z</time>
      </trkpt>
      <trkpt lat="46.62709" lon="3.73195">
        <ele>232.3</ele>
        <time>2021-08-13T10:25:31Z</time>
      </trkpt>
      <trkpt lat="46.62711" lon="3.73191">
        <ele>232.3</ele>
        <time>2021-08-13T10:25:32Z</time>
      </trkpt>
      <trkpt lat="46.62713" lon="3.73188">
        <ele>232.3</ele>
        <time>2021-08-13T10:25:33Z</time>
      </trkpt>
      <trkpt lat="46.62716" lon="3.73184">
        <ele>232.3</ele>
        <time>2021-08-13T10:25:34Z</time>
      </trkpt>
      <trkpt lat="46.62719" lon="3.73181">
        <ele>232.3</ele>
        <time>2021-08-13T10:25:35Z</time>
      </trkpt>
      <trkpt lat="46.62747" lon="3.73152">
        <ele>231.81</ele>
        <time>2021-08-13T10:25:42Z</time>
      </trkpt>
      <trkpt lat="46.6276" lon="3.7314">
        <ele>231.81</ele>
        <time>2021-08-13T10:25:45Z</time>
      </trkpt>
      <trkpt lat="46.62777" lon="3.73126">
        <ele>231.81</ele>
        <time>2021-08-13T10:25:49Z</time>
      </trkpt>
      <trkpt lat="46.62783" lon="3.73118">
        <ele>231.81</ele>
        <time>2021-08-13T10:25:51Z</time>
      </trkpt>
      <trkpt lat="46.62787" lon="3.73114">
        <ele>231.81</ele>
        <time>2021-08-13T10:25:52Z</time>
      </trkpt>
      <trkpt lat="46.62791" lon="3.7311">
        <ele>231.81</ele>
        <time>2021-08-13T10:25:53Z</time>
      </trkpt>
      <trkpt lat="46.62807" lon="3.73097">
        <ele>231.81</ele>
        <time>2021-08-13T10:25:57Z</time>
      </trkpt>
      <trkpt lat="46.62811" lon="3.73094">
        <ele>231.81</ele>
        <time>2021-08-13T10:25:58Z</time>
      </trkpt>
      <trkpt lat="46.62815" lon="3.73091">
        <ele>231.81</ele>
        <time>2021-08-13T10:25:59Z</time>
      </trkpt>
      <trkpt lat="46.62819" lon="3.73088">
        <ele>231.81</ele>
        <time>2021-08-13T10:26:00Z</time>
      </trkpt>
      <trkpt lat="46.62823" lon="3.73085">
        <ele>231.81</ele>
        <time>2021-08-13T10:26:01Z</time>
      </trkpt>
      <trkpt lat="46.62827" lon="3.73082">
        <ele>231.81</ele>
        <time>2021-08-13T10:26:02Z</time>
      </trkpt>
      <trkpt lat="46.62832" lon="3.7308">
        <ele>231.81</ele>
        <time>2021-08-13T10:26:03Z</time>
      </trkpt>
      <trkpt lat="46.62882" lon="3.73047">
        <ele>231.81</ele>
        <time>2021-08-13T10:26:15Z</time>
      </trkpt>
      <trkpt lat="46.62926" lon="3.73021">
        <ele>231.81</ele>
        <time>2021-08-13T10:26:25Z</time>
      </trkpt>
      <trkpt lat="46.62958" lon="3.73002">
        <ele>231.81</ele>
        <time>2021-08-13T10:26:33Z</time>
      </trkpt>
      <trkpt lat="46.62988" lon="3.72988">
        <ele>231.81</ele>
        <time>2021-08-13T10:26:41Z</time>
      </trkpt>
      <trkpt lat="46.62996" lon="3.72984">
        <ele>231.81</ele>
        <time>2021-08-13T10:26:44Z</time>
      </trkpt>
      <trkpt lat="46.62997" lon="3.72981">
        <ele>232.78</ele>
        <time>2021-08-13T10:26:45Z</time>
      </trkpt>
      <trkpt lat="46.62997" lon="3.72977">
        <ele>232.78</ele>
        <time>2021-08-13T10:26:46Z</time>
      </trkpt>
      <trkpt lat="46.63001" lon="3.72958">
        <ele>232.78</ele>
        <time>2021-08-13T10:26:50Z</time>
      </trkpt>
      <trkpt lat="46.63003" lon="3.72952">
        <ele>232.78</ele>
        <time>2021-08-13T10:26:51Z</time>
      </trkpt>
      <trkpt lat="46.63009" lon="3.7293">
        <ele>232.78</ele>
        <time>2021-08-13T10:26:54Z</time>
      </trkpt>
      <trkpt lat="46.63014" lon="3.72887">
        <ele>231.81</ele>
        <time>2021-08-13T10:26:59Z</time>
      </trkpt>
      <trkpt lat="46.63027" lon="3.72798">
        <ele>230.37</ele>
        <time>2021-08-13T10:27:08Z</time>
      </trkpt>
      <trkpt lat="46.63038" lon="3.72708">
        <ele>229.41</ele>
        <time>2021-08-13T10:27:17Z</time>
      </trkpt>
      <trkpt lat="46.63051" lon="3.72608">
        <ele>228.93</ele>
        <time>2021-08-13T10:27:27Z</time>
      </trkpt>
      <trkpt lat="46.63067" lon="3.72492">
        <ele>226.53</ele>
        <time>2021-08-13T10:27:38Z</time>
      </trkpt>
      <trkpt lat="46.63083" lon="3.72368">
        <ele>224.12</ele>
        <time>2021-08-13T10:27:49Z</time>
      </trkpt>
      <trkpt lat="46.63099" lon="3.72248">
        <ele>224.12</ele>
        <time>2021-08-13T10:28:00Z</time>
      </trkpt>
      <trkpt lat="46.63113" lon="3.72146">
        <ele>224.12</ele>
        <time>2021-08-13T10:28:10Z</time>
      </trkpt>
      <trkpt lat="46.63124" lon="3.72054">
        <ele>223.64</ele>
        <time>2021-08-13T10:28:19Z</time>
      </trkpt>
      <trkpt lat="46.63128" lon="3.71967">
        <ele>222.68</ele>
        <time>2021-08-13T10:28:28Z</time>
      </trkpt>
      <trkpt lat="46.63129" lon="3.7189">
        <ele>222.68</ele>
        <time>2021-08-13T10:28:36Z</time>
      </trkpt>
      <trkpt lat="46.63128" lon="3.71882">
        <ele>222.68</ele>
        <time>2021-08-13T10:28:37Z</time>
      </trkpt>
      <trkpt lat="46.63126" lon="3.71875">
        <ele>222.68</ele>
        <time>2021-08-13T10:28:38Z</time>
      </trkpt>
      <trkpt lat="46.63123" lon="3.71869">
        <ele>222.68</ele>
        <time>2021-08-13T10:28:39Z</time>
      </trkpt>
      <trkpt lat="46.63118" lon="3.71864">
        <ele>222.68</ele>
        <time>2021-08-13T10:28:40Z</time>
      </trkpt>
      <trkpt lat="46.63114" lon="3.7186">
        <ele>222.68</ele>
        <time>2021-08-13T10:28:41Z</time>
      </trkpt>
      <trkpt lat="46.6311" lon="3.71856">
        <ele>223.64</ele>
        <time>2021-08-13T10:28:42Z</time>
      </trkpt>
      <trkpt lat="46.63105" lon="3.71853">
        <ele>223.64</ele>
        <time>2021-08-13T10:28:43Z</time>
      </trkpt>
      <trkpt lat="46.63079" lon="3.71832">
        <ele>224.12</ele>
        <time>2021-08-13T10:28:50Z</time>
      </trkpt>
      <trkpt lat="46.63063" lon="3.7182">
        <ele>224.61</ele>
        <time>2021-08-13T10:28:56Z</time>
      </trkpt>
      <trkpt lat="46.63061" lon="3.71816">
        <ele>224.61</ele>
        <time>2021-08-13T10:28:57Z</time>
      </trkpt>
      <trkpt lat="46.63058" lon="3.71813">
        <ele>224.61</ele>
        <time>2021-08-13T10:28:58Z</time>
      </trkpt>
      <trkpt lat="46.63055" lon="3.71811">
        <ele>224.61</ele>
        <time>2021-08-13T10:28:59Z</time>
      </trkpt>
      <trkpt lat="46.63051" lon="3.71808">
        <ele>224.61</ele>
        <time>2021-08-13T10:29:00Z</time>
      </trkpt>
      <trkpt lat="46.63022" lon="3.71786">
        <ele>225.57</ele>
        <time>2021-08-13T10:29:08Z</time>
      </trkpt>
      <trkpt lat="46.63018" lon="3.71783">
        <ele>225.57</ele>
        <time>2021-08-13T10:29:09Z</time>
      </trkpt>
      <trkpt lat="46.62998" lon="3.71765">
        <ele>225.57</ele>
        <time>2021-08-13T10:29:16Z</time>
      </trkpt>
      <trkpt lat="46.6297" lon="3.71743">
        <ele>225.57</ele>
        <time>2021-08-13T10:29:25Z</time>
      </trkpt>
      <trkpt lat="46.62935" lon="3.71714">
        <ele>224.12</ele>
        <time>2021-08-13T10:29:34Z</time>
      </trkpt>
      <trkpt lat="46.62901" lon="3.71686">
        <ele>223.64</ele>
        <time>2021-08-13T10:29:42Z</time>
      </trkpt>
      <trkpt lat="46.62894" lon="3.71677">
        <ele>223.16</ele>
        <time>2021-08-13T10:29:44Z</time>
      </trkpt>
      <trkpt lat="46.62891" lon="3.71672">
        <ele>223.16</ele>
        <time>2021-08-13T10:29:45Z</time>
      </trkpt>
      <trkpt lat="46.62889" lon="3.71664">
        <ele>223.16</ele>
        <time>2021-08-13T10:29:46Z</time>
      </trkpt>
      <trkpt lat="46.62885" lon="3.71649">
        <ele>222.2</ele>
        <time>2021-08-13T10:29:48Z</time>
      </trkpt>
      <trkpt lat="46.62884" lon="3.71641">
        <ele>222.2</ele>
        <time>2021-08-13T10:29:49Z</time>
      </trkpt>
      <trkpt lat="46.62884" lon="3.71632">
        <ele>222.2</ele>
        <time>2021-08-13T10:29:50Z</time>
      </trkpt>
      <trkpt lat="46.62885" lon="3.71623">
        <ele>222.2</ele>
        <time>2021-08-13T10:29:51Z</time>
      </trkpt>
      <trkpt lat="46.62887" lon="3.71615">
        <ele>222.2</ele>
        <time>2021-08-13T10:29:52Z</time>
      </trkpt>
      <trkpt lat="46.62889" lon="3.71608">
        <ele>222.2</ele>
        <time>2021-08-13T10:29:53Z</time>
      </trkpt>
      <trkpt lat="46.62892" lon="3.71601">
        <ele>222.2</ele>
        <time>2021-08-13T10:29:54Z</time>
      </trkpt>
      <trkpt lat="46.62895" lon="3.71595">
        <ele>221.72</ele>
        <time>2021-08-13T10:29:55Z</time>
      </trkpt>
      <trkpt lat="46.62897" lon="3.7159">
        <ele>222.2</ele>
        <time>2021-08-13T10:29:56Z</time>
      </trkpt>
      <trkpt lat="46.62902" lon="3.71581">
        <ele>221.24</ele>
        <time>2021-08-13T10:29:58Z</time>
      </trkpt>
      <trkpt lat="46.62914" lon="3.71553">
        <ele>220.76</ele>
        <time>2021-08-13T10:30:03Z</time>
      </trkpt>
      <trkpt lat="46.62917" lon="3.71549">
        <ele>220.76</ele>
        <time>2021-08-13T10:30:04Z</time>
      </trkpt>
      <trkpt lat="46.6292" lon="3.71547">
        <ele>220.76</ele>
        <time>2021-08-13T10:30:05Z</time>
      </trkpt>
      <trkpt lat="46.62924" lon="3.71554">
        <ele>219.8</ele>
        <time>2021-08-13T10:30:07Z</time>
      </trkpt>
      <trkpt lat="46.62925" lon="3.7156">
        <ele>219.32</ele>
        <time>2021-08-13T10:30:08Z</time>
      </trkpt>
      <trkpt lat="46.62925" lon="3.71567">
        <ele>219.32</ele>
        <time>2021-08-13T10:30:09Z</time>
      </trkpt>
      <trkpt lat="46.62921" lon="3.7163">
        <ele>217.88</ele>
        <time>2021-08-13T10:30:17Z</time>
      </trkpt>
      <trkpt lat="46.6292" lon="3.71638">
        <ele>217.88</ele>
        <time>2021-08-13T10:30:18Z</time>
      </trkpt>
      <trkpt lat="46.62921" lon="3.71679">
        <ele>216.43</ele>
        <time>2021-08-13T10:30:24Z</time>
      </trkpt>
      <trkpt lat="46.62922" lon="3.71684">
        <ele>216.43</ele>
        <time>2021-08-13T10:30:25Z</time>
      </trkpt>
      <trkpt lat="46.62925" lon="3.71688">
        <ele>216.43</ele>
        <time>2021-08-13T10:30:26Z</time>
      </trkpt>
      <trkpt lat="46.62928" lon="3.71691">
        <ele>216.43</ele>
        <time>2021-08-13T10:30:27Z</time>
      </trkpt>
      <trkpt lat="46.62932" lon="3.71692">
        <ele>215.95</ele>
        <time>2021-08-13T10:30:28Z</time>
      </trkpt>
      <trkpt lat="46.62936" lon="3.71693">
        <ele>215.95</ele>
        <time>2021-08-13T10:30:29Z</time>
      </trkpt>
      <trkpt lat="46.62946" lon="3.71696">
        <ele>215.47</ele>
        <time>2021-08-13T10:30:31Z</time>
      </trkpt>
      <trkpt lat="46.62951" lon="3.71699">
        <ele>214.99</ele>
        <time>2021-08-13T10:30:32Z</time>
      </trkpt>
      <trkpt lat="46.62955" lon="3.71704">
        <ele>214.99</ele>
        <time>2021-08-13T10:30:33Z</time>
      </trkpt>
      <trkpt lat="46.62959" lon="3.71709">
        <ele>214.99</ele>
        <time>2021-08-13T10:30:34Z</time>
      </trkpt>
      <trkpt lat="46.62963" lon="3.71714">
        <ele>214.99</ele>
        <time>2021-08-13T10:30:35Z</time>
      </trkpt>
      <trkpt lat="46.62976" lon="3.71728">
        <ele>214.99</ele>
        <time>2021-08-13T10:30:38Z</time>
      </trkpt>
      <trkpt lat="46.62981" lon="3.7173">
        <ele>214.99</ele>
        <time>2021-08-13T10:30:39Z</time>
      </trkpt>
      <trkpt lat="46.6299" lon="3.71736">
        <ele>214.99</ele>
        <time>2021-08-13T10:30:41Z</time>
      </trkpt>
      <trkpt lat="46.62994" lon="3.7174">
        <ele>214.99</ele>
        <time>2021-08-13T10:30:42Z</time>
      </trkpt>
      <trkpt lat="46.62997" lon="3.71744">
        <ele>214.99</ele>
        <time>2021-08-13T10:30:43Z</time>
      </trkpt>
      <trkpt lat="46.62999" lon="3.71751">
        <ele>214.51</ele>
        <time>2021-08-13T10:30:44Z</time>
      </trkpt>
      <trkpt lat="46.63" lon="3.71757">
        <ele>214.51</ele>
        <time>2021-08-13T10:30:45Z</time>
      </trkpt>
      <trkpt lat="46.63003" lon="3.71768">
        <ele>214.51</ele>
        <time>2021-08-13T10:30:47Z</time>
      </trkpt>
      <trkpt lat="46.63005" lon="3.71771">
        <ele>214.51</ele>
        <time>2021-08-13T10:30:48Z</time>
      </trkpt>
      <trkpt lat="46.63008" lon="3.71773">
        <ele>214.51</ele>
        <time>2021-08-13T10:30:49Z</time>
      </trkpt>
      <trkpt lat="46.63016" lon="3.71778">
        <ele>214.51</ele>
        <time>2021-08-13T10:30:54Z</time>
      </trkpt>
      <trkpt lat="46.63024" lon="3.71782">
        <ele>214.51</ele>
        <time>2021-08-13T10:31:03Z</time>
      </trkpt>
      <trkpt lat="46.6303" lon="3.71783">
        <ele>214.51</ele>
        <time>2021-08-13T10:31:11Z</time>
      </trkpt>
      <trkpt lat="46.63036" lon="3.71783">
        <ele>213.07</ele>
        <time>2021-08-13T10:31:19Z</time>
      </trkpt>
      <trkpt lat="46.63037" lon="3.71782">
        <ele>212.59</ele>
        <time>2021-08-13T10:31:28Z</time>
      </trkpt>
      <trkpt lat="46.63037" lon="3.7178">
        <ele>212.59</ele>
        <time>2021-08-13T10:31:47Z</time>
      </trkpt>
      <trkpt lat="46.63035" lon="3.71781">
        <ele>212.59</ele>
        <time>2021-08-13T10:31:53Z</time>
      </trkpt>
      <trkpt lat="46.63033" lon="3.71781">
        <ele>214.03</ele>
        <time>2021-08-13T10:31:56Z</time>
      </trkpt>
      <trkpt lat="46.63026" lon="3.7178">
        <ele>214.99</ele>
        <time>2021-08-13T10:32:08Z</time>
      </trkpt>
      <trkpt lat="46.63026" lon="3.7178">
        <ele>214.99</ele>
        <time>2021-08-13T10:32:25Z</time>
      </trkpt>
      <trkpt lat="46.63026" lon="3.7178">
        <ele>214.99</ele>
        <time>2021-08-13T10:32:41Z</time>
      </trkpt>
      <trkpt lat="46.63021" lon="3.71779">
        <ele>214.51</ele>
        <time>2021-08-13T10:32:47Z</time>
      </trkpt>
      <trkpt lat="46.6302" lon="3.71779">
        <ele>214.51</ele>
        <time>2021-08-13T10:32:48Z</time>
      </trkpt>
      <trkpt lat="46.63012" lon="3.71776">
        <ele>214.51</ele>
        <time>2021-08-13T10:32:56Z</time>
      </trkpt>
      <trkpt lat="46.63003" lon="3.7177">
        <ele>214.51</ele>
        <time>2021-08-13T10:33:05Z</time>
      </trkpt>
      <trkpt lat="46.63" lon="3.71767">
        <ele>214.51</ele>
        <time>2021-08-13T10:33:10Z</time>
      </trkpt>
      <trkpt lat="46.62999" lon="3.71764">
        <ele>214.51</ele>
        <time>2021-08-13T10:33:11Z</time>
      </trkpt>
      <trkpt lat="46.62999" lon="3.71762">
        <ele>214.51</ele>
        <time>2021-08-13T10:33:12Z</time>
      </trkpt>
      <trkpt lat="46.62998" lon="3.71759">
        <ele>214.51</ele>
        <time>2021-08-13T10:33:13Z</time>
      </trkpt>
      <trkpt lat="46.62998" lon="3.71755">
        <ele>214.51</ele>
        <time>2021-08-13T10:33:14Z</time>
      </trkpt>
      <trkpt lat="46.62998" lon="3.71752">
        <ele>214.51</ele>
        <time>2021-08-13T10:33:15Z</time>
      </trkpt>
      <trkpt lat="46.62997" lon="3.71749">
        <ele>214.51</ele>
        <time>2021-08-13T10:33:16Z</time>
      </trkpt>
      <trkpt lat="46.62994" lon="3.71742">
        <ele>214.51</ele>
        <time>2021-08-13T10:33:18Z</time>
      </trkpt>
      <trkpt lat="46.62992" lon="3.7174">
        <ele>214.51</ele>
        <time>2021-08-13T10:33:19Z</time>
      </trkpt>
      <trkpt lat="46.6299" lon="3.71739">
        <ele>214.51</ele>
        <time>2021-08-13T10:33:20Z</time>
      </trkpt>
      <trkpt lat="46.62988" lon="3.71737">
        <ele>214.51</ele>
        <time>2021-08-13T10:33:21Z</time>
      </trkpt>
      <trkpt lat="46.62986" lon="3.71735">
        <ele>214.51</ele>
        <time>2021-08-13T10:33:22Z</time>
      </trkpt>
      <trkpt lat="46.62965" lon="3.71716">
        <ele>214.51</ele>
        <time>2021-08-13T10:33:29Z</time>
      </trkpt>
      <trkpt lat="46.62942" lon="3.71693">
        <ele>214.99</ele>
        <time>2021-08-13T10:33:37Z</time>
      </trkpt>
      <trkpt lat="46.62924" lon="3.71691">
        <ele>215.47</ele>
        <time>2021-08-13T10:33:43Z</time>
      </trkpt>
      <trkpt lat="46.62921" lon="3.71688">
        <ele>215.47</ele>
        <time>2021-08-13T10:33:44Z</time>
      </trkpt>
      <trkpt lat="46.62919" lon="3.71668">
        <ele>215.47</ele>
        <time>2021-08-13T10:33:49Z</time>
      </trkpt>
      <trkpt lat="46.62919" lon="3.71644">
        <ele>216.43</ele>
        <time>2021-08-13T10:33:55Z</time>
      </trkpt>
      <trkpt lat="46.62924" lon="3.7161">
        <ele>216.91</ele>
        <time>2021-08-13T10:34:03Z</time>
      </trkpt>
      <trkpt lat="46.62925" lon="3.71575">
        <ele>217.4</ele>
        <time>2021-08-13T10:34:11Z</time>
      </trkpt>
      <trkpt lat="46.62922" lon="3.71542">
        <ele>218.84</ele>
        <time>2021-08-13T10:34:19Z</time>
      </trkpt>
      <trkpt lat="46.62921" lon="3.71509">
        <ele>219.8</ele>
        <time>2021-08-13T10:34:27Z</time>
      </trkpt>
      <trkpt lat="46.62925" lon="3.71475">
        <ele>219.8</ele>
        <time>2021-08-13T10:34:33Z</time>
      </trkpt>
      <trkpt lat="46.62931" lon="3.71425">
        <ele>218.36</ele>
        <time>2021-08-13T10:34:40Z</time>
      </trkpt>
      <trkpt lat="46.62936" lon="3.71362">
        <ele>218.36</ele>
        <time>2021-08-13T10:34:48Z</time>
      </trkpt>
      <trkpt lat="46.62938" lon="3.71278">
        <ele>217.88</ele>
        <time>2021-08-13T10:34:58Z</time>
      </trkpt>
      <trkpt lat="46.62939" lon="3.71203">
        <ele>217.88</ele>
        <time>2021-08-13T10:35:07Z</time>
      </trkpt>
      <trkpt lat="46.62941" lon="3.7112">
        <ele>217.88</ele>
        <time>2021-08-13T10:35:17Z</time>
      </trkpt>
      <trkpt lat="46.62945" lon="3.71045">
        <ele>217.88</ele>
        <time>2021-08-13T10:35:26Z</time>
      </trkpt>
      <trkpt lat="46.62947" lon="3.70976">
        <ele>219.32</ele>
        <time>2021-08-13T10:35:35Z</time>
      </trkpt>
      <trkpt lat="46.6295" lon="3.70918">
        <ele>219.32</ele>
        <time>2021-08-13T10:35:43Z</time>
      </trkpt>
      <trkpt lat="46.62953" lon="3.70841">
        <ele>219.32</ele>
        <time>2021-08-13T10:35:52Z</time>
      </trkpt>
      <trkpt lat="46.62953" lon="3.70813">
        <ele>217.88</ele>
        <time>2021-08-13T10:35:55Z</time>
      </trkpt>
      <trkpt lat="46.62957" lon="3.70713">
        <ele>217.88</ele>
        <time>2021-08-13T10:36:06Z</time>
      </trkpt>
      <trkpt lat="46.62964" lon="3.70629">
        <ele>217.4</ele>
        <time>2021-08-13T10:36:16Z</time>
      </trkpt>
      <trkpt lat="46.6297" lon="3.70541">
        <ele>217.4</ele>
        <time>2021-08-13T10:36:26Z</time>
      </trkpt>
      <trkpt lat="46.6297" lon="3.70458">
        <ele>217.4</ele>
        <time>2021-08-13T10:36:35Z</time>
      </trkpt>
      <trkpt lat="46.62969" lon="3.70423">
        <ele>217.4</ele>
        <time>2021-08-13T10:36:39Z</time>
      </trkpt>
      <trkpt lat="46.62969" lon="3.70407">
        <ele>218.84</ele>
        <time>2021-08-13T10:36:41Z</time>
      </trkpt>
      <trkpt lat="46.6297" lon="3.70349">
        <ele>219.8</ele>
        <time>2021-08-13T10:36:50Z</time>
      </trkpt>
      <trkpt lat="46.62972" lon="3.70287">
        <ele>219.8</ele>
        <time>2021-08-13T10:37:00Z</time>
      </trkpt>
      <trkpt lat="46.62973" lon="3.7022">
        <ele>219.8</ele>
        <time>2021-08-13T10:37:10Z</time>
      </trkpt>
      <trkpt lat="46.62974" lon="3.702">
        <ele>219.8</ele>
        <time>2021-08-13T10:37:13Z</time>
      </trkpt>
      <trkpt lat="46.62977" lon="3.7013">
        <ele>218.84</ele>
        <time>2021-08-13T10:37:23Z</time>
      </trkpt>
      <trkpt lat="46.6298" lon="3.70063">
        <ele>218.36</ele>
        <time>2021-08-13T10:37:32Z</time>
      </trkpt>
      <trkpt lat="46.62982" lon="3.7001">
        <ele>218.36</ele>
        <time>2021-08-13T10:37:40Z</time>
      </trkpt>
      <trkpt lat="46.62982" lon="3.69992">
        <ele>218.36</ele>
        <time>2021-08-13T10:37:43Z</time>
      </trkpt>
      <trkpt lat="46.62983" lon="3.69985">
        <ele>218.36</ele>
        <time>2021-08-13T10:37:44Z</time>
      </trkpt>
      <trkpt lat="46.62983" lon="3.69979">
        <ele>218.36</ele>
        <time>2021-08-13T10:37:45Z</time>
      </trkpt>
      <trkpt lat="46.62983" lon="3.69972">
        <ele>218.36</ele>
        <time>2021-08-13T10:37:46Z</time>
      </trkpt>
      <trkpt lat="46.62984" lon="3.69965">
        <ele>218.36</ele>
        <time>2021-08-13T10:37:47Z</time>
      </trkpt>
      <trkpt lat="46.62986" lon="3.69908">
        <ele>218.36</ele>
        <time>2021-08-13T10:37:55Z</time>
      </trkpt>
      <trkpt lat="46.62986" lon="3.6988">
        <ele>218.36</ele>
        <time>2021-08-13T10:37:59Z</time>
      </trkpt>
      <trkpt lat="46.62987" lon="3.69873">
        <ele>218.36</ele>
        <time>2021-08-13T10:38:00Z</time>
      </trkpt>
      <trkpt lat="46.62987" lon="3.69867">
        <ele>218.36</ele>
        <time>2021-08-13T10:38:01Z</time>
      </trkpt>
      <trkpt lat="46.62987" lon="3.6986">
        <ele>218.36</ele>
        <time>2021-08-13T10:38:02Z</time>
      </trkpt>
      <trkpt lat="46.62988" lon="3.69854">
        <ele>218.36</ele>
        <time>2021-08-13T10:38:03Z</time>
      </trkpt>
      <trkpt lat="46.62991" lon="3.69788">
        <ele>218.36</ele>
        <time>2021-08-13T10:38:12Z</time>
      </trkpt>
      <trkpt lat="46.62991" lon="3.69781">
        <ele>218.36</ele>
        <time>2021-08-13T10:38:13Z</time>
      </trkpt>
      <trkpt lat="46.62992" lon="3.69758">
        <ele>217.88</ele>
        <time>2021-08-13T10:38:16Z</time>
      </trkpt>
      <trkpt lat="46.62993" lon="3.69743">
        <ele>217.88</ele>
        <time>2021-08-13T10:38:18Z</time>
      </trkpt>
      <trkpt lat="46.62995" lon="3.69679">
        <ele>217.88</ele>
        <time>2021-08-13T10:38:26Z</time>
      </trkpt>
      <trkpt lat="46.62999" lon="3.6961">
        <ele>217.88</ele>
        <time>2021-08-13T10:38:35Z</time>
      </trkpt>
      <trkpt lat="46.63002" lon="3.69519">
        <ele>217.88</ele>
        <time>2021-08-13T10:38:46Z</time>
      </trkpt>
      <trkpt lat="46.63004" lon="3.69443">
        <ele>217.88</ele>
        <time>2021-08-13T10:38:55Z</time>
      </trkpt>
      <trkpt lat="46.63004" lon="3.69418">
        <ele>217.88</ele>
        <time>2021-08-13T10:38:58Z</time>
      </trkpt>
      <trkpt lat="46.63008" lon="3.69411">
        <ele>217.88</ele>
        <time>2021-08-13T10:38:59Z</time>
      </trkpt>
      <trkpt lat="46.63012" lon="3.69407">
        <ele>217.88</ele>
        <time>2021-08-13T10:39:00Z</time>
      </trkpt>
      <trkpt lat="46.63018" lon="3.69404">
        <ele>216.91</ele>
        <time>2021-08-13T10:39:01Z</time>
      </trkpt>
      <trkpt lat="46.63024" lon="3.69401">
        <ele>216.43</ele>
        <time>2021-08-13T10:39:02Z</time>
      </trkpt>
      <trkpt lat="46.63056" lon="3.69389">
        <ele>215.47</ele>
        <time>2021-08-13T10:39:07Z</time>
      </trkpt>
      <trkpt lat="46.63062" lon="3.69389">
        <ele>215.47</ele>
        <time>2021-08-13T10:39:08Z</time>
      </trkpt>
      <trkpt lat="46.63111" lon="3.69394">
        <ele>215.47</ele>
        <time>2021-08-13T10:39:16Z</time>
      </trkpt>
      <trkpt lat="46.63168" lon="3.69407">
        <ele>214.51</ele>
        <time>2021-08-13T10:39:25Z</time>
      </trkpt>
      <trkpt lat="46.63225" lon="3.69412">
        <ele>214.03</ele>
        <time>2021-08-13T10:39:34Z</time>
      </trkpt>
      <trkpt lat="46.63237" lon="3.69412">
        <ele>214.03</ele>
        <time>2021-08-13T10:39:36Z</time>
      </trkpt>
      <trkpt lat="46.63285" lon="3.69413">
        <ele>215.47</ele>
        <time>2021-08-13T10:39:44Z</time>
      </trkpt>
      <trkpt lat="46.63337" lon="3.69414">
        <ele>215.47</ele>
        <time>2021-08-13T10:39:53Z</time>
      </trkpt>
      <trkpt lat="46.63394" lon="3.69414">
        <ele>215.47</ele>
        <time>2021-08-13T10:40:03Z</time>
      </trkpt>
      <trkpt lat="46.63452" lon="3.69416">
        <ele>215.47</ele>
        <time>2021-08-13T10:40:13Z</time>
      </trkpt>
      <trkpt lat="46.63514" lon="3.69417">
        <ele>215.47</ele>
        <time>2021-08-13T10:40:24Z</time>
      </trkpt>
      <trkpt lat="46.63582" lon="3.69419">
        <ele>215.47</ele>
        <time>2021-08-13T10:40:36Z</time>
      </trkpt>
      <trkpt lat="46.63642" lon="3.69419">
        <ele>215.47</ele>
        <time>2021-08-13T10:40:47Z</time>
      </trkpt>
      <trkpt lat="46.63697" lon="3.6942">
        <ele>215.47</ele>
        <time>2021-08-13T10:40:57Z</time>
      </trkpt>
      <trkpt lat="46.63744" lon="3.69421">
        <ele>214.99</ele>
        <time>2021-08-13T10:41:06Z</time>
      </trkpt>
      <trkpt lat="46.63785" lon="3.69423">
        <ele>214.99</ele>
        <time>2021-08-13T10:41:14Z</time>
      </trkpt>
      <trkpt lat="46.63833" lon="3.69421">
        <ele>214.99</ele>
        <time>2021-08-13T10:41:23Z</time>
      </trkpt>
      <trkpt lat="46.63866" lon="3.69399">
        <ele>214.99</ele>
        <time>2021-08-13T10:41:30Z</time>
      </trkpt>
      <trkpt lat="46.63902" lon="3.69353">
        <ele>214.99</ele>
        <time>2021-08-13T10:41:39Z</time>
      </trkpt>
      <trkpt lat="46.63934" lon="3.693">
        <ele>214.99</ele>
        <time>2021-08-13T10:41:48Z</time>
      </trkpt>
      <trkpt lat="46.63975" lon="3.69234">
        <ele>214.99</ele>
        <time>2021-08-13T10:41:59Z</time>
      </trkpt>
      <trkpt lat="46.64019" lon="3.69187">
        <ele>214.99</ele>
        <time>2021-08-13T10:42:09Z</time>
      </trkpt>
      <trkpt lat="46.64063" lon="3.69156">
        <ele>214.99</ele>
        <time>2021-08-13T10:42:18Z</time>
      </trkpt>
      <trkpt lat="46.64105" lon="3.69136">
        <ele>214.99</ele>
        <time>2021-08-13T10:42:26Z</time>
      </trkpt>
      <trkpt lat="46.64154" lon="3.69129">
        <ele>214.99</ele>
        <time>2021-08-13T10:42:35Z</time>
      </trkpt>
      <trkpt lat="46.64206" lon="3.69139">
        <ele>214.99</ele>
        <time>2021-08-13T10:42:45Z</time>
      </trkpt>
      <trkpt lat="46.64226" lon="3.69147">
        <ele>214.99</ele>
        <time>2021-08-13T10:42:49Z</time>
      </trkpt>
      <trkpt lat="46.6427" lon="3.69177">
        <ele>214.99</ele>
        <time>2021-08-13T10:42:58Z</time>
      </trkpt>
      <trkpt lat="46.64317" lon="3.69207">
        <ele>214.99</ele>
        <time>2021-08-13T10:43:08Z</time>
      </trkpt>
      <trkpt lat="46.64332" lon="3.69213">
        <ele>214.99</ele>
        <time>2021-08-13T10:43:11Z</time>
      </trkpt>
      <trkpt lat="46.64337" lon="3.69214">
        <ele>214.99</ele>
        <time>2021-08-13T10:43:12Z</time>
      </trkpt>
      <trkpt lat="46.64342" lon="3.69214">
        <ele>214.99</ele>
        <time>2021-08-13T10:43:13Z</time>
      </trkpt>
      <trkpt lat="46.64347" lon="3.69214">
        <ele>214.99</ele>
        <time>2021-08-13T10:43:14Z</time>
      </trkpt>
      <trkpt lat="46.64352" lon="3.69214">
        <ele>214.99</ele>
        <time>2021-08-13T10:43:15Z</time>
      </trkpt>
      <trkpt lat="46.64397" lon="3.69196">
        <ele>214.99</ele>
        <time>2021-08-13T10:43:24Z</time>
      </trkpt>
      <trkpt lat="46.64411" lon="3.69188">
        <ele>214.99</ele>
        <time>2021-08-13T10:43:27Z</time>
      </trkpt>
      <trkpt lat="46.64416" lon="3.69184">
        <ele>214.99</ele>
        <time>2021-08-13T10:43:28Z</time>
      </trkpt>
      <trkpt lat="46.64421" lon="3.69179">
        <ele>214.99</ele>
        <time>2021-08-13T10:43:29Z</time>
      </trkpt>
      <trkpt lat="46.64463" lon="3.69139">
        <ele>214.99</ele>
        <time>2021-08-13T10:43:38Z</time>
      </trkpt>
      <trkpt lat="46.64497" lon="3.69104">
        <ele>214.99</ele>
        <time>2021-08-13T10:43:46Z</time>
      </trkpt>
      <trkpt lat="46.64502" lon="3.691">
        <ele>214.99</ele>
        <time>2021-08-13T10:43:47Z</time>
      </trkpt>
      <trkpt lat="46.64517" lon="3.6909">
        <ele>214.99</ele>
        <time>2021-08-13T10:43:50Z</time>
      </trkpt>
      <trkpt lat="46.64554" lon="3.69074">
        <ele>214.99</ele>
        <time>2021-08-13T10:43:57Z</time>
      </trkpt>
      <trkpt lat="46.64595" lon="3.69057">
        <ele>214.99</ele>
        <time>2021-08-13T10:44:05Z</time>
      </trkpt>
      <trkpt lat="46.64637" lon="3.69037">
        <ele>214.99</ele>
        <time>2021-08-13T10:44:13Z</time>
      </trkpt>
      <trkpt lat="46.64668" lon="3.69028">
        <ele>214.99</ele>
        <time>2021-08-13T10:44:19Z</time>
      </trkpt>
      <trkpt lat="46.6469" lon="3.69027">
        <ele>214.99</ele>
        <time>2021-08-13T10:44:23Z</time>
      </trkpt>
      <trkpt lat="46.64721" lon="3.69027">
        <ele>214.99</ele>
        <time>2021-08-13T10:44:29Z</time>
      </trkpt>
      <trkpt lat="46.64731" lon="3.69025">
        <ele>214.99</ele>
        <time>2021-08-13T10:44:31Z</time>
      </trkpt>
      <trkpt lat="46.64736" lon="3.69022">
        <ele>214.99</ele>
        <time>2021-08-13T10:44:32Z</time>
      </trkpt>
      <trkpt lat="46.6474" lon="3.6902">
        <ele>214.99</ele>
        <time>2021-08-13T10:44:33Z</time>
      </trkpt>
      <trkpt lat="46.64784" lon="3.68986">
        <ele>214.99</ele>
        <time>2021-08-13T10:44:42Z</time>
      </trkpt>
      <trkpt lat="46.64836" lon="3.68942">
        <ele>214.99</ele>
        <time>2021-08-13T10:44:53Z</time>
      </trkpt>
      <trkpt lat="46.64887" lon="3.689">
        <ele>214.99</ele>
        <time>2021-08-13T10:45:03Z</time>
      </trkpt>
      <trkpt lat="46.64927" lon="3.68858">
        <ele>214.99</ele>
        <time>2021-08-13T10:45:11Z</time>
      </trkpt>
      <trkpt lat="46.64944" lon="3.6883">
        <ele>213.55</ele>
        <time>2021-08-13T10:45:15Z</time>
      </trkpt>
      <trkpt lat="46.64979" lon="3.68783">
        <ele>213.55</ele>
        <time>2021-08-13T10:45:23Z</time>
      </trkpt>
      <trkpt lat="46.64989" lon="3.68774">
        <ele>213.55</ele>
        <time>2021-08-13T10:45:25Z</time>
      </trkpt>
      <trkpt lat="46.64994" lon="3.6877">
        <ele>213.55</ele>
        <time>2021-08-13T10:45:26Z</time>
      </trkpt>
      <trkpt lat="46.64999" lon="3.68767">
        <ele>213.55</ele>
        <time>2021-08-13T10:45:27Z</time>
      </trkpt>
      <trkpt lat="46.65004" lon="3.68765">
        <ele>213.55</ele>
        <time>2021-08-13T10:45:28Z</time>
      </trkpt>
      <trkpt lat="46.6501" lon="3.68763">
        <ele>213.55</ele>
        <time>2021-08-13T10:45:29Z</time>
      </trkpt>
      <trkpt lat="46.65015" lon="3.68763">
        <ele>213.55</ele>
        <time>2021-08-13T10:45:30Z</time>
      </trkpt>
      <trkpt lat="46.6502" lon="3.68762">
        <ele>213.55</ele>
        <time>2021-08-13T10:45:31Z</time>
      </trkpt>
      <trkpt lat="46.65026" lon="3.6876">
        <ele>213.55</ele>
        <time>2021-08-13T10:45:32Z</time>
      </trkpt>
      <trkpt lat="46.65031" lon="3.68758">
        <ele>213.55</ele>
        <time>2021-08-13T10:45:33Z</time>
      </trkpt>
      <trkpt lat="46.65035" lon="3.68756">
        <ele>213.55</ele>
        <time>2021-08-13T10:45:34Z</time>
      </trkpt>
      <trkpt lat="46.6504" lon="3.68752">
        <ele>213.55</ele>
        <time>2021-08-13T10:45:35Z</time>
      </trkpt>
      <trkpt lat="46.65044" lon="3.68748">
        <ele>213.55</ele>
        <time>2021-08-13T10:45:36Z</time>
      </trkpt>
      <trkpt lat="46.65048" lon="3.68743">
        <ele>213.55</ele>
        <time>2021-08-13T10:45:37Z</time>
      </trkpt>
      <trkpt lat="46.65051" lon="3.68738">
        <ele>213.55</ele>
        <time>2021-08-13T10:45:38Z</time>
      </trkpt>
      <trkpt lat="46.65052" lon="3.68733">
        <ele>213.55</ele>
        <time>2021-08-13T10:45:39Z</time>
      </trkpt>
      <trkpt lat="46.65053" lon="3.68725">
        <ele>213.55</ele>
        <time>2021-08-13T10:45:40Z</time>
      </trkpt>
      <trkpt lat="46.65053" lon="3.68718">
        <ele>213.55</ele>
        <time>2021-08-13T10:45:41Z</time>
      </trkpt>
      <trkpt lat="46.65052" lon="3.68712">
        <ele>213.55</ele>
        <time>2021-08-13T10:45:42Z</time>
      </trkpt>
      <trkpt lat="46.6505" lon="3.68704">
        <ele>213.55</ele>
        <time>2021-08-13T10:45:43Z</time>
      </trkpt>
      <trkpt lat="46.65049" lon="3.68698">
        <ele>213.55</ele>
        <time>2021-08-13T10:45:44Z</time>
      </trkpt>
      <trkpt lat="46.65036" lon="3.68655">
        <ele>213.55</ele>
        <time>2021-08-13T10:45:50Z</time>
      </trkpt>
      <trkpt lat="46.65032" lon="3.6864">
        <ele>213.55</ele>
        <time>2021-08-13T10:45:52Z</time>
      </trkpt>
      <trkpt lat="46.65031" lon="3.68632">
        <ele>213.55</ele>
        <time>2021-08-13T10:45:53Z</time>
      </trkpt>
      <trkpt lat="46.6503" lon="3.68624">
        <ele>213.55</ele>
        <time>2021-08-13T10:45:54Z</time>
      </trkpt>
      <trkpt lat="46.65027" lon="3.6854">
        <ele>213.55</ele>
        <time>2021-08-13T10:46:04Z</time>
      </trkpt>
      <trkpt lat="46.6503" lon="3.6849">
        <ele>213.55</ele>
        <time>2021-08-13T10:46:10Z</time>
      </trkpt>
      <trkpt lat="46.65037" lon="3.68439">
        <ele>213.55</ele>
        <time>2021-08-13T10:46:16Z</time>
      </trkpt>
      <trkpt lat="46.65037" lon="3.68431">
        <ele>213.55</ele>
        <time>2021-08-13T10:46:17Z</time>
      </trkpt>
      <trkpt lat="46.65036" lon="3.68422">
        <ele>213.55</ele>
        <time>2021-08-13T10:46:18Z</time>
      </trkpt>
      <trkpt lat="46.65035" lon="3.68413">
        <ele>213.55</ele>
        <time>2021-08-13T10:46:19Z</time>
      </trkpt>
      <trkpt lat="46.65033" lon="3.68405">
        <ele>213.55</ele>
        <time>2021-08-13T10:46:20Z</time>
      </trkpt>
      <trkpt lat="46.65031" lon="3.68396">
        <ele>213.55</ele>
        <time>2021-08-13T10:46:21Z</time>
      </trkpt>
      <trkpt lat="46.65024" lon="3.68372">
        <ele>213.55</ele>
        <time>2021-08-13T10:46:24Z</time>
      </trkpt>
      <trkpt lat="46.65021" lon="3.68364">
        <ele>213.55</ele>
        <time>2021-08-13T10:46:25Z</time>
      </trkpt>
      <trkpt lat="46.65018" lon="3.68357">
        <ele>213.55</ele>
        <time>2021-08-13T10:46:26Z</time>
      </trkpt>
      <trkpt lat="46.65004" lon="3.68322">
        <ele>213.07</ele>
        <time>2021-08-13T10:46:31Z</time>
      </trkpt>
      <trkpt lat="46.65001" lon="3.68316">
        <ele>213.07</ele>
        <time>2021-08-13T10:46:32Z</time>
      </trkpt>
      <trkpt lat="46.64997" lon="3.68312">
        <ele>213.07</ele>
        <time>2021-08-13T10:46:33Z</time>
      </trkpt>
      <trkpt lat="46.64993" lon="3.68309">
        <ele>213.07</ele>
        <time>2021-08-13T10:46:34Z</time>
      </trkpt>
      <trkpt lat="46.64988" lon="3.68308">
        <ele>213.07</ele>
        <time>2021-08-13T10:46:35Z</time>
      </trkpt>
      <trkpt lat="46.64983" lon="3.68308">
        <ele>213.07</ele>
        <time>2021-08-13T10:46:36Z</time>
      </trkpt>
      <trkpt lat="46.64977" lon="3.68309">
        <ele>213.07</ele>
        <time>2021-08-13T10:46:37Z</time>
      </trkpt>
      <trkpt lat="46.64927" lon="3.68318">
        <ele>213.07</ele>
        <time>2021-08-13T10:46:46Z</time>
      </trkpt>
      <trkpt lat="46.64922" lon="3.68318">
        <ele>213.07</ele>
        <time>2021-08-13T10:46:47Z</time>
      </trkpt>
      <trkpt lat="46.64916" lon="3.68317">
        <ele>213.07</ele>
        <time>2021-08-13T10:46:48Z</time>
      </trkpt>
      <trkpt lat="46.64885" lon="3.68304">
        <ele>214.51</ele>
        <time>2021-08-13T10:46:54Z</time>
      </trkpt>
      <trkpt lat="46.6488" lon="3.68299">
        <ele>214.51</ele>
        <time>2021-08-13T10:46:55Z</time>
      </trkpt>
      <trkpt lat="46.64876" lon="3.68294">
        <ele>214.03</ele>
        <time>2021-08-13T10:46:56Z</time>
      </trkpt>
      <trkpt lat="46.64872" lon="3.68287">
        <ele>214.03</ele>
        <time>2021-08-13T10:46:57Z</time>
      </trkpt>
      <trkpt lat="46.6487" lon="3.6828">
        <ele>214.03</ele>
        <time>2021-08-13T10:46:58Z</time>
      </trkpt>
      <trkpt lat="46.64869" lon="3.6827">
        <ele>214.03</ele>
        <time>2021-08-13T10:46:59Z</time>
      </trkpt>
      <trkpt lat="46.64868" lon="3.68263">
        <ele>214.03</ele>
        <time>2021-08-13T10:47:00Z</time>
      </trkpt>
      <trkpt lat="46.64868" lon="3.68254">
        <ele>214.03</ele>
        <time>2021-08-13T10:47:01Z</time>
      </trkpt>
      <trkpt lat="46.64864" lon="3.68179">
        <ele>214.03</ele>
        <time>2021-08-13T10:47:10Z</time>
      </trkpt>
      <trkpt lat="46.64863" lon="3.68152">
        <ele>214.03</ele>
        <time>2021-08-13T10:47:13Z</time>
      </trkpt>
      <trkpt lat="46.64864" lon="3.68143">
        <ele>214.03</ele>
        <time>2021-08-13T10:47:14Z</time>
      </trkpt>
      <trkpt lat="46.64867" lon="3.68117">
        <ele>214.03</ele>
        <time>2021-08-13T10:47:17Z</time>
      </trkpt>
      <trkpt lat="46.64869" lon="3.68109">
        <ele>214.03</ele>
        <time>2021-08-13T10:47:18Z</time>
      </trkpt>
      <trkpt lat="46.64871" lon="3.681">
        <ele>214.03</ele>
        <time>2021-08-13T10:47:19Z</time>
      </trkpt>
      <trkpt lat="46.64873" lon="3.6809">
        <ele>214.03</ele>
        <time>2021-08-13T10:47:20Z</time>
      </trkpt>
      <trkpt lat="46.64874" lon="3.68083">
        <ele>214.03</ele>
        <time>2021-08-13T10:47:21Z</time>
      </trkpt>
      <trkpt lat="46.64875" lon="3.68073">
        <ele>214.03</ele>
        <time>2021-08-13T10:47:22Z</time>
      </trkpt>
      <trkpt lat="46.64874" lon="3.68065">
        <ele>214.03</ele>
        <time>2021-08-13T10:47:23Z</time>
      </trkpt>
      <trkpt lat="46.64871" lon="3.68056">
        <ele>213.07</ele>
        <time>2021-08-13T10:47:24Z</time>
      </trkpt>
      <trkpt lat="46.64869" lon="3.68049">
        <ele>213.07</ele>
        <time>2021-08-13T10:47:25Z</time>
      </trkpt>
      <trkpt lat="46.64863" lon="3.68042">
        <ele>213.07</ele>
        <time>2021-08-13T10:47:26Z</time>
      </trkpt>
      <trkpt lat="46.64859" lon="3.68038">
        <ele>213.07</ele>
        <time>2021-08-13T10:47:27Z</time>
      </trkpt>
      <trkpt lat="46.64853" lon="3.68033">
        <ele>213.07</ele>
        <time>2021-08-13T10:47:28Z</time>
      </trkpt>
      <trkpt lat="46.64836" lon="3.68022">
        <ele>213.07</ele>
        <time>2021-08-13T10:47:31Z</time>
      </trkpt>
      <trkpt lat="46.64825" lon="3.68015">
        <ele>213.07</ele>
        <time>2021-08-13T10:47:33Z</time>
      </trkpt>
      <trkpt lat="46.64819" lon="3.6801">
        <ele>213.07</ele>
        <time>2021-08-13T10:47:34Z</time>
      </trkpt>
      <trkpt lat="46.6481" lon="3.68">
        <ele>213.07</ele>
        <time>2021-08-13T10:47:36Z</time>
      </trkpt>
      <trkpt lat="46.64807" lon="3.67994">
        <ele>213.07</ele>
        <time>2021-08-13T10:47:37Z</time>
      </trkpt>
      <trkpt lat="46.64779" lon="3.6794">
        <ele>213.07</ele>
        <time>2021-08-13T10:47:45Z</time>
      </trkpt>
      <trkpt lat="46.64764" lon="3.67907">
        <ele>213.07</ele>
        <time>2021-08-13T10:47:50Z</time>
      </trkpt>
      <trkpt lat="46.64763" lon="3.67898">
        <ele>213.07</ele>
        <time>2021-08-13T10:47:51Z</time>
      </trkpt>
      <trkpt lat="46.64764" lon="3.67892">
        <ele>213.07</ele>
        <time>2021-08-13T10:47:52Z</time>
      </trkpt>
      <trkpt lat="46.64766" lon="3.67885">
        <ele>213.07</ele>
        <time>2021-08-13T10:47:53Z</time>
      </trkpt>
      <trkpt lat="46.64769" lon="3.67879">
        <ele>213.07</ele>
        <time>2021-08-13T10:47:54Z</time>
      </trkpt>
      <trkpt lat="46.64777" lon="3.67862">
        <ele>214.03</ele>
        <time>2021-08-13T10:47:57Z</time>
      </trkpt>
      <trkpt lat="46.64784" lon="3.67844">
        <ele>214.03</ele>
        <time>2021-08-13T10:48:00Z</time>
      </trkpt>
      <trkpt lat="46.64786" lon="3.67837">
        <ele>214.03</ele>
        <time>2021-08-13T10:48:01Z</time>
      </trkpt>
      <trkpt lat="46.64787" lon="3.67832">
        <ele>214.51</ele>
        <time>2021-08-13T10:48:02Z</time>
      </trkpt>
      <trkpt lat="46.64787" lon="3.67825">
        <ele>214.51</ele>
        <time>2021-08-13T10:48:03Z</time>
      </trkpt>
      <trkpt lat="46.64787" lon="3.6782">
        <ele>214.51</ele>
        <time>2021-08-13T10:48:04Z</time>
      </trkpt>
      <trkpt lat="46.64787" lon="3.67813">
        <ele>214.51</ele>
        <time>2021-08-13T10:48:05Z</time>
      </trkpt>
      <trkpt lat="46.64787" lon="3.67807">
        <ele>214.51</ele>
        <time>2021-08-13T10:48:06Z</time>
      </trkpt>
      <trkpt lat="46.64787" lon="3.67795">
        <ele>214.51</ele>
        <time>2021-08-13T10:48:08Z</time>
      </trkpt>
      <trkpt lat="46.64784" lon="3.67731">
        <ele>214.51</ele>
        <time>2021-08-13T10:48:17Z</time>
      </trkpt>
      <trkpt lat="46.64777" lon="3.67653">
        <ele>213.55</ele>
        <time>2021-08-13T10:48:28Z</time>
      </trkpt>
      <trkpt lat="46.6477" lon="3.67618">
        <ele>213.55</ele>
        <time>2021-08-13T10:48:33Z</time>
      </trkpt>
      <trkpt lat="46.64767" lon="3.67598">
        <ele>213.55</ele>
        <time>2021-08-13T10:48:36Z</time>
      </trkpt>
      <trkpt lat="46.64764" lon="3.67583">
        <ele>213.55</ele>
        <time>2021-08-13T10:48:38Z</time>
      </trkpt>
      <trkpt lat="46.64763" lon="3.67575">
        <ele>213.55</ele>
        <time>2021-08-13T10:48:39Z</time>
      </trkpt>
      <trkpt lat="46.64757" lon="3.67515">
        <ele>213.07</ele>
        <time>2021-08-13T10:48:47Z</time>
      </trkpt>
      <trkpt lat="46.64749" lon="3.67435">
        <ele>213.07</ele>
        <time>2021-08-13T10:48:57Z</time>
      </trkpt>
      <trkpt lat="46.64739" lon="3.67364">
        <ele>213.07</ele>
        <time>2021-08-13T10:49:06Z</time>
      </trkpt>
      <trkpt lat="46.64737" lon="3.67341">
        <ele>213.07</ele>
        <time>2021-08-13T10:49:09Z</time>
      </trkpt>
      <trkpt lat="46.64736" lon="3.67318">
        <ele>213.07</ele>
        <time>2021-08-13T10:49:12Z</time>
      </trkpt>
      <trkpt lat="46.64735" lon="3.67238">
        <ele>213.07</ele>
        <time>2021-08-13T10:49:22Z</time>
      </trkpt>
      <trkpt lat="46.64737" lon="3.67182">
        <ele>213.07</ele>
        <time>2021-08-13T10:49:29Z</time>
      </trkpt>
      <trkpt lat="46.64736" lon="3.67175">
        <ele>213.07</ele>
        <time>2021-08-13T10:49:30Z</time>
      </trkpt>
      <trkpt lat="46.64734" lon="3.67167">
        <ele>213.07</ele>
        <time>2021-08-13T10:49:31Z</time>
      </trkpt>
      <trkpt lat="46.64732" lon="3.6716">
        <ele>213.07</ele>
        <time>2021-08-13T10:49:32Z</time>
      </trkpt>
      <trkpt lat="46.64729" lon="3.67154">
        <ele>213.07</ele>
        <time>2021-08-13T10:49:33Z</time>
      </trkpt>
      <trkpt lat="46.64727" lon="3.67147">
        <ele>213.07</ele>
        <time>2021-08-13T10:49:34Z</time>
      </trkpt>
      <trkpt lat="46.64695" lon="3.67085">
        <ele>213.07</ele>
        <time>2021-08-13T10:49:44Z</time>
      </trkpt>
      <trkpt lat="46.64666" lon="3.67023">
        <ele>213.07</ele>
        <time>2021-08-13T10:49:54Z</time>
      </trkpt>
      <trkpt lat="46.6464" lon="3.6697">
        <ele>212.59</ele>
        <time>2021-08-13T10:50:02Z</time>
      </trkpt>
      <trkpt lat="46.64612" lon="3.66911">
        <ele>212.59</ele>
        <time>2021-08-13T10:50:11Z</time>
      </trkpt>
      <trkpt lat="46.64587" lon="3.6686">
        <ele>212.59</ele>
        <time>2021-08-13T10:50:19Z</time>
      </trkpt>
      <trkpt lat="46.64574" lon="3.66829">
        <ele>212.11</ele>
        <time>2021-08-13T10:50:23Z</time>
      </trkpt>
      <trkpt lat="46.64563" lon="3.66806">
        <ele>212.11</ele>
        <time>2021-08-13T10:50:26Z</time>
      </trkpt>
      <trkpt lat="46.64561" lon="3.66798">
        <ele>212.11</ele>
        <time>2021-08-13T10:50:27Z</time>
      </trkpt>
      <trkpt lat="46.64559" lon="3.66791">
        <ele>212.11</ele>
        <time>2021-08-13T10:50:28Z</time>
      </trkpt>
      <trkpt lat="46.64557" lon="3.66785">
        <ele>212.11</ele>
        <time>2021-08-13T10:50:29Z</time>
      </trkpt>
      <trkpt lat="46.64555" lon="3.66778">
        <ele>213.55</ele>
        <time>2021-08-13T10:50:30Z</time>
      </trkpt>
      <trkpt lat="46.64553" lon="3.66772">
        <ele>213.55</ele>
        <time>2021-08-13T10:50:31Z</time>
      </trkpt>
      <trkpt lat="46.64552" lon="3.66765">
        <ele>213.55</ele>
        <time>2021-08-13T10:50:32Z</time>
      </trkpt>
      <trkpt lat="46.64552" lon="3.66759">
        <ele>214.03</ele>
        <time>2021-08-13T10:50:33Z</time>
      </trkpt>
      <trkpt lat="46.64552" lon="3.66752">
        <ele>214.03</ele>
        <time>2021-08-13T10:50:34Z</time>
      </trkpt>
      <trkpt lat="46.6455" lon="3.66706">
        <ele>214.51</ele>
        <time>2021-08-13T10:50:41Z</time>
      </trkpt>
      <trkpt lat="46.64546" lon="3.66652">
        <ele>214.99</ele>
        <time>2021-08-13T10:50:49Z</time>
      </trkpt>
      <trkpt lat="46.64544" lon="3.66583">
        <ele>214.51</ele>
        <time>2021-08-13T10:50:58Z</time>
      </trkpt>
      <trkpt lat="46.64549" lon="3.66505">
        <ele>214.51</ele>
        <time>2021-08-13T10:51:08Z</time>
      </trkpt>
      <trkpt lat="46.64555" lon="3.66463">
        <ele>214.51</ele>
        <time>2021-08-13T10:51:13Z</time>
      </trkpt>
      <trkpt lat="46.64558" lon="3.66405">
        <ele>214.51</ele>
        <time>2021-08-13T10:51:21Z</time>
      </trkpt>
      <trkpt lat="46.64559" lon="3.66397">
        <ele>214.51</ele>
        <time>2021-08-13T10:51:22Z</time>
      </trkpt>
      <trkpt lat="46.64556" lon="3.66339">
        <ele>214.51</ele>
        <time>2021-08-13T10:51:30Z</time>
      </trkpt>
      <trkpt lat="46.64551" lon="3.66278">
        <ele>214.51</ele>
        <time>2021-08-13T10:51:39Z</time>
      </trkpt>
      <trkpt lat="46.64544" lon="3.6622">
        <ele>214.51</ele>
        <time>2021-08-13T10:51:48Z</time>
      </trkpt>
      <trkpt lat="46.64541" lon="3.66195">
        <ele>214.51</ele>
        <time>2021-08-13T10:51:52Z</time>
      </trkpt>
      <trkpt lat="46.64538" lon="3.66178">
        <ele>214.51</ele>
        <time>2021-08-13T10:51:55Z</time>
      </trkpt>
      <trkpt lat="46.64535" lon="3.66153">
        <ele>214.51</ele>
        <time>2021-08-13T10:51:59Z</time>
      </trkpt>
      <trkpt lat="46.64532" lon="3.6609">
        <ele>214.51</ele>
        <time>2021-08-13T10:52:08Z</time>
      </trkpt>
      <trkpt lat="46.64529" lon="3.66019">
        <ele>214.51</ele>
        <time>2021-08-13T10:52:18Z</time>
      </trkpt>
      <trkpt lat="46.64526" lon="3.65956">
        <ele>214.51</ele>
        <time>2021-08-13T10:52:27Z</time>
      </trkpt>
      <trkpt lat="46.6452" lon="3.65873">
        <ele>214.51</ele>
        <time>2021-08-13T10:52:39Z</time>
      </trkpt>
      <trkpt lat="46.64518" lon="3.65802">
        <ele>214.51</ele>
        <time>2021-08-13T10:52:49Z</time>
      </trkpt>
      <trkpt lat="46.64519" lon="3.65795">
        <ele>214.51</ele>
        <time>2021-08-13T10:52:50Z</time>
      </trkpt>
      <trkpt lat="46.64535" lon="3.65739">
        <ele>214.51</ele>
        <time>2021-08-13T10:52:58Z</time>
      </trkpt>
      <trkpt lat="46.64554" lon="3.6568">
        <ele>214.51</ele>
        <time>2021-08-13T10:53:07Z</time>
      </trkpt>
      <trkpt lat="46.64571" lon="3.65621">
        <ele>214.51</ele>
        <time>2021-08-13T10:53:16Z</time>
      </trkpt>
      <trkpt lat="46.64588" lon="3.65549">
        <ele>214.51</ele>
        <time>2021-08-13T10:53:27Z</time>
      </trkpt>
      <trkpt lat="46.64594" lon="3.65515">
        <ele>214.51</ele>
        <time>2021-08-13T10:53:32Z</time>
      </trkpt>
      <trkpt lat="46.64596" lon="3.65508">
        <ele>214.51</ele>
        <time>2021-08-13T10:53:33Z</time>
      </trkpt>
      <trkpt lat="46.64613" lon="3.65431">
        <ele>214.51</ele>
        <time>2021-08-13T10:53:44Z</time>
      </trkpt>
      <trkpt lat="46.64625" lon="3.65372">
        <ele>214.51</ele>
        <time>2021-08-13T10:53:53Z</time>
      </trkpt>
      <trkpt lat="46.64631" lon="3.65346">
        <ele>214.51</ele>
        <time>2021-08-13T10:53:57Z</time>
      </trkpt>
      <trkpt lat="46.64632" lon="3.65339">
        <ele>214.51</ele>
        <time>2021-08-13T10:53:58Z</time>
      </trkpt>
      <trkpt lat="46.6464" lon="3.65285">
        <ele>214.03</ele>
        <time>2021-08-13T10:54:06Z</time>
      </trkpt>
      <trkpt lat="46.64641" lon="3.65279">
        <ele>214.03</ele>
        <time>2021-08-13T10:54:07Z</time>
      </trkpt>
      <trkpt lat="46.64649" lon="3.65205">
        <ele>214.03</ele>
        <time>2021-08-13T10:54:18Z</time>
      </trkpt>
      <trkpt lat="46.6465" lon="3.65191">
        <ele>214.03</ele>
        <time>2021-08-13T10:54:20Z</time>
      </trkpt>
      <trkpt lat="46.6465" lon="3.65185">
        <ele>214.03</ele>
        <time>2021-08-13T10:54:21Z</time>
      </trkpt>
      <trkpt lat="46.6465" lon="3.65178">
        <ele>214.03</ele>
        <time>2021-08-13T10:54:22Z</time>
      </trkpt>
      <trkpt lat="46.64649" lon="3.65173">
        <ele>214.03</ele>
        <time>2021-08-13T10:54:23Z</time>
      </trkpt>
      <trkpt lat="46.64648" lon="3.65167">
        <ele>214.03</ele>
        <time>2021-08-13T10:54:24Z</time>
      </trkpt>
      <trkpt lat="46.64647" lon="3.6516">
        <ele>214.03</ele>
        <time>2021-08-13T10:54:25Z</time>
      </trkpt>
      <trkpt lat="46.64627" lon="3.65105">
        <ele>214.03</ele>
        <time>2021-08-13T10:54:34Z</time>
      </trkpt>
      <trkpt lat="46.64608" lon="3.65068">
        <ele>214.03</ele>
        <time>2021-08-13T10:54:41Z</time>
      </trkpt>
      <trkpt lat="46.6459" lon="3.65045">
        <ele>214.03</ele>
        <time>2021-08-13T10:54:47Z</time>
      </trkpt>
      <trkpt lat="46.64587" lon="3.65041">
        <ele>214.03</ele>
        <time>2021-08-13T10:54:48Z</time>
      </trkpt>
      <trkpt lat="46.64585" lon="3.65036">
        <ele>214.03</ele>
        <time>2021-08-13T10:54:49Z</time>
      </trkpt>
      <trkpt lat="46.64584" lon="3.65031">
        <ele>214.03</ele>
        <time>2021-08-13T10:54:50Z</time>
      </trkpt>
      <trkpt lat="46.64585" lon="3.65027">
        <ele>214.51</ele>
        <time>2021-08-13T10:54:51Z</time>
      </trkpt>
      <trkpt lat="46.64587" lon="3.65023">
        <ele>214.99</ele>
        <time>2021-08-13T10:54:52Z</time>
      </trkpt>
      <trkpt lat="46.6459" lon="3.65021">
        <ele>214.99</ele>
        <time>2021-08-13T10:54:53Z</time>
      </trkpt>
      <trkpt lat="46.64593" lon="3.6502">
        <ele>214.99</ele>
        <time>2021-08-13T10:54:54Z</time>
      </trkpt>
      <trkpt lat="46.64596" lon="3.65018">
        <ele>214.99</ele>
        <time>2021-08-13T10:54:55Z</time>
      </trkpt>
      <trkpt lat="46.646" lon="3.65016">
        <ele>214.99</ele>
        <time>2021-08-13T10:54:56Z</time>
      </trkpt>
      <trkpt lat="46.64637" lon="3.64992">
        <ele>215.47</ele>
        <time>2021-08-13T10:55:06Z</time>
      </trkpt>
      <trkpt lat="46.64641" lon="3.64989">
        <ele>215.47</ele>
        <time>2021-08-13T10:55:07Z</time>
      </trkpt>
      <trkpt lat="46.64647" lon="3.64981">
        <ele>215.95</ele>
        <time>2021-08-13T10:55:09Z</time>
      </trkpt>
      <trkpt lat="46.6465" lon="3.64977">
        <ele>215.95</ele>
        <time>2021-08-13T10:55:10Z</time>
      </trkpt>
      <trkpt lat="46.6467" lon="3.64958">
        <ele>217.4</ele>
        <time>2021-08-13T10:55:17Z</time>
      </trkpt>
      <trkpt lat="46.64699" lon="3.64938">
        <ele>219.32</ele>
        <time>2021-08-13T10:55:27Z</time>
      </trkpt>
      <trkpt lat="46.64712" lon="3.64931">
        <ele>219.8</ele>
        <time>2021-08-13T10:55:33Z</time>
      </trkpt>
      <trkpt lat="46.64714" lon="3.6493">
        <ele>220.28</ele>
        <time>2021-08-13T10:55:34Z</time>
      </trkpt>
      <trkpt lat="46.64717" lon="3.64929">
        <ele>220.28</ele>
        <time>2021-08-13T10:55:35Z</time>
      </trkpt>
      <trkpt lat="46.64719" lon="3.64927">
        <ele>220.28</ele>
        <time>2021-08-13T10:55:36Z</time>
      </trkpt>
      <trkpt lat="46.64728" lon="3.64916">
        <ele>221.24</ele>
        <time>2021-08-13T10:55:41Z</time>
      </trkpt>
      <trkpt lat="46.64729" lon="3.64912">
        <ele>221.24</ele>
        <time>2021-08-13T10:55:42Z</time>
      </trkpt>
      <trkpt lat="46.64728" lon="3.64909">
        <ele>221.24</ele>
        <time>2021-08-13T10:55:43Z</time>
      </trkpt>
      <trkpt lat="46.64728" lon="3.64906">
        <ele>221.24</ele>
        <time>2021-08-13T10:55:44Z</time>
      </trkpt>
      <trkpt lat="46.64727" lon="3.64903">
        <ele>221.72</ele>
        <time>2021-08-13T10:55:45Z</time>
      </trkpt>
      <trkpt lat="46.64726" lon="3.64899">
        <ele>221.72</ele>
        <time>2021-08-13T10:55:46Z</time>
      </trkpt>
      <trkpt lat="46.64715" lon="3.64869">
        <ele>221.72</ele>
        <time>2021-08-13T10:55:54Z</time>
      </trkpt>
      <trkpt lat="46.64704" lon="3.64835">
        <ele>218.36</ele>
        <time>2021-08-13T10:56:00Z</time>
      </trkpt>
      <trkpt lat="46.64692" lon="3.64804">
        <ele>217.88</ele>
        <time>2021-08-13T10:56:04Z</time>
      </trkpt>
      <trkpt lat="46.64688" lon="3.64798">
        <ele>217.4</ele>
        <time>2021-08-13T10:56:05Z</time>
      </trkpt>
      <trkpt lat="46.64683" lon="3.64792">
        <ele>217.4</ele>
        <time>2021-08-13T10:56:06Z</time>
      </trkpt>
      <trkpt lat="46.64678" lon="3.64787">
        <ele>217.4</ele>
        <time>2021-08-13T10:56:07Z</time>
      </trkpt>
      <trkpt lat="46.64673" lon="3.64783">
        <ele>217.4</ele>
        <time>2021-08-13T10:56:08Z</time>
      </trkpt>
      <trkpt lat="46.64668" lon="3.6478">
        <ele>217.4</ele>
        <time>2021-08-13T10:56:09Z</time>
      </trkpt>
      <trkpt lat="46.64627" lon="3.64761">
        <ele>217.4</ele>
        <time>2021-08-13T10:56:17Z</time>
      </trkpt>
      <trkpt lat="46.6461" lon="3.64753">
        <ele>218.84</ele>
        <time>2021-08-13T10:56:21Z</time>
      </trkpt>
      <trkpt lat="46.64604" lon="3.64747">
        <ele>218.84</ele>
        <time>2021-08-13T10:56:23Z</time>
      </trkpt>
      <trkpt lat="46.64602" lon="3.64742">
        <ele>219.32</ele>
        <time>2021-08-13T10:56:24Z</time>
      </trkpt>
      <trkpt lat="46.6459" lon="3.64712">
        <ele>220.28</ele>
        <time>2021-08-13T10:56:32Z</time>
      </trkpt>
      <trkpt lat="46.64583" lon="3.64695">
        <ele>221.24</ele>
        <time>2021-08-13T10:56:39Z</time>
      </trkpt>
      <trkpt lat="46.64579" lon="3.64678">
        <ele>222.68</ele>
        <time>2021-08-13T10:56:46Z</time>
      </trkpt>
      <trkpt lat="46.64572" lon="3.64659">
        <ele>223.64</ele>
        <time>2021-08-13T10:56:55Z</time>
      </trkpt>
      <trkpt lat="46.6457" lon="3.64655">
        <ele>224.61</ele>
        <time>2021-08-13T10:56:57Z</time>
      </trkpt>
      <trkpt lat="46.64569" lon="3.64646">
        <ele>225.09</ele>
        <time>2021-08-13T10:57:01Z</time>
      </trkpt>
      <trkpt lat="46.64568" lon="3.64644">
        <ele>225.09</ele>
        <time>2021-08-13T10:57:02Z</time>
      </trkpt>
      <trkpt lat="46.64568" lon="3.64642">
        <ele>225.09</ele>
        <time>2021-08-13T10:57:03Z</time>
      </trkpt>
      <trkpt lat="46.64567" lon="3.6464">
        <ele>225.57</ele>
        <time>2021-08-13T10:57:04Z</time>
      </trkpt>
      <trkpt lat="46.64566" lon="3.64638">
        <ele>225.57</ele>
        <time>2021-08-13T10:57:05Z</time>
      </trkpt>
      <trkpt lat="46.64562" lon="3.64624">
        <ele>227.01</ele>
        <time>2021-08-13T10:57:12Z</time>
      </trkpt>
      <trkpt lat="46.64556" lon="3.64605">
        <ele>228.45</ele>
        <time>2021-08-13T10:57:21Z</time>
      </trkpt>
      <trkpt lat="46.64554" lon="3.64599">
        <ele>228.93</ele>
        <time>2021-08-13T10:57:24Z</time>
      </trkpt>
      <trkpt lat="46.64553" lon="3.64597">
        <ele>228.93</ele>
        <time>2021-08-13T10:57:25Z</time>
      </trkpt>
      <trkpt lat="46.64552" lon="3.64595">
        <ele>228.93</ele>
        <time>2021-08-13T10:57:26Z</time>
      </trkpt>
      <trkpt lat="46.64552" lon="3.64593">
        <ele>229.41</ele>
        <time>2021-08-13T10:57:27Z</time>
      </trkpt>
      <trkpt lat="46.64552" lon="3.64591">
        <ele>229.41</ele>
        <time>2021-08-13T10:57:28Z</time>
      </trkpt>
      <trkpt lat="46.64551" lon="3.64589">
        <ele>229.41</ele>
        <time>2021-08-13T10:57:29Z</time>
      </trkpt>
      <trkpt lat="46.64551" lon="3.64587">
        <ele>229.89</ele>
        <time>2021-08-13T10:57:30Z</time>
      </trkpt>
      <trkpt lat="46.6455" lon="3.64585">
        <ele>229.89</ele>
        <time>2021-08-13T10:57:31Z</time>
      </trkpt>
      <trkpt lat="46.6455" lon="3.64583">
        <ele>229.89</ele>
        <time>2021-08-13T10:57:32Z</time>
      </trkpt>
      <trkpt lat="46.6455" lon="3.64581">
        <ele>230.37</ele>
        <time>2021-08-13T10:57:33Z</time>
      </trkpt>
      <trkpt lat="46.6455" lon="3.64579">
        <ele>230.37</ele>
        <time>2021-08-13T10:57:34Z</time>
      </trkpt>
      <trkpt lat="46.6455" lon="3.64577">
        <ele>230.85</ele>
        <time>2021-08-13T10:57:35Z</time>
      </trkpt>
      <trkpt lat="46.6455" lon="3.64575">
        <ele>230.85</ele>
        <time>2021-08-13T10:57:36Z</time>
      </trkpt>
      <trkpt lat="46.6455" lon="3.64572">
        <ele>231.33</ele>
        <time>2021-08-13T10:57:37Z</time>
      </trkpt>
      <trkpt lat="46.6455" lon="3.64549">
        <ele>232.78</ele>
        <time>2021-08-13T10:57:48Z</time>
      </trkpt>
      <trkpt lat="46.6455" lon="3.64527">
        <ele>233.74</ele>
        <time>2021-08-13T10:57:58Z</time>
      </trkpt>
      <trkpt lat="46.64553" lon="3.64513">
        <ele>234.7</ele>
        <time>2021-08-13T10:58:05Z</time>
      </trkpt>
      <trkpt lat="46.64558" lon="3.64495">
        <ele>236.14</ele>
        <time>2021-08-13T10:58:13Z</time>
      </trkpt>
      <trkpt lat="46.64566" lon="3.64472">
        <ele>237.1</ele>
        <time>2021-08-13T10:58:22Z</time>
      </trkpt>
      <trkpt lat="46.64574" lon="3.64442">
        <ele>237.58</ele>
        <time>2021-08-13T10:58:30Z</time>
      </trkpt>
      <trkpt lat="46.64585" lon="3.64407">
        <ele>238.54</ele>
        <time>2021-08-13T10:58:38Z</time>
      </trkpt>
      <trkpt lat="46.64599" lon="3.64363">
        <ele>238.54</ele>
        <time>2021-08-13T10:58:48Z</time>
      </trkpt>
      <trkpt lat="46.64607" lon="3.64338">
        <ele>239.02</ele>
        <time>2021-08-13T10:58:55Z</time>
      </trkpt>
      <trkpt lat="46.64618" lon="3.643">
        <ele>239.02</ele>
        <time>2021-08-13T10:59:03Z</time>
      </trkpt>
      <trkpt lat="46.64628" lon="3.64263">
        <ele>239.02</ele>
        <time>2021-08-13T10:59:10Z</time>
      </trkpt>
      <trkpt lat="46.64631" lon="3.64248">
        <ele>242.39</ele>
        <time>2021-08-13T10:59:13Z</time>
      </trkpt>
      <trkpt lat="46.64632" lon="3.64244">
        <ele>239.02</ele>
        <time>2021-08-13T10:59:14Z</time>
      </trkpt>
      <trkpt lat="46.6464" lon="3.6421">
        <ele>238.54</ele>
        <time>2021-08-13T10:59:20Z</time>
      </trkpt>
      <trkpt lat="46.64651" lon="3.6416">
        <ele>238.06</ele>
        <time>2021-08-13T10:59:28Z</time>
      </trkpt>
      <trkpt lat="46.64655" lon="3.64142">
        <ele>238.06</ele>
        <time>2021-08-13T10:59:31Z</time>
      </trkpt>
      <trkpt lat="46.64657" lon="3.64136">
        <ele>238.06</ele>
        <time>2021-08-13T10:59:32Z</time>
      </trkpt>
      <trkpt lat="46.64659" lon="3.6413">
        <ele>237.58</ele>
        <time>2021-08-13T10:59:33Z</time>
      </trkpt>
      <trkpt lat="46.64674" lon="3.6407">
        <ele>237.58</ele>
        <time>2021-08-13T10:59:42Z</time>
      </trkpt>
      <trkpt lat="46.64689" lon="3.64009">
        <ele>237.1</ele>
        <time>2021-08-13T10:59:51Z</time>
      </trkpt>
      <trkpt lat="46.64701" lon="3.63957">
        <ele>237.1</ele>
        <time>2021-08-13T10:59:59Z</time>
      </trkpt>
      <trkpt lat="46.64713" lon="3.63903">
        <ele>237.1</ele>
        <time>2021-08-13T11:00:07Z</time>
      </trkpt>
      <trkpt lat="46.64714" lon="3.63897">
        <ele>237.1</ele>
        <time>2021-08-13T11:00:08Z</time>
      </trkpt>
      <trkpt lat="46.64728" lon="3.63839">
        <ele>237.1</ele>
        <time>2021-08-13T11:00:17Z</time>
      </trkpt>
      <trkpt lat="46.64737" lon="3.63796">
        <ele>238.06</ele>
        <time>2021-08-13T11:00:24Z</time>
      </trkpt>
      <trkpt lat="46.64746" lon="3.63757">
        <ele>238.54</ele>
        <time>2021-08-13T11:00:30Z</time>
      </trkpt>
      <trkpt lat="46.64747" lon="3.63751">
        <ele>238.54</ele>
        <time>2021-08-13T11:00:31Z</time>
      </trkpt>
      <trkpt lat="46.64751" lon="3.63731">
        <ele>239.02</ele>
        <time>2021-08-13T11:00:34Z</time>
      </trkpt>
      <trkpt lat="46.64761" lon="3.63683">
        <ele>239.51</ele>
        <time>2021-08-13T11:00:42Z</time>
      </trkpt>
      <trkpt lat="46.64769" lon="3.63641">
        <ele>239.51</ele>
        <time>2021-08-13T11:00:49Z</time>
      </trkpt>
      <trkpt lat="46.64771" lon="3.63628">
        <ele>239.51</ele>
        <time>2021-08-13T11:00:51Z</time>
      </trkpt>
      <trkpt lat="46.64783" lon="3.63567">
        <ele>239.51</ele>
        <time>2021-08-13T11:01:00Z</time>
      </trkpt>
      <trkpt lat="46.64795" lon="3.63505">
        <ele>239.51</ele>
        <time>2021-08-13T11:01:09Z</time>
      </trkpt>
      <trkpt lat="46.64811" lon="3.63428">
        <ele>239.51</ele>
        <time>2021-08-13T11:01:20Z</time>
      </trkpt>
      <trkpt lat="46.64831" lon="3.63352">
        <ele>239.51</ele>
        <time>2021-08-13T11:01:31Z</time>
      </trkpt>
      <trkpt lat="46.64833" lon="3.63345">
        <ele>239.51</ele>
        <time>2021-08-13T11:01:32Z</time>
      </trkpt>
      <trkpt lat="46.64857" lon="3.63282">
        <ele>238.06</ele>
        <time>2021-08-13T11:01:42Z</time>
      </trkpt>
      <trkpt lat="46.64888" lon="3.63218">
        <ele>237.1</ele>
        <time>2021-08-13T11:01:52Z</time>
      </trkpt>
      <trkpt lat="46.64892" lon="3.63212">
        <ele>237.1</ele>
        <time>2021-08-13T11:01:53Z</time>
      </trkpt>
      <trkpt lat="46.64933" lon="3.63148">
        <ele>236.14</ele>
        <time>2021-08-13T11:02:03Z</time>
      </trkpt>
      <trkpt lat="46.64956" lon="3.63103">
        <ele>235.66</ele>
        <time>2021-08-13T11:02:10Z</time>
      </trkpt>
      <trkpt lat="46.64972" lon="3.63072">
        <ele>235.66</ele>
        <time>2021-08-13T11:02:15Z</time>
      </trkpt>
      <trkpt lat="46.64975" lon="3.63066">
        <ele>235.66</ele>
        <time>2021-08-13T11:02:16Z</time>
      </trkpt>
      <trkpt lat="46.65001" lon="3.63012">
        <ele>236.62</ele>
        <time>2021-08-13T11:02:25Z</time>
      </trkpt>
      <trkpt lat="46.65027" lon="3.62954">
        <ele>237.1</ele>
        <time>2021-08-13T11:02:35Z</time>
      </trkpt>
      <trkpt lat="46.65046" lon="3.62906">
        <ele>237.58</ele>
        <time>2021-08-13T11:02:43Z</time>
      </trkpt>
      <trkpt lat="46.65062" lon="3.62857">
        <ele>239.02</ele>
        <time>2021-08-13T11:02:51Z</time>
      </trkpt>
      <trkpt lat="46.65081" lon="3.62788">
        <ele>238.54</ele>
        <time>2021-08-13T11:03:02Z</time>
      </trkpt>
      <trkpt lat="46.65085" lon="3.62769">
        <ele>240.47</ele>
        <time>2021-08-13T11:03:05Z</time>
      </trkpt>
      <trkpt lat="46.65089" lon="3.6275">
        <ele>238.54</ele>
        <time>2021-08-13T11:03:08Z</time>
      </trkpt>
      <trkpt lat="46.65092" lon="3.62736">
        <ele>238.54</ele>
        <time>2021-08-13T11:03:10Z</time>
      </trkpt>
      <trkpt lat="46.65093" lon="3.62728">
        <ele>238.54</ele>
        <time>2021-08-13T11:03:11Z</time>
      </trkpt>
      <trkpt lat="46.65095" lon="3.62714">
        <ele>240.47</ele>
        <time>2021-08-13T11:03:13Z</time>
      </trkpt>
      <trkpt lat="46.65105" lon="3.62639">
        <ele>238.54</ele>
        <time>2021-08-13T11:03:23Z</time>
      </trkpt>
      <trkpt lat="46.65115" lon="3.62559">
        <ele>238.54</ele>
        <time>2021-08-13T11:03:34Z</time>
      </trkpt>
      <trkpt lat="46.65123" lon="3.6249">
        <ele>237.58</ele>
        <time>2021-08-13T11:03:44Z</time>
      </trkpt>
      <trkpt lat="46.65131" lon="3.62432">
        <ele>236.62</ele>
        <time>2021-08-13T11:03:52Z</time>
      </trkpt>
      <trkpt lat="46.65142" lon="3.62363">
        <ele>234.7</ele>
        <time>2021-08-13T11:04:00Z</time>
      </trkpt>
      <trkpt lat="46.65157" lon="3.6228">
        <ele>233.26</ele>
        <time>2021-08-13T11:04:09Z</time>
      </trkpt>
      <trkpt lat="46.65171" lon="3.62203">
        <ele>234.7</ele>
        <time>2021-08-13T11:04:18Z</time>
      </trkpt>
      <trkpt lat="46.65184" lon="3.62132">
        <ele>233.26</ele>
        <time>2021-08-13T11:04:27Z</time>
      </trkpt>
      <trkpt lat="46.65189" lon="3.62119">
        <ele>233.26</ele>
        <time>2021-08-13T11:04:29Z</time>
      </trkpt>
      <trkpt lat="46.65194" lon="3.62112">
        <ele>233.26</ele>
        <time>2021-08-13T11:04:30Z</time>
      </trkpt>
      <trkpt lat="46.65198" lon="3.62108">
        <ele>233.26</ele>
        <time>2021-08-13T11:04:31Z</time>
      </trkpt>
      <trkpt lat="46.65207" lon="3.621">
        <ele>233.26</ele>
        <time>2021-08-13T11:04:33Z</time>
      </trkpt>
      <trkpt lat="46.65217" lon="3.62093">
        <ele>233.26</ele>
        <time>2021-08-13T11:04:35Z</time>
      </trkpt>
      <trkpt lat="46.65221" lon="3.6209">
        <ele>233.26</ele>
        <time>2021-08-13T11:04:36Z</time>
      </trkpt>
      <trkpt lat="46.65226" lon="3.62086">
        <ele>233.26</ele>
        <time>2021-08-13T11:04:37Z</time>
      </trkpt>
      <trkpt lat="46.65254" lon="3.62054">
        <ele>233.26</ele>
        <time>2021-08-13T11:04:44Z</time>
      </trkpt>
      <trkpt lat="46.65287" lon="3.62015">
        <ele>233.26</ele>
        <time>2021-08-13T11:04:52Z</time>
      </trkpt>
      <trkpt lat="46.65312" lon="3.61986">
        <ele>233.26</ele>
        <time>2021-08-13T11:04:58Z</time>
      </trkpt>
      <trkpt lat="46.65349" lon="3.6195">
        <ele>232.78</ele>
        <time>2021-08-13T11:05:06Z</time>
      </trkpt>
      <trkpt lat="46.65383" lon="3.61922">
        <ele>232.78</ele>
        <time>2021-08-13T11:05:13Z</time>
      </trkpt>
      <trkpt lat="46.65427" lon="3.61887">
        <ele>232.78</ele>
        <time>2021-08-13T11:05:21Z</time>
      </trkpt>
      <trkpt lat="46.65463" lon="3.61857">
        <ele>232.3</ele>
        <time>2021-08-13T11:05:28Z</time>
      </trkpt>
      <trkpt lat="46.65495" lon="3.6183">
        <ele>232.3</ele>
        <time>2021-08-13T11:05:34Z</time>
      </trkpt>
      <trkpt lat="46.65532" lon="3.61797">
        <ele>232.3</ele>
        <time>2021-08-13T11:05:41Z</time>
      </trkpt>
      <trkpt lat="46.65564" lon="3.6177">
        <ele>232.3</ele>
        <time>2021-08-13T11:05:48Z</time>
      </trkpt>
      <trkpt lat="46.65576" lon="3.6176">
        <ele>232.3</ele>
        <time>2021-08-13T11:05:51Z</time>
      </trkpt>
      <trkpt lat="46.65579" lon="3.61758">
        <ele>232.3</ele>
        <time>2021-08-13T11:05:52Z</time>
      </trkpt>
      <trkpt lat="46.65585" lon="3.61752">
        <ele>232.3</ele>
        <time>2021-08-13T11:05:55Z</time>
      </trkpt>
      <trkpt lat="46.65585" lon="3.61749">
        <ele>232.3</ele>
        <time>2021-08-13T11:05:56Z</time>
      </trkpt>
      <trkpt lat="46.65585" lon="3.61746">
        <ele>232.3</ele>
        <time>2021-08-13T11:05:57Z</time>
      </trkpt>
      <trkpt lat="46.65585" lon="3.61743">
        <ele>232.3</ele>
        <time>2021-08-13T11:05:58Z</time>
      </trkpt>
      <trkpt lat="46.65584" lon="3.61739">
        <ele>232.3</ele>
        <time>2021-08-13T11:05:59Z</time>
      </trkpt>
      <trkpt lat="46.65583" lon="3.61735">
        <ele>232.3</ele>
        <time>2021-08-13T11:06:00Z</time>
      </trkpt>
      <trkpt lat="46.65574" lon="3.617">
        <ele>231.81</ele>
        <time>2021-08-13T11:06:07Z</time>
      </trkpt>
      <trkpt lat="46.65564" lon="3.61659">
        <ele>231.81</ele>
        <time>2021-08-13T11:06:14Z</time>
      </trkpt>
      <trkpt lat="46.65563" lon="3.61653">
        <ele>231.81</ele>
        <time>2021-08-13T11:06:15Z</time>
      </trkpt>
      <trkpt lat="46.65561" lon="3.61647">
        <ele>231.81</ele>
        <time>2021-08-13T11:06:16Z</time>
      </trkpt>
      <trkpt lat="46.6555" lon="3.61598">
        <ele>231.81</ele>
        <time>2021-08-13T11:06:24Z</time>
      </trkpt>
      <trkpt lat="46.65548" lon="3.61585">
        <ele>231.81</ele>
        <time>2021-08-13T11:06:26Z</time>
      </trkpt>
      <trkpt lat="46.65546" lon="3.61579">
        <ele>231.81</ele>
        <time>2021-08-13T11:06:27Z</time>
      </trkpt>
      <trkpt lat="46.65544" lon="3.61572">
        <ele>231.81</ele>
        <time>2021-08-13T11:06:28Z</time>
      </trkpt>
      <trkpt lat="46.65531" lon="3.61515">
        <ele>231.33</ele>
        <time>2021-08-13T11:06:36Z</time>
      </trkpt>
      <trkpt lat="46.65515" lon="3.61456">
        <ele>231.33</ele>
        <time>2021-08-13T11:06:45Z</time>
      </trkpt>
      <trkpt lat="46.65497" lon="3.61403">
        <ele>232.3</ele>
        <time>2021-08-13T11:06:54Z</time>
      </trkpt>
      <trkpt lat="46.65496" lon="3.61398">
        <ele>232.3</ele>
        <time>2021-08-13T11:06:55Z</time>
      </trkpt>
      <trkpt lat="46.65494" lon="3.61392">
        <ele>232.3</ele>
        <time>2021-08-13T11:06:56Z</time>
      </trkpt>
      <trkpt lat="46.6548" lon="3.61351">
        <ele>232.78</ele>
        <time>2021-08-13T11:07:03Z</time>
      </trkpt>
      <trkpt lat="46.65463" lon="3.61305">
        <ele>234.22</ele>
        <time>2021-08-13T11:07:12Z</time>
      </trkpt>
      <trkpt lat="46.6546" lon="3.61279">
        <ele>234.7</ele>
        <time>2021-08-13T11:07:17Z</time>
      </trkpt>
      <trkpt lat="46.65448" lon="3.61271">
        <ele>235.18</ele>
        <time>2021-08-13T11:07:21Z</time>
      </trkpt>
      <trkpt lat="46.65432" lon="3.61274">
        <ele>235.66</ele>
        <time>2021-08-13T11:07:26Z</time>
      </trkpt>
      <trkpt lat="46.65423" lon="3.61279">
        <ele>235.66</ele>
        <time>2021-08-13T11:07:30Z</time>
      </trkpt>
      <trkpt lat="46.65422" lon="3.61281">
        <ele>235.66</ele>
        <time>2021-08-13T11:07:31Z</time>
      </trkpt>
      <trkpt lat="46.65421" lon="3.61286">
        <ele>235.66</ele>
        <time>2021-08-13T11:07:37Z</time>
      </trkpt>
      <trkpt lat="46.65419" lon="3.61285">
        <ele>235.66</ele>
        <time>2021-08-13T11:07:55Z</time>
      </trkpt>
      <trkpt lat="46.65419" lon="3.61283">
        <ele>235.66</ele>
        <time>2021-08-13T11:08:16Z</time>
      </trkpt>
      <trkpt lat="46.65424" lon="3.61283">
        <ele>235.66</ele>
        <time>2021-08-13T11:08:42Z</time>
      </trkpt>
      <trkpt lat="46.6542" lon="3.61285">
        <ele>235.66</ele>
        <time>2021-08-13T11:08:59Z</time>
      </trkpt>
      <trkpt lat="46.65423" lon="3.61281">
        <ele>235.66</ele>
        <time>2021-08-13T11:09:22Z</time>
      </trkpt>
      <trkpt lat="46.65423" lon="3.61284">
        <ele>235.66</ele>
        <time>2021-08-13T11:09:40Z</time>
      </trkpt>
      <trkpt lat="46.65424" lon="3.61277">
        <ele>235.66</ele>
        <time>2021-08-13T11:09:58Z</time>
      </trkpt>
      <trkpt lat="46.65419" lon="3.61283">
        <ele>235.66</ele>
        <time>2021-08-13T11:10:21Z</time>
      </trkpt>
      <trkpt lat="46.6542" lon="3.61287">
        <ele>235.66</ele>
        <time>2021-08-13T11:10:32Z</time>
      </trkpt>
      <trkpt lat="46.65422" lon="3.61286">
        <ele>235.66</ele>
        <time>2021-08-13T11:10:50Z</time>
      </trkpt>
      <trkpt lat="46.65423" lon="3.61292">
        <ele>235.66</ele>
        <time>2021-08-13T11:11:09Z</time>
      </trkpt>
      <trkpt lat="46.65421" lon="3.61292">
        <ele>235.18</ele>
        <time>2021-08-13T11:11:22Z</time>
      </trkpt>
      <trkpt lat="46.65419" lon="3.61288">
        <ele>235.18</ele>
        <time>2021-08-13T11:11:40Z</time>
      </trkpt>
      <trkpt lat="46.65421" lon="3.61288">
        <ele>235.18</ele>
        <time>2021-08-13T11:11:58Z</time>
      </trkpt>
      <trkpt lat="46.65422" lon="3.61287">
        <ele>235.18</ele>
        <time>2021-08-13T11:12:20Z</time>
      </trkpt>
      <trkpt lat="46.6542" lon="3.61287">
        <ele>235.18</ele>
        <time>2021-08-13T11:12:43Z</time>
      </trkpt>
      <trkpt lat="46.65421" lon="3.61287">
        <ele>235.18</ele>
        <time>2021-08-13T11:12:59Z</time>
      </trkpt>
      <trkpt lat="46.65421" lon="3.61285">
        <ele>235.18</ele>
        <time>2021-08-13T11:13:12Z</time>
      </trkpt>
      <trkpt lat="46.65419" lon="3.61287">
        <ele>235.18</ele>
        <time>2021-08-13T11:13:27Z</time>
      </trkpt>
      <trkpt lat="46.6542" lon="3.61284">
        <ele>235.18</ele>
        <time>2021-08-13T11:13:45Z</time>
      </trkpt>
      <trkpt lat="46.65416" lon="3.6128">
        <ele>235.18</ele>
        <time>2021-08-13T11:14:10Z</time>
      </trkpt>
      <trkpt lat="46.65414" lon="3.61282">
        <ele>235.18</ele>
        <time>2021-08-13T11:14:30Z</time>
      </trkpt>
      <trkpt lat="46.65417" lon="3.61283">
        <ele>235.18</ele>
        <time>2021-08-13T11:14:43Z</time>
      </trkpt>
      <trkpt lat="46.65417" lon="3.61288">
        <ele>235.18</ele>
        <time>2021-08-13T11:15:01Z</time>
      </trkpt>
      <trkpt lat="46.65417" lon="3.61282">
        <ele>235.18</ele>
        <time>2021-08-13T11:15:19Z</time>
      </trkpt>
      <trkpt lat="46.65417" lon="3.61282">
        <ele>235.18</ele>
        <time>2021-08-13T11:15:22Z</time>
      </trkpt>
      <trkpt lat="46.65418" lon="3.61286">
        <ele>235.18</ele>
        <time>2021-08-13T11:15:28Z</time>
      </trkpt>
      <trkpt lat="46.65418" lon="3.61292">
        <ele>235.18</ele>
        <time>2021-08-13T11:15:49Z</time>
      </trkpt>
      <trkpt lat="46.6542" lon="3.61291">
        <ele>235.18</ele>
        <time>2021-08-13T11:16:09Z</time>
      </trkpt>
      <trkpt lat="46.6542" lon="3.61288">
        <ele>235.18</ele>
        <time>2021-08-13T11:16:27Z</time>
      </trkpt>
      <trkpt lat="46.65422" lon="3.61286">
        <ele>235.18</ele>
        <time>2021-08-13T11:16:45Z</time>
      </trkpt>
      <trkpt lat="46.65424" lon="3.61288">
        <ele>235.18</ele>
        <time>2021-08-13T11:16:58Z</time>
      </trkpt>
      <trkpt lat="46.65421" lon="3.6129">
        <ele>235.18</ele>
        <time>2021-08-13T11:17:13Z</time>
      </trkpt>
      <trkpt lat="46.65421" lon="3.61287">
        <ele>234.7</ele>
        <time>2021-08-13T11:17:30Z</time>
      </trkpt>
      <trkpt lat="46.65419" lon="3.61287">
        <ele>234.7</ele>
        <time>2021-08-13T11:17:52Z</time>
      </trkpt>
      <trkpt lat="46.65421" lon="3.61283">
        <ele>234.7</ele>
        <time>2021-08-13T11:18:06Z</time>
      </trkpt>
      <trkpt lat="46.65421" lon="3.61288">
        <ele>234.7</ele>
        <time>2021-08-13T11:18:20Z</time>
      </trkpt>
      <trkpt lat="46.65421" lon="3.6129">
        <ele>234.7</ele>
        <time>2021-08-13T11:18:44Z</time>
      </trkpt>
      <trkpt lat="46.65424" lon="3.61291">
        <ele>234.7</ele>
        <time>2021-08-13T11:19:00Z</time>
      </trkpt>
      <trkpt lat="46.65421" lon="3.61284">
        <ele>234.7</ele>
        <time>2021-08-13T11:19:18Z</time>
      </trkpt>
      <trkpt lat="46.65418" lon="3.61283">
        <ele>234.7</ele>
        <time>2021-08-13T11:19:40Z</time>
      </trkpt>
      <trkpt lat="46.6542" lon="3.61286">
        <ele>234.7</ele>
        <time>2021-08-13T11:19:53Z</time>
      </trkpt>
      <trkpt lat="46.6542" lon="3.61287">
        <ele>234.7</ele>
        <time>2021-08-13T11:20:07Z</time>
      </trkpt>
      <trkpt lat="46.65419" lon="3.61285">
        <ele>234.7</ele>
        <time>2021-08-13T11:20:14Z</time>
      </trkpt>
      <trkpt lat="46.65418" lon="3.61282">
        <ele>234.7</ele>
        <time>2021-08-13T11:20:15Z</time>
      </trkpt>
      <trkpt lat="46.65417" lon="3.6128">
        <ele>234.7</ele>
        <time>2021-08-13T11:20:19Z</time>
      </trkpt>
      <trkpt lat="46.65418" lon="3.61281">
        <ele>234.7</ele>
        <time>2021-08-13T11:20:26Z</time>
      </trkpt>
      <trkpt lat="46.6542" lon="3.61279">
        <ele>234.7</ele>
        <time>2021-08-13T11:20:40Z</time>
      </trkpt>
      <trkpt lat="46.65416" lon="3.61277">
        <ele>234.7</ele>
        <time>2021-08-13T11:20:58Z</time>
      </trkpt>
      <trkpt lat="46.65417" lon="3.61281">
        <ele>234.7</ele>
        <time>2021-08-13T11:21:19Z</time>
      </trkpt>
      <trkpt lat="46.6542" lon="3.61286">
        <ele>234.7</ele>
        <time>2021-08-13T11:21:42Z</time>
      </trkpt>
      <trkpt lat="46.65421" lon="3.61291">
        <ele>234.7</ele>
        <time>2021-08-13T11:22:02Z</time>
      </trkpt>
      <trkpt lat="46.65418" lon="3.61286">
        <ele>234.7</ele>
        <time>2021-08-13T11:22:22Z</time>
      </trkpt>
      <trkpt lat="46.65416" lon="3.6129">
        <ele>234.7</ele>
        <time>2021-08-13T11:22:43Z</time>
      </trkpt>
      <trkpt lat="46.65417" lon="3.61291">
        <ele>234.7</ele>
        <time>2021-08-13T11:22:58Z</time>
      </trkpt>
      <trkpt lat="46.6542" lon="3.61291">
        <ele>234.7</ele>
        <time>2021-08-13T11:23:17Z</time>
      </trkpt>
      <trkpt lat="46.65414" lon="3.61287">
        <ele>234.7</ele>
        <time>2021-08-13T11:23:37Z</time>
      </trkpt>
      <trkpt lat="46.65416" lon="3.61288">
        <ele>234.7</ele>
        <time>2021-08-13T11:23:59Z</time>
      </trkpt>
      <trkpt lat="46.65418" lon="3.61289">
        <ele>234.7</ele>
        <time>2021-08-13T11:24:17Z</time>
      </trkpt>
      <trkpt lat="46.65421" lon="3.61285">
        <ele>234.7</ele>
        <time>2021-08-13T11:24:40Z</time>
      </trkpt>
      <trkpt lat="46.6542" lon="3.61285">
        <ele>234.7</ele>
        <time>2021-08-13T11:24:58Z</time>
      </trkpt>
      <trkpt lat="46.65418" lon="3.61284">
        <ele>234.7</ele>
        <time>2021-08-13T11:25:21Z</time>
      </trkpt>
      <trkpt lat="46.65414" lon="3.6129">
        <ele>234.7</ele>
        <time>2021-08-13T11:25:44Z</time>
      </trkpt>
      <trkpt lat="46.65416" lon="3.6129">
        <ele>234.7</ele>
        <time>2021-08-13T11:26:09Z</time>
      </trkpt>
      <trkpt lat="46.65421" lon="3.6129">
        <ele>234.7</ele>
        <time>2021-08-13T11:26:28Z</time>
      </trkpt>
      <trkpt lat="46.65419" lon="3.61284">
        <ele>234.7</ele>
        <time>2021-08-13T11:26:50Z</time>
      </trkpt>
      <trkpt lat="46.65421" lon="3.61287">
        <ele>234.7</ele>
        <time>2021-08-13T11:27:06Z</time>
      </trkpt>
      <trkpt lat="46.65421" lon="3.61286">
        <ele>234.7</ele>
        <time>2021-08-13T11:27:30Z</time>
      </trkpt>
      <trkpt lat="46.6542" lon="3.61291">
        <ele>234.7</ele>
        <time>2021-08-13T11:27:46Z</time>
      </trkpt>
      <trkpt lat="46.65419" lon="3.61292">
        <ele>234.7</ele>
        <time>2021-08-13T11:28:04Z</time>
      </trkpt>
      <trkpt lat="46.6542" lon="3.6129">
        <ele>234.7</ele>
        <time>2021-08-13T11:28:25Z</time>
      </trkpt>
      <trkpt lat="46.6542" lon="3.6129">
        <ele>234.7</ele>
        <time>2021-08-13T11:28:45Z</time>
      </trkpt>
      <trkpt lat="46.65423" lon="3.61283">
        <ele>234.7</ele>
        <time>2021-08-13T11:28:59Z</time>
      </trkpt>
      <trkpt lat="46.65423" lon="3.61286">
        <ele>234.7</ele>
        <time>2021-08-13T11:29:16Z</time>
      </trkpt>
      <trkpt lat="46.65423" lon="3.61288">
        <ele>234.7</ele>
        <time>2021-08-13T11:29:35Z</time>
      </trkpt>
      <trkpt lat="46.65423" lon="3.61288">
        <ele>234.7</ele>
        <time>2021-08-13T11:29:56Z</time>
      </trkpt>
      <trkpt lat="46.65427" lon="3.61293">
        <ele>234.7</ele>
        <time>2021-08-13T11:30:17Z</time>
      </trkpt>
      <trkpt lat="46.65426" lon="3.61291">
        <ele>234.7</ele>
        <time>2021-08-13T11:30:36Z</time>
      </trkpt>
      <trkpt lat="46.65423" lon="3.61289">
        <ele>234.7</ele>
        <time>2021-08-13T11:30:57Z</time>
      </trkpt>
      <trkpt lat="46.6542" lon="3.61279">
        <ele>234.7</ele>
        <time>2021-08-13T11:31:19Z</time>
      </trkpt>
      <trkpt lat="46.6542" lon="3.6128">
        <ele>234.7</ele>
        <time>2021-08-13T11:31:44Z</time>
      </trkpt>
      <trkpt lat="46.65421" lon="3.61289">
        <ele>234.22</ele>
        <time>2021-08-13T11:32:04Z</time>
      </trkpt>
      <trkpt lat="46.6542" lon="3.61289">
        <ele>234.22</ele>
        <time>2021-08-13T11:32:27Z</time>
      </trkpt>
      <trkpt lat="46.65417" lon="3.61289">
        <ele>234.22</ele>
        <time>2021-08-13T11:32:47Z</time>
      </trkpt>
      <trkpt lat="46.65416" lon="3.61296">
        <ele>234.22</ele>
        <time>2021-08-13T11:33:09Z</time>
      </trkpt>
      <trkpt lat="46.65416" lon="3.61291">
        <ele>234.22</ele>
        <time>2021-08-13T11:33:28Z</time>
      </trkpt>
      <trkpt lat="46.65416" lon="3.61288">
        <ele>234.22</ele>
        <time>2021-08-13T11:33:47Z</time>
      </trkpt>
      <trkpt lat="46.65413" lon="3.61283">
        <ele>234.22</ele>
        <time>2021-08-13T11:34:13Z</time>
      </trkpt>
      <trkpt lat="46.65413" lon="3.61277">
        <ele>234.22</ele>
        <time>2021-08-13T11:34:33Z</time>
      </trkpt>
      <trkpt lat="46.65414" lon="3.61277">
        <ele>234.22</ele>
        <time>2021-08-13T11:34:51Z</time>
      </trkpt>
      <trkpt lat="46.65414" lon="3.61275">
        <ele>234.22</ele>
        <time>2021-08-13T11:35:08Z</time>
      </trkpt>
      <trkpt lat="46.65417" lon="3.6128">
        <ele>233.74</ele>
        <time>2021-08-13T11:35:27Z</time>
      </trkpt>
      <trkpt lat="46.65416" lon="3.61282">
        <ele>233.74</ele>
        <time>2021-08-13T11:35:47Z</time>
      </trkpt>
      <trkpt lat="46.65418" lon="3.61277">
        <ele>233.74</ele>
        <time>2021-08-13T11:36:07Z</time>
      </trkpt>
      <trkpt lat="46.65415" lon="3.61282">
        <ele>233.74</ele>
        <time>2021-08-13T11:36:26Z</time>
      </trkpt>
      <trkpt lat="46.65415" lon="3.61281">
        <ele>233.74</ele>
        <time>2021-08-13T11:36:45Z</time>
      </trkpt>
      <trkpt lat="46.65416" lon="3.61277">
        <ele>233.74</ele>
        <time>2021-08-13T11:36:57Z</time>
      </trkpt>
      <trkpt lat="46.65422" lon="3.61278">
        <ele>233.74</ele>
        <time>2021-08-13T11:37:18Z</time>
      </trkpt>
      <trkpt lat="46.6542" lon="3.61282">
        <ele>233.74</ele>
        <time>2021-08-13T11:37:37Z</time>
      </trkpt>
      <trkpt lat="46.65417" lon="3.61283">
        <ele>233.74</ele>
        <time>2021-08-13T11:37:57Z</time>
      </trkpt>
      <trkpt lat="46.65418" lon="3.61283">
        <ele>233.74</ele>
        <time>2021-08-13T11:38:11Z</time>
      </trkpt>
      <trkpt lat="46.65415" lon="3.61284">
        <ele>233.74</ele>
        <time>2021-08-13T11:38:28Z</time>
      </trkpt>
      <trkpt lat="46.65421" lon="3.61288">
        <ele>233.74</ele>
        <time>2021-08-13T11:38:52Z</time>
      </trkpt>
      <trkpt lat="46.65422" lon="3.61293">
        <ele>233.74</ele>
        <time>2021-08-13T11:39:10Z</time>
      </trkpt>
      <trkpt lat="46.65426" lon="3.61289">
        <ele>233.74</ele>
        <time>2021-08-13T11:39:27Z</time>
      </trkpt>
      <trkpt lat="46.65424" lon="3.61278">
        <ele>233.26</ele>
        <time>2021-08-13T11:39:51Z</time>
      </trkpt>
      <trkpt lat="46.65421" lon="3.61283">
        <ele>233.26</ele>
        <time>2021-08-13T11:40:15Z</time>
      </trkpt>
      <trkpt lat="46.65416" lon="3.61285">
        <ele>233.74</ele>
        <time>2021-08-13T11:40:37Z</time>
      </trkpt>
      <trkpt lat="46.6542" lon="3.61286">
        <ele>233.74</ele>
        <time>2021-08-13T11:40:53Z</time>
      </trkpt>
      <trkpt lat="46.65419" lon="3.61279">
        <ele>233.74</ele>
        <time>2021-08-13T11:41:08Z</time>
      </trkpt>
      <trkpt lat="46.65415" lon="3.61281">
        <ele>233.74</ele>
        <time>2021-08-13T11:41:34Z</time>
      </trkpt>
      <trkpt lat="46.65417" lon="3.6128">
        <ele>233.74</ele>
        <time>2021-08-13T11:41:52Z</time>
      </trkpt>
      <trkpt lat="46.65416" lon="3.6128">
        <ele>233.74</ele>
        <time>2021-08-13T11:42:09Z</time>
      </trkpt>
      <trkpt lat="46.65419" lon="3.61284">
        <ele>233.74</ele>
        <time>2021-08-13T11:42:28Z</time>
      </trkpt>
      <trkpt lat="46.65419" lon="3.61287">
        <ele>233.74</ele>
        <time>2021-08-13T11:42:52Z</time>
      </trkpt>
      <trkpt lat="46.65418" lon="3.61284">
        <ele>233.74</ele>
        <time>2021-08-13T11:43:14Z</time>
      </trkpt>
      <trkpt lat="46.65422" lon="3.61288">
        <ele>233.74</ele>
        <time>2021-08-13T11:43:33Z</time>
      </trkpt>
      <trkpt lat="46.65421" lon="3.61285">
        <ele>233.26</ele>
        <time>2021-08-13T11:43:52Z</time>
      </trkpt>
      <trkpt lat="46.6542" lon="3.61286">
        <ele>233.26</ele>
        <time>2021-08-13T11:44:14Z</time>
      </trkpt>
      <trkpt lat="46.65422" lon="3.61286">
        <ele>233.26</ele>
        <time>2021-08-13T11:44:33Z</time>
      </trkpt>
      <trkpt lat="46.65416" lon="3.61289">
        <ele>233.74</ele>
        <time>2021-08-13T11:44:51Z</time>
      </trkpt>
      <trkpt lat="46.65415" lon="3.61286">
        <ele>233.74</ele>
        <time>2021-08-13T11:45:12Z</time>
      </trkpt>
      <trkpt lat="46.65414" lon="3.61283">
        <ele>233.74</ele>
        <time>2021-08-13T11:45:33Z</time>
      </trkpt>
      <trkpt lat="46.65409" lon="3.61276">
        <ele>233.74</ele>
        <time>2021-08-13T11:45:51Z</time>
      </trkpt>
      <trkpt lat="46.6541" lon="3.61268">
        <ele>233.74</ele>
        <time>2021-08-13T11:46:07Z</time>
      </trkpt>
      <trkpt lat="46.65411" lon="3.6127">
        <ele>233.74</ele>
        <time>2021-08-13T11:46:29Z</time>
      </trkpt>
      <trkpt lat="46.65414" lon="3.61277">
        <ele>233.74</ele>
        <time>2021-08-13T11:46:48Z</time>
      </trkpt>
      <trkpt lat="46.6541" lon="3.61275">
        <ele>233.74</ele>
        <time>2021-08-13T11:47:11Z</time>
      </trkpt>
      <trkpt lat="46.65414" lon="3.61288">
        <ele>233.74</ele>
        <time>2021-08-13T11:47:30Z</time>
      </trkpt>
      <trkpt lat="46.65415" lon="3.61288">
        <ele>233.74</ele>
        <time>2021-08-13T11:47:44Z</time>
      </trkpt>
      <trkpt lat="46.65418" lon="3.61287">
        <ele>233.74</ele>
        <time>2021-08-13T11:48:13Z</time>
      </trkpt>
      <trkpt lat="46.65419" lon="3.61284">
        <ele>233.74</ele>
        <time>2021-08-13T11:48:37Z</time>
      </trkpt>
      <trkpt lat="46.65418" lon="3.61283">
        <ele>233.74</ele>
        <time>2021-08-13T11:48:53Z</time>
      </trkpt>
      <trkpt lat="46.65418" lon="3.61285">
        <ele>233.74</ele>
        <time>2021-08-13T11:49:08Z</time>
      </trkpt>
      <trkpt lat="46.65421" lon="3.61279">
        <ele>233.74</ele>
        <time>2021-08-13T11:49:32Z</time>
      </trkpt>
      <trkpt lat="46.65422" lon="3.61278">
        <ele>233.74</ele>
        <time>2021-08-13T11:49:55Z</time>
      </trkpt>
      <trkpt lat="46.65422" lon="3.6128">
        <ele>233.74</ele>
        <time>2021-08-13T11:50:15Z</time>
      </trkpt>
      <trkpt lat="46.65426" lon="3.61286">
        <ele>233.74</ele>
        <time>2021-08-13T11:50:32Z</time>
      </trkpt>
      <trkpt lat="46.65425" lon="3.61284">
        <ele>233.74</ele>
        <time>2021-08-13T11:50:49Z</time>
      </trkpt>
      <trkpt lat="46.65424" lon="3.61279">
        <ele>233.74</ele>
        <time>2021-08-13T11:51:12Z</time>
      </trkpt>
      <trkpt lat="46.65424" lon="3.61279">
        <ele>233.74</ele>
        <time>2021-08-13T11:51:30Z</time>
      </trkpt>
      <trkpt lat="46.65423" lon="3.61283">
        <ele>233.74</ele>
        <time>2021-08-13T11:51:47Z</time>
      </trkpt>
      <trkpt lat="46.65424" lon="3.61282">
        <ele>233.74</ele>
        <time>2021-08-13T11:52:01Z</time>
      </trkpt>
      <trkpt lat="46.65423" lon="3.61282">
        <ele>233.74</ele>
        <time>2021-08-13T11:52:21Z</time>
      </trkpt>
      <trkpt lat="46.65422" lon="3.61285">
        <ele>233.74</ele>
        <time>2021-08-13T11:52:37Z</time>
      </trkpt>
      <trkpt lat="46.65423" lon="3.61287">
        <ele>233.74</ele>
        <time>2021-08-13T11:52:54Z</time>
      </trkpt>
      <trkpt lat="46.65421" lon="3.61294">
        <ele>233.74</ele>
        <time>2021-08-13T11:53:11Z</time>
      </trkpt>
      <trkpt lat="46.65424" lon="3.61292">
        <ele>233.74</ele>
        <time>2021-08-13T11:53:17Z</time>
      </trkpt>
      <trkpt lat="46.65432" lon="3.61293">
        <ele>233.74</ele>
        <time>2021-08-13T11:53:23Z</time>
      </trkpt>
      <trkpt lat="46.65435" lon="3.61295">
        <ele>233.74</ele>
        <time>2021-08-13T11:53:24Z</time>
      </trkpt>
      <trkpt lat="46.65441" lon="3.613">
        <ele>232.78</ele>
        <time>2021-08-13T11:53:27Z</time>
      </trkpt>
      <trkpt lat="46.65444" lon="3.61301">
        <ele>232.78</ele>
        <time>2021-08-13T11:53:28Z</time>
      </trkpt>
      <trkpt lat="46.65446" lon="3.61302">
        <ele>232.78</ele>
        <time>2021-08-13T11:53:29Z</time>
      </trkpt>
      <trkpt lat="46.65449" lon="3.61302">
        <ele>232.78</ele>
        <time>2021-08-13T11:53:30Z</time>
      </trkpt>
      <trkpt lat="46.65452" lon="3.61301">
        <ele>232.78</ele>
        <time>2021-08-13T11:53:31Z</time>
      </trkpt>
      <trkpt lat="46.65455" lon="3.61299">
        <ele>232.78</ele>
        <time>2021-08-13T11:53:32Z</time>
      </trkpt>
      <trkpt lat="46.65457" lon="3.61298">
        <ele>232.78</ele>
        <time>2021-08-13T11:53:33Z</time>
      </trkpt>
      <trkpt lat="46.65471" lon="3.61289">
        <ele>232.78</ele>
        <time>2021-08-13T11:53:40Z</time>
      </trkpt>
      <trkpt lat="46.65475" lon="3.61283">
        <ele>232.78</ele>
        <time>2021-08-13T11:53:48Z</time>
      </trkpt>
      <trkpt lat="46.65478" lon="3.61285">
        <ele>232.78</ele>
        <time>2021-08-13T11:53:55Z</time>
      </trkpt>
      <trkpt lat="46.65478" lon="3.61285">
        <ele>232.78</ele>
        <time>2021-08-13T11:54:01Z</time>
      </trkpt>
      <trkpt lat="46.65479" lon="3.61282">
        <ele>232.78</ele>
        <time>2021-08-13T11:54:15Z</time>
      </trkpt>
      <trkpt lat="46.65479" lon="3.61284">
        <ele>232.78</ele>
        <time>2021-08-13T11:54:28Z</time>
      </trkpt>
      <trkpt lat="46.65481" lon="3.61285">
        <ele>232.78</ele>
        <time>2021-08-13T11:54:38Z</time>
      </trkpt>
      <trkpt lat="46.65482" lon="3.61288">
        <ele>232.78</ele>
        <time>2021-08-13T11:54:39Z</time>
      </trkpt>
      <trkpt lat="46.65482" lon="3.61288">
        <ele>232.78</ele>
        <time>2021-08-13T11:54:42Z</time>
      </trkpt>
      <trkpt lat="46.65481" lon="3.61288">
        <ele>232.78</ele>
        <time>2021-08-13T11:54:44Z</time>
      </trkpt>
      <trkpt lat="46.65478" lon="3.61288">
        <ele>232.78</ele>
        <time>2021-08-13T11:54:51Z</time>
      </trkpt>
      <trkpt lat="46.65477" lon="3.61287">
        <ele>232.78</ele>
        <time>2021-08-13T11:55:03Z</time>
      </trkpt>
      <trkpt lat="46.65477" lon="3.61284">
        <ele>232.3</ele>
        <time>2021-08-13T11:55:21Z</time>
      </trkpt>
      <trkpt lat="46.65478" lon="3.61286">
        <ele>232.3</ele>
        <time>2021-08-13T11:55:33Z</time>
      </trkpt>
      <trkpt lat="46.65477" lon="3.61287">
        <ele>232.3</ele>
        <time>2021-08-13T11:55:48Z</time>
      </trkpt>
      <trkpt lat="46.65479" lon="3.6129">
        <ele>232.3</ele>
        <time>2021-08-13T11:56:01Z</time>
      </trkpt>
      <trkpt lat="46.65477" lon="3.61291">
        <ele>232.3</ele>
        <time>2021-08-13T11:56:18Z</time>
      </trkpt>
      <trkpt lat="46.65479" lon="3.6129">
        <ele>232.3</ele>
        <time>2021-08-13T11:56:32Z</time>
      </trkpt>
      <trkpt lat="46.6548" lon="3.61291">
        <ele>232.3</ele>
        <time>2021-08-13T11:56:48Z</time>
      </trkpt>
      <trkpt lat="46.6548" lon="3.61291">
        <ele>232.3</ele>
        <time>2021-08-13T11:57:00Z</time>
      </trkpt>
      <trkpt lat="46.6548" lon="3.61292">
        <ele>232.3</ele>
        <time>2021-08-13T11:57:11Z</time>
      </trkpt>
      <trkpt lat="46.6548" lon="3.61291">
        <ele>232.3</ele>
        <time>2021-08-13T11:57:20Z</time>
      </trkpt>
      <trkpt lat="46.65482" lon="3.6129">
        <ele>232.3</ele>
        <time>2021-08-13T11:57:34Z</time>
      </trkpt>
      <trkpt lat="46.65481" lon="3.6129">
        <ele>232.3</ele>
        <time>2021-08-13T11:57:45Z</time>
      </trkpt>
      <trkpt lat="46.65481" lon="3.61288">
        <ele>232.3</ele>
        <time>2021-08-13T11:57:58Z</time>
      </trkpt>
      <trkpt lat="46.65481" lon="3.61288">
        <ele>232.3</ele>
        <time>2021-08-13T11:58:13Z</time>
      </trkpt>
      <trkpt lat="46.6548" lon="3.6129">
        <ele>232.3</ele>
        <time>2021-08-13T11:58:26Z</time>
      </trkpt>
      <trkpt lat="46.65479" lon="3.61289">
        <ele>232.3</ele>
        <time>2021-08-13T11:58:44Z</time>
      </trkpt>
      <trkpt lat="46.6548" lon="3.61289">
        <ele>232.3</ele>
        <time>2021-08-13T11:58:57Z</time>
      </trkpt>
      <trkpt lat="46.6548" lon="3.61289">
        <ele>232.3</ele>
        <time>2021-08-13T11:59:05Z</time>
      </trkpt>
      <trkpt lat="46.65479" lon="3.61289">
        <ele>232.3</ele>
        <time>2021-08-13T11:59:17Z</time>
      </trkpt>
      <trkpt lat="46.65477" lon="3.61288">
        <ele>232.3</ele>
        <time>2021-08-13T11:59:33Z</time>
      </trkpt>
      <trkpt lat="46.65477" lon="3.61284">
        <ele>232.3</ele>
        <time>2021-08-13T11:59:53Z</time>
      </trkpt>
      <trkpt lat="46.6548" lon="3.61286">
        <ele>231.81</ele>
        <time>2021-08-13T12:00:04Z</time>
      </trkpt>
      <trkpt lat="46.6548" lon="3.61287">
        <ele>231.81</ele>
        <time>2021-08-13T12:00:18Z</time>
      </trkpt>
      <trkpt lat="46.65481" lon="3.61289">
        <ele>231.81</ele>
        <time>2021-08-13T12:00:28Z</time>
      </trkpt>
      <trkpt lat="46.65481" lon="3.61289">
        <ele>231.81</ele>
        <time>2021-08-13T12:00:49Z</time>
      </trkpt>
      <trkpt lat="46.65481" lon="3.61288">
        <ele>231.81</ele>
        <time>2021-08-13T12:01:02Z</time>
      </trkpt>
      <trkpt lat="46.6548" lon="3.61286">
        <ele>231.81</ele>
        <time>2021-08-13T12:01:20Z</time>
      </trkpt>
      <trkpt lat="46.65481" lon="3.61288">
        <ele>231.81</ele>
        <time>2021-08-13T12:01:38Z</time>
      </trkpt>
      <trkpt lat="46.65479" lon="3.61285">
        <ele>231.81</ele>
        <time>2021-08-13T12:01:56Z</time>
      </trkpt>
      <trkpt lat="46.65478" lon="3.61286">
        <ele>231.81</ele>
        <time>2021-08-13T12:02:09Z</time>
      </trkpt>
      <trkpt lat="46.65477" lon="3.61285">
        <ele>231.81</ele>
        <time>2021-08-13T12:02:23Z</time>
      </trkpt>
      <trkpt lat="46.65477" lon="3.61282">
        <ele>231.81</ele>
        <time>2021-08-13T12:02:36Z</time>
      </trkpt>
      <trkpt lat="46.65478" lon="3.61282">
        <ele>231.81</ele>
        <time>2021-08-13T12:02:54Z</time>
      </trkpt>
      <trkpt lat="46.65478" lon="3.61284">
        <ele>231.81</ele>
        <time>2021-08-13T12:03:13Z</time>
      </trkpt>
      <trkpt lat="46.65478" lon="3.61285">
        <ele>231.81</ele>
        <time>2021-08-13T12:03:28Z</time>
      </trkpt>
      <trkpt lat="46.65478" lon="3.61285">
        <ele>231.81</ele>
        <time>2021-08-13T12:03:40Z</time>
      </trkpt>
      <trkpt lat="46.65478" lon="3.61288">
        <ele>231.81</ele>
        <time>2021-08-13T12:03:54Z</time>
      </trkpt>
      <trkpt lat="46.65478" lon="3.61288">
        <ele>231.81</ele>
        <time>2021-08-13T12:03:59Z</time>
      </trkpt>
      <trkpt lat="46.65479" lon="3.61288">
        <ele>231.81</ele>
        <time>2021-08-13T12:04:14Z</time>
      </trkpt>
      <trkpt lat="46.65479" lon="3.61289">
        <ele>231.81</ele>
        <time>2021-08-13T12:04:26Z</time>
      </trkpt>
      <trkpt lat="46.65479" lon="3.61286">
        <ele>231.33</ele>
        <time>2021-08-13T12:04:45Z</time>
      </trkpt>
      <trkpt lat="46.6548" lon="3.61287">
        <ele>231.33</ele>
        <time>2021-08-13T12:05:04Z</time>
      </trkpt>
      <trkpt lat="46.65479" lon="3.61289">
        <ele>231.33</ele>
        <time>2021-08-13T12:05:21Z</time>
      </trkpt>
      <trkpt lat="46.65478" lon="3.61284">
        <ele>231.33</ele>
        <time>2021-08-13T12:05:41Z</time>
      </trkpt>
      <trkpt lat="46.65479" lon="3.61288">
        <ele>231.81</ele>
        <time>2021-08-13T12:06:01Z</time>
      </trkpt>
      <trkpt lat="46.65479" lon="3.61286">
        <ele>231.81</ele>
        <time>2021-08-13T12:06:19Z</time>
      </trkpt>
      <trkpt lat="46.6548" lon="3.61286">
        <ele>231.81</ele>
        <time>2021-08-13T12:06:42Z</time>
      </trkpt>
      <trkpt lat="46.65478" lon="3.61285">
        <ele>231.81</ele>
        <time>2021-08-13T12:06:53Z</time>
      </trkpt>
      <trkpt lat="46.65476" lon="3.61284">
        <ele>231.81</ele>
        <time>2021-08-13T12:07:18Z</time>
      </trkpt>
      <trkpt lat="46.65478" lon="3.61282">
        <ele>231.81</ele>
        <time>2021-08-13T12:07:21Z</time>
      </trkpt>
      <trkpt lat="46.65478" lon="3.61282">
        <ele>231.81</ele>
        <time>2021-08-13T12:07:26Z</time>
      </trkpt>
      <trkpt lat="46.65475" lon="3.61282">
        <ele>231.81</ele>
        <time>2021-08-13T12:07:29Z</time>
      </trkpt>
      <trkpt lat="46.65473" lon="3.61285">
        <ele>231.81</ele>
        <time>2021-08-13T12:07:31Z</time>
      </trkpt>
      <trkpt lat="46.65468" lon="3.61289">
        <ele>231.81</ele>
        <time>2021-08-13T12:07:35Z</time>
      </trkpt>
      <trkpt lat="46.65466" lon="3.61287">
        <ele>231.81</ele>
        <time>2021-08-13T12:07:36Z</time>
      </trkpt>
      <trkpt lat="46.65466" lon="3.61283">
        <ele>231.81</ele>
        <time>2021-08-13T12:07:37Z</time>
      </trkpt>
      <trkpt lat="46.65467" lon="3.61279">
        <ele>231.81</ele>
        <time>2021-08-13T12:07:38Z</time>
      </trkpt>
      <trkpt lat="46.65468" lon="3.61276">
        <ele>231.81</ele>
        <time>2021-08-13T12:07:39Z</time>
      </trkpt>
      <trkpt lat="46.6547" lon="3.61273">
        <ele>231.81</ele>
        <time>2021-08-13T12:07:40Z</time>
      </trkpt>
      <trkpt lat="46.65472" lon="3.6127">
        <ele>231.81</ele>
        <time>2021-08-13T12:07:41Z</time>
      </trkpt>
      <trkpt lat="46.65475" lon="3.61267">
        <ele>231.81</ele>
        <time>2021-08-13T12:07:42Z</time>
      </trkpt>
      <trkpt lat="46.65478" lon="3.61264">
        <ele>231.81</ele>
        <time>2021-08-13T12:07:43Z</time>
      </trkpt>
      <trkpt lat="46.65507" lon="3.61243">
        <ele>231.81</ele>
        <time>2021-08-13T12:07:52Z</time>
      </trkpt>
      <trkpt lat="46.65523" lon="3.61234">
        <ele>231.81</ele>
        <time>2021-08-13T12:07:58Z</time>
      </trkpt>
      <trkpt lat="46.65541" lon="3.61222">
        <ele>231.81</ele>
        <time>2021-08-13T12:08:05Z</time>
      </trkpt>
      <trkpt lat="46.65565" lon="3.61215">
        <ele>231.81</ele>
        <time>2021-08-13T12:08:12Z</time>
      </trkpt>
      <trkpt lat="46.65578" lon="3.61205">
        <ele>231.81</ele>
        <time>2021-08-13T12:08:16Z</time>
      </trkpt>
      <trkpt lat="46.65579" lon="3.612">
        <ele>231.81</ele>
        <time>2021-08-13T12:08:17Z</time>
      </trkpt>
      <trkpt lat="46.65578" lon="3.61161">
        <ele>231.81</ele>
        <time>2021-08-13T12:08:24Z</time>
      </trkpt>
      <trkpt lat="46.65579" lon="3.61133">
        <ele>230.37</ele>
        <time>2021-08-13T12:08:30Z</time>
      </trkpt>
      <trkpt lat="46.65582" lon="3.61131">
        <ele>230.37</ele>
        <time>2021-08-13T12:08:31Z</time>
      </trkpt>
      <trkpt lat="46.65602" lon="3.61121">
        <ele>230.37</ele>
        <time>2021-08-13T12:08:40Z</time>
      </trkpt>
      <trkpt lat="46.65624" lon="3.61112">
        <ele>230.37</ele>
        <time>2021-08-13T12:08:48Z</time>
      </trkpt>
      <trkpt lat="46.65647" lon="3.61102">
        <ele>230.37</ele>
        <time>2021-08-13T12:08:55Z</time>
      </trkpt>
      <trkpt lat="46.65663" lon="3.61093">
        <ele>230.37</ele>
        <time>2021-08-13T12:09:00Z</time>
      </trkpt>
      <trkpt lat="46.65674" lon="3.61085">
        <ele>230.37</ele>
        <time>2021-08-13T12:09:03Z</time>
      </trkpt>
      <trkpt lat="46.65709" lon="3.61065">
        <ele>230.37</ele>
        <time>2021-08-13T12:09:11Z</time>
      </trkpt>
      <trkpt lat="46.65759" lon="3.61037">
        <ele>228.93</ele>
        <time>2021-08-13T12:09:21Z</time>
      </trkpt>
      <trkpt lat="46.65788" lon="3.61019">
        <ele>227.01</ele>
        <time>2021-08-13T12:09:26Z</time>
      </trkpt>
      <trkpt lat="46.65831" lon="3.60995">
        <ele>223.64</ele>
        <time>2021-08-13T12:09:32Z</time>
      </trkpt>
      <trkpt lat="46.65889" lon="3.60961">
        <ele>220.76</ele>
        <time>2021-08-13T12:09:39Z</time>
      </trkpt>
      <trkpt lat="46.65929" lon="3.60935">
        <ele>220.76</ele>
        <time>2021-08-13T12:09:44Z</time>
      </trkpt>
      <trkpt lat="46.65959" lon="3.60908">
        <ele>220.76</ele>
        <time>2021-08-13T12:09:49Z</time>
      </trkpt>
      <trkpt lat="46.65964" lon="3.60902">
        <ele>222.2</ele>
        <time>2021-08-13T12:09:50Z</time>
      </trkpt>
      <trkpt lat="46.65967" lon="3.60896">
        <ele>222.68</ele>
        <time>2021-08-13T12:09:51Z</time>
      </trkpt>
      <trkpt lat="46.65971" lon="3.60889">
        <ele>222.68</ele>
        <time>2021-08-13T12:09:52Z</time>
      </trkpt>
      <trkpt lat="46.65986" lon="3.60863">
        <ele>224.61</ele>
        <time>2021-08-13T12:09:58Z</time>
      </trkpt>
      <trkpt lat="46.65993" lon="3.60843">
        <ele>226.05</ele>
        <time>2021-08-13T12:10:05Z</time>
      </trkpt>
      <trkpt lat="46.66002" lon="3.60817">
        <ele>227.97</ele>
        <time>2021-08-13T12:10:14Z</time>
      </trkpt>
      <trkpt lat="46.66011" lon="3.60786">
        <ele>228.93</ele>
        <time>2021-08-13T12:10:24Z</time>
      </trkpt>
      <trkpt lat="46.66021" lon="3.60753">
        <ele>230.37</ele>
        <time>2021-08-13T12:10:34Z</time>
      </trkpt>
      <trkpt lat="46.66032" lon="3.60714">
        <ele>231.33</ele>
        <time>2021-08-13T12:10:44Z</time>
      </trkpt>
      <trkpt lat="46.66044" lon="3.60674">
        <ele>232.3</ele>
        <time>2021-08-13T12:10:53Z</time>
      </trkpt>
      <trkpt lat="46.66059" lon="3.60626">
        <ele>232.78</ele>
        <time>2021-08-13T12:11:02Z</time>
      </trkpt>
      <trkpt lat="46.66077" lon="3.6057">
        <ele>232.78</ele>
        <time>2021-08-13T12:11:11Z</time>
      </trkpt>
      <trkpt lat="46.66095" lon="3.60515">
        <ele>232.78</ele>
        <time>2021-08-13T12:11:19Z</time>
      </trkpt>
      <trkpt lat="46.66115" lon="3.60447">
        <ele>232.78</ele>
        <time>2021-08-13T12:11:28Z</time>
      </trkpt>
      <trkpt lat="46.66139" lon="3.60372">
        <ele>231.33</ele>
        <time>2021-08-13T12:11:38Z</time>
      </trkpt>
      <trkpt lat="46.66148" lon="3.60342">
        <ele>231.33</ele>
        <time>2021-08-13T12:11:42Z</time>
      </trkpt>
      <trkpt lat="46.66151" lon="3.60335">
        <ele>231.33</ele>
        <time>2021-08-13T12:11:43Z</time>
      </trkpt>
      <trkpt lat="46.66179" lon="3.60245">
        <ele>231.33</ele>
        <time>2021-08-13T12:11:55Z</time>
      </trkpt>
      <trkpt lat="46.66201" lon="3.60176">
        <ele>231.33</ele>
        <time>2021-08-13T12:12:04Z</time>
      </trkpt>
      <trkpt lat="46.6622" lon="3.60117">
        <ele>231.33</ele>
        <time>2021-08-13T12:12:12Z</time>
      </trkpt>
      <trkpt lat="46.66237" lon="3.60075">
        <ele>231.33</ele>
        <time>2021-08-13T12:12:18Z</time>
      </trkpt>
      <trkpt lat="46.6624" lon="3.60068">
        <ele>231.33</ele>
        <time>2021-08-13T12:12:19Z</time>
      </trkpt>
      <trkpt lat="46.66273" lon="3.6">
        <ele>232.78</ele>
        <time>2021-08-13T12:12:29Z</time>
      </trkpt>
      <trkpt lat="46.66306" lon="3.59933">
        <ele>232.78</ele>
        <time>2021-08-13T12:12:39Z</time>
      </trkpt>
      <trkpt lat="46.66341" lon="3.59867">
        <ele>233.26</ele>
        <time>2021-08-13T12:12:49Z</time>
      </trkpt>
      <trkpt lat="46.66363" lon="3.59822">
        <ele>233.26</ele>
        <time>2021-08-13T12:12:56Z</time>
      </trkpt>
      <trkpt lat="46.6639" lon="3.59767">
        <ele>233.26</ele>
        <time>2021-08-13T12:13:04Z</time>
      </trkpt>
      <trkpt lat="46.66409" lon="3.59728">
        <ele>231.81</ele>
        <time>2021-08-13T12:13:09Z</time>
      </trkpt>
      <trkpt lat="46.66444" lon="3.59661">
        <ele>229.41</ele>
        <time>2021-08-13T12:13:17Z</time>
      </trkpt>
      <trkpt lat="46.66491" lon="3.59565">
        <ele>228.93</ele>
        <time>2021-08-13T12:13:28Z</time>
      </trkpt>
      <trkpt lat="46.66509" lon="3.59529">
        <ele>230.37</ele>
        <time>2021-08-13T12:13:33Z</time>
      </trkpt>
      <trkpt lat="46.66543" lon="3.59461">
        <ele>231.33</ele>
        <time>2021-08-13T12:13:43Z</time>
      </trkpt>
      <trkpt lat="46.66557" lon="3.5943">
        <ele>231.81</ele>
        <time>2021-08-13T12:13:48Z</time>
      </trkpt>
      <trkpt lat="46.66559" lon="3.59425">
        <ele>231.81</ele>
        <time>2021-08-13T12:13:49Z</time>
      </trkpt>
      <trkpt lat="46.66578" lon="3.59386">
        <ele>232.3</ele>
        <time>2021-08-13T12:13:55Z</time>
      </trkpt>
      <trkpt lat="46.66582" lon="3.59379">
        <ele>232.3</ele>
        <time>2021-08-13T12:13:56Z</time>
      </trkpt>
      <trkpt lat="46.66608" lon="3.59327">
        <ele>233.26</ele>
        <time>2021-08-13T12:14:04Z</time>
      </trkpt>
      <trkpt lat="46.66634" lon="3.59272">
        <ele>234.22</ele>
        <time>2021-08-13T12:14:13Z</time>
      </trkpt>
      <trkpt lat="46.66656" lon="3.59213">
        <ele>234.7</ele>
        <time>2021-08-13T12:14:22Z</time>
      </trkpt>
      <trkpt lat="46.66675" lon="3.59149">
        <ele>234.7</ele>
        <time>2021-08-13T12:14:31Z</time>
      </trkpt>
      <trkpt lat="46.66688" lon="3.59089">
        <ele>235.18</ele>
        <time>2021-08-13T12:14:39Z</time>
      </trkpt>
      <trkpt lat="46.66703" lon="3.59018">
        <ele>235.18</ele>
        <time>2021-08-13T12:14:48Z</time>
      </trkpt>
      <trkpt lat="46.66715" lon="3.58947">
        <ele>235.66</ele>
        <time>2021-08-13T12:14:57Z</time>
      </trkpt>
      <trkpt lat="46.66728" lon="3.58882">
        <ele>235.66</ele>
        <time>2021-08-13T12:15:05Z</time>
      </trkpt>
      <trkpt lat="46.66747" lon="3.58785">
        <ele>235.66</ele>
        <time>2021-08-13T12:15:16Z</time>
      </trkpt>
      <trkpt lat="46.66759" lon="3.58716">
        <ele>235.66</ele>
        <time>2021-08-13T12:15:24Z</time>
      </trkpt>
      <trkpt lat="46.6677" lon="3.58652">
        <ele>234.7</ele>
        <time>2021-08-13T12:15:31Z</time>
      </trkpt>
      <trkpt lat="46.66785" lon="3.58574">
        <ele>233.74</ele>
        <time>2021-08-13T12:15:39Z</time>
      </trkpt>
      <trkpt lat="46.6679" lon="3.58546">
        <ele>233.74</ele>
        <time>2021-08-13T12:15:42Z</time>
      </trkpt>
      <trkpt lat="46.66805" lon="3.58463">
        <ele>233.26</ele>
        <time>2021-08-13T12:15:51Z</time>
      </trkpt>
      <trkpt lat="46.66814" lon="3.58399">
        <ele>233.26</ele>
        <time>2021-08-13T12:15:58Z</time>
      </trkpt>
      <trkpt lat="46.66816" lon="3.58381">
        <ele>234.7</ele>
        <time>2021-08-13T12:16:00Z</time>
      </trkpt>
      <trkpt lat="46.66827" lon="3.58314">
        <ele>235.18</ele>
        <time>2021-08-13T12:16:08Z</time>
      </trkpt>
      <trkpt lat="46.66837" lon="3.58241">
        <ele>236.14</ele>
        <time>2021-08-13T12:16:17Z</time>
      </trkpt>
      <trkpt lat="46.66839" lon="3.58226">
        <ele>236.14</ele>
        <time>2021-08-13T12:16:19Z</time>
      </trkpt>
      <trkpt lat="46.66848" lon="3.58165">
        <ele>236.62</ele>
        <time>2021-08-13T12:16:27Z</time>
      </trkpt>
      <trkpt lat="46.66855" lon="3.58113">
        <ele>237.1</ele>
        <time>2021-08-13T12:16:34Z</time>
      </trkpt>
      <trkpt lat="46.66862" lon="3.58053">
        <ele>238.06</ele>
        <time>2021-08-13T12:16:43Z</time>
      </trkpt>
      <trkpt lat="46.66866" lon="3.58018">
        <ele>238.06</ele>
        <time>2021-08-13T12:16:49Z</time>
      </trkpt>
      <trkpt lat="46.66867" lon="3.58012">
        <ele>238.06</ele>
        <time>2021-08-13T12:16:50Z</time>
      </trkpt>
      <trkpt lat="46.66872" lon="3.57974">
        <ele>238.54</ele>
        <time>2021-08-13T12:16:56Z</time>
      </trkpt>
      <trkpt lat="46.66873" lon="3.57968">
        <ele>238.54</ele>
        <time>2021-08-13T12:16:57Z</time>
      </trkpt>
      <trkpt lat="46.66882" lon="3.57903">
        <ele>239.02</ele>
        <time>2021-08-13T12:17:07Z</time>
      </trkpt>
      <trkpt lat="46.66892" lon="3.57838">
        <ele>239.02</ele>
        <time>2021-08-13T12:17:16Z</time>
      </trkpt>
      <trkpt lat="46.66902" lon="3.57754">
        <ele>239.02</ele>
        <time>2021-08-13T12:17:27Z</time>
      </trkpt>
      <trkpt lat="46.66912" lon="3.57682">
        <ele>239.99</ele>
        <time>2021-08-13T12:17:37Z</time>
      </trkpt>
      <trkpt lat="46.66915" lon="3.57662">
        <ele>239.99</ele>
        <time>2021-08-13T12:17:40Z</time>
      </trkpt>
      <trkpt lat="46.66917" lon="3.57648">
        <ele>240.47</ele>
        <time>2021-08-13T12:17:42Z</time>
      </trkpt>
      <trkpt lat="46.66921" lon="3.57614">
        <ele>240.95</ele>
        <time>2021-08-13T12:17:47Z</time>
      </trkpt>
      <trkpt lat="46.66926" lon="3.57589">
        <ele>241.43</ele>
        <time>2021-08-13T12:17:51Z</time>
      </trkpt>
      <trkpt lat="46.66928" lon="3.5757">
        <ele>241.91</ele>
        <time>2021-08-13T12:17:54Z</time>
      </trkpt>
      <trkpt lat="46.66935" lon="3.57511">
        <ele>241.91</ele>
        <time>2021-08-13T12:18:03Z</time>
      </trkpt>
      <trkpt lat="46.66939" lon="3.57492">
        <ele>242.39</ele>
        <time>2021-08-13T12:18:06Z</time>
      </trkpt>
      <trkpt lat="46.66948" lon="3.57426">
        <ele>243.35</ele>
        <time>2021-08-13T12:18:16Z</time>
      </trkpt>
      <trkpt lat="46.66952" lon="3.57381">
        <ele>244.31</ele>
        <time>2021-08-13T12:18:24Z</time>
      </trkpt>
      <trkpt lat="46.66954" lon="3.57367">
        <ele>244.79</ele>
        <time>2021-08-13T12:18:30Z</time>
      </trkpt>
      <trkpt lat="46.66954" lon="3.57365">
        <ele>244.79</ele>
        <time>2021-08-13T12:18:39Z</time>
      </trkpt>
      <trkpt lat="46.66955" lon="3.57364">
        <ele>244.79</ele>
        <time>2021-08-13T12:18:44Z</time>
      </trkpt>
      <trkpt lat="46.66956" lon="3.57363">
        <ele>244.79</ele>
        <time>2021-08-13T12:18:45Z</time>
      </trkpt>
      <trkpt lat="46.66957" lon="3.57362">
        <ele>244.79</ele>
        <time>2021-08-13T12:18:50Z</time>
      </trkpt>
      <trkpt lat="46.66959" lon="3.57362">
        <ele>244.79</ele>
        <time>2021-08-13T12:19:04Z</time>
      </trkpt>
      <trkpt lat="46.66958" lon="3.57363">
        <ele>244.79</ele>
        <time>2021-08-13T12:19:26Z</time>
      </trkpt>
      <trkpt lat="46.66957" lon="3.57363">
        <ele>244.79</ele>
        <time>2021-08-13T12:19:42Z</time>
      </trkpt>
      <trkpt lat="46.66958" lon="3.57363">
        <ele>244.79</ele>
        <time>2021-08-13T12:19:59Z</time>
      </trkpt>
      <trkpt lat="46.66955" lon="3.57362">
        <ele>244.79</ele>
        <time>2021-08-13T12:20:24Z</time>
      </trkpt>
      <trkpt lat="46.66956" lon="3.57358">
        <ele>244.79</ele>
        <time>2021-08-13T12:20:28Z</time>
      </trkpt>
      <trkpt lat="46.66957" lon="3.57355">
        <ele>244.79</ele>
        <time>2021-08-13T12:20:29Z</time>
      </trkpt>
      <trkpt lat="46.66958" lon="3.57352">
        <ele>244.79</ele>
        <time>2021-08-13T12:20:30Z</time>
      </trkpt>
      <trkpt lat="46.66958" lon="3.57349">
        <ele>244.79</ele>
        <time>2021-08-13T12:20:31Z</time>
      </trkpt>
      <trkpt lat="46.66959" lon="3.57345">
        <ele>244.79</ele>
        <time>2021-08-13T12:20:32Z</time>
      </trkpt>
      <trkpt lat="46.6696" lon="3.57341">
        <ele>244.79</ele>
        <time>2021-08-13T12:20:33Z</time>
      </trkpt>
      <trkpt lat="46.66965" lon="3.57303">
        <ele>245.27</ele>
        <time>2021-08-13T12:20:40Z</time>
      </trkpt>
      <trkpt lat="46.66973" lon="3.57241">
        <ele>246.23</ele>
        <time>2021-08-13T12:20:50Z</time>
      </trkpt>
      <trkpt lat="46.66974" lon="3.57234">
        <ele>246.23</ele>
        <time>2021-08-13T12:20:51Z</time>
      </trkpt>
      <trkpt lat="46.66982" lon="3.5718">
        <ele>246.23</ele>
        <time>2021-08-13T12:20:59Z</time>
      </trkpt>
      <trkpt lat="46.6699" lon="3.57121">
        <ele>246.72</ele>
        <time>2021-08-13T12:21:07Z</time>
      </trkpt>
      <trkpt lat="46.66999" lon="3.57057">
        <ele>247.2</ele>
        <time>2021-08-13T12:21:16Z</time>
      </trkpt>
      <trkpt lat="46.67005" lon="3.56985">
        <ele>247.2</ele>
        <time>2021-08-13T12:21:26Z</time>
      </trkpt>
      <trkpt lat="46.67008" lon="3.56896">
        <ele>247.68</ele>
        <time>2021-08-13T12:21:38Z</time>
      </trkpt>
      <trkpt lat="46.67005" lon="3.56831">
        <ele>248.16</ele>
        <time>2021-08-13T12:21:47Z</time>
      </trkpt>
      <trkpt lat="46.67001" lon="3.56772">
        <ele>248.16</ele>
        <time>2021-08-13T12:21:55Z</time>
      </trkpt>
      <trkpt lat="46.66993" lon="3.56705">
        <ele>248.16</ele>
        <time>2021-08-13T12:22:03Z</time>
      </trkpt>
      <trkpt lat="46.66985" lon="3.56653">
        <ele>246.72</ele>
        <time>2021-08-13T12:22:09Z</time>
      </trkpt>
      <trkpt lat="46.66971" lon="3.56576">
        <ele>245.75</ele>
        <time>2021-08-13T12:22:17Z</time>
      </trkpt>
      <trkpt lat="46.66954" lon="3.56464">
        <ele>244.31</ele>
        <time>2021-08-13T12:22:28Z</time>
      </trkpt>
      <trkpt lat="46.66935" lon="3.56348">
        <ele>243.35</ele>
        <time>2021-08-13T12:22:39Z</time>
      </trkpt>
      <trkpt lat="46.66915" lon="3.56225">
        <ele>241.91</ele>
        <time>2021-08-13T12:22:50Z</time>
      </trkpt>
      <trkpt lat="46.66894" lon="3.56102">
        <ele>240.47</ele>
        <time>2021-08-13T12:23:01Z</time>
      </trkpt>
      <trkpt lat="46.66889" lon="3.56069">
        <ele>239.99</ele>
        <time>2021-08-13T12:23:04Z</time>
      </trkpt>
      <trkpt lat="46.66886" lon="3.56059">
        <ele>239.99</ele>
        <time>2021-08-13T12:23:05Z</time>
      </trkpt>
      <trkpt lat="46.66881" lon="3.56051">
        <ele>239.99</ele>
        <time>2021-08-13T12:23:06Z</time>
      </trkpt>
      <trkpt lat="46.66876" lon="3.56042">
        <ele>239.51</ele>
        <time>2021-08-13T12:23:07Z</time>
      </trkpt>
      <trkpt lat="46.66872" lon="3.56037">
        <ele>239.51</ele>
        <time>2021-08-13T12:23:08Z</time>
      </trkpt>
      <trkpt lat="46.66836" lon="3.55984">
        <ele>239.51</ele>
        <time>2021-08-13T12:23:16Z</time>
      </trkpt>
      <trkpt lat="46.66832" lon="3.55978">
        <ele>239.02</ele>
        <time>2021-08-13T12:23:17Z</time>
      </trkpt>
      <trkpt lat="46.66789" lon="3.55918">
        <ele>239.02</ele>
        <time>2021-08-13T12:23:27Z</time>
      </trkpt>
      <trkpt lat="46.66744" lon="3.55855">
        <ele>238.06</ele>
        <time>2021-08-13T12:23:37Z</time>
      </trkpt>
      <trkpt lat="46.66714" lon="3.55815">
        <ele>237.1</ele>
        <time>2021-08-13T12:23:43Z</time>
      </trkpt>
      <trkpt lat="46.66705" lon="3.558">
        <ele>236.62</ele>
        <time>2021-08-13T12:23:45Z</time>
      </trkpt>
      <trkpt lat="46.66701" lon="3.55793">
        <ele>236.62</ele>
        <time>2021-08-13T12:23:46Z</time>
      </trkpt>
      <trkpt lat="46.66697" lon="3.55785">
        <ele>236.62</ele>
        <time>2021-08-13T12:23:47Z</time>
      </trkpt>
      <trkpt lat="46.6669" lon="3.55768">
        <ele>236.14</ele>
        <time>2021-08-13T12:23:49Z</time>
      </trkpt>
      <trkpt lat="46.66689" lon="3.55759">
        <ele>236.14</ele>
        <time>2021-08-13T12:23:50Z</time>
      </trkpt>
      <trkpt lat="46.66687" lon="3.55751">
        <ele>236.14</ele>
        <time>2021-08-13T12:23:51Z</time>
      </trkpt>
      <trkpt lat="46.66686" lon="3.55737">
        <ele>236.14</ele>
        <time>2021-08-13T12:23:54Z</time>
      </trkpt>
      <trkpt lat="46.66686" lon="3.55746">
        <ele>236.14</ele>
        <time>2021-08-13T12:23:59Z</time>
      </trkpt>
      <trkpt lat="46.66688" lon="3.5575">
        <ele>236.14</ele>
        <time>2021-08-13T12:24:01Z</time>
      </trkpt>
      <trkpt lat="46.66688" lon="3.55753">
        <ele>236.14</ele>
        <time>2021-08-13T12:24:02Z</time>
      </trkpt>
      <trkpt lat="46.66689" lon="3.55756">
        <ele>236.14</ele>
        <time>2021-08-13T12:24:03Z</time>
      </trkpt>
      <trkpt lat="46.66697" lon="3.55785">
        <ele>236.14</ele>
        <time>2021-08-13T12:24:10Z</time>
      </trkpt>
      <trkpt lat="46.66702" lon="3.55792">
        <ele>236.14</ele>
        <time>2021-08-13T12:24:12Z</time>
      </trkpt>
      <trkpt lat="46.66702" lon="3.55796">
        <ele>236.14</ele>
        <time>2021-08-13T12:24:13Z</time>
      </trkpt>
      <trkpt lat="46.66703" lon="3.55801">
        <ele>236.14</ele>
        <time>2021-08-13T12:24:14Z</time>
      </trkpt>
      <trkpt lat="46.66704" lon="3.55805">
        <ele>236.14</ele>
        <time>2021-08-13T12:24:15Z</time>
      </trkpt>
      <trkpt lat="46.66706" lon="3.55807">
        <ele>236.14</ele>
        <time>2021-08-13T12:24:16Z</time>
      </trkpt>
      <trkpt lat="46.66709" lon="3.55808">
        <ele>236.14</ele>
        <time>2021-08-13T12:24:17Z</time>
      </trkpt>
      <trkpt lat="46.66711" lon="3.55809">
        <ele>236.14</ele>
        <time>2021-08-13T12:24:18Z</time>
      </trkpt>
      <trkpt lat="46.66712" lon="3.55811">
        <ele>236.14</ele>
        <time>2021-08-13T12:24:19Z</time>
      </trkpt>
      <trkpt lat="46.66714" lon="3.55814">
        <ele>236.14</ele>
        <time>2021-08-13T12:24:20Z</time>
      </trkpt>
      <trkpt lat="46.66714" lon="3.55819">
        <ele>236.14</ele>
        <time>2021-08-13T12:24:21Z</time>
      </trkpt>
      <trkpt lat="46.66714" lon="3.55823">
        <ele>236.14</ele>
        <time>2021-08-13T12:24:22Z</time>
      </trkpt>
      <trkpt lat="46.66713" lon="3.55827">
        <ele>236.14</ele>
        <time>2021-08-13T12:24:23Z</time>
      </trkpt>
      <trkpt lat="46.66711" lon="3.5583">
        <ele>236.14</ele>
        <time>2021-08-13T12:24:24Z</time>
      </trkpt>
      <trkpt lat="46.66708" lon="3.55832">
        <ele>236.14</ele>
        <time>2021-08-13T12:24:25Z</time>
      </trkpt>
      <trkpt lat="46.66704" lon="3.55834">
        <ele>236.14</ele>
        <time>2021-08-13T12:24:26Z</time>
      </trkpt>
      <trkpt lat="46.66701" lon="3.55836">
        <ele>236.14</ele>
        <time>2021-08-13T12:24:27Z</time>
      </trkpt>
      <trkpt lat="46.66697" lon="3.55838">
        <ele>236.14</ele>
        <time>2021-08-13T12:24:28Z</time>
      </trkpt>
      <trkpt lat="46.66688" lon="3.55843">
        <ele>235.66</ele>
        <time>2021-08-13T12:24:30Z</time>
      </trkpt>
      <trkpt lat="46.66683" lon="3.55846">
        <ele>235.66</ele>
        <time>2021-08-13T12:24:31Z</time>
      </trkpt>
      <trkpt lat="46.66641" lon="3.55872">
        <ele>233.26</ele>
        <time>2021-08-13T12:24:39Z</time>
      </trkpt>
      <trkpt lat="46.66587" lon="3.55902">
        <ele>232.78</ele>
        <time>2021-08-13T12:24:48Z</time>
      </trkpt>
      <trkpt lat="46.66569" lon="3.55908">
        <ele>232.78</ele>
        <time>2021-08-13T12:24:51Z</time>
      </trkpt>
      <trkpt lat="46.66563" lon="3.55908">
        <ele>232.78</ele>
        <time>2021-08-13T12:24:52Z</time>
      </trkpt>
      <trkpt lat="46.66557" lon="3.55907">
        <ele>232.78</ele>
        <time>2021-08-13T12:24:53Z</time>
      </trkpt>
      <trkpt lat="46.66552" lon="3.55904">
        <ele>232.78</ele>
        <time>2021-08-13T12:24:54Z</time>
      </trkpt>
      <trkpt lat="46.66546" lon="3.559">
        <ele>232.78</ele>
        <time>2021-08-13T12:24:55Z</time>
      </trkpt>
      <trkpt lat="46.66542" lon="3.55895">
        <ele>232.78</ele>
        <time>2021-08-13T12:24:56Z</time>
      </trkpt>
      <trkpt lat="46.66538" lon="3.5589">
        <ele>232.78</ele>
        <time>2021-08-13T12:24:57Z</time>
      </trkpt>
      <trkpt lat="46.66512" lon="3.55849">
        <ele>234.22</ele>
        <time>2021-08-13T12:25:04Z</time>
      </trkpt>
      <trkpt lat="46.66476" lon="3.55789">
        <ele>234.22</ele>
        <time>2021-08-13T12:25:13Z</time>
      </trkpt>
      <trkpt lat="46.66431" lon="3.55723">
        <ele>232.3</ele>
        <time>2021-08-13T12:25:23Z</time>
      </trkpt>
      <trkpt lat="46.66387" lon="3.55669">
        <ele>231.81</ele>
        <time>2021-08-13T12:25:32Z</time>
      </trkpt>
      <trkpt lat="46.66326" lon="3.55601">
        <ele>230.85</ele>
        <time>2021-08-13T12:25:44Z</time>
      </trkpt>
      <trkpt lat="46.66292" lon="3.55559">
        <ele>230.37</ele>
        <time>2021-08-13T12:25:51Z</time>
      </trkpt>
      <trkpt lat="46.66267" lon="3.55519">
        <ele>229.89</ele>
        <time>2021-08-13T12:25:57Z</time>
      </trkpt>
      <trkpt lat="46.66264" lon="3.55512">
        <ele>229.89</ele>
        <time>2021-08-13T12:25:58Z</time>
      </trkpt>
      <trkpt lat="46.66261" lon="3.55504">
        <ele>229.89</ele>
        <time>2021-08-13T12:25:59Z</time>
      </trkpt>
      <trkpt lat="46.66235" lon="3.55433">
        <ele>228.93</ele>
        <time>2021-08-13T12:26:08Z</time>
      </trkpt>
      <trkpt lat="46.66209" lon="3.5536">
        <ele>227.01</ele>
        <time>2021-08-13T12:26:17Z</time>
      </trkpt>
      <trkpt lat="46.66203" lon="3.55333">
        <ele>226.05</ele>
        <time>2021-08-13T12:26:20Z</time>
      </trkpt>
      <trkpt lat="46.662" lon="3.55303">
        <ele>225.57</ele>
        <time>2021-08-13T12:26:23Z</time>
      </trkpt>
      <trkpt lat="46.662" lon="3.55294">
        <ele>225.57</ele>
        <time>2021-08-13T12:26:24Z</time>
      </trkpt>
      <trkpt lat="46.66209" lon="3.55227">
        <ele>224.12</ele>
        <time>2021-08-13T12:26:31Z</time>
      </trkpt>
      <trkpt lat="46.66228" lon="3.55156">
        <ele>222.68</ele>
        <time>2021-08-13T12:26:39Z</time>
      </trkpt>
      <trkpt lat="46.66232" lon="3.55144">
        <ele>222.68</ele>
        <time>2021-08-13T12:26:43Z</time>
      </trkpt>
      <trkpt lat="46.66232" lon="3.55145">
        <ele>222.68</ele>
        <time>2021-08-13T12:26:50Z</time>
      </trkpt>
      <trkpt lat="46.66233" lon="3.55145">
        <ele>222.68</ele>
        <time>2021-08-13T12:27:07Z</time>
      </trkpt>
      <trkpt lat="46.66235" lon="3.55145">
        <ele>222.68</ele>
        <time>2021-08-13T12:27:23Z</time>
      </trkpt>
      <trkpt lat="46.66235" lon="3.55149">
        <ele>222.68</ele>
        <time>2021-08-13T12:27:43Z</time>
      </trkpt>
      <trkpt lat="46.66232" lon="3.55147">
        <ele>222.68</ele>
        <time>2021-08-13T12:28:07Z</time>
      </trkpt>
      <trkpt lat="46.6623" lon="3.55147">
        <ele>222.68</ele>
        <time>2021-08-13T12:28:33Z</time>
      </trkpt>
      <trkpt lat="46.66231" lon="3.55147">
        <ele>222.68</ele>
        <time>2021-08-13T12:28:44Z</time>
      </trkpt>
      <trkpt lat="46.66232" lon="3.55146">
        <ele>222.68</ele>
        <time>2021-08-13T12:28:52Z</time>
      </trkpt>
      <trkpt lat="46.66238" lon="3.55132">
        <ele>222.68</ele>
        <time>2021-08-13T12:28:58Z</time>
      </trkpt>
      <trkpt lat="46.66254" lon="3.55111">
        <ele>222.68</ele>
        <time>2021-08-13T12:29:05Z</time>
      </trkpt>
      <trkpt lat="46.66277" lon="3.55093">
        <ele>222.68</ele>
        <time>2021-08-13T12:29:12Z</time>
      </trkpt>
      <trkpt lat="46.66296" lon="3.5508">
        <ele>223.64</ele>
        <time>2021-08-13T12:29:18Z</time>
      </trkpt>
      <trkpt lat="46.66331" lon="3.55057">
        <ele>224.61</ele>
        <time>2021-08-13T12:29:29Z</time>
      </trkpt>
      <trkpt lat="46.66355" lon="3.5504">
        <ele>225.57</ele>
        <time>2021-08-13T12:29:37Z</time>
      </trkpt>
      <trkpt lat="46.66372" lon="3.55029">
        <ele>225.57</ele>
        <time>2021-08-13T12:29:42Z</time>
      </trkpt>
      <trkpt lat="46.66376" lon="3.55026">
        <ele>225.57</ele>
        <time>2021-08-13T12:29:43Z</time>
      </trkpt>
      <trkpt lat="46.66404" lon="3.55008">
        <ele>224.61</ele>
        <time>2021-08-13T12:29:49Z</time>
      </trkpt>
      <trkpt lat="46.66451" lon="3.5498">
        <ele>223.64</ele>
        <time>2021-08-13T12:29:58Z</time>
      </trkpt>
      <trkpt lat="46.66496" lon="3.54963">
        <ele>223.64</ele>
        <time>2021-08-13T12:30:07Z</time>
      </trkpt>
      <trkpt lat="46.66516" lon="3.54955">
        <ele>223.64</ele>
        <time>2021-08-13T12:30:11Z</time>
      </trkpt>
      <trkpt lat="46.66549" lon="3.54926">
        <ele>223.64</ele>
        <time>2021-08-13T12:30:19Z</time>
      </trkpt>
      <trkpt lat="46.66572" lon="3.54901">
        <ele>223.64</ele>
        <time>2021-08-13T12:30:25Z</time>
      </trkpt>
      <trkpt lat="46.66576" lon="3.54897">
        <ele>223.64</ele>
        <time>2021-08-13T12:30:26Z</time>
      </trkpt>
      <trkpt lat="46.66583" lon="3.54888">
        <ele>225.09</ele>
        <time>2021-08-13T12:30:28Z</time>
      </trkpt>
      <trkpt lat="46.66587" lon="3.54884">
        <ele>225.09</ele>
        <time>2021-08-13T12:30:29Z</time>
      </trkpt>
      <trkpt lat="46.66591" lon="3.5488">
        <ele>225.09</ele>
        <time>2021-08-13T12:30:30Z</time>
      </trkpt>
      <trkpt lat="46.66625" lon="3.54854">
        <ele>226.05</ele>
        <time>2021-08-13T12:30:39Z</time>
      </trkpt>
      <trkpt lat="46.66629" lon="3.54851">
        <ele>226.05</ele>
        <time>2021-08-13T12:30:40Z</time>
      </trkpt>
      <trkpt lat="46.66632" lon="3.54847">
        <ele>226.05</ele>
        <time>2021-08-13T12:30:41Z</time>
      </trkpt>
      <trkpt lat="46.66636" lon="3.54843">
        <ele>226.53</ele>
        <time>2021-08-13T12:30:42Z</time>
      </trkpt>
      <trkpt lat="46.66659" lon="3.54811">
        <ele>227.01</ele>
        <time>2021-08-13T12:30:50Z</time>
      </trkpt>
      <trkpt lat="46.66662" lon="3.54807">
        <ele>227.01</ele>
        <time>2021-08-13T12:30:51Z</time>
      </trkpt>
      <trkpt lat="46.66666" lon="3.54802">
        <ele>227.01</ele>
        <time>2021-08-13T12:30:52Z</time>
      </trkpt>
      <trkpt lat="46.66698" lon="3.54758">
        <ele>227.01</ele>
        <time>2021-08-13T12:31:02Z</time>
      </trkpt>
      <trkpt lat="46.66701" lon="3.54754">
        <ele>227.01</ele>
        <time>2021-08-13T12:31:03Z</time>
      </trkpt>
      <trkpt lat="46.66703" lon="3.54749">
        <ele>227.01</ele>
        <time>2021-08-13T12:31:04Z</time>
      </trkpt>
      <trkpt lat="46.66704" lon="3.54744">
        <ele>227.01</ele>
        <time>2021-08-13T12:31:05Z</time>
      </trkpt>
      <trkpt lat="46.66703" lon="3.54739">
        <ele>227.01</ele>
        <time>2021-08-13T12:31:06Z</time>
      </trkpt>
      <trkpt lat="46.66701" lon="3.54737">
        <ele>227.01</ele>
        <time>2021-08-13T12:31:07Z</time>
      </trkpt>
      <trkpt lat="46.66698" lon="3.54737">
        <ele>227.01</ele>
        <time>2021-08-13T12:31:08Z</time>
      </trkpt>
      <trkpt lat="46.66694" lon="3.54737">
        <ele>227.01</ele>
        <time>2021-08-13T12:31:09Z</time>
      </trkpt>
      <trkpt lat="46.6666" lon="3.54743">
        <ele>227.01</ele>
        <time>2021-08-13T12:31:17Z</time>
      </trkpt>
      <trkpt lat="46.66615" lon="3.54746">
        <ele>227.01</ele>
        <time>2021-08-13T12:31:27Z</time>
      </trkpt>
      <trkpt lat="46.66575" lon="3.5475">
        <ele>225.09</ele>
        <time>2021-08-13T12:31:35Z</time>
      </trkpt>
      <trkpt lat="46.66569" lon="3.54748">
        <ele>224.61</ele>
        <time>2021-08-13T12:31:36Z</time>
      </trkpt>
      <trkpt lat="46.66564" lon="3.54745">
        <ele>224.61</ele>
        <time>2021-08-13T12:31:37Z</time>
      </trkpt>
      <trkpt lat="46.66558" lon="3.5474">
        <ele>223.64</ele>
        <time>2021-08-13T12:31:38Z</time>
      </trkpt>
      <trkpt lat="46.66552" lon="3.54735">
        <ele>223.64</ele>
        <time>2021-08-13T12:31:39Z</time>
      </trkpt>
      <trkpt lat="46.66547" lon="3.54729">
        <ele>223.64</ele>
        <time>2021-08-13T12:31:40Z</time>
      </trkpt>
      <trkpt lat="46.66478" lon="3.54663">
        <ele>220.76</ele>
        <time>2021-08-13T12:31:52Z</time>
      </trkpt>
      <trkpt lat="46.66428" lon="3.54614">
        <ele>218.36</ele>
        <time>2021-08-13T12:32:00Z</time>
      </trkpt>
      <trkpt lat="46.66372" lon="3.54561">
        <ele>217.88</ele>
        <time>2021-08-13T12:32:09Z</time>
      </trkpt>
      <trkpt lat="46.66329" lon="3.54519">
        <ele>217.4</ele>
        <time>2021-08-13T12:32:17Z</time>
      </trkpt>
      <trkpt lat="46.66314" lon="3.54505">
        <ele>217.4</ele>
        <time>2021-08-13T12:32:20Z</time>
      </trkpt>
      <trkpt lat="46.66311" lon="3.545">
        <ele>217.4</ele>
        <time>2021-08-13T12:32:21Z</time>
      </trkpt>
      <trkpt lat="46.66304" lon="3.54488">
        <ele>219.32</ele>
        <time>2021-08-13T12:32:23Z</time>
      </trkpt>
      <trkpt lat="46.66298" lon="3.54477">
        <ele>219.32</ele>
        <time>2021-08-13T12:32:25Z</time>
      </trkpt>
      <trkpt lat="46.66294" lon="3.54471">
        <ele>219.32</ele>
        <time>2021-08-13T12:32:26Z</time>
      </trkpt>
      <trkpt lat="46.6629" lon="3.54466">
        <ele>219.32</ele>
        <time>2021-08-13T12:32:27Z</time>
      </trkpt>
      <trkpt lat="46.66282" lon="3.54458">
        <ele>218.84</ele>
        <time>2021-08-13T12:32:29Z</time>
      </trkpt>
      <trkpt lat="46.66274" lon="3.54449">
        <ele>218.84</ele>
        <time>2021-08-13T12:32:31Z</time>
      </trkpt>
      <trkpt lat="46.66267" lon="3.54439">
        <ele>219.32</ele>
        <time>2021-08-13T12:32:33Z</time>
      </trkpt>
      <trkpt lat="46.66264" lon="3.54435">
        <ele>219.32</ele>
        <time>2021-08-13T12:32:34Z</time>
      </trkpt>
      <trkpt lat="46.66244" lon="3.54406">
        <ele>219.8</ele>
        <time>2021-08-13T12:32:41Z</time>
      </trkpt>
      <trkpt lat="46.6622" lon="3.54376">
        <ele>220.28</ele>
        <time>2021-08-13T12:32:49Z</time>
      </trkpt>
      <trkpt lat="46.6621" lon="3.54363">
        <ele>220.28</ele>
        <time>2021-08-13T12:32:52Z</time>
      </trkpt>
      <trkpt lat="46.66206" lon="3.54359">
        <ele>220.28</ele>
        <time>2021-08-13T12:32:53Z</time>
      </trkpt>
      <trkpt lat="46.66203" lon="3.54354">
        <ele>220.28</ele>
        <time>2021-08-13T12:32:54Z</time>
      </trkpt>
      <trkpt lat="46.66182" lon="3.54329">
        <ele>220.28</ele>
        <time>2021-08-13T12:33:00Z</time>
      </trkpt>
      <trkpt lat="46.66154" lon="3.54295">
        <ele>220.76</ele>
        <time>2021-08-13T12:33:08Z</time>
      </trkpt>
      <trkpt lat="46.66125" lon="3.54258">
        <ele>221.72</ele>
        <time>2021-08-13T12:33:17Z</time>
      </trkpt>
      <trkpt lat="46.66108" lon="3.54237">
        <ele>223.16</ele>
        <time>2021-08-13T12:33:24Z</time>
      </trkpt>
      <trkpt lat="46.66107" lon="3.54232">
        <ele>223.16</ele>
        <time>2021-08-13T12:33:25Z</time>
      </trkpt>
      <trkpt lat="46.66107" lon="3.5423">
        <ele>223.64</ele>
        <time>2021-08-13T12:33:26Z</time>
      </trkpt>
      <trkpt lat="46.66109" lon="3.54228">
        <ele>223.64</ele>
        <time>2021-08-13T12:33:27Z</time>
      </trkpt>
      <trkpt lat="46.6611" lon="3.54226">
        <ele>224.12</ele>
        <time>2021-08-13T12:33:28Z</time>
      </trkpt>
      <trkpt lat="46.66112" lon="3.54224">
        <ele>223.64</ele>
        <time>2021-08-13T12:33:29Z</time>
      </trkpt>
      <trkpt lat="46.66127" lon="3.54208">
        <ele>223.64</ele>
        <time>2021-08-13T12:33:35Z</time>
      </trkpt>
      <trkpt lat="46.66146" lon="3.54188">
        <ele>224.12</ele>
        <time>2021-08-13T12:33:42Z</time>
      </trkpt>
      <trkpt lat="46.66171" lon="3.54155">
        <ele>224.12</ele>
        <time>2021-08-13T12:33:50Z</time>
      </trkpt>
      <trkpt lat="46.66186" lon="3.54133">
        <ele>224.12</ele>
        <time>2021-08-13T12:33:54Z</time>
      </trkpt>
      <trkpt lat="46.66198" lon="3.54111">
        <ele>224.12</ele>
        <time>2021-08-13T12:33:58Z</time>
      </trkpt>
      <trkpt lat="46.66201" lon="3.54105">
        <ele>224.12</ele>
        <time>2021-08-13T12:33:59Z</time>
      </trkpt>
      <trkpt lat="46.66229" lon="3.54063">
        <ele>221.72</ele>
        <time>2021-08-13T12:34:06Z</time>
      </trkpt>
      <trkpt lat="46.6625" lon="3.54043">
        <ele>220.76</ele>
        <time>2021-08-13T12:34:10Z</time>
      </trkpt>
      <trkpt lat="46.66256" lon="3.54039">
        <ele>220.76</ele>
        <time>2021-08-13T12:34:11Z</time>
      </trkpt>
      <trkpt lat="46.66266" lon="3.54032">
        <ele>220.76</ele>
        <time>2021-08-13T12:34:13Z</time>
      </trkpt>
      <trkpt lat="46.66272" lon="3.54031">
        <ele>220.76</ele>
        <time>2021-08-13T12:34:14Z</time>
      </trkpt>
      <trkpt lat="46.66277" lon="3.54028">
        <ele>220.76</ele>
        <time>2021-08-13T12:34:15Z</time>
      </trkpt>
      <trkpt lat="46.66283" lon="3.54025">
        <ele>220.76</ele>
        <time>2021-08-13T12:34:16Z</time>
      </trkpt>
      <trkpt lat="46.66288" lon="3.54022">
        <ele>220.76</ele>
        <time>2021-08-13T12:34:17Z</time>
      </trkpt>
      <trkpt lat="46.66325" lon="3.53994">
        <ele>220.76</ele>
        <time>2021-08-13T12:34:25Z</time>
      </trkpt>
      <trkpt lat="46.66332" lon="3.53988">
        <ele>222.2</ele>
        <time>2021-08-13T12:34:27Z</time>
      </trkpt>
      <trkpt lat="46.66335" lon="3.53984">
        <ele>222.2</ele>
        <time>2021-08-13T12:34:28Z</time>
      </trkpt>
      <trkpt lat="46.66364" lon="3.53947">
        <ele>223.16</ele>
        <time>2021-08-13T12:34:38Z</time>
      </trkpt>
      <trkpt lat="46.66387" lon="3.5392">
        <ele>224.12</ele>
        <time>2021-08-13T12:34:47Z</time>
      </trkpt>
      <trkpt lat="46.66417" lon="3.53897">
        <ele>225.09</ele>
        <time>2021-08-13T12:34:57Z</time>
      </trkpt>
      <trkpt lat="46.66445" lon="3.53877">
        <ele>225.57</ele>
        <time>2021-08-13T12:35:05Z</time>
      </trkpt>
      <trkpt lat="46.66449" lon="3.53874">
        <ele>225.57</ele>
        <time>2021-08-13T12:35:06Z</time>
      </trkpt>
      <trkpt lat="46.66464" lon="3.53863">
        <ele>225.57</ele>
        <time>2021-08-13T12:35:10Z</time>
      </trkpt>
      <trkpt lat="46.66511" lon="3.53838">
        <ele>225.57</ele>
        <time>2021-08-13T12:35:21Z</time>
      </trkpt>
      <trkpt lat="46.66529" lon="3.53831">
        <ele>225.57</ele>
        <time>2021-08-13T12:35:25Z</time>
      </trkpt>
      <trkpt lat="46.66533" lon="3.53829">
        <ele>225.57</ele>
        <time>2021-08-13T12:35:26Z</time>
      </trkpt>
      <trkpt lat="46.66583" lon="3.53805">
        <ele>225.57</ele>
        <time>2021-08-13T12:35:37Z</time>
      </trkpt>
      <trkpt lat="46.66591" lon="3.538">
        <ele>225.57</ele>
        <time>2021-08-13T12:35:39Z</time>
      </trkpt>
      <trkpt lat="46.66595" lon="3.53797">
        <ele>225.57</ele>
        <time>2021-08-13T12:35:40Z</time>
      </trkpt>
      <trkpt lat="46.66603" lon="3.53793">
        <ele>225.57</ele>
        <time>2021-08-13T12:35:42Z</time>
      </trkpt>
      <trkpt lat="46.66619" lon="3.53782">
        <ele>225.57</ele>
        <time>2021-08-13T12:35:46Z</time>
      </trkpt>
      <trkpt lat="46.6663" lon="3.53774">
        <ele>225.57</ele>
        <time>2021-08-13T12:35:49Z</time>
      </trkpt>
      <trkpt lat="46.66654" lon="3.53761">
        <ele>225.57</ele>
        <time>2021-08-13T12:35:55Z</time>
      </trkpt>
      <trkpt lat="46.66658" lon="3.53759">
        <ele>225.57</ele>
        <time>2021-08-13T12:35:56Z</time>
      </trkpt>
      <trkpt lat="46.66663" lon="3.53757">
        <ele>225.57</ele>
        <time>2021-08-13T12:35:57Z</time>
      </trkpt>
      <trkpt lat="46.66667" lon="3.53755">
        <ele>225.57</ele>
        <time>2021-08-13T12:35:58Z</time>
      </trkpt>
      <trkpt lat="46.66671" lon="3.53754">
        <ele>225.57</ele>
        <time>2021-08-13T12:35:59Z</time>
      </trkpt>
      <trkpt lat="46.66675" lon="3.53752">
        <ele>225.57</ele>
        <time>2021-08-13T12:36:00Z</time>
      </trkpt>
      <trkpt lat="46.66679" lon="3.5375">
        <ele>225.57</ele>
        <time>2021-08-13T12:36:01Z</time>
      </trkpt>
      <trkpt lat="46.66707" lon="3.53738">
        <ele>226.05</ele>
        <time>2021-08-13T12:36:08Z</time>
      </trkpt>
      <trkpt lat="46.66711" lon="3.53737">
        <ele>226.05</ele>
        <time>2021-08-13T12:36:09Z</time>
      </trkpt>
      <trkpt lat="46.66715" lon="3.53735">
        <ele>226.05</ele>
        <time>2021-08-13T12:36:10Z</time>
      </trkpt>
      <trkpt lat="46.66749" lon="3.53711">
        <ele>226.05</ele>
        <time>2021-08-13T12:36:18Z</time>
      </trkpt>
      <trkpt lat="46.66779" lon="3.53676">
        <ele>226.05</ele>
        <time>2021-08-13T12:36:26Z</time>
      </trkpt>
      <trkpt lat="46.66792" lon="3.53652">
        <ele>226.53</ele>
        <time>2021-08-13T12:36:31Z</time>
      </trkpt>
      <trkpt lat="46.66795" lon="3.53647">
        <ele>226.53</ele>
        <time>2021-08-13T12:36:32Z</time>
      </trkpt>
      <trkpt lat="46.668" lon="3.53637">
        <ele>226.53</ele>
        <time>2021-08-13T12:36:34Z</time>
      </trkpt>
      <trkpt lat="46.66803" lon="3.53631">
        <ele>226.53</ele>
        <time>2021-08-13T12:36:35Z</time>
      </trkpt>
      <trkpt lat="46.6682" lon="3.53598">
        <ele>225.09</ele>
        <time>2021-08-13T12:36:41Z</time>
      </trkpt>
      <trkpt lat="46.66823" lon="3.53593">
        <ele>225.09</ele>
        <time>2021-08-13T12:36:42Z</time>
      </trkpt>
      <trkpt lat="46.66854" lon="3.53535">
        <ele>223.16</ele>
        <time>2021-08-13T12:36:51Z</time>
      </trkpt>
      <trkpt lat="46.66881" lon="3.53492">
        <ele>222.68</ele>
        <time>2021-08-13T12:36:58Z</time>
      </trkpt>
      <trkpt lat="46.66897" lon="3.53471">
        <ele>222.2</ele>
        <time>2021-08-13T12:37:02Z</time>
      </trkpt>
      <trkpt lat="46.66901" lon="3.53467">
        <ele>222.2</ele>
        <time>2021-08-13T12:37:03Z</time>
      </trkpt>
      <trkpt lat="46.66905" lon="3.53463">
        <ele>222.2</ele>
        <time>2021-08-13T12:37:04Z</time>
      </trkpt>
      <trkpt lat="46.66934" lon="3.5343">
        <ele>222.2</ele>
        <time>2021-08-13T12:37:12Z</time>
      </trkpt>
      <trkpt lat="46.66961" lon="3.53403">
        <ele>222.2</ele>
        <time>2021-08-13T12:37:20Z</time>
      </trkpt>
      <trkpt lat="46.6699" lon="3.53374">
        <ele>224.12</ele>
        <time>2021-08-13T12:37:29Z</time>
      </trkpt>
      <trkpt lat="46.67012" lon="3.53355">
        <ele>224.61</ele>
        <time>2021-08-13T12:37:36Z</time>
      </trkpt>
      <trkpt lat="46.67038" lon="3.53335">
        <ele>225.57</ele>
        <time>2021-08-13T12:37:45Z</time>
      </trkpt>
      <trkpt lat="46.67041" lon="3.5333">
        <ele>226.05</ele>
        <time>2021-08-13T12:37:47Z</time>
      </trkpt>
      <trkpt lat="46.67042" lon="3.53327">
        <ele>226.05</ele>
        <time>2021-08-13T12:37:48Z</time>
      </trkpt>
      <trkpt lat="46.67042" lon="3.53323">
        <ele>226.53</ele>
        <time>2021-08-13T12:37:49Z</time>
      </trkpt>
      <trkpt lat="46.67041" lon="3.53318">
        <ele>226.53</ele>
        <time>2021-08-13T12:37:50Z</time>
      </trkpt>
      <trkpt lat="46.67041" lon="3.53314">
        <ele>226.53</ele>
        <time>2021-08-13T12:37:51Z</time>
      </trkpt>
      <trkpt lat="46.67036" lon="3.53281">
        <ele>227.01</ele>
        <time>2021-08-13T12:37:58Z</time>
      </trkpt>
      <trkpt lat="46.67041" lon="3.53243">
        <ele>227.97</ele>
        <time>2021-08-13T12:38:06Z</time>
      </trkpt>
      <trkpt lat="46.67053" lon="3.53205">
        <ele>228.45</ele>
        <time>2021-08-13T12:38:15Z</time>
      </trkpt>
      <trkpt lat="46.67057" lon="3.5317">
        <ele>228.93</ele>
        <time>2021-08-13T12:38:22Z</time>
      </trkpt>
      <trkpt lat="46.67056" lon="3.53129">
        <ele>229.89</ele>
        <time>2021-08-13T12:38:30Z</time>
      </trkpt>
      <trkpt lat="46.67055" lon="3.53081">
        <ele>230.37</ele>
        <time>2021-08-13T12:38:39Z</time>
      </trkpt>
      <trkpt lat="46.67052" lon="3.5304">
        <ele>230.85</ele>
        <time>2021-08-13T12:38:47Z</time>
      </trkpt>
      <trkpt lat="46.6705" lon="3.52995">
        <ele>231.33</ele>
        <time>2021-08-13T12:38:55Z</time>
      </trkpt>
      <trkpt lat="46.67052" lon="3.52969">
        <ele>230.85</ele>
        <time>2021-08-13T12:39:01Z</time>
      </trkpt>
      <trkpt lat="46.67052" lon="3.52952">
        <ele>230.85</ele>
        <time>2021-08-13T12:39:06Z</time>
      </trkpt>
      <trkpt lat="46.6705" lon="3.52948">
        <ele>230.85</ele>
        <time>2021-08-13T12:39:07Z</time>
      </trkpt>
      <trkpt lat="46.67038" lon="3.52924">
        <ele>231.81</ele>
        <time>2021-08-13T12:39:14Z</time>
      </trkpt>
      <trkpt lat="46.67017" lon="3.52882">
        <ele>231.81</ele>
        <time>2021-08-13T12:39:23Z</time>
      </trkpt>
      <trkpt lat="46.66989" lon="3.52827">
        <ele>232.3</ele>
        <time>2021-08-13T12:39:33Z</time>
      </trkpt>
      <trkpt lat="46.66984" lon="3.52816">
        <ele>232.3</ele>
        <time>2021-08-13T12:39:35Z</time>
      </trkpt>
      <trkpt lat="46.66981" lon="3.5281">
        <ele>232.3</ele>
        <time>2021-08-13T12:39:36Z</time>
      </trkpt>
      <trkpt lat="46.66968" lon="3.52782">
        <ele>232.78</ele>
        <time>2021-08-13T12:39:41Z</time>
      </trkpt>
      <trkpt lat="46.66966" lon="3.52777">
        <ele>232.78</ele>
        <time>2021-08-13T12:39:42Z</time>
      </trkpt>
      <trkpt lat="46.66941" lon="3.52727">
        <ele>233.26</ele>
        <time>2021-08-13T12:39:51Z</time>
      </trkpt>
      <trkpt lat="46.66921" lon="3.52684">
        <ele>233.74</ele>
        <time>2021-08-13T12:39:59Z</time>
      </trkpt>
      <trkpt lat="46.66891" lon="3.52625">
        <ele>234.7</ele>
        <time>2021-08-13T12:40:10Z</time>
      </trkpt>
      <trkpt lat="46.66864" lon="3.52571">
        <ele>235.18</ele>
        <time>2021-08-13T12:40:20Z</time>
      </trkpt>
      <trkpt lat="46.66839" lon="3.52522">
        <ele>235.66</ele>
        <time>2021-08-13T12:40:29Z</time>
      </trkpt>
      <trkpt lat="46.66813" lon="3.52464">
        <ele>236.14</ele>
        <time>2021-08-13T12:40:39Z</time>
      </trkpt>
      <trkpt lat="46.6679" lon="3.52416">
        <ele>236.14</ele>
        <time>2021-08-13T12:40:47Z</time>
      </trkpt>
      <trkpt lat="46.66764" lon="3.52362">
        <ele>236.14</ele>
        <time>2021-08-13T12:40:56Z</time>
      </trkpt>
      <trkpt lat="46.6674" lon="3.52313">
        <ele>236.14</ele>
        <time>2021-08-13T12:41:04Z</time>
      </trkpt>
      <trkpt lat="46.6671" lon="3.52251">
        <ele>236.14</ele>
        <time>2021-08-13T12:41:14Z</time>
      </trkpt>
      <trkpt lat="46.66683" lon="3.52196">
        <ele>236.14</ele>
        <time>2021-08-13T12:41:23Z</time>
      </trkpt>
      <trkpt lat="46.66653" lon="3.52135">
        <ele>236.14</ele>
        <time>2021-08-13T12:41:33Z</time>
      </trkpt>
      <trkpt lat="46.66632" lon="3.52091">
        <ele>236.62</ele>
        <time>2021-08-13T12:41:41Z</time>
      </trkpt>
      <trkpt lat="46.66612" lon="3.52049">
        <ele>237.1</ele>
        <time>2021-08-13T12:41:49Z</time>
      </trkpt>
      <trkpt lat="46.66603" lon="3.52032">
        <ele>237.58</ele>
        <time>2021-08-13T12:41:52Z</time>
      </trkpt>
      <trkpt lat="46.66581" lon="3.51986">
        <ele>238.54</ele>
        <time>2021-08-13T12:42:00Z</time>
      </trkpt>
      <trkpt lat="46.66578" lon="3.5198">
        <ele>238.54</ele>
        <time>2021-08-13T12:42:01Z</time>
      </trkpt>
      <trkpt lat="46.66554" lon="3.51932">
        <ele>239.02</ele>
        <time>2021-08-13T12:42:10Z</time>
      </trkpt>
      <trkpt lat="46.66526" lon="3.51877">
        <ele>239.51</ele>
        <time>2021-08-13T12:42:20Z</time>
      </trkpt>
      <trkpt lat="46.665" lon="3.51833">
        <ele>239.99</ele>
        <time>2021-08-13T12:42:28Z</time>
      </trkpt>
      <trkpt lat="46.6646" lon="3.51767">
        <ele>240.47</ele>
        <time>2021-08-13T12:42:40Z</time>
      </trkpt>
      <trkpt lat="46.66431" lon="3.51721">
        <ele>240.47</ele>
        <time>2021-08-13T12:42:48Z</time>
      </trkpt>
      <trkpt lat="46.66395" lon="3.51667">
        <ele>240.47</ele>
        <time>2021-08-13T12:42:57Z</time>
      </trkpt>
      <trkpt lat="46.66362" lon="3.51617">
        <ele>240.47</ele>
        <time>2021-08-13T12:43:06Z</time>
      </trkpt>
      <trkpt lat="46.66355" lon="3.51606">
        <ele>241.43</ele>
        <time>2021-08-13T12:43:08Z</time>
      </trkpt>
      <trkpt lat="46.6632" lon="3.51554">
        <ele>241.91</ele>
        <time>2021-08-13T12:43:18Z</time>
      </trkpt>
      <trkpt lat="46.66288" lon="3.51512">
        <ele>242.87</ele>
        <time>2021-08-13T12:43:27Z</time>
      </trkpt>
      <trkpt lat="46.66276" lon="3.51499">
        <ele>242.87</ele>
        <time>2021-08-13T12:43:30Z</time>
      </trkpt>
      <trkpt lat="46.66259" lon="3.51484">
        <ele>242.87</ele>
        <time>2021-08-13T12:43:34Z</time>
      </trkpt>
      <trkpt lat="46.66239" lon="3.51467">
        <ele>243.35</ele>
        <time>2021-08-13T12:43:39Z</time>
      </trkpt>
      <trkpt lat="46.66235" lon="3.51465">
        <ele>243.35</ele>
        <time>2021-08-13T12:43:40Z</time>
      </trkpt>
      <trkpt lat="46.66195" lon="3.51439">
        <ele>243.83</ele>
        <time>2021-08-13T12:43:49Z</time>
      </trkpt>
      <trkpt lat="46.66178" lon="3.51429">
        <ele>243.83</ele>
        <time>2021-08-13T12:43:53Z</time>
      </trkpt>
      <trkpt lat="46.66175" lon="3.51424">
        <ele>243.83</ele>
        <time>2021-08-13T12:43:54Z</time>
      </trkpt>
      <trkpt lat="46.66174" lon="3.51417">
        <ele>243.83</ele>
        <time>2021-08-13T12:43:55Z</time>
      </trkpt>
      <trkpt lat="46.66175" lon="3.51411">
        <ele>243.83</ele>
        <time>2021-08-13T12:43:56Z</time>
      </trkpt>
      <trkpt lat="46.66177" lon="3.51407">
        <ele>243.83</ele>
        <time>2021-08-13T12:43:57Z</time>
      </trkpt>
      <trkpt lat="46.66179" lon="3.51404">
        <ele>243.83</ele>
        <time>2021-08-13T12:43:58Z</time>
      </trkpt>
      <trkpt lat="46.66193" lon="3.51385">
        <ele>243.83</ele>
        <time>2021-08-13T12:44:06Z</time>
      </trkpt>
      <trkpt lat="46.66204" lon="3.51367">
        <ele>243.83</ele>
        <time>2021-08-13T12:44:14Z</time>
      </trkpt>
      <trkpt lat="46.66214" lon="3.51351">
        <ele>243.83</ele>
        <time>2021-08-13T12:44:21Z</time>
      </trkpt>
      <trkpt lat="46.66229" lon="3.51331">
        <ele>243.83</ele>
        <time>2021-08-13T12:44:29Z</time>
      </trkpt>
      <trkpt lat="46.66241" lon="3.5131">
        <ele>242.87</ele>
        <time>2021-08-13T12:44:35Z</time>
      </trkpt>
      <trkpt lat="46.66266" lon="3.51271">
        <ele>241.43</ele>
        <time>2021-08-13T12:44:43Z</time>
      </trkpt>
      <trkpt lat="46.66273" lon="3.5126">
        <ele>241.43</ele>
        <time>2021-08-13T12:44:45Z</time>
      </trkpt>
      <trkpt lat="46.6629" lon="3.51238">
        <ele>240.47</ele>
        <time>2021-08-13T12:44:49Z</time>
      </trkpt>
      <trkpt lat="46.66299" lon="3.51229">
        <ele>240.47</ele>
        <time>2021-08-13T12:44:51Z</time>
      </trkpt>
      <trkpt lat="46.66305" lon="3.51226">
        <ele>239.99</ele>
        <time>2021-08-13T12:44:52Z</time>
      </trkpt>
      <trkpt lat="46.66349" lon="3.51209">
        <ele>239.51</ele>
        <time>2021-08-13T12:45:00Z</time>
      </trkpt>
      <trkpt lat="46.66382" lon="3.51197">
        <ele>239.51</ele>
        <time>2021-08-13T12:45:07Z</time>
      </trkpt>
      <trkpt lat="46.66386" lon="3.51195">
        <ele>239.51</ele>
        <time>2021-08-13T12:45:08Z</time>
      </trkpt>
      <trkpt lat="46.6639" lon="3.51193">
        <ele>239.51</ele>
        <time>2021-08-13T12:45:09Z</time>
      </trkpt>
      <trkpt lat="46.66395" lon="3.51192">
        <ele>239.51</ele>
        <time>2021-08-13T12:45:10Z</time>
      </trkpt>
      <trkpt lat="46.66398" lon="3.5119">
        <ele>239.51</ele>
        <time>2021-08-13T12:45:11Z</time>
      </trkpt>
      <trkpt lat="46.66419" lon="3.51183">
        <ele>239.51</ele>
        <time>2021-08-13T12:45:16Z</time>
      </trkpt>
      <trkpt lat="46.66423" lon="3.5118">
        <ele>239.51</ele>
        <time>2021-08-13T12:45:17Z</time>
      </trkpt>
      <trkpt lat="46.66427" lon="3.51175">
        <ele>239.02</ele>
        <time>2021-08-13T12:45:18Z</time>
      </trkpt>
      <trkpt lat="46.66429" lon="3.51169">
        <ele>239.02</ele>
        <time>2021-08-13T12:45:19Z</time>
      </trkpt>
      <trkpt lat="46.66432" lon="3.51162">
        <ele>238.06</ele>
        <time>2021-08-13T12:45:20Z</time>
      </trkpt>
      <trkpt lat="46.66434" lon="3.51154">
        <ele>238.06</ele>
        <time>2021-08-13T12:45:21Z</time>
      </trkpt>
      <trkpt lat="46.66435" lon="3.51146">
        <ele>237.58</ele>
        <time>2021-08-13T12:45:22Z</time>
      </trkpt>
      <trkpt lat="46.66437" lon="3.51137">
        <ele>237.58</ele>
        <time>2021-08-13T12:45:23Z</time>
      </trkpt>
      <trkpt lat="46.66448" lon="3.51074">
        <ele>234.22</ele>
        <time>2021-08-13T12:45:29Z</time>
      </trkpt>
      <trkpt lat="46.66463" lon="3.5099">
        <ele>231.81</ele>
        <time>2021-08-13T12:45:36Z</time>
      </trkpt>
      <trkpt lat="46.66469" lon="3.50954">
        <ele>230.37</ele>
        <time>2021-08-13T12:45:39Z</time>
      </trkpt>
      <trkpt lat="46.66485" lon="3.50852">
        <ele>229.41</ele>
        <time>2021-08-13T12:45:48Z</time>
      </trkpt>
      <trkpt lat="46.66491" lon="3.50797">
        <ele>229.41</ele>
        <time>2021-08-13T12:45:54Z</time>
      </trkpt>
      <trkpt lat="46.6649" lon="3.50789">
        <ele>229.41</ele>
        <time>2021-08-13T12:45:55Z</time>
      </trkpt>
      <trkpt lat="46.66489" lon="3.50781">
        <ele>229.41</ele>
        <time>2021-08-13T12:45:56Z</time>
      </trkpt>
      <trkpt lat="46.66487" lon="3.50774">
        <ele>229.41</ele>
        <time>2021-08-13T12:45:57Z</time>
      </trkpt>
      <trkpt lat="46.66485" lon="3.50767">
        <ele>229.41</ele>
        <time>2021-08-13T12:45:58Z</time>
      </trkpt>
      <trkpt lat="46.66467" lon="3.50724">
        <ele>230.37</ele>
        <time>2021-08-13T12:46:05Z</time>
      </trkpt>
      <trkpt lat="46.66464" lon="3.50719">
        <ele>230.85</ele>
        <time>2021-08-13T12:46:06Z</time>
      </trkpt>
      <trkpt lat="46.66455" lon="3.50698">
        <ele>231.33</ele>
        <time>2021-08-13T12:46:10Z</time>
      </trkpt>
      <trkpt lat="46.66452" lon="3.50694">
        <ele>231.33</ele>
        <time>2021-08-13T12:46:11Z</time>
      </trkpt>
      <trkpt lat="46.6645" lon="3.50689">
        <ele>231.33</ele>
        <time>2021-08-13T12:46:12Z</time>
      </trkpt>
      <trkpt lat="46.66429" lon="3.50654">
        <ele>231.81</ele>
        <time>2021-08-13T12:46:20Z</time>
      </trkpt>
      <trkpt lat="46.66399" lon="3.50618">
        <ele>231.81</ele>
        <time>2021-08-13T12:46:30Z</time>
      </trkpt>
      <trkpt lat="46.66378" lon="3.50588">
        <ele>232.3</ele>
        <time>2021-08-13T12:46:38Z</time>
      </trkpt>
      <trkpt lat="46.66363" lon="3.50553">
        <ele>232.3</ele>
        <time>2021-08-13T12:46:46Z</time>
      </trkpt>
      <trkpt lat="46.66346" lon="3.50516">
        <ele>232.78</ele>
        <time>2021-08-13T12:46:54Z</time>
      </trkpt>
      <trkpt lat="46.66329" lon="3.50484">
        <ele>233.26</ele>
        <time>2021-08-13T12:47:02Z</time>
      </trkpt>
      <trkpt lat="46.66313" lon="3.50456">
        <ele>233.74</ele>
        <time>2021-08-13T12:47:09Z</time>
      </trkpt>
      <trkpt lat="46.66302" lon="3.5042">
        <ele>234.7</ele>
        <time>2021-08-13T12:47:17Z</time>
      </trkpt>
      <trkpt lat="46.66301" lon="3.50392">
        <ele>235.18</ele>
        <time>2021-08-13T12:47:23Z</time>
      </trkpt>
      <trkpt lat="46.66301" lon="3.50354">
        <ele>235.66</ele>
        <time>2021-08-13T12:47:31Z</time>
      </trkpt>
      <trkpt lat="46.663" lon="3.50308">
        <ele>236.62</ele>
        <time>2021-08-13T12:47:41Z</time>
      </trkpt>
      <trkpt lat="46.66298" lon="3.50282">
        <ele>237.1</ele>
        <time>2021-08-13T12:47:47Z</time>
      </trkpt>
      <trkpt lat="46.66298" lon="3.50278">
        <ele>237.1</ele>
        <time>2021-08-13T12:47:48Z</time>
      </trkpt>
      <trkpt lat="46.66299" lon="3.50274">
        <ele>237.1</ele>
        <time>2021-08-13T12:47:49Z</time>
      </trkpt>
      <trkpt lat="46.66299" lon="3.50238">
        <ele>238.06</ele>
        <time>2021-08-13T12:47:57Z</time>
      </trkpt>
      <trkpt lat="46.66298" lon="3.50182">
        <ele>238.06</ele>
        <time>2021-08-13T12:48:09Z</time>
      </trkpt>
      <trkpt lat="46.66293" lon="3.50141">
        <ele>239.02</ele>
        <time>2021-08-13T12:48:18Z</time>
      </trkpt>
      <trkpt lat="46.66287" lon="3.50097">
        <ele>239.99</ele>
        <time>2021-08-13T12:48:28Z</time>
      </trkpt>
      <trkpt lat="46.66285" lon="3.50063">
        <ele>240.47</ele>
        <time>2021-08-13T12:48:35Z</time>
      </trkpt>
      <trkpt lat="46.66285" lon="3.50033">
        <ele>240.47</ele>
        <time>2021-08-13T12:48:41Z</time>
      </trkpt>
      <trkpt lat="46.66282" lon="3.49989">
        <ele>240.95</ele>
        <time>2021-08-13T12:48:50Z</time>
      </trkpt>
      <trkpt lat="46.6628" lon="3.49943">
        <ele>241.43</ele>
        <time>2021-08-13T12:48:59Z</time>
      </trkpt>
      <trkpt lat="46.66277" lon="3.4991">
        <ele>241.43</ele>
        <time>2021-08-13T12:49:05Z</time>
      </trkpt>
      <trkpt lat="46.66276" lon="3.49861">
        <ele>242.39</ele>
        <time>2021-08-13T12:49:14Z</time>
      </trkpt>
      <trkpt lat="46.66274" lon="3.49827">
        <ele>242.39</ele>
        <time>2021-08-13T12:49:21Z</time>
      </trkpt>
      <trkpt lat="46.66272" lon="3.4979">
        <ele>242.87</ele>
        <time>2021-08-13T12:49:28Z</time>
      </trkpt>
      <trkpt lat="46.66272" lon="3.49748">
        <ele>242.87</ele>
        <time>2021-08-13T12:49:36Z</time>
      </trkpt>
      <trkpt lat="46.66271" lon="3.49711">
        <ele>243.35</ele>
        <time>2021-08-13T12:49:43Z</time>
      </trkpt>
      <trkpt lat="46.66268" lon="3.49665">
        <ele>243.83</ele>
        <time>2021-08-13T12:49:51Z</time>
      </trkpt>
      <trkpt lat="46.66266" lon="3.49625">
        <ele>243.83</ele>
        <time>2021-08-13T12:49:58Z</time>
      </trkpt>
      <trkpt lat="46.66263" lon="3.49593">
        <ele>243.83</ele>
        <time>2021-08-13T12:50:04Z</time>
      </trkpt>
      <trkpt lat="46.66261" lon="3.49561">
        <ele>244.31</ele>
        <time>2021-08-13T12:50:10Z</time>
      </trkpt>
      <trkpt lat="46.6626" lon="3.49509">
        <ele>244.31</ele>
        <time>2021-08-13T12:50:19Z</time>
      </trkpt>
      <trkpt lat="46.66257" lon="3.49463">
        <ele>244.31</ele>
        <time>2021-08-13T12:50:26Z</time>
      </trkpt>
      <trkpt lat="46.66257" lon="3.49458">
        <ele>244.31</ele>
        <time>2021-08-13T12:50:27Z</time>
      </trkpt>
      <trkpt lat="46.66256" lon="3.49452">
        <ele>244.31</ele>
        <time>2021-08-13T12:50:28Z</time>
      </trkpt>
      <trkpt lat="46.66255" lon="3.49445">
        <ele>244.31</ele>
        <time>2021-08-13T12:50:29Z</time>
      </trkpt>
      <trkpt lat="46.66255" lon="3.49439">
        <ele>244.31</ele>
        <time>2021-08-13T12:50:30Z</time>
      </trkpt>
      <trkpt lat="46.66253" lon="3.49427">
        <ele>244.79</ele>
        <time>2021-08-13T12:50:32Z</time>
      </trkpt>
      <trkpt lat="46.66243" lon="3.49383">
        <ele>245.27</ele>
        <time>2021-08-13T12:50:39Z</time>
      </trkpt>
      <trkpt lat="46.6624" lon="3.49372">
        <ele>245.27</ele>
        <time>2021-08-13T12:50:41Z</time>
      </trkpt>
      <trkpt lat="46.66239" lon="3.49366">
        <ele>245.27</ele>
        <time>2021-08-13T12:50:42Z</time>
      </trkpt>
      <trkpt lat="46.66225" lon="3.4932">
        <ele>245.75</ele>
        <time>2021-08-13T12:50:50Z</time>
      </trkpt>
      <trkpt lat="46.6621" lon="3.49268">
        <ele>246.23</ele>
        <time>2021-08-13T12:50:59Z</time>
      </trkpt>
      <trkpt lat="46.66186" lon="3.49182">
        <ele>246.72</ele>
        <time>2021-08-13T12:51:12Z</time>
      </trkpt>
      <trkpt lat="46.6618" lon="3.49158">
        <ele>247.2</ele>
        <time>2021-08-13T12:51:16Z</time>
      </trkpt>
      <trkpt lat="46.66169" lon="3.49108">
        <ele>248.16</ele>
        <time>2021-08-13T12:51:24Z</time>
      </trkpt>
      <trkpt lat="46.6616" lon="3.49064">
        <ele>248.64</ele>
        <time>2021-08-13T12:51:31Z</time>
      </trkpt>
      <trkpt lat="46.66148" lon="3.49008">
        <ele>247.2</ele>
        <time>2021-08-13T12:51:39Z</time>
      </trkpt>
      <trkpt lat="46.66137" lon="3.48951">
        <ele>244.79</ele>
        <time>2021-08-13T12:51:46Z</time>
      </trkpt>
      <trkpt lat="46.6613" lon="3.48886">
        <ele>242.39</ele>
        <time>2021-08-13T12:51:52Z</time>
      </trkpt>
      <trkpt lat="46.66118" lon="3.48799">
        <ele>238.54</ele>
        <time>2021-08-13T12:51:59Z</time>
      </trkpt>
      <trkpt lat="46.66116" lon="3.48787">
        <ele>238.54</ele>
        <time>2021-08-13T12:52:00Z</time>
      </trkpt>
      <trkpt lat="46.66097" lon="3.48688">
        <ele>236.14</ele>
        <time>2021-08-13T12:52:08Z</time>
      </trkpt>
      <trkpt lat="46.66074" lon="3.48556">
        <ele>234.7</ele>
        <time>2021-08-13T12:52:19Z</time>
      </trkpt>
      <trkpt lat="46.66062" lon="3.48471">
        <ele>234.22</ele>
        <time>2021-08-13T12:52:27Z</time>
      </trkpt>
      <trkpt lat="46.66052" lon="3.48414">
        <ele>234.22</ele>
        <time>2021-08-13T12:52:34Z</time>
      </trkpt>
      <trkpt lat="46.66039" lon="3.48352">
        <ele>235.18</ele>
        <time>2021-08-13T12:52:43Z</time>
      </trkpt>
      <trkpt lat="46.66026" lon="3.48286">
        <ele>235.18</ele>
        <time>2021-08-13T12:52:52Z</time>
      </trkpt>
      <trkpt lat="46.66026" lon="3.48214">
        <ele>233.74</ele>
        <time>2021-08-13T12:53:00Z</time>
      </trkpt>
      <trkpt lat="46.6603" lon="3.48135">
        <ele>231.33</ele>
        <time>2021-08-13T12:53:08Z</time>
      </trkpt>
      <trkpt lat="46.66032" lon="3.48054">
        <ele>229.89</ele>
        <time>2021-08-13T12:53:16Z</time>
      </trkpt>
      <trkpt lat="46.66031" lon="3.48044">
        <ele>229.41</ele>
        <time>2021-08-13T12:53:17Z</time>
      </trkpt>
      <trkpt lat="46.66032" lon="3.48034">
        <ele>229.41</ele>
        <time>2021-08-13T12:53:18Z</time>
      </trkpt>
      <trkpt lat="46.66035" lon="3.48025">
        <ele>229.41</ele>
        <time>2021-08-13T12:53:19Z</time>
      </trkpt>
      <trkpt lat="46.6604" lon="3.48015">
        <ele>228.45</ele>
        <time>2021-08-13T12:53:20Z</time>
      </trkpt>
      <trkpt lat="46.66045" lon="3.4801">
        <ele>228.45</ele>
        <time>2021-08-13T12:53:21Z</time>
      </trkpt>
      <trkpt lat="46.66052" lon="3.48005">
        <ele>228.45</ele>
        <time>2021-08-13T12:53:22Z</time>
      </trkpt>
      <trkpt lat="46.66059" lon="3.48003">
        <ele>227.97</ele>
        <time>2021-08-13T12:53:23Z</time>
      </trkpt>
      <trkpt lat="46.66066" lon="3.48001">
        <ele>227.97</ele>
        <time>2021-08-13T12:53:24Z</time>
      </trkpt>
      <trkpt lat="46.66119" lon="3.47981">
        <ele>227.01</ele>
        <time>2021-08-13T12:53:32Z</time>
      </trkpt>
      <trkpt lat="46.66124" lon="3.47976">
        <ele>227.01</ele>
        <time>2021-08-13T12:53:33Z</time>
      </trkpt>
      <trkpt lat="46.66128" lon="3.47968">
        <ele>227.01</ele>
        <time>2021-08-13T12:53:34Z</time>
      </trkpt>
      <trkpt lat="46.66132" lon="3.47959">
        <ele>226.53</ele>
        <time>2021-08-13T12:53:35Z</time>
      </trkpt>
      <trkpt lat="46.66134" lon="3.47949">
        <ele>226.53</ele>
        <time>2021-08-13T12:53:36Z</time>
      </trkpt>
      <trkpt lat="46.66134" lon="3.47938">
        <ele>226.53</ele>
        <time>2021-08-13T12:53:37Z</time>
      </trkpt>
      <trkpt lat="46.66134" lon="3.47928">
        <ele>226.53</ele>
        <time>2021-08-13T12:53:38Z</time>
      </trkpt>
      <trkpt lat="46.66134" lon="3.47917">
        <ele>226.53</ele>
        <time>2021-08-13T12:53:39Z</time>
      </trkpt>
      <trkpt lat="46.66133" lon="3.47907">
        <ele>225.57</ele>
        <time>2021-08-13T12:53:40Z</time>
      </trkpt>
      <trkpt lat="46.66123" lon="3.47856">
        <ele>224.12</ele>
        <time>2021-08-13T12:53:45Z</time>
      </trkpt>
      <trkpt lat="46.66112" lon="3.47827">
        <ele>223.16</ele>
        <time>2021-08-13T12:53:48Z</time>
      </trkpt>
      <trkpt lat="46.66107" lon="3.47819">
        <ele>222.68</ele>
        <time>2021-08-13T12:53:49Z</time>
      </trkpt>
      <trkpt lat="46.66102" lon="3.4781">
        <ele>222.68</ele>
        <time>2021-08-13T12:53:50Z</time>
      </trkpt>
      <trkpt lat="46.66067" lon="3.47739">
        <ele>222.2</ele>
        <time>2021-08-13T12:53:58Z</time>
      </trkpt>
      <trkpt lat="46.66065" lon="3.4773">
        <ele>222.2</ele>
        <time>2021-08-13T12:53:59Z</time>
      </trkpt>
      <trkpt lat="46.66063" lon="3.4772">
        <ele>222.2</ele>
        <time>2021-08-13T12:54:00Z</time>
      </trkpt>
      <trkpt lat="46.66063" lon="3.4771">
        <ele>222.2</ele>
        <time>2021-08-13T12:54:01Z</time>
      </trkpt>
      <trkpt lat="46.66062" lon="3.477">
        <ele>222.2</ele>
        <time>2021-08-13T12:54:02Z</time>
      </trkpt>
      <trkpt lat="46.66062" lon="3.4769">
        <ele>222.2</ele>
        <time>2021-08-13T12:54:03Z</time>
      </trkpt>
      <trkpt lat="46.66063" lon="3.4768">
        <ele>222.2</ele>
        <time>2021-08-13T12:54:04Z</time>
      </trkpt>
      <trkpt lat="46.66062" lon="3.4767">
        <ele>222.2</ele>
        <time>2021-08-13T12:54:05Z</time>
      </trkpt>
      <trkpt lat="46.66062" lon="3.47662">
        <ele>222.2</ele>
        <time>2021-08-13T12:54:06Z</time>
      </trkpt>
      <trkpt lat="46.66059" lon="3.47618">
        <ele>222.2</ele>
        <time>2021-08-13T12:54:11Z</time>
      </trkpt>
      <trkpt lat="46.66048" lon="3.47567">
        <ele>222.2</ele>
        <time>2021-08-13T12:54:17Z</time>
      </trkpt>
      <trkpt lat="46.66032" lon="3.475">
        <ele>222.2</ele>
        <time>2021-08-13T12:54:26Z</time>
      </trkpt>
      <trkpt lat="46.6602" lon="3.47448">
        <ele>223.16</ele>
        <time>2021-08-13T12:54:34Z</time>
      </trkpt>
      <trkpt lat="46.66009" lon="3.47402">
        <ele>224.12</ele>
        <time>2021-08-13T12:54:43Z</time>
      </trkpt>
      <trkpt lat="46.66007" lon="3.47399">
        <ele>224.12</ele>
        <time>2021-08-13T12:54:44Z</time>
      </trkpt>
      <trkpt lat="46.66005" lon="3.47396">
        <ele>224.12</ele>
        <time>2021-08-13T12:54:45Z</time>
      </trkpt>
      <trkpt lat="46.66001" lon="3.47396">
        <ele>224.12</ele>
        <time>2021-08-13T12:54:46Z</time>
      </trkpt>
      <trkpt lat="46.65998" lon="3.47397">
        <ele>224.12</ele>
        <time>2021-08-13T12:54:47Z</time>
      </trkpt>
      <trkpt lat="46.65994" lon="3.47399">
        <ele>224.12</ele>
        <time>2021-08-13T12:54:48Z</time>
      </trkpt>
      <trkpt lat="46.6599" lon="3.47401">
        <ele>224.12</ele>
        <time>2021-08-13T12:54:49Z</time>
      </trkpt>
      <trkpt lat="46.65987" lon="3.47403">
        <ele>224.12</ele>
        <time>2021-08-13T12:54:50Z</time>
      </trkpt>
      <trkpt lat="46.65951" lon="3.47423">
        <ele>225.57</ele>
        <time>2021-08-13T12:55:00Z</time>
      </trkpt>
      <trkpt lat="46.65923" lon="3.47435">
        <ele>227.01</ele>
        <time>2021-08-13T12:55:09Z</time>
      </trkpt>
      <trkpt lat="46.6589" lon="3.47441">
        <ele>227.49</ele>
        <time>2021-08-13T12:55:19Z</time>
      </trkpt>
      <trkpt lat="46.6586" lon="3.47435">
        <ele>228.45</ele>
        <time>2021-08-13T12:55:28Z</time>
      </trkpt>
      <trkpt lat="46.65838" lon="3.47424">
        <ele>228.45</ele>
        <time>2021-08-13T12:55:34Z</time>
      </trkpt>
      <trkpt lat="46.65831" lon="3.47419">
        <ele>228.93</ele>
        <time>2021-08-13T12:55:36Z</time>
      </trkpt>
      <trkpt lat="46.65792" lon="3.47401">
        <ele>228.93</ele>
        <time>2021-08-13T12:55:45Z</time>
      </trkpt>
      <trkpt lat="46.65772" lon="3.47392">
        <ele>228.93</ele>
        <time>2021-08-13T12:55:49Z</time>
      </trkpt>
      <trkpt lat="46.65768" lon="3.4739">
        <ele>228.93</ele>
        <time>2021-08-13T12:55:50Z</time>
      </trkpt>
      <trkpt lat="46.65718" lon="3.47369">
        <ele>228.93</ele>
        <time>2021-08-13T12:56:00Z</time>
      </trkpt>
      <trkpt lat="46.65703" lon="3.47363">
        <ele>228.93</ele>
        <time>2021-08-13T12:56:03Z</time>
      </trkpt>
      <trkpt lat="46.65698" lon="3.4736">
        <ele>228.93</ele>
        <time>2021-08-13T12:56:04Z</time>
      </trkpt>
      <trkpt lat="46.65653" lon="3.47341">
        <ele>228.93</ele>
        <time>2021-08-13T12:56:13Z</time>
      </trkpt>
      <trkpt lat="46.65621" lon="3.47328">
        <ele>228.93</ele>
        <time>2021-08-13T12:56:20Z</time>
      </trkpt>
      <trkpt lat="46.65617" lon="3.47326">
        <ele>228.93</ele>
        <time>2021-08-13T12:56:21Z</time>
      </trkpt>
      <trkpt lat="46.65576" lon="3.47309">
        <ele>228.93</ele>
        <time>2021-08-13T12:56:29Z</time>
      </trkpt>
      <trkpt lat="46.65539" lon="3.47293">
        <ele>228.93</ele>
        <time>2021-08-13T12:56:36Z</time>
      </trkpt>
      <trkpt lat="46.65486" lon="3.4727">
        <ele>228.93</ele>
        <time>2021-08-13T12:56:46Z</time>
      </trkpt>
      <trkpt lat="46.65472" lon="3.47263">
        <ele>228.93</ele>
        <time>2021-08-13T12:56:49Z</time>
      </trkpt>
      <trkpt lat="46.65458" lon="3.47258">
        <ele>228.93</ele>
        <time>2021-08-13T12:56:52Z</time>
      </trkpt>
      <trkpt lat="46.6542" lon="3.47242">
        <ele>228.93</ele>
        <time>2021-08-13T12:57:00Z</time>
      </trkpt>
      <trkpt lat="46.6541" lon="3.47238">
        <ele>228.93</ele>
        <time>2021-08-13T12:57:02Z</time>
      </trkpt>
      <trkpt lat="46.654" lon="3.47235">
        <ele>228.93</ele>
        <time>2021-08-13T12:57:04Z</time>
      </trkpt>
      <trkpt lat="46.65396" lon="3.47232">
        <ele>228.93</ele>
        <time>2021-08-13T12:57:05Z</time>
      </trkpt>
      <trkpt lat="46.65391" lon="3.4723">
        <ele>228.93</ele>
        <time>2021-08-13T12:57:06Z</time>
      </trkpt>
      <trkpt lat="46.65382" lon="3.47226">
        <ele>229.41</ele>
        <time>2021-08-13T12:57:08Z</time>
      </trkpt>
      <trkpt lat="46.65345" lon="3.47211">
        <ele>229.89</ele>
        <time>2021-08-13T12:57:16Z</time>
      </trkpt>
      <trkpt lat="46.65303" lon="3.47192">
        <ele>230.37</ele>
        <time>2021-08-13T12:57:25Z</time>
      </trkpt>
      <trkpt lat="46.65268" lon="3.47177">
        <ele>230.37</ele>
        <time>2021-08-13T12:57:33Z</time>
      </trkpt>
      <trkpt lat="46.65233" lon="3.47163">
        <ele>230.37</ele>
        <time>2021-08-13T12:57:41Z</time>
      </trkpt>
      <trkpt lat="46.65214" lon="3.47154">
        <ele>230.37</ele>
        <time>2021-08-13T12:57:45Z</time>
      </trkpt>
      <trkpt lat="46.6519" lon="3.47144">
        <ele>230.37</ele>
        <time>2021-08-13T12:57:50Z</time>
      </trkpt>
      <trkpt lat="46.65185" lon="3.47142">
        <ele>230.37</ele>
        <time>2021-08-13T12:57:51Z</time>
      </trkpt>
      <trkpt lat="46.65141" lon="3.47123">
        <ele>230.37</ele>
        <time>2021-08-13T12:58:00Z</time>
      </trkpt>
      <trkpt lat="46.65104" lon="3.47107">
        <ele>230.37</ele>
        <time>2021-08-13T12:58:08Z</time>
      </trkpt>
      <trkpt lat="46.651" lon="3.47105">
        <ele>230.37</ele>
        <time>2021-08-13T12:58:09Z</time>
      </trkpt>
      <trkpt lat="46.65096" lon="3.47102">
        <ele>230.37</ele>
        <time>2021-08-13T12:58:10Z</time>
      </trkpt>
      <trkpt lat="46.65091" lon="3.47101">
        <ele>230.37</ele>
        <time>2021-08-13T12:58:11Z</time>
      </trkpt>
      <trkpt lat="46.65053" lon="3.47085">
        <ele>230.37</ele>
        <time>2021-08-13T12:58:19Z</time>
      </trkpt>
      <trkpt lat="46.65017" lon="3.47069">
        <ele>230.37</ele>
        <time>2021-08-13T12:58:26Z</time>
      </trkpt>
      <trkpt lat="46.65003" lon="3.47062">
        <ele>228.93</ele>
        <time>2021-08-13T12:58:29Z</time>
      </trkpt>
      <trkpt lat="46.64997" lon="3.47059">
        <ele>228.93</ele>
        <time>2021-08-13T12:58:30Z</time>
      </trkpt>
      <trkpt lat="46.64968" lon="3.47049">
        <ele>228.93</ele>
        <time>2021-08-13T12:58:36Z</time>
      </trkpt>
      <trkpt lat="46.64963" lon="3.47046">
        <ele>228.93</ele>
        <time>2021-08-13T12:58:37Z</time>
      </trkpt>
      <trkpt lat="46.64925" lon="3.4703">
        <ele>228.93</ele>
        <time>2021-08-13T12:58:45Z</time>
      </trkpt>
      <trkpt lat="46.64917" lon="3.47027">
        <ele>230.37</ele>
        <time>2021-08-13T12:58:47Z</time>
      </trkpt>
      <trkpt lat="46.64912" lon="3.47026">
        <ele>230.37</ele>
        <time>2021-08-13T12:58:48Z</time>
      </trkpt>
      <trkpt lat="46.64892" lon="3.47016">
        <ele>230.37</ele>
        <time>2021-08-13T12:58:53Z</time>
      </trkpt>
      <trkpt lat="46.64887" lon="3.47013">
        <ele>230.37</ele>
        <time>2021-08-13T12:58:54Z</time>
      </trkpt>
      <trkpt lat="46.64883" lon="3.47009">
        <ele>230.37</ele>
        <time>2021-08-13T12:58:55Z</time>
      </trkpt>
      <trkpt lat="46.64875" lon="3.47">
        <ele>230.37</ele>
        <time>2021-08-13T12:58:57Z</time>
      </trkpt>
      <trkpt lat="46.64868" lon="3.4699">
        <ele>230.37</ele>
        <time>2021-08-13T12:58:59Z</time>
      </trkpt>
      <trkpt lat="46.64852" lon="3.46952">
        <ele>230.37</ele>
        <time>2021-08-13T12:59:05Z</time>
      </trkpt>
      <trkpt lat="46.64846" lon="3.46939">
        <ele>230.37</ele>
        <time>2021-08-13T12:59:07Z</time>
      </trkpt>
      <trkpt lat="46.64824" lon="3.46877">
        <ele>230.37</ele>
        <time>2021-08-13T12:59:16Z</time>
      </trkpt>
      <trkpt lat="46.6481" lon="3.46838">
        <ele>230.85</ele>
        <time>2021-08-13T12:59:22Z</time>
      </trkpt>
      <trkpt lat="46.64808" lon="3.46832">
        <ele>230.85</ele>
        <time>2021-08-13T12:59:23Z</time>
      </trkpt>
      <trkpt lat="46.64786" lon="3.46792">
        <ele>231.81</ele>
        <time>2021-08-13T12:59:31Z</time>
      </trkpt>
      <trkpt lat="46.6476" lon="3.46762">
        <ele>232.3</ele>
        <time>2021-08-13T12:59:40Z</time>
      </trkpt>
      <trkpt lat="46.64753" lon="3.46756">
        <ele>232.78</ele>
        <time>2021-08-13T12:59:42Z</time>
      </trkpt>
      <trkpt lat="46.64731" lon="3.46736">
        <ele>232.78</ele>
        <time>2021-08-13T12:59:48Z</time>
      </trkpt>
      <trkpt lat="46.64728" lon="3.46732">
        <ele>232.78</ele>
        <time>2021-08-13T12:59:49Z</time>
      </trkpt>
      <trkpt lat="46.64725" lon="3.46727">
        <ele>232.78</ele>
        <time>2021-08-13T12:59:50Z</time>
      </trkpt>
      <trkpt lat="46.64722" lon="3.46722">
        <ele>232.78</ele>
        <time>2021-08-13T12:59:51Z</time>
      </trkpt>
      <trkpt lat="46.64718" lon="3.46717">
        <ele>232.78</ele>
        <time>2021-08-13T12:59:52Z</time>
      </trkpt>
      <trkpt lat="46.64715" lon="3.46713">
        <ele>232.78</ele>
        <time>2021-08-13T12:59:53Z</time>
      </trkpt>
      <trkpt lat="46.6469" lon="3.46667">
        <ele>233.26</ele>
        <time>2021-08-13T13:00:02Z</time>
      </trkpt>
      <trkpt lat="46.64667" lon="3.46625">
        <ele>234.22</ele>
        <time>2021-08-13T13:00:11Z</time>
      </trkpt>
      <trkpt lat="46.64651" lon="3.46597">
        <ele>234.7</ele>
        <time>2021-08-13T13:00:18Z</time>
      </trkpt>
      <trkpt lat="46.64643" lon="3.46565">
        <ele>235.18</ele>
        <time>2021-08-13T13:00:25Z</time>
      </trkpt>
      <trkpt lat="46.64638" lon="3.46531">
        <ele>236.14</ele>
        <time>2021-08-13T13:00:32Z</time>
      </trkpt>
      <trkpt lat="46.64637" lon="3.46503">
        <ele>236.14</ele>
        <time>2021-08-13T13:00:38Z</time>
      </trkpt>
      <trkpt lat="46.64635" lon="3.46454">
        <ele>237.1</ele>
        <time>2021-08-13T13:00:47Z</time>
      </trkpt>
      <trkpt lat="46.64634" lon="3.46403">
        <ele>238.06</ele>
        <time>2021-08-13T13:00:56Z</time>
      </trkpt>
      <trkpt lat="46.64633" lon="3.46352">
        <ele>238.06</ele>
        <time>2021-08-13T13:01:05Z</time>
      </trkpt>
      <trkpt lat="46.64632" lon="3.46341">
        <ele>238.54</ele>
        <time>2021-08-13T13:01:07Z</time>
      </trkpt>
      <trkpt lat="46.64622" lon="3.46293">
        <ele>238.54</ele>
        <time>2021-08-13T13:01:15Z</time>
      </trkpt>
      <trkpt lat="46.64621" lon="3.46287">
        <ele>238.54</ele>
        <time>2021-08-13T13:01:16Z</time>
      </trkpt>
      <trkpt lat="46.64618" lon="3.46268">
        <ele>239.02</ele>
        <time>2021-08-13T13:01:19Z</time>
      </trkpt>
      <trkpt lat="46.64617" lon="3.46262">
        <ele>239.02</ele>
        <time>2021-08-13T13:01:20Z</time>
      </trkpt>
      <trkpt lat="46.64617" lon="3.46248">
        <ele>239.51</ele>
        <time>2021-08-13T13:01:22Z</time>
      </trkpt>
      <trkpt lat="46.64618" lon="3.46208">
        <ele>239.51</ele>
        <time>2021-08-13T13:01:28Z</time>
      </trkpt>
      <trkpt lat="46.64619" lon="3.46201">
        <ele>239.51</ele>
        <time>2021-08-13T13:01:29Z</time>
      </trkpt>
      <trkpt lat="46.64629" lon="3.46162">
        <ele>239.99</ele>
        <time>2021-08-13T13:01:35Z</time>
      </trkpt>
      <trkpt lat="46.64631" lon="3.46157">
        <ele>239.99</ele>
        <time>2021-08-13T13:01:36Z</time>
      </trkpt>
      <trkpt lat="46.64633" lon="3.46151">
        <ele>239.99</ele>
        <time>2021-08-13T13:01:37Z</time>
      </trkpt>
      <trkpt lat="46.64636" lon="3.46139">
        <ele>239.99</ele>
        <time>2021-08-13T13:01:39Z</time>
      </trkpt>
      <trkpt lat="46.64639" lon="3.46134">
        <ele>240.47</ele>
        <time>2021-08-13T13:01:40Z</time>
      </trkpt>
      <trkpt lat="46.64663" lon="3.46087">
        <ele>241.43</ele>
        <time>2021-08-13T13:01:49Z</time>
      </trkpt>
      <trkpt lat="46.64683" lon="3.46057">
        <ele>241.91</ele>
        <time>2021-08-13T13:01:56Z</time>
      </trkpt>
      <trkpt lat="46.64686" lon="3.46051">
        <ele>241.91</ele>
        <time>2021-08-13T13:01:57Z</time>
      </trkpt>
      <trkpt lat="46.64702" lon="3.46024">
        <ele>242.39</ele>
        <time>2021-08-13T13:02:03Z</time>
      </trkpt>
      <trkpt lat="46.64727" lon="3.45985">
        <ele>242.39</ele>
        <time>2021-08-13T13:02:11Z</time>
      </trkpt>
      <trkpt lat="46.6476" lon="3.45935">
        <ele>242.87</ele>
        <time>2021-08-13T13:02:21Z</time>
      </trkpt>
      <trkpt lat="46.64776" lon="3.45909">
        <ele>243.35</ele>
        <time>2021-08-13T13:02:26Z</time>
      </trkpt>
      <trkpt lat="46.64807" lon="3.45871">
        <ele>243.83</ele>
        <time>2021-08-13T13:02:35Z</time>
      </trkpt>
      <trkpt lat="46.64838" lon="3.4584">
        <ele>243.83</ele>
        <time>2021-08-13T13:02:43Z</time>
      </trkpt>
      <trkpt lat="46.64884" lon="3.45798">
        <ele>243.83</ele>
        <time>2021-08-13T13:02:54Z</time>
      </trkpt>
      <trkpt lat="46.64913" lon="3.45776">
        <ele>243.83</ele>
        <time>2021-08-13T13:03:01Z</time>
      </trkpt>
      <trkpt lat="46.64922" lon="3.45769">
        <ele>243.83</ele>
        <time>2021-08-13T13:03:03Z</time>
      </trkpt>
      <trkpt lat="46.64955" lon="3.45742">
        <ele>241.91</ele>
        <time>2021-08-13T13:03:10Z</time>
      </trkpt>
      <trkpt lat="46.65007" lon="3.45698">
        <ele>241.43</ele>
        <time>2021-08-13T13:03:20Z</time>
      </trkpt>
      <trkpt lat="46.65041" lon="3.45664">
        <ele>241.43</ele>
        <time>2021-08-13T13:03:27Z</time>
      </trkpt>
      <trkpt lat="46.65046" lon="3.4566">
        <ele>241.43</ele>
        <time>2021-08-13T13:03:28Z</time>
      </trkpt>
      <trkpt lat="46.6507" lon="3.45635">
        <ele>240.47</ele>
        <time>2021-08-13T13:03:33Z</time>
      </trkpt>
      <trkpt lat="46.65075" lon="3.45631">
        <ele>240.47</ele>
        <time>2021-08-13T13:03:34Z</time>
      </trkpt>
      <trkpt lat="46.65109" lon="3.45595">
        <ele>240.47</ele>
        <time>2021-08-13T13:03:41Z</time>
      </trkpt>
      <trkpt lat="46.65137" lon="3.45573">
        <ele>239.51</ele>
        <time>2021-08-13T13:03:46Z</time>
      </trkpt>
      <trkpt lat="46.65193" lon="3.4555">
        <ele>238.06</ele>
        <time>2021-08-13T13:03:55Z</time>
      </trkpt>
      <trkpt lat="46.65213" lon="3.45541">
        <ele>237.58</ele>
        <time>2021-08-13T13:04:00Z</time>
      </trkpt>
      <trkpt lat="46.65216" lon="3.45539">
        <ele>237.58</ele>
        <time>2021-08-13T13:04:05Z</time>
      </trkpt>
      <trkpt lat="46.65218" lon="3.4554">
        <ele>237.1</ele>
        <time>2021-08-13T13:04:12Z</time>
      </trkpt>
      <trkpt lat="46.65217" lon="3.45544">
        <ele>237.1</ele>
        <time>2021-08-13T13:04:28Z</time>
      </trkpt>
      <trkpt lat="46.65216" lon="3.45547">
        <ele>237.1</ele>
        <time>2021-08-13T13:04:44Z</time>
      </trkpt>
      <trkpt lat="46.65219" lon="3.4555">
        <ele>237.1</ele>
        <time>2021-08-13T13:05:09Z</time>
      </trkpt>
      <trkpt lat="46.65216" lon="3.45546">
        <ele>237.1</ele>
        <time>2021-08-13T13:05:34Z</time>
      </trkpt>
      <trkpt lat="46.65216" lon="3.45546">
        <ele>237.1</ele>
        <time>2021-08-13T13:06:02Z</time>
      </trkpt>
      <trkpt lat="46.65214" lon="3.45546">
        <ele>237.1</ele>
        <time>2021-08-13T13:06:22Z</time>
      </trkpt>
      <trkpt lat="46.65215" lon="3.45544">
        <ele>237.1</ele>
        <time>2021-08-13T13:06:46Z</time>
      </trkpt>
      <trkpt lat="46.65215" lon="3.45543">
        <ele>237.1</ele>
        <time>2021-08-13T13:07:15Z</time>
      </trkpt>
      <trkpt lat="46.65215" lon="3.45541">
        <ele>237.1</ele>
        <time>2021-08-13T13:07:42Z</time>
      </trkpt>
      <trkpt lat="46.65218" lon="3.4554">
        <ele>237.1</ele>
        <time>2021-08-13T13:08:08Z</time>
      </trkpt>
      <trkpt lat="46.6522" lon="3.45543">
        <ele>237.1</ele>
        <time>2021-08-13T13:08:31Z</time>
      </trkpt>
      <trkpt lat="46.65219" lon="3.45544">
        <ele>237.1</ele>
        <time>2021-08-13T13:08:49Z</time>
      </trkpt>
      <trkpt lat="46.65217" lon="3.45543">
        <ele>237.58</ele>
        <time>2021-08-13T13:09:06Z</time>
      </trkpt>
      <trkpt lat="46.65216" lon="3.45541">
        <ele>237.58</ele>
        <time>2021-08-13T13:09:29Z</time>
      </trkpt>
      <trkpt lat="46.65216" lon="3.4554">
        <ele>237.58</ele>
        <time>2021-08-13T13:09:53Z</time>
      </trkpt>
      <trkpt lat="46.65215" lon="3.45538">
        <ele>237.58</ele>
        <time>2021-08-13T13:10:16Z</time>
      </trkpt>
      <trkpt lat="46.65218" lon="3.45542">
        <ele>237.58</ele>
        <time>2021-08-13T13:10:42Z</time>
      </trkpt>
      <trkpt lat="46.6522" lon="3.45546">
        <ele>237.58</ele>
        <time>2021-08-13T13:11:05Z</time>
      </trkpt>
      <trkpt lat="46.6522" lon="3.45543">
        <ele>237.58</ele>
        <time>2021-08-13T13:11:32Z</time>
      </trkpt>
      <trkpt lat="46.65218" lon="3.45539">
        <ele>237.58</ele>
        <time>2021-08-13T13:12:01Z</time>
      </trkpt>
      <trkpt lat="46.65217" lon="3.45538">
        <ele>237.58</ele>
        <time>2021-08-13T13:12:23Z</time>
      </trkpt>
      <trkpt lat="46.65216" lon="3.45537">
        <ele>239.02</ele>
        <time>2021-08-13T13:12:42Z</time>
      </trkpt>
      <trkpt lat="46.6522" lon="3.45539">
        <ele>239.51</ele>
        <time>2021-08-13T13:12:50Z</time>
      </trkpt>
      <trkpt lat="46.65221" lon="3.4554">
        <ele>239.51</ele>
        <time>2021-08-13T13:12:54Z</time>
      </trkpt>
      <trkpt lat="46.65223" lon="3.45539">
        <ele>239.51</ele>
        <time>2021-08-13T13:12:55Z</time>
      </trkpt>
      <trkpt lat="46.65225" lon="3.45539">
        <ele>239.51</ele>
        <time>2021-08-13T13:12:56Z</time>
      </trkpt>
      <trkpt lat="46.65227" lon="3.45538">
        <ele>239.51</ele>
        <time>2021-08-13T13:12:57Z</time>
      </trkpt>
      <trkpt lat="46.65229" lon="3.45537">
        <ele>239.51</ele>
        <time>2021-08-13T13:12:58Z</time>
      </trkpt>
      <trkpt lat="46.65233" lon="3.45534">
        <ele>239.51</ele>
        <time>2021-08-13T13:13:00Z</time>
      </trkpt>
      <trkpt lat="46.65234" lon="3.45529">
        <ele>239.51</ele>
        <time>2021-08-13T13:13:01Z</time>
      </trkpt>
      <trkpt lat="46.65233" lon="3.45525">
        <ele>239.51</ele>
        <time>2021-08-13T13:13:02Z</time>
      </trkpt>
      <trkpt lat="46.65232" lon="3.45521">
        <ele>239.51</ele>
        <time>2021-08-13T13:13:03Z</time>
      </trkpt>
      <trkpt lat="46.6523" lon="3.45518">
        <ele>239.51</ele>
        <time>2021-08-13T13:13:04Z</time>
      </trkpt>
      <trkpt lat="46.65228" lon="3.45513">
        <ele>239.51</ele>
        <time>2021-08-13T13:13:05Z</time>
      </trkpt>
      <trkpt lat="46.6521" lon="3.4548">
        <ele>239.51</ele>
        <time>2021-08-13T13:13:13Z</time>
      </trkpt>
      <trkpt lat="46.652" lon="3.45462">
        <ele>239.51</ele>
        <time>2021-08-13T13:13:19Z</time>
      </trkpt>
      <trkpt lat="46.65187" lon="3.45438">
        <ele>239.51</ele>
        <time>2021-08-13T13:13:26Z</time>
      </trkpt>
      <trkpt lat="46.65174" lon="3.45415">
        <ele>238.54</ele>
        <time>2021-08-13T13:13:32Z</time>
      </trkpt>
      <trkpt lat="46.6516" lon="3.45388">
        <ele>238.06</ele>
        <time>2021-08-13T13:13:38Z</time>
      </trkpt>
      <trkpt lat="46.65139" lon="3.45351">
        <ele>238.06</ele>
        <time>2021-08-13T13:13:46Z</time>
      </trkpt>
      <trkpt lat="46.65129" lon="3.45332">
        <ele>238.06</ele>
        <time>2021-08-13T13:13:50Z</time>
      </trkpt>
      <trkpt lat="46.65109" lon="3.45295">
        <ele>237.58</ele>
        <time>2021-08-13T13:13:57Z</time>
      </trkpt>
      <trkpt lat="46.65104" lon="3.45284">
        <ele>237.58</ele>
        <time>2021-08-13T13:13:59Z</time>
      </trkpt>
      <trkpt lat="46.65095" lon="3.45267">
        <ele>236.62</ele>
        <time>2021-08-13T13:14:02Z</time>
      </trkpt>
      <trkpt lat="46.65092" lon="3.45262">
        <ele>236.62</ele>
        <time>2021-08-13T13:14:03Z</time>
      </trkpt>
      <trkpt lat="46.65086" lon="3.45251">
        <ele>236.14</ele>
        <time>2021-08-13T13:14:05Z</time>
      </trkpt>
      <trkpt lat="46.65061" lon="3.45207">
        <ele>235.66</ele>
        <time>2021-08-13T13:14:14Z</time>
      </trkpt>
      <trkpt lat="46.6505" lon="3.45185">
        <ele>235.66</ele>
        <time>2021-08-13T13:14:18Z</time>
      </trkpt>
      <trkpt lat="46.65049" lon="3.45179">
        <ele>235.66</ele>
        <time>2021-08-13T13:14:19Z</time>
      </trkpt>
      <trkpt lat="46.6505" lon="3.45173">
        <ele>235.66</ele>
        <time>2021-08-13T13:14:20Z</time>
      </trkpt>
      <trkpt lat="46.65051" lon="3.45166">
        <ele>235.66</ele>
        <time>2021-08-13T13:14:21Z</time>
      </trkpt>
      <trkpt lat="46.65052" lon="3.4516">
        <ele>235.66</ele>
        <time>2021-08-13T13:14:22Z</time>
      </trkpt>
      <trkpt lat="46.65062" lon="3.45118">
        <ele>235.66</ele>
        <time>2021-08-13T13:14:29Z</time>
      </trkpt>
      <trkpt lat="46.65076" lon="3.45068">
        <ele>235.66</ele>
        <time>2021-08-13T13:14:37Z</time>
      </trkpt>
      <trkpt lat="46.65089" lon="3.45025">
        <ele>235.66</ele>
        <time>2021-08-13T13:14:45Z</time>
      </trkpt>
      <trkpt lat="46.651" lon="3.44993">
        <ele>237.1</ele>
        <time>2021-08-13T13:14:52Z</time>
      </trkpt>
      <trkpt lat="46.65102" lon="3.44988">
        <ele>237.1</ele>
        <time>2021-08-13T13:14:53Z</time>
      </trkpt>
      <trkpt lat="46.6511" lon="3.4496">
        <ele>238.06</ele>
        <time>2021-08-13T13:15:00Z</time>
      </trkpt>
      <trkpt lat="46.65119" lon="3.44926">
        <ele>239.02</ele>
        <time>2021-08-13T13:15:08Z</time>
      </trkpt>
      <trkpt lat="46.6513" lon="3.44879">
        <ele>239.02</ele>
        <time>2021-08-13T13:15:18Z</time>
      </trkpt>
      <trkpt lat="46.65139" lon="3.44837">
        <ele>239.99</ele>
        <time>2021-08-13T13:15:26Z</time>
      </trkpt>
      <trkpt lat="46.65149" lon="3.44778">
        <ele>241.43</ele>
        <time>2021-08-13T13:15:37Z</time>
      </trkpt>
      <trkpt lat="46.65153" lon="3.44721">
        <ele>241.91</ele>
        <time>2021-08-13T13:15:47Z</time>
      </trkpt>
      <trkpt lat="46.6515" lon="3.44698">
        <ele>241.91</ele>
        <time>2021-08-13T13:15:51Z</time>
      </trkpt>
      <trkpt lat="46.65147" lon="3.44687">
        <ele>241.91</ele>
        <time>2021-08-13T13:15:53Z</time>
      </trkpt>
      <trkpt lat="46.65132" lon="3.4465">
        <ele>242.87</ele>
        <time>2021-08-13T13:16:00Z</time>
      </trkpt>
      <trkpt lat="46.65108" lon="3.44604">
        <ele>242.39</ele>
        <time>2021-08-13T13:16:08Z</time>
      </trkpt>
      <trkpt lat="46.65083" lon="3.44552">
        <ele>242.87</ele>
        <time>2021-08-13T13:16:17Z</time>
      </trkpt>
      <trkpt lat="46.65075" lon="3.44534">
        <ele>242.87</ele>
        <time>2021-08-13T13:16:20Z</time>
      </trkpt>
      <trkpt lat="46.65073" lon="3.44529">
        <ele>242.87</ele>
        <time>2021-08-13T13:16:21Z</time>
      </trkpt>
      <trkpt lat="46.6507" lon="3.44524">
        <ele>242.87</ele>
        <time>2021-08-13T13:16:22Z</time>
      </trkpt>
      <trkpt lat="46.65035" lon="3.44452">
        <ele>243.35</ele>
        <time>2021-08-13T13:16:35Z</time>
      </trkpt>
      <trkpt lat="46.65005" lon="3.44386">
        <ele>243.35</ele>
        <time>2021-08-13T13:16:46Z</time>
      </trkpt>
      <trkpt lat="46.6498" lon="3.44334">
        <ele>243.83</ele>
        <time>2021-08-13T13:16:55Z</time>
      </trkpt>
      <trkpt lat="46.64956" lon="3.44283">
        <ele>245.27</ele>
        <time>2021-08-13T13:17:05Z</time>
      </trkpt>
      <trkpt lat="46.64951" lon="3.44273">
        <ele>245.75</ele>
        <time>2021-08-13T13:17:07Z</time>
      </trkpt>
      <trkpt lat="46.64946" lon="3.44261">
        <ele>245.75</ele>
        <time>2021-08-13T13:17:09Z</time>
      </trkpt>
      <trkpt lat="46.64925" lon="3.44219">
        <ele>246.23</ele>
        <time>2021-08-13T13:17:17Z</time>
      </trkpt>
      <trkpt lat="46.64903" lon="3.44172">
        <ele>246.23</ele>
        <time>2021-08-13T13:17:25Z</time>
      </trkpt>
      <trkpt lat="46.64873" lon="3.4411">
        <ele>246.23</ele>
        <time>2021-08-13T13:17:35Z</time>
      </trkpt>
      <trkpt lat="46.64844" lon="3.4405">
        <ele>246.72</ele>
        <time>2021-08-13T13:17:46Z</time>
      </trkpt>
      <trkpt lat="46.64819" lon="3.43997">
        <ele>246.72</ele>
        <time>2021-08-13T13:17:55Z</time>
      </trkpt>
      <trkpt lat="46.64796" lon="3.43946">
        <ele>247.2</ele>
        <time>2021-08-13T13:18:04Z</time>
      </trkpt>
      <trkpt lat="46.64783" lon="3.43921">
        <ele>247.68</ele>
        <time>2021-08-13T13:18:09Z</time>
      </trkpt>
      <trkpt lat="46.64756" lon="3.4386">
        <ele>248.64</ele>
        <time>2021-08-13T13:18:21Z</time>
      </trkpt>
      <trkpt lat="46.64754" lon="3.43856">
        <ele>248.64</ele>
        <time>2021-08-13T13:18:22Z</time>
      </trkpt>
      <trkpt lat="46.64752" lon="3.43851">
        <ele>249.12</ele>
        <time>2021-08-13T13:18:23Z</time>
      </trkpt>
      <trkpt lat="46.64749" lon="3.43846">
        <ele>249.12</ele>
        <time>2021-08-13T13:18:24Z</time>
      </trkpt>
      <trkpt lat="46.64747" lon="3.43842">
        <ele>249.12</ele>
        <time>2021-08-13T13:18:25Z</time>
      </trkpt>
      <trkpt lat="46.64744" lon="3.43836">
        <ele>249.12</ele>
        <time>2021-08-13T13:18:26Z</time>
      </trkpt>
      <trkpt lat="46.64732" lon="3.4381">
        <ele>250.08</ele>
        <time>2021-08-13T13:18:32Z</time>
      </trkpt>
      <trkpt lat="46.64711" lon="3.43767">
        <ele>251.04</ele>
        <time>2021-08-13T13:18:43Z</time>
      </trkpt>
      <trkpt lat="46.64686" lon="3.43715">
        <ele>252</ele>
        <time>2021-08-13T13:18:55Z</time>
      </trkpt>
      <trkpt lat="46.6466" lon="3.43662">
        <ele>253.44</ele>
        <time>2021-08-13T13:19:08Z</time>
      </trkpt>
      <trkpt lat="46.64641" lon="3.4362">
        <ele>254.41</ele>
        <time>2021-08-13T13:19:18Z</time>
      </trkpt>
      <trkpt lat="46.64624" lon="3.43584">
        <ele>255.37</ele>
        <time>2021-08-13T13:19:27Z</time>
      </trkpt>
      <trkpt lat="46.64607" lon="3.43547">
        <ele>256.33</ele>
        <time>2021-08-13T13:19:36Z</time>
      </trkpt>
      <trkpt lat="46.64589" lon="3.4351">
        <ele>257.29</ele>
        <time>2021-08-13T13:19:45Z</time>
      </trkpt>
      <trkpt lat="46.64572" lon="3.43476">
        <ele>258.25</ele>
        <time>2021-08-13T13:19:53Z</time>
      </trkpt>
      <trkpt lat="46.64558" lon="3.43447">
        <ele>258.73</ele>
        <time>2021-08-13T13:20:00Z</time>
      </trkpt>
      <trkpt lat="46.64546" lon="3.43421">
        <ele>259.69</ele>
        <time>2021-08-13T13:20:07Z</time>
      </trkpt>
      <trkpt lat="46.64533" lon="3.43393">
        <ele>260.17</ele>
        <time>2021-08-13T13:20:15Z</time>
      </trkpt>
      <trkpt lat="46.64514" lon="3.43353">
        <ele>260.17</ele>
        <time>2021-08-13T13:20:24Z</time>
      </trkpt>
      <trkpt lat="46.6449" lon="3.43303">
        <ele>260.65</ele>
        <time>2021-08-13T13:20:34Z</time>
      </trkpt>
      <trkpt lat="46.64466" lon="3.43253">
        <ele>260.65</ele>
        <time>2021-08-13T13:20:43Z</time>
      </trkpt>
      <trkpt lat="46.64441" lon="3.43202">
        <ele>261.14</ele>
        <time>2021-08-13T13:20:52Z</time>
      </trkpt>
      <trkpt lat="46.64439" lon="3.43197">
        <ele>261.14</ele>
        <time>2021-08-13T13:20:53Z</time>
      </trkpt>
      <trkpt lat="46.64436" lon="3.43191">
        <ele>261.14</ele>
        <time>2021-08-13T13:20:54Z</time>
      </trkpt>
      <trkpt lat="46.64422" lon="3.43164">
        <ele>261.14</ele>
        <time>2021-08-13T13:20:59Z</time>
      </trkpt>
      <trkpt lat="46.64404" lon="3.43124">
        <ele>261.62</ele>
        <time>2021-08-13T13:21:06Z</time>
      </trkpt>
      <trkpt lat="46.64386" lon="3.43089">
        <ele>261.62</ele>
        <time>2021-08-13T13:21:13Z</time>
      </trkpt>
      <trkpt lat="46.64371" lon="3.43074">
        <ele>261.62</ele>
        <time>2021-08-13T13:21:17Z</time>
      </trkpt>
      <trkpt lat="46.64335" lon="3.43052">
        <ele>261.62</ele>
        <time>2021-08-13T13:21:25Z</time>
      </trkpt>
      <trkpt lat="46.64306" lon="3.43034">
        <ele>261.62</ele>
        <time>2021-08-13T13:21:32Z</time>
      </trkpt>
      <trkpt lat="46.6428" lon="3.43018">
        <ele>261.62</ele>
        <time>2021-08-13T13:21:39Z</time>
      </trkpt>
      <trkpt lat="46.64251" lon="3.43001">
        <ele>261.62</ele>
        <time>2021-08-13T13:21:46Z</time>
      </trkpt>
      <trkpt lat="46.64228" lon="3.42982">
        <ele>261.62</ele>
        <time>2021-08-13T13:21:52Z</time>
      </trkpt>
      <trkpt lat="46.64217" lon="3.42971">
        <ele>261.62</ele>
        <time>2021-08-13T13:21:55Z</time>
      </trkpt>
      <trkpt lat="46.64214" lon="3.42966">
        <ele>261.62</ele>
        <time>2021-08-13T13:21:56Z</time>
      </trkpt>
      <trkpt lat="46.64211" lon="3.42961">
        <ele>261.62</ele>
        <time>2021-08-13T13:21:57Z</time>
      </trkpt>
      <trkpt lat="46.64208" lon="3.42956">
        <ele>261.62</ele>
        <time>2021-08-13T13:21:58Z</time>
      </trkpt>
      <trkpt lat="46.64205" lon="3.42952">
        <ele>261.62</ele>
        <time>2021-08-13T13:21:59Z</time>
      </trkpt>
      <trkpt lat="46.64185" lon="3.42919">
        <ele>261.62</ele>
        <time>2021-08-13T13:22:06Z</time>
      </trkpt>
      <trkpt lat="46.64162" lon="3.42882">
        <ele>260.65</ele>
        <time>2021-08-13T13:22:13Z</time>
      </trkpt>
      <trkpt lat="46.64147" lon="3.42856">
        <ele>260.17</ele>
        <time>2021-08-13T13:22:18Z</time>
      </trkpt>
      <trkpt lat="46.64145" lon="3.42849">
        <ele>260.17</ele>
        <time>2021-08-13T13:22:19Z</time>
      </trkpt>
      <trkpt lat="46.64137" lon="3.42829">
        <ele>260.17</ele>
        <time>2021-08-13T13:22:22Z</time>
      </trkpt>
      <trkpt lat="46.64125" lon="3.42776">
        <ele>259.21</ele>
        <time>2021-08-13T13:22:29Z</time>
      </trkpt>
      <trkpt lat="46.64111" lon="3.42726">
        <ele>258.73</ele>
        <time>2021-08-13T13:22:35Z</time>
      </trkpt>
      <trkpt lat="46.64097" lon="3.42684">
        <ele>258.73</ele>
        <time>2021-08-13T13:22:40Z</time>
      </trkpt>
      <trkpt lat="46.64093" lon="3.42676">
        <ele>258.73</ele>
        <time>2021-08-13T13:22:41Z</time>
      </trkpt>
      <trkpt lat="46.64089" lon="3.4267">
        <ele>258.25</ele>
        <time>2021-08-13T13:22:42Z</time>
      </trkpt>
      <trkpt lat="46.64085" lon="3.42663">
        <ele>258.25</ele>
        <time>2021-08-13T13:22:43Z</time>
      </trkpt>
      <trkpt lat="46.6408" lon="3.42657">
        <ele>258.25</ele>
        <time>2021-08-13T13:22:44Z</time>
      </trkpt>
      <trkpt lat="46.6404" lon="3.42613">
        <ele>258.73</ele>
        <time>2021-08-13T13:22:52Z</time>
      </trkpt>
      <trkpt lat="46.64035" lon="3.42607">
        <ele>258.25</ele>
        <time>2021-08-13T13:22:53Z</time>
      </trkpt>
      <trkpt lat="46.63984" lon="3.42557">
        <ele>258.25</ele>
        <time>2021-08-13T13:23:03Z</time>
      </trkpt>
      <trkpt lat="46.63951" lon="3.42524">
        <ele>258.25</ele>
        <time>2021-08-13T13:23:10Z</time>
      </trkpt>
      <trkpt lat="46.63919" lon="3.42493">
        <ele>258.25</ele>
        <time>2021-08-13T13:23:17Z</time>
      </trkpt>
      <trkpt lat="46.63915" lon="3.42489">
        <ele>258.25</ele>
        <time>2021-08-13T13:23:18Z</time>
      </trkpt>
      <trkpt lat="46.6391" lon="3.42484">
        <ele>258.25</ele>
        <time>2021-08-13T13:23:19Z</time>
      </trkpt>
      <trkpt lat="46.63906" lon="3.4248">
        <ele>258.25</ele>
        <time>2021-08-13T13:23:20Z</time>
      </trkpt>
      <trkpt lat="46.63902" lon="3.42477">
        <ele>258.25</ele>
        <time>2021-08-13T13:23:21Z</time>
      </trkpt>
      <trkpt lat="46.63898" lon="3.42473">
        <ele>258.25</ele>
        <time>2021-08-13T13:23:22Z</time>
      </trkpt>
      <trkpt lat="46.6387" lon="3.42447">
        <ele>258.25</ele>
        <time>2021-08-13T13:23:29Z</time>
      </trkpt>
      <trkpt lat="46.63857" lon="3.42434">
        <ele>259.69</ele>
        <time>2021-08-13T13:23:32Z</time>
      </trkpt>
      <trkpt lat="46.63826" lon="3.4239">
        <ele>259.69</ele>
        <time>2021-08-13T13:23:40Z</time>
      </trkpt>
      <trkpt lat="46.63808" lon="3.42357">
        <ele>259.69</ele>
        <time>2021-08-13T13:23:46Z</time>
      </trkpt>
      <trkpt lat="46.63804" lon="3.42352">
        <ele>259.69</ele>
        <time>2021-08-13T13:23:47Z</time>
      </trkpt>
      <trkpt lat="46.63787" lon="3.42327">
        <ele>260.17</ele>
        <time>2021-08-13T13:23:52Z</time>
      </trkpt>
      <trkpt lat="46.63784" lon="3.42321">
        <ele>260.17</ele>
        <time>2021-08-13T13:23:53Z</time>
      </trkpt>
      <trkpt lat="46.6378" lon="3.42308">
        <ele>260.17</ele>
        <time>2021-08-13T13:23:55Z</time>
      </trkpt>
      <trkpt lat="46.63766" lon="3.4225">
        <ele>260.17</ele>
        <time>2021-08-13T13:24:03Z</time>
      </trkpt>
      <trkpt lat="46.63748" lon="3.42167">
        <ele>260.65</ele>
        <time>2021-08-13T13:24:14Z</time>
      </trkpt>
      <trkpt lat="46.63736" lon="3.42112">
        <ele>260.65</ele>
        <time>2021-08-13T13:24:22Z</time>
      </trkpt>
      <trkpt lat="46.6373" lon="3.42084">
        <ele>260.65</ele>
        <time>2021-08-13T13:24:26Z</time>
      </trkpt>
      <trkpt lat="46.63721" lon="3.42049">
        <ele>260.65</ele>
        <time>2021-08-13T13:24:31Z</time>
      </trkpt>
      <trkpt lat="46.6372" lon="3.42042">
        <ele>260.65</ele>
        <time>2021-08-13T13:24:32Z</time>
      </trkpt>
      <trkpt lat="46.63718" lon="3.42035">
        <ele>260.65</ele>
        <time>2021-08-13T13:24:33Z</time>
      </trkpt>
      <trkpt lat="46.63699" lon="3.41976">
        <ele>261.14</ele>
        <time>2021-08-13T13:24:42Z</time>
      </trkpt>
      <trkpt lat="46.63671" lon="3.41916">
        <ele>261.62</ele>
        <time>2021-08-13T13:24:52Z</time>
      </trkpt>
      <trkpt lat="46.63646" lon="3.4186">
        <ele>260.65</ele>
        <time>2021-08-13T13:25:01Z</time>
      </trkpt>
      <trkpt lat="46.63642" lon="3.41853">
        <ele>260.17</ele>
        <time>2021-08-13T13:25:02Z</time>
      </trkpt>
      <trkpt lat="46.63639" lon="3.41845">
        <ele>260.17</ele>
        <time>2021-08-13T13:25:03Z</time>
      </trkpt>
      <trkpt lat="46.63634" lon="3.41827">
        <ele>259.21</ele>
        <time>2021-08-13T13:25:05Z</time>
      </trkpt>
      <trkpt lat="46.6363" lon="3.41817">
        <ele>258.25</ele>
        <time>2021-08-13T13:25:06Z</time>
      </trkpt>
      <trkpt lat="46.63618" lon="3.41792">
        <ele>256.33</ele>
        <time>2021-08-13T13:25:09Z</time>
      </trkpt>
      <trkpt lat="46.63612" lon="3.41783">
        <ele>256.33</ele>
        <time>2021-08-13T13:25:10Z</time>
      </trkpt>
      <trkpt lat="46.63596" lon="3.41758">
        <ele>254.89</ele>
        <time>2021-08-13T13:25:13Z</time>
      </trkpt>
      <trkpt lat="46.63579" lon="3.41727">
        <ele>253.93</ele>
        <time>2021-08-13T13:25:17Z</time>
      </trkpt>
      <trkpt lat="46.63578" lon="3.41717">
        <ele>252.96</ele>
        <time>2021-08-13T13:25:18Z</time>
      </trkpt>
      <trkpt lat="46.63579" lon="3.41708">
        <ele>252.96</ele>
        <time>2021-08-13T13:25:19Z</time>
      </trkpt>
      <trkpt lat="46.63581" lon="3.41699">
        <ele>252.96</ele>
        <time>2021-08-13T13:25:20Z</time>
      </trkpt>
      <trkpt lat="46.63584" lon="3.4169">
        <ele>252.48</ele>
        <time>2021-08-13T13:25:21Z</time>
      </trkpt>
      <trkpt lat="46.63609" lon="3.41622">
        <ele>250.08</ele>
        <time>2021-08-13T13:25:28Z</time>
      </trkpt>
      <trkpt lat="46.63631" lon="3.41536">
        <ele>248.16</ele>
        <time>2021-08-13T13:25:36Z</time>
      </trkpt>
      <trkpt lat="46.63635" lon="3.41526">
        <ele>248.16</ele>
        <time>2021-08-13T13:25:37Z</time>
      </trkpt>
      <trkpt lat="46.6364" lon="3.41517">
        <ele>247.68</ele>
        <time>2021-08-13T13:25:38Z</time>
      </trkpt>
      <trkpt lat="46.63657" lon="3.41493">
        <ele>247.68</ele>
        <time>2021-08-13T13:25:41Z</time>
      </trkpt>
      <trkpt lat="46.63661" lon="3.41484">
        <ele>247.68</ele>
        <time>2021-08-13T13:25:42Z</time>
      </trkpt>
      <trkpt lat="46.63664" lon="3.41475">
        <ele>247.68</ele>
        <time>2021-08-13T13:25:43Z</time>
      </trkpt>
      <trkpt lat="46.63666" lon="3.41464">
        <ele>247.68</ele>
        <time>2021-08-13T13:25:44Z</time>
      </trkpt>
      <trkpt lat="46.63667" lon="3.41454">
        <ele>247.68</ele>
        <time>2021-08-13T13:25:45Z</time>
      </trkpt>
      <trkpt lat="46.63666" lon="3.41444">
        <ele>247.68</ele>
        <time>2021-08-13T13:25:46Z</time>
      </trkpt>
      <trkpt lat="46.63665" lon="3.41433">
        <ele>247.68</ele>
        <time>2021-08-13T13:25:47Z</time>
      </trkpt>
      <trkpt lat="46.63664" lon="3.41424">
        <ele>247.68</ele>
        <time>2021-08-13T13:25:48Z</time>
      </trkpt>
      <trkpt lat="46.63657" lon="3.41368">
        <ele>250.08</ele>
        <time>2021-08-13T13:25:55Z</time>
      </trkpt>
      <trkpt lat="46.63656" lon="3.41354">
        <ele>251.04</ele>
        <time>2021-08-13T13:25:57Z</time>
      </trkpt>
      <trkpt lat="46.63656" lon="3.41348">
        <ele>251.04</ele>
        <time>2021-08-13T13:25:58Z</time>
      </trkpt>
      <trkpt lat="46.63656" lon="3.41336">
        <ele>251.52</ele>
        <time>2021-08-13T13:26:00Z</time>
      </trkpt>
      <trkpt lat="46.63656" lon="3.4133">
        <ele>252</ele>
        <time>2021-08-13T13:26:01Z</time>
      </trkpt>
      <trkpt lat="46.63661" lon="3.41289">
        <ele>252.96</ele>
        <time>2021-08-13T13:26:08Z</time>
      </trkpt>
      <trkpt lat="46.63661" lon="3.41283">
        <ele>252.96</ele>
        <time>2021-08-13T13:26:09Z</time>
      </trkpt>
      <trkpt lat="46.63662" lon="3.41277">
        <ele>252.96</ele>
        <time>2021-08-13T13:26:10Z</time>
      </trkpt>
      <trkpt lat="46.6367" lon="3.41219">
        <ele>254.41</ele>
        <time>2021-08-13T13:26:20Z</time>
      </trkpt>
      <trkpt lat="46.63671" lon="3.41213">
        <ele>254.41</ele>
        <time>2021-08-13T13:26:21Z</time>
      </trkpt>
      <trkpt lat="46.63672" lon="3.41207">
        <ele>254.41</ele>
        <time>2021-08-13T13:26:22Z</time>
      </trkpt>
      <trkpt lat="46.63672" lon="3.41201">
        <ele>254.41</ele>
        <time>2021-08-13T13:26:23Z</time>
      </trkpt>
      <trkpt lat="46.63673" lon="3.41195">
        <ele>254.41</ele>
        <time>2021-08-13T13:26:24Z</time>
      </trkpt>
      <trkpt lat="46.63673" lon="3.41189">
        <ele>254.41</ele>
        <time>2021-08-13T13:26:25Z</time>
      </trkpt>
      <trkpt lat="46.63681" lon="3.41129">
        <ele>254.41</ele>
        <time>2021-08-13T13:26:34Z</time>
      </trkpt>
      <trkpt lat="46.63682" lon="3.41122">
        <ele>254.41</ele>
        <time>2021-08-13T13:26:35Z</time>
      </trkpt>
      <trkpt lat="46.63683" lon="3.41114">
        <ele>254.41</ele>
        <time>2021-08-13T13:26:36Z</time>
      </trkpt>
      <trkpt lat="46.63685" lon="3.41098">
        <ele>252.96</ele>
        <time>2021-08-13T13:26:38Z</time>
      </trkpt>
      <trkpt lat="46.63692" lon="3.41059">
        <ele>252</ele>
        <time>2021-08-13T13:26:43Z</time>
      </trkpt>
      <trkpt lat="46.63693" lon="3.41052">
        <ele>251.52</ele>
        <time>2021-08-13T13:26:44Z</time>
      </trkpt>
      <trkpt lat="46.637" lon="3.41021">
        <ele>251.04</ele>
        <time>2021-08-13T13:26:50Z</time>
      </trkpt>
      <trkpt lat="46.63704" lon="3.41016">
        <ele>250.56</ele>
        <time>2021-08-13T13:26:52Z</time>
      </trkpt>
      <trkpt lat="46.63707" lon="3.41015">
        <ele>250.08</ele>
        <time>2021-08-13T13:26:53Z</time>
      </trkpt>
      <trkpt lat="46.63713" lon="3.41013">
        <ele>250.08</ele>
        <time>2021-08-13T13:26:55Z</time>
      </trkpt>
      <trkpt lat="46.63717" lon="3.41012">
        <ele>250.08</ele>
        <time>2021-08-13T13:26:56Z</time>
      </trkpt>
      <trkpt lat="46.63722" lon="3.41011">
        <ele>250.08</ele>
        <time>2021-08-13T13:26:57Z</time>
      </trkpt>
      <trkpt lat="46.63758" lon="3.41003">
        <ele>249.12</ele>
        <time>2021-08-13T13:27:04Z</time>
      </trkpt>
      <trkpt lat="46.63799" lon="3.40994">
        <ele>248.64</ele>
        <time>2021-08-13T13:27:11Z</time>
      </trkpt>
      <trkpt lat="46.6385" lon="3.40987">
        <ele>246.72</ele>
        <time>2021-08-13T13:27:19Z</time>
      </trkpt>
      <trkpt lat="46.63856" lon="3.40985">
        <ele>246.72</ele>
        <time>2021-08-13T13:27:20Z</time>
      </trkpt>
      <trkpt lat="46.63862" lon="3.40982">
        <ele>246.72</ele>
        <time>2021-08-13T13:27:21Z</time>
      </trkpt>
      <trkpt lat="46.63867" lon="3.40977">
        <ele>246.72</ele>
        <time>2021-08-13T13:27:22Z</time>
      </trkpt>
      <trkpt lat="46.63872" lon="3.40971">
        <ele>246.72</ele>
        <time>2021-08-13T13:27:23Z</time>
      </trkpt>
      <trkpt lat="46.63877" lon="3.40965">
        <ele>246.23</ele>
        <time>2021-08-13T13:27:24Z</time>
      </trkpt>
      <trkpt lat="46.6388" lon="3.40958">
        <ele>246.23</ele>
        <time>2021-08-13T13:27:25Z</time>
      </trkpt>
      <trkpt lat="46.63884" lon="3.40949">
        <ele>245.75</ele>
        <time>2021-08-13T13:27:26Z</time>
      </trkpt>
      <trkpt lat="46.63888" lon="3.4094">
        <ele>245.27</ele>
        <time>2021-08-13T13:27:27Z</time>
      </trkpt>
      <trkpt lat="46.63891" lon="3.40932">
        <ele>245.27</ele>
        <time>2021-08-13T13:27:28Z</time>
      </trkpt>
      <trkpt lat="46.63912" lon="3.40858">
        <ele>242.39</ele>
        <time>2021-08-13T13:27:35Z</time>
      </trkpt>
      <trkpt lat="46.63938" lon="3.40772">
        <ele>240.47</ele>
        <time>2021-08-13T13:27:43Z</time>
      </trkpt>
      <trkpt lat="46.63973" lon="3.40714">
        <ele>238.54</ele>
        <time>2021-08-13T13:27:49Z</time>
      </trkpt>
      <trkpt lat="46.64032" lon="3.40643">
        <ele>237.58</ele>
        <time>2021-08-13T13:27:58Z</time>
      </trkpt>
      <trkpt lat="46.64048" lon="3.40629">
        <ele>237.58</ele>
        <time>2021-08-13T13:28:01Z</time>
      </trkpt>
      <trkpt lat="46.64057" lon="3.40624">
        <ele>237.58</ele>
        <time>2021-08-13T13:28:02Z</time>
      </trkpt>
      <trkpt lat="46.64067" lon="3.4062">
        <ele>239.02</ele>
        <time>2021-08-13T13:28:04Z</time>
      </trkpt>
      <trkpt lat="46.64112" lon="3.40601">
        <ele>239.02</ele>
        <time>2021-08-13T13:28:12Z</time>
      </trkpt>
      <trkpt lat="46.6413" lon="3.40591">
        <ele>239.51</ele>
        <time>2021-08-13T13:28:15Z</time>
      </trkpt>
      <trkpt lat="46.64136" lon="3.40585">
        <ele>239.99</ele>
        <time>2021-08-13T13:28:16Z</time>
      </trkpt>
      <trkpt lat="46.64171" lon="3.40555">
        <ele>241.43</ele>
        <time>2021-08-13T13:28:23Z</time>
      </trkpt>
      <trkpt lat="46.64175" lon="3.40551">
        <ele>241.43</ele>
        <time>2021-08-13T13:28:24Z</time>
      </trkpt>
      <trkpt lat="46.64215" lon="3.4051">
        <ele>243.35</ele>
        <time>2021-08-13T13:28:35Z</time>
      </trkpt>
      <trkpt lat="46.64221" lon="3.40504">
        <ele>243.83</ele>
        <time>2021-08-13T13:28:37Z</time>
      </trkpt>
      <trkpt lat="46.64257" lon="3.40471">
        <ele>244.31</ele>
        <time>2021-08-13T13:28:47Z</time>
      </trkpt>
      <trkpt lat="46.64295" lon="3.40436">
        <ele>244.79</ele>
        <time>2021-08-13T13:28:57Z</time>
      </trkpt>
      <trkpt lat="46.64337" lon="3.404">
        <ele>245.27</ele>
        <time>2021-08-13T13:29:07Z</time>
      </trkpt>
      <trkpt lat="46.64372" lon="3.40369">
        <ele>245.27</ele>
        <time>2021-08-13T13:29:15Z</time>
      </trkpt>
      <trkpt lat="46.64414" lon="3.40333">
        <ele>245.27</ele>
        <time>2021-08-13T13:29:24Z</time>
      </trkpt>
      <trkpt lat="46.64456" lon="3.40298">
        <ele>245.27</ele>
        <time>2021-08-13T13:29:32Z</time>
      </trkpt>
      <trkpt lat="46.64486" lon="3.40267">
        <ele>245.27</ele>
        <time>2021-08-13T13:29:38Z</time>
      </trkpt>
      <trkpt lat="46.64523" lon="3.40205">
        <ele>245.27</ele>
        <time>2021-08-13T13:29:47Z</time>
      </trkpt>
      <trkpt lat="46.64553" lon="3.40151">
        <ele>245.27</ele>
        <time>2021-08-13T13:29:55Z</time>
      </trkpt>
      <trkpt lat="46.64587" lon="3.40092">
        <ele>246.23</ele>
        <time>2021-08-13T13:30:04Z</time>
      </trkpt>
      <trkpt lat="46.64621" lon="3.40035">
        <ele>247.68</ele>
        <time>2021-08-13T13:30:13Z</time>
      </trkpt>
      <trkpt lat="46.64656" lon="3.39975">
        <ele>248.64</ele>
        <time>2021-08-13T13:30:23Z</time>
      </trkpt>
      <trkpt lat="46.64685" lon="3.3993">
        <ele>249.12</ele>
        <time>2021-08-13T13:30:31Z</time>
      </trkpt>
      <trkpt lat="46.64717" lon="3.39882">
        <ele>249.6</ele>
        <time>2021-08-13T13:30:40Z</time>
      </trkpt>
      <trkpt lat="46.64755" lon="3.39823">
        <ele>251.04</ele>
        <time>2021-08-13T13:30:51Z</time>
      </trkpt>
      <trkpt lat="46.64762" lon="3.39812">
        <ele>251.52</ele>
        <time>2021-08-13T13:30:53Z</time>
      </trkpt>
      <trkpt lat="46.64766" lon="3.39807">
        <ele>251.52</ele>
        <time>2021-08-13T13:30:54Z</time>
      </trkpt>
      <trkpt lat="46.64803" lon="3.39754">
        <ele>252</ele>
        <time>2021-08-13T13:31:04Z</time>
      </trkpt>
      <trkpt lat="46.64818" lon="3.39732">
        <ele>252</ele>
        <time>2021-08-13T13:31:08Z</time>
      </trkpt>
      <trkpt lat="46.64825" lon="3.39722">
        <ele>252.48</ele>
        <time>2021-08-13T13:31:10Z</time>
      </trkpt>
      <trkpt lat="46.64828" lon="3.39718">
        <ele>252.48</ele>
        <time>2021-08-13T13:31:11Z</time>
      </trkpt>
      <trkpt lat="46.64847" lon="3.39678">
        <ele>253.44</ele>
        <time>2021-08-13T13:31:18Z</time>
      </trkpt>
      <trkpt lat="46.64867" lon="3.39634">
        <ele>252.96</ele>
        <time>2021-08-13T13:31:25Z</time>
      </trkpt>
      <trkpt lat="46.64891" lon="3.39583">
        <ele>251.52</ele>
        <time>2021-08-13T13:31:32Z</time>
      </trkpt>
      <trkpt lat="46.64929" lon="3.39505">
        <ele>250.56</ele>
        <time>2021-08-13T13:31:42Z</time>
      </trkpt>
      <trkpt lat="46.64966" lon="3.39426">
        <ele>249.6</ele>
        <time>2021-08-13T13:31:51Z</time>
      </trkpt>
      <trkpt lat="46.65008" lon="3.39339">
        <ele>246.72</ele>
        <time>2021-08-13T13:32:00Z</time>
      </trkpt>
      <trkpt lat="46.65063" lon="3.39222">
        <ele>244.31</ele>
        <time>2021-08-13T13:32:11Z</time>
      </trkpt>
      <trkpt lat="46.65116" lon="3.3911">
        <ele>241.43</ele>
        <time>2021-08-13T13:32:22Z</time>
      </trkpt>
      <trkpt lat="46.65159" lon="3.39023">
        <ele>241.43</ele>
        <time>2021-08-13T13:32:31Z</time>
      </trkpt>
      <trkpt lat="46.65171" lon="3.38997">
        <ele>243.35</ele>
        <time>2021-08-13T13:32:34Z</time>
      </trkpt>
      <trkpt lat="46.65185" lon="3.38966">
        <ele>243.83</ele>
        <time>2021-08-13T13:32:38Z</time>
      </trkpt>
      <trkpt lat="46.65187" lon="3.38959">
        <ele>244.31</ele>
        <time>2021-08-13T13:32:39Z</time>
      </trkpt>
      <trkpt lat="46.65191" lon="3.38952">
        <ele>244.31</ele>
        <time>2021-08-13T13:32:40Z</time>
      </trkpt>
      <trkpt lat="46.65197" lon="3.3894">
        <ele>244.31</ele>
        <time>2021-08-13T13:32:42Z</time>
      </trkpt>
      <trkpt lat="46.65215" lon="3.38899">
        <ele>246.72</ele>
        <time>2021-08-13T13:32:50Z</time>
      </trkpt>
      <trkpt lat="46.65227" lon="3.38873">
        <ele>247.2</ele>
        <time>2021-08-13T13:32:57Z</time>
      </trkpt>
      <trkpt lat="46.65241" lon="3.38847">
        <ele>248.16</ele>
        <time>2021-08-13T13:33:04Z</time>
      </trkpt>
      <trkpt lat="46.6525" lon="3.38824">
        <ele>248.64</ele>
        <time>2021-08-13T13:33:11Z</time>
      </trkpt>
      <trkpt lat="46.65263" lon="3.38802">
        <ele>249.12</ele>
        <time>2021-08-13T13:33:17Z</time>
      </trkpt>
      <trkpt lat="46.6528" lon="3.38762">
        <ele>249.6</ele>
        <time>2021-08-13T13:33:26Z</time>
      </trkpt>
      <trkpt lat="46.65292" lon="3.38739">
        <ele>250.08</ele>
        <time>2021-08-13T13:33:31Z</time>
      </trkpt>
      <trkpt lat="46.65295" lon="3.38734">
        <ele>250.08</ele>
        <time>2021-08-13T13:33:32Z</time>
      </trkpt>
      <trkpt lat="46.65308" lon="3.38709">
        <ele>250.08</ele>
        <time>2021-08-13T13:33:37Z</time>
      </trkpt>
      <trkpt lat="46.6534" lon="3.38663">
        <ele>250.56</ele>
        <time>2021-08-13T13:33:47Z</time>
      </trkpt>
      <trkpt lat="46.65346" lon="3.38654">
        <ele>251.04</ele>
        <time>2021-08-13T13:33:49Z</time>
      </trkpt>
      <trkpt lat="46.65374" lon="3.38622">
        <ele>251.04</ele>
        <time>2021-08-13T13:33:57Z</time>
      </trkpt>
      <trkpt lat="46.65402" lon="3.38586">
        <ele>252</ele>
        <time>2021-08-13T13:34:06Z</time>
      </trkpt>
      <trkpt lat="46.65409" lon="3.38579">
        <ele>252.48</ele>
        <time>2021-08-13T13:34:08Z</time>
      </trkpt>
      <trkpt lat="46.65444" lon="3.38535">
        <ele>253.44</ele>
        <time>2021-08-13T13:34:19Z</time>
      </trkpt>
      <trkpt lat="46.65457" lon="3.38518">
        <ele>253.44</ele>
        <time>2021-08-13T13:34:23Z</time>
      </trkpt>
      <trkpt lat="46.65498" lon="3.3847">
        <ele>253.44</ele>
        <time>2021-08-13T13:34:34Z</time>
      </trkpt>
      <trkpt lat="46.65519" lon="3.38442">
        <ele>253.44</ele>
        <time>2021-08-13T13:34:40Z</time>
      </trkpt>
      <trkpt lat="46.65553" lon="3.38403">
        <ele>253.93</ele>
        <time>2021-08-13T13:34:49Z</time>
      </trkpt>
      <trkpt lat="46.65574" lon="3.38376">
        <ele>253.44</ele>
        <time>2021-08-13T13:34:55Z</time>
      </trkpt>
      <trkpt lat="46.65577" lon="3.38372">
        <ele>253.44</ele>
        <time>2021-08-13T13:34:56Z</time>
      </trkpt>
      <trkpt lat="46.65604" lon="3.38341">
        <ele>253.44</ele>
        <time>2021-08-13T13:35:04Z</time>
      </trkpt>
      <trkpt lat="46.65627" lon="3.38309">
        <ele>253.44</ele>
        <time>2021-08-13T13:35:11Z</time>
      </trkpt>
      <trkpt lat="46.65661" lon="3.38271">
        <ele>253.44</ele>
        <time>2021-08-13T13:35:20Z</time>
      </trkpt>
      <trkpt lat="46.65688" lon="3.38237">
        <ele>253.93</ele>
        <time>2021-08-13T13:35:28Z</time>
      </trkpt>
      <trkpt lat="46.65714" lon="3.38208">
        <ele>253.93</ele>
        <time>2021-08-13T13:35:36Z</time>
      </trkpt>
      <trkpt lat="46.65749" lon="3.38165">
        <ele>254.41</ele>
        <time>2021-08-13T13:35:46Z</time>
      </trkpt>
      <trkpt lat="46.65784" lon="3.38122">
        <ele>254.41</ele>
        <time>2021-08-13T13:35:56Z</time>
      </trkpt>
      <trkpt lat="46.65818" lon="3.38082">
        <ele>254.89</ele>
        <time>2021-08-13T13:36:06Z</time>
      </trkpt>
      <trkpt lat="46.65861" lon="3.3803">
        <ele>255.85</ele>
        <time>2021-08-13T13:36:18Z</time>
      </trkpt>
      <trkpt lat="46.65868" lon="3.38021">
        <ele>255.85</ele>
        <time>2021-08-13T13:36:20Z</time>
      </trkpt>
      <trkpt lat="46.65887" lon="3.37994">
        <ele>256.33</ele>
        <time>2021-08-13T13:36:27Z</time>
      </trkpt>
      <trkpt lat="46.65887" lon="3.37976">
        <ele>256.33</ele>
        <time>2021-08-13T13:36:32Z</time>
      </trkpt>
      <trkpt lat="46.6588" lon="3.3795">
        <ele>256.33</ele>
        <time>2021-08-13T13:36:38Z</time>
      </trkpt>
      <trkpt lat="46.65872" lon="3.37913">
        <ele>256.33</ele>
        <time>2021-08-13T13:36:46Z</time>
      </trkpt>
      <trkpt lat="46.6586" lon="3.37871">
        <ele>256.33</ele>
        <time>2021-08-13T13:36:54Z</time>
      </trkpt>
      <trkpt lat="46.65847" lon="3.37823">
        <ele>256.33</ele>
        <time>2021-08-13T13:37:02Z</time>
      </trkpt>
      <trkpt lat="46.65834" lon="3.37774">
        <ele>256.33</ele>
        <time>2021-08-13T13:37:09Z</time>
      </trkpt>
      <trkpt lat="46.65826" lon="3.37746">
        <ele>256.33</ele>
        <time>2021-08-13T13:37:13Z</time>
      </trkpt>
      <trkpt lat="46.65823" lon="3.37739">
        <ele>256.33</ele>
        <time>2021-08-13T13:37:14Z</time>
      </trkpt>
      <trkpt lat="46.6582" lon="3.37733">
        <ele>256.33</ele>
        <time>2021-08-13T13:37:15Z</time>
      </trkpt>
      <trkpt lat="46.65816" lon="3.37728">
        <ele>256.33</ele>
        <time>2021-08-13T13:37:16Z</time>
      </trkpt>
      <trkpt lat="46.65811" lon="3.37723">
        <ele>256.33</ele>
        <time>2021-08-13T13:37:17Z</time>
      </trkpt>
      <trkpt lat="46.65807" lon="3.37719">
        <ele>256.33</ele>
        <time>2021-08-13T13:37:18Z</time>
      </trkpt>
      <trkpt lat="46.65802" lon="3.37717">
        <ele>256.33</ele>
        <time>2021-08-13T13:37:19Z</time>
      </trkpt>
      <trkpt lat="46.65798" lon="3.37714">
        <ele>256.33</ele>
        <time>2021-08-13T13:37:20Z</time>
      </trkpt>
      <trkpt lat="46.65775" lon="3.37705">
        <ele>254.89</ele>
        <time>2021-08-13T13:37:24Z</time>
      </trkpt>
      <trkpt lat="46.65736" lon="3.3769">
        <ele>253.93</ele>
        <time>2021-08-13T13:37:31Z</time>
      </trkpt>
      <trkpt lat="46.65699" lon="3.37674">
        <ele>253.44</ele>
        <time>2021-08-13T13:37:37Z</time>
      </trkpt>
      <trkpt lat="46.65658" lon="3.3766">
        <ele>253.44</ele>
        <time>2021-08-13T13:37:44Z</time>
      </trkpt>
      <trkpt lat="46.65618" lon="3.37646">
        <ele>253.93</ele>
        <time>2021-08-13T13:37:51Z</time>
      </trkpt>
      <trkpt lat="46.65584" lon="3.37633">
        <ele>253.93</ele>
        <time>2021-08-13T13:37:58Z</time>
      </trkpt>
      <trkpt lat="46.65553" lon="3.37626">
        <ele>253.93</ele>
        <time>2021-08-13T13:38:04Z</time>
      </trkpt>
      <trkpt lat="46.65521" lon="3.37629">
        <ele>253.44</ele>
        <time>2021-08-13T13:38:10Z</time>
      </trkpt>
      <trkpt lat="46.65475" lon="3.37638">
        <ele>252.96</ele>
        <time>2021-08-13T13:38:17Z</time>
      </trkpt>
      <trkpt lat="46.65467" lon="3.37639">
        <ele>252.48</ele>
        <time>2021-08-13T13:38:18Z</time>
      </trkpt>
      <trkpt lat="46.65459" lon="3.37638">
        <ele>252.48</ele>
        <time>2021-08-13T13:38:19Z</time>
      </trkpt>
      <trkpt lat="46.65452" lon="3.37637">
        <ele>252.48</ele>
        <time>2021-08-13T13:38:20Z</time>
      </trkpt>
      <trkpt lat="46.65445" lon="3.37635">
        <ele>252.48</ele>
        <time>2021-08-13T13:38:21Z</time>
      </trkpt>
      <trkpt lat="46.65439" lon="3.37632">
        <ele>252.48</ele>
        <time>2021-08-13T13:38:22Z</time>
      </trkpt>
      <trkpt lat="46.65386" lon="3.37613">
        <ele>252.48</ele>
        <time>2021-08-13T13:38:31Z</time>
      </trkpt>
      <trkpt lat="46.65344" lon="3.37596">
        <ele>252.48</ele>
        <time>2021-08-13T13:38:39Z</time>
      </trkpt>
      <trkpt lat="46.65333" lon="3.37592">
        <ele>252.48</ele>
        <time>2021-08-13T13:38:41Z</time>
      </trkpt>
      <trkpt lat="46.65284" lon="3.37572">
        <ele>252.48</ele>
        <time>2021-08-13T13:38:50Z</time>
      </trkpt>
      <trkpt lat="46.65218" lon="3.37541">
        <ele>252.48</ele>
        <time>2021-08-13T13:39:02Z</time>
      </trkpt>
      <trkpt lat="46.65172" lon="3.37519">
        <ele>253.93</ele>
        <time>2021-08-13T13:39:12Z</time>
      </trkpt>
      <trkpt lat="46.65123" lon="3.37496">
        <ele>254.41</ele>
        <time>2021-08-13T13:39:23Z</time>
      </trkpt>
      <trkpt lat="46.65083" lon="3.37477">
        <ele>254.89</ele>
        <time>2021-08-13T13:39:32Z</time>
      </trkpt>
      <trkpt lat="46.65065" lon="3.37469">
        <ele>254.89</ele>
        <time>2021-08-13T13:39:36Z</time>
      </trkpt>
      <trkpt lat="46.65038" lon="3.37456">
        <ele>255.37</ele>
        <time>2021-08-13T13:39:44Z</time>
      </trkpt>
      <trkpt lat="46.65025" lon="3.37448">
        <ele>255.37</ele>
        <time>2021-08-13T13:39:48Z</time>
      </trkpt>
      <trkpt lat="46.64986" lon="3.37429">
        <ele>255.37</ele>
        <time>2021-08-13T13:39:57Z</time>
      </trkpt>
      <trkpt lat="46.64954" lon="3.37413">
        <ele>255.37</ele>
        <time>2021-08-13T13:40:05Z</time>
      </trkpt>
      <trkpt lat="46.64918" lon="3.374">
        <ele>255.37</ele>
        <time>2021-08-13T13:40:13Z</time>
      </trkpt>
      <trkpt lat="46.64867" lon="3.3739">
        <ele>253.93</ele>
        <time>2021-08-13T13:40:23Z</time>
      </trkpt>
      <trkpt lat="46.64861" lon="3.37389">
        <ele>253.93</ele>
        <time>2021-08-13T13:40:24Z</time>
      </trkpt>
      <trkpt lat="46.64857" lon="3.37388">
        <ele>253.93</ele>
        <time>2021-08-13T13:40:25Z</time>
      </trkpt>
      <trkpt lat="46.64852" lon="3.37387">
        <ele>253.93</ele>
        <time>2021-08-13T13:40:26Z</time>
      </trkpt>
      <trkpt lat="46.64847" lon="3.37386">
        <ele>253.93</ele>
        <time>2021-08-13T13:40:27Z</time>
      </trkpt>
      <trkpt lat="46.64843" lon="3.37385">
        <ele>253.93</ele>
        <time>2021-08-13T13:40:28Z</time>
      </trkpt>
      <trkpt lat="46.64806" lon="3.37378">
        <ele>252.96</ele>
        <time>2021-08-13T13:40:35Z</time>
      </trkpt>
      <trkpt lat="46.64802" lon="3.37377">
        <ele>252.96</ele>
        <time>2021-08-13T13:40:36Z</time>
      </trkpt>
      <trkpt lat="46.64754" lon="3.37367">
        <ele>252.96</ele>
        <time>2021-08-13T13:40:45Z</time>
      </trkpt>
      <trkpt lat="46.64705" lon="3.37356">
        <ele>252.96</ele>
        <time>2021-08-13T13:40:55Z</time>
      </trkpt>
      <trkpt lat="46.64676" lon="3.37346">
        <ele>254.41</ele>
        <time>2021-08-13T13:41:03Z</time>
      </trkpt>
      <trkpt lat="46.64648" lon="3.37336">
        <ele>254.41</ele>
        <time>2021-08-13T13:41:10Z</time>
      </trkpt>
      <trkpt lat="46.64611" lon="3.37323">
        <ele>254.41</ele>
        <time>2021-08-13T13:41:18Z</time>
      </trkpt>
      <trkpt lat="46.64572" lon="3.37312">
        <ele>254.41</ele>
        <time>2021-08-13T13:41:27Z</time>
      </trkpt>
      <trkpt lat="46.64534" lon="3.37301">
        <ele>254.89</ele>
        <time>2021-08-13T13:41:35Z</time>
      </trkpt>
      <trkpt lat="46.64493" lon="3.37289">
        <ele>254.89</ele>
        <time>2021-08-13T13:41:44Z</time>
      </trkpt>
      <trkpt lat="46.6447" lon="3.37279">
        <ele>255.37</ele>
        <time>2021-08-13T13:41:50Z</time>
      </trkpt>
      <trkpt lat="46.64437" lon="3.37262">
        <ele>255.85</ele>
        <time>2021-08-13T13:41:58Z</time>
      </trkpt>
      <trkpt lat="46.64411" lon="3.37241">
        <ele>256.33</ele>
        <time>2021-08-13T13:42:06Z</time>
      </trkpt>
      <trkpt lat="46.64385" lon="3.37217">
        <ele>256.81</ele>
        <time>2021-08-13T13:42:14Z</time>
      </trkpt>
      <trkpt lat="46.64358" lon="3.37193">
        <ele>257.29</ele>
        <time>2021-08-13T13:42:22Z</time>
      </trkpt>
      <trkpt lat="46.64329" lon="3.37166">
        <ele>257.29</ele>
        <time>2021-08-13T13:42:30Z</time>
      </trkpt>
      <trkpt lat="46.64325" lon="3.37162">
        <ele>257.29</ele>
        <time>2021-08-13T13:42:31Z</time>
      </trkpt>
      <trkpt lat="46.64286" lon="3.37128">
        <ele>257.29</ele>
        <time>2021-08-13T13:42:40Z</time>
      </trkpt>
      <trkpt lat="46.6425" lon="3.37095">
        <ele>257.29</ele>
        <time>2021-08-13T13:42:49Z</time>
      </trkpt>
      <trkpt lat="46.64219" lon="3.37067">
        <ele>257.77</ele>
        <time>2021-08-13T13:42:57Z</time>
      </trkpt>
      <trkpt lat="46.6419" lon="3.37043">
        <ele>258.25</ele>
        <time>2021-08-13T13:43:05Z</time>
      </trkpt>
      <trkpt lat="46.64187" lon="3.3704">
        <ele>258.25</ele>
        <time>2021-08-13T13:43:06Z</time>
      </trkpt>
      <trkpt lat="46.64168" lon="3.37025">
        <ele>258.73</ele>
        <time>2021-08-13T13:43:11Z</time>
      </trkpt>
      <trkpt lat="46.6416" lon="3.3702">
        <ele>258.73</ele>
        <time>2021-08-13T13:43:13Z</time>
      </trkpt>
      <trkpt lat="46.64155" lon="3.37017">
        <ele>258.73</ele>
        <time>2021-08-13T13:43:14Z</time>
      </trkpt>
      <trkpt lat="46.64125" lon="3.36992">
        <ele>259.21</ele>
        <time>2021-08-13T13:43:22Z</time>
      </trkpt>
      <trkpt lat="46.64106" lon="3.3697">
        <ele>260.17</ele>
        <time>2021-08-13T13:43:29Z</time>
      </trkpt>
      <trkpt lat="46.64085" lon="3.36946">
        <ele>260.65</ele>
        <time>2021-08-13T13:43:37Z</time>
      </trkpt>
      <trkpt lat="46.64071" lon="3.36934">
        <ele>261.62</ele>
        <time>2021-08-13T13:43:42Z</time>
      </trkpt>
      <trkpt lat="46.64048" lon="3.36909">
        <ele>261.62</ele>
        <time>2021-08-13T13:43:50Z</time>
      </trkpt>
      <trkpt lat="46.64029" lon="3.36886">
        <ele>262.58</ele>
        <time>2021-08-13T13:43:58Z</time>
      </trkpt>
      <trkpt lat="46.64009" lon="3.36867">
        <ele>263.54</ele>
        <time>2021-08-13T13:44:06Z</time>
      </trkpt>
      <trkpt lat="46.63985" lon="3.36843">
        <ele>264.02</ele>
        <time>2021-08-13T13:44:15Z</time>
      </trkpt>
      <trkpt lat="46.63972" lon="3.36828">
        <ele>264.5</ele>
        <time>2021-08-13T13:44:22Z</time>
      </trkpt>
      <trkpt lat="46.63952" lon="3.36807">
        <ele>264.98</ele>
        <time>2021-08-13T13:44:30Z</time>
      </trkpt>
      <trkpt lat="46.63941" lon="3.3679">
        <ele>265.46</ele>
        <time>2021-08-13T13:44:36Z</time>
      </trkpt>
      <trkpt lat="46.63937" lon="3.36784">
        <ele>265.46</ele>
        <time>2021-08-13T13:44:38Z</time>
      </trkpt>
      <trkpt lat="46.63936" lon="3.36781">
        <ele>265.46</ele>
        <time>2021-08-13T13:44:39Z</time>
      </trkpt>
      <trkpt lat="46.63934" lon="3.36777">
        <ele>265.46</ele>
        <time>2021-08-13T13:44:40Z</time>
      </trkpt>
      <trkpt lat="46.63916" lon="3.36744">
        <ele>266.42</ele>
        <time>2021-08-13T13:44:50Z</time>
      </trkpt>
      <trkpt lat="46.63897" lon="3.36712">
        <ele>267.38</ele>
        <time>2021-08-13T13:44:59Z</time>
      </trkpt>
      <trkpt lat="46.6388" lon="3.36691">
        <ele>267.86</ele>
        <time>2021-08-13T13:45:06Z</time>
      </trkpt>
      <trkpt lat="46.6387" lon="3.36666">
        <ele>268.35</ele>
        <time>2021-08-13T13:45:12Z</time>
      </trkpt>
      <trkpt lat="46.63859" lon="3.36632">
        <ele>268.35</ele>
        <time>2021-08-13T13:45:20Z</time>
      </trkpt>
      <trkpt lat="46.63845" lon="3.36596">
        <ele>268.83</ele>
        <time>2021-08-13T13:45:28Z</time>
      </trkpt>
      <trkpt lat="46.63831" lon="3.36561">
        <ele>268.83</ele>
        <time>2021-08-13T13:45:35Z</time>
      </trkpt>
      <trkpt lat="46.63821" lon="3.36537">
        <ele>268.83</ele>
        <time>2021-08-13T13:45:41Z</time>
      </trkpt>
      <trkpt lat="46.6382" lon="3.36534">
        <ele>268.83</ele>
        <time>2021-08-13T13:45:48Z</time>
      </trkpt>
      <trkpt lat="46.63818" lon="3.36535">
        <ele>269.31</ele>
        <time>2021-08-13T13:46:05Z</time>
      </trkpt>
      <trkpt lat="46.63815" lon="3.36537">
        <ele>269.31</ele>
        <time>2021-08-13T13:46:26Z</time>
      </trkpt>
      <trkpt lat="46.63815" lon="3.36532">
        <ele>269.31</ele>
        <time>2021-08-13T13:46:44Z</time>
      </trkpt>
      <trkpt lat="46.63815" lon="3.36531">
        <ele>269.31</ele>
        <time>2021-08-13T13:46:48Z</time>
      </trkpt>
      <trkpt lat="46.63814" lon="3.3652">
        <ele>269.31</ele>
        <time>2021-08-13T13:46:53Z</time>
      </trkpt>
      <trkpt lat="46.63805" lon="3.36496">
        <ele>269.31</ele>
        <time>2021-08-13T13:46:59Z</time>
      </trkpt>
      <trkpt lat="46.63791" lon="3.36458">
        <ele>269.31</ele>
        <time>2021-08-13T13:47:07Z</time>
      </trkpt>
      <trkpt lat="46.63778" lon="3.3642">
        <ele>269.31</ele>
        <time>2021-08-13T13:47:14Z</time>
      </trkpt>
      <trkpt lat="46.63773" lon="3.36409">
        <ele>269.31</ele>
        <time>2021-08-13T13:47:16Z</time>
      </trkpt>
      <trkpt lat="46.63771" lon="3.36404">
        <ele>269.31</ele>
        <time>2021-08-13T13:47:17Z</time>
      </trkpt>
      <trkpt lat="46.63759" lon="3.36372">
        <ele>269.31</ele>
        <time>2021-08-13T13:47:23Z</time>
      </trkpt>
      <trkpt lat="46.63751" lon="3.3635">
        <ele>269.31</ele>
        <time>2021-08-13T13:47:27Z</time>
      </trkpt>
      <trkpt lat="46.63735" lon="3.36309">
        <ele>269.79</ele>
        <time>2021-08-13T13:47:35Z</time>
      </trkpt>
      <trkpt lat="46.6372" lon="3.36265">
        <ele>269.79</ele>
        <time>2021-08-13T13:47:43Z</time>
      </trkpt>
      <trkpt lat="46.63703" lon="3.36222">
        <ele>269.79</ele>
        <time>2021-08-13T13:47:51Z</time>
      </trkpt>
      <trkpt lat="46.63692" lon="3.36196">
        <ele>269.79</ele>
        <time>2021-08-13T13:47:56Z</time>
      </trkpt>
      <trkpt lat="46.63688" lon="3.36185">
        <ele>269.79</ele>
        <time>2021-08-13T13:47:58Z</time>
      </trkpt>
      <trkpt lat="46.63674" lon="3.36147">
        <ele>269.79</ele>
        <time>2021-08-13T13:48:05Z</time>
      </trkpt>
      <trkpt lat="46.63665" lon="3.3612">
        <ele>269.79</ele>
        <time>2021-08-13T13:48:09Z</time>
      </trkpt>
      <trkpt lat="46.63662" lon="3.36108">
        <ele>269.79</ele>
        <time>2021-08-13T13:48:11Z</time>
      </trkpt>
      <trkpt lat="46.6366" lon="3.36102">
        <ele>269.79</ele>
        <time>2021-08-13T13:48:12Z</time>
      </trkpt>
      <trkpt lat="46.63641" lon="3.36053">
        <ele>269.79</ele>
        <time>2021-08-13T13:48:20Z</time>
      </trkpt>
      <trkpt lat="46.63625" lon="3.36017">
        <ele>268.35</ele>
        <time>2021-08-13T13:48:26Z</time>
      </trkpt>
      <trkpt lat="46.63605" lon="3.35964">
        <ele>268.35</ele>
        <time>2021-08-13T13:48:34Z</time>
      </trkpt>
      <trkpt lat="46.63574" lon="3.35896">
        <ele>267.38</ele>
        <time>2021-08-13T13:48:43Z</time>
      </trkpt>
      <trkpt lat="46.63545" lon="3.35833">
        <ele>266.42</ele>
        <time>2021-08-13T13:48:51Z</time>
      </trkpt>
      <trkpt lat="46.63511" lon="3.35762">
        <ele>265.94</ele>
        <time>2021-08-13T13:49:00Z</time>
      </trkpt>
      <trkpt lat="46.63473" lon="3.3568">
        <ele>264.98</ele>
        <time>2021-08-13T13:49:10Z</time>
      </trkpt>
      <trkpt lat="46.63434" lon="3.35596">
        <ele>264.02</ele>
        <time>2021-08-13T13:49:20Z</time>
      </trkpt>
      <trkpt lat="46.63401" lon="3.35524">
        <ele>263.54</ele>
        <time>2021-08-13T13:49:29Z</time>
      </trkpt>
      <trkpt lat="46.63386" lon="3.35464">
        <ele>263.06</ele>
        <time>2021-08-13T13:49:36Z</time>
      </trkpt>
      <trkpt lat="46.63377" lon="3.35364">
        <ele>262.1</ele>
        <time>2021-08-13T13:49:47Z</time>
      </trkpt>
      <trkpt lat="46.6337" lon="3.35287">
        <ele>262.1</ele>
        <time>2021-08-13T13:49:56Z</time>
      </trkpt>
      <trkpt lat="46.63363" lon="3.35204">
        <ele>262.1</ele>
        <time>2021-08-13T13:50:06Z</time>
      </trkpt>
      <trkpt lat="46.63353" lon="3.35119">
        <ele>261.62</ele>
        <time>2021-08-13T13:50:16Z</time>
      </trkpt>
      <trkpt lat="46.63336" lon="3.3502">
        <ele>261.14</ele>
        <time>2021-08-13T13:50:28Z</time>
      </trkpt>
      <trkpt lat="46.63323" lon="3.34946">
        <ele>261.14</ele>
        <time>2021-08-13T13:50:37Z</time>
      </trkpt>
      <trkpt lat="46.63321" lon="3.34928">
        <ele>261.14</ele>
        <time>2021-08-13T13:50:39Z</time>
      </trkpt>
      <trkpt lat="46.63308" lon="3.34855">
        <ele>260.65</ele>
        <time>2021-08-13T13:50:48Z</time>
      </trkpt>
      <trkpt lat="46.63299" lon="3.34804">
        <ele>260.65</ele>
        <time>2021-08-13T13:50:56Z</time>
      </trkpt>
      <trkpt lat="46.63289" lon="3.34768">
        <ele>260.65</ele>
        <time>2021-08-13T13:51:03Z</time>
      </trkpt>
      <trkpt lat="46.63279" lon="3.34733">
        <ele>260.65</ele>
        <time>2021-08-13T13:51:10Z</time>
      </trkpt>
      <trkpt lat="46.63265" lon="3.34686">
        <ele>259.69</ele>
        <time>2021-08-13T13:51:18Z</time>
      </trkpt>
      <trkpt lat="46.63263" lon="3.34679">
        <ele>259.69</ele>
        <time>2021-08-13T13:51:19Z</time>
      </trkpt>
      <trkpt lat="46.63248" lon="3.34633">
        <ele>259.69</ele>
        <time>2021-08-13T13:51:26Z</time>
      </trkpt>
      <trkpt lat="46.63237" lon="3.34573">
        <ele>259.21</ele>
        <time>2021-08-13T13:51:34Z</time>
      </trkpt>
      <trkpt lat="46.63237" lon="3.345">
        <ele>259.21</ele>
        <time>2021-08-13T13:51:43Z</time>
      </trkpt>
      <trkpt lat="46.63238" lon="3.34438">
        <ele>258.73</ele>
        <time>2021-08-13T13:51:51Z</time>
      </trkpt>
      <trkpt lat="46.6324" lon="3.34365">
        <ele>257.77</ele>
        <time>2021-08-13T13:52:00Z</time>
      </trkpt>
      <trkpt lat="46.63242" lon="3.34277">
        <ele>256.81</ele>
        <time>2021-08-13T13:52:10Z</time>
      </trkpt>
      <trkpt lat="46.63244" lon="3.34201">
        <ele>256.33</ele>
        <time>2021-08-13T13:52:19Z</time>
      </trkpt>
      <trkpt lat="46.63244" lon="3.34167">
        <ele>255.85</ele>
        <time>2021-08-13T13:52:23Z</time>
      </trkpt>
      <trkpt lat="46.63245" lon="3.34098">
        <ele>254.89</ele>
        <time>2021-08-13T13:52:31Z</time>
      </trkpt>
      <trkpt lat="46.63245" lon="3.3404">
        <ele>253.93</ele>
        <time>2021-08-13T13:52:38Z</time>
      </trkpt>
      <trkpt lat="46.63245" lon="3.33974">
        <ele>253.93</ele>
        <time>2021-08-13T13:52:46Z</time>
      </trkpt>
      <trkpt lat="46.63245" lon="3.33959">
        <ele>253.44</ele>
        <time>2021-08-13T13:52:48Z</time>
      </trkpt>
      <trkpt lat="46.63245" lon="3.33899">
        <ele>253.44</ele>
        <time>2021-08-13T13:52:55Z</time>
      </trkpt>
      <trkpt lat="46.63243" lon="3.33827">
        <ele>252.48</ele>
        <time>2021-08-13T13:53:04Z</time>
      </trkpt>
      <trkpt lat="46.63242" lon="3.33781">
        <ele>252</ele>
        <time>2021-08-13T13:53:11Z</time>
      </trkpt>
      <trkpt lat="46.63241" lon="3.3377">
        <ele>252</ele>
        <time>2021-08-13T13:53:13Z</time>
      </trkpt>
      <trkpt lat="46.6324" lon="3.33765">
        <ele>252</ele>
        <time>2021-08-13T13:53:14Z</time>
      </trkpt>
      <trkpt lat="46.63235" lon="3.33754">
        <ele>251.52</ele>
        <time>2021-08-13T13:53:16Z</time>
      </trkpt>
      <trkpt lat="46.63208" lon="3.3369">
        <ele>251.52</ele>
        <time>2021-08-13T13:53:27Z</time>
      </trkpt>
      <trkpt lat="46.63179" lon="3.3363">
        <ele>250.56</ele>
        <time>2021-08-13T13:53:38Z</time>
      </trkpt>
      <trkpt lat="46.6315" lon="3.33571">
        <ele>249.6</ele>
        <time>2021-08-13T13:53:47Z</time>
      </trkpt>
      <trkpt lat="46.63123" lon="3.33513">
        <ele>249.6</ele>
        <time>2021-08-13T13:53:56Z</time>
      </trkpt>
      <trkpt lat="46.63113" lon="3.33494">
        <ele>249.6</ele>
        <time>2021-08-13T13:53:59Z</time>
      </trkpt>
      <trkpt lat="46.63085" lon="3.33435">
        <ele>249.12</ele>
        <time>2021-08-13T13:54:08Z</time>
      </trkpt>
      <trkpt lat="46.63056" lon="3.33379">
        <ele>249.12</ele>
        <time>2021-08-13T13:54:16Z</time>
      </trkpt>
      <trkpt lat="46.6303" lon="3.33324">
        <ele>248.64</ele>
        <time>2021-08-13T13:54:25Z</time>
      </trkpt>
      <trkpt lat="46.63002" lon="3.33269">
        <ele>247.68</ele>
        <time>2021-08-13T13:54:33Z</time>
      </trkpt>
      <trkpt lat="46.62962" lon="3.33185">
        <ele>246.23</ele>
        <time>2021-08-13T13:54:44Z</time>
      </trkpt>
      <trkpt lat="46.62932" lon="3.33124">
        <ele>245.75</ele>
        <time>2021-08-13T13:54:52Z</time>
      </trkpt>
      <trkpt lat="46.62903" lon="3.33062">
        <ele>245.27</ele>
        <time>2021-08-13T13:55:01Z</time>
      </trkpt>
      <trkpt lat="46.62876" lon="3.33008">
        <ele>244.79</ele>
        <time>2021-08-13T13:55:09Z</time>
      </trkpt>
      <trkpt lat="46.62857" lon="3.32955">
        <ele>244.79</ele>
        <time>2021-08-13T13:55:16Z</time>
      </trkpt>
      <trkpt lat="46.62841" lon="3.32908">
        <ele>244.31</ele>
        <time>2021-08-13T13:55:23Z</time>
      </trkpt>
      <trkpt lat="46.62826" lon="3.3286">
        <ele>243.83</ele>
        <time>2021-08-13T13:55:30Z</time>
      </trkpt>
      <trkpt lat="46.62824" lon="3.32853">
        <ele>243.83</ele>
        <time>2021-08-13T13:55:31Z</time>
      </trkpt>
      <trkpt lat="46.62822" lon="3.32845">
        <ele>243.83</ele>
        <time>2021-08-13T13:55:32Z</time>
      </trkpt>
      <trkpt lat="46.62818" lon="3.32832">
        <ele>243.83</ele>
        <time>2021-08-13T13:55:34Z</time>
      </trkpt>
      <trkpt lat="46.62804" lon="3.32789">
        <ele>243.35</ele>
        <time>2021-08-13T13:55:41Z</time>
      </trkpt>
      <trkpt lat="46.62785" lon="3.32732">
        <ele>242.87</ele>
        <time>2021-08-13T13:55:49Z</time>
      </trkpt>
      <trkpt lat="46.62777" lon="3.32707">
        <ele>242.87</ele>
        <time>2021-08-13T13:55:53Z</time>
      </trkpt>
      <trkpt lat="46.62775" lon="3.32701">
        <ele>242.87</ele>
        <time>2021-08-13T13:55:54Z</time>
      </trkpt>
      <trkpt lat="46.62761" lon="3.32647">
        <ele>242.39</ele>
        <time>2021-08-13T13:56:02Z</time>
      </trkpt>
      <trkpt lat="46.62752" lon="3.3257">
        <ele>242.39</ele>
        <time>2021-08-13T13:56:12Z</time>
      </trkpt>
      <trkpt lat="46.62749" lon="3.32533">
        <ele>242.39</ele>
        <time>2021-08-13T13:56:17Z</time>
      </trkpt>
      <trkpt lat="46.62748" lon="3.32526">
        <ele>242.39</ele>
        <time>2021-08-13T13:56:18Z</time>
      </trkpt>
      <trkpt lat="46.62739" lon="3.32458">
        <ele>241.91</ele>
        <time>2021-08-13T13:56:27Z</time>
      </trkpt>
      <trkpt lat="46.62732" lon="3.32401">
        <ele>241.91</ele>
        <time>2021-08-13T13:56:35Z</time>
      </trkpt>
      <trkpt lat="46.62729" lon="3.32395">
        <ele>241.91</ele>
        <time>2021-08-13T13:56:36Z</time>
      </trkpt>
      <trkpt lat="46.62725" lon="3.32392">
        <ele>241.91</ele>
        <time>2021-08-13T13:56:37Z</time>
      </trkpt>
      <trkpt lat="46.62721" lon="3.3239">
        <ele>241.91</ele>
        <time>2021-08-13T13:56:38Z</time>
      </trkpt>
      <trkpt lat="46.62716" lon="3.3239">
        <ele>241.91</ele>
        <time>2021-08-13T13:56:39Z</time>
      </trkpt>
      <trkpt lat="46.62711" lon="3.32391">
        <ele>241.91</ele>
        <time>2021-08-13T13:56:40Z</time>
      </trkpt>
      <trkpt lat="46.62706" lon="3.32392">
        <ele>241.91</ele>
        <time>2021-08-13T13:56:41Z</time>
      </trkpt>
      <trkpt lat="46.62665" lon="3.32399">
        <ele>241.91</ele>
        <time>2021-08-13T13:56:50Z</time>
      </trkpt>
      <trkpt lat="46.62648" lon="3.32388">
        <ele>241.91</ele>
        <time>2021-08-13T13:56:55Z</time>
      </trkpt>
      <trkpt lat="46.62647" lon="3.32383">
        <ele>241.91</ele>
        <time>2021-08-13T13:56:56Z</time>
      </trkpt>
      <trkpt lat="46.62646" lon="3.32379">
        <ele>241.91</ele>
        <time>2021-08-13T13:56:57Z</time>
      </trkpt>
      <trkpt lat="46.62646" lon="3.32374">
        <ele>241.91</ele>
        <time>2021-08-13T13:56:58Z</time>
      </trkpt>
      <trkpt lat="46.62646" lon="3.32368">
        <ele>241.91</ele>
        <time>2021-08-13T13:56:59Z</time>
      </trkpt>
      <trkpt lat="46.62647" lon="3.32362">
        <ele>241.91</ele>
        <time>2021-08-13T13:57:00Z</time>
      </trkpt>
      <trkpt lat="46.62647" lon="3.32357">
        <ele>241.91</ele>
        <time>2021-08-13T13:57:01Z</time>
      </trkpt>
      <trkpt lat="46.62649" lon="3.32313">
        <ele>241.91</ele>
        <time>2021-08-13T13:57:09Z</time>
      </trkpt>
      <trkpt lat="46.6265" lon="3.32258">
        <ele>241.91</ele>
        <time>2021-08-13T13:57:18Z</time>
      </trkpt>
      <trkpt lat="46.6265" lon="3.32252">
        <ele>241.91</ele>
        <time>2021-08-13T13:57:19Z</time>
      </trkpt>
      <trkpt lat="46.62651" lon="3.32246">
        <ele>241.91</ele>
        <time>2021-08-13T13:57:20Z</time>
      </trkpt>
      <trkpt lat="46.62653" lon="3.32196">
        <ele>241.91</ele>
        <time>2021-08-13T13:57:28Z</time>
      </trkpt>
      <trkpt lat="46.62655" lon="3.32146">
        <ele>241.91</ele>
        <time>2021-08-13T13:57:36Z</time>
      </trkpt>
      <trkpt lat="46.62657" lon="3.32091">
        <ele>241.91</ele>
        <time>2021-08-13T13:57:44Z</time>
      </trkpt>
      <trkpt lat="46.62657" lon="3.32068">
        <ele>241.43</ele>
        <time>2021-08-13T13:57:47Z</time>
      </trkpt>
      <trkpt lat="46.62657" lon="3.3206">
        <ele>241.43</ele>
        <time>2021-08-13T13:57:48Z</time>
      </trkpt>
      <trkpt lat="46.62661" lon="3.32006">
        <ele>241.43</ele>
        <time>2021-08-13T13:57:55Z</time>
      </trkpt>
      <trkpt lat="46.62671" lon="3.31948">
        <ele>241.43</ele>
        <time>2021-08-13T13:58:03Z</time>
      </trkpt>
      <trkpt lat="46.62682" lon="3.31874">
        <ele>240.95</ele>
        <time>2021-08-13T13:58:12Z</time>
      </trkpt>
      <trkpt lat="46.62684" lon="3.3185">
        <ele>240.95</ele>
        <time>2021-08-13T13:58:15Z</time>
      </trkpt>
      <trkpt lat="46.62683" lon="3.31842">
        <ele>240.95</ele>
        <time>2021-08-13T13:58:16Z</time>
      </trkpt>
      <trkpt lat="46.62682" lon="3.31835">
        <ele>240.95</ele>
        <time>2021-08-13T13:58:17Z</time>
      </trkpt>
      <trkpt lat="46.6268" lon="3.31829">
        <ele>240.95</ele>
        <time>2021-08-13T13:58:18Z</time>
      </trkpt>
      <trkpt lat="46.62676" lon="3.31824">
        <ele>240.95</ele>
        <time>2021-08-13T13:58:19Z</time>
      </trkpt>
      <trkpt lat="46.62672" lon="3.31822">
        <ele>240.95</ele>
        <time>2021-08-13T13:58:20Z</time>
      </trkpt>
      <trkpt lat="46.62666" lon="3.31821">
        <ele>240.95</ele>
        <time>2021-08-13T13:58:21Z</time>
      </trkpt>
      <trkpt lat="46.62662" lon="3.31823">
        <ele>240.95</ele>
        <time>2021-08-13T13:58:22Z</time>
      </trkpt>
      <trkpt lat="46.62658" lon="3.31826">
        <ele>240.95</ele>
        <time>2021-08-13T13:58:23Z</time>
      </trkpt>
      <trkpt lat="46.62654" lon="3.31829">
        <ele>240.95</ele>
        <time>2021-08-13T13:58:24Z</time>
      </trkpt>
      <trkpt lat="46.62634" lon="3.31843">
        <ele>240.95</ele>
        <time>2021-08-13T13:58:29Z</time>
      </trkpt>
      <trkpt lat="46.62626" lon="3.31848">
        <ele>240.95</ele>
        <time>2021-08-13T13:58:31Z</time>
      </trkpt>
      <trkpt lat="46.6259" lon="3.31865">
        <ele>242.39</ele>
        <time>2021-08-13T13:58:40Z</time>
      </trkpt>
      <trkpt lat="46.62561" lon="3.31879">
        <ele>242.39</ele>
        <time>2021-08-13T13:58:47Z</time>
      </trkpt>
      <trkpt lat="46.62558" lon="3.31881">
        <ele>242.39</ele>
        <time>2021-08-13T13:58:48Z</time>
      </trkpt>
      <trkpt lat="46.62553" lon="3.31884">
        <ele>242.39</ele>
        <time>2021-08-13T13:58:49Z</time>
      </trkpt>
      <trkpt lat="46.62508" lon="3.31906">
        <ele>242.39</ele>
        <time>2021-08-13T13:58:59Z</time>
      </trkpt>
      <trkpt lat="46.62485" lon="3.31919">
        <ele>242.39</ele>
        <time>2021-08-13T13:59:04Z</time>
      </trkpt>
      <trkpt lat="46.62439" lon="3.31944">
        <ele>241.91</ele>
        <time>2021-08-13T13:59:13Z</time>
      </trkpt>
      <trkpt lat="46.624" lon="3.31965">
        <ele>241.91</ele>
        <time>2021-08-13T13:59:21Z</time>
      </trkpt>
      <trkpt lat="46.62395" lon="3.31968">
        <ele>241.91</ele>
        <time>2021-08-13T13:59:22Z</time>
      </trkpt>
      <trkpt lat="46.6235" lon="3.3199">
        <ele>241.91</ele>
        <time>2021-08-13T13:59:31Z</time>
      </trkpt>
      <trkpt lat="46.62346" lon="3.31993">
        <ele>241.91</ele>
        <time>2021-08-13T13:59:32Z</time>
      </trkpt>
      <trkpt lat="46.62328" lon="3.32009">
        <ele>241.91</ele>
        <time>2021-08-13T13:59:36Z</time>
      </trkpt>
      <trkpt lat="46.62321" lon="3.32019">
        <ele>241.91</ele>
        <time>2021-08-13T13:59:38Z</time>
      </trkpt>
      <trkpt lat="46.62307" lon="3.3204">
        <ele>240.95</ele>
        <time>2021-08-13T13:59:42Z</time>
      </trkpt>
      <trkpt lat="46.62279" lon="3.3209">
        <ele>239.99</ele>
        <time>2021-08-13T13:59:50Z</time>
      </trkpt>
      <trkpt lat="46.62276" lon="3.32097">
        <ele>239.99</ele>
        <time>2021-08-13T13:59:51Z</time>
      </trkpt>
      <trkpt lat="46.62273" lon="3.32104">
        <ele>239.99</ele>
        <time>2021-08-13T13:59:52Z</time>
      </trkpt>
      <trkpt lat="46.62251" lon="3.32166">
        <ele>239.51</ele>
        <time>2021-08-13T14:00:01Z</time>
      </trkpt>
      <trkpt lat="46.62245" lon="3.32176">
        <ele>239.51</ele>
        <time>2021-08-13T14:00:03Z</time>
      </trkpt>
      <trkpt lat="46.62231" lon="3.32194">
        <ele>240.95</ele>
        <time>2021-08-13T14:00:07Z</time>
      </trkpt>
      <trkpt lat="46.62227" lon="3.32197">
        <ele>240.95</ele>
        <time>2021-08-13T14:00:08Z</time>
      </trkpt>
      <trkpt lat="46.62223" lon="3.322">
        <ele>240.95</ele>
        <time>2021-08-13T14:00:09Z</time>
      </trkpt>
      <trkpt lat="46.62216" lon="3.32206">
        <ele>237.58</ele>
        <time>2021-08-13T14:00:11Z</time>
      </trkpt>
      <trkpt lat="46.62183" lon="3.32227">
        <ele>238.54</ele>
        <time>2021-08-13T14:00:17Z</time>
      </trkpt>
      <trkpt lat="46.6217" lon="3.32233">
        <ele>237.58</ele>
        <time>2021-08-13T14:00:19Z</time>
      </trkpt>
      <trkpt lat="46.62138" lon="3.3224">
        <ele>237.58</ele>
        <time>2021-08-13T14:00:24Z</time>
      </trkpt>
      <trkpt lat="46.62131" lon="3.32239">
        <ele>237.1</ele>
        <time>2021-08-13T14:00:25Z</time>
      </trkpt>
      <trkpt lat="46.62114" lon="3.32233">
        <ele>237.1</ele>
        <time>2021-08-13T14:00:28Z</time>
      </trkpt>
      <trkpt lat="46.6211" lon="3.3223">
        <ele>237.1</ele>
        <time>2021-08-13T14:00:29Z</time>
      </trkpt>
      <trkpt lat="46.62105" lon="3.32226">
        <ele>237.1</ele>
        <time>2021-08-13T14:00:30Z</time>
      </trkpt>
      <trkpt lat="46.62101" lon="3.32222">
        <ele>237.1</ele>
        <time>2021-08-13T14:00:31Z</time>
      </trkpt>
      <trkpt lat="46.62097" lon="3.32219">
        <ele>237.1</ele>
        <time>2021-08-13T14:00:32Z</time>
      </trkpt>
      <trkpt lat="46.62065" lon="3.32186">
        <ele>237.1</ele>
        <time>2021-08-13T14:00:40Z</time>
      </trkpt>
      <trkpt lat="46.62031" lon="3.32147">
        <ele>236.14</ele>
        <time>2021-08-13T14:00:48Z</time>
      </trkpt>
      <trkpt lat="46.62026" lon="3.32143">
        <ele>235.66</ele>
        <time>2021-08-13T14:00:49Z</time>
      </trkpt>
      <trkpt lat="46.61994" lon="3.32126">
        <ele>234.7</ele>
        <time>2021-08-13T14:00:54Z</time>
      </trkpt>
      <trkpt lat="46.61987" lon="3.32125">
        <ele>234.22</ele>
        <time>2021-08-13T14:00:55Z</time>
      </trkpt>
      <trkpt lat="46.6198" lon="3.32127">
        <ele>234.22</ele>
        <time>2021-08-13T14:00:56Z</time>
      </trkpt>
      <trkpt lat="46.61966" lon="3.32133">
        <ele>232.78</ele>
        <time>2021-08-13T14:00:58Z</time>
      </trkpt>
      <trkpt lat="46.61951" lon="3.32145">
        <ele>232.3</ele>
        <time>2021-08-13T14:01:00Z</time>
      </trkpt>
      <trkpt lat="46.61944" lon="3.32152">
        <ele>231.81</ele>
        <time>2021-08-13T14:01:01Z</time>
      </trkpt>
      <trkpt lat="46.61937" lon="3.32161">
        <ele>231.33</ele>
        <time>2021-08-13T14:01:02Z</time>
      </trkpt>
      <trkpt lat="46.61932" lon="3.32169">
        <ele>231.33</ele>
        <time>2021-08-13T14:01:03Z</time>
      </trkpt>
      <trkpt lat="46.61926" lon="3.32178">
        <ele>230.85</ele>
        <time>2021-08-13T14:01:04Z</time>
      </trkpt>
      <trkpt lat="46.61909" lon="3.32205">
        <ele>230.37</ele>
        <time>2021-08-13T14:01:07Z</time>
      </trkpt>
      <trkpt lat="46.61903" lon="3.32213">
        <ele>229.89</ele>
        <time>2021-08-13T14:01:08Z</time>
      </trkpt>
      <trkpt lat="46.61896" lon="3.32218">
        <ele>229.41</ele>
        <time>2021-08-13T14:01:09Z</time>
      </trkpt>
      <trkpt lat="46.61889" lon="3.32222">
        <ele>229.41</ele>
        <time>2021-08-13T14:01:10Z</time>
      </trkpt>
      <trkpt lat="46.61881" lon="3.32225">
        <ele>229.41</ele>
        <time>2021-08-13T14:01:11Z</time>
      </trkpt>
      <trkpt lat="46.61874" lon="3.32226">
        <ele>229.41</ele>
        <time>2021-08-13T14:01:12Z</time>
      </trkpt>
      <trkpt lat="46.61868" lon="3.32227">
        <ele>229.89</ele>
        <time>2021-08-13T14:01:13Z</time>
      </trkpt>
      <trkpt lat="46.61861" lon="3.32228">
        <ele>229.89</ele>
        <time>2021-08-13T14:01:14Z</time>
      </trkpt>
      <trkpt lat="46.61854" lon="3.32228">
        <ele>229.89</ele>
        <time>2021-08-13T14:01:15Z</time>
      </trkpt>
      <trkpt lat="46.6181" lon="3.32229">
        <ele>231.33</ele>
        <time>2021-08-13T14:01:23Z</time>
      </trkpt>
      <trkpt lat="46.61782" lon="3.3223">
        <ele>232.78</ele>
        <time>2021-08-13T14:01:30Z</time>
      </trkpt>
      <trkpt lat="46.6176" lon="3.3223">
        <ele>234.22</ele>
        <time>2021-08-13T14:01:38Z</time>
      </trkpt>
      <trkpt lat="46.61746" lon="3.3223">
        <ele>234.7</ele>
        <time>2021-08-13T14:01:44Z</time>
      </trkpt>
      <trkpt lat="46.61738" lon="3.32228">
        <ele>235.18</ele>
        <time>2021-08-13T14:01:48Z</time>
      </trkpt>
      <trkpt lat="46.61735" lon="3.32229">
        <ele>235.66</ele>
        <time>2021-08-13T14:01:49Z</time>
      </trkpt>
      <trkpt lat="46.61733" lon="3.32229">
        <ele>235.66</ele>
        <time>2021-08-13T14:01:50Z</time>
      </trkpt>
      <trkpt lat="46.61731" lon="3.3223">
        <ele>235.66</ele>
        <time>2021-08-13T14:01:51Z</time>
      </trkpt>
      <trkpt lat="46.61729" lon="3.3223">
        <ele>236.14</ele>
        <time>2021-08-13T14:01:52Z</time>
      </trkpt>
      <trkpt lat="46.61727" lon="3.3223">
        <ele>236.14</ele>
        <time>2021-08-13T14:01:53Z</time>
      </trkpt>
      <trkpt lat="46.61724" lon="3.3223">
        <ele>236.14</ele>
        <time>2021-08-13T14:01:54Z</time>
      </trkpt>
      <trkpt lat="46.61722" lon="3.3223">
        <ele>236.14</ele>
        <time>2021-08-13T14:01:55Z</time>
      </trkpt>
      <trkpt lat="46.61707" lon="3.3223">
        <ele>237.58</ele>
        <time>2021-08-13T14:02:03Z</time>
      </trkpt>
      <trkpt lat="46.61685" lon="3.32229">
        <ele>239.02</ele>
        <time>2021-08-13T14:02:13Z</time>
      </trkpt>
      <trkpt lat="46.61664" lon="3.32228">
        <ele>239.99</ele>
        <time>2021-08-13T14:02:21Z</time>
      </trkpt>
      <trkpt lat="46.61644" lon="3.32228">
        <ele>240.95</ele>
        <time>2021-08-13T14:02:28Z</time>
      </trkpt>
      <trkpt lat="46.61615" lon="3.32228">
        <ele>241.91</ele>
        <time>2021-08-13T14:02:38Z</time>
      </trkpt>
      <trkpt lat="46.61586" lon="3.32229">
        <ele>242.87</ele>
        <time>2021-08-13T14:02:47Z</time>
      </trkpt>
      <trkpt lat="46.61559" lon="3.3223">
        <ele>243.35</ele>
        <time>2021-08-13T14:02:55Z</time>
      </trkpt>
      <trkpt lat="46.61529" lon="3.32231">
        <ele>244.31</ele>
        <time>2021-08-13T14:03:04Z</time>
      </trkpt>
      <trkpt lat="46.61517" lon="3.32232">
        <ele>244.31</ele>
        <time>2021-08-13T14:03:08Z</time>
      </trkpt>
      <trkpt lat="46.61506" lon="3.32233">
        <ele>244.79</ele>
        <time>2021-08-13T14:03:11Z</time>
      </trkpt>
      <trkpt lat="46.61502" lon="3.32234">
        <ele>244.79</ele>
        <time>2021-08-13T14:03:12Z</time>
      </trkpt>
      <trkpt lat="46.61466" lon="3.32238">
        <ele>245.75</ele>
        <time>2021-08-13T14:03:22Z</time>
      </trkpt>
      <trkpt lat="46.61429" lon="3.32242">
        <ele>246.23</ele>
        <time>2021-08-13T14:03:32Z</time>
      </trkpt>
      <trkpt lat="46.61397" lon="3.32248">
        <ele>246.72</ele>
        <time>2021-08-13T14:03:40Z</time>
      </trkpt>
      <trkpt lat="46.61363" lon="3.32256">
        <ele>247.68</ele>
        <time>2021-08-13T14:03:49Z</time>
      </trkpt>
      <trkpt lat="46.61331" lon="3.32263">
        <ele>248.16</ele>
        <time>2021-08-13T14:03:57Z</time>
      </trkpt>
      <trkpt lat="46.61293" lon="3.32271">
        <ele>248.64</ele>
        <time>2021-08-13T14:04:06Z</time>
      </trkpt>
      <trkpt lat="46.61276" lon="3.32276">
        <ele>249.12</ele>
        <time>2021-08-13T14:04:10Z</time>
      </trkpt>
      <trkpt lat="46.61237" lon="3.32285">
        <ele>249.12</ele>
        <time>2021-08-13T14:04:19Z</time>
      </trkpt>
      <trkpt lat="46.61208" lon="3.32292">
        <ele>249.12</ele>
        <time>2021-08-13T14:04:27Z</time>
      </trkpt>
      <trkpt lat="46.61174" lon="3.32302">
        <ele>249.6</ele>
        <time>2021-08-13T14:04:35Z</time>
      </trkpt>
      <trkpt lat="46.61131" lon="3.32314">
        <ele>249.6</ele>
        <time>2021-08-13T14:04:45Z</time>
      </trkpt>
      <trkpt lat="46.61081" lon="3.32329">
        <ele>249.6</ele>
        <time>2021-08-13T14:04:55Z</time>
      </trkpt>
      <trkpt lat="46.61028" lon="3.32344">
        <ele>249.6</ele>
        <time>2021-08-13T14:05:05Z</time>
      </trkpt>
      <trkpt lat="46.60979" lon="3.32358">
        <ele>248.64</ele>
        <time>2021-08-13T14:05:14Z</time>
      </trkpt>
      <trkpt lat="46.60917" lon="3.32381">
        <ele>248.16</ele>
        <time>2021-08-13T14:05:25Z</time>
      </trkpt>
      <trkpt lat="46.60874" lon="3.324">
        <ele>248.16</ele>
        <time>2021-08-13T14:05:33Z</time>
      </trkpt>
      <trkpt lat="46.60829" lon="3.32418">
        <ele>247.68</ele>
        <time>2021-08-13T14:05:41Z</time>
      </trkpt>
      <trkpt lat="46.608" lon="3.3243">
        <ele>247.2</ele>
        <time>2021-08-13T14:05:46Z</time>
      </trkpt>
      <trkpt lat="46.60795" lon="3.32431">
        <ele>247.2</ele>
        <time>2021-08-13T14:05:47Z</time>
      </trkpt>
      <trkpt lat="46.60783" lon="3.32433">
        <ele>247.2</ele>
        <time>2021-08-13T14:05:49Z</time>
      </trkpt>
      <trkpt lat="46.60748" lon="3.32441">
        <ele>246.23</ele>
        <time>2021-08-13T14:05:55Z</time>
      </trkpt>
      <trkpt lat="46.60701" lon="3.32453">
        <ele>243.35</ele>
        <time>2021-08-13T14:06:02Z</time>
      </trkpt>
      <trkpt lat="46.60645" lon="3.32464">
        <ele>239.99</ele>
        <time>2021-08-13T14:06:09Z</time>
      </trkpt>
      <trkpt lat="46.60585" lon="3.32482">
        <ele>239.02</ele>
        <time>2021-08-13T14:06:16Z</time>
      </trkpt>
      <trkpt lat="46.60544" lon="3.32513">
        <ele>239.02</ele>
        <time>2021-08-13T14:06:22Z</time>
      </trkpt>
      <trkpt lat="46.60512" lon="3.32537">
        <ele>239.02</ele>
        <time>2021-08-13T14:06:28Z</time>
      </trkpt>
      <trkpt lat="46.60507" lon="3.32539">
        <ele>239.02</ele>
        <time>2021-08-13T14:06:29Z</time>
      </trkpt>
      <trkpt lat="46.60502" lon="3.32541">
        <ele>239.02</ele>
        <time>2021-08-13T14:06:30Z</time>
      </trkpt>
      <trkpt lat="46.60497" lon="3.32544">
        <ele>239.02</ele>
        <time>2021-08-13T14:06:31Z</time>
      </trkpt>
      <trkpt lat="46.60492" lon="3.32546">
        <ele>239.02</ele>
        <time>2021-08-13T14:06:32Z</time>
      </trkpt>
      <trkpt lat="46.60487" lon="3.3255">
        <ele>239.02</ele>
        <time>2021-08-13T14:06:33Z</time>
      </trkpt>
      <trkpt lat="46.60436" lon="3.32587">
        <ele>239.02</ele>
        <time>2021-08-13T14:06:43Z</time>
      </trkpt>
      <trkpt lat="46.60391" lon="3.32625">
        <ele>238.06</ele>
        <time>2021-08-13T14:06:52Z</time>
      </trkpt>
      <trkpt lat="46.60357" lon="3.32667">
        <ele>236.62</ele>
        <time>2021-08-13T14:07:00Z</time>
      </trkpt>
      <trkpt lat="46.60323" lon="3.32714">
        <ele>236.62</ele>
        <time>2021-08-13T14:07:09Z</time>
      </trkpt>
      <trkpt lat="46.6029" lon="3.32757">
        <ele>236.62</ele>
        <time>2021-08-13T14:07:17Z</time>
      </trkpt>
      <trkpt lat="46.60261" lon="3.32786">
        <ele>236.62</ele>
        <time>2021-08-13T14:07:24Z</time>
      </trkpt>
      <trkpt lat="46.60216" lon="3.32819">
        <ele>236.62</ele>
        <time>2021-08-13T14:07:34Z</time>
      </trkpt>
      <trkpt lat="46.60188" lon="3.32842">
        <ele>237.58</ele>
        <time>2021-08-13T14:07:41Z</time>
      </trkpt>
      <trkpt lat="46.6017" lon="3.32857">
        <ele>238.54</ele>
        <time>2021-08-13T14:07:46Z</time>
      </trkpt>
      <trkpt lat="46.60166" lon="3.32857">
        <ele>238.54</ele>
        <time>2021-08-13T14:07:47Z</time>
      </trkpt>
      <trkpt lat="46.60163" lon="3.32854">
        <ele>238.54</ele>
        <time>2021-08-13T14:07:48Z</time>
      </trkpt>
      <trkpt lat="46.60157" lon="3.32847">
        <ele>238.54</ele>
        <time>2021-08-13T14:07:50Z</time>
      </trkpt>
      <trkpt lat="46.60127" lon="3.32802">
        <ele>238.06</ele>
        <time>2021-08-13T14:07:59Z</time>
      </trkpt>
      <trkpt lat="46.60124" lon="3.32797">
        <ele>238.06</ele>
        <time>2021-08-13T14:08:00Z</time>
      </trkpt>
      <trkpt lat="46.60121" lon="3.3279">
        <ele>238.06</ele>
        <time>2021-08-13T14:08:01Z</time>
      </trkpt>
      <trkpt lat="46.60119" lon="3.32785">
        <ele>238.06</ele>
        <time>2021-08-13T14:08:02Z</time>
      </trkpt>
      <trkpt lat="46.60097" lon="3.3274">
        <ele>237.1</ele>
        <time>2021-08-13T14:08:09Z</time>
      </trkpt>
      <trkpt lat="46.60067" lon="3.32679">
        <ele>236.14</ele>
        <time>2021-08-13T14:08:18Z</time>
      </trkpt>
      <trkpt lat="46.60035" lon="3.32609">
        <ele>235.66</ele>
        <time>2021-08-13T14:08:27Z</time>
      </trkpt>
      <trkpt lat="46.59999" lon="3.32522">
        <ele>234.7</ele>
        <time>2021-08-13T14:08:37Z</time>
      </trkpt>
      <trkpt lat="46.59968" lon="3.32438">
        <ele>234.22</ele>
        <time>2021-08-13T14:08:47Z</time>
      </trkpt>
      <trkpt lat="46.59934" lon="3.32357">
        <ele>233.74</ele>
        <time>2021-08-13T14:08:57Z</time>
      </trkpt>
      <trkpt lat="46.59898" lon="3.32292">
        <ele>233.26</ele>
        <time>2021-08-13T14:09:07Z</time>
      </trkpt>
      <trkpt lat="46.59885" lon="3.3227">
        <ele>233.26</ele>
        <time>2021-08-13T14:09:10Z</time>
      </trkpt>
      <trkpt lat="46.59877" lon="3.32257">
        <ele>233.26</ele>
        <time>2021-08-13T14:09:13Z</time>
      </trkpt>
      <trkpt lat="46.59875" lon="3.32251">
        <ele>233.26</ele>
        <time>2021-08-13T14:09:14Z</time>
      </trkpt>
      <trkpt lat="46.59851" lon="3.32205">
        <ele>233.26</ele>
        <time>2021-08-13T14:09:22Z</time>
      </trkpt>
      <trkpt lat="46.5984" lon="3.32183">
        <ele>233.26</ele>
        <time>2021-08-13T14:09:26Z</time>
      </trkpt>
      <trkpt lat="46.59836" lon="3.32174">
        <ele>233.26</ele>
        <time>2021-08-13T14:09:27Z</time>
      </trkpt>
      <trkpt lat="46.59814" lon="3.32131">
        <ele>233.26</ele>
        <time>2021-08-13T14:09:35Z</time>
      </trkpt>
      <trkpt lat="46.59792" lon="3.32093">
        <ele>233.26</ele>
        <time>2021-08-13T14:09:42Z</time>
      </trkpt>
      <trkpt lat="46.59788" lon="3.3208">
        <ele>233.26</ele>
        <time>2021-08-13T14:09:44Z</time>
      </trkpt>
      <trkpt lat="46.59757" lon="3.32013">
        <ele>233.26</ele>
        <time>2021-08-13T14:09:55Z</time>
      </trkpt>
      <trkpt lat="46.59749" lon="3.31997">
        <ele>233.26</ele>
        <time>2021-08-13T14:09:58Z</time>
      </trkpt>
      <trkpt lat="46.59747" lon="3.31992">
        <ele>233.26</ele>
        <time>2021-08-13T14:09:59Z</time>
      </trkpt>
      <trkpt lat="46.59744" lon="3.31987">
        <ele>233.26</ele>
        <time>2021-08-13T14:10:00Z</time>
      </trkpt>
      <trkpt lat="46.59722" lon="3.31947">
        <ele>233.26</ele>
        <time>2021-08-13T14:10:09Z</time>
      </trkpt>
      <trkpt lat="46.597" lon="3.31905">
        <ele>234.22</ele>
        <time>2021-08-13T14:10:18Z</time>
      </trkpt>
      <trkpt lat="46.59667" lon="3.31845">
        <ele>232.78</ele>
        <time>2021-08-13T14:10:30Z</time>
      </trkpt>
      <trkpt lat="46.59642" lon="3.318">
        <ele>232.78</ele>
        <time>2021-08-13T14:10:39Z</time>
      </trkpt>
      <trkpt lat="46.59618" lon="3.31756">
        <ele>232.3</ele>
        <time>2021-08-13T14:10:48Z</time>
      </trkpt>
      <trkpt lat="46.59617" lon="3.31754">
        <ele>232.3</ele>
        <time>2021-08-13T14:10:53Z</time>
      </trkpt>
      <trkpt lat="46.59617" lon="3.31754">
        <ele>232.3</ele>
        <time>2021-08-13T14:11:12Z</time>
      </trkpt>
      <trkpt lat="46.59614" lon="3.31755">
        <ele>232.3</ele>
        <time>2021-08-13T14:11:35Z</time>
      </trkpt>
      <trkpt lat="46.59613" lon="3.3175">
        <ele>232.3</ele>
        <time>2021-08-13T14:11:53Z</time>
      </trkpt>
      <trkpt lat="46.59602" lon="3.31725">
        <ele>232.3</ele>
        <time>2021-08-13T14:11:59Z</time>
      </trkpt>
      <trkpt lat="46.5958" lon="3.31683">
        <ele>231.81</ele>
        <time>2021-08-13T14:12:06Z</time>
      </trkpt>
      <trkpt lat="46.59546" lon="3.31615">
        <ele>230.37</ele>
        <time>2021-08-13T14:12:16Z</time>
      </trkpt>
      <trkpt lat="46.59528" lon="3.31583">
        <ele>230.37</ele>
        <time>2021-08-13T14:12:21Z</time>
      </trkpt>
      <trkpt lat="46.5952" lon="3.31566">
        <ele>231.81</ele>
        <time>2021-08-13T14:12:24Z</time>
      </trkpt>
      <trkpt lat="46.59498" lon="3.31531">
        <ele>233.26</ele>
        <time>2021-08-13T14:12:32Z</time>
      </trkpt>
      <trkpt lat="46.59479" lon="3.31509">
        <ele>233.74</ele>
        <time>2021-08-13T14:12:38Z</time>
      </trkpt>
      <trkpt lat="46.59476" lon="3.31505">
        <ele>233.74</ele>
        <time>2021-08-13T14:12:39Z</time>
      </trkpt>
      <trkpt lat="46.59443" lon="3.31471">
        <ele>233.74</ele>
        <time>2021-08-13T14:12:48Z</time>
      </trkpt>
      <trkpt lat="46.59407" lon="3.31435">
        <ele>232.3</ele>
        <time>2021-08-13T14:12:56Z</time>
      </trkpt>
      <trkpt lat="46.59375" lon="3.31398">
        <ele>228.93</ele>
        <time>2021-08-13T14:13:02Z</time>
      </trkpt>
      <trkpt lat="46.5935" lon="3.31365">
        <ele>227.01</ele>
        <time>2021-08-13T14:13:06Z</time>
      </trkpt>
      <trkpt lat="46.59334" lon="3.31339">
        <ele>227.01</ele>
        <time>2021-08-13T14:13:09Z</time>
      </trkpt>
      <trkpt lat="46.5933" lon="3.3133">
        <ele>226.53</ele>
        <time>2021-08-13T14:13:10Z</time>
      </trkpt>
      <trkpt lat="46.59319" lon="3.31304">
        <ele>226.53</ele>
        <time>2021-08-13T14:13:13Z</time>
      </trkpt>
      <trkpt lat="46.59315" lon="3.31299">
        <ele>226.53</ele>
        <time>2021-08-13T14:13:14Z</time>
      </trkpt>
      <trkpt lat="46.59309" lon="3.31297">
        <ele>226.53</ele>
        <time>2021-08-13T14:13:15Z</time>
      </trkpt>
      <trkpt lat="46.59304" lon="3.31299">
        <ele>226.53</ele>
        <time>2021-08-13T14:13:16Z</time>
      </trkpt>
      <trkpt lat="46.593" lon="3.31304">
        <ele>226.53</ele>
        <time>2021-08-13T14:13:17Z</time>
      </trkpt>
      <trkpt lat="46.59296" lon="3.31309">
        <ele>226.53</ele>
        <time>2021-08-13T14:13:18Z</time>
      </trkpt>
      <trkpt lat="46.5929" lon="3.31316">
        <ele>226.53</ele>
        <time>2021-08-13T14:13:19Z</time>
      </trkpt>
      <trkpt lat="46.59241" lon="3.31384">
        <ele>226.53</ele>
        <time>2021-08-13T14:13:30Z</time>
      </trkpt>
      <trkpt lat="46.59232" lon="3.31396">
        <ele>226.53</ele>
        <time>2021-08-13T14:13:32Z</time>
      </trkpt>
      <trkpt lat="46.59227" lon="3.31402">
        <ele>226.53</ele>
        <time>2021-08-13T14:13:33Z</time>
      </trkpt>
      <trkpt lat="46.59223" lon="3.31407">
        <ele>226.53</ele>
        <time>2021-08-13T14:13:34Z</time>
      </trkpt>
      <trkpt lat="46.59184" lon="3.31457">
        <ele>226.53</ele>
        <time>2021-08-13T14:13:43Z</time>
      </trkpt>
      <trkpt lat="46.59157" lon="3.31491">
        <ele>227.97</ele>
        <time>2021-08-13T14:13:50Z</time>
      </trkpt>
      <trkpt lat="46.59137" lon="3.31519">
        <ele>227.97</ele>
        <time>2021-08-13T14:13:56Z</time>
      </trkpt>
      <trkpt lat="46.59134" lon="3.31523">
        <ele>227.97</ele>
        <time>2021-08-13T14:13:57Z</time>
      </trkpt>
      <trkpt lat="46.59111" lon="3.31553">
        <ele>227.97</ele>
        <time>2021-08-13T14:14:04Z</time>
      </trkpt>
      <trkpt lat="46.59105" lon="3.31561">
        <ele>227.97</ele>
        <time>2021-08-13T14:14:06Z</time>
      </trkpt>
      <trkpt lat="46.59093" lon="3.31576">
        <ele>227.97</ele>
        <time>2021-08-13T14:14:10Z</time>
      </trkpt>
      <trkpt lat="46.5908" lon="3.31594">
        <ele>227.97</ele>
        <time>2021-08-13T14:14:14Z</time>
      </trkpt>
      <trkpt lat="46.59077" lon="3.31598">
        <ele>227.97</ele>
        <time>2021-08-13T14:14:15Z</time>
      </trkpt>
      <trkpt lat="46.59061" lon="3.31619">
        <ele>228.45</ele>
        <time>2021-08-13T14:14:20Z</time>
      </trkpt>
      <trkpt lat="46.59058" lon="3.31623">
        <ele>228.45</ele>
        <time>2021-08-13T14:14:21Z</time>
      </trkpt>
      <trkpt lat="46.59029" lon="3.31659">
        <ele>228.45</ele>
        <time>2021-08-13T14:14:30Z</time>
      </trkpt>
      <trkpt lat="46.59" lon="3.31697">
        <ele>227.97</ele>
        <time>2021-08-13T14:14:39Z</time>
      </trkpt>
      <trkpt lat="46.58997" lon="3.31702">
        <ele>227.97</ele>
        <time>2021-08-13T14:14:40Z</time>
      </trkpt>
      <trkpt lat="46.58994" lon="3.31706">
        <ele>227.97</ele>
        <time>2021-08-13T14:14:41Z</time>
      </trkpt>
      <trkpt lat="46.58967" lon="3.31741">
        <ele>227.97</ele>
        <time>2021-08-13T14:14:49Z</time>
      </trkpt>
      <trkpt lat="46.58943" lon="3.31773">
        <ele>227.97</ele>
        <time>2021-08-13T14:14:56Z</time>
      </trkpt>
      <trkpt lat="46.58939" lon="3.31777">
        <ele>227.97</ele>
        <time>2021-08-13T14:14:57Z</time>
      </trkpt>
      <trkpt lat="46.58922" lon="3.318">
        <ele>227.97</ele>
        <time>2021-08-13T14:15:02Z</time>
      </trkpt>
      <trkpt lat="46.58919" lon="3.31805">
        <ele>227.97</ele>
        <time>2021-08-13T14:15:03Z</time>
      </trkpt>
      <trkpt lat="46.58915" lon="3.31809">
        <ele>227.97</ele>
        <time>2021-08-13T14:15:04Z</time>
      </trkpt>
      <trkpt lat="46.58912" lon="3.31813">
        <ele>227.97</ele>
        <time>2021-08-13T14:15:05Z</time>
      </trkpt>
      <trkpt lat="46.58908" lon="3.31818">
        <ele>227.97</ele>
        <time>2021-08-13T14:15:06Z</time>
      </trkpt>
      <trkpt lat="46.58874" lon="3.31862">
        <ele>227.97</ele>
        <time>2021-08-13T14:15:16Z</time>
      </trkpt>
      <trkpt lat="46.5884" lon="3.31906">
        <ele>227.97</ele>
        <time>2021-08-13T14:15:26Z</time>
      </trkpt>
      <trkpt lat="46.58838" lon="3.31912">
        <ele>227.97</ele>
        <time>2021-08-13T14:15:27Z</time>
      </trkpt>
      <trkpt lat="46.58836" lon="3.31918">
        <ele>227.97</ele>
        <time>2021-08-13T14:15:28Z</time>
      </trkpt>
      <trkpt lat="46.58835" lon="3.31924">
        <ele>227.97</ele>
        <time>2021-08-13T14:15:29Z</time>
      </trkpt>
      <trkpt lat="46.58836" lon="3.3193">
        <ele>227.97</ele>
        <time>2021-08-13T14:15:30Z</time>
      </trkpt>
      <trkpt lat="46.58837" lon="3.31936">
        <ele>227.97</ele>
        <time>2021-08-13T14:15:31Z</time>
      </trkpt>
      <trkpt lat="46.58838" lon="3.31942">
        <ele>227.97</ele>
        <time>2021-08-13T14:15:32Z</time>
      </trkpt>
      <trkpt lat="46.5884" lon="3.31948">
        <ele>227.97</ele>
        <time>2021-08-13T14:15:33Z</time>
      </trkpt>
      <trkpt lat="46.58843" lon="3.3196">
        <ele>227.97</ele>
        <time>2021-08-13T14:15:35Z</time>
      </trkpt>
      <trkpt lat="46.58846" lon="3.31965">
        <ele>227.97</ele>
        <time>2021-08-13T14:15:36Z</time>
      </trkpt>
      <trkpt lat="46.58858" lon="3.31986">
        <ele>228.45</ele>
        <time>2021-08-13T14:15:41Z</time>
      </trkpt>
      <trkpt lat="46.58857" lon="3.3199">
        <ele>228.93</ele>
        <time>2021-08-13T14:15:42Z</time>
      </trkpt>
      <trkpt lat="46.58853" lon="3.31993">
        <ele>228.93</ele>
        <time>2021-08-13T14:15:43Z</time>
      </trkpt>
      <trkpt lat="46.5885" lon="3.31993">
        <ele>228.93</ele>
        <time>2021-08-13T14:15:44Z</time>
      </trkpt>
      <trkpt lat="46.58847" lon="3.31991">
        <ele>228.93</ele>
        <time>2021-08-13T14:15:45Z</time>
      </trkpt>
      <trkpt lat="46.58843" lon="3.31988">
        <ele>228.93</ele>
        <time>2021-08-13T14:15:46Z</time>
      </trkpt>
      <trkpt lat="46.58841" lon="3.31985">
        <ele>229.41</ele>
        <time>2021-08-13T14:15:47Z</time>
      </trkpt>
      <trkpt lat="46.58839" lon="3.31981">
        <ele>229.41</ele>
        <time>2021-08-13T14:15:48Z</time>
      </trkpt>
      <trkpt lat="46.58837" lon="3.31977">
        <ele>229.89</ele>
        <time>2021-08-13T14:15:49Z</time>
      </trkpt>
      <trkpt lat="46.58816" lon="3.31935">
        <ele>231.81</ele>
        <time>2021-08-13T14:15:59Z</time>
      </trkpt>
      <trkpt lat="46.58799" lon="3.31907">
        <ele>232.3</ele>
        <time>2021-08-13T14:16:06Z</time>
      </trkpt>
      <trkpt lat="46.58793" lon="3.31896">
        <ele>232.3</ele>
        <time>2021-08-13T14:16:08Z</time>
      </trkpt>
      <trkpt lat="46.58785" lon="3.31875">
        <ele>229.89</ele>
        <time>2021-08-13T14:16:11Z</time>
      </trkpt>
      <trkpt lat="46.5878" lon="3.31859">
        <ele>229.41</ele>
        <time>2021-08-13T14:16:13Z</time>
      </trkpt>
      <trkpt lat="46.58778" lon="3.3185">
        <ele>228.93</ele>
        <time>2021-08-13T14:16:14Z</time>
      </trkpt>
      <trkpt lat="46.58766" lon="3.31764">
        <ele>227.49</ele>
        <time>2021-08-13T14:16:23Z</time>
      </trkpt>
      <trkpt lat="46.58749" lon="3.31699">
        <ele>227.49</ele>
        <time>2021-08-13T14:16:31Z</time>
      </trkpt>
      <trkpt lat="46.58729" lon="3.31628">
        <ele>227.01</ele>
        <time>2021-08-13T14:16:41Z</time>
      </trkpt>
      <trkpt lat="46.58727" lon="3.31611">
        <ele>227.01</ele>
        <time>2021-08-13T14:16:46Z</time>
      </trkpt>
      <trkpt lat="46.58728" lon="3.31613">
        <ele>227.01</ele>
        <time>2021-08-13T14:16:58Z</time>
      </trkpt>
      <trkpt lat="46.58728" lon="3.31611">
        <ele>227.01</ele>
        <time>2021-08-13T14:17:00Z</time>
      </trkpt>
      <trkpt lat="46.58729" lon="3.31609">
        <ele>227.01</ele>
        <time>2021-08-13T14:17:01Z</time>
      </trkpt>
      <trkpt lat="46.5873" lon="3.31605">
        <ele>227.01</ele>
        <time>2021-08-13T14:17:02Z</time>
      </trkpt>
      <trkpt lat="46.5873" lon="3.316">
        <ele>227.01</ele>
        <time>2021-08-13T14:17:03Z</time>
      </trkpt>
      <trkpt lat="46.5873" lon="3.31596">
        <ele>227.01</ele>
        <time>2021-08-13T14:17:04Z</time>
      </trkpt>
      <trkpt lat="46.5873" lon="3.31589">
        <ele>227.01</ele>
        <time>2021-08-13T14:17:05Z</time>
      </trkpt>
      <trkpt lat="46.58728" lon="3.31585">
        <ele>227.01</ele>
        <time>2021-08-13T14:17:06Z</time>
      </trkpt>
      <trkpt lat="46.58726" lon="3.3158">
        <ele>227.01</ele>
        <time>2021-08-13T14:17:07Z</time>
      </trkpt>
      <trkpt lat="46.58722" lon="3.31577">
        <ele>227.01</ele>
        <time>2021-08-13T14:17:08Z</time>
      </trkpt>
      <trkpt lat="46.58717" lon="3.31577">
        <ele>227.01</ele>
        <time>2021-08-13T14:17:09Z</time>
      </trkpt>
      <trkpt lat="46.58713" lon="3.3158">
        <ele>227.01</ele>
        <time>2021-08-13T14:17:10Z</time>
      </trkpt>
      <trkpt lat="46.58709" lon="3.31585">
        <ele>227.01</ele>
        <time>2021-08-13T14:17:11Z</time>
      </trkpt>
      <trkpt lat="46.58705" lon="3.3159">
        <ele>227.01</ele>
        <time>2021-08-13T14:17:12Z</time>
      </trkpt>
      <trkpt lat="46.58702" lon="3.31596">
        <ele>227.01</ele>
        <time>2021-08-13T14:17:13Z</time>
      </trkpt>
      <trkpt lat="46.58699" lon="3.31601">
        <ele>226.53</ele>
        <time>2021-08-13T14:17:14Z</time>
      </trkpt>
      <trkpt lat="46.58695" lon="3.31606">
        <ele>226.53</ele>
        <time>2021-08-13T14:17:15Z</time>
      </trkpt>
      <trkpt lat="46.58685" lon="3.31614">
        <ele>226.53</ele>
        <time>2021-08-13T14:17:17Z</time>
      </trkpt>
      <trkpt lat="46.5868" lon="3.31617">
        <ele>226.53</ele>
        <time>2021-08-13T14:17:18Z</time>
      </trkpt>
      <trkpt lat="46.5863" lon="3.31655">
        <ele>226.05</ele>
        <time>2021-08-13T14:17:28Z</time>
      </trkpt>
      <trkpt lat="46.58581" lon="3.31693">
        <ele>226.05</ele>
        <time>2021-08-13T14:17:38Z</time>
      </trkpt>
      <trkpt lat="46.58534" lon="3.31729">
        <ele>225.57</ele>
        <time>2021-08-13T14:17:47Z</time>
      </trkpt>
      <trkpt lat="46.58489" lon="3.31763">
        <ele>225.09</ele>
        <time>2021-08-13T14:17:56Z</time>
      </trkpt>
      <trkpt lat="46.58446" lon="3.31795">
        <ele>224.61</ele>
        <time>2021-08-13T14:18:04Z</time>
      </trkpt>
      <trkpt lat="46.58414" lon="3.31819">
        <ele>224.12</ele>
        <time>2021-08-13T14:18:10Z</time>
      </trkpt>
      <trkpt lat="46.5839" lon="3.31834">
        <ele>224.12</ele>
        <time>2021-08-13T14:18:14Z</time>
      </trkpt>
      <trkpt lat="46.58378" lon="3.31837">
        <ele>223.16</ele>
        <time>2021-08-13T14:18:16Z</time>
      </trkpt>
      <trkpt lat="46.58372" lon="3.31842">
        <ele>223.16</ele>
        <time>2021-08-13T14:18:17Z</time>
      </trkpt>
      <trkpt lat="46.58334" lon="3.31883">
        <ele>222.68</ele>
        <time>2021-08-13T14:18:25Z</time>
      </trkpt>
      <trkpt lat="46.58274" lon="3.31929">
        <ele>222.68</ele>
        <time>2021-08-13T14:18:37Z</time>
      </trkpt>
      <trkpt lat="46.58237" lon="3.31959">
        <ele>224.12</ele>
        <time>2021-08-13T14:18:45Z</time>
      </trkpt>
      <trkpt lat="46.58232" lon="3.31962">
        <ele>224.12</ele>
        <time>2021-08-13T14:18:46Z</time>
      </trkpt>
      <trkpt lat="46.58185" lon="3.31999">
        <ele>225.09</ele>
        <time>2021-08-13T14:18:57Z</time>
      </trkpt>
      <trkpt lat="46.5815" lon="3.32026">
        <ele>226.05</ele>
        <time>2021-08-13T14:19:06Z</time>
      </trkpt>
      <trkpt lat="46.58135" lon="3.32039">
        <ele>226.05</ele>
        <time>2021-08-13T14:19:10Z</time>
      </trkpt>
      <trkpt lat="46.5813" lon="3.32041">
        <ele>226.05</ele>
        <time>2021-08-13T14:19:11Z</time>
      </trkpt>
      <trkpt lat="46.58126" lon="3.32044">
        <ele>226.05</ele>
        <time>2021-08-13T14:19:12Z</time>
      </trkpt>
      <trkpt lat="46.58123" lon="3.32047">
        <ele>226.53</ele>
        <time>2021-08-13T14:19:13Z</time>
      </trkpt>
      <trkpt lat="46.5812" lon="3.3205">
        <ele>226.53</ele>
        <time>2021-08-13T14:19:14Z</time>
      </trkpt>
      <trkpt lat="46.58116" lon="3.32055">
        <ele>226.53</ele>
        <time>2021-08-13T14:19:15Z</time>
      </trkpt>
      <trkpt lat="46.58113" lon="3.3206">
        <ele>226.53</ele>
        <time>2021-08-13T14:19:16Z</time>
      </trkpt>
      <trkpt lat="46.5811" lon="3.32065">
        <ele>226.53</ele>
        <time>2021-08-13T14:19:17Z</time>
      </trkpt>
      <trkpt lat="46.58102" lon="3.32082">
        <ele>226.05</ele>
        <time>2021-08-13T14:19:20Z</time>
      </trkpt>
      <trkpt lat="46.58068" lon="3.32131">
        <ele>226.05</ele>
        <time>2021-08-13T14:19:30Z</time>
      </trkpt>
      <trkpt lat="46.58026" lon="3.3219">
        <ele>226.05</ele>
        <time>2021-08-13T14:19:41Z</time>
      </trkpt>
      <trkpt lat="46.58013" lon="3.32209">
        <ele>224.61</ele>
        <time>2021-08-13T14:19:44Z</time>
      </trkpt>
      <trkpt lat="46.57975" lon="3.32265">
        <ele>223.64</ele>
        <time>2021-08-13T14:19:53Z</time>
      </trkpt>
      <trkpt lat="46.57934" lon="3.32319">
        <ele>223.64</ele>
        <time>2021-08-13T14:20:03Z</time>
      </trkpt>
      <trkpt lat="46.57929" lon="3.32323">
        <ele>223.16</ele>
        <time>2021-08-13T14:20:04Z</time>
      </trkpt>
      <trkpt lat="46.57892" lon="3.32343">
        <ele>223.16</ele>
        <time>2021-08-13T14:20:11Z</time>
      </trkpt>
      <trkpt lat="46.57877" lon="3.32351">
        <ele>223.16</ele>
        <time>2021-08-13T14:20:14Z</time>
      </trkpt>
      <trkpt lat="46.5782" lon="3.32378">
        <ele>222.68</ele>
        <time>2021-08-13T14:20:25Z</time>
      </trkpt>
      <trkpt lat="46.57814" lon="3.32379">
        <ele>222.68</ele>
        <time>2021-08-13T14:20:26Z</time>
      </trkpt>
      <trkpt lat="46.57809" lon="3.32378">
        <ele>222.68</ele>
        <time>2021-08-13T14:20:27Z</time>
      </trkpt>
      <trkpt lat="46.57804" lon="3.32374">
        <ele>222.68</ele>
        <time>2021-08-13T14:20:28Z</time>
      </trkpt>
      <trkpt lat="46.578" lon="3.32367">
        <ele>222.68</ele>
        <time>2021-08-13T14:20:29Z</time>
      </trkpt>
      <trkpt lat="46.57797" lon="3.32362">
        <ele>222.68</ele>
        <time>2021-08-13T14:20:30Z</time>
      </trkpt>
      <trkpt lat="46.57777" lon="3.32322">
        <ele>219.32</ele>
        <time>2021-08-13T14:20:35Z</time>
      </trkpt>
      <trkpt lat="46.57741" lon="3.32252">
        <ele>216.91</ele>
        <time>2021-08-13T14:20:42Z</time>
      </trkpt>
      <trkpt lat="46.57702" lon="3.32183">
        <ele>215.47</ele>
        <time>2021-08-13T14:20:50Z</time>
      </trkpt>
      <trkpt lat="46.57667" lon="3.32125">
        <ele>215.47</ele>
        <time>2021-08-13T14:20:58Z</time>
      </trkpt>
      <trkpt lat="46.57622" lon="3.32062">
        <ele>215.47</ele>
        <time>2021-08-13T14:21:08Z</time>
      </trkpt>
      <trkpt lat="46.57606" lon="3.32038">
        <ele>215.47</ele>
        <time>2021-08-13T14:21:12Z</time>
      </trkpt>
      <trkpt lat="46.57603" lon="3.32032">
        <ele>215.47</ele>
        <time>2021-08-13T14:21:13Z</time>
      </trkpt>
      <trkpt lat="46.57592" lon="3.32006">
        <ele>215.47</ele>
        <time>2021-08-13T14:21:17Z</time>
      </trkpt>
      <trkpt lat="46.5759" lon="3.32001">
        <ele>215.47</ele>
        <time>2021-08-13T14:21:18Z</time>
      </trkpt>
      <trkpt lat="46.57578" lon="3.3197">
        <ele>215.47</ele>
        <time>2021-08-13T14:21:25Z</time>
      </trkpt>
      <trkpt lat="46.57579" lon="3.3197">
        <ele>215.47</ele>
        <time>2021-08-13T14:21:30Z</time>
      </trkpt>
      <trkpt lat="46.57577" lon="3.3197">
        <ele>214.99</ele>
        <time>2021-08-13T14:21:44Z</time>
      </trkpt>
      <trkpt lat="46.57577" lon="3.31968">
        <ele>214.99</ele>
        <time>2021-08-13T14:21:45Z</time>
      </trkpt>
      <trkpt lat="46.57569" lon="3.31947">
        <ele>215.47</ele>
        <time>2021-08-13T14:21:50Z</time>
      </trkpt>
      <trkpt lat="46.5756" lon="3.31924">
        <ele>214.99</ele>
        <time>2021-08-13T14:21:54Z</time>
      </trkpt>
      <trkpt lat="46.57544" lon="3.31877">
        <ele>214.99</ele>
        <time>2021-08-13T14:22:01Z</time>
      </trkpt>
      <trkpt lat="46.57541" lon="3.31869">
        <ele>214.99</ele>
        <time>2021-08-13T14:22:02Z</time>
      </trkpt>
      <trkpt lat="46.57527" lon="3.31826">
        <ele>214.99</ele>
        <time>2021-08-13T14:22:09Z</time>
      </trkpt>
      <trkpt lat="46.57523" lon="3.31816">
        <ele>215.47</ele>
        <time>2021-08-13T14:22:11Z</time>
      </trkpt>
      <trkpt lat="46.57519" lon="3.31814">
        <ele>215.47</ele>
        <time>2021-08-13T14:22:12Z</time>
      </trkpt>
      <trkpt lat="46.57515" lon="3.31813">
        <ele>215.47</ele>
        <time>2021-08-13T14:22:13Z</time>
      </trkpt>
      <trkpt lat="46.57511" lon="3.31813">
        <ele>216.43</ele>
        <time>2021-08-13T14:22:14Z</time>
      </trkpt>
      <trkpt lat="46.57506" lon="3.31816">
        <ele>216.43</ele>
        <time>2021-08-13T14:22:15Z</time>
      </trkpt>
      <trkpt lat="46.57501" lon="3.31818">
        <ele>216.43</ele>
        <time>2021-08-13T14:22:16Z</time>
      </trkpt>
      <trkpt lat="46.57471" lon="3.31839">
        <ele>216.91</ele>
        <time>2021-08-13T14:22:22Z</time>
      </trkpt>
      <trkpt lat="46.5744" lon="3.31859">
        <ele>216.91</ele>
        <time>2021-08-13T14:22:28Z</time>
      </trkpt>
      <trkpt lat="46.57398" lon="3.31888">
        <ele>215.47</ele>
        <time>2021-08-13T14:22:37Z</time>
      </trkpt>
      <trkpt lat="46.57355" lon="3.31916">
        <ele>215.47</ele>
        <time>2021-08-13T14:22:46Z</time>
      </trkpt>
      <trkpt lat="46.57311" lon="3.31943">
        <ele>215.47</ele>
        <time>2021-08-13T14:22:55Z</time>
      </trkpt>
      <trkpt lat="46.57269" lon="3.31973">
        <ele>215.47</ele>
        <time>2021-08-13T14:23:03Z</time>
      </trkpt>
      <trkpt lat="46.57237" lon="3.31995">
        <ele>215.47</ele>
        <time>2021-08-13T14:23:09Z</time>
      </trkpt>
      <trkpt lat="46.57214" lon="3.3201">
        <ele>215.47</ele>
        <time>2021-08-13T14:23:13Z</time>
      </trkpt>
      <trkpt lat="46.57164" lon="3.32043">
        <ele>215.47</ele>
        <time>2021-08-13T14:23:22Z</time>
      </trkpt>
      <trkpt lat="46.5711" lon="3.3208">
        <ele>215.47</ele>
        <time>2021-08-13T14:23:32Z</time>
      </trkpt>
      <trkpt lat="46.57064" lon="3.32111">
        <ele>215.47</ele>
        <time>2021-08-13T14:23:41Z</time>
      </trkpt>
      <trkpt lat="46.57018" lon="3.32141">
        <ele>215.47</ele>
        <time>2021-08-13T14:23:50Z</time>
      </trkpt>
      <trkpt lat="46.56955" lon="3.32184">
        <ele>215.47</ele>
        <time>2021-08-13T14:24:02Z</time>
      </trkpt>
      <trkpt lat="46.56901" lon="3.32221">
        <ele>216.91</ele>
        <time>2021-08-13T14:24:13Z</time>
      </trkpt>
      <trkpt lat="46.56891" lon="3.32227">
        <ele>216.91</ele>
        <time>2021-08-13T14:24:15Z</time>
      </trkpt>
      <trkpt lat="46.56887" lon="3.3223">
        <ele>216.91</ele>
        <time>2021-08-13T14:24:16Z</time>
      </trkpt>
      <trkpt lat="46.56839" lon="3.32258">
        <ele>216.91</ele>
        <time>2021-08-13T14:24:26Z</time>
      </trkpt>
      <trkpt lat="46.56829" lon="3.32262">
        <ele>216.91</ele>
        <time>2021-08-13T14:24:28Z</time>
      </trkpt>
      <trkpt lat="46.56806" lon="3.32272">
        <ele>217.4</ele>
        <time>2021-08-13T14:24:33Z</time>
      </trkpt>
      <trkpt lat="46.56791" lon="3.3228">
        <ele>217.4</ele>
        <time>2021-08-13T14:24:36Z</time>
      </trkpt>
      <trkpt lat="46.56787" lon="3.32283">
        <ele>217.4</ele>
        <time>2021-08-13T14:24:37Z</time>
      </trkpt>
      <trkpt lat="46.56783" lon="3.32289">
        <ele>217.4</ele>
        <time>2021-08-13T14:24:38Z</time>
      </trkpt>
      <trkpt lat="46.56781" lon="3.32294">
        <ele>217.88</ele>
        <time>2021-08-13T14:24:39Z</time>
      </trkpt>
      <trkpt lat="46.56781" lon="3.32301">
        <ele>217.88</ele>
        <time>2021-08-13T14:24:40Z</time>
      </trkpt>
      <trkpt lat="46.56782" lon="3.32308">
        <ele>217.88</ele>
        <time>2021-08-13T14:24:41Z</time>
      </trkpt>
      <trkpt lat="46.56786" lon="3.32315">
        <ele>217.88</ele>
        <time>2021-08-13T14:24:42Z</time>
      </trkpt>
      <trkpt lat="46.56789" lon="3.3232">
        <ele>217.88</ele>
        <time>2021-08-13T14:24:43Z</time>
      </trkpt>
      <trkpt lat="46.56795" lon="3.32331">
        <ele>217.88</ele>
        <time>2021-08-13T14:24:45Z</time>
      </trkpt>
      <trkpt lat="46.56802" lon="3.32347">
        <ele>217.88</ele>
        <time>2021-08-13T14:24:49Z</time>
      </trkpt>
      <trkpt lat="46.568" lon="3.32348">
        <ele>217.88</ele>
        <time>2021-08-13T14:24:50Z</time>
      </trkpt>
      <trkpt lat="46.56789" lon="3.3235">
        <ele>216.91</ele>
        <time>2021-08-13T14:24:58Z</time>
      </trkpt>
      <trkpt lat="46.56789" lon="3.32348">
        <ele>216.91</ele>
        <time>2021-08-13T14:25:10Z</time>
      </trkpt>
      <trkpt lat="46.56788" lon="3.3235">
        <ele>216.91</ele>
        <time>2021-08-13T14:25:26Z</time>
      </trkpt>
      <trkpt lat="46.56789" lon="3.32347">
        <ele>216.91</ele>
        <time>2021-08-13T14:25:45Z</time>
      </trkpt>
      <trkpt lat="46.56788" lon="3.32348">
        <ele>216.91</ele>
        <time>2021-08-13T14:26:09Z</time>
      </trkpt>
      <trkpt lat="46.56788" lon="3.32349">
        <ele>216.91</ele>
        <time>2021-08-13T14:26:31Z</time>
      </trkpt>
      <trkpt lat="46.56788" lon="3.3235">
        <ele>216.91</ele>
        <time>2021-08-13T14:26:57Z</time>
      </trkpt>
      <trkpt lat="46.56787" lon="3.32351">
        <ele>216.91</ele>
        <time>2021-08-13T14:27:17Z</time>
      </trkpt>
      <trkpt lat="46.56788" lon="3.32351">
        <ele>216.91</ele>
        <time>2021-08-13T14:27:39Z</time>
      </trkpt>
      <trkpt lat="46.56787" lon="3.32352">
        <ele>216.91</ele>
        <time>2021-08-13T14:27:49Z</time>
      </trkpt>
      <trkpt lat="46.56786" lon="3.32353">
        <ele>216.91</ele>
        <time>2021-08-13T14:27:50Z</time>
      </trkpt>
      <trkpt lat="46.56785" lon="3.32355">
        <ele>216.91</ele>
        <time>2021-08-13T14:27:51Z</time>
      </trkpt>
      <trkpt lat="46.56783" lon="3.3236">
        <ele>216.91</ele>
        <time>2021-08-13T14:27:53Z</time>
      </trkpt>
      <trkpt lat="46.56782" lon="3.32363">
        <ele>216.91</ele>
        <time>2021-08-13T14:27:54Z</time>
      </trkpt>
      <trkpt lat="46.56783" lon="3.32367">
        <ele>216.91</ele>
        <time>2021-08-13T14:27:55Z</time>
      </trkpt>
      <trkpt lat="46.56783" lon="3.32371">
        <ele>216.91</ele>
        <time>2021-08-13T14:27:56Z</time>
      </trkpt>
      <trkpt lat="46.56783" lon="3.32374">
        <ele>216.91</ele>
        <time>2021-08-13T14:27:57Z</time>
      </trkpt>
      <trkpt lat="46.56784" lon="3.32377">
        <ele>216.91</ele>
        <time>2021-08-13T14:27:58Z</time>
      </trkpt>
      <trkpt lat="46.56786" lon="3.3238">
        <ele>216.91</ele>
        <time>2021-08-13T14:27:59Z</time>
      </trkpt>
      <trkpt lat="46.56789" lon="3.32382">
        <ele>216.91</ele>
        <time>2021-08-13T14:28:00Z</time>
      </trkpt>
      <trkpt lat="46.56791" lon="3.32383">
        <ele>216.91</ele>
        <time>2021-08-13T14:28:01Z</time>
      </trkpt>
      <trkpt lat="46.56794" lon="3.32382">
        <ele>216.91</ele>
        <time>2021-08-13T14:28:02Z</time>
      </trkpt>
      <trkpt lat="46.56795" lon="3.32382">
        <ele>216.91</ele>
        <time>2021-08-13T14:28:03Z</time>
      </trkpt>
      <trkpt lat="46.56796" lon="3.32383">
        <ele>216.91</ele>
        <time>2021-08-13T14:28:04Z</time>
      </trkpt>
      <trkpt lat="46.56798" lon="3.32385">
        <ele>216.91</ele>
        <time>2021-08-13T14:28:05Z</time>
      </trkpt>
      <trkpt lat="46.56799" lon="3.32386">
        <ele>216.91</ele>
        <time>2021-08-13T14:28:06Z</time>
      </trkpt>
      <trkpt lat="46.568" lon="3.32387">
        <ele>216.91</ele>
        <time>2021-08-13T14:28:07Z</time>
      </trkpt>
      <trkpt lat="46.56802" lon="3.32388">
        <ele>216.91</ele>
        <time>2021-08-13T14:28:08Z</time>
      </trkpt>
      <trkpt lat="46.56814" lon="3.32402">
        <ele>216.43</ele>
        <time>2021-08-13T14:28:13Z</time>
      </trkpt>
      <trkpt lat="46.56826" lon="3.3243">
        <ele>216.43</ele>
        <time>2021-08-13T14:28:19Z</time>
      </trkpt>
      <trkpt lat="46.56842" lon="3.32466">
        <ele>216.43</ele>
        <time>2021-08-13T14:28:28Z</time>
      </trkpt>
      <trkpt lat="46.5686" lon="3.32502">
        <ele>216.43</ele>
        <time>2021-08-13T14:28:36Z</time>
      </trkpt>
      <trkpt lat="46.56884" lon="3.32551">
        <ele>216.43</ele>
        <time>2021-08-13T14:28:46Z</time>
      </trkpt>
      <trkpt lat="46.56895" lon="3.32577">
        <ele>216.43</ele>
        <time>2021-08-13T14:28:52Z</time>
      </trkpt>
      <trkpt lat="46.56894" lon="3.32582">
        <ele>216.43</ele>
        <time>2021-08-13T14:28:53Z</time>
      </trkpt>
      <trkpt lat="46.56884" lon="3.32617">
        <ele>216.43</ele>
        <time>2021-08-13T14:29:00Z</time>
      </trkpt>
      <trkpt lat="46.56863" lon="3.32636">
        <ele>216.43</ele>
        <time>2021-08-13T14:29:07Z</time>
      </trkpt>
      <trkpt lat="46.56846" lon="3.32654">
        <ele>215.95</ele>
        <time>2021-08-13T14:29:14Z</time>
      </trkpt>
      <trkpt lat="46.56826" lon="3.32673">
        <ele>215.95</ele>
        <time>2021-08-13T14:29:22Z</time>
      </trkpt>
      <trkpt lat="46.56807" lon="3.32673">
        <ele>215.95</ele>
        <time>2021-08-13T14:29:28Z</time>
      </trkpt>
      <trkpt lat="46.56781" lon="3.32672">
        <ele>215.95</ele>
        <time>2021-08-13T14:29:36Z</time>
      </trkpt>
      <trkpt lat="46.56755" lon="3.32677">
        <ele>215.95</ele>
        <time>2021-08-13T14:29:44Z</time>
      </trkpt>
      <trkpt lat="46.5675" lon="3.32678">
        <ele>215.95</ele>
        <time>2021-08-13T14:29:49Z</time>
      </trkpt>
      <trkpt lat="46.56741" lon="3.32677">
        <ele>215.95</ele>
        <time>2021-08-13T14:29:54Z</time>
      </trkpt>
      <trkpt lat="46.56726" lon="3.32679">
        <ele>215.95</ele>
        <time>2021-08-13T14:29:59Z</time>
      </trkpt>
      <trkpt lat="46.56713" lon="3.32682">
        <ele>217.4</ele>
        <time>2021-08-13T14:30:03Z</time>
      </trkpt>
      <trkpt lat="46.56692" lon="3.32689">
        <ele>217.4</ele>
        <time>2021-08-13T14:30:10Z</time>
      </trkpt>
      <trkpt lat="46.56687" lon="3.32689">
        <ele>217.4</ele>
        <time>2021-08-13T14:30:16Z</time>
      </trkpt>
      <trkpt lat="46.56682" lon="3.32684">
        <ele>217.4</ele>
        <time>2021-08-13T14:30:23Z</time>
      </trkpt>
      <trkpt lat="46.5668" lon="3.32681">
        <ele>217.4</ele>
        <time>2021-08-13T14:30:26Z</time>
      </trkpt>
      <trkpt lat="46.56679" lon="3.32679">
        <ele>217.4</ele>
        <time>2021-08-13T14:30:27Z</time>
      </trkpt>
      <trkpt lat="46.56679" lon="3.32677">
        <ele>217.4</ele>
        <time>2021-08-13T14:30:28Z</time>
      </trkpt>
      <trkpt lat="46.56677" lon="3.32672">
        <ele>217.4</ele>
        <time>2021-08-13T14:30:34Z</time>
      </trkpt>
      <trkpt lat="46.56678" lon="3.32673">
        <ele>217.4</ele>
        <time>2021-08-13T14:30:49Z</time>
      </trkpt>
      <trkpt lat="46.56677" lon="3.32675">
        <ele>217.4</ele>
        <time>2021-08-13T14:31:00Z</time>
      </trkpt>
      <trkpt lat="46.56676" lon="3.32675">
        <ele>217.4</ele>
        <time>2021-08-13T14:31:13Z</time>
      </trkpt>
      <trkpt lat="46.56675" lon="3.32677">
        <ele>217.4</ele>
        <time>2021-08-13T14:31:28Z</time>
      </trkpt>
      <trkpt lat="46.56675" lon="3.3268">
        <ele>217.4</ele>
        <time>2021-08-13T14:31:44Z</time>
      </trkpt>
      <trkpt lat="46.56674" lon="3.32679">
        <ele>217.4</ele>
        <time>2021-08-13T14:31:56Z</time>
      </trkpt>
      <trkpt lat="46.56675" lon="3.3268">
        <ele>217.4</ele>
        <time>2021-08-13T14:32:12Z</time>
      </trkpt>
      <trkpt lat="46.56675" lon="3.3268">
        <ele>217.4</ele>
        <time>2021-08-13T14:32:32Z</time>
      </trkpt>
      <trkpt lat="46.56675" lon="3.32678">
        <ele>217.4</ele>
        <time>2021-08-13T14:32:49Z</time>
      </trkpt>
      <trkpt lat="46.56676" lon="3.3268">
        <ele>217.4</ele>
        <time>2021-08-13T14:32:58Z</time>
      </trkpt>
      <trkpt lat="46.56676" lon="3.32683">
        <ele>217.4</ele>
        <time>2021-08-13T14:32:59Z</time>
      </trkpt>
      <trkpt lat="46.56677" lon="3.32684">
        <ele>217.4</ele>
        <time>2021-08-13T14:33:03Z</time>
      </trkpt>
      <trkpt lat="46.56676" lon="3.32686">
        <ele>217.4</ele>
        <time>2021-08-13T14:33:04Z</time>
      </trkpt>
      <trkpt lat="46.56675" lon="3.32693">
        <ele>217.4</ele>
        <time>2021-08-13T14:33:05Z</time>
      </trkpt>
      <trkpt lat="46.56674" lon="3.32697">
        <ele>217.4</ele>
        <time>2021-08-13T14:33:06Z</time>
      </trkpt>
      <trkpt lat="46.56675" lon="3.32697">
        <ele>217.4</ele>
        <time>2021-08-13T14:33:09Z</time>
      </trkpt>
      <trkpt lat="46.56674" lon="3.32688">
        <ele>217.4</ele>
        <time>2021-08-13T14:33:21Z</time>
      </trkpt>
      <trkpt lat="46.56674" lon="3.32684">
        <ele>217.4</ele>
        <time>2021-08-13T14:33:32Z</time>
      </trkpt>
      <trkpt lat="46.56675" lon="3.32681">
        <ele>217.4</ele>
        <time>2021-08-13T14:33:47Z</time>
      </trkpt>
      <trkpt lat="46.56675" lon="3.32681">
        <ele>217.4</ele>
        <time>2021-08-13T14:34:00Z</time>
      </trkpt>
      <trkpt lat="46.56675" lon="3.32676">
        <ele>217.4</ele>
        <time>2021-08-13T14:34:14Z</time>
      </trkpt>
      <trkpt lat="46.56675" lon="3.32678">
        <ele>217.4</ele>
        <time>2021-08-13T14:34:24Z</time>
      </trkpt>
      <trkpt lat="46.56676" lon="3.3268">
        <ele>217.4</ele>
        <time>2021-08-13T14:34:39Z</time>
      </trkpt>
      <trkpt lat="46.56677" lon="3.32675">
        <ele>217.4</ele>
        <time>2021-08-13T14:34:54Z</time>
      </trkpt>
      <trkpt lat="46.56675" lon="3.32677">
        <ele>217.4</ele>
        <time>2021-08-13T14:35:10Z</time>
      </trkpt>
      <trkpt lat="46.56674" lon="3.32676">
        <ele>217.4</ele>
        <time>2021-08-13T14:35:28Z</time>
      </trkpt>
      <trkpt lat="46.56676" lon="3.32678">
        <ele>217.4</ele>
        <time>2021-08-13T14:35:44Z</time>
      </trkpt>
      <trkpt lat="46.56674" lon="3.32676">
        <ele>217.4</ele>
        <time>2021-08-13T14:35:59Z</time>
      </trkpt>
      <trkpt lat="46.56674" lon="3.32676">
        <ele>217.4</ele>
        <time>2021-08-13T14:36:15Z</time>
      </trkpt>
      <trkpt lat="46.56674" lon="3.32681">
        <ele>217.4</ele>
        <time>2021-08-13T14:36:28Z</time>
      </trkpt>
      <trkpt lat="46.56673" lon="3.32689">
        <ele>217.4</ele>
        <time>2021-08-13T14:36:48Z</time>
      </trkpt>
      <trkpt lat="46.56673" lon="3.32687">
        <ele>216.91</ele>
        <time>2021-08-13T14:37:08Z</time>
      </trkpt>
      <trkpt lat="46.56674" lon="3.32686">
        <ele>216.91</ele>
        <time>2021-08-13T14:37:18Z</time>
      </trkpt>
      <trkpt lat="46.56674" lon="3.32685">
        <ele>216.91</ele>
        <time>2021-08-13T14:37:33Z</time>
      </trkpt>
      <trkpt lat="46.56674" lon="3.32685">
        <ele>216.91</ele>
        <time>2021-08-13T14:37:46Z</time>
      </trkpt>
      <trkpt lat="46.56673" lon="3.32684">
        <ele>216.91</ele>
        <time>2021-08-13T14:37:53Z</time>
      </trkpt>
      <trkpt lat="46.56672" lon="3.32684">
        <ele>216.91</ele>
        <time>2021-08-13T14:38:00Z</time>
      </trkpt>
      <trkpt lat="46.56672" lon="3.32681">
        <ele>216.91</ele>
        <time>2021-08-13T14:38:10Z</time>
      </trkpt>
      <trkpt lat="46.56674" lon="3.32683">
        <ele>216.91</ele>
        <time>2021-08-13T14:38:29Z</time>
      </trkpt>
      <trkpt lat="46.56675" lon="3.32685">
        <ele>216.91</ele>
        <time>2021-08-13T14:38:46Z</time>
      </trkpt>
      <trkpt lat="46.56674" lon="3.32682">
        <ele>216.91</ele>
        <time>2021-08-13T14:39:02Z</time>
      </trkpt>
      <trkpt lat="46.56675" lon="3.32682">
        <ele>216.91</ele>
        <time>2021-08-13T14:39:16Z</time>
      </trkpt>
      <trkpt lat="46.56675" lon="3.32686">
        <ele>216.91</ele>
        <time>2021-08-13T14:39:30Z</time>
      </trkpt>
      <trkpt lat="46.56675" lon="3.32686">
        <ele>216.91</ele>
        <time>2021-08-13T14:39:42Z</time>
      </trkpt>
      <trkpt lat="46.56672" lon="3.32683">
        <ele>216.91</ele>
        <time>2021-08-13T14:40:05Z</time>
      </trkpt>
      <trkpt lat="46.56674" lon="3.32688">
        <ele>216.91</ele>
        <time>2021-08-13T14:40:24Z</time>
      </trkpt>
      <trkpt lat="46.56674" lon="3.32689">
        <ele>216.91</ele>
        <time>2021-08-13T14:40:41Z</time>
      </trkpt>
      <trkpt lat="46.56674" lon="3.32684">
        <ele>216.91</ele>
        <time>2021-08-13T14:40:57Z</time>
      </trkpt>
      <trkpt lat="46.56676" lon="3.32682">
        <ele>216.91</ele>
        <time>2021-08-13T14:41:13Z</time>
      </trkpt>
      <trkpt lat="46.56679" lon="3.32684">
        <ele>216.91</ele>
        <time>2021-08-13T14:41:35Z</time>
      </trkpt>
      <trkpt lat="46.56678" lon="3.3268">
        <ele>216.91</ele>
        <time>2021-08-13T14:41:47Z</time>
      </trkpt>
      <trkpt lat="46.56679" lon="3.32682">
        <ele>216.91</ele>
        <time>2021-08-13T14:41:58Z</time>
      </trkpt>
      <trkpt lat="46.56677" lon="3.32683">
        <ele>216.91</ele>
        <time>2021-08-13T14:42:10Z</time>
      </trkpt>
      <trkpt lat="46.56676" lon="3.32683">
        <ele>216.91</ele>
        <time>2021-08-13T14:42:28Z</time>
      </trkpt>
      <trkpt lat="46.56676" lon="3.32682">
        <ele>216.91</ele>
        <time>2021-08-13T14:42:41Z</time>
      </trkpt>
      <trkpt lat="46.56675" lon="3.32686">
        <ele>216.91</ele>
        <time>2021-08-13T14:42:55Z</time>
      </trkpt>
      <trkpt lat="46.56676" lon="3.32685">
        <ele>216.91</ele>
        <time>2021-08-13T14:43:01Z</time>
      </trkpt>
      <trkpt lat="46.56675" lon="3.32683">
        <ele>216.91</ele>
        <time>2021-08-13T14:43:09Z</time>
      </trkpt>
      <trkpt lat="46.56675" lon="3.32687">
        <ele>216.91</ele>
        <time>2021-08-13T14:43:28Z</time>
      </trkpt>
      <trkpt lat="46.56675" lon="3.32683">
        <ele>216.43</ele>
        <time>2021-08-13T14:43:40Z</time>
      </trkpt>
      <trkpt lat="46.56674" lon="3.32681">
        <ele>216.43</ele>
        <time>2021-08-13T14:43:53Z</time>
      </trkpt>
      <trkpt lat="46.56673" lon="3.32687">
        <ele>216.43</ele>
        <time>2021-08-13T14:44:08Z</time>
      </trkpt>
      <trkpt lat="46.56673" lon="3.32685">
        <ele>216.43</ele>
        <time>2021-08-13T14:44:25Z</time>
      </trkpt>
      <trkpt lat="46.56673" lon="3.32685">
        <ele>216.43</ele>
        <time>2021-08-13T14:44:40Z</time>
      </trkpt>
      <trkpt lat="46.56673" lon="3.32689">
        <ele>216.43</ele>
        <time>2021-08-13T14:44:56Z</time>
      </trkpt>
      <trkpt lat="46.56675" lon="3.32691">
        <ele>216.43</ele>
        <time>2021-08-13T14:45:15Z</time>
      </trkpt>
      <trkpt lat="46.56675" lon="3.32692">
        <ele>216.43</ele>
        <time>2021-08-13T14:45:32Z</time>
      </trkpt>
      <trkpt lat="46.56674" lon="3.32692">
        <ele>216.43</ele>
        <time>2021-08-13T14:45:53Z</time>
      </trkpt>
      <trkpt lat="46.56675" lon="3.32689">
        <ele>216.43</ele>
        <time>2021-08-13T14:46:05Z</time>
      </trkpt>
      <trkpt lat="46.56676" lon="3.32683">
        <ele>216.43</ele>
        <time>2021-08-13T14:46:27Z</time>
      </trkpt>
      <trkpt lat="46.56676" lon="3.32681">
        <ele>216.43</ele>
        <time>2021-08-13T14:46:46Z</time>
      </trkpt>
      <trkpt lat="46.56676" lon="3.32678">
        <ele>216.43</ele>
        <time>2021-08-13T14:47:04Z</time>
      </trkpt>
      <trkpt lat="46.56676" lon="3.32682">
        <ele>216.43</ele>
        <time>2021-08-13T14:47:21Z</time>
      </trkpt>
      <trkpt lat="46.56676" lon="3.32684">
        <ele>216.91</ele>
        <time>2021-08-13T14:47:45Z</time>
      </trkpt>
      <trkpt lat="46.56676" lon="3.32683">
        <ele>216.91</ele>
        <time>2021-08-13T14:48:01Z</time>
      </trkpt>
      <trkpt lat="46.56674" lon="3.32681">
        <ele>216.91</ele>
        <time>2021-08-13T14:48:23Z</time>
      </trkpt>
      <trkpt lat="46.56674" lon="3.3268">
        <ele>216.91</ele>
        <time>2021-08-13T14:48:40Z</time>
      </trkpt>
      <trkpt lat="46.56673" lon="3.32676">
        <ele>216.91</ele>
        <time>2021-08-13T14:48:58Z</time>
      </trkpt>
      <trkpt lat="46.56674" lon="3.32679">
        <ele>216.91</ele>
        <time>2021-08-13T14:49:15Z</time>
      </trkpt>
      <trkpt lat="46.56674" lon="3.32678">
        <ele>216.91</ele>
        <time>2021-08-13T14:49:37Z</time>
      </trkpt>
      <trkpt lat="46.56674" lon="3.32681">
        <ele>216.91</ele>
        <time>2021-08-13T14:49:53Z</time>
      </trkpt>
      <trkpt lat="46.56675" lon="3.32686">
        <ele>216.91</ele>
        <time>2021-08-13T14:50:12Z</time>
      </trkpt>
      <trkpt lat="46.56674" lon="3.32682">
        <ele>216.91</ele>
        <time>2021-08-13T14:50:20Z</time>
      </trkpt>
      <trkpt lat="46.56674" lon="3.32679">
        <ele>216.91</ele>
        <time>2021-08-13T14:50:30Z</time>
      </trkpt>
      <trkpt lat="46.56675" lon="3.32678">
        <ele>216.91</ele>
        <time>2021-08-13T14:50:44Z</time>
      </trkpt>
      <trkpt lat="46.56675" lon="3.32678">
        <ele>216.91</ele>
        <time>2021-08-13T14:51:00Z</time>
      </trkpt>
      <trkpt lat="46.56676" lon="3.32681">
        <ele>216.91</ele>
        <time>2021-08-13T14:51:15Z</time>
      </trkpt>
      <trkpt lat="46.56672" lon="3.32683">
        <ele>217.4</ele>
        <time>2021-08-13T14:51:39Z</time>
      </trkpt>
      <trkpt lat="46.56672" lon="3.32686">
        <ele>217.4</ele>
        <time>2021-08-13T14:51:53Z</time>
      </trkpt>
      <trkpt lat="46.56673" lon="3.32685">
        <ele>217.4</ele>
        <time>2021-08-13T14:52:17Z</time>
      </trkpt>
      <trkpt lat="46.56673" lon="3.32687">
        <ele>217.4</ele>
        <time>2021-08-13T14:52:30Z</time>
      </trkpt>
      <trkpt lat="46.56673" lon="3.32682">
        <ele>217.4</ele>
        <time>2021-08-13T14:52:46Z</time>
      </trkpt>
      <trkpt lat="46.56674" lon="3.32683">
        <ele>217.4</ele>
        <time>2021-08-13T14:53:08Z</time>
      </trkpt>
      <trkpt lat="46.56674" lon="3.32677">
        <ele>217.4</ele>
        <time>2021-08-13T14:53:28Z</time>
      </trkpt>
      <trkpt lat="46.56672" lon="3.32679">
        <ele>217.4</ele>
        <time>2021-08-13T14:53:43Z</time>
      </trkpt>
      <trkpt lat="46.56672" lon="3.32679">
        <ele>217.4</ele>
        <time>2021-08-13T14:54:03Z</time>
      </trkpt>
      <trkpt lat="46.56674" lon="3.32677">
        <ele>217.4</ele>
        <time>2021-08-13T14:54:23Z</time>
      </trkpt>
      <trkpt lat="46.56675" lon="3.32673">
        <ele>217.4</ele>
        <time>2021-08-13T14:54:40Z</time>
      </trkpt>
      <trkpt lat="46.56675" lon="3.32672">
        <ele>217.4</ele>
        <time>2021-08-13T14:54:53Z</time>
      </trkpt>
      <trkpt lat="46.56676" lon="3.32675">
        <ele>217.4</ele>
        <time>2021-08-13T14:55:00Z</time>
      </trkpt>
      <trkpt lat="46.56676" lon="3.32677">
        <ele>217.4</ele>
        <time>2021-08-13T14:55:12Z</time>
      </trkpt>
      <trkpt lat="46.56675" lon="3.32683">
        <ele>217.4</ele>
        <time>2021-08-13T14:55:19Z</time>
      </trkpt>
      <trkpt lat="46.56675" lon="3.32684">
        <ele>217.4</ele>
        <time>2021-08-13T14:55:20Z</time>
      </trkpt>
      <trkpt lat="46.56674" lon="3.32685">
        <ele>217.4</ele>
        <time>2021-08-13T14:55:21Z</time>
      </trkpt>
      <trkpt lat="46.56673" lon="3.32687">
        <ele>217.4</ele>
        <time>2021-08-13T14:55:22Z</time>
      </trkpt>
      <trkpt lat="46.56672" lon="3.32688">
        <ele>217.4</ele>
        <time>2021-08-13T14:55:23Z</time>
      </trkpt>
      <trkpt lat="46.56671" lon="3.3269">
        <ele>217.4</ele>
        <time>2021-08-13T14:55:24Z</time>
      </trkpt>
      <trkpt lat="46.5667" lon="3.32693">
        <ele>217.4</ele>
        <time>2021-08-13T14:55:25Z</time>
      </trkpt>
      <trkpt lat="46.5667" lon="3.32696">
        <ele>217.4</ele>
        <time>2021-08-13T14:55:26Z</time>
      </trkpt>
      <trkpt lat="46.56671" lon="3.32698">
        <ele>217.4</ele>
        <time>2021-08-13T14:55:27Z</time>
      </trkpt>
      <trkpt lat="46.56672" lon="3.327">
        <ele>217.4</ele>
        <time>2021-08-13T14:55:28Z</time>
      </trkpt>
      <trkpt lat="46.56672" lon="3.32701">
        <ele>217.4</ele>
        <time>2021-08-13T14:55:29Z</time>
      </trkpt>
      <trkpt lat="46.56674" lon="3.32703">
        <ele>217.4</ele>
        <time>2021-08-13T14:55:30Z</time>
      </trkpt>
      <trkpt lat="46.56675" lon="3.32704">
        <ele>217.4</ele>
        <time>2021-08-13T14:55:31Z</time>
      </trkpt>
      <trkpt lat="46.56677" lon="3.32706">
        <ele>217.4</ele>
        <time>2021-08-13T14:55:32Z</time>
      </trkpt>
      <trkpt lat="46.5668" lon="3.32707">
        <ele>217.4</ele>
        <time>2021-08-13T14:55:33Z</time>
      </trkpt>
      <trkpt lat="46.56683" lon="3.32706">
        <ele>217.4</ele>
        <time>2021-08-13T14:55:34Z</time>
      </trkpt>
      <trkpt lat="46.56686" lon="3.32703">
        <ele>217.4</ele>
        <time>2021-08-13T14:55:35Z</time>
      </trkpt>
      <trkpt lat="46.56688" lon="3.32701">
        <ele>217.4</ele>
        <time>2021-08-13T14:55:36Z</time>
      </trkpt>
      <trkpt lat="46.56703" lon="3.32691">
        <ele>217.4</ele>
        <time>2021-08-13T14:55:42Z</time>
      </trkpt>
      <trkpt lat="46.5672" lon="3.32695">
        <ele>217.4</ele>
        <time>2021-08-13T14:55:48Z</time>
      </trkpt>
      <trkpt lat="46.56743" lon="3.32705">
        <ele>217.88</ele>
        <time>2021-08-13T14:55:56Z</time>
      </trkpt>
      <trkpt lat="46.5677" lon="3.32721">
        <ele>218.36</ele>
        <time>2021-08-13T14:56:05Z</time>
      </trkpt>
      <trkpt lat="46.56787" lon="3.3273">
        <ele>218.84</ele>
        <time>2021-08-13T14:56:12Z</time>
      </trkpt>
      <trkpt lat="46.56805" lon="3.32728">
        <ele>218.84</ele>
        <time>2021-08-13T14:56:18Z</time>
      </trkpt>
      <trkpt lat="46.56821" lon="3.32711">
        <ele>217.88</ele>
        <time>2021-08-13T14:56:23Z</time>
      </trkpt>
      <trkpt lat="46.56824" lon="3.32708">
        <ele>217.88</ele>
        <time>2021-08-13T14:56:24Z</time>
      </trkpt>
      <trkpt lat="46.56826" lon="3.32703">
        <ele>216.91</ele>
        <time>2021-08-13T14:56:25Z</time>
      </trkpt>
      <trkpt lat="46.56828" lon="3.32697">
        <ele>216.91</ele>
        <time>2021-08-13T14:56:26Z</time>
      </trkpt>
      <trkpt lat="46.56828" lon="3.32692">
        <ele>216.91</ele>
        <time>2021-08-13T14:56:27Z</time>
      </trkpt>
      <trkpt lat="46.56828" lon="3.32686">
        <ele>216.91</ele>
        <time>2021-08-13T14:56:28Z</time>
      </trkpt>
      <trkpt lat="46.56829" lon="3.32682">
        <ele>216.91</ele>
        <time>2021-08-13T14:56:29Z</time>
      </trkpt>
      <trkpt lat="46.56829" lon="3.32678">
        <ele>216.91</ele>
        <time>2021-08-13T14:56:30Z</time>
      </trkpt>
      <trkpt lat="46.5683" lon="3.32675">
        <ele>216.91</ele>
        <time>2021-08-13T14:56:31Z</time>
      </trkpt>
      <trkpt lat="46.56831" lon="3.32673">
        <ele>216.91</ele>
        <time>2021-08-13T14:56:32Z</time>
      </trkpt>
      <trkpt lat="46.56841" lon="3.32659">
        <ele>216.43</ele>
        <time>2021-08-13T14:56:39Z</time>
      </trkpt>
      <trkpt lat="46.56842" lon="3.32657">
        <ele>216.43</ele>
        <time>2021-08-13T14:56:40Z</time>
      </trkpt>
      <trkpt lat="46.5684" lon="3.32657">
        <ele>216.43</ele>
        <time>2021-08-13T14:56:45Z</time>
      </trkpt>
      <trkpt lat="46.56839" lon="3.32659">
        <ele>216.91</ele>
        <time>2021-08-13T14:56:56Z</time>
      </trkpt>
      <trkpt lat="46.56838" lon="3.32666">
        <ele>216.91</ele>
        <time>2021-08-13T14:57:12Z</time>
      </trkpt>
      <trkpt lat="46.56838" lon="3.32676">
        <ele>216.43</ele>
        <time>2021-08-13T14:57:33Z</time>
      </trkpt>
      <trkpt lat="46.56837" lon="3.3268">
        <ele>216.43</ele>
        <time>2021-08-13T14:57:54Z</time>
      </trkpt>
      <trkpt lat="46.56838" lon="3.3268">
        <ele>216.43</ele>
        <time>2021-08-13T14:58:07Z</time>
      </trkpt>
      <trkpt lat="46.56836" lon="3.32677">
        <ele>216.43</ele>
        <time>2021-08-13T14:58:23Z</time>
      </trkpt>
      <trkpt lat="46.56835" lon="3.32675">
        <ele>216.43</ele>
        <time>2021-08-13T14:58:36Z</time>
      </trkpt>
      <trkpt lat="46.56836" lon="3.32674">
        <ele>216.91</ele>
        <time>2021-08-13T14:58:52Z</time>
      </trkpt>
      <trkpt lat="46.56838" lon="3.32672">
        <ele>216.91</ele>
        <time>2021-08-13T14:59:11Z</time>
      </trkpt>
      <trkpt lat="46.5684" lon="3.32669">
        <ele>216.91</ele>
        <time>2021-08-13T14:59:33Z</time>
      </trkpt>
      <trkpt lat="46.56839" lon="3.32666">
        <ele>216.91</ele>
        <time>2021-08-13T14:59:45Z</time>
      </trkpt>
      <trkpt lat="46.5684" lon="3.32665">
        <ele>216.91</ele>
        <time>2021-08-13T15:00:03Z</time>
      </trkpt>
      <trkpt lat="46.56842" lon="3.32664">
        <ele>216.43</ele>
        <time>2021-08-13T15:00:24Z</time>
      </trkpt>
      <trkpt lat="46.56842" lon="3.32656">
        <ele>216.43</ele>
        <time>2021-08-13T15:00:44Z</time>
      </trkpt>
      <trkpt lat="46.56839" lon="3.32657">
        <ele>216.43</ele>
        <time>2021-08-13T15:01:01Z</time>
      </trkpt>
      <trkpt lat="46.5684" lon="3.32659">
        <ele>216.43</ele>
        <time>2021-08-13T15:01:07Z</time>
      </trkpt>
      <trkpt lat="46.56842" lon="3.3266">
        <ele>216.43</ele>
        <time>2021-08-13T15:01:08Z</time>
      </trkpt>
      <trkpt lat="46.56842" lon="3.32659">
        <ele>216.43</ele>
        <time>2021-08-13T15:01:13Z</time>
      </trkpt>
      <trkpt lat="46.56841" lon="3.3266">
        <ele>216.43</ele>
        <time>2021-08-13T15:01:33Z</time>
      </trkpt>
      <trkpt lat="46.5684" lon="3.3266">
        <ele>216.43</ele>
        <time>2021-08-13T15:01:54Z</time>
      </trkpt>
      <trkpt lat="46.56839" lon="3.32657">
        <ele>216.91</ele>
        <time>2021-08-13T15:02:16Z</time>
      </trkpt>
      <trkpt lat="46.5684" lon="3.32659">
        <ele>216.91</ele>
        <time>2021-08-13T15:02:36Z</time>
      </trkpt>
      <trkpt lat="46.56841" lon="3.3266">
        <ele>216.91</ele>
        <time>2021-08-13T15:02:56Z</time>
      </trkpt>
      <trkpt lat="46.56842" lon="3.32659">
        <ele>216.91</ele>
        <time>2021-08-13T15:03:18Z</time>
      </trkpt>
      <trkpt lat="46.56842" lon="3.3266">
        <ele>216.91</ele>
        <time>2021-08-13T15:03:32Z</time>
      </trkpt>
      <trkpt lat="46.56842" lon="3.32657">
        <ele>216.91</ele>
        <time>2021-08-13T15:03:49Z</time>
      </trkpt>
      <trkpt lat="46.56842" lon="3.32655">
        <ele>216.91</ele>
        <time>2021-08-13T15:04:10Z</time>
      </trkpt>
      <trkpt lat="46.56845" lon="3.32656">
        <ele>216.91</ele>
        <time>2021-08-13T15:04:33Z</time>
      </trkpt>
      <trkpt lat="46.56848" lon="3.32662">
        <ele>216.91</ele>
        <time>2021-08-13T15:04:53Z</time>
      </trkpt>
      <trkpt lat="46.56845" lon="3.32662">
        <ele>216.91</ele>
        <time>2021-08-13T15:05:15Z</time>
      </trkpt>
      <trkpt lat="46.56845" lon="3.32662">
        <ele>216.91</ele>
        <time>2021-08-13T15:05:40Z</time>
      </trkpt>
      <trkpt lat="46.56845" lon="3.32659">
        <ele>216.91</ele>
        <time>2021-08-13T15:06:02Z</time>
      </trkpt>
      <trkpt lat="46.56844" lon="3.32659">
        <ele>216.91</ele>
        <time>2021-08-13T15:06:05Z</time>
      </trkpt>
      <trkpt lat="46.56844" lon="3.32659">
        <ele>216.91</ele>
        <time>2021-08-13T15:06:11Z</time>
      </trkpt>
      <trkpt lat="46.56845" lon="3.32664">
        <ele>216.91</ele>
        <time>2021-08-13T15:06:37Z</time>
      </trkpt>
      <trkpt lat="46.56843" lon="3.32664">
        <ele>216.91</ele>
        <time>2021-08-13T15:06:52Z</time>
      </trkpt>
      <trkpt lat="46.56843" lon="3.32666">
        <ele>216.91</ele>
        <time>2021-08-13T15:07:09Z</time>
      </trkpt>
      <trkpt lat="46.56842" lon="3.32666">
        <ele>217.4</ele>
        <time>2021-08-13T15:07:27Z</time>
      </trkpt>
      <trkpt lat="46.56843" lon="3.32666">
        <ele>217.4</ele>
        <time>2021-08-13T15:07:45Z</time>
      </trkpt>
      <trkpt lat="46.56843" lon="3.32668">
        <ele>217.4</ele>
        <time>2021-08-13T15:08:01Z</time>
      </trkpt>
      <trkpt lat="46.56843" lon="3.32667">
        <ele>217.4</ele>
        <time>2021-08-13T15:08:17Z</time>
      </trkpt>
      <trkpt lat="46.56843" lon="3.32668">
        <ele>217.4</ele>
        <time>2021-08-13T15:08:42Z</time>
      </trkpt>
      <trkpt lat="46.56845" lon="3.32667">
        <ele>217.4</ele>
        <time>2021-08-13T15:09:05Z</time>
      </trkpt>
      <trkpt lat="46.56847" lon="3.32672">
        <ele>217.4</ele>
        <time>2021-08-13T15:09:25Z</time>
      </trkpt>
      <trkpt lat="46.56846" lon="3.3267">
        <ele>217.4</ele>
        <time>2021-08-13T15:09:44Z</time>
      </trkpt>
      <trkpt lat="46.56844" lon="3.32671">
        <ele>217.4</ele>
        <time>2021-08-13T15:10:03Z</time>
      </trkpt>
      <trkpt lat="46.56843" lon="3.32671">
        <ele>217.4</ele>
        <time>2021-08-13T15:10:16Z</time>
      </trkpt>
      <trkpt lat="46.56842" lon="3.32669">
        <ele>217.4</ele>
        <time>2021-08-13T15:10:28Z</time>
      </trkpt>
      <trkpt lat="46.56843" lon="3.32668">
        <ele>217.4</ele>
        <time>2021-08-13T15:10:48Z</time>
      </trkpt>
      <trkpt lat="46.5684" lon="3.3267">
        <ele>217.4</ele>
        <time>2021-08-13T15:11:04Z</time>
      </trkpt>
      <trkpt lat="46.56841" lon="3.3267">
        <ele>217.4</ele>
        <time>2021-08-13T15:11:20Z</time>
      </trkpt>
      <trkpt lat="46.56842" lon="3.32668">
        <ele>217.4</ele>
        <time>2021-08-13T15:11:40Z</time>
      </trkpt>
      <trkpt lat="46.56841" lon="3.32669">
        <ele>217.88</ele>
        <time>2021-08-13T15:12:03Z</time>
      </trkpt>
      <trkpt lat="46.56842" lon="3.32669">
        <ele>217.88</ele>
        <time>2021-08-13T15:12:21Z</time>
      </trkpt>
      <trkpt lat="46.56843" lon="3.3267">
        <ele>217.88</ele>
        <time>2021-08-13T15:12:41Z</time>
      </trkpt>
      <trkpt lat="46.56843" lon="3.32668">
        <ele>217.88</ele>
        <time>2021-08-13T15:12:58Z</time>
      </trkpt>
      <trkpt lat="46.56843" lon="3.3267">
        <ele>217.88</ele>
        <time>2021-08-13T15:13:14Z</time>
      </trkpt>
      <trkpt lat="46.56842" lon="3.3267">
        <ele>218.84</ele>
        <time>2021-08-13T15:13:32Z</time>
      </trkpt>
      <trkpt lat="46.56845" lon="3.32672">
        <ele>218.84</ele>
        <time>2021-08-13T15:13:47Z</time>
      </trkpt>
      <trkpt lat="46.56846" lon="3.32668">
        <ele>218.84</ele>
        <time>2021-08-13T15:14:07Z</time>
      </trkpt>
      <trkpt lat="46.56844" lon="3.32667">
        <ele>218.84</ele>
        <time>2021-08-13T15:14:24Z</time>
      </trkpt>
      <trkpt lat="46.56845" lon="3.32667">
        <ele>218.84</ele>
        <time>2021-08-13T15:14:44Z</time>
      </trkpt>
      <trkpt lat="46.56846" lon="3.32669">
        <ele>218.84</ele>
        <time>2021-08-13T15:15:04Z</time>
      </trkpt>
      <trkpt lat="46.56847" lon="3.32667">
        <ele>218.84</ele>
        <time>2021-08-13T15:15:25Z</time>
      </trkpt>
      <trkpt lat="46.56847" lon="3.32666">
        <ele>219.32</ele>
        <time>2021-08-13T15:15:47Z</time>
      </trkpt>
      <trkpt lat="46.56846" lon="3.32664">
        <ele>219.32</ele>
        <time>2021-08-13T15:16:09Z</time>
      </trkpt>
      <trkpt lat="46.56849" lon="3.32663">
        <ele>219.32</ele>
        <time>2021-08-13T15:16:30Z</time>
      </trkpt>
      <trkpt lat="46.56851" lon="3.3266">
        <ele>219.32</ele>
        <time>2021-08-13T15:16:50Z</time>
      </trkpt>
      <trkpt lat="46.56849" lon="3.32661">
        <ele>219.32</ele>
        <time>2021-08-13T15:17:10Z</time>
      </trkpt>
      <trkpt lat="46.56846" lon="3.32663">
        <ele>219.8</ele>
        <time>2021-08-13T15:17:27Z</time>
      </trkpt>
      <trkpt lat="46.56846" lon="3.32663">
        <ele>219.8</ele>
        <time>2021-08-13T15:17:44Z</time>
      </trkpt>
      <trkpt lat="46.56844" lon="3.32662">
        <ele>219.8</ele>
        <time>2021-08-13T15:18:04Z</time>
      </trkpt>
      <trkpt lat="46.56844" lon="3.32659">
        <ele>219.8</ele>
        <time>2021-08-13T15:18:25Z</time>
      </trkpt>
      <trkpt lat="46.56843" lon="3.32661">
        <ele>219.8</ele>
        <time>2021-08-13T15:18:46Z</time>
      </trkpt>
      <trkpt lat="46.56844" lon="3.32661">
        <ele>219.8</ele>
        <time>2021-08-13T15:19:02Z</time>
      </trkpt>
      <trkpt lat="46.56843" lon="3.32664">
        <ele>220.28</ele>
        <time>2021-08-13T15:19:24Z</time>
      </trkpt>
      <trkpt lat="46.56842" lon="3.32664">
        <ele>220.28</ele>
        <time>2021-08-13T15:19:41Z</time>
      </trkpt>
      <trkpt lat="46.56842" lon="3.32662">
        <ele>220.28</ele>
        <time>2021-08-13T15:19:54Z</time>
      </trkpt>
      <trkpt lat="46.5684" lon="3.32659">
        <ele>220.28</ele>
        <time>2021-08-13T15:20:17Z</time>
      </trkpt>
      <trkpt lat="46.5684" lon="3.32659">
        <ele>220.28</ele>
        <time>2021-08-13T15:20:38Z</time>
      </trkpt>
      <trkpt lat="46.5684" lon="3.32658">
        <ele>219.8</ele>
        <time>2021-08-13T15:21:04Z</time>
      </trkpt>
      <trkpt lat="46.56839" lon="3.32659">
        <ele>219.8</ele>
        <time>2021-08-13T15:21:19Z</time>
      </trkpt>
      <trkpt lat="46.56835" lon="3.3266">
        <ele>219.8</ele>
        <time>2021-08-13T15:21:35Z</time>
      </trkpt>
      <trkpt lat="46.56834" lon="3.32661">
        <ele>219.8</ele>
        <time>2021-08-13T15:21:59Z</time>
      </trkpt>
      <trkpt lat="46.56837" lon="3.32661">
        <ele>219.8</ele>
        <time>2021-08-13T15:22:23Z</time>
      </trkpt>
      <trkpt lat="46.56837" lon="3.32664">
        <ele>219.8</ele>
        <time>2021-08-13T15:22:44Z</time>
      </trkpt>
      <trkpt lat="46.56837" lon="3.32661">
        <ele>219.8</ele>
        <time>2021-08-13T15:23:04Z</time>
      </trkpt>
      <trkpt lat="46.56838" lon="3.32663">
        <ele>219.8</ele>
        <time>2021-08-13T15:23:30Z</time>
      </trkpt>
      <trkpt lat="46.56837" lon="3.32663">
        <ele>219.8</ele>
        <time>2021-08-13T15:23:48Z</time>
      </trkpt>
      <trkpt lat="46.56837" lon="3.3266">
        <ele>219.8</ele>
        <time>2021-08-13T15:24:05Z</time>
      </trkpt>
      <trkpt lat="46.56837" lon="3.32657">
        <ele>219.8</ele>
        <time>2021-08-13T15:24:25Z</time>
      </trkpt>
      <trkpt lat="46.56837" lon="3.3266">
        <ele>219.8</ele>
        <time>2021-08-13T15:24:43Z</time>
      </trkpt>
      <trkpt lat="46.56839" lon="3.32659">
        <ele>219.8</ele>
        <time>2021-08-13T15:25:07Z</time>
      </trkpt>
      <trkpt lat="46.56839" lon="3.32661">
        <ele>219.8</ele>
        <time>2021-08-13T15:25:26Z</time>
      </trkpt>
      <trkpt lat="46.56835" lon="3.32665">
        <ele>219.8</ele>
        <time>2021-08-13T15:25:48Z</time>
      </trkpt>
      <trkpt lat="46.56834" lon="3.32668">
        <ele>219.8</ele>
        <time>2021-08-13T15:26:05Z</time>
      </trkpt>
      <trkpt lat="46.56835" lon="3.32667">
        <ele>219.8</ele>
        <time>2021-08-13T15:26:19Z</time>
      </trkpt>
      <trkpt lat="46.56835" lon="3.32664">
        <ele>219.8</ele>
        <time>2021-08-13T15:26:40Z</time>
      </trkpt>
      <trkpt lat="46.56832" lon="3.32663">
        <ele>219.8</ele>
        <time>2021-08-13T15:27:02Z</time>
      </trkpt>
      <trkpt lat="46.56829" lon="3.32663">
        <ele>219.8</ele>
        <time>2021-08-13T15:27:20Z</time>
      </trkpt>
      <trkpt lat="46.56827" lon="3.32666">
        <ele>219.8</ele>
        <time>2021-08-13T15:27:39Z</time>
      </trkpt>
      <trkpt lat="46.56827" lon="3.32665">
        <ele>220.28</ele>
        <time>2021-08-13T15:27:54Z</time>
      </trkpt>
      <trkpt lat="46.56829" lon="3.32665">
        <ele>220.28</ele>
        <time>2021-08-13T15:28:10Z</time>
      </trkpt>
      <trkpt lat="46.56832" lon="3.32663">
        <ele>220.28</ele>
        <time>2021-08-13T15:28:27Z</time>
      </trkpt>
      <trkpt lat="46.56834" lon="3.32662">
        <ele>220.28</ele>
        <time>2021-08-13T15:28:45Z</time>
      </trkpt>
      <trkpt lat="46.56834" lon="3.32663">
        <ele>220.28</ele>
        <time>2021-08-13T15:29:04Z</time>
      </trkpt>
      <trkpt lat="46.56834" lon="3.32663">
        <ele>220.28</ele>
        <time>2021-08-13T15:29:17Z</time>
      </trkpt>
      <trkpt lat="46.56834" lon="3.32662">
        <ele>220.28</ele>
        <time>2021-08-13T15:29:26Z</time>
      </trkpt>
      <trkpt lat="46.56837" lon="3.32659">
        <ele>220.28</ele>
        <time>2021-08-13T15:29:45Z</time>
      </trkpt>
      <trkpt lat="46.56837" lon="3.32657">
        <ele>220.28</ele>
        <time>2021-08-13T15:29:57Z</time>
      </trkpt>
      <trkpt lat="46.56837" lon="3.32658">
        <ele>220.28</ele>
        <time>2021-08-13T15:30:17Z</time>
      </trkpt>
      <trkpt lat="46.56837" lon="3.32657">
        <ele>220.28</ele>
        <time>2021-08-13T15:30:37Z</time>
      </trkpt>
      <trkpt lat="46.56836" lon="3.32661">
        <ele>220.28</ele>
        <time>2021-08-13T15:30:51Z</time>
      </trkpt>
      <trkpt lat="46.56834" lon="3.3266">
        <ele>220.28</ele>
        <time>2021-08-13T15:31:05Z</time>
      </trkpt>
      <trkpt lat="46.56834" lon="3.32659">
        <ele>220.28</ele>
        <time>2021-08-13T15:31:27Z</time>
      </trkpt>
      <trkpt lat="46.56836" lon="3.32661">
        <ele>219.8</ele>
        <time>2021-08-13T15:31:41Z</time>
      </trkpt>
      <trkpt lat="46.56834" lon="3.3266">
        <ele>219.8</ele>
        <time>2021-08-13T15:32:01Z</time>
      </trkpt>
      <trkpt lat="46.56833" lon="3.3266">
        <ele>219.8</ele>
        <time>2021-08-13T15:32:17Z</time>
      </trkpt>
      <trkpt lat="46.56833" lon="3.32661">
        <ele>219.8</ele>
        <time>2021-08-13T15:32:32Z</time>
      </trkpt>
      <trkpt lat="46.56833" lon="3.32662">
        <ele>219.8</ele>
        <time>2021-08-13T15:32:40Z</time>
      </trkpt>
      <trkpt lat="46.56833" lon="3.32662">
        <ele>219.8</ele>
        <time>2021-08-13T15:32:57Z</time>
      </trkpt>
      <trkpt lat="46.56831" lon="3.32663">
        <ele>220.76</ele>
        <time>2021-08-13T15:33:06Z</time>
      </trkpt>
      <trkpt lat="46.56832" lon="3.32662">
        <ele>220.76</ele>
        <time>2021-08-13T15:33:21Z</time>
      </trkpt>
      <trkpt lat="46.56832" lon="3.32665">
        <ele>220.76</ele>
        <time>2021-08-13T15:33:35Z</time>
      </trkpt>
      <trkpt lat="46.56831" lon="3.32664">
        <ele>220.76</ele>
        <time>2021-08-13T15:33:48Z</time>
      </trkpt>
      <trkpt lat="46.56835" lon="3.32662">
        <ele>220.76</ele>
        <time>2021-08-13T15:33:59Z</time>
      </trkpt>
      <trkpt lat="46.56834" lon="3.32663">
        <ele>220.76</ele>
        <time>2021-08-13T15:34:09Z</time>
      </trkpt>
      <trkpt lat="46.56834" lon="3.32661">
        <ele>220.76</ele>
        <time>2021-08-13T15:34:17Z</time>
      </trkpt>
      <trkpt lat="46.56838" lon="3.32658">
        <ele>220.76</ele>
        <time>2021-08-13T15:34:32Z</time>
      </trkpt>
      <trkpt lat="46.56837" lon="3.32659">
        <ele>220.76</ele>
        <time>2021-08-13T15:34:43Z</time>
      </trkpt>
      <trkpt lat="46.5684" lon="3.32662">
        <ele>220.28</ele>
        <time>2021-08-13T15:35:00Z</time>
      </trkpt>
      <trkpt lat="46.56835" lon="3.32661">
        <ele>220.76</ele>
        <time>2021-08-13T15:35:17Z</time>
      </trkpt>
      <trkpt lat="46.56835" lon="3.32662">
        <ele>220.76</ele>
        <time>2021-08-13T15:35:29Z</time>
      </trkpt>
      <trkpt lat="46.56833" lon="3.32664">
        <ele>220.76</ele>
        <time>2021-08-13T15:35:41Z</time>
      </trkpt>
      <trkpt lat="46.56833" lon="3.32667">
        <ele>220.76</ele>
        <time>2021-08-13T15:35:56Z</time>
      </trkpt>
      <trkpt lat="46.56834" lon="3.32668">
        <ele>220.76</ele>
        <time>2021-08-13T15:36:09Z</time>
      </trkpt>
      <trkpt lat="46.56833" lon="3.32668">
        <ele>220.76</ele>
        <time>2021-08-13T15:36:19Z</time>
      </trkpt>
      <trkpt lat="46.56834" lon="3.32667">
        <ele>220.76</ele>
        <time>2021-08-13T15:36:24Z</time>
      </trkpt>
      <trkpt lat="46.56835" lon="3.32667">
        <ele>220.76</ele>
        <time>2021-08-13T15:36:25Z</time>
      </trkpt>
      <trkpt lat="46.56835" lon="3.32666">
        <ele>220.76</ele>
        <time>2021-08-13T15:36:30Z</time>
      </trkpt>
      <trkpt lat="46.56835" lon="3.32666">
        <ele>220.76</ele>
        <time>2021-08-13T15:36:39Z</time>
      </trkpt>
      <trkpt lat="46.56834" lon="3.32666">
        <ele>220.76</ele>
        <time>2021-08-13T15:37:03Z</time>
      </trkpt>
      <trkpt lat="46.56835" lon="3.32664">
        <ele>220.76</ele>
        <time>2021-08-13T15:37:19Z</time>
      </trkpt>
      <trkpt lat="46.56835" lon="3.32663">
        <ele>220.76</ele>
        <time>2021-08-13T15:37:31Z</time>
      </trkpt>
      <trkpt lat="46.56837" lon="3.32664">
        <ele>220.76</ele>
        <time>2021-08-13T15:37:46Z</time>
      </trkpt>
      <trkpt lat="46.56838" lon="3.32661">
        <ele>220.76</ele>
        <time>2021-08-13T15:37:55Z</time>
      </trkpt>
      <trkpt lat="46.56841" lon="3.32658">
        <ele>220.76</ele>
        <time>2021-08-13T15:38:04Z</time>
      </trkpt>
      <trkpt lat="46.56838" lon="3.32657">
        <ele>220.76</ele>
        <time>2021-08-13T15:38:20Z</time>
      </trkpt>
      <trkpt lat="46.56838" lon="3.32655">
        <ele>220.76</ele>
        <time>2021-08-13T15:38:34Z</time>
      </trkpt>
      <trkpt lat="46.56838" lon="3.32654">
        <ele>220.28</ele>
        <time>2021-08-13T15:38:47Z</time>
      </trkpt>
      <trkpt lat="46.56837" lon="3.32653">
        <ele>220.28</ele>
        <time>2021-08-13T15:39:04Z</time>
      </trkpt>
      <trkpt lat="46.56838" lon="3.32655">
        <ele>220.28</ele>
        <time>2021-08-13T15:39:14Z</time>
      </trkpt>
      <trkpt lat="46.56839" lon="3.32656">
        <ele>220.28</ele>
        <time>2021-08-13T15:39:28Z</time>
      </trkpt>
      <trkpt lat="46.56839" lon="3.32657">
        <ele>220.28</ele>
        <time>2021-08-13T15:39:47Z</time>
      </trkpt>
      <trkpt lat="46.56839" lon="3.32655">
        <ele>220.28</ele>
        <time>2021-08-13T15:40:01Z</time>
      </trkpt>
      <trkpt lat="46.5684" lon="3.32655">
        <ele>220.28</ele>
        <time>2021-08-13T15:40:14Z</time>
      </trkpt>
      <trkpt lat="46.56839" lon="3.32656">
        <ele>219.8</ele>
        <time>2021-08-13T15:40:26Z</time>
      </trkpt>
      <trkpt lat="46.56839" lon="3.32657">
        <ele>219.8</ele>
        <time>2021-08-13T15:40:44Z</time>
      </trkpt>
      <trkpt lat="46.56839" lon="3.32657">
        <ele>219.8</ele>
        <time>2021-08-13T15:41:00Z</time>
      </trkpt>
      <trkpt lat="46.56839" lon="3.32656">
        <ele>219.8</ele>
        <time>2021-08-13T15:41:12Z</time>
      </trkpt>
      <trkpt lat="46.5684" lon="3.32658">
        <ele>219.8</ele>
        <time>2021-08-13T15:41:18Z</time>
      </trkpt>
      <trkpt lat="46.56838" lon="3.32662">
        <ele>219.8</ele>
        <time>2021-08-13T15:41:25Z</time>
      </trkpt>
      <trkpt lat="46.56839" lon="3.32663">
        <ele>219.8</ele>
        <time>2021-08-13T15:41:38Z</time>
      </trkpt>
      <trkpt lat="46.56841" lon="3.32666">
        <ele>219.8</ele>
        <time>2021-08-13T15:41:42Z</time>
      </trkpt>
      <trkpt lat="46.56851" lon="3.32649">
        <ele>219.8</ele>
        <time>2021-08-13T15:41:50Z</time>
      </trkpt>
      <trkpt lat="46.56866" lon="3.32633">
        <ele>219.8</ele>
        <time>2021-08-13T15:41:57Z</time>
      </trkpt>
      <trkpt lat="46.56882" lon="3.32617">
        <ele>219.8</ele>
        <time>2021-08-13T15:42:04Z</time>
      </trkpt>
      <trkpt lat="46.56896" lon="3.32609">
        <ele>219.32</ele>
        <time>2021-08-13T15:42:10Z</time>
      </trkpt>
      <trkpt lat="46.56905" lon="3.32609">
        <ele>219.32</ele>
        <time>2021-08-13T15:42:16Z</time>
      </trkpt>
      <trkpt lat="46.56908" lon="3.3261">
        <ele>219.32</ele>
        <time>2021-08-13T15:42:17Z</time>
      </trkpt>
      <trkpt lat="46.56911" lon="3.32612">
        <ele>219.32</ele>
        <time>2021-08-13T15:42:18Z</time>
      </trkpt>
      <trkpt lat="46.56913" lon="3.32613">
        <ele>219.32</ele>
        <time>2021-08-13T15:42:19Z</time>
      </trkpt>
      <trkpt lat="46.56917" lon="3.32615">
        <ele>219.32</ele>
        <time>2021-08-13T15:42:20Z</time>
      </trkpt>
      <trkpt lat="46.5692" lon="3.32616">
        <ele>219.32</ele>
        <time>2021-08-13T15:42:21Z</time>
      </trkpt>
      <trkpt lat="46.56924" lon="3.32616">
        <ele>219.32</ele>
        <time>2021-08-13T15:42:22Z</time>
      </trkpt>
      <trkpt lat="46.56928" lon="3.32616">
        <ele>219.32</ele>
        <time>2021-08-13T15:42:23Z</time>
      </trkpt>
      <trkpt lat="46.56931" lon="3.32614">
        <ele>219.32</ele>
        <time>2021-08-13T15:42:24Z</time>
      </trkpt>
      <trkpt lat="46.56933" lon="3.32612">
        <ele>219.32</ele>
        <time>2021-08-13T15:42:25Z</time>
      </trkpt>
      <trkpt lat="46.56936" lon="3.32608">
        <ele>219.32</ele>
        <time>2021-08-13T15:42:26Z</time>
      </trkpt>
      <trkpt lat="46.56939" lon="3.32604">
        <ele>219.32</ele>
        <time>2021-08-13T15:42:27Z</time>
      </trkpt>
      <trkpt lat="46.56941" lon="3.32598">
        <ele>219.32</ele>
        <time>2021-08-13T15:42:28Z</time>
      </trkpt>
      <trkpt lat="46.56942" lon="3.32593">
        <ele>219.32</ele>
        <time>2021-08-13T15:42:29Z</time>
      </trkpt>
      <trkpt lat="46.56943" lon="3.32587">
        <ele>219.32</ele>
        <time>2021-08-13T15:42:30Z</time>
      </trkpt>
      <trkpt lat="46.56943" lon="3.32581">
        <ele>219.32</ele>
        <time>2021-08-13T15:42:31Z</time>
      </trkpt>
      <trkpt lat="46.56942" lon="3.32576">
        <ele>219.32</ele>
        <time>2021-08-13T15:42:32Z</time>
      </trkpt>
      <trkpt lat="46.56943" lon="3.32569">
        <ele>219.32</ele>
        <time>2021-08-13T15:42:33Z</time>
      </trkpt>
      <trkpt lat="46.56945" lon="3.32565">
        <ele>219.32</ele>
        <time>2021-08-13T15:42:34Z</time>
      </trkpt>
      <trkpt lat="46.56948" lon="3.32561">
        <ele>219.32</ele>
        <time>2021-08-13T15:42:35Z</time>
      </trkpt>
      <trkpt lat="46.5695" lon="3.32558">
        <ele>219.32</ele>
        <time>2021-08-13T15:42:36Z</time>
      </trkpt>
      <trkpt lat="46.56953" lon="3.32554">
        <ele>219.32</ele>
        <time>2021-08-13T15:42:37Z</time>
      </trkpt>
      <trkpt lat="46.56956" lon="3.3255">
        <ele>219.32</ele>
        <time>2021-08-13T15:42:38Z</time>
      </trkpt>
      <trkpt lat="46.56959" lon="3.32547">
        <ele>219.32</ele>
        <time>2021-08-13T15:42:39Z</time>
      </trkpt>
      <trkpt lat="46.5696" lon="3.32545">
        <ele>219.32</ele>
        <time>2021-08-13T15:42:40Z</time>
      </trkpt>
      <trkpt lat="46.56967" lon="3.32538">
        <ele>219.32</ele>
        <time>2021-08-13T15:42:43Z</time>
      </trkpt>
      <trkpt lat="46.56967" lon="3.32535">
        <ele>219.32</ele>
        <time>2021-08-13T15:42:44Z</time>
      </trkpt>
      <trkpt lat="46.56966" lon="3.32534">
        <ele>219.32</ele>
        <time>2021-08-13T15:42:45Z</time>
      </trkpt>
      <trkpt lat="46.56964" lon="3.32534">
        <ele>219.32</ele>
        <time>2021-08-13T15:42:46Z</time>
      </trkpt>
      <trkpt lat="46.56963" lon="3.32536">
        <ele>219.32</ele>
        <time>2021-08-13T15:42:47Z</time>
      </trkpt>
      <trkpt lat="46.5696" lon="3.32538">
        <ele>219.32</ele>
        <time>2021-08-13T15:42:48Z</time>
      </trkpt>
      <trkpt lat="46.56939" lon="3.32558">
        <ele>219.32</ele>
        <time>2021-08-13T15:42:55Z</time>
      </trkpt>
      <trkpt lat="46.5692" lon="3.32558">
        <ele>219.32</ele>
        <time>2021-08-13T15:43:00Z</time>
      </trkpt>
      <trkpt lat="46.56908" lon="3.32546">
        <ele>219.32</ele>
        <time>2021-08-13T15:43:04Z</time>
      </trkpt>
      <trkpt lat="46.56906" lon="3.32542">
        <ele>219.32</ele>
        <time>2021-08-13T15:43:05Z</time>
      </trkpt>
      <trkpt lat="46.56883" lon="3.32498">
        <ele>219.32</ele>
        <time>2021-08-13T15:43:14Z</time>
      </trkpt>
      <trkpt lat="46.56867" lon="3.32463">
        <ele>219.32</ele>
        <time>2021-08-13T15:43:21Z</time>
      </trkpt>
      <trkpt lat="46.56846" lon="3.32415">
        <ele>219.32</ele>
        <time>2021-08-13T15:43:30Z</time>
      </trkpt>
      <trkpt lat="46.56825" lon="3.32373">
        <ele>219.32</ele>
        <time>2021-08-13T15:43:38Z</time>
      </trkpt>
      <trkpt lat="46.56818" lon="3.32356">
        <ele>219.32</ele>
        <time>2021-08-13T15:43:41Z</time>
      </trkpt>
      <trkpt lat="46.56812" lon="3.32332">
        <ele>219.32</ele>
        <time>2021-08-13T15:43:45Z</time>
      </trkpt>
      <trkpt lat="46.56811" lon="3.32326">
        <ele>219.32</ele>
        <time>2021-08-13T15:43:46Z</time>
      </trkpt>
      <trkpt lat="46.56805" lon="3.3229">
        <ele>219.32</ele>
        <time>2021-08-13T15:43:52Z</time>
      </trkpt>
      <trkpt lat="46.56792" lon="3.32277">
        <ele>219.8</ele>
        <time>2021-08-13T15:43:56Z</time>
      </trkpt>
      <trkpt lat="46.56784" lon="3.32272">
        <ele>219.8</ele>
        <time>2021-08-13T15:43:58Z</time>
      </trkpt>
      <trkpt lat="46.5678" lon="3.32271">
        <ele>219.8</ele>
        <time>2021-08-13T15:43:59Z</time>
      </trkpt>
      <trkpt lat="46.56775" lon="3.32271">
        <ele>220.28</ele>
        <time>2021-08-13T15:44:00Z</time>
      </trkpt>
      <trkpt lat="46.56771" lon="3.32272">
        <ele>220.28</ele>
        <time>2021-08-13T15:44:01Z</time>
      </trkpt>
      <trkpt lat="46.56767" lon="3.32273">
        <ele>220.28</ele>
        <time>2021-08-13T15:44:02Z</time>
      </trkpt>
      <trkpt lat="46.56764" lon="3.32275">
        <ele>220.28</ele>
        <time>2021-08-13T15:44:03Z</time>
      </trkpt>
      <trkpt lat="46.56726" lon="3.32289">
        <ele>221.24</ele>
        <time>2021-08-13T15:44:12Z</time>
      </trkpt>
      <trkpt lat="46.5669" lon="3.32301">
        <ele>221.24</ele>
        <time>2021-08-13T15:44:20Z</time>
      </trkpt>
      <trkpt lat="46.56652" lon="3.32313">
        <ele>221.24</ele>
        <time>2021-08-13T15:44:28Z</time>
      </trkpt>
      <trkpt lat="46.5663" lon="3.32319">
        <ele>221.24</ele>
        <time>2021-08-13T15:44:33Z</time>
      </trkpt>
      <trkpt lat="46.56592" lon="3.32336">
        <ele>221.72</ele>
        <time>2021-08-13T15:44:43Z</time>
      </trkpt>
      <trkpt lat="46.56549" lon="3.32352">
        <ele>221.72</ele>
        <time>2021-08-13T15:44:53Z</time>
      </trkpt>
      <trkpt lat="46.56529" lon="3.3236">
        <ele>221.24</ele>
        <time>2021-08-13T15:44:58Z</time>
      </trkpt>
      <trkpt lat="46.5652" lon="3.32363">
        <ele>221.24</ele>
        <time>2021-08-13T15:45:00Z</time>
      </trkpt>
      <trkpt lat="46.56506" lon="3.32368">
        <ele>221.24</ele>
        <time>2021-08-13T15:45:03Z</time>
      </trkpt>
      <trkpt lat="46.56496" lon="3.32369">
        <ele>221.24</ele>
        <time>2021-08-13T15:45:05Z</time>
      </trkpt>
      <trkpt lat="46.56491" lon="3.32371">
        <ele>221.24</ele>
        <time>2021-08-13T15:45:06Z</time>
      </trkpt>
      <trkpt lat="46.56487" lon="3.32373">
        <ele>221.24</ele>
        <time>2021-08-13T15:45:07Z</time>
      </trkpt>
      <trkpt lat="46.56482" lon="3.32374">
        <ele>221.24</ele>
        <time>2021-08-13T15:45:08Z</time>
      </trkpt>
      <trkpt lat="46.56478" lon="3.32374">
        <ele>221.24</ele>
        <time>2021-08-13T15:45:09Z</time>
      </trkpt>
      <trkpt lat="46.56474" lon="3.32374">
        <ele>221.24</ele>
        <time>2021-08-13T15:45:10Z</time>
      </trkpt>
      <trkpt lat="46.5647" lon="3.32375">
        <ele>221.24</ele>
        <time>2021-08-13T15:45:11Z</time>
      </trkpt>
      <trkpt lat="46.56457" lon="3.32379">
        <ele>221.24</ele>
        <time>2021-08-13T15:45:14Z</time>
      </trkpt>
      <trkpt lat="46.56413" lon="3.32392">
        <ele>221.72</ele>
        <time>2021-08-13T15:45:24Z</time>
      </trkpt>
      <trkpt lat="46.56374" lon="3.32412">
        <ele>221.72</ele>
        <time>2021-08-13T15:45:33Z</time>
      </trkpt>
      <trkpt lat="46.56327" lon="3.32446">
        <ele>221.72</ele>
        <time>2021-08-13T15:45:43Z</time>
      </trkpt>
      <trkpt lat="46.56292" lon="3.32476">
        <ele>222.2</ele>
        <time>2021-08-13T15:45:52Z</time>
      </trkpt>
      <trkpt lat="46.56265" lon="3.32499">
        <ele>223.64</ele>
        <time>2021-08-13T15:46:02Z</time>
      </trkpt>
      <trkpt lat="46.56251" lon="3.32497">
        <ele>223.64</ele>
        <time>2021-08-13T15:46:08Z</time>
      </trkpt>
      <trkpt lat="46.56249" lon="3.32495">
        <ele>223.64</ele>
        <time>2021-08-13T15:46:09Z</time>
      </trkpt>
      <trkpt lat="46.56241" lon="3.32477">
        <ele>223.64</ele>
        <time>2021-08-13T15:46:14Z</time>
      </trkpt>
      <trkpt lat="46.56239" lon="3.32471">
        <ele>223.64</ele>
        <time>2021-08-13T15:46:15Z</time>
      </trkpt>
      <trkpt lat="46.56237" lon="3.32467">
        <ele>223.64</ele>
        <time>2021-08-13T15:46:16Z</time>
      </trkpt>
      <trkpt lat="46.56236" lon="3.32463">
        <ele>223.64</ele>
        <time>2021-08-13T15:46:17Z</time>
      </trkpt>
      <trkpt lat="46.56234" lon="3.32458">
        <ele>223.64</ele>
        <time>2021-08-13T15:46:18Z</time>
      </trkpt>
      <trkpt lat="46.56222" lon="3.32423">
        <ele>223.64</ele>
        <time>2021-08-13T15:46:27Z</time>
      </trkpt>
      <trkpt lat="46.56213" lon="3.324">
        <ele>223.64</ele>
        <time>2021-08-13T15:46:36Z</time>
      </trkpt>
      <trkpt lat="46.56213" lon="3.32399">
        <ele>223.64</ele>
        <time>2021-08-13T15:46:37Z</time>
      </trkpt>
      <trkpt lat="46.56208" lon="3.32386">
        <ele>223.64</ele>
        <time>2021-08-13T15:46:43Z</time>
      </trkpt>
      <trkpt lat="46.56197" lon="3.32354">
        <ele>223.64</ele>
        <time>2021-08-13T15:46:50Z</time>
      </trkpt>
      <trkpt lat="46.56181" lon="3.32307">
        <ele>223.64</ele>
        <time>2021-08-13T15:46:59Z</time>
      </trkpt>
      <trkpt lat="46.56163" lon="3.32255">
        <ele>223.64</ele>
        <time>2021-08-13T15:47:09Z</time>
      </trkpt>
      <trkpt lat="46.56145" lon="3.32205">
        <ele>224.12</ele>
        <time>2021-08-13T15:47:18Z</time>
      </trkpt>
      <trkpt lat="46.5613" lon="3.32161">
        <ele>224.12</ele>
        <time>2021-08-13T15:47:26Z</time>
      </trkpt>
      <trkpt lat="46.56126" lon="3.3215">
        <ele>222.2</ele>
        <time>2021-08-13T15:47:28Z</time>
      </trkpt>
      <trkpt lat="46.56124" lon="3.32145">
        <ele>226.05</ele>
        <time>2021-08-13T15:47:29Z</time>
      </trkpt>
      <trkpt lat="46.56122" lon="3.3214">
        <ele>223.64</ele>
        <time>2021-08-13T15:47:30Z</time>
      </trkpt>
      <trkpt lat="46.56112" lon="3.32101">
        <ele>223.16</ele>
        <time>2021-08-13T15:47:38Z</time>
      </trkpt>
      <trkpt lat="46.56112" lon="3.32094">
        <ele>223.16</ele>
        <time>2021-08-13T15:47:39Z</time>
      </trkpt>
      <trkpt lat="46.56112" lon="3.3208">
        <ele>222.68</ele>
        <time>2021-08-13T15:47:41Z</time>
      </trkpt>
      <trkpt lat="46.5611" lon="3.32074">
        <ele>222.68</ele>
        <time>2021-08-13T15:47:42Z</time>
      </trkpt>
      <trkpt lat="46.56108" lon="3.3207">
        <ele>222.68</ele>
        <time>2021-08-13T15:47:43Z</time>
      </trkpt>
      <trkpt lat="46.56104" lon="3.32066">
        <ele>222.2</ele>
        <time>2021-08-13T15:47:44Z</time>
      </trkpt>
      <trkpt lat="46.56099" lon="3.32064">
        <ele>222.2</ele>
        <time>2021-08-13T15:47:45Z</time>
      </trkpt>
      <trkpt lat="46.56095" lon="3.32065">
        <ele>222.2</ele>
        <time>2021-08-13T15:47:46Z</time>
      </trkpt>
      <trkpt lat="46.56091" lon="3.32068">
        <ele>222.2</ele>
        <time>2021-08-13T15:47:47Z</time>
      </trkpt>
      <trkpt lat="46.56087" lon="3.32072">
        <ele>222.2</ele>
        <time>2021-08-13T15:47:48Z</time>
      </trkpt>
      <trkpt lat="46.56084" lon="3.32075">
        <ele>222.2</ele>
        <time>2021-08-13T15:47:49Z</time>
      </trkpt>
      <trkpt lat="46.56075" lon="3.32082">
        <ele>222.2</ele>
        <time>2021-08-13T15:47:51Z</time>
      </trkpt>
      <trkpt lat="46.56066" lon="3.32089">
        <ele>222.2</ele>
        <time>2021-08-13T15:47:53Z</time>
      </trkpt>
      <trkpt lat="46.56062" lon="3.32093">
        <ele>222.2</ele>
        <time>2021-08-13T15:47:54Z</time>
      </trkpt>
      <trkpt lat="46.56057" lon="3.32098">
        <ele>221.72</ele>
        <time>2021-08-13T15:47:55Z</time>
      </trkpt>
      <trkpt lat="46.56053" lon="3.321">
        <ele>221.72</ele>
        <time>2021-08-13T15:47:56Z</time>
      </trkpt>
      <trkpt lat="46.56048" lon="3.32102">
        <ele>221.72</ele>
        <time>2021-08-13T15:47:57Z</time>
      </trkpt>
      <trkpt lat="46.56006" lon="3.32126">
        <ele>221.24</ele>
        <time>2021-08-13T15:48:06Z</time>
      </trkpt>
      <trkpt lat="46.56002" lon="3.3213">
        <ele>221.24</ele>
        <time>2021-08-13T15:48:07Z</time>
      </trkpt>
      <trkpt lat="46.55999" lon="3.32136">
        <ele>221.24</ele>
        <time>2021-08-13T15:48:08Z</time>
      </trkpt>
      <trkpt lat="46.55997" lon="3.32144">
        <ele>221.24</ele>
        <time>2021-08-13T15:48:09Z</time>
      </trkpt>
      <trkpt lat="46.55998" lon="3.3215">
        <ele>221.24</ele>
        <time>2021-08-13T15:48:10Z</time>
      </trkpt>
      <trkpt lat="46.55999" lon="3.32156">
        <ele>221.24</ele>
        <time>2021-08-13T15:48:11Z</time>
      </trkpt>
      <trkpt lat="46.55999" lon="3.32164">
        <ele>221.24</ele>
        <time>2021-08-13T15:48:12Z</time>
      </trkpt>
      <trkpt lat="46.56" lon="3.32171">
        <ele>220.76</ele>
        <time>2021-08-13T15:48:13Z</time>
      </trkpt>
      <trkpt lat="46.56002" lon="3.32187">
        <ele>220.76</ele>
        <time>2021-08-13T15:48:15Z</time>
      </trkpt>
      <trkpt lat="46.56002" lon="3.32193">
        <ele>220.76</ele>
        <time>2021-08-13T15:48:16Z</time>
      </trkpt>
      <trkpt lat="46.56001" lon="3.322">
        <ele>220.76</ele>
        <time>2021-08-13T15:48:17Z</time>
      </trkpt>
      <trkpt lat="46.55998" lon="3.32208">
        <ele>220.76</ele>
        <time>2021-08-13T15:48:18Z</time>
      </trkpt>
      <trkpt lat="46.55996" lon="3.32214">
        <ele>220.76</ele>
        <time>2021-08-13T15:48:19Z</time>
      </trkpt>
      <trkpt lat="46.55993" lon="3.32218">
        <ele>220.76</ele>
        <time>2021-08-13T15:48:20Z</time>
      </trkpt>
      <trkpt lat="46.5599" lon="3.32223">
        <ele>219.8</ele>
        <time>2021-08-13T15:48:21Z</time>
      </trkpt>
      <trkpt lat="46.55985" lon="3.32228">
        <ele>219.32</ele>
        <time>2021-08-13T15:48:22Z</time>
      </trkpt>
      <trkpt lat="46.55981" lon="3.32232">
        <ele>219.32</ele>
        <time>2021-08-13T15:48:23Z</time>
      </trkpt>
      <trkpt lat="46.55938" lon="3.32267">
        <ele>217.88</ele>
        <time>2021-08-13T15:48:31Z</time>
      </trkpt>
      <trkpt lat="46.55895" lon="3.32307">
        <ele>215.95</ele>
        <time>2021-08-13T15:48:39Z</time>
      </trkpt>
      <trkpt lat="46.55878" lon="3.32321">
        <ele>215.95</ele>
        <time>2021-08-13T15:48:43Z</time>
      </trkpt>
      <trkpt lat="46.55875" lon="3.32325">
        <ele>215.47</ele>
        <time>2021-08-13T15:48:44Z</time>
      </trkpt>
      <trkpt lat="46.55871" lon="3.32329">
        <ele>215.47</ele>
        <time>2021-08-13T15:48:45Z</time>
      </trkpt>
      <trkpt lat="46.55868" lon="3.32332">
        <ele>215.47</ele>
        <time>2021-08-13T15:48:46Z</time>
      </trkpt>
      <trkpt lat="46.55866" lon="3.32333">
        <ele>215.47</ele>
        <time>2021-08-13T15:48:47Z</time>
      </trkpt>
      <trkpt lat="46.55863" lon="3.32334">
        <ele>215.47</ele>
        <time>2021-08-13T15:48:48Z</time>
      </trkpt>
      <trkpt lat="46.55861" lon="3.32335">
        <ele>215.47</ele>
        <time>2021-08-13T15:48:49Z</time>
      </trkpt>
      <trkpt lat="46.5586" lon="3.32336">
        <ele>215.47</ele>
        <time>2021-08-13T15:48:50Z</time>
      </trkpt>
      <trkpt lat="46.55858" lon="3.32338">
        <ele>215.47</ele>
        <time>2021-08-13T15:48:51Z</time>
      </trkpt>
      <trkpt lat="46.55858" lon="3.32341">
        <ele>215.47</ele>
        <time>2021-08-13T15:48:52Z</time>
      </trkpt>
      <trkpt lat="46.5586" lon="3.32341">
        <ele>215.47</ele>
        <time>2021-08-13T15:48:53Z</time>
      </trkpt>
      <trkpt lat="46.55861" lon="3.3234">
        <ele>215.47</ele>
        <time>2021-08-13T15:48:54Z</time>
      </trkpt>
      <trkpt lat="46.55863" lon="3.32339">
        <ele>215.47</ele>
        <time>2021-08-13T15:48:55Z</time>
      </trkpt>
      <trkpt lat="46.55864" lon="3.32337">
        <ele>215.47</ele>
        <time>2021-08-13T15:48:56Z</time>
      </trkpt>
      <trkpt lat="46.55877" lon="3.32325">
        <ele>215.47</ele>
        <time>2021-08-13T15:49:02Z</time>
      </trkpt>
      <trkpt lat="46.55896" lon="3.32307">
        <ele>215.47</ele>
        <time>2021-08-13T15:49:10Z</time>
      </trkpt>
      <trkpt lat="46.55918" lon="3.32288">
        <ele>216.91</ele>
        <time>2021-08-13T15:49:18Z</time>
      </trkpt>
      <trkpt lat="46.55942" lon="3.32265">
        <ele>217.4</ele>
        <time>2021-08-13T15:49:27Z</time>
      </trkpt>
      <trkpt lat="46.55968" lon="3.32242">
        <ele>218.84</ele>
        <time>2021-08-13T15:49:36Z</time>
      </trkpt>
      <trkpt lat="46.55992" lon="3.32216">
        <ele>219.8</ele>
        <time>2021-08-13T15:49:46Z</time>
      </trkpt>
      <trkpt lat="46.55992" lon="3.32213">
        <ele>219.8</ele>
        <time>2021-08-13T15:49:47Z</time>
      </trkpt>
      <trkpt lat="46.55991" lon="3.3221">
        <ele>220.28</ele>
        <time>2021-08-13T15:49:48Z</time>
      </trkpt>
      <trkpt lat="46.55989" lon="3.3221">
        <ele>220.28</ele>
        <time>2021-08-13T15:49:49Z</time>
      </trkpt>
      <trkpt lat="46.55987" lon="3.3221">
        <ele>220.28</ele>
        <time>2021-08-13T15:49:50Z</time>
      </trkpt>
      <trkpt lat="46.55984" lon="3.32211">
        <ele>220.28</ele>
        <time>2021-08-13T15:49:51Z</time>
      </trkpt>
      <trkpt lat="46.55981" lon="3.32213">
        <ele>220.28</ele>
        <time>2021-08-13T15:49:52Z</time>
      </trkpt>
      <trkpt lat="46.55978" lon="3.32216">
        <ele>220.28</ele>
        <time>2021-08-13T15:49:53Z</time>
      </trkpt>
      <trkpt lat="46.55975" lon="3.32218">
        <ele>220.28</ele>
        <time>2021-08-13T15:49:54Z</time>
      </trkpt>
      <trkpt lat="46.55972" lon="3.3222">
        <ele>220.28</ele>
        <time>2021-08-13T15:49:55Z</time>
      </trkpt>
      <trkpt lat="46.5595" lon="3.32237">
        <ele>220.28</ele>
        <time>2021-08-13T15:50:02Z</time>
      </trkpt>
      <trkpt lat="46.55947" lon="3.3224">
        <ele>220.28</ele>
        <time>2021-08-13T15:50:03Z</time>
      </trkpt>
      <trkpt lat="46.55906" lon="3.32273">
        <ele>220.28</ele>
        <time>2021-08-13T15:50:13Z</time>
      </trkpt>
      <trkpt lat="46.55872" lon="3.32297">
        <ele>220.28</ele>
        <time>2021-08-13T15:50:21Z</time>
      </trkpt>
      <trkpt lat="46.55835" lon="3.32328">
        <ele>218.84</ele>
        <time>2021-08-13T15:50:31Z</time>
      </trkpt>
      <trkpt lat="46.55796" lon="3.32358">
        <ele>218.84</ele>
        <time>2021-08-13T15:50:41Z</time>
      </trkpt>
      <trkpt lat="46.55761" lon="3.32385">
        <ele>218.84</ele>
        <time>2021-08-13T15:50:50Z</time>
      </trkpt>
      <trkpt lat="46.55724" lon="3.32412">
        <ele>218.84</ele>
        <time>2021-08-13T15:50:59Z</time>
      </trkpt>
      <trkpt lat="46.55694" lon="3.32433">
        <ele>218.36</ele>
        <time>2021-08-13T15:51:06Z</time>
      </trkpt>
      <trkpt lat="46.5569" lon="3.32436">
        <ele>218.36</ele>
        <time>2021-08-13T15:51:07Z</time>
      </trkpt>
      <trkpt lat="46.55651" lon="3.32465">
        <ele>218.36</ele>
        <time>2021-08-13T15:51:16Z</time>
      </trkpt>
      <trkpt lat="46.55608" lon="3.32499">
        <ele>218.36</ele>
        <time>2021-08-13T15:51:27Z</time>
      </trkpt>
      <trkpt lat="46.55587" lon="3.32517">
        <ele>219.8</ele>
        <time>2021-08-13T15:51:33Z</time>
      </trkpt>
      <trkpt lat="46.55558" lon="3.32541">
        <ele>220.76</ele>
        <time>2021-08-13T15:51:42Z</time>
      </trkpt>
      <trkpt lat="46.5553" lon="3.32568">
        <ele>220.76</ele>
        <time>2021-08-13T15:51:50Z</time>
      </trkpt>
      <trkpt lat="46.55493" lon="3.32606">
        <ele>220.28</ele>
        <time>2021-08-13T15:52:01Z</time>
      </trkpt>
      <trkpt lat="46.5546" lon="3.32635">
        <ele>220.28</ele>
        <time>2021-08-13T15:52:11Z</time>
      </trkpt>
      <trkpt lat="46.5544" lon="3.32637">
        <ele>220.28</ele>
        <time>2021-08-13T15:52:17Z</time>
      </trkpt>
      <trkpt lat="46.55412" lon="3.32642">
        <ele>220.28</ele>
        <time>2021-08-13T15:52:24Z</time>
      </trkpt>
      <trkpt lat="46.55367" lon="3.32644">
        <ele>220.28</ele>
        <time>2021-08-13T15:52:34Z</time>
      </trkpt>
      <trkpt lat="46.55316" lon="3.32635">
        <ele>220.28</ele>
        <time>2021-08-13T15:52:45Z</time>
      </trkpt>
      <trkpt lat="46.55271" lon="3.32618">
        <ele>220.28</ele>
        <time>2021-08-13T15:52:55Z</time>
      </trkpt>
      <trkpt lat="46.5523" lon="3.32594">
        <ele>220.28</ele>
        <time>2021-08-13T15:53:05Z</time>
      </trkpt>
      <trkpt lat="46.55206" lon="3.32577">
        <ele>217.4</ele>
        <time>2021-08-13T15:53:11Z</time>
      </trkpt>
      <trkpt lat="46.55187" lon="3.32564">
        <ele>215.47</ele>
        <time>2021-08-13T15:53:15Z</time>
      </trkpt>
      <trkpt lat="46.55184" lon="3.32558">
        <ele>215.47</ele>
        <time>2021-08-13T15:53:16Z</time>
      </trkpt>
      <trkpt lat="46.55178" lon="3.32546">
        <ele>214.51</ele>
        <time>2021-08-13T15:53:18Z</time>
      </trkpt>
      <trkpt lat="46.55167" lon="3.32529">
        <ele>214.03</ele>
        <time>2021-08-13T15:53:21Z</time>
      </trkpt>
      <trkpt lat="46.55158" lon="3.32516">
        <ele>214.03</ele>
        <time>2021-08-13T15:53:24Z</time>
      </trkpt>
      <trkpt lat="46.55154" lon="3.32512">
        <ele>214.03</ele>
        <time>2021-08-13T15:53:25Z</time>
      </trkpt>
      <trkpt lat="46.55132" lon="3.32488">
        <ele>214.51</ele>
        <time>2021-08-13T15:53:32Z</time>
      </trkpt>
      <trkpt lat="46.55117" lon="3.32473">
        <ele>215.47</ele>
        <time>2021-08-13T15:53:39Z</time>
      </trkpt>
      <trkpt lat="46.55095" lon="3.32454">
        <ele>215.47</ele>
        <time>2021-08-13T15:53:47Z</time>
      </trkpt>
      <trkpt lat="46.55065" lon="3.32429">
        <ele>215.47</ele>
        <time>2021-08-13T15:53:57Z</time>
      </trkpt>
      <trkpt lat="46.55032" lon="3.32409">
        <ele>215.47</ele>
        <time>2021-08-13T15:54:06Z</time>
      </trkpt>
      <trkpt lat="46.54994" lon="3.32389">
        <ele>215.47</ele>
        <time>2021-08-13T15:54:16Z</time>
      </trkpt>
      <trkpt lat="46.54972" lon="3.32377">
        <ele>215.47</ele>
        <time>2021-08-13T15:54:21Z</time>
      </trkpt>
      <trkpt lat="46.54968" lon="3.32374">
        <ele>215.47</ele>
        <time>2021-08-13T15:54:22Z</time>
      </trkpt>
      <trkpt lat="46.5493" lon="3.3234">
        <ele>215.47</ele>
        <time>2021-08-13T15:54:31Z</time>
      </trkpt>
      <trkpt lat="46.5489" lon="3.32313">
        <ele>215.47</ele>
        <time>2021-08-13T15:54:40Z</time>
      </trkpt>
      <trkpt lat="46.54882" lon="3.32308">
        <ele>215.47</ele>
        <time>2021-08-13T15:54:42Z</time>
      </trkpt>
      <trkpt lat="46.54846" lon="3.323">
        <ele>215.47</ele>
        <time>2021-08-13T15:54:50Z</time>
      </trkpt>
      <trkpt lat="46.54842" lon="3.32298">
        <ele>215.47</ele>
        <time>2021-08-13T15:54:51Z</time>
      </trkpt>
      <trkpt lat="46.54838" lon="3.32296">
        <ele>215.47</ele>
        <time>2021-08-13T15:54:52Z</time>
      </trkpt>
      <trkpt lat="46.54825" lon="3.32292">
        <ele>215.47</ele>
        <time>2021-08-13T15:54:55Z</time>
      </trkpt>
      <trkpt lat="46.54783" lon="3.32286">
        <ele>215.47</ele>
        <time>2021-08-13T15:55:04Z</time>
      </trkpt>
      <trkpt lat="46.54746" lon="3.32285">
        <ele>215.47</ele>
        <time>2021-08-13T15:55:12Z</time>
      </trkpt>
      <trkpt lat="46.54704" lon="3.3229">
        <ele>215.47</ele>
        <time>2021-08-13T15:55:21Z</time>
      </trkpt>
      <trkpt lat="46.54656" lon="3.32298">
        <ele>215.47</ele>
        <time>2021-08-13T15:55:31Z</time>
      </trkpt>
      <trkpt lat="46.54609" lon="3.3232">
        <ele>215.47</ele>
        <time>2021-08-13T15:55:41Z</time>
      </trkpt>
      <trkpt lat="46.54559" lon="3.32344">
        <ele>215.47</ele>
        <time>2021-08-13T15:55:52Z</time>
      </trkpt>
      <trkpt lat="46.54513" lon="3.32366">
        <ele>215.47</ele>
        <time>2021-08-13T15:56:02Z</time>
      </trkpt>
      <trkpt lat="46.54508" lon="3.32368">
        <ele>215.95</ele>
        <time>2021-08-13T15:56:03Z</time>
      </trkpt>
      <trkpt lat="46.54504" lon="3.32368">
        <ele>215.95</ele>
        <time>2021-08-13T15:56:04Z</time>
      </trkpt>
      <trkpt lat="46.545" lon="3.32369">
        <ele>215.95</ele>
        <time>2021-08-13T15:56:05Z</time>
      </trkpt>
      <trkpt lat="46.54465" lon="3.32362">
        <ele>216.43</ele>
        <time>2021-08-13T15:56:13Z</time>
      </trkpt>
      <trkpt lat="46.5446" lon="3.32363">
        <ele>216.43</ele>
        <time>2021-08-13T15:56:14Z</time>
      </trkpt>
      <trkpt lat="46.54456" lon="3.32364">
        <ele>216.43</ele>
        <time>2021-08-13T15:56:15Z</time>
      </trkpt>
      <trkpt lat="46.54451" lon="3.32367">
        <ele>216.43</ele>
        <time>2021-08-13T15:56:16Z</time>
      </trkpt>
      <trkpt lat="46.54447" lon="3.32369">
        <ele>216.43</ele>
        <time>2021-08-13T15:56:17Z</time>
      </trkpt>
      <trkpt lat="46.54409" lon="3.32384">
        <ele>216.43</ele>
        <time>2021-08-13T15:56:25Z</time>
      </trkpt>
      <trkpt lat="46.54405" lon="3.32385">
        <ele>216.43</ele>
        <time>2021-08-13T15:56:26Z</time>
      </trkpt>
      <trkpt lat="46.5437" lon="3.32391">
        <ele>216.43</ele>
        <time>2021-08-13T15:56:34Z</time>
      </trkpt>
      <trkpt lat="46.54366" lon="3.32394">
        <ele>216.43</ele>
        <time>2021-08-13T15:56:35Z</time>
      </trkpt>
      <trkpt lat="46.54364" lon="3.32397">
        <ele>216.91</ele>
        <time>2021-08-13T15:56:36Z</time>
      </trkpt>
      <trkpt lat="46.54363" lon="3.32401">
        <ele>216.91</ele>
        <time>2021-08-13T15:56:37Z</time>
      </trkpt>
      <trkpt lat="46.54363" lon="3.32406">
        <ele>215.47</ele>
        <time>2021-08-13T15:56:38Z</time>
      </trkpt>
      <trkpt lat="46.54362" lon="3.32412">
        <ele>215.47</ele>
        <time>2021-08-13T15:56:39Z</time>
      </trkpt>
      <trkpt lat="46.5436" lon="3.32424">
        <ele>214.99</ele>
        <time>2021-08-13T15:56:41Z</time>
      </trkpt>
      <trkpt lat="46.54354" lon="3.3244">
        <ele>214.99</ele>
        <time>2021-08-13T15:56:45Z</time>
      </trkpt>
      <trkpt lat="46.54353" lon="3.32441">
        <ele>214.99</ele>
        <time>2021-08-13T15:56:46Z</time>
      </trkpt>
      <trkpt lat="46.54351" lon="3.32444">
        <ele>214.99</ele>
        <time>2021-08-13T15:56:47Z</time>
      </trkpt>
      <trkpt lat="46.54349" lon="3.32447">
        <ele>214.99</ele>
        <time>2021-08-13T15:56:48Z</time>
      </trkpt>
      <trkpt lat="46.54348" lon="3.3245">
        <ele>214.99</ele>
        <time>2021-08-13T15:56:49Z</time>
      </trkpt>
      <trkpt lat="46.54346" lon="3.32453">
        <ele>214.99</ele>
        <time>2021-08-13T15:56:50Z</time>
      </trkpt>
      <trkpt lat="46.54345" lon="3.32457">
        <ele>214.99</ele>
        <time>2021-08-13T15:56:51Z</time>
      </trkpt>
      <trkpt lat="46.54343" lon="3.3246">
        <ele>215.95</ele>
        <time>2021-08-13T15:56:52Z</time>
      </trkpt>
      <trkpt lat="46.54331" lon="3.32475">
        <ele>215.95</ele>
        <time>2021-08-13T15:56:58Z</time>
      </trkpt>
      <trkpt lat="46.54307" lon="3.32494">
        <ele>216.43</ele>
        <time>2021-08-13T15:57:05Z</time>
      </trkpt>
      <trkpt lat="46.54286" lon="3.32514">
        <ele>216.43</ele>
        <time>2021-08-13T15:57:11Z</time>
      </trkpt>
      <trkpt lat="46.54282" lon="3.32517">
        <ele>216.43</ele>
        <time>2021-08-13T15:57:12Z</time>
      </trkpt>
      <trkpt lat="46.54275" lon="3.32522">
        <ele>216.43</ele>
        <time>2021-08-13T15:57:14Z</time>
      </trkpt>
      <trkpt lat="46.5427" lon="3.32522">
        <ele>216.43</ele>
        <time>2021-08-13T15:57:15Z</time>
      </trkpt>
      <trkpt lat="46.54262" lon="3.32521">
        <ele>216.43</ele>
        <time>2021-08-13T15:57:17Z</time>
      </trkpt>
      <trkpt lat="46.54257" lon="3.32523">
        <ele>216.43</ele>
        <time>2021-08-13T15:57:18Z</time>
      </trkpt>
      <trkpt lat="46.54253" lon="3.32525">
        <ele>216.43</ele>
        <time>2021-08-13T15:57:19Z</time>
      </trkpt>
      <trkpt lat="46.54249" lon="3.32527">
        <ele>216.43</ele>
        <time>2021-08-13T15:57:20Z</time>
      </trkpt>
      <trkpt lat="46.54241" lon="3.32531">
        <ele>216.43</ele>
        <time>2021-08-13T15:57:22Z</time>
      </trkpt>
      <trkpt lat="46.54233" lon="3.32529">
        <ele>216.43</ele>
        <time>2021-08-13T15:57:24Z</time>
      </trkpt>
      <trkpt lat="46.54224" lon="3.32525">
        <ele>216.43</ele>
        <time>2021-08-13T15:57:26Z</time>
      </trkpt>
      <trkpt lat="46.54208" lon="3.32535">
        <ele>216.43</ele>
        <time>2021-08-13T15:57:31Z</time>
      </trkpt>
      <trkpt lat="46.54198" lon="3.32555">
        <ele>216.43</ele>
        <time>2021-08-13T15:57:36Z</time>
      </trkpt>
      <trkpt lat="46.54195" lon="3.32554">
        <ele>216.43</ele>
        <time>2021-08-13T15:57:37Z</time>
      </trkpt>
      <trkpt lat="46.54192" lon="3.32553">
        <ele>216.43</ele>
        <time>2021-08-13T15:57:38Z</time>
      </trkpt>
      <trkpt lat="46.54188" lon="3.32554">
        <ele>216.43</ele>
        <time>2021-08-13T15:57:39Z</time>
      </trkpt>
      <trkpt lat="46.54185" lon="3.32555">
        <ele>216.43</ele>
        <time>2021-08-13T15:57:40Z</time>
      </trkpt>
      <trkpt lat="46.54182" lon="3.32555">
        <ele>216.43</ele>
        <time>2021-08-13T15:57:41Z</time>
      </trkpt>
      <trkpt lat="46.54169" lon="3.32552">
        <ele>216.43</ele>
        <time>2021-08-13T15:57:46Z</time>
      </trkpt>
      <trkpt lat="46.54167" lon="3.32564">
        <ele>215.95</ele>
        <time>2021-08-13T15:57:51Z</time>
      </trkpt>
      <trkpt lat="46.5416" lon="3.32576">
        <ele>215.95</ele>
        <time>2021-08-13T15:57:56Z</time>
      </trkpt>
      <trkpt lat="46.54155" lon="3.32589">
        <ele>215.95</ele>
        <time>2021-08-13T15:57:59Z</time>
      </trkpt>
      <trkpt lat="46.54152" lon="3.32593">
        <ele>214.99</ele>
        <time>2021-08-13T15:58:00Z</time>
      </trkpt>
      <trkpt lat="46.54149" lon="3.32597">
        <ele>214.99</ele>
        <time>2021-08-13T15:58:01Z</time>
      </trkpt>
      <trkpt lat="46.54148" lon="3.32602">
        <ele>214.99</ele>
        <time>2021-08-13T15:58:02Z</time>
      </trkpt>
      <trkpt lat="46.54146" lon="3.32608">
        <ele>214.99</ele>
        <time>2021-08-13T15:58:03Z</time>
      </trkpt>
      <trkpt lat="46.54144" lon="3.32612">
        <ele>214.99</ele>
        <time>2021-08-13T15:58:04Z</time>
      </trkpt>
      <trkpt lat="46.54143" lon="3.32617">
        <ele>214.99</ele>
        <time>2021-08-13T15:58:05Z</time>
      </trkpt>
      <trkpt lat="46.5414" lon="3.32622">
        <ele>214.99</ele>
        <time>2021-08-13T15:58:06Z</time>
      </trkpt>
      <trkpt lat="46.54137" lon="3.32626">
        <ele>214.99</ele>
        <time>2021-08-13T15:58:07Z</time>
      </trkpt>
      <trkpt lat="46.54133" lon="3.32631">
        <ele>214.99</ele>
        <time>2021-08-13T15:58:08Z</time>
      </trkpt>
      <trkpt lat="46.54103" lon="3.32665">
        <ele>215.95</ele>
        <time>2021-08-13T15:58:17Z</time>
      </trkpt>
      <trkpt lat="46.54071" lon="3.32709">
        <ele>215.95</ele>
        <time>2021-08-13T15:58:27Z</time>
      </trkpt>
      <trkpt lat="46.54064" lon="3.32723">
        <ele>215.95</ele>
        <time>2021-08-13T15:58:30Z</time>
      </trkpt>
      <trkpt lat="46.54054" lon="3.32738">
        <ele>215.95</ele>
        <time>2021-08-13T15:58:33Z</time>
      </trkpt>
      <trkpt lat="46.5405" lon="3.32741">
        <ele>215.95</ele>
        <time>2021-08-13T15:58:34Z</time>
      </trkpt>
      <trkpt lat="46.54046" lon="3.32745">
        <ele>215.95</ele>
        <time>2021-08-13T15:58:35Z</time>
      </trkpt>
      <trkpt lat="46.54043" lon="3.32749">
        <ele>215.95</ele>
        <time>2021-08-13T15:58:36Z</time>
      </trkpt>
      <trkpt lat="46.5404" lon="3.32754">
        <ele>215.95</ele>
        <time>2021-08-13T15:58:37Z</time>
      </trkpt>
      <trkpt lat="46.54018" lon="3.32788">
        <ele>215.95</ele>
        <time>2021-08-13T15:58:44Z</time>
      </trkpt>
      <trkpt lat="46.54014" lon="3.32793">
        <ele>215.95</ele>
        <time>2021-08-13T15:58:45Z</time>
      </trkpt>
      <trkpt lat="46.54009" lon="3.32797">
        <ele>215.95</ele>
        <time>2021-08-13T15:58:46Z</time>
      </trkpt>
      <trkpt lat="46.54005" lon="3.32801">
        <ele>215.95</ele>
        <time>2021-08-13T15:58:47Z</time>
      </trkpt>
      <trkpt lat="46.54" lon="3.32804">
        <ele>215.95</ele>
        <time>2021-08-13T15:58:48Z</time>
      </trkpt>
      <trkpt lat="46.53997" lon="3.32808">
        <ele>215.95</ele>
        <time>2021-08-13T15:58:49Z</time>
      </trkpt>
      <trkpt lat="46.53993" lon="3.32812">
        <ele>215.95</ele>
        <time>2021-08-13T15:58:50Z</time>
      </trkpt>
      <trkpt lat="46.53989" lon="3.32813">
        <ele>215.95</ele>
        <time>2021-08-13T15:58:51Z</time>
      </trkpt>
      <trkpt lat="46.53981" lon="3.32814">
        <ele>215.95</ele>
        <time>2021-08-13T15:58:53Z</time>
      </trkpt>
      <trkpt lat="46.53978" lon="3.32817">
        <ele>215.95</ele>
        <time>2021-08-13T15:58:54Z</time>
      </trkpt>
      <trkpt lat="46.53976" lon="3.32821">
        <ele>215.95</ele>
        <time>2021-08-13T15:58:55Z</time>
      </trkpt>
      <trkpt lat="46.53973" lon="3.32825">
        <ele>215.95</ele>
        <time>2021-08-13T15:58:56Z</time>
      </trkpt>
      <trkpt lat="46.53969" lon="3.32828">
        <ele>215.95</ele>
        <time>2021-08-13T15:58:57Z</time>
      </trkpt>
      <trkpt lat="46.53966" lon="3.3283">
        <ele>215.95</ele>
        <time>2021-08-13T15:58:58Z</time>
      </trkpt>
      <trkpt lat="46.53962" lon="3.32831">
        <ele>215.95</ele>
        <time>2021-08-13T15:58:59Z</time>
      </trkpt>
      <trkpt lat="46.53958" lon="3.3283">
        <ele>215.95</ele>
        <time>2021-08-13T15:59:00Z</time>
      </trkpt>
      <trkpt lat="46.53955" lon="3.32828">
        <ele>215.95</ele>
        <time>2021-08-13T15:59:01Z</time>
      </trkpt>
      <trkpt lat="46.53951" lon="3.32826">
        <ele>215.95</ele>
        <time>2021-08-13T15:59:02Z</time>
      </trkpt>
      <trkpt lat="46.53948" lon="3.32825">
        <ele>215.95</ele>
        <time>2021-08-13T15:59:03Z</time>
      </trkpt>
      <trkpt lat="46.53945" lon="3.32827">
        <ele>215.95</ele>
        <time>2021-08-13T15:59:04Z</time>
      </trkpt>
      <trkpt lat="46.53941" lon="3.32826">
        <ele>215.95</ele>
        <time>2021-08-13T15:59:05Z</time>
      </trkpt>
      <trkpt lat="46.53938" lon="3.32823">
        <ele>215.95</ele>
        <time>2021-08-13T15:59:06Z</time>
      </trkpt>
      <trkpt lat="46.53936" lon="3.32819">
        <ele>215.95</ele>
        <time>2021-08-13T15:59:07Z</time>
      </trkpt>
      <trkpt lat="46.53933" lon="3.32815">
        <ele>215.95</ele>
        <time>2021-08-13T15:59:08Z</time>
      </trkpt>
      <trkpt lat="46.53931" lon="3.3281">
        <ele>215.95</ele>
        <time>2021-08-13T15:59:09Z</time>
      </trkpt>
      <trkpt lat="46.53928" lon="3.32807">
        <ele>215.95</ele>
        <time>2021-08-13T15:59:10Z</time>
      </trkpt>
      <trkpt lat="46.53924" lon="3.32806">
        <ele>215.95</ele>
        <time>2021-08-13T15:59:11Z</time>
      </trkpt>
      <trkpt lat="46.5392" lon="3.32805">
        <ele>215.95</ele>
        <time>2021-08-13T15:59:12Z</time>
      </trkpt>
      <trkpt lat="46.53916" lon="3.32805">
        <ele>215.95</ele>
        <time>2021-08-13T15:59:13Z</time>
      </trkpt>
      <trkpt lat="46.53912" lon="3.32805">
        <ele>215.95</ele>
        <time>2021-08-13T15:59:14Z</time>
      </trkpt>
      <trkpt lat="46.53908" lon="3.32806">
        <ele>215.95</ele>
        <time>2021-08-13T15:59:15Z</time>
      </trkpt>
      <trkpt lat="46.53903" lon="3.32808">
        <ele>215.95</ele>
        <time>2021-08-13T15:59:16Z</time>
      </trkpt>
      <trkpt lat="46.539" lon="3.3281">
        <ele>215.95</ele>
        <time>2021-08-13T15:59:17Z</time>
      </trkpt>
      <trkpt lat="46.53883" lon="3.32827">
        <ele>215.95</ele>
        <time>2021-08-13T15:59:22Z</time>
      </trkpt>
      <trkpt lat="46.53861" lon="3.32853">
        <ele>215.95</ele>
        <time>2021-08-13T15:59:29Z</time>
      </trkpt>
      <trkpt lat="46.5384" lon="3.32883">
        <ele>215.95</ele>
        <time>2021-08-13T15:59:36Z</time>
      </trkpt>
      <trkpt lat="46.53828" lon="3.32898">
        <ele>215.95</ele>
        <time>2021-08-13T15:59:40Z</time>
      </trkpt>
      <trkpt lat="46.53825" lon="3.32903">
        <ele>215.95</ele>
        <time>2021-08-13T15:59:41Z</time>
      </trkpt>
      <trkpt lat="46.53817" lon="3.32918">
        <ele>215.95</ele>
        <time>2021-08-13T15:59:44Z</time>
      </trkpt>
      <trkpt lat="46.53815" lon="3.32923">
        <ele>215.95</ele>
        <time>2021-08-13T15:59:45Z</time>
      </trkpt>
      <trkpt lat="46.53796" lon="3.32954">
        <ele>216.43</ele>
        <time>2021-08-13T15:59:52Z</time>
      </trkpt>
      <trkpt lat="46.53781" lon="3.32974">
        <ele>216.43</ele>
        <time>2021-08-13T15:59:58Z</time>
      </trkpt>
      <trkpt lat="46.53765" lon="3.3299">
        <ele>216.43</ele>
        <time>2021-08-13T16:00:04Z</time>
      </trkpt>
      <trkpt lat="46.53758" lon="3.32991">
        <ele>216.43</ele>
        <time>2021-08-13T16:00:06Z</time>
      </trkpt>
      <trkpt lat="46.53755" lon="3.32989">
        <ele>216.43</ele>
        <time>2021-08-13T16:00:07Z</time>
      </trkpt>
      <trkpt lat="46.53752" lon="3.32985">
        <ele>216.43</ele>
        <time>2021-08-13T16:00:08Z</time>
      </trkpt>
      <trkpt lat="46.53749" lon="3.32981">
        <ele>216.43</ele>
        <time>2021-08-13T16:00:09Z</time>
      </trkpt>
      <trkpt lat="46.53747" lon="3.32977">
        <ele>216.43</ele>
        <time>2021-08-13T16:00:10Z</time>
      </trkpt>
      <trkpt lat="46.53743" lon="3.32963">
        <ele>216.91</ele>
        <time>2021-08-13T16:00:13Z</time>
      </trkpt>
      <trkpt lat="46.53742" lon="3.32957">
        <ele>216.91</ele>
        <time>2021-08-13T16:00:14Z</time>
      </trkpt>
      <trkpt lat="46.53742" lon="3.32952">
        <ele>216.91</ele>
        <time>2021-08-13T16:00:15Z</time>
      </trkpt>
      <trkpt lat="46.5374" lon="3.32946">
        <ele>216.91</ele>
        <time>2021-08-13T16:00:16Z</time>
      </trkpt>
      <trkpt lat="46.53739" lon="3.3294">
        <ele>216.91</ele>
        <time>2021-08-13T16:00:17Z</time>
      </trkpt>
      <trkpt lat="46.53737" lon="3.32935">
        <ele>216.91</ele>
        <time>2021-08-13T16:00:18Z</time>
      </trkpt>
      <trkpt lat="46.53731" lon="3.32915">
        <ele>216.91</ele>
        <time>2021-08-13T16:00:22Z</time>
      </trkpt>
      <trkpt lat="46.53729" lon="3.32882">
        <ele>216.91</ele>
        <time>2021-08-13T16:00:28Z</time>
      </trkpt>
      <trkpt lat="46.53734" lon="3.32851">
        <ele>216.91</ele>
        <time>2021-08-13T16:00:34Z</time>
      </trkpt>
      <trkpt lat="46.53736" lon="3.32841">
        <ele>216.91</ele>
        <time>2021-08-13T16:00:36Z</time>
      </trkpt>
      <trkpt lat="46.53735" lon="3.32835">
        <ele>216.91</ele>
        <time>2021-08-13T16:00:37Z</time>
      </trkpt>
      <trkpt lat="46.53733" lon="3.3283">
        <ele>216.91</ele>
        <time>2021-08-13T16:00:38Z</time>
      </trkpt>
      <trkpt lat="46.53731" lon="3.32825">
        <ele>216.91</ele>
        <time>2021-08-13T16:00:39Z</time>
      </trkpt>
      <trkpt lat="46.53728" lon="3.32823">
        <ele>216.91</ele>
        <time>2021-08-13T16:00:40Z</time>
      </trkpt>
      <trkpt lat="46.53724" lon="3.32823">
        <ele>216.91</ele>
        <time>2021-08-13T16:00:41Z</time>
      </trkpt>
      <trkpt lat="46.53721" lon="3.32824">
        <ele>216.91</ele>
        <time>2021-08-13T16:00:42Z</time>
      </trkpt>
      <trkpt lat="46.53717" lon="3.32823">
        <ele>216.91</ele>
        <time>2021-08-13T16:00:43Z</time>
      </trkpt>
      <trkpt lat="46.53714" lon="3.3282">
        <ele>216.91</ele>
        <time>2021-08-13T16:00:44Z</time>
      </trkpt>
      <trkpt lat="46.5371" lon="3.32817">
        <ele>216.91</ele>
        <time>2021-08-13T16:00:45Z</time>
      </trkpt>
      <trkpt lat="46.53707" lon="3.32813">
        <ele>216.91</ele>
        <time>2021-08-13T16:00:46Z</time>
      </trkpt>
      <trkpt lat="46.53704" lon="3.32808">
        <ele>216.91</ele>
        <time>2021-08-13T16:00:47Z</time>
      </trkpt>
      <trkpt lat="46.53702" lon="3.32804">
        <ele>216.91</ele>
        <time>2021-08-13T16:00:48Z</time>
      </trkpt>
      <trkpt lat="46.53692" lon="3.32786">
        <ele>216.91</ele>
        <time>2021-08-13T16:00:52Z</time>
      </trkpt>
      <trkpt lat="46.53689" lon="3.32782">
        <ele>216.91</ele>
        <time>2021-08-13T16:00:53Z</time>
      </trkpt>
      <trkpt lat="46.53686" lon="3.32778">
        <ele>216.91</ele>
        <time>2021-08-13T16:00:54Z</time>
      </trkpt>
      <trkpt lat="46.53683" lon="3.32774">
        <ele>216.91</ele>
        <time>2021-08-13T16:00:55Z</time>
      </trkpt>
      <trkpt lat="46.53681" lon="3.32769">
        <ele>216.91</ele>
        <time>2021-08-13T16:00:56Z</time>
      </trkpt>
      <trkpt lat="46.5368" lon="3.32763">
        <ele>216.91</ele>
        <time>2021-08-13T16:00:57Z</time>
      </trkpt>
      <trkpt lat="46.53678" lon="3.32758">
        <ele>216.91</ele>
        <time>2021-08-13T16:00:58Z</time>
      </trkpt>
      <trkpt lat="46.53676" lon="3.32753">
        <ele>216.91</ele>
        <time>2021-08-13T16:00:59Z</time>
      </trkpt>
      <trkpt lat="46.53673" lon="3.32748">
        <ele>216.91</ele>
        <time>2021-08-13T16:01:00Z</time>
      </trkpt>
      <trkpt lat="46.5367" lon="3.32744">
        <ele>216.91</ele>
        <time>2021-08-13T16:01:01Z</time>
      </trkpt>
      <trkpt lat="46.53667" lon="3.3274">
        <ele>216.91</ele>
        <time>2021-08-13T16:01:02Z</time>
      </trkpt>
      <trkpt lat="46.53657" lon="3.32723">
        <ele>216.91</ele>
        <time>2021-08-13T16:01:06Z</time>
      </trkpt>
      <trkpt lat="46.53655" lon="3.32717">
        <ele>216.91</ele>
        <time>2021-08-13T16:01:07Z</time>
      </trkpt>
      <trkpt lat="46.53655" lon="3.32711">
        <ele>216.91</ele>
        <time>2021-08-13T16:01:08Z</time>
      </trkpt>
      <trkpt lat="46.53654" lon="3.32671">
        <ele>216.91</ele>
        <time>2021-08-13T16:01:15Z</time>
      </trkpt>
      <trkpt lat="46.5365" lon="3.32637">
        <ele>216.91</ele>
        <time>2021-08-13T16:01:21Z</time>
      </trkpt>
      <trkpt lat="46.5364" lon="3.32612">
        <ele>215.47</ele>
        <time>2021-08-13T16:01:26Z</time>
      </trkpt>
      <trkpt lat="46.53636" lon="3.32591">
        <ele>215.47</ele>
        <time>2021-08-13T16:01:30Z</time>
      </trkpt>
      <trkpt lat="46.53633" lon="3.32587">
        <ele>214.99</ele>
        <time>2021-08-13T16:01:31Z</time>
      </trkpt>
      <trkpt lat="46.5363" lon="3.32583">
        <ele>214.99</ele>
        <time>2021-08-13T16:01:32Z</time>
      </trkpt>
      <trkpt lat="46.53628" lon="3.32579">
        <ele>216.43</ele>
        <time>2021-08-13T16:01:33Z</time>
      </trkpt>
      <trkpt lat="46.53626" lon="3.32575">
        <ele>216.43</ele>
        <time>2021-08-13T16:01:34Z</time>
      </trkpt>
      <trkpt lat="46.53619" lon="3.32564">
        <ele>216.43</ele>
        <time>2021-08-13T16:01:37Z</time>
      </trkpt>
      <trkpt lat="46.53619" lon="3.32559">
        <ele>216.43</ele>
        <time>2021-08-13T16:01:38Z</time>
      </trkpt>
      <trkpt lat="46.53618" lon="3.32554">
        <ele>216.91</ele>
        <time>2021-08-13T16:01:39Z</time>
      </trkpt>
      <trkpt lat="46.53617" lon="3.32548">
        <ele>216.91</ele>
        <time>2021-08-13T16:01:40Z</time>
      </trkpt>
      <trkpt lat="46.53615" lon="3.32544">
        <ele>216.91</ele>
        <time>2021-08-13T16:01:41Z</time>
      </trkpt>
      <trkpt lat="46.53613" lon="3.32541">
        <ele>216.91</ele>
        <time>2021-08-13T16:01:42Z</time>
      </trkpt>
      <trkpt lat="46.5361" lon="3.32538">
        <ele>216.91</ele>
        <time>2021-08-13T16:01:43Z</time>
      </trkpt>
      <trkpt lat="46.53603" lon="3.32527">
        <ele>216.91</ele>
        <time>2021-08-13T16:01:47Z</time>
      </trkpt>
      <trkpt lat="46.53601" lon="3.32527">
        <ele>216.91</ele>
        <time>2021-08-13T16:01:48Z</time>
      </trkpt>
      <trkpt lat="46.53592" lon="3.32532">
        <ele>215.47</ele>
        <time>2021-08-13T16:01:52Z</time>
      </trkpt>
      <trkpt lat="46.53576" lon="3.32551">
        <ele>214.99</ele>
        <time>2021-08-13T16:01:58Z</time>
      </trkpt>
      <trkpt lat="46.53557" lon="3.32557">
        <ele>214.99</ele>
        <time>2021-08-13T16:02:03Z</time>
      </trkpt>
      <trkpt lat="46.53536" lon="3.3257">
        <ele>214.99</ele>
        <time>2021-08-13T16:02:09Z</time>
      </trkpt>
      <trkpt lat="46.53531" lon="3.3258">
        <ele>214.99</ele>
        <time>2021-08-13T16:02:12Z</time>
      </trkpt>
      <trkpt lat="46.53519" lon="3.3258">
        <ele>214.99</ele>
        <time>2021-08-13T16:02:15Z</time>
      </trkpt>
      <trkpt lat="46.53507" lon="3.32574">
        <ele>215.47</ele>
        <time>2021-08-13T16:02:18Z</time>
      </trkpt>
      <trkpt lat="46.53503" lon="3.32576">
        <ele>215.47</ele>
        <time>2021-08-13T16:02:19Z</time>
      </trkpt>
      <trkpt lat="46.53499" lon="3.32578">
        <ele>215.47</ele>
        <time>2021-08-13T16:02:20Z</time>
      </trkpt>
      <trkpt lat="46.53496" lon="3.3258">
        <ele>215.47</ele>
        <time>2021-08-13T16:02:21Z</time>
      </trkpt>
      <trkpt lat="46.53492" lon="3.32582">
        <ele>214.99</ele>
        <time>2021-08-13T16:02:22Z</time>
      </trkpt>
      <trkpt lat="46.53471" lon="3.32588">
        <ele>214.99</ele>
        <time>2021-08-13T16:02:27Z</time>
      </trkpt>
      <trkpt lat="46.53457" lon="3.326">
        <ele>214.99</ele>
        <time>2021-08-13T16:02:32Z</time>
      </trkpt>
      <trkpt lat="46.53453" lon="3.326">
        <ele>214.99</ele>
        <time>2021-08-13T16:02:33Z</time>
      </trkpt>
      <trkpt lat="46.5345" lon="3.326">
        <ele>214.99</ele>
        <time>2021-08-13T16:02:34Z</time>
      </trkpt>
      <trkpt lat="46.53446" lon="3.32599">
        <ele>214.99</ele>
        <time>2021-08-13T16:02:35Z</time>
      </trkpt>
      <trkpt lat="46.53443" lon="3.32598">
        <ele>214.99</ele>
        <time>2021-08-13T16:02:36Z</time>
      </trkpt>
      <trkpt lat="46.53439" lon="3.32596">
        <ele>214.99</ele>
        <time>2021-08-13T16:02:37Z</time>
      </trkpt>
      <trkpt lat="46.53435" lon="3.32594">
        <ele>214.99</ele>
        <time>2021-08-13T16:02:38Z</time>
      </trkpt>
      <trkpt lat="46.53432" lon="3.32592">
        <ele>214.99</ele>
        <time>2021-08-13T16:02:39Z</time>
      </trkpt>
      <trkpt lat="46.53429" lon="3.32591">
        <ele>214.99</ele>
        <time>2021-08-13T16:02:40Z</time>
      </trkpt>
      <trkpt lat="46.53426" lon="3.32592">
        <ele>214.99</ele>
        <time>2021-08-13T16:02:41Z</time>
      </trkpt>
      <trkpt lat="46.53423" lon="3.32592">
        <ele>214.99</ele>
        <time>2021-08-13T16:02:42Z</time>
      </trkpt>
      <trkpt lat="46.53419" lon="3.32592">
        <ele>214.99</ele>
        <time>2021-08-13T16:02:43Z</time>
      </trkpt>
      <trkpt lat="46.53395" lon="3.32588">
        <ele>214.99</ele>
        <time>2021-08-13T16:02:50Z</time>
      </trkpt>
      <trkpt lat="46.53369" lon="3.32589">
        <ele>214.99</ele>
        <time>2021-08-13T16:02:57Z</time>
      </trkpt>
      <trkpt lat="46.53354" lon="3.3259">
        <ele>214.99</ele>
        <time>2021-08-13T16:03:02Z</time>
      </trkpt>
      <trkpt lat="46.53352" lon="3.32588">
        <ele>214.99</ele>
        <time>2021-08-13T16:03:03Z</time>
      </trkpt>
      <trkpt lat="46.53349" lon="3.32586">
        <ele>214.99</ele>
        <time>2021-08-13T16:03:04Z</time>
      </trkpt>
      <trkpt lat="46.53346" lon="3.32583">
        <ele>214.99</ele>
        <time>2021-08-13T16:03:05Z</time>
      </trkpt>
      <trkpt lat="46.53343" lon="3.32579">
        <ele>214.99</ele>
        <time>2021-08-13T16:03:06Z</time>
      </trkpt>
      <trkpt lat="46.53322" lon="3.32554">
        <ele>214.99</ele>
        <time>2021-08-13T16:03:13Z</time>
      </trkpt>
      <trkpt lat="46.53308" lon="3.32531">
        <ele>214.99</ele>
        <time>2021-08-13T16:03:20Z</time>
      </trkpt>
      <trkpt lat="46.53291" lon="3.32516">
        <ele>214.99</ele>
        <time>2021-08-13T16:03:28Z</time>
      </trkpt>
      <trkpt lat="46.53284" lon="3.32512">
        <ele>214.99</ele>
        <time>2021-08-13T16:03:31Z</time>
      </trkpt>
      <trkpt lat="46.53281" lon="3.32513">
        <ele>214.99</ele>
        <time>2021-08-13T16:03:32Z</time>
      </trkpt>
      <trkpt lat="46.53278" lon="3.32513">
        <ele>214.99</ele>
        <time>2021-08-13T16:03:33Z</time>
      </trkpt>
      <trkpt lat="46.53275" lon="3.32514">
        <ele>214.99</ele>
        <time>2021-08-13T16:03:34Z</time>
      </trkpt>
      <trkpt lat="46.53271" lon="3.32515">
        <ele>214.99</ele>
        <time>2021-08-13T16:03:35Z</time>
      </trkpt>
      <trkpt lat="46.53246" lon="3.32529">
        <ele>214.99</ele>
        <time>2021-08-13T16:03:42Z</time>
      </trkpt>
      <trkpt lat="46.53231" lon="3.3253">
        <ele>214.99</ele>
        <time>2021-08-13T16:03:46Z</time>
      </trkpt>
      <trkpt lat="46.53228" lon="3.32527">
        <ele>214.99</ele>
        <time>2021-08-13T16:03:47Z</time>
      </trkpt>
      <trkpt lat="46.53226" lon="3.32523">
        <ele>214.99</ele>
        <time>2021-08-13T16:03:48Z</time>
      </trkpt>
      <trkpt lat="46.53224" lon="3.32519">
        <ele>214.99</ele>
        <time>2021-08-13T16:03:49Z</time>
      </trkpt>
      <trkpt lat="46.53221" lon="3.32515">
        <ele>214.99</ele>
        <time>2021-08-13T16:03:50Z</time>
      </trkpt>
      <trkpt lat="46.53219" lon="3.32512">
        <ele>214.99</ele>
        <time>2021-08-13T16:03:51Z</time>
      </trkpt>
      <trkpt lat="46.53216" lon="3.32508">
        <ele>214.99</ele>
        <time>2021-08-13T16:03:52Z</time>
      </trkpt>
      <trkpt lat="46.53214" lon="3.32505">
        <ele>214.99</ele>
        <time>2021-08-13T16:03:53Z</time>
      </trkpt>
      <trkpt lat="46.5319" lon="3.32471">
        <ele>215.95</ele>
        <time>2021-08-13T16:04:02Z</time>
      </trkpt>
      <trkpt lat="46.53168" lon="3.32457">
        <ele>215.95</ele>
        <time>2021-08-13T16:04:08Z</time>
      </trkpt>
      <trkpt lat="46.53144" lon="3.32455">
        <ele>215.95</ele>
        <time>2021-08-13T16:04:13Z</time>
      </trkpt>
      <trkpt lat="46.53115" lon="3.32455">
        <ele>215.95</ele>
        <time>2021-08-13T16:04:19Z</time>
      </trkpt>
      <trkpt lat="46.53108" lon="3.32458">
        <ele>215.95</ele>
        <time>2021-08-13T16:04:21Z</time>
      </trkpt>
      <trkpt lat="46.53106" lon="3.32462">
        <ele>215.95</ele>
        <time>2021-08-13T16:04:22Z</time>
      </trkpt>
      <trkpt lat="46.53104" lon="3.32465">
        <ele>215.95</ele>
        <time>2021-08-13T16:04:23Z</time>
      </trkpt>
      <trkpt lat="46.53101" lon="3.32467">
        <ele>215.95</ele>
        <time>2021-08-13T16:04:24Z</time>
      </trkpt>
      <trkpt lat="46.53098" lon="3.32468">
        <ele>215.95</ele>
        <time>2021-08-13T16:04:25Z</time>
      </trkpt>
      <trkpt lat="46.53095" lon="3.3247">
        <ele>215.95</ele>
        <time>2021-08-13T16:04:26Z</time>
      </trkpt>
      <trkpt lat="46.53091" lon="3.32472">
        <ele>215.95</ele>
        <time>2021-08-13T16:04:27Z</time>
      </trkpt>
      <trkpt lat="46.53088" lon="3.32474">
        <ele>215.95</ele>
        <time>2021-08-13T16:04:28Z</time>
      </trkpt>
      <trkpt lat="46.53085" lon="3.32476">
        <ele>215.95</ele>
        <time>2021-08-13T16:04:29Z</time>
      </trkpt>
      <trkpt lat="46.53081" lon="3.32478">
        <ele>215.95</ele>
        <time>2021-08-13T16:04:30Z</time>
      </trkpt>
      <trkpt lat="46.53077" lon="3.32479">
        <ele>215.95</ele>
        <time>2021-08-13T16:04:31Z</time>
      </trkpt>
      <trkpt lat="46.53058" lon="3.32496">
        <ele>215.95</ele>
        <time>2021-08-13T16:04:37Z</time>
      </trkpt>
      <trkpt lat="46.53045" lon="3.32517">
        <ele>215.95</ele>
        <time>2021-08-13T16:04:42Z</time>
      </trkpt>
      <trkpt lat="46.53042" lon="3.32521">
        <ele>215.95</ele>
        <time>2021-08-13T16:04:43Z</time>
      </trkpt>
      <trkpt lat="46.53027" lon="3.32543">
        <ele>215.95</ele>
        <time>2021-08-13T16:04:49Z</time>
      </trkpt>
      <trkpt lat="46.53025" lon="3.32547">
        <ele>215.95</ele>
        <time>2021-08-13T16:04:50Z</time>
      </trkpt>
      <trkpt lat="46.53024" lon="3.32551">
        <ele>215.95</ele>
        <time>2021-08-13T16:04:51Z</time>
      </trkpt>
      <trkpt lat="46.53022" lon="3.32555">
        <ele>215.95</ele>
        <time>2021-08-13T16:04:52Z</time>
      </trkpt>
      <trkpt lat="46.5302" lon="3.32558">
        <ele>215.95</ele>
        <time>2021-08-13T16:04:53Z</time>
      </trkpt>
      <trkpt lat="46.53018" lon="3.32562">
        <ele>215.95</ele>
        <time>2021-08-13T16:04:54Z</time>
      </trkpt>
      <trkpt lat="46.53016" lon="3.32565">
        <ele>215.95</ele>
        <time>2021-08-13T16:04:55Z</time>
      </trkpt>
      <trkpt lat="46.53015" lon="3.32569">
        <ele>215.95</ele>
        <time>2021-08-13T16:04:56Z</time>
      </trkpt>
      <trkpt lat="46.53014" lon="3.32574">
        <ele>215.95</ele>
        <time>2021-08-13T16:04:57Z</time>
      </trkpt>
      <trkpt lat="46.53013" lon="3.32579">
        <ele>215.95</ele>
        <time>2021-08-13T16:04:58Z</time>
      </trkpt>
      <trkpt lat="46.53012" lon="3.32583">
        <ele>215.95</ele>
        <time>2021-08-13T16:04:59Z</time>
      </trkpt>
      <trkpt lat="46.5301" lon="3.32587">
        <ele>215.95</ele>
        <time>2021-08-13T16:05:00Z</time>
      </trkpt>
      <trkpt lat="46.53008" lon="3.32589">
        <ele>215.95</ele>
        <time>2021-08-13T16:05:01Z</time>
      </trkpt>
      <trkpt lat="46.53005" lon="3.32591">
        <ele>215.95</ele>
        <time>2021-08-13T16:05:02Z</time>
      </trkpt>
      <trkpt lat="46.53003" lon="3.32594">
        <ele>215.95</ele>
        <time>2021-08-13T16:05:03Z</time>
      </trkpt>
      <trkpt lat="46.53" lon="3.32598">
        <ele>215.95</ele>
        <time>2021-08-13T16:05:04Z</time>
      </trkpt>
      <trkpt lat="46.52998" lon="3.32602">
        <ele>215.95</ele>
        <time>2021-08-13T16:05:05Z</time>
      </trkpt>
      <trkpt lat="46.52996" lon="3.32606">
        <ele>215.95</ele>
        <time>2021-08-13T16:05:06Z</time>
      </trkpt>
      <trkpt lat="46.52989" lon="3.32637">
        <ele>215.95</ele>
        <time>2021-08-13T16:05:12Z</time>
      </trkpt>
      <trkpt lat="46.52984" lon="3.32647">
        <ele>215.95</ele>
        <time>2021-08-13T16:05:15Z</time>
      </trkpt>
      <trkpt lat="46.52978" lon="3.32648">
        <ele>215.95</ele>
        <time>2021-08-13T16:05:17Z</time>
      </trkpt>
      <trkpt lat="46.52974" lon="3.3265">
        <ele>215.95</ele>
        <time>2021-08-13T16:05:18Z</time>
      </trkpt>
      <trkpt lat="46.52971" lon="3.32651">
        <ele>215.95</ele>
        <time>2021-08-13T16:05:19Z</time>
      </trkpt>
      <trkpt lat="46.52962" lon="3.32656">
        <ele>216.43</ele>
        <time>2021-08-13T16:05:22Z</time>
      </trkpt>
      <trkpt lat="46.5296" lon="3.32669">
        <ele>216.43</ele>
        <time>2021-08-13T16:05:25Z</time>
      </trkpt>
      <trkpt lat="46.52959" lon="3.32675">
        <ele>216.43</ele>
        <time>2021-08-13T16:05:26Z</time>
      </trkpt>
      <trkpt lat="46.52959" lon="3.3268">
        <ele>216.43</ele>
        <time>2021-08-13T16:05:27Z</time>
      </trkpt>
      <trkpt lat="46.52958" lon="3.32686">
        <ele>216.43</ele>
        <time>2021-08-13T16:05:28Z</time>
      </trkpt>
      <trkpt lat="46.52958" lon="3.32691">
        <ele>216.43</ele>
        <time>2021-08-13T16:05:29Z</time>
      </trkpt>
      <trkpt lat="46.52958" lon="3.32696">
        <ele>216.43</ele>
        <time>2021-08-13T16:05:30Z</time>
      </trkpt>
      <trkpt lat="46.52959" lon="3.327">
        <ele>216.43</ele>
        <time>2021-08-13T16:05:31Z</time>
      </trkpt>
      <trkpt lat="46.52959" lon="3.32722">
        <ele>216.43</ele>
        <time>2021-08-13T16:05:37Z</time>
      </trkpt>
      <trkpt lat="46.52958" lon="3.32724">
        <ele>216.43</ele>
        <time>2021-08-13T16:05:38Z</time>
      </trkpt>
      <trkpt lat="46.52955" lon="3.32727">
        <ele>216.43</ele>
        <time>2021-08-13T16:05:39Z</time>
      </trkpt>
      <trkpt lat="46.52952" lon="3.32728">
        <ele>216.43</ele>
        <time>2021-08-13T16:05:40Z</time>
      </trkpt>
      <trkpt lat="46.52949" lon="3.32728">
        <ele>216.43</ele>
        <time>2021-08-13T16:05:41Z</time>
      </trkpt>
      <trkpt lat="46.52924" lon="3.32727">
        <ele>216.91</ele>
        <time>2021-08-13T16:05:48Z</time>
      </trkpt>
      <trkpt lat="46.52919" lon="3.32727">
        <ele>217.88</ele>
        <time>2021-08-13T16:05:50Z</time>
      </trkpt>
      <trkpt lat="46.52904" lon="3.32726">
        <ele>217.88</ele>
        <time>2021-08-13T16:05:55Z</time>
      </trkpt>
      <trkpt lat="46.52887" lon="3.32725">
        <ele>217.88</ele>
        <time>2021-08-13T16:06:01Z</time>
      </trkpt>
      <trkpt lat="46.5288" lon="3.3272">
        <ele>217.88</ele>
        <time>2021-08-13T16:06:04Z</time>
      </trkpt>
      <trkpt lat="46.52878" lon="3.32718">
        <ele>217.88</ele>
        <time>2021-08-13T16:06:05Z</time>
      </trkpt>
      <trkpt lat="46.52876" lon="3.32715">
        <ele>217.88</ele>
        <time>2021-08-13T16:06:09Z</time>
      </trkpt>
      <trkpt lat="46.52874" lon="3.32714">
        <ele>218.36</ele>
        <time>2021-08-13T16:06:17Z</time>
      </trkpt>
      <trkpt lat="46.52872" lon="3.32712">
        <ele>218.36</ele>
        <time>2021-08-13T16:06:27Z</time>
      </trkpt>
      <trkpt lat="46.52869" lon="3.32704">
        <ele>217.88</ele>
        <time>2021-08-13T16:06:34Z</time>
      </trkpt>
      <trkpt lat="46.52861" lon="3.32688">
        <ele>218.36</ele>
        <time>2021-08-13T16:06:40Z</time>
      </trkpt>
      <trkpt lat="46.52852" lon="3.32672">
        <ele>218.36</ele>
        <time>2021-08-13T16:06:46Z</time>
      </trkpt>
      <trkpt lat="46.52839" lon="3.32651">
        <ele>218.36</ele>
        <time>2021-08-13T16:06:52Z</time>
      </trkpt>
      <trkpt lat="46.52816" lon="3.32624">
        <ele>218.36</ele>
        <time>2021-08-13T16:07:01Z</time>
      </trkpt>
      <trkpt lat="46.52793" lon="3.32602">
        <ele>217.88</ele>
        <time>2021-08-13T16:07:08Z</time>
      </trkpt>
      <trkpt lat="46.52773" lon="3.32586">
        <ele>217.88</ele>
        <time>2021-08-13T16:07:15Z</time>
      </trkpt>
      <trkpt lat="46.52758" lon="3.32576">
        <ele>217.88</ele>
        <time>2021-08-13T16:07:21Z</time>
      </trkpt>
      <trkpt lat="46.5274" lon="3.32565">
        <ele>217.88</ele>
        <time>2021-08-13T16:07:27Z</time>
      </trkpt>
      <trkpt lat="46.5272" lon="3.32545">
        <ele>217.88</ele>
        <time>2021-08-13T16:07:35Z</time>
      </trkpt>
      <trkpt lat="46.52702" lon="3.32522">
        <ele>217.88</ele>
        <time>2021-08-13T16:07:42Z</time>
      </trkpt>
      <trkpt lat="46.52683" lon="3.32497">
        <ele>218.36</ele>
        <time>2021-08-13T16:07:50Z</time>
      </trkpt>
      <trkpt lat="46.52666" lon="3.32482">
        <ele>218.36</ele>
        <time>2021-08-13T16:07:56Z</time>
      </trkpt>
      <trkpt lat="46.52646" lon="3.32467">
        <ele>218.36</ele>
        <time>2021-08-13T16:08:03Z</time>
      </trkpt>
      <trkpt lat="46.52619" lon="3.32448">
        <ele>218.36</ele>
        <time>2021-08-13T16:08:12Z</time>
      </trkpt>
      <trkpt lat="46.52596" lon="3.32439">
        <ele>218.36</ele>
        <time>2021-08-13T16:08:18Z</time>
      </trkpt>
      <trkpt lat="46.52575" lon="3.32432">
        <ele>218.36</ele>
        <time>2021-08-13T16:08:24Z</time>
      </trkpt>
      <trkpt lat="46.52546" lon="3.32431">
        <ele>218.36</ele>
        <time>2021-08-13T16:08:32Z</time>
      </trkpt>
      <trkpt lat="46.52521" lon="3.32439">
        <ele>218.36</ele>
        <time>2021-08-13T16:08:39Z</time>
      </trkpt>
      <trkpt lat="46.52503" lon="3.32445">
        <ele>218.36</ele>
        <time>2021-08-13T16:08:45Z</time>
      </trkpt>
      <trkpt lat="46.52483" lon="3.32446">
        <ele>218.36</ele>
        <time>2021-08-13T16:08:52Z</time>
      </trkpt>
      <trkpt lat="46.52456" lon="3.32453">
        <ele>218.36</ele>
        <time>2021-08-13T16:09:00Z</time>
      </trkpt>
      <trkpt lat="46.52432" lon="3.32466">
        <ele>218.36</ele>
        <time>2021-08-13T16:09:07Z</time>
      </trkpt>
      <trkpt lat="46.5241" lon="3.32478">
        <ele>216.91</ele>
        <time>2021-08-13T16:09:13Z</time>
      </trkpt>
      <trkpt lat="46.524" lon="3.32481">
        <ele>218.36</ele>
        <time>2021-08-13T16:09:16Z</time>
      </trkpt>
      <trkpt lat="46.52384" lon="3.32492">
        <ele>218.36</ele>
        <time>2021-08-13T16:09:21Z</time>
      </trkpt>
      <trkpt lat="46.52378" lon="3.32496">
        <ele>218.36</ele>
        <time>2021-08-13T16:09:23Z</time>
      </trkpt>
      <trkpt lat="46.52368" lon="3.32499">
        <ele>218.36</ele>
        <time>2021-08-13T16:09:26Z</time>
      </trkpt>
      <trkpt lat="46.52365" lon="3.32502">
        <ele>218.36</ele>
        <time>2021-08-13T16:09:27Z</time>
      </trkpt>
      <trkpt lat="46.52362" lon="3.32505">
        <ele>218.36</ele>
        <time>2021-08-13T16:09:28Z</time>
      </trkpt>
      <trkpt lat="46.52358" lon="3.32507">
        <ele>218.36</ele>
        <time>2021-08-13T16:09:29Z</time>
      </trkpt>
      <trkpt lat="46.52355" lon="3.32507">
        <ele>218.36</ele>
        <time>2021-08-13T16:09:30Z</time>
      </trkpt>
      <trkpt lat="46.52351" lon="3.32507">
        <ele>218.36</ele>
        <time>2021-08-13T16:09:31Z</time>
      </trkpt>
      <trkpt lat="46.52348" lon="3.32507">
        <ele>218.36</ele>
        <time>2021-08-13T16:09:32Z</time>
      </trkpt>
      <trkpt lat="46.52332" lon="3.32514">
        <ele>218.36</ele>
        <time>2021-08-13T16:09:37Z</time>
      </trkpt>
      <trkpt lat="46.52328" lon="3.32515">
        <ele>218.36</ele>
        <time>2021-08-13T16:09:38Z</time>
      </trkpt>
      <trkpt lat="46.52325" lon="3.32515">
        <ele>218.36</ele>
        <time>2021-08-13T16:09:39Z</time>
      </trkpt>
      <trkpt lat="46.52322" lon="3.32516">
        <ele>218.36</ele>
        <time>2021-08-13T16:09:40Z</time>
      </trkpt>
      <trkpt lat="46.52318" lon="3.32516">
        <ele>218.36</ele>
        <time>2021-08-13T16:09:41Z</time>
      </trkpt>
      <trkpt lat="46.52315" lon="3.32516">
        <ele>218.36</ele>
        <time>2021-08-13T16:09:42Z</time>
      </trkpt>
      <trkpt lat="46.52287" lon="3.32518">
        <ele>218.36</ele>
        <time>2021-08-13T16:09:50Z</time>
      </trkpt>
      <trkpt lat="46.52268" lon="3.32518">
        <ele>218.36</ele>
        <time>2021-08-13T16:09:56Z</time>
      </trkpt>
      <trkpt lat="46.52248" lon="3.32517">
        <ele>218.36</ele>
        <time>2021-08-13T16:10:03Z</time>
      </trkpt>
      <trkpt lat="46.52234" lon="3.32517">
        <ele>218.36</ele>
        <time>2021-08-13T16:10:07Z</time>
      </trkpt>
      <trkpt lat="46.5223" lon="3.32519">
        <ele>218.36</ele>
        <time>2021-08-13T16:10:08Z</time>
      </trkpt>
      <trkpt lat="46.52227" lon="3.32521">
        <ele>218.36</ele>
        <time>2021-08-13T16:10:09Z</time>
      </trkpt>
      <trkpt lat="46.52224" lon="3.32522">
        <ele>218.36</ele>
        <time>2021-08-13T16:10:10Z</time>
      </trkpt>
      <trkpt lat="46.52221" lon="3.32522">
        <ele>218.36</ele>
        <time>2021-08-13T16:10:11Z</time>
      </trkpt>
      <trkpt lat="46.52204" lon="3.32527">
        <ele>218.36</ele>
        <time>2021-08-13T16:10:17Z</time>
      </trkpt>
      <trkpt lat="46.52203" lon="3.3253">
        <ele>218.36</ele>
        <time>2021-08-13T16:10:18Z</time>
      </trkpt>
      <trkpt lat="46.52202" lon="3.32532">
        <ele>218.36</ele>
        <time>2021-08-13T16:10:19Z</time>
      </trkpt>
      <trkpt lat="46.52202" lon="3.32535">
        <ele>218.36</ele>
        <time>2021-08-13T16:10:20Z</time>
      </trkpt>
      <trkpt lat="46.52201" lon="3.32538">
        <ele>216.91</ele>
        <time>2021-08-13T16:10:21Z</time>
      </trkpt>
      <trkpt lat="46.52201" lon="3.32542">
        <ele>216.91</ele>
        <time>2021-08-13T16:10:22Z</time>
      </trkpt>
      <trkpt lat="46.52202" lon="3.32546">
        <ele>216.91</ele>
        <time>2021-08-13T16:10:23Z</time>
      </trkpt>
      <trkpt lat="46.52203" lon="3.32549">
        <ele>216.43</ele>
        <time>2021-08-13T16:10:24Z</time>
      </trkpt>
      <trkpt lat="46.52203" lon="3.32553">
        <ele>216.43</ele>
        <time>2021-08-13T16:10:25Z</time>
      </trkpt>
      <trkpt lat="46.52204" lon="3.32557">
        <ele>216.43</ele>
        <time>2021-08-13T16:10:26Z</time>
      </trkpt>
      <trkpt lat="46.52203" lon="3.32561">
        <ele>216.43</ele>
        <time>2021-08-13T16:10:27Z</time>
      </trkpt>
      <trkpt lat="46.52203" lon="3.32565">
        <ele>215.95</ele>
        <time>2021-08-13T16:10:28Z</time>
      </trkpt>
      <trkpt lat="46.522" lon="3.32591">
        <ele>215.95</ele>
        <time>2021-08-13T16:10:34Z</time>
      </trkpt>
      <trkpt lat="46.52201" lon="3.32595">
        <ele>215.95</ele>
        <time>2021-08-13T16:10:35Z</time>
      </trkpt>
      <trkpt lat="46.52202" lon="3.326">
        <ele>215.95</ele>
        <time>2021-08-13T16:10:36Z</time>
      </trkpt>
      <trkpt lat="46.52203" lon="3.32603">
        <ele>215.95</ele>
        <time>2021-08-13T16:10:37Z</time>
      </trkpt>
      <trkpt lat="46.52204" lon="3.32607">
        <ele>215.95</ele>
        <time>2021-08-13T16:10:38Z</time>
      </trkpt>
      <trkpt lat="46.52204" lon="3.32611">
        <ele>215.95</ele>
        <time>2021-08-13T16:10:39Z</time>
      </trkpt>
      <trkpt lat="46.52204" lon="3.32615">
        <ele>215.95</ele>
        <time>2021-08-13T16:10:40Z</time>
      </trkpt>
      <trkpt lat="46.52203" lon="3.32619">
        <ele>215.95</ele>
        <time>2021-08-13T16:10:41Z</time>
      </trkpt>
      <trkpt lat="46.52201" lon="3.32624">
        <ele>215.95</ele>
        <time>2021-08-13T16:10:42Z</time>
      </trkpt>
      <trkpt lat="46.52199" lon="3.32627">
        <ele>215.95</ele>
        <time>2021-08-13T16:10:43Z</time>
      </trkpt>
      <trkpt lat="46.52197" lon="3.32631">
        <ele>215.95</ele>
        <time>2021-08-13T16:10:44Z</time>
      </trkpt>
      <trkpt lat="46.52195" lon="3.32635">
        <ele>215.95</ele>
        <time>2021-08-13T16:10:45Z</time>
      </trkpt>
      <trkpt lat="46.52192" lon="3.32639">
        <ele>215.95</ele>
        <time>2021-08-13T16:10:46Z</time>
      </trkpt>
      <trkpt lat="46.52182" lon="3.32669">
        <ele>215.95</ele>
        <time>2021-08-13T16:10:53Z</time>
      </trkpt>
      <trkpt lat="46.52184" lon="3.32674">
        <ele>215.95</ele>
        <time>2021-08-13T16:10:54Z</time>
      </trkpt>
      <trkpt lat="46.52189" lon="3.32703">
        <ele>215.95</ele>
        <time>2021-08-13T16:11:00Z</time>
      </trkpt>
      <trkpt lat="46.52178" lon="3.32724">
        <ele>215.95</ele>
        <time>2021-08-13T16:11:05Z</time>
      </trkpt>
      <trkpt lat="46.52168" lon="3.32743">
        <ele>215.95</ele>
        <time>2021-08-13T16:11:10Z</time>
      </trkpt>
      <trkpt lat="46.52149" lon="3.32763">
        <ele>215.95</ele>
        <time>2021-08-13T16:11:16Z</time>
      </trkpt>
      <trkpt lat="46.52142" lon="3.32768">
        <ele>216.91</ele>
        <time>2021-08-13T16:11:18Z</time>
      </trkpt>
      <trkpt lat="46.52118" lon="3.3278">
        <ele>216.91</ele>
        <time>2021-08-13T16:11:25Z</time>
      </trkpt>
      <trkpt lat="46.52085" lon="3.32795">
        <ele>216.91</ele>
        <time>2021-08-13T16:11:34Z</time>
      </trkpt>
      <trkpt lat="46.5207" lon="3.32793">
        <ele>217.4</ele>
        <time>2021-08-13T16:11:38Z</time>
      </trkpt>
      <trkpt lat="46.52046" lon="3.32788">
        <ele>216.91</ele>
        <time>2021-08-13T16:11:44Z</time>
      </trkpt>
      <trkpt lat="46.52043" lon="3.32786">
        <ele>216.91</ele>
        <time>2021-08-13T16:11:45Z</time>
      </trkpt>
      <trkpt lat="46.52039" lon="3.32783">
        <ele>216.91</ele>
        <time>2021-08-13T16:11:46Z</time>
      </trkpt>
      <trkpt lat="46.52036" lon="3.32779">
        <ele>216.91</ele>
        <time>2021-08-13T16:11:47Z</time>
      </trkpt>
      <trkpt lat="46.52033" lon="3.32775">
        <ele>216.91</ele>
        <time>2021-08-13T16:11:48Z</time>
      </trkpt>
      <trkpt lat="46.52018" lon="3.32765">
        <ele>217.4</ele>
        <time>2021-08-13T16:11:52Z</time>
      </trkpt>
      <trkpt lat="46.52014" lon="3.32764">
        <ele>216.91</ele>
        <time>2021-08-13T16:11:53Z</time>
      </trkpt>
      <trkpt lat="46.5201" lon="3.32765">
        <ele>217.4</ele>
        <time>2021-08-13T16:11:54Z</time>
      </trkpt>
      <trkpt lat="46.52002" lon="3.32766">
        <ele>217.4</ele>
        <time>2021-08-13T16:11:56Z</time>
      </trkpt>
      <trkpt lat="46.51998" lon="3.32764">
        <ele>217.4</ele>
        <time>2021-08-13T16:11:57Z</time>
      </trkpt>
      <trkpt lat="46.51995" lon="3.32761">
        <ele>217.4</ele>
        <time>2021-08-13T16:11:58Z</time>
      </trkpt>
      <trkpt lat="46.51991" lon="3.32757">
        <ele>217.4</ele>
        <time>2021-08-13T16:11:59Z</time>
      </trkpt>
      <trkpt lat="46.51988" lon="3.32754">
        <ele>217.4</ele>
        <time>2021-08-13T16:12:00Z</time>
      </trkpt>
      <trkpt lat="46.51969" lon="3.32751">
        <ele>217.4</ele>
        <time>2021-08-13T16:12:05Z</time>
      </trkpt>
      <trkpt lat="46.51965" lon="3.32753">
        <ele>217.4</ele>
        <time>2021-08-13T16:12:06Z</time>
      </trkpt>
      <trkpt lat="46.51945" lon="3.32765">
        <ele>217.4</ele>
        <time>2021-08-13T16:12:11Z</time>
      </trkpt>
      <trkpt lat="46.51932" lon="3.3277">
        <ele>217.4</ele>
        <time>2021-08-13T16:12:14Z</time>
      </trkpt>
      <trkpt lat="46.51895" lon="3.32778">
        <ele>217.88</ele>
        <time>2021-08-13T16:12:22Z</time>
      </trkpt>
      <trkpt lat="46.5186" lon="3.32804">
        <ele>217.88</ele>
        <time>2021-08-13T16:12:31Z</time>
      </trkpt>
      <trkpt lat="46.51853" lon="3.32811">
        <ele>217.88</ele>
        <time>2021-08-13T16:12:33Z</time>
      </trkpt>
      <trkpt lat="46.51849" lon="3.32813">
        <ele>217.88</ele>
        <time>2021-08-13T16:12:34Z</time>
      </trkpt>
      <trkpt lat="46.51845" lon="3.32815">
        <ele>217.88</ele>
        <time>2021-08-13T16:12:35Z</time>
      </trkpt>
      <trkpt lat="46.5184" lon="3.32815">
        <ele>217.88</ele>
        <time>2021-08-13T16:12:36Z</time>
      </trkpt>
      <trkpt lat="46.51836" lon="3.32815">
        <ele>217.88</ele>
        <time>2021-08-13T16:12:37Z</time>
      </trkpt>
      <trkpt lat="46.51831" lon="3.32817">
        <ele>217.88</ele>
        <time>2021-08-13T16:12:38Z</time>
      </trkpt>
      <trkpt lat="46.51823" lon="3.3282">
        <ele>217.88</ele>
        <time>2021-08-13T16:12:40Z</time>
      </trkpt>
      <trkpt lat="46.51819" lon="3.32821">
        <ele>217.88</ele>
        <time>2021-08-13T16:12:41Z</time>
      </trkpt>
      <trkpt lat="46.51815" lon="3.3282">
        <ele>217.88</ele>
        <time>2021-08-13T16:12:42Z</time>
      </trkpt>
      <trkpt lat="46.51811" lon="3.32818">
        <ele>217.88</ele>
        <time>2021-08-13T16:12:43Z</time>
      </trkpt>
      <trkpt lat="46.51808" lon="3.32815">
        <ele>217.88</ele>
        <time>2021-08-13T16:12:44Z</time>
      </trkpt>
      <trkpt lat="46.51805" lon="3.3281">
        <ele>217.88</ele>
        <time>2021-08-13T16:12:45Z</time>
      </trkpt>
      <trkpt lat="46.51803" lon="3.32806">
        <ele>217.88</ele>
        <time>2021-08-13T16:12:46Z</time>
      </trkpt>
      <trkpt lat="46.51801" lon="3.32801">
        <ele>217.88</ele>
        <time>2021-08-13T16:12:47Z</time>
      </trkpt>
      <trkpt lat="46.51799" lon="3.32797">
        <ele>217.88</ele>
        <time>2021-08-13T16:12:48Z</time>
      </trkpt>
      <trkpt lat="46.51796" lon="3.32793">
        <ele>217.88</ele>
        <time>2021-08-13T16:12:49Z</time>
      </trkpt>
      <trkpt lat="46.51793" lon="3.32791">
        <ele>217.88</ele>
        <time>2021-08-13T16:12:50Z</time>
      </trkpt>
      <trkpt lat="46.51789" lon="3.32789">
        <ele>217.88</ele>
        <time>2021-08-13T16:12:51Z</time>
      </trkpt>
      <trkpt lat="46.51786" lon="3.32786">
        <ele>217.88</ele>
        <time>2021-08-13T16:12:52Z</time>
      </trkpt>
      <trkpt lat="46.51784" lon="3.32784">
        <ele>218.36</ele>
        <time>2021-08-13T16:12:53Z</time>
      </trkpt>
      <trkpt lat="46.51781" lon="3.32782">
        <ele>218.36</ele>
        <time>2021-08-13T16:12:54Z</time>
      </trkpt>
      <trkpt lat="46.51778" lon="3.32779">
        <ele>218.36</ele>
        <time>2021-08-13T16:12:55Z</time>
      </trkpt>
      <trkpt lat="46.51777" lon="3.32775">
        <ele>218.36</ele>
        <time>2021-08-13T16:12:56Z</time>
      </trkpt>
      <trkpt lat="46.51771" lon="3.32768">
        <ele>218.36</ele>
        <time>2021-08-13T16:12:58Z</time>
      </trkpt>
      <trkpt lat="46.51767" lon="3.32765">
        <ele>218.36</ele>
        <time>2021-08-13T16:12:59Z</time>
      </trkpt>
      <trkpt lat="46.51764" lon="3.32764">
        <ele>218.36</ele>
        <time>2021-08-13T16:13:00Z</time>
      </trkpt>
      <trkpt lat="46.5176" lon="3.32762">
        <ele>218.36</ele>
        <time>2021-08-13T16:13:01Z</time>
      </trkpt>
      <trkpt lat="46.51757" lon="3.32759">
        <ele>218.36</ele>
        <time>2021-08-13T16:13:02Z</time>
      </trkpt>
      <trkpt lat="46.51755" lon="3.32755">
        <ele>218.36</ele>
        <time>2021-08-13T16:13:03Z</time>
      </trkpt>
      <trkpt lat="46.51752" lon="3.32751">
        <ele>218.36</ele>
        <time>2021-08-13T16:13:04Z</time>
      </trkpt>
      <trkpt lat="46.5175" lon="3.32747">
        <ele>218.36</ele>
        <time>2021-08-13T16:13:05Z</time>
      </trkpt>
      <trkpt lat="46.51747" lon="3.32743">
        <ele>218.36</ele>
        <time>2021-08-13T16:13:06Z</time>
      </trkpt>
      <trkpt lat="46.51734" lon="3.32723">
        <ele>218.36</ele>
        <time>2021-08-13T16:13:11Z</time>
      </trkpt>
      <trkpt lat="46.51719" lon="3.32718">
        <ele>218.36</ele>
        <time>2021-08-13T16:13:15Z</time>
      </trkpt>
      <trkpt lat="46.51713" lon="3.32711">
        <ele>218.36</ele>
        <time>2021-08-13T16:13:17Z</time>
      </trkpt>
      <trkpt lat="46.5171" lon="3.3271">
        <ele>218.36</ele>
        <time>2021-08-13T16:13:18Z</time>
      </trkpt>
      <trkpt lat="46.51706" lon="3.3271">
        <ele>218.36</ele>
        <time>2021-08-13T16:13:19Z</time>
      </trkpt>
      <trkpt lat="46.51702" lon="3.3271">
        <ele>218.36</ele>
        <time>2021-08-13T16:13:20Z</time>
      </trkpt>
      <trkpt lat="46.51698" lon="3.32711">
        <ele>218.36</ele>
        <time>2021-08-13T16:13:21Z</time>
      </trkpt>
      <trkpt lat="46.51694" lon="3.32711">
        <ele>218.36</ele>
        <time>2021-08-13T16:13:22Z</time>
      </trkpt>
      <trkpt lat="46.51691" lon="3.32708">
        <ele>218.36</ele>
        <time>2021-08-13T16:13:23Z</time>
      </trkpt>
      <trkpt lat="46.51687" lon="3.32706">
        <ele>218.36</ele>
        <time>2021-08-13T16:13:24Z</time>
      </trkpt>
      <trkpt lat="46.51683" lon="3.32705">
        <ele>218.36</ele>
        <time>2021-08-13T16:13:25Z</time>
      </trkpt>
      <trkpt lat="46.51679" lon="3.32705">
        <ele>218.36</ele>
        <time>2021-08-13T16:13:26Z</time>
      </trkpt>
      <trkpt lat="46.51672" lon="3.32705">
        <ele>218.36</ele>
        <time>2021-08-13T16:13:30Z</time>
      </trkpt>
      <trkpt lat="46.51672" lon="3.32704">
        <ele>218.36</ele>
        <time>2021-08-13T16:13:40Z</time>
      </trkpt>
      <trkpt lat="46.51671" lon="3.32705">
        <ele>218.36</ele>
        <time>2021-08-13T16:13:48Z</time>
      </trkpt>
      <trkpt lat="46.5167" lon="3.32705">
        <ele>218.36</ele>
        <time>2021-08-13T16:13:57Z</time>
      </trkpt>
      <trkpt lat="46.51668" lon="3.32703">
        <ele>218.36</ele>
        <time>2021-08-13T16:14:00Z</time>
      </trkpt>
      <trkpt lat="46.51667" lon="3.32702">
        <ele>218.36</ele>
        <time>2021-08-13T16:14:01Z</time>
      </trkpt>
      <trkpt lat="46.51666" lon="3.32701">
        <ele>218.36</ele>
        <time>2021-08-13T16:14:02Z</time>
      </trkpt>
      <trkpt lat="46.51661" lon="3.32699">
        <ele>219.32</ele>
        <time>2021-08-13T16:14:09Z</time>
      </trkpt>
      <trkpt lat="46.51659" lon="3.32698">
        <ele>219.32</ele>
        <time>2021-08-13T16:14:14Z</time>
      </trkpt>
      <trkpt lat="46.51658" lon="3.32697">
        <ele>219.32</ele>
        <time>2021-08-13T16:14:22Z</time>
      </trkpt>
      <trkpt lat="46.51654" lon="3.32696">
        <ele>218.84</ele>
        <time>2021-08-13T16:14:30Z</time>
      </trkpt>
      <trkpt lat="46.51653" lon="3.32694">
        <ele>218.84</ele>
        <time>2021-08-13T16:14:41Z</time>
      </trkpt>
      <trkpt lat="46.51653" lon="3.32694">
        <ele>218.84</ele>
        <time>2021-08-13T16:14:50Z</time>
      </trkpt>
      <trkpt lat="46.51647" lon="3.32692">
        <ele>218.84</ele>
        <time>2021-08-13T16:14:55Z</time>
      </trkpt>
      <trkpt lat="46.5164" lon="3.32689">
        <ele>218.84</ele>
        <time>2021-08-13T16:15:00Z</time>
      </trkpt>
      <trkpt lat="46.51639" lon="3.32688">
        <ele>218.84</ele>
        <time>2021-08-13T16:15:09Z</time>
      </trkpt>
      <trkpt lat="46.51637" lon="3.32688">
        <ele>218.84</ele>
        <time>2021-08-13T16:15:10Z</time>
      </trkpt>
      <trkpt lat="46.51635" lon="3.32687">
        <ele>218.84</ele>
        <time>2021-08-13T16:15:11Z</time>
      </trkpt>
      <trkpt lat="46.51633" lon="3.32686">
        <ele>218.84</ele>
        <time>2021-08-13T16:15:12Z</time>
      </trkpt>
      <trkpt lat="46.51629" lon="3.32685">
        <ele>218.84</ele>
        <time>2021-08-13T16:15:13Z</time>
      </trkpt>
      <trkpt lat="46.51626" lon="3.32684">
        <ele>218.84</ele>
        <time>2021-08-13T16:15:14Z</time>
      </trkpt>
      <trkpt lat="46.51612" lon="3.32669">
        <ele>218.84</ele>
        <time>2021-08-13T16:15:20Z</time>
      </trkpt>
      <trkpt lat="46.51597" lon="3.32648">
        <ele>218.84</ele>
        <time>2021-08-13T16:15:26Z</time>
      </trkpt>
      <trkpt lat="46.51588" lon="3.32636">
        <ele>218.84</ele>
        <time>2021-08-13T16:15:29Z</time>
      </trkpt>
      <trkpt lat="46.51585" lon="3.32631">
        <ele>218.84</ele>
        <time>2021-08-13T16:15:30Z</time>
      </trkpt>
      <trkpt lat="46.51571" lon="3.32608">
        <ele>218.84</ele>
        <time>2021-08-13T16:15:36Z</time>
      </trkpt>
      <trkpt lat="46.51569" lon="3.32607">
        <ele>218.84</ele>
        <time>2021-08-13T16:15:37Z</time>
      </trkpt>
      <trkpt lat="46.51566" lon="3.32605">
        <ele>218.84</ele>
        <time>2021-08-13T16:15:38Z</time>
      </trkpt>
      <trkpt lat="46.5155" lon="3.32586">
        <ele>218.84</ele>
        <time>2021-08-13T16:15:44Z</time>
      </trkpt>
      <trkpt lat="46.51532" lon="3.32577">
        <ele>218.84</ele>
        <time>2021-08-13T16:15:50Z</time>
      </trkpt>
      <trkpt lat="46.51531" lon="3.32575">
        <ele>218.84</ele>
        <time>2021-08-13T16:15:55Z</time>
      </trkpt>
      <trkpt lat="46.51531" lon="3.32573">
        <ele>218.84</ele>
        <time>2021-08-13T16:16:08Z</time>
      </trkpt>
      <trkpt lat="46.51529" lon="3.32573">
        <ele>218.84</ele>
        <time>2021-08-13T16:16:26Z</time>
      </trkpt>
      <trkpt lat="46.51516" lon="3.32567">
        <ele>218.84</ele>
        <time>2021-08-13T16:16:33Z</time>
      </trkpt>
      <trkpt lat="46.5149" lon="3.32562">
        <ele>218.84</ele>
        <time>2021-08-13T16:16:41Z</time>
      </trkpt>
      <trkpt lat="46.51466" lon="3.32558">
        <ele>218.84</ele>
        <time>2021-08-13T16:16:47Z</time>
      </trkpt>
      <trkpt lat="46.51444" lon="3.32555">
        <ele>218.84</ele>
        <time>2021-08-13T16:16:54Z</time>
      </trkpt>
      <trkpt lat="46.5142" lon="3.32556">
        <ele>218.84</ele>
        <time>2021-08-13T16:17:01Z</time>
      </trkpt>
      <trkpt lat="46.51394" lon="3.32564">
        <ele>218.84</ele>
        <time>2021-08-13T16:17:08Z</time>
      </trkpt>
      <trkpt lat="46.51366" lon="3.3257">
        <ele>218.84</ele>
        <time>2021-08-13T16:17:15Z</time>
      </trkpt>
      <trkpt lat="46.51341" lon="3.3258">
        <ele>219.32</ele>
        <time>2021-08-13T16:17:22Z</time>
      </trkpt>
      <trkpt lat="46.51322" lon="3.32582">
        <ele>219.32</ele>
        <time>2021-08-13T16:17:27Z</time>
      </trkpt>
      <trkpt lat="46.5131" lon="3.32585">
        <ele>219.32</ele>
        <time>2021-08-13T16:17:30Z</time>
      </trkpt>
      <trkpt lat="46.51301" lon="3.32584">
        <ele>219.32</ele>
        <time>2021-08-13T16:17:32Z</time>
      </trkpt>
      <trkpt lat="46.51298" lon="3.32581">
        <ele>219.32</ele>
        <time>2021-08-13T16:17:33Z</time>
      </trkpt>
      <trkpt lat="46.51295" lon="3.32577">
        <ele>219.32</ele>
        <time>2021-08-13T16:17:34Z</time>
      </trkpt>
      <trkpt lat="46.51285" lon="3.32551">
        <ele>219.8</ele>
        <time>2021-08-13T16:17:41Z</time>
      </trkpt>
      <trkpt lat="46.51273" lon="3.32524">
        <ele>219.8</ele>
        <time>2021-08-13T16:17:48Z</time>
      </trkpt>
      <trkpt lat="46.51256" lon="3.3248">
        <ele>219.8</ele>
        <time>2021-08-13T16:17:57Z</time>
      </trkpt>
      <trkpt lat="46.51237" lon="3.32437">
        <ele>219.8</ele>
        <time>2021-08-13T16:18:06Z</time>
      </trkpt>
      <trkpt lat="46.51219" lon="3.32388">
        <ele>220.76</ele>
        <time>2021-08-13T16:18:16Z</time>
      </trkpt>
      <trkpt lat="46.51204" lon="3.32344">
        <ele>220.76</ele>
        <time>2021-08-13T16:18:25Z</time>
      </trkpt>
      <trkpt lat="46.51188" lon="3.32293">
        <ele>221.72</ele>
        <time>2021-08-13T16:18:36Z</time>
      </trkpt>
      <trkpt lat="46.5118" lon="3.32252">
        <ele>222.2</ele>
        <time>2021-08-13T16:18:45Z</time>
      </trkpt>
      <trkpt lat="46.5118" lon="3.32207">
        <ele>223.16</ele>
        <time>2021-08-13T16:18:55Z</time>
      </trkpt>
      <trkpt lat="46.51181" lon="3.32169">
        <ele>224.61</ele>
        <time>2021-08-13T16:19:04Z</time>
      </trkpt>
      <trkpt lat="46.51178" lon="3.32167">
        <ele>224.61</ele>
        <time>2021-08-13T16:19:05Z</time>
      </trkpt>
      <trkpt lat="46.51175" lon="3.32166">
        <ele>224.61</ele>
        <time>2021-08-13T16:19:06Z</time>
      </trkpt>
      <trkpt lat="46.51172" lon="3.32165">
        <ele>224.61</ele>
        <time>2021-08-13T16:19:07Z</time>
      </trkpt>
      <trkpt lat="46.51169" lon="3.32165">
        <ele>224.61</ele>
        <time>2021-08-13T16:19:08Z</time>
      </trkpt>
      <trkpt lat="46.51166" lon="3.32166">
        <ele>225.09</ele>
        <time>2021-08-13T16:19:09Z</time>
      </trkpt>
      <trkpt lat="46.51135" lon="3.3217">
        <ele>225.57</ele>
        <time>2021-08-13T16:19:17Z</time>
      </trkpt>
      <trkpt lat="46.51104" lon="3.32166">
        <ele>225.57</ele>
        <time>2021-08-13T16:19:25Z</time>
      </trkpt>
      <trkpt lat="46.511" lon="3.32164">
        <ele>225.57</ele>
        <time>2021-08-13T16:19:26Z</time>
      </trkpt>
      <trkpt lat="46.51071" lon="3.32145">
        <ele>226.05</ele>
        <time>2021-08-13T16:19:34Z</time>
      </trkpt>
      <trkpt lat="46.51026" lon="3.32123">
        <ele>226.05</ele>
        <time>2021-08-13T16:19:45Z</time>
      </trkpt>
      <trkpt lat="46.50985" lon="3.3212">
        <ele>226.05</ele>
        <time>2021-08-13T16:19:54Z</time>
      </trkpt>
      <trkpt lat="46.5095" lon="3.32112">
        <ele>226.05</ele>
        <time>2021-08-13T16:20:02Z</time>
      </trkpt>
      <trkpt lat="46.50941" lon="3.3211">
        <ele>226.05</ele>
        <time>2021-08-13T16:20:04Z</time>
      </trkpt>
      <trkpt lat="46.50892" lon="3.3208">
        <ele>226.05</ele>
        <time>2021-08-13T16:20:16Z</time>
      </trkpt>
      <trkpt lat="46.50851" lon="3.32053">
        <ele>226.05</ele>
        <time>2021-08-13T16:20:26Z</time>
      </trkpt>
      <trkpt lat="46.50847" lon="3.32051">
        <ele>226.05</ele>
        <time>2021-08-13T16:20:27Z</time>
      </trkpt>
      <trkpt lat="46.50838" lon="3.32049">
        <ele>226.05</ele>
        <time>2021-08-13T16:20:29Z</time>
      </trkpt>
      <trkpt lat="46.50829" lon="3.32049">
        <ele>226.05</ele>
        <time>2021-08-13T16:20:31Z</time>
      </trkpt>
      <trkpt lat="46.50812" lon="3.32052">
        <ele>226.05</ele>
        <time>2021-08-13T16:20:35Z</time>
      </trkpt>
      <trkpt lat="46.50808" lon="3.32054">
        <ele>226.05</ele>
        <time>2021-08-13T16:20:36Z</time>
      </trkpt>
      <trkpt lat="46.50804" lon="3.32054">
        <ele>226.05</ele>
        <time>2021-08-13T16:20:37Z</time>
      </trkpt>
      <trkpt lat="46.50784" lon="3.3206">
        <ele>226.05</ele>
        <time>2021-08-13T16:20:43Z</time>
      </trkpt>
      <trkpt lat="46.50761" lon="3.32067">
        <ele>226.05</ele>
        <time>2021-08-13T16:20:50Z</time>
      </trkpt>
      <trkpt lat="46.50746" lon="3.32063">
        <ele>226.05</ele>
        <time>2021-08-13T16:20:55Z</time>
      </trkpt>
      <trkpt lat="46.50725" lon="3.32057">
        <ele>226.05</ele>
        <time>2021-08-13T16:21:01Z</time>
      </trkpt>
      <trkpt lat="46.50701" lon="3.32056">
        <ele>226.05</ele>
        <time>2021-08-13T16:21:07Z</time>
      </trkpt>
      <trkpt lat="46.50674" lon="3.32062">
        <ele>226.05</ele>
        <time>2021-08-13T16:21:14Z</time>
      </trkpt>
      <trkpt lat="46.50622" lon="3.32066">
        <ele>226.05</ele>
        <time>2021-08-13T16:21:27Z</time>
      </trkpt>
      <trkpt lat="46.5059" lon="3.32068">
        <ele>226.05</ele>
        <time>2021-08-13T16:21:36Z</time>
      </trkpt>
      <trkpt lat="46.5054" lon="3.3207">
        <ele>226.05</ele>
        <time>2021-08-13T16:21:49Z</time>
      </trkpt>
      <trkpt lat="46.505" lon="3.32072">
        <ele>225.57</ele>
        <time>2021-08-13T16:21:59Z</time>
      </trkpt>
      <trkpt lat="46.50457" lon="3.32079">
        <ele>226.05</ele>
        <time>2021-08-13T16:22:10Z</time>
      </trkpt>
      <trkpt lat="46.50414" lon="3.32087">
        <ele>225.57</ele>
        <time>2021-08-13T16:22:21Z</time>
      </trkpt>
      <trkpt lat="46.50398" lon="3.3209">
        <ele>225.57</ele>
        <time>2021-08-13T16:22:27Z</time>
      </trkpt>
      <trkpt lat="46.50389" lon="3.32084">
        <ele>225.57</ele>
        <time>2021-08-13T16:22:32Z</time>
      </trkpt>
      <trkpt lat="46.50388" lon="3.32081">
        <ele>225.57</ele>
        <time>2021-08-13T16:22:33Z</time>
      </trkpt>
      <trkpt lat="46.50375" lon="3.32052">
        <ele>225.57</ele>
        <time>2021-08-13T16:22:41Z</time>
      </trkpt>
      <trkpt lat="46.50354" lon="3.32008">
        <ele>225.57</ele>
        <time>2021-08-13T16:22:52Z</time>
      </trkpt>
      <trkpt lat="46.50339" lon="3.31972">
        <ele>225.57</ele>
        <time>2021-08-13T16:23:00Z</time>
      </trkpt>
      <trkpt lat="46.50326" lon="3.31931">
        <ele>227.01</ele>
        <time>2021-08-13T16:23:09Z</time>
      </trkpt>
      <trkpt lat="46.50319" lon="3.31871">
        <ele>227.49</ele>
        <time>2021-08-13T16:23:21Z</time>
      </trkpt>
      <trkpt lat="46.5032" lon="3.31839">
        <ele>227.97</ele>
        <time>2021-08-13T16:23:28Z</time>
      </trkpt>
      <trkpt lat="46.50326" lon="3.31803">
        <ele>228.93</ele>
        <time>2021-08-13T16:23:37Z</time>
      </trkpt>
      <trkpt lat="46.5033" lon="3.31784">
        <ele>229.41</ele>
        <time>2021-08-13T16:23:43Z</time>
      </trkpt>
      <trkpt lat="46.50335" lon="3.31766">
        <ele>230.37</ele>
        <time>2021-08-13T16:23:49Z</time>
      </trkpt>
      <trkpt lat="46.50345" lon="3.31728">
        <ele>231.81</ele>
        <time>2021-08-13T16:23:59Z</time>
      </trkpt>
      <trkpt lat="46.5035" lon="3.31709">
        <ele>233.74</ele>
        <time>2021-08-13T16:24:06Z</time>
      </trkpt>
      <trkpt lat="46.50355" lon="3.31686">
        <ele>235.66</ele>
        <time>2021-08-13T16:24:14Z</time>
      </trkpt>
      <trkpt lat="46.50355" lon="3.31682">
        <ele>236.14</ele>
        <time>2021-08-13T16:24:16Z</time>
      </trkpt>
      <trkpt lat="46.50356" lon="3.31679">
        <ele>236.14</ele>
        <time>2021-08-13T16:24:17Z</time>
      </trkpt>
      <trkpt lat="46.50361" lon="3.31656">
        <ele>238.06</ele>
        <time>2021-08-13T16:24:27Z</time>
      </trkpt>
      <trkpt lat="46.50363" lon="3.31653">
        <ele>238.06</ele>
        <time>2021-08-13T16:24:29Z</time>
      </trkpt>
      <trkpt lat="46.50364" lon="3.31651">
        <ele>238.06</ele>
        <time>2021-08-13T16:24:30Z</time>
      </trkpt>
      <trkpt lat="46.50365" lon="3.31646">
        <ele>238.06</ele>
        <time>2021-08-13T16:24:31Z</time>
      </trkpt>
      <trkpt lat="46.5037" lon="3.31622">
        <ele>238.06</ele>
        <time>2021-08-13T16:24:37Z</time>
      </trkpt>
      <trkpt lat="46.50374" lon="3.31597">
        <ele>238.06</ele>
        <time>2021-08-13T16:24:44Z</time>
      </trkpt>
      <trkpt lat="46.50377" lon="3.31559">
        <ele>239.02</ele>
        <time>2021-08-13T16:24:54Z</time>
      </trkpt>
      <trkpt lat="46.50379" lon="3.31529">
        <ele>239.51</ele>
        <time>2021-08-13T16:25:02Z</time>
      </trkpt>
      <trkpt lat="46.50375" lon="3.31486">
        <ele>239.99</ele>
        <time>2021-08-13T16:25:13Z</time>
      </trkpt>
      <trkpt lat="46.50368" lon="3.31448">
        <ele>240.47</ele>
        <time>2021-08-13T16:25:22Z</time>
      </trkpt>
      <trkpt lat="46.50359" lon="3.31403">
        <ele>240.95</ele>
        <time>2021-08-13T16:25:33Z</time>
      </trkpt>
      <trkpt lat="46.50357" lon="3.31363">
        <ele>241.43</ele>
        <time>2021-08-13T16:25:42Z</time>
      </trkpt>
      <trkpt lat="46.50359" lon="3.31316">
        <ele>241.91</ele>
        <time>2021-08-13T16:25:52Z</time>
      </trkpt>
      <trkpt lat="46.50361" lon="3.31283">
        <ele>242.39</ele>
        <time>2021-08-13T16:25:59Z</time>
      </trkpt>
      <trkpt lat="46.50364" lon="3.31247">
        <ele>243.35</ele>
        <time>2021-08-13T16:26:07Z</time>
      </trkpt>
      <trkpt lat="46.50363" lon="3.312">
        <ele>244.31</ele>
        <time>2021-08-13T16:26:18Z</time>
      </trkpt>
      <trkpt lat="46.50356" lon="3.31161">
        <ele>245.75</ele>
        <time>2021-08-13T16:26:28Z</time>
      </trkpt>
      <trkpt lat="46.50354" lon="3.31128">
        <ele>245.75</ele>
        <time>2021-08-13T16:26:36Z</time>
      </trkpt>
      <trkpt lat="46.50352" lon="3.3109">
        <ele>247.2</ele>
        <time>2021-08-13T16:26:45Z</time>
      </trkpt>
      <trkpt lat="46.5035" lon="3.31056">
        <ele>247.2</ele>
        <time>2021-08-13T16:26:53Z</time>
      </trkpt>
      <trkpt lat="46.5035" lon="3.31012">
        <ele>248.16</ele>
        <time>2021-08-13T16:27:03Z</time>
      </trkpt>
      <trkpt lat="46.5035" lon="3.30976">
        <ele>249.12</ele>
        <time>2021-08-13T16:27:11Z</time>
      </trkpt>
      <trkpt lat="46.5035" lon="3.30927">
        <ele>249.6</ele>
        <time>2021-08-13T16:27:22Z</time>
      </trkpt>
      <trkpt lat="46.50352" lon="3.30892">
        <ele>250.56</ele>
        <time>2021-08-13T16:27:30Z</time>
      </trkpt>
      <trkpt lat="46.50356" lon="3.30852">
        <ele>252</ele>
        <time>2021-08-13T16:27:39Z</time>
      </trkpt>
      <trkpt lat="46.5036" lon="3.30816">
        <ele>252.48</ele>
        <time>2021-08-13T16:27:47Z</time>
      </trkpt>
      <trkpt lat="46.50364" lon="3.30778">
        <ele>253.93</ele>
        <time>2021-08-13T16:27:56Z</time>
      </trkpt>
      <trkpt lat="46.50367" lon="3.3074">
        <ele>254.89</ele>
        <time>2021-08-13T16:28:05Z</time>
      </trkpt>
      <trkpt lat="46.50366" lon="3.307">
        <ele>255.37</ele>
        <time>2021-08-13T16:28:14Z</time>
      </trkpt>
      <trkpt lat="46.50354" lon="3.30686">
        <ele>255.85</ele>
        <time>2021-08-13T16:28:19Z</time>
      </trkpt>
      <trkpt lat="46.50329" lon="3.30687">
        <ele>256.33</ele>
        <time>2021-08-13T16:28:27Z</time>
      </trkpt>
      <trkpt lat="46.50302" lon="3.30685">
        <ele>257.77</ele>
        <time>2021-08-13T16:28:36Z</time>
      </trkpt>
      <trkpt lat="46.50279" lon="3.30684">
        <ele>257.77</ele>
        <time>2021-08-13T16:28:43Z</time>
      </trkpt>
      <trkpt lat="46.50245" lon="3.3068">
        <ele>258.25</ele>
        <time>2021-08-13T16:28:53Z</time>
      </trkpt>
      <trkpt lat="46.50221" lon="3.30676">
        <ele>259.21</ele>
        <time>2021-08-13T16:29:00Z</time>
      </trkpt>
      <trkpt lat="46.50183" lon="3.30668">
        <ele>259.21</ele>
        <time>2021-08-13T16:29:10Z</time>
      </trkpt>
      <trkpt lat="46.50175" lon="3.30667">
        <ele>259.21</ele>
        <time>2021-08-13T16:29:12Z</time>
      </trkpt>
      <trkpt lat="46.50171" lon="3.30666">
        <ele>259.21</ele>
        <time>2021-08-13T16:29:13Z</time>
      </trkpt>
      <trkpt lat="46.50167" lon="3.30665">
        <ele>259.21</ele>
        <time>2021-08-13T16:29:14Z</time>
      </trkpt>
      <trkpt lat="46.50163" lon="3.30664">
        <ele>259.21</ele>
        <time>2021-08-13T16:29:15Z</time>
      </trkpt>
      <trkpt lat="46.50159" lon="3.30663">
        <ele>259.21</ele>
        <time>2021-08-13T16:29:16Z</time>
      </trkpt>
      <trkpt lat="46.5013" lon="3.3066">
        <ele>259.21</ele>
        <time>2021-08-13T16:29:23Z</time>
      </trkpt>
      <trkpt lat="46.49942" lon="3.30672">
        <ele>261.14</ele>
        <time>2021-08-13T16:30:10Z</time>
      </trkpt>
      <trkpt lat="46.49934" lon="3.30672">
        <ele>261.14</ele>
        <time>2021-08-13T16:30:11Z</time>
      </trkpt>
      <trkpt lat="46.4989" lon="3.3068">
        <ele>260.17</ele>
        <time>2021-08-13T16:30:21Z</time>
      </trkpt>
      <trkpt lat="46.49855" lon="3.30688">
        <ele>260.17</ele>
        <time>2021-08-13T16:30:30Z</time>
      </trkpt>
      <trkpt lat="46.4982" lon="3.30691">
        <ele>260.65</ele>
        <time>2021-08-13T16:30:39Z</time>
      </trkpt>
      <trkpt lat="46.49785" lon="3.30687">
        <ele>261.62</ele>
        <time>2021-08-13T16:30:48Z</time>
      </trkpt>
      <trkpt lat="46.49774" lon="3.30683">
        <ele>261.62</ele>
        <time>2021-08-13T16:30:51Z</time>
      </trkpt>
      <trkpt lat="46.49771" lon="3.30681">
        <ele>262.1</ele>
        <time>2021-08-13T16:30:52Z</time>
      </trkpt>
      <trkpt lat="46.49768" lon="3.30679">
        <ele>262.1</ele>
        <time>2021-08-13T16:30:53Z</time>
      </trkpt>
      <trkpt lat="46.49741" lon="3.30658">
        <ele>262.1</ele>
        <time>2021-08-13T16:31:01Z</time>
      </trkpt>
      <trkpt lat="46.49711" lon="3.30635">
        <ele>262.58</ele>
        <time>2021-08-13T16:31:10Z</time>
      </trkpt>
      <trkpt lat="46.49683" lon="3.30615">
        <ele>263.06</ele>
        <time>2021-08-13T16:31:18Z</time>
      </trkpt>
      <trkpt lat="46.49659" lon="3.30599">
        <ele>263.06</ele>
        <time>2021-08-13T16:31:25Z</time>
      </trkpt>
      <trkpt lat="46.49636" lon="3.30581">
        <ele>263.06</ele>
        <time>2021-08-13T16:31:32Z</time>
      </trkpt>
      <trkpt lat="46.49616" lon="3.30556">
        <ele>263.06</ele>
        <time>2021-08-13T16:31:39Z</time>
      </trkpt>
      <trkpt lat="46.49602" lon="3.30542">
        <ele>263.06</ele>
        <time>2021-08-13T16:31:44Z</time>
      </trkpt>
      <trkpt lat="46.49577" lon="3.30523">
        <ele>263.06</ele>
        <time>2021-08-13T16:31:51Z</time>
      </trkpt>
      <trkpt lat="46.49543" lon="3.30494">
        <ele>262.1</ele>
        <time>2021-08-13T16:31:59Z</time>
      </trkpt>
      <trkpt lat="46.49501" lon="3.30451">
        <ele>262.1</ele>
        <time>2021-08-13T16:32:09Z</time>
      </trkpt>
      <trkpt lat="46.49486" lon="3.30435">
        <ele>262.1</ele>
        <time>2021-08-13T16:32:13Z</time>
      </trkpt>
      <trkpt lat="46.49482" lon="3.30431">
        <ele>262.1</ele>
        <time>2021-08-13T16:32:14Z</time>
      </trkpt>
      <trkpt lat="46.49443" lon="3.30394">
        <ele>262.1</ele>
        <time>2021-08-13T16:32:24Z</time>
      </trkpt>
      <trkpt lat="46.49415" lon="3.30365">
        <ele>264.02</ele>
        <time>2021-08-13T16:32:33Z</time>
      </trkpt>
      <trkpt lat="46.49387" lon="3.30339">
        <ele>265.94</ele>
        <time>2021-08-13T16:32:43Z</time>
      </trkpt>
      <trkpt lat="46.49363" lon="3.30318">
        <ele>267.38</ele>
        <time>2021-08-13T16:32:53Z</time>
      </trkpt>
      <trkpt lat="46.49335" lon="3.30299">
        <ele>267.86</ele>
        <time>2021-08-13T16:33:03Z</time>
      </trkpt>
      <trkpt lat="46.49311" lon="3.3028">
        <ele>267.86</ele>
        <time>2021-08-13T16:33:10Z</time>
      </trkpt>
      <trkpt lat="46.4928" lon="3.30257">
        <ele>266.9</ele>
        <time>2021-08-13T16:33:17Z</time>
      </trkpt>
      <trkpt lat="46.49245" lon="3.30224">
        <ele>265.94</ele>
        <time>2021-08-13T16:33:25Z</time>
      </trkpt>
      <trkpt lat="46.49199" lon="3.30172">
        <ele>264.98</ele>
        <time>2021-08-13T16:33:36Z</time>
      </trkpt>
      <trkpt lat="46.49154" lon="3.30126">
        <ele>263.54</ele>
        <time>2021-08-13T16:33:46Z</time>
      </trkpt>
      <trkpt lat="46.49115" lon="3.30085">
        <ele>263.06</ele>
        <time>2021-08-13T16:33:54Z</time>
      </trkpt>
      <trkpt lat="46.49077" lon="3.30045">
        <ele>262.1</ele>
        <time>2021-08-13T16:34:02Z</time>
      </trkpt>
      <trkpt lat="46.49035" lon="3.30007">
        <ele>260.65</ele>
        <time>2021-08-13T16:34:10Z</time>
      </trkpt>
      <trkpt lat="46.48998" lon="3.29989">
        <ele>260.65</ele>
        <time>2021-08-13T16:34:16Z</time>
      </trkpt>
      <trkpt lat="46.48955" lon="3.29984">
        <ele>260.65</ele>
        <time>2021-08-13T16:34:23Z</time>
      </trkpt>
      <trkpt lat="46.48911" lon="3.29989">
        <ele>262.1</ele>
        <time>2021-08-13T16:34:31Z</time>
      </trkpt>
      <trkpt lat="46.48906" lon="3.2999">
        <ele>262.1</ele>
        <time>2021-08-13T16:34:32Z</time>
      </trkpt>
      <trkpt lat="46.48887" lon="3.29995">
        <ele>262.58</ele>
        <time>2021-08-13T16:34:36Z</time>
      </trkpt>
      <trkpt lat="46.48882" lon="3.29996">
        <ele>262.58</ele>
        <time>2021-08-13T16:34:37Z</time>
      </trkpt>
      <trkpt lat="46.48878" lon="3.29998">
        <ele>262.58</ele>
        <time>2021-08-13T16:34:38Z</time>
      </trkpt>
      <trkpt lat="46.48873" lon="3.29999">
        <ele>262.58</ele>
        <time>2021-08-13T16:34:39Z</time>
      </trkpt>
      <trkpt lat="46.48869" lon="3.30001">
        <ele>262.58</ele>
        <time>2021-08-13T16:34:40Z</time>
      </trkpt>
      <trkpt lat="46.48865" lon="3.30002">
        <ele>262.58</ele>
        <time>2021-08-13T16:34:41Z</time>
      </trkpt>
      <trkpt lat="46.48822" lon="3.30014">
        <ele>263.54</ele>
        <time>2021-08-13T16:34:51Z</time>
      </trkpt>
      <trkpt lat="46.48778" lon="3.3002">
        <ele>264.5</ele>
        <time>2021-08-13T16:35:01Z</time>
      </trkpt>
      <trkpt lat="46.48722" lon="3.30022">
        <ele>265.46</ele>
        <time>2021-08-13T16:35:14Z</time>
      </trkpt>
      <trkpt lat="46.48676" lon="3.30031">
        <ele>265.94</ele>
        <time>2021-08-13T16:35:25Z</time>
      </trkpt>
      <trkpt lat="46.48643" lon="3.30046">
        <ele>266.9</ele>
        <time>2021-08-13T16:35:33Z</time>
      </trkpt>
      <trkpt lat="46.48624" lon="3.30051">
        <ele>266.9</ele>
        <time>2021-08-13T16:35:38Z</time>
      </trkpt>
      <trkpt lat="46.48593" lon="3.30051">
        <ele>264.98</ele>
        <time>2021-08-13T16:35:45Z</time>
      </trkpt>
      <trkpt lat="46.48544" lon="3.30048">
        <ele>263.06</ele>
        <time>2021-08-13T16:35:54Z</time>
      </trkpt>
      <trkpt lat="46.48517" lon="3.30054">
        <ele>261.14</ele>
        <time>2021-08-13T16:35:58Z</time>
      </trkpt>
      <trkpt lat="46.48489" lon="3.30064">
        <ele>259.21</ele>
        <time>2021-08-13T16:36:02Z</time>
      </trkpt>
      <trkpt lat="46.48417" lon="3.30085">
        <ele>257.29</ele>
        <time>2021-08-13T16:36:11Z</time>
      </trkpt>
      <trkpt lat="46.48384" lon="3.30096">
        <ele>257.29</ele>
        <time>2021-08-13T16:36:16Z</time>
      </trkpt>
      <trkpt lat="46.48343" lon="3.30116">
        <ele>257.29</ele>
        <time>2021-08-13T16:36:23Z</time>
      </trkpt>
      <trkpt lat="46.48283" lon="3.30152">
        <ele>257.29</ele>
        <time>2021-08-13T16:36:34Z</time>
      </trkpt>
      <trkpt lat="46.48238" lon="3.30188">
        <ele>256.81</ele>
        <time>2021-08-13T16:36:43Z</time>
      </trkpt>
      <trkpt lat="46.482" lon="3.30237">
        <ele>256.81</ele>
        <time>2021-08-13T16:36:52Z</time>
      </trkpt>
      <trkpt lat="46.48197" lon="3.30244">
        <ele>256.81</ele>
        <time>2021-08-13T16:36:53Z</time>
      </trkpt>
      <trkpt lat="46.48195" lon="3.3025">
        <ele>256.81</ele>
        <time>2021-08-13T16:36:54Z</time>
      </trkpt>
      <trkpt lat="46.48193" lon="3.30257">
        <ele>256.81</ele>
        <time>2021-08-13T16:36:55Z</time>
      </trkpt>
      <trkpt lat="46.48192" lon="3.30264">
        <ele>256.81</ele>
        <time>2021-08-13T16:36:56Z</time>
      </trkpt>
      <trkpt lat="46.48189" lon="3.30276">
        <ele>258.25</ele>
        <time>2021-08-13T16:36:58Z</time>
      </trkpt>
      <trkpt lat="46.4818" lon="3.30309">
        <ele>260.65</ele>
        <time>2021-08-13T16:37:05Z</time>
      </trkpt>
      <trkpt lat="46.48172" lon="3.30344">
        <ele>261.14</ele>
        <time>2021-08-13T16:37:12Z</time>
      </trkpt>
      <trkpt lat="46.48158" lon="3.30385">
        <ele>262.1</ele>
        <time>2021-08-13T16:37:21Z</time>
      </trkpt>
      <trkpt lat="46.48143" lon="3.30391">
        <ele>263.06</ele>
        <time>2021-08-13T16:37:26Z</time>
      </trkpt>
      <trkpt lat="46.4814" lon="3.30389">
        <ele>263.06</ele>
        <time>2021-08-13T16:37:27Z</time>
      </trkpt>
      <trkpt lat="46.48115" lon="3.30368">
        <ele>259.69</ele>
        <time>2021-08-13T16:37:33Z</time>
      </trkpt>
      <trkpt lat="46.48084" lon="3.30356">
        <ele>256.33</ele>
        <time>2021-08-13T16:37:38Z</time>
      </trkpt>
      <trkpt lat="46.48054" lon="3.30355">
        <ele>253.93</ele>
        <time>2021-08-13T16:37:42Z</time>
      </trkpt>
      <trkpt lat="46.47994" lon="3.30361">
        <ele>251.04</ele>
        <time>2021-08-13T16:37:49Z</time>
      </trkpt>
      <trkpt lat="46.47922" lon="3.3036">
        <ele>249.6</ele>
        <time>2021-08-13T16:37:58Z</time>
      </trkpt>
      <trkpt lat="46.47899" lon="3.30356">
        <ele>248.16</ele>
        <time>2021-08-13T16:38:01Z</time>
      </trkpt>
      <trkpt lat="46.47891" lon="3.30357">
        <ele>247.2</ele>
        <time>2021-08-13T16:38:02Z</time>
      </trkpt>
      <trkpt lat="46.47883" lon="3.30359">
        <ele>246.72</ele>
        <time>2021-08-13T16:38:03Z</time>
      </trkpt>
      <trkpt lat="46.47859" lon="3.30368">
        <ele>245.75</ele>
        <time>2021-08-13T16:38:06Z</time>
      </trkpt>
      <trkpt lat="46.47851" lon="3.30373">
        <ele>245.75</ele>
        <time>2021-08-13T16:38:07Z</time>
      </trkpt>
      <trkpt lat="46.47844" lon="3.30379">
        <ele>245.27</ele>
        <time>2021-08-13T16:38:08Z</time>
      </trkpt>
      <trkpt lat="46.47838" lon="3.30386">
        <ele>245.27</ele>
        <time>2021-08-13T16:38:09Z</time>
      </trkpt>
      <trkpt lat="46.47832" lon="3.30393">
        <ele>245.27</ele>
        <time>2021-08-13T16:38:10Z</time>
      </trkpt>
      <trkpt lat="46.47803" lon="3.30425">
        <ele>243.35</ele>
        <time>2021-08-13T16:38:15Z</time>
      </trkpt>
      <trkpt lat="46.47795" lon="3.30429">
        <ele>242.87</ele>
        <time>2021-08-13T16:38:16Z</time>
      </trkpt>
      <trkpt lat="46.47787" lon="3.30433">
        <ele>241.43</ele>
        <time>2021-08-13T16:38:17Z</time>
      </trkpt>
      <trkpt lat="46.47769" lon="3.3044">
        <ele>238.54</ele>
        <time>2021-08-13T16:38:19Z</time>
      </trkpt>
      <trkpt lat="46.47732" lon="3.30447">
        <ele>235.18</ele>
        <time>2021-08-13T16:38:23Z</time>
      </trkpt>
      <trkpt lat="46.47696" lon="3.30452">
        <ele>233.26</ele>
        <time>2021-08-13T16:38:28Z</time>
      </trkpt>
      <trkpt lat="46.47617" lon="3.30464">
        <ele>229.89</ele>
        <time>2021-08-13T16:38:38Z</time>
      </trkpt>
      <trkpt lat="46.47583" lon="3.30469">
        <ele>227.97</ele>
        <time>2021-08-13T16:38:42Z</time>
      </trkpt>
      <trkpt lat="46.47543" lon="3.30477">
        <ele>229.41</ele>
        <time>2021-08-13T16:38:47Z</time>
      </trkpt>
      <trkpt lat="46.47537" lon="3.3048">
        <ele>229.89</ele>
        <time>2021-08-13T16:38:48Z</time>
      </trkpt>
      <trkpt lat="46.47524" lon="3.30487">
        <ele>231.33</ele>
        <time>2021-08-13T16:38:51Z</time>
      </trkpt>
      <trkpt lat="46.47503" lon="3.30502">
        <ele>233.26</ele>
        <time>2021-08-13T16:38:58Z</time>
      </trkpt>
      <trkpt lat="46.47486" lon="3.30516">
        <ele>234.7</ele>
        <time>2021-08-13T16:39:06Z</time>
      </trkpt>
      <trkpt lat="46.47465" lon="3.30532">
        <ele>236.62</ele>
        <time>2021-08-13T16:39:16Z</time>
      </trkpt>
      <trkpt lat="46.47443" lon="3.30555">
        <ele>239.02</ele>
        <time>2021-08-13T16:39:28Z</time>
      </trkpt>
      <trkpt lat="46.47426" lon="3.30574">
        <ele>239.99</ele>
        <time>2021-08-13T16:39:38Z</time>
      </trkpt>
      <trkpt lat="46.47413" lon="3.30586">
        <ele>241.43</ele>
        <time>2021-08-13T16:39:45Z</time>
      </trkpt>
      <trkpt lat="46.47397" lon="3.30603">
        <ele>241.91</ele>
        <time>2021-08-13T16:39:54Z</time>
      </trkpt>
      <trkpt lat="46.47377" lon="3.30621">
        <ele>242.87</ele>
        <time>2021-08-13T16:40:04Z</time>
      </trkpt>
      <trkpt lat="46.47359" lon="3.30636">
        <ele>243.83</ele>
        <time>2021-08-13T16:40:13Z</time>
      </trkpt>
      <trkpt lat="46.47347" lon="3.30646">
        <ele>244.79</ele>
        <time>2021-08-13T16:40:19Z</time>
      </trkpt>
      <trkpt lat="46.47334" lon="3.30656">
        <ele>245.27</ele>
        <time>2021-08-13T16:40:26Z</time>
      </trkpt>
      <trkpt lat="46.47319" lon="3.30666">
        <ele>246.72</ele>
        <time>2021-08-13T16:40:33Z</time>
      </trkpt>
      <trkpt lat="46.47302" lon="3.30676">
        <ele>247.68</ele>
        <time>2021-08-13T16:40:41Z</time>
      </trkpt>
      <trkpt lat="46.47284" lon="3.30683">
        <ele>249.12</ele>
        <time>2021-08-13T16:40:49Z</time>
      </trkpt>
      <trkpt lat="46.4727" lon="3.30687">
        <ele>249.6</ele>
        <time>2021-08-13T16:40:55Z</time>
      </trkpt>
      <trkpt lat="46.47249" lon="3.30691">
        <ele>250.56</ele>
        <time>2021-08-13T16:41:03Z</time>
      </trkpt>
      <trkpt lat="46.47218" lon="3.30695">
        <ele>250.56</ele>
        <time>2021-08-13T16:41:12Z</time>
      </trkpt>
      <trkpt lat="46.47195" lon="3.307">
        <ele>250.56</ele>
        <time>2021-08-13T16:41:19Z</time>
      </trkpt>
      <trkpt lat="46.47169" lon="3.3071">
        <ele>251.04</ele>
        <time>2021-08-13T16:41:27Z</time>
      </trkpt>
      <trkpt lat="46.47139" lon="3.30726">
        <ele>251.04</ele>
        <time>2021-08-13T16:41:36Z</time>
      </trkpt>
      <trkpt lat="46.47112" lon="3.30742">
        <ele>251.04</ele>
        <time>2021-08-13T16:41:45Z</time>
      </trkpt>
      <trkpt lat="46.4709" lon="3.30757">
        <ele>251.04</ele>
        <time>2021-08-13T16:41:52Z</time>
      </trkpt>
      <trkpt lat="46.47067" lon="3.30776">
        <ele>251.04</ele>
        <time>2021-08-13T16:41:59Z</time>
      </trkpt>
      <trkpt lat="46.4704" lon="3.30802">
        <ele>251.04</ele>
        <time>2021-08-13T16:42:07Z</time>
      </trkpt>
      <trkpt lat="46.47023" lon="3.3082">
        <ele>251.04</ele>
        <time>2021-08-13T16:42:12Z</time>
      </trkpt>
      <trkpt lat="46.46991" lon="3.30843">
        <ele>251.04</ele>
        <time>2021-08-13T16:42:21Z</time>
      </trkpt>
      <trkpt lat="46.46959" lon="3.30851">
        <ele>251.04</ele>
        <time>2021-08-13T16:42:30Z</time>
      </trkpt>
      <trkpt lat="46.46933" lon="3.30856">
        <ele>251.52</ele>
        <time>2021-08-13T16:42:38Z</time>
      </trkpt>
      <trkpt lat="46.46904" lon="3.30862">
        <ele>252</ele>
        <time>2021-08-13T16:42:47Z</time>
      </trkpt>
      <trkpt lat="46.46866" lon="3.3087">
        <ele>253.44</ele>
        <time>2021-08-13T16:42:59Z</time>
      </trkpt>
      <trkpt lat="46.46833" lon="3.3088">
        <ele>254.41</ele>
        <time>2021-08-13T16:43:10Z</time>
      </trkpt>
      <trkpt lat="46.46806" lon="3.30887">
        <ele>255.85</ele>
        <time>2021-08-13T16:43:19Z</time>
      </trkpt>
      <trkpt lat="46.46785" lon="3.30892">
        <ele>257.29</ele>
        <time>2021-08-13T16:43:28Z</time>
      </trkpt>
      <trkpt lat="46.4677" lon="3.30896">
        <ele>258.73</ele>
        <time>2021-08-13T16:43:35Z</time>
      </trkpt>
      <trkpt lat="46.46752" lon="3.30902">
        <ele>260.17</ele>
        <time>2021-08-13T16:43:44Z</time>
      </trkpt>
      <trkpt lat="46.46738" lon="3.30907">
        <ele>261.62</ele>
        <time>2021-08-13T16:43:53Z</time>
      </trkpt>
      <trkpt lat="46.46718" lon="3.30911">
        <ele>263.54</ele>
        <time>2021-08-13T16:44:04Z</time>
      </trkpt>
      <trkpt lat="46.46705" lon="3.30916">
        <ele>264.5</ele>
        <time>2021-08-13T16:44:12Z</time>
      </trkpt>
      <trkpt lat="46.46703" lon="3.30917">
        <ele>265.46</ele>
        <time>2021-08-13T16:44:14Z</time>
      </trkpt>
      <trkpt lat="46.46701" lon="3.30917">
        <ele>265.46</ele>
        <time>2021-08-13T16:44:15Z</time>
      </trkpt>
      <trkpt lat="46.4668" lon="3.3092">
        <ele>267.38</ele>
        <time>2021-08-13T16:44:24Z</time>
      </trkpt>
      <trkpt lat="46.46659" lon="3.30923">
        <ele>268.35</ele>
        <time>2021-08-13T16:44:32Z</time>
      </trkpt>
      <trkpt lat="46.46638" lon="3.30926">
        <ele>269.79</ele>
        <time>2021-08-13T16:44:42Z</time>
      </trkpt>
      <trkpt lat="46.46611" lon="3.30923">
        <ele>271.71</ele>
        <time>2021-08-13T16:44:53Z</time>
      </trkpt>
      <trkpt lat="46.46585" lon="3.30915">
        <ele>272.19</ele>
        <time>2021-08-13T16:45:04Z</time>
      </trkpt>
      <trkpt lat="46.46567" lon="3.30909">
        <ele>273.15</ele>
        <time>2021-08-13T16:45:12Z</time>
      </trkpt>
      <trkpt lat="46.46547" lon="3.30901">
        <ele>273.63</ele>
        <time>2021-08-13T16:45:20Z</time>
      </trkpt>
      <trkpt lat="46.46522" lon="3.309">
        <ele>274.11</ele>
        <time>2021-08-13T16:45:29Z</time>
      </trkpt>
      <trkpt lat="46.46497" lon="3.30906">
        <ele>274.59</ele>
        <time>2021-08-13T16:45:38Z</time>
      </trkpt>
      <trkpt lat="46.46469" lon="3.30913">
        <ele>275.56</ele>
        <time>2021-08-13T16:45:47Z</time>
      </trkpt>
      <trkpt lat="46.46444" lon="3.3092">
        <ele>275.56</ele>
        <time>2021-08-13T16:45:55Z</time>
      </trkpt>
      <trkpt lat="46.46418" lon="3.30928">
        <ele>276.04</ele>
        <time>2021-08-13T16:46:02Z</time>
      </trkpt>
      <trkpt lat="46.46375" lon="3.30943">
        <ele>277</ele>
        <time>2021-08-13T16:46:13Z</time>
      </trkpt>
      <trkpt lat="46.46339" lon="3.30959">
        <ele>277</ele>
        <time>2021-08-13T16:46:22Z</time>
      </trkpt>
      <trkpt lat="46.46305" lon="3.30975">
        <ele>277</ele>
        <time>2021-08-13T16:46:30Z</time>
      </trkpt>
      <trkpt lat="46.46269" lon="3.30992">
        <ele>277</ele>
        <time>2021-08-13T16:46:39Z</time>
      </trkpt>
      <trkpt lat="46.46238" lon="3.31005">
        <ele>277</ele>
        <time>2021-08-13T16:46:47Z</time>
      </trkpt>
      <trkpt lat="46.46234" lon="3.31006">
        <ele>277</ele>
        <time>2021-08-13T16:46:48Z</time>
      </trkpt>
      <trkpt lat="46.46224" lon="3.31008">
        <ele>277</ele>
        <time>2021-08-13T16:46:50Z</time>
      </trkpt>
      <trkpt lat="46.46178" lon="3.3101">
        <ele>277</ele>
        <time>2021-08-13T16:47:00Z</time>
      </trkpt>
      <trkpt lat="46.46133" lon="3.31011">
        <ele>277</ele>
        <time>2021-08-13T16:47:09Z</time>
      </trkpt>
      <trkpt lat="46.46113" lon="3.31012">
        <ele>277</ele>
        <time>2021-08-13T16:47:13Z</time>
      </trkpt>
      <trkpt lat="46.46108" lon="3.31012">
        <ele>277</ele>
        <time>2021-08-13T16:47:14Z</time>
      </trkpt>
      <trkpt lat="46.46079" lon="3.31013">
        <ele>277</ele>
        <time>2021-08-13T16:47:20Z</time>
      </trkpt>
      <trkpt lat="46.46074" lon="3.31013">
        <ele>277</ele>
        <time>2021-08-13T16:47:21Z</time>
      </trkpt>
      <trkpt lat="46.46032" lon="3.31015">
        <ele>277</ele>
        <time>2021-08-13T16:47:30Z</time>
      </trkpt>
      <trkpt lat="46.45994" lon="3.31017">
        <ele>277</ele>
        <time>2021-08-13T16:47:38Z</time>
      </trkpt>
      <trkpt lat="46.45935" lon="3.3102">
        <ele>277</ele>
        <time>2021-08-13T16:47:50Z</time>
      </trkpt>
      <trkpt lat="46.45915" lon="3.31022">
        <ele>277.48</ele>
        <time>2021-08-13T16:47:54Z</time>
      </trkpt>
      <trkpt lat="46.45911" lon="3.31023">
        <ele>277.48</ele>
        <time>2021-08-13T16:47:55Z</time>
      </trkpt>
      <trkpt lat="46.45867" lon="3.3103">
        <ele>277.48</ele>
        <time>2021-08-13T16:48:04Z</time>
      </trkpt>
      <trkpt lat="46.45813" lon="3.31046">
        <ele>277.48</ele>
        <time>2021-08-13T16:48:15Z</time>
      </trkpt>
      <trkpt lat="46.4579" lon="3.31053">
        <ele>277.48</ele>
        <time>2021-08-13T16:48:20Z</time>
      </trkpt>
      <trkpt lat="46.45748" lon="3.31065">
        <ele>277.96</ele>
        <time>2021-08-13T16:48:29Z</time>
      </trkpt>
      <trkpt lat="46.45711" lon="3.31076">
        <ele>276.52</ele>
        <time>2021-08-13T16:48:37Z</time>
      </trkpt>
      <trkpt lat="46.45656" lon="3.31093">
        <ele>276.52</ele>
        <time>2021-08-13T16:48:48Z</time>
      </trkpt>
      <trkpt lat="46.45614" lon="3.31107">
        <ele>276.52</ele>
        <time>2021-08-13T16:48:57Z</time>
      </trkpt>
      <trkpt lat="46.45572" lon="3.31116">
        <ele>277</ele>
        <time>2021-08-13T16:49:06Z</time>
      </trkpt>
      <trkpt lat="46.45568" lon="3.31116">
        <ele>277</ele>
        <time>2021-08-13T16:49:07Z</time>
      </trkpt>
      <trkpt lat="46.45563" lon="3.31116">
        <ele>277</ele>
        <time>2021-08-13T16:49:08Z</time>
      </trkpt>
      <trkpt lat="46.45553" lon="3.31114">
        <ele>277</ele>
        <time>2021-08-13T16:49:10Z</time>
      </trkpt>
      <trkpt lat="46.45547" lon="3.31113">
        <ele>277</ele>
        <time>2021-08-13T16:49:11Z</time>
      </trkpt>
      <trkpt lat="46.455" lon="3.31111">
        <ele>276.52</ele>
        <time>2021-08-13T16:49:20Z</time>
      </trkpt>
      <trkpt lat="46.4548" lon="3.31113">
        <ele>276.04</ele>
        <time>2021-08-13T16:49:24Z</time>
      </trkpt>
      <trkpt lat="46.45475" lon="3.31114">
        <ele>276.04</ele>
        <time>2021-08-13T16:49:25Z</time>
      </trkpt>
      <trkpt lat="46.45436" lon="3.31113">
        <ele>276.04</ele>
        <time>2021-08-13T16:49:33Z</time>
      </trkpt>
      <trkpt lat="46.45373" lon="3.31097">
        <ele>276.04</ele>
        <time>2021-08-13T16:49:47Z</time>
      </trkpt>
      <trkpt lat="46.4532" lon="3.31085">
        <ele>277.48</ele>
        <time>2021-08-13T16:49:59Z</time>
      </trkpt>
      <trkpt lat="46.45304" lon="3.31081">
        <ele>277.96</ele>
        <time>2021-08-13T16:50:03Z</time>
      </trkpt>
      <trkpt lat="46.4527" lon="3.31071">
        <ele>278.92</ele>
        <time>2021-08-13T16:50:12Z</time>
      </trkpt>
      <trkpt lat="46.45244" lon="3.3105">
        <ele>278.92</ele>
        <time>2021-08-13T16:50:19Z</time>
      </trkpt>
      <trkpt lat="46.45224" lon="3.31033">
        <ele>278.92</ele>
        <time>2021-08-13T16:50:24Z</time>
      </trkpt>
      <trkpt lat="46.45219" lon="3.31029">
        <ele>278.92</ele>
        <time>2021-08-13T16:50:25Z</time>
      </trkpt>
      <trkpt lat="46.45215" lon="3.31025">
        <ele>278.92</ele>
        <time>2021-08-13T16:50:26Z</time>
      </trkpt>
      <trkpt lat="46.45176" lon="3.3099">
        <ele>278.92</ele>
        <time>2021-08-13T16:50:35Z</time>
      </trkpt>
      <trkpt lat="46.45171" lon="3.30986">
        <ele>278.92</ele>
        <time>2021-08-13T16:50:36Z</time>
      </trkpt>
      <trkpt lat="46.45138" lon="3.30964">
        <ele>278.92</ele>
        <time>2021-08-13T16:50:44Z</time>
      </trkpt>
      <trkpt lat="46.45133" lon="3.30962">
        <ele>278.92</ele>
        <time>2021-08-13T16:50:45Z</time>
      </trkpt>
      <trkpt lat="46.45129" lon="3.3096">
        <ele>278.92</ele>
        <time>2021-08-13T16:50:46Z</time>
      </trkpt>
      <trkpt lat="46.45104" lon="3.30947">
        <ele>278.92</ele>
        <time>2021-08-13T16:50:52Z</time>
      </trkpt>
      <trkpt lat="46.45099" lon="3.30945">
        <ele>278.92</ele>
        <time>2021-08-13T16:50:53Z</time>
      </trkpt>
      <trkpt lat="46.45081" lon="3.30936">
        <ele>278.92</ele>
        <time>2021-08-13T16:50:57Z</time>
      </trkpt>
      <trkpt lat="46.45049" lon="3.30935">
        <ele>278.92</ele>
        <time>2021-08-13T16:51:04Z</time>
      </trkpt>
      <trkpt lat="46.45023" lon="3.30942">
        <ele>278.92</ele>
        <time>2021-08-13T16:51:10Z</time>
      </trkpt>
      <trkpt lat="46.44985" lon="3.30937">
        <ele>278.92</ele>
        <time>2021-08-13T16:51:19Z</time>
      </trkpt>
      <trkpt lat="46.44956" lon="3.30927">
        <ele>278.92</ele>
        <time>2021-08-13T16:51:26Z</time>
      </trkpt>
      <trkpt lat="46.4492" lon="3.30909">
        <ele>278.92</ele>
        <time>2021-08-13T16:51:35Z</time>
      </trkpt>
      <trkpt lat="46.44909" lon="3.30905">
        <ele>278.92</ele>
        <time>2021-08-13T16:51:38Z</time>
      </trkpt>
      <trkpt lat="46.44905" lon="3.30906">
        <ele>278.92</ele>
        <time>2021-08-13T16:51:39Z</time>
      </trkpt>
      <trkpt lat="46.44901" lon="3.30909">
        <ele>278.92</ele>
        <time>2021-08-13T16:51:40Z</time>
      </trkpt>
      <trkpt lat="46.44898" lon="3.30913">
        <ele>278.92</ele>
        <time>2021-08-13T16:51:41Z</time>
      </trkpt>
      <trkpt lat="46.44895" lon="3.30918">
        <ele>278.92</ele>
        <time>2021-08-13T16:51:42Z</time>
      </trkpt>
      <trkpt lat="46.44893" lon="3.30924">
        <ele>278.92</ele>
        <time>2021-08-13T16:51:43Z</time>
      </trkpt>
      <trkpt lat="46.44891" lon="3.3093">
        <ele>278.92</ele>
        <time>2021-08-13T16:51:44Z</time>
      </trkpt>
      <trkpt lat="46.44883" lon="3.30961">
        <ele>278.92</ele>
        <time>2021-08-13T16:51:49Z</time>
      </trkpt>
      <trkpt lat="46.4488" lon="3.30965">
        <ele>278.92</ele>
        <time>2021-08-13T16:51:50Z</time>
      </trkpt>
      <trkpt lat="46.44877" lon="3.30967">
        <ele>278.92</ele>
        <time>2021-08-13T16:51:51Z</time>
      </trkpt>
      <trkpt lat="46.44873" lon="3.30965">
        <ele>278.92</ele>
        <time>2021-08-13T16:51:52Z</time>
      </trkpt>
      <trkpt lat="46.44869" lon="3.30961">
        <ele>278.92</ele>
        <time>2021-08-13T16:51:53Z</time>
      </trkpt>
      <trkpt lat="46.44866" lon="3.30957">
        <ele>278.92</ele>
        <time>2021-08-13T16:51:54Z</time>
      </trkpt>
      <trkpt lat="46.44863" lon="3.30953">
        <ele>278.92</ele>
        <time>2021-08-13T16:51:55Z</time>
      </trkpt>
      <trkpt lat="46.44859" lon="3.3095">
        <ele>278.92</ele>
        <time>2021-08-13T16:51:56Z</time>
      </trkpt>
      <trkpt lat="46.44856" lon="3.30947">
        <ele>278.92</ele>
        <time>2021-08-13T16:51:57Z</time>
      </trkpt>
      <trkpt lat="46.44852" lon="3.30944">
        <ele>278.92</ele>
        <time>2021-08-13T16:51:58Z</time>
      </trkpt>
      <trkpt lat="46.44848" lon="3.30943">
        <ele>278.92</ele>
        <time>2021-08-13T16:51:59Z</time>
      </trkpt>
      <trkpt lat="46.44843" lon="3.30941">
        <ele>278.92</ele>
        <time>2021-08-13T16:52:00Z</time>
      </trkpt>
      <trkpt lat="46.44839" lon="3.30941">
        <ele>278.92</ele>
        <time>2021-08-13T16:52:01Z</time>
      </trkpt>
      <trkpt lat="46.44835" lon="3.3094">
        <ele>278.92</ele>
        <time>2021-08-13T16:52:02Z</time>
      </trkpt>
      <trkpt lat="46.44797" lon="3.30934">
        <ele>278.92</ele>
        <time>2021-08-13T16:52:10Z</time>
      </trkpt>
      <trkpt lat="46.44757" lon="3.30907">
        <ele>278.92</ele>
        <time>2021-08-13T16:52:19Z</time>
      </trkpt>
      <trkpt lat="46.44717" lon="3.30865">
        <ele>278.92</ele>
        <time>2021-08-13T16:52:29Z</time>
      </trkpt>
      <trkpt lat="46.44681" lon="3.30819">
        <ele>278.92</ele>
        <time>2021-08-13T16:52:38Z</time>
      </trkpt>
      <trkpt lat="46.44678" lon="3.30812">
        <ele>278.92</ele>
        <time>2021-08-13T16:52:39Z</time>
      </trkpt>
      <trkpt lat="46.44674" lon="3.30806">
        <ele>277.48</ele>
        <time>2021-08-13T16:52:40Z</time>
      </trkpt>
      <trkpt lat="46.44672" lon="3.30798">
        <ele>277.48</ele>
        <time>2021-08-13T16:52:41Z</time>
      </trkpt>
      <trkpt lat="46.44663" lon="3.30779">
        <ele>277.48</ele>
        <time>2021-08-13T16:52:44Z</time>
      </trkpt>
      <trkpt lat="46.44659" lon="3.30772">
        <ele>277.48</ele>
        <time>2021-08-13T16:52:45Z</time>
      </trkpt>
      <trkpt lat="46.44656" lon="3.30766">
        <ele>277.48</ele>
        <time>2021-08-13T16:52:46Z</time>
      </trkpt>
      <trkpt lat="46.44651" lon="3.30761">
        <ele>277.48</ele>
        <time>2021-08-13T16:52:47Z</time>
      </trkpt>
      <trkpt lat="46.44646" lon="3.30756">
        <ele>277.48</ele>
        <time>2021-08-13T16:52:48Z</time>
      </trkpt>
      <trkpt lat="46.44642" lon="3.30751">
        <ele>277.48</ele>
        <time>2021-08-13T16:52:49Z</time>
      </trkpt>
      <trkpt lat="46.44593" lon="3.30706">
        <ele>277.48</ele>
        <time>2021-08-13T16:53:00Z</time>
      </trkpt>
      <trkpt lat="46.44556" lon="3.30675">
        <ele>277.48</ele>
        <time>2021-08-13T16:53:09Z</time>
      </trkpt>
      <trkpt lat="46.44529" lon="3.30656">
        <ele>277.48</ele>
        <time>2021-08-13T16:53:15Z</time>
      </trkpt>
      <trkpt lat="46.44524" lon="3.30654">
        <ele>277.48</ele>
        <time>2021-08-13T16:53:16Z</time>
      </trkpt>
      <trkpt lat="46.44491" lon="3.30634">
        <ele>277.48</ele>
        <time>2021-08-13T16:53:24Z</time>
      </trkpt>
      <trkpt lat="46.44458" lon="3.30614">
        <ele>277.48</ele>
        <time>2021-08-13T16:53:33Z</time>
      </trkpt>
      <trkpt lat="46.4443" lon="3.306">
        <ele>277.48</ele>
        <time>2021-08-13T16:53:41Z</time>
      </trkpt>
      <trkpt lat="46.44404" lon="3.30596">
        <ele>278.92</ele>
        <time>2021-08-13T16:53:48Z</time>
      </trkpt>
      <trkpt lat="46.44365" lon="3.30591">
        <ele>278.92</ele>
        <time>2021-08-13T16:53:57Z</time>
      </trkpt>
      <trkpt lat="46.44317" lon="3.30585">
        <ele>278.92</ele>
        <time>2021-08-13T16:54:07Z</time>
      </trkpt>
      <trkpt lat="46.44272" lon="3.3057">
        <ele>278.92</ele>
        <time>2021-08-13T16:54:17Z</time>
      </trkpt>
      <trkpt lat="46.44235" lon="3.30545">
        <ele>278.92</ele>
        <time>2021-08-13T16:54:26Z</time>
      </trkpt>
      <trkpt lat="46.44217" lon="3.30529">
        <ele>278.92</ele>
        <time>2021-08-13T16:54:31Z</time>
      </trkpt>
      <trkpt lat="46.44213" lon="3.30526">
        <ele>278.92</ele>
        <time>2021-08-13T16:54:32Z</time>
      </trkpt>
      <trkpt lat="46.44205" lon="3.30519">
        <ele>278.92</ele>
        <time>2021-08-13T16:54:34Z</time>
      </trkpt>
      <trkpt lat="46.44189" lon="3.30503">
        <ele>278.92</ele>
        <time>2021-08-13T16:54:38Z</time>
      </trkpt>
      <trkpt lat="46.44155" lon="3.3047">
        <ele>278.92</ele>
        <time>2021-08-13T16:54:46Z</time>
      </trkpt>
      <trkpt lat="46.44151" lon="3.30467">
        <ele>278.92</ele>
        <time>2021-08-13T16:54:47Z</time>
      </trkpt>
      <trkpt lat="46.44126" lon="3.30437">
        <ele>278.92</ele>
        <time>2021-08-13T16:54:54Z</time>
      </trkpt>
      <trkpt lat="46.44101" lon="3.30399">
        <ele>278.92</ele>
        <time>2021-08-13T16:55:02Z</time>
      </trkpt>
      <trkpt lat="46.4408" lon="3.30361">
        <ele>277.48</ele>
        <time>2021-08-13T16:55:09Z</time>
      </trkpt>
      <trkpt lat="46.44076" lon="3.30356">
        <ele>277.48</ele>
        <time>2021-08-13T16:55:10Z</time>
      </trkpt>
      <trkpt lat="46.44064" lon="3.30338">
        <ele>276.52</ele>
        <time>2021-08-13T16:55:13Z</time>
      </trkpt>
      <trkpt lat="46.44055" lon="3.30327">
        <ele>275.56</ele>
        <time>2021-08-13T16:55:15Z</time>
      </trkpt>
      <trkpt lat="46.44049" lon="3.30322">
        <ele>275.56</ele>
        <time>2021-08-13T16:55:16Z</time>
      </trkpt>
      <trkpt lat="46.44044" lon="3.30318">
        <ele>275.56</ele>
        <time>2021-08-13T16:55:17Z</time>
      </trkpt>
      <trkpt lat="46.44007" lon="3.30298">
        <ele>275.56</ele>
        <time>2021-08-13T16:55:24Z</time>
      </trkpt>
      <trkpt lat="46.44002" lon="3.30296">
        <ele>275.56</ele>
        <time>2021-08-13T16:55:25Z</time>
      </trkpt>
      <trkpt lat="46.4397" lon="3.30278">
        <ele>277.48</ele>
        <time>2021-08-13T16:55:33Z</time>
      </trkpt>
      <trkpt lat="46.43944" lon="3.30263">
        <ele>278.44</ele>
        <time>2021-08-13T16:55:40Z</time>
      </trkpt>
      <trkpt lat="46.43918" lon="3.30252">
        <ele>279.88</ele>
        <time>2021-08-13T16:55:48Z</time>
      </trkpt>
      <trkpt lat="46.43892" lon="3.30245">
        <ele>280.36</ele>
        <time>2021-08-13T16:55:56Z</time>
      </trkpt>
      <trkpt lat="46.43862" lon="3.30241">
        <ele>280.36</ele>
        <time>2021-08-13T16:56:03Z</time>
      </trkpt>
      <trkpt lat="46.43822" lon="3.30236">
        <ele>278.44</ele>
        <time>2021-08-13T16:56:11Z</time>
      </trkpt>
      <trkpt lat="46.43817" lon="3.30236">
        <ele>278.44</ele>
        <time>2021-08-13T16:56:12Z</time>
      </trkpt>
      <trkpt lat="46.43812" lon="3.30236">
        <ele>278.44</ele>
        <time>2021-08-13T16:56:13Z</time>
      </trkpt>
      <trkpt lat="46.43801" lon="3.30236">
        <ele>278.44</ele>
        <time>2021-08-13T16:56:15Z</time>
      </trkpt>
      <trkpt lat="46.43759" lon="3.30226">
        <ele>278.44</ele>
        <time>2021-08-13T16:56:24Z</time>
      </trkpt>
      <trkpt lat="46.43729" lon="3.30216">
        <ele>280.36</ele>
        <time>2021-08-13T16:56:31Z</time>
      </trkpt>
      <trkpt lat="46.43689" lon="3.30211">
        <ele>281.32</ele>
        <time>2021-08-13T16:56:41Z</time>
      </trkpt>
      <trkpt lat="46.43655" lon="3.3021">
        <ele>281.8</ele>
        <time>2021-08-13T16:56:49Z</time>
      </trkpt>
      <trkpt lat="46.43642" lon="3.3021">
        <ele>282.28</ele>
        <time>2021-08-13T16:56:52Z</time>
      </trkpt>
      <trkpt lat="46.43636" lon="3.30209">
        <ele>282.28</ele>
        <time>2021-08-13T16:56:53Z</time>
      </trkpt>
      <trkpt lat="46.43596" lon="3.30211">
        <ele>282.28</ele>
        <time>2021-08-13T16:57:02Z</time>
      </trkpt>
      <trkpt lat="46.43574" lon="3.30214">
        <ele>282.28</ele>
        <time>2021-08-13T16:57:07Z</time>
      </trkpt>
      <trkpt lat="46.4357" lon="3.30215">
        <ele>282.28</ele>
        <time>2021-08-13T16:57:08Z</time>
      </trkpt>
      <trkpt lat="46.4356" lon="3.30216">
        <ele>282.28</ele>
        <time>2021-08-13T16:57:10Z</time>
      </trkpt>
      <trkpt lat="46.43555" lon="3.30216">
        <ele>282.28</ele>
        <time>2021-08-13T16:57:11Z</time>
      </trkpt>
      <trkpt lat="46.43551" lon="3.30217">
        <ele>282.28</ele>
        <time>2021-08-13T16:57:12Z</time>
      </trkpt>
      <trkpt lat="46.43546" lon="3.30218">
        <ele>282.28</ele>
        <time>2021-08-13T16:57:13Z</time>
      </trkpt>
      <trkpt lat="46.43542" lon="3.3022">
        <ele>282.28</ele>
        <time>2021-08-13T16:57:14Z</time>
      </trkpt>
      <trkpt lat="46.43538" lon="3.30222">
        <ele>282.28</ele>
        <time>2021-08-13T16:57:15Z</time>
      </trkpt>
      <trkpt lat="46.43533" lon="3.30225">
        <ele>282.28</ele>
        <time>2021-08-13T16:57:16Z</time>
      </trkpt>
      <trkpt lat="46.43529" lon="3.30229">
        <ele>282.28</ele>
        <time>2021-08-13T16:57:17Z</time>
      </trkpt>
      <trkpt lat="46.43525" lon="3.30233">
        <ele>282.28</ele>
        <time>2021-08-13T16:57:18Z</time>
      </trkpt>
      <trkpt lat="46.43513" lon="3.30244">
        <ele>282.28</ele>
        <time>2021-08-13T16:57:21Z</time>
      </trkpt>
      <trkpt lat="46.43509" lon="3.30248">
        <ele>281.32</ele>
        <time>2021-08-13T16:57:22Z</time>
      </trkpt>
      <trkpt lat="46.4347" lon="3.30282">
        <ele>279.88</ele>
        <time>2021-08-13T16:57:31Z</time>
      </trkpt>
      <trkpt lat="46.43423" lon="3.30329">
        <ele>277.96</ele>
        <time>2021-08-13T16:57:41Z</time>
      </trkpt>
      <trkpt lat="46.43405" lon="3.30342">
        <ele>276.52</ele>
        <time>2021-08-13T16:57:44Z</time>
      </trkpt>
      <trkpt lat="46.43399" lon="3.30345">
        <ele>276.04</ele>
        <time>2021-08-13T16:57:45Z</time>
      </trkpt>
      <trkpt lat="46.43357" lon="3.30367">
        <ele>275.56</ele>
        <time>2021-08-13T16:57:52Z</time>
      </trkpt>
      <trkpt lat="46.43313" lon="3.30399">
        <ele>275.56</ele>
        <time>2021-08-13T16:58:01Z</time>
      </trkpt>
      <trkpt lat="46.43292" lon="3.30413">
        <ele>277</ele>
        <time>2021-08-13T16:58:06Z</time>
      </trkpt>
      <trkpt lat="46.43255" lon="3.30432">
        <ele>277.48</ele>
        <time>2021-08-13T16:58:15Z</time>
      </trkpt>
      <trkpt lat="46.43223" lon="3.30446">
        <ele>277.48</ele>
        <time>2021-08-13T16:58:23Z</time>
      </trkpt>
      <trkpt lat="46.43199" lon="3.30455">
        <ele>276.04</ele>
        <time>2021-08-13T16:58:28Z</time>
      </trkpt>
      <trkpt lat="46.43159" lon="3.30471">
        <ele>275.07</ele>
        <time>2021-08-13T16:58:36Z</time>
      </trkpt>
      <trkpt lat="46.43094" lon="3.30499">
        <ele>271.71</ele>
        <time>2021-08-13T16:58:47Z</time>
      </trkpt>
      <trkpt lat="46.43027" lon="3.30528">
        <ele>270.27</ele>
        <time>2021-08-13T16:58:57Z</time>
      </trkpt>
      <trkpt lat="46.42984" lon="3.30547">
        <ele>270.27</ele>
        <time>2021-08-13T16:59:05Z</time>
      </trkpt>
      <trkpt lat="46.42979" lon="3.30555">
        <ele>270.27</ele>
        <time>2021-08-13T16:59:07Z</time>
      </trkpt>
      <trkpt lat="46.42977" lon="3.30561">
        <ele>270.27</ele>
        <time>2021-08-13T16:59:08Z</time>
      </trkpt>
      <trkpt lat="46.42975" lon="3.30567">
        <ele>270.27</ele>
        <time>2021-08-13T16:59:09Z</time>
      </trkpt>
      <trkpt lat="46.42952" lon="3.30619">
        <ele>267.86</ele>
        <time>2021-08-13T16:59:16Z</time>
      </trkpt>
      <trkpt lat="46.42946" lon="3.30627">
        <ele>266.9</ele>
        <time>2021-08-13T16:59:17Z</time>
      </trkpt>
      <trkpt lat="46.42941" lon="3.30633">
        <ele>266.42</ele>
        <time>2021-08-13T16:59:18Z</time>
      </trkpt>
      <trkpt lat="46.42935" lon="3.3064">
        <ele>266.42</ele>
        <time>2021-08-13T16:59:19Z</time>
      </trkpt>
      <trkpt lat="46.42928" lon="3.30645">
        <ele>265.94</ele>
        <time>2021-08-13T16:59:20Z</time>
      </trkpt>
      <trkpt lat="46.42921" lon="3.30651">
        <ele>264.98</ele>
        <time>2021-08-13T16:59:21Z</time>
      </trkpt>
      <trkpt lat="46.42882" lon="3.30675">
        <ele>262.58</ele>
        <time>2021-08-13T16:59:26Z</time>
      </trkpt>
      <trkpt lat="46.42841" lon="3.30699">
        <ele>259.21</ele>
        <time>2021-08-13T16:59:31Z</time>
      </trkpt>
      <trkpt lat="46.42789" lon="3.30729">
        <ele>255.85</ele>
        <time>2021-08-13T16:59:37Z</time>
      </trkpt>
      <trkpt lat="46.42744" lon="3.30756">
        <ele>253.44</ele>
        <time>2021-08-13T16:59:42Z</time>
      </trkpt>
      <trkpt lat="46.42736" lon="3.30763">
        <ele>252.48</ele>
        <time>2021-08-13T16:59:43Z</time>
      </trkpt>
      <trkpt lat="46.42727" lon="3.30773">
        <ele>252</ele>
        <time>2021-08-13T16:59:44Z</time>
      </trkpt>
      <trkpt lat="46.4272" lon="3.30782">
        <ele>252</ele>
        <time>2021-08-13T16:59:45Z</time>
      </trkpt>
      <trkpt lat="46.42713" lon="3.30795">
        <ele>251.04</ele>
        <time>2021-08-13T16:59:46Z</time>
      </trkpt>
      <trkpt lat="46.42684" lon="3.30842">
        <ele>247.68</ele>
        <time>2021-08-13T16:59:50Z</time>
      </trkpt>
      <trkpt lat="46.42654" lon="3.30892">
        <ele>244.31</ele>
        <time>2021-08-13T16:59:54Z</time>
      </trkpt>
      <trkpt lat="46.42617" lon="3.30953">
        <ele>240.95</ele>
        <time>2021-08-13T16:59:59Z</time>
      </trkpt>
      <trkpt lat="46.42613" lon="3.30961">
        <ele>240.95</ele>
        <time>2021-08-13T17:00:00Z</time>
      </trkpt>
      <trkpt lat="46.42608" lon="3.30969">
        <ele>240.95</ele>
        <time>2021-08-13T17:00:01Z</time>
      </trkpt>
      <trkpt lat="46.42604" lon="3.30972">
        <ele>240.95</ele>
        <time>2021-08-13T17:00:02Z</time>
      </trkpt>
      <trkpt lat="46.42601" lon="3.30972">
        <ele>240.95</ele>
        <time>2021-08-13T17:00:03Z</time>
      </trkpt>
      <trkpt lat="46.42599" lon="3.30968">
        <ele>240.95</ele>
        <time>2021-08-13T17:00:04Z</time>
      </trkpt>
      <trkpt lat="46.42598" lon="3.30963">
        <ele>240.47</ele>
        <time>2021-08-13T17:00:05Z</time>
      </trkpt>
      <trkpt lat="46.42598" lon="3.30957">
        <ele>240.47</ele>
        <time>2021-08-13T17:00:06Z</time>
      </trkpt>
      <trkpt lat="46.42598" lon="3.3091">
        <ele>240.47</ele>
        <time>2021-08-13T17:00:14Z</time>
      </trkpt>
      <trkpt lat="46.42598" lon="3.30892">
        <ele>241.91</ele>
        <time>2021-08-13T17:00:18Z</time>
      </trkpt>
      <trkpt lat="46.42594" lon="3.30864">
        <ele>243.35</ele>
        <time>2021-08-13T17:00:26Z</time>
      </trkpt>
      <trkpt lat="46.42592" lon="3.30863">
        <ele>243.35</ele>
        <time>2021-08-13T17:00:27Z</time>
      </trkpt>
      <trkpt lat="46.4259" lon="3.30862">
        <ele>243.35</ele>
        <time>2021-08-13T17:00:28Z</time>
      </trkpt>
      <trkpt lat="46.42587" lon="3.30862">
        <ele>243.83</ele>
        <time>2021-08-13T17:00:29Z</time>
      </trkpt>
      <trkpt lat="46.42584" lon="3.30863">
        <ele>243.83</ele>
        <time>2021-08-13T17:00:30Z</time>
      </trkpt>
      <trkpt lat="46.42582" lon="3.30865">
        <ele>243.83</ele>
        <time>2021-08-13T17:00:31Z</time>
      </trkpt>
      <trkpt lat="46.42579" lon="3.30867">
        <ele>244.31</ele>
        <time>2021-08-13T17:00:32Z</time>
      </trkpt>
      <trkpt lat="46.4256" lon="3.30881">
        <ele>244.31</ele>
        <time>2021-08-13T17:00:38Z</time>
      </trkpt>
      <trkpt lat="46.4252" lon="3.30906">
        <ele>244.31</ele>
        <time>2021-08-13T17:00:48Z</time>
      </trkpt>
      <trkpt lat="46.42516" lon="3.30907">
        <ele>244.31</ele>
        <time>2021-08-13T17:00:49Z</time>
      </trkpt>
      <trkpt lat="46.42512" lon="3.30909">
        <ele>244.31</ele>
        <time>2021-08-13T17:00:50Z</time>
      </trkpt>
      <trkpt lat="46.42504" lon="3.30913">
        <ele>242.87</ele>
        <time>2021-08-13T17:00:52Z</time>
      </trkpt>
      <trkpt lat="46.425" lon="3.30916">
        <ele>242.87</ele>
        <time>2021-08-13T17:00:53Z</time>
      </trkpt>
      <trkpt lat="46.42496" lon="3.30918">
        <ele>242.87</ele>
        <time>2021-08-13T17:00:54Z</time>
      </trkpt>
      <trkpt lat="46.42491" lon="3.30921">
        <ele>242.39</ele>
        <time>2021-08-13T17:00:55Z</time>
      </trkpt>
      <trkpt lat="46.42462" lon="3.30939">
        <ele>240.47</ele>
        <time>2021-08-13T17:01:01Z</time>
      </trkpt>
      <trkpt lat="46.42438" lon="3.30949">
        <ele>238.54</ele>
        <time>2021-08-13T17:01:05Z</time>
      </trkpt>
      <trkpt lat="46.42425" lon="3.3095">
        <ele>238.54</ele>
        <time>2021-08-13T17:01:07Z</time>
      </trkpt>
      <trkpt lat="46.42419" lon="3.3095">
        <ele>238.06</ele>
        <time>2021-08-13T17:01:08Z</time>
      </trkpt>
      <trkpt lat="46.42402" lon="3.30946">
        <ele>238.54</ele>
        <time>2021-08-13T17:01:11Z</time>
      </trkpt>
      <trkpt lat="46.42396" lon="3.30942">
        <ele>238.54</ele>
        <time>2021-08-13T17:01:12Z</time>
      </trkpt>
      <trkpt lat="46.42391" lon="3.30937">
        <ele>238.54</ele>
        <time>2021-08-13T17:01:13Z</time>
      </trkpt>
      <trkpt lat="46.42365" lon="3.30902">
        <ele>239.51</ele>
        <time>2021-08-13T17:01:20Z</time>
      </trkpt>
      <trkpt lat="46.42362" lon="3.30898">
        <ele>239.51</ele>
        <time>2021-08-13T17:01:21Z</time>
      </trkpt>
      <trkpt lat="46.42343" lon="3.30867">
        <ele>241.43</ele>
        <time>2021-08-13T17:01:29Z</time>
      </trkpt>
      <trkpt lat="46.42329" lon="3.3084">
        <ele>242.87</ele>
        <time>2021-08-13T17:01:37Z</time>
      </trkpt>
      <trkpt lat="46.42321" lon="3.30822">
        <ele>243.83</ele>
        <time>2021-08-13T17:01:44Z</time>
      </trkpt>
      <trkpt lat="46.42313" lon="3.30806">
        <ele>244.31</ele>
        <time>2021-08-13T17:01:49Z</time>
      </trkpt>
      <trkpt lat="46.423" lon="3.30782">
        <ele>244.79</ele>
        <time>2021-08-13T17:01:56Z</time>
      </trkpt>
      <trkpt lat="46.42286" lon="3.30755">
        <ele>245.27</ele>
        <time>2021-08-13T17:02:04Z</time>
      </trkpt>
      <trkpt lat="46.42272" lon="3.30732">
        <ele>245.27</ele>
        <time>2021-08-13T17:02:11Z</time>
      </trkpt>
      <trkpt lat="46.4226" lon="3.30703">
        <ele>245.75</ele>
        <time>2021-08-13T17:02:18Z</time>
      </trkpt>
      <trkpt lat="46.42251" lon="3.30664">
        <ele>246.23</ele>
        <time>2021-08-13T17:02:26Z</time>
      </trkpt>
      <trkpt lat="46.42251" lon="3.30627">
        <ele>246.72</ele>
        <time>2021-08-13T17:02:33Z</time>
      </trkpt>
      <trkpt lat="46.42255" lon="3.30588">
        <ele>246.72</ele>
        <time>2021-08-13T17:02:40Z</time>
      </trkpt>
      <trkpt lat="46.42269" lon="3.30537">
        <ele>246.72</ele>
        <time>2021-08-13T17:02:49Z</time>
      </trkpt>
      <trkpt lat="46.42282" lon="3.30491">
        <ele>247.2</ele>
        <time>2021-08-13T17:02:58Z</time>
      </trkpt>
      <trkpt lat="46.42291" lon="3.30456">
        <ele>247.68</ele>
        <time>2021-08-13T17:03:05Z</time>
      </trkpt>
      <trkpt lat="46.42302" lon="3.30416">
        <ele>248.16</ele>
        <time>2021-08-13T17:03:13Z</time>
      </trkpt>
      <trkpt lat="46.42314" lon="3.30376">
        <ele>248.64</ele>
        <time>2021-08-13T17:03:21Z</time>
      </trkpt>
      <trkpt lat="46.42326" lon="3.30337">
        <ele>248.64</ele>
        <time>2021-08-13T17:03:28Z</time>
      </trkpt>
      <trkpt lat="46.42341" lon="3.30292">
        <ele>248.64</ele>
        <time>2021-08-13T17:03:37Z</time>
      </trkpt>
      <trkpt lat="46.42357" lon="3.3024">
        <ele>248.64</ele>
        <time>2021-08-13T17:03:46Z</time>
      </trkpt>
      <trkpt lat="46.4237" lon="3.30189">
        <ele>248.64</ele>
        <time>2021-08-13T17:03:54Z</time>
      </trkpt>
      <trkpt lat="46.42379" lon="3.30156">
        <ele>247.68</ele>
        <time>2021-08-13T17:03:59Z</time>
      </trkpt>
      <trkpt lat="46.42398" lon="3.30089">
        <ele>246.72</ele>
        <time>2021-08-13T17:04:09Z</time>
      </trkpt>
      <trkpt lat="46.42416" lon="3.30041">
        <ele>244.79</ele>
        <time>2021-08-13T17:04:16Z</time>
      </trkpt>
      <trkpt lat="46.42434" lon="3.29987">
        <ele>243.35</ele>
        <time>2021-08-13T17:04:23Z</time>
      </trkpt>
      <trkpt lat="46.42454" lon="3.29907">
        <ele>242.39</ele>
        <time>2021-08-13T17:04:33Z</time>
      </trkpt>
      <trkpt lat="46.4247" lon="3.29793">
        <ele>240.47</ele>
        <time>2021-08-13T17:04:47Z</time>
      </trkpt>
      <trkpt lat="46.42487" lon="3.29716">
        <ele>239.99</ele>
        <time>2021-08-13T17:04:57Z</time>
      </trkpt>
      <trkpt lat="46.425" lon="3.29657">
        <ele>239.99</ele>
        <time>2021-08-13T17:05:05Z</time>
      </trkpt>
      <trkpt lat="46.42512" lon="3.29596">
        <ele>239.99</ele>
        <time>2021-08-13T17:05:14Z</time>
      </trkpt>
      <trkpt lat="46.42513" lon="3.29559">
        <ele>239.99</ele>
        <time>2021-08-13T17:05:19Z</time>
      </trkpt>
      <trkpt lat="46.42507" lon="3.29484">
        <ele>239.99</ele>
        <time>2021-08-13T17:05:29Z</time>
      </trkpt>
      <trkpt lat="46.42503" lon="3.29422">
        <ele>241.43</ele>
        <time>2021-08-13T17:05:38Z</time>
      </trkpt>
      <trkpt lat="46.42501" lon="3.29387">
        <ele>241.43</ele>
        <time>2021-08-13T17:05:43Z</time>
      </trkpt>
      <trkpt lat="46.42498" lon="3.29369">
        <ele>241.43</ele>
        <time>2021-08-13T17:05:45Z</time>
      </trkpt>
      <trkpt lat="46.42498" lon="3.29363">
        <ele>241.43</ele>
        <time>2021-08-13T17:05:46Z</time>
      </trkpt>
      <trkpt lat="46.42497" lon="3.29358">
        <ele>241.43</ele>
        <time>2021-08-13T17:05:47Z</time>
      </trkpt>
      <trkpt lat="46.42495" lon="3.29356">
        <ele>241.43</ele>
        <time>2021-08-13T17:05:48Z</time>
      </trkpt>
      <trkpt lat="46.4249" lon="3.29356">
        <ele>240.95</ele>
        <time>2021-08-13T17:05:49Z</time>
      </trkpt>
      <trkpt lat="46.42485" lon="3.29356">
        <ele>240.95</ele>
        <time>2021-08-13T17:05:50Z</time>
      </trkpt>
      <trkpt lat="46.42482" lon="3.29361">
        <ele>240.95</ele>
        <time>2021-08-13T17:05:51Z</time>
      </trkpt>
      <trkpt lat="46.42481" lon="3.29365">
        <ele>240.95</ele>
        <time>2021-08-13T17:05:52Z</time>
      </trkpt>
      <trkpt lat="46.42479" lon="3.29371">
        <ele>240.95</ele>
        <time>2021-08-13T17:05:53Z</time>
      </trkpt>
      <trkpt lat="46.42477" lon="3.29377">
        <ele>240.95</ele>
        <time>2021-08-13T17:05:54Z</time>
      </trkpt>
      <trkpt lat="46.42465" lon="3.294">
        <ele>239.51</ele>
        <time>2021-08-13T17:05:58Z</time>
      </trkpt>
      <trkpt lat="46.42461" lon="3.29405">
        <ele>239.51</ele>
        <time>2021-08-13T17:05:59Z</time>
      </trkpt>
      <trkpt lat="46.42457" lon="3.29409">
        <ele>239.51</ele>
        <time>2021-08-13T17:06:00Z</time>
      </trkpt>
      <trkpt lat="46.42452" lon="3.29413">
        <ele>239.51</ele>
        <time>2021-08-13T17:06:01Z</time>
      </trkpt>
      <trkpt lat="46.42447" lon="3.29416">
        <ele>239.51</ele>
        <time>2021-08-13T17:06:02Z</time>
      </trkpt>
      <trkpt lat="46.42442" lon="3.29419">
        <ele>239.02</ele>
        <time>2021-08-13T17:06:03Z</time>
      </trkpt>
      <trkpt lat="46.42382" lon="3.29447">
        <ele>238.54</ele>
        <time>2021-08-13T17:06:14Z</time>
      </trkpt>
      <trkpt lat="46.42346" lon="3.29463">
        <ele>238.54</ele>
        <time>2021-08-13T17:06:21Z</time>
      </trkpt>
      <trkpt lat="46.42328" lon="3.29472">
        <ele>238.54</ele>
        <time>2021-08-13T17:06:25Z</time>
      </trkpt>
      <trkpt lat="46.4232" lon="3.29477">
        <ele>239.99</ele>
        <time>2021-08-13T17:06:27Z</time>
      </trkpt>
      <trkpt lat="46.42294" lon="3.29496">
        <ele>241.43</ele>
        <time>2021-08-13T17:06:35Z</time>
      </trkpt>
      <trkpt lat="46.42269" lon="3.29522">
        <ele>242.87</ele>
        <time>2021-08-13T17:06:45Z</time>
      </trkpt>
      <trkpt lat="46.42252" lon="3.29545">
        <ele>244.31</ele>
        <time>2021-08-13T17:06:53Z</time>
      </trkpt>
      <trkpt lat="46.42235" lon="3.29568">
        <ele>244.79</ele>
        <time>2021-08-13T17:07:01Z</time>
      </trkpt>
      <trkpt lat="46.42217" lon="3.29594">
        <ele>245.75</ele>
        <time>2021-08-13T17:07:10Z</time>
      </trkpt>
      <trkpt lat="46.422" lon="3.29616">
        <ele>246.72</ele>
        <time>2021-08-13T17:07:18Z</time>
      </trkpt>
      <trkpt lat="46.4218" lon="3.29644">
        <ele>248.16</ele>
        <time>2021-08-13T17:07:28Z</time>
      </trkpt>
      <trkpt lat="46.42165" lon="3.29665">
        <ele>248.64</ele>
        <time>2021-08-13T17:07:36Z</time>
      </trkpt>
      <trkpt lat="46.42149" lon="3.29688">
        <ele>250.08</ele>
        <time>2021-08-13T17:07:45Z</time>
      </trkpt>
      <trkpt lat="46.42132" lon="3.29711">
        <ele>250.56</ele>
        <time>2021-08-13T17:07:54Z</time>
      </trkpt>
      <trkpt lat="46.42112" lon="3.29739">
        <ele>251.52</ele>
        <time>2021-08-13T17:08:04Z</time>
      </trkpt>
      <trkpt lat="46.42093" lon="3.29765">
        <ele>252.48</ele>
        <time>2021-08-13T17:08:13Z</time>
      </trkpt>
      <trkpt lat="46.42081" lon="3.29781">
        <ele>252.96</ele>
        <time>2021-08-13T17:08:19Z</time>
      </trkpt>
      <trkpt lat="46.42063" lon="3.29806">
        <ele>253.93</ele>
        <time>2021-08-13T17:08:28Z</time>
      </trkpt>
      <trkpt lat="46.42045" lon="3.29827">
        <ele>254.89</ele>
        <time>2021-08-13T17:08:37Z</time>
      </trkpt>
      <trkpt lat="46.42021" lon="3.29851">
        <ele>256.33</ele>
        <time>2021-08-13T17:08:48Z</time>
      </trkpt>
      <trkpt lat="46.42001" lon="3.29869">
        <ele>257.77</ele>
        <time>2021-08-13T17:08:58Z</time>
      </trkpt>
      <trkpt lat="46.41982" lon="3.29887">
        <ele>259.21</ele>
        <time>2021-08-13T17:09:07Z</time>
      </trkpt>
      <trkpt lat="46.41964" lon="3.29904">
        <ele>260.65</ele>
        <time>2021-08-13T17:09:16Z</time>
      </trkpt>
      <trkpt lat="46.41946" lon="3.29921">
        <ele>261.14</ele>
        <time>2021-08-13T17:09:24Z</time>
      </trkpt>
      <trkpt lat="46.41927" lon="3.29939">
        <ele>261.62</ele>
        <time>2021-08-13T17:09:31Z</time>
      </trkpt>
      <trkpt lat="46.41908" lon="3.29957">
        <ele>261.62</ele>
        <time>2021-08-13T17:09:37Z</time>
      </trkpt>
      <trkpt lat="46.41904" lon="3.29961">
        <ele>260.17</ele>
        <time>2021-08-13T17:09:38Z</time>
      </trkpt>
      <trkpt lat="46.41874" lon="3.29989">
        <ele>257.77</ele>
        <time>2021-08-13T17:09:44Z</time>
      </trkpt>
      <trkpt lat="46.41842" lon="3.30015">
        <ele>254.89</ele>
        <time>2021-08-13T17:09:49Z</time>
      </trkpt>
      <trkpt lat="46.41817" lon="3.30024">
        <ele>253.44</ele>
        <time>2021-08-13T17:09:52Z</time>
      </trkpt>
      <trkpt lat="46.41811" lon="3.30025">
        <ele>252.96</ele>
        <time>2021-08-13T17:09:53Z</time>
      </trkpt>
      <trkpt lat="46.41785" lon="3.30026">
        <ele>254.41</ele>
        <time>2021-08-13T17:09:57Z</time>
      </trkpt>
      <trkpt lat="46.41765" lon="3.30024">
        <ele>256.33</ele>
        <time>2021-08-13T17:10:01Z</time>
      </trkpt>
      <trkpt lat="46.41745" lon="3.30024">
        <ele>257.77</ele>
        <time>2021-08-13T17:10:08Z</time>
      </trkpt>
      <trkpt lat="46.41721" lon="3.30024">
        <ele>259.69</ele>
        <time>2021-08-13T17:10:17Z</time>
      </trkpt>
      <trkpt lat="46.41701" lon="3.30026">
        <ele>261.14</ele>
        <time>2021-08-13T17:10:26Z</time>
      </trkpt>
      <trkpt lat="46.41683" lon="3.30025">
        <ele>262.1</ele>
        <time>2021-08-13T17:10:34Z</time>
      </trkpt>
      <trkpt lat="46.41662" lon="3.30025">
        <ele>263.54</ele>
        <time>2021-08-13T17:10:43Z</time>
      </trkpt>
      <trkpt lat="46.41659" lon="3.30025">
        <ele>263.54</ele>
        <time>2021-08-13T17:10:44Z</time>
      </trkpt>
      <trkpt lat="46.41657" lon="3.30026">
        <ele>263.54</ele>
        <time>2021-08-13T17:10:45Z</time>
      </trkpt>
      <trkpt lat="46.41655" lon="3.30027">
        <ele>264.02</ele>
        <time>2021-08-13T17:10:46Z</time>
      </trkpt>
      <trkpt lat="46.41653" lon="3.30027">
        <ele>264.02</ele>
        <time>2021-08-13T17:10:47Z</time>
      </trkpt>
      <trkpt lat="46.4165" lon="3.30027">
        <ele>264.02</ele>
        <time>2021-08-13T17:10:48Z</time>
      </trkpt>
      <trkpt lat="46.41648" lon="3.30028">
        <ele>264.5</ele>
        <time>2021-08-13T17:10:49Z</time>
      </trkpt>
      <trkpt lat="46.41627" lon="3.30032">
        <ele>265.46</ele>
        <time>2021-08-13T17:10:59Z</time>
      </trkpt>
      <trkpt lat="46.416" lon="3.30039">
        <ele>267.38</ele>
        <time>2021-08-13T17:11:12Z</time>
      </trkpt>
      <trkpt lat="46.41575" lon="3.30048">
        <ele>268.83</ele>
        <time>2021-08-13T17:11:24Z</time>
      </trkpt>
      <trkpt lat="46.41551" lon="3.30065">
        <ele>270.75</ele>
        <time>2021-08-13T17:11:36Z</time>
      </trkpt>
      <trkpt lat="46.41547" lon="3.30084">
        <ele>270.75</ele>
        <time>2021-08-13T17:11:42Z</time>
      </trkpt>
      <trkpt lat="46.4155" lon="3.30121">
        <ele>271.23</ele>
        <time>2021-08-13T17:11:50Z</time>
      </trkpt>
      <trkpt lat="46.4155" lon="3.30155">
        <ele>271.71</ele>
        <time>2021-08-13T17:11:57Z</time>
      </trkpt>
      <trkpt lat="46.41549" lon="3.30198">
        <ele>272.19</ele>
        <time>2021-08-13T17:12:05Z</time>
      </trkpt>
      <trkpt lat="46.41545" lon="3.30233">
        <ele>272.67</ele>
        <time>2021-08-13T17:12:12Z</time>
      </trkpt>
      <trkpt lat="46.41542" lon="3.30281">
        <ele>274.11</ele>
        <time>2021-08-13T17:12:21Z</time>
      </trkpt>
      <trkpt lat="46.41543" lon="3.30332">
        <ele>275.07</ele>
        <time>2021-08-13T17:12:30Z</time>
      </trkpt>
      <trkpt lat="46.41544" lon="3.30388">
        <ele>275.56</ele>
        <time>2021-08-13T17:12:40Z</time>
      </trkpt>
      <trkpt lat="46.41544" lon="3.30441">
        <ele>275.56</ele>
        <time>2021-08-13T17:12:49Z</time>
      </trkpt>
      <trkpt lat="46.41543" lon="3.3051">
        <ele>276.04</ele>
        <time>2021-08-13T17:13:01Z</time>
      </trkpt>
      <trkpt lat="46.41535" lon="3.30561">
        <ele>277</ele>
        <time>2021-08-13T17:13:11Z</time>
      </trkpt>
      <trkpt lat="46.41523" lon="3.3061">
        <ele>277</ele>
        <time>2021-08-13T17:13:20Z</time>
      </trkpt>
      <trkpt lat="46.41521" lon="3.30623">
        <ele>277</ele>
        <time>2021-08-13T17:13:22Z</time>
      </trkpt>
      <trkpt lat="46.4152" lon="3.30629">
        <ele>277</ele>
        <time>2021-08-13T17:13:23Z</time>
      </trkpt>
      <trkpt lat="46.41518" lon="3.30636">
        <ele>277</ele>
        <time>2021-08-13T17:13:24Z</time>
      </trkpt>
      <trkpt lat="46.41517" lon="3.30643">
        <ele>277</ele>
        <time>2021-08-13T17:13:25Z</time>
      </trkpt>
      <trkpt lat="46.41516" lon="3.30649">
        <ele>277</ele>
        <time>2021-08-13T17:13:26Z</time>
      </trkpt>
      <trkpt lat="46.41508" lon="3.30692">
        <ele>277</ele>
        <time>2021-08-13T17:13:33Z</time>
      </trkpt>
      <trkpt lat="46.415" lon="3.30761">
        <ele>277</ele>
        <time>2021-08-13T17:13:44Z</time>
      </trkpt>
      <trkpt lat="46.415" lon="3.30815">
        <ele>277</ele>
        <time>2021-08-13T17:13:52Z</time>
      </trkpt>
      <trkpt lat="46.415" lon="3.30839">
        <ele>275.56</ele>
        <time>2021-08-13T17:13:57Z</time>
      </trkpt>
      <trkpt lat="46.41499" lon="3.30856">
        <ele>275.07</ele>
        <time>2021-08-13T17:14:00Z</time>
      </trkpt>
      <trkpt lat="46.41498" lon="3.30868">
        <ele>275.07</ele>
        <time>2021-08-13T17:14:04Z</time>
      </trkpt>
      <trkpt lat="46.41499" lon="3.30857">
        <ele>275.07</ele>
        <time>2021-08-13T17:14:08Z</time>
      </trkpt>
      <trkpt lat="46.41501" lon="3.30839">
        <ele>275.07</ele>
        <time>2021-08-13T17:14:12Z</time>
      </trkpt>
      <trkpt lat="46.41499" lon="3.30809">
        <ele>275.07</ele>
        <time>2021-08-13T17:14:20Z</time>
      </trkpt>
      <trkpt lat="46.41498" lon="3.30808">
        <ele>275.07</ele>
        <time>2021-08-13T17:14:21Z</time>
      </trkpt>
      <trkpt lat="46.41496" lon="3.30808">
        <ele>275.56</ele>
        <time>2021-08-13T17:14:22Z</time>
      </trkpt>
      <trkpt lat="46.41495" lon="3.3081">
        <ele>275.07</ele>
        <time>2021-08-13T17:14:23Z</time>
      </trkpt>
      <trkpt lat="46.41494" lon="3.30813">
        <ele>275.07</ele>
        <time>2021-08-13T17:14:24Z</time>
      </trkpt>
      <trkpt lat="46.41493" lon="3.30816">
        <ele>275.07</ele>
        <time>2021-08-13T17:14:25Z</time>
      </trkpt>
      <trkpt lat="46.41492" lon="3.30819">
        <ele>274.59</ele>
        <time>2021-08-13T17:14:26Z</time>
      </trkpt>
      <trkpt lat="46.4149" lon="3.30822">
        <ele>273.63</ele>
        <time>2021-08-13T17:14:27Z</time>
      </trkpt>
      <trkpt lat="46.41488" lon="3.30826">
        <ele>272.67</ele>
        <time>2021-08-13T17:14:28Z</time>
      </trkpt>
      <trkpt lat="46.41485" lon="3.30831">
        <ele>271.71</ele>
        <time>2021-08-13T17:14:29Z</time>
      </trkpt>
      <trkpt lat="46.41479" lon="3.30839">
        <ele>270.27</ele>
        <time>2021-08-13T17:14:31Z</time>
      </trkpt>
      <trkpt lat="46.41475" lon="3.30844">
        <ele>269.79</ele>
        <time>2021-08-13T17:14:32Z</time>
      </trkpt>
      <trkpt lat="46.4147" lon="3.30847">
        <ele>268.83</ele>
        <time>2021-08-13T17:14:33Z</time>
      </trkpt>
      <trkpt lat="46.41465" lon="3.30851">
        <ele>268.35</ele>
        <time>2021-08-13T17:14:34Z</time>
      </trkpt>
      <trkpt lat="46.41461" lon="3.30853">
        <ele>267.38</ele>
        <time>2021-08-13T17:14:35Z</time>
      </trkpt>
      <trkpt lat="46.41434" lon="3.30863">
        <ele>264.02</ele>
        <time>2021-08-13T17:14:39Z</time>
      </trkpt>
      <trkpt lat="46.41399" lon="3.30875">
        <ele>261.14</ele>
        <time>2021-08-13T17:14:45Z</time>
      </trkpt>
      <trkpt lat="46.41382" lon="3.3088">
        <ele>258.73</ele>
        <time>2021-08-13T17:14:48Z</time>
      </trkpt>
      <trkpt lat="46.41377" lon="3.30879">
        <ele>258.73</ele>
        <time>2021-08-13T17:14:49Z</time>
      </trkpt>
      <trkpt lat="46.41373" lon="3.30877">
        <ele>257.29</ele>
        <time>2021-08-13T17:14:50Z</time>
      </trkpt>
      <trkpt lat="46.41369" lon="3.30875">
        <ele>256.81</ele>
        <time>2021-08-13T17:14:51Z</time>
      </trkpt>
      <trkpt lat="46.41364" lon="3.30873">
        <ele>255.85</ele>
        <time>2021-08-13T17:14:52Z</time>
      </trkpt>
      <trkpt lat="46.4136" lon="3.30872">
        <ele>254.89</ele>
        <time>2021-08-13T17:14:53Z</time>
      </trkpt>
      <trkpt lat="46.41355" lon="3.30871">
        <ele>253.93</ele>
        <time>2021-08-13T17:14:54Z</time>
      </trkpt>
      <trkpt lat="46.4135" lon="3.3087">
        <ele>253.44</ele>
        <time>2021-08-13T17:14:55Z</time>
      </trkpt>
      <trkpt lat="46.41329" lon="3.30863">
        <ele>250.08</ele>
        <time>2021-08-13T17:14:59Z</time>
      </trkpt>
      <trkpt lat="46.41307" lon="3.30854">
        <ele>247.2</ele>
        <time>2021-08-13T17:15:03Z</time>
      </trkpt>
      <trkpt lat="46.41296" lon="3.30849">
        <ele>245.75</ele>
        <time>2021-08-13T17:15:05Z</time>
      </trkpt>
      <trkpt lat="46.41291" lon="3.30844">
        <ele>245.27</ele>
        <time>2021-08-13T17:15:06Z</time>
      </trkpt>
      <trkpt lat="46.41287" lon="3.30838">
        <ele>244.79</ele>
        <time>2021-08-13T17:15:07Z</time>
      </trkpt>
      <trkpt lat="46.41284" lon="3.3083">
        <ele>244.79</ele>
        <time>2021-08-13T17:15:08Z</time>
      </trkpt>
      <trkpt lat="46.41281" lon="3.30822">
        <ele>244.79</ele>
        <time>2021-08-13T17:15:09Z</time>
      </trkpt>
      <trkpt lat="46.41278" lon="3.30815">
        <ele>244.31</ele>
        <time>2021-08-13T17:15:10Z</time>
      </trkpt>
      <trkpt lat="46.41275" lon="3.30809">
        <ele>244.31</ele>
        <time>2021-08-13T17:15:11Z</time>
      </trkpt>
      <trkpt lat="46.41272" lon="3.30805">
        <ele>244.31</ele>
        <time>2021-08-13T17:15:12Z</time>
      </trkpt>
      <trkpt lat="46.41268" lon="3.30803">
        <ele>243.83</ele>
        <time>2021-08-13T17:15:13Z</time>
      </trkpt>
      <trkpt lat="46.41266" lon="3.30803">
        <ele>243.83</ele>
        <time>2021-08-13T17:15:14Z</time>
      </trkpt>
      <trkpt lat="46.41262" lon="3.30806">
        <ele>242.87</ele>
        <time>2021-08-13T17:15:15Z</time>
      </trkpt>
      <trkpt lat="46.4126" lon="3.3081">
        <ele>242.87</ele>
        <time>2021-08-13T17:15:16Z</time>
      </trkpt>
      <trkpt lat="46.41259" lon="3.30815">
        <ele>242.39</ele>
        <time>2021-08-13T17:15:17Z</time>
      </trkpt>
      <trkpt lat="46.41255" lon="3.30834">
        <ele>241.91</ele>
        <time>2021-08-13T17:15:20Z</time>
      </trkpt>
      <trkpt lat="46.41253" lon="3.30847">
        <ele>241.91</ele>
        <time>2021-08-13T17:15:22Z</time>
      </trkpt>
      <trkpt lat="46.41238" lon="3.3091">
        <ele>239.99</ele>
        <time>2021-08-13T17:15:30Z</time>
      </trkpt>
      <trkpt lat="46.41221" lon="3.30986">
        <ele>239.02</ele>
        <time>2021-08-13T17:15:39Z</time>
      </trkpt>
      <trkpt lat="46.41204" lon="3.31065">
        <ele>237.58</ele>
        <time>2021-08-13T17:15:48Z</time>
      </trkpt>
      <trkpt lat="46.41191" lon="3.31111">
        <ele>236.62</ele>
        <time>2021-08-13T17:15:54Z</time>
      </trkpt>
      <trkpt lat="46.41187" lon="3.31115">
        <ele>236.62</ele>
        <time>2021-08-13T17:15:55Z</time>
      </trkpt>
      <trkpt lat="46.41181" lon="3.31117">
        <ele>236.14</ele>
        <time>2021-08-13T17:15:56Z</time>
      </trkpt>
      <trkpt lat="46.41133" lon="3.31129">
        <ele>233.74</ele>
        <time>2021-08-13T17:16:04Z</time>
      </trkpt>
      <trkpt lat="46.41067" lon="3.31138">
        <ele>231.33</ele>
        <time>2021-08-13T17:16:13Z</time>
      </trkpt>
      <trkpt lat="46.41027" lon="3.31144">
        <ele>231.33</ele>
        <time>2021-08-13T17:16:19Z</time>
      </trkpt>
      <trkpt lat="46.41016" lon="3.31148">
        <ele>231.33</ele>
        <time>2021-08-13T17:16:21Z</time>
      </trkpt>
      <trkpt lat="46.41012" lon="3.31151">
        <ele>231.33</ele>
        <time>2021-08-13T17:16:22Z</time>
      </trkpt>
      <trkpt lat="46.41008" lon="3.31157">
        <ele>231.33</ele>
        <time>2021-08-13T17:16:23Z</time>
      </trkpt>
      <trkpt lat="46.41006" lon="3.31162">
        <ele>231.33</ele>
        <time>2021-08-13T17:16:24Z</time>
      </trkpt>
      <trkpt lat="46.41004" lon="3.31169">
        <ele>231.33</ele>
        <time>2021-08-13T17:16:25Z</time>
      </trkpt>
      <trkpt lat="46.40998" lon="3.31181">
        <ele>231.33</ele>
        <time>2021-08-13T17:16:27Z</time>
      </trkpt>
      <trkpt lat="46.40995" lon="3.31185">
        <ele>231.33</ele>
        <time>2021-08-13T17:16:28Z</time>
      </trkpt>
      <trkpt lat="46.4099" lon="3.31188">
        <ele>230.85</ele>
        <time>2021-08-13T17:16:29Z</time>
      </trkpt>
      <trkpt lat="46.40987" lon="3.31189">
        <ele>231.33</ele>
        <time>2021-08-13T17:16:30Z</time>
      </trkpt>
      <trkpt lat="46.40983" lon="3.3119">
        <ele>231.33</ele>
        <time>2021-08-13T17:16:31Z</time>
      </trkpt>
      <trkpt lat="46.40979" lon="3.31188">
        <ele>231.33</ele>
        <time>2021-08-13T17:16:32Z</time>
      </trkpt>
      <trkpt lat="46.40976" lon="3.31185">
        <ele>232.3</ele>
        <time>2021-08-13T17:16:33Z</time>
      </trkpt>
      <trkpt lat="46.40973" lon="3.31181">
        <ele>232.3</ele>
        <time>2021-08-13T17:16:34Z</time>
      </trkpt>
      <trkpt lat="46.40958" lon="3.31177">
        <ele>232.3</ele>
        <time>2021-08-13T17:16:38Z</time>
      </trkpt>
      <trkpt lat="46.40954" lon="3.31175">
        <ele>232.3</ele>
        <time>2021-08-13T17:16:39Z</time>
      </trkpt>
      <trkpt lat="46.4095" lon="3.31172">
        <ele>232.3</ele>
        <time>2021-08-13T17:16:40Z</time>
      </trkpt>
      <trkpt lat="46.40942" lon="3.31165">
        <ele>232.3</ele>
        <time>2021-08-13T17:16:42Z</time>
      </trkpt>
      <trkpt lat="46.40939" lon="3.31162">
        <ele>232.3</ele>
        <time>2021-08-13T17:16:43Z</time>
      </trkpt>
      <trkpt lat="46.40934" lon="3.3116">
        <ele>232.3</ele>
        <time>2021-08-13T17:16:44Z</time>
      </trkpt>
      <trkpt lat="46.4093" lon="3.31158">
        <ele>232.3</ele>
        <time>2021-08-13T17:16:45Z</time>
      </trkpt>
      <trkpt lat="46.40925" lon="3.31157">
        <ele>232.3</ele>
        <time>2021-08-13T17:16:46Z</time>
      </trkpt>
      <trkpt lat="46.40921" lon="3.31156">
        <ele>232.3</ele>
        <time>2021-08-13T17:16:47Z</time>
      </trkpt>
      <trkpt lat="46.40912" lon="3.31155">
        <ele>232.78</ele>
        <time>2021-08-13T17:16:49Z</time>
      </trkpt>
      <trkpt lat="46.40884" lon="3.31149">
        <ele>234.22</ele>
        <time>2021-08-13T17:16:57Z</time>
      </trkpt>
      <trkpt lat="46.40857" lon="3.31137">
        <ele>235.66</ele>
        <time>2021-08-13T17:17:07Z</time>
      </trkpt>
      <trkpt lat="46.40831" lon="3.31118">
        <ele>237.58</ele>
        <time>2021-08-13T17:17:17Z</time>
      </trkpt>
      <trkpt lat="46.40808" lon="3.31097">
        <ele>239.02</ele>
        <time>2021-08-13T17:17:27Z</time>
      </trkpt>
      <trkpt lat="46.40788" lon="3.31078">
        <ele>240.47</ele>
        <time>2021-08-13T17:17:36Z</time>
      </trkpt>
      <trkpt lat="46.40767" lon="3.31062">
        <ele>241.91</ele>
        <time>2021-08-13T17:17:45Z</time>
      </trkpt>
      <trkpt lat="46.40745" lon="3.31049">
        <ele>242.87</ele>
        <time>2021-08-13T17:17:54Z</time>
      </trkpt>
      <trkpt lat="46.40731" lon="3.3104">
        <ele>243.35</ele>
        <time>2021-08-13T17:18:00Z</time>
      </trkpt>
      <trkpt lat="46.40699" lon="3.31022">
        <ele>244.31</ele>
        <time>2021-08-13T17:18:11Z</time>
      </trkpt>
      <trkpt lat="46.40668" lon="3.31">
        <ele>244.31</ele>
        <time>2021-08-13T17:18:20Z</time>
      </trkpt>
      <trkpt lat="46.40649" lon="3.30981">
        <ele>244.31</ele>
        <time>2021-08-13T17:18:25Z</time>
      </trkpt>
      <trkpt lat="46.40645" lon="3.30979">
        <ele>244.31</ele>
        <time>2021-08-13T17:18:26Z</time>
      </trkpt>
      <trkpt lat="46.40641" lon="3.30979">
        <ele>244.31</ele>
        <time>2021-08-13T17:18:27Z</time>
      </trkpt>
      <trkpt lat="46.40637" lon="3.30981">
        <ele>244.79</ele>
        <time>2021-08-13T17:18:28Z</time>
      </trkpt>
      <trkpt lat="46.40634" lon="3.30983">
        <ele>244.79</ele>
        <time>2021-08-13T17:18:29Z</time>
      </trkpt>
      <trkpt lat="46.40632" lon="3.30985">
        <ele>245.27</ele>
        <time>2021-08-13T17:18:30Z</time>
      </trkpt>
      <trkpt lat="46.4063" lon="3.30988">
        <ele>245.75</ele>
        <time>2021-08-13T17:18:31Z</time>
      </trkpt>
      <trkpt lat="46.40628" lon="3.30991">
        <ele>245.75</ele>
        <time>2021-08-13T17:18:32Z</time>
      </trkpt>
      <trkpt lat="46.40627" lon="3.30994">
        <ele>246.23</ele>
        <time>2021-08-13T17:18:33Z</time>
      </trkpt>
      <trkpt lat="46.40619" lon="3.31016">
        <ele>248.64</ele>
        <time>2021-08-13T17:18:41Z</time>
      </trkpt>
      <trkpt lat="46.4061" lon="3.31035">
        <ele>249.6</ele>
        <time>2021-08-13T17:18:49Z</time>
      </trkpt>
      <trkpt lat="46.40608" lon="3.31041">
        <ele>249.6</ele>
        <time>2021-08-13T17:18:55Z</time>
      </trkpt>
      <trkpt lat="46.40608" lon="3.31039">
        <ele>249.6</ele>
        <time>2021-08-13T17:19:07Z</time>
      </trkpt>
      <trkpt lat="46.40608" lon="3.3104">
        <ele>249.6</ele>
        <time>2021-08-13T17:19:20Z</time>
      </trkpt>
      <trkpt lat="46.4061" lon="3.3104">
        <ele>249.6</ele>
        <time>2021-08-13T17:19:26Z</time>
      </trkpt>
      <trkpt lat="46.40611" lon="3.3104">
        <ele>249.6</ele>
        <time>2021-08-13T17:19:29Z</time>
      </trkpt>
      <trkpt lat="46.40611" lon="3.3104">
        <ele>249.6</ele>
        <time>2021-08-13T17:19:30Z</time>
      </trkpt>
      <trkpt lat="46.40613" lon="3.3104">
        <ele>249.6</ele>
        <time>2021-08-13T17:19:31Z</time>
      </trkpt>
      <trkpt lat="46.40615" lon="3.31042">
        <ele>249.6</ele>
        <time>2021-08-13T17:19:32Z</time>
      </trkpt>
      <trkpt lat="46.40616" lon="3.31044">
        <ele>249.6</ele>
        <time>2021-08-13T17:19:33Z</time>
      </trkpt>
      <trkpt lat="46.40616" lon="3.31047">
        <ele>249.6</ele>
        <time>2021-08-13T17:19:34Z</time>
      </trkpt>
      <trkpt lat="46.40617" lon="3.31051">
        <ele>249.6</ele>
        <time>2021-08-13T17:19:35Z</time>
      </trkpt>
      <trkpt lat="46.40618" lon="3.31054">
        <ele>250.08</ele>
        <time>2021-08-13T17:19:36Z</time>
      </trkpt>
      <trkpt lat="46.40618" lon="3.31058">
        <ele>250.08</ele>
        <time>2021-08-13T17:19:37Z</time>
      </trkpt>
      <trkpt lat="46.40619" lon="3.31062">
        <ele>250.08</ele>
        <time>2021-08-13T17:19:38Z</time>
      </trkpt>
      <trkpt lat="46.4062" lon="3.31066">
        <ele>250.56</ele>
        <time>2021-08-13T17:19:39Z</time>
      </trkpt>
      <trkpt lat="46.4062" lon="3.3107">
        <ele>250.56</ele>
        <time>2021-08-13T17:19:40Z</time>
      </trkpt>
      <trkpt lat="46.40621" lon="3.31073">
        <ele>250.56</ele>
        <time>2021-08-13T17:19:41Z</time>
      </trkpt>
      <trkpt lat="46.40622" lon="3.31105">
        <ele>251.52</ele>
        <time>2021-08-13T17:19:50Z</time>
      </trkpt>
      <trkpt lat="46.40621" lon="3.31108">
        <ele>251.52</ele>
        <time>2021-08-13T17:19:51Z</time>
      </trkpt>
      <trkpt lat="46.4062" lon="3.3111">
        <ele>251.52</ele>
        <time>2021-08-13T17:19:52Z</time>
      </trkpt>
      <trkpt lat="46.40619" lon="3.31112">
        <ele>251.52</ele>
        <time>2021-08-13T17:19:53Z</time>
      </trkpt>
      <trkpt lat="46.40617" lon="3.31112">
        <ele>252</ele>
        <time>2021-08-13T17:19:54Z</time>
      </trkpt>
      <trkpt lat="46.40615" lon="3.31113">
        <ele>252</ele>
        <time>2021-08-13T17:19:55Z</time>
      </trkpt>
      <trkpt lat="46.40614" lon="3.31113">
        <ele>252</ele>
        <time>2021-08-13T17:20:00Z</time>
      </trkpt>
      <trkpt lat="46.40617" lon="3.31114">
        <ele>252</ele>
        <time>2021-08-13T17:20:07Z</time>
      </trkpt>
      <trkpt lat="46.40617" lon="3.31116">
        <ele>252</ele>
        <time>2021-08-13T17:20:09Z</time>
      </trkpt>
      <trkpt lat="46.40622" lon="3.3112">
        <ele>252</ele>
        <time>2021-08-13T17:20:13Z</time>
      </trkpt>
      <trkpt lat="46.40623" lon="3.31121">
        <ele>252</ele>
        <time>2021-08-13T17:20:14Z</time>
      </trkpt>
      <trkpt lat="46.40624" lon="3.31122">
        <ele>252</ele>
        <time>2021-08-13T17:20:15Z</time>
      </trkpt>
      <trkpt lat="46.40625" lon="3.31125">
        <ele>252</ele>
        <time>2021-08-13T17:20:16Z</time>
      </trkpt>
      <trkpt lat="46.40625" lon="3.31128">
        <ele>252.48</ele>
        <time>2021-08-13T17:20:17Z</time>
      </trkpt>
      <trkpt lat="46.40625" lon="3.3113">
        <ele>252.48</ele>
        <time>2021-08-13T17:20:18Z</time>
      </trkpt>
      <trkpt lat="46.40625" lon="3.31132">
        <ele>252.48</ele>
        <time>2021-08-13T17:20:19Z</time>
      </trkpt>
      <trkpt lat="46.40625" lon="3.31134">
        <ele>252.48</ele>
        <time>2021-08-13T17:20:20Z</time>
      </trkpt>
      <trkpt lat="46.40626" lon="3.31136">
        <ele>252.48</ele>
        <time>2021-08-13T17:20:21Z</time>
      </trkpt>
      <trkpt lat="46.40626" lon="3.31139">
        <ele>252.48</ele>
        <time>2021-08-13T17:20:22Z</time>
      </trkpt>
      <trkpt lat="46.40624" lon="3.31162">
        <ele>253.44</ele>
        <time>2021-08-13T17:20:30Z</time>
      </trkpt>
      <trkpt lat="46.40623" lon="3.31167">
        <ele>253.44</ele>
        <time>2021-08-13T17:20:32Z</time>
      </trkpt>
      <trkpt lat="46.40621" lon="3.3117">
        <ele>253.44</ele>
        <time>2021-08-13T17:20:33Z</time>
      </trkpt>
      <trkpt lat="46.40611" lon="3.31172">
        <ele>254.41</ele>
        <time>2021-08-13T17:20:37Z</time>
      </trkpt>
      <trkpt lat="46.40607" lon="3.31173">
        <ele>255.37</ele>
        <time>2021-08-13T17:20:39Z</time>
      </trkpt>
      <trkpt lat="46.40605" lon="3.31182">
        <ele>255.85</ele>
        <time>2021-08-13T17:20:43Z</time>
      </trkpt>
      <trkpt lat="46.406" lon="3.31189">
        <ele>255.85</ele>
        <time>2021-08-13T17:20:48Z</time>
      </trkpt>
      <trkpt lat="46.40597" lon="3.31182">
        <ele>255.85</ele>
        <time>2021-08-13T17:20:54Z</time>
      </trkpt>
      <trkpt lat="46.40603" lon="3.3118">
        <ele>255.85</ele>
        <time>2021-08-13T17:20:58Z</time>
      </trkpt>
      <trkpt lat="46.40615" lon="3.31176">
        <ele>253.93</ele>
        <time>2021-08-13T17:21:04Z</time>
      </trkpt>
      <trkpt lat="46.40618" lon="3.31178">
        <ele>253.93</ele>
        <time>2021-08-13T17:21:05Z</time>
      </trkpt>
      <trkpt lat="46.4062" lon="3.31182">
        <ele>253.93</ele>
        <time>2021-08-13T17:21:06Z</time>
      </trkpt>
      <trkpt lat="46.40621" lon="3.31185">
        <ele>253.93</ele>
        <time>2021-08-13T17:21:07Z</time>
      </trkpt>
      <trkpt lat="46.40621" lon="3.31189">
        <ele>253.93</ele>
        <time>2021-08-13T17:21:08Z</time>
      </trkpt>
      <trkpt lat="46.40621" lon="3.31193">
        <ele>253.93</ele>
        <time>2021-08-13T17:21:09Z</time>
      </trkpt>
      <trkpt lat="46.4062" lon="3.31206">
        <ele>253.93</ele>
        <time>2021-08-13T17:21:12Z</time>
      </trkpt>
      <trkpt lat="46.40618" lon="3.31208">
        <ele>253.93</ele>
        <time>2021-08-13T17:21:13Z</time>
      </trkpt>
      <trkpt lat="46.40615" lon="3.31208">
        <ele>255.37</ele>
        <time>2021-08-13T17:21:14Z</time>
      </trkpt>
      <trkpt lat="46.40612" lon="3.31208">
        <ele>255.37</ele>
        <time>2021-08-13T17:21:15Z</time>
      </trkpt>
      <trkpt lat="46.40609" lon="3.31206">
        <ele>255.37</ele>
        <time>2021-08-13T17:21:16Z</time>
      </trkpt>
      <trkpt lat="46.40606" lon="3.31204">
        <ele>255.37</ele>
        <time>2021-08-13T17:21:17Z</time>
      </trkpt>
      <trkpt lat="46.40603" lon="3.31202">
        <ele>255.85</ele>
        <time>2021-08-13T17:21:18Z</time>
      </trkpt>
      <trkpt lat="46.40596" lon="3.31197">
        <ele>256.33</ele>
        <time>2021-08-13T17:21:23Z</time>
      </trkpt>
      <trkpt lat="46.40596" lon="3.31198">
        <ele>256.33</ele>
        <time>2021-08-13T17:21:31Z</time>
      </trkpt>
      <trkpt lat="46.40594" lon="3.31202">
        <ele>256.33</ele>
        <time>2021-08-13T17:21:52Z</time>
      </trkpt>
      <trkpt lat="46.40591" lon="3.31207">
        <ele>256.33</ele>
        <time>2021-08-13T17:22:17Z</time>
      </trkpt>
      <trkpt lat="46.40589" lon="3.31207">
        <ele>256.33</ele>
        <time>2021-08-13T17:22:20Z</time>
      </trkpt>
      <trkpt lat="46.40587" lon="3.31212">
        <ele>256.81</ele>
        <time>2021-08-13T17:22:28Z</time>
      </trkpt>
      <trkpt lat="46.40589" lon="3.31211">
        <ele>256.81</ele>
        <time>2021-08-13T17:22:51Z</time>
      </trkpt>
      <trkpt lat="46.40588" lon="3.31211">
        <ele>256.81</ele>
        <time>2021-08-13T17:23:08Z</time>
      </trkpt>
      <trkpt lat="46.4059" lon="3.3121">
        <ele>256.81</ele>
        <time>2021-08-13T17:23:27Z</time>
      </trkpt>
      <trkpt lat="46.40591" lon="3.31209">
        <ele>256.81</ele>
        <time>2021-08-13T17:23:51Z</time>
      </trkpt>
      <trkpt lat="46.40591" lon="3.31208">
        <ele>256.81</ele>
        <time>2021-08-13T17:24:16Z</time>
      </trkpt>
      <trkpt lat="46.40588" lon="3.31207">
        <ele>256.81</ele>
        <time>2021-08-13T17:24:35Z</time>
      </trkpt>
      <trkpt lat="46.40588" lon="3.3121">
        <ele>256.81</ele>
        <time>2021-08-13T17:24:52Z</time>
      </trkpt>
      <trkpt lat="46.4059" lon="3.31213">
        <ele>256.81</ele>
        <time>2021-08-13T17:25:14Z</time>
      </trkpt>
      <trkpt lat="46.40588" lon="3.31214">
        <ele>256.81</ele>
        <time>2021-08-13T17:25:27Z</time>
      </trkpt>
      <trkpt lat="46.40586" lon="3.31215">
        <ele>257.29</ele>
        <time>2021-08-13T17:25:40Z</time>
      </trkpt>
      <trkpt lat="46.40586" lon="3.31215">
        <ele>257.29</ele>
        <time>2021-08-13T17:25:47Z</time>
      </trkpt>
      <trkpt lat="46.40586" lon="3.3121">
        <ele>257.29</ele>
        <time>2021-08-13T17:26:12Z</time>
      </trkpt>
      <trkpt lat="46.40586" lon="3.31209">
        <ele>257.29</ele>
        <time>2021-08-13T17:26:32Z</time>
      </trkpt>
      <trkpt lat="46.40585" lon="3.3121">
        <ele>257.29</ele>
        <time>2021-08-13T17:26:52Z</time>
      </trkpt>
      <trkpt lat="46.40585" lon="3.3121">
        <ele>255.85</ele>
        <time>2021-08-13T17:26:54Z</time>
      </trkpt>
      <trkpt lat="46.40585" lon="3.3121">
        <ele>259.21</ele>
        <time>2021-08-13T17:26:56Z</time>
      </trkpt>
      <trkpt lat="46.40584" lon="3.3121">
        <ele>257.29</ele>
        <time>2021-08-13T17:27:11Z</time>
      </trkpt>
      <trkpt lat="46.40583" lon="3.31209">
        <ele>257.29</ele>
        <time>2021-08-13T17:27:40Z</time>
      </trkpt>
      <trkpt lat="46.40585" lon="3.31212">
        <ele>257.29</ele>
        <time>2021-08-13T17:27:54Z</time>
      </trkpt>
      <trkpt lat="46.40586" lon="3.31216">
        <ele>257.29</ele>
        <time>2021-08-13T17:28:12Z</time>
      </trkpt>
      <trkpt lat="46.40587" lon="3.31213">
        <ele>257.77</ele>
        <time>2021-08-13T17:28:28Z</time>
      </trkpt>
      <trkpt lat="46.40587" lon="3.31214">
        <ele>257.77</ele>
        <time>2021-08-13T17:28:42Z</time>
      </trkpt>
      <trkpt lat="46.40586" lon="3.31214">
        <ele>257.77</ele>
        <time>2021-08-13T17:28:59Z</time>
      </trkpt>
      <trkpt lat="46.40586" lon="3.31211">
        <ele>257.77</ele>
        <time>2021-08-13T17:29:20Z</time>
      </trkpt>
      <trkpt lat="46.40584" lon="3.31208">
        <ele>257.77</ele>
        <time>2021-08-13T17:29:38Z</time>
      </trkpt>
      <trkpt lat="46.40583" lon="3.3121">
        <ele>257.77</ele>
        <time>2021-08-13T17:30:00Z</time>
      </trkpt>
      <trkpt lat="46.40586" lon="3.31214">
        <ele>257.77</ele>
        <time>2021-08-13T17:30:13Z</time>
      </trkpt>
      <trkpt lat="46.40589" lon="3.31214">
        <ele>257.77</ele>
        <time>2021-08-13T17:30:25Z</time>
      </trkpt>
      <trkpt lat="46.40589" lon="3.31212">
        <ele>258.25</ele>
        <time>2021-08-13T17:30:38Z</time>
      </trkpt>
      <trkpt lat="46.40588" lon="3.31214">
        <ele>258.25</ele>
        <time>2021-08-13T17:31:00Z</time>
      </trkpt>
      <trkpt lat="46.40588" lon="3.31213">
        <ele>258.25</ele>
        <time>2021-08-13T17:31:09Z</time>
      </trkpt>
      <trkpt lat="46.40586" lon="3.31215">
        <ele>258.25</ele>
        <time>2021-08-13T17:31:25Z</time>
      </trkpt>
      <trkpt lat="46.40585" lon="3.3122">
        <ele>258.25</ele>
        <time>2021-08-13T17:31:32Z</time>
      </trkpt>
      <trkpt lat="46.40585" lon="3.31224">
        <ele>258.25</ele>
        <time>2021-08-13T17:31:41Z</time>
      </trkpt>
      <trkpt lat="46.40585" lon="3.31223">
        <ele>258.25</ele>
        <time>2021-08-13T17:31:58Z</time>
      </trkpt>
      <trkpt lat="46.40586" lon="3.31223">
        <ele>258.25</ele>
        <time>2021-08-13T17:32:00Z</time>
      </trkpt>
      <trkpt lat="46.40602" lon="3.31225">
        <ele>258.25</ele>
        <time>2021-08-13T17:32:07Z</time>
      </trkpt>
      <trkpt lat="46.40609" lon="3.31231">
        <ele>258.25</ele>
        <time>2021-08-13T17:32:11Z</time>
      </trkpt>
      <trkpt lat="46.40609" lon="3.31234">
        <ele>258.25</ele>
        <time>2021-08-13T17:32:12Z</time>
      </trkpt>
      <trkpt lat="46.40611" lon="3.31236">
        <ele>257.77</ele>
        <time>2021-08-13T17:32:13Z</time>
      </trkpt>
      <trkpt lat="46.40613" lon="3.31238">
        <ele>257.77</ele>
        <time>2021-08-13T17:32:14Z</time>
      </trkpt>
      <trkpt lat="46.40615" lon="3.31239">
        <ele>257.77</ele>
        <time>2021-08-13T17:32:15Z</time>
      </trkpt>
      <trkpt lat="46.40618" lon="3.31241">
        <ele>257.77</ele>
        <time>2021-08-13T17:32:16Z</time>
      </trkpt>
      <trkpt lat="46.4062" lon="3.31242">
        <ele>257.29</ele>
        <time>2021-08-13T17:32:17Z</time>
      </trkpt>
      <trkpt lat="46.40622" lon="3.31245">
        <ele>257.29</ele>
        <time>2021-08-13T17:32:18Z</time>
      </trkpt>
      <trkpt lat="46.40622" lon="3.31249">
        <ele>257.29</ele>
        <time>2021-08-13T17:32:19Z</time>
      </trkpt>
      <trkpt lat="46.40622" lon="3.31252">
        <ele>257.29</ele>
        <time>2021-08-13T17:32:20Z</time>
      </trkpt>
      <trkpt lat="46.40622" lon="3.31257">
        <ele>257.29</ele>
        <time>2021-08-13T17:32:21Z</time>
      </trkpt>
      <trkpt lat="46.40622" lon="3.31261">
        <ele>256.81</ele>
        <time>2021-08-13T17:32:22Z</time>
      </trkpt>
      <trkpt lat="46.40613" lon="3.31289">
        <ele>255.85</ele>
        <time>2021-08-13T17:32:28Z</time>
      </trkpt>
      <trkpt lat="46.40606" lon="3.313">
        <ele>255.37</ele>
        <time>2021-08-13T17:32:30Z</time>
      </trkpt>
      <trkpt lat="46.40602" lon="3.31305">
        <ele>254.89</ele>
        <time>2021-08-13T17:32:31Z</time>
      </trkpt>
      <trkpt lat="46.40597" lon="3.31308">
        <ele>254.41</ele>
        <time>2021-08-13T17:32:32Z</time>
      </trkpt>
      <trkpt lat="46.40592" lon="3.31311">
        <ele>254.41</ele>
        <time>2021-08-13T17:32:33Z</time>
      </trkpt>
      <trkpt lat="46.40586" lon="3.31313">
        <ele>254.41</ele>
        <time>2021-08-13T17:32:34Z</time>
      </trkpt>
      <trkpt lat="46.40579" lon="3.31314">
        <ele>253.44</ele>
        <time>2021-08-13T17:32:35Z</time>
      </trkpt>
      <trkpt lat="46.40529" lon="3.31321">
        <ele>251.04</ele>
        <time>2021-08-13T17:32:42Z</time>
      </trkpt>
      <trkpt lat="46.40512" lon="3.31323">
        <ele>250.08</ele>
        <time>2021-08-13T17:32:44Z</time>
      </trkpt>
      <trkpt lat="46.40461" lon="3.31328">
        <ele>247.68</ele>
        <time>2021-08-13T17:32:50Z</time>
      </trkpt>
      <trkpt lat="46.40404" lon="3.31333">
        <ele>244.31</ele>
        <time>2021-08-13T17:32:56Z</time>
      </trkpt>
      <trkpt lat="46.40344" lon="3.31345">
        <ele>240.95</ele>
        <time>2021-08-13T17:33:02Z</time>
      </trkpt>
      <trkpt lat="46.40296" lon="3.31373">
        <ele>238.54</ele>
        <time>2021-08-13T17:33:07Z</time>
      </trkpt>
      <trkpt lat="46.40287" lon="3.31382">
        <ele>238.06</ele>
        <time>2021-08-13T17:33:08Z</time>
      </trkpt>
      <trkpt lat="46.4028" lon="3.31391">
        <ele>238.06</ele>
        <time>2021-08-13T17:33:09Z</time>
      </trkpt>
      <trkpt lat="46.40275" lon="3.31398">
        <ele>238.06</ele>
        <time>2021-08-13T17:33:10Z</time>
      </trkpt>
      <trkpt lat="46.40272" lon="3.31404">
        <ele>238.06</ele>
        <time>2021-08-13T17:33:11Z</time>
      </trkpt>
      <trkpt lat="46.40267" lon="3.31411">
        <ele>238.06</ele>
        <time>2021-08-13T17:33:13Z</time>
      </trkpt>
      <trkpt lat="46.40266" lon="3.31415">
        <ele>238.06</ele>
        <time>2021-08-13T17:33:17Z</time>
      </trkpt>
      <trkpt lat="46.40266" lon="3.31414">
        <ele>238.06</ele>
        <time>2021-08-13T17:33:33Z</time>
      </trkpt>
      <trkpt lat="46.40264" lon="3.31414">
        <ele>238.06</ele>
        <time>2021-08-13T17:33:45Z</time>
      </trkpt>
      <trkpt lat="46.40263" lon="3.31417">
        <ele>238.06</ele>
        <time>2021-08-13T17:34:02Z</time>
      </trkpt>
      <trkpt lat="46.40262" lon="3.3142">
        <ele>238.06</ele>
        <time>2021-08-13T17:34:03Z</time>
      </trkpt>
      <trkpt lat="46.40257" lon="3.31442">
        <ele>237.58</ele>
        <time>2021-08-13T17:34:09Z</time>
      </trkpt>
      <trkpt lat="46.40254" lon="3.31458">
        <ele>236.62</ele>
        <time>2021-08-13T17:34:12Z</time>
      </trkpt>
      <trkpt lat="46.40251" lon="3.31469">
        <ele>236.14</ele>
        <time>2021-08-13T17:34:14Z</time>
      </trkpt>
      <trkpt lat="46.40249" lon="3.31474">
        <ele>236.14</ele>
        <time>2021-08-13T17:34:15Z</time>
      </trkpt>
      <trkpt lat="46.40246" lon="3.31477">
        <ele>236.14</ele>
        <time>2021-08-13T17:34:16Z</time>
      </trkpt>
      <trkpt lat="46.40242" lon="3.31479">
        <ele>236.14</ele>
        <time>2021-08-13T17:34:17Z</time>
      </trkpt>
      <trkpt lat="46.40238" lon="3.31479">
        <ele>235.66</ele>
        <time>2021-08-13T17:34:18Z</time>
      </trkpt>
      <trkpt lat="46.40234" lon="3.31478">
        <ele>235.66</ele>
        <time>2021-08-13T17:34:19Z</time>
      </trkpt>
      <trkpt lat="46.40228" lon="3.31476">
        <ele>234.22</ele>
        <time>2021-08-13T17:34:20Z</time>
      </trkpt>
      <trkpt lat="46.40223" lon="3.31475">
        <ele>233.74</ele>
        <time>2021-08-13T17:34:21Z</time>
      </trkpt>
      <trkpt lat="46.40192" lon="3.31467">
        <ele>230.85</ele>
        <time>2021-08-13T17:34:25Z</time>
      </trkpt>
      <trkpt lat="46.40144" lon="3.31456">
        <ele>230.37</ele>
        <time>2021-08-13T17:34:32Z</time>
      </trkpt>
      <trkpt lat="46.40133" lon="3.31453">
        <ele>231.81</ele>
        <time>2021-08-13T17:34:34Z</time>
      </trkpt>
      <trkpt lat="46.40111" lon="3.31444">
        <ele>232.3</ele>
        <time>2021-08-13T17:34:39Z</time>
      </trkpt>
      <trkpt lat="46.40107" lon="3.31443">
        <ele>232.3</ele>
        <time>2021-08-13T17:34:40Z</time>
      </trkpt>
      <trkpt lat="46.40075" lon="3.31428">
        <ele>233.74</ele>
        <time>2021-08-13T17:34:49Z</time>
      </trkpt>
      <trkpt lat="46.4005" lon="3.31413">
        <ele>233.74</ele>
        <time>2021-08-13T17:34:56Z</time>
      </trkpt>
      <trkpt lat="46.40043" lon="3.31408">
        <ele>234.22</ele>
        <time>2021-08-13T17:35:01Z</time>
      </trkpt>
      <trkpt lat="46.40043" lon="3.31407">
        <ele>234.22</ele>
        <time>2021-08-13T17:35:19Z</time>
      </trkpt>
      <trkpt lat="46.40045" lon="3.31407">
        <ele>234.22</ele>
        <time>2021-08-13T17:35:34Z</time>
      </trkpt>
      <trkpt lat="46.40044" lon="3.31407">
        <ele>234.22</ele>
        <time>2021-08-13T17:35:39Z</time>
      </trkpt>
      <trkpt lat="46.40043" lon="3.31408">
        <ele>234.22</ele>
        <time>2021-08-13T17:35:52Z</time>
      </trkpt>
      <trkpt lat="46.4004" lon="3.31409">
        <ele>234.22</ele>
        <time>2021-08-13T17:36:03Z</time>
      </trkpt>
      <trkpt lat="46.40036" lon="3.31408">
        <ele>234.22</ele>
        <time>2021-08-13T17:36:06Z</time>
      </trkpt>
      <trkpt lat="46.40034" lon="3.31407">
        <ele>234.22</ele>
        <time>2021-08-13T17:36:07Z</time>
      </trkpt>
      <trkpt lat="46.40013" lon="3.31394">
        <ele>234.22</ele>
        <time>2021-08-13T17:36:14Z</time>
      </trkpt>
      <trkpt lat="46.39991" lon="3.3138">
        <ele>234.22</ele>
        <time>2021-08-13T17:36:21Z</time>
      </trkpt>
      <trkpt lat="46.39983" lon="3.31375">
        <ele>234.22</ele>
        <time>2021-08-13T17:36:23Z</time>
      </trkpt>
      <trkpt lat="46.39962" lon="3.31362">
        <ele>234.22</ele>
        <time>2021-08-13T17:36:28Z</time>
      </trkpt>
      <trkpt lat="46.39935" lon="3.31345">
        <ele>234.22</ele>
        <time>2021-08-13T17:36:35Z</time>
      </trkpt>
      <trkpt lat="46.39897" lon="3.31326">
        <ele>232.78</ele>
        <time>2021-08-13T17:36:44Z</time>
      </trkpt>
      <trkpt lat="46.39893" lon="3.31324">
        <ele>232.78</ele>
        <time>2021-08-13T17:36:45Z</time>
      </trkpt>
      <trkpt lat="46.39889" lon="3.31321">
        <ele>232.78</ele>
        <time>2021-08-13T17:36:46Z</time>
      </trkpt>
      <trkpt lat="46.39864" lon="3.31305">
        <ele>232.78</ele>
        <time>2021-08-13T17:36:52Z</time>
      </trkpt>
      <trkpt lat="46.3986" lon="3.31302">
        <ele>232.78</ele>
        <time>2021-08-13T17:36:53Z</time>
      </trkpt>
      <trkpt lat="46.39835" lon="3.31285">
        <ele>232.78</ele>
        <time>2021-08-13T17:37:00Z</time>
      </trkpt>
      <trkpt lat="46.39805" lon="3.31266">
        <ele>232.78</ele>
        <time>2021-08-13T17:37:09Z</time>
      </trkpt>
      <trkpt lat="46.39774" lon="3.31245">
        <ele>232.78</ele>
        <time>2021-08-13T17:37:19Z</time>
      </trkpt>
      <trkpt lat="46.39743" lon="3.31223">
        <ele>232.78</ele>
        <time>2021-08-13T17:37:29Z</time>
      </trkpt>
      <trkpt lat="46.39739" lon="3.31221">
        <ele>232.78</ele>
        <time>2021-08-13T17:37:31Z</time>
      </trkpt>
      <trkpt lat="46.39738" lon="3.31223">
        <ele>232.78</ele>
        <time>2021-08-13T17:37:32Z</time>
      </trkpt>
      <trkpt lat="46.39738" lon="3.31223">
        <ele>232.78</ele>
        <time>2021-08-13T17:37:37Z</time>
      </trkpt>
      <trkpt lat="46.39736" lon="3.31226">
        <ele>232.78</ele>
        <time>2021-08-13T17:37:45Z</time>
      </trkpt>
      <trkpt lat="46.39734" lon="3.31232">
        <ele>230.85</ele>
        <time>2021-08-13T17:37:53Z</time>
      </trkpt>
      <trkpt lat="46.39729" lon="3.31238">
        <ele>230.37</ele>
        <time>2021-08-13T17:38:01Z</time>
      </trkpt>
      <trkpt lat="46.39728" lon="3.31235">
        <ele>230.37</ele>
        <time>2021-08-13T17:38:09Z</time>
      </trkpt>
      <trkpt lat="46.39728" lon="3.31234">
        <ele>230.37</ele>
        <time>2021-08-13T17:38:15Z</time>
      </trkpt>
      <trkpt lat="46.39726" lon="3.31234">
        <ele>230.37</ele>
        <time>2021-08-13T17:38:17Z</time>
      </trkpt>
      <trkpt lat="46.39725" lon="3.31232">
        <ele>230.37</ele>
        <time>2021-08-13T17:38:18Z</time>
      </trkpt>
      <trkpt lat="46.39724" lon="3.31231">
        <ele>230.37</ele>
        <time>2021-08-13T17:38:19Z</time>
      </trkpt>
      <trkpt lat="46.39723" lon="3.3123">
        <ele>230.37</ele>
        <time>2021-08-13T17:38:20Z</time>
      </trkpt>
      <trkpt lat="46.39721" lon="3.31228">
        <ele>230.37</ele>
        <time>2021-08-13T17:38:21Z</time>
      </trkpt>
      <trkpt lat="46.39709" lon="3.31221">
        <ele>230.37</ele>
        <time>2021-08-13T17:38:27Z</time>
      </trkpt>
      <trkpt lat="46.39693" lon="3.31211">
        <ele>230.37</ele>
        <time>2021-08-13T17:38:34Z</time>
      </trkpt>
      <trkpt lat="46.39671" lon="3.31202">
        <ele>230.37</ele>
        <time>2021-08-13T17:38:41Z</time>
      </trkpt>
      <trkpt lat="46.39649" lon="3.31191">
        <ele>230.37</ele>
        <time>2021-08-13T17:38:49Z</time>
      </trkpt>
      <trkpt lat="46.39627" lon="3.31182">
        <ele>230.37</ele>
        <time>2021-08-13T17:38:56Z</time>
      </trkpt>
      <trkpt lat="46.39604" lon="3.31172">
        <ele>229.89</ele>
        <time>2021-08-13T17:39:04Z</time>
      </trkpt>
      <trkpt lat="46.3958" lon="3.31163">
        <ele>229.89</ele>
        <time>2021-08-13T17:39:11Z</time>
      </trkpt>
      <trkpt lat="46.39555" lon="3.31153">
        <ele>229.89</ele>
        <time>2021-08-13T17:39:18Z</time>
      </trkpt>
      <trkpt lat="46.3953" lon="3.31145">
        <ele>229.89</ele>
        <time>2021-08-13T17:39:25Z</time>
      </trkpt>
      <trkpt lat="46.39505" lon="3.31133">
        <ele>229.89</ele>
        <time>2021-08-13T17:39:32Z</time>
      </trkpt>
      <trkpt lat="46.39495" lon="3.31126">
        <ele>231.33</ele>
        <time>2021-08-13T17:39:36Z</time>
      </trkpt>
      <trkpt lat="46.39477" lon="3.3112">
        <ele>231.33</ele>
        <time>2021-08-13T17:39:42Z</time>
      </trkpt>
      <trkpt lat="46.39447" lon="3.31111">
        <ele>231.33</ele>
        <time>2021-08-13T17:39:50Z</time>
      </trkpt>
      <trkpt lat="46.39425" lon="3.31102">
        <ele>231.33</ele>
        <time>2021-08-13T17:39:58Z</time>
      </trkpt>
      <trkpt lat="46.39423" lon="3.31102">
        <ele>231.33</ele>
        <time>2021-08-13T17:40:05Z</time>
      </trkpt>
      <trkpt lat="46.39422" lon="3.31102">
        <ele>231.33</ele>
        <time>2021-08-13T17:40:17Z</time>
      </trkpt>
      <trkpt lat="46.39424" lon="3.31102">
        <ele>231.33</ele>
        <time>2021-08-13T17:40:26Z</time>
      </trkpt>
      <trkpt lat="46.39423" lon="3.31102">
        <ele>231.33</ele>
        <time>2021-08-13T17:40:32Z</time>
      </trkpt>
      <trkpt lat="46.39422" lon="3.31102">
        <ele>229.89</ele>
        <time>2021-08-13T17:40:39Z</time>
      </trkpt>
      <trkpt lat="46.39418" lon="3.31098">
        <ele>229.89</ele>
        <time>2021-08-13T17:40:45Z</time>
      </trkpt>
      <trkpt lat="46.39415" lon="3.31096">
        <ele>229.89</ele>
        <time>2021-08-13T17:40:51Z</time>
      </trkpt>
      <trkpt lat="46.39414" lon="3.31095">
        <ele>229.89</ele>
        <time>2021-08-13T17:40:53Z</time>
      </trkpt>
      <trkpt lat="46.39412" lon="3.31094">
        <ele>229.89</ele>
        <time>2021-08-13T17:40:54Z</time>
      </trkpt>
      <trkpt lat="46.3941" lon="3.31093">
        <ele>229.89</ele>
        <time>2021-08-13T17:40:55Z</time>
      </trkpt>
      <trkpt lat="46.39408" lon="3.31092">
        <ele>229.89</ele>
        <time>2021-08-13T17:40:56Z</time>
      </trkpt>
      <trkpt lat="46.39406" lon="3.31091">
        <ele>229.89</ele>
        <time>2021-08-13T17:40:57Z</time>
      </trkpt>
      <trkpt lat="46.39403" lon="3.3109">
        <ele>229.89</ele>
        <time>2021-08-13T17:40:58Z</time>
      </trkpt>
      <trkpt lat="46.394" lon="3.31089">
        <ele>229.89</ele>
        <time>2021-08-13T17:40:59Z</time>
      </trkpt>
      <trkpt lat="46.39385" lon="3.31082">
        <ele>229.89</ele>
        <time>2021-08-13T17:41:05Z</time>
      </trkpt>
      <trkpt lat="46.39371" lon="3.31077">
        <ele>229.89</ele>
        <time>2021-08-13T17:41:10Z</time>
      </trkpt>
      <trkpt lat="46.39352" lon="3.31068">
        <ele>229.89</ele>
        <time>2021-08-13T17:41:16Z</time>
      </trkpt>
      <trkpt lat="46.3933" lon="3.3106">
        <ele>229.89</ele>
        <time>2021-08-13T17:41:23Z</time>
      </trkpt>
      <trkpt lat="46.39306" lon="3.31049">
        <ele>229.89</ele>
        <time>2021-08-13T17:41:30Z</time>
      </trkpt>
      <trkpt lat="46.39296" lon="3.31044">
        <ele>230.85</ele>
        <time>2021-08-13T17:41:33Z</time>
      </trkpt>
      <trkpt lat="46.39276" lon="3.31038">
        <ele>231.33</ele>
        <time>2021-08-13T17:41:39Z</time>
      </trkpt>
      <trkpt lat="46.39249" lon="3.31032">
        <ele>230.37</ele>
        <time>2021-08-13T17:41:46Z</time>
      </trkpt>
      <trkpt lat="46.39218" lon="3.31022">
        <ele>229.41</ele>
        <time>2021-08-13T17:41:53Z</time>
      </trkpt>
      <trkpt lat="46.39192" lon="3.31012">
        <ele>229.41</ele>
        <time>2021-08-13T17:42:01Z</time>
      </trkpt>
      <trkpt lat="46.39165" lon="3.30998">
        <ele>229.41</ele>
        <time>2021-08-13T17:42:09Z</time>
      </trkpt>
      <trkpt lat="46.39144" lon="3.30985">
        <ele>229.41</ele>
        <time>2021-08-13T17:42:15Z</time>
      </trkpt>
      <trkpt lat="46.39122" lon="3.30967">
        <ele>230.37</ele>
        <time>2021-08-13T17:42:22Z</time>
      </trkpt>
      <trkpt lat="46.39097" lon="3.30955">
        <ele>230.37</ele>
        <time>2021-08-13T17:42:29Z</time>
      </trkpt>
      <trkpt lat="46.39074" lon="3.30938">
        <ele>230.85</ele>
        <time>2021-08-13T17:42:36Z</time>
      </trkpt>
      <trkpt lat="46.3906" lon="3.30925">
        <ele>231.33</ele>
        <time>2021-08-13T17:42:42Z</time>
      </trkpt>
      <trkpt lat="46.39043" lon="3.30914">
        <ele>232.3</ele>
        <time>2021-08-13T17:42:49Z</time>
      </trkpt>
      <trkpt lat="46.39024" lon="3.30901">
        <ele>232.3</ele>
        <time>2021-08-13T17:42:55Z</time>
      </trkpt>
      <trkpt lat="46.39014" lon="3.30889">
        <ele>233.26</ele>
        <time>2021-08-13T17:43:00Z</time>
      </trkpt>
      <trkpt lat="46.39006" lon="3.30883">
        <ele>230.85</ele>
        <time>2021-08-13T17:43:03Z</time>
      </trkpt>
      <trkpt lat="46.38995" lon="3.3088">
        <ele>229.89</ele>
        <time>2021-08-13T17:43:05Z</time>
      </trkpt>
      <trkpt lat="46.38989" lon="3.30877">
        <ele>229.89</ele>
        <time>2021-08-13T17:43:06Z</time>
      </trkpt>
      <trkpt lat="46.38979" lon="3.30872">
        <ele>229.89</ele>
        <time>2021-08-13T17:43:08Z</time>
      </trkpt>
      <trkpt lat="46.38975" lon="3.30873">
        <ele>229.89</ele>
        <time>2021-08-13T17:43:09Z</time>
      </trkpt>
      <trkpt lat="46.38967" lon="3.30882">
        <ele>228.45</ele>
        <time>2021-08-13T17:43:11Z</time>
      </trkpt>
      <trkpt lat="46.38961" lon="3.30885">
        <ele>227.97</ele>
        <time>2021-08-13T17:43:12Z</time>
      </trkpt>
      <trkpt lat="46.38955" lon="3.30886">
        <ele>227.97</ele>
        <time>2021-08-13T17:43:13Z</time>
      </trkpt>
      <trkpt lat="46.38944" lon="3.30887">
        <ele>227.97</ele>
        <time>2021-08-13T17:43:15Z</time>
      </trkpt>
      <trkpt lat="46.38931" lon="3.30889">
        <ele>229.41</ele>
        <time>2021-08-13T17:43:19Z</time>
      </trkpt>
      <trkpt lat="46.38929" lon="3.30889">
        <ele>229.41</ele>
        <time>2021-08-13T17:43:20Z</time>
      </trkpt>
      <trkpt lat="46.38914" lon="3.30879">
        <ele>229.41</ele>
        <time>2021-08-13T17:43:26Z</time>
      </trkpt>
      <trkpt lat="46.38896" lon="3.30865">
        <ele>229.41</ele>
        <time>2021-08-13T17:43:32Z</time>
      </trkpt>
      <trkpt lat="46.3888" lon="3.30856">
        <ele>229.89</ele>
        <time>2021-08-13T17:43:38Z</time>
      </trkpt>
      <trkpt lat="46.3887" lon="3.30851">
        <ele>229.89</ele>
        <time>2021-08-13T17:43:42Z</time>
      </trkpt>
      <trkpt lat="46.38864" lon="3.3084">
        <ele>229.89</ele>
        <time>2021-08-13T17:43:45Z</time>
      </trkpt>
      <trkpt lat="46.38861" lon="3.30838">
        <ele>229.89</ele>
        <time>2021-08-13T17:43:46Z</time>
      </trkpt>
      <trkpt lat="46.38857" lon="3.30837">
        <ele>229.89</ele>
        <time>2021-08-13T17:43:47Z</time>
      </trkpt>
      <trkpt lat="46.38838" lon="3.30835">
        <ele>229.89</ele>
        <time>2021-08-13T17:43:53Z</time>
      </trkpt>
      <trkpt lat="46.38812" lon="3.30831">
        <ele>229.89</ele>
        <time>2021-08-13T17:44:00Z</time>
      </trkpt>
      <trkpt lat="46.38782" lon="3.30828">
        <ele>229.89</ele>
        <time>2021-08-13T17:44:08Z</time>
      </trkpt>
      <trkpt lat="46.38778" lon="3.30827">
        <ele>229.89</ele>
        <time>2021-08-13T17:44:09Z</time>
      </trkpt>
      <trkpt lat="46.38774" lon="3.30824">
        <ele>229.89</ele>
        <time>2021-08-13T17:44:10Z</time>
      </trkpt>
      <trkpt lat="46.3877" lon="3.30822">
        <ele>229.89</ele>
        <time>2021-08-13T17:44:11Z</time>
      </trkpt>
      <trkpt lat="46.38767" lon="3.30819">
        <ele>229.89</ele>
        <time>2021-08-13T17:44:12Z</time>
      </trkpt>
      <trkpt lat="46.38762" lon="3.30818">
        <ele>229.89</ele>
        <time>2021-08-13T17:44:13Z</time>
      </trkpt>
      <trkpt lat="46.38759" lon="3.30818">
        <ele>229.89</ele>
        <time>2021-08-13T17:44:14Z</time>
      </trkpt>
      <trkpt lat="46.38755" lon="3.30819">
        <ele>229.89</ele>
        <time>2021-08-13T17:44:15Z</time>
      </trkpt>
      <trkpt lat="46.38747" lon="3.30817">
        <ele>229.89</ele>
        <time>2021-08-13T17:44:17Z</time>
      </trkpt>
      <trkpt lat="46.38743" lon="3.30814">
        <ele>229.89</ele>
        <time>2021-08-13T17:44:18Z</time>
      </trkpt>
      <trkpt lat="46.3874" lon="3.30811">
        <ele>229.89</ele>
        <time>2021-08-13T17:44:19Z</time>
      </trkpt>
      <trkpt lat="46.38737" lon="3.30809">
        <ele>229.89</ele>
        <time>2021-08-13T17:44:20Z</time>
      </trkpt>
      <trkpt lat="46.38735" lon="3.30807">
        <ele>229.89</ele>
        <time>2021-08-13T17:44:21Z</time>
      </trkpt>
      <trkpt lat="46.38731" lon="3.30804">
        <ele>229.89</ele>
        <time>2021-08-13T17:44:22Z</time>
      </trkpt>
      <trkpt lat="46.38721" lon="3.30794">
        <ele>229.89</ele>
        <time>2021-08-13T17:44:25Z</time>
      </trkpt>
      <trkpt lat="46.38717" lon="3.30793">
        <ele>229.89</ele>
        <time>2021-08-13T17:44:26Z</time>
      </trkpt>
      <trkpt lat="46.38713" lon="3.30792">
        <ele>229.89</ele>
        <time>2021-08-13T17:44:27Z</time>
      </trkpt>
      <trkpt lat="46.38709" lon="3.30792">
        <ele>229.89</ele>
        <time>2021-08-13T17:44:28Z</time>
      </trkpt>
      <trkpt lat="46.38706" lon="3.30793">
        <ele>229.89</ele>
        <time>2021-08-13T17:44:29Z</time>
      </trkpt>
      <trkpt lat="46.38702" lon="3.30795">
        <ele>229.89</ele>
        <time>2021-08-13T17:44:30Z</time>
      </trkpt>
      <trkpt lat="46.38699" lon="3.30796">
        <ele>229.89</ele>
        <time>2021-08-13T17:44:31Z</time>
      </trkpt>
      <trkpt lat="46.38695" lon="3.30796">
        <ele>229.89</ele>
        <time>2021-08-13T17:44:32Z</time>
      </trkpt>
      <trkpt lat="46.38691" lon="3.30796">
        <ele>229.89</ele>
        <time>2021-08-13T17:44:33Z</time>
      </trkpt>
      <trkpt lat="46.38688" lon="3.30796">
        <ele>229.89</ele>
        <time>2021-08-13T17:44:34Z</time>
      </trkpt>
      <trkpt lat="46.3866" lon="3.30801">
        <ele>229.89</ele>
        <time>2021-08-13T17:44:42Z</time>
      </trkpt>
      <trkpt lat="46.38635" lon="3.30811">
        <ele>229.89</ele>
        <time>2021-08-13T17:44:49Z</time>
      </trkpt>
      <trkpt lat="46.38608" lon="3.30825">
        <ele>230.37</ele>
        <time>2021-08-13T17:44:57Z</time>
      </trkpt>
      <trkpt lat="46.38591" lon="3.30835">
        <ele>230.37</ele>
        <time>2021-08-13T17:45:02Z</time>
      </trkpt>
      <trkpt lat="46.38588" lon="3.30834">
        <ele>230.37</ele>
        <time>2021-08-13T17:45:03Z</time>
      </trkpt>
      <trkpt lat="46.38585" lon="3.30831">
        <ele>230.37</ele>
        <time>2021-08-13T17:45:04Z</time>
      </trkpt>
      <trkpt lat="46.38568" lon="3.30816">
        <ele>230.37</ele>
        <time>2021-08-13T17:45:11Z</time>
      </trkpt>
      <trkpt lat="46.38549" lon="3.30805">
        <ele>230.37</ele>
        <time>2021-08-13T17:45:18Z</time>
      </trkpt>
      <trkpt lat="46.38525" lon="3.30793">
        <ele>230.37</ele>
        <time>2021-08-13T17:45:25Z</time>
      </trkpt>
      <trkpt lat="46.3851" lon="3.30774">
        <ele>229.89</ele>
        <time>2021-08-13T17:45:30Z</time>
      </trkpt>
      <trkpt lat="46.38491" lon="3.30752">
        <ele>229.89</ele>
        <time>2021-08-13T17:45:38Z</time>
      </trkpt>
      <trkpt lat="46.38472" lon="3.3075">
        <ele>229.89</ele>
        <time>2021-08-13T17:45:43Z</time>
      </trkpt>
      <trkpt lat="46.38447" lon="3.30744">
        <ele>229.89</ele>
        <time>2021-08-13T17:45:50Z</time>
      </trkpt>
      <trkpt lat="46.38427" lon="3.30736">
        <ele>229.89</ele>
        <time>2021-08-13T17:45:56Z</time>
      </trkpt>
      <trkpt lat="46.38394" lon="3.30726">
        <ele>229.89</ele>
        <time>2021-08-13T17:46:05Z</time>
      </trkpt>
      <trkpt lat="46.38381" lon="3.30723">
        <ele>229.89</ele>
        <time>2021-08-13T17:46:11Z</time>
      </trkpt>
      <trkpt lat="46.38378" lon="3.30724">
        <ele>229.89</ele>
        <time>2021-08-13T17:46:19Z</time>
      </trkpt>
      <trkpt lat="46.38372" lon="3.30722">
        <ele>229.89</ele>
        <time>2021-08-13T17:46:24Z</time>
      </trkpt>
      <trkpt lat="46.38356" lon="3.3072">
        <ele>229.89</ele>
        <time>2021-08-13T17:46:30Z</time>
      </trkpt>
      <trkpt lat="46.38334" lon="3.30716">
        <ele>229.89</ele>
        <time>2021-08-13T17:46:37Z</time>
      </trkpt>
      <trkpt lat="46.38319" lon="3.30717">
        <ele>229.89</ele>
        <time>2021-08-13T17:46:43Z</time>
      </trkpt>
      <trkpt lat="46.38296" lon="3.30719">
        <ele>229.89</ele>
        <time>2021-08-13T17:46:51Z</time>
      </trkpt>
      <trkpt lat="46.38282" lon="3.30718">
        <ele>229.89</ele>
        <time>2021-08-13T17:46:57Z</time>
      </trkpt>
      <trkpt lat="46.38254" lon="3.3072">
        <ele>229.89</ele>
        <time>2021-08-13T17:47:05Z</time>
      </trkpt>
      <trkpt lat="46.38226" lon="3.30722">
        <ele>229.89</ele>
        <time>2021-08-13T17:47:13Z</time>
      </trkpt>
      <trkpt lat="46.38222" lon="3.30723">
        <ele>229.89</ele>
        <time>2021-08-13T17:47:17Z</time>
      </trkpt>
      <trkpt lat="46.38215" lon="3.30722">
        <ele>229.89</ele>
        <time>2021-08-13T17:47:23Z</time>
      </trkpt>
      <trkpt lat="46.38212" lon="3.30721">
        <ele>230.37</ele>
        <time>2021-08-13T17:47:30Z</time>
      </trkpt>
      <trkpt lat="46.38202" lon="3.30719">
        <ele>230.37</ele>
        <time>2021-08-13T17:47:35Z</time>
      </trkpt>
      <trkpt lat="46.38182" lon="3.30714">
        <ele>230.37</ele>
        <time>2021-08-13T17:47:43Z</time>
      </trkpt>
      <trkpt lat="46.38164" lon="3.30711">
        <ele>230.37</ele>
        <time>2021-08-13T17:47:50Z</time>
      </trkpt>
      <trkpt lat="46.38152" lon="3.30708">
        <ele>231.33</ele>
        <time>2021-08-13T17:47:58Z</time>
      </trkpt>
      <trkpt lat="46.38146" lon="3.30706">
        <ele>232.78</ele>
        <time>2021-08-13T17:48:05Z</time>
      </trkpt>
      <trkpt lat="46.38139" lon="3.30702">
        <ele>234.22</ele>
        <time>2021-08-13T17:48:14Z</time>
      </trkpt>
      <trkpt lat="46.38131" lon="3.30698">
        <ele>235.66</ele>
        <time>2021-08-13T17:48:24Z</time>
      </trkpt>
      <trkpt lat="46.38123" lon="3.30695">
        <ele>236.14</ele>
        <time>2021-08-13T17:48:33Z</time>
      </trkpt>
      <trkpt lat="46.38113" lon="3.30694">
        <ele>237.58</ele>
        <time>2021-08-13T17:48:43Z</time>
      </trkpt>
      <trkpt lat="46.38109" lon="3.30693">
        <ele>238.06</ele>
        <time>2021-08-13T17:48:50Z</time>
      </trkpt>
      <trkpt lat="46.38099" lon="3.30693">
        <ele>239.02</ele>
        <time>2021-08-13T17:48:57Z</time>
      </trkpt>
      <trkpt lat="46.38084" lon="3.30692">
        <ele>239.99</ele>
        <time>2021-08-13T17:49:05Z</time>
      </trkpt>
      <trkpt lat="46.38071" lon="3.30691">
        <ele>240.47</ele>
        <time>2021-08-13T17:49:12Z</time>
      </trkpt>
      <trkpt lat="46.38048" lon="3.30693">
        <ele>240.47</ele>
        <time>2021-08-13T17:49:21Z</time>
      </trkpt>
      <trkpt lat="46.38023" lon="3.30695">
        <ele>240.47</ele>
        <time>2021-08-13T17:49:28Z</time>
      </trkpt>
      <trkpt lat="46.37982" lon="3.30701">
        <ele>238.06</ele>
        <time>2021-08-13T17:49:36Z</time>
      </trkpt>
      <trkpt lat="46.37954" lon="3.30703">
        <ele>238.06</ele>
        <time>2021-08-13T17:49:43Z</time>
      </trkpt>
      <trkpt lat="46.37925" lon="3.3071">
        <ele>238.06</ele>
        <time>2021-08-13T17:49:51Z</time>
      </trkpt>
      <trkpt lat="46.37897" lon="3.30714">
        <ele>237.58</ele>
        <time>2021-08-13T17:49:58Z</time>
      </trkpt>
      <trkpt lat="46.37861" lon="3.30714">
        <ele>237.58</ele>
        <time>2021-08-13T17:50:06Z</time>
      </trkpt>
      <trkpt lat="46.37828" lon="3.30711">
        <ele>237.58</ele>
        <time>2021-08-13T17:50:14Z</time>
      </trkpt>
      <trkpt lat="46.37799" lon="3.30706">
        <ele>237.58</ele>
        <time>2021-08-13T17:50:22Z</time>
      </trkpt>
      <trkpt lat="46.37776" lon="3.30701">
        <ele>237.58</ele>
        <time>2021-08-13T17:50:29Z</time>
      </trkpt>
      <trkpt lat="46.37754" lon="3.30698">
        <ele>239.02</ele>
        <time>2021-08-13T17:50:35Z</time>
      </trkpt>
      <trkpt lat="46.37725" lon="3.30693">
        <ele>239.02</ele>
        <time>2021-08-13T17:50:43Z</time>
      </trkpt>
      <trkpt lat="46.37695" lon="3.30686">
        <ele>239.02</ele>
        <time>2021-08-13T17:50:51Z</time>
      </trkpt>
      <trkpt lat="46.37685" lon="3.30678">
        <ele>239.02</ele>
        <time>2021-08-13T17:50:54Z</time>
      </trkpt>
      <trkpt lat="46.37684" lon="3.30674">
        <ele>239.02</ele>
        <time>2021-08-13T17:50:55Z</time>
      </trkpt>
      <trkpt lat="46.37683" lon="3.3067">
        <ele>239.02</ele>
        <time>2021-08-13T17:50:56Z</time>
      </trkpt>
      <trkpt lat="46.3768" lon="3.30647">
        <ele>239.99</ele>
        <time>2021-08-13T17:51:03Z</time>
      </trkpt>
      <trkpt lat="46.37675" lon="3.30623">
        <ele>240.95</ele>
        <time>2021-08-13T17:51:12Z</time>
      </trkpt>
      <trkpt lat="46.3767" lon="3.306">
        <ele>242.39</ele>
        <time>2021-08-13T17:51:21Z</time>
      </trkpt>
      <trkpt lat="46.37666" lon="3.30583">
        <ele>243.35</ele>
        <time>2021-08-13T17:51:28Z</time>
      </trkpt>
      <trkpt lat="46.3766" lon="3.30567">
        <ele>245.27</ele>
        <time>2021-08-13T17:51:35Z</time>
      </trkpt>
      <trkpt lat="46.3765" lon="3.30549">
        <ele>246.72</ele>
        <time>2021-08-13T17:51:44Z</time>
      </trkpt>
      <trkpt lat="46.37636" lon="3.30528">
        <ele>246.23</ele>
        <time>2021-08-13T17:51:52Z</time>
      </trkpt>
      <trkpt lat="46.37621" lon="3.30502">
        <ele>245.27</ele>
        <time>2021-08-13T17:51:58Z</time>
      </trkpt>
      <trkpt lat="46.37609" lon="3.30487">
        <ele>245.27</ele>
        <time>2021-08-13T17:52:02Z</time>
      </trkpt>
      <trkpt lat="46.37604" lon="3.30487">
        <ele>245.27</ele>
        <time>2021-08-13T17:52:03Z</time>
      </trkpt>
      <trkpt lat="46.376" lon="3.30488">
        <ele>245.27</ele>
        <time>2021-08-13T17:52:04Z</time>
      </trkpt>
      <trkpt lat="46.37597" lon="3.3049">
        <ele>244.31</ele>
        <time>2021-08-13T17:52:05Z</time>
      </trkpt>
      <trkpt lat="46.37593" lon="3.30493">
        <ele>244.31</ele>
        <time>2021-08-13T17:52:06Z</time>
      </trkpt>
      <trkpt lat="46.37589" lon="3.30497">
        <ele>243.83</ele>
        <time>2021-08-13T17:52:07Z</time>
      </trkpt>
      <trkpt lat="46.37585" lon="3.305">
        <ele>243.83</ele>
        <time>2021-08-13T17:52:08Z</time>
      </trkpt>
      <trkpt lat="46.37574" lon="3.3051">
        <ele>243.83</ele>
        <time>2021-08-13T17:52:11Z</time>
      </trkpt>
      <trkpt lat="46.37564" lon="3.30517">
        <ele>243.83</ele>
        <time>2021-08-13T17:52:14Z</time>
      </trkpt>
      <trkpt lat="46.37562" lon="3.30516">
        <ele>243.83</ele>
        <time>2021-08-13T17:52:15Z</time>
      </trkpt>
      <trkpt lat="46.37559" lon="3.30514">
        <ele>245.27</ele>
        <time>2021-08-13T17:52:16Z</time>
      </trkpt>
      <trkpt lat="46.37557" lon="3.30512">
        <ele>245.27</ele>
        <time>2021-08-13T17:52:17Z</time>
      </trkpt>
      <trkpt lat="46.37556" lon="3.30511">
        <ele>245.75</ele>
        <time>2021-08-13T17:52:18Z</time>
      </trkpt>
      <trkpt lat="46.37554" lon="3.30509">
        <ele>246.23</ele>
        <time>2021-08-13T17:52:19Z</time>
      </trkpt>
      <trkpt lat="46.37548" lon="3.30491">
        <ele>246.72</ele>
        <time>2021-08-13T17:52:27Z</time>
      </trkpt>
      <trkpt lat="46.37541" lon="3.30471">
        <ele>248.16</ele>
        <time>2021-08-13T17:52:36Z</time>
      </trkpt>
      <trkpt lat="46.37533" lon="3.30447">
        <ele>250.08</ele>
        <time>2021-08-13T17:52:46Z</time>
      </trkpt>
      <trkpt lat="46.37528" lon="3.30432">
        <ele>251.04</ele>
        <time>2021-08-13T17:52:53Z</time>
      </trkpt>
      <trkpt lat="46.37523" lon="3.30413">
        <ele>252.48</ele>
        <time>2021-08-13T17:53:02Z</time>
      </trkpt>
      <trkpt lat="46.37519" lon="3.30394">
        <ele>253.93</ele>
        <time>2021-08-13T17:53:11Z</time>
      </trkpt>
      <trkpt lat="46.37518" lon="3.30379">
        <ele>254.41</ele>
        <time>2021-08-13T17:53:18Z</time>
      </trkpt>
      <trkpt lat="46.37516" lon="3.30362">
        <ele>255.85</ele>
        <time>2021-08-13T17:53:26Z</time>
      </trkpt>
      <trkpt lat="46.37515" lon="3.3036">
        <ele>256.33</ele>
        <time>2021-08-13T17:53:27Z</time>
      </trkpt>
      <trkpt lat="46.37514" lon="3.30358">
        <ele>256.33</ele>
        <time>2021-08-13T17:53:28Z</time>
      </trkpt>
      <trkpt lat="46.37514" lon="3.30357">
        <ele>256.81</ele>
        <time>2021-08-13T17:53:29Z</time>
      </trkpt>
      <trkpt lat="46.37513" lon="3.30354">
        <ele>256.33</ele>
        <time>2021-08-13T17:53:30Z</time>
      </trkpt>
      <trkpt lat="46.37507" lon="3.30342">
        <ele>258.25</ele>
        <time>2021-08-13T17:53:37Z</time>
      </trkpt>
      <trkpt lat="46.37496" lon="3.30328">
        <ele>259.21</ele>
        <time>2021-08-13T17:53:47Z</time>
      </trkpt>
      <trkpt lat="46.37485" lon="3.30309">
        <ele>260.65</ele>
        <time>2021-08-13T17:53:58Z</time>
      </trkpt>
      <trkpt lat="46.37478" lon="3.30293">
        <ele>262.1</ele>
        <time>2021-08-13T17:54:07Z</time>
      </trkpt>
      <trkpt lat="46.37473" lon="3.30276">
        <ele>263.06</ele>
        <time>2021-08-13T17:54:15Z</time>
      </trkpt>
      <trkpt lat="46.37469" lon="3.30256">
        <ele>263.54</ele>
        <time>2021-08-13T17:54:25Z</time>
      </trkpt>
      <trkpt lat="46.37464" lon="3.30235">
        <ele>264.98</ele>
        <time>2021-08-13T17:54:35Z</time>
      </trkpt>
      <trkpt lat="46.37457" lon="3.30213">
        <ele>265.94</ele>
        <time>2021-08-13T17:54:45Z</time>
      </trkpt>
      <trkpt lat="46.37449" lon="3.30192">
        <ele>267.38</ele>
        <time>2021-08-13T17:54:55Z</time>
      </trkpt>
      <trkpt lat="46.3744" lon="3.30173">
        <ele>268.35</ele>
        <time>2021-08-13T17:55:04Z</time>
      </trkpt>
      <trkpt lat="46.37439" lon="3.30171">
        <ele>268.35</ele>
        <time>2021-08-13T17:55:05Z</time>
      </trkpt>
      <trkpt lat="46.37439" lon="3.30168">
        <ele>268.83</ele>
        <time>2021-08-13T17:55:06Z</time>
      </trkpt>
      <trkpt lat="46.37438" lon="3.30166">
        <ele>268.83</ele>
        <time>2021-08-13T17:55:07Z</time>
      </trkpt>
      <trkpt lat="46.37437" lon="3.30164">
        <ele>268.83</ele>
        <time>2021-08-13T17:55:08Z</time>
      </trkpt>
      <trkpt lat="46.37436" lon="3.30161">
        <ele>268.83</ele>
        <time>2021-08-13T17:55:09Z</time>
      </trkpt>
      <trkpt lat="46.37435" lon="3.30159">
        <ele>269.79</ele>
        <time>2021-08-13T17:55:10Z</time>
      </trkpt>
      <trkpt lat="46.37434" lon="3.30157">
        <ele>269.79</ele>
        <time>2021-08-13T17:55:11Z</time>
      </trkpt>
      <trkpt lat="46.37434" lon="3.30155">
        <ele>269.79</ele>
        <time>2021-08-13T17:55:12Z</time>
      </trkpt>
      <trkpt lat="46.37425" lon="3.30134">
        <ele>271.23</ele>
        <time>2021-08-13T17:55:22Z</time>
      </trkpt>
      <trkpt lat="46.37418" lon="3.30119">
        <ele>272.67</ele>
        <time>2021-08-13T17:55:30Z</time>
      </trkpt>
      <trkpt lat="46.37409" lon="3.301">
        <ele>273.63</ele>
        <time>2021-08-13T17:55:40Z</time>
      </trkpt>
      <trkpt lat="46.37409" lon="3.30099">
        <ele>274.11</ele>
        <time>2021-08-13T17:55:41Z</time>
      </trkpt>
      <trkpt lat="46.37408" lon="3.30098">
        <ele>274.59</ele>
        <time>2021-08-13T17:55:42Z</time>
      </trkpt>
      <trkpt lat="46.37406" lon="3.30098">
        <ele>274.59</ele>
        <time>2021-08-13T17:55:43Z</time>
      </trkpt>
      <trkpt lat="46.37399" lon="3.30102">
        <ele>276.04</ele>
        <time>2021-08-13T17:55:49Z</time>
      </trkpt>
      <trkpt lat="46.37388" lon="3.30109">
        <ele>277.96</ele>
        <time>2021-08-13T17:55:58Z</time>
      </trkpt>
      <trkpt lat="46.37377" lon="3.30115">
        <ele>279.88</ele>
        <time>2021-08-13T17:56:05Z</time>
      </trkpt>
      <trkpt lat="46.37375" lon="3.30116">
        <ele>279.88</ele>
        <time>2021-08-13T17:56:06Z</time>
      </trkpt>
      <trkpt lat="46.37374" lon="3.30117">
        <ele>279.88</ele>
        <time>2021-08-13T17:56:07Z</time>
      </trkpt>
      <trkpt lat="46.37372" lon="3.30118">
        <ele>279.88</ele>
        <time>2021-08-13T17:56:08Z</time>
      </trkpt>
      <trkpt lat="46.37371" lon="3.30119">
        <ele>279.88</ele>
        <time>2021-08-13T17:56:09Z</time>
      </trkpt>
      <trkpt lat="46.37371" lon="3.3012">
        <ele>280.36</ele>
        <time>2021-08-13T17:56:10Z</time>
      </trkpt>
      <trkpt lat="46.37369" lon="3.30123">
        <ele>280.36</ele>
        <time>2021-08-13T17:56:12Z</time>
      </trkpt>
      <trkpt lat="46.37367" lon="3.30124">
        <ele>281.32</ele>
        <time>2021-08-13T17:56:13Z</time>
      </trkpt>
      <trkpt lat="46.37354" lon="3.30131">
        <ele>282.77</ele>
        <time>2021-08-13T17:56:22Z</time>
      </trkpt>
      <trkpt lat="46.37342" lon="3.30141">
        <ele>284.69</ele>
        <time>2021-08-13T17:56:31Z</time>
      </trkpt>
      <trkpt lat="46.37328" lon="3.30149">
        <ele>286.13</ele>
        <time>2021-08-13T17:56:41Z</time>
      </trkpt>
      <trkpt lat="46.37313" lon="3.30156">
        <ele>288.05</ele>
        <time>2021-08-13T17:56:51Z</time>
      </trkpt>
      <trkpt lat="46.37304" lon="3.3016">
        <ele>288.53</ele>
        <time>2021-08-13T17:56:57Z</time>
      </trkpt>
      <trkpt lat="46.37292" lon="3.30163">
        <ele>289.01</ele>
        <time>2021-08-13T17:57:04Z</time>
      </trkpt>
      <trkpt lat="46.37277" lon="3.30165">
        <ele>289.97</ele>
        <time>2021-08-13T17:57:12Z</time>
      </trkpt>
      <trkpt lat="46.37257" lon="3.30164">
        <ele>290.46</ele>
        <time>2021-08-13T17:57:20Z</time>
      </trkpt>
      <trkpt lat="46.37234" lon="3.30163">
        <ele>290.94</ele>
        <time>2021-08-13T17:57:29Z</time>
      </trkpt>
      <trkpt lat="46.37206" lon="3.30164">
        <ele>290.94</ele>
        <time>2021-08-13T17:57:37Z</time>
      </trkpt>
      <trkpt lat="46.37179" lon="3.30164">
        <ele>290.94</ele>
        <time>2021-08-13T17:57:45Z</time>
      </trkpt>
      <trkpt lat="46.37152" lon="3.30163">
        <ele>290.94</ele>
        <time>2021-08-13T17:57:53Z</time>
      </trkpt>
      <trkpt lat="46.37144" lon="3.30162">
        <ele>289.49</ele>
        <time>2021-08-13T17:57:55Z</time>
      </trkpt>
      <trkpt lat="46.37113" lon="3.3016">
        <ele>286.61</ele>
        <time>2021-08-13T17:58:01Z</time>
      </trkpt>
      <trkpt lat="46.37064" lon="3.30153">
        <ele>283.73</ele>
        <time>2021-08-13T17:58:08Z</time>
      </trkpt>
      <trkpt lat="46.3704" lon="3.30154">
        <ele>283.73</ele>
        <time>2021-08-13T17:58:12Z</time>
      </trkpt>
      <trkpt lat="46.37021" lon="3.3016">
        <ele>286.13</ele>
        <time>2021-08-13T17:58:17Z</time>
      </trkpt>
      <trkpt lat="46.36993" lon="3.30164">
        <ele>287.09</ele>
        <time>2021-08-13T17:58:25Z</time>
      </trkpt>
      <trkpt lat="46.36973" lon="3.30147">
        <ele>289.01</ele>
        <time>2021-08-13T17:58:32Z</time>
      </trkpt>
      <trkpt lat="46.36967" lon="3.30131">
        <ele>289.97</ele>
        <time>2021-08-13T17:58:37Z</time>
      </trkpt>
      <trkpt lat="46.36965" lon="3.30129">
        <ele>289.97</ele>
        <time>2021-08-13T17:58:38Z</time>
      </trkpt>
      <trkpt lat="46.36962" lon="3.30127">
        <ele>289.97</ele>
        <time>2021-08-13T17:58:39Z</time>
      </trkpt>
      <trkpt lat="46.3696" lon="3.30126">
        <ele>289.97</ele>
        <time>2021-08-13T17:58:40Z</time>
      </trkpt>
      <trkpt lat="46.36958" lon="3.30126">
        <ele>289.97</ele>
        <time>2021-08-13T17:58:41Z</time>
      </trkpt>
      <trkpt lat="46.36938" lon="3.30116">
        <ele>290.94</ele>
        <time>2021-08-13T17:58:49Z</time>
      </trkpt>
      <trkpt lat="46.36914" lon="3.30102">
        <ele>291.42</ele>
        <time>2021-08-13T17:58:58Z</time>
      </trkpt>
      <trkpt lat="46.36892" lon="3.3009">
        <ele>291.42</ele>
        <time>2021-08-13T17:59:05Z</time>
      </trkpt>
      <trkpt lat="46.36857" lon="3.30071">
        <ele>291.9</ele>
        <time>2021-08-13T17:59:16Z</time>
      </trkpt>
      <trkpt lat="46.36829" lon="3.30055">
        <ele>291.9</ele>
        <time>2021-08-13T17:59:25Z</time>
      </trkpt>
      <trkpt lat="46.36807" lon="3.30043">
        <ele>291.9</ele>
        <time>2021-08-13T17:59:32Z</time>
      </trkpt>
      <trkpt lat="46.36795" lon="3.30035">
        <ele>290.46</ele>
        <time>2021-08-13T17:59:36Z</time>
      </trkpt>
      <trkpt lat="46.3678" lon="3.30029">
        <ele>289.97</ele>
        <time>2021-08-13T17:59:40Z</time>
      </trkpt>
      <trkpt lat="46.36766" lon="3.30024">
        <ele>289.01</ele>
        <time>2021-08-13T17:59:43Z</time>
      </trkpt>
      <trkpt lat="46.36728" lon="3.30001">
        <ele>287.57</ele>
        <time>2021-08-13T17:59:50Z</time>
      </trkpt>
      <trkpt lat="46.36708" lon="3.29988">
        <ele>286.61</ele>
        <time>2021-08-13T17:59:54Z</time>
      </trkpt>
      <trkpt lat="46.36705" lon="3.29983">
        <ele>286.61</ele>
        <time>2021-08-13T17:59:55Z</time>
      </trkpt>
      <trkpt lat="46.36703" lon="3.29977">
        <ele>286.61</ele>
        <time>2021-08-13T17:59:56Z</time>
      </trkpt>
      <trkpt lat="46.36702" lon="3.29972">
        <ele>286.61</ele>
        <time>2021-08-13T17:59:57Z</time>
      </trkpt>
      <trkpt lat="46.36702" lon="3.29967">
        <ele>286.61</ele>
        <time>2021-08-13T17:59:58Z</time>
      </trkpt>
      <trkpt lat="46.36702" lon="3.29959">
        <ele>288.05</ele>
        <time>2021-08-13T18:00:00Z</time>
      </trkpt>
      <trkpt lat="46.36705" lon="3.29937">
        <ele>289.49</ele>
        <time>2021-08-13T18:00:08Z</time>
      </trkpt>
      <trkpt lat="46.36708" lon="3.29914">
        <ele>291.42</ele>
        <time>2021-08-13T18:00:17Z</time>
      </trkpt>
      <trkpt lat="46.36712" lon="3.29898">
        <ele>293.34</ele>
        <time>2021-08-13T18:00:25Z</time>
      </trkpt>
      <trkpt lat="46.3672" lon="3.29879">
        <ele>294.78</ele>
        <time>2021-08-13T18:00:35Z</time>
      </trkpt>
      <trkpt lat="46.36721" lon="3.29877">
        <ele>294.78</ele>
        <time>2021-08-13T18:00:36Z</time>
      </trkpt>
      <trkpt lat="46.36721" lon="3.29874">
        <ele>294.78</ele>
        <time>2021-08-13T18:00:37Z</time>
      </trkpt>
      <trkpt lat="46.36723" lon="3.29872">
        <ele>294.78</ele>
        <time>2021-08-13T18:00:38Z</time>
      </trkpt>
      <trkpt lat="46.36724" lon="3.29871">
        <ele>294.78</ele>
        <time>2021-08-13T18:00:39Z</time>
      </trkpt>
      <trkpt lat="46.36725" lon="3.29869">
        <ele>294.78</ele>
        <time>2021-08-13T18:00:40Z</time>
      </trkpt>
      <trkpt lat="46.36725" lon="3.29867">
        <ele>294.78</ele>
        <time>2021-08-13T18:00:41Z</time>
      </trkpt>
      <trkpt lat="46.36726" lon="3.29865">
        <ele>294.78</ele>
        <time>2021-08-13T18:00:42Z</time>
      </trkpt>
      <trkpt lat="46.36728" lon="3.29863">
        <ele>295.26</ele>
        <time>2021-08-13T18:00:43Z</time>
      </trkpt>
      <trkpt lat="46.36729" lon="3.29861">
        <ele>295.26</ele>
        <time>2021-08-13T18:00:44Z</time>
      </trkpt>
      <trkpt lat="46.3673" lon="3.29859">
        <ele>295.26</ele>
        <time>2021-08-13T18:00:45Z</time>
      </trkpt>
      <trkpt lat="46.36743" lon="3.29837">
        <ele>295.74</ele>
        <time>2021-08-13T18:00:54Z</time>
      </trkpt>
      <trkpt lat="46.36758" lon="3.29816">
        <ele>296.7</ele>
        <time>2021-08-13T18:01:02Z</time>
      </trkpt>
      <trkpt lat="46.3677" lon="3.29795">
        <ele>297.18</ele>
        <time>2021-08-13T18:01:08Z</time>
      </trkpt>
      <trkpt lat="46.36783" lon="3.29756">
        <ele>298.15</ele>
        <time>2021-08-13T18:01:17Z</time>
      </trkpt>
      <trkpt lat="46.36783" lon="3.29735">
        <ele>298.63</ele>
        <time>2021-08-13T18:01:23Z</time>
      </trkpt>
      <trkpt lat="46.36783" lon="3.29732">
        <ele>298.63</ele>
        <time>2021-08-13T18:01:29Z</time>
      </trkpt>
      <trkpt lat="46.36784" lon="3.29733">
        <ele>298.63</ele>
        <time>2021-08-13T18:01:45Z</time>
      </trkpt>
      <trkpt lat="46.36784" lon="3.29735">
        <ele>298.63</ele>
        <time>2021-08-13T18:02:04Z</time>
      </trkpt>
      <trkpt lat="46.36782" lon="3.29736">
        <ele>298.63</ele>
        <time>2021-08-13T18:02:26Z</time>
      </trkpt>
      <trkpt lat="46.36782" lon="3.29736">
        <ele>298.63</ele>
        <time>2021-08-13T18:02:36Z</time>
      </trkpt>
      <trkpt lat="46.36784" lon="3.29734">
        <ele>298.63</ele>
        <time>2021-08-13T18:02:56Z</time>
      </trkpt>
      <trkpt lat="46.36785" lon="3.29732">
        <ele>298.63</ele>
        <time>2021-08-13T18:03:09Z</time>
      </trkpt>
      <trkpt lat="46.36782" lon="3.29732">
        <ele>298.63</ele>
        <time>2021-08-13T18:03:25Z</time>
      </trkpt>
      <trkpt lat="46.36783" lon="3.29735">
        <ele>298.63</ele>
        <time>2021-08-13T18:03:38Z</time>
      </trkpt>
      <trkpt lat="46.36784" lon="3.29734">
        <ele>298.63</ele>
        <time>2021-08-13T18:03:54Z</time>
      </trkpt>
      <trkpt lat="46.36784" lon="3.29735">
        <ele>298.63</ele>
        <time>2021-08-13T18:04:06Z</time>
      </trkpt>
      <trkpt lat="46.36785" lon="3.29736">
        <ele>298.63</ele>
        <time>2021-08-13T18:04:19Z</time>
      </trkpt>
      <trkpt lat="46.36783" lon="3.29734">
        <ele>298.63</ele>
        <time>2021-08-13T18:04:40Z</time>
      </trkpt>
      <trkpt lat="46.36782" lon="3.29731">
        <ele>298.63</ele>
        <time>2021-08-13T18:04:45Z</time>
      </trkpt>
      <trkpt lat="46.36781" lon="3.29729">
        <ele>298.63</ele>
        <time>2021-08-13T18:04:46Z</time>
      </trkpt>
      <trkpt lat="46.36781" lon="3.29727">
        <ele>298.63</ele>
        <time>2021-08-13T18:04:47Z</time>
      </trkpt>
      <trkpt lat="46.3678" lon="3.29725">
        <ele>298.63</ele>
        <time>2021-08-13T18:04:48Z</time>
      </trkpt>
      <trkpt lat="46.3678" lon="3.29722">
        <ele>298.63</ele>
        <time>2021-08-13T18:04:49Z</time>
      </trkpt>
      <trkpt lat="46.36781" lon="3.29694">
        <ele>298.63</ele>
        <time>2021-08-13T18:04:56Z</time>
      </trkpt>
      <trkpt lat="46.36785" lon="3.29672">
        <ele>297.67</ele>
        <time>2021-08-13T18:05:01Z</time>
      </trkpt>
      <trkpt lat="46.36783" lon="3.29669">
        <ele>297.67</ele>
        <time>2021-08-13T18:05:02Z</time>
      </trkpt>
      <trkpt lat="46.36781" lon="3.29668">
        <ele>297.67</ele>
        <time>2021-08-13T18:05:03Z</time>
      </trkpt>
      <trkpt lat="46.36778" lon="3.29666">
        <ele>297.67</ele>
        <time>2021-08-13T18:05:04Z</time>
      </trkpt>
      <trkpt lat="46.36775" lon="3.29664">
        <ele>297.18</ele>
        <time>2021-08-13T18:05:05Z</time>
      </trkpt>
      <trkpt lat="46.3675" lon="3.29653">
        <ele>294.3</ele>
        <time>2021-08-13T18:05:11Z</time>
      </trkpt>
      <trkpt lat="46.36725" lon="3.29641">
        <ele>290.94</ele>
        <time>2021-08-13T18:05:16Z</time>
      </trkpt>
      <trkpt lat="46.36719" lon="3.29639">
        <ele>289.49</ele>
        <time>2021-08-13T18:05:17Z</time>
      </trkpt>
      <trkpt lat="46.36711" lon="3.29634">
        <ele>288.53</ele>
        <time>2021-08-13T18:05:18Z</time>
      </trkpt>
      <trkpt lat="46.36692" lon="3.29618">
        <ele>287.57</ele>
        <time>2021-08-13T18:05:21Z</time>
      </trkpt>
      <trkpt lat="46.36664" lon="3.29596">
        <ele>289.01</ele>
        <time>2021-08-13T18:05:26Z</time>
      </trkpt>
      <trkpt lat="46.36657" lon="3.29589">
        <ele>290.94</ele>
        <time>2021-08-13T18:05:29Z</time>
      </trkpt>
      <trkpt lat="46.36642" lon="3.29577">
        <ele>293.34</ele>
        <time>2021-08-13T18:05:38Z</time>
      </trkpt>
      <trkpt lat="46.36626" lon="3.29559">
        <ele>295.26</ele>
        <time>2021-08-13T18:05:47Z</time>
      </trkpt>
      <trkpt lat="46.36612" lon="3.2955">
        <ele>295.74</ele>
        <time>2021-08-13T18:05:53Z</time>
      </trkpt>
      <trkpt lat="46.36586" lon="3.29548">
        <ele>295.74</ele>
        <time>2021-08-13T18:06:02Z</time>
      </trkpt>
      <trkpt lat="46.36566" lon="3.29544">
        <ele>295.74</ele>
        <time>2021-08-13T18:06:09Z</time>
      </trkpt>
      <trkpt lat="46.36562" lon="3.29523">
        <ele>295.74</ele>
        <time>2021-08-13T18:06:14Z</time>
      </trkpt>
      <trkpt lat="46.3656" lon="3.29489">
        <ele>297.18</ele>
        <time>2021-08-13T18:06:22Z</time>
      </trkpt>
      <trkpt lat="46.36561" lon="3.29458">
        <ele>298.63</ele>
        <time>2021-08-13T18:06:29Z</time>
      </trkpt>
      <trkpt lat="46.36567" lon="3.29424">
        <ele>299.11</ele>
        <time>2021-08-13T18:06:37Z</time>
      </trkpt>
      <trkpt lat="46.36579" lon="3.2938">
        <ele>300.55</ele>
        <time>2021-08-13T18:06:48Z</time>
      </trkpt>
      <trkpt lat="46.3659" lon="3.29341">
        <ele>301.51</ele>
        <time>2021-08-13T18:06:58Z</time>
      </trkpt>
      <trkpt lat="46.36604" lon="3.29291">
        <ele>301.99</ele>
        <time>2021-08-13T18:07:10Z</time>
      </trkpt>
      <trkpt lat="46.36615" lon="3.29252">
        <ele>302.47</ele>
        <time>2021-08-13T18:07:19Z</time>
      </trkpt>
      <trkpt lat="46.36619" lon="3.29231">
        <ele>302.95</ele>
        <time>2021-08-13T18:07:24Z</time>
      </trkpt>
      <trkpt lat="46.36619" lon="3.29227">
        <ele>302.95</ele>
        <time>2021-08-13T18:07:25Z</time>
      </trkpt>
      <trkpt lat="46.36617" lon="3.29224">
        <ele>302.95</ele>
        <time>2021-08-13T18:07:26Z</time>
      </trkpt>
      <trkpt lat="46.36616" lon="3.29222">
        <ele>302.95</ele>
        <time>2021-08-13T18:07:27Z</time>
      </trkpt>
      <trkpt lat="46.36614" lon="3.29219">
        <ele>302.95</ele>
        <time>2021-08-13T18:07:28Z</time>
      </trkpt>
      <trkpt lat="46.36603" lon="3.29205">
        <ele>303.43</ele>
        <time>2021-08-13T18:07:34Z</time>
      </trkpt>
      <trkpt lat="46.36591" lon="3.2919">
        <ele>303.91</ele>
        <time>2021-08-13T18:07:40Z</time>
      </trkpt>
      <trkpt lat="46.36574" lon="3.29166">
        <ele>303.91</ele>
        <time>2021-08-13T18:07:48Z</time>
      </trkpt>
      <trkpt lat="46.36559" lon="3.29146">
        <ele>303.91</ele>
        <time>2021-08-13T18:07:55Z</time>
      </trkpt>
      <trkpt lat="46.36535" lon="3.29113">
        <ele>303.91</ele>
        <time>2021-08-13T18:08:05Z</time>
      </trkpt>
      <trkpt lat="46.36521" lon="3.29094">
        <ele>302.47</ele>
        <time>2021-08-13T18:08:10Z</time>
      </trkpt>
      <trkpt lat="46.36492" lon="3.29057">
        <ele>301.03</ele>
        <time>2021-08-13T18:08:18Z</time>
      </trkpt>
      <trkpt lat="46.36464" lon="3.29017">
        <ele>300.07</ele>
        <time>2021-08-13T18:08:25Z</time>
      </trkpt>
      <trkpt lat="46.3646" lon="3.29012">
        <ele>300.07</ele>
        <time>2021-08-13T18:08:26Z</time>
      </trkpt>
      <trkpt lat="46.36455" lon="3.29007">
        <ele>300.07</ele>
        <time>2021-08-13T18:08:27Z</time>
      </trkpt>
      <trkpt lat="46.3645" lon="3.29003">
        <ele>300.07</ele>
        <time>2021-08-13T18:08:28Z</time>
      </trkpt>
      <trkpt lat="46.36445" lon="3.29">
        <ele>300.07</ele>
        <time>2021-08-13T18:08:29Z</time>
      </trkpt>
      <trkpt lat="46.3644" lon="3.28998">
        <ele>300.07</ele>
        <time>2021-08-13T18:08:30Z</time>
      </trkpt>
      <trkpt lat="46.36435" lon="3.28997">
        <ele>300.07</ele>
        <time>2021-08-13T18:08:31Z</time>
      </trkpt>
      <trkpt lat="46.36405" lon="3.28992">
        <ele>300.07</ele>
        <time>2021-08-13T18:08:38Z</time>
      </trkpt>
      <trkpt lat="46.36389" lon="3.28995">
        <ele>300.07</ele>
        <time>2021-08-13T18:08:43Z</time>
      </trkpt>
      <trkpt lat="46.36381" lon="3.28997">
        <ele>301.51</ele>
        <time>2021-08-13T18:08:46Z</time>
      </trkpt>
      <trkpt lat="46.3636" lon="3.28991">
        <ele>301.51</ele>
        <time>2021-08-13T18:08:53Z</time>
      </trkpt>
      <trkpt lat="46.36337" lon="3.28981">
        <ele>301.99</ele>
        <time>2021-08-13T18:09:00Z</time>
      </trkpt>
      <trkpt lat="46.36303" lon="3.28966">
        <ele>302.95</ele>
        <time>2021-08-13T18:09:10Z</time>
      </trkpt>
      <trkpt lat="46.36283" lon="3.28957">
        <ele>303.91</ele>
        <time>2021-08-13T18:09:16Z</time>
      </trkpt>
      <trkpt lat="46.36253" lon="3.28943">
        <ele>304.39</ele>
        <time>2021-08-13T18:09:25Z</time>
      </trkpt>
      <trkpt lat="46.36223" lon="3.28929">
        <ele>305.36</ele>
        <time>2021-08-13T18:09:34Z</time>
      </trkpt>
      <trkpt lat="46.36187" lon="3.28909">
        <ele>306.32</ele>
        <time>2021-08-13T18:09:45Z</time>
      </trkpt>
      <trkpt lat="46.36156" lon="3.28892">
        <ele>306.32</ele>
        <time>2021-08-13T18:09:54Z</time>
      </trkpt>
      <trkpt lat="46.36123" lon="3.28873">
        <ele>306.8</ele>
        <time>2021-08-13T18:10:04Z</time>
      </trkpt>
      <trkpt lat="46.36084" lon="3.2885">
        <ele>307.28</ele>
        <time>2021-08-13T18:10:15Z</time>
      </trkpt>
      <trkpt lat="46.36076" lon="3.28845">
        <ele>307.28</ele>
        <time>2021-08-13T18:10:17Z</time>
      </trkpt>
      <trkpt lat="46.36072" lon="3.28843">
        <ele>307.28</ele>
        <time>2021-08-13T18:10:18Z</time>
      </trkpt>
      <trkpt lat="46.36045" lon="3.2882">
        <ele>307.28</ele>
        <time>2021-08-13T18:10:26Z</time>
      </trkpt>
      <trkpt lat="46.36016" lon="3.28778">
        <ele>307.76</ele>
        <time>2021-08-13T18:10:37Z</time>
      </trkpt>
      <trkpt lat="46.36008" lon="3.28757">
        <ele>307.76</ele>
        <time>2021-08-13T18:10:42Z</time>
      </trkpt>
      <trkpt lat="46.36011" lon="3.28726">
        <ele>308.24</ele>
        <time>2021-08-13T18:10:48Z</time>
      </trkpt>
      <trkpt lat="46.36019" lon="3.28691">
        <ele>308.24</ele>
        <time>2021-08-13T18:10:55Z</time>
      </trkpt>
      <trkpt lat="46.36021" lon="3.28686">
        <ele>308.24</ele>
        <time>2021-08-13T18:10:56Z</time>
      </trkpt>
      <trkpt lat="46.36022" lon="3.28681">
        <ele>308.24</ele>
        <time>2021-08-13T18:10:57Z</time>
      </trkpt>
      <trkpt lat="46.36033" lon="3.28636">
        <ele>308.72</ele>
        <time>2021-08-13T18:11:06Z</time>
      </trkpt>
      <trkpt lat="46.36044" lon="3.28593">
        <ele>309.2</ele>
        <time>2021-08-13T18:11:15Z</time>
      </trkpt>
      <trkpt lat="46.36048" lon="3.28579">
        <ele>309.68</ele>
        <time>2021-08-13T18:11:20Z</time>
      </trkpt>
      <trkpt lat="46.36049" lon="3.28568">
        <ele>309.2</ele>
        <time>2021-08-13T18:11:25Z</time>
      </trkpt>
      <trkpt lat="46.36056" lon="3.2855">
        <ele>309.2</ele>
        <time>2021-08-13T18:11:29Z</time>
      </trkpt>
      <trkpt lat="46.36058" lon="3.28545">
        <ele>309.2</ele>
        <time>2021-08-13T18:11:30Z</time>
      </trkpt>
      <trkpt lat="46.36069" lon="3.28513">
        <ele>309.68</ele>
        <time>2021-08-13T18:11:37Z</time>
      </trkpt>
      <trkpt lat="46.36081" lon="3.28457">
        <ele>309.68</ele>
        <time>2021-08-13T18:11:47Z</time>
      </trkpt>
      <trkpt lat="46.36092" lon="3.28403">
        <ele>309.2</ele>
        <time>2021-08-13T18:11:57Z</time>
      </trkpt>
      <trkpt lat="46.36098" lon="3.28369">
        <ele>309.2</ele>
        <time>2021-08-13T18:12:04Z</time>
      </trkpt>
      <trkpt lat="46.36098" lon="3.28352">
        <ele>308.24</ele>
        <time>2021-08-13T18:12:07Z</time>
      </trkpt>
      <trkpt lat="46.36092" lon="3.28309">
        <ele>308.24</ele>
        <time>2021-08-13T18:12:14Z</time>
      </trkpt>
      <trkpt lat="46.36084" lon="3.28258">
        <ele>307.76</ele>
        <time>2021-08-13T18:12:22Z</time>
      </trkpt>
      <trkpt lat="46.36083" lon="3.28192">
        <ele>306.32</ele>
        <time>2021-08-13T18:12:32Z</time>
      </trkpt>
      <trkpt lat="46.36084" lon="3.28135">
        <ele>305.84</ele>
        <time>2021-08-13T18:12:40Z</time>
      </trkpt>
      <trkpt lat="46.36083" lon="3.2807">
        <ele>302.95</ele>
        <time>2021-08-13T18:12:48Z</time>
      </trkpt>
      <trkpt lat="46.36079" lon="3.28044">
        <ele>301.99</ele>
        <time>2021-08-13T18:12:51Z</time>
      </trkpt>
      <trkpt lat="46.36062" lon="3.27964">
        <ele>300.07</ele>
        <time>2021-08-13T18:13:00Z</time>
      </trkpt>
      <trkpt lat="46.36041" lon="3.27867">
        <ele>298.15</ele>
        <time>2021-08-13T18:13:10Z</time>
      </trkpt>
      <trkpt lat="46.36025" lon="3.27793">
        <ele>297.67</ele>
        <time>2021-08-13T18:13:18Z</time>
      </trkpt>
      <trkpt lat="46.36015" lon="3.2774">
        <ele>297.67</ele>
        <time>2021-08-13T18:13:25Z</time>
      </trkpt>
      <trkpt lat="46.36014" lon="3.27732">
        <ele>297.67</ele>
        <time>2021-08-13T18:13:26Z</time>
      </trkpt>
      <trkpt lat="46.36013" lon="3.2769">
        <ele>292.86</ele>
        <time>2021-08-13T18:13:30Z</time>
      </trkpt>
      <trkpt lat="46.36011" lon="3.27631">
        <ele>289.01</ele>
        <time>2021-08-13T18:13:35Z</time>
      </trkpt>
      <trkpt lat="46.36009" lon="3.27621">
        <ele>288.53</ele>
        <time>2021-08-13T18:13:36Z</time>
      </trkpt>
      <trkpt lat="46.35995" lon="3.27573">
        <ele>286.13</ele>
        <time>2021-08-13T18:13:40Z</time>
      </trkpt>
      <trkpt lat="46.3599" lon="3.27561">
        <ele>286.13</ele>
        <time>2021-08-13T18:13:41Z</time>
      </trkpt>
      <trkpt lat="46.3595" lon="3.27474">
        <ele>283.25</ele>
        <time>2021-08-13T18:13:49Z</time>
      </trkpt>
      <trkpt lat="46.35932" lon="3.27403">
        <ele>280.84</ele>
        <time>2021-08-13T18:13:55Z</time>
      </trkpt>
      <trkpt lat="46.35924" lon="3.27354">
        <ele>279.4</ele>
        <time>2021-08-13T18:13:59Z</time>
      </trkpt>
      <trkpt lat="46.35921" lon="3.27343">
        <ele>279.4</ele>
        <time>2021-08-13T18:14:00Z</time>
      </trkpt>
      <trkpt lat="46.35917" lon="3.27331">
        <ele>278.44</ele>
        <time>2021-08-13T18:14:01Z</time>
      </trkpt>
      <trkpt lat="46.35879" lon="3.27234">
        <ele>275.56</ele>
        <time>2021-08-13T18:14:10Z</time>
      </trkpt>
      <trkpt lat="46.35862" lon="3.27188">
        <ele>273.63</ele>
        <time>2021-08-13T18:14:14Z</time>
      </trkpt>
      <trkpt lat="46.35859" lon="3.27176">
        <ele>273.63</ele>
        <time>2021-08-13T18:14:15Z</time>
      </trkpt>
      <trkpt lat="46.35858" lon="3.27165">
        <ele>273.15</ele>
        <time>2021-08-13T18:14:16Z</time>
      </trkpt>
      <trkpt lat="46.35857" lon="3.27153">
        <ele>273.15</ele>
        <time>2021-08-13T18:14:17Z</time>
      </trkpt>
      <trkpt lat="46.35857" lon="3.27141">
        <ele>273.15</ele>
        <time>2021-08-13T18:14:18Z</time>
      </trkpt>
      <trkpt lat="46.35856" lon="3.27055">
        <ele>272.67</ele>
        <time>2021-08-13T18:14:26Z</time>
      </trkpt>
      <trkpt lat="46.35856" lon="3.27011">
        <ele>274.11</ele>
        <time>2021-08-13T18:14:31Z</time>
      </trkpt>
      <trkpt lat="46.35857" lon="3.2696">
        <ele>275.56</ele>
        <time>2021-08-13T18:14:38Z</time>
      </trkpt>
      <trkpt lat="46.35852" lon="3.26905">
        <ele>276.04</ele>
        <time>2021-08-13T18:14:47Z</time>
      </trkpt>
      <trkpt lat="46.35839" lon="3.26856">
        <ele>275.07</ele>
        <time>2021-08-13T18:14:54Z</time>
      </trkpt>
      <trkpt lat="46.3583" lon="3.26827">
        <ele>274.59</ele>
        <time>2021-08-13T18:15:00Z</time>
      </trkpt>
      <trkpt lat="46.3583" lon="3.26828">
        <ele>274.59</ele>
        <time>2021-08-13T18:15:04Z</time>
      </trkpt>
      <trkpt lat="46.3583" lon="3.26829">
        <ele>274.59</ele>
        <time>2021-08-13T18:15:17Z</time>
      </trkpt>
      <trkpt lat="46.3583" lon="3.26829">
        <ele>274.59</ele>
        <time>2021-08-13T18:15:26Z</time>
      </trkpt>
      <trkpt lat="46.35829" lon="3.26827">
        <ele>274.59</ele>
        <time>2021-08-13T18:15:44Z</time>
      </trkpt>
      <trkpt lat="46.35828" lon="3.26826">
        <ele>274.59</ele>
        <time>2021-08-13T18:15:45Z</time>
      </trkpt>
      <trkpt lat="46.35828" lon="3.26823">
        <ele>274.59</ele>
        <time>2021-08-13T18:15:46Z</time>
      </trkpt>
      <trkpt lat="46.35827" lon="3.26819">
        <ele>274.59</ele>
        <time>2021-08-13T18:15:47Z</time>
      </trkpt>
      <trkpt lat="46.35825" lon="3.26815">
        <ele>274.59</ele>
        <time>2021-08-13T18:15:48Z</time>
      </trkpt>
      <trkpt lat="46.35823" lon="3.2681">
        <ele>274.11</ele>
        <time>2021-08-13T18:15:49Z</time>
      </trkpt>
      <trkpt lat="46.35821" lon="3.26805">
        <ele>274.11</ele>
        <time>2021-08-13T18:15:50Z</time>
      </trkpt>
      <trkpt lat="46.35817" lon="3.26794">
        <ele>273.63</ele>
        <time>2021-08-13T18:15:52Z</time>
      </trkpt>
      <trkpt lat="46.35802" lon="3.26757">
        <ele>271.71</ele>
        <time>2021-08-13T18:15:57Z</time>
      </trkpt>
      <trkpt lat="46.35784" lon="3.26714">
        <ele>267.86</ele>
        <time>2021-08-13T18:16:02Z</time>
      </trkpt>
      <trkpt lat="46.35771" lon="3.26681">
        <ele>266.42</ele>
        <time>2021-08-13T18:16:06Z</time>
      </trkpt>
      <trkpt lat="46.35763" lon="3.26656">
        <ele>264.98</ele>
        <time>2021-08-13T18:16:11Z</time>
      </trkpt>
      <trkpt lat="46.35756" lon="3.26644">
        <ele>263.54</ele>
        <time>2021-08-13T18:16:14Z</time>
      </trkpt>
      <trkpt lat="46.35739" lon="3.26636">
        <ele>264.02</ele>
        <time>2021-08-13T18:16:18Z</time>
      </trkpt>
      <trkpt lat="46.35726" lon="3.26627">
        <ele>263.54</ele>
        <time>2021-08-13T18:16:21Z</time>
      </trkpt>
      <trkpt lat="46.35701" lon="3.26604">
        <ele>263.06</ele>
        <time>2021-08-13T18:16:27Z</time>
      </trkpt>
      <trkpt lat="46.35662" lon="3.26562">
        <ele>262.58</ele>
        <time>2021-08-13T18:16:36Z</time>
      </trkpt>
      <trkpt lat="46.35615" lon="3.26511">
        <ele>262.58</ele>
        <time>2021-08-13T18:16:47Z</time>
      </trkpt>
      <trkpt lat="46.35606" lon="3.26503">
        <ele>262.58</ele>
        <time>2021-08-13T18:16:49Z</time>
      </trkpt>
      <trkpt lat="46.35591" lon="3.26486">
        <ele>264.02</ele>
        <time>2021-08-13T18:16:53Z</time>
      </trkpt>
      <trkpt lat="46.35563" lon="3.26453">
        <ele>264.98</ele>
        <time>2021-08-13T18:17:01Z</time>
      </trkpt>
      <trkpt lat="46.35552" lon="3.26442">
        <ele>265.46</ele>
        <time>2021-08-13T18:17:04Z</time>
      </trkpt>
      <trkpt lat="46.35541" lon="3.26431">
        <ele>265.94</ele>
        <time>2021-08-13T18:17:07Z</time>
      </trkpt>
      <trkpt lat="46.35538" lon="3.26428">
        <ele>265.94</ele>
        <time>2021-08-13T18:17:08Z</time>
      </trkpt>
      <trkpt lat="46.35503" lon="3.2639">
        <ele>266.9</ele>
        <time>2021-08-13T18:17:18Z</time>
      </trkpt>
      <trkpt lat="46.35465" lon="3.26347">
        <ele>267.38</ele>
        <time>2021-08-13T18:17:29Z</time>
      </trkpt>
      <trkpt lat="46.35447" lon="3.26332">
        <ele>267.86</ele>
        <time>2021-08-13T18:17:35Z</time>
      </trkpt>
      <trkpt lat="46.35422" lon="3.26309">
        <ele>267.86</ele>
        <time>2021-08-13T18:17:42Z</time>
      </trkpt>
      <trkpt lat="46.35417" lon="3.26306">
        <ele>266.42</ele>
        <time>2021-08-13T18:17:43Z</time>
      </trkpt>
      <trkpt lat="46.35413" lon="3.26304">
        <ele>266.42</ele>
        <time>2021-08-13T18:17:44Z</time>
      </trkpt>
      <trkpt lat="46.35375" lon="3.26273">
        <ele>264.98</ele>
        <time>2021-08-13T18:17:52Z</time>
      </trkpt>
      <trkpt lat="46.35337" lon="3.26242">
        <ele>263.06</ele>
        <time>2021-08-13T18:17:59Z</time>
      </trkpt>
      <trkpt lat="46.3528" lon="3.26199">
        <ele>260.65</ele>
        <time>2021-08-13T18:18:08Z</time>
      </trkpt>
      <trkpt lat="46.35209" lon="3.2614">
        <ele>257.29</ele>
        <time>2021-08-13T18:18:18Z</time>
      </trkpt>
      <trkpt lat="46.35161" lon="3.26079">
        <ele>255.37</ele>
        <time>2021-08-13T18:18:26Z</time>
      </trkpt>
      <trkpt lat="46.35099" lon="3.25998">
        <ele>254.89</ele>
        <time>2021-08-13T18:18:37Z</time>
      </trkpt>
      <trkpt lat="46.35054" lon="3.2594">
        <ele>254.41</ele>
        <time>2021-08-13T18:18:46Z</time>
      </trkpt>
      <trkpt lat="46.35014" lon="3.2589">
        <ele>253.93</ele>
        <time>2021-08-13T18:18:54Z</time>
      </trkpt>
      <trkpt lat="46.34965" lon="3.25827">
        <ele>253.44</ele>
        <time>2021-08-13T18:19:05Z</time>
      </trkpt>
      <trkpt lat="46.34929" lon="3.25782">
        <ele>252.48</ele>
        <time>2021-08-13T18:19:13Z</time>
      </trkpt>
      <trkpt lat="46.34889" lon="3.25724">
        <ele>252</ele>
        <time>2021-08-13T18:19:22Z</time>
      </trkpt>
      <trkpt lat="46.34874" lon="3.25686">
        <ele>251.52</ele>
        <time>2021-08-13T18:19:27Z</time>
      </trkpt>
      <trkpt lat="46.34867" lon="3.25653">
        <ele>251.52</ele>
        <time>2021-08-13T18:19:31Z</time>
      </trkpt>
      <trkpt lat="46.34867" lon="3.25645">
        <ele>251.52</ele>
        <time>2021-08-13T18:19:32Z</time>
      </trkpt>
      <trkpt lat="46.34868" lon="3.25637">
        <ele>251.52</ele>
        <time>2021-08-13T18:19:33Z</time>
      </trkpt>
      <trkpt lat="46.34869" lon="3.25631">
        <ele>251.52</ele>
        <time>2021-08-13T18:19:34Z</time>
      </trkpt>
      <trkpt lat="46.34871" lon="3.25623">
        <ele>252.48</ele>
        <time>2021-08-13T18:19:35Z</time>
      </trkpt>
      <trkpt lat="46.34872" lon="3.25617">
        <ele>252.96</ele>
        <time>2021-08-13T18:19:36Z</time>
      </trkpt>
      <trkpt lat="46.34888" lon="3.25563">
        <ele>253.44</ele>
        <time>2021-08-13T18:19:45Z</time>
      </trkpt>
      <trkpt lat="46.349" lon="3.25503">
        <ele>253.44</ele>
        <time>2021-08-13T18:19:54Z</time>
      </trkpt>
      <trkpt lat="46.34899" lon="3.25451">
        <ele>253.44</ele>
        <time>2021-08-13T18:20:02Z</time>
      </trkpt>
      <trkpt lat="46.34887" lon="3.25424">
        <ele>253.93</ele>
        <time>2021-08-13T18:20:08Z</time>
      </trkpt>
      <trkpt lat="46.34871" lon="3.25411">
        <ele>254.41</ele>
        <time>2021-08-13T18:20:13Z</time>
      </trkpt>
      <trkpt lat="46.34858" lon="3.25387">
        <ele>252.96</ele>
        <time>2021-08-13T18:20:17Z</time>
      </trkpt>
      <trkpt lat="46.34856" lon="3.25381">
        <ele>252.96</ele>
        <time>2021-08-13T18:20:18Z</time>
      </trkpt>
      <trkpt lat="46.34852" lon="3.25369">
        <ele>252.96</ele>
        <time>2021-08-13T18:20:20Z</time>
      </trkpt>
      <trkpt lat="46.34846" lon="3.25357">
        <ele>252.96</ele>
        <time>2021-08-13T18:20:22Z</time>
      </trkpt>
      <trkpt lat="46.34835" lon="3.25338">
        <ele>252.96</ele>
        <time>2021-08-13T18:20:26Z</time>
      </trkpt>
      <trkpt lat="46.34812" lon="3.25318">
        <ele>252.96</ele>
        <time>2021-08-13T18:20:33Z</time>
      </trkpt>
      <trkpt lat="46.34781" lon="3.25302">
        <ele>255.37</ele>
        <time>2021-08-13T18:20:43Z</time>
      </trkpt>
      <trkpt lat="46.34765" lon="3.25305">
        <ele>256.33</ele>
        <time>2021-08-13T18:20:49Z</time>
      </trkpt>
      <trkpt lat="46.34747" lon="3.25312">
        <ele>256.81</ele>
        <time>2021-08-13T18:20:57Z</time>
      </trkpt>
      <trkpt lat="46.34736" lon="3.25315">
        <ele>257.77</ele>
        <time>2021-08-13T18:21:02Z</time>
      </trkpt>
      <trkpt lat="46.34734" lon="3.25316">
        <ele>257.77</ele>
        <time>2021-08-13T18:21:03Z</time>
      </trkpt>
      <trkpt lat="46.34716" lon="3.25318">
        <ele>258.73</ele>
        <time>2021-08-13T18:21:11Z</time>
      </trkpt>
      <trkpt lat="46.34703" lon="3.25316">
        <ele>259.69</ele>
        <time>2021-08-13T18:21:18Z</time>
      </trkpt>
      <trkpt lat="46.3469" lon="3.25314">
        <ele>260.65</ele>
        <time>2021-08-13T18:21:25Z</time>
      </trkpt>
      <trkpt lat="46.34674" lon="3.25314">
        <ele>261.62</ele>
        <time>2021-08-13T18:21:33Z</time>
      </trkpt>
      <trkpt lat="46.34671" lon="3.25316">
        <ele>262.1</ele>
        <time>2021-08-13T18:21:35Z</time>
      </trkpt>
      <trkpt lat="46.34669" lon="3.25315">
        <ele>262.1</ele>
        <time>2021-08-13T18:21:36Z</time>
      </trkpt>
      <trkpt lat="46.34668" lon="3.25312">
        <ele>262.1</ele>
        <time>2021-08-13T18:21:38Z</time>
      </trkpt>
      <trkpt lat="46.34668" lon="3.2531">
        <ele>262.1</ele>
        <time>2021-08-13T18:21:39Z</time>
      </trkpt>
      <trkpt lat="46.34667" lon="3.25309">
        <ele>262.1</ele>
        <time>2021-08-13T18:21:40Z</time>
      </trkpt>
      <trkpt lat="46.34666" lon="3.25307">
        <ele>262.1</ele>
        <time>2021-08-13T18:21:41Z</time>
      </trkpt>
      <trkpt lat="46.34665" lon="3.25305">
        <ele>262.1</ele>
        <time>2021-08-13T18:21:42Z</time>
      </trkpt>
      <trkpt lat="46.34665" lon="3.25303">
        <ele>262.1</ele>
        <time>2021-08-13T18:21:43Z</time>
      </trkpt>
      <trkpt lat="46.34664" lon="3.25301">
        <ele>262.1</ele>
        <time>2021-08-13T18:21:44Z</time>
      </trkpt>
      <trkpt lat="46.34663" lon="3.25299">
        <ele>262.1</ele>
        <time>2021-08-13T18:21:45Z</time>
      </trkpt>
      <trkpt lat="46.34653" lon="3.25288">
        <ele>263.54</ele>
        <time>2021-08-13T18:21:54Z</time>
      </trkpt>
      <trkpt lat="46.34651" lon="3.25286">
        <ele>264.02</ele>
        <time>2021-08-13T18:21:56Z</time>
      </trkpt>
      <trkpt lat="46.34649" lon="3.25285">
        <ele>264.02</ele>
        <time>2021-08-13T18:21:57Z</time>
      </trkpt>
      <trkpt lat="46.34648" lon="3.25284">
        <ele>264.02</ele>
        <time>2021-08-13T18:21:58Z</time>
      </trkpt>
      <trkpt lat="46.34642" lon="3.25279">
        <ele>264.98</ele>
        <time>2021-08-13T18:22:03Z</time>
      </trkpt>
      <trkpt lat="46.34638" lon="3.25272">
        <ele>266.42</ele>
        <time>2021-08-13T18:22:10Z</time>
      </trkpt>
      <trkpt lat="46.34632" lon="3.25265">
        <ele>267.38</ele>
        <time>2021-08-13T18:22:18Z</time>
      </trkpt>
      <trkpt lat="46.34627" lon="3.25254">
        <ele>269.31</ele>
        <time>2021-08-13T18:22:29Z</time>
      </trkpt>
      <trkpt lat="46.34621" lon="3.25246">
        <ele>270.75</ele>
        <time>2021-08-13T18:22:39Z</time>
      </trkpt>
      <trkpt lat="46.34618" lon="3.2524">
        <ele>271.23</ele>
        <time>2021-08-13T18:22:46Z</time>
      </trkpt>
      <trkpt lat="46.34614" lon="3.25234">
        <ele>272.19</ele>
        <time>2021-08-13T18:22:55Z</time>
      </trkpt>
      <trkpt lat="46.34608" lon="3.25225">
        <ele>273.15</ele>
        <time>2021-08-13T18:23:04Z</time>
      </trkpt>
      <trkpt lat="46.34604" lon="3.25219">
        <ele>273.15</ele>
        <time>2021-08-13T18:23:10Z</time>
      </trkpt>
      <trkpt lat="46.34596" lon="3.25209">
        <ele>273.63</ele>
        <time>2021-08-13T18:23:19Z</time>
      </trkpt>
      <trkpt lat="46.3459" lon="3.252">
        <ele>275.07</ele>
        <time>2021-08-13T18:23:28Z</time>
      </trkpt>
      <trkpt lat="46.34585" lon="3.25197">
        <ele>275.56</ele>
        <time>2021-08-13T18:23:34Z</time>
      </trkpt>
      <trkpt lat="46.34584" lon="3.252">
        <ele>275.56</ele>
        <time>2021-08-13T18:23:41Z</time>
      </trkpt>
      <trkpt lat="46.34586" lon="3.25201">
        <ele>275.56</ele>
        <time>2021-08-13T18:23:56Z</time>
      </trkpt>
      <trkpt lat="46.34583" lon="3.25205">
        <ele>275.56</ele>
        <time>2021-08-13T18:24:01Z</time>
      </trkpt>
      <trkpt lat="46.34583" lon="3.25206">
        <ele>275.56</ele>
        <time>2021-08-13T18:24:02Z</time>
      </trkpt>
      <trkpt lat="46.34575" lon="3.25227">
        <ele>276.04</ele>
        <time>2021-08-13T18:24:10Z</time>
      </trkpt>
      <trkpt lat="46.34572" lon="3.25248">
        <ele>276.04</ele>
        <time>2021-08-13T18:24:17Z</time>
      </trkpt>
      <trkpt lat="46.34572" lon="3.2527">
        <ele>275.07</ele>
        <time>2021-08-13T18:24:21Z</time>
      </trkpt>
      <trkpt lat="46.34572" lon="3.25277">
        <ele>274.11</ele>
        <time>2021-08-13T18:24:22Z</time>
      </trkpt>
      <trkpt lat="46.34572" lon="3.25286">
        <ele>274.11</ele>
        <time>2021-08-13T18:24:23Z</time>
      </trkpt>
      <trkpt lat="46.34573" lon="3.25324">
        <ele>272.19</ele>
        <time>2021-08-13T18:24:27Z</time>
      </trkpt>
      <trkpt lat="46.34578" lon="3.25372">
        <ele>272.67</ele>
        <time>2021-08-13T18:24:33Z</time>
      </trkpt>
      <trkpt lat="46.3458" lon="3.254">
        <ele>273.63</ele>
        <time>2021-08-13T18:24:39Z</time>
      </trkpt>
      <trkpt lat="46.3458" lon="3.25403">
        <ele>273.63</ele>
        <time>2021-08-13T18:24:40Z</time>
      </trkpt>
      <trkpt lat="46.3458" lon="3.25405">
        <ele>273.63</ele>
        <time>2021-08-13T18:24:41Z</time>
      </trkpt>
      <trkpt lat="46.34581" lon="3.25406">
        <ele>273.63</ele>
        <time>2021-08-13T18:24:42Z</time>
      </trkpt>
      <trkpt lat="46.3458" lon="3.25399">
        <ele>273.63</ele>
        <time>2021-08-13T18:24:46Z</time>
      </trkpt>
      <trkpt lat="46.34582" lon="3.25396">
        <ele>273.63</ele>
        <time>2021-08-13T18:24:50Z</time>
      </trkpt>
      <trkpt lat="46.34582" lon="3.25401">
        <ele>273.63</ele>
        <time>2021-08-13T18:24:52Z</time>
      </trkpt>
      <trkpt lat="46.34581" lon="3.25405">
        <ele>273.63</ele>
        <time>2021-08-13T18:24:53Z</time>
      </trkpt>
      <trkpt lat="46.34581" lon="3.25408">
        <ele>273.63</ele>
        <time>2021-08-13T18:24:54Z</time>
      </trkpt>
      <trkpt lat="46.34581" lon="3.25412">
        <ele>273.15</ele>
        <time>2021-08-13T18:24:55Z</time>
      </trkpt>
      <trkpt lat="46.34582" lon="3.25416">
        <ele>273.63</ele>
        <time>2021-08-13T18:24:56Z</time>
      </trkpt>
      <trkpt lat="46.34583" lon="3.25418">
        <ele>273.63</ele>
        <time>2021-08-13T18:24:57Z</time>
      </trkpt>
      <trkpt lat="46.34585" lon="3.2542">
        <ele>273.63</ele>
        <time>2021-08-13T18:24:58Z</time>
      </trkpt>
      <trkpt lat="46.34586" lon="3.25422">
        <ele>273.63</ele>
        <time>2021-08-13T18:24:59Z</time>
      </trkpt>
      <trkpt lat="46.3459" lon="3.25434">
        <ele>273.63</ele>
        <time>2021-08-13T18:25:04Z</time>
      </trkpt>
      <trkpt lat="46.34589" lon="3.25437">
        <ele>273.63</ele>
        <time>2021-08-13T18:25:05Z</time>
      </trkpt>
      <trkpt lat="46.34588" lon="3.25439">
        <ele>273.63</ele>
        <time>2021-08-13T18:25:06Z</time>
      </trkpt>
      <trkpt lat="46.34587" lon="3.25442">
        <ele>273.63</ele>
        <time>2021-08-13T18:25:07Z</time>
      </trkpt>
      <trkpt lat="46.34587" lon="3.25445">
        <ele>273.63</ele>
        <time>2021-08-13T18:25:08Z</time>
      </trkpt>
      <trkpt lat="46.34588" lon="3.25447">
        <ele>273.63</ele>
        <time>2021-08-13T18:25:09Z</time>
      </trkpt>
      <trkpt lat="46.34589" lon="3.25446">
        <ele>273.15</ele>
        <time>2021-08-13T18:25:10Z</time>
      </trkpt>
      <trkpt lat="46.34587" lon="3.25436">
        <ele>273.63</ele>
        <time>2021-08-13T18:25:13Z</time>
      </trkpt>
      <trkpt lat="46.34586" lon="3.25434">
        <ele>273.15</ele>
        <time>2021-08-13T18:25:14Z</time>
      </trkpt>
      <trkpt lat="46.34577" lon="3.25406">
        <ele>273.15</ele>
        <time>2021-08-13T18:25:22Z</time>
      </trkpt>
      <trkpt lat="46.34576" lon="3.25378">
        <ele>273.15</ele>
        <time>2021-08-13T18:25:28Z</time>
      </trkpt>
      <trkpt lat="46.34572" lon="3.25337">
        <ele>271.71</ele>
        <time>2021-08-13T18:25:35Z</time>
      </trkpt>
      <trkpt lat="46.34579" lon="3.25317">
        <ele>271.23</ele>
        <time>2021-08-13T18:25:40Z</time>
      </trkpt>
      <trkpt lat="46.34582" lon="3.25314">
        <ele>271.23</ele>
        <time>2021-08-13T18:25:45Z</time>
      </trkpt>
      <trkpt lat="46.34582" lon="3.25316">
        <ele>271.23</ele>
        <time>2021-08-13T18:26:01Z</time>
      </trkpt>
      <trkpt lat="46.34583" lon="3.25314">
        <ele>271.23</ele>
        <time>2021-08-13T18:26:21Z</time>
      </trkpt>
      <trkpt lat="46.34582" lon="3.2531">
        <ele>271.23</ele>
        <time>2021-08-13T18:26:37Z</time>
      </trkpt>
      <trkpt lat="46.34582" lon="3.2531">
        <ele>271.23</ele>
        <time>2021-08-13T18:26:51Z</time>
      </trkpt>
      <trkpt lat="46.34582" lon="3.25312">
        <ele>271.23</ele>
        <time>2021-08-13T18:27:04Z</time>
      </trkpt>
      <trkpt lat="46.34582" lon="3.25312">
        <ele>271.23</ele>
        <time>2021-08-13T18:27:19Z</time>
      </trkpt>
      <trkpt lat="46.34583" lon="3.2531">
        <ele>271.23</ele>
        <time>2021-08-13T18:27:34Z</time>
      </trkpt>
      <trkpt lat="46.34582" lon="3.25312">
        <ele>271.23</ele>
        <time>2021-08-13T18:27:55Z</time>
      </trkpt>
      <trkpt lat="46.34583" lon="3.25311">
        <ele>271.23</ele>
        <time>2021-08-13T18:28:12Z</time>
      </trkpt>
      <trkpt lat="46.34583" lon="3.25313">
        <ele>271.23</ele>
        <time>2021-08-13T18:28:31Z</time>
      </trkpt>
      <trkpt lat="46.34583" lon="3.25313">
        <ele>271.23</ele>
        <time>2021-08-13T18:28:42Z</time>
      </trkpt>
      <trkpt lat="46.3458" lon="3.25312">
        <ele>271.23</ele>
        <time>2021-08-13T18:29:03Z</time>
      </trkpt>
      <trkpt lat="46.3458" lon="3.25308">
        <ele>271.71</ele>
        <time>2021-08-13T18:29:19Z</time>
      </trkpt>
      <trkpt lat="46.3458" lon="3.25305">
        <ele>271.71</ele>
        <time>2021-08-13T18:29:35Z</time>
      </trkpt>
      <trkpt lat="46.3458" lon="3.25306">
        <ele>271.71</ele>
        <time>2021-08-13T18:29:55Z</time>
      </trkpt>
      <trkpt lat="46.34582" lon="3.25307">
        <ele>271.71</ele>
        <time>2021-08-13T18:30:11Z</time>
      </trkpt>
      <trkpt lat="46.34581" lon="3.2531">
        <ele>271.71</ele>
        <time>2021-08-13T18:30:16Z</time>
      </trkpt>
      <trkpt lat="46.34581" lon="3.25309">
        <ele>271.71</ele>
        <time>2021-08-13T18:30:23Z</time>
      </trkpt>
      <trkpt lat="46.3458" lon="3.25304">
        <ele>271.71</ele>
        <time>2021-08-13T18:30:35Z</time>
      </trkpt>
      <trkpt lat="46.34578" lon="3.25302">
        <ele>272.19</ele>
        <time>2021-08-13T18:30:46Z</time>
      </trkpt>
      <trkpt lat="46.34578" lon="3.25302">
        <ele>272.19</ele>
        <time>2021-08-13T18:30:58Z</time>
      </trkpt>
      <trkpt lat="46.34578" lon="3.253">
        <ele>272.19</ele>
        <time>2021-08-13T18:31:14Z</time>
      </trkpt>
      <trkpt lat="46.34575" lon="3.25301">
        <ele>272.19</ele>
        <time>2021-08-13T18:31:29Z</time>
      </trkpt>
      <trkpt lat="46.34576" lon="3.25306">
        <ele>272.67</ele>
        <time>2021-08-13T18:31:44Z</time>
      </trkpt>
      <trkpt lat="46.34577" lon="3.25307">
        <ele>272.67</ele>
        <time>2021-08-13T18:32:01Z</time>
      </trkpt>
      <trkpt lat="46.3458" lon="3.25305">
        <ele>272.67</ele>
        <time>2021-08-13T18:32:23Z</time>
      </trkpt>
      <trkpt lat="46.34579" lon="3.25304">
        <ele>272.67</ele>
        <time>2021-08-13T18:32:41Z</time>
      </trkpt>
      <trkpt lat="46.34577" lon="3.25303">
        <ele>273.15</ele>
        <time>2021-08-13T18:33:09Z</time>
      </trkpt>
      <trkpt lat="46.34581" lon="3.25302">
        <ele>273.15</ele>
        <time>2021-08-13T18:33:28Z</time>
      </trkpt>
      <trkpt lat="46.34581" lon="3.25305">
        <ele>273.15</ele>
        <time>2021-08-13T18:33:48Z</time>
      </trkpt>
      <trkpt lat="46.34579" lon="3.25309">
        <ele>273.63</ele>
        <time>2021-08-13T18:34:12Z</time>
      </trkpt>
      <trkpt lat="46.3458" lon="3.25308">
        <ele>273.63</ele>
        <time>2021-08-13T18:34:34Z</time>
      </trkpt>
      <trkpt lat="46.3458" lon="3.25306">
        <ele>273.63</ele>
        <time>2021-08-13T18:34:55Z</time>
      </trkpt>
      <trkpt lat="46.34579" lon="3.25304">
        <ele>273.63</ele>
        <time>2021-08-13T18:35:09Z</time>
      </trkpt>
      <trkpt lat="46.3458" lon="3.25305">
        <ele>273.63</ele>
        <time>2021-08-13T18:35:17Z</time>
      </trkpt>
      <trkpt lat="46.34579" lon="3.25305">
        <ele>274.11</ele>
        <time>2021-08-13T18:35:33Z</time>
      </trkpt>
      <trkpt lat="46.3458" lon="3.25305">
        <ele>274.11</ele>
        <time>2021-08-13T18:35:47Z</time>
      </trkpt>
      <trkpt lat="46.34581" lon="3.25306">
        <ele>274.11</ele>
        <time>2021-08-13T18:36:10Z</time>
      </trkpt>
      <trkpt lat="46.34582" lon="3.25306">
        <ele>274.11</ele>
        <time>2021-08-13T18:36:19Z</time>
      </trkpt>
      <trkpt lat="46.34583" lon="3.25304">
        <ele>274.11</ele>
        <time>2021-08-13T18:36:38Z</time>
      </trkpt>
      <trkpt lat="46.34583" lon="3.25304">
        <ele>274.11</ele>
        <time>2021-08-13T18:36:53Z</time>
      </trkpt>
      <trkpt lat="46.34582" lon="3.25304">
        <ele>274.11</ele>
        <time>2021-08-13T18:37:08Z</time>
      </trkpt>
      <trkpt lat="46.34579" lon="3.25306">
        <ele>274.11</ele>
        <time>2021-08-13T18:37:24Z</time>
      </trkpt>
      <trkpt lat="46.34583" lon="3.25306">
        <ele>274.11</ele>
        <time>2021-08-13T18:37:42Z</time>
      </trkpt>
      <trkpt lat="46.34585" lon="3.25307">
        <ele>274.11</ele>
        <time>2021-08-13T18:37:57Z</time>
      </trkpt>
      <trkpt lat="46.34584" lon="3.25307">
        <ele>274.59</ele>
        <time>2021-08-13T18:38:11Z</time>
      </trkpt>
      <trkpt lat="46.34583" lon="3.25306">
        <ele>274.59</ele>
        <time>2021-08-13T18:38:22Z</time>
      </trkpt>
      <trkpt lat="46.34582" lon="3.25305">
        <ele>274.59</ele>
        <time>2021-08-13T18:38:41Z</time>
      </trkpt>
      <trkpt lat="46.34581" lon="3.25307">
        <ele>274.59</ele>
        <time>2021-08-13T18:38:57Z</time>
      </trkpt>
      <trkpt lat="46.34581" lon="3.25306">
        <ele>274.59</ele>
        <time>2021-08-13T18:39:14Z</time>
      </trkpt>
      <trkpt lat="46.34582" lon="3.25303">
        <ele>274.59</ele>
        <time>2021-08-13T18:39:34Z</time>
      </trkpt>
      <trkpt lat="46.34582" lon="3.25299">
        <ele>274.59</ele>
        <time>2021-08-13T18:39:54Z</time>
      </trkpt>
      <trkpt lat="46.34582" lon="3.25298">
        <ele>275.07</ele>
        <time>2021-08-13T18:40:11Z</time>
      </trkpt>
      <trkpt lat="46.34582" lon="3.253">
        <ele>275.07</ele>
        <time>2021-08-13T18:40:25Z</time>
      </trkpt>
      <trkpt lat="46.34579" lon="3.25302">
        <ele>275.07</ele>
        <time>2021-08-13T18:40:47Z</time>
      </trkpt>
      <trkpt lat="46.34579" lon="3.25301">
        <ele>275.07</ele>
        <time>2021-08-13T18:41:00Z</time>
      </trkpt>
      <trkpt lat="46.34579" lon="3.25301">
        <ele>275.07</ele>
        <time>2021-08-13T18:41:11Z</time>
      </trkpt>
      <trkpt lat="46.3458" lon="3.25303">
        <ele>275.07</ele>
        <time>2021-08-13T18:41:25Z</time>
      </trkpt>
      <trkpt lat="46.34581" lon="3.25304">
        <ele>275.56</ele>
        <time>2021-08-13T18:41:41Z</time>
      </trkpt>
      <trkpt lat="46.34583" lon="3.25303">
        <ele>275.56</ele>
        <time>2021-08-13T18:41:53Z</time>
      </trkpt>
      <trkpt lat="46.34582" lon="3.25302">
        <ele>275.56</ele>
        <time>2021-08-13T18:42:14Z</time>
      </trkpt>
      <trkpt lat="46.34581" lon="3.25304">
        <ele>275.56</ele>
        <time>2021-08-13T18:42:30Z</time>
      </trkpt>
      <trkpt lat="46.34582" lon="3.25301">
        <ele>275.56</ele>
        <time>2021-08-13T18:42:46Z</time>
      </trkpt>
      <trkpt lat="46.34579" lon="3.25302">
        <ele>275.56</ele>
        <time>2021-08-13T18:43:03Z</time>
      </trkpt>
      <trkpt lat="46.34579" lon="3.25302">
        <ele>275.56</ele>
        <time>2021-08-13T18:43:17Z</time>
      </trkpt>
      <trkpt lat="46.34578" lon="3.25305">
        <ele>275.56</ele>
        <time>2021-08-13T18:43:39Z</time>
      </trkpt>
      <trkpt lat="46.34579" lon="3.25303">
        <ele>275.56</ele>
        <time>2021-08-13T18:43:58Z</time>
      </trkpt>
      <trkpt lat="46.3458" lon="3.25303">
        <ele>276.04</ele>
        <time>2021-08-13T18:44:15Z</time>
      </trkpt>
      <trkpt lat="46.34579" lon="3.25304">
        <ele>276.04</ele>
        <time>2021-08-13T18:44:38Z</time>
      </trkpt>
      <trkpt lat="46.34578" lon="3.25304">
        <ele>276.04</ele>
        <time>2021-08-13T18:44:53Z</time>
      </trkpt>
      <trkpt lat="46.34578" lon="3.25301">
        <ele>276.04</ele>
        <time>2021-08-13T18:45:12Z</time>
      </trkpt>
      <trkpt lat="46.34578" lon="3.25306">
        <ele>276.04</ele>
        <time>2021-08-13T18:45:38Z</time>
      </trkpt>
      <trkpt lat="46.34578" lon="3.25304">
        <ele>276.04</ele>
        <time>2021-08-13T18:45:50Z</time>
      </trkpt>
      <trkpt lat="46.3458" lon="3.25302">
        <ele>275.56</ele>
        <time>2021-08-13T18:46:05Z</time>
      </trkpt>
      <trkpt lat="46.34582" lon="3.253">
        <ele>276.04</ele>
        <time>2021-08-13T18:46:20Z</time>
      </trkpt>
      <trkpt lat="46.34582" lon="3.25305">
        <ele>276.04</ele>
        <time>2021-08-13T18:46:31Z</time>
      </trkpt>
      <trkpt lat="46.34583" lon="3.25309">
        <ele>276.04</ele>
        <time>2021-08-13T18:46:45Z</time>
      </trkpt>
      <trkpt lat="46.34583" lon="3.2531">
        <ele>276.04</ele>
        <time>2021-08-13T18:46:58Z</time>
      </trkpt>
      <trkpt lat="46.34581" lon="3.25309">
        <ele>276.04</ele>
        <time>2021-08-13T18:47:10Z</time>
      </trkpt>
      <trkpt lat="46.34579" lon="3.25307">
        <ele>276.04</ele>
        <time>2021-08-13T18:47:28Z</time>
      </trkpt>
      <trkpt lat="46.34578" lon="3.25304">
        <ele>276.04</ele>
        <time>2021-08-13T18:47:44Z</time>
      </trkpt>
      <trkpt lat="46.34579" lon="3.25303">
        <ele>276.04</ele>
        <time>2021-08-13T18:47:57Z</time>
      </trkpt>
      <trkpt lat="46.34579" lon="3.25304">
        <ele>276.04</ele>
        <time>2021-08-13T18:48:16Z</time>
      </trkpt>
      <trkpt lat="46.3458" lon="3.25306">
        <ele>276.04</ele>
        <time>2021-08-13T18:48:32Z</time>
      </trkpt>
      <trkpt lat="46.34581" lon="3.25311">
        <ele>276.04</ele>
        <time>2021-08-13T18:48:38Z</time>
      </trkpt>
      <trkpt lat="46.34582" lon="3.25313">
        <ele>276.04</ele>
        <time>2021-08-13T18:48:46Z</time>
      </trkpt>
      <trkpt lat="46.34585" lon="3.25316">
        <ele>276.04</ele>
        <time>2021-08-13T18:49:13Z</time>
      </trkpt>
      <trkpt lat="46.34584" lon="3.25316">
        <ele>276.04</ele>
        <time>2021-08-13T18:49:29Z</time>
      </trkpt>
      <trkpt lat="46.34581" lon="3.25317">
        <ele>276.04</ele>
        <time>2021-08-13T18:49:47Z</time>
      </trkpt>
      <trkpt lat="46.34581" lon="3.25316">
        <ele>276.04</ele>
        <time>2021-08-13T18:49:57Z</time>
      </trkpt>
      <trkpt lat="46.34581" lon="3.25316">
        <ele>276.04</ele>
        <time>2021-08-13T18:50:11Z</time>
      </trkpt>
      <trkpt lat="46.34581" lon="3.25315">
        <ele>276.04</ele>
        <time>2021-08-13T18:50:30Z</time>
      </trkpt>
      <trkpt lat="46.3458" lon="3.25315">
        <ele>276.04</ele>
        <time>2021-08-13T18:50:55Z</time>
      </trkpt>
      <trkpt lat="46.34579" lon="3.25315">
        <ele>276.04</ele>
        <time>2021-08-13T18:51:07Z</time>
      </trkpt>
      <trkpt lat="46.34578" lon="3.25315">
        <ele>276.04</ele>
        <time>2021-08-13T18:51:08Z</time>
      </trkpt>
      <trkpt lat="46.34572" lon="3.25319">
        <ele>275.56</ele>
        <time>2021-08-13T18:51:13Z</time>
      </trkpt>
      <trkpt lat="46.34571" lon="3.25321">
        <ele>275.56</ele>
        <time>2021-08-13T18:51:14Z</time>
      </trkpt>
      <trkpt lat="46.34569" lon="3.25327">
        <ele>275.56</ele>
        <time>2021-08-13T18:51:17Z</time>
      </trkpt>
      <trkpt lat="46.34574" lon="3.25347">
        <ele>275.56</ele>
        <time>2021-08-13T18:51:25Z</time>
      </trkpt>
      <trkpt lat="46.34576" lon="3.25361">
        <ele>276.52</ele>
        <time>2021-08-13T18:51:29Z</time>
      </trkpt>
      <trkpt lat="46.34578" lon="3.25386">
        <ele>277</ele>
        <time>2021-08-13T18:51:36Z</time>
      </trkpt>
      <trkpt lat="46.34578" lon="3.25418">
        <ele>277</ele>
        <time>2021-08-13T18:51:44Z</time>
      </trkpt>
      <trkpt lat="46.34575" lon="3.25457">
        <ele>277</ele>
        <time>2021-08-13T18:51:51Z</time>
      </trkpt>
      <trkpt lat="46.34568" lon="3.25512">
        <ele>275.56</ele>
        <time>2021-08-13T18:52:00Z</time>
      </trkpt>
      <trkpt lat="46.34567" lon="3.25518">
        <ele>275.56</ele>
        <time>2021-08-13T18:52:01Z</time>
      </trkpt>
      <trkpt lat="46.34556" lon="3.2556">
        <ele>275.56</ele>
        <time>2021-08-13T18:52:08Z</time>
      </trkpt>
      <trkpt lat="46.34554" lon="3.25565">
        <ele>275.56</ele>
        <time>2021-08-13T18:52:09Z</time>
      </trkpt>
      <trkpt lat="46.34552" lon="3.2557">
        <ele>275.56</ele>
        <time>2021-08-13T18:52:10Z</time>
      </trkpt>
      <trkpt lat="46.34549" lon="3.25575">
        <ele>275.56</ele>
        <time>2021-08-13T18:52:11Z</time>
      </trkpt>
      <trkpt lat="46.34546" lon="3.25579">
        <ele>275.56</ele>
        <time>2021-08-13T18:52:12Z</time>
      </trkpt>
      <trkpt lat="46.34543" lon="3.25582">
        <ele>275.56</ele>
        <time>2021-08-13T18:52:13Z</time>
      </trkpt>
      <trkpt lat="46.34528" lon="3.25605">
        <ele>276.52</ele>
        <time>2021-08-13T18:52:20Z</time>
      </trkpt>
      <trkpt lat="46.34526" lon="3.25608">
        <ele>276.52</ele>
        <time>2021-08-13T18:52:21Z</time>
      </trkpt>
      <trkpt lat="46.34504" lon="3.2564">
        <ele>277.48</ele>
        <time>2021-08-13T18:52:31Z</time>
      </trkpt>
      <trkpt lat="46.34482" lon="3.25674">
        <ele>277.48</ele>
        <time>2021-08-13T18:52:40Z</time>
      </trkpt>
      <trkpt lat="46.3445" lon="3.25712">
        <ele>277.96</ele>
        <time>2021-08-13T18:52:50Z</time>
      </trkpt>
      <trkpt lat="46.34422" lon="3.25736">
        <ele>278.92</ele>
        <time>2021-08-13T18:52:59Z</time>
      </trkpt>
      <trkpt lat="46.34402" lon="3.25757">
        <ele>279.88</ele>
        <time>2021-08-13T18:53:08Z</time>
      </trkpt>
      <trkpt lat="46.34395" lon="3.25777">
        <ele>279.88</ele>
        <time>2021-08-13T18:53:14Z</time>
      </trkpt>
      <trkpt lat="46.34397" lon="3.25824">
        <ele>279.88</ele>
        <time>2021-08-13T18:53:24Z</time>
      </trkpt>
      <trkpt lat="46.34402" lon="3.2587">
        <ele>277.96</ele>
        <time>2021-08-13T18:53:32Z</time>
      </trkpt>
      <trkpt lat="46.34407" lon="3.25927">
        <ele>276.52</ele>
        <time>2021-08-13T18:53:40Z</time>
      </trkpt>
      <trkpt lat="46.34412" lon="3.25987">
        <ele>276.04</ele>
        <time>2021-08-13T18:53:48Z</time>
      </trkpt>
      <trkpt lat="46.34416" lon="3.26041">
        <ele>275.56</ele>
        <time>2021-08-13T18:53:56Z</time>
      </trkpt>
      <trkpt lat="46.34416" lon="3.2606">
        <ele>275.56</ele>
        <time>2021-08-13T18:53:59Z</time>
      </trkpt>
      <trkpt lat="46.34414" lon="3.26066">
        <ele>275.07</ele>
        <time>2021-08-13T18:54:00Z</time>
      </trkpt>
      <trkpt lat="46.34413" lon="3.26072">
        <ele>275.07</ele>
        <time>2021-08-13T18:54:01Z</time>
      </trkpt>
      <trkpt lat="46.3441" lon="3.26077">
        <ele>275.07</ele>
        <time>2021-08-13T18:54:02Z</time>
      </trkpt>
      <trkpt lat="46.34408" lon="3.26083">
        <ele>275.07</ele>
        <time>2021-08-13T18:54:03Z</time>
      </trkpt>
      <trkpt lat="46.34405" lon="3.26087">
        <ele>275.07</ele>
        <time>2021-08-13T18:54:04Z</time>
      </trkpt>
      <trkpt lat="46.34402" lon="3.26093">
        <ele>275.07</ele>
        <time>2021-08-13T18:54:05Z</time>
      </trkpt>
      <trkpt lat="46.34372" lon="3.26138">
        <ele>271.23</ele>
        <time>2021-08-13T18:54:13Z</time>
      </trkpt>
      <trkpt lat="46.34354" lon="3.26167">
        <ele>267.86</ele>
        <time>2021-08-13T18:54:17Z</time>
      </trkpt>
      <trkpt lat="46.3434" lon="3.26194">
        <ele>264.5</ele>
        <time>2021-08-13T18:54:20Z</time>
      </trkpt>
      <trkpt lat="46.34326" lon="3.26224">
        <ele>261.14</ele>
        <time>2021-08-13T18:54:23Z</time>
      </trkpt>
      <trkpt lat="46.34313" lon="3.26253">
        <ele>257.77</ele>
        <time>2021-08-13T18:54:26Z</time>
      </trkpt>
      <trkpt lat="46.34306" lon="3.26271">
        <ele>256.33</ele>
        <time>2021-08-13T18:54:28Z</time>
      </trkpt>
      <trkpt lat="46.34304" lon="3.26281">
        <ele>255.37</ele>
        <time>2021-08-13T18:54:29Z</time>
      </trkpt>
      <trkpt lat="46.34303" lon="3.2629">
        <ele>255.85</ele>
        <time>2021-08-13T18:54:30Z</time>
      </trkpt>
      <trkpt lat="46.34303" lon="3.26301">
        <ele>254.89</ele>
        <time>2021-08-13T18:54:31Z</time>
      </trkpt>
      <trkpt lat="46.34304" lon="3.26309">
        <ele>254.89</ele>
        <time>2021-08-13T18:54:32Z</time>
      </trkpt>
      <trkpt lat="46.34306" lon="3.26318">
        <ele>255.37</ele>
        <time>2021-08-13T18:54:33Z</time>
      </trkpt>
      <trkpt lat="46.34309" lon="3.26326">
        <ele>255.37</ele>
        <time>2021-08-13T18:54:34Z</time>
      </trkpt>
      <trkpt lat="46.34319" lon="3.26368">
        <ele>254.89</ele>
        <time>2021-08-13T18:54:39Z</time>
      </trkpt>
      <trkpt lat="46.3432" lon="3.26376">
        <ele>254.89</ele>
        <time>2021-08-13T18:54:40Z</time>
      </trkpt>
      <trkpt lat="46.34319" lon="3.26382">
        <ele>254.89</ele>
        <time>2021-08-13T18:54:41Z</time>
      </trkpt>
      <trkpt lat="46.34317" lon="3.26387">
        <ele>254.89</ele>
        <time>2021-08-13T18:54:42Z</time>
      </trkpt>
      <trkpt lat="46.34315" lon="3.2639">
        <ele>254.41</ele>
        <time>2021-08-13T18:54:43Z</time>
      </trkpt>
      <trkpt lat="46.34313" lon="3.26392">
        <ele>254.41</ele>
        <time>2021-08-13T18:54:44Z</time>
      </trkpt>
      <trkpt lat="46.34311" lon="3.26394">
        <ele>254.41</ele>
        <time>2021-08-13T18:54:45Z</time>
      </trkpt>
      <trkpt lat="46.34295" lon="3.26406">
        <ele>254.41</ele>
        <time>2021-08-13T18:54:52Z</time>
      </trkpt>
      <trkpt lat="46.34291" lon="3.26407">
        <ele>255.85</ele>
        <time>2021-08-13T18:54:54Z</time>
      </trkpt>
      <trkpt lat="46.34289" lon="3.26408">
        <ele>255.85</ele>
        <time>2021-08-13T18:54:55Z</time>
      </trkpt>
      <trkpt lat="46.34288" lon="3.26411">
        <ele>255.85</ele>
        <time>2021-08-13T18:54:56Z</time>
      </trkpt>
      <trkpt lat="46.34288" lon="3.26413">
        <ele>255.85</ele>
        <time>2021-08-13T18:54:57Z</time>
      </trkpt>
      <trkpt lat="46.34287" lon="3.26416">
        <ele>255.85</ele>
        <time>2021-08-13T18:54:58Z</time>
      </trkpt>
      <trkpt lat="46.34285" lon="3.26418">
        <ele>255.85</ele>
        <time>2021-08-13T18:54:59Z</time>
      </trkpt>
      <trkpt lat="46.34283" lon="3.26421">
        <ele>255.85</ele>
        <time>2021-08-13T18:55:00Z</time>
      </trkpt>
      <trkpt lat="46.34272" lon="3.26445">
        <ele>256.81</ele>
        <time>2021-08-13T18:55:07Z</time>
      </trkpt>
      <trkpt lat="46.34256" lon="3.26469">
        <ele>257.77</ele>
        <time>2021-08-13T18:55:16Z</time>
      </trkpt>
      <trkpt lat="46.34244" lon="3.26485">
        <ele>259.21</ele>
        <time>2021-08-13T18:55:24Z</time>
      </trkpt>
      <trkpt lat="46.3423" lon="3.26489">
        <ele>260.17</ele>
        <time>2021-08-13T18:55:33Z</time>
      </trkpt>
      <trkpt lat="46.34219" lon="3.26492">
        <ele>261.14</ele>
        <time>2021-08-13T18:55:40Z</time>
      </trkpt>
      <trkpt lat="46.34209" lon="3.265">
        <ele>262.1</ele>
        <time>2021-08-13T18:55:48Z</time>
      </trkpt>
      <trkpt lat="46.34208" lon="3.26502">
        <ele>262.58</ele>
        <time>2021-08-13T18:55:49Z</time>
      </trkpt>
      <trkpt lat="46.34208" lon="3.26504">
        <ele>262.58</ele>
        <time>2021-08-13T18:55:50Z</time>
      </trkpt>
      <trkpt lat="46.34208" lon="3.26521">
        <ele>263.54</ele>
        <time>2021-08-13T18:55:58Z</time>
      </trkpt>
      <trkpt lat="46.34211" lon="3.2655">
        <ele>264.02</ele>
        <time>2021-08-13T18:56:10Z</time>
      </trkpt>
      <trkpt lat="46.34213" lon="3.26571">
        <ele>264.98</ele>
        <time>2021-08-13T18:56:18Z</time>
      </trkpt>
      <trkpt lat="46.34214" lon="3.26591">
        <ele>265.46</ele>
        <time>2021-08-13T18:56:26Z</time>
      </trkpt>
      <trkpt lat="46.34216" lon="3.26607">
        <ele>266.42</ele>
        <time>2021-08-13T18:56:33Z</time>
      </trkpt>
      <trkpt lat="46.34218" lon="3.26628">
        <ele>266.9</ele>
        <time>2021-08-13T18:56:41Z</time>
      </trkpt>
      <trkpt lat="46.34219" lon="3.26653">
        <ele>267.86</ele>
        <time>2021-08-13T18:56:51Z</time>
      </trkpt>
      <trkpt lat="46.34217" lon="3.26676">
        <ele>268.83</ele>
        <time>2021-08-13T18:57:00Z</time>
      </trkpt>
      <trkpt lat="46.34215" lon="3.267">
        <ele>269.31</ele>
        <time>2021-08-13T18:57:09Z</time>
      </trkpt>
      <trkpt lat="46.34214" lon="3.2672">
        <ele>270.75</ele>
        <time>2021-08-13T18:57:17Z</time>
      </trkpt>
      <trkpt lat="46.34211" lon="3.26735">
        <ele>270.75</ele>
        <time>2021-08-13T18:57:24Z</time>
      </trkpt>
      <trkpt lat="46.34206" lon="3.26756">
        <ele>271.71</ele>
        <time>2021-08-13T18:57:34Z</time>
      </trkpt>
      <trkpt lat="46.34198" lon="3.26785">
        <ele>272.67</ele>
        <time>2021-08-13T18:57:46Z</time>
      </trkpt>
      <trkpt lat="46.34195" lon="3.26803">
        <ele>273.63</ele>
        <time>2021-08-13T18:57:55Z</time>
      </trkpt>
      <trkpt lat="46.34194" lon="3.26816">
        <ele>274.59</ele>
        <time>2021-08-13T18:58:04Z</time>
      </trkpt>
      <trkpt lat="46.34192" lon="3.26826">
        <ele>275.56</ele>
        <time>2021-08-13T18:58:12Z</time>
      </trkpt>
      <trkpt lat="46.3419" lon="3.26836">
        <ele>276.04</ele>
        <time>2021-08-13T18:58:20Z</time>
      </trkpt>
      <trkpt lat="46.34187" lon="3.26847">
        <ele>277.48</ele>
        <time>2021-08-13T18:58:29Z</time>
      </trkpt>
      <trkpt lat="46.34186" lon="3.26858">
        <ele>278.44</ele>
        <time>2021-08-13T18:58:38Z</time>
      </trkpt>
      <trkpt lat="46.34183" lon="3.26868">
        <ele>279.88</ele>
        <time>2021-08-13T18:58:47Z</time>
      </trkpt>
      <trkpt lat="46.34181" lon="3.26877">
        <ele>280.84</ele>
        <time>2021-08-13T18:58:56Z</time>
      </trkpt>
      <trkpt lat="46.3418" lon="3.26888">
        <ele>281.8</ele>
        <time>2021-08-13T18:59:06Z</time>
      </trkpt>
      <trkpt lat="46.34177" lon="3.26901">
        <ele>282.77</ele>
        <time>2021-08-13T18:59:17Z</time>
      </trkpt>
      <trkpt lat="46.34175" lon="3.26912">
        <ele>284.69</ele>
        <time>2021-08-13T18:59:26Z</time>
      </trkpt>
      <trkpt lat="46.34173" lon="3.26922">
        <ele>285.65</ele>
        <time>2021-08-13T18:59:36Z</time>
      </trkpt>
      <trkpt lat="46.34168" lon="3.26933">
        <ele>286.61</ele>
        <time>2021-08-13T18:59:46Z</time>
      </trkpt>
      <trkpt lat="46.34161" lon="3.26943">
        <ele>288.53</ele>
        <time>2021-08-13T18:59:57Z</time>
      </trkpt>
      <trkpt lat="46.34155" lon="3.26952">
        <ele>289.49</ele>
        <time>2021-08-13T19:00:07Z</time>
      </trkpt>
      <trkpt lat="46.34149" lon="3.2696">
        <ele>290.46</ele>
        <time>2021-08-13T19:00:15Z</time>
      </trkpt>
      <trkpt lat="46.34143" lon="3.2697">
        <ele>291.42</ele>
        <time>2021-08-13T19:00:23Z</time>
      </trkpt>
      <trkpt lat="46.34135" lon="3.26982">
        <ele>292.86</ele>
        <time>2021-08-13T19:00:33Z</time>
      </trkpt>
      <trkpt lat="46.34126" lon="3.26991">
        <ele>293.82</ele>
        <time>2021-08-13T19:00:43Z</time>
      </trkpt>
      <trkpt lat="46.34118" lon="3.26997">
        <ele>294.3</ele>
        <time>2021-08-13T19:00:52Z</time>
      </trkpt>
      <trkpt lat="46.34113" lon="3.27">
        <ele>294.78</ele>
        <time>2021-08-13T19:01:00Z</time>
      </trkpt>
      <trkpt lat="46.34105" lon="3.27005">
        <ele>294.78</ele>
        <time>2021-08-13T19:01:06Z</time>
      </trkpt>
      <trkpt lat="46.34098" lon="3.26998">
        <ele>294.78</ele>
        <time>2021-08-13T19:01:10Z</time>
      </trkpt>
      <trkpt lat="46.34096" lon="3.26995">
        <ele>294.78</ele>
        <time>2021-08-13T19:01:11Z</time>
      </trkpt>
      <trkpt lat="46.34084" lon="3.26965">
        <ele>295.26</ele>
        <time>2021-08-13T19:01:20Z</time>
      </trkpt>
      <trkpt lat="46.34072" lon="3.26932">
        <ele>295.74</ele>
        <time>2021-08-13T19:01:29Z</time>
      </trkpt>
      <trkpt lat="46.3406" lon="3.26893">
        <ele>296.7</ele>
        <time>2021-08-13T19:01:39Z</time>
      </trkpt>
      <trkpt lat="46.34051" lon="3.26866">
        <ele>296.7</ele>
        <time>2021-08-13T19:01:46Z</time>
      </trkpt>
      <trkpt lat="46.34039" lon="3.2684">
        <ele>298.15</ele>
        <time>2021-08-13T19:01:54Z</time>
      </trkpt>
      <trkpt lat="46.34021" lon="3.26819">
        <ele>299.59</ele>
        <time>2021-08-13T19:02:03Z</time>
      </trkpt>
      <trkpt lat="46.34001" lon="3.26799">
        <ele>301.51</ele>
        <time>2021-08-13T19:02:13Z</time>
      </trkpt>
      <trkpt lat="46.33986" lon="3.26777">
        <ele>302.47</ele>
        <time>2021-08-13T19:02:24Z</time>
      </trkpt>
      <trkpt lat="46.33979" lon="3.26755">
        <ele>302.95</ele>
        <time>2021-08-13T19:02:31Z</time>
      </trkpt>
      <trkpt lat="46.33967" lon="3.26714">
        <ele>303.43</ele>
        <time>2021-08-13T19:02:40Z</time>
      </trkpt>
      <trkpt lat="46.33956" lon="3.26657">
        <ele>303.43</ele>
        <time>2021-08-13T19:02:49Z</time>
      </trkpt>
      <trkpt lat="46.33955" lon="3.26651">
        <ele>303.43</ele>
        <time>2021-08-13T19:02:50Z</time>
      </trkpt>
      <trkpt lat="46.33949" lon="3.26606">
        <ele>304.88</ele>
        <time>2021-08-13T19:02:59Z</time>
      </trkpt>
      <trkpt lat="46.33943" lon="3.26563">
        <ele>306.32</ele>
        <time>2021-08-13T19:03:10Z</time>
      </trkpt>
      <trkpt lat="46.33939" lon="3.26543">
        <ele>306.8</ele>
        <time>2021-08-13T19:03:18Z</time>
      </trkpt>
      <trkpt lat="46.33938" lon="3.26542">
        <ele>306.8</ele>
        <time>2021-08-13T19:03:19Z</time>
      </trkpt>
      <trkpt lat="46.33937" lon="3.26541">
        <ele>306.8</ele>
        <time>2021-08-13T19:03:20Z</time>
      </trkpt>
      <trkpt lat="46.33936" lon="3.2654">
        <ele>306.8</ele>
        <time>2021-08-13T19:03:21Z</time>
      </trkpt>
      <trkpt lat="46.33935" lon="3.26538">
        <ele>306.8</ele>
        <time>2021-08-13T19:03:22Z</time>
      </trkpt>
      <trkpt lat="46.33934" lon="3.26536">
        <ele>307.28</ele>
        <time>2021-08-13T19:03:24Z</time>
      </trkpt>
      <trkpt lat="46.33933" lon="3.26536">
        <ele>307.28</ele>
        <time>2021-08-13T19:03:25Z</time>
      </trkpt>
      <trkpt lat="46.33932" lon="3.26535">
        <ele>307.28</ele>
        <time>2021-08-13T19:03:26Z</time>
      </trkpt>
      <trkpt lat="46.33918" lon="3.26534">
        <ele>308.24</ele>
        <time>2021-08-13T19:03:37Z</time>
      </trkpt>
    </trkseg>
  </trk>
  <trk>
    <name><![CDATA[08 FD]]></name>
    <trkseg>
      <trkpt lat="46.33907" lon="3.26533">
        <ele>306.8</ele>
        <time>2021-08-14T03:08:06Z</time>
      </trkpt>
      <trkpt lat="46.33912" lon="3.26532">
        <ele>306.8</ele>
        <time>2021-08-14T03:08:12Z</time>
      </trkpt>
      <trkpt lat="46.33922" lon="3.26532">
        <ele>306.8</ele>
        <time>2021-08-14T03:08:19Z</time>
      </trkpt>
      <trkpt lat="46.33936" lon="3.2654">
        <ele>305.84</ele>
        <time>2021-08-14T03:08:26Z</time>
      </trkpt>
      <trkpt lat="46.33937" lon="3.26544">
        <ele>305.84</ele>
        <time>2021-08-14T03:08:27Z</time>
      </trkpt>
      <trkpt lat="46.33938" lon="3.26547">
        <ele>305.84</ele>
        <time>2021-08-14T03:08:28Z</time>
      </trkpt>
      <trkpt lat="46.33943" lon="3.26576">
        <ele>305.36</ele>
        <time>2021-08-14T03:08:37Z</time>
      </trkpt>
      <trkpt lat="46.33948" lon="3.26615">
        <ele>304.39</ele>
        <time>2021-08-14T03:08:46Z</time>
      </trkpt>
      <trkpt lat="46.33954" lon="3.26651">
        <ele>302.95</ele>
        <time>2021-08-14T03:08:54Z</time>
      </trkpt>
      <trkpt lat="46.33962" lon="3.26697">
        <ele>301.99</ele>
        <time>2021-08-14T03:09:04Z</time>
      </trkpt>
      <trkpt lat="46.33966" lon="3.26716">
        <ele>301.99</ele>
        <time>2021-08-14T03:09:10Z</time>
      </trkpt>
      <trkpt lat="46.33974" lon="3.26745">
        <ele>301.99</ele>
        <time>2021-08-14T03:09:18Z</time>
      </trkpt>
      <trkpt lat="46.33985" lon="3.26783">
        <ele>301.51</ele>
        <time>2021-08-14T03:09:27Z</time>
      </trkpt>
      <trkpt lat="46.33984" lon="3.26785">
        <ele>301.51</ele>
        <time>2021-08-14T03:09:28Z</time>
      </trkpt>
      <trkpt lat="46.33982" lon="3.26786">
        <ele>301.51</ele>
        <time>2021-08-14T03:09:29Z</time>
      </trkpt>
      <trkpt lat="46.3398" lon="3.26787">
        <ele>301.51</ele>
        <time>2021-08-14T03:09:30Z</time>
      </trkpt>
      <trkpt lat="46.33978" lon="3.26788">
        <ele>301.51</ele>
        <time>2021-08-14T03:09:31Z</time>
      </trkpt>
      <trkpt lat="46.3397" lon="3.26788">
        <ele>301.51</ele>
        <time>2021-08-14T03:09:34Z</time>
      </trkpt>
      <trkpt lat="46.33952" lon="3.26792">
        <ele>301.51</ele>
        <time>2021-08-14T03:09:41Z</time>
      </trkpt>
      <trkpt lat="46.33924" lon="3.26799">
        <ele>301.51</ele>
        <time>2021-08-14T03:09:51Z</time>
      </trkpt>
      <trkpt lat="46.33895" lon="3.26804">
        <ele>301.03</ele>
        <time>2021-08-14T03:10:00Z</time>
      </trkpt>
      <trkpt lat="46.33882" lon="3.26804">
        <ele>301.03</ele>
        <time>2021-08-14T03:10:05Z</time>
      </trkpt>
      <trkpt lat="46.3388" lon="3.26804">
        <ele>301.03</ele>
        <time>2021-08-14T03:10:06Z</time>
      </trkpt>
      <trkpt lat="46.33877" lon="3.26803">
        <ele>301.03</ele>
        <time>2021-08-14T03:10:07Z</time>
      </trkpt>
      <trkpt lat="46.33874" lon="3.26803">
        <ele>301.03</ele>
        <time>2021-08-14T03:10:08Z</time>
      </trkpt>
      <trkpt lat="46.33871" lon="3.26802">
        <ele>301.03</ele>
        <time>2021-08-14T03:10:09Z</time>
      </trkpt>
      <trkpt lat="46.33868" lon="3.26801">
        <ele>301.03</ele>
        <time>2021-08-14T03:10:10Z</time>
      </trkpt>
      <trkpt lat="46.33865" lon="3.268">
        <ele>301.03</ele>
        <time>2021-08-14T03:10:11Z</time>
      </trkpt>
      <trkpt lat="46.33861" lon="3.268">
        <ele>301.03</ele>
        <time>2021-08-14T03:10:12Z</time>
      </trkpt>
      <trkpt lat="46.33833" lon="3.26794">
        <ele>301.03</ele>
        <time>2021-08-14T03:10:20Z</time>
      </trkpt>
      <trkpt lat="46.3379" lon="3.26786">
        <ele>300.55</ele>
        <time>2021-08-14T03:10:31Z</time>
      </trkpt>
      <trkpt lat="46.3375" lon="3.26777">
        <ele>300.07</ele>
        <time>2021-08-14T03:10:41Z</time>
      </trkpt>
      <trkpt lat="46.33713" lon="3.26771">
        <ele>299.59</ele>
        <time>2021-08-14T03:10:50Z</time>
      </trkpt>
      <trkpt lat="46.33671" lon="3.26761">
        <ele>298.63</ele>
        <time>2021-08-14T03:10:59Z</time>
      </trkpt>
      <trkpt lat="46.33646" lon="3.26757">
        <ele>297.67</ele>
        <time>2021-08-14T03:11:04Z</time>
      </trkpt>
      <trkpt lat="46.33642" lon="3.26758">
        <ele>297.67</ele>
        <time>2021-08-14T03:11:05Z</time>
      </trkpt>
      <trkpt lat="46.33637" lon="3.2676">
        <ele>297.67</ele>
        <time>2021-08-14T03:11:06Z</time>
      </trkpt>
      <trkpt lat="46.33633" lon="3.26764">
        <ele>297.18</ele>
        <time>2021-08-14T03:11:07Z</time>
      </trkpt>
      <trkpt lat="46.33629" lon="3.26769">
        <ele>297.18</ele>
        <time>2021-08-14T03:11:08Z</time>
      </trkpt>
      <trkpt lat="46.33626" lon="3.26776">
        <ele>296.7</ele>
        <time>2021-08-14T03:11:09Z</time>
      </trkpt>
      <trkpt lat="46.33622" lon="3.26782">
        <ele>296.22</ele>
        <time>2021-08-14T03:11:10Z</time>
      </trkpt>
      <trkpt lat="46.33617" lon="3.26788">
        <ele>295.74</ele>
        <time>2021-08-14T03:11:11Z</time>
      </trkpt>
      <trkpt lat="46.33611" lon="3.26792">
        <ele>294.78</ele>
        <time>2021-08-14T03:11:12Z</time>
      </trkpt>
      <trkpt lat="46.33605" lon="3.26794">
        <ele>294.3</ele>
        <time>2021-08-14T03:11:13Z</time>
      </trkpt>
      <trkpt lat="46.33598" lon="3.26795">
        <ele>293.82</ele>
        <time>2021-08-14T03:11:14Z</time>
      </trkpt>
      <trkpt lat="46.33591" lon="3.26795">
        <ele>293.34</ele>
        <time>2021-08-14T03:11:15Z</time>
      </trkpt>
      <trkpt lat="46.33584" lon="3.26794">
        <ele>293.34</ele>
        <time>2021-08-14T03:11:16Z</time>
      </trkpt>
      <trkpt lat="46.33533" lon="3.26786">
        <ele>289.97</ele>
        <time>2021-08-14T03:11:23Z</time>
      </trkpt>
      <trkpt lat="46.3352" lon="3.26783">
        <ele>289.49</ele>
        <time>2021-08-14T03:11:25Z</time>
      </trkpt>
      <trkpt lat="46.33516" lon="3.26779">
        <ele>289.97</ele>
        <time>2021-08-14T03:11:26Z</time>
      </trkpt>
      <trkpt lat="46.33513" lon="3.26772">
        <ele>289.97</ele>
        <time>2021-08-14T03:11:27Z</time>
      </trkpt>
      <trkpt lat="46.33505" lon="3.26746">
        <ele>289.97</ele>
        <time>2021-08-14T03:11:31Z</time>
      </trkpt>
      <trkpt lat="46.33502" lon="3.26726">
        <ele>289.97</ele>
        <time>2021-08-14T03:11:34Z</time>
      </trkpt>
      <trkpt lat="46.33501" lon="3.2672">
        <ele>290.94</ele>
        <time>2021-08-14T03:11:35Z</time>
      </trkpt>
      <trkpt lat="46.33501" lon="3.26691">
        <ele>292.38</ele>
        <time>2021-08-14T03:11:41Z</time>
      </trkpt>
      <trkpt lat="46.33504" lon="3.26657">
        <ele>292.86</ele>
        <time>2021-08-14T03:11:50Z</time>
      </trkpt>
      <trkpt lat="46.33506" lon="3.26649">
        <ele>293.34</ele>
        <time>2021-08-14T03:11:56Z</time>
      </trkpt>
      <trkpt lat="46.33506" lon="3.26648">
        <ele>293.34</ele>
        <time>2021-08-14T03:11:57Z</time>
      </trkpt>
      <trkpt lat="46.33504" lon="3.26647">
        <ele>293.82</ele>
        <time>2021-08-14T03:12:02Z</time>
      </trkpt>
      <trkpt lat="46.33504" lon="3.2665">
        <ele>293.82</ele>
        <time>2021-08-14T03:12:04Z</time>
      </trkpt>
      <trkpt lat="46.33504" lon="3.26653">
        <ele>293.82</ele>
        <time>2021-08-14T03:12:05Z</time>
      </trkpt>
      <trkpt lat="46.33505" lon="3.26655">
        <ele>293.82</ele>
        <time>2021-08-14T03:12:06Z</time>
      </trkpt>
      <trkpt lat="46.33505" lon="3.26659">
        <ele>293.82</ele>
        <time>2021-08-14T03:12:07Z</time>
      </trkpt>
      <trkpt lat="46.33505" lon="3.26662">
        <ele>293.82</ele>
        <time>2021-08-14T03:12:08Z</time>
      </trkpt>
      <trkpt lat="46.33505" lon="3.26666">
        <ele>293.82</ele>
        <time>2021-08-14T03:12:09Z</time>
      </trkpt>
      <trkpt lat="46.33502" lon="3.26701">
        <ele>292.38</ele>
        <time>2021-08-14T03:12:17Z</time>
      </trkpt>
      <trkpt lat="46.33501" lon="3.26719">
        <ele>291.9</ele>
        <time>2021-08-14T03:12:20Z</time>
      </trkpt>
      <trkpt lat="46.33501" lon="3.26733">
        <ele>291.42</ele>
        <time>2021-08-14T03:12:24Z</time>
      </trkpt>
      <trkpt lat="46.335" lon="3.26733">
        <ele>291.42</ele>
        <time>2021-08-14T03:12:25Z</time>
      </trkpt>
      <trkpt lat="46.33497" lon="3.26732">
        <ele>291.42</ele>
        <time>2021-08-14T03:12:27Z</time>
      </trkpt>
      <trkpt lat="46.33496" lon="3.2673">
        <ele>290.94</ele>
        <time>2021-08-14T03:12:28Z</time>
      </trkpt>
      <trkpt lat="46.33495" lon="3.26729">
        <ele>290.94</ele>
        <time>2021-08-14T03:12:29Z</time>
      </trkpt>
      <trkpt lat="46.3349" lon="3.2672">
        <ele>290.94</ele>
        <time>2021-08-14T03:12:35Z</time>
      </trkpt>
      <trkpt lat="46.33479" lon="3.26709">
        <ele>290.94</ele>
        <time>2021-08-14T03:12:41Z</time>
      </trkpt>
      <trkpt lat="46.3346" lon="3.26694">
        <ele>291.9</ele>
        <time>2021-08-14T03:12:49Z</time>
      </trkpt>
      <trkpt lat="46.33432" lon="3.26678">
        <ele>291.9</ele>
        <time>2021-08-14T03:12:59Z</time>
      </trkpt>
      <trkpt lat="46.33407" lon="3.26667">
        <ele>291.9</ele>
        <time>2021-08-14T03:13:07Z</time>
      </trkpt>
      <trkpt lat="46.33378" lon="3.2666">
        <ele>291.9</ele>
        <time>2021-08-14T03:13:15Z</time>
      </trkpt>
      <trkpt lat="46.33346" lon="3.26651">
        <ele>290.94</ele>
        <time>2021-08-14T03:13:23Z</time>
      </trkpt>
      <trkpt lat="46.33315" lon="3.26642">
        <ele>290.94</ele>
        <time>2021-08-14T03:13:31Z</time>
      </trkpt>
      <trkpt lat="46.33282" lon="3.2663">
        <ele>290.46</ele>
        <time>2021-08-14T03:13:40Z</time>
      </trkpt>
      <trkpt lat="46.33248" lon="3.26616">
        <ele>290.46</ele>
        <time>2021-08-14T03:13:50Z</time>
      </trkpt>
      <trkpt lat="46.33228" lon="3.26608">
        <ele>289.97</ele>
        <time>2021-08-14T03:13:55Z</time>
      </trkpt>
      <trkpt lat="46.33224" lon="3.26606">
        <ele>289.97</ele>
        <time>2021-08-14T03:13:56Z</time>
      </trkpt>
      <trkpt lat="46.3322" lon="3.26604">
        <ele>289.97</ele>
        <time>2021-08-14T03:13:57Z</time>
      </trkpt>
      <trkpt lat="46.33193" lon="3.26593">
        <ele>289.49</ele>
        <time>2021-08-14T03:14:05Z</time>
      </trkpt>
      <trkpt lat="46.33167" lon="3.26581">
        <ele>289.01</ele>
        <time>2021-08-14T03:14:14Z</time>
      </trkpt>
      <trkpt lat="46.33147" lon="3.26569">
        <ele>289.01</ele>
        <time>2021-08-14T03:14:21Z</time>
      </trkpt>
      <trkpt lat="46.33126" lon="3.26555">
        <ele>288.53</ele>
        <time>2021-08-14T03:14:29Z</time>
      </trkpt>
      <trkpt lat="46.33107" lon="3.26543">
        <ele>288.53</ele>
        <time>2021-08-14T03:14:35Z</time>
      </trkpt>
      <trkpt lat="46.33072" lon="3.26525">
        <ele>288.05</ele>
        <time>2021-08-14T03:14:44Z</time>
      </trkpt>
      <trkpt lat="46.33045" lon="3.26524">
        <ele>286.61</ele>
        <time>2021-08-14T03:14:50Z</time>
      </trkpt>
      <trkpt lat="46.32997" lon="3.2654">
        <ele>284.21</ele>
        <time>2021-08-14T03:14:59Z</time>
      </trkpt>
      <trkpt lat="46.32954" lon="3.26559">
        <ele>283.25</ele>
        <time>2021-08-14T03:15:07Z</time>
      </trkpt>
      <trkpt lat="46.32949" lon="3.26559">
        <ele>283.25</ele>
        <time>2021-08-14T03:15:08Z</time>
      </trkpt>
      <trkpt lat="46.32939" lon="3.26558">
        <ele>283.25</ele>
        <time>2021-08-14T03:15:10Z</time>
      </trkpt>
      <trkpt lat="46.32892" lon="3.26547">
        <ele>281.8</ele>
        <time>2021-08-14T03:15:19Z</time>
      </trkpt>
      <trkpt lat="46.32846" lon="3.26539">
        <ele>281.8</ele>
        <time>2021-08-14T03:15:29Z</time>
      </trkpt>
      <trkpt lat="46.32837" lon="3.26533">
        <ele>281.8</ele>
        <time>2021-08-14T03:15:32Z</time>
      </trkpt>
      <trkpt lat="46.32835" lon="3.26529">
        <ele>281.8</ele>
        <time>2021-08-14T03:15:33Z</time>
      </trkpt>
      <trkpt lat="46.32834" lon="3.26524">
        <ele>281.8</ele>
        <time>2021-08-14T03:15:34Z</time>
      </trkpt>
      <trkpt lat="46.32834" lon="3.2652">
        <ele>281.8</ele>
        <time>2021-08-14T03:15:35Z</time>
      </trkpt>
      <trkpt lat="46.32835" lon="3.26515">
        <ele>281.8</ele>
        <time>2021-08-14T03:15:36Z</time>
      </trkpt>
      <trkpt lat="46.32841" lon="3.26477">
        <ele>283.73</ele>
        <time>2021-08-14T03:15:46Z</time>
      </trkpt>
      <trkpt lat="46.32845" lon="3.26446">
        <ele>285.17</ele>
        <time>2021-08-14T03:15:56Z</time>
      </trkpt>
      <trkpt lat="46.32846" lon="3.26416">
        <ele>286.13</ele>
        <time>2021-08-14T03:16:06Z</time>
      </trkpt>
      <trkpt lat="46.32846" lon="3.26384">
        <ele>287.09</ele>
        <time>2021-08-14T03:16:17Z</time>
      </trkpt>
      <trkpt lat="46.32846" lon="3.26352">
        <ele>288.05</ele>
        <time>2021-08-14T03:16:28Z</time>
      </trkpt>
      <trkpt lat="46.32846" lon="3.26349">
        <ele>288.05</ele>
        <time>2021-08-14T03:16:29Z</time>
      </trkpt>
      <trkpt lat="46.32844" lon="3.26346">
        <ele>288.05</ele>
        <time>2021-08-14T03:16:30Z</time>
      </trkpt>
      <trkpt lat="46.32842" lon="3.26344">
        <ele>288.05</ele>
        <time>2021-08-14T03:16:31Z</time>
      </trkpt>
      <trkpt lat="46.3284" lon="3.26343">
        <ele>288.05</ele>
        <time>2021-08-14T03:16:32Z</time>
      </trkpt>
      <trkpt lat="46.32838" lon="3.26342">
        <ele>288.05</ele>
        <time>2021-08-14T03:16:33Z</time>
      </trkpt>
      <trkpt lat="46.32834" lon="3.26342">
        <ele>288.05</ele>
        <time>2021-08-14T03:16:34Z</time>
      </trkpt>
      <trkpt lat="46.32831" lon="3.26343">
        <ele>288.05</ele>
        <time>2021-08-14T03:16:35Z</time>
      </trkpt>
      <trkpt lat="46.32824" lon="3.26342">
        <ele>286.61</ele>
        <time>2021-08-14T03:16:37Z</time>
      </trkpt>
      <trkpt lat="46.32819" lon="3.26342">
        <ele>286.61</ele>
        <time>2021-08-14T03:16:38Z</time>
      </trkpt>
      <trkpt lat="46.32784" lon="3.2634">
        <ele>284.21</ele>
        <time>2021-08-14T03:16:45Z</time>
      </trkpt>
      <trkpt lat="46.32737" lon="3.26341">
        <ele>281.32</ele>
        <time>2021-08-14T03:16:52Z</time>
      </trkpt>
      <trkpt lat="46.32694" lon="3.26349">
        <ele>277.96</ele>
        <time>2021-08-14T03:16:58Z</time>
      </trkpt>
      <trkpt lat="46.32649" lon="3.26361">
        <ele>275.07</ele>
        <time>2021-08-14T03:17:05Z</time>
      </trkpt>
      <trkpt lat="46.32611" lon="3.26374">
        <ele>271.71</ele>
        <time>2021-08-14T03:17:10Z</time>
      </trkpt>
      <trkpt lat="46.32581" lon="3.26384">
        <ele>270.27</ele>
        <time>2021-08-14T03:17:15Z</time>
      </trkpt>
      <trkpt lat="46.32577" lon="3.26381">
        <ele>270.27</ele>
        <time>2021-08-14T03:17:16Z</time>
      </trkpt>
      <trkpt lat="46.32575" lon="3.26377">
        <ele>269.79</ele>
        <time>2021-08-14T03:17:17Z</time>
      </trkpt>
      <trkpt lat="46.32572" lon="3.26367">
        <ele>269.79</ele>
        <time>2021-08-14T03:17:19Z</time>
      </trkpt>
      <trkpt lat="46.3257" lon="3.26362">
        <ele>269.79</ele>
        <time>2021-08-14T03:17:20Z</time>
      </trkpt>
      <trkpt lat="46.32556" lon="3.26315">
        <ele>270.27</ele>
        <time>2021-08-14T03:17:29Z</time>
      </trkpt>
      <trkpt lat="46.32538" lon="3.26277">
        <ele>272.19</ele>
        <time>2021-08-14T03:17:39Z</time>
      </trkpt>
      <trkpt lat="46.32519" lon="3.26251">
        <ele>274.11</ele>
        <time>2021-08-14T03:17:48Z</time>
      </trkpt>
      <trkpt lat="46.32513" lon="3.26227">
        <ele>274.59</ele>
        <time>2021-08-14T03:17:55Z</time>
      </trkpt>
      <trkpt lat="46.32507" lon="3.26203">
        <ele>275.56</ele>
        <time>2021-08-14T03:18:03Z</time>
      </trkpt>
      <trkpt lat="46.32506" lon="3.26199">
        <ele>276.04</ele>
        <time>2021-08-14T03:18:05Z</time>
      </trkpt>
      <trkpt lat="46.32505" lon="3.26197">
        <ele>276.04</ele>
        <time>2021-08-14T03:18:06Z</time>
      </trkpt>
      <trkpt lat="46.32505" lon="3.26195">
        <ele>276.04</ele>
        <time>2021-08-14T03:18:07Z</time>
      </trkpt>
      <trkpt lat="46.32506" lon="3.26194">
        <ele>276.52</ele>
        <time>2021-08-14T03:18:08Z</time>
      </trkpt>
      <trkpt lat="46.32507" lon="3.26194">
        <ele>276.52</ele>
        <time>2021-08-14T03:18:09Z</time>
      </trkpt>
      <trkpt lat="46.32509" lon="3.26195">
        <ele>276.52</ele>
        <time>2021-08-14T03:18:10Z</time>
      </trkpt>
      <trkpt lat="46.3251" lon="3.26197">
        <ele>276.52</ele>
        <time>2021-08-14T03:18:11Z</time>
      </trkpt>
      <trkpt lat="46.32512" lon="3.26201">
        <ele>276.52</ele>
        <time>2021-08-14T03:18:13Z</time>
      </trkpt>
      <trkpt lat="46.32513" lon="3.26203">
        <ele>276.52</ele>
        <time>2021-08-14T03:18:14Z</time>
      </trkpt>
      <trkpt lat="46.32515" lon="3.26205">
        <ele>276.52</ele>
        <time>2021-08-14T03:18:15Z</time>
      </trkpt>
      <trkpt lat="46.32517" lon="3.26206">
        <ele>276.52</ele>
        <time>2021-08-14T03:18:16Z</time>
      </trkpt>
      <trkpt lat="46.32519" lon="3.26207">
        <ele>276.52</ele>
        <time>2021-08-14T03:18:17Z</time>
      </trkpt>
      <trkpt lat="46.32521" lon="3.26209">
        <ele>276.52</ele>
        <time>2021-08-14T03:18:18Z</time>
      </trkpt>
      <trkpt lat="46.32525" lon="3.26212">
        <ele>276.52</ele>
        <time>2021-08-14T03:18:24Z</time>
      </trkpt>
      <trkpt lat="46.32524" lon="3.26211">
        <ele>276.52</ele>
        <time>2021-08-14T03:18:48Z</time>
      </trkpt>
      <trkpt lat="46.32525" lon="3.26209">
        <ele>276.52</ele>
        <time>2021-08-14T03:18:59Z</time>
      </trkpt>
      <trkpt lat="46.32525" lon="3.2621">
        <ele>276.52</ele>
        <time>2021-08-14T03:19:09Z</time>
      </trkpt>
      <trkpt lat="46.32525" lon="3.2621">
        <ele>276.52</ele>
        <time>2021-08-14T03:19:25Z</time>
      </trkpt>
      <trkpt lat="46.32527" lon="3.26208">
        <ele>276.52</ele>
        <time>2021-08-14T03:19:27Z</time>
      </trkpt>
      <trkpt lat="46.32524" lon="3.26201">
        <ele>276.52</ele>
        <time>2021-08-14T03:19:32Z</time>
      </trkpt>
      <trkpt lat="46.32522" lon="3.262">
        <ele>276.52</ele>
        <time>2021-08-14T03:19:33Z</time>
      </trkpt>
      <trkpt lat="46.3252" lon="3.26199">
        <ele>276.52</ele>
        <time>2021-08-14T03:19:34Z</time>
      </trkpt>
      <trkpt lat="46.32501" lon="3.26193">
        <ele>276.52</ele>
        <time>2021-08-14T03:19:42Z</time>
      </trkpt>
      <trkpt lat="46.32477" lon="3.26183">
        <ele>277</ele>
        <time>2021-08-14T03:19:51Z</time>
      </trkpt>
      <trkpt lat="46.32467" lon="3.26179">
        <ele>277</ele>
        <time>2021-08-14T03:19:55Z</time>
      </trkpt>
      <trkpt lat="46.32465" lon="3.2618">
        <ele>277</ele>
        <time>2021-08-14T03:19:56Z</time>
      </trkpt>
      <trkpt lat="46.32462" lon="3.26181">
        <ele>277</ele>
        <time>2021-08-14T03:19:57Z</time>
      </trkpt>
      <trkpt lat="46.32459" lon="3.26181">
        <ele>277</ele>
        <time>2021-08-14T03:19:58Z</time>
      </trkpt>
      <trkpt lat="46.32456" lon="3.26181">
        <ele>277</ele>
        <time>2021-08-14T03:19:59Z</time>
      </trkpt>
      <trkpt lat="46.32452" lon="3.2618">
        <ele>277</ele>
        <time>2021-08-14T03:20:00Z</time>
      </trkpt>
      <trkpt lat="46.3245" lon="3.26179">
        <ele>277</ele>
        <time>2021-08-14T03:20:01Z</time>
      </trkpt>
      <trkpt lat="46.32427" lon="3.2617">
        <ele>277.96</ele>
        <time>2021-08-14T03:20:09Z</time>
      </trkpt>
      <trkpt lat="46.32405" lon="3.26159">
        <ele>278.92</ele>
        <time>2021-08-14T03:20:17Z</time>
      </trkpt>
      <trkpt lat="46.32377" lon="3.26141">
        <ele>280.36</ele>
        <time>2021-08-14T03:20:28Z</time>
      </trkpt>
      <trkpt lat="46.32349" lon="3.26123">
        <ele>281.32</ele>
        <time>2021-08-14T03:20:39Z</time>
      </trkpt>
      <trkpt lat="46.32319" lon="3.26109">
        <ele>281.8</ele>
        <time>2021-08-14T03:20:50Z</time>
      </trkpt>
      <trkpt lat="46.3229" lon="3.26098">
        <ele>281.8</ele>
        <time>2021-08-14T03:20:59Z</time>
      </trkpt>
      <trkpt lat="46.32278" lon="3.26082">
        <ele>281.32</ele>
        <time>2021-08-14T03:21:04Z</time>
      </trkpt>
      <trkpt lat="46.32273" lon="3.26066">
        <ele>281.8</ele>
        <time>2021-08-14T03:21:10Z</time>
      </trkpt>
      <trkpt lat="46.32272" lon="3.26067">
        <ele>281.8</ele>
        <time>2021-08-14T03:21:12Z</time>
      </trkpt>
      <trkpt lat="46.32272" lon="3.26069">
        <ele>281.8</ele>
        <time>2021-08-14T03:21:13Z</time>
      </trkpt>
      <trkpt lat="46.32273" lon="3.26071">
        <ele>281.8</ele>
        <time>2021-08-14T03:21:14Z</time>
      </trkpt>
      <trkpt lat="46.32274" lon="3.26073">
        <ele>281.8</ele>
        <time>2021-08-14T03:21:15Z</time>
      </trkpt>
      <trkpt lat="46.32275" lon="3.26075">
        <ele>281.8</ele>
        <time>2021-08-14T03:21:16Z</time>
      </trkpt>
      <trkpt lat="46.32276" lon="3.26078">
        <ele>281.8</ele>
        <time>2021-08-14T03:21:17Z</time>
      </trkpt>
      <trkpt lat="46.32277" lon="3.26081">
        <ele>281.8</ele>
        <time>2021-08-14T03:21:18Z</time>
      </trkpt>
      <trkpt lat="46.32278" lon="3.26084">
        <ele>281.8</ele>
        <time>2021-08-14T03:21:19Z</time>
      </trkpt>
      <trkpt lat="46.3228" lon="3.26088">
        <ele>281.8</ele>
        <time>2021-08-14T03:21:20Z</time>
      </trkpt>
      <trkpt lat="46.32281" lon="3.26091">
        <ele>281.8</ele>
        <time>2021-08-14T03:21:21Z</time>
      </trkpt>
      <trkpt lat="46.32282" lon="3.26095">
        <ele>281.8</ele>
        <time>2021-08-14T03:21:22Z</time>
      </trkpt>
      <trkpt lat="46.3228" lon="3.261">
        <ele>281.8</ele>
        <time>2021-08-14T03:21:23Z</time>
      </trkpt>
      <trkpt lat="46.32278" lon="3.26103">
        <ele>281.8</ele>
        <time>2021-08-14T03:21:24Z</time>
      </trkpt>
      <trkpt lat="46.32276" lon="3.26107">
        <ele>280.84</ele>
        <time>2021-08-14T03:21:25Z</time>
      </trkpt>
      <trkpt lat="46.32273" lon="3.2611">
        <ele>280.84</ele>
        <time>2021-08-14T03:21:26Z</time>
      </trkpt>
      <trkpt lat="46.32261" lon="3.26121">
        <ele>279.4</ele>
        <time>2021-08-14T03:21:29Z</time>
      </trkpt>
      <trkpt lat="46.32258" lon="3.26123">
        <ele>279.4</ele>
        <time>2021-08-14T03:21:30Z</time>
      </trkpt>
      <trkpt lat="46.32255" lon="3.26125">
        <ele>279.4</ele>
        <time>2021-08-14T03:21:31Z</time>
      </trkpt>
      <trkpt lat="46.32252" lon="3.26126">
        <ele>279.4</ele>
        <time>2021-08-14T03:21:32Z</time>
      </trkpt>
      <trkpt lat="46.3225" lon="3.26126">
        <ele>279.4</ele>
        <time>2021-08-14T03:21:33Z</time>
      </trkpt>
      <trkpt lat="46.32247" lon="3.26125">
        <ele>279.4</ele>
        <time>2021-08-14T03:21:34Z</time>
      </trkpt>
      <trkpt lat="46.32244" lon="3.26124">
        <ele>278.92</ele>
        <time>2021-08-14T03:21:35Z</time>
      </trkpt>
      <trkpt lat="46.32219" lon="3.26118">
        <ele>277</ele>
        <time>2021-08-14T03:21:42Z</time>
      </trkpt>
      <trkpt lat="46.32201" lon="3.26116">
        <ele>276.04</ele>
        <time>2021-08-14T03:21:46Z</time>
      </trkpt>
      <trkpt lat="46.3217" lon="3.26102">
        <ele>273.15</ele>
        <time>2021-08-14T03:21:54Z</time>
      </trkpt>
      <trkpt lat="46.32143" lon="3.26079">
        <ele>272.19</ele>
        <time>2021-08-14T03:22:02Z</time>
      </trkpt>
      <trkpt lat="46.32124" lon="3.26051">
        <ele>271.71</ele>
        <time>2021-08-14T03:22:09Z</time>
      </trkpt>
      <trkpt lat="46.32107" lon="3.26022">
        <ele>270.75</ele>
        <time>2021-08-14T03:22:16Z</time>
      </trkpt>
      <trkpt lat="46.32097" lon="3.26002">
        <ele>269.31</ele>
        <time>2021-08-14T03:22:21Z</time>
      </trkpt>
      <trkpt lat="46.32088" lon="3.25992">
        <ele>267.86</ele>
        <time>2021-08-14T03:22:24Z</time>
      </trkpt>
      <trkpt lat="46.3207" lon="3.25979">
        <ele>266.42</ele>
        <time>2021-08-14T03:22:29Z</time>
      </trkpt>
      <trkpt lat="46.32065" lon="3.25979">
        <ele>265.46</ele>
        <time>2021-08-14T03:22:30Z</time>
      </trkpt>
      <trkpt lat="46.32059" lon="3.2598">
        <ele>264.98</ele>
        <time>2021-08-14T03:22:31Z</time>
      </trkpt>
      <trkpt lat="46.32053" lon="3.25982">
        <ele>264.5</ele>
        <time>2021-08-14T03:22:32Z</time>
      </trkpt>
      <trkpt lat="46.32048" lon="3.25985">
        <ele>263.54</ele>
        <time>2021-08-14T03:22:33Z</time>
      </trkpt>
      <trkpt lat="46.32042" lon="3.2599">
        <ele>263.06</ele>
        <time>2021-08-14T03:22:34Z</time>
      </trkpt>
      <trkpt lat="46.32036" lon="3.25994">
        <ele>262.58</ele>
        <time>2021-08-14T03:22:35Z</time>
      </trkpt>
      <trkpt lat="46.3203" lon="3.25999">
        <ele>262.58</ele>
        <time>2021-08-14T03:22:36Z</time>
      </trkpt>
      <trkpt lat="46.32" lon="3.2603">
        <ele>259.69</ele>
        <time>2021-08-14T03:22:42Z</time>
      </trkpt>
      <trkpt lat="46.31963" lon="3.26072">
        <ele>257.77</ele>
        <time>2021-08-14T03:22:49Z</time>
      </trkpt>
      <trkpt lat="46.31947" lon="3.26088">
        <ele>257.29</ele>
        <time>2021-08-14T03:22:53Z</time>
      </trkpt>
      <trkpt lat="46.31943" lon="3.26091">
        <ele>257.29</ele>
        <time>2021-08-14T03:22:55Z</time>
      </trkpt>
      <trkpt lat="46.31942" lon="3.26093">
        <ele>257.29</ele>
        <time>2021-08-14T03:22:56Z</time>
      </trkpt>
      <trkpt lat="46.3194" lon="3.26096">
        <ele>256.81</ele>
        <time>2021-08-14T03:22:57Z</time>
      </trkpt>
      <trkpt lat="46.31931" lon="3.26107">
        <ele>256.33</ele>
        <time>2021-08-14T03:23:00Z</time>
      </trkpt>
      <trkpt lat="46.31927" lon="3.26109">
        <ele>255.85</ele>
        <time>2021-08-14T03:23:01Z</time>
      </trkpt>
      <trkpt lat="46.31922" lon="3.2611">
        <ele>255.85</ele>
        <time>2021-08-14T03:23:02Z</time>
      </trkpt>
      <trkpt lat="46.31917" lon="3.26108">
        <ele>255.37</ele>
        <time>2021-08-14T03:23:03Z</time>
      </trkpt>
      <trkpt lat="46.31912" lon="3.26105">
        <ele>255.37</ele>
        <time>2021-08-14T03:23:04Z</time>
      </trkpt>
      <trkpt lat="46.31907" lon="3.26102">
        <ele>255.37</ele>
        <time>2021-08-14T03:23:05Z</time>
      </trkpt>
      <trkpt lat="46.31868" lon="3.26089">
        <ele>254.41</ele>
        <time>2021-08-14T03:23:12Z</time>
      </trkpt>
      <trkpt lat="46.31863" lon="3.26089">
        <ele>254.41</ele>
        <time>2021-08-14T03:23:13Z</time>
      </trkpt>
      <trkpt lat="46.31818" lon="3.2609">
        <ele>253.93</ele>
        <time>2021-08-14T03:23:21Z</time>
      </trkpt>
      <trkpt lat="46.31813" lon="3.26092">
        <ele>253.93</ele>
        <time>2021-08-14T03:23:22Z</time>
      </trkpt>
      <trkpt lat="46.31808" lon="3.26095">
        <ele>253.93</ele>
        <time>2021-08-14T03:23:23Z</time>
      </trkpt>
      <trkpt lat="46.31803" lon="3.26099">
        <ele>253.44</ele>
        <time>2021-08-14T03:23:24Z</time>
      </trkpt>
      <trkpt lat="46.31799" lon="3.26103">
        <ele>253.44</ele>
        <time>2021-08-14T03:23:25Z</time>
      </trkpt>
      <trkpt lat="46.31785" lon="3.26115">
        <ele>253.44</ele>
        <time>2021-08-14T03:23:28Z</time>
      </trkpt>
      <trkpt lat="46.3178" lon="3.26118">
        <ele>253.44</ele>
        <time>2021-08-14T03:23:29Z</time>
      </trkpt>
      <trkpt lat="46.31775" lon="3.26121">
        <ele>253.44</ele>
        <time>2021-08-14T03:23:30Z</time>
      </trkpt>
      <trkpt lat="46.3177" lon="3.26122">
        <ele>253.44</ele>
        <time>2021-08-14T03:23:31Z</time>
      </trkpt>
      <trkpt lat="46.31766" lon="3.26123">
        <ele>253.44</ele>
        <time>2021-08-14T03:23:32Z</time>
      </trkpt>
      <trkpt lat="46.31761" lon="3.26124">
        <ele>253.44</ele>
        <time>2021-08-14T03:23:33Z</time>
      </trkpt>
      <trkpt lat="46.31756" lon="3.26124">
        <ele>253.44</ele>
        <time>2021-08-14T03:23:34Z</time>
      </trkpt>
      <trkpt lat="46.31733" lon="3.26122">
        <ele>253.44</ele>
        <time>2021-08-14T03:23:39Z</time>
      </trkpt>
      <trkpt lat="46.31687" lon="3.26101">
        <ele>253.44</ele>
        <time>2021-08-14T03:23:49Z</time>
      </trkpt>
      <trkpt lat="46.31658" lon="3.26083">
        <ele>253.44</ele>
        <time>2021-08-14T03:23:56Z</time>
      </trkpt>
      <trkpt lat="46.31649" lon="3.26079">
        <ele>253.44</ele>
        <time>2021-08-14T03:23:58Z</time>
      </trkpt>
      <trkpt lat="46.31626" lon="3.26069">
        <ele>253.44</ele>
        <time>2021-08-14T03:24:04Z</time>
      </trkpt>
      <trkpt lat="46.31622" lon="3.26067">
        <ele>253.44</ele>
        <time>2021-08-14T03:24:05Z</time>
      </trkpt>
      <trkpt lat="46.31612" lon="3.26063">
        <ele>253.44</ele>
        <time>2021-08-14T03:24:07Z</time>
      </trkpt>
      <trkpt lat="46.31609" lon="3.2606">
        <ele>253.44</ele>
        <time>2021-08-14T03:24:08Z</time>
      </trkpt>
      <trkpt lat="46.31605" lon="3.26054">
        <ele>253.44</ele>
        <time>2021-08-14T03:24:09Z</time>
      </trkpt>
      <trkpt lat="46.31603" lon="3.26046">
        <ele>253.44</ele>
        <time>2021-08-14T03:24:10Z</time>
      </trkpt>
      <trkpt lat="46.31603" lon="3.26041">
        <ele>253.44</ele>
        <time>2021-08-14T03:24:11Z</time>
      </trkpt>
      <trkpt lat="46.31603" lon="3.26036">
        <ele>253.44</ele>
        <time>2021-08-14T03:24:12Z</time>
      </trkpt>
      <trkpt lat="46.31604" lon="3.26031">
        <ele>253.44</ele>
        <time>2021-08-14T03:24:13Z</time>
      </trkpt>
      <trkpt lat="46.31605" lon="3.26028">
        <ele>253.44</ele>
        <time>2021-08-14T03:24:14Z</time>
      </trkpt>
      <trkpt lat="46.31607" lon="3.26021">
        <ele>253.44</ele>
        <time>2021-08-14T03:24:19Z</time>
      </trkpt>
      <trkpt lat="46.31608" lon="3.26016">
        <ele>253.44</ele>
        <time>2021-08-14T03:24:26Z</time>
      </trkpt>
      <trkpt lat="46.31607" lon="3.26014">
        <ele>253.44</ele>
        <time>2021-08-14T03:24:27Z</time>
      </trkpt>
      <trkpt lat="46.31595" lon="3.26003">
        <ele>253.44</ele>
        <time>2021-08-14T03:24:35Z</time>
      </trkpt>
      <trkpt lat="46.3158" lon="3.25993">
        <ele>253.44</ele>
        <time>2021-08-14T03:24:41Z</time>
      </trkpt>
      <trkpt lat="46.31565" lon="3.2598">
        <ele>253.44</ele>
        <time>2021-08-14T03:24:48Z</time>
      </trkpt>
      <trkpt lat="46.31547" lon="3.25966">
        <ele>254.89</ele>
        <time>2021-08-14T03:24:56Z</time>
      </trkpt>
      <trkpt lat="46.31534" lon="3.25956">
        <ele>256.33</ele>
        <time>2021-08-14T03:25:04Z</time>
      </trkpt>
      <trkpt lat="46.31526" lon="3.25957">
        <ele>256.81</ele>
        <time>2021-08-14T03:25:07Z</time>
      </trkpt>
      <trkpt lat="46.31523" lon="3.25956">
        <ele>256.81</ele>
        <time>2021-08-14T03:25:08Z</time>
      </trkpt>
      <trkpt lat="46.3152" lon="3.25955">
        <ele>256.81</ele>
        <time>2021-08-14T03:25:09Z</time>
      </trkpt>
      <trkpt lat="46.31517" lon="3.25954">
        <ele>255.37</ele>
        <time>2021-08-14T03:25:10Z</time>
      </trkpt>
      <trkpt lat="46.31514" lon="3.25952">
        <ele>255.37</ele>
        <time>2021-08-14T03:25:11Z</time>
      </trkpt>
      <trkpt lat="46.31488" lon="3.25937">
        <ele>253.93</ele>
        <time>2021-08-14T03:25:19Z</time>
      </trkpt>
      <trkpt lat="46.31457" lon="3.25916">
        <ele>253.93</ele>
        <time>2021-08-14T03:25:29Z</time>
      </trkpt>
      <trkpt lat="46.31418" lon="3.25889">
        <ele>253.93</ele>
        <time>2021-08-14T03:25:41Z</time>
      </trkpt>
      <trkpt lat="46.31385" lon="3.25866">
        <ele>253.93</ele>
        <time>2021-08-14T03:25:51Z</time>
      </trkpt>
      <trkpt lat="46.3135" lon="3.25841">
        <ele>253.44</ele>
        <time>2021-08-14T03:26:01Z</time>
      </trkpt>
      <trkpt lat="46.31313" lon="3.25816">
        <ele>253.44</ele>
        <time>2021-08-14T03:26:12Z</time>
      </trkpt>
      <trkpt lat="46.31276" lon="3.25796">
        <ele>253.44</ele>
        <time>2021-08-14T03:26:23Z</time>
      </trkpt>
      <trkpt lat="46.31246" lon="3.25794">
        <ele>253.44</ele>
        <time>2021-08-14T03:26:32Z</time>
      </trkpt>
      <trkpt lat="46.31224" lon="3.25787">
        <ele>253.44</ele>
        <time>2021-08-14T03:26:40Z</time>
      </trkpt>
      <trkpt lat="46.31195" lon="3.25775">
        <ele>253.44</ele>
        <time>2021-08-14T03:26:49Z</time>
      </trkpt>
      <trkpt lat="46.31163" lon="3.25765">
        <ele>253.44</ele>
        <time>2021-08-14T03:26:59Z</time>
      </trkpt>
      <trkpt lat="46.31129" lon="3.25755">
        <ele>252.96</ele>
        <time>2021-08-14T03:27:10Z</time>
      </trkpt>
      <trkpt lat="46.31098" lon="3.25746">
        <ele>252.48</ele>
        <time>2021-08-14T03:27:20Z</time>
      </trkpt>
      <trkpt lat="46.31071" lon="3.25736">
        <ele>252.48</ele>
        <time>2021-08-14T03:27:29Z</time>
      </trkpt>
      <trkpt lat="46.31042" lon="3.25724">
        <ele>252.48</ele>
        <time>2021-08-14T03:27:39Z</time>
      </trkpt>
      <trkpt lat="46.31018" lon="3.25712">
        <ele>252.48</ele>
        <time>2021-08-14T03:27:48Z</time>
      </trkpt>
      <trkpt lat="46.30994" lon="3.25694">
        <ele>252.48</ele>
        <time>2021-08-14T03:27:57Z</time>
      </trkpt>
      <trkpt lat="46.30976" lon="3.25674">
        <ele>252.48</ele>
        <time>2021-08-14T03:28:05Z</time>
      </trkpt>
      <trkpt lat="46.30959" lon="3.25651">
        <ele>252.48</ele>
        <time>2021-08-14T03:28:13Z</time>
      </trkpt>
      <trkpt lat="46.30939" lon="3.25615">
        <ele>252.48</ele>
        <time>2021-08-14T03:28:24Z</time>
      </trkpt>
      <trkpt lat="46.30925" lon="3.25584">
        <ele>252.48</ele>
        <time>2021-08-14T03:28:33Z</time>
      </trkpt>
      <trkpt lat="46.30914" lon="3.25551">
        <ele>252.48</ele>
        <time>2021-08-14T03:28:42Z</time>
      </trkpt>
      <trkpt lat="46.30907" lon="3.2553">
        <ele>253.44</ele>
        <time>2021-08-14T03:28:48Z</time>
      </trkpt>
      <trkpt lat="46.30898" lon="3.25508">
        <ele>253.93</ele>
        <time>2021-08-14T03:28:56Z</time>
      </trkpt>
      <trkpt lat="46.30887" lon="3.25496">
        <ele>254.41</ele>
        <time>2021-08-14T03:29:02Z</time>
      </trkpt>
      <trkpt lat="46.30865" lon="3.25478">
        <ele>254.89</ele>
        <time>2021-08-14T03:29:12Z</time>
      </trkpt>
      <trkpt lat="46.30846" lon="3.25461">
        <ele>254.89</ele>
        <time>2021-08-14T03:29:21Z</time>
      </trkpt>
      <trkpt lat="46.30826" lon="3.2544">
        <ele>254.89</ele>
        <time>2021-08-14T03:29:30Z</time>
      </trkpt>
      <trkpt lat="46.30812" lon="3.25417">
        <ele>255.37</ele>
        <time>2021-08-14T03:29:39Z</time>
      </trkpt>
      <trkpt lat="46.30794" lon="3.2539">
        <ele>255.37</ele>
        <time>2021-08-14T03:29:49Z</time>
      </trkpt>
      <trkpt lat="46.30784" lon="3.25375">
        <ele>255.85</ele>
        <time>2021-08-14T03:29:55Z</time>
      </trkpt>
      <trkpt lat="46.30768" lon="3.25348">
        <ele>256.33</ele>
        <time>2021-08-14T03:30:05Z</time>
      </trkpt>
      <trkpt lat="46.30754" lon="3.25325">
        <ele>256.81</ele>
        <time>2021-08-14T03:30:14Z</time>
      </trkpt>
      <trkpt lat="46.30753" lon="3.25318">
        <ele>257.29</ele>
        <time>2021-08-14T03:30:16Z</time>
      </trkpt>
      <trkpt lat="46.30753" lon="3.25316">
        <ele>257.29</ele>
        <time>2021-08-14T03:30:17Z</time>
      </trkpt>
      <trkpt lat="46.30753" lon="3.25313">
        <ele>257.29</ele>
        <time>2021-08-14T03:30:18Z</time>
      </trkpt>
      <trkpt lat="46.30755" lon="3.25286">
        <ele>257.77</ele>
        <time>2021-08-14T03:30:27Z</time>
      </trkpt>
      <trkpt lat="46.30756" lon="3.2526">
        <ele>259.21</ele>
        <time>2021-08-14T03:30:35Z</time>
      </trkpt>
      <trkpt lat="46.30753" lon="3.25239">
        <ele>259.69</ele>
        <time>2021-08-14T03:30:42Z</time>
      </trkpt>
      <trkpt lat="46.30747" lon="3.25214">
        <ele>259.69</ele>
        <time>2021-08-14T03:30:50Z</time>
      </trkpt>
      <trkpt lat="46.30739" lon="3.25187">
        <ele>261.14</ele>
        <time>2021-08-14T03:30:59Z</time>
      </trkpt>
      <trkpt lat="46.30729" lon="3.2516">
        <ele>262.1</ele>
        <time>2021-08-14T03:31:09Z</time>
      </trkpt>
      <trkpt lat="46.30722" lon="3.25139">
        <ele>261.62</ele>
        <time>2021-08-14T03:31:16Z</time>
      </trkpt>
      <trkpt lat="46.30716" lon="3.25115">
        <ele>262.58</ele>
        <time>2021-08-14T03:31:23Z</time>
      </trkpt>
      <trkpt lat="46.30706" lon="3.25076">
        <ele>263.06</ele>
        <time>2021-08-14T03:31:34Z</time>
      </trkpt>
      <trkpt lat="46.307" lon="3.25044">
        <ele>264.02</ele>
        <time>2021-08-14T03:31:43Z</time>
      </trkpt>
      <trkpt lat="46.30691" lon="3.25003">
        <ele>264.98</ele>
        <time>2021-08-14T03:31:54Z</time>
      </trkpt>
      <trkpt lat="46.30681" lon="3.24964">
        <ele>265.46</ele>
        <time>2021-08-14T03:32:05Z</time>
      </trkpt>
      <trkpt lat="46.30667" lon="3.24941">
        <ele>265.94</ele>
        <time>2021-08-14T03:32:13Z</time>
      </trkpt>
      <trkpt lat="46.30652" lon="3.24916">
        <ele>265.94</ele>
        <time>2021-08-14T03:32:21Z</time>
      </trkpt>
      <trkpt lat="46.30645" lon="3.24876">
        <ele>266.42</ele>
        <time>2021-08-14T03:32:31Z</time>
      </trkpt>
      <trkpt lat="46.30646" lon="3.24841">
        <ele>266.9</ele>
        <time>2021-08-14T03:32:40Z</time>
      </trkpt>
      <trkpt lat="46.30656" lon="3.24795">
        <ele>267.86</ele>
        <time>2021-08-14T03:32:53Z</time>
      </trkpt>
      <trkpt lat="46.30662" lon="3.24768">
        <ele>268.83</ele>
        <time>2021-08-14T03:33:01Z</time>
      </trkpt>
      <trkpt lat="46.30666" lon="3.24738">
        <ele>269.31</ele>
        <time>2021-08-14T03:33:10Z</time>
      </trkpt>
      <trkpt lat="46.30666" lon="3.24711">
        <ele>270.75</ele>
        <time>2021-08-14T03:33:18Z</time>
      </trkpt>
      <trkpt lat="46.30666" lon="3.24678">
        <ele>271.71</ele>
        <time>2021-08-14T03:33:28Z</time>
      </trkpt>
      <trkpt lat="46.3067" lon="3.24647">
        <ele>272.67</ele>
        <time>2021-08-14T03:33:37Z</time>
      </trkpt>
      <trkpt lat="46.30682" lon="3.24614">
        <ele>273.15</ele>
        <time>2021-08-14T03:33:47Z</time>
      </trkpt>
      <trkpt lat="46.30689" lon="3.24592">
        <ele>273.63</ele>
        <time>2021-08-14T03:33:53Z</time>
      </trkpt>
      <trkpt lat="46.30695" lon="3.24567">
        <ele>274.59</ele>
        <time>2021-08-14T03:34:01Z</time>
      </trkpt>
      <trkpt lat="46.30693" lon="3.24543">
        <ele>275.07</ele>
        <time>2021-08-14T03:34:08Z</time>
      </trkpt>
      <trkpt lat="46.30678" lon="3.2453">
        <ele>275.07</ele>
        <time>2021-08-14T03:34:13Z</time>
      </trkpt>
      <trkpt lat="46.30675" lon="3.24528">
        <ele>275.07</ele>
        <time>2021-08-14T03:34:14Z</time>
      </trkpt>
      <trkpt lat="46.30671" lon="3.24528">
        <ele>275.07</ele>
        <time>2021-08-14T03:34:15Z</time>
      </trkpt>
      <trkpt lat="46.30662" lon="3.24526">
        <ele>273.63</ele>
        <time>2021-08-14T03:34:17Z</time>
      </trkpt>
      <trkpt lat="46.30652" lon="3.24525">
        <ele>273.15</ele>
        <time>2021-08-14T03:34:19Z</time>
      </trkpt>
      <trkpt lat="46.30613" lon="3.24528">
        <ele>272.19</ele>
        <time>2021-08-14T03:34:27Z</time>
      </trkpt>
      <trkpt lat="46.30608" lon="3.24529">
        <ele>272.19</ele>
        <time>2021-08-14T03:34:28Z</time>
      </trkpt>
      <trkpt lat="46.30603" lon="3.24532">
        <ele>272.19</ele>
        <time>2021-08-14T03:34:29Z</time>
      </trkpt>
      <trkpt lat="46.30599" lon="3.24534">
        <ele>272.19</ele>
        <time>2021-08-14T03:34:30Z</time>
      </trkpt>
      <trkpt lat="46.30594" lon="3.24536">
        <ele>272.19</ele>
        <time>2021-08-14T03:34:31Z</time>
      </trkpt>
      <trkpt lat="46.30591" lon="3.24538">
        <ele>272.19</ele>
        <time>2021-08-14T03:34:32Z</time>
      </trkpt>
      <trkpt lat="46.30586" lon="3.24539">
        <ele>272.19</ele>
        <time>2021-08-14T03:34:33Z</time>
      </trkpt>
      <trkpt lat="46.30581" lon="3.24539">
        <ele>272.19</ele>
        <time>2021-08-14T03:34:34Z</time>
      </trkpt>
      <trkpt lat="46.30563" lon="3.2453">
        <ele>273.15</ele>
        <time>2021-08-14T03:34:39Z</time>
      </trkpt>
      <trkpt lat="46.30531" lon="3.24494">
        <ele>274.59</ele>
        <time>2021-08-14T03:34:51Z</time>
      </trkpt>
      <trkpt lat="46.30501" lon="3.24468">
        <ele>275.56</ele>
        <time>2021-08-14T03:35:02Z</time>
      </trkpt>
      <trkpt lat="46.30479" lon="3.24456">
        <ele>276.52</ele>
        <time>2021-08-14T03:35:10Z</time>
      </trkpt>
      <trkpt lat="46.30447" lon="3.24446">
        <ele>277.48</ele>
        <time>2021-08-14T03:35:21Z</time>
      </trkpt>
      <trkpt lat="46.30412" lon="3.24432">
        <ele>277</ele>
        <time>2021-08-14T03:35:31Z</time>
      </trkpt>
      <trkpt lat="46.30387" lon="3.24411">
        <ele>277</ele>
        <time>2021-08-14T03:35:39Z</time>
      </trkpt>
      <trkpt lat="46.30359" lon="3.24371">
        <ele>277</ele>
        <time>2021-08-14T03:35:51Z</time>
      </trkpt>
      <trkpt lat="46.3034" lon="3.24342">
        <ele>277.48</ele>
        <time>2021-08-14T03:36:00Z</time>
      </trkpt>
      <trkpt lat="46.30317" lon="3.24314">
        <ele>277.96</ele>
        <time>2021-08-14T03:36:09Z</time>
      </trkpt>
      <trkpt lat="46.30281" lon="3.24289">
        <ele>277.96</ele>
        <time>2021-08-14T03:36:19Z</time>
      </trkpt>
      <trkpt lat="46.30249" lon="3.24274">
        <ele>277</ele>
        <time>2021-08-14T03:36:27Z</time>
      </trkpt>
      <trkpt lat="46.30213" lon="3.24255">
        <ele>277</ele>
        <time>2021-08-14T03:36:37Z</time>
      </trkpt>
      <trkpt lat="46.30199" lon="3.24248">
        <ele>278.44</ele>
        <time>2021-08-14T03:36:42Z</time>
      </trkpt>
      <trkpt lat="46.30168" lon="3.24233">
        <ele>278.92</ele>
        <time>2021-08-14T03:36:52Z</time>
      </trkpt>
      <trkpt lat="46.30137" lon="3.24218">
        <ele>279.4</ele>
        <time>2021-08-14T03:37:02Z</time>
      </trkpt>
      <trkpt lat="46.3012" lon="3.24209">
        <ele>279.88</ele>
        <time>2021-08-14T03:37:08Z</time>
      </trkpt>
      <trkpt lat="46.30109" lon="3.24204">
        <ele>279.88</ele>
        <time>2021-08-14T03:37:12Z</time>
      </trkpt>
      <trkpt lat="46.30107" lon="3.24201">
        <ele>279.88</ele>
        <time>2021-08-14T03:37:13Z</time>
      </trkpt>
      <trkpt lat="46.30106" lon="3.24197">
        <ele>279.88</ele>
        <time>2021-08-14T03:37:14Z</time>
      </trkpt>
      <trkpt lat="46.30106" lon="3.24192">
        <ele>279.88</ele>
        <time>2021-08-14T03:37:15Z</time>
      </trkpt>
      <trkpt lat="46.30107" lon="3.24189">
        <ele>279.88</ele>
        <time>2021-08-14T03:37:16Z</time>
      </trkpt>
      <trkpt lat="46.30108" lon="3.24185">
        <ele>279.88</ele>
        <time>2021-08-14T03:37:17Z</time>
      </trkpt>
      <trkpt lat="46.30121" lon="3.24144">
        <ele>281.32</ele>
        <time>2021-08-14T03:37:28Z</time>
      </trkpt>
      <trkpt lat="46.3013" lon="3.24111">
        <ele>281.8</ele>
        <time>2021-08-14T03:37:37Z</time>
      </trkpt>
      <trkpt lat="46.30142" lon="3.24073">
        <ele>283.25</ele>
        <time>2021-08-14T03:37:47Z</time>
      </trkpt>
      <trkpt lat="46.30151" lon="3.24035">
        <ele>284.21</ele>
        <time>2021-08-14T03:37:57Z</time>
      </trkpt>
      <trkpt lat="46.30158" lon="3.24011">
        <ele>285.17</ele>
        <time>2021-08-14T03:38:05Z</time>
      </trkpt>
      <trkpt lat="46.30158" lon="3.24009">
        <ele>285.17</ele>
        <time>2021-08-14T03:38:06Z</time>
      </trkpt>
      <trkpt lat="46.30157" lon="3.24009">
        <ele>285.17</ele>
        <time>2021-08-14T03:38:07Z</time>
      </trkpt>
      <trkpt lat="46.30156" lon="3.24015">
        <ele>285.17</ele>
        <time>2021-08-14T03:38:10Z</time>
      </trkpt>
      <trkpt lat="46.30156" lon="3.24019">
        <ele>285.17</ele>
        <time>2021-08-14T03:38:11Z</time>
      </trkpt>
      <trkpt lat="46.30155" lon="3.24022">
        <ele>285.17</ele>
        <time>2021-08-14T03:38:12Z</time>
      </trkpt>
      <trkpt lat="46.30155" lon="3.24025">
        <ele>285.17</ele>
        <time>2021-08-14T03:38:13Z</time>
      </trkpt>
      <trkpt lat="46.30154" lon="3.24029">
        <ele>285.17</ele>
        <time>2021-08-14T03:38:14Z</time>
      </trkpt>
      <trkpt lat="46.30147" lon="3.24045">
        <ele>284.21</ele>
        <time>2021-08-14T03:38:18Z</time>
      </trkpt>
      <trkpt lat="46.30144" lon="3.24047">
        <ele>284.21</ele>
        <time>2021-08-14T03:38:19Z</time>
      </trkpt>
      <trkpt lat="46.30141" lon="3.24046">
        <ele>284.21</ele>
        <time>2021-08-14T03:38:20Z</time>
      </trkpt>
      <trkpt lat="46.30138" lon="3.24044">
        <ele>284.21</ele>
        <time>2021-08-14T03:38:21Z</time>
      </trkpt>
      <trkpt lat="46.30136" lon="3.24042">
        <ele>284.21</ele>
        <time>2021-08-14T03:38:22Z</time>
      </trkpt>
      <trkpt lat="46.30133" lon="3.2404">
        <ele>284.21</ele>
        <time>2021-08-14T03:38:23Z</time>
      </trkpt>
      <trkpt lat="46.3013" lon="3.24037">
        <ele>284.21</ele>
        <time>2021-08-14T03:38:24Z</time>
      </trkpt>
      <trkpt lat="46.30127" lon="3.24035">
        <ele>284.21</ele>
        <time>2021-08-14T03:38:25Z</time>
      </trkpt>
      <trkpt lat="46.30099" lon="3.24009">
        <ele>285.17</ele>
        <time>2021-08-14T03:38:36Z</time>
      </trkpt>
      <trkpt lat="46.30096" lon="3.2399">
        <ele>285.65</ele>
        <time>2021-08-14T03:38:41Z</time>
      </trkpt>
      <trkpt lat="46.301" lon="3.23968">
        <ele>286.13</ele>
        <time>2021-08-14T03:38:47Z</time>
      </trkpt>
      <trkpt lat="46.30093" lon="3.2395">
        <ele>287.09</ele>
        <time>2021-08-14T03:38:53Z</time>
      </trkpt>
      <trkpt lat="46.30085" lon="3.2393">
        <ele>287.57</ele>
        <time>2021-08-14T03:38:59Z</time>
      </trkpt>
      <trkpt lat="46.30067" lon="3.23905">
        <ele>288.53</ele>
        <time>2021-08-14T03:39:08Z</time>
      </trkpt>
      <trkpt lat="46.30053" lon="3.2389">
        <ele>289.01</ele>
        <time>2021-08-14T03:39:15Z</time>
      </trkpt>
      <trkpt lat="46.30036" lon="3.23867">
        <ele>289.01</ele>
        <time>2021-08-14T03:39:24Z</time>
      </trkpt>
      <trkpt lat="46.30021" lon="3.23839">
        <ele>289.49</ele>
        <time>2021-08-14T03:39:34Z</time>
      </trkpt>
      <trkpt lat="46.30007" lon="3.23813">
        <ele>289.49</ele>
        <time>2021-08-14T03:39:43Z</time>
      </trkpt>
      <trkpt lat="46.29989" lon="3.23785">
        <ele>289.49</ele>
        <time>2021-08-14T03:39:53Z</time>
      </trkpt>
      <trkpt lat="46.29973" lon="3.23766">
        <ele>289.49</ele>
        <time>2021-08-14T03:40:01Z</time>
      </trkpt>
      <trkpt lat="46.29944" lon="3.23742">
        <ele>287.57</ele>
        <time>2021-08-14T03:40:12Z</time>
      </trkpt>
      <trkpt lat="46.29932" lon="3.23725">
        <ele>287.57</ele>
        <time>2021-08-14T03:40:17Z</time>
      </trkpt>
      <trkpt lat="46.29932" lon="3.23722">
        <ele>287.57</ele>
        <time>2021-08-14T03:40:18Z</time>
      </trkpt>
      <trkpt lat="46.29933" lon="3.23718">
        <ele>287.57</ele>
        <time>2021-08-14T03:40:19Z</time>
      </trkpt>
      <trkpt lat="46.29947" lon="3.23689">
        <ele>289.01</ele>
        <time>2021-08-14T03:40:28Z</time>
      </trkpt>
      <trkpt lat="46.29961" lon="3.23661">
        <ele>289.49</ele>
        <time>2021-08-14T03:40:37Z</time>
      </trkpt>
      <trkpt lat="46.29973" lon="3.23636">
        <ele>290.46</ele>
        <time>2021-08-14T03:40:45Z</time>
      </trkpt>
      <trkpt lat="46.29991" lon="3.23599">
        <ele>291.9</ele>
        <time>2021-08-14T03:40:57Z</time>
      </trkpt>
      <trkpt lat="46.30004" lon="3.23567">
        <ele>292.38</ele>
        <time>2021-08-14T03:41:07Z</time>
      </trkpt>
      <trkpt lat="46.30016" lon="3.23536">
        <ele>293.34</ele>
        <time>2021-08-14T03:41:17Z</time>
      </trkpt>
      <trkpt lat="46.3003" lon="3.23506">
        <ele>294.3</ele>
        <time>2021-08-14T03:41:27Z</time>
      </trkpt>
      <trkpt lat="46.30044" lon="3.23477">
        <ele>295.74</ele>
        <time>2021-08-14T03:41:37Z</time>
      </trkpt>
      <trkpt lat="46.30053" lon="3.23455">
        <ele>296.7</ele>
        <time>2021-08-14T03:41:45Z</time>
      </trkpt>
      <trkpt lat="46.30059" lon="3.23435">
        <ele>296.7</ele>
        <time>2021-08-14T03:41:51Z</time>
      </trkpt>
      <trkpt lat="46.30062" lon="3.234">
        <ele>297.67</ele>
        <time>2021-08-14T03:42:01Z</time>
      </trkpt>
      <trkpt lat="46.30063" lon="3.23368">
        <ele>298.63</ele>
        <time>2021-08-14T03:42:10Z</time>
      </trkpt>
      <trkpt lat="46.30064" lon="3.23337">
        <ele>299.59</ele>
        <time>2021-08-14T03:42:19Z</time>
      </trkpt>
      <trkpt lat="46.30065" lon="3.23308">
        <ele>300.55</ele>
        <time>2021-08-14T03:42:28Z</time>
      </trkpt>
      <trkpt lat="46.30065" lon="3.23285">
        <ele>301.99</ele>
        <time>2021-08-14T03:42:36Z</time>
      </trkpt>
      <trkpt lat="46.30064" lon="3.2326">
        <ele>302.95</ele>
        <time>2021-08-14T03:42:45Z</time>
      </trkpt>
      <trkpt lat="46.30062" lon="3.23234">
        <ele>303.91</ele>
        <time>2021-08-14T03:42:54Z</time>
      </trkpt>
      <trkpt lat="46.30058" lon="3.23207">
        <ele>305.36</ele>
        <time>2021-08-14T03:43:04Z</time>
      </trkpt>
      <trkpt lat="46.30057" lon="3.23184">
        <ele>306.32</ele>
        <time>2021-08-14T03:43:13Z</time>
      </trkpt>
      <trkpt lat="46.30056" lon="3.23158">
        <ele>307.76</ele>
        <time>2021-08-14T03:43:23Z</time>
      </trkpt>
      <trkpt lat="46.30055" lon="3.23136">
        <ele>308.24</ele>
        <time>2021-08-14T03:43:32Z</time>
      </trkpt>
      <trkpt lat="46.30056" lon="3.23124">
        <ele>309.2</ele>
        <time>2021-08-14T03:43:37Z</time>
      </trkpt>
      <trkpt lat="46.30056" lon="3.23122">
        <ele>309.68</ele>
        <time>2021-08-14T03:43:38Z</time>
      </trkpt>
      <trkpt lat="46.30056" lon="3.2312">
        <ele>309.68</ele>
        <time>2021-08-14T03:43:39Z</time>
      </trkpt>
      <trkpt lat="46.3006" lon="3.23099">
        <ele>310.64</ele>
        <time>2021-08-14T03:43:48Z</time>
      </trkpt>
      <trkpt lat="46.30059" lon="3.23097">
        <ele>311.12</ele>
        <time>2021-08-14T03:43:49Z</time>
      </trkpt>
      <trkpt lat="46.30059" lon="3.23094">
        <ele>311.12</ele>
        <time>2021-08-14T03:43:50Z</time>
      </trkpt>
      <trkpt lat="46.3006" lon="3.23092">
        <ele>311.12</ele>
        <time>2021-08-14T03:43:51Z</time>
      </trkpt>
      <trkpt lat="46.3006" lon="3.23089">
        <ele>311.12</ele>
        <time>2021-08-14T03:43:52Z</time>
      </trkpt>
      <trkpt lat="46.30063" lon="3.23077">
        <ele>312.09</ele>
        <time>2021-08-14T03:43:58Z</time>
      </trkpt>
      <trkpt lat="46.30067" lon="3.23048">
        <ele>313.05</ele>
        <time>2021-08-14T03:44:09Z</time>
      </trkpt>
      <trkpt lat="46.3007" lon="3.23026">
        <ele>314.01</ele>
        <time>2021-08-14T03:44:18Z</time>
      </trkpt>
      <trkpt lat="46.3007" lon="3.23024">
        <ele>314.01</ele>
        <time>2021-08-14T03:44:19Z</time>
      </trkpt>
      <trkpt lat="46.3007" lon="3.23021">
        <ele>314.01</ele>
        <time>2021-08-14T03:44:20Z</time>
      </trkpt>
      <trkpt lat="46.3007" lon="3.23018">
        <ele>314.01</ele>
        <time>2021-08-14T03:44:21Z</time>
      </trkpt>
      <trkpt lat="46.3007" lon="3.23016">
        <ele>314.01</ele>
        <time>2021-08-14T03:44:22Z</time>
      </trkpt>
      <trkpt lat="46.3007" lon="3.23014">
        <ele>314.49</ele>
        <time>2021-08-14T03:44:23Z</time>
      </trkpt>
      <trkpt lat="46.3007" lon="3.23011">
        <ele>314.49</ele>
        <time>2021-08-14T03:44:24Z</time>
      </trkpt>
      <trkpt lat="46.3007" lon="3.23009">
        <ele>314.49</ele>
        <time>2021-08-14T03:44:25Z</time>
      </trkpt>
      <trkpt lat="46.3007" lon="3.23007">
        <ele>314.49</ele>
        <time>2021-08-14T03:44:26Z</time>
      </trkpt>
      <trkpt lat="46.30071" lon="3.23004">
        <ele>314.49</ele>
        <time>2021-08-14T03:44:27Z</time>
      </trkpt>
      <trkpt lat="46.30073" lon="3.2298">
        <ele>315.45</ele>
        <time>2021-08-14T03:44:37Z</time>
      </trkpt>
      <trkpt lat="46.30074" lon="3.22956">
        <ele>316.41</ele>
        <time>2021-08-14T03:44:47Z</time>
      </trkpt>
      <trkpt lat="46.30076" lon="3.22937">
        <ele>317.85</ele>
        <time>2021-08-14T03:44:55Z</time>
      </trkpt>
      <trkpt lat="46.30078" lon="3.22914">
        <ele>319.3</ele>
        <time>2021-08-14T03:45:05Z</time>
      </trkpt>
      <trkpt lat="46.30078" lon="3.22889">
        <ele>320.74</ele>
        <time>2021-08-14T03:45:16Z</time>
      </trkpt>
      <trkpt lat="46.30079" lon="3.22866">
        <ele>321.22</ele>
        <time>2021-08-14T03:45:26Z</time>
      </trkpt>
      <trkpt lat="46.3008" lon="3.22845">
        <ele>322.18</ele>
        <time>2021-08-14T03:45:35Z</time>
      </trkpt>
      <trkpt lat="46.30081" lon="3.22825">
        <ele>323.14</ele>
        <time>2021-08-14T03:45:44Z</time>
      </trkpt>
      <trkpt lat="46.3008" lon="3.22801">
        <ele>324.1</ele>
        <time>2021-08-14T03:45:54Z</time>
      </trkpt>
      <trkpt lat="46.3008" lon="3.22779">
        <ele>325.06</ele>
        <time>2021-08-14T03:46:04Z</time>
      </trkpt>
      <trkpt lat="46.3008" lon="3.22753">
        <ele>326.5</ele>
        <time>2021-08-14T03:46:15Z</time>
      </trkpt>
      <trkpt lat="46.3008" lon="3.22734">
        <ele>327.47</ele>
        <time>2021-08-14T03:46:24Z</time>
      </trkpt>
      <trkpt lat="46.30081" lon="3.22711">
        <ele>328.43</ele>
        <time>2021-08-14T03:46:34Z</time>
      </trkpt>
      <trkpt lat="46.30083" lon="3.22689">
        <ele>329.39</ele>
        <time>2021-08-14T03:46:44Z</time>
      </trkpt>
      <trkpt lat="46.30086" lon="3.2267">
        <ele>329.87</ele>
        <time>2021-08-14T03:46:53Z</time>
      </trkpt>
      <trkpt lat="46.30086" lon="3.22668">
        <ele>329.87</ele>
        <time>2021-08-14T03:46:54Z</time>
      </trkpt>
      <trkpt lat="46.30086" lon="3.22665">
        <ele>330.35</ele>
        <time>2021-08-14T03:46:55Z</time>
      </trkpt>
      <trkpt lat="46.30087" lon="3.22652">
        <ele>330.35</ele>
        <time>2021-08-14T03:47:01Z</time>
      </trkpt>
      <trkpt lat="46.30088" lon="3.2265">
        <ele>330.83</ele>
        <time>2021-08-14T03:47:02Z</time>
      </trkpt>
      <trkpt lat="46.30091" lon="3.22631">
        <ele>331.79</ele>
        <time>2021-08-14T03:47:11Z</time>
      </trkpt>
      <trkpt lat="46.30093" lon="3.22615">
        <ele>332.27</ele>
        <time>2021-08-14T03:47:18Z</time>
      </trkpt>
      <trkpt lat="46.30096" lon="3.22594">
        <ele>333.71</ele>
        <time>2021-08-14T03:47:30Z</time>
      </trkpt>
      <trkpt lat="46.301" lon="3.22574">
        <ele>334.68</ele>
        <time>2021-08-14T03:47:40Z</time>
      </trkpt>
      <trkpt lat="46.30101" lon="3.22567">
        <ele>335.16</ele>
        <time>2021-08-14T03:47:43Z</time>
      </trkpt>
      <trkpt lat="46.30101" lon="3.22565">
        <ele>335.16</ele>
        <time>2021-08-14T03:47:44Z</time>
      </trkpt>
      <trkpt lat="46.30102" lon="3.22563">
        <ele>335.16</ele>
        <time>2021-08-14T03:47:45Z</time>
      </trkpt>
      <trkpt lat="46.30105" lon="3.22545">
        <ele>335.64</ele>
        <time>2021-08-14T03:47:54Z</time>
      </trkpt>
      <trkpt lat="46.30109" lon="3.22524">
        <ele>336.6</ele>
        <time>2021-08-14T03:48:03Z</time>
      </trkpt>
      <trkpt lat="46.30111" lon="3.22503">
        <ele>337.08</ele>
        <time>2021-08-14T03:48:12Z</time>
      </trkpt>
      <trkpt lat="46.30114" lon="3.22483">
        <ele>338.04</ele>
        <time>2021-08-14T03:48:21Z</time>
      </trkpt>
      <trkpt lat="46.30118" lon="3.22457">
        <ele>338.04</ele>
        <time>2021-08-14T03:48:32Z</time>
      </trkpt>
      <trkpt lat="46.30123" lon="3.22432">
        <ele>338.52</ele>
        <time>2021-08-14T03:48:42Z</time>
      </trkpt>
      <trkpt lat="46.30128" lon="3.22408">
        <ele>339</ele>
        <time>2021-08-14T03:48:50Z</time>
      </trkpt>
      <trkpt lat="46.30133" lon="3.22383">
        <ele>339.48</ele>
        <time>2021-08-14T03:48:59Z</time>
      </trkpt>
      <trkpt lat="46.30135" lon="3.22367">
        <ele>339.96</ele>
        <time>2021-08-14T03:49:05Z</time>
      </trkpt>
      <trkpt lat="46.30141" lon="3.22344">
        <ele>340.44</ele>
        <time>2021-08-14T03:49:14Z</time>
      </trkpt>
      <trkpt lat="46.30147" lon="3.22318">
        <ele>340.44</ele>
        <time>2021-08-14T03:49:23Z</time>
      </trkpt>
      <trkpt lat="46.30154" lon="3.22294">
        <ele>340.92</ele>
        <time>2021-08-14T03:49:32Z</time>
      </trkpt>
      <trkpt lat="46.30162" lon="3.2227">
        <ele>340.92</ele>
        <time>2021-08-14T03:49:40Z</time>
      </trkpt>
      <trkpt lat="46.30169" lon="3.22246">
        <ele>341.41</ele>
        <time>2021-08-14T03:49:48Z</time>
      </trkpt>
      <trkpt lat="46.30176" lon="3.22224">
        <ele>341.41</ele>
        <time>2021-08-14T03:49:55Z</time>
      </trkpt>
      <trkpt lat="46.30182" lon="3.22191">
        <ele>341.41</ele>
        <time>2021-08-14T03:50:05Z</time>
      </trkpt>
      <trkpt lat="46.30186" lon="3.22165">
        <ele>341.41</ele>
        <time>2021-08-14T03:50:13Z</time>
      </trkpt>
      <trkpt lat="46.30189" lon="3.22135">
        <ele>341.89</ele>
        <time>2021-08-14T03:50:22Z</time>
      </trkpt>
      <trkpt lat="46.30192" lon="3.2211">
        <ele>342.37</ele>
        <time>2021-08-14T03:50:30Z</time>
      </trkpt>
      <trkpt lat="46.30196" lon="3.22087">
        <ele>342.37</ele>
        <time>2021-08-14T03:50:37Z</time>
      </trkpt>
      <trkpt lat="46.30199" lon="3.22059">
        <ele>342.85</ele>
        <time>2021-08-14T03:50:45Z</time>
      </trkpt>
      <trkpt lat="46.30203" lon="3.22027">
        <ele>342.85</ele>
        <time>2021-08-14T03:50:54Z</time>
      </trkpt>
      <trkpt lat="46.30207" lon="3.21991">
        <ele>343.33</ele>
        <time>2021-08-14T03:51:04Z</time>
      </trkpt>
      <trkpt lat="46.30208" lon="3.21971">
        <ele>343.81</ele>
        <time>2021-08-14T03:51:10Z</time>
      </trkpt>
      <trkpt lat="46.30207" lon="3.21969">
        <ele>343.81</ele>
        <time>2021-08-14T03:51:11Z</time>
      </trkpt>
      <trkpt lat="46.30205" lon="3.21968">
        <ele>343.81</ele>
        <time>2021-08-14T03:51:12Z</time>
      </trkpt>
      <trkpt lat="46.30203" lon="3.21967">
        <ele>343.81</ele>
        <time>2021-08-14T03:51:13Z</time>
      </trkpt>
      <trkpt lat="46.302" lon="3.21967">
        <ele>343.81</ele>
        <time>2021-08-14T03:51:14Z</time>
      </trkpt>
      <trkpt lat="46.30182" lon="3.2196">
        <ele>343.81</ele>
        <time>2021-08-14T03:51:21Z</time>
      </trkpt>
      <trkpt lat="46.30161" lon="3.21952">
        <ele>343.81</ele>
        <time>2021-08-14T03:51:29Z</time>
      </trkpt>
      <trkpt lat="46.30137" lon="3.21942">
        <ele>343.81</ele>
        <time>2021-08-14T03:51:38Z</time>
      </trkpt>
      <trkpt lat="46.30108" lon="3.21932">
        <ele>343.81</ele>
        <time>2021-08-14T03:51:48Z</time>
      </trkpt>
      <trkpt lat="46.30087" lon="3.21924">
        <ele>342.37</ele>
        <time>2021-08-14T03:51:54Z</time>
      </trkpt>
      <trkpt lat="46.30048" lon="3.21909">
        <ele>341.89</ele>
        <time>2021-08-14T03:52:05Z</time>
      </trkpt>
      <trkpt lat="46.3001" lon="3.21895">
        <ele>339.48</ele>
        <time>2021-08-14T03:52:14Z</time>
      </trkpt>
      <trkpt lat="46.29966" lon="3.21878">
        <ele>337.56</ele>
        <time>2021-08-14T03:52:23Z</time>
      </trkpt>
      <trkpt lat="46.29926" lon="3.21863">
        <ele>336.12</ele>
        <time>2021-08-14T03:52:31Z</time>
      </trkpt>
      <trkpt lat="46.29873" lon="3.2184">
        <ele>332.27</ele>
        <time>2021-08-14T03:52:41Z</time>
      </trkpt>
      <trkpt lat="46.29862" lon="3.21832">
        <ele>331.79</ele>
        <time>2021-08-14T03:52:43Z</time>
      </trkpt>
      <trkpt lat="46.2983" lon="3.21808">
        <ele>328.43</ele>
        <time>2021-08-14T03:52:49Z</time>
      </trkpt>
      <trkpt lat="46.29794" lon="3.21785">
        <ele>325.06</ele>
        <time>2021-08-14T03:52:55Z</time>
      </trkpt>
      <trkpt lat="46.29787" lon="3.21781">
        <ele>325.06</ele>
        <time>2021-08-14T03:52:56Z</time>
      </trkpt>
      <trkpt lat="46.29767" lon="3.21774">
        <ele>323.62</ele>
        <time>2021-08-14T03:52:59Z</time>
      </trkpt>
      <trkpt lat="46.2976" lon="3.21773">
        <ele>323.14</ele>
        <time>2021-08-14T03:53:00Z</time>
      </trkpt>
      <trkpt lat="46.29746" lon="3.21772">
        <ele>322.18</ele>
        <time>2021-08-14T03:53:02Z</time>
      </trkpt>
      <trkpt lat="46.29701" lon="3.21772">
        <ele>318.81</ele>
        <time>2021-08-14T03:53:08Z</time>
      </trkpt>
      <trkpt lat="46.29649" lon="3.21771">
        <ele>315.45</ele>
        <time>2021-08-14T03:53:15Z</time>
      </trkpt>
      <trkpt lat="46.29607" lon="3.21775">
        <ele>313.05</ele>
        <time>2021-08-14T03:53:21Z</time>
      </trkpt>
      <trkpt lat="46.2956" lon="3.21787">
        <ele>311.6</ele>
        <time>2021-08-14T03:53:28Z</time>
      </trkpt>
      <trkpt lat="46.29539" lon="3.21791">
        <ele>310.64</ele>
        <time>2021-08-14T03:53:31Z</time>
      </trkpt>
      <trkpt lat="46.29532" lon="3.21793">
        <ele>310.64</ele>
        <time>2021-08-14T03:53:32Z</time>
      </trkpt>
      <trkpt lat="46.29489" lon="3.21808">
        <ele>310.16</ele>
        <time>2021-08-14T03:53:39Z</time>
      </trkpt>
      <trkpt lat="46.29479" lon="3.21801">
        <ele>309.68</ele>
        <time>2021-08-14T03:53:42Z</time>
      </trkpt>
      <trkpt lat="46.29475" lon="3.21801">
        <ele>309.68</ele>
        <time>2021-08-14T03:53:43Z</time>
      </trkpt>
      <trkpt lat="46.29466" lon="3.21799">
        <ele>308.72</ele>
        <time>2021-08-14T03:53:45Z</time>
      </trkpt>
      <trkpt lat="46.29456" lon="3.21796">
        <ele>308.24</ele>
        <time>2021-08-14T03:53:47Z</time>
      </trkpt>
      <trkpt lat="46.29427" lon="3.2179">
        <ele>307.76</ele>
        <time>2021-08-14T03:53:53Z</time>
      </trkpt>
      <trkpt lat="46.29386" lon="3.21771">
        <ele>307.28</ele>
        <time>2021-08-14T03:54:02Z</time>
      </trkpt>
      <trkpt lat="46.29352" lon="3.21757">
        <ele>306.8</ele>
        <time>2021-08-14T03:54:09Z</time>
      </trkpt>
      <trkpt lat="46.29306" lon="3.21728">
        <ele>304.88</ele>
        <time>2021-08-14T03:54:19Z</time>
      </trkpt>
      <trkpt lat="46.29259" lon="3.217">
        <ele>303.43</ele>
        <time>2021-08-14T03:54:29Z</time>
      </trkpt>
      <trkpt lat="46.29219" lon="3.21676">
        <ele>302.47</ele>
        <time>2021-08-14T03:54:38Z</time>
      </trkpt>
      <trkpt lat="46.29175" lon="3.21652">
        <ele>301.99</ele>
        <time>2021-08-14T03:54:49Z</time>
      </trkpt>
      <trkpt lat="46.29171" lon="3.2165">
        <ele>301.99</ele>
        <time>2021-08-14T03:54:50Z</time>
      </trkpt>
      <trkpt lat="46.29167" lon="3.21648">
        <ele>301.51</ele>
        <time>2021-08-14T03:54:51Z</time>
      </trkpt>
      <trkpt lat="46.29162" lon="3.21646">
        <ele>301.51</ele>
        <time>2021-08-14T03:54:52Z</time>
      </trkpt>
      <trkpt lat="46.29121" lon="3.21625">
        <ele>301.03</ele>
        <time>2021-08-14T03:55:02Z</time>
      </trkpt>
      <trkpt lat="46.29078" lon="3.21606">
        <ele>300.55</ele>
        <time>2021-08-14T03:55:13Z</time>
      </trkpt>
      <trkpt lat="46.29042" lon="3.21591">
        <ele>300.07</ele>
        <time>2021-08-14T03:55:22Z</time>
      </trkpt>
      <trkpt lat="46.29003" lon="3.21575">
        <ele>299.59</ele>
        <time>2021-08-14T03:55:32Z</time>
      </trkpt>
      <trkpt lat="46.28961" lon="3.21551">
        <ele>297.67</ele>
        <time>2021-08-14T03:55:42Z</time>
      </trkpt>
      <trkpt lat="46.28954" lon="3.21547">
        <ele>297.67</ele>
        <time>2021-08-14T03:55:44Z</time>
      </trkpt>
      <trkpt lat="46.2895" lon="3.21544">
        <ele>297.67</ele>
        <time>2021-08-14T03:55:45Z</time>
      </trkpt>
      <trkpt lat="46.28947" lon="3.21542">
        <ele>297.67</ele>
        <time>2021-08-14T03:55:46Z</time>
      </trkpt>
      <trkpt lat="46.28943" lon="3.21539">
        <ele>297.67</ele>
        <time>2021-08-14T03:55:47Z</time>
      </trkpt>
      <trkpt lat="46.28939" lon="3.21537">
        <ele>297.18</ele>
        <time>2021-08-14T03:55:48Z</time>
      </trkpt>
      <trkpt lat="46.28899" lon="3.21508">
        <ele>295.74</ele>
        <time>2021-08-14T03:55:58Z</time>
      </trkpt>
      <trkpt lat="46.28865" lon="3.21484">
        <ele>293.82</ele>
        <time>2021-08-14T03:56:06Z</time>
      </trkpt>
      <trkpt lat="46.28834" lon="3.21462">
        <ele>292.86</ele>
        <time>2021-08-14T03:56:14Z</time>
      </trkpt>
      <trkpt lat="46.28805" lon="3.21446">
        <ele>292.38</ele>
        <time>2021-08-14T03:56:22Z</time>
      </trkpt>
      <trkpt lat="46.28771" lon="3.21431">
        <ele>291.9</ele>
        <time>2021-08-14T03:56:31Z</time>
      </trkpt>
      <trkpt lat="46.28747" lon="3.21418">
        <ele>291.9</ele>
        <time>2021-08-14T03:56:38Z</time>
      </trkpt>
      <trkpt lat="46.28713" lon="3.21395">
        <ele>290.46</ele>
        <time>2021-08-14T03:56:47Z</time>
      </trkpt>
      <trkpt lat="46.28684" lon="3.21375">
        <ele>289.49</ele>
        <time>2021-08-14T03:56:55Z</time>
      </trkpt>
      <trkpt lat="46.28677" lon="3.21371">
        <ele>289.49</ele>
        <time>2021-08-14T03:56:57Z</time>
      </trkpt>
      <trkpt lat="46.28673" lon="3.21369">
        <ele>289.49</ele>
        <time>2021-08-14T03:56:58Z</time>
      </trkpt>
      <trkpt lat="46.28646" lon="3.21352">
        <ele>289.49</ele>
        <time>2021-08-14T03:57:06Z</time>
      </trkpt>
      <trkpt lat="46.2862" lon="3.21335">
        <ele>289.49</ele>
        <time>2021-08-14T03:57:14Z</time>
      </trkpt>
      <trkpt lat="46.28595" lon="3.21316">
        <ele>289.49</ele>
        <time>2021-08-14T03:57:22Z</time>
      </trkpt>
      <trkpt lat="46.28568" lon="3.213">
        <ele>289.49</ele>
        <time>2021-08-14T03:57:29Z</time>
      </trkpt>
      <trkpt lat="46.28527" lon="3.21275">
        <ele>288.53</ele>
        <time>2021-08-14T03:57:39Z</time>
      </trkpt>
      <trkpt lat="46.28503" lon="3.2126">
        <ele>287.57</ele>
        <time>2021-08-14T03:57:46Z</time>
      </trkpt>
      <trkpt lat="46.28478" lon="3.21249">
        <ele>287.57</ele>
        <time>2021-08-14T03:57:53Z</time>
      </trkpt>
      <trkpt lat="46.28449" lon="3.21237">
        <ele>286.61</ele>
        <time>2021-08-14T03:58:01Z</time>
      </trkpt>
      <trkpt lat="46.28412" lon="3.21223">
        <ele>284.69</ele>
        <time>2021-08-14T03:58:10Z</time>
      </trkpt>
      <trkpt lat="46.28375" lon="3.21207">
        <ele>283.25</ele>
        <time>2021-08-14T03:58:19Z</time>
      </trkpt>
      <trkpt lat="46.28355" lon="3.21199">
        <ele>282.28</ele>
        <time>2021-08-14T03:58:24Z</time>
      </trkpt>
      <trkpt lat="46.28351" lon="3.21198">
        <ele>282.28</ele>
        <time>2021-08-14T03:58:25Z</time>
      </trkpt>
      <trkpt lat="46.28326" lon="3.21194">
        <ele>282.28</ele>
        <time>2021-08-14T03:58:32Z</time>
      </trkpt>
      <trkpt lat="46.28301" lon="3.21192">
        <ele>282.28</ele>
        <time>2021-08-14T03:58:39Z</time>
      </trkpt>
      <trkpt lat="46.28273" lon="3.21183">
        <ele>282.28</ele>
        <time>2021-08-14T03:58:47Z</time>
      </trkpt>
      <trkpt lat="46.28257" lon="3.21175">
        <ele>282.28</ele>
        <time>2021-08-14T03:58:52Z</time>
      </trkpt>
      <trkpt lat="46.28254" lon="3.21175">
        <ele>282.28</ele>
        <time>2021-08-14T03:58:53Z</time>
      </trkpt>
      <trkpt lat="46.28253" lon="3.21174">
        <ele>282.28</ele>
        <time>2021-08-14T03:58:57Z</time>
      </trkpt>
      <trkpt lat="46.28253" lon="3.21172">
        <ele>282.77</ele>
        <time>2021-08-14T03:58:59Z</time>
      </trkpt>
      <trkpt lat="46.28251" lon="3.21171">
        <ele>282.28</ele>
        <time>2021-08-14T03:59:00Z</time>
      </trkpt>
      <trkpt lat="46.2825" lon="3.2117">
        <ele>282.28</ele>
        <time>2021-08-14T03:59:01Z</time>
      </trkpt>
      <trkpt lat="46.28248" lon="3.21169">
        <ele>282.28</ele>
        <time>2021-08-14T03:59:02Z</time>
      </trkpt>
      <trkpt lat="46.28247" lon="3.21168">
        <ele>282.28</ele>
        <time>2021-08-14T03:59:03Z</time>
      </trkpt>
      <trkpt lat="46.28244" lon="3.21166">
        <ele>282.77</ele>
        <time>2021-08-14T03:59:04Z</time>
      </trkpt>
      <trkpt lat="46.28222" lon="3.21154">
        <ele>282.28</ele>
        <time>2021-08-14T03:59:10Z</time>
      </trkpt>
      <trkpt lat="46.28202" lon="3.2114">
        <ele>281.8</ele>
        <time>2021-08-14T03:59:16Z</time>
      </trkpt>
      <trkpt lat="46.28172" lon="3.21119">
        <ele>280.84</ele>
        <time>2021-08-14T03:59:24Z</time>
      </trkpt>
      <trkpt lat="46.28137" lon="3.21096">
        <ele>280.36</ele>
        <time>2021-08-14T03:59:33Z</time>
      </trkpt>
      <trkpt lat="46.28102" lon="3.21072">
        <ele>279.88</ele>
        <time>2021-08-14T03:59:42Z</time>
      </trkpt>
      <trkpt lat="46.28061" lon="3.21046">
        <ele>277.96</ele>
        <time>2021-08-14T03:59:51Z</time>
      </trkpt>
      <trkpt lat="46.28016" lon="3.21024">
        <ele>276.52</ele>
        <time>2021-08-14T04:00:00Z</time>
      </trkpt>
      <trkpt lat="46.28006" lon="3.2102">
        <ele>276.04</ele>
        <time>2021-08-14T04:00:02Z</time>
      </trkpt>
      <trkpt lat="46.28001" lon="3.21018">
        <ele>276.04</ele>
        <time>2021-08-14T04:00:03Z</time>
      </trkpt>
      <trkpt lat="46.27986" lon="3.2101">
        <ele>275.56</ele>
        <time>2021-08-14T04:00:06Z</time>
      </trkpt>
      <trkpt lat="46.27982" lon="3.21006">
        <ele>274.59</ele>
        <time>2021-08-14T04:00:07Z</time>
      </trkpt>
      <trkpt lat="46.27978" lon="3.21002">
        <ele>274.59</ele>
        <time>2021-08-14T04:00:08Z</time>
      </trkpt>
      <trkpt lat="46.27977" lon="3.20998">
        <ele>274.11</ele>
        <time>2021-08-14T04:00:09Z</time>
      </trkpt>
      <trkpt lat="46.27976" lon="3.20994">
        <ele>274.11</ele>
        <time>2021-08-14T04:00:10Z</time>
      </trkpt>
      <trkpt lat="46.27976" lon="3.2099">
        <ele>274.11</ele>
        <time>2021-08-14T04:00:11Z</time>
      </trkpt>
      <trkpt lat="46.27977" lon="3.20985">
        <ele>274.11</ele>
        <time>2021-08-14T04:00:12Z</time>
      </trkpt>
      <trkpt lat="46.27978" lon="3.20981">
        <ele>273.63</ele>
        <time>2021-08-14T04:00:13Z</time>
      </trkpt>
      <trkpt lat="46.27979" lon="3.20976">
        <ele>274.11</ele>
        <time>2021-08-14T04:00:14Z</time>
      </trkpt>
      <trkpt lat="46.27989" lon="3.20941">
        <ele>273.63</ele>
        <time>2021-08-14T04:00:22Z</time>
      </trkpt>
      <trkpt lat="46.27994" lon="3.20917">
        <ele>274.11</ele>
        <time>2021-08-14T04:00:27Z</time>
      </trkpt>
      <trkpt lat="46.27993" lon="3.20914">
        <ele>274.11</ele>
        <time>2021-08-14T04:00:28Z</time>
      </trkpt>
      <trkpt lat="46.27994" lon="3.20911">
        <ele>274.11</ele>
        <time>2021-08-14T04:00:29Z</time>
      </trkpt>
      <trkpt lat="46.27994" lon="3.20909">
        <ele>274.11</ele>
        <time>2021-08-14T04:00:30Z</time>
      </trkpt>
      <trkpt lat="46.27995" lon="3.20906">
        <ele>274.11</ele>
        <time>2021-08-14T04:00:31Z</time>
      </trkpt>
      <trkpt lat="46.27996" lon="3.20903">
        <ele>274.11</ele>
        <time>2021-08-14T04:00:32Z</time>
      </trkpt>
      <trkpt lat="46.28002" lon="3.20878">
        <ele>273.63</ele>
        <time>2021-08-14T04:00:39Z</time>
      </trkpt>
      <trkpt lat="46.28005" lon="3.20853">
        <ele>271.71</ele>
        <time>2021-08-14T04:00:45Z</time>
      </trkpt>
      <trkpt lat="46.28006" lon="3.20839">
        <ele>273.15</ele>
        <time>2021-08-14T04:00:50Z</time>
      </trkpt>
      <trkpt lat="46.28003" lon="3.20826">
        <ele>274.59</ele>
        <time>2021-08-14T04:00:57Z</time>
      </trkpt>
      <trkpt lat="46.28" lon="3.20808">
        <ele>276.52</ele>
        <time>2021-08-14T04:01:06Z</time>
      </trkpt>
      <trkpt lat="46.27995" lon="3.20789">
        <ele>277.96</ele>
        <time>2021-08-14T04:01:15Z</time>
      </trkpt>
      <trkpt lat="46.27991" lon="3.20771">
        <ele>279.4</ele>
        <time>2021-08-14T04:01:23Z</time>
      </trkpt>
      <trkpt lat="46.2799" lon="3.20752">
        <ele>280.36</ele>
        <time>2021-08-14T04:01:32Z</time>
      </trkpt>
      <trkpt lat="46.27985" lon="3.20732">
        <ele>281.8</ele>
        <time>2021-08-14T04:01:41Z</time>
      </trkpt>
      <trkpt lat="46.27979" lon="3.20712">
        <ele>282.28</ele>
        <time>2021-08-14T04:01:49Z</time>
      </trkpt>
      <trkpt lat="46.27974" lon="3.20693">
        <ele>283.73</ele>
        <time>2021-08-14T04:01:57Z</time>
      </trkpt>
      <trkpt lat="46.2797" lon="3.20674">
        <ele>284.69</ele>
        <time>2021-08-14T04:02:05Z</time>
      </trkpt>
      <trkpt lat="46.27965" lon="3.20654">
        <ele>285.65</ele>
        <time>2021-08-14T04:02:14Z</time>
      </trkpt>
      <trkpt lat="46.2796" lon="3.20636">
        <ele>286.61</ele>
        <time>2021-08-14T04:02:22Z</time>
      </trkpt>
      <trkpt lat="46.27955" lon="3.20617">
        <ele>287.09</ele>
        <time>2021-08-14T04:02:30Z</time>
      </trkpt>
      <trkpt lat="46.27951" lon="3.20599">
        <ele>287.57</ele>
        <time>2021-08-14T04:02:37Z</time>
      </trkpt>
      <trkpt lat="46.27949" lon="3.20581">
        <ele>288.53</ele>
        <time>2021-08-14T04:02:44Z</time>
      </trkpt>
      <trkpt lat="46.27951" lon="3.20554">
        <ele>288.53</ele>
        <time>2021-08-14T04:02:53Z</time>
      </trkpt>
      <trkpt lat="46.27955" lon="3.2053">
        <ele>289.01</ele>
        <time>2021-08-14T04:03:01Z</time>
      </trkpt>
      <trkpt lat="46.27962" lon="3.20505">
        <ele>289.49</ele>
        <time>2021-08-14T04:03:09Z</time>
      </trkpt>
      <trkpt lat="46.2797" lon="3.2048">
        <ele>289.97</ele>
        <time>2021-08-14T04:03:17Z</time>
      </trkpt>
      <trkpt lat="46.2798" lon="3.20449">
        <ele>289.97</ele>
        <time>2021-08-14T04:03:26Z</time>
      </trkpt>
      <trkpt lat="46.27991" lon="3.20416">
        <ele>290.46</ele>
        <time>2021-08-14T04:03:35Z</time>
      </trkpt>
      <trkpt lat="46.28" lon="3.20387">
        <ele>290.94</ele>
        <time>2021-08-14T04:03:43Z</time>
      </trkpt>
      <trkpt lat="46.2801" lon="3.20358">
        <ele>291.42</ele>
        <time>2021-08-14T04:03:51Z</time>
      </trkpt>
      <trkpt lat="46.28017" lon="3.20332">
        <ele>292.38</ele>
        <time>2021-08-14T04:03:58Z</time>
      </trkpt>
      <trkpt lat="46.28023" lon="3.20302">
        <ele>292.38</ele>
        <time>2021-08-14T04:04:06Z</time>
      </trkpt>
      <trkpt lat="46.28024" lon="3.20278">
        <ele>293.34</ele>
        <time>2021-08-14T04:04:13Z</time>
      </trkpt>
      <trkpt lat="46.28026" lon="3.20259">
        <ele>293.82</ele>
        <time>2021-08-14T04:04:19Z</time>
      </trkpt>
      <trkpt lat="46.2803" lon="3.20236">
        <ele>294.78</ele>
        <time>2021-08-14T04:04:26Z</time>
      </trkpt>
      <trkpt lat="46.28036" lon="3.20202">
        <ele>295.74</ele>
        <time>2021-08-14T04:04:36Z</time>
      </trkpt>
      <trkpt lat="46.2804" lon="3.20173">
        <ele>296.22</ele>
        <time>2021-08-14T04:04:45Z</time>
      </trkpt>
      <trkpt lat="46.28044" lon="3.20146">
        <ele>296.7</ele>
        <time>2021-08-14T04:04:53Z</time>
      </trkpt>
      <trkpt lat="46.28049" lon="3.20113">
        <ele>297.18</ele>
        <time>2021-08-14T04:05:02Z</time>
      </trkpt>
      <trkpt lat="46.28054" lon="3.20084">
        <ele>298.15</ele>
        <time>2021-08-14T04:05:10Z</time>
      </trkpt>
      <trkpt lat="46.28058" lon="3.20057">
        <ele>298.63</ele>
        <time>2021-08-14T04:05:18Z</time>
      </trkpt>
      <trkpt lat="46.2806" lon="3.20038">
        <ele>300.55</ele>
        <time>2021-08-14T04:05:25Z</time>
      </trkpt>
      <trkpt lat="46.28062" lon="3.20019">
        <ele>301.03</ele>
        <time>2021-08-14T04:05:32Z</time>
      </trkpt>
      <trkpt lat="46.28065" lon="3.19983">
        <ele>301.51</ele>
        <time>2021-08-14T04:05:42Z</time>
      </trkpt>
      <trkpt lat="46.28066" lon="3.19958">
        <ele>302.47</ele>
        <time>2021-08-14T04:05:50Z</time>
      </trkpt>
      <trkpt lat="46.28066" lon="3.19926">
        <ele>304.39</ele>
        <time>2021-08-14T04:06:01Z</time>
      </trkpt>
      <trkpt lat="46.28067" lon="3.19896">
        <ele>304.39</ele>
        <time>2021-08-14T04:06:10Z</time>
      </trkpt>
      <trkpt lat="46.28067" lon="3.19864">
        <ele>305.36</ele>
        <time>2021-08-14T04:06:20Z</time>
      </trkpt>
      <trkpt lat="46.28068" lon="3.19844">
        <ele>305.84</ele>
        <time>2021-08-14T04:06:26Z</time>
      </trkpt>
      <trkpt lat="46.28067" lon="3.19797">
        <ele>306.32</ele>
        <time>2021-08-14T04:06:37Z</time>
      </trkpt>
      <trkpt lat="46.28064" lon="3.19758">
        <ele>306.8</ele>
        <time>2021-08-14T04:06:46Z</time>
      </trkpt>
      <trkpt lat="46.28063" lon="3.19728">
        <ele>306.8</ele>
        <time>2021-08-14T04:06:53Z</time>
      </trkpt>
      <trkpt lat="46.28061" lon="3.19691">
        <ele>307.76</ele>
        <time>2021-08-14T04:07:02Z</time>
      </trkpt>
      <trkpt lat="46.28063" lon="3.19656">
        <ele>308.72</ele>
        <time>2021-08-14T04:07:11Z</time>
      </trkpt>
      <trkpt lat="46.28063" lon="3.19616">
        <ele>309.68</ele>
        <time>2021-08-14T04:07:22Z</time>
      </trkpt>
      <trkpt lat="46.28064" lon="3.19585">
        <ele>310.64</ele>
        <time>2021-08-14T04:07:31Z</time>
      </trkpt>
      <trkpt lat="46.28066" lon="3.19553">
        <ele>311.6</ele>
        <time>2021-08-14T04:07:40Z</time>
      </trkpt>
      <trkpt lat="46.28067" lon="3.19522">
        <ele>312.57</ele>
        <time>2021-08-14T04:07:49Z</time>
      </trkpt>
      <trkpt lat="46.28068" lon="3.19487">
        <ele>313.53</ele>
        <time>2021-08-14T04:07:59Z</time>
      </trkpt>
      <trkpt lat="46.28069" lon="3.19459">
        <ele>314.49</ele>
        <time>2021-08-14T04:08:07Z</time>
      </trkpt>
      <trkpt lat="46.28071" lon="3.19426">
        <ele>315.45</ele>
        <time>2021-08-14T04:08:16Z</time>
      </trkpt>
      <trkpt lat="46.28073" lon="3.19383">
        <ele>316.89</ele>
        <time>2021-08-14T04:08:28Z</time>
      </trkpt>
      <trkpt lat="46.28075" lon="3.19348">
        <ele>317.37</ele>
        <time>2021-08-14T04:08:38Z</time>
      </trkpt>
      <trkpt lat="46.28075" lon="3.19317">
        <ele>317.85</ele>
        <time>2021-08-14T04:08:47Z</time>
      </trkpt>
      <trkpt lat="46.28076" lon="3.19282">
        <ele>318.81</ele>
        <time>2021-08-14T04:08:57Z</time>
      </trkpt>
      <trkpt lat="46.28076" lon="3.19253">
        <ele>320.26</ele>
        <time>2021-08-14T04:09:06Z</time>
      </trkpt>
      <trkpt lat="46.28076" lon="3.19224">
        <ele>321.22</ele>
        <time>2021-08-14T04:09:15Z</time>
      </trkpt>
      <trkpt lat="46.28075" lon="3.1919">
        <ele>321.7</ele>
        <time>2021-08-14T04:09:23Z</time>
      </trkpt>
      <trkpt lat="46.28077" lon="3.1916">
        <ele>322.18</ele>
        <time>2021-08-14T04:09:32Z</time>
      </trkpt>
      <trkpt lat="46.28077" lon="3.19134">
        <ele>323.62</ele>
        <time>2021-08-14T04:09:40Z</time>
      </trkpt>
      <trkpt lat="46.28078" lon="3.19104">
        <ele>324.58</ele>
        <time>2021-08-14T04:09:49Z</time>
      </trkpt>
      <trkpt lat="46.28079" lon="3.19077">
        <ele>325.06</ele>
        <time>2021-08-14T04:09:57Z</time>
      </trkpt>
      <trkpt lat="46.28079" lon="3.19038">
        <ele>326.02</ele>
        <time>2021-08-14T04:10:08Z</time>
      </trkpt>
      <trkpt lat="46.28079" lon="3.1901">
        <ele>326.99</ele>
        <time>2021-08-14T04:10:16Z</time>
      </trkpt>
      <trkpt lat="46.2808" lon="3.18973">
        <ele>327.47</ele>
        <time>2021-08-14T04:10:27Z</time>
      </trkpt>
      <trkpt lat="46.2808" lon="3.18943">
        <ele>328.91</ele>
        <time>2021-08-14T04:10:36Z</time>
      </trkpt>
      <trkpt lat="46.2808" lon="3.18913">
        <ele>329.39</ele>
        <time>2021-08-14T04:10:45Z</time>
      </trkpt>
      <trkpt lat="46.28081" lon="3.18888">
        <ele>330.35</ele>
        <time>2021-08-14T04:10:52Z</time>
      </trkpt>
      <trkpt lat="46.28081" lon="3.18859">
        <ele>331.31</ele>
        <time>2021-08-14T04:11:00Z</time>
      </trkpt>
      <trkpt lat="46.28082" lon="3.18827">
        <ele>331.79</ele>
        <time>2021-08-14T04:11:09Z</time>
      </trkpt>
      <trkpt lat="46.28083" lon="3.18795">
        <ele>332.75</ele>
        <time>2021-08-14T04:11:18Z</time>
      </trkpt>
      <trkpt lat="46.28084" lon="3.18764">
        <ele>333.71</ele>
        <time>2021-08-14T04:11:27Z</time>
      </trkpt>
      <trkpt lat="46.28077" lon="3.18727">
        <ele>334.2</ele>
        <time>2021-08-14T04:11:37Z</time>
      </trkpt>
      <trkpt lat="46.28062" lon="3.18681">
        <ele>335.16</ele>
        <time>2021-08-14T04:11:49Z</time>
      </trkpt>
      <trkpt lat="46.28054" lon="3.18651">
        <ele>335.64</ele>
        <time>2021-08-14T04:11:57Z</time>
      </trkpt>
      <trkpt lat="46.28048" lon="3.18623">
        <ele>336.6</ele>
        <time>2021-08-14T04:12:05Z</time>
      </trkpt>
      <trkpt lat="46.28054" lon="3.18588">
        <ele>338.04</ele>
        <time>2021-08-14T04:12:15Z</time>
      </trkpt>
      <trkpt lat="46.28059" lon="3.18558">
        <ele>339</ele>
        <time>2021-08-14T04:12:24Z</time>
      </trkpt>
      <trkpt lat="46.28066" lon="3.18521">
        <ele>341.41</ele>
        <time>2021-08-14T04:12:36Z</time>
      </trkpt>
      <trkpt lat="46.28069" lon="3.18499">
        <ele>342.37</ele>
        <time>2021-08-14T04:12:44Z</time>
      </trkpt>
      <trkpt lat="46.28074" lon="3.18475">
        <ele>343.33</ele>
        <time>2021-08-14T04:12:53Z</time>
      </trkpt>
      <trkpt lat="46.28079" lon="3.18446">
        <ele>344.77</ele>
        <time>2021-08-14T04:13:04Z</time>
      </trkpt>
      <trkpt lat="46.28083" lon="3.1842">
        <ele>346.21</ele>
        <time>2021-08-14T04:13:14Z</time>
      </trkpt>
      <trkpt lat="46.2809" lon="3.18392">
        <ele>347.65</ele>
        <time>2021-08-14T04:13:25Z</time>
      </trkpt>
      <trkpt lat="46.28098" lon="3.18359">
        <ele>349.1</ele>
        <time>2021-08-14T04:13:38Z</time>
      </trkpt>
      <trkpt lat="46.28105" lon="3.18341">
        <ele>349.58</ele>
        <time>2021-08-14T04:13:45Z</time>
      </trkpt>
      <trkpt lat="46.28112" lon="3.18322">
        <ele>351.02</ele>
        <time>2021-08-14T04:13:53Z</time>
      </trkpt>
      <trkpt lat="46.28119" lon="3.18297">
        <ele>351.98</ele>
        <time>2021-08-14T04:14:03Z</time>
      </trkpt>
      <trkpt lat="46.28126" lon="3.18275">
        <ele>352.94</ele>
        <time>2021-08-14T04:14:12Z</time>
      </trkpt>
      <trkpt lat="46.28134" lon="3.18253">
        <ele>353.9</ele>
        <time>2021-08-14T04:14:21Z</time>
      </trkpt>
      <trkpt lat="46.28144" lon="3.18224">
        <ele>355.34</ele>
        <time>2021-08-14T04:14:33Z</time>
      </trkpt>
      <trkpt lat="46.2815" lon="3.18205">
        <ele>356.31</ele>
        <time>2021-08-14T04:14:41Z</time>
      </trkpt>
      <trkpt lat="46.28151" lon="3.18201">
        <ele>356.31</ele>
        <time>2021-08-14T04:14:43Z</time>
      </trkpt>
      <trkpt lat="46.28152" lon="3.18198">
        <ele>356.79</ele>
        <time>2021-08-14T04:14:44Z</time>
      </trkpt>
      <trkpt lat="46.28157" lon="3.18179">
        <ele>357.27</ele>
        <time>2021-08-14T04:14:52Z</time>
      </trkpt>
      <trkpt lat="46.28164" lon="3.18163">
        <ele>358.23</ele>
        <time>2021-08-14T04:14:59Z</time>
      </trkpt>
      <trkpt lat="46.2817" lon="3.18138">
        <ele>359.19</ele>
        <time>2021-08-14T04:15:09Z</time>
      </trkpt>
      <trkpt lat="46.28175" lon="3.18117">
        <ele>360.63</ele>
        <time>2021-08-14T04:15:17Z</time>
      </trkpt>
      <trkpt lat="46.2818" lon="3.181">
        <ele>360.63</ele>
        <time>2021-08-14T04:15:24Z</time>
      </trkpt>
      <trkpt lat="46.28187" lon="3.18077">
        <ele>361.59</ele>
        <time>2021-08-14T04:15:33Z</time>
      </trkpt>
      <trkpt lat="46.28192" lon="3.18052">
        <ele>363.04</ele>
        <time>2021-08-14T04:15:42Z</time>
      </trkpt>
      <trkpt lat="46.28193" lon="3.18029">
        <ele>364</ele>
        <time>2021-08-14T04:15:50Z</time>
      </trkpt>
      <trkpt lat="46.28191" lon="3.1801">
        <ele>364.48</ele>
        <time>2021-08-14T04:15:57Z</time>
      </trkpt>
      <trkpt lat="46.28188" lon="3.17977">
        <ele>365.92</ele>
        <time>2021-08-14T04:16:08Z</time>
      </trkpt>
      <trkpt lat="46.28187" lon="3.17942">
        <ele>367.36</ele>
        <time>2021-08-14T04:16:18Z</time>
      </trkpt>
      <trkpt lat="46.28186" lon="3.17907">
        <ele>368.32</ele>
        <time>2021-08-14T04:16:28Z</time>
      </trkpt>
      <trkpt lat="46.28184" lon="3.17875">
        <ele>369.28</ele>
        <time>2021-08-14T04:16:37Z</time>
      </trkpt>
      <trkpt lat="46.28185" lon="3.17844">
        <ele>370.24</ele>
        <time>2021-08-14T04:16:46Z</time>
      </trkpt>
      <trkpt lat="46.28178" lon="3.1782">
        <ele>370.73</ele>
        <time>2021-08-14T04:16:54Z</time>
      </trkpt>
      <trkpt lat="46.28166" lon="3.17797">
        <ele>370.73</ele>
        <time>2021-08-14T04:17:01Z</time>
      </trkpt>
      <trkpt lat="46.28148" lon="3.17761">
        <ele>371.21</ele>
        <time>2021-08-14T04:17:11Z</time>
      </trkpt>
      <trkpt lat="46.28147" lon="3.17739">
        <ele>371.21</ele>
        <time>2021-08-14T04:17:17Z</time>
      </trkpt>
      <trkpt lat="46.2816" lon="3.17718">
        <ele>371.69</ele>
        <time>2021-08-14T04:17:25Z</time>
      </trkpt>
      <trkpt lat="46.28184" lon="3.17705">
        <ele>371.69</ele>
        <time>2021-08-14T04:17:34Z</time>
      </trkpt>
      <trkpt lat="46.28194" lon="3.17702">
        <ele>372.17</ele>
        <time>2021-08-14T04:17:39Z</time>
      </trkpt>
      <trkpt lat="46.28196" lon="3.17699">
        <ele>372.17</ele>
        <time>2021-08-14T04:17:40Z</time>
      </trkpt>
      <trkpt lat="46.28196" lon="3.17695">
        <ele>372.17</ele>
        <time>2021-08-14T04:17:41Z</time>
      </trkpt>
      <trkpt lat="46.2819" lon="3.17663">
        <ele>372.17</ele>
        <time>2021-08-14T04:17:48Z</time>
      </trkpt>
      <trkpt lat="46.28182" lon="3.17618">
        <ele>371.21</ele>
        <time>2021-08-14T04:17:57Z</time>
      </trkpt>
      <trkpt lat="46.28174" lon="3.17584">
        <ele>371.21</ele>
        <time>2021-08-14T04:18:05Z</time>
      </trkpt>
      <trkpt lat="46.28168" lon="3.17566">
        <ele>371.21</ele>
        <time>2021-08-14T04:18:10Z</time>
      </trkpt>
      <trkpt lat="46.28166" lon="3.17563">
        <ele>371.21</ele>
        <time>2021-08-14T04:18:11Z</time>
      </trkpt>
      <trkpt lat="46.28164" lon="3.17561">
        <ele>371.21</ele>
        <time>2021-08-14T04:18:12Z</time>
      </trkpt>
      <trkpt lat="46.28162" lon="3.17559">
        <ele>371.21</ele>
        <time>2021-08-14T04:18:13Z</time>
      </trkpt>
      <trkpt lat="46.2816" lon="3.17556">
        <ele>371.21</ele>
        <time>2021-08-14T04:18:14Z</time>
      </trkpt>
      <trkpt lat="46.28137" lon="3.17539">
        <ele>371.21</ele>
        <time>2021-08-14T04:18:22Z</time>
      </trkpt>
      <trkpt lat="46.28117" lon="3.17545">
        <ele>371.21</ele>
        <time>2021-08-14T04:18:28Z</time>
      </trkpt>
      <trkpt lat="46.28099" lon="3.17552">
        <ele>371.21</ele>
        <time>2021-08-14T04:18:33Z</time>
      </trkpt>
      <trkpt lat="46.28062" lon="3.17552">
        <ele>369.28</ele>
        <time>2021-08-14T04:18:40Z</time>
      </trkpt>
      <trkpt lat="46.28056" lon="3.17553">
        <ele>369.28</ele>
        <time>2021-08-14T04:18:41Z</time>
      </trkpt>
      <trkpt lat="46.28047" lon="3.17555">
        <ele>368.8</ele>
        <time>2021-08-14T04:18:43Z</time>
      </trkpt>
      <trkpt lat="46.28027" lon="3.17554">
        <ele>366.88</ele>
        <time>2021-08-14T04:18:47Z</time>
      </trkpt>
      <trkpt lat="46.27991" lon="3.17552">
        <ele>363.52</ele>
        <time>2021-08-14T04:18:53Z</time>
      </trkpt>
      <trkpt lat="46.27957" lon="3.17548">
        <ele>360.63</ele>
        <time>2021-08-14T04:18:57Z</time>
      </trkpt>
      <trkpt lat="46.27908" lon="3.1754">
        <ele>356.79</ele>
        <time>2021-08-14T04:19:02Z</time>
      </trkpt>
      <trkpt lat="46.27847" lon="3.17529">
        <ele>353.42</ele>
        <time>2021-08-14T04:19:08Z</time>
      </trkpt>
      <trkpt lat="46.27807" lon="3.1752">
        <ele>351.98</ele>
        <time>2021-08-14T04:19:13Z</time>
      </trkpt>
      <trkpt lat="46.27794" lon="3.17517">
        <ele>351.02</ele>
        <time>2021-08-14T04:19:15Z</time>
      </trkpt>
      <trkpt lat="46.27752" lon="3.17511">
        <ele>347.65</ele>
        <time>2021-08-14T04:19:21Z</time>
      </trkpt>
      <trkpt lat="46.2772" lon="3.17507">
        <ele>343.81</ele>
        <time>2021-08-14T04:19:25Z</time>
      </trkpt>
      <trkpt lat="46.27704" lon="3.17508">
        <ele>341.89</ele>
        <time>2021-08-14T04:19:27Z</time>
      </trkpt>
      <trkpt lat="46.27681" lon="3.17512">
        <ele>339.96</ele>
        <time>2021-08-14T04:19:30Z</time>
      </trkpt>
      <trkpt lat="46.27673" lon="3.17515">
        <ele>339.48</ele>
        <time>2021-08-14T04:19:31Z</time>
      </trkpt>
      <trkpt lat="46.27664" lon="3.17519">
        <ele>339</ele>
        <time>2021-08-14T04:19:32Z</time>
      </trkpt>
      <trkpt lat="46.27657" lon="3.17525">
        <ele>339</ele>
        <time>2021-08-14T04:19:33Z</time>
      </trkpt>
      <trkpt lat="46.27649" lon="3.17532">
        <ele>338.04</ele>
        <time>2021-08-14T04:19:34Z</time>
      </trkpt>
      <trkpt lat="46.27607" lon="3.17569">
        <ele>336.6</ele>
        <time>2021-08-14T04:19:40Z</time>
      </trkpt>
      <trkpt lat="46.27601" lon="3.17574">
        <ele>336.6</ele>
        <time>2021-08-14T04:19:41Z</time>
      </trkpt>
      <trkpt lat="46.27598" lon="3.17579">
        <ele>336.6</ele>
        <time>2021-08-14T04:19:42Z</time>
      </trkpt>
      <trkpt lat="46.27595" lon="3.17585">
        <ele>336.6</ele>
        <time>2021-08-14T04:19:43Z</time>
      </trkpt>
      <trkpt lat="46.27594" lon="3.17593">
        <ele>335.64</ele>
        <time>2021-08-14T04:19:44Z</time>
      </trkpt>
      <trkpt lat="46.27594" lon="3.17601">
        <ele>335.64</ele>
        <time>2021-08-14T04:19:45Z</time>
      </trkpt>
      <trkpt lat="46.27594" lon="3.17607">
        <ele>335.64</ele>
        <time>2021-08-14T04:19:46Z</time>
      </trkpt>
      <trkpt lat="46.27595" lon="3.17615">
        <ele>335.16</ele>
        <time>2021-08-14T04:19:47Z</time>
      </trkpt>
      <trkpt lat="46.27597" lon="3.17624">
        <ele>335.16</ele>
        <time>2021-08-14T04:19:48Z</time>
      </trkpt>
      <trkpt lat="46.27607" lon="3.1769">
        <ele>334.2</ele>
        <time>2021-08-14T04:19:56Z</time>
      </trkpt>
      <trkpt lat="46.27613" lon="3.17763">
        <ele>333.23</ele>
        <time>2021-08-14T04:20:05Z</time>
      </trkpt>
      <trkpt lat="46.27616" lon="3.17792">
        <ele>333.23</ele>
        <time>2021-08-14T04:20:09Z</time>
      </trkpt>
      <trkpt lat="46.27614" lon="3.17798">
        <ele>333.23</ele>
        <time>2021-08-14T04:20:10Z</time>
      </trkpt>
      <trkpt lat="46.27611" lon="3.17801">
        <ele>333.23</ele>
        <time>2021-08-14T04:20:11Z</time>
      </trkpt>
      <trkpt lat="46.27607" lon="3.17803">
        <ele>333.23</ele>
        <time>2021-08-14T04:20:12Z</time>
      </trkpt>
      <trkpt lat="46.27603" lon="3.17803">
        <ele>333.23</ele>
        <time>2021-08-14T04:20:13Z</time>
      </trkpt>
      <trkpt lat="46.27598" lon="3.17803">
        <ele>332.27</ele>
        <time>2021-08-14T04:20:14Z</time>
      </trkpt>
      <trkpt lat="46.27559" lon="3.17803">
        <ele>329.87</ele>
        <time>2021-08-14T04:20:20Z</time>
      </trkpt>
      <trkpt lat="46.27512" lon="3.17803">
        <ele>326.5</ele>
        <time>2021-08-14T04:20:26Z</time>
      </trkpt>
      <trkpt lat="46.2746" lon="3.17803">
        <ele>323.62</ele>
        <time>2021-08-14T04:20:32Z</time>
      </trkpt>
      <trkpt lat="46.27385" lon="3.17803">
        <ele>319.78</ele>
        <time>2021-08-14T04:20:40Z</time>
      </trkpt>
      <trkpt lat="46.27315" lon="3.17803">
        <ele>316.41</ele>
        <time>2021-08-14T04:20:47Z</time>
      </trkpt>
      <trkpt lat="46.27244" lon="3.17803">
        <ele>313.53</ele>
        <time>2021-08-14T04:20:54Z</time>
      </trkpt>
      <trkpt lat="46.27179" lon="3.17802">
        <ele>309.68</ele>
        <time>2021-08-14T04:21:00Z</time>
      </trkpt>
      <trkpt lat="46.27073" lon="3.17802">
        <ele>307.76</ele>
        <time>2021-08-14T04:21:10Z</time>
      </trkpt>
      <trkpt lat="46.27064" lon="3.17801">
        <ele>307.28</ele>
        <time>2021-08-14T04:21:11Z</time>
      </trkpt>
      <trkpt lat="46.27054" lon="3.17797">
        <ele>307.28</ele>
        <time>2021-08-14T04:21:12Z</time>
      </trkpt>
      <trkpt lat="46.27046" lon="3.17792">
        <ele>306.32</ele>
        <time>2021-08-14T04:21:13Z</time>
      </trkpt>
      <trkpt lat="46.27038" lon="3.17784">
        <ele>305.36</ele>
        <time>2021-08-14T04:21:14Z</time>
      </trkpt>
      <trkpt lat="46.2703" lon="3.17772">
        <ele>304.39</ele>
        <time>2021-08-14T04:21:15Z</time>
      </trkpt>
      <trkpt lat="46.27024" lon="3.17761">
        <ele>303.43</ele>
        <time>2021-08-14T04:21:16Z</time>
      </trkpt>
      <trkpt lat="46.27018" lon="3.17747">
        <ele>302.47</ele>
        <time>2021-08-14T04:21:17Z</time>
      </trkpt>
      <trkpt lat="46.27012" lon="3.17735">
        <ele>301.51</ele>
        <time>2021-08-14T04:21:18Z</time>
      </trkpt>
      <trkpt lat="46.26987" lon="3.17683">
        <ele>298.15</ele>
        <time>2021-08-14T04:21:22Z</time>
      </trkpt>
      <trkpt lat="46.26968" lon="3.17647">
        <ele>296.7</ele>
        <time>2021-08-14T04:21:25Z</time>
      </trkpt>
      <trkpt lat="46.26963" lon="3.17635">
        <ele>295.74</ele>
        <time>2021-08-14T04:21:26Z</time>
      </trkpt>
      <trkpt lat="46.26959" lon="3.17623">
        <ele>295.26</ele>
        <time>2021-08-14T04:21:27Z</time>
      </trkpt>
      <trkpt lat="46.26958" lon="3.1761">
        <ele>294.3</ele>
        <time>2021-08-14T04:21:28Z</time>
      </trkpt>
      <trkpt lat="46.26959" lon="3.17598">
        <ele>293.82</ele>
        <time>2021-08-14T04:21:29Z</time>
      </trkpt>
      <trkpt lat="46.26961" lon="3.17586">
        <ele>293.82</ele>
        <time>2021-08-14T04:21:30Z</time>
      </trkpt>
      <trkpt lat="46.26963" lon="3.17574">
        <ele>292.86</ele>
        <time>2021-08-14T04:21:31Z</time>
      </trkpt>
      <trkpt lat="46.26964" lon="3.17562">
        <ele>292.38</ele>
        <time>2021-08-14T04:21:32Z</time>
      </trkpt>
      <trkpt lat="46.26963" lon="3.1755">
        <ele>291.9</ele>
        <time>2021-08-14T04:21:33Z</time>
      </trkpt>
      <trkpt lat="46.26962" lon="3.17537">
        <ele>291.9</ele>
        <time>2021-08-14T04:21:34Z</time>
      </trkpt>
      <trkpt lat="46.2696" lon="3.17526">
        <ele>290.94</ele>
        <time>2021-08-14T04:21:35Z</time>
      </trkpt>
      <trkpt lat="46.26957" lon="3.17514">
        <ele>290.94</ele>
        <time>2021-08-14T04:21:36Z</time>
      </trkpt>
      <trkpt lat="46.26944" lon="3.17462">
        <ele>291.42</ele>
        <time>2021-08-14T04:21:41Z</time>
      </trkpt>
      <trkpt lat="46.26935" lon="3.17426">
        <ele>292.86</ele>
        <time>2021-08-14T04:21:45Z</time>
      </trkpt>
      <trkpt lat="46.2692" lon="3.17386">
        <ele>294.78</ele>
        <time>2021-08-14T04:21:51Z</time>
      </trkpt>
      <trkpt lat="46.26906" lon="3.17375">
        <ele>295.74</ele>
        <time>2021-08-14T04:21:56Z</time>
      </trkpt>
      <trkpt lat="46.26899" lon="3.17375">
        <ele>296.7</ele>
        <time>2021-08-14T04:22:00Z</time>
      </trkpt>
      <trkpt lat="46.2689" lon="3.17382">
        <ele>298.15</ele>
        <time>2021-08-14T04:22:05Z</time>
      </trkpt>
      <trkpt lat="46.26889" lon="3.17384">
        <ele>298.15</ele>
        <time>2021-08-14T04:22:06Z</time>
      </trkpt>
      <trkpt lat="46.26888" lon="3.17386">
        <ele>298.15</ele>
        <time>2021-08-14T04:22:07Z</time>
      </trkpt>
      <trkpt lat="46.26887" lon="3.17388">
        <ele>298.15</ele>
        <time>2021-08-14T04:22:08Z</time>
      </trkpt>
      <trkpt lat="46.26886" lon="3.1739">
        <ele>298.63</ele>
        <time>2021-08-14T04:22:09Z</time>
      </trkpt>
      <trkpt lat="46.26876" lon="3.17406">
        <ele>300.07</ele>
        <time>2021-08-14T04:22:17Z</time>
      </trkpt>
      <trkpt lat="46.26871" lon="3.17414">
        <ele>300.55</ele>
        <time>2021-08-14T04:22:21Z</time>
      </trkpt>
      <trkpt lat="46.2687" lon="3.17416">
        <ele>300.55</ele>
        <time>2021-08-14T04:22:22Z</time>
      </trkpt>
      <trkpt lat="46.26858" lon="3.17431">
        <ele>301.51</ele>
        <time>2021-08-14T04:22:31Z</time>
      </trkpt>
      <trkpt lat="46.26848" lon="3.17445">
        <ele>302.95</ele>
        <time>2021-08-14T04:22:39Z</time>
      </trkpt>
      <trkpt lat="46.26838" lon="3.17459">
        <ele>303.43</ele>
        <time>2021-08-14T04:22:47Z</time>
      </trkpt>
      <trkpt lat="46.26824" lon="3.17478">
        <ele>304.88</ele>
        <time>2021-08-14T04:22:57Z</time>
      </trkpt>
      <trkpt lat="46.26808" lon="3.17499">
        <ele>305.84</ele>
        <time>2021-08-14T04:23:08Z</time>
      </trkpt>
      <trkpt lat="46.26794" lon="3.17515">
        <ele>306.8</ele>
        <time>2021-08-14T04:23:17Z</time>
      </trkpt>
      <trkpt lat="46.26778" lon="3.17534">
        <ele>307.76</ele>
        <time>2021-08-14T04:23:26Z</time>
      </trkpt>
      <trkpt lat="46.26756" lon="3.17553">
        <ele>308.72</ele>
        <time>2021-08-14T04:23:37Z</time>
      </trkpt>
      <trkpt lat="46.26754" lon="3.17554">
        <ele>308.72</ele>
        <time>2021-08-14T04:23:38Z</time>
      </trkpt>
      <trkpt lat="46.26752" lon="3.17554">
        <ele>308.72</ele>
        <time>2021-08-14T04:23:39Z</time>
      </trkpt>
      <trkpt lat="46.2675" lon="3.17554">
        <ele>308.72</ele>
        <time>2021-08-14T04:23:40Z</time>
      </trkpt>
      <trkpt lat="46.26748" lon="3.17552">
        <ele>309.68</ele>
        <time>2021-08-14T04:23:41Z</time>
      </trkpt>
      <trkpt lat="46.26747" lon="3.17548">
        <ele>309.2</ele>
        <time>2021-08-14T04:23:42Z</time>
      </trkpt>
      <trkpt lat="46.26746" lon="3.17546">
        <ele>309.68</ele>
        <time>2021-08-14T04:23:43Z</time>
      </trkpt>
      <trkpt lat="46.26738" lon="3.17521">
        <ele>310.64</ele>
        <time>2021-08-14T04:23:52Z</time>
      </trkpt>
      <trkpt lat="46.26728" lon="3.17491">
        <ele>311.6</ele>
        <time>2021-08-14T04:24:03Z</time>
      </trkpt>
      <trkpt lat="46.26717" lon="3.17461">
        <ele>313.05</ele>
        <time>2021-08-14T04:24:14Z</time>
      </trkpt>
      <trkpt lat="46.26705" lon="3.17426">
        <ele>314.49</ele>
        <time>2021-08-14T04:24:27Z</time>
      </trkpt>
      <trkpt lat="46.26695" lon="3.17397">
        <ele>315.93</ele>
        <time>2021-08-14T04:24:38Z</time>
      </trkpt>
      <trkpt lat="46.26687" lon="3.17376">
        <ele>316.41</ele>
        <time>2021-08-14T04:24:46Z</time>
      </trkpt>
      <trkpt lat="46.26683" lon="3.17366">
        <ele>316.89</ele>
        <time>2021-08-14T04:24:50Z</time>
      </trkpt>
      <trkpt lat="46.26681" lon="3.17365">
        <ele>316.89</ele>
        <time>2021-08-14T04:24:51Z</time>
      </trkpt>
      <trkpt lat="46.2668" lon="3.17362">
        <ele>316.89</ele>
        <time>2021-08-14T04:24:52Z</time>
      </trkpt>
      <trkpt lat="46.26669" lon="3.17342">
        <ele>317.85</ele>
        <time>2021-08-14T04:25:01Z</time>
      </trkpt>
      <trkpt lat="46.26664" lon="3.17333">
        <ele>318.33</ele>
        <time>2021-08-14T04:25:05Z</time>
      </trkpt>
      <trkpt lat="46.26663" lon="3.17331">
        <ele>318.33</ele>
        <time>2021-08-14T04:25:06Z</time>
      </trkpt>
      <trkpt lat="46.26662" lon="3.17328">
        <ele>318.33</ele>
        <time>2021-08-14T04:25:07Z</time>
      </trkpt>
      <trkpt lat="46.26661" lon="3.17326">
        <ele>318.33</ele>
        <time>2021-08-14T04:25:08Z</time>
      </trkpt>
      <trkpt lat="46.2666" lon="3.17324">
        <ele>318.33</ele>
        <time>2021-08-14T04:25:09Z</time>
      </trkpt>
      <trkpt lat="46.26659" lon="3.17322">
        <ele>318.33</ele>
        <time>2021-08-14T04:25:10Z</time>
      </trkpt>
      <trkpt lat="46.26658" lon="3.1732">
        <ele>318.33</ele>
        <time>2021-08-14T04:25:11Z</time>
      </trkpt>
      <trkpt lat="46.26657" lon="3.17318">
        <ele>318.33</ele>
        <time>2021-08-14T04:25:12Z</time>
      </trkpt>
      <trkpt lat="46.26656" lon="3.17316">
        <ele>318.33</ele>
        <time>2021-08-14T04:25:13Z</time>
      </trkpt>
      <trkpt lat="46.26643" lon="3.17296">
        <ele>318.33</ele>
        <time>2021-08-14T04:25:21Z</time>
      </trkpt>
      <trkpt lat="46.26626" lon="3.17291">
        <ele>318.33</ele>
        <time>2021-08-14T04:25:29Z</time>
      </trkpt>
      <trkpt lat="46.26601" lon="3.17289">
        <ele>318.81</ele>
        <time>2021-08-14T04:25:40Z</time>
      </trkpt>
      <trkpt lat="46.26575" lon="3.17287">
        <ele>319.78</ele>
        <time>2021-08-14T04:25:51Z</time>
      </trkpt>
      <trkpt lat="46.26552" lon="3.17282">
        <ele>320.26</ele>
        <time>2021-08-14T04:26:01Z</time>
      </trkpt>
      <trkpt lat="46.26522" lon="3.17275">
        <ele>320.74</ele>
        <time>2021-08-14T04:26:12Z</time>
      </trkpt>
      <trkpt lat="46.26496" lon="3.17268">
        <ele>321.22</ele>
        <time>2021-08-14T04:26:21Z</time>
      </trkpt>
      <trkpt lat="46.26465" lon="3.17261">
        <ele>319.3</ele>
        <time>2021-08-14T04:26:28Z</time>
      </trkpt>
      <trkpt lat="46.26416" lon="3.17248">
        <ele>318.33</ele>
        <time>2021-08-14T04:26:38Z</time>
      </trkpt>
      <trkpt lat="46.26359" lon="3.17233">
        <ele>316.89</ele>
        <time>2021-08-14T04:26:49Z</time>
      </trkpt>
      <trkpt lat="46.26321" lon="3.17221">
        <ele>316.41</ele>
        <time>2021-08-14T04:26:57Z</time>
      </trkpt>
      <trkpt lat="46.2627" lon="3.17193">
        <ele>315.93</ele>
        <time>2021-08-14T04:27:08Z</time>
      </trkpt>
      <trkpt lat="46.26213" lon="3.17162">
        <ele>314.97</ele>
        <time>2021-08-14T04:27:20Z</time>
      </trkpt>
      <trkpt lat="46.26208" lon="3.17158">
        <ele>314.97</ele>
        <time>2021-08-14T04:27:21Z</time>
      </trkpt>
      <trkpt lat="46.26204" lon="3.17154">
        <ele>314.97</ele>
        <time>2021-08-14T04:27:22Z</time>
      </trkpt>
      <trkpt lat="46.26173" lon="3.1712">
        <ele>314.49</ele>
        <time>2021-08-14T04:27:30Z</time>
      </trkpt>
      <trkpt lat="46.26138" lon="3.17084">
        <ele>314.01</ele>
        <time>2021-08-14T04:27:40Z</time>
      </trkpt>
      <trkpt lat="46.26093" lon="3.17039">
        <ele>313.53</ele>
        <time>2021-08-14T04:27:52Z</time>
      </trkpt>
      <trkpt lat="46.26078" lon="3.17026">
        <ele>313.53</ele>
        <time>2021-08-14T04:27:56Z</time>
      </trkpt>
      <trkpt lat="46.2604" lon="3.17004">
        <ele>313.05</ele>
        <time>2021-08-14T04:28:06Z</time>
      </trkpt>
      <trkpt lat="46.26028" lon="3.16996">
        <ele>313.05</ele>
        <time>2021-08-14T04:28:09Z</time>
      </trkpt>
      <trkpt lat="46.26024" lon="3.16994">
        <ele>313.05</ele>
        <time>2021-08-14T04:28:10Z</time>
      </trkpt>
      <trkpt lat="46.26021" lon="3.16991">
        <ele>312.57</ele>
        <time>2021-08-14T04:28:11Z</time>
      </trkpt>
      <trkpt lat="46.26018" lon="3.16988">
        <ele>312.57</ele>
        <time>2021-08-14T04:28:12Z</time>
      </trkpt>
      <trkpt lat="46.26015" lon="3.16985">
        <ele>312.57</ele>
        <time>2021-08-14T04:28:13Z</time>
      </trkpt>
      <trkpt lat="46.26011" lon="3.16981">
        <ele>312.57</ele>
        <time>2021-08-14T04:28:14Z</time>
      </trkpt>
      <trkpt lat="46.25991" lon="3.16964">
        <ele>311.12</ele>
        <time>2021-08-14T04:28:21Z</time>
      </trkpt>
      <trkpt lat="46.2599" lon="3.16963">
        <ele>311.12</ele>
        <time>2021-08-14T04:28:22Z</time>
      </trkpt>
      <trkpt lat="46.25988" lon="3.16959">
        <ele>311.12</ele>
        <time>2021-08-14T04:28:28Z</time>
      </trkpt>
      <trkpt lat="46.25987" lon="3.16954">
        <ele>311.12</ele>
        <time>2021-08-14T04:28:34Z</time>
      </trkpt>
      <trkpt lat="46.25986" lon="3.16953">
        <ele>311.12</ele>
        <time>2021-08-14T04:28:35Z</time>
      </trkpt>
      <trkpt lat="46.25985" lon="3.16952">
        <ele>311.12</ele>
        <time>2021-08-14T04:28:36Z</time>
      </trkpt>
      <trkpt lat="46.25984" lon="3.16951">
        <ele>311.12</ele>
        <time>2021-08-14T04:28:37Z</time>
      </trkpt>
      <trkpt lat="46.25983" lon="3.1695">
        <ele>311.12</ele>
        <time>2021-08-14T04:28:38Z</time>
      </trkpt>
      <trkpt lat="46.25972" lon="3.16939">
        <ele>311.12</ele>
        <time>2021-08-14T04:28:46Z</time>
      </trkpt>
      <trkpt lat="46.25965" lon="3.16934">
        <ele>311.12</ele>
        <time>2021-08-14T04:28:52Z</time>
      </trkpt>
      <trkpt lat="46.25963" lon="3.16932">
        <ele>311.12</ele>
        <time>2021-08-14T04:28:53Z</time>
      </trkpt>
      <trkpt lat="46.25961" lon="3.16931">
        <ele>311.12</ele>
        <time>2021-08-14T04:28:54Z</time>
      </trkpt>
      <trkpt lat="46.25956" lon="3.16928">
        <ele>312.57</ele>
        <time>2021-08-14T04:28:57Z</time>
      </trkpt>
      <trkpt lat="46.2595" lon="3.16924">
        <ele>313.53</ele>
        <time>2021-08-14T04:29:00Z</time>
      </trkpt>
      <trkpt lat="46.25948" lon="3.16923">
        <ele>313.53</ele>
        <time>2021-08-14T04:29:01Z</time>
      </trkpt>
      <trkpt lat="46.25947" lon="3.16921">
        <ele>313.53</ele>
        <time>2021-08-14T04:29:02Z</time>
      </trkpt>
      <trkpt lat="46.25945" lon="3.1692">
        <ele>313.53</ele>
        <time>2021-08-14T04:29:03Z</time>
      </trkpt>
      <trkpt lat="46.25943" lon="3.16919">
        <ele>314.01</ele>
        <time>2021-08-14T04:29:04Z</time>
      </trkpt>
      <trkpt lat="46.25942" lon="3.16917">
        <ele>314.01</ele>
        <time>2021-08-14T04:29:05Z</time>
      </trkpt>
      <trkpt lat="46.25929" lon="3.16908">
        <ele>314.97</ele>
        <time>2021-08-14T04:29:14Z</time>
      </trkpt>
      <trkpt lat="46.2592" lon="3.16901">
        <ele>315.93</ele>
        <time>2021-08-14T04:29:20Z</time>
      </trkpt>
      <trkpt lat="46.25919" lon="3.16899">
        <ele>315.93</ele>
        <time>2021-08-14T04:29:21Z</time>
      </trkpt>
      <trkpt lat="46.25917" lon="3.16898">
        <ele>315.93</ele>
        <time>2021-08-14T04:29:22Z</time>
      </trkpt>
      <trkpt lat="46.25916" lon="3.16897">
        <ele>315.93</ele>
        <time>2021-08-14T04:29:23Z</time>
      </trkpt>
      <trkpt lat="46.25914" lon="3.16896">
        <ele>315.93</ele>
        <time>2021-08-14T04:29:24Z</time>
      </trkpt>
      <trkpt lat="46.25901" lon="3.16884">
        <ele>315.93</ele>
        <time>2021-08-14T04:29:32Z</time>
      </trkpt>
      <trkpt lat="46.259" lon="3.16883">
        <ele>315.93</ele>
        <time>2021-08-14T04:29:33Z</time>
      </trkpt>
      <trkpt lat="46.25899" lon="3.16882">
        <ele>315.93</ele>
        <time>2021-08-14T04:29:34Z</time>
      </trkpt>
      <trkpt lat="46.25884" lon="3.1687">
        <ele>316.41</ele>
        <time>2021-08-14T04:29:42Z</time>
      </trkpt>
      <trkpt lat="46.25871" lon="3.16859">
        <ele>316.89</ele>
        <time>2021-08-14T04:29:50Z</time>
      </trkpt>
      <trkpt lat="46.25859" lon="3.16848">
        <ele>316.89</ele>
        <time>2021-08-14T04:29:57Z</time>
      </trkpt>
      <trkpt lat="46.25855" lon="3.16845">
        <ele>316.89</ele>
        <time>2021-08-14T04:29:59Z</time>
      </trkpt>
      <trkpt lat="46.25854" lon="3.16843">
        <ele>317.37</ele>
        <time>2021-08-14T04:30:00Z</time>
      </trkpt>
      <trkpt lat="46.25852" lon="3.16842">
        <ele>317.37</ele>
        <time>2021-08-14T04:30:01Z</time>
      </trkpt>
      <trkpt lat="46.25851" lon="3.16841">
        <ele>317.37</ele>
        <time>2021-08-14T04:30:02Z</time>
      </trkpt>
      <trkpt lat="46.2585" lon="3.1684">
        <ele>317.37</ele>
        <time>2021-08-14T04:30:03Z</time>
      </trkpt>
      <trkpt lat="46.25834" lon="3.16828">
        <ele>317.85</ele>
        <time>2021-08-14T04:30:11Z</time>
      </trkpt>
      <trkpt lat="46.2582" lon="3.16819">
        <ele>317.85</ele>
        <time>2021-08-14T04:30:18Z</time>
      </trkpt>
      <trkpt lat="46.25812" lon="3.16815">
        <ele>318.33</ele>
        <time>2021-08-14T04:30:22Z</time>
      </trkpt>
      <trkpt lat="46.2581" lon="3.16814">
        <ele>318.33</ele>
        <time>2021-08-14T04:30:23Z</time>
      </trkpt>
      <trkpt lat="46.25809" lon="3.16813">
        <ele>318.33</ele>
        <time>2021-08-14T04:30:24Z</time>
      </trkpt>
      <trkpt lat="46.25793" lon="3.16802">
        <ele>318.33</ele>
        <time>2021-08-14T04:30:32Z</time>
      </trkpt>
      <trkpt lat="46.25776" lon="3.16791">
        <ele>318.81</ele>
        <time>2021-08-14T04:30:41Z</time>
      </trkpt>
      <trkpt lat="46.25759" lon="3.1678">
        <ele>319.3</ele>
        <time>2021-08-14T04:30:49Z</time>
      </trkpt>
      <trkpt lat="46.25742" lon="3.16769">
        <ele>319.78</ele>
        <time>2021-08-14T04:30:56Z</time>
      </trkpt>
      <trkpt lat="46.25722" lon="3.16759">
        <ele>320.26</ele>
        <time>2021-08-14T04:31:03Z</time>
      </trkpt>
      <trkpt lat="46.25702" lon="3.16747">
        <ele>320.26</ele>
        <time>2021-08-14T04:31:10Z</time>
      </trkpt>
      <trkpt lat="46.25691" lon="3.16742">
        <ele>320.74</ele>
        <time>2021-08-14T04:31:15Z</time>
      </trkpt>
      <trkpt lat="46.25689" lon="3.1674">
        <ele>321.22</ele>
        <time>2021-08-14T04:31:16Z</time>
      </trkpt>
      <trkpt lat="46.25687" lon="3.16738">
        <ele>321.22</ele>
        <time>2021-08-14T04:31:17Z</time>
      </trkpt>
      <trkpt lat="46.25673" lon="3.1673">
        <ele>321.7</ele>
        <time>2021-08-14T04:31:24Z</time>
      </trkpt>
      <trkpt lat="46.25659" lon="3.16719">
        <ele>322.18</ele>
        <time>2021-08-14T04:31:31Z</time>
      </trkpt>
      <trkpt lat="46.25647" lon="3.16707">
        <ele>322.66</ele>
        <time>2021-08-14T04:31:38Z</time>
      </trkpt>
      <trkpt lat="46.25627" lon="3.16688">
        <ele>323.62</ele>
        <time>2021-08-14T04:31:47Z</time>
      </trkpt>
      <trkpt lat="46.25603" lon="3.16665">
        <ele>323.62</ele>
        <time>2021-08-14T04:31:57Z</time>
      </trkpt>
      <trkpt lat="46.25584" lon="3.16646">
        <ele>323.62</ele>
        <time>2021-08-14T04:32:05Z</time>
      </trkpt>
      <trkpt lat="46.25563" lon="3.16625">
        <ele>324.1</ele>
        <time>2021-08-14T04:32:14Z</time>
      </trkpt>
      <trkpt lat="46.25537" lon="3.16602">
        <ele>324.1</ele>
        <time>2021-08-14T04:32:24Z</time>
      </trkpt>
      <trkpt lat="46.25521" lon="3.16586">
        <ele>324.1</ele>
        <time>2021-08-14T04:32:31Z</time>
      </trkpt>
      <trkpt lat="46.25501" lon="3.16568">
        <ele>324.1</ele>
        <time>2021-08-14T04:32:40Z</time>
      </trkpt>
      <trkpt lat="46.25494" lon="3.16556">
        <ele>324.1</ele>
        <time>2021-08-14T04:32:45Z</time>
      </trkpt>
      <trkpt lat="46.25479" lon="3.16537">
        <ele>324.1</ele>
        <time>2021-08-14T04:32:54Z</time>
      </trkpt>
      <trkpt lat="46.25459" lon="3.16519">
        <ele>324.1</ele>
        <time>2021-08-14T04:33:03Z</time>
      </trkpt>
      <trkpt lat="46.2544" lon="3.16498">
        <ele>324.58</ele>
        <time>2021-08-14T04:33:11Z</time>
      </trkpt>
      <trkpt lat="46.2543" lon="3.16482">
        <ele>325.06</ele>
        <time>2021-08-14T04:33:17Z</time>
      </trkpt>
      <trkpt lat="46.25418" lon="3.16454">
        <ele>325.54</ele>
        <time>2021-08-14T04:33:26Z</time>
      </trkpt>
      <trkpt lat="46.2541" lon="3.16432">
        <ele>326.02</ele>
        <time>2021-08-14T04:33:33Z</time>
      </trkpt>
      <trkpt lat="46.25403" lon="3.16406">
        <ele>326.5</ele>
        <time>2021-08-14T04:33:41Z</time>
      </trkpt>
      <trkpt lat="46.25395" lon="3.16388">
        <ele>326.5</ele>
        <time>2021-08-14T04:33:46Z</time>
      </trkpt>
      <trkpt lat="46.25385" lon="3.16356">
        <ele>327.95</ele>
        <time>2021-08-14T04:33:55Z</time>
      </trkpt>
      <trkpt lat="46.2537" lon="3.1632">
        <ele>328.43</ele>
        <time>2021-08-14T04:34:05Z</time>
      </trkpt>
      <trkpt lat="46.25354" lon="3.16286">
        <ele>328.91</ele>
        <time>2021-08-14T04:34:15Z</time>
      </trkpt>
      <trkpt lat="46.25334" lon="3.16235">
        <ele>329.87</ele>
        <time>2021-08-14T04:34:28Z</time>
      </trkpt>
      <trkpt lat="46.25316" lon="3.16196">
        <ele>329.87</ele>
        <time>2021-08-14T04:34:38Z</time>
      </trkpt>
      <trkpt lat="46.253" lon="3.16164">
        <ele>330.35</ele>
        <time>2021-08-14T04:34:47Z</time>
      </trkpt>
      <trkpt lat="46.25278" lon="3.16122">
        <ele>329.87</ele>
        <time>2021-08-14T04:34:58Z</time>
      </trkpt>
      <trkpt lat="46.25253" lon="3.16076">
        <ele>330.35</ele>
        <time>2021-08-14T04:35:09Z</time>
      </trkpt>
      <trkpt lat="46.25226" lon="3.16033">
        <ele>330.35</ele>
        <time>2021-08-14T04:35:19Z</time>
      </trkpt>
      <trkpt lat="46.25196" lon="3.15994">
        <ele>330.35</ele>
        <time>2021-08-14T04:35:29Z</time>
      </trkpt>
      <trkpt lat="46.25193" lon="3.1599">
        <ele>330.35</ele>
        <time>2021-08-14T04:35:30Z</time>
      </trkpt>
      <trkpt lat="46.25165" lon="3.15963">
        <ele>327.47</ele>
        <time>2021-08-14T04:35:36Z</time>
      </trkpt>
      <trkpt lat="46.25153" lon="3.15953">
        <ele>326.5</ele>
        <time>2021-08-14T04:35:38Z</time>
      </trkpt>
      <trkpt lat="46.25134" lon="3.15934">
        <ele>325.06</ele>
        <time>2021-08-14T04:35:41Z</time>
      </trkpt>
      <trkpt lat="46.25094" lon="3.15893">
        <ele>321.7</ele>
        <time>2021-08-14T04:35:47Z</time>
      </trkpt>
      <trkpt lat="46.25058" lon="3.15846">
        <ele>321.22</ele>
        <time>2021-08-14T04:35:53Z</time>
      </trkpt>
      <trkpt lat="46.25037" lon="3.15819">
        <ele>321.22</ele>
        <time>2021-08-14T04:35:57Z</time>
      </trkpt>
      <trkpt lat="46.25032" lon="3.15815">
        <ele>321.22</ele>
        <time>2021-08-14T04:35:58Z</time>
      </trkpt>
      <trkpt lat="46.25027" lon="3.15812">
        <ele>321.22</ele>
        <time>2021-08-14T04:35:59Z</time>
      </trkpt>
      <trkpt lat="46.25022" lon="3.15811">
        <ele>321.22</ele>
        <time>2021-08-14T04:36:00Z</time>
      </trkpt>
      <trkpt lat="46.25017" lon="3.1581">
        <ele>321.22</ele>
        <time>2021-08-14T04:36:01Z</time>
      </trkpt>
      <trkpt lat="46.25013" lon="3.1581">
        <ele>321.22</ele>
        <time>2021-08-14T04:36:02Z</time>
      </trkpt>
      <trkpt lat="46.2501" lon="3.1581">
        <ele>322.66</ele>
        <time>2021-08-14T04:36:03Z</time>
      </trkpt>
      <trkpt lat="46.25007" lon="3.15811">
        <ele>323.14</ele>
        <time>2021-08-14T04:36:04Z</time>
      </trkpt>
      <trkpt lat="46.25004" lon="3.15811">
        <ele>323.14</ele>
        <time>2021-08-14T04:36:05Z</time>
      </trkpt>
      <trkpt lat="46.25001" lon="3.15811">
        <ele>324.1</ele>
        <time>2021-08-14T04:36:06Z</time>
      </trkpt>
      <trkpt lat="46.24999" lon="3.15811">
        <ele>324.1</ele>
        <time>2021-08-14T04:36:07Z</time>
      </trkpt>
      <trkpt lat="46.24997" lon="3.15811">
        <ele>324.58</ele>
        <time>2021-08-14T04:36:08Z</time>
      </trkpt>
      <trkpt lat="46.24995" lon="3.1581">
        <ele>324.58</ele>
        <time>2021-08-14T04:36:09Z</time>
      </trkpt>
      <trkpt lat="46.24993" lon="3.15809">
        <ele>325.06</ele>
        <time>2021-08-14T04:36:10Z</time>
      </trkpt>
      <trkpt lat="46.24976" lon="3.158">
        <ele>326.99</ele>
        <time>2021-08-14T04:36:18Z</time>
      </trkpt>
      <trkpt lat="46.24968" lon="3.15792">
        <ele>327.95</ele>
        <time>2021-08-14T04:36:23Z</time>
      </trkpt>
      <trkpt lat="46.24966" lon="3.15791">
        <ele>327.95</ele>
        <time>2021-08-14T04:36:24Z</time>
      </trkpt>
      <trkpt lat="46.24964" lon="3.15789">
        <ele>327.95</ele>
        <time>2021-08-14T04:36:25Z</time>
      </trkpt>
      <trkpt lat="46.24944" lon="3.15773">
        <ele>328.43</ele>
        <time>2021-08-14T04:36:35Z</time>
      </trkpt>
      <trkpt lat="46.24927" lon="3.1576">
        <ele>328.91</ele>
        <time>2021-08-14T04:36:43Z</time>
      </trkpt>
      <trkpt lat="46.24909" lon="3.15743">
        <ele>329.87</ele>
        <time>2021-08-14T04:36:51Z</time>
      </trkpt>
      <trkpt lat="46.24886" lon="3.15724">
        <ele>330.35</ele>
        <time>2021-08-14T04:37:00Z</time>
      </trkpt>
      <trkpt lat="46.24856" lon="3.15694">
        <ele>330.83</ele>
        <time>2021-08-14T04:37:11Z</time>
      </trkpt>
      <trkpt lat="46.24831" lon="3.15667">
        <ele>330.83</ele>
        <time>2021-08-14T04:37:20Z</time>
      </trkpt>
      <trkpt lat="46.24801" lon="3.15634">
        <ele>330.83</ele>
        <time>2021-08-14T04:37:30Z</time>
      </trkpt>
      <trkpt lat="46.24778" lon="3.15605">
        <ele>331.31</ele>
        <time>2021-08-14T04:37:39Z</time>
      </trkpt>
      <trkpt lat="46.24755" lon="3.15573">
        <ele>332.27</ele>
        <time>2021-08-14T04:37:49Z</time>
      </trkpt>
      <trkpt lat="46.24735" lon="3.15542">
        <ele>332.75</ele>
        <time>2021-08-14T04:37:58Z</time>
      </trkpt>
      <trkpt lat="46.24717" lon="3.15503">
        <ele>333.23</ele>
        <time>2021-08-14T04:38:07Z</time>
      </trkpt>
      <trkpt lat="46.24697" lon="3.15475">
        <ele>333.71</ele>
        <time>2021-08-14T04:38:16Z</time>
      </trkpt>
      <trkpt lat="46.24671" lon="3.15446">
        <ele>334.68</ele>
        <time>2021-08-14T04:38:26Z</time>
      </trkpt>
      <trkpt lat="46.24647" lon="3.1543">
        <ele>334.2</ele>
        <time>2021-08-14T04:38:33Z</time>
      </trkpt>
      <trkpt lat="46.24643" lon="3.15427">
        <ele>334.2</ele>
        <time>2021-08-14T04:38:34Z</time>
      </trkpt>
      <trkpt lat="46.24638" lon="3.15425">
        <ele>334.2</ele>
        <time>2021-08-14T04:38:35Z</time>
      </trkpt>
      <trkpt lat="46.24619" lon="3.15411">
        <ele>333.23</ele>
        <time>2021-08-14T04:38:41Z</time>
      </trkpt>
      <trkpt lat="46.2461" lon="3.15387">
        <ele>333.23</ele>
        <time>2021-08-14T04:38:47Z</time>
      </trkpt>
      <trkpt lat="46.24604" lon="3.15367">
        <ele>331.79</ele>
        <time>2021-08-14T04:38:51Z</time>
      </trkpt>
      <trkpt lat="46.24604" lon="3.15361">
        <ele>331.79</ele>
        <time>2021-08-14T04:38:52Z</time>
      </trkpt>
      <trkpt lat="46.24603" lon="3.15354">
        <ele>331.31</ele>
        <time>2021-08-14T04:38:53Z</time>
      </trkpt>
      <trkpt lat="46.24599" lon="3.15334">
        <ele>329.39</ele>
        <time>2021-08-14T04:38:56Z</time>
      </trkpt>
      <trkpt lat="46.24596" lon="3.15327">
        <ele>328.43</ele>
        <time>2021-08-14T04:38:57Z</time>
      </trkpt>
      <trkpt lat="46.24592" lon="3.15321">
        <ele>327.95</ele>
        <time>2021-08-14T04:38:58Z</time>
      </trkpt>
      <trkpt lat="46.2457" lon="3.153">
        <ele>324.1</ele>
        <time>2021-08-14T04:39:02Z</time>
      </trkpt>
      <trkpt lat="46.24552" lon="3.15284">
        <ele>320.26</ele>
        <time>2021-08-14T04:39:05Z</time>
      </trkpt>
      <trkpt lat="46.24533" lon="3.15267">
        <ele>316.89</ele>
        <time>2021-08-14T04:39:08Z</time>
      </trkpt>
      <trkpt lat="46.24511" lon="3.15249">
        <ele>313.05</ele>
        <time>2021-08-14T04:39:11Z</time>
      </trkpt>
      <trkpt lat="46.24491" lon="3.15236">
        <ele>309.68</ele>
        <time>2021-08-14T04:39:14Z</time>
      </trkpt>
      <trkpt lat="46.24476" lon="3.15227">
        <ele>307.28</ele>
        <time>2021-08-14T04:39:18Z</time>
      </trkpt>
      <trkpt lat="46.24459" lon="3.15221">
        <ele>303.43</ele>
        <time>2021-08-14T04:39:23Z</time>
      </trkpt>
      <trkpt lat="46.24442" lon="3.15211">
        <ele>300.07</ele>
        <time>2021-08-14T04:39:28Z</time>
      </trkpt>
      <trkpt lat="46.24431" lon="3.15205">
        <ele>297.18</ele>
        <time>2021-08-14T04:39:33Z</time>
      </trkpt>
      <trkpt lat="46.24427" lon="3.15204">
        <ele>295.74</ele>
        <time>2021-08-14T04:39:35Z</time>
      </trkpt>
      <trkpt lat="46.24425" lon="3.15204">
        <ele>295.74</ele>
        <time>2021-08-14T04:39:36Z</time>
      </trkpt>
      <trkpt lat="46.24423" lon="3.15203">
        <ele>294.78</ele>
        <time>2021-08-14T04:39:37Z</time>
      </trkpt>
      <trkpt lat="46.24421" lon="3.15203">
        <ele>294.3</ele>
        <time>2021-08-14T04:39:38Z</time>
      </trkpt>
      <trkpt lat="46.24419" lon="3.15204">
        <ele>293.82</ele>
        <time>2021-08-14T04:39:39Z</time>
      </trkpt>
      <trkpt lat="46.24417" lon="3.15203">
        <ele>292.86</ele>
        <time>2021-08-14T04:39:40Z</time>
      </trkpt>
      <trkpt lat="46.24414" lon="3.15203">
        <ele>292.38</ele>
        <time>2021-08-14T04:39:41Z</time>
      </trkpt>
      <trkpt lat="46.24403" lon="3.15206">
        <ele>289.49</ele>
        <time>2021-08-14T04:39:47Z</time>
      </trkpt>
      <trkpt lat="46.24393" lon="3.15207">
        <ele>286.61</ele>
        <time>2021-08-14T04:39:53Z</time>
      </trkpt>
      <trkpt lat="46.24392" lon="3.15207">
        <ele>286.13</ele>
        <time>2021-08-14T04:39:54Z</time>
      </trkpt>
      <trkpt lat="46.2439" lon="3.15209">
        <ele>285.65</ele>
        <time>2021-08-14T04:39:55Z</time>
      </trkpt>
      <trkpt lat="46.24389" lon="3.1521">
        <ele>285.65</ele>
        <time>2021-08-14T04:39:56Z</time>
      </trkpt>
      <trkpt lat="46.24388" lon="3.15211">
        <ele>285.17</ele>
        <time>2021-08-14T04:39:57Z</time>
      </trkpt>
      <trkpt lat="46.24387" lon="3.15212">
        <ele>285.17</ele>
        <time>2021-08-14T04:39:58Z</time>
      </trkpt>
      <trkpt lat="46.24385" lon="3.15213">
        <ele>284.69</ele>
        <time>2021-08-14T04:39:59Z</time>
      </trkpt>
      <trkpt lat="46.24384" lon="3.15214">
        <ele>284.21</ele>
        <time>2021-08-14T04:40:00Z</time>
      </trkpt>
      <trkpt lat="46.24382" lon="3.15214">
        <ele>283.73</ele>
        <time>2021-08-14T04:40:01Z</time>
      </trkpt>
      <trkpt lat="46.24381" lon="3.15215">
        <ele>283.25</ele>
        <time>2021-08-14T04:40:02Z</time>
      </trkpt>
      <trkpt lat="46.24378" lon="3.15217">
        <ele>282.77</ele>
        <time>2021-08-14T04:40:03Z</time>
      </trkpt>
      <trkpt lat="46.24376" lon="3.15219">
        <ele>281.8</ele>
        <time>2021-08-14T04:40:04Z</time>
      </trkpt>
      <trkpt lat="46.24374" lon="3.15219">
        <ele>281.32</ele>
        <time>2021-08-14T04:40:05Z</time>
      </trkpt>
      <trkpt lat="46.24363" lon="3.15225">
        <ele>280.84</ele>
        <time>2021-08-14T04:40:12Z</time>
      </trkpt>
      <trkpt lat="46.24355" lon="3.15234">
        <ele>281.32</ele>
        <time>2021-08-14T04:40:19Z</time>
      </trkpt>
      <trkpt lat="46.24348" lon="3.15238">
        <ele>281.32</ele>
        <time>2021-08-14T04:40:23Z</time>
      </trkpt>
      <trkpt lat="46.24347" lon="3.15237">
        <ele>282.28</ele>
        <time>2021-08-14T04:40:24Z</time>
      </trkpt>
      <trkpt lat="46.24339" lon="3.15234">
        <ele>282.77</ele>
        <time>2021-08-14T04:40:30Z</time>
      </trkpt>
      <trkpt lat="46.24335" lon="3.15231">
        <ele>282.77</ele>
        <time>2021-08-14T04:40:35Z</time>
      </trkpt>
      <trkpt lat="46.2433" lon="3.1523">
        <ele>282.77</ele>
        <time>2021-08-14T04:40:48Z</time>
      </trkpt>
      <trkpt lat="46.24327" lon="3.1523">
        <ele>282.77</ele>
        <time>2021-08-14T04:40:59Z</time>
      </trkpt>
      <trkpt lat="46.24325" lon="3.15231">
        <ele>282.77</ele>
        <time>2021-08-14T04:41:14Z</time>
      </trkpt>
      <trkpt lat="46.24329" lon="3.15233">
        <ele>282.77</ele>
        <time>2021-08-14T04:41:27Z</time>
      </trkpt>
      <trkpt lat="46.24328" lon="3.15227">
        <ele>282.77</ele>
        <time>2021-08-14T04:41:34Z</time>
      </trkpt>
      <trkpt lat="46.24325" lon="3.15225">
        <ele>282.77</ele>
        <time>2021-08-14T04:41:36Z</time>
      </trkpt>
      <trkpt lat="46.24324" lon="3.15223">
        <ele>282.77</ele>
        <time>2021-08-14T04:41:37Z</time>
      </trkpt>
      <trkpt lat="46.24323" lon="3.15222">
        <ele>282.77</ele>
        <time>2021-08-14T04:41:38Z</time>
      </trkpt>
      <trkpt lat="46.24316" lon="3.15214">
        <ele>280.84</ele>
        <time>2021-08-14T04:41:43Z</time>
      </trkpt>
      <trkpt lat="46.24304" lon="3.15203">
        <ele>280.36</ele>
        <time>2021-08-14T04:41:49Z</time>
      </trkpt>
      <trkpt lat="46.24301" lon="3.15201">
        <ele>280.36</ele>
        <time>2021-08-14T04:41:52Z</time>
      </trkpt>
      <trkpt lat="46.24291" lon="3.15195">
        <ele>280.36</ele>
        <time>2021-08-14T04:42:00Z</time>
      </trkpt>
      <trkpt lat="46.2429" lon="3.15194">
        <ele>281.8</ele>
        <time>2021-08-14T04:42:01Z</time>
      </trkpt>
      <trkpt lat="46.24288" lon="3.15193">
        <ele>281.8</ele>
        <time>2021-08-14T04:42:02Z</time>
      </trkpt>
      <trkpt lat="46.24287" lon="3.15192">
        <ele>281.8</ele>
        <time>2021-08-14T04:42:03Z</time>
      </trkpt>
      <trkpt lat="46.24285" lon="3.15188">
        <ele>282.28</ele>
        <time>2021-08-14T04:42:06Z</time>
      </trkpt>
      <trkpt lat="46.24284" lon="3.15187">
        <ele>282.28</ele>
        <time>2021-08-14T04:42:07Z</time>
      </trkpt>
      <trkpt lat="46.24284" lon="3.15186">
        <ele>282.28</ele>
        <time>2021-08-14T04:42:08Z</time>
      </trkpt>
      <trkpt lat="46.24284" lon="3.15184">
        <ele>282.28</ele>
        <time>2021-08-14T04:42:09Z</time>
      </trkpt>
      <trkpt lat="46.24283" lon="3.15183">
        <ele>282.28</ele>
        <time>2021-08-14T04:42:10Z</time>
      </trkpt>
      <trkpt lat="46.2428" lon="3.15175">
        <ele>283.25</ele>
        <time>2021-08-14T04:42:16Z</time>
      </trkpt>
      <trkpt lat="46.2428" lon="3.15173">
        <ele>283.25</ele>
        <time>2021-08-14T04:42:17Z</time>
      </trkpt>
      <trkpt lat="46.24279" lon="3.15172">
        <ele>283.73</ele>
        <time>2021-08-14T04:42:18Z</time>
      </trkpt>
      <trkpt lat="46.24272" lon="3.15159">
        <ele>285.65</ele>
        <time>2021-08-14T04:42:29Z</time>
      </trkpt>
      <trkpt lat="46.24265" lon="3.1515">
        <ele>287.09</ele>
        <time>2021-08-14T04:42:37Z</time>
      </trkpt>
      <trkpt lat="46.2426" lon="3.15143">
        <ele>288.05</ele>
        <time>2021-08-14T04:42:44Z</time>
      </trkpt>
      <trkpt lat="46.24253" lon="3.15133">
        <ele>289.97</ele>
        <time>2021-08-14T04:42:53Z</time>
      </trkpt>
      <trkpt lat="46.24252" lon="3.15132">
        <ele>289.97</ele>
        <time>2021-08-14T04:42:54Z</time>
      </trkpt>
      <trkpt lat="46.24251" lon="3.15131">
        <ele>290.46</ele>
        <time>2021-08-14T04:42:55Z</time>
      </trkpt>
      <trkpt lat="46.24246" lon="3.15124">
        <ele>291.9</ele>
        <time>2021-08-14T04:43:02Z</time>
      </trkpt>
      <trkpt lat="46.24242" lon="3.15116">
        <ele>293.34</ele>
        <time>2021-08-14T04:43:09Z</time>
      </trkpt>
      <trkpt lat="46.24239" lon="3.15114">
        <ele>294.3</ele>
        <time>2021-08-14T04:43:12Z</time>
      </trkpt>
      <trkpt lat="46.24233" lon="3.15109">
        <ele>295.26</ele>
        <time>2021-08-14T04:43:20Z</time>
      </trkpt>
      <trkpt lat="46.24228" lon="3.15103">
        <ele>296.22</ele>
        <time>2021-08-14T04:43:27Z</time>
      </trkpt>
      <trkpt lat="46.24227" lon="3.15103">
        <ele>296.22</ele>
        <time>2021-08-14T04:43:28Z</time>
      </trkpt>
      <trkpt lat="46.24223" lon="3.15102">
        <ele>297.18</ele>
        <time>2021-08-14T04:43:32Z</time>
      </trkpt>
      <trkpt lat="46.24221" lon="3.15102">
        <ele>297.18</ele>
        <time>2021-08-14T04:43:33Z</time>
      </trkpt>
      <trkpt lat="46.24222" lon="3.15105">
        <ele>297.67</ele>
        <time>2021-08-14T04:43:37Z</time>
      </trkpt>
      <trkpt lat="46.24223" lon="3.15105">
        <ele>298.15</ele>
        <time>2021-08-14T04:43:38Z</time>
      </trkpt>
      <trkpt lat="46.24224" lon="3.15106">
        <ele>298.15</ele>
        <time>2021-08-14T04:43:39Z</time>
      </trkpt>
      <trkpt lat="46.24226" lon="3.15107">
        <ele>298.63</ele>
        <time>2021-08-14T04:43:41Z</time>
      </trkpt>
      <trkpt lat="46.24227" lon="3.15108">
        <ele>298.63</ele>
        <time>2021-08-14T04:43:42Z</time>
      </trkpt>
      <trkpt lat="46.24228" lon="3.1511">
        <ele>298.63</ele>
        <time>2021-08-14T04:43:43Z</time>
      </trkpt>
      <trkpt lat="46.24229" lon="3.15111">
        <ele>299.11</ele>
        <time>2021-08-14T04:43:44Z</time>
      </trkpt>
      <trkpt lat="46.2423" lon="3.15112">
        <ele>299.11</ele>
        <time>2021-08-14T04:43:45Z</time>
      </trkpt>
      <trkpt lat="46.2423" lon="3.15113">
        <ele>299.11</ele>
        <time>2021-08-14T04:43:46Z</time>
      </trkpt>
      <trkpt lat="46.24234" lon="3.15122">
        <ele>300.55</ele>
        <time>2021-08-14T04:43:54Z</time>
      </trkpt>
      <trkpt lat="46.24236" lon="3.15125">
        <ele>301.03</ele>
        <time>2021-08-14T04:43:57Z</time>
      </trkpt>
      <trkpt lat="46.24239" lon="3.15133">
        <ele>301.99</ele>
        <time>2021-08-14T04:44:04Z</time>
      </trkpt>
      <trkpt lat="46.24243" lon="3.15142">
        <ele>303.43</ele>
        <time>2021-08-14T04:44:12Z</time>
      </trkpt>
      <trkpt lat="46.24244" lon="3.15154">
        <ele>304.88</ele>
        <time>2021-08-14T04:44:21Z</time>
      </trkpt>
      <trkpt lat="46.24243" lon="3.15166">
        <ele>306.8</ele>
        <time>2021-08-14T04:44:28Z</time>
      </trkpt>
      <trkpt lat="46.24243" lon="3.15173">
        <ele>306.8</ele>
        <time>2021-08-14T04:44:32Z</time>
      </trkpt>
      <trkpt lat="46.24241" lon="3.15176">
        <ele>308.24</ele>
        <time>2021-08-14T04:44:36Z</time>
      </trkpt>
      <trkpt lat="46.2424" lon="3.15175">
        <ele>308.24</ele>
        <time>2021-08-14T04:44:37Z</time>
      </trkpt>
      <trkpt lat="46.24235" lon="3.15163">
        <ele>309.2</ele>
        <time>2021-08-14T04:44:46Z</time>
      </trkpt>
      <trkpt lat="46.24234" lon="3.15162">
        <ele>309.68</ele>
        <time>2021-08-14T04:44:47Z</time>
      </trkpt>
      <trkpt lat="46.24234" lon="3.1516">
        <ele>309.68</ele>
        <time>2021-08-14T04:44:48Z</time>
      </trkpt>
      <trkpt lat="46.24234" lon="3.15159">
        <ele>309.68</ele>
        <time>2021-08-14T04:44:49Z</time>
      </trkpt>
      <trkpt lat="46.24233" lon="3.15157">
        <ele>309.68</ele>
        <time>2021-08-14T04:44:50Z</time>
      </trkpt>
      <trkpt lat="46.24233" lon="3.15156">
        <ele>309.68</ele>
        <time>2021-08-14T04:44:51Z</time>
      </trkpt>
      <trkpt lat="46.24232" lon="3.15154">
        <ele>309.68</ele>
        <time>2021-08-14T04:44:52Z</time>
      </trkpt>
      <trkpt lat="46.24231" lon="3.15153">
        <ele>310.16</ele>
        <time>2021-08-14T04:44:53Z</time>
      </trkpt>
      <trkpt lat="46.2423" lon="3.15151">
        <ele>310.16</ele>
        <time>2021-08-14T04:44:54Z</time>
      </trkpt>
      <trkpt lat="46.24221" lon="3.15144">
        <ele>311.12</ele>
        <time>2021-08-14T04:45:01Z</time>
      </trkpt>
      <trkpt lat="46.24215" lon="3.15141">
        <ele>311.6</ele>
        <time>2021-08-14T04:45:05Z</time>
      </trkpt>
      <trkpt lat="46.24214" lon="3.15139">
        <ele>311.6</ele>
        <time>2021-08-14T04:45:06Z</time>
      </trkpt>
      <trkpt lat="46.24213" lon="3.15138">
        <ele>312.09</ele>
        <time>2021-08-14T04:45:07Z</time>
      </trkpt>
      <trkpt lat="46.24211" lon="3.15136">
        <ele>312.09</ele>
        <time>2021-08-14T04:45:08Z</time>
      </trkpt>
      <trkpt lat="46.2421" lon="3.15135">
        <ele>312.09</ele>
        <time>2021-08-14T04:45:09Z</time>
      </trkpt>
      <trkpt lat="46.24209" lon="3.15134">
        <ele>312.57</ele>
        <time>2021-08-14T04:45:10Z</time>
      </trkpt>
      <trkpt lat="46.24207" lon="3.15133">
        <ele>312.57</ele>
        <time>2021-08-14T04:45:11Z</time>
      </trkpt>
      <trkpt lat="46.24198" lon="3.15128">
        <ele>313.53</ele>
        <time>2021-08-14T04:45:17Z</time>
      </trkpt>
      <trkpt lat="46.24189" lon="3.15123">
        <ele>315.45</ele>
        <time>2021-08-14T04:45:24Z</time>
      </trkpt>
      <trkpt lat="46.24186" lon="3.15124">
        <ele>315.45</ele>
        <time>2021-08-14T04:45:27Z</time>
      </trkpt>
      <trkpt lat="46.24177" lon="3.1513">
        <ele>317.37</ele>
        <time>2021-08-14T04:45:35Z</time>
      </trkpt>
      <trkpt lat="46.24172" lon="3.15138">
        <ele>318.81</ele>
        <time>2021-08-14T04:45:41Z</time>
      </trkpt>
      <trkpt lat="46.24171" lon="3.1514">
        <ele>318.81</ele>
        <time>2021-08-14T04:45:42Z</time>
      </trkpt>
      <trkpt lat="46.24171" lon="3.15142">
        <ele>319.78</ele>
        <time>2021-08-14T04:45:43Z</time>
      </trkpt>
      <trkpt lat="46.24169" lon="3.15142">
        <ele>319.78</ele>
        <time>2021-08-14T04:45:44Z</time>
      </trkpt>
      <trkpt lat="46.24168" lon="3.15142">
        <ele>319.78</ele>
        <time>2021-08-14T04:45:45Z</time>
      </trkpt>
      <trkpt lat="46.24167" lon="3.15141">
        <ele>319.78</ele>
        <time>2021-08-14T04:45:46Z</time>
      </trkpt>
      <trkpt lat="46.24166" lon="3.15141">
        <ele>319.78</ele>
        <time>2021-08-14T04:45:47Z</time>
      </trkpt>
      <trkpt lat="46.24156" lon="3.15146">
        <ele>320.26</ele>
        <time>2021-08-14T04:45:55Z</time>
      </trkpt>
      <trkpt lat="46.24155" lon="3.15148">
        <ele>320.26</ele>
        <time>2021-08-14T04:45:56Z</time>
      </trkpt>
      <trkpt lat="46.24154" lon="3.15149">
        <ele>320.74</ele>
        <time>2021-08-14T04:45:57Z</time>
      </trkpt>
      <trkpt lat="46.24152" lon="3.15149">
        <ele>320.74</ele>
        <time>2021-08-14T04:45:58Z</time>
      </trkpt>
      <trkpt lat="46.24151" lon="3.15149">
        <ele>320.74</ele>
        <time>2021-08-14T04:45:59Z</time>
      </trkpt>
      <trkpt lat="46.2415" lon="3.15149">
        <ele>320.74</ele>
        <time>2021-08-14T04:46:00Z</time>
      </trkpt>
      <trkpt lat="46.24148" lon="3.15149">
        <ele>321.22</ele>
        <time>2021-08-14T04:46:01Z</time>
      </trkpt>
      <trkpt lat="46.24147" lon="3.15149">
        <ele>321.22</ele>
        <time>2021-08-14T04:46:02Z</time>
      </trkpt>
      <trkpt lat="46.24145" lon="3.15149">
        <ele>321.22</ele>
        <time>2021-08-14T04:46:03Z</time>
      </trkpt>
      <trkpt lat="46.24144" lon="3.1515">
        <ele>321.22</ele>
        <time>2021-08-14T04:46:04Z</time>
      </trkpt>
      <trkpt lat="46.24142" lon="3.15151">
        <ele>321.22</ele>
        <time>2021-08-14T04:46:05Z</time>
      </trkpt>
      <trkpt lat="46.2414" lon="3.15151">
        <ele>321.7</ele>
        <time>2021-08-14T04:46:06Z</time>
      </trkpt>
      <trkpt lat="46.24126" lon="3.1516">
        <ele>322.18</ele>
        <time>2021-08-14T04:46:15Z</time>
      </trkpt>
      <trkpt lat="46.2411" lon="3.1517">
        <ele>322.66</ele>
        <time>2021-08-14T04:46:25Z</time>
      </trkpt>
      <trkpt lat="46.24102" lon="3.15175">
        <ele>323.14</ele>
        <time>2021-08-14T04:46:30Z</time>
      </trkpt>
      <trkpt lat="46.24098" lon="3.15176">
        <ele>323.14</ele>
        <time>2021-08-14T04:46:36Z</time>
      </trkpt>
      <trkpt lat="46.24096" lon="3.15176">
        <ele>323.14</ele>
        <time>2021-08-14T04:46:52Z</time>
      </trkpt>
      <trkpt lat="46.24095" lon="3.15178">
        <ele>323.14</ele>
        <time>2021-08-14T04:46:58Z</time>
      </trkpt>
      <trkpt lat="46.24094" lon="3.15179">
        <ele>323.14</ele>
        <time>2021-08-14T04:47:04Z</time>
      </trkpt>
      <trkpt lat="46.24094" lon="3.15183">
        <ele>323.14</ele>
        <time>2021-08-14T04:47:14Z</time>
      </trkpt>
      <trkpt lat="46.24093" lon="3.15184">
        <ele>323.14</ele>
        <time>2021-08-14T04:47:15Z</time>
      </trkpt>
      <trkpt lat="46.24092" lon="3.15185">
        <ele>323.14</ele>
        <time>2021-08-14T04:47:16Z</time>
      </trkpt>
      <trkpt lat="46.2409" lon="3.15187">
        <ele>323.14</ele>
        <time>2021-08-14T04:47:17Z</time>
      </trkpt>
      <trkpt lat="46.24088" lon="3.15188">
        <ele>323.14</ele>
        <time>2021-08-14T04:47:18Z</time>
      </trkpt>
      <trkpt lat="46.24069" lon="3.152">
        <ele>324.1</ele>
        <time>2021-08-14T04:47:28Z</time>
      </trkpt>
      <trkpt lat="46.2405" lon="3.15207">
        <ele>325.06</ele>
        <time>2021-08-14T04:47:38Z</time>
      </trkpt>
      <trkpt lat="46.24039" lon="3.15212">
        <ele>326.02</ele>
        <time>2021-08-14T04:47:45Z</time>
      </trkpt>
      <trkpt lat="46.24024" lon="3.15218">
        <ele>327.47</ele>
        <time>2021-08-14T04:47:53Z</time>
      </trkpt>
      <trkpt lat="46.24006" lon="3.15227">
        <ele>328.43</ele>
        <time>2021-08-14T04:48:02Z</time>
      </trkpt>
      <trkpt lat="46.23987" lon="3.15237">
        <ele>329.87</ele>
        <time>2021-08-14T04:48:12Z</time>
      </trkpt>
      <trkpt lat="46.23976" lon="3.15241">
        <ele>330.83</ele>
        <time>2021-08-14T04:48:18Z</time>
      </trkpt>
      <trkpt lat="46.23964" lon="3.15244">
        <ele>332.75</ele>
        <time>2021-08-14T04:48:26Z</time>
      </trkpt>
      <trkpt lat="46.23955" lon="3.1524">
        <ele>333.23</ele>
        <time>2021-08-14T04:48:31Z</time>
      </trkpt>
      <trkpt lat="46.23939" lon="3.15239">
        <ele>333.23</ele>
        <time>2021-08-14T04:48:39Z</time>
      </trkpt>
      <trkpt lat="46.23919" lon="3.15243">
        <ele>333.23</ele>
        <time>2021-08-14T04:48:47Z</time>
      </trkpt>
      <trkpt lat="46.23906" lon="3.15239">
        <ele>333.71</ele>
        <time>2021-08-14T04:48:53Z</time>
      </trkpt>
      <trkpt lat="46.23891" lon="3.15224">
        <ele>333.71</ele>
        <time>2021-08-14T04:48:59Z</time>
      </trkpt>
      <trkpt lat="46.23866" lon="3.15201">
        <ele>332.27</ele>
        <time>2021-08-14T04:49:07Z</time>
      </trkpt>
      <trkpt lat="46.23857" lon="3.15191">
        <ele>332.27</ele>
        <time>2021-08-14T04:49:11Z</time>
      </trkpt>
      <trkpt lat="46.23857" lon="3.15187">
        <ele>331.79</ele>
        <time>2021-08-14T04:49:12Z</time>
      </trkpt>
      <trkpt lat="46.23857" lon="3.15183">
        <ele>331.79</ele>
        <time>2021-08-14T04:49:13Z</time>
      </trkpt>
      <trkpt lat="46.23858" lon="3.15175">
        <ele>331.79</ele>
        <time>2021-08-14T04:49:18Z</time>
      </trkpt>
      <trkpt lat="46.23858" lon="3.15174">
        <ele>331.79</ele>
        <time>2021-08-14T04:49:28Z</time>
      </trkpt>
      <trkpt lat="46.23858" lon="3.15174">
        <ele>331.79</ele>
        <time>2021-08-14T04:49:39Z</time>
      </trkpt>
      <trkpt lat="46.23858" lon="3.15174">
        <ele>331.79</ele>
        <time>2021-08-14T04:49:57Z</time>
      </trkpt>
      <trkpt lat="46.23858" lon="3.15173">
        <ele>332.27</ele>
        <time>2021-08-14T04:50:19Z</time>
      </trkpt>
      <trkpt lat="46.23861" lon="3.15171">
        <ele>332.27</ele>
        <time>2021-08-14T04:50:42Z</time>
      </trkpt>
      <trkpt lat="46.23864" lon="3.15173">
        <ele>332.27</ele>
        <time>2021-08-14T04:50:59Z</time>
      </trkpt>
      <trkpt lat="46.23863" lon="3.15169">
        <ele>332.27</ele>
        <time>2021-08-14T04:51:16Z</time>
      </trkpt>
      <trkpt lat="46.23861" lon="3.15172">
        <ele>332.27</ele>
        <time>2021-08-14T04:51:34Z</time>
      </trkpt>
      <trkpt lat="46.23858" lon="3.15177">
        <ele>332.27</ele>
        <time>2021-08-14T04:51:57Z</time>
      </trkpt>
      <trkpt lat="46.23858" lon="3.15177">
        <ele>332.75</ele>
        <time>2021-08-14T04:52:16Z</time>
      </trkpt>
      <trkpt lat="46.23859" lon="3.15179">
        <ele>332.75</ele>
        <time>2021-08-14T04:52:37Z</time>
      </trkpt>
      <trkpt lat="46.23859" lon="3.15178">
        <ele>332.75</ele>
        <time>2021-08-14T04:52:55Z</time>
      </trkpt>
      <trkpt lat="46.23857" lon="3.15177">
        <ele>332.75</ele>
        <time>2021-08-14T04:53:13Z</time>
      </trkpt>
      <trkpt lat="46.23858" lon="3.15178">
        <ele>332.75</ele>
        <time>2021-08-14T04:53:27Z</time>
      </trkpt>
      <trkpt lat="46.23858" lon="3.1518">
        <ele>332.75</ele>
        <time>2021-08-14T04:53:33Z</time>
      </trkpt>
      <trkpt lat="46.2386" lon="3.1518">
        <ele>332.75</ele>
        <time>2021-08-14T04:53:39Z</time>
      </trkpt>
      <trkpt lat="46.2386" lon="3.15179">
        <ele>332.75</ele>
        <time>2021-08-14T04:53:55Z</time>
      </trkpt>
      <trkpt lat="46.23861" lon="3.15178">
        <ele>332.75</ele>
        <time>2021-08-14T04:54:14Z</time>
      </trkpt>
      <trkpt lat="46.23861" lon="3.15174">
        <ele>333.23</ele>
        <time>2021-08-14T04:54:34Z</time>
      </trkpt>
      <trkpt lat="46.2386" lon="3.15176">
        <ele>333.23</ele>
        <time>2021-08-14T04:54:54Z</time>
      </trkpt>
      <trkpt lat="46.2386" lon="3.15182">
        <ele>333.23</ele>
        <time>2021-08-14T04:55:10Z</time>
      </trkpt>
      <trkpt lat="46.23861" lon="3.15183">
        <ele>333.23</ele>
        <time>2021-08-14T04:55:23Z</time>
      </trkpt>
      <trkpt lat="46.23859" lon="3.15177">
        <ele>333.23</ele>
        <time>2021-08-14T04:55:49Z</time>
      </trkpt>
      <trkpt lat="46.23857" lon="3.15175">
        <ele>333.23</ele>
        <time>2021-08-14T04:56:06Z</time>
      </trkpt>
      <trkpt lat="46.23858" lon="3.15174">
        <ele>333.23</ele>
        <time>2021-08-14T04:56:21Z</time>
      </trkpt>
      <trkpt lat="46.23858" lon="3.15172">
        <ele>333.71</ele>
        <time>2021-08-14T04:56:44Z</time>
      </trkpt>
      <trkpt lat="46.23858" lon="3.15174">
        <ele>333.71</ele>
        <time>2021-08-14T04:57:00Z</time>
      </trkpt>
      <trkpt lat="46.23859" lon="3.15175">
        <ele>333.71</ele>
        <time>2021-08-14T04:57:14Z</time>
      </trkpt>
      <trkpt lat="46.23858" lon="3.15173">
        <ele>333.71</ele>
        <time>2021-08-14T04:57:30Z</time>
      </trkpt>
      <trkpt lat="46.23859" lon="3.15176">
        <ele>333.71</ele>
        <time>2021-08-14T04:57:52Z</time>
      </trkpt>
      <trkpt lat="46.23859" lon="3.15175">
        <ele>333.71</ele>
        <time>2021-08-14T04:58:08Z</time>
      </trkpt>
      <trkpt lat="46.2386" lon="3.15178">
        <ele>333.71</ele>
        <time>2021-08-14T04:58:16Z</time>
      </trkpt>
      <trkpt lat="46.23858" lon="3.15184">
        <ele>333.71</ele>
        <time>2021-08-14T04:58:20Z</time>
      </trkpt>
      <trkpt lat="46.23854" lon="3.15189">
        <ele>333.71</ele>
        <time>2021-08-14T04:58:25Z</time>
      </trkpt>
      <trkpt lat="46.23854" lon="3.15196">
        <ele>333.71</ele>
        <time>2021-08-14T04:58:33Z</time>
      </trkpt>
      <trkpt lat="46.23853" lon="3.15196">
        <ele>333.71</ele>
        <time>2021-08-14T04:58:41Z</time>
      </trkpt>
      <trkpt lat="46.23852" lon="3.15184">
        <ele>333.71</ele>
        <time>2021-08-14T04:59:00Z</time>
      </trkpt>
      <trkpt lat="46.2385" lon="3.15171">
        <ele>334.2</ele>
        <time>2021-08-14T04:59:14Z</time>
      </trkpt>
      <trkpt lat="46.2385" lon="3.15163">
        <ele>334.2</ele>
        <time>2021-08-14T04:59:34Z</time>
      </trkpt>
      <trkpt lat="46.23848" lon="3.15158">
        <ele>334.2</ele>
        <time>2021-08-14T04:59:49Z</time>
      </trkpt>
      <trkpt lat="46.23848" lon="3.15159">
        <ele>334.2</ele>
        <time>2021-08-14T05:00:01Z</time>
      </trkpt>
      <trkpt lat="46.23848" lon="3.1516">
        <ele>334.2</ele>
        <time>2021-08-14T05:00:14Z</time>
      </trkpt>
      <trkpt lat="46.23849" lon="3.1516">
        <ele>334.68</ele>
        <time>2021-08-14T05:00:33Z</time>
      </trkpt>
      <trkpt lat="46.23849" lon="3.15161">
        <ele>334.68</ele>
        <time>2021-08-14T05:00:54Z</time>
      </trkpt>
      <trkpt lat="46.23848" lon="3.15162">
        <ele>334.68</ele>
        <time>2021-08-14T05:01:11Z</time>
      </trkpt>
      <trkpt lat="46.23848" lon="3.15163">
        <ele>335.16</ele>
        <time>2021-08-14T05:01:26Z</time>
      </trkpt>
      <trkpt lat="46.2385" lon="3.15164">
        <ele>335.16</ele>
        <time>2021-08-14T05:01:38Z</time>
      </trkpt>
      <trkpt lat="46.23852" lon="3.15166">
        <ele>335.16</ele>
        <time>2021-08-14T05:01:50Z</time>
      </trkpt>
      <trkpt lat="46.23851" lon="3.15167">
        <ele>335.16</ele>
        <time>2021-08-14T05:02:04Z</time>
      </trkpt>
      <trkpt lat="46.23856" lon="3.15175">
        <ele>335.16</ele>
        <time>2021-08-14T05:02:12Z</time>
      </trkpt>
      <trkpt lat="46.23855" lon="3.15179">
        <ele>335.16</ele>
        <time>2021-08-14T05:02:19Z</time>
      </trkpt>
      <trkpt lat="46.23856" lon="3.15183">
        <ele>335.64</ele>
        <time>2021-08-14T05:02:40Z</time>
      </trkpt>
      <trkpt lat="46.23856" lon="3.15184">
        <ele>335.64</ele>
        <time>2021-08-14T05:02:50Z</time>
      </trkpt>
      <trkpt lat="46.2386" lon="3.15174">
        <ele>336.12</ele>
        <time>2021-08-14T05:03:00Z</time>
      </trkpt>
      <trkpt lat="46.23861" lon="3.15171">
        <ele>336.12</ele>
        <time>2021-08-14T05:03:06Z</time>
      </trkpt>
      <trkpt lat="46.23862" lon="3.15171">
        <ele>336.12</ele>
        <time>2021-08-14T05:03:17Z</time>
      </trkpt>
      <trkpt lat="46.23862" lon="3.1517">
        <ele>336.12</ele>
        <time>2021-08-14T05:03:27Z</time>
      </trkpt>
      <trkpt lat="46.23862" lon="3.15174">
        <ele>336.12</ele>
        <time>2021-08-14T05:03:35Z</time>
      </trkpt>
      <trkpt lat="46.23863" lon="3.15177">
        <ele>336.12</ele>
        <time>2021-08-14T05:03:49Z</time>
      </trkpt>
      <trkpt lat="46.23863" lon="3.15176">
        <ele>336.12</ele>
        <time>2021-08-14T05:04:06Z</time>
      </trkpt>
      <trkpt lat="46.23862" lon="3.15176">
        <ele>336.12</ele>
        <time>2021-08-14T05:04:13Z</time>
      </trkpt>
      <trkpt lat="46.23862" lon="3.15176">
        <ele>336.12</ele>
        <time>2021-08-14T05:04:14Z</time>
      </trkpt>
      <trkpt lat="46.23856" lon="3.15187">
        <ele>336.12</ele>
        <time>2021-08-14T05:04:24Z</time>
      </trkpt>
      <trkpt lat="46.23856" lon="3.15188">
        <ele>336.12</ele>
        <time>2021-08-14T05:04:25Z</time>
      </trkpt>
      <trkpt lat="46.23853" lon="3.15193">
        <ele>336.12</ele>
        <time>2021-08-14T05:04:32Z</time>
      </trkpt>
      <trkpt lat="46.23852" lon="3.15196">
        <ele>336.12</ele>
        <time>2021-08-14T05:04:43Z</time>
      </trkpt>
      <trkpt lat="46.23851" lon="3.15195">
        <ele>336.12</ele>
        <time>2021-08-14T05:04:58Z</time>
      </trkpt>
      <trkpt lat="46.23851" lon="3.15193">
        <ele>336.12</ele>
        <time>2021-08-14T05:05:11Z</time>
      </trkpt>
      <trkpt lat="46.2385" lon="3.15184">
        <ele>336.12</ele>
        <time>2021-08-14T05:05:22Z</time>
      </trkpt>
      <trkpt lat="46.2385" lon="3.1518">
        <ele>336.12</ele>
        <time>2021-08-14T05:05:35Z</time>
      </trkpt>
      <trkpt lat="46.23848" lon="3.15165">
        <ele>336.12</ele>
        <time>2021-08-14T05:05:55Z</time>
      </trkpt>
      <trkpt lat="46.23849" lon="3.15165">
        <ele>336.12</ele>
        <time>2021-08-14T05:06:10Z</time>
      </trkpt>
      <trkpt lat="46.2385" lon="3.15166">
        <ele>336.6</ele>
        <time>2021-08-14T05:06:25Z</time>
      </trkpt>
      <trkpt lat="46.23849" lon="3.15162">
        <ele>336.6</ele>
        <time>2021-08-14T05:06:38Z</time>
      </trkpt>
      <trkpt lat="46.23848" lon="3.15162">
        <ele>336.6</ele>
        <time>2021-08-14T05:06:56Z</time>
      </trkpt>
      <trkpt lat="46.23847" lon="3.15166">
        <ele>336.6</ele>
        <time>2021-08-14T05:07:14Z</time>
      </trkpt>
      <trkpt lat="46.23849" lon="3.15167">
        <ele>336.6</ele>
        <time>2021-08-14T05:07:29Z</time>
      </trkpt>
      <trkpt lat="46.23847" lon="3.15165">
        <ele>337.08</ele>
        <time>2021-08-14T05:07:40Z</time>
      </trkpt>
      <trkpt lat="46.23847" lon="3.15164">
        <ele>337.08</ele>
        <time>2021-08-14T05:08:03Z</time>
      </trkpt>
      <trkpt lat="46.23847" lon="3.15168">
        <ele>337.08</ele>
        <time>2021-08-14T05:08:22Z</time>
      </trkpt>
      <trkpt lat="46.23848" lon="3.15177">
        <ele>337.08</ele>
        <time>2021-08-14T05:08:46Z</time>
      </trkpt>
      <trkpt lat="46.23848" lon="3.15176">
        <ele>337.08</ele>
        <time>2021-08-14T05:08:59Z</time>
      </trkpt>
      <trkpt lat="46.23847" lon="3.15179">
        <ele>337.08</ele>
        <time>2021-08-14T05:09:14Z</time>
      </trkpt>
      <trkpt lat="46.23849" lon="3.15185">
        <ele>337.08</ele>
        <time>2021-08-14T05:09:19Z</time>
      </trkpt>
      <trkpt lat="46.23839" lon="3.15176">
        <ele>337.08</ele>
        <time>2021-08-14T05:09:25Z</time>
      </trkpt>
      <trkpt lat="46.23814" lon="3.1516">
        <ele>336.12</ele>
        <time>2021-08-14T05:09:33Z</time>
      </trkpt>
      <trkpt lat="46.2378" lon="3.15139">
        <ele>334.68</ele>
        <time>2021-08-14T05:09:41Z</time>
      </trkpt>
      <trkpt lat="46.23766" lon="3.15126">
        <ele>334.2</ele>
        <time>2021-08-14T05:09:45Z</time>
      </trkpt>
      <trkpt lat="46.23757" lon="3.15114">
        <ele>334.2</ele>
        <time>2021-08-14T05:09:50Z</time>
      </trkpt>
      <trkpt lat="46.23763" lon="3.15121">
        <ele>334.2</ele>
        <time>2021-08-14T05:09:59Z</time>
      </trkpt>
      <trkpt lat="46.23764" lon="3.15125">
        <ele>334.68</ele>
        <time>2021-08-14T05:10:20Z</time>
      </trkpt>
      <trkpt lat="46.23763" lon="3.15132">
        <ele>334.68</ele>
        <time>2021-08-14T05:10:38Z</time>
      </trkpt>
      <trkpt lat="46.23765" lon="3.15139">
        <ele>334.68</ele>
        <time>2021-08-14T05:11:04Z</time>
      </trkpt>
      <trkpt lat="46.23769" lon="3.15142">
        <ele>335.16</ele>
        <time>2021-08-14T05:11:21Z</time>
      </trkpt>
      <trkpt lat="46.23767" lon="3.15139">
        <ele>335.16</ele>
        <time>2021-08-14T05:11:43Z</time>
      </trkpt>
      <trkpt lat="46.23766" lon="3.1514">
        <ele>335.16</ele>
        <time>2021-08-14T05:12:00Z</time>
      </trkpt>
      <trkpt lat="46.23765" lon="3.15141">
        <ele>335.16</ele>
        <time>2021-08-14T05:12:13Z</time>
      </trkpt>
      <trkpt lat="46.23764" lon="3.15142">
        <ele>335.64</ele>
        <time>2021-08-14T05:12:28Z</time>
      </trkpt>
      <trkpt lat="46.2376" lon="3.15136">
        <ele>335.64</ele>
        <time>2021-08-14T05:12:43Z</time>
      </trkpt>
      <trkpt lat="46.23754" lon="3.15121">
        <ele>335.16</ele>
        <time>2021-08-14T05:12:47Z</time>
      </trkpt>
      <trkpt lat="46.23752" lon="3.15122">
        <ele>335.16</ele>
        <time>2021-08-14T05:12:48Z</time>
      </trkpt>
      <trkpt lat="46.23749" lon="3.15129">
        <ele>335.16</ele>
        <time>2021-08-14T05:12:50Z</time>
      </trkpt>
      <trkpt lat="46.23748" lon="3.15132">
        <ele>335.16</ele>
        <time>2021-08-14T05:12:51Z</time>
      </trkpt>
      <trkpt lat="46.23748" lon="3.15139">
        <ele>336.12</ele>
        <time>2021-08-14T05:12:56Z</time>
      </trkpt>
      <trkpt lat="46.23748" lon="3.15138">
        <ele>336.6</ele>
        <time>2021-08-14T05:13:04Z</time>
      </trkpt>
      <trkpt lat="46.23748" lon="3.15139">
        <ele>337.08</ele>
        <time>2021-08-14T05:13:17Z</time>
      </trkpt>
      <trkpt lat="46.23749" lon="3.15136">
        <ele>337.08</ele>
        <time>2021-08-14T05:13:27Z</time>
      </trkpt>
      <trkpt lat="46.23752" lon="3.15136">
        <ele>337.08</ele>
        <time>2021-08-14T05:13:39Z</time>
      </trkpt>
      <trkpt lat="46.23751" lon="3.15138">
        <ele>337.08</ele>
        <time>2021-08-14T05:13:45Z</time>
      </trkpt>
      <trkpt lat="46.23751" lon="3.15139">
        <ele>337.08</ele>
        <time>2021-08-14T05:13:53Z</time>
      </trkpt>
      <trkpt lat="46.2375" lon="3.15136">
        <ele>337.08</ele>
        <time>2021-08-14T05:13:58Z</time>
      </trkpt>
      <trkpt lat="46.23749" lon="3.15134">
        <ele>337.08</ele>
        <time>2021-08-14T05:14:07Z</time>
      </trkpt>
      <trkpt lat="46.23748" lon="3.15134">
        <ele>337.08</ele>
        <time>2021-08-14T05:14:20Z</time>
      </trkpt>
      <trkpt lat="46.23747" lon="3.15132">
        <ele>337.08</ele>
        <time>2021-08-14T05:14:29Z</time>
      </trkpt>
      <trkpt lat="46.23748" lon="3.1513">
        <ele>337.08</ele>
        <time>2021-08-14T05:14:30Z</time>
      </trkpt>
      <trkpt lat="46.23749" lon="3.1513">
        <ele>337.08</ele>
        <time>2021-08-14T05:14:31Z</time>
      </trkpt>
      <trkpt lat="46.2375" lon="3.15131">
        <ele>337.08</ele>
        <time>2021-08-14T05:14:32Z</time>
      </trkpt>
      <trkpt lat="46.2375" lon="3.15133">
        <ele>337.08</ele>
        <time>2021-08-14T05:14:33Z</time>
      </trkpt>
      <trkpt lat="46.2375" lon="3.15134">
        <ele>337.08</ele>
        <time>2021-08-14T05:14:34Z</time>
      </trkpt>
      <trkpt lat="46.2375" lon="3.15136">
        <ele>337.08</ele>
        <time>2021-08-14T05:14:35Z</time>
      </trkpt>
      <trkpt lat="46.23749" lon="3.15157">
        <ele>338.04</ele>
        <time>2021-08-14T05:14:45Z</time>
      </trkpt>
      <trkpt lat="46.23748" lon="3.15167">
        <ele>339</ele>
        <time>2021-08-14T05:14:50Z</time>
      </trkpt>
      <trkpt lat="46.23747" lon="3.15169">
        <ele>339</ele>
        <time>2021-08-14T05:14:51Z</time>
      </trkpt>
      <trkpt lat="46.23747" lon="3.15171">
        <ele>339</ele>
        <time>2021-08-14T05:14:52Z</time>
      </trkpt>
      <trkpt lat="46.23747" lon="3.15173">
        <ele>339.48</ele>
        <time>2021-08-14T05:14:53Z</time>
      </trkpt>
      <trkpt lat="46.23747" lon="3.15175">
        <ele>339.48</ele>
        <time>2021-08-14T05:14:54Z</time>
      </trkpt>
      <trkpt lat="46.23745" lon="3.15187">
        <ele>340.44</ele>
        <time>2021-08-14T05:15:00Z</time>
      </trkpt>
      <trkpt lat="46.23745" lon="3.15199">
        <ele>340.92</ele>
        <time>2021-08-14T05:15:07Z</time>
      </trkpt>
      <trkpt lat="46.23745" lon="3.15201">
        <ele>341.41</ele>
        <time>2021-08-14T05:15:08Z</time>
      </trkpt>
      <trkpt lat="46.23744" lon="3.15203">
        <ele>341.41</ele>
        <time>2021-08-14T05:15:09Z</time>
      </trkpt>
      <trkpt lat="46.23744" lon="3.15205">
        <ele>341.41</ele>
        <time>2021-08-14T05:15:10Z</time>
      </trkpt>
      <trkpt lat="46.23744" lon="3.15207">
        <ele>341.41</ele>
        <time>2021-08-14T05:15:11Z</time>
      </trkpt>
      <trkpt lat="46.23744" lon="3.15209">
        <ele>341.41</ele>
        <time>2021-08-14T05:15:12Z</time>
      </trkpt>
      <trkpt lat="46.23744" lon="3.15211">
        <ele>341.41</ele>
        <time>2021-08-14T05:15:13Z</time>
      </trkpt>
      <trkpt lat="46.23741" lon="3.15231">
        <ele>342.85</ele>
        <time>2021-08-14T05:15:22Z</time>
      </trkpt>
      <trkpt lat="46.23742" lon="3.15237">
        <ele>343.33</ele>
        <time>2021-08-14T05:15:25Z</time>
      </trkpt>
      <trkpt lat="46.23742" lon="3.15239">
        <ele>343.33</ele>
        <time>2021-08-14T05:15:26Z</time>
      </trkpt>
      <trkpt lat="46.23739" lon="3.15255">
        <ele>344.29</ele>
        <time>2021-08-14T05:15:33Z</time>
      </trkpt>
      <trkpt lat="46.23738" lon="3.15256">
        <ele>344.29</ele>
        <time>2021-08-14T05:15:34Z</time>
      </trkpt>
      <trkpt lat="46.23736" lon="3.15257">
        <ele>344.29</ele>
        <time>2021-08-14T05:15:35Z</time>
      </trkpt>
      <trkpt lat="46.23734" lon="3.15258">
        <ele>344.29</ele>
        <time>2021-08-14T05:15:36Z</time>
      </trkpt>
      <trkpt lat="46.23732" lon="3.15258">
        <ele>344.29</ele>
        <time>2021-08-14T05:15:37Z</time>
      </trkpt>
      <trkpt lat="46.2373" lon="3.15258">
        <ele>344.29</ele>
        <time>2021-08-14T05:15:38Z</time>
      </trkpt>
      <trkpt lat="46.23728" lon="3.15259">
        <ele>344.29</ele>
        <time>2021-08-14T05:15:39Z</time>
      </trkpt>
      <trkpt lat="46.23725" lon="3.1526">
        <ele>344.29</ele>
        <time>2021-08-14T05:15:40Z</time>
      </trkpt>
      <trkpt lat="46.23701" lon="3.15263">
        <ele>344.29</ele>
        <time>2021-08-14T05:15:49Z</time>
      </trkpt>
      <trkpt lat="46.23682" lon="3.15263">
        <ele>344.77</ele>
        <time>2021-08-14T05:15:56Z</time>
      </trkpt>
      <trkpt lat="46.2368" lon="3.15261">
        <ele>344.77</ele>
        <time>2021-08-14T05:15:57Z</time>
      </trkpt>
      <trkpt lat="46.23679" lon="3.15259">
        <ele>344.77</ele>
        <time>2021-08-14T05:15:58Z</time>
      </trkpt>
      <trkpt lat="46.23655" lon="3.15252">
        <ele>344.77</ele>
        <time>2021-08-14T05:16:07Z</time>
      </trkpt>
      <trkpt lat="46.23626" lon="3.15248">
        <ele>343.33</ele>
        <time>2021-08-14T05:16:15Z</time>
      </trkpt>
      <trkpt lat="46.23613" lon="3.15247">
        <ele>342.85</ele>
        <time>2021-08-14T05:16:20Z</time>
      </trkpt>
      <trkpt lat="46.23588" lon="3.15238">
        <ele>342.85</ele>
        <time>2021-08-14T05:16:28Z</time>
      </trkpt>
      <trkpt lat="46.23555" lon="3.15228">
        <ele>342.85</ele>
        <time>2021-08-14T05:16:37Z</time>
      </trkpt>
      <trkpt lat="46.23521" lon="3.15213">
        <ele>343.33</ele>
        <time>2021-08-14T05:16:46Z</time>
      </trkpt>
      <trkpt lat="46.23484" lon="3.15199">
        <ele>343.33</ele>
        <time>2021-08-14T05:16:56Z</time>
      </trkpt>
      <trkpt lat="46.23443" lon="3.15185">
        <ele>342.85</ele>
        <time>2021-08-14T05:17:06Z</time>
      </trkpt>
      <trkpt lat="46.23426" lon="3.15177">
        <ele>342.37</ele>
        <time>2021-08-14T05:17:10Z</time>
      </trkpt>
      <trkpt lat="46.2341" lon="3.15171">
        <ele>342.37</ele>
        <time>2021-08-14T05:17:14Z</time>
      </trkpt>
      <trkpt lat="46.23369" lon="3.15153">
        <ele>340.92</ele>
        <time>2021-08-14T05:17:23Z</time>
      </trkpt>
      <trkpt lat="46.23327" lon="3.15136">
        <ele>339.48</ele>
        <time>2021-08-14T05:17:31Z</time>
      </trkpt>
      <trkpt lat="46.23272" lon="3.15112">
        <ele>337.56</ele>
        <time>2021-08-14T05:17:41Z</time>
      </trkpt>
      <trkpt lat="46.23256" lon="3.15108">
        <ele>337.08</ele>
        <time>2021-08-14T05:17:46Z</time>
      </trkpt>
      <trkpt lat="46.23225" lon="3.15101">
        <ele>336.12</ele>
        <time>2021-08-14T05:17:54Z</time>
      </trkpt>
      <trkpt lat="46.23171" lon="3.15087">
        <ele>335.16</ele>
        <time>2021-08-14T05:18:05Z</time>
      </trkpt>
      <trkpt lat="46.23121" lon="3.1508">
        <ele>333.23</ele>
        <time>2021-08-14T05:18:14Z</time>
      </trkpt>
      <trkpt lat="46.23071" lon="3.1507">
        <ele>331.79</ele>
        <time>2021-08-14T05:18:22Z</time>
      </trkpt>
      <trkpt lat="46.22995" lon="3.15046">
        <ele>329.39</ele>
        <time>2021-08-14T05:18:33Z</time>
      </trkpt>
      <trkpt lat="46.22917" lon="3.15022">
        <ele>326.5</ele>
        <time>2021-08-14T05:18:43Z</time>
      </trkpt>
      <trkpt lat="46.22842" lon="3.14999">
        <ele>325.54</ele>
        <time>2021-08-14T05:18:53Z</time>
      </trkpt>
      <trkpt lat="46.22765" lon="3.14983">
        <ele>325.06</ele>
        <time>2021-08-14T05:19:04Z</time>
      </trkpt>
      <trkpt lat="46.22709" lon="3.14979">
        <ele>325.06</ele>
        <time>2021-08-14T05:19:13Z</time>
      </trkpt>
      <trkpt lat="46.22656" lon="3.14979">
        <ele>322.66</ele>
        <time>2021-08-14T05:19:21Z</time>
      </trkpt>
      <trkpt lat="46.22624" lon="3.14973">
        <ele>320.74</ele>
        <time>2021-08-14T05:19:25Z</time>
      </trkpt>
      <trkpt lat="46.2254" lon="3.1495">
        <ele>317.37</ele>
        <time>2021-08-14T05:19:35Z</time>
      </trkpt>
      <trkpt lat="46.22475" lon="3.14942">
        <ele>314.49</ele>
        <time>2021-08-14T05:19:42Z</time>
      </trkpt>
      <trkpt lat="46.22382" lon="3.14935">
        <ele>311.6</ele>
        <time>2021-08-14T05:19:52Z</time>
      </trkpt>
      <trkpt lat="46.22315" lon="3.14917">
        <ele>311.12</ele>
        <time>2021-08-14T05:20:00Z</time>
      </trkpt>
      <trkpt lat="46.22264" lon="3.14917">
        <ele>310.64</ele>
        <time>2021-08-14T05:20:07Z</time>
      </trkpt>
      <trkpt lat="46.22213" lon="3.14926">
        <ele>311.12</ele>
        <time>2021-08-14T05:20:15Z</time>
      </trkpt>
      <trkpt lat="46.22207" lon="3.14926">
        <ele>311.12</ele>
        <time>2021-08-14T05:20:16Z</time>
      </trkpt>
      <trkpt lat="46.22203" lon="3.14926">
        <ele>311.12</ele>
        <time>2021-08-14T05:20:17Z</time>
      </trkpt>
      <trkpt lat="46.22183" lon="3.14924">
        <ele>312.57</ele>
        <time>2021-08-14T05:20:21Z</time>
      </trkpt>
      <trkpt lat="46.22179" lon="3.14922">
        <ele>312.57</ele>
        <time>2021-08-14T05:20:22Z</time>
      </trkpt>
      <trkpt lat="46.22151" lon="3.14903">
        <ele>313.05</ele>
        <time>2021-08-14T05:20:30Z</time>
      </trkpt>
      <trkpt lat="46.22122" lon="3.14882">
        <ele>313.53</ele>
        <time>2021-08-14T05:20:39Z</time>
      </trkpt>
      <trkpt lat="46.22087" lon="3.14867">
        <ele>314.49</ele>
        <time>2021-08-14T05:20:49Z</time>
      </trkpt>
      <trkpt lat="46.22055" lon="3.14859">
        <ele>314.97</ele>
        <time>2021-08-14T05:20:58Z</time>
      </trkpt>
      <trkpt lat="46.22025" lon="3.14851">
        <ele>315.93</ele>
        <time>2021-08-14T05:21:07Z</time>
      </trkpt>
      <trkpt lat="46.22004" lon="3.14853">
        <ele>316.41</ele>
        <time>2021-08-14T05:21:14Z</time>
      </trkpt>
      <trkpt lat="46.21985" lon="3.14883">
        <ele>317.37</ele>
        <time>2021-08-14T05:21:23Z</time>
      </trkpt>
      <trkpt lat="46.21973" lon="3.14903">
        <ele>318.33</ele>
        <time>2021-08-14T05:21:30Z</time>
      </trkpt>
      <trkpt lat="46.21955" lon="3.14936">
        <ele>319.3</ele>
        <time>2021-08-14T05:21:40Z</time>
      </trkpt>
      <trkpt lat="46.21941" lon="3.14966">
        <ele>319.3</ele>
        <time>2021-08-14T05:21:48Z</time>
      </trkpt>
      <trkpt lat="46.21921" lon="3.15009">
        <ele>319.78</ele>
        <time>2021-08-14T05:21:59Z</time>
      </trkpt>
      <trkpt lat="46.21901" lon="3.15056">
        <ele>319.78</ele>
        <time>2021-08-14T05:22:08Z</time>
      </trkpt>
      <trkpt lat="46.21896" lon="3.15069">
        <ele>318.33</ele>
        <time>2021-08-14T05:22:10Z</time>
      </trkpt>
      <trkpt lat="46.21872" lon="3.15138">
        <ele>316.89</ele>
        <time>2021-08-14T05:22:20Z</time>
      </trkpt>
      <trkpt lat="46.21847" lon="3.15202">
        <ele>316.41</ele>
        <time>2021-08-14T05:22:30Z</time>
      </trkpt>
      <trkpt lat="46.21817" lon="3.15266">
        <ele>315.93</ele>
        <time>2021-08-14T05:22:41Z</time>
      </trkpt>
      <trkpt lat="46.21777" lon="3.15329">
        <ele>314.01</ele>
        <time>2021-08-14T05:22:53Z</time>
      </trkpt>
      <trkpt lat="46.21749" lon="3.15374">
        <ele>312.09</ele>
        <time>2021-08-14T05:23:01Z</time>
      </trkpt>
      <trkpt lat="46.21744" lon="3.1538">
        <ele>312.09</ele>
        <time>2021-08-14T05:23:03Z</time>
      </trkpt>
      <trkpt lat="46.21742" lon="3.15379">
        <ele>312.09</ele>
        <time>2021-08-14T05:23:04Z</time>
      </trkpt>
      <trkpt lat="46.2174" lon="3.15376">
        <ele>312.09</ele>
        <time>2021-08-14T05:23:05Z</time>
      </trkpt>
      <trkpt lat="46.2174" lon="3.15373">
        <ele>312.09</ele>
        <time>2021-08-14T05:23:06Z</time>
      </trkpt>
      <trkpt lat="46.21738" lon="3.15371">
        <ele>312.09</ele>
        <time>2021-08-14T05:23:07Z</time>
      </trkpt>
      <trkpt lat="46.21736" lon="3.15368">
        <ele>312.09</ele>
        <time>2021-08-14T05:23:08Z</time>
      </trkpt>
      <trkpt lat="46.21735" lon="3.15363">
        <ele>312.57</ele>
        <time>2021-08-14T05:23:09Z</time>
      </trkpt>
      <trkpt lat="46.21733" lon="3.15359">
        <ele>312.57</ele>
        <time>2021-08-14T05:23:10Z</time>
      </trkpt>
      <trkpt lat="46.21722" lon="3.1533">
        <ele>312.09</ele>
        <time>2021-08-14T05:23:17Z</time>
      </trkpt>
      <trkpt lat="46.21701" lon="3.15282">
        <ele>310.16</ele>
        <time>2021-08-14T05:23:25Z</time>
      </trkpt>
      <trkpt lat="46.21678" lon="3.15235">
        <ele>308.72</ele>
        <time>2021-08-14T05:23:33Z</time>
      </trkpt>
      <trkpt lat="46.21651" lon="3.15194">
        <ele>305.36</ele>
        <time>2021-08-14T05:23:39Z</time>
      </trkpt>
      <trkpt lat="46.21604" lon="3.15127">
        <ele>301.99</ele>
        <time>2021-08-14T05:23:48Z</time>
      </trkpt>
      <trkpt lat="46.2157" lon="3.15081">
        <ele>299.59</ele>
        <time>2021-08-14T05:23:55Z</time>
      </trkpt>
      <trkpt lat="46.21566" lon="3.15078">
        <ele>299.59</ele>
        <time>2021-08-14T05:23:56Z</time>
      </trkpt>
      <trkpt lat="46.21562" lon="3.15077">
        <ele>299.59</ele>
        <time>2021-08-14T05:23:57Z</time>
      </trkpt>
      <trkpt lat="46.21558" lon="3.15079">
        <ele>299.59</ele>
        <time>2021-08-14T05:23:58Z</time>
      </trkpt>
      <trkpt lat="46.21554" lon="3.15081">
        <ele>298.63</ele>
        <time>2021-08-14T05:23:59Z</time>
      </trkpt>
      <trkpt lat="46.21549" lon="3.15083">
        <ele>298.15</ele>
        <time>2021-08-14T05:24:00Z</time>
      </trkpt>
      <trkpt lat="46.21513" lon="3.15097">
        <ele>294.78</ele>
        <time>2021-08-14T05:24:07Z</time>
      </trkpt>
      <trkpt lat="46.21497" lon="3.15102">
        <ele>293.34</ele>
        <time>2021-08-14T05:24:10Z</time>
      </trkpt>
      <trkpt lat="46.21458" lon="3.15101">
        <ele>290.46</ele>
        <time>2021-08-14T05:24:16Z</time>
      </trkpt>
      <trkpt lat="46.21417" lon="3.15099">
        <ele>287.57</ele>
        <time>2021-08-14T05:24:22Z</time>
      </trkpt>
      <trkpt lat="46.21402" lon="3.15099">
        <ele>288.05</ele>
        <time>2021-08-14T05:24:26Z</time>
      </trkpt>
      <trkpt lat="46.21379" lon="3.15102">
        <ele>287.57</ele>
        <time>2021-08-14T05:24:32Z</time>
      </trkpt>
      <trkpt lat="46.21344" lon="3.15106">
        <ele>287.09</ele>
        <time>2021-08-14T05:24:40Z</time>
      </trkpt>
      <trkpt lat="46.21309" lon="3.15109">
        <ele>287.09</ele>
        <time>2021-08-14T05:24:48Z</time>
      </trkpt>
      <trkpt lat="46.2129" lon="3.15107">
        <ele>288.53</ele>
        <time>2021-08-14T05:24:53Z</time>
      </trkpt>
      <trkpt lat="46.2127" lon="3.15104">
        <ele>289.97</ele>
        <time>2021-08-14T05:25:00Z</time>
      </trkpt>
      <trkpt lat="46.21257" lon="3.15103">
        <ele>290.94</ele>
        <time>2021-08-14T05:25:07Z</time>
      </trkpt>
      <trkpt lat="46.21243" lon="3.15102">
        <ele>292.38</ele>
        <time>2021-08-14T05:25:15Z</time>
      </trkpt>
      <trkpt lat="46.21233" lon="3.15103">
        <ele>293.34</ele>
        <time>2021-08-14T05:25:21Z</time>
      </trkpt>
      <trkpt lat="46.21232" lon="3.15104">
        <ele>293.34</ele>
        <time>2021-08-14T05:25:22Z</time>
      </trkpt>
      <trkpt lat="46.2123" lon="3.15104">
        <ele>293.82</ele>
        <time>2021-08-14T05:25:23Z</time>
      </trkpt>
      <trkpt lat="46.21228" lon="3.15104">
        <ele>293.82</ele>
        <time>2021-08-14T05:25:24Z</time>
      </trkpt>
      <trkpt lat="46.21227" lon="3.15105">
        <ele>294.3</ele>
        <time>2021-08-14T05:25:25Z</time>
      </trkpt>
      <trkpt lat="46.21225" lon="3.15105">
        <ele>294.3</ele>
        <time>2021-08-14T05:25:26Z</time>
      </trkpt>
      <trkpt lat="46.2121" lon="3.15112">
        <ele>294.78</ele>
        <time>2021-08-14T05:25:34Z</time>
      </trkpt>
      <trkpt lat="46.21196" lon="3.1512">
        <ele>294.78</ele>
        <time>2021-08-14T05:25:41Z</time>
      </trkpt>
      <trkpt lat="46.21168" lon="3.1514">
        <ele>294.78</ele>
        <time>2021-08-14T05:25:49Z</time>
      </trkpt>
      <trkpt lat="46.21155" lon="3.15149">
        <ele>293.34</ele>
        <time>2021-08-14T05:25:52Z</time>
      </trkpt>
      <trkpt lat="46.21118" lon="3.15176">
        <ele>289.97</ele>
        <time>2021-08-14T05:25:59Z</time>
      </trkpt>
      <trkpt lat="46.21112" lon="3.15181">
        <ele>289.97</ele>
        <time>2021-08-14T05:26:00Z</time>
      </trkpt>
      <trkpt lat="46.2107" lon="3.15212">
        <ele>288.05</ele>
        <time>2021-08-14T05:26:07Z</time>
      </trkpt>
      <trkpt lat="46.21024" lon="3.15246">
        <ele>286.61</ele>
        <time>2021-08-14T05:26:15Z</time>
      </trkpt>
      <trkpt lat="46.2099" lon="3.1527">
        <ele>286.61</ele>
        <time>2021-08-14T05:26:22Z</time>
      </trkpt>
      <trkpt lat="46.20937" lon="3.15308">
        <ele>285.65</ele>
        <time>2021-08-14T05:26:34Z</time>
      </trkpt>
      <trkpt lat="46.20901" lon="3.15338">
        <ele>285.65</ele>
        <time>2021-08-14T05:26:43Z</time>
      </trkpt>
      <trkpt lat="46.20863" lon="3.15374">
        <ele>285.65</ele>
        <time>2021-08-14T05:26:53Z</time>
      </trkpt>
      <trkpt lat="46.20855" lon="3.15381">
        <ele>285.65</ele>
        <time>2021-08-14T05:26:55Z</time>
      </trkpt>
      <trkpt lat="46.20844" lon="3.15392">
        <ele>285.65</ele>
        <time>2021-08-14T05:26:58Z</time>
      </trkpt>
      <trkpt lat="46.20837" lon="3.15399">
        <ele>285.65</ele>
        <time>2021-08-14T05:27:00Z</time>
      </trkpt>
      <trkpt lat="46.2083" lon="3.15406">
        <ele>286.61</ele>
        <time>2021-08-14T05:27:02Z</time>
      </trkpt>
      <trkpt lat="46.20827" lon="3.15409">
        <ele>286.61</ele>
        <time>2021-08-14T05:27:03Z</time>
      </trkpt>
      <trkpt lat="46.20797" lon="3.15436">
        <ele>287.57</ele>
        <time>2021-08-14T05:27:12Z</time>
      </trkpt>
      <trkpt lat="46.2077" lon="3.15463">
        <ele>288.53</ele>
        <time>2021-08-14T05:27:21Z</time>
      </trkpt>
      <trkpt lat="46.20734" lon="3.15497">
        <ele>289.97</ele>
        <time>2021-08-14T05:27:33Z</time>
      </trkpt>
      <trkpt lat="46.20706" lon="3.15517">
        <ele>290.46</ele>
        <time>2021-08-14T05:27:43Z</time>
      </trkpt>
      <trkpt lat="46.20686" lon="3.15514">
        <ele>291.9</ele>
        <time>2021-08-14T05:27:51Z</time>
      </trkpt>
      <trkpt lat="46.20668" lon="3.15515">
        <ele>291.9</ele>
        <time>2021-08-14T05:27:58Z</time>
      </trkpt>
      <trkpt lat="46.20643" lon="3.15516">
        <ele>292.86</ele>
        <time>2021-08-14T05:28:07Z</time>
      </trkpt>
      <trkpt lat="46.20624" lon="3.15516">
        <ele>292.86</ele>
        <time>2021-08-14T05:28:14Z</time>
      </trkpt>
      <trkpt lat="46.20596" lon="3.15516">
        <ele>294.3</ele>
        <time>2021-08-14T05:28:25Z</time>
      </trkpt>
      <trkpt lat="46.20577" lon="3.1552">
        <ele>295.26</ele>
        <time>2021-08-14T05:28:34Z</time>
      </trkpt>
      <trkpt lat="46.2056" lon="3.15527">
        <ele>296.22</ele>
        <time>2021-08-14T05:28:44Z</time>
      </trkpt>
      <trkpt lat="46.2054" lon="3.15535">
        <ele>297.67</ele>
        <time>2021-08-14T05:28:56Z</time>
      </trkpt>
      <trkpt lat="46.20528" lon="3.15532">
        <ele>299.11</ele>
        <time>2021-08-14T05:29:04Z</time>
      </trkpt>
      <trkpt lat="46.20527" lon="3.1553">
        <ele>299.11</ele>
        <time>2021-08-14T05:29:05Z</time>
      </trkpt>
      <trkpt lat="46.20526" lon="3.15529">
        <ele>299.11</ele>
        <time>2021-08-14T05:29:06Z</time>
      </trkpt>
      <trkpt lat="46.20525" lon="3.15528">
        <ele>299.59</ele>
        <time>2021-08-14T05:29:07Z</time>
      </trkpt>
      <trkpt lat="46.20523" lon="3.15527">
        <ele>299.59</ele>
        <time>2021-08-14T05:29:08Z</time>
      </trkpt>
      <trkpt lat="46.20522" lon="3.15526">
        <ele>299.59</ele>
        <time>2021-08-14T05:29:09Z</time>
      </trkpt>
      <trkpt lat="46.20521" lon="3.15525">
        <ele>300.07</ele>
        <time>2021-08-14T05:29:10Z</time>
      </trkpt>
      <trkpt lat="46.2052" lon="3.15524">
        <ele>300.07</ele>
        <time>2021-08-14T05:29:11Z</time>
      </trkpt>
      <trkpt lat="46.20518" lon="3.15523">
        <ele>300.07</ele>
        <time>2021-08-14T05:29:12Z</time>
      </trkpt>
      <trkpt lat="46.20517" lon="3.15522">
        <ele>300.55</ele>
        <time>2021-08-14T05:29:13Z</time>
      </trkpt>
      <trkpt lat="46.20515" lon="3.15521">
        <ele>300.55</ele>
        <time>2021-08-14T05:29:14Z</time>
      </trkpt>
      <trkpt lat="46.20514" lon="3.15521">
        <ele>300.55</ele>
        <time>2021-08-14T05:29:15Z</time>
      </trkpt>
      <trkpt lat="46.20512" lon="3.1552">
        <ele>301.03</ele>
        <time>2021-08-14T05:29:16Z</time>
      </trkpt>
      <trkpt lat="46.2051" lon="3.1552">
        <ele>301.03</ele>
        <time>2021-08-14T05:29:17Z</time>
      </trkpt>
      <trkpt lat="46.20509" lon="3.1552">
        <ele>301.03</ele>
        <time>2021-08-14T05:29:18Z</time>
      </trkpt>
      <trkpt lat="46.20507" lon="3.15519">
        <ele>301.51</ele>
        <time>2021-08-14T05:29:19Z</time>
      </trkpt>
      <trkpt lat="46.20505" lon="3.15519">
        <ele>301.51</ele>
        <time>2021-08-14T05:29:20Z</time>
      </trkpt>
      <trkpt lat="46.20494" lon="3.15516">
        <ele>301.99</ele>
        <time>2021-08-14T05:29:26Z</time>
      </trkpt>
      <trkpt lat="46.20492" lon="3.15515">
        <ele>301.99</ele>
        <time>2021-08-14T05:29:27Z</time>
      </trkpt>
      <trkpt lat="46.2049" lon="3.15515">
        <ele>301.99</ele>
        <time>2021-08-14T05:29:28Z</time>
      </trkpt>
      <trkpt lat="46.20476" lon="3.15511">
        <ele>302.95</ele>
        <time>2021-08-14T05:29:36Z</time>
      </trkpt>
      <trkpt lat="46.20461" lon="3.15507">
        <ele>303.91</ele>
        <time>2021-08-14T05:29:44Z</time>
      </trkpt>
      <trkpt lat="46.20444" lon="3.15501">
        <ele>304.88</ele>
        <time>2021-08-14T05:29:54Z</time>
      </trkpt>
      <trkpt lat="46.20427" lon="3.15493">
        <ele>306.8</ele>
        <time>2021-08-14T05:30:05Z</time>
      </trkpt>
      <trkpt lat="46.20411" lon="3.15488">
        <ele>307.76</ele>
        <time>2021-08-14T05:30:15Z</time>
      </trkpt>
      <trkpt lat="46.20398" lon="3.15483">
        <ele>309.2</ele>
        <time>2021-08-14T05:30:24Z</time>
      </trkpt>
      <trkpt lat="46.20383" lon="3.15476">
        <ele>310.64</ele>
        <time>2021-08-14T05:30:35Z</time>
      </trkpt>
      <trkpt lat="46.2037" lon="3.15472">
        <ele>312.57</ele>
        <time>2021-08-14T05:30:44Z</time>
      </trkpt>
      <trkpt lat="46.20364" lon="3.15469">
        <ele>313.53</ele>
        <time>2021-08-14T05:30:49Z</time>
      </trkpt>
      <trkpt lat="46.20353" lon="3.15466">
        <ele>314.49</ele>
        <time>2021-08-14T05:30:58Z</time>
      </trkpt>
      <trkpt lat="46.20352" lon="3.15466">
        <ele>314.49</ele>
        <time>2021-08-14T05:30:59Z</time>
      </trkpt>
      <trkpt lat="46.2035" lon="3.15465">
        <ele>314.49</ele>
        <time>2021-08-14T05:31:00Z</time>
      </trkpt>
      <trkpt lat="46.20349" lon="3.15465">
        <ele>314.97</ele>
        <time>2021-08-14T05:31:01Z</time>
      </trkpt>
      <trkpt lat="46.20348" lon="3.15465">
        <ele>314.97</ele>
        <time>2021-08-14T05:31:02Z</time>
      </trkpt>
      <trkpt lat="46.20346" lon="3.15464">
        <ele>314.97</ele>
        <time>2021-08-14T05:31:03Z</time>
      </trkpt>
      <trkpt lat="46.20345" lon="3.15463">
        <ele>315.45</ele>
        <time>2021-08-14T05:31:04Z</time>
      </trkpt>
      <trkpt lat="46.20343" lon="3.15463">
        <ele>315.45</ele>
        <time>2021-08-14T05:31:05Z</time>
      </trkpt>
      <trkpt lat="46.20342" lon="3.15463">
        <ele>315.45</ele>
        <time>2021-08-14T05:31:06Z</time>
      </trkpt>
      <trkpt lat="46.20329" lon="3.15457">
        <ele>316.89</ele>
        <time>2021-08-14T05:31:16Z</time>
      </trkpt>
      <trkpt lat="46.20318" lon="3.15453">
        <ele>318.33</ele>
        <time>2021-08-14T05:31:25Z</time>
      </trkpt>
      <trkpt lat="46.20309" lon="3.1545">
        <ele>319.3</ele>
        <time>2021-08-14T05:31:32Z</time>
      </trkpt>
      <trkpt lat="46.20301" lon="3.15449">
        <ele>320.26</ele>
        <time>2021-08-14T05:31:39Z</time>
      </trkpt>
      <trkpt lat="46.20292" lon="3.15445">
        <ele>321.22</ele>
        <time>2021-08-14T05:31:47Z</time>
      </trkpt>
      <trkpt lat="46.20285" lon="3.15441">
        <ele>322.18</ele>
        <time>2021-08-14T05:31:53Z</time>
      </trkpt>
      <trkpt lat="46.20279" lon="3.15439">
        <ele>322.66</ele>
        <time>2021-08-14T05:31:58Z</time>
      </trkpt>
      <trkpt lat="46.20278" lon="3.15438">
        <ele>322.66</ele>
        <time>2021-08-14T05:31:59Z</time>
      </trkpt>
      <trkpt lat="46.20265" lon="3.15436">
        <ele>324.1</ele>
        <time>2021-08-14T05:32:08Z</time>
      </trkpt>
      <trkpt lat="46.20254" lon="3.15431">
        <ele>325.06</ele>
        <time>2021-08-14T05:32:17Z</time>
      </trkpt>
      <trkpt lat="46.20252" lon="3.15431">
        <ele>325.54</ele>
        <time>2021-08-14T05:32:18Z</time>
      </trkpt>
      <trkpt lat="46.20251" lon="3.1543">
        <ele>325.54</ele>
        <time>2021-08-14T05:32:19Z</time>
      </trkpt>
      <trkpt lat="46.2025" lon="3.1543">
        <ele>325.54</ele>
        <time>2021-08-14T05:32:20Z</time>
      </trkpt>
      <trkpt lat="46.20249" lon="3.15429">
        <ele>326.02</ele>
        <time>2021-08-14T05:32:21Z</time>
      </trkpt>
      <trkpt lat="46.20248" lon="3.15428">
        <ele>326.02</ele>
        <time>2021-08-14T05:32:22Z</time>
      </trkpt>
      <trkpt lat="46.20246" lon="3.15428">
        <ele>326.02</ele>
        <time>2021-08-14T05:32:23Z</time>
      </trkpt>
      <trkpt lat="46.20245" lon="3.15428">
        <ele>326.5</ele>
        <time>2021-08-14T05:32:24Z</time>
      </trkpt>
      <trkpt lat="46.20244" lon="3.15427">
        <ele>326.5</ele>
        <time>2021-08-14T05:32:25Z</time>
      </trkpt>
      <trkpt lat="46.20232" lon="3.15424">
        <ele>327.95</ele>
        <time>2021-08-14T05:32:35Z</time>
      </trkpt>
      <trkpt lat="46.20219" lon="3.15418">
        <ele>329.39</ele>
        <time>2021-08-14T05:32:45Z</time>
      </trkpt>
      <trkpt lat="46.20206" lon="3.15414">
        <ele>330.83</ele>
        <time>2021-08-14T05:32:55Z</time>
      </trkpt>
      <trkpt lat="46.20195" lon="3.15409">
        <ele>331.79</ele>
        <time>2021-08-14T05:33:03Z</time>
      </trkpt>
      <trkpt lat="46.20183" lon="3.15404">
        <ele>333.23</ele>
        <time>2021-08-14T05:33:12Z</time>
      </trkpt>
      <trkpt lat="46.20179" lon="3.15402">
        <ele>334.2</ele>
        <time>2021-08-14T05:33:16Z</time>
      </trkpt>
      <trkpt lat="46.20177" lon="3.15402">
        <ele>334.2</ele>
        <time>2021-08-14T05:33:17Z</time>
      </trkpt>
      <trkpt lat="46.20173" lon="3.15401">
        <ele>334.68</ele>
        <time>2021-08-14T05:33:20Z</time>
      </trkpt>
      <trkpt lat="46.20172" lon="3.154">
        <ele>334.68</ele>
        <time>2021-08-14T05:33:21Z</time>
      </trkpt>
      <trkpt lat="46.20171" lon="3.15399">
        <ele>335.16</ele>
        <time>2021-08-14T05:33:22Z</time>
      </trkpt>
      <trkpt lat="46.20158" lon="3.15395">
        <ele>336.12</ele>
        <time>2021-08-14T05:33:32Z</time>
      </trkpt>
      <trkpt lat="46.20155" lon="3.15394">
        <ele>337.08</ele>
        <time>2021-08-14T05:33:34Z</time>
      </trkpt>
      <trkpt lat="46.20154" lon="3.15394">
        <ele>337.08</ele>
        <time>2021-08-14T05:33:35Z</time>
      </trkpt>
      <trkpt lat="46.20153" lon="3.15393">
        <ele>337.08</ele>
        <time>2021-08-14T05:33:36Z</time>
      </trkpt>
      <trkpt lat="46.20152" lon="3.15393">
        <ele>337.08</ele>
        <time>2021-08-14T05:33:37Z</time>
      </trkpt>
      <trkpt lat="46.2015" lon="3.15392">
        <ele>337.56</ele>
        <time>2021-08-14T05:33:38Z</time>
      </trkpt>
      <trkpt lat="46.20149" lon="3.15392">
        <ele>337.56</ele>
        <time>2021-08-14T05:33:39Z</time>
      </trkpt>
      <trkpt lat="46.20148" lon="3.15391">
        <ele>337.56</ele>
        <time>2021-08-14T05:33:40Z</time>
      </trkpt>
      <trkpt lat="46.20147" lon="3.15391">
        <ele>338.04</ele>
        <time>2021-08-14T05:33:41Z</time>
      </trkpt>
      <trkpt lat="46.20145" lon="3.1539">
        <ele>338.04</ele>
        <time>2021-08-14T05:33:42Z</time>
      </trkpt>
      <trkpt lat="46.20144" lon="3.1539">
        <ele>338.04</ele>
        <time>2021-08-14T05:33:43Z</time>
      </trkpt>
      <trkpt lat="46.2014" lon="3.15388">
        <ele>339</ele>
        <time>2021-08-14T05:33:46Z</time>
      </trkpt>
      <trkpt lat="46.20139" lon="3.15388">
        <ele>339</ele>
        <time>2021-08-14T05:33:47Z</time>
      </trkpt>
      <trkpt lat="46.20137" lon="3.15387">
        <ele>339</ele>
        <time>2021-08-14T05:33:48Z</time>
      </trkpt>
      <trkpt lat="46.20124" lon="3.15382">
        <ele>340.44</ele>
        <time>2021-08-14T05:33:58Z</time>
      </trkpt>
      <trkpt lat="46.20113" lon="3.15377">
        <ele>341.89</ele>
        <time>2021-08-14T05:34:07Z</time>
      </trkpt>
      <trkpt lat="46.20098" lon="3.15371">
        <ele>343.81</ele>
        <time>2021-08-14T05:34:18Z</time>
      </trkpt>
      <trkpt lat="46.20083" lon="3.15365">
        <ele>345.73</ele>
        <time>2021-08-14T05:34:29Z</time>
      </trkpt>
      <trkpt lat="46.20073" lon="3.15362">
        <ele>346.69</ele>
        <time>2021-08-14T05:34:37Z</time>
      </trkpt>
      <trkpt lat="46.20067" lon="3.1536">
        <ele>347.17</ele>
        <time>2021-08-14T05:34:41Z</time>
      </trkpt>
      <trkpt lat="46.20066" lon="3.1536">
        <ele>347.65</ele>
        <time>2021-08-14T05:34:42Z</time>
      </trkpt>
      <trkpt lat="46.20064" lon="3.15359">
        <ele>347.65</ele>
        <time>2021-08-14T05:34:43Z</time>
      </trkpt>
      <trkpt lat="46.20063" lon="3.15359">
        <ele>347.65</ele>
        <time>2021-08-14T05:34:44Z</time>
      </trkpt>
      <trkpt lat="46.20061" lon="3.15359">
        <ele>348.13</ele>
        <time>2021-08-14T05:34:45Z</time>
      </trkpt>
      <trkpt lat="46.20059" lon="3.15358">
        <ele>348.13</ele>
        <time>2021-08-14T05:34:46Z</time>
      </trkpt>
      <trkpt lat="46.20058" lon="3.15357">
        <ele>348.13</ele>
        <time>2021-08-14T05:34:47Z</time>
      </trkpt>
      <trkpt lat="46.20056" lon="3.15356">
        <ele>348.62</ele>
        <time>2021-08-14T05:34:48Z</time>
      </trkpt>
      <trkpt lat="46.20054" lon="3.15355">
        <ele>348.62</ele>
        <time>2021-08-14T05:34:49Z</time>
      </trkpt>
      <trkpt lat="46.20052" lon="3.15355">
        <ele>348.62</ele>
        <time>2021-08-14T05:34:50Z</time>
      </trkpt>
      <trkpt lat="46.20051" lon="3.15354">
        <ele>349.1</ele>
        <time>2021-08-14T05:34:51Z</time>
      </trkpt>
      <trkpt lat="46.20049" lon="3.15353">
        <ele>349.1</ele>
        <time>2021-08-14T05:34:52Z</time>
      </trkpt>
      <trkpt lat="46.20048" lon="3.15353">
        <ele>349.1</ele>
        <time>2021-08-14T05:34:53Z</time>
      </trkpt>
      <trkpt lat="46.20046" lon="3.15353">
        <ele>349.58</ele>
        <time>2021-08-14T05:34:54Z</time>
      </trkpt>
      <trkpt lat="46.20035" lon="3.1535">
        <ele>351.02</ele>
        <time>2021-08-14T05:35:02Z</time>
      </trkpt>
      <trkpt lat="46.20028" lon="3.1534">
        <ele>351.98</ele>
        <time>2021-08-14T05:35:09Z</time>
      </trkpt>
      <trkpt lat="46.20025" lon="3.15317">
        <ele>351.98</ele>
        <time>2021-08-14T05:35:17Z</time>
      </trkpt>
      <trkpt lat="46.20024" lon="3.15314">
        <ele>351.98</ele>
        <time>2021-08-14T05:35:22Z</time>
      </trkpt>
      <trkpt lat="46.20024" lon="3.15315">
        <ele>351.98</ele>
        <time>2021-08-14T05:35:32Z</time>
      </trkpt>
      <trkpt lat="46.20024" lon="3.15311">
        <ele>351.98</ele>
        <time>2021-08-14T05:35:45Z</time>
      </trkpt>
      <trkpt lat="46.20019" lon="3.15289">
        <ele>351.98</ele>
        <time>2021-08-14T05:35:52Z</time>
      </trkpt>
      <trkpt lat="46.20011" lon="3.15246">
        <ele>350.06</ele>
        <time>2021-08-14T05:36:01Z</time>
      </trkpt>
      <trkpt lat="46.20002" lon="3.15197">
        <ele>349.1</ele>
        <time>2021-08-14T05:36:10Z</time>
      </trkpt>
      <trkpt lat="46.19998" lon="3.15172">
        <ele>349.1</ele>
        <time>2021-08-14T05:36:17Z</time>
      </trkpt>
      <trkpt lat="46.19995" lon="3.15135">
        <ele>349.1</ele>
        <time>2021-08-14T05:36:25Z</time>
      </trkpt>
      <trkpt lat="46.19994" lon="3.15129">
        <ele>348.62</ele>
        <time>2021-08-14T05:36:26Z</time>
      </trkpt>
      <trkpt lat="46.19991" lon="3.15118">
        <ele>348.62</ele>
        <time>2021-08-14T05:36:28Z</time>
      </trkpt>
      <trkpt lat="46.19991" lon="3.1511">
        <ele>347.17</ele>
        <time>2021-08-14T05:36:29Z</time>
      </trkpt>
      <trkpt lat="46.19991" lon="3.15103">
        <ele>347.17</ele>
        <time>2021-08-14T05:36:30Z</time>
      </trkpt>
      <trkpt lat="46.19992" lon="3.15043">
        <ele>343.81</ele>
        <time>2021-08-14T05:36:36Z</time>
      </trkpt>
      <trkpt lat="46.19993" lon="3.15009">
        <ele>342.37</ele>
        <time>2021-08-14T05:36:40Z</time>
      </trkpt>
      <trkpt lat="46.19992" lon="3.14965">
        <ele>339.96</ele>
        <time>2021-08-14T05:36:47Z</time>
      </trkpt>
      <trkpt lat="46.19992" lon="3.1495">
        <ele>339</ele>
        <time>2021-08-14T05:36:49Z</time>
      </trkpt>
      <trkpt lat="46.19992" lon="3.14942">
        <ele>338.52</ele>
        <time>2021-08-14T05:36:50Z</time>
      </trkpt>
      <trkpt lat="46.19994" lon="3.14924">
        <ele>337.56</ele>
        <time>2021-08-14T05:36:52Z</time>
      </trkpt>
      <trkpt lat="46.19995" lon="3.14916">
        <ele>336.6</ele>
        <time>2021-08-14T05:36:53Z</time>
      </trkpt>
      <trkpt lat="46.19998" lon="3.14908">
        <ele>335.64</ele>
        <time>2021-08-14T05:36:54Z</time>
      </trkpt>
      <trkpt lat="46.2" lon="3.14901">
        <ele>335.16</ele>
        <time>2021-08-14T05:36:55Z</time>
      </trkpt>
      <trkpt lat="46.20004" lon="3.14895">
        <ele>334.68</ele>
        <time>2021-08-14T05:36:56Z</time>
      </trkpt>
      <trkpt lat="46.20008" lon="3.1489">
        <ele>334.68</ele>
        <time>2021-08-14T05:36:57Z</time>
      </trkpt>
      <trkpt lat="46.20013" lon="3.14885">
        <ele>333.23</ele>
        <time>2021-08-14T05:36:58Z</time>
      </trkpt>
      <trkpt lat="46.20017" lon="3.14882">
        <ele>333.23</ele>
        <time>2021-08-14T05:36:59Z</time>
      </trkpt>
      <trkpt lat="46.20022" lon="3.14878">
        <ele>332.75</ele>
        <time>2021-08-14T05:37:00Z</time>
      </trkpt>
      <trkpt lat="46.20025" lon="3.14873">
        <ele>331.79</ele>
        <time>2021-08-14T05:37:01Z</time>
      </trkpt>
      <trkpt lat="46.20025" lon="3.14866">
        <ele>331.79</ele>
        <time>2021-08-14T05:37:02Z</time>
      </trkpt>
      <trkpt lat="46.20025" lon="3.14859">
        <ele>330.83</ele>
        <time>2021-08-14T05:37:03Z</time>
      </trkpt>
      <trkpt lat="46.20025" lon="3.14851">
        <ele>330.35</ele>
        <time>2021-08-14T05:37:04Z</time>
      </trkpt>
      <trkpt lat="46.20024" lon="3.14842">
        <ele>330.35</ele>
        <time>2021-08-14T05:37:05Z</time>
      </trkpt>
      <trkpt lat="46.20015" lon="3.14784">
        <ele>327.47</ele>
        <time>2021-08-14T05:37:11Z</time>
      </trkpt>
      <trkpt lat="46.20009" lon="3.14738">
        <ele>323.62</ele>
        <time>2021-08-14T05:37:15Z</time>
      </trkpt>
      <trkpt lat="46.20006" lon="3.14712">
        <ele>323.14</ele>
        <time>2021-08-14T05:37:17Z</time>
      </trkpt>
      <trkpt lat="46.20005" lon="3.14677">
        <ele>321.7</ele>
        <time>2021-08-14T05:37:21Z</time>
      </trkpt>
      <trkpt lat="46.20006" lon="3.14677">
        <ele>321.7</ele>
        <time>2021-08-14T05:37:23Z</time>
      </trkpt>
      <trkpt lat="46.20007" lon="3.14688">
        <ele>321.7</ele>
        <time>2021-08-14T05:37:28Z</time>
      </trkpt>
      <trkpt lat="46.20007" lon="3.14691">
        <ele>321.7</ele>
        <time>2021-08-14T05:37:29Z</time>
      </trkpt>
      <trkpt lat="46.20007" lon="3.14694">
        <ele>321.7</ele>
        <time>2021-08-14T05:37:30Z</time>
      </trkpt>
      <trkpt lat="46.20006" lon="3.14697">
        <ele>321.7</ele>
        <time>2021-08-14T05:37:31Z</time>
      </trkpt>
      <trkpt lat="46.20006" lon="3.14701">
        <ele>321.7</ele>
        <time>2021-08-14T05:37:32Z</time>
      </trkpt>
      <trkpt lat="46.20006" lon="3.14716">
        <ele>323.14</ele>
        <time>2021-08-14T05:37:38Z</time>
      </trkpt>
      <trkpt lat="46.20002" lon="3.1473">
        <ele>324.1</ele>
        <time>2021-08-14T05:37:46Z</time>
      </trkpt>
      <trkpt lat="46.19996" lon="3.14737">
        <ele>325.54</ele>
        <time>2021-08-14T05:37:53Z</time>
      </trkpt>
      <trkpt lat="46.19995" lon="3.14738">
        <ele>325.54</ele>
        <time>2021-08-14T05:37:54Z</time>
      </trkpt>
      <trkpt lat="46.19994" lon="3.14739">
        <ele>326.02</ele>
        <time>2021-08-14T05:37:55Z</time>
      </trkpt>
      <trkpt lat="46.19993" lon="3.1474">
        <ele>326.02</ele>
        <time>2021-08-14T05:37:56Z</time>
      </trkpt>
      <trkpt lat="46.19992" lon="3.14741">
        <ele>326.02</ele>
        <time>2021-08-14T05:37:57Z</time>
      </trkpt>
      <trkpt lat="46.19991" lon="3.14742">
        <ele>326.5</ele>
        <time>2021-08-14T05:37:58Z</time>
      </trkpt>
      <trkpt lat="46.19991" lon="3.14744">
        <ele>326.5</ele>
        <time>2021-08-14T05:37:59Z</time>
      </trkpt>
      <trkpt lat="46.19985" lon="3.14749">
        <ele>327.95</ele>
        <time>2021-08-14T05:38:06Z</time>
      </trkpt>
      <trkpt lat="46.19985" lon="3.14751">
        <ele>327.95</ele>
        <time>2021-08-14T05:38:07Z</time>
      </trkpt>
      <trkpt lat="46.19984" lon="3.14752">
        <ele>327.95</ele>
        <time>2021-08-14T05:38:08Z</time>
      </trkpt>
      <trkpt lat="46.19981" lon="3.14757">
        <ele>328.91</ele>
        <time>2021-08-14T05:38:12Z</time>
      </trkpt>
      <trkpt lat="46.1998" lon="3.14758">
        <ele>328.91</ele>
        <time>2021-08-14T05:38:13Z</time>
      </trkpt>
      <trkpt lat="46.1998" lon="3.14759">
        <ele>328.91</ele>
        <time>2021-08-14T05:38:14Z</time>
      </trkpt>
      <trkpt lat="46.19979" lon="3.1476">
        <ele>329.39</ele>
        <time>2021-08-14T05:38:15Z</time>
      </trkpt>
      <trkpt lat="46.19978" lon="3.14762">
        <ele>329.39</ele>
        <time>2021-08-14T05:38:16Z</time>
      </trkpt>
      <trkpt lat="46.19977" lon="3.14763">
        <ele>329.39</ele>
        <time>2021-08-14T05:38:17Z</time>
      </trkpt>
      <trkpt lat="46.1997" lon="3.14773">
        <ele>330.83</ele>
        <time>2021-08-14T05:38:26Z</time>
      </trkpt>
      <trkpt lat="46.19959" lon="3.1478">
        <ele>332.75</ele>
        <time>2021-08-14T05:38:36Z</time>
      </trkpt>
      <trkpt lat="46.19957" lon="3.14781">
        <ele>332.75</ele>
        <time>2021-08-14T05:38:37Z</time>
      </trkpt>
      <trkpt lat="46.19956" lon="3.1478">
        <ele>332.75</ele>
        <time>2021-08-14T05:38:38Z</time>
      </trkpt>
      <trkpt lat="46.19955" lon="3.1478">
        <ele>332.75</ele>
        <time>2021-08-14T05:38:39Z</time>
      </trkpt>
      <trkpt lat="46.19953" lon="3.14779">
        <ele>332.75</ele>
        <time>2021-08-14T05:38:40Z</time>
      </trkpt>
      <trkpt lat="46.19952" lon="3.14779">
        <ele>332.75</ele>
        <time>2021-08-14T05:38:41Z</time>
      </trkpt>
      <trkpt lat="46.1995" lon="3.14778">
        <ele>332.75</ele>
        <time>2021-08-14T05:38:42Z</time>
      </trkpt>
      <trkpt lat="46.19932" lon="3.14772">
        <ele>333.71</ele>
        <time>2021-08-14T05:38:51Z</time>
      </trkpt>
      <trkpt lat="46.19908" lon="3.14766">
        <ele>334.2</ele>
        <time>2021-08-14T05:39:02Z</time>
      </trkpt>
      <trkpt lat="46.19883" lon="3.1476">
        <ele>335.64</ele>
        <time>2021-08-14T05:39:13Z</time>
      </trkpt>
      <trkpt lat="46.19859" lon="3.14753">
        <ele>335.64</ele>
        <time>2021-08-14T05:39:22Z</time>
      </trkpt>
      <trkpt lat="46.19838" lon="3.14742">
        <ele>335.64</ele>
        <time>2021-08-14T05:39:29Z</time>
      </trkpt>
      <trkpt lat="46.19821" lon="3.14733">
        <ele>335.64</ele>
        <time>2021-08-14T05:39:36Z</time>
      </trkpt>
      <trkpt lat="46.19798" lon="3.14727">
        <ele>335.64</ele>
        <time>2021-08-14T05:39:45Z</time>
      </trkpt>
      <trkpt lat="46.19783" lon="3.14723">
        <ele>335.64</ele>
        <time>2021-08-14T05:39:52Z</time>
      </trkpt>
      <trkpt lat="46.19762" lon="3.14719">
        <ele>336.6</ele>
        <time>2021-08-14T05:40:01Z</time>
      </trkpt>
      <trkpt lat="46.19748" lon="3.14718">
        <ele>337.56</ele>
        <time>2021-08-14T05:40:08Z</time>
      </trkpt>
      <trkpt lat="46.19734" lon="3.14717">
        <ele>338.04</ele>
        <time>2021-08-14T05:40:15Z</time>
      </trkpt>
      <trkpt lat="46.19714" lon="3.14717">
        <ele>338.04</ele>
        <time>2021-08-14T05:40:24Z</time>
      </trkpt>
      <trkpt lat="46.19703" lon="3.14716">
        <ele>339</ele>
        <time>2021-08-14T05:40:31Z</time>
      </trkpt>
      <trkpt lat="46.19684" lon="3.14716">
        <ele>339.96</ele>
        <time>2021-08-14T05:40:42Z</time>
      </trkpt>
      <trkpt lat="46.19671" lon="3.14716">
        <ele>340.92</ele>
        <time>2021-08-14T05:40:50Z</time>
      </trkpt>
      <trkpt lat="46.19653" lon="3.14715">
        <ele>342.37</ele>
        <time>2021-08-14T05:41:01Z</time>
      </trkpt>
      <trkpt lat="46.19634" lon="3.14713">
        <ele>342.85</ele>
        <time>2021-08-14T05:41:12Z</time>
      </trkpt>
      <trkpt lat="46.19618" lon="3.14711">
        <ele>343.33</ele>
        <time>2021-08-14T05:41:21Z</time>
      </trkpt>
      <trkpt lat="46.19595" lon="3.14709">
        <ele>343.81</ele>
        <time>2021-08-14T05:41:33Z</time>
      </trkpt>
      <trkpt lat="46.19586" lon="3.14709">
        <ele>344.29</ele>
        <time>2021-08-14T05:41:38Z</time>
      </trkpt>
      <trkpt lat="46.19585" lon="3.1471">
        <ele>344.29</ele>
        <time>2021-08-14T05:41:39Z</time>
      </trkpt>
      <trkpt lat="46.19578" lon="3.14724">
        <ele>345.73</ele>
        <time>2021-08-14T05:41:49Z</time>
      </trkpt>
      <trkpt lat="46.19577" lon="3.14725">
        <ele>346.21</ele>
        <time>2021-08-14T05:41:50Z</time>
      </trkpt>
      <trkpt lat="46.19572" lon="3.14737">
        <ele>347.65</ele>
        <time>2021-08-14T05:41:58Z</time>
      </trkpt>
      <trkpt lat="46.1957" lon="3.14741">
        <ele>348.13</ele>
        <time>2021-08-14T05:42:01Z</time>
      </trkpt>
      <trkpt lat="46.1957" lon="3.14743">
        <ele>348.13</ele>
        <time>2021-08-14T05:42:02Z</time>
      </trkpt>
      <trkpt lat="46.19566" lon="3.14754">
        <ele>349.58</ele>
        <time>2021-08-14T05:42:10Z</time>
      </trkpt>
      <trkpt lat="46.19566" lon="3.14756">
        <ele>349.58</ele>
        <time>2021-08-14T05:42:11Z</time>
      </trkpt>
      <trkpt lat="46.19565" lon="3.14757">
        <ele>349.1</ele>
        <time>2021-08-14T05:42:12Z</time>
      </trkpt>
      <trkpt lat="46.19565" lon="3.14759">
        <ele>350.06</ele>
        <time>2021-08-14T05:42:13Z</time>
      </trkpt>
      <trkpt lat="46.19564" lon="3.1476">
        <ele>350.06</ele>
        <time>2021-08-14T05:42:14Z</time>
      </trkpt>
      <trkpt lat="46.19564" lon="3.14762">
        <ele>350.06</ele>
        <time>2021-08-14T05:42:15Z</time>
      </trkpt>
      <trkpt lat="46.19564" lon="3.14763">
        <ele>350.06</ele>
        <time>2021-08-14T05:42:16Z</time>
      </trkpt>
      <trkpt lat="46.19563" lon="3.14765">
        <ele>350.54</ele>
        <time>2021-08-14T05:42:17Z</time>
      </trkpt>
      <trkpt lat="46.19563" lon="3.14766">
        <ele>350.54</ele>
        <time>2021-08-14T05:42:18Z</time>
      </trkpt>
      <trkpt lat="46.19562" lon="3.14768">
        <ele>350.54</ele>
        <time>2021-08-14T05:42:19Z</time>
      </trkpt>
      <trkpt lat="46.19562" lon="3.1477">
        <ele>351.02</ele>
        <time>2021-08-14T05:42:20Z</time>
      </trkpt>
      <trkpt lat="46.19561" lon="3.14774">
        <ele>351.5</ele>
        <time>2021-08-14T05:42:23Z</time>
      </trkpt>
      <trkpt lat="46.19561" lon="3.14776">
        <ele>351.5</ele>
        <time>2021-08-14T05:42:24Z</time>
      </trkpt>
      <trkpt lat="46.1956" lon="3.14777">
        <ele>351.5</ele>
        <time>2021-08-14T05:42:25Z</time>
      </trkpt>
      <trkpt lat="46.1956" lon="3.14779">
        <ele>351.98</ele>
        <time>2021-08-14T05:42:26Z</time>
      </trkpt>
      <trkpt lat="46.19559" lon="3.1478">
        <ele>351.98</ele>
        <time>2021-08-14T05:42:27Z</time>
      </trkpt>
      <trkpt lat="46.19559" lon="3.14781">
        <ele>351.98</ele>
        <time>2021-08-14T05:42:28Z</time>
      </trkpt>
      <trkpt lat="46.19559" lon="3.14783">
        <ele>351.98</ele>
        <time>2021-08-14T05:42:29Z</time>
      </trkpt>
      <trkpt lat="46.19558" lon="3.14785">
        <ele>351.98</ele>
        <time>2021-08-14T05:42:30Z</time>
      </trkpt>
      <trkpt lat="46.19557" lon="3.14786">
        <ele>352.46</ele>
        <time>2021-08-14T05:42:31Z</time>
      </trkpt>
      <trkpt lat="46.19557" lon="3.14787">
        <ele>352.46</ele>
        <time>2021-08-14T05:42:32Z</time>
      </trkpt>
      <trkpt lat="46.19553" lon="3.14798">
        <ele>354.38</ele>
        <time>2021-08-14T05:42:40Z</time>
      </trkpt>
      <trkpt lat="46.1955" lon="3.1481">
        <ele>355.83</ele>
        <time>2021-08-14T05:42:48Z</time>
      </trkpt>
      <trkpt lat="46.19546" lon="3.14822">
        <ele>357.75</ele>
        <time>2021-08-14T05:42:56Z</time>
      </trkpt>
      <trkpt lat="46.19546" lon="3.14823">
        <ele>357.75</ele>
        <time>2021-08-14T05:42:57Z</time>
      </trkpt>
      <trkpt lat="46.19544" lon="3.14826">
        <ele>358.23</ele>
        <time>2021-08-14T05:42:59Z</time>
      </trkpt>
      <trkpt lat="46.19544" lon="3.14827">
        <ele>358.23</ele>
        <time>2021-08-14T05:43:00Z</time>
      </trkpt>
      <trkpt lat="46.19539" lon="3.14839">
        <ele>359.19</ele>
        <time>2021-08-14T05:43:08Z</time>
      </trkpt>
      <trkpt lat="46.19538" lon="3.1484">
        <ele>360.15</ele>
        <time>2021-08-14T05:43:09Z</time>
      </trkpt>
      <trkpt lat="46.19537" lon="3.14846">
        <ele>360.15</ele>
        <time>2021-08-14T05:43:13Z</time>
      </trkpt>
      <trkpt lat="46.19532" lon="3.14861">
        <ele>361.11</ele>
        <time>2021-08-14T05:43:23Z</time>
      </trkpt>
      <trkpt lat="46.19531" lon="3.14862">
        <ele>361.11</ele>
        <time>2021-08-14T05:43:24Z</time>
      </trkpt>
      <trkpt lat="46.19531" lon="3.14864">
        <ele>362.07</ele>
        <time>2021-08-14T05:43:25Z</time>
      </trkpt>
      <trkpt lat="46.1953" lon="3.14866">
        <ele>362.07</ele>
        <time>2021-08-14T05:43:26Z</time>
      </trkpt>
      <trkpt lat="46.1953" lon="3.14867">
        <ele>362.07</ele>
        <time>2021-08-14T05:43:27Z</time>
      </trkpt>
      <trkpt lat="46.19529" lon="3.14869">
        <ele>362.07</ele>
        <time>2021-08-14T05:43:28Z</time>
      </trkpt>
      <trkpt lat="46.19527" lon="3.14878">
        <ele>363.04</ele>
        <time>2021-08-14T05:43:34Z</time>
      </trkpt>
      <trkpt lat="46.19526" lon="3.14879">
        <ele>363.04</ele>
        <time>2021-08-14T05:43:35Z</time>
      </trkpt>
      <trkpt lat="46.19525" lon="3.14881">
        <ele>363.52</ele>
        <time>2021-08-14T05:43:36Z</time>
      </trkpt>
      <trkpt lat="46.19522" lon="3.14891">
        <ele>364.48</ele>
        <time>2021-08-14T05:43:43Z</time>
      </trkpt>
      <trkpt lat="46.19521" lon="3.14896">
        <ele>364.96</ele>
        <time>2021-08-14T05:43:46Z</time>
      </trkpt>
      <trkpt lat="46.1952" lon="3.14897">
        <ele>364.96</ele>
        <time>2021-08-14T05:43:47Z</time>
      </trkpt>
      <trkpt lat="46.1952" lon="3.14898">
        <ele>365.44</ele>
        <time>2021-08-14T05:43:48Z</time>
      </trkpt>
      <trkpt lat="46.19519" lon="3.149">
        <ele>365.44</ele>
        <time>2021-08-14T05:43:49Z</time>
      </trkpt>
      <trkpt lat="46.19519" lon="3.14901">
        <ele>365.92</ele>
        <time>2021-08-14T05:43:50Z</time>
      </trkpt>
      <trkpt lat="46.19514" lon="3.14915">
        <ele>367.36</ele>
        <time>2021-08-14T05:44:00Z</time>
      </trkpt>
      <trkpt lat="46.19513" lon="3.14916">
        <ele>367.84</ele>
        <time>2021-08-14T05:44:01Z</time>
      </trkpt>
      <trkpt lat="46.19512" lon="3.14917">
        <ele>367.84</ele>
        <time>2021-08-14T05:44:02Z</time>
      </trkpt>
      <trkpt lat="46.19512" lon="3.14918">
        <ele>368.32</ele>
        <time>2021-08-14T05:44:03Z</time>
      </trkpt>
      <trkpt lat="46.19511" lon="3.1492">
        <ele>368.32</ele>
        <time>2021-08-14T05:44:04Z</time>
      </trkpt>
      <trkpt lat="46.19511" lon="3.14921">
        <ele>368.32</ele>
        <time>2021-08-14T05:44:05Z</time>
      </trkpt>
      <trkpt lat="46.19504" lon="3.14933">
        <ele>369.76</ele>
        <time>2021-08-14T05:44:15Z</time>
      </trkpt>
      <trkpt lat="46.19496" lon="3.14943">
        <ele>371.21</ele>
        <time>2021-08-14T05:44:24Z</time>
      </trkpt>
      <trkpt lat="46.19489" lon="3.14952">
        <ele>372.65</ele>
        <time>2021-08-14T05:44:33Z</time>
      </trkpt>
      <trkpt lat="46.19488" lon="3.14953">
        <ele>372.65</ele>
        <time>2021-08-14T05:44:34Z</time>
      </trkpt>
      <trkpt lat="46.19487" lon="3.14954">
        <ele>373.61</ele>
        <time>2021-08-14T05:44:35Z</time>
      </trkpt>
      <trkpt lat="46.19486" lon="3.14955">
        <ele>373.61</ele>
        <time>2021-08-14T05:44:36Z</time>
      </trkpt>
      <trkpt lat="46.19485" lon="3.14956">
        <ele>373.61</ele>
        <time>2021-08-14T05:44:37Z</time>
      </trkpt>
      <trkpt lat="46.19484" lon="3.14957">
        <ele>374.09</ele>
        <time>2021-08-14T05:44:38Z</time>
      </trkpt>
      <trkpt lat="46.1948" lon="3.14962">
        <ele>374.57</ele>
        <time>2021-08-14T05:44:42Z</time>
      </trkpt>
      <trkpt lat="46.19479" lon="3.14963">
        <ele>374.57</ele>
        <time>2021-08-14T05:44:43Z</time>
      </trkpt>
      <trkpt lat="46.19478" lon="3.14964">
        <ele>375.05</ele>
        <time>2021-08-14T05:44:44Z</time>
      </trkpt>
      <trkpt lat="46.19478" lon="3.14965">
        <ele>375.05</ele>
        <time>2021-08-14T05:44:45Z</time>
      </trkpt>
      <trkpt lat="46.19477" lon="3.14966">
        <ele>375.53</ele>
        <time>2021-08-14T05:44:46Z</time>
      </trkpt>
      <trkpt lat="46.19476" lon="3.14968">
        <ele>375.53</ele>
        <time>2021-08-14T05:44:47Z</time>
      </trkpt>
      <trkpt lat="46.19475" lon="3.14969">
        <ele>375.53</ele>
        <time>2021-08-14T05:44:48Z</time>
      </trkpt>
      <trkpt lat="46.19474" lon="3.1497">
        <ele>375.53</ele>
        <time>2021-08-14T05:44:49Z</time>
      </trkpt>
      <trkpt lat="46.19473" lon="3.14971">
        <ele>376.01</ele>
        <time>2021-08-14T05:44:50Z</time>
      </trkpt>
      <trkpt lat="46.19472" lon="3.14972">
        <ele>376.01</ele>
        <time>2021-08-14T05:44:51Z</time>
      </trkpt>
      <trkpt lat="46.19472" lon="3.14973">
        <ele>376.49</ele>
        <time>2021-08-14T05:44:52Z</time>
      </trkpt>
      <trkpt lat="46.19471" lon="3.14973">
        <ele>376.49</ele>
        <time>2021-08-14T05:44:53Z</time>
      </trkpt>
      <trkpt lat="46.19466" lon="3.1498">
        <ele>377.45</ele>
        <time>2021-08-14T05:44:59Z</time>
      </trkpt>
      <trkpt lat="46.19459" lon="3.14987">
        <ele>378.42</ele>
        <time>2021-08-14T05:45:07Z</time>
      </trkpt>
      <trkpt lat="46.19458" lon="3.14988">
        <ele>378.42</ele>
        <time>2021-08-14T05:45:08Z</time>
      </trkpt>
      <trkpt lat="46.19455" lon="3.14991">
        <ele>379.38</ele>
        <time>2021-08-14T05:45:11Z</time>
      </trkpt>
      <trkpt lat="46.19454" lon="3.14992">
        <ele>379.38</ele>
        <time>2021-08-14T05:45:12Z</time>
      </trkpt>
      <trkpt lat="46.19453" lon="3.14992">
        <ele>379.86</ele>
        <time>2021-08-14T05:45:13Z</time>
      </trkpt>
      <trkpt lat="46.19452" lon="3.14993">
        <ele>379.86</ele>
        <time>2021-08-14T05:45:14Z</time>
      </trkpt>
      <trkpt lat="46.19452" lon="3.14994">
        <ele>379.86</ele>
        <time>2021-08-14T05:45:15Z</time>
      </trkpt>
      <trkpt lat="46.19451" lon="3.14995">
        <ele>380.34</ele>
        <time>2021-08-14T05:45:16Z</time>
      </trkpt>
      <trkpt lat="46.1945" lon="3.14996">
        <ele>380.34</ele>
        <time>2021-08-14T05:45:17Z</time>
      </trkpt>
      <trkpt lat="46.19449" lon="3.14997">
        <ele>380.82</ele>
        <time>2021-08-14T05:45:18Z</time>
      </trkpt>
      <trkpt lat="46.19441" lon="3.15004">
        <ele>382.26</ele>
        <time>2021-08-14T05:45:26Z</time>
      </trkpt>
      <trkpt lat="46.19433" lon="3.1501">
        <ele>383.22</ele>
        <time>2021-08-14T05:45:33Z</time>
      </trkpt>
      <trkpt lat="46.19432" lon="3.15011">
        <ele>383.7</ele>
        <time>2021-08-14T05:45:34Z</time>
      </trkpt>
      <trkpt lat="46.19431" lon="3.15012">
        <ele>383.7</ele>
        <time>2021-08-14T05:45:35Z</time>
      </trkpt>
      <trkpt lat="46.1943" lon="3.15013">
        <ele>384.18</ele>
        <time>2021-08-14T05:45:36Z</time>
      </trkpt>
      <trkpt lat="46.19429" lon="3.15014">
        <ele>384.18</ele>
        <time>2021-08-14T05:45:37Z</time>
      </trkpt>
      <trkpt lat="46.19422" lon="3.1502">
        <ele>385.63</ele>
        <time>2021-08-14T05:45:44Z</time>
      </trkpt>
      <trkpt lat="46.19422" lon="3.15022">
        <ele>385.63</ele>
        <time>2021-08-14T05:45:45Z</time>
      </trkpt>
      <trkpt lat="46.19421" lon="3.15022">
        <ele>385.63</ele>
        <time>2021-08-14T05:45:46Z</time>
      </trkpt>
      <trkpt lat="46.1942" lon="3.15023">
        <ele>386.11</ele>
        <time>2021-08-14T05:45:47Z</time>
      </trkpt>
      <trkpt lat="46.19419" lon="3.15024">
        <ele>386.11</ele>
        <time>2021-08-14T05:45:48Z</time>
      </trkpt>
      <trkpt lat="46.19414" lon="3.15027">
        <ele>386.59</ele>
        <time>2021-08-14T05:45:52Z</time>
      </trkpt>
      <trkpt lat="46.19413" lon="3.15028">
        <ele>386.59</ele>
        <time>2021-08-14T05:45:53Z</time>
      </trkpt>
      <trkpt lat="46.19413" lon="3.15029">
        <ele>387.07</ele>
        <time>2021-08-14T05:45:54Z</time>
      </trkpt>
      <trkpt lat="46.19412" lon="3.1503">
        <ele>387.07</ele>
        <time>2021-08-14T05:45:55Z</time>
      </trkpt>
      <trkpt lat="46.1941" lon="3.15031">
        <ele>387.55</ele>
        <time>2021-08-14T05:45:56Z</time>
      </trkpt>
      <trkpt lat="46.19409" lon="3.15032">
        <ele>387.55</ele>
        <time>2021-08-14T05:45:57Z</time>
      </trkpt>
      <trkpt lat="46.19408" lon="3.15033">
        <ele>387.55</ele>
        <time>2021-08-14T05:45:58Z</time>
      </trkpt>
      <trkpt lat="46.19407" lon="3.15034">
        <ele>388.03</ele>
        <time>2021-08-14T05:45:59Z</time>
      </trkpt>
      <trkpt lat="46.19399" lon="3.1504">
        <ele>388.99</ele>
        <time>2021-08-14T05:46:07Z</time>
      </trkpt>
      <trkpt lat="46.19393" lon="3.15044">
        <ele>389.95</ele>
        <time>2021-08-14T05:46:13Z</time>
      </trkpt>
      <trkpt lat="46.19392" lon="3.15046">
        <ele>389.95</ele>
        <time>2021-08-14T05:46:14Z</time>
      </trkpt>
      <trkpt lat="46.19391" lon="3.15047">
        <ele>389.95</ele>
        <time>2021-08-14T05:46:15Z</time>
      </trkpt>
      <trkpt lat="46.1939" lon="3.15048">
        <ele>390.43</ele>
        <time>2021-08-14T05:46:16Z</time>
      </trkpt>
      <trkpt lat="46.19383" lon="3.15052">
        <ele>391.39</ele>
        <time>2021-08-14T05:46:22Z</time>
      </trkpt>
      <trkpt lat="46.19376" lon="3.15062">
        <ele>392.84</ele>
        <time>2021-08-14T05:46:30Z</time>
      </trkpt>
      <trkpt lat="46.19364" lon="3.15074">
        <ele>394.76</ele>
        <time>2021-08-14T05:46:40Z</time>
      </trkpt>
      <trkpt lat="46.19354" lon="3.15085">
        <ele>395.72</ele>
        <time>2021-08-14T05:46:49Z</time>
      </trkpt>
      <trkpt lat="46.19344" lon="3.15102">
        <ele>396.2</ele>
        <time>2021-08-14T05:46:58Z</time>
      </trkpt>
      <trkpt lat="46.19332" lon="3.15126">
        <ele>396.2</ele>
        <time>2021-08-14T05:47:07Z</time>
      </trkpt>
      <trkpt lat="46.19314" lon="3.15145">
        <ele>397.16</ele>
        <time>2021-08-14T05:47:16Z</time>
      </trkpt>
      <trkpt lat="46.19296" lon="3.15154">
        <ele>397.64</ele>
        <time>2021-08-14T05:47:24Z</time>
      </trkpt>
      <trkpt lat="46.19281" lon="3.15173">
        <ele>397.64</ele>
        <time>2021-08-14T05:47:32Z</time>
      </trkpt>
      <trkpt lat="46.1927" lon="3.15201">
        <ele>397.64</ele>
        <time>2021-08-14T05:47:40Z</time>
      </trkpt>
      <trkpt lat="46.19259" lon="3.15229">
        <ele>397.64</ele>
        <time>2021-08-14T05:47:48Z</time>
      </trkpt>
      <trkpt lat="46.19244" lon="3.15263">
        <ele>397.64</ele>
        <time>2021-08-14T05:47:58Z</time>
      </trkpt>
      <trkpt lat="46.19224" lon="3.15288">
        <ele>398.12</ele>
        <time>2021-08-14T05:48:07Z</time>
      </trkpt>
      <trkpt lat="46.19207" lon="3.15304">
        <ele>398.12</ele>
        <time>2021-08-14T05:48:14Z</time>
      </trkpt>
      <trkpt lat="46.19191" lon="3.1532">
        <ele>398.12</ele>
        <time>2021-08-14T05:48:20Z</time>
      </trkpt>
      <trkpt lat="46.19171" lon="3.1534">
        <ele>398.12</ele>
        <time>2021-08-14T05:48:28Z</time>
      </trkpt>
      <trkpt lat="46.19151" lon="3.15364">
        <ele>398.12</ele>
        <time>2021-08-14T05:48:36Z</time>
      </trkpt>
      <trkpt lat="46.19129" lon="3.15402">
        <ele>396.2</ele>
        <time>2021-08-14T05:48:44Z</time>
      </trkpt>
      <trkpt lat="46.19111" lon="3.15431">
        <ele>392.84</ele>
        <time>2021-08-14T05:48:50Z</time>
      </trkpt>
      <trkpt lat="46.19107" lon="3.15435">
        <ele>392.36</ele>
        <time>2021-08-14T05:48:51Z</time>
      </trkpt>
      <trkpt lat="46.19093" lon="3.15449">
        <ele>390.91</ele>
        <time>2021-08-14T05:48:54Z</time>
      </trkpt>
      <trkpt lat="46.19072" lon="3.15468">
        <ele>387.55</ele>
        <time>2021-08-14T05:48:58Z</time>
      </trkpt>
      <trkpt lat="46.19061" lon="3.15482">
        <ele>386.11</ele>
        <time>2021-08-14T05:49:00Z</time>
      </trkpt>
      <trkpt lat="46.19057" lon="3.1549">
        <ele>385.15</ele>
        <time>2021-08-14T05:49:01Z</time>
      </trkpt>
      <trkpt lat="46.19053" lon="3.15499">
        <ele>384.18</ele>
        <time>2021-08-14T05:49:02Z</time>
      </trkpt>
      <trkpt lat="46.19048" lon="3.15508">
        <ele>383.22</ele>
        <time>2021-08-14T05:49:03Z</time>
      </trkpt>
      <trkpt lat="46.19044" lon="3.15518">
        <ele>382.26</ele>
        <time>2021-08-14T05:49:04Z</time>
      </trkpt>
      <trkpt lat="46.19028" lon="3.15554">
        <ele>378.9</ele>
        <time>2021-08-14T05:49:08Z</time>
      </trkpt>
      <trkpt lat="46.19013" lon="3.15585">
        <ele>376.01</ele>
        <time>2021-08-14T05:49:12Z</time>
      </trkpt>
      <trkpt lat="46.18997" lon="3.15616">
        <ele>372.17</ele>
        <time>2021-08-14T05:49:16Z</time>
      </trkpt>
      <trkpt lat="46.18992" lon="3.15624">
        <ele>371.69</ele>
        <time>2021-08-14T05:49:17Z</time>
      </trkpt>
      <trkpt lat="46.18976" lon="3.15648">
        <ele>368.32</ele>
        <time>2021-08-14T05:49:20Z</time>
      </trkpt>
      <trkpt lat="46.18958" lon="3.15674">
        <ele>366.88</ele>
        <time>2021-08-14T05:49:23Z</time>
      </trkpt>
      <trkpt lat="46.18952" lon="3.15682">
        <ele>365.92</ele>
        <time>2021-08-14T05:49:24Z</time>
      </trkpt>
      <trkpt lat="46.18946" lon="3.15689">
        <ele>365.92</ele>
        <time>2021-08-14T05:49:25Z</time>
      </trkpt>
      <trkpt lat="46.18939" lon="3.15695">
        <ele>365.44</ele>
        <time>2021-08-14T05:49:26Z</time>
      </trkpt>
      <trkpt lat="46.18933" lon="3.15699">
        <ele>365.44</ele>
        <time>2021-08-14T05:49:27Z</time>
      </trkpt>
      <trkpt lat="46.18926" lon="3.15703">
        <ele>365.44</ele>
        <time>2021-08-14T05:49:28Z</time>
      </trkpt>
      <trkpt lat="46.1892" lon="3.15706">
        <ele>365.92</ele>
        <time>2021-08-14T05:49:29Z</time>
      </trkpt>
      <trkpt lat="46.18915" lon="3.15709">
        <ele>365.44</ele>
        <time>2021-08-14T05:49:30Z</time>
      </trkpt>
      <trkpt lat="46.18897" lon="3.15721">
        <ele>366.88</ele>
        <time>2021-08-14T05:49:34Z</time>
      </trkpt>
      <trkpt lat="46.1888" lon="3.15736">
        <ele>368.8</ele>
        <time>2021-08-14T05:49:41Z</time>
      </trkpt>
      <trkpt lat="46.18868" lon="3.15748">
        <ele>369.76</ele>
        <time>2021-08-14T05:49:49Z</time>
      </trkpt>
      <trkpt lat="46.18855" lon="3.15759">
        <ele>371.69</ele>
        <time>2021-08-14T05:49:58Z</time>
      </trkpt>
      <trkpt lat="46.18842" lon="3.15772">
        <ele>373.13</ele>
        <time>2021-08-14T05:50:09Z</time>
      </trkpt>
      <trkpt lat="46.18831" lon="3.15787">
        <ele>374.57</ele>
        <time>2021-08-14T05:50:20Z</time>
      </trkpt>
      <trkpt lat="46.18826" lon="3.15794">
        <ele>375.53</ele>
        <time>2021-08-14T05:50:26Z</time>
      </trkpt>
      <trkpt lat="46.18826" lon="3.15796">
        <ele>376.01</ele>
        <time>2021-08-14T05:50:27Z</time>
      </trkpt>
      <trkpt lat="46.18825" lon="3.15797">
        <ele>376.01</ele>
        <time>2021-08-14T05:50:28Z</time>
      </trkpt>
      <trkpt lat="46.18825" lon="3.15798">
        <ele>376.01</ele>
        <time>2021-08-14T05:50:29Z</time>
      </trkpt>
      <trkpt lat="46.18824" lon="3.158">
        <ele>376.49</ele>
        <time>2021-08-14T05:50:30Z</time>
      </trkpt>
      <trkpt lat="46.18823" lon="3.15801">
        <ele>376.49</ele>
        <time>2021-08-14T05:50:31Z</time>
      </trkpt>
      <trkpt lat="46.18822" lon="3.15802">
        <ele>376.49</ele>
        <time>2021-08-14T05:50:32Z</time>
      </trkpt>
      <trkpt lat="46.18821" lon="3.15804">
        <ele>376.97</ele>
        <time>2021-08-14T05:50:33Z</time>
      </trkpt>
      <trkpt lat="46.18818" lon="3.1581">
        <ele>377.45</ele>
        <time>2021-08-14T05:50:37Z</time>
      </trkpt>
      <trkpt lat="46.18817" lon="3.15812">
        <ele>377.94</ele>
        <time>2021-08-14T05:50:38Z</time>
      </trkpt>
      <trkpt lat="46.18817" lon="3.15813">
        <ele>377.94</ele>
        <time>2021-08-14T05:50:39Z</time>
      </trkpt>
      <trkpt lat="46.18815" lon="3.15814">
        <ele>377.94</ele>
        <time>2021-08-14T05:50:40Z</time>
      </trkpt>
      <trkpt lat="46.18814" lon="3.15815">
        <ele>378.42</ele>
        <time>2021-08-14T05:50:41Z</time>
      </trkpt>
      <trkpt lat="46.18813" lon="3.15816">
        <ele>378.42</ele>
        <time>2021-08-14T05:50:42Z</time>
      </trkpt>
      <trkpt lat="46.18812" lon="3.15817">
        <ele>378.42</ele>
        <time>2021-08-14T05:50:43Z</time>
      </trkpt>
      <trkpt lat="46.18811" lon="3.15818">
        <ele>378.9</ele>
        <time>2021-08-14T05:50:44Z</time>
      </trkpt>
      <trkpt lat="46.18797" lon="3.15817">
        <ele>379.86</ele>
        <time>2021-08-14T05:50:54Z</time>
      </trkpt>
      <trkpt lat="46.18786" lon="3.15816">
        <ele>381.3</ele>
        <time>2021-08-14T05:51:03Z</time>
      </trkpt>
      <trkpt lat="46.18774" lon="3.15823">
        <ele>383.22</ele>
        <time>2021-08-14T05:51:13Z</time>
      </trkpt>
      <trkpt lat="46.18766" lon="3.15835">
        <ele>384.18</ele>
        <time>2021-08-14T05:51:22Z</time>
      </trkpt>
      <trkpt lat="46.18763" lon="3.15842">
        <ele>385.15</ele>
        <time>2021-08-14T05:51:27Z</time>
      </trkpt>
      <trkpt lat="46.18762" lon="3.15843">
        <ele>385.15</ele>
        <time>2021-08-14T05:51:28Z</time>
      </trkpt>
      <trkpt lat="46.18757" lon="3.15859">
        <ele>387.07</ele>
        <time>2021-08-14T05:51:38Z</time>
      </trkpt>
      <trkpt lat="46.18757" lon="3.1586">
        <ele>387.07</ele>
        <time>2021-08-14T05:51:39Z</time>
      </trkpt>
      <trkpt lat="46.18751" lon="3.1588">
        <ele>388.51</ele>
        <time>2021-08-14T05:51:50Z</time>
      </trkpt>
      <trkpt lat="46.18747" lon="3.15901">
        <ele>389.95</ele>
        <time>2021-08-14T05:52:01Z</time>
      </trkpt>
      <trkpt lat="46.18744" lon="3.15923">
        <ele>391.87</ele>
        <time>2021-08-14T05:52:11Z</time>
      </trkpt>
      <trkpt lat="46.18744" lon="3.15927">
        <ele>391.87</ele>
        <time>2021-08-14T05:52:13Z</time>
      </trkpt>
      <trkpt lat="46.18743" lon="3.15934">
        <ele>392.36</ele>
        <time>2021-08-14T05:52:16Z</time>
      </trkpt>
      <trkpt lat="46.18743" lon="3.15936">
        <ele>392.36</ele>
        <time>2021-08-14T05:52:17Z</time>
      </trkpt>
      <trkpt lat="46.18743" lon="3.15938">
        <ele>392.36</ele>
        <time>2021-08-14T05:52:18Z</time>
      </trkpt>
      <trkpt lat="46.18745" lon="3.15957">
        <ele>393.8</ele>
        <time>2021-08-14T05:52:27Z</time>
      </trkpt>
      <trkpt lat="46.18747" lon="3.15974">
        <ele>394.76</ele>
        <time>2021-08-14T05:52:36Z</time>
      </trkpt>
      <trkpt lat="46.18749" lon="3.15997">
        <ele>395.72</ele>
        <time>2021-08-14T05:52:46Z</time>
      </trkpt>
      <trkpt lat="46.1875" lon="3.1601">
        <ele>396.68</ele>
        <time>2021-08-14T05:52:52Z</time>
      </trkpt>
      <trkpt lat="46.1875" lon="3.16012">
        <ele>396.68</ele>
        <time>2021-08-14T05:52:53Z</time>
      </trkpt>
      <trkpt lat="46.1875" lon="3.16014">
        <ele>396.68</ele>
        <time>2021-08-14T05:52:54Z</time>
      </trkpt>
      <trkpt lat="46.18749" lon="3.16016">
        <ele>397.16</ele>
        <time>2021-08-14T05:52:55Z</time>
      </trkpt>
      <trkpt lat="46.18749" lon="3.16019">
        <ele>397.16</ele>
        <time>2021-08-14T05:52:56Z</time>
      </trkpt>
      <trkpt lat="46.18749" lon="3.16021">
        <ele>397.16</ele>
        <time>2021-08-14T05:52:57Z</time>
      </trkpt>
      <trkpt lat="46.1875" lon="3.16023">
        <ele>397.64</ele>
        <time>2021-08-14T05:52:58Z</time>
      </trkpt>
      <trkpt lat="46.1875" lon="3.16026">
        <ele>397.64</ele>
        <time>2021-08-14T05:52:59Z</time>
      </trkpt>
      <trkpt lat="46.18752" lon="3.16042">
        <ele>398.12</ele>
        <time>2021-08-14T05:53:05Z</time>
      </trkpt>
      <trkpt lat="46.18754" lon="3.16057">
        <ele>399.57</ele>
        <time>2021-08-14T05:53:11Z</time>
      </trkpt>
      <trkpt lat="46.18757" lon="3.1609">
        <ele>401.49</ele>
        <time>2021-08-14T05:53:24Z</time>
      </trkpt>
      <trkpt lat="46.18755" lon="3.16112">
        <ele>402.93</ele>
        <time>2021-08-14T05:53:32Z</time>
      </trkpt>
      <trkpt lat="46.18748" lon="3.16123">
        <ele>403.41</ele>
        <time>2021-08-14T05:53:38Z</time>
      </trkpt>
      <trkpt lat="46.18733" lon="3.16133">
        <ele>404.37</ele>
        <time>2021-08-14T05:53:46Z</time>
      </trkpt>
      <trkpt lat="46.1871" lon="3.16145">
        <ele>405.81</ele>
        <time>2021-08-14T05:53:56Z</time>
      </trkpt>
      <trkpt lat="46.18696" lon="3.16154">
        <ele>406.29</ele>
        <time>2021-08-14T05:54:03Z</time>
      </trkpt>
      <trkpt lat="46.18673" lon="3.16167">
        <ele>407.26</ele>
        <time>2021-08-14T05:54:12Z</time>
      </trkpt>
      <trkpt lat="46.18655" lon="3.16176">
        <ele>407.74</ele>
        <time>2021-08-14T05:54:18Z</time>
      </trkpt>
      <trkpt lat="46.18629" lon="3.16192">
        <ele>408.22</ele>
        <time>2021-08-14T05:54:26Z</time>
      </trkpt>
      <trkpt lat="46.18609" lon="3.16204">
        <ele>408.7</ele>
        <time>2021-08-14T05:54:33Z</time>
      </trkpt>
      <trkpt lat="46.18608" lon="3.16203">
        <ele>408.7</ele>
        <time>2021-08-14T05:54:34Z</time>
      </trkpt>
      <trkpt lat="46.18608" lon="3.16193">
        <ele>409.18</ele>
        <time>2021-08-14T05:54:39Z</time>
      </trkpt>
      <trkpt lat="46.18608" lon="3.1619">
        <ele>409.18</ele>
        <time>2021-08-14T05:54:40Z</time>
      </trkpt>
      <trkpt lat="46.18606" lon="3.1619">
        <ele>409.18</ele>
        <time>2021-08-14T05:54:41Z</time>
      </trkpt>
      <trkpt lat="46.18605" lon="3.16191">
        <ele>409.18</ele>
        <time>2021-08-14T05:54:42Z</time>
      </trkpt>
      <trkpt lat="46.18605" lon="3.16194">
        <ele>409.18</ele>
        <time>2021-08-14T05:54:43Z</time>
      </trkpt>
      <trkpt lat="46.18606" lon="3.16197">
        <ele>409.18</ele>
        <time>2021-08-14T05:54:44Z</time>
      </trkpt>
      <trkpt lat="46.18607" lon="3.16199">
        <ele>409.18</ele>
        <time>2021-08-14T05:54:45Z</time>
      </trkpt>
      <trkpt lat="46.18608" lon="3.16203">
        <ele>409.18</ele>
        <time>2021-08-14T05:54:46Z</time>
      </trkpt>
      <trkpt lat="46.18607" lon="3.16207">
        <ele>409.18</ele>
        <time>2021-08-14T05:54:47Z</time>
      </trkpt>
      <trkpt lat="46.18605" lon="3.16211">
        <ele>409.18</ele>
        <time>2021-08-14T05:54:48Z</time>
      </trkpt>
      <trkpt lat="46.18602" lon="3.16214">
        <ele>409.18</ele>
        <time>2021-08-14T05:54:49Z</time>
      </trkpt>
      <trkpt lat="46.186" lon="3.16216">
        <ele>409.18</ele>
        <time>2021-08-14T05:54:50Z</time>
      </trkpt>
      <trkpt lat="46.18597" lon="3.16218">
        <ele>409.18</ele>
        <time>2021-08-14T05:54:51Z</time>
      </trkpt>
      <trkpt lat="46.18594" lon="3.1622">
        <ele>409.18</ele>
        <time>2021-08-14T05:54:52Z</time>
      </trkpt>
      <trkpt lat="46.18568" lon="3.16236">
        <ele>409.18</ele>
        <time>2021-08-14T05:55:00Z</time>
      </trkpt>
      <trkpt lat="46.18567" lon="3.16238">
        <ele>409.18</ele>
        <time>2021-08-14T05:55:01Z</time>
      </trkpt>
      <trkpt lat="46.18568" lon="3.16239">
        <ele>409.18</ele>
        <time>2021-08-14T05:55:02Z</time>
      </trkpt>
      <trkpt lat="46.1857" lon="3.16238">
        <ele>409.18</ele>
        <time>2021-08-14T05:55:03Z</time>
      </trkpt>
      <trkpt lat="46.18591" lon="3.16225">
        <ele>409.18</ele>
        <time>2021-08-14T05:55:08Z</time>
      </trkpt>
      <trkpt lat="46.18628" lon="3.16193">
        <ele>409.18</ele>
        <time>2021-08-14T05:55:16Z</time>
      </trkpt>
      <trkpt lat="46.18643" lon="3.16181">
        <ele>409.18</ele>
        <time>2021-08-14T05:55:20Z</time>
      </trkpt>
      <trkpt lat="46.18643" lon="3.16177">
        <ele>409.18</ele>
        <time>2021-08-14T05:55:21Z</time>
      </trkpt>
      <trkpt lat="46.18642" lon="3.16173">
        <ele>409.18</ele>
        <time>2021-08-14T05:55:22Z</time>
      </trkpt>
      <trkpt lat="46.18629" lon="3.16145">
        <ele>409.18</ele>
        <time>2021-08-14T05:55:30Z</time>
      </trkpt>
      <trkpt lat="46.18617" lon="3.16124">
        <ele>410.14</ele>
        <time>2021-08-14T05:55:38Z</time>
      </trkpt>
      <trkpt lat="46.18616" lon="3.1612">
        <ele>410.14</ele>
        <time>2021-08-14T05:55:40Z</time>
      </trkpt>
      <trkpt lat="46.18615" lon="3.16118">
        <ele>410.14</ele>
        <time>2021-08-14T05:55:41Z</time>
      </trkpt>
      <trkpt lat="46.18613" lon="3.16119">
        <ele>410.14</ele>
        <time>2021-08-14T05:55:43Z</time>
      </trkpt>
      <trkpt lat="46.18614" lon="3.16121">
        <ele>410.14</ele>
        <time>2021-08-14T05:55:44Z</time>
      </trkpt>
      <trkpt lat="46.18614" lon="3.1613">
        <ele>410.14</ele>
        <time>2021-08-14T05:55:47Z</time>
      </trkpt>
      <trkpt lat="46.18613" lon="3.16132">
        <ele>410.14</ele>
        <time>2021-08-14T05:55:48Z</time>
      </trkpt>
      <trkpt lat="46.18611" lon="3.16135">
        <ele>410.14</ele>
        <time>2021-08-14T05:55:49Z</time>
      </trkpt>
      <trkpt lat="46.18608" lon="3.16139">
        <ele>410.14</ele>
        <time>2021-08-14T05:55:50Z</time>
      </trkpt>
      <trkpt lat="46.18607" lon="3.16142">
        <ele>410.14</ele>
        <time>2021-08-14T05:55:51Z</time>
      </trkpt>
      <trkpt lat="46.18597" lon="3.16157">
        <ele>410.62</ele>
        <time>2021-08-14T05:55:56Z</time>
      </trkpt>
      <trkpt lat="46.18572" lon="3.16179">
        <ele>410.62</ele>
        <time>2021-08-14T05:56:05Z</time>
      </trkpt>
      <trkpt lat="46.1855" lon="3.16195">
        <ele>411.1</ele>
        <time>2021-08-14T05:56:13Z</time>
      </trkpt>
      <trkpt lat="46.18532" lon="3.16205">
        <ele>411.1</ele>
        <time>2021-08-14T05:56:19Z</time>
      </trkpt>
      <trkpt lat="46.18529" lon="3.16203">
        <ele>411.1</ele>
        <time>2021-08-14T05:56:20Z</time>
      </trkpt>
      <trkpt lat="46.18526" lon="3.162">
        <ele>411.1</ele>
        <time>2021-08-14T05:56:21Z</time>
      </trkpt>
      <trkpt lat="46.18524" lon="3.16197">
        <ele>411.1</ele>
        <time>2021-08-14T05:56:22Z</time>
      </trkpt>
      <trkpt lat="46.18523" lon="3.16194">
        <ele>411.1</ele>
        <time>2021-08-14T05:56:23Z</time>
      </trkpt>
      <trkpt lat="46.18521" lon="3.16189">
        <ele>411.1</ele>
        <time>2021-08-14T05:56:24Z</time>
      </trkpt>
      <trkpt lat="46.18506" lon="3.16148">
        <ele>411.58</ele>
        <time>2021-08-14T05:56:34Z</time>
      </trkpt>
      <trkpt lat="46.18491" lon="3.16111">
        <ele>412.06</ele>
        <time>2021-08-14T05:56:42Z</time>
      </trkpt>
      <trkpt lat="46.18473" lon="3.16078">
        <ele>413.02</ele>
        <time>2021-08-14T05:56:50Z</time>
      </trkpt>
      <trkpt lat="46.18456" lon="3.16052">
        <ele>413.02</ele>
        <time>2021-08-14T05:56:58Z</time>
      </trkpt>
      <trkpt lat="46.1845" lon="3.16046">
        <ele>413.02</ele>
        <time>2021-08-14T05:57:04Z</time>
      </trkpt>
      <trkpt lat="46.1845" lon="3.16049">
        <ele>413.02</ele>
        <time>2021-08-14T05:57:05Z</time>
      </trkpt>
      <trkpt lat="46.18452" lon="3.1605">
        <ele>413.02</ele>
        <time>2021-08-14T05:57:06Z</time>
      </trkpt>
      <trkpt lat="46.18453" lon="3.16053">
        <ele>413.02</ele>
        <time>2021-08-14T05:57:07Z</time>
      </trkpt>
      <trkpt lat="46.18455" lon="3.16056">
        <ele>413.02</ele>
        <time>2021-08-14T05:57:08Z</time>
      </trkpt>
      <trkpt lat="46.18456" lon="3.16062">
        <ele>413.02</ele>
        <time>2021-08-14T05:57:09Z</time>
      </trkpt>
      <trkpt lat="46.18456" lon="3.16066">
        <ele>413.02</ele>
        <time>2021-08-14T05:57:10Z</time>
      </trkpt>
      <trkpt lat="46.18456" lon="3.1607">
        <ele>413.02</ele>
        <time>2021-08-14T05:57:11Z</time>
      </trkpt>
      <trkpt lat="46.18453" lon="3.16099">
        <ele>413.02</ele>
        <time>2021-08-14T05:57:17Z</time>
      </trkpt>
      <trkpt lat="46.18453" lon="3.16118">
        <ele>413.02</ele>
        <time>2021-08-14T05:57:23Z</time>
      </trkpt>
      <trkpt lat="46.18453" lon="3.1612">
        <ele>413.02</ele>
        <time>2021-08-14T05:57:24Z</time>
      </trkpt>
      <trkpt lat="46.18454" lon="3.16121">
        <ele>413.02</ele>
        <time>2021-08-14T05:57:25Z</time>
      </trkpt>
      <trkpt lat="46.18455" lon="3.16124">
        <ele>413.02</ele>
        <time>2021-08-14T05:57:26Z</time>
      </trkpt>
      <trkpt lat="46.18456" lon="3.16127">
        <ele>413.02</ele>
        <time>2021-08-14T05:57:27Z</time>
      </trkpt>
      <trkpt lat="46.18457" lon="3.16131">
        <ele>413.02</ele>
        <time>2021-08-14T05:57:28Z</time>
      </trkpt>
      <trkpt lat="46.18457" lon="3.16135">
        <ele>413.02</ele>
        <time>2021-08-14T05:57:29Z</time>
      </trkpt>
      <trkpt lat="46.18458" lon="3.1614">
        <ele>413.02</ele>
        <time>2021-08-14T05:57:30Z</time>
      </trkpt>
      <trkpt lat="46.18459" lon="3.16144">
        <ele>413.02</ele>
        <time>2021-08-14T05:57:31Z</time>
      </trkpt>
      <trkpt lat="46.1846" lon="3.16148">
        <ele>413.02</ele>
        <time>2021-08-14T05:57:32Z</time>
      </trkpt>
      <trkpt lat="46.18461" lon="3.16152">
        <ele>413.02</ele>
        <time>2021-08-14T05:57:33Z</time>
      </trkpt>
      <trkpt lat="46.18469" lon="3.16192">
        <ele>412.06</ele>
        <time>2021-08-14T05:57:41Z</time>
      </trkpt>
      <trkpt lat="46.18477" lon="3.16225">
        <ele>411.58</ele>
        <time>2021-08-14T05:57:48Z</time>
      </trkpt>
      <trkpt lat="46.18478" lon="3.16228">
        <ele>411.1</ele>
        <time>2021-08-14T05:57:54Z</time>
      </trkpt>
      <trkpt lat="46.18475" lon="3.16227">
        <ele>411.1</ele>
        <time>2021-08-14T05:58:03Z</time>
      </trkpt>
      <trkpt lat="46.18475" lon="3.16224">
        <ele>411.1</ele>
        <time>2021-08-14T05:58:15Z</time>
      </trkpt>
      <trkpt lat="46.18476" lon="3.16223">
        <ele>411.1</ele>
        <time>2021-08-14T05:58:33Z</time>
      </trkpt>
      <trkpt lat="46.18476" lon="3.16223">
        <ele>411.1</ele>
        <time>2021-08-14T05:58:45Z</time>
      </trkpt>
      <trkpt lat="46.18473" lon="3.16223">
        <ele>411.1</ele>
        <time>2021-08-14T05:59:08Z</time>
      </trkpt>
      <trkpt lat="46.18473" lon="3.16222">
        <ele>411.1</ele>
        <time>2021-08-14T05:59:23Z</time>
      </trkpt>
      <trkpt lat="46.18476" lon="3.16221">
        <ele>411.1</ele>
        <time>2021-08-14T05:59:39Z</time>
      </trkpt>
      <trkpt lat="46.18476" lon="3.1622">
        <ele>411.1</ele>
        <time>2021-08-14T05:59:57Z</time>
      </trkpt>
      <trkpt lat="46.18475" lon="3.1622">
        <ele>411.1</ele>
        <time>2021-08-14T06:00:12Z</time>
      </trkpt>
      <trkpt lat="46.18475" lon="3.16216">
        <ele>411.1</ele>
        <time>2021-08-14T06:00:31Z</time>
      </trkpt>
      <trkpt lat="46.18476" lon="3.16214">
        <ele>411.1</ele>
        <time>2021-08-14T06:00:49Z</time>
      </trkpt>
      <trkpt lat="46.18477" lon="3.16211">
        <ele>411.58</ele>
        <time>2021-08-14T06:01:12Z</time>
      </trkpt>
      <trkpt lat="46.18476" lon="3.16212">
        <ele>411.58</ele>
        <time>2021-08-14T06:01:31Z</time>
      </trkpt>
      <trkpt lat="46.18477" lon="3.16213">
        <ele>411.58</ele>
        <time>2021-08-14T06:01:57Z</time>
      </trkpt>
      <trkpt lat="46.18476" lon="3.16209">
        <ele>412.06</ele>
        <time>2021-08-14T06:02:17Z</time>
      </trkpt>
      <trkpt lat="46.18476" lon="3.1621">
        <ele>412.06</ele>
        <time>2021-08-14T06:02:24Z</time>
      </trkpt>
      <trkpt lat="46.18476" lon="3.16212">
        <ele>412.06</ele>
        <time>2021-08-14T06:02:31Z</time>
      </trkpt>
      <trkpt lat="46.18475" lon="3.16209">
        <ele>412.06</ele>
        <time>2021-08-14T06:02:33Z</time>
      </trkpt>
      <trkpt lat="46.18475" lon="3.162">
        <ele>412.06</ele>
        <time>2021-08-14T06:02:40Z</time>
      </trkpt>
      <trkpt lat="46.18477" lon="3.16202">
        <ele>412.06</ele>
        <time>2021-08-14T06:02:51Z</time>
      </trkpt>
      <trkpt lat="46.18478" lon="3.16203">
        <ele>412.06</ele>
        <time>2021-08-14T06:03:05Z</time>
      </trkpt>
      <trkpt lat="46.18477" lon="3.16205">
        <ele>412.06</ele>
        <time>2021-08-14T06:03:25Z</time>
      </trkpt>
      <trkpt lat="46.18475" lon="3.16204">
        <ele>412.06</ele>
        <time>2021-08-14T06:03:44Z</time>
      </trkpt>
      <trkpt lat="46.18475" lon="3.16201">
        <ele>412.06</ele>
        <time>2021-08-14T06:04:00Z</time>
      </trkpt>
      <trkpt lat="46.18475" lon="3.162">
        <ele>412.06</ele>
        <time>2021-08-14T06:04:15Z</time>
      </trkpt>
      <trkpt lat="46.18474" lon="3.162">
        <ele>412.06</ele>
        <time>2021-08-14T06:04:30Z</time>
      </trkpt>
      <trkpt lat="46.18472" lon="3.16201">
        <ele>412.06</ele>
        <time>2021-08-14T06:04:48Z</time>
      </trkpt>
      <trkpt lat="46.18474" lon="3.16202">
        <ele>412.06</ele>
        <time>2021-08-14T06:05:05Z</time>
      </trkpt>
      <trkpt lat="46.18476" lon="3.16202">
        <ele>412.06</ele>
        <time>2021-08-14T06:05:22Z</time>
      </trkpt>
      <trkpt lat="46.18475" lon="3.162">
        <ele>412.06</ele>
        <time>2021-08-14T06:05:40Z</time>
      </trkpt>
      <trkpt lat="46.18473" lon="3.16201">
        <ele>412.06</ele>
        <time>2021-08-14T06:05:54Z</time>
      </trkpt>
      <trkpt lat="46.18472" lon="3.16203">
        <ele>412.06</ele>
        <time>2021-08-14T06:06:12Z</time>
      </trkpt>
      <trkpt lat="46.18471" lon="3.16203">
        <ele>412.06</ele>
        <time>2021-08-14T06:06:29Z</time>
      </trkpt>
      <trkpt lat="46.18474" lon="3.16205">
        <ele>412.06</ele>
        <time>2021-08-14T06:06:45Z</time>
      </trkpt>
      <trkpt lat="46.18475" lon="3.16206">
        <ele>411.58</ele>
        <time>2021-08-14T06:07:01Z</time>
      </trkpt>
      <trkpt lat="46.18474" lon="3.16204">
        <ele>412.06</ele>
        <time>2021-08-14T06:07:18Z</time>
      </trkpt>
      <trkpt lat="46.18472" lon="3.16202">
        <ele>412.06</ele>
        <time>2021-08-14T06:07:31Z</time>
      </trkpt>
      <trkpt lat="46.18472" lon="3.162">
        <ele>412.06</ele>
        <time>2021-08-14T06:07:50Z</time>
      </trkpt>
      <trkpt lat="46.18474" lon="3.162">
        <ele>412.06</ele>
        <time>2021-08-14T06:08:09Z</time>
      </trkpt>
      <trkpt lat="46.18475" lon="3.16201">
        <ele>412.06</ele>
        <time>2021-08-14T06:08:21Z</time>
      </trkpt>
      <trkpt lat="46.18475" lon="3.16201">
        <ele>412.06</ele>
        <time>2021-08-14T06:08:30Z</time>
      </trkpt>
      <trkpt lat="46.18476" lon="3.162">
        <ele>412.06</ele>
        <time>2021-08-14T06:08:50Z</time>
      </trkpt>
      <trkpt lat="46.18476" lon="3.162">
        <ele>412.06</ele>
        <time>2021-08-14T06:09:10Z</time>
      </trkpt>
      <trkpt lat="46.18475" lon="3.16202">
        <ele>412.06</ele>
        <time>2021-08-14T06:09:26Z</time>
      </trkpt>
      <trkpt lat="46.18476" lon="3.16202">
        <ele>412.06</ele>
        <time>2021-08-14T06:09:39Z</time>
      </trkpt>
      <trkpt lat="46.18478" lon="3.16202">
        <ele>412.06</ele>
        <time>2021-08-14T06:09:50Z</time>
      </trkpt>
      <trkpt lat="46.18478" lon="3.16203">
        <ele>412.06</ele>
        <time>2021-08-14T06:10:08Z</time>
      </trkpt>
      <trkpt lat="46.18478" lon="3.16202">
        <ele>412.06</ele>
        <time>2021-08-14T06:10:25Z</time>
      </trkpt>
      <trkpt lat="46.18479" lon="3.16202">
        <ele>412.06</ele>
        <time>2021-08-14T06:10:40Z</time>
      </trkpt>
      <trkpt lat="46.18478" lon="3.16203">
        <ele>412.06</ele>
        <time>2021-08-14T06:10:54Z</time>
      </trkpt>
      <trkpt lat="46.18479" lon="3.16204">
        <ele>412.06</ele>
        <time>2021-08-14T06:11:13Z</time>
      </trkpt>
      <trkpt lat="46.18477" lon="3.16206">
        <ele>412.54</ele>
        <time>2021-08-14T06:11:29Z</time>
      </trkpt>
      <trkpt lat="46.18475" lon="3.16205">
        <ele>412.54</ele>
        <time>2021-08-14T06:11:52Z</time>
      </trkpt>
      <trkpt lat="46.18475" lon="3.16203">
        <ele>413.5</ele>
        <time>2021-08-14T06:12:06Z</time>
      </trkpt>
      <trkpt lat="46.18474" lon="3.16205">
        <ele>413.5</ele>
        <time>2021-08-14T06:12:21Z</time>
      </trkpt>
      <trkpt lat="46.18474" lon="3.16205">
        <ele>413.5</ele>
        <time>2021-08-14T06:12:40Z</time>
      </trkpt>
      <trkpt lat="46.18474" lon="3.16203">
        <ele>413.5</ele>
        <time>2021-08-14T06:12:51Z</time>
      </trkpt>
      <trkpt lat="46.18472" lon="3.16203">
        <ele>413.5</ele>
        <time>2021-08-14T06:12:58Z</time>
      </trkpt>
      <trkpt lat="46.18473" lon="3.16203">
        <ele>413.5</ele>
        <time>2021-08-14T06:13:10Z</time>
      </trkpt>
      <trkpt lat="46.18474" lon="3.16201">
        <ele>413.5</ele>
        <time>2021-08-14T06:13:18Z</time>
      </trkpt>
      <trkpt lat="46.18469" lon="3.16198">
        <ele>413.5</ele>
        <time>2021-08-14T06:13:23Z</time>
      </trkpt>
      <trkpt lat="46.18465" lon="3.16168">
        <ele>413.5</ele>
        <time>2021-08-14T06:13:32Z</time>
      </trkpt>
      <trkpt lat="46.18464" lon="3.16153">
        <ele>413.5</ele>
        <time>2021-08-14T06:13:36Z</time>
      </trkpt>
      <trkpt lat="46.18465" lon="3.1615">
        <ele>413.5</ele>
        <time>2021-08-14T06:13:37Z</time>
      </trkpt>
      <trkpt lat="46.18465" lon="3.16147">
        <ele>414.47</ele>
        <time>2021-08-14T06:13:38Z</time>
      </trkpt>
      <trkpt lat="46.18465" lon="3.16146">
        <ele>414.47</ele>
        <time>2021-08-14T06:13:42Z</time>
      </trkpt>
      <trkpt lat="46.18463" lon="3.16146">
        <ele>414.47</ele>
        <time>2021-08-14T06:13:43Z</time>
      </trkpt>
      <trkpt lat="46.18462" lon="3.16146">
        <ele>414.47</ele>
        <time>2021-08-14T06:13:44Z</time>
      </trkpt>
      <trkpt lat="46.1846" lon="3.16144">
        <ele>414.47</ele>
        <time>2021-08-14T06:13:45Z</time>
      </trkpt>
      <trkpt lat="46.18459" lon="3.16141">
        <ele>414.47</ele>
        <time>2021-08-14T06:13:46Z</time>
      </trkpt>
      <trkpt lat="46.18459" lon="3.16138">
        <ele>414.47</ele>
        <time>2021-08-14T06:13:47Z</time>
      </trkpt>
      <trkpt lat="46.18458" lon="3.16134">
        <ele>414.47</ele>
        <time>2021-08-14T06:13:48Z</time>
      </trkpt>
      <trkpt lat="46.18454" lon="3.16107">
        <ele>414.47</ele>
        <time>2021-08-14T06:13:55Z</time>
      </trkpt>
      <trkpt lat="46.18455" lon="3.16073">
        <ele>414.47</ele>
        <time>2021-08-14T06:14:02Z</time>
      </trkpt>
      <trkpt lat="46.18449" lon="3.1604">
        <ele>414.95</ele>
        <time>2021-08-14T06:14:08Z</time>
      </trkpt>
      <trkpt lat="46.18428" lon="3.15996">
        <ele>414.95</ele>
        <time>2021-08-14T06:14:16Z</time>
      </trkpt>
      <trkpt lat="46.184" lon="3.15941">
        <ele>414.95</ele>
        <time>2021-08-14T06:14:26Z</time>
      </trkpt>
      <trkpt lat="46.18388" lon="3.1592">
        <ele>414.95</ele>
        <time>2021-08-14T06:14:30Z</time>
      </trkpt>
      <trkpt lat="46.18386" lon="3.15916">
        <ele>414.95</ele>
        <time>2021-08-14T06:14:31Z</time>
      </trkpt>
      <trkpt lat="46.18384" lon="3.15915">
        <ele>414.95</ele>
        <time>2021-08-14T06:14:32Z</time>
      </trkpt>
      <trkpt lat="46.18383" lon="3.15917">
        <ele>414.95</ele>
        <time>2021-08-14T06:14:33Z</time>
      </trkpt>
      <trkpt lat="46.18384" lon="3.1592">
        <ele>414.95</ele>
        <time>2021-08-14T06:14:34Z</time>
      </trkpt>
      <trkpt lat="46.18385" lon="3.15924">
        <ele>414.95</ele>
        <time>2021-08-14T06:14:35Z</time>
      </trkpt>
      <trkpt lat="46.18385" lon="3.15928">
        <ele>414.95</ele>
        <time>2021-08-14T06:14:36Z</time>
      </trkpt>
      <trkpt lat="46.18384" lon="3.15932">
        <ele>414.95</ele>
        <time>2021-08-14T06:14:37Z</time>
      </trkpt>
      <trkpt lat="46.18381" lon="3.15935">
        <ele>414.95</ele>
        <time>2021-08-14T06:14:38Z</time>
      </trkpt>
      <trkpt lat="46.1835" lon="3.15971">
        <ele>414.95</ele>
        <time>2021-08-14T06:14:48Z</time>
      </trkpt>
      <trkpt lat="46.18314" lon="3.1601">
        <ele>414.95</ele>
        <time>2021-08-14T06:14:58Z</time>
      </trkpt>
      <trkpt lat="46.18275" lon="3.1605">
        <ele>414.95</ele>
        <time>2021-08-14T06:15:08Z</time>
      </trkpt>
      <trkpt lat="46.18267" lon="3.16057">
        <ele>413.5</ele>
        <time>2021-08-14T06:15:10Z</time>
      </trkpt>
      <trkpt lat="46.18264" lon="3.1606">
        <ele>413.5</ele>
        <time>2021-08-14T06:15:11Z</time>
      </trkpt>
      <trkpt lat="46.18261" lon="3.16064">
        <ele>413.5</ele>
        <time>2021-08-14T06:15:12Z</time>
      </trkpt>
      <trkpt lat="46.1826" lon="3.16068">
        <ele>413.5</ele>
        <time>2021-08-14T06:15:13Z</time>
      </trkpt>
      <trkpt lat="46.18259" lon="3.16073">
        <ele>413.02</ele>
        <time>2021-08-14T06:15:14Z</time>
      </trkpt>
      <trkpt lat="46.18257" lon="3.16077">
        <ele>413.02</ele>
        <time>2021-08-14T06:15:15Z</time>
      </trkpt>
      <trkpt lat="46.18255" lon="3.16081">
        <ele>413.02</ele>
        <time>2021-08-14T06:15:16Z</time>
      </trkpt>
      <trkpt lat="46.18251" lon="3.16089">
        <ele>412.54</ele>
        <time>2021-08-14T06:15:18Z</time>
      </trkpt>
      <trkpt lat="46.18247" lon="3.1609">
        <ele>412.54</ele>
        <time>2021-08-14T06:15:19Z</time>
      </trkpt>
      <trkpt lat="46.18244" lon="3.16088">
        <ele>412.54</ele>
        <time>2021-08-14T06:15:20Z</time>
      </trkpt>
      <trkpt lat="46.18242" lon="3.16085">
        <ele>412.54</ele>
        <time>2021-08-14T06:15:21Z</time>
      </trkpt>
      <trkpt lat="46.18241" lon="3.16081">
        <ele>412.54</ele>
        <time>2021-08-14T06:15:22Z</time>
      </trkpt>
      <trkpt lat="46.1824" lon="3.16077">
        <ele>412.54</ele>
        <time>2021-08-14T06:15:23Z</time>
      </trkpt>
      <trkpt lat="46.18238" lon="3.16072">
        <ele>412.54</ele>
        <time>2021-08-14T06:15:24Z</time>
      </trkpt>
      <trkpt lat="46.18237" lon="3.16068">
        <ele>412.54</ele>
        <time>2021-08-14T06:15:25Z</time>
      </trkpt>
      <trkpt lat="46.18224" lon="3.16027">
        <ele>413.5</ele>
        <time>2021-08-14T06:15:33Z</time>
      </trkpt>
      <trkpt lat="46.18204" lon="3.15984">
        <ele>413.98</ele>
        <time>2021-08-14T06:15:42Z</time>
      </trkpt>
      <trkpt lat="46.18181" lon="3.15935">
        <ele>413.98</ele>
        <time>2021-08-14T06:15:52Z</time>
      </trkpt>
      <trkpt lat="46.18178" lon="3.15933">
        <ele>413.98</ele>
        <time>2021-08-14T06:15:53Z</time>
      </trkpt>
      <trkpt lat="46.18175" lon="3.15932">
        <ele>413.98</ele>
        <time>2021-08-14T06:15:54Z</time>
      </trkpt>
      <trkpt lat="46.18171" lon="3.15934">
        <ele>413.98</ele>
        <time>2021-08-14T06:15:55Z</time>
      </trkpt>
      <trkpt lat="46.18168" lon="3.15937">
        <ele>413.98</ele>
        <time>2021-08-14T06:15:56Z</time>
      </trkpt>
      <trkpt lat="46.18165" lon="3.1594">
        <ele>413.02</ele>
        <time>2021-08-14T06:15:57Z</time>
      </trkpt>
      <trkpt lat="46.18141" lon="3.15965">
        <ele>411.58</ele>
        <time>2021-08-14T06:16:03Z</time>
      </trkpt>
      <trkpt lat="46.18131" lon="3.15975">
        <ele>411.1</ele>
        <time>2021-08-14T06:16:05Z</time>
      </trkpt>
      <trkpt lat="46.18126" lon="3.15978">
        <ele>410.14</ele>
        <time>2021-08-14T06:16:06Z</time>
      </trkpt>
      <trkpt lat="46.1812" lon="3.15977">
        <ele>410.14</ele>
        <time>2021-08-14T06:16:07Z</time>
      </trkpt>
      <trkpt lat="46.18115" lon="3.15973">
        <ele>410.14</ele>
        <time>2021-08-14T06:16:08Z</time>
      </trkpt>
      <trkpt lat="46.18112" lon="3.15969">
        <ele>409.66</ele>
        <time>2021-08-14T06:16:09Z</time>
      </trkpt>
      <trkpt lat="46.18109" lon="3.15963">
        <ele>409.66</ele>
        <time>2021-08-14T06:16:10Z</time>
      </trkpt>
      <trkpt lat="46.18105" lon="3.15958">
        <ele>409.18</ele>
        <time>2021-08-14T06:16:11Z</time>
      </trkpt>
      <trkpt lat="46.18102" lon="3.15951">
        <ele>409.18</ele>
        <time>2021-08-14T06:16:12Z</time>
      </trkpt>
      <trkpt lat="46.18076" lon="3.15909">
        <ele>407.26</ele>
        <time>2021-08-14T06:16:19Z</time>
      </trkpt>
      <trkpt lat="46.1804" lon="3.15848">
        <ele>403.89</ele>
        <time>2021-08-14T06:16:28Z</time>
      </trkpt>
      <trkpt lat="46.18004" lon="3.15798">
        <ele>401.01</ele>
        <time>2021-08-14T06:16:35Z</time>
      </trkpt>
      <trkpt lat="46.1798" lon="3.15769">
        <ele>398.6</ele>
        <time>2021-08-14T06:16:39Z</time>
      </trkpt>
      <trkpt lat="46.17947" lon="3.15735">
        <ele>395.72</ele>
        <time>2021-08-14T06:16:44Z</time>
      </trkpt>
      <trkpt lat="46.1791" lon="3.15706">
        <ele>391.87</ele>
        <time>2021-08-14T06:16:49Z</time>
      </trkpt>
      <trkpt lat="46.17888" lon="3.15689">
        <ele>388.99</ele>
        <time>2021-08-14T06:16:52Z</time>
      </trkpt>
      <trkpt lat="46.17858" lon="3.15666">
        <ele>385.63</ele>
        <time>2021-08-14T06:16:56Z</time>
      </trkpt>
      <trkpt lat="46.17831" lon="3.15636">
        <ele>382.26</ele>
        <time>2021-08-14T06:17:00Z</time>
      </trkpt>
      <trkpt lat="46.1781" lon="3.15613">
        <ele>379.38</ele>
        <time>2021-08-14T06:17:03Z</time>
      </trkpt>
      <trkpt lat="46.17774" lon="3.1558">
        <ele>376.01</ele>
        <time>2021-08-14T06:17:08Z</time>
      </trkpt>
      <trkpt lat="46.1773" lon="3.15546">
        <ele>372.65</ele>
        <time>2021-08-14T06:17:14Z</time>
      </trkpt>
      <trkpt lat="46.17692" lon="3.15522">
        <ele>369.28</ele>
        <time>2021-08-14T06:17:19Z</time>
      </trkpt>
      <trkpt lat="46.17653" lon="3.15497">
        <ele>366.4</ele>
        <time>2021-08-14T06:17:24Z</time>
      </trkpt>
      <trkpt lat="46.1762" lon="3.15475">
        <ele>364</ele>
        <time>2021-08-14T06:17:28Z</time>
      </trkpt>
      <trkpt lat="46.17572" lon="3.15433">
        <ele>361.11</ele>
        <time>2021-08-14T06:17:35Z</time>
      </trkpt>
      <trkpt lat="46.1755" lon="3.15414">
        <ele>360.15</ele>
        <time>2021-08-14T06:17:39Z</time>
      </trkpt>
      <trkpt lat="46.17546" lon="3.15409">
        <ele>359.67</ele>
        <time>2021-08-14T06:17:40Z</time>
      </trkpt>
      <trkpt lat="46.17539" lon="3.15399">
        <ele>359.67</ele>
        <time>2021-08-14T06:17:42Z</time>
      </trkpt>
      <trkpt lat="46.17535" lon="3.15396">
        <ele>359.19</ele>
        <time>2021-08-14T06:17:43Z</time>
      </trkpt>
      <trkpt lat="46.17529" lon="3.15395">
        <ele>358.71</ele>
        <time>2021-08-14T06:17:44Z</time>
      </trkpt>
      <trkpt lat="46.17524" lon="3.15396">
        <ele>358.23</ele>
        <time>2021-08-14T06:17:45Z</time>
      </trkpt>
      <trkpt lat="46.17518" lon="3.15397">
        <ele>357.27</ele>
        <time>2021-08-14T06:17:46Z</time>
      </trkpt>
      <trkpt lat="46.17512" lon="3.15399">
        <ele>356.79</ele>
        <time>2021-08-14T06:17:47Z</time>
      </trkpt>
      <trkpt lat="46.17506" lon="3.154">
        <ele>356.79</ele>
        <time>2021-08-14T06:17:48Z</time>
      </trkpt>
      <trkpt lat="46.175" lon="3.15403">
        <ele>355.83</ele>
        <time>2021-08-14T06:17:49Z</time>
      </trkpt>
      <trkpt lat="46.17456" lon="3.15416">
        <ele>353.42</ele>
        <time>2021-08-14T06:17:56Z</time>
      </trkpt>
      <trkpt lat="46.17397" lon="3.15433">
        <ele>350.54</ele>
        <time>2021-08-14T06:18:05Z</time>
      </trkpt>
      <trkpt lat="46.17348" lon="3.15449">
        <ele>346.69</ele>
        <time>2021-08-14T06:18:12Z</time>
      </trkpt>
      <trkpt lat="46.17309" lon="3.15467">
        <ele>342.85</ele>
        <time>2021-08-14T06:18:17Z</time>
      </trkpt>
      <trkpt lat="46.17274" lon="3.15483">
        <ele>339.48</ele>
        <time>2021-08-14T06:18:21Z</time>
      </trkpt>
      <trkpt lat="46.17265" lon="3.15486">
        <ele>339</ele>
        <time>2021-08-14T06:18:22Z</time>
      </trkpt>
      <trkpt lat="46.17255" lon="3.15487">
        <ele>338.04</ele>
        <time>2021-08-14T06:18:23Z</time>
      </trkpt>
      <trkpt lat="46.17246" lon="3.15488">
        <ele>337.56</ele>
        <time>2021-08-14T06:18:24Z</time>
      </trkpt>
      <trkpt lat="46.17203" lon="3.15488">
        <ele>335.16</ele>
        <time>2021-08-14T06:18:29Z</time>
      </trkpt>
      <trkpt lat="46.17196" lon="3.15491">
        <ele>335.16</ele>
        <time>2021-08-14T06:18:30Z</time>
      </trkpt>
      <trkpt lat="46.1719" lon="3.15494">
        <ele>334.68</ele>
        <time>2021-08-14T06:18:31Z</time>
      </trkpt>
      <trkpt lat="46.17184" lon="3.15497">
        <ele>334.68</ele>
        <time>2021-08-14T06:18:32Z</time>
      </trkpt>
      <trkpt lat="46.17178" lon="3.15499">
        <ele>334.68</ele>
        <time>2021-08-14T06:18:33Z</time>
      </trkpt>
      <trkpt lat="46.17173" lon="3.155">
        <ele>334.68</ele>
        <time>2021-08-14T06:18:34Z</time>
      </trkpt>
      <trkpt lat="46.17167" lon="3.155">
        <ele>333.71</ele>
        <time>2021-08-14T06:18:35Z</time>
      </trkpt>
      <trkpt lat="46.1716" lon="3.155">
        <ele>333.71</ele>
        <time>2021-08-14T06:18:36Z</time>
      </trkpt>
      <trkpt lat="46.17154" lon="3.155">
        <ele>333.71</ele>
        <time>2021-08-14T06:18:37Z</time>
      </trkpt>
      <trkpt lat="46.17141" lon="3.15502">
        <ele>333.23</ele>
        <time>2021-08-14T06:18:39Z</time>
      </trkpt>
      <trkpt lat="46.17086" lon="3.15518">
        <ele>331.31</ele>
        <time>2021-08-14T06:18:47Z</time>
      </trkpt>
      <trkpt lat="46.17033" lon="3.1553">
        <ele>330.35</ele>
        <time>2021-08-14T06:18:54Z</time>
      </trkpt>
      <trkpt lat="46.17026" lon="3.1553">
        <ele>329.87</ele>
        <time>2021-08-14T06:18:55Z</time>
      </trkpt>
      <trkpt lat="46.16998" lon="3.15528">
        <ele>329.87</ele>
        <time>2021-08-14T06:18:59Z</time>
      </trkpt>
      <trkpt lat="46.16992" lon="3.1553">
        <ele>329.87</ele>
        <time>2021-08-14T06:19:00Z</time>
      </trkpt>
      <trkpt lat="46.16988" lon="3.15534">
        <ele>329.87</ele>
        <time>2021-08-14T06:19:01Z</time>
      </trkpt>
      <trkpt lat="46.16984" lon="3.1554">
        <ele>329.87</ele>
        <time>2021-08-14T06:19:02Z</time>
      </trkpt>
      <trkpt lat="46.16981" lon="3.15547">
        <ele>329.87</ele>
        <time>2021-08-14T06:19:03Z</time>
      </trkpt>
      <trkpt lat="46.16979" lon="3.15554">
        <ele>329.87</ele>
        <time>2021-08-14T06:19:04Z</time>
      </trkpt>
      <trkpt lat="46.16976" lon="3.15561">
        <ele>329.87</ele>
        <time>2021-08-14T06:19:05Z</time>
      </trkpt>
      <trkpt lat="46.16957" lon="3.1563">
        <ele>329.87</ele>
        <time>2021-08-14T06:19:15Z</time>
      </trkpt>
      <trkpt lat="46.16938" lon="3.15695">
        <ele>329.87</ele>
        <time>2021-08-14T06:19:25Z</time>
      </trkpt>
      <trkpt lat="46.16934" lon="3.15707">
        <ele>330.83</ele>
        <time>2021-08-14T06:19:27Z</time>
      </trkpt>
      <trkpt lat="46.16919" lon="3.15756">
        <ele>331.31</ele>
        <time>2021-08-14T06:19:36Z</time>
      </trkpt>
      <trkpt lat="46.16908" lon="3.15795">
        <ele>332.27</ele>
        <time>2021-08-14T06:19:44Z</time>
      </trkpt>
      <trkpt lat="46.169" lon="3.15824">
        <ele>332.75</ele>
        <time>2021-08-14T06:19:51Z</time>
      </trkpt>
      <trkpt lat="46.16891" lon="3.15846">
        <ele>333.23</ele>
        <time>2021-08-14T06:19:57Z</time>
      </trkpt>
      <trkpt lat="46.16879" lon="3.15887">
        <ele>334.68</ele>
        <time>2021-08-14T06:20:07Z</time>
      </trkpt>
      <trkpt lat="46.16872" lon="3.15914">
        <ele>335.16</ele>
        <time>2021-08-14T06:20:14Z</time>
      </trkpt>
      <trkpt lat="46.16863" lon="3.1595">
        <ele>336.12</ele>
        <time>2021-08-14T06:20:23Z</time>
      </trkpt>
      <trkpt lat="46.1686" lon="3.1598">
        <ele>337.08</ele>
        <time>2021-08-14T06:20:31Z</time>
      </trkpt>
      <trkpt lat="46.16857" lon="3.16003">
        <ele>338.52</ele>
        <time>2021-08-14T06:20:38Z</time>
      </trkpt>
      <trkpt lat="46.16856" lon="3.16025">
        <ele>339.48</ele>
        <time>2021-08-14T06:20:46Z</time>
      </trkpt>
      <trkpt lat="46.16855" lon="3.16029">
        <ele>339.48</ele>
        <time>2021-08-14T06:20:48Z</time>
      </trkpt>
      <trkpt lat="46.16846" lon="3.16037">
        <ele>340.44</ele>
        <time>2021-08-14T06:20:55Z</time>
      </trkpt>
      <trkpt lat="46.16836" lon="3.16048">
        <ele>341.41</ele>
        <time>2021-08-14T06:21:04Z</time>
      </trkpt>
      <trkpt lat="46.1683" lon="3.16055">
        <ele>342.37</ele>
        <time>2021-08-14T06:21:11Z</time>
      </trkpt>
      <trkpt lat="46.16822" lon="3.16064">
        <ele>344.29</ele>
        <time>2021-08-14T06:21:19Z</time>
      </trkpt>
      <trkpt lat="46.16813" lon="3.16072">
        <ele>345.25</ele>
        <time>2021-08-14T06:21:28Z</time>
      </trkpt>
      <trkpt lat="46.16809" lon="3.16075">
        <ele>345.73</ele>
        <time>2021-08-14T06:21:31Z</time>
      </trkpt>
      <trkpt lat="46.16808" lon="3.16077">
        <ele>346.21</ele>
        <time>2021-08-14T06:21:32Z</time>
      </trkpt>
      <trkpt lat="46.16807" lon="3.16078">
        <ele>346.69</ele>
        <time>2021-08-14T06:21:33Z</time>
      </trkpt>
      <trkpt lat="46.16799" lon="3.16086">
        <ele>347.65</ele>
        <time>2021-08-14T06:21:41Z</time>
      </trkpt>
      <trkpt lat="46.16798" lon="3.16087">
        <ele>348.13</ele>
        <time>2021-08-14T06:21:42Z</time>
      </trkpt>
      <trkpt lat="46.16797" lon="3.16088">
        <ele>348.13</ele>
        <time>2021-08-14T06:21:43Z</time>
      </trkpt>
      <trkpt lat="46.16789" lon="3.161">
        <ele>349.1</ele>
        <time>2021-08-14T06:21:52Z</time>
      </trkpt>
      <trkpt lat="46.16783" lon="3.16108">
        <ele>349.58</ele>
        <time>2021-08-14T06:21:58Z</time>
      </trkpt>
      <trkpt lat="46.16783" lon="3.16109">
        <ele>350.54</ele>
        <time>2021-08-14T06:21:59Z</time>
      </trkpt>
      <trkpt lat="46.16782" lon="3.1611">
        <ele>350.06</ele>
        <time>2021-08-14T06:22:00Z</time>
      </trkpt>
      <trkpt lat="46.16774" lon="3.16126">
        <ele>351.5</ele>
        <time>2021-08-14T06:22:11Z</time>
      </trkpt>
      <trkpt lat="46.16769" lon="3.16135">
        <ele>352.94</ele>
        <time>2021-08-14T06:22:17Z</time>
      </trkpt>
      <trkpt lat="46.16769" lon="3.16137">
        <ele>352.94</ele>
        <time>2021-08-14T06:22:18Z</time>
      </trkpt>
      <trkpt lat="46.16768" lon="3.16139">
        <ele>352.94</ele>
        <time>2021-08-14T06:22:19Z</time>
      </trkpt>
      <trkpt lat="46.16768" lon="3.1614">
        <ele>353.42</ele>
        <time>2021-08-14T06:22:20Z</time>
      </trkpt>
      <trkpt lat="46.16767" lon="3.16142">
        <ele>353.42</ele>
        <time>2021-08-14T06:22:21Z</time>
      </trkpt>
      <trkpt lat="46.16765" lon="3.16143">
        <ele>353.42</ele>
        <time>2021-08-14T06:22:26Z</time>
      </trkpt>
      <trkpt lat="46.16765" lon="3.16141">
        <ele>353.9</ele>
        <time>2021-08-14T06:22:27Z</time>
      </trkpt>
      <trkpt lat="46.16766" lon="3.16139">
        <ele>353.9</ele>
        <time>2021-08-14T06:22:28Z</time>
      </trkpt>
      <trkpt lat="46.16766" lon="3.16136">
        <ele>353.9</ele>
        <time>2021-08-14T06:22:29Z</time>
      </trkpt>
      <trkpt lat="46.16766" lon="3.16133">
        <ele>353.9</ele>
        <time>2021-08-14T06:22:30Z</time>
      </trkpt>
      <trkpt lat="46.16764" lon="3.16128">
        <ele>353.9</ele>
        <time>2021-08-14T06:22:31Z</time>
      </trkpt>
      <trkpt lat="46.16762" lon="3.16125">
        <ele>352.46</ele>
        <time>2021-08-14T06:22:32Z</time>
      </trkpt>
      <trkpt lat="46.16759" lon="3.16122">
        <ele>352.46</ele>
        <time>2021-08-14T06:22:33Z</time>
      </trkpt>
      <trkpt lat="46.16757" lon="3.16118">
        <ele>352.46</ele>
        <time>2021-08-14T06:22:34Z</time>
      </trkpt>
      <trkpt lat="46.16728" lon="3.16086">
        <ele>351.02</ele>
        <time>2021-08-14T06:22:43Z</time>
      </trkpt>
      <trkpt lat="46.16692" lon="3.16047">
        <ele>349.58</ele>
        <time>2021-08-14T06:22:52Z</time>
      </trkpt>
      <trkpt lat="46.16685" lon="3.16038">
        <ele>349.58</ele>
        <time>2021-08-14T06:22:54Z</time>
      </trkpt>
      <trkpt lat="46.16672" lon="3.16025">
        <ele>349.1</ele>
        <time>2021-08-14T06:22:57Z</time>
      </trkpt>
      <trkpt lat="46.16638" lon="3.15989">
        <ele>345.25</ele>
        <time>2021-08-14T06:23:04Z</time>
      </trkpt>
      <trkpt lat="46.16609" lon="3.15957">
        <ele>342.85</ele>
        <time>2021-08-14T06:23:09Z</time>
      </trkpt>
      <trkpt lat="46.16585" lon="3.15931">
        <ele>339.96</ele>
        <time>2021-08-14T06:23:13Z</time>
      </trkpt>
      <trkpt lat="46.16535" lon="3.15876">
        <ele>337.08</ele>
        <time>2021-08-14T06:23:21Z</time>
      </trkpt>
      <trkpt lat="46.16483" lon="3.15818">
        <ele>334.68</ele>
        <time>2021-08-14T06:23:30Z</time>
      </trkpt>
      <trkpt lat="46.16461" lon="3.15794">
        <ele>333.23</ele>
        <time>2021-08-14T06:23:34Z</time>
      </trkpt>
      <trkpt lat="46.16445" lon="3.15778">
        <ele>332.27</ele>
        <time>2021-08-14T06:23:37Z</time>
      </trkpt>
      <trkpt lat="46.16439" lon="3.15776">
        <ele>332.27</ele>
        <time>2021-08-14T06:23:38Z</time>
      </trkpt>
      <trkpt lat="46.16434" lon="3.15777">
        <ele>331.79</ele>
        <time>2021-08-14T06:23:39Z</time>
      </trkpt>
      <trkpt lat="46.16428" lon="3.15781">
        <ele>331.79</ele>
        <time>2021-08-14T06:23:40Z</time>
      </trkpt>
      <trkpt lat="46.16423" lon="3.15786">
        <ele>331.31</ele>
        <time>2021-08-14T06:23:41Z</time>
      </trkpt>
      <trkpt lat="46.16399" lon="3.15807">
        <ele>327.95</ele>
        <time>2021-08-14T06:23:45Z</time>
      </trkpt>
      <trkpt lat="46.16392" lon="3.15813">
        <ele>327.95</ele>
        <time>2021-08-14T06:23:46Z</time>
      </trkpt>
      <trkpt lat="46.1637" lon="3.15831">
        <ele>325.54</ele>
        <time>2021-08-14T06:23:49Z</time>
      </trkpt>
      <trkpt lat="46.16362" lon="3.15835">
        <ele>324.58</ele>
        <time>2021-08-14T06:23:50Z</time>
      </trkpt>
      <trkpt lat="46.16353" lon="3.15839">
        <ele>323.14</ele>
        <time>2021-08-14T06:23:51Z</time>
      </trkpt>
      <trkpt lat="46.16344" lon="3.15843">
        <ele>323.14</ele>
        <time>2021-08-14T06:23:52Z</time>
      </trkpt>
      <trkpt lat="46.16335" lon="3.15844">
        <ele>322.18</ele>
        <time>2021-08-14T06:23:53Z</time>
      </trkpt>
      <trkpt lat="46.16326" lon="3.15844">
        <ele>320.74</ele>
        <time>2021-08-14T06:23:54Z</time>
      </trkpt>
      <trkpt lat="46.16317" lon="3.15843">
        <ele>320.26</ele>
        <time>2021-08-14T06:23:55Z</time>
      </trkpt>
      <trkpt lat="46.163" lon="3.1584">
        <ele>318.33</ele>
        <time>2021-08-14T06:23:57Z</time>
      </trkpt>
      <trkpt lat="46.16293" lon="3.15837">
        <ele>317.85</ele>
        <time>2021-08-14T06:23:58Z</time>
      </trkpt>
      <trkpt lat="46.16286" lon="3.15835">
        <ele>316.89</ele>
        <time>2021-08-14T06:23:59Z</time>
      </trkpt>
      <trkpt lat="46.16279" lon="3.15835">
        <ele>316.89</ele>
        <time>2021-08-14T06:24:00Z</time>
      </trkpt>
      <trkpt lat="46.16272" lon="3.15836">
        <ele>315.45</ele>
        <time>2021-08-14T06:24:01Z</time>
      </trkpt>
      <trkpt lat="46.16266" lon="3.15835">
        <ele>314.49</ele>
        <time>2021-08-14T06:24:02Z</time>
      </trkpt>
      <trkpt lat="46.16261" lon="3.15831">
        <ele>314.01</ele>
        <time>2021-08-14T06:24:03Z</time>
      </trkpt>
      <trkpt lat="46.16258" lon="3.15823">
        <ele>313.53</ele>
        <time>2021-08-14T06:24:04Z</time>
      </trkpt>
      <trkpt lat="46.16256" lon="3.15813">
        <ele>312.57</ele>
        <time>2021-08-14T06:24:05Z</time>
      </trkpt>
      <trkpt lat="46.16256" lon="3.15803">
        <ele>312.09</ele>
        <time>2021-08-14T06:24:06Z</time>
      </trkpt>
      <trkpt lat="46.16255" lon="3.15793">
        <ele>311.6</ele>
        <time>2021-08-14T06:24:07Z</time>
      </trkpt>
      <trkpt lat="46.16247" lon="3.15725">
        <ele>310.16</ele>
        <time>2021-08-14T06:24:14Z</time>
      </trkpt>
      <trkpt lat="46.16238" lon="3.15672">
        <ele>310.16</ele>
        <time>2021-08-14T06:24:21Z</time>
      </trkpt>
      <trkpt lat="46.1623" lon="3.15631">
        <ele>310.64</ele>
        <time>2021-08-14T06:24:28Z</time>
      </trkpt>
      <trkpt lat="46.16224" lon="3.15611">
        <ele>310.16</ele>
        <time>2021-08-14T06:24:34Z</time>
      </trkpt>
      <trkpt lat="46.16209" lon="3.15591">
        <ele>310.16</ele>
        <time>2021-08-14T06:24:41Z</time>
      </trkpt>
      <trkpt lat="46.16191" lon="3.15585">
        <ele>310.16</ele>
        <time>2021-08-14T06:24:47Z</time>
      </trkpt>
      <trkpt lat="46.16175" lon="3.15579">
        <ele>311.6</ele>
        <time>2021-08-14T06:24:54Z</time>
      </trkpt>
      <trkpt lat="46.1617" lon="3.15578">
        <ele>312.57</ele>
        <time>2021-08-14T06:24:57Z</time>
      </trkpt>
      <trkpt lat="46.16168" lon="3.15578">
        <ele>312.57</ele>
        <time>2021-08-14T06:24:58Z</time>
      </trkpt>
      <trkpt lat="46.16167" lon="3.15578">
        <ele>312.57</ele>
        <time>2021-08-14T06:24:59Z</time>
      </trkpt>
      <trkpt lat="46.16158" lon="3.15578">
        <ele>313.53</ele>
        <time>2021-08-14T06:25:08Z</time>
      </trkpt>
      <trkpt lat="46.1615" lon="3.15577">
        <ele>314.97</ele>
        <time>2021-08-14T06:25:17Z</time>
      </trkpt>
      <trkpt lat="46.16141" lon="3.15576">
        <ele>316.41</ele>
        <time>2021-08-14T06:25:26Z</time>
      </trkpt>
      <trkpt lat="46.16133" lon="3.15574">
        <ele>317.85</ele>
        <time>2021-08-14T06:25:34Z</time>
      </trkpt>
      <trkpt lat="46.16132" lon="3.15573">
        <ele>317.85</ele>
        <time>2021-08-14T06:25:35Z</time>
      </trkpt>
      <trkpt lat="46.16125" lon="3.15569">
        <ele>319.3</ele>
        <time>2021-08-14T06:25:44Z</time>
      </trkpt>
      <trkpt lat="46.16116" lon="3.15566">
        <ele>321.7</ele>
        <time>2021-08-14T06:25:55Z</time>
      </trkpt>
      <trkpt lat="46.16107" lon="3.15564">
        <ele>323.14</ele>
        <time>2021-08-14T06:26:05Z</time>
      </trkpt>
      <trkpt lat="46.16097" lon="3.15567">
        <ele>325.06</ele>
        <time>2021-08-14T06:26:17Z</time>
      </trkpt>
      <trkpt lat="46.1609" lon="3.15573">
        <ele>326.5</ele>
        <time>2021-08-14T06:26:27Z</time>
      </trkpt>
      <trkpt lat="46.16081" lon="3.15578">
        <ele>327.95</ele>
        <time>2021-08-14T06:26:36Z</time>
      </trkpt>
      <trkpt lat="46.1608" lon="3.15579">
        <ele>327.95</ele>
        <time>2021-08-14T06:26:37Z</time>
      </trkpt>
      <trkpt lat="46.16079" lon="3.1558">
        <ele>328.43</ele>
        <time>2021-08-14T06:26:38Z</time>
      </trkpt>
      <trkpt lat="46.1607" lon="3.15585">
        <ele>329.39</ele>
        <time>2021-08-14T06:26:46Z</time>
      </trkpt>
      <trkpt lat="46.16067" lon="3.15586">
        <ele>329.87</ele>
        <time>2021-08-14T06:26:53Z</time>
      </trkpt>
      <trkpt lat="46.1606" lon="3.15589">
        <ele>330.35</ele>
        <time>2021-08-14T06:26:59Z</time>
      </trkpt>
      <trkpt lat="46.16047" lon="3.15593">
        <ele>331.79</ele>
        <time>2021-08-14T06:27:07Z</time>
      </trkpt>
      <trkpt lat="46.16036" lon="3.15594">
        <ele>332.75</ele>
        <time>2021-08-14T06:27:15Z</time>
      </trkpt>
      <trkpt lat="46.16017" lon="3.15595">
        <ele>334.68</ele>
        <time>2021-08-14T06:27:25Z</time>
      </trkpt>
      <trkpt lat="46.15999" lon="3.15597">
        <ele>336.12</ele>
        <time>2021-08-14T06:27:34Z</time>
      </trkpt>
      <trkpt lat="46.1598" lon="3.15597">
        <ele>337.08</ele>
        <time>2021-08-14T06:27:43Z</time>
      </trkpt>
      <trkpt lat="46.15976" lon="3.15596">
        <ele>337.56</ele>
        <time>2021-08-14T06:27:45Z</time>
      </trkpt>
      <trkpt lat="46.15959" lon="3.15599">
        <ele>338.04</ele>
        <time>2021-08-14T06:27:53Z</time>
      </trkpt>
      <trkpt lat="46.15941" lon="3.15601">
        <ele>338.52</ele>
        <time>2021-08-14T06:28:00Z</time>
      </trkpt>
      <trkpt lat="46.15916" lon="3.15602">
        <ele>339.96</ele>
        <time>2021-08-14T06:28:10Z</time>
      </trkpt>
      <trkpt lat="46.1589" lon="3.15602">
        <ele>340.44</ele>
        <time>2021-08-14T06:28:19Z</time>
      </trkpt>
      <trkpt lat="46.15863" lon="3.15602">
        <ele>340.44</ele>
        <time>2021-08-14T06:28:26Z</time>
      </trkpt>
      <trkpt lat="46.15841" lon="3.156">
        <ele>340.92</ele>
        <time>2021-08-14T06:28:31Z</time>
      </trkpt>
      <trkpt lat="46.15837" lon="3.156">
        <ele>340.92</ele>
        <time>2021-08-14T06:28:32Z</time>
      </trkpt>
      <trkpt lat="46.15799" lon="3.15595">
        <ele>340.92</ele>
        <time>2021-08-14T06:28:42Z</time>
      </trkpt>
      <trkpt lat="46.15776" lon="3.15595">
        <ele>342.37</ele>
        <time>2021-08-14T06:28:50Z</time>
      </trkpt>
      <trkpt lat="46.15755" lon="3.15594">
        <ele>343.81</ele>
        <time>2021-08-14T06:29:00Z</time>
      </trkpt>
      <trkpt lat="46.15737" lon="3.15591">
        <ele>345.25</ele>
        <time>2021-08-14T06:29:09Z</time>
      </trkpt>
      <trkpt lat="46.15715" lon="3.15589">
        <ele>346.69</ele>
        <time>2021-08-14T06:29:20Z</time>
      </trkpt>
      <trkpt lat="46.15694" lon="3.15587">
        <ele>348.62</ele>
        <time>2021-08-14T06:29:30Z</time>
      </trkpt>
      <trkpt lat="46.1567" lon="3.15586">
        <ele>350.54</ele>
        <time>2021-08-14T06:29:42Z</time>
      </trkpt>
      <trkpt lat="46.15651" lon="3.15584">
        <ele>352.46</ele>
        <time>2021-08-14T06:29:52Z</time>
      </trkpt>
      <trkpt lat="46.15631" lon="3.15582">
        <ele>353.9</ele>
        <time>2021-08-14T06:30:02Z</time>
      </trkpt>
      <trkpt lat="46.15614" lon="3.15581">
        <ele>354.86</ele>
        <time>2021-08-14T06:30:10Z</time>
      </trkpt>
      <trkpt lat="46.15596" lon="3.15581">
        <ele>356.31</ele>
        <time>2021-08-14T06:30:19Z</time>
      </trkpt>
      <trkpt lat="46.15576" lon="3.15583">
        <ele>357.75</ele>
        <time>2021-08-14T06:30:27Z</time>
      </trkpt>
      <trkpt lat="46.15554" lon="3.15585">
        <ele>358.23</ele>
        <time>2021-08-14T06:30:36Z</time>
      </trkpt>
      <trkpt lat="46.15523" lon="3.15587">
        <ele>359.19</ele>
        <time>2021-08-14T06:30:48Z</time>
      </trkpt>
      <trkpt lat="46.155" lon="3.15585">
        <ele>360.15</ele>
        <time>2021-08-14T06:30:57Z</time>
      </trkpt>
      <trkpt lat="46.15484" lon="3.15577">
        <ele>361.11</ele>
        <time>2021-08-14T06:31:04Z</time>
      </trkpt>
      <trkpt lat="46.15466" lon="3.15564">
        <ele>362.07</ele>
        <time>2021-08-14T06:31:12Z</time>
      </trkpt>
      <trkpt lat="46.1545" lon="3.15547">
        <ele>363.04</ele>
        <time>2021-08-14T06:31:19Z</time>
      </trkpt>
      <trkpt lat="46.1543" lon="3.15523">
        <ele>364.48</ele>
        <time>2021-08-14T06:31:28Z</time>
      </trkpt>
      <trkpt lat="46.15417" lon="3.15503">
        <ele>364.48</ele>
        <time>2021-08-14T06:31:35Z</time>
      </trkpt>
      <trkpt lat="46.15404" lon="3.15508">
        <ele>365.44</ele>
        <time>2021-08-14T06:31:40Z</time>
      </trkpt>
      <trkpt lat="46.15392" lon="3.15534">
        <ele>365.92</ele>
        <time>2021-08-14T06:31:49Z</time>
      </trkpt>
      <trkpt lat="46.15384" lon="3.15559">
        <ele>367.36</ele>
        <time>2021-08-14T06:31:57Z</time>
      </trkpt>
      <trkpt lat="46.15376" lon="3.15585">
        <ele>368.8</ele>
        <time>2021-08-14T06:32:05Z</time>
      </trkpt>
      <trkpt lat="46.15362" lon="3.15617">
        <ele>369.76</ele>
        <time>2021-08-14T06:32:15Z</time>
      </trkpt>
      <trkpt lat="46.15346" lon="3.1563">
        <ele>370.73</ele>
        <time>2021-08-14T06:32:22Z</time>
      </trkpt>
      <trkpt lat="46.15318" lon="3.15641">
        <ele>371.69</ele>
        <time>2021-08-14T06:32:33Z</time>
      </trkpt>
      <trkpt lat="46.15293" lon="3.15648">
        <ele>373.13</ele>
        <time>2021-08-14T06:32:43Z</time>
      </trkpt>
      <trkpt lat="46.15275" lon="3.15649">
        <ele>374.57</ele>
        <time>2021-08-14T06:32:50Z</time>
      </trkpt>
      <trkpt lat="46.15247" lon="3.15653">
        <ele>375.05</ele>
        <time>2021-08-14T06:33:00Z</time>
      </trkpt>
      <trkpt lat="46.15217" lon="3.15653">
        <ele>376.49</ele>
        <time>2021-08-14T06:33:11Z</time>
      </trkpt>
      <trkpt lat="46.15192" lon="3.1565">
        <ele>377.94</ele>
        <time>2021-08-14T06:33:20Z</time>
      </trkpt>
      <trkpt lat="46.15165" lon="3.15645">
        <ele>379.86</ele>
        <time>2021-08-14T06:33:30Z</time>
      </trkpt>
      <trkpt lat="46.15145" lon="3.15638">
        <ele>380.34</ele>
        <time>2021-08-14T06:33:38Z</time>
      </trkpt>
      <trkpt lat="46.15124" lon="3.1563">
        <ele>381.78</ele>
        <time>2021-08-14T06:33:46Z</time>
      </trkpt>
      <trkpt lat="46.151" lon="3.15623">
        <ele>382.74</ele>
        <time>2021-08-14T06:33:55Z</time>
      </trkpt>
      <trkpt lat="46.15078" lon="3.15615">
        <ele>383.7</ele>
        <time>2021-08-14T06:34:03Z</time>
      </trkpt>
      <trkpt lat="46.15056" lon="3.15606">
        <ele>384.66</ele>
        <time>2021-08-14T06:34:10Z</time>
      </trkpt>
      <trkpt lat="46.15026" lon="3.15591">
        <ele>385.15</ele>
        <time>2021-08-14T06:34:19Z</time>
      </trkpt>
      <trkpt lat="46.15008" lon="3.1558">
        <ele>386.11</ele>
        <time>2021-08-14T06:34:24Z</time>
      </trkpt>
      <trkpt lat="46.14975" lon="3.15563">
        <ele>387.07</ele>
        <time>2021-08-14T06:34:33Z</time>
      </trkpt>
      <trkpt lat="46.14934" lon="3.15549">
        <ele>387.55</ele>
        <time>2021-08-14T06:34:43Z</time>
      </trkpt>
      <trkpt lat="46.14918" lon="3.15541">
        <ele>387.55</ele>
        <time>2021-08-14T06:34:47Z</time>
      </trkpt>
      <trkpt lat="46.1491" lon="3.15535">
        <ele>387.55</ele>
        <time>2021-08-14T06:34:49Z</time>
      </trkpt>
      <trkpt lat="46.14907" lon="3.15531">
        <ele>387.55</ele>
        <time>2021-08-14T06:34:50Z</time>
      </trkpt>
      <trkpt lat="46.14896" lon="3.15518">
        <ele>387.55</ele>
        <time>2021-08-14T06:34:53Z</time>
      </trkpt>
      <trkpt lat="46.14892" lon="3.15514">
        <ele>387.55</ele>
        <time>2021-08-14T06:34:54Z</time>
      </trkpt>
      <trkpt lat="46.14856" lon="3.15482">
        <ele>387.55</ele>
        <time>2021-08-14T06:35:03Z</time>
      </trkpt>
      <trkpt lat="46.14817" lon="3.15447">
        <ele>387.55</ele>
        <time>2021-08-14T06:35:12Z</time>
      </trkpt>
      <trkpt lat="46.14773" lon="3.15407">
        <ele>386.11</ele>
        <time>2021-08-14T06:35:21Z</time>
      </trkpt>
      <trkpt lat="46.14712" lon="3.15356">
        <ele>385.15</ele>
        <time>2021-08-14T06:35:32Z</time>
      </trkpt>
      <trkpt lat="46.14664" lon="3.15298">
        <ele>384.18</ele>
        <time>2021-08-14T06:35:42Z</time>
      </trkpt>
      <trkpt lat="46.14624" lon="3.15242">
        <ele>383.22</ele>
        <time>2021-08-14T06:35:51Z</time>
      </trkpt>
      <trkpt lat="46.14575" lon="3.15182">
        <ele>381.3</ele>
        <time>2021-08-14T06:36:01Z</time>
      </trkpt>
      <trkpt lat="46.14516" lon="3.1511">
        <ele>379.86</ele>
        <time>2021-08-14T06:36:13Z</time>
      </trkpt>
      <trkpt lat="46.14478" lon="3.15058">
        <ele>377.94</ele>
        <time>2021-08-14T06:36:21Z</time>
      </trkpt>
      <trkpt lat="46.14434" lon="3.1499">
        <ele>376.49</ele>
        <time>2021-08-14T06:36:31Z</time>
      </trkpt>
      <trkpt lat="46.14429" lon="3.14982">
        <ele>376.01</ele>
        <time>2021-08-14T06:36:32Z</time>
      </trkpt>
      <trkpt lat="46.14405" lon="3.1494">
        <ele>376.01</ele>
        <time>2021-08-14T06:36:39Z</time>
      </trkpt>
      <trkpt lat="46.14393" lon="3.14912">
        <ele>375.53</ele>
        <time>2021-08-14T06:36:45Z</time>
      </trkpt>
      <trkpt lat="46.1438" lon="3.14871">
        <ele>375.53</ele>
        <time>2021-08-14T06:36:52Z</time>
      </trkpt>
      <trkpt lat="46.14356" lon="3.14823">
        <ele>374.09</ele>
        <time>2021-08-14T06:37:00Z</time>
      </trkpt>
      <trkpt lat="46.14325" lon="3.14762">
        <ele>371.21</ele>
        <time>2021-08-14T06:37:08Z</time>
      </trkpt>
      <trkpt lat="46.14297" lon="3.14694">
        <ele>368.8</ele>
        <time>2021-08-14T06:37:16Z</time>
      </trkpt>
      <trkpt lat="46.14271" lon="3.14621">
        <ele>365.92</ele>
        <time>2021-08-14T06:37:24Z</time>
      </trkpt>
      <trkpt lat="46.14265" lon="3.14601">
        <ele>364.96</ele>
        <time>2021-08-14T06:37:26Z</time>
      </trkpt>
      <trkpt lat="46.14236" lon="3.14526">
        <ele>362.55</ele>
        <time>2021-08-14T06:37:34Z</time>
      </trkpt>
      <trkpt lat="46.14226" lon="3.14501">
        <ele>361.11</ele>
        <time>2021-08-14T06:37:37Z</time>
      </trkpt>
      <trkpt lat="46.14224" lon="3.14493">
        <ele>361.11</ele>
        <time>2021-08-14T06:37:38Z</time>
      </trkpt>
      <trkpt lat="46.14225" lon="3.14486">
        <ele>361.11</ele>
        <time>2021-08-14T06:37:39Z</time>
      </trkpt>
      <trkpt lat="46.14227" lon="3.1448">
        <ele>361.59</ele>
        <time>2021-08-14T06:37:40Z</time>
      </trkpt>
      <trkpt lat="46.14229" lon="3.14475">
        <ele>361.11</ele>
        <time>2021-08-14T06:37:41Z</time>
      </trkpt>
      <trkpt lat="46.14232" lon="3.14469">
        <ele>361.11</ele>
        <time>2021-08-14T06:37:42Z</time>
      </trkpt>
      <trkpt lat="46.14235" lon="3.14463">
        <ele>361.11</ele>
        <time>2021-08-14T06:37:43Z</time>
      </trkpt>
      <trkpt lat="46.14256" lon="3.14422">
        <ele>360.15</ele>
        <time>2021-08-14T06:37:50Z</time>
      </trkpt>
      <trkpt lat="46.1426" lon="3.14417">
        <ele>360.15</ele>
        <time>2021-08-14T06:37:51Z</time>
      </trkpt>
      <trkpt lat="46.14263" lon="3.14412">
        <ele>359.67</ele>
        <time>2021-08-14T06:37:52Z</time>
      </trkpt>
      <trkpt lat="46.14299" lon="3.14363">
        <ele>357.27</ele>
        <time>2021-08-14T06:38:01Z</time>
      </trkpt>
      <trkpt lat="46.1434" lon="3.14324">
        <ele>355.34</ele>
        <time>2021-08-14T06:38:09Z</time>
      </trkpt>
      <trkpt lat="46.14379" lon="3.14294">
        <ele>352.46</ele>
        <time>2021-08-14T06:38:15Z</time>
      </trkpt>
      <trkpt lat="46.14414" lon="3.14266">
        <ele>349.1</ele>
        <time>2021-08-14T06:38:20Z</time>
      </trkpt>
      <trkpt lat="46.14438" lon="3.14246">
        <ele>347.17</ele>
        <time>2021-08-14T06:38:24Z</time>
      </trkpt>
      <trkpt lat="46.14448" lon="3.14236">
        <ele>346.21</ele>
        <time>2021-08-14T06:38:27Z</time>
      </trkpt>
      <trkpt lat="46.14449" lon="3.14231">
        <ele>345.73</ele>
        <time>2021-08-14T06:38:28Z</time>
      </trkpt>
      <trkpt lat="46.14449" lon="3.14225">
        <ele>345.73</ele>
        <time>2021-08-14T06:38:29Z</time>
      </trkpt>
      <trkpt lat="46.14449" lon="3.14221">
        <ele>345.73</ele>
        <time>2021-08-14T06:38:30Z</time>
      </trkpt>
      <trkpt lat="46.14447" lon="3.14215">
        <ele>345.73</ele>
        <time>2021-08-14T06:38:31Z</time>
      </trkpt>
      <trkpt lat="46.14444" lon="3.14212">
        <ele>345.73</ele>
        <time>2021-08-14T06:38:32Z</time>
      </trkpt>
      <trkpt lat="46.14441" lon="3.14211">
        <ele>345.73</ele>
        <time>2021-08-14T06:38:33Z</time>
      </trkpt>
      <trkpt lat="46.14438" lon="3.14212">
        <ele>345.73</ele>
        <time>2021-08-14T06:38:34Z</time>
      </trkpt>
      <trkpt lat="46.14436" lon="3.14214">
        <ele>345.73</ele>
        <time>2021-08-14T06:38:35Z</time>
      </trkpt>
      <trkpt lat="46.14423" lon="3.14219">
        <ele>347.65</ele>
        <time>2021-08-14T06:38:41Z</time>
      </trkpt>
      <trkpt lat="46.14407" lon="3.14219">
        <ele>348.62</ele>
        <time>2021-08-14T06:38:49Z</time>
      </trkpt>
      <trkpt lat="46.14393" lon="3.1423">
        <ele>349.58</ele>
        <time>2021-08-14T06:38:56Z</time>
      </trkpt>
      <trkpt lat="46.14377" lon="3.14248">
        <ele>350.54</ele>
        <time>2021-08-14T06:39:05Z</time>
      </trkpt>
      <trkpt lat="46.14364" lon="3.1426">
        <ele>351.5</ele>
        <time>2021-08-14T06:39:12Z</time>
      </trkpt>
      <trkpt lat="46.1434" lon="3.14276">
        <ele>352.94</ele>
        <time>2021-08-14T06:39:24Z</time>
      </trkpt>
      <trkpt lat="46.14322" lon="3.14286">
        <ele>354.38</ele>
        <time>2021-08-14T06:39:33Z</time>
      </trkpt>
      <trkpt lat="46.14305" lon="3.14296">
        <ele>355.34</ele>
        <time>2021-08-14T06:39:41Z</time>
      </trkpt>
      <trkpt lat="46.14285" lon="3.14314">
        <ele>356.31</ele>
        <time>2021-08-14T06:39:49Z</time>
      </trkpt>
      <trkpt lat="46.14261" lon="3.14339">
        <ele>357.27</ele>
        <time>2021-08-14T06:39:59Z</time>
      </trkpt>
      <trkpt lat="46.14239" lon="3.14367">
        <ele>358.71</ele>
        <time>2021-08-14T06:40:09Z</time>
      </trkpt>
      <trkpt lat="46.14223" lon="3.14393">
        <ele>359.19</ele>
        <time>2021-08-14T06:40:17Z</time>
      </trkpt>
      <trkpt lat="46.14203" lon="3.1443">
        <ele>359.67</ele>
        <time>2021-08-14T06:40:27Z</time>
      </trkpt>
      <trkpt lat="46.14191" lon="3.14439">
        <ele>360.15</ele>
        <time>2021-08-14T06:40:31Z</time>
      </trkpt>
      <trkpt lat="46.14187" lon="3.14437">
        <ele>360.15</ele>
        <time>2021-08-14T06:40:32Z</time>
      </trkpt>
      <trkpt lat="46.14185" lon="3.14433">
        <ele>360.15</ele>
        <time>2021-08-14T06:40:33Z</time>
      </trkpt>
      <trkpt lat="46.14182" lon="3.14429">
        <ele>360.15</ele>
        <time>2021-08-14T06:40:34Z</time>
      </trkpt>
      <trkpt lat="46.1418" lon="3.14425">
        <ele>360.15</ele>
        <time>2021-08-14T06:40:35Z</time>
      </trkpt>
      <trkpt lat="46.14177" lon="3.14421">
        <ele>360.15</ele>
        <time>2021-08-14T06:40:36Z</time>
      </trkpt>
      <trkpt lat="46.14155" lon="3.14383">
        <ele>360.15</ele>
        <time>2021-08-14T06:40:44Z</time>
      </trkpt>
      <trkpt lat="46.14139" lon="3.1436">
        <ele>360.15</ele>
        <time>2021-08-14T06:40:49Z</time>
      </trkpt>
      <trkpt lat="46.14136" lon="3.14356">
        <ele>360.15</ele>
        <time>2021-08-14T06:40:50Z</time>
      </trkpt>
      <trkpt lat="46.14112" lon="3.14319">
        <ele>360.63</ele>
        <time>2021-08-14T06:40:58Z</time>
      </trkpt>
      <trkpt lat="46.14086" lon="3.14267">
        <ele>360.63</ele>
        <time>2021-08-14T06:41:08Z</time>
      </trkpt>
      <trkpt lat="46.14059" lon="3.1422">
        <ele>360.63</ele>
        <time>2021-08-14T06:41:17Z</time>
      </trkpt>
      <trkpt lat="46.1405" lon="3.14203">
        <ele>360.63</ele>
        <time>2021-08-14T06:41:20Z</time>
      </trkpt>
      <trkpt lat="46.14022" lon="3.14155">
        <ele>360.63</ele>
        <time>2021-08-14T06:41:29Z</time>
      </trkpt>
      <trkpt lat="46.14009" lon="3.14133">
        <ele>360.63</ele>
        <time>2021-08-14T06:41:33Z</time>
      </trkpt>
      <trkpt lat="46.13984" lon="3.1409">
        <ele>360.63</ele>
        <time>2021-08-14T06:41:41Z</time>
      </trkpt>
      <trkpt lat="46.13963" lon="3.14034">
        <ele>360.63</ele>
        <time>2021-08-14T06:41:50Z</time>
      </trkpt>
      <trkpt lat="46.13951" lon="3.13997">
        <ele>359.19</ele>
        <time>2021-08-14T06:41:56Z</time>
      </trkpt>
      <trkpt lat="46.13927" lon="3.1393">
        <ele>357.27</ele>
        <time>2021-08-14T06:42:06Z</time>
      </trkpt>
      <trkpt lat="46.1392" lon="3.13908">
        <ele>356.79</ele>
        <time>2021-08-14T06:42:09Z</time>
      </trkpt>
      <trkpt lat="46.13919" lon="3.139">
        <ele>356.31</ele>
        <time>2021-08-14T06:42:10Z</time>
      </trkpt>
      <trkpt lat="46.1392" lon="3.13848">
        <ele>352.94</ele>
        <time>2021-08-14T06:42:15Z</time>
      </trkpt>
      <trkpt lat="46.13919" lon="3.13836">
        <ele>352.94</ele>
        <time>2021-08-14T06:42:16Z</time>
      </trkpt>
      <trkpt lat="46.13916" lon="3.1379">
        <ele>350.06</ele>
        <time>2021-08-14T06:42:20Z</time>
      </trkpt>
      <trkpt lat="46.13912" lon="3.13781">
        <ele>350.06</ele>
        <time>2021-08-14T06:42:21Z</time>
      </trkpt>
      <trkpt lat="46.13908" lon="3.13773">
        <ele>349.58</ele>
        <time>2021-08-14T06:42:22Z</time>
      </trkpt>
      <trkpt lat="46.13873" lon="3.13718">
        <ele>347.65</ele>
        <time>2021-08-14T06:42:30Z</time>
      </trkpt>
      <trkpt lat="46.13863" lon="3.13693">
        <ele>346.21</ele>
        <time>2021-08-14T06:42:35Z</time>
      </trkpt>
      <trkpt lat="46.13851" lon="3.13659">
        <ele>346.21</ele>
        <time>2021-08-14T06:42:41Z</time>
      </trkpt>
      <trkpt lat="46.13848" lon="3.13652">
        <ele>346.21</ele>
        <time>2021-08-14T06:42:42Z</time>
      </trkpt>
      <trkpt lat="46.13845" lon="3.13646">
        <ele>346.21</ele>
        <time>2021-08-14T06:42:43Z</time>
      </trkpt>
      <trkpt lat="46.13843" lon="3.13639">
        <ele>345.73</ele>
        <time>2021-08-14T06:42:44Z</time>
      </trkpt>
      <trkpt lat="46.13835" lon="3.1362">
        <ele>345.73</ele>
        <time>2021-08-14T06:42:47Z</time>
      </trkpt>
      <trkpt lat="46.13829" lon="3.13608">
        <ele>345.73</ele>
        <time>2021-08-14T06:42:49Z</time>
      </trkpt>
      <trkpt lat="46.13826" lon="3.13603">
        <ele>345.25</ele>
        <time>2021-08-14T06:42:50Z</time>
      </trkpt>
      <trkpt lat="46.13791" lon="3.13562">
        <ele>344.77</ele>
        <time>2021-08-14T06:42:58Z</time>
      </trkpt>
      <trkpt lat="46.13771" lon="3.13542">
        <ele>344.77</ele>
        <time>2021-08-14T06:43:03Z</time>
      </trkpt>
      <trkpt lat="46.1377" lon="3.13536">
        <ele>344.77</ele>
        <time>2021-08-14T06:43:04Z</time>
      </trkpt>
      <trkpt lat="46.13771" lon="3.13531">
        <ele>344.77</ele>
        <time>2021-08-14T06:43:05Z</time>
      </trkpt>
      <trkpt lat="46.13773" lon="3.13526">
        <ele>343.81</ele>
        <time>2021-08-14T06:43:06Z</time>
      </trkpt>
      <trkpt lat="46.13775" lon="3.13521">
        <ele>342.85</ele>
        <time>2021-08-14T06:43:07Z</time>
      </trkpt>
      <trkpt lat="46.13783" lon="3.13503">
        <ele>339.48</ele>
        <time>2021-08-14T06:43:11Z</time>
      </trkpt>
      <trkpt lat="46.13785" lon="3.13479">
        <ele>336.12</ele>
        <time>2021-08-14T06:43:16Z</time>
      </trkpt>
      <trkpt lat="46.13783" lon="3.13467">
        <ele>335.64</ele>
        <time>2021-08-14T06:43:18Z</time>
      </trkpt>
      <trkpt lat="46.13776" lon="3.13437">
        <ele>332.27</ele>
        <time>2021-08-14T06:43:23Z</time>
      </trkpt>
      <trkpt lat="46.13774" lon="3.1343">
        <ele>332.27</ele>
        <time>2021-08-14T06:43:24Z</time>
      </trkpt>
      <trkpt lat="46.13765" lon="3.13403">
        <ele>328.91</ele>
        <time>2021-08-14T06:43:28Z</time>
      </trkpt>
      <trkpt lat="46.13758" lon="3.13375">
        <ele>325.06</ele>
        <time>2021-08-14T06:43:32Z</time>
      </trkpt>
      <trkpt lat="46.13753" lon="3.13352">
        <ele>321.7</ele>
        <time>2021-08-14T06:43:35Z</time>
      </trkpt>
      <trkpt lat="46.13737" lon="3.13311">
        <ele>318.81</ele>
        <time>2021-08-14T06:43:40Z</time>
      </trkpt>
      <trkpt lat="46.13732" lon="3.13306">
        <ele>317.85</ele>
        <time>2021-08-14T06:43:41Z</time>
      </trkpt>
      <trkpt lat="46.13727" lon="3.13301">
        <ele>317.37</ele>
        <time>2021-08-14T06:43:42Z</time>
      </trkpt>
      <trkpt lat="46.13722" lon="3.13296">
        <ele>316.89</ele>
        <time>2021-08-14T06:43:43Z</time>
      </trkpt>
      <trkpt lat="46.13717" lon="3.1329">
        <ele>315.93</ele>
        <time>2021-08-14T06:43:44Z</time>
      </trkpt>
      <trkpt lat="46.13713" lon="3.13282">
        <ele>315.45</ele>
        <time>2021-08-14T06:43:45Z</time>
      </trkpt>
      <trkpt lat="46.1371" lon="3.13272">
        <ele>314.97</ele>
        <time>2021-08-14T06:43:46Z</time>
      </trkpt>
      <trkpt lat="46.1371" lon="3.13264">
        <ele>314.97</ele>
        <time>2021-08-14T06:43:47Z</time>
      </trkpt>
      <trkpt lat="46.13711" lon="3.13257">
        <ele>314.97</ele>
        <time>2021-08-14T06:43:48Z</time>
      </trkpt>
      <trkpt lat="46.13712" lon="3.1325">
        <ele>314.97</ele>
        <time>2021-08-14T06:43:49Z</time>
      </trkpt>
      <trkpt lat="46.13712" lon="3.13239">
        <ele>316.41</ele>
        <time>2021-08-14T06:43:52Z</time>
      </trkpt>
      <trkpt lat="46.13711" lon="3.13226">
        <ele>318.33</ele>
        <time>2021-08-14T06:44:01Z</time>
      </trkpt>
      <trkpt lat="46.13708" lon="3.13217">
        <ele>319.78</ele>
        <time>2021-08-14T06:44:10Z</time>
      </trkpt>
      <trkpt lat="46.13706" lon="3.1321">
        <ele>321.22</ele>
        <time>2021-08-14T06:44:18Z</time>
      </trkpt>
      <trkpt lat="46.13706" lon="3.13202">
        <ele>322.18</ele>
        <time>2021-08-14T06:44:27Z</time>
      </trkpt>
      <trkpt lat="46.13711" lon="3.13201">
        <ele>323.14</ele>
        <time>2021-08-14T06:44:36Z</time>
      </trkpt>
      <trkpt lat="46.13712" lon="3.132">
        <ele>323.14</ele>
        <time>2021-08-14T06:44:42Z</time>
      </trkpt>
      <trkpt lat="46.13719" lon="3.132">
        <ele>324.1</ele>
        <time>2021-08-14T06:44:51Z</time>
      </trkpt>
      <trkpt lat="46.13724" lon="3.13199">
        <ele>325.06</ele>
        <time>2021-08-14T06:44:58Z</time>
      </trkpt>
      <trkpt lat="46.13728" lon="3.13198">
        <ele>325.06</ele>
        <time>2021-08-14T06:45:05Z</time>
      </trkpt>
      <trkpt lat="46.13735" lon="3.13196">
        <ele>326.5</ele>
        <time>2021-08-14T06:45:15Z</time>
      </trkpt>
      <trkpt lat="46.13744" lon="3.13195">
        <ele>327.95</ele>
        <time>2021-08-14T06:45:25Z</time>
      </trkpt>
      <trkpt lat="46.13748" lon="3.13194">
        <ele>328.43</ele>
        <time>2021-08-14T06:45:30Z</time>
      </trkpt>
      <trkpt lat="46.13751" lon="3.13188">
        <ele>329.39</ele>
        <time>2021-08-14T06:45:37Z</time>
      </trkpt>
      <trkpt lat="46.1375" lon="3.13185">
        <ele>329.87</ele>
        <time>2021-08-14T06:45:41Z</time>
      </trkpt>
      <trkpt lat="46.13743" lon="3.13181">
        <ele>330.83</ele>
        <time>2021-08-14T06:45:50Z</time>
      </trkpt>
      <trkpt lat="46.13741" lon="3.1318">
        <ele>331.79</ele>
        <time>2021-08-14T06:45:57Z</time>
      </trkpt>
      <trkpt lat="46.13741" lon="3.1318">
        <ele>331.79</ele>
        <time>2021-08-14T06:46:06Z</time>
      </trkpt>
      <trkpt lat="46.13741" lon="3.13181">
        <ele>331.79</ele>
        <time>2021-08-14T06:46:14Z</time>
      </trkpt>
      <trkpt lat="46.13739" lon="3.13178">
        <ele>331.79</ele>
        <time>2021-08-14T06:46:20Z</time>
      </trkpt>
      <trkpt lat="46.13732" lon="3.13173">
        <ele>332.75</ele>
        <time>2021-08-14T06:46:27Z</time>
      </trkpt>
      <trkpt lat="46.13727" lon="3.13168">
        <ele>333.23</ele>
        <time>2021-08-14T06:46:33Z</time>
      </trkpt>
      <trkpt lat="46.13721" lon="3.13161">
        <ele>335.16</ele>
        <time>2021-08-14T06:46:40Z</time>
      </trkpt>
      <trkpt lat="46.13713" lon="3.13151">
        <ele>335.64</ele>
        <time>2021-08-14T06:46:48Z</time>
      </trkpt>
      <trkpt lat="46.13704" lon="3.13141">
        <ele>336.6</ele>
        <time>2021-08-14T06:46:56Z</time>
      </trkpt>
      <trkpt lat="46.13696" lon="3.13131">
        <ele>338.52</ele>
        <time>2021-08-14T06:47:04Z</time>
      </trkpt>
      <trkpt lat="46.13695" lon="3.1313">
        <ele>338.52</ele>
        <time>2021-08-14T06:47:05Z</time>
      </trkpt>
      <trkpt lat="46.13693" lon="3.13128">
        <ele>338.52</ele>
        <time>2021-08-14T06:47:07Z</time>
      </trkpt>
      <trkpt lat="46.13692" lon="3.13127">
        <ele>339</ele>
        <time>2021-08-14T06:47:08Z</time>
      </trkpt>
      <trkpt lat="46.13681" lon="3.13115">
        <ele>339.96</ele>
        <time>2021-08-14T06:47:17Z</time>
      </trkpt>
      <trkpt lat="46.13666" lon="3.13102">
        <ele>340.44</ele>
        <time>2021-08-14T06:47:25Z</time>
      </trkpt>
      <trkpt lat="46.13645" lon="3.13086">
        <ele>340.92</ele>
        <time>2021-08-14T06:47:34Z</time>
      </trkpt>
      <trkpt lat="46.13626" lon="3.1307">
        <ele>341.89</ele>
        <time>2021-08-14T06:47:42Z</time>
      </trkpt>
      <trkpt lat="46.13608" lon="3.13055">
        <ele>342.85</ele>
        <time>2021-08-14T06:47:50Z</time>
      </trkpt>
      <trkpt lat="46.13597" lon="3.13033">
        <ele>343.33</ele>
        <time>2021-08-14T06:47:57Z</time>
      </trkpt>
      <trkpt lat="46.13602" lon="3.13008">
        <ele>343.81</ele>
        <time>2021-08-14T06:48:03Z</time>
      </trkpt>
      <trkpt lat="46.13617" lon="3.12977">
        <ele>344.77</ele>
        <time>2021-08-14T06:48:12Z</time>
      </trkpt>
      <trkpt lat="46.13632" lon="3.12947">
        <ele>345.73</ele>
        <time>2021-08-14T06:48:20Z</time>
      </trkpt>
      <trkpt lat="46.1365" lon="3.12916">
        <ele>345.73</ele>
        <time>2021-08-14T06:48:28Z</time>
      </trkpt>
      <trkpt lat="46.13664" lon="3.12878">
        <ele>345.73</ele>
        <time>2021-08-14T06:48:36Z</time>
      </trkpt>
      <trkpt lat="46.13666" lon="3.12869">
        <ele>345.73</ele>
        <time>2021-08-14T06:48:38Z</time>
      </trkpt>
      <trkpt lat="46.13665" lon="3.12864">
        <ele>346.21</ele>
        <time>2021-08-14T06:48:39Z</time>
      </trkpt>
      <trkpt lat="46.13663" lon="3.1286">
        <ele>346.21</ele>
        <time>2021-08-14T06:48:40Z</time>
      </trkpt>
      <trkpt lat="46.1366" lon="3.12856">
        <ele>346.21</ele>
        <time>2021-08-14T06:48:41Z</time>
      </trkpt>
      <trkpt lat="46.13657" lon="3.12852">
        <ele>346.21</ele>
        <time>2021-08-14T06:48:42Z</time>
      </trkpt>
      <trkpt lat="46.13655" lon="3.12847">
        <ele>344.77</ele>
        <time>2021-08-14T06:48:43Z</time>
      </trkpt>
      <trkpt lat="46.13652" lon="3.12841">
        <ele>344.77</ele>
        <time>2021-08-14T06:48:44Z</time>
      </trkpt>
      <trkpt lat="46.13649" lon="3.12836">
        <ele>344.77</ele>
        <time>2021-08-14T06:48:45Z</time>
      </trkpt>
      <trkpt lat="46.13627" lon="3.12794">
        <ele>342.37</ele>
        <time>2021-08-14T06:48:52Z</time>
      </trkpt>
      <trkpt lat="46.13595" lon="3.12743">
        <ele>339</ele>
        <time>2021-08-14T06:49:00Z</time>
      </trkpt>
      <trkpt lat="46.13568" lon="3.12696">
        <ele>337.08</ele>
        <time>2021-08-14T06:49:06Z</time>
      </trkpt>
      <trkpt lat="46.13565" lon="3.12687">
        <ele>336.6</ele>
        <time>2021-08-14T06:49:07Z</time>
      </trkpt>
      <trkpt lat="46.13563" lon="3.12678">
        <ele>337.08</ele>
        <time>2021-08-14T06:49:08Z</time>
      </trkpt>
      <trkpt lat="46.13561" lon="3.12668">
        <ele>336.12</ele>
        <time>2021-08-14T06:49:09Z</time>
      </trkpt>
      <trkpt lat="46.13561" lon="3.12658">
        <ele>336.12</ele>
        <time>2021-08-14T06:49:10Z</time>
      </trkpt>
      <trkpt lat="46.13561" lon="3.12648">
        <ele>335.64</ele>
        <time>2021-08-14T06:49:11Z</time>
      </trkpt>
      <trkpt lat="46.13561" lon="3.12638">
        <ele>335.64</ele>
        <time>2021-08-14T06:49:12Z</time>
      </trkpt>
      <trkpt lat="46.13559" lon="3.1263">
        <ele>335.64</ele>
        <time>2021-08-14T06:49:13Z</time>
      </trkpt>
      <trkpt lat="46.13556" lon="3.12624">
        <ele>335.16</ele>
        <time>2021-08-14T06:49:14Z</time>
      </trkpt>
      <trkpt lat="46.13551" lon="3.12622">
        <ele>334.68</ele>
        <time>2021-08-14T06:49:15Z</time>
      </trkpt>
      <trkpt lat="46.13545" lon="3.12622">
        <ele>334.68</ele>
        <time>2021-08-14T06:49:16Z</time>
      </trkpt>
      <trkpt lat="46.1354" lon="3.12627">
        <ele>334.68</ele>
        <time>2021-08-14T06:49:17Z</time>
      </trkpt>
      <trkpt lat="46.13537" lon="3.12634">
        <ele>334.2</ele>
        <time>2021-08-14T06:49:18Z</time>
      </trkpt>
      <trkpt lat="46.13537" lon="3.12642">
        <ele>333.71</ele>
        <time>2021-08-14T06:49:19Z</time>
      </trkpt>
      <trkpt lat="46.13538" lon="3.12649">
        <ele>333.23</ele>
        <time>2021-08-14T06:49:20Z</time>
      </trkpt>
      <trkpt lat="46.1354" lon="3.12657">
        <ele>333.23</ele>
        <time>2021-08-14T06:49:21Z</time>
      </trkpt>
      <trkpt lat="46.13542" lon="3.12664">
        <ele>333.23</ele>
        <time>2021-08-14T06:49:22Z</time>
      </trkpt>
      <trkpt lat="46.13544" lon="3.12672">
        <ele>333.23</ele>
        <time>2021-08-14T06:49:23Z</time>
      </trkpt>
      <trkpt lat="46.13561" lon="3.12727">
        <ele>330.35</ele>
        <time>2021-08-14T06:49:30Z</time>
      </trkpt>
      <trkpt lat="46.13563" lon="3.12735">
        <ele>330.35</ele>
        <time>2021-08-14T06:49:31Z</time>
      </trkpt>
      <trkpt lat="46.13576" lon="3.1278">
        <ele>327.95</ele>
        <time>2021-08-14T06:49:36Z</time>
      </trkpt>
      <trkpt lat="46.13578" lon="3.12789">
        <ele>326.99</ele>
        <time>2021-08-14T06:49:37Z</time>
      </trkpt>
      <trkpt lat="46.13582" lon="3.12809">
        <ele>326.02</ele>
        <time>2021-08-14T06:49:39Z</time>
      </trkpt>
      <trkpt lat="46.13584" lon="3.12818">
        <ele>326.02</ele>
        <time>2021-08-14T06:49:40Z</time>
      </trkpt>
      <trkpt lat="46.13585" lon="3.12837">
        <ele>325.06</ele>
        <time>2021-08-14T06:49:42Z</time>
      </trkpt>
      <trkpt lat="46.13584" lon="3.12847">
        <ele>324.1</ele>
        <time>2021-08-14T06:49:43Z</time>
      </trkpt>
      <trkpt lat="46.13582" lon="3.12856">
        <ele>323.14</ele>
        <time>2021-08-14T06:49:44Z</time>
      </trkpt>
      <trkpt lat="46.1358" lon="3.12865">
        <ele>322.66</ele>
        <time>2021-08-14T06:49:45Z</time>
      </trkpt>
      <trkpt lat="46.13575" lon="3.12874">
        <ele>322.18</ele>
        <time>2021-08-14T06:49:46Z</time>
      </trkpt>
      <trkpt lat="46.1357" lon="3.12881">
        <ele>322.18</ele>
        <time>2021-08-14T06:49:47Z</time>
      </trkpt>
      <trkpt lat="46.13564" lon="3.12887">
        <ele>320.74</ele>
        <time>2021-08-14T06:49:48Z</time>
      </trkpt>
      <trkpt lat="46.13558" lon="3.12892">
        <ele>320.74</ele>
        <time>2021-08-14T06:49:49Z</time>
      </trkpt>
      <trkpt lat="46.13552" lon="3.12896">
        <ele>320.26</ele>
        <time>2021-08-14T06:49:50Z</time>
      </trkpt>
      <trkpt lat="46.13548" lon="3.12896">
        <ele>320.26</ele>
        <time>2021-08-14T06:49:51Z</time>
      </trkpt>
      <trkpt lat="46.13544" lon="3.12894">
        <ele>319.78</ele>
        <time>2021-08-14T06:49:52Z</time>
      </trkpt>
      <trkpt lat="46.13543" lon="3.12891">
        <ele>319.78</ele>
        <time>2021-08-14T06:49:53Z</time>
      </trkpt>
      <trkpt lat="46.13541" lon="3.12888">
        <ele>319.78</ele>
        <time>2021-08-14T06:49:54Z</time>
      </trkpt>
      <trkpt lat="46.1354" lon="3.12878">
        <ele>321.22</ele>
        <time>2021-08-14T06:50:00Z</time>
      </trkpt>
      <trkpt lat="46.1354" lon="3.12877">
        <ele>321.22</ele>
        <time>2021-08-14T06:50:01Z</time>
      </trkpt>
      <trkpt lat="46.13538" lon="3.12871">
        <ele>321.7</ele>
        <time>2021-08-14T06:50:06Z</time>
      </trkpt>
      <trkpt lat="46.13537" lon="3.12869">
        <ele>322.18</ele>
        <time>2021-08-14T06:50:08Z</time>
      </trkpt>
      <trkpt lat="46.13532" lon="3.12853">
        <ele>324.58</ele>
        <time>2021-08-14T06:50:18Z</time>
      </trkpt>
      <trkpt lat="46.13528" lon="3.12842">
        <ele>326.02</ele>
        <time>2021-08-14T06:50:25Z</time>
      </trkpt>
      <trkpt lat="46.13524" lon="3.12834">
        <ele>326.5</ele>
        <time>2021-08-14T06:50:31Z</time>
      </trkpt>
      <trkpt lat="46.13521" lon="3.12829">
        <ele>327.47</ele>
        <time>2021-08-14T06:50:37Z</time>
      </trkpt>
      <trkpt lat="46.13517" lon="3.1282">
        <ele>328.91</ele>
        <time>2021-08-14T06:50:46Z</time>
      </trkpt>
      <trkpt lat="46.13512" lon="3.12811">
        <ele>330.35</ele>
        <time>2021-08-14T06:50:55Z</time>
      </trkpt>
      <trkpt lat="46.13509" lon="3.12806">
        <ele>331.31</ele>
        <time>2021-08-14T06:51:02Z</time>
      </trkpt>
      <trkpt lat="46.13505" lon="3.12797">
        <ele>333.23</ele>
        <time>2021-08-14T06:51:12Z</time>
      </trkpt>
      <trkpt lat="46.13502" lon="3.12787">
        <ele>334.2</ele>
        <time>2021-08-14T06:51:20Z</time>
      </trkpt>
      <trkpt lat="46.13499" lon="3.12781">
        <ele>334.68</ele>
        <time>2021-08-14T06:51:29Z</time>
      </trkpt>
      <trkpt lat="46.13495" lon="3.12776">
        <ele>335.64</ele>
        <time>2021-08-14T06:51:35Z</time>
      </trkpt>
      <trkpt lat="46.13486" lon="3.12766">
        <ele>337.08</ele>
        <time>2021-08-14T06:51:44Z</time>
      </trkpt>
      <trkpt lat="46.13476" lon="3.12759">
        <ele>339</ele>
        <time>2021-08-14T06:51:51Z</time>
      </trkpt>
      <trkpt lat="46.13467" lon="3.12745">
        <ele>339.96</ele>
        <time>2021-08-14T06:51:58Z</time>
      </trkpt>
      <trkpt lat="46.13453" lon="3.12723">
        <ele>341.41</ele>
        <time>2021-08-14T06:52:08Z</time>
      </trkpt>
      <trkpt lat="46.13444" lon="3.12708">
        <ele>342.37</ele>
        <time>2021-08-14T06:52:17Z</time>
      </trkpt>
      <trkpt lat="46.13441" lon="3.12705">
        <ele>342.85</ele>
        <time>2021-08-14T06:52:23Z</time>
      </trkpt>
      <trkpt lat="46.13441" lon="3.12704">
        <ele>342.85</ele>
        <time>2021-08-14T06:52:38Z</time>
      </trkpt>
      <trkpt lat="46.1344" lon="3.12703">
        <ele>342.85</ele>
        <time>2021-08-14T06:52:44Z</time>
      </trkpt>
      <trkpt lat="46.1344" lon="3.12703">
        <ele>342.85</ele>
        <time>2021-08-14T06:52:50Z</time>
      </trkpt>
      <trkpt lat="46.1344" lon="3.12702">
        <ele>342.85</ele>
        <time>2021-08-14T06:52:53Z</time>
      </trkpt>
      <trkpt lat="46.13433" lon="3.12694">
        <ele>343.33</ele>
        <time>2021-08-14T06:53:00Z</time>
      </trkpt>
      <trkpt lat="46.13417" lon="3.12677">
        <ele>344.29</ele>
        <time>2021-08-14T06:53:08Z</time>
      </trkpt>
      <trkpt lat="46.13393" lon="3.12654">
        <ele>345.25</ele>
        <time>2021-08-14T06:53:18Z</time>
      </trkpt>
      <trkpt lat="46.13369" lon="3.1263">
        <ele>346.21</ele>
        <time>2021-08-14T06:53:28Z</time>
      </trkpt>
      <trkpt lat="46.1335" lon="3.12605">
        <ele>347.17</ele>
        <time>2021-08-14T06:53:37Z</time>
      </trkpt>
      <trkpt lat="46.13339" lon="3.12585">
        <ele>347.65</ele>
        <time>2021-08-14T06:53:43Z</time>
      </trkpt>
      <trkpt lat="46.1333" lon="3.12559">
        <ele>348.13</ele>
        <time>2021-08-14T06:53:50Z</time>
      </trkpt>
      <trkpt lat="46.1332" lon="3.12536">
        <ele>348.62</ele>
        <time>2021-08-14T06:53:56Z</time>
      </trkpt>
      <trkpt lat="46.13317" lon="3.12535">
        <ele>348.62</ele>
        <time>2021-08-14T06:53:57Z</time>
      </trkpt>
      <trkpt lat="46.13314" lon="3.12536">
        <ele>348.62</ele>
        <time>2021-08-14T06:53:58Z</time>
      </trkpt>
      <trkpt lat="46.13289" lon="3.12552">
        <ele>348.62</ele>
        <time>2021-08-14T06:54:07Z</time>
      </trkpt>
      <trkpt lat="46.1327" lon="3.12569">
        <ele>347.17</ele>
        <time>2021-08-14T06:54:13Z</time>
      </trkpt>
      <trkpt lat="46.13266" lon="3.12572">
        <ele>347.17</ele>
        <time>2021-08-14T06:54:14Z</time>
      </trkpt>
      <trkpt lat="46.13262" lon="3.12576">
        <ele>347.17</ele>
        <time>2021-08-14T06:54:15Z</time>
      </trkpt>
      <trkpt lat="46.13253" lon="3.12585">
        <ele>345.73</ele>
        <time>2021-08-14T06:54:17Z</time>
      </trkpt>
      <trkpt lat="46.13245" lon="3.12593">
        <ele>344.77</ele>
        <time>2021-08-14T06:54:19Z</time>
      </trkpt>
      <trkpt lat="46.13241" lon="3.12597">
        <ele>344.29</ele>
        <time>2021-08-14T06:54:20Z</time>
      </trkpt>
      <trkpt lat="46.13238" lon="3.12601">
        <ele>343.81</ele>
        <time>2021-08-14T06:54:21Z</time>
      </trkpt>
      <trkpt lat="46.13235" lon="3.12606">
        <ele>343.81</ele>
        <time>2021-08-14T06:54:22Z</time>
      </trkpt>
      <trkpt lat="46.13226" lon="3.12629">
        <ele>340.44</ele>
        <time>2021-08-14T06:54:27Z</time>
      </trkpt>
      <trkpt lat="46.13218" lon="3.1265">
        <ele>337.08</ele>
        <time>2021-08-14T06:54:32Z</time>
      </trkpt>
      <trkpt lat="46.13215" lon="3.12663">
        <ele>333.71</ele>
        <time>2021-08-14T06:54:36Z</time>
      </trkpt>
      <trkpt lat="46.13213" lon="3.12665">
        <ele>333.23</ele>
        <time>2021-08-14T06:54:37Z</time>
      </trkpt>
      <trkpt lat="46.13212" lon="3.12669">
        <ele>332.27</ele>
        <time>2021-08-14T06:54:38Z</time>
      </trkpt>
      <trkpt lat="46.13211" lon="3.12672">
        <ele>331.31</ele>
        <time>2021-08-14T06:54:39Z</time>
      </trkpt>
      <trkpt lat="46.1321" lon="3.12677">
        <ele>330.35</ele>
        <time>2021-08-14T06:54:40Z</time>
      </trkpt>
      <trkpt lat="46.13208" lon="3.12681">
        <ele>329.39</ele>
        <time>2021-08-14T06:54:41Z</time>
      </trkpt>
      <trkpt lat="46.13205" lon="3.12685">
        <ele>328.43</ele>
        <time>2021-08-14T06:54:42Z</time>
      </trkpt>
      <trkpt lat="46.13203" lon="3.12688">
        <ele>326.99</ele>
        <time>2021-08-14T06:54:43Z</time>
      </trkpt>
      <trkpt lat="46.13198" lon="3.12691">
        <ele>325.54</ele>
        <time>2021-08-14T06:54:44Z</time>
      </trkpt>
      <trkpt lat="46.13193" lon="3.12693">
        <ele>324.58</ele>
        <time>2021-08-14T06:54:45Z</time>
      </trkpt>
      <trkpt lat="46.13179" lon="3.12699">
        <ele>321.22</ele>
        <time>2021-08-14T06:54:47Z</time>
      </trkpt>
      <trkpt lat="46.13165" lon="3.12705">
        <ele>318.81</ele>
        <time>2021-08-14T06:54:49Z</time>
      </trkpt>
      <trkpt lat="46.13158" lon="3.12704">
        <ele>318.33</ele>
        <time>2021-08-14T06:54:50Z</time>
      </trkpt>
      <trkpt lat="46.13151" lon="3.12702">
        <ele>318.33</ele>
        <time>2021-08-14T06:54:51Z</time>
      </trkpt>
      <trkpt lat="46.13132" lon="3.12695">
        <ele>317.37</ele>
        <time>2021-08-14T06:54:54Z</time>
      </trkpt>
      <trkpt lat="46.13122" lon="3.12694">
        <ele>317.37</ele>
        <time>2021-08-14T06:54:56Z</time>
      </trkpt>
      <trkpt lat="46.13107" lon="3.12695">
        <ele>317.85</ele>
        <time>2021-08-14T06:54:59Z</time>
      </trkpt>
      <trkpt lat="46.13096" lon="3.12694">
        <ele>317.37</ele>
        <time>2021-08-14T06:55:01Z</time>
      </trkpt>
      <trkpt lat="46.1309" lon="3.12693">
        <ele>317.37</ele>
        <time>2021-08-14T06:55:02Z</time>
      </trkpt>
      <trkpt lat="46.13054" lon="3.12681">
        <ele>316.89</ele>
        <time>2021-08-14T06:55:09Z</time>
      </trkpt>
      <trkpt lat="46.13044" lon="3.12679">
        <ele>316.41</ele>
        <time>2021-08-14T06:55:11Z</time>
      </trkpt>
      <trkpt lat="46.13" lon="3.12674">
        <ele>315.93</ele>
        <time>2021-08-14T06:55:19Z</time>
      </trkpt>
      <trkpt lat="46.1296" lon="3.12668">
        <ele>314.97</ele>
        <time>2021-08-14T06:55:26Z</time>
      </trkpt>
      <trkpt lat="46.12923" lon="3.12663">
        <ele>314.49</ele>
        <time>2021-08-14T06:55:33Z</time>
      </trkpt>
      <trkpt lat="46.12918" lon="3.12662">
        <ele>314.01</ele>
        <time>2021-08-14T06:55:34Z</time>
      </trkpt>
      <trkpt lat="46.12879" lon="3.12639">
        <ele>314.01</ele>
        <time>2021-08-14T06:55:42Z</time>
      </trkpt>
      <trkpt lat="46.12856" lon="3.1262">
        <ele>315.45</ele>
        <time>2021-08-14T06:55:49Z</time>
      </trkpt>
      <trkpt lat="46.12841" lon="3.12611">
        <ele>316.89</ele>
        <time>2021-08-14T06:55:57Z</time>
      </trkpt>
      <trkpt lat="46.12827" lon="3.12601">
        <ele>318.33</ele>
        <time>2021-08-14T06:56:05Z</time>
      </trkpt>
      <trkpt lat="46.12816" lon="3.12583">
        <ele>319.3</ele>
        <time>2021-08-14T06:56:13Z</time>
      </trkpt>
      <trkpt lat="46.12802" lon="3.12559">
        <ele>320.26</ele>
        <time>2021-08-14T06:56:24Z</time>
      </trkpt>
      <trkpt lat="46.12794" lon="3.12539">
        <ele>321.7</ele>
        <time>2021-08-14T06:56:32Z</time>
      </trkpt>
      <trkpt lat="46.12785" lon="3.1252">
        <ele>322.66</ele>
        <time>2021-08-14T06:56:40Z</time>
      </trkpt>
      <trkpt lat="46.12774" lon="3.125">
        <ele>324.1</ele>
        <time>2021-08-14T06:56:49Z</time>
      </trkpt>
      <trkpt lat="46.12759" lon="3.12469">
        <ele>325.06</ele>
        <time>2021-08-14T06:57:02Z</time>
      </trkpt>
      <trkpt lat="46.12754" lon="3.12459">
        <ele>326.5</ele>
        <time>2021-08-14T06:57:07Z</time>
      </trkpt>
      <trkpt lat="46.12753" lon="3.12457">
        <ele>326.5</ele>
        <time>2021-08-14T06:57:08Z</time>
      </trkpt>
      <trkpt lat="46.12753" lon="3.12454">
        <ele>326.5</ele>
        <time>2021-08-14T06:57:09Z</time>
      </trkpt>
      <trkpt lat="46.12753" lon="3.12452">
        <ele>326.99</ele>
        <time>2021-08-14T06:57:10Z</time>
      </trkpt>
      <trkpt lat="46.12752" lon="3.1245">
        <ele>326.99</ele>
        <time>2021-08-14T06:57:11Z</time>
      </trkpt>
      <trkpt lat="46.12751" lon="3.1243">
        <ele>328.43</ele>
        <time>2021-08-14T06:57:21Z</time>
      </trkpt>
      <trkpt lat="46.12751" lon="3.12416">
        <ele>330.35</ele>
        <time>2021-08-14T06:57:29Z</time>
      </trkpt>
      <trkpt lat="46.12751" lon="3.12402">
        <ele>331.79</ele>
        <time>2021-08-14T06:57:37Z</time>
      </trkpt>
      <trkpt lat="46.12752" lon="3.12395">
        <ele>332.27</ele>
        <time>2021-08-14T06:57:41Z</time>
      </trkpt>
      <trkpt lat="46.12751" lon="3.12392">
        <ele>332.75</ele>
        <time>2021-08-14T06:57:42Z</time>
      </trkpt>
      <trkpt lat="46.1275" lon="3.12384">
        <ele>333.23</ele>
        <time>2021-08-14T06:57:47Z</time>
      </trkpt>
      <trkpt lat="46.1275" lon="3.12382">
        <ele>334.2</ele>
        <time>2021-08-14T06:57:48Z</time>
      </trkpt>
      <trkpt lat="46.12749" lon="3.12368">
        <ele>335.64</ele>
        <time>2021-08-14T06:57:57Z</time>
      </trkpt>
      <trkpt lat="46.1275" lon="3.12366">
        <ele>335.64</ele>
        <time>2021-08-14T06:57:58Z</time>
      </trkpt>
      <trkpt lat="46.1275" lon="3.12351">
        <ele>337.56</ele>
        <time>2021-08-14T06:58:07Z</time>
      </trkpt>
      <trkpt lat="46.12749" lon="3.12339">
        <ele>339</ele>
        <time>2021-08-14T06:58:14Z</time>
      </trkpt>
      <trkpt lat="46.12749" lon="3.12337">
        <ele>339</ele>
        <time>2021-08-14T06:58:15Z</time>
      </trkpt>
      <trkpt lat="46.12748" lon="3.12321">
        <ele>340.92</ele>
        <time>2021-08-14T06:58:24Z</time>
      </trkpt>
      <trkpt lat="46.12748" lon="3.12319">
        <ele>341.41</ele>
        <time>2021-08-14T06:58:25Z</time>
      </trkpt>
      <trkpt lat="46.12747" lon="3.12304">
        <ele>342.37</ele>
        <time>2021-08-14T06:58:32Z</time>
      </trkpt>
      <trkpt lat="46.12749" lon="3.12285">
        <ele>343.81</ele>
        <time>2021-08-14T06:58:41Z</time>
      </trkpt>
      <trkpt lat="46.1276" lon="3.12263">
        <ele>345.25</ele>
        <time>2021-08-14T06:58:51Z</time>
      </trkpt>
      <trkpt lat="46.1277" lon="3.12248">
        <ele>346.69</ele>
        <time>2021-08-14T06:59:00Z</time>
      </trkpt>
      <trkpt lat="46.1278" lon="3.12228">
        <ele>348.62</ele>
        <time>2021-08-14T06:59:08Z</time>
      </trkpt>
      <trkpt lat="46.1279" lon="3.12212">
        <ele>349.58</ele>
        <time>2021-08-14T06:59:15Z</time>
      </trkpt>
      <trkpt lat="46.128" lon="3.12193">
        <ele>350.06</ele>
        <time>2021-08-14T06:59:21Z</time>
      </trkpt>
      <trkpt lat="46.12813" lon="3.12167">
        <ele>350.06</ele>
        <time>2021-08-14T06:59:28Z</time>
      </trkpt>
      <trkpt lat="46.12826" lon="3.1214">
        <ele>350.06</ele>
        <time>2021-08-14T06:59:36Z</time>
      </trkpt>
      <trkpt lat="46.12834" lon="3.12123">
        <ele>350.54</ele>
        <time>2021-08-14T06:59:41Z</time>
      </trkpt>
      <trkpt lat="46.12834" lon="3.12118">
        <ele>350.54</ele>
        <time>2021-08-14T06:59:42Z</time>
      </trkpt>
      <trkpt lat="46.12833" lon="3.12114">
        <ele>350.54</ele>
        <time>2021-08-14T06:59:43Z</time>
      </trkpt>
      <trkpt lat="46.1283" lon="3.12111">
        <ele>350.54</ele>
        <time>2021-08-14T06:59:44Z</time>
      </trkpt>
      <trkpt lat="46.12827" lon="3.12108">
        <ele>350.54</ele>
        <time>2021-08-14T06:59:45Z</time>
      </trkpt>
      <trkpt lat="46.12824" lon="3.12107">
        <ele>350.54</ele>
        <time>2021-08-14T06:59:46Z</time>
      </trkpt>
      <trkpt lat="46.12821" lon="3.12106">
        <ele>350.54</ele>
        <time>2021-08-14T06:59:47Z</time>
      </trkpt>
      <trkpt lat="46.12792" lon="3.12097">
        <ele>347.65</ele>
        <time>2021-08-14T06:59:55Z</time>
      </trkpt>
      <trkpt lat="46.12778" lon="3.12092">
        <ele>344.77</ele>
        <time>2021-08-14T06:59:58Z</time>
      </trkpt>
      <trkpt lat="46.12766" lon="3.12089">
        <ele>342.37</ele>
        <time>2021-08-14T07:00:01Z</time>
      </trkpt>
      <trkpt lat="46.12761" lon="3.12087">
        <ele>340.44</ele>
        <time>2021-08-14T07:00:02Z</time>
      </trkpt>
      <trkpt lat="46.12757" lon="3.12085">
        <ele>339.96</ele>
        <time>2021-08-14T07:00:03Z</time>
      </trkpt>
      <trkpt lat="46.12752" lon="3.12083">
        <ele>338.04</ele>
        <time>2021-08-14T07:00:04Z</time>
      </trkpt>
      <trkpt lat="46.12748" lon="3.1208">
        <ele>337.08</ele>
        <time>2021-08-14T07:00:05Z</time>
      </trkpt>
      <trkpt lat="46.12743" lon="3.12076">
        <ele>336.12</ele>
        <time>2021-08-14T07:00:06Z</time>
      </trkpt>
      <trkpt lat="46.12738" lon="3.12073">
        <ele>334.68</ele>
        <time>2021-08-14T07:00:07Z</time>
      </trkpt>
      <trkpt lat="46.12724" lon="3.12064">
        <ele>331.31</ele>
        <time>2021-08-14T07:00:09Z</time>
      </trkpt>
      <trkpt lat="46.12708" lon="3.12056">
        <ele>327.95</ele>
        <time>2021-08-14T07:00:11Z</time>
      </trkpt>
      <trkpt lat="46.12691" lon="3.12049">
        <ele>323.62</ele>
        <time>2021-08-14T07:00:13Z</time>
      </trkpt>
      <trkpt lat="46.12674" lon="3.12041">
        <ele>320.26</ele>
        <time>2021-08-14T07:00:15Z</time>
      </trkpt>
      <trkpt lat="46.12658" lon="3.12031">
        <ele>316.41</ele>
        <time>2021-08-14T07:00:17Z</time>
      </trkpt>
      <trkpt lat="46.12653" lon="3.12025">
        <ele>315.93</ele>
        <time>2021-08-14T07:00:18Z</time>
      </trkpt>
      <trkpt lat="46.12648" lon="3.12017">
        <ele>314.97</ele>
        <time>2021-08-14T07:00:19Z</time>
      </trkpt>
      <trkpt lat="46.12644" lon="3.12008">
        <ele>313.53</ele>
        <time>2021-08-14T07:00:20Z</time>
      </trkpt>
      <trkpt lat="46.1264" lon="3.11999">
        <ele>312.57</ele>
        <time>2021-08-14T07:00:21Z</time>
      </trkpt>
      <trkpt lat="46.1262" lon="3.11959">
        <ele>309.2</ele>
        <time>2021-08-14T07:00:25Z</time>
      </trkpt>
      <trkpt lat="46.12588" lon="3.11906">
        <ele>308.72</ele>
        <time>2021-08-14T07:00:31Z</time>
      </trkpt>
      <trkpt lat="46.12567" lon="3.11882">
        <ele>310.16</ele>
        <time>2021-08-14T07:00:35Z</time>
      </trkpt>
      <trkpt lat="46.12551" lon="3.11865">
        <ele>311.6</ele>
        <time>2021-08-14T07:00:40Z</time>
      </trkpt>
      <trkpt lat="46.12533" lon="3.1185">
        <ele>312.57</ele>
        <time>2021-08-14T07:00:48Z</time>
      </trkpt>
      <trkpt lat="46.12517" lon="3.11842">
        <ele>313.53</ele>
        <time>2021-08-14T07:00:55Z</time>
      </trkpt>
      <trkpt lat="46.12494" lon="3.1183">
        <ele>314.97</ele>
        <time>2021-08-14T07:01:04Z</time>
      </trkpt>
      <trkpt lat="46.12474" lon="3.11817">
        <ele>314.97</ele>
        <time>2021-08-14T07:01:12Z</time>
      </trkpt>
      <trkpt lat="46.12458" lon="3.11795">
        <ele>314.97</ele>
        <time>2021-08-14T07:01:19Z</time>
      </trkpt>
      <trkpt lat="46.1244" lon="3.11772">
        <ele>313.53</ele>
        <time>2021-08-14T07:01:24Z</time>
      </trkpt>
      <trkpt lat="46.12425" lon="3.11752">
        <ele>313.05</ele>
        <time>2021-08-14T07:01:28Z</time>
      </trkpt>
      <trkpt lat="46.12415" lon="3.11731">
        <ele>313.05</ele>
        <time>2021-08-14T07:01:33Z</time>
      </trkpt>
      <trkpt lat="46.12415" lon="3.11724">
        <ele>313.05</ele>
        <time>2021-08-14T07:01:35Z</time>
      </trkpt>
      <trkpt lat="46.12415" lon="3.11721">
        <ele>313.05</ele>
        <time>2021-08-14T07:01:36Z</time>
      </trkpt>
      <trkpt lat="46.12416" lon="3.11719">
        <ele>313.05</ele>
        <time>2021-08-14T07:01:37Z</time>
      </trkpt>
      <trkpt lat="46.12416" lon="3.11716">
        <ele>314.49</ele>
        <time>2021-08-14T07:01:38Z</time>
      </trkpt>
      <trkpt lat="46.12416" lon="3.11714">
        <ele>314.49</ele>
        <time>2021-08-14T07:01:39Z</time>
      </trkpt>
      <trkpt lat="46.12416" lon="3.11711">
        <ele>314.49</ele>
        <time>2021-08-14T07:01:40Z</time>
      </trkpt>
      <trkpt lat="46.12416" lon="3.11708">
        <ele>314.97</ele>
        <time>2021-08-14T07:01:41Z</time>
      </trkpt>
      <trkpt lat="46.12416" lon="3.11706">
        <ele>315.45</ele>
        <time>2021-08-14T07:01:42Z</time>
      </trkpt>
      <trkpt lat="46.12417" lon="3.11703">
        <ele>315.45</ele>
        <time>2021-08-14T07:01:43Z</time>
      </trkpt>
      <trkpt lat="46.12417" lon="3.11701">
        <ele>315.45</ele>
        <time>2021-08-14T07:01:44Z</time>
      </trkpt>
      <trkpt lat="46.12418" lon="3.11699">
        <ele>315.45</ele>
        <time>2021-08-14T07:01:45Z</time>
      </trkpt>
      <trkpt lat="46.12419" lon="3.11696">
        <ele>316.41</ele>
        <time>2021-08-14T07:01:46Z</time>
      </trkpt>
      <trkpt lat="46.12419" lon="3.11694">
        <ele>316.41</ele>
        <time>2021-08-14T07:01:47Z</time>
      </trkpt>
      <trkpt lat="46.1242" lon="3.11692">
        <ele>316.89</ele>
        <time>2021-08-14T07:01:48Z</time>
      </trkpt>
      <trkpt lat="46.1242" lon="3.11691">
        <ele>316.89</ele>
        <time>2021-08-14T07:01:49Z</time>
      </trkpt>
      <trkpt lat="46.12421" lon="3.11689">
        <ele>316.89</ele>
        <time>2021-08-14T07:01:50Z</time>
      </trkpt>
      <trkpt lat="46.12421" lon="3.11687">
        <ele>316.89</ele>
        <time>2021-08-14T07:01:51Z</time>
      </trkpt>
      <trkpt lat="46.12423" lon="3.11681">
        <ele>317.85</ele>
        <time>2021-08-14T07:01:55Z</time>
      </trkpt>
      <trkpt lat="46.12433" lon="3.11666">
        <ele>319.3</ele>
        <time>2021-08-14T07:02:05Z</time>
      </trkpt>
      <trkpt lat="46.12444" lon="3.11651">
        <ele>320.74</ele>
        <time>2021-08-14T07:02:15Z</time>
      </trkpt>
      <trkpt lat="46.12454" lon="3.11643">
        <ele>321.7</ele>
        <time>2021-08-14T07:02:23Z</time>
      </trkpt>
      <trkpt lat="46.12458" lon="3.1164">
        <ele>321.7</ele>
        <time>2021-08-14T07:02:26Z</time>
      </trkpt>
      <trkpt lat="46.12459" lon="3.11639">
        <ele>322.18</ele>
        <time>2021-08-14T07:02:27Z</time>
      </trkpt>
      <trkpt lat="46.12461" lon="3.11638">
        <ele>322.18</ele>
        <time>2021-08-14T07:02:28Z</time>
      </trkpt>
      <trkpt lat="46.12463" lon="3.11636">
        <ele>322.66</ele>
        <time>2021-08-14T07:02:30Z</time>
      </trkpt>
      <trkpt lat="46.12464" lon="3.11634">
        <ele>322.66</ele>
        <time>2021-08-14T07:02:31Z</time>
      </trkpt>
      <trkpt lat="46.12466" lon="3.11633">
        <ele>322.66</ele>
        <time>2021-08-14T07:02:32Z</time>
      </trkpt>
      <trkpt lat="46.12467" lon="3.11632">
        <ele>323.14</ele>
        <time>2021-08-14T07:02:33Z</time>
      </trkpt>
      <trkpt lat="46.12473" lon="3.11628">
        <ele>324.1</ele>
        <time>2021-08-14T07:02:38Z</time>
      </trkpt>
      <trkpt lat="46.12474" lon="3.11627">
        <ele>324.1</ele>
        <time>2021-08-14T07:02:39Z</time>
      </trkpt>
      <trkpt lat="46.12475" lon="3.11625">
        <ele>324.1</ele>
        <time>2021-08-14T07:02:40Z</time>
      </trkpt>
      <trkpt lat="46.12478" lon="3.11619">
        <ele>325.06</ele>
        <time>2021-08-14T07:02:44Z</time>
      </trkpt>
      <trkpt lat="46.12479" lon="3.11618">
        <ele>325.06</ele>
        <time>2021-08-14T07:02:45Z</time>
      </trkpt>
      <trkpt lat="46.1248" lon="3.11617">
        <ele>325.54</ele>
        <time>2021-08-14T07:02:46Z</time>
      </trkpt>
      <trkpt lat="46.12481" lon="3.11615">
        <ele>325.54</ele>
        <time>2021-08-14T07:02:47Z</time>
      </trkpt>
      <trkpt lat="46.12481" lon="3.11613">
        <ele>325.54</ele>
        <time>2021-08-14T07:02:48Z</time>
      </trkpt>
      <trkpt lat="46.12482" lon="3.11612">
        <ele>326.02</ele>
        <time>2021-08-14T07:02:49Z</time>
      </trkpt>
      <trkpt lat="46.12483" lon="3.11611">
        <ele>326.5</ele>
        <time>2021-08-14T07:02:50Z</time>
      </trkpt>
      <trkpt lat="46.12484" lon="3.11609">
        <ele>326.02</ele>
        <time>2021-08-14T07:02:51Z</time>
      </trkpt>
      <trkpt lat="46.12489" lon="3.11596">
        <ele>328.43</ele>
        <time>2021-08-14T07:03:00Z</time>
      </trkpt>
      <trkpt lat="46.12495" lon="3.11584">
        <ele>330.35</ele>
        <time>2021-08-14T07:03:09Z</time>
      </trkpt>
      <trkpt lat="46.12496" lon="3.11582">
        <ele>330.83</ele>
        <time>2021-08-14T07:03:10Z</time>
      </trkpt>
      <trkpt lat="46.12497" lon="3.11581">
        <ele>330.83</ele>
        <time>2021-08-14T07:03:11Z</time>
      </trkpt>
      <trkpt lat="46.12498" lon="3.11579">
        <ele>331.31</ele>
        <time>2021-08-14T07:03:12Z</time>
      </trkpt>
      <trkpt lat="46.12498" lon="3.11578">
        <ele>331.31</ele>
        <time>2021-08-14T07:03:13Z</time>
      </trkpt>
      <trkpt lat="46.12499" lon="3.11577">
        <ele>331.79</ele>
        <time>2021-08-14T07:03:14Z</time>
      </trkpt>
      <trkpt lat="46.12501" lon="3.11573">
        <ele>332.27</ele>
        <time>2021-08-14T07:03:17Z</time>
      </trkpt>
      <trkpt lat="46.12502" lon="3.11572">
        <ele>332.27</ele>
        <time>2021-08-14T07:03:18Z</time>
      </trkpt>
      <trkpt lat="46.12503" lon="3.1157">
        <ele>332.75</ele>
        <time>2021-08-14T07:03:19Z</time>
      </trkpt>
      <trkpt lat="46.12508" lon="3.11562">
        <ele>333.71</ele>
        <time>2021-08-14T07:03:25Z</time>
      </trkpt>
      <trkpt lat="46.12508" lon="3.11561">
        <ele>333.71</ele>
        <time>2021-08-14T07:03:26Z</time>
      </trkpt>
      <trkpt lat="46.12509" lon="3.11559">
        <ele>334.2</ele>
        <time>2021-08-14T07:03:27Z</time>
      </trkpt>
      <trkpt lat="46.12515" lon="3.11549">
        <ele>335.64</ele>
        <time>2021-08-14T07:03:35Z</time>
      </trkpt>
      <trkpt lat="46.1252" lon="3.11533">
        <ele>337.56</ele>
        <time>2021-08-14T07:03:44Z</time>
      </trkpt>
      <trkpt lat="46.12519" lon="3.11525">
        <ele>337.56</ele>
        <time>2021-08-14T07:03:48Z</time>
      </trkpt>
      <trkpt lat="46.1251" lon="3.11511">
        <ele>336.6</ele>
        <time>2021-08-14T07:03:53Z</time>
      </trkpt>
      <trkpt lat="46.12505" lon="3.115">
        <ele>335.16</ele>
        <time>2021-08-14T07:03:55Z</time>
      </trkpt>
      <trkpt lat="46.12502" lon="3.11494">
        <ele>335.16</ele>
        <time>2021-08-14T07:03:56Z</time>
      </trkpt>
      <trkpt lat="46.12487" lon="3.11461">
        <ele>331.79</ele>
        <time>2021-08-14T07:04:01Z</time>
      </trkpt>
      <trkpt lat="46.12483" lon="3.11455">
        <ele>330.83</ele>
        <time>2021-08-14T07:04:02Z</time>
      </trkpt>
      <trkpt lat="46.12473" lon="3.11443">
        <ele>328.91</ele>
        <time>2021-08-14T07:04:04Z</time>
      </trkpt>
      <trkpt lat="46.12451" lon="3.11422">
        <ele>325.06</ele>
        <time>2021-08-14T07:04:08Z</time>
      </trkpt>
      <trkpt lat="46.12433" lon="3.11409">
        <ele>322.18</ele>
        <time>2021-08-14T07:04:11Z</time>
      </trkpt>
      <trkpt lat="46.12415" lon="3.11391">
        <ele>319.78</ele>
        <time>2021-08-14T07:04:14Z</time>
      </trkpt>
      <trkpt lat="46.12409" lon="3.11383">
        <ele>318.33</ele>
        <time>2021-08-14T07:04:15Z</time>
      </trkpt>
      <trkpt lat="46.12393" lon="3.11358">
        <ele>314.97</ele>
        <time>2021-08-14T07:04:18Z</time>
      </trkpt>
      <trkpt lat="46.12371" lon="3.11321">
        <ele>312.09</ele>
        <time>2021-08-14T07:04:22Z</time>
      </trkpt>
      <trkpt lat="46.12358" lon="3.11303">
        <ele>311.6</ele>
        <time>2021-08-14T07:04:25Z</time>
      </trkpt>
      <trkpt lat="46.12356" lon="3.11299">
        <ele>311.12</ele>
        <time>2021-08-14T07:04:27Z</time>
      </trkpt>
      <trkpt lat="46.12355" lon="3.11297">
        <ele>311.6</ele>
        <time>2021-08-14T07:04:28Z</time>
      </trkpt>
      <trkpt lat="46.12353" lon="3.11296">
        <ele>311.6</ele>
        <time>2021-08-14T07:04:29Z</time>
      </trkpt>
      <trkpt lat="46.12351" lon="3.11294">
        <ele>311.12</ele>
        <time>2021-08-14T07:04:30Z</time>
      </trkpt>
      <trkpt lat="46.12349" lon="3.1129">
        <ele>311.12</ele>
        <time>2021-08-14T07:04:31Z</time>
      </trkpt>
      <trkpt lat="46.12347" lon="3.11285">
        <ele>310.64</ele>
        <time>2021-08-14T07:04:32Z</time>
      </trkpt>
      <trkpt lat="46.12345" lon="3.1128">
        <ele>310.64</ele>
        <time>2021-08-14T07:04:33Z</time>
      </trkpt>
      <trkpt lat="46.12344" lon="3.11274">
        <ele>310.64</ele>
        <time>2021-08-14T07:04:34Z</time>
      </trkpt>
      <trkpt lat="46.12344" lon="3.11268">
        <ele>310.16</ele>
        <time>2021-08-14T07:04:35Z</time>
      </trkpt>
      <trkpt lat="46.12345" lon="3.11262">
        <ele>310.16</ele>
        <time>2021-08-14T07:04:36Z</time>
      </trkpt>
      <trkpt lat="46.12346" lon="3.11257">
        <ele>310.16</ele>
        <time>2021-08-14T07:04:37Z</time>
      </trkpt>
      <trkpt lat="46.12348" lon="3.11252">
        <ele>310.16</ele>
        <time>2021-08-14T07:04:38Z</time>
      </trkpt>
      <trkpt lat="46.1235" lon="3.11248">
        <ele>310.16</ele>
        <time>2021-08-14T07:04:39Z</time>
      </trkpt>
      <trkpt lat="46.12351" lon="3.11244">
        <ele>310.16</ele>
        <time>2021-08-14T07:04:40Z</time>
      </trkpt>
      <trkpt lat="46.12353" lon="3.1124">
        <ele>310.16</ele>
        <time>2021-08-14T07:04:41Z</time>
      </trkpt>
      <trkpt lat="46.12355" lon="3.11236">
        <ele>310.16</ele>
        <time>2021-08-14T07:04:42Z</time>
      </trkpt>
      <trkpt lat="46.12358" lon="3.11232">
        <ele>310.16</ele>
        <time>2021-08-14T07:04:43Z</time>
      </trkpt>
      <trkpt lat="46.12374" lon="3.11202">
        <ele>310.16</ele>
        <time>2021-08-14T07:04:50Z</time>
      </trkpt>
      <trkpt lat="46.12382" lon="3.11188">
        <ele>310.16</ele>
        <time>2021-08-14T07:04:53Z</time>
      </trkpt>
      <trkpt lat="46.12403" lon="3.11148">
        <ele>310.16</ele>
        <time>2021-08-14T07:05:01Z</time>
      </trkpt>
      <trkpt lat="46.12422" lon="3.11121">
        <ele>310.16</ele>
        <time>2021-08-14T07:05:08Z</time>
      </trkpt>
      <trkpt lat="46.12455" lon="3.11079">
        <ele>310.16</ele>
        <time>2021-08-14T07:05:18Z</time>
      </trkpt>
      <trkpt lat="46.12481" lon="3.11028">
        <ele>310.16</ele>
        <time>2021-08-14T07:05:27Z</time>
      </trkpt>
      <trkpt lat="46.12489" lon="3.11011">
        <ele>310.16</ele>
        <time>2021-08-14T07:05:30Z</time>
      </trkpt>
      <trkpt lat="46.12494" lon="3.11006">
        <ele>310.16</ele>
        <time>2021-08-14T07:05:31Z</time>
      </trkpt>
      <trkpt lat="46.12498" lon="3.11002">
        <ele>310.16</ele>
        <time>2021-08-14T07:05:32Z</time>
      </trkpt>
      <trkpt lat="46.12502" lon="3.10999">
        <ele>310.16</ele>
        <time>2021-08-14T07:05:33Z</time>
      </trkpt>
      <trkpt lat="46.12507" lon="3.10998">
        <ele>311.12</ele>
        <time>2021-08-14T07:05:34Z</time>
      </trkpt>
      <trkpt lat="46.12511" lon="3.10997">
        <ele>311.12</ele>
        <time>2021-08-14T07:05:35Z</time>
      </trkpt>
      <trkpt lat="46.12515" lon="3.10998">
        <ele>311.12</ele>
        <time>2021-08-14T07:05:36Z</time>
      </trkpt>
      <trkpt lat="46.12569" lon="3.10996">
        <ele>312.09</ele>
        <time>2021-08-14T07:05:49Z</time>
      </trkpt>
      <trkpt lat="46.12601" lon="3.10992">
        <ele>313.53</ele>
        <time>2021-08-14T07:05:58Z</time>
      </trkpt>
      <trkpt lat="46.12627" lon="3.10991">
        <ele>314.01</ele>
        <time>2021-08-14T07:06:06Z</time>
      </trkpt>
      <trkpt lat="46.12658" lon="3.10987">
        <ele>315.45</ele>
        <time>2021-08-14T07:06:17Z</time>
      </trkpt>
      <trkpt lat="46.12678" lon="3.10983">
        <ele>316.41</ele>
        <time>2021-08-14T07:06:25Z</time>
      </trkpt>
      <trkpt lat="46.12696" lon="3.10979">
        <ele>317.37</ele>
        <time>2021-08-14T07:06:32Z</time>
      </trkpt>
      <trkpt lat="46.12717" lon="3.10974">
        <ele>319.3</ele>
        <time>2021-08-14T07:06:41Z</time>
      </trkpt>
      <trkpt lat="46.12733" lon="3.10971">
        <ele>321.22</ele>
        <time>2021-08-14T07:06:50Z</time>
      </trkpt>
      <trkpt lat="46.12748" lon="3.10968">
        <ele>322.66</ele>
        <time>2021-08-14T07:07:00Z</time>
      </trkpt>
      <trkpt lat="46.1275" lon="3.10967">
        <ele>323.62</ele>
        <time>2021-08-14T07:07:02Z</time>
      </trkpt>
      <trkpt lat="46.12751" lon="3.10966">
        <ele>323.62</ele>
        <time>2021-08-14T07:07:03Z</time>
      </trkpt>
      <trkpt lat="46.12752" lon="3.10966">
        <ele>324.1</ele>
        <time>2021-08-14T07:07:04Z</time>
      </trkpt>
      <trkpt lat="46.12754" lon="3.10965">
        <ele>323.62</ele>
        <time>2021-08-14T07:07:05Z</time>
      </trkpt>
      <trkpt lat="46.12756" lon="3.10965">
        <ele>324.1</ele>
        <time>2021-08-14T07:07:06Z</time>
      </trkpt>
      <trkpt lat="46.12758" lon="3.10965">
        <ele>324.58</ele>
        <time>2021-08-14T07:07:08Z</time>
      </trkpt>
      <trkpt lat="46.1276" lon="3.10965">
        <ele>325.06</ele>
        <time>2021-08-14T07:07:09Z</time>
      </trkpt>
      <trkpt lat="46.12761" lon="3.10966">
        <ele>325.06</ele>
        <time>2021-08-14T07:07:10Z</time>
      </trkpt>
      <trkpt lat="46.12763" lon="3.10966">
        <ele>325.06</ele>
        <time>2021-08-14T07:07:11Z</time>
      </trkpt>
      <trkpt lat="46.12764" lon="3.10966">
        <ele>325.06</ele>
        <time>2021-08-14T07:07:12Z</time>
      </trkpt>
      <trkpt lat="46.12766" lon="3.10966">
        <ele>325.54</ele>
        <time>2021-08-14T07:07:13Z</time>
      </trkpt>
      <trkpt lat="46.12767" lon="3.10967">
        <ele>325.54</ele>
        <time>2021-08-14T07:07:14Z</time>
      </trkpt>
      <trkpt lat="46.12769" lon="3.10967">
        <ele>326.02</ele>
        <time>2021-08-14T07:07:15Z</time>
      </trkpt>
      <trkpt lat="46.1277" lon="3.10967">
        <ele>326.02</ele>
        <time>2021-08-14T07:07:16Z</time>
      </trkpt>
      <trkpt lat="46.12772" lon="3.10968">
        <ele>326.5</ele>
        <time>2021-08-14T07:07:17Z</time>
      </trkpt>
      <trkpt lat="46.12784" lon="3.10974">
        <ele>328.43</ele>
        <time>2021-08-14T07:07:26Z</time>
      </trkpt>
      <trkpt lat="46.12784" lon="3.10976">
        <ele>328.43</ele>
        <time>2021-08-14T07:07:27Z</time>
      </trkpt>
      <trkpt lat="46.12784" lon="3.10977">
        <ele>328.43</ele>
        <time>2021-08-14T07:07:28Z</time>
      </trkpt>
      <trkpt lat="46.12784" lon="3.10979">
        <ele>328.43</ele>
        <time>2021-08-14T07:07:29Z</time>
      </trkpt>
      <trkpt lat="46.12784" lon="3.10981">
        <ele>329.87</ele>
        <time>2021-08-14T07:07:30Z</time>
      </trkpt>
      <trkpt lat="46.12784" lon="3.10983">
        <ele>329.87</ele>
        <time>2021-08-14T07:07:31Z</time>
      </trkpt>
      <trkpt lat="46.12786" lon="3.10985">
        <ele>329.87</ele>
        <time>2021-08-14T07:07:32Z</time>
      </trkpt>
      <trkpt lat="46.12788" lon="3.10986">
        <ele>329.87</ele>
        <time>2021-08-14T07:07:33Z</time>
      </trkpt>
      <trkpt lat="46.1279" lon="3.10986">
        <ele>329.87</ele>
        <time>2021-08-14T07:07:34Z</time>
      </trkpt>
      <trkpt lat="46.12792" lon="3.10986">
        <ele>329.87</ele>
        <time>2021-08-14T07:07:35Z</time>
      </trkpt>
      <trkpt lat="46.12794" lon="3.10985">
        <ele>329.87</ele>
        <time>2021-08-14T07:07:36Z</time>
      </trkpt>
      <trkpt lat="46.12796" lon="3.10984">
        <ele>329.87</ele>
        <time>2021-08-14T07:07:37Z</time>
      </trkpt>
      <trkpt lat="46.12798" lon="3.10982">
        <ele>329.87</ele>
        <time>2021-08-14T07:07:38Z</time>
      </trkpt>
      <trkpt lat="46.12799" lon="3.10981">
        <ele>329.87</ele>
        <time>2021-08-14T07:07:39Z</time>
      </trkpt>
      <trkpt lat="46.128" lon="3.10979">
        <ele>329.87</ele>
        <time>2021-08-14T07:07:40Z</time>
      </trkpt>
      <trkpt lat="46.12802" lon="3.10977">
        <ele>330.35</ele>
        <time>2021-08-14T07:07:41Z</time>
      </trkpt>
      <trkpt lat="46.12803" lon="3.10975">
        <ele>330.35</ele>
        <time>2021-08-14T07:07:42Z</time>
      </trkpt>
      <trkpt lat="46.12815" lon="3.10957">
        <ele>331.79</ele>
        <time>2021-08-14T07:07:51Z</time>
      </trkpt>
      <trkpt lat="46.12829" lon="3.10933">
        <ele>332.75</ele>
        <time>2021-08-14T07:08:01Z</time>
      </trkpt>
      <trkpt lat="46.12841" lon="3.10917">
        <ele>333.71</ele>
        <time>2021-08-14T07:08:09Z</time>
      </trkpt>
      <trkpt lat="46.12856" lon="3.10903">
        <ele>333.71</ele>
        <time>2021-08-14T07:08:15Z</time>
      </trkpt>
      <trkpt lat="46.12876" lon="3.1089">
        <ele>333.71</ele>
        <time>2021-08-14T07:08:22Z</time>
      </trkpt>
      <trkpt lat="46.12892" lon="3.10886">
        <ele>334.68</ele>
        <time>2021-08-14T07:08:28Z</time>
      </trkpt>
      <trkpt lat="46.12917" lon="3.10893">
        <ele>335.64</ele>
        <time>2021-08-14T07:08:37Z</time>
      </trkpt>
      <trkpt lat="46.12942" lon="3.10907">
        <ele>337.08</ele>
        <time>2021-08-14T07:08:47Z</time>
      </trkpt>
      <trkpt lat="46.12953" lon="3.10914">
        <ele>338.52</ele>
        <time>2021-08-14T07:08:55Z</time>
      </trkpt>
      <trkpt lat="46.12966" lon="3.10919">
        <ele>339.96</ele>
        <time>2021-08-14T07:09:05Z</time>
      </trkpt>
      <trkpt lat="46.12977" lon="3.1092">
        <ele>341.89</ele>
        <time>2021-08-14T07:09:14Z</time>
      </trkpt>
      <trkpt lat="46.12982" lon="3.10919">
        <ele>342.37</ele>
        <time>2021-08-14T07:09:18Z</time>
      </trkpt>
      <trkpt lat="46.12986" lon="3.10916">
        <ele>342.85</ele>
        <time>2021-08-14T07:09:22Z</time>
      </trkpt>
      <trkpt lat="46.12994" lon="3.10911">
        <ele>343.81</ele>
        <time>2021-08-14T07:09:28Z</time>
      </trkpt>
      <trkpt lat="46.12995" lon="3.10909">
        <ele>344.77</ele>
        <time>2021-08-14T07:09:29Z</time>
      </trkpt>
      <trkpt lat="46.12996" lon="3.10907">
        <ele>344.77</ele>
        <time>2021-08-14T07:09:30Z</time>
      </trkpt>
      <trkpt lat="46.13006" lon="3.10891">
        <ele>346.21</ele>
        <time>2021-08-14T07:09:39Z</time>
      </trkpt>
      <trkpt lat="46.13019" lon="3.10864">
        <ele>348.13</ele>
        <time>2021-08-14T07:09:51Z</time>
      </trkpt>
      <trkpt lat="46.13027" lon="3.10841">
        <ele>350.06</ele>
        <time>2021-08-14T07:10:01Z</time>
      </trkpt>
      <trkpt lat="46.13034" lon="3.10814">
        <ele>351.02</ele>
        <time>2021-08-14T07:10:10Z</time>
      </trkpt>
      <trkpt lat="46.13043" lon="3.10781">
        <ele>351.5</ele>
        <time>2021-08-14T07:10:19Z</time>
      </trkpt>
      <trkpt lat="46.13056" lon="3.10757">
        <ele>351.02</ele>
        <time>2021-08-14T07:10:26Z</time>
      </trkpt>
      <trkpt lat="46.13074" lon="3.10736">
        <ele>351.5</ele>
        <time>2021-08-14T07:10:33Z</time>
      </trkpt>
      <trkpt lat="46.13086" lon="3.1071">
        <ele>351.98</ele>
        <time>2021-08-14T07:10:39Z</time>
      </trkpt>
      <trkpt lat="46.1309" lon="3.10687">
        <ele>351.98</ele>
        <time>2021-08-14T07:10:43Z</time>
      </trkpt>
      <trkpt lat="46.1309" lon="3.1068">
        <ele>351.98</ele>
        <time>2021-08-14T07:10:44Z</time>
      </trkpt>
      <trkpt lat="46.13091" lon="3.10674">
        <ele>351.98</ele>
        <time>2021-08-14T07:10:45Z</time>
      </trkpt>
      <trkpt lat="46.13086" lon="3.10624">
        <ele>351.98</ele>
        <time>2021-08-14T07:10:53Z</time>
      </trkpt>
      <trkpt lat="46.13074" lon="3.10573">
        <ele>351.02</ele>
        <time>2021-08-14T07:11:01Z</time>
      </trkpt>
      <trkpt lat="46.1307" lon="3.10561">
        <ele>351.02</ele>
        <time>2021-08-14T07:11:03Z</time>
      </trkpt>
      <trkpt lat="46.13068" lon="3.10555">
        <ele>350.06</ele>
        <time>2021-08-14T07:11:04Z</time>
      </trkpt>
      <trkpt lat="46.13066" lon="3.10548">
        <ele>349.58</ele>
        <time>2021-08-14T07:11:05Z</time>
      </trkpt>
      <trkpt lat="46.13057" lon="3.10511">
        <ele>346.21</ele>
        <time>2021-08-14T07:11:09Z</time>
      </trkpt>
      <trkpt lat="46.13046" lon="3.10473">
        <ele>341.89</ele>
        <time>2021-08-14T07:11:13Z</time>
      </trkpt>
      <trkpt lat="46.13042" lon="3.10453">
        <ele>338.04</ele>
        <time>2021-08-14T07:11:15Z</time>
      </trkpt>
      <trkpt lat="46.13035" lon="3.10424">
        <ele>334.2</ele>
        <time>2021-08-14T07:11:18Z</time>
      </trkpt>
      <trkpt lat="46.1303" lon="3.10399">
        <ele>331.31</ele>
        <time>2021-08-14T07:11:20Z</time>
      </trkpt>
      <trkpt lat="46.13023" lon="3.10361">
        <ele>327.47</ele>
        <time>2021-08-14T07:11:23Z</time>
      </trkpt>
      <trkpt lat="46.13015" lon="3.10321">
        <ele>324.1</ele>
        <time>2021-08-14T07:11:26Z</time>
      </trkpt>
      <trkpt lat="46.13004" lon="3.10267">
        <ele>320.26</ele>
        <time>2021-08-14T07:11:30Z</time>
      </trkpt>
      <trkpt lat="46.13002" lon="3.10253">
        <ele>320.26</ele>
        <time>2021-08-14T07:11:31Z</time>
      </trkpt>
      <trkpt lat="46.12986" lon="3.10166">
        <ele>318.33</ele>
        <time>2021-08-14T07:11:38Z</time>
      </trkpt>
      <trkpt lat="46.12984" lon="3.10144">
        <ele>317.85</ele>
        <time>2021-08-14T07:11:40Z</time>
      </trkpt>
      <trkpt lat="46.12976" lon="3.10062">
        <ele>316.41</ele>
        <time>2021-08-14T07:11:48Z</time>
      </trkpt>
      <trkpt lat="46.12974" lon="3.1003">
        <ele>316.41</ele>
        <time>2021-08-14T07:11:52Z</time>
      </trkpt>
      <trkpt lat="46.12974" lon="3.10023">
        <ele>316.41</ele>
        <time>2021-08-14T07:11:53Z</time>
      </trkpt>
      <trkpt lat="46.1297" lon="3.09979">
        <ele>316.41</ele>
        <time>2021-08-14T07:12:01Z</time>
      </trkpt>
      <trkpt lat="46.12965" lon="3.09933">
        <ele>316.41</ele>
        <time>2021-08-14T07:12:10Z</time>
      </trkpt>
      <trkpt lat="46.12958" lon="3.09909">
        <ele>316.41</ele>
        <time>2021-08-14T07:12:16Z</time>
      </trkpt>
      <trkpt lat="46.12944" lon="3.09903">
        <ele>315.93</ele>
        <time>2021-08-14T07:12:21Z</time>
      </trkpt>
      <trkpt lat="46.12928" lon="3.09906">
        <ele>315.45</ele>
        <time>2021-08-14T07:12:25Z</time>
      </trkpt>
      <trkpt lat="46.12924" lon="3.09905">
        <ele>315.45</ele>
        <time>2021-08-14T07:12:26Z</time>
      </trkpt>
      <trkpt lat="46.12919" lon="3.09904">
        <ele>315.45</ele>
        <time>2021-08-14T07:12:27Z</time>
      </trkpt>
      <trkpt lat="46.12917" lon="3.09901">
        <ele>315.45</ele>
        <time>2021-08-14T07:12:28Z</time>
      </trkpt>
      <trkpt lat="46.12915" lon="3.09898">
        <ele>315.45</ele>
        <time>2021-08-14T07:12:29Z</time>
      </trkpt>
      <trkpt lat="46.12913" lon="3.09896">
        <ele>315.45</ele>
        <time>2021-08-14T07:12:30Z</time>
      </trkpt>
      <trkpt lat="46.12913" lon="3.09895">
        <ele>315.45</ele>
        <time>2021-08-14T07:12:34Z</time>
      </trkpt>
      <trkpt lat="46.12914" lon="3.09892">
        <ele>315.45</ele>
        <time>2021-08-14T07:12:40Z</time>
      </trkpt>
      <trkpt lat="46.12917" lon="3.09889">
        <ele>315.45</ele>
        <time>2021-08-14T07:12:47Z</time>
      </trkpt>
      <trkpt lat="46.12915" lon="3.09883">
        <ele>315.45</ele>
        <time>2021-08-14T07:12:52Z</time>
      </trkpt>
      <trkpt lat="46.12913" lon="3.09871">
        <ele>315.45</ele>
        <time>2021-08-14T07:12:59Z</time>
      </trkpt>
      <trkpt lat="46.12913" lon="3.09858">
        <ele>316.41</ele>
        <time>2021-08-14T07:13:08Z</time>
      </trkpt>
      <trkpt lat="46.12912" lon="3.09859">
        <ele>316.41</ele>
        <time>2021-08-14T07:13:16Z</time>
      </trkpt>
      <trkpt lat="46.12912" lon="3.0986">
        <ele>316.41</ele>
        <time>2021-08-14T07:13:38Z</time>
      </trkpt>
      <trkpt lat="46.12913" lon="3.09855">
        <ele>316.89</ele>
        <time>2021-08-14T07:14:05Z</time>
      </trkpt>
      <trkpt lat="46.12912" lon="3.09854">
        <ele>316.89</ele>
        <time>2021-08-14T07:14:12Z</time>
      </trkpt>
      <trkpt lat="46.12911" lon="3.09856">
        <ele>316.89</ele>
        <time>2021-08-14T07:14:29Z</time>
      </trkpt>
      <trkpt lat="46.1291" lon="3.09855">
        <ele>316.89</ele>
        <time>2021-08-14T07:14:48Z</time>
      </trkpt>
      <trkpt lat="46.12912" lon="3.09852">
        <ele>316.89</ele>
        <time>2021-08-14T07:15:06Z</time>
      </trkpt>
      <trkpt lat="46.12913" lon="3.09852">
        <ele>316.89</ele>
        <time>2021-08-14T07:15:33Z</time>
      </trkpt>
      <trkpt lat="46.12914" lon="3.09851">
        <ele>316.89</ele>
        <time>2021-08-14T07:16:04Z</time>
      </trkpt>
      <trkpt lat="46.12914" lon="3.0985">
        <ele>316.89</ele>
        <time>2021-08-14T07:16:18Z</time>
      </trkpt>
      <trkpt lat="46.12914" lon="3.09852">
        <ele>316.89</ele>
        <time>2021-08-14T07:16:33Z</time>
      </trkpt>
      <trkpt lat="46.12914" lon="3.09852">
        <ele>316.89</ele>
        <time>2021-08-14T07:16:41Z</time>
      </trkpt>
      <trkpt lat="46.12915" lon="3.09851">
        <ele>316.89</ele>
        <time>2021-08-14T07:16:42Z</time>
      </trkpt>
      <trkpt lat="46.12915" lon="3.09849">
        <ele>316.89</ele>
        <time>2021-08-14T07:16:43Z</time>
      </trkpt>
      <trkpt lat="46.12916" lon="3.09847">
        <ele>316.89</ele>
        <time>2021-08-14T07:16:44Z</time>
      </trkpt>
      <trkpt lat="46.12917" lon="3.09845">
        <ele>316.89</ele>
        <time>2021-08-14T07:16:45Z</time>
      </trkpt>
      <trkpt lat="46.12918" lon="3.09842">
        <ele>316.89</ele>
        <time>2021-08-14T07:16:46Z</time>
      </trkpt>
      <trkpt lat="46.12919" lon="3.09839">
        <ele>316.89</ele>
        <time>2021-08-14T07:16:47Z</time>
      </trkpt>
      <trkpt lat="46.1292" lon="3.09836">
        <ele>316.89</ele>
        <time>2021-08-14T07:16:48Z</time>
      </trkpt>
      <trkpt lat="46.1292" lon="3.09833">
        <ele>317.37</ele>
        <time>2021-08-14T07:16:49Z</time>
      </trkpt>
      <trkpt lat="46.12924" lon="3.09817">
        <ele>318.33</ele>
        <time>2021-08-14T07:16:56Z</time>
      </trkpt>
      <trkpt lat="46.12927" lon="3.09807">
        <ele>319.3</ele>
        <time>2021-08-14T07:17:01Z</time>
      </trkpt>
      <trkpt lat="46.12928" lon="3.09806">
        <ele>319.3</ele>
        <time>2021-08-14T07:17:02Z</time>
      </trkpt>
      <trkpt lat="46.12929" lon="3.09804">
        <ele>319.3</ele>
        <time>2021-08-14T07:17:04Z</time>
      </trkpt>
      <trkpt lat="46.12927" lon="3.09802">
        <ele>319.78</ele>
        <time>2021-08-14T07:17:09Z</time>
      </trkpt>
      <trkpt lat="46.12927" lon="3.09805">
        <ele>319.78</ele>
        <time>2021-08-14T07:17:11Z</time>
      </trkpt>
      <trkpt lat="46.12926" lon="3.09808">
        <ele>319.78</ele>
        <time>2021-08-14T07:17:12Z</time>
      </trkpt>
      <trkpt lat="46.12926" lon="3.09811">
        <ele>319.78</ele>
        <time>2021-08-14T07:17:13Z</time>
      </trkpt>
      <trkpt lat="46.12925" lon="3.09815">
        <ele>318.33</ele>
        <time>2021-08-14T07:17:14Z</time>
      </trkpt>
      <trkpt lat="46.12924" lon="3.09819">
        <ele>318.33</ele>
        <time>2021-08-14T07:17:15Z</time>
      </trkpt>
      <trkpt lat="46.12922" lon="3.0983">
        <ele>317.37</ele>
        <time>2021-08-14T07:17:17Z</time>
      </trkpt>
      <trkpt lat="46.1292" lon="3.09836">
        <ele>317.37</ele>
        <time>2021-08-14T07:17:18Z</time>
      </trkpt>
      <trkpt lat="46.12917" lon="3.09842">
        <ele>316.89</ele>
        <time>2021-08-14T07:17:19Z</time>
      </trkpt>
      <trkpt lat="46.12912" lon="3.09853">
        <ele>316.89</ele>
        <time>2021-08-14T07:17:21Z</time>
      </trkpt>
      <trkpt lat="46.12909" lon="3.09857">
        <ele>316.89</ele>
        <time>2021-08-14T07:17:22Z</time>
      </trkpt>
      <trkpt lat="46.12906" lon="3.0986">
        <ele>316.89</ele>
        <time>2021-08-14T07:17:23Z</time>
      </trkpt>
      <trkpt lat="46.12902" lon="3.09864">
        <ele>316.89</ele>
        <time>2021-08-14T07:17:24Z</time>
      </trkpt>
      <trkpt lat="46.12898" lon="3.09867">
        <ele>316.89</ele>
        <time>2021-08-14T07:17:25Z</time>
      </trkpt>
      <trkpt lat="46.12895" lon="3.0987">
        <ele>316.89</ele>
        <time>2021-08-14T07:17:26Z</time>
      </trkpt>
      <trkpt lat="46.12876" lon="3.09891">
        <ele>316.41</ele>
        <time>2021-08-14T07:17:33Z</time>
      </trkpt>
      <trkpt lat="46.12867" lon="3.09894">
        <ele>316.41</ele>
        <time>2021-08-14T07:17:35Z</time>
      </trkpt>
      <trkpt lat="46.12863" lon="3.09895">
        <ele>316.41</ele>
        <time>2021-08-14T07:17:36Z</time>
      </trkpt>
      <trkpt lat="46.12842" lon="3.09899">
        <ele>315.93</ele>
        <time>2021-08-14T07:17:41Z</time>
      </trkpt>
      <trkpt lat="46.12837" lon="3.09899">
        <ele>315.93</ele>
        <time>2021-08-14T07:17:42Z</time>
      </trkpt>
      <trkpt lat="46.12808" lon="3.09904">
        <ele>315.93</ele>
        <time>2021-08-14T07:17:49Z</time>
      </trkpt>
      <trkpt lat="46.128" lon="3.09907">
        <ele>315.93</ele>
        <time>2021-08-14T07:17:51Z</time>
      </trkpt>
      <trkpt lat="46.12786" lon="3.09912">
        <ele>315.93</ele>
        <time>2021-08-14T07:17:54Z</time>
      </trkpt>
      <trkpt lat="46.12782" lon="3.09912">
        <ele>315.93</ele>
        <time>2021-08-14T07:17:55Z</time>
      </trkpt>
      <trkpt lat="46.12778" lon="3.0991">
        <ele>315.93</ele>
        <time>2021-08-14T07:17:56Z</time>
      </trkpt>
      <trkpt lat="46.12775" lon="3.09907">
        <ele>315.93</ele>
        <time>2021-08-14T07:17:57Z</time>
      </trkpt>
      <trkpt lat="46.12773" lon="3.09905">
        <ele>315.93</ele>
        <time>2021-08-14T07:17:58Z</time>
      </trkpt>
      <trkpt lat="46.1277" lon="3.09902">
        <ele>315.93</ele>
        <time>2021-08-14T07:17:59Z</time>
      </trkpt>
      <trkpt lat="46.12744" lon="3.09871">
        <ele>315.93</ele>
        <time>2021-08-14T07:18:07Z</time>
      </trkpt>
      <trkpt lat="46.1274" lon="3.09867">
        <ele>315.93</ele>
        <time>2021-08-14T07:18:08Z</time>
      </trkpt>
      <trkpt lat="46.12699" lon="3.09837">
        <ele>314.97</ele>
        <time>2021-08-14T07:18:17Z</time>
      </trkpt>
      <trkpt lat="46.12653" lon="3.09811">
        <ele>314.49</ele>
        <time>2021-08-14T07:18:26Z</time>
      </trkpt>
      <trkpt lat="46.12606" lon="3.09783">
        <ele>314.01</ele>
        <time>2021-08-14T07:18:35Z</time>
      </trkpt>
      <trkpt lat="46.12563" lon="3.09757">
        <ele>314.01</ele>
        <time>2021-08-14T07:18:44Z</time>
      </trkpt>
      <trkpt lat="46.12539" lon="3.09743">
        <ele>314.01</ele>
        <time>2021-08-14T07:18:50Z</time>
      </trkpt>
      <trkpt lat="46.12506" lon="3.09724">
        <ele>313.53</ele>
        <time>2021-08-14T07:18:58Z</time>
      </trkpt>
      <trkpt lat="46.12469" lon="3.09704">
        <ele>313.53</ele>
        <time>2021-08-14T07:19:07Z</time>
      </trkpt>
      <trkpt lat="46.12426" lon="3.09677">
        <ele>313.53</ele>
        <time>2021-08-14T07:19:17Z</time>
      </trkpt>
      <trkpt lat="46.12384" lon="3.09654">
        <ele>313.53</ele>
        <time>2021-08-14T07:19:26Z</time>
      </trkpt>
      <trkpt lat="46.12336" lon="3.09625">
        <ele>313.53</ele>
        <time>2021-08-14T07:19:36Z</time>
      </trkpt>
      <trkpt lat="46.12288" lon="3.09596">
        <ele>313.53</ele>
        <time>2021-08-14T07:19:46Z</time>
      </trkpt>
      <trkpt lat="46.12237" lon="3.09565">
        <ele>313.53</ele>
        <time>2021-08-14T07:19:56Z</time>
      </trkpt>
      <trkpt lat="46.12187" lon="3.09536">
        <ele>313.53</ele>
        <time>2021-08-14T07:20:06Z</time>
      </trkpt>
      <trkpt lat="46.12146" lon="3.0951">
        <ele>313.53</ele>
        <time>2021-08-14T07:20:14Z</time>
      </trkpt>
      <trkpt lat="46.12097" lon="3.09481">
        <ele>313.53</ele>
        <time>2021-08-14T07:20:24Z</time>
      </trkpt>
      <trkpt lat="46.12063" lon="3.09462">
        <ele>313.53</ele>
        <time>2021-08-14T07:20:32Z</time>
      </trkpt>
      <trkpt lat="46.12059" lon="3.0946">
        <ele>313.53</ele>
        <time>2021-08-14T07:20:33Z</time>
      </trkpt>
      <trkpt lat="46.1203" lon="3.09443">
        <ele>313.53</ele>
        <time>2021-08-14T07:20:41Z</time>
      </trkpt>
      <trkpt lat="46.12022" lon="3.09438">
        <ele>313.53</ele>
        <time>2021-08-14T07:20:43Z</time>
      </trkpt>
      <trkpt lat="46.12018" lon="3.09435">
        <ele>313.53</ele>
        <time>2021-08-14T07:20:44Z</time>
      </trkpt>
      <trkpt lat="46.11983" lon="3.09403">
        <ele>313.53</ele>
        <time>2021-08-14T07:20:53Z</time>
      </trkpt>
      <trkpt lat="46.11947" lon="3.09365">
        <ele>313.05</ele>
        <time>2021-08-14T07:21:02Z</time>
      </trkpt>
      <trkpt lat="46.11911" lon="3.0933">
        <ele>313.05</ele>
        <time>2021-08-14T07:21:11Z</time>
      </trkpt>
      <trkpt lat="46.11884" lon="3.093">
        <ele>313.05</ele>
        <time>2021-08-14T07:21:18Z</time>
      </trkpt>
      <trkpt lat="46.11859" lon="3.09274">
        <ele>313.05</ele>
        <time>2021-08-14T07:21:24Z</time>
      </trkpt>
      <trkpt lat="46.11852" lon="3.09264">
        <ele>313.05</ele>
        <time>2021-08-14T07:21:26Z</time>
      </trkpt>
      <trkpt lat="46.11849" lon="3.09258">
        <ele>313.05</ele>
        <time>2021-08-14T07:21:27Z</time>
      </trkpt>
      <trkpt lat="46.11824" lon="3.09208">
        <ele>313.05</ele>
        <time>2021-08-14T07:21:36Z</time>
      </trkpt>
      <trkpt lat="46.11822" lon="3.09203">
        <ele>313.05</ele>
        <time>2021-08-14T07:21:37Z</time>
      </trkpt>
      <trkpt lat="46.11819" lon="3.09198">
        <ele>314.49</ele>
        <time>2021-08-14T07:21:38Z</time>
      </trkpt>
      <trkpt lat="46.11817" lon="3.09193">
        <ele>314.49</ele>
        <time>2021-08-14T07:21:39Z</time>
      </trkpt>
      <trkpt lat="46.11814" lon="3.09182">
        <ele>314.49</ele>
        <time>2021-08-14T07:21:41Z</time>
      </trkpt>
      <trkpt lat="46.11802" lon="3.09123">
        <ele>314.49</ele>
        <time>2021-08-14T07:21:50Z</time>
      </trkpt>
      <trkpt lat="46.11799" lon="3.09109">
        <ele>314.49</ele>
        <time>2021-08-14T07:21:52Z</time>
      </trkpt>
      <trkpt lat="46.11798" lon="3.09104">
        <ele>314.49</ele>
        <time>2021-08-14T07:21:53Z</time>
      </trkpt>
      <trkpt lat="46.11797" lon="3.09097">
        <ele>314.49</ele>
        <time>2021-08-14T07:21:54Z</time>
      </trkpt>
      <trkpt lat="46.11796" lon="3.09091">
        <ele>314.49</ele>
        <time>2021-08-14T07:21:55Z</time>
      </trkpt>
      <trkpt lat="46.11794" lon="3.09086">
        <ele>314.49</ele>
        <time>2021-08-14T07:21:56Z</time>
      </trkpt>
      <trkpt lat="46.11794" lon="3.09077">
        <ele>314.49</ele>
        <time>2021-08-14T07:21:58Z</time>
      </trkpt>
      <trkpt lat="46.11795" lon="3.09075">
        <ele>314.49</ele>
        <time>2021-08-14T07:21:59Z</time>
      </trkpt>
      <trkpt lat="46.11796" lon="3.09073">
        <ele>314.49</ele>
        <time>2021-08-14T07:22:00Z</time>
      </trkpt>
      <trkpt lat="46.11798" lon="3.09072">
        <ele>314.97</ele>
        <time>2021-08-14T07:22:05Z</time>
      </trkpt>
      <trkpt lat="46.11799" lon="3.09073">
        <ele>314.97</ele>
        <time>2021-08-14T07:22:06Z</time>
      </trkpt>
      <trkpt lat="46.11799" lon="3.09075">
        <ele>314.97</ele>
        <time>2021-08-14T07:22:07Z</time>
      </trkpt>
      <trkpt lat="46.11795" lon="3.09079">
        <ele>314.97</ele>
        <time>2021-08-14T07:22:10Z</time>
      </trkpt>
      <trkpt lat="46.11793" lon="3.09077">
        <ele>314.49</ele>
        <time>2021-08-14T07:22:11Z</time>
      </trkpt>
      <trkpt lat="46.11791" lon="3.09075">
        <ele>314.49</ele>
        <time>2021-08-14T07:22:12Z</time>
      </trkpt>
      <trkpt lat="46.1179" lon="3.09073">
        <ele>314.49</ele>
        <time>2021-08-14T07:22:13Z</time>
      </trkpt>
      <trkpt lat="46.11788" lon="3.09069">
        <ele>314.49</ele>
        <time>2021-08-14T07:22:14Z</time>
      </trkpt>
      <trkpt lat="46.11787" lon="3.09064">
        <ele>314.49</ele>
        <time>2021-08-14T07:22:15Z</time>
      </trkpt>
      <trkpt lat="46.11787" lon="3.09059">
        <ele>314.49</ele>
        <time>2021-08-14T07:22:16Z</time>
      </trkpt>
      <trkpt lat="46.11786" lon="3.09054">
        <ele>314.49</ele>
        <time>2021-08-14T07:22:17Z</time>
      </trkpt>
      <trkpt lat="46.11785" lon="3.09049">
        <ele>314.49</ele>
        <time>2021-08-14T07:22:18Z</time>
      </trkpt>
      <trkpt lat="46.11784" lon="3.09044">
        <ele>314.49</ele>
        <time>2021-08-14T07:22:19Z</time>
      </trkpt>
      <trkpt lat="46.11781" lon="3.09028">
        <ele>314.49</ele>
        <time>2021-08-14T07:22:22Z</time>
      </trkpt>
      <trkpt lat="46.11774" lon="3.09005">
        <ele>314.49</ele>
        <time>2021-08-14T07:22:26Z</time>
      </trkpt>
      <trkpt lat="46.11766" lon="3.08967">
        <ele>314.49</ele>
        <time>2021-08-14T07:22:32Z</time>
      </trkpt>
      <trkpt lat="46.11756" lon="3.08909">
        <ele>314.49</ele>
        <time>2021-08-14T07:22:41Z</time>
      </trkpt>
      <trkpt lat="46.11748" lon="3.08867">
        <ele>314.49</ele>
        <time>2021-08-14T07:22:48Z</time>
      </trkpt>
      <trkpt lat="46.11745" lon="3.08862">
        <ele>314.49</ele>
        <time>2021-08-14T07:22:49Z</time>
      </trkpt>
      <trkpt lat="46.11743" lon="3.08861">
        <ele>314.49</ele>
        <time>2021-08-14T07:22:50Z</time>
      </trkpt>
      <trkpt lat="46.11743" lon="3.08861">
        <ele>314.49</ele>
        <time>2021-08-14T07:22:55Z</time>
      </trkpt>
      <trkpt lat="46.11744" lon="3.08858">
        <ele>314.49</ele>
        <time>2021-08-14T07:23:00Z</time>
      </trkpt>
      <trkpt lat="46.11744" lon="3.08841">
        <ele>314.49</ele>
        <time>2021-08-14T07:23:07Z</time>
      </trkpt>
      <trkpt lat="46.11734" lon="3.08823">
        <ele>314.49</ele>
        <time>2021-08-14T07:23:15Z</time>
      </trkpt>
      <trkpt lat="46.11715" lon="3.08819">
        <ele>314.49</ele>
        <time>2021-08-14T07:23:21Z</time>
      </trkpt>
      <trkpt lat="46.11681" lon="3.08814">
        <ele>314.49</ele>
        <time>2021-08-14T07:23:29Z</time>
      </trkpt>
      <trkpt lat="46.11663" lon="3.08812">
        <ele>314.49</ele>
        <time>2021-08-14T07:23:33Z</time>
      </trkpt>
      <trkpt lat="46.11627" lon="3.08809">
        <ele>314.49</ele>
        <time>2021-08-14T07:23:42Z</time>
      </trkpt>
      <trkpt lat="46.11614" lon="3.08812">
        <ele>314.49</ele>
        <time>2021-08-14T07:23:46Z</time>
      </trkpt>
      <trkpt lat="46.11596" lon="3.08844">
        <ele>314.49</ele>
        <time>2021-08-14T07:23:54Z</time>
      </trkpt>
      <trkpt lat="46.11563" lon="3.08896">
        <ele>314.49</ele>
        <time>2021-08-14T07:24:04Z</time>
      </trkpt>
      <trkpt lat="46.11532" lon="3.08947">
        <ele>314.49</ele>
        <time>2021-08-14T07:24:14Z</time>
      </trkpt>
      <trkpt lat="46.1152" lon="3.08968">
        <ele>315.93</ele>
        <time>2021-08-14T07:24:21Z</time>
      </trkpt>
      <trkpt lat="46.11504" lon="3.08998">
        <ele>317.37</ele>
        <time>2021-08-14T07:24:30Z</time>
      </trkpt>
      <trkpt lat="46.11487" lon="3.09026">
        <ele>317.85</ele>
        <time>2021-08-14T07:24:37Z</time>
      </trkpt>
      <trkpt lat="46.11468" lon="3.0906">
        <ele>317.85</ele>
        <time>2021-08-14T07:24:44Z</time>
      </trkpt>
      <trkpt lat="46.11443" lon="3.09102">
        <ele>315.93</ele>
        <time>2021-08-14T07:24:52Z</time>
      </trkpt>
      <trkpt lat="46.11439" lon="3.09105">
        <ele>315.93</ele>
        <time>2021-08-14T07:24:53Z</time>
      </trkpt>
      <trkpt lat="46.11435" lon="3.09107">
        <ele>315.45</ele>
        <time>2021-08-14T07:24:54Z</time>
      </trkpt>
      <trkpt lat="46.1143" lon="3.09106">
        <ele>315.45</ele>
        <time>2021-08-14T07:24:55Z</time>
      </trkpt>
      <trkpt lat="46.11427" lon="3.09104">
        <ele>314.97</ele>
        <time>2021-08-14T07:24:56Z</time>
      </trkpt>
      <trkpt lat="46.11424" lon="3.09098">
        <ele>314.97</ele>
        <time>2021-08-14T07:24:57Z</time>
      </trkpt>
      <trkpt lat="46.11423" lon="3.09093">
        <ele>314.01</ele>
        <time>2021-08-14T07:24:58Z</time>
      </trkpt>
      <trkpt lat="46.11421" lon="3.09086">
        <ele>314.01</ele>
        <time>2021-08-14T07:24:59Z</time>
      </trkpt>
      <trkpt lat="46.1142" lon="3.09079">
        <ele>313.53</ele>
        <time>2021-08-14T07:25:00Z</time>
      </trkpt>
      <trkpt lat="46.11413" lon="3.09052">
        <ele>313.53</ele>
        <time>2021-08-14T07:25:04Z</time>
      </trkpt>
      <trkpt lat="46.11411" lon="3.09046">
        <ele>313.53</ele>
        <time>2021-08-14T07:25:05Z</time>
      </trkpt>
      <trkpt lat="46.11389" lon="3.08999">
        <ele>313.53</ele>
        <time>2021-08-14T07:25:13Z</time>
      </trkpt>
      <trkpt lat="46.11363" lon="3.08939">
        <ele>313.53</ele>
        <time>2021-08-14T07:25:22Z</time>
      </trkpt>
      <trkpt lat="46.11339" lon="3.08875">
        <ele>313.53</ele>
        <time>2021-08-14T07:25:32Z</time>
      </trkpt>
      <trkpt lat="46.11336" lon="3.08864">
        <ele>313.53</ele>
        <time>2021-08-14T07:25:34Z</time>
      </trkpt>
      <trkpt lat="46.11322" lon="3.08813">
        <ele>313.53</ele>
        <time>2021-08-14T07:25:42Z</time>
      </trkpt>
      <trkpt lat="46.11313" lon="3.0879">
        <ele>313.53</ele>
        <time>2021-08-14T07:25:47Z</time>
      </trkpt>
      <trkpt lat="46.1131" lon="3.08789">
        <ele>313.53</ele>
        <time>2021-08-14T07:25:48Z</time>
      </trkpt>
      <trkpt lat="46.11307" lon="3.08789">
        <ele>313.53</ele>
        <time>2021-08-14T07:25:49Z</time>
      </trkpt>
      <trkpt lat="46.11303" lon="3.08791">
        <ele>313.53</ele>
        <time>2021-08-14T07:25:50Z</time>
      </trkpt>
      <trkpt lat="46.11301" lon="3.08793">
        <ele>313.53</ele>
        <time>2021-08-14T07:25:51Z</time>
      </trkpt>
      <trkpt lat="46.11298" lon="3.08796">
        <ele>313.53</ele>
        <time>2021-08-14T07:25:52Z</time>
      </trkpt>
      <trkpt lat="46.11295" lon="3.08798">
        <ele>313.53</ele>
        <time>2021-08-14T07:25:53Z</time>
      </trkpt>
      <trkpt lat="46.11277" lon="3.08811">
        <ele>314.97</ele>
        <time>2021-08-14T07:25:59Z</time>
      </trkpt>
      <trkpt lat="46.11271" lon="3.08815">
        <ele>314.97</ele>
        <time>2021-08-14T07:26:01Z</time>
      </trkpt>
      <trkpt lat="46.11268" lon="3.08813">
        <ele>314.97</ele>
        <time>2021-08-14T07:26:02Z</time>
      </trkpt>
      <trkpt lat="46.11265" lon="3.08811">
        <ele>314.97</ele>
        <time>2021-08-14T07:26:03Z</time>
      </trkpt>
      <trkpt lat="46.11263" lon="3.08808">
        <ele>314.97</ele>
        <time>2021-08-14T07:26:04Z</time>
      </trkpt>
      <trkpt lat="46.11261" lon="3.08804">
        <ele>314.97</ele>
        <time>2021-08-14T07:26:05Z</time>
      </trkpt>
      <trkpt lat="46.11259" lon="3.088">
        <ele>314.97</ele>
        <time>2021-08-14T07:26:06Z</time>
      </trkpt>
      <trkpt lat="46.11244" lon="3.08772">
        <ele>314.97</ele>
        <time>2021-08-14T07:26:12Z</time>
      </trkpt>
      <trkpt lat="46.11241" lon="3.08767">
        <ele>314.97</ele>
        <time>2021-08-14T07:26:13Z</time>
      </trkpt>
      <trkpt lat="46.11236" lon="3.08757">
        <ele>314.97</ele>
        <time>2021-08-14T07:26:15Z</time>
      </trkpt>
      <trkpt lat="46.11233" lon="3.08752">
        <ele>314.97</ele>
        <time>2021-08-14T07:26:16Z</time>
      </trkpt>
      <trkpt lat="46.11211" lon="3.08704">
        <ele>315.45</ele>
        <time>2021-08-14T07:26:25Z</time>
      </trkpt>
      <trkpt lat="46.11188" lon="3.08661">
        <ele>315.45</ele>
        <time>2021-08-14T07:26:33Z</time>
      </trkpt>
      <trkpt lat="46.11159" lon="3.08612">
        <ele>315.45</ele>
        <time>2021-08-14T07:26:43Z</time>
      </trkpt>
      <trkpt lat="46.11156" lon="3.08607">
        <ele>315.45</ele>
        <time>2021-08-14T07:26:44Z</time>
      </trkpt>
      <trkpt lat="46.11153" lon="3.08603">
        <ele>315.45</ele>
        <time>2021-08-14T07:26:45Z</time>
      </trkpt>
      <trkpt lat="46.11149" lon="3.08601">
        <ele>315.45</ele>
        <time>2021-08-14T07:26:46Z</time>
      </trkpt>
      <trkpt lat="46.11145" lon="3.08601">
        <ele>315.45</ele>
        <time>2021-08-14T07:26:47Z</time>
      </trkpt>
      <trkpt lat="46.11141" lon="3.08603">
        <ele>315.45</ele>
        <time>2021-08-14T07:26:48Z</time>
      </trkpt>
      <trkpt lat="46.11137" lon="3.08607">
        <ele>315.45</ele>
        <time>2021-08-14T07:26:49Z</time>
      </trkpt>
      <trkpt lat="46.11133" lon="3.0861">
        <ele>315.45</ele>
        <time>2021-08-14T07:26:50Z</time>
      </trkpt>
      <trkpt lat="46.11129" lon="3.08614">
        <ele>315.45</ele>
        <time>2021-08-14T07:26:51Z</time>
      </trkpt>
      <trkpt lat="46.11125" lon="3.08616">
        <ele>315.45</ele>
        <time>2021-08-14T07:26:52Z</time>
      </trkpt>
      <trkpt lat="46.11095" lon="3.08635">
        <ele>315.45</ele>
        <time>2021-08-14T07:26:59Z</time>
      </trkpt>
      <trkpt lat="46.11091" lon="3.08637">
        <ele>315.45</ele>
        <time>2021-08-14T07:27:00Z</time>
      </trkpt>
      <trkpt lat="46.11087" lon="3.0864">
        <ele>315.45</ele>
        <time>2021-08-14T07:27:01Z</time>
      </trkpt>
      <trkpt lat="46.11043" lon="3.08662">
        <ele>315.45</ele>
        <time>2021-08-14T07:27:10Z</time>
      </trkpt>
      <trkpt lat="46.11005" lon="3.08682">
        <ele>315.45</ele>
        <time>2021-08-14T07:27:18Z</time>
      </trkpt>
      <trkpt lat="46.10985" lon="3.0869">
        <ele>315.45</ele>
        <time>2021-08-14T07:27:22Z</time>
      </trkpt>
      <trkpt lat="46.1096" lon="3.08702">
        <ele>316.41</ele>
        <time>2021-08-14T07:27:28Z</time>
      </trkpt>
      <trkpt lat="46.10939" lon="3.08713">
        <ele>317.85</ele>
        <time>2021-08-14T07:27:35Z</time>
      </trkpt>
      <trkpt lat="46.10913" lon="3.08727">
        <ele>319.3</ele>
        <time>2021-08-14T07:27:45Z</time>
      </trkpt>
      <trkpt lat="46.10893" lon="3.08738">
        <ele>319.78</ele>
        <time>2021-08-14T07:27:52Z</time>
      </trkpt>
      <trkpt lat="46.10872" lon="3.08744">
        <ele>320.26</ele>
        <time>2021-08-14T07:27:59Z</time>
      </trkpt>
      <trkpt lat="46.10852" lon="3.08734">
        <ele>320.26</ele>
        <time>2021-08-14T07:28:05Z</time>
      </trkpt>
      <trkpt lat="46.1081" lon="3.08716">
        <ele>321.22</ele>
        <time>2021-08-14T07:28:17Z</time>
      </trkpt>
      <trkpt lat="46.10785" lon="3.08705">
        <ele>321.22</ele>
        <time>2021-08-14T07:28:24Z</time>
      </trkpt>
      <trkpt lat="46.10752" lon="3.0869">
        <ele>321.7</ele>
        <time>2021-08-14T07:28:33Z</time>
      </trkpt>
      <trkpt lat="46.10725" lon="3.08676">
        <ele>322.18</ele>
        <time>2021-08-14T07:28:41Z</time>
      </trkpt>
      <trkpt lat="46.10691" lon="3.08656">
        <ele>322.66</ele>
        <time>2021-08-14T07:28:51Z</time>
      </trkpt>
      <trkpt lat="46.10667" lon="3.0864">
        <ele>322.66</ele>
        <time>2021-08-14T07:28:58Z</time>
      </trkpt>
      <trkpt lat="46.10645" lon="3.08627">
        <ele>322.66</ele>
        <time>2021-08-14T07:29:05Z</time>
      </trkpt>
      <trkpt lat="46.10614" lon="3.08607">
        <ele>323.14</ele>
        <time>2021-08-14T07:29:14Z</time>
      </trkpt>
      <trkpt lat="46.10577" lon="3.08584">
        <ele>323.62</ele>
        <time>2021-08-14T07:29:25Z</time>
      </trkpt>
      <trkpt lat="46.10506" lon="3.0854">
        <ele>324.58</ele>
        <time>2021-08-14T07:29:46Z</time>
      </trkpt>
      <trkpt lat="46.10477" lon="3.08523">
        <ele>325.06</ele>
        <time>2021-08-14T07:29:54Z</time>
      </trkpt>
      <trkpt lat="46.10454" lon="3.08508">
        <ele>325.06</ele>
        <time>2021-08-14T07:30:01Z</time>
      </trkpt>
      <trkpt lat="46.10419" lon="3.08492">
        <ele>325.54</ele>
        <time>2021-08-14T07:30:11Z</time>
      </trkpt>
      <trkpt lat="46.10388" lon="3.08479">
        <ele>326.02</ele>
        <time>2021-08-14T07:30:20Z</time>
      </trkpt>
      <trkpt lat="46.10349" lon="3.0847">
        <ele>326.99</ele>
        <time>2021-08-14T07:30:30Z</time>
      </trkpt>
      <trkpt lat="46.10317" lon="3.08463">
        <ele>327.47</ele>
        <time>2021-08-14T07:30:39Z</time>
      </trkpt>
      <trkpt lat="46.10285" lon="3.08454">
        <ele>327.95</ele>
        <time>2021-08-14T07:30:48Z</time>
      </trkpt>
      <trkpt lat="46.10247" lon="3.08444">
        <ele>328.91</ele>
        <time>2021-08-14T07:30:59Z</time>
      </trkpt>
      <trkpt lat="46.10229" lon="3.08449">
        <ele>329.39</ele>
        <time>2021-08-14T07:31:06Z</time>
      </trkpt>
      <trkpt lat="46.10204" lon="3.08462">
        <ele>330.35</ele>
        <time>2021-08-14T07:31:14Z</time>
      </trkpt>
      <trkpt lat="46.10184" lon="3.08475">
        <ele>331.31</ele>
        <time>2021-08-14T07:31:22Z</time>
      </trkpt>
      <trkpt lat="46.10171" lon="3.08483">
        <ele>332.27</ele>
        <time>2021-08-14T07:31:29Z</time>
      </trkpt>
      <trkpt lat="46.10153" lon="3.08491">
        <ele>333.23</ele>
        <time>2021-08-14T07:31:39Z</time>
      </trkpt>
      <trkpt lat="46.10139" lon="3.08497">
        <ele>335.16</ele>
        <time>2021-08-14T07:31:47Z</time>
      </trkpt>
      <trkpt lat="46.10137" lon="3.08497">
        <ele>335.16</ele>
        <time>2021-08-14T07:31:48Z</time>
      </trkpt>
      <trkpt lat="46.10136" lon="3.08496">
        <ele>335.16</ele>
        <time>2021-08-14T07:31:49Z</time>
      </trkpt>
      <trkpt lat="46.10134" lon="3.08494">
        <ele>335.64</ele>
        <time>2021-08-14T07:31:50Z</time>
      </trkpt>
      <trkpt lat="46.10133" lon="3.08491">
        <ele>335.64</ele>
        <time>2021-08-14T07:31:51Z</time>
      </trkpt>
      <trkpt lat="46.10132" lon="3.08488">
        <ele>335.64</ele>
        <time>2021-08-14T07:31:52Z</time>
      </trkpt>
      <trkpt lat="46.10132" lon="3.08485">
        <ele>335.64</ele>
        <time>2021-08-14T07:31:53Z</time>
      </trkpt>
      <trkpt lat="46.10132" lon="3.08482">
        <ele>335.16</ele>
        <time>2021-08-14T07:31:54Z</time>
      </trkpt>
      <trkpt lat="46.10131" lon="3.08478">
        <ele>335.16</ele>
        <time>2021-08-14T07:31:55Z</time>
      </trkpt>
      <trkpt lat="46.1013" lon="3.08475">
        <ele>335.16</ele>
        <time>2021-08-14T07:31:56Z</time>
      </trkpt>
      <trkpt lat="46.10122" lon="3.08445">
        <ele>335.64</ele>
        <time>2021-08-14T07:32:03Z</time>
      </trkpt>
      <trkpt lat="46.1011" lon="3.08399">
        <ele>336.12</ele>
        <time>2021-08-14T07:32:13Z</time>
      </trkpt>
      <trkpt lat="46.10102" lon="3.0837">
        <ele>336.6</ele>
        <time>2021-08-14T07:32:19Z</time>
      </trkpt>
      <trkpt lat="46.10097" lon="3.08355">
        <ele>336.6</ele>
        <time>2021-08-14T07:32:22Z</time>
      </trkpt>
      <trkpt lat="46.10095" lon="3.0835">
        <ele>336.6</ele>
        <time>2021-08-14T07:32:23Z</time>
      </trkpt>
      <trkpt lat="46.10093" lon="3.08345">
        <ele>336.6</ele>
        <time>2021-08-14T07:32:24Z</time>
      </trkpt>
      <trkpt lat="46.10084" lon="3.08305">
        <ele>337.08</ele>
        <time>2021-08-14T07:32:32Z</time>
      </trkpt>
      <trkpt lat="46.10069" lon="3.08252">
        <ele>337.08</ele>
        <time>2021-08-14T07:32:42Z</time>
      </trkpt>
      <trkpt lat="46.10052" lon="3.08188">
        <ele>337.08</ele>
        <time>2021-08-14T07:32:54Z</time>
      </trkpt>
      <trkpt lat="46.10044" lon="3.08157">
        <ele>337.08</ele>
        <time>2021-08-14T07:33:00Z</time>
      </trkpt>
      <trkpt lat="46.10031" lon="3.08112">
        <ele>337.08</ele>
        <time>2021-08-14T07:33:09Z</time>
      </trkpt>
      <trkpt lat="46.10017" lon="3.08062">
        <ele>337.08</ele>
        <time>2021-08-14T07:33:19Z</time>
      </trkpt>
      <trkpt lat="46.10001" lon="3.08006">
        <ele>337.56</ele>
        <time>2021-08-14T07:33:31Z</time>
      </trkpt>
      <trkpt lat="46.09993" lon="3.07973">
        <ele>338.04</ele>
        <time>2021-08-14T07:33:38Z</time>
      </trkpt>
      <trkpt lat="46.09983" lon="3.07939">
        <ele>338.52</ele>
        <time>2021-08-14T07:33:46Z</time>
      </trkpt>
      <trkpt lat="46.09975" lon="3.07908">
        <ele>339</ele>
        <time>2021-08-14T07:33:53Z</time>
      </trkpt>
      <trkpt lat="46.09965" lon="3.0787">
        <ele>339.48</ele>
        <time>2021-08-14T07:34:02Z</time>
      </trkpt>
      <trkpt lat="46.09955" lon="3.07834">
        <ele>339.96</ele>
        <time>2021-08-14T07:34:10Z</time>
      </trkpt>
      <trkpt lat="46.09948" lon="3.07809">
        <ele>340.44</ele>
        <time>2021-08-14T07:34:16Z</time>
      </trkpt>
      <trkpt lat="46.09938" lon="3.07779">
        <ele>340.44</ele>
        <time>2021-08-14T07:34:23Z</time>
      </trkpt>
      <trkpt lat="46.09929" lon="3.07756">
        <ele>340.92</ele>
        <time>2021-08-14T07:34:28Z</time>
      </trkpt>
      <trkpt lat="46.09926" lon="3.07755">
        <ele>340.92</ele>
        <time>2021-08-14T07:34:29Z</time>
      </trkpt>
      <trkpt lat="46.09923" lon="3.07755">
        <ele>340.92</ele>
        <time>2021-08-14T07:34:30Z</time>
      </trkpt>
      <trkpt lat="46.09921" lon="3.07758">
        <ele>340.92</ele>
        <time>2021-08-14T07:34:31Z</time>
      </trkpt>
      <trkpt lat="46.09918" lon="3.07761">
        <ele>341.41</ele>
        <time>2021-08-14T07:34:32Z</time>
      </trkpt>
      <trkpt lat="46.09916" lon="3.07764">
        <ele>341.41</ele>
        <time>2021-08-14T07:34:33Z</time>
      </trkpt>
      <trkpt lat="46.09892" lon="3.0779">
        <ele>342.37</ele>
        <time>2021-08-14T07:34:43Z</time>
      </trkpt>
      <trkpt lat="46.09881" lon="3.07805">
        <ele>343.33</ele>
        <time>2021-08-14T07:34:50Z</time>
      </trkpt>
      <trkpt lat="46.0987" lon="3.07815">
        <ele>344.29</ele>
        <time>2021-08-14T07:34:56Z</time>
      </trkpt>
      <trkpt lat="46.09856" lon="3.07828">
        <ele>345.25</ele>
        <time>2021-08-14T07:35:05Z</time>
      </trkpt>
      <trkpt lat="46.09844" lon="3.07839">
        <ele>345.73</ele>
        <time>2021-08-14T07:35:13Z</time>
      </trkpt>
      <trkpt lat="46.09835" lon="3.07846">
        <ele>347.17</ele>
        <time>2021-08-14T07:35:19Z</time>
      </trkpt>
      <trkpt lat="46.09824" lon="3.07857">
        <ele>347.65</ele>
        <time>2021-08-14T07:35:27Z</time>
      </trkpt>
      <trkpt lat="46.09811" lon="3.07867">
        <ele>348.62</ele>
        <time>2021-08-14T07:35:36Z</time>
      </trkpt>
      <trkpt lat="46.098" lon="3.07876">
        <ele>349.1</ele>
        <time>2021-08-14T07:35:43Z</time>
      </trkpt>
      <trkpt lat="46.09799" lon="3.07877">
        <ele>350.06</ele>
        <time>2021-08-14T07:35:44Z</time>
      </trkpt>
      <trkpt lat="46.09797" lon="3.07879">
        <ele>350.06</ele>
        <time>2021-08-14T07:35:45Z</time>
      </trkpt>
      <trkpt lat="46.09796" lon="3.0788">
        <ele>350.06</ele>
        <time>2021-08-14T07:35:46Z</time>
      </trkpt>
      <trkpt lat="46.09794" lon="3.07882">
        <ele>350.06</ele>
        <time>2021-08-14T07:35:47Z</time>
      </trkpt>
      <trkpt lat="46.09793" lon="3.07883">
        <ele>350.54</ele>
        <time>2021-08-14T07:35:48Z</time>
      </trkpt>
      <trkpt lat="46.09791" lon="3.07884">
        <ele>350.54</ele>
        <time>2021-08-14T07:35:49Z</time>
      </trkpt>
      <trkpt lat="46.09782" lon="3.07893">
        <ele>351.02</ele>
        <time>2021-08-14T07:35:56Z</time>
      </trkpt>
      <trkpt lat="46.0977" lon="3.07902">
        <ele>352.46</ele>
        <time>2021-08-14T07:36:04Z</time>
      </trkpt>
      <trkpt lat="46.09758" lon="3.07913">
        <ele>353.9</ele>
        <time>2021-08-14T07:36:13Z</time>
      </trkpt>
      <trkpt lat="46.09754" lon="3.07916">
        <ele>354.38</ele>
        <time>2021-08-14T07:36:16Z</time>
      </trkpt>
      <trkpt lat="46.09753" lon="3.07918">
        <ele>354.38</ele>
        <time>2021-08-14T07:36:17Z</time>
      </trkpt>
      <trkpt lat="46.09751" lon="3.0792">
        <ele>354.38</ele>
        <time>2021-08-14T07:36:18Z</time>
      </trkpt>
      <trkpt lat="46.09738" lon="3.07932">
        <ele>355.83</ele>
        <time>2021-08-14T07:36:27Z</time>
      </trkpt>
      <trkpt lat="46.09727" lon="3.07941">
        <ele>356.31</ele>
        <time>2021-08-14T07:36:34Z</time>
      </trkpt>
      <trkpt lat="46.09715" lon="3.07952">
        <ele>357.27</ele>
        <time>2021-08-14T07:36:42Z</time>
      </trkpt>
      <trkpt lat="46.09701" lon="3.07963">
        <ele>358.71</ele>
        <time>2021-08-14T07:36:51Z</time>
      </trkpt>
      <trkpt lat="46.09687" lon="3.07974">
        <ele>360.15</ele>
        <time>2021-08-14T07:37:00Z</time>
      </trkpt>
      <trkpt lat="46.09675" lon="3.07987">
        <ele>360.63</ele>
        <time>2021-08-14T07:37:08Z</time>
      </trkpt>
      <trkpt lat="46.09668" lon="3.08002">
        <ele>361.59</ele>
        <time>2021-08-14T07:37:15Z</time>
      </trkpt>
      <trkpt lat="46.09665" lon="3.08013">
        <ele>362.07</ele>
        <time>2021-08-14T07:37:19Z</time>
      </trkpt>
      <trkpt lat="46.09663" lon="3.08016">
        <ele>362.55</ele>
        <time>2021-08-14T07:37:20Z</time>
      </trkpt>
      <trkpt lat="46.09655" lon="3.08025">
        <ele>363.04</ele>
        <time>2021-08-14T07:37:25Z</time>
      </trkpt>
      <trkpt lat="46.09654" lon="3.08027">
        <ele>363.04</ele>
        <time>2021-08-14T07:37:26Z</time>
      </trkpt>
      <trkpt lat="46.09642" lon="3.08043">
        <ele>364</ele>
        <time>2021-08-14T07:37:34Z</time>
      </trkpt>
      <trkpt lat="46.09629" lon="3.0806">
        <ele>364.48</ele>
        <time>2021-08-14T07:37:42Z</time>
      </trkpt>
      <trkpt lat="46.09616" lon="3.08077">
        <ele>364.96</ele>
        <time>2021-08-14T07:37:49Z</time>
      </trkpt>
      <trkpt lat="46.096" lon="3.08095">
        <ele>365.44</ele>
        <time>2021-08-14T07:37:56Z</time>
      </trkpt>
      <trkpt lat="46.09584" lon="3.08112">
        <ele>365.92</ele>
        <time>2021-08-14T07:38:03Z</time>
      </trkpt>
      <trkpt lat="46.09561" lon="3.08137">
        <ele>366.4</ele>
        <time>2021-08-14T07:38:11Z</time>
      </trkpt>
      <trkpt lat="46.09535" lon="3.08167">
        <ele>367.36</ele>
        <time>2021-08-14T07:38:20Z</time>
      </trkpt>
      <trkpt lat="46.09508" lon="3.08198">
        <ele>367.36</ele>
        <time>2021-08-14T07:38:29Z</time>
      </trkpt>
      <trkpt lat="46.09478" lon="3.08231">
        <ele>367.84</ele>
        <time>2021-08-14T07:38:39Z</time>
      </trkpt>
      <trkpt lat="46.09448" lon="3.08265">
        <ele>367.84</ele>
        <time>2021-08-14T07:38:48Z</time>
      </trkpt>
      <trkpt lat="46.09441" lon="3.08272">
        <ele>367.84</ele>
        <time>2021-08-14T07:38:50Z</time>
      </trkpt>
      <trkpt lat="46.09437" lon="3.08277">
        <ele>367.84</ele>
        <time>2021-08-14T07:38:51Z</time>
      </trkpt>
      <trkpt lat="46.09434" lon="3.08281">
        <ele>367.84</ele>
        <time>2021-08-14T07:38:52Z</time>
      </trkpt>
      <trkpt lat="46.09431" lon="3.08285">
        <ele>367.84</ele>
        <time>2021-08-14T07:38:53Z</time>
      </trkpt>
      <trkpt lat="46.09428" lon="3.08289">
        <ele>367.84</ele>
        <time>2021-08-14T07:38:54Z</time>
      </trkpt>
      <trkpt lat="46.09424" lon="3.08293">
        <ele>367.84</ele>
        <time>2021-08-14T07:38:55Z</time>
      </trkpt>
      <trkpt lat="46.09419" lon="3.08295">
        <ele>367.84</ele>
        <time>2021-08-14T07:38:56Z</time>
      </trkpt>
      <trkpt lat="46.09415" lon="3.08294">
        <ele>367.84</ele>
        <time>2021-08-14T07:38:57Z</time>
      </trkpt>
      <trkpt lat="46.09411" lon="3.08291">
        <ele>367.84</ele>
        <time>2021-08-14T07:38:58Z</time>
      </trkpt>
      <trkpt lat="46.09407" lon="3.08287">
        <ele>367.84</ele>
        <time>2021-08-14T07:38:59Z</time>
      </trkpt>
      <trkpt lat="46.09368" lon="3.08255">
        <ele>366.4</ele>
        <time>2021-08-14T07:39:08Z</time>
      </trkpt>
      <trkpt lat="46.09325" lon="3.08219">
        <ele>366.4</ele>
        <time>2021-08-14T07:39:17Z</time>
      </trkpt>
      <trkpt lat="46.09281" lon="3.08183">
        <ele>366.4</ele>
        <time>2021-08-14T07:39:27Z</time>
      </trkpt>
      <trkpt lat="46.09269" lon="3.08174">
        <ele>367.84</ele>
        <time>2021-08-14T07:39:30Z</time>
      </trkpt>
      <trkpt lat="46.09265" lon="3.08171">
        <ele>367.84</ele>
        <time>2021-08-14T07:39:31Z</time>
      </trkpt>
      <trkpt lat="46.09257" lon="3.08163">
        <ele>368.32</ele>
        <time>2021-08-14T07:39:33Z</time>
      </trkpt>
      <trkpt lat="46.09225" lon="3.08139">
        <ele>369.28</ele>
        <time>2021-08-14T07:39:42Z</time>
      </trkpt>
      <trkpt lat="46.09207" lon="3.08123">
        <ele>370.24</ele>
        <time>2021-08-14T07:39:50Z</time>
      </trkpt>
      <trkpt lat="46.0919" lon="3.08107">
        <ele>371.69</ele>
        <time>2021-08-14T07:39:58Z</time>
      </trkpt>
      <trkpt lat="46.09175" lon="3.08093">
        <ele>372.17</ele>
        <time>2021-08-14T07:40:05Z</time>
      </trkpt>
      <trkpt lat="46.09153" lon="3.08073">
        <ele>373.61</ele>
        <time>2021-08-14T07:40:15Z</time>
      </trkpt>
      <trkpt lat="46.09134" lon="3.08055">
        <ele>374.57</ele>
        <time>2021-08-14T07:40:24Z</time>
      </trkpt>
      <trkpt lat="46.09115" lon="3.08037">
        <ele>376.01</ele>
        <time>2021-08-14T07:40:33Z</time>
      </trkpt>
      <trkpt lat="46.091" lon="3.08023">
        <ele>376.49</ele>
        <time>2021-08-14T07:40:41Z</time>
      </trkpt>
      <trkpt lat="46.09084" lon="3.08009">
        <ele>377.45</ele>
        <time>2021-08-14T07:40:49Z</time>
      </trkpt>
      <trkpt lat="46.09066" lon="3.07993">
        <ele>378.42</ele>
        <time>2021-08-14T07:40:59Z</time>
      </trkpt>
      <trkpt lat="46.09047" lon="3.07976">
        <ele>379.86</ele>
        <time>2021-08-14T07:41:09Z</time>
      </trkpt>
      <trkpt lat="46.09022" lon="3.0796">
        <ele>380.82</ele>
        <time>2021-08-14T07:41:20Z</time>
      </trkpt>
      <trkpt lat="46.09001" lon="3.07949">
        <ele>382.26</ele>
        <time>2021-08-14T07:41:29Z</time>
      </trkpt>
      <trkpt lat="46.08978" lon="3.07935">
        <ele>383.22</ele>
        <time>2021-08-14T07:41:38Z</time>
      </trkpt>
      <trkpt lat="46.08952" lon="3.0792">
        <ele>384.18</ele>
        <time>2021-08-14T07:41:46Z</time>
      </trkpt>
      <trkpt lat="46.08922" lon="3.07907">
        <ele>385.63</ele>
        <time>2021-08-14T07:41:56Z</time>
      </trkpt>
      <trkpt lat="46.08894" lon="3.07896">
        <ele>387.07</ele>
        <time>2021-08-14T07:42:05Z</time>
      </trkpt>
      <trkpt lat="46.08862" lon="3.07885">
        <ele>388.51</ele>
        <time>2021-08-14T07:42:15Z</time>
      </trkpt>
      <trkpt lat="46.0884" lon="3.07881">
        <ele>389.47</ele>
        <time>2021-08-14T07:42:22Z</time>
      </trkpt>
      <trkpt lat="46.08804" lon="3.07872">
        <ele>390.43</ele>
        <time>2021-08-14T07:42:33Z</time>
      </trkpt>
      <trkpt lat="46.08782" lon="3.07861">
        <ele>390.43</ele>
        <time>2021-08-14T07:42:39Z</time>
      </trkpt>
      <trkpt lat="46.08757" lon="3.07846">
        <ele>387.55</ele>
        <time>2021-08-14T07:42:44Z</time>
      </trkpt>
      <trkpt lat="46.08725" lon="3.0782">
        <ele>384.18</ele>
        <time>2021-08-14T07:42:49Z</time>
      </trkpt>
      <trkpt lat="46.08691" lon="3.07797">
        <ele>380.82</ele>
        <time>2021-08-14T07:42:53Z</time>
      </trkpt>
      <trkpt lat="46.08644" lon="3.07773">
        <ele>377.94</ele>
        <time>2021-08-14T07:42:58Z</time>
      </trkpt>
      <trkpt lat="46.08634" lon="3.07771">
        <ele>377.45</ele>
        <time>2021-08-14T07:42:59Z</time>
      </trkpt>
      <trkpt lat="46.08624" lon="3.0777">
        <ele>377.45</ele>
        <time>2021-08-14T07:43:00Z</time>
      </trkpt>
      <trkpt lat="46.08614" lon="3.07771">
        <ele>376.49</ele>
        <time>2021-08-14T07:43:01Z</time>
      </trkpt>
      <trkpt lat="46.08605" lon="3.07774">
        <ele>376.49</ele>
        <time>2021-08-14T07:43:02Z</time>
      </trkpt>
      <trkpt lat="46.08562" lon="3.07794">
        <ele>376.01</ele>
        <time>2021-08-14T07:43:07Z</time>
      </trkpt>
      <trkpt lat="46.08539" lon="3.07809">
        <ele>378.9</ele>
        <time>2021-08-14T07:43:11Z</time>
      </trkpt>
      <trkpt lat="46.08535" lon="3.0781">
        <ele>379.86</ele>
        <time>2021-08-14T07:43:12Z</time>
      </trkpt>
      <trkpt lat="46.08533" lon="3.07809">
        <ele>379.86</ele>
        <time>2021-08-14T07:43:13Z</time>
      </trkpt>
      <trkpt lat="46.0853" lon="3.07809">
        <ele>380.82</ele>
        <time>2021-08-14T07:43:15Z</time>
      </trkpt>
      <trkpt lat="46.08529" lon="3.0781">
        <ele>380.82</ele>
        <time>2021-08-14T07:43:16Z</time>
      </trkpt>
      <trkpt lat="46.08527" lon="3.07809">
        <ele>380.82</ele>
        <time>2021-08-14T07:43:18Z</time>
      </trkpt>
      <trkpt lat="46.08526" lon="3.07809">
        <ele>381.3</ele>
        <time>2021-08-14T07:43:19Z</time>
      </trkpt>
      <trkpt lat="46.08525" lon="3.07808">
        <ele>381.78</ele>
        <time>2021-08-14T07:43:20Z</time>
      </trkpt>
      <trkpt lat="46.08523" lon="3.07808">
        <ele>381.78</ele>
        <time>2021-08-14T07:43:21Z</time>
      </trkpt>
      <trkpt lat="46.08522" lon="3.07807">
        <ele>382.26</ele>
        <time>2021-08-14T07:43:22Z</time>
      </trkpt>
      <trkpt lat="46.08516" lon="3.07804">
        <ele>382.74</ele>
        <time>2021-08-14T07:43:28Z</time>
      </trkpt>
      <trkpt lat="46.08515" lon="3.07804">
        <ele>382.74</ele>
        <time>2021-08-14T07:43:29Z</time>
      </trkpt>
      <trkpt lat="46.08505" lon="3.07801">
        <ele>384.18</ele>
        <time>2021-08-14T07:43:37Z</time>
      </trkpt>
      <trkpt lat="46.08504" lon="3.078">
        <ele>384.18</ele>
        <time>2021-08-14T07:43:38Z</time>
      </trkpt>
      <trkpt lat="46.08502" lon="3.078">
        <ele>384.18</ele>
        <time>2021-08-14T07:43:39Z</time>
      </trkpt>
      <trkpt lat="46.08501" lon="3.07799">
        <ele>384.18</ele>
        <time>2021-08-14T07:43:40Z</time>
      </trkpt>
      <trkpt lat="46.085" lon="3.07799">
        <ele>385.15</ele>
        <time>2021-08-14T07:43:41Z</time>
      </trkpt>
      <trkpt lat="46.0849" lon="3.07795">
        <ele>386.11</ele>
        <time>2021-08-14T07:43:48Z</time>
      </trkpt>
      <trkpt lat="46.08489" lon="3.07795">
        <ele>386.11</ele>
        <time>2021-08-14T07:43:49Z</time>
      </trkpt>
      <trkpt lat="46.08488" lon="3.07795">
        <ele>386.11</ele>
        <time>2021-08-14T07:43:50Z</time>
      </trkpt>
      <trkpt lat="46.08486" lon="3.07795">
        <ele>386.59</ele>
        <time>2021-08-14T07:43:51Z</time>
      </trkpt>
      <trkpt lat="46.08485" lon="3.07794">
        <ele>386.59</ele>
        <time>2021-08-14T07:43:52Z</time>
      </trkpt>
      <trkpt lat="46.08483" lon="3.07793">
        <ele>387.07</ele>
        <time>2021-08-14T07:43:53Z</time>
      </trkpt>
      <trkpt lat="46.08482" lon="3.07792">
        <ele>387.07</ele>
        <time>2021-08-14T07:43:54Z</time>
      </trkpt>
      <trkpt lat="46.08481" lon="3.07791">
        <ele>387.07</ele>
        <time>2021-08-14T07:43:55Z</time>
      </trkpt>
      <trkpt lat="46.0847" lon="3.07786">
        <ele>388.51</ele>
        <time>2021-08-14T07:44:04Z</time>
      </trkpt>
      <trkpt lat="46.08466" lon="3.07783">
        <ele>388.99</ele>
        <time>2021-08-14T07:44:07Z</time>
      </trkpt>
      <trkpt lat="46.08465" lon="3.07782">
        <ele>388.99</ele>
        <time>2021-08-14T07:44:08Z</time>
      </trkpt>
      <trkpt lat="46.08464" lon="3.07781">
        <ele>389.47</ele>
        <time>2021-08-14T07:44:09Z</time>
      </trkpt>
      <trkpt lat="46.08463" lon="3.07781">
        <ele>389.47</ele>
        <time>2021-08-14T07:44:10Z</time>
      </trkpt>
      <trkpt lat="46.08462" lon="3.07781">
        <ele>389.95</ele>
        <time>2021-08-14T07:44:11Z</time>
      </trkpt>
      <trkpt lat="46.0846" lon="3.0778">
        <ele>390.43</ele>
        <time>2021-08-14T07:44:12Z</time>
      </trkpt>
      <trkpt lat="46.08449" lon="3.07773">
        <ele>391.39</ele>
        <time>2021-08-14T07:44:21Z</time>
      </trkpt>
      <trkpt lat="46.08437" lon="3.07765">
        <ele>393.32</ele>
        <time>2021-08-14T07:44:31Z</time>
      </trkpt>
      <trkpt lat="46.08425" lon="3.07759">
        <ele>394.76</ele>
        <time>2021-08-14T07:44:41Z</time>
      </trkpt>
      <trkpt lat="46.08424" lon="3.07758">
        <ele>394.76</ele>
        <time>2021-08-14T07:44:42Z</time>
      </trkpt>
      <trkpt lat="46.08423" lon="3.07757">
        <ele>395.24</ele>
        <time>2021-08-14T07:44:43Z</time>
      </trkpt>
      <trkpt lat="46.0841" lon="3.07751">
        <ele>396.68</ele>
        <time>2021-08-14T07:44:52Z</time>
      </trkpt>
      <trkpt lat="46.08397" lon="3.07745">
        <ele>398.6</ele>
        <time>2021-08-14T07:45:00Z</time>
      </trkpt>
      <trkpt lat="46.0838" lon="3.07734">
        <ele>401.01</ele>
        <time>2021-08-14T07:45:10Z</time>
      </trkpt>
      <trkpt lat="46.08364" lon="3.07726">
        <ele>402.93</ele>
        <time>2021-08-14T07:45:18Z</time>
      </trkpt>
      <trkpt lat="46.08349" lon="3.07716">
        <ele>404.37</ele>
        <time>2021-08-14T07:45:27Z</time>
      </trkpt>
      <trkpt lat="46.08335" lon="3.077">
        <ele>405.81</ele>
        <time>2021-08-14T07:45:36Z</time>
      </trkpt>
      <trkpt lat="46.08321" lon="3.07683">
        <ele>406.77</ele>
        <time>2021-08-14T07:45:46Z</time>
      </trkpt>
      <trkpt lat="46.08306" lon="3.07663">
        <ele>408.22</ele>
        <time>2021-08-14T07:45:56Z</time>
      </trkpt>
      <trkpt lat="46.08292" lon="3.07651">
        <ele>409.18</ele>
        <time>2021-08-14T07:46:04Z</time>
      </trkpt>
      <trkpt lat="46.08275" lon="3.07646">
        <ele>410.62</ele>
        <time>2021-08-14T07:46:13Z</time>
      </trkpt>
      <trkpt lat="46.08254" lon="3.07647">
        <ele>412.06</ele>
        <time>2021-08-14T07:46:22Z</time>
      </trkpt>
      <trkpt lat="46.08231" lon="3.07648">
        <ele>413.02</ele>
        <time>2021-08-14T07:46:31Z</time>
      </trkpt>
      <trkpt lat="46.08211" lon="3.0765">
        <ele>413.5</ele>
        <time>2021-08-14T07:46:38Z</time>
      </trkpt>
      <trkpt lat="46.08183" lon="3.07651">
        <ele>414.95</ele>
        <time>2021-08-14T07:46:48Z</time>
      </trkpt>
      <trkpt lat="46.08154" lon="3.07653">
        <ele>415.91</ele>
        <time>2021-08-14T07:46:58Z</time>
      </trkpt>
      <trkpt lat="46.08127" lon="3.07655">
        <ele>416.87</ele>
        <time>2021-08-14T07:47:07Z</time>
      </trkpt>
      <trkpt lat="46.08115" lon="3.07657">
        <ele>417.83</ele>
        <time>2021-08-14T07:47:12Z</time>
      </trkpt>
      <trkpt lat="46.08096" lon="3.07656">
        <ele>418.79</ele>
        <time>2021-08-14T07:47:19Z</time>
      </trkpt>
      <trkpt lat="46.08077" lon="3.07646">
        <ele>420.23</ele>
        <time>2021-08-14T07:47:27Z</time>
      </trkpt>
      <trkpt lat="46.08061" lon="3.07637">
        <ele>421.19</ele>
        <time>2021-08-14T07:47:35Z</time>
      </trkpt>
      <trkpt lat="46.08046" lon="3.07627">
        <ele>422.16</ele>
        <time>2021-08-14T07:47:43Z</time>
      </trkpt>
      <trkpt lat="46.08027" lon="3.07626">
        <ele>423.12</ele>
        <time>2021-08-14T07:47:52Z</time>
      </trkpt>
      <trkpt lat="46.07999" lon="3.0763">
        <ele>424.56</ele>
        <time>2021-08-14T07:48:04Z</time>
      </trkpt>
      <trkpt lat="46.07981" lon="3.07633">
        <ele>425.52</ele>
        <time>2021-08-14T07:48:11Z</time>
      </trkpt>
      <trkpt lat="46.07951" lon="3.0764">
        <ele>426.48</ele>
        <time>2021-08-14T07:48:21Z</time>
      </trkpt>
      <trkpt lat="46.07934" lon="3.07643">
        <ele>426.96</ele>
        <time>2021-08-14T07:48:27Z</time>
      </trkpt>
      <trkpt lat="46.07916" lon="3.07648">
        <ele>427.92</ele>
        <time>2021-08-14T07:48:33Z</time>
      </trkpt>
      <trkpt lat="46.07897" lon="3.07658">
        <ele>428.4</ele>
        <time>2021-08-14T07:48:40Z</time>
      </trkpt>
      <trkpt lat="46.07873" lon="3.07677">
        <ele>429.37</ele>
        <time>2021-08-14T07:48:49Z</time>
      </trkpt>
      <trkpt lat="46.07852" lon="3.077">
        <ele>429.37</ele>
        <time>2021-08-14T07:48:56Z</time>
      </trkpt>
      <trkpt lat="46.07839" lon="3.0771">
        <ele>427.92</ele>
        <time>2021-08-14T07:48:59Z</time>
      </trkpt>
      <trkpt lat="46.07815" lon="3.07729">
        <ele>426.48</ele>
        <time>2021-08-14T07:49:04Z</time>
      </trkpt>
      <trkpt lat="46.07811" lon="3.07734">
        <ele>426.48</ele>
        <time>2021-08-14T07:49:05Z</time>
      </trkpt>
      <trkpt lat="46.07794" lon="3.07759">
        <ele>425.52</ele>
        <time>2021-08-14T07:49:09Z</time>
      </trkpt>
      <trkpt lat="46.07791" lon="3.07766">
        <ele>425.52</ele>
        <time>2021-08-14T07:49:10Z</time>
      </trkpt>
      <trkpt lat="46.07789" lon="3.07772">
        <ele>425.52</ele>
        <time>2021-08-14T07:49:11Z</time>
      </trkpt>
      <trkpt lat="46.07787" lon="3.07778">
        <ele>425.52</ele>
        <time>2021-08-14T07:49:12Z</time>
      </trkpt>
      <trkpt lat="46.07786" lon="3.07782">
        <ele>425.52</ele>
        <time>2021-08-14T07:49:13Z</time>
      </trkpt>
      <trkpt lat="46.07782" lon="3.07792">
        <ele>425.04</ele>
        <time>2021-08-14T07:49:15Z</time>
      </trkpt>
      <trkpt lat="46.07778" lon="3.07796">
        <ele>424.08</ele>
        <time>2021-08-14T07:49:16Z</time>
      </trkpt>
      <trkpt lat="46.07769" lon="3.07804">
        <ele>422.64</ele>
        <time>2021-08-14T07:49:18Z</time>
      </trkpt>
      <trkpt lat="46.07762" lon="3.07808">
        <ele>422.16</ele>
        <time>2021-08-14T07:49:19Z</time>
      </trkpt>
      <trkpt lat="46.07755" lon="3.07811">
        <ele>421.19</ele>
        <time>2021-08-14T07:49:20Z</time>
      </trkpt>
      <trkpt lat="46.07748" lon="3.07813">
        <ele>420.71</ele>
        <time>2021-08-14T07:49:21Z</time>
      </trkpt>
      <trkpt lat="46.07741" lon="3.07814">
        <ele>420.23</ele>
        <time>2021-08-14T07:49:22Z</time>
      </trkpt>
      <trkpt lat="46.07725" lon="3.07818">
        <ele>419.27</ele>
        <time>2021-08-14T07:49:24Z</time>
      </trkpt>
      <trkpt lat="46.07693" lon="3.0783">
        <ele>415.91</ele>
        <time>2021-08-14T07:49:28Z</time>
      </trkpt>
      <trkpt lat="46.07649" lon="3.07855">
        <ele>412.54</ele>
        <time>2021-08-14T07:49:33Z</time>
      </trkpt>
      <trkpt lat="46.0764" lon="3.07856">
        <ele>411.58</ele>
        <time>2021-08-14T07:49:34Z</time>
      </trkpt>
      <trkpt lat="46.07631" lon="3.07856">
        <ele>410.62</ele>
        <time>2021-08-14T07:49:35Z</time>
      </trkpt>
      <trkpt lat="46.07622" lon="3.07855">
        <ele>410.14</ele>
        <time>2021-08-14T07:49:36Z</time>
      </trkpt>
      <trkpt lat="46.07614" lon="3.07854">
        <ele>409.18</ele>
        <time>2021-08-14T07:49:37Z</time>
      </trkpt>
      <trkpt lat="46.07605" lon="3.07851">
        <ele>408.22</ele>
        <time>2021-08-14T07:49:38Z</time>
      </trkpt>
      <trkpt lat="46.07596" lon="3.07847">
        <ele>408.22</ele>
        <time>2021-08-14T07:49:39Z</time>
      </trkpt>
      <trkpt lat="46.07588" lon="3.07842">
        <ele>406.77</ele>
        <time>2021-08-14T07:49:40Z</time>
      </trkpt>
      <trkpt lat="46.07572" lon="3.07832">
        <ele>405.81</ele>
        <time>2021-08-14T07:49:42Z</time>
      </trkpt>
      <trkpt lat="46.07562" lon="3.07823">
        <ele>404.37</ele>
        <time>2021-08-14T07:49:44Z</time>
      </trkpt>
      <trkpt lat="46.07555" lon="3.07819">
        <ele>403.41</ele>
        <time>2021-08-14T07:49:45Z</time>
      </trkpt>
      <trkpt lat="46.07548" lon="3.07816">
        <ele>402.45</ele>
        <time>2021-08-14T07:49:46Z</time>
      </trkpt>
      <trkpt lat="46.07541" lon="3.07813">
        <ele>401.01</ele>
        <time>2021-08-14T07:49:47Z</time>
      </trkpt>
      <trkpt lat="46.07534" lon="3.0781">
        <ele>400.53</ele>
        <time>2021-08-14T07:49:48Z</time>
      </trkpt>
      <trkpt lat="46.07526" lon="3.07807">
        <ele>399.08</ele>
        <time>2021-08-14T07:49:49Z</time>
      </trkpt>
      <trkpt lat="46.07503" lon="3.07795">
        <ele>396.2</ele>
        <time>2021-08-14T07:49:52Z</time>
      </trkpt>
      <trkpt lat="46.07496" lon="3.07789">
        <ele>395.72</ele>
        <time>2021-08-14T07:49:53Z</time>
      </trkpt>
      <trkpt lat="46.07467" lon="3.07764">
        <ele>392.36</ele>
        <time>2021-08-14T07:49:57Z</time>
      </trkpt>
      <trkpt lat="46.07434" lon="3.07746">
        <ele>389.47</ele>
        <time>2021-08-14T07:50:01Z</time>
      </trkpt>
      <trkpt lat="46.07423" lon="3.07738">
        <ele>390.43</ele>
        <time>2021-08-14T07:50:04Z</time>
      </trkpt>
      <trkpt lat="46.07422" lon="3.07737">
        <ele>390.43</ele>
        <time>2021-08-14T07:50:10Z</time>
      </trkpt>
      <trkpt lat="46.07421" lon="3.0774">
        <ele>390.43</ele>
        <time>2021-08-14T07:50:16Z</time>
      </trkpt>
      <trkpt lat="46.0742" lon="3.07741">
        <ele>390.43</ele>
        <time>2021-08-14T07:50:17Z</time>
      </trkpt>
      <trkpt lat="46.07419" lon="3.07741">
        <ele>390.43</ele>
        <time>2021-08-14T07:50:18Z</time>
      </trkpt>
      <trkpt lat="46.07417" lon="3.07741">
        <ele>390.43</ele>
        <time>2021-08-14T07:50:19Z</time>
      </trkpt>
      <trkpt lat="46.07415" lon="3.0774">
        <ele>390.43</ele>
        <time>2021-08-14T07:50:20Z</time>
      </trkpt>
      <trkpt lat="46.07409" lon="3.07736">
        <ele>390.43</ele>
        <time>2021-08-14T07:50:26Z</time>
      </trkpt>
      <trkpt lat="46.07397" lon="3.07742">
        <ele>391.87</ele>
        <time>2021-08-14T07:50:35Z</time>
      </trkpt>
      <trkpt lat="46.07395" lon="3.07743">
        <ele>391.87</ele>
        <time>2021-08-14T07:50:37Z</time>
      </trkpt>
      <trkpt lat="46.07391" lon="3.07744">
        <ele>392.36</ele>
        <time>2021-08-14T07:50:41Z</time>
      </trkpt>
      <trkpt lat="46.07392" lon="3.07746">
        <ele>392.36</ele>
        <time>2021-08-14T07:50:42Z</time>
      </trkpt>
      <trkpt lat="46.07393" lon="3.07748">
        <ele>392.36</ele>
        <time>2021-08-14T07:50:43Z</time>
      </trkpt>
      <trkpt lat="46.07391" lon="3.07759">
        <ele>392.36</ele>
        <time>2021-08-14T07:50:47Z</time>
      </trkpt>
      <trkpt lat="46.07389" lon="3.07761">
        <ele>392.36</ele>
        <time>2021-08-14T07:50:48Z</time>
      </trkpt>
      <trkpt lat="46.07387" lon="3.07762">
        <ele>392.36</ele>
        <time>2021-08-14T07:50:49Z</time>
      </trkpt>
      <trkpt lat="46.07385" lon="3.07763">
        <ele>392.36</ele>
        <time>2021-08-14T07:50:50Z</time>
      </trkpt>
      <trkpt lat="46.07384" lon="3.07763">
        <ele>392.36</ele>
        <time>2021-08-14T07:50:51Z</time>
      </trkpt>
      <trkpt lat="46.07382" lon="3.07763">
        <ele>392.36</ele>
        <time>2021-08-14T07:50:52Z</time>
      </trkpt>
      <trkpt lat="46.07381" lon="3.07764">
        <ele>392.36</ele>
        <time>2021-08-14T07:50:53Z</time>
      </trkpt>
      <trkpt lat="46.07379" lon="3.07765">
        <ele>392.36</ele>
        <time>2021-08-14T07:50:54Z</time>
      </trkpt>
      <trkpt lat="46.07378" lon="3.07765">
        <ele>392.36</ele>
        <time>2021-08-14T07:50:55Z</time>
      </trkpt>
      <trkpt lat="46.07369" lon="3.07764">
        <ele>393.32</ele>
        <time>2021-08-14T07:51:02Z</time>
      </trkpt>
      <trkpt lat="46.07358" lon="3.07765">
        <ele>393.8</ele>
        <time>2021-08-14T07:51:09Z</time>
      </trkpt>
      <trkpt lat="46.0735" lon="3.07764">
        <ele>394.28</ele>
        <time>2021-08-14T07:51:14Z</time>
      </trkpt>
      <trkpt lat="46.07347" lon="3.07763">
        <ele>394.76</ele>
        <time>2021-08-14T07:51:16Z</time>
      </trkpt>
      <trkpt lat="46.07337" lon="3.07765">
        <ele>395.72</ele>
        <time>2021-08-14T07:51:23Z</time>
      </trkpt>
      <trkpt lat="46.07329" lon="3.07769">
        <ele>396.2</ele>
        <time>2021-08-14T07:51:29Z</time>
      </trkpt>
      <trkpt lat="46.07328" lon="3.0777">
        <ele>396.2</ele>
        <time>2021-08-14T07:51:30Z</time>
      </trkpt>
      <trkpt lat="46.07326" lon="3.07771">
        <ele>396.2</ele>
        <time>2021-08-14T07:51:31Z</time>
      </trkpt>
      <trkpt lat="46.07325" lon="3.07772">
        <ele>396.2</ele>
        <time>2021-08-14T07:51:32Z</time>
      </trkpt>
      <trkpt lat="46.07316" lon="3.07779">
        <ele>396.68</ele>
        <time>2021-08-14T07:51:38Z</time>
      </trkpt>
      <trkpt lat="46.07315" lon="3.07781">
        <ele>396.68</ele>
        <time>2021-08-14T07:51:39Z</time>
      </trkpt>
      <trkpt lat="46.07314" lon="3.07783">
        <ele>397.16</ele>
        <time>2021-08-14T07:51:40Z</time>
      </trkpt>
      <trkpt lat="46.07306" lon="3.07796">
        <ele>398.12</ele>
        <time>2021-08-14T07:51:47Z</time>
      </trkpt>
      <trkpt lat="46.07305" lon="3.07797">
        <ele>398.12</ele>
        <time>2021-08-14T07:51:48Z</time>
      </trkpt>
      <trkpt lat="46.073" lon="3.07802">
        <ele>398.6</ele>
        <time>2021-08-14T07:51:51Z</time>
      </trkpt>
      <trkpt lat="46.07299" lon="3.07804">
        <ele>398.6</ele>
        <time>2021-08-14T07:51:52Z</time>
      </trkpt>
      <trkpt lat="46.07298" lon="3.07806">
        <ele>398.6</ele>
        <time>2021-08-14T07:51:53Z</time>
      </trkpt>
      <trkpt lat="46.0729" lon="3.07818">
        <ele>399.57</ele>
        <time>2021-08-14T07:52:00Z</time>
      </trkpt>
      <trkpt lat="46.07279" lon="3.07833">
        <ele>400.05</ele>
        <time>2021-08-14T07:52:07Z</time>
      </trkpt>
      <trkpt lat="46.07265" lon="3.07846">
        <ele>401.49</ele>
        <time>2021-08-14T07:52:16Z</time>
      </trkpt>
      <trkpt lat="46.07253" lon="3.07858">
        <ele>401.97</ele>
        <time>2021-08-14T07:52:23Z</time>
      </trkpt>
      <trkpt lat="46.07247" lon="3.07862">
        <ele>402.45</ele>
        <time>2021-08-14T07:52:26Z</time>
      </trkpt>
      <trkpt lat="46.07245" lon="3.07863">
        <ele>402.45</ele>
        <time>2021-08-14T07:52:27Z</time>
      </trkpt>
      <trkpt lat="46.07243" lon="3.07864">
        <ele>402.45</ele>
        <time>2021-08-14T07:52:28Z</time>
      </trkpt>
      <trkpt lat="46.07242" lon="3.07866">
        <ele>402.45</ele>
        <time>2021-08-14T07:52:29Z</time>
      </trkpt>
      <trkpt lat="46.0724" lon="3.07868">
        <ele>402.93</ele>
        <time>2021-08-14T07:52:30Z</time>
      </trkpt>
      <trkpt lat="46.07239" lon="3.07869">
        <ele>402.93</ele>
        <time>2021-08-14T07:52:31Z</time>
      </trkpt>
      <trkpt lat="46.07238" lon="3.07871">
        <ele>402.93</ele>
        <time>2021-08-14T07:52:32Z</time>
      </trkpt>
      <trkpt lat="46.0723" lon="3.07878">
        <ele>403.89</ele>
        <time>2021-08-14T07:52:38Z</time>
      </trkpt>
      <trkpt lat="46.07224" lon="3.07884">
        <ele>404.37</ele>
        <time>2021-08-14T07:52:42Z</time>
      </trkpt>
      <trkpt lat="46.07223" lon="3.07886">
        <ele>404.85</ele>
        <time>2021-08-14T07:52:43Z</time>
      </trkpt>
      <trkpt lat="46.0722" lon="3.07893">
        <ele>404.85</ele>
        <time>2021-08-14T07:52:46Z</time>
      </trkpt>
      <trkpt lat="46.07217" lon="3.079">
        <ele>405.81</ele>
        <time>2021-08-14T07:52:52Z</time>
      </trkpt>
      <trkpt lat="46.0721" lon="3.0791">
        <ele>407.26</ele>
        <time>2021-08-14T07:52:59Z</time>
      </trkpt>
      <trkpt lat="46.07202" lon="3.07919">
        <ele>408.22</ele>
        <time>2021-08-14T07:53:07Z</time>
      </trkpt>
      <trkpt lat="46.07201" lon="3.0792">
        <ele>408.22</ele>
        <time>2021-08-14T07:53:08Z</time>
      </trkpt>
      <trkpt lat="46.07196" lon="3.07929">
        <ele>408.7</ele>
        <time>2021-08-14T07:53:13Z</time>
      </trkpt>
      <trkpt lat="46.07195" lon="3.0793">
        <ele>409.18</ele>
        <time>2021-08-14T07:53:14Z</time>
      </trkpt>
      <trkpt lat="46.07194" lon="3.07932">
        <ele>409.18</ele>
        <time>2021-08-14T07:53:15Z</time>
      </trkpt>
      <trkpt lat="46.07193" lon="3.07936">
        <ele>409.18</ele>
        <time>2021-08-14T07:53:17Z</time>
      </trkpt>
      <trkpt lat="46.07191" lon="3.07942">
        <ele>409.66</ele>
        <time>2021-08-14T07:53:21Z</time>
      </trkpt>
      <trkpt lat="46.07189" lon="3.07944">
        <ele>409.66</ele>
        <time>2021-08-14T07:53:22Z</time>
      </trkpt>
      <trkpt lat="46.07188" lon="3.07946">
        <ele>409.66</ele>
        <time>2021-08-14T07:53:23Z</time>
      </trkpt>
      <trkpt lat="46.07187" lon="3.07948">
        <ele>410.14</ele>
        <time>2021-08-14T07:53:24Z</time>
      </trkpt>
      <trkpt lat="46.07186" lon="3.0795">
        <ele>410.14</ele>
        <time>2021-08-14T07:53:25Z</time>
      </trkpt>
      <trkpt lat="46.07185" lon="3.07952">
        <ele>410.14</ele>
        <time>2021-08-14T07:53:26Z</time>
      </trkpt>
      <trkpt lat="46.07184" lon="3.07955">
        <ele>410.14</ele>
        <time>2021-08-14T07:53:27Z</time>
      </trkpt>
      <trkpt lat="46.07184" lon="3.07957">
        <ele>410.14</ele>
        <time>2021-08-14T07:53:28Z</time>
      </trkpt>
      <trkpt lat="46.07183" lon="3.0796">
        <ele>410.62</ele>
        <time>2021-08-14T07:53:29Z</time>
      </trkpt>
      <trkpt lat="46.07183" lon="3.07962">
        <ele>410.62</ele>
        <time>2021-08-14T07:53:30Z</time>
      </trkpt>
      <trkpt lat="46.07182" lon="3.07965">
        <ele>410.62</ele>
        <time>2021-08-14T07:53:31Z</time>
      </trkpt>
      <trkpt lat="46.07182" lon="3.07967">
        <ele>410.62</ele>
        <time>2021-08-14T07:53:32Z</time>
      </trkpt>
      <trkpt lat="46.07181" lon="3.0797">
        <ele>411.1</ele>
        <time>2021-08-14T07:53:33Z</time>
      </trkpt>
      <trkpt lat="46.07181" lon="3.07972">
        <ele>411.1</ele>
        <time>2021-08-14T07:53:34Z</time>
      </trkpt>
      <trkpt lat="46.07175" lon="3.0799">
        <ele>412.06</ele>
        <time>2021-08-14T07:53:42Z</time>
      </trkpt>
      <trkpt lat="46.07174" lon="3.07991">
        <ele>412.06</ele>
        <time>2021-08-14T07:53:43Z</time>
      </trkpt>
      <trkpt lat="46.07166" lon="3.08011">
        <ele>413.5</ele>
        <time>2021-08-14T07:53:53Z</time>
      </trkpt>
      <trkpt lat="46.07162" lon="3.08025">
        <ele>413.98</ele>
        <time>2021-08-14T07:53:59Z</time>
      </trkpt>
      <trkpt lat="46.07154" lon="3.08043">
        <ele>414.95</ele>
        <time>2021-08-14T07:54:07Z</time>
      </trkpt>
      <trkpt lat="46.07142" lon="3.08058">
        <ele>414.95</ele>
        <time>2021-08-14T07:54:15Z</time>
      </trkpt>
      <trkpt lat="46.07129" lon="3.08072">
        <ele>415.91</ele>
        <time>2021-08-14T07:54:23Z</time>
      </trkpt>
      <trkpt lat="46.07121" lon="3.08081">
        <ele>417.83</ele>
        <time>2021-08-14T07:54:30Z</time>
      </trkpt>
      <trkpt lat="46.07112" lon="3.0809">
        <ele>418.79</ele>
        <time>2021-08-14T07:54:38Z</time>
      </trkpt>
      <trkpt lat="46.07102" lon="3.08097">
        <ele>419.75</ele>
        <time>2021-08-14T07:54:46Z</time>
      </trkpt>
      <trkpt lat="46.07091" lon="3.08103">
        <ele>420.71</ele>
        <time>2021-08-14T07:54:54Z</time>
      </trkpt>
      <trkpt lat="46.07084" lon="3.08111">
        <ele>421.68</ele>
        <time>2021-08-14T07:55:01Z</time>
      </trkpt>
      <trkpt lat="46.07074" lon="3.08117">
        <ele>422.16</ele>
        <time>2021-08-14T07:55:08Z</time>
      </trkpt>
      <trkpt lat="46.07062" lon="3.08124">
        <ele>422.64</ele>
        <time>2021-08-14T07:55:15Z</time>
      </trkpt>
      <trkpt lat="46.07049" lon="3.08132">
        <ele>423.12</ele>
        <time>2021-08-14T07:55:23Z</time>
      </trkpt>
      <trkpt lat="46.07048" lon="3.08132">
        <ele>423.12</ele>
        <time>2021-08-14T07:55:24Z</time>
      </trkpt>
      <trkpt lat="46.07046" lon="3.08133">
        <ele>423.6</ele>
        <time>2021-08-14T07:55:25Z</time>
      </trkpt>
      <trkpt lat="46.07045" lon="3.08133">
        <ele>423.6</ele>
        <time>2021-08-14T07:55:26Z</time>
      </trkpt>
      <trkpt lat="46.07043" lon="3.08134">
        <ele>423.6</ele>
        <time>2021-08-14T07:55:27Z</time>
      </trkpt>
      <trkpt lat="46.07042" lon="3.08134">
        <ele>423.6</ele>
        <time>2021-08-14T07:55:28Z</time>
      </trkpt>
      <trkpt lat="46.07036" lon="3.08137">
        <ele>424.08</ele>
        <time>2021-08-14T07:55:33Z</time>
      </trkpt>
      <trkpt lat="46.07023" lon="3.08138">
        <ele>424.56</ele>
        <time>2021-08-14T07:55:41Z</time>
      </trkpt>
      <trkpt lat="46.07013" lon="3.08142">
        <ele>426</ele>
        <time>2021-08-14T07:55:49Z</time>
      </trkpt>
      <trkpt lat="46.07012" lon="3.08144">
        <ele>426.48</ele>
        <time>2021-08-14T07:55:59Z</time>
      </trkpt>
      <trkpt lat="46.07007" lon="3.08146">
        <ele>426.96</ele>
        <time>2021-08-14T07:56:08Z</time>
      </trkpt>
      <trkpt lat="46.06999" lon="3.08147">
        <ele>428.89</ele>
        <time>2021-08-14T07:56:16Z</time>
      </trkpt>
      <trkpt lat="46.06992" lon="3.08146">
        <ele>429.85</ele>
        <time>2021-08-14T07:56:24Z</time>
      </trkpt>
      <trkpt lat="46.06988" lon="3.08147">
        <ele>430.81</ele>
        <time>2021-08-14T07:56:31Z</time>
      </trkpt>
      <trkpt lat="46.06982" lon="3.0815">
        <ele>431.77</ele>
        <time>2021-08-14T07:56:39Z</time>
      </trkpt>
      <trkpt lat="46.06976" lon="3.0815">
        <ele>432.73</ele>
        <time>2021-08-14T07:56:47Z</time>
      </trkpt>
      <trkpt lat="46.06971" lon="3.08149">
        <ele>433.69</ele>
        <time>2021-08-14T07:56:55Z</time>
      </trkpt>
      <trkpt lat="46.06966" lon="3.08147">
        <ele>434.17</ele>
        <time>2021-08-14T07:57:02Z</time>
      </trkpt>
      <trkpt lat="46.06953" lon="3.08145">
        <ele>435.13</ele>
        <time>2021-08-14T07:57:10Z</time>
      </trkpt>
      <trkpt lat="46.06941" lon="3.08144">
        <ele>435.13</ele>
        <time>2021-08-14T07:57:18Z</time>
      </trkpt>
      <trkpt lat="46.06939" lon="3.08145">
        <ele>435.13</ele>
        <time>2021-08-14T07:57:29Z</time>
      </trkpt>
      <trkpt lat="46.06931" lon="3.08146">
        <ele>435.13</ele>
        <time>2021-08-14T07:57:35Z</time>
      </trkpt>
      <trkpt lat="46.0692" lon="3.0815">
        <ele>436.1</ele>
        <time>2021-08-14T07:57:41Z</time>
      </trkpt>
      <trkpt lat="46.06916" lon="3.08153">
        <ele>436.58</ele>
        <time>2021-08-14T07:57:45Z</time>
      </trkpt>
      <trkpt lat="46.06915" lon="3.08155">
        <ele>436.58</ele>
        <time>2021-08-14T07:57:46Z</time>
      </trkpt>
      <trkpt lat="46.06913" lon="3.08155">
        <ele>436.58</ele>
        <time>2021-08-14T07:57:47Z</time>
      </trkpt>
      <trkpt lat="46.06911" lon="3.08157">
        <ele>436.58</ele>
        <time>2021-08-14T07:57:48Z</time>
      </trkpt>
      <trkpt lat="46.06909" lon="3.08158">
        <ele>437.06</ele>
        <time>2021-08-14T07:57:49Z</time>
      </trkpt>
      <trkpt lat="46.06907" lon="3.08159">
        <ele>437.06</ele>
        <time>2021-08-14T07:57:50Z</time>
      </trkpt>
      <trkpt lat="46.06895" lon="3.08165">
        <ele>438.02</ele>
        <time>2021-08-14T07:57:57Z</time>
      </trkpt>
      <trkpt lat="46.06881" lon="3.0817">
        <ele>438.98</ele>
        <time>2021-08-14T07:58:04Z</time>
      </trkpt>
      <trkpt lat="46.06866" lon="3.08173">
        <ele>439.46</ele>
        <time>2021-08-14T07:58:10Z</time>
      </trkpt>
      <trkpt lat="46.06863" lon="3.08172">
        <ele>439.46</ele>
        <time>2021-08-14T07:58:11Z</time>
      </trkpt>
      <trkpt lat="46.06861" lon="3.0817">
        <ele>439.46</ele>
        <time>2021-08-14T07:58:12Z</time>
      </trkpt>
      <trkpt lat="46.06859" lon="3.08168">
        <ele>439.46</ele>
        <time>2021-08-14T07:58:13Z</time>
      </trkpt>
      <trkpt lat="46.06858" lon="3.08165">
        <ele>439.46</ele>
        <time>2021-08-14T07:58:14Z</time>
      </trkpt>
      <trkpt lat="46.06857" lon="3.08163">
        <ele>439.46</ele>
        <time>2021-08-14T07:58:15Z</time>
      </trkpt>
      <trkpt lat="46.06853" lon="3.08151">
        <ele>440.9</ele>
        <time>2021-08-14T07:58:22Z</time>
      </trkpt>
      <trkpt lat="46.06855" lon="3.08146">
        <ele>441.86</ele>
        <time>2021-08-14T07:58:29Z</time>
      </trkpt>
      <trkpt lat="46.06856" lon="3.08139">
        <ele>442.82</ele>
        <time>2021-08-14T07:58:37Z</time>
      </trkpt>
      <trkpt lat="46.0686" lon="3.08126">
        <ele>444.27</ele>
        <time>2021-08-14T07:58:47Z</time>
      </trkpt>
      <trkpt lat="46.06861" lon="3.0812">
        <ele>444.75</ele>
        <time>2021-08-14T07:58:51Z</time>
      </trkpt>
      <trkpt lat="46.06864" lon="3.08115">
        <ele>445.71</ele>
        <time>2021-08-14T07:58:59Z</time>
      </trkpt>
      <trkpt lat="46.06868" lon="3.08106">
        <ele>447.15</ele>
        <time>2021-08-14T07:59:08Z</time>
      </trkpt>
      <trkpt lat="46.06874" lon="3.08093">
        <ele>449.07</ele>
        <time>2021-08-14T07:59:20Z</time>
      </trkpt>
      <trkpt lat="46.06878" lon="3.08083">
        <ele>450.52</ele>
        <time>2021-08-14T07:59:29Z</time>
      </trkpt>
      <trkpt lat="46.06882" lon="3.08072">
        <ele>451.96</ele>
        <time>2021-08-14T07:59:38Z</time>
      </trkpt>
      <trkpt lat="46.06884" lon="3.08059">
        <ele>453.88</ele>
        <time>2021-08-14T07:59:47Z</time>
      </trkpt>
      <trkpt lat="46.06885" lon="3.08047">
        <ele>454.84</ele>
        <time>2021-08-14T07:59:55Z</time>
      </trkpt>
      <trkpt lat="46.06884" lon="3.08046">
        <ele>454.84</ele>
        <time>2021-08-14T07:59:56Z</time>
      </trkpt>
      <trkpt lat="46.06885" lon="3.08044">
        <ele>454.36</ele>
        <time>2021-08-14T07:59:57Z</time>
      </trkpt>
      <trkpt lat="46.06886" lon="3.08042">
        <ele>454.36</ele>
        <time>2021-08-14T07:59:58Z</time>
      </trkpt>
      <trkpt lat="46.06887" lon="3.08039">
        <ele>454.36</ele>
        <time>2021-08-14T07:59:59Z</time>
      </trkpt>
      <trkpt lat="46.06888" lon="3.08037">
        <ele>454.84</ele>
        <time>2021-08-14T08:00:00Z</time>
      </trkpt>
      <trkpt lat="46.06889" lon="3.08034">
        <ele>454.84</ele>
        <time>2021-08-14T08:00:01Z</time>
      </trkpt>
      <trkpt lat="46.06889" lon="3.08031">
        <ele>454.84</ele>
        <time>2021-08-14T08:00:02Z</time>
      </trkpt>
      <trkpt lat="46.06889" lon="3.08029">
        <ele>455.8</ele>
        <time>2021-08-14T08:00:03Z</time>
      </trkpt>
      <trkpt lat="46.0689" lon="3.08026">
        <ele>455.8</ele>
        <time>2021-08-14T08:00:04Z</time>
      </trkpt>
      <trkpt lat="46.0689" lon="3.08023">
        <ele>455.8</ele>
        <time>2021-08-14T08:00:05Z</time>
      </trkpt>
      <trkpt lat="46.06889" lon="3.0802">
        <ele>456.28</ele>
        <time>2021-08-14T08:00:06Z</time>
      </trkpt>
      <trkpt lat="46.06889" lon="3.08017">
        <ele>456.28</ele>
        <time>2021-08-14T08:00:07Z</time>
      </trkpt>
      <trkpt lat="46.06887" lon="3.0801">
        <ele>456.76</ele>
        <time>2021-08-14T08:00:13Z</time>
      </trkpt>
      <trkpt lat="46.0689" lon="3.08004">
        <ele>456.76</ele>
        <time>2021-08-14T08:00:27Z</time>
      </trkpt>
      <trkpt lat="46.0689" lon="3.08">
        <ele>456.76</ele>
        <time>2021-08-14T08:00:37Z</time>
      </trkpt>
      <trkpt lat="46.06889" lon="3.08">
        <ele>456.76</ele>
        <time>2021-08-14T08:00:45Z</time>
      </trkpt>
      <trkpt lat="46.06889" lon="3.08001">
        <ele>456.76</ele>
        <time>2021-08-14T08:00:51Z</time>
      </trkpt>
      <trkpt lat="46.06888" lon="3.08">
        <ele>456.76</ele>
        <time>2021-08-14T08:01:03Z</time>
      </trkpt>
      <trkpt lat="46.06886" lon="3.08">
        <ele>456.76</ele>
        <time>2021-08-14T08:01:20Z</time>
      </trkpt>
      <trkpt lat="46.06888" lon="3.07999">
        <ele>456.76</ele>
        <time>2021-08-14T08:01:34Z</time>
      </trkpt>
      <trkpt lat="46.06888" lon="3.07999">
        <ele>456.76</ele>
        <time>2021-08-14T08:01:56Z</time>
      </trkpt>
      <trkpt lat="46.06888" lon="3.07998">
        <ele>456.76</ele>
        <time>2021-08-14T08:02:14Z</time>
      </trkpt>
      <trkpt lat="46.06887" lon="3.07996">
        <ele>456.76</ele>
        <time>2021-08-14T08:02:41Z</time>
      </trkpt>
      <trkpt lat="46.06886" lon="3.07999">
        <ele>456.76</ele>
        <time>2021-08-14T08:03:04Z</time>
      </trkpt>
      <trkpt lat="46.06887" lon="3.07997">
        <ele>456.76</ele>
        <time>2021-08-14T08:03:25Z</time>
      </trkpt>
      <trkpt lat="46.06887" lon="3.07995">
        <ele>456.76</ele>
        <time>2021-08-14T08:03:49Z</time>
      </trkpt>
      <trkpt lat="46.06885" lon="3.07995">
        <ele>456.76</ele>
        <time>2021-08-14T08:04:09Z</time>
      </trkpt>
      <trkpt lat="46.06888" lon="3.07995">
        <ele>456.76</ele>
        <time>2021-08-14T08:04:44Z</time>
      </trkpt>
      <trkpt lat="46.06885" lon="3.07993">
        <ele>456.76</ele>
        <time>2021-08-14T08:05:07Z</time>
      </trkpt>
      <trkpt lat="46.06886" lon="3.07993">
        <ele>456.76</ele>
        <time>2021-08-14T08:05:29Z</time>
      </trkpt>
      <trkpt lat="46.0689" lon="3.07998">
        <ele>456.76</ele>
        <time>2021-08-14T08:05:55Z</time>
      </trkpt>
      <trkpt lat="46.0689" lon="3.07999">
        <ele>456.76</ele>
        <time>2021-08-14T08:06:12Z</time>
      </trkpt>
      <trkpt lat="46.0689" lon="3.07999">
        <ele>456.76</ele>
        <time>2021-08-14T08:06:26Z</time>
      </trkpt>
      <trkpt lat="46.0689" lon="3.07998">
        <ele>456.76</ele>
        <time>2021-08-14T08:06:44Z</time>
      </trkpt>
      <trkpt lat="46.06888" lon="3.07993">
        <ele>456.76</ele>
        <time>2021-08-14T08:07:10Z</time>
      </trkpt>
      <trkpt lat="46.06885" lon="3.07992">
        <ele>456.76</ele>
        <time>2021-08-14T08:07:29Z</time>
      </trkpt>
      <trkpt lat="46.06884" lon="3.07991">
        <ele>456.76</ele>
        <time>2021-08-14T08:07:38Z</time>
      </trkpt>
      <trkpt lat="46.06882" lon="3.07989">
        <ele>456.76</ele>
        <time>2021-08-14T08:07:39Z</time>
      </trkpt>
      <trkpt lat="46.06883" lon="3.07992">
        <ele>456.76</ele>
        <time>2021-08-14T08:07:44Z</time>
      </trkpt>
      <trkpt lat="46.06884" lon="3.07995">
        <ele>456.76</ele>
        <time>2021-08-14T08:08:04Z</time>
      </trkpt>
      <trkpt lat="46.06884" lon="3.07996">
        <ele>456.76</ele>
        <time>2021-08-14T08:08:14Z</time>
      </trkpt>
      <trkpt lat="46.06886" lon="3.07999">
        <ele>457.24</ele>
        <time>2021-08-14T08:08:25Z</time>
      </trkpt>
      <trkpt lat="46.06887" lon="3.07996">
        <ele>457.24</ele>
        <time>2021-08-14T08:08:32Z</time>
      </trkpt>
      <trkpt lat="46.06888" lon="3.07999">
        <ele>457.24</ele>
        <time>2021-08-14T08:08:40Z</time>
      </trkpt>
      <trkpt lat="46.06888" lon="3.08001">
        <ele>457.24</ele>
        <time>2021-08-14T08:08:47Z</time>
      </trkpt>
      <trkpt lat="46.06888" lon="3.08003">
        <ele>457.24</ele>
        <time>2021-08-14T08:08:58Z</time>
      </trkpt>
      <trkpt lat="46.06889" lon="3.08">
        <ele>457.72</ele>
        <time>2021-08-14T08:09:12Z</time>
      </trkpt>
      <trkpt lat="46.06889" lon="3.08001">
        <ele>457.72</ele>
        <time>2021-08-14T08:09:32Z</time>
      </trkpt>
      <trkpt lat="46.06889" lon="3.08002">
        <ele>457.72</ele>
        <time>2021-08-14T08:09:43Z</time>
      </trkpt>
      <trkpt lat="46.06888" lon="3.08001">
        <ele>457.72</ele>
        <time>2021-08-14T08:09:50Z</time>
      </trkpt>
      <trkpt lat="46.06888" lon="3.08">
        <ele>457.72</ele>
        <time>2021-08-14T08:10:04Z</time>
      </trkpt>
      <trkpt lat="46.06888" lon="3.08">
        <ele>457.72</ele>
        <time>2021-08-14T08:10:14Z</time>
      </trkpt>
      <trkpt lat="46.06888" lon="3.08001">
        <ele>457.24</ele>
        <time>2021-08-14T08:10:23Z</time>
      </trkpt>
      <trkpt lat="46.06888" lon="3.08">
        <ele>457.24</ele>
        <time>2021-08-14T08:10:32Z</time>
      </trkpt>
      <trkpt lat="46.06888" lon="3.07999">
        <ele>457.24</ele>
        <time>2021-08-14T08:10:48Z</time>
      </trkpt>
      <trkpt lat="46.06889" lon="3.07998">
        <ele>457.72</ele>
        <time>2021-08-14T08:11:03Z</time>
      </trkpt>
      <trkpt lat="46.06889" lon="3.08">
        <ele>457.72</ele>
        <time>2021-08-14T08:11:14Z</time>
      </trkpt>
      <trkpt lat="46.06887" lon="3.08">
        <ele>457.72</ele>
        <time>2021-08-14T08:11:29Z</time>
      </trkpt>
      <trkpt lat="46.06887" lon="3.08001">
        <ele>457.72</ele>
        <time>2021-08-14T08:11:45Z</time>
      </trkpt>
      <trkpt lat="46.06891" lon="3.08004">
        <ele>457.72</ele>
        <time>2021-08-14T08:11:58Z</time>
      </trkpt>
      <trkpt lat="46.06892" lon="3.08004">
        <ele>457.72</ele>
        <time>2021-08-14T08:12:03Z</time>
      </trkpt>
      <trkpt lat="46.0689" lon="3.08002">
        <ele>457.72</ele>
        <time>2021-08-14T08:12:08Z</time>
      </trkpt>
      <trkpt lat="46.06888" lon="3.08">
        <ele>457.72</ele>
        <time>2021-08-14T08:12:28Z</time>
      </trkpt>
      <trkpt lat="46.06888" lon="3.08002">
        <ele>457.72</ele>
        <time>2021-08-14T08:12:42Z</time>
      </trkpt>
      <trkpt lat="46.06888" lon="3.08001">
        <ele>457.72</ele>
        <time>2021-08-14T08:12:51Z</time>
      </trkpt>
      <trkpt lat="46.06889" lon="3.08002">
        <ele>457.72</ele>
        <time>2021-08-14T08:13:10Z</time>
      </trkpt>
      <trkpt lat="46.06887" lon="3.07998">
        <ele>457.72</ele>
        <time>2021-08-14T08:13:15Z</time>
      </trkpt>
      <trkpt lat="46.06886" lon="3.07996">
        <ele>457.72</ele>
        <time>2021-08-14T08:13:16Z</time>
      </trkpt>
      <trkpt lat="46.06885" lon="3.07994">
        <ele>457.72</ele>
        <time>2021-08-14T08:13:17Z</time>
      </trkpt>
      <trkpt lat="46.0688" lon="3.07968">
        <ele>455.8</ele>
        <time>2021-08-14T08:13:24Z</time>
      </trkpt>
      <trkpt lat="46.06872" lon="3.07936">
        <ele>452.44</ele>
        <time>2021-08-14T08:13:30Z</time>
      </trkpt>
      <trkpt lat="46.06871" lon="3.07932">
        <ele>452.44</ele>
        <time>2021-08-14T08:13:31Z</time>
      </trkpt>
      <trkpt lat="46.06869" lon="3.0792">
        <ele>451</ele>
        <time>2021-08-14T08:13:33Z</time>
      </trkpt>
      <trkpt lat="46.06867" lon="3.07914">
        <ele>451</ele>
        <time>2021-08-14T08:13:34Z</time>
      </trkpt>
      <trkpt lat="46.06857" lon="3.07878">
        <ele>447.63</ele>
        <time>2021-08-14T08:13:39Z</time>
      </trkpt>
      <trkpt lat="46.06843" lon="3.07843">
        <ele>444.75</ele>
        <time>2021-08-14T08:13:43Z</time>
      </trkpt>
      <trkpt lat="46.06829" lon="3.07807">
        <ele>447.15</ele>
        <time>2021-08-14T08:13:48Z</time>
      </trkpt>
      <trkpt lat="46.06826" lon="3.07797">
        <ele>448.11</ele>
        <time>2021-08-14T08:13:53Z</time>
      </trkpt>
      <trkpt lat="46.06825" lon="3.07795">
        <ele>448.59</ele>
        <time>2021-08-14T08:13:54Z</time>
      </trkpt>
      <trkpt lat="46.06824" lon="3.07792">
        <ele>448.59</ele>
        <time>2021-08-14T08:13:55Z</time>
      </trkpt>
      <trkpt lat="46.06823" lon="3.07789">
        <ele>448.59</ele>
        <time>2021-08-14T08:13:56Z</time>
      </trkpt>
      <trkpt lat="46.06813" lon="3.07767">
        <ele>447.15</ele>
        <time>2021-08-14T08:14:01Z</time>
      </trkpt>
      <trkpt lat="46.06809" lon="3.07763">
        <ele>446.67</ele>
        <time>2021-08-14T08:14:02Z</time>
      </trkpt>
      <trkpt lat="46.06804" lon="3.0776">
        <ele>445.71</ele>
        <time>2021-08-14T08:14:03Z</time>
      </trkpt>
      <trkpt lat="46.06799" lon="3.0776">
        <ele>445.71</ele>
        <time>2021-08-14T08:14:04Z</time>
      </trkpt>
      <trkpt lat="46.06794" lon="3.0776">
        <ele>445.71</ele>
        <time>2021-08-14T08:14:05Z</time>
      </trkpt>
      <trkpt lat="46.0679" lon="3.07761">
        <ele>445.71</ele>
        <time>2021-08-14T08:14:06Z</time>
      </trkpt>
      <trkpt lat="46.06784" lon="3.07763">
        <ele>447.15</ele>
        <time>2021-08-14T08:14:09Z</time>
      </trkpt>
      <trkpt lat="46.06777" lon="3.07763">
        <ele>448.11</ele>
        <time>2021-08-14T08:14:14Z</time>
      </trkpt>
      <trkpt lat="46.06776" lon="3.07762">
        <ele>448.11</ele>
        <time>2021-08-14T08:14:15Z</time>
      </trkpt>
      <trkpt lat="46.06774" lon="3.07761">
        <ele>448.59</ele>
        <time>2021-08-14T08:14:16Z</time>
      </trkpt>
      <trkpt lat="46.06773" lon="3.0776">
        <ele>448.59</ele>
        <time>2021-08-14T08:14:17Z</time>
      </trkpt>
      <trkpt lat="46.06771" lon="3.07759">
        <ele>448.59</ele>
        <time>2021-08-14T08:14:18Z</time>
      </trkpt>
      <trkpt lat="46.0677" lon="3.07758">
        <ele>449.07</ele>
        <time>2021-08-14T08:14:19Z</time>
      </trkpt>
      <trkpt lat="46.06768" lon="3.07757">
        <ele>449.55</ele>
        <time>2021-08-14T08:14:20Z</time>
      </trkpt>
      <trkpt lat="46.06762" lon="3.07753">
        <ele>450.03</ele>
        <time>2021-08-14T08:14:25Z</time>
      </trkpt>
      <trkpt lat="46.06761" lon="3.07752">
        <ele>450.03</ele>
        <time>2021-08-14T08:14:26Z</time>
      </trkpt>
      <trkpt lat="46.06761" lon="3.07751">
        <ele>449.55</ele>
        <time>2021-08-14T08:14:27Z</time>
      </trkpt>
      <trkpt lat="46.0676" lon="3.0775">
        <ele>449.55</ele>
        <time>2021-08-14T08:14:28Z</time>
      </trkpt>
      <trkpt lat="46.06759" lon="3.07749">
        <ele>450.52</ele>
        <time>2021-08-14T08:14:29Z</time>
      </trkpt>
      <trkpt lat="46.06758" lon="3.07748">
        <ele>450.52</ele>
        <time>2021-08-14T08:14:30Z</time>
      </trkpt>
      <trkpt lat="46.06757" lon="3.07748">
        <ele>450.52</ele>
        <time>2021-08-14T08:14:31Z</time>
      </trkpt>
      <trkpt lat="46.06756" lon="3.07747">
        <ele>450.52</ele>
        <time>2021-08-14T08:14:32Z</time>
      </trkpt>
      <trkpt lat="46.06747" lon="3.07739">
        <ele>451</ele>
        <time>2021-08-14T08:14:40Z</time>
      </trkpt>
      <trkpt lat="46.06745" lon="3.07736">
        <ele>451.48</ele>
        <time>2021-08-14T08:14:43Z</time>
      </trkpt>
      <trkpt lat="46.06742" lon="3.07733">
        <ele>451.96</ele>
        <time>2021-08-14T08:14:46Z</time>
      </trkpt>
      <trkpt lat="46.06741" lon="3.07732">
        <ele>451.96</ele>
        <time>2021-08-14T08:14:47Z</time>
      </trkpt>
      <trkpt lat="46.06737" lon="3.0773">
        <ele>452.92</ele>
        <time>2021-08-14T08:14:51Z</time>
      </trkpt>
      <trkpt lat="46.06735" lon="3.07726">
        <ele>453.4</ele>
        <time>2021-08-14T08:14:57Z</time>
      </trkpt>
      <trkpt lat="46.06734" lon="3.07727">
        <ele>453.4</ele>
        <time>2021-08-14T08:15:03Z</time>
      </trkpt>
      <trkpt lat="46.06733" lon="3.07727">
        <ele>453.4</ele>
        <time>2021-08-14T08:15:07Z</time>
      </trkpt>
      <trkpt lat="46.06732" lon="3.07727">
        <ele>453.4</ele>
        <time>2021-08-14T08:15:08Z</time>
      </trkpt>
      <trkpt lat="46.06731" lon="3.07726">
        <ele>453.4</ele>
        <time>2021-08-14T08:15:09Z</time>
      </trkpt>
      <trkpt lat="46.0673" lon="3.07726">
        <ele>453.88</ele>
        <time>2021-08-14T08:15:10Z</time>
      </trkpt>
      <trkpt lat="46.06729" lon="3.07725">
        <ele>453.88</ele>
        <time>2021-08-14T08:15:11Z</time>
      </trkpt>
      <trkpt lat="46.06727" lon="3.07724">
        <ele>454.36</ele>
        <time>2021-08-14T08:15:13Z</time>
      </trkpt>
      <trkpt lat="46.06724" lon="3.07722">
        <ele>454.84</ele>
        <time>2021-08-14T08:15:16Z</time>
      </trkpt>
      <trkpt lat="46.06723" lon="3.07721">
        <ele>454.84</ele>
        <time>2021-08-14T08:15:17Z</time>
      </trkpt>
      <trkpt lat="46.06721" lon="3.0772">
        <ele>455.32</ele>
        <time>2021-08-14T08:15:19Z</time>
      </trkpt>
      <trkpt lat="46.06716" lon="3.07717">
        <ele>456.28</ele>
        <time>2021-08-14T08:15:24Z</time>
      </trkpt>
      <trkpt lat="46.06716" lon="3.07716">
        <ele>456.28</ele>
        <time>2021-08-14T08:15:25Z</time>
      </trkpt>
      <trkpt lat="46.06715" lon="3.07715">
        <ele>456.28</ele>
        <time>2021-08-14T08:15:26Z</time>
      </trkpt>
      <trkpt lat="46.06714" lon="3.07714">
        <ele>456.28</ele>
        <time>2021-08-14T08:15:27Z</time>
      </trkpt>
      <trkpt lat="46.06712" lon="3.07713">
        <ele>456.28</ele>
        <time>2021-08-14T08:15:28Z</time>
      </trkpt>
      <trkpt lat="46.06712" lon="3.07711">
        <ele>456.76</ele>
        <time>2021-08-14T08:15:29Z</time>
      </trkpt>
      <trkpt lat="46.06711" lon="3.0771">
        <ele>456.76</ele>
        <time>2021-08-14T08:15:30Z</time>
      </trkpt>
      <trkpt lat="46.0671" lon="3.07709">
        <ele>456.76</ele>
        <time>2021-08-14T08:15:31Z</time>
      </trkpt>
      <trkpt lat="46.06708" lon="3.07705">
        <ele>456.76</ele>
        <time>2021-08-14T08:15:33Z</time>
      </trkpt>
      <trkpt lat="46.06706" lon="3.07694">
        <ele>456.76</ele>
        <time>2021-08-14T08:15:38Z</time>
      </trkpt>
      <trkpt lat="46.06707" lon="3.07692">
        <ele>456.76</ele>
        <time>2021-08-14T08:15:39Z</time>
      </trkpt>
      <trkpt lat="46.06706" lon="3.07689">
        <ele>457.24</ele>
        <time>2021-08-14T08:15:41Z</time>
      </trkpt>
      <trkpt lat="46.06706" lon="3.07687">
        <ele>457.24</ele>
        <time>2021-08-14T08:15:42Z</time>
      </trkpt>
      <trkpt lat="46.06706" lon="3.07685">
        <ele>457.24</ele>
        <time>2021-08-14T08:15:43Z</time>
      </trkpt>
      <trkpt lat="46.06704" lon="3.07657">
        <ele>457.24</ele>
        <time>2021-08-14T08:15:51Z</time>
      </trkpt>
      <trkpt lat="46.06707" lon="3.07646">
        <ele>455.32</ele>
        <time>2021-08-14T08:15:53Z</time>
      </trkpt>
      <trkpt lat="46.06712" lon="3.07634">
        <ele>454.36</ele>
        <time>2021-08-14T08:15:55Z</time>
      </trkpt>
      <trkpt lat="46.06717" lon="3.0762">
        <ele>453.4</ele>
        <time>2021-08-14T08:15:57Z</time>
      </trkpt>
      <trkpt lat="46.06719" lon="3.07613">
        <ele>453.4</ele>
        <time>2021-08-14T08:15:58Z</time>
      </trkpt>
      <trkpt lat="46.0672" lon="3.07607">
        <ele>452.44</ele>
        <time>2021-08-14T08:15:59Z</time>
      </trkpt>
      <trkpt lat="46.0672" lon="3.076">
        <ele>452.44</ele>
        <time>2021-08-14T08:16:00Z</time>
      </trkpt>
      <trkpt lat="46.06719" lon="3.07594">
        <ele>452.44</ele>
        <time>2021-08-14T08:16:01Z</time>
      </trkpt>
      <trkpt lat="46.06718" lon="3.07589">
        <ele>452.44</ele>
        <time>2021-08-14T08:16:02Z</time>
      </trkpt>
      <trkpt lat="46.06711" lon="3.0757">
        <ele>452.44</ele>
        <time>2021-08-14T08:16:08Z</time>
      </trkpt>
      <trkpt lat="46.06708" lon="3.07561">
        <ele>453.88</ele>
        <time>2021-08-14T08:16:11Z</time>
      </trkpt>
      <trkpt lat="46.067" lon="3.07543">
        <ele>454.84</ele>
        <time>2021-08-14T08:16:18Z</time>
      </trkpt>
      <trkpt lat="46.06689" lon="3.07523">
        <ele>455.8</ele>
        <time>2021-08-14T08:16:26Z</time>
      </trkpt>
      <trkpt lat="46.06683" lon="3.07511">
        <ele>456.76</ele>
        <time>2021-08-14T08:16:32Z</time>
      </trkpt>
      <trkpt lat="46.06682" lon="3.07508">
        <ele>456.76</ele>
        <time>2021-08-14T08:16:33Z</time>
      </trkpt>
      <trkpt lat="46.06679" lon="3.07502">
        <ele>457.24</ele>
        <time>2021-08-14T08:16:36Z</time>
      </trkpt>
      <trkpt lat="46.06678" lon="3.075">
        <ele>457.72</ele>
        <time>2021-08-14T08:16:37Z</time>
      </trkpt>
      <trkpt lat="46.06678" lon="3.07498">
        <ele>457.72</ele>
        <time>2021-08-14T08:16:38Z</time>
      </trkpt>
      <trkpt lat="46.06677" lon="3.07496">
        <ele>457.72</ele>
        <time>2021-08-14T08:16:39Z</time>
      </trkpt>
      <trkpt lat="46.06675" lon="3.07494">
        <ele>458.21</ele>
        <time>2021-08-14T08:16:40Z</time>
      </trkpt>
      <trkpt lat="46.06668" lon="3.07476">
        <ele>459.17</ele>
        <time>2021-08-14T08:16:48Z</time>
      </trkpt>
      <trkpt lat="46.06659" lon="3.07457">
        <ele>460.61</ele>
        <time>2021-08-14T08:16:57Z</time>
      </trkpt>
      <trkpt lat="46.06656" lon="3.07448">
        <ele>460.61</ele>
        <time>2021-08-14T08:17:01Z</time>
      </trkpt>
      <trkpt lat="46.06654" lon="3.07446">
        <ele>461.09</ele>
        <time>2021-08-14T08:17:02Z</time>
      </trkpt>
      <trkpt lat="46.06645" lon="3.07421">
        <ele>462.05</ele>
        <time>2021-08-14T08:17:12Z</time>
      </trkpt>
      <trkpt lat="46.06638" lon="3.07403">
        <ele>463.01</ele>
        <time>2021-08-14T08:17:20Z</time>
      </trkpt>
      <trkpt lat="46.06633" lon="3.07388">
        <ele>464.93</ele>
        <time>2021-08-14T08:17:28Z</time>
      </trkpt>
      <trkpt lat="46.06627" lon="3.07374">
        <ele>465.9</ele>
        <time>2021-08-14T08:17:35Z</time>
      </trkpt>
      <trkpt lat="46.06618" lon="3.07352">
        <ele>466.86</ele>
        <time>2021-08-14T08:17:45Z</time>
      </trkpt>
      <trkpt lat="46.06611" lon="3.07338">
        <ele>467.82</ele>
        <time>2021-08-14T08:17:52Z</time>
      </trkpt>
      <trkpt lat="46.06602" lon="3.07319">
        <ele>468.78</ele>
        <time>2021-08-14T08:18:01Z</time>
      </trkpt>
      <trkpt lat="46.06592" lon="3.07298">
        <ele>470.7</ele>
        <time>2021-08-14T08:18:11Z</time>
      </trkpt>
      <trkpt lat="46.06585" lon="3.07279">
        <ele>472.14</ele>
        <time>2021-08-14T08:18:20Z</time>
      </trkpt>
      <trkpt lat="46.0658" lon="3.07263">
        <ele>473.11</ele>
        <time>2021-08-14T08:18:27Z</time>
      </trkpt>
      <trkpt lat="46.06574" lon="3.07246">
        <ele>474.55</ele>
        <time>2021-08-14T08:18:34Z</time>
      </trkpt>
      <trkpt lat="46.06562" lon="3.07215">
        <ele>475.51</ele>
        <time>2021-08-14T08:18:46Z</time>
      </trkpt>
      <trkpt lat="46.06558" lon="3.07209">
        <ele>475.99</ele>
        <time>2021-08-14T08:18:49Z</time>
      </trkpt>
      <trkpt lat="46.06556" lon="3.07209">
        <ele>475.99</ele>
        <time>2021-08-14T08:18:50Z</time>
      </trkpt>
      <trkpt lat="46.06555" lon="3.07209">
        <ele>475.99</ele>
        <time>2021-08-14T08:18:51Z</time>
      </trkpt>
      <trkpt lat="46.06553" lon="3.0721">
        <ele>475.99</ele>
        <time>2021-08-14T08:18:52Z</time>
      </trkpt>
      <trkpt lat="46.06551" lon="3.07212">
        <ele>476.47</ele>
        <time>2021-08-14T08:18:53Z</time>
      </trkpt>
      <trkpt lat="46.06544" lon="3.07224">
        <ele>477.43</ele>
        <time>2021-08-14T08:19:01Z</time>
      </trkpt>
      <trkpt lat="46.06542" lon="3.07227">
        <ele>477.91</ele>
        <time>2021-08-14T08:19:04Z</time>
      </trkpt>
      <trkpt lat="46.0654" lon="3.07229">
        <ele>477.91</ele>
        <time>2021-08-14T08:19:05Z</time>
      </trkpt>
      <trkpt lat="46.06539" lon="3.0723">
        <ele>478.39</ele>
        <time>2021-08-14T08:19:06Z</time>
      </trkpt>
      <trkpt lat="46.06528" lon="3.07247">
        <ele>479.35</ele>
        <time>2021-08-14T08:19:17Z</time>
      </trkpt>
      <trkpt lat="46.06516" lon="3.07259">
        <ele>481.28</ele>
        <time>2021-08-14T08:19:27Z</time>
      </trkpt>
      <trkpt lat="46.06507" lon="3.07269">
        <ele>482.24</ele>
        <time>2021-08-14T08:19:35Z</time>
      </trkpt>
      <trkpt lat="46.06498" lon="3.07278">
        <ele>484.16</ele>
        <time>2021-08-14T08:19:43Z</time>
      </trkpt>
      <trkpt lat="46.06497" lon="3.0728">
        <ele>484.64</ele>
        <time>2021-08-14T08:19:46Z</time>
      </trkpt>
      <trkpt lat="46.06498" lon="3.07281">
        <ele>484.16</ele>
        <time>2021-08-14T08:19:47Z</time>
      </trkpt>
      <trkpt lat="46.065" lon="3.0728">
        <ele>484.16</ele>
        <time>2021-08-14T08:19:48Z</time>
      </trkpt>
      <trkpt lat="46.06501" lon="3.07279">
        <ele>484.16</ele>
        <time>2021-08-14T08:19:49Z</time>
      </trkpt>
      <trkpt lat="46.06502" lon="3.07277">
        <ele>484.16</ele>
        <time>2021-08-14T08:19:50Z</time>
      </trkpt>
      <trkpt lat="46.06503" lon="3.07275">
        <ele>484.16</ele>
        <time>2021-08-14T08:19:51Z</time>
      </trkpt>
      <trkpt lat="46.06504" lon="3.07273">
        <ele>484.16</ele>
        <time>2021-08-14T08:19:52Z</time>
      </trkpt>
      <trkpt lat="46.06519" lon="3.07255">
        <ele>480.8</ele>
        <time>2021-08-14T08:19:58Z</time>
      </trkpt>
      <trkpt lat="46.06523" lon="3.07251">
        <ele>480.8</ele>
        <time>2021-08-14T08:19:59Z</time>
      </trkpt>
      <trkpt lat="46.06536" lon="3.07233">
        <ele>478.39</ele>
        <time>2021-08-14T08:20:02Z</time>
      </trkpt>
      <trkpt lat="46.06544" lon="3.07221">
        <ele>477.91</ele>
        <time>2021-08-14T08:20:04Z</time>
      </trkpt>
      <trkpt lat="46.06551" lon="3.0721">
        <ele>476.95</ele>
        <time>2021-08-14T08:20:06Z</time>
      </trkpt>
      <trkpt lat="46.06555" lon="3.07206">
        <ele>475.99</ele>
        <time>2021-08-14T08:20:07Z</time>
      </trkpt>
      <trkpt lat="46.06565" lon="3.07195">
        <ele>475.51</ele>
        <time>2021-08-14T08:20:10Z</time>
      </trkpt>
      <trkpt lat="46.06572" lon="3.07185">
        <ele>473.59</ele>
        <time>2021-08-14T08:20:12Z</time>
      </trkpt>
      <trkpt lat="46.06576" lon="3.0718">
        <ele>473.59</ele>
        <time>2021-08-14T08:20:13Z</time>
      </trkpt>
      <trkpt lat="46.06585" lon="3.0717">
        <ele>471.66</ele>
        <time>2021-08-14T08:20:15Z</time>
      </trkpt>
      <trkpt lat="46.06588" lon="3.07163">
        <ele>471.18</ele>
        <time>2021-08-14T08:20:16Z</time>
      </trkpt>
      <trkpt lat="46.06591" lon="3.07156">
        <ele>470.7</ele>
        <time>2021-08-14T08:20:17Z</time>
      </trkpt>
      <trkpt lat="46.06593" lon="3.07147">
        <ele>470.22</ele>
        <time>2021-08-14T08:20:18Z</time>
      </trkpt>
      <trkpt lat="46.06594" lon="3.07138">
        <ele>469.26</ele>
        <time>2021-08-14T08:20:19Z</time>
      </trkpt>
      <trkpt lat="46.06601" lon="3.07101">
        <ele>466.86</ele>
        <time>2021-08-14T08:20:23Z</time>
      </trkpt>
      <trkpt lat="46.06601" lon="3.07093">
        <ele>466.38</ele>
        <time>2021-08-14T08:20:24Z</time>
      </trkpt>
      <trkpt lat="46.06601" lon="3.07086">
        <ele>465.9</ele>
        <time>2021-08-14T08:20:25Z</time>
      </trkpt>
      <trkpt lat="46.066" lon="3.0708">
        <ele>464.93</ele>
        <time>2021-08-14T08:20:26Z</time>
      </trkpt>
      <trkpt lat="46.06599" lon="3.07074">
        <ele>464.45</ele>
        <time>2021-08-14T08:20:27Z</time>
      </trkpt>
      <trkpt lat="46.06597" lon="3.07067">
        <ele>463.49</ele>
        <time>2021-08-14T08:20:28Z</time>
      </trkpt>
      <trkpt lat="46.06595" lon="3.07061">
        <ele>463.01</ele>
        <time>2021-08-14T08:20:29Z</time>
      </trkpt>
      <trkpt lat="46.06589" lon="3.07049">
        <ele>462.05</ele>
        <time>2021-08-14T08:20:31Z</time>
      </trkpt>
      <trkpt lat="46.06574" lon="3.07014">
        <ele>457.72</ele>
        <time>2021-08-14T08:20:36Z</time>
      </trkpt>
      <trkpt lat="46.06565" lon="3.06987">
        <ele>455.8</ele>
        <time>2021-08-14T08:20:40Z</time>
      </trkpt>
      <trkpt lat="46.06557" lon="3.06959">
        <ele>452.92</ele>
        <time>2021-08-14T08:20:44Z</time>
      </trkpt>
      <trkpt lat="46.06555" lon="3.06952">
        <ele>451.96</ele>
        <time>2021-08-14T08:20:45Z</time>
      </trkpt>
      <trkpt lat="46.06554" lon="3.06945">
        <ele>451</ele>
        <time>2021-08-14T08:20:46Z</time>
      </trkpt>
      <trkpt lat="46.06553" lon="3.06939">
        <ele>450.52</ele>
        <time>2021-08-14T08:20:47Z</time>
      </trkpt>
      <trkpt lat="46.06546" lon="3.06913">
        <ele>446.67</ele>
        <time>2021-08-14T08:20:51Z</time>
      </trkpt>
      <trkpt lat="46.06543" lon="3.06908">
        <ele>446.19</ele>
        <time>2021-08-14T08:20:52Z</time>
      </trkpt>
      <trkpt lat="46.0654" lon="3.06904">
        <ele>445.71</ele>
        <time>2021-08-14T08:20:53Z</time>
      </trkpt>
      <trkpt lat="46.06537" lon="3.069">
        <ele>444.75</ele>
        <time>2021-08-14T08:20:54Z</time>
      </trkpt>
      <trkpt lat="46.06534" lon="3.06895">
        <ele>444.27</ele>
        <time>2021-08-14T08:20:55Z</time>
      </trkpt>
      <trkpt lat="46.06533" lon="3.0689">
        <ele>442.82</ele>
        <time>2021-08-14T08:20:56Z</time>
      </trkpt>
      <trkpt lat="46.06533" lon="3.06885">
        <ele>442.34</ele>
        <time>2021-08-14T08:20:57Z</time>
      </trkpt>
      <trkpt lat="46.06534" lon="3.0688">
        <ele>441.86</ele>
        <time>2021-08-14T08:20:58Z</time>
      </trkpt>
      <trkpt lat="46.06536" lon="3.06876">
        <ele>441.38</ele>
        <time>2021-08-14T08:20:59Z</time>
      </trkpt>
      <trkpt lat="46.06539" lon="3.06874">
        <ele>440.9</ele>
        <time>2021-08-14T08:21:00Z</time>
      </trkpt>
      <trkpt lat="46.06544" lon="3.06863">
        <ele>438.98</ele>
        <time>2021-08-14T08:21:03Z</time>
      </trkpt>
      <trkpt lat="46.06543" lon="3.06859">
        <ele>438.98</ele>
        <time>2021-08-14T08:21:04Z</time>
      </trkpt>
      <trkpt lat="46.06542" lon="3.06856">
        <ele>438.5</ele>
        <time>2021-08-14T08:21:05Z</time>
      </trkpt>
      <trkpt lat="46.06533" lon="3.06836">
        <ele>437.06</ele>
        <time>2021-08-14T08:21:09Z</time>
      </trkpt>
      <trkpt lat="46.06528" lon="3.06826">
        <ele>437.06</ele>
        <time>2021-08-14T08:21:11Z</time>
      </trkpt>
      <trkpt lat="46.06519" lon="3.06806">
        <ele>437.06</ele>
        <time>2021-08-14T08:21:17Z</time>
      </trkpt>
      <trkpt lat="46.06513" lon="3.06791">
        <ele>438.5</ele>
        <time>2021-08-14T08:21:24Z</time>
      </trkpt>
      <trkpt lat="46.06505" lon="3.06779">
        <ele>439.46</ele>
        <time>2021-08-14T08:21:31Z</time>
      </trkpt>
      <trkpt lat="46.06502" lon="3.06773">
        <ele>439.94</ele>
        <time>2021-08-14T08:21:34Z</time>
      </trkpt>
      <trkpt lat="46.06501" lon="3.06771">
        <ele>439.94</ele>
        <time>2021-08-14T08:21:35Z</time>
      </trkpt>
      <trkpt lat="46.065" lon="3.06769">
        <ele>440.42</ele>
        <time>2021-08-14T08:21:36Z</time>
      </trkpt>
      <trkpt lat="46.06499" lon="3.06767">
        <ele>440.42</ele>
        <time>2021-08-14T08:21:37Z</time>
      </trkpt>
      <trkpt lat="46.06499" lon="3.06765">
        <ele>440.42</ele>
        <time>2021-08-14T08:21:38Z</time>
      </trkpt>
      <trkpt lat="46.06498" lon="3.06763">
        <ele>440.9</ele>
        <time>2021-08-14T08:21:39Z</time>
      </trkpt>
      <trkpt lat="46.06497" lon="3.06761">
        <ele>440.9</ele>
        <time>2021-08-14T08:21:40Z</time>
      </trkpt>
      <trkpt lat="46.06496" lon="3.06759">
        <ele>440.9</ele>
        <time>2021-08-14T08:21:41Z</time>
      </trkpt>
      <trkpt lat="46.06495" lon="3.06758">
        <ele>441.38</ele>
        <time>2021-08-14T08:21:42Z</time>
      </trkpt>
      <trkpt lat="46.06489" lon="3.06744">
        <ele>442.34</ele>
        <time>2021-08-14T08:21:49Z</time>
      </trkpt>
      <trkpt lat="46.06486" lon="3.06736">
        <ele>442.34</ele>
        <time>2021-08-14T08:21:53Z</time>
      </trkpt>
      <trkpt lat="46.06478" lon="3.06719">
        <ele>443.31</ele>
        <time>2021-08-14T08:22:02Z</time>
      </trkpt>
      <trkpt lat="46.0647" lon="3.06703">
        <ele>444.27</ele>
        <time>2021-08-14T08:22:10Z</time>
      </trkpt>
      <trkpt lat="46.06462" lon="3.06683">
        <ele>444.75</ele>
        <time>2021-08-14T08:22:19Z</time>
      </trkpt>
      <trkpt lat="46.06454" lon="3.06665">
        <ele>445.23</ele>
        <time>2021-08-14T08:22:27Z</time>
      </trkpt>
      <trkpt lat="46.06449" lon="3.06645">
        <ele>445.71</ele>
        <time>2021-08-14T08:22:35Z</time>
      </trkpt>
      <trkpt lat="46.06445" lon="3.06623">
        <ele>446.67</ele>
        <time>2021-08-14T08:22:44Z</time>
      </trkpt>
      <trkpt lat="46.06437" lon="3.06602">
        <ele>448.11</ele>
        <time>2021-08-14T08:22:53Z</time>
      </trkpt>
      <trkpt lat="46.06427" lon="3.0659">
        <ele>449.07</ele>
        <time>2021-08-14T08:23:00Z</time>
      </trkpt>
      <trkpt lat="46.06415" lon="3.06578">
        <ele>449.55</ele>
        <time>2021-08-14T08:23:09Z</time>
      </trkpt>
      <trkpt lat="46.06401" lon="3.06571">
        <ele>451.48</ele>
        <time>2021-08-14T08:23:18Z</time>
      </trkpt>
      <trkpt lat="46.06394" lon="3.06567">
        <ele>451.96</ele>
        <time>2021-08-14T08:23:23Z</time>
      </trkpt>
      <trkpt lat="46.0639" lon="3.06566">
        <ele>452.44</ele>
        <time>2021-08-14T08:23:26Z</time>
      </trkpt>
      <trkpt lat="46.06389" lon="3.06565">
        <ele>452.44</ele>
        <time>2021-08-14T08:23:27Z</time>
      </trkpt>
      <trkpt lat="46.06387" lon="3.06564">
        <ele>452.92</ele>
        <time>2021-08-14T08:23:28Z</time>
      </trkpt>
      <trkpt lat="46.06386" lon="3.06564">
        <ele>452.92</ele>
        <time>2021-08-14T08:23:29Z</time>
      </trkpt>
      <trkpt lat="46.06384" lon="3.06563">
        <ele>452.92</ele>
        <time>2021-08-14T08:23:30Z</time>
      </trkpt>
      <trkpt lat="46.06383" lon="3.06562">
        <ele>453.4</ele>
        <time>2021-08-14T08:23:31Z</time>
      </trkpt>
      <trkpt lat="46.06382" lon="3.06562">
        <ele>453.4</ele>
        <time>2021-08-14T08:23:32Z</time>
      </trkpt>
      <trkpt lat="46.0638" lon="3.06562">
        <ele>453.4</ele>
        <time>2021-08-14T08:23:33Z</time>
      </trkpt>
      <trkpt lat="46.06379" lon="3.06562">
        <ele>453.88</ele>
        <time>2021-08-14T08:23:34Z</time>
      </trkpt>
      <trkpt lat="46.06378" lon="3.06561">
        <ele>453.88</ele>
        <time>2021-08-14T08:23:35Z</time>
      </trkpt>
      <trkpt lat="46.06377" lon="3.06561">
        <ele>454.36</ele>
        <time>2021-08-14T08:23:36Z</time>
      </trkpt>
      <trkpt lat="46.06374" lon="3.0656">
        <ele>454.36</ele>
        <time>2021-08-14T08:23:38Z</time>
      </trkpt>
      <trkpt lat="46.06363" lon="3.06558">
        <ele>455.8</ele>
        <time>2021-08-14T08:23:47Z</time>
      </trkpt>
      <trkpt lat="46.06352" lon="3.06555">
        <ele>456.76</ele>
        <time>2021-08-14T08:23:56Z</time>
      </trkpt>
      <trkpt lat="46.06339" lon="3.06552">
        <ele>457.72</ele>
        <time>2021-08-14T08:24:06Z</time>
      </trkpt>
      <trkpt lat="46.06337" lon="3.06551">
        <ele>458.21</ele>
        <time>2021-08-14T08:24:08Z</time>
      </trkpt>
      <trkpt lat="46.06336" lon="3.06551">
        <ele>458.21</ele>
        <time>2021-08-14T08:24:09Z</time>
      </trkpt>
      <trkpt lat="46.06334" lon="3.0655">
        <ele>458.21</ele>
        <time>2021-08-14T08:24:10Z</time>
      </trkpt>
      <trkpt lat="46.06322" lon="3.06543">
        <ele>459.65</ele>
        <time>2021-08-14T08:24:20Z</time>
      </trkpt>
      <trkpt lat="46.06318" lon="3.0654">
        <ele>459.65</ele>
        <time>2021-08-14T08:24:24Z</time>
      </trkpt>
      <trkpt lat="46.06317" lon="3.0654">
        <ele>460.13</ele>
        <time>2021-08-14T08:24:25Z</time>
      </trkpt>
      <trkpt lat="46.06316" lon="3.06539">
        <ele>460.13</ele>
        <time>2021-08-14T08:24:26Z</time>
      </trkpt>
      <trkpt lat="46.06315" lon="3.06538">
        <ele>460.13</ele>
        <time>2021-08-14T08:24:27Z</time>
      </trkpt>
      <trkpt lat="46.06314" lon="3.06537">
        <ele>460.13</ele>
        <time>2021-08-14T08:24:28Z</time>
      </trkpt>
      <trkpt lat="46.06313" lon="3.06536">
        <ele>460.61</ele>
        <time>2021-08-14T08:24:29Z</time>
      </trkpt>
      <trkpt lat="46.06311" lon="3.06535">
        <ele>460.61</ele>
        <time>2021-08-14T08:24:30Z</time>
      </trkpt>
      <trkpt lat="46.0631" lon="3.06534">
        <ele>460.61</ele>
        <time>2021-08-14T08:24:31Z</time>
      </trkpt>
      <trkpt lat="46.06309" lon="3.06534">
        <ele>460.61</ele>
        <time>2021-08-14T08:24:32Z</time>
      </trkpt>
      <trkpt lat="46.06308" lon="3.06534">
        <ele>460.61</ele>
        <time>2021-08-14T08:24:33Z</time>
      </trkpt>
      <trkpt lat="46.06307" lon="3.06533">
        <ele>461.09</ele>
        <time>2021-08-14T08:24:34Z</time>
      </trkpt>
      <trkpt lat="46.06305" lon="3.06532">
        <ele>461.09</ele>
        <time>2021-08-14T08:24:35Z</time>
      </trkpt>
      <trkpt lat="46.06304" lon="3.06531">
        <ele>461.09</ele>
        <time>2021-08-14T08:24:36Z</time>
      </trkpt>
      <trkpt lat="46.063" lon="3.06528">
        <ele>462.05</ele>
        <time>2021-08-14T08:24:40Z</time>
      </trkpt>
      <trkpt lat="46.06298" lon="3.06527">
        <ele>462.05</ele>
        <time>2021-08-14T08:24:41Z</time>
      </trkpt>
      <trkpt lat="46.06297" lon="3.06527">
        <ele>462.05</ele>
        <time>2021-08-14T08:24:42Z</time>
      </trkpt>
      <trkpt lat="46.06284" lon="3.06519">
        <ele>463.01</ele>
        <time>2021-08-14T08:24:52Z</time>
      </trkpt>
      <trkpt lat="46.06271" lon="3.06511">
        <ele>463.97</ele>
        <time>2021-08-14T08:25:00Z</time>
      </trkpt>
      <trkpt lat="46.06259" lon="3.06504">
        <ele>465.42</ele>
        <time>2021-08-14T08:25:08Z</time>
      </trkpt>
      <trkpt lat="46.06253" lon="3.06488">
        <ele>466.86</ele>
        <time>2021-08-14T08:25:16Z</time>
      </trkpt>
      <trkpt lat="46.06249" lon="3.06468">
        <ele>468.3</ele>
        <time>2021-08-14T08:25:25Z</time>
      </trkpt>
      <trkpt lat="46.06245" lon="3.06449">
        <ele>469.74</ele>
        <time>2021-08-14T08:25:33Z</time>
      </trkpt>
      <trkpt lat="46.06238" lon="3.06426">
        <ele>470.7</ele>
        <time>2021-08-14T08:25:43Z</time>
      </trkpt>
      <trkpt lat="46.06231" lon="3.0641">
        <ele>471.66</ele>
        <time>2021-08-14T08:25:51Z</time>
      </trkpt>
      <trkpt lat="46.06223" lon="3.06392">
        <ele>472.63</ele>
        <time>2021-08-14T08:26:00Z</time>
      </trkpt>
      <trkpt lat="46.06218" lon="3.06381">
        <ele>473.11</ele>
        <time>2021-08-14T08:26:05Z</time>
      </trkpt>
      <trkpt lat="46.06217" lon="3.0638">
        <ele>473.11</ele>
        <time>2021-08-14T08:26:06Z</time>
      </trkpt>
      <trkpt lat="46.06208" lon="3.06359">
        <ele>474.07</ele>
        <time>2021-08-14T08:26:15Z</time>
      </trkpt>
      <trkpt lat="46.06201" lon="3.06345">
        <ele>475.03</ele>
        <time>2021-08-14T08:26:22Z</time>
      </trkpt>
      <trkpt lat="46.06193" lon="3.06326">
        <ele>476.47</ele>
        <time>2021-08-14T08:26:31Z</time>
      </trkpt>
      <trkpt lat="46.06184" lon="3.06306">
        <ele>476.95</ele>
        <time>2021-08-14T08:26:41Z</time>
      </trkpt>
      <trkpt lat="46.06176" lon="3.0629">
        <ele>478.87</ele>
        <time>2021-08-14T08:26:50Z</time>
      </trkpt>
      <trkpt lat="46.06173" lon="3.06285">
        <ele>479.35</ele>
        <time>2021-08-14T08:26:53Z</time>
      </trkpt>
      <trkpt lat="46.06172" lon="3.06283">
        <ele>479.35</ele>
        <time>2021-08-14T08:26:54Z</time>
      </trkpt>
      <trkpt lat="46.06171" lon="3.06282">
        <ele>479.84</ele>
        <time>2021-08-14T08:26:55Z</time>
      </trkpt>
      <trkpt lat="46.0617" lon="3.0628">
        <ele>479.84</ele>
        <time>2021-08-14T08:26:56Z</time>
      </trkpt>
      <trkpt lat="46.06169" lon="3.06279">
        <ele>480.32</ele>
        <time>2021-08-14T08:26:57Z</time>
      </trkpt>
      <trkpt lat="46.06168" lon="3.06277">
        <ele>480.32</ele>
        <time>2021-08-14T08:26:58Z</time>
      </trkpt>
      <trkpt lat="46.06167" lon="3.06276">
        <ele>480.8</ele>
        <time>2021-08-14T08:26:59Z</time>
      </trkpt>
      <trkpt lat="46.06166" lon="3.06275">
        <ele>480.8</ele>
        <time>2021-08-14T08:27:00Z</time>
      </trkpt>
      <trkpt lat="46.0616" lon="3.06271">
        <ele>481.76</ele>
        <time>2021-08-14T08:27:05Z</time>
      </trkpt>
      <trkpt lat="46.06157" lon="3.06267">
        <ele>481.76</ele>
        <time>2021-08-14T08:27:08Z</time>
      </trkpt>
      <trkpt lat="46.06156" lon="3.06266">
        <ele>482.24</ele>
        <time>2021-08-14T08:27:09Z</time>
      </trkpt>
      <trkpt lat="46.06155" lon="3.06265">
        <ele>482.72</ele>
        <time>2021-08-14T08:27:10Z</time>
      </trkpt>
      <trkpt lat="46.06154" lon="3.06264">
        <ele>482.72</ele>
        <time>2021-08-14T08:27:11Z</time>
      </trkpt>
      <trkpt lat="46.06153" lon="3.06263">
        <ele>482.72</ele>
        <time>2021-08-14T08:27:12Z</time>
      </trkpt>
      <trkpt lat="46.06145" lon="3.06254">
        <ele>484.16</ele>
        <time>2021-08-14T08:27:20Z</time>
      </trkpt>
      <trkpt lat="46.06136" lon="3.06245">
        <ele>486.08</ele>
        <time>2021-08-14T08:27:29Z</time>
      </trkpt>
      <trkpt lat="46.06124" lon="3.06231">
        <ele>487.53</ele>
        <time>2021-08-14T08:27:40Z</time>
      </trkpt>
      <trkpt lat="46.0611" lon="3.06222">
        <ele>488.49</ele>
        <time>2021-08-14T08:27:49Z</time>
      </trkpt>
      <trkpt lat="46.06091" lon="3.06218">
        <ele>488.49</ele>
        <time>2021-08-14T08:27:57Z</time>
      </trkpt>
      <trkpt lat="46.06072" lon="3.0621">
        <ele>489.45</ele>
        <time>2021-08-14T08:28:05Z</time>
      </trkpt>
      <trkpt lat="46.0605" lon="3.06205">
        <ele>490.89</ele>
        <time>2021-08-14T08:28:14Z</time>
      </trkpt>
      <trkpt lat="46.06024" lon="3.06193">
        <ele>491.85</ele>
        <time>2021-08-14T08:28:25Z</time>
      </trkpt>
      <trkpt lat="46.06" lon="3.0618">
        <ele>492.81</ele>
        <time>2021-08-14T08:28:35Z</time>
      </trkpt>
      <trkpt lat="46.05982" lon="3.06169">
        <ele>494.74</ele>
        <time>2021-08-14T08:28:43Z</time>
      </trkpt>
      <trkpt lat="46.05962" lon="3.06159">
        <ele>496.18</ele>
        <time>2021-08-14T08:28:53Z</time>
      </trkpt>
      <trkpt lat="46.05943" lon="3.06149">
        <ele>497.62</ele>
        <time>2021-08-14T08:29:02Z</time>
      </trkpt>
      <trkpt lat="46.05923" lon="3.06139">
        <ele>498.58</ele>
        <time>2021-08-14T08:29:11Z</time>
      </trkpt>
      <trkpt lat="46.05904" lon="3.06134">
        <ele>500.5</ele>
        <time>2021-08-14T08:29:19Z</time>
      </trkpt>
      <trkpt lat="46.05879" lon="3.06125">
        <ele>500.98</ele>
        <time>2021-08-14T08:29:28Z</time>
      </trkpt>
      <trkpt lat="46.05854" lon="3.06115">
        <ele>501.95</ele>
        <time>2021-08-14T08:29:38Z</time>
      </trkpt>
      <trkpt lat="46.05831" lon="3.0611">
        <ele>502.43</ele>
        <time>2021-08-14T08:29:47Z</time>
      </trkpt>
      <trkpt lat="46.05817" lon="3.06127">
        <ele>501.46</ele>
        <time>2021-08-14T08:29:53Z</time>
      </trkpt>
      <trkpt lat="46.05789" lon="3.06159">
        <ele>499.54</ele>
        <time>2021-08-14T08:30:00Z</time>
      </trkpt>
      <trkpt lat="46.05766" lon="3.06186">
        <ele>497.14</ele>
        <time>2021-08-14T08:30:05Z</time>
      </trkpt>
      <trkpt lat="46.05761" lon="3.06191">
        <ele>497.14</ele>
        <time>2021-08-14T08:30:06Z</time>
      </trkpt>
      <trkpt lat="46.05756" lon="3.06195">
        <ele>497.14</ele>
        <time>2021-08-14T08:30:07Z</time>
      </trkpt>
      <trkpt lat="46.05751" lon="3.06198">
        <ele>496.66</ele>
        <time>2021-08-14T08:30:08Z</time>
      </trkpt>
      <trkpt lat="46.05746" lon="3.06201">
        <ele>496.66</ele>
        <time>2021-08-14T08:30:09Z</time>
      </trkpt>
      <trkpt lat="46.05731" lon="3.06209">
        <ele>496.66</ele>
        <time>2021-08-14T08:30:12Z</time>
      </trkpt>
      <trkpt lat="46.05727" lon="3.06212">
        <ele>496.66</ele>
        <time>2021-08-14T08:30:13Z</time>
      </trkpt>
      <trkpt lat="46.05721" lon="3.06213">
        <ele>496.18</ele>
        <time>2021-08-14T08:30:14Z</time>
      </trkpt>
      <trkpt lat="46.05717" lon="3.06212">
        <ele>496.18</ele>
        <time>2021-08-14T08:30:15Z</time>
      </trkpt>
      <trkpt lat="46.05713" lon="3.0621">
        <ele>496.18</ele>
        <time>2021-08-14T08:30:16Z</time>
      </trkpt>
      <trkpt lat="46.0571" lon="3.06208">
        <ele>496.18</ele>
        <time>2021-08-14T08:30:17Z</time>
      </trkpt>
      <trkpt lat="46.05707" lon="3.06207">
        <ele>496.18</ele>
        <time>2021-08-14T08:30:18Z</time>
      </trkpt>
      <trkpt lat="46.05704" lon="3.06206">
        <ele>497.62</ele>
        <time>2021-08-14T08:30:19Z</time>
      </trkpt>
      <trkpt lat="46.05702" lon="3.06205">
        <ele>497.62</ele>
        <time>2021-08-14T08:30:20Z</time>
      </trkpt>
      <trkpt lat="46.05689" lon="3.06209">
        <ele>497.62</ele>
        <time>2021-08-14T08:30:26Z</time>
      </trkpt>
      <trkpt lat="46.05683" lon="3.06213">
        <ele>497.62</ele>
        <time>2021-08-14T08:30:29Z</time>
      </trkpt>
      <trkpt lat="46.05683" lon="3.06215">
        <ele>497.62</ele>
        <time>2021-08-14T08:30:30Z</time>
      </trkpt>
      <trkpt lat="46.05684" lon="3.06217">
        <ele>498.1</ele>
        <time>2021-08-14T08:30:31Z</time>
      </trkpt>
      <trkpt lat="46.05685" lon="3.06217">
        <ele>498.1</ele>
        <time>2021-08-14T08:30:32Z</time>
      </trkpt>
      <trkpt lat="46.05686" lon="3.06215">
        <ele>498.1</ele>
        <time>2021-08-14T08:30:33Z</time>
      </trkpt>
      <trkpt lat="46.05687" lon="3.06212">
        <ele>498.1</ele>
        <time>2021-08-14T08:30:34Z</time>
      </trkpt>
      <trkpt lat="46.05688" lon="3.0621">
        <ele>498.1</ele>
        <time>2021-08-14T08:30:35Z</time>
      </trkpt>
      <trkpt lat="46.05689" lon="3.06208">
        <ele>498.1</ele>
        <time>2021-08-14T08:30:36Z</time>
      </trkpt>
      <trkpt lat="46.0569" lon="3.06207">
        <ele>498.1</ele>
        <time>2021-08-14T08:30:37Z</time>
      </trkpt>
      <trkpt lat="46.05692" lon="3.06205">
        <ele>498.1</ele>
        <time>2021-08-14T08:30:38Z</time>
      </trkpt>
      <trkpt lat="46.05693" lon="3.06204">
        <ele>498.1</ele>
        <time>2021-08-14T08:30:39Z</time>
      </trkpt>
      <trkpt lat="46.05692" lon="3.06201">
        <ele>498.1</ele>
        <time>2021-08-14T08:30:43Z</time>
      </trkpt>
      <trkpt lat="46.05692" lon="3.06202">
        <ele>498.1</ele>
        <time>2021-08-14T08:30:59Z</time>
      </trkpt>
      <trkpt lat="46.05694" lon="3.06201">
        <ele>498.1</ele>
        <time>2021-08-14T08:31:21Z</time>
      </trkpt>
      <trkpt lat="46.05693" lon="3.06201">
        <ele>498.1</ele>
        <time>2021-08-14T08:31:39Z</time>
      </trkpt>
      <trkpt lat="46.05692" lon="3.06202">
        <ele>498.1</ele>
        <time>2021-08-14T08:31:56Z</time>
      </trkpt>
      <trkpt lat="46.05693" lon="3.06203">
        <ele>498.1</ele>
        <time>2021-08-14T08:32:02Z</time>
      </trkpt>
      <trkpt lat="46.05693" lon="3.06201">
        <ele>498.1</ele>
        <time>2021-08-14T08:32:23Z</time>
      </trkpt>
      <trkpt lat="46.05692" lon="3.06203">
        <ele>498.1</ele>
        <time>2021-08-14T08:32:44Z</time>
      </trkpt>
      <trkpt lat="46.05692" lon="3.06206">
        <ele>498.1</ele>
        <time>2021-08-14T08:32:53Z</time>
      </trkpt>
      <trkpt lat="46.05693" lon="3.06206">
        <ele>498.1</ele>
        <time>2021-08-14T08:32:54Z</time>
      </trkpt>
      <trkpt lat="46.05697" lon="3.06205">
        <ele>498.1</ele>
        <time>2021-08-14T08:33:00Z</time>
      </trkpt>
      <trkpt lat="46.05698" lon="3.06204">
        <ele>498.1</ele>
        <time>2021-08-14T08:33:01Z</time>
      </trkpt>
      <trkpt lat="46.05699" lon="3.06204">
        <ele>498.1</ele>
        <time>2021-08-14T08:33:02Z</time>
      </trkpt>
      <trkpt lat="46.05701" lon="3.06204">
        <ele>498.1</ele>
        <time>2021-08-14T08:33:03Z</time>
      </trkpt>
      <trkpt lat="46.05704" lon="3.06204">
        <ele>498.1</ele>
        <time>2021-08-14T08:33:04Z</time>
      </trkpt>
      <trkpt lat="46.05706" lon="3.06206">
        <ele>498.1</ele>
        <time>2021-08-14T08:33:05Z</time>
      </trkpt>
      <trkpt lat="46.05724" lon="3.0621">
        <ele>498.1</ele>
        <time>2021-08-14T08:33:10Z</time>
      </trkpt>
      <trkpt lat="46.05728" lon="3.06209">
        <ele>498.1</ele>
        <time>2021-08-14T08:33:11Z</time>
      </trkpt>
      <trkpt lat="46.05731" lon="3.06206">
        <ele>498.1</ele>
        <time>2021-08-14T08:33:12Z</time>
      </trkpt>
      <trkpt lat="46.05734" lon="3.06204">
        <ele>498.1</ele>
        <time>2021-08-14T08:33:13Z</time>
      </trkpt>
      <trkpt lat="46.05738" lon="3.06202">
        <ele>498.1</ele>
        <time>2021-08-14T08:33:14Z</time>
      </trkpt>
      <trkpt lat="46.05742" lon="3.062">
        <ele>498.1</ele>
        <time>2021-08-14T08:33:15Z</time>
      </trkpt>
      <trkpt lat="46.05746" lon="3.06199">
        <ele>498.1</ele>
        <time>2021-08-14T08:33:16Z</time>
      </trkpt>
      <trkpt lat="46.05769" lon="3.0618">
        <ele>498.1</ele>
        <time>2021-08-14T08:33:23Z</time>
      </trkpt>
      <trkpt lat="46.05787" lon="3.0616">
        <ele>499.54</ele>
        <time>2021-08-14T08:33:31Z</time>
      </trkpt>
      <trkpt lat="46.05804" lon="3.06139">
        <ele>500.98</ele>
        <time>2021-08-14T08:33:39Z</time>
      </trkpt>
      <trkpt lat="46.05821" lon="3.06119">
        <ele>501.95</ele>
        <time>2021-08-14T08:33:47Z</time>
      </trkpt>
      <trkpt lat="46.05832" lon="3.06096">
        <ele>502.91</ele>
        <time>2021-08-14T08:33:55Z</time>
      </trkpt>
      <trkpt lat="46.05833" lon="3.06082">
        <ele>500.02</ele>
        <time>2021-08-14T08:33:57Z</time>
      </trkpt>
      <trkpt lat="46.05834" lon="3.06074">
        <ele>498.58</ele>
        <time>2021-08-14T08:33:58Z</time>
      </trkpt>
      <trkpt lat="46.05833" lon="3.06064">
        <ele>497.62</ele>
        <time>2021-08-14T08:33:59Z</time>
      </trkpt>
      <trkpt lat="46.05832" lon="3.06054">
        <ele>496.18</ele>
        <time>2021-08-14T08:34:00Z</time>
      </trkpt>
      <trkpt lat="46.0583" lon="3.06043">
        <ele>494.74</ele>
        <time>2021-08-14T08:34:01Z</time>
      </trkpt>
      <trkpt lat="46.05827" lon="3.06033">
        <ele>493.77</ele>
        <time>2021-08-14T08:34:02Z</time>
      </trkpt>
      <trkpt lat="46.05823" lon="3.06024">
        <ele>492.33</ele>
        <time>2021-08-14T08:34:03Z</time>
      </trkpt>
      <trkpt lat="46.0582" lon="3.06018">
        <ele>491.85</ele>
        <time>2021-08-14T08:34:04Z</time>
      </trkpt>
      <trkpt lat="46.05817" lon="3.06013">
        <ele>491.37</ele>
        <time>2021-08-14T08:34:05Z</time>
      </trkpt>
      <trkpt lat="46.05815" lon="3.06009">
        <ele>490.89</ele>
        <time>2021-08-14T08:34:06Z</time>
      </trkpt>
      <trkpt lat="46.05812" lon="3.06005">
        <ele>489.93</ele>
        <time>2021-08-14T08:34:10Z</time>
      </trkpt>
      <trkpt lat="46.05812" lon="3.06004">
        <ele>489.93</ele>
        <time>2021-08-14T08:34:16Z</time>
      </trkpt>
      <trkpt lat="46.05811" lon="3.06005">
        <ele>489.93</ele>
        <time>2021-08-14T08:34:31Z</time>
      </trkpt>
      <trkpt lat="46.05804" lon="3.05997">
        <ele>488.49</ele>
        <time>2021-08-14T08:34:35Z</time>
      </trkpt>
      <trkpt lat="46.05786" lon="3.05975">
        <ele>485.6</ele>
        <time>2021-08-14T08:34:40Z</time>
      </trkpt>
      <trkpt lat="46.05779" lon="3.05964">
        <ele>484.16</ele>
        <time>2021-08-14T08:34:42Z</time>
      </trkpt>
      <trkpt lat="46.05773" lon="3.05952">
        <ele>482.24</ele>
        <time>2021-08-14T08:34:44Z</time>
      </trkpt>
      <trkpt lat="46.05771" lon="3.05945">
        <ele>481.76</ele>
        <time>2021-08-14T08:34:45Z</time>
      </trkpt>
      <trkpt lat="46.05768" lon="3.05931">
        <ele>481.28</ele>
        <time>2021-08-14T08:34:47Z</time>
      </trkpt>
      <trkpt lat="46.05768" lon="3.05923">
        <ele>480.8</ele>
        <time>2021-08-14T08:34:48Z</time>
      </trkpt>
      <trkpt lat="46.05768" lon="3.05915">
        <ele>480.32</ele>
        <time>2021-08-14T08:34:49Z</time>
      </trkpt>
      <trkpt lat="46.05772" lon="3.05884">
        <ele>480.32</ele>
        <time>2021-08-14T08:34:53Z</time>
      </trkpt>
      <trkpt lat="46.05772" lon="3.05877">
        <ele>479.84</ele>
        <time>2021-08-14T08:34:54Z</time>
      </trkpt>
      <trkpt lat="46.05771" lon="3.05871">
        <ele>480.32</ele>
        <time>2021-08-14T08:34:55Z</time>
      </trkpt>
      <trkpt lat="46.0577" lon="3.05867">
        <ele>481.28</ele>
        <time>2021-08-14T08:34:56Z</time>
      </trkpt>
      <trkpt lat="46.05769" lon="3.05863">
        <ele>481.76</ele>
        <time>2021-08-14T08:34:57Z</time>
      </trkpt>
      <trkpt lat="46.05766" lon="3.05849">
        <ele>482.72</ele>
        <time>2021-08-14T08:35:04Z</time>
      </trkpt>
      <trkpt lat="46.05764" lon="3.05842">
        <ele>483.68</ele>
        <time>2021-08-14T08:35:08Z</time>
      </trkpt>
      <trkpt lat="46.05763" lon="3.0584">
        <ele>483.68</ele>
        <time>2021-08-14T08:35:09Z</time>
      </trkpt>
      <trkpt lat="46.05763" lon="3.05838">
        <ele>483.68</ele>
        <time>2021-08-14T08:35:10Z</time>
      </trkpt>
      <trkpt lat="46.05762" lon="3.05836">
        <ele>484.16</ele>
        <time>2021-08-14T08:35:11Z</time>
      </trkpt>
      <trkpt lat="46.05762" lon="3.05834">
        <ele>484.16</ele>
        <time>2021-08-14T08:35:12Z</time>
      </trkpt>
      <trkpt lat="46.05762" lon="3.05833">
        <ele>484.64</ele>
        <time>2021-08-14T08:35:13Z</time>
      </trkpt>
      <trkpt lat="46.05762" lon="3.05831">
        <ele>484.64</ele>
        <time>2021-08-14T08:35:14Z</time>
      </trkpt>
      <trkpt lat="46.05762" lon="3.05814">
        <ele>485.6</ele>
        <time>2021-08-14T08:35:22Z</time>
      </trkpt>
      <trkpt lat="46.05768" lon="3.05799">
        <ele>487.05</ele>
        <time>2021-08-14T08:35:30Z</time>
      </trkpt>
      <trkpt lat="46.05778" lon="3.05784">
        <ele>488.01</ele>
        <time>2021-08-14T08:35:38Z</time>
      </trkpt>
      <trkpt lat="46.05783" lon="3.05764">
        <ele>489.45</ele>
        <time>2021-08-14T08:35:47Z</time>
      </trkpt>
      <trkpt lat="46.05774" lon="3.05743">
        <ele>490.41</ele>
        <time>2021-08-14T08:35:57Z</time>
      </trkpt>
      <trkpt lat="46.05767" lon="3.05727">
        <ele>490.89</ele>
        <time>2021-08-14T08:36:05Z</time>
      </trkpt>
      <trkpt lat="46.05769" lon="3.05705">
        <ele>491.85</ele>
        <time>2021-08-14T08:36:14Z</time>
      </trkpt>
      <trkpt lat="46.05774" lon="3.05685">
        <ele>492.81</ele>
        <time>2021-08-14T08:36:22Z</time>
      </trkpt>
      <trkpt lat="46.0578" lon="3.05665">
        <ele>494.74</ele>
        <time>2021-08-14T08:36:32Z</time>
      </trkpt>
      <trkpt lat="46.05786" lon="3.05643">
        <ele>496.18</ele>
        <time>2021-08-14T08:36:43Z</time>
      </trkpt>
      <trkpt lat="46.05787" lon="3.05642">
        <ele>496.18</ele>
        <time>2021-08-14T08:36:44Z</time>
      </trkpt>
      <trkpt lat="46.05787" lon="3.0564">
        <ele>496.66</ele>
        <time>2021-08-14T08:36:45Z</time>
      </trkpt>
      <trkpt lat="46.05788" lon="3.05639">
        <ele>496.66</ele>
        <time>2021-08-14T08:36:46Z</time>
      </trkpt>
      <trkpt lat="46.05791" lon="3.05628">
        <ele>497.62</ele>
        <time>2021-08-14T08:36:53Z</time>
      </trkpt>
      <trkpt lat="46.05792" lon="3.05626">
        <ele>497.62</ele>
        <time>2021-08-14T08:36:54Z</time>
      </trkpt>
      <trkpt lat="46.05793" lon="3.05622">
        <ele>498.1</ele>
        <time>2021-08-14T08:36:58Z</time>
      </trkpt>
      <trkpt lat="46.05796" lon="3.05611">
        <ele>499.54</ele>
        <time>2021-08-14T08:37:06Z</time>
      </trkpt>
      <trkpt lat="46.05799" lon="3.05598">
        <ele>500.98</ele>
        <time>2021-08-14T08:37:16Z</time>
      </trkpt>
      <trkpt lat="46.05802" lon="3.05584">
        <ele>502.43</ele>
        <time>2021-08-14T08:37:28Z</time>
      </trkpt>
      <trkpt lat="46.05806" lon="3.05574">
        <ele>504.35</ele>
        <time>2021-08-14T08:37:38Z</time>
      </trkpt>
      <trkpt lat="46.05809" lon="3.05568">
        <ele>504.83</ele>
        <time>2021-08-14T08:37:44Z</time>
      </trkpt>
      <trkpt lat="46.05814" lon="3.05561">
        <ele>506.27</ele>
        <time>2021-08-14T08:37:52Z</time>
      </trkpt>
      <trkpt lat="46.05819" lon="3.05556">
        <ele>507.23</ele>
        <time>2021-08-14T08:38:00Z</time>
      </trkpt>
      <trkpt lat="46.05826" lon="3.05553">
        <ele>508.19</ele>
        <time>2021-08-14T08:38:08Z</time>
      </trkpt>
      <trkpt lat="46.05828" lon="3.05552">
        <ele>508.67</ele>
        <time>2021-08-14T08:38:10Z</time>
      </trkpt>
      <trkpt lat="46.05833" lon="3.05551">
        <ele>509.16</ele>
        <time>2021-08-14T08:38:15Z</time>
      </trkpt>
      <trkpt lat="46.05843" lon="3.05554">
        <ele>510.6</ele>
        <time>2021-08-14T08:38:25Z</time>
      </trkpt>
      <trkpt lat="46.05851" lon="3.05555">
        <ele>511.56</ele>
        <time>2021-08-14T08:38:33Z</time>
      </trkpt>
      <trkpt lat="46.05863" lon="3.05552">
        <ele>513</ele>
        <time>2021-08-14T08:38:44Z</time>
      </trkpt>
      <trkpt lat="46.05873" lon="3.05545">
        <ele>514.44</ele>
        <time>2021-08-14T08:38:55Z</time>
      </trkpt>
      <trkpt lat="46.05879" lon="3.05538">
        <ele>515.4</ele>
        <time>2021-08-14T08:39:03Z</time>
      </trkpt>
      <trkpt lat="46.05881" lon="3.05535">
        <ele>515.4</ele>
        <time>2021-08-14T08:39:10Z</time>
      </trkpt>
      <trkpt lat="46.05887" lon="3.05526">
        <ele>516.37</ele>
        <time>2021-08-14T08:39:17Z</time>
      </trkpt>
      <trkpt lat="46.05891" lon="3.0552">
        <ele>516.85</ele>
        <time>2021-08-14T08:39:21Z</time>
      </trkpt>
      <trkpt lat="46.05892" lon="3.05519">
        <ele>516.85</ele>
        <time>2021-08-14T08:39:22Z</time>
      </trkpt>
      <trkpt lat="46.05893" lon="3.05517">
        <ele>517.33</ele>
        <time>2021-08-14T08:39:23Z</time>
      </trkpt>
      <trkpt lat="46.05899" lon="3.05505">
        <ele>518.29</ele>
        <time>2021-08-14T08:39:31Z</time>
      </trkpt>
      <trkpt lat="46.059" lon="3.05504">
        <ele>518.29</ele>
        <time>2021-08-14T08:39:32Z</time>
      </trkpt>
      <trkpt lat="46.05901" lon="3.05502">
        <ele>518.29</ele>
        <time>2021-08-14T08:39:33Z</time>
      </trkpt>
      <trkpt lat="46.05902" lon="3.05501">
        <ele>518.29</ele>
        <time>2021-08-14T08:39:34Z</time>
      </trkpt>
      <trkpt lat="46.05903" lon="3.055">
        <ele>518.77</ele>
        <time>2021-08-14T08:39:35Z</time>
      </trkpt>
      <trkpt lat="46.05904" lon="3.05498">
        <ele>518.77</ele>
        <time>2021-08-14T08:39:36Z</time>
      </trkpt>
      <trkpt lat="46.05904" lon="3.05497">
        <ele>518.77</ele>
        <time>2021-08-14T08:39:37Z</time>
      </trkpt>
      <trkpt lat="46.05905" lon="3.05495">
        <ele>519.25</ele>
        <time>2021-08-14T08:39:38Z</time>
      </trkpt>
      <trkpt lat="46.05905" lon="3.05493">
        <ele>519.25</ele>
        <time>2021-08-14T08:39:39Z</time>
      </trkpt>
      <trkpt lat="46.05905" lon="3.05492">
        <ele>519.25</ele>
        <time>2021-08-14T08:39:40Z</time>
      </trkpt>
      <trkpt lat="46.05906" lon="3.0549">
        <ele>519.25</ele>
        <time>2021-08-14T08:39:41Z</time>
      </trkpt>
      <trkpt lat="46.05906" lon="3.05488">
        <ele>519.25</ele>
        <time>2021-08-14T08:39:42Z</time>
      </trkpt>
      <trkpt lat="46.05906" lon="3.05487">
        <ele>519.73</ele>
        <time>2021-08-14T08:39:43Z</time>
      </trkpt>
      <trkpt lat="46.05907" lon="3.05485">
        <ele>519.73</ele>
        <time>2021-08-14T08:39:44Z</time>
      </trkpt>
      <trkpt lat="46.05908" lon="3.05468">
        <ele>521.17</ele>
        <time>2021-08-14T08:39:53Z</time>
      </trkpt>
      <trkpt lat="46.05908" lon="3.05465">
        <ele>521.65</ele>
        <time>2021-08-14T08:39:55Z</time>
      </trkpt>
      <trkpt lat="46.05908" lon="3.05463">
        <ele>521.65</ele>
        <time>2021-08-14T08:39:56Z</time>
      </trkpt>
      <trkpt lat="46.05908" lon="3.05462">
        <ele>522.13</ele>
        <time>2021-08-14T08:39:57Z</time>
      </trkpt>
      <trkpt lat="46.05909" lon="3.0546">
        <ele>522.13</ele>
        <time>2021-08-14T08:39:58Z</time>
      </trkpt>
      <trkpt lat="46.05909" lon="3.05458">
        <ele>522.61</ele>
        <time>2021-08-14T08:39:59Z</time>
      </trkpt>
      <trkpt lat="46.05909" lon="3.05456">
        <ele>522.61</ele>
        <time>2021-08-14T08:40:00Z</time>
      </trkpt>
      <trkpt lat="46.05909" lon="3.05454">
        <ele>522.61</ele>
        <time>2021-08-14T08:40:01Z</time>
      </trkpt>
      <trkpt lat="46.05909" lon="3.05452">
        <ele>523.09</ele>
        <time>2021-08-14T08:40:02Z</time>
      </trkpt>
      <trkpt lat="46.0591" lon="3.05451">
        <ele>523.09</ele>
        <time>2021-08-14T08:40:03Z</time>
      </trkpt>
      <trkpt lat="46.0591" lon="3.05449">
        <ele>523.09</ele>
        <time>2021-08-14T08:40:04Z</time>
      </trkpt>
      <trkpt lat="46.0591" lon="3.05447">
        <ele>523.09</ele>
        <time>2021-08-14T08:40:05Z</time>
      </trkpt>
      <trkpt lat="46.05911" lon="3.05445">
        <ele>523.09</ele>
        <time>2021-08-14T08:40:06Z</time>
      </trkpt>
      <trkpt lat="46.05911" lon="3.05443">
        <ele>523.58</ele>
        <time>2021-08-14T08:40:07Z</time>
      </trkpt>
      <trkpt lat="46.05912" lon="3.05432">
        <ele>525.02</ele>
        <time>2021-08-14T08:40:15Z</time>
      </trkpt>
      <trkpt lat="46.05913" lon="3.05425">
        <ele>525.98</ele>
        <time>2021-08-14T08:40:21Z</time>
      </trkpt>
      <trkpt lat="46.05913" lon="3.05416">
        <ele>526.94</ele>
        <time>2021-08-14T08:40:31Z</time>
      </trkpt>
      <trkpt lat="46.05914" lon="3.05407">
        <ele>528.38</ele>
        <time>2021-08-14T08:40:39Z</time>
      </trkpt>
      <trkpt lat="46.05915" lon="3.05406">
        <ele>528.86</ele>
        <time>2021-08-14T08:40:47Z</time>
      </trkpt>
      <trkpt lat="46.05916" lon="3.05399">
        <ele>529.34</ele>
        <time>2021-08-14T08:40:55Z</time>
      </trkpt>
      <trkpt lat="46.05918" lon="3.05389">
        <ele>530.79</ele>
        <time>2021-08-14T08:41:05Z</time>
      </trkpt>
      <trkpt lat="46.05921" lon="3.0538">
        <ele>531.75</ele>
        <time>2021-08-14T08:41:13Z</time>
      </trkpt>
      <trkpt lat="46.05923" lon="3.05369">
        <ele>533.19</ele>
        <time>2021-08-14T08:41:23Z</time>
      </trkpt>
      <trkpt lat="46.05929" lon="3.05358">
        <ele>534.63</ele>
        <time>2021-08-14T08:41:33Z</time>
      </trkpt>
      <trkpt lat="46.05932" lon="3.05349">
        <ele>536.07</ele>
        <time>2021-08-14T08:41:41Z</time>
      </trkpt>
      <trkpt lat="46.05935" lon="3.05342">
        <ele>536.07</ele>
        <time>2021-08-14T08:41:48Z</time>
      </trkpt>
      <trkpt lat="46.0594" lon="3.05324">
        <ele>537.03</ele>
        <time>2021-08-14T08:41:55Z</time>
      </trkpt>
      <trkpt lat="46.05941" lon="3.05321">
        <ele>537.03</ele>
        <time>2021-08-14T08:41:56Z</time>
      </trkpt>
      <trkpt lat="46.05941" lon="3.05318">
        <ele>537.51</ele>
        <time>2021-08-14T08:41:57Z</time>
      </trkpt>
      <trkpt lat="46.05942" lon="3.05316">
        <ele>537.51</ele>
        <time>2021-08-14T08:41:58Z</time>
      </trkpt>
      <trkpt lat="46.05943" lon="3.05314">
        <ele>537.51</ele>
        <time>2021-08-14T08:41:59Z</time>
      </trkpt>
      <trkpt lat="46.05943" lon="3.05312">
        <ele>537.51</ele>
        <time>2021-08-14T08:42:00Z</time>
      </trkpt>
      <trkpt lat="46.05944" lon="3.05309">
        <ele>537.99</ele>
        <time>2021-08-14T08:42:01Z</time>
      </trkpt>
      <trkpt lat="46.05947" lon="3.05293">
        <ele>538.48</ele>
        <time>2021-08-14T08:42:07Z</time>
      </trkpt>
      <trkpt lat="46.05949" lon="3.05273">
        <ele>539.44</ele>
        <time>2021-08-14T08:42:15Z</time>
      </trkpt>
      <trkpt lat="46.05934" lon="3.05259">
        <ele>539.92</ele>
        <time>2021-08-14T08:42:24Z</time>
      </trkpt>
      <trkpt lat="46.05912" lon="3.05244">
        <ele>540.4</ele>
        <time>2021-08-14T08:42:33Z</time>
      </trkpt>
      <trkpt lat="46.05893" lon="3.05232">
        <ele>540.88</ele>
        <time>2021-08-14T08:42:40Z</time>
      </trkpt>
      <trkpt lat="46.05855" lon="3.05212">
        <ele>541.36</ele>
        <time>2021-08-14T08:42:52Z</time>
      </trkpt>
      <trkpt lat="46.05826" lon="3.05194">
        <ele>542.32</ele>
        <time>2021-08-14T08:43:02Z</time>
      </trkpt>
      <trkpt lat="46.05809" lon="3.05166">
        <ele>542.32</ele>
        <time>2021-08-14T08:43:09Z</time>
      </trkpt>
      <trkpt lat="46.05798" lon="3.05149">
        <ele>542.32</ele>
        <time>2021-08-14T08:43:13Z</time>
      </trkpt>
      <trkpt lat="46.0578" lon="3.05118">
        <ele>542.8</ele>
        <time>2021-08-14T08:43:21Z</time>
      </trkpt>
      <trkpt lat="46.05758" lon="3.05092">
        <ele>542.8</ele>
        <time>2021-08-14T08:43:29Z</time>
      </trkpt>
      <trkpt lat="46.0574" lon="3.05079">
        <ele>541.84</ele>
        <time>2021-08-14T08:43:33Z</time>
      </trkpt>
      <trkpt lat="46.05729" lon="3.05072">
        <ele>541.84</ele>
        <time>2021-08-14T08:43:35Z</time>
      </trkpt>
      <trkpt lat="46.05711" lon="3.05057">
        <ele>541.36</ele>
        <time>2021-08-14T08:43:39Z</time>
      </trkpt>
      <trkpt lat="46.05697" lon="3.05045">
        <ele>541.36</ele>
        <time>2021-08-14T08:43:42Z</time>
      </trkpt>
      <trkpt lat="46.05693" lon="3.05042">
        <ele>541.36</ele>
        <time>2021-08-14T08:43:43Z</time>
      </trkpt>
      <trkpt lat="46.05689" lon="3.05038">
        <ele>541.36</ele>
        <time>2021-08-14T08:43:44Z</time>
      </trkpt>
      <trkpt lat="46.05673" lon="3.05023">
        <ele>542.32</ele>
        <time>2021-08-14T08:43:48Z</time>
      </trkpt>
      <trkpt lat="46.05665" lon="3.05017">
        <ele>542.8</ele>
        <time>2021-08-14T08:43:50Z</time>
      </trkpt>
      <trkpt lat="46.05629" lon="3.04981">
        <ele>542.8</ele>
        <time>2021-08-14T08:43:59Z</time>
      </trkpt>
      <trkpt lat="46.05625" lon="3.04977">
        <ele>542.8</ele>
        <time>2021-08-14T08:44:00Z</time>
      </trkpt>
      <trkpt lat="46.05613" lon="3.04965">
        <ele>542.8</ele>
        <time>2021-08-14T08:44:03Z</time>
      </trkpt>
      <trkpt lat="46.05608" lon="3.04961">
        <ele>542.8</ele>
        <time>2021-08-14T08:44:04Z</time>
      </trkpt>
      <trkpt lat="46.05604" lon="3.04957">
        <ele>542.8</ele>
        <time>2021-08-14T08:44:05Z</time>
      </trkpt>
      <trkpt lat="46.05597" lon="3.04948">
        <ele>543.28</ele>
        <time>2021-08-14T08:44:07Z</time>
      </trkpt>
      <trkpt lat="46.0559" lon="3.04939">
        <ele>543.28</ele>
        <time>2021-08-14T08:44:09Z</time>
      </trkpt>
      <trkpt lat="46.05587" lon="3.04935">
        <ele>543.28</ele>
        <time>2021-08-14T08:44:10Z</time>
      </trkpt>
      <trkpt lat="46.0558" lon="3.04927">
        <ele>543.76</ele>
        <time>2021-08-14T08:44:12Z</time>
      </trkpt>
      <trkpt lat="46.05561" lon="3.04895">
        <ele>545.2</ele>
        <time>2021-08-14T08:44:20Z</time>
      </trkpt>
      <trkpt lat="46.05547" lon="3.04866">
        <ele>548.09</ele>
        <time>2021-08-14T08:44:30Z</time>
      </trkpt>
      <trkpt lat="46.05533" lon="3.04837">
        <ele>550.01</ele>
        <time>2021-08-14T08:44:40Z</time>
      </trkpt>
      <trkpt lat="46.05513" lon="3.04799">
        <ele>551.45</ele>
        <time>2021-08-14T08:44:52Z</time>
      </trkpt>
      <trkpt lat="46.05501" lon="3.0478">
        <ele>551.45</ele>
        <time>2021-08-14T08:44:58Z</time>
      </trkpt>
      <trkpt lat="46.05479" lon="3.04756">
        <ele>551.45</ele>
        <time>2021-08-14T08:45:05Z</time>
      </trkpt>
      <trkpt lat="46.05476" lon="3.04753">
        <ele>551.93</ele>
        <time>2021-08-14T08:45:06Z</time>
      </trkpt>
      <trkpt lat="46.05473" lon="3.0475">
        <ele>551.45</ele>
        <time>2021-08-14T08:45:07Z</time>
      </trkpt>
      <trkpt lat="46.05455" lon="3.04731">
        <ele>551.45</ele>
        <time>2021-08-14T08:45:13Z</time>
      </trkpt>
      <trkpt lat="46.05452" lon="3.04728">
        <ele>551.45</ele>
        <time>2021-08-14T08:45:14Z</time>
      </trkpt>
      <trkpt lat="46.05448" lon="3.04725">
        <ele>551.45</ele>
        <time>2021-08-14T08:45:15Z</time>
      </trkpt>
      <trkpt lat="46.05436" lon="3.04717">
        <ele>551.45</ele>
        <time>2021-08-14T08:45:18Z</time>
      </trkpt>
      <trkpt lat="46.05422" lon="3.04705">
        <ele>551.45</ele>
        <time>2021-08-14T08:45:22Z</time>
      </trkpt>
      <trkpt lat="46.05418" lon="3.04702">
        <ele>551.45</ele>
        <time>2021-08-14T08:45:23Z</time>
      </trkpt>
      <trkpt lat="46.05397" lon="3.04697">
        <ele>551.45</ele>
        <time>2021-08-14T08:45:29Z</time>
      </trkpt>
      <trkpt lat="46.05374" lon="3.04693">
        <ele>553.38</ele>
        <time>2021-08-14T08:45:37Z</time>
      </trkpt>
      <trkpt lat="46.05354" lon="3.04684">
        <ele>554.82</ele>
        <time>2021-08-14T08:45:45Z</time>
      </trkpt>
      <trkpt lat="46.05336" lon="3.04676">
        <ele>555.3</ele>
        <time>2021-08-14T08:45:52Z</time>
      </trkpt>
      <trkpt lat="46.05308" lon="3.04664">
        <ele>556.74</ele>
        <time>2021-08-14T08:46:03Z</time>
      </trkpt>
      <trkpt lat="46.05294" lon="3.04656">
        <ele>558.18</ele>
        <time>2021-08-14T08:46:09Z</time>
      </trkpt>
      <trkpt lat="46.05278" lon="3.04646">
        <ele>559.14</ele>
        <time>2021-08-14T08:46:17Z</time>
      </trkpt>
      <trkpt lat="46.05261" lon="3.04635">
        <ele>561.07</ele>
        <time>2021-08-14T08:46:26Z</time>
      </trkpt>
      <trkpt lat="46.05246" lon="3.04625">
        <ele>562.99</ele>
        <time>2021-08-14T08:46:36Z</time>
      </trkpt>
      <trkpt lat="46.05236" lon="3.04614">
        <ele>564.43</ele>
        <time>2021-08-14T08:46:45Z</time>
      </trkpt>
      <trkpt lat="46.05234" lon="3.04611">
        <ele>564.91</ele>
        <time>2021-08-14T08:46:48Z</time>
      </trkpt>
      <trkpt lat="46.05233" lon="3.04609">
        <ele>564.91</ele>
        <time>2021-08-14T08:46:49Z</time>
      </trkpt>
      <trkpt lat="46.05232" lon="3.04607">
        <ele>565.39</ele>
        <time>2021-08-14T08:46:50Z</time>
      </trkpt>
      <trkpt lat="46.05231" lon="3.04606">
        <ele>565.39</ele>
        <time>2021-08-14T08:46:51Z</time>
      </trkpt>
      <trkpt lat="46.0523" lon="3.04604">
        <ele>565.87</ele>
        <time>2021-08-14T08:46:52Z</time>
      </trkpt>
      <trkpt lat="46.05229" lon="3.04602">
        <ele>565.87</ele>
        <time>2021-08-14T08:46:53Z</time>
      </trkpt>
      <trkpt lat="46.0522" lon="3.0459">
        <ele>567.32</ele>
        <time>2021-08-14T08:47:01Z</time>
      </trkpt>
      <trkpt lat="46.05212" lon="3.04575">
        <ele>568.76</ele>
        <time>2021-08-14T08:47:10Z</time>
      </trkpt>
      <trkpt lat="46.052" lon="3.04561">
        <ele>569.72</ele>
        <time>2021-08-14T08:47:20Z</time>
      </trkpt>
      <trkpt lat="46.05185" lon="3.04551">
        <ele>571.16</ele>
        <time>2021-08-14T08:47:29Z</time>
      </trkpt>
      <trkpt lat="46.0517" lon="3.04543">
        <ele>572.6</ele>
        <time>2021-08-14T08:47:38Z</time>
      </trkpt>
      <trkpt lat="46.05153" lon="3.04534">
        <ele>573.08</ele>
        <time>2021-08-14T08:47:46Z</time>
      </trkpt>
      <trkpt lat="46.05131" lon="3.0452">
        <ele>574.04</ele>
        <time>2021-08-14T08:47:54Z</time>
      </trkpt>
      <trkpt lat="46.05109" lon="3.04511">
        <ele>574.04</ele>
        <time>2021-08-14T08:48:02Z</time>
      </trkpt>
      <trkpt lat="46.05086" lon="3.04499">
        <ele>574.04</ele>
        <time>2021-08-14T08:48:10Z</time>
      </trkpt>
      <trkpt lat="46.05076" lon="3.04494">
        <ele>574.04</ele>
        <time>2021-08-14T08:48:16Z</time>
      </trkpt>
      <trkpt lat="46.05075" lon="3.04494">
        <ele>574.04</ele>
        <time>2021-08-14T08:48:28Z</time>
      </trkpt>
      <trkpt lat="46.05068" lon="3.04492">
        <ele>574.04</ele>
        <time>2021-08-14T08:48:34Z</time>
      </trkpt>
      <trkpt lat="46.05068" lon="3.04492">
        <ele>574.04</ele>
        <time>2021-08-14T08:48:48Z</time>
      </trkpt>
      <trkpt lat="46.05068" lon="3.04492">
        <ele>574.04</ele>
        <time>2021-08-14T08:49:05Z</time>
      </trkpt>
      <trkpt lat="46.05069" lon="3.0449">
        <ele>574.04</ele>
        <time>2021-08-14T08:49:08Z</time>
      </trkpt>
      <trkpt lat="46.05069" lon="3.04488">
        <ele>574.04</ele>
        <time>2021-08-14T08:49:09Z</time>
      </trkpt>
      <trkpt lat="46.0507" lon="3.04486">
        <ele>574.04</ele>
        <time>2021-08-14T08:49:10Z</time>
      </trkpt>
      <trkpt lat="46.05071" lon="3.04485">
        <ele>574.04</ele>
        <time>2021-08-14T08:49:11Z</time>
      </trkpt>
      <trkpt lat="46.05072" lon="3.04483">
        <ele>574.04</ele>
        <time>2021-08-14T08:49:12Z</time>
      </trkpt>
      <trkpt lat="46.05073" lon="3.0448">
        <ele>574.04</ele>
        <time>2021-08-14T08:49:13Z</time>
      </trkpt>
      <trkpt lat="46.05074" lon="3.04477">
        <ele>574.04</ele>
        <time>2021-08-14T08:49:14Z</time>
      </trkpt>
      <trkpt lat="46.05083" lon="3.04445">
        <ele>574.04</ele>
        <time>2021-08-14T08:49:21Z</time>
      </trkpt>
      <trkpt lat="46.05085" lon="3.04412">
        <ele>574.04</ele>
        <time>2021-08-14T08:49:28Z</time>
      </trkpt>
      <trkpt lat="46.05082" lon="3.04379">
        <ele>574.04</ele>
        <time>2021-08-14T08:49:35Z</time>
      </trkpt>
      <trkpt lat="46.05076" lon="3.0434">
        <ele>574.04</ele>
        <time>2021-08-14T08:49:43Z</time>
      </trkpt>
      <trkpt lat="46.05073" lon="3.04334">
        <ele>574.04</ele>
        <time>2021-08-14T08:49:45Z</time>
      </trkpt>
      <trkpt lat="46.0507" lon="3.04334">
        <ele>574.04</ele>
        <time>2021-08-14T08:49:46Z</time>
      </trkpt>
      <trkpt lat="46.05067" lon="3.04337">
        <ele>574.04</ele>
        <time>2021-08-14T08:49:47Z</time>
      </trkpt>
      <trkpt lat="46.05066" lon="3.04342">
        <ele>574.04</ele>
        <time>2021-08-14T08:49:48Z</time>
      </trkpt>
      <trkpt lat="46.05066" lon="3.04347">
        <ele>574.04</ele>
        <time>2021-08-14T08:49:49Z</time>
      </trkpt>
      <trkpt lat="46.05067" lon="3.04354">
        <ele>574.04</ele>
        <time>2021-08-14T08:49:50Z</time>
      </trkpt>
      <trkpt lat="46.05068" lon="3.04385">
        <ele>574.04</ele>
        <time>2021-08-14T08:49:55Z</time>
      </trkpt>
      <trkpt lat="46.05066" lon="3.04412">
        <ele>574.04</ele>
        <time>2021-08-14T08:49:59Z</time>
      </trkpt>
      <trkpt lat="46.05059" lon="3.04453">
        <ele>574.04</ele>
        <time>2021-08-14T08:50:06Z</time>
      </trkpt>
      <trkpt lat="46.05058" lon="3.04459">
        <ele>574.04</ele>
        <time>2021-08-14T08:50:07Z</time>
      </trkpt>
      <trkpt lat="46.05056" lon="3.0447">
        <ele>574.04</ele>
        <time>2021-08-14T08:50:09Z</time>
      </trkpt>
      <trkpt lat="46.05051" lon="3.04487">
        <ele>574.04</ele>
        <time>2021-08-14T08:50:12Z</time>
      </trkpt>
      <trkpt lat="46.05048" lon="3.04492">
        <ele>574.04</ele>
        <time>2021-08-14T08:50:13Z</time>
      </trkpt>
      <trkpt lat="46.05045" lon="3.04497">
        <ele>574.04</ele>
        <time>2021-08-14T08:50:14Z</time>
      </trkpt>
      <trkpt lat="46.05042" lon="3.04503">
        <ele>574.04</ele>
        <time>2021-08-14T08:50:15Z</time>
      </trkpt>
      <trkpt lat="46.0504" lon="3.04508">
        <ele>574.04</ele>
        <time>2021-08-14T08:50:16Z</time>
      </trkpt>
      <trkpt lat="46.05035" lon="3.04519">
        <ele>574.53</ele>
        <time>2021-08-14T08:50:18Z</time>
      </trkpt>
      <trkpt lat="46.05032" lon="3.04523">
        <ele>574.53</ele>
        <time>2021-08-14T08:50:19Z</time>
      </trkpt>
      <trkpt lat="46.05028" lon="3.04525">
        <ele>574.53</ele>
        <time>2021-08-14T08:50:20Z</time>
      </trkpt>
      <trkpt lat="46.05024" lon="3.04528">
        <ele>574.53</ele>
        <time>2021-08-14T08:50:21Z</time>
      </trkpt>
      <trkpt lat="46.05019" lon="3.04529">
        <ele>572.6</ele>
        <time>2021-08-14T08:50:22Z</time>
      </trkpt>
      <trkpt lat="46.05014" lon="3.0453">
        <ele>574.04</ele>
        <time>2021-08-14T08:50:23Z</time>
      </trkpt>
      <trkpt lat="46.0501" lon="3.04529">
        <ele>574.04</ele>
        <time>2021-08-14T08:50:24Z</time>
      </trkpt>
      <trkpt lat="46.05005" lon="3.04528">
        <ele>574.04</ele>
        <time>2021-08-14T08:50:25Z</time>
      </trkpt>
      <trkpt lat="46.0498" lon="3.04525">
        <ele>572.12</ele>
        <time>2021-08-14T08:50:29Z</time>
      </trkpt>
      <trkpt lat="46.04927" lon="3.04517">
        <ele>571.16</ele>
        <time>2021-08-14T08:50:38Z</time>
      </trkpt>
      <trkpt lat="46.04871" lon="3.0451">
        <ele>570.2</ele>
        <time>2021-08-14T08:50:48Z</time>
      </trkpt>
      <trkpt lat="46.04824" lon="3.04507">
        <ele>566.35</ele>
        <time>2021-08-14T08:50:55Z</time>
      </trkpt>
      <trkpt lat="46.04783" lon="3.04506">
        <ele>563.47</ele>
        <time>2021-08-14T08:51:00Z</time>
      </trkpt>
      <trkpt lat="46.04738" lon="3.04499">
        <ele>560.11</ele>
        <time>2021-08-14T08:51:05Z</time>
      </trkpt>
      <trkpt lat="46.04691" lon="3.0449">
        <ele>558.18</ele>
        <time>2021-08-14T08:51:11Z</time>
      </trkpt>
      <trkpt lat="46.04668" lon="3.04484">
        <ele>556.26</ele>
        <time>2021-08-14T08:51:16Z</time>
      </trkpt>
      <trkpt lat="46.04666" lon="3.04482">
        <ele>556.26</ele>
        <time>2021-08-14T08:51:17Z</time>
      </trkpt>
      <trkpt lat="46.04666" lon="3.04479">
        <ele>555.78</ele>
        <time>2021-08-14T08:51:18Z</time>
      </trkpt>
      <trkpt lat="46.04667" lon="3.04474">
        <ele>555.78</ele>
        <time>2021-08-14T08:51:19Z</time>
      </trkpt>
      <trkpt lat="46.04668" lon="3.04469">
        <ele>555.78</ele>
        <time>2021-08-14T08:51:20Z</time>
      </trkpt>
      <trkpt lat="46.0467" lon="3.04464">
        <ele>555.3</ele>
        <time>2021-08-14T08:51:21Z</time>
      </trkpt>
      <trkpt lat="46.04672" lon="3.04458">
        <ele>555.3</ele>
        <time>2021-08-14T08:51:22Z</time>
      </trkpt>
      <trkpt lat="46.04689" lon="3.04412">
        <ele>553.86</ele>
        <time>2021-08-14T08:51:28Z</time>
      </trkpt>
      <trkpt lat="46.04704" lon="3.04356">
        <ele>553.38</ele>
        <time>2021-08-14T08:51:35Z</time>
      </trkpt>
      <trkpt lat="46.04706" lon="3.04349">
        <ele>553.38</ele>
        <time>2021-08-14T08:51:36Z</time>
      </trkpt>
      <trkpt lat="46.04723" lon="3.04304">
        <ele>552.9</ele>
        <time>2021-08-14T08:51:43Z</time>
      </trkpt>
      <trkpt lat="46.04724" lon="3.04296">
        <ele>552.41</ele>
        <time>2021-08-14T08:51:44Z</time>
      </trkpt>
      <trkpt lat="46.04725" lon="3.04289">
        <ele>552.41</ele>
        <time>2021-08-14T08:51:45Z</time>
      </trkpt>
      <trkpt lat="46.04727" lon="3.04259">
        <ele>552.41</ele>
        <time>2021-08-14T08:51:49Z</time>
      </trkpt>
      <trkpt lat="46.04728" lon="3.04207">
        <ele>552.41</ele>
        <time>2021-08-14T08:51:57Z</time>
      </trkpt>
      <trkpt lat="46.04725" lon="3.0417">
        <ele>553.86</ele>
        <time>2021-08-14T08:52:04Z</time>
      </trkpt>
      <trkpt lat="46.04722" lon="3.04153">
        <ele>553.86</ele>
        <time>2021-08-14T08:52:07Z</time>
      </trkpt>
      <trkpt lat="46.04712" lon="3.04125">
        <ele>553.86</ele>
        <time>2021-08-14T08:52:12Z</time>
      </trkpt>
      <trkpt lat="46.04709" lon="3.0412">
        <ele>553.86</ele>
        <time>2021-08-14T08:52:13Z</time>
      </trkpt>
      <trkpt lat="46.04692" lon="3.04096">
        <ele>553.86</ele>
        <time>2021-08-14T08:52:18Z</time>
      </trkpt>
      <trkpt lat="46.04664" lon="3.04058">
        <ele>552.41</ele>
        <time>2021-08-14T08:52:25Z</time>
      </trkpt>
      <trkpt lat="46.04627" lon="3.04008">
        <ele>552.41</ele>
        <time>2021-08-14T08:52:34Z</time>
      </trkpt>
      <trkpt lat="46.04599" lon="3.03974">
        <ele>552.41</ele>
        <time>2021-08-14T08:52:41Z</time>
      </trkpt>
      <trkpt lat="46.04596" lon="3.03969">
        <ele>552.41</ele>
        <time>2021-08-14T08:52:42Z</time>
      </trkpt>
      <trkpt lat="46.04589" lon="3.03959">
        <ele>553.86</ele>
        <time>2021-08-14T08:52:44Z</time>
      </trkpt>
      <trkpt lat="46.04557" lon="3.03913">
        <ele>554.34</ele>
        <time>2021-08-14T08:52:53Z</time>
      </trkpt>
      <trkpt lat="46.04529" lon="3.0388">
        <ele>552.9</ele>
        <time>2021-08-14T08:52:59Z</time>
      </trkpt>
      <trkpt lat="46.04497" lon="3.03845">
        <ele>551.93</ele>
        <time>2021-08-14T08:53:05Z</time>
      </trkpt>
      <trkpt lat="46.0445" lon="3.03796">
        <ele>551.45</ele>
        <time>2021-08-14T08:53:14Z</time>
      </trkpt>
      <trkpt lat="46.04425" lon="3.03772">
        <ele>551.45</ele>
        <time>2021-08-14T08:53:19Z</time>
      </trkpt>
      <trkpt lat="46.04381" lon="3.03729">
        <ele>551.45</ele>
        <time>2021-08-14T08:53:28Z</time>
      </trkpt>
      <trkpt lat="46.04343" lon="3.0369">
        <ele>552.9</ele>
        <time>2021-08-14T08:53:37Z</time>
      </trkpt>
      <trkpt lat="46.04331" lon="3.03678">
        <ele>553.38</ele>
        <time>2021-08-14T08:53:40Z</time>
      </trkpt>
      <trkpt lat="46.04327" lon="3.03673">
        <ele>553.38</ele>
        <time>2021-08-14T08:53:41Z</time>
      </trkpt>
      <trkpt lat="46.04324" lon="3.03668">
        <ele>553.38</ele>
        <time>2021-08-14T08:53:42Z</time>
      </trkpt>
      <trkpt lat="46.04308" lon="3.03651">
        <ele>553.86</ele>
        <time>2021-08-14T08:53:46Z</time>
      </trkpt>
      <trkpt lat="46.04304" lon="3.03646">
        <ele>553.86</ele>
        <time>2021-08-14T08:53:47Z</time>
      </trkpt>
      <trkpt lat="46.04273" lon="3.03599">
        <ele>553.86</ele>
        <time>2021-08-14T08:53:55Z</time>
      </trkpt>
      <trkpt lat="46.04266" lon="3.03585">
        <ele>552.41</ele>
        <time>2021-08-14T08:53:57Z</time>
      </trkpt>
      <trkpt lat="46.04228" lon="3.03521">
        <ele>551.93</ele>
        <time>2021-08-14T08:54:07Z</time>
      </trkpt>
      <trkpt lat="46.04206" lon="3.03484">
        <ele>553.38</ele>
        <time>2021-08-14T08:54:14Z</time>
      </trkpt>
      <trkpt lat="46.04203" lon="3.03479">
        <ele>553.86</ele>
        <time>2021-08-14T08:54:15Z</time>
      </trkpt>
      <trkpt lat="46.04201" lon="3.03474">
        <ele>553.86</ele>
        <time>2021-08-14T08:54:16Z</time>
      </trkpt>
      <trkpt lat="46.04198" lon="3.0347">
        <ele>553.86</ele>
        <time>2021-08-14T08:54:17Z</time>
      </trkpt>
      <trkpt lat="46.04195" lon="3.03466">
        <ele>554.34</ele>
        <time>2021-08-14T08:54:18Z</time>
      </trkpt>
      <trkpt lat="46.04177" lon="3.03437">
        <ele>554.82</ele>
        <time>2021-08-14T08:54:26Z</time>
      </trkpt>
      <trkpt lat="46.04163" lon="3.03416">
        <ele>555.78</ele>
        <time>2021-08-14T08:54:32Z</time>
      </trkpt>
      <trkpt lat="46.04145" lon="3.0339">
        <ele>556.74</ele>
        <time>2021-08-14T08:54:40Z</time>
      </trkpt>
      <trkpt lat="46.04126" lon="3.03365">
        <ele>557.7</ele>
        <time>2021-08-14T08:54:49Z</time>
      </trkpt>
      <trkpt lat="46.04108" lon="3.03344">
        <ele>559.14</ele>
        <time>2021-08-14T08:54:58Z</time>
      </trkpt>
      <trkpt lat="46.04093" lon="3.03325">
        <ele>560.59</ele>
        <time>2021-08-14T08:55:06Z</time>
      </trkpt>
      <trkpt lat="46.04073" lon="3.03302">
        <ele>561.55</ele>
        <time>2021-08-14T08:55:17Z</time>
      </trkpt>
      <trkpt lat="46.04058" lon="3.03287">
        <ele>562.99</ele>
        <time>2021-08-14T08:55:24Z</time>
      </trkpt>
      <trkpt lat="46.04039" lon="3.03264">
        <ele>564.43</ele>
        <time>2021-08-14T08:55:34Z</time>
      </trkpt>
      <trkpt lat="46.04015" lon="3.03244">
        <ele>565.39</ele>
        <time>2021-08-14T08:55:45Z</time>
      </trkpt>
      <trkpt lat="46.04008" lon="3.03237">
        <ele>565.87</ele>
        <time>2021-08-14T08:55:48Z</time>
      </trkpt>
      <trkpt lat="46.04006" lon="3.03215">
        <ele>566.83</ele>
        <time>2021-08-14T08:55:55Z</time>
      </trkpt>
      <trkpt lat="46.04003" lon="3.03179">
        <ele>568.28</ele>
        <time>2021-08-14T08:56:06Z</time>
      </trkpt>
      <trkpt lat="46.03997" lon="3.03153">
        <ele>568.76</ele>
        <time>2021-08-14T08:56:15Z</time>
      </trkpt>
      <trkpt lat="46.03989" lon="3.0313">
        <ele>569.24</ele>
        <time>2021-08-14T08:56:22Z</time>
      </trkpt>
      <trkpt lat="46.03983" lon="3.03104">
        <ele>569.72</ele>
        <time>2021-08-14T08:56:30Z</time>
      </trkpt>
      <trkpt lat="46.03974" lon="3.03066">
        <ele>571.16</ele>
        <time>2021-08-14T08:56:42Z</time>
      </trkpt>
      <trkpt lat="46.03971" lon="3.0305">
        <ele>571.64</ele>
        <time>2021-08-14T08:56:47Z</time>
      </trkpt>
      <trkpt lat="46.03962" lon="3.03017">
        <ele>572.6</ele>
        <time>2021-08-14T08:56:56Z</time>
      </trkpt>
      <trkpt lat="46.03945" lon="3.02976">
        <ele>573.56</ele>
        <time>2021-08-14T08:57:08Z</time>
      </trkpt>
      <trkpt lat="46.03931" lon="3.02949">
        <ele>574.53</ele>
        <time>2021-08-14T08:57:16Z</time>
      </trkpt>
      <trkpt lat="46.03917" lon="3.02933">
        <ele>574.53</ele>
        <time>2021-08-14T08:57:22Z</time>
      </trkpt>
      <trkpt lat="46.03903" lon="3.02915">
        <ele>575.01</ele>
        <time>2021-08-14T08:57:28Z</time>
      </trkpt>
      <trkpt lat="46.03882" lon="3.02884">
        <ele>575.97</ele>
        <time>2021-08-14T08:57:36Z</time>
      </trkpt>
      <trkpt lat="46.03863" lon="3.02845">
        <ele>576.93</ele>
        <time>2021-08-14T08:57:45Z</time>
      </trkpt>
      <trkpt lat="46.03848" lon="3.02802">
        <ele>577.41</ele>
        <time>2021-08-14T08:57:54Z</time>
      </trkpt>
      <trkpt lat="46.03832" lon="3.02759">
        <ele>578.85</ele>
        <time>2021-08-14T08:58:03Z</time>
      </trkpt>
      <trkpt lat="46.03824" lon="3.02731">
        <ele>579.81</ele>
        <time>2021-08-14T08:58:09Z</time>
      </trkpt>
      <trkpt lat="46.03823" lon="3.02726">
        <ele>579.81</ele>
        <time>2021-08-14T08:58:10Z</time>
      </trkpt>
      <trkpt lat="46.03822" lon="3.02721">
        <ele>580.77</ele>
        <time>2021-08-14T08:58:11Z</time>
      </trkpt>
      <trkpt lat="46.03814" lon="3.02676">
        <ele>580.77</ele>
        <time>2021-08-14T08:58:20Z</time>
      </trkpt>
      <trkpt lat="46.0381" lon="3.02658">
        <ele>580.29</ele>
        <time>2021-08-14T08:58:23Z</time>
      </trkpt>
      <trkpt lat="46.03807" lon="3.02645">
        <ele>578.85</ele>
        <time>2021-08-14T08:58:25Z</time>
      </trkpt>
      <trkpt lat="46.03805" lon="3.02638">
        <ele>577.89</ele>
        <time>2021-08-14T08:58:26Z</time>
      </trkpt>
      <trkpt lat="46.03804" lon="3.0263">
        <ele>577.41</ele>
        <time>2021-08-14T08:58:27Z</time>
      </trkpt>
      <trkpt lat="46.03792" lon="3.02587">
        <ele>574.53</ele>
        <time>2021-08-14T08:58:32Z</time>
      </trkpt>
      <trkpt lat="46.03776" lon="3.02551">
        <ele>571.16</ele>
        <time>2021-08-14T08:58:36Z</time>
      </trkpt>
      <trkpt lat="46.03768" lon="3.02537">
        <ele>569.72</ele>
        <time>2021-08-14T08:58:38Z</time>
      </trkpt>
      <trkpt lat="46.03762" lon="3.0252">
        <ele>568.28</ele>
        <time>2021-08-14T08:58:40Z</time>
      </trkpt>
      <trkpt lat="46.03761" lon="3.02513">
        <ele>567.32</ele>
        <time>2021-08-14T08:58:41Z</time>
      </trkpt>
      <trkpt lat="46.0376" lon="3.02505">
        <ele>566.35</ele>
        <time>2021-08-14T08:58:42Z</time>
      </trkpt>
      <trkpt lat="46.03759" lon="3.02496">
        <ele>565.39</ele>
        <time>2021-08-14T08:58:43Z</time>
      </trkpt>
      <trkpt lat="46.03759" lon="3.02489">
        <ele>564.91</ele>
        <time>2021-08-14T08:58:44Z</time>
      </trkpt>
      <trkpt lat="46.0376" lon="3.02481">
        <ele>563.47</ele>
        <time>2021-08-14T08:58:45Z</time>
      </trkpt>
      <trkpt lat="46.0376" lon="3.02474">
        <ele>563.47</ele>
        <time>2021-08-14T08:58:46Z</time>
      </trkpt>
      <trkpt lat="46.0376" lon="3.02466">
        <ele>562.51</ele>
        <time>2021-08-14T08:58:47Z</time>
      </trkpt>
      <trkpt lat="46.03759" lon="3.02459">
        <ele>561.07</ele>
        <time>2021-08-14T08:58:48Z</time>
      </trkpt>
      <trkpt lat="46.03757" lon="3.02452">
        <ele>560.59</ele>
        <time>2021-08-14T08:58:49Z</time>
      </trkpt>
      <trkpt lat="46.03754" lon="3.02444">
        <ele>559.62</ele>
        <time>2021-08-14T08:58:50Z</time>
      </trkpt>
      <trkpt lat="46.03744" lon="3.02419">
        <ele>556.74</ele>
        <time>2021-08-14T08:58:53Z</time>
      </trkpt>
      <trkpt lat="46.0373" lon="3.02393">
        <ele>553.38</ele>
        <time>2021-08-14T08:58:56Z</time>
      </trkpt>
      <trkpt lat="46.03713" lon="3.02363">
        <ele>550.01</ele>
        <time>2021-08-14T08:58:59Z</time>
      </trkpt>
      <trkpt lat="46.03695" lon="3.02335">
        <ele>546.65</ele>
        <time>2021-08-14T08:59:02Z</time>
      </trkpt>
      <trkpt lat="46.03676" lon="3.0231">
        <ele>543.28</ele>
        <time>2021-08-14T08:59:05Z</time>
      </trkpt>
      <trkpt lat="46.03659" lon="3.02285">
        <ele>538.48</ele>
        <time>2021-08-14T08:59:08Z</time>
      </trkpt>
      <trkpt lat="46.03649" lon="3.02267">
        <ele>536.07</ele>
        <time>2021-08-14T08:59:10Z</time>
      </trkpt>
      <trkpt lat="46.03646" lon="3.02257">
        <ele>535.11</ele>
        <time>2021-08-14T08:59:11Z</time>
      </trkpt>
      <trkpt lat="46.03643" lon="3.02246">
        <ele>533.67</ele>
        <time>2021-08-14T08:59:12Z</time>
      </trkpt>
      <trkpt lat="46.03641" lon="3.02235">
        <ele>533.67</ele>
        <time>2021-08-14T08:59:13Z</time>
      </trkpt>
      <trkpt lat="46.03639" lon="3.02225">
        <ele>531.75</ele>
        <time>2021-08-14T08:59:14Z</time>
      </trkpt>
      <trkpt lat="46.03636" lon="3.02212">
        <ele>531.27</ele>
        <time>2021-08-14T08:59:15Z</time>
      </trkpt>
      <trkpt lat="46.03632" lon="3.02203">
        <ele>530.79</ele>
        <time>2021-08-14T08:59:16Z</time>
      </trkpt>
      <trkpt lat="46.03628" lon="3.02195">
        <ele>529.82</ele>
        <time>2021-08-14T08:59:17Z</time>
      </trkpt>
      <trkpt lat="46.03622" lon="3.02187">
        <ele>529.34</ele>
        <time>2021-08-14T08:59:18Z</time>
      </trkpt>
      <trkpt lat="46.03616" lon="3.0218">
        <ele>528.38</ele>
        <time>2021-08-14T08:59:19Z</time>
      </trkpt>
      <trkpt lat="46.0361" lon="3.02174">
        <ele>527.42</ele>
        <time>2021-08-14T08:59:20Z</time>
      </trkpt>
      <trkpt lat="46.03599" lon="3.02162">
        <ele>525.5</ele>
        <time>2021-08-14T08:59:22Z</time>
      </trkpt>
      <trkpt lat="46.03594" lon="3.02154">
        <ele>524.54</ele>
        <time>2021-08-14T08:59:23Z</time>
      </trkpt>
      <trkpt lat="46.0359" lon="3.02145">
        <ele>524.06</ele>
        <time>2021-08-14T08:59:24Z</time>
      </trkpt>
      <trkpt lat="46.03583" lon="3.02128">
        <ele>521.65</ele>
        <time>2021-08-14T08:59:26Z</time>
      </trkpt>
      <trkpt lat="46.03578" lon="3.02121">
        <ele>520.69</ele>
        <time>2021-08-14T08:59:27Z</time>
      </trkpt>
      <trkpt lat="46.03572" lon="3.02115">
        <ele>520.21</ele>
        <time>2021-08-14T08:59:28Z</time>
      </trkpt>
      <trkpt lat="46.03565" lon="3.0211">
        <ele>518.77</ele>
        <time>2021-08-14T08:59:29Z</time>
      </trkpt>
      <trkpt lat="46.03557" lon="3.02105">
        <ele>517.81</ele>
        <time>2021-08-14T08:59:30Z</time>
      </trkpt>
      <trkpt lat="46.03533" lon="3.02092">
        <ele>514.44</ele>
        <time>2021-08-14T08:59:33Z</time>
      </trkpt>
      <trkpt lat="46.03526" lon="3.02086">
        <ele>514.44</ele>
        <time>2021-08-14T08:59:34Z</time>
      </trkpt>
      <trkpt lat="46.03514" lon="3.02078">
        <ele>513.96</ele>
        <time>2021-08-14T08:59:36Z</time>
      </trkpt>
      <trkpt lat="46.03508" lon="3.02076">
        <ele>513</ele>
        <time>2021-08-14T08:59:37Z</time>
      </trkpt>
      <trkpt lat="46.03501" lon="3.02077">
        <ele>513</ele>
        <time>2021-08-14T08:59:38Z</time>
      </trkpt>
      <trkpt lat="46.03495" lon="3.02079">
        <ele>512.04</ele>
        <time>2021-08-14T08:59:39Z</time>
      </trkpt>
      <trkpt lat="46.03488" lon="3.02083">
        <ele>511.08</ele>
        <time>2021-08-14T08:59:40Z</time>
      </trkpt>
      <trkpt lat="46.03482" lon="3.02088">
        <ele>510.6</ele>
        <time>2021-08-14T08:59:41Z</time>
      </trkpt>
      <trkpt lat="46.03475" lon="3.02094">
        <ele>510.6</ele>
        <time>2021-08-14T08:59:42Z</time>
      </trkpt>
      <trkpt lat="46.03468" lon="3.021">
        <ele>509.16</ele>
        <time>2021-08-14T08:59:43Z</time>
      </trkpt>
      <trkpt lat="46.0346" lon="3.02105">
        <ele>508.67</ele>
        <time>2021-08-14T08:59:44Z</time>
      </trkpt>
      <trkpt lat="46.03452" lon="3.02108">
        <ele>508.67</ele>
        <time>2021-08-14T08:59:45Z</time>
      </trkpt>
      <trkpt lat="46.03445" lon="3.02111">
        <ele>508.67</ele>
        <time>2021-08-14T08:59:46Z</time>
      </trkpt>
      <trkpt lat="46.03437" lon="3.02113">
        <ele>508.19</ele>
        <time>2021-08-14T08:59:47Z</time>
      </trkpt>
      <trkpt lat="46.03429" lon="3.02114">
        <ele>508.19</ele>
        <time>2021-08-14T08:59:48Z</time>
      </trkpt>
      <trkpt lat="46.03422" lon="3.02114">
        <ele>507.71</ele>
        <time>2021-08-14T08:59:49Z</time>
      </trkpt>
      <trkpt lat="46.03414" lon="3.02114">
        <ele>507.71</ele>
        <time>2021-08-14T08:59:50Z</time>
      </trkpt>
      <trkpt lat="46.03408" lon="3.02115">
        <ele>507.71</ele>
        <time>2021-08-14T08:59:51Z</time>
      </trkpt>
      <trkpt lat="46.03373" lon="3.02117">
        <ele>507.71</ele>
        <time>2021-08-14T08:59:57Z</time>
      </trkpt>
      <trkpt lat="46.03368" lon="3.02118">
        <ele>507.71</ele>
        <time>2021-08-14T08:59:58Z</time>
      </trkpt>
      <trkpt lat="46.03363" lon="3.02119">
        <ele>507.71</ele>
        <time>2021-08-14T08:59:59Z</time>
      </trkpt>
      <trkpt lat="46.03358" lon="3.02119">
        <ele>507.71</ele>
        <time>2021-08-14T09:00:00Z</time>
      </trkpt>
      <trkpt lat="46.03353" lon="3.0212">
        <ele>507.71</ele>
        <time>2021-08-14T09:00:01Z</time>
      </trkpt>
      <trkpt lat="46.03349" lon="3.0212">
        <ele>507.71</ele>
        <time>2021-08-14T09:00:02Z</time>
      </trkpt>
      <trkpt lat="46.03344" lon="3.02119">
        <ele>507.71</ele>
        <time>2021-08-14T09:00:03Z</time>
      </trkpt>
      <trkpt lat="46.03336" lon="3.02118">
        <ele>507.71</ele>
        <time>2021-08-14T09:00:05Z</time>
      </trkpt>
      <trkpt lat="46.03313" lon="3.02115">
        <ele>507.71</ele>
        <time>2021-08-14T09:00:11Z</time>
      </trkpt>
      <trkpt lat="46.03309" lon="3.02115">
        <ele>507.71</ele>
        <time>2021-08-14T09:00:12Z</time>
      </trkpt>
      <trkpt lat="46.03305" lon="3.02115">
        <ele>507.71</ele>
        <time>2021-08-14T09:00:13Z</time>
      </trkpt>
      <trkpt lat="46.03275" lon="3.02119">
        <ele>507.71</ele>
        <time>2021-08-14T09:00:20Z</time>
      </trkpt>
      <trkpt lat="46.03258" lon="3.02135">
        <ele>509.16</ele>
        <time>2021-08-14T09:00:27Z</time>
      </trkpt>
      <trkpt lat="46.03242" lon="3.02149">
        <ele>510.6</ele>
        <time>2021-08-14T09:00:35Z</time>
      </trkpt>
      <trkpt lat="46.03225" lon="3.02165">
        <ele>511.08</ele>
        <time>2021-08-14T09:00:44Z</time>
      </trkpt>
      <trkpt lat="46.03209" lon="3.02173">
        <ele>512.04</ele>
        <time>2021-08-14T09:00:52Z</time>
      </trkpt>
      <trkpt lat="46.03198" lon="3.02182">
        <ele>512.52</ele>
        <time>2021-08-14T09:00:58Z</time>
      </trkpt>
      <trkpt lat="46.03196" lon="3.02185">
        <ele>512.52</ele>
        <time>2021-08-14T09:00:59Z</time>
      </trkpt>
      <trkpt lat="46.03195" lon="3.02188">
        <ele>513</ele>
        <time>2021-08-14T09:01:00Z</time>
      </trkpt>
      <trkpt lat="46.03194" lon="3.02192">
        <ele>513</ele>
        <time>2021-08-14T09:01:01Z</time>
      </trkpt>
      <trkpt lat="46.03194" lon="3.02197">
        <ele>513</ele>
        <time>2021-08-14T09:01:02Z</time>
      </trkpt>
      <trkpt lat="46.03194" lon="3.02201">
        <ele>513</ele>
        <time>2021-08-14T09:01:03Z</time>
      </trkpt>
      <trkpt lat="46.03201" lon="3.02227">
        <ele>513</ele>
        <time>2021-08-14T09:01:09Z</time>
      </trkpt>
      <trkpt lat="46.03207" lon="3.02243">
        <ele>513</ele>
        <time>2021-08-14T09:01:12Z</time>
      </trkpt>
      <trkpt lat="46.03208" lon="3.02249">
        <ele>511.56</ele>
        <time>2021-08-14T09:01:13Z</time>
      </trkpt>
      <trkpt lat="46.03207" lon="3.02256">
        <ele>511.56</ele>
        <time>2021-08-14T09:01:14Z</time>
      </trkpt>
      <trkpt lat="46.03206" lon="3.02263">
        <ele>511.08</ele>
        <time>2021-08-14T09:01:15Z</time>
      </trkpt>
      <trkpt lat="46.03203" lon="3.02269">
        <ele>510.6</ele>
        <time>2021-08-14T09:01:16Z</time>
      </trkpt>
      <trkpt lat="46.03199" lon="3.02274">
        <ele>510.6</ele>
        <time>2021-08-14T09:01:17Z</time>
      </trkpt>
      <trkpt lat="46.03195" lon="3.02276">
        <ele>510.6</ele>
        <time>2021-08-14T09:01:18Z</time>
      </trkpt>
      <trkpt lat="46.0319" lon="3.02278">
        <ele>510.6</ele>
        <time>2021-08-14T09:01:19Z</time>
      </trkpt>
      <trkpt lat="46.03185" lon="3.02279">
        <ele>510.6</ele>
        <time>2021-08-14T09:01:20Z</time>
      </trkpt>
      <trkpt lat="46.03181" lon="3.0228">
        <ele>510.6</ele>
        <time>2021-08-14T09:01:21Z</time>
      </trkpt>
      <trkpt lat="46.03176" lon="3.0228">
        <ele>510.6</ele>
        <time>2021-08-14T09:01:22Z</time>
      </trkpt>
      <trkpt lat="46.03171" lon="3.0228">
        <ele>510.6</ele>
        <time>2021-08-14T09:01:23Z</time>
      </trkpt>
      <trkpt lat="46.03166" lon="3.02282">
        <ele>510.6</ele>
        <time>2021-08-14T09:01:24Z</time>
      </trkpt>
      <trkpt lat="46.03161" lon="3.02285">
        <ele>510.12</ele>
        <time>2021-08-14T09:01:25Z</time>
      </trkpt>
      <trkpt lat="46.03157" lon="3.02286">
        <ele>510.12</ele>
        <time>2021-08-14T09:01:26Z</time>
      </trkpt>
      <trkpt lat="46.03152" lon="3.02286">
        <ele>510.12</ele>
        <time>2021-08-14T09:01:27Z</time>
      </trkpt>
      <trkpt lat="46.03147" lon="3.02286">
        <ele>510.12</ele>
        <time>2021-08-14T09:01:28Z</time>
      </trkpt>
      <trkpt lat="46.03143" lon="3.02287">
        <ele>510.12</ele>
        <time>2021-08-14T09:01:29Z</time>
      </trkpt>
      <trkpt lat="46.03114" lon="3.02298">
        <ele>509.16</ele>
        <time>2021-08-14T09:01:35Z</time>
      </trkpt>
      <trkpt lat="46.03109" lon="3.023">
        <ele>509.16</ele>
        <time>2021-08-14T09:01:36Z</time>
      </trkpt>
      <trkpt lat="46.03105" lon="3.02304">
        <ele>509.16</ele>
        <time>2021-08-14T09:01:37Z</time>
      </trkpt>
      <trkpt lat="46.03101" lon="3.02307">
        <ele>508.67</ele>
        <time>2021-08-14T09:01:38Z</time>
      </trkpt>
      <trkpt lat="46.03096" lon="3.0231">
        <ele>508.67</ele>
        <time>2021-08-14T09:01:39Z</time>
      </trkpt>
      <trkpt lat="46.03092" lon="3.02311">
        <ele>508.67</ele>
        <time>2021-08-14T09:01:40Z</time>
      </trkpt>
      <trkpt lat="46.03086" lon="3.02312">
        <ele>508.67</ele>
        <time>2021-08-14T09:01:41Z</time>
      </trkpt>
      <trkpt lat="46.03082" lon="3.02313">
        <ele>508.67</ele>
        <time>2021-08-14T09:01:42Z</time>
      </trkpt>
      <trkpt lat="46.03077" lon="3.02316">
        <ele>508.19</ele>
        <time>2021-08-14T09:01:43Z</time>
      </trkpt>
      <trkpt lat="46.03073" lon="3.0232">
        <ele>508.19</ele>
        <time>2021-08-14T09:01:44Z</time>
      </trkpt>
      <trkpt lat="46.03071" lon="3.02325">
        <ele>508.19</ele>
        <time>2021-08-14T09:01:45Z</time>
      </trkpt>
      <trkpt lat="46.03068" lon="3.0233">
        <ele>508.19</ele>
        <time>2021-08-14T09:01:46Z</time>
      </trkpt>
      <trkpt lat="46.03065" lon="3.02334">
        <ele>508.19</ele>
        <time>2021-08-14T09:01:47Z</time>
      </trkpt>
      <trkpt lat="46.03061" lon="3.02339">
        <ele>508.19</ele>
        <time>2021-08-14T09:01:48Z</time>
      </trkpt>
      <trkpt lat="46.03055" lon="3.02347">
        <ele>508.19</ele>
        <time>2021-08-14T09:01:50Z</time>
      </trkpt>
      <trkpt lat="46.03051" lon="3.02349">
        <ele>508.19</ele>
        <time>2021-08-14T09:01:51Z</time>
      </trkpt>
      <trkpt lat="46.03025" lon="3.02362">
        <ele>508.19</ele>
        <time>2021-08-14T09:01:59Z</time>
      </trkpt>
      <trkpt lat="46.03009" lon="3.02369">
        <ele>508.19</ele>
        <time>2021-08-14T09:02:06Z</time>
      </trkpt>
      <trkpt lat="46.03008" lon="3.02369">
        <ele>508.19</ele>
        <time>2021-08-14T09:02:12Z</time>
      </trkpt>
      <trkpt lat="46.03008" lon="3.02369">
        <ele>508.19</ele>
        <time>2021-08-14T09:02:36Z</time>
      </trkpt>
      <trkpt lat="46.03008" lon="3.0237">
        <ele>508.19</ele>
        <time>2021-08-14T09:02:54Z</time>
      </trkpt>
      <trkpt lat="46.03002" lon="3.02371">
        <ele>508.19</ele>
        <time>2021-08-14T09:03:00Z</time>
      </trkpt>
      <trkpt lat="46.02987" lon="3.02378">
        <ele>508.19</ele>
        <time>2021-08-14T09:03:06Z</time>
      </trkpt>
      <trkpt lat="46.02963" lon="3.02388">
        <ele>507.71</ele>
        <time>2021-08-14T09:03:14Z</time>
      </trkpt>
      <trkpt lat="46.02947" lon="3.02402">
        <ele>507.71</ele>
        <time>2021-08-14T09:03:20Z</time>
      </trkpt>
      <trkpt lat="46.02943" lon="3.02407">
        <ele>507.71</ele>
        <time>2021-08-14T09:03:22Z</time>
      </trkpt>
      <trkpt lat="46.02943" lon="3.0241">
        <ele>507.71</ele>
        <time>2021-08-14T09:03:23Z</time>
      </trkpt>
      <trkpt lat="46.02943" lon="3.02412">
        <ele>507.71</ele>
        <time>2021-08-14T09:03:24Z</time>
      </trkpt>
      <trkpt lat="46.02944" lon="3.02413">
        <ele>507.71</ele>
        <time>2021-08-14T09:03:25Z</time>
      </trkpt>
      <trkpt lat="46.02944" lon="3.02417">
        <ele>507.71</ele>
        <time>2021-08-14T09:03:30Z</time>
      </trkpt>
      <trkpt lat="46.02944" lon="3.0242">
        <ele>507.23</ele>
        <time>2021-08-14T09:03:35Z</time>
      </trkpt>
      <trkpt lat="46.02946" lon="3.02419">
        <ele>507.23</ele>
        <time>2021-08-14T09:03:41Z</time>
      </trkpt>
      <trkpt lat="46.02948" lon="3.02419">
        <ele>507.23</ele>
        <time>2021-08-14T09:03:46Z</time>
      </trkpt>
      <trkpt lat="46.0295" lon="3.0242">
        <ele>507.23</ele>
        <time>2021-08-14T09:03:47Z</time>
      </trkpt>
      <trkpt lat="46.02951" lon="3.02423">
        <ele>507.23</ele>
        <time>2021-08-14T09:03:48Z</time>
      </trkpt>
      <trkpt lat="46.02956" lon="3.02445">
        <ele>504.35</ele>
        <time>2021-08-14T09:03:54Z</time>
      </trkpt>
      <trkpt lat="46.02959" lon="3.02456">
        <ele>502.91</ele>
        <time>2021-08-14T09:03:56Z</time>
      </trkpt>
      <trkpt lat="46.0296" lon="3.02462">
        <ele>501.46</ele>
        <time>2021-08-14T09:03:57Z</time>
      </trkpt>
      <trkpt lat="46.02962" lon="3.02467">
        <ele>500.98</ele>
        <time>2021-08-14T09:03:58Z</time>
      </trkpt>
      <trkpt lat="46.02968" lon="3.02479">
        <ele>498.58</ele>
        <time>2021-08-14T09:04:00Z</time>
      </trkpt>
      <trkpt lat="46.0297" lon="3.02486">
        <ele>497.14</ele>
        <time>2021-08-14T09:04:01Z</time>
      </trkpt>
      <trkpt lat="46.02972" lon="3.02493">
        <ele>496.18</ele>
        <time>2021-08-14T09:04:02Z</time>
      </trkpt>
      <trkpt lat="46.02973" lon="3.025">
        <ele>494.74</ele>
        <time>2021-08-14T09:04:03Z</time>
      </trkpt>
      <trkpt lat="46.02974" lon="3.02508">
        <ele>493.77</ele>
        <time>2021-08-14T09:04:04Z</time>
      </trkpt>
      <trkpt lat="46.02976" lon="3.02529">
        <ele>490.41</ele>
        <time>2021-08-14T09:04:07Z</time>
      </trkpt>
      <trkpt lat="46.02976" lon="3.02537">
        <ele>488.97</ele>
        <time>2021-08-14T09:04:08Z</time>
      </trkpt>
      <trkpt lat="46.02975" lon="3.02565">
        <ele>485.12</ele>
        <time>2021-08-14T09:04:11Z</time>
      </trkpt>
      <trkpt lat="46.02975" lon="3.02583">
        <ele>482.24</ele>
        <time>2021-08-14T09:04:13Z</time>
      </trkpt>
      <trkpt lat="46.02975" lon="3.02601">
        <ele>479.84</ele>
        <time>2021-08-14T09:04:15Z</time>
      </trkpt>
      <trkpt lat="46.02977" lon="3.02612">
        <ele>478.39</ele>
        <time>2021-08-14T09:04:16Z</time>
      </trkpt>
      <trkpt lat="46.02979" lon="3.02619">
        <ele>477.43</ele>
        <time>2021-08-14T09:04:17Z</time>
      </trkpt>
      <trkpt lat="46.02981" lon="3.02626">
        <ele>476.47</ele>
        <time>2021-08-14T09:04:18Z</time>
      </trkpt>
      <trkpt lat="46.02984" lon="3.02633">
        <ele>475.03</ele>
        <time>2021-08-14T09:04:19Z</time>
      </trkpt>
      <trkpt lat="46.0299" lon="3.02647">
        <ele>472.14</ele>
        <time>2021-08-14T09:04:21Z</time>
      </trkpt>
      <trkpt lat="46.02994" lon="3.02652">
        <ele>471.18</ele>
        <time>2021-08-14T09:04:22Z</time>
      </trkpt>
      <trkpt lat="46.02998" lon="3.02656">
        <ele>470.22</ele>
        <time>2021-08-14T09:04:23Z</time>
      </trkpt>
      <trkpt lat="46.03008" lon="3.02661">
        <ele>468.3</ele>
        <time>2021-08-14T09:04:25Z</time>
      </trkpt>
      <trkpt lat="46.03012" lon="3.02665">
        <ele>466.86</ele>
        <time>2021-08-14T09:04:26Z</time>
      </trkpt>
      <trkpt lat="46.0302" lon="3.02672">
        <ele>466.38</ele>
        <time>2021-08-14T09:04:28Z</time>
      </trkpt>
      <trkpt lat="46.03022" lon="3.02677">
        <ele>465.9</ele>
        <time>2021-08-14T09:04:30Z</time>
      </trkpt>
      <trkpt lat="46.03021" lon="3.02679">
        <ele>464.93</ele>
        <time>2021-08-14T09:04:31Z</time>
      </trkpt>
      <trkpt lat="46.03022" lon="3.02681">
        <ele>465.9</ele>
        <time>2021-08-14T09:04:36Z</time>
      </trkpt>
      <trkpt lat="46.03022" lon="3.02685">
        <ele>465.42</ele>
        <time>2021-08-14T09:04:43Z</time>
      </trkpt>
      <trkpt lat="46.03019" lon="3.0269">
        <ele>465.42</ele>
        <time>2021-08-14T09:04:49Z</time>
      </trkpt>
      <trkpt lat="46.03011" lon="3.02702">
        <ele>465.42</ele>
        <time>2021-08-14T09:04:56Z</time>
      </trkpt>
      <trkpt lat="46.02999" lon="3.02719">
        <ele>465.42</ele>
        <time>2021-08-14T09:05:04Z</time>
      </trkpt>
      <trkpt lat="46.02992" lon="3.0273">
        <ele>466.86</ele>
        <time>2021-08-14T09:05:08Z</time>
      </trkpt>
      <trkpt lat="46.02989" lon="3.02753">
        <ele>467.34</ele>
        <time>2021-08-14T09:05:15Z</time>
      </trkpt>
      <trkpt lat="46.02977" lon="3.02774">
        <ele>467.34</ele>
        <time>2021-08-14T09:05:22Z</time>
      </trkpt>
      <trkpt lat="46.0295" lon="3.02787">
        <ele>467.34</ele>
        <time>2021-08-14T09:05:30Z</time>
      </trkpt>
      <trkpt lat="46.02934" lon="3.02792">
        <ele>467.34</ele>
        <time>2021-08-14T09:05:35Z</time>
      </trkpt>
      <trkpt lat="46.02913" lon="3.02804">
        <ele>467.34</ele>
        <time>2021-08-14T09:05:41Z</time>
      </trkpt>
      <trkpt lat="46.02891" lon="3.02818">
        <ele>467.34</ele>
        <time>2021-08-14T09:05:48Z</time>
      </trkpt>
      <trkpt lat="46.02869" lon="3.02836">
        <ele>467.34</ele>
        <time>2021-08-14T09:05:55Z</time>
      </trkpt>
      <trkpt lat="46.02854" lon="3.02859">
        <ele>465.42</ele>
        <time>2021-08-14T09:06:00Z</time>
      </trkpt>
      <trkpt lat="46.02852" lon="3.02866">
        <ele>464.93</ele>
        <time>2021-08-14T09:06:01Z</time>
      </trkpt>
      <trkpt lat="46.02833" lon="3.02921">
        <ele>462.05</ele>
        <time>2021-08-14T09:06:08Z</time>
      </trkpt>
      <trkpt lat="46.02827" lon="3.02935">
        <ele>462.05</ele>
        <time>2021-08-14T09:06:10Z</time>
      </trkpt>
      <trkpt lat="46.02824" lon="3.02942">
        <ele>462.05</ele>
        <time>2021-08-14T09:06:11Z</time>
      </trkpt>
      <trkpt lat="46.02823" lon="3.02948">
        <ele>462.05</ele>
        <time>2021-08-14T09:06:12Z</time>
      </trkpt>
      <trkpt lat="46.02822" lon="3.02953">
        <ele>462.05</ele>
        <time>2021-08-14T09:06:13Z</time>
      </trkpt>
      <trkpt lat="46.0282" lon="3.02958">
        <ele>462.53</ele>
        <time>2021-08-14T09:06:14Z</time>
      </trkpt>
      <trkpt lat="46.02819" lon="3.02963">
        <ele>462.53</ele>
        <time>2021-08-14T09:06:15Z</time>
      </trkpt>
      <trkpt lat="46.02818" lon="3.02967">
        <ele>462.53</ele>
        <time>2021-08-14T09:06:16Z</time>
      </trkpt>
      <trkpt lat="46.0281" lon="3.02994">
        <ele>462.05</ele>
        <time>2021-08-14T09:06:21Z</time>
      </trkpt>
      <trkpt lat="46.02804" lon="3.03037">
        <ele>461.09</ele>
        <time>2021-08-14T09:06:27Z</time>
      </trkpt>
      <trkpt lat="46.02801" lon="3.03111">
        <ele>458.21</ele>
        <time>2021-08-14T09:06:35Z</time>
      </trkpt>
      <trkpt lat="46.02803" lon="3.03132">
        <ele>457.72</ele>
        <time>2021-08-14T09:06:37Z</time>
      </trkpt>
      <trkpt lat="46.02804" lon="3.03141">
        <ele>457.24</ele>
        <time>2021-08-14T09:06:38Z</time>
      </trkpt>
      <trkpt lat="46.02807" lon="3.0315">
        <ele>457.24</ele>
        <time>2021-08-14T09:06:39Z</time>
      </trkpt>
      <trkpt lat="46.02808" lon="3.03167">
        <ele>457.24</ele>
        <time>2021-08-14T09:06:41Z</time>
      </trkpt>
      <trkpt lat="46.02807" lon="3.03174">
        <ele>456.76</ele>
        <time>2021-08-14T09:06:42Z</time>
      </trkpt>
      <trkpt lat="46.02808" lon="3.03185">
        <ele>456.76</ele>
        <time>2021-08-14T09:06:43Z</time>
      </trkpt>
      <trkpt lat="46.02808" lon="3.03194">
        <ele>456.76</ele>
        <time>2021-08-14T09:06:44Z</time>
      </trkpt>
      <trkpt lat="46.02808" lon="3.03204">
        <ele>456.28</ele>
        <time>2021-08-14T09:06:45Z</time>
      </trkpt>
      <trkpt lat="46.02813" lon="3.0325">
        <ele>456.28</ele>
        <time>2021-08-14T09:06:51Z</time>
      </trkpt>
      <trkpt lat="46.02814" lon="3.03256">
        <ele>456.28</ele>
        <time>2021-08-14T09:06:52Z</time>
      </trkpt>
      <trkpt lat="46.02821" lon="3.03284">
        <ele>455.8</ele>
        <time>2021-08-14T09:06:56Z</time>
      </trkpt>
      <trkpt lat="46.02822" lon="3.03291">
        <ele>455.8</ele>
        <time>2021-08-14T09:06:57Z</time>
      </trkpt>
      <trkpt lat="46.02822" lon="3.03297">
        <ele>455.8</ele>
        <time>2021-08-14T09:06:58Z</time>
      </trkpt>
      <trkpt lat="46.02822" lon="3.03304">
        <ele>455.8</ele>
        <time>2021-08-14T09:06:59Z</time>
      </trkpt>
      <trkpt lat="46.02821" lon="3.03309">
        <ele>455.8</ele>
        <time>2021-08-14T09:07:00Z</time>
      </trkpt>
      <trkpt lat="46.02818" lon="3.03314">
        <ele>455.8</ele>
        <time>2021-08-14T09:07:01Z</time>
      </trkpt>
      <trkpt lat="46.02814" lon="3.03317">
        <ele>455.8</ele>
        <time>2021-08-14T09:07:02Z</time>
      </trkpt>
      <trkpt lat="46.02812" lon="3.03319">
        <ele>455.8</ele>
        <time>2021-08-14T09:07:03Z</time>
      </trkpt>
      <trkpt lat="46.02801" lon="3.03326">
        <ele>455.8</ele>
        <time>2021-08-14T09:07:06Z</time>
      </trkpt>
      <trkpt lat="46.02797" lon="3.03326">
        <ele>455.8</ele>
        <time>2021-08-14T09:07:07Z</time>
      </trkpt>
      <trkpt lat="46.02769" lon="3.03328">
        <ele>456.28</ele>
        <time>2021-08-14T09:07:14Z</time>
      </trkpt>
      <trkpt lat="46.02761" lon="3.03329">
        <ele>458.21</ele>
        <time>2021-08-14T09:07:19Z</time>
      </trkpt>
      <trkpt lat="46.02759" lon="3.03329">
        <ele>458.21</ele>
        <time>2021-08-14T09:07:20Z</time>
      </trkpt>
      <trkpt lat="46.02757" lon="3.03331">
        <ele>458.21</ele>
        <time>2021-08-14T09:07:21Z</time>
      </trkpt>
      <trkpt lat="46.02756" lon="3.03332">
        <ele>458.69</ele>
        <time>2021-08-14T09:07:22Z</time>
      </trkpt>
      <trkpt lat="46.0274" lon="3.03341">
        <ele>459.17</ele>
        <time>2021-08-14T09:07:31Z</time>
      </trkpt>
      <trkpt lat="46.02733" lon="3.03347">
        <ele>459.65</ele>
        <time>2021-08-14T09:07:36Z</time>
      </trkpt>
      <trkpt lat="46.02721" lon="3.03359">
        <ele>459.65</ele>
        <time>2021-08-14T09:07:42Z</time>
      </trkpt>
      <trkpt lat="46.02712" lon="3.03364">
        <ele>460.13</ele>
        <time>2021-08-14T09:07:48Z</time>
      </trkpt>
      <trkpt lat="46.02701" lon="3.0337">
        <ele>461.09</ele>
        <time>2021-08-14T09:07:55Z</time>
      </trkpt>
      <trkpt lat="46.02687" lon="3.03379">
        <ele>462.05</ele>
        <time>2021-08-14T09:08:04Z</time>
      </trkpt>
      <trkpt lat="46.02675" lon="3.03386">
        <ele>463.01</ele>
        <time>2021-08-14T09:08:12Z</time>
      </trkpt>
      <trkpt lat="46.02669" lon="3.03391">
        <ele>463.01</ele>
        <time>2021-08-14T09:08:20Z</time>
      </trkpt>
      <trkpt lat="46.02668" lon="3.03391">
        <ele>463.01</ele>
        <time>2021-08-14T09:08:28Z</time>
      </trkpt>
      <trkpt lat="46.02667" lon="3.03394">
        <ele>463.01</ele>
        <time>2021-08-14T09:08:48Z</time>
      </trkpt>
      <trkpt lat="46.02666" lon="3.03392">
        <ele>463.01</ele>
        <time>2021-08-14T09:09:10Z</time>
      </trkpt>
      <trkpt lat="46.02667" lon="3.03389">
        <ele>463.01</ele>
        <time>2021-08-14T09:09:32Z</time>
      </trkpt>
      <trkpt lat="46.02668" lon="3.03389">
        <ele>463.01</ele>
        <time>2021-08-14T09:09:59Z</time>
      </trkpt>
      <trkpt lat="46.0267" lon="3.03387">
        <ele>463.01</ele>
        <time>2021-08-14T09:10:28Z</time>
      </trkpt>
      <trkpt lat="46.02669" lon="3.03391">
        <ele>463.01</ele>
        <time>2021-08-14T09:10:52Z</time>
      </trkpt>
      <trkpt lat="46.02665" lon="3.03389">
        <ele>463.01</ele>
        <time>2021-08-14T09:11:20Z</time>
      </trkpt>
      <trkpt lat="46.02667" lon="3.03388">
        <ele>463.49</ele>
        <time>2021-08-14T09:11:41Z</time>
      </trkpt>
      <trkpt lat="46.02667" lon="3.03389">
        <ele>463.49</ele>
        <time>2021-08-14T09:11:45Z</time>
      </trkpt>
      <trkpt lat="46.02667" lon="3.03392">
        <ele>463.49</ele>
        <time>2021-08-14T09:11:46Z</time>
      </trkpt>
      <trkpt lat="46.02667" lon="3.03391">
        <ele>463.49</ele>
        <time>2021-08-14T09:11:50Z</time>
      </trkpt>
      <trkpt lat="46.02666" lon="3.0339">
        <ele>463.49</ele>
        <time>2021-08-14T09:12:16Z</time>
      </trkpt>
      <trkpt lat="46.02666" lon="3.0339">
        <ele>463.49</ele>
        <time>2021-08-14T09:12:42Z</time>
      </trkpt>
      <trkpt lat="46.02664" lon="3.03388">
        <ele>463.49</ele>
        <time>2021-08-14T09:13:08Z</time>
      </trkpt>
      <trkpt lat="46.02664" lon="3.03384">
        <ele>463.49</ele>
        <time>2021-08-14T09:13:31Z</time>
      </trkpt>
      <trkpt lat="46.02666" lon="3.03392">
        <ele>463.49</ele>
        <time>2021-08-14T09:13:51Z</time>
      </trkpt>
      <trkpt lat="46.02671" lon="3.0339">
        <ele>463.49</ele>
        <time>2021-08-14T09:14:19Z</time>
      </trkpt>
      <trkpt lat="46.02668" lon="3.03389">
        <ele>463.49</ele>
        <time>2021-08-14T09:14:38Z</time>
      </trkpt>
      <trkpt lat="46.02664" lon="3.0339">
        <ele>463.49</ele>
        <time>2021-08-14T09:14:57Z</time>
      </trkpt>
      <trkpt lat="46.02662" lon="3.03389">
        <ele>463.49</ele>
        <time>2021-08-14T09:15:19Z</time>
      </trkpt>
      <trkpt lat="46.02662" lon="3.0339">
        <ele>463.49</ele>
        <time>2021-08-14T09:15:39Z</time>
      </trkpt>
      <trkpt lat="46.02666" lon="3.03395">
        <ele>463.49</ele>
        <time>2021-08-14T09:16:02Z</time>
      </trkpt>
      <trkpt lat="46.02668" lon="3.03394">
        <ele>463.49</ele>
        <time>2021-08-14T09:16:14Z</time>
      </trkpt>
      <trkpt lat="46.02668" lon="3.03393">
        <ele>463.49</ele>
        <time>2021-08-14T09:16:31Z</time>
      </trkpt>
      <trkpt lat="46.02668" lon="3.03395">
        <ele>463.49</ele>
        <time>2021-08-14T09:16:43Z</time>
      </trkpt>
      <trkpt lat="46.02667" lon="3.03396">
        <ele>463.49</ele>
        <time>2021-08-14T09:16:44Z</time>
      </trkpt>
      <trkpt lat="46.02663" lon="3.03398">
        <ele>463.49</ele>
        <time>2021-08-14T09:16:49Z</time>
      </trkpt>
      <trkpt lat="46.02666" lon="3.03399">
        <ele>463.01</ele>
        <time>2021-08-14T09:17:05Z</time>
      </trkpt>
      <trkpt lat="46.02665" lon="3.034">
        <ele>463.01</ele>
        <time>2021-08-14T09:17:14Z</time>
      </trkpt>
      <trkpt lat="46.02657" lon="3.03407">
        <ele>462.05</ele>
        <time>2021-08-14T09:17:20Z</time>
      </trkpt>
      <trkpt lat="46.02655" lon="3.03409">
        <ele>462.05</ele>
        <time>2021-08-14T09:17:21Z</time>
      </trkpt>
      <trkpt lat="46.02644" lon="3.03412">
        <ele>459.65</ele>
        <time>2021-08-14T09:17:26Z</time>
      </trkpt>
      <trkpt lat="46.0264" lon="3.03411">
        <ele>459.65</ele>
        <time>2021-08-14T09:17:27Z</time>
      </trkpt>
      <trkpt lat="46.02623" lon="3.03405">
        <ele>459.17</ele>
        <time>2021-08-14T09:17:32Z</time>
      </trkpt>
      <trkpt lat="46.02613" lon="3.03409">
        <ele>458.69</ele>
        <time>2021-08-14T09:17:37Z</time>
      </trkpt>
      <trkpt lat="46.02606" lon="3.0341">
        <ele>458.69</ele>
        <time>2021-08-14T09:17:46Z</time>
      </trkpt>
      <trkpt lat="46.026" lon="3.03407">
        <ele>458.69</ele>
        <time>2021-08-14T09:17:54Z</time>
      </trkpt>
      <trkpt lat="46.02597" lon="3.03407">
        <ele>458.69</ele>
        <time>2021-08-14T09:18:01Z</time>
      </trkpt>
      <trkpt lat="46.02592" lon="3.03404">
        <ele>458.69</ele>
        <time>2021-08-14T09:18:10Z</time>
      </trkpt>
      <trkpt lat="46.02585" lon="3.03403">
        <ele>458.69</ele>
        <time>2021-08-14T09:18:16Z</time>
      </trkpt>
      <trkpt lat="46.0258" lon="3.03402">
        <ele>459.65</ele>
        <time>2021-08-14T09:18:21Z</time>
      </trkpt>
      <trkpt lat="46.02574" lon="3.03401">
        <ele>460.61</ele>
        <time>2021-08-14T09:18:28Z</time>
      </trkpt>
      <trkpt lat="46.02572" lon="3.03396">
        <ele>461.09</ele>
        <time>2021-08-14T09:18:33Z</time>
      </trkpt>
      <trkpt lat="46.02569" lon="3.0339">
        <ele>461.57</ele>
        <time>2021-08-14T09:18:39Z</time>
      </trkpt>
      <trkpt lat="46.02566" lon="3.03385">
        <ele>461.57</ele>
        <time>2021-08-14T09:18:46Z</time>
      </trkpt>
      <trkpt lat="46.02563" lon="3.03381">
        <ele>463.01</ele>
        <time>2021-08-14T09:18:54Z</time>
      </trkpt>
      <trkpt lat="46.02561" lon="3.03374">
        <ele>463.49</ele>
        <time>2021-08-14T09:19:03Z</time>
      </trkpt>
      <trkpt lat="46.02558" lon="3.03372">
        <ele>464.45</ele>
        <time>2021-08-14T09:19:10Z</time>
      </trkpt>
      <trkpt lat="46.02556" lon="3.03367">
        <ele>465.42</ele>
        <time>2021-08-14T09:19:16Z</time>
      </trkpt>
      <trkpt lat="46.02556" lon="3.0336">
        <ele>465.9</ele>
        <time>2021-08-14T09:19:25Z</time>
      </trkpt>
      <trkpt lat="46.02554" lon="3.03352">
        <ele>466.86</ele>
        <time>2021-08-14T09:19:32Z</time>
      </trkpt>
      <trkpt lat="46.02553" lon="3.03344">
        <ele>467.82</ele>
        <time>2021-08-14T09:19:39Z</time>
      </trkpt>
      <trkpt lat="46.02551" lon="3.03335">
        <ele>468.78</ele>
        <time>2021-08-14T09:19:47Z</time>
      </trkpt>
      <trkpt lat="46.02552" lon="3.03328">
        <ele>469.26</ele>
        <time>2021-08-14T09:19:52Z</time>
      </trkpt>
      <trkpt lat="46.02552" lon="3.03317">
        <ele>469.74</ele>
        <time>2021-08-14T09:19:59Z</time>
      </trkpt>
      <trkpt lat="46.0255" lon="3.03306">
        <ele>470.7</ele>
        <time>2021-08-14T09:20:08Z</time>
      </trkpt>
      <trkpt lat="46.02547" lon="3.03296">
        <ele>471.66</ele>
        <time>2021-08-14T09:20:15Z</time>
      </trkpt>
      <trkpt lat="46.02541" lon="3.03285">
        <ele>472.14</ele>
        <time>2021-08-14T09:20:23Z</time>
      </trkpt>
      <trkpt lat="46.0254" lon="3.03274">
        <ele>473.11</ele>
        <time>2021-08-14T09:20:30Z</time>
      </trkpt>
      <trkpt lat="46.02539" lon="3.03269">
        <ele>473.59</ele>
        <time>2021-08-14T09:20:37Z</time>
      </trkpt>
      <trkpt lat="46.02538" lon="3.03263">
        <ele>474.07</ele>
        <time>2021-08-14T09:20:44Z</time>
      </trkpt>
      <trkpt lat="46.02537" lon="3.03254">
        <ele>475.51</ele>
        <time>2021-08-14T09:20:51Z</time>
      </trkpt>
      <trkpt lat="46.02534" lon="3.03245">
        <ele>475.99</ele>
        <time>2021-08-14T09:20:59Z</time>
      </trkpt>
      <trkpt lat="46.02529" lon="3.03235">
        <ele>476.95</ele>
        <time>2021-08-14T09:21:07Z</time>
      </trkpt>
      <trkpt lat="46.02528" lon="3.03231">
        <ele>477.91</ele>
        <time>2021-08-14T09:21:14Z</time>
      </trkpt>
      <trkpt lat="46.02526" lon="3.03227">
        <ele>478.87</ele>
        <time>2021-08-14T09:21:21Z</time>
      </trkpt>
      <trkpt lat="46.02523" lon="3.03221">
        <ele>479.35</ele>
        <time>2021-08-14T09:21:28Z</time>
      </trkpt>
      <trkpt lat="46.0252" lon="3.03211">
        <ele>480.32</ele>
        <time>2021-08-14T09:21:35Z</time>
      </trkpt>
      <trkpt lat="46.02518" lon="3.03209">
        <ele>481.28</ele>
        <time>2021-08-14T09:21:40Z</time>
      </trkpt>
      <trkpt lat="46.02517" lon="3.03209">
        <ele>481.76</ele>
        <time>2021-08-14T09:21:43Z</time>
      </trkpt>
      <trkpt lat="46.02517" lon="3.0321">
        <ele>481.76</ele>
        <time>2021-08-14T09:21:44Z</time>
      </trkpt>
      <trkpt lat="46.02516" lon="3.03207">
        <ele>482.24</ele>
        <time>2021-08-14T09:21:48Z</time>
      </trkpt>
      <trkpt lat="46.02516" lon="3.032">
        <ele>483.2</ele>
        <time>2021-08-14T09:21:54Z</time>
      </trkpt>
      <trkpt lat="46.02515" lon="3.03197">
        <ele>483.68</ele>
        <time>2021-08-14T09:22:01Z</time>
      </trkpt>
      <trkpt lat="46.0251" lon="3.03194">
        <ele>485.12</ele>
        <time>2021-08-14T09:22:10Z</time>
      </trkpt>
      <trkpt lat="46.02507" lon="3.03186">
        <ele>486.08</ele>
        <time>2021-08-14T09:22:17Z</time>
      </trkpt>
      <trkpt lat="46.02505" lon="3.03184">
        <ele>487.05</ele>
        <time>2021-08-14T09:22:24Z</time>
      </trkpt>
      <trkpt lat="46.02504" lon="3.03182">
        <ele>487.05</ele>
        <time>2021-08-14T09:22:33Z</time>
      </trkpt>
      <trkpt lat="46.02501" lon="3.03179">
        <ele>488.01</ele>
        <time>2021-08-14T09:22:39Z</time>
      </trkpt>
      <trkpt lat="46.02499" lon="3.03178">
        <ele>488.49</ele>
        <time>2021-08-14T09:22:44Z</time>
      </trkpt>
      <trkpt lat="46.02496" lon="3.03176">
        <ele>489.45</ele>
        <time>2021-08-14T09:22:46Z</time>
      </trkpt>
      <trkpt lat="46.02493" lon="3.03175">
        <ele>489.93</ele>
        <time>2021-08-14T09:22:52Z</time>
      </trkpt>
      <trkpt lat="46.02489" lon="3.03172">
        <ele>490.41</ele>
        <time>2021-08-14T09:23:00Z</time>
      </trkpt>
      <trkpt lat="46.02485" lon="3.03171">
        <ele>491.37</ele>
        <time>2021-08-14T09:23:07Z</time>
      </trkpt>
      <trkpt lat="46.02482" lon="3.03171">
        <ele>492.33</ele>
        <time>2021-08-14T09:23:15Z</time>
      </trkpt>
      <trkpt lat="46.02479" lon="3.0317">
        <ele>493.77</ele>
        <time>2021-08-14T09:23:22Z</time>
      </trkpt>
      <trkpt lat="46.02475" lon="3.03169">
        <ele>495.22</ele>
        <time>2021-08-14T09:23:29Z</time>
      </trkpt>
      <trkpt lat="46.02469" lon="3.03169">
        <ele>495.7</ele>
        <time>2021-08-14T09:23:36Z</time>
      </trkpt>
      <trkpt lat="46.02465" lon="3.03167">
        <ele>497.14</ele>
        <time>2021-08-14T09:23:43Z</time>
      </trkpt>
      <trkpt lat="46.0246" lon="3.03165">
        <ele>498.1</ele>
        <time>2021-08-14T09:23:50Z</time>
      </trkpt>
      <trkpt lat="46.02452" lon="3.03162">
        <ele>499.06</ele>
        <time>2021-08-14T09:23:57Z</time>
      </trkpt>
      <trkpt lat="46.02447" lon="3.03161">
        <ele>500.02</ele>
        <time>2021-08-14T09:24:03Z</time>
      </trkpt>
      <trkpt lat="46.02439" lon="3.03161">
        <ele>500.98</ele>
        <time>2021-08-14T09:24:11Z</time>
      </trkpt>
      <trkpt lat="46.02434" lon="3.0316">
        <ele>502.43</ele>
        <time>2021-08-14T09:24:18Z</time>
      </trkpt>
      <trkpt lat="46.02429" lon="3.03161">
        <ele>503.39</ele>
        <time>2021-08-14T09:24:24Z</time>
      </trkpt>
      <trkpt lat="46.02423" lon="3.03161">
        <ele>504.35</ele>
        <time>2021-08-14T09:24:31Z</time>
      </trkpt>
      <trkpt lat="46.02411" lon="3.03155">
        <ele>504.83</ele>
        <time>2021-08-14T09:24:38Z</time>
      </trkpt>
      <trkpt lat="46.02406" lon="3.03157">
        <ele>506.27</ele>
        <time>2021-08-14T09:24:48Z</time>
      </trkpt>
      <trkpt lat="46.02402" lon="3.03159">
        <ele>506.75</ele>
        <time>2021-08-14T09:24:54Z</time>
      </trkpt>
      <trkpt lat="46.02401" lon="3.03163">
        <ele>508.19</ele>
        <time>2021-08-14T09:25:02Z</time>
      </trkpt>
      <trkpt lat="46.024" lon="3.03174">
        <ele>509.64</ele>
        <time>2021-08-14T09:25:12Z</time>
      </trkpt>
      <trkpt lat="46.024" lon="3.03179">
        <ele>510.6</ele>
        <time>2021-08-14T09:25:20Z</time>
      </trkpt>
      <trkpt lat="46.02403" lon="3.03186">
        <ele>511.56</ele>
        <time>2021-08-14T09:25:30Z</time>
      </trkpt>
      <trkpt lat="46.02405" lon="3.03191">
        <ele>513</ele>
        <time>2021-08-14T09:25:36Z</time>
      </trkpt>
      <trkpt lat="46.02408" lon="3.03196">
        <ele>513.48</ele>
        <time>2021-08-14T09:25:42Z</time>
      </trkpt>
      <trkpt lat="46.02412" lon="3.03206">
        <ele>514.44</ele>
        <time>2021-08-14T09:25:52Z</time>
      </trkpt>
      <trkpt lat="46.02414" lon="3.03215">
        <ele>515.4</ele>
        <time>2021-08-14T09:25:59Z</time>
      </trkpt>
      <trkpt lat="46.02417" lon="3.03226">
        <ele>515.88</ele>
        <time>2021-08-14T09:26:08Z</time>
      </trkpt>
      <trkpt lat="46.02417" lon="3.03234">
        <ele>516.85</ele>
        <time>2021-08-14T09:26:15Z</time>
      </trkpt>
      <trkpt lat="46.0242" lon="3.03243">
        <ele>517.33</ele>
        <time>2021-08-14T09:26:23Z</time>
      </trkpt>
      <trkpt lat="46.02421" lon="3.03251">
        <ele>518.77</ele>
        <time>2021-08-14T09:26:31Z</time>
      </trkpt>
      <trkpt lat="46.02421" lon="3.03258">
        <ele>519.73</ele>
        <time>2021-08-14T09:26:40Z</time>
      </trkpt>
      <trkpt lat="46.02419" lon="3.03256">
        <ele>520.69</ele>
        <time>2021-08-14T09:26:46Z</time>
      </trkpt>
      <trkpt lat="46.02415" lon="3.03252">
        <ele>521.17</ele>
        <time>2021-08-14T09:26:53Z</time>
      </trkpt>
      <trkpt lat="46.0241" lon="3.0325">
        <ele>522.13</ele>
        <time>2021-08-14T09:27:00Z</time>
      </trkpt>
      <trkpt lat="46.02404" lon="3.03247">
        <ele>523.09</ele>
        <time>2021-08-14T09:27:09Z</time>
      </trkpt>
      <trkpt lat="46.02399" lon="3.03245">
        <ele>524.54</ele>
        <time>2021-08-14T09:27:17Z</time>
      </trkpt>
      <trkpt lat="46.02397" lon="3.0324">
        <ele>524.54</ele>
        <time>2021-08-14T09:27:28Z</time>
      </trkpt>
      <trkpt lat="46.02397" lon="3.0324">
        <ele>524.54</ele>
        <time>2021-08-14T09:27:45Z</time>
      </trkpt>
      <trkpt lat="46.02395" lon="3.03238">
        <ele>525.02</ele>
        <time>2021-08-14T09:28:10Z</time>
      </trkpt>
      <trkpt lat="46.02394" lon="3.03238">
        <ele>525.02</ele>
        <time>2021-08-14T09:28:31Z</time>
      </trkpt>
      <trkpt lat="46.02393" lon="3.03227">
        <ele>499.06</ele>
        <time>2021-08-14T09:28:58Z</time>
      </trkpt>
      <trkpt lat="46.02394" lon="3.03239">
        <ele>500.02</ele>
        <time>2021-08-14T09:29:10Z</time>
      </trkpt>
      <trkpt lat="46.02389" lon="3.03237">
        <ele>503.87</ele>
        <time>2021-08-14T09:29:16Z</time>
      </trkpt>
      <trkpt lat="46.02387" lon="3.03237">
        <ele>506.75</ele>
        <time>2021-08-14T09:29:19Z</time>
      </trkpt>
      <trkpt lat="46.02384" lon="3.03236">
        <ele>511.08</ele>
        <time>2021-08-14T09:29:24Z</time>
      </trkpt>
      <trkpt lat="46.02383" lon="3.03235">
        <ele>512.52</ele>
        <time>2021-08-14T09:29:27Z</time>
      </trkpt>
      <trkpt lat="46.02381" lon="3.03231">
        <ele>515.88</ele>
        <time>2021-08-14T09:29:32Z</time>
      </trkpt>
      <trkpt lat="46.02377" lon="3.03229">
        <ele>517.81</ele>
        <time>2021-08-14T09:29:36Z</time>
      </trkpt>
      <trkpt lat="46.02371" lon="3.03227">
        <ele>521.65</ele>
        <time>2021-08-14T09:29:43Z</time>
      </trkpt>
      <trkpt lat="46.02366" lon="3.03223">
        <ele>525.5</ele>
        <time>2021-08-14T09:29:51Z</time>
      </trkpt>
      <trkpt lat="46.02359" lon="3.03222">
        <ele>527.9</ele>
        <time>2021-08-14T09:29:58Z</time>
      </trkpt>
      <trkpt lat="46.0235" lon="3.03222">
        <ele>530.3</ele>
        <time>2021-08-14T09:30:07Z</time>
      </trkpt>
      <trkpt lat="46.02345" lon="3.03224">
        <ele>532.71</ele>
        <time>2021-08-14T09:30:15Z</time>
      </trkpt>
      <trkpt lat="46.02344" lon="3.03228">
        <ele>534.15</ele>
        <time>2021-08-14T09:30:23Z</time>
      </trkpt>
      <trkpt lat="46.02347" lon="3.03234">
        <ele>535.59</ele>
        <time>2021-08-14T09:30:30Z</time>
      </trkpt>
      <trkpt lat="46.0235" lon="3.03242">
        <ele>537.03</ele>
        <time>2021-08-14T09:30:39Z</time>
      </trkpt>
      <trkpt lat="46.02352" lon="3.03249">
        <ele>538.96</ele>
        <time>2021-08-14T09:30:47Z</time>
      </trkpt>
      <trkpt lat="46.02354" lon="3.03258">
        <ele>539.92</ele>
        <time>2021-08-14T09:30:55Z</time>
      </trkpt>
      <trkpt lat="46.02354" lon="3.03267">
        <ele>541.84</ele>
        <time>2021-08-14T09:31:03Z</time>
      </trkpt>
      <trkpt lat="46.02356" lon="3.03274">
        <ele>542.8</ele>
        <time>2021-08-14T09:31:10Z</time>
      </trkpt>
      <trkpt lat="46.02357" lon="3.03279">
        <ele>543.76</ele>
        <time>2021-08-14T09:31:16Z</time>
      </trkpt>
      <trkpt lat="46.0236" lon="3.03288">
        <ele>545.2</ele>
        <time>2021-08-14T09:31:26Z</time>
      </trkpt>
      <trkpt lat="46.02362" lon="3.03295">
        <ele>545.69</ele>
        <time>2021-08-14T09:31:34Z</time>
      </trkpt>
      <trkpt lat="46.02361" lon="3.03305">
        <ele>547.13</ele>
        <time>2021-08-14T09:31:42Z</time>
      </trkpt>
      <trkpt lat="46.02364" lon="3.03317">
        <ele>548.09</ele>
        <time>2021-08-14T09:31:53Z</time>
      </trkpt>
      <trkpt lat="46.02366" lon="3.03329">
        <ele>549.53</ele>
        <time>2021-08-14T09:32:02Z</time>
      </trkpt>
      <trkpt lat="46.02367" lon="3.03337">
        <ele>550.01</ele>
        <time>2021-08-14T09:32:10Z</time>
      </trkpt>
      <trkpt lat="46.02368" lon="3.03344">
        <ele>551.45</ele>
        <time>2021-08-14T09:32:18Z</time>
      </trkpt>
      <trkpt lat="46.02367" lon="3.03351">
        <ele>552.41</ele>
        <time>2021-08-14T09:32:26Z</time>
      </trkpt>
      <trkpt lat="46.02363" lon="3.03362">
        <ele>553.38</ele>
        <time>2021-08-14T09:32:34Z</time>
      </trkpt>
      <trkpt lat="46.02362" lon="3.03368">
        <ele>554.34</ele>
        <time>2021-08-14T09:32:43Z</time>
      </trkpt>
      <trkpt lat="46.02359" lon="3.03375">
        <ele>555.3</ele>
        <time>2021-08-14T09:32:52Z</time>
      </trkpt>
      <trkpt lat="46.02354" lon="3.03379">
        <ele>556.74</ele>
        <time>2021-08-14T09:33:02Z</time>
      </trkpt>
      <trkpt lat="46.02349" lon="3.03383">
        <ele>557.7</ele>
        <time>2021-08-14T09:33:10Z</time>
      </trkpt>
      <trkpt lat="46.02347" lon="3.03384">
        <ele>558.18</ele>
        <time>2021-08-14T09:33:16Z</time>
      </trkpt>
      <trkpt lat="46.02344" lon="3.03386">
        <ele>559.14</ele>
        <time>2021-08-14T09:33:23Z</time>
      </trkpt>
      <trkpt lat="46.02337" lon="3.03387">
        <ele>560.11</ele>
        <time>2021-08-14T09:33:32Z</time>
      </trkpt>
      <trkpt lat="46.02332" lon="3.03388">
        <ele>561.07</ele>
        <time>2021-08-14T09:33:40Z</time>
      </trkpt>
      <trkpt lat="46.02327" lon="3.03388">
        <ele>562.03</ele>
        <time>2021-08-14T09:33:48Z</time>
      </trkpt>
      <trkpt lat="46.0232" lon="3.0339">
        <ele>562.99</ele>
        <time>2021-08-14T09:33:57Z</time>
      </trkpt>
      <trkpt lat="46.02315" lon="3.03392">
        <ele>563.95</ele>
        <time>2021-08-14T09:34:06Z</time>
      </trkpt>
      <trkpt lat="46.0231" lon="3.03392">
        <ele>565.39</ele>
        <time>2021-08-14T09:34:14Z</time>
      </trkpt>
      <trkpt lat="46.02306" lon="3.03394">
        <ele>565.87</ele>
        <time>2021-08-14T09:34:21Z</time>
      </trkpt>
      <trkpt lat="46.02302" lon="3.03394">
        <ele>566.35</ele>
        <time>2021-08-14T09:34:28Z</time>
      </trkpt>
      <trkpt lat="46.02295" lon="3.03395">
        <ele>567.8</ele>
        <time>2021-08-14T09:34:36Z</time>
      </trkpt>
      <trkpt lat="46.02288" lon="3.03397">
        <ele>568.76</ele>
        <time>2021-08-14T09:34:44Z</time>
      </trkpt>
      <trkpt lat="46.02284" lon="3.03402">
        <ele>569.72</ele>
        <time>2021-08-14T09:34:52Z</time>
      </trkpt>
      <trkpt lat="46.0228" lon="3.03404">
        <ele>570.2</ele>
        <time>2021-08-14T09:35:06Z</time>
      </trkpt>
      <trkpt lat="46.02273" lon="3.03402">
        <ele>570.68</ele>
        <time>2021-08-14T09:35:14Z</time>
      </trkpt>
      <trkpt lat="46.02266" lon="3.03403">
        <ele>571.64</ele>
        <time>2021-08-14T09:35:22Z</time>
      </trkpt>
      <trkpt lat="46.02258" lon="3.03407">
        <ele>572.6</ele>
        <time>2021-08-14T09:35:31Z</time>
      </trkpt>
      <trkpt lat="46.02251" lon="3.03411">
        <ele>573.56</ele>
        <time>2021-08-14T09:35:40Z</time>
      </trkpt>
      <trkpt lat="46.02244" lon="3.03416">
        <ele>574.53</ele>
        <time>2021-08-14T09:35:49Z</time>
      </trkpt>
      <trkpt lat="46.0224" lon="3.03416">
        <ele>575.01</ele>
        <time>2021-08-14T09:35:57Z</time>
      </trkpt>
      <trkpt lat="46.02238" lon="3.03419">
        <ele>575.01</ele>
        <time>2021-08-14T09:36:13Z</time>
      </trkpt>
      <trkpt lat="46.02238" lon="3.03419">
        <ele>575.01</ele>
        <time>2021-08-14T09:36:14Z</time>
      </trkpt>
      <trkpt lat="46.02231" lon="3.03426">
        <ele>575.97</ele>
        <time>2021-08-14T09:36:23Z</time>
      </trkpt>
      <trkpt lat="46.02224" lon="3.03432">
        <ele>576.45</ele>
        <time>2021-08-14T09:36:31Z</time>
      </trkpt>
      <trkpt lat="46.02218" lon="3.03437">
        <ele>577.41</ele>
        <time>2021-08-14T09:36:37Z</time>
      </trkpt>
      <trkpt lat="46.02214" lon="3.03437">
        <ele>577.41</ele>
        <time>2021-08-14T09:36:45Z</time>
      </trkpt>
      <trkpt lat="46.02213" lon="3.03438">
        <ele>577.41</ele>
        <time>2021-08-14T09:36:53Z</time>
      </trkpt>
      <trkpt lat="46.02211" lon="3.03438">
        <ele>577.41</ele>
        <time>2021-08-14T09:36:56Z</time>
      </trkpt>
      <trkpt lat="46.02201" lon="3.03443">
        <ele>577.89</ele>
        <time>2021-08-14T09:37:05Z</time>
      </trkpt>
      <trkpt lat="46.02192" lon="3.03448">
        <ele>577.89</ele>
        <time>2021-08-14T09:37:12Z</time>
      </trkpt>
      <trkpt lat="46.0218" lon="3.03455">
        <ele>578.37</ele>
        <time>2021-08-14T09:37:20Z</time>
      </trkpt>
      <trkpt lat="46.02166" lon="3.03464">
        <ele>579.33</ele>
        <time>2021-08-14T09:37:29Z</time>
      </trkpt>
      <trkpt lat="46.02152" lon="3.03476">
        <ele>579.81</ele>
        <time>2021-08-14T09:37:37Z</time>
      </trkpt>
      <trkpt lat="46.02136" lon="3.0349">
        <ele>579.81</ele>
        <time>2021-08-14T09:37:45Z</time>
      </trkpt>
      <trkpt lat="46.02125" lon="3.035">
        <ele>580.29</ele>
        <time>2021-08-14T09:37:51Z</time>
      </trkpt>
      <trkpt lat="46.02109" lon="3.03515">
        <ele>581.73</ele>
        <time>2021-08-14T09:37:59Z</time>
      </trkpt>
      <trkpt lat="46.0209" lon="3.03523">
        <ele>581.73</ele>
        <time>2021-08-14T09:38:06Z</time>
      </trkpt>
      <trkpt lat="46.02071" lon="3.03533">
        <ele>582.7</ele>
        <time>2021-08-14T09:38:14Z</time>
      </trkpt>
      <trkpt lat="46.02061" lon="3.03537">
        <ele>583.18</ele>
        <time>2021-08-14T09:38:20Z</time>
      </trkpt>
      <trkpt lat="46.02052" lon="3.03542">
        <ele>584.62</ele>
        <time>2021-08-14T09:38:26Z</time>
      </trkpt>
      <trkpt lat="46.0204" lon="3.03549">
        <ele>585.58</ele>
        <time>2021-08-14T09:38:35Z</time>
      </trkpt>
      <trkpt lat="46.02028" lon="3.03553">
        <ele>586.54</ele>
        <time>2021-08-14T09:38:42Z</time>
      </trkpt>
      <trkpt lat="46.02014" lon="3.03554">
        <ele>587.5</ele>
        <time>2021-08-14T09:38:49Z</time>
      </trkpt>
      <trkpt lat="46.02" lon="3.03557">
        <ele>587.98</ele>
        <time>2021-08-14T09:38:56Z</time>
      </trkpt>
      <trkpt lat="46.01985" lon="3.0356">
        <ele>588.95</ele>
        <time>2021-08-14T09:39:03Z</time>
      </trkpt>
      <trkpt lat="46.01966" lon="3.03568">
        <ele>589.91</ele>
        <time>2021-08-14T09:39:12Z</time>
      </trkpt>
      <trkpt lat="46.01943" lon="3.03578">
        <ele>591.35</ele>
        <time>2021-08-14T09:39:23Z</time>
      </trkpt>
      <trkpt lat="46.01927" lon="3.03586">
        <ele>592.31</ele>
        <time>2021-08-14T09:39:32Z</time>
      </trkpt>
      <trkpt lat="46.01916" lon="3.03594">
        <ele>593.27</ele>
        <time>2021-08-14T09:39:39Z</time>
      </trkpt>
      <trkpt lat="46.01903" lon="3.03602">
        <ele>594.23</ele>
        <time>2021-08-14T09:39:47Z</time>
      </trkpt>
      <trkpt lat="46.01892" lon="3.03609">
        <ele>594.23</ele>
        <time>2021-08-14T09:39:53Z</time>
      </trkpt>
      <trkpt lat="46.01886" lon="3.03614">
        <ele>594.71</ele>
        <time>2021-08-14T09:39:57Z</time>
      </trkpt>
      <trkpt lat="46.01884" lon="3.03615">
        <ele>595.67</ele>
        <time>2021-08-14T09:39:58Z</time>
      </trkpt>
      <trkpt lat="46.01867" lon="3.03627">
        <ele>596.64</ele>
        <time>2021-08-14T09:40:07Z</time>
      </trkpt>
      <trkpt lat="46.0185" lon="3.03642">
        <ele>597.6</ele>
        <time>2021-08-14T09:40:16Z</time>
      </trkpt>
      <trkpt lat="46.01835" lon="3.0366">
        <ele>598.56</ele>
        <time>2021-08-14T09:40:24Z</time>
      </trkpt>
      <trkpt lat="46.01811" lon="3.03689">
        <ele>598.56</ele>
        <time>2021-08-14T09:40:34Z</time>
      </trkpt>
      <trkpt lat="46.01786" lon="3.03704">
        <ele>598.56</ele>
        <time>2021-08-14T09:40:42Z</time>
      </trkpt>
      <trkpt lat="46.01767" lon="3.03707">
        <ele>599.04</ele>
        <time>2021-08-14T09:40:48Z</time>
      </trkpt>
      <trkpt lat="46.01726" lon="3.03712">
        <ele>599.52</ele>
        <time>2021-08-14T09:41:00Z</time>
      </trkpt>
      <trkpt lat="46.0169" lon="3.03705">
        <ele>600</ele>
        <time>2021-08-14T09:41:10Z</time>
      </trkpt>
      <trkpt lat="46.01659" lon="3.0369">
        <ele>600.96</ele>
        <time>2021-08-14T09:41:19Z</time>
      </trkpt>
      <trkpt lat="46.01628" lon="3.03683">
        <ele>602.4</ele>
        <time>2021-08-14T09:41:28Z</time>
      </trkpt>
      <trkpt lat="46.01594" lon="3.0368">
        <ele>603.85</ele>
        <time>2021-08-14T09:41:38Z</time>
      </trkpt>
      <trkpt lat="46.01572" lon="3.03672">
        <ele>604.81</ele>
        <time>2021-08-14T09:41:45Z</time>
      </trkpt>
      <trkpt lat="46.01547" lon="3.0367">
        <ele>604.81</ele>
        <time>2021-08-14T09:41:53Z</time>
      </trkpt>
      <trkpt lat="46.01523" lon="3.0368">
        <ele>604.81</ele>
        <time>2021-08-14T09:42:00Z</time>
      </trkpt>
      <trkpt lat="46.01494" lon="3.03694">
        <ele>605.77</ele>
        <time>2021-08-14T09:42:09Z</time>
      </trkpt>
      <trkpt lat="46.01473" lon="3.03703">
        <ele>605.77</ele>
        <time>2021-08-14T09:42:15Z</time>
      </trkpt>
      <trkpt lat="46.01438" lon="3.03716">
        <ele>605.77</ele>
        <time>2021-08-14T09:42:24Z</time>
      </trkpt>
      <trkpt lat="46.01416" lon="3.03733">
        <ele>605.77</ele>
        <time>2021-08-14T09:42:31Z</time>
      </trkpt>
      <trkpt lat="46.01396" lon="3.03754">
        <ele>606.73</ele>
        <time>2021-08-14T09:42:39Z</time>
      </trkpt>
      <trkpt lat="46.01376" lon="3.03774">
        <ele>607.21</ele>
        <time>2021-08-14T09:42:46Z</time>
      </trkpt>
      <trkpt lat="46.01349" lon="3.03798">
        <ele>607.21</ele>
        <time>2021-08-14T09:42:54Z</time>
      </trkpt>
      <trkpt lat="46.01319" lon="3.03838">
        <ele>607.69</ele>
        <time>2021-08-14T09:43:04Z</time>
      </trkpt>
      <trkpt lat="46.01301" lon="3.03871">
        <ele>608.17</ele>
        <time>2021-08-14T09:43:13Z</time>
      </trkpt>
      <trkpt lat="46.01281" lon="3.03904">
        <ele>608.65</ele>
        <time>2021-08-14T09:43:21Z</time>
      </trkpt>
      <trkpt lat="46.01256" lon="3.03935">
        <ele>609.61</ele>
        <time>2021-08-14T09:43:30Z</time>
      </trkpt>
      <trkpt lat="46.01233" lon="3.0396">
        <ele>610.09</ele>
        <time>2021-08-14T09:43:38Z</time>
      </trkpt>
      <trkpt lat="46.01211" lon="3.03991">
        <ele>611.06</ele>
        <time>2021-08-14T09:43:46Z</time>
      </trkpt>
      <trkpt lat="46.01184" lon="3.04021">
        <ele>611.54</ele>
        <time>2021-08-14T09:43:55Z</time>
      </trkpt>
      <trkpt lat="46.01163" lon="3.04036">
        <ele>611.54</ele>
        <time>2021-08-14T09:44:02Z</time>
      </trkpt>
      <trkpt lat="46.01151" lon="3.04035">
        <ele>612.02</ele>
        <time>2021-08-14T09:44:06Z</time>
      </trkpt>
      <trkpt lat="46.01149" lon="3.04031">
        <ele>612.02</ele>
        <time>2021-08-14T09:44:07Z</time>
      </trkpt>
      <trkpt lat="46.01148" lon="3.04028">
        <ele>612.02</ele>
        <time>2021-08-14T09:44:08Z</time>
      </trkpt>
      <trkpt lat="46.01148" lon="3.04025">
        <ele>612.02</ele>
        <time>2021-08-14T09:44:09Z</time>
      </trkpt>
      <trkpt lat="46.01149" lon="3.0402">
        <ele>612.02</ele>
        <time>2021-08-14T09:44:10Z</time>
      </trkpt>
      <trkpt lat="46.01149" lon="3.04016">
        <ele>612.02</ele>
        <time>2021-08-14T09:44:11Z</time>
      </trkpt>
      <trkpt lat="46.01155" lon="3.03974">
        <ele>612.02</ele>
        <time>2021-08-14T09:44:19Z</time>
      </trkpt>
      <trkpt lat="46.01155" lon="3.03969">
        <ele>610.57</ele>
        <time>2021-08-14T09:44:20Z</time>
      </trkpt>
      <trkpt lat="46.01155" lon="3.03918">
        <ele>609.13</ele>
        <time>2021-08-14T09:44:27Z</time>
      </trkpt>
      <trkpt lat="46.01148" lon="3.03845">
        <ele>607.21</ele>
        <time>2021-08-14T09:44:35Z</time>
      </trkpt>
      <trkpt lat="46.01126" lon="3.03749">
        <ele>605.29</ele>
        <time>2021-08-14T09:44:45Z</time>
      </trkpt>
      <trkpt lat="46.01103" lon="3.03663">
        <ele>605.29</ele>
        <time>2021-08-14T09:44:55Z</time>
      </trkpt>
      <trkpt lat="46.01096" lon="3.03634">
        <ele>605.29</ele>
        <time>2021-08-14T09:44:59Z</time>
      </trkpt>
      <trkpt lat="46.01094" lon="3.03628">
        <ele>605.29</ele>
        <time>2021-08-14T09:45:00Z</time>
      </trkpt>
      <trkpt lat="46.01085" lon="3.03605">
        <ele>605.29</ele>
        <time>2021-08-14T09:45:04Z</time>
      </trkpt>
      <trkpt lat="46.0107" lon="3.03577">
        <ele>606.73</ele>
        <time>2021-08-14T09:45:11Z</time>
      </trkpt>
      <trkpt lat="46.01054" lon="3.03549">
        <ele>606.73</ele>
        <time>2021-08-14T09:45:18Z</time>
      </trkpt>
      <trkpt lat="46.01034" lon="3.0352">
        <ele>606.73</ele>
        <time>2021-08-14T09:45:25Z</time>
      </trkpt>
      <trkpt lat="46.01029" lon="3.03511">
        <ele>607.21</ele>
        <time>2021-08-14T09:45:27Z</time>
      </trkpt>
      <trkpt lat="46.01026" lon="3.03505">
        <ele>607.21</ele>
        <time>2021-08-14T09:45:28Z</time>
      </trkpt>
      <trkpt lat="46.01024" lon="3.035">
        <ele>607.21</ele>
        <time>2021-08-14T09:45:29Z</time>
      </trkpt>
      <trkpt lat="46.00999" lon="3.03457">
        <ele>607.21</ele>
        <time>2021-08-14T09:45:37Z</time>
      </trkpt>
      <trkpt lat="46.00984" lon="3.03421">
        <ele>607.21</ele>
        <time>2021-08-14T09:45:43Z</time>
      </trkpt>
      <trkpt lat="46.00976" lon="3.0338">
        <ele>607.21</ele>
        <time>2021-08-14T09:45:49Z</time>
      </trkpt>
      <trkpt lat="46.00975" lon="3.03373">
        <ele>606.73</ele>
        <time>2021-08-14T09:45:50Z</time>
      </trkpt>
      <trkpt lat="46.00974" lon="3.03366">
        <ele>606.73</ele>
        <time>2021-08-14T09:45:51Z</time>
      </trkpt>
      <trkpt lat="46.00965" lon="3.03291">
        <ele>604.81</ele>
        <time>2021-08-14T09:46:00Z</time>
      </trkpt>
      <trkpt lat="46.00964" lon="3.03227">
        <ele>603.85</ele>
        <time>2021-08-14T09:46:07Z</time>
      </trkpt>
      <trkpt lat="46.00962" lon="3.03168">
        <ele>603.36</ele>
        <time>2021-08-14T09:46:14Z</time>
      </trkpt>
      <trkpt lat="46.00961" lon="3.0316">
        <ele>603.36</ele>
        <time>2021-08-14T09:46:15Z</time>
      </trkpt>
      <trkpt lat="46.00957" lon="3.03144">
        <ele>603.36</ele>
        <time>2021-08-14T09:46:17Z</time>
      </trkpt>
      <trkpt lat="46.00933" lon="3.03087">
        <ele>603.36</ele>
        <time>2021-08-14T09:46:25Z</time>
      </trkpt>
      <trkpt lat="46.00918" lon="3.03064">
        <ele>603.36</ele>
        <time>2021-08-14T09:46:29Z</time>
      </trkpt>
      <trkpt lat="46.00914" lon="3.03059">
        <ele>603.36</ele>
        <time>2021-08-14T09:46:30Z</time>
      </trkpt>
      <trkpt lat="46.00902" lon="3.03046">
        <ele>604.33</ele>
        <time>2021-08-14T09:46:33Z</time>
      </trkpt>
      <trkpt lat="46.0089" lon="3.03033">
        <ele>605.29</ele>
        <time>2021-08-14T09:46:36Z</time>
      </trkpt>
      <trkpt lat="46.00868" lon="3.03009">
        <ele>606.25</ele>
        <time>2021-08-14T09:46:43Z</time>
      </trkpt>
      <trkpt lat="46.00843" lon="3.02983">
        <ele>606.73</ele>
        <time>2021-08-14T09:46:51Z</time>
      </trkpt>
      <trkpt lat="46.00819" lon="3.02957">
        <ele>607.21</ele>
        <time>2021-08-14T09:46:59Z</time>
      </trkpt>
      <trkpt lat="46.00813" lon="3.02951">
        <ele>607.21</ele>
        <time>2021-08-14T09:47:01Z</time>
      </trkpt>
      <trkpt lat="46.00809" lon="3.02947">
        <ele>607.21</ele>
        <time>2021-08-14T09:47:02Z</time>
      </trkpt>
      <trkpt lat="46.00805" lon="3.02943">
        <ele>607.21</ele>
        <time>2021-08-14T09:47:03Z</time>
      </trkpt>
      <trkpt lat="46.00763" lon="3.02901">
        <ele>605.29</ele>
        <time>2021-08-14T09:47:13Z</time>
      </trkpt>
      <trkpt lat="46.00731" lon="3.02862">
        <ele>604.81</ele>
        <time>2021-08-14T09:47:21Z</time>
      </trkpt>
      <trkpt lat="46.00727" lon="3.02857">
        <ele>604.33</ele>
        <time>2021-08-14T09:47:22Z</time>
      </trkpt>
      <trkpt lat="46.00718" lon="3.02848">
        <ele>604.33</ele>
        <time>2021-08-14T09:47:24Z</time>
      </trkpt>
      <trkpt lat="46.00683" lon="3.02811">
        <ele>603.85</ele>
        <time>2021-08-14T09:47:32Z</time>
      </trkpt>
      <trkpt lat="46.00674" lon="3.02803">
        <ele>603.85</ele>
        <time>2021-08-14T09:47:34Z</time>
      </trkpt>
      <trkpt lat="46.0067" lon="3.02801">
        <ele>603.85</ele>
        <time>2021-08-14T09:47:35Z</time>
      </trkpt>
      <trkpt lat="46.00664" lon="3.02801">
        <ele>603.85</ele>
        <time>2021-08-14T09:47:36Z</time>
      </trkpt>
      <trkpt lat="46.0066" lon="3.02802">
        <ele>603.85</ele>
        <time>2021-08-14T09:47:37Z</time>
      </trkpt>
      <trkpt lat="46.00655" lon="3.02804">
        <ele>603.85</ele>
        <time>2021-08-14T09:47:38Z</time>
      </trkpt>
      <trkpt lat="46.00651" lon="3.02807">
        <ele>603.85</ele>
        <time>2021-08-14T09:47:39Z</time>
      </trkpt>
      <trkpt lat="46.00634" lon="3.0282">
        <ele>603.85</ele>
        <time>2021-08-14T09:47:43Z</time>
      </trkpt>
      <trkpt lat="46.0063" lon="3.02824">
        <ele>603.85</ele>
        <time>2021-08-14T09:47:44Z</time>
      </trkpt>
      <trkpt lat="46.00612" lon="3.02851">
        <ele>603.85</ele>
        <time>2021-08-14T09:47:50Z</time>
      </trkpt>
      <trkpt lat="46.00609" lon="3.02854">
        <ele>603.85</ele>
        <time>2021-08-14T09:47:51Z</time>
      </trkpt>
      <trkpt lat="46.00605" lon="3.02856">
        <ele>603.85</ele>
        <time>2021-08-14T09:47:52Z</time>
      </trkpt>
      <trkpt lat="46.00602" lon="3.02857">
        <ele>603.85</ele>
        <time>2021-08-14T09:47:53Z</time>
      </trkpt>
      <trkpt lat="46.00599" lon="3.02858">
        <ele>603.85</ele>
        <time>2021-08-14T09:47:54Z</time>
      </trkpt>
      <trkpt lat="46.00596" lon="3.02859">
        <ele>603.85</ele>
        <time>2021-08-14T09:47:55Z</time>
      </trkpt>
      <trkpt lat="46.00593" lon="3.0286">
        <ele>603.85</ele>
        <time>2021-08-14T09:47:56Z</time>
      </trkpt>
      <trkpt lat="46.0059" lon="3.02862">
        <ele>603.85</ele>
        <time>2021-08-14T09:47:57Z</time>
      </trkpt>
      <trkpt lat="46.00587" lon="3.02863">
        <ele>603.85</ele>
        <time>2021-08-14T09:47:58Z</time>
      </trkpt>
      <trkpt lat="46.00584" lon="3.02864">
        <ele>603.85</ele>
        <time>2021-08-14T09:47:59Z</time>
      </trkpt>
      <trkpt lat="46.00581" lon="3.02865">
        <ele>603.85</ele>
        <time>2021-08-14T09:48:00Z</time>
      </trkpt>
      <trkpt lat="46.00577" lon="3.02866">
        <ele>603.85</ele>
        <time>2021-08-14T09:48:01Z</time>
      </trkpt>
      <trkpt lat="46.00548" lon="3.02869">
        <ele>602.4</ele>
        <time>2021-08-14T09:48:07Z</time>
      </trkpt>
      <trkpt lat="46.00511" lon="3.02873">
        <ele>600</ele>
        <time>2021-08-14T09:48:13Z</time>
      </trkpt>
      <trkpt lat="46.00504" lon="3.02875">
        <ele>600</ele>
        <time>2021-08-14T09:48:14Z</time>
      </trkpt>
      <trkpt lat="46.0047" lon="3.02892">
        <ele>597.6</ele>
        <time>2021-08-14T09:48:19Z</time>
      </trkpt>
      <trkpt lat="46.00424" lon="3.02906">
        <ele>595.19</ele>
        <time>2021-08-14T09:48:25Z</time>
      </trkpt>
      <trkpt lat="46.00417" lon="3.02908">
        <ele>595.19</ele>
        <time>2021-08-14T09:48:26Z</time>
      </trkpt>
      <trkpt lat="46.00409" lon="3.02912">
        <ele>594.23</ele>
        <time>2021-08-14T09:48:27Z</time>
      </trkpt>
      <trkpt lat="46.00402" lon="3.02917">
        <ele>594.23</ele>
        <time>2021-08-14T09:48:28Z</time>
      </trkpt>
      <trkpt lat="46.00395" lon="3.02922">
        <ele>593.75</ele>
        <time>2021-08-14T09:48:29Z</time>
      </trkpt>
      <trkpt lat="46.00389" lon="3.02928">
        <ele>593.27</ele>
        <time>2021-08-14T09:48:30Z</time>
      </trkpt>
      <trkpt lat="46.00383" lon="3.02935">
        <ele>593.27</ele>
        <time>2021-08-14T09:48:31Z</time>
      </trkpt>
      <trkpt lat="46.00378" lon="3.02943">
        <ele>591.83</ele>
        <time>2021-08-14T09:48:32Z</time>
      </trkpt>
      <trkpt lat="46.00373" lon="3.02953">
        <ele>590.87</ele>
        <time>2021-08-14T09:48:33Z</time>
      </trkpt>
      <trkpt lat="46.00369" lon="3.02963">
        <ele>589.43</ele>
        <time>2021-08-14T09:48:34Z</time>
      </trkpt>
      <trkpt lat="46.00365" lon="3.02975">
        <ele>588.46</ele>
        <time>2021-08-14T09:48:35Z</time>
      </trkpt>
      <trkpt lat="46.00352" lon="3.03019">
        <ele>584.62</ele>
        <time>2021-08-14T09:48:39Z</time>
      </trkpt>
      <trkpt lat="46.00346" lon="3.03052">
        <ele>582.22</ele>
        <time>2021-08-14T09:48:42Z</time>
      </trkpt>
      <trkpt lat="46.00342" lon="3.03063">
        <ele>581.25</ele>
        <time>2021-08-14T09:48:43Z</time>
      </trkpt>
      <trkpt lat="46.00306" lon="3.03145">
        <ele>578.37</ele>
        <time>2021-08-14T09:48:51Z</time>
      </trkpt>
      <trkpt lat="46.00281" lon="3.03193">
        <ele>575.01</ele>
        <time>2021-08-14T09:48:56Z</time>
      </trkpt>
      <trkpt lat="46.00273" lon="3.03208">
        <ele>574.04</ele>
        <time>2021-08-14T09:48:58Z</time>
      </trkpt>
      <trkpt lat="46.00271" lon="3.03215">
        <ele>573.56</ele>
        <time>2021-08-14T09:48:59Z</time>
      </trkpt>
      <trkpt lat="46.0027" lon="3.03222">
        <ele>573.08</ele>
        <time>2021-08-14T09:49:00Z</time>
      </trkpt>
      <trkpt lat="46.00269" lon="3.0323">
        <ele>572.6</ele>
        <time>2021-08-14T09:49:01Z</time>
      </trkpt>
      <trkpt lat="46.00268" lon="3.03234">
        <ele>572.6</ele>
        <time>2021-08-14T09:49:02Z</time>
      </trkpt>
      <trkpt lat="46.00265" lon="3.03237">
        <ele>572.6</ele>
        <time>2021-08-14T09:49:03Z</time>
      </trkpt>
      <trkpt lat="46.00262" lon="3.03237">
        <ele>572.12</ele>
        <time>2021-08-14T09:49:04Z</time>
      </trkpt>
      <trkpt lat="46.00259" lon="3.03235">
        <ele>572.12</ele>
        <time>2021-08-14T09:49:05Z</time>
      </trkpt>
      <trkpt lat="46.00256" lon="3.03233">
        <ele>572.12</ele>
        <time>2021-08-14T09:49:06Z</time>
      </trkpt>
      <trkpt lat="46.00253" lon="3.03231">
        <ele>572.12</ele>
        <time>2021-08-14T09:49:07Z</time>
      </trkpt>
      <trkpt lat="46.00251" lon="3.03229">
        <ele>572.12</ele>
        <time>2021-08-14T09:49:08Z</time>
      </trkpt>
      <trkpt lat="46.00239" lon="3.03232">
        <ele>572.12</ele>
        <time>2021-08-14T09:49:14Z</time>
      </trkpt>
      <trkpt lat="46.00225" lon="3.03247">
        <ele>574.04</ele>
        <time>2021-08-14T09:49:23Z</time>
      </trkpt>
      <trkpt lat="46.00222" lon="3.03251">
        <ele>574.53</ele>
        <time>2021-08-14T09:49:30Z</time>
      </trkpt>
      <trkpt lat="46.00221" lon="3.0325">
        <ele>574.53</ele>
        <time>2021-08-14T09:49:42Z</time>
      </trkpt>
      <trkpt lat="46.00221" lon="3.03246">
        <ele>574.53</ele>
        <time>2021-08-14T09:49:45Z</time>
      </trkpt>
      <trkpt lat="46.00221" lon="3.03245">
        <ele>574.53</ele>
        <time>2021-08-14T09:49:46Z</time>
      </trkpt>
      <trkpt lat="46.0022" lon="3.03237">
        <ele>574.53</ele>
        <time>2021-08-14T09:49:54Z</time>
      </trkpt>
      <trkpt lat="46.00219" lon="3.03233">
        <ele>575.01</ele>
        <time>2021-08-14T09:50:02Z</time>
      </trkpt>
      <trkpt lat="46.00219" lon="3.03235">
        <ele>575.01</ele>
        <time>2021-08-14T09:50:15Z</time>
      </trkpt>
      <trkpt lat="46.00222" lon="3.03235">
        <ele>575.01</ele>
        <time>2021-08-14T09:50:45Z</time>
      </trkpt>
      <trkpt lat="46.0022" lon="3.03234">
        <ele>575.01</ele>
        <time>2021-08-14T09:51:16Z</time>
      </trkpt>
      <trkpt lat="46.00221" lon="3.03234">
        <ele>575.01</ele>
        <time>2021-08-14T09:51:36Z</time>
      </trkpt>
      <trkpt lat="46.00217" lon="3.03239">
        <ele>575.01</ele>
        <time>2021-08-14T09:52:02Z</time>
      </trkpt>
      <trkpt lat="46.00215" lon="3.03241">
        <ele>575.49</ele>
        <time>2021-08-14T09:52:21Z</time>
      </trkpt>
      <trkpt lat="46.00216" lon="3.03237">
        <ele>575.01</ele>
        <time>2021-08-14T09:52:34Z</time>
      </trkpt>
      <trkpt lat="46.00215" lon="3.03238">
        <ele>575.01</ele>
        <time>2021-08-14T09:53:00Z</time>
      </trkpt>
      <trkpt lat="46.00215" lon="3.03236">
        <ele>575.01</ele>
        <time>2021-08-14T09:53:23Z</time>
      </trkpt>
      <trkpt lat="46.00216" lon="3.03235">
        <ele>575.01</ele>
        <time>2021-08-14T09:53:45Z</time>
      </trkpt>
      <trkpt lat="46.00217" lon="3.03235">
        <ele>575.01</ele>
        <time>2021-08-14T09:53:53Z</time>
      </trkpt>
      <trkpt lat="46.00217" lon="3.03236">
        <ele>575.01</ele>
        <time>2021-08-14T09:53:54Z</time>
      </trkpt>
      <trkpt lat="46.00219" lon="3.03239">
        <ele>575.01</ele>
        <time>2021-08-14T09:53:56Z</time>
      </trkpt>
      <trkpt lat="46.00219" lon="3.03242">
        <ele>573.56</ele>
        <time>2021-08-14T09:53:57Z</time>
      </trkpt>
      <trkpt lat="46.0022" lon="3.03245">
        <ele>573.56</ele>
        <time>2021-08-14T09:53:58Z</time>
      </trkpt>
      <trkpt lat="46.0022" lon="3.03248">
        <ele>573.56</ele>
        <time>2021-08-14T09:53:59Z</time>
      </trkpt>
      <trkpt lat="46.0022" lon="3.0325">
        <ele>573.56</ele>
        <time>2021-08-14T09:54:00Z</time>
      </trkpt>
      <trkpt lat="46.00219" lon="3.03252">
        <ele>573.56</ele>
        <time>2021-08-14T09:54:01Z</time>
      </trkpt>
      <trkpt lat="46.00218" lon="3.03252">
        <ele>573.56</ele>
        <time>2021-08-14T09:54:02Z</time>
      </trkpt>
      <trkpt lat="46.00217" lon="3.03253">
        <ele>573.56</ele>
        <time>2021-08-14T09:54:03Z</time>
      </trkpt>
      <trkpt lat="46.00216" lon="3.03254">
        <ele>573.56</ele>
        <time>2021-08-14T09:54:04Z</time>
      </trkpt>
      <trkpt lat="46.00215" lon="3.03255">
        <ele>573.56</ele>
        <time>2021-08-14T09:54:05Z</time>
      </trkpt>
      <trkpt lat="46.00211" lon="3.03257">
        <ele>574.53</ele>
        <time>2021-08-14T09:54:09Z</time>
      </trkpt>
      <trkpt lat="46.002" lon="3.03264">
        <ele>576.45</ele>
        <time>2021-08-14T09:54:19Z</time>
      </trkpt>
      <trkpt lat="46.00192" lon="3.03273">
        <ele>577.41</ele>
        <time>2021-08-14T09:54:27Z</time>
      </trkpt>
      <trkpt lat="46.00186" lon="3.03285">
        <ele>578.85</ele>
        <time>2021-08-14T09:54:36Z</time>
      </trkpt>
      <trkpt lat="46.00182" lon="3.03293">
        <ele>580.29</ele>
        <time>2021-08-14T09:54:43Z</time>
      </trkpt>
      <trkpt lat="46.0018" lon="3.03303">
        <ele>581.25</ele>
        <time>2021-08-14T09:54:50Z</time>
      </trkpt>
      <trkpt lat="46.0018" lon="3.03305">
        <ele>581.25</ele>
        <time>2021-08-14T09:54:51Z</time>
      </trkpt>
      <trkpt lat="46.00178" lon="3.03309">
        <ele>581.73</ele>
        <time>2021-08-14T09:54:54Z</time>
      </trkpt>
      <trkpt lat="46.00178" lon="3.03311">
        <ele>582.22</ele>
        <time>2021-08-14T09:54:55Z</time>
      </trkpt>
      <trkpt lat="46.00178" lon="3.03313">
        <ele>582.22</ele>
        <time>2021-08-14T09:54:56Z</time>
      </trkpt>
      <trkpt lat="46.00177" lon="3.03314">
        <ele>582.22</ele>
        <time>2021-08-14T09:54:57Z</time>
      </trkpt>
      <trkpt lat="46.00177" lon="3.03316">
        <ele>582.7</ele>
        <time>2021-08-14T09:54:58Z</time>
      </trkpt>
      <trkpt lat="46.00176" lon="3.03329">
        <ele>583.66</ele>
        <time>2021-08-14T09:55:06Z</time>
      </trkpt>
      <trkpt lat="46.00176" lon="3.03331">
        <ele>583.66</ele>
        <time>2021-08-14T09:55:07Z</time>
      </trkpt>
      <trkpt lat="46.00176" lon="3.03333">
        <ele>583.66</ele>
        <time>2021-08-14T09:55:08Z</time>
      </trkpt>
      <trkpt lat="46.00176" lon="3.03335">
        <ele>583.66</ele>
        <time>2021-08-14T09:55:09Z</time>
      </trkpt>
      <trkpt lat="46.00176" lon="3.03337">
        <ele>583.66</ele>
        <time>2021-08-14T09:55:10Z</time>
      </trkpt>
      <trkpt lat="46.00176" lon="3.03338">
        <ele>583.66</ele>
        <time>2021-08-14T09:55:11Z</time>
      </trkpt>
      <trkpt lat="46.00176" lon="3.03344">
        <ele>584.14</ele>
        <time>2021-08-14T09:55:14Z</time>
      </trkpt>
      <trkpt lat="46.00176" lon="3.03346">
        <ele>584.14</ele>
        <time>2021-08-14T09:55:15Z</time>
      </trkpt>
      <trkpt lat="46.00176" lon="3.03348">
        <ele>584.62</ele>
        <time>2021-08-14T09:55:16Z</time>
      </trkpt>
      <trkpt lat="46.00176" lon="3.0335">
        <ele>584.62</ele>
        <time>2021-08-14T09:55:17Z</time>
      </trkpt>
      <trkpt lat="46.00176" lon="3.03352">
        <ele>584.62</ele>
        <time>2021-08-14T09:55:18Z</time>
      </trkpt>
      <trkpt lat="46.00175" lon="3.03354">
        <ele>584.62</ele>
        <time>2021-08-14T09:55:19Z</time>
      </trkpt>
      <trkpt lat="46.00172" lon="3.03374">
        <ele>586.06</ele>
        <time>2021-08-14T09:55:29Z</time>
      </trkpt>
      <trkpt lat="46.00164" lon="3.03389">
        <ele>587.5</ele>
        <time>2021-08-14T09:55:38Z</time>
      </trkpt>
      <trkpt lat="46.0015" lon="3.03408">
        <ele>587.98</ele>
        <time>2021-08-14T09:55:48Z</time>
      </trkpt>
      <trkpt lat="46.00133" lon="3.03435">
        <ele>589.43</ele>
        <time>2021-08-14T09:56:00Z</time>
      </trkpt>
      <trkpt lat="46.00125" lon="3.03457">
        <ele>589.91</ele>
        <time>2021-08-14T09:56:08Z</time>
      </trkpt>
      <trkpt lat="46.00129" lon="3.03485">
        <ele>592.31</ele>
        <time>2021-08-14T09:56:18Z</time>
      </trkpt>
      <trkpt lat="46.00136" lon="3.03504">
        <ele>593.27</ele>
        <time>2021-08-14T09:56:25Z</time>
      </trkpt>
      <trkpt lat="46.00145" lon="3.03533">
        <ele>593.27</ele>
        <time>2021-08-14T09:56:33Z</time>
      </trkpt>
      <trkpt lat="46.00151" lon="3.03578">
        <ele>593.27</ele>
        <time>2021-08-14T09:56:42Z</time>
      </trkpt>
      <trkpt lat="46.00149" lon="3.0362">
        <ele>593.75</ele>
        <time>2021-08-14T09:56:50Z</time>
      </trkpt>
      <trkpt lat="46.00142" lon="3.03646">
        <ele>593.75</ele>
        <time>2021-08-14T09:56:56Z</time>
      </trkpt>
      <trkpt lat="46.00134" lon="3.03664">
        <ele>595.67</ele>
        <time>2021-08-14T09:57:01Z</time>
      </trkpt>
      <trkpt lat="46.00117" lon="3.03677">
        <ele>597.12</ele>
        <time>2021-08-14T09:57:09Z</time>
      </trkpt>
      <trkpt lat="46.00102" lon="3.03676">
        <ele>598.08</ele>
        <time>2021-08-14T09:57:16Z</time>
      </trkpt>
      <trkpt lat="46.00085" lon="3.03673">
        <ele>600</ele>
        <time>2021-08-14T09:57:24Z</time>
      </trkpt>
      <trkpt lat="46.00071" lon="3.03665">
        <ele>600.48</ele>
        <time>2021-08-14T09:57:32Z</time>
      </trkpt>
      <trkpt lat="46.00054" lon="3.03652">
        <ele>601.92</ele>
        <time>2021-08-14T09:57:41Z</time>
      </trkpt>
      <trkpt lat="46.00039" lon="3.03641">
        <ele>602.88</ele>
        <time>2021-08-14T09:57:49Z</time>
      </trkpt>
      <trkpt lat="46.00024" lon="3.03634">
        <ele>603.85</ele>
        <time>2021-08-14T09:57:58Z</time>
      </trkpt>
      <trkpt lat="46.00008" lon="3.03627">
        <ele>605.29</ele>
        <time>2021-08-14T09:58:08Z</time>
      </trkpt>
      <trkpt lat="45.99992" lon="3.03617">
        <ele>606.73</ele>
        <time>2021-08-14T09:58:17Z</time>
      </trkpt>
      <trkpt lat="45.99974" lon="3.03603">
        <ele>607.69</ele>
        <time>2021-08-14T09:58:26Z</time>
      </trkpt>
      <trkpt lat="45.99958" lon="3.0359">
        <ele>608.65</ele>
        <time>2021-08-14T09:58:34Z</time>
      </trkpt>
      <trkpt lat="45.99935" lon="3.03572">
        <ele>609.13</ele>
        <time>2021-08-14T09:58:43Z</time>
      </trkpt>
      <trkpt lat="45.99909" lon="3.03551">
        <ele>609.13</ele>
        <time>2021-08-14T09:58:51Z</time>
      </trkpt>
      <trkpt lat="45.99879" lon="3.03519">
        <ele>609.13</ele>
        <time>2021-08-14T09:59:01Z</time>
      </trkpt>
      <trkpt lat="45.99855" lon="3.03503">
        <ele>609.61</ele>
        <time>2021-08-14T09:59:09Z</time>
      </trkpt>
      <trkpt lat="45.99837" lon="3.03499">
        <ele>609.61</ele>
        <time>2021-08-14T09:59:15Z</time>
      </trkpt>
      <trkpt lat="45.99814" lon="3.03486">
        <ele>608.17</ele>
        <time>2021-08-14T09:59:21Z</time>
      </trkpt>
      <trkpt lat="45.99809" lon="3.03484">
        <ele>608.17</ele>
        <time>2021-08-14T09:59:22Z</time>
      </trkpt>
      <trkpt lat="45.99773" lon="3.03458">
        <ele>606.25</ele>
        <time>2021-08-14T09:59:29Z</time>
      </trkpt>
      <trkpt lat="45.99737" lon="3.03427">
        <ele>605.29</ele>
        <time>2021-08-14T09:59:36Z</time>
      </trkpt>
      <trkpt lat="45.99712" lon="3.03403">
        <ele>604.81</ele>
        <time>2021-08-14T09:59:41Z</time>
      </trkpt>
      <trkpt lat="45.99683" lon="3.03373">
        <ele>604.81</ele>
        <time>2021-08-14T09:59:47Z</time>
      </trkpt>
      <trkpt lat="45.99667" lon="3.03354">
        <ele>606.25</ele>
        <time>2021-08-14T09:59:51Z</time>
      </trkpt>
      <trkpt lat="45.9966" lon="3.03345">
        <ele>606.73</ele>
        <time>2021-08-14T09:59:53Z</time>
      </trkpt>
      <trkpt lat="45.99638" lon="3.03314">
        <ele>607.69</ele>
        <time>2021-08-14T10:00:00Z</time>
      </trkpt>
      <trkpt lat="45.99632" lon="3.03305">
        <ele>607.69</ele>
        <time>2021-08-14T10:00:02Z</time>
      </trkpt>
      <trkpt lat="45.99611" lon="3.03273">
        <ele>608.65</ele>
        <time>2021-08-14T10:00:10Z</time>
      </trkpt>
      <trkpt lat="45.99586" lon="3.03234">
        <ele>610.09</ele>
        <time>2021-08-14T10:00:21Z</time>
      </trkpt>
      <trkpt lat="45.99563" lon="3.03207">
        <ele>611.54</ele>
        <time>2021-08-14T10:00:31Z</time>
      </trkpt>
      <trkpt lat="45.99543" lon="3.03189">
        <ele>612.5</ele>
        <time>2021-08-14T10:00:39Z</time>
      </trkpt>
      <trkpt lat="45.99523" lon="3.0318">
        <ele>613.46</ele>
        <time>2021-08-14T10:00:46Z</time>
      </trkpt>
      <trkpt lat="45.99499" lon="3.0317">
        <ele>614.9</ele>
        <time>2021-08-14T10:00:56Z</time>
      </trkpt>
      <trkpt lat="45.99479" lon="3.0317">
        <ele>616.34</ele>
        <time>2021-08-14T10:01:04Z</time>
      </trkpt>
      <trkpt lat="45.9946" lon="3.03173">
        <ele>616.34</ele>
        <time>2021-08-14T10:01:11Z</time>
      </trkpt>
      <trkpt lat="45.99427" lon="3.03175">
        <ele>616.34</ele>
        <time>2021-08-14T10:01:21Z</time>
      </trkpt>
      <trkpt lat="45.99409" lon="3.03179">
        <ele>616.34</ele>
        <time>2021-08-14T10:01:26Z</time>
      </trkpt>
      <trkpt lat="45.99394" lon="3.0319">
        <ele>616.82</ele>
        <time>2021-08-14T10:01:29Z</time>
      </trkpt>
      <trkpt lat="45.99364" lon="3.03187">
        <ele>617.78</ele>
        <time>2021-08-14T10:01:38Z</time>
      </trkpt>
      <trkpt lat="45.99336" lon="3.03199">
        <ele>617.78</ele>
        <time>2021-08-14T10:01:46Z</time>
      </trkpt>
      <trkpt lat="45.9931" lon="3.03215">
        <ele>618.26</ele>
        <time>2021-08-14T10:01:53Z</time>
      </trkpt>
      <trkpt lat="45.99276" lon="3.03241">
        <ele>619.23</ele>
        <time>2021-08-14T10:02:02Z</time>
      </trkpt>
      <trkpt lat="45.99243" lon="3.03274">
        <ele>621.63</ele>
        <time>2021-08-14T10:02:12Z</time>
      </trkpt>
      <trkpt lat="45.99217" lon="3.0331">
        <ele>622.11</ele>
        <time>2021-08-14T10:02:21Z</time>
      </trkpt>
      <trkpt lat="45.99198" lon="3.03344">
        <ele>623.07</ele>
        <time>2021-08-14T10:02:29Z</time>
      </trkpt>
      <trkpt lat="45.99196" lon="3.03349">
        <ele>623.07</ele>
        <time>2021-08-14T10:02:30Z</time>
      </trkpt>
      <trkpt lat="45.99179" lon="3.03401">
        <ele>622.59</ele>
        <time>2021-08-14T10:02:40Z</time>
      </trkpt>
      <trkpt lat="45.9917" lon="3.03429">
        <ele>622.59</ele>
        <time>2021-08-14T10:02:45Z</time>
      </trkpt>
      <trkpt lat="45.99167" lon="3.03435">
        <ele>621.63</ele>
        <time>2021-08-14T10:02:46Z</time>
      </trkpt>
      <trkpt lat="45.99151" lon="3.03489">
        <ele>621.15</ele>
        <time>2021-08-14T10:02:54Z</time>
      </trkpt>
      <trkpt lat="45.99144" lon="3.03508">
        <ele>621.15</ele>
        <time>2021-08-14T10:02:57Z</time>
      </trkpt>
      <trkpt lat="45.99133" lon="3.03549">
        <ele>621.15</ele>
        <time>2021-08-14T10:03:04Z</time>
      </trkpt>
      <trkpt lat="45.99132" lon="3.03555">
        <ele>620.67</ele>
        <time>2021-08-14T10:03:05Z</time>
      </trkpt>
      <trkpt lat="45.99124" lon="3.03578">
        <ele>620.67</ele>
        <time>2021-08-14T10:03:09Z</time>
      </trkpt>
      <trkpt lat="45.99122" lon="3.0359">
        <ele>620.67</ele>
        <time>2021-08-14T10:03:11Z</time>
      </trkpt>
      <trkpt lat="45.99108" lon="3.03645">
        <ele>619.71</ele>
        <time>2021-08-14T10:03:19Z</time>
      </trkpt>
      <trkpt lat="45.99088" lon="3.03727">
        <ele>619.71</ele>
        <time>2021-08-14T10:03:29Z</time>
      </trkpt>
      <trkpt lat="45.99069" lon="3.03802">
        <ele>620.19</ele>
        <time>2021-08-14T10:03:39Z</time>
      </trkpt>
      <trkpt lat="45.99064" lon="3.03821">
        <ele>621.15</ele>
        <time>2021-08-14T10:03:42Z</time>
      </trkpt>
      <trkpt lat="45.99058" lon="3.03838">
        <ele>621.63</ele>
        <time>2021-08-14T10:03:45Z</time>
      </trkpt>
      <trkpt lat="45.99041" lon="3.03889">
        <ele>623.07</ele>
        <time>2021-08-14T10:03:54Z</time>
      </trkpt>
      <trkpt lat="45.99031" lon="3.03942">
        <ele>623.07</ele>
        <time>2021-08-14T10:04:02Z</time>
      </trkpt>
      <trkpt lat="45.9903" lon="3.03999">
        <ele>621.15</ele>
        <time>2021-08-14T10:04:09Z</time>
      </trkpt>
      <trkpt lat="45.99024" lon="3.04052">
        <ele>620.67</ele>
        <time>2021-08-14T10:04:15Z</time>
      </trkpt>
      <trkpt lat="45.99021" lon="3.04061">
        <ele>619.71</ele>
        <time>2021-08-14T10:04:16Z</time>
      </trkpt>
      <trkpt lat="45.99015" lon="3.04077">
        <ele>619.71</ele>
        <time>2021-08-14T10:04:18Z</time>
      </trkpt>
      <trkpt lat="45.98998" lon="3.04109">
        <ele>618.26</ele>
        <time>2021-08-14T10:04:22Z</time>
      </trkpt>
      <trkpt lat="45.98991" lon="3.04116">
        <ele>617.3</ele>
        <time>2021-08-14T10:04:23Z</time>
      </trkpt>
      <trkpt lat="45.98986" lon="3.04122">
        <ele>617.3</ele>
        <time>2021-08-14T10:04:24Z</time>
      </trkpt>
      <trkpt lat="45.98972" lon="3.04135">
        <ele>616.34</ele>
        <time>2021-08-14T10:04:26Z</time>
      </trkpt>
      <trkpt lat="45.98965" lon="3.04139">
        <ele>616.34</ele>
        <time>2021-08-14T10:04:27Z</time>
      </trkpt>
      <trkpt lat="45.98957" lon="3.04143">
        <ele>615.86</ele>
        <time>2021-08-14T10:04:28Z</time>
      </trkpt>
      <trkpt lat="45.98949" lon="3.04145">
        <ele>616.34</ele>
        <time>2021-08-14T10:04:29Z</time>
      </trkpt>
      <trkpt lat="45.98941" lon="3.04147">
        <ele>615.38</ele>
        <time>2021-08-14T10:04:30Z</time>
      </trkpt>
      <trkpt lat="45.98932" lon="3.04148">
        <ele>615.38</ele>
        <time>2021-08-14T10:04:31Z</time>
      </trkpt>
      <trkpt lat="45.98882" lon="3.04154">
        <ele>614.42</ele>
        <time>2021-08-14T10:04:37Z</time>
      </trkpt>
      <trkpt lat="45.98874" lon="3.04157">
        <ele>614.42</ele>
        <time>2021-08-14T10:04:38Z</time>
      </trkpt>
      <trkpt lat="45.98867" lon="3.04162">
        <ele>613.46</ele>
        <time>2021-08-14T10:04:39Z</time>
      </trkpt>
      <trkpt lat="45.98861" lon="3.04169">
        <ele>613.46</ele>
        <time>2021-08-14T10:04:40Z</time>
      </trkpt>
      <trkpt lat="45.98857" lon="3.04178">
        <ele>612.98</ele>
        <time>2021-08-14T10:04:41Z</time>
      </trkpt>
      <trkpt lat="45.98853" lon="3.04187">
        <ele>612.98</ele>
        <time>2021-08-14T10:04:42Z</time>
      </trkpt>
      <trkpt lat="45.98849" lon="3.04194">
        <ele>612.98</ele>
        <time>2021-08-14T10:04:43Z</time>
      </trkpt>
      <trkpt lat="45.98843" lon="3.042">
        <ele>612.98</ele>
        <time>2021-08-14T10:04:44Z</time>
      </trkpt>
      <trkpt lat="45.98836" lon="3.04202">
        <ele>612.98</ele>
        <time>2021-08-14T10:04:45Z</time>
      </trkpt>
      <trkpt lat="45.9883" lon="3.04201">
        <ele>612.98</ele>
        <time>2021-08-14T10:04:46Z</time>
      </trkpt>
      <trkpt lat="45.98825" lon="3.04199">
        <ele>612.98</ele>
        <time>2021-08-14T10:04:47Z</time>
      </trkpt>
      <trkpt lat="45.98798" lon="3.04188">
        <ele>614.42</ele>
        <time>2021-08-14T10:04:52Z</time>
      </trkpt>
      <trkpt lat="45.98766" lon="3.04174">
        <ele>615.38</ele>
        <time>2021-08-14T10:04:59Z</time>
      </trkpt>
      <trkpt lat="45.98739" lon="3.04161">
        <ele>616.34</ele>
        <time>2021-08-14T10:05:06Z</time>
      </trkpt>
      <trkpt lat="45.98702" lon="3.04144">
        <ele>617.3</ele>
        <time>2021-08-14T10:05:15Z</time>
      </trkpt>
      <trkpt lat="45.98681" lon="3.04136">
        <ele>617.78</ele>
        <time>2021-08-14T10:05:21Z</time>
      </trkpt>
      <trkpt lat="45.98648" lon="3.04134">
        <ele>619.23</ele>
        <time>2021-08-14T10:05:30Z</time>
      </trkpt>
      <trkpt lat="45.98617" lon="3.04143">
        <ele>621.15</ele>
        <time>2021-08-14T10:05:40Z</time>
      </trkpt>
      <trkpt lat="45.98594" lon="3.0415">
        <ele>622.11</ele>
        <time>2021-08-14T10:05:49Z</time>
      </trkpt>
      <trkpt lat="45.98575" lon="3.04156">
        <ele>623.07</ele>
        <time>2021-08-14T10:05:57Z</time>
      </trkpt>
      <trkpt lat="45.98552" lon="3.04163">
        <ele>624.03</ele>
        <time>2021-08-14T10:06:07Z</time>
      </trkpt>
      <trkpt lat="45.98531" lon="3.04168">
        <ele>625.47</ele>
        <time>2021-08-14T10:06:17Z</time>
      </trkpt>
      <trkpt lat="45.98518" lon="3.04172">
        <ele>625.96</ele>
        <time>2021-08-14T10:06:24Z</time>
      </trkpt>
      <trkpt lat="45.98499" lon="3.04177">
        <ele>626.92</ele>
        <time>2021-08-14T10:06:32Z</time>
      </trkpt>
      <trkpt lat="45.98479" lon="3.0418">
        <ele>627.88</ele>
        <time>2021-08-14T10:06:39Z</time>
      </trkpt>
      <trkpt lat="45.98465" lon="3.04181">
        <ele>628.36</ele>
        <time>2021-08-14T10:06:45Z</time>
      </trkpt>
      <trkpt lat="45.98442" lon="3.04187">
        <ele>629.8</ele>
        <time>2021-08-14T10:06:54Z</time>
      </trkpt>
      <trkpt lat="45.98423" lon="3.04193">
        <ele>630.28</ele>
        <time>2021-08-14T10:07:02Z</time>
      </trkpt>
      <trkpt lat="45.98401" lon="3.04201">
        <ele>631.24</ele>
        <time>2021-08-14T10:07:11Z</time>
      </trkpt>
      <trkpt lat="45.98384" lon="3.0421">
        <ele>631.72</ele>
        <time>2021-08-14T10:07:18Z</time>
      </trkpt>
      <trkpt lat="45.98373" lon="3.04206">
        <ele>632.2</ele>
        <time>2021-08-14T10:07:22Z</time>
      </trkpt>
      <trkpt lat="45.98371" lon="3.04203">
        <ele>632.2</ele>
        <time>2021-08-14T10:07:23Z</time>
      </trkpt>
      <trkpt lat="45.9837" lon="3.042">
        <ele>632.68</ele>
        <time>2021-08-14T10:07:24Z</time>
      </trkpt>
      <trkpt lat="45.9837" lon="3.04197">
        <ele>632.68</ele>
        <time>2021-08-14T10:07:25Z</time>
      </trkpt>
      <trkpt lat="45.98371" lon="3.04194">
        <ele>633.17</ele>
        <time>2021-08-14T10:07:26Z</time>
      </trkpt>
      <trkpt lat="45.98371" lon="3.0419">
        <ele>633.17</ele>
        <time>2021-08-14T10:07:27Z</time>
      </trkpt>
      <trkpt lat="45.9838" lon="3.0416">
        <ele>633.17</ele>
        <time>2021-08-14T10:07:35Z</time>
      </trkpt>
      <trkpt lat="45.98396" lon="3.04117">
        <ele>633.17</ele>
        <time>2021-08-14T10:07:46Z</time>
      </trkpt>
      <trkpt lat="45.98408" lon="3.04085">
        <ele>633.65</ele>
        <time>2021-08-14T10:07:54Z</time>
      </trkpt>
      <trkpt lat="45.98414" lon="3.04046">
        <ele>634.13</ele>
        <time>2021-08-14T10:08:02Z</time>
      </trkpt>
      <trkpt lat="45.9842" lon="3.04019">
        <ele>635.09</ele>
        <time>2021-08-14T10:08:09Z</time>
      </trkpt>
      <trkpt lat="45.9843" lon="3.03991">
        <ele>636.53</ele>
        <time>2021-08-14T10:08:18Z</time>
      </trkpt>
      <trkpt lat="45.98433" lon="3.03968">
        <ele>637.01</ele>
        <time>2021-08-14T10:08:24Z</time>
      </trkpt>
      <trkpt lat="45.98424" lon="3.0394">
        <ele>637.97</ele>
        <time>2021-08-14T10:08:32Z</time>
      </trkpt>
      <trkpt lat="45.98408" lon="3.03907">
        <ele>638.93</ele>
        <time>2021-08-14T10:08:42Z</time>
      </trkpt>
      <trkpt lat="45.98404" lon="3.03866">
        <ele>639.41</ele>
        <time>2021-08-14T10:08:51Z</time>
      </trkpt>
      <trkpt lat="45.98405" lon="3.03833">
        <ele>639.41</ele>
        <time>2021-08-14T10:08:57Z</time>
      </trkpt>
      <trkpt lat="45.98407" lon="3.03777">
        <ele>639.89</ele>
        <time>2021-08-14T10:09:07Z</time>
      </trkpt>
      <trkpt lat="45.98406" lon="3.03738">
        <ele>640.38</ele>
        <time>2021-08-14T10:09:15Z</time>
      </trkpt>
      <trkpt lat="45.98404" lon="3.03694">
        <ele>641.34</ele>
        <time>2021-08-14T10:09:25Z</time>
      </trkpt>
      <trkpt lat="45.98399" lon="3.03663">
        <ele>642.3</ele>
        <time>2021-08-14T10:09:34Z</time>
      </trkpt>
      <trkpt lat="45.98395" lon="3.0364">
        <ele>643.74</ele>
        <time>2021-08-14T10:09:42Z</time>
      </trkpt>
      <trkpt lat="45.9839" lon="3.03623">
        <ele>644.7</ele>
        <time>2021-08-14T10:09:49Z</time>
      </trkpt>
      <trkpt lat="45.98388" lon="3.03613">
        <ele>645.18</ele>
        <time>2021-08-14T10:09:53Z</time>
      </trkpt>
      <trkpt lat="45.98387" lon="3.03611">
        <ele>645.18</ele>
        <time>2021-08-14T10:09:54Z</time>
      </trkpt>
      <trkpt lat="45.98387" lon="3.03609">
        <ele>645.18</ele>
        <time>2021-08-14T10:09:55Z</time>
      </trkpt>
      <trkpt lat="45.98386" lon="3.03606">
        <ele>645.66</ele>
        <time>2021-08-14T10:09:56Z</time>
      </trkpt>
      <trkpt lat="45.98386" lon="3.03604">
        <ele>645.66</ele>
        <time>2021-08-14T10:09:57Z</time>
      </trkpt>
      <trkpt lat="45.98385" lon="3.03602">
        <ele>645.66</ele>
        <time>2021-08-14T10:09:58Z</time>
      </trkpt>
      <trkpt lat="45.98385" lon="3.036">
        <ele>645.66</ele>
        <time>2021-08-14T10:09:59Z</time>
      </trkpt>
      <trkpt lat="45.98384" lon="3.03598">
        <ele>645.66</ele>
        <time>2021-08-14T10:10:00Z</time>
      </trkpt>
      <trkpt lat="45.98384" lon="3.03595">
        <ele>646.14</ele>
        <time>2021-08-14T10:10:02Z</time>
      </trkpt>
      <trkpt lat="45.98381" lon="3.03581">
        <ele>647.1</ele>
        <time>2021-08-14T10:10:10Z</time>
      </trkpt>
      <trkpt lat="45.98379" lon="3.03571">
        <ele>647.59</ele>
        <time>2021-08-14T10:10:16Z</time>
      </trkpt>
      <trkpt lat="45.98373" lon="3.0355">
        <ele>649.03</ele>
        <time>2021-08-14T10:10:27Z</time>
      </trkpt>
      <trkpt lat="45.98368" lon="3.03532">
        <ele>649.99</ele>
        <time>2021-08-14T10:10:36Z</time>
      </trkpt>
      <trkpt lat="45.98362" lon="3.0351">
        <ele>651.43</ele>
        <time>2021-08-14T10:10:47Z</time>
      </trkpt>
      <trkpt lat="45.98358" lon="3.0349">
        <ele>652.39</ele>
        <time>2021-08-14T10:10:56Z</time>
      </trkpt>
      <trkpt lat="45.98357" lon="3.03485">
        <ele>652.39</ele>
        <time>2021-08-14T10:10:58Z</time>
      </trkpt>
      <trkpt lat="45.98356" lon="3.03482">
        <ele>652.39</ele>
        <time>2021-08-14T10:10:59Z</time>
      </trkpt>
      <trkpt lat="45.9835" lon="3.03451">
        <ele>653.35</ele>
        <time>2021-08-14T10:11:09Z</time>
      </trkpt>
      <trkpt lat="45.98342" lon="3.03418">
        <ele>653.83</ele>
        <time>2021-08-14T10:11:17Z</time>
      </trkpt>
      <trkpt lat="45.98337" lon="3.03398">
        <ele>653.83</ele>
        <time>2021-08-14T10:11:21Z</time>
      </trkpt>
      <trkpt lat="45.98334" lon="3.03381">
        <ele>654.31</ele>
        <time>2021-08-14T10:11:26Z</time>
      </trkpt>
      <trkpt lat="45.9833" lon="3.03345">
        <ele>654.8</ele>
        <time>2021-08-14T10:11:34Z</time>
      </trkpt>
      <trkpt lat="45.98327" lon="3.033">
        <ele>654.8</ele>
        <time>2021-08-14T10:11:44Z</time>
      </trkpt>
      <trkpt lat="45.98324" lon="3.03253">
        <ele>656.24</ele>
        <time>2021-08-14T10:11:55Z</time>
      </trkpt>
      <trkpt lat="45.98321" lon="3.03219">
        <ele>657.2</ele>
        <time>2021-08-14T10:12:05Z</time>
      </trkpt>
      <trkpt lat="45.98318" lon="3.03197">
        <ele>658.16</ele>
        <time>2021-08-14T10:12:13Z</time>
      </trkpt>
      <trkpt lat="45.98315" lon="3.03174">
        <ele>659.12</ele>
        <time>2021-08-14T10:12:23Z</time>
      </trkpt>
      <trkpt lat="45.98311" lon="3.03148">
        <ele>661.04</ele>
        <time>2021-08-14T10:12:35Z</time>
      </trkpt>
      <trkpt lat="45.98303" lon="3.0313">
        <ele>662.01</ele>
        <time>2021-08-14T10:12:44Z</time>
      </trkpt>
      <trkpt lat="45.98302" lon="3.03129">
        <ele>662.01</ele>
        <time>2021-08-14T10:12:45Z</time>
      </trkpt>
      <trkpt lat="45.98301" lon="3.03128">
        <ele>662.01</ele>
        <time>2021-08-14T10:12:46Z</time>
      </trkpt>
      <trkpt lat="45.983" lon="3.03127">
        <ele>662.01</ele>
        <time>2021-08-14T10:12:47Z</time>
      </trkpt>
      <trkpt lat="45.98299" lon="3.03125">
        <ele>662.01</ele>
        <time>2021-08-14T10:12:48Z</time>
      </trkpt>
      <trkpt lat="45.98298" lon="3.03124">
        <ele>662.01</ele>
        <time>2021-08-14T10:12:49Z</time>
      </trkpt>
      <trkpt lat="45.98297" lon="3.03122">
        <ele>662.01</ele>
        <time>2021-08-14T10:12:50Z</time>
      </trkpt>
      <trkpt lat="45.98296" lon="3.0312">
        <ele>662.01</ele>
        <time>2021-08-14T10:12:51Z</time>
      </trkpt>
      <trkpt lat="45.98295" lon="3.03119">
        <ele>662.49</ele>
        <time>2021-08-14T10:12:52Z</time>
      </trkpt>
      <trkpt lat="45.98293" lon="3.03117">
        <ele>662.49</ele>
        <time>2021-08-14T10:12:54Z</time>
      </trkpt>
      <trkpt lat="45.98288" lon="3.03109">
        <ele>662.97</ele>
        <time>2021-08-14T10:12:59Z</time>
      </trkpt>
      <trkpt lat="45.98286" lon="3.03108">
        <ele>662.97</ele>
        <time>2021-08-14T10:13:00Z</time>
      </trkpt>
      <trkpt lat="45.98285" lon="3.03106">
        <ele>663.45</ele>
        <time>2021-08-14T10:13:01Z</time>
      </trkpt>
      <trkpt lat="45.98283" lon="3.03105">
        <ele>663.45</ele>
        <time>2021-08-14T10:13:02Z</time>
      </trkpt>
      <trkpt lat="45.98282" lon="3.03103">
        <ele>663.45</ele>
        <time>2021-08-14T10:13:03Z</time>
      </trkpt>
      <trkpt lat="45.98281" lon="3.03101">
        <ele>663.45</ele>
        <time>2021-08-14T10:13:04Z</time>
      </trkpt>
      <trkpt lat="45.98266" lon="3.03087">
        <ele>664.41</ele>
        <time>2021-08-14T10:13:13Z</time>
      </trkpt>
      <trkpt lat="45.98253" lon="3.03071">
        <ele>664.89</ele>
        <time>2021-08-14T10:13:20Z</time>
      </trkpt>
      <trkpt lat="45.98234" lon="3.03051">
        <ele>665.85</ele>
        <time>2021-08-14T10:13:29Z</time>
      </trkpt>
      <trkpt lat="45.98219" lon="3.03032">
        <ele>665.85</ele>
        <time>2021-08-14T10:13:37Z</time>
      </trkpt>
      <trkpt lat="45.98202" lon="3.03018">
        <ele>666.81</ele>
        <time>2021-08-14T10:13:45Z</time>
      </trkpt>
      <trkpt lat="45.98179" lon="3.03012">
        <ele>667.29</ele>
        <time>2021-08-14T10:13:53Z</time>
      </trkpt>
      <trkpt lat="45.98148" lon="3.03011">
        <ele>667.29</ele>
        <time>2021-08-14T10:14:02Z</time>
      </trkpt>
      <trkpt lat="45.98112" lon="3.03008">
        <ele>667.29</ele>
        <time>2021-08-14T10:14:12Z</time>
      </trkpt>
      <trkpt lat="45.98081" lon="3.03002">
        <ele>667.77</ele>
        <time>2021-08-14T10:14:21Z</time>
      </trkpt>
      <trkpt lat="45.98063" lon="3.02999">
        <ele>668.73</ele>
        <time>2021-08-14T10:14:27Z</time>
      </trkpt>
      <trkpt lat="45.98027" lon="3.02989">
        <ele>669.22</ele>
        <time>2021-08-14T10:14:38Z</time>
      </trkpt>
      <trkpt lat="45.97995" lon="3.02985">
        <ele>669.22</ele>
        <time>2021-08-14T10:14:46Z</time>
      </trkpt>
      <trkpt lat="45.97983" lon="3.02984">
        <ele>669.22</ele>
        <time>2021-08-14T10:14:49Z</time>
      </trkpt>
      <trkpt lat="45.97978" lon="3.02984">
        <ele>669.22</ele>
        <time>2021-08-14T10:14:50Z</time>
      </trkpt>
      <trkpt lat="45.97974" lon="3.02983">
        <ele>667.77</ele>
        <time>2021-08-14T10:14:51Z</time>
      </trkpt>
      <trkpt lat="45.97969" lon="3.02983">
        <ele>667.77</ele>
        <time>2021-08-14T10:14:52Z</time>
      </trkpt>
      <trkpt lat="45.97928" lon="3.02982">
        <ele>667.29</ele>
        <time>2021-08-14T10:15:01Z</time>
      </trkpt>
      <trkpt lat="45.97905" lon="3.0298">
        <ele>667.77</ele>
        <time>2021-08-14T10:15:07Z</time>
      </trkpt>
      <trkpt lat="45.979" lon="3.02979">
        <ele>667.77</ele>
        <time>2021-08-14T10:15:08Z</time>
      </trkpt>
      <trkpt lat="45.97858" lon="3.02973">
        <ele>666.81</ele>
        <time>2021-08-14T10:15:18Z</time>
      </trkpt>
      <trkpt lat="45.97845" lon="3.02972">
        <ele>666.33</ele>
        <time>2021-08-14T10:15:21Z</time>
      </trkpt>
      <trkpt lat="45.97817" lon="3.0297">
        <ele>664.89</ele>
        <time>2021-08-14T10:15:27Z</time>
      </trkpt>
      <trkpt lat="45.97796" lon="3.02964">
        <ele>664.41</ele>
        <time>2021-08-14T10:15:31Z</time>
      </trkpt>
      <trkpt lat="45.97756" lon="3.02934">
        <ele>663.45</ele>
        <time>2021-08-14T10:15:39Z</time>
      </trkpt>
      <trkpt lat="45.97727" lon="3.02905">
        <ele>662.97</ele>
        <time>2021-08-14T10:15:46Z</time>
      </trkpt>
      <trkpt lat="45.97711" lon="3.02882">
        <ele>662.97</ele>
        <time>2021-08-14T10:15:51Z</time>
      </trkpt>
      <trkpt lat="45.97708" lon="3.02877">
        <ele>662.49</ele>
        <time>2021-08-14T10:15:52Z</time>
      </trkpt>
      <trkpt lat="45.97704" lon="3.02872">
        <ele>662.49</ele>
        <time>2021-08-14T10:15:53Z</time>
      </trkpt>
      <trkpt lat="45.97696" lon="3.02864">
        <ele>662.49</ele>
        <time>2021-08-14T10:15:55Z</time>
      </trkpt>
      <trkpt lat="45.97691" lon="3.0286">
        <ele>662.49</ele>
        <time>2021-08-14T10:15:56Z</time>
      </trkpt>
      <trkpt lat="45.97646" lon="3.02838">
        <ele>661.04</ele>
        <time>2021-08-14T10:16:04Z</time>
      </trkpt>
      <trkpt lat="45.97581" lon="3.02818">
        <ele>660.08</ele>
        <time>2021-08-14T10:16:15Z</time>
      </trkpt>
      <trkpt lat="45.97576" lon="3.02816">
        <ele>660.56</ele>
        <time>2021-08-14T10:16:16Z</time>
      </trkpt>
      <trkpt lat="45.97542" lon="3.02793">
        <ele>660.56</ele>
        <time>2021-08-14T10:16:23Z</time>
      </trkpt>
      <trkpt lat="45.97513" lon="3.02764">
        <ele>660.56</ele>
        <time>2021-08-14T10:16:30Z</time>
      </trkpt>
      <trkpt lat="45.97474" lon="3.02724">
        <ele>661.52</ele>
        <time>2021-08-14T10:16:40Z</time>
      </trkpt>
      <trkpt lat="45.97449" lon="3.02698">
        <ele>662.01</ele>
        <time>2021-08-14T10:16:47Z</time>
      </trkpt>
      <trkpt lat="45.97427" lon="3.02676">
        <ele>662.01</ele>
        <time>2021-08-14T10:16:53Z</time>
      </trkpt>
      <trkpt lat="45.97403" lon="3.02649">
        <ele>662.01</ele>
        <time>2021-08-14T10:17:00Z</time>
      </trkpt>
      <trkpt lat="45.97399" lon="3.02643">
        <ele>662.01</ele>
        <time>2021-08-14T10:17:01Z</time>
      </trkpt>
      <trkpt lat="45.97397" lon="3.02638">
        <ele>662.01</ele>
        <time>2021-08-14T10:17:02Z</time>
      </trkpt>
      <trkpt lat="45.97394" lon="3.02633">
        <ele>662.01</ele>
        <time>2021-08-14T10:17:03Z</time>
      </trkpt>
      <trkpt lat="45.97392" lon="3.02627">
        <ele>662.01</ele>
        <time>2021-08-14T10:17:04Z</time>
      </trkpt>
      <trkpt lat="45.97365" lon="3.0257">
        <ele>662.01</ele>
        <time>2021-08-14T10:17:14Z</time>
      </trkpt>
      <trkpt lat="45.97338" lon="3.02527">
        <ele>662.01</ele>
        <time>2021-08-14T10:17:22Z</time>
      </trkpt>
      <trkpt lat="45.97311" lon="3.02493">
        <ele>662.01</ele>
        <time>2021-08-14T10:17:30Z</time>
      </trkpt>
      <trkpt lat="45.97303" lon="3.02485">
        <ele>662.01</ele>
        <time>2021-08-14T10:17:35Z</time>
      </trkpt>
      <trkpt lat="45.97297" lon="3.02482">
        <ele>662.01</ele>
        <time>2021-08-14T10:17:42Z</time>
      </trkpt>
      <trkpt lat="45.97279" lon="3.02475">
        <ele>662.49</ele>
        <time>2021-08-14T10:17:48Z</time>
      </trkpt>
      <trkpt lat="45.97247" lon="3.02461">
        <ele>663.45</ele>
        <time>2021-08-14T10:17:57Z</time>
      </trkpt>
      <trkpt lat="45.9722" lon="3.02443">
        <ele>663.93</ele>
        <time>2021-08-14T10:18:05Z</time>
      </trkpt>
      <trkpt lat="45.97205" lon="3.02424">
        <ele>664.89</ele>
        <time>2021-08-14T10:18:12Z</time>
      </trkpt>
      <trkpt lat="45.97198" lon="3.02409">
        <ele>666.33</ele>
        <time>2021-08-14T10:18:18Z</time>
      </trkpt>
      <trkpt lat="45.97191" lon="3.0239">
        <ele>667.29</ele>
        <time>2021-08-14T10:18:26Z</time>
      </trkpt>
      <trkpt lat="45.9718" lon="3.02367">
        <ele>668.73</ele>
        <time>2021-08-14T10:18:37Z</time>
      </trkpt>
      <trkpt lat="45.97168" lon="3.02352">
        <ele>670.66</ele>
        <time>2021-08-14T10:18:46Z</time>
      </trkpt>
      <trkpt lat="45.97151" lon="3.02343">
        <ele>671.14</ele>
        <time>2021-08-14T10:18:56Z</time>
      </trkpt>
      <trkpt lat="45.97133" lon="3.0234">
        <ele>672.1</ele>
        <time>2021-08-14T10:19:04Z</time>
      </trkpt>
      <trkpt lat="45.97122" lon="3.02336">
        <ele>673.06</ele>
        <time>2021-08-14T10:19:10Z</time>
      </trkpt>
      <trkpt lat="45.97103" lon="3.02331">
        <ele>672.58</ele>
        <time>2021-08-14T10:19:18Z</time>
      </trkpt>
      <trkpt lat="45.97075" lon="3.02315">
        <ele>672.58</ele>
        <time>2021-08-14T10:19:27Z</time>
      </trkpt>
      <trkpt lat="45.97054" lon="3.02294">
        <ele>672.58</ele>
        <time>2021-08-14T10:19:34Z</time>
      </trkpt>
      <trkpt lat="45.97032" lon="3.02263">
        <ele>672.58</ele>
        <time>2021-08-14T10:19:42Z</time>
      </trkpt>
      <trkpt lat="45.97017" lon="3.02227">
        <ele>672.58</ele>
        <time>2021-08-14T10:19:50Z</time>
      </trkpt>
      <trkpt lat="45.97007" lon="3.02201">
        <ele>672.58</ele>
        <time>2021-08-14T10:19:57Z</time>
      </trkpt>
      <trkpt lat="45.96996" lon="3.02176">
        <ele>674.02</ele>
        <time>2021-08-14T10:20:05Z</time>
      </trkpt>
      <trkpt lat="45.96995" lon="3.02174">
        <ele>674.02</ele>
        <time>2021-08-14T10:20:06Z</time>
      </trkpt>
      <trkpt lat="45.96973" lon="3.02148">
        <ele>675.94</ele>
        <time>2021-08-14T10:20:17Z</time>
      </trkpt>
      <trkpt lat="45.9697" lon="3.02145">
        <ele>675.94</ele>
        <time>2021-08-14T10:20:19Z</time>
      </trkpt>
      <trkpt lat="45.96968" lon="3.02144">
        <ele>675.94</ele>
        <time>2021-08-14T10:20:20Z</time>
      </trkpt>
      <trkpt lat="45.96949" lon="3.02136">
        <ele>676.42</ele>
        <time>2021-08-14T10:20:27Z</time>
      </trkpt>
      <trkpt lat="45.96922" lon="3.02133">
        <ele>676.42</ele>
        <time>2021-08-14T10:20:34Z</time>
      </trkpt>
      <trkpt lat="45.96899" lon="3.02123">
        <ele>674.5</ele>
        <time>2021-08-14T10:20:39Z</time>
      </trkpt>
      <trkpt lat="45.96852" lon="3.0209">
        <ele>673.54</ele>
        <time>2021-08-14T10:20:48Z</time>
      </trkpt>
      <trkpt lat="45.96805" lon="3.02058">
        <ele>672.1</ele>
        <time>2021-08-14T10:20:56Z</time>
      </trkpt>
      <trkpt lat="45.96761" lon="3.02025">
        <ele>672.1</ele>
        <time>2021-08-14T10:21:04Z</time>
      </trkpt>
      <trkpt lat="45.96745" lon="3.02015">
        <ele>672.1</ele>
        <time>2021-08-14T10:21:07Z</time>
      </trkpt>
      <trkpt lat="45.96718" lon="3.02005">
        <ele>674.02</ele>
        <time>2021-08-14T10:21:13Z</time>
      </trkpt>
      <trkpt lat="45.96682" lon="3.01996">
        <ele>675.94</ele>
        <time>2021-08-14T10:21:23Z</time>
      </trkpt>
      <trkpt lat="45.96658" lon="3.01991">
        <ele>676.42</ele>
        <time>2021-08-14T10:21:30Z</time>
      </trkpt>
      <trkpt lat="45.96619" lon="3.01981">
        <ele>676.91</ele>
        <time>2021-08-14T10:21:40Z</time>
      </trkpt>
      <trkpt lat="45.96586" lon="3.01965">
        <ele>676.91</ele>
        <time>2021-08-14T10:21:48Z</time>
      </trkpt>
      <trkpt lat="45.96556" lon="3.01945">
        <ele>676.91</ele>
        <time>2021-08-14T10:21:55Z</time>
      </trkpt>
      <trkpt lat="45.96524" lon="3.01933">
        <ele>678.35</ele>
        <time>2021-08-14T10:22:04Z</time>
      </trkpt>
      <trkpt lat="45.965" lon="3.01945">
        <ele>678.83</ele>
        <time>2021-08-14T10:22:12Z</time>
      </trkpt>
      <trkpt lat="45.96485" lon="3.01976">
        <ele>678.83</ele>
        <time>2021-08-14T10:22:19Z</time>
      </trkpt>
      <trkpt lat="45.96469" lon="3.0201">
        <ele>678.83</ele>
        <time>2021-08-14T10:22:27Z</time>
      </trkpt>
      <trkpt lat="45.96449" lon="3.02039">
        <ele>678.83</ele>
        <time>2021-08-14T10:22:35Z</time>
      </trkpt>
      <trkpt lat="45.96445" lon="3.02042">
        <ele>678.83</ele>
        <time>2021-08-14T10:22:36Z</time>
      </trkpt>
      <trkpt lat="45.96441" lon="3.02044">
        <ele>677.39</ele>
        <time>2021-08-14T10:22:37Z</time>
      </trkpt>
      <trkpt lat="45.96436" lon="3.02046">
        <ele>676.91</ele>
        <time>2021-08-14T10:22:38Z</time>
      </trkpt>
      <trkpt lat="45.96418" lon="3.02048">
        <ele>675.46</ele>
        <time>2021-08-14T10:22:41Z</time>
      </trkpt>
      <trkpt lat="45.96373" lon="3.02047">
        <ele>672.1</ele>
        <time>2021-08-14T10:22:47Z</time>
      </trkpt>
      <trkpt lat="45.96357" lon="3.02046">
        <ele>671.14</ele>
        <time>2021-08-14T10:22:49Z</time>
      </trkpt>
      <trkpt lat="45.96282" lon="3.02042">
        <ele>670.66</ele>
        <time>2021-08-14T10:22:58Z</time>
      </trkpt>
      <trkpt lat="45.96237" lon="3.02043">
        <ele>672.58</ele>
        <time>2021-08-14T10:23:05Z</time>
      </trkpt>
      <trkpt lat="45.96195" lon="3.02056">
        <ele>672.58</ele>
        <time>2021-08-14T10:23:13Z</time>
      </trkpt>
      <trkpt lat="45.96177" lon="3.02065">
        <ele>673.06</ele>
        <time>2021-08-14T10:23:17Z</time>
      </trkpt>
      <trkpt lat="45.96137" lon="3.02092">
        <ele>673.54</ele>
        <time>2021-08-14T10:23:27Z</time>
      </trkpt>
      <trkpt lat="45.96133" lon="3.02095">
        <ele>673.54</ele>
        <time>2021-08-14T10:23:28Z</time>
      </trkpt>
      <trkpt lat="45.9613" lon="3.02098">
        <ele>673.54</ele>
        <time>2021-08-14T10:23:29Z</time>
      </trkpt>
      <trkpt lat="45.96111" lon="3.02113">
        <ele>674.02</ele>
        <time>2021-08-14T10:23:35Z</time>
      </trkpt>
      <trkpt lat="45.96086" lon="3.02132">
        <ele>674.02</ele>
        <time>2021-08-14T10:23:42Z</time>
      </trkpt>
      <trkpt lat="45.96062" lon="3.02151">
        <ele>674.98</ele>
        <time>2021-08-14T10:23:50Z</time>
      </trkpt>
      <trkpt lat="45.96041" lon="3.02171">
        <ele>676.91</ele>
        <time>2021-08-14T10:24:00Z</time>
      </trkpt>
      <trkpt lat="45.96024" lon="3.02191">
        <ele>678.35</ele>
        <time>2021-08-14T10:24:09Z</time>
      </trkpt>
      <trkpt lat="45.96011" lon="3.0221">
        <ele>678.83</ele>
        <time>2021-08-14T10:24:17Z</time>
      </trkpt>
      <trkpt lat="45.95998" lon="3.02231">
        <ele>679.79</ele>
        <time>2021-08-14T10:24:25Z</time>
      </trkpt>
      <trkpt lat="45.95983" lon="3.02262">
        <ele>680.27</ele>
        <time>2021-08-14T10:24:34Z</time>
      </trkpt>
      <trkpt lat="45.95968" lon="3.02292">
        <ele>681.23</ele>
        <time>2021-08-14T10:24:42Z</time>
      </trkpt>
      <trkpt lat="45.95946" lon="3.02326">
        <ele>681.23</ele>
        <time>2021-08-14T10:24:51Z</time>
      </trkpt>
      <trkpt lat="45.95923" lon="3.0235">
        <ele>681.71</ele>
        <time>2021-08-14T10:24:59Z</time>
      </trkpt>
      <trkpt lat="45.95915" lon="3.02357">
        <ele>681.71</ele>
        <time>2021-08-14T10:25:01Z</time>
      </trkpt>
      <trkpt lat="45.95907" lon="3.02362">
        <ele>681.71</ele>
        <time>2021-08-14T10:25:03Z</time>
      </trkpt>
      <trkpt lat="45.95896" lon="3.02368">
        <ele>681.71</ele>
        <time>2021-08-14T10:25:06Z</time>
      </trkpt>
      <trkpt lat="45.9589" lon="3.02369">
        <ele>681.71</ele>
        <time>2021-08-14T10:25:07Z</time>
      </trkpt>
      <trkpt lat="45.9587" lon="3.02378">
        <ele>681.71</ele>
        <time>2021-08-14T10:25:12Z</time>
      </trkpt>
      <trkpt lat="45.95834" lon="3.02388">
        <ele>680.27</ele>
        <time>2021-08-14T10:25:19Z</time>
      </trkpt>
      <trkpt lat="45.95814" lon="3.02392">
        <ele>680.27</ele>
        <time>2021-08-14T10:25:23Z</time>
      </trkpt>
      <trkpt lat="45.95781" lon="3.02399">
        <ele>680.27</ele>
        <time>2021-08-14T10:25:29Z</time>
      </trkpt>
      <trkpt lat="45.95767" lon="3.02397">
        <ele>680.27</ele>
        <time>2021-08-14T10:25:32Z</time>
      </trkpt>
      <trkpt lat="45.95762" lon="3.02394">
        <ele>680.27</ele>
        <time>2021-08-14T10:25:33Z</time>
      </trkpt>
      <trkpt lat="45.95745" lon="3.02378">
        <ele>680.27</ele>
        <time>2021-08-14T10:25:39Z</time>
      </trkpt>
      <trkpt lat="45.95734" lon="3.02361">
        <ele>681.71</ele>
        <time>2021-08-14T10:25:43Z</time>
      </trkpt>
      <trkpt lat="45.95717" lon="3.02326">
        <ele>682.67</ele>
        <time>2021-08-14T10:25:52Z</time>
      </trkpt>
      <trkpt lat="45.95701" lon="3.02296">
        <ele>683.63</ele>
        <time>2021-08-14T10:26:00Z</time>
      </trkpt>
      <trkpt lat="45.95681" lon="3.0226">
        <ele>684.6</ele>
        <time>2021-08-14T10:26:09Z</time>
      </trkpt>
      <trkpt lat="45.95666" lon="3.02238">
        <ele>685.08</ele>
        <time>2021-08-14T10:26:15Z</time>
      </trkpt>
      <trkpt lat="45.95658" lon="3.0222">
        <ele>685.08</ele>
        <time>2021-08-14T10:26:19Z</time>
      </trkpt>
      <trkpt lat="45.95655" lon="3.02215">
        <ele>685.08</ele>
        <time>2021-08-14T10:26:20Z</time>
      </trkpt>
      <trkpt lat="45.95643" lon="3.02194">
        <ele>685.08</ele>
        <time>2021-08-14T10:26:24Z</time>
      </trkpt>
      <trkpt lat="45.95618" lon="3.02147">
        <ele>685.08</ele>
        <time>2021-08-14T10:26:33Z</time>
      </trkpt>
      <trkpt lat="45.95589" lon="3.02094">
        <ele>685.08</ele>
        <time>2021-08-14T10:26:42Z</time>
      </trkpt>
      <trkpt lat="45.9558" lon="3.02075">
        <ele>684.12</ele>
        <time>2021-08-14T10:26:45Z</time>
      </trkpt>
      <trkpt lat="45.95564" lon="3.02022">
        <ele>682.19</ele>
        <time>2021-08-14T10:26:52Z</time>
      </trkpt>
      <trkpt lat="45.95553" lon="3.01985">
        <ele>680.75</ele>
        <time>2021-08-14T10:26:56Z</time>
      </trkpt>
      <trkpt lat="45.95549" lon="3.01976">
        <ele>680.27</ele>
        <time>2021-08-14T10:26:57Z</time>
      </trkpt>
      <trkpt lat="45.95544" lon="3.01967">
        <ele>679.31</ele>
        <time>2021-08-14T10:26:58Z</time>
      </trkpt>
      <trkpt lat="45.95538" lon="3.01959">
        <ele>678.83</ele>
        <time>2021-08-14T10:26:59Z</time>
      </trkpt>
      <trkpt lat="45.95531" lon="3.01951">
        <ele>678.35</ele>
        <time>2021-08-14T10:27:00Z</time>
      </trkpt>
      <trkpt lat="45.95524" lon="3.01945">
        <ele>677.39</ele>
        <time>2021-08-14T10:27:01Z</time>
      </trkpt>
      <trkpt lat="45.95515" lon="3.01939">
        <ele>676.91</ele>
        <time>2021-08-14T10:27:02Z</time>
      </trkpt>
      <trkpt lat="45.95507" lon="3.01934">
        <ele>675.94</ele>
        <time>2021-08-14T10:27:03Z</time>
      </trkpt>
      <trkpt lat="45.95498" lon="3.01928">
        <ele>675.94</ele>
        <time>2021-08-14T10:27:04Z</time>
      </trkpt>
      <trkpt lat="45.95471" lon="3.01911">
        <ele>674.02</ele>
        <time>2021-08-14T10:27:07Z</time>
      </trkpt>
      <trkpt lat="45.95446" lon="3.01886">
        <ele>672.58</ele>
        <time>2021-08-14T10:27:10Z</time>
      </trkpt>
      <trkpt lat="45.95405" lon="3.01827">
        <ele>673.06</ele>
        <time>2021-08-14T10:27:16Z</time>
      </trkpt>
      <trkpt lat="45.95383" lon="3.01788">
        <ele>675.46</ele>
        <time>2021-08-14T10:27:21Z</time>
      </trkpt>
      <trkpt lat="45.9537" lon="3.0177">
        <ele>677.39</ele>
        <time>2021-08-14T10:27:26Z</time>
      </trkpt>
      <trkpt lat="45.95358" lon="3.01754">
        <ele>679.31</ele>
        <time>2021-08-14T10:27:33Z</time>
      </trkpt>
      <trkpt lat="45.95346" lon="3.0174">
        <ele>681.23</ele>
        <time>2021-08-14T10:27:41Z</time>
      </trkpt>
      <trkpt lat="45.95332" lon="3.01728">
        <ele>682.67</ele>
        <time>2021-08-14T10:27:49Z</time>
      </trkpt>
      <trkpt lat="45.95319" lon="3.0172">
        <ele>683.63</ele>
        <time>2021-08-14T10:27:56Z</time>
      </trkpt>
      <trkpt lat="45.95307" lon="3.01713">
        <ele>684.6</ele>
        <time>2021-08-14T10:28:03Z</time>
      </trkpt>
      <trkpt lat="45.95292" lon="3.01706">
        <ele>686.04</ele>
        <time>2021-08-14T10:28:12Z</time>
      </trkpt>
      <trkpt lat="45.9529" lon="3.01706">
        <ele>686.04</ele>
        <time>2021-08-14T10:28:13Z</time>
      </trkpt>
      <trkpt lat="45.95288" lon="3.01705">
        <ele>686.04</ele>
        <time>2021-08-14T10:28:14Z</time>
      </trkpt>
      <trkpt lat="45.95287" lon="3.01705">
        <ele>686.04</ele>
        <time>2021-08-14T10:28:15Z</time>
      </trkpt>
      <trkpt lat="45.95285" lon="3.01703">
        <ele>686.52</ele>
        <time>2021-08-14T10:28:16Z</time>
      </trkpt>
      <trkpt lat="45.95284" lon="3.01703">
        <ele>686.52</ele>
        <time>2021-08-14T10:28:17Z</time>
      </trkpt>
      <trkpt lat="45.95282" lon="3.01702">
        <ele>686.52</ele>
        <time>2021-08-14T10:28:18Z</time>
      </trkpt>
      <trkpt lat="45.95267" lon="3.01693">
        <ele>687.48</ele>
        <time>2021-08-14T10:28:27Z</time>
      </trkpt>
      <trkpt lat="45.95252" lon="3.01688">
        <ele>688.44</ele>
        <time>2021-08-14T10:28:35Z</time>
      </trkpt>
      <trkpt lat="45.95236" lon="3.01685">
        <ele>689.4</ele>
        <time>2021-08-14T10:28:44Z</time>
      </trkpt>
      <trkpt lat="45.95224" lon="3.01684">
        <ele>689.88</ele>
        <time>2021-08-14T10:28:51Z</time>
      </trkpt>
      <trkpt lat="45.95209" lon="3.01684">
        <ele>690.84</ele>
        <time>2021-08-14T10:28:59Z</time>
      </trkpt>
      <trkpt lat="45.95192" lon="3.01687">
        <ele>691.81</ele>
        <time>2021-08-14T10:29:08Z</time>
      </trkpt>
      <trkpt lat="45.95179" lon="3.01687">
        <ele>692.29</ele>
        <time>2021-08-14T10:29:15Z</time>
      </trkpt>
      <trkpt lat="45.95163" lon="3.01689">
        <ele>693.25</ele>
        <time>2021-08-14T10:29:24Z</time>
      </trkpt>
      <trkpt lat="45.95144" lon="3.01691">
        <ele>694.21</ele>
        <time>2021-08-14T10:29:35Z</time>
      </trkpt>
      <trkpt lat="45.95131" lon="3.01692">
        <ele>695.17</ele>
        <time>2021-08-14T10:29:43Z</time>
      </trkpt>
      <trkpt lat="45.95117" lon="3.01693">
        <ele>696.13</ele>
        <time>2021-08-14T10:29:50Z</time>
      </trkpt>
      <trkpt lat="45.95097" lon="3.01689">
        <ele>697.09</ele>
        <time>2021-08-14T10:30:00Z</time>
      </trkpt>
      <trkpt lat="45.95082" lon="3.01683">
        <ele>698.05</ele>
        <time>2021-08-14T10:30:08Z</time>
      </trkpt>
      <trkpt lat="45.95065" lon="3.01675">
        <ele>698.53</ele>
        <time>2021-08-14T10:30:17Z</time>
      </trkpt>
      <trkpt lat="45.95047" lon="3.01665">
        <ele>699.02</ele>
        <time>2021-08-14T10:30:25Z</time>
      </trkpt>
      <trkpt lat="45.95028" lon="3.01653">
        <ele>699.5</ele>
        <time>2021-08-14T10:30:33Z</time>
      </trkpt>
      <trkpt lat="45.95009" lon="3.01643">
        <ele>700.46</ele>
        <time>2021-08-14T10:30:41Z</time>
      </trkpt>
      <trkpt lat="45.94991" lon="3.01633">
        <ele>701.42</ele>
        <time>2021-08-14T10:30:48Z</time>
      </trkpt>
      <trkpt lat="45.94972" lon="3.01622">
        <ele>702.38</ele>
        <time>2021-08-14T10:30:56Z</time>
      </trkpt>
      <trkpt lat="45.94952" lon="3.01611">
        <ele>703.34</ele>
        <time>2021-08-14T10:31:05Z</time>
      </trkpt>
      <trkpt lat="45.94937" lon="3.01604">
        <ele>704.3</ele>
        <time>2021-08-14T10:31:12Z</time>
      </trkpt>
      <trkpt lat="45.94929" lon="3.016">
        <ele>704.78</ele>
        <time>2021-08-14T10:31:16Z</time>
      </trkpt>
      <trkpt lat="45.94917" lon="3.01592">
        <ele>705.75</ele>
        <time>2021-08-14T10:31:22Z</time>
      </trkpt>
      <trkpt lat="45.94893" lon="3.0158">
        <ele>706.71</ele>
        <time>2021-08-14T10:31:34Z</time>
      </trkpt>
      <trkpt lat="45.94873" lon="3.01573">
        <ele>707.67</ele>
        <time>2021-08-14T10:31:42Z</time>
      </trkpt>
      <trkpt lat="45.94845" lon="3.01567">
        <ele>707.67</ele>
        <time>2021-08-14T10:31:51Z</time>
      </trkpt>
      <trkpt lat="45.94808" lon="3.01561">
        <ele>708.63</ele>
        <time>2021-08-14T10:32:01Z</time>
      </trkpt>
      <trkpt lat="45.9477" lon="3.01557">
        <ele>708.63</ele>
        <time>2021-08-14T10:32:11Z</time>
      </trkpt>
      <trkpt lat="45.94734" lon="3.01547">
        <ele>708.63</ele>
        <time>2021-08-14T10:32:20Z</time>
      </trkpt>
      <trkpt lat="45.94725" lon="3.01543">
        <ele>708.63</ele>
        <time>2021-08-14T10:32:22Z</time>
      </trkpt>
      <trkpt lat="45.94722" lon="3.0154">
        <ele>708.63</ele>
        <time>2021-08-14T10:32:23Z</time>
      </trkpt>
      <trkpt lat="45.94718" lon="3.01536">
        <ele>708.63</ele>
        <time>2021-08-14T10:32:24Z</time>
      </trkpt>
      <trkpt lat="45.94714" lon="3.01533">
        <ele>708.63</ele>
        <time>2021-08-14T10:32:25Z</time>
      </trkpt>
      <trkpt lat="45.94709" lon="3.01529">
        <ele>708.63</ele>
        <time>2021-08-14T10:32:26Z</time>
      </trkpt>
      <trkpt lat="45.94706" lon="3.01525">
        <ele>708.63</ele>
        <time>2021-08-14T10:32:27Z</time>
      </trkpt>
      <trkpt lat="45.94702" lon="3.0152">
        <ele>708.63</ele>
        <time>2021-08-14T10:32:28Z</time>
      </trkpt>
      <trkpt lat="45.94699" lon="3.01515">
        <ele>708.63</ele>
        <time>2021-08-14T10:32:29Z</time>
      </trkpt>
      <trkpt lat="45.94671" lon="3.01472">
        <ele>708.63</ele>
        <time>2021-08-14T10:32:38Z</time>
      </trkpt>
      <trkpt lat="45.94668" lon="3.01468">
        <ele>708.63</ele>
        <time>2021-08-14T10:32:39Z</time>
      </trkpt>
      <trkpt lat="45.94666" lon="3.01463">
        <ele>708.63</ele>
        <time>2021-08-14T10:32:40Z</time>
      </trkpt>
      <trkpt lat="45.94663" lon="3.01459">
        <ele>708.63</ele>
        <time>2021-08-14T10:32:41Z</time>
      </trkpt>
      <trkpt lat="45.9466" lon="3.01455">
        <ele>708.63</ele>
        <time>2021-08-14T10:32:42Z</time>
      </trkpt>
      <trkpt lat="45.94658" lon="3.0145">
        <ele>708.63</ele>
        <time>2021-08-14T10:32:43Z</time>
      </trkpt>
      <trkpt lat="45.94628" lon="3.01404">
        <ele>707.19</ele>
        <time>2021-08-14T10:32:53Z</time>
      </trkpt>
      <trkpt lat="45.94625" lon="3.01399">
        <ele>707.19</ele>
        <time>2021-08-14T10:32:54Z</time>
      </trkpt>
      <trkpt lat="45.94589" lon="3.01341">
        <ele>706.23</ele>
        <time>2021-08-14T10:33:03Z</time>
      </trkpt>
      <trkpt lat="45.9454" lon="3.01264">
        <ele>705.26</ele>
        <time>2021-08-14T10:33:14Z</time>
      </trkpt>
      <trkpt lat="45.94495" lon="3.01198">
        <ele>704.78</ele>
        <time>2021-08-14T10:33:24Z</time>
      </trkpt>
      <trkpt lat="45.94451" lon="3.01154">
        <ele>702.38</ele>
        <time>2021-08-14T10:33:32Z</time>
      </trkpt>
      <trkpt lat="45.94401" lon="3.01107">
        <ele>699.5</ele>
        <time>2021-08-14T10:33:40Z</time>
      </trkpt>
      <trkpt lat="45.9435" lon="3.01057">
        <ele>696.13</ele>
        <time>2021-08-14T10:33:47Z</time>
      </trkpt>
      <trkpt lat="45.94303" lon="3.0101">
        <ele>693.25</ele>
        <time>2021-08-14T10:33:53Z</time>
      </trkpt>
      <trkpt lat="45.94296" lon="3.01">
        <ele>692.29</ele>
        <time>2021-08-14T10:33:54Z</time>
      </trkpt>
      <trkpt lat="45.94289" lon="3.00989">
        <ele>692.29</ele>
        <time>2021-08-14T10:33:55Z</time>
      </trkpt>
      <trkpt lat="45.9425" lon="3.00925">
        <ele>689.4</ele>
        <time>2021-08-14T10:34:01Z</time>
      </trkpt>
      <trkpt lat="45.94216" lon="3.00874">
        <ele>687</ele>
        <time>2021-08-14T10:34:06Z</time>
      </trkpt>
      <trkpt lat="45.94209" lon="3.00865">
        <ele>686.04</ele>
        <time>2021-08-14T10:34:07Z</time>
      </trkpt>
      <trkpt lat="45.94199" lon="3.00857">
        <ele>686.04</ele>
        <time>2021-08-14T10:34:08Z</time>
      </trkpt>
      <trkpt lat="45.94191" lon="3.00852">
        <ele>685.56</ele>
        <time>2021-08-14T10:34:09Z</time>
      </trkpt>
      <trkpt lat="45.94181" lon="3.00848">
        <ele>684.6</ele>
        <time>2021-08-14T10:34:10Z</time>
      </trkpt>
      <trkpt lat="45.94172" lon="3.00846">
        <ele>684.12</ele>
        <time>2021-08-14T10:34:11Z</time>
      </trkpt>
      <trkpt lat="45.94162" lon="3.00845">
        <ele>684.12</ele>
        <time>2021-08-14T10:34:12Z</time>
      </trkpt>
      <trkpt lat="45.94152" lon="3.00846">
        <ele>683.63</ele>
        <time>2021-08-14T10:34:13Z</time>
      </trkpt>
      <trkpt lat="45.94108" lon="3.00849">
        <ele>682.67</ele>
        <time>2021-08-14T10:34:18Z</time>
      </trkpt>
      <trkpt lat="45.94091" lon="3.00848">
        <ele>682.19</ele>
        <time>2021-08-14T10:34:23Z</time>
      </trkpt>
      <trkpt lat="45.94083" lon="3.00852">
        <ele>681.71</ele>
        <time>2021-08-14T10:34:28Z</time>
      </trkpt>
      <trkpt lat="45.9409" lon="3.00852">
        <ele>681.23</ele>
        <time>2021-08-14T10:34:32Z</time>
      </trkpt>
      <trkpt lat="45.94108" lon="3.00846">
        <ele>682.67</ele>
        <time>2021-08-14T10:34:39Z</time>
      </trkpt>
      <trkpt lat="45.9412" lon="3.00824">
        <ele>680.27</ele>
        <time>2021-08-14T10:34:44Z</time>
      </trkpt>
      <trkpt lat="45.94141" lon="3.00784">
        <ele>678.35</ele>
        <time>2021-08-14T10:34:50Z</time>
      </trkpt>
      <trkpt lat="45.94146" lon="3.00779">
        <ele>677.87</ele>
        <time>2021-08-14T10:34:51Z</time>
      </trkpt>
      <trkpt lat="45.94176" lon="3.00754">
        <ele>676.91</ele>
        <time>2021-08-14T10:34:57Z</time>
      </trkpt>
      <trkpt lat="45.9418" lon="3.00749">
        <ele>676.91</ele>
        <time>2021-08-14T10:34:58Z</time>
      </trkpt>
      <trkpt lat="45.94183" lon="3.00744">
        <ele>676.91</ele>
        <time>2021-08-14T10:34:59Z</time>
      </trkpt>
      <trkpt lat="45.94186" lon="3.00737">
        <ele>676.91</ele>
        <time>2021-08-14T10:35:00Z</time>
      </trkpt>
      <trkpt lat="45.94188" lon="3.00731">
        <ele>676.91</ele>
        <time>2021-08-14T10:35:01Z</time>
      </trkpt>
      <trkpt lat="45.9419" lon="3.00725">
        <ele>676.91</ele>
        <time>2021-08-14T10:35:02Z</time>
      </trkpt>
      <trkpt lat="45.94192" lon="3.00718">
        <ele>676.91</ele>
        <time>2021-08-14T10:35:03Z</time>
      </trkpt>
      <trkpt lat="45.94193" lon="3.0071">
        <ele>676.42</ele>
        <time>2021-08-14T10:35:04Z</time>
      </trkpt>
      <trkpt lat="45.94198" lon="3.00653">
        <ele>675.94</ele>
        <time>2021-08-14T10:35:12Z</time>
      </trkpt>
      <trkpt lat="45.94199" lon="3.00641">
        <ele>675.94</ele>
        <time>2021-08-14T10:35:16Z</time>
      </trkpt>
      <trkpt lat="45.942" lon="3.00639">
        <ele>675.94</ele>
        <time>2021-08-14T10:35:17Z</time>
      </trkpt>
      <trkpt lat="45.94204" lon="3.00632">
        <ele>675.94</ele>
        <time>2021-08-14T10:35:21Z</time>
      </trkpt>
      <trkpt lat="45.94201" lon="3.00634">
        <ele>675.94</ele>
        <time>2021-08-14T10:35:24Z</time>
      </trkpt>
      <trkpt lat="45.942" lon="3.00636">
        <ele>675.94</ele>
        <time>2021-08-14T10:35:25Z</time>
      </trkpt>
      <trkpt lat="45.94199" lon="3.00638">
        <ele>675.94</ele>
        <time>2021-08-14T10:35:26Z</time>
      </trkpt>
      <trkpt lat="45.94197" lon="3.00639">
        <ele>675.94</ele>
        <time>2021-08-14T10:35:27Z</time>
      </trkpt>
      <trkpt lat="45.94195" lon="3.0064">
        <ele>675.94</ele>
        <time>2021-08-14T10:35:28Z</time>
      </trkpt>
      <trkpt lat="45.94193" lon="3.00638">
        <ele>675.94</ele>
        <time>2021-08-14T10:35:29Z</time>
      </trkpt>
      <trkpt lat="45.94192" lon="3.00636">
        <ele>675.94</ele>
        <time>2021-08-14T10:35:30Z</time>
      </trkpt>
      <trkpt lat="45.9419" lon="3.00633">
        <ele>675.94</ele>
        <time>2021-08-14T10:35:31Z</time>
      </trkpt>
      <trkpt lat="45.94189" lon="3.00631">
        <ele>675.94</ele>
        <time>2021-08-14T10:35:32Z</time>
      </trkpt>
      <trkpt lat="45.94188" lon="3.00629">
        <ele>675.94</ele>
        <time>2021-08-14T10:35:33Z</time>
      </trkpt>
      <trkpt lat="45.94187" lon="3.00627">
        <ele>675.94</ele>
        <time>2021-08-14T10:35:34Z</time>
      </trkpt>
      <trkpt lat="45.94179" lon="3.00609">
        <ele>677.87</ele>
        <time>2021-08-14T10:35:42Z</time>
      </trkpt>
      <trkpt lat="45.94172" lon="3.0059">
        <ele>678.83</ele>
        <time>2021-08-14T10:35:50Z</time>
      </trkpt>
      <trkpt lat="45.94164" lon="3.00571">
        <ele>679.79</ele>
        <time>2021-08-14T10:35:58Z</time>
      </trkpt>
      <trkpt lat="45.94156" lon="3.00562">
        <ele>681.71</ele>
        <time>2021-08-14T10:36:05Z</time>
      </trkpt>
      <trkpt lat="45.94152" lon="3.0056">
        <ele>682.19</ele>
        <time>2021-08-14T10:36:08Z</time>
      </trkpt>
      <trkpt lat="45.9415" lon="3.0056">
        <ele>682.19</ele>
        <time>2021-08-14T10:36:09Z</time>
      </trkpt>
      <trkpt lat="45.94141" lon="3.00561">
        <ele>683.15</ele>
        <time>2021-08-14T10:36:17Z</time>
      </trkpt>
      <trkpt lat="45.9414" lon="3.0056">
        <ele>683.15</ele>
        <time>2021-08-14T10:36:18Z</time>
      </trkpt>
      <trkpt lat="45.94138" lon="3.0056">
        <ele>684.12</ele>
        <time>2021-08-14T10:36:19Z</time>
      </trkpt>
      <trkpt lat="45.94137" lon="3.0056">
        <ele>684.12</ele>
        <time>2021-08-14T10:36:20Z</time>
      </trkpt>
      <trkpt lat="45.94135" lon="3.0056">
        <ele>684.12</ele>
        <time>2021-08-14T10:36:21Z</time>
      </trkpt>
      <trkpt lat="45.94134" lon="3.00559">
        <ele>684.12</ele>
        <time>2021-08-14T10:36:22Z</time>
      </trkpt>
      <trkpt lat="45.94132" lon="3.00559">
        <ele>684.6</ele>
        <time>2021-08-14T10:36:23Z</time>
      </trkpt>
      <trkpt lat="45.94117" lon="3.00557">
        <ele>685.08</ele>
        <time>2021-08-14T10:36:32Z</time>
      </trkpt>
      <trkpt lat="45.94101" lon="3.00552">
        <ele>685.56</ele>
        <time>2021-08-14T10:36:39Z</time>
      </trkpt>
      <trkpt lat="45.94077" lon="3.00535">
        <ele>686.52</ele>
        <time>2021-08-14T10:36:49Z</time>
      </trkpt>
      <trkpt lat="45.9406" lon="3.0051">
        <ele>687</ele>
        <time>2021-08-14T10:36:58Z</time>
      </trkpt>
      <trkpt lat="45.94041" lon="3.00485">
        <ele>687.48</ele>
        <time>2021-08-14T10:37:08Z</time>
      </trkpt>
      <trkpt lat="45.94025" lon="3.00464">
        <ele>687.96</ele>
        <time>2021-08-14T10:37:16Z</time>
      </trkpt>
      <trkpt lat="45.94004" lon="3.00439">
        <ele>688.92</ele>
        <time>2021-08-14T10:37:26Z</time>
      </trkpt>
      <trkpt lat="45.93989" lon="3.00421">
        <ele>690.36</ele>
        <time>2021-08-14T10:37:35Z</time>
      </trkpt>
      <trkpt lat="45.93986" lon="3.00417">
        <ele>690.36</ele>
        <time>2021-08-14T10:37:40Z</time>
      </trkpt>
      <trkpt lat="45.93984" lon="3.00412">
        <ele>690.36</ele>
        <time>2021-08-14T10:37:43Z</time>
      </trkpt>
      <trkpt lat="45.93975" lon="3.00401">
        <ele>690.84</ele>
        <time>2021-08-14T10:37:49Z</time>
      </trkpt>
      <trkpt lat="45.93968" lon="3.00391">
        <ele>692.77</ele>
        <time>2021-08-14T10:37:57Z</time>
      </trkpt>
      <trkpt lat="45.93966" lon="3.00388">
        <ele>692.77</ele>
        <time>2021-08-14T10:37:59Z</time>
      </trkpt>
      <trkpt lat="45.93958" lon="3.00372">
        <ele>693.25</ele>
        <time>2021-08-14T10:38:08Z</time>
      </trkpt>
      <trkpt lat="45.93947" lon="3.00354">
        <ele>693.73</ele>
        <time>2021-08-14T10:38:16Z</time>
      </trkpt>
      <trkpt lat="45.93937" lon="3.00337">
        <ele>694.69</ele>
        <time>2021-08-14T10:38:24Z</time>
      </trkpt>
      <trkpt lat="45.93928" lon="3.00318">
        <ele>695.17</ele>
        <time>2021-08-14T10:38:33Z</time>
      </trkpt>
      <trkpt lat="45.9392" lon="3.00309">
        <ele>695.65</ele>
        <time>2021-08-14T10:38:41Z</time>
      </trkpt>
      <trkpt lat="45.93916" lon="3.00304">
        <ele>696.13</ele>
        <time>2021-08-14T10:38:49Z</time>
      </trkpt>
      <trkpt lat="45.93914" lon="3.00302">
        <ele>696.13</ele>
        <time>2021-08-14T10:39:04Z</time>
      </trkpt>
      <trkpt lat="45.93915" lon="3.00303">
        <ele>696.13</ele>
        <time>2021-08-14T10:39:18Z</time>
      </trkpt>
      <trkpt lat="45.93916" lon="3.00302">
        <ele>696.13</ele>
        <time>2021-08-14T10:39:32Z</time>
      </trkpt>
      <trkpt lat="45.93917" lon="3.00303">
        <ele>696.13</ele>
        <time>2021-08-14T10:39:42Z</time>
      </trkpt>
      <trkpt lat="45.93917" lon="3.00304">
        <ele>696.13</ele>
        <time>2021-08-14T10:40:03Z</time>
      </trkpt>
      <trkpt lat="45.93916" lon="3.00302">
        <ele>696.13</ele>
        <time>2021-08-14T10:40:14Z</time>
      </trkpt>
      <trkpt lat="45.93917" lon="3.00302">
        <ele>696.13</ele>
        <time>2021-08-14T10:40:35Z</time>
      </trkpt>
      <trkpt lat="45.93917" lon="3.00305">
        <ele>696.13</ele>
        <time>2021-08-14T10:40:42Z</time>
      </trkpt>
      <trkpt lat="45.93917" lon="3.00307">
        <ele>696.13</ele>
        <time>2021-08-14T10:41:03Z</time>
      </trkpt>
      <trkpt lat="45.93917" lon="3.00309">
        <ele>696.13</ele>
        <time>2021-08-14T10:41:14Z</time>
      </trkpt>
      <trkpt lat="45.93917" lon="3.00309">
        <ele>696.13</ele>
        <time>2021-08-14T10:41:24Z</time>
      </trkpt>
      <trkpt lat="45.93916" lon="3.00307">
        <ele>696.13</ele>
        <time>2021-08-14T10:41:55Z</time>
      </trkpt>
      <trkpt lat="45.93919" lon="3.0031">
        <ele>696.61</ele>
        <time>2021-08-14T10:42:27Z</time>
      </trkpt>
      <trkpt lat="45.93919" lon="3.0031">
        <ele>696.61</ele>
        <time>2021-08-14T10:42:48Z</time>
      </trkpt>
      <trkpt lat="45.93916" lon="3.00313">
        <ele>696.61</ele>
        <time>2021-08-14T10:43:22Z</time>
      </trkpt>
      <trkpt lat="45.93919" lon="3.00311">
        <ele>696.61</ele>
        <time>2021-08-14T10:43:44Z</time>
      </trkpt>
      <trkpt lat="45.9392" lon="3.0031">
        <ele>696.61</ele>
        <time>2021-08-14T10:44:04Z</time>
      </trkpt>
      <trkpt lat="45.93921" lon="3.00311">
        <ele>696.61</ele>
        <time>2021-08-14T10:44:25Z</time>
      </trkpt>
      <trkpt lat="45.93921" lon="3.00311">
        <ele>696.61</ele>
        <time>2021-08-14T10:44:42Z</time>
      </trkpt>
      <trkpt lat="45.93919" lon="3.00309">
        <ele>697.09</ele>
        <time>2021-08-14T10:45:11Z</time>
      </trkpt>
      <trkpt lat="45.93918" lon="3.00307">
        <ele>697.09</ele>
        <time>2021-08-14T10:45:39Z</time>
      </trkpt>
      <trkpt lat="45.93918" lon="3.00306">
        <ele>697.09</ele>
        <time>2021-08-14T10:46:10Z</time>
      </trkpt>
      <trkpt lat="45.93917" lon="3.00308">
        <ele>697.09</ele>
        <time>2021-08-14T10:46:16Z</time>
      </trkpt>
      <trkpt lat="45.93916" lon="3.00308">
        <ele>697.09</ele>
        <time>2021-08-14T10:46:20Z</time>
      </trkpt>
      <trkpt lat="45.93917" lon="3.00309">
        <ele>697.09</ele>
        <time>2021-08-14T10:46:36Z</time>
      </trkpt>
      <trkpt lat="45.93917" lon="3.0031">
        <ele>697.09</ele>
        <time>2021-08-14T10:46:52Z</time>
      </trkpt>
      <trkpt lat="45.9392" lon="3.00308">
        <ele>697.09</ele>
        <time>2021-08-14T10:47:15Z</time>
      </trkpt>
      <trkpt lat="45.93918" lon="3.00309">
        <ele>697.09</ele>
        <time>2021-08-14T10:47:36Z</time>
      </trkpt>
      <trkpt lat="45.93917" lon="3.00308">
        <ele>697.09</ele>
        <time>2021-08-14T10:47:48Z</time>
      </trkpt>
      <trkpt lat="45.93918" lon="3.00305">
        <ele>697.09</ele>
        <time>2021-08-14T10:48:10Z</time>
      </trkpt>
      <trkpt lat="45.93918" lon="3.00308">
        <ele>697.09</ele>
        <time>2021-08-14T10:48:30Z</time>
      </trkpt>
      <trkpt lat="45.93918" lon="3.00308">
        <ele>697.09</ele>
        <time>2021-08-14T10:48:49Z</time>
      </trkpt>
      <trkpt lat="45.93918" lon="3.00306">
        <ele>697.09</ele>
        <time>2021-08-14T10:49:10Z</time>
      </trkpt>
      <trkpt lat="45.93918" lon="3.00305">
        <ele>697.09</ele>
        <time>2021-08-14T10:49:32Z</time>
      </trkpt>
      <trkpt lat="45.93916" lon="3.00304">
        <ele>697.09</ele>
        <time>2021-08-14T10:49:55Z</time>
      </trkpt>
      <trkpt lat="45.93917" lon="3.00307">
        <ele>697.09</ele>
        <time>2021-08-14T10:50:23Z</time>
      </trkpt>
      <trkpt lat="45.93917" lon="3.00306">
        <ele>696.61</ele>
        <time>2021-08-14T10:50:49Z</time>
      </trkpt>
      <trkpt lat="45.93918" lon="3.00303">
        <ele>696.61</ele>
        <time>2021-08-14T10:51:07Z</time>
      </trkpt>
      <trkpt lat="45.93918" lon="3.00303">
        <ele>696.61</ele>
        <time>2021-08-14T10:51:18Z</time>
      </trkpt>
      <trkpt lat="45.93919" lon="3.00305">
        <ele>696.61</ele>
        <time>2021-08-14T10:51:44Z</time>
      </trkpt>
      <trkpt lat="45.93916" lon="3.00305">
        <ele>696.61</ele>
        <time>2021-08-14T10:52:14Z</time>
      </trkpt>
      <trkpt lat="45.93918" lon="3.00301">
        <ele>696.61</ele>
        <time>2021-08-14T10:52:38Z</time>
      </trkpt>
      <trkpt lat="45.9392" lon="3.00303">
        <ele>696.61</ele>
        <time>2021-08-14T10:52:54Z</time>
      </trkpt>
      <trkpt lat="45.93919" lon="3.00306">
        <ele>696.61</ele>
        <time>2021-08-14T10:53:15Z</time>
      </trkpt>
      <trkpt lat="45.93917" lon="3.00307">
        <ele>696.61</ele>
        <time>2021-08-14T10:53:33Z</time>
      </trkpt>
      <trkpt lat="45.93916" lon="3.0031">
        <ele>696.61</ele>
        <time>2021-08-14T10:53:48Z</time>
      </trkpt>
      <trkpt lat="45.93916" lon="3.0031">
        <ele>696.61</ele>
        <time>2021-08-14T10:54:13Z</time>
      </trkpt>
      <trkpt lat="45.93913" lon="3.0031">
        <ele>696.61</ele>
        <time>2021-08-14T10:54:38Z</time>
      </trkpt>
      <trkpt lat="45.93914" lon="3.00307">
        <ele>696.61</ele>
        <time>2021-08-14T10:55:01Z</time>
      </trkpt>
      <trkpt lat="45.93916" lon="3.00306">
        <ele>696.61</ele>
        <time>2021-08-14T10:55:25Z</time>
      </trkpt>
      <trkpt lat="45.93916" lon="3.00305">
        <ele>696.61</ele>
        <time>2021-08-14T10:55:47Z</time>
      </trkpt>
      <trkpt lat="45.93918" lon="3.00306">
        <ele>696.61</ele>
        <time>2021-08-14T10:56:13Z</time>
      </trkpt>
      <trkpt lat="45.93916" lon="3.00306">
        <ele>696.61</ele>
        <time>2021-08-14T10:56:37Z</time>
      </trkpt>
      <trkpt lat="45.93916" lon="3.00304">
        <ele>696.13</ele>
        <time>2021-08-14T10:56:58Z</time>
      </trkpt>
      <trkpt lat="45.93916" lon="3.00305">
        <ele>696.61</ele>
        <time>2021-08-14T10:57:19Z</time>
      </trkpt>
      <trkpt lat="45.93916" lon="3.00306">
        <ele>696.61</ele>
        <time>2021-08-14T10:57:33Z</time>
      </trkpt>
      <trkpt lat="45.93916" lon="3.00307">
        <ele>696.61</ele>
        <time>2021-08-14T10:57:52Z</time>
      </trkpt>
      <trkpt lat="45.93916" lon="3.00306">
        <ele>696.61</ele>
        <time>2021-08-14T10:58:13Z</time>
      </trkpt>
      <trkpt lat="45.93915" lon="3.00304">
        <ele>696.61</ele>
        <time>2021-08-14T10:58:31Z</time>
      </trkpt>
      <trkpt lat="45.93914" lon="3.00308">
        <ele>696.61</ele>
        <time>2021-08-14T10:58:50Z</time>
      </trkpt>
      <trkpt lat="45.93913" lon="3.00309">
        <ele>696.61</ele>
        <time>2021-08-14T10:59:10Z</time>
      </trkpt>
      <trkpt lat="45.93914" lon="3.0031">
        <ele>696.61</ele>
        <time>2021-08-14T10:59:32Z</time>
      </trkpt>
      <trkpt lat="45.93915" lon="3.0031">
        <ele>696.61</ele>
        <time>2021-08-14T10:59:57Z</time>
      </trkpt>
      <trkpt lat="45.93914" lon="3.00306">
        <ele>696.61</ele>
        <time>2021-08-14T11:00:18Z</time>
      </trkpt>
      <trkpt lat="45.93914" lon="3.00303">
        <ele>696.61</ele>
        <time>2021-08-14T11:00:38Z</time>
      </trkpt>
      <trkpt lat="45.93916" lon="3.00304">
        <ele>697.09</ele>
        <time>2021-08-14T11:01:04Z</time>
      </trkpt>
      <trkpt lat="45.93918" lon="3.00304">
        <ele>697.09</ele>
        <time>2021-08-14T11:01:33Z</time>
      </trkpt>
      <trkpt lat="45.93918" lon="3.00305">
        <ele>697.09</ele>
        <time>2021-08-14T11:01:57Z</time>
      </trkpt>
      <trkpt lat="45.93917" lon="3.00303">
        <ele>697.09</ele>
        <time>2021-08-14T11:02:23Z</time>
      </trkpt>
      <trkpt lat="45.93916" lon="3.00305">
        <ele>697.09</ele>
        <time>2021-08-14T11:02:46Z</time>
      </trkpt>
      <trkpt lat="45.93916" lon="3.00306">
        <ele>696.61</ele>
        <time>2021-08-14T11:03:11Z</time>
      </trkpt>
      <trkpt lat="45.93918" lon="3.00304">
        <ele>696.61</ele>
        <time>2021-08-14T11:03:27Z</time>
      </trkpt>
      <trkpt lat="45.93919" lon="3.00304">
        <ele>696.61</ele>
        <time>2021-08-14T11:03:49Z</time>
      </trkpt>
      <trkpt lat="45.93918" lon="3.00306">
        <ele>696.61</ele>
        <time>2021-08-14T11:04:01Z</time>
      </trkpt>
      <trkpt lat="45.93918" lon="3.00305">
        <ele>696.61</ele>
        <time>2021-08-14T11:04:19Z</time>
      </trkpt>
      <trkpt lat="45.93917" lon="3.00306">
        <ele>696.61</ele>
        <time>2021-08-14T11:04:41Z</time>
      </trkpt>
      <trkpt lat="45.93916" lon="3.00308">
        <ele>696.61</ele>
        <time>2021-08-14T11:05:05Z</time>
      </trkpt>
      <trkpt lat="45.93916" lon="3.00309">
        <ele>696.61</ele>
        <time>2021-08-14T11:05:29Z</time>
      </trkpt>
      <trkpt lat="45.93917" lon="3.00305">
        <ele>696.61</ele>
        <time>2021-08-14T11:05:50Z</time>
      </trkpt>
      <trkpt lat="45.93916" lon="3.00307">
        <ele>696.61</ele>
        <time>2021-08-14T11:06:11Z</time>
      </trkpt>
      <trkpt lat="45.93914" lon="3.00311">
        <ele>696.13</ele>
        <time>2021-08-14T11:06:34Z</time>
      </trkpt>
      <trkpt lat="45.93915" lon="3.00308">
        <ele>696.13</ele>
        <time>2021-08-14T11:06:57Z</time>
      </trkpt>
      <trkpt lat="45.93914" lon="3.00307">
        <ele>696.13</ele>
        <time>2021-08-14T11:07:15Z</time>
      </trkpt>
      <trkpt lat="45.93915" lon="3.00308">
        <ele>696.13</ele>
        <time>2021-08-14T11:07:41Z</time>
      </trkpt>
      <trkpt lat="45.93915" lon="3.00306">
        <ele>696.13</ele>
        <time>2021-08-14T11:08:05Z</time>
      </trkpt>
      <trkpt lat="45.93917" lon="3.00306">
        <ele>696.13</ele>
        <time>2021-08-14T11:08:25Z</time>
      </trkpt>
      <trkpt lat="45.93915" lon="3.00308">
        <ele>696.13</ele>
        <time>2021-08-14T11:08:39Z</time>
      </trkpt>
      <trkpt lat="45.93913" lon="3.00309">
        <ele>696.13</ele>
        <time>2021-08-14T11:08:59Z</time>
      </trkpt>
      <trkpt lat="45.93914" lon="3.00309">
        <ele>696.13</ele>
        <time>2021-08-14T11:09:20Z</time>
      </trkpt>
      <trkpt lat="45.93915" lon="3.00309">
        <ele>696.13</ele>
        <time>2021-08-14T11:09:38Z</time>
      </trkpt>
      <trkpt lat="45.93917" lon="3.0031">
        <ele>696.13</ele>
        <time>2021-08-14T11:09:54Z</time>
      </trkpt>
      <trkpt lat="45.9392" lon="3.00311">
        <ele>696.13</ele>
        <time>2021-08-14T11:10:09Z</time>
      </trkpt>
      <trkpt lat="45.9392" lon="3.00307">
        <ele>696.13</ele>
        <time>2021-08-14T11:10:29Z</time>
      </trkpt>
      <trkpt lat="45.93919" lon="3.00309">
        <ele>696.13</ele>
        <time>2021-08-14T11:10:48Z</time>
      </trkpt>
      <trkpt lat="45.93918" lon="3.00309">
        <ele>696.13</ele>
        <time>2021-08-14T11:11:09Z</time>
      </trkpt>
      <trkpt lat="45.93917" lon="3.00309">
        <ele>696.61</ele>
        <time>2021-08-14T11:11:25Z</time>
      </trkpt>
      <trkpt lat="45.93918" lon="3.00306">
        <ele>696.61</ele>
        <time>2021-08-14T11:11:50Z</time>
      </trkpt>
      <trkpt lat="45.93918" lon="3.00306">
        <ele>696.13</ele>
        <time>2021-08-14T11:12:11Z</time>
      </trkpt>
      <trkpt lat="45.93915" lon="3.00309">
        <ele>696.13</ele>
        <time>2021-08-14T11:12:35Z</time>
      </trkpt>
      <trkpt lat="45.93914" lon="3.00308">
        <ele>696.61</ele>
        <time>2021-08-14T11:12:57Z</time>
      </trkpt>
      <trkpt lat="45.93914" lon="3.00307">
        <ele>696.61</ele>
        <time>2021-08-14T11:13:17Z</time>
      </trkpt>
      <trkpt lat="45.93914" lon="3.00308">
        <ele>696.61</ele>
        <time>2021-08-14T11:13:37Z</time>
      </trkpt>
      <trkpt lat="45.93912" lon="3.00307">
        <ele>696.61</ele>
        <time>2021-08-14T11:14:01Z</time>
      </trkpt>
      <trkpt lat="45.93915" lon="3.00306">
        <ele>696.61</ele>
        <time>2021-08-14T11:14:18Z</time>
      </trkpt>
      <trkpt lat="45.93915" lon="3.00307">
        <ele>696.13</ele>
        <time>2021-08-14T11:14:36Z</time>
      </trkpt>
      <trkpt lat="45.93914" lon="3.00309">
        <ele>696.13</ele>
        <time>2021-08-14T11:14:54Z</time>
      </trkpt>
      <trkpt lat="45.93914" lon="3.00309">
        <ele>696.13</ele>
        <time>2021-08-14T11:15:13Z</time>
      </trkpt>
      <trkpt lat="45.93915" lon="3.00308">
        <ele>696.13</ele>
        <time>2021-08-14T11:15:32Z</time>
      </trkpt>
      <trkpt lat="45.93916" lon="3.00307">
        <ele>696.13</ele>
        <time>2021-08-14T11:15:48Z</time>
      </trkpt>
      <trkpt lat="45.93915" lon="3.00306">
        <ele>696.13</ele>
        <time>2021-08-14T11:16:13Z</time>
      </trkpt>
      <trkpt lat="45.93916" lon="3.00307">
        <ele>696.13</ele>
        <time>2021-08-14T11:16:33Z</time>
      </trkpt>
      <trkpt lat="45.93916" lon="3.00308">
        <ele>696.13</ele>
        <time>2021-08-14T11:16:54Z</time>
      </trkpt>
      <trkpt lat="45.93915" lon="3.00308">
        <ele>696.13</ele>
        <time>2021-08-14T11:17:11Z</time>
      </trkpt>
      <trkpt lat="45.93914" lon="3.00309">
        <ele>696.13</ele>
        <time>2021-08-14T11:17:25Z</time>
      </trkpt>
      <trkpt lat="45.93912" lon="3.00309">
        <ele>696.13</ele>
        <time>2021-08-14T11:17:43Z</time>
      </trkpt>
      <trkpt lat="45.93912" lon="3.0031">
        <ele>696.13</ele>
        <time>2021-08-14T11:18:03Z</time>
      </trkpt>
      <trkpt lat="45.93912" lon="3.00311">
        <ele>696.13</ele>
        <time>2021-08-14T11:18:21Z</time>
      </trkpt>
      <trkpt lat="45.93913" lon="3.00311">
        <ele>696.13</ele>
        <time>2021-08-14T11:18:32Z</time>
      </trkpt>
      <trkpt lat="45.93914" lon="3.00308">
        <ele>696.13</ele>
        <time>2021-08-14T11:18:45Z</time>
      </trkpt>
      <trkpt lat="45.93914" lon="3.0031">
        <ele>696.61</ele>
        <time>2021-08-14T11:19:03Z</time>
      </trkpt>
      <trkpt lat="45.93915" lon="3.00309">
        <ele>696.61</ele>
        <time>2021-08-14T11:19:20Z</time>
      </trkpt>
      <trkpt lat="45.93916" lon="3.00308">
        <ele>696.61</ele>
        <time>2021-08-14T11:19:35Z</time>
      </trkpt>
      <trkpt lat="45.93915" lon="3.00308">
        <ele>696.61</ele>
        <time>2021-08-14T11:19:47Z</time>
      </trkpt>
      <trkpt lat="45.93916" lon="3.00306">
        <ele>696.61</ele>
        <time>2021-08-14T11:20:02Z</time>
      </trkpt>
      <trkpt lat="45.93915" lon="3.00307">
        <ele>696.61</ele>
        <time>2021-08-14T11:20:13Z</time>
      </trkpt>
      <trkpt lat="45.93916" lon="3.0031">
        <ele>696.61</ele>
        <time>2021-08-14T11:20:31Z</time>
      </trkpt>
      <trkpt lat="45.93916" lon="3.00311">
        <ele>696.61</ele>
        <time>2021-08-14T11:20:42Z</time>
      </trkpt>
      <trkpt lat="45.93915" lon="3.0031">
        <ele>696.61</ele>
        <time>2021-08-14T11:20:54Z</time>
      </trkpt>
      <trkpt lat="45.93915" lon="3.0031">
        <ele>696.13</ele>
        <time>2021-08-14T11:21:16Z</time>
      </trkpt>
      <trkpt lat="45.93914" lon="3.00309">
        <ele>696.13</ele>
        <time>2021-08-14T11:21:32Z</time>
      </trkpt>
      <trkpt lat="45.93914" lon="3.00307">
        <ele>696.13</ele>
        <time>2021-08-14T11:21:56Z</time>
      </trkpt>
      <trkpt lat="45.93915" lon="3.00308">
        <ele>696.13</ele>
        <time>2021-08-14T11:22:12Z</time>
      </trkpt>
      <trkpt lat="45.93916" lon="3.00306">
        <ele>697.09</ele>
        <time>2021-08-14T11:22:24Z</time>
      </trkpt>
      <trkpt lat="45.93917" lon="3.00307">
        <ele>697.09</ele>
        <time>2021-08-14T11:22:36Z</time>
      </trkpt>
      <trkpt lat="45.93916" lon="3.00308">
        <ele>697.09</ele>
        <time>2021-08-14T11:22:49Z</time>
      </trkpt>
      <trkpt lat="45.93914" lon="3.0031">
        <ele>697.09</ele>
        <time>2021-08-14T11:23:03Z</time>
      </trkpt>
      <trkpt lat="45.93913" lon="3.00312">
        <ele>697.09</ele>
        <time>2021-08-14T11:23:18Z</time>
      </trkpt>
      <trkpt lat="45.93912" lon="3.0031">
        <ele>697.09</ele>
        <time>2021-08-14T11:23:32Z</time>
      </trkpt>
      <trkpt lat="45.93917" lon="3.00309">
        <ele>697.09</ele>
        <time>2021-08-14T11:23:48Z</time>
      </trkpt>
      <trkpt lat="45.93918" lon="3.00311">
        <ele>697.09</ele>
        <time>2021-08-14T11:24:09Z</time>
      </trkpt>
      <trkpt lat="45.93917" lon="3.00312">
        <ele>697.09</ele>
        <time>2021-08-14T11:24:30Z</time>
      </trkpt>
      <trkpt lat="45.93916" lon="3.00312">
        <ele>697.57</ele>
        <time>2021-08-14T11:24:44Z</time>
      </trkpt>
      <trkpt lat="45.93917" lon="3.00312">
        <ele>697.57</ele>
        <time>2021-08-14T11:24:57Z</time>
      </trkpt>
      <trkpt lat="45.93916" lon="3.00309">
        <ele>697.57</ele>
        <time>2021-08-14T11:25:09Z</time>
      </trkpt>
      <trkpt lat="45.93915" lon="3.00307">
        <ele>697.57</ele>
        <time>2021-08-14T11:25:24Z</time>
      </trkpt>
      <trkpt lat="45.93914" lon="3.00307">
        <ele>697.57</ele>
        <time>2021-08-14T11:25:36Z</time>
      </trkpt>
      <trkpt lat="45.93916" lon="3.00308">
        <ele>697.57</ele>
        <time>2021-08-14T11:25:48Z</time>
      </trkpt>
      <trkpt lat="45.93916" lon="3.00308">
        <ele>697.57</ele>
        <time>2021-08-14T11:26:03Z</time>
      </trkpt>
      <trkpt lat="45.93918" lon="3.00307">
        <ele>697.57</ele>
        <time>2021-08-14T11:26:20Z</time>
      </trkpt>
      <trkpt lat="45.93918" lon="3.00307">
        <ele>697.57</ele>
        <time>2021-08-14T11:26:37Z</time>
      </trkpt>
      <trkpt lat="45.93918" lon="3.00309">
        <ele>697.57</ele>
        <time>2021-08-14T11:26:55Z</time>
      </trkpt>
      <trkpt lat="45.93919" lon="3.0031">
        <ele>697.57</ele>
        <time>2021-08-14T11:27:11Z</time>
      </trkpt>
      <trkpt lat="45.9392" lon="3.0031">
        <ele>697.57</ele>
        <time>2021-08-14T11:27:31Z</time>
      </trkpt>
      <trkpt lat="45.93919" lon="3.00308">
        <ele>697.57</ele>
        <time>2021-08-14T11:27:47Z</time>
      </trkpt>
      <trkpt lat="45.93919" lon="3.00307">
        <ele>697.57</ele>
        <time>2021-08-14T11:28:03Z</time>
      </trkpt>
      <trkpt lat="45.93917" lon="3.00305">
        <ele>697.57</ele>
        <time>2021-08-14T11:28:20Z</time>
      </trkpt>
      <trkpt lat="45.93916" lon="3.00303">
        <ele>697.57</ele>
        <time>2021-08-14T11:28:34Z</time>
      </trkpt>
      <trkpt lat="45.93916" lon="3.00296">
        <ele>697.57</ele>
        <time>2021-08-14T11:28:52Z</time>
      </trkpt>
      <trkpt lat="45.93916" lon="3.00294">
        <ele>697.57</ele>
        <time>2021-08-14T11:29:08Z</time>
      </trkpt>
      <trkpt lat="45.93916" lon="3.00298">
        <ele>697.57</ele>
        <time>2021-08-14T11:29:28Z</time>
      </trkpt>
      <trkpt lat="45.93914" lon="3.00304">
        <ele>697.57</ele>
        <time>2021-08-14T11:29:49Z</time>
      </trkpt>
      <trkpt lat="45.93916" lon="3.00305">
        <ele>697.57</ele>
        <time>2021-08-14T11:30:03Z</time>
      </trkpt>
      <trkpt lat="45.93916" lon="3.00307">
        <ele>697.57</ele>
        <time>2021-08-14T11:30:14Z</time>
      </trkpt>
      <trkpt lat="45.93916" lon="3.00306">
        <ele>697.57</ele>
        <time>2021-08-14T11:30:23Z</time>
      </trkpt>
      <trkpt lat="45.93919" lon="3.00309">
        <ele>697.57</ele>
        <time>2021-08-14T11:30:41Z</time>
      </trkpt>
      <trkpt lat="45.93917" lon="3.00309">
        <ele>697.57</ele>
        <time>2021-08-14T11:30:58Z</time>
      </trkpt>
      <trkpt lat="45.93916" lon="3.0031">
        <ele>697.57</ele>
        <time>2021-08-14T11:31:13Z</time>
      </trkpt>
      <trkpt lat="45.93917" lon="3.0031">
        <ele>697.57</ele>
        <time>2021-08-14T11:31:24Z</time>
      </trkpt>
      <trkpt lat="45.93918" lon="3.0031">
        <ele>698.05</ele>
        <time>2021-08-14T11:31:37Z</time>
      </trkpt>
      <trkpt lat="45.93918" lon="3.00308">
        <ele>698.05</ele>
        <time>2021-08-14T11:31:53Z</time>
      </trkpt>
      <trkpt lat="45.93916" lon="3.00308">
        <ele>698.05</ele>
        <time>2021-08-14T11:32:11Z</time>
      </trkpt>
      <trkpt lat="45.93917" lon="3.00308">
        <ele>698.05</ele>
        <time>2021-08-14T11:32:25Z</time>
      </trkpt>
      <trkpt lat="45.93918" lon="3.00309">
        <ele>698.05</ele>
        <time>2021-08-14T11:32:37Z</time>
      </trkpt>
      <trkpt lat="45.93918" lon="3.00307">
        <ele>698.05</ele>
        <time>2021-08-14T11:32:49Z</time>
      </trkpt>
      <trkpt lat="45.93915" lon="3.00301">
        <ele>698.05</ele>
        <time>2021-08-14T11:33:02Z</time>
      </trkpt>
      <trkpt lat="45.93914" lon="3.003">
        <ele>698.05</ele>
        <time>2021-08-14T11:33:03Z</time>
      </trkpt>
      <trkpt lat="45.93913" lon="3.00299">
        <ele>698.05</ele>
        <time>2021-08-14T11:33:04Z</time>
      </trkpt>
      <trkpt lat="45.93912" lon="3.00297">
        <ele>698.05</ele>
        <time>2021-08-14T11:33:05Z</time>
      </trkpt>
      <trkpt lat="45.93911" lon="3.00295">
        <ele>698.05</ele>
        <time>2021-08-14T11:33:06Z</time>
      </trkpt>
      <trkpt lat="45.9391" lon="3.00293">
        <ele>698.05</ele>
        <time>2021-08-14T11:33:07Z</time>
      </trkpt>
      <trkpt lat="45.9391" lon="3.00291">
        <ele>698.53</ele>
        <time>2021-08-14T11:33:08Z</time>
      </trkpt>
      <trkpt lat="45.93906" lon="3.00283">
        <ele>698.53</ele>
        <time>2021-08-14T11:33:12Z</time>
      </trkpt>
      <trkpt lat="45.93899" lon="3.00267">
        <ele>699.02</ele>
        <time>2021-08-14T11:33:20Z</time>
      </trkpt>
      <trkpt lat="45.93892" lon="3.00249">
        <ele>699.98</ele>
        <time>2021-08-14T11:33:29Z</time>
      </trkpt>
      <trkpt lat="45.93885" lon="3.00231">
        <ele>700.46</ele>
        <time>2021-08-14T11:33:37Z</time>
      </trkpt>
      <trkpt lat="45.93874" lon="3.00211">
        <ele>701.42</ele>
        <time>2021-08-14T11:33:48Z</time>
      </trkpt>
      <trkpt lat="45.93865" lon="3.00195">
        <ele>702.38</ele>
        <time>2021-08-14T11:33:57Z</time>
      </trkpt>
      <trkpt lat="45.93854" lon="3.00179">
        <ele>702.86</ele>
        <time>2021-08-14T11:34:06Z</time>
      </trkpt>
      <trkpt lat="45.93843" lon="3.00165">
        <ele>703.82</ele>
        <time>2021-08-14T11:34:15Z</time>
      </trkpt>
      <trkpt lat="45.93833" lon="3.00152">
        <ele>704.3</ele>
        <time>2021-08-14T11:34:23Z</time>
      </trkpt>
      <trkpt lat="45.93824" lon="3.00142">
        <ele>704.78</ele>
        <time>2021-08-14T11:34:31Z</time>
      </trkpt>
      <trkpt lat="45.93815" lon="3.0013">
        <ele>705.75</ele>
        <time>2021-08-14T11:34:39Z</time>
      </trkpt>
      <trkpt lat="45.93814" lon="3.00128">
        <ele>705.75</ele>
        <time>2021-08-14T11:34:40Z</time>
      </trkpt>
      <trkpt lat="45.93813" lon="3.00127">
        <ele>705.75</ele>
        <time>2021-08-14T11:34:41Z</time>
      </trkpt>
      <trkpt lat="45.93812" lon="3.00125">
        <ele>705.75</ele>
        <time>2021-08-14T11:34:42Z</time>
      </trkpt>
      <trkpt lat="45.93811" lon="3.00124">
        <ele>705.75</ele>
        <time>2021-08-14T11:34:43Z</time>
      </trkpt>
      <trkpt lat="45.93802" lon="3.00113">
        <ele>706.71</ele>
        <time>2021-08-14T11:34:53Z</time>
      </trkpt>
      <trkpt lat="45.93796" lon="3.00106">
        <ele>707.19</ele>
        <time>2021-08-14T11:35:00Z</time>
      </trkpt>
      <trkpt lat="45.93789" lon="3.00099">
        <ele>708.15</ele>
        <time>2021-08-14T11:35:08Z</time>
      </trkpt>
      <trkpt lat="45.93785" lon="3.00097">
        <ele>708.63</ele>
        <time>2021-08-14T11:35:12Z</time>
      </trkpt>
      <trkpt lat="45.93777" lon="3.00093">
        <ele>709.59</ele>
        <time>2021-08-14T11:35:20Z</time>
      </trkpt>
      <trkpt lat="45.93773" lon="3.00091">
        <ele>710.07</ele>
        <time>2021-08-14T11:35:25Z</time>
      </trkpt>
      <trkpt lat="45.93765" lon="3.0009">
        <ele>711.03</ele>
        <time>2021-08-14T11:35:32Z</time>
      </trkpt>
      <trkpt lat="45.93758" lon="3.0009">
        <ele>711.51</ele>
        <time>2021-08-14T11:35:40Z</time>
      </trkpt>
      <trkpt lat="45.93749" lon="3.00086">
        <ele>712.47</ele>
        <time>2021-08-14T11:35:50Z</time>
      </trkpt>
      <trkpt lat="45.93741" lon="3.00085">
        <ele>712.95</ele>
        <time>2021-08-14T11:35:57Z</time>
      </trkpt>
      <trkpt lat="45.93734" lon="3.00082">
        <ele>713.92</ele>
        <time>2021-08-14T11:36:06Z</time>
      </trkpt>
      <trkpt lat="45.93727" lon="3.0008">
        <ele>714.88</ele>
        <time>2021-08-14T11:36:13Z</time>
      </trkpt>
      <trkpt lat="45.93724" lon="3.0008">
        <ele>714.88</ele>
        <time>2021-08-14T11:36:16Z</time>
      </trkpt>
      <trkpt lat="45.93721" lon="3.00079">
        <ele>714.88</ele>
        <time>2021-08-14T11:36:18Z</time>
      </trkpt>
      <trkpt lat="45.9372" lon="3.00078">
        <ele>715.36</ele>
        <time>2021-08-14T11:36:19Z</time>
      </trkpt>
      <trkpt lat="45.93713" lon="3.00076">
        <ele>715.84</ele>
        <time>2021-08-14T11:36:24Z</time>
      </trkpt>
      <trkpt lat="45.93712" lon="3.00076">
        <ele>715.84</ele>
        <time>2021-08-14T11:36:25Z</time>
      </trkpt>
      <trkpt lat="45.93711" lon="3.00075">
        <ele>715.84</ele>
        <time>2021-08-14T11:36:26Z</time>
      </trkpt>
      <trkpt lat="45.9371" lon="3.00075">
        <ele>716.32</ele>
        <time>2021-08-14T11:36:27Z</time>
      </trkpt>
      <trkpt lat="45.93708" lon="3.00075">
        <ele>716.32</ele>
        <time>2021-08-14T11:36:28Z</time>
      </trkpt>
      <trkpt lat="45.93707" lon="3.00075">
        <ele>716.8</ele>
        <time>2021-08-14T11:36:29Z</time>
      </trkpt>
      <trkpt lat="45.93705" lon="3.00075">
        <ele>716.8</ele>
        <time>2021-08-14T11:36:30Z</time>
      </trkpt>
      <trkpt lat="45.93704" lon="3.00074">
        <ele>716.8</ele>
        <time>2021-08-14T11:36:31Z</time>
      </trkpt>
      <trkpt lat="45.93702" lon="3.00074">
        <ele>716.8</ele>
        <time>2021-08-14T11:36:32Z</time>
      </trkpt>
      <trkpt lat="45.93701" lon="3.00073">
        <ele>717.28</ele>
        <time>2021-08-14T11:36:33Z</time>
      </trkpt>
      <trkpt lat="45.93699" lon="3.00072">
        <ele>717.28</ele>
        <time>2021-08-14T11:36:34Z</time>
      </trkpt>
      <trkpt lat="45.93689" lon="3.00071">
        <ele>718.72</ele>
        <time>2021-08-14T11:36:42Z</time>
      </trkpt>
      <trkpt lat="45.93688" lon="3.00071">
        <ele>718.72</ele>
        <time>2021-08-14T11:36:43Z</time>
      </trkpt>
      <trkpt lat="45.93687" lon="3.00071">
        <ele>718.72</ele>
        <time>2021-08-14T11:36:44Z</time>
      </trkpt>
      <trkpt lat="45.93686" lon="3.0007">
        <ele>718.72</ele>
        <time>2021-08-14T11:36:45Z</time>
      </trkpt>
      <trkpt lat="45.93685" lon="3.0007">
        <ele>718.72</ele>
        <time>2021-08-14T11:36:46Z</time>
      </trkpt>
      <trkpt lat="45.93683" lon="3.00069">
        <ele>718.72</ele>
        <time>2021-08-14T11:36:47Z</time>
      </trkpt>
      <trkpt lat="45.93682" lon="3.00069">
        <ele>719.2</ele>
        <time>2021-08-14T11:36:48Z</time>
      </trkpt>
      <trkpt lat="45.93681" lon="3.00068">
        <ele>719.2</ele>
        <time>2021-08-14T11:36:49Z</time>
      </trkpt>
      <trkpt lat="45.93679" lon="3.00067">
        <ele>719.2</ele>
        <time>2021-08-14T11:36:50Z</time>
      </trkpt>
      <trkpt lat="45.93678" lon="3.00066">
        <ele>719.68</ele>
        <time>2021-08-14T11:36:51Z</time>
      </trkpt>
      <trkpt lat="45.93668" lon="3.00061">
        <ele>720.65</ele>
        <time>2021-08-14T11:37:00Z</time>
      </trkpt>
      <trkpt lat="45.93655" lon="3.00055">
        <ele>721.61</ele>
        <time>2021-08-14T11:37:10Z</time>
      </trkpt>
      <trkpt lat="45.93642" lon="3.0005">
        <ele>722.57</ele>
        <time>2021-08-14T11:37:19Z</time>
      </trkpt>
      <trkpt lat="45.9363" lon="3.00047">
        <ele>723.53</ele>
        <time>2021-08-14T11:37:27Z</time>
      </trkpt>
      <trkpt lat="45.93629" lon="3.00047">
        <ele>723.53</ele>
        <time>2021-08-14T11:37:28Z</time>
      </trkpt>
      <trkpt lat="45.93628" lon="3.00046">
        <ele>723.53</ele>
        <time>2021-08-14T11:37:29Z</time>
      </trkpt>
      <trkpt lat="45.93626" lon="3.00046">
        <ele>723.53</ele>
        <time>2021-08-14T11:37:30Z</time>
      </trkpt>
      <trkpt lat="45.93625" lon="3.00045">
        <ele>723.53</ele>
        <time>2021-08-14T11:37:31Z</time>
      </trkpt>
      <trkpt lat="45.93624" lon="3.00045">
        <ele>723.53</ele>
        <time>2021-08-14T11:37:32Z</time>
      </trkpt>
      <trkpt lat="45.93623" lon="3.00044">
        <ele>723.53</ele>
        <time>2021-08-14T11:37:33Z</time>
      </trkpt>
      <trkpt lat="45.93622" lon="3.00043">
        <ele>724.49</ele>
        <time>2021-08-14T11:37:34Z</time>
      </trkpt>
      <trkpt lat="45.9362" lon="3.00042">
        <ele>724.49</ele>
        <time>2021-08-14T11:37:35Z</time>
      </trkpt>
      <trkpt lat="45.93619" lon="3.00042">
        <ele>724.49</ele>
        <time>2021-08-14T11:37:36Z</time>
      </trkpt>
      <trkpt lat="45.93618" lon="3.00042">
        <ele>724.49</ele>
        <time>2021-08-14T11:37:37Z</time>
      </trkpt>
      <trkpt lat="45.93617" lon="3.00041">
        <ele>724.49</ele>
        <time>2021-08-14T11:37:38Z</time>
      </trkpt>
      <trkpt lat="45.93614" lon="3.0004">
        <ele>724.97</ele>
        <time>2021-08-14T11:37:41Z</time>
      </trkpt>
      <trkpt lat="45.93612" lon="3.00039">
        <ele>724.97</ele>
        <time>2021-08-14T11:37:42Z</time>
      </trkpt>
      <trkpt lat="45.93611" lon="3.00038">
        <ele>725.45</ele>
        <time>2021-08-14T11:37:43Z</time>
      </trkpt>
      <trkpt lat="45.9361" lon="3.00037">
        <ele>725.45</ele>
        <time>2021-08-14T11:37:44Z</time>
      </trkpt>
      <trkpt lat="45.93609" lon="3.00037">
        <ele>725.45</ele>
        <time>2021-08-14T11:37:45Z</time>
      </trkpt>
      <trkpt lat="45.93608" lon="3.00036">
        <ele>725.45</ele>
        <time>2021-08-14T11:37:46Z</time>
      </trkpt>
      <trkpt lat="45.93607" lon="3.00036">
        <ele>725.93</ele>
        <time>2021-08-14T11:37:47Z</time>
      </trkpt>
      <trkpt lat="45.93606" lon="3.00035">
        <ele>725.93</ele>
        <time>2021-08-14T11:37:48Z</time>
      </trkpt>
      <trkpt lat="45.93604" lon="3.00034">
        <ele>725.93</ele>
        <time>2021-08-14T11:37:50Z</time>
      </trkpt>
      <trkpt lat="45.93603" lon="3.00033">
        <ele>725.93</ele>
        <time>2021-08-14T11:37:51Z</time>
      </trkpt>
      <trkpt lat="45.93595" lon="3.00028">
        <ele>726.89</ele>
        <time>2021-08-14T11:37:59Z</time>
      </trkpt>
      <trkpt lat="45.9359" lon="3.00026">
        <ele>727.37</ele>
        <time>2021-08-14T11:38:04Z</time>
      </trkpt>
      <trkpt lat="45.93589" lon="3.00026">
        <ele>727.37</ele>
        <time>2021-08-14T11:38:05Z</time>
      </trkpt>
      <trkpt lat="45.93588" lon="3.00026">
        <ele>727.37</ele>
        <time>2021-08-14T11:38:06Z</time>
      </trkpt>
      <trkpt lat="45.93587" lon="3.00025">
        <ele>727.37</ele>
        <time>2021-08-14T11:38:07Z</time>
      </trkpt>
      <trkpt lat="45.93585" lon="3.00025">
        <ele>727.37</ele>
        <time>2021-08-14T11:38:08Z</time>
      </trkpt>
      <trkpt lat="45.93585" lon="3.00024">
        <ele>728.34</ele>
        <time>2021-08-14T11:38:09Z</time>
      </trkpt>
      <trkpt lat="45.93575" lon="3.0002">
        <ele>729.78</ele>
        <time>2021-08-14T11:38:18Z</time>
      </trkpt>
      <trkpt lat="45.93574" lon="3.0002">
        <ele>729.78</ele>
        <time>2021-08-14T11:38:19Z</time>
      </trkpt>
      <trkpt lat="45.93573" lon="3.00019">
        <ele>729.78</ele>
        <time>2021-08-14T11:38:20Z</time>
      </trkpt>
      <trkpt lat="45.93572" lon="3.00019">
        <ele>729.78</ele>
        <time>2021-08-14T11:38:21Z</time>
      </trkpt>
      <trkpt lat="45.93571" lon="3.00018">
        <ele>729.78</ele>
        <time>2021-08-14T11:38:22Z</time>
      </trkpt>
      <trkpt lat="45.93569" lon="3.00017">
        <ele>730.26</ele>
        <time>2021-08-14T11:38:24Z</time>
      </trkpt>
      <trkpt lat="45.93564" lon="3.00014">
        <ele>730.74</ele>
        <time>2021-08-14T11:38:28Z</time>
      </trkpt>
      <trkpt lat="45.93563" lon="3.00014">
        <ele>730.74</ele>
        <time>2021-08-14T11:38:29Z</time>
      </trkpt>
      <trkpt lat="45.93561" lon="3.00014">
        <ele>730.74</ele>
        <time>2021-08-14T11:38:30Z</time>
      </trkpt>
      <trkpt lat="45.9356" lon="3.00014">
        <ele>730.74</ele>
        <time>2021-08-14T11:38:31Z</time>
      </trkpt>
      <trkpt lat="45.93559" lon="3.00013">
        <ele>730.74</ele>
        <time>2021-08-14T11:38:32Z</time>
      </trkpt>
      <trkpt lat="45.93558" lon="3.00013">
        <ele>731.22</ele>
        <time>2021-08-14T11:38:33Z</time>
      </trkpt>
      <trkpt lat="45.93557" lon="3.00013">
        <ele>731.22</ele>
        <time>2021-08-14T11:38:34Z</time>
      </trkpt>
      <trkpt lat="45.93556" lon="3.00013">
        <ele>731.22</ele>
        <time>2021-08-14T11:38:35Z</time>
      </trkpt>
      <trkpt lat="45.93554" lon="3.00014">
        <ele>731.22</ele>
        <time>2021-08-14T11:38:36Z</time>
      </trkpt>
      <trkpt lat="45.93553" lon="3.00014">
        <ele>731.7</ele>
        <time>2021-08-14T11:38:37Z</time>
      </trkpt>
      <trkpt lat="45.93552" lon="3.00013">
        <ele>731.7</ele>
        <time>2021-08-14T11:38:38Z</time>
      </trkpt>
      <trkpt lat="45.93551" lon="3.00013">
        <ele>732.18</ele>
        <time>2021-08-14T11:38:39Z</time>
      </trkpt>
      <trkpt lat="45.9355" lon="3.00012">
        <ele>732.18</ele>
        <time>2021-08-14T11:38:40Z</time>
      </trkpt>
      <trkpt lat="45.93547" lon="3.00012">
        <ele>732.18</ele>
        <time>2021-08-14T11:38:43Z</time>
      </trkpt>
      <trkpt lat="45.93545" lon="3.00012">
        <ele>732.18</ele>
        <time>2021-08-14T11:38:44Z</time>
      </trkpt>
      <trkpt lat="45.93544" lon="3.00012">
        <ele>732.66</ele>
        <time>2021-08-14T11:38:45Z</time>
      </trkpt>
      <trkpt lat="45.93543" lon="3.00013">
        <ele>732.66</ele>
        <time>2021-08-14T11:38:46Z</time>
      </trkpt>
      <trkpt lat="45.9354" lon="3.00012">
        <ele>733.14</ele>
        <time>2021-08-14T11:38:49Z</time>
      </trkpt>
      <trkpt lat="45.93538" lon="3.00012">
        <ele>733.14</ele>
        <time>2021-08-14T11:38:50Z</time>
      </trkpt>
      <trkpt lat="45.93537" lon="3.00012">
        <ele>733.14</ele>
        <time>2021-08-14T11:38:51Z</time>
      </trkpt>
      <trkpt lat="45.93536" lon="3.00011">
        <ele>733.62</ele>
        <time>2021-08-14T11:38:52Z</time>
      </trkpt>
      <trkpt lat="45.93535" lon="3.00011">
        <ele>733.62</ele>
        <time>2021-08-14T11:38:53Z</time>
      </trkpt>
      <trkpt lat="45.93533" lon="3.00011">
        <ele>733.62</ele>
        <time>2021-08-14T11:38:54Z</time>
      </trkpt>
      <trkpt lat="45.93532" lon="3.00011">
        <ele>733.62</ele>
        <time>2021-08-14T11:38:55Z</time>
      </trkpt>
      <trkpt lat="45.93522" lon="3.00012">
        <ele>735.55</ele>
        <time>2021-08-14T11:39:03Z</time>
      </trkpt>
      <trkpt lat="45.9352" lon="3.00013">
        <ele>735.55</ele>
        <time>2021-08-14T11:39:05Z</time>
      </trkpt>
      <trkpt lat="45.93519" lon="3.00013">
        <ele>735.55</ele>
        <time>2021-08-14T11:39:06Z</time>
      </trkpt>
      <trkpt lat="45.93518" lon="3.00013">
        <ele>735.55</ele>
        <time>2021-08-14T11:39:07Z</time>
      </trkpt>
      <trkpt lat="45.93516" lon="3.00013">
        <ele>736.03</ele>
        <time>2021-08-14T11:39:08Z</time>
      </trkpt>
      <trkpt lat="45.93515" lon="3.00013">
        <ele>736.03</ele>
        <time>2021-08-14T11:39:09Z</time>
      </trkpt>
      <trkpt lat="45.93514" lon="3.00012">
        <ele>736.03</ele>
        <time>2021-08-14T11:39:10Z</time>
      </trkpt>
      <trkpt lat="45.93513" lon="3.00012">
        <ele>736.03</ele>
        <time>2021-08-14T11:39:11Z</time>
      </trkpt>
      <trkpt lat="45.93512" lon="3.00012">
        <ele>736.03</ele>
        <time>2021-08-14T11:39:12Z</time>
      </trkpt>
      <trkpt lat="45.93509" lon="3.00012">
        <ele>736.51</ele>
        <time>2021-08-14T11:39:14Z</time>
      </trkpt>
      <trkpt lat="45.93508" lon="3.00012">
        <ele>736.51</ele>
        <time>2021-08-14T11:39:15Z</time>
      </trkpt>
      <trkpt lat="45.93507" lon="3.00012">
        <ele>736.51</ele>
        <time>2021-08-14T11:39:16Z</time>
      </trkpt>
      <trkpt lat="45.93506" lon="3.00012">
        <ele>736.99</ele>
        <time>2021-08-14T11:39:17Z</time>
      </trkpt>
      <trkpt lat="45.93505" lon="3.00012">
        <ele>736.99</ele>
        <time>2021-08-14T11:39:18Z</time>
      </trkpt>
      <trkpt lat="45.93504" lon="3.00012">
        <ele>736.99</ele>
        <time>2021-08-14T11:39:19Z</time>
      </trkpt>
      <trkpt lat="45.93503" lon="3.00011">
        <ele>736.99</ele>
        <time>2021-08-14T11:39:20Z</time>
      </trkpt>
      <trkpt lat="45.93502" lon="3.00011">
        <ele>737.47</ele>
        <time>2021-08-14T11:39:21Z</time>
      </trkpt>
      <trkpt lat="45.935" lon="3.0001">
        <ele>737.47</ele>
        <time>2021-08-14T11:39:22Z</time>
      </trkpt>
      <trkpt lat="45.93498" lon="3.00011">
        <ele>737.47</ele>
        <time>2021-08-14T11:39:24Z</time>
      </trkpt>
      <trkpt lat="45.93497" lon="3.0001">
        <ele>737.47</ele>
        <time>2021-08-14T11:39:25Z</time>
      </trkpt>
      <trkpt lat="45.93495" lon="3.00009">
        <ele>737.47</ele>
        <time>2021-08-14T11:39:26Z</time>
      </trkpt>
      <trkpt lat="45.93494" lon="3.00008">
        <ele>737.47</ele>
        <time>2021-08-14T11:39:27Z</time>
      </trkpt>
      <trkpt lat="45.93493" lon="3.00008">
        <ele>737.95</ele>
        <time>2021-08-14T11:39:28Z</time>
      </trkpt>
      <trkpt lat="45.93492" lon="3.00008">
        <ele>737.95</ele>
        <time>2021-08-14T11:39:29Z</time>
      </trkpt>
      <trkpt lat="45.93491" lon="3.00007">
        <ele>737.95</ele>
        <time>2021-08-14T11:39:30Z</time>
      </trkpt>
      <trkpt lat="45.9349" lon="3.00007">
        <ele>737.95</ele>
        <time>2021-08-14T11:39:31Z</time>
      </trkpt>
      <trkpt lat="45.93489" lon="3.00006">
        <ele>737.95</ele>
        <time>2021-08-14T11:39:32Z</time>
      </trkpt>
      <trkpt lat="45.93488" lon="3.00005">
        <ele>737.95</ele>
        <time>2021-08-14T11:39:33Z</time>
      </trkpt>
      <trkpt lat="45.93487" lon="3.00005">
        <ele>738.43</ele>
        <time>2021-08-14T11:39:34Z</time>
      </trkpt>
      <trkpt lat="45.93485" lon="3.00005">
        <ele>738.43</ele>
        <time>2021-08-14T11:39:35Z</time>
      </trkpt>
      <trkpt lat="45.93484" lon="3.00004">
        <ele>738.43</ele>
        <time>2021-08-14T11:39:36Z</time>
      </trkpt>
      <trkpt lat="45.93483" lon="3.00004">
        <ele>738.43</ele>
        <time>2021-08-14T11:39:37Z</time>
      </trkpt>
      <trkpt lat="45.93477" lon="3.00001">
        <ele>739.87</ele>
        <time>2021-08-14T11:39:43Z</time>
      </trkpt>
      <trkpt lat="45.93467" lon="2.99994">
        <ele>740.35</ele>
        <time>2021-08-14T11:39:51Z</time>
      </trkpt>
      <trkpt lat="45.93458" lon="2.99983">
        <ele>740.83</ele>
        <time>2021-08-14T11:39:57Z</time>
      </trkpt>
      <trkpt lat="45.93443" lon="2.99961">
        <ele>741.31</ele>
        <time>2021-08-14T11:40:06Z</time>
      </trkpt>
      <trkpt lat="45.93413" lon="2.99928">
        <ele>742.28</ele>
        <time>2021-08-14T11:40:20Z</time>
      </trkpt>
      <trkpt lat="45.93396" lon="2.9991">
        <ele>742.28</ele>
        <time>2021-08-14T11:40:28Z</time>
      </trkpt>
      <trkpt lat="45.93381" lon="2.99898">
        <ele>740.83</ele>
        <time>2021-08-14T11:40:33Z</time>
      </trkpt>
      <trkpt lat="45.93364" lon="2.9988">
        <ele>739.87</ele>
        <time>2021-08-14T11:40:40Z</time>
      </trkpt>
      <trkpt lat="45.9335" lon="2.99851">
        <ele>738.91</ele>
        <time>2021-08-14T11:40:47Z</time>
      </trkpt>
      <trkpt lat="45.93342" lon="2.99837">
        <ele>737.95</ele>
        <time>2021-08-14T11:40:50Z</time>
      </trkpt>
      <trkpt lat="45.93339" lon="2.99831">
        <ele>737.95</ele>
        <time>2021-08-14T11:40:51Z</time>
      </trkpt>
      <trkpt lat="45.93332" lon="2.99816">
        <ele>737.47</ele>
        <time>2021-08-14T11:40:56Z</time>
      </trkpt>
      <trkpt lat="45.93332" lon="2.99817">
        <ele>736.99</ele>
        <time>2021-08-14T11:41:03Z</time>
      </trkpt>
      <trkpt lat="45.93332" lon="2.99817">
        <ele>736.99</ele>
        <time>2021-08-14T11:41:16Z</time>
      </trkpt>
      <trkpt lat="45.93329" lon="2.99813">
        <ele>736.99</ele>
        <time>2021-08-14T11:41:30Z</time>
      </trkpt>
      <trkpt lat="45.93325" lon="2.99807">
        <ele>736.99</ele>
        <time>2021-08-14T11:41:33Z</time>
      </trkpt>
      <trkpt lat="45.93324" lon="2.99804">
        <ele>736.99</ele>
        <time>2021-08-14T11:41:34Z</time>
      </trkpt>
      <trkpt lat="45.93323" lon="2.998">
        <ele>736.03</ele>
        <time>2021-08-14T11:41:35Z</time>
      </trkpt>
      <trkpt lat="45.93321" lon="2.99797">
        <ele>736.03</ele>
        <time>2021-08-14T11:41:36Z</time>
      </trkpt>
      <trkpt lat="45.93318" lon="2.99794">
        <ele>736.03</ele>
        <time>2021-08-14T11:41:37Z</time>
      </trkpt>
      <trkpt lat="45.93309" lon="2.99773">
        <ele>735.07</ele>
        <time>2021-08-14T11:41:41Z</time>
      </trkpt>
      <trkpt lat="45.93275" lon="2.99717">
        <ele>732.66</ele>
        <time>2021-08-14T11:41:51Z</time>
      </trkpt>
      <trkpt lat="45.93236" lon="2.99668">
        <ele>729.3</ele>
        <time>2021-08-14T11:42:00Z</time>
      </trkpt>
      <trkpt lat="45.93209" lon="2.9963">
        <ele>726.89</ele>
        <time>2021-08-14T11:42:07Z</time>
      </trkpt>
      <trkpt lat="45.93201" lon="2.99615">
        <ele>726.41</ele>
        <time>2021-08-14T11:42:12Z</time>
      </trkpt>
      <trkpt lat="45.93184" lon="2.99586">
        <ele>724.97</ele>
        <time>2021-08-14T11:42:19Z</time>
      </trkpt>
      <trkpt lat="45.93167" lon="2.99553">
        <ele>723.53</ele>
        <time>2021-08-14T11:42:27Z</time>
      </trkpt>
      <trkpt lat="45.9315" lon="2.99519">
        <ele>722.09</ele>
        <time>2021-08-14T11:42:36Z</time>
      </trkpt>
      <trkpt lat="45.93143" lon="2.99501">
        <ele>720.65</ele>
        <time>2021-08-14T11:42:42Z</time>
      </trkpt>
      <trkpt lat="45.93144" lon="2.99498">
        <ele>720.65</ele>
        <time>2021-08-14T11:42:43Z</time>
      </trkpt>
      <trkpt lat="45.93145" lon="2.99494">
        <ele>720.16</ele>
        <time>2021-08-14T11:42:44Z</time>
      </trkpt>
      <trkpt lat="45.93152" lon="2.99481">
        <ele>720.16</ele>
        <time>2021-08-14T11:42:50Z</time>
      </trkpt>
      <trkpt lat="45.93152" lon="2.9948">
        <ele>720.16</ele>
        <time>2021-08-14T11:42:57Z</time>
      </trkpt>
      <trkpt lat="45.93152" lon="2.99482">
        <ele>720.16</ele>
        <time>2021-08-14T11:43:12Z</time>
      </trkpt>
      <trkpt lat="45.93153" lon="2.99485">
        <ele>720.16</ele>
        <time>2021-08-14T11:43:25Z</time>
      </trkpt>
      <trkpt lat="45.93151" lon="2.99489">
        <ele>720.16</ele>
        <time>2021-08-14T11:43:38Z</time>
      </trkpt>
      <trkpt lat="45.93151" lon="2.99489">
        <ele>720.16</ele>
        <time>2021-08-14T11:43:57Z</time>
      </trkpt>
      <trkpt lat="45.93151" lon="2.99489">
        <ele>720.16</ele>
        <time>2021-08-14T11:44:16Z</time>
      </trkpt>
      <trkpt lat="45.93149" lon="2.99493">
        <ele>720.16</ele>
        <time>2021-08-14T11:44:32Z</time>
      </trkpt>
      <trkpt lat="45.93148" lon="2.99494">
        <ele>720.65</ele>
        <time>2021-08-14T11:44:52Z</time>
      </trkpt>
      <trkpt lat="45.93148" lon="2.99489">
        <ele>720.65</ele>
        <time>2021-08-14T11:45:08Z</time>
      </trkpt>
      <trkpt lat="45.93148" lon="2.99488">
        <ele>720.65</ele>
        <time>2021-08-14T11:45:14Z</time>
      </trkpt>
      <trkpt lat="45.93148" lon="2.99489">
        <ele>720.65</ele>
        <time>2021-08-14T11:45:15Z</time>
      </trkpt>
      <trkpt lat="45.93147" lon="2.99491">
        <ele>720.65</ele>
        <time>2021-08-14T11:45:16Z</time>
      </trkpt>
      <trkpt lat="45.93146" lon="2.99491">
        <ele>720.65</ele>
        <time>2021-08-14T11:45:17Z</time>
      </trkpt>
      <trkpt lat="45.93145" lon="2.99492">
        <ele>720.65</ele>
        <time>2021-08-14T11:45:18Z</time>
      </trkpt>
      <trkpt lat="45.93145" lon="2.99493">
        <ele>720.65</ele>
        <time>2021-08-14T11:45:19Z</time>
      </trkpt>
      <trkpt lat="45.93145" lon="2.99495">
        <ele>720.65</ele>
        <time>2021-08-14T11:45:20Z</time>
      </trkpt>
      <trkpt lat="45.93144" lon="2.99497">
        <ele>720.65</ele>
        <time>2021-08-14T11:45:21Z</time>
      </trkpt>
      <trkpt lat="45.93144" lon="2.99499">
        <ele>720.65</ele>
        <time>2021-08-14T11:45:22Z</time>
      </trkpt>
      <trkpt lat="45.93143" lon="2.99502">
        <ele>720.65</ele>
        <time>2021-08-14T11:45:23Z</time>
      </trkpt>
      <trkpt lat="45.93143" lon="2.99504">
        <ele>720.65</ele>
        <time>2021-08-14T11:45:24Z</time>
      </trkpt>
      <trkpt lat="45.93145" lon="2.99506">
        <ele>720.65</ele>
        <time>2021-08-14T11:45:25Z</time>
      </trkpt>
      <trkpt lat="45.93146" lon="2.99507">
        <ele>720.65</ele>
        <time>2021-08-14T11:45:26Z</time>
      </trkpt>
      <trkpt lat="45.93149" lon="2.99508">
        <ele>720.65</ele>
        <time>2021-08-14T11:45:27Z</time>
      </trkpt>
      <trkpt lat="45.93151" lon="2.99507">
        <ele>720.65</ele>
        <time>2021-08-14T11:45:28Z</time>
      </trkpt>
      <trkpt lat="45.93152" lon="2.99506">
        <ele>720.65</ele>
        <time>2021-08-14T11:45:29Z</time>
      </trkpt>
      <trkpt lat="45.93153" lon="2.99504">
        <ele>721.61</ele>
        <time>2021-08-14T11:45:30Z</time>
      </trkpt>
      <trkpt lat="45.93154" lon="2.99502">
        <ele>721.61</ele>
        <time>2021-08-14T11:45:31Z</time>
      </trkpt>
      <trkpt lat="45.93156" lon="2.995">
        <ele>721.61</ele>
        <time>2021-08-14T11:45:32Z</time>
      </trkpt>
      <trkpt lat="45.93158" lon="2.99498">
        <ele>721.61</ele>
        <time>2021-08-14T11:45:33Z</time>
      </trkpt>
      <trkpt lat="45.9316" lon="2.99496">
        <ele>721.61</ele>
        <time>2021-08-14T11:45:34Z</time>
      </trkpt>
      <trkpt lat="45.93163" lon="2.99494">
        <ele>721.61</ele>
        <time>2021-08-14T11:45:35Z</time>
      </trkpt>
      <trkpt lat="45.93181" lon="2.99478">
        <ele>722.57</ele>
        <time>2021-08-14T11:45:44Z</time>
      </trkpt>
      <trkpt lat="45.93187" lon="2.99472">
        <ele>722.57</ele>
        <time>2021-08-14T11:45:51Z</time>
      </trkpt>
      <trkpt lat="45.93193" lon="2.9947">
        <ele>722.57</ele>
        <time>2021-08-14T11:45:59Z</time>
      </trkpt>
      <trkpt lat="45.93197" lon="2.99468">
        <ele>722.57</ele>
        <time>2021-08-14T11:46:25Z</time>
      </trkpt>
      <trkpt lat="45.93191" lon="2.99467">
        <ele>722.57</ele>
        <time>2021-08-14T11:46:53Z</time>
      </trkpt>
      <trkpt lat="45.9319" lon="2.99464">
        <ele>722.57</ele>
        <time>2021-08-14T11:47:15Z</time>
      </trkpt>
      <trkpt lat="45.93189" lon="2.99464">
        <ele>722.57</ele>
        <time>2021-08-14T11:47:16Z</time>
      </trkpt>
      <trkpt lat="45.9318" lon="2.99481">
        <ele>722.57</ele>
        <time>2021-08-14T11:47:27Z</time>
      </trkpt>
      <trkpt lat="45.9317" lon="2.99491">
        <ele>722.57</ele>
        <time>2021-08-14T11:47:35Z</time>
      </trkpt>
      <trkpt lat="45.93167" lon="2.99494">
        <ele>722.57</ele>
        <time>2021-08-14T11:47:37Z</time>
      </trkpt>
      <trkpt lat="45.9316" lon="2.99501">
        <ele>721.13</ele>
        <time>2021-08-14T11:47:40Z</time>
      </trkpt>
      <trkpt lat="45.93154" lon="2.99507">
        <ele>721.13</ele>
        <time>2021-08-14T11:47:43Z</time>
      </trkpt>
      <trkpt lat="45.93153" lon="2.9951">
        <ele>721.13</ele>
        <time>2021-08-14T11:47:44Z</time>
      </trkpt>
      <trkpt lat="45.93151" lon="2.9951">
        <ele>720.65</ele>
        <time>2021-08-14T11:47:45Z</time>
      </trkpt>
      <trkpt lat="45.93148" lon="2.99508">
        <ele>720.65</ele>
        <time>2021-08-14T11:47:46Z</time>
      </trkpt>
      <trkpt lat="45.93146" lon="2.99506">
        <ele>720.65</ele>
        <time>2021-08-14T11:47:47Z</time>
      </trkpt>
      <trkpt lat="45.93143" lon="2.99502">
        <ele>720.16</ele>
        <time>2021-08-14T11:47:48Z</time>
      </trkpt>
      <trkpt lat="45.93141" lon="2.99498">
        <ele>719.68</ele>
        <time>2021-08-14T11:47:49Z</time>
      </trkpt>
      <trkpt lat="45.93139" lon="2.99493">
        <ele>719.68</ele>
        <time>2021-08-14T11:47:50Z</time>
      </trkpt>
      <trkpt lat="45.93137" lon="2.99486">
        <ele>719.2</ele>
        <time>2021-08-14T11:47:51Z</time>
      </trkpt>
      <trkpt lat="45.93134" lon="2.99479">
        <ele>718.72</ele>
        <time>2021-08-14T11:47:52Z</time>
      </trkpt>
      <trkpt lat="45.9313" lon="2.99472">
        <ele>718.24</ele>
        <time>2021-08-14T11:47:53Z</time>
      </trkpt>
      <trkpt lat="45.93126" lon="2.99465">
        <ele>718.24</ele>
        <time>2021-08-14T11:47:54Z</time>
      </trkpt>
      <trkpt lat="45.93113" lon="2.99445">
        <ele>716.8</ele>
        <time>2021-08-14T11:47:57Z</time>
      </trkpt>
      <trkpt lat="45.93087" lon="2.99402">
        <ele>714.88</ele>
        <time>2021-08-14T11:48:04Z</time>
      </trkpt>
      <trkpt lat="45.93077" lon="2.99371">
        <ele>713.44</ele>
        <time>2021-08-14T11:48:10Z</time>
      </trkpt>
      <trkpt lat="45.93073" lon="2.99361">
        <ele>713.44</ele>
        <time>2021-08-14T11:48:14Z</time>
      </trkpt>
      <trkpt lat="45.93072" lon="2.99359">
        <ele>713.44</ele>
        <time>2021-08-14T11:48:15Z</time>
      </trkpt>
      <trkpt lat="45.93067" lon="2.99352">
        <ele>712.95</ele>
        <time>2021-08-14T11:48:18Z</time>
      </trkpt>
      <trkpt lat="45.93066" lon="2.99348">
        <ele>712.95</ele>
        <time>2021-08-14T11:48:19Z</time>
      </trkpt>
      <trkpt lat="45.93064" lon="2.99343">
        <ele>712.47</ele>
        <time>2021-08-14T11:48:20Z</time>
      </trkpt>
      <trkpt lat="45.9305" lon="2.9932">
        <ele>710.55</ele>
        <time>2021-08-14T11:48:25Z</time>
      </trkpt>
      <trkpt lat="45.93047" lon="2.99316">
        <ele>710.55</ele>
        <time>2021-08-14T11:48:26Z</time>
      </trkpt>
      <trkpt lat="45.9304" lon="2.99309">
        <ele>709.59</ele>
        <time>2021-08-14T11:48:28Z</time>
      </trkpt>
      <trkpt lat="45.93037" lon="2.99305">
        <ele>708.63</ele>
        <time>2021-08-14T11:48:29Z</time>
      </trkpt>
      <trkpt lat="45.93031" lon="2.99294">
        <ele>708.15</ele>
        <time>2021-08-14T11:48:31Z</time>
      </trkpt>
      <trkpt lat="45.93029" lon="2.99287">
        <ele>707.67</ele>
        <time>2021-08-14T11:48:32Z</time>
      </trkpt>
      <trkpt lat="45.93026" lon="2.9928">
        <ele>707.19</ele>
        <time>2021-08-14T11:48:33Z</time>
      </trkpt>
      <trkpt lat="45.93025" lon="2.99271">
        <ele>707.19</ele>
        <time>2021-08-14T11:48:34Z</time>
      </trkpt>
      <trkpt lat="45.93025" lon="2.99264">
        <ele>706.71</ele>
        <time>2021-08-14T11:48:35Z</time>
      </trkpt>
      <trkpt lat="45.93026" lon="2.99255">
        <ele>706.23</ele>
        <time>2021-08-14T11:48:36Z</time>
      </trkpt>
      <trkpt lat="45.93026" lon="2.99246">
        <ele>705.75</ele>
        <time>2021-08-14T11:48:37Z</time>
      </trkpt>
      <trkpt lat="45.93039" lon="2.99183">
        <ele>704.78</ele>
        <time>2021-08-14T11:48:44Z</time>
      </trkpt>
      <trkpt lat="45.93057" lon="2.99123">
        <ele>704.78</ele>
        <time>2021-08-14T11:48:52Z</time>
      </trkpt>
      <trkpt lat="45.93068" lon="2.99093">
        <ele>706.23</ele>
        <time>2021-08-14T11:48:57Z</time>
      </trkpt>
      <trkpt lat="45.93076" lon="2.99071">
        <ele>707.19</ele>
        <time>2021-08-14T11:49:03Z</time>
      </trkpt>
      <trkpt lat="45.93083" lon="2.99051">
        <ele>707.67</ele>
        <time>2021-08-14T11:49:10Z</time>
      </trkpt>
      <trkpt lat="45.93093" lon="2.99025">
        <ele>708.63</ele>
        <time>2021-08-14T11:49:18Z</time>
      </trkpt>
      <trkpt lat="45.93103" lon="2.98993">
        <ele>710.07</ele>
        <time>2021-08-14T11:49:28Z</time>
      </trkpt>
      <trkpt lat="45.93107" lon="2.98969">
        <ele>711.03</ele>
        <time>2021-08-14T11:49:37Z</time>
      </trkpt>
      <trkpt lat="45.9311" lon="2.98947">
        <ele>711.99</ele>
        <time>2021-08-14T11:49:45Z</time>
      </trkpt>
      <trkpt lat="45.93109" lon="2.98927">
        <ele>712.47</ele>
        <time>2021-08-14T11:49:52Z</time>
      </trkpt>
      <trkpt lat="45.9311" lon="2.98913">
        <ele>712.95</ele>
        <time>2021-08-14T11:49:57Z</time>
      </trkpt>
      <trkpt lat="45.9311" lon="2.9891">
        <ele>713.44</ele>
        <time>2021-08-14T11:49:58Z</time>
      </trkpt>
      <trkpt lat="45.93109" lon="2.98908">
        <ele>713.44</ele>
        <time>2021-08-14T11:49:59Z</time>
      </trkpt>
      <trkpt lat="45.93109" lon="2.98905">
        <ele>713.44</ele>
        <time>2021-08-14T11:50:00Z</time>
      </trkpt>
      <trkpt lat="45.93108" lon="2.98902">
        <ele>713.44</ele>
        <time>2021-08-14T11:50:01Z</time>
      </trkpt>
      <trkpt lat="45.93103" lon="2.98869">
        <ele>714.88</ele>
        <time>2021-08-14T11:50:12Z</time>
      </trkpt>
      <trkpt lat="45.93098" lon="2.98843">
        <ele>716.32</ele>
        <time>2021-08-14T11:50:20Z</time>
      </trkpt>
      <trkpt lat="45.9309" lon="2.98818">
        <ele>716.8</ele>
        <time>2021-08-14T11:50:28Z</time>
      </trkpt>
      <trkpt lat="45.93075" lon="2.98809">
        <ele>716.32</ele>
        <time>2021-08-14T11:50:33Z</time>
      </trkpt>
      <trkpt lat="45.9304" lon="2.98795">
        <ele>716.32</ele>
        <time>2021-08-14T11:50:43Z</time>
      </trkpt>
      <trkpt lat="45.93001" lon="2.98792">
        <ele>716.32</ele>
        <time>2021-08-14T11:50:53Z</time>
      </trkpt>
      <trkpt lat="45.92979" lon="2.98795">
        <ele>716.8</ele>
        <time>2021-08-14T11:50:59Z</time>
      </trkpt>
      <trkpt lat="45.92976" lon="2.98798">
        <ele>716.8</ele>
        <time>2021-08-14T11:51:00Z</time>
      </trkpt>
      <trkpt lat="45.92975" lon="2.98801">
        <ele>716.8</ele>
        <time>2021-08-14T11:51:01Z</time>
      </trkpt>
      <trkpt lat="45.92967" lon="2.98815">
        <ele>715.84</ele>
        <time>2021-08-14T11:51:04Z</time>
      </trkpt>
      <trkpt lat="45.92963" lon="2.9882">
        <ele>715.36</ele>
        <time>2021-08-14T11:51:05Z</time>
      </trkpt>
      <trkpt lat="45.92958" lon="2.98824">
        <ele>714.4</ele>
        <time>2021-08-14T11:51:06Z</time>
      </trkpt>
      <trkpt lat="45.92952" lon="2.98827">
        <ele>713.92</ele>
        <time>2021-08-14T11:51:07Z</time>
      </trkpt>
      <trkpt lat="45.92945" lon="2.98828">
        <ele>713.92</ele>
        <time>2021-08-14T11:51:08Z</time>
      </trkpt>
      <trkpt lat="45.9294" lon="2.98829">
        <ele>713.92</ele>
        <time>2021-08-14T11:51:09Z</time>
      </trkpt>
      <trkpt lat="45.92933" lon="2.98831">
        <ele>713.92</ele>
        <time>2021-08-14T11:51:10Z</time>
      </trkpt>
      <trkpt lat="45.92906" lon="2.98839">
        <ele>715.36</ele>
        <time>2021-08-14T11:51:16Z</time>
      </trkpt>
      <trkpt lat="45.9289" lon="2.98848">
        <ele>716.8</ele>
        <time>2021-08-14T11:51:24Z</time>
      </trkpt>
      <trkpt lat="45.92875" lon="2.98857">
        <ele>718.24</ele>
        <time>2021-08-14T11:51:33Z</time>
      </trkpt>
      <trkpt lat="45.92861" lon="2.98866">
        <ele>719.68</ele>
        <time>2021-08-14T11:51:42Z</time>
      </trkpt>
      <trkpt lat="45.9285" lon="2.98877">
        <ele>721.13</ele>
        <time>2021-08-14T11:51:51Z</time>
      </trkpt>
      <trkpt lat="45.92841" lon="2.98886">
        <ele>722.09</ele>
        <time>2021-08-14T11:51:58Z</time>
      </trkpt>
      <trkpt lat="45.92826" lon="2.98894">
        <ele>723.05</ele>
        <time>2021-08-14T11:52:06Z</time>
      </trkpt>
      <trkpt lat="45.92804" lon="2.98898">
        <ele>723.53</ele>
        <time>2021-08-14T11:52:14Z</time>
      </trkpt>
      <trkpt lat="45.92793" lon="2.989">
        <ele>723.53</ele>
        <time>2021-08-14T11:52:17Z</time>
      </trkpt>
      <trkpt lat="45.92788" lon="2.989">
        <ele>723.53</ele>
        <time>2021-08-14T11:52:18Z</time>
      </trkpt>
      <trkpt lat="45.92784" lon="2.98901">
        <ele>723.53</ele>
        <time>2021-08-14T11:52:19Z</time>
      </trkpt>
      <trkpt lat="45.92738" lon="2.98908">
        <ele>723.53</ele>
        <time>2021-08-14T11:52:30Z</time>
      </trkpt>
      <trkpt lat="45.9271" lon="2.98913">
        <ele>723.53</ele>
        <time>2021-08-14T11:52:39Z</time>
      </trkpt>
      <trkpt lat="45.92689" lon="2.98907">
        <ele>724.49</ele>
        <time>2021-08-14T11:52:47Z</time>
      </trkpt>
      <trkpt lat="45.92667" lon="2.98898">
        <ele>725.93</ele>
        <time>2021-08-14T11:52:56Z</time>
      </trkpt>
      <trkpt lat="45.92655" lon="2.98893">
        <ele>727.37</ele>
        <time>2021-08-14T11:53:03Z</time>
      </trkpt>
      <trkpt lat="45.92635" lon="2.98888">
        <ele>728.34</ele>
        <time>2021-08-14T11:53:12Z</time>
      </trkpt>
      <trkpt lat="45.92611" lon="2.98886">
        <ele>729.78</ele>
        <time>2021-08-14T11:53:21Z</time>
      </trkpt>
      <trkpt lat="45.9259" lon="2.98884">
        <ele>730.74</ele>
        <time>2021-08-14T11:53:29Z</time>
      </trkpt>
      <trkpt lat="45.92572" lon="2.98884">
        <ele>732.18</ele>
        <time>2021-08-14T11:53:37Z</time>
      </trkpt>
      <trkpt lat="45.92545" lon="2.98887">
        <ele>734.1</ele>
        <time>2021-08-14T11:53:48Z</time>
      </trkpt>
      <trkpt lat="45.92513" lon="2.98888">
        <ele>734.58</ele>
        <time>2021-08-14T11:53:58Z</time>
      </trkpt>
      <trkpt lat="45.92477" lon="2.98881">
        <ele>734.58</ele>
        <time>2021-08-14T11:54:07Z</time>
      </trkpt>
      <trkpt lat="45.92442" lon="2.98863">
        <ele>734.58</ele>
        <time>2021-08-14T11:54:15Z</time>
      </trkpt>
      <trkpt lat="45.92433" lon="2.98859">
        <ele>734.58</ele>
        <time>2021-08-14T11:54:17Z</time>
      </trkpt>
      <trkpt lat="45.92388" lon="2.98832">
        <ele>734.58</ele>
        <time>2021-08-14T11:54:27Z</time>
      </trkpt>
      <trkpt lat="45.9235" lon="2.98798">
        <ele>734.58</ele>
        <time>2021-08-14T11:54:36Z</time>
      </trkpt>
      <trkpt lat="45.92322" lon="2.98773">
        <ele>735.55</ele>
        <time>2021-08-14T11:54:44Z</time>
      </trkpt>
      <trkpt lat="45.92307" lon="2.98756">
        <ele>736.03</ele>
        <time>2021-08-14T11:54:49Z</time>
      </trkpt>
      <trkpt lat="45.923" lon="2.98745">
        <ele>734.58</ele>
        <time>2021-08-14T11:54:51Z</time>
      </trkpt>
      <trkpt lat="45.92281" lon="2.98707">
        <ele>732.66</ele>
        <time>2021-08-14T11:54:56Z</time>
      </trkpt>
      <trkpt lat="45.9225" lon="2.98656">
        <ele>730.26</ele>
        <time>2021-08-14T11:55:02Z</time>
      </trkpt>
      <trkpt lat="45.92244" lon="2.9865">
        <ele>730.26</ele>
        <time>2021-08-14T11:55:03Z</time>
      </trkpt>
      <trkpt lat="45.9221" lon="2.98619">
        <ele>730.26</ele>
        <time>2021-08-14T11:55:09Z</time>
      </trkpt>
      <trkpt lat="45.92192" lon="2.98597">
        <ele>731.22</ele>
        <time>2021-08-14T11:55:13Z</time>
      </trkpt>
      <trkpt lat="45.92177" lon="2.98575">
        <ele>732.66</ele>
        <time>2021-08-14T11:55:17Z</time>
      </trkpt>
      <trkpt lat="45.92156" lon="2.98555">
        <ele>732.66</ele>
        <time>2021-08-14T11:55:22Z</time>
      </trkpt>
      <trkpt lat="45.92151" lon="2.98551">
        <ele>732.66</ele>
        <time>2021-08-14T11:55:23Z</time>
      </trkpt>
      <trkpt lat="45.9214" lon="2.98544">
        <ele>732.66</ele>
        <time>2021-08-14T11:55:25Z</time>
      </trkpt>
      <trkpt lat="45.9213" lon="2.98533">
        <ele>730.26</ele>
        <time>2021-08-14T11:55:27Z</time>
      </trkpt>
      <trkpt lat="45.92124" lon="2.98527">
        <ele>730.26</ele>
        <time>2021-08-14T11:55:28Z</time>
      </trkpt>
      <trkpt lat="45.92095" lon="2.98487">
        <ele>729.3</ele>
        <time>2021-08-14T11:55:34Z</time>
      </trkpt>
      <trkpt lat="45.92083" lon="2.98467">
        <ele>729.3</ele>
        <time>2021-08-14T11:55:37Z</time>
      </trkpt>
      <trkpt lat="45.92065" lon="2.98424">
        <ele>728.82</ele>
        <time>2021-08-14T11:55:43Z</time>
      </trkpt>
      <trkpt lat="45.92057" lon="2.98411">
        <ele>728.82</ele>
        <time>2021-08-14T11:55:45Z</time>
      </trkpt>
      <trkpt lat="45.92054" lon="2.98406">
        <ele>728.34</ele>
        <time>2021-08-14T11:55:46Z</time>
      </trkpt>
      <trkpt lat="45.92021" lon="2.98358">
        <ele>727.37</ele>
        <time>2021-08-14T11:55:54Z</time>
      </trkpt>
      <trkpt lat="45.92003" lon="2.98313">
        <ele>725.93</ele>
        <time>2021-08-14T11:56:00Z</time>
      </trkpt>
      <trkpt lat="45.91997" lon="2.98295">
        <ele>724.97</ele>
        <time>2021-08-14T11:56:02Z</time>
      </trkpt>
      <trkpt lat="45.91995" lon="2.98286">
        <ele>724.49</ele>
        <time>2021-08-14T11:56:03Z</time>
      </trkpt>
      <trkpt lat="45.91995" lon="2.98276">
        <ele>724.49</ele>
        <time>2021-08-14T11:56:04Z</time>
      </trkpt>
      <trkpt lat="45.91995" lon="2.98267">
        <ele>724.01</ele>
        <time>2021-08-14T11:56:05Z</time>
      </trkpt>
      <trkpt lat="45.91996" lon="2.98258">
        <ele>724.01</ele>
        <time>2021-08-14T11:56:06Z</time>
      </trkpt>
      <trkpt lat="45.91997" lon="2.98249">
        <ele>723.05</ele>
        <time>2021-08-14T11:56:07Z</time>
      </trkpt>
      <trkpt lat="45.91995" lon="2.9824">
        <ele>722.57</ele>
        <time>2021-08-14T11:56:08Z</time>
      </trkpt>
      <trkpt lat="45.91991" lon="2.98233">
        <ele>722.09</ele>
        <time>2021-08-14T11:56:09Z</time>
      </trkpt>
      <trkpt lat="45.91985" lon="2.98226">
        <ele>722.09</ele>
        <time>2021-08-14T11:56:10Z</time>
      </trkpt>
      <trkpt lat="45.9198" lon="2.98222">
        <ele>722.09</ele>
        <time>2021-08-14T11:56:11Z</time>
      </trkpt>
      <trkpt lat="45.91975" lon="2.98218">
        <ele>722.09</ele>
        <time>2021-08-14T11:56:12Z</time>
      </trkpt>
      <trkpt lat="45.91968" lon="2.98216">
        <ele>722.09</ele>
        <time>2021-08-14T11:56:13Z</time>
      </trkpt>
      <trkpt lat="45.91964" lon="2.98218">
        <ele>722.09</ele>
        <time>2021-08-14T11:56:14Z</time>
      </trkpt>
      <trkpt lat="45.9196" lon="2.98222">
        <ele>722.09</ele>
        <time>2021-08-14T11:56:15Z</time>
      </trkpt>
      <trkpt lat="45.91958" lon="2.98228">
        <ele>722.09</ele>
        <time>2021-08-14T11:56:16Z</time>
      </trkpt>
      <trkpt lat="45.91956" lon="2.98233">
        <ele>722.09</ele>
        <time>2021-08-14T11:56:17Z</time>
      </trkpt>
      <trkpt lat="45.91953" lon="2.98237">
        <ele>722.57</ele>
        <time>2021-08-14T11:56:18Z</time>
      </trkpt>
      <trkpt lat="45.91949" lon="2.9824">
        <ele>722.57</ele>
        <time>2021-08-14T11:56:19Z</time>
      </trkpt>
      <trkpt lat="45.91947" lon="2.98243">
        <ele>722.09</ele>
        <time>2021-08-14T11:56:20Z</time>
      </trkpt>
      <trkpt lat="45.91943" lon="2.98245">
        <ele>722.57</ele>
        <time>2021-08-14T11:56:21Z</time>
      </trkpt>
      <trkpt lat="45.9194" lon="2.98247">
        <ele>722.57</ele>
        <time>2021-08-14T11:56:22Z</time>
      </trkpt>
      <trkpt lat="45.9192" lon="2.98259">
        <ele>722.09</ele>
        <time>2021-08-14T11:56:28Z</time>
      </trkpt>
      <trkpt lat="45.91898" lon="2.98273">
        <ele>722.09</ele>
        <time>2021-08-14T11:56:36Z</time>
      </trkpt>
      <trkpt lat="45.91881" lon="2.98278">
        <ele>721.13</ele>
        <time>2021-08-14T11:56:41Z</time>
      </trkpt>
      <trkpt lat="45.91876" lon="2.98278">
        <ele>721.13</ele>
        <time>2021-08-14T11:56:42Z</time>
      </trkpt>
      <trkpt lat="45.91863" lon="2.98275">
        <ele>720.16</ele>
        <time>2021-08-14T11:56:45Z</time>
      </trkpt>
      <trkpt lat="45.91858" lon="2.98273">
        <ele>719.68</ele>
        <time>2021-08-14T11:56:46Z</time>
      </trkpt>
      <trkpt lat="45.9184" lon="2.98271">
        <ele>719.2</ele>
        <time>2021-08-14T11:56:49Z</time>
      </trkpt>
      <trkpt lat="45.91834" lon="2.98272">
        <ele>719.2</ele>
        <time>2021-08-14T11:56:50Z</time>
      </trkpt>
      <trkpt lat="45.91829" lon="2.98275">
        <ele>719.2</ele>
        <time>2021-08-14T11:56:51Z</time>
      </trkpt>
      <trkpt lat="45.91824" lon="2.9828">
        <ele>718.72</ele>
        <time>2021-08-14T11:56:52Z</time>
      </trkpt>
      <trkpt lat="45.91821" lon="2.98286">
        <ele>718.72</ele>
        <time>2021-08-14T11:56:53Z</time>
      </trkpt>
      <trkpt lat="45.9182" lon="2.98292">
        <ele>718.72</ele>
        <time>2021-08-14T11:56:54Z</time>
      </trkpt>
      <trkpt lat="45.91818" lon="2.98297">
        <ele>720.16</ele>
        <time>2021-08-14T11:56:55Z</time>
      </trkpt>
      <trkpt lat="45.91818" lon="2.98302">
        <ele>720.16</ele>
        <time>2021-08-14T11:56:56Z</time>
      </trkpt>
      <trkpt lat="45.91816" lon="2.98324">
        <ele>721.13</ele>
        <time>2021-08-14T11:57:02Z</time>
      </trkpt>
      <trkpt lat="45.91815" lon="2.98348">
        <ele>723.53</ele>
        <time>2021-08-14T11:57:13Z</time>
      </trkpt>
      <trkpt lat="45.91813" lon="2.98363">
        <ele>724.97</ele>
        <time>2021-08-14T11:57:21Z</time>
      </trkpt>
      <trkpt lat="45.9181" lon="2.98383">
        <ele>725.45</ele>
        <time>2021-08-14T11:57:31Z</time>
      </trkpt>
      <trkpt lat="45.91805" lon="2.98399">
        <ele>726.41</ele>
        <time>2021-08-14T11:57:39Z</time>
      </trkpt>
      <trkpt lat="45.91798" lon="2.98419">
        <ele>726.41</ele>
        <time>2021-08-14T11:57:48Z</time>
      </trkpt>
      <trkpt lat="45.9179" lon="2.98439">
        <ele>727.86</ele>
        <time>2021-08-14T11:57:58Z</time>
      </trkpt>
      <trkpt lat="45.91782" lon="2.98463">
        <ele>728.82</ele>
        <time>2021-08-14T11:58:09Z</time>
      </trkpt>
      <trkpt lat="45.91776" lon="2.9848">
        <ele>729.78</ele>
        <time>2021-08-14T11:58:17Z</time>
      </trkpt>
      <trkpt lat="45.91774" lon="2.98486">
        <ele>730.26</ele>
        <time>2021-08-14T11:58:20Z</time>
      </trkpt>
      <trkpt lat="45.91773" lon="2.98488">
        <ele>730.74</ele>
        <time>2021-08-14T11:58:21Z</time>
      </trkpt>
      <trkpt lat="45.91773" lon="2.98491">
        <ele>730.74</ele>
        <time>2021-08-14T11:58:22Z</time>
      </trkpt>
      <trkpt lat="45.91773" lon="2.98494">
        <ele>730.74</ele>
        <time>2021-08-14T11:58:23Z</time>
      </trkpt>
      <trkpt lat="45.91772" lon="2.98496">
        <ele>731.22</ele>
        <time>2021-08-14T11:58:24Z</time>
      </trkpt>
      <trkpt lat="45.91772" lon="2.98497">
        <ele>731.22</ele>
        <time>2021-08-14T11:58:25Z</time>
      </trkpt>
      <trkpt lat="45.91771" lon="2.98499">
        <ele>731.22</ele>
        <time>2021-08-14T11:58:26Z</time>
      </trkpt>
      <trkpt lat="45.91763" lon="2.9852">
        <ele>732.66</ele>
        <time>2021-08-14T11:58:37Z</time>
      </trkpt>
      <trkpt lat="45.9176" lon="2.98526">
        <ele>733.14</ele>
        <time>2021-08-14T11:58:41Z</time>
      </trkpt>
      <trkpt lat="45.91759" lon="2.98528">
        <ele>733.14</ele>
        <time>2021-08-14T11:58:42Z</time>
      </trkpt>
      <trkpt lat="45.91758" lon="2.9853">
        <ele>733.14</ele>
        <time>2021-08-14T11:58:43Z</time>
      </trkpt>
      <trkpt lat="45.91757" lon="2.98531">
        <ele>733.62</ele>
        <time>2021-08-14T11:58:44Z</time>
      </trkpt>
      <trkpt lat="45.91756" lon="2.98533">
        <ele>733.62</ele>
        <time>2021-08-14T11:58:45Z</time>
      </trkpt>
      <trkpt lat="45.91756" lon="2.98535">
        <ele>733.62</ele>
        <time>2021-08-14T11:58:46Z</time>
      </trkpt>
      <trkpt lat="45.91748" lon="2.98548">
        <ele>734.58</ele>
        <time>2021-08-14T11:58:54Z</time>
      </trkpt>
      <trkpt lat="45.9174" lon="2.98561">
        <ele>735.55</ele>
        <time>2021-08-14T11:59:03Z</time>
      </trkpt>
      <trkpt lat="45.91731" lon="2.9857">
        <ele>736.51</ele>
        <time>2021-08-14T11:59:11Z</time>
      </trkpt>
      <trkpt lat="45.91721" lon="2.98579">
        <ele>737.47</ele>
        <time>2021-08-14T11:59:19Z</time>
      </trkpt>
      <trkpt lat="45.9172" lon="2.9858">
        <ele>737.47</ele>
        <time>2021-08-14T11:59:20Z</time>
      </trkpt>
      <trkpt lat="45.91708" lon="2.98592">
        <ele>738.43</ele>
        <time>2021-08-14T11:59:29Z</time>
      </trkpt>
      <trkpt lat="45.91698" lon="2.98601">
        <ele>739.39</ele>
        <time>2021-08-14T11:59:36Z</time>
      </trkpt>
      <trkpt lat="45.91696" lon="2.98603">
        <ele>739.39</ele>
        <time>2021-08-14T11:59:37Z</time>
      </trkpt>
      <trkpt lat="45.91694" lon="2.98604">
        <ele>739.39</ele>
        <time>2021-08-14T11:59:38Z</time>
      </trkpt>
      <trkpt lat="45.91693" lon="2.98606">
        <ele>739.87</ele>
        <time>2021-08-14T11:59:39Z</time>
      </trkpt>
      <trkpt lat="45.91691" lon="2.98608">
        <ele>739.87</ele>
        <time>2021-08-14T11:59:40Z</time>
      </trkpt>
      <trkpt lat="45.9169" lon="2.9861">
        <ele>739.87</ele>
        <time>2021-08-14T11:59:41Z</time>
      </trkpt>
      <trkpt lat="45.91675" lon="2.98626">
        <ele>740.35</ele>
        <time>2021-08-14T11:59:50Z</time>
      </trkpt>
      <trkpt lat="45.91664" lon="2.98646">
        <ele>741.79</ele>
        <time>2021-08-14T11:59:59Z</time>
      </trkpt>
      <trkpt lat="45.91658" lon="2.98661">
        <ele>741.79</ele>
        <time>2021-08-14T12:00:06Z</time>
      </trkpt>
      <trkpt lat="45.91655" lon="2.98681">
        <ele>742.28</ele>
        <time>2021-08-14T12:00:14Z</time>
      </trkpt>
      <trkpt lat="45.91656" lon="2.987">
        <ele>743.24</ele>
        <time>2021-08-14T12:00:21Z</time>
      </trkpt>
      <trkpt lat="45.91656" lon="2.98724">
        <ele>745.16</ele>
        <time>2021-08-14T12:00:30Z</time>
      </trkpt>
      <trkpt lat="45.91651" lon="2.98742">
        <ele>745.64</ele>
        <time>2021-08-14T12:00:37Z</time>
      </trkpt>
      <trkpt lat="45.9164" lon="2.98775">
        <ele>746.6</ele>
        <time>2021-08-14T12:00:47Z</time>
      </trkpt>
      <trkpt lat="45.91627" lon="2.98808">
        <ele>747.08</ele>
        <time>2021-08-14T12:00:58Z</time>
      </trkpt>
      <trkpt lat="45.91614" lon="2.98826">
        <ele>747.56</ele>
        <time>2021-08-14T12:01:05Z</time>
      </trkpt>
      <trkpt lat="45.91598" lon="2.98824">
        <ele>748.52</ele>
        <time>2021-08-14T12:01:12Z</time>
      </trkpt>
      <trkpt lat="45.9158" lon="2.98815">
        <ele>749</ele>
        <time>2021-08-14T12:01:21Z</time>
      </trkpt>
      <trkpt lat="45.91567" lon="2.98809">
        <ele>749.49</ele>
        <time>2021-08-14T12:01:28Z</time>
      </trkpt>
      <trkpt lat="45.91559" lon="2.988">
        <ele>750.93</ele>
        <time>2021-08-14T12:01:35Z</time>
      </trkpt>
      <trkpt lat="45.91559" lon="2.98798">
        <ele>750.93</ele>
        <time>2021-08-14T12:01:36Z</time>
      </trkpt>
      <trkpt lat="45.91558" lon="2.98796">
        <ele>750.93</ele>
        <time>2021-08-14T12:01:37Z</time>
      </trkpt>
      <trkpt lat="45.91558" lon="2.98793">
        <ele>751.41</ele>
        <time>2021-08-14T12:01:38Z</time>
      </trkpt>
      <trkpt lat="45.91557" lon="2.98791">
        <ele>751.41</ele>
        <time>2021-08-14T12:01:39Z</time>
      </trkpt>
      <trkpt lat="45.91557" lon="2.98789">
        <ele>751.89</ele>
        <time>2021-08-14T12:01:40Z</time>
      </trkpt>
      <trkpt lat="45.91557" lon="2.98786">
        <ele>751.41</ele>
        <time>2021-08-14T12:01:41Z</time>
      </trkpt>
      <trkpt lat="45.91557" lon="2.98784">
        <ele>751.41</ele>
        <time>2021-08-14T12:01:42Z</time>
      </trkpt>
      <trkpt lat="45.91554" lon="2.98766">
        <ele>752.37</ele>
        <time>2021-08-14T12:01:51Z</time>
      </trkpt>
      <trkpt lat="45.91554" lon="2.98761">
        <ele>752.85</ele>
        <time>2021-08-14T12:01:53Z</time>
      </trkpt>
      <trkpt lat="45.91553" lon="2.98758">
        <ele>752.85</ele>
        <time>2021-08-14T12:01:54Z</time>
      </trkpt>
      <trkpt lat="45.91553" lon="2.98755">
        <ele>752.85</ele>
        <time>2021-08-14T12:01:55Z</time>
      </trkpt>
      <trkpt lat="45.91553" lon="2.98753">
        <ele>752.85</ele>
        <time>2021-08-14T12:01:56Z</time>
      </trkpt>
      <trkpt lat="45.91553" lon="2.98751">
        <ele>752.85</ele>
        <time>2021-08-14T12:01:57Z</time>
      </trkpt>
      <trkpt lat="45.91553" lon="2.98749">
        <ele>753.33</ele>
        <time>2021-08-14T12:01:58Z</time>
      </trkpt>
      <trkpt lat="45.91553" lon="2.98746">
        <ele>753.33</ele>
        <time>2021-08-14T12:01:59Z</time>
      </trkpt>
      <trkpt lat="45.91552" lon="2.98744">
        <ele>753.33</ele>
        <time>2021-08-14T12:02:00Z</time>
      </trkpt>
      <trkpt lat="45.91552" lon="2.98741">
        <ele>753.33</ele>
        <time>2021-08-14T12:02:01Z</time>
      </trkpt>
      <trkpt lat="45.91552" lon="2.98739">
        <ele>753.33</ele>
        <time>2021-08-14T12:02:02Z</time>
      </trkpt>
      <trkpt lat="45.91551" lon="2.98727">
        <ele>754.29</ele>
        <time>2021-08-14T12:02:07Z</time>
      </trkpt>
      <trkpt lat="45.91551" lon="2.98725">
        <ele>754.29</ele>
        <time>2021-08-14T12:02:08Z</time>
      </trkpt>
      <trkpt lat="45.91551" lon="2.98722">
        <ele>754.29</ele>
        <time>2021-08-14T12:02:09Z</time>
      </trkpt>
      <trkpt lat="45.91551" lon="2.9872">
        <ele>754.29</ele>
        <time>2021-08-14T12:02:10Z</time>
      </trkpt>
      <trkpt lat="45.9155" lon="2.98718">
        <ele>754.29</ele>
        <time>2021-08-14T12:02:11Z</time>
      </trkpt>
      <trkpt lat="45.9155" lon="2.98716">
        <ele>754.29</ele>
        <time>2021-08-14T12:02:12Z</time>
      </trkpt>
      <trkpt lat="45.9155" lon="2.98714">
        <ele>754.29</ele>
        <time>2021-08-14T12:02:13Z</time>
      </trkpt>
      <trkpt lat="45.9155" lon="2.98712">
        <ele>754.29</ele>
        <time>2021-08-14T12:02:14Z</time>
      </trkpt>
      <trkpt lat="45.9155" lon="2.9871">
        <ele>754.29</ele>
        <time>2021-08-14T12:02:15Z</time>
      </trkpt>
      <trkpt lat="45.91549" lon="2.98707">
        <ele>754.29</ele>
        <time>2021-08-14T12:02:16Z</time>
      </trkpt>
      <trkpt lat="45.91549" lon="2.98705">
        <ele>754.29</ele>
        <time>2021-08-14T12:02:17Z</time>
      </trkpt>
      <trkpt lat="45.91549" lon="2.98702">
        <ele>754.29</ele>
        <time>2021-08-14T12:02:18Z</time>
      </trkpt>
      <trkpt lat="45.91549" lon="2.98699">
        <ele>754.77</ele>
        <time>2021-08-14T12:02:19Z</time>
      </trkpt>
      <trkpt lat="45.91547" lon="2.98683">
        <ele>755.25</ele>
        <time>2021-08-14T12:02:27Z</time>
      </trkpt>
      <trkpt lat="45.91546" lon="2.98666">
        <ele>756.69</ele>
        <time>2021-08-14T12:02:35Z</time>
      </trkpt>
      <trkpt lat="45.91546" lon="2.98664">
        <ele>756.69</ele>
        <time>2021-08-14T12:02:36Z</time>
      </trkpt>
      <trkpt lat="45.91546" lon="2.98661">
        <ele>756.69</ele>
        <time>2021-08-14T12:02:37Z</time>
      </trkpt>
      <trkpt lat="45.91546" lon="2.98659">
        <ele>756.69</ele>
        <time>2021-08-14T12:02:38Z</time>
      </trkpt>
      <trkpt lat="45.91546" lon="2.98657">
        <ele>756.69</ele>
        <time>2021-08-14T12:02:39Z</time>
      </trkpt>
      <trkpt lat="45.91546" lon="2.98655">
        <ele>756.69</ele>
        <time>2021-08-14T12:02:40Z</time>
      </trkpt>
      <trkpt lat="45.91546" lon="2.98652">
        <ele>757.18</ele>
        <time>2021-08-14T12:02:41Z</time>
      </trkpt>
      <trkpt lat="45.91546" lon="2.98636">
        <ele>758.14</ele>
        <time>2021-08-14T12:02:50Z</time>
      </trkpt>
      <trkpt lat="45.91546" lon="2.9862">
        <ele>759.1</ele>
        <time>2021-08-14T12:02:58Z</time>
      </trkpt>
      <trkpt lat="45.91545" lon="2.98601">
        <ele>760.06</ele>
        <time>2021-08-14T12:03:06Z</time>
      </trkpt>
      <trkpt lat="45.91542" lon="2.98583">
        <ele>760.54</ele>
        <time>2021-08-14T12:03:14Z</time>
      </trkpt>
      <trkpt lat="45.91537" lon="2.98565">
        <ele>761.5</ele>
        <time>2021-08-14T12:03:21Z</time>
      </trkpt>
      <trkpt lat="45.91531" lon="2.98544">
        <ele>762.94</ele>
        <time>2021-08-14T12:03:29Z</time>
      </trkpt>
      <trkpt lat="45.91521" lon="2.98526">
        <ele>763.9</ele>
        <time>2021-08-14T12:03:38Z</time>
      </trkpt>
      <trkpt lat="45.91513" lon="2.98514">
        <ele>764.87</ele>
        <time>2021-08-14T12:03:46Z</time>
      </trkpt>
      <trkpt lat="45.91504" lon="2.98497">
        <ele>765.83</ele>
        <time>2021-08-14T12:03:56Z</time>
      </trkpt>
      <trkpt lat="45.91495" lon="2.98484">
        <ele>767.27</ele>
        <time>2021-08-14T12:04:05Z</time>
      </trkpt>
      <trkpt lat="45.91488" lon="2.98469">
        <ele>768.23</ele>
        <time>2021-08-14T12:04:14Z</time>
      </trkpt>
      <trkpt lat="45.91481" lon="2.98451">
        <ele>769.19</ele>
        <time>2021-08-14T12:04:24Z</time>
      </trkpt>
      <trkpt lat="45.9148" lon="2.98449">
        <ele>770.15</ele>
        <time>2021-08-14T12:04:25Z</time>
      </trkpt>
      <trkpt lat="45.91479" lon="2.98447">
        <ele>770.15</ele>
        <time>2021-08-14T12:04:26Z</time>
      </trkpt>
      <trkpt lat="45.91479" lon="2.98446">
        <ele>770.15</ele>
        <time>2021-08-14T12:04:27Z</time>
      </trkpt>
      <trkpt lat="45.91479" lon="2.98444">
        <ele>770.15</ele>
        <time>2021-08-14T12:04:28Z</time>
      </trkpt>
      <trkpt lat="45.91478" lon="2.98443">
        <ele>770.63</ele>
        <time>2021-08-14T12:04:29Z</time>
      </trkpt>
      <trkpt lat="45.91477" lon="2.98441">
        <ele>770.63</ele>
        <time>2021-08-14T12:04:30Z</time>
      </trkpt>
      <trkpt lat="45.91476" lon="2.9844">
        <ele>770.63</ele>
        <time>2021-08-14T12:04:31Z</time>
      </trkpt>
      <trkpt lat="45.91473" lon="2.98432">
        <ele>771.11</ele>
        <time>2021-08-14T12:04:36Z</time>
      </trkpt>
      <trkpt lat="45.91472" lon="2.98431">
        <ele>771.6</ele>
        <time>2021-08-14T12:04:37Z</time>
      </trkpt>
      <trkpt lat="45.91472" lon="2.98429">
        <ele>771.6</ele>
        <time>2021-08-14T12:04:38Z</time>
      </trkpt>
      <trkpt lat="45.91464" lon="2.98413">
        <ele>773.04</ele>
        <time>2021-08-14T12:04:49Z</time>
      </trkpt>
      <trkpt lat="45.91455" lon="2.98406">
        <ele>774.48</ele>
        <time>2021-08-14T12:04:57Z</time>
      </trkpt>
      <trkpt lat="45.9145" lon="2.98403">
        <ele>774.96</ele>
        <time>2021-08-14T12:05:01Z</time>
      </trkpt>
      <trkpt lat="45.91435" lon="2.98399">
        <ele>775.92</ele>
        <time>2021-08-14T12:05:10Z</time>
      </trkpt>
      <trkpt lat="45.91418" lon="2.98392">
        <ele>776.88</ele>
        <time>2021-08-14T12:05:19Z</time>
      </trkpt>
      <trkpt lat="45.91406" lon="2.98385">
        <ele>777.36</ele>
        <time>2021-08-14T12:05:26Z</time>
      </trkpt>
      <trkpt lat="45.91396" lon="2.9838">
        <ele>777.36</ele>
        <time>2021-08-14T12:05:31Z</time>
      </trkpt>
      <trkpt lat="45.91394" lon="2.98379">
        <ele>777.36</ele>
        <time>2021-08-14T12:05:32Z</time>
      </trkpt>
      <trkpt lat="45.9138" lon="2.98369">
        <ele>778.81</ele>
        <time>2021-08-14T12:05:40Z</time>
      </trkpt>
      <trkpt lat="45.9137" lon="2.98357">
        <ele>779.29</ele>
        <time>2021-08-14T12:05:49Z</time>
      </trkpt>
      <trkpt lat="45.91365" lon="2.98351">
        <ele>779.29</ele>
        <time>2021-08-14T12:06:01Z</time>
      </trkpt>
      <trkpt lat="45.91348" lon="2.98332">
        <ele>779.29</ele>
        <time>2021-08-14T12:06:08Z</time>
      </trkpt>
      <trkpt lat="45.91326" lon="2.98308">
        <ele>779.29</ele>
        <time>2021-08-14T12:06:17Z</time>
      </trkpt>
      <trkpt lat="45.91302" lon="2.98286">
        <ele>776.4</ele>
        <time>2021-08-14T12:06:23Z</time>
      </trkpt>
      <trkpt lat="45.91271" lon="2.98266">
        <ele>774.48</ele>
        <time>2021-08-14T12:06:28Z</time>
      </trkpt>
      <trkpt lat="45.91264" lon="2.98263">
        <ele>774</ele>
        <time>2021-08-14T12:06:29Z</time>
      </trkpt>
      <trkpt lat="45.91257" lon="2.98262">
        <ele>773.52</ele>
        <time>2021-08-14T12:06:30Z</time>
      </trkpt>
      <trkpt lat="45.9125" lon="2.98261">
        <ele>773.04</ele>
        <time>2021-08-14T12:06:31Z</time>
      </trkpt>
      <trkpt lat="45.912" lon="2.98254">
        <ele>772.56</ele>
        <time>2021-08-14T12:06:38Z</time>
      </trkpt>
      <trkpt lat="45.91169" lon="2.98245">
        <ele>772.56</ele>
        <time>2021-08-14T12:06:44Z</time>
      </trkpt>
      <trkpt lat="45.91125" lon="2.98232">
        <ele>771.6</ele>
        <time>2021-08-14T12:06:54Z</time>
      </trkpt>
      <trkpt lat="45.91109" lon="2.98223">
        <ele>770.63</ele>
        <time>2021-08-14T12:06:57Z</time>
      </trkpt>
      <trkpt lat="45.91087" lon="2.98208">
        <ele>770.63</ele>
        <time>2021-08-14T12:07:01Z</time>
      </trkpt>
      <trkpt lat="45.91082" lon="2.98206">
        <ele>770.15</ele>
        <time>2021-08-14T12:07:02Z</time>
      </trkpt>
      <trkpt lat="45.91059" lon="2.98201">
        <ele>769.67</ele>
        <time>2021-08-14T12:07:06Z</time>
      </trkpt>
      <trkpt lat="45.91039" lon="2.982">
        <ele>769.67</ele>
        <time>2021-08-14T12:07:10Z</time>
      </trkpt>
      <trkpt lat="45.91035" lon="2.98201">
        <ele>769.67</ele>
        <time>2021-08-14T12:07:11Z</time>
      </trkpt>
      <trkpt lat="45.9102" lon="2.98201">
        <ele>769.67</ele>
        <time>2021-08-14T12:07:14Z</time>
      </trkpt>
      <trkpt lat="45.91013" lon="2.98201">
        <ele>771.11</ele>
        <time>2021-08-14T12:07:16Z</time>
      </trkpt>
      <trkpt lat="45.91008" lon="2.98201">
        <ele>771.11</ele>
        <time>2021-08-14T12:07:17Z</time>
      </trkpt>
      <trkpt lat="45.91004" lon="2.98199">
        <ele>771.11</ele>
        <time>2021-08-14T12:07:18Z</time>
      </trkpt>
      <trkpt lat="45.91001" lon="2.98197">
        <ele>771.11</ele>
        <time>2021-08-14T12:07:19Z</time>
      </trkpt>
      <trkpt lat="45.90998" lon="2.98195">
        <ele>771.6</ele>
        <time>2021-08-14T12:07:20Z</time>
      </trkpt>
      <trkpt lat="45.90994" lon="2.98194">
        <ele>771.6</ele>
        <time>2021-08-14T12:07:21Z</time>
      </trkpt>
      <trkpt lat="45.90975" lon="2.98182">
        <ele>772.56</ele>
        <time>2021-08-14T12:07:28Z</time>
      </trkpt>
      <trkpt lat="45.90962" lon="2.98171">
        <ele>773.04</ele>
        <time>2021-08-14T12:07:34Z</time>
      </trkpt>
      <trkpt lat="45.90942" lon="2.98158">
        <ele>773.52</ele>
        <time>2021-08-14T12:07:42Z</time>
      </trkpt>
      <trkpt lat="45.90919" lon="2.98148">
        <ele>774</ele>
        <time>2021-08-14T12:07:51Z</time>
      </trkpt>
      <trkpt lat="45.90895" lon="2.98139">
        <ele>774.48</ele>
        <time>2021-08-14T12:08:00Z</time>
      </trkpt>
      <trkpt lat="45.90868" lon="2.98129">
        <ele>775.44</ele>
        <time>2021-08-14T12:08:10Z</time>
      </trkpt>
      <trkpt lat="45.90862" lon="2.98128">
        <ele>775.44</ele>
        <time>2021-08-14T12:08:12Z</time>
      </trkpt>
      <trkpt lat="45.9086" lon="2.98128">
        <ele>775.44</ele>
        <time>2021-08-14T12:08:13Z</time>
      </trkpt>
      <trkpt lat="45.90857" lon="2.98127">
        <ele>775.44</ele>
        <time>2021-08-14T12:08:14Z</time>
      </trkpt>
      <trkpt lat="45.90854" lon="2.98126">
        <ele>775.44</ele>
        <time>2021-08-14T12:08:15Z</time>
      </trkpt>
      <trkpt lat="45.90851" lon="2.98124">
        <ele>775.92</ele>
        <time>2021-08-14T12:08:16Z</time>
      </trkpt>
      <trkpt lat="45.90849" lon="2.98123">
        <ele>775.92</ele>
        <time>2021-08-14T12:08:17Z</time>
      </trkpt>
      <trkpt lat="45.90829" lon="2.98112">
        <ele>775.92</ele>
        <time>2021-08-14T12:08:25Z</time>
      </trkpt>
      <trkpt lat="45.90818" lon="2.98107">
        <ele>776.88</ele>
        <time>2021-08-14T12:08:32Z</time>
      </trkpt>
      <trkpt lat="45.90817" lon="2.98106">
        <ele>776.88</ele>
        <time>2021-08-14T12:08:33Z</time>
      </trkpt>
      <trkpt lat="45.90815" lon="2.98105">
        <ele>776.88</ele>
        <time>2021-08-14T12:08:34Z</time>
      </trkpt>
      <trkpt lat="45.90798" lon="2.98109">
        <ele>776.88</ele>
        <time>2021-08-14T12:08:41Z</time>
      </trkpt>
      <trkpt lat="45.90773" lon="2.98122">
        <ele>776.4</ele>
        <time>2021-08-14T12:08:50Z</time>
      </trkpt>
      <trkpt lat="45.90754" lon="2.9813">
        <ele>777.36</ele>
        <time>2021-08-14T12:08:57Z</time>
      </trkpt>
      <trkpt lat="45.90732" lon="2.98132">
        <ele>777.84</ele>
        <time>2021-08-14T12:09:05Z</time>
      </trkpt>
      <trkpt lat="45.9071" lon="2.98132">
        <ele>778.32</ele>
        <time>2021-08-14T12:09:13Z</time>
      </trkpt>
      <trkpt lat="45.90694" lon="2.98133">
        <ele>778.81</ele>
        <time>2021-08-14T12:09:19Z</time>
      </trkpt>
      <trkpt lat="45.90691" lon="2.98133">
        <ele>778.81</ele>
        <time>2021-08-14T12:09:20Z</time>
      </trkpt>
      <trkpt lat="45.90688" lon="2.98133">
        <ele>778.81</ele>
        <time>2021-08-14T12:09:21Z</time>
      </trkpt>
      <trkpt lat="45.90685" lon="2.98133">
        <ele>778.81</ele>
        <time>2021-08-14T12:09:22Z</time>
      </trkpt>
      <trkpt lat="45.90682" lon="2.98134">
        <ele>778.81</ele>
        <time>2021-08-14T12:09:23Z</time>
      </trkpt>
      <trkpt lat="45.9066" lon="2.98134">
        <ele>779.29</ele>
        <time>2021-08-14T12:09:30Z</time>
      </trkpt>
      <trkpt lat="45.90639" lon="2.98136">
        <ele>779.77</ele>
        <time>2021-08-14T12:09:37Z</time>
      </trkpt>
      <trkpt lat="45.90611" lon="2.9814">
        <ele>780.25</ele>
        <time>2021-08-14T12:09:46Z</time>
      </trkpt>
      <trkpt lat="45.90585" lon="2.98143">
        <ele>781.21</ele>
        <time>2021-08-14T12:09:55Z</time>
      </trkpt>
      <trkpt lat="45.90557" lon="2.98146">
        <ele>781.69</ele>
        <time>2021-08-14T12:10:04Z</time>
      </trkpt>
      <trkpt lat="45.90529" lon="2.98147">
        <ele>782.17</ele>
        <time>2021-08-14T12:10:13Z</time>
      </trkpt>
      <trkpt lat="45.90495" lon="2.98143">
        <ele>782.65</ele>
        <time>2021-08-14T12:10:24Z</time>
      </trkpt>
      <trkpt lat="45.90466" lon="2.98138">
        <ele>782.65</ele>
        <time>2021-08-14T12:10:33Z</time>
      </trkpt>
      <trkpt lat="45.90436" lon="2.98126">
        <ele>783.13</ele>
        <time>2021-08-14T12:10:43Z</time>
      </trkpt>
      <trkpt lat="45.90411" lon="2.98112">
        <ele>784.09</ele>
        <time>2021-08-14T12:10:52Z</time>
      </trkpt>
      <trkpt lat="45.90395" lon="2.98099">
        <ele>784.09</ele>
        <time>2021-08-14T12:10:58Z</time>
      </trkpt>
      <trkpt lat="45.9037" lon="2.98076">
        <ele>784.57</ele>
        <time>2021-08-14T12:11:07Z</time>
      </trkpt>
      <trkpt lat="45.90343" lon="2.98043">
        <ele>785.05</ele>
        <time>2021-08-14T12:11:18Z</time>
      </trkpt>
      <trkpt lat="45.9032" lon="2.98012">
        <ele>786.02</ele>
        <time>2021-08-14T12:11:28Z</time>
      </trkpt>
      <trkpt lat="45.90299" lon="2.9798">
        <ele>786.98</ele>
        <time>2021-08-14T12:11:38Z</time>
      </trkpt>
      <trkpt lat="45.9028" lon="2.97945">
        <ele>787.94</ele>
        <time>2021-08-14T12:11:48Z</time>
      </trkpt>
      <trkpt lat="45.90264" lon="2.97918">
        <ele>788.9</ele>
        <time>2021-08-14T12:11:57Z</time>
      </trkpt>
      <trkpt lat="45.90251" lon="2.97897">
        <ele>789.86</ele>
        <time>2021-08-14T12:12:04Z</time>
      </trkpt>
      <trkpt lat="45.90237" lon="2.97879">
        <ele>790.34</ele>
        <time>2021-08-14T12:12:10Z</time>
      </trkpt>
      <trkpt lat="45.90214" lon="2.97849">
        <ele>790.34</ele>
        <time>2021-08-14T12:12:18Z</time>
      </trkpt>
      <trkpt lat="45.90189" lon="2.97814">
        <ele>788.42</ele>
        <time>2021-08-14T12:12:26Z</time>
      </trkpt>
      <trkpt lat="45.90172" lon="2.97794">
        <ele>787.94</ele>
        <time>2021-08-14T12:12:31Z</time>
      </trkpt>
      <trkpt lat="45.90169" lon="2.9779">
        <ele>787.94</ele>
        <time>2021-08-14T12:12:32Z</time>
      </trkpt>
      <trkpt lat="45.90149" lon="2.9776">
        <ele>786.5</ele>
        <time>2021-08-14T12:12:40Z</time>
      </trkpt>
      <trkpt lat="45.90138" lon="2.97761">
        <ele>785.53</ele>
        <time>2021-08-14T12:12:43Z</time>
      </trkpt>
      <trkpt lat="45.90135" lon="2.97766">
        <ele>785.05</ele>
        <time>2021-08-14T12:12:44Z</time>
      </trkpt>
      <trkpt lat="45.90134" lon="2.97772">
        <ele>785.05</ele>
        <time>2021-08-14T12:12:45Z</time>
      </trkpt>
      <trkpt lat="45.9012" lon="2.97828">
        <ele>782.17</ele>
        <time>2021-08-14T12:12:53Z</time>
      </trkpt>
      <trkpt lat="45.90113" lon="2.97858">
        <ele>781.21</ele>
        <time>2021-08-14T12:12:57Z</time>
      </trkpt>
      <trkpt lat="45.90111" lon="2.97866">
        <ele>781.21</ele>
        <time>2021-08-14T12:12:58Z</time>
      </trkpt>
      <trkpt lat="45.90104" lon="2.97897">
        <ele>778.81</ele>
        <time>2021-08-14T12:13:02Z</time>
      </trkpt>
      <trkpt lat="45.90098" lon="2.97936">
        <ele>776.88</ele>
        <time>2021-08-14T12:13:06Z</time>
      </trkpt>
      <trkpt lat="45.9009" lon="2.97977">
        <ele>774.96</ele>
        <time>2021-08-14T12:13:10Z</time>
      </trkpt>
      <trkpt lat="45.90075" lon="2.9803">
        <ele>774.96</ele>
        <time>2021-08-14T12:13:16Z</time>
      </trkpt>
      <trkpt lat="45.90068" lon="2.98049">
        <ele>776.88</ele>
        <time>2021-08-14T12:13:19Z</time>
      </trkpt>
      <trkpt lat="45.90058" lon="2.98068">
        <ele>778.81</ele>
        <time>2021-08-14T12:13:24Z</time>
      </trkpt>
      <trkpt lat="45.90048" lon="2.98084">
        <ele>780.25</ele>
        <time>2021-08-14T12:13:31Z</time>
      </trkpt>
      <trkpt lat="45.90039" lon="2.98098">
        <ele>781.21</ele>
        <time>2021-08-14T12:13:38Z</time>
      </trkpt>
      <trkpt lat="45.90027" lon="2.98128">
        <ele>782.17</ele>
        <time>2021-08-14T12:13:51Z</time>
      </trkpt>
      <trkpt lat="45.90019" lon="2.98156">
        <ele>782.65</ele>
        <time>2021-08-14T12:14:01Z</time>
      </trkpt>
      <trkpt lat="45.90012" lon="2.9818">
        <ele>784.09</ele>
        <time>2021-08-14T12:14:10Z</time>
      </trkpt>
      <trkpt lat="45.89998" lon="2.98198">
        <ele>784.57</ele>
        <time>2021-08-14T12:14:18Z</time>
      </trkpt>
      <trkpt lat="45.89976" lon="2.98219">
        <ele>785.05</ele>
        <time>2021-08-14T12:14:28Z</time>
      </trkpt>
      <trkpt lat="45.89957" lon="2.98231">
        <ele>785.53</ele>
        <time>2021-08-14T12:14:35Z</time>
      </trkpt>
      <trkpt lat="45.89931" lon="2.98245">
        <ele>785.53</ele>
        <time>2021-08-14T12:14:44Z</time>
      </trkpt>
      <trkpt lat="45.89908" lon="2.98255">
        <ele>786.02</ele>
        <time>2021-08-14T12:14:51Z</time>
      </trkpt>
      <trkpt lat="45.89881" lon="2.98267">
        <ele>786.5</ele>
        <time>2021-08-14T12:15:00Z</time>
      </trkpt>
      <trkpt lat="45.89855" lon="2.98286">
        <ele>786.5</ele>
        <time>2021-08-14T12:15:09Z</time>
      </trkpt>
      <trkpt lat="45.89837" lon="2.98309">
        <ele>786.5</ele>
        <time>2021-08-14T12:15:15Z</time>
      </trkpt>
      <trkpt lat="45.89835" lon="2.98314">
        <ele>786.5</ele>
        <time>2021-08-14T12:15:16Z</time>
      </trkpt>
      <trkpt lat="45.89821" lon="2.98332">
        <ele>786.5</ele>
        <time>2021-08-14T12:15:20Z</time>
      </trkpt>
      <trkpt lat="45.89818" lon="2.98336">
        <ele>786.5</ele>
        <time>2021-08-14T12:15:21Z</time>
      </trkpt>
      <trkpt lat="45.89785" lon="2.98376">
        <ele>785.05</ele>
        <time>2021-08-14T12:15:30Z</time>
      </trkpt>
      <trkpt lat="45.89756" lon="2.98409">
        <ele>785.05</ele>
        <time>2021-08-14T12:15:38Z</time>
      </trkpt>
      <trkpt lat="45.8972" lon="2.98442">
        <ele>785.05</ele>
        <time>2021-08-14T12:15:48Z</time>
      </trkpt>
      <trkpt lat="45.897" lon="2.98471">
        <ele>786.02</ele>
        <time>2021-08-14T12:15:55Z</time>
      </trkpt>
      <trkpt lat="45.89699" lon="2.98476">
        <ele>786.02</ele>
        <time>2021-08-14T12:15:56Z</time>
      </trkpt>
      <trkpt lat="45.89684" lon="2.98519">
        <ele>787.46</ele>
        <time>2021-08-14T12:16:05Z</time>
      </trkpt>
      <trkpt lat="45.89667" lon="2.98546">
        <ele>787.46</ele>
        <time>2021-08-14T12:16:12Z</time>
      </trkpt>
      <trkpt lat="45.89644" lon="2.98575">
        <ele>787.46</ele>
        <time>2021-08-14T12:16:20Z</time>
      </trkpt>
      <trkpt lat="45.89627" lon="2.98595">
        <ele>787.94</ele>
        <time>2021-08-14T12:16:26Z</time>
      </trkpt>
      <trkpt lat="45.89605" lon="2.9862">
        <ele>788.9</ele>
        <time>2021-08-14T12:16:34Z</time>
      </trkpt>
      <trkpt lat="45.89585" lon="2.98641">
        <ele>788.9</ele>
        <time>2021-08-14T12:16:41Z</time>
      </trkpt>
      <trkpt lat="45.89561" lon="2.98667">
        <ele>788.9</ele>
        <time>2021-08-14T12:16:49Z</time>
      </trkpt>
      <trkpt lat="45.89547" lon="2.98667">
        <ele>788.9</ele>
        <time>2021-08-14T12:16:53Z</time>
      </trkpt>
      <trkpt lat="45.89522" lon="2.98645">
        <ele>788.9</ele>
        <time>2021-08-14T12:17:00Z</time>
      </trkpt>
      <trkpt lat="45.89506" lon="2.98632">
        <ele>788.9</ele>
        <time>2021-08-14T12:17:04Z</time>
      </trkpt>
      <trkpt lat="45.89503" lon="2.98629">
        <ele>788.9</ele>
        <time>2021-08-14T12:17:05Z</time>
      </trkpt>
      <trkpt lat="45.89499" lon="2.98625">
        <ele>788.9</ele>
        <time>2021-08-14T12:17:06Z</time>
      </trkpt>
      <trkpt lat="45.89471" lon="2.98612">
        <ele>788.9</ele>
        <time>2021-08-14T12:17:13Z</time>
      </trkpt>
      <trkpt lat="45.89447" lon="2.98612">
        <ele>788.9</ele>
        <time>2021-08-14T12:17:18Z</time>
      </trkpt>
      <trkpt lat="45.894" lon="2.98617">
        <ele>788.9</ele>
        <time>2021-08-14T12:17:27Z</time>
      </trkpt>
      <trkpt lat="45.8937" lon="2.98618">
        <ele>787.46</ele>
        <time>2021-08-14T12:17:33Z</time>
      </trkpt>
      <trkpt lat="45.89319" lon="2.98622">
        <ele>786.02</ele>
        <time>2021-08-14T12:17:42Z</time>
      </trkpt>
      <trkpt lat="45.89258" lon="2.98626">
        <ele>783.61</ele>
        <time>2021-08-14T12:17:51Z</time>
      </trkpt>
      <trkpt lat="45.89191" lon="2.98631">
        <ele>781.21</ele>
        <time>2021-08-14T12:18:00Z</time>
      </trkpt>
      <trkpt lat="45.89135" lon="2.98626">
        <ele>778.81</ele>
        <time>2021-08-14T12:18:07Z</time>
      </trkpt>
      <trkpt lat="45.89096" lon="2.98613">
        <ele>778.32</ele>
        <time>2021-08-14T12:18:12Z</time>
      </trkpt>
      <trkpt lat="45.89088" lon="2.98609">
        <ele>777.84</ele>
        <time>2021-08-14T12:18:13Z</time>
      </trkpt>
      <trkpt lat="45.89018" lon="2.9858">
        <ele>776.4</ele>
        <time>2021-08-14T12:18:22Z</time>
      </trkpt>
      <trkpt lat="45.88964" lon="2.98551">
        <ele>774.96</ele>
        <time>2021-08-14T12:18:29Z</time>
      </trkpt>
      <trkpt lat="45.8891" lon="2.98505">
        <ele>773.04</ele>
        <time>2021-08-14T12:18:37Z</time>
      </trkpt>
      <trkpt lat="45.88897" lon="2.98495">
        <ele>773.52</ele>
        <time>2021-08-14T12:18:39Z</time>
      </trkpt>
      <trkpt lat="45.88889" lon="2.98491">
        <ele>772.56</ele>
        <time>2021-08-14T12:18:40Z</time>
      </trkpt>
      <trkpt lat="45.88882" lon="2.98489">
        <ele>772.56</ele>
        <time>2021-08-14T12:18:41Z</time>
      </trkpt>
      <trkpt lat="45.88829" lon="2.98471">
        <ele>770.63</ele>
        <time>2021-08-14T12:18:48Z</time>
      </trkpt>
      <trkpt lat="45.88786" lon="2.98458">
        <ele>770.63</ele>
        <time>2021-08-14T12:18:55Z</time>
      </trkpt>
      <trkpt lat="45.88771" lon="2.98454">
        <ele>770.63</ele>
        <time>2021-08-14T12:18:58Z</time>
      </trkpt>
      <trkpt lat="45.88766" lon="2.98453">
        <ele>770.63</ele>
        <time>2021-08-14T12:18:59Z</time>
      </trkpt>
      <trkpt lat="45.88749" lon="2.98446">
        <ele>772.08</ele>
        <time>2021-08-14T12:19:05Z</time>
      </trkpt>
      <trkpt lat="45.88738" lon="2.98443">
        <ele>773.04</ele>
        <time>2021-08-14T12:19:11Z</time>
      </trkpt>
      <trkpt lat="45.88726" lon="2.9844">
        <ele>773.52</ele>
        <time>2021-08-14T12:19:18Z</time>
      </trkpt>
      <trkpt lat="45.88713" lon="2.98433">
        <ele>774.48</ele>
        <time>2021-08-14T12:19:24Z</time>
      </trkpt>
      <trkpt lat="45.88697" lon="2.98412">
        <ele>775.92</ele>
        <time>2021-08-14T12:19:33Z</time>
      </trkpt>
      <trkpt lat="45.88682" lon="2.984">
        <ele>776.4</ele>
        <time>2021-08-14T12:19:40Z</time>
      </trkpt>
      <trkpt lat="45.88663" lon="2.98385">
        <ele>776.88</ele>
        <time>2021-08-14T12:19:48Z</time>
      </trkpt>
      <trkpt lat="45.88644" lon="2.98373">
        <ele>777.84</ele>
        <time>2021-08-14T12:19:56Z</time>
      </trkpt>
      <trkpt lat="45.88641" lon="2.9837">
        <ele>777.84</ele>
        <time>2021-08-14T12:19:58Z</time>
      </trkpt>
      <trkpt lat="45.88641" lon="2.98367">
        <ele>777.84</ele>
        <time>2021-08-14T12:19:59Z</time>
      </trkpt>
      <trkpt lat="45.88641" lon="2.98364">
        <ele>777.84</ele>
        <time>2021-08-14T12:20:00Z</time>
      </trkpt>
      <trkpt lat="45.88641" lon="2.98362">
        <ele>777.84</ele>
        <time>2021-08-14T12:20:01Z</time>
      </trkpt>
      <trkpt lat="45.88641" lon="2.98361">
        <ele>778.32</ele>
        <time>2021-08-14T12:20:08Z</time>
      </trkpt>
      <trkpt lat="45.88639" lon="2.98362">
        <ele>778.32</ele>
        <time>2021-08-14T12:20:20Z</time>
      </trkpt>
      <trkpt lat="45.88636" lon="2.9836">
        <ele>778.32</ele>
        <time>2021-08-14T12:20:23Z</time>
      </trkpt>
      <trkpt lat="45.88635" lon="2.98357">
        <ele>778.32</ele>
        <time>2021-08-14T12:20:24Z</time>
      </trkpt>
      <trkpt lat="45.88635" lon="2.98353">
        <ele>778.32</ele>
        <time>2021-08-14T12:20:25Z</time>
      </trkpt>
      <trkpt lat="45.88636" lon="2.9835">
        <ele>778.32</ele>
        <time>2021-08-14T12:20:26Z</time>
      </trkpt>
      <trkpt lat="45.88636" lon="2.98347">
        <ele>778.32</ele>
        <time>2021-08-14T12:20:27Z</time>
      </trkpt>
      <trkpt lat="45.88637" lon="2.98343">
        <ele>778.32</ele>
        <time>2021-08-14T12:20:28Z</time>
      </trkpt>
      <trkpt lat="45.88637" lon="2.98339">
        <ele>778.32</ele>
        <time>2021-08-14T12:20:29Z</time>
      </trkpt>
      <trkpt lat="45.88647" lon="2.98303">
        <ele>778.81</ele>
        <time>2021-08-14T12:20:38Z</time>
      </trkpt>
      <trkpt lat="45.88651" lon="2.98291">
        <ele>778.81</ele>
        <time>2021-08-14T12:20:42Z</time>
      </trkpt>
      <trkpt lat="45.88652" lon="2.98288">
        <ele>778.81</ele>
        <time>2021-08-14T12:20:43Z</time>
      </trkpt>
      <trkpt lat="45.88652" lon="2.98286">
        <ele>779.29</ele>
        <time>2021-08-14T12:20:44Z</time>
      </trkpt>
      <trkpt lat="45.88652" lon="2.98284">
        <ele>779.29</ele>
        <time>2021-08-14T12:20:45Z</time>
      </trkpt>
      <trkpt lat="45.88651" lon="2.98284">
        <ele>779.29</ele>
        <time>2021-08-14T12:20:46Z</time>
      </trkpt>
      <trkpt lat="45.8865" lon="2.98285">
        <ele>779.29</ele>
        <time>2021-08-14T12:20:47Z</time>
      </trkpt>
      <trkpt lat="45.88649" lon="2.98287">
        <ele>779.29</ele>
        <time>2021-08-14T12:20:48Z</time>
      </trkpt>
      <trkpt lat="45.88647" lon="2.98288">
        <ele>779.29</ele>
        <time>2021-08-14T12:20:49Z</time>
      </trkpt>
      <trkpt lat="45.88645" lon="2.9829">
        <ele>779.29</ele>
        <time>2021-08-14T12:20:50Z</time>
      </trkpt>
      <trkpt lat="45.88644" lon="2.98291">
        <ele>779.29</ele>
        <time>2021-08-14T12:20:51Z</time>
      </trkpt>
      <trkpt lat="45.88643" lon="2.98293">
        <ele>779.29</ele>
        <time>2021-08-14T12:20:52Z</time>
      </trkpt>
      <trkpt lat="45.88642" lon="2.98294">
        <ele>779.29</ele>
        <time>2021-08-14T12:20:57Z</time>
      </trkpt>
      <trkpt lat="45.88645" lon="2.98294">
        <ele>779.29</ele>
        <time>2021-08-14T12:21:17Z</time>
      </trkpt>
      <trkpt lat="45.88644" lon="2.98295">
        <ele>779.29</ele>
        <time>2021-08-14T12:21:31Z</time>
      </trkpt>
      <trkpt lat="45.88644" lon="2.98294">
        <ele>779.29</ele>
        <time>2021-08-14T12:21:49Z</time>
      </trkpt>
      <trkpt lat="45.88648" lon="2.98292">
        <ele>779.29</ele>
        <time>2021-08-14T12:22:13Z</time>
      </trkpt>
      <trkpt lat="45.88649" lon="2.98292">
        <ele>779.77</ele>
        <time>2021-08-14T12:22:35Z</time>
      </trkpt>
      <trkpt lat="45.88653" lon="2.98292">
        <ele>780.25</ele>
        <time>2021-08-14T12:22:56Z</time>
      </trkpt>
      <trkpt lat="45.88657" lon="2.98291">
        <ele>780.25</ele>
        <time>2021-08-14T12:23:18Z</time>
      </trkpt>
      <trkpt lat="45.88658" lon="2.98289">
        <ele>780.73</ele>
        <time>2021-08-14T12:23:33Z</time>
      </trkpt>
      <trkpt lat="45.8866" lon="2.98291">
        <ele>780.73</ele>
        <time>2021-08-14T12:23:58Z</time>
      </trkpt>
      <trkpt lat="45.88662" lon="2.98293">
        <ele>781.21</ele>
        <time>2021-08-14T12:24:27Z</time>
      </trkpt>
      <trkpt lat="45.88661" lon="2.98292">
        <ele>781.69</ele>
        <time>2021-08-14T12:24:50Z</time>
      </trkpt>
      <trkpt lat="45.88662" lon="2.98292">
        <ele>781.69</ele>
        <time>2021-08-14T12:25:17Z</time>
      </trkpt>
      <trkpt lat="45.88663" lon="2.98291">
        <ele>782.17</ele>
        <time>2021-08-14T12:25:38Z</time>
      </trkpt>
      <trkpt lat="45.88662" lon="2.98293">
        <ele>782.17</ele>
        <time>2021-08-14T12:25:42Z</time>
      </trkpt>
      <trkpt lat="45.88662" lon="2.98293">
        <ele>782.17</ele>
        <time>2021-08-14T12:25:43Z</time>
      </trkpt>
      <trkpt lat="45.88662" lon="2.98295">
        <ele>782.17</ele>
        <time>2021-08-14T12:25:44Z</time>
      </trkpt>
      <trkpt lat="45.88662" lon="2.98298">
        <ele>782.17</ele>
        <time>2021-08-14T12:25:45Z</time>
      </trkpt>
      <trkpt lat="45.88661" lon="2.98301">
        <ele>782.17</ele>
        <time>2021-08-14T12:25:46Z</time>
      </trkpt>
      <trkpt lat="45.8866" lon="2.98305">
        <ele>782.17</ele>
        <time>2021-08-14T12:25:47Z</time>
      </trkpt>
      <trkpt lat="45.88649" lon="2.98336">
        <ele>782.17</ele>
        <time>2021-08-14T12:25:54Z</time>
      </trkpt>
      <trkpt lat="45.88636" lon="2.98365">
        <ele>782.17</ele>
        <time>2021-08-14T12:26:00Z</time>
      </trkpt>
      <trkpt lat="45.88638" lon="2.98369">
        <ele>782.17</ele>
        <time>2021-08-14T12:26:01Z</time>
      </trkpt>
      <trkpt lat="45.88641" lon="2.98372">
        <ele>781.21</ele>
        <time>2021-08-14T12:26:02Z</time>
      </trkpt>
      <trkpt lat="45.88643" lon="2.98374">
        <ele>781.21</ele>
        <time>2021-08-14T12:26:03Z</time>
      </trkpt>
      <trkpt lat="45.88658" lon="2.98383">
        <ele>780.73</ele>
        <time>2021-08-14T12:26:07Z</time>
      </trkpt>
      <trkpt lat="45.88663" lon="2.98385">
        <ele>780.73</ele>
        <time>2021-08-14T12:26:08Z</time>
      </trkpt>
      <trkpt lat="45.88694" lon="2.98408">
        <ele>779.29</ele>
        <time>2021-08-14T12:26:15Z</time>
      </trkpt>
      <trkpt lat="45.88699" lon="2.98413">
        <ele>779.29</ele>
        <time>2021-08-14T12:26:16Z</time>
      </trkpt>
      <trkpt lat="45.88713" lon="2.98429">
        <ele>778.32</ele>
        <time>2021-08-14T12:26:19Z</time>
      </trkpt>
      <trkpt lat="45.88719" lon="2.98434">
        <ele>777.36</ele>
        <time>2021-08-14T12:26:20Z</time>
      </trkpt>
      <trkpt lat="45.88724" lon="2.98437">
        <ele>776.88</ele>
        <time>2021-08-14T12:26:21Z</time>
      </trkpt>
      <trkpt lat="45.8873" lon="2.9844">
        <ele>776.4</ele>
        <time>2021-08-14T12:26:22Z</time>
      </trkpt>
      <trkpt lat="45.88736" lon="2.98442">
        <ele>776.4</ele>
        <time>2021-08-14T12:26:23Z</time>
      </trkpt>
      <trkpt lat="45.88743" lon="2.98443">
        <ele>775.44</ele>
        <time>2021-08-14T12:26:24Z</time>
      </trkpt>
      <trkpt lat="45.88793" lon="2.9846">
        <ele>773.04</ele>
        <time>2021-08-14T12:26:31Z</time>
      </trkpt>
      <trkpt lat="45.8881" lon="2.98466">
        <ele>773.52</ele>
        <time>2021-08-14T12:26:34Z</time>
      </trkpt>
      <trkpt lat="45.88831" lon="2.98471">
        <ele>774.96</ele>
        <time>2021-08-14T12:26:40Z</time>
      </trkpt>
      <trkpt lat="45.88833" lon="2.98472">
        <ele>774.96</ele>
        <time>2021-08-14T12:26:41Z</time>
      </trkpt>
      <trkpt lat="45.88834" lon="2.98471">
        <ele>774.96</ele>
        <time>2021-08-14T12:26:42Z</time>
      </trkpt>
      <trkpt lat="45.88835" lon="2.9847">
        <ele>774.96</ele>
        <time>2021-08-14T12:26:48Z</time>
      </trkpt>
      <trkpt lat="45.88837" lon="2.98469">
        <ele>774.96</ele>
        <time>2021-08-14T12:26:56Z</time>
      </trkpt>
      <trkpt lat="45.88838" lon="2.98469">
        <ele>775.44</ele>
        <time>2021-08-14T12:27:08Z</time>
      </trkpt>
      <trkpt lat="45.88839" lon="2.98469">
        <ele>775.44</ele>
        <time>2021-08-14T12:27:25Z</time>
      </trkpt>
      <trkpt lat="45.88839" lon="2.98468">
        <ele>775.44</ele>
        <time>2021-08-14T12:27:45Z</time>
      </trkpt>
      <trkpt lat="45.88837" lon="2.98468">
        <ele>775.44</ele>
        <time>2021-08-14T12:28:03Z</time>
      </trkpt>
      <trkpt lat="45.88837" lon="2.98469">
        <ele>775.44</ele>
        <time>2021-08-14T12:28:09Z</time>
      </trkpt>
      <trkpt lat="45.88837" lon="2.98471">
        <ele>775.44</ele>
        <time>2021-08-14T12:28:10Z</time>
      </trkpt>
      <trkpt lat="45.88837" lon="2.9847">
        <ele>775.44</ele>
        <time>2021-08-14T12:28:15Z</time>
      </trkpt>
      <trkpt lat="45.88838" lon="2.98469">
        <ele>775.44</ele>
        <time>2021-08-14T12:28:32Z</time>
      </trkpt>
      <trkpt lat="45.88838" lon="2.98469">
        <ele>775.44</ele>
        <time>2021-08-14T12:28:48Z</time>
      </trkpt>
      <trkpt lat="45.88839" lon="2.98468">
        <ele>775.44</ele>
        <time>2021-08-14T12:29:00Z</time>
      </trkpt>
      <trkpt lat="45.88838" lon="2.98468">
        <ele>775.44</ele>
        <time>2021-08-14T12:29:17Z</time>
      </trkpt>
      <trkpt lat="45.88838" lon="2.98467">
        <ele>775.44</ele>
        <time>2021-08-14T12:29:32Z</time>
      </trkpt>
      <trkpt lat="45.88838" lon="2.98467">
        <ele>774.96</ele>
        <time>2021-08-14T12:29:45Z</time>
      </trkpt>
      <trkpt lat="45.88838" lon="2.98468">
        <ele>774.96</ele>
        <time>2021-08-14T12:30:00Z</time>
      </trkpt>
      <trkpt lat="45.88838" lon="2.98469">
        <ele>774.96</ele>
        <time>2021-08-14T12:30:15Z</time>
      </trkpt>
      <trkpt lat="45.88838" lon="2.9847">
        <ele>774.96</ele>
        <time>2021-08-14T12:30:32Z</time>
      </trkpt>
      <trkpt lat="45.88838" lon="2.98469">
        <ele>774.96</ele>
        <time>2021-08-14T12:30:48Z</time>
      </trkpt>
      <trkpt lat="45.88837" lon="2.98467">
        <ele>774.96</ele>
        <time>2021-08-14T12:31:06Z</time>
      </trkpt>
      <trkpt lat="45.88836" lon="2.98466">
        <ele>774.96</ele>
        <time>2021-08-14T12:31:24Z</time>
      </trkpt>
      <trkpt lat="45.88836" lon="2.98466">
        <ele>774.96</ele>
        <time>2021-08-14T12:31:43Z</time>
      </trkpt>
      <trkpt lat="45.88836" lon="2.98468">
        <ele>774.96</ele>
        <time>2021-08-14T12:32:09Z</time>
      </trkpt>
      <trkpt lat="45.88836" lon="2.98469">
        <ele>774.96</ele>
        <time>2021-08-14T12:32:29Z</time>
      </trkpt>
      <trkpt lat="45.88836" lon="2.98468">
        <ele>774.96</ele>
        <time>2021-08-14T12:32:57Z</time>
      </trkpt>
      <trkpt lat="45.88835" lon="2.98465">
        <ele>774.96</ele>
        <time>2021-08-14T12:33:24Z</time>
      </trkpt>
      <trkpt lat="45.88836" lon="2.98466">
        <ele>774.96</ele>
        <time>2021-08-14T12:33:41Z</time>
      </trkpt>
      <trkpt lat="45.88836" lon="2.98465">
        <ele>774.96</ele>
        <time>2021-08-14T12:33:51Z</time>
      </trkpt>
      <trkpt lat="45.88837" lon="2.98467">
        <ele>774.96</ele>
        <time>2021-08-14T12:34:20Z</time>
      </trkpt>
      <trkpt lat="45.88837" lon="2.98468">
        <ele>774.96</ele>
        <time>2021-08-14T12:34:47Z</time>
      </trkpt>
      <trkpt lat="45.88835" lon="2.98467">
        <ele>774.96</ele>
        <time>2021-08-14T12:35:12Z</time>
      </trkpt>
      <trkpt lat="45.88835" lon="2.98466">
        <ele>774.96</ele>
        <time>2021-08-14T12:35:32Z</time>
      </trkpt>
      <trkpt lat="45.88834" lon="2.98466">
        <ele>774.96</ele>
        <time>2021-08-14T12:35:50Z</time>
      </trkpt>
      <trkpt lat="45.88834" lon="2.98467">
        <ele>774.96</ele>
        <time>2021-08-14T12:36:07Z</time>
      </trkpt>
      <trkpt lat="45.88833" lon="2.98468">
        <ele>774.96</ele>
        <time>2021-08-14T12:36:12Z</time>
      </trkpt>
      <trkpt lat="45.88831" lon="2.98468">
        <ele>774.96</ele>
        <time>2021-08-14T12:36:18Z</time>
      </trkpt>
      <trkpt lat="45.8883" lon="2.98468">
        <ele>774.96</ele>
        <time>2021-08-14T12:36:19Z</time>
      </trkpt>
      <trkpt lat="45.88829" lon="2.98467">
        <ele>774.96</ele>
        <time>2021-08-14T12:36:20Z</time>
      </trkpt>
      <trkpt lat="45.88827" lon="2.98468">
        <ele>774.96</ele>
        <time>2021-08-14T12:36:21Z</time>
      </trkpt>
      <trkpt lat="45.88827" lon="2.9847">
        <ele>774.96</ele>
        <time>2021-08-14T12:36:22Z</time>
      </trkpt>
      <trkpt lat="45.88826" lon="2.98472">
        <ele>774.96</ele>
        <time>2021-08-14T12:36:23Z</time>
      </trkpt>
      <trkpt lat="45.88825" lon="2.98474">
        <ele>774</ele>
        <time>2021-08-14T12:36:24Z</time>
      </trkpt>
      <trkpt lat="45.88824" lon="2.98473">
        <ele>774</ele>
        <time>2021-08-14T12:36:25Z</time>
      </trkpt>
      <trkpt lat="45.88823" lon="2.98472">
        <ele>774</ele>
        <time>2021-08-14T12:36:26Z</time>
      </trkpt>
      <trkpt lat="45.88822" lon="2.98471">
        <ele>774</ele>
        <time>2021-08-14T12:36:27Z</time>
      </trkpt>
      <trkpt lat="45.88821" lon="2.98469">
        <ele>774</ele>
        <time>2021-08-14T12:36:28Z</time>
      </trkpt>
      <trkpt lat="45.88821" lon="2.98468">
        <ele>774</ele>
        <time>2021-08-14T12:36:29Z</time>
      </trkpt>
      <trkpt lat="45.8882" lon="2.98467">
        <ele>774</ele>
        <time>2021-08-14T12:36:30Z</time>
      </trkpt>
      <trkpt lat="45.88819" lon="2.98466">
        <ele>774</ele>
        <time>2021-08-14T12:36:31Z</time>
      </trkpt>
      <trkpt lat="45.88817" lon="2.98466">
        <ele>774</ele>
        <time>2021-08-14T12:36:32Z</time>
      </trkpt>
      <trkpt lat="45.88816" lon="2.98466">
        <ele>774</ele>
        <time>2021-08-14T12:36:33Z</time>
      </trkpt>
      <trkpt lat="45.88814" lon="2.98466">
        <ele>774</ele>
        <time>2021-08-14T12:36:34Z</time>
      </trkpt>
      <trkpt lat="45.88812" lon="2.98465">
        <ele>773.52</ele>
        <time>2021-08-14T12:36:35Z</time>
      </trkpt>
      <trkpt lat="45.88796" lon="2.98459">
        <ele>773.52</ele>
        <time>2021-08-14T12:36:42Z</time>
      </trkpt>
      <trkpt lat="45.88778" lon="2.98455">
        <ele>773.04</ele>
        <time>2021-08-14T12:36:51Z</time>
      </trkpt>
      <trkpt lat="45.88763" lon="2.98449">
        <ele>773.04</ele>
        <time>2021-08-14T12:37:00Z</time>
      </trkpt>
      <trkpt lat="45.8875" lon="2.98446">
        <ele>774.48</ele>
        <time>2021-08-14T12:37:08Z</time>
      </trkpt>
      <trkpt lat="45.88749" lon="2.98446">
        <ele>774.48</ele>
        <time>2021-08-14T12:37:09Z</time>
      </trkpt>
      <trkpt lat="45.88742" lon="2.98445">
        <ele>774.96</ele>
        <time>2021-08-14T12:37:15Z</time>
      </trkpt>
      <trkpt lat="45.88731" lon="2.9844">
        <ele>775.44</ele>
        <time>2021-08-14T12:37:24Z</time>
      </trkpt>
      <trkpt lat="45.88727" lon="2.9844">
        <ele>775.92</ele>
        <time>2021-08-14T12:37:27Z</time>
      </trkpt>
      <trkpt lat="45.88726" lon="2.98439">
        <ele>775.92</ele>
        <time>2021-08-14T12:37:28Z</time>
      </trkpt>
      <trkpt lat="45.88724" lon="2.98439">
        <ele>776.4</ele>
        <time>2021-08-14T12:37:29Z</time>
      </trkpt>
      <trkpt lat="45.88723" lon="2.98438">
        <ele>776.4</ele>
        <time>2021-08-14T12:37:30Z</time>
      </trkpt>
      <trkpt lat="45.88716" lon="2.98433">
        <ele>776.88</ele>
        <time>2021-08-14T12:37:36Z</time>
      </trkpt>
      <trkpt lat="45.88715" lon="2.98432">
        <ele>776.88</ele>
        <time>2021-08-14T12:37:37Z</time>
      </trkpt>
      <trkpt lat="45.88714" lon="2.9843">
        <ele>776.88</ele>
        <time>2021-08-14T12:37:38Z</time>
      </trkpt>
      <trkpt lat="45.88705" lon="2.98417">
        <ele>777.36</ele>
        <time>2021-08-14T12:37:46Z</time>
      </trkpt>
      <trkpt lat="45.88689" lon="2.98403">
        <ele>778.32</ele>
        <time>2021-08-14T12:37:56Z</time>
      </trkpt>
      <trkpt lat="45.88681" lon="2.98397">
        <ele>778.32</ele>
        <time>2021-08-14T12:38:01Z</time>
      </trkpt>
      <trkpt lat="45.88679" lon="2.98397">
        <ele>778.81</ele>
        <time>2021-08-14T12:38:02Z</time>
      </trkpt>
      <trkpt lat="45.88665" lon="2.98386">
        <ele>779.29</ele>
        <time>2021-08-14T12:38:09Z</time>
      </trkpt>
      <trkpt lat="45.8865" lon="2.98377">
        <ele>779.77</ele>
        <time>2021-08-14T12:38:17Z</time>
      </trkpt>
      <trkpt lat="45.88635" lon="2.98368">
        <ele>780.25</ele>
        <time>2021-08-14T12:38:24Z</time>
      </trkpt>
      <trkpt lat="45.88614" lon="2.98358">
        <ele>780.73</ele>
        <time>2021-08-14T12:38:32Z</time>
      </trkpt>
      <trkpt lat="45.8859" lon="2.98355">
        <ele>781.69</ele>
        <time>2021-08-14T12:38:41Z</time>
      </trkpt>
      <trkpt lat="45.88575" lon="2.98343">
        <ele>781.69</ele>
        <time>2021-08-14T12:38:48Z</time>
      </trkpt>
      <trkpt lat="45.88555" lon="2.98331">
        <ele>782.65</ele>
        <time>2021-08-14T12:38:56Z</time>
      </trkpt>
      <trkpt lat="45.88536" lon="2.98323">
        <ele>782.65</ele>
        <time>2021-08-14T12:39:04Z</time>
      </trkpt>
      <trkpt lat="45.88517" lon="2.98313">
        <ele>783.61</ele>
        <time>2021-08-14T12:39:11Z</time>
      </trkpt>
      <trkpt lat="45.88495" lon="2.98303">
        <ele>783.61</ele>
        <time>2021-08-14T12:39:19Z</time>
      </trkpt>
      <trkpt lat="45.88474" lon="2.98291">
        <ele>783.61</ele>
        <time>2021-08-14T12:39:26Z</time>
      </trkpt>
      <trkpt lat="45.88444" lon="2.98276">
        <ele>784.09</ele>
        <time>2021-08-14T12:39:36Z</time>
      </trkpt>
      <trkpt lat="45.88439" lon="2.98272">
        <ele>784.09</ele>
        <time>2021-08-14T12:39:38Z</time>
      </trkpt>
      <trkpt lat="45.88437" lon="2.98269">
        <ele>784.09</ele>
        <time>2021-08-14T12:39:39Z</time>
      </trkpt>
      <trkpt lat="45.88436" lon="2.98266">
        <ele>784.57</ele>
        <time>2021-08-14T12:39:40Z</time>
      </trkpt>
      <trkpt lat="45.88423" lon="2.98249">
        <ele>786.02</ele>
        <time>2021-08-14T12:39:47Z</time>
      </trkpt>
      <trkpt lat="45.88406" lon="2.98257">
        <ele>786.02</ele>
        <time>2021-08-14T12:39:53Z</time>
      </trkpt>
      <trkpt lat="45.88387" lon="2.98262">
        <ele>786.02</ele>
        <time>2021-08-14T12:39:59Z</time>
      </trkpt>
      <trkpt lat="45.88361" lon="2.98257">
        <ele>784.57</ele>
        <time>2021-08-14T12:40:07Z</time>
      </trkpt>
      <trkpt lat="45.88328" lon="2.9826">
        <ele>784.57</ele>
        <time>2021-08-14T12:40:16Z</time>
      </trkpt>
      <trkpt lat="45.88298" lon="2.98273">
        <ele>783.61</ele>
        <time>2021-08-14T12:40:24Z</time>
      </trkpt>
      <trkpt lat="45.88261" lon="2.9828">
        <ele>783.13</ele>
        <time>2021-08-14T12:40:33Z</time>
      </trkpt>
      <trkpt lat="45.88237" lon="2.9828">
        <ele>783.13</ele>
        <time>2021-08-14T12:40:39Z</time>
      </trkpt>
      <trkpt lat="45.88228" lon="2.98278">
        <ele>782.65</ele>
        <time>2021-08-14T12:40:41Z</time>
      </trkpt>
      <trkpt lat="45.88194" lon="2.98277">
        <ele>782.65</ele>
        <time>2021-08-14T12:40:49Z</time>
      </trkpt>
      <trkpt lat="45.88165" lon="2.98271">
        <ele>782.65</ele>
        <time>2021-08-14T12:40:56Z</time>
      </trkpt>
      <trkpt lat="45.88132" lon="2.98266">
        <ele>782.65</ele>
        <time>2021-08-14T12:41:04Z</time>
      </trkpt>
      <trkpt lat="45.88094" lon="2.98261">
        <ele>784.09</ele>
        <time>2021-08-14T12:41:14Z</time>
      </trkpt>
      <trkpt lat="45.8809" lon="2.98261">
        <ele>784.09</ele>
        <time>2021-08-14T12:41:15Z</time>
      </trkpt>
      <trkpt lat="45.88051" lon="2.98256">
        <ele>785.05</ele>
        <time>2021-08-14T12:41:26Z</time>
      </trkpt>
      <trkpt lat="45.88029" lon="2.98255">
        <ele>785.53</ele>
        <time>2021-08-14T12:41:33Z</time>
      </trkpt>
      <trkpt lat="45.88011" lon="2.98254">
        <ele>786.02</ele>
        <time>2021-08-14T12:41:40Z</time>
      </trkpt>
      <trkpt lat="45.87997" lon="2.98254">
        <ele>786.98</ele>
        <time>2021-08-14T12:41:47Z</time>
      </trkpt>
      <trkpt lat="45.87981" lon="2.98252">
        <ele>787.94</ele>
        <time>2021-08-14T12:41:54Z</time>
      </trkpt>
      <trkpt lat="45.87961" lon="2.98249">
        <ele>788.42</ele>
        <time>2021-08-14T12:42:02Z</time>
      </trkpt>
      <trkpt lat="45.87941" lon="2.98239">
        <ele>788.9</ele>
        <time>2021-08-14T12:42:10Z</time>
      </trkpt>
      <trkpt lat="45.87922" lon="2.98233">
        <ele>789.86</ele>
        <time>2021-08-14T12:42:18Z</time>
      </trkpt>
      <trkpt lat="45.87908" lon="2.98223">
        <ele>790.34</ele>
        <time>2021-08-14T12:42:25Z</time>
      </trkpt>
      <trkpt lat="45.87907" lon="2.98222">
        <ele>790.82</ele>
        <time>2021-08-14T12:42:26Z</time>
      </trkpt>
      <trkpt lat="45.87905" lon="2.9822">
        <ele>790.82</ele>
        <time>2021-08-14T12:42:27Z</time>
      </trkpt>
      <trkpt lat="45.87903" lon="2.98217">
        <ele>790.82</ele>
        <time>2021-08-14T12:42:29Z</time>
      </trkpt>
      <trkpt lat="45.87902" lon="2.98214">
        <ele>790.82</ele>
        <time>2021-08-14T12:42:30Z</time>
      </trkpt>
      <trkpt lat="45.879" lon="2.98213">
        <ele>791.3</ele>
        <time>2021-08-14T12:42:31Z</time>
      </trkpt>
      <trkpt lat="45.87898" lon="2.98211">
        <ele>791.3</ele>
        <time>2021-08-14T12:42:32Z</time>
      </trkpt>
      <trkpt lat="45.87896" lon="2.98211">
        <ele>791.3</ele>
        <time>2021-08-14T12:42:33Z</time>
      </trkpt>
      <trkpt lat="45.87894" lon="2.98209">
        <ele>791.3</ele>
        <time>2021-08-14T12:42:34Z</time>
      </trkpt>
      <trkpt lat="45.8788" lon="2.98196">
        <ele>792.26</ele>
        <time>2021-08-14T12:42:41Z</time>
      </trkpt>
      <trkpt lat="45.8787" lon="2.98184">
        <ele>792.74</ele>
        <time>2021-08-14T12:42:47Z</time>
      </trkpt>
      <trkpt lat="45.87854" lon="2.9817">
        <ele>793.71</ele>
        <time>2021-08-14T12:42:55Z</time>
      </trkpt>
      <trkpt lat="45.87848" lon="2.98167">
        <ele>793.71</ele>
        <time>2021-08-14T12:42:59Z</time>
      </trkpt>
      <trkpt lat="45.87846" lon="2.98165">
        <ele>793.71</ele>
        <time>2021-08-14T12:43:02Z</time>
      </trkpt>
      <trkpt lat="45.87828" lon="2.98152">
        <ele>794.19</ele>
        <time>2021-08-14T12:43:10Z</time>
      </trkpt>
      <trkpt lat="45.8781" lon="2.98138">
        <ele>794.67</ele>
        <time>2021-08-14T12:43:17Z</time>
      </trkpt>
      <trkpt lat="45.87794" lon="2.98123">
        <ele>794.67</ele>
        <time>2021-08-14T12:43:24Z</time>
      </trkpt>
      <trkpt lat="45.87769" lon="2.981">
        <ele>795.15</ele>
        <time>2021-08-14T12:43:34Z</time>
      </trkpt>
      <trkpt lat="45.87747" lon="2.98084">
        <ele>795.15</ele>
        <time>2021-08-14T12:43:42Z</time>
      </trkpt>
      <trkpt lat="45.87723" lon="2.98079">
        <ele>795.15</ele>
        <time>2021-08-14T12:43:50Z</time>
      </trkpt>
      <trkpt lat="45.87695" lon="2.98089">
        <ele>795.63</ele>
        <time>2021-08-14T12:43:59Z</time>
      </trkpt>
      <trkpt lat="45.87664" lon="2.98093">
        <ele>796.59</ele>
        <time>2021-08-14T12:44:09Z</time>
      </trkpt>
      <trkpt lat="45.87643" lon="2.98093">
        <ele>798.03</ele>
        <time>2021-08-14T12:44:18Z</time>
      </trkpt>
      <trkpt lat="45.87624" lon="2.98093">
        <ele>798.99</ele>
        <time>2021-08-14T12:44:28Z</time>
      </trkpt>
      <trkpt lat="45.8761" lon="2.98096">
        <ele>800.44</ele>
        <time>2021-08-14T12:44:36Z</time>
      </trkpt>
      <trkpt lat="45.87598" lon="2.98098">
        <ele>801.4</ele>
        <time>2021-08-14T12:44:43Z</time>
      </trkpt>
      <trkpt lat="45.87585" lon="2.98094">
        <ele>801.4</ele>
        <time>2021-08-14T12:44:49Z</time>
      </trkpt>
      <trkpt lat="45.87575" lon="2.98088">
        <ele>801.88</ele>
        <time>2021-08-14T12:44:54Z</time>
      </trkpt>
      <trkpt lat="45.87561" lon="2.9809">
        <ele>801.88</ele>
        <time>2021-08-14T12:45:01Z</time>
      </trkpt>
      <trkpt lat="45.8755" lon="2.98091">
        <ele>802.84</ele>
        <time>2021-08-14T12:45:08Z</time>
      </trkpt>
      <trkpt lat="45.87538" lon="2.9809">
        <ele>803.8</ele>
        <time>2021-08-14T12:45:15Z</time>
      </trkpt>
      <trkpt lat="45.87537" lon="2.9809">
        <ele>803.8</ele>
        <time>2021-08-14T12:45:16Z</time>
      </trkpt>
      <trkpt lat="45.87535" lon="2.98091">
        <ele>803.8</ele>
        <time>2021-08-14T12:45:17Z</time>
      </trkpt>
      <trkpt lat="45.87534" lon="2.98092">
        <ele>803.8</ele>
        <time>2021-08-14T12:45:18Z</time>
      </trkpt>
      <trkpt lat="45.87532" lon="2.98093">
        <ele>804.28</ele>
        <time>2021-08-14T12:45:19Z</time>
      </trkpt>
      <trkpt lat="45.8753" lon="2.98093">
        <ele>804.28</ele>
        <time>2021-08-14T12:45:20Z</time>
      </trkpt>
      <trkpt lat="45.87527" lon="2.98094">
        <ele>804.28</ele>
        <time>2021-08-14T12:45:21Z</time>
      </trkpt>
      <trkpt lat="45.87525" lon="2.98094">
        <ele>804.28</ele>
        <time>2021-08-14T12:45:22Z</time>
      </trkpt>
      <trkpt lat="45.87524" lon="2.98094">
        <ele>804.28</ele>
        <time>2021-08-14T12:45:23Z</time>
      </trkpt>
      <trkpt lat="45.87521" lon="2.98094">
        <ele>804.76</ele>
        <time>2021-08-14T12:45:24Z</time>
      </trkpt>
      <trkpt lat="45.87519" lon="2.98094">
        <ele>804.76</ele>
        <time>2021-08-14T12:45:25Z</time>
      </trkpt>
      <trkpt lat="45.87517" lon="2.98095">
        <ele>804.76</ele>
        <time>2021-08-14T12:45:26Z</time>
      </trkpt>
      <trkpt lat="45.87515" lon="2.98095">
        <ele>804.76</ele>
        <time>2021-08-14T12:45:27Z</time>
      </trkpt>
      <trkpt lat="45.87503" lon="2.98095">
        <ele>805.24</ele>
        <time>2021-08-14T12:45:33Z</time>
      </trkpt>
      <trkpt lat="45.87501" lon="2.98095">
        <ele>805.72</ele>
        <time>2021-08-14T12:45:34Z</time>
      </trkpt>
      <trkpt lat="45.87499" lon="2.98095">
        <ele>805.72</ele>
        <time>2021-08-14T12:45:35Z</time>
      </trkpt>
      <trkpt lat="45.87497" lon="2.98095">
        <ele>806.2</ele>
        <time>2021-08-14T12:45:36Z</time>
      </trkpt>
      <trkpt lat="45.87495" lon="2.98095">
        <ele>806.2</ele>
        <time>2021-08-14T12:45:37Z</time>
      </trkpt>
      <trkpt lat="45.87493" lon="2.98095">
        <ele>806.2</ele>
        <time>2021-08-14T12:45:38Z</time>
      </trkpt>
      <trkpt lat="45.87478" lon="2.98094">
        <ele>806.68</ele>
        <time>2021-08-14T12:45:45Z</time>
      </trkpt>
      <trkpt lat="45.87471" lon="2.98094">
        <ele>807.16</ele>
        <time>2021-08-14T12:45:48Z</time>
      </trkpt>
      <trkpt lat="45.87466" lon="2.98095">
        <ele>807.64</ele>
        <time>2021-08-14T12:45:52Z</time>
      </trkpt>
      <trkpt lat="45.87464" lon="2.98095">
        <ele>807.64</ele>
        <time>2021-08-14T12:45:53Z</time>
      </trkpt>
      <trkpt lat="45.87462" lon="2.98095">
        <ele>807.64</ele>
        <time>2021-08-14T12:45:54Z</time>
      </trkpt>
      <trkpt lat="45.8746" lon="2.98094">
        <ele>807.64</ele>
        <time>2021-08-14T12:45:55Z</time>
      </trkpt>
      <trkpt lat="45.87458" lon="2.98094">
        <ele>808.13</ele>
        <time>2021-08-14T12:45:56Z</time>
      </trkpt>
      <trkpt lat="45.87442" lon="2.98092">
        <ele>809.57</ele>
        <time>2021-08-14T12:46:05Z</time>
      </trkpt>
      <trkpt lat="45.87426" lon="2.98088">
        <ele>810.05</ele>
        <time>2021-08-14T12:46:12Z</time>
      </trkpt>
      <trkpt lat="45.87408" lon="2.98081">
        <ele>810.05</ele>
        <time>2021-08-14T12:46:19Z</time>
      </trkpt>
      <trkpt lat="45.87406" lon="2.9808">
        <ele>810.05</ele>
        <time>2021-08-14T12:46:20Z</time>
      </trkpt>
      <trkpt lat="45.87387" lon="2.98075">
        <ele>810.05</ele>
        <time>2021-08-14T12:46:27Z</time>
      </trkpt>
      <trkpt lat="45.87373" lon="2.98071">
        <ele>810.05</ele>
        <time>2021-08-14T12:46:34Z</time>
      </trkpt>
      <trkpt lat="45.87355" lon="2.98062">
        <ele>810.05</ele>
        <time>2021-08-14T12:46:41Z</time>
      </trkpt>
      <trkpt lat="45.87346" lon="2.98057">
        <ele>810.05</ele>
        <time>2021-08-14T12:46:45Z</time>
      </trkpt>
      <trkpt lat="45.87344" lon="2.98057">
        <ele>810.05</ele>
        <time>2021-08-14T12:46:46Z</time>
      </trkpt>
      <trkpt lat="45.87341" lon="2.98056">
        <ele>810.05</ele>
        <time>2021-08-14T12:46:47Z</time>
      </trkpt>
      <trkpt lat="45.87338" lon="2.98055">
        <ele>810.05</ele>
        <time>2021-08-14T12:46:48Z</time>
      </trkpt>
      <trkpt lat="45.87335" lon="2.98054">
        <ele>810.05</ele>
        <time>2021-08-14T12:46:49Z</time>
      </trkpt>
      <trkpt lat="45.87332" lon="2.98052">
        <ele>810.05</ele>
        <time>2021-08-14T12:46:50Z</time>
      </trkpt>
      <trkpt lat="45.87329" lon="2.98051">
        <ele>810.05</ele>
        <time>2021-08-14T12:46:51Z</time>
      </trkpt>
      <trkpt lat="45.87326" lon="2.98049">
        <ele>810.05</ele>
        <time>2021-08-14T12:46:52Z</time>
      </trkpt>
      <trkpt lat="45.87323" lon="2.98048">
        <ele>810.05</ele>
        <time>2021-08-14T12:46:53Z</time>
      </trkpt>
      <trkpt lat="45.8732" lon="2.98047">
        <ele>810.05</ele>
        <time>2021-08-14T12:46:54Z</time>
      </trkpt>
      <trkpt lat="45.87317" lon="2.98046">
        <ele>810.05</ele>
        <time>2021-08-14T12:46:55Z</time>
      </trkpt>
      <trkpt lat="45.87315" lon="2.98044">
        <ele>810.05</ele>
        <time>2021-08-14T12:46:56Z</time>
      </trkpt>
      <trkpt lat="45.87312" lon="2.98043">
        <ele>810.05</ele>
        <time>2021-08-14T12:46:57Z</time>
      </trkpt>
      <trkpt lat="45.87309" lon="2.98041">
        <ele>810.05</ele>
        <time>2021-08-14T12:46:58Z</time>
      </trkpt>
      <trkpt lat="45.87306" lon="2.9804">
        <ele>810.05</ele>
        <time>2021-08-14T12:46:59Z</time>
      </trkpt>
      <trkpt lat="45.87286" lon="2.98033">
        <ele>810.05</ele>
        <time>2021-08-14T12:47:06Z</time>
      </trkpt>
      <trkpt lat="45.87281" lon="2.98032">
        <ele>810.05</ele>
        <time>2021-08-14T12:47:08Z</time>
      </trkpt>
      <trkpt lat="45.87279" lon="2.98031">
        <ele>810.05</ele>
        <time>2021-08-14T12:47:09Z</time>
      </trkpt>
      <trkpt lat="45.87276" lon="2.9803">
        <ele>810.05</ele>
        <time>2021-08-14T12:47:10Z</time>
      </trkpt>
      <trkpt lat="45.87273" lon="2.9803">
        <ele>810.05</ele>
        <time>2021-08-14T12:47:11Z</time>
      </trkpt>
      <trkpt lat="45.87271" lon="2.9803">
        <ele>810.05</ele>
        <time>2021-08-14T12:47:12Z</time>
      </trkpt>
      <trkpt lat="45.87267" lon="2.98029">
        <ele>810.05</ele>
        <time>2021-08-14T12:47:13Z</time>
      </trkpt>
      <trkpt lat="45.87257" lon="2.98027">
        <ele>808.61</ele>
        <time>2021-08-14T12:47:16Z</time>
      </trkpt>
      <trkpt lat="45.87229" lon="2.98018">
        <ele>807.16</ele>
        <time>2021-08-14T12:47:22Z</time>
      </trkpt>
      <trkpt lat="45.87225" lon="2.98016">
        <ele>806.68</ele>
        <time>2021-08-14T12:47:23Z</time>
      </trkpt>
      <trkpt lat="45.8722" lon="2.98014">
        <ele>806.68</ele>
        <time>2021-08-14T12:47:24Z</time>
      </trkpt>
      <trkpt lat="45.87216" lon="2.98012">
        <ele>806.68</ele>
        <time>2021-08-14T12:47:25Z</time>
      </trkpt>
      <trkpt lat="45.87211" lon="2.9801">
        <ele>806.68</ele>
        <time>2021-08-14T12:47:26Z</time>
      </trkpt>
      <trkpt lat="45.87207" lon="2.98008">
        <ele>806.2</ele>
        <time>2021-08-14T12:47:27Z</time>
      </trkpt>
      <trkpt lat="45.87202" lon="2.98006">
        <ele>806.2</ele>
        <time>2021-08-14T12:47:28Z</time>
      </trkpt>
      <trkpt lat="45.87198" lon="2.98004">
        <ele>806.2</ele>
        <time>2021-08-14T12:47:29Z</time>
      </trkpt>
      <trkpt lat="45.8718" lon="2.97999">
        <ele>806.2</ele>
        <time>2021-08-14T12:47:33Z</time>
      </trkpt>
      <trkpt lat="45.87165" lon="2.97994">
        <ele>806.2</ele>
        <time>2021-08-14T12:47:37Z</time>
      </trkpt>
      <trkpt lat="45.87147" lon="2.97992">
        <ele>806.2</ele>
        <time>2021-08-14T12:47:42Z</time>
      </trkpt>
      <trkpt lat="45.87138" lon="2.97991">
        <ele>805.72</ele>
        <time>2021-08-14T12:47:44Z</time>
      </trkpt>
      <trkpt lat="45.87119" lon="2.97997">
        <ele>805.72</ele>
        <time>2021-08-14T12:47:50Z</time>
      </trkpt>
      <trkpt lat="45.87104" lon="2.97997">
        <ele>805.72</ele>
        <time>2021-08-14T12:47:56Z</time>
      </trkpt>
      <trkpt lat="45.87088" lon="2.97986">
        <ele>805.72</ele>
        <time>2021-08-14T12:48:03Z</time>
      </trkpt>
      <trkpt lat="45.87073" lon="2.9798">
        <ele>807.16</ele>
        <time>2021-08-14T12:48:09Z</time>
      </trkpt>
      <trkpt lat="45.87071" lon="2.97979">
        <ele>807.16</ele>
        <time>2021-08-14T12:48:10Z</time>
      </trkpt>
      <trkpt lat="45.87066" lon="2.97979">
        <ele>807.16</ele>
        <time>2021-08-14T12:48:12Z</time>
      </trkpt>
      <trkpt lat="45.87064" lon="2.97979">
        <ele>807.16</ele>
        <time>2021-08-14T12:48:13Z</time>
      </trkpt>
      <trkpt lat="45.87051" lon="2.97981">
        <ele>807.64</ele>
        <time>2021-08-14T12:48:19Z</time>
      </trkpt>
      <trkpt lat="45.87049" lon="2.97982">
        <ele>807.64</ele>
        <time>2021-08-14T12:48:20Z</time>
      </trkpt>
      <trkpt lat="45.87047" lon="2.97982">
        <ele>808.13</ele>
        <time>2021-08-14T12:48:21Z</time>
      </trkpt>
      <trkpt lat="45.87045" lon="2.97983">
        <ele>808.13</ele>
        <time>2021-08-14T12:48:22Z</time>
      </trkpt>
      <trkpt lat="45.87043" lon="2.97984">
        <ele>808.13</ele>
        <time>2021-08-14T12:48:23Z</time>
      </trkpt>
      <trkpt lat="45.87041" lon="2.97984">
        <ele>808.61</ele>
        <time>2021-08-14T12:48:24Z</time>
      </trkpt>
      <trkpt lat="45.87033" lon="2.97987">
        <ele>808.61</ele>
        <time>2021-08-14T12:48:29Z</time>
      </trkpt>
      <trkpt lat="45.87032" lon="2.97987">
        <ele>808.61</ele>
        <time>2021-08-14T12:48:30Z</time>
      </trkpt>
      <trkpt lat="45.87019" lon="2.97992">
        <ele>810.05</ele>
        <time>2021-08-14T12:48:39Z</time>
      </trkpt>
      <trkpt lat="45.8701" lon="2.97997">
        <ele>811.49</ele>
        <time>2021-08-14T12:48:46Z</time>
      </trkpt>
      <trkpt lat="45.87" lon="2.98005">
        <ele>811.97</ele>
        <time>2021-08-14T12:48:54Z</time>
      </trkpt>
      <trkpt lat="45.86985" lon="2.98015">
        <ele>812.93</ele>
        <time>2021-08-14T12:49:03Z</time>
      </trkpt>
      <trkpt lat="45.86975" lon="2.9802">
        <ele>813.41</ele>
        <time>2021-08-14T12:49:12Z</time>
      </trkpt>
      <trkpt lat="45.86968" lon="2.98027">
        <ele>813.41</ele>
        <time>2021-08-14T12:49:18Z</time>
      </trkpt>
      <trkpt lat="45.86967" lon="2.98028">
        <ele>813.41</ele>
        <time>2021-08-14T12:49:19Z</time>
      </trkpt>
      <trkpt lat="45.86965" lon="2.98031">
        <ele>813.89</ele>
        <time>2021-08-14T12:49:20Z</time>
      </trkpt>
      <trkpt lat="45.86964" lon="2.98032">
        <ele>813.89</ele>
        <time>2021-08-14T12:49:21Z</time>
      </trkpt>
      <trkpt lat="45.86962" lon="2.98034">
        <ele>813.89</ele>
        <time>2021-08-14T12:49:22Z</time>
      </trkpt>
      <trkpt lat="45.8696" lon="2.98037">
        <ele>813.89</ele>
        <time>2021-08-14T12:49:23Z</time>
      </trkpt>
      <trkpt lat="45.86958" lon="2.98039">
        <ele>813.89</ele>
        <time>2021-08-14T12:49:24Z</time>
      </trkpt>
      <trkpt lat="45.86956" lon="2.9804">
        <ele>813.89</ele>
        <time>2021-08-14T12:49:25Z</time>
      </trkpt>
      <trkpt lat="45.86954" lon="2.98042">
        <ele>813.89</ele>
        <time>2021-08-14T12:49:26Z</time>
      </trkpt>
      <trkpt lat="45.86952" lon="2.98043">
        <ele>813.89</ele>
        <time>2021-08-14T12:49:27Z</time>
      </trkpt>
      <trkpt lat="45.8695" lon="2.98044">
        <ele>813.89</ele>
        <time>2021-08-14T12:49:28Z</time>
      </trkpt>
      <trkpt lat="45.86948" lon="2.98044">
        <ele>813.89</ele>
        <time>2021-08-14T12:49:29Z</time>
      </trkpt>
      <trkpt lat="45.86946" lon="2.98044">
        <ele>813.89</ele>
        <time>2021-08-14T12:49:30Z</time>
      </trkpt>
      <trkpt lat="45.86943" lon="2.98044">
        <ele>813.89</ele>
        <time>2021-08-14T12:49:31Z</time>
      </trkpt>
      <trkpt lat="45.8694" lon="2.98043">
        <ele>813.89</ele>
        <time>2021-08-14T12:49:32Z</time>
      </trkpt>
      <trkpt lat="45.86923" lon="2.9804">
        <ele>814.37</ele>
        <time>2021-08-14T12:49:39Z</time>
      </trkpt>
      <trkpt lat="45.86907" lon="2.98039">
        <ele>814.85</ele>
        <time>2021-08-14T12:49:46Z</time>
      </trkpt>
      <trkpt lat="45.86889" lon="2.98033">
        <ele>815.34</ele>
        <time>2021-08-14T12:49:53Z</time>
      </trkpt>
      <trkpt lat="45.86871" lon="2.98021">
        <ele>815.82</ele>
        <time>2021-08-14T12:50:01Z</time>
      </trkpt>
      <trkpt lat="45.86859" lon="2.98017">
        <ele>816.78</ele>
        <time>2021-08-14T12:50:08Z</time>
      </trkpt>
      <trkpt lat="45.86841" lon="2.98011">
        <ele>817.74</ele>
        <time>2021-08-14T12:50:17Z</time>
      </trkpt>
      <trkpt lat="45.86822" lon="2.98002">
        <ele>817.74</ele>
        <time>2021-08-14T12:50:25Z</time>
      </trkpt>
      <trkpt lat="45.86814" lon="2.97998">
        <ele>818.22</ele>
        <time>2021-08-14T12:50:29Z</time>
      </trkpt>
      <trkpt lat="45.86812" lon="2.97998">
        <ele>817.74</ele>
        <time>2021-08-14T12:50:30Z</time>
      </trkpt>
      <trkpt lat="45.8681" lon="2.97998">
        <ele>817.74</ele>
        <time>2021-08-14T12:50:31Z</time>
      </trkpt>
      <trkpt lat="45.86798" lon="2.97995">
        <ele>818.22</ele>
        <time>2021-08-14T12:50:38Z</time>
      </trkpt>
      <trkpt lat="45.86784" lon="2.97989">
        <ele>818.22</ele>
        <time>2021-08-14T12:50:43Z</time>
      </trkpt>
      <trkpt lat="45.86767" lon="2.97988">
        <ele>818.22</ele>
        <time>2021-08-14T12:50:50Z</time>
      </trkpt>
      <trkpt lat="45.8675" lon="2.97987">
        <ele>818.7</ele>
        <time>2021-08-14T12:50:56Z</time>
      </trkpt>
      <trkpt lat="45.86729" lon="2.97986">
        <ele>819.18</ele>
        <time>2021-08-14T12:51:03Z</time>
      </trkpt>
      <trkpt lat="45.86713" lon="2.9799">
        <ele>819.18</ele>
        <time>2021-08-14T12:51:09Z</time>
      </trkpt>
      <trkpt lat="45.86696" lon="2.97993">
        <ele>819.66</ele>
        <time>2021-08-14T12:51:16Z</time>
      </trkpt>
      <trkpt lat="45.86675" lon="2.97992">
        <ele>820.14</ele>
        <time>2021-08-14T12:51:23Z</time>
      </trkpt>
      <trkpt lat="45.86656" lon="2.97988">
        <ele>821.1</ele>
        <time>2021-08-14T12:51:30Z</time>
      </trkpt>
      <trkpt lat="45.86654" lon="2.97988">
        <ele>821.1</ele>
        <time>2021-08-14T12:51:31Z</time>
      </trkpt>
      <trkpt lat="45.86651" lon="2.97988">
        <ele>821.1</ele>
        <time>2021-08-14T12:51:32Z</time>
      </trkpt>
      <trkpt lat="45.86649" lon="2.97988">
        <ele>821.1</ele>
        <time>2021-08-14T12:51:33Z</time>
      </trkpt>
      <trkpt lat="45.86648" lon="2.97987">
        <ele>821.1</ele>
        <time>2021-08-14T12:51:34Z</time>
      </trkpt>
      <trkpt lat="45.86646" lon="2.97987">
        <ele>821.1</ele>
        <time>2021-08-14T12:51:35Z</time>
      </trkpt>
      <trkpt lat="45.86645" lon="2.97986">
        <ele>821.1</ele>
        <time>2021-08-14T12:51:36Z</time>
      </trkpt>
      <trkpt lat="45.86643" lon="2.97985">
        <ele>821.1</ele>
        <time>2021-08-14T12:51:37Z</time>
      </trkpt>
      <trkpt lat="45.86631" lon="2.97976">
        <ele>822.06</ele>
        <time>2021-08-14T12:51:44Z</time>
      </trkpt>
      <trkpt lat="45.86628" lon="2.97973">
        <ele>822.55</ele>
        <time>2021-08-14T12:51:46Z</time>
      </trkpt>
      <trkpt lat="45.86622" lon="2.97966">
        <ele>823.03</ele>
        <time>2021-08-14T12:51:50Z</time>
      </trkpt>
      <trkpt lat="45.8661" lon="2.97957">
        <ele>823.51</ele>
        <time>2021-08-14T12:51:57Z</time>
      </trkpt>
      <trkpt lat="45.86604" lon="2.97956">
        <ele>823.51</ele>
        <time>2021-08-14T12:52:01Z</time>
      </trkpt>
      <trkpt lat="45.86591" lon="2.97955">
        <ele>824.95</ele>
        <time>2021-08-14T12:52:10Z</time>
      </trkpt>
      <trkpt lat="45.86586" lon="2.97955">
        <ele>825.43</ele>
        <time>2021-08-14T12:52:13Z</time>
      </trkpt>
      <trkpt lat="45.86584" lon="2.97954">
        <ele>825.91</ele>
        <time>2021-08-14T12:52:14Z</time>
      </trkpt>
      <trkpt lat="45.86582" lon="2.97953">
        <ele>825.91</ele>
        <time>2021-08-14T12:52:15Z</time>
      </trkpt>
      <trkpt lat="45.86572" lon="2.97947">
        <ele>826.39</ele>
        <time>2021-08-14T12:52:21Z</time>
      </trkpt>
      <trkpt lat="45.8657" lon="2.97946">
        <ele>826.39</ele>
        <time>2021-08-14T12:52:22Z</time>
      </trkpt>
      <trkpt lat="45.86565" lon="2.97942">
        <ele>827.35</ele>
        <time>2021-08-14T12:52:25Z</time>
      </trkpt>
      <trkpt lat="45.86563" lon="2.97941">
        <ele>827.35</ele>
        <time>2021-08-14T12:52:26Z</time>
      </trkpt>
      <trkpt lat="45.86562" lon="2.97939">
        <ele>827.35</ele>
        <time>2021-08-14T12:52:27Z</time>
      </trkpt>
      <trkpt lat="45.8656" lon="2.97938">
        <ele>827.35</ele>
        <time>2021-08-14T12:52:28Z</time>
      </trkpt>
      <trkpt lat="45.86558" lon="2.97936">
        <ele>827.35</ele>
        <time>2021-08-14T12:52:29Z</time>
      </trkpt>
      <trkpt lat="45.8655" lon="2.97928">
        <ele>828.31</ele>
        <time>2021-08-14T12:52:36Z</time>
      </trkpt>
      <trkpt lat="45.86541" lon="2.9792">
        <ele>828.79</ele>
        <time>2021-08-14T12:52:42Z</time>
      </trkpt>
      <trkpt lat="45.8653" lon="2.97905">
        <ele>829.27</ele>
        <time>2021-08-14T12:52:49Z</time>
      </trkpt>
      <trkpt lat="45.8652" lon="2.97894">
        <ele>829.76</ele>
        <time>2021-08-14T12:52:55Z</time>
      </trkpt>
      <trkpt lat="45.86511" lon="2.97885">
        <ele>830.72</ele>
        <time>2021-08-14T12:53:02Z</time>
      </trkpt>
      <trkpt lat="45.86501" lon="2.97877">
        <ele>831.2</ele>
        <time>2021-08-14T12:53:10Z</time>
      </trkpt>
      <trkpt lat="45.86493" lon="2.97861">
        <ele>832.16</ele>
        <time>2021-08-14T12:53:17Z</time>
      </trkpt>
      <trkpt lat="45.86483" lon="2.97855">
        <ele>832.64</ele>
        <time>2021-08-14T12:53:24Z</time>
      </trkpt>
      <trkpt lat="45.86472" lon="2.97847">
        <ele>833.12</ele>
        <time>2021-08-14T12:53:32Z</time>
      </trkpt>
      <trkpt lat="45.86463" lon="2.9784">
        <ele>833.6</ele>
        <time>2021-08-14T12:53:39Z</time>
      </trkpt>
      <trkpt lat="45.8646" lon="2.97837">
        <ele>833.6</ele>
        <time>2021-08-14T12:53:41Z</time>
      </trkpt>
      <trkpt lat="45.86458" lon="2.97835">
        <ele>834.08</ele>
        <time>2021-08-14T12:53:42Z</time>
      </trkpt>
      <trkpt lat="45.86451" lon="2.97828">
        <ele>834.56</ele>
        <time>2021-08-14T12:53:48Z</time>
      </trkpt>
      <trkpt lat="45.86443" lon="2.97817">
        <ele>835.04</ele>
        <time>2021-08-14T12:53:54Z</time>
      </trkpt>
      <trkpt lat="45.86435" lon="2.97808">
        <ele>836</ele>
        <time>2021-08-14T12:54:01Z</time>
      </trkpt>
      <trkpt lat="45.86423" lon="2.97799">
        <ele>836.96</ele>
        <time>2021-08-14T12:54:08Z</time>
      </trkpt>
      <trkpt lat="45.86417" lon="2.97793">
        <ele>837.45</ele>
        <time>2021-08-14T12:54:13Z</time>
      </trkpt>
      <trkpt lat="45.86407" lon="2.97782">
        <ele>838.41</ele>
        <time>2021-08-14T12:54:23Z</time>
      </trkpt>
      <trkpt lat="45.86395" lon="2.97774">
        <ele>839.37</ele>
        <time>2021-08-14T12:54:30Z</time>
      </trkpt>
      <trkpt lat="45.86384" lon="2.97773">
        <ele>840.33</ele>
        <time>2021-08-14T12:54:38Z</time>
      </trkpt>
      <trkpt lat="45.86382" lon="2.97773">
        <ele>840.33</ele>
        <time>2021-08-14T12:54:39Z</time>
      </trkpt>
      <trkpt lat="45.86381" lon="2.97772">
        <ele>840.33</ele>
        <time>2021-08-14T12:54:40Z</time>
      </trkpt>
      <trkpt lat="45.86379" lon="2.97772">
        <ele>840.33</ele>
        <time>2021-08-14T12:54:41Z</time>
      </trkpt>
      <trkpt lat="45.86377" lon="2.97771">
        <ele>840.33</ele>
        <time>2021-08-14T12:54:42Z</time>
      </trkpt>
      <trkpt lat="45.86376" lon="2.9777">
        <ele>840.33</ele>
        <time>2021-08-14T12:54:43Z</time>
      </trkpt>
      <trkpt lat="45.86366" lon="2.97765">
        <ele>841.77</ele>
        <time>2021-08-14T12:54:50Z</time>
      </trkpt>
      <trkpt lat="45.86352" lon="2.9776">
        <ele>842.25</ele>
        <time>2021-08-14T12:54:58Z</time>
      </trkpt>
      <trkpt lat="45.86338" lon="2.97756">
        <ele>842.25</ele>
        <time>2021-08-14T12:55:06Z</time>
      </trkpt>
      <trkpt lat="45.86324" lon="2.97752">
        <ele>843.21</ele>
        <time>2021-08-14T12:55:13Z</time>
      </trkpt>
      <trkpt lat="45.86309" lon="2.97747">
        <ele>843.69</ele>
        <time>2021-08-14T12:55:20Z</time>
      </trkpt>
      <trkpt lat="45.86297" lon="2.97737">
        <ele>844.18</ele>
        <time>2021-08-14T12:55:28Z</time>
      </trkpt>
      <trkpt lat="45.86288" lon="2.97728">
        <ele>844.66</ele>
        <time>2021-08-14T12:55:34Z</time>
      </trkpt>
      <trkpt lat="45.86274" lon="2.97712">
        <ele>845.14</ele>
        <time>2021-08-14T12:55:42Z</time>
      </trkpt>
      <trkpt lat="45.86264" lon="2.97695">
        <ele>845.62</ele>
        <time>2021-08-14T12:55:50Z</time>
      </trkpt>
      <trkpt lat="45.86253" lon="2.97681">
        <ele>846.58</ele>
        <time>2021-08-14T12:55:58Z</time>
      </trkpt>
      <trkpt lat="45.86242" lon="2.97661">
        <ele>847.06</ele>
        <time>2021-08-14T12:56:07Z</time>
      </trkpt>
      <trkpt lat="45.8624" lon="2.97654">
        <ele>847.54</ele>
        <time>2021-08-14T12:56:10Z</time>
      </trkpt>
      <trkpt lat="45.86234" lon="2.97642">
        <ele>848.5</ele>
        <time>2021-08-14T12:56:16Z</time>
      </trkpt>
      <trkpt lat="45.86227" lon="2.97628">
        <ele>849.46</ele>
        <time>2021-08-14T12:56:23Z</time>
      </trkpt>
      <trkpt lat="45.86219" lon="2.97612">
        <ele>849.94</ele>
        <time>2021-08-14T12:56:30Z</time>
      </trkpt>
      <trkpt lat="45.86213" lon="2.97603">
        <ele>850.9</ele>
        <time>2021-08-14T12:56:35Z</time>
      </trkpt>
      <trkpt lat="45.86208" lon="2.9759">
        <ele>851.87</ele>
        <time>2021-08-14T12:56:43Z</time>
      </trkpt>
      <trkpt lat="45.86207" lon="2.97591">
        <ele>851.87</ele>
        <time>2021-08-14T12:56:49Z</time>
      </trkpt>
      <trkpt lat="45.86208" lon="2.97591">
        <ele>851.87</ele>
        <time>2021-08-14T12:56:50Z</time>
      </trkpt>
      <trkpt lat="45.8621" lon="2.97588">
        <ele>852.35</ele>
        <time>2021-08-14T12:56:52Z</time>
      </trkpt>
      <trkpt lat="45.86211" lon="2.97586">
        <ele>852.35</ele>
        <time>2021-08-14T12:56:53Z</time>
      </trkpt>
      <trkpt lat="45.8621" lon="2.97584">
        <ele>852.35</ele>
        <time>2021-08-14T12:56:54Z</time>
      </trkpt>
      <trkpt lat="45.86209" lon="2.97581">
        <ele>852.35</ele>
        <time>2021-08-14T12:56:55Z</time>
      </trkpt>
      <trkpt lat="45.86207" lon="2.97579">
        <ele>852.35</ele>
        <time>2021-08-14T12:56:56Z</time>
      </trkpt>
      <trkpt lat="45.86204" lon="2.97577">
        <ele>852.35</ele>
        <time>2021-08-14T12:56:57Z</time>
      </trkpt>
      <trkpt lat="45.86203" lon="2.97575">
        <ele>852.35</ele>
        <time>2021-08-14T12:56:58Z</time>
      </trkpt>
      <trkpt lat="45.86201" lon="2.97573">
        <ele>852.35</ele>
        <time>2021-08-14T12:56:59Z</time>
      </trkpt>
      <trkpt lat="45.86199" lon="2.97572">
        <ele>852.35</ele>
        <time>2021-08-14T12:57:00Z</time>
      </trkpt>
      <trkpt lat="45.86185" lon="2.97559">
        <ele>852.35</ele>
        <time>2021-08-14T12:57:06Z</time>
      </trkpt>
      <trkpt lat="45.86173" lon="2.97551">
        <ele>853.31</ele>
        <time>2021-08-14T12:57:11Z</time>
      </trkpt>
      <trkpt lat="45.8617" lon="2.9755">
        <ele>853.31</ele>
        <time>2021-08-14T12:57:12Z</time>
      </trkpt>
      <trkpt lat="45.86168" lon="2.97548">
        <ele>853.31</ele>
        <time>2021-08-14T12:57:13Z</time>
      </trkpt>
      <trkpt lat="45.86166" lon="2.97546">
        <ele>853.31</ele>
        <time>2021-08-14T12:57:14Z</time>
      </trkpt>
      <trkpt lat="45.86164" lon="2.97546">
        <ele>853.31</ele>
        <time>2021-08-14T12:57:15Z</time>
      </trkpt>
      <trkpt lat="45.86159" lon="2.97546">
        <ele>853.31</ele>
        <time>2021-08-14T12:57:18Z</time>
      </trkpt>
      <trkpt lat="45.86156" lon="2.97545">
        <ele>853.31</ele>
        <time>2021-08-14T12:57:19Z</time>
      </trkpt>
      <trkpt lat="45.86138" lon="2.97544">
        <ele>853.79</ele>
        <time>2021-08-14T12:57:26Z</time>
      </trkpt>
      <trkpt lat="45.86126" lon="2.97542">
        <ele>854.75</ele>
        <time>2021-08-14T12:57:32Z</time>
      </trkpt>
      <trkpt lat="45.86111" lon="2.97537">
        <ele>854.75</ele>
        <time>2021-08-14T12:57:38Z</time>
      </trkpt>
      <trkpt lat="45.86092" lon="2.97525">
        <ele>855.71</ele>
        <time>2021-08-14T12:57:45Z</time>
      </trkpt>
      <trkpt lat="45.86066" lon="2.97508">
        <ele>856.19</ele>
        <time>2021-08-14T12:57:53Z</time>
      </trkpt>
      <trkpt lat="45.8605" lon="2.97502">
        <ele>856.67</ele>
        <time>2021-08-14T12:57:59Z</time>
      </trkpt>
      <trkpt lat="45.86034" lon="2.97497">
        <ele>858.11</ele>
        <time>2021-08-14T12:58:07Z</time>
      </trkpt>
      <trkpt lat="45.86016" lon="2.97491">
        <ele>858.59</ele>
        <time>2021-08-14T12:58:14Z</time>
      </trkpt>
      <trkpt lat="45.8601" lon="2.97486">
        <ele>859.08</ele>
        <time>2021-08-14T12:58:17Z</time>
      </trkpt>
      <trkpt lat="45.85998" lon="2.97473">
        <ele>859.08</ele>
        <time>2021-08-14T12:58:23Z</time>
      </trkpt>
      <trkpt lat="45.85987" lon="2.97457">
        <ele>859.56</ele>
        <time>2021-08-14T12:58:29Z</time>
      </trkpt>
      <trkpt lat="45.85978" lon="2.97444">
        <ele>860.04</ele>
        <time>2021-08-14T12:58:36Z</time>
      </trkpt>
      <trkpt lat="45.85971" lon="2.97431">
        <ele>860.52</ele>
        <time>2021-08-14T12:58:42Z</time>
      </trkpt>
      <trkpt lat="45.85965" lon="2.9742">
        <ele>861</ele>
        <time>2021-08-14T12:58:47Z</time>
      </trkpt>
      <trkpt lat="45.85955" lon="2.97403">
        <ele>861.96</ele>
        <time>2021-08-14T12:58:54Z</time>
      </trkpt>
      <trkpt lat="45.85943" lon="2.97387">
        <ele>862.92</ele>
        <time>2021-08-14T12:59:01Z</time>
      </trkpt>
      <trkpt lat="45.85933" lon="2.97376">
        <ele>863.4</ele>
        <time>2021-08-14T12:59:07Z</time>
      </trkpt>
      <trkpt lat="45.85928" lon="2.97374">
        <ele>863.4</ele>
        <time>2021-08-14T12:59:10Z</time>
      </trkpt>
      <trkpt lat="45.85926" lon="2.97373">
        <ele>863.4</ele>
        <time>2021-08-14T12:59:11Z</time>
      </trkpt>
      <trkpt lat="45.85908" lon="2.97364">
        <ele>864.84</ele>
        <time>2021-08-14T12:59:20Z</time>
      </trkpt>
      <trkpt lat="45.85903" lon="2.97361">
        <ele>864.84</ele>
        <time>2021-08-14T12:59:23Z</time>
      </trkpt>
      <trkpt lat="45.85894" lon="2.97357">
        <ele>865.8</ele>
        <time>2021-08-14T12:59:29Z</time>
      </trkpt>
      <trkpt lat="45.85889" lon="2.97354">
        <ele>866.29</ele>
        <time>2021-08-14T12:59:32Z</time>
      </trkpt>
      <trkpt lat="45.85886" lon="2.97355">
        <ele>866.29</ele>
        <time>2021-08-14T12:59:34Z</time>
      </trkpt>
      <trkpt lat="45.85887" lon="2.97355">
        <ele>866.29</ele>
        <time>2021-08-14T12:59:35Z</time>
      </trkpt>
      <trkpt lat="45.85886" lon="2.97354">
        <ele>866.29</ele>
        <time>2021-08-14T12:59:36Z</time>
      </trkpt>
      <trkpt lat="45.85886" lon="2.97353">
        <ele>866.29</ele>
        <time>2021-08-14T12:59:37Z</time>
      </trkpt>
      <trkpt lat="45.85886" lon="2.97352">
        <ele>866.29</ele>
        <time>2021-08-14T12:59:38Z</time>
      </trkpt>
      <trkpt lat="45.85892" lon="2.9735">
        <ele>866.29</ele>
        <time>2021-08-14T12:59:45Z</time>
      </trkpt>
      <trkpt lat="45.85893" lon="2.97351">
        <ele>864.84</ele>
        <time>2021-08-14T12:59:46Z</time>
      </trkpt>
      <trkpt lat="45.85894" lon="2.97352">
        <ele>864.84</ele>
        <time>2021-08-14T12:59:47Z</time>
      </trkpt>
      <trkpt lat="45.85906" lon="2.97358">
        <ele>863.88</ele>
        <time>2021-08-14T12:59:52Z</time>
      </trkpt>
      <trkpt lat="45.8592" lon="2.97361">
        <ele>863.88</ele>
        <time>2021-08-14T12:59:58Z</time>
      </trkpt>
      <trkpt lat="45.85922" lon="2.97363">
        <ele>863.88</ele>
        <time>2021-08-14T12:59:59Z</time>
      </trkpt>
      <trkpt lat="45.85924" lon="2.97366">
        <ele>863.4</ele>
        <time>2021-08-14T13:00:00Z</time>
      </trkpt>
      <trkpt lat="45.85925" lon="2.9737">
        <ele>863.4</ele>
        <time>2021-08-14T13:00:01Z</time>
      </trkpt>
      <trkpt lat="45.85927" lon="2.97391">
        <ele>863.4</ele>
        <time>2021-08-14T13:00:08Z</time>
      </trkpt>
      <trkpt lat="45.85922" lon="2.97406">
        <ele>863.4</ele>
        <time>2021-08-14T13:00:13Z</time>
      </trkpt>
      <trkpt lat="45.85916" lon="2.97426">
        <ele>863.88</ele>
        <time>2021-08-14T13:00:20Z</time>
      </trkpt>
      <trkpt lat="45.85912" lon="2.97433">
        <ele>864.84</ele>
        <time>2021-08-14T13:00:23Z</time>
      </trkpt>
      <trkpt lat="45.85902" lon="2.97454">
        <ele>866.77</ele>
        <time>2021-08-14T13:00:33Z</time>
      </trkpt>
      <trkpt lat="45.85895" lon="2.97471">
        <ele>866.77</ele>
        <time>2021-08-14T13:00:40Z</time>
      </trkpt>
      <trkpt lat="45.85891" lon="2.97498">
        <ele>867.73</ele>
        <time>2021-08-14T13:00:47Z</time>
      </trkpt>
      <trkpt lat="45.85883" lon="2.97518">
        <ele>868.69</ele>
        <time>2021-08-14T13:00:54Z</time>
      </trkpt>
      <trkpt lat="45.85878" lon="2.97532">
        <ele>869.17</ele>
        <time>2021-08-14T13:01:00Z</time>
      </trkpt>
      <trkpt lat="45.85878" lon="2.97534">
        <ele>869.65</ele>
        <time>2021-08-14T13:01:01Z</time>
      </trkpt>
      <trkpt lat="45.85878" lon="2.97536">
        <ele>869.65</ele>
        <time>2021-08-14T13:01:02Z</time>
      </trkpt>
      <trkpt lat="45.85877" lon="2.97538">
        <ele>869.65</ele>
        <time>2021-08-14T13:01:03Z</time>
      </trkpt>
      <trkpt lat="45.85877" lon="2.97539">
        <ele>870.13</ele>
        <time>2021-08-14T13:01:04Z</time>
      </trkpt>
      <trkpt lat="45.85875" lon="2.97552">
        <ele>870.61</ele>
        <time>2021-08-14T13:01:11Z</time>
      </trkpt>
      <trkpt lat="45.85875" lon="2.97567">
        <ele>871.57</ele>
        <time>2021-08-14T13:01:18Z</time>
      </trkpt>
      <trkpt lat="45.85873" lon="2.97585">
        <ele>872.05</ele>
        <time>2021-08-14T13:01:26Z</time>
      </trkpt>
      <trkpt lat="45.85873" lon="2.97587">
        <ele>872.05</ele>
        <time>2021-08-14T13:01:27Z</time>
      </trkpt>
      <trkpt lat="45.85866" lon="2.97598">
        <ele>873.01</ele>
        <time>2021-08-14T13:01:35Z</time>
      </trkpt>
      <trkpt lat="45.8586" lon="2.97607">
        <ele>873.5</ele>
        <time>2021-08-14T13:01:42Z</time>
      </trkpt>
      <trkpt lat="45.85849" lon="2.97619">
        <ele>874.46</ele>
        <time>2021-08-14T13:01:49Z</time>
      </trkpt>
      <trkpt lat="45.85836" lon="2.97634">
        <ele>876.38</ele>
        <time>2021-08-14T13:01:58Z</time>
      </trkpt>
      <trkpt lat="45.85834" lon="2.97637">
        <ele>876.38</ele>
        <time>2021-08-14T13:02:00Z</time>
      </trkpt>
      <trkpt lat="45.85826" lon="2.9765">
        <ele>876.86</ele>
        <time>2021-08-14T13:02:07Z</time>
      </trkpt>
      <trkpt lat="45.85823" lon="2.97663">
        <ele>877.34</ele>
        <time>2021-08-14T13:02:14Z</time>
      </trkpt>
      <trkpt lat="45.85819" lon="2.97672">
        <ele>877.82</ele>
        <time>2021-08-14T13:02:19Z</time>
      </trkpt>
      <trkpt lat="45.85818" lon="2.97674">
        <ele>877.82</ele>
        <time>2021-08-14T13:02:20Z</time>
      </trkpt>
      <trkpt lat="45.85817" lon="2.97675">
        <ele>877.82</ele>
        <time>2021-08-14T13:02:21Z</time>
      </trkpt>
      <trkpt lat="45.85811" lon="2.97686">
        <ele>878.78</ele>
        <time>2021-08-14T13:02:27Z</time>
      </trkpt>
      <trkpt lat="45.85806" lon="2.97699">
        <ele>879.26</ele>
        <time>2021-08-14T13:02:34Z</time>
      </trkpt>
      <trkpt lat="45.85803" lon="2.97715">
        <ele>879.74</ele>
        <time>2021-08-14T13:02:42Z</time>
      </trkpt>
      <trkpt lat="45.85799" lon="2.97728">
        <ele>879.74</ele>
        <time>2021-08-14T13:02:48Z</time>
      </trkpt>
      <trkpt lat="45.858" lon="2.97751">
        <ele>880.22</ele>
        <time>2021-08-14T13:02:55Z</time>
      </trkpt>
      <trkpt lat="45.85799" lon="2.97767">
        <ele>881.19</ele>
        <time>2021-08-14T13:03:02Z</time>
      </trkpt>
      <trkpt lat="45.858" lon="2.97784">
        <ele>882.15</ele>
        <time>2021-08-14T13:03:09Z</time>
      </trkpt>
      <trkpt lat="45.85799" lon="2.97789">
        <ele>882.63</ele>
        <time>2021-08-14T13:03:11Z</time>
      </trkpt>
      <trkpt lat="45.85798" lon="2.97815">
        <ele>882.63</ele>
        <time>2021-08-14T13:03:18Z</time>
      </trkpt>
      <trkpt lat="45.85798" lon="2.97834">
        <ele>883.11</ele>
        <time>2021-08-14T13:03:24Z</time>
      </trkpt>
      <trkpt lat="45.85793" lon="2.97849">
        <ele>883.59</ele>
        <time>2021-08-14T13:03:31Z</time>
      </trkpt>
      <trkpt lat="45.85792" lon="2.9785">
        <ele>883.59</ele>
        <time>2021-08-14T13:03:32Z</time>
      </trkpt>
      <trkpt lat="45.85785" lon="2.97866">
        <ele>884.07</ele>
        <time>2021-08-14T13:03:40Z</time>
      </trkpt>
      <trkpt lat="45.85783" lon="2.97873">
        <ele>884.07</ele>
        <time>2021-08-14T13:03:43Z</time>
      </trkpt>
      <trkpt lat="45.85782" lon="2.97875">
        <ele>884.07</ele>
        <time>2021-08-14T13:03:44Z</time>
      </trkpt>
      <trkpt lat="45.85782" lon="2.97877">
        <ele>884.07</ele>
        <time>2021-08-14T13:03:45Z</time>
      </trkpt>
      <trkpt lat="45.85781" lon="2.9788">
        <ele>884.07</ele>
        <time>2021-08-14T13:03:46Z</time>
      </trkpt>
      <trkpt lat="45.8578" lon="2.97882">
        <ele>884.07</ele>
        <time>2021-08-14T13:03:47Z</time>
      </trkpt>
      <trkpt lat="45.85779" lon="2.97885">
        <ele>884.55</ele>
        <time>2021-08-14T13:03:48Z</time>
      </trkpt>
      <trkpt lat="45.85774" lon="2.97901">
        <ele>885.03</ele>
        <time>2021-08-14T13:03:56Z</time>
      </trkpt>
      <trkpt lat="45.85773" lon="2.97909">
        <ele>885.51</ele>
        <time>2021-08-14T13:03:59Z</time>
      </trkpt>
      <trkpt lat="45.85773" lon="2.97914">
        <ele>885.51</ele>
        <time>2021-08-14T13:04:00Z</time>
      </trkpt>
      <trkpt lat="45.85766" lon="2.97934">
        <ele>885.99</ele>
        <time>2021-08-14T13:04:06Z</time>
      </trkpt>
      <trkpt lat="45.85766" lon="2.97938">
        <ele>886.47</ele>
        <time>2021-08-14T13:04:07Z</time>
      </trkpt>
      <trkpt lat="45.85766" lon="2.9794">
        <ele>886.47</ele>
        <time>2021-08-14T13:04:08Z</time>
      </trkpt>
      <trkpt lat="45.85766" lon="2.97943">
        <ele>886.47</ele>
        <time>2021-08-14T13:04:09Z</time>
      </trkpt>
      <trkpt lat="45.85765" lon="2.97947">
        <ele>886.47</ele>
        <time>2021-08-14T13:04:10Z</time>
      </trkpt>
      <trkpt lat="45.85764" lon="2.9795">
        <ele>886.47</ele>
        <time>2021-08-14T13:04:11Z</time>
      </trkpt>
      <trkpt lat="45.85763" lon="2.97952">
        <ele>886.47</ele>
        <time>2021-08-14T13:04:12Z</time>
      </trkpt>
      <trkpt lat="45.85762" lon="2.97953">
        <ele>886.47</ele>
        <time>2021-08-14T13:04:13Z</time>
      </trkpt>
      <trkpt lat="45.85761" lon="2.97954">
        <ele>886.95</ele>
        <time>2021-08-14T13:04:14Z</time>
      </trkpt>
      <trkpt lat="45.85758" lon="2.97961">
        <ele>886.95</ele>
        <time>2021-08-14T13:04:17Z</time>
      </trkpt>
      <trkpt lat="45.85757" lon="2.97963">
        <ele>886.95</ele>
        <time>2021-08-14T13:04:18Z</time>
      </trkpt>
      <trkpt lat="45.85756" lon="2.97966">
        <ele>886.95</ele>
        <time>2021-08-14T13:04:19Z</time>
      </trkpt>
      <trkpt lat="45.85747" lon="2.97983">
        <ele>887.91</ele>
        <time>2021-08-14T13:04:27Z</time>
      </trkpt>
      <trkpt lat="45.85741" lon="2.97995">
        <ele>888.88</ele>
        <time>2021-08-14T13:04:33Z</time>
      </trkpt>
      <trkpt lat="45.8574" lon="2.97997">
        <ele>888.88</ele>
        <time>2021-08-14T13:04:34Z</time>
      </trkpt>
      <trkpt lat="45.85738" lon="2.97999">
        <ele>888.4</ele>
        <time>2021-08-14T13:04:35Z</time>
      </trkpt>
      <trkpt lat="45.85737" lon="2.98002">
        <ele>888.88</ele>
        <time>2021-08-14T13:04:36Z</time>
      </trkpt>
      <trkpt lat="45.85731" lon="2.98013">
        <ele>887.43</ele>
        <time>2021-08-14T13:04:39Z</time>
      </trkpt>
      <trkpt lat="45.8572" lon="2.98028">
        <ele>886.47</ele>
        <time>2021-08-14T13:04:43Z</time>
      </trkpt>
      <trkpt lat="45.85716" lon="2.98032">
        <ele>885.99</ele>
        <time>2021-08-14T13:04:44Z</time>
      </trkpt>
      <trkpt lat="45.85699" lon="2.98059">
        <ele>884.07</ele>
        <time>2021-08-14T13:04:49Z</time>
      </trkpt>
      <trkpt lat="45.85695" lon="2.98066">
        <ele>884.07</ele>
        <time>2021-08-14T13:04:50Z</time>
      </trkpt>
      <trkpt lat="45.85691" lon="2.98071">
        <ele>884.07</ele>
        <time>2021-08-14T13:04:51Z</time>
      </trkpt>
      <trkpt lat="45.85687" lon="2.98076">
        <ele>883.59</ele>
        <time>2021-08-14T13:04:52Z</time>
      </trkpt>
      <trkpt lat="45.85673" lon="2.98089">
        <ele>883.59</ele>
        <time>2021-08-14T13:04:55Z</time>
      </trkpt>
      <trkpt lat="45.85669" lon="2.98092">
        <ele>883.59</ele>
        <time>2021-08-14T13:04:56Z</time>
      </trkpt>
      <trkpt lat="45.85666" lon="2.98093">
        <ele>883.59</ele>
        <time>2021-08-14T13:04:57Z</time>
      </trkpt>
      <trkpt lat="45.85664" lon="2.98095">
        <ele>883.59</ele>
        <time>2021-08-14T13:04:58Z</time>
      </trkpt>
      <trkpt lat="45.85662" lon="2.98095">
        <ele>883.59</ele>
        <time>2021-08-14T13:04:59Z</time>
      </trkpt>
      <trkpt lat="45.85661" lon="2.98095">
        <ele>883.59</ele>
        <time>2021-08-14T13:05:00Z</time>
      </trkpt>
      <trkpt lat="45.8566" lon="2.98093">
        <ele>885.03</ele>
        <time>2021-08-14T13:05:01Z</time>
      </trkpt>
      <trkpt lat="45.8566" lon="2.98092">
        <ele>885.03</ele>
        <time>2021-08-14T13:05:02Z</time>
      </trkpt>
      <trkpt lat="45.8566" lon="2.9809">
        <ele>885.03</ele>
        <time>2021-08-14T13:05:03Z</time>
      </trkpt>
      <trkpt lat="45.8566" lon="2.98088">
        <ele>885.03</ele>
        <time>2021-08-14T13:05:04Z</time>
      </trkpt>
      <trkpt lat="45.85661" lon="2.98085">
        <ele>885.51</ele>
        <time>2021-08-14T13:05:05Z</time>
      </trkpt>
      <trkpt lat="45.85661" lon="2.98083">
        <ele>885.51</ele>
        <time>2021-08-14T13:05:06Z</time>
      </trkpt>
      <trkpt lat="45.85665" lon="2.9806">
        <ele>886.47</ele>
        <time>2021-08-14T13:05:14Z</time>
      </trkpt>
      <trkpt lat="45.85665" lon="2.98056">
        <ele>886.47</ele>
        <time>2021-08-14T13:05:15Z</time>
      </trkpt>
      <trkpt lat="45.85665" lon="2.98053">
        <ele>886.47</ele>
        <time>2021-08-14T13:05:16Z</time>
      </trkpt>
      <trkpt lat="45.85663" lon="2.98051">
        <ele>886.47</ele>
        <time>2021-08-14T13:05:17Z</time>
      </trkpt>
      <trkpt lat="45.85662" lon="2.98048">
        <ele>886.95</ele>
        <time>2021-08-14T13:05:18Z</time>
      </trkpt>
      <trkpt lat="45.8566" lon="2.98046">
        <ele>886.95</ele>
        <time>2021-08-14T13:05:19Z</time>
      </trkpt>
      <trkpt lat="45.85659" lon="2.98044">
        <ele>886.95</ele>
        <time>2021-08-14T13:05:20Z</time>
      </trkpt>
      <trkpt lat="45.85657" lon="2.98041">
        <ele>886.95</ele>
        <time>2021-08-14T13:05:21Z</time>
      </trkpt>
      <trkpt lat="45.85657" lon="2.98039">
        <ele>886.95</ele>
        <time>2021-08-14T13:05:22Z</time>
      </trkpt>
      <trkpt lat="45.85652" lon="2.98028">
        <ele>888.4</ele>
        <time>2021-08-14T13:05:29Z</time>
      </trkpt>
      <trkpt lat="45.85648" lon="2.98018">
        <ele>889.36</ele>
        <time>2021-08-14T13:05:37Z</time>
      </trkpt>
      <trkpt lat="45.85644" lon="2.98011">
        <ele>890.8</ele>
        <time>2021-08-14T13:05:44Z</time>
      </trkpt>
      <trkpt lat="45.85641" lon="2.98002">
        <ele>891.76</ele>
        <time>2021-08-14T13:05:51Z</time>
      </trkpt>
      <trkpt lat="45.85636" lon="2.97987">
        <ele>892.24</ele>
        <time>2021-08-14T13:05:59Z</time>
      </trkpt>
      <trkpt lat="45.85632" lon="2.97978">
        <ele>893.2</ele>
        <time>2021-08-14T13:06:07Z</time>
      </trkpt>
      <trkpt lat="45.85632" lon="2.97975">
        <ele>893.2</ele>
        <time>2021-08-14T13:06:09Z</time>
      </trkpt>
      <trkpt lat="45.85629" lon="2.97969">
        <ele>894.64</ele>
        <time>2021-08-14T13:06:16Z</time>
      </trkpt>
      <trkpt lat="45.85626" lon="2.97963">
        <ele>895.12</ele>
        <time>2021-08-14T13:06:24Z</time>
      </trkpt>
      <trkpt lat="45.8562" lon="2.97957">
        <ele>896.09</ele>
        <time>2021-08-14T13:06:32Z</time>
      </trkpt>
      <trkpt lat="45.85615" lon="2.97953">
        <ele>896.57</ele>
        <time>2021-08-14T13:06:38Z</time>
      </trkpt>
      <trkpt lat="45.8561" lon="2.97952">
        <ele>897.05</ele>
        <time>2021-08-14T13:06:46Z</time>
      </trkpt>
      <trkpt lat="45.85606" lon="2.97951">
        <ele>897.53</ele>
        <time>2021-08-14T13:06:52Z</time>
      </trkpt>
      <trkpt lat="45.85604" lon="2.97949">
        <ele>897.53</ele>
        <time>2021-08-14T13:06:54Z</time>
      </trkpt>
      <trkpt lat="45.85598" lon="2.97942">
        <ele>898.97</ele>
        <time>2021-08-14T13:07:02Z</time>
      </trkpt>
      <trkpt lat="45.85592" lon="2.9793">
        <ele>900.41</ele>
        <time>2021-08-14T13:07:09Z</time>
      </trkpt>
      <trkpt lat="45.85587" lon="2.97924">
        <ele>900.89</ele>
        <time>2021-08-14T13:07:15Z</time>
      </trkpt>
      <trkpt lat="45.85581" lon="2.97916">
        <ele>901.37</ele>
        <time>2021-08-14T13:07:22Z</time>
      </trkpt>
      <trkpt lat="45.85574" lon="2.97907">
        <ele>902.33</ele>
        <time>2021-08-14T13:07:31Z</time>
      </trkpt>
      <trkpt lat="45.8557" lon="2.97902">
        <ele>902.82</ele>
        <time>2021-08-14T13:07:37Z</time>
      </trkpt>
      <trkpt lat="45.85562" lon="2.97898">
        <ele>903.78</ele>
        <time>2021-08-14T13:07:45Z</time>
      </trkpt>
      <trkpt lat="45.85555" lon="2.97892">
        <ele>905.22</ele>
        <time>2021-08-14T13:07:53Z</time>
      </trkpt>
      <trkpt lat="45.85544" lon="2.97882">
        <ele>906.18</ele>
        <time>2021-08-14T13:08:00Z</time>
      </trkpt>
      <trkpt lat="45.85536" lon="2.97876">
        <ele>906.66</ele>
        <time>2021-08-14T13:08:06Z</time>
      </trkpt>
      <trkpt lat="45.85531" lon="2.97873">
        <ele>907.62</ele>
        <time>2021-08-14T13:08:13Z</time>
      </trkpt>
      <trkpt lat="45.85523" lon="2.97864">
        <ele>908.58</ele>
        <time>2021-08-14T13:08:20Z</time>
      </trkpt>
      <trkpt lat="45.8551" lon="2.97852">
        <ele>909.06</ele>
        <time>2021-08-14T13:08:30Z</time>
      </trkpt>
      <trkpt lat="45.85503" lon="2.97844">
        <ele>910.51</ele>
        <time>2021-08-14T13:08:36Z</time>
      </trkpt>
      <trkpt lat="45.85495" lon="2.97842">
        <ele>910.99</ele>
        <time>2021-08-14T13:08:42Z</time>
      </trkpt>
      <trkpt lat="45.85491" lon="2.9784">
        <ele>910.99</ele>
        <time>2021-08-14T13:08:57Z</time>
      </trkpt>
      <trkpt lat="45.85488" lon="2.97839">
        <ele>910.99</ele>
        <time>2021-08-14T13:09:04Z</time>
      </trkpt>
      <trkpt lat="45.85486" lon="2.9784">
        <ele>910.99</ele>
        <time>2021-08-14T13:09:05Z</time>
      </trkpt>
      <trkpt lat="45.85485" lon="2.97839">
        <ele>910.99</ele>
        <time>2021-08-14T13:09:06Z</time>
      </trkpt>
      <trkpt lat="45.85481" lon="2.97839">
        <ele>911.47</ele>
        <time>2021-08-14T13:09:10Z</time>
      </trkpt>
      <trkpt lat="45.85469" lon="2.97837">
        <ele>912.43</ele>
        <time>2021-08-14T13:09:18Z</time>
      </trkpt>
      <trkpt lat="45.85462" lon="2.97833">
        <ele>912.91</ele>
        <time>2021-08-14T13:09:22Z</time>
      </trkpt>
      <trkpt lat="45.85457" lon="2.97829">
        <ele>913.87</ele>
        <time>2021-08-14T13:09:27Z</time>
      </trkpt>
      <trkpt lat="45.85451" lon="2.97828">
        <ele>913.87</ele>
        <time>2021-08-14T13:09:32Z</time>
      </trkpt>
      <trkpt lat="45.85442" lon="2.97824">
        <ele>914.83</ele>
        <time>2021-08-14T13:09:39Z</time>
      </trkpt>
      <trkpt lat="45.85428" lon="2.97815">
        <ele>915.79</ele>
        <time>2021-08-14T13:09:47Z</time>
      </trkpt>
      <trkpt lat="45.85421" lon="2.97811">
        <ele>916.27</ele>
        <time>2021-08-14T13:09:53Z</time>
      </trkpt>
      <trkpt lat="45.8542" lon="2.97811">
        <ele>916.75</ele>
        <time>2021-08-14T13:09:54Z</time>
      </trkpt>
      <trkpt lat="45.85418" lon="2.97812">
        <ele>916.75</ele>
        <time>2021-08-14T13:09:55Z</time>
      </trkpt>
      <trkpt lat="45.85415" lon="2.97811">
        <ele>916.75</ele>
        <time>2021-08-14T13:09:56Z</time>
      </trkpt>
      <trkpt lat="45.85413" lon="2.97811">
        <ele>916.75</ele>
        <time>2021-08-14T13:09:57Z</time>
      </trkpt>
      <trkpt lat="45.854" lon="2.97808">
        <ele>917.72</ele>
        <time>2021-08-14T13:10:05Z</time>
      </trkpt>
      <trkpt lat="45.85398" lon="2.97807">
        <ele>917.72</ele>
        <time>2021-08-14T13:10:06Z</time>
      </trkpt>
      <trkpt lat="45.85396" lon="2.97806">
        <ele>917.72</ele>
        <time>2021-08-14T13:10:07Z</time>
      </trkpt>
      <trkpt lat="45.85394" lon="2.97806">
        <ele>917.72</ele>
        <time>2021-08-14T13:10:08Z</time>
      </trkpt>
      <trkpt lat="45.85393" lon="2.97806">
        <ele>917.72</ele>
        <time>2021-08-14T13:10:09Z</time>
      </trkpt>
      <trkpt lat="45.85392" lon="2.97806">
        <ele>918.2</ele>
        <time>2021-08-14T13:10:10Z</time>
      </trkpt>
      <trkpt lat="45.8539" lon="2.97806">
        <ele>918.2</ele>
        <time>2021-08-14T13:10:11Z</time>
      </trkpt>
      <trkpt lat="45.85381" lon="2.97802">
        <ele>919.16</ele>
        <time>2021-08-14T13:10:18Z</time>
      </trkpt>
      <trkpt lat="45.85379" lon="2.978">
        <ele>919.64</ele>
        <time>2021-08-14T13:10:20Z</time>
      </trkpt>
      <trkpt lat="45.8537" lon="2.97793">
        <ele>920.6</ele>
        <time>2021-08-14T13:10:28Z</time>
      </trkpt>
      <trkpt lat="45.85366" lon="2.97788">
        <ele>921.08</ele>
        <time>2021-08-14T13:10:32Z</time>
      </trkpt>
      <trkpt lat="45.8536" lon="2.97778">
        <ele>921.56</ele>
        <time>2021-08-14T13:10:40Z</time>
      </trkpt>
      <trkpt lat="45.85357" lon="2.97773">
        <ele>923</ele>
        <time>2021-08-14T13:10:48Z</time>
      </trkpt>
      <trkpt lat="45.85354" lon="2.97765">
        <ele>923.96</ele>
        <time>2021-08-14T13:10:56Z</time>
      </trkpt>
      <trkpt lat="45.85351" lon="2.97757">
        <ele>925.41</ele>
        <time>2021-08-14T13:11:04Z</time>
      </trkpt>
      <trkpt lat="45.85347" lon="2.97749">
        <ele>926.37</ele>
        <time>2021-08-14T13:11:13Z</time>
      </trkpt>
      <trkpt lat="45.85343" lon="2.9774">
        <ele>927.81</ele>
        <time>2021-08-14T13:11:23Z</time>
      </trkpt>
      <trkpt lat="45.85336" lon="2.97732">
        <ele>928.77</ele>
        <time>2021-08-14T13:11:31Z</time>
      </trkpt>
      <trkpt lat="45.85333" lon="2.97727">
        <ele>929.73</ele>
        <time>2021-08-14T13:11:39Z</time>
      </trkpt>
      <trkpt lat="45.85328" lon="2.97716">
        <ele>930.69</ele>
        <time>2021-08-14T13:11:48Z</time>
      </trkpt>
      <trkpt lat="45.85324" lon="2.97709">
        <ele>931.65</ele>
        <time>2021-08-14T13:11:57Z</time>
      </trkpt>
      <trkpt lat="45.85323" lon="2.97703">
        <ele>932.14</ele>
        <time>2021-08-14T13:12:04Z</time>
      </trkpt>
      <trkpt lat="45.85319" lon="2.97695">
        <ele>933.58</ele>
        <time>2021-08-14T13:12:11Z</time>
      </trkpt>
      <trkpt lat="45.85315" lon="2.97688">
        <ele>934.06</ele>
        <time>2021-08-14T13:12:18Z</time>
      </trkpt>
      <trkpt lat="45.8531" lon="2.97683">
        <ele>934.54</ele>
        <time>2021-08-14T13:12:26Z</time>
      </trkpt>
      <trkpt lat="45.85305" lon="2.97679">
        <ele>935.98</ele>
        <time>2021-08-14T13:12:34Z</time>
      </trkpt>
      <trkpt lat="45.85298" lon="2.97671">
        <ele>936.94</ele>
        <time>2021-08-14T13:12:42Z</time>
      </trkpt>
      <trkpt lat="45.85292" lon="2.97663">
        <ele>937.42</ele>
        <time>2021-08-14T13:12:50Z</time>
      </trkpt>
      <trkpt lat="45.85286" lon="2.97656">
        <ele>938.38</ele>
        <time>2021-08-14T13:12:59Z</time>
      </trkpt>
      <trkpt lat="45.8528" lon="2.9765">
        <ele>939.35</ele>
        <time>2021-08-14T13:13:07Z</time>
      </trkpt>
      <trkpt lat="45.85276" lon="2.97647">
        <ele>939.83</ele>
        <time>2021-08-14T13:13:12Z</time>
      </trkpt>
      <trkpt lat="45.85272" lon="2.9764">
        <ele>940.79</ele>
        <time>2021-08-14T13:13:19Z</time>
      </trkpt>
      <trkpt lat="45.85267" lon="2.97629">
        <ele>941.75</ele>
        <time>2021-08-14T13:13:28Z</time>
      </trkpt>
      <trkpt lat="45.85263" lon="2.9762">
        <ele>942.71</ele>
        <time>2021-08-14T13:13:35Z</time>
      </trkpt>
      <trkpt lat="45.85258" lon="2.97611">
        <ele>943.67</ele>
        <time>2021-08-14T13:13:43Z</time>
      </trkpt>
      <trkpt lat="45.85252" lon="2.97604">
        <ele>944.63</ele>
        <time>2021-08-14T13:13:50Z</time>
      </trkpt>
      <trkpt lat="45.85247" lon="2.97598">
        <ele>945.11</ele>
        <time>2021-08-14T13:13:58Z</time>
      </trkpt>
      <trkpt lat="45.85244" lon="2.97588">
        <ele>946.07</ele>
        <time>2021-08-14T13:14:06Z</time>
      </trkpt>
      <trkpt lat="45.85242" lon="2.97583">
        <ele>947.52</ele>
        <time>2021-08-14T13:14:14Z</time>
      </trkpt>
      <trkpt lat="45.85238" lon="2.97578">
        <ele>948</ele>
        <time>2021-08-14T13:14:20Z</time>
      </trkpt>
      <trkpt lat="45.85233" lon="2.97572">
        <ele>948.96</ele>
        <time>2021-08-14T13:14:29Z</time>
      </trkpt>
      <trkpt lat="45.85232" lon="2.97566">
        <ele>949.92</ele>
        <time>2021-08-14T13:14:37Z</time>
      </trkpt>
      <trkpt lat="45.8523" lon="2.97558">
        <ele>950.88</ele>
        <time>2021-08-14T13:14:46Z</time>
      </trkpt>
      <trkpt lat="45.85227" lon="2.9755">
        <ele>952.32</ele>
        <time>2021-08-14T13:14:55Z</time>
      </trkpt>
      <trkpt lat="45.85223" lon="2.97545">
        <ele>952.8</ele>
        <time>2021-08-14T13:15:03Z</time>
      </trkpt>
      <trkpt lat="45.85218" lon="2.9754">
        <ele>954.25</ele>
        <time>2021-08-14T13:15:12Z</time>
      </trkpt>
      <trkpt lat="45.85215" lon="2.97537">
        <ele>955.21</ele>
        <time>2021-08-14T13:15:20Z</time>
      </trkpt>
      <trkpt lat="45.85211" lon="2.97532">
        <ele>956.65</ele>
        <time>2021-08-14T13:15:29Z</time>
      </trkpt>
      <trkpt lat="45.85207" lon="2.97525">
        <ele>958.09</ele>
        <time>2021-08-14T13:15:38Z</time>
      </trkpt>
      <trkpt lat="45.85202" lon="2.97518">
        <ele>959.53</ele>
        <time>2021-08-14T13:15:47Z</time>
      </trkpt>
      <trkpt lat="45.852" lon="2.97511">
        <ele>960.98</ele>
        <time>2021-08-14T13:15:57Z</time>
      </trkpt>
      <trkpt lat="45.85197" lon="2.97505">
        <ele>961.94</ele>
        <time>2021-08-14T13:16:05Z</time>
      </trkpt>
      <trkpt lat="45.85194" lon="2.97501">
        <ele>962.9</ele>
        <time>2021-08-14T13:16:12Z</time>
      </trkpt>
      <trkpt lat="45.85191" lon="2.97496">
        <ele>963.86</ele>
        <time>2021-08-14T13:16:21Z</time>
      </trkpt>
      <trkpt lat="45.85188" lon="2.97491">
        <ele>964.82</ele>
        <time>2021-08-14T13:16:30Z</time>
      </trkpt>
      <trkpt lat="45.85183" lon="2.97484">
        <ele>966.26</ele>
        <time>2021-08-14T13:16:40Z</time>
      </trkpt>
      <trkpt lat="45.8518" lon="2.97479">
        <ele>967.22</ele>
        <time>2021-08-14T13:16:49Z</time>
      </trkpt>
      <trkpt lat="45.85176" lon="2.97471">
        <ele>968.18</ele>
        <time>2021-08-14T13:16:58Z</time>
      </trkpt>
      <trkpt lat="45.85172" lon="2.97465">
        <ele>969.63</ele>
        <time>2021-08-14T13:17:07Z</time>
      </trkpt>
      <trkpt lat="45.85168" lon="2.97458">
        <ele>970.59</ele>
        <time>2021-08-14T13:17:16Z</time>
      </trkpt>
      <trkpt lat="45.85163" lon="2.97449">
        <ele>971.55</ele>
        <time>2021-08-14T13:17:27Z</time>
      </trkpt>
      <trkpt lat="45.8516" lon="2.97442">
        <ele>972.51</ele>
        <time>2021-08-14T13:17:33Z</time>
      </trkpt>
      <trkpt lat="45.85155" lon="2.97435">
        <ele>973.47</ele>
        <time>2021-08-14T13:17:41Z</time>
      </trkpt>
      <trkpt lat="45.8515" lon="2.97427">
        <ele>973.95</ele>
        <time>2021-08-14T13:17:50Z</time>
      </trkpt>
      <trkpt lat="45.85146" lon="2.97415">
        <ele>975.39</ele>
        <time>2021-08-14T13:17:59Z</time>
      </trkpt>
      <trkpt lat="45.85142" lon="2.97406">
        <ele>976.36</ele>
        <time>2021-08-14T13:18:06Z</time>
      </trkpt>
      <trkpt lat="45.85136" lon="2.97397">
        <ele>976.36</ele>
        <time>2021-08-14T13:18:09Z</time>
      </trkpt>
      <trkpt lat="45.85138" lon="2.974">
        <ele>976.36</ele>
        <time>2021-08-14T13:18:12Z</time>
      </trkpt>
      <trkpt lat="45.85137" lon="2.97402">
        <ele>976.36</ele>
        <time>2021-08-14T13:18:19Z</time>
      </trkpt>
      <trkpt lat="45.85136" lon="2.97401">
        <ele>976.84</ele>
        <time>2021-08-14T13:18:34Z</time>
      </trkpt>
      <trkpt lat="45.85133" lon="2.97396">
        <ele>977.8</ele>
        <time>2021-08-14T13:18:42Z</time>
      </trkpt>
      <trkpt lat="45.85129" lon="2.97394">
        <ele>978.76</ele>
        <time>2021-08-14T13:18:51Z</time>
      </trkpt>
      <trkpt lat="45.85126" lon="2.97391">
        <ele>979.72</ele>
        <time>2021-08-14T13:18:58Z</time>
      </trkpt>
      <trkpt lat="45.85124" lon="2.97388">
        <ele>980.68</ele>
        <time>2021-08-14T13:19:05Z</time>
      </trkpt>
      <trkpt lat="45.85121" lon="2.97385">
        <ele>981.64</ele>
        <time>2021-08-14T13:19:13Z</time>
      </trkpt>
      <trkpt lat="45.85118" lon="2.97381">
        <ele>982.12</ele>
        <time>2021-08-14T13:19:22Z</time>
      </trkpt>
      <trkpt lat="45.85113" lon="2.97376">
        <ele>983.57</ele>
        <time>2021-08-14T13:19:31Z</time>
      </trkpt>
      <trkpt lat="45.85107" lon="2.97374">
        <ele>985.01</ele>
        <time>2021-08-14T13:19:42Z</time>
      </trkpt>
      <trkpt lat="45.85104" lon="2.9737">
        <ele>985.97</ele>
        <time>2021-08-14T13:19:50Z</time>
      </trkpt>
      <trkpt lat="45.85097" lon="2.97363">
        <ele>986.93</ele>
        <time>2021-08-14T13:19:59Z</time>
      </trkpt>
      <trkpt lat="45.85093" lon="2.9736">
        <ele>987.41</ele>
        <time>2021-08-14T13:20:09Z</time>
      </trkpt>
      <trkpt lat="45.8509" lon="2.97359">
        <ele>987.41</ele>
        <time>2021-08-14T13:20:21Z</time>
      </trkpt>
      <trkpt lat="45.85088" lon="2.97361">
        <ele>987.41</ele>
        <time>2021-08-14T13:20:29Z</time>
      </trkpt>
      <trkpt lat="45.85088" lon="2.97361">
        <ele>987.41</ele>
        <time>2021-08-14T13:20:43Z</time>
      </trkpt>
      <trkpt lat="45.85087" lon="2.97363">
        <ele>987.41</ele>
        <time>2021-08-14T13:20:56Z</time>
      </trkpt>
      <trkpt lat="45.85086" lon="2.97359">
        <ele>987.41</ele>
        <time>2021-08-14T13:21:12Z</time>
      </trkpt>
      <trkpt lat="45.8509" lon="2.97363">
        <ele>987.41</ele>
        <time>2021-08-14T13:21:30Z</time>
      </trkpt>
      <trkpt lat="45.85091" lon="2.97359">
        <ele>987.41</ele>
        <time>2021-08-14T13:21:48Z</time>
      </trkpt>
      <trkpt lat="45.85094" lon="2.97361">
        <ele>987.41</ele>
        <time>2021-08-14T13:22:07Z</time>
      </trkpt>
      <trkpt lat="45.85091" lon="2.97364">
        <ele>987.41</ele>
        <time>2021-08-14T13:22:24Z</time>
      </trkpt>
      <trkpt lat="45.85088" lon="2.97364">
        <ele>987.41</ele>
        <time>2021-08-14T13:22:40Z</time>
      </trkpt>
      <trkpt lat="45.85087" lon="2.97365">
        <ele>987.41</ele>
        <time>2021-08-14T13:22:53Z</time>
      </trkpt>
      <trkpt lat="45.85087" lon="2.97364">
        <ele>987.41</ele>
        <time>2021-08-14T13:23:08Z</time>
      </trkpt>
      <trkpt lat="45.85087" lon="2.97364">
        <ele>987.41</ele>
        <time>2021-08-14T13:23:20Z</time>
      </trkpt>
      <trkpt lat="45.85087" lon="2.97363">
        <ele>986.93</ele>
        <time>2021-08-14T13:23:41Z</time>
      </trkpt>
      <trkpt lat="45.85084" lon="2.97364">
        <ele>986.93</ele>
        <time>2021-08-14T13:23:52Z</time>
      </trkpt>
      <trkpt lat="45.85082" lon="2.97363">
        <ele>986.93</ele>
        <time>2021-08-14T13:24:03Z</time>
      </trkpt>
      <trkpt lat="45.85076" lon="2.97368">
        <ele>985.49</ele>
        <time>2021-08-14T13:24:10Z</time>
      </trkpt>
      <trkpt lat="45.85067" lon="2.97373">
        <ele>985.01</ele>
        <time>2021-08-14T13:24:19Z</time>
      </trkpt>
      <trkpt lat="45.8506" lon="2.97371">
        <ele>986.45</ele>
        <time>2021-08-14T13:24:28Z</time>
      </trkpt>
      <trkpt lat="45.85059" lon="2.97371">
        <ele>986.45</ele>
        <time>2021-08-14T13:24:29Z</time>
      </trkpt>
      <trkpt lat="45.85054" lon="2.97369">
        <ele>987.41</ele>
        <time>2021-08-14T13:24:38Z</time>
      </trkpt>
      <trkpt lat="45.85051" lon="2.97371">
        <ele>987.41</ele>
        <time>2021-08-14T13:24:52Z</time>
      </trkpt>
      <trkpt lat="45.85051" lon="2.9737">
        <ele>987.41</ele>
        <time>2021-08-14T13:25:05Z</time>
      </trkpt>
      <trkpt lat="45.85049" lon="2.97367">
        <ele>987.41</ele>
        <time>2021-08-14T13:25:19Z</time>
      </trkpt>
      <trkpt lat="45.85047" lon="2.97366">
        <ele>987.41</ele>
        <time>2021-08-14T13:25:29Z</time>
      </trkpt>
      <trkpt lat="45.8505" lon="2.97366">
        <ele>987.41</ele>
        <time>2021-08-14T13:25:40Z</time>
      </trkpt>
      <trkpt lat="45.85051" lon="2.97367">
        <ele>987.41</ele>
        <time>2021-08-14T13:25:42Z</time>
      </trkpt>
      <trkpt lat="45.85056" lon="2.9737">
        <ele>985.97</ele>
        <time>2021-08-14T13:25:49Z</time>
      </trkpt>
      <trkpt lat="45.8506" lon="2.97372">
        <ele>985.01</ele>
        <time>2021-08-14T13:25:55Z</time>
      </trkpt>
      <trkpt lat="45.85064" lon="2.97371">
        <ele>985.01</ele>
        <time>2021-08-14T13:25:58Z</time>
      </trkpt>
      <trkpt lat="45.85065" lon="2.9737">
        <ele>985.01</ele>
        <time>2021-08-14T13:25:59Z</time>
      </trkpt>
      <trkpt lat="45.85071" lon="2.97368">
        <ele>986.45</ele>
        <time>2021-08-14T13:26:05Z</time>
      </trkpt>
      <trkpt lat="45.85078" lon="2.97361">
        <ele>986.45</ele>
        <time>2021-08-14T13:26:14Z</time>
      </trkpt>
      <trkpt lat="45.85082" lon="2.97352">
        <ele>987.41</ele>
        <time>2021-08-14T13:26:23Z</time>
      </trkpt>
      <trkpt lat="45.85085" lon="2.97345">
        <ele>988.85</ele>
        <time>2021-08-14T13:26:32Z</time>
      </trkpt>
      <trkpt lat="45.85089" lon="2.97336">
        <ele>990.3</ele>
        <time>2021-08-14T13:26:42Z</time>
      </trkpt>
      <trkpt lat="45.85094" lon="2.97327">
        <ele>991.26</ele>
        <time>2021-08-14T13:26:52Z</time>
      </trkpt>
      <trkpt lat="45.85097" lon="2.97318">
        <ele>991.74</ele>
        <time>2021-08-14T13:27:01Z</time>
      </trkpt>
      <trkpt lat="45.85101" lon="2.9731">
        <ele>993.18</ele>
        <time>2021-08-14T13:27:10Z</time>
      </trkpt>
      <trkpt lat="45.85105" lon="2.97305">
        <ele>994.14</ele>
        <time>2021-08-14T13:27:20Z</time>
      </trkpt>
      <trkpt lat="45.8511" lon="2.97297">
        <ele>995.1</ele>
        <time>2021-08-14T13:27:29Z</time>
      </trkpt>
      <trkpt lat="45.85113" lon="2.97292">
        <ele>996.06</ele>
        <time>2021-08-14T13:27:36Z</time>
      </trkpt>
      <trkpt lat="45.8512" lon="2.97282">
        <ele>997.51</ele>
        <time>2021-08-14T13:27:46Z</time>
      </trkpt>
      <trkpt lat="45.85126" lon="2.97277">
        <ele>998.47</ele>
        <time>2021-08-14T13:27:55Z</time>
      </trkpt>
      <trkpt lat="45.8513" lon="2.9727">
        <ele>998.95</ele>
        <time>2021-08-14T13:28:03Z</time>
      </trkpt>
      <trkpt lat="45.85135" lon="2.97266">
        <ele>1000.39</ele>
        <time>2021-08-14T13:28:11Z</time>
      </trkpt>
      <trkpt lat="45.85141" lon="2.97262">
        <ele>1000.87</ele>
        <time>2021-08-14T13:28:19Z</time>
      </trkpt>
      <trkpt lat="45.85149" lon="2.97254">
        <ele>1001.83</ele>
        <time>2021-08-14T13:28:27Z</time>
      </trkpt>
      <trkpt lat="45.85153" lon="2.97247">
        <ele>1001.83</ele>
        <time>2021-08-14T13:28:31Z</time>
      </trkpt>
      <trkpt lat="45.85154" lon="2.97245">
        <ele>1001.83</ele>
        <time>2021-08-14T13:28:32Z</time>
      </trkpt>
      <trkpt lat="45.85154" lon="2.97241">
        <ele>1001.83</ele>
        <time>2021-08-14T13:28:34Z</time>
      </trkpt>
      <trkpt lat="45.85155" lon="2.97233">
        <ele>1002.31</ele>
        <time>2021-08-14T13:28:41Z</time>
      </trkpt>
      <trkpt lat="45.85155" lon="2.97231">
        <ele>1002.31</ele>
        <time>2021-08-14T13:28:42Z</time>
      </trkpt>
      <trkpt lat="45.85156" lon="2.97229">
        <ele>1002.31</ele>
        <time>2021-08-14T13:28:43Z</time>
      </trkpt>
      <trkpt lat="45.85156" lon="2.97227">
        <ele>1002.31</ele>
        <time>2021-08-14T13:28:44Z</time>
      </trkpt>
      <trkpt lat="45.85164" lon="2.97211">
        <ele>1002.79</ele>
        <time>2021-08-14T13:28:51Z</time>
      </trkpt>
      <trkpt lat="45.85174" lon="2.97194">
        <ele>1003.27</ele>
        <time>2021-08-14T13:28:58Z</time>
      </trkpt>
      <trkpt lat="45.85184" lon="2.97178">
        <ele>1003.27</ele>
        <time>2021-08-14T13:29:05Z</time>
      </trkpt>
      <trkpt lat="45.85197" lon="2.97156">
        <ele>1003.75</ele>
        <time>2021-08-14T13:29:13Z</time>
      </trkpt>
      <trkpt lat="45.85206" lon="2.9713">
        <ele>1004.23</ele>
        <time>2021-08-14T13:29:22Z</time>
      </trkpt>
      <trkpt lat="45.85212" lon="2.97098">
        <ele>1004.72</ele>
        <time>2021-08-14T13:29:31Z</time>
      </trkpt>
      <trkpt lat="45.85221" lon="2.97067">
        <ele>1005.68</ele>
        <time>2021-08-14T13:29:40Z</time>
      </trkpt>
      <trkpt lat="45.8523" lon="2.97046">
        <ele>1006.16</ele>
        <time>2021-08-14T13:29:47Z</time>
      </trkpt>
      <trkpt lat="45.85235" lon="2.97026">
        <ele>1006.64</ele>
        <time>2021-08-14T13:29:53Z</time>
      </trkpt>
      <trkpt lat="45.85236" lon="2.97019">
        <ele>1006.64</ele>
        <time>2021-08-14T13:29:55Z</time>
      </trkpt>
      <trkpt lat="45.85237" lon="2.97016">
        <ele>1007.12</ele>
        <time>2021-08-14T13:29:56Z</time>
      </trkpt>
      <trkpt lat="45.85238" lon="2.96993">
        <ele>1007.6</ele>
        <time>2021-08-14T13:30:03Z</time>
      </trkpt>
      <trkpt lat="45.8524" lon="2.96972">
        <ele>1008.08</ele>
        <time>2021-08-14T13:30:11Z</time>
      </trkpt>
      <trkpt lat="45.85243" lon="2.96953">
        <ele>1008.56</ele>
        <time>2021-08-14T13:30:18Z</time>
      </trkpt>
      <trkpt lat="45.85245" lon="2.9694">
        <ele>1009.04</ele>
        <time>2021-08-14T13:30:23Z</time>
      </trkpt>
      <trkpt lat="45.85246" lon="2.96938">
        <ele>1009.52</ele>
        <time>2021-08-14T13:30:24Z</time>
      </trkpt>
      <trkpt lat="45.85246" lon="2.96936">
        <ele>1009.52</ele>
        <time>2021-08-14T13:30:25Z</time>
      </trkpt>
      <trkpt lat="45.85247" lon="2.96933">
        <ele>1009.52</ele>
        <time>2021-08-14T13:30:26Z</time>
      </trkpt>
      <trkpt lat="45.85247" lon="2.9693">
        <ele>1009.52</ele>
        <time>2021-08-14T13:30:27Z</time>
      </trkpt>
      <trkpt lat="45.85247" lon="2.9692">
        <ele>1010</ele>
        <time>2021-08-14T13:30:31Z</time>
      </trkpt>
      <trkpt lat="45.85247" lon="2.96918">
        <ele>1010</ele>
        <time>2021-08-14T13:30:32Z</time>
      </trkpt>
      <trkpt lat="45.85246" lon="2.96917">
        <ele>1010</ele>
        <time>2021-08-14T13:30:33Z</time>
      </trkpt>
      <trkpt lat="45.85245" lon="2.96915">
        <ele>1010.48</ele>
        <time>2021-08-14T13:30:34Z</time>
      </trkpt>
      <trkpt lat="45.85245" lon="2.96913">
        <ele>1010.48</ele>
        <time>2021-08-14T13:30:35Z</time>
      </trkpt>
      <trkpt lat="45.85245" lon="2.96911">
        <ele>1010.48</ele>
        <time>2021-08-14T13:30:36Z</time>
      </trkpt>
      <trkpt lat="45.85244" lon="2.9691">
        <ele>1010.96</ele>
        <time>2021-08-14T13:30:37Z</time>
      </trkpt>
      <trkpt lat="45.85244" lon="2.96908">
        <ele>1010.96</ele>
        <time>2021-08-14T13:30:38Z</time>
      </trkpt>
      <trkpt lat="45.85241" lon="2.96891">
        <ele>1011.93</ele>
        <time>2021-08-14T13:30:45Z</time>
      </trkpt>
      <trkpt lat="45.85237" lon="2.96875">
        <ele>1012.41</ele>
        <time>2021-08-14T13:30:52Z</time>
      </trkpt>
      <trkpt lat="45.85233" lon="2.96856">
        <ele>1012.89</ele>
        <time>2021-08-14T13:30:59Z</time>
      </trkpt>
      <trkpt lat="45.85233" lon="2.9685">
        <ele>1013.37</ele>
        <time>2021-08-14T13:31:02Z</time>
      </trkpt>
      <trkpt lat="45.85233" lon="2.96848">
        <ele>1013.37</ele>
        <time>2021-08-14T13:31:03Z</time>
      </trkpt>
      <trkpt lat="45.85232" lon="2.96846">
        <ele>1013.37</ele>
        <time>2021-08-14T13:31:04Z</time>
      </trkpt>
      <trkpt lat="45.85232" lon="2.96844">
        <ele>1013.85</ele>
        <time>2021-08-14T13:31:05Z</time>
      </trkpt>
      <trkpt lat="45.85232" lon="2.96842">
        <ele>1013.85</ele>
        <time>2021-08-14T13:31:06Z</time>
      </trkpt>
      <trkpt lat="45.85233" lon="2.9684">
        <ele>1013.85</ele>
        <time>2021-08-14T13:31:07Z</time>
      </trkpt>
      <trkpt lat="45.85233" lon="2.96838">
        <ele>1013.85</ele>
        <time>2021-08-14T13:31:08Z</time>
      </trkpt>
      <trkpt lat="45.85233" lon="2.96836">
        <ele>1013.85</ele>
        <time>2021-08-14T13:31:09Z</time>
      </trkpt>
      <trkpt lat="45.85234" lon="2.96821">
        <ele>1014.81</ele>
        <time>2021-08-14T13:31:17Z</time>
      </trkpt>
      <trkpt lat="45.85237" lon="2.96804">
        <ele>1015.77</ele>
        <time>2021-08-14T13:31:25Z</time>
      </trkpt>
      <trkpt lat="45.85239" lon="2.968">
        <ele>1015.77</ele>
        <time>2021-08-14T13:31:27Z</time>
      </trkpt>
      <trkpt lat="45.85239" lon="2.96798">
        <ele>1015.77</ele>
        <time>2021-08-14T13:31:28Z</time>
      </trkpt>
      <trkpt lat="45.85239" lon="2.96795">
        <ele>1015.77</ele>
        <time>2021-08-14T13:31:29Z</time>
      </trkpt>
      <trkpt lat="45.8524" lon="2.96792">
        <ele>1015.77</ele>
        <time>2021-08-14T13:31:30Z</time>
      </trkpt>
      <trkpt lat="45.85241" lon="2.9679">
        <ele>1015.77</ele>
        <time>2021-08-14T13:31:31Z</time>
      </trkpt>
      <trkpt lat="45.85242" lon="2.96788">
        <ele>1016.25</ele>
        <time>2021-08-14T13:31:32Z</time>
      </trkpt>
      <trkpt lat="45.85243" lon="2.96787">
        <ele>1016.25</ele>
        <time>2021-08-14T13:31:33Z</time>
      </trkpt>
      <trkpt lat="45.85244" lon="2.96784">
        <ele>1016.25</ele>
        <time>2021-08-14T13:31:34Z</time>
      </trkpt>
      <trkpt lat="45.85253" lon="2.9677">
        <ele>1016.25</ele>
        <time>2021-08-14T13:31:41Z</time>
      </trkpt>
      <trkpt lat="45.85263" lon="2.96755">
        <ele>1016.25</ele>
        <time>2021-08-14T13:31:47Z</time>
      </trkpt>
      <trkpt lat="45.85273" lon="2.96737">
        <ele>1016.25</ele>
        <time>2021-08-14T13:31:53Z</time>
      </trkpt>
      <trkpt lat="45.8528" lon="2.96709">
        <ele>1016.73</ele>
        <time>2021-08-14T13:31:59Z</time>
      </trkpt>
      <trkpt lat="45.85286" lon="2.96681">
        <ele>1017.21</ele>
        <time>2021-08-14T13:32:07Z</time>
      </trkpt>
      <trkpt lat="45.85287" lon="2.96671">
        <ele>1018.17</ele>
        <time>2021-08-14T13:32:10Z</time>
      </trkpt>
      <trkpt lat="45.85287" lon="2.96666">
        <ele>1018.65</ele>
        <time>2021-08-14T13:32:12Z</time>
      </trkpt>
      <trkpt lat="45.85284" lon="2.96658">
        <ele>1019.62</ele>
        <time>2021-08-14T13:32:17Z</time>
      </trkpt>
      <trkpt lat="45.85282" lon="2.96653">
        <ele>1019.13</ele>
        <time>2021-08-14T13:32:20Z</time>
      </trkpt>
      <trkpt lat="45.85281" lon="2.9665">
        <ele>1019.62</ele>
        <time>2021-08-14T13:32:21Z</time>
      </trkpt>
      <trkpt lat="45.8528" lon="2.96648">
        <ele>1019.62</ele>
        <time>2021-08-14T13:32:22Z</time>
      </trkpt>
      <trkpt lat="45.85277" lon="2.9664">
        <ele>1019.62</ele>
        <time>2021-08-14T13:32:25Z</time>
      </trkpt>
      <trkpt lat="45.85277" lon="2.96638">
        <ele>1019.62</ele>
        <time>2021-08-14T13:32:26Z</time>
      </trkpt>
      <trkpt lat="45.85276" lon="2.96636">
        <ele>1020.1</ele>
        <time>2021-08-14T13:32:27Z</time>
      </trkpt>
      <trkpt lat="45.85273" lon="2.96631">
        <ele>1020.58</ele>
        <time>2021-08-14T13:32:30Z</time>
      </trkpt>
      <trkpt lat="45.85273" lon="2.96629">
        <ele>1020.58</ele>
        <time>2021-08-14T13:32:31Z</time>
      </trkpt>
      <trkpt lat="45.85272" lon="2.96627">
        <ele>1020.58</ele>
        <time>2021-08-14T13:32:32Z</time>
      </trkpt>
      <trkpt lat="45.85265" lon="2.96606">
        <ele>1021.54</ele>
        <time>2021-08-14T13:32:40Z</time>
      </trkpt>
      <trkpt lat="45.85259" lon="2.96585">
        <ele>1022.02</ele>
        <time>2021-08-14T13:32:48Z</time>
      </trkpt>
      <trkpt lat="45.85252" lon="2.96566">
        <ele>1022.98</ele>
        <time>2021-08-14T13:32:56Z</time>
      </trkpt>
      <trkpt lat="45.85246" lon="2.9655">
        <ele>1023.94</ele>
        <time>2021-08-14T13:33:03Z</time>
      </trkpt>
      <trkpt lat="45.8524" lon="2.96537">
        <ele>1024.42</ele>
        <time>2021-08-14T13:33:09Z</time>
      </trkpt>
      <trkpt lat="45.85239" lon="2.96534">
        <ele>1024.9</ele>
        <time>2021-08-14T13:33:10Z</time>
      </trkpt>
      <trkpt lat="45.85238" lon="2.96532">
        <ele>1024.9</ele>
        <time>2021-08-14T13:33:11Z</time>
      </trkpt>
      <trkpt lat="45.85237" lon="2.96529">
        <ele>1024.9</ele>
        <time>2021-08-14T13:33:12Z</time>
      </trkpt>
      <trkpt lat="45.85237" lon="2.96527">
        <ele>1024.9</ele>
        <time>2021-08-14T13:33:13Z</time>
      </trkpt>
      <trkpt lat="45.85227" lon="2.96507">
        <ele>1026.34</ele>
        <time>2021-08-14T13:33:23Z</time>
      </trkpt>
      <trkpt lat="45.85218" lon="2.96485">
        <ele>1028.27</ele>
        <time>2021-08-14T13:33:35Z</time>
      </trkpt>
      <trkpt lat="45.85213" lon="2.9647">
        <ele>1029.71</ele>
        <time>2021-08-14T13:33:43Z</time>
      </trkpt>
      <trkpt lat="45.85207" lon="2.9646">
        <ele>1030.19</ele>
        <time>2021-08-14T13:33:49Z</time>
      </trkpt>
      <trkpt lat="45.85206" lon="2.96458">
        <ele>1030.19</ele>
        <time>2021-08-14T13:33:50Z</time>
      </trkpt>
      <trkpt lat="45.85205" lon="2.96457">
        <ele>1030.19</ele>
        <time>2021-08-14T13:33:51Z</time>
      </trkpt>
      <trkpt lat="45.85204" lon="2.96454">
        <ele>1030.67</ele>
        <time>2021-08-14T13:33:52Z</time>
      </trkpt>
      <trkpt lat="45.85203" lon="2.96453">
        <ele>1030.67</ele>
        <time>2021-08-14T13:33:53Z</time>
      </trkpt>
      <trkpt lat="45.852" lon="2.96447">
        <ele>1031.15</ele>
        <time>2021-08-14T13:33:57Z</time>
      </trkpt>
      <trkpt lat="45.85199" lon="2.96446">
        <ele>1031.15</ele>
        <time>2021-08-14T13:33:58Z</time>
      </trkpt>
      <trkpt lat="45.85198" lon="2.96444">
        <ele>1031.15</ele>
        <time>2021-08-14T13:33:59Z</time>
      </trkpt>
      <trkpt lat="45.85197" lon="2.96443">
        <ele>1031.15</ele>
        <time>2021-08-14T13:34:00Z</time>
      </trkpt>
      <trkpt lat="45.85195" lon="2.96442">
        <ele>1031.63</ele>
        <time>2021-08-14T13:34:01Z</time>
      </trkpt>
      <trkpt lat="45.85194" lon="2.96441">
        <ele>1031.63</ele>
        <time>2021-08-14T13:34:02Z</time>
      </trkpt>
      <trkpt lat="45.85193" lon="2.96439">
        <ele>1031.63</ele>
        <time>2021-08-14T13:34:03Z</time>
      </trkpt>
      <trkpt lat="45.85184" lon="2.96429">
        <ele>1032.11</ele>
        <time>2021-08-14T13:34:10Z</time>
      </trkpt>
      <trkpt lat="45.85174" lon="2.96416">
        <ele>1032.59</ele>
        <time>2021-08-14T13:34:18Z</time>
      </trkpt>
      <trkpt lat="45.85168" lon="2.96408">
        <ele>1033.55</ele>
        <time>2021-08-14T13:34:23Z</time>
      </trkpt>
      <trkpt lat="45.85167" lon="2.96406">
        <ele>1033.55</ele>
        <time>2021-08-14T13:34:24Z</time>
      </trkpt>
      <trkpt lat="45.85165" lon="2.96404">
        <ele>1033.55</ele>
        <time>2021-08-14T13:34:25Z</time>
      </trkpt>
      <trkpt lat="45.85164" lon="2.96402">
        <ele>1033.55</ele>
        <time>2021-08-14T13:34:26Z</time>
      </trkpt>
      <trkpt lat="45.85162" lon="2.964">
        <ele>1033.55</ele>
        <time>2021-08-14T13:34:27Z</time>
      </trkpt>
      <trkpt lat="45.85159" lon="2.96396">
        <ele>1033.55</ele>
        <time>2021-08-14T13:34:33Z</time>
      </trkpt>
      <trkpt lat="45.85156" lon="2.96392">
        <ele>1034.04</ele>
        <time>2021-08-14T13:34:48Z</time>
      </trkpt>
      <trkpt lat="45.85157" lon="2.96394">
        <ele>1034.04</ele>
        <time>2021-08-14T13:35:08Z</time>
      </trkpt>
      <trkpt lat="45.85158" lon="2.96397">
        <ele>1034.04</ele>
        <time>2021-08-14T13:35:25Z</time>
      </trkpt>
      <trkpt lat="45.85159" lon="2.96396">
        <ele>1034.52</ele>
        <time>2021-08-14T13:35:36Z</time>
      </trkpt>
      <trkpt lat="45.8516" lon="2.96395">
        <ele>1034.52</ele>
        <time>2021-08-14T13:35:37Z</time>
      </trkpt>
      <trkpt lat="45.85162" lon="2.96393">
        <ele>1034.52</ele>
        <time>2021-08-14T13:35:43Z</time>
      </trkpt>
      <trkpt lat="45.85159" lon="2.96394">
        <ele>1034.52</ele>
        <time>2021-08-14T13:35:58Z</time>
      </trkpt>
      <trkpt lat="45.85156" lon="2.96395">
        <ele>1034.52</ele>
        <time>2021-08-14T13:36:14Z</time>
      </trkpt>
      <trkpt lat="45.85157" lon="2.96393">
        <ele>1034.52</ele>
        <time>2021-08-14T13:36:29Z</time>
      </trkpt>
      <trkpt lat="45.85158" lon="2.96394">
        <ele>1034.52</ele>
        <time>2021-08-14T13:36:44Z</time>
      </trkpt>
      <trkpt lat="45.85159" lon="2.96399">
        <ele>1034.52</ele>
        <time>2021-08-14T13:36:58Z</time>
      </trkpt>
      <trkpt lat="45.85156" lon="2.96402">
        <ele>1034.52</ele>
        <time>2021-08-14T13:37:17Z</time>
      </trkpt>
      <trkpt lat="45.85154" lon="2.96401">
        <ele>1034.52</ele>
        <time>2021-08-14T13:37:23Z</time>
      </trkpt>
      <trkpt lat="45.8515" lon="2.96392">
        <ele>1034.52</ele>
        <time>2021-08-14T13:37:27Z</time>
      </trkpt>
      <trkpt lat="45.85149" lon="2.9639">
        <ele>1034.52</ele>
        <time>2021-08-14T13:37:28Z</time>
      </trkpt>
      <trkpt lat="45.85135" lon="2.96369">
        <ele>1033.55</ele>
        <time>2021-08-14T13:37:35Z</time>
      </trkpt>
      <trkpt lat="45.85119" lon="2.96346">
        <ele>1031.15</ele>
        <time>2021-08-14T13:37:41Z</time>
      </trkpt>
      <trkpt lat="45.85103" lon="2.96326">
        <ele>1029.71</ele>
        <time>2021-08-14T13:37:46Z</time>
      </trkpt>
      <trkpt lat="45.8509" lon="2.96307">
        <ele>1027.79</ele>
        <time>2021-08-14T13:37:51Z</time>
      </trkpt>
      <trkpt lat="45.85074" lon="2.96281">
        <ele>1025.38</ele>
        <time>2021-08-14T13:37:58Z</time>
      </trkpt>
      <trkpt lat="45.85071" lon="2.96271">
        <ele>1024.9</ele>
        <time>2021-08-14T13:38:00Z</time>
      </trkpt>
      <trkpt lat="45.85069" lon="2.96267">
        <ele>1024.42</ele>
        <time>2021-08-14T13:38:01Z</time>
      </trkpt>
      <trkpt lat="45.85067" lon="2.96263">
        <ele>1023.94</ele>
        <time>2021-08-14T13:38:02Z</time>
      </trkpt>
      <trkpt lat="45.85062" lon="2.9625">
        <ele>1022.5</ele>
        <time>2021-08-14T13:38:05Z</time>
      </trkpt>
      <trkpt lat="45.85059" lon="2.96244">
        <ele>1021.54</ele>
        <time>2021-08-14T13:38:06Z</time>
      </trkpt>
      <trkpt lat="45.85056" lon="2.96238">
        <ele>1021.06</ele>
        <time>2021-08-14T13:38:07Z</time>
      </trkpt>
      <trkpt lat="45.85052" lon="2.96232">
        <ele>1020.58</ele>
        <time>2021-08-14T13:38:08Z</time>
      </trkpt>
      <trkpt lat="45.8505" lon="2.96227">
        <ele>1019.62</ele>
        <time>2021-08-14T13:38:09Z</time>
      </trkpt>
      <trkpt lat="45.85047" lon="2.9622">
        <ele>1019.13</ele>
        <time>2021-08-14T13:38:10Z</time>
      </trkpt>
      <trkpt lat="45.85045" lon="2.96215">
        <ele>1018.65</ele>
        <time>2021-08-14T13:38:11Z</time>
      </trkpt>
      <trkpt lat="45.85042" lon="2.96211">
        <ele>1018.17</ele>
        <time>2021-08-14T13:38:12Z</time>
      </trkpt>
      <trkpt lat="45.85029" lon="2.96197">
        <ele>1016.73</ele>
        <time>2021-08-14T13:38:17Z</time>
      </trkpt>
      <trkpt lat="45.85018" lon="2.9619">
        <ele>1015.77</ele>
        <time>2021-08-14T13:38:23Z</time>
      </trkpt>
      <trkpt lat="45.85008" lon="2.96181">
        <ele>1014.33</ele>
        <time>2021-08-14T13:38:26Z</time>
      </trkpt>
      <trkpt lat="45.85003" lon="2.96178">
        <ele>1013.85</ele>
        <time>2021-08-14T13:38:27Z</time>
      </trkpt>
      <trkpt lat="45.84994" lon="2.96172">
        <ele>1013.37</ele>
        <time>2021-08-14T13:38:29Z</time>
      </trkpt>
      <trkpt lat="45.84987" lon="2.96165">
        <ele>1012.41</ele>
        <time>2021-08-14T13:38:31Z</time>
      </trkpt>
      <trkpt lat="45.84967" lon="2.96141">
        <ele>1010.96</ele>
        <time>2021-08-14T13:38:36Z</time>
      </trkpt>
      <trkpt lat="45.84963" lon="2.96136">
        <ele>1010</ele>
        <time>2021-08-14T13:38:37Z</time>
      </trkpt>
      <trkpt lat="45.84935" lon="2.96103">
        <ele>1008.08</ele>
        <time>2021-08-14T13:38:43Z</time>
      </trkpt>
      <trkpt lat="45.84922" lon="2.96089">
        <ele>1007.6</ele>
        <time>2021-08-14T13:38:46Z</time>
      </trkpt>
      <trkpt lat="45.84918" lon="2.96086">
        <ele>1007.12</ele>
        <time>2021-08-14T13:38:47Z</time>
      </trkpt>
      <trkpt lat="45.84914" lon="2.96084">
        <ele>1007.12</ele>
        <time>2021-08-14T13:38:48Z</time>
      </trkpt>
      <trkpt lat="45.84909" lon="2.96081">
        <ele>1007.12</ele>
        <time>2021-08-14T13:38:49Z</time>
      </trkpt>
      <trkpt lat="45.84906" lon="2.9608">
        <ele>1007.12</ele>
        <time>2021-08-14T13:38:50Z</time>
      </trkpt>
      <trkpt lat="45.84903" lon="2.96078">
        <ele>1007.12</ele>
        <time>2021-08-14T13:38:51Z</time>
      </trkpt>
      <trkpt lat="45.84898" lon="2.96073">
        <ele>1007.6</ele>
        <time>2021-08-14T13:38:54Z</time>
      </trkpt>
      <trkpt lat="45.84897" lon="2.96072">
        <ele>1007.6</ele>
        <time>2021-08-14T13:38:55Z</time>
      </trkpt>
      <trkpt lat="45.84884" lon="2.96053">
        <ele>1005.68</ele>
        <time>2021-08-14T13:39:00Z</time>
      </trkpt>
      <trkpt lat="45.8488" lon="2.96048">
        <ele>1005.68</ele>
        <time>2021-08-14T13:39:01Z</time>
      </trkpt>
      <trkpt lat="45.84877" lon="2.96044">
        <ele>1005.2</ele>
        <time>2021-08-14T13:39:02Z</time>
      </trkpt>
      <trkpt lat="45.84873" lon="2.96039">
        <ele>1004.72</ele>
        <time>2021-08-14T13:39:03Z</time>
      </trkpt>
      <trkpt lat="45.84867" lon="2.96035">
        <ele>1004.23</ele>
        <time>2021-08-14T13:39:04Z</time>
      </trkpt>
      <trkpt lat="45.84862" lon="2.9603">
        <ele>1004.23</ele>
        <time>2021-08-14T13:39:05Z</time>
      </trkpt>
      <trkpt lat="45.84857" lon="2.96024">
        <ele>1003.75</ele>
        <time>2021-08-14T13:39:06Z</time>
      </trkpt>
      <trkpt lat="45.84851" lon="2.96017">
        <ele>1002.79</ele>
        <time>2021-08-14T13:39:07Z</time>
      </trkpt>
      <trkpt lat="45.84846" lon="2.9601">
        <ele>1002.79</ele>
        <time>2021-08-14T13:39:08Z</time>
      </trkpt>
      <trkpt lat="45.84841" lon="2.96003">
        <ele>1002.79</ele>
        <time>2021-08-14T13:39:09Z</time>
      </trkpt>
      <trkpt lat="45.84838" lon="2.95996">
        <ele>1002.79</ele>
        <time>2021-08-14T13:39:10Z</time>
      </trkpt>
      <trkpt lat="45.84835" lon="2.9599">
        <ele>1002.79</ele>
        <time>2021-08-14T13:39:11Z</time>
      </trkpt>
      <trkpt lat="45.84833" lon="2.95984">
        <ele>1001.83</ele>
        <time>2021-08-14T13:39:12Z</time>
      </trkpt>
      <trkpt lat="45.8483" lon="2.95978">
        <ele>1001.83</ele>
        <time>2021-08-14T13:39:13Z</time>
      </trkpt>
      <trkpt lat="45.84827" lon="2.95972">
        <ele>1001.83</ele>
        <time>2021-08-14T13:39:14Z</time>
      </trkpt>
      <trkpt lat="45.84824" lon="2.95966">
        <ele>1001.83</ele>
        <time>2021-08-14T13:39:15Z</time>
      </trkpt>
      <trkpt lat="45.84821" lon="2.95961">
        <ele>1001.83</ele>
        <time>2021-08-14T13:39:16Z</time>
      </trkpt>
      <trkpt lat="45.84817" lon="2.95955">
        <ele>1002.31</ele>
        <time>2021-08-14T13:39:17Z</time>
      </trkpt>
      <trkpt lat="45.84813" lon="2.9595">
        <ele>1001.83</ele>
        <time>2021-08-14T13:39:18Z</time>
      </trkpt>
      <trkpt lat="45.84808" lon="2.95945">
        <ele>1001.35</ele>
        <time>2021-08-14T13:39:19Z</time>
      </trkpt>
      <trkpt lat="45.84804" lon="2.95941">
        <ele>1001.35</ele>
        <time>2021-08-14T13:39:20Z</time>
      </trkpt>
      <trkpt lat="45.848" lon="2.95936">
        <ele>1001.35</ele>
        <time>2021-08-14T13:39:21Z</time>
      </trkpt>
      <trkpt lat="45.84781" lon="2.95909">
        <ele>1001.35</ele>
        <time>2021-08-14T13:39:27Z</time>
      </trkpt>
      <trkpt lat="45.84768" lon="2.95894">
        <ele>1001.35</ele>
        <time>2021-08-14T13:39:33Z</time>
      </trkpt>
      <trkpt lat="45.84761" lon="2.95888">
        <ele>1002.79</ele>
        <time>2021-08-14T13:39:36Z</time>
      </trkpt>
      <trkpt lat="45.84747" lon="2.9587">
        <ele>1003.27</ele>
        <time>2021-08-14T13:39:44Z</time>
      </trkpt>
      <trkpt lat="45.84734" lon="2.95861">
        <ele>1003.75</ele>
        <time>2021-08-14T13:39:50Z</time>
      </trkpt>
      <trkpt lat="45.84721" lon="2.95851">
        <ele>1005.2</ele>
        <time>2021-08-14T13:39:56Z</time>
      </trkpt>
      <trkpt lat="45.84709" lon="2.95843">
        <ele>1006.16</ele>
        <time>2021-08-14T13:40:03Z</time>
      </trkpt>
      <trkpt lat="45.84693" lon="2.95837">
        <ele>1007.6</ele>
        <time>2021-08-14T13:40:12Z</time>
      </trkpt>
      <trkpt lat="45.84676" lon="2.95833">
        <ele>1008.56</ele>
        <time>2021-08-14T13:40:21Z</time>
      </trkpt>
      <trkpt lat="45.84662" lon="2.95828">
        <ele>1010</ele>
        <time>2021-08-14T13:40:30Z</time>
      </trkpt>
      <trkpt lat="45.84658" lon="2.95826">
        <ele>1010.48</ele>
        <time>2021-08-14T13:40:33Z</time>
      </trkpt>
      <trkpt lat="45.84657" lon="2.95826">
        <ele>1010.48</ele>
        <time>2021-08-14T13:40:34Z</time>
      </trkpt>
      <trkpt lat="45.84655" lon="2.95825">
        <ele>1010.96</ele>
        <time>2021-08-14T13:40:35Z</time>
      </trkpt>
      <trkpt lat="45.84653" lon="2.95825">
        <ele>1010.96</ele>
        <time>2021-08-14T13:40:36Z</time>
      </trkpt>
      <trkpt lat="45.84652" lon="2.95825">
        <ele>1010.96</ele>
        <time>2021-08-14T13:40:37Z</time>
      </trkpt>
      <trkpt lat="45.8465" lon="2.95825">
        <ele>1011.44</ele>
        <time>2021-08-14T13:40:38Z</time>
      </trkpt>
      <trkpt lat="45.84648" lon="2.95825">
        <ele>1011.44</ele>
        <time>2021-08-14T13:40:39Z</time>
      </trkpt>
      <trkpt lat="45.8464" lon="2.95823">
        <ele>1011.93</ele>
        <time>2021-08-14T13:40:45Z</time>
      </trkpt>
      <trkpt lat="45.84627" lon="2.9582">
        <ele>1012.41</ele>
        <time>2021-08-14T13:40:53Z</time>
      </trkpt>
      <trkpt lat="45.84617" lon="2.95817">
        <ele>1013.37</ele>
        <time>2021-08-14T13:41:00Z</time>
      </trkpt>
      <trkpt lat="45.84603" lon="2.95814">
        <ele>1013.85</ele>
        <time>2021-08-14T13:41:07Z</time>
      </trkpt>
      <trkpt lat="45.84586" lon="2.9581">
        <ele>1014.33</ele>
        <time>2021-08-14T13:41:13Z</time>
      </trkpt>
      <trkpt lat="45.84566" lon="2.95804">
        <ele>1014.33</ele>
        <time>2021-08-14T13:41:20Z</time>
      </trkpt>
      <trkpt lat="45.84545" lon="2.95797">
        <ele>1014.33</ele>
        <time>2021-08-14T13:41:27Z</time>
      </trkpt>
      <trkpt lat="45.84523" lon="2.95787">
        <ele>1015.29</ele>
        <time>2021-08-14T13:41:35Z</time>
      </trkpt>
      <trkpt lat="45.84503" lon="2.95779">
        <ele>1016.25</ele>
        <time>2021-08-14T13:41:43Z</time>
      </trkpt>
      <trkpt lat="45.84494" lon="2.95776">
        <ele>1016.73</ele>
        <time>2021-08-14T13:41:47Z</time>
      </trkpt>
      <trkpt lat="45.84491" lon="2.95776">
        <ele>1016.73</ele>
        <time>2021-08-14T13:41:48Z</time>
      </trkpt>
      <trkpt lat="45.84488" lon="2.95776">
        <ele>1016.73</ele>
        <time>2021-08-14T13:41:49Z</time>
      </trkpt>
      <trkpt lat="45.84486" lon="2.95775">
        <ele>1016.73</ele>
        <time>2021-08-14T13:41:50Z</time>
      </trkpt>
      <trkpt lat="45.84484" lon="2.95776">
        <ele>1016.73</ele>
        <time>2021-08-14T13:41:51Z</time>
      </trkpt>
      <trkpt lat="45.84481" lon="2.95776">
        <ele>1016.73</ele>
        <time>2021-08-14T13:41:52Z</time>
      </trkpt>
      <trkpt lat="45.84479" lon="2.95775">
        <ele>1016.73</ele>
        <time>2021-08-14T13:41:53Z</time>
      </trkpt>
      <trkpt lat="45.84461" lon="2.95766">
        <ele>1017.21</ele>
        <time>2021-08-14T13:41:59Z</time>
      </trkpt>
      <trkpt lat="45.84452" lon="2.95761">
        <ele>1015.29</ele>
        <time>2021-08-14T13:42:01Z</time>
      </trkpt>
      <trkpt lat="45.84447" lon="2.95759">
        <ele>1015.29</ele>
        <time>2021-08-14T13:42:02Z</time>
      </trkpt>
      <trkpt lat="45.84444" lon="2.95756">
        <ele>1014.81</ele>
        <time>2021-08-14T13:42:03Z</time>
      </trkpt>
      <trkpt lat="45.84427" lon="2.95748">
        <ele>1013.85</ele>
        <time>2021-08-14T13:42:06Z</time>
      </trkpt>
      <trkpt lat="45.84408" lon="2.95743">
        <ele>1012.41</ele>
        <time>2021-08-14T13:42:09Z</time>
      </trkpt>
      <trkpt lat="45.844" lon="2.95742">
        <ele>1012.41</ele>
        <time>2021-08-14T13:42:10Z</time>
      </trkpt>
      <trkpt lat="45.84394" lon="2.95741">
        <ele>1011.93</ele>
        <time>2021-08-14T13:42:11Z</time>
      </trkpt>
      <trkpt lat="45.84335" lon="2.95728">
        <ele>1010.48</ele>
        <time>2021-08-14T13:42:19Z</time>
      </trkpt>
      <trkpt lat="45.84329" lon="2.95726">
        <ele>1010.48</ele>
        <time>2021-08-14T13:42:20Z</time>
      </trkpt>
      <trkpt lat="45.84322" lon="2.95724">
        <ele>1010.48</ele>
        <time>2021-08-14T13:42:21Z</time>
      </trkpt>
      <trkpt lat="45.84315" lon="2.95723">
        <ele>1010.48</ele>
        <time>2021-08-14T13:42:22Z</time>
      </trkpt>
      <trkpt lat="45.84302" lon="2.95722">
        <ele>1010.96</ele>
        <time>2021-08-14T13:42:24Z</time>
      </trkpt>
      <trkpt lat="45.84259" lon="2.95724">
        <ele>1010.48</ele>
        <time>2021-08-14T13:42:31Z</time>
      </trkpt>
      <trkpt lat="45.8423" lon="2.95723">
        <ele>1010.48</ele>
        <time>2021-08-14T13:42:37Z</time>
      </trkpt>
      <trkpt lat="45.84212" lon="2.95723">
        <ele>1010.48</ele>
        <time>2021-08-14T13:42:41Z</time>
      </trkpt>
      <trkpt lat="45.84195" lon="2.95721">
        <ele>1010</ele>
        <time>2021-08-14T13:42:45Z</time>
      </trkpt>
      <trkpt lat="45.84165" lon="2.95712">
        <ele>1010</ele>
        <time>2021-08-14T13:42:52Z</time>
      </trkpt>
      <trkpt lat="45.84152" lon="2.95708">
        <ele>1009.52</ele>
        <time>2021-08-14T13:42:55Z</time>
      </trkpt>
      <trkpt lat="45.84144" lon="2.95706">
        <ele>1009.04</ele>
        <time>2021-08-14T13:42:57Z</time>
      </trkpt>
      <trkpt lat="45.84139" lon="2.95704">
        <ele>1009.04</ele>
        <time>2021-08-14T13:42:58Z</time>
      </trkpt>
      <trkpt lat="45.8413" lon="2.957">
        <ele>1008.56</ele>
        <time>2021-08-14T13:43:00Z</time>
      </trkpt>
      <trkpt lat="45.84109" lon="2.95691">
        <ele>1009.04</ele>
        <time>2021-08-14T13:43:06Z</time>
      </trkpt>
      <trkpt lat="45.84094" lon="2.95686">
        <ele>1009.04</ele>
        <time>2021-08-14T13:43:12Z</time>
      </trkpt>
      <trkpt lat="45.84085" lon="2.95686">
        <ele>1009.04</ele>
        <time>2021-08-14T13:43:16Z</time>
      </trkpt>
      <trkpt lat="45.84082" lon="2.95686">
        <ele>1009.04</ele>
        <time>2021-08-14T13:43:17Z</time>
      </trkpt>
      <trkpt lat="45.8406" lon="2.95687">
        <ele>1009.04</ele>
        <time>2021-08-14T13:43:25Z</time>
      </trkpt>
      <trkpt lat="45.84045" lon="2.95689">
        <ele>1009.04</ele>
        <time>2021-08-14T13:43:32Z</time>
      </trkpt>
      <trkpt lat="45.84043" lon="2.95689">
        <ele>1009.04</ele>
        <time>2021-08-14T13:43:33Z</time>
      </trkpt>
      <trkpt lat="45.84041" lon="2.95688">
        <ele>1009.04</ele>
        <time>2021-08-14T13:43:34Z</time>
      </trkpt>
      <trkpt lat="45.84029" lon="2.95691">
        <ele>1009.04</ele>
        <time>2021-08-14T13:43:39Z</time>
      </trkpt>
      <trkpt lat="45.84019" lon="2.95703">
        <ele>1009.52</ele>
        <time>2021-08-14T13:43:45Z</time>
      </trkpt>
      <trkpt lat="45.84007" lon="2.95715">
        <ele>1010.96</ele>
        <time>2021-08-14T13:43:51Z</time>
      </trkpt>
      <trkpt lat="45.83995" lon="2.95727">
        <ele>1011.93</ele>
        <time>2021-08-14T13:43:58Z</time>
      </trkpt>
      <trkpt lat="45.83993" lon="2.95729">
        <ele>1011.93</ele>
        <time>2021-08-14T13:43:59Z</time>
      </trkpt>
      <trkpt lat="45.83992" lon="2.95731">
        <ele>1011.93</ele>
        <time>2021-08-14T13:44:00Z</time>
      </trkpt>
      <trkpt lat="45.83991" lon="2.95733">
        <ele>1011.93</ele>
        <time>2021-08-14T13:44:01Z</time>
      </trkpt>
      <trkpt lat="45.8399" lon="2.95735">
        <ele>1011.93</ele>
        <time>2021-08-14T13:44:02Z</time>
      </trkpt>
      <trkpt lat="45.83988" lon="2.95737">
        <ele>1012.41</ele>
        <time>2021-08-14T13:44:03Z</time>
      </trkpt>
      <trkpt lat="45.83986" lon="2.95739">
        <ele>1012.41</ele>
        <time>2021-08-14T13:44:04Z</time>
      </trkpt>
      <trkpt lat="45.83985" lon="2.95741">
        <ele>1012.41</ele>
        <time>2021-08-14T13:44:05Z</time>
      </trkpt>
      <trkpt lat="45.83984" lon="2.95742">
        <ele>1012.41</ele>
        <time>2021-08-14T13:44:06Z</time>
      </trkpt>
      <trkpt lat="45.83977" lon="2.95747">
        <ele>1012.89</ele>
        <time>2021-08-14T13:44:10Z</time>
      </trkpt>
      <trkpt lat="45.83971" lon="2.95754">
        <ele>1013.37</ele>
        <time>2021-08-14T13:44:14Z</time>
      </trkpt>
      <trkpt lat="45.83964" lon="2.95767">
        <ele>1014.81</ele>
        <time>2021-08-14T13:44:21Z</time>
      </trkpt>
      <trkpt lat="45.83955" lon="2.95774">
        <ele>1015.29</ele>
        <time>2021-08-14T13:44:27Z</time>
      </trkpt>
      <trkpt lat="45.8395" lon="2.95776">
        <ele>1015.77</ele>
        <time>2021-08-14T13:44:29Z</time>
      </trkpt>
      <trkpt lat="45.83948" lon="2.95777">
        <ele>1015.77</ele>
        <time>2021-08-14T13:44:30Z</time>
      </trkpt>
      <trkpt lat="45.83946" lon="2.95777">
        <ele>1015.77</ele>
        <time>2021-08-14T13:44:31Z</time>
      </trkpt>
      <trkpt lat="45.83944" lon="2.95778">
        <ele>1015.77</ele>
        <time>2021-08-14T13:44:32Z</time>
      </trkpt>
      <trkpt lat="45.83938" lon="2.95783">
        <ele>1016.73</ele>
        <time>2021-08-14T13:44:37Z</time>
      </trkpt>
      <trkpt lat="45.83937" lon="2.95783">
        <ele>1016.73</ele>
        <time>2021-08-14T13:44:38Z</time>
      </trkpt>
      <trkpt lat="45.83935" lon="2.95783">
        <ele>1016.73</ele>
        <time>2021-08-14T13:44:39Z</time>
      </trkpt>
      <trkpt lat="45.83919" lon="2.9579">
        <ele>1018.17</ele>
        <time>2021-08-14T13:44:48Z</time>
      </trkpt>
      <trkpt lat="45.83909" lon="2.95794">
        <ele>1019.13</ele>
        <time>2021-08-14T13:44:54Z</time>
      </trkpt>
      <trkpt lat="45.83897" lon="2.95801">
        <ele>1019.62</ele>
        <time>2021-08-14T13:45:02Z</time>
      </trkpt>
      <trkpt lat="45.83889" lon="2.95807">
        <ele>1020.58</ele>
        <time>2021-08-14T13:45:11Z</time>
      </trkpt>
      <trkpt lat="45.8388" lon="2.95811">
        <ele>1021.54</ele>
        <time>2021-08-14T13:45:19Z</time>
      </trkpt>
      <trkpt lat="45.8387" lon="2.95816">
        <ele>1022.5</ele>
        <time>2021-08-14T13:45:26Z</time>
      </trkpt>
      <trkpt lat="45.83859" lon="2.95825">
        <ele>1022.98</ele>
        <time>2021-08-14T13:45:34Z</time>
      </trkpt>
      <trkpt lat="45.83848" lon="2.95832">
        <ele>1023.94</ele>
        <time>2021-08-14T13:45:42Z</time>
      </trkpt>
      <trkpt lat="45.83839" lon="2.95838">
        <ele>1024.42</ele>
        <time>2021-08-14T13:45:49Z</time>
      </trkpt>
      <trkpt lat="45.83825" lon="2.95844">
        <ele>1025.38</ele>
        <time>2021-08-14T13:45:58Z</time>
      </trkpt>
      <trkpt lat="45.83813" lon="2.95851">
        <ele>1026.34</ele>
        <time>2021-08-14T13:46:06Z</time>
      </trkpt>
      <trkpt lat="45.83807" lon="2.95856">
        <ele>1026.34</ele>
        <time>2021-08-14T13:46:10Z</time>
      </trkpt>
      <trkpt lat="45.83803" lon="2.9586">
        <ele>1026.83</ele>
        <time>2021-08-14T13:46:13Z</time>
      </trkpt>
      <trkpt lat="45.83801" lon="2.9586">
        <ele>1027.31</ele>
        <time>2021-08-14T13:46:14Z</time>
      </trkpt>
      <trkpt lat="45.83799" lon="2.9586">
        <ele>1027.31</ele>
        <time>2021-08-14T13:46:15Z</time>
      </trkpt>
      <trkpt lat="45.83797" lon="2.95861">
        <ele>1027.31</ele>
        <time>2021-08-14T13:46:16Z</time>
      </trkpt>
      <trkpt lat="45.83795" lon="2.95863">
        <ele>1027.31</ele>
        <time>2021-08-14T13:46:17Z</time>
      </trkpt>
      <trkpt lat="45.83793" lon="2.95864">
        <ele>1027.31</ele>
        <time>2021-08-14T13:46:18Z</time>
      </trkpt>
      <trkpt lat="45.83791" lon="2.95865">
        <ele>1027.79</ele>
        <time>2021-08-14T13:46:19Z</time>
      </trkpt>
      <trkpt lat="45.8379" lon="2.95866">
        <ele>1027.79</ele>
        <time>2021-08-14T13:46:20Z</time>
      </trkpt>
      <trkpt lat="45.83789" lon="2.95866">
        <ele>1027.79</ele>
        <time>2021-08-14T13:46:21Z</time>
      </trkpt>
      <trkpt lat="45.83787" lon="2.95867">
        <ele>1027.79</ele>
        <time>2021-08-14T13:46:22Z</time>
      </trkpt>
      <trkpt lat="45.83786" lon="2.95868">
        <ele>1028.27</ele>
        <time>2021-08-14T13:46:23Z</time>
      </trkpt>
      <trkpt lat="45.83785" lon="2.9587">
        <ele>1027.79</ele>
        <time>2021-08-14T13:46:24Z</time>
      </trkpt>
      <trkpt lat="45.83783" lon="2.95873">
        <ele>1027.79</ele>
        <time>2021-08-14T13:46:27Z</time>
      </trkpt>
      <trkpt lat="45.83781" lon="2.95873">
        <ele>1028.75</ele>
        <time>2021-08-14T13:46:28Z</time>
      </trkpt>
      <trkpt lat="45.8378" lon="2.95874">
        <ele>1028.75</ele>
        <time>2021-08-14T13:46:29Z</time>
      </trkpt>
      <trkpt lat="45.83778" lon="2.95875">
        <ele>1028.75</ele>
        <time>2021-08-14T13:46:30Z</time>
      </trkpt>
      <trkpt lat="45.8377" lon="2.9588">
        <ele>1029.23</ele>
        <time>2021-08-14T13:46:37Z</time>
      </trkpt>
      <trkpt lat="45.83756" lon="2.95883">
        <ele>1030.19</ele>
        <time>2021-08-14T13:46:45Z</time>
      </trkpt>
      <trkpt lat="45.83749" lon="2.95882">
        <ele>1030.67</ele>
        <time>2021-08-14T13:46:49Z</time>
      </trkpt>
      <trkpt lat="45.83747" lon="2.95883">
        <ele>1030.67</ele>
        <time>2021-08-14T13:46:50Z</time>
      </trkpt>
      <trkpt lat="45.83736" lon="2.95886">
        <ele>1031.15</ele>
        <time>2021-08-14T13:46:58Z</time>
      </trkpt>
      <trkpt lat="45.83724" lon="2.95892">
        <ele>1032.11</ele>
        <time>2021-08-14T13:47:07Z</time>
      </trkpt>
      <trkpt lat="45.83722" lon="2.95893">
        <ele>1032.59</ele>
        <time>2021-08-14T13:47:09Z</time>
      </trkpt>
      <trkpt lat="45.8372" lon="2.95894">
        <ele>1032.59</ele>
        <time>2021-08-14T13:47:10Z</time>
      </trkpt>
      <trkpt lat="45.83719" lon="2.95894">
        <ele>1032.59</ele>
        <time>2021-08-14T13:47:11Z</time>
      </trkpt>
      <trkpt lat="45.83717" lon="2.95895">
        <ele>1032.59</ele>
        <time>2021-08-14T13:47:12Z</time>
      </trkpt>
      <trkpt lat="45.83709" lon="2.95901">
        <ele>1034.04</ele>
        <time>2021-08-14T13:47:19Z</time>
      </trkpt>
      <trkpt lat="45.83708" lon="2.95903">
        <ele>1034.04</ele>
        <time>2021-08-14T13:47:20Z</time>
      </trkpt>
      <trkpt lat="45.83706" lon="2.95904">
        <ele>1034.52</ele>
        <time>2021-08-14T13:47:21Z</time>
      </trkpt>
      <trkpt lat="45.83704" lon="2.95906">
        <ele>1034.52</ele>
        <time>2021-08-14T13:47:22Z</time>
      </trkpt>
      <trkpt lat="45.83702" lon="2.95906">
        <ele>1034.52</ele>
        <time>2021-08-14T13:47:23Z</time>
      </trkpt>
      <trkpt lat="45.837" lon="2.95907">
        <ele>1035</ele>
        <time>2021-08-14T13:47:24Z</time>
      </trkpt>
      <trkpt lat="45.83698" lon="2.95906">
        <ele>1035</ele>
        <time>2021-08-14T13:47:25Z</time>
      </trkpt>
      <trkpt lat="45.83683" lon="2.95901">
        <ele>1035</ele>
        <time>2021-08-14T13:47:34Z</time>
      </trkpt>
      <trkpt lat="45.83673" lon="2.95896">
        <ele>1035.48</ele>
        <time>2021-08-14T13:47:41Z</time>
      </trkpt>
      <trkpt lat="45.83668" lon="2.95894">
        <ele>1035.48</ele>
        <time>2021-08-14T13:47:48Z</time>
      </trkpt>
      <trkpt lat="45.83665" lon="2.95894">
        <ele>1035.48</ele>
        <time>2021-08-14T13:47:58Z</time>
      </trkpt>
      <trkpt lat="45.83662" lon="2.95896">
        <ele>1035.48</ele>
        <time>2021-08-14T13:48:09Z</time>
      </trkpt>
      <trkpt lat="45.83659" lon="2.95902">
        <ele>1036.92</ele>
        <time>2021-08-14T13:48:17Z</time>
      </trkpt>
      <trkpt lat="45.83656" lon="2.95908">
        <ele>1037.88</ele>
        <time>2021-08-14T13:48:25Z</time>
      </trkpt>
      <trkpt lat="45.83653" lon="2.95914">
        <ele>1039.32</ele>
        <time>2021-08-14T13:48:33Z</time>
      </trkpt>
      <trkpt lat="45.83645" lon="2.95919">
        <ele>1039.8</ele>
        <time>2021-08-14T13:48:42Z</time>
      </trkpt>
      <trkpt lat="45.8364" lon="2.9592">
        <ele>1040.28</ele>
        <time>2021-08-14T13:48:49Z</time>
      </trkpt>
      <trkpt lat="45.83631" lon="2.95917">
        <ele>1040.76</ele>
        <time>2021-08-14T13:48:57Z</time>
      </trkpt>
      <trkpt lat="45.83623" lon="2.95914">
        <ele>1041.73</ele>
        <time>2021-08-14T13:49:05Z</time>
      </trkpt>
      <trkpt lat="45.83614" lon="2.95913">
        <ele>1043.17</ele>
        <time>2021-08-14T13:49:12Z</time>
      </trkpt>
      <trkpt lat="45.83607" lon="2.95915">
        <ele>1043.65</ele>
        <time>2021-08-14T13:49:22Z</time>
      </trkpt>
      <trkpt lat="45.83599" lon="2.9591">
        <ele>1044.13</ele>
        <time>2021-08-14T13:49:32Z</time>
      </trkpt>
      <trkpt lat="45.83592" lon="2.95906">
        <ele>1045.09</ele>
        <time>2021-08-14T13:49:41Z</time>
      </trkpt>
      <trkpt lat="45.83584" lon="2.95904">
        <ele>1046.53</ele>
        <time>2021-08-14T13:49:51Z</time>
      </trkpt>
      <trkpt lat="45.83579" lon="2.95899">
        <ele>1047.49</ele>
        <time>2021-08-14T13:49:58Z</time>
      </trkpt>
      <trkpt lat="45.83573" lon="2.95896">
        <ele>1048.45</ele>
        <time>2021-08-14T13:50:06Z</time>
      </trkpt>
      <trkpt lat="45.8357" lon="2.95894">
        <ele>1050.38</ele>
        <time>2021-08-14T13:50:16Z</time>
      </trkpt>
      <trkpt lat="45.83567" lon="2.9589">
        <ele>1050.86</ele>
        <time>2021-08-14T13:50:23Z</time>
      </trkpt>
      <trkpt lat="45.83564" lon="2.95884">
        <ele>1052.78</ele>
        <time>2021-08-14T13:50:31Z</time>
      </trkpt>
      <trkpt lat="45.83562" lon="2.95878">
        <ele>1054.22</ele>
        <time>2021-08-14T13:50:41Z</time>
      </trkpt>
      <trkpt lat="45.83564" lon="2.95871">
        <ele>1055.18</ele>
        <time>2021-08-14T13:50:50Z</time>
      </trkpt>
      <trkpt lat="45.83567" lon="2.95864">
        <ele>1055.67</ele>
        <time>2021-08-14T13:50:59Z</time>
      </trkpt>
      <trkpt lat="45.83567" lon="2.95863">
        <ele>1055.67</ele>
        <time>2021-08-14T13:51:15Z</time>
      </trkpt>
      <trkpt lat="45.83567" lon="2.95863">
        <ele>1056.15</ele>
        <time>2021-08-14T13:51:25Z</time>
      </trkpt>
      <trkpt lat="45.83568" lon="2.95858">
        <ele>1056.15</ele>
        <time>2021-08-14T13:51:31Z</time>
      </trkpt>
      <trkpt lat="45.8357" lon="2.95854">
        <ele>1056.15</ele>
        <time>2021-08-14T13:51:34Z</time>
      </trkpt>
      <trkpt lat="45.83574" lon="2.95846">
        <ele>1056.15</ele>
        <time>2021-08-14T13:51:39Z</time>
      </trkpt>
      <trkpt lat="45.83574" lon="2.95844">
        <ele>1056.63</ele>
        <time>2021-08-14T13:51:40Z</time>
      </trkpt>
      <trkpt lat="45.83575" lon="2.95842">
        <ele>1056.63</ele>
        <time>2021-08-14T13:51:41Z</time>
      </trkpt>
      <trkpt lat="45.83576" lon="2.95839">
        <ele>1056.63</ele>
        <time>2021-08-14T13:51:42Z</time>
      </trkpt>
      <trkpt lat="45.83576" lon="2.95837">
        <ele>1056.63</ele>
        <time>2021-08-14T13:51:43Z</time>
      </trkpt>
      <trkpt lat="45.83577" lon="2.95834">
        <ele>1056.63</ele>
        <time>2021-08-14T13:51:44Z</time>
      </trkpt>
      <trkpt lat="45.83578" lon="2.95832">
        <ele>1056.63</ele>
        <time>2021-08-14T13:51:45Z</time>
      </trkpt>
      <trkpt lat="45.83579" lon="2.9583">
        <ele>1057.11</ele>
        <time>2021-08-14T13:51:46Z</time>
      </trkpt>
      <trkpt lat="45.83589" lon="2.95809">
        <ele>1057.11</ele>
        <time>2021-08-14T13:51:54Z</time>
      </trkpt>
      <trkpt lat="45.83598" lon="2.95786">
        <ele>1057.11</ele>
        <time>2021-08-14T13:52:02Z</time>
      </trkpt>
      <trkpt lat="45.83604" lon="2.9577">
        <ele>1057.11</ele>
        <time>2021-08-14T13:52:08Z</time>
      </trkpt>
      <trkpt lat="45.83612" lon="2.95747">
        <ele>1055.18</ele>
        <time>2021-08-14T13:52:14Z</time>
      </trkpt>
      <trkpt lat="45.83632" lon="2.95704">
        <ele>1053.74</ele>
        <time>2021-08-14T13:52:22Z</time>
      </trkpt>
      <trkpt lat="45.83644" lon="2.9568">
        <ele>1052.3</ele>
        <time>2021-08-14T13:52:26Z</time>
      </trkpt>
      <trkpt lat="45.83648" lon="2.95673">
        <ele>1052.3</ele>
        <time>2021-08-14T13:52:27Z</time>
      </trkpt>
      <trkpt lat="45.83662" lon="2.95648">
        <ele>1052.3</ele>
        <time>2021-08-14T13:52:31Z</time>
      </trkpt>
      <trkpt lat="45.83669" lon="2.95634">
        <ele>1052.3</ele>
        <time>2021-08-14T13:52:34Z</time>
      </trkpt>
      <trkpt lat="45.83672" lon="2.95629">
        <ele>1052.3</ele>
        <time>2021-08-14T13:52:35Z</time>
      </trkpt>
      <trkpt lat="45.83673" lon="2.95623">
        <ele>1051.82</ele>
        <time>2021-08-14T13:52:36Z</time>
      </trkpt>
      <trkpt lat="45.83674" lon="2.95616">
        <ele>1051.82</ele>
        <time>2021-08-14T13:52:37Z</time>
      </trkpt>
      <trkpt lat="45.83669" lon="2.95598">
        <ele>1050.86</ele>
        <time>2021-08-14T13:52:40Z</time>
      </trkpt>
      <trkpt lat="45.83654" lon="2.95568">
        <ele>1047.49</ele>
        <time>2021-08-14T13:52:46Z</time>
      </trkpt>
      <trkpt lat="45.8365" lon="2.95564">
        <ele>1047.01</ele>
        <time>2021-08-14T13:52:47Z</time>
      </trkpt>
      <trkpt lat="45.83645" lon="2.95561">
        <ele>1047.01</ele>
        <time>2021-08-14T13:52:48Z</time>
      </trkpt>
      <trkpt lat="45.83641" lon="2.95557">
        <ele>1047.01</ele>
        <time>2021-08-14T13:52:49Z</time>
      </trkpt>
      <trkpt lat="45.83636" lon="2.95555">
        <ele>1047.01</ele>
        <time>2021-08-14T13:52:50Z</time>
      </trkpt>
      <trkpt lat="45.83632" lon="2.95553">
        <ele>1047.01</ele>
        <time>2021-08-14T13:52:51Z</time>
      </trkpt>
      <trkpt lat="45.8362" lon="2.9554">
        <ele>1048.45</ele>
        <time>2021-08-14T13:52:55Z</time>
      </trkpt>
      <trkpt lat="45.83616" lon="2.95533">
        <ele>1048.94</ele>
        <time>2021-08-14T13:52:58Z</time>
      </trkpt>
      <trkpt lat="45.83615" lon="2.95532">
        <ele>1048.94</ele>
        <time>2021-08-14T13:52:59Z</time>
      </trkpt>
      <trkpt lat="45.83614" lon="2.9553">
        <ele>1048.94</ele>
        <time>2021-08-14T13:53:00Z</time>
      </trkpt>
      <trkpt lat="45.83613" lon="2.95529">
        <ele>1049.42</ele>
        <time>2021-08-14T13:53:01Z</time>
      </trkpt>
      <trkpt lat="45.83612" lon="2.95527">
        <ele>1049.42</ele>
        <time>2021-08-14T13:53:02Z</time>
      </trkpt>
      <trkpt lat="45.83611" lon="2.95526">
        <ele>1049.42</ele>
        <time>2021-08-14T13:53:03Z</time>
      </trkpt>
      <trkpt lat="45.83609" lon="2.95526">
        <ele>1049.42</ele>
        <time>2021-08-14T13:53:04Z</time>
      </trkpt>
      <trkpt lat="45.83604" lon="2.95522">
        <ele>1050.38</ele>
        <time>2021-08-14T13:53:09Z</time>
      </trkpt>
      <trkpt lat="45.83596" lon="2.95517">
        <ele>1051.34</ele>
        <time>2021-08-14T13:53:17Z</time>
      </trkpt>
      <trkpt lat="45.83588" lon="2.95513">
        <ele>1052.78</ele>
        <time>2021-08-14T13:53:24Z</time>
      </trkpt>
      <trkpt lat="45.83579" lon="2.95505">
        <ele>1052.78</ele>
        <time>2021-08-14T13:53:31Z</time>
      </trkpt>
      <trkpt lat="45.83568" lon="2.95497">
        <ele>1053.74</ele>
        <time>2021-08-14T13:53:40Z</time>
      </trkpt>
      <trkpt lat="45.83556" lon="2.95491">
        <ele>1054.7</ele>
        <time>2021-08-14T13:53:48Z</time>
      </trkpt>
      <trkpt lat="45.83541" lon="2.95482">
        <ele>1054.7</ele>
        <time>2021-08-14T13:53:55Z</time>
      </trkpt>
      <trkpt lat="45.83525" lon="2.95472">
        <ele>1054.7</ele>
        <time>2021-08-14T13:54:01Z</time>
      </trkpt>
      <trkpt lat="45.83503" lon="2.95458">
        <ele>1051.82</ele>
        <time>2021-08-14T13:54:07Z</time>
      </trkpt>
      <trkpt lat="45.83481" lon="2.95445">
        <ele>1048.94</ele>
        <time>2021-08-14T13:54:13Z</time>
      </trkpt>
      <trkpt lat="45.83476" lon="2.95444">
        <ele>1048.45</ele>
        <time>2021-08-14T13:54:14Z</time>
      </trkpt>
      <trkpt lat="45.83471" lon="2.95444">
        <ele>1047.97</ele>
        <time>2021-08-14T13:54:15Z</time>
      </trkpt>
      <trkpt lat="45.8346" lon="2.95443">
        <ele>1047.01</ele>
        <time>2021-08-14T13:54:17Z</time>
      </trkpt>
      <trkpt lat="45.83455" lon="2.95439">
        <ele>1047.01</ele>
        <time>2021-08-14T13:54:18Z</time>
      </trkpt>
      <trkpt lat="45.83451" lon="2.95433">
        <ele>1046.53</ele>
        <time>2021-08-14T13:54:19Z</time>
      </trkpt>
      <trkpt lat="45.83447" lon="2.95427">
        <ele>1046.53</ele>
        <time>2021-08-14T13:54:20Z</time>
      </trkpt>
      <trkpt lat="45.83442" lon="2.95422">
        <ele>1046.05</ele>
        <time>2021-08-14T13:54:21Z</time>
      </trkpt>
      <trkpt lat="45.83438" lon="2.95417">
        <ele>1045.09</ele>
        <time>2021-08-14T13:54:22Z</time>
      </trkpt>
      <trkpt lat="45.83432" lon="2.95413">
        <ele>1045.09</ele>
        <time>2021-08-14T13:54:23Z</time>
      </trkpt>
      <trkpt lat="45.83427" lon="2.95409">
        <ele>1044.61</ele>
        <time>2021-08-14T13:54:24Z</time>
      </trkpt>
      <trkpt lat="45.83421" lon="2.95406">
        <ele>1044.61</ele>
        <time>2021-08-14T13:54:25Z</time>
      </trkpt>
      <trkpt lat="45.83415" lon="2.95404">
        <ele>1044.61</ele>
        <time>2021-08-14T13:54:26Z</time>
      </trkpt>
      <trkpt lat="45.8341" lon="2.95402">
        <ele>1043.65</ele>
        <time>2021-08-14T13:54:27Z</time>
      </trkpt>
      <trkpt lat="45.83404" lon="2.95401">
        <ele>1043.17</ele>
        <time>2021-08-14T13:54:28Z</time>
      </trkpt>
      <trkpt lat="45.83398" lon="2.95401">
        <ele>1042.69</ele>
        <time>2021-08-14T13:54:29Z</time>
      </trkpt>
      <trkpt lat="45.83393" lon="2.95401">
        <ele>1042.21</ele>
        <time>2021-08-14T13:54:30Z</time>
      </trkpt>
      <trkpt lat="45.83389" lon="2.95401">
        <ele>1041.73</ele>
        <time>2021-08-14T13:54:31Z</time>
      </trkpt>
      <trkpt lat="45.83384" lon="2.95401">
        <ele>1040.76</ele>
        <time>2021-08-14T13:54:32Z</time>
      </trkpt>
      <trkpt lat="45.8338" lon="2.95401">
        <ele>1040.28</ele>
        <time>2021-08-14T13:54:33Z</time>
      </trkpt>
      <trkpt lat="45.83376" lon="2.95402">
        <ele>1040.28</ele>
        <time>2021-08-14T13:54:34Z</time>
      </trkpt>
      <trkpt lat="45.8337" lon="2.95403">
        <ele>1038.84</ele>
        <time>2021-08-14T13:54:35Z</time>
      </trkpt>
      <trkpt lat="45.83363" lon="2.95403">
        <ele>1038.84</ele>
        <time>2021-08-14T13:54:36Z</time>
      </trkpt>
      <trkpt lat="45.83334" lon="2.95408">
        <ele>1035.96</ele>
        <time>2021-08-14T13:54:40Z</time>
      </trkpt>
      <trkpt lat="45.83274" lon="2.95416">
        <ele>1034.04</ele>
        <time>2021-08-14T13:54:48Z</time>
      </trkpt>
      <trkpt lat="45.83227" lon="2.95425">
        <ele>1033.55</ele>
        <time>2021-08-14T13:54:55Z</time>
      </trkpt>
      <trkpt lat="45.83215" lon="2.95427">
        <ele>1033.55</ele>
        <time>2021-08-14T13:54:57Z</time>
      </trkpt>
      <trkpt lat="45.83204" lon="2.95428">
        <ele>1033.55</ele>
        <time>2021-08-14T13:54:59Z</time>
      </trkpt>
      <trkpt lat="45.83176" lon="2.95434">
        <ele>1033.55</ele>
        <time>2021-08-14T13:55:06Z</time>
      </trkpt>
      <trkpt lat="45.83163" lon="2.95443">
        <ele>1033.55</ele>
        <time>2021-08-14T13:55:11Z</time>
      </trkpt>
      <trkpt lat="45.8316" lon="2.95451">
        <ele>1035</ele>
        <time>2021-08-14T13:55:14Z</time>
      </trkpt>
      <trkpt lat="45.83147" lon="2.95469">
        <ele>1036.44</ele>
        <time>2021-08-14T13:55:23Z</time>
      </trkpt>
      <trkpt lat="45.83142" lon="2.95476">
        <ele>1037.4</ele>
        <time>2021-08-14T13:55:27Z</time>
      </trkpt>
      <trkpt lat="45.83141" lon="2.95477">
        <ele>1037.4</ele>
        <time>2021-08-14T13:55:28Z</time>
      </trkpt>
      <trkpt lat="45.8314" lon="2.95479">
        <ele>1037.4</ele>
        <time>2021-08-14T13:55:29Z</time>
      </trkpt>
      <trkpt lat="45.83129" lon="2.95491">
        <ele>1038.36</ele>
        <time>2021-08-14T13:55:36Z</time>
      </trkpt>
      <trkpt lat="45.83124" lon="2.95499">
        <ele>1038.84</ele>
        <time>2021-08-14T13:55:40Z</time>
      </trkpt>
      <trkpt lat="45.83115" lon="2.9552">
        <ele>1039.32</ele>
        <time>2021-08-14T13:55:48Z</time>
      </trkpt>
      <trkpt lat="45.83113" lon="2.95544">
        <ele>1039.8</ele>
        <time>2021-08-14T13:55:56Z</time>
      </trkpt>
      <trkpt lat="45.83115" lon="2.95552">
        <ele>1039.8</ele>
        <time>2021-08-14T13:55:59Z</time>
      </trkpt>
      <trkpt lat="45.83116" lon="2.95554">
        <ele>1039.8</ele>
        <time>2021-08-14T13:56:00Z</time>
      </trkpt>
      <trkpt lat="45.83116" lon="2.95557">
        <ele>1039.8</ele>
        <time>2021-08-14T13:56:01Z</time>
      </trkpt>
      <trkpt lat="45.83119" lon="2.95573">
        <ele>1040.28</ele>
        <time>2021-08-14T13:56:08Z</time>
      </trkpt>
      <trkpt lat="45.83118" lon="2.95592">
        <ele>1040.28</ele>
        <time>2021-08-14T13:56:16Z</time>
      </trkpt>
      <trkpt lat="45.83118" lon="2.95619">
        <ele>1040.28</ele>
        <time>2021-08-14T13:56:25Z</time>
      </trkpt>
      <trkpt lat="45.83118" lon="2.95622">
        <ele>1040.28</ele>
        <time>2021-08-14T13:56:26Z</time>
      </trkpt>
      <trkpt lat="45.83118" lon="2.95625">
        <ele>1040.28</ele>
        <time>2021-08-14T13:56:27Z</time>
      </trkpt>
      <trkpt lat="45.83118" lon="2.95628">
        <ele>1040.28</ele>
        <time>2021-08-14T13:56:28Z</time>
      </trkpt>
      <trkpt lat="45.83118" lon="2.95632">
        <ele>1040.28</ele>
        <time>2021-08-14T13:56:29Z</time>
      </trkpt>
      <trkpt lat="45.83116" lon="2.9566">
        <ele>1040.28</ele>
        <time>2021-08-14T13:56:36Z</time>
      </trkpt>
      <trkpt lat="45.83109" lon="2.95692">
        <ele>1039.32</ele>
        <time>2021-08-14T13:56:43Z</time>
      </trkpt>
      <trkpt lat="45.83102" lon="2.95731">
        <ele>1037.88</ele>
        <time>2021-08-14T13:56:49Z</time>
      </trkpt>
      <trkpt lat="45.83096" lon="2.95752">
        <ele>1037.88</ele>
        <time>2021-08-14T13:56:52Z</time>
      </trkpt>
      <trkpt lat="45.83088" lon="2.9577">
        <ele>1037.4</ele>
        <time>2021-08-14T13:56:55Z</time>
      </trkpt>
      <trkpt lat="45.83084" lon="2.95775">
        <ele>1036.92</ele>
        <time>2021-08-14T13:56:56Z</time>
      </trkpt>
      <trkpt lat="45.83081" lon="2.95781">
        <ele>1036.92</ele>
        <time>2021-08-14T13:56:57Z</time>
      </trkpt>
      <trkpt lat="45.83069" lon="2.95802">
        <ele>1036.44</ele>
        <time>2021-08-14T13:57:01Z</time>
      </trkpt>
      <trkpt lat="45.83065" lon="2.95808">
        <ele>1036.44</ele>
        <time>2021-08-14T13:57:02Z</time>
      </trkpt>
      <trkpt lat="45.83061" lon="2.95812">
        <ele>1035.96</ele>
        <time>2021-08-14T13:57:03Z</time>
      </trkpt>
      <trkpt lat="45.83048" lon="2.95825">
        <ele>1035.48</ele>
        <time>2021-08-14T13:57:06Z</time>
      </trkpt>
      <trkpt lat="45.83043" lon="2.95829">
        <ele>1035</ele>
        <time>2021-08-14T13:57:07Z</time>
      </trkpt>
      <trkpt lat="45.83033" lon="2.95835">
        <ele>1035</ele>
        <time>2021-08-14T13:57:09Z</time>
      </trkpt>
      <trkpt lat="45.83029" lon="2.9584">
        <ele>1035</ele>
        <time>2021-08-14T13:57:10Z</time>
      </trkpt>
      <trkpt lat="45.8302" lon="2.95854">
        <ele>1035</ele>
        <time>2021-08-14T13:57:13Z</time>
      </trkpt>
      <trkpt lat="45.83018" lon="2.9586">
        <ele>1035</ele>
        <time>2021-08-14T13:57:14Z</time>
      </trkpt>
      <trkpt lat="45.83016" lon="2.95865">
        <ele>1035</ele>
        <time>2021-08-14T13:57:15Z</time>
      </trkpt>
      <trkpt lat="45.83014" lon="2.95871">
        <ele>1034.52</ele>
        <time>2021-08-14T13:57:16Z</time>
      </trkpt>
      <trkpt lat="45.83013" lon="2.95877">
        <ele>1033.55</ele>
        <time>2021-08-14T13:57:17Z</time>
      </trkpt>
      <trkpt lat="45.83" lon="2.95919">
        <ele>1031.63</ele>
        <time>2021-08-14T13:57:23Z</time>
      </trkpt>
      <trkpt lat="45.82997" lon="2.95926">
        <ele>1030.67</ele>
        <time>2021-08-14T13:57:24Z</time>
      </trkpt>
      <trkpt lat="45.82993" lon="2.95932">
        <ele>1030.19</ele>
        <time>2021-08-14T13:57:25Z</time>
      </trkpt>
      <trkpt lat="45.82989" lon="2.95938">
        <ele>1029.23</ele>
        <time>2021-08-14T13:57:26Z</time>
      </trkpt>
      <trkpt lat="45.82984" lon="2.95943">
        <ele>1028.75</ele>
        <time>2021-08-14T13:57:27Z</time>
      </trkpt>
      <trkpt lat="45.82979" lon="2.95947">
        <ele>1027.79</ele>
        <time>2021-08-14T13:57:28Z</time>
      </trkpt>
      <trkpt lat="45.82974" lon="2.95952">
        <ele>1026.83</ele>
        <time>2021-08-14T13:57:29Z</time>
      </trkpt>
      <trkpt lat="45.82954" lon="2.95976">
        <ele>1023.46</ele>
        <time>2021-08-14T13:57:33Z</time>
      </trkpt>
      <trkpt lat="45.82948" lon="2.95984">
        <ele>1022.5</ele>
        <time>2021-08-14T13:57:34Z</time>
      </trkpt>
      <trkpt lat="45.82944" lon="2.95992">
        <ele>1021.06</ele>
        <time>2021-08-14T13:57:35Z</time>
      </trkpt>
      <trkpt lat="45.82934" lon="2.9601">
        <ele>1019.62</ele>
        <time>2021-08-14T13:57:37Z</time>
      </trkpt>
      <trkpt lat="45.82927" lon="2.96018">
        <ele>1018.17</ele>
        <time>2021-08-14T13:57:38Z</time>
      </trkpt>
      <trkpt lat="45.82908" lon="2.9604">
        <ele>1016.25</ele>
        <time>2021-08-14T13:57:41Z</time>
      </trkpt>
      <trkpt lat="45.82888" lon="2.9606">
        <ele>1012.89</ele>
        <time>2021-08-14T13:57:44Z</time>
      </trkpt>
      <trkpt lat="45.8288" lon="2.96065">
        <ele>1011.93</ele>
        <time>2021-08-14T13:57:45Z</time>
      </trkpt>
      <trkpt lat="45.82854" lon="2.96081">
        <ele>1009.04</ele>
        <time>2021-08-14T13:57:48Z</time>
      </trkpt>
      <trkpt lat="45.82845" lon="2.96087">
        <ele>1008.08</ele>
        <time>2021-08-14T13:57:49Z</time>
      </trkpt>
      <trkpt lat="45.82822" lon="2.96107">
        <ele>1006.64</ele>
        <time>2021-08-14T13:57:52Z</time>
      </trkpt>
      <trkpt lat="45.82815" lon="2.96111">
        <ele>1006.64</ele>
        <time>2021-08-14T13:57:53Z</time>
      </trkpt>
      <trkpt lat="45.82808" lon="2.96116">
        <ele>1006.64</ele>
        <time>2021-08-14T13:57:54Z</time>
      </trkpt>
      <trkpt lat="45.82789" lon="2.9613">
        <ele>1007.6</ele>
        <time>2021-08-14T13:57:57Z</time>
      </trkpt>
      <trkpt lat="45.82783" lon="2.96133">
        <ele>1007.6</ele>
        <time>2021-08-14T13:57:58Z</time>
      </trkpt>
      <trkpt lat="45.82777" lon="2.96135">
        <ele>1007.6</ele>
        <time>2021-08-14T13:57:59Z</time>
      </trkpt>
      <trkpt lat="45.82771" lon="2.96138">
        <ele>1007.6</ele>
        <time>2021-08-14T13:58:00Z</time>
      </trkpt>
      <trkpt lat="45.82767" lon="2.96141">
        <ele>1007.6</ele>
        <time>2021-08-14T13:58:01Z</time>
      </trkpt>
      <trkpt lat="45.82744" lon="2.96159">
        <ele>1007.6</ele>
        <time>2021-08-14T13:58:07Z</time>
      </trkpt>
      <trkpt lat="45.82702" lon="2.96179">
        <ele>1007.6</ele>
        <time>2021-08-14T13:58:16Z</time>
      </trkpt>
      <trkpt lat="45.82664" lon="2.96181">
        <ele>1005.68</ele>
        <time>2021-08-14T13:58:23Z</time>
      </trkpt>
      <trkpt lat="45.82642" lon="2.96179">
        <ele>1003.75</ele>
        <time>2021-08-14T13:58:26Z</time>
      </trkpt>
      <trkpt lat="45.82634" lon="2.9618">
        <ele>1002.79</ele>
        <time>2021-08-14T13:58:27Z</time>
      </trkpt>
      <trkpt lat="45.82626" lon="2.96182">
        <ele>1002.31</ele>
        <time>2021-08-14T13:58:28Z</time>
      </trkpt>
      <trkpt lat="45.8262" lon="2.96185">
        <ele>1001.35</ele>
        <time>2021-08-14T13:58:29Z</time>
      </trkpt>
      <trkpt lat="45.82613" lon="2.96189">
        <ele>1000.87</ele>
        <time>2021-08-14T13:58:30Z</time>
      </trkpt>
      <trkpt lat="45.82592" lon="2.962">
        <ele>998.95</ele>
        <time>2021-08-14T13:58:33Z</time>
      </trkpt>
      <trkpt lat="45.82543" lon="2.96237">
        <ele>995.58</ele>
        <time>2021-08-14T13:58:40Z</time>
      </trkpt>
      <trkpt lat="45.82488" lon="2.96283">
        <ele>994.14</ele>
        <time>2021-08-14T13:58:48Z</time>
      </trkpt>
      <trkpt lat="45.82457" lon="2.96313">
        <ele>993.18</ele>
        <time>2021-08-14T13:58:53Z</time>
      </trkpt>
      <trkpt lat="45.8245" lon="2.96317">
        <ele>993.18</ele>
        <time>2021-08-14T13:58:54Z</time>
      </trkpt>
      <trkpt lat="45.82443" lon="2.96319">
        <ele>993.18</ele>
        <time>2021-08-14T13:58:55Z</time>
      </trkpt>
      <trkpt lat="45.82437" lon="2.96319">
        <ele>992.7</ele>
        <time>2021-08-14T13:58:56Z</time>
      </trkpt>
      <trkpt lat="45.8243" lon="2.9632">
        <ele>992.7</ele>
        <time>2021-08-14T13:58:57Z</time>
      </trkpt>
      <trkpt lat="45.82382" lon="2.96317">
        <ele>991.26</ele>
        <time>2021-08-14T13:59:04Z</time>
      </trkpt>
      <trkpt lat="45.82346" lon="2.96319">
        <ele>988.85</ele>
        <time>2021-08-14T13:59:09Z</time>
      </trkpt>
      <trkpt lat="45.8231" lon="2.96319">
        <ele>988.37</ele>
        <time>2021-08-14T13:59:14Z</time>
      </trkpt>
      <trkpt lat="45.82304" lon="2.96317">
        <ele>987.89</ele>
        <time>2021-08-14T13:59:15Z</time>
      </trkpt>
      <trkpt lat="45.82297" lon="2.96314">
        <ele>987.41</ele>
        <time>2021-08-14T13:59:16Z</time>
      </trkpt>
      <trkpt lat="45.82257" lon="2.96294">
        <ele>986.45</ele>
        <time>2021-08-14T13:59:23Z</time>
      </trkpt>
      <trkpt lat="45.8225" lon="2.96292">
        <ele>985.97</ele>
        <time>2021-08-14T13:59:24Z</time>
      </trkpt>
      <trkpt lat="45.82243" lon="2.96291">
        <ele>985.97</ele>
        <time>2021-08-14T13:59:25Z</time>
      </trkpt>
      <trkpt lat="45.82236" lon="2.9629">
        <ele>985.49</ele>
        <time>2021-08-14T13:59:26Z</time>
      </trkpt>
      <trkpt lat="45.8223" lon="2.96289">
        <ele>985.49</ele>
        <time>2021-08-14T13:59:27Z</time>
      </trkpt>
      <trkpt lat="45.82216" lon="2.96287">
        <ele>984.53</ele>
        <time>2021-08-14T13:59:29Z</time>
      </trkpt>
      <trkpt lat="45.82209" lon="2.96286">
        <ele>984.53</ele>
        <time>2021-08-14T13:59:30Z</time>
      </trkpt>
      <trkpt lat="45.82164" lon="2.96281">
        <ele>983.57</ele>
        <time>2021-08-14T13:59:37Z</time>
      </trkpt>
      <trkpt lat="45.82127" lon="2.96271">
        <ele>982.6</ele>
        <time>2021-08-14T13:59:43Z</time>
      </trkpt>
      <trkpt lat="45.82122" lon="2.9627">
        <ele>982.12</ele>
        <time>2021-08-14T13:59:44Z</time>
      </trkpt>
      <trkpt lat="45.82116" lon="2.96267">
        <ele>982.12</ele>
        <time>2021-08-14T13:59:45Z</time>
      </trkpt>
      <trkpt lat="45.82106" lon="2.96263">
        <ele>982.12</ele>
        <time>2021-08-14T13:59:47Z</time>
      </trkpt>
      <trkpt lat="45.82061" lon="2.96255">
        <ele>981.16</ele>
        <time>2021-08-14T13:59:55Z</time>
      </trkpt>
      <trkpt lat="45.82055" lon="2.96253">
        <ele>981.16</ele>
        <time>2021-08-14T13:59:56Z</time>
      </trkpt>
      <trkpt lat="45.8205" lon="2.96251">
        <ele>980.68</ele>
        <time>2021-08-14T13:59:57Z</time>
      </trkpt>
      <trkpt lat="45.82039" lon="2.96245">
        <ele>980.68</ele>
        <time>2021-08-14T13:59:59Z</time>
      </trkpt>
      <trkpt lat="45.82013" lon="2.96231">
        <ele>979.72</ele>
        <time>2021-08-14T14:00:04Z</time>
      </trkpt>
      <trkpt lat="45.81977" lon="2.96209">
        <ele>979.72</ele>
        <time>2021-08-14T14:00:12Z</time>
      </trkpt>
      <trkpt lat="45.81973" lon="2.96206">
        <ele>979.24</ele>
        <time>2021-08-14T14:00:13Z</time>
      </trkpt>
      <trkpt lat="45.81961" lon="2.96195">
        <ele>979.24</ele>
        <time>2021-08-14T14:00:16Z</time>
      </trkpt>
      <trkpt lat="45.81957" lon="2.96193">
        <ele>979.24</ele>
        <time>2021-08-14T14:00:17Z</time>
      </trkpt>
      <trkpt lat="45.81933" lon="2.96178">
        <ele>978.76</ele>
        <time>2021-08-14T14:00:23Z</time>
      </trkpt>
      <trkpt lat="45.81929" lon="2.96175">
        <ele>978.28</ele>
        <time>2021-08-14T14:00:24Z</time>
      </trkpt>
      <trkpt lat="45.81913" lon="2.96163">
        <ele>978.28</ele>
        <time>2021-08-14T14:00:28Z</time>
      </trkpt>
      <trkpt lat="45.81906" lon="2.96157">
        <ele>978.28</ele>
        <time>2021-08-14T14:00:30Z</time>
      </trkpt>
      <trkpt lat="45.81903" lon="2.96154">
        <ele>978.28</ele>
        <time>2021-08-14T14:00:31Z</time>
      </trkpt>
      <trkpt lat="45.81895" lon="2.96148">
        <ele>978.28</ele>
        <time>2021-08-14T14:00:33Z</time>
      </trkpt>
      <trkpt lat="45.81892" lon="2.96145">
        <ele>978.28</ele>
        <time>2021-08-14T14:00:34Z</time>
      </trkpt>
      <trkpt lat="45.81888" lon="2.96143">
        <ele>978.28</ele>
        <time>2021-08-14T14:00:35Z</time>
      </trkpt>
      <trkpt lat="45.81864" lon="2.96128">
        <ele>977.8</ele>
        <time>2021-08-14T14:00:42Z</time>
      </trkpt>
      <trkpt lat="45.81856" lon="2.96122">
        <ele>977.8</ele>
        <time>2021-08-14T14:00:44Z</time>
      </trkpt>
      <trkpt lat="45.81823" lon="2.96098">
        <ele>977.32</ele>
        <time>2021-08-14T14:00:52Z</time>
      </trkpt>
      <trkpt lat="45.81799" lon="2.96072">
        <ele>977.32</ele>
        <time>2021-08-14T14:01:00Z</time>
      </trkpt>
      <trkpt lat="45.81781" lon="2.96052">
        <ele>976.84</ele>
        <time>2021-08-14T14:01:07Z</time>
      </trkpt>
      <trkpt lat="45.81764" lon="2.96033">
        <ele>976.84</ele>
        <time>2021-08-14T14:01:14Z</time>
      </trkpt>
      <trkpt lat="45.81749" lon="2.96018">
        <ele>976.84</ele>
        <time>2021-08-14T14:01:20Z</time>
      </trkpt>
      <trkpt lat="45.81727" lon="2.96002">
        <ele>976.36</ele>
        <time>2021-08-14T14:01:26Z</time>
      </trkpt>
      <trkpt lat="45.81705" lon="2.95989">
        <ele>976.36</ele>
        <time>2021-08-14T14:01:32Z</time>
      </trkpt>
      <trkpt lat="45.81701" lon="2.95985">
        <ele>976.36</ele>
        <time>2021-08-14T14:01:33Z</time>
      </trkpt>
      <trkpt lat="45.81675" lon="2.95968">
        <ele>976.36</ele>
        <time>2021-08-14T14:01:40Z</time>
      </trkpt>
      <trkpt lat="45.81638" lon="2.95944">
        <ele>976.36</ele>
        <time>2021-08-14T14:01:49Z</time>
      </trkpt>
      <trkpt lat="45.81612" lon="2.95932">
        <ele>976.36</ele>
        <time>2021-08-14T14:01:55Z</time>
      </trkpt>
      <trkpt lat="45.81604" lon="2.95927">
        <ele>976.36</ele>
        <time>2021-08-14T14:01:57Z</time>
      </trkpt>
      <trkpt lat="45.81578" lon="2.95908">
        <ele>976.36</ele>
        <time>2021-08-14T14:02:04Z</time>
      </trkpt>
      <trkpt lat="45.81553" lon="2.95894">
        <ele>976.36</ele>
        <time>2021-08-14T14:02:11Z</time>
      </trkpt>
      <trkpt lat="45.81549" lon="2.95891">
        <ele>976.36</ele>
        <time>2021-08-14T14:02:12Z</time>
      </trkpt>
      <trkpt lat="45.81545" lon="2.95888">
        <ele>976.36</ele>
        <time>2021-08-14T14:02:13Z</time>
      </trkpt>
      <trkpt lat="45.81537" lon="2.95881">
        <ele>976.36</ele>
        <time>2021-08-14T14:02:15Z</time>
      </trkpt>
      <trkpt lat="45.81533" lon="2.95879">
        <ele>976.36</ele>
        <time>2021-08-14T14:02:16Z</time>
      </trkpt>
      <trkpt lat="45.81529" lon="2.95877">
        <ele>976.36</ele>
        <time>2021-08-14T14:02:17Z</time>
      </trkpt>
      <trkpt lat="45.81486" lon="2.95854">
        <ele>976.36</ele>
        <time>2021-08-14T14:02:27Z</time>
      </trkpt>
      <trkpt lat="45.81473" lon="2.95847">
        <ele>976.36</ele>
        <time>2021-08-14T14:02:30Z</time>
      </trkpt>
      <trkpt lat="45.81459" lon="2.9584">
        <ele>976.36</ele>
        <time>2021-08-14T14:02:33Z</time>
      </trkpt>
      <trkpt lat="45.81455" lon="2.95837">
        <ele>976.36</ele>
        <time>2021-08-14T14:02:34Z</time>
      </trkpt>
      <trkpt lat="45.81452" lon="2.95834">
        <ele>976.36</ele>
        <time>2021-08-14T14:02:35Z</time>
      </trkpt>
      <trkpt lat="45.81444" lon="2.95827">
        <ele>976.36</ele>
        <time>2021-08-14T14:02:37Z</time>
      </trkpt>
      <trkpt lat="45.81421" lon="2.95811">
        <ele>976.36</ele>
        <time>2021-08-14T14:02:44Z</time>
      </trkpt>
      <trkpt lat="45.81402" lon="2.95797">
        <ele>976.36</ele>
        <time>2021-08-14T14:02:50Z</time>
      </trkpt>
      <trkpt lat="45.81394" lon="2.9577">
        <ele>977.8</ele>
        <time>2021-08-14T14:02:56Z</time>
      </trkpt>
      <trkpt lat="45.8139" lon="2.95728">
        <ele>977.32</ele>
        <time>2021-08-14T14:03:03Z</time>
      </trkpt>
      <trkpt lat="45.81385" lon="2.95686">
        <ele>977.32</ele>
        <time>2021-08-14T14:03:10Z</time>
      </trkpt>
      <trkpt lat="45.8138" lon="2.95649">
        <ele>977.32</ele>
        <time>2021-08-14T14:03:17Z</time>
      </trkpt>
      <trkpt lat="45.81375" lon="2.95609">
        <ele>977.32</ele>
        <time>2021-08-14T14:03:24Z</time>
      </trkpt>
      <trkpt lat="45.81368" lon="2.9555">
        <ele>977.32</ele>
        <time>2021-08-14T14:03:34Z</time>
      </trkpt>
      <trkpt lat="45.81364" lon="2.95515">
        <ele>977.32</ele>
        <time>2021-08-14T14:03:40Z</time>
      </trkpt>
      <trkpt lat="45.8136" lon="2.95469">
        <ele>977.8</ele>
        <time>2021-08-14T14:03:48Z</time>
      </trkpt>
      <trkpt lat="45.8136" lon="2.95457">
        <ele>977.8</ele>
        <time>2021-08-14T14:03:50Z</time>
      </trkpt>
      <trkpt lat="45.8136" lon="2.95451">
        <ele>977.8</ele>
        <time>2021-08-14T14:03:51Z</time>
      </trkpt>
      <trkpt lat="45.8137" lon="2.95428">
        <ele>977.8</ele>
        <time>2021-08-14T14:03:56Z</time>
      </trkpt>
      <trkpt lat="45.81381" lon="2.95418">
        <ele>977.8</ele>
        <time>2021-08-14T14:03:59Z</time>
      </trkpt>
      <trkpt lat="45.81385" lon="2.95415">
        <ele>977.8</ele>
        <time>2021-08-14T14:04:00Z</time>
      </trkpt>
      <trkpt lat="45.81403" lon="2.95399">
        <ele>978.28</ele>
        <time>2021-08-14T14:04:06Z</time>
      </trkpt>
      <trkpt lat="45.81406" lon="2.95373">
        <ele>978.28</ele>
        <time>2021-08-14T14:04:11Z</time>
      </trkpt>
      <trkpt lat="45.81396" lon="2.95347">
        <ele>978.76</ele>
        <time>2021-08-14T14:04:17Z</time>
      </trkpt>
      <trkpt lat="45.81395" lon="2.95338">
        <ele>978.76</ele>
        <time>2021-08-14T14:04:22Z</time>
      </trkpt>
      <trkpt lat="45.81396" lon="2.9533">
        <ele>978.76</ele>
        <time>2021-08-14T14:04:27Z</time>
      </trkpt>
      <trkpt lat="45.814" lon="2.953">
        <ele>978.76</ele>
        <time>2021-08-14T14:04:33Z</time>
      </trkpt>
      <trkpt lat="45.81389" lon="2.95267">
        <ele>979.24</ele>
        <time>2021-08-14T14:04:40Z</time>
      </trkpt>
      <trkpt lat="45.81374" lon="2.95252">
        <ele>979.24</ele>
        <time>2021-08-14T14:04:45Z</time>
      </trkpt>
      <trkpt lat="45.8137" lon="2.95251">
        <ele>979.24</ele>
        <time>2021-08-14T14:04:46Z</time>
      </trkpt>
      <trkpt lat="45.81366" lon="2.9525">
        <ele>979.24</ele>
        <time>2021-08-14T14:04:47Z</time>
      </trkpt>
      <trkpt lat="45.81362" lon="2.9525">
        <ele>979.24</ele>
        <time>2021-08-14T14:04:48Z</time>
      </trkpt>
      <trkpt lat="45.81358" lon="2.95251">
        <ele>979.24</ele>
        <time>2021-08-14T14:04:49Z</time>
      </trkpt>
      <trkpt lat="45.81353" lon="2.95251">
        <ele>979.24</ele>
        <time>2021-08-14T14:04:50Z</time>
      </trkpt>
      <trkpt lat="45.81348" lon="2.9525">
        <ele>979.24</ele>
        <time>2021-08-14T14:04:51Z</time>
      </trkpt>
      <trkpt lat="45.81343" lon="2.95248">
        <ele>979.24</ele>
        <time>2021-08-14T14:04:52Z</time>
      </trkpt>
      <trkpt lat="45.81335" lon="2.95244">
        <ele>979.24</ele>
        <time>2021-08-14T14:04:54Z</time>
      </trkpt>
      <trkpt lat="45.81328" lon="2.95237">
        <ele>979.24</ele>
        <time>2021-08-14T14:04:56Z</time>
      </trkpt>
      <trkpt lat="45.81325" lon="2.95232">
        <ele>979.24</ele>
        <time>2021-08-14T14:04:57Z</time>
      </trkpt>
      <trkpt lat="45.81324" lon="2.95227">
        <ele>979.24</ele>
        <time>2021-08-14T14:04:58Z</time>
      </trkpt>
      <trkpt lat="45.81321" lon="2.95215">
        <ele>979.24</ele>
        <time>2021-08-14T14:05:00Z</time>
      </trkpt>
      <trkpt lat="45.8132" lon="2.95209">
        <ele>979.24</ele>
        <time>2021-08-14T14:05:01Z</time>
      </trkpt>
      <trkpt lat="45.81319" lon="2.95203">
        <ele>979.24</ele>
        <time>2021-08-14T14:05:02Z</time>
      </trkpt>
      <trkpt lat="45.81312" lon="2.95173">
        <ele>977.8</ele>
        <time>2021-08-14T14:05:07Z</time>
      </trkpt>
      <trkpt lat="45.81308" lon="2.95149">
        <ele>977.8</ele>
        <time>2021-08-14T14:05:13Z</time>
      </trkpt>
      <trkpt lat="45.81308" lon="2.9515">
        <ele>977.8</ele>
        <time>2021-08-14T14:05:23Z</time>
      </trkpt>
      <trkpt lat="45.81307" lon="2.95151">
        <ele>977.32</ele>
        <time>2021-08-14T14:05:40Z</time>
      </trkpt>
      <trkpt lat="45.81307" lon="2.95149">
        <ele>977.32</ele>
        <time>2021-08-14T14:05:53Z</time>
      </trkpt>
      <trkpt lat="45.81306" lon="2.9515">
        <ele>977.32</ele>
        <time>2021-08-14T14:06:11Z</time>
      </trkpt>
      <trkpt lat="45.81308" lon="2.95151">
        <ele>976.84</ele>
        <time>2021-08-14T14:06:31Z</time>
      </trkpt>
      <trkpt lat="45.81308" lon="2.95148">
        <ele>976.84</ele>
        <time>2021-08-14T14:06:54Z</time>
      </trkpt>
      <trkpt lat="45.81309" lon="2.9515">
        <ele>976.36</ele>
        <time>2021-08-14T14:07:10Z</time>
      </trkpt>
      <trkpt lat="45.81309" lon="2.95151">
        <ele>976.36</ele>
        <time>2021-08-14T14:07:27Z</time>
      </trkpt>
      <trkpt lat="45.81308" lon="2.9515">
        <ele>975.88</ele>
        <time>2021-08-14T14:07:47Z</time>
      </trkpt>
      <trkpt lat="45.81306" lon="2.95152">
        <ele>975.88</ele>
        <time>2021-08-14T14:07:54Z</time>
      </trkpt>
      <trkpt lat="45.81309" lon="2.95153">
        <ele>975.39</ele>
        <time>2021-08-14T14:08:19Z</time>
      </trkpt>
      <trkpt lat="45.81309" lon="2.95151">
        <ele>975.39</ele>
        <time>2021-08-14T14:08:46Z</time>
      </trkpt>
      <trkpt lat="45.8131" lon="2.95151">
        <ele>974.91</ele>
        <time>2021-08-14T14:09:15Z</time>
      </trkpt>
      <trkpt lat="45.81308" lon="2.9515">
        <ele>974.43</ele>
        <time>2021-08-14T14:09:37Z</time>
      </trkpt>
      <trkpt lat="45.81308" lon="2.9515">
        <ele>974.43</ele>
        <time>2021-08-14T14:09:59Z</time>
      </trkpt>
      <trkpt lat="45.81309" lon="2.9515">
        <ele>973.95</ele>
        <time>2021-08-14T14:10:24Z</time>
      </trkpt>
      <trkpt lat="45.81307" lon="2.95149">
        <ele>973.95</ele>
        <time>2021-08-14T14:10:44Z</time>
      </trkpt>
      <trkpt lat="45.81309" lon="2.95153">
        <ele>973.47</ele>
        <time>2021-08-14T14:11:04Z</time>
      </trkpt>
      <trkpt lat="45.81308" lon="2.95155">
        <ele>973.47</ele>
        <time>2021-08-14T14:11:28Z</time>
      </trkpt>
      <trkpt lat="45.81307" lon="2.95152">
        <ele>972.99</ele>
        <time>2021-08-14T14:11:54Z</time>
      </trkpt>
      <trkpt lat="45.81308" lon="2.95151">
        <ele>972.99</ele>
        <time>2021-08-14T14:12:14Z</time>
      </trkpt>
      <trkpt lat="45.81309" lon="2.95147">
        <ele>972.99</ele>
        <time>2021-08-14T14:12:20Z</time>
      </trkpt>
      <trkpt lat="45.8131" lon="2.95145">
        <ele>972.51</ele>
        <time>2021-08-14T14:12:22Z</time>
      </trkpt>
      <trkpt lat="45.81311" lon="2.9514">
        <ele>972.51</ele>
        <time>2021-08-14T14:12:23Z</time>
      </trkpt>
      <trkpt lat="45.81311" lon="2.95137">
        <ele>972.03</ele>
        <time>2021-08-14T14:12:24Z</time>
      </trkpt>
      <trkpt lat="45.81311" lon="2.95134">
        <ele>973.47</ele>
        <time>2021-08-14T14:12:25Z</time>
      </trkpt>
      <trkpt lat="45.81311" lon="2.9513">
        <ele>973.47</ele>
        <time>2021-08-14T14:12:26Z</time>
      </trkpt>
      <trkpt lat="45.8131" lon="2.95126">
        <ele>973.47</ele>
        <time>2021-08-14T14:12:27Z</time>
      </trkpt>
      <trkpt lat="45.8131" lon="2.95121">
        <ele>973.47</ele>
        <time>2021-08-14T14:12:28Z</time>
      </trkpt>
      <trkpt lat="45.8131" lon="2.95116">
        <ele>973.47</ele>
        <time>2021-08-14T14:12:29Z</time>
      </trkpt>
      <trkpt lat="45.8131" lon="2.95111">
        <ele>973.47</ele>
        <time>2021-08-14T14:12:30Z</time>
      </trkpt>
      <trkpt lat="45.8131" lon="2.95105">
        <ele>973.47</ele>
        <time>2021-08-14T14:12:31Z</time>
      </trkpt>
      <trkpt lat="45.81309" lon="2.95101">
        <ele>973.47</ele>
        <time>2021-08-14T14:12:32Z</time>
      </trkpt>
      <trkpt lat="45.81301" lon="2.95073">
        <ele>973.47</ele>
        <time>2021-08-14T14:12:38Z</time>
      </trkpt>
      <trkpt lat="45.81299" lon="2.95069">
        <ele>973.47</ele>
        <time>2021-08-14T14:12:39Z</time>
      </trkpt>
      <trkpt lat="45.81297" lon="2.95066">
        <ele>973.47</ele>
        <time>2021-08-14T14:12:40Z</time>
      </trkpt>
      <trkpt lat="45.81296" lon="2.95062">
        <ele>973.47</ele>
        <time>2021-08-14T14:12:41Z</time>
      </trkpt>
      <trkpt lat="45.81295" lon="2.95057">
        <ele>973.47</ele>
        <time>2021-08-14T14:12:42Z</time>
      </trkpt>
      <trkpt lat="45.81294" lon="2.95052">
        <ele>973.47</ele>
        <time>2021-08-14T14:12:43Z</time>
      </trkpt>
      <trkpt lat="45.81294" lon="2.95047">
        <ele>973.47</ele>
        <time>2021-08-14T14:12:44Z</time>
      </trkpt>
      <trkpt lat="45.8129" lon="2.95017">
        <ele>972.03</ele>
        <time>2021-08-14T14:12:49Z</time>
      </trkpt>
      <trkpt lat="45.81288" lon="2.95011">
        <ele>972.03</ele>
        <time>2021-08-14T14:12:50Z</time>
      </trkpt>
      <trkpt lat="45.81286" lon="2.95007">
        <ele>972.03</ele>
        <time>2021-08-14T14:12:51Z</time>
      </trkpt>
      <trkpt lat="45.81282" lon="2.95004">
        <ele>972.03</ele>
        <time>2021-08-14T14:12:52Z</time>
      </trkpt>
      <trkpt lat="45.81279" lon="2.95003">
        <ele>972.03</ele>
        <time>2021-08-14T14:12:53Z</time>
      </trkpt>
      <trkpt lat="45.8126" lon="2.95">
        <ele>971.55</ele>
        <time>2021-08-14T14:12:58Z</time>
      </trkpt>
      <trkpt lat="45.81257" lon="2.95002">
        <ele>971.07</ele>
        <time>2021-08-14T14:12:59Z</time>
      </trkpt>
      <trkpt lat="45.81254" lon="2.95007">
        <ele>971.07</ele>
        <time>2021-08-14T14:13:00Z</time>
      </trkpt>
      <trkpt lat="45.81252" lon="2.95012">
        <ele>971.07</ele>
        <time>2021-08-14T14:13:01Z</time>
      </trkpt>
      <trkpt lat="45.81252" lon="2.95018">
        <ele>971.07</ele>
        <time>2021-08-14T14:13:02Z</time>
      </trkpt>
      <trkpt lat="45.81253" lon="2.95023">
        <ele>971.07</ele>
        <time>2021-08-14T14:13:03Z</time>
      </trkpt>
      <trkpt lat="45.81254" lon="2.95028">
        <ele>971.07</ele>
        <time>2021-08-14T14:13:04Z</time>
      </trkpt>
      <trkpt lat="45.81254" lon="2.95033">
        <ele>971.07</ele>
        <time>2021-08-14T14:13:05Z</time>
      </trkpt>
      <trkpt lat="45.81263" lon="2.95072">
        <ele>971.07</ele>
        <time>2021-08-14T14:13:13Z</time>
      </trkpt>
      <trkpt lat="45.8127" lon="2.95101">
        <ele>971.07</ele>
        <time>2021-08-14T14:13:19Z</time>
      </trkpt>
      <trkpt lat="45.81278" lon="2.95128">
        <ele>971.07</ele>
        <time>2021-08-14T14:13:25Z</time>
      </trkpt>
      <trkpt lat="45.81285" lon="2.95154">
        <ele>972.03</ele>
        <time>2021-08-14T14:13:31Z</time>
      </trkpt>
      <trkpt lat="45.81287" lon="2.95164">
        <ele>972.03</ele>
        <time>2021-08-14T14:13:34Z</time>
      </trkpt>
      <trkpt lat="45.81286" lon="2.95167">
        <ele>972.03</ele>
        <time>2021-08-14T14:13:35Z</time>
      </trkpt>
      <trkpt lat="45.81284" lon="2.95169">
        <ele>972.03</ele>
        <time>2021-08-14T14:13:36Z</time>
      </trkpt>
      <trkpt lat="45.81282" lon="2.95171">
        <ele>972.03</ele>
        <time>2021-08-14T14:13:37Z</time>
      </trkpt>
      <trkpt lat="45.81281" lon="2.95171">
        <ele>972.03</ele>
        <time>2021-08-14T14:13:38Z</time>
      </trkpt>
      <trkpt lat="45.8128" lon="2.95171">
        <ele>972.51</ele>
        <time>2021-08-14T14:13:44Z</time>
      </trkpt>
      <trkpt lat="45.81279" lon="2.9517">
        <ele>972.51</ele>
        <time>2021-08-14T14:13:45Z</time>
      </trkpt>
      <trkpt lat="45.81275" lon="2.95159">
        <ele>972.51</ele>
        <time>2021-08-14T14:13:51Z</time>
      </trkpt>
      <trkpt lat="45.81273" lon="2.95157">
        <ele>972.51</ele>
        <time>2021-08-14T14:13:52Z</time>
      </trkpt>
      <trkpt lat="45.81271" lon="2.95155">
        <ele>972.51</ele>
        <time>2021-08-14T14:13:59Z</time>
      </trkpt>
      <trkpt lat="45.8127" lon="2.95156">
        <ele>972.03</ele>
        <time>2021-08-14T14:14:12Z</time>
      </trkpt>
      <trkpt lat="45.81268" lon="2.95155">
        <ele>972.03</ele>
        <time>2021-08-14T14:14:13Z</time>
      </trkpt>
      <trkpt lat="45.81267" lon="2.95154">
        <ele>972.03</ele>
        <time>2021-08-14T14:14:14Z</time>
      </trkpt>
      <trkpt lat="45.81265" lon="2.95152">
        <ele>972.03</ele>
        <time>2021-08-14T14:14:15Z</time>
      </trkpt>
      <trkpt lat="45.81252" lon="2.95137">
        <ele>972.03</ele>
        <time>2021-08-14T14:14:22Z</time>
      </trkpt>
      <trkpt lat="45.81231" lon="2.95116">
        <ele>972.03</ele>
        <time>2021-08-14T14:14:29Z</time>
      </trkpt>
      <trkpt lat="45.81205" lon="2.95096">
        <ele>972.03</ele>
        <time>2021-08-14T14:14:37Z</time>
      </trkpt>
      <trkpt lat="45.81184" lon="2.95087">
        <ele>972.51</ele>
        <time>2021-08-14T14:14:43Z</time>
      </trkpt>
      <trkpt lat="45.81166" lon="2.95083">
        <ele>972.51</ele>
        <time>2021-08-14T14:14:49Z</time>
      </trkpt>
      <trkpt lat="45.81146" lon="2.95081">
        <ele>972.99</ele>
        <time>2021-08-14T14:14:55Z</time>
      </trkpt>
      <trkpt lat="45.81107" lon="2.95081">
        <ele>973.47</ele>
        <time>2021-08-14T14:15:06Z</time>
      </trkpt>
      <trkpt lat="45.8108" lon="2.95085">
        <ele>973.47</ele>
        <time>2021-08-14T14:15:14Z</time>
      </trkpt>
      <trkpt lat="45.81049" lon="2.9509">
        <ele>973.47</ele>
        <time>2021-08-14T14:15:22Z</time>
      </trkpt>
      <trkpt lat="45.81031" lon="2.95097">
        <ele>973.47</ele>
        <time>2021-08-14T14:15:26Z</time>
      </trkpt>
      <trkpt lat="45.81027" lon="2.95098">
        <ele>973.47</ele>
        <time>2021-08-14T14:15:27Z</time>
      </trkpt>
      <trkpt lat="45.81022" lon="2.951">
        <ele>973.47</ele>
        <time>2021-08-14T14:15:28Z</time>
      </trkpt>
      <trkpt lat="45.81017" lon="2.951">
        <ele>973.47</ele>
        <time>2021-08-14T14:15:29Z</time>
      </trkpt>
      <trkpt lat="45.81012" lon="2.95101">
        <ele>972.03</ele>
        <time>2021-08-14T14:15:30Z</time>
      </trkpt>
      <trkpt lat="45.81007" lon="2.95102">
        <ele>972.03</ele>
        <time>2021-08-14T14:15:31Z</time>
      </trkpt>
      <trkpt lat="45.80987" lon="2.95106">
        <ele>971.55</ele>
        <time>2021-08-14T14:15:35Z</time>
      </trkpt>
      <trkpt lat="45.80944" lon="2.95107">
        <ele>971.55</ele>
        <time>2021-08-14T14:15:44Z</time>
      </trkpt>
      <trkpt lat="45.80907" lon="2.95101">
        <ele>971.55</ele>
        <time>2021-08-14T14:15:53Z</time>
      </trkpt>
      <trkpt lat="45.80868" lon="2.95094">
        <ele>971.07</ele>
        <time>2021-08-14T14:16:02Z</time>
      </trkpt>
      <trkpt lat="45.80829" lon="2.95081">
        <ele>970.59</ele>
        <time>2021-08-14T14:16:10Z</time>
      </trkpt>
      <trkpt lat="45.80794" lon="2.9507">
        <ele>970.11</ele>
        <time>2021-08-14T14:16:18Z</time>
      </trkpt>
      <trkpt lat="45.8076" lon="2.95062">
        <ele>969.63</ele>
        <time>2021-08-14T14:16:26Z</time>
      </trkpt>
      <trkpt lat="45.80743" lon="2.95055">
        <ele>969.15</ele>
        <time>2021-08-14T14:16:30Z</time>
      </trkpt>
      <trkpt lat="45.80739" lon="2.95054">
        <ele>968.67</ele>
        <time>2021-08-14T14:16:31Z</time>
      </trkpt>
      <trkpt lat="45.80734" lon="2.95053">
        <ele>968.67</ele>
        <time>2021-08-14T14:16:32Z</time>
      </trkpt>
      <trkpt lat="45.80699" lon="2.95049">
        <ele>968.67</ele>
        <time>2021-08-14T14:16:40Z</time>
      </trkpt>
      <trkpt lat="45.8067" lon="2.95037">
        <ele>968.67</ele>
        <time>2021-08-14T14:16:47Z</time>
      </trkpt>
      <trkpt lat="45.80661" lon="2.95033">
        <ele>970.11</ele>
        <time>2021-08-14T14:16:50Z</time>
      </trkpt>
      <trkpt lat="45.80659" lon="2.95031">
        <ele>970.11</ele>
        <time>2021-08-14T14:16:56Z</time>
      </trkpt>
      <trkpt lat="45.80659" lon="2.95029">
        <ele>970.11</ele>
        <time>2021-08-14T14:17:17Z</time>
      </trkpt>
      <trkpt lat="45.8066" lon="2.95028">
        <ele>970.11</ele>
        <time>2021-08-14T14:17:29Z</time>
      </trkpt>
      <trkpt lat="45.80661" lon="2.95024">
        <ele>969.63</ele>
        <time>2021-08-14T14:17:41Z</time>
      </trkpt>
      <trkpt lat="45.80662" lon="2.95026">
        <ele>969.63</ele>
        <time>2021-08-14T14:17:59Z</time>
      </trkpt>
      <trkpt lat="45.80664" lon="2.95031">
        <ele>969.63</ele>
        <time>2021-08-14T14:18:07Z</time>
      </trkpt>
      <trkpt lat="45.80666" lon="2.95032">
        <ele>969.63</ele>
        <time>2021-08-14T14:18:16Z</time>
      </trkpt>
      <trkpt lat="45.80664" lon="2.95033">
        <ele>969.63</ele>
        <time>2021-08-14T14:18:33Z</time>
      </trkpt>
      <trkpt lat="45.80664" lon="2.95035">
        <ele>969.63</ele>
        <time>2021-08-14T14:18:49Z</time>
      </trkpt>
      <trkpt lat="45.80662" lon="2.95038">
        <ele>969.15</ele>
        <time>2021-08-14T14:19:13Z</time>
      </trkpt>
      <trkpt lat="45.80662" lon="2.95036">
        <ele>969.15</ele>
        <time>2021-08-14T14:19:35Z</time>
      </trkpt>
      <trkpt lat="45.80662" lon="2.95032">
        <ele>969.15</ele>
        <time>2021-08-14T14:19:54Z</time>
      </trkpt>
      <trkpt lat="45.80659" lon="2.95034">
        <ele>969.15</ele>
        <time>2021-08-14T14:20:11Z</time>
      </trkpt>
      <trkpt lat="45.80661" lon="2.95033">
        <ele>968.67</ele>
        <time>2021-08-14T14:20:37Z</time>
      </trkpt>
      <trkpt lat="45.80661" lon="2.9503">
        <ele>968.67</ele>
        <time>2021-08-14T14:20:59Z</time>
      </trkpt>
      <trkpt lat="45.80661" lon="2.95032">
        <ele>969.15</ele>
        <time>2021-08-14T14:21:15Z</time>
      </trkpt>
      <trkpt lat="45.80661" lon="2.95039">
        <ele>969.15</ele>
        <time>2021-08-14T14:21:36Z</time>
      </trkpt>
      <trkpt lat="45.80661" lon="2.95041">
        <ele>969.15</ele>
        <time>2021-08-14T14:22:01Z</time>
      </trkpt>
      <trkpt lat="45.80662" lon="2.9504">
        <ele>969.15</ele>
        <time>2021-08-14T14:22:17Z</time>
      </trkpt>
      <trkpt lat="45.80663" lon="2.95041">
        <ele>968.67</ele>
        <time>2021-08-14T14:22:30Z</time>
      </trkpt>
      <trkpt lat="45.80664" lon="2.95041">
        <ele>968.67</ele>
        <time>2021-08-14T14:22:39Z</time>
      </trkpt>
      <trkpt lat="45.80664" lon="2.95042">
        <ele>968.67</ele>
        <time>2021-08-14T14:22:56Z</time>
      </trkpt>
      <trkpt lat="45.80664" lon="2.95043">
        <ele>968.67</ele>
        <time>2021-08-14T14:23:07Z</time>
      </trkpt>
      <trkpt lat="45.80664" lon="2.95041">
        <ele>968.67</ele>
        <time>2021-08-14T14:23:30Z</time>
      </trkpt>
      <trkpt lat="45.80661" lon="2.9504">
        <ele>968.67</ele>
        <time>2021-08-14T14:23:47Z</time>
      </trkpt>
      <trkpt lat="45.80661" lon="2.95038">
        <ele>968.67</ele>
        <time>2021-08-14T14:24:00Z</time>
      </trkpt>
      <trkpt lat="45.8066" lon="2.95038">
        <ele>968.67</ele>
        <time>2021-08-14T14:24:15Z</time>
      </trkpt>
      <trkpt lat="45.80662" lon="2.95035">
        <ele>968.67</ele>
        <time>2021-08-14T14:24:36Z</time>
      </trkpt>
      <trkpt lat="45.80661" lon="2.95035">
        <ele>968.67</ele>
        <time>2021-08-14T14:24:55Z</time>
      </trkpt>
      <trkpt lat="45.8066" lon="2.95035">
        <ele>968.67</ele>
        <time>2021-08-14T14:25:13Z</time>
      </trkpt>
      <trkpt lat="45.8066" lon="2.95037">
        <ele>968.67</ele>
        <time>2021-08-14T14:25:39Z</time>
      </trkpt>
      <trkpt lat="45.80659" lon="2.95037">
        <ele>968.67</ele>
        <time>2021-08-14T14:25:46Z</time>
      </trkpt>
      <trkpt lat="45.80646" lon="2.95032">
        <ele>968.67</ele>
        <time>2021-08-14T14:25:53Z</time>
      </trkpt>
      <trkpt lat="45.80633" lon="2.95026">
        <ele>969.15</ele>
        <time>2021-08-14T14:25:59Z</time>
      </trkpt>
      <trkpt lat="45.80621" lon="2.95021">
        <ele>970.11</ele>
        <time>2021-08-14T14:26:05Z</time>
      </trkpt>
      <trkpt lat="45.80608" lon="2.95017">
        <ele>970.11</ele>
        <time>2021-08-14T14:26:11Z</time>
      </trkpt>
      <trkpt lat="45.80592" lon="2.95014">
        <ele>970.11</ele>
        <time>2021-08-14T14:26:18Z</time>
      </trkpt>
      <trkpt lat="45.80577" lon="2.95008">
        <ele>971.07</ele>
        <time>2021-08-14T14:26:25Z</time>
      </trkpt>
      <trkpt lat="45.80561" lon="2.95003">
        <ele>972.03</ele>
        <time>2021-08-14T14:26:33Z</time>
      </trkpt>
      <trkpt lat="45.80545" lon="2.94999">
        <ele>972.99</ele>
        <time>2021-08-14T14:26:40Z</time>
      </trkpt>
      <trkpt lat="45.80531" lon="2.95">
        <ele>972.99</ele>
        <time>2021-08-14T14:26:47Z</time>
      </trkpt>
      <trkpt lat="45.80511" lon="2.9501">
        <ele>973.95</ele>
        <time>2021-08-14T14:26:55Z</time>
      </trkpt>
      <trkpt lat="45.80496" lon="2.95018">
        <ele>974.91</ele>
        <time>2021-08-14T14:27:02Z</time>
      </trkpt>
      <trkpt lat="45.8048" lon="2.95023">
        <ele>975.39</ele>
        <time>2021-08-14T14:27:09Z</time>
      </trkpt>
      <trkpt lat="45.80478" lon="2.95023">
        <ele>975.39</ele>
        <time>2021-08-14T14:27:10Z</time>
      </trkpt>
      <trkpt lat="45.80476" lon="2.95024">
        <ele>975.39</ele>
        <time>2021-08-14T14:27:11Z</time>
      </trkpt>
      <trkpt lat="45.80475" lon="2.95025">
        <ele>975.88</ele>
        <time>2021-08-14T14:27:12Z</time>
      </trkpt>
      <trkpt lat="45.80461" lon="2.95028">
        <ele>975.88</ele>
        <time>2021-08-14T14:27:19Z</time>
      </trkpt>
      <trkpt lat="45.80441" lon="2.95034">
        <ele>976.84</ele>
        <time>2021-08-14T14:27:26Z</time>
      </trkpt>
      <trkpt lat="45.80425" lon="2.9504">
        <ele>977.32</ele>
        <time>2021-08-14T14:27:34Z</time>
      </trkpt>
      <trkpt lat="45.80417" lon="2.95043">
        <ele>977.8</ele>
        <time>2021-08-14T14:27:38Z</time>
      </trkpt>
      <trkpt lat="45.80414" lon="2.95044">
        <ele>977.8</ele>
        <time>2021-08-14T14:27:39Z</time>
      </trkpt>
      <trkpt lat="45.80398" lon="2.95054">
        <ele>977.8</ele>
        <time>2021-08-14T14:27:46Z</time>
      </trkpt>
      <trkpt lat="45.80385" lon="2.95064">
        <ele>979.24</ele>
        <time>2021-08-14T14:27:54Z</time>
      </trkpt>
      <trkpt lat="45.80373" lon="2.95078">
        <ele>980.68</ele>
        <time>2021-08-14T14:28:03Z</time>
      </trkpt>
      <trkpt lat="45.80363" lon="2.95089">
        <ele>981.16</ele>
        <time>2021-08-14T14:28:10Z</time>
      </trkpt>
      <trkpt lat="45.80353" lon="2.95096">
        <ele>982.6</ele>
        <time>2021-08-14T14:28:18Z</time>
      </trkpt>
      <trkpt lat="45.80346" lon="2.95097">
        <ele>983.09</ele>
        <time>2021-08-14T14:28:24Z</time>
      </trkpt>
      <trkpt lat="45.80337" lon="2.95098">
        <ele>983.57</ele>
        <time>2021-08-14T14:28:30Z</time>
      </trkpt>
      <trkpt lat="45.80325" lon="2.95098">
        <ele>984.53</ele>
        <time>2021-08-14T14:28:38Z</time>
      </trkpt>
      <trkpt lat="45.80321" lon="2.95099">
        <ele>985.49</ele>
        <time>2021-08-14T14:28:41Z</time>
      </trkpt>
      <trkpt lat="45.80312" lon="2.95103">
        <ele>986.45</ele>
        <time>2021-08-14T14:28:48Z</time>
      </trkpt>
      <trkpt lat="45.803" lon="2.95106">
        <ele>987.41</ele>
        <time>2021-08-14T14:28:57Z</time>
      </trkpt>
      <trkpt lat="45.80291" lon="2.9511">
        <ele>988.37</ele>
        <time>2021-08-14T14:29:04Z</time>
      </trkpt>
      <trkpt lat="45.80281" lon="2.95112">
        <ele>988.85</ele>
        <time>2021-08-14T14:29:13Z</time>
      </trkpt>
      <trkpt lat="45.80268" lon="2.95117">
        <ele>990.78</ele>
        <time>2021-08-14T14:29:24Z</time>
      </trkpt>
      <trkpt lat="45.80261" lon="2.95119">
        <ele>992.22</ele>
        <time>2021-08-14T14:29:32Z</time>
      </trkpt>
      <trkpt lat="45.80252" lon="2.9512">
        <ele>993.18</ele>
        <time>2021-08-14T14:29:41Z</time>
      </trkpt>
      <trkpt lat="45.80243" lon="2.95122">
        <ele>994.14</ele>
        <time>2021-08-14T14:29:50Z</time>
      </trkpt>
      <trkpt lat="45.80233" lon="2.95122">
        <ele>995.1</ele>
        <time>2021-08-14T14:30:00Z</time>
      </trkpt>
      <trkpt lat="45.80225" lon="2.95124">
        <ele>996.06</ele>
        <time>2021-08-14T14:30:08Z</time>
      </trkpt>
      <trkpt lat="45.80217" lon="2.95124">
        <ele>997.02</ele>
        <time>2021-08-14T14:30:16Z</time>
      </trkpt>
      <trkpt lat="45.8021" lon="2.95122">
        <ele>998.47</ele>
        <time>2021-08-14T14:30:24Z</time>
      </trkpt>
      <trkpt lat="45.80203" lon="2.95121">
        <ele>998.95</ele>
        <time>2021-08-14T14:30:31Z</time>
      </trkpt>
      <trkpt lat="45.802" lon="2.95122">
        <ele>999.43</ele>
        <time>2021-08-14T14:30:40Z</time>
      </trkpt>
      <trkpt lat="45.80193" lon="2.95123">
        <ele>999.91</ele>
        <time>2021-08-14T14:30:52Z</time>
      </trkpt>
      <trkpt lat="45.80186" lon="2.95123">
        <ele>1000.39</ele>
        <time>2021-08-14T14:30:59Z</time>
      </trkpt>
      <trkpt lat="45.80178" lon="2.95125">
        <ele>1000.87</ele>
        <time>2021-08-14T14:31:05Z</time>
      </trkpt>
      <trkpt lat="45.80168" lon="2.95126">
        <ele>1002.31</ele>
        <time>2021-08-14T14:31:14Z</time>
      </trkpt>
      <trkpt lat="45.80159" lon="2.95127">
        <ele>1002.79</ele>
        <time>2021-08-14T14:31:21Z</time>
      </trkpt>
      <trkpt lat="45.80147" lon="2.95121">
        <ele>1003.75</ele>
        <time>2021-08-14T14:31:29Z</time>
      </trkpt>
      <trkpt lat="45.80137" lon="2.95117">
        <ele>1004.23</ele>
        <time>2021-08-14T14:31:37Z</time>
      </trkpt>
      <trkpt lat="45.80128" lon="2.95116">
        <ele>1004.72</ele>
        <time>2021-08-14T14:31:44Z</time>
      </trkpt>
      <trkpt lat="45.80121" lon="2.95119">
        <ele>1005.2</ele>
        <time>2021-08-14T14:31:51Z</time>
      </trkpt>
      <trkpt lat="45.80109" lon="2.95122">
        <ele>1006.64</ele>
        <time>2021-08-14T14:31:59Z</time>
      </trkpt>
      <trkpt lat="45.80103" lon="2.95119">
        <ele>1007.12</ele>
        <time>2021-08-14T14:32:04Z</time>
      </trkpt>
      <trkpt lat="45.80094" lon="2.9511">
        <ele>1007.12</ele>
        <time>2021-08-14T14:32:12Z</time>
      </trkpt>
      <trkpt lat="45.80082" lon="2.95102">
        <ele>1007.6</ele>
        <time>2021-08-14T14:32:20Z</time>
      </trkpt>
      <trkpt lat="45.80072" lon="2.95097">
        <ele>1008.08</ele>
        <time>2021-08-14T14:32:27Z</time>
      </trkpt>
      <trkpt lat="45.80061" lon="2.95093">
        <ele>1009.04</ele>
        <time>2021-08-14T14:32:34Z</time>
      </trkpt>
      <trkpt lat="45.80049" lon="2.95092">
        <ele>1009.52</ele>
        <time>2021-08-14T14:32:41Z</time>
      </trkpt>
      <trkpt lat="45.80043" lon="2.95092">
        <ele>1010</ele>
        <time>2021-08-14T14:32:46Z</time>
      </trkpt>
      <trkpt lat="45.80028" lon="2.95089">
        <ele>1011.44</ele>
        <time>2021-08-14T14:32:54Z</time>
      </trkpt>
      <trkpt lat="45.80026" lon="2.95089">
        <ele>1011.44</ele>
        <time>2021-08-14T14:32:55Z</time>
      </trkpt>
      <trkpt lat="45.80011" lon="2.95085">
        <ele>1012.89</ele>
        <time>2021-08-14T14:33:05Z</time>
      </trkpt>
      <trkpt lat="45.80002" lon="2.95083">
        <ele>1013.85</ele>
        <time>2021-08-14T14:33:13Z</time>
      </trkpt>
      <trkpt lat="45.79993" lon="2.95081">
        <ele>1014.81</ele>
        <time>2021-08-14T14:33:19Z</time>
      </trkpt>
      <trkpt lat="45.79985" lon="2.95073">
        <ele>1015.29</ele>
        <time>2021-08-14T14:33:26Z</time>
      </trkpt>
      <trkpt lat="45.79983" lon="2.9507">
        <ele>1015.29</ele>
        <time>2021-08-14T14:33:28Z</time>
      </trkpt>
      <trkpt lat="45.79977" lon="2.95066">
        <ele>1015.77</ele>
        <time>2021-08-14T14:33:32Z</time>
      </trkpt>
      <trkpt lat="45.79962" lon="2.95054">
        <ele>1016.25</ele>
        <time>2021-08-14T14:33:42Z</time>
      </trkpt>
      <trkpt lat="45.79956" lon="2.95049">
        <ele>1016.25</ele>
        <time>2021-08-14T14:33:46Z</time>
      </trkpt>
      <trkpt lat="45.79948" lon="2.95036">
        <ele>1017.69</ele>
        <time>2021-08-14T14:33:54Z</time>
      </trkpt>
      <trkpt lat="45.79942" lon="2.95032">
        <ele>1018.65</ele>
        <time>2021-08-14T14:34:02Z</time>
      </trkpt>
      <trkpt lat="45.79933" lon="2.95025">
        <ele>1019.62</ele>
        <time>2021-08-14T14:34:11Z</time>
      </trkpt>
      <trkpt lat="45.79927" lon="2.95019">
        <ele>1021.06</ele>
        <time>2021-08-14T14:34:20Z</time>
      </trkpt>
      <trkpt lat="45.79921" lon="2.95011">
        <ele>1022.02</ele>
        <time>2021-08-14T14:34:28Z</time>
      </trkpt>
      <trkpt lat="45.79914" lon="2.95003">
        <ele>1022.98</ele>
        <time>2021-08-14T14:34:37Z</time>
      </trkpt>
      <trkpt lat="45.79906" lon="2.94997">
        <ele>1023.94</ele>
        <time>2021-08-14T14:34:46Z</time>
      </trkpt>
      <trkpt lat="45.79901" lon="2.94995">
        <ele>1023.94</ele>
        <time>2021-08-14T14:34:53Z</time>
      </trkpt>
      <trkpt lat="45.79893" lon="2.94997">
        <ele>1024.9</ele>
        <time>2021-08-14T14:35:00Z</time>
      </trkpt>
      <trkpt lat="45.79885" lon="2.94999">
        <ele>1025.38</ele>
        <time>2021-08-14T14:35:07Z</time>
      </trkpt>
      <trkpt lat="45.79874" lon="2.94997">
        <ele>1026.83</ele>
        <time>2021-08-14T14:35:16Z</time>
      </trkpt>
      <trkpt lat="45.79868" lon="2.94997">
        <ele>1027.31</ele>
        <time>2021-08-14T14:35:22Z</time>
      </trkpt>
      <trkpt lat="45.79862" lon="2.95002">
        <ele>1027.31</ele>
        <time>2021-08-14T14:35:26Z</time>
      </trkpt>
      <trkpt lat="45.7986" lon="2.95004">
        <ele>1027.31</ele>
        <time>2021-08-14T14:35:27Z</time>
      </trkpt>
      <trkpt lat="45.79857" lon="2.95007">
        <ele>1025.86</ele>
        <time>2021-08-14T14:35:28Z</time>
      </trkpt>
      <trkpt lat="45.79855" lon="2.9501">
        <ele>1025.38</ele>
        <time>2021-08-14T14:35:29Z</time>
      </trkpt>
      <trkpt lat="45.79847" lon="2.95015">
        <ele>1023.94</ele>
        <time>2021-08-14T14:35:31Z</time>
      </trkpt>
      <trkpt lat="45.79843" lon="2.95016">
        <ele>1023.94</ele>
        <time>2021-08-14T14:35:32Z</time>
      </trkpt>
      <trkpt lat="45.79839" lon="2.95017">
        <ele>1023.46</ele>
        <time>2021-08-14T14:35:33Z</time>
      </trkpt>
      <trkpt lat="45.79835" lon="2.95017">
        <ele>1023.46</ele>
        <time>2021-08-14T14:35:34Z</time>
      </trkpt>
      <trkpt lat="45.7983" lon="2.95017">
        <ele>1023.46</ele>
        <time>2021-08-14T14:35:35Z</time>
      </trkpt>
      <trkpt lat="45.79825" lon="2.95015">
        <ele>1022.98</ele>
        <time>2021-08-14T14:35:36Z</time>
      </trkpt>
      <trkpt lat="45.79805" lon="2.95013">
        <ele>1022.5</ele>
        <time>2021-08-14T14:35:41Z</time>
      </trkpt>
      <trkpt lat="45.79796" lon="2.95015">
        <ele>1022.02</ele>
        <time>2021-08-14T14:35:43Z</time>
      </trkpt>
      <trkpt lat="45.79771" lon="2.95023">
        <ele>1021.54</ele>
        <time>2021-08-14T14:35:47Z</time>
      </trkpt>
      <trkpt lat="45.79752" lon="2.95026">
        <ele>1021.54</ele>
        <time>2021-08-14T14:35:50Z</time>
      </trkpt>
      <trkpt lat="45.79746" lon="2.95029">
        <ele>1021.54</ele>
        <time>2021-08-14T14:35:51Z</time>
      </trkpt>
      <trkpt lat="45.79741" lon="2.95031">
        <ele>1021.06</ele>
        <time>2021-08-14T14:35:52Z</time>
      </trkpt>
      <trkpt lat="45.79736" lon="2.95032">
        <ele>1021.06</ele>
        <time>2021-08-14T14:35:53Z</time>
      </trkpt>
      <trkpt lat="45.79731" lon="2.95033">
        <ele>1021.06</ele>
        <time>2021-08-14T14:35:54Z</time>
      </trkpt>
      <trkpt lat="45.79727" lon="2.95032">
        <ele>1021.06</ele>
        <time>2021-08-14T14:35:55Z</time>
      </trkpt>
      <trkpt lat="45.79723" lon="2.95031">
        <ele>1021.06</ele>
        <time>2021-08-14T14:35:56Z</time>
      </trkpt>
      <trkpt lat="45.79719" lon="2.95031">
        <ele>1021.06</ele>
        <time>2021-08-14T14:35:57Z</time>
      </trkpt>
      <trkpt lat="45.79715" lon="2.95031">
        <ele>1021.06</ele>
        <time>2021-08-14T14:35:58Z</time>
      </trkpt>
      <trkpt lat="45.79701" lon="2.95033">
        <ele>1021.06</ele>
        <time>2021-08-14T14:36:04Z</time>
      </trkpt>
      <trkpt lat="45.79686" lon="2.95035">
        <ele>1021.06</ele>
        <time>2021-08-14T14:36:10Z</time>
      </trkpt>
      <trkpt lat="45.79661" lon="2.95041">
        <ele>1022.5</ele>
        <time>2021-08-14T14:36:19Z</time>
      </trkpt>
      <trkpt lat="45.79638" lon="2.95048">
        <ele>1022.5</ele>
        <time>2021-08-14T14:36:26Z</time>
      </trkpt>
      <trkpt lat="45.79626" lon="2.95055">
        <ele>1022.5</ele>
        <time>2021-08-14T14:36:31Z</time>
      </trkpt>
      <trkpt lat="45.79625" lon="2.95057">
        <ele>1022.5</ele>
        <time>2021-08-14T14:36:32Z</time>
      </trkpt>
      <trkpt lat="45.79623" lon="2.9506">
        <ele>1022.5</ele>
        <time>2021-08-14T14:36:33Z</time>
      </trkpt>
      <trkpt lat="45.79621" lon="2.95063">
        <ele>1022.5</ele>
        <time>2021-08-14T14:36:34Z</time>
      </trkpt>
      <trkpt lat="45.79619" lon="2.95066">
        <ele>1022.5</ele>
        <time>2021-08-14T14:36:35Z</time>
      </trkpt>
      <trkpt lat="45.79616" lon="2.95067">
        <ele>1022.5</ele>
        <time>2021-08-14T14:36:36Z</time>
      </trkpt>
      <trkpt lat="45.79613" lon="2.95067">
        <ele>1022.5</ele>
        <time>2021-08-14T14:36:37Z</time>
      </trkpt>
      <trkpt lat="45.79611" lon="2.95066">
        <ele>1022.98</ele>
        <time>2021-08-14T14:36:38Z</time>
      </trkpt>
      <trkpt lat="45.79596" lon="2.95055">
        <ele>1024.42</ele>
        <time>2021-08-14T14:36:46Z</time>
      </trkpt>
      <trkpt lat="45.79594" lon="2.95053">
        <ele>1024.42</ele>
        <time>2021-08-14T14:36:47Z</time>
      </trkpt>
      <trkpt lat="45.79583" lon="2.95046">
        <ele>1025.38</ele>
        <time>2021-08-14T14:36:54Z</time>
      </trkpt>
      <trkpt lat="45.79582" lon="2.95045">
        <ele>1025.38</ele>
        <time>2021-08-14T14:36:55Z</time>
      </trkpt>
      <trkpt lat="45.79581" lon="2.95044">
        <ele>1025.38</ele>
        <time>2021-08-14T14:36:56Z</time>
      </trkpt>
      <trkpt lat="45.7957" lon="2.95036">
        <ele>1026.34</ele>
        <time>2021-08-14T14:37:05Z</time>
      </trkpt>
      <trkpt lat="45.7956" lon="2.95025">
        <ele>1027.31</ele>
        <time>2021-08-14T14:37:13Z</time>
      </trkpt>
      <trkpt lat="45.7955" lon="2.95009">
        <ele>1027.31</ele>
        <time>2021-08-14T14:37:20Z</time>
      </trkpt>
      <trkpt lat="45.7954" lon="2.9499">
        <ele>1026.34</ele>
        <time>2021-08-14T14:37:25Z</time>
      </trkpt>
      <trkpt lat="45.79527" lon="2.9496">
        <ele>1026.34</ele>
        <time>2021-08-14T14:37:33Z</time>
      </trkpt>
      <trkpt lat="45.7952" lon="2.94942">
        <ele>1027.79</ele>
        <time>2021-08-14T14:37:38Z</time>
      </trkpt>
      <trkpt lat="45.79512" lon="2.94926">
        <ele>1028.27</ele>
        <time>2021-08-14T14:37:45Z</time>
      </trkpt>
      <trkpt lat="45.79504" lon="2.94913">
        <ele>1028.75</ele>
        <time>2021-08-14T14:37:53Z</time>
      </trkpt>
      <trkpt lat="45.79494" lon="2.94895">
        <ele>1029.71</ele>
        <time>2021-08-14T14:38:01Z</time>
      </trkpt>
      <trkpt lat="45.79485" lon="2.94884">
        <ele>1030.67</ele>
        <time>2021-08-14T14:38:08Z</time>
      </trkpt>
      <trkpt lat="45.79484" lon="2.94883">
        <ele>1031.15</ele>
        <time>2021-08-14T14:38:09Z</time>
      </trkpt>
      <trkpt lat="45.7947" lon="2.94866">
        <ele>1032.11</ele>
        <time>2021-08-14T14:38:19Z</time>
      </trkpt>
      <trkpt lat="45.79462" lon="2.94854">
        <ele>1032.59</ele>
        <time>2021-08-14T14:38:26Z</time>
      </trkpt>
      <trkpt lat="45.79451" lon="2.9484">
        <ele>1033.55</ele>
        <time>2021-08-14T14:38:33Z</time>
      </trkpt>
      <trkpt lat="45.79445" lon="2.94835">
        <ele>1033.55</ele>
        <time>2021-08-14T14:38:36Z</time>
      </trkpt>
      <trkpt lat="45.79433" lon="2.94819">
        <ele>1034.04</ele>
        <time>2021-08-14T14:38:45Z</time>
      </trkpt>
      <trkpt lat="45.79419" lon="2.94802">
        <ele>1035</ele>
        <time>2021-08-14T14:38:55Z</time>
      </trkpt>
      <trkpt lat="45.79407" lon="2.94787">
        <ele>1035.48</ele>
        <time>2021-08-14T14:39:04Z</time>
      </trkpt>
      <trkpt lat="45.79398" lon="2.94774">
        <ele>1036.44</ele>
        <time>2021-08-14T14:39:11Z</time>
      </trkpt>
      <trkpt lat="45.79385" lon="2.94753">
        <ele>1036.92</ele>
        <time>2021-08-14T14:39:19Z</time>
      </trkpt>
      <trkpt lat="45.79374" lon="2.9474">
        <ele>1037.4</ele>
        <time>2021-08-14T14:39:25Z</time>
      </trkpt>
      <trkpt lat="45.79355" lon="2.94719">
        <ele>1038.36</ele>
        <time>2021-08-14T14:39:33Z</time>
      </trkpt>
      <trkpt lat="45.7934" lon="2.94697">
        <ele>1038.84</ele>
        <time>2021-08-14T14:39:41Z</time>
      </trkpt>
      <trkpt lat="45.79327" lon="2.94676">
        <ele>1039.32</ele>
        <time>2021-08-14T14:39:49Z</time>
      </trkpt>
      <trkpt lat="45.79311" lon="2.9465">
        <ele>1039.8</ele>
        <time>2021-08-14T14:39:58Z</time>
      </trkpt>
      <trkpt lat="45.79295" lon="2.94621">
        <ele>1039.8</ele>
        <time>2021-08-14T14:40:07Z</time>
      </trkpt>
      <trkpt lat="45.79278" lon="2.94594">
        <ele>1040.28</ele>
        <time>2021-08-14T14:40:16Z</time>
      </trkpt>
      <trkpt lat="45.79265" lon="2.94578">
        <ele>1040.76</ele>
        <time>2021-08-14T14:40:23Z</time>
      </trkpt>
      <trkpt lat="45.79252" lon="2.94561">
        <ele>1041.25</ele>
        <time>2021-08-14T14:40:31Z</time>
      </trkpt>
      <trkpt lat="45.79243" lon="2.94549">
        <ele>1041.73</ele>
        <time>2021-08-14T14:40:37Z</time>
      </trkpt>
      <trkpt lat="45.79236" lon="2.94538">
        <ele>1042.21</ele>
        <time>2021-08-14T14:40:43Z</time>
      </trkpt>
      <trkpt lat="45.79232" lon="2.94534">
        <ele>1042.69</ele>
        <time>2021-08-14T14:40:45Z</time>
      </trkpt>
      <trkpt lat="45.7923" lon="2.94531">
        <ele>1042.69</ele>
        <time>2021-08-14T14:40:46Z</time>
      </trkpt>
      <trkpt lat="45.79229" lon="2.94528">
        <ele>1042.69</ele>
        <time>2021-08-14T14:40:47Z</time>
      </trkpt>
      <trkpt lat="45.7922" lon="2.94513">
        <ele>1043.17</ele>
        <time>2021-08-14T14:40:53Z</time>
      </trkpt>
      <trkpt lat="45.79206" lon="2.94498">
        <ele>1044.13</ele>
        <time>2021-08-14T14:41:01Z</time>
      </trkpt>
      <trkpt lat="45.79192" lon="2.94481">
        <ele>1044.61</ele>
        <time>2021-08-14T14:41:11Z</time>
      </trkpt>
      <trkpt lat="45.79191" lon="2.94479">
        <ele>1044.61</ele>
        <time>2021-08-14T14:41:12Z</time>
      </trkpt>
      <trkpt lat="45.79189" lon="2.94477">
        <ele>1044.61</ele>
        <time>2021-08-14T14:41:13Z</time>
      </trkpt>
      <trkpt lat="45.79187" lon="2.94476">
        <ele>1045.09</ele>
        <time>2021-08-14T14:41:14Z</time>
      </trkpt>
      <trkpt lat="45.79173" lon="2.94463">
        <ele>1045.57</ele>
        <time>2021-08-14T14:41:23Z</time>
      </trkpt>
      <trkpt lat="45.7916" lon="2.94451">
        <ele>1046.05</ele>
        <time>2021-08-14T14:41:31Z</time>
      </trkpt>
      <trkpt lat="45.79145" lon="2.94441">
        <ele>1046.53</ele>
        <time>2021-08-14T14:41:38Z</time>
      </trkpt>
      <trkpt lat="45.79136" lon="2.94436">
        <ele>1047.01</ele>
        <time>2021-08-14T14:41:44Z</time>
      </trkpt>
      <trkpt lat="45.79118" lon="2.94434">
        <ele>1047.97</ele>
        <time>2021-08-14T14:41:53Z</time>
      </trkpt>
      <trkpt lat="45.79105" lon="2.94433">
        <ele>1048.45</ele>
        <time>2021-08-14T14:42:00Z</time>
      </trkpt>
      <trkpt lat="45.79091" lon="2.94427">
        <ele>1049.9</ele>
        <time>2021-08-14T14:42:08Z</time>
      </trkpt>
      <trkpt lat="45.7909" lon="2.94426">
        <ele>1049.9</ele>
        <time>2021-08-14T14:42:09Z</time>
      </trkpt>
      <trkpt lat="45.79088" lon="2.94426">
        <ele>1049.9</ele>
        <time>2021-08-14T14:42:10Z</time>
      </trkpt>
      <trkpt lat="45.79086" lon="2.94425">
        <ele>1049.9</ele>
        <time>2021-08-14T14:42:11Z</time>
      </trkpt>
      <trkpt lat="45.79084" lon="2.94424">
        <ele>1050.38</ele>
        <time>2021-08-14T14:42:12Z</time>
      </trkpt>
      <trkpt lat="45.79082" lon="2.94423">
        <ele>1050.38</ele>
        <time>2021-08-14T14:42:13Z</time>
      </trkpt>
      <trkpt lat="45.7908" lon="2.94423">
        <ele>1050.38</ele>
        <time>2021-08-14T14:42:14Z</time>
      </trkpt>
      <trkpt lat="45.79078" lon="2.94422">
        <ele>1050.38</ele>
        <time>2021-08-14T14:42:15Z</time>
      </trkpt>
      <trkpt lat="45.79076" lon="2.94422">
        <ele>1050.38</ele>
        <time>2021-08-14T14:42:16Z</time>
      </trkpt>
      <trkpt lat="45.79065" lon="2.94418">
        <ele>1050.86</ele>
        <time>2021-08-14T14:42:22Z</time>
      </trkpt>
      <trkpt lat="45.79058" lon="2.94413">
        <ele>1051.34</ele>
        <time>2021-08-14T14:42:26Z</time>
      </trkpt>
      <trkpt lat="45.79054" lon="2.94411">
        <ele>1051.82</ele>
        <time>2021-08-14T14:42:28Z</time>
      </trkpt>
      <trkpt lat="45.7904" lon="2.94413">
        <ele>1052.3</ele>
        <time>2021-08-14T14:42:34Z</time>
      </trkpt>
      <trkpt lat="45.79038" lon="2.94413">
        <ele>1052.78</ele>
        <time>2021-08-14T14:42:35Z</time>
      </trkpt>
      <trkpt lat="45.79036" lon="2.94412">
        <ele>1052.78</ele>
        <time>2021-08-14T14:42:36Z</time>
      </trkpt>
      <trkpt lat="45.79033" lon="2.94412">
        <ele>1053.26</ele>
        <time>2021-08-14T14:42:37Z</time>
      </trkpt>
      <trkpt lat="45.79031" lon="2.94411">
        <ele>1053.26</ele>
        <time>2021-08-14T14:42:38Z</time>
      </trkpt>
      <trkpt lat="45.79028" lon="2.94411">
        <ele>1053.26</ele>
        <time>2021-08-14T14:42:39Z</time>
      </trkpt>
      <trkpt lat="45.79016" lon="2.94409">
        <ele>1053.26</ele>
        <time>2021-08-14T14:42:45Z</time>
      </trkpt>
      <trkpt lat="45.79005" lon="2.94409">
        <ele>1054.22</ele>
        <time>2021-08-14T14:42:52Z</time>
      </trkpt>
      <trkpt lat="45.78994" lon="2.94408">
        <ele>1054.7</ele>
        <time>2021-08-14T14:42:59Z</time>
      </trkpt>
      <trkpt lat="45.78983" lon="2.9441">
        <ele>1055.18</ele>
        <time>2021-08-14T14:43:05Z</time>
      </trkpt>
      <trkpt lat="45.78971" lon="2.94411">
        <ele>1056.15</ele>
        <time>2021-08-14T14:43:13Z</time>
      </trkpt>
      <trkpt lat="45.78966" lon="2.94411">
        <ele>1056.15</ele>
        <time>2021-08-14T14:43:16Z</time>
      </trkpt>
      <trkpt lat="45.78964" lon="2.94412">
        <ele>1056.15</ele>
        <time>2021-08-14T14:43:17Z</time>
      </trkpt>
      <trkpt lat="45.78962" lon="2.94411">
        <ele>1056.15</ele>
        <time>2021-08-14T14:43:18Z</time>
      </trkpt>
      <trkpt lat="45.7896" lon="2.94411">
        <ele>1056.15</ele>
        <time>2021-08-14T14:43:19Z</time>
      </trkpt>
      <trkpt lat="45.78958" lon="2.94411">
        <ele>1056.15</ele>
        <time>2021-08-14T14:43:20Z</time>
      </trkpt>
      <trkpt lat="45.78956" lon="2.9441">
        <ele>1056.15</ele>
        <time>2021-08-14T14:43:21Z</time>
      </trkpt>
      <trkpt lat="45.78945" lon="2.94408">
        <ele>1056.63</ele>
        <time>2021-08-14T14:43:27Z</time>
      </trkpt>
      <trkpt lat="45.78926" lon="2.94403">
        <ele>1056.63</ele>
        <time>2021-08-14T14:43:34Z</time>
      </trkpt>
      <trkpt lat="45.78909" lon="2.94403">
        <ele>1056.63</ele>
        <time>2021-08-14T14:43:41Z</time>
      </trkpt>
      <trkpt lat="45.78885" lon="2.94411">
        <ele>1054.7</ele>
        <time>2021-08-14T14:43:48Z</time>
      </trkpt>
      <trkpt lat="45.78861" lon="2.94424">
        <ele>1053.26</ele>
        <time>2021-08-14T14:43:54Z</time>
      </trkpt>
      <trkpt lat="45.78829" lon="2.94439">
        <ele>1051.34</ele>
        <time>2021-08-14T14:44:01Z</time>
      </trkpt>
      <trkpt lat="45.78805" lon="2.94446">
        <ele>1051.34</ele>
        <time>2021-08-14T14:44:06Z</time>
      </trkpt>
      <trkpt lat="45.788" lon="2.94446">
        <ele>1050.86</ele>
        <time>2021-08-14T14:44:07Z</time>
      </trkpt>
      <trkpt lat="45.78795" lon="2.94446">
        <ele>1050.38</ele>
        <time>2021-08-14T14:44:08Z</time>
      </trkpt>
      <trkpt lat="45.78778" lon="2.94446">
        <ele>1048.94</ele>
        <time>2021-08-14T14:44:11Z</time>
      </trkpt>
      <trkpt lat="45.78774" lon="2.94446">
        <ele>1048.94</ele>
        <time>2021-08-14T14:44:12Z</time>
      </trkpt>
      <trkpt lat="45.78769" lon="2.94447">
        <ele>1048.94</ele>
        <time>2021-08-14T14:44:16Z</time>
      </trkpt>
      <trkpt lat="45.78768" lon="2.94447">
        <ele>1048.94</ele>
        <time>2021-08-14T14:44:24Z</time>
      </trkpt>
      <trkpt lat="45.78763" lon="2.9445">
        <ele>1048.94</ele>
        <time>2021-08-14T14:44:38Z</time>
      </trkpt>
      <trkpt lat="45.78758" lon="2.94449">
        <ele>1048.94</ele>
        <time>2021-08-14T14:44:43Z</time>
      </trkpt>
      <trkpt lat="45.78742" lon="2.94446">
        <ele>1047.49</ele>
        <time>2021-08-14T14:44:47Z</time>
      </trkpt>
      <trkpt lat="45.78736" lon="2.94444">
        <ele>1047.49</ele>
        <time>2021-08-14T14:44:48Z</time>
      </trkpt>
      <trkpt lat="45.78731" lon="2.94441">
        <ele>1047.49</ele>
        <time>2021-08-14T14:44:49Z</time>
      </trkpt>
      <trkpt lat="45.7869" lon="2.94427">
        <ele>1046.53</ele>
        <time>2021-08-14T14:44:56Z</time>
      </trkpt>
      <trkpt lat="45.78685" lon="2.94426">
        <ele>1046.53</ele>
        <time>2021-08-14T14:44:57Z</time>
      </trkpt>
      <trkpt lat="45.7867" lon="2.94427">
        <ele>1046.53</ele>
        <time>2021-08-14T14:45:00Z</time>
      </trkpt>
      <trkpt lat="45.78665" lon="2.94428">
        <ele>1046.53</ele>
        <time>2021-08-14T14:45:01Z</time>
      </trkpt>
      <trkpt lat="45.78662" lon="2.94429">
        <ele>1046.53</ele>
        <time>2021-08-14T14:45:02Z</time>
      </trkpt>
      <trkpt lat="45.78653" lon="2.94434">
        <ele>1046.53</ele>
        <time>2021-08-14T14:45:05Z</time>
      </trkpt>
      <trkpt lat="45.78651" lon="2.94437">
        <ele>1046.53</ele>
        <time>2021-08-14T14:45:06Z</time>
      </trkpt>
      <trkpt lat="45.78647" lon="2.9446">
        <ele>1046.53</ele>
        <time>2021-08-14T14:45:14Z</time>
      </trkpt>
      <trkpt lat="45.78645" lon="2.9448">
        <ele>1047.97</ele>
        <time>2021-08-14T14:45:21Z</time>
      </trkpt>
      <trkpt lat="45.78643" lon="2.94508">
        <ele>1048.45</ele>
        <time>2021-08-14T14:45:30Z</time>
      </trkpt>
      <trkpt lat="45.78641" lon="2.94517">
        <ele>1048.94</ele>
        <time>2021-08-14T14:45:35Z</time>
      </trkpt>
      <trkpt lat="45.78632" lon="2.94532">
        <ele>1048.94</ele>
        <time>2021-08-14T14:45:42Z</time>
      </trkpt>
      <trkpt lat="45.78632" lon="2.94535">
        <ele>1048.94</ele>
        <time>2021-08-14T14:45:43Z</time>
      </trkpt>
      <trkpt lat="45.78632" lon="2.94556">
        <ele>1049.42</ele>
        <time>2021-08-14T14:45:51Z</time>
      </trkpt>
      <trkpt lat="45.78631" lon="2.94559">
        <ele>1049.42</ele>
        <time>2021-08-14T14:45:52Z</time>
      </trkpt>
      <trkpt lat="45.7863" lon="2.94561">
        <ele>1049.9</ele>
        <time>2021-08-14T14:45:53Z</time>
      </trkpt>
      <trkpt lat="45.7863" lon="2.94564">
        <ele>1049.9</ele>
        <time>2021-08-14T14:45:54Z</time>
      </trkpt>
      <trkpt lat="45.78628" lon="2.94566">
        <ele>1049.9</ele>
        <time>2021-08-14T14:45:55Z</time>
      </trkpt>
      <trkpt lat="45.78627" lon="2.94569">
        <ele>1049.9</ele>
        <time>2021-08-14T14:45:56Z</time>
      </trkpt>
      <trkpt lat="45.78626" lon="2.94573">
        <ele>1049.9</ele>
        <time>2021-08-14T14:45:57Z</time>
      </trkpt>
      <trkpt lat="45.78625" lon="2.94576">
        <ele>1049.9</ele>
        <time>2021-08-14T14:45:58Z</time>
      </trkpt>
      <trkpt lat="45.78624" lon="2.94578">
        <ele>1050.38</ele>
        <time>2021-08-14T14:45:59Z</time>
      </trkpt>
      <trkpt lat="45.78618" lon="2.94599">
        <ele>1050.86</ele>
        <time>2021-08-14T14:46:06Z</time>
      </trkpt>
      <trkpt lat="45.78614" lon="2.94617">
        <ele>1051.34</ele>
        <time>2021-08-14T14:46:12Z</time>
      </trkpt>
      <trkpt lat="45.78614" lon="2.94637">
        <ele>1051.82</ele>
        <time>2021-08-14T14:46:18Z</time>
      </trkpt>
      <trkpt lat="45.78613" lon="2.9464">
        <ele>1051.82</ele>
        <time>2021-08-14T14:46:19Z</time>
      </trkpt>
      <trkpt lat="45.78613" lon="2.94644">
        <ele>1051.82</ele>
        <time>2021-08-14T14:46:20Z</time>
      </trkpt>
      <trkpt lat="45.78613" lon="2.94647">
        <ele>1051.82</ele>
        <time>2021-08-14T14:46:21Z</time>
      </trkpt>
      <trkpt lat="45.78614" lon="2.94651">
        <ele>1051.82</ele>
        <time>2021-08-14T14:46:22Z</time>
      </trkpt>
      <trkpt lat="45.78616" lon="2.94671">
        <ele>1052.78</ele>
        <time>2021-08-14T14:46:28Z</time>
      </trkpt>
      <trkpt lat="45.78617" lon="2.94674">
        <ele>1052.78</ele>
        <time>2021-08-14T14:46:29Z</time>
      </trkpt>
      <trkpt lat="45.78617" lon="2.94677">
        <ele>1052.78</ele>
        <time>2021-08-14T14:46:30Z</time>
      </trkpt>
      <trkpt lat="45.78617" lon="2.9468">
        <ele>1053.74</ele>
        <time>2021-08-14T14:46:31Z</time>
      </trkpt>
      <trkpt lat="45.78617" lon="2.94683">
        <ele>1053.74</ele>
        <time>2021-08-14T14:46:32Z</time>
      </trkpt>
      <trkpt lat="45.78617" lon="2.94706">
        <ele>1054.22</ele>
        <time>2021-08-14T14:46:41Z</time>
      </trkpt>
      <trkpt lat="45.78619" lon="2.94727">
        <ele>1055.67</ele>
        <time>2021-08-14T14:46:49Z</time>
      </trkpt>
      <trkpt lat="45.7862" lon="2.94744">
        <ele>1055.67</ele>
        <time>2021-08-14T14:46:55Z</time>
      </trkpt>
      <trkpt lat="45.78622" lon="2.94768">
        <ele>1057.11</ele>
        <time>2021-08-14T14:47:03Z</time>
      </trkpt>
      <trkpt lat="45.78626" lon="2.94791">
        <ele>1058.07</ele>
        <time>2021-08-14T14:47:11Z</time>
      </trkpt>
      <trkpt lat="45.7863" lon="2.94812">
        <ele>1059.03</ele>
        <time>2021-08-14T14:47:19Z</time>
      </trkpt>
      <trkpt lat="45.78636" lon="2.9483">
        <ele>1059.99</ele>
        <time>2021-08-14T14:47:28Z</time>
      </trkpt>
      <trkpt lat="45.78636" lon="2.94832">
        <ele>1059.99</ele>
        <time>2021-08-14T14:47:29Z</time>
      </trkpt>
      <trkpt lat="45.78639" lon="2.94848">
        <ele>1060.47</ele>
        <time>2021-08-14T14:47:36Z</time>
      </trkpt>
      <trkpt lat="45.78641" lon="2.94869">
        <ele>1061.43</ele>
        <time>2021-08-14T14:47:44Z</time>
      </trkpt>
      <trkpt lat="45.78644" lon="2.94889">
        <ele>1062.87</ele>
        <time>2021-08-14T14:47:52Z</time>
      </trkpt>
      <trkpt lat="45.78648" lon="2.94908">
        <ele>1063.84</ele>
        <time>2021-08-14T14:48:00Z</time>
      </trkpt>
      <trkpt lat="45.78651" lon="2.94923">
        <ele>1064.32</ele>
        <time>2021-08-14T14:48:07Z</time>
      </trkpt>
      <trkpt lat="45.7865" lon="2.94941">
        <ele>1065.28</ele>
        <time>2021-08-14T14:48:15Z</time>
      </trkpt>
      <trkpt lat="45.78648" lon="2.94954">
        <ele>1065.76</ele>
        <time>2021-08-14T14:48:22Z</time>
      </trkpt>
      <trkpt lat="45.78647" lon="2.94956">
        <ele>1065.76</ele>
        <time>2021-08-14T14:48:23Z</time>
      </trkpt>
      <trkpt lat="45.78647" lon="2.94959">
        <ele>1066.24</ele>
        <time>2021-08-14T14:48:24Z</time>
      </trkpt>
      <trkpt lat="45.78646" lon="2.94961">
        <ele>1065.76</ele>
        <time>2021-08-14T14:48:25Z</time>
      </trkpt>
      <trkpt lat="45.78646" lon="2.94964">
        <ele>1066.24</ele>
        <time>2021-08-14T14:48:26Z</time>
      </trkpt>
      <trkpt lat="45.78646" lon="2.94966">
        <ele>1066.24</ele>
        <time>2021-08-14T14:48:27Z</time>
      </trkpt>
      <trkpt lat="45.78644" lon="2.94984">
        <ele>1066.72</ele>
        <time>2021-08-14T14:48:34Z</time>
      </trkpt>
      <trkpt lat="45.78643" lon="2.94986">
        <ele>1066.72</ele>
        <time>2021-08-14T14:48:35Z</time>
      </trkpt>
      <trkpt lat="45.78643" lon="2.94988">
        <ele>1066.72</ele>
        <time>2021-08-14T14:48:36Z</time>
      </trkpt>
      <trkpt lat="45.78642" lon="2.9499">
        <ele>1066.72</ele>
        <time>2021-08-14T14:48:37Z</time>
      </trkpt>
      <trkpt lat="45.78637" lon="2.95005">
        <ele>1067.2</ele>
        <time>2021-08-14T14:48:46Z</time>
      </trkpt>
      <trkpt lat="45.78637" lon="2.95009">
        <ele>1067.68</ele>
        <time>2021-08-14T14:48:48Z</time>
      </trkpt>
      <trkpt lat="45.78637" lon="2.95011">
        <ele>1067.68</ele>
        <time>2021-08-14T14:48:49Z</time>
      </trkpt>
      <trkpt lat="45.78636" lon="2.95013">
        <ele>1067.68</ele>
        <time>2021-08-14T14:48:50Z</time>
      </trkpt>
      <trkpt lat="45.78636" lon="2.95015">
        <ele>1068.16</ele>
        <time>2021-08-14T14:48:51Z</time>
      </trkpt>
      <trkpt lat="45.78636" lon="2.95017">
        <ele>1068.16</ele>
        <time>2021-08-14T14:48:52Z</time>
      </trkpt>
      <trkpt lat="45.78636" lon="2.95019">
        <ele>1068.16</ele>
        <time>2021-08-14T14:48:53Z</time>
      </trkpt>
      <trkpt lat="45.78636" lon="2.95022">
        <ele>1068.16</ele>
        <time>2021-08-14T14:48:54Z</time>
      </trkpt>
      <trkpt lat="45.78636" lon="2.95025">
        <ele>1068.64</ele>
        <time>2021-08-14T14:48:55Z</time>
      </trkpt>
      <trkpt lat="45.78636" lon="2.95027">
        <ele>1068.64</ele>
        <time>2021-08-14T14:48:56Z</time>
      </trkpt>
      <trkpt lat="45.78636" lon="2.9503">
        <ele>1068.64</ele>
        <time>2021-08-14T14:48:57Z</time>
      </trkpt>
      <trkpt lat="45.78636" lon="2.95032">
        <ele>1068.64</ele>
        <time>2021-08-14T14:48:58Z</time>
      </trkpt>
      <trkpt lat="45.78636" lon="2.95034">
        <ele>1069.12</ele>
        <time>2021-08-14T14:48:59Z</time>
      </trkpt>
      <trkpt lat="45.78637" lon="2.95056">
        <ele>1069.6</ele>
        <time>2021-08-14T14:49:07Z</time>
      </trkpt>
      <trkpt lat="45.78635" lon="2.95063">
        <ele>1070.08</ele>
        <time>2021-08-14T14:49:10Z</time>
      </trkpt>
      <trkpt lat="45.78635" lon="2.95065">
        <ele>1070.08</ele>
        <time>2021-08-14T14:49:11Z</time>
      </trkpt>
      <trkpt lat="45.78635" lon="2.95067">
        <ele>1070.57</ele>
        <time>2021-08-14T14:49:12Z</time>
      </trkpt>
      <trkpt lat="45.78635" lon="2.95081">
        <ele>1071.05</ele>
        <time>2021-08-14T14:49:19Z</time>
      </trkpt>
      <trkpt lat="45.78637" lon="2.95097">
        <ele>1072.01</ele>
        <time>2021-08-14T14:49:27Z</time>
      </trkpt>
      <trkpt lat="45.78637" lon="2.95111">
        <ele>1072.49</ele>
        <time>2021-08-14T14:49:35Z</time>
      </trkpt>
      <trkpt lat="45.78636" lon="2.95114">
        <ele>1072.97</ele>
        <time>2021-08-14T14:49:37Z</time>
      </trkpt>
      <trkpt lat="45.78637" lon="2.95117">
        <ele>1072.97</ele>
        <time>2021-08-14T14:49:38Z</time>
      </trkpt>
      <trkpt lat="45.78637" lon="2.95119">
        <ele>1072.97</ele>
        <time>2021-08-14T14:49:39Z</time>
      </trkpt>
      <trkpt lat="45.78637" lon="2.95121">
        <ele>1072.97</ele>
        <time>2021-08-14T14:49:40Z</time>
      </trkpt>
      <trkpt lat="45.78637" lon="2.95123">
        <ele>1073.45</ele>
        <time>2021-08-14T14:49:41Z</time>
      </trkpt>
      <trkpt lat="45.78637" lon="2.95126">
        <ele>1073.45</ele>
        <time>2021-08-14T14:49:42Z</time>
      </trkpt>
      <trkpt lat="45.78636" lon="2.95141">
        <ele>1074.41</ele>
        <time>2021-08-14T14:49:49Z</time>
      </trkpt>
      <trkpt lat="45.78635" lon="2.95159">
        <ele>1074.89</ele>
        <time>2021-08-14T14:49:57Z</time>
      </trkpt>
      <trkpt lat="45.78631" lon="2.9518">
        <ele>1076.33</ele>
        <time>2021-08-14T14:50:05Z</time>
      </trkpt>
      <trkpt lat="45.78628" lon="2.95197">
        <ele>1077.78</ele>
        <time>2021-08-14T14:50:13Z</time>
      </trkpt>
      <trkpt lat="45.78626" lon="2.95213">
        <ele>1078.26</ele>
        <time>2021-08-14T14:50:21Z</time>
      </trkpt>
      <trkpt lat="45.78624" lon="2.95232">
        <ele>1077.78</ele>
        <time>2021-08-14T14:50:28Z</time>
      </trkpt>
      <trkpt lat="45.78625" lon="2.95242">
        <ele>1077.29</ele>
        <time>2021-08-14T14:50:30Z</time>
      </trkpt>
      <trkpt lat="45.78624" lon="2.9526">
        <ele>1075.37</ele>
        <time>2021-08-14T14:50:33Z</time>
      </trkpt>
      <trkpt lat="45.78624" lon="2.95268">
        <ele>1074.89</ele>
        <time>2021-08-14T14:50:34Z</time>
      </trkpt>
      <trkpt lat="45.78624" lon="2.95274">
        <ele>1074.41</ele>
        <time>2021-08-14T14:50:35Z</time>
      </trkpt>
      <trkpt lat="45.78624" lon="2.95283">
        <ele>1073.93</ele>
        <time>2021-08-14T14:50:36Z</time>
      </trkpt>
      <trkpt lat="45.78624" lon="2.95292">
        <ele>1073.93</ele>
        <time>2021-08-14T14:50:37Z</time>
      </trkpt>
      <trkpt lat="45.78623" lon="2.95302">
        <ele>1073.93</ele>
        <time>2021-08-14T14:50:38Z</time>
      </trkpt>
      <trkpt lat="45.78623" lon="2.95322">
        <ele>1073.93</ele>
        <time>2021-08-14T14:50:40Z</time>
      </trkpt>
      <trkpt lat="45.78619" lon="2.95363">
        <ele>1073.45</ele>
        <time>2021-08-14T14:50:44Z</time>
      </trkpt>
      <trkpt lat="45.78618" lon="2.95372">
        <ele>1072.49</ele>
        <time>2021-08-14T14:50:45Z</time>
      </trkpt>
      <trkpt lat="45.78615" lon="2.95408">
        <ele>1072.49</ele>
        <time>2021-08-14T14:50:49Z</time>
      </trkpt>
      <trkpt lat="45.78613" lon="2.95411">
        <ele>1072.49</ele>
        <time>2021-08-14T14:50:50Z</time>
      </trkpt>
      <trkpt lat="45.78611" lon="2.95414">
        <ele>1072.49</ele>
        <time>2021-08-14T14:50:51Z</time>
      </trkpt>
      <trkpt lat="45.7861" lon="2.95417">
        <ele>1072.01</ele>
        <time>2021-08-14T14:50:52Z</time>
      </trkpt>
      <trkpt lat="45.78608" lon="2.95422">
        <ele>1072.01</ele>
        <time>2021-08-14T14:50:53Z</time>
      </trkpt>
      <trkpt lat="45.78603" lon="2.95436">
        <ele>1072.49</ele>
        <time>2021-08-14T14:50:59Z</time>
      </trkpt>
      <trkpt lat="45.78598" lon="2.9545">
        <ele>1072.49</ele>
        <time>2021-08-14T14:51:08Z</time>
      </trkpt>
      <trkpt lat="45.78598" lon="2.95452">
        <ele>1072.49</ele>
        <time>2021-08-14T14:51:09Z</time>
      </trkpt>
      <trkpt lat="45.78598" lon="2.95455">
        <ele>1072.49</ele>
        <time>2021-08-14T14:51:10Z</time>
      </trkpt>
      <trkpt lat="45.78598" lon="2.95457">
        <ele>1072.49</ele>
        <time>2021-08-14T14:51:11Z</time>
      </trkpt>
      <trkpt lat="45.78599" lon="2.9546">
        <ele>1072.49</ele>
        <time>2021-08-14T14:51:12Z</time>
      </trkpt>
      <trkpt lat="45.78599" lon="2.95462">
        <ele>1072.49</ele>
        <time>2021-08-14T14:51:13Z</time>
      </trkpt>
      <trkpt lat="45.786" lon="2.95465">
        <ele>1072.49</ele>
        <time>2021-08-14T14:51:14Z</time>
      </trkpt>
      <trkpt lat="45.786" lon="2.95468">
        <ele>1072.49</ele>
        <time>2021-08-14T14:51:15Z</time>
      </trkpt>
      <trkpt lat="45.78599" lon="2.95471">
        <ele>1072.49</ele>
        <time>2021-08-14T14:51:16Z</time>
      </trkpt>
      <trkpt lat="45.78599" lon="2.95475">
        <ele>1072.97</ele>
        <time>2021-08-14T14:51:17Z</time>
      </trkpt>
      <trkpt lat="45.78598" lon="2.95479">
        <ele>1072.97</ele>
        <time>2021-08-14T14:51:18Z</time>
      </trkpt>
      <trkpt lat="45.78597" lon="2.955">
        <ele>1072.97</ele>
        <time>2021-08-14T14:51:25Z</time>
      </trkpt>
      <trkpt lat="45.78596" lon="2.95511">
        <ele>1072.97</ele>
        <time>2021-08-14T14:51:28Z</time>
      </trkpt>
      <trkpt lat="45.78596" lon="2.95514">
        <ele>1072.97</ele>
        <time>2021-08-14T14:51:29Z</time>
      </trkpt>
      <trkpt lat="45.78596" lon="2.95526">
        <ele>1073.93</ele>
        <time>2021-08-14T14:51:33Z</time>
      </trkpt>
      <trkpt lat="45.78595" lon="2.9553">
        <ele>1073.93</ele>
        <time>2021-08-14T14:51:34Z</time>
      </trkpt>
      <trkpt lat="45.78595" lon="2.95532">
        <ele>1073.93</ele>
        <time>2021-08-14T14:51:35Z</time>
      </trkpt>
      <trkpt lat="45.78595" lon="2.95536">
        <ele>1073.93</ele>
        <time>2021-08-14T14:51:36Z</time>
      </trkpt>
      <trkpt lat="45.78595" lon="2.95539">
        <ele>1073.93</ele>
        <time>2021-08-14T14:51:37Z</time>
      </trkpt>
      <trkpt lat="45.78595" lon="2.95543">
        <ele>1073.93</ele>
        <time>2021-08-14T14:51:38Z</time>
      </trkpt>
      <trkpt lat="45.78594" lon="2.95547">
        <ele>1074.41</ele>
        <time>2021-08-14T14:51:39Z</time>
      </trkpt>
      <trkpt lat="45.78594" lon="2.95551">
        <ele>1074.41</ele>
        <time>2021-08-14T14:51:40Z</time>
      </trkpt>
      <trkpt lat="45.78593" lon="2.95556">
        <ele>1074.41</ele>
        <time>2021-08-14T14:51:41Z</time>
      </trkpt>
      <trkpt lat="45.78593" lon="2.9556">
        <ele>1074.41</ele>
        <time>2021-08-14T14:51:42Z</time>
      </trkpt>
      <trkpt lat="45.78592" lon="2.95564">
        <ele>1074.41</ele>
        <time>2021-08-14T14:51:43Z</time>
      </trkpt>
      <trkpt lat="45.78591" lon="2.95568">
        <ele>1074.41</ele>
        <time>2021-08-14T14:51:44Z</time>
      </trkpt>
      <trkpt lat="45.78588" lon="2.95593">
        <ele>1075.37</ele>
        <time>2021-08-14T14:51:51Z</time>
      </trkpt>
      <trkpt lat="45.78587" lon="2.95613">
        <ele>1075.85</ele>
        <time>2021-08-14T14:51:58Z</time>
      </trkpt>
      <trkpt lat="45.78587" lon="2.95638">
        <ele>1076.33</ele>
        <time>2021-08-14T14:52:05Z</time>
      </trkpt>
      <trkpt lat="45.78587" lon="2.95674">
        <ele>1077.29</ele>
        <time>2021-08-14T14:52:14Z</time>
      </trkpt>
      <trkpt lat="45.78587" lon="2.95698">
        <ele>1078.26</ele>
        <time>2021-08-14T14:52:21Z</time>
      </trkpt>
      <trkpt lat="45.78589" lon="2.95715">
        <ele>1078.74</ele>
        <time>2021-08-14T14:52:26Z</time>
      </trkpt>
      <trkpt lat="45.78589" lon="2.95718">
        <ele>1079.22</ele>
        <time>2021-08-14T14:52:27Z</time>
      </trkpt>
      <trkpt lat="45.78589" lon="2.95721">
        <ele>1079.22</ele>
        <time>2021-08-14T14:52:28Z</time>
      </trkpt>
      <trkpt lat="45.78589" lon="2.95724">
        <ele>1079.22</ele>
        <time>2021-08-14T14:52:29Z</time>
      </trkpt>
      <trkpt lat="45.78589" lon="2.95727">
        <ele>1079.22</ele>
        <time>2021-08-14T14:52:30Z</time>
      </trkpt>
      <trkpt lat="45.78589" lon="2.9573">
        <ele>1079.22</ele>
        <time>2021-08-14T14:52:31Z</time>
      </trkpt>
      <trkpt lat="45.7859" lon="2.95733">
        <ele>1079.22</ele>
        <time>2021-08-14T14:52:32Z</time>
      </trkpt>
      <trkpt lat="45.7859" lon="2.95736">
        <ele>1079.7</ele>
        <time>2021-08-14T14:52:33Z</time>
      </trkpt>
      <trkpt lat="45.78589" lon="2.95755">
        <ele>1080.18</ele>
        <time>2021-08-14T14:52:39Z</time>
      </trkpt>
      <trkpt lat="45.78588" lon="2.95787">
        <ele>1081.62</ele>
        <time>2021-08-14T14:52:50Z</time>
      </trkpt>
      <trkpt lat="45.78589" lon="2.95805">
        <ele>1082.58</ele>
        <time>2021-08-14T14:52:57Z</time>
      </trkpt>
      <trkpt lat="45.7859" lon="2.95822">
        <ele>1083.54</ele>
        <time>2021-08-14T14:53:04Z</time>
      </trkpt>
      <trkpt lat="45.7859" lon="2.95842">
        <ele>1084.5</ele>
        <time>2021-08-14T14:53:11Z</time>
      </trkpt>
      <trkpt lat="45.78589" lon="2.95844">
        <ele>1084.5</ele>
        <time>2021-08-14T14:53:12Z</time>
      </trkpt>
      <trkpt lat="45.78586" lon="2.95847">
        <ele>1084.99</ele>
        <time>2021-08-14T14:53:14Z</time>
      </trkpt>
      <trkpt lat="45.7857" lon="2.95848">
        <ele>1084.99</ele>
        <time>2021-08-14T14:53:22Z</time>
      </trkpt>
      <trkpt lat="45.78553" lon="2.95851">
        <ele>1084.99</ele>
        <time>2021-08-14T14:53:28Z</time>
      </trkpt>
      <trkpt lat="45.78532" lon="2.95853">
        <ele>1085.47</ele>
        <time>2021-08-14T14:53:35Z</time>
      </trkpt>
      <trkpt lat="45.78504" lon="2.95855">
        <ele>1085.47</ele>
        <time>2021-08-14T14:53:44Z</time>
      </trkpt>
      <trkpt lat="45.78477" lon="2.95856">
        <ele>1084.99</ele>
        <time>2021-08-14T14:53:54Z</time>
      </trkpt>
      <trkpt lat="45.78452" lon="2.95857">
        <ele>1084.99</ele>
        <time>2021-08-14T14:54:03Z</time>
      </trkpt>
      <trkpt lat="45.78428" lon="2.95853">
        <ele>1085.47</ele>
        <time>2021-08-14T14:54:11Z</time>
      </trkpt>
      <trkpt lat="45.78403" lon="2.95856">
        <ele>1085.47</ele>
        <time>2021-08-14T14:54:19Z</time>
      </trkpt>
      <trkpt lat="45.78382" lon="2.95857">
        <ele>1085.47</ele>
        <time>2021-08-14T14:54:25Z</time>
      </trkpt>
      <trkpt lat="45.78357" lon="2.95856">
        <ele>1085.47</ele>
        <time>2021-08-14T14:54:33Z</time>
      </trkpt>
      <trkpt lat="45.78322" lon="2.95851">
        <ele>1085.47</ele>
        <time>2021-08-14T14:54:44Z</time>
      </trkpt>
      <trkpt lat="45.78289" lon="2.9584">
        <ele>1084.02</ele>
        <time>2021-08-14T14:54:52Z</time>
      </trkpt>
      <trkpt lat="45.78251" lon="2.95827">
        <ele>1083.54</ele>
        <time>2021-08-14T14:55:01Z</time>
      </trkpt>
      <trkpt lat="45.78209" lon="2.95808">
        <ele>1083.54</ele>
        <time>2021-08-14T14:55:11Z</time>
      </trkpt>
      <trkpt lat="45.78206" lon="2.95806">
        <ele>1083.54</ele>
        <time>2021-08-14T14:55:12Z</time>
      </trkpt>
      <trkpt lat="45.78202" lon="2.95802">
        <ele>1083.54</ele>
        <time>2021-08-14T14:55:13Z</time>
      </trkpt>
      <trkpt lat="45.78196" lon="2.95794">
        <ele>1083.06</ele>
        <time>2021-08-14T14:55:15Z</time>
      </trkpt>
      <trkpt lat="45.78193" lon="2.95791">
        <ele>1083.06</ele>
        <time>2021-08-14T14:55:16Z</time>
      </trkpt>
      <trkpt lat="45.78191" lon="2.95786">
        <ele>1083.06</ele>
        <time>2021-08-14T14:55:17Z</time>
      </trkpt>
      <trkpt lat="45.78188" lon="2.95781">
        <ele>1083.06</ele>
        <time>2021-08-14T14:55:18Z</time>
      </trkpt>
      <trkpt lat="45.78186" lon="2.95776">
        <ele>1083.06</ele>
        <time>2021-08-14T14:55:19Z</time>
      </trkpt>
      <trkpt lat="45.78161" lon="2.95733">
        <ele>1082.58</ele>
        <time>2021-08-14T14:55:28Z</time>
      </trkpt>
      <trkpt lat="45.78147" lon="2.95701">
        <ele>1082.58</ele>
        <time>2021-08-14T14:55:35Z</time>
      </trkpt>
      <trkpt lat="45.78139" lon="2.95676">
        <ele>1084.02</ele>
        <time>2021-08-14T14:55:42Z</time>
      </trkpt>
      <trkpt lat="45.78139" lon="2.9567">
        <ele>1084.02</ele>
        <time>2021-08-14T14:55:44Z</time>
      </trkpt>
      <trkpt lat="45.78139" lon="2.95667">
        <ele>1084.02</ele>
        <time>2021-08-14T14:55:45Z</time>
      </trkpt>
      <trkpt lat="45.78139" lon="2.95663">
        <ele>1084.02</ele>
        <time>2021-08-14T14:55:46Z</time>
      </trkpt>
      <trkpt lat="45.78138" lon="2.9566">
        <ele>1084.5</ele>
        <time>2021-08-14T14:55:47Z</time>
      </trkpt>
      <trkpt lat="45.78137" lon="2.95657">
        <ele>1084.5</ele>
        <time>2021-08-14T14:55:48Z</time>
      </trkpt>
      <trkpt lat="45.78136" lon="2.95654">
        <ele>1084.5</ele>
        <time>2021-08-14T14:55:49Z</time>
      </trkpt>
      <trkpt lat="45.78135" lon="2.95651">
        <ele>1084.99</ele>
        <time>2021-08-14T14:55:50Z</time>
      </trkpt>
      <trkpt lat="45.78127" lon="2.95633">
        <ele>1085.47</ele>
        <time>2021-08-14T14:55:57Z</time>
      </trkpt>
      <trkpt lat="45.78126" lon="2.95631">
        <ele>1085.47</ele>
        <time>2021-08-14T14:55:58Z</time>
      </trkpt>
      <trkpt lat="45.78119" lon="2.95609">
        <ele>1086.43</ele>
        <time>2021-08-14T14:56:06Z</time>
      </trkpt>
      <trkpt lat="45.78109" lon="2.95592">
        <ele>1087.39</ele>
        <time>2021-08-14T14:56:14Z</time>
      </trkpt>
      <trkpt lat="45.78102" lon="2.95576">
        <ele>1087.87</ele>
        <time>2021-08-14T14:56:21Z</time>
      </trkpt>
      <trkpt lat="45.78095" lon="2.95563">
        <ele>1087.87</ele>
        <time>2021-08-14T14:56:26Z</time>
      </trkpt>
      <trkpt lat="45.78094" lon="2.95561">
        <ele>1087.87</ele>
        <time>2021-08-14T14:56:27Z</time>
      </trkpt>
      <trkpt lat="45.78094" lon="2.95555">
        <ele>1088.35</ele>
        <time>2021-08-14T14:56:33Z</time>
      </trkpt>
      <trkpt lat="45.78091" lon="2.95545">
        <ele>1088.35</ele>
        <time>2021-08-14T14:56:38Z</time>
      </trkpt>
      <trkpt lat="45.7809" lon="2.9554">
        <ele>1088.35</ele>
        <time>2021-08-14T14:56:40Z</time>
      </trkpt>
      <trkpt lat="45.78088" lon="2.95538">
        <ele>1088.35</ele>
        <time>2021-08-14T14:56:41Z</time>
      </trkpt>
      <trkpt lat="45.78087" lon="2.95537">
        <ele>1088.35</ele>
        <time>2021-08-14T14:56:42Z</time>
      </trkpt>
      <trkpt lat="45.78083" lon="2.95536">
        <ele>1088.35</ele>
        <time>2021-08-14T14:56:44Z</time>
      </trkpt>
      <trkpt lat="45.78081" lon="2.95532">
        <ele>1087.87</ele>
        <time>2021-08-14T14:56:45Z</time>
      </trkpt>
      <trkpt lat="45.78079" lon="2.9553">
        <ele>1087.87</ele>
        <time>2021-08-14T14:56:46Z</time>
      </trkpt>
      <trkpt lat="45.78078" lon="2.95526">
        <ele>1087.87</ele>
        <time>2021-08-14T14:56:47Z</time>
      </trkpt>
      <trkpt lat="45.78076" lon="2.95522">
        <ele>1087.87</ele>
        <time>2021-08-14T14:56:48Z</time>
      </trkpt>
      <trkpt lat="45.78072" lon="2.95509">
        <ele>1086.91</ele>
        <time>2021-08-14T14:56:51Z</time>
      </trkpt>
      <trkpt lat="45.78066" lon="2.95492">
        <ele>1086.43</ele>
        <time>2021-08-14T14:56:55Z</time>
      </trkpt>
      <trkpt lat="45.78059" lon="2.95465">
        <ele>1085.95</ele>
        <time>2021-08-14T14:57:00Z</time>
      </trkpt>
      <trkpt lat="45.78048" lon="2.95437">
        <ele>1085.47</ele>
        <time>2021-08-14T14:57:06Z</time>
      </trkpt>
      <trkpt lat="45.78043" lon="2.95422">
        <ele>1083.54</ele>
        <time>2021-08-14T14:57:12Z</time>
      </trkpt>
      <trkpt lat="45.78029" lon="2.954">
        <ele>1081.14</ele>
        <time>2021-08-14T14:57:18Z</time>
      </trkpt>
      <trkpt lat="45.78012" lon="2.9538">
        <ele>1077.78</ele>
        <time>2021-08-14T14:57:24Z</time>
      </trkpt>
      <trkpt lat="45.78005" lon="2.95374">
        <ele>1076.81</ele>
        <time>2021-08-14T14:57:26Z</time>
      </trkpt>
      <trkpt lat="45.77991" lon="2.95361">
        <ele>1074.89</ele>
        <time>2021-08-14T14:57:29Z</time>
      </trkpt>
      <trkpt lat="45.77986" lon="2.95358">
        <ele>1074.89</ele>
        <time>2021-08-14T14:57:30Z</time>
      </trkpt>
      <trkpt lat="45.77962" lon="2.95342">
        <ele>1073.93</ele>
        <time>2021-08-14T14:57:36Z</time>
      </trkpt>
      <trkpt lat="45.77944" lon="2.9533">
        <ele>1073.45</ele>
        <time>2021-08-14T14:57:42Z</time>
      </trkpt>
      <trkpt lat="45.77938" lon="2.95325">
        <ele>1073.45</ele>
        <time>2021-08-14T14:57:45Z</time>
      </trkpt>
      <trkpt lat="45.77937" lon="2.95323">
        <ele>1073.45</ele>
        <time>2021-08-14T14:57:46Z</time>
      </trkpt>
      <trkpt lat="45.77935" lon="2.95321">
        <ele>1073.45</ele>
        <time>2021-08-14T14:57:47Z</time>
      </trkpt>
      <trkpt lat="45.77933" lon="2.95318">
        <ele>1073.45</ele>
        <time>2021-08-14T14:57:48Z</time>
      </trkpt>
      <trkpt lat="45.7793" lon="2.95316">
        <ele>1073.45</ele>
        <time>2021-08-14T14:57:49Z</time>
      </trkpt>
      <trkpt lat="45.77928" lon="2.95314">
        <ele>1073.45</ele>
        <time>2021-08-14T14:57:50Z</time>
      </trkpt>
      <trkpt lat="45.77925" lon="2.95312">
        <ele>1073.45</ele>
        <time>2021-08-14T14:57:51Z</time>
      </trkpt>
      <trkpt lat="45.77923" lon="2.95311">
        <ele>1073.45</ele>
        <time>2021-08-14T14:57:52Z</time>
      </trkpt>
      <trkpt lat="45.7792" lon="2.95309">
        <ele>1073.45</ele>
        <time>2021-08-14T14:57:53Z</time>
      </trkpt>
      <trkpt lat="45.77918" lon="2.95308">
        <ele>1073.45</ele>
        <time>2021-08-14T14:57:54Z</time>
      </trkpt>
      <trkpt lat="45.77916" lon="2.95306">
        <ele>1073.45</ele>
        <time>2021-08-14T14:57:55Z</time>
      </trkpt>
      <trkpt lat="45.77914" lon="2.95305">
        <ele>1073.45</ele>
        <time>2021-08-14T14:57:56Z</time>
      </trkpt>
      <trkpt lat="45.77912" lon="2.95304">
        <ele>1073.45</ele>
        <time>2021-08-14T14:57:57Z</time>
      </trkpt>
      <trkpt lat="45.77901" lon="2.95297">
        <ele>1074.89</ele>
        <time>2021-08-14T14:58:03Z</time>
      </trkpt>
      <trkpt lat="45.77888" lon="2.95285">
        <ele>1075.85</ele>
        <time>2021-08-14T14:58:10Z</time>
      </trkpt>
      <trkpt lat="45.7788" lon="2.95281">
        <ele>1075.85</ele>
        <time>2021-08-14T14:58:14Z</time>
      </trkpt>
      <trkpt lat="45.77864" lon="2.95278">
        <ele>1076.81</ele>
        <time>2021-08-14T14:58:21Z</time>
      </trkpt>
      <trkpt lat="45.77852" lon="2.95275">
        <ele>1077.78</ele>
        <time>2021-08-14T14:58:27Z</time>
      </trkpt>
      <trkpt lat="45.7784" lon="2.95269">
        <ele>1078.74</ele>
        <time>2021-08-14T14:58:35Z</time>
      </trkpt>
      <trkpt lat="45.77837" lon="2.95268">
        <ele>1078.74</ele>
        <time>2021-08-14T14:58:37Z</time>
      </trkpt>
      <trkpt lat="45.77836" lon="2.95266">
        <ele>1079.22</ele>
        <time>2021-08-14T14:58:38Z</time>
      </trkpt>
      <trkpt lat="45.77834" lon="2.95265">
        <ele>1079.22</ele>
        <time>2021-08-14T14:58:39Z</time>
      </trkpt>
      <trkpt lat="45.77832" lon="2.95265">
        <ele>1079.22</ele>
        <time>2021-08-14T14:58:40Z</time>
      </trkpt>
      <trkpt lat="45.77831" lon="2.95264">
        <ele>1079.22</ele>
        <time>2021-08-14T14:58:41Z</time>
      </trkpt>
      <trkpt lat="45.77827" lon="2.95262">
        <ele>1079.7</ele>
        <time>2021-08-14T14:58:44Z</time>
      </trkpt>
      <trkpt lat="45.77825" lon="2.95262">
        <ele>1079.7</ele>
        <time>2021-08-14T14:58:45Z</time>
      </trkpt>
      <trkpt lat="45.77821" lon="2.95263">
        <ele>1079.7</ele>
        <time>2021-08-14T14:58:48Z</time>
      </trkpt>
      <trkpt lat="45.7782" lon="2.95262">
        <ele>1079.7</ele>
        <time>2021-08-14T14:58:49Z</time>
      </trkpt>
      <trkpt lat="45.77807" lon="2.95259">
        <ele>1080.66</ele>
        <time>2021-08-14T14:58:57Z</time>
      </trkpt>
      <trkpt lat="45.77795" lon="2.95256">
        <ele>1081.62</ele>
        <time>2021-08-14T14:59:04Z</time>
      </trkpt>
      <trkpt lat="45.7779" lon="2.95254">
        <ele>1081.62</ele>
        <time>2021-08-14T14:59:07Z</time>
      </trkpt>
      <trkpt lat="45.77788" lon="2.95253">
        <ele>1081.62</ele>
        <time>2021-08-14T14:59:08Z</time>
      </trkpt>
      <trkpt lat="45.77786" lon="2.95253">
        <ele>1082.1</ele>
        <time>2021-08-14T14:59:09Z</time>
      </trkpt>
      <trkpt lat="45.77784" lon="2.95252">
        <ele>1082.1</ele>
        <time>2021-08-14T14:59:10Z</time>
      </trkpt>
      <trkpt lat="45.77782" lon="2.95251">
        <ele>1082.1</ele>
        <time>2021-08-14T14:59:11Z</time>
      </trkpt>
      <trkpt lat="45.77779" lon="2.95251">
        <ele>1082.1</ele>
        <time>2021-08-14T14:59:12Z</time>
      </trkpt>
      <trkpt lat="45.77776" lon="2.9525">
        <ele>1082.1</ele>
        <time>2021-08-14T14:59:13Z</time>
      </trkpt>
      <trkpt lat="45.77775" lon="2.95249">
        <ele>1082.58</ele>
        <time>2021-08-14T14:59:14Z</time>
      </trkpt>
      <trkpt lat="45.77773" lon="2.95249">
        <ele>1082.58</ele>
        <time>2021-08-14T14:59:15Z</time>
      </trkpt>
      <trkpt lat="45.77762" lon="2.95245">
        <ele>1083.06</ele>
        <time>2021-08-14T14:59:21Z</time>
      </trkpt>
      <trkpt lat="45.7775" lon="2.95239">
        <ele>1083.54</ele>
        <time>2021-08-14T14:59:27Z</time>
      </trkpt>
      <trkpt lat="45.77731" lon="2.95233">
        <ele>1084.02</ele>
        <time>2021-08-14T14:59:34Z</time>
      </trkpt>
      <trkpt lat="45.77729" lon="2.95233">
        <ele>1084.5</ele>
        <time>2021-08-14T14:59:40Z</time>
      </trkpt>
      <trkpt lat="45.77725" lon="2.95234">
        <ele>1084.99</ele>
        <time>2021-08-14T14:59:53Z</time>
      </trkpt>
      <trkpt lat="45.77714" lon="2.95232">
        <ele>1084.99</ele>
        <time>2021-08-14T14:59:57Z</time>
      </trkpt>
      <trkpt lat="45.7771" lon="2.95233">
        <ele>1083.54</ele>
        <time>2021-08-14T14:59:58Z</time>
      </trkpt>
      <trkpt lat="45.77708" lon="2.95234">
        <ele>1083.54</ele>
        <time>2021-08-14T14:59:59Z</time>
      </trkpt>
      <trkpt lat="45.77705" lon="2.95236">
        <ele>1083.54</ele>
        <time>2021-08-14T15:00:00Z</time>
      </trkpt>
      <trkpt lat="45.77701" lon="2.95238">
        <ele>1082.58</ele>
        <time>2021-08-14T15:00:02Z</time>
      </trkpt>
      <trkpt lat="45.77695" lon="2.9524">
        <ele>1082.58</ele>
        <time>2021-08-14T15:00:03Z</time>
      </trkpt>
      <trkpt lat="45.7769" lon="2.95241">
        <ele>1082.1</ele>
        <time>2021-08-14T15:00:04Z</time>
      </trkpt>
      <trkpt lat="45.77682" lon="2.95246">
        <ele>1081.14</ele>
        <time>2021-08-14T15:00:06Z</time>
      </trkpt>
      <trkpt lat="45.77673" lon="2.95251">
        <ele>1079.7</ele>
        <time>2021-08-14T15:00:08Z</time>
      </trkpt>
      <trkpt lat="45.77657" lon="2.95257">
        <ele>1078.74</ele>
        <time>2021-08-14T15:00:11Z</time>
      </trkpt>
      <trkpt lat="45.77652" lon="2.95259">
        <ele>1077.78</ele>
        <time>2021-08-14T15:00:12Z</time>
      </trkpt>
      <trkpt lat="45.77646" lon="2.95262">
        <ele>1077.29</ele>
        <time>2021-08-14T15:00:13Z</time>
      </trkpt>
      <trkpt lat="45.77642" lon="2.95265">
        <ele>1077.29</ele>
        <time>2021-08-14T15:00:14Z</time>
      </trkpt>
      <trkpt lat="45.77636" lon="2.95267">
        <ele>1076.33</ele>
        <time>2021-08-14T15:00:15Z</time>
      </trkpt>
      <trkpt lat="45.7763" lon="2.95269">
        <ele>1076.33</ele>
        <time>2021-08-14T15:00:16Z</time>
      </trkpt>
      <trkpt lat="45.77625" lon="2.95271">
        <ele>1075.37</ele>
        <time>2021-08-14T15:00:17Z</time>
      </trkpt>
      <trkpt lat="45.7762" lon="2.95274">
        <ele>1074.89</ele>
        <time>2021-08-14T15:00:18Z</time>
      </trkpt>
      <trkpt lat="45.77615" lon="2.95278">
        <ele>1074.41</ele>
        <time>2021-08-14T15:00:19Z</time>
      </trkpt>
      <trkpt lat="45.7761" lon="2.9528">
        <ele>1074.41</ele>
        <time>2021-08-14T15:00:20Z</time>
      </trkpt>
      <trkpt lat="45.77605" lon="2.95281">
        <ele>1073.45</ele>
        <time>2021-08-14T15:00:21Z</time>
      </trkpt>
      <trkpt lat="45.77602" lon="2.95282">
        <ele>1073.45</ele>
        <time>2021-08-14T15:00:22Z</time>
      </trkpt>
      <trkpt lat="45.77599" lon="2.95282">
        <ele>1072.97</ele>
        <time>2021-08-14T15:00:23Z</time>
      </trkpt>
      <trkpt lat="45.77597" lon="2.95283">
        <ele>1072.97</ele>
        <time>2021-08-14T15:00:24Z</time>
      </trkpt>
      <trkpt lat="45.77581" lon="2.95276">
        <ele>1071.53</ele>
        <time>2021-08-14T15:00:29Z</time>
      </trkpt>
      <trkpt lat="45.77567" lon="2.95258">
        <ele>1070.57</ele>
        <time>2021-08-14T15:00:33Z</time>
      </trkpt>
      <trkpt lat="45.77564" lon="2.95253">
        <ele>1070.57</ele>
        <time>2021-08-14T15:00:34Z</time>
      </trkpt>
      <trkpt lat="45.77545" lon="2.95229">
        <ele>1068.64</ele>
        <time>2021-08-14T15:00:39Z</time>
      </trkpt>
      <trkpt lat="45.7754" lon="2.95226">
        <ele>1068.16</ele>
        <time>2021-08-14T15:00:40Z</time>
      </trkpt>
      <trkpt lat="45.77519" lon="2.95216">
        <ele>1068.16</ele>
        <time>2021-08-14T15:00:45Z</time>
      </trkpt>
      <trkpt lat="45.77503" lon="2.95211">
        <ele>1069.6</ele>
        <time>2021-08-14T15:00:49Z</time>
      </trkpt>
      <trkpt lat="45.77484" lon="2.95206">
        <ele>1070.57</ele>
        <time>2021-08-14T15:00:55Z</time>
      </trkpt>
      <trkpt lat="45.77473" lon="2.95203">
        <ele>1071.53</ele>
        <time>2021-08-14T15:01:00Z</time>
      </trkpt>
      <trkpt lat="45.77462" lon="2.952">
        <ele>1072.97</ele>
        <time>2021-08-14T15:01:06Z</time>
      </trkpt>
      <trkpt lat="45.77447" lon="2.95196">
        <ele>1073.45</ele>
        <time>2021-08-14T15:01:13Z</time>
      </trkpt>
      <trkpt lat="45.77436" lon="2.95192">
        <ele>1074.41</ele>
        <time>2021-08-14T15:01:19Z</time>
      </trkpt>
      <trkpt lat="45.77425" lon="2.95188">
        <ele>1075.37</ele>
        <time>2021-08-14T15:01:25Z</time>
      </trkpt>
      <trkpt lat="45.77423" lon="2.95187">
        <ele>1075.37</ele>
        <time>2021-08-14T15:01:26Z</time>
      </trkpt>
      <trkpt lat="45.77421" lon="2.95187">
        <ele>1075.85</ele>
        <time>2021-08-14T15:01:27Z</time>
      </trkpt>
      <trkpt lat="45.77419" lon="2.95187">
        <ele>1075.85</ele>
        <time>2021-08-14T15:01:28Z</time>
      </trkpt>
      <trkpt lat="45.77417" lon="2.95187">
        <ele>1075.85</ele>
        <time>2021-08-14T15:01:29Z</time>
      </trkpt>
      <trkpt lat="45.77415" lon="2.95187">
        <ele>1075.85</ele>
        <time>2021-08-14T15:01:30Z</time>
      </trkpt>
      <trkpt lat="45.77402" lon="2.95186">
        <ele>1076.33</ele>
        <time>2021-08-14T15:01:37Z</time>
      </trkpt>
      <trkpt lat="45.77389" lon="2.95186">
        <ele>1076.81</ele>
        <time>2021-08-14T15:01:44Z</time>
      </trkpt>
      <trkpt lat="45.77376" lon="2.95188">
        <ele>1077.78</ele>
        <time>2021-08-14T15:01:51Z</time>
      </trkpt>
      <trkpt lat="45.77363" lon="2.95192">
        <ele>1078.26</ele>
        <time>2021-08-14T15:01:59Z</time>
      </trkpt>
      <trkpt lat="45.77357" lon="2.95194">
        <ele>1078.74</ele>
        <time>2021-08-14T15:02:02Z</time>
      </trkpt>
      <trkpt lat="45.77356" lon="2.95194">
        <ele>1078.74</ele>
        <time>2021-08-14T15:02:03Z</time>
      </trkpt>
      <trkpt lat="45.77353" lon="2.95195">
        <ele>1078.74</ele>
        <time>2021-08-14T15:02:04Z</time>
      </trkpt>
      <trkpt lat="45.77351" lon="2.95195">
        <ele>1078.74</ele>
        <time>2021-08-14T15:02:05Z</time>
      </trkpt>
      <trkpt lat="45.77349" lon="2.95195">
        <ele>1078.74</ele>
        <time>2021-08-14T15:02:06Z</time>
      </trkpt>
      <trkpt lat="45.77347" lon="2.95195">
        <ele>1078.74</ele>
        <time>2021-08-14T15:02:07Z</time>
      </trkpt>
      <trkpt lat="45.77345" lon="2.95195">
        <ele>1079.22</ele>
        <time>2021-08-14T15:02:08Z</time>
      </trkpt>
      <trkpt lat="45.77344" lon="2.95195">
        <ele>1079.22</ele>
        <time>2021-08-14T15:02:09Z</time>
      </trkpt>
      <trkpt lat="45.7733" lon="2.95195">
        <ele>1079.7</ele>
        <time>2021-08-14T15:02:17Z</time>
      </trkpt>
      <trkpt lat="45.77315" lon="2.95196">
        <ele>1080.66</ele>
        <time>2021-08-14T15:02:25Z</time>
      </trkpt>
      <trkpt lat="45.773" lon="2.95198">
        <ele>1081.62</ele>
        <time>2021-08-14T15:02:32Z</time>
      </trkpt>
      <trkpt lat="45.77286" lon="2.952">
        <ele>1082.58</ele>
        <time>2021-08-14T15:02:39Z</time>
      </trkpt>
      <trkpt lat="45.77281" lon="2.952">
        <ele>1083.06</ele>
        <time>2021-08-14T15:02:42Z</time>
      </trkpt>
      <trkpt lat="45.77279" lon="2.952">
        <ele>1083.06</ele>
        <time>2021-08-14T15:02:43Z</time>
      </trkpt>
      <trkpt lat="45.77278" lon="2.95199">
        <ele>1083.06</ele>
        <time>2021-08-14T15:02:44Z</time>
      </trkpt>
      <trkpt lat="45.77276" lon="2.95199">
        <ele>1083.54</ele>
        <time>2021-08-14T15:02:45Z</time>
      </trkpt>
      <trkpt lat="45.77274" lon="2.952">
        <ele>1083.54</ele>
        <time>2021-08-14T15:02:46Z</time>
      </trkpt>
      <trkpt lat="45.77271" lon="2.95199">
        <ele>1084.02</ele>
        <time>2021-08-14T15:02:48Z</time>
      </trkpt>
      <trkpt lat="45.77269" lon="2.95199">
        <ele>1084.5</ele>
        <time>2021-08-14T15:02:49Z</time>
      </trkpt>
      <trkpt lat="45.77259" lon="2.95198">
        <ele>1085.95</ele>
        <time>2021-08-14T15:02:55Z</time>
      </trkpt>
      <trkpt lat="45.77247" lon="2.95204">
        <ele>1086.43</ele>
        <time>2021-08-14T15:03:03Z</time>
      </trkpt>
      <trkpt lat="45.77244" lon="2.95205">
        <ele>1086.43</ele>
        <time>2021-08-14T15:03:05Z</time>
      </trkpt>
      <trkpt lat="45.77231" lon="2.9521">
        <ele>1086.43</ele>
        <time>2021-08-14T15:03:12Z</time>
      </trkpt>
      <trkpt lat="45.77218" lon="2.95214">
        <ele>1087.87</ele>
        <time>2021-08-14T15:03:20Z</time>
      </trkpt>
      <trkpt lat="45.77202" lon="2.95219">
        <ele>1088.83</ele>
        <time>2021-08-14T15:03:26Z</time>
      </trkpt>
      <trkpt lat="45.77187" lon="2.95225">
        <ele>1089.79</ele>
        <time>2021-08-14T15:03:34Z</time>
      </trkpt>
      <trkpt lat="45.77177" lon="2.95226">
        <ele>1090.75</ele>
        <time>2021-08-14T15:03:42Z</time>
      </trkpt>
      <trkpt lat="45.77165" lon="2.95227">
        <ele>1091.23</ele>
        <time>2021-08-14T15:03:49Z</time>
      </trkpt>
      <trkpt lat="45.77155" lon="2.95229">
        <ele>1092.68</ele>
        <time>2021-08-14T15:03:57Z</time>
      </trkpt>
      <trkpt lat="45.77149" lon="2.95234">
        <ele>1092.68</ele>
        <time>2021-08-14T15:04:05Z</time>
      </trkpt>
      <trkpt lat="45.77142" lon="2.95237">
        <ele>1094.12</ele>
        <time>2021-08-14T15:04:12Z</time>
      </trkpt>
      <trkpt lat="45.77132" lon="2.95242">
        <ele>1095.56</ele>
        <time>2021-08-14T15:04:20Z</time>
      </trkpt>
      <trkpt lat="45.77122" lon="2.95246">
        <ele>1096.52</ele>
        <time>2021-08-14T15:04:28Z</time>
      </trkpt>
      <trkpt lat="45.77117" lon="2.9525">
        <ele>1097</ele>
        <time>2021-08-14T15:04:33Z</time>
      </trkpt>
      <trkpt lat="45.77116" lon="2.95251">
        <ele>1097</ele>
        <time>2021-08-14T15:04:34Z</time>
      </trkpt>
      <trkpt lat="45.77115" lon="2.95252">
        <ele>1097</ele>
        <time>2021-08-14T15:04:35Z</time>
      </trkpt>
      <trkpt lat="45.77113" lon="2.95253">
        <ele>1097</ele>
        <time>2021-08-14T15:04:36Z</time>
      </trkpt>
      <trkpt lat="45.77112" lon="2.95254">
        <ele>1097</ele>
        <time>2021-08-14T15:04:37Z</time>
      </trkpt>
      <trkpt lat="45.77103" lon="2.95261">
        <ele>1097.48</ele>
        <time>2021-08-14T15:04:44Z</time>
      </trkpt>
      <trkpt lat="45.77089" lon="2.95269">
        <ele>1098.44</ele>
        <time>2021-08-14T15:04:52Z</time>
      </trkpt>
      <trkpt lat="45.77079" lon="2.95276">
        <ele>1099.4</ele>
        <time>2021-08-14T15:04:59Z</time>
      </trkpt>
      <trkpt lat="45.77068" lon="2.95284">
        <ele>1099.89</ele>
        <time>2021-08-14T15:05:05Z</time>
      </trkpt>
      <trkpt lat="45.77057" lon="2.95286">
        <ele>1100.37</ele>
        <time>2021-08-14T15:05:11Z</time>
      </trkpt>
      <trkpt lat="45.77046" lon="2.95293">
        <ele>1100.37</ele>
        <time>2021-08-14T15:05:18Z</time>
      </trkpt>
      <trkpt lat="45.77033" lon="2.953">
        <ele>1100.37</ele>
        <time>2021-08-14T15:05:25Z</time>
      </trkpt>
      <trkpt lat="45.77031" lon="2.95303">
        <ele>1100.85</ele>
        <time>2021-08-14T15:05:27Z</time>
      </trkpt>
      <trkpt lat="45.77029" lon="2.95304">
        <ele>1100.85</ele>
        <time>2021-08-14T15:05:28Z</time>
      </trkpt>
      <trkpt lat="45.77026" lon="2.95306">
        <ele>1101.33</ele>
        <time>2021-08-14T15:05:29Z</time>
      </trkpt>
      <trkpt lat="45.77024" lon="2.95307">
        <ele>1101.33</ele>
        <time>2021-08-14T15:05:30Z</time>
      </trkpt>
      <trkpt lat="45.77022" lon="2.95308">
        <ele>1101.33</ele>
        <time>2021-08-14T15:05:31Z</time>
      </trkpt>
      <trkpt lat="45.7702" lon="2.95308">
        <ele>1101.33</ele>
        <time>2021-08-14T15:05:32Z</time>
      </trkpt>
      <trkpt lat="45.77017" lon="2.95309">
        <ele>1101.33</ele>
        <time>2021-08-14T15:05:33Z</time>
      </trkpt>
      <trkpt lat="45.77015" lon="2.95309">
        <ele>1101.33</ele>
        <time>2021-08-14T15:05:34Z</time>
      </trkpt>
      <trkpt lat="45.77011" lon="2.95311">
        <ele>1101.33</ele>
        <time>2021-08-14T15:05:39Z</time>
      </trkpt>
      <trkpt lat="45.77005" lon="2.95314">
        <ele>1101.33</ele>
        <time>2021-08-14T15:05:53Z</time>
      </trkpt>
      <trkpt lat="45.77005" lon="2.95315">
        <ele>1101.33</ele>
        <time>2021-08-14T15:06:12Z</time>
      </trkpt>
      <trkpt lat="45.77003" lon="2.95312">
        <ele>1101.33</ele>
        <time>2021-08-14T15:06:29Z</time>
      </trkpt>
      <trkpt lat="45.76993" lon="2.95315">
        <ele>1100.85</ele>
        <time>2021-08-14T15:06:34Z</time>
      </trkpt>
      <trkpt lat="45.76982" lon="2.95318">
        <ele>1098.92</ele>
        <time>2021-08-14T15:06:37Z</time>
      </trkpt>
      <trkpt lat="45.76965" lon="2.95326">
        <ele>1096.52</ele>
        <time>2021-08-14T15:06:41Z</time>
      </trkpt>
      <trkpt lat="45.76947" lon="2.95333">
        <ele>1095.08</ele>
        <time>2021-08-14T15:06:44Z</time>
      </trkpt>
      <trkpt lat="45.76931" lon="2.95345">
        <ele>1094.12</ele>
        <time>2021-08-14T15:06:47Z</time>
      </trkpt>
      <trkpt lat="45.76896" lon="2.95365">
        <ele>1093.16</ele>
        <time>2021-08-14T15:06:53Z</time>
      </trkpt>
      <trkpt lat="45.76891" lon="2.95367">
        <ele>1093.16</ele>
        <time>2021-08-14T15:06:54Z</time>
      </trkpt>
      <trkpt lat="45.76863" lon="2.95375">
        <ele>1093.16</ele>
        <time>2021-08-14T15:07:00Z</time>
      </trkpt>
      <trkpt lat="45.76846" lon="2.95385">
        <ele>1093.16</ele>
        <time>2021-08-14T15:07:05Z</time>
      </trkpt>
      <trkpt lat="45.76823" lon="2.95398">
        <ele>1093.16</ele>
        <time>2021-08-14T15:07:11Z</time>
      </trkpt>
      <trkpt lat="45.768" lon="2.95406">
        <ele>1091.71</ele>
        <time>2021-08-14T15:07:17Z</time>
      </trkpt>
      <trkpt lat="45.76772" lon="2.95404">
        <ele>1089.31</ele>
        <time>2021-08-14T15:07:23Z</time>
      </trkpt>
      <trkpt lat="45.76766" lon="2.95403">
        <ele>1088.83</ele>
        <time>2021-08-14T15:07:24Z</time>
      </trkpt>
      <trkpt lat="45.76761" lon="2.95403">
        <ele>1088.83</ele>
        <time>2021-08-14T15:07:25Z</time>
      </trkpt>
      <trkpt lat="45.76755" lon="2.95403">
        <ele>1088.83</ele>
        <time>2021-08-14T15:07:26Z</time>
      </trkpt>
      <trkpt lat="45.76743" lon="2.95403">
        <ele>1088.83</ele>
        <time>2021-08-14T15:07:28Z</time>
      </trkpt>
      <trkpt lat="45.76711" lon="2.95409">
        <ele>1088.83</ele>
        <time>2021-08-14T15:07:34Z</time>
      </trkpt>
      <trkpt lat="45.76706" lon="2.95409">
        <ele>1088.35</ele>
        <time>2021-08-14T15:07:35Z</time>
      </trkpt>
      <trkpt lat="45.767" lon="2.9541">
        <ele>1087.87</ele>
        <time>2021-08-14T15:07:36Z</time>
      </trkpt>
      <trkpt lat="45.7666" lon="2.95423">
        <ele>1087.39</ele>
        <time>2021-08-14T15:07:42Z</time>
      </trkpt>
      <trkpt lat="45.76632" lon="2.95444">
        <ele>1089.31</ele>
        <time>2021-08-14T15:07:48Z</time>
      </trkpt>
      <trkpt lat="45.76621" lon="2.95456">
        <ele>1091.71</ele>
        <time>2021-08-14T15:07:53Z</time>
      </trkpt>
      <trkpt lat="45.76612" lon="2.9547">
        <ele>1092.68</ele>
        <time>2021-08-14T15:08:00Z</time>
      </trkpt>
      <trkpt lat="45.76597" lon="2.95478">
        <ele>1092.68</ele>
        <time>2021-08-14T15:08:05Z</time>
      </trkpt>
      <trkpt lat="45.76584" lon="2.95482">
        <ele>1088.35</ele>
        <time>2021-08-14T15:08:09Z</time>
      </trkpt>
      <trkpt lat="45.7658" lon="2.95483">
        <ele>1088.35</ele>
        <time>2021-08-14T15:08:10Z</time>
      </trkpt>
      <trkpt lat="45.76549" lon="2.95496">
        <ele>1088.35</ele>
        <time>2021-08-14T15:08:16Z</time>
      </trkpt>
      <trkpt lat="45.76531" lon="2.95503">
        <ele>1089.79</ele>
        <time>2021-08-14T15:08:21Z</time>
      </trkpt>
      <trkpt lat="45.76529" lon="2.95505">
        <ele>1089.79</ele>
        <time>2021-08-14T15:08:22Z</time>
      </trkpt>
      <trkpt lat="45.76509" lon="2.95515">
        <ele>1089.79</ele>
        <time>2021-08-14T15:08:28Z</time>
      </trkpt>
      <trkpt lat="45.76484" lon="2.95523">
        <ele>1090.75</ele>
        <time>2021-08-14T15:08:34Z</time>
      </trkpt>
      <trkpt lat="45.76462" lon="2.9553">
        <ele>1092.2</ele>
        <time>2021-08-14T15:08:40Z</time>
      </trkpt>
      <trkpt lat="45.76452" lon="2.95537">
        <ele>1092.68</ele>
        <time>2021-08-14T15:08:44Z</time>
      </trkpt>
      <trkpt lat="45.76451" lon="2.95539">
        <ele>1093.16</ele>
        <time>2021-08-14T15:08:45Z</time>
      </trkpt>
      <trkpt lat="45.76449" lon="2.9554">
        <ele>1093.64</ele>
        <time>2021-08-14T15:08:46Z</time>
      </trkpt>
      <trkpt lat="45.76447" lon="2.9554">
        <ele>1093.16</ele>
        <time>2021-08-14T15:08:47Z</time>
      </trkpt>
      <trkpt lat="45.76445" lon="2.9554">
        <ele>1093.16</ele>
        <time>2021-08-14T15:08:48Z</time>
      </trkpt>
      <trkpt lat="45.76444" lon="2.9554">
        <ele>1093.16</ele>
        <time>2021-08-14T15:08:49Z</time>
      </trkpt>
      <trkpt lat="45.76439" lon="2.95541">
        <ele>1093.16</ele>
        <time>2021-08-14T15:08:55Z</time>
      </trkpt>
      <trkpt lat="45.76428" lon="2.95545">
        <ele>1091.71</ele>
        <time>2021-08-14T15:09:01Z</time>
      </trkpt>
      <trkpt lat="45.76426" lon="2.95545">
        <ele>1091.71</ele>
        <time>2021-08-14T15:09:02Z</time>
      </trkpt>
      <trkpt lat="45.76411" lon="2.95545">
        <ele>1090.27</ele>
        <time>2021-08-14T15:09:09Z</time>
      </trkpt>
      <trkpt lat="45.76408" lon="2.95545">
        <ele>1089.79</ele>
        <time>2021-08-14T15:09:14Z</time>
      </trkpt>
      <trkpt lat="45.76408" lon="2.95543">
        <ele>1089.79</ele>
        <time>2021-08-14T15:09:36Z</time>
      </trkpt>
      <trkpt lat="45.76408" lon="2.95544">
        <ele>1089.79</ele>
        <time>2021-08-14T15:09:58Z</time>
      </trkpt>
      <trkpt lat="45.76407" lon="2.95544">
        <ele>1089.79</ele>
        <time>2021-08-14T15:10:14Z</time>
      </trkpt>
      <trkpt lat="45.76407" lon="2.95544">
        <ele>1089.31</ele>
        <time>2021-08-14T15:10:33Z</time>
      </trkpt>
      <trkpt lat="45.76404" lon="2.95548">
        <ele>1089.31</ele>
        <time>2021-08-14T15:10:40Z</time>
      </trkpt>
      <trkpt lat="45.76402" lon="2.95549">
        <ele>1089.31</ele>
        <time>2021-08-14T15:10:41Z</time>
      </trkpt>
      <trkpt lat="45.76393" lon="2.9556">
        <ele>1087.87</ele>
        <time>2021-08-14T15:10:45Z</time>
      </trkpt>
      <trkpt lat="45.76392" lon="2.95566">
        <ele>1087.39</ele>
        <time>2021-08-14T15:10:46Z</time>
      </trkpt>
      <trkpt lat="45.76391" lon="2.95571">
        <ele>1087.39</ele>
        <time>2021-08-14T15:10:47Z</time>
      </trkpt>
      <trkpt lat="45.76386" lon="2.956">
        <ele>1084.99</ele>
        <time>2021-08-14T15:10:51Z</time>
      </trkpt>
      <trkpt lat="45.76384" lon="2.95608">
        <ele>1084.99</ele>
        <time>2021-08-14T15:10:52Z</time>
      </trkpt>
      <trkpt lat="45.76381" lon="2.95615">
        <ele>1084.5</ele>
        <time>2021-08-14T15:10:53Z</time>
      </trkpt>
      <trkpt lat="45.76376" lon="2.95622">
        <ele>1084.02</ele>
        <time>2021-08-14T15:10:54Z</time>
      </trkpt>
      <trkpt lat="45.7637" lon="2.95628">
        <ele>1083.06</ele>
        <time>2021-08-14T15:10:55Z</time>
      </trkpt>
      <trkpt lat="45.76364" lon="2.95633">
        <ele>1083.06</ele>
        <time>2021-08-14T15:10:56Z</time>
      </trkpt>
      <trkpt lat="45.76357" lon="2.95638">
        <ele>1082.1</ele>
        <time>2021-08-14T15:10:57Z</time>
      </trkpt>
      <trkpt lat="45.76351" lon="2.95643">
        <ele>1081.62</ele>
        <time>2021-08-14T15:10:58Z</time>
      </trkpt>
      <trkpt lat="45.76345" lon="2.95649">
        <ele>1081.14</ele>
        <time>2021-08-14T15:10:59Z</time>
      </trkpt>
      <trkpt lat="45.76342" lon="2.95654">
        <ele>1080.18</ele>
        <time>2021-08-14T15:11:00Z</time>
      </trkpt>
      <trkpt lat="45.76338" lon="2.9566">
        <ele>1080.18</ele>
        <time>2021-08-14T15:11:01Z</time>
      </trkpt>
      <trkpt lat="45.76336" lon="2.95664">
        <ele>1079.7</ele>
        <time>2021-08-14T15:11:02Z</time>
      </trkpt>
      <trkpt lat="45.76334" lon="2.95667">
        <ele>1079.7</ele>
        <time>2021-08-14T15:11:03Z</time>
      </trkpt>
      <trkpt lat="45.76332" lon="2.95668">
        <ele>1079.7</ele>
        <time>2021-08-14T15:11:04Z</time>
      </trkpt>
      <trkpt lat="45.76331" lon="2.95668">
        <ele>1079.22</ele>
        <time>2021-08-14T15:11:05Z</time>
      </trkpt>
      <trkpt lat="45.76329" lon="2.95667">
        <ele>1079.22</ele>
        <time>2021-08-14T15:11:06Z</time>
      </trkpt>
      <trkpt lat="45.7632" lon="2.95664">
        <ele>1077.78</ele>
        <time>2021-08-14T15:11:12Z</time>
      </trkpt>
      <trkpt lat="45.76318" lon="2.95664">
        <ele>1077.29</ele>
        <time>2021-08-14T15:11:13Z</time>
      </trkpt>
      <trkpt lat="45.76317" lon="2.95666">
        <ele>1077.29</ele>
        <time>2021-08-14T15:11:14Z</time>
      </trkpt>
      <trkpt lat="45.76316" lon="2.95667">
        <ele>1076.33</ele>
        <time>2021-08-14T15:11:15Z</time>
      </trkpt>
      <trkpt lat="45.76315" lon="2.95669">
        <ele>1075.85</ele>
        <time>2021-08-14T15:11:16Z</time>
      </trkpt>
      <trkpt lat="45.76314" lon="2.95672">
        <ele>1074.89</ele>
        <time>2021-08-14T15:11:17Z</time>
      </trkpt>
      <trkpt lat="45.76312" lon="2.95676">
        <ele>1073.93</ele>
        <time>2021-08-14T15:11:18Z</time>
      </trkpt>
      <trkpt lat="45.76308" lon="2.95686">
        <ele>1072.97</ele>
        <time>2021-08-14T15:11:20Z</time>
      </trkpt>
      <trkpt lat="45.76304" lon="2.95692">
        <ele>1072.49</ele>
        <time>2021-08-14T15:11:21Z</time>
      </trkpt>
      <trkpt lat="45.76301" lon="2.95696">
        <ele>1071.53</ele>
        <time>2021-08-14T15:11:22Z</time>
      </trkpt>
      <trkpt lat="45.76298" lon="2.957">
        <ele>1071.53</ele>
        <time>2021-08-14T15:11:23Z</time>
      </trkpt>
      <trkpt lat="45.76296" lon="2.95704">
        <ele>1070.57</ele>
        <time>2021-08-14T15:11:24Z</time>
      </trkpt>
      <trkpt lat="45.76293" lon="2.95707">
        <ele>1070.08</ele>
        <time>2021-08-14T15:11:25Z</time>
      </trkpt>
      <trkpt lat="45.76289" lon="2.9571">
        <ele>1070.08</ele>
        <time>2021-08-14T15:11:26Z</time>
      </trkpt>
      <trkpt lat="45.76286" lon="2.95711">
        <ele>1069.12</ele>
        <time>2021-08-14T15:11:27Z</time>
      </trkpt>
      <trkpt lat="45.76282" lon="2.95713">
        <ele>1068.64</ele>
        <time>2021-08-14T15:11:28Z</time>
      </trkpt>
      <trkpt lat="45.76278" lon="2.95715">
        <ele>1068.64</ele>
        <time>2021-08-14T15:11:29Z</time>
      </trkpt>
      <trkpt lat="45.76273" lon="2.95717">
        <ele>1067.68</ele>
        <time>2021-08-14T15:11:30Z</time>
      </trkpt>
      <trkpt lat="45.76269" lon="2.95719">
        <ele>1067.68</ele>
        <time>2021-08-14T15:11:31Z</time>
      </trkpt>
      <trkpt lat="45.76266" lon="2.95722">
        <ele>1066.72</ele>
        <time>2021-08-14T15:11:32Z</time>
      </trkpt>
      <trkpt lat="45.76262" lon="2.95724">
        <ele>1066.72</ele>
        <time>2021-08-14T15:11:33Z</time>
      </trkpt>
      <trkpt lat="45.76248" lon="2.95733">
        <ele>1065.28</ele>
        <time>2021-08-14T15:11:36Z</time>
      </trkpt>
      <trkpt lat="45.76244" lon="2.95735">
        <ele>1064.32</ele>
        <time>2021-08-14T15:11:37Z</time>
      </trkpt>
      <trkpt lat="45.7624" lon="2.95736">
        <ele>1063.84</ele>
        <time>2021-08-14T15:11:38Z</time>
      </trkpt>
      <trkpt lat="45.76236" lon="2.95737">
        <ele>1063.84</ele>
        <time>2021-08-14T15:11:39Z</time>
      </trkpt>
      <trkpt lat="45.76233" lon="2.95738">
        <ele>1063.84</ele>
        <time>2021-08-14T15:11:40Z</time>
      </trkpt>
      <trkpt lat="45.7623" lon="2.95739">
        <ele>1063.84</ele>
        <time>2021-08-14T15:11:41Z</time>
      </trkpt>
      <trkpt lat="45.76228" lon="2.95739">
        <ele>1063.84</ele>
        <time>2021-08-14T15:11:42Z</time>
      </trkpt>
      <trkpt lat="45.76223" lon="2.95739">
        <ele>1063.36</ele>
        <time>2021-08-14T15:11:48Z</time>
      </trkpt>
      <trkpt lat="45.76217" lon="2.95739">
        <ele>1063.36</ele>
        <time>2021-08-14T15:12:07Z</time>
      </trkpt>
      <trkpt lat="45.76217" lon="2.95738">
        <ele>1062.87</ele>
        <time>2021-08-14T15:12:20Z</time>
      </trkpt>
      <trkpt lat="45.76216" lon="2.95739">
        <ele>1062.87</ele>
        <time>2021-08-14T15:12:30Z</time>
      </trkpt>
      <trkpt lat="45.76213" lon="2.95736">
        <ele>1062.87</ele>
        <time>2021-08-14T15:12:44Z</time>
      </trkpt>
      <trkpt lat="45.76213" lon="2.95738">
        <ele>1062.87</ele>
        <time>2021-08-14T15:12:54Z</time>
      </trkpt>
      <trkpt lat="45.76213" lon="2.95737">
        <ele>1062.87</ele>
        <time>2021-08-14T15:12:59Z</time>
      </trkpt>
      <trkpt lat="45.76212" lon="2.95737">
        <ele>1062.87</ele>
        <time>2021-08-14T15:13:00Z</time>
      </trkpt>
      <trkpt lat="45.7621" lon="2.95736">
        <ele>1064.32</ele>
        <time>2021-08-14T15:13:02Z</time>
      </trkpt>
      <trkpt lat="45.76203" lon="2.95732">
        <ele>1064.32</ele>
        <time>2021-08-14T15:13:09Z</time>
      </trkpt>
      <trkpt lat="45.76193" lon="2.95732">
        <ele>1066.24</ele>
        <time>2021-08-14T15:13:15Z</time>
      </trkpt>
      <trkpt lat="45.76178" lon="2.95735">
        <ele>1066.24</ele>
        <time>2021-08-14T15:13:22Z</time>
      </trkpt>
      <trkpt lat="45.76161" lon="2.95742">
        <ele>1064.8</ele>
        <time>2021-08-14T15:13:28Z</time>
      </trkpt>
      <trkpt lat="45.76158" lon="2.95743">
        <ele>1064.8</ele>
        <time>2021-08-14T15:13:29Z</time>
      </trkpt>
      <trkpt lat="45.76145" lon="2.95751">
        <ele>1064.8</ele>
        <time>2021-08-14T15:13:34Z</time>
      </trkpt>
      <trkpt lat="45.76123" lon="2.95759">
        <ele>1066.24</ele>
        <time>2021-08-14T15:13:41Z</time>
      </trkpt>
      <trkpt lat="45.76103" lon="2.9576">
        <ele>1066.72</ele>
        <time>2021-08-14T15:13:47Z</time>
      </trkpt>
      <trkpt lat="45.76096" lon="2.95759">
        <ele>1067.2</ele>
        <time>2021-08-14T15:13:51Z</time>
      </trkpt>
      <trkpt lat="45.76093" lon="2.95759">
        <ele>1067.2</ele>
        <time>2021-08-14T15:13:52Z</time>
      </trkpt>
      <trkpt lat="45.7609" lon="2.9576">
        <ele>1067.2</ele>
        <time>2021-08-14T15:13:53Z</time>
      </trkpt>
      <trkpt lat="45.76087" lon="2.9576">
        <ele>1067.2</ele>
        <time>2021-08-14T15:13:54Z</time>
      </trkpt>
      <trkpt lat="45.76084" lon="2.95761">
        <ele>1067.2</ele>
        <time>2021-08-14T15:13:55Z</time>
      </trkpt>
      <trkpt lat="45.76081" lon="2.95761">
        <ele>1067.2</ele>
        <time>2021-08-14T15:13:56Z</time>
      </trkpt>
      <trkpt lat="45.76079" lon="2.95762">
        <ele>1067.2</ele>
        <time>2021-08-14T15:13:57Z</time>
      </trkpt>
      <trkpt lat="45.76075" lon="2.95764">
        <ele>1067.2</ele>
        <time>2021-08-14T15:13:59Z</time>
      </trkpt>
      <trkpt lat="45.76073" lon="2.95767">
        <ele>1067.2</ele>
        <time>2021-08-14T15:14:00Z</time>
      </trkpt>
      <trkpt lat="45.76071" lon="2.9577">
        <ele>1067.2</ele>
        <time>2021-08-14T15:14:01Z</time>
      </trkpt>
      <trkpt lat="45.76069" lon="2.95774">
        <ele>1065.76</ele>
        <time>2021-08-14T15:14:02Z</time>
      </trkpt>
      <trkpt lat="45.76065" lon="2.95778">
        <ele>1065.76</ele>
        <time>2021-08-14T15:14:03Z</time>
      </trkpt>
      <trkpt lat="45.76063" lon="2.95782">
        <ele>1065.28</ele>
        <time>2021-08-14T15:14:04Z</time>
      </trkpt>
      <trkpt lat="45.7606" lon="2.95786">
        <ele>1065.28</ele>
        <time>2021-08-14T15:14:05Z</time>
      </trkpt>
      <trkpt lat="45.76058" lon="2.95791">
        <ele>1063.84</ele>
        <time>2021-08-14T15:14:06Z</time>
      </trkpt>
      <trkpt lat="45.76056" lon="2.95797">
        <ele>1063.36</ele>
        <time>2021-08-14T15:14:07Z</time>
      </trkpt>
      <trkpt lat="45.76053" lon="2.95803">
        <ele>1062.39</ele>
        <time>2021-08-14T15:14:08Z</time>
      </trkpt>
      <trkpt lat="45.76049" lon="2.95813">
        <ele>1061.91</ele>
        <time>2021-08-14T15:14:10Z</time>
      </trkpt>
      <trkpt lat="45.76041" lon="2.95829">
        <ele>1061.43</ele>
        <time>2021-08-14T15:14:15Z</time>
      </trkpt>
      <trkpt lat="45.76039" lon="2.95846">
        <ele>1058.07</ele>
        <time>2021-08-14T15:14:21Z</time>
      </trkpt>
      <trkpt lat="45.76039" lon="2.95849">
        <ele>1057.59</ele>
        <time>2021-08-14T15:14:22Z</time>
      </trkpt>
      <trkpt lat="45.76038" lon="2.95852">
        <ele>1057.11</ele>
        <time>2021-08-14T15:14:23Z</time>
      </trkpt>
      <trkpt lat="45.76036" lon="2.95854">
        <ele>1057.11</ele>
        <time>2021-08-14T15:14:24Z</time>
      </trkpt>
      <trkpt lat="45.76034" lon="2.95856">
        <ele>1057.11</ele>
        <time>2021-08-14T15:14:25Z</time>
      </trkpt>
      <trkpt lat="45.76032" lon="2.95857">
        <ele>1057.11</ele>
        <time>2021-08-14T15:14:26Z</time>
      </trkpt>
      <trkpt lat="45.7603" lon="2.95858">
        <ele>1057.59</ele>
        <time>2021-08-14T15:14:27Z</time>
      </trkpt>
      <trkpt lat="45.76027" lon="2.95858">
        <ele>1057.59</ele>
        <time>2021-08-14T15:14:28Z</time>
      </trkpt>
      <trkpt lat="45.7602" lon="2.95862">
        <ele>1058.55</ele>
        <time>2021-08-14T15:14:31Z</time>
      </trkpt>
      <trkpt lat="45.75999" lon="2.95869">
        <ele>1059.51</ele>
        <time>2021-08-14T15:14:38Z</time>
      </trkpt>
      <trkpt lat="45.75979" lon="2.95878">
        <ele>1060.95</ele>
        <time>2021-08-14T15:14:44Z</time>
      </trkpt>
      <trkpt lat="45.75962" lon="2.95882">
        <ele>1059.03</ele>
        <time>2021-08-14T15:14:48Z</time>
      </trkpt>
      <trkpt lat="45.75957" lon="2.95882">
        <ele>1059.03</ele>
        <time>2021-08-14T15:14:49Z</time>
      </trkpt>
      <trkpt lat="45.75952" lon="2.95882">
        <ele>1059.03</ele>
        <time>2021-08-14T15:14:50Z</time>
      </trkpt>
      <trkpt lat="45.75947" lon="2.95881">
        <ele>1058.55</ele>
        <time>2021-08-14T15:14:51Z</time>
      </trkpt>
      <trkpt lat="45.75943" lon="2.9588">
        <ele>1058.55</ele>
        <time>2021-08-14T15:14:52Z</time>
      </trkpt>
      <trkpt lat="45.75926" lon="2.95875">
        <ele>1058.55</ele>
        <time>2021-08-14T15:14:57Z</time>
      </trkpt>
      <trkpt lat="45.75907" lon="2.95863">
        <ele>1058.55</ele>
        <time>2021-08-14T15:15:01Z</time>
      </trkpt>
      <trkpt lat="45.75879" lon="2.95846">
        <ele>1058.07</ele>
        <time>2021-08-14T15:15:08Z</time>
      </trkpt>
      <trkpt lat="45.75861" lon="2.95831">
        <ele>1057.59</ele>
        <time>2021-08-14T15:15:13Z</time>
      </trkpt>
      <trkpt lat="45.75834" lon="2.95812">
        <ele>1056.63</ele>
        <time>2021-08-14T15:15:18Z</time>
      </trkpt>
      <trkpt lat="45.75817" lon="2.95803">
        <ele>1056.63</ele>
        <time>2021-08-14T15:15:21Z</time>
      </trkpt>
      <trkpt lat="45.75791" lon="2.95788">
        <ele>1055.18</ele>
        <time>2021-08-14T15:15:27Z</time>
      </trkpt>
      <trkpt lat="45.75782" lon="2.95781">
        <ele>1054.7</ele>
        <time>2021-08-14T15:15:29Z</time>
      </trkpt>
      <trkpt lat="45.75777" lon="2.95779">
        <ele>1054.7</ele>
        <time>2021-08-14T15:15:30Z</time>
      </trkpt>
      <trkpt lat="45.75772" lon="2.95775">
        <ele>1054.22</ele>
        <time>2021-08-14T15:15:31Z</time>
      </trkpt>
      <trkpt lat="45.75744" lon="2.95759">
        <ele>1051.34</ele>
        <time>2021-08-14T15:15:36Z</time>
      </trkpt>
      <trkpt lat="45.75709" lon="2.95732">
        <ele>1047.49</ele>
        <time>2021-08-14T15:15:43Z</time>
      </trkpt>
      <trkpt lat="45.75699" lon="2.95725">
        <ele>1047.01</ele>
        <time>2021-08-14T15:15:45Z</time>
      </trkpt>
      <trkpt lat="45.75681" lon="2.95713">
        <ele>1045.09</ele>
        <time>2021-08-14T15:15:50Z</time>
      </trkpt>
      <trkpt lat="45.75675" lon="2.95711">
        <ele>1042.69</ele>
        <time>2021-08-14T15:15:55Z</time>
      </trkpt>
      <trkpt lat="45.75676" lon="2.95714">
        <ele>1042.21</ele>
        <time>2021-08-14T15:15:56Z</time>
      </trkpt>
      <trkpt lat="45.75679" lon="2.95731">
        <ele>1038.84</ele>
        <time>2021-08-14T15:16:01Z</time>
      </trkpt>
      <trkpt lat="45.75679" lon="2.95748">
        <ele>1035.96</ele>
        <time>2021-08-14T15:16:06Z</time>
      </trkpt>
      <trkpt lat="45.75678" lon="2.95766">
        <ele>1032.59</ele>
        <time>2021-08-14T15:16:10Z</time>
      </trkpt>
      <trkpt lat="45.75673" lon="2.95783">
        <ele>1029.23</ele>
        <time>2021-08-14T15:16:14Z</time>
      </trkpt>
      <trkpt lat="45.75664" lon="2.95803">
        <ele>1025.38</ele>
        <time>2021-08-14T15:16:18Z</time>
      </trkpt>
      <trkpt lat="45.75652" lon="2.95821">
        <ele>1022.02</ele>
        <time>2021-08-14T15:16:22Z</time>
      </trkpt>
      <trkpt lat="45.75641" lon="2.9584">
        <ele>1018.65</ele>
        <time>2021-08-14T15:16:26Z</time>
      </trkpt>
      <trkpt lat="45.75637" lon="2.95844">
        <ele>1018.17</ele>
        <time>2021-08-14T15:16:27Z</time>
      </trkpt>
      <trkpt lat="45.75632" lon="2.95847">
        <ele>1017.21</ele>
        <time>2021-08-14T15:16:28Z</time>
      </trkpt>
      <trkpt lat="45.75628" lon="2.95851">
        <ele>1016.25</ele>
        <time>2021-08-14T15:16:29Z</time>
      </trkpt>
      <trkpt lat="45.75612" lon="2.95871">
        <ele>1013.37</ele>
        <time>2021-08-14T15:16:33Z</time>
      </trkpt>
      <trkpt lat="45.75608" lon="2.95876">
        <ele>1013.37</ele>
        <time>2021-08-14T15:16:34Z</time>
      </trkpt>
      <trkpt lat="45.75588" lon="2.95898">
        <ele>1010.48</ele>
        <time>2021-08-14T15:16:38Z</time>
      </trkpt>
      <trkpt lat="45.75583" lon="2.95903">
        <ele>1010</ele>
        <time>2021-08-14T15:16:39Z</time>
      </trkpt>
      <trkpt lat="45.75579" lon="2.95908">
        <ele>1009.52</ele>
        <time>2021-08-14T15:16:40Z</time>
      </trkpt>
      <trkpt lat="45.75571" lon="2.95917">
        <ele>1008.56</ele>
        <time>2021-08-14T15:16:42Z</time>
      </trkpt>
      <trkpt lat="45.75567" lon="2.95919">
        <ele>1007.6</ele>
        <time>2021-08-14T15:16:43Z</time>
      </trkpt>
      <trkpt lat="45.75563" lon="2.95921">
        <ele>1007.6</ele>
        <time>2021-08-14T15:16:44Z</time>
      </trkpt>
      <trkpt lat="45.75541" lon="2.9593">
        <ele>1004.72</ele>
        <time>2021-08-14T15:16:49Z</time>
      </trkpt>
      <trkpt lat="45.75535" lon="2.95934">
        <ele>1003.75</ele>
        <time>2021-08-14T15:16:50Z</time>
      </trkpt>
      <trkpt lat="45.75529" lon="2.95938">
        <ele>1003.27</ele>
        <time>2021-08-14T15:16:51Z</time>
      </trkpt>
      <trkpt lat="45.75522" lon="2.95945">
        <ele>1002.31</ele>
        <time>2021-08-14T15:16:52Z</time>
      </trkpt>
      <trkpt lat="45.75517" lon="2.95949">
        <ele>1001.83</ele>
        <time>2021-08-14T15:16:53Z</time>
      </trkpt>
      <trkpt lat="45.75512" lon="2.95954">
        <ele>1000.87</ele>
        <time>2021-08-14T15:16:54Z</time>
      </trkpt>
      <trkpt lat="45.75485" lon="2.95978">
        <ele>997.99</ele>
        <time>2021-08-14T15:16:59Z</time>
      </trkpt>
      <trkpt lat="45.7548" lon="2.95982">
        <ele>997.51</ele>
        <time>2021-08-14T15:17:00Z</time>
      </trkpt>
      <trkpt lat="45.75471" lon="2.95992">
        <ele>995.58</ele>
        <time>2021-08-14T15:17:02Z</time>
      </trkpt>
      <trkpt lat="45.75457" lon="2.96007">
        <ele>994.14</ele>
        <time>2021-08-14T15:17:05Z</time>
      </trkpt>
      <trkpt lat="45.75452" lon="2.96013">
        <ele>993.66</ele>
        <time>2021-08-14T15:17:06Z</time>
      </trkpt>
      <trkpt lat="45.75448" lon="2.96019">
        <ele>993.18</ele>
        <time>2021-08-14T15:17:07Z</time>
      </trkpt>
      <trkpt lat="45.75444" lon="2.96026">
        <ele>993.18</ele>
        <time>2021-08-14T15:17:08Z</time>
      </trkpt>
      <trkpt lat="45.75443" lon="2.96033">
        <ele>992.7</ele>
        <time>2021-08-14T15:17:09Z</time>
      </trkpt>
      <trkpt lat="45.75442" lon="2.96041">
        <ele>992.7</ele>
        <time>2021-08-14T15:17:10Z</time>
      </trkpt>
      <trkpt lat="45.75441" lon="2.96049">
        <ele>992.22</ele>
        <time>2021-08-14T15:17:11Z</time>
      </trkpt>
      <trkpt lat="45.7544" lon="2.96056">
        <ele>992.22</ele>
        <time>2021-08-14T15:17:12Z</time>
      </trkpt>
      <trkpt lat="45.7544" lon="2.96072">
        <ele>991.74</ele>
        <time>2021-08-14T15:17:14Z</time>
      </trkpt>
      <trkpt lat="45.75427" lon="2.96124">
        <ele>988.85</ele>
        <time>2021-08-14T15:17:20Z</time>
      </trkpt>
      <trkpt lat="45.75418" lon="2.96144">
        <ele>987.89</ele>
        <time>2021-08-14T15:17:24Z</time>
      </trkpt>
      <trkpt lat="45.75414" lon="2.96149">
        <ele>987.89</ele>
        <time>2021-08-14T15:17:26Z</time>
      </trkpt>
      <trkpt lat="45.75411" lon="2.9615">
        <ele>987.89</ele>
        <time>2021-08-14T15:17:27Z</time>
      </trkpt>
      <trkpt lat="45.75409" lon="2.96152">
        <ele>987.41</ele>
        <time>2021-08-14T15:17:28Z</time>
      </trkpt>
      <trkpt lat="45.75395" lon="2.9617">
        <ele>985.97</ele>
        <time>2021-08-14T15:17:33Z</time>
      </trkpt>
      <trkpt lat="45.75391" lon="2.96173">
        <ele>985.49</ele>
        <time>2021-08-14T15:17:34Z</time>
      </trkpt>
      <trkpt lat="45.75363" lon="2.9619">
        <ele>983.57</ele>
        <time>2021-08-14T15:17:40Z</time>
      </trkpt>
      <trkpt lat="45.75357" lon="2.96193">
        <ele>983.57</ele>
        <time>2021-08-14T15:17:41Z</time>
      </trkpt>
      <trkpt lat="45.75352" lon="2.96196">
        <ele>983.09</ele>
        <time>2021-08-14T15:17:42Z</time>
      </trkpt>
      <trkpt lat="45.7534" lon="2.96201">
        <ele>983.09</ele>
        <time>2021-08-14T15:17:44Z</time>
      </trkpt>
      <trkpt lat="45.75335" lon="2.96204">
        <ele>982.6</ele>
        <time>2021-08-14T15:17:45Z</time>
      </trkpt>
      <trkpt lat="45.7533" lon="2.96208">
        <ele>982.6</ele>
        <time>2021-08-14T15:17:46Z</time>
      </trkpt>
      <trkpt lat="45.75326" lon="2.96212">
        <ele>982.6</ele>
        <time>2021-08-14T15:17:47Z</time>
      </trkpt>
      <trkpt lat="45.75322" lon="2.96216">
        <ele>982.6</ele>
        <time>2021-08-14T15:17:48Z</time>
      </trkpt>
      <trkpt lat="45.75319" lon="2.96222">
        <ele>981.64</ele>
        <time>2021-08-14T15:17:49Z</time>
      </trkpt>
      <trkpt lat="45.75314" lon="2.96229">
        <ele>981.64</ele>
        <time>2021-08-14T15:17:50Z</time>
      </trkpt>
      <trkpt lat="45.7531" lon="2.96237">
        <ele>980.68</ele>
        <time>2021-08-14T15:17:51Z</time>
      </trkpt>
      <trkpt lat="45.75308" lon="2.96247">
        <ele>981.16</ele>
        <time>2021-08-14T15:17:52Z</time>
      </trkpt>
      <trkpt lat="45.7529" lon="2.96319">
        <ele>979.24</ele>
        <time>2021-08-14T15:17:59Z</time>
      </trkpt>
      <trkpt lat="45.75284" lon="2.96356">
        <ele>978.76</ele>
        <time>2021-08-14T15:18:03Z</time>
      </trkpt>
      <trkpt lat="45.75283" lon="2.96364">
        <ele>978.76</ele>
        <time>2021-08-14T15:18:04Z</time>
      </trkpt>
      <trkpt lat="45.75283" lon="2.96381">
        <ele>978.76</ele>
        <time>2021-08-14T15:18:06Z</time>
      </trkpt>
      <trkpt lat="45.75281" lon="2.96421">
        <ele>978.28</ele>
        <time>2021-08-14T15:18:11Z</time>
      </trkpt>
      <trkpt lat="45.75281" lon="2.96429">
        <ele>978.28</ele>
        <time>2021-08-14T15:18:12Z</time>
      </trkpt>
      <trkpt lat="45.75279" lon="2.96458">
        <ele>977.8</ele>
        <time>2021-08-14T15:18:16Z</time>
      </trkpt>
      <trkpt lat="45.75278" lon="2.96465">
        <ele>977.8</ele>
        <time>2021-08-14T15:18:17Z</time>
      </trkpt>
      <trkpt lat="45.75278" lon="2.96471">
        <ele>977.32</ele>
        <time>2021-08-14T15:18:18Z</time>
      </trkpt>
      <trkpt lat="45.75279" lon="2.96478">
        <ele>977.32</ele>
        <time>2021-08-14T15:18:19Z</time>
      </trkpt>
      <trkpt lat="45.75279" lon="2.96484">
        <ele>976.84</ele>
        <time>2021-08-14T15:18:20Z</time>
      </trkpt>
      <trkpt lat="45.7528" lon="2.9649">
        <ele>976.84</ele>
        <time>2021-08-14T15:18:21Z</time>
      </trkpt>
      <trkpt lat="45.75289" lon="2.96546">
        <ele>976.84</ele>
        <time>2021-08-14T15:18:30Z</time>
      </trkpt>
      <trkpt lat="45.75292" lon="2.96552">
        <ele>976.84</ele>
        <time>2021-08-14T15:18:31Z</time>
      </trkpt>
      <trkpt lat="45.75294" lon="2.96558">
        <ele>976.84</ele>
        <time>2021-08-14T15:18:32Z</time>
      </trkpt>
      <trkpt lat="45.75294" lon="2.96563">
        <ele>976.84</ele>
        <time>2021-08-14T15:18:33Z</time>
      </trkpt>
      <trkpt lat="45.75294" lon="2.9657">
        <ele>976.84</ele>
        <time>2021-08-14T15:18:34Z</time>
      </trkpt>
      <trkpt lat="45.75294" lon="2.96576">
        <ele>976.84</ele>
        <time>2021-08-14T15:18:35Z</time>
      </trkpt>
      <trkpt lat="45.75286" lon="2.96604">
        <ele>976.36</ele>
        <time>2021-08-14T15:18:40Z</time>
      </trkpt>
      <trkpt lat="45.75285" lon="2.96634">
        <ele>976.36</ele>
        <time>2021-08-14T15:18:45Z</time>
      </trkpt>
      <trkpt lat="45.75285" lon="2.96654">
        <ele>976.36</ele>
        <time>2021-08-14T15:18:48Z</time>
      </trkpt>
      <trkpt lat="45.75281" lon="2.96707">
        <ele>976.36</ele>
        <time>2021-08-14T15:18:56Z</time>
      </trkpt>
      <trkpt lat="45.75286" lon="2.96747">
        <ele>975.39</ele>
        <time>2021-08-14T15:19:03Z</time>
      </trkpt>
      <trkpt lat="45.75283" lon="2.96772">
        <ele>975.39</ele>
        <time>2021-08-14T15:19:08Z</time>
      </trkpt>
      <trkpt lat="45.75281" lon="2.96777">
        <ele>975.39</ele>
        <time>2021-08-14T15:19:13Z</time>
      </trkpt>
      <trkpt lat="45.7528" lon="2.96779">
        <ele>976.84</ele>
        <time>2021-08-14T15:19:17Z</time>
      </trkpt>
      <trkpt lat="45.75274" lon="2.96794">
        <ele>976.84</ele>
        <time>2021-08-14T15:19:23Z</time>
      </trkpt>
      <trkpt lat="45.7527" lon="2.96794">
        <ele>976.84</ele>
        <time>2021-08-14T15:19:24Z</time>
      </trkpt>
      <trkpt lat="45.75266" lon="2.96792">
        <ele>976.84</ele>
        <time>2021-08-14T15:19:25Z</time>
      </trkpt>
      <trkpt lat="45.75256" lon="2.96788">
        <ele>974.43</ele>
        <time>2021-08-14T15:19:27Z</time>
      </trkpt>
      <trkpt lat="45.75251" lon="2.96787">
        <ele>974.43</ele>
        <time>2021-08-14T15:19:28Z</time>
      </trkpt>
      <trkpt lat="45.75245" lon="2.96787">
        <ele>973.47</ele>
        <time>2021-08-14T15:19:29Z</time>
      </trkpt>
      <trkpt lat="45.75223" lon="2.9679">
        <ele>972.99</ele>
        <time>2021-08-14T15:19:34Z</time>
      </trkpt>
      <trkpt lat="45.75222" lon="2.96793">
        <ele>972.99</ele>
        <time>2021-08-14T15:19:41Z</time>
      </trkpt>
      <trkpt lat="45.75223" lon="2.96793">
        <ele>972.99</ele>
        <time>2021-08-14T15:19:51Z</time>
      </trkpt>
      <trkpt lat="45.75223" lon="2.96793">
        <ele>972.51</ele>
        <time>2021-08-14T15:20:02Z</time>
      </trkpt>
      <trkpt lat="45.7522" lon="2.96794">
        <ele>972.51</ele>
        <time>2021-08-14T15:20:15Z</time>
      </trkpt>
      <trkpt lat="45.75202" lon="2.96796">
        <ele>971.55</ele>
        <time>2021-08-14T15:20:21Z</time>
      </trkpt>
      <trkpt lat="45.75193" lon="2.96797">
        <ele>971.07</ele>
        <time>2021-08-14T15:20:23Z</time>
      </trkpt>
      <trkpt lat="45.75152" lon="2.96806">
        <ele>970.59</ele>
        <time>2021-08-14T15:20:31Z</time>
      </trkpt>
      <trkpt lat="45.7512" lon="2.96815">
        <ele>970.11</ele>
        <time>2021-08-14T15:20:37Z</time>
      </trkpt>
      <trkpt lat="45.75067" lon="2.9683">
        <ele>969.15</ele>
        <time>2021-08-14T15:20:46Z</time>
      </trkpt>
      <trkpt lat="45.75014" lon="2.96845">
        <ele>968.18</ele>
        <time>2021-08-14T15:20:56Z</time>
      </trkpt>
      <trkpt lat="45.74951" lon="2.96861">
        <ele>967.7</ele>
        <time>2021-08-14T15:21:07Z</time>
      </trkpt>
      <trkpt lat="45.74911" lon="2.96872">
        <ele>966.74</ele>
        <time>2021-08-14T15:21:14Z</time>
      </trkpt>
      <trkpt lat="45.74877" lon="2.96882">
        <ele>966.26</ele>
        <time>2021-08-14T15:21:20Z</time>
      </trkpt>
      <trkpt lat="45.74872" lon="2.96883">
        <ele>966.26</ele>
        <time>2021-08-14T15:21:21Z</time>
      </trkpt>
      <trkpt lat="45.74866" lon="2.96885">
        <ele>966.26</ele>
        <time>2021-08-14T15:21:22Z</time>
      </trkpt>
      <trkpt lat="45.74829" lon="2.96901">
        <ele>966.26</ele>
        <time>2021-08-14T15:21:29Z</time>
      </trkpt>
      <trkpt lat="45.74803" lon="2.96911">
        <ele>966.26</ele>
        <time>2021-08-14T15:21:34Z</time>
      </trkpt>
      <trkpt lat="45.74778" lon="2.96925">
        <ele>966.26</ele>
        <time>2021-08-14T15:21:39Z</time>
      </trkpt>
      <trkpt lat="45.74738" lon="2.96944">
        <ele>966.26</ele>
        <time>2021-08-14T15:21:47Z</time>
      </trkpt>
      <trkpt lat="45.74702" lon="2.96963">
        <ele>966.26</ele>
        <time>2021-08-14T15:21:56Z</time>
      </trkpt>
      <trkpt lat="45.74678" lon="2.96975">
        <ele>968.18</ele>
        <time>2021-08-14T15:22:04Z</time>
      </trkpt>
      <trkpt lat="45.74648" lon="2.96989">
        <ele>969.15</ele>
        <time>2021-08-14T15:22:13Z</time>
      </trkpt>
      <trkpt lat="45.74628" lon="2.97">
        <ele>969.63</ele>
        <time>2021-08-14T15:22:19Z</time>
      </trkpt>
      <trkpt lat="45.74615" lon="2.97007">
        <ele>970.11</ele>
        <time>2021-08-14T15:22:25Z</time>
      </trkpt>
      <trkpt lat="45.74613" lon="2.97008">
        <ele>970.11</ele>
        <time>2021-08-14T15:22:35Z</time>
      </trkpt>
      <trkpt lat="45.74612" lon="2.97008">
        <ele>969.63</ele>
        <time>2021-08-14T15:22:55Z</time>
      </trkpt>
      <trkpt lat="45.74612" lon="2.97008">
        <ele>969.63</ele>
        <time>2021-08-14T15:23:14Z</time>
      </trkpt>
      <trkpt lat="45.74612" lon="2.97008">
        <ele>969.63</ele>
        <time>2021-08-14T15:23:21Z</time>
      </trkpt>
      <trkpt lat="45.74612" lon="2.9701">
        <ele>969.15</ele>
        <time>2021-08-14T15:23:41Z</time>
      </trkpt>
      <trkpt lat="45.74612" lon="2.9701">
        <ele>969.15</ele>
        <time>2021-08-14T15:23:55Z</time>
      </trkpt>
      <trkpt lat="45.74612" lon="2.97009">
        <ele>969.63</ele>
        <time>2021-08-14T15:24:08Z</time>
      </trkpt>
      <trkpt lat="45.74611" lon="2.9701">
        <ele>969.15</ele>
        <time>2021-08-14T15:24:16Z</time>
      </trkpt>
      <trkpt lat="45.74611" lon="2.97012">
        <ele>969.15</ele>
        <time>2021-08-14T15:24:17Z</time>
      </trkpt>
      <trkpt lat="45.74609" lon="2.97015">
        <ele>969.15</ele>
        <time>2021-08-14T15:24:18Z</time>
      </trkpt>
      <trkpt lat="45.74604" lon="2.97024">
        <ele>969.15</ele>
        <time>2021-08-14T15:24:21Z</time>
      </trkpt>
      <trkpt lat="45.746" lon="2.97024">
        <ele>969.15</ele>
        <time>2021-08-14T15:24:22Z</time>
      </trkpt>
      <trkpt lat="45.74597" lon="2.97023">
        <ele>969.15</ele>
        <time>2021-08-14T15:24:23Z</time>
      </trkpt>
      <trkpt lat="45.74595" lon="2.97022">
        <ele>969.15</ele>
        <time>2021-08-14T15:24:24Z</time>
      </trkpt>
      <trkpt lat="45.74593" lon="2.97021">
        <ele>969.15</ele>
        <time>2021-08-14T15:24:25Z</time>
      </trkpt>
      <trkpt lat="45.7459" lon="2.9702">
        <ele>969.15</ele>
        <time>2021-08-14T15:24:26Z</time>
      </trkpt>
      <trkpt lat="45.74589" lon="2.97018">
        <ele>969.15</ele>
        <time>2021-08-14T15:24:27Z</time>
      </trkpt>
      <trkpt lat="45.74575" lon="2.97013">
        <ele>970.11</ele>
        <time>2021-08-14T15:24:34Z</time>
      </trkpt>
      <trkpt lat="45.74551" lon="2.97004">
        <ele>971.07</ele>
        <time>2021-08-14T15:24:44Z</time>
      </trkpt>
      <trkpt lat="45.74529" lon="2.96996">
        <ele>972.51</ele>
        <time>2021-08-14T15:24:53Z</time>
      </trkpt>
      <trkpt lat="45.74511" lon="2.96987">
        <ele>973.47</ele>
        <time>2021-08-14T15:25:02Z</time>
      </trkpt>
      <trkpt lat="45.74496" lon="2.96981">
        <ele>973.95</ele>
        <time>2021-08-14T15:25:09Z</time>
      </trkpt>
      <trkpt lat="45.74474" lon="2.96972">
        <ele>974.91</ele>
        <time>2021-08-14T15:25:18Z</time>
      </trkpt>
      <trkpt lat="45.74448" lon="2.96961">
        <ele>975.88</ele>
        <time>2021-08-14T15:25:28Z</time>
      </trkpt>
      <trkpt lat="45.74425" lon="2.96949">
        <ele>976.84</ele>
        <time>2021-08-14T15:25:37Z</time>
      </trkpt>
      <trkpt lat="45.74405" lon="2.96938">
        <ele>977.32</ele>
        <time>2021-08-14T15:25:45Z</time>
      </trkpt>
      <trkpt lat="45.74397" lon="2.96933">
        <ele>977.8</ele>
        <time>2021-08-14T15:25:49Z</time>
      </trkpt>
      <trkpt lat="45.74397" lon="2.96928">
        <ele>978.28</ele>
        <time>2021-08-14T15:25:54Z</time>
      </trkpt>
      <trkpt lat="45.74395" lon="2.96926">
        <ele>978.28</ele>
        <time>2021-08-14T15:26:06Z</time>
      </trkpt>
      <trkpt lat="45.74395" lon="2.96926">
        <ele>978.28</ele>
        <time>2021-08-14T15:26:24Z</time>
      </trkpt>
      <trkpt lat="45.74395" lon="2.96928">
        <ele>978.28</ele>
        <time>2021-08-14T15:26:46Z</time>
      </trkpt>
      <trkpt lat="45.74393" lon="2.96926">
        <ele>977.8</ele>
        <time>2021-08-14T15:27:09Z</time>
      </trkpt>
      <trkpt lat="45.74392" lon="2.96925">
        <ele>977.8</ele>
        <time>2021-08-14T15:27:19Z</time>
      </trkpt>
      <trkpt lat="45.74393" lon="2.96924">
        <ele>977.8</ele>
        <time>2021-08-14T15:27:28Z</time>
      </trkpt>
      <trkpt lat="45.74393" lon="2.96924">
        <ele>977.8</ele>
        <time>2021-08-14T15:27:54Z</time>
      </trkpt>
      <trkpt lat="45.74394" lon="2.96924">
        <ele>977.32</ele>
        <time>2021-08-14T15:28:22Z</time>
      </trkpt>
      <trkpt lat="45.74395" lon="2.96924">
        <ele>977.32</ele>
        <time>2021-08-14T15:28:48Z</time>
      </trkpt>
      <trkpt lat="45.74391" lon="2.96929">
        <ele>977.32</ele>
        <time>2021-08-14T15:29:15Z</time>
      </trkpt>
      <trkpt lat="45.7439" lon="2.96929">
        <ele>977.32</ele>
        <time>2021-08-14T15:29:17Z</time>
      </trkpt>
      <trkpt lat="45.74388" lon="2.9693">
        <ele>977.32</ele>
        <time>2021-08-14T15:29:18Z</time>
      </trkpt>
      <trkpt lat="45.74386" lon="2.96931">
        <ele>977.32</ele>
        <time>2021-08-14T15:29:19Z</time>
      </trkpt>
      <trkpt lat="45.74384" lon="2.96932">
        <ele>977.32</ele>
        <time>2021-08-14T15:29:20Z</time>
      </trkpt>
      <trkpt lat="45.74382" lon="2.96931">
        <ele>977.32</ele>
        <time>2021-08-14T15:29:21Z</time>
      </trkpt>
      <trkpt lat="45.74379" lon="2.9693">
        <ele>977.32</ele>
        <time>2021-08-14T15:29:22Z</time>
      </trkpt>
      <trkpt lat="45.74377" lon="2.96928">
        <ele>977.32</ele>
        <time>2021-08-14T15:29:23Z</time>
      </trkpt>
      <trkpt lat="45.74348" lon="2.9692">
        <ele>977.32</ele>
        <time>2021-08-14T15:29:31Z</time>
      </trkpt>
      <trkpt lat="45.7434" lon="2.96918">
        <ele>977.32</ele>
        <time>2021-08-14T15:29:33Z</time>
      </trkpt>
      <trkpt lat="45.74306" lon="2.96898">
        <ele>977.8</ele>
        <time>2021-08-14T15:29:42Z</time>
      </trkpt>
      <trkpt lat="45.74283" lon="2.96882">
        <ele>972.99</ele>
        <time>2021-08-14T15:29:48Z</time>
      </trkpt>
      <trkpt lat="45.7428" lon="2.9688">
        <ele>982.6</ele>
        <time>2021-08-14T15:29:49Z</time>
      </trkpt>
      <trkpt lat="45.74277" lon="2.96877">
        <ele>978.28</ele>
        <time>2021-08-14T15:29:50Z</time>
      </trkpt>
      <trkpt lat="45.74252" lon="2.96851">
        <ele>978.28</ele>
        <time>2021-08-14T15:29:58Z</time>
      </trkpt>
      <trkpt lat="45.7422" lon="2.96826">
        <ele>978.28</ele>
        <time>2021-08-14T15:30:07Z</time>
      </trkpt>
      <trkpt lat="45.74213" lon="2.9682">
        <ele>979.72</ele>
        <time>2021-08-14T15:30:09Z</time>
      </trkpt>
      <trkpt lat="45.74178" lon="2.96793">
        <ele>980.68</ele>
        <time>2021-08-14T15:30:19Z</time>
      </trkpt>
      <trkpt lat="45.74149" lon="2.96777">
        <ele>980.68</ele>
        <time>2021-08-14T15:30:27Z</time>
      </trkpt>
      <trkpt lat="45.74136" lon="2.96757">
        <ele>981.16</ele>
        <time>2021-08-14T15:30:32Z</time>
      </trkpt>
      <trkpt lat="45.74123" lon="2.96727">
        <ele>982.12</ele>
        <time>2021-08-14T15:30:40Z</time>
      </trkpt>
      <trkpt lat="45.7411" lon="2.96696">
        <ele>983.57</ele>
        <time>2021-08-14T15:30:49Z</time>
      </trkpt>
      <trkpt lat="45.74099" lon="2.96676">
        <ele>984.53</ele>
        <time>2021-08-14T15:30:56Z</time>
      </trkpt>
      <trkpt lat="45.7409" lon="2.96657">
        <ele>985.97</ele>
        <time>2021-08-14T15:31:03Z</time>
      </trkpt>
      <trkpt lat="45.74077" lon="2.96633">
        <ele>986.45</ele>
        <time>2021-08-14T15:31:12Z</time>
      </trkpt>
      <trkpt lat="45.74066" lon="2.96627">
        <ele>987.41</ele>
        <time>2021-08-14T15:31:19Z</time>
      </trkpt>
      <trkpt lat="45.74052" lon="2.96627">
        <ele>988.85</ele>
        <time>2021-08-14T15:31:27Z</time>
      </trkpt>
      <trkpt lat="45.74035" lon="2.96628">
        <ele>989.81</ele>
        <time>2021-08-14T15:31:36Z</time>
      </trkpt>
      <trkpt lat="45.74019" lon="2.96625">
        <ele>991.26</ele>
        <time>2021-08-14T15:31:45Z</time>
      </trkpt>
      <trkpt lat="45.74" lon="2.96622">
        <ele>991.74</ele>
        <time>2021-08-14T15:31:55Z</time>
      </trkpt>
      <trkpt lat="45.73985" lon="2.96615">
        <ele>992.7</ele>
        <time>2021-08-14T15:32:04Z</time>
      </trkpt>
      <trkpt lat="45.73982" lon="2.96613">
        <ele>993.18</ele>
        <time>2021-08-14T15:32:06Z</time>
      </trkpt>
      <trkpt lat="45.73981" lon="2.96612">
        <ele>993.18</ele>
        <time>2021-08-14T15:32:07Z</time>
      </trkpt>
      <trkpt lat="45.73979" lon="2.96612">
        <ele>993.66</ele>
        <time>2021-08-14T15:32:08Z</time>
      </trkpt>
      <trkpt lat="45.73978" lon="2.96612">
        <ele>993.66</ele>
        <time>2021-08-14T15:32:09Z</time>
      </trkpt>
      <trkpt lat="45.73977" lon="2.96611">
        <ele>993.66</ele>
        <time>2021-08-14T15:32:10Z</time>
      </trkpt>
      <trkpt lat="45.73969" lon="2.96604">
        <ele>994.62</ele>
        <time>2021-08-14T15:32:19Z</time>
      </trkpt>
      <trkpt lat="45.73968" lon="2.96604">
        <ele>995.58</ele>
        <time>2021-08-14T15:32:20Z</time>
      </trkpt>
      <trkpt lat="45.73959" lon="2.96598">
        <ele>996.06</ele>
        <time>2021-08-14T15:32:27Z</time>
      </trkpt>
      <trkpt lat="45.73947" lon="2.96592">
        <ele>997.99</ele>
        <time>2021-08-14T15:32:36Z</time>
      </trkpt>
      <trkpt lat="45.73943" lon="2.9659">
        <ele>998.47</ele>
        <time>2021-08-14T15:32:40Z</time>
      </trkpt>
      <trkpt lat="45.73941" lon="2.9659">
        <ele>998.47</ele>
        <time>2021-08-14T15:32:41Z</time>
      </trkpt>
      <trkpt lat="45.7394" lon="2.96589">
        <ele>998.95</ele>
        <time>2021-08-14T15:32:42Z</time>
      </trkpt>
      <trkpt lat="45.73939" lon="2.96589">
        <ele>998.95</ele>
        <time>2021-08-14T15:32:43Z</time>
      </trkpt>
      <trkpt lat="45.73937" lon="2.96589">
        <ele>999.43</ele>
        <time>2021-08-14T15:32:44Z</time>
      </trkpt>
      <trkpt lat="45.73936" lon="2.96589">
        <ele>999.43</ele>
        <time>2021-08-14T15:32:45Z</time>
      </trkpt>
      <trkpt lat="45.73921" lon="2.96592">
        <ele>1000.87</ele>
        <time>2021-08-14T15:32:54Z</time>
      </trkpt>
      <trkpt lat="45.73902" lon="2.96595">
        <ele>1000.87</ele>
        <time>2021-08-14T15:33:01Z</time>
      </trkpt>
      <trkpt lat="45.7388" lon="2.96592">
        <ele>1000.87</ele>
        <time>2021-08-14T15:33:08Z</time>
      </trkpt>
      <trkpt lat="45.73854" lon="2.96584">
        <ele>1001.35</ele>
        <time>2021-08-14T15:33:15Z</time>
      </trkpt>
      <trkpt lat="45.73816" lon="2.96564">
        <ele>1002.31</ele>
        <time>2021-08-14T15:33:25Z</time>
      </trkpt>
      <trkpt lat="45.7379" lon="2.96547">
        <ele>1002.31</ele>
        <time>2021-08-14T15:33:32Z</time>
      </trkpt>
      <trkpt lat="45.73771" lon="2.96532">
        <ele>1002.79</ele>
        <time>2021-08-14T15:33:38Z</time>
      </trkpt>
      <trkpt lat="45.73751" lon="2.96516">
        <ele>1003.27</ele>
        <time>2021-08-14T15:33:44Z</time>
      </trkpt>
      <trkpt lat="45.73729" lon="2.96502">
        <ele>1003.75</ele>
        <time>2021-08-14T15:33:50Z</time>
      </trkpt>
      <trkpt lat="45.73701" lon="2.96483">
        <ele>1004.72</ele>
        <time>2021-08-14T15:33:58Z</time>
      </trkpt>
      <trkpt lat="45.73672" lon="2.96467">
        <ele>1005.2</ele>
        <time>2021-08-14T15:34:06Z</time>
      </trkpt>
      <trkpt lat="45.73659" lon="2.9646">
        <ele>1005.2</ele>
        <time>2021-08-14T15:34:09Z</time>
      </trkpt>
      <trkpt lat="45.73619" lon="2.96434">
        <ele>1005.68</ele>
        <time>2021-08-14T15:34:19Z</time>
      </trkpt>
      <trkpt lat="45.73582" lon="2.9641">
        <ele>1006.16</ele>
        <time>2021-08-14T15:34:29Z</time>
      </trkpt>
      <trkpt lat="45.73551" lon="2.9639">
        <ele>1007.12</ele>
        <time>2021-08-14T15:34:38Z</time>
      </trkpt>
      <trkpt lat="45.73524" lon="2.96377">
        <ele>1007.6</ele>
        <time>2021-08-14T15:34:45Z</time>
      </trkpt>
      <trkpt lat="45.73488" lon="2.96361">
        <ele>1007.6</ele>
        <time>2021-08-14T15:34:54Z</time>
      </trkpt>
      <trkpt lat="45.73481" lon="2.96358">
        <ele>1007.6</ele>
        <time>2021-08-14T15:34:56Z</time>
      </trkpt>
      <trkpt lat="45.73477" lon="2.96357">
        <ele>1007.6</ele>
        <time>2021-08-14T15:34:57Z</time>
      </trkpt>
      <trkpt lat="45.7345" lon="2.96342">
        <ele>1008.08</ele>
        <time>2021-08-14T15:35:04Z</time>
      </trkpt>
      <trkpt lat="45.73423" lon="2.9633">
        <ele>1008.08</ele>
        <time>2021-08-14T15:35:11Z</time>
      </trkpt>
      <trkpt lat="45.734" lon="2.96321">
        <ele>1009.04</ele>
        <time>2021-08-14T15:35:17Z</time>
      </trkpt>
      <trkpt lat="45.73372" lon="2.96309">
        <ele>1009.52</ele>
        <time>2021-08-14T15:35:24Z</time>
      </trkpt>
      <trkpt lat="45.73346" lon="2.96297">
        <ele>1010.96</ele>
        <time>2021-08-14T15:35:31Z</time>
      </trkpt>
      <trkpt lat="45.73315" lon="2.96285">
        <ele>1011.44</ele>
        <time>2021-08-14T15:35:39Z</time>
      </trkpt>
      <trkpt lat="45.73285" lon="2.96266">
        <ele>1012.41</ele>
        <time>2021-08-14T15:35:47Z</time>
      </trkpt>
      <trkpt lat="45.73263" lon="2.96251">
        <ele>1013.37</ele>
        <time>2021-08-14T15:35:55Z</time>
      </trkpt>
      <trkpt lat="45.73245" lon="2.96239">
        <ele>1014.33</ele>
        <time>2021-08-14T15:36:02Z</time>
      </trkpt>
      <trkpt lat="45.73223" lon="2.96223">
        <ele>1015.29</ele>
        <time>2021-08-14T15:36:10Z</time>
      </trkpt>
      <trkpt lat="45.73201" lon="2.96208">
        <ele>1015.77</ele>
        <time>2021-08-14T15:36:18Z</time>
      </trkpt>
      <trkpt lat="45.73183" lon="2.96193">
        <ele>1016.73</ele>
        <time>2021-08-14T15:36:25Z</time>
      </trkpt>
      <trkpt lat="45.7316" lon="2.96178">
        <ele>1018.17</ele>
        <time>2021-08-14T15:36:34Z</time>
      </trkpt>
      <trkpt lat="45.73145" lon="2.96168">
        <ele>1018.65</ele>
        <time>2021-08-14T15:36:40Z</time>
      </trkpt>
      <trkpt lat="45.73132" lon="2.96162">
        <ele>1019.62</ele>
        <time>2021-08-14T15:36:47Z</time>
      </trkpt>
      <trkpt lat="45.7312" lon="2.9616">
        <ele>1020.58</ele>
        <time>2021-08-14T15:36:55Z</time>
      </trkpt>
      <trkpt lat="45.73102" lon="2.96158">
        <ele>1021.54</ele>
        <time>2021-08-14T15:37:05Z</time>
      </trkpt>
      <trkpt lat="45.73084" lon="2.96148">
        <ele>1022.98</ele>
        <time>2021-08-14T15:37:15Z</time>
      </trkpt>
      <trkpt lat="45.73073" lon="2.96142">
        <ele>1023.94</ele>
        <time>2021-08-14T15:37:23Z</time>
      </trkpt>
      <trkpt lat="45.73072" lon="2.96141">
        <ele>1024.42</ele>
        <time>2021-08-14T15:37:24Z</time>
      </trkpt>
      <trkpt lat="45.73071" lon="2.96139">
        <ele>1024.42</ele>
        <time>2021-08-14T15:37:25Z</time>
      </trkpt>
      <trkpt lat="45.73063" lon="2.96132">
        <ele>1024.9</ele>
        <time>2021-08-14T15:37:31Z</time>
      </trkpt>
      <trkpt lat="45.73056" lon="2.96125">
        <ele>1025.86</ele>
        <time>2021-08-14T15:37:37Z</time>
      </trkpt>
      <trkpt lat="45.73046" lon="2.96118">
        <ele>1027.31</ele>
        <time>2021-08-14T15:37:44Z</time>
      </trkpt>
      <trkpt lat="45.73041" lon="2.96113">
        <ele>1027.79</ele>
        <time>2021-08-14T15:37:49Z</time>
      </trkpt>
      <trkpt lat="45.73036" lon="2.96107">
        <ele>1028.27</ele>
        <time>2021-08-14T15:37:53Z</time>
      </trkpt>
      <trkpt lat="45.73028" lon="2.96098">
        <ele>1029.23</ele>
        <time>2021-08-14T15:38:00Z</time>
      </trkpt>
      <trkpt lat="45.73027" lon="2.96097">
        <ele>1029.71</ele>
        <time>2021-08-14T15:38:01Z</time>
      </trkpt>
      <trkpt lat="45.73016" lon="2.96086">
        <ele>1030.67</ele>
        <time>2021-08-14T15:38:10Z</time>
      </trkpt>
      <trkpt lat="45.73015" lon="2.96084">
        <ele>1030.67</ele>
        <time>2021-08-14T15:38:11Z</time>
      </trkpt>
      <trkpt lat="45.73013" lon="2.96083">
        <ele>1030.67</ele>
        <time>2021-08-14T15:38:12Z</time>
      </trkpt>
      <trkpt lat="45.73009" lon="2.96073">
        <ele>1032.11</ele>
        <time>2021-08-14T15:38:18Z</time>
      </trkpt>
      <trkpt lat="45.73008" lon="2.96072">
        <ele>1032.11</ele>
        <time>2021-08-14T15:38:19Z</time>
      </trkpt>
      <trkpt lat="45.73005" lon="2.96062">
        <ele>1032.59</ele>
        <time>2021-08-14T15:38:25Z</time>
      </trkpt>
      <trkpt lat="45.73" lon="2.96053">
        <ele>1033.55</ele>
        <time>2021-08-14T15:38:30Z</time>
      </trkpt>
      <trkpt lat="45.72996" lon="2.96038">
        <ele>1034.52</ele>
        <time>2021-08-14T15:38:38Z</time>
      </trkpt>
      <trkpt lat="45.72989" lon="2.96025">
        <ele>1035.48</ele>
        <time>2021-08-14T15:38:45Z</time>
      </trkpt>
      <trkpt lat="45.72988" lon="2.96021">
        <ele>1035.96</ele>
        <time>2021-08-14T15:38:47Z</time>
      </trkpt>
      <trkpt lat="45.72986" lon="2.96019">
        <ele>1035.96</ele>
        <time>2021-08-14T15:38:48Z</time>
      </trkpt>
      <trkpt lat="45.72985" lon="2.96018">
        <ele>1036.44</ele>
        <time>2021-08-14T15:38:49Z</time>
      </trkpt>
      <trkpt lat="45.72979" lon="2.96007">
        <ele>1037.4</ele>
        <time>2021-08-14T15:38:56Z</time>
      </trkpt>
      <trkpt lat="45.72968" lon="2.95994">
        <ele>1038.84</ele>
        <time>2021-08-14T15:39:06Z</time>
      </trkpt>
      <trkpt lat="45.7296" lon="2.95985">
        <ele>1040.28</ele>
        <time>2021-08-14T15:39:14Z</time>
      </trkpt>
      <trkpt lat="45.72952" lon="2.95978">
        <ele>1041.25</ele>
        <time>2021-08-14T15:39:21Z</time>
      </trkpt>
      <trkpt lat="45.72951" lon="2.95977">
        <ele>1041.25</ele>
        <time>2021-08-14T15:39:22Z</time>
      </trkpt>
      <trkpt lat="45.7295" lon="2.95976">
        <ele>1041.25</ele>
        <time>2021-08-14T15:39:23Z</time>
      </trkpt>
      <trkpt lat="45.72948" lon="2.95975">
        <ele>1041.73</ele>
        <time>2021-08-14T15:39:24Z</time>
      </trkpt>
      <trkpt lat="45.72947" lon="2.95974">
        <ele>1041.73</ele>
        <time>2021-08-14T15:39:25Z</time>
      </trkpt>
      <trkpt lat="45.7294" lon="2.95963">
        <ele>1042.69</ele>
        <time>2021-08-14T15:39:33Z</time>
      </trkpt>
      <trkpt lat="45.72938" lon="2.9596">
        <ele>1042.69</ele>
        <time>2021-08-14T15:39:35Z</time>
      </trkpt>
      <trkpt lat="45.72931" lon="2.95953">
        <ele>1043.65</ele>
        <time>2021-08-14T15:39:42Z</time>
      </trkpt>
      <trkpt lat="45.72923" lon="2.95947">
        <ele>1045.09</ele>
        <time>2021-08-14T15:39:48Z</time>
      </trkpt>
      <trkpt lat="45.72917" lon="2.95938">
        <ele>1046.05</ele>
        <time>2021-08-14T15:39:55Z</time>
      </trkpt>
      <trkpt lat="45.72911" lon="2.9593">
        <ele>1047.49</ele>
        <time>2021-08-14T15:40:02Z</time>
      </trkpt>
      <trkpt lat="45.72903" lon="2.95923">
        <ele>1047.97</ele>
        <time>2021-08-14T15:40:10Z</time>
      </trkpt>
      <trkpt lat="45.729" lon="2.95921">
        <ele>1048.45</ele>
        <time>2021-08-14T15:40:12Z</time>
      </trkpt>
      <trkpt lat="45.72897" lon="2.95918">
        <ele>1048.94</ele>
        <time>2021-08-14T15:40:15Z</time>
      </trkpt>
      <trkpt lat="45.72889" lon="2.9591">
        <ele>1049.42</ele>
        <time>2021-08-14T15:40:23Z</time>
      </trkpt>
      <trkpt lat="45.72879" lon="2.95899">
        <ele>1050.38</ele>
        <time>2021-08-14T15:40:31Z</time>
      </trkpt>
      <trkpt lat="45.72877" lon="2.95896">
        <ele>1050.86</ele>
        <time>2021-08-14T15:40:33Z</time>
      </trkpt>
      <trkpt lat="45.72876" lon="2.95895">
        <ele>1050.86</ele>
        <time>2021-08-14T15:40:34Z</time>
      </trkpt>
      <trkpt lat="45.72865" lon="2.95883">
        <ele>1051.82</ele>
        <time>2021-08-14T15:40:42Z</time>
      </trkpt>
      <trkpt lat="45.72862" lon="2.95879">
        <ele>1052.3</ele>
        <time>2021-08-14T15:40:45Z</time>
      </trkpt>
      <trkpt lat="45.72861" lon="2.95877">
        <ele>1052.3</ele>
        <time>2021-08-14T15:40:46Z</time>
      </trkpt>
      <trkpt lat="45.7286" lon="2.95875">
        <ele>1052.3</ele>
        <time>2021-08-14T15:40:47Z</time>
      </trkpt>
      <trkpt lat="45.72855" lon="2.95864">
        <ele>1053.26</ele>
        <time>2021-08-14T15:40:53Z</time>
      </trkpt>
      <trkpt lat="45.72851" lon="2.95856">
        <ele>1054.22</ele>
        <time>2021-08-14T15:40:58Z</time>
      </trkpt>
      <trkpt lat="45.7285" lon="2.95853">
        <ele>1054.22</ele>
        <time>2021-08-14T15:40:59Z</time>
      </trkpt>
      <trkpt lat="45.72849" lon="2.95851">
        <ele>1054.7</ele>
        <time>2021-08-14T15:41:00Z</time>
      </trkpt>
      <trkpt lat="45.72848" lon="2.95849">
        <ele>1054.7</ele>
        <time>2021-08-14T15:41:01Z</time>
      </trkpt>
      <trkpt lat="45.72847" lon="2.95847">
        <ele>1054.7</ele>
        <time>2021-08-14T15:41:02Z</time>
      </trkpt>
      <trkpt lat="45.72847" lon="2.95845">
        <ele>1054.7</ele>
        <time>2021-08-14T15:41:03Z</time>
      </trkpt>
      <trkpt lat="45.72846" lon="2.95842">
        <ele>1054.7</ele>
        <time>2021-08-14T15:41:04Z</time>
      </trkpt>
      <trkpt lat="45.72845" lon="2.9584">
        <ele>1055.18</ele>
        <time>2021-08-14T15:41:05Z</time>
      </trkpt>
      <trkpt lat="45.72844" lon="2.95838">
        <ele>1055.18</ele>
        <time>2021-08-14T15:41:06Z</time>
      </trkpt>
      <trkpt lat="45.72843" lon="2.95836">
        <ele>1055.18</ele>
        <time>2021-08-14T15:41:07Z</time>
      </trkpt>
      <trkpt lat="45.72836" lon="2.95821">
        <ele>1056.15</ele>
        <time>2021-08-14T15:41:14Z</time>
      </trkpt>
      <trkpt lat="45.72828" lon="2.95807">
        <ele>1057.59</ele>
        <time>2021-08-14T15:41:23Z</time>
      </trkpt>
      <trkpt lat="45.72821" lon="2.95794">
        <ele>1058.07</ele>
        <time>2021-08-14T15:41:31Z</time>
      </trkpt>
      <trkpt lat="45.72812" lon="2.95783">
        <ele>1059.03</ele>
        <time>2021-08-14T15:41:38Z</time>
      </trkpt>
      <trkpt lat="45.72804" lon="2.9577">
        <ele>1059.51</ele>
        <time>2021-08-14T15:41:44Z</time>
      </trkpt>
      <trkpt lat="45.72802" lon="2.95767">
        <ele>1059.51</ele>
        <time>2021-08-14T15:41:45Z</time>
      </trkpt>
      <trkpt lat="45.72801" lon="2.95766">
        <ele>1060.47</ele>
        <time>2021-08-14T15:41:46Z</time>
      </trkpt>
      <trkpt lat="45.728" lon="2.95763">
        <ele>1060.47</ele>
        <time>2021-08-14T15:41:47Z</time>
      </trkpt>
      <trkpt lat="45.72799" lon="2.95762">
        <ele>1060.47</ele>
        <time>2021-08-14T15:41:48Z</time>
      </trkpt>
      <trkpt lat="45.72797" lon="2.9576">
        <ele>1060.47</ele>
        <time>2021-08-14T15:41:49Z</time>
      </trkpt>
      <trkpt lat="45.72789" lon="2.95747">
        <ele>1060.95</ele>
        <time>2021-08-14T15:41:55Z</time>
      </trkpt>
      <trkpt lat="45.72779" lon="2.95731">
        <ele>1061.43</ele>
        <time>2021-08-14T15:42:02Z</time>
      </trkpt>
      <trkpt lat="45.72775" lon="2.95725">
        <ele>1062.39</ele>
        <time>2021-08-14T15:42:06Z</time>
      </trkpt>
      <trkpt lat="45.72774" lon="2.95723">
        <ele>1062.39</ele>
        <time>2021-08-14T15:42:07Z</time>
      </trkpt>
      <trkpt lat="45.72772" lon="2.95721">
        <ele>1062.39</ele>
        <time>2021-08-14T15:42:08Z</time>
      </trkpt>
      <trkpt lat="45.72771" lon="2.95719">
        <ele>1062.39</ele>
        <time>2021-08-14T15:42:09Z</time>
      </trkpt>
      <trkpt lat="45.72769" lon="2.95717">
        <ele>1062.39</ele>
        <time>2021-08-14T15:42:10Z</time>
      </trkpt>
      <trkpt lat="45.72767" lon="2.95714">
        <ele>1062.87</ele>
        <time>2021-08-14T15:42:11Z</time>
      </trkpt>
      <trkpt lat="45.72764" lon="2.95711">
        <ele>1062.87</ele>
        <time>2021-08-14T15:42:13Z</time>
      </trkpt>
      <trkpt lat="45.72761" lon="2.95708">
        <ele>1062.87</ele>
        <time>2021-08-14T15:42:14Z</time>
      </trkpt>
      <trkpt lat="45.7276" lon="2.95706">
        <ele>1062.87</ele>
        <time>2021-08-14T15:42:15Z</time>
      </trkpt>
      <trkpt lat="45.72759" lon="2.95705">
        <ele>1063.36</ele>
        <time>2021-08-14T15:42:16Z</time>
      </trkpt>
      <trkpt lat="45.72749" lon="2.95692">
        <ele>1063.84</ele>
        <time>2021-08-14T15:42:22Z</time>
      </trkpt>
      <trkpt lat="45.72742" lon="2.95683">
        <ele>1064.32</ele>
        <time>2021-08-14T15:42:26Z</time>
      </trkpt>
      <trkpt lat="45.72741" lon="2.95681">
        <ele>1064.32</ele>
        <time>2021-08-14T15:42:27Z</time>
      </trkpt>
      <trkpt lat="45.72739" lon="2.95678">
        <ele>1064.32</ele>
        <time>2021-08-14T15:42:28Z</time>
      </trkpt>
      <trkpt lat="45.72737" lon="2.95676">
        <ele>1064.32</ele>
        <time>2021-08-14T15:42:29Z</time>
      </trkpt>
      <trkpt lat="45.72735" lon="2.95674">
        <ele>1064.32</ele>
        <time>2021-08-14T15:42:30Z</time>
      </trkpt>
      <trkpt lat="45.72733" lon="2.95671">
        <ele>1064.8</ele>
        <time>2021-08-14T15:42:31Z</time>
      </trkpt>
      <trkpt lat="45.72731" lon="2.95669">
        <ele>1064.8</ele>
        <time>2021-08-14T15:42:32Z</time>
      </trkpt>
      <trkpt lat="45.72715" lon="2.95657">
        <ele>1065.28</ele>
        <time>2021-08-14T15:42:40Z</time>
      </trkpt>
      <trkpt lat="45.72701" lon="2.95652">
        <ele>1065.76</ele>
        <time>2021-08-14T15:42:46Z</time>
      </trkpt>
      <trkpt lat="45.72699" lon="2.95652">
        <ele>1065.76</ele>
        <time>2021-08-14T15:42:47Z</time>
      </trkpt>
      <trkpt lat="45.72697" lon="2.95653">
        <ele>1065.76</ele>
        <time>2021-08-14T15:42:48Z</time>
      </trkpt>
      <trkpt lat="45.72693" lon="2.95652">
        <ele>1065.76</ele>
        <time>2021-08-14T15:42:49Z</time>
      </trkpt>
      <trkpt lat="45.72689" lon="2.95651">
        <ele>1065.76</ele>
        <time>2021-08-14T15:42:50Z</time>
      </trkpt>
      <trkpt lat="45.72687" lon="2.9565">
        <ele>1065.76</ele>
        <time>2021-08-14T15:42:51Z</time>
      </trkpt>
      <trkpt lat="45.72685" lon="2.9565">
        <ele>1065.76</ele>
        <time>2021-08-14T15:42:52Z</time>
      </trkpt>
      <trkpt lat="45.72684" lon="2.9565">
        <ele>1065.76</ele>
        <time>2021-08-14T15:42:53Z</time>
      </trkpt>
      <trkpt lat="45.72682" lon="2.95652">
        <ele>1065.76</ele>
        <time>2021-08-14T15:42:54Z</time>
      </trkpt>
      <trkpt lat="45.7268" lon="2.95653">
        <ele>1065.76</ele>
        <time>2021-08-14T15:42:55Z</time>
      </trkpt>
      <trkpt lat="45.72678" lon="2.95653">
        <ele>1065.76</ele>
        <time>2021-08-14T15:42:56Z</time>
      </trkpt>
      <trkpt lat="45.72675" lon="2.95653">
        <ele>1065.76</ele>
        <time>2021-08-14T15:42:57Z</time>
      </trkpt>
      <trkpt lat="45.72673" lon="2.95653">
        <ele>1065.76</ele>
        <time>2021-08-14T15:42:58Z</time>
      </trkpt>
      <trkpt lat="45.72671" lon="2.95652">
        <ele>1065.76</ele>
        <time>2021-08-14T15:42:59Z</time>
      </trkpt>
      <trkpt lat="45.72669" lon="2.95651">
        <ele>1065.76</ele>
        <time>2021-08-14T15:43:00Z</time>
      </trkpt>
      <trkpt lat="45.72667" lon="2.9565">
        <ele>1065.76</ele>
        <time>2021-08-14T15:43:01Z</time>
      </trkpt>
      <trkpt lat="45.72652" lon="2.95649">
        <ele>1066.24</ele>
        <time>2021-08-14T15:43:07Z</time>
      </trkpt>
      <trkpt lat="45.72636" lon="2.95647">
        <ele>1067.2</ele>
        <time>2021-08-14T15:43:14Z</time>
      </trkpt>
      <trkpt lat="45.7262" lon="2.95645">
        <ele>1067.68</ele>
        <time>2021-08-14T15:43:21Z</time>
      </trkpt>
      <trkpt lat="45.72607" lon="2.9564">
        <ele>1068.64</ele>
        <time>2021-08-14T15:43:27Z</time>
      </trkpt>
      <trkpt lat="45.72588" lon="2.95629">
        <ele>1069.12</ele>
        <time>2021-08-14T15:43:35Z</time>
      </trkpt>
      <trkpt lat="45.72577" lon="2.9562">
        <ele>1070.08</ele>
        <time>2021-08-14T15:43:41Z</time>
      </trkpt>
      <trkpt lat="45.72569" lon="2.95611">
        <ele>1070.57</ele>
        <time>2021-08-14T15:43:47Z</time>
      </trkpt>
      <trkpt lat="45.72549" lon="2.95598">
        <ele>1072.01</ele>
        <time>2021-08-14T15:43:53Z</time>
      </trkpt>
      <trkpt lat="45.72539" lon="2.95588">
        <ele>1072.01</ele>
        <time>2021-08-14T15:43:58Z</time>
      </trkpt>
      <trkpt lat="45.72525" lon="2.95575">
        <ele>1072.97</ele>
        <time>2021-08-14T15:44:05Z</time>
      </trkpt>
      <trkpt lat="45.7251" lon="2.95562">
        <ele>1073.93</ele>
        <time>2021-08-14T15:44:12Z</time>
      </trkpt>
      <trkpt lat="45.72492" lon="2.95546">
        <ele>1074.89</ele>
        <time>2021-08-14T15:44:20Z</time>
      </trkpt>
      <trkpt lat="45.72478" lon="2.95534">
        <ele>1075.85</ele>
        <time>2021-08-14T15:44:26Z</time>
      </trkpt>
      <trkpt lat="45.72464" lon="2.95519">
        <ele>1076.81</ele>
        <time>2021-08-14T15:44:34Z</time>
      </trkpt>
      <trkpt lat="45.7245" lon="2.95508">
        <ele>1077.78</ele>
        <time>2021-08-14T15:44:41Z</time>
      </trkpt>
      <trkpt lat="45.72439" lon="2.95494">
        <ele>1078.74</ele>
        <time>2021-08-14T15:44:49Z</time>
      </trkpt>
      <trkpt lat="45.72423" lon="2.95476">
        <ele>1080.18</ele>
        <time>2021-08-14T15:44:58Z</time>
      </trkpt>
      <trkpt lat="45.72409" lon="2.95459">
        <ele>1081.62</ele>
        <time>2021-08-14T15:45:07Z</time>
      </trkpt>
      <trkpt lat="45.72404" lon="2.9545">
        <ele>1082.1</ele>
        <time>2021-08-14T15:45:12Z</time>
      </trkpt>
      <trkpt lat="45.72396" lon="2.9544">
        <ele>1083.06</ele>
        <time>2021-08-14T15:45:19Z</time>
      </trkpt>
      <trkpt lat="45.72395" lon="2.95439">
        <ele>1083.54</ele>
        <time>2021-08-14T15:45:20Z</time>
      </trkpt>
      <trkpt lat="45.72393" lon="2.95438">
        <ele>1083.54</ele>
        <time>2021-08-14T15:45:21Z</time>
      </trkpt>
      <trkpt lat="45.72392" lon="2.95436">
        <ele>1084.02</ele>
        <time>2021-08-14T15:45:22Z</time>
      </trkpt>
      <trkpt lat="45.72378" lon="2.95418">
        <ele>1085.47</ele>
        <time>2021-08-14T15:45:32Z</time>
      </trkpt>
      <trkpt lat="45.72368" lon="2.95407">
        <ele>1086.91</ele>
        <time>2021-08-14T15:45:39Z</time>
      </trkpt>
      <trkpt lat="45.72359" lon="2.95396">
        <ele>1087.87</ele>
        <time>2021-08-14T15:45:47Z</time>
      </trkpt>
      <trkpt lat="45.72354" lon="2.95385">
        <ele>1088.83</ele>
        <time>2021-08-14T15:45:54Z</time>
      </trkpt>
      <trkpt lat="45.72345" lon="2.95374">
        <ele>1090.27</ele>
        <time>2021-08-14T15:46:01Z</time>
      </trkpt>
      <trkpt lat="45.72335" lon="2.95364">
        <ele>1091.23</ele>
        <time>2021-08-14T15:46:08Z</time>
      </trkpt>
      <trkpt lat="45.72334" lon="2.95363">
        <ele>1091.23</ele>
        <time>2021-08-14T15:46:09Z</time>
      </trkpt>
      <trkpt lat="45.72323" lon="2.95351">
        <ele>1091.71</ele>
        <time>2021-08-14T15:46:18Z</time>
      </trkpt>
      <trkpt lat="45.72315" lon="2.95345">
        <ele>1092.68</ele>
        <time>2021-08-14T15:46:24Z</time>
      </trkpt>
      <trkpt lat="45.72303" lon="2.9533">
        <ele>1093.64</ele>
        <time>2021-08-14T15:46:32Z</time>
      </trkpt>
      <trkpt lat="45.72289" lon="2.95315">
        <ele>1095.08</ele>
        <time>2021-08-14T15:46:41Z</time>
      </trkpt>
      <trkpt lat="45.72287" lon="2.95314">
        <ele>1095.08</ele>
        <time>2021-08-14T15:46:42Z</time>
      </trkpt>
      <trkpt lat="45.72286" lon="2.95312">
        <ele>1095.08</ele>
        <time>2021-08-14T15:46:43Z</time>
      </trkpt>
      <trkpt lat="45.72278" lon="2.95302">
        <ele>1096.04</ele>
        <time>2021-08-14T15:46:49Z</time>
      </trkpt>
      <trkpt lat="45.72277" lon="2.953">
        <ele>1096.04</ele>
        <time>2021-08-14T15:46:50Z</time>
      </trkpt>
      <trkpt lat="45.72275" lon="2.95298">
        <ele>1096.04</ele>
        <time>2021-08-14T15:46:51Z</time>
      </trkpt>
      <trkpt lat="45.72274" lon="2.95297">
        <ele>1096.04</ele>
        <time>2021-08-14T15:46:52Z</time>
      </trkpt>
      <trkpt lat="45.72273" lon="2.95295">
        <ele>1096.04</ele>
        <time>2021-08-14T15:46:53Z</time>
      </trkpt>
      <trkpt lat="45.72272" lon="2.95293">
        <ele>1096.04</ele>
        <time>2021-08-14T15:46:54Z</time>
      </trkpt>
      <trkpt lat="45.72259" lon="2.95275">
        <ele>1097.48</ele>
        <time>2021-08-14T15:47:02Z</time>
      </trkpt>
      <trkpt lat="45.72246" lon="2.95261">
        <ele>1097.96</ele>
        <time>2021-08-14T15:47:09Z</time>
      </trkpt>
      <trkpt lat="45.72228" lon="2.95244">
        <ele>1098.92</ele>
        <time>2021-08-14T15:47:16Z</time>
      </trkpt>
      <trkpt lat="45.72216" lon="2.95226">
        <ele>1099.89</ele>
        <time>2021-08-14T15:47:22Z</time>
      </trkpt>
      <trkpt lat="45.72196" lon="2.9522">
        <ele>1099.89</ele>
        <time>2021-08-14T15:47:28Z</time>
      </trkpt>
      <trkpt lat="45.7218" lon="2.95217">
        <ele>1100.37</ele>
        <time>2021-08-14T15:47:34Z</time>
      </trkpt>
      <trkpt lat="45.72179" lon="2.95217">
        <ele>1100.37</ele>
        <time>2021-08-14T15:47:50Z</time>
      </trkpt>
      <trkpt lat="45.72179" lon="2.95215">
        <ele>1100.37</ele>
        <time>2021-08-14T15:48:06Z</time>
      </trkpt>
      <trkpt lat="45.72179" lon="2.95215">
        <ele>1099.89</ele>
        <time>2021-08-14T15:48:18Z</time>
      </trkpt>
      <trkpt lat="45.72179" lon="2.95217">
        <ele>1099.89</ele>
        <time>2021-08-14T15:48:31Z</time>
      </trkpt>
      <trkpt lat="45.72179" lon="2.95214">
        <ele>1099.89</ele>
        <time>2021-08-14T15:48:36Z</time>
      </trkpt>
      <trkpt lat="45.72178" lon="2.95212">
        <ele>1099.89</ele>
        <time>2021-08-14T15:48:37Z</time>
      </trkpt>
      <trkpt lat="45.72176" lon="2.9521">
        <ele>1099.89</ele>
        <time>2021-08-14T15:48:38Z</time>
      </trkpt>
      <trkpt lat="45.72175" lon="2.95209">
        <ele>1099.89</ele>
        <time>2021-08-14T15:48:39Z</time>
      </trkpt>
      <trkpt lat="45.72173" lon="2.95207">
        <ele>1099.89</ele>
        <time>2021-08-14T15:48:40Z</time>
      </trkpt>
      <trkpt lat="45.72171" lon="2.95206">
        <ele>1099.89</ele>
        <time>2021-08-14T15:48:41Z</time>
      </trkpt>
      <trkpt lat="45.72169" lon="2.95204">
        <ele>1099.89</ele>
        <time>2021-08-14T15:48:42Z</time>
      </trkpt>
      <trkpt lat="45.72167" lon="2.95202">
        <ele>1099.89</ele>
        <time>2021-08-14T15:48:43Z</time>
      </trkpt>
      <trkpt lat="45.72164" lon="2.952">
        <ele>1098.92</ele>
        <time>2021-08-14T15:48:44Z</time>
      </trkpt>
      <trkpt lat="45.72141" lon="2.95182">
        <ele>1097.48</ele>
        <time>2021-08-14T15:48:53Z</time>
      </trkpt>
      <trkpt lat="45.72119" lon="2.95169">
        <ele>1095.56</ele>
        <time>2021-08-14T15:48:59Z</time>
      </trkpt>
      <trkpt lat="45.72113" lon="2.95166">
        <ele>1095.08</ele>
        <time>2021-08-14T15:49:01Z</time>
      </trkpt>
      <trkpt lat="45.72108" lon="2.95164">
        <ele>1094.12</ele>
        <time>2021-08-14T15:49:03Z</time>
      </trkpt>
      <trkpt lat="45.72104" lon="2.95163">
        <ele>1093.16</ele>
        <time>2021-08-14T15:49:04Z</time>
      </trkpt>
      <trkpt lat="45.72089" lon="2.95155">
        <ele>1091.71</ele>
        <time>2021-08-14T15:49:09Z</time>
      </trkpt>
      <trkpt lat="45.72074" lon="2.95145">
        <ele>1090.75</ele>
        <time>2021-08-14T15:49:14Z</time>
      </trkpt>
      <trkpt lat="45.72065" lon="2.9514">
        <ele>1089.31</ele>
        <time>2021-08-14T15:49:17Z</time>
      </trkpt>
      <trkpt lat="45.72061" lon="2.95139">
        <ele>1088.83</ele>
        <time>2021-08-14T15:49:18Z</time>
      </trkpt>
      <trkpt lat="45.72058" lon="2.95136">
        <ele>1088.83</ele>
        <time>2021-08-14T15:49:19Z</time>
      </trkpt>
      <trkpt lat="45.72055" lon="2.95134">
        <ele>1088.35</ele>
        <time>2021-08-14T15:49:20Z</time>
      </trkpt>
      <trkpt lat="45.72051" lon="2.95132">
        <ele>1087.87</ele>
        <time>2021-08-14T15:49:21Z</time>
      </trkpt>
      <trkpt lat="45.72048" lon="2.95129">
        <ele>1087.39</ele>
        <time>2021-08-14T15:49:22Z</time>
      </trkpt>
      <trkpt lat="45.72044" lon="2.95125">
        <ele>1087.39</ele>
        <time>2021-08-14T15:49:23Z</time>
      </trkpt>
      <trkpt lat="45.72022" lon="2.95108">
        <ele>1085.47</ele>
        <time>2021-08-14T15:49:29Z</time>
      </trkpt>
      <trkpt lat="45.72014" lon="2.95102">
        <ele>1084.5</ele>
        <time>2021-08-14T15:49:31Z</time>
      </trkpt>
      <trkpt lat="45.71996" lon="2.95094">
        <ele>1084.02</ele>
        <time>2021-08-14T15:49:36Z</time>
      </trkpt>
      <trkpt lat="45.71977" lon="2.95082">
        <ele>1082.58</ele>
        <time>2021-08-14T15:49:43Z</time>
      </trkpt>
      <trkpt lat="45.71957" lon="2.9507">
        <ele>1081.14</ele>
        <time>2021-08-14T15:49:49Z</time>
      </trkpt>
      <trkpt lat="45.71948" lon="2.95066">
        <ele>1080.18</ele>
        <time>2021-08-14T15:49:51Z</time>
      </trkpt>
      <trkpt lat="45.71917" lon="2.95044">
        <ele>1080.18</ele>
        <time>2021-08-14T15:49:58Z</time>
      </trkpt>
      <trkpt lat="45.71913" lon="2.95041">
        <ele>1079.7</ele>
        <time>2021-08-14T15:49:59Z</time>
      </trkpt>
      <trkpt lat="45.71909" lon="2.95038">
        <ele>1079.7</ele>
        <time>2021-08-14T15:50:00Z</time>
      </trkpt>
      <trkpt lat="45.71904" lon="2.95034">
        <ele>1079.7</ele>
        <time>2021-08-14T15:50:01Z</time>
      </trkpt>
      <trkpt lat="45.71895" lon="2.95028">
        <ele>1079.22</ele>
        <time>2021-08-14T15:50:03Z</time>
      </trkpt>
      <trkpt lat="45.7189" lon="2.95026">
        <ele>1079.22</ele>
        <time>2021-08-14T15:50:04Z</time>
      </trkpt>
      <trkpt lat="45.71884" lon="2.95023">
        <ele>1078.26</ele>
        <time>2021-08-14T15:50:05Z</time>
      </trkpt>
      <trkpt lat="45.71856" lon="2.95005">
        <ele>1077.78</ele>
        <time>2021-08-14T15:50:10Z</time>
      </trkpt>
      <trkpt lat="45.71825" lon="2.94976">
        <ele>1077.78</ele>
        <time>2021-08-14T15:50:16Z</time>
      </trkpt>
      <trkpt lat="45.7182" lon="2.94971">
        <ele>1077.78</ele>
        <time>2021-08-14T15:50:17Z</time>
      </trkpt>
      <trkpt lat="45.71811" lon="2.94961">
        <ele>1077.78</ele>
        <time>2021-08-14T15:50:19Z</time>
      </trkpt>
      <trkpt lat="45.71786" lon="2.94947">
        <ele>1077.78</ele>
        <time>2021-08-14T15:50:25Z</time>
      </trkpt>
      <trkpt lat="45.71767" lon="2.94937">
        <ele>1077.78</ele>
        <time>2021-08-14T15:50:30Z</time>
      </trkpt>
      <trkpt lat="45.71763" lon="2.94935">
        <ele>1077.78</ele>
        <time>2021-08-14T15:50:31Z</time>
      </trkpt>
      <trkpt lat="45.71758" lon="2.94932">
        <ele>1077.78</ele>
        <time>2021-08-14T15:50:32Z</time>
      </trkpt>
      <trkpt lat="45.71753" lon="2.9493">
        <ele>1077.78</ele>
        <time>2021-08-14T15:50:33Z</time>
      </trkpt>
      <trkpt lat="45.71748" lon="2.94927">
        <ele>1077.78</ele>
        <time>2021-08-14T15:50:34Z</time>
      </trkpt>
      <trkpt lat="45.71743" lon="2.94925">
        <ele>1077.78</ele>
        <time>2021-08-14T15:50:35Z</time>
      </trkpt>
      <trkpt lat="45.71738" lon="2.94922">
        <ele>1077.78</ele>
        <time>2021-08-14T15:50:36Z</time>
      </trkpt>
      <trkpt lat="45.71734" lon="2.9492">
        <ele>1077.78</ele>
        <time>2021-08-14T15:50:37Z</time>
      </trkpt>
      <trkpt lat="45.71726" lon="2.94915">
        <ele>1079.22</ele>
        <time>2021-08-14T15:50:39Z</time>
      </trkpt>
      <trkpt lat="45.71696" lon="2.949">
        <ele>1079.7</ele>
        <time>2021-08-14T15:50:46Z</time>
      </trkpt>
      <trkpt lat="45.71671" lon="2.94884">
        <ele>1077.78</ele>
        <time>2021-08-14T15:50:52Z</time>
      </trkpt>
      <trkpt lat="45.71661" lon="2.94879">
        <ele>1076.81</ele>
        <time>2021-08-14T15:50:54Z</time>
      </trkpt>
      <trkpt lat="45.71656" lon="2.94877">
        <ele>1076.33</ele>
        <time>2021-08-14T15:50:55Z</time>
      </trkpt>
      <trkpt lat="45.71651" lon="2.94875">
        <ele>1076.33</ele>
        <time>2021-08-14T15:50:56Z</time>
      </trkpt>
      <trkpt lat="45.71646" lon="2.94874">
        <ele>1075.85</ele>
        <time>2021-08-14T15:50:57Z</time>
      </trkpt>
      <trkpt lat="45.71641" lon="2.94872">
        <ele>1075.37</ele>
        <time>2021-08-14T15:50:58Z</time>
      </trkpt>
      <trkpt lat="45.71637" lon="2.9487">
        <ele>1075.37</ele>
        <time>2021-08-14T15:50:59Z</time>
      </trkpt>
      <trkpt lat="45.71633" lon="2.94867">
        <ele>1074.41</ele>
        <time>2021-08-14T15:51:00Z</time>
      </trkpt>
      <trkpt lat="45.71629" lon="2.94865">
        <ele>1074.41</ele>
        <time>2021-08-14T15:51:01Z</time>
      </trkpt>
      <trkpt lat="45.71624" lon="2.94863">
        <ele>1073.45</ele>
        <time>2021-08-14T15:51:02Z</time>
      </trkpt>
      <trkpt lat="45.71619" lon="2.94861">
        <ele>1073.45</ele>
        <time>2021-08-14T15:51:03Z</time>
      </trkpt>
      <trkpt lat="45.71615" lon="2.94859">
        <ele>1072.97</ele>
        <time>2021-08-14T15:51:04Z</time>
      </trkpt>
      <trkpt lat="45.71612" lon="2.94858">
        <ele>1072.97</ele>
        <time>2021-08-14T15:51:05Z</time>
      </trkpt>
      <trkpt lat="45.71608" lon="2.94857">
        <ele>1072.49</ele>
        <time>2021-08-14T15:51:06Z</time>
      </trkpt>
      <trkpt lat="45.71605" lon="2.94856">
        <ele>1072.49</ele>
        <time>2021-08-14T15:51:07Z</time>
      </trkpt>
      <trkpt lat="45.71601" lon="2.94855">
        <ele>1072.49</ele>
        <time>2021-08-14T15:51:08Z</time>
      </trkpt>
      <trkpt lat="45.71582" lon="2.94847">
        <ele>1070.57</ele>
        <time>2021-08-14T15:51:13Z</time>
      </trkpt>
      <trkpt lat="45.71577" lon="2.94846">
        <ele>1070.08</ele>
        <time>2021-08-14T15:51:14Z</time>
      </trkpt>
      <trkpt lat="45.71572" lon="2.94846">
        <ele>1070.08</ele>
        <time>2021-08-14T15:51:15Z</time>
      </trkpt>
      <trkpt lat="45.71567" lon="2.94845">
        <ele>1070.08</ele>
        <time>2021-08-14T15:51:16Z</time>
      </trkpt>
      <trkpt lat="45.71563" lon="2.94843">
        <ele>1069.12</ele>
        <time>2021-08-14T15:51:17Z</time>
      </trkpt>
      <trkpt lat="45.71558" lon="2.94842">
        <ele>1069.12</ele>
        <time>2021-08-14T15:51:18Z</time>
      </trkpt>
      <trkpt lat="45.71535" lon="2.94831">
        <ele>1067.2</ele>
        <time>2021-08-14T15:51:23Z</time>
      </trkpt>
      <trkpt lat="45.7152" lon="2.94827">
        <ele>1066.24</ele>
        <time>2021-08-14T15:51:26Z</time>
      </trkpt>
      <trkpt lat="45.71514" lon="2.94825">
        <ele>1066.24</ele>
        <time>2021-08-14T15:51:27Z</time>
      </trkpt>
      <trkpt lat="45.71498" lon="2.9482">
        <ele>1064.8</ele>
        <time>2021-08-14T15:51:30Z</time>
      </trkpt>
      <trkpt lat="45.71482" lon="2.94811">
        <ele>1063.84</ele>
        <time>2021-08-14T15:51:33Z</time>
      </trkpt>
      <trkpt lat="45.71476" lon="2.9481">
        <ele>1062.87</ele>
        <time>2021-08-14T15:51:34Z</time>
      </trkpt>
      <trkpt lat="45.71457" lon="2.94807">
        <ele>1060.95</ele>
        <time>2021-08-14T15:51:37Z</time>
      </trkpt>
      <trkpt lat="45.71451" lon="2.94806">
        <ele>1059.99</ele>
        <time>2021-08-14T15:51:38Z</time>
      </trkpt>
      <trkpt lat="45.71446" lon="2.94803">
        <ele>1059.99</ele>
        <time>2021-08-14T15:51:39Z</time>
      </trkpt>
      <trkpt lat="45.71442" lon="2.94801">
        <ele>1059.99</ele>
        <time>2021-08-14T15:51:40Z</time>
      </trkpt>
      <trkpt lat="45.71439" lon="2.94798">
        <ele>1059.99</ele>
        <time>2021-08-14T15:51:41Z</time>
      </trkpt>
      <trkpt lat="45.71436" lon="2.94797">
        <ele>1059.51</ele>
        <time>2021-08-14T15:51:42Z</time>
      </trkpt>
      <trkpt lat="45.71433" lon="2.94795">
        <ele>1059.51</ele>
        <time>2021-08-14T15:51:43Z</time>
      </trkpt>
      <trkpt lat="45.7143" lon="2.94793">
        <ele>1059.03</ele>
        <time>2021-08-14T15:51:44Z</time>
      </trkpt>
      <trkpt lat="45.71407" lon="2.94769">
        <ele>1057.11</ele>
        <time>2021-08-14T15:51:50Z</time>
      </trkpt>
      <trkpt lat="45.71402" lon="2.94764">
        <ele>1056.63</ele>
        <time>2021-08-14T15:51:51Z</time>
      </trkpt>
      <trkpt lat="45.71396" lon="2.94759">
        <ele>1056.15</ele>
        <time>2021-08-14T15:51:52Z</time>
      </trkpt>
      <trkpt lat="45.71392" lon="2.94755">
        <ele>1056.15</ele>
        <time>2021-08-14T15:51:53Z</time>
      </trkpt>
      <trkpt lat="45.71368" lon="2.94728">
        <ele>1055.67</ele>
        <time>2021-08-14T15:51:58Z</time>
      </trkpt>
      <trkpt lat="45.71363" lon="2.94726">
        <ele>1055.67</ele>
        <time>2021-08-14T15:51:59Z</time>
      </trkpt>
      <trkpt lat="45.71353" lon="2.94722">
        <ele>1055.67</ele>
        <time>2021-08-14T15:52:01Z</time>
      </trkpt>
      <trkpt lat="45.71343" lon="2.94719">
        <ele>1055.18</ele>
        <time>2021-08-14T15:52:03Z</time>
      </trkpt>
      <trkpt lat="45.71334" lon="2.94713">
        <ele>1055.18</ele>
        <time>2021-08-14T15:52:05Z</time>
      </trkpt>
      <trkpt lat="45.7133" lon="2.94711">
        <ele>1055.18</ele>
        <time>2021-08-14T15:52:06Z</time>
      </trkpt>
      <trkpt lat="45.71327" lon="2.94708">
        <ele>1055.18</ele>
        <time>2021-08-14T15:52:07Z</time>
      </trkpt>
      <trkpt lat="45.71323" lon="2.94705">
        <ele>1055.18</ele>
        <time>2021-08-14T15:52:08Z</time>
      </trkpt>
      <trkpt lat="45.7132" lon="2.94703">
        <ele>1055.18</ele>
        <time>2021-08-14T15:52:09Z</time>
      </trkpt>
      <trkpt lat="45.71316" lon="2.94701">
        <ele>1055.18</ele>
        <time>2021-08-14T15:52:10Z</time>
      </trkpt>
      <trkpt lat="45.71304" lon="2.94694">
        <ele>1055.18</ele>
        <time>2021-08-14T15:52:13Z</time>
      </trkpt>
      <trkpt lat="45.71291" lon="2.94684">
        <ele>1055.18</ele>
        <time>2021-08-14T15:52:16Z</time>
      </trkpt>
      <trkpt lat="45.71273" lon="2.94677">
        <ele>1055.18</ele>
        <time>2021-08-14T15:52:21Z</time>
      </trkpt>
      <trkpt lat="45.71256" lon="2.94669">
        <ele>1056.15</ele>
        <time>2021-08-14T15:52:25Z</time>
      </trkpt>
      <trkpt lat="45.71227" lon="2.94642">
        <ele>1056.15</ele>
        <time>2021-08-14T15:52:33Z</time>
      </trkpt>
      <trkpt lat="45.71201" lon="2.9461">
        <ele>1056.63</ele>
        <time>2021-08-14T15:52:41Z</time>
      </trkpt>
      <trkpt lat="45.71192" lon="2.94597">
        <ele>1056.63</ele>
        <time>2021-08-14T15:52:44Z</time>
      </trkpt>
      <trkpt lat="45.71189" lon="2.94593">
        <ele>1056.63</ele>
        <time>2021-08-14T15:52:45Z</time>
      </trkpt>
      <trkpt lat="45.71187" lon="2.94588">
        <ele>1056.63</ele>
        <time>2021-08-14T15:52:46Z</time>
      </trkpt>
      <trkpt lat="45.71184" lon="2.94584">
        <ele>1056.63</ele>
        <time>2021-08-14T15:52:47Z</time>
      </trkpt>
      <trkpt lat="45.71181" lon="2.94581">
        <ele>1056.63</ele>
        <time>2021-08-14T15:52:48Z</time>
      </trkpt>
      <trkpt lat="45.71179" lon="2.94576">
        <ele>1056.63</ele>
        <time>2021-08-14T15:52:49Z</time>
      </trkpt>
      <trkpt lat="45.71177" lon="2.94572">
        <ele>1056.63</ele>
        <time>2021-08-14T15:52:50Z</time>
      </trkpt>
      <trkpt lat="45.71175" lon="2.94568">
        <ele>1056.63</ele>
        <time>2021-08-14T15:52:51Z</time>
      </trkpt>
      <trkpt lat="45.7115" lon="2.94529">
        <ele>1057.59</ele>
        <time>2021-08-14T15:53:00Z</time>
      </trkpt>
      <trkpt lat="45.71134" lon="2.94502">
        <ele>1057.59</ele>
        <time>2021-08-14T15:53:06Z</time>
      </trkpt>
      <trkpt lat="45.71112" lon="2.94466">
        <ele>1058.55</ele>
        <time>2021-08-14T15:53:14Z</time>
      </trkpt>
      <trkpt lat="45.71106" lon="2.94456">
        <ele>1058.55</ele>
        <time>2021-08-14T15:53:16Z</time>
      </trkpt>
      <trkpt lat="45.71104" lon="2.94451">
        <ele>1058.55</ele>
        <time>2021-08-14T15:53:17Z</time>
      </trkpt>
      <trkpt lat="45.71102" lon="2.94446">
        <ele>1058.55</ele>
        <time>2021-08-14T15:53:18Z</time>
      </trkpt>
      <trkpt lat="45.71099" lon="2.94441">
        <ele>1059.03</ele>
        <time>2021-08-14T15:53:19Z</time>
      </trkpt>
      <trkpt lat="45.71097" lon="2.94438">
        <ele>1058.55</ele>
        <time>2021-08-14T15:53:20Z</time>
      </trkpt>
      <trkpt lat="45.71095" lon="2.94433">
        <ele>1058.55</ele>
        <time>2021-08-14T15:53:21Z</time>
      </trkpt>
      <trkpt lat="45.71093" lon="2.94428">
        <ele>1058.55</ele>
        <time>2021-08-14T15:53:22Z</time>
      </trkpt>
      <trkpt lat="45.7109" lon="2.94422">
        <ele>1058.55</ele>
        <time>2021-08-14T15:53:23Z</time>
      </trkpt>
      <trkpt lat="45.71088" lon="2.94417">
        <ele>1058.55</ele>
        <time>2021-08-14T15:53:24Z</time>
      </trkpt>
      <trkpt lat="45.71085" lon="2.94411">
        <ele>1058.55</ele>
        <time>2021-08-14T15:53:25Z</time>
      </trkpt>
      <trkpt lat="45.71079" lon="2.9439">
        <ele>1056.63</ele>
        <time>2021-08-14T15:53:28Z</time>
      </trkpt>
      <trkpt lat="45.71068" lon="2.94357">
        <ele>1055.18</ele>
        <time>2021-08-14T15:53:32Z</time>
      </trkpt>
      <trkpt lat="45.71065" lon="2.9435">
        <ele>1055.18</ele>
        <time>2021-08-14T15:53:33Z</time>
      </trkpt>
      <trkpt lat="45.7106" lon="2.94341">
        <ele>1054.7</ele>
        <time>2021-08-14T15:53:34Z</time>
      </trkpt>
      <trkpt lat="45.71042" lon="2.94302">
        <ele>1053.74</ele>
        <time>2021-08-14T15:53:39Z</time>
      </trkpt>
      <trkpt lat="45.71038" lon="2.94293">
        <ele>1053.26</ele>
        <time>2021-08-14T15:53:40Z</time>
      </trkpt>
      <trkpt lat="45.71022" lon="2.94261">
        <ele>1053.74</ele>
        <time>2021-08-14T15:53:45Z</time>
      </trkpt>
      <trkpt lat="45.71013" lon="2.9425">
        <ele>1053.26</ele>
        <time>2021-08-14T15:53:47Z</time>
      </trkpt>
      <trkpt lat="45.71008" lon="2.94246">
        <ele>1053.26</ele>
        <time>2021-08-14T15:53:48Z</time>
      </trkpt>
      <trkpt lat="45.71003" lon="2.94242">
        <ele>1053.26</ele>
        <time>2021-08-14T15:53:49Z</time>
      </trkpt>
      <trkpt lat="45.70998" lon="2.94237">
        <ele>1053.26</ele>
        <time>2021-08-14T15:53:50Z</time>
      </trkpt>
      <trkpt lat="45.70994" lon="2.94232">
        <ele>1053.26</ele>
        <time>2021-08-14T15:53:51Z</time>
      </trkpt>
      <trkpt lat="45.70953" lon="2.94185">
        <ele>1052.78</ele>
        <time>2021-08-14T15:54:00Z</time>
      </trkpt>
      <trkpt lat="45.70934" lon="2.94153">
        <ele>1054.7</ele>
        <time>2021-08-14T15:54:07Z</time>
      </trkpt>
      <trkpt lat="45.70915" lon="2.9412">
        <ele>1055.67</ele>
        <time>2021-08-14T15:54:16Z</time>
      </trkpt>
      <trkpt lat="45.70893" lon="2.94091">
        <ele>1056.15</ele>
        <time>2021-08-14T15:54:24Z</time>
      </trkpt>
      <trkpt lat="45.70889" lon="2.94087">
        <ele>1056.15</ele>
        <time>2021-08-14T15:54:25Z</time>
      </trkpt>
      <trkpt lat="45.70851" lon="2.94052">
        <ele>1056.15</ele>
        <time>2021-08-14T15:54:34Z</time>
      </trkpt>
      <trkpt lat="45.70836" lon="2.94038">
        <ele>1054.7</ele>
        <time>2021-08-14T15:54:37Z</time>
      </trkpt>
      <trkpt lat="45.70804" lon="2.93997">
        <ele>1054.22</ele>
        <time>2021-08-14T15:54:44Z</time>
      </trkpt>
      <trkpt lat="45.70796" lon="2.93983">
        <ele>1054.22</ele>
        <time>2021-08-14T15:54:46Z</time>
      </trkpt>
      <trkpt lat="45.70759" lon="2.93929">
        <ele>1054.22</ele>
        <time>2021-08-14T15:54:55Z</time>
      </trkpt>
      <trkpt lat="45.70755" lon="2.93923">
        <ele>1054.22</ele>
        <time>2021-08-14T15:54:56Z</time>
      </trkpt>
      <trkpt lat="45.70722" lon="2.93877">
        <ele>1055.18</ele>
        <time>2021-08-14T15:55:04Z</time>
      </trkpt>
      <trkpt lat="45.70713" lon="2.93864">
        <ele>1055.18</ele>
        <time>2021-08-14T15:55:06Z</time>
      </trkpt>
      <trkpt lat="45.70709" lon="2.93857">
        <ele>1055.18</ele>
        <time>2021-08-14T15:55:07Z</time>
      </trkpt>
      <trkpt lat="45.70706" lon="2.93852">
        <ele>1055.18</ele>
        <time>2021-08-14T15:55:08Z</time>
      </trkpt>
      <trkpt lat="45.70703" lon="2.93843">
        <ele>1055.18</ele>
        <time>2021-08-14T15:55:09Z</time>
      </trkpt>
      <trkpt lat="45.70702" lon="2.93836">
        <ele>1055.18</ele>
        <time>2021-08-14T15:55:10Z</time>
      </trkpt>
      <trkpt lat="45.70683" lon="2.93759">
        <ele>1055.67</ele>
        <time>2021-08-14T15:55:20Z</time>
      </trkpt>
      <trkpt lat="45.70662" lon="2.93678">
        <ele>1055.67</ele>
        <time>2021-08-14T15:55:30Z</time>
      </trkpt>
      <trkpt lat="45.70659" lon="2.9367">
        <ele>1055.67</ele>
        <time>2021-08-14T15:55:31Z</time>
      </trkpt>
      <trkpt lat="45.70652" lon="2.93645">
        <ele>1055.67</ele>
        <time>2021-08-14T15:55:34Z</time>
      </trkpt>
      <trkpt lat="45.70646" lon="2.9362">
        <ele>1055.67</ele>
        <time>2021-08-14T15:55:37Z</time>
      </trkpt>
      <trkpt lat="45.7064" lon="2.93599">
        <ele>1055.67</ele>
        <time>2021-08-14T15:55:40Z</time>
      </trkpt>
      <trkpt lat="45.70634" lon="2.9358">
        <ele>1056.63</ele>
        <time>2021-08-14T15:55:43Z</time>
      </trkpt>
      <trkpt lat="45.7063" lon="2.93561">
        <ele>1057.11</ele>
        <time>2021-08-14T15:55:46Z</time>
      </trkpt>
      <trkpt lat="45.70629" lon="2.93557">
        <ele>1057.11</ele>
        <time>2021-08-14T15:55:47Z</time>
      </trkpt>
      <trkpt lat="45.70626" lon="2.93545">
        <ele>1057.11</ele>
        <time>2021-08-14T15:55:49Z</time>
      </trkpt>
      <trkpt lat="45.70618" lon="2.93513">
        <ele>1058.55</ele>
        <time>2021-08-14T15:55:55Z</time>
      </trkpt>
      <trkpt lat="45.70607" lon="2.93471">
        <ele>1059.51</ele>
        <time>2021-08-14T15:56:03Z</time>
      </trkpt>
      <trkpt lat="45.70596" lon="2.93433">
        <ele>1059.99</ele>
        <time>2021-08-14T15:56:10Z</time>
      </trkpt>
      <trkpt lat="45.7058" lon="2.93384">
        <ele>1058.55</ele>
        <time>2021-08-14T15:56:17Z</time>
      </trkpt>
      <trkpt lat="45.70561" lon="2.93323">
        <ele>1057.11</ele>
        <time>2021-08-14T15:56:24Z</time>
      </trkpt>
      <trkpt lat="45.70548" lon="2.93275">
        <ele>1057.11</ele>
        <time>2021-08-14T15:56:30Z</time>
      </trkpt>
      <trkpt lat="45.70547" lon="2.93268">
        <ele>1057.11</ele>
        <time>2021-08-14T15:56:31Z</time>
      </trkpt>
      <trkpt lat="45.70546" lon="2.9326">
        <ele>1057.11</ele>
        <time>2021-08-14T15:56:32Z</time>
      </trkpt>
      <trkpt lat="45.70545" lon="2.93254">
        <ele>1057.11</ele>
        <time>2021-08-14T15:56:33Z</time>
      </trkpt>
      <trkpt lat="45.70542" lon="2.93227">
        <ele>1057.11</ele>
        <time>2021-08-14T15:56:37Z</time>
      </trkpt>
      <trkpt lat="45.70542" lon="2.93221">
        <ele>1057.11</ele>
        <time>2021-08-14T15:56:38Z</time>
      </trkpt>
      <trkpt lat="45.70538" lon="2.9316">
        <ele>1056.63</ele>
        <time>2021-08-14T15:56:46Z</time>
      </trkpt>
      <trkpt lat="45.70534" lon="2.93091">
        <ele>1055.67</ele>
        <time>2021-08-14T15:56:54Z</time>
      </trkpt>
      <trkpt lat="45.70532" lon="2.93076">
        <ele>1055.67</ele>
        <time>2021-08-14T15:56:56Z</time>
      </trkpt>
      <trkpt lat="45.70529" lon="2.93034">
        <ele>1054.22</ele>
        <time>2021-08-14T15:57:01Z</time>
      </trkpt>
      <trkpt lat="45.70529" lon="2.93025">
        <ele>1054.22</ele>
        <time>2021-08-14T15:57:02Z</time>
      </trkpt>
      <trkpt lat="45.70531" lon="2.93008">
        <ele>1053.26</ele>
        <time>2021-08-14T15:57:04Z</time>
      </trkpt>
      <trkpt lat="45.70533" lon="2.92999">
        <ele>1052.78</ele>
        <time>2021-08-14T15:57:05Z</time>
      </trkpt>
      <trkpt lat="45.70534" lon="2.9298">
        <ele>1052.78</ele>
        <time>2021-08-14T15:57:07Z</time>
      </trkpt>
      <trkpt lat="45.70534" lon="2.92934">
        <ele>1051.34</ele>
        <time>2021-08-14T15:57:12Z</time>
      </trkpt>
      <trkpt lat="45.70532" lon="2.92924">
        <ele>1051.34</ele>
        <time>2021-08-14T15:57:13Z</time>
      </trkpt>
      <trkpt lat="45.7053" lon="2.92916">
        <ele>1051.34</ele>
        <time>2021-08-14T15:57:14Z</time>
      </trkpt>
      <trkpt lat="45.70527" lon="2.92908">
        <ele>1051.34</ele>
        <time>2021-08-14T15:57:15Z</time>
      </trkpt>
      <trkpt lat="45.70524" lon="2.929">
        <ele>1051.34</ele>
        <time>2021-08-14T15:57:16Z</time>
      </trkpt>
      <trkpt lat="45.70523" lon="2.92892">
        <ele>1051.34</ele>
        <time>2021-08-14T15:57:17Z</time>
      </trkpt>
      <trkpt lat="45.70522" lon="2.92883">
        <ele>1051.34</ele>
        <time>2021-08-14T15:57:18Z</time>
      </trkpt>
      <trkpt lat="45.70521" lon="2.92876">
        <ele>1051.34</ele>
        <time>2021-08-14T15:57:19Z</time>
      </trkpt>
      <trkpt lat="45.70511" lon="2.92828">
        <ele>1049.9</ele>
        <time>2021-08-14T15:57:25Z</time>
      </trkpt>
      <trkpt lat="45.7051" lon="2.92821">
        <ele>1049.42</ele>
        <time>2021-08-14T15:57:26Z</time>
      </trkpt>
      <trkpt lat="45.70508" lon="2.92811">
        <ele>1049.42</ele>
        <time>2021-08-14T15:57:27Z</time>
      </trkpt>
      <trkpt lat="45.705" lon="2.92758">
        <ele>1047.97</ele>
        <time>2021-08-14T15:57:33Z</time>
      </trkpt>
      <trkpt lat="45.70492" lon="2.92683">
        <ele>1047.01</ele>
        <time>2021-08-14T15:57:42Z</time>
      </trkpt>
      <trkpt lat="45.70487" lon="2.92621">
        <ele>1043.65</ele>
        <time>2021-08-14T15:57:48Z</time>
      </trkpt>
      <trkpt lat="45.70487" lon="2.9261">
        <ele>1043.65</ele>
        <time>2021-08-14T15:57:49Z</time>
      </trkpt>
      <trkpt lat="45.70489" lon="2.92589">
        <ele>1042.21</ele>
        <time>2021-08-14T15:57:51Z</time>
      </trkpt>
      <trkpt lat="45.70489" lon="2.92578">
        <ele>1042.21</ele>
        <time>2021-08-14T15:57:52Z</time>
      </trkpt>
      <trkpt lat="45.70488" lon="2.92526">
        <ele>1038.84</ele>
        <time>2021-08-14T15:57:57Z</time>
      </trkpt>
      <trkpt lat="45.7049" lon="2.92515">
        <ele>1038.36</ele>
        <time>2021-08-14T15:57:58Z</time>
      </trkpt>
      <trkpt lat="45.70502" lon="2.92473">
        <ele>1034.52</ele>
        <time>2021-08-14T15:58:02Z</time>
      </trkpt>
      <trkpt lat="45.70504" lon="2.92462">
        <ele>1033.55</ele>
        <time>2021-08-14T15:58:03Z</time>
      </trkpt>
      <trkpt lat="45.70506" lon="2.92451">
        <ele>1033.07</ele>
        <time>2021-08-14T15:58:04Z</time>
      </trkpt>
      <trkpt lat="45.70505" lon="2.9244">
        <ele>1032.59</ele>
        <time>2021-08-14T15:58:05Z</time>
      </trkpt>
      <trkpt lat="45.70503" lon="2.9243">
        <ele>1031.63</ele>
        <time>2021-08-14T15:58:06Z</time>
      </trkpt>
      <trkpt lat="45.70501" lon="2.92419">
        <ele>1031.15</ele>
        <time>2021-08-14T15:58:07Z</time>
      </trkpt>
      <trkpt lat="45.70499" lon="2.92407">
        <ele>1030.67</ele>
        <time>2021-08-14T15:58:08Z</time>
      </trkpt>
      <trkpt lat="45.70498" lon="2.92393">
        <ele>1030.67</ele>
        <time>2021-08-14T15:58:09Z</time>
      </trkpt>
      <trkpt lat="45.70493" lon="2.92305">
        <ele>1026.83</ele>
        <time>2021-08-14T15:58:16Z</time>
      </trkpt>
      <trkpt lat="45.70494" lon="2.92264">
        <ele>1024.42</ele>
        <time>2021-08-14T15:58:19Z</time>
      </trkpt>
      <trkpt lat="45.70494" lon="2.92149">
        <ele>1022.5</ele>
        <time>2021-08-14T15:58:28Z</time>
      </trkpt>
      <trkpt lat="45.70494" lon="2.92137">
        <ele>1022.5</ele>
        <time>2021-08-14T15:58:29Z</time>
      </trkpt>
      <trkpt lat="45.70494" lon="2.92126">
        <ele>1022.02</ele>
        <time>2021-08-14T15:58:30Z</time>
      </trkpt>
      <trkpt lat="45.70496" lon="2.92078">
        <ele>1019.62</ele>
        <time>2021-08-14T15:58:34Z</time>
      </trkpt>
      <trkpt lat="45.70495" lon="2.92065">
        <ele>1019.13</ele>
        <time>2021-08-14T15:58:35Z</time>
      </trkpt>
      <trkpt lat="45.70483" lon="2.92004">
        <ele>1015.77</ele>
        <time>2021-08-14T15:58:40Z</time>
      </trkpt>
      <trkpt lat="45.70471" lon="2.91962">
        <ele>1010.96</ele>
        <time>2021-08-14T15:58:43Z</time>
      </trkpt>
      <trkpt lat="45.70456" lon="2.91915">
        <ele>1007.6</ele>
        <time>2021-08-14T15:58:46Z</time>
      </trkpt>
      <trkpt lat="45.70442" lon="2.91865">
        <ele>1003.27</ele>
        <time>2021-08-14T15:58:49Z</time>
      </trkpt>
      <trkpt lat="45.70421" lon="2.91799">
        <ele>1000.39</ele>
        <time>2021-08-14T15:58:54Z</time>
      </trkpt>
      <trkpt lat="45.70415" lon="2.91779">
        <ele>999.43</ele>
        <time>2021-08-14T15:58:56Z</time>
      </trkpt>
      <trkpt lat="45.70406" lon="2.91752">
        <ele>997.99</ele>
        <time>2021-08-14T15:59:00Z</time>
      </trkpt>
      <trkpt lat="45.70402" lon="2.9175">
        <ele>997.51</ele>
        <time>2021-08-14T15:59:01Z</time>
      </trkpt>
      <trkpt lat="45.70397" lon="2.91751">
        <ele>996.54</ele>
        <time>2021-08-14T15:59:02Z</time>
      </trkpt>
      <trkpt lat="45.70393" lon="2.91754">
        <ele>996.06</ele>
        <time>2021-08-14T15:59:03Z</time>
      </trkpt>
      <trkpt lat="45.7039" lon="2.9176">
        <ele>995.58</ele>
        <time>2021-08-14T15:59:04Z</time>
      </trkpt>
      <trkpt lat="45.70388" lon="2.91767">
        <ele>995.1</ele>
        <time>2021-08-14T15:59:05Z</time>
      </trkpt>
      <trkpt lat="45.70385" lon="2.91774">
        <ele>995.1</ele>
        <time>2021-08-14T15:59:06Z</time>
      </trkpt>
      <trkpt lat="45.70379" lon="2.91788">
        <ele>994.14</ele>
        <time>2021-08-14T15:59:08Z</time>
      </trkpt>
      <trkpt lat="45.70375" lon="2.91793">
        <ele>993.66</ele>
        <time>2021-08-14T15:59:09Z</time>
      </trkpt>
      <trkpt lat="45.70371" lon="2.91795">
        <ele>993.66</ele>
        <time>2021-08-14T15:59:10Z</time>
      </trkpt>
      <trkpt lat="45.70367" lon="2.91793">
        <ele>992.7</ele>
        <time>2021-08-14T15:59:11Z</time>
      </trkpt>
      <trkpt lat="45.70364" lon="2.91788">
        <ele>992.22</ele>
        <time>2021-08-14T15:59:12Z</time>
      </trkpt>
      <trkpt lat="45.70363" lon="2.91781">
        <ele>991.74</ele>
        <time>2021-08-14T15:59:13Z</time>
      </trkpt>
      <trkpt lat="45.70364" lon="2.91771">
        <ele>990.78</ele>
        <time>2021-08-14T15:59:14Z</time>
      </trkpt>
      <trkpt lat="45.70365" lon="2.91763">
        <ele>990.3</ele>
        <time>2021-08-14T15:59:15Z</time>
      </trkpt>
      <trkpt lat="45.70367" lon="2.91753">
        <ele>989.33</ele>
        <time>2021-08-14T15:59:16Z</time>
      </trkpt>
      <trkpt lat="45.70369" lon="2.91743">
        <ele>988.85</ele>
        <time>2021-08-14T15:59:17Z</time>
      </trkpt>
      <trkpt lat="45.70372" lon="2.91733">
        <ele>988.85</ele>
        <time>2021-08-14T15:59:18Z</time>
      </trkpt>
      <trkpt lat="45.70376" lon="2.91723">
        <ele>987.89</ele>
        <time>2021-08-14T15:59:19Z</time>
      </trkpt>
      <trkpt lat="45.70383" lon="2.91703">
        <ele>986.93</ele>
        <time>2021-08-14T15:59:21Z</time>
      </trkpt>
      <trkpt lat="45.70396" lon="2.91667">
        <ele>983.57</ele>
        <time>2021-08-14T15:59:25Z</time>
      </trkpt>
      <trkpt lat="45.70412" lon="2.91641">
        <ele>979.72</ele>
        <time>2021-08-14T15:59:28Z</time>
      </trkpt>
      <trkpt lat="45.70418" lon="2.91634">
        <ele>979.24</ele>
        <time>2021-08-14T15:59:29Z</time>
      </trkpt>
      <trkpt lat="45.7044" lon="2.91613">
        <ele>976.36</ele>
        <time>2021-08-14T15:59:33Z</time>
      </trkpt>
      <trkpt lat="45.70442" lon="2.91608">
        <ele>975.88</ele>
        <time>2021-08-14T15:59:34Z</time>
      </trkpt>
      <trkpt lat="45.70441" lon="2.91604">
        <ele>975.39</ele>
        <time>2021-08-14T15:59:35Z</time>
      </trkpt>
      <trkpt lat="45.70438" lon="2.91601">
        <ele>974.91</ele>
        <time>2021-08-14T15:59:36Z</time>
      </trkpt>
      <trkpt lat="45.70435" lon="2.91602">
        <ele>974.43</ele>
        <time>2021-08-14T15:59:37Z</time>
      </trkpt>
      <trkpt lat="45.7043" lon="2.91604">
        <ele>974.43</ele>
        <time>2021-08-14T15:59:38Z</time>
      </trkpt>
      <trkpt lat="45.70426" lon="2.91607">
        <ele>973.47</ele>
        <time>2021-08-14T15:59:39Z</time>
      </trkpt>
      <trkpt lat="45.70421" lon="2.91611">
        <ele>972.51</ele>
        <time>2021-08-14T15:59:40Z</time>
      </trkpt>
      <trkpt lat="45.70415" lon="2.91615">
        <ele>972.03</ele>
        <time>2021-08-14T15:59:41Z</time>
      </trkpt>
      <trkpt lat="45.70409" lon="2.91619">
        <ele>971.55</ele>
        <time>2021-08-14T15:59:42Z</time>
      </trkpt>
      <trkpt lat="45.70403" lon="2.91621">
        <ele>971.07</ele>
        <time>2021-08-14T15:59:43Z</time>
      </trkpt>
      <trkpt lat="45.70397" lon="2.91623">
        <ele>970.59</ele>
        <time>2021-08-14T15:59:44Z</time>
      </trkpt>
      <trkpt lat="45.70382" lon="2.91626">
        <ele>969.63</ele>
        <time>2021-08-14T15:59:47Z</time>
      </trkpt>
      <trkpt lat="45.70378" lon="2.91626">
        <ele>969.15</ele>
        <time>2021-08-14T15:59:48Z</time>
      </trkpt>
      <trkpt lat="45.70374" lon="2.91623">
        <ele>969.15</ele>
        <time>2021-08-14T15:59:49Z</time>
      </trkpt>
      <trkpt lat="45.7037" lon="2.9162">
        <ele>968.67</ele>
        <time>2021-08-14T15:59:50Z</time>
      </trkpt>
      <trkpt lat="45.70367" lon="2.91616">
        <ele>968.67</ele>
        <time>2021-08-14T15:59:51Z</time>
      </trkpt>
      <trkpt lat="45.70365" lon="2.91613">
        <ele>967.7</ele>
        <time>2021-08-14T15:59:52Z</time>
      </trkpt>
      <trkpt lat="45.70363" lon="2.91611">
        <ele>967.7</ele>
        <time>2021-08-14T15:59:53Z</time>
      </trkpt>
      <trkpt lat="45.70361" lon="2.91608">
        <ele>966.74</ele>
        <time>2021-08-14T15:59:54Z</time>
      </trkpt>
      <trkpt lat="45.70358" lon="2.91604">
        <ele>966.26</ele>
        <time>2021-08-14T15:59:55Z</time>
      </trkpt>
      <trkpt lat="45.7035" lon="2.91583">
        <ele>964.82</ele>
        <time>2021-08-14T15:59:58Z</time>
      </trkpt>
      <trkpt lat="45.70347" lon="2.91574">
        <ele>964.82</ele>
        <time>2021-08-14T15:59:59Z</time>
      </trkpt>
      <trkpt lat="45.70337" lon="2.91533">
        <ele>961.94</ele>
        <time>2021-08-14T16:00:03Z</time>
      </trkpt>
      <trkpt lat="45.70334" lon="2.91511">
        <ele>960.49</ele>
        <time>2021-08-14T16:00:05Z</time>
      </trkpt>
      <trkpt lat="45.70334" lon="2.91499">
        <ele>960.01</ele>
        <time>2021-08-14T16:00:06Z</time>
      </trkpt>
      <trkpt lat="45.70336" lon="2.91487">
        <ele>959.53</ele>
        <time>2021-08-14T16:00:07Z</time>
      </trkpt>
      <trkpt lat="45.70342" lon="2.9145">
        <ele>956.17</ele>
        <time>2021-08-14T16:00:10Z</time>
      </trkpt>
      <trkpt lat="45.70351" lon="2.91413">
        <ele>955.21</ele>
        <time>2021-08-14T16:00:14Z</time>
      </trkpt>
      <trkpt lat="45.70353" lon="2.91409">
        <ele>955.21</ele>
        <time>2021-08-14T16:00:15Z</time>
      </trkpt>
      <trkpt lat="45.70354" lon="2.91406">
        <ele>955.21</ele>
        <time>2021-08-14T16:00:16Z</time>
      </trkpt>
      <trkpt lat="45.70354" lon="2.91404">
        <ele>955.21</ele>
        <time>2021-08-14T16:00:17Z</time>
      </trkpt>
      <trkpt lat="45.7035" lon="2.91409">
        <ele>954.73</ele>
        <time>2021-08-14T16:00:21Z</time>
      </trkpt>
      <trkpt lat="45.70349" lon="2.91415">
        <ele>955.21</ele>
        <time>2021-08-14T16:00:24Z</time>
      </trkpt>
      <trkpt lat="45.70347" lon="2.9143">
        <ele>955.21</ele>
        <time>2021-08-14T16:00:30Z</time>
      </trkpt>
      <trkpt lat="45.70343" lon="2.91434">
        <ele>955.21</ele>
        <time>2021-08-14T16:00:32Z</time>
      </trkpt>
      <trkpt lat="45.70341" lon="2.91434">
        <ele>954.73</ele>
        <time>2021-08-14T16:00:33Z</time>
      </trkpt>
      <trkpt lat="45.70338" lon="2.91433">
        <ele>955.21</ele>
        <time>2021-08-14T16:00:34Z</time>
      </trkpt>
      <trkpt lat="45.70335" lon="2.91431">
        <ele>955.21</ele>
        <time>2021-08-14T16:00:35Z</time>
      </trkpt>
      <trkpt lat="45.70332" lon="2.91427">
        <ele>954.73</ele>
        <time>2021-08-14T16:00:36Z</time>
      </trkpt>
      <trkpt lat="45.70329" lon="2.91422">
        <ele>954.25</ele>
        <time>2021-08-14T16:00:37Z</time>
      </trkpt>
      <trkpt lat="45.70327" lon="2.91414">
        <ele>951.84</ele>
        <time>2021-08-14T16:00:38Z</time>
      </trkpt>
      <trkpt lat="45.70325" lon="2.91407">
        <ele>950.4</ele>
        <time>2021-08-14T16:00:39Z</time>
      </trkpt>
      <trkpt lat="45.70325" lon="2.914">
        <ele>949.44</ele>
        <time>2021-08-14T16:00:40Z</time>
      </trkpt>
      <trkpt lat="45.70328" lon="2.91395">
        <ele>948.48</ele>
        <time>2021-08-14T16:00:41Z</time>
      </trkpt>
      <trkpt lat="45.70331" lon="2.91391">
        <ele>948</ele>
        <time>2021-08-14T16:00:42Z</time>
      </trkpt>
      <trkpt lat="45.70334" lon="2.91387">
        <ele>947.52</ele>
        <time>2021-08-14T16:00:43Z</time>
      </trkpt>
      <trkpt lat="45.70335" lon="2.91382">
        <ele>947.04</ele>
        <time>2021-08-14T16:00:44Z</time>
      </trkpt>
      <trkpt lat="45.70335" lon="2.91378">
        <ele>947.04</ele>
        <time>2021-08-14T16:00:45Z</time>
      </trkpt>
      <trkpt lat="45.70334" lon="2.91374">
        <ele>947.04</ele>
        <time>2021-08-14T16:00:46Z</time>
      </trkpt>
      <trkpt lat="45.70328" lon="2.91344">
        <ele>946.07</ele>
        <time>2021-08-14T16:00:52Z</time>
      </trkpt>
      <trkpt lat="45.70327" lon="2.91341">
        <ele>946.07</ele>
        <time>2021-08-14T16:00:53Z</time>
      </trkpt>
      <trkpt lat="45.70328" lon="2.91338">
        <ele>946.07</ele>
        <time>2021-08-14T16:00:54Z</time>
      </trkpt>
      <trkpt lat="45.7033" lon="2.91337">
        <ele>946.07</ele>
        <time>2021-08-14T16:00:55Z</time>
      </trkpt>
      <trkpt lat="45.70332" lon="2.91336">
        <ele>947.52</ele>
        <time>2021-08-14T16:00:56Z</time>
      </trkpt>
      <trkpt lat="45.70335" lon="2.91334">
        <ele>947.52</ele>
        <time>2021-08-14T16:00:57Z</time>
      </trkpt>
      <trkpt lat="45.70337" lon="2.91332">
        <ele>947.52</ele>
        <time>2021-08-14T16:00:58Z</time>
      </trkpt>
      <trkpt lat="45.70366" lon="2.91312">
        <ele>946.07</ele>
        <time>2021-08-14T16:01:06Z</time>
      </trkpt>
      <trkpt lat="45.70396" lon="2.91293">
        <ele>945.59</ele>
        <time>2021-08-14T16:01:13Z</time>
      </trkpt>
      <trkpt lat="45.70404" lon="2.91287">
        <ele>945.59</ele>
        <time>2021-08-14T16:01:15Z</time>
      </trkpt>
      <trkpt lat="45.70412" lon="2.91282">
        <ele>945.59</ele>
        <time>2021-08-14T16:01:17Z</time>
      </trkpt>
      <trkpt lat="45.70416" lon="2.91281">
        <ele>945.11</ele>
        <time>2021-08-14T16:01:18Z</time>
      </trkpt>
      <trkpt lat="45.70425" lon="2.91279">
        <ele>944.63</ele>
        <time>2021-08-14T16:01:20Z</time>
      </trkpt>
      <trkpt lat="45.70429" lon="2.91278">
        <ele>944.15</ele>
        <time>2021-08-14T16:01:21Z</time>
      </trkpt>
      <trkpt lat="45.70433" lon="2.91277">
        <ele>944.15</ele>
        <time>2021-08-14T16:01:22Z</time>
      </trkpt>
      <trkpt lat="45.70437" lon="2.91274">
        <ele>943.67</ele>
        <time>2021-08-14T16:01:23Z</time>
      </trkpt>
      <trkpt lat="45.70441" lon="2.91271">
        <ele>943.67</ele>
        <time>2021-08-14T16:01:24Z</time>
      </trkpt>
      <trkpt lat="45.70467" lon="2.91255">
        <ele>941.27</ele>
        <time>2021-08-14T16:01:29Z</time>
      </trkpt>
      <trkpt lat="45.70472" lon="2.9125">
        <ele>941.27</ele>
        <time>2021-08-14T16:01:30Z</time>
      </trkpt>
      <trkpt lat="45.70475" lon="2.91245">
        <ele>940.79</ele>
        <time>2021-08-14T16:01:31Z</time>
      </trkpt>
      <trkpt lat="45.70477" lon="2.91238">
        <ele>940.79</ele>
        <time>2021-08-14T16:01:32Z</time>
      </trkpt>
      <trkpt lat="45.70478" lon="2.91231">
        <ele>940.31</ele>
        <time>2021-08-14T16:01:33Z</time>
      </trkpt>
      <trkpt lat="45.70477" lon="2.91223">
        <ele>940.31</ele>
        <time>2021-08-14T16:01:34Z</time>
      </trkpt>
      <trkpt lat="45.70475" lon="2.91218">
        <ele>940.31</ele>
        <time>2021-08-14T16:01:35Z</time>
      </trkpt>
      <trkpt lat="45.70473" lon="2.91211">
        <ele>940.31</ele>
        <time>2021-08-14T16:01:36Z</time>
      </trkpt>
      <trkpt lat="45.70472" lon="2.91206">
        <ele>940.31</ele>
        <time>2021-08-14T16:01:37Z</time>
      </trkpt>
      <trkpt lat="45.70472" lon="2.912">
        <ele>940.31</ele>
        <time>2021-08-14T16:01:38Z</time>
      </trkpt>
      <trkpt lat="45.70473" lon="2.91196">
        <ele>940.31</ele>
        <time>2021-08-14T16:01:39Z</time>
      </trkpt>
      <trkpt lat="45.70474" lon="2.91192">
        <ele>940.31</ele>
        <time>2021-08-14T16:01:40Z</time>
      </trkpt>
      <trkpt lat="45.70476" lon="2.91189">
        <ele>940.31</ele>
        <time>2021-08-14T16:01:41Z</time>
      </trkpt>
      <trkpt lat="45.70478" lon="2.91186">
        <ele>940.31</ele>
        <time>2021-08-14T16:01:42Z</time>
      </trkpt>
      <trkpt lat="45.7048" lon="2.91184">
        <ele>941.75</ele>
        <time>2021-08-14T16:01:43Z</time>
      </trkpt>
      <trkpt lat="45.70481" lon="2.91182">
        <ele>941.75</ele>
        <time>2021-08-14T16:01:44Z</time>
      </trkpt>
      <trkpt lat="45.70483" lon="2.91179">
        <ele>942.23</ele>
        <time>2021-08-14T16:01:52Z</time>
      </trkpt>
      <trkpt lat="45.70484" lon="2.91178">
        <ele>942.23</ele>
        <time>2021-08-14T16:02:14Z</time>
      </trkpt>
      <trkpt lat="45.70485" lon="2.91178">
        <ele>942.23</ele>
        <time>2021-08-14T16:02:23Z</time>
      </trkpt>
      <trkpt lat="45.70483" lon="2.91177">
        <ele>942.23</ele>
        <time>2021-08-14T16:02:38Z</time>
      </trkpt>
      <trkpt lat="45.70482" lon="2.91177">
        <ele>942.23</ele>
        <time>2021-08-14T16:02:56Z</time>
      </trkpt>
      <trkpt lat="45.70483" lon="2.9118">
        <ele>941.75</ele>
        <time>2021-08-14T16:03:16Z</time>
      </trkpt>
      <trkpt lat="45.70486" lon="2.91179">
        <ele>942.23</ele>
        <time>2021-08-14T16:03:35Z</time>
      </trkpt>
      <trkpt lat="45.70484" lon="2.91179">
        <ele>942.23</ele>
        <time>2021-08-14T16:03:53Z</time>
      </trkpt>
      <trkpt lat="45.70482" lon="2.91178">
        <ele>942.23</ele>
        <time>2021-08-14T16:04:15Z</time>
      </trkpt>
      <trkpt lat="45.70483" lon="2.91178">
        <ele>941.75</ele>
        <time>2021-08-14T16:04:30Z</time>
      </trkpt>
      <trkpt lat="45.70483" lon="2.91175">
        <ele>941.75</ele>
        <time>2021-08-14T16:04:48Z</time>
      </trkpt>
      <trkpt lat="45.70485" lon="2.91175">
        <ele>941.75</ele>
        <time>2021-08-14T16:05:06Z</time>
      </trkpt>
      <trkpt lat="45.70488" lon="2.91171">
        <ele>941.75</ele>
        <time>2021-08-14T16:05:13Z</time>
      </trkpt>
      <trkpt lat="45.7049" lon="2.91169">
        <ele>942.23</ele>
        <time>2021-08-14T16:05:15Z</time>
      </trkpt>
      <trkpt lat="45.70496" lon="2.91157">
        <ele>943.67</ele>
        <time>2021-08-14T16:05:26Z</time>
      </trkpt>
      <trkpt lat="45.70497" lon="2.91152">
        <ele>944.15</ele>
        <time>2021-08-14T16:05:33Z</time>
      </trkpt>
      <trkpt lat="45.70502" lon="2.91137">
        <ele>944.63</ele>
        <time>2021-08-14T16:05:39Z</time>
      </trkpt>
      <trkpt lat="45.70513" lon="2.91109">
        <ele>945.11</ele>
        <time>2021-08-14T16:05:47Z</time>
      </trkpt>
      <trkpt lat="45.70524" lon="2.91088">
        <ele>945.11</ele>
        <time>2021-08-14T16:05:54Z</time>
      </trkpt>
      <trkpt lat="45.70538" lon="2.91064">
        <ele>946.07</ele>
        <time>2021-08-14T16:06:02Z</time>
      </trkpt>
      <trkpt lat="45.70547" lon="2.91052">
        <ele>946.07</ele>
        <time>2021-08-14T16:06:06Z</time>
      </trkpt>
      <trkpt lat="45.70549" lon="2.9105">
        <ele>946.07</ele>
        <time>2021-08-14T16:06:07Z</time>
      </trkpt>
      <trkpt lat="45.70552" lon="2.91047">
        <ele>946.07</ele>
        <time>2021-08-14T16:06:08Z</time>
      </trkpt>
      <trkpt lat="45.70567" lon="2.91034">
        <ele>946.56</ele>
        <time>2021-08-14T16:06:14Z</time>
      </trkpt>
      <trkpt lat="45.70586" lon="2.91017">
        <ele>946.56</ele>
        <time>2021-08-14T16:06:21Z</time>
      </trkpt>
      <trkpt lat="45.70607" lon="2.90993">
        <ele>948</ele>
        <time>2021-08-14T16:06:30Z</time>
      </trkpt>
      <trkpt lat="45.7062" lon="2.90976">
        <ele>948.96</ele>
        <time>2021-08-14T16:06:37Z</time>
      </trkpt>
      <trkpt lat="45.70621" lon="2.90974">
        <ele>948.96</ele>
        <time>2021-08-14T16:06:38Z</time>
      </trkpt>
      <trkpt lat="45.70622" lon="2.90972">
        <ele>948.96</ele>
        <time>2021-08-14T16:06:39Z</time>
      </trkpt>
      <trkpt lat="45.70623" lon="2.90968">
        <ele>949.44</ele>
        <time>2021-08-14T16:06:41Z</time>
      </trkpt>
      <trkpt lat="45.70628" lon="2.90951">
        <ele>950.88</ele>
        <time>2021-08-14T16:06:48Z</time>
      </trkpt>
      <trkpt lat="45.70638" lon="2.9092">
        <ele>951.84</ele>
        <time>2021-08-14T16:06:57Z</time>
      </trkpt>
      <trkpt lat="45.70646" lon="2.90895">
        <ele>952.8</ele>
        <time>2021-08-14T16:07:05Z</time>
      </trkpt>
      <trkpt lat="45.70653" lon="2.90872">
        <ele>953.28</ele>
        <time>2021-08-14T16:07:11Z</time>
      </trkpt>
      <trkpt lat="45.70657" lon="2.90852">
        <ele>953.77</ele>
        <time>2021-08-14T16:07:17Z</time>
      </trkpt>
      <trkpt lat="45.70658" lon="2.9081">
        <ele>953.28</ele>
        <time>2021-08-14T16:07:23Z</time>
      </trkpt>
      <trkpt lat="45.70655" lon="2.90805">
        <ele>953.28</ele>
        <time>2021-08-14T16:07:24Z</time>
      </trkpt>
      <trkpt lat="45.70651" lon="2.90801">
        <ele>952.32</ele>
        <time>2021-08-14T16:07:25Z</time>
      </trkpt>
      <trkpt lat="45.70646" lon="2.90798">
        <ele>951.84</ele>
        <time>2021-08-14T16:07:26Z</time>
      </trkpt>
      <trkpt lat="45.70641" lon="2.90796">
        <ele>950.88</ele>
        <time>2021-08-14T16:07:27Z</time>
      </trkpt>
      <trkpt lat="45.70635" lon="2.90795">
        <ele>950.4</ele>
        <time>2021-08-14T16:07:28Z</time>
      </trkpt>
      <trkpt lat="45.70629" lon="2.90795">
        <ele>949.44</ele>
        <time>2021-08-14T16:07:29Z</time>
      </trkpt>
      <trkpt lat="45.70622" lon="2.90794">
        <ele>949.44</ele>
        <time>2021-08-14T16:07:30Z</time>
      </trkpt>
      <trkpt lat="45.70614" lon="2.90792">
        <ele>948.48</ele>
        <time>2021-08-14T16:07:31Z</time>
      </trkpt>
      <trkpt lat="45.70607" lon="2.90788">
        <ele>948</ele>
        <time>2021-08-14T16:07:32Z</time>
      </trkpt>
      <trkpt lat="45.70599" lon="2.90783">
        <ele>947.52</ele>
        <time>2021-08-14T16:07:33Z</time>
      </trkpt>
      <trkpt lat="45.70593" lon="2.90778">
        <ele>947.52</ele>
        <time>2021-08-14T16:07:34Z</time>
      </trkpt>
      <trkpt lat="45.7058" lon="2.90766">
        <ele>946.56</ele>
        <time>2021-08-14T16:07:36Z</time>
      </trkpt>
      <trkpt lat="45.70575" lon="2.90758">
        <ele>946.56</ele>
        <time>2021-08-14T16:07:37Z</time>
      </trkpt>
      <trkpt lat="45.70565" lon="2.90742">
        <ele>945.11</ele>
        <time>2021-08-14T16:07:39Z</time>
      </trkpt>
      <trkpt lat="45.70556" lon="2.90723">
        <ele>944.15</ele>
        <time>2021-08-14T16:07:41Z</time>
      </trkpt>
      <trkpt lat="45.70528" lon="2.90638">
        <ele>941.75</ele>
        <time>2021-08-14T16:07:49Z</time>
      </trkpt>
      <trkpt lat="45.705" lon="2.90569">
        <ele>939.35</ele>
        <time>2021-08-14T16:07:56Z</time>
      </trkpt>
      <trkpt lat="45.70487" lon="2.90544">
        <ele>938.86</ele>
        <time>2021-08-14T16:07:59Z</time>
      </trkpt>
      <trkpt lat="45.70461" lon="2.90482">
        <ele>934.54</ele>
        <time>2021-08-14T16:08:06Z</time>
      </trkpt>
      <trkpt lat="45.70434" lon="2.90413">
        <ele>932.14</ele>
        <time>2021-08-14T16:08:13Z</time>
      </trkpt>
      <trkpt lat="45.70433" lon="2.90403">
        <ele>932.14</ele>
        <time>2021-08-14T16:08:14Z</time>
      </trkpt>
      <trkpt lat="45.70432" lon="2.90393">
        <ele>931.17</ele>
        <time>2021-08-14T16:08:15Z</time>
      </trkpt>
      <trkpt lat="45.70431" lon="2.90378">
        <ele>930.21</ele>
        <time>2021-08-14T16:08:17Z</time>
      </trkpt>
      <trkpt lat="45.70432" lon="2.90371">
        <ele>929.73</ele>
        <time>2021-08-14T16:08:18Z</time>
      </trkpt>
      <trkpt lat="45.70434" lon="2.90363">
        <ele>928.77</ele>
        <time>2021-08-14T16:08:19Z</time>
      </trkpt>
      <trkpt lat="45.70438" lon="2.90356">
        <ele>927.81</ele>
        <time>2021-08-14T16:08:20Z</time>
      </trkpt>
      <trkpt lat="45.70443" lon="2.90348">
        <ele>926.85</ele>
        <time>2021-08-14T16:08:21Z</time>
      </trkpt>
      <trkpt lat="45.7045" lon="2.90339">
        <ele>925.89</ele>
        <time>2021-08-14T16:08:22Z</time>
      </trkpt>
      <trkpt lat="45.70456" lon="2.90332">
        <ele>924.93</ele>
        <time>2021-08-14T16:08:23Z</time>
      </trkpt>
      <trkpt lat="45.70461" lon="2.90326">
        <ele>925.41</ele>
        <time>2021-08-14T16:08:24Z</time>
      </trkpt>
      <trkpt lat="45.70487" lon="2.90298">
        <ele>925.89</ele>
        <time>2021-08-14T16:08:29Z</time>
      </trkpt>
      <trkpt lat="45.70497" lon="2.90288">
        <ele>927.33</ele>
        <time>2021-08-14T16:08:32Z</time>
      </trkpt>
      <trkpt lat="45.70505" lon="2.90276">
        <ele>929.73</ele>
        <time>2021-08-14T16:08:37Z</time>
      </trkpt>
      <trkpt lat="45.70507" lon="2.90263">
        <ele>930.69</ele>
        <time>2021-08-14T16:08:44Z</time>
      </trkpt>
      <trkpt lat="45.70507" lon="2.90258">
        <ele>930.69</ele>
        <time>2021-08-14T16:08:46Z</time>
      </trkpt>
      <trkpt lat="45.70507" lon="2.90255">
        <ele>931.17</ele>
        <time>2021-08-14T16:08:47Z</time>
      </trkpt>
      <trkpt lat="45.70509" lon="2.90232">
        <ele>932.62</ele>
        <time>2021-08-14T16:08:55Z</time>
      </trkpt>
      <trkpt lat="45.70511" lon="2.90206">
        <ele>934.54</ele>
        <time>2021-08-14T16:09:04Z</time>
      </trkpt>
      <trkpt lat="45.70513" lon="2.90174">
        <ele>935.98</ele>
        <time>2021-08-14T16:09:14Z</time>
      </trkpt>
      <trkpt lat="45.70516" lon="2.90145">
        <ele>935.5</ele>
        <time>2021-08-14T16:09:21Z</time>
      </trkpt>
      <trkpt lat="45.70521" lon="2.90103">
        <ele>935.5</ele>
        <time>2021-08-14T16:09:29Z</time>
      </trkpt>
      <trkpt lat="45.70514" lon="2.90086">
        <ele>935.5</ele>
        <time>2021-08-14T16:09:34Z</time>
      </trkpt>
      <trkpt lat="45.70493" lon="2.9007">
        <ele>935.5</ele>
        <time>2021-08-14T16:09:41Z</time>
      </trkpt>
      <trkpt lat="45.70478" lon="2.90039">
        <ele>935.98</ele>
        <time>2021-08-14T16:09:48Z</time>
      </trkpt>
      <trkpt lat="45.70462" lon="2.90022">
        <ele>936.46</ele>
        <time>2021-08-14T16:09:53Z</time>
      </trkpt>
      <trkpt lat="45.70458" lon="2.90018">
        <ele>936.46</ele>
        <time>2021-08-14T16:09:54Z</time>
      </trkpt>
      <trkpt lat="45.70454" lon="2.90015">
        <ele>936.46</ele>
        <time>2021-08-14T16:09:55Z</time>
      </trkpt>
      <trkpt lat="45.70431" lon="2.89995">
        <ele>936.46</ele>
        <time>2021-08-14T16:10:00Z</time>
      </trkpt>
      <trkpt lat="45.70422" lon="2.89986">
        <ele>935.02</ele>
        <time>2021-08-14T16:10:02Z</time>
      </trkpt>
      <trkpt lat="45.70418" lon="2.89981">
        <ele>935.02</ele>
        <time>2021-08-14T16:10:03Z</time>
      </trkpt>
      <trkpt lat="45.70409" lon="2.89971">
        <ele>934.54</ele>
        <time>2021-08-14T16:10:05Z</time>
      </trkpt>
      <trkpt lat="45.70403" lon="2.8996">
        <ele>934.54</ele>
        <time>2021-08-14T16:10:07Z</time>
      </trkpt>
      <trkpt lat="45.704" lon="2.89954">
        <ele>934.54</ele>
        <time>2021-08-14T16:10:08Z</time>
      </trkpt>
      <trkpt lat="45.70398" lon="2.89948">
        <ele>934.54</ele>
        <time>2021-08-14T16:10:09Z</time>
      </trkpt>
      <trkpt lat="45.70396" lon="2.89942">
        <ele>934.54</ele>
        <time>2021-08-14T16:10:10Z</time>
      </trkpt>
      <trkpt lat="45.70394" lon="2.89937">
        <ele>935.98</ele>
        <time>2021-08-14T16:10:11Z</time>
      </trkpt>
      <trkpt lat="45.70385" lon="2.89913">
        <ele>937.9</ele>
        <time>2021-08-14T16:10:17Z</time>
      </trkpt>
      <trkpt lat="45.70375" lon="2.89897">
        <ele>937.9</ele>
        <time>2021-08-14T16:10:21Z</time>
      </trkpt>
      <trkpt lat="45.70371" lon="2.89893">
        <ele>937.9</ele>
        <time>2021-08-14T16:10:22Z</time>
      </trkpt>
      <trkpt lat="45.70366" lon="2.89891">
        <ele>936.46</ele>
        <time>2021-08-14T16:10:23Z</time>
      </trkpt>
      <trkpt lat="45.70355" lon="2.89886">
        <ele>934.54</ele>
        <time>2021-08-14T16:10:25Z</time>
      </trkpt>
      <trkpt lat="45.70349" lon="2.89884">
        <ele>933.58</ele>
        <time>2021-08-14T16:10:26Z</time>
      </trkpt>
      <trkpt lat="45.70343" lon="2.89881">
        <ele>932.62</ele>
        <time>2021-08-14T16:10:27Z</time>
      </trkpt>
      <trkpt lat="45.70337" lon="2.89877">
        <ele>932.14</ele>
        <time>2021-08-14T16:10:28Z</time>
      </trkpt>
      <trkpt lat="45.70331" lon="2.89873">
        <ele>931.65</ele>
        <time>2021-08-14T16:10:29Z</time>
      </trkpt>
      <trkpt lat="45.70306" lon="2.89853">
        <ele>929.25</ele>
        <time>2021-08-14T16:10:33Z</time>
      </trkpt>
      <trkpt lat="45.7028" lon="2.89834">
        <ele>925.89</ele>
        <time>2021-08-14T16:10:37Z</time>
      </trkpt>
      <trkpt lat="45.70239" lon="2.89793">
        <ele>922.04</ele>
        <time>2021-08-14T16:10:43Z</time>
      </trkpt>
      <trkpt lat="45.70211" lon="2.89762">
        <ele>919.64</ele>
        <time>2021-08-14T16:10:48Z</time>
      </trkpt>
      <trkpt lat="45.70206" lon="2.89755">
        <ele>919.16</ele>
        <time>2021-08-14T16:10:49Z</time>
      </trkpt>
      <trkpt lat="45.70194" lon="2.89736">
        <ele>917.72</ele>
        <time>2021-08-14T16:10:52Z</time>
      </trkpt>
      <trkpt lat="45.70192" lon="2.89729">
        <ele>917.24</ele>
        <time>2021-08-14T16:10:53Z</time>
      </trkpt>
      <trkpt lat="45.70191" lon="2.89723">
        <ele>917.24</ele>
        <time>2021-08-14T16:10:54Z</time>
      </trkpt>
      <trkpt lat="45.70189" lon="2.89716">
        <ele>916.27</ele>
        <time>2021-08-14T16:10:55Z</time>
      </trkpt>
      <trkpt lat="45.70186" lon="2.89707">
        <ele>915.31</ele>
        <time>2021-08-14T16:10:56Z</time>
      </trkpt>
      <trkpt lat="45.70183" lon="2.89699">
        <ele>914.35</ele>
        <time>2021-08-14T16:10:57Z</time>
      </trkpt>
      <trkpt lat="45.70179" lon="2.8969">
        <ele>913.87</ele>
        <time>2021-08-14T16:10:58Z</time>
      </trkpt>
      <trkpt lat="45.70175" lon="2.89681">
        <ele>913.87</ele>
        <time>2021-08-14T16:10:59Z</time>
      </trkpt>
      <trkpt lat="45.70171" lon="2.89674">
        <ele>912.91</ele>
        <time>2021-08-14T16:11:00Z</time>
      </trkpt>
      <trkpt lat="45.70167" lon="2.89669">
        <ele>912.43</ele>
        <time>2021-08-14T16:11:01Z</time>
      </trkpt>
      <trkpt lat="45.70162" lon="2.89664">
        <ele>911.95</ele>
        <time>2021-08-14T16:11:02Z</time>
      </trkpt>
      <trkpt lat="45.70157" lon="2.89662">
        <ele>911.47</ele>
        <time>2021-08-14T16:11:03Z</time>
      </trkpt>
      <trkpt lat="45.7015" lon="2.8966">
        <ele>910.99</ele>
        <time>2021-08-14T16:11:04Z</time>
      </trkpt>
      <trkpt lat="45.70144" lon="2.89659">
        <ele>910.51</ele>
        <time>2021-08-14T16:11:05Z</time>
      </trkpt>
      <trkpt lat="45.70136" lon="2.89659">
        <ele>909.54</ele>
        <time>2021-08-14T16:11:06Z</time>
      </trkpt>
      <trkpt lat="45.70122" lon="2.89659">
        <ele>909.54</ele>
        <time>2021-08-14T16:11:08Z</time>
      </trkpt>
      <trkpt lat="45.70114" lon="2.89658">
        <ele>908.58</ele>
        <time>2021-08-14T16:11:09Z</time>
      </trkpt>
      <trkpt lat="45.70107" lon="2.89655">
        <ele>907.62</ele>
        <time>2021-08-14T16:11:10Z</time>
      </trkpt>
      <trkpt lat="45.70101" lon="2.8965">
        <ele>907.14</ele>
        <time>2021-08-14T16:11:11Z</time>
      </trkpt>
      <trkpt lat="45.70094" lon="2.89644">
        <ele>906.18</ele>
        <time>2021-08-14T16:11:12Z</time>
      </trkpt>
      <trkpt lat="45.70087" lon="2.8964">
        <ele>905.7</ele>
        <time>2021-08-14T16:11:13Z</time>
      </trkpt>
      <trkpt lat="45.70079" lon="2.89635">
        <ele>905.22</ele>
        <time>2021-08-14T16:11:14Z</time>
      </trkpt>
      <trkpt lat="45.70058" lon="2.89617">
        <ele>904.26</ele>
        <time>2021-08-14T16:11:17Z</time>
      </trkpt>
      <trkpt lat="45.70051" lon="2.89609">
        <ele>903.78</ele>
        <time>2021-08-14T16:11:18Z</time>
      </trkpt>
      <trkpt lat="45.70032" lon="2.89583">
        <ele>902.33</ele>
        <time>2021-08-14T16:11:21Z</time>
      </trkpt>
      <trkpt lat="45.70021" lon="2.89567">
        <ele>901.37</ele>
        <time>2021-08-14T16:11:23Z</time>
      </trkpt>
      <trkpt lat="45.70012" lon="2.89558">
        <ele>900.89</ele>
        <time>2021-08-14T16:11:24Z</time>
      </trkpt>
      <trkpt lat="45.70006" lon="2.89555">
        <ele>900.89</ele>
        <time>2021-08-14T16:11:25Z</time>
      </trkpt>
      <trkpt lat="45.69999" lon="2.89551">
        <ele>900.41</ele>
        <time>2021-08-14T16:11:26Z</time>
      </trkpt>
      <trkpt lat="45.69993" lon="2.89548">
        <ele>900.41</ele>
        <time>2021-08-14T16:11:27Z</time>
      </trkpt>
      <trkpt lat="45.69987" lon="2.89544">
        <ele>900.41</ele>
        <time>2021-08-14T16:11:28Z</time>
      </trkpt>
      <trkpt lat="45.69981" lon="2.89539">
        <ele>899.93</ele>
        <time>2021-08-14T16:11:29Z</time>
      </trkpt>
      <trkpt lat="45.69976" lon="2.89534">
        <ele>899.45</ele>
        <time>2021-08-14T16:11:30Z</time>
      </trkpt>
      <trkpt lat="45.6996" lon="2.89513">
        <ele>896.09</ele>
        <time>2021-08-14T16:11:33Z</time>
      </trkpt>
      <trkpt lat="45.69955" lon="2.89506">
        <ele>896.09</ele>
        <time>2021-08-14T16:11:34Z</time>
      </trkpt>
      <trkpt lat="45.69952" lon="2.895">
        <ele>895.61</ele>
        <time>2021-08-14T16:11:35Z</time>
      </trkpt>
      <trkpt lat="45.69947" lon="2.89489">
        <ele>894.64</ele>
        <time>2021-08-14T16:11:38Z</time>
      </trkpt>
      <trkpt lat="45.69947" lon="2.89486">
        <ele>894.64</ele>
        <time>2021-08-14T16:11:39Z</time>
      </trkpt>
      <trkpt lat="45.69946" lon="2.89478">
        <ele>894.64</ele>
        <time>2021-08-14T16:11:45Z</time>
      </trkpt>
      <trkpt lat="45.69945" lon="2.89474">
        <ele>894.64</ele>
        <time>2021-08-14T16:11:47Z</time>
      </trkpt>
      <trkpt lat="45.69942" lon="2.8947">
        <ele>894.64</ele>
        <time>2021-08-14T16:11:49Z</time>
      </trkpt>
      <trkpt lat="45.6994" lon="2.89468">
        <ele>894.64</ele>
        <time>2021-08-14T16:11:50Z</time>
      </trkpt>
      <trkpt lat="45.69933" lon="2.89446">
        <ele>894.16</ele>
        <time>2021-08-14T16:11:56Z</time>
      </trkpt>
      <trkpt lat="45.69927" lon="2.89409">
        <ele>895.61</ele>
        <time>2021-08-14T16:12:05Z</time>
      </trkpt>
      <trkpt lat="45.69921" lon="2.89384">
        <ele>896.57</ele>
        <time>2021-08-14T16:12:13Z</time>
      </trkpt>
      <trkpt lat="45.6992" lon="2.8938">
        <ele>896.57</ele>
        <time>2021-08-14T16:12:15Z</time>
      </trkpt>
      <trkpt lat="45.6992" lon="2.89377">
        <ele>897.05</ele>
        <time>2021-08-14T16:12:16Z</time>
      </trkpt>
      <trkpt lat="45.69919" lon="2.89375">
        <ele>897.05</ele>
        <time>2021-08-14T16:12:17Z</time>
      </trkpt>
      <trkpt lat="45.69911" lon="2.89358">
        <ele>898.01</ele>
        <time>2021-08-14T16:12:24Z</time>
      </trkpt>
      <trkpt lat="45.69908" lon="2.89352">
        <ele>898.49</ele>
        <time>2021-08-14T16:12:27Z</time>
      </trkpt>
      <trkpt lat="45.69907" lon="2.89351">
        <ele>898.97</ele>
        <time>2021-08-14T16:12:28Z</time>
      </trkpt>
      <trkpt lat="45.69896" lon="2.89341">
        <ele>900.89</ele>
        <time>2021-08-14T16:12:38Z</time>
      </trkpt>
      <trkpt lat="45.69889" lon="2.89335">
        <ele>901.37</ele>
        <time>2021-08-14T16:12:44Z</time>
      </trkpt>
      <trkpt lat="45.69887" lon="2.89334">
        <ele>902.33</ele>
        <time>2021-08-14T16:12:45Z</time>
      </trkpt>
      <trkpt lat="45.69879" lon="2.89319">
        <ele>903.78</ele>
        <time>2021-08-14T16:12:54Z</time>
      </trkpt>
      <trkpt lat="45.69875" lon="2.89307">
        <ele>904.74</ele>
        <time>2021-08-14T16:13:00Z</time>
      </trkpt>
      <trkpt lat="45.69875" lon="2.89305">
        <ele>905.22</ele>
        <time>2021-08-14T16:13:01Z</time>
      </trkpt>
      <trkpt lat="45.69876" lon="2.89304">
        <ele>905.22</ele>
        <time>2021-08-14T16:13:02Z</time>
      </trkpt>
      <trkpt lat="45.69877" lon="2.89302">
        <ele>905.22</ele>
        <time>2021-08-14T16:13:03Z</time>
      </trkpt>
      <trkpt lat="45.69878" lon="2.89301">
        <ele>905.7</ele>
        <time>2021-08-14T16:13:04Z</time>
      </trkpt>
      <trkpt lat="45.6988" lon="2.893">
        <ele>905.7</ele>
        <time>2021-08-14T16:13:05Z</time>
      </trkpt>
      <trkpt lat="45.69881" lon="2.89299">
        <ele>905.7</ele>
        <time>2021-08-14T16:13:06Z</time>
      </trkpt>
      <trkpt lat="45.69882" lon="2.89299">
        <ele>905.7</ele>
        <time>2021-08-14T16:13:07Z</time>
      </trkpt>
      <trkpt lat="45.69883" lon="2.89299">
        <ele>905.7</ele>
        <time>2021-08-14T16:13:08Z</time>
      </trkpt>
      <trkpt lat="45.69882" lon="2.89298">
        <ele>905.7</ele>
        <time>2021-08-14T16:13:13Z</time>
      </trkpt>
      <trkpt lat="45.6988" lon="2.89299">
        <ele>905.7</ele>
        <time>2021-08-14T16:13:14Z</time>
      </trkpt>
      <trkpt lat="45.69878" lon="2.893">
        <ele>905.7</ele>
        <time>2021-08-14T16:13:15Z</time>
      </trkpt>
      <trkpt lat="45.69876" lon="2.893">
        <ele>905.7</ele>
        <time>2021-08-14T16:13:16Z</time>
      </trkpt>
      <trkpt lat="45.69873" lon="2.893">
        <ele>905.7</ele>
        <time>2021-08-14T16:13:17Z</time>
      </trkpt>
      <trkpt lat="45.69871" lon="2.89299">
        <ele>905.7</ele>
        <time>2021-08-14T16:13:18Z</time>
      </trkpt>
      <trkpt lat="45.6987" lon="2.89297">
        <ele>905.7</ele>
        <time>2021-08-14T16:13:19Z</time>
      </trkpt>
      <trkpt lat="45.69861" lon="2.89285">
        <ele>907.14</ele>
        <time>2021-08-14T16:13:28Z</time>
      </trkpt>
      <trkpt lat="45.69858" lon="2.8927">
        <ele>908.1</ele>
        <time>2021-08-14T16:13:36Z</time>
      </trkpt>
      <trkpt lat="45.69859" lon="2.8925">
        <ele>909.54</ele>
        <time>2021-08-14T16:13:46Z</time>
      </trkpt>
      <trkpt lat="45.6986" lon="2.8924">
        <ele>910.51</ele>
        <time>2021-08-14T16:13:52Z</time>
      </trkpt>
      <trkpt lat="45.6986" lon="2.89221">
        <ele>911.95</ele>
        <time>2021-08-14T16:14:02Z</time>
      </trkpt>
      <trkpt lat="45.69861" lon="2.89207">
        <ele>913.87</ele>
        <time>2021-08-14T16:14:11Z</time>
      </trkpt>
      <trkpt lat="45.69862" lon="2.89192">
        <ele>915.31</ele>
        <time>2021-08-14T16:14:21Z</time>
      </trkpt>
      <trkpt lat="45.69861" lon="2.89179">
        <ele>917.24</ele>
        <time>2021-08-14T16:14:31Z</time>
      </trkpt>
      <trkpt lat="45.69857" lon="2.8917">
        <ele>918.68</ele>
        <time>2021-08-14T16:14:39Z</time>
      </trkpt>
      <trkpt lat="45.69852" lon="2.89159">
        <ele>920.12</ele>
        <time>2021-08-14T16:14:48Z</time>
      </trkpt>
      <trkpt lat="45.69846" lon="2.89151">
        <ele>921.08</ele>
        <time>2021-08-14T16:14:57Z</time>
      </trkpt>
      <trkpt lat="45.69843" lon="2.89149">
        <ele>921.08</ele>
        <time>2021-08-14T16:15:03Z</time>
      </trkpt>
      <trkpt lat="45.69836" lon="2.8914">
        <ele>922.04</ele>
        <time>2021-08-14T16:15:09Z</time>
      </trkpt>
      <trkpt lat="45.69829" lon="2.89129">
        <ele>923</ele>
        <time>2021-08-14T16:15:15Z</time>
      </trkpt>
      <trkpt lat="45.69814" lon="2.89115">
        <ele>925.41</ele>
        <time>2021-08-14T16:15:27Z</time>
      </trkpt>
      <trkpt lat="45.69808" lon="2.89109">
        <ele>926.37</ele>
        <time>2021-08-14T16:15:32Z</time>
      </trkpt>
      <trkpt lat="45.69807" lon="2.89109">
        <ele>926.37</ele>
        <time>2021-08-14T16:15:33Z</time>
      </trkpt>
      <trkpt lat="45.69806" lon="2.89109">
        <ele>926.85</ele>
        <time>2021-08-14T16:15:34Z</time>
      </trkpt>
      <trkpt lat="45.69804" lon="2.89108">
        <ele>926.85</ele>
        <time>2021-08-14T16:15:35Z</time>
      </trkpt>
      <trkpt lat="45.69803" lon="2.89107">
        <ele>926.85</ele>
        <time>2021-08-14T16:15:36Z</time>
      </trkpt>
      <trkpt lat="45.69802" lon="2.89107">
        <ele>926.85</ele>
        <time>2021-08-14T16:15:37Z</time>
      </trkpt>
      <trkpt lat="45.69801" lon="2.89106">
        <ele>927.33</ele>
        <time>2021-08-14T16:15:38Z</time>
      </trkpt>
      <trkpt lat="45.698" lon="2.89105">
        <ele>927.33</ele>
        <time>2021-08-14T16:15:39Z</time>
      </trkpt>
      <trkpt lat="45.69798" lon="2.89104">
        <ele>927.33</ele>
        <time>2021-08-14T16:15:40Z</time>
      </trkpt>
      <trkpt lat="45.69797" lon="2.89104">
        <ele>927.33</ele>
        <time>2021-08-14T16:15:41Z</time>
      </trkpt>
      <trkpt lat="45.69796" lon="2.89103">
        <ele>927.33</ele>
        <time>2021-08-14T16:15:42Z</time>
      </trkpt>
      <trkpt lat="45.69795" lon="2.89102">
        <ele>927.81</ele>
        <time>2021-08-14T16:15:43Z</time>
      </trkpt>
      <trkpt lat="45.69793" lon="2.89102">
        <ele>927.81</ele>
        <time>2021-08-14T16:15:44Z</time>
      </trkpt>
      <trkpt lat="45.69792" lon="2.89101">
        <ele>927.81</ele>
        <time>2021-08-14T16:15:45Z</time>
      </trkpt>
      <trkpt lat="45.69787" lon="2.89096">
        <ele>929.25</ele>
        <time>2021-08-14T16:15:50Z</time>
      </trkpt>
      <trkpt lat="45.69786" lon="2.89095">
        <ele>929.25</ele>
        <time>2021-08-14T16:15:51Z</time>
      </trkpt>
      <trkpt lat="45.69785" lon="2.89094">
        <ele>929.73</ele>
        <time>2021-08-14T16:15:52Z</time>
      </trkpt>
      <trkpt lat="45.69776" lon="2.89087">
        <ele>930.21</ele>
        <time>2021-08-14T16:16:00Z</time>
      </trkpt>
      <trkpt lat="45.69775" lon="2.89087">
        <ele>931.17</ele>
        <time>2021-08-14T16:16:01Z</time>
      </trkpt>
      <trkpt lat="45.69774" lon="2.89086">
        <ele>931.17</ele>
        <time>2021-08-14T16:16:02Z</time>
      </trkpt>
      <trkpt lat="45.6977" lon="2.89082">
        <ele>931.65</ele>
        <time>2021-08-14T16:16:06Z</time>
      </trkpt>
      <trkpt lat="45.69769" lon="2.89081">
        <ele>931.65</ele>
        <time>2021-08-14T16:16:07Z</time>
      </trkpt>
      <trkpt lat="45.69767" lon="2.8908">
        <ele>932.14</ele>
        <time>2021-08-14T16:16:08Z</time>
      </trkpt>
      <trkpt lat="45.69766" lon="2.8908">
        <ele>932.14</ele>
        <time>2021-08-14T16:16:09Z</time>
      </trkpt>
      <trkpt lat="45.69765" lon="2.89079">
        <ele>932.62</ele>
        <time>2021-08-14T16:16:10Z</time>
      </trkpt>
      <trkpt lat="45.69764" lon="2.89078">
        <ele>932.62</ele>
        <time>2021-08-14T16:16:11Z</time>
      </trkpt>
      <trkpt lat="45.69759" lon="2.89074">
        <ele>933.58</ele>
        <time>2021-08-14T16:16:15Z</time>
      </trkpt>
      <trkpt lat="45.69759" lon="2.89073">
        <ele>933.58</ele>
        <time>2021-08-14T16:16:16Z</time>
      </trkpt>
      <trkpt lat="45.69757" lon="2.89072">
        <ele>934.06</ele>
        <time>2021-08-14T16:16:17Z</time>
      </trkpt>
      <trkpt lat="45.69756" lon="2.89071">
        <ele>934.06</ele>
        <time>2021-08-14T16:16:18Z</time>
      </trkpt>
      <trkpt lat="45.69755" lon="2.8907">
        <ele>934.06</ele>
        <time>2021-08-14T16:16:19Z</time>
      </trkpt>
      <trkpt lat="45.69754" lon="2.89069">
        <ele>934.06</ele>
        <time>2021-08-14T16:16:20Z</time>
      </trkpt>
      <trkpt lat="45.69753" lon="2.89068">
        <ele>934.54</ele>
        <time>2021-08-14T16:16:21Z</time>
      </trkpt>
      <trkpt lat="45.69741" lon="2.89057">
        <ele>935.98</ele>
        <time>2021-08-14T16:16:32Z</time>
      </trkpt>
      <trkpt lat="45.69736" lon="2.89051">
        <ele>936.94</ele>
        <time>2021-08-14T16:16:37Z</time>
      </trkpt>
      <trkpt lat="45.69735" lon="2.8905">
        <ele>936.94</ele>
        <time>2021-08-14T16:16:38Z</time>
      </trkpt>
      <trkpt lat="45.6973" lon="2.89045">
        <ele>937.9</ele>
        <time>2021-08-14T16:16:42Z</time>
      </trkpt>
      <trkpt lat="45.69727" lon="2.89041">
        <ele>938.38</ele>
        <time>2021-08-14T16:16:45Z</time>
      </trkpt>
      <trkpt lat="45.69724" lon="2.89036">
        <ele>939.35</ele>
        <time>2021-08-14T16:16:51Z</time>
      </trkpt>
      <trkpt lat="45.69724" lon="2.89034">
        <ele>939.35</ele>
        <time>2021-08-14T16:16:52Z</time>
      </trkpt>
      <trkpt lat="45.69724" lon="2.89033">
        <ele>939.35</ele>
        <time>2021-08-14T16:16:53Z</time>
      </trkpt>
      <trkpt lat="45.69724" lon="2.89031">
        <ele>939.35</ele>
        <time>2021-08-14T16:16:54Z</time>
      </trkpt>
      <trkpt lat="45.69724" lon="2.89018">
        <ele>941.27</ele>
        <time>2021-08-14T16:17:04Z</time>
      </trkpt>
      <trkpt lat="45.69722" lon="2.89008">
        <ele>942.71</ele>
        <time>2021-08-14T16:17:13Z</time>
      </trkpt>
      <trkpt lat="45.6972" lon="2.88999">
        <ele>943.67</ele>
        <time>2021-08-14T16:17:20Z</time>
      </trkpt>
      <trkpt lat="45.69719" lon="2.88998">
        <ele>944.63</ele>
        <time>2021-08-14T16:17:21Z</time>
      </trkpt>
      <trkpt lat="45.69718" lon="2.88997">
        <ele>944.63</ele>
        <time>2021-08-14T16:17:22Z</time>
      </trkpt>
      <trkpt lat="45.69714" lon="2.88988">
        <ele>945.59</ele>
        <time>2021-08-14T16:17:30Z</time>
      </trkpt>
      <trkpt lat="45.69708" lon="2.88976">
        <ele>946.56</ele>
        <time>2021-08-14T16:17:39Z</time>
      </trkpt>
      <trkpt lat="45.69704" lon="2.88966">
        <ele>947.52</ele>
        <time>2021-08-14T16:17:45Z</time>
      </trkpt>
      <trkpt lat="45.69704" lon="2.88965">
        <ele>948</ele>
        <time>2021-08-14T16:17:46Z</time>
      </trkpt>
      <trkpt lat="45.69703" lon="2.88961">
        <ele>948</ele>
        <time>2021-08-14T16:17:51Z</time>
      </trkpt>
      <trkpt lat="45.69699" lon="2.88943">
        <ele>948.96</ele>
        <time>2021-08-14T16:17:57Z</time>
      </trkpt>
      <trkpt lat="45.69694" lon="2.88911">
        <ele>949.44</ele>
        <time>2021-08-14T16:18:04Z</time>
      </trkpt>
      <trkpt lat="45.69694" lon="2.88907">
        <ele>949.44</ele>
        <time>2021-08-14T16:18:05Z</time>
      </trkpt>
      <trkpt lat="45.69693" lon="2.88905">
        <ele>949.44</ele>
        <time>2021-08-14T16:18:06Z</time>
      </trkpt>
      <trkpt lat="45.69692" lon="2.88905">
        <ele>949.44</ele>
        <time>2021-08-14T16:18:07Z</time>
      </trkpt>
      <trkpt lat="45.69692" lon="2.88906">
        <ele>949.44</ele>
        <time>2021-08-14T16:18:08Z</time>
      </trkpt>
      <trkpt lat="45.69692" lon="2.88909">
        <ele>949.44</ele>
        <time>2021-08-14T16:18:09Z</time>
      </trkpt>
      <trkpt lat="45.69693" lon="2.88911">
        <ele>949.44</ele>
        <time>2021-08-14T16:18:10Z</time>
      </trkpt>
      <trkpt lat="45.69694" lon="2.88913">
        <ele>949.44</ele>
        <time>2021-08-14T16:18:11Z</time>
      </trkpt>
      <trkpt lat="45.69694" lon="2.88916">
        <ele>949.44</ele>
        <time>2021-08-14T16:18:12Z</time>
      </trkpt>
      <trkpt lat="45.69693" lon="2.88919">
        <ele>949.44</ele>
        <time>2021-08-14T16:18:13Z</time>
      </trkpt>
      <trkpt lat="45.69691" lon="2.88922">
        <ele>949.44</ele>
        <time>2021-08-14T16:18:14Z</time>
      </trkpt>
      <trkpt lat="45.69688" lon="2.88923">
        <ele>949.44</ele>
        <time>2021-08-14T16:18:15Z</time>
      </trkpt>
      <trkpt lat="45.69686" lon="2.88923">
        <ele>949.44</ele>
        <time>2021-08-14T16:18:16Z</time>
      </trkpt>
      <trkpt lat="45.69682" lon="2.88923">
        <ele>949.44</ele>
        <time>2021-08-14T16:18:17Z</time>
      </trkpt>
      <trkpt lat="45.69679" lon="2.88923">
        <ele>949.44</ele>
        <time>2021-08-14T16:18:18Z</time>
      </trkpt>
      <trkpt lat="45.69676" lon="2.88923">
        <ele>949.44</ele>
        <time>2021-08-14T16:18:19Z</time>
      </trkpt>
      <trkpt lat="45.69646" lon="2.88924">
        <ele>949.44</ele>
        <time>2021-08-14T16:18:27Z</time>
      </trkpt>
      <trkpt lat="45.69604" lon="2.88922">
        <ele>949.44</ele>
        <time>2021-08-14T16:18:37Z</time>
      </trkpt>
      <trkpt lat="45.69564" lon="2.88911">
        <ele>948.96</ele>
        <time>2021-08-14T16:18:46Z</time>
      </trkpt>
      <trkpt lat="45.69523" lon="2.88891">
        <ele>948.96</ele>
        <time>2021-08-14T16:18:55Z</time>
      </trkpt>
      <trkpt lat="45.69501" lon="2.88878">
        <ele>949.44</ele>
        <time>2021-08-14T16:19:00Z</time>
      </trkpt>
      <trkpt lat="45.69497" lon="2.88875">
        <ele>949.44</ele>
        <time>2021-08-14T16:19:01Z</time>
      </trkpt>
      <trkpt lat="45.69492" lon="2.88872">
        <ele>949.44</ele>
        <time>2021-08-14T16:19:02Z</time>
      </trkpt>
      <trkpt lat="45.69456" lon="2.88854">
        <ele>949.44</ele>
        <time>2021-08-14T16:19:09Z</time>
      </trkpt>
      <trkpt lat="45.69451" lon="2.88853">
        <ele>949.44</ele>
        <time>2021-08-14T16:19:10Z</time>
      </trkpt>
      <trkpt lat="45.69445" lon="2.88851">
        <ele>949.44</ele>
        <time>2021-08-14T16:19:11Z</time>
      </trkpt>
      <trkpt lat="45.6944" lon="2.88849">
        <ele>949.44</ele>
        <time>2021-08-14T16:19:12Z</time>
      </trkpt>
      <trkpt lat="45.69434" lon="2.88847">
        <ele>949.44</ele>
        <time>2021-08-14T16:19:13Z</time>
      </trkpt>
      <trkpt lat="45.69393" lon="2.88835">
        <ele>949.92</ele>
        <time>2021-08-14T16:19:21Z</time>
      </trkpt>
      <trkpt lat="45.69389" lon="2.88835">
        <ele>950.4</ele>
        <time>2021-08-14T16:19:22Z</time>
      </trkpt>
      <trkpt lat="45.69386" lon="2.88836">
        <ele>950.88</ele>
        <time>2021-08-14T16:19:23Z</time>
      </trkpt>
      <trkpt lat="45.69383" lon="2.88837">
        <ele>951.36</ele>
        <time>2021-08-14T16:19:24Z</time>
      </trkpt>
      <trkpt lat="45.6938" lon="2.88838">
        <ele>951.36</ele>
        <time>2021-08-14T16:19:25Z</time>
      </trkpt>
      <trkpt lat="45.69377" lon="2.8884">
        <ele>951.36</ele>
        <time>2021-08-14T16:19:26Z</time>
      </trkpt>
      <trkpt lat="45.69374" lon="2.88841">
        <ele>952.32</ele>
        <time>2021-08-14T16:19:27Z</time>
      </trkpt>
      <trkpt lat="45.69344" lon="2.8885">
        <ele>953.77</ele>
        <time>2021-08-14T16:19:35Z</time>
      </trkpt>
      <trkpt lat="45.69306" lon="2.88852">
        <ele>955.69</ele>
        <time>2021-08-14T16:19:45Z</time>
      </trkpt>
      <trkpt lat="45.69274" lon="2.88852">
        <ele>957.61</ele>
        <time>2021-08-14T16:19:55Z</time>
      </trkpt>
      <trkpt lat="45.69245" lon="2.88853">
        <ele>959.05</ele>
        <time>2021-08-14T16:20:05Z</time>
      </trkpt>
      <trkpt lat="45.69223" lon="2.88854">
        <ele>959.53</ele>
        <time>2021-08-14T16:20:12Z</time>
      </trkpt>
      <trkpt lat="45.69216" lon="2.88852">
        <ele>959.53</ele>
        <time>2021-08-14T16:20:14Z</time>
      </trkpt>
      <trkpt lat="45.69212" lon="2.88851">
        <ele>958.09</ele>
        <time>2021-08-14T16:20:15Z</time>
      </trkpt>
      <trkpt lat="45.69207" lon="2.88848">
        <ele>958.09</ele>
        <time>2021-08-14T16:20:16Z</time>
      </trkpt>
      <trkpt lat="45.69204" lon="2.88845">
        <ele>957.61</ele>
        <time>2021-08-14T16:20:17Z</time>
      </trkpt>
      <trkpt lat="45.69199" lon="2.88841">
        <ele>957.61</ele>
        <time>2021-08-14T16:20:18Z</time>
      </trkpt>
      <trkpt lat="45.69195" lon="2.88836">
        <ele>957.61</ele>
        <time>2021-08-14T16:20:19Z</time>
      </trkpt>
      <trkpt lat="45.69192" lon="2.88832">
        <ele>957.61</ele>
        <time>2021-08-14T16:20:20Z</time>
      </trkpt>
      <trkpt lat="45.69188" lon="2.88827">
        <ele>957.61</ele>
        <time>2021-08-14T16:20:21Z</time>
      </trkpt>
      <trkpt lat="45.69153" lon="2.88787">
        <ele>957.13</ele>
        <time>2021-08-14T16:20:30Z</time>
      </trkpt>
      <trkpt lat="45.69121" lon="2.88769">
        <ele>957.13</ele>
        <time>2021-08-14T16:20:37Z</time>
      </trkpt>
      <trkpt lat="45.69102" lon="2.88766">
        <ele>957.13</ele>
        <time>2021-08-14T16:20:41Z</time>
      </trkpt>
      <trkpt lat="45.6906" lon="2.88769">
        <ele>958.57</ele>
        <time>2021-08-14T16:20:50Z</time>
      </trkpt>
      <trkpt lat="45.69031" lon="2.88763">
        <ele>959.05</ele>
        <time>2021-08-14T16:20:57Z</time>
      </trkpt>
      <trkpt lat="45.69007" lon="2.88748">
        <ele>960.01</ele>
        <time>2021-08-14T16:21:05Z</time>
      </trkpt>
      <trkpt lat="45.68984" lon="2.88731">
        <ele>960.49</ele>
        <time>2021-08-14T16:21:12Z</time>
      </trkpt>
      <trkpt lat="45.6896" lon="2.88714">
        <ele>961.94</ele>
        <time>2021-08-14T16:21:20Z</time>
      </trkpt>
      <trkpt lat="45.6894" lon="2.88699">
        <ele>964.34</ele>
        <time>2021-08-14T16:21:28Z</time>
      </trkpt>
      <trkpt lat="45.68919" lon="2.88683">
        <ele>964.82</ele>
        <time>2021-08-14T16:21:36Z</time>
      </trkpt>
      <trkpt lat="45.68892" lon="2.8866">
        <ele>965.3</ele>
        <time>2021-08-14T16:21:45Z</time>
      </trkpt>
      <trkpt lat="45.68882" lon="2.8865">
        <ele>965.3</ele>
        <time>2021-08-14T16:21:48Z</time>
      </trkpt>
      <trkpt lat="45.68881" lon="2.88644">
        <ele>965.3</ele>
        <time>2021-08-14T16:21:49Z</time>
      </trkpt>
      <trkpt lat="45.68882" lon="2.88638">
        <ele>965.3</ele>
        <time>2021-08-14T16:21:50Z</time>
      </trkpt>
      <trkpt lat="45.68883" lon="2.88634">
        <ele>965.3</ele>
        <time>2021-08-14T16:21:51Z</time>
      </trkpt>
      <trkpt lat="45.68885" lon="2.8863">
        <ele>965.3</ele>
        <time>2021-08-14T16:21:52Z</time>
      </trkpt>
      <trkpt lat="45.68893" lon="2.88612">
        <ele>967.22</ele>
        <time>2021-08-14T16:21:58Z</time>
      </trkpt>
      <trkpt lat="45.68896" lon="2.88589">
        <ele>969.63</ele>
        <time>2021-08-14T16:22:05Z</time>
      </trkpt>
      <trkpt lat="45.68899" lon="2.88564">
        <ele>970.59</ele>
        <time>2021-08-14T16:22:12Z</time>
      </trkpt>
      <trkpt lat="45.68896" lon="2.88528">
        <ele>971.55</ele>
        <time>2021-08-14T16:22:21Z</time>
      </trkpt>
      <trkpt lat="45.68895" lon="2.88498">
        <ele>972.03</ele>
        <time>2021-08-14T16:22:29Z</time>
      </trkpt>
      <trkpt lat="45.68898" lon="2.88481">
        <ele>972.03</ele>
        <time>2021-08-14T16:22:32Z</time>
      </trkpt>
      <trkpt lat="45.68907" lon="2.8844">
        <ele>970.11</ele>
        <time>2021-08-14T16:22:38Z</time>
      </trkpt>
      <trkpt lat="45.68913" lon="2.88411">
        <ele>968.18</ele>
        <time>2021-08-14T16:22:41Z</time>
      </trkpt>
      <trkpt lat="45.68919" lon="2.8835">
        <ele>967.22</ele>
        <time>2021-08-14T16:22:47Z</time>
      </trkpt>
      <trkpt lat="45.68921" lon="2.88331">
        <ele>967.22</ele>
        <time>2021-08-14T16:22:49Z</time>
      </trkpt>
      <trkpt lat="45.68927" lon="2.88264">
        <ele>967.22</ele>
        <time>2021-08-14T16:22:57Z</time>
      </trkpt>
      <trkpt lat="45.68928" lon="2.88257">
        <ele>967.22</ele>
        <time>2021-08-14T16:22:58Z</time>
      </trkpt>
      <trkpt lat="45.68928" lon="2.8825">
        <ele>968.67</ele>
        <time>2021-08-14T16:22:59Z</time>
      </trkpt>
      <trkpt lat="45.68928" lon="2.88244">
        <ele>968.67</ele>
        <time>2021-08-14T16:23:00Z</time>
      </trkpt>
      <trkpt lat="45.6893" lon="2.8823">
        <ele>969.15</ele>
        <time>2021-08-14T16:23:02Z</time>
      </trkpt>
      <trkpt lat="45.68934" lon="2.88188">
        <ele>970.11</ele>
        <time>2021-08-14T16:23:09Z</time>
      </trkpt>
      <trkpt lat="45.68935" lon="2.88182">
        <ele>970.11</ele>
        <time>2021-08-14T16:23:10Z</time>
      </trkpt>
      <trkpt lat="45.6894" lon="2.88122">
        <ele>969.15</ele>
        <time>2021-08-14T16:23:19Z</time>
      </trkpt>
      <trkpt lat="45.68941" lon="2.88116">
        <ele>968.18</ele>
        <time>2021-08-14T16:23:20Z</time>
      </trkpt>
      <trkpt lat="45.68942" lon="2.8811">
        <ele>967.7</ele>
        <time>2021-08-14T16:23:21Z</time>
      </trkpt>
      <trkpt lat="45.68943" lon="2.88104">
        <ele>967.7</ele>
        <time>2021-08-14T16:23:22Z</time>
      </trkpt>
      <trkpt lat="45.68944" lon="2.88097">
        <ele>966.74</ele>
        <time>2021-08-14T16:23:23Z</time>
      </trkpt>
      <trkpt lat="45.68943" lon="2.88091">
        <ele>966.26</ele>
        <time>2021-08-14T16:23:24Z</time>
      </trkpt>
      <trkpt lat="45.68942" lon="2.88085">
        <ele>965.3</ele>
        <time>2021-08-14T16:23:25Z</time>
      </trkpt>
      <trkpt lat="45.68941" lon="2.88078">
        <ele>964.34</ele>
        <time>2021-08-14T16:23:26Z</time>
      </trkpt>
      <trkpt lat="45.68939" lon="2.88072">
        <ele>963.38</ele>
        <time>2021-08-14T16:23:27Z</time>
      </trkpt>
      <trkpt lat="45.68937" lon="2.88066">
        <ele>962.42</ele>
        <time>2021-08-14T16:23:28Z</time>
      </trkpt>
      <trkpt lat="45.68934" lon="2.8806">
        <ele>960.98</ele>
        <time>2021-08-14T16:23:29Z</time>
      </trkpt>
      <trkpt lat="45.68931" lon="2.88053">
        <ele>960.49</ele>
        <time>2021-08-14T16:23:30Z</time>
      </trkpt>
      <trkpt lat="45.68928" lon="2.88046">
        <ele>959.05</ele>
        <time>2021-08-14T16:23:31Z</time>
      </trkpt>
      <trkpt lat="45.68925" lon="2.88038">
        <ele>958.09</ele>
        <time>2021-08-14T16:23:32Z</time>
      </trkpt>
      <trkpt lat="45.68923" lon="2.8803">
        <ele>957.13</ele>
        <time>2021-08-14T16:23:33Z</time>
      </trkpt>
      <trkpt lat="45.68921" lon="2.88021">
        <ele>956.17</ele>
        <time>2021-08-14T16:23:34Z</time>
      </trkpt>
      <trkpt lat="45.68916" lon="2.87984">
        <ele>952.8</ele>
        <time>2021-08-14T16:23:38Z</time>
      </trkpt>
      <trkpt lat="45.68915" lon="2.87954">
        <ele>949.92</ele>
        <time>2021-08-14T16:23:41Z</time>
      </trkpt>
      <trkpt lat="45.68918" lon="2.87913">
        <ele>945.59</ele>
        <time>2021-08-14T16:23:45Z</time>
      </trkpt>
      <trkpt lat="45.68921" lon="2.87868">
        <ele>941.75</ele>
        <time>2021-08-14T16:23:49Z</time>
      </trkpt>
      <trkpt lat="45.68922" lon="2.87824">
        <ele>938.86</ele>
        <time>2021-08-14T16:23:53Z</time>
      </trkpt>
      <trkpt lat="45.68922" lon="2.87816">
        <ele>938.86</ele>
        <time>2021-08-14T16:23:54Z</time>
      </trkpt>
      <trkpt lat="45.6892" lon="2.87761">
        <ele>935.02</ele>
        <time>2021-08-14T16:24:00Z</time>
      </trkpt>
      <trkpt lat="45.68918" lon="2.87742">
        <ele>934.54</ele>
        <time>2021-08-14T16:24:02Z</time>
      </trkpt>
      <trkpt lat="45.68914" lon="2.87711">
        <ele>932.62</ele>
        <time>2021-08-14T16:24:05Z</time>
      </trkpt>
      <trkpt lat="45.68912" lon="2.87677">
        <ele>930.21</ele>
        <time>2021-08-14T16:24:09Z</time>
      </trkpt>
      <trkpt lat="45.68911" lon="2.87669">
        <ele>929.73</ele>
        <time>2021-08-14T16:24:10Z</time>
      </trkpt>
      <trkpt lat="45.68911" lon="2.87661">
        <ele>929.73</ele>
        <time>2021-08-14T16:24:11Z</time>
      </trkpt>
      <trkpt lat="45.68911" lon="2.87653">
        <ele>929.25</ele>
        <time>2021-08-14T16:24:12Z</time>
      </trkpt>
      <trkpt lat="45.68911" lon="2.87645">
        <ele>928.29</ele>
        <time>2021-08-14T16:24:13Z</time>
      </trkpt>
      <trkpt lat="45.68908" lon="2.87586">
        <ele>924.93</ele>
        <time>2021-08-14T16:24:20Z</time>
      </trkpt>
      <trkpt lat="45.68906" lon="2.8756">
        <ele>920.6</ele>
        <time>2021-08-14T16:24:23Z</time>
      </trkpt>
      <trkpt lat="45.68905" lon="2.87531">
        <ele>917.24</ele>
        <time>2021-08-14T16:24:26Z</time>
      </trkpt>
      <trkpt lat="45.68905" lon="2.87521">
        <ele>916.27</ele>
        <time>2021-08-14T16:24:27Z</time>
      </trkpt>
      <trkpt lat="45.68907" lon="2.87513">
        <ele>915.31</ele>
        <time>2021-08-14T16:24:28Z</time>
      </trkpt>
      <trkpt lat="45.68913" lon="2.87489">
        <ele>912.43</ele>
        <time>2021-08-14T16:24:31Z</time>
      </trkpt>
      <trkpt lat="45.68914" lon="2.87482">
        <ele>911.47</ele>
        <time>2021-08-14T16:24:32Z</time>
      </trkpt>
      <trkpt lat="45.68915" lon="2.87475">
        <ele>910.99</ele>
        <time>2021-08-14T16:24:33Z</time>
      </trkpt>
      <trkpt lat="45.68918" lon="2.87461">
        <ele>908.58</ele>
        <time>2021-08-14T16:24:35Z</time>
      </trkpt>
      <trkpt lat="45.68925" lon="2.87432">
        <ele>904.74</ele>
        <time>2021-08-14T16:24:39Z</time>
      </trkpt>
      <trkpt lat="45.68931" lon="2.87409">
        <ele>901.37</ele>
        <time>2021-08-14T16:24:42Z</time>
      </trkpt>
      <trkpt lat="45.68936" lon="2.87387">
        <ele>898.01</ele>
        <time>2021-08-14T16:24:46Z</time>
      </trkpt>
      <trkpt lat="45.68942" lon="2.87366">
        <ele>895.12</ele>
        <time>2021-08-14T16:24:49Z</time>
      </trkpt>
      <trkpt lat="45.68951" lon="2.87337">
        <ele>891.28</ele>
        <time>2021-08-14T16:24:53Z</time>
      </trkpt>
      <trkpt lat="45.68961" lon="2.87304">
        <ele>887.91</ele>
        <time>2021-08-14T16:24:57Z</time>
      </trkpt>
      <trkpt lat="45.68968" lon="2.87278">
        <ele>885.51</ele>
        <time>2021-08-14T16:25:00Z</time>
      </trkpt>
      <trkpt lat="45.6897" lon="2.87269">
        <ele>885.51</ele>
        <time>2021-08-14T16:25:01Z</time>
      </trkpt>
      <trkpt lat="45.6897" lon="2.8726">
        <ele>884.07</ele>
        <time>2021-08-14T16:25:02Z</time>
      </trkpt>
      <trkpt lat="45.6897" lon="2.87241">
        <ele>882.63</ele>
        <time>2021-08-14T16:25:04Z</time>
      </trkpt>
      <trkpt lat="45.68967" lon="2.87203">
        <ele>879.74</ele>
        <time>2021-08-14T16:25:08Z</time>
      </trkpt>
      <trkpt lat="45.68964" lon="2.87173">
        <ele>876.38</ele>
        <time>2021-08-14T16:25:12Z</time>
      </trkpt>
      <trkpt lat="45.6896" lon="2.87144">
        <ele>873.5</ele>
        <time>2021-08-14T16:25:17Z</time>
      </trkpt>
      <trkpt lat="45.68959" lon="2.87137">
        <ele>872.53</ele>
        <time>2021-08-14T16:25:18Z</time>
      </trkpt>
      <trkpt lat="45.68957" lon="2.87131">
        <ele>872.05</ele>
        <time>2021-08-14T16:25:19Z</time>
      </trkpt>
      <trkpt lat="45.68955" lon="2.87128">
        <ele>871.09</ele>
        <time>2021-08-14T16:25:20Z</time>
      </trkpt>
      <trkpt lat="45.68953" lon="2.87123">
        <ele>870.61</ele>
        <time>2021-08-14T16:25:21Z</time>
      </trkpt>
      <trkpt lat="45.68946" lon="2.87117">
        <ele>869.17</ele>
        <time>2021-08-14T16:25:24Z</time>
      </trkpt>
      <trkpt lat="45.68937" lon="2.87104">
        <ele>865.8</ele>
        <time>2021-08-14T16:25:28Z</time>
      </trkpt>
      <trkpt lat="45.68932" lon="2.8709">
        <ele>863.4</ele>
        <time>2021-08-14T16:25:31Z</time>
      </trkpt>
      <trkpt lat="45.68933" lon="2.87085">
        <ele>862.92</ele>
        <time>2021-08-14T16:25:32Z</time>
      </trkpt>
      <trkpt lat="45.68939" lon="2.87051">
        <ele>860.04</ele>
        <time>2021-08-14T16:25:37Z</time>
      </trkpt>
      <trkpt lat="45.68939" lon="2.87043">
        <ele>860.04</ele>
        <time>2021-08-14T16:25:38Z</time>
      </trkpt>
      <trkpt lat="45.68938" lon="2.87035">
        <ele>859.56</ele>
        <time>2021-08-14T16:25:39Z</time>
      </trkpt>
      <trkpt lat="45.68936" lon="2.87028">
        <ele>859.56</ele>
        <time>2021-08-14T16:25:40Z</time>
      </trkpt>
      <trkpt lat="45.68934" lon="2.87022">
        <ele>859.08</ele>
        <time>2021-08-14T16:25:41Z</time>
      </trkpt>
      <trkpt lat="45.68933" lon="2.87015">
        <ele>858.59</ele>
        <time>2021-08-14T16:25:42Z</time>
      </trkpt>
      <trkpt lat="45.68932" lon="2.87007">
        <ele>858.59</ele>
        <time>2021-08-14T16:25:43Z</time>
      </trkpt>
      <trkpt lat="45.68932" lon="2.86999">
        <ele>858.59</ele>
        <time>2021-08-14T16:25:44Z</time>
      </trkpt>
      <trkpt lat="45.68934" lon="2.86991">
        <ele>858.59</ele>
        <time>2021-08-14T16:25:45Z</time>
      </trkpt>
      <trkpt lat="45.68935" lon="2.86984">
        <ele>858.59</ele>
        <time>2021-08-14T16:25:46Z</time>
      </trkpt>
      <trkpt lat="45.68945" lon="2.86933">
        <ele>858.59</ele>
        <time>2021-08-14T16:25:54Z</time>
      </trkpt>
      <trkpt lat="45.68958" lon="2.86895">
        <ele>860.04</ele>
        <time>2021-08-14T16:26:02Z</time>
      </trkpt>
      <trkpt lat="45.68966" lon="2.86881">
        <ele>859.56</ele>
        <time>2021-08-14T16:26:05Z</time>
      </trkpt>
      <trkpt lat="45.68977" lon="2.86869">
        <ele>859.56</ele>
        <time>2021-08-14T16:26:08Z</time>
      </trkpt>
      <trkpt lat="45.68982" lon="2.86867">
        <ele>859.56</ele>
        <time>2021-08-14T16:26:09Z</time>
      </trkpt>
      <trkpt lat="45.68987" lon="2.86866">
        <ele>859.56</ele>
        <time>2021-08-14T16:26:10Z</time>
      </trkpt>
      <trkpt lat="45.68997" lon="2.86866">
        <ele>858.59</ele>
        <time>2021-08-14T16:26:12Z</time>
      </trkpt>
      <trkpt lat="45.69002" lon="2.86867">
        <ele>858.59</ele>
        <time>2021-08-14T16:26:13Z</time>
      </trkpt>
      <trkpt lat="45.69019" lon="2.86868">
        <ele>857.63</ele>
        <time>2021-08-14T16:26:16Z</time>
      </trkpt>
      <trkpt lat="45.69024" lon="2.86866">
        <ele>857.63</ele>
        <time>2021-08-14T16:26:17Z</time>
      </trkpt>
      <trkpt lat="45.69069" lon="2.86859">
        <ele>855.71</ele>
        <time>2021-08-14T16:26:25Z</time>
      </trkpt>
      <trkpt lat="45.69127" lon="2.8685">
        <ele>853.79</ele>
        <time>2021-08-14T16:26:35Z</time>
      </trkpt>
      <trkpt lat="45.69133" lon="2.86848">
        <ele>853.79</ele>
        <time>2021-08-14T16:26:36Z</time>
      </trkpt>
      <trkpt lat="45.69176" lon="2.86826">
        <ele>853.79</ele>
        <time>2021-08-14T16:26:44Z</time>
      </trkpt>
      <trkpt lat="45.69204" lon="2.86805">
        <ele>853.79</ele>
        <time>2021-08-14T16:26:50Z</time>
      </trkpt>
      <trkpt lat="45.69208" lon="2.86801">
        <ele>853.79</ele>
        <time>2021-08-14T16:26:51Z</time>
      </trkpt>
      <trkpt lat="45.69211" lon="2.86796">
        <ele>853.79</ele>
        <time>2021-08-14T16:26:52Z</time>
      </trkpt>
      <trkpt lat="45.69213" lon="2.86791">
        <ele>853.79</ele>
        <time>2021-08-14T16:26:53Z</time>
      </trkpt>
      <trkpt lat="45.69214" lon="2.86785">
        <ele>853.79</ele>
        <time>2021-08-14T16:26:54Z</time>
      </trkpt>
      <trkpt lat="45.69214" lon="2.86781">
        <ele>855.23</ele>
        <time>2021-08-14T16:26:55Z</time>
      </trkpt>
      <trkpt lat="45.69213" lon="2.86777">
        <ele>855.23</ele>
        <time>2021-08-14T16:26:56Z</time>
      </trkpt>
      <trkpt lat="45.69212" lon="2.86774">
        <ele>855.23</ele>
        <time>2021-08-14T16:26:57Z</time>
      </trkpt>
      <trkpt lat="45.69212" lon="2.86772">
        <ele>855.23</ele>
        <time>2021-08-14T16:26:58Z</time>
      </trkpt>
      <trkpt lat="45.69211" lon="2.86771">
        <ele>855.23</ele>
        <time>2021-08-14T16:26:59Z</time>
      </trkpt>
      <trkpt lat="45.6921" lon="2.86769">
        <ele>856.19</ele>
        <time>2021-08-14T16:27:00Z</time>
      </trkpt>
      <trkpt lat="45.6921" lon="2.86767">
        <ele>856.19</ele>
        <time>2021-08-14T16:27:01Z</time>
      </trkpt>
      <trkpt lat="45.69209" lon="2.86766">
        <ele>856.19</ele>
        <time>2021-08-14T16:27:02Z</time>
      </trkpt>
      <trkpt lat="45.69207" lon="2.86764">
        <ele>856.19</ele>
        <time>2021-08-14T16:27:03Z</time>
      </trkpt>
      <trkpt lat="45.69207" lon="2.86762">
        <ele>856.67</ele>
        <time>2021-08-14T16:27:04Z</time>
      </trkpt>
      <trkpt lat="45.69206" lon="2.8676">
        <ele>856.67</ele>
        <time>2021-08-14T16:27:05Z</time>
      </trkpt>
      <trkpt lat="45.69206" lon="2.86758">
        <ele>856.67</ele>
        <time>2021-08-14T16:27:06Z</time>
      </trkpt>
      <trkpt lat="45.69205" lon="2.86742">
        <ele>858.11</ele>
        <time>2021-08-14T16:27:13Z</time>
      </trkpt>
      <trkpt lat="45.69205" lon="2.8674">
        <ele>858.59</ele>
        <time>2021-08-14T16:27:14Z</time>
      </trkpt>
      <trkpt lat="45.69206" lon="2.86738">
        <ele>859.08</ele>
        <time>2021-08-14T16:27:15Z</time>
      </trkpt>
      <trkpt lat="45.69207" lon="2.86736">
        <ele>859.08</ele>
        <time>2021-08-14T16:27:16Z</time>
      </trkpt>
      <trkpt lat="45.69208" lon="2.86734">
        <ele>859.08</ele>
        <time>2021-08-14T16:27:17Z</time>
      </trkpt>
      <trkpt lat="45.69209" lon="2.86733">
        <ele>859.08</ele>
        <time>2021-08-14T16:27:18Z</time>
      </trkpt>
      <trkpt lat="45.6921" lon="2.86731">
        <ele>859.08</ele>
        <time>2021-08-14T16:27:19Z</time>
      </trkpt>
      <trkpt lat="45.69211" lon="2.86729">
        <ele>859.08</ele>
        <time>2021-08-14T16:27:20Z</time>
      </trkpt>
      <trkpt lat="45.69213" lon="2.86727">
        <ele>859.56</ele>
        <time>2021-08-14T16:27:21Z</time>
      </trkpt>
      <trkpt lat="45.69215" lon="2.86724">
        <ele>859.56</ele>
        <time>2021-08-14T16:27:22Z</time>
      </trkpt>
      <trkpt lat="45.69216" lon="2.86722">
        <ele>859.56</ele>
        <time>2021-08-14T16:27:23Z</time>
      </trkpt>
      <trkpt lat="45.69226" lon="2.86703">
        <ele>859.08</ele>
        <time>2021-08-14T16:27:30Z</time>
      </trkpt>
      <trkpt lat="45.69227" lon="2.86677">
        <ele>859.08</ele>
        <time>2021-08-14T16:27:37Z</time>
      </trkpt>
      <trkpt lat="45.69235" lon="2.86653">
        <ele>859.08</ele>
        <time>2021-08-14T16:27:44Z</time>
      </trkpt>
      <trkpt lat="45.69235" lon="2.86637">
        <ele>859.08</ele>
        <time>2021-08-14T16:27:49Z</time>
      </trkpt>
      <trkpt lat="45.69228" lon="2.8661">
        <ele>859.08</ele>
        <time>2021-08-14T16:27:55Z</time>
      </trkpt>
      <trkpt lat="45.69225" lon="2.86599">
        <ele>857.63</ele>
        <time>2021-08-14T16:27:57Z</time>
      </trkpt>
      <trkpt lat="45.69212" lon="2.86556">
        <ele>856.67</ele>
        <time>2021-08-14T16:28:04Z</time>
      </trkpt>
      <trkpt lat="45.69204" lon="2.86503">
        <ele>853.31</ele>
        <time>2021-08-14T16:28:10Z</time>
      </trkpt>
      <trkpt lat="45.69199" lon="2.86471">
        <ele>851.87</ele>
        <time>2021-08-14T16:28:13Z</time>
      </trkpt>
      <trkpt lat="45.69196" lon="2.86461">
        <ele>851.38</ele>
        <time>2021-08-14T16:28:14Z</time>
      </trkpt>
      <trkpt lat="45.69192" lon="2.86451">
        <ele>851.38</ele>
        <time>2021-08-14T16:28:15Z</time>
      </trkpt>
      <trkpt lat="45.69173" lon="2.86402">
        <ele>851.38</ele>
        <time>2021-08-14T16:28:21Z</time>
      </trkpt>
      <trkpt lat="45.69168" lon="2.86391">
        <ele>852.83</ele>
        <time>2021-08-14T16:28:23Z</time>
      </trkpt>
      <trkpt lat="45.6916" lon="2.8637">
        <ele>854.75</ele>
        <time>2021-08-14T16:28:29Z</time>
      </trkpt>
      <trkpt lat="45.69158" lon="2.86352">
        <ele>856.19</ele>
        <time>2021-08-14T16:28:36Z</time>
      </trkpt>
      <trkpt lat="45.69155" lon="2.86331">
        <ele>857.15</ele>
        <time>2021-08-14T16:28:44Z</time>
      </trkpt>
      <trkpt lat="45.69152" lon="2.86313">
        <ele>858.59</ele>
        <time>2021-08-14T16:28:51Z</time>
      </trkpt>
      <trkpt lat="45.69144" lon="2.86287">
        <ele>859.56</ele>
        <time>2021-08-14T16:29:01Z</time>
      </trkpt>
      <trkpt lat="45.69136" lon="2.86266">
        <ele>860.52</ele>
        <time>2021-08-14T16:29:11Z</time>
      </trkpt>
      <trkpt lat="45.69136" lon="2.86265">
        <ele>860.52</ele>
        <time>2021-08-14T16:29:22Z</time>
      </trkpt>
      <trkpt lat="45.69136" lon="2.86264">
        <ele>860.52</ele>
        <time>2021-08-14T16:29:40Z</time>
      </trkpt>
      <trkpt lat="45.69135" lon="2.86264">
        <ele>860.52</ele>
        <time>2021-08-14T16:29:59Z</time>
      </trkpt>
      <trkpt lat="45.69133" lon="2.86264">
        <ele>860.52</ele>
        <time>2021-08-14T16:30:14Z</time>
      </trkpt>
      <trkpt lat="45.69132" lon="2.86262">
        <ele>860.52</ele>
        <time>2021-08-14T16:30:15Z</time>
      </trkpt>
      <trkpt lat="45.69132" lon="2.86261">
        <ele>860.52</ele>
        <time>2021-08-14T16:30:16Z</time>
      </trkpt>
      <trkpt lat="45.69131" lon="2.86258">
        <ele>860.52</ele>
        <time>2021-08-14T16:30:17Z</time>
      </trkpt>
      <trkpt lat="45.69128" lon="2.86256">
        <ele>860.52</ele>
        <time>2021-08-14T16:30:19Z</time>
      </trkpt>
      <trkpt lat="45.69127" lon="2.86254">
        <ele>860.52</ele>
        <time>2021-08-14T16:30:20Z</time>
      </trkpt>
      <trkpt lat="45.69113" lon="2.86241">
        <ele>861.96</ele>
        <time>2021-08-14T16:30:29Z</time>
      </trkpt>
      <trkpt lat="45.69097" lon="2.8623">
        <ele>863.4</ele>
        <time>2021-08-14T16:30:38Z</time>
      </trkpt>
      <trkpt lat="45.69077" lon="2.86219">
        <ele>864.84</ele>
        <time>2021-08-14T16:30:49Z</time>
      </trkpt>
      <trkpt lat="45.69052" lon="2.86211">
        <ele>865.32</ele>
        <time>2021-08-14T16:30:59Z</time>
      </trkpt>
      <trkpt lat="45.69035" lon="2.86198">
        <ele>866.29</ele>
        <time>2021-08-14T16:31:07Z</time>
      </trkpt>
      <trkpt lat="45.69031" lon="2.86185">
        <ele>867.25</ele>
        <time>2021-08-14T16:31:12Z</time>
      </trkpt>
      <trkpt lat="45.69026" lon="2.86162">
        <ele>868.21</ele>
        <time>2021-08-14T16:31:22Z</time>
      </trkpt>
      <trkpt lat="45.69017" lon="2.86148">
        <ele>869.17</ele>
        <time>2021-08-14T16:31:30Z</time>
      </trkpt>
      <trkpt lat="45.69005" lon="2.8614">
        <ele>870.61</ele>
        <time>2021-08-14T16:31:38Z</time>
      </trkpt>
      <trkpt lat="45.6899" lon="2.86127">
        <ele>871.57</ele>
        <time>2021-08-14T16:31:47Z</time>
      </trkpt>
      <trkpt lat="45.68976" lon="2.86112">
        <ele>872.53</ele>
        <time>2021-08-14T16:31:56Z</time>
      </trkpt>
      <trkpt lat="45.68975" lon="2.86089">
        <ele>873.98</ele>
        <time>2021-08-14T16:32:06Z</time>
      </trkpt>
      <trkpt lat="45.68975" lon="2.8608">
        <ele>874.94</ele>
        <time>2021-08-14T16:32:10Z</time>
      </trkpt>
      <trkpt lat="45.68976" lon="2.86078">
        <ele>874.94</ele>
        <time>2021-08-14T16:32:11Z</time>
      </trkpt>
      <trkpt lat="45.68976" lon="2.86076">
        <ele>874.94</ele>
        <time>2021-08-14T16:32:12Z</time>
      </trkpt>
      <trkpt lat="45.68977" lon="2.86074">
        <ele>875.42</ele>
        <time>2021-08-14T16:32:13Z</time>
      </trkpt>
      <trkpt lat="45.68977" lon="2.86072">
        <ele>875.42</ele>
        <time>2021-08-14T16:32:14Z</time>
      </trkpt>
      <trkpt lat="45.68978" lon="2.86069">
        <ele>875.42</ele>
        <time>2021-08-14T16:32:15Z</time>
      </trkpt>
      <trkpt lat="45.68978" lon="2.86066">
        <ele>875.42</ele>
        <time>2021-08-14T16:32:16Z</time>
      </trkpt>
      <trkpt lat="45.68979" lon="2.86064">
        <ele>875.9</ele>
        <time>2021-08-14T16:32:17Z</time>
      </trkpt>
      <trkpt lat="45.68979" lon="2.86062">
        <ele>875.9</ele>
        <time>2021-08-14T16:32:18Z</time>
      </trkpt>
      <trkpt lat="45.6898" lon="2.8606">
        <ele>875.9</ele>
        <time>2021-08-14T16:32:19Z</time>
      </trkpt>
      <trkpt lat="45.6898" lon="2.86058">
        <ele>876.38</ele>
        <time>2021-08-14T16:32:20Z</time>
      </trkpt>
      <trkpt lat="45.68981" lon="2.86056">
        <ele>876.38</ele>
        <time>2021-08-14T16:32:21Z</time>
      </trkpt>
      <trkpt lat="45.68981" lon="2.86054">
        <ele>876.38</ele>
        <time>2021-08-14T16:32:22Z</time>
      </trkpt>
      <trkpt lat="45.68982" lon="2.86052">
        <ele>876.38</ele>
        <time>2021-08-14T16:32:23Z</time>
      </trkpt>
      <trkpt lat="45.68991" lon="2.86026">
        <ele>878.78</ele>
        <time>2021-08-14T16:32:37Z</time>
      </trkpt>
      <trkpt lat="45.68997" lon="2.8601">
        <ele>880.22</ele>
        <time>2021-08-14T16:32:47Z</time>
      </trkpt>
      <trkpt lat="45.68999" lon="2.86007">
        <ele>880.22</ele>
        <time>2021-08-14T16:32:49Z</time>
      </trkpt>
      <trkpt lat="45.68999" lon="2.86005">
        <ele>880.71</ele>
        <time>2021-08-14T16:32:50Z</time>
      </trkpt>
      <trkpt lat="45.69007" lon="2.85988">
        <ele>881.67</ele>
        <time>2021-08-14T16:33:00Z</time>
      </trkpt>
      <trkpt lat="45.69016" lon="2.85971">
        <ele>883.11</ele>
        <time>2021-08-14T16:33:09Z</time>
      </trkpt>
      <trkpt lat="45.69026" lon="2.85952">
        <ele>884.55</ele>
        <time>2021-08-14T16:33:19Z</time>
      </trkpt>
      <trkpt lat="45.69036" lon="2.85933">
        <ele>886.47</ele>
        <time>2021-08-14T16:33:30Z</time>
      </trkpt>
      <trkpt lat="45.69044" lon="2.85917">
        <ele>887.43</ele>
        <time>2021-08-14T16:33:39Z</time>
      </trkpt>
      <trkpt lat="45.69053" lon="2.85902">
        <ele>889.36</ele>
        <time>2021-08-14T16:33:48Z</time>
      </trkpt>
      <trkpt lat="45.69062" lon="2.85886">
        <ele>890.32</ele>
        <time>2021-08-14T16:33:58Z</time>
      </trkpt>
      <trkpt lat="45.69074" lon="2.85875">
        <ele>891.76</ele>
        <time>2021-08-14T16:34:07Z</time>
      </trkpt>
      <trkpt lat="45.69092" lon="2.85858">
        <ele>892.24</ele>
        <time>2021-08-14T16:34:18Z</time>
      </trkpt>
      <trkpt lat="45.69106" lon="2.85843">
        <ele>893.68</ele>
        <time>2021-08-14T16:34:27Z</time>
      </trkpt>
      <trkpt lat="45.69117" lon="2.8583">
        <ele>895.12</ele>
        <time>2021-08-14T16:34:37Z</time>
      </trkpt>
      <trkpt lat="45.69119" lon="2.85827">
        <ele>895.61</ele>
        <time>2021-08-14T16:34:39Z</time>
      </trkpt>
      <trkpt lat="45.6912" lon="2.85825">
        <ele>895.61</ele>
        <time>2021-08-14T16:34:40Z</time>
      </trkpt>
      <trkpt lat="45.6912" lon="2.85823">
        <ele>895.61</ele>
        <time>2021-08-14T16:34:41Z</time>
      </trkpt>
      <trkpt lat="45.69121" lon="2.85821">
        <ele>896.09</ele>
        <time>2021-08-14T16:34:42Z</time>
      </trkpt>
      <trkpt lat="45.69122" lon="2.8582">
        <ele>896.09</ele>
        <time>2021-08-14T16:34:43Z</time>
      </trkpt>
      <trkpt lat="45.69122" lon="2.85818">
        <ele>896.09</ele>
        <time>2021-08-14T16:34:44Z</time>
      </trkpt>
      <trkpt lat="45.69123" lon="2.85816">
        <ele>897.05</ele>
        <time>2021-08-14T16:34:45Z</time>
      </trkpt>
      <trkpt lat="45.69123" lon="2.85814">
        <ele>897.05</ele>
        <time>2021-08-14T16:34:46Z</time>
      </trkpt>
      <trkpt lat="45.69124" lon="2.85813">
        <ele>897.05</ele>
        <time>2021-08-14T16:34:47Z</time>
      </trkpt>
      <trkpt lat="45.69125" lon="2.85811">
        <ele>897.53</ele>
        <time>2021-08-14T16:34:48Z</time>
      </trkpt>
      <trkpt lat="45.69134" lon="2.85793">
        <ele>899.45</ele>
        <time>2021-08-14T16:34:59Z</time>
      </trkpt>
      <trkpt lat="45.69143" lon="2.85778">
        <ele>900.89</ele>
        <time>2021-08-14T16:35:08Z</time>
      </trkpt>
      <trkpt lat="45.69145" lon="2.85762">
        <ele>902.33</ele>
        <time>2021-08-14T16:35:17Z</time>
      </trkpt>
      <trkpt lat="45.69135" lon="2.8575">
        <ele>904.74</ele>
        <time>2021-08-14T16:35:27Z</time>
      </trkpt>
      <trkpt lat="45.69126" lon="2.85743">
        <ele>906.18</ele>
        <time>2021-08-14T16:35:35Z</time>
      </trkpt>
      <trkpt lat="45.69119" lon="2.85736">
        <ele>907.62</ele>
        <time>2021-08-14T16:35:42Z</time>
      </trkpt>
      <trkpt lat="45.69109" lon="2.85732">
        <ele>908.58</ele>
        <time>2021-08-14T16:35:50Z</time>
      </trkpt>
      <trkpt lat="45.69098" lon="2.85733">
        <ele>910.99</ele>
        <time>2021-08-14T16:36:00Z</time>
      </trkpt>
      <trkpt lat="45.69085" lon="2.85732">
        <ele>913.39</ele>
        <time>2021-08-14T16:36:10Z</time>
      </trkpt>
      <trkpt lat="45.69076" lon="2.8573">
        <ele>915.79</ele>
        <time>2021-08-14T16:36:19Z</time>
      </trkpt>
      <trkpt lat="45.69064" lon="2.85728">
        <ele>917.24</ele>
        <time>2021-08-14T16:36:28Z</time>
      </trkpt>
      <trkpt lat="45.69062" lon="2.85728">
        <ele>917.24</ele>
        <time>2021-08-14T16:36:29Z</time>
      </trkpt>
      <trkpt lat="45.69051" lon="2.85724">
        <ele>919.16</ele>
        <time>2021-08-14T16:36:37Z</time>
      </trkpt>
      <trkpt lat="45.69042" lon="2.85723">
        <ele>920.12</ele>
        <time>2021-08-14T16:36:45Z</time>
      </trkpt>
      <trkpt lat="45.69033" lon="2.85722">
        <ele>922.52</ele>
        <time>2021-08-14T16:36:55Z</time>
      </trkpt>
      <trkpt lat="45.69021" lon="2.85721">
        <ele>923.96</ele>
        <time>2021-08-14T16:37:05Z</time>
      </trkpt>
      <trkpt lat="45.69012" lon="2.85719">
        <ele>924.93</ele>
        <time>2021-08-14T16:37:13Z</time>
      </trkpt>
      <trkpt lat="45.69001" lon="2.85717">
        <ele>926.85</ele>
        <time>2021-08-14T16:37:23Z</time>
      </trkpt>
      <trkpt lat="45.68988" lon="2.85716">
        <ele>928.77</ele>
        <time>2021-08-14T16:37:33Z</time>
      </trkpt>
      <trkpt lat="45.68982" lon="2.85709">
        <ele>930.21</ele>
        <time>2021-08-14T16:37:41Z</time>
      </trkpt>
      <trkpt lat="45.68983" lon="2.85704">
        <ele>931.17</ele>
        <time>2021-08-14T16:37:48Z</time>
      </trkpt>
      <trkpt lat="45.68988" lon="2.85697">
        <ele>932.62</ele>
        <time>2021-08-14T16:37:58Z</time>
      </trkpt>
      <trkpt lat="45.68991" lon="2.85693">
        <ele>933.58</ele>
        <time>2021-08-14T16:38:07Z</time>
      </trkpt>
      <trkpt lat="45.68992" lon="2.85692">
        <ele>933.58</ele>
        <time>2021-08-14T16:38:17Z</time>
      </trkpt>
      <trkpt lat="45.68991" lon="2.85692">
        <ele>933.58</ele>
        <time>2021-08-14T16:38:19Z</time>
      </trkpt>
      <trkpt lat="45.68987" lon="2.85695">
        <ele>933.1</ele>
        <time>2021-08-14T16:38:24Z</time>
      </trkpt>
      <trkpt lat="45.6898" lon="2.85703">
        <ele>930.21</ele>
        <time>2021-08-14T16:38:27Z</time>
      </trkpt>
      <trkpt lat="45.68978" lon="2.85707">
        <ele>930.21</ele>
        <time>2021-08-14T16:38:28Z</time>
      </trkpt>
      <trkpt lat="45.68968" lon="2.85715">
        <ele>931.17</ele>
        <time>2021-08-14T16:38:32Z</time>
      </trkpt>
      <trkpt lat="45.68967" lon="2.85716">
        <ele>931.17</ele>
        <time>2021-08-14T16:38:33Z</time>
      </trkpt>
      <trkpt lat="45.6896" lon="2.85717">
        <ele>932.14</ele>
        <time>2021-08-14T16:38:40Z</time>
      </trkpt>
      <trkpt lat="45.6896" lon="2.85717">
        <ele>932.14</ele>
        <time>2021-08-14T16:38:41Z</time>
      </trkpt>
      <trkpt lat="45.68963" lon="2.85716">
        <ele>932.14</ele>
        <time>2021-08-14T16:38:43Z</time>
      </trkpt>
      <trkpt lat="45.68969" lon="2.85714">
        <ele>930.69</ele>
        <time>2021-08-14T16:38:45Z</time>
      </trkpt>
      <trkpt lat="45.68973" lon="2.85711">
        <ele>930.21</ele>
        <time>2021-08-14T16:38:46Z</time>
      </trkpt>
      <trkpt lat="45.68976" lon="2.85708">
        <ele>930.21</ele>
        <time>2021-08-14T16:38:47Z</time>
      </trkpt>
      <trkpt lat="45.68983" lon="2.85699">
        <ele>931.65</ele>
        <time>2021-08-14T16:38:51Z</time>
      </trkpt>
      <trkpt lat="45.68993" lon="2.8569">
        <ele>933.58</ele>
        <time>2021-08-14T16:38:59Z</time>
      </trkpt>
      <trkpt lat="45.69011" lon="2.85673">
        <ele>935.5</ele>
        <time>2021-08-14T16:39:07Z</time>
      </trkpt>
      <trkpt lat="45.69031" lon="2.85663">
        <ele>936.46</ele>
        <time>2021-08-14T16:39:14Z</time>
      </trkpt>
      <trkpt lat="45.69058" lon="2.85652">
        <ele>935.98</ele>
        <time>2021-08-14T16:39:22Z</time>
      </trkpt>
      <trkpt lat="45.69081" lon="2.85636">
        <ele>937.42</ele>
        <time>2021-08-14T16:39:30Z</time>
      </trkpt>
      <trkpt lat="45.69097" lon="2.85622">
        <ele>938.38</ele>
        <time>2021-08-14T16:39:37Z</time>
      </trkpt>
      <trkpt lat="45.69117" lon="2.85604">
        <ele>939.83</ele>
        <time>2021-08-14T16:39:45Z</time>
      </trkpt>
      <trkpt lat="45.69134" lon="2.85588">
        <ele>941.75</ele>
        <time>2021-08-14T16:39:53Z</time>
      </trkpt>
      <trkpt lat="45.69148" lon="2.85573">
        <ele>943.19</ele>
        <time>2021-08-14T16:40:00Z</time>
      </trkpt>
      <trkpt lat="45.69167" lon="2.85553">
        <ele>943.19</ele>
        <time>2021-08-14T16:40:09Z</time>
      </trkpt>
      <trkpt lat="45.69177" lon="2.85542">
        <ele>944.15</ele>
        <time>2021-08-14T16:40:15Z</time>
      </trkpt>
      <trkpt lat="45.69188" lon="2.8553">
        <ele>946.07</ele>
        <time>2021-08-14T16:40:23Z</time>
      </trkpt>
      <trkpt lat="45.69201" lon="2.85517">
        <ele>948</ele>
        <time>2021-08-14T16:40:31Z</time>
      </trkpt>
      <trkpt lat="45.69216" lon="2.85503">
        <ele>948.96</ele>
        <time>2021-08-14T16:40:39Z</time>
      </trkpt>
      <trkpt lat="45.69228" lon="2.85494">
        <ele>950.4</ele>
        <time>2021-08-14T16:40:46Z</time>
      </trkpt>
      <trkpt lat="45.69246" lon="2.85478">
        <ele>950.88</ele>
        <time>2021-08-14T16:40:55Z</time>
      </trkpt>
      <trkpt lat="45.6926" lon="2.85463">
        <ele>953.28</ele>
        <time>2021-08-14T16:41:04Z</time>
      </trkpt>
      <trkpt lat="45.69272" lon="2.85445">
        <ele>956.17</ele>
        <time>2021-08-14T16:41:13Z</time>
      </trkpt>
      <trkpt lat="45.69288" lon="2.85429">
        <ele>958.09</ele>
        <time>2021-08-14T16:41:21Z</time>
      </trkpt>
      <trkpt lat="45.69301" lon="2.85416">
        <ele>959.05</ele>
        <time>2021-08-14T16:41:29Z</time>
      </trkpt>
      <trkpt lat="45.69314" lon="2.85401">
        <ele>959.53</ele>
        <time>2021-08-14T16:41:37Z</time>
      </trkpt>
      <trkpt lat="45.6933" lon="2.85375">
        <ele>961.94</ele>
        <time>2021-08-14T16:41:46Z</time>
      </trkpt>
      <trkpt lat="45.69347" lon="2.85334">
        <ele>963.86</ele>
        <time>2021-08-14T16:41:56Z</time>
      </trkpt>
      <trkpt lat="45.69351" lon="2.85307">
        <ele>966.26</ele>
        <time>2021-08-14T16:42:04Z</time>
      </trkpt>
      <trkpt lat="45.69354" lon="2.85275">
        <ele>967.7</ele>
        <time>2021-08-14T16:42:14Z</time>
      </trkpt>
      <trkpt lat="45.69357" lon="2.85247">
        <ele>968.67</ele>
        <time>2021-08-14T16:42:23Z</time>
      </trkpt>
      <trkpt lat="45.69366" lon="2.85205">
        <ele>970.11</ele>
        <time>2021-08-14T16:42:33Z</time>
      </trkpt>
      <trkpt lat="45.69377" lon="2.85158">
        <ele>970.11</ele>
        <time>2021-08-14T16:42:41Z</time>
      </trkpt>
      <trkpt lat="45.6938" lon="2.85131">
        <ele>970.11</ele>
        <time>2021-08-14T16:42:45Z</time>
      </trkpt>
      <trkpt lat="45.6938" lon="2.85124">
        <ele>970.11</ele>
        <time>2021-08-14T16:42:46Z</time>
      </trkpt>
      <trkpt lat="45.69381" lon="2.85102">
        <ele>970.11</ele>
        <time>2021-08-14T16:42:49Z</time>
      </trkpt>
      <trkpt lat="45.69379" lon="2.8509">
        <ele>970.11</ele>
        <time>2021-08-14T16:42:51Z</time>
      </trkpt>
      <trkpt lat="45.69377" lon="2.85084">
        <ele>970.11</ele>
        <time>2021-08-14T16:42:52Z</time>
      </trkpt>
      <trkpt lat="45.69372" lon="2.85067">
        <ele>970.11</ele>
        <time>2021-08-14T16:42:55Z</time>
      </trkpt>
      <trkpt lat="45.69359" lon="2.8503">
        <ele>968.18</ele>
        <time>2021-08-14T16:43:01Z</time>
      </trkpt>
      <trkpt lat="45.6935" lon="2.85003">
        <ele>965.3</ele>
        <time>2021-08-14T16:43:04Z</time>
      </trkpt>
      <trkpt lat="45.69336" lon="2.84959">
        <ele>961.46</ele>
        <time>2021-08-14T16:43:08Z</time>
      </trkpt>
      <trkpt lat="45.69329" lon="2.84939">
        <ele>960.49</ele>
        <time>2021-08-14T16:43:10Z</time>
      </trkpt>
      <trkpt lat="45.69315" lon="2.84899">
        <ele>957.61</ele>
        <time>2021-08-14T16:43:15Z</time>
      </trkpt>
      <trkpt lat="45.69309" lon="2.84884">
        <ele>956.17</ele>
        <time>2021-08-14T16:43:17Z</time>
      </trkpt>
      <trkpt lat="45.69305" lon="2.84877">
        <ele>956.17</ele>
        <time>2021-08-14T16:43:18Z</time>
      </trkpt>
      <trkpt lat="45.69301" lon="2.84872">
        <ele>955.21</ele>
        <time>2021-08-14T16:43:19Z</time>
      </trkpt>
      <trkpt lat="45.69296" lon="2.84867">
        <ele>954.73</ele>
        <time>2021-08-14T16:43:20Z</time>
      </trkpt>
      <trkpt lat="45.69291" lon="2.84864">
        <ele>954.73</ele>
        <time>2021-08-14T16:43:21Z</time>
      </trkpt>
      <trkpt lat="45.69274" lon="2.8485">
        <ele>953.28</ele>
        <time>2021-08-14T16:43:24Z</time>
      </trkpt>
      <trkpt lat="45.69227" lon="2.84821">
        <ele>950.88</ele>
        <time>2021-08-14T16:43:31Z</time>
      </trkpt>
      <trkpt lat="45.6919" lon="2.84787">
        <ele>950.88</ele>
        <time>2021-08-14T16:43:37Z</time>
      </trkpt>
      <trkpt lat="45.69184" lon="2.84779">
        <ele>950.88</ele>
        <time>2021-08-14T16:43:38Z</time>
      </trkpt>
      <trkpt lat="45.69142" lon="2.84723">
        <ele>950.4</ele>
        <time>2021-08-14T16:43:46Z</time>
      </trkpt>
      <trkpt lat="45.69108" lon="2.84703">
        <ele>951.84</ele>
        <time>2021-08-14T16:43:52Z</time>
      </trkpt>
      <trkpt lat="45.69098" lon="2.847">
        <ele>952.32</ele>
        <time>2021-08-14T16:43:54Z</time>
      </trkpt>
      <trkpt lat="45.69062" lon="2.84678">
        <ele>953.28</ele>
        <time>2021-08-14T16:44:02Z</time>
      </trkpt>
      <trkpt lat="45.69034" lon="2.84649">
        <ele>952.32</ele>
        <time>2021-08-14T16:44:08Z</time>
      </trkpt>
      <trkpt lat="45.68994" lon="2.84606">
        <ele>948.96</ele>
        <time>2021-08-14T16:44:15Z</time>
      </trkpt>
      <trkpt lat="45.68958" lon="2.84566">
        <ele>945.59</ele>
        <time>2021-08-14T16:44:20Z</time>
      </trkpt>
      <trkpt lat="45.68912" lon="2.8452">
        <ele>941.75</ele>
        <time>2021-08-14T16:44:26Z</time>
      </trkpt>
      <trkpt lat="45.68881" lon="2.84494">
        <ele>939.83</ele>
        <time>2021-08-14T16:44:31Z</time>
      </trkpt>
      <trkpt lat="45.68875" lon="2.84491">
        <ele>938.86</ele>
        <time>2021-08-14T16:44:32Z</time>
      </trkpt>
      <trkpt lat="45.6887" lon="2.84489">
        <ele>938.38</ele>
        <time>2021-08-14T16:44:33Z</time>
      </trkpt>
      <trkpt lat="45.68837" lon="2.84482">
        <ele>935.98</ele>
        <time>2021-08-14T16:44:39Z</time>
      </trkpt>
      <trkpt lat="45.68808" lon="2.84475">
        <ele>934.54</ele>
        <time>2021-08-14T16:44:44Z</time>
      </trkpt>
      <trkpt lat="45.68791" lon="2.84467">
        <ele>932.14</ele>
        <time>2021-08-14T16:44:47Z</time>
      </trkpt>
      <trkpt lat="45.68772" lon="2.84466">
        <ele>928.77</ele>
        <time>2021-08-14T16:44:50Z</time>
      </trkpt>
      <trkpt lat="45.68751" lon="2.84463">
        <ele>925.41</ele>
        <time>2021-08-14T16:44:53Z</time>
      </trkpt>
      <trkpt lat="45.68727" lon="2.84457">
        <ele>921.08</ele>
        <time>2021-08-14T16:44:56Z</time>
      </trkpt>
      <trkpt lat="45.68702" lon="2.84447">
        <ele>917.24</ele>
        <time>2021-08-14T16:44:59Z</time>
      </trkpt>
      <trkpt lat="45.68682" lon="2.84442">
        <ele>914.35</ele>
        <time>2021-08-14T16:45:01Z</time>
      </trkpt>
      <trkpt lat="45.68673" lon="2.84442">
        <ele>912.91</ele>
        <time>2021-08-14T16:45:02Z</time>
      </trkpt>
      <trkpt lat="45.68643" lon="2.84444">
        <ele>910.03</ele>
        <time>2021-08-14T16:45:05Z</time>
      </trkpt>
      <trkpt lat="45.68615" lon="2.84442">
        <ele>906.66</ele>
        <time>2021-08-14T16:45:08Z</time>
      </trkpt>
      <trkpt lat="45.68587" lon="2.84434">
        <ele>902.82</ele>
        <time>2021-08-14T16:45:11Z</time>
      </trkpt>
      <trkpt lat="45.68551" lon="2.84423">
        <ele>899.45</ele>
        <time>2021-08-14T16:45:15Z</time>
      </trkpt>
      <trkpt lat="45.68518" lon="2.84414">
        <ele>896.09</ele>
        <time>2021-08-14T16:45:19Z</time>
      </trkpt>
      <trkpt lat="45.68505" lon="2.8441">
        <ele>895.61</ele>
        <time>2021-08-14T16:45:21Z</time>
      </trkpt>
      <trkpt lat="45.685" lon="2.84406">
        <ele>895.12</ele>
        <time>2021-08-14T16:45:22Z</time>
      </trkpt>
      <trkpt lat="45.68496" lon="2.84403">
        <ele>894.64</ele>
        <time>2021-08-14T16:45:23Z</time>
      </trkpt>
      <trkpt lat="45.6849" lon="2.84398">
        <ele>894.16</ele>
        <time>2021-08-14T16:45:24Z</time>
      </trkpt>
      <trkpt lat="45.68485" lon="2.84396">
        <ele>894.64</ele>
        <time>2021-08-14T16:45:25Z</time>
      </trkpt>
      <trkpt lat="45.68481" lon="2.84395">
        <ele>894.64</ele>
        <time>2021-08-14T16:45:26Z</time>
      </trkpt>
      <trkpt lat="45.68476" lon="2.84395">
        <ele>894.64</ele>
        <time>2021-08-14T16:45:27Z</time>
      </trkpt>
      <trkpt lat="45.68472" lon="2.84394">
        <ele>894.64</ele>
        <time>2021-08-14T16:45:28Z</time>
      </trkpt>
      <trkpt lat="45.68469" lon="2.84393">
        <ele>894.64</ele>
        <time>2021-08-14T16:45:29Z</time>
      </trkpt>
      <trkpt lat="45.68466" lon="2.84391">
        <ele>895.12</ele>
        <time>2021-08-14T16:45:30Z</time>
      </trkpt>
      <trkpt lat="45.68464" lon="2.84389">
        <ele>895.12</ele>
        <time>2021-08-14T16:45:31Z</time>
      </trkpt>
      <trkpt lat="45.68463" lon="2.84386">
        <ele>894.64</ele>
        <time>2021-08-14T16:45:32Z</time>
      </trkpt>
      <trkpt lat="45.68462" lon="2.84381">
        <ele>895.12</ele>
        <time>2021-08-14T16:45:33Z</time>
      </trkpt>
      <trkpt lat="45.68461" lon="2.84377">
        <ele>894.16</ele>
        <time>2021-08-14T16:45:34Z</time>
      </trkpt>
      <trkpt lat="45.68459" lon="2.84371">
        <ele>893.68</ele>
        <time>2021-08-14T16:45:35Z</time>
      </trkpt>
      <trkpt lat="45.68455" lon="2.84364">
        <ele>892.72</ele>
        <time>2021-08-14T16:45:36Z</time>
      </trkpt>
      <trkpt lat="45.68449" lon="2.84355">
        <ele>892.24</ele>
        <time>2021-08-14T16:45:38Z</time>
      </trkpt>
      <trkpt lat="45.68438" lon="2.84345">
        <ele>891.28</ele>
        <time>2021-08-14T16:45:42Z</time>
      </trkpt>
      <trkpt lat="45.68438" lon="2.84345">
        <ele>891.28</ele>
        <time>2021-08-14T16:45:52Z</time>
      </trkpt>
      <trkpt lat="45.68438" lon="2.84343">
        <ele>890.8</ele>
        <time>2021-08-14T16:46:09Z</time>
      </trkpt>
      <trkpt lat="45.68437" lon="2.84343">
        <ele>890.8</ele>
        <time>2021-08-14T16:46:13Z</time>
      </trkpt>
      <trkpt lat="45.68424" lon="2.84334">
        <ele>890.32</ele>
        <time>2021-08-14T16:46:19Z</time>
      </trkpt>
      <trkpt lat="45.68392" lon="2.84306">
        <ele>887.43</ele>
        <time>2021-08-14T16:46:26Z</time>
      </trkpt>
      <trkpt lat="45.68363" lon="2.84285">
        <ele>885.03</ele>
        <time>2021-08-14T16:46:32Z</time>
      </trkpt>
      <trkpt lat="45.6836" lon="2.84279">
        <ele>885.03</ele>
        <time>2021-08-14T16:46:33Z</time>
      </trkpt>
      <trkpt lat="45.68357" lon="2.84272">
        <ele>884.07</ele>
        <time>2021-08-14T16:46:34Z</time>
      </trkpt>
      <trkpt lat="45.68346" lon="2.84233">
        <ele>882.63</ele>
        <time>2021-08-14T16:46:41Z</time>
      </trkpt>
      <trkpt lat="45.68331" lon="2.84205">
        <ele>882.15</ele>
        <time>2021-08-14T16:46:49Z</time>
      </trkpt>
      <trkpt lat="45.68325" lon="2.84193">
        <ele>881.67</ele>
        <time>2021-08-14T16:46:54Z</time>
      </trkpt>
      <trkpt lat="45.68323" lon="2.84193">
        <ele>881.67</ele>
        <time>2021-08-14T16:46:55Z</time>
      </trkpt>
      <trkpt lat="45.68321" lon="2.84195">
        <ele>881.67</ele>
        <time>2021-08-14T16:46:56Z</time>
      </trkpt>
      <trkpt lat="45.68319" lon="2.84196">
        <ele>881.67</ele>
        <time>2021-08-14T16:46:57Z</time>
      </trkpt>
      <trkpt lat="45.68318" lon="2.84198">
        <ele>881.67</ele>
        <time>2021-08-14T16:46:58Z</time>
      </trkpt>
      <trkpt lat="45.68316" lon="2.84199">
        <ele>881.67</ele>
        <time>2021-08-14T16:46:59Z</time>
      </trkpt>
      <trkpt lat="45.68315" lon="2.842">
        <ele>881.67</ele>
        <time>2021-08-14T16:47:00Z</time>
      </trkpt>
      <trkpt lat="45.68316" lon="2.84204">
        <ele>881.67</ele>
        <time>2021-08-14T16:47:05Z</time>
      </trkpt>
      <trkpt lat="45.68314" lon="2.84205">
        <ele>881.67</ele>
        <time>2021-08-14T16:47:09Z</time>
      </trkpt>
      <trkpt lat="45.68314" lon="2.84203">
        <ele>881.67</ele>
        <time>2021-08-14T16:47:20Z</time>
      </trkpt>
      <trkpt lat="45.68312" lon="2.84197">
        <ele>881.67</ele>
        <time>2021-08-14T16:47:28Z</time>
      </trkpt>
      <trkpt lat="45.68311" lon="2.84193">
        <ele>881.19</ele>
        <time>2021-08-14T16:47:40Z</time>
      </trkpt>
      <trkpt lat="45.6831" lon="2.84191">
        <ele>881.19</ele>
        <time>2021-08-14T16:47:50Z</time>
      </trkpt>
      <trkpt lat="45.68309" lon="2.84188">
        <ele>881.19</ele>
        <time>2021-08-14T16:48:01Z</time>
      </trkpt>
      <trkpt lat="45.68309" lon="2.84182">
        <ele>881.19</ele>
        <time>2021-08-14T16:48:15Z</time>
      </trkpt>
      <trkpt lat="45.68308" lon="2.84181">
        <ele>881.19</ele>
        <time>2021-08-14T16:48:28Z</time>
      </trkpt>
      <trkpt lat="45.68307" lon="2.84178">
        <ele>881.19</ele>
        <time>2021-08-14T16:48:39Z</time>
      </trkpt>
      <trkpt lat="45.68306" lon="2.84175">
        <ele>881.19</ele>
        <time>2021-08-14T16:48:54Z</time>
      </trkpt>
      <trkpt lat="45.68306" lon="2.84174">
        <ele>881.19</ele>
        <time>2021-08-14T16:49:04Z</time>
      </trkpt>
      <trkpt lat="45.68304" lon="2.8417">
        <ele>881.19</ele>
        <time>2021-08-14T16:49:17Z</time>
      </trkpt>
      <trkpt lat="45.68303" lon="2.84167">
        <ele>881.19</ele>
        <time>2021-08-14T16:49:29Z</time>
      </trkpt>
      <trkpt lat="45.68303" lon="2.84164">
        <ele>881.19</ele>
        <time>2021-08-14T16:49:43Z</time>
      </trkpt>
      <trkpt lat="45.68302" lon="2.84162">
        <ele>881.19</ele>
        <time>2021-08-14T16:49:57Z</time>
      </trkpt>
      <trkpt lat="45.68301" lon="2.8416">
        <ele>881.19</ele>
        <time>2021-08-14T16:50:12Z</time>
      </trkpt>
      <trkpt lat="45.68302" lon="2.8416">
        <ele>881.19</ele>
        <time>2021-08-14T16:50:29Z</time>
      </trkpt>
      <trkpt lat="45.68301" lon="2.84158">
        <ele>881.19</ele>
        <time>2021-08-14T16:50:41Z</time>
      </trkpt>
      <trkpt lat="45.68301" lon="2.84158">
        <ele>881.19</ele>
        <time>2021-08-14T16:50:52Z</time>
      </trkpt>
      <trkpt lat="45.68302" lon="2.84157">
        <ele>881.19</ele>
        <time>2021-08-14T16:51:04Z</time>
      </trkpt>
      <trkpt lat="45.68303" lon="2.84155">
        <ele>881.19</ele>
        <time>2021-08-14T16:51:18Z</time>
      </trkpt>
      <trkpt lat="45.68303" lon="2.84156">
        <ele>881.19</ele>
        <time>2021-08-14T16:51:31Z</time>
      </trkpt>
      <trkpt lat="45.68304" lon="2.84156">
        <ele>881.19</ele>
        <time>2021-08-14T16:51:39Z</time>
      </trkpt>
      <trkpt lat="45.68305" lon="2.84157">
        <ele>881.19</ele>
        <time>2021-08-14T16:51:48Z</time>
      </trkpt>
      <trkpt lat="45.68305" lon="2.84156">
        <ele>881.19</ele>
        <time>2021-08-14T16:51:58Z</time>
      </trkpt>
      <trkpt lat="45.68304" lon="2.84154">
        <ele>881.19</ele>
        <time>2021-08-14T16:52:03Z</time>
      </trkpt>
      <trkpt lat="45.68303" lon="2.84156">
        <ele>881.19</ele>
        <time>2021-08-14T16:52:04Z</time>
      </trkpt>
      <trkpt lat="45.68303" lon="2.84159">
        <ele>881.19</ele>
        <time>2021-08-14T16:52:08Z</time>
      </trkpt>
      <trkpt lat="45.68302" lon="2.84155">
        <ele>881.19</ele>
        <time>2021-08-14T16:52:28Z</time>
      </trkpt>
      <trkpt lat="45.683" lon="2.84152">
        <ele>881.19</ele>
        <time>2021-08-14T16:52:45Z</time>
      </trkpt>
      <trkpt lat="45.68298" lon="2.84146">
        <ele>880.71</ele>
        <time>2021-08-14T16:53:01Z</time>
      </trkpt>
      <trkpt lat="45.68299" lon="2.84147">
        <ele>880.71</ele>
        <time>2021-08-14T16:53:18Z</time>
      </trkpt>
      <trkpt lat="45.68299" lon="2.84146">
        <ele>880.71</ele>
        <time>2021-08-14T16:53:35Z</time>
      </trkpt>
      <trkpt lat="45.68299" lon="2.84146">
        <ele>880.71</ele>
        <time>2021-08-14T16:53:47Z</time>
      </trkpt>
      <trkpt lat="45.68299" lon="2.84149">
        <ele>880.71</ele>
        <time>2021-08-14T16:54:09Z</time>
      </trkpt>
      <trkpt lat="45.683" lon="2.8415">
        <ele>880.71</ele>
        <time>2021-08-14T16:54:23Z</time>
      </trkpt>
      <trkpt lat="45.683" lon="2.84152">
        <ele>880.71</ele>
        <time>2021-08-14T16:54:40Z</time>
      </trkpt>
      <trkpt lat="45.683" lon="2.84151">
        <ele>880.71</ele>
        <time>2021-08-14T16:54:55Z</time>
      </trkpt>
      <trkpt lat="45.683" lon="2.84153">
        <ele>880.71</ele>
        <time>2021-08-14T16:55:05Z</time>
      </trkpt>
      <trkpt lat="45.683" lon="2.84154">
        <ele>880.71</ele>
        <time>2021-08-14T16:55:15Z</time>
      </trkpt>
      <trkpt lat="45.68299" lon="2.84152">
        <ele>880.71</ele>
        <time>2021-08-14T16:55:28Z</time>
      </trkpt>
      <trkpt lat="45.68298" lon="2.84151">
        <ele>880.71</ele>
        <time>2021-08-14T16:55:39Z</time>
      </trkpt>
      <trkpt lat="45.683" lon="2.84152">
        <ele>880.71</ele>
        <time>2021-08-14T16:55:53Z</time>
      </trkpt>
      <trkpt lat="45.68299" lon="2.84149">
        <ele>880.22</ele>
        <time>2021-08-14T16:56:10Z</time>
      </trkpt>
      <trkpt lat="45.68299" lon="2.84149">
        <ele>880.22</ele>
        <time>2021-08-14T16:56:19Z</time>
      </trkpt>
      <trkpt lat="45.68299" lon="2.8415">
        <ele>880.22</ele>
        <time>2021-08-14T16:56:31Z</time>
      </trkpt>
      <trkpt lat="45.68299" lon="2.84153">
        <ele>880.22</ele>
        <time>2021-08-14T16:56:43Z</time>
      </trkpt>
      <trkpt lat="45.683" lon="2.84156">
        <ele>880.22</ele>
        <time>2021-08-14T16:56:55Z</time>
      </trkpt>
      <trkpt lat="45.683" lon="2.84157">
        <ele>881.67</ele>
        <time>2021-08-14T16:57:04Z</time>
      </trkpt>
      <trkpt lat="45.68301" lon="2.84158">
        <ele>881.67</ele>
        <time>2021-08-14T16:57:16Z</time>
      </trkpt>
      <trkpt lat="45.68301" lon="2.84159">
        <ele>881.67</ele>
        <time>2021-08-14T16:57:35Z</time>
      </trkpt>
      <trkpt lat="45.68301" lon="2.8416">
        <ele>881.67</ele>
        <time>2021-08-14T16:57:48Z</time>
      </trkpt>
      <trkpt lat="45.68301" lon="2.84162">
        <ele>881.19</ele>
        <time>2021-08-14T16:58:02Z</time>
      </trkpt>
      <trkpt lat="45.68302" lon="2.84163">
        <ele>881.19</ele>
        <time>2021-08-14T16:58:15Z</time>
      </trkpt>
      <trkpt lat="45.68302" lon="2.84163">
        <ele>881.19</ele>
        <time>2021-08-14T16:58:27Z</time>
      </trkpt>
      <trkpt lat="45.68303" lon="2.84165">
        <ele>881.19</ele>
        <time>2021-08-14T16:58:37Z</time>
      </trkpt>
      <trkpt lat="45.68303" lon="2.84167">
        <ele>881.19</ele>
        <time>2021-08-14T16:58:50Z</time>
      </trkpt>
      <trkpt lat="45.68304" lon="2.84169">
        <ele>881.19</ele>
        <time>2021-08-14T16:59:04Z</time>
      </trkpt>
      <trkpt lat="45.68304" lon="2.84168">
        <ele>881.19</ele>
        <time>2021-08-14T16:59:24Z</time>
      </trkpt>
      <trkpt lat="45.68304" lon="2.84172">
        <ele>881.19</ele>
        <time>2021-08-14T16:59:39Z</time>
      </trkpt>
      <trkpt lat="45.68306" lon="2.84176">
        <ele>881.19</ele>
        <time>2021-08-14T16:59:45Z</time>
      </trkpt>
      <trkpt lat="45.6831" lon="2.8418">
        <ele>881.19</ele>
        <time>2021-08-14T16:59:49Z</time>
      </trkpt>
      <trkpt lat="45.6831" lon="2.84181">
        <ele>881.19</ele>
        <time>2021-08-14T16:59:50Z</time>
      </trkpt>
      <trkpt lat="45.68313" lon="2.84171">
        <ele>881.19</ele>
        <time>2021-08-14T17:00:01Z</time>
      </trkpt>
      <trkpt lat="45.68314" lon="2.84165">
        <ele>881.19</ele>
        <time>2021-08-14T17:00:06Z</time>
      </trkpt>
      <trkpt lat="45.68315" lon="2.84164">
        <ele>881.19</ele>
        <time>2021-08-14T17:00:07Z</time>
      </trkpt>
      <trkpt lat="45.68315" lon="2.84162">
        <ele>881.19</ele>
        <time>2021-08-14T17:00:08Z</time>
      </trkpt>
      <trkpt lat="45.68316" lon="2.84157">
        <ele>881.19</ele>
        <time>2021-08-14T17:00:17Z</time>
      </trkpt>
      <trkpt lat="45.68316" lon="2.84155">
        <ele>881.19</ele>
        <time>2021-08-14T17:00:41Z</time>
      </trkpt>
      <trkpt lat="45.68316" lon="2.84154">
        <ele>881.19</ele>
        <time>2021-08-14T17:00:59Z</time>
      </trkpt>
      <trkpt lat="45.68314" lon="2.84156">
        <ele>881.19</ele>
        <time>2021-08-14T17:01:27Z</time>
      </trkpt>
      <trkpt lat="45.68315" lon="2.84156">
        <ele>881.19</ele>
        <time>2021-08-14T17:01:45Z</time>
      </trkpt>
      <trkpt lat="45.68316" lon="2.84155">
        <ele>881.19</ele>
        <time>2021-08-14T17:01:52Z</time>
      </trkpt>
      <trkpt lat="45.68315" lon="2.84154">
        <ele>881.19</ele>
        <time>2021-08-14T17:01:58Z</time>
      </trkpt>
      <trkpt lat="45.68313" lon="2.84157">
        <ele>880.71</ele>
        <time>2021-08-14T17:02:22Z</time>
      </trkpt>
      <trkpt lat="45.68314" lon="2.84159">
        <ele>880.71</ele>
        <time>2021-08-14T17:02:37Z</time>
      </trkpt>
      <trkpt lat="45.68315" lon="2.84159">
        <ele>880.71</ele>
        <time>2021-08-14T17:03:03Z</time>
      </trkpt>
      <trkpt lat="45.68318" lon="2.84159">
        <ele>880.71</ele>
        <time>2021-08-14T17:03:28Z</time>
      </trkpt>
      <trkpt lat="45.68315" lon="2.84156">
        <ele>880.22</ele>
        <time>2021-08-14T17:03:45Z</time>
      </trkpt>
      <trkpt lat="45.68312" lon="2.84158">
        <ele>880.22</ele>
        <time>2021-08-14T17:04:15Z</time>
      </trkpt>
      <trkpt lat="45.68315" lon="2.8416">
        <ele>880.22</ele>
        <time>2021-08-14T17:04:33Z</time>
      </trkpt>
      <trkpt lat="45.68313" lon="2.84161">
        <ele>880.22</ele>
        <time>2021-08-14T17:04:56Z</time>
      </trkpt>
      <trkpt lat="45.68311" lon="2.8416">
        <ele>880.22</ele>
        <time>2021-08-14T17:05:14Z</time>
      </trkpt>
      <trkpt lat="45.68313" lon="2.8416">
        <ele>880.22</ele>
        <time>2021-08-14T17:05:34Z</time>
      </trkpt>
      <trkpt lat="45.68315" lon="2.84159">
        <ele>879.74</ele>
        <time>2021-08-14T17:05:48Z</time>
      </trkpt>
      <trkpt lat="45.68316" lon="2.84157">
        <ele>879.74</ele>
        <time>2021-08-14T17:06:09Z</time>
      </trkpt>
      <trkpt lat="45.68316" lon="2.84159">
        <ele>879.74</ele>
        <time>2021-08-14T17:06:24Z</time>
      </trkpt>
      <trkpt lat="45.68316" lon="2.84158">
        <ele>879.74</ele>
        <time>2021-08-14T17:06:39Z</time>
      </trkpt>
      <trkpt lat="45.68314" lon="2.8416">
        <ele>879.74</ele>
        <time>2021-08-14T17:06:55Z</time>
      </trkpt>
      <trkpt lat="45.68314" lon="2.84159">
        <ele>879.26</ele>
        <time>2021-08-14T17:07:01Z</time>
      </trkpt>
      <trkpt lat="45.68316" lon="2.84155">
        <ele>879.26</ele>
        <time>2021-08-14T17:07:21Z</time>
      </trkpt>
      <trkpt lat="45.68318" lon="2.84153">
        <ele>879.26</ele>
        <time>2021-08-14T17:07:31Z</time>
      </trkpt>
      <trkpt lat="45.68315" lon="2.84154">
        <ele>879.26</ele>
        <time>2021-08-14T17:07:48Z</time>
      </trkpt>
      <trkpt lat="45.68314" lon="2.8416">
        <ele>879.26</ele>
        <time>2021-08-14T17:08:11Z</time>
      </trkpt>
      <trkpt lat="45.68311" lon="2.84162">
        <ele>879.26</ele>
        <time>2021-08-14T17:08:33Z</time>
      </trkpt>
      <trkpt lat="45.68311" lon="2.84159">
        <ele>879.26</ele>
        <time>2021-08-14T17:08:52Z</time>
      </trkpt>
      <trkpt lat="45.68313" lon="2.8416">
        <ele>878.78</ele>
        <time>2021-08-14T17:09:08Z</time>
      </trkpt>
      <trkpt lat="45.68312" lon="2.8416">
        <ele>878.78</ele>
        <time>2021-08-14T17:09:21Z</time>
      </trkpt>
      <trkpt lat="45.68314" lon="2.84157">
        <ele>878.78</ele>
        <time>2021-08-14T17:09:41Z</time>
      </trkpt>
      <trkpt lat="45.68314" lon="2.84155">
        <ele>878.78</ele>
        <time>2021-08-14T17:09:59Z</time>
      </trkpt>
      <trkpt lat="45.68314" lon="2.84152">
        <ele>878.78</ele>
        <time>2021-08-14T17:10:17Z</time>
      </trkpt>
      <trkpt lat="45.68312" lon="2.84153">
        <ele>878.78</ele>
        <time>2021-08-14T17:10:35Z</time>
      </trkpt>
      <trkpt lat="45.68313" lon="2.84156">
        <ele>878.78</ele>
        <time>2021-08-14T17:10:56Z</time>
      </trkpt>
      <trkpt lat="45.68313" lon="2.84155">
        <ele>879.26</ele>
        <time>2021-08-14T17:11:07Z</time>
      </trkpt>
      <trkpt lat="45.68312" lon="2.84155">
        <ele>879.26</ele>
        <time>2021-08-14T17:11:17Z</time>
      </trkpt>
      <trkpt lat="45.68312" lon="2.84152">
        <ele>878.78</ele>
        <time>2021-08-14T17:11:32Z</time>
      </trkpt>
      <trkpt lat="45.68314" lon="2.84153">
        <ele>878.78</ele>
        <time>2021-08-14T17:11:44Z</time>
      </trkpt>
      <trkpt lat="45.68316" lon="2.84155">
        <ele>878.78</ele>
        <time>2021-08-14T17:11:48Z</time>
      </trkpt>
      <trkpt lat="45.68316" lon="2.84156">
        <ele>878.78</ele>
        <time>2021-08-14T17:11:49Z</time>
      </trkpt>
      <trkpt lat="45.68316" lon="2.84158">
        <ele>878.78</ele>
        <time>2021-08-14T17:11:50Z</time>
      </trkpt>
      <trkpt lat="45.68316" lon="2.84158">
        <ele>878.78</ele>
        <time>2021-08-14T17:11:57Z</time>
      </trkpt>
      <trkpt lat="45.68317" lon="2.84157">
        <ele>878.78</ele>
        <time>2021-08-14T17:12:20Z</time>
      </trkpt>
      <trkpt lat="45.68318" lon="2.84156">
        <ele>878.78</ele>
        <time>2021-08-14T17:12:38Z</time>
      </trkpt>
      <trkpt lat="45.68317" lon="2.84159">
        <ele>878.78</ele>
        <time>2021-08-14T17:12:57Z</time>
      </trkpt>
      <trkpt lat="45.68316" lon="2.84159">
        <ele>878.78</ele>
        <time>2021-08-14T17:13:16Z</time>
      </trkpt>
      <trkpt lat="45.68316" lon="2.84161">
        <ele>878.78</ele>
        <time>2021-08-14T17:13:30Z</time>
      </trkpt>
      <trkpt lat="45.68315" lon="2.84162">
        <ele>878.78</ele>
        <time>2021-08-14T17:13:45Z</time>
      </trkpt>
      <trkpt lat="45.68317" lon="2.84159">
        <ele>878.78</ele>
        <time>2021-08-14T17:14:02Z</time>
      </trkpt>
      <trkpt lat="45.6832" lon="2.84157">
        <ele>878.78</ele>
        <time>2021-08-14T17:14:20Z</time>
      </trkpt>
      <trkpt lat="45.6832" lon="2.84155">
        <ele>878.78</ele>
        <time>2021-08-14T17:14:41Z</time>
      </trkpt>
      <trkpt lat="45.68319" lon="2.84153">
        <ele>878.78</ele>
        <time>2021-08-14T17:14:52Z</time>
      </trkpt>
      <trkpt lat="45.68317" lon="2.84155">
        <ele>878.78</ele>
        <time>2021-08-14T17:15:07Z</time>
      </trkpt>
      <trkpt lat="45.68315" lon="2.84157">
        <ele>878.78</ele>
        <time>2021-08-14T17:15:18Z</time>
      </trkpt>
      <trkpt lat="45.68315" lon="2.84156">
        <ele>878.78</ele>
        <time>2021-08-14T17:15:32Z</time>
      </trkpt>
      <trkpt lat="45.68313" lon="2.84156">
        <ele>878.78</ele>
        <time>2021-08-14T17:15:45Z</time>
      </trkpt>
      <trkpt lat="45.68311" lon="2.84154">
        <ele>878.78</ele>
        <time>2021-08-14T17:16:01Z</time>
      </trkpt>
      <trkpt lat="45.68312" lon="2.84156">
        <ele>878.3</ele>
        <time>2021-08-14T17:16:25Z</time>
      </trkpt>
      <trkpt lat="45.68313" lon="2.84155">
        <ele>878.3</ele>
        <time>2021-08-14T17:16:53Z</time>
      </trkpt>
      <trkpt lat="45.68315" lon="2.84154">
        <ele>878.3</ele>
        <time>2021-08-14T17:17:18Z</time>
      </trkpt>
      <trkpt lat="45.68315" lon="2.84153">
        <ele>878.3</ele>
        <time>2021-08-14T17:17:43Z</time>
      </trkpt>
      <trkpt lat="45.68314" lon="2.84155">
        <ele>877.82</ele>
        <time>2021-08-14T17:17:59Z</time>
      </trkpt>
      <trkpt lat="45.68315" lon="2.84159">
        <ele>877.82</ele>
        <time>2021-08-14T17:18:25Z</time>
      </trkpt>
      <trkpt lat="45.68317" lon="2.84159">
        <ele>877.82</ele>
        <time>2021-08-14T17:18:50Z</time>
      </trkpt>
      <trkpt lat="45.68316" lon="2.84153">
        <ele>877.82</ele>
        <time>2021-08-14T17:19:11Z</time>
      </trkpt>
      <trkpt lat="45.68318" lon="2.84151">
        <ele>877.82</ele>
        <time>2021-08-14T17:19:34Z</time>
      </trkpt>
      <trkpt lat="45.68316" lon="2.84154">
        <ele>877.82</ele>
        <time>2021-08-14T17:19:47Z</time>
      </trkpt>
      <trkpt lat="45.68314" lon="2.84158">
        <ele>877.34</ele>
        <time>2021-08-14T17:20:08Z</time>
      </trkpt>
      <trkpt lat="45.68313" lon="2.84158">
        <ele>877.34</ele>
        <time>2021-08-14T17:20:25Z</time>
      </trkpt>
      <trkpt lat="45.68313" lon="2.84159">
        <ele>877.34</ele>
        <time>2021-08-14T17:20:39Z</time>
      </trkpt>
      <trkpt lat="45.68314" lon="2.84158">
        <ele>877.34</ele>
        <time>2021-08-14T17:20:54Z</time>
      </trkpt>
      <trkpt lat="45.68313" lon="2.84157">
        <ele>877.34</ele>
        <time>2021-08-14T17:21:10Z</time>
      </trkpt>
      <trkpt lat="45.68315" lon="2.84153">
        <ele>877.34</ele>
        <time>2021-08-14T17:21:33Z</time>
      </trkpt>
      <trkpt lat="45.68314" lon="2.8415">
        <ele>877.34</ele>
        <time>2021-08-14T17:21:52Z</time>
      </trkpt>
      <trkpt lat="45.68319" lon="2.84152">
        <ele>877.82</ele>
        <time>2021-08-14T17:22:20Z</time>
      </trkpt>
      <trkpt lat="45.68316" lon="2.84157">
        <ele>877.82</ele>
        <time>2021-08-14T17:22:37Z</time>
      </trkpt>
      <trkpt lat="45.68317" lon="2.84156">
        <ele>877.82</ele>
        <time>2021-08-14T17:23:04Z</time>
      </trkpt>
      <trkpt lat="45.68315" lon="2.84156">
        <ele>878.3</ele>
        <time>2021-08-14T17:23:20Z</time>
      </trkpt>
      <trkpt lat="45.68315" lon="2.84156">
        <ele>878.78</ele>
        <time>2021-08-14T17:23:39Z</time>
      </trkpt>
      <trkpt lat="45.68316" lon="2.84155">
        <ele>878.78</ele>
        <time>2021-08-14T17:23:59Z</time>
      </trkpt>
      <trkpt lat="45.68319" lon="2.84157">
        <ele>878.78</ele>
        <time>2021-08-14T17:24:19Z</time>
      </trkpt>
      <trkpt lat="45.68318" lon="2.84155">
        <ele>878.78</ele>
        <time>2021-08-14T17:24:39Z</time>
      </trkpt>
      <trkpt lat="45.6832" lon="2.84155">
        <ele>878.78</ele>
        <time>2021-08-14T17:24:59Z</time>
      </trkpt>
      <trkpt lat="45.68317" lon="2.84157">
        <ele>878.78</ele>
        <time>2021-08-14T17:25:20Z</time>
      </trkpt>
      <trkpt lat="45.68317" lon="2.84157">
        <ele>878.78</ele>
        <time>2021-08-14T17:25:42Z</time>
      </trkpt>
      <trkpt lat="45.68317" lon="2.84157">
        <ele>878.78</ele>
        <time>2021-08-14T17:25:53Z</time>
      </trkpt>
      <trkpt lat="45.68317" lon="2.84157">
        <ele>878.3</ele>
        <time>2021-08-14T17:26:10Z</time>
      </trkpt>
      <trkpt lat="45.68316" lon="2.84156">
        <ele>878.3</ele>
        <time>2021-08-14T17:26:35Z</time>
      </trkpt>
      <trkpt lat="45.68317" lon="2.84159">
        <ele>878.3</ele>
        <time>2021-08-14T17:26:52Z</time>
      </trkpt>
      <trkpt lat="45.68317" lon="2.84157">
        <ele>878.3</ele>
        <time>2021-08-14T17:27:11Z</time>
      </trkpt>
      <trkpt lat="45.68317" lon="2.84156">
        <ele>878.3</ele>
        <time>2021-08-14T17:27:30Z</time>
      </trkpt>
      <trkpt lat="45.68318" lon="2.84155">
        <ele>878.3</ele>
        <time>2021-08-14T17:27:45Z</time>
      </trkpt>
      <trkpt lat="45.68316" lon="2.84153">
        <ele>878.3</ele>
        <time>2021-08-14T17:28:08Z</time>
      </trkpt>
      <trkpt lat="45.68316" lon="2.84159">
        <ele>878.3</ele>
        <time>2021-08-14T17:28:27Z</time>
      </trkpt>
      <trkpt lat="45.68317" lon="2.84158">
        <ele>878.3</ele>
        <time>2021-08-14T17:28:46Z</time>
      </trkpt>
      <trkpt lat="45.68319" lon="2.84161">
        <ele>878.3</ele>
        <time>2021-08-14T17:29:08Z</time>
      </trkpt>
      <trkpt lat="45.68319" lon="2.8416">
        <ele>878.78</ele>
        <time>2021-08-14T17:29:27Z</time>
      </trkpt>
      <trkpt lat="45.68319" lon="2.84159">
        <ele>878.78</ele>
        <time>2021-08-14T17:29:41Z</time>
      </trkpt>
      <trkpt lat="45.68319" lon="2.8416">
        <ele>878.78</ele>
        <time>2021-08-14T17:29:59Z</time>
      </trkpt>
      <trkpt lat="45.68318" lon="2.8416">
        <ele>878.78</ele>
        <time>2021-08-14T17:30:15Z</time>
      </trkpt>
      <trkpt lat="45.68317" lon="2.84157">
        <ele>878.78</ele>
        <time>2021-08-14T17:30:35Z</time>
      </trkpt>
      <trkpt lat="45.68318" lon="2.84157">
        <ele>878.78</ele>
        <time>2021-08-14T17:30:57Z</time>
      </trkpt>
      <trkpt lat="45.68321" lon="2.84157">
        <ele>878.78</ele>
        <time>2021-08-14T17:31:15Z</time>
      </trkpt>
      <trkpt lat="45.68322" lon="2.8416">
        <ele>878.78</ele>
        <time>2021-08-14T17:31:35Z</time>
      </trkpt>
      <trkpt lat="45.68321" lon="2.84159">
        <ele>878.78</ele>
        <time>2021-08-14T17:31:48Z</time>
      </trkpt>
      <trkpt lat="45.68321" lon="2.84156">
        <ele>878.78</ele>
        <time>2021-08-14T17:32:02Z</time>
      </trkpt>
      <trkpt lat="45.68324" lon="2.84156">
        <ele>878.78</ele>
        <time>2021-08-14T17:32:20Z</time>
      </trkpt>
      <trkpt lat="45.68324" lon="2.84155">
        <ele>878.78</ele>
        <time>2021-08-14T17:32:35Z</time>
      </trkpt>
      <trkpt lat="45.68321" lon="2.84158">
        <ele>878.78</ele>
        <time>2021-08-14T17:32:57Z</time>
      </trkpt>
      <trkpt lat="45.68316" lon="2.84158">
        <ele>878.78</ele>
        <time>2021-08-14T17:33:12Z</time>
      </trkpt>
      <trkpt lat="45.68316" lon="2.84161">
        <ele>878.78</ele>
        <time>2021-08-14T17:33:33Z</time>
      </trkpt>
      <trkpt lat="45.68312" lon="2.84156">
        <ele>878.78</ele>
        <time>2021-08-14T17:33:56Z</time>
      </trkpt>
      <trkpt lat="45.68316" lon="2.84151">
        <ele>878.78</ele>
        <time>2021-08-14T17:34:23Z</time>
      </trkpt>
      <trkpt lat="45.68318" lon="2.84153">
        <ele>878.78</ele>
        <time>2021-08-14T17:34:40Z</time>
      </trkpt>
      <trkpt lat="45.6832" lon="2.84154">
        <ele>878.78</ele>
        <time>2021-08-14T17:34:57Z</time>
      </trkpt>
      <trkpt lat="45.68314" lon="2.84156">
        <ele>878.78</ele>
        <time>2021-08-14T17:35:17Z</time>
      </trkpt>
      <trkpt lat="45.68314" lon="2.84158">
        <ele>878.78</ele>
        <time>2021-08-14T17:35:35Z</time>
      </trkpt>
      <trkpt lat="45.68316" lon="2.84158">
        <ele>878.78</ele>
        <time>2021-08-14T17:35:48Z</time>
      </trkpt>
      <trkpt lat="45.68316" lon="2.84158">
        <ele>878.3</ele>
        <time>2021-08-14T17:36:04Z</time>
      </trkpt>
      <trkpt lat="45.68318" lon="2.84156">
        <ele>878.3</ele>
        <time>2021-08-14T17:36:24Z</time>
      </trkpt>
      <trkpt lat="45.68321" lon="2.84156">
        <ele>878.3</ele>
        <time>2021-08-14T17:36:35Z</time>
      </trkpt>
      <trkpt lat="45.68325" lon="2.84154">
        <ele>878.3</ele>
        <time>2021-08-14T17:36:48Z</time>
      </trkpt>
      <trkpt lat="45.68325" lon="2.84152">
        <ele>878.3</ele>
        <time>2021-08-14T17:37:00Z</time>
      </trkpt>
      <trkpt lat="45.68326" lon="2.84153">
        <ele>878.3</ele>
        <time>2021-08-14T17:37:13Z</time>
      </trkpt>
      <trkpt lat="45.68324" lon="2.84152">
        <ele>878.78</ele>
        <time>2021-08-14T17:37:30Z</time>
      </trkpt>
      <trkpt lat="45.68323" lon="2.84155">
        <ele>878.78</ele>
        <time>2021-08-14T17:37:44Z</time>
      </trkpt>
      <trkpt lat="45.6832" lon="2.84156">
        <ele>878.3</ele>
        <time>2021-08-14T17:38:02Z</time>
      </trkpt>
      <trkpt lat="45.68321" lon="2.84159">
        <ele>878.3</ele>
        <time>2021-08-14T17:38:23Z</time>
      </trkpt>
      <trkpt lat="45.68323" lon="2.84157">
        <ele>878.3</ele>
        <time>2021-08-14T17:38:45Z</time>
      </trkpt>
      <trkpt lat="45.68323" lon="2.84158">
        <ele>878.3</ele>
        <time>2021-08-14T17:39:00Z</time>
      </trkpt>
      <trkpt lat="45.68321" lon="2.84159">
        <ele>878.3</ele>
        <time>2021-08-14T17:39:15Z</time>
      </trkpt>
      <trkpt lat="45.6832" lon="2.84159">
        <ele>878.3</ele>
        <time>2021-08-14T17:39:30Z</time>
      </trkpt>
      <trkpt lat="45.68319" lon="2.84158">
        <ele>878.3</ele>
        <time>2021-08-14T17:39:47Z</time>
      </trkpt>
      <trkpt lat="45.68318" lon="2.84159">
        <ele>878.3</ele>
        <time>2021-08-14T17:40:08Z</time>
      </trkpt>
      <trkpt lat="45.68319" lon="2.84157">
        <ele>878.3</ele>
        <time>2021-08-14T17:40:28Z</time>
      </trkpt>
      <trkpt lat="45.68318" lon="2.84156">
        <ele>878.78</ele>
        <time>2021-08-14T17:40:44Z</time>
      </trkpt>
      <trkpt lat="45.68319" lon="2.84154">
        <ele>878.78</ele>
        <time>2021-08-14T17:41:02Z</time>
      </trkpt>
      <trkpt lat="45.68318" lon="2.84154">
        <ele>878.78</ele>
        <time>2021-08-14T17:41:21Z</time>
      </trkpt>
      <trkpt lat="45.68319" lon="2.84157">
        <ele>878.78</ele>
        <time>2021-08-14T17:41:43Z</time>
      </trkpt>
      <trkpt lat="45.68317" lon="2.84158">
        <ele>878.78</ele>
        <time>2021-08-14T17:42:01Z</time>
      </trkpt>
      <trkpt lat="45.68321" lon="2.84159">
        <ele>878.78</ele>
        <time>2021-08-14T17:42:25Z</time>
      </trkpt>
      <trkpt lat="45.68322" lon="2.8416">
        <ele>878.78</ele>
        <time>2021-08-14T17:42:45Z</time>
      </trkpt>
      <trkpt lat="45.68322" lon="2.84158">
        <ele>879.26</ele>
        <time>2021-08-14T17:43:08Z</time>
      </trkpt>
      <trkpt lat="45.68322" lon="2.84155">
        <ele>879.26</ele>
        <time>2021-08-14T17:43:22Z</time>
      </trkpt>
      <trkpt lat="45.68322" lon="2.84155">
        <ele>879.26</ele>
        <time>2021-08-14T17:43:36Z</time>
      </trkpt>
      <trkpt lat="45.68322" lon="2.84155">
        <ele>879.26</ele>
        <time>2021-08-14T17:43:53Z</time>
      </trkpt>
      <trkpt lat="45.6832" lon="2.84157">
        <ele>879.74</ele>
        <time>2021-08-14T17:44:08Z</time>
      </trkpt>
      <trkpt lat="45.68322" lon="2.84156">
        <ele>879.74</ele>
        <time>2021-08-14T17:44:20Z</time>
      </trkpt>
      <trkpt lat="45.68321" lon="2.84155">
        <ele>879.74</ele>
        <time>2021-08-14T17:44:35Z</time>
      </trkpt>
      <trkpt lat="45.68319" lon="2.84156">
        <ele>879.74</ele>
        <time>2021-08-14T17:44:57Z</time>
      </trkpt>
      <trkpt lat="45.68319" lon="2.84155">
        <ele>879.74</ele>
        <time>2021-08-14T17:45:07Z</time>
      </trkpt>
      <trkpt lat="45.68321" lon="2.84152">
        <ele>879.74</ele>
        <time>2021-08-14T17:45:21Z</time>
      </trkpt>
      <trkpt lat="45.68324" lon="2.84151">
        <ele>879.74</ele>
        <time>2021-08-14T17:45:35Z</time>
      </trkpt>
      <trkpt lat="45.68327" lon="2.84149">
        <ele>879.74</ele>
        <time>2021-08-14T17:45:53Z</time>
      </trkpt>
      <trkpt lat="45.68325" lon="2.84151">
        <ele>880.22</ele>
        <time>2021-08-14T17:46:10Z</time>
      </trkpt>
      <trkpt lat="45.68323" lon="2.8415">
        <ele>880.22</ele>
        <time>2021-08-14T17:46:24Z</time>
      </trkpt>
      <trkpt lat="45.68324" lon="2.84151">
        <ele>880.22</ele>
        <time>2021-08-14T17:46:39Z</time>
      </trkpt>
      <trkpt lat="45.68323" lon="2.84151">
        <ele>880.22</ele>
        <time>2021-08-14T17:46:48Z</time>
      </trkpt>
      <trkpt lat="45.68323" lon="2.8415">
        <ele>880.22</ele>
        <time>2021-08-14T17:47:08Z</time>
      </trkpt>
      <trkpt lat="45.68323" lon="2.84151">
        <ele>880.22</ele>
        <time>2021-08-14T17:47:26Z</time>
      </trkpt>
      <trkpt lat="45.68325" lon="2.84153">
        <ele>880.71</ele>
        <time>2021-08-14T17:47:43Z</time>
      </trkpt>
      <trkpt lat="45.68323" lon="2.84156">
        <ele>880.71</ele>
        <time>2021-08-14T17:48:01Z</time>
      </trkpt>
      <trkpt lat="45.6832" lon="2.84155">
        <ele>880.71</ele>
        <time>2021-08-14T17:48:14Z</time>
      </trkpt>
      <trkpt lat="45.68317" lon="2.84158">
        <ele>880.71</ele>
        <time>2021-08-14T17:48:30Z</time>
      </trkpt>
      <trkpt lat="45.6832" lon="2.84157">
        <ele>880.71</ele>
        <time>2021-08-14T17:48:53Z</time>
      </trkpt>
      <trkpt lat="45.68319" lon="2.84155">
        <ele>880.71</ele>
        <time>2021-08-14T17:49:13Z</time>
      </trkpt>
      <trkpt lat="45.68323" lon="2.84156">
        <ele>880.71</ele>
        <time>2021-08-14T17:49:29Z</time>
      </trkpt>
      <trkpt lat="45.68324" lon="2.84161">
        <ele>880.71</ele>
        <time>2021-08-14T17:49:46Z</time>
      </trkpt>
      <trkpt lat="45.6832" lon="2.84159">
        <ele>880.71</ele>
        <time>2021-08-14T17:50:04Z</time>
      </trkpt>
      <trkpt lat="45.6832" lon="2.8416">
        <ele>880.71</ele>
        <time>2021-08-14T17:50:18Z</time>
      </trkpt>
      <trkpt lat="45.68319" lon="2.84159">
        <ele>880.71</ele>
        <time>2021-08-14T17:50:36Z</time>
      </trkpt>
      <trkpt lat="45.68319" lon="2.8416">
        <ele>880.71</ele>
        <time>2021-08-14T17:50:55Z</time>
      </trkpt>
      <trkpt lat="45.68319" lon="2.84158">
        <ele>880.71</ele>
        <time>2021-08-14T17:51:15Z</time>
      </trkpt>
      <trkpt lat="45.6832" lon="2.84158">
        <ele>880.71</ele>
        <time>2021-08-14T17:51:39Z</time>
      </trkpt>
      <trkpt lat="45.6832" lon="2.84157">
        <ele>880.71</ele>
        <time>2021-08-14T17:51:59Z</time>
      </trkpt>
      <trkpt lat="45.68318" lon="2.84154">
        <ele>881.19</ele>
        <time>2021-08-14T17:52:18Z</time>
      </trkpt>
      <trkpt lat="45.68318" lon="2.84155">
        <ele>881.19</ele>
        <time>2021-08-14T17:52:40Z</time>
      </trkpt>
      <trkpt lat="45.68316" lon="2.84155">
        <ele>881.19</ele>
        <time>2021-08-14T17:52:58Z</time>
      </trkpt>
      <trkpt lat="45.68315" lon="2.84155">
        <ele>880.71</ele>
        <time>2021-08-14T17:53:14Z</time>
      </trkpt>
      <trkpt lat="45.68316" lon="2.84157">
        <ele>881.19</ele>
        <time>2021-08-14T17:53:30Z</time>
      </trkpt>
      <trkpt lat="45.68318" lon="2.84159">
        <ele>880.71</ele>
        <time>2021-08-14T17:53:52Z</time>
      </trkpt>
      <trkpt lat="45.68319" lon="2.84161">
        <ele>880.71</ele>
        <time>2021-08-14T17:54:14Z</time>
      </trkpt>
      <trkpt lat="45.68318" lon="2.84158">
        <ele>880.71</ele>
        <time>2021-08-14T17:54:26Z</time>
      </trkpt>
      <trkpt lat="45.68318" lon="2.84157">
        <ele>880.71</ele>
        <time>2021-08-14T17:54:41Z</time>
      </trkpt>
      <trkpt lat="45.68318" lon="2.84156">
        <ele>880.71</ele>
        <time>2021-08-14T17:54:52Z</time>
      </trkpt>
      <trkpt lat="45.68317" lon="2.84156">
        <ele>879.74</ele>
        <time>2021-08-14T17:55:04Z</time>
      </trkpt>
      <trkpt lat="45.68316" lon="2.84158">
        <ele>879.74</ele>
        <time>2021-08-14T17:55:17Z</time>
      </trkpt>
      <trkpt lat="45.68318" lon="2.84158">
        <ele>879.74</ele>
        <time>2021-08-14T17:55:36Z</time>
      </trkpt>
      <trkpt lat="45.68321" lon="2.84158">
        <ele>879.74</ele>
        <time>2021-08-14T17:55:59Z</time>
      </trkpt>
      <trkpt lat="45.68323" lon="2.84157">
        <ele>880.71</ele>
        <time>2021-08-14T17:56:20Z</time>
      </trkpt>
      <trkpt lat="45.68322" lon="2.84154">
        <ele>880.71</ele>
        <time>2021-08-14T17:56:36Z</time>
      </trkpt>
      <trkpt lat="45.68321" lon="2.84154">
        <ele>880.71</ele>
        <time>2021-08-14T17:56:55Z</time>
      </trkpt>
      <trkpt lat="45.68319" lon="2.84156">
        <ele>880.71</ele>
        <time>2021-08-14T17:57:12Z</time>
      </trkpt>
      <trkpt lat="45.68317" lon="2.84157">
        <ele>880.71</ele>
        <time>2021-08-14T17:57:32Z</time>
      </trkpt>
      <trkpt lat="45.68319" lon="2.84158">
        <ele>880.71</ele>
        <time>2021-08-14T17:57:50Z</time>
      </trkpt>
      <trkpt lat="45.6832" lon="2.84158">
        <ele>880.71</ele>
        <time>2021-08-14T17:58:08Z</time>
      </trkpt>
      <trkpt lat="45.68321" lon="2.84158">
        <ele>880.71</ele>
        <time>2021-08-14T17:58:26Z</time>
      </trkpt>
      <trkpt lat="45.68321" lon="2.84155">
        <ele>880.71</ele>
        <time>2021-08-14T17:58:41Z</time>
      </trkpt>
      <trkpt lat="45.68318" lon="2.84154">
        <ele>880.71</ele>
        <time>2021-08-14T17:58:57Z</time>
      </trkpt>
      <trkpt lat="45.68316" lon="2.84154">
        <ele>880.71</ele>
        <time>2021-08-14T17:59:14Z</time>
      </trkpt>
      <trkpt lat="45.68316" lon="2.84153">
        <ele>880.71</ele>
        <time>2021-08-14T17:59:32Z</time>
      </trkpt>
      <trkpt lat="45.68315" lon="2.84154">
        <ele>880.71</ele>
        <time>2021-08-14T17:59:47Z</time>
      </trkpt>
      <trkpt lat="45.68316" lon="2.84156">
        <ele>880.71</ele>
        <time>2021-08-14T18:00:04Z</time>
      </trkpt>
      <trkpt lat="45.68317" lon="2.84156">
        <ele>880.71</ele>
        <time>2021-08-14T18:00:18Z</time>
      </trkpt>
      <trkpt lat="45.6832" lon="2.84156">
        <ele>880.71</ele>
        <time>2021-08-14T18:00:34Z</time>
      </trkpt>
      <trkpt lat="45.68323" lon="2.84154">
        <ele>880.71</ele>
        <time>2021-08-14T18:00:55Z</time>
      </trkpt>
      <trkpt lat="45.68322" lon="2.84151">
        <ele>880.71</ele>
        <time>2021-08-14T18:01:19Z</time>
      </trkpt>
      <trkpt lat="45.6832" lon="2.84153">
        <ele>880.71</ele>
        <time>2021-08-14T18:01:37Z</time>
      </trkpt>
      <trkpt lat="45.68321" lon="2.84151">
        <ele>880.71</ele>
        <time>2021-08-14T18:01:55Z</time>
      </trkpt>
      <trkpt lat="45.6832" lon="2.84152">
        <ele>880.71</ele>
        <time>2021-08-14T18:02:11Z</time>
      </trkpt>
      <trkpt lat="45.68319" lon="2.84155">
        <ele>880.71</ele>
        <time>2021-08-14T18:02:32Z</time>
      </trkpt>
      <trkpt lat="45.68316" lon="2.84158">
        <ele>880.71</ele>
        <time>2021-08-14T18:02:46Z</time>
      </trkpt>
      <trkpt lat="45.68318" lon="2.84157">
        <ele>880.71</ele>
        <time>2021-08-14T18:03:07Z</time>
      </trkpt>
      <trkpt lat="45.6832" lon="2.84154">
        <ele>880.71</ele>
        <time>2021-08-14T18:03:21Z</time>
      </trkpt>
      <trkpt lat="45.68323" lon="2.84152">
        <ele>880.71</ele>
        <time>2021-08-14T18:03:38Z</time>
      </trkpt>
      <trkpt lat="45.68323" lon="2.84152">
        <ele>880.71</ele>
        <time>2021-08-14T18:03:54Z</time>
      </trkpt>
      <trkpt lat="45.68319" lon="2.84155">
        <ele>880.71</ele>
        <time>2021-08-14T18:04:13Z</time>
      </trkpt>
      <trkpt lat="45.68317" lon="2.84156">
        <ele>880.71</ele>
        <time>2021-08-14T18:04:31Z</time>
      </trkpt>
      <trkpt lat="45.68318" lon="2.84155">
        <ele>880.71</ele>
        <time>2021-08-14T18:04:41Z</time>
      </trkpt>
      <trkpt lat="45.68316" lon="2.84156">
        <ele>880.71</ele>
        <time>2021-08-14T18:04:56Z</time>
      </trkpt>
      <trkpt lat="45.68315" lon="2.84156">
        <ele>880.71</ele>
        <time>2021-08-14T18:05:13Z</time>
      </trkpt>
      <trkpt lat="45.68316" lon="2.84158">
        <ele>880.71</ele>
        <time>2021-08-14T18:05:34Z</time>
      </trkpt>
      <trkpt lat="45.68318" lon="2.84157">
        <ele>880.71</ele>
        <time>2021-08-14T18:05:53Z</time>
      </trkpt>
      <trkpt lat="45.68322" lon="2.84154">
        <ele>880.71</ele>
        <time>2021-08-14T18:06:14Z</time>
      </trkpt>
      <trkpt lat="45.6832" lon="2.84156">
        <ele>880.71</ele>
        <time>2021-08-14T18:06:32Z</time>
      </trkpt>
      <trkpt lat="45.68318" lon="2.84156">
        <ele>880.71</ele>
        <time>2021-08-14T18:06:49Z</time>
      </trkpt>
      <trkpt lat="45.68319" lon="2.84155">
        <ele>880.71</ele>
        <time>2021-08-14T18:07:05Z</time>
      </trkpt>
      <trkpt lat="45.68319" lon="2.84157">
        <ele>880.71</ele>
        <time>2021-08-14T18:07:21Z</time>
      </trkpt>
      <trkpt lat="45.68314" lon="2.84156">
        <ele>880.71</ele>
        <time>2021-08-14T18:07:38Z</time>
      </trkpt>
      <trkpt lat="45.68314" lon="2.84157">
        <ele>880.71</ele>
        <time>2021-08-14T18:07:47Z</time>
      </trkpt>
      <trkpt lat="45.6831" lon="2.84156">
        <ele>880.71</ele>
        <time>2021-08-14T18:08:05Z</time>
      </trkpt>
      <trkpt lat="45.68312" lon="2.84158">
        <ele>880.71</ele>
        <time>2021-08-14T18:08:22Z</time>
      </trkpt>
      <trkpt lat="45.68316" lon="2.84158">
        <ele>880.71</ele>
        <time>2021-08-14T18:08:40Z</time>
      </trkpt>
      <trkpt lat="45.68316" lon="2.84156">
        <ele>880.71</ele>
        <time>2021-08-14T18:08:55Z</time>
      </trkpt>
      <trkpt lat="45.68319" lon="2.84152">
        <ele>880.71</ele>
        <time>2021-08-14T18:09:16Z</time>
      </trkpt>
      <trkpt lat="45.68325" lon="2.84153">
        <ele>880.22</ele>
        <time>2021-08-14T18:09:37Z</time>
      </trkpt>
      <trkpt lat="45.6832" lon="2.84152">
        <ele>880.22</ele>
        <time>2021-08-14T18:09:56Z</time>
      </trkpt>
      <trkpt lat="45.68324" lon="2.84151">
        <ele>880.22</ele>
        <time>2021-08-14T18:10:15Z</time>
      </trkpt>
      <trkpt lat="45.68325" lon="2.84151">
        <ele>880.22</ele>
        <time>2021-08-14T18:10:32Z</time>
      </trkpt>
      <trkpt lat="45.68327" lon="2.8415">
        <ele>880.22</ele>
        <time>2021-08-14T18:10:49Z</time>
      </trkpt>
      <trkpt lat="45.68328" lon="2.8415">
        <ele>880.22</ele>
        <time>2021-08-14T18:11:08Z</time>
      </trkpt>
      <trkpt lat="45.68326" lon="2.84151">
        <ele>880.22</ele>
        <time>2021-08-14T18:11:24Z</time>
      </trkpt>
      <trkpt lat="45.6832" lon="2.84152">
        <ele>880.22</ele>
        <time>2021-08-14T18:11:41Z</time>
      </trkpt>
      <trkpt lat="45.68322" lon="2.84153">
        <ele>880.22</ele>
        <time>2021-08-14T18:12:02Z</time>
      </trkpt>
      <trkpt lat="45.68323" lon="2.84155">
        <ele>879.74</ele>
        <time>2021-08-14T18:12:22Z</time>
      </trkpt>
      <trkpt lat="45.68324" lon="2.84152">
        <ele>879.74</ele>
        <time>2021-08-14T18:12:38Z</time>
      </trkpt>
      <trkpt lat="45.68324" lon="2.84151">
        <ele>879.74</ele>
        <time>2021-08-14T18:12:54Z</time>
      </trkpt>
      <trkpt lat="45.6832" lon="2.84152">
        <ele>879.74</ele>
        <time>2021-08-14T18:13:18Z</time>
      </trkpt>
      <trkpt lat="45.68321" lon="2.84153">
        <ele>879.74</ele>
        <time>2021-08-14T18:13:30Z</time>
      </trkpt>
      <trkpt lat="45.68322" lon="2.84157">
        <ele>879.74</ele>
        <time>2021-08-14T18:13:44Z</time>
      </trkpt>
      <trkpt lat="45.68323" lon="2.84156">
        <ele>879.74</ele>
        <time>2021-08-14T18:13:54Z</time>
      </trkpt>
      <trkpt lat="45.68325" lon="2.84152">
        <ele>879.74</ele>
        <time>2021-08-14T18:14:15Z</time>
      </trkpt>
      <trkpt lat="45.68325" lon="2.8415">
        <ele>879.74</ele>
        <time>2021-08-14T18:14:29Z</time>
      </trkpt>
      <trkpt lat="45.68328" lon="2.84151">
        <ele>879.74</ele>
        <time>2021-08-14T18:14:45Z</time>
      </trkpt>
      <trkpt lat="45.68329" lon="2.84152">
        <ele>879.74</ele>
        <time>2021-08-14T18:15:09Z</time>
      </trkpt>
      <trkpt lat="45.68328" lon="2.84153">
        <ele>879.26</ele>
        <time>2021-08-14T18:15:22Z</time>
      </trkpt>
      <trkpt lat="45.68326" lon="2.84152">
        <ele>879.26</ele>
        <time>2021-08-14T18:15:40Z</time>
      </trkpt>
      <trkpt lat="45.68326" lon="2.84153">
        <ele>879.26</ele>
        <time>2021-08-14T18:15:53Z</time>
      </trkpt>
      <trkpt lat="45.68327" lon="2.84152">
        <ele>879.26</ele>
        <time>2021-08-14T18:16:13Z</time>
      </trkpt>
      <trkpt lat="45.68325" lon="2.84152">
        <ele>879.26</ele>
        <time>2021-08-14T18:16:31Z</time>
      </trkpt>
      <trkpt lat="45.68325" lon="2.84153">
        <ele>879.26</ele>
        <time>2021-08-14T18:16:45Z</time>
      </trkpt>
      <trkpt lat="45.68324" lon="2.84152">
        <ele>879.26</ele>
        <time>2021-08-14T18:16:55Z</time>
      </trkpt>
      <trkpt lat="45.68323" lon="2.84153">
        <ele>878.78</ele>
        <time>2021-08-14T18:17:02Z</time>
      </trkpt>
      <trkpt lat="45.68323" lon="2.84151">
        <ele>878.78</ele>
        <time>2021-08-14T18:17:14Z</time>
      </trkpt>
      <trkpt lat="45.68322" lon="2.84154">
        <ele>878.78</ele>
        <time>2021-08-14T18:17:29Z</time>
      </trkpt>
      <trkpt lat="45.68324" lon="2.84154">
        <ele>878.78</ele>
        <time>2021-08-14T18:17:46Z</time>
      </trkpt>
      <trkpt lat="45.68324" lon="2.84153">
        <ele>878.78</ele>
        <time>2021-08-14T18:18:02Z</time>
      </trkpt>
      <trkpt lat="45.68324" lon="2.84152">
        <ele>878.78</ele>
        <time>2021-08-14T18:18:16Z</time>
      </trkpt>
      <trkpt lat="45.68322" lon="2.84153">
        <ele>878.78</ele>
        <time>2021-08-14T18:18:29Z</time>
      </trkpt>
      <trkpt lat="45.68322" lon="2.84152">
        <ele>878.78</ele>
        <time>2021-08-14T18:18:46Z</time>
      </trkpt>
      <trkpt lat="45.68324" lon="2.84152">
        <ele>878.78</ele>
        <time>2021-08-14T18:19:07Z</time>
      </trkpt>
      <trkpt lat="45.68322" lon="2.84152">
        <ele>878.78</ele>
        <time>2021-08-14T18:19:20Z</time>
      </trkpt>
      <trkpt lat="45.68318" lon="2.84154">
        <ele>878.78</ele>
        <time>2021-08-14T18:19:39Z</time>
      </trkpt>
      <trkpt lat="45.68319" lon="2.84153">
        <ele>878.78</ele>
        <time>2021-08-14T18:19:55Z</time>
      </trkpt>
      <trkpt lat="45.68321" lon="2.84154">
        <ele>878.78</ele>
        <time>2021-08-14T18:20:18Z</time>
      </trkpt>
      <trkpt lat="45.68322" lon="2.84154">
        <ele>878.78</ele>
        <time>2021-08-14T18:20:36Z</time>
      </trkpt>
      <trkpt lat="45.68323" lon="2.84153">
        <ele>878.78</ele>
        <time>2021-08-14T18:20:39Z</time>
      </trkpt>
      <trkpt lat="45.68325" lon="2.84153">
        <ele>878.78</ele>
        <time>2021-08-14T18:20:40Z</time>
      </trkpt>
      <trkpt lat="45.68326" lon="2.84154">
        <ele>878.78</ele>
        <time>2021-08-14T18:20:41Z</time>
      </trkpt>
      <trkpt lat="45.68326" lon="2.84155">
        <ele>878.78</ele>
        <time>2021-08-14T18:20:42Z</time>
      </trkpt>
      <trkpt lat="45.68326" lon="2.84157">
        <ele>878.78</ele>
        <time>2021-08-14T18:20:43Z</time>
      </trkpt>
      <trkpt lat="45.68325" lon="2.84168">
        <ele>878.78</ele>
        <time>2021-08-14T18:20:50Z</time>
      </trkpt>
      <trkpt lat="45.68325" lon="2.8417">
        <ele>878.78</ele>
        <time>2021-08-14T18:20:51Z</time>
      </trkpt>
      <trkpt lat="45.68324" lon="2.84172">
        <ele>878.78</ele>
        <time>2021-08-14T18:20:52Z</time>
      </trkpt>
      <trkpt lat="45.68323" lon="2.84174">
        <ele>878.78</ele>
        <time>2021-08-14T18:20:53Z</time>
      </trkpt>
      <trkpt lat="45.68322" lon="2.84175">
        <ele>878.78</ele>
        <time>2021-08-14T18:20:54Z</time>
      </trkpt>
      <trkpt lat="45.68321" lon="2.84177">
        <ele>878.78</ele>
        <time>2021-08-14T18:20:55Z</time>
      </trkpt>
      <trkpt lat="45.6832" lon="2.84179">
        <ele>878.78</ele>
        <time>2021-08-14T18:20:56Z</time>
      </trkpt>
      <trkpt lat="45.68319" lon="2.84181">
        <ele>878.78</ele>
        <time>2021-08-14T18:20:57Z</time>
      </trkpt>
      <trkpt lat="45.68318" lon="2.84182">
        <ele>878.78</ele>
        <time>2021-08-14T18:20:58Z</time>
      </trkpt>
      <trkpt lat="45.68317" lon="2.84186">
        <ele>878.78</ele>
        <time>2021-08-14T18:21:00Z</time>
      </trkpt>
      <trkpt lat="45.68316" lon="2.84189">
        <ele>878.78</ele>
        <time>2021-08-14T18:21:01Z</time>
      </trkpt>
      <trkpt lat="45.68315" lon="2.8419">
        <ele>878.78</ele>
        <time>2021-08-14T18:21:02Z</time>
      </trkpt>
      <trkpt lat="45.68313" lon="2.84191">
        <ele>878.78</ele>
        <time>2021-08-14T18:21:03Z</time>
      </trkpt>
      <trkpt lat="45.68312" lon="2.84197">
        <ele>879.26</ele>
        <time>2021-08-14T18:21:08Z</time>
      </trkpt>
      <trkpt lat="45.68313" lon="2.84198">
        <ele>879.26</ele>
        <time>2021-08-14T18:21:09Z</time>
      </trkpt>
      <trkpt lat="45.68316" lon="2.84198">
        <ele>879.26</ele>
        <time>2021-08-14T18:21:12Z</time>
      </trkpt>
      <trkpt lat="45.68318" lon="2.84198">
        <ele>879.26</ele>
        <time>2021-08-14T18:21:13Z</time>
      </trkpt>
      <trkpt lat="45.68319" lon="2.84198">
        <ele>879.26</ele>
        <time>2021-08-14T18:21:14Z</time>
      </trkpt>
      <trkpt lat="45.68321" lon="2.84196">
        <ele>879.26</ele>
        <time>2021-08-14T18:21:15Z</time>
      </trkpt>
      <trkpt lat="45.68323" lon="2.84195">
        <ele>879.26</ele>
        <time>2021-08-14T18:21:16Z</time>
      </trkpt>
      <trkpt lat="45.68325" lon="2.84195">
        <ele>879.26</ele>
        <time>2021-08-14T18:21:17Z</time>
      </trkpt>
      <trkpt lat="45.68328" lon="2.84197">
        <ele>879.26</ele>
        <time>2021-08-14T18:21:18Z</time>
      </trkpt>
      <trkpt lat="45.6833" lon="2.84199">
        <ele>879.26</ele>
        <time>2021-08-14T18:21:19Z</time>
      </trkpt>
      <trkpt lat="45.68331" lon="2.84202">
        <ele>879.26</ele>
        <time>2021-08-14T18:21:20Z</time>
      </trkpt>
      <trkpt lat="45.68339" lon="2.84221">
        <ele>879.26</ele>
        <time>2021-08-14T18:21:26Z</time>
      </trkpt>
      <trkpt lat="45.6835" lon="2.84239">
        <ele>879.74</ele>
        <time>2021-08-14T18:21:33Z</time>
      </trkpt>
      <trkpt lat="45.68359" lon="2.84268">
        <ele>880.71</ele>
        <time>2021-08-14T18:21:44Z</time>
      </trkpt>
      <trkpt lat="45.68365" lon="2.84284">
        <ele>881.67</ele>
        <time>2021-08-14T18:21:52Z</time>
      </trkpt>
      <trkpt lat="45.68375" lon="2.84292">
        <ele>882.63</ele>
        <time>2021-08-14T18:22:00Z</time>
      </trkpt>
      <trkpt lat="45.68386" lon="2.84298">
        <ele>883.59</ele>
        <time>2021-08-14T18:22:08Z</time>
      </trkpt>
      <trkpt lat="45.6839" lon="2.84302">
        <ele>883.59</ele>
        <time>2021-08-14T18:22:11Z</time>
      </trkpt>
      <trkpt lat="45.68391" lon="2.84304">
        <ele>884.07</ele>
        <time>2021-08-14T18:22:12Z</time>
      </trkpt>
      <trkpt lat="45.68405" lon="2.84314">
        <ele>884.55</ele>
        <time>2021-08-14T18:22:22Z</time>
      </trkpt>
      <trkpt lat="45.68406" lon="2.84316">
        <ele>885.03</ele>
        <time>2021-08-14T18:22:23Z</time>
      </trkpt>
      <trkpt lat="45.68406" lon="2.84317">
        <ele>885.03</ele>
        <time>2021-08-14T18:22:24Z</time>
      </trkpt>
      <trkpt lat="45.68408" lon="2.84319">
        <ele>885.03</ele>
        <time>2021-08-14T18:22:25Z</time>
      </trkpt>
      <trkpt lat="45.68409" lon="2.8432">
        <ele>885.03</ele>
        <time>2021-08-14T18:22:26Z</time>
      </trkpt>
      <trkpt lat="45.6841" lon="2.84321">
        <ele>885.03</ele>
        <time>2021-08-14T18:22:27Z</time>
      </trkpt>
      <trkpt lat="45.68412" lon="2.84321">
        <ele>885.51</ele>
        <time>2021-08-14T18:22:28Z</time>
      </trkpt>
      <trkpt lat="45.68424" lon="2.84332">
        <ele>885.99</ele>
        <time>2021-08-14T18:22:37Z</time>
      </trkpt>
      <trkpt lat="45.68436" lon="2.84343">
        <ele>886.47</ele>
        <time>2021-08-14T18:22:47Z</time>
      </trkpt>
      <trkpt lat="45.68446" lon="2.84352">
        <ele>887.43</ele>
        <time>2021-08-14T18:22:55Z</time>
      </trkpt>
      <trkpt lat="45.68447" lon="2.84354">
        <ele>887.91</ele>
        <time>2021-08-14T18:22:56Z</time>
      </trkpt>
      <trkpt lat="45.68448" lon="2.84354">
        <ele>887.91</ele>
        <time>2021-08-14T18:22:57Z</time>
      </trkpt>
      <trkpt lat="45.68457" lon="2.84363">
        <ele>888.88</ele>
        <time>2021-08-14T18:23:05Z</time>
      </trkpt>
      <trkpt lat="45.68459" lon="2.84364">
        <ele>888.88</ele>
        <time>2021-08-14T18:23:06Z</time>
      </trkpt>
      <trkpt lat="45.6846" lon="2.84365">
        <ele>888.88</ele>
        <time>2021-08-14T18:23:07Z</time>
      </trkpt>
      <trkpt lat="45.68461" lon="2.84366">
        <ele>889.36</ele>
        <time>2021-08-14T18:23:08Z</time>
      </trkpt>
      <trkpt lat="45.68462" lon="2.84368">
        <ele>889.36</ele>
        <time>2021-08-14T18:23:09Z</time>
      </trkpt>
      <trkpt lat="45.68462" lon="2.84369">
        <ele>889.84</ele>
        <time>2021-08-14T18:23:10Z</time>
      </trkpt>
      <trkpt lat="45.68462" lon="2.84371">
        <ele>889.84</ele>
        <time>2021-08-14T18:23:11Z</time>
      </trkpt>
      <trkpt lat="45.68462" lon="2.84372">
        <ele>889.84</ele>
        <time>2021-08-14T18:23:12Z</time>
      </trkpt>
      <trkpt lat="45.68462" lon="2.84373">
        <ele>889.84</ele>
        <time>2021-08-14T18:23:13Z</time>
      </trkpt>
      <trkpt lat="45.68462" lon="2.84375">
        <ele>890.32</ele>
        <time>2021-08-14T18:23:14Z</time>
      </trkpt>
      <trkpt lat="45.68463" lon="2.84376">
        <ele>890.32</ele>
        <time>2021-08-14T18:23:15Z</time>
      </trkpt>
      <trkpt lat="45.68463" lon="2.84378">
        <ele>890.32</ele>
        <time>2021-08-14T18:23:16Z</time>
      </trkpt>
      <trkpt lat="45.68463" lon="2.84379">
        <ele>890.8</ele>
        <time>2021-08-14T18:23:17Z</time>
      </trkpt>
      <trkpt lat="45.68463" lon="2.84381">
        <ele>890.8</ele>
        <time>2021-08-14T18:23:18Z</time>
      </trkpt>
      <trkpt lat="45.68462" lon="2.84383">
        <ele>890.8</ele>
        <time>2021-08-14T18:23:19Z</time>
      </trkpt>
      <trkpt lat="45.68462" lon="2.84385">
        <ele>891.28</ele>
        <time>2021-08-14T18:23:20Z</time>
      </trkpt>
      <trkpt lat="45.68453" lon="2.84393">
        <ele>891.76</ele>
        <time>2021-08-14T18:23:27Z</time>
      </trkpt>
      <trkpt lat="45.68438" lon="2.84395">
        <ele>892.24</ele>
        <time>2021-08-14T18:23:35Z</time>
      </trkpt>
      <trkpt lat="45.68424" lon="2.8439">
        <ele>892.72</ele>
        <time>2021-08-14T18:23:42Z</time>
      </trkpt>
      <trkpt lat="45.684" lon="2.8438">
        <ele>893.68</ele>
        <time>2021-08-14T18:23:54Z</time>
      </trkpt>
      <trkpt lat="45.68382" lon="2.84372">
        <ele>895.12</ele>
        <time>2021-08-14T18:24:03Z</time>
      </trkpt>
      <trkpt lat="45.68356" lon="2.84365">
        <ele>895.61</ele>
        <time>2021-08-14T18:24:15Z</time>
      </trkpt>
      <trkpt lat="45.68338" lon="2.84361">
        <ele>895.61</ele>
        <time>2021-08-14T18:24:22Z</time>
      </trkpt>
      <trkpt lat="45.68311" lon="2.84353">
        <ele>896.09</ele>
        <time>2021-08-14T18:24:31Z</time>
      </trkpt>
      <trkpt lat="45.68288" lon="2.84344">
        <ele>896.57</ele>
        <time>2021-08-14T18:24:39Z</time>
      </trkpt>
      <trkpt lat="45.68266" lon="2.84337">
        <ele>896.57</ele>
        <time>2021-08-14T18:24:46Z</time>
      </trkpt>
      <trkpt lat="45.68239" lon="2.84327">
        <ele>896.57</ele>
        <time>2021-08-14T18:24:55Z</time>
      </trkpt>
      <trkpt lat="45.682" lon="2.84313">
        <ele>896.57</ele>
        <time>2021-08-14T18:25:06Z</time>
      </trkpt>
      <trkpt lat="45.68189" lon="2.84308">
        <ele>895.12</ele>
        <time>2021-08-14T18:25:09Z</time>
      </trkpt>
      <trkpt lat="45.68167" lon="2.84298">
        <ele>894.64</ele>
        <time>2021-08-14T18:25:14Z</time>
      </trkpt>
      <trkpt lat="45.6813" lon="2.84283">
        <ele>893.2</ele>
        <time>2021-08-14T18:25:21Z</time>
      </trkpt>
      <trkpt lat="45.68124" lon="2.84282">
        <ele>893.2</ele>
        <time>2021-08-14T18:25:22Z</time>
      </trkpt>
      <trkpt lat="45.68118" lon="2.84281">
        <ele>893.2</ele>
        <time>2021-08-14T18:25:23Z</time>
      </trkpt>
      <trkpt lat="45.68098" lon="2.84279">
        <ele>894.16</ele>
        <time>2021-08-14T18:25:28Z</time>
      </trkpt>
      <trkpt lat="45.68094" lon="2.84278">
        <ele>894.16</ele>
        <time>2021-08-14T18:25:29Z</time>
      </trkpt>
      <trkpt lat="45.68078" lon="2.84273">
        <ele>895.61</ele>
        <time>2021-08-14T18:25:36Z</time>
      </trkpt>
      <trkpt lat="45.68064" lon="2.84268">
        <ele>897.05</ele>
        <time>2021-08-14T18:25:45Z</time>
      </trkpt>
      <trkpt lat="45.6805" lon="2.84263">
        <ele>898.01</ele>
        <time>2021-08-14T18:25:54Z</time>
      </trkpt>
      <trkpt lat="45.68033" lon="2.84255">
        <ele>898.97</ele>
        <time>2021-08-14T18:26:03Z</time>
      </trkpt>
      <trkpt lat="45.68024" lon="2.84251">
        <ele>899.45</ele>
        <time>2021-08-14T18:26:07Z</time>
      </trkpt>
      <trkpt lat="45.68013" lon="2.84248">
        <ele>899.93</ele>
        <time>2021-08-14T18:26:12Z</time>
      </trkpt>
      <trkpt lat="45.68001" lon="2.84236">
        <ele>900.89</ele>
        <time>2021-08-14T18:26:22Z</time>
      </trkpt>
      <trkpt lat="45.67985" lon="2.84226">
        <ele>901.37</ele>
        <time>2021-08-14T18:26:31Z</time>
      </trkpt>
      <trkpt lat="45.67968" lon="2.84215">
        <ele>902.33</ele>
        <time>2021-08-14T18:26:40Z</time>
      </trkpt>
      <trkpt lat="45.67947" lon="2.84204">
        <ele>902.82</ele>
        <time>2021-08-14T18:26:50Z</time>
      </trkpt>
      <trkpt lat="45.67921" lon="2.842">
        <ele>902.82</ele>
        <time>2021-08-14T18:26:59Z</time>
      </trkpt>
      <trkpt lat="45.67898" lon="2.84198">
        <ele>901.85</ele>
        <time>2021-08-14T18:27:05Z</time>
      </trkpt>
      <trkpt lat="45.67864" lon="2.84201">
        <ele>901.85</ele>
        <time>2021-08-14T18:27:14Z</time>
      </trkpt>
      <trkpt lat="45.67848" lon="2.84206">
        <ele>903.3</ele>
        <time>2021-08-14T18:27:21Z</time>
      </trkpt>
      <trkpt lat="45.67839" lon="2.84205">
        <ele>904.74</ele>
        <time>2021-08-14T18:27:30Z</time>
      </trkpt>
      <trkpt lat="45.67829" lon="2.84203">
        <ele>906.18</ele>
        <time>2021-08-14T18:27:40Z</time>
      </trkpt>
      <trkpt lat="45.67819" lon="2.84203">
        <ele>907.62</ele>
        <time>2021-08-14T18:27:50Z</time>
      </trkpt>
      <trkpt lat="45.67811" lon="2.84204">
        <ele>908.58</ele>
        <time>2021-08-14T18:27:58Z</time>
      </trkpt>
      <trkpt lat="45.67798" lon="2.84205">
        <ele>909.54</ele>
        <time>2021-08-14T18:28:09Z</time>
      </trkpt>
      <trkpt lat="45.67791" lon="2.84205">
        <ele>910.99</ele>
        <time>2021-08-14T18:28:14Z</time>
      </trkpt>
      <trkpt lat="45.67781" lon="2.84207">
        <ele>911.95</ele>
        <time>2021-08-14T18:28:22Z</time>
      </trkpt>
      <trkpt lat="45.6778" lon="2.84207">
        <ele>911.95</ele>
        <time>2021-08-14T18:28:23Z</time>
      </trkpt>
      <trkpt lat="45.67779" lon="2.84208">
        <ele>911.95</ele>
        <time>2021-08-14T18:28:24Z</time>
      </trkpt>
      <trkpt lat="45.67777" lon="2.84209">
        <ele>912.43</ele>
        <time>2021-08-14T18:28:26Z</time>
      </trkpt>
      <trkpt lat="45.67776" lon="2.84209">
        <ele>912.43</ele>
        <time>2021-08-14T18:28:27Z</time>
      </trkpt>
      <trkpt lat="45.67775" lon="2.84208">
        <ele>912.43</ele>
        <time>2021-08-14T18:28:28Z</time>
      </trkpt>
      <trkpt lat="45.67773" lon="2.84208">
        <ele>912.43</ele>
        <time>2021-08-14T18:28:29Z</time>
      </trkpt>
      <trkpt lat="45.67772" lon="2.84208">
        <ele>912.43</ele>
        <time>2021-08-14T18:28:30Z</time>
      </trkpt>
      <trkpt lat="45.67771" lon="2.84208">
        <ele>912.43</ele>
        <time>2021-08-14T18:28:31Z</time>
      </trkpt>
      <trkpt lat="45.6777" lon="2.84208">
        <ele>913.39</ele>
        <time>2021-08-14T18:28:32Z</time>
      </trkpt>
      <trkpt lat="45.67769" lon="2.84209">
        <ele>913.39</ele>
        <time>2021-08-14T18:28:33Z</time>
      </trkpt>
      <trkpt lat="45.67759" lon="2.8421">
        <ele>913.87</ele>
        <time>2021-08-14T18:28:41Z</time>
      </trkpt>
      <trkpt lat="45.67746" lon="2.8421">
        <ele>915.31</ele>
        <time>2021-08-14T18:28:52Z</time>
      </trkpt>
      <trkpt lat="45.67738" lon="2.84211">
        <ele>916.27</ele>
        <time>2021-08-14T18:29:00Z</time>
      </trkpt>
      <trkpt lat="45.67727" lon="2.8421">
        <ele>917.72</ele>
        <time>2021-08-14T18:29:11Z</time>
      </trkpt>
      <trkpt lat="45.67717" lon="2.84212">
        <ele>919.64</ele>
        <time>2021-08-14T18:29:21Z</time>
      </trkpt>
      <trkpt lat="45.67708" lon="2.84216">
        <ele>921.08</ele>
        <time>2021-08-14T18:29:32Z</time>
      </trkpt>
      <trkpt lat="45.677" lon="2.84222">
        <ele>923</ele>
        <time>2021-08-14T18:29:43Z</time>
      </trkpt>
      <trkpt lat="45.67691" lon="2.84228">
        <ele>924.45</ele>
        <time>2021-08-14T18:29:54Z</time>
      </trkpt>
      <trkpt lat="45.67684" lon="2.84234">
        <ele>925.41</ele>
        <time>2021-08-14T18:30:04Z</time>
      </trkpt>
      <trkpt lat="45.67682" lon="2.84238">
        <ele>925.89</ele>
        <time>2021-08-14T18:30:08Z</time>
      </trkpt>
      <trkpt lat="45.67676" lon="2.84246">
        <ele>927.81</ele>
        <time>2021-08-14T18:30:19Z</time>
      </trkpt>
      <trkpt lat="45.67669" lon="2.84254">
        <ele>929.25</ele>
        <time>2021-08-14T18:30:31Z</time>
      </trkpt>
      <trkpt lat="45.67663" lon="2.84262">
        <ele>930.21</ele>
        <time>2021-08-14T18:30:40Z</time>
      </trkpt>
      <trkpt lat="45.67658" lon="2.84266">
        <ele>931.17</ele>
        <time>2021-08-14T18:30:49Z</time>
      </trkpt>
      <trkpt lat="45.67654" lon="2.8427">
        <ele>931.17</ele>
        <time>2021-08-14T18:30:54Z</time>
      </trkpt>
      <trkpt lat="45.67653" lon="2.84271">
        <ele>931.17</ele>
        <time>2021-08-14T18:30:55Z</time>
      </trkpt>
      <trkpt lat="45.67652" lon="2.84272">
        <ele>931.17</ele>
        <time>2021-08-14T18:30:56Z</time>
      </trkpt>
      <trkpt lat="45.67651" lon="2.84273">
        <ele>931.17</ele>
        <time>2021-08-14T18:30:57Z</time>
      </trkpt>
      <trkpt lat="45.6765" lon="2.84274">
        <ele>931.65</ele>
        <time>2021-08-14T18:30:58Z</time>
      </trkpt>
      <trkpt lat="45.67649" lon="2.84276">
        <ele>932.14</ele>
        <time>2021-08-14T18:30:59Z</time>
      </trkpt>
      <trkpt lat="45.67647" lon="2.84276">
        <ele>932.14</ele>
        <time>2021-08-14T18:31:00Z</time>
      </trkpt>
      <trkpt lat="45.67643" lon="2.8428">
        <ele>932.62</ele>
        <time>2021-08-14T18:31:04Z</time>
      </trkpt>
      <trkpt lat="45.67642" lon="2.84279">
        <ele>932.62</ele>
        <time>2021-08-14T18:31:05Z</time>
      </trkpt>
      <trkpt lat="45.67641" lon="2.8428">
        <ele>932.62</ele>
        <time>2021-08-14T18:31:06Z</time>
      </trkpt>
      <trkpt lat="45.6764" lon="2.84281">
        <ele>932.62</ele>
        <time>2021-08-14T18:31:07Z</time>
      </trkpt>
      <trkpt lat="45.6764" lon="2.84283">
        <ele>933.58</ele>
        <time>2021-08-14T18:31:08Z</time>
      </trkpt>
      <trkpt lat="45.67639" lon="2.84284">
        <ele>933.58</ele>
        <time>2021-08-14T18:31:09Z</time>
      </trkpt>
      <trkpt lat="45.67639" lon="2.84286">
        <ele>933.58</ele>
        <time>2021-08-14T18:31:10Z</time>
      </trkpt>
      <trkpt lat="45.6764" lon="2.84288">
        <ele>933.58</ele>
        <time>2021-08-14T18:31:11Z</time>
      </trkpt>
      <trkpt lat="45.67638" lon="2.84292">
        <ele>934.06</ele>
        <time>2021-08-14T18:31:13Z</time>
      </trkpt>
      <trkpt lat="45.67629" lon="2.84303">
        <ele>935.5</ele>
        <time>2021-08-14T18:31:22Z</time>
      </trkpt>
      <trkpt lat="45.67621" lon="2.84314">
        <ele>935.98</ele>
        <time>2021-08-14T18:31:31Z</time>
      </trkpt>
      <trkpt lat="45.6762" lon="2.84315">
        <ele>936.94</ele>
        <time>2021-08-14T18:31:32Z</time>
      </trkpt>
      <trkpt lat="45.67619" lon="2.84316">
        <ele>936.94</ele>
        <time>2021-08-14T18:31:33Z</time>
      </trkpt>
      <trkpt lat="45.67618" lon="2.84317">
        <ele>936.94</ele>
        <time>2021-08-14T18:31:34Z</time>
      </trkpt>
      <trkpt lat="45.67618" lon="2.84319">
        <ele>936.94</ele>
        <time>2021-08-14T18:31:35Z</time>
      </trkpt>
      <trkpt lat="45.67617" lon="2.8432">
        <ele>937.42</ele>
        <time>2021-08-14T18:31:36Z</time>
      </trkpt>
      <trkpt lat="45.67616" lon="2.84321">
        <ele>937.42</ele>
        <time>2021-08-14T18:31:37Z</time>
      </trkpt>
      <trkpt lat="45.67615" lon="2.84322">
        <ele>937.42</ele>
        <time>2021-08-14T18:31:38Z</time>
      </trkpt>
      <trkpt lat="45.67614" lon="2.84323">
        <ele>937.42</ele>
        <time>2021-08-14T18:31:39Z</time>
      </trkpt>
      <trkpt lat="45.67613" lon="2.84324">
        <ele>937.42</ele>
        <time>2021-08-14T18:31:40Z</time>
      </trkpt>
      <trkpt lat="45.67612" lon="2.84325">
        <ele>937.9</ele>
        <time>2021-08-14T18:31:41Z</time>
      </trkpt>
      <trkpt lat="45.6761" lon="2.84327">
        <ele>937.9</ele>
        <time>2021-08-14T18:31:43Z</time>
      </trkpt>
      <trkpt lat="45.67602" lon="2.84342">
        <ele>939.35</ele>
        <time>2021-08-14T18:31:55Z</time>
      </trkpt>
      <trkpt lat="45.67594" lon="2.84355">
        <ele>940.79</ele>
        <time>2021-08-14T18:32:05Z</time>
      </trkpt>
      <trkpt lat="45.67588" lon="2.84368">
        <ele>941.75</ele>
        <time>2021-08-14T18:32:14Z</time>
      </trkpt>
      <trkpt lat="45.6758" lon="2.84381">
        <ele>942.23</ele>
        <time>2021-08-14T18:32:23Z</time>
      </trkpt>
      <trkpt lat="45.67574" lon="2.84392">
        <ele>943.67</ele>
        <time>2021-08-14T18:32:32Z</time>
      </trkpt>
      <trkpt lat="45.67573" lon="2.84395">
        <ele>944.63</ele>
        <time>2021-08-14T18:32:34Z</time>
      </trkpt>
      <trkpt lat="45.67573" lon="2.84396">
        <ele>944.63</ele>
        <time>2021-08-14T18:32:35Z</time>
      </trkpt>
      <trkpt lat="45.67572" lon="2.84397">
        <ele>944.63</ele>
        <time>2021-08-14T18:32:36Z</time>
      </trkpt>
      <trkpt lat="45.67565" lon="2.8441">
        <ele>945.59</ele>
        <time>2021-08-14T18:32:46Z</time>
      </trkpt>
      <trkpt lat="45.67558" lon="2.84425">
        <ele>947.04</ele>
        <time>2021-08-14T18:32:56Z</time>
      </trkpt>
      <trkpt lat="45.67557" lon="2.84431">
        <ele>947.52</ele>
        <time>2021-08-14T18:33:00Z</time>
      </trkpt>
      <trkpt lat="45.67556" lon="2.84432">
        <ele>947.52</ele>
        <time>2021-08-14T18:33:01Z</time>
      </trkpt>
      <trkpt lat="45.67555" lon="2.84433">
        <ele>947.52</ele>
        <time>2021-08-14T18:33:02Z</time>
      </trkpt>
      <trkpt lat="45.67554" lon="2.84434">
        <ele>947.52</ele>
        <time>2021-08-14T18:33:03Z</time>
      </trkpt>
      <trkpt lat="45.67553" lon="2.84436">
        <ele>947.52</ele>
        <time>2021-08-14T18:33:04Z</time>
      </trkpt>
      <trkpt lat="45.67552" lon="2.84438">
        <ele>948</ele>
        <time>2021-08-14T18:33:06Z</time>
      </trkpt>
      <trkpt lat="45.67551" lon="2.8444">
        <ele>948</ele>
        <time>2021-08-14T18:33:07Z</time>
      </trkpt>
      <trkpt lat="45.67546" lon="2.84455">
        <ele>948.96</ele>
        <time>2021-08-14T18:33:17Z</time>
      </trkpt>
      <trkpt lat="45.67541" lon="2.8447">
        <ele>949.92</ele>
        <time>2021-08-14T18:33:26Z</time>
      </trkpt>
      <trkpt lat="45.67541" lon="2.84471">
        <ele>949.92</ele>
        <time>2021-08-14T18:33:27Z</time>
      </trkpt>
      <trkpt lat="45.6754" lon="2.84472">
        <ele>949.92</ele>
        <time>2021-08-14T18:33:28Z</time>
      </trkpt>
      <trkpt lat="45.67539" lon="2.84474">
        <ele>950.4</ele>
        <time>2021-08-14T18:33:29Z</time>
      </trkpt>
      <trkpt lat="45.67539" lon="2.84476">
        <ele>950.4</ele>
        <time>2021-08-14T18:33:30Z</time>
      </trkpt>
      <trkpt lat="45.67538" lon="2.84477">
        <ele>950.4</ele>
        <time>2021-08-14T18:33:31Z</time>
      </trkpt>
      <trkpt lat="45.6753" lon="2.84494">
        <ele>952.32</ele>
        <time>2021-08-14T18:33:44Z</time>
      </trkpt>
      <trkpt lat="45.6753" lon="2.84496">
        <ele>952.32</ele>
        <time>2021-08-14T18:33:45Z</time>
      </trkpt>
      <trkpt lat="45.67529" lon="2.84497">
        <ele>952.32</ele>
        <time>2021-08-14T18:33:46Z</time>
      </trkpt>
      <trkpt lat="45.67529" lon="2.84499">
        <ele>952.8</ele>
        <time>2021-08-14T18:33:47Z</time>
      </trkpt>
      <trkpt lat="45.67526" lon="2.84504">
        <ele>953.77</ele>
        <time>2021-08-14T18:33:52Z</time>
      </trkpt>
      <trkpt lat="45.67521" lon="2.84516">
        <ele>955.21</ele>
        <time>2021-08-14T18:34:02Z</time>
      </trkpt>
      <trkpt lat="45.67518" lon="2.84525">
        <ele>955.69</ele>
        <time>2021-08-14T18:34:10Z</time>
      </trkpt>
      <trkpt lat="45.67514" lon="2.84534">
        <ele>957.61</ele>
        <time>2021-08-14T18:34:21Z</time>
      </trkpt>
      <trkpt lat="45.67508" lon="2.84543">
        <ele>959.05</ele>
        <time>2021-08-14T18:34:32Z</time>
      </trkpt>
      <trkpt lat="45.67505" lon="2.84547">
        <ele>960.01</ele>
        <time>2021-08-14T18:34:41Z</time>
      </trkpt>
      <trkpt lat="45.67502" lon="2.84552">
        <ele>960.98</ele>
        <time>2021-08-14T18:34:51Z</time>
      </trkpt>
      <trkpt lat="45.67498" lon="2.84558">
        <ele>962.42</ele>
        <time>2021-08-14T18:35:01Z</time>
      </trkpt>
      <trkpt lat="45.67495" lon="2.84565">
        <ele>963.38</ele>
        <time>2021-08-14T18:35:10Z</time>
      </trkpt>
      <trkpt lat="45.67491" lon="2.8457">
        <ele>964.82</ele>
        <time>2021-08-14T18:35:21Z</time>
      </trkpt>
      <trkpt lat="45.67488" lon="2.84576">
        <ele>966.74</ele>
        <time>2021-08-14T18:35:30Z</time>
      </trkpt>
      <trkpt lat="45.67486" lon="2.84584">
        <ele>968.18</ele>
        <time>2021-08-14T18:35:39Z</time>
      </trkpt>
      <trkpt lat="45.67484" lon="2.84592">
        <ele>969.15</ele>
        <time>2021-08-14T18:35:48Z</time>
      </trkpt>
      <trkpt lat="45.6748" lon="2.84596">
        <ele>971.07</ele>
        <time>2021-08-14T18:35:59Z</time>
      </trkpt>
      <trkpt lat="45.67474" lon="2.84601">
        <ele>973.47</ele>
        <time>2021-08-14T18:36:11Z</time>
      </trkpt>
      <trkpt lat="45.67473" lon="2.84602">
        <ele>973.95</ele>
        <time>2021-08-14T18:36:16Z</time>
      </trkpt>
      <trkpt lat="45.6747" lon="2.84609">
        <ele>975.39</ele>
        <time>2021-08-14T18:36:25Z</time>
      </trkpt>
      <trkpt lat="45.67466" lon="2.84614">
        <ele>976.84</ele>
        <time>2021-08-14T18:36:35Z</time>
      </trkpt>
      <trkpt lat="45.67464" lon="2.84618">
        <ele>977.8</ele>
        <time>2021-08-14T18:36:43Z</time>
      </trkpt>
      <trkpt lat="45.67463" lon="2.84624">
        <ele>979.24</ele>
        <time>2021-08-14T18:36:51Z</time>
      </trkpt>
      <trkpt lat="45.67458" lon="2.84628">
        <ele>980.68</ele>
        <time>2021-08-14T18:37:01Z</time>
      </trkpt>
      <trkpt lat="45.67455" lon="2.84634">
        <ele>982.12</ele>
        <time>2021-08-14T18:37:11Z</time>
      </trkpt>
      <trkpt lat="45.67451" lon="2.8464">
        <ele>983.57</ele>
        <time>2021-08-14T18:37:22Z</time>
      </trkpt>
      <trkpt lat="45.67445" lon="2.84646">
        <ele>984.05</ele>
        <time>2021-08-14T18:37:31Z</time>
      </trkpt>
      <trkpt lat="45.67438" lon="2.84647">
        <ele>985.49</ele>
        <time>2021-08-14T18:37:40Z</time>
      </trkpt>
      <trkpt lat="45.67431" lon="2.8465">
        <ele>986.45</ele>
        <time>2021-08-14T18:37:50Z</time>
      </trkpt>
      <trkpt lat="45.67423" lon="2.84654">
        <ele>988.37</ele>
        <time>2021-08-14T18:38:01Z</time>
      </trkpt>
      <trkpt lat="45.67417" lon="2.84654">
        <ele>989.33</ele>
        <time>2021-08-14T18:38:11Z</time>
      </trkpt>
      <trkpt lat="45.6741" lon="2.84654">
        <ele>990.3</ele>
        <time>2021-08-14T18:38:19Z</time>
      </trkpt>
      <trkpt lat="45.67401" lon="2.84651">
        <ele>991.74</ele>
        <time>2021-08-14T18:38:28Z</time>
      </trkpt>
      <trkpt lat="45.67393" lon="2.84651">
        <ele>992.22</ele>
        <time>2021-08-14T18:38:36Z</time>
      </trkpt>
      <trkpt lat="45.67384" lon="2.8465">
        <ele>994.14</ele>
        <time>2021-08-14T18:38:47Z</time>
      </trkpt>
      <trkpt lat="45.67375" lon="2.84646">
        <ele>995.1</ele>
        <time>2021-08-14T18:38:57Z</time>
      </trkpt>
      <trkpt lat="45.6737" lon="2.84643">
        <ele>995.58</ele>
        <time>2021-08-14T18:39:03Z</time>
      </trkpt>
      <trkpt lat="45.67362" lon="2.84636">
        <ele>997.02</ele>
        <time>2021-08-14T18:39:12Z</time>
      </trkpt>
      <trkpt lat="45.67356" lon="2.84626">
        <ele>997.99</ele>
        <time>2021-08-14T18:39:22Z</time>
      </trkpt>
      <trkpt lat="45.67351" lon="2.84619">
        <ele>998.95</ele>
        <time>2021-08-14T18:39:30Z</time>
      </trkpt>
      <trkpt lat="45.67347" lon="2.84613">
        <ele>999.91</ele>
        <time>2021-08-14T18:39:38Z</time>
      </trkpt>
      <trkpt lat="45.67339" lon="2.84607">
        <ele>1001.35</ele>
        <time>2021-08-14T18:39:49Z</time>
      </trkpt>
      <trkpt lat="45.67332" lon="2.84603">
        <ele>1002.31</ele>
        <time>2021-08-14T18:39:59Z</time>
      </trkpt>
      <trkpt lat="45.67326" lon="2.84601">
        <ele>1003.75</ele>
        <time>2021-08-14T18:40:09Z</time>
      </trkpt>
      <trkpt lat="45.67319" lon="2.846">
        <ele>1004.72</ele>
        <time>2021-08-14T18:40:19Z</time>
      </trkpt>
      <trkpt lat="45.67312" lon="2.84604">
        <ele>1006.16</ele>
        <time>2021-08-14T18:40:29Z</time>
      </trkpt>
      <trkpt lat="45.6731" lon="2.84606">
        <ele>1006.64</ele>
        <time>2021-08-14T18:40:33Z</time>
      </trkpt>
      <trkpt lat="45.67308" lon="2.84614">
        <ele>1007.12</ele>
        <time>2021-08-14T18:40:41Z</time>
      </trkpt>
      <trkpt lat="45.67308" lon="2.84624">
        <ele>1008.56</ele>
        <time>2021-08-14T18:40:51Z</time>
      </trkpt>
      <trkpt lat="45.67309" lon="2.8463">
        <ele>1009.04</ele>
        <time>2021-08-14T18:40:56Z</time>
      </trkpt>
      <trkpt lat="45.67312" lon="2.84638">
        <ele>1010</ele>
        <time>2021-08-14T18:41:03Z</time>
      </trkpt>
      <trkpt lat="45.67314" lon="2.84645">
        <ele>1010.48</ele>
        <time>2021-08-14T18:41:09Z</time>
      </trkpt>
      <trkpt lat="45.67315" lon="2.84655">
        <ele>1011.44</ele>
        <time>2021-08-14T18:41:17Z</time>
      </trkpt>
      <trkpt lat="45.67315" lon="2.84665">
        <ele>1012.41</ele>
        <time>2021-08-14T18:41:26Z</time>
      </trkpt>
      <trkpt lat="45.67316" lon="2.84671">
        <ele>1013.37</ele>
        <time>2021-08-14T18:41:33Z</time>
      </trkpt>
      <trkpt lat="45.67315" lon="2.84679">
        <ele>1014.33</ele>
        <time>2021-08-14T18:41:41Z</time>
      </trkpt>
      <trkpt lat="45.67314" lon="2.84684">
        <ele>1014.81</ele>
        <time>2021-08-14T18:41:45Z</time>
      </trkpt>
      <trkpt lat="45.67312" lon="2.84692">
        <ele>1016.25</ele>
        <time>2021-08-14T18:41:53Z</time>
      </trkpt>
      <trkpt lat="45.67309" lon="2.84702">
        <ele>1017.21</ele>
        <time>2021-08-14T18:42:03Z</time>
      </trkpt>
      <trkpt lat="45.67308" lon="2.84712">
        <ele>1018.17</ele>
        <time>2021-08-14T18:42:11Z</time>
      </trkpt>
      <trkpt lat="45.67305" lon="2.84725">
        <ele>1019.62</ele>
        <time>2021-08-14T18:42:24Z</time>
      </trkpt>
      <trkpt lat="45.67302" lon="2.84734">
        <ele>1020.58</ele>
        <time>2021-08-14T18:42:34Z</time>
      </trkpt>
      <trkpt lat="45.673" lon="2.84745">
        <ele>1022.02</ele>
        <time>2021-08-14T18:42:44Z</time>
      </trkpt>
      <trkpt lat="45.67297" lon="2.84755">
        <ele>1022.98</ele>
        <time>2021-08-14T18:42:53Z</time>
      </trkpt>
      <trkpt lat="45.67295" lon="2.84765">
        <ele>1023.94</ele>
        <time>2021-08-14T18:43:02Z</time>
      </trkpt>
      <trkpt lat="45.67292" lon="2.84779">
        <ele>1024.9</ele>
        <time>2021-08-14T18:43:12Z</time>
      </trkpt>
      <trkpt lat="45.67287" lon="2.84793">
        <ele>1025.38</ele>
        <time>2021-08-14T18:43:23Z</time>
      </trkpt>
      <trkpt lat="45.67286" lon="2.84795">
        <ele>1025.86</ele>
        <time>2021-08-14T18:43:31Z</time>
      </trkpt>
      <trkpt lat="45.67286" lon="2.84797">
        <ele>1025.86</ele>
        <time>2021-08-14T18:43:41Z</time>
      </trkpt>
      <trkpt lat="45.67285" lon="2.84799">
        <ele>1025.86</ele>
        <time>2021-08-14T18:43:42Z</time>
      </trkpt>
      <trkpt lat="45.67285" lon="2.848">
        <ele>1025.86</ele>
        <time>2021-08-14T18:43:43Z</time>
      </trkpt>
      <trkpt lat="45.67284" lon="2.84802">
        <ele>1025.86</ele>
        <time>2021-08-14T18:43:44Z</time>
      </trkpt>
      <trkpt lat="45.67284" lon="2.84803">
        <ele>1025.86</ele>
        <time>2021-08-14T18:43:45Z</time>
      </trkpt>
      <trkpt lat="45.67281" lon="2.8482">
        <ele>1026.83</ele>
        <time>2021-08-14T18:43:55Z</time>
      </trkpt>
      <trkpt lat="45.67275" lon="2.84834">
        <ele>1027.79</ele>
        <time>2021-08-14T18:44:02Z</time>
      </trkpt>
      <trkpt lat="45.67269" lon="2.84853">
        <ele>1027.31</ele>
        <time>2021-08-14T18:44:10Z</time>
      </trkpt>
      <trkpt lat="45.67262" lon="2.84877">
        <ele>1027.31</ele>
        <time>2021-08-14T18:44:18Z</time>
      </trkpt>
      <trkpt lat="45.67254" lon="2.84904">
        <ele>1026.34</ele>
        <time>2021-08-14T18:44:27Z</time>
      </trkpt>
      <trkpt lat="45.67247" lon="2.84927">
        <ele>1026.34</ele>
        <time>2021-08-14T18:44:34Z</time>
      </trkpt>
      <trkpt lat="45.67234" lon="2.84957">
        <ele>1026.34</ele>
        <time>2021-08-14T18:44:44Z</time>
      </trkpt>
      <trkpt lat="45.67215" lon="2.84983">
        <ele>1026.34</ele>
        <time>2021-08-14T18:44:54Z</time>
      </trkpt>
      <trkpt lat="45.67196" lon="2.84994">
        <ele>1027.31</ele>
        <time>2021-08-14T18:45:02Z</time>
      </trkpt>
      <trkpt lat="45.67178" lon="2.84994">
        <ele>1027.31</ele>
        <time>2021-08-14T18:45:09Z</time>
      </trkpt>
      <trkpt lat="45.6716" lon="2.84995">
        <ele>1028.75</ele>
        <time>2021-08-14T18:45:18Z</time>
      </trkpt>
      <trkpt lat="45.6714" lon="2.84995">
        <ele>1030.67</ele>
        <time>2021-08-14T18:45:30Z</time>
      </trkpt>
      <trkpt lat="45.67127" lon="2.84995">
        <ele>1031.63</ele>
        <time>2021-08-14T18:45:39Z</time>
      </trkpt>
      <trkpt lat="45.67125" lon="2.84997">
        <ele>1032.11</ele>
        <time>2021-08-14T18:45:41Z</time>
      </trkpt>
      <trkpt lat="45.67124" lon="2.85">
        <ele>1032.59</ele>
        <time>2021-08-14T18:45:43Z</time>
      </trkpt>
      <trkpt lat="45.67127" lon="2.85004">
        <ele>1033.07</ele>
        <time>2021-08-14T18:45:46Z</time>
      </trkpt>
      <trkpt lat="45.67128" lon="2.85005">
        <ele>1033.07</ele>
        <time>2021-08-14T18:45:47Z</time>
      </trkpt>
      <trkpt lat="45.67129" lon="2.85007">
        <ele>1033.07</ele>
        <time>2021-08-14T18:45:48Z</time>
      </trkpt>
      <trkpt lat="45.6714" lon="2.85018">
        <ele>1033.55</ele>
        <time>2021-08-14T18:45:56Z</time>
      </trkpt>
      <trkpt lat="45.67147" lon="2.8503">
        <ele>1034.52</ele>
        <time>2021-08-14T18:46:02Z</time>
      </trkpt>
      <trkpt lat="45.6715" lon="2.85033">
        <ele>1035</ele>
        <time>2021-08-14T18:46:04Z</time>
      </trkpt>
      <trkpt lat="45.67155" lon="2.85036">
        <ele>1035.48</ele>
        <time>2021-08-14T18:46:07Z</time>
      </trkpt>
      <trkpt lat="45.67156" lon="2.85038">
        <ele>1035.48</ele>
        <time>2021-08-14T18:46:08Z</time>
      </trkpt>
      <trkpt lat="45.67157" lon="2.8504">
        <ele>1035.48</ele>
        <time>2021-08-14T18:46:09Z</time>
      </trkpt>
      <trkpt lat="45.67159" lon="2.85047">
        <ele>1035.48</ele>
        <time>2021-08-14T18:46:12Z</time>
      </trkpt>
      <trkpt lat="45.67161" lon="2.85049">
        <ele>1035.96</ele>
        <time>2021-08-14T18:46:14Z</time>
      </trkpt>
      <trkpt lat="45.67163" lon="2.85051">
        <ele>1035.96</ele>
        <time>2021-08-14T18:46:15Z</time>
      </trkpt>
      <trkpt lat="45.67164" lon="2.85053">
        <ele>1035.96</ele>
        <time>2021-08-14T18:46:16Z</time>
      </trkpt>
      <trkpt lat="45.67168" lon="2.85059">
        <ele>1035.96</ele>
        <time>2021-08-14T18:46:19Z</time>
      </trkpt>
      <trkpt lat="45.6717" lon="2.85063">
        <ele>1036.92</ele>
        <time>2021-08-14T18:46:21Z</time>
      </trkpt>
      <trkpt lat="45.67172" lon="2.85065">
        <ele>1036.92</ele>
        <time>2021-08-14T18:46:22Z</time>
      </trkpt>
      <trkpt lat="45.67187" lon="2.85089">
        <ele>1037.4</ele>
        <time>2021-08-14T18:46:33Z</time>
      </trkpt>
      <trkpt lat="45.67192" lon="2.85102">
        <ele>1037.4</ele>
        <time>2021-08-14T18:46:39Z</time>
      </trkpt>
      <trkpt lat="45.67193" lon="2.85111">
        <ele>1037.4</ele>
        <time>2021-08-14T18:46:42Z</time>
      </trkpt>
      <trkpt lat="45.67184" lon="2.8512">
        <ele>1037.88</ele>
        <time>2021-08-14T18:46:48Z</time>
      </trkpt>
      <trkpt lat="45.6717" lon="2.85118">
        <ele>1038.36</ele>
        <time>2021-08-14T18:46:55Z</time>
      </trkpt>
      <trkpt lat="45.67147" lon="2.85108">
        <ele>1038.84</ele>
        <time>2021-08-14T18:47:04Z</time>
      </trkpt>
      <trkpt lat="45.6713" lon="2.85104">
        <ele>1039.32</ele>
        <time>2021-08-14T18:47:11Z</time>
      </trkpt>
      <trkpt lat="45.67126" lon="2.85103">
        <ele>1039.32</ele>
        <time>2021-08-14T18:47:13Z</time>
      </trkpt>
      <trkpt lat="45.671" lon="2.85094">
        <ele>1039.8</ele>
        <time>2021-08-14T18:47:24Z</time>
      </trkpt>
      <trkpt lat="45.67076" lon="2.85088">
        <ele>1040.28</ele>
        <time>2021-08-14T18:47:34Z</time>
      </trkpt>
      <trkpt lat="45.67052" lon="2.85078">
        <ele>1041.25</ele>
        <time>2021-08-14T18:47:45Z</time>
      </trkpt>
      <trkpt lat="45.67036" lon="2.85072">
        <ele>1042.21</ele>
        <time>2021-08-14T18:47:53Z</time>
      </trkpt>
      <trkpt lat="45.67016" lon="2.85064">
        <ele>1043.65</ele>
        <time>2021-08-14T18:48:03Z</time>
      </trkpt>
      <trkpt lat="45.66997" lon="2.85055">
        <ele>1044.61</ele>
        <time>2021-08-14T18:48:14Z</time>
      </trkpt>
      <trkpt lat="45.6698" lon="2.85052">
        <ele>1045.57</ele>
        <time>2021-08-14T18:48:24Z</time>
      </trkpt>
      <trkpt lat="45.66963" lon="2.85044">
        <ele>1047.01</ele>
        <time>2021-08-14T18:48:35Z</time>
      </trkpt>
      <trkpt lat="45.66946" lon="2.85035">
        <ele>1047.49</ele>
        <time>2021-08-14T18:48:45Z</time>
      </trkpt>
      <trkpt lat="45.66931" lon="2.85028">
        <ele>1048.94</ele>
        <time>2021-08-14T18:48:54Z</time>
      </trkpt>
      <trkpt lat="45.66918" lon="2.8502">
        <ele>1049.9</ele>
        <time>2021-08-14T18:49:03Z</time>
      </trkpt>
      <trkpt lat="45.66902" lon="2.85012">
        <ele>1051.82</ele>
        <time>2021-08-14T18:49:15Z</time>
      </trkpt>
      <trkpt lat="45.6689" lon="2.85008">
        <ele>1052.78</ele>
        <time>2021-08-14T18:49:24Z</time>
      </trkpt>
      <trkpt lat="45.66875" lon="2.85002">
        <ele>1054.7</ele>
        <time>2021-08-14T18:49:35Z</time>
      </trkpt>
      <trkpt lat="45.66858" lon="2.84994">
        <ele>1056.63</ele>
        <time>2021-08-14T18:49:49Z</time>
      </trkpt>
      <trkpt lat="45.66849" lon="2.84991">
        <ele>1057.59</ele>
        <time>2021-08-14T18:49:56Z</time>
      </trkpt>
      <trkpt lat="45.66836" lon="2.84986">
        <ele>1059.03</ele>
        <time>2021-08-14T18:50:05Z</time>
      </trkpt>
      <trkpt lat="45.66824" lon="2.8498">
        <ele>1059.99</ele>
        <time>2021-08-14T18:50:15Z</time>
      </trkpt>
      <trkpt lat="45.66808" lon="2.84973">
        <ele>1061.43</ele>
        <time>2021-08-14T18:50:27Z</time>
      </trkpt>
      <trkpt lat="45.66801" lon="2.8497">
        <ele>1061.43</ele>
        <time>2021-08-14T18:50:33Z</time>
      </trkpt>
      <trkpt lat="45.66799" lon="2.8497">
        <ele>1061.91</ele>
        <time>2021-08-14T18:50:34Z</time>
      </trkpt>
      <trkpt lat="45.66798" lon="2.84969">
        <ele>1061.91</ele>
        <time>2021-08-14T18:50:35Z</time>
      </trkpt>
      <trkpt lat="45.66797" lon="2.84969">
        <ele>1061.91</ele>
        <time>2021-08-14T18:50:36Z</time>
      </trkpt>
      <trkpt lat="45.66795" lon="2.84968">
        <ele>1061.91</ele>
        <time>2021-08-14T18:50:37Z</time>
      </trkpt>
      <trkpt lat="45.6678" lon="2.84963">
        <ele>1063.36</ele>
        <time>2021-08-14T18:50:49Z</time>
      </trkpt>
      <trkpt lat="45.66773" lon="2.8496">
        <ele>1063.84</ele>
        <time>2021-08-14T18:50:54Z</time>
      </trkpt>
      <trkpt lat="45.66772" lon="2.8496">
        <ele>1063.84</ele>
        <time>2021-08-14T18:50:55Z</time>
      </trkpt>
      <trkpt lat="45.66763" lon="2.84957">
        <ele>1064.8</ele>
        <time>2021-08-14T18:51:03Z</time>
      </trkpt>
      <trkpt lat="45.6675" lon="2.84953">
        <ele>1066.24</ele>
        <time>2021-08-14T18:51:11Z</time>
      </trkpt>
      <trkpt lat="45.66737" lon="2.84948">
        <ele>1067.2</ele>
        <time>2021-08-14T18:51:20Z</time>
      </trkpt>
      <trkpt lat="45.66721" lon="2.84942">
        <ele>1068.64</ele>
        <time>2021-08-14T18:51:31Z</time>
      </trkpt>
      <trkpt lat="45.66709" lon="2.84937">
        <ele>1070.08</ele>
        <time>2021-08-14T18:51:40Z</time>
      </trkpt>
      <trkpt lat="45.66694" lon="2.84932">
        <ele>1072.01</ele>
        <time>2021-08-14T18:51:50Z</time>
      </trkpt>
      <trkpt lat="45.66679" lon="2.84925">
        <ele>1072.97</ele>
        <time>2021-08-14T18:52:01Z</time>
      </trkpt>
      <trkpt lat="45.66667" lon="2.84921">
        <ele>1073.93</ele>
        <time>2021-08-14T18:52:09Z</time>
      </trkpt>
      <trkpt lat="45.66655" lon="2.84917">
        <ele>1074.89</ele>
        <time>2021-08-14T18:52:18Z</time>
      </trkpt>
      <trkpt lat="45.66645" lon="2.84914">
        <ele>1075.37</ele>
        <time>2021-08-14T18:52:25Z</time>
      </trkpt>
      <trkpt lat="45.66631" lon="2.8491">
        <ele>1076.33</ele>
        <time>2021-08-14T18:52:34Z</time>
      </trkpt>
      <trkpt lat="45.66614" lon="2.84906">
        <ele>1077.29</ele>
        <time>2021-08-14T18:52:45Z</time>
      </trkpt>
      <trkpt lat="45.666" lon="2.849">
        <ele>1077.78</ele>
        <time>2021-08-14T18:52:54Z</time>
      </trkpt>
      <trkpt lat="45.66588" lon="2.84895">
        <ele>1078.26</ele>
        <time>2021-08-14T18:53:01Z</time>
      </trkpt>
      <trkpt lat="45.66575" lon="2.84888">
        <ele>1078.74</ele>
        <time>2021-08-14T18:53:10Z</time>
      </trkpt>
      <trkpt lat="45.6656" lon="2.84878">
        <ele>1080.18</ele>
        <time>2021-08-14T18:53:19Z</time>
      </trkpt>
      <trkpt lat="45.66547" lon="2.84871">
        <ele>1081.14</ele>
        <time>2021-08-14T18:53:27Z</time>
      </trkpt>
      <trkpt lat="45.66545" lon="2.8487">
        <ele>1081.14</ele>
        <time>2021-08-14T18:53:28Z</time>
      </trkpt>
      <trkpt lat="45.6653" lon="2.84862">
        <ele>1081.62</ele>
        <time>2021-08-14T18:53:37Z</time>
      </trkpt>
      <trkpt lat="45.66514" lon="2.84855">
        <ele>1082.58</ele>
        <time>2021-08-14T18:53:46Z</time>
      </trkpt>
      <trkpt lat="45.66496" lon="2.84846">
        <ele>1083.54</ele>
        <time>2021-08-14T18:53:56Z</time>
      </trkpt>
      <trkpt lat="45.66483" lon="2.84836">
        <ele>1084.5</ele>
        <time>2021-08-14T18:54:05Z</time>
      </trkpt>
      <trkpt lat="45.66469" lon="2.84827">
        <ele>1084.99</ele>
        <time>2021-08-14T18:54:13Z</time>
      </trkpt>
      <trkpt lat="45.66458" lon="2.84818">
        <ele>1086.43</ele>
        <time>2021-08-14T18:54:20Z</time>
      </trkpt>
      <trkpt lat="45.6645" lon="2.84812">
        <ele>1086.91</ele>
        <time>2021-08-14T18:54:25Z</time>
      </trkpt>
      <trkpt lat="45.66448" lon="2.84811">
        <ele>1086.91</ele>
        <time>2021-08-14T18:54:26Z</time>
      </trkpt>
      <trkpt lat="45.66446" lon="2.8481">
        <ele>1087.39</ele>
        <time>2021-08-14T18:54:27Z</time>
      </trkpt>
      <trkpt lat="45.66445" lon="2.84808">
        <ele>1087.39</ele>
        <time>2021-08-14T18:54:28Z</time>
      </trkpt>
      <trkpt lat="45.66443" lon="2.84807">
        <ele>1087.39</ele>
        <time>2021-08-14T18:54:29Z</time>
      </trkpt>
      <trkpt lat="45.66427" lon="2.84795">
        <ele>1088.35</ele>
        <time>2021-08-14T18:54:39Z</time>
      </trkpt>
      <trkpt lat="45.66413" lon="2.84784">
        <ele>1089.31</ele>
        <time>2021-08-14T18:54:48Z</time>
      </trkpt>
      <trkpt lat="45.66405" lon="2.84779">
        <ele>1089.79</ele>
        <time>2021-08-14T18:54:53Z</time>
      </trkpt>
      <trkpt lat="45.66403" lon="2.84779">
        <ele>1090.27</ele>
        <time>2021-08-14T18:54:54Z</time>
      </trkpt>
      <trkpt lat="45.66401" lon="2.84778">
        <ele>1090.27</ele>
        <time>2021-08-14T18:54:55Z</time>
      </trkpt>
      <trkpt lat="45.664" lon="2.84777">
        <ele>1090.27</ele>
        <time>2021-08-14T18:54:56Z</time>
      </trkpt>
      <trkpt lat="45.66399" lon="2.84776">
        <ele>1090.27</ele>
        <time>2021-08-14T18:54:57Z</time>
      </trkpt>
      <trkpt lat="45.66397" lon="2.84776">
        <ele>1090.27</ele>
        <time>2021-08-14T18:54:58Z</time>
      </trkpt>
      <trkpt lat="45.66383" lon="2.84769">
        <ele>1091.23</ele>
        <time>2021-08-14T18:55:07Z</time>
      </trkpt>
      <trkpt lat="45.66361" lon="2.84756">
        <ele>1091.71</ele>
        <time>2021-08-14T18:55:18Z</time>
      </trkpt>
      <trkpt lat="45.66346" lon="2.84745">
        <ele>1092.2</ele>
        <time>2021-08-14T18:55:25Z</time>
      </trkpt>
      <trkpt lat="45.6633" lon="2.84731">
        <ele>1090.75</ele>
        <time>2021-08-14T18:55:31Z</time>
      </trkpt>
      <trkpt lat="45.66323" lon="2.84724">
        <ele>1089.79</ele>
        <time>2021-08-14T18:55:33Z</time>
      </trkpt>
      <trkpt lat="45.66318" lon="2.84722">
        <ele>1088.83</ele>
        <time>2021-08-14T18:55:34Z</time>
      </trkpt>
      <trkpt lat="45.66313" lon="2.84722">
        <ele>1088.35</ele>
        <time>2021-08-14T18:55:35Z</time>
      </trkpt>
      <trkpt lat="45.66307" lon="2.84724">
        <ele>1087.87</ele>
        <time>2021-08-14T18:55:36Z</time>
      </trkpt>
      <trkpt lat="45.66304" lon="2.84726">
        <ele>1087.87</ele>
        <time>2021-08-14T18:55:37Z</time>
      </trkpt>
      <trkpt lat="45.663" lon="2.84729">
        <ele>1087.87</ele>
        <time>2021-08-14T18:55:38Z</time>
      </trkpt>
      <trkpt lat="45.66294" lon="2.84735">
        <ele>1089.31</ele>
        <time>2021-08-14T18:55:40Z</time>
      </trkpt>
      <trkpt lat="45.6627" lon="2.84755">
        <ele>1090.75</ele>
        <time>2021-08-14T18:55:49Z</time>
      </trkpt>
      <trkpt lat="45.66253" lon="2.84764">
        <ele>1091.71</ele>
        <time>2021-08-14T18:55:56Z</time>
      </trkpt>
      <trkpt lat="45.66237" lon="2.84767">
        <ele>1092.2</ele>
        <time>2021-08-14T18:56:02Z</time>
      </trkpt>
      <trkpt lat="45.66216" lon="2.84773">
        <ele>1093.16</ele>
        <time>2021-08-14T18:56:11Z</time>
      </trkpt>
      <trkpt lat="45.66204" lon="2.84782">
        <ele>1094.6</ele>
        <time>2021-08-14T18:56:19Z</time>
      </trkpt>
      <trkpt lat="45.66201" lon="2.84798">
        <ele>1095.56</ele>
        <time>2021-08-14T18:56:26Z</time>
      </trkpt>
      <trkpt lat="45.66202" lon="2.84821">
        <ele>1096.52</ele>
        <time>2021-08-14T18:56:35Z</time>
      </trkpt>
      <trkpt lat="45.66201" lon="2.84851">
        <ele>1097</ele>
        <time>2021-08-14T18:56:44Z</time>
      </trkpt>
      <trkpt lat="45.66195" lon="2.84885">
        <ele>1097</ele>
        <time>2021-08-14T18:56:53Z</time>
      </trkpt>
      <trkpt lat="45.66181" lon="2.84896">
        <ele>1097.48</ele>
        <time>2021-08-14T18:56:59Z</time>
      </trkpt>
      <trkpt lat="45.66166" lon="2.84907">
        <ele>1097.96</ele>
        <time>2021-08-14T18:57:07Z</time>
      </trkpt>
      <trkpt lat="45.6615" lon="2.84918">
        <ele>1098.92</ele>
        <time>2021-08-14T18:57:16Z</time>
      </trkpt>
      <trkpt lat="45.6614" lon="2.84923">
        <ele>1099.4</ele>
        <time>2021-08-14T18:57:22Z</time>
      </trkpt>
      <trkpt lat="45.66125" lon="2.84931">
        <ele>1100.85</ele>
        <time>2021-08-14T18:57:30Z</time>
      </trkpt>
      <trkpt lat="45.66123" lon="2.84932">
        <ele>1100.85</ele>
        <time>2021-08-14T18:57:31Z</time>
      </trkpt>
      <trkpt lat="45.661" lon="2.84941">
        <ele>1101.81</ele>
        <time>2021-08-14T18:57:41Z</time>
      </trkpt>
      <trkpt lat="45.66087" lon="2.84946">
        <ele>1102.77</ele>
        <time>2021-08-14T18:57:48Z</time>
      </trkpt>
      <trkpt lat="45.66074" lon="2.84954">
        <ele>1103.73</ele>
        <time>2021-08-14T18:57:56Z</time>
      </trkpt>
      <trkpt lat="45.66062" lon="2.84961">
        <ele>1104.69</ele>
        <time>2021-08-14T18:58:04Z</time>
      </trkpt>
      <trkpt lat="45.6605" lon="2.84961">
        <ele>1105.65</ele>
        <time>2021-08-14T18:58:11Z</time>
      </trkpt>
      <trkpt lat="45.66041" lon="2.84963">
        <ele>1106.61</ele>
        <time>2021-08-14T18:58:19Z</time>
      </trkpt>
      <trkpt lat="45.66032" lon="2.84965">
        <ele>1107.1</ele>
        <time>2021-08-14T18:58:27Z</time>
      </trkpt>
      <trkpt lat="45.66025" lon="2.84968">
        <ele>1108.06</ele>
        <time>2021-08-14T18:58:33Z</time>
      </trkpt>
      <trkpt lat="45.66016" lon="2.84972">
        <ele>1108.54</ele>
        <time>2021-08-14T18:58:39Z</time>
      </trkpt>
      <trkpt lat="45.66014" lon="2.84974">
        <ele>1108.54</ele>
        <time>2021-08-14T18:58:41Z</time>
      </trkpt>
      <trkpt lat="45.66003" lon="2.84978">
        <ele>1109.5</ele>
        <time>2021-08-14T18:58:49Z</time>
      </trkpt>
      <trkpt lat="45.65992" lon="2.84983">
        <ele>1110.94</ele>
        <time>2021-08-14T18:58:58Z</time>
      </trkpt>
      <trkpt lat="45.65989" lon="2.84983">
        <ele>1110.94</ele>
        <time>2021-08-14T18:59:00Z</time>
      </trkpt>
      <trkpt lat="45.65978" lon="2.84988">
        <ele>1110.94</ele>
        <time>2021-08-14T18:59:07Z</time>
      </trkpt>
      <trkpt lat="45.65971" lon="2.84989">
        <ele>1111.42</ele>
        <time>2021-08-14T18:59:11Z</time>
      </trkpt>
      <trkpt lat="45.65969" lon="2.8499">
        <ele>1111.42</ele>
        <time>2021-08-14T18:59:12Z</time>
      </trkpt>
      <trkpt lat="45.65959" lon="2.84993">
        <ele>1112.38</ele>
        <time>2021-08-14T18:59:19Z</time>
      </trkpt>
      <trkpt lat="45.65944" lon="2.84995">
        <ele>1112.86</ele>
        <time>2021-08-14T18:59:28Z</time>
      </trkpt>
      <trkpt lat="45.65929" lon="2.84998">
        <ele>1114.31</ele>
        <time>2021-08-14T18:59:38Z</time>
      </trkpt>
      <trkpt lat="45.65924" lon="2.84998">
        <ele>1114.79</ele>
        <time>2021-08-14T18:59:42Z</time>
      </trkpt>
      <trkpt lat="45.65923" lon="2.84999">
        <ele>1115.27</ele>
        <time>2021-08-14T18:59:43Z</time>
      </trkpt>
      <trkpt lat="45.65912" lon="2.85003">
        <ele>1116.23</ele>
        <time>2021-08-14T18:59:51Z</time>
      </trkpt>
      <trkpt lat="45.65911" lon="2.85003">
        <ele>1116.71</ele>
        <time>2021-08-14T18:59:52Z</time>
      </trkpt>
      <trkpt lat="45.65899" lon="2.8501">
        <ele>1117.67</ele>
        <time>2021-08-14T19:00:01Z</time>
      </trkpt>
      <trkpt lat="45.65887" lon="2.85015">
        <ele>1119.11</ele>
        <time>2021-08-14T19:00:09Z</time>
      </trkpt>
      <trkpt lat="45.65876" lon="2.85022">
        <ele>1120.07</ele>
        <time>2021-08-14T19:00:18Z</time>
      </trkpt>
      <trkpt lat="45.65868" lon="2.85025">
        <ele>1121.03</ele>
        <time>2021-08-14T19:00:24Z</time>
      </trkpt>
      <trkpt lat="45.65854" lon="2.85032">
        <ele>1121.52</ele>
        <time>2021-08-14T19:00:33Z</time>
      </trkpt>
      <trkpt lat="45.65838" lon="2.85036">
        <ele>1122.96</ele>
        <time>2021-08-14T19:00:42Z</time>
      </trkpt>
      <trkpt lat="45.65829" lon="2.85041">
        <ele>1123.92</ele>
        <time>2021-08-14T19:00:50Z</time>
      </trkpt>
      <trkpt lat="45.65822" lon="2.85048">
        <ele>1124.4</ele>
        <time>2021-08-14T19:00:57Z</time>
      </trkpt>
      <trkpt lat="45.65821" lon="2.85049">
        <ele>1124.4</ele>
        <time>2021-08-14T19:00:58Z</time>
      </trkpt>
      <trkpt lat="45.65811" lon="2.85055">
        <ele>1125.36</ele>
        <time>2021-08-14T19:01:06Z</time>
      </trkpt>
      <trkpt lat="45.65797" lon="2.85062">
        <ele>1126.32</ele>
        <time>2021-08-14T19:01:15Z</time>
      </trkpt>
      <trkpt lat="45.6579" lon="2.85067">
        <ele>1127.28</ele>
        <time>2021-08-14T19:01:21Z</time>
      </trkpt>
      <trkpt lat="45.65783" lon="2.85071">
        <ele>1127.76</ele>
        <time>2021-08-14T19:01:28Z</time>
      </trkpt>
      <trkpt lat="45.6578" lon="2.85072">
        <ele>1128.24</ele>
        <time>2021-08-14T19:01:30Z</time>
      </trkpt>
      <trkpt lat="45.65775" lon="2.85075">
        <ele>1128.73</ele>
        <time>2021-08-14T19:01:37Z</time>
      </trkpt>
      <trkpt lat="45.65766" lon="2.8508">
        <ele>1129.69</ele>
        <time>2021-08-14T19:01:47Z</time>
      </trkpt>
      <trkpt lat="45.65759" lon="2.85085">
        <ele>1130.65</ele>
        <time>2021-08-14T19:01:55Z</time>
      </trkpt>
      <trkpt lat="45.65752" lon="2.85089">
        <ele>1131.61</ele>
        <time>2021-08-14T19:02:03Z</time>
      </trkpt>
      <trkpt lat="45.65746" lon="2.85094">
        <ele>1132.57</ele>
        <time>2021-08-14T19:02:11Z</time>
      </trkpt>
      <trkpt lat="45.65741" lon="2.85102">
        <ele>1133.05</ele>
        <time>2021-08-14T19:02:20Z</time>
      </trkpt>
      <trkpt lat="45.65736" lon="2.8511">
        <ele>1134.01</ele>
        <time>2021-08-14T19:02:28Z</time>
      </trkpt>
      <trkpt lat="45.65732" lon="2.85113">
        <ele>1134.49</ele>
        <time>2021-08-14T19:02:36Z</time>
      </trkpt>
      <trkpt lat="45.65724" lon="2.85123">
        <ele>1134.97</ele>
        <time>2021-08-14T19:02:44Z</time>
      </trkpt>
      <trkpt lat="45.6572" lon="2.85127">
        <ele>1135.45</ele>
        <time>2021-08-14T19:02:48Z</time>
      </trkpt>
      <trkpt lat="45.65719" lon="2.85128">
        <ele>1135.45</ele>
        <time>2021-08-14T19:02:49Z</time>
      </trkpt>
      <trkpt lat="45.65718" lon="2.85129">
        <ele>1135.45</ele>
        <time>2021-08-14T19:02:50Z</time>
      </trkpt>
      <trkpt lat="45.6571" lon="2.85135">
        <ele>1135.94</ele>
        <time>2021-08-14T19:02:56Z</time>
      </trkpt>
      <trkpt lat="45.65709" lon="2.85136">
        <ele>1135.94</ele>
        <time>2021-08-14T19:02:57Z</time>
      </trkpt>
      <trkpt lat="45.65707" lon="2.85136">
        <ele>1135.94</ele>
        <time>2021-08-14T19:02:58Z</time>
      </trkpt>
      <trkpt lat="45.65706" lon="2.85138">
        <ele>1136.42</ele>
        <time>2021-08-14T19:02:59Z</time>
      </trkpt>
      <trkpt lat="45.65705" lon="2.85139">
        <ele>1136.42</ele>
        <time>2021-08-14T19:03:00Z</time>
      </trkpt>
      <trkpt lat="45.65704" lon="2.8514">
        <ele>1136.42</ele>
        <time>2021-08-14T19:03:01Z</time>
      </trkpt>
      <trkpt lat="45.65703" lon="2.85142">
        <ele>1136.42</ele>
        <time>2021-08-14T19:03:02Z</time>
      </trkpt>
      <trkpt lat="45.65702" lon="2.85143">
        <ele>1136.42</ele>
        <time>2021-08-14T19:03:03Z</time>
      </trkpt>
      <trkpt lat="45.65701" lon="2.85144">
        <ele>1136.42</ele>
        <time>2021-08-14T19:03:04Z</time>
      </trkpt>
      <trkpt lat="45.657" lon="2.85145">
        <ele>1136.42</ele>
        <time>2021-08-14T19:03:05Z</time>
      </trkpt>
      <trkpt lat="45.65693" lon="2.85154">
        <ele>1137.38</ele>
        <time>2021-08-14T19:03:12Z</time>
      </trkpt>
      <trkpt lat="45.65688" lon="2.85165">
        <ele>1138.34</ele>
        <time>2021-08-14T19:03:21Z</time>
      </trkpt>
      <trkpt lat="45.6568" lon="2.85176">
        <ele>1139.3</ele>
        <time>2021-08-14T19:03:29Z</time>
      </trkpt>
      <trkpt lat="45.65675" lon="2.85189">
        <ele>1139.3</ele>
        <time>2021-08-14T19:03:37Z</time>
      </trkpt>
      <trkpt lat="45.65668" lon="2.85203">
        <ele>1139.78</ele>
        <time>2021-08-14T19:03:44Z</time>
      </trkpt>
      <trkpt lat="45.65655" lon="2.85222">
        <ele>1140.74</ele>
        <time>2021-08-14T19:03:53Z</time>
      </trkpt>
      <trkpt lat="45.65654" lon="2.85224">
        <ele>1140.74</ele>
        <time>2021-08-14T19:03:54Z</time>
      </trkpt>
      <trkpt lat="45.65652" lon="2.85226">
        <ele>1140.74</ele>
        <time>2021-08-14T19:03:55Z</time>
      </trkpt>
      <trkpt lat="45.65651" lon="2.85227">
        <ele>1140.74</ele>
        <time>2021-08-14T19:03:56Z</time>
      </trkpt>
      <trkpt lat="45.6565" lon="2.85229">
        <ele>1141.22</ele>
        <time>2021-08-14T19:03:57Z</time>
      </trkpt>
      <trkpt lat="45.65648" lon="2.85231">
        <ele>1141.22</ele>
        <time>2021-08-14T19:03:58Z</time>
      </trkpt>
      <trkpt lat="45.65647" lon="2.85232">
        <ele>1141.22</ele>
        <time>2021-08-14T19:03:59Z</time>
      </trkpt>
      <trkpt lat="45.65645" lon="2.85234">
        <ele>1141.7</ele>
        <time>2021-08-14T19:04:00Z</time>
      </trkpt>
      <trkpt lat="45.65644" lon="2.85235">
        <ele>1141.7</ele>
        <time>2021-08-14T19:04:01Z</time>
      </trkpt>
      <trkpt lat="45.65643" lon="2.85237">
        <ele>1142.18</ele>
        <time>2021-08-14T19:04:02Z</time>
      </trkpt>
      <trkpt lat="45.65641" lon="2.85238">
        <ele>1142.18</ele>
        <time>2021-08-14T19:04:03Z</time>
      </trkpt>
      <trkpt lat="45.6564" lon="2.8524">
        <ele>1142.18</ele>
        <time>2021-08-14T19:04:04Z</time>
      </trkpt>
      <trkpt lat="45.65639" lon="2.85242">
        <ele>1142.18</ele>
        <time>2021-08-14T19:04:05Z</time>
      </trkpt>
      <trkpt lat="45.65638" lon="2.85244">
        <ele>1142.18</ele>
        <time>2021-08-14T19:04:06Z</time>
      </trkpt>
      <trkpt lat="45.65625" lon="2.8526">
        <ele>1143.63</ele>
        <time>2021-08-14T19:04:16Z</time>
      </trkpt>
      <trkpt lat="45.65617" lon="2.85266">
        <ele>1144.11</ele>
        <time>2021-08-14T19:04:21Z</time>
      </trkpt>
      <trkpt lat="45.65616" lon="2.85267">
        <ele>1144.11</ele>
        <time>2021-08-14T19:04:22Z</time>
      </trkpt>
      <trkpt lat="45.65607" lon="2.85278">
        <ele>1145.07</ele>
        <time>2021-08-14T19:04:30Z</time>
      </trkpt>
      <trkpt lat="45.656" lon="2.85285">
        <ele>1146.03</ele>
        <time>2021-08-14T19:04:36Z</time>
      </trkpt>
      <trkpt lat="45.6559" lon="2.85296">
        <ele>1146.99</ele>
        <time>2021-08-14T19:04:44Z</time>
      </trkpt>
      <trkpt lat="45.65584" lon="2.85302">
        <ele>1147.95</ele>
        <time>2021-08-14T19:04:51Z</time>
      </trkpt>
      <trkpt lat="45.65575" lon="2.85311">
        <ele>1149.39</ele>
        <time>2021-08-14T19:04:59Z</time>
      </trkpt>
      <trkpt lat="45.65567" lon="2.8532">
        <ele>1150.84</ele>
        <time>2021-08-14T19:05:06Z</time>
      </trkpt>
      <trkpt lat="45.65566" lon="2.85322">
        <ele>1150.84</ele>
        <time>2021-08-14T19:05:07Z</time>
      </trkpt>
      <trkpt lat="45.65565" lon="2.85324">
        <ele>1150.84</ele>
        <time>2021-08-14T19:05:08Z</time>
      </trkpt>
      <trkpt lat="45.65565" lon="2.85326">
        <ele>1150.84</ele>
        <time>2021-08-14T19:05:09Z</time>
      </trkpt>
      <trkpt lat="45.65564" lon="2.85328">
        <ele>1150.84</ele>
        <time>2021-08-14T19:05:10Z</time>
      </trkpt>
      <trkpt lat="45.65563" lon="2.8533">
        <ele>1150.84</ele>
        <time>2021-08-14T19:05:11Z</time>
      </trkpt>
      <trkpt lat="45.65562" lon="2.85331">
        <ele>1150.84</ele>
        <time>2021-08-14T19:05:12Z</time>
      </trkpt>
      <trkpt lat="45.65561" lon="2.85333">
        <ele>1151.32</ele>
        <time>2021-08-14T19:05:13Z</time>
      </trkpt>
      <trkpt lat="45.65559" lon="2.85337">
        <ele>1151.32</ele>
        <time>2021-08-14T19:05:16Z</time>
      </trkpt>
      <trkpt lat="45.65557" lon="2.85339">
        <ele>1151.8</ele>
        <time>2021-08-14T19:05:18Z</time>
      </trkpt>
      <trkpt lat="45.65556" lon="2.85341">
        <ele>1151.8</ele>
        <time>2021-08-14T19:05:19Z</time>
      </trkpt>
      <trkpt lat="45.65549" lon="2.85349">
        <ele>1153.24</ele>
        <time>2021-08-14T19:05:27Z</time>
      </trkpt>
      <trkpt lat="45.65547" lon="2.85353">
        <ele>1154.2</ele>
        <time>2021-08-14T19:05:30Z</time>
      </trkpt>
      <trkpt lat="45.65545" lon="2.85355">
        <ele>1154.2</ele>
        <time>2021-08-14T19:05:32Z</time>
      </trkpt>
      <trkpt lat="45.65544" lon="2.85356">
        <ele>1154.68</ele>
        <time>2021-08-14T19:05:33Z</time>
      </trkpt>
      <trkpt lat="45.65543" lon="2.85357">
        <ele>1154.68</ele>
        <time>2021-08-14T19:05:34Z</time>
      </trkpt>
      <trkpt lat="45.65541" lon="2.85358">
        <ele>1154.68</ele>
        <time>2021-08-14T19:05:35Z</time>
      </trkpt>
      <trkpt lat="45.6554" lon="2.85359">
        <ele>1155.16</ele>
        <time>2021-08-14T19:05:36Z</time>
      </trkpt>
      <trkpt lat="45.65537" lon="2.85362">
        <ele>1155.16</ele>
        <time>2021-08-14T19:05:43Z</time>
      </trkpt>
      <trkpt lat="45.65535" lon="2.85366">
        <ele>1156.12</ele>
        <time>2021-08-14T19:05:52Z</time>
      </trkpt>
      <trkpt lat="45.65531" lon="2.85369">
        <ele>1156.6</ele>
        <time>2021-08-14T19:05:58Z</time>
      </trkpt>
      <trkpt lat="45.65528" lon="2.85375">
        <ele>1157.56</ele>
        <time>2021-08-14T19:06:06Z</time>
      </trkpt>
      <trkpt lat="45.65522" lon="2.85381">
        <ele>1158.53</ele>
        <time>2021-08-14T19:06:14Z</time>
      </trkpt>
      <trkpt lat="45.65515" lon="2.85387">
        <ele>1159.49</ele>
        <time>2021-08-14T19:06:23Z</time>
      </trkpt>
      <trkpt lat="45.65504" lon="2.85393">
        <ele>1160.45</ele>
        <time>2021-08-14T19:06:33Z</time>
      </trkpt>
      <trkpt lat="45.65496" lon="2.85398">
        <ele>1161.41</ele>
        <time>2021-08-14T19:06:40Z</time>
      </trkpt>
      <trkpt lat="45.65486" lon="2.85399">
        <ele>1162.37</ele>
        <time>2021-08-14T19:06:49Z</time>
      </trkpt>
      <trkpt lat="45.65473" lon="2.85401">
        <ele>1163.81</ele>
        <time>2021-08-14T19:07:00Z</time>
      </trkpt>
      <trkpt lat="45.65465" lon="2.85405">
        <ele>1164.29</ele>
        <time>2021-08-14T19:07:09Z</time>
      </trkpt>
      <trkpt lat="45.65463" lon="2.85405">
        <ele>1164.29</ele>
        <time>2021-08-14T19:07:10Z</time>
      </trkpt>
      <trkpt lat="45.65451" lon="2.85413">
        <ele>1165.74</ele>
        <time>2021-08-14T19:07:20Z</time>
      </trkpt>
      <trkpt lat="45.65443" lon="2.85415">
        <ele>1166.22</ele>
        <time>2021-08-14T19:07:30Z</time>
      </trkpt>
      <trkpt lat="45.65437" lon="2.85412">
        <ele>1166.22</ele>
        <time>2021-08-14T19:07:41Z</time>
      </trkpt>
      <trkpt lat="45.65436" lon="2.85412">
        <ele>1166.22</ele>
        <time>2021-08-14T19:07:42Z</time>
      </trkpt>
      <trkpt lat="45.65428" lon="2.85403">
        <ele>1167.66</ele>
        <time>2021-08-14T19:07:50Z</time>
      </trkpt>
      <trkpt lat="45.65424" lon="2.85399">
        <ele>1168.14</ele>
        <time>2021-08-14T19:07:54Z</time>
      </trkpt>
      <trkpt lat="45.65415" lon="2.85397">
        <ele>1169.1</ele>
        <time>2021-08-14T19:08:01Z</time>
      </trkpt>
      <trkpt lat="45.65413" lon="2.85397">
        <ele>1169.1</ele>
        <time>2021-08-14T19:08:02Z</time>
      </trkpt>
      <trkpt lat="45.65412" lon="2.85397">
        <ele>1169.1</ele>
        <time>2021-08-14T19:08:03Z</time>
      </trkpt>
      <trkpt lat="45.65411" lon="2.85397">
        <ele>1169.1</ele>
        <time>2021-08-14T19:08:04Z</time>
      </trkpt>
      <trkpt lat="45.65409" lon="2.85396">
        <ele>1169.58</ele>
        <time>2021-08-14T19:08:05Z</time>
      </trkpt>
      <trkpt lat="45.65396" lon="2.85395">
        <ele>1170.54</ele>
        <time>2021-08-14T19:08:14Z</time>
      </trkpt>
      <trkpt lat="45.65383" lon="2.85394">
        <ele>1171.5</ele>
        <time>2021-08-14T19:08:24Z</time>
      </trkpt>
      <trkpt lat="45.65378" lon="2.85393">
        <ele>1171.5</ele>
        <time>2021-08-14T19:08:28Z</time>
      </trkpt>
      <trkpt lat="45.65376" lon="2.85393">
        <ele>1171.98</ele>
        <time>2021-08-14T19:08:29Z</time>
      </trkpt>
      <trkpt lat="45.65375" lon="2.85393">
        <ele>1171.98</ele>
        <time>2021-08-14T19:08:30Z</time>
      </trkpt>
      <trkpt lat="45.65362" lon="2.85392">
        <ele>1172.47</ele>
        <time>2021-08-14T19:08:39Z</time>
      </trkpt>
      <trkpt lat="45.65349" lon="2.8539">
        <ele>1173.91</ele>
        <time>2021-08-14T19:08:49Z</time>
      </trkpt>
      <trkpt lat="45.65332" lon="2.85389">
        <ele>1175.35</ele>
        <time>2021-08-14T19:09:02Z</time>
      </trkpt>
      <trkpt lat="45.6532" lon="2.85386">
        <ele>1176.79</ele>
        <time>2021-08-14T19:09:12Z</time>
      </trkpt>
      <trkpt lat="45.65317" lon="2.85383">
        <ele>1176.79</ele>
        <time>2021-08-14T19:09:15Z</time>
      </trkpt>
      <trkpt lat="45.65316" lon="2.85381">
        <ele>1177.27</ele>
        <time>2021-08-14T19:09:16Z</time>
      </trkpt>
      <trkpt lat="45.65316" lon="2.85379">
        <ele>1177.27</ele>
        <time>2021-08-14T19:09:17Z</time>
      </trkpt>
      <trkpt lat="45.65315" lon="2.85378">
        <ele>1177.27</ele>
        <time>2021-08-14T19:09:18Z</time>
      </trkpt>
      <trkpt lat="45.65314" lon="2.85376">
        <ele>1177.27</ele>
        <time>2021-08-14T19:09:19Z</time>
      </trkpt>
      <trkpt lat="45.65313" lon="2.85374">
        <ele>1177.27</ele>
        <time>2021-08-14T19:09:20Z</time>
      </trkpt>
      <trkpt lat="45.65313" lon="2.85372">
        <ele>1177.27</ele>
        <time>2021-08-14T19:09:21Z</time>
      </trkpt>
      <trkpt lat="45.65313" lon="2.85371">
        <ele>1177.27</ele>
        <time>2021-08-14T19:09:22Z</time>
      </trkpt>
      <trkpt lat="45.65313" lon="2.85369">
        <ele>1177.27</ele>
        <time>2021-08-14T19:09:23Z</time>
      </trkpt>
      <trkpt lat="45.65312" lon="2.85368">
        <ele>1177.27</ele>
        <time>2021-08-14T19:09:24Z</time>
      </trkpt>
      <trkpt lat="45.65312" lon="2.85366">
        <ele>1177.27</ele>
        <time>2021-08-14T19:09:25Z</time>
      </trkpt>
      <trkpt lat="45.65311" lon="2.85364">
        <ele>1177.75</ele>
        <time>2021-08-14T19:09:26Z</time>
      </trkpt>
      <trkpt lat="45.6531" lon="2.85362">
        <ele>1177.75</ele>
        <time>2021-08-14T19:09:27Z</time>
      </trkpt>
      <trkpt lat="45.65309" lon="2.8536">
        <ele>1177.75</ele>
        <time>2021-08-14T19:09:28Z</time>
      </trkpt>
      <trkpt lat="45.65304" lon="2.85346">
        <ele>1177.75</ele>
        <time>2021-08-14T19:09:34Z</time>
      </trkpt>
      <trkpt lat="45.65296" lon="2.85329">
        <ele>1178.71</ele>
        <time>2021-08-14T19:09:41Z</time>
      </trkpt>
      <trkpt lat="45.65287" lon="2.85309">
        <ele>1179.19</ele>
        <time>2021-08-14T19:09:49Z</time>
      </trkpt>
      <trkpt lat="45.65283" lon="2.85299">
        <ele>1179.67</ele>
        <time>2021-08-14T19:09:53Z</time>
      </trkpt>
      <trkpt lat="45.65267" lon="2.85278">
        <ele>1180.64</ele>
        <time>2021-08-14T19:10:04Z</time>
      </trkpt>
      <trkpt lat="45.65249" lon="2.85261">
        <ele>1181.12</ele>
        <time>2021-08-14T19:10:15Z</time>
      </trkpt>
      <trkpt lat="45.65233" lon="2.85249">
        <ele>1182.08</ele>
        <time>2021-08-14T19:10:25Z</time>
      </trkpt>
      <trkpt lat="45.65214" lon="2.85243">
        <ele>1182.56</ele>
        <time>2021-08-14T19:10:36Z</time>
      </trkpt>
      <trkpt lat="45.65198" lon="2.85239">
        <ele>1183.04</ele>
        <time>2021-08-14T19:10:45Z</time>
      </trkpt>
      <trkpt lat="45.65176" lon="2.85234">
        <ele>1183.52</ele>
        <time>2021-08-14T19:10:54Z</time>
      </trkpt>
      <trkpt lat="45.65166" lon="2.85232">
        <ele>1183.52</ele>
        <time>2021-08-14T19:10:58Z</time>
      </trkpt>
      <trkpt lat="45.65146" lon="2.8523">
        <ele>1184</ele>
        <time>2021-08-14T19:11:06Z</time>
      </trkpt>
      <trkpt lat="45.6513" lon="2.85226">
        <ele>1184</ele>
        <time>2021-08-14T19:11:13Z</time>
      </trkpt>
      <trkpt lat="45.65112" lon="2.85223">
        <ele>1184.48</ele>
        <time>2021-08-14T19:11:21Z</time>
      </trkpt>
      <trkpt lat="45.65085" lon="2.8522">
        <ele>1184.48</ele>
        <time>2021-08-14T19:11:30Z</time>
      </trkpt>
      <trkpt lat="45.65074" lon="2.85218">
        <ele>1183.52</ele>
        <time>2021-08-14T19:11:33Z</time>
      </trkpt>
      <trkpt lat="45.6503" lon="2.85211">
        <ele>1182.56</ele>
        <time>2021-08-14T19:11:43Z</time>
      </trkpt>
      <trkpt lat="45.64994" lon="2.85206">
        <ele>1182.56</ele>
        <time>2021-08-14T19:11:52Z</time>
      </trkpt>
      <trkpt lat="45.64968" lon="2.85213">
        <ele>1182.56</ele>
        <time>2021-08-14T19:11:59Z</time>
      </trkpt>
      <trkpt lat="45.64948" lon="2.85222">
        <ele>1182.56</ele>
        <time>2021-08-14T19:12:07Z</time>
      </trkpt>
      <trkpt lat="45.64933" lon="2.85233">
        <ele>1184.96</ele>
        <time>2021-08-14T19:12:16Z</time>
      </trkpt>
      <trkpt lat="45.64918" lon="2.85243">
        <ele>1185.92</ele>
        <time>2021-08-14T19:12:25Z</time>
      </trkpt>
      <trkpt lat="45.64901" lon="2.85253">
        <ele>1186.4</ele>
        <time>2021-08-14T19:12:35Z</time>
      </trkpt>
      <trkpt lat="45.64889" lon="2.85261">
        <ele>1187.37</ele>
        <time>2021-08-14T19:12:43Z</time>
      </trkpt>
      <trkpt lat="45.64877" lon="2.85269">
        <ele>1188.81</ele>
        <time>2021-08-14T19:12:51Z</time>
      </trkpt>
      <trkpt lat="45.64863" lon="2.85278">
        <ele>1190.25</ele>
        <time>2021-08-14T19:13:00Z</time>
      </trkpt>
      <trkpt lat="45.64852" lon="2.85285">
        <ele>1191.21</ele>
        <time>2021-08-14T19:13:08Z</time>
      </trkpt>
      <trkpt lat="45.64842" lon="2.85292">
        <ele>1192.17</ele>
        <time>2021-08-14T19:13:16Z</time>
      </trkpt>
      <trkpt lat="45.64841" lon="2.85293">
        <ele>1192.17</ele>
        <time>2021-08-14T19:13:17Z</time>
      </trkpt>
      <trkpt lat="45.6484" lon="2.85294">
        <ele>1192.17</ele>
        <time>2021-08-14T19:13:18Z</time>
      </trkpt>
      <trkpt lat="45.64826" lon="2.85302">
        <ele>1193.61</ele>
        <time>2021-08-14T19:13:27Z</time>
      </trkpt>
      <trkpt lat="45.64813" lon="2.85313">
        <ele>1195.06</ele>
        <time>2021-08-14T19:13:37Z</time>
      </trkpt>
      <trkpt lat="45.648" lon="2.85326">
        <ele>1196.02</ele>
        <time>2021-08-14T19:13:47Z</time>
      </trkpt>
      <trkpt lat="45.64791" lon="2.85341">
        <ele>1196.98</ele>
        <time>2021-08-14T19:13:56Z</time>
      </trkpt>
      <trkpt lat="45.64785" lon="2.85353">
        <ele>1197.94</ele>
        <time>2021-08-14T19:14:04Z</time>
      </trkpt>
      <trkpt lat="45.64784" lon="2.85355">
        <ele>1198.42</ele>
        <time>2021-08-14T19:14:05Z</time>
      </trkpt>
      <trkpt lat="45.64775" lon="2.85366">
        <ele>1198.9</ele>
        <time>2021-08-14T19:14:13Z</time>
      </trkpt>
      <trkpt lat="45.64766" lon="2.85375">
        <ele>1199.86</ele>
        <time>2021-08-14T19:14:21Z</time>
      </trkpt>
      <trkpt lat="45.64759" lon="2.8538">
        <ele>1200.34</ele>
        <time>2021-08-14T19:14:25Z</time>
      </trkpt>
      <trkpt lat="45.64758" lon="2.85382">
        <ele>1200.34</ele>
        <time>2021-08-14T19:14:26Z</time>
      </trkpt>
      <trkpt lat="45.64758" lon="2.85385">
        <ele>1200.34</ele>
        <time>2021-08-14T19:14:27Z</time>
      </trkpt>
      <trkpt lat="45.64757" lon="2.85387">
        <ele>1200.34</ele>
        <time>2021-08-14T19:14:28Z</time>
      </trkpt>
      <trkpt lat="45.64757" lon="2.85389">
        <ele>1200.82</ele>
        <time>2021-08-14T19:14:29Z</time>
      </trkpt>
      <trkpt lat="45.64756" lon="2.85391">
        <ele>1200.82</ele>
        <time>2021-08-14T19:14:30Z</time>
      </trkpt>
      <trkpt lat="45.64753" lon="2.85409">
        <ele>1201.3</ele>
        <time>2021-08-14T19:14:38Z</time>
      </trkpt>
      <trkpt lat="45.6475" lon="2.85428">
        <ele>1202.75</ele>
        <time>2021-08-14T19:14:47Z</time>
      </trkpt>
      <trkpt lat="45.64747" lon="2.85445">
        <ele>1203.71</ele>
        <time>2021-08-14T19:14:55Z</time>
      </trkpt>
      <trkpt lat="45.64748" lon="2.85461">
        <ele>1204.67</ele>
        <time>2021-08-14T19:15:02Z</time>
      </trkpt>
      <trkpt lat="45.64748" lon="2.85463">
        <ele>1204.67</ele>
        <time>2021-08-14T19:15:03Z</time>
      </trkpt>
      <trkpt lat="45.64748" lon="2.85466">
        <ele>1205.15</ele>
        <time>2021-08-14T19:15:04Z</time>
      </trkpt>
      <trkpt lat="45.64748" lon="2.85468">
        <ele>1205.15</ele>
        <time>2021-08-14T19:15:05Z</time>
      </trkpt>
      <trkpt lat="45.64748" lon="2.85471">
        <ele>1205.15</ele>
        <time>2021-08-14T19:15:06Z</time>
      </trkpt>
      <trkpt lat="45.64748" lon="2.85484">
        <ele>1206.11</ele>
        <time>2021-08-14T19:15:12Z</time>
      </trkpt>
      <trkpt lat="45.64748" lon="2.85486">
        <ele>1206.11</ele>
        <time>2021-08-14T19:15:13Z</time>
      </trkpt>
      <trkpt lat="45.64748" lon="2.85489">
        <ele>1206.11</ele>
        <time>2021-08-14T19:15:14Z</time>
      </trkpt>
      <trkpt lat="45.64748" lon="2.85492">
        <ele>1206.11</ele>
        <time>2021-08-14T19:15:15Z</time>
      </trkpt>
      <trkpt lat="45.64748" lon="2.85494">
        <ele>1206.11</ele>
        <time>2021-08-14T19:15:16Z</time>
      </trkpt>
      <trkpt lat="45.64748" lon="2.85497">
        <ele>1206.11</ele>
        <time>2021-08-14T19:15:17Z</time>
      </trkpt>
      <trkpt lat="45.64747" lon="2.8551">
        <ele>1206.11</ele>
        <time>2021-08-14T19:15:22Z</time>
      </trkpt>
      <trkpt lat="45.64748" lon="2.85528">
        <ele>1206.59</ele>
        <time>2021-08-14T19:15:30Z</time>
      </trkpt>
      <trkpt lat="45.64748" lon="2.8553">
        <ele>1206.59</ele>
        <time>2021-08-14T19:15:31Z</time>
      </trkpt>
      <trkpt lat="45.64748" lon="2.85532">
        <ele>1206.59</ele>
        <time>2021-08-14T19:15:32Z</time>
      </trkpt>
      <trkpt lat="45.64748" lon="2.85534">
        <ele>1206.59</ele>
        <time>2021-08-14T19:15:33Z</time>
      </trkpt>
      <trkpt lat="45.64749" lon="2.85536">
        <ele>1206.59</ele>
        <time>2021-08-14T19:15:34Z</time>
      </trkpt>
      <trkpt lat="45.64749" lon="2.85539">
        <ele>1206.59</ele>
        <time>2021-08-14T19:15:35Z</time>
      </trkpt>
      <trkpt lat="45.6475" lon="2.85541">
        <ele>1206.59</ele>
        <time>2021-08-14T19:15:36Z</time>
      </trkpt>
      <trkpt lat="45.64751" lon="2.85558">
        <ele>1206.59</ele>
        <time>2021-08-14T19:15:42Z</time>
      </trkpt>
      <trkpt lat="45.64755" lon="2.8558">
        <ele>1206.59</ele>
        <time>2021-08-14T19:15:50Z</time>
      </trkpt>
      <trkpt lat="45.64759" lon="2.856">
        <ele>1206.59</ele>
        <time>2021-08-14T19:15:56Z</time>
      </trkpt>
      <trkpt lat="45.64762" lon="2.85622">
        <ele>1206.59</ele>
        <time>2021-08-14T19:16:03Z</time>
      </trkpt>
      <trkpt lat="45.64767" lon="2.85653">
        <ele>1206.59</ele>
        <time>2021-08-14T19:16:11Z</time>
      </trkpt>
      <trkpt lat="45.64776" lon="2.85691">
        <ele>1206.59</ele>
        <time>2021-08-14T19:16:20Z</time>
      </trkpt>
      <trkpt lat="45.64781" lon="2.85717">
        <ele>1206.59</ele>
        <time>2021-08-14T19:16:27Z</time>
      </trkpt>
      <trkpt lat="45.64784" lon="2.8575">
        <ele>1207.07</ele>
        <time>2021-08-14T19:16:35Z</time>
      </trkpt>
      <trkpt lat="45.64789" lon="2.85779">
        <ele>1207.07</ele>
        <time>2021-08-14T19:16:42Z</time>
      </trkpt>
      <trkpt lat="45.64795" lon="2.85812">
        <ele>1207.07</ele>
        <time>2021-08-14T19:16:50Z</time>
      </trkpt>
      <trkpt lat="45.64796" lon="2.85848">
        <ele>1205.63</ele>
        <time>2021-08-14T19:16:59Z</time>
      </trkpt>
      <trkpt lat="45.64793" lon="2.85872">
        <ele>1205.15</ele>
        <time>2021-08-14T19:17:05Z</time>
      </trkpt>
      <trkpt lat="45.6479" lon="2.85898">
        <ele>1204.67</ele>
        <time>2021-08-14T19:17:11Z</time>
      </trkpt>
      <trkpt lat="45.64788" lon="2.85932">
        <ele>1204.19</ele>
        <time>2021-08-14T19:17:18Z</time>
      </trkpt>
      <trkpt lat="45.64781" lon="2.85971">
        <ele>1204.19</ele>
        <time>2021-08-14T19:17:26Z</time>
      </trkpt>
      <trkpt lat="45.64776" lon="2.86004">
        <ele>1204.19</ele>
        <time>2021-08-14T19:17:34Z</time>
      </trkpt>
      <trkpt lat="45.64775" lon="2.86008">
        <ele>1204.19</ele>
        <time>2021-08-14T19:17:40Z</time>
      </trkpt>
      <trkpt lat="45.64777" lon="2.86009">
        <ele>1204.19</ele>
        <time>2021-08-14T19:17:59Z</time>
      </trkpt>
      <trkpt lat="45.64779" lon="2.86009">
        <ele>1204.67</ele>
        <time>2021-08-14T19:18:20Z</time>
      </trkpt>
      <trkpt lat="45.64778" lon="2.86007">
        <ele>1204.67</ele>
        <time>2021-08-14T19:18:40Z</time>
      </trkpt>
      <trkpt lat="45.64778" lon="2.86013">
        <ele>1204.67</ele>
        <time>2021-08-14T19:18:48Z</time>
      </trkpt>
      <trkpt lat="45.64778" lon="2.86015">
        <ele>1204.67</ele>
        <time>2021-08-14T19:18:49Z</time>
      </trkpt>
      <trkpt lat="45.64777" lon="2.86017">
        <ele>1204.67</ele>
        <time>2021-08-14T19:18:50Z</time>
      </trkpt>
      <trkpt lat="45.64773" lon="2.86031">
        <ele>1204.67</ele>
        <time>2021-08-14T19:18:56Z</time>
      </trkpt>
      <trkpt lat="45.64769" lon="2.86047">
        <ele>1206.11</ele>
        <time>2021-08-14T19:19:01Z</time>
      </trkpt>
      <trkpt lat="45.64764" lon="2.86081">
        <ele>1206.59</ele>
        <time>2021-08-14T19:19:09Z</time>
      </trkpt>
      <trkpt lat="45.64756" lon="2.86127">
        <ele>1206.59</ele>
        <time>2021-08-14T19:19:19Z</time>
      </trkpt>
      <trkpt lat="45.6475" lon="2.86169">
        <ele>1207.07</ele>
        <time>2021-08-14T19:19:29Z</time>
      </trkpt>
      <trkpt lat="45.64742" lon="2.8621">
        <ele>1205.63</ele>
        <time>2021-08-14T19:19:38Z</time>
      </trkpt>
      <trkpt lat="45.64739" lon="2.86246">
        <ele>1204.19</ele>
        <time>2021-08-14T19:19:46Z</time>
      </trkpt>
      <trkpt lat="45.64737" lon="2.86261">
        <ele>1202.75</ele>
        <time>2021-08-14T19:19:50Z</time>
      </trkpt>
      <trkpt lat="45.64739" lon="2.8629">
        <ele>1201.3</ele>
        <time>2021-08-14T19:19:56Z</time>
      </trkpt>
      <trkpt lat="45.64739" lon="2.86334">
        <ele>1198.42</ele>
        <time>2021-08-14T19:20:02Z</time>
      </trkpt>
      <trkpt lat="45.64739" lon="2.8634">
        <ele>1197.46</ele>
        <time>2021-08-14T19:20:03Z</time>
      </trkpt>
      <trkpt lat="45.6474" lon="2.86347">
        <ele>1196.98</ele>
        <time>2021-08-14T19:20:04Z</time>
      </trkpt>
      <trkpt lat="45.64739" lon="2.86353">
        <ele>1196.98</ele>
        <time>2021-08-14T19:20:05Z</time>
      </trkpt>
      <trkpt lat="45.64734" lon="2.86391">
        <ele>1193.61</ele>
        <time>2021-08-14T19:20:10Z</time>
      </trkpt>
      <trkpt lat="45.64729" lon="2.86439">
        <ele>1190.25</ele>
        <time>2021-08-14T19:20:16Z</time>
      </trkpt>
      <trkpt lat="45.64726" lon="2.86498">
        <ele>1186.88</ele>
        <time>2021-08-14T19:20:22Z</time>
      </trkpt>
      <trkpt lat="45.64726" lon="2.86519">
        <ele>1186.4</ele>
        <time>2021-08-14T19:20:24Z</time>
      </trkpt>
      <trkpt lat="45.64727" lon="2.8656">
        <ele>1183.52</ele>
        <time>2021-08-14T19:20:28Z</time>
      </trkpt>
      <trkpt lat="45.64727" lon="2.86581">
        <ele>1182.56</ele>
        <time>2021-08-14T19:20:30Z</time>
      </trkpt>
      <trkpt lat="45.64729" lon="2.86614">
        <ele>1181.12</ele>
        <time>2021-08-14T19:20:34Z</time>
      </trkpt>
      <trkpt lat="45.64728" lon="2.86621">
        <ele>1181.12</ele>
        <time>2021-08-14T19:20:35Z</time>
      </trkpt>
      <trkpt lat="45.64716" lon="2.86682">
        <ele>1178.71</ele>
        <time>2021-08-14T19:20:43Z</time>
      </trkpt>
      <trkpt lat="45.64709" lon="2.86721">
        <ele>1178.23</ele>
        <time>2021-08-14T19:20:48Z</time>
      </trkpt>
      <trkpt lat="45.64708" lon="2.86745">
        <ele>1177.75</ele>
        <time>2021-08-14T19:20:51Z</time>
      </trkpt>
      <trkpt lat="45.64706" lon="2.86754">
        <ele>1177.75</ele>
        <time>2021-08-14T19:20:52Z</time>
      </trkpt>
      <trkpt lat="45.64704" lon="2.86761">
        <ele>1177.27</ele>
        <time>2021-08-14T19:20:53Z</time>
      </trkpt>
      <trkpt lat="45.647" lon="2.86774">
        <ele>1177.27</ele>
        <time>2021-08-14T19:20:55Z</time>
      </trkpt>
      <trkpt lat="45.64697" lon="2.86785">
        <ele>1176.79</ele>
        <time>2021-08-14T19:20:57Z</time>
      </trkpt>
      <trkpt lat="45.64686" lon="2.86834">
        <ele>1176.31</ele>
        <time>2021-08-14T19:21:05Z</time>
      </trkpt>
      <trkpt lat="45.64676" lon="2.86865">
        <ele>1176.31</ele>
        <time>2021-08-14T19:21:12Z</time>
      </trkpt>
      <trkpt lat="45.64661" lon="2.86894">
        <ele>1176.31</ele>
        <time>2021-08-14T19:21:20Z</time>
      </trkpt>
      <trkpt lat="45.64647" lon="2.86919">
        <ele>1176.31</ele>
        <time>2021-08-14T19:21:27Z</time>
      </trkpt>
      <trkpt lat="45.64633" lon="2.86943">
        <ele>1176.31</ele>
        <time>2021-08-14T19:21:34Z</time>
      </trkpt>
      <trkpt lat="45.64616" lon="2.86964">
        <ele>1177.27</ele>
        <time>2021-08-14T19:21:41Z</time>
      </trkpt>
      <trkpt lat="45.64604" lon="2.86978">
        <ele>1177.75</ele>
        <time>2021-08-14T19:21:48Z</time>
      </trkpt>
      <trkpt lat="45.64598" lon="2.86984">
        <ele>1177.75</ele>
        <time>2021-08-14T19:21:55Z</time>
      </trkpt>
      <trkpt lat="45.64584" lon="2.87002">
        <ele>1178.23</ele>
        <time>2021-08-14T19:22:03Z</time>
      </trkpt>
      <trkpt lat="45.64569" lon="2.87031">
        <ele>1178.23</ele>
        <time>2021-08-14T19:22:12Z</time>
      </trkpt>
      <trkpt lat="45.64567" lon="2.87056">
        <ele>1176.79</ele>
        <time>2021-08-14T19:22:18Z</time>
      </trkpt>
      <trkpt lat="45.64554" lon="2.87087">
        <ele>1175.35</ele>
        <time>2021-08-14T19:22:25Z</time>
      </trkpt>
      <trkpt lat="45.64553" lon="2.87092">
        <ele>1174.87</ele>
        <time>2021-08-14T19:22:26Z</time>
      </trkpt>
      <trkpt lat="45.64553" lon="2.87098">
        <ele>1174.87</ele>
        <time>2021-08-14T19:22:27Z</time>
      </trkpt>
      <trkpt lat="45.64552" lon="2.87103">
        <ele>1174.87</ele>
        <time>2021-08-14T19:22:28Z</time>
      </trkpt>
      <trkpt lat="45.64549" lon="2.87107">
        <ele>1174.39</ele>
        <time>2021-08-14T19:22:29Z</time>
      </trkpt>
      <trkpt lat="45.64546" lon="2.87109">
        <ele>1174.39</ele>
        <time>2021-08-14T19:22:30Z</time>
      </trkpt>
      <trkpt lat="45.64543" lon="2.8711">
        <ele>1174.39</ele>
        <time>2021-08-14T19:22:31Z</time>
      </trkpt>
      <trkpt lat="45.6454" lon="2.87111">
        <ele>1174.39</ele>
        <time>2021-08-14T19:22:32Z</time>
      </trkpt>
      <trkpt lat="45.64537" lon="2.87112">
        <ele>1174.39</ele>
        <time>2021-08-14T19:22:33Z</time>
      </trkpt>
      <trkpt lat="45.64534" lon="2.87114">
        <ele>1174.39</ele>
        <time>2021-08-14T19:22:34Z</time>
      </trkpt>
      <trkpt lat="45.64531" lon="2.87116">
        <ele>1173.91</ele>
        <time>2021-08-14T19:22:35Z</time>
      </trkpt>
      <trkpt lat="45.64529" lon="2.87119">
        <ele>1173.91</ele>
        <time>2021-08-14T19:22:36Z</time>
      </trkpt>
      <trkpt lat="45.64523" lon="2.87142">
        <ele>1172.95</ele>
        <time>2021-08-14T19:22:41Z</time>
      </trkpt>
      <trkpt lat="45.64523" lon="2.87148">
        <ele>1172.95</ele>
        <time>2021-08-14T19:22:42Z</time>
      </trkpt>
      <trkpt lat="45.64523" lon="2.87181">
        <ele>1171.02</ele>
        <time>2021-08-14T19:22:48Z</time>
      </trkpt>
      <trkpt lat="45.64522" lon="2.87191">
        <ele>1171.02</ele>
        <time>2021-08-14T19:22:53Z</time>
      </trkpt>
      <trkpt lat="45.6452" lon="2.87193">
        <ele>1171.02</ele>
        <time>2021-08-14T19:22:54Z</time>
      </trkpt>
      <trkpt lat="45.64508" lon="2.872">
        <ele>1170.54</ele>
        <time>2021-08-14T19:23:00Z</time>
      </trkpt>
      <trkpt lat="45.64505" lon="2.87206">
        <ele>1169.58</ele>
        <time>2021-08-14T19:23:02Z</time>
      </trkpt>
      <trkpt lat="45.64504" lon="2.87208">
        <ele>1169.58</ele>
        <time>2021-08-14T19:23:03Z</time>
      </trkpt>
      <trkpt lat="45.64499" lon="2.87228">
        <ele>1168.62</ele>
        <time>2021-08-14T19:23:10Z</time>
      </trkpt>
      <trkpt lat="45.64506" lon="2.87252">
        <ele>1166.7</ele>
        <time>2021-08-14T19:23:15Z</time>
      </trkpt>
      <trkpt lat="45.64513" lon="2.87279">
        <ele>1164.77</ele>
        <time>2021-08-14T19:23:21Z</time>
      </trkpt>
      <trkpt lat="45.64516" lon="2.87298">
        <ele>1163.81</ele>
        <time>2021-08-14T19:23:26Z</time>
      </trkpt>
      <trkpt lat="45.64519" lon="2.87324">
        <ele>1161.89</ele>
        <time>2021-08-14T19:23:32Z</time>
      </trkpt>
      <trkpt lat="45.64522" lon="2.87354">
        <ele>1159.97</ele>
        <time>2021-08-14T19:23:38Z</time>
      </trkpt>
      <trkpt lat="45.64526" lon="2.87387">
        <ele>1158.05</ele>
        <time>2021-08-14T19:23:44Z</time>
      </trkpt>
      <trkpt lat="45.64529" lon="2.8741">
        <ele>1156.6</ele>
        <time>2021-08-14T19:23:50Z</time>
      </trkpt>
      <trkpt lat="45.6453" lon="2.87425">
        <ele>1155.64</ele>
        <time>2021-08-14T19:23:54Z</time>
      </trkpt>
      <trkpt lat="45.6453" lon="2.87429">
        <ele>1154.68</ele>
        <time>2021-08-14T19:23:55Z</time>
      </trkpt>
      <trkpt lat="45.64529" lon="2.87434">
        <ele>1154.68</ele>
        <time>2021-08-14T19:23:56Z</time>
      </trkpt>
      <trkpt lat="45.6453" lon="2.87439">
        <ele>1154.68</ele>
        <time>2021-08-14T19:23:57Z</time>
      </trkpt>
      <trkpt lat="45.6453" lon="2.87444">
        <ele>1154.2</ele>
        <time>2021-08-14T19:23:58Z</time>
      </trkpt>
      <trkpt lat="45.6453" lon="2.87448">
        <ele>1154.2</ele>
        <time>2021-08-14T19:23:59Z</time>
      </trkpt>
      <trkpt lat="45.64529" lon="2.87453">
        <ele>1153.72</ele>
        <time>2021-08-14T19:24:00Z</time>
      </trkpt>
      <trkpt lat="45.64526" lon="2.87482">
        <ele>1150.84</ele>
        <time>2021-08-14T19:24:05Z</time>
      </trkpt>
      <trkpt lat="45.64525" lon="2.87518">
        <ele>1148.91</ele>
        <time>2021-08-14T19:24:11Z</time>
      </trkpt>
      <trkpt lat="45.64523" lon="2.87537">
        <ele>1147.47</ele>
        <time>2021-08-14T19:24:15Z</time>
      </trkpt>
      <trkpt lat="45.64524" lon="2.87569">
        <ele>1146.03</ele>
        <time>2021-08-14T19:24:22Z</time>
      </trkpt>
      <trkpt lat="45.64528" lon="2.87597">
        <ele>1144.59</ele>
        <time>2021-08-14T19:24:28Z</time>
      </trkpt>
      <trkpt lat="45.64521" lon="2.87623">
        <ele>1142.66</ele>
        <time>2021-08-14T19:24:33Z</time>
      </trkpt>
      <trkpt lat="45.6452" lon="2.8766">
        <ele>1140.26</ele>
        <time>2021-08-14T19:24:40Z</time>
      </trkpt>
      <trkpt lat="45.64523" lon="2.87684">
        <ele>1139.3</ele>
        <time>2021-08-14T19:24:45Z</time>
      </trkpt>
      <trkpt lat="45.64526" lon="2.87703">
        <ele>1137.86</ele>
        <time>2021-08-14T19:24:51Z</time>
      </trkpt>
      <trkpt lat="45.64535" lon="2.87742">
        <ele>1134.49</ele>
        <time>2021-08-14T19:24:59Z</time>
      </trkpt>
      <trkpt lat="45.64541" lon="2.87774">
        <ele>1133.05</ele>
        <time>2021-08-14T19:25:06Z</time>
      </trkpt>
      <trkpt lat="45.64547" lon="2.87803">
        <ele>1132.09</ele>
        <time>2021-08-14T19:25:12Z</time>
      </trkpt>
      <trkpt lat="45.64556" lon="2.87817">
        <ele>1130.65</ele>
        <time>2021-08-14T19:25:15Z</time>
      </trkpt>
      <trkpt lat="45.64571" lon="2.87837">
        <ele>1130.17</ele>
        <time>2021-08-14T19:25:20Z</time>
      </trkpt>
      <trkpt lat="45.6459" lon="2.87852">
        <ele>1130.17</ele>
        <time>2021-08-14T19:25:27Z</time>
      </trkpt>
      <trkpt lat="45.64611" lon="2.87866">
        <ele>1127.76</ele>
        <time>2021-08-14T19:25:33Z</time>
      </trkpt>
      <trkpt lat="45.64614" lon="2.87869">
        <ele>1128.24</ele>
        <time>2021-08-14T19:25:34Z</time>
      </trkpt>
      <trkpt lat="45.64631" lon="2.87885">
        <ele>1128.24</ele>
        <time>2021-08-14T19:25:40Z</time>
      </trkpt>
      <trkpt lat="45.64653" lon="2.8791">
        <ele>1128.24</ele>
        <time>2021-08-14T19:25:48Z</time>
      </trkpt>
      <trkpt lat="45.64663" lon="2.87919">
        <ele>1126.8</ele>
        <time>2021-08-14T19:25:51Z</time>
      </trkpt>
      <trkpt lat="45.64667" lon="2.87922">
        <ele>1126.8</ele>
        <time>2021-08-14T19:25:52Z</time>
      </trkpt>
      <trkpt lat="45.6467" lon="2.87924">
        <ele>1126.8</ele>
        <time>2021-08-14T19:25:53Z</time>
      </trkpt>
      <trkpt lat="45.64673" lon="2.87926">
        <ele>1126.32</ele>
        <time>2021-08-14T19:25:54Z</time>
      </trkpt>
      <trkpt lat="45.64676" lon="2.87929">
        <ele>1126.32</ele>
        <time>2021-08-14T19:25:55Z</time>
      </trkpt>
      <trkpt lat="45.64691" lon="2.87941">
        <ele>1123.92</ele>
        <time>2021-08-14T19:25:59Z</time>
      </trkpt>
      <trkpt lat="45.64696" lon="2.87947">
        <ele>1123.92</ele>
        <time>2021-08-14T19:26:00Z</time>
      </trkpt>
      <trkpt lat="45.64712" lon="2.87969">
        <ele>1123.92</ele>
        <time>2021-08-14T19:26:05Z</time>
      </trkpt>
      <trkpt lat="45.64726" lon="2.87989">
        <ele>1123.92</ele>
        <time>2021-08-14T19:26:11Z</time>
      </trkpt>
      <trkpt lat="45.64732" lon="2.87999">
        <ele>1123.44</ele>
        <time>2021-08-14T19:26:13Z</time>
      </trkpt>
      <trkpt lat="45.64754" lon="2.88031">
        <ele>1122.96</ele>
        <time>2021-08-14T19:26:20Z</time>
      </trkpt>
      <trkpt lat="45.64778" lon="2.88061">
        <ele>1121.52</ele>
        <time>2021-08-14T19:26:28Z</time>
      </trkpt>
      <trkpt lat="45.64782" lon="2.88066">
        <ele>1121.03</ele>
        <time>2021-08-14T19:26:30Z</time>
      </trkpt>
      <trkpt lat="45.64782" lon="2.88069">
        <ele>1121.03</ele>
        <time>2021-08-14T19:26:31Z</time>
      </trkpt>
      <trkpt lat="45.64782" lon="2.88071">
        <ele>1120.55</ele>
        <time>2021-08-14T19:26:32Z</time>
      </trkpt>
      <trkpt lat="45.64781" lon="2.88073">
        <ele>1120.55</ele>
        <time>2021-08-14T19:26:33Z</time>
      </trkpt>
      <trkpt lat="45.6478" lon="2.88074">
        <ele>1120.07</ele>
        <time>2021-08-14T19:26:34Z</time>
      </trkpt>
      <trkpt lat="45.64778" lon="2.88074">
        <ele>1119.11</ele>
        <time>2021-08-14T19:26:35Z</time>
      </trkpt>
      <trkpt lat="45.64771" lon="2.88076">
        <ele>1118.15</ele>
        <time>2021-08-14T19:26:39Z</time>
      </trkpt>
      <trkpt lat="45.6476" lon="2.88079">
        <ele>1115.27</ele>
        <time>2021-08-14T19:26:46Z</time>
      </trkpt>
      <trkpt lat="45.64752" lon="2.8808">
        <ele>1114.31</ele>
        <time>2021-08-14T19:26:50Z</time>
      </trkpt>
      <trkpt lat="45.64751" lon="2.88081">
        <ele>1113.82</ele>
        <time>2021-08-14T19:26:51Z</time>
      </trkpt>
      <trkpt lat="45.6475" lon="2.88082">
        <ele>1113.82</ele>
        <time>2021-08-14T19:26:52Z</time>
      </trkpt>
      <trkpt lat="45.64735" lon="2.88086">
        <ele>1112.86</ele>
        <time>2021-08-14T19:26:59Z</time>
      </trkpt>
      <trkpt lat="45.64719" lon="2.88091">
        <ele>1112.86</ele>
        <time>2021-08-14T19:27:05Z</time>
      </trkpt>
      <trkpt lat="45.64701" lon="2.88093">
        <ele>1112.86</ele>
        <time>2021-08-14T19:27:12Z</time>
      </trkpt>
      <trkpt lat="45.64684" lon="2.88091">
        <ele>1114.31</ele>
        <time>2021-08-14T19:27:20Z</time>
      </trkpt>
      <trkpt lat="45.64674" lon="2.88085">
        <ele>1115.75</ele>
        <time>2021-08-14T19:27:27Z</time>
      </trkpt>
      <trkpt lat="45.64668" lon="2.88082">
        <ele>1116.23</ele>
        <time>2021-08-14T19:27:32Z</time>
      </trkpt>
      <trkpt lat="45.6466" lon="2.88077">
        <ele>1116.23</ele>
        <time>2021-08-14T19:27:37Z</time>
      </trkpt>
      <trkpt lat="45.64658" lon="2.88076">
        <ele>1116.23</ele>
        <time>2021-08-14T19:27:38Z</time>
      </trkpt>
      <trkpt lat="45.64647" lon="2.88074">
        <ele>1116.71</ele>
        <time>2021-08-14T19:27:45Z</time>
      </trkpt>
      <trkpt lat="45.64635" lon="2.88073">
        <ele>1118.15</ele>
        <time>2021-08-14T19:27:53Z</time>
      </trkpt>
      <trkpt lat="45.64626" lon="2.88072">
        <ele>1119.11</ele>
        <time>2021-08-14T19:28:01Z</time>
      </trkpt>
      <trkpt lat="45.64616" lon="2.88075">
        <ele>1120.55</ele>
        <time>2021-08-14T19:28:09Z</time>
      </trkpt>
      <trkpt lat="45.64607" lon="2.88076">
        <ele>1121.52</ele>
        <time>2021-08-14T19:28:16Z</time>
      </trkpt>
      <trkpt lat="45.64598" lon="2.88079">
        <ele>1122.48</ele>
        <time>2021-08-14T19:28:23Z</time>
      </trkpt>
      <trkpt lat="45.64592" lon="2.8808">
        <ele>1123.44</ele>
        <time>2021-08-14T19:28:28Z</time>
      </trkpt>
      <trkpt lat="45.64589" lon="2.8808">
        <ele>1123.44</ele>
        <time>2021-08-14T19:28:30Z</time>
      </trkpt>
      <trkpt lat="45.64581" lon="2.88082">
        <ele>1124.4</ele>
        <time>2021-08-14T19:28:37Z</time>
      </trkpt>
      <trkpt lat="45.64571" lon="2.88087">
        <ele>1125.36</ele>
        <time>2021-08-14T19:28:45Z</time>
      </trkpt>
      <trkpt lat="45.64564" lon="2.8809">
        <ele>1125.84</ele>
        <time>2021-08-14T19:28:52Z</time>
      </trkpt>
      <trkpt lat="45.64558" lon="2.88094">
        <ele>1126.8</ele>
        <time>2021-08-14T19:28:59Z</time>
      </trkpt>
      <trkpt lat="45.64549" lon="2.881">
        <ele>1128.24</ele>
        <time>2021-08-14T19:29:08Z</time>
      </trkpt>
      <trkpt lat="45.64541" lon="2.88106">
        <ele>1129.69</ele>
        <time>2021-08-14T19:29:16Z</time>
      </trkpt>
      <trkpt lat="45.64532" lon="2.88111">
        <ele>1130.65</ele>
        <time>2021-08-14T19:29:25Z</time>
      </trkpt>
      <trkpt lat="45.64528" lon="2.88114">
        <ele>1131.13</ele>
        <time>2021-08-14T19:29:34Z</time>
      </trkpt>
      <trkpt lat="45.64525" lon="2.88115">
        <ele>1131.13</ele>
        <time>2021-08-14T19:29:40Z</time>
      </trkpt>
      <trkpt lat="45.64514" lon="2.88118">
        <ele>1132.09</ele>
        <time>2021-08-14T19:29:47Z</time>
      </trkpt>
      <trkpt lat="45.64502" lon="2.8812">
        <ele>1132.57</ele>
        <time>2021-08-14T19:29:53Z</time>
      </trkpt>
      <trkpt lat="45.64487" lon="2.88119">
        <ele>1133.05</ele>
        <time>2021-08-14T19:30:00Z</time>
      </trkpt>
      <trkpt lat="45.64472" lon="2.88125">
        <ele>1133.53</ele>
        <time>2021-08-14T19:30:08Z</time>
      </trkpt>
      <trkpt lat="45.6446" lon="2.88138">
        <ele>1134.01</ele>
        <time>2021-08-14T19:30:15Z</time>
      </trkpt>
      <trkpt lat="45.64454" lon="2.88143">
        <ele>1134.01</ele>
        <time>2021-08-14T19:30:18Z</time>
      </trkpt>
      <trkpt lat="45.64452" lon="2.88144">
        <ele>1134.49</ele>
        <time>2021-08-14T19:30:19Z</time>
      </trkpt>
      <trkpt lat="45.6445" lon="2.88147">
        <ele>1134.49</ele>
        <time>2021-08-14T19:30:20Z</time>
      </trkpt>
      <trkpt lat="45.64448" lon="2.88149">
        <ele>1134.49</ele>
        <time>2021-08-14T19:30:21Z</time>
      </trkpt>
      <trkpt lat="45.64446" lon="2.8815">
        <ele>1134.49</ele>
        <time>2021-08-14T19:30:22Z</time>
      </trkpt>
      <trkpt lat="45.6443" lon="2.88164">
        <ele>1135.45</ele>
        <time>2021-08-14T19:30:30Z</time>
      </trkpt>
      <trkpt lat="45.6442" lon="2.88172">
        <ele>1135.94</ele>
        <time>2021-08-14T19:30:36Z</time>
      </trkpt>
      <trkpt lat="45.64404" lon="2.88181">
        <ele>1136.42</ele>
        <time>2021-08-14T19:30:45Z</time>
      </trkpt>
      <trkpt lat="45.64402" lon="2.88181">
        <ele>1136.9</ele>
        <time>2021-08-14T19:30:46Z</time>
      </trkpt>
      <trkpt lat="45.64396" lon="2.88182">
        <ele>1137.38</ele>
        <time>2021-08-14T19:30:49Z</time>
      </trkpt>
      <trkpt lat="45.64395" lon="2.88183">
        <ele>1137.38</ele>
        <time>2021-08-14T19:30:50Z</time>
      </trkpt>
      <trkpt lat="45.64393" lon="2.88184">
        <ele>1137.38</ele>
        <time>2021-08-14T19:30:51Z</time>
      </trkpt>
      <trkpt lat="45.6438" lon="2.88188">
        <ele>1137.86</ele>
        <time>2021-08-14T19:30:58Z</time>
      </trkpt>
      <trkpt lat="45.64358" lon="2.88195">
        <ele>1139.78</ele>
        <time>2021-08-14T19:31:08Z</time>
      </trkpt>
      <trkpt lat="45.64341" lon="2.88197">
        <ele>1141.22</ele>
        <time>2021-08-14T19:31:18Z</time>
      </trkpt>
      <trkpt lat="45.64324" lon="2.88192">
        <ele>1142.66</ele>
        <time>2021-08-14T19:31:27Z</time>
      </trkpt>
      <trkpt lat="45.6432" lon="2.88192">
        <ele>1143.14</ele>
        <time>2021-08-14T19:31:30Z</time>
      </trkpt>
      <trkpt lat="45.64318" lon="2.88192">
        <ele>1143.14</ele>
        <time>2021-08-14T19:31:31Z</time>
      </trkpt>
      <trkpt lat="45.64316" lon="2.88192">
        <ele>1143.14</ele>
        <time>2021-08-14T19:31:32Z</time>
      </trkpt>
      <trkpt lat="45.64314" lon="2.88192">
        <ele>1143.63</ele>
        <time>2021-08-14T19:31:33Z</time>
      </trkpt>
      <trkpt lat="45.64313" lon="2.88191">
        <ele>1143.63</ele>
        <time>2021-08-14T19:31:34Z</time>
      </trkpt>
      <trkpt lat="45.64309" lon="2.88191">
        <ele>1143.63</ele>
        <time>2021-08-14T19:31:36Z</time>
      </trkpt>
      <trkpt lat="45.64307" lon="2.88191">
        <ele>1144.11</ele>
        <time>2021-08-14T19:31:37Z</time>
      </trkpt>
      <trkpt lat="45.64305" lon="2.8819">
        <ele>1144.11</ele>
        <time>2021-08-14T19:31:38Z</time>
      </trkpt>
      <trkpt lat="45.64304" lon="2.88189">
        <ele>1144.59</ele>
        <time>2021-08-14T19:31:39Z</time>
      </trkpt>
      <trkpt lat="45.64302" lon="2.88189">
        <ele>1144.59</ele>
        <time>2021-08-14T19:31:40Z</time>
      </trkpt>
      <trkpt lat="45.64301" lon="2.88188">
        <ele>1144.59</ele>
        <time>2021-08-14T19:31:41Z</time>
      </trkpt>
      <trkpt lat="45.64295" lon="2.88185">
        <ele>1145.07</ele>
        <time>2021-08-14T19:31:45Z</time>
      </trkpt>
      <trkpt lat="45.64283" lon="2.88181">
        <ele>1146.51</ele>
        <time>2021-08-14T19:31:55Z</time>
      </trkpt>
      <trkpt lat="45.64271" lon="2.88179">
        <ele>1147.47</ele>
        <time>2021-08-14T19:32:04Z</time>
      </trkpt>
      <trkpt lat="45.64266" lon="2.88178">
        <ele>1147.47</ele>
        <time>2021-08-14T19:32:08Z</time>
      </trkpt>
      <trkpt lat="45.64265" lon="2.88179">
        <ele>1147.47</ele>
        <time>2021-08-14T19:32:09Z</time>
      </trkpt>
      <trkpt lat="45.64264" lon="2.88179">
        <ele>1147.47</ele>
        <time>2021-08-14T19:32:10Z</time>
      </trkpt>
      <trkpt lat="45.64262" lon="2.88179">
        <ele>1147.95</ele>
        <time>2021-08-14T19:32:11Z</time>
      </trkpt>
      <trkpt lat="45.64261" lon="2.88179">
        <ele>1147.95</ele>
        <time>2021-08-14T19:32:12Z</time>
      </trkpt>
      <trkpt lat="45.6426" lon="2.88179">
        <ele>1147.95</ele>
        <time>2021-08-14T19:32:13Z</time>
      </trkpt>
      <trkpt lat="45.64259" lon="2.88179">
        <ele>1147.95</ele>
        <time>2021-08-14T19:32:14Z</time>
      </trkpt>
      <trkpt lat="45.64257" lon="2.8818">
        <ele>1147.95</ele>
        <time>2021-08-14T19:32:15Z</time>
      </trkpt>
      <trkpt lat="45.64256" lon="2.8818">
        <ele>1147.95</ele>
        <time>2021-08-14T19:32:16Z</time>
      </trkpt>
      <trkpt lat="45.64255" lon="2.8818">
        <ele>1147.95</ele>
        <time>2021-08-14T19:32:17Z</time>
      </trkpt>
      <trkpt lat="45.64253" lon="2.8818">
        <ele>1147.95</ele>
        <time>2021-08-14T19:32:18Z</time>
      </trkpt>
      <trkpt lat="45.64241" lon="2.88181">
        <ele>1148.91</ele>
        <time>2021-08-14T19:32:27Z</time>
      </trkpt>
      <trkpt lat="45.64228" lon="2.88184">
        <ele>1149.87</ele>
        <time>2021-08-14T19:32:36Z</time>
      </trkpt>
      <trkpt lat="45.64219" lon="2.88186">
        <ele>1150.35</ele>
        <time>2021-08-14T19:32:43Z</time>
      </trkpt>
      <trkpt lat="45.64209" lon="2.88189">
        <ele>1151.32</ele>
        <time>2021-08-14T19:32:50Z</time>
      </trkpt>
      <trkpt lat="45.64202" lon="2.88191">
        <ele>1151.8</ele>
        <time>2021-08-14T19:32:54Z</time>
      </trkpt>
      <trkpt lat="45.64201" lon="2.88192">
        <ele>1151.8</ele>
        <time>2021-08-14T19:32:55Z</time>
      </trkpt>
      <trkpt lat="45.642" lon="2.88194">
        <ele>1151.8</ele>
        <time>2021-08-14T19:32:56Z</time>
      </trkpt>
      <trkpt lat="45.64198" lon="2.88196">
        <ele>1152.28</ele>
        <time>2021-08-14T19:32:58Z</time>
      </trkpt>
      <trkpt lat="45.64197" lon="2.88196">
        <ele>1152.28</ele>
        <time>2021-08-14T19:32:59Z</time>
      </trkpt>
      <trkpt lat="45.64195" lon="2.88197">
        <ele>1152.28</ele>
        <time>2021-08-14T19:33:00Z</time>
      </trkpt>
      <trkpt lat="45.64194" lon="2.88197">
        <ele>1152.76</ele>
        <time>2021-08-14T19:33:01Z</time>
      </trkpt>
      <trkpt lat="45.64193" lon="2.88197">
        <ele>1152.76</ele>
        <time>2021-08-14T19:33:02Z</time>
      </trkpt>
      <trkpt lat="45.64191" lon="2.88196">
        <ele>1152.76</ele>
        <time>2021-08-14T19:33:03Z</time>
      </trkpt>
      <trkpt lat="45.6419" lon="2.88196">
        <ele>1152.76</ele>
        <time>2021-08-14T19:33:04Z</time>
      </trkpt>
      <trkpt lat="45.64188" lon="2.88196">
        <ele>1152.76</ele>
        <time>2021-08-14T19:33:05Z</time>
      </trkpt>
      <trkpt lat="45.64181" lon="2.88196">
        <ele>1153.72</ele>
        <time>2021-08-14T19:33:10Z</time>
      </trkpt>
      <trkpt lat="45.6418" lon="2.88196">
        <ele>1153.72</ele>
        <time>2021-08-14T19:33:11Z</time>
      </trkpt>
      <trkpt lat="45.64179" lon="2.88197">
        <ele>1153.72</ele>
        <time>2021-08-14T19:33:12Z</time>
      </trkpt>
      <trkpt lat="45.64177" lon="2.88197">
        <ele>1153.72</ele>
        <time>2021-08-14T19:33:13Z</time>
      </trkpt>
      <trkpt lat="45.64176" lon="2.88198">
        <ele>1153.72</ele>
        <time>2021-08-14T19:33:14Z</time>
      </trkpt>
      <trkpt lat="45.64166" lon="2.88199">
        <ele>1154.68</ele>
        <time>2021-08-14T19:33:23Z</time>
      </trkpt>
      <trkpt lat="45.64153" lon="2.88201">
        <ele>1155.64</ele>
        <time>2021-08-14T19:33:32Z</time>
      </trkpt>
      <trkpt lat="45.64138" lon="2.88205">
        <ele>1156.12</ele>
        <time>2021-08-14T19:33:41Z</time>
      </trkpt>
      <trkpt lat="45.64121" lon="2.8821">
        <ele>1157.08</ele>
        <time>2021-08-14T19:33:51Z</time>
      </trkpt>
      <trkpt lat="45.64106" lon="2.88215">
        <ele>1157.56</ele>
        <time>2021-08-14T19:33:58Z</time>
      </trkpt>
      <trkpt lat="45.6409" lon="2.88221">
        <ele>1158.05</ele>
        <time>2021-08-14T19:34:06Z</time>
      </trkpt>
      <trkpt lat="45.64077" lon="2.88224">
        <ele>1158.53</ele>
        <time>2021-08-14T19:34:13Z</time>
      </trkpt>
      <trkpt lat="45.64064" lon="2.88232">
        <ele>1159.49</ele>
        <time>2021-08-14T19:34:21Z</time>
      </trkpt>
      <trkpt lat="45.64048" lon="2.88249">
        <ele>1160.45</ele>
        <time>2021-08-14T19:34:31Z</time>
      </trkpt>
      <trkpt lat="45.64043" lon="2.88258">
        <ele>1160.45</ele>
        <time>2021-08-14T19:34:35Z</time>
      </trkpt>
      <trkpt lat="45.64029" lon="2.88288">
        <ele>1161.41</ele>
        <time>2021-08-14T19:34:44Z</time>
      </trkpt>
      <trkpt lat="45.64018" lon="2.88318">
        <ele>1161.89</ele>
        <time>2021-08-14T19:34:53Z</time>
      </trkpt>
      <trkpt lat="45.64017" lon="2.88322">
        <ele>1161.89</ele>
        <time>2021-08-14T19:34:59Z</time>
      </trkpt>
      <trkpt lat="45.64017" lon="2.88321">
        <ele>1161.89</ele>
        <time>2021-08-14T19:35:10Z</time>
      </trkpt>
      <trkpt lat="45.64017" lon="2.8832">
        <ele>1161.89</ele>
        <time>2021-08-14T19:35:28Z</time>
      </trkpt>
      <trkpt lat="45.64018" lon="2.88318">
        <ele>1161.89</ele>
        <time>2021-08-14T19:35:42Z</time>
      </trkpt>
      <trkpt lat="45.6402" lon="2.88319">
        <ele>1161.89</ele>
        <time>2021-08-14T19:35:49Z</time>
      </trkpt>
      <trkpt lat="45.64019" lon="2.88324">
        <ele>1161.89</ele>
        <time>2021-08-14T19:35:55Z</time>
      </trkpt>
      <trkpt lat="45.64011" lon="2.88348">
        <ele>1161.89</ele>
        <time>2021-08-14T19:36:03Z</time>
      </trkpt>
      <trkpt lat="45.64" lon="2.8838">
        <ele>1162.37</ele>
        <time>2021-08-14T19:36:12Z</time>
      </trkpt>
      <trkpt lat="45.63989" lon="2.8841">
        <ele>1162.85</ele>
        <time>2021-08-14T19:36:21Z</time>
      </trkpt>
      <trkpt lat="45.63977" lon="2.88442">
        <ele>1163.33</ele>
        <time>2021-08-14T19:36:30Z</time>
      </trkpt>
      <trkpt lat="45.63971" lon="2.88459">
        <ele>1163.81</ele>
        <time>2021-08-14T19:36:35Z</time>
      </trkpt>
      <trkpt lat="45.6397" lon="2.88463">
        <ele>1163.81</ele>
        <time>2021-08-14T19:36:36Z</time>
      </trkpt>
      <trkpt lat="45.63969" lon="2.88467">
        <ele>1163.81</ele>
        <time>2021-08-14T19:36:37Z</time>
      </trkpt>
      <trkpt lat="45.63968" lon="2.8847">
        <ele>1163.81</ele>
        <time>2021-08-14T19:36:38Z</time>
      </trkpt>
      <trkpt lat="45.63967" lon="2.88473">
        <ele>1163.81</ele>
        <time>2021-08-14T19:36:39Z</time>
      </trkpt>
      <trkpt lat="45.63965" lon="2.88477">
        <ele>1164.29</ele>
        <time>2021-08-14T19:36:40Z</time>
      </trkpt>
      <trkpt lat="45.63964" lon="2.8848">
        <ele>1164.29</ele>
        <time>2021-08-14T19:36:41Z</time>
      </trkpt>
      <trkpt lat="45.63953" lon="2.88507">
        <ele>1164.77</ele>
        <time>2021-08-14T19:36:49Z</time>
      </trkpt>
      <trkpt lat="45.63944" lon="2.88531">
        <ele>1165.26</ele>
        <time>2021-08-14T19:36:56Z</time>
      </trkpt>
      <trkpt lat="45.6394" lon="2.88554">
        <ele>1165.74</ele>
        <time>2021-08-14T19:37:02Z</time>
      </trkpt>
      <trkpt lat="45.63927" lon="2.88579">
        <ele>1166.22</ele>
        <time>2021-08-14T19:37:09Z</time>
      </trkpt>
      <trkpt lat="45.63915" lon="2.88607">
        <ele>1166.7</ele>
        <time>2021-08-14T19:37:17Z</time>
      </trkpt>
      <trkpt lat="45.63905" lon="2.88634">
        <ele>1167.18</ele>
        <time>2021-08-14T19:37:24Z</time>
      </trkpt>
      <trkpt lat="45.63889" lon="2.88662">
        <ele>1167.66</ele>
        <time>2021-08-14T19:37:32Z</time>
      </trkpt>
      <trkpt lat="45.63877" lon="2.88681">
        <ele>1167.66</ele>
        <time>2021-08-14T19:37:38Z</time>
      </trkpt>
      <trkpt lat="45.63859" lon="2.8872">
        <ele>1168.14</ele>
        <time>2021-08-14T19:37:48Z</time>
      </trkpt>
      <trkpt lat="45.63846" lon="2.88745">
        <ele>1168.62</ele>
        <time>2021-08-14T19:37:54Z</time>
      </trkpt>
      <trkpt lat="45.63826" lon="2.88773">
        <ele>1169.1</ele>
        <time>2021-08-14T19:38:02Z</time>
      </trkpt>
      <trkpt lat="45.63804" lon="2.88793">
        <ele>1169.1</ele>
        <time>2021-08-14T19:38:09Z</time>
      </trkpt>
      <trkpt lat="45.63791" lon="2.88807">
        <ele>1169.1</ele>
        <time>2021-08-14T19:38:13Z</time>
      </trkpt>
      <trkpt lat="45.63785" lon="2.88816">
        <ele>1169.1</ele>
        <time>2021-08-14T19:38:15Z</time>
      </trkpt>
      <trkpt lat="45.63782" lon="2.8882">
        <ele>1169.1</ele>
        <time>2021-08-14T19:38:16Z</time>
      </trkpt>
      <trkpt lat="45.63767" lon="2.88837">
        <ele>1169.1</ele>
        <time>2021-08-14T19:38:22Z</time>
      </trkpt>
      <trkpt lat="45.63746" lon="2.88862">
        <ele>1169.1</ele>
        <time>2021-08-14T19:38:30Z</time>
      </trkpt>
      <trkpt lat="45.63734" lon="2.88877">
        <ele>1169.58</ele>
        <time>2021-08-14T19:38:36Z</time>
      </trkpt>
      <trkpt lat="45.63722" lon="2.8889">
        <ele>1169.58</ele>
        <time>2021-08-14T19:38:43Z</time>
      </trkpt>
      <trkpt lat="45.63708" lon="2.88909">
        <ele>1170.54</ele>
        <time>2021-08-14T19:38:51Z</time>
      </trkpt>
      <trkpt lat="45.63696" lon="2.88928">
        <ele>1171.02</ele>
        <time>2021-08-14T19:38:58Z</time>
      </trkpt>
      <trkpt lat="45.63688" lon="2.88932">
        <ele>1171.5</ele>
        <time>2021-08-14T19:39:02Z</time>
      </trkpt>
      <trkpt lat="45.63686" lon="2.88933">
        <ele>1171.5</ele>
        <time>2021-08-14T19:39:03Z</time>
      </trkpt>
      <trkpt lat="45.63684" lon="2.88935">
        <ele>1171.5</ele>
        <time>2021-08-14T19:39:04Z</time>
      </trkpt>
      <trkpt lat="45.63683" lon="2.88937">
        <ele>1171.98</ele>
        <time>2021-08-14T19:39:05Z</time>
      </trkpt>
      <trkpt lat="45.63682" lon="2.88939">
        <ele>1171.98</ele>
        <time>2021-08-14T19:39:06Z</time>
      </trkpt>
      <trkpt lat="45.6368" lon="2.88942">
        <ele>1171.98</ele>
        <time>2021-08-14T19:39:07Z</time>
      </trkpt>
      <trkpt lat="45.63679" lon="2.88944">
        <ele>1171.98</ele>
        <time>2021-08-14T19:39:08Z</time>
      </trkpt>
      <trkpt lat="45.63677" lon="2.88946">
        <ele>1171.98</ele>
        <time>2021-08-14T19:39:09Z</time>
      </trkpt>
      <trkpt lat="45.63676" lon="2.88947">
        <ele>1172.47</ele>
        <time>2021-08-14T19:39:10Z</time>
      </trkpt>
      <trkpt lat="45.63675" lon="2.88949">
        <ele>1172.47</ele>
        <time>2021-08-14T19:39:11Z</time>
      </trkpt>
      <trkpt lat="45.63674" lon="2.8895">
        <ele>1172.47</ele>
        <time>2021-08-14T19:39:12Z</time>
      </trkpt>
      <trkpt lat="45.63672" lon="2.88952">
        <ele>1172.47</ele>
        <time>2021-08-14T19:39:13Z</time>
      </trkpt>
      <trkpt lat="45.63671" lon="2.88952">
        <ele>1172.95</ele>
        <time>2021-08-14T19:39:14Z</time>
      </trkpt>
      <trkpt lat="45.63669" lon="2.88952">
        <ele>1172.95</ele>
        <time>2021-08-14T19:39:15Z</time>
      </trkpt>
      <trkpt lat="45.63667" lon="2.88951">
        <ele>1172.95</ele>
        <time>2021-08-14T19:39:16Z</time>
      </trkpt>
      <trkpt lat="45.63666" lon="2.8895">
        <ele>1173.43</ele>
        <time>2021-08-14T19:39:17Z</time>
      </trkpt>
      <trkpt lat="45.63665" lon="2.88949">
        <ele>1173.43</ele>
        <time>2021-08-14T19:39:18Z</time>
      </trkpt>
      <trkpt lat="45.63663" lon="2.88948">
        <ele>1173.43</ele>
        <time>2021-08-14T19:39:19Z</time>
      </trkpt>
      <trkpt lat="45.63648" lon="2.88946">
        <ele>1174.39</ele>
        <time>2021-08-14T19:39:27Z</time>
      </trkpt>
      <trkpt lat="45.63637" lon="2.88946">
        <ele>1175.35</ele>
        <time>2021-08-14T19:39:35Z</time>
      </trkpt>
      <trkpt lat="45.63636" lon="2.88945">
        <ele>1175.35</ele>
        <time>2021-08-14T19:39:36Z</time>
      </trkpt>
      <trkpt lat="45.63635" lon="2.88943">
        <ele>1175.35</ele>
        <time>2021-08-14T19:39:37Z</time>
      </trkpt>
      <trkpt lat="45.63634" lon="2.88941">
        <ele>1175.83</ele>
        <time>2021-08-14T19:39:38Z</time>
      </trkpt>
      <trkpt lat="45.63633" lon="2.88939">
        <ele>1175.83</ele>
        <time>2021-08-14T19:39:39Z</time>
      </trkpt>
      <trkpt lat="45.63633" lon="2.88937">
        <ele>1175.83</ele>
        <time>2021-08-14T19:39:40Z</time>
      </trkpt>
      <trkpt lat="45.63632" lon="2.88935">
        <ele>1175.83</ele>
        <time>2021-08-14T19:39:41Z</time>
      </trkpt>
      <trkpt lat="45.63632" lon="2.88933">
        <ele>1176.31</ele>
        <time>2021-08-14T19:39:42Z</time>
      </trkpt>
      <trkpt lat="45.63624" lon="2.88915">
        <ele>1176.79</ele>
        <time>2021-08-14T19:39:51Z</time>
      </trkpt>
      <trkpt lat="45.63621" lon="2.88912">
        <ele>1176.79</ele>
        <time>2021-08-14T19:39:53Z</time>
      </trkpt>
      <trkpt lat="45.6362" lon="2.88912">
        <ele>1176.79</ele>
        <time>2021-08-14T19:39:54Z</time>
      </trkpt>
      <trkpt lat="45.63618" lon="2.88912">
        <ele>1177.27</ele>
        <time>2021-08-14T19:39:55Z</time>
      </trkpt>
      <trkpt lat="45.63617" lon="2.88911">
        <ele>1177.27</ele>
        <time>2021-08-14T19:39:56Z</time>
      </trkpt>
      <trkpt lat="45.63615" lon="2.88911">
        <ele>1177.27</ele>
        <time>2021-08-14T19:39:57Z</time>
      </trkpt>
      <trkpt lat="45.63602" lon="2.88908">
        <ele>1178.23</ele>
        <time>2021-08-14T19:40:05Z</time>
      </trkpt>
      <trkpt lat="45.63588" lon="2.88904">
        <ele>1179.19</ele>
        <time>2021-08-14T19:40:13Z</time>
      </trkpt>
      <trkpt lat="45.63587" lon="2.88903">
        <ele>1179.19</ele>
        <time>2021-08-14T19:40:14Z</time>
      </trkpt>
      <trkpt lat="45.63571" lon="2.88892">
        <ele>1180.64</ele>
        <time>2021-08-14T19:40:24Z</time>
      </trkpt>
      <trkpt lat="45.63558" lon="2.88879">
        <ele>1181.6</ele>
        <time>2021-08-14T19:40:33Z</time>
      </trkpt>
      <trkpt lat="45.63547" lon="2.88865">
        <ele>1182.56</ele>
        <time>2021-08-14T19:40:41Z</time>
      </trkpt>
      <trkpt lat="45.63537" lon="2.8886">
        <ele>1183.04</ele>
        <time>2021-08-14T19:40:47Z</time>
      </trkpt>
      <trkpt lat="45.63524" lon="2.88866">
        <ele>1183.04</ele>
        <time>2021-08-14T19:40:54Z</time>
      </trkpt>
      <trkpt lat="45.63505" lon="2.8888">
        <ele>1183.04</ele>
        <time>2021-08-14T19:41:04Z</time>
      </trkpt>
      <trkpt lat="45.63491" lon="2.88891">
        <ele>1183.04</ele>
        <time>2021-08-14T19:41:13Z</time>
      </trkpt>
      <trkpt lat="45.63479" lon="2.88902">
        <ele>1183.04</ele>
        <time>2021-08-14T19:41:20Z</time>
      </trkpt>
      <trkpt lat="45.63465" lon="2.88912">
        <ele>1183.04</ele>
        <time>2021-08-14T19:41:27Z</time>
      </trkpt>
      <trkpt lat="45.63463" lon="2.88915">
        <ele>1183.04</ele>
        <time>2021-08-14T19:41:28Z</time>
      </trkpt>
      <trkpt lat="45.63462" lon="2.88918">
        <ele>1183.04</ele>
        <time>2021-08-14T19:41:29Z</time>
      </trkpt>
      <trkpt lat="45.63462" lon="2.88921">
        <ele>1183.04</ele>
        <time>2021-08-14T19:41:30Z</time>
      </trkpt>
      <trkpt lat="45.63461" lon="2.88925">
        <ele>1183.04</ele>
        <time>2021-08-14T19:41:31Z</time>
      </trkpt>
      <trkpt lat="45.63458" lon="2.8894">
        <ele>1181.6</ele>
        <time>2021-08-14T19:41:34Z</time>
      </trkpt>
      <trkpt lat="45.63454" lon="2.8896">
        <ele>1179.19</ele>
        <time>2021-08-14T19:41:38Z</time>
      </trkpt>
      <trkpt lat="45.63447" lon="2.88997">
        <ele>1176.31</ele>
        <time>2021-08-14T19:41:46Z</time>
      </trkpt>
      <trkpt lat="45.63447" lon="2.89">
        <ele>1176.31</ele>
        <time>2021-08-14T19:41:47Z</time>
      </trkpt>
      <trkpt lat="45.63449" lon="2.89002">
        <ele>1176.31</ele>
        <time>2021-08-14T19:41:48Z</time>
      </trkpt>
      <trkpt lat="45.6346" lon="2.89026">
        <ele>1175.35</ele>
        <time>2021-08-14T19:41:55Z</time>
      </trkpt>
      <trkpt lat="45.63457" lon="2.89061">
        <ele>1172.95</ele>
        <time>2021-08-14T19:42:01Z</time>
      </trkpt>
      <trkpt lat="45.63447" lon="2.89114">
        <ele>1170.54</ele>
        <time>2021-08-14T19:42:09Z</time>
      </trkpt>
      <trkpt lat="45.63443" lon="2.89144">
        <ele>1167.66</ele>
        <time>2021-08-14T19:42:15Z</time>
      </trkpt>
      <trkpt lat="45.63455" lon="2.89167">
        <ele>1166.22</ele>
        <time>2021-08-14T19:42:22Z</time>
      </trkpt>
      <trkpt lat="45.63477" lon="2.89195">
        <ele>1163.81</ele>
        <time>2021-08-14T19:42:31Z</time>
      </trkpt>
      <trkpt lat="45.63501" lon="2.89228">
        <ele>1161.89</ele>
        <time>2021-08-14T19:42:39Z</time>
      </trkpt>
      <trkpt lat="45.63536" lon="2.89278">
        <ele>1159.97</ele>
        <time>2021-08-14T19:42:49Z</time>
      </trkpt>
      <trkpt lat="45.63575" lon="2.89332">
        <ele>1157.56</ele>
        <time>2021-08-14T19:42:59Z</time>
      </trkpt>
      <trkpt lat="45.63608" lon="2.89376">
        <ele>1155.64</ele>
        <time>2021-08-14T19:43:06Z</time>
      </trkpt>
      <trkpt lat="45.63611" lon="2.89381">
        <ele>1155.64</ele>
        <time>2021-08-14T19:43:07Z</time>
      </trkpt>
      <trkpt lat="45.63613" lon="2.89387">
        <ele>1155.64</ele>
        <time>2021-08-14T19:43:08Z</time>
      </trkpt>
      <trkpt lat="45.63613" lon="2.89394">
        <ele>1154.68</ele>
        <time>2021-08-14T19:43:09Z</time>
      </trkpt>
      <trkpt lat="45.63611" lon="2.89399">
        <ele>1154.2</ele>
        <time>2021-08-14T19:43:10Z</time>
      </trkpt>
      <trkpt lat="45.63607" lon="2.89404">
        <ele>1153.72</ele>
        <time>2021-08-14T19:43:11Z</time>
      </trkpt>
      <trkpt lat="45.63602" lon="2.89408">
        <ele>1153.24</ele>
        <time>2021-08-14T19:43:12Z</time>
      </trkpt>
      <trkpt lat="45.63597" lon="2.89412">
        <ele>1153.24</ele>
        <time>2021-08-14T19:43:13Z</time>
      </trkpt>
      <trkpt lat="45.63558" lon="2.89442">
        <ele>1149.87</ele>
        <time>2021-08-14T19:43:20Z</time>
      </trkpt>
      <trkpt lat="45.63546" lon="2.89453">
        <ele>1148.91</ele>
        <time>2021-08-14T19:43:22Z</time>
      </trkpt>
      <trkpt lat="45.63521" lon="2.89473">
        <ele>1145.55</ele>
        <time>2021-08-14T19:43:26Z</time>
      </trkpt>
      <trkpt lat="45.63498" lon="2.89492">
        <ele>1142.18</ele>
        <time>2021-08-14T19:43:30Z</time>
      </trkpt>
      <trkpt lat="45.63484" lon="2.89503">
        <ele>1140.74</ele>
        <time>2021-08-14T19:43:33Z</time>
      </trkpt>
      <trkpt lat="45.6347" lon="2.89521">
        <ele>1138.34</ele>
        <time>2021-08-14T19:43:38Z</time>
      </trkpt>
      <trkpt lat="45.63469" lon="2.89528">
        <ele>1138.34</ele>
        <time>2021-08-14T19:43:39Z</time>
      </trkpt>
      <trkpt lat="45.63469" lon="2.89535">
        <ele>1137.86</ele>
        <time>2021-08-14T19:43:40Z</time>
      </trkpt>
      <trkpt lat="45.63466" lon="2.89587">
        <ele>1136.42</ele>
        <time>2021-08-14T19:43:47Z</time>
      </trkpt>
      <trkpt lat="45.6346" lon="2.89663">
        <ele>1134.01</ele>
        <time>2021-08-14T19:43:57Z</time>
      </trkpt>
      <trkpt lat="45.63458" lon="2.89685">
        <ele>1134.01</ele>
        <time>2021-08-14T19:44:00Z</time>
      </trkpt>
      <trkpt lat="45.63458" lon="2.89691">
        <ele>1134.01</ele>
        <time>2021-08-14T19:44:01Z</time>
      </trkpt>
      <trkpt lat="45.63457" lon="2.89698">
        <ele>1134.01</ele>
        <time>2021-08-14T19:44:02Z</time>
      </trkpt>
      <trkpt lat="45.63455" lon="2.8974">
        <ele>1133.53</ele>
        <time>2021-08-14T19:44:09Z</time>
      </trkpt>
      <trkpt lat="45.63455" lon="2.89746">
        <ele>1133.05</ele>
        <time>2021-08-14T19:44:10Z</time>
      </trkpt>
      <trkpt lat="45.63456" lon="2.89752">
        <ele>1132.57</ele>
        <time>2021-08-14T19:44:11Z</time>
      </trkpt>
      <trkpt lat="45.63458" lon="2.89758">
        <ele>1132.57</ele>
        <time>2021-08-14T19:44:12Z</time>
      </trkpt>
      <trkpt lat="45.63474" lon="2.89813">
        <ele>1131.61</ele>
        <time>2021-08-14T19:44:21Z</time>
      </trkpt>
      <trkpt lat="45.63485" lon="2.89846">
        <ele>1131.61</ele>
        <time>2021-08-14T19:44:28Z</time>
      </trkpt>
      <trkpt lat="45.63498" lon="2.89885">
        <ele>1131.61</ele>
        <time>2021-08-14T19:44:36Z</time>
      </trkpt>
      <trkpt lat="45.63519" lon="2.89954">
        <ele>1130.65</ele>
        <time>2021-08-14T19:44:48Z</time>
      </trkpt>
      <trkpt lat="45.6354" lon="2.90018">
        <ele>1130.17</ele>
        <time>2021-08-14T19:44:59Z</time>
      </trkpt>
      <trkpt lat="45.63555" lon="2.90066">
        <ele>1129.21</ele>
        <time>2021-08-14T19:45:07Z</time>
      </trkpt>
      <trkpt lat="45.63573" lon="2.90122">
        <ele>1128.24</ele>
        <time>2021-08-14T19:45:16Z</time>
      </trkpt>
      <trkpt lat="45.6358" lon="2.90143">
        <ele>1127.76</ele>
        <time>2021-08-14T19:45:19Z</time>
      </trkpt>
      <trkpt lat="45.63582" lon="2.90149">
        <ele>1127.76</ele>
        <time>2021-08-14T19:45:20Z</time>
      </trkpt>
      <trkpt lat="45.63584" lon="2.90156">
        <ele>1127.76</ele>
        <time>2021-08-14T19:45:21Z</time>
      </trkpt>
      <trkpt lat="45.63586" lon="2.90163">
        <ele>1127.28</ele>
        <time>2021-08-14T19:45:22Z</time>
      </trkpt>
      <trkpt lat="45.63588" lon="2.9017">
        <ele>1127.28</ele>
        <time>2021-08-14T19:45:23Z</time>
      </trkpt>
      <trkpt lat="45.6361" lon="2.90237">
        <ele>1125.84</ele>
        <time>2021-08-14T19:45:33Z</time>
      </trkpt>
      <trkpt lat="45.63625" lon="2.90288">
        <ele>1124.4</ele>
        <time>2021-08-14T19:45:41Z</time>
      </trkpt>
      <trkpt lat="45.6364" lon="2.90331">
        <ele>1122.48</ele>
        <time>2021-08-14T19:45:47Z</time>
      </trkpt>
      <trkpt lat="45.63661" lon="2.90396">
        <ele>1120.07</ele>
        <time>2021-08-14T19:45:55Z</time>
      </trkpt>
      <trkpt lat="45.63681" lon="2.90458">
        <ele>1118.63</ele>
        <time>2021-08-14T19:46:03Z</time>
      </trkpt>
      <trkpt lat="45.63702" lon="2.90523">
        <ele>1115.75</ele>
        <time>2021-08-14T19:46:12Z</time>
      </trkpt>
      <trkpt lat="45.63706" lon="2.9056">
        <ele>1114.31</ele>
        <time>2021-08-14T19:46:19Z</time>
      </trkpt>
      <trkpt lat="45.63691" lon="2.90573">
        <ele>1113.82</ele>
        <time>2021-08-14T19:46:24Z</time>
      </trkpt>
      <trkpt lat="45.63663" lon="2.9059">
        <ele>1111.9</ele>
        <time>2021-08-14T19:46:31Z</time>
      </trkpt>
      <trkpt lat="45.63635" lon="2.90609">
        <ele>1109.02</ele>
        <time>2021-08-14T19:46:36Z</time>
      </trkpt>
      <trkpt lat="45.636" lon="2.90635">
        <ele>1105.17</ele>
        <time>2021-08-14T19:46:42Z</time>
      </trkpt>
      <trkpt lat="45.63595" lon="2.90639">
        <ele>1105.17</ele>
        <time>2021-08-14T19:46:43Z</time>
      </trkpt>
      <trkpt lat="45.6359" lon="2.90643">
        <ele>1104.69</ele>
        <time>2021-08-14T19:46:44Z</time>
      </trkpt>
      <trkpt lat="45.63585" lon="2.90648">
        <ele>1103.73</ele>
        <time>2021-08-14T19:46:45Z</time>
      </trkpt>
      <trkpt lat="45.63581" lon="2.90651">
        <ele>1103.73</ele>
        <time>2021-08-14T19:46:46Z</time>
      </trkpt>
      <trkpt lat="45.63553" lon="2.90671">
        <ele>1100.85</ele>
        <time>2021-08-14T19:46:51Z</time>
      </trkpt>
      <trkpt lat="45.63525" lon="2.90693">
        <ele>1097.48</ele>
        <time>2021-08-14T19:46:57Z</time>
      </trkpt>
      <trkpt lat="45.63522" lon="2.90697">
        <ele>1097.48</ele>
        <time>2021-08-14T19:46:58Z</time>
      </trkpt>
      <trkpt lat="45.63519" lon="2.90701">
        <ele>1097</ele>
        <time>2021-08-14T19:46:59Z</time>
      </trkpt>
      <trkpt lat="45.63518" lon="2.90707">
        <ele>1097</ele>
        <time>2021-08-14T19:47:00Z</time>
      </trkpt>
      <trkpt lat="45.63517" lon="2.90712">
        <ele>1097</ele>
        <time>2021-08-14T19:47:01Z</time>
      </trkpt>
      <trkpt lat="45.63518" lon="2.90718">
        <ele>1097</ele>
        <time>2021-08-14T19:47:02Z</time>
      </trkpt>
      <trkpt lat="45.63519" lon="2.90724">
        <ele>1096.52</ele>
        <time>2021-08-14T19:47:03Z</time>
      </trkpt>
      <trkpt lat="45.63521" lon="2.90729">
        <ele>1097</ele>
        <time>2021-08-14T19:47:04Z</time>
      </trkpt>
      <trkpt lat="45.63523" lon="2.90735">
        <ele>1097</ele>
        <time>2021-08-14T19:47:05Z</time>
      </trkpt>
      <trkpt lat="45.63526" lon="2.9074">
        <ele>1097</ele>
        <time>2021-08-14T19:47:06Z</time>
      </trkpt>
      <trkpt lat="45.63543" lon="2.90785">
        <ele>1096.04</ele>
        <time>2021-08-14T19:47:14Z</time>
      </trkpt>
      <trkpt lat="45.63564" lon="2.90844">
        <ele>1095.56</ele>
        <time>2021-08-14T19:47:24Z</time>
      </trkpt>
      <trkpt lat="45.63574" lon="2.90876">
        <ele>1095.56</ele>
        <time>2021-08-14T19:47:31Z</time>
      </trkpt>
      <trkpt lat="45.63589" lon="2.90917">
        <ele>1095.56</ele>
        <time>2021-08-14T19:47:40Z</time>
      </trkpt>
      <trkpt lat="45.63597" lon="2.90937">
        <ele>1095.56</ele>
        <time>2021-08-14T19:47:44Z</time>
      </trkpt>
      <trkpt lat="45.63598" lon="2.90941">
        <ele>1095.56</ele>
        <time>2021-08-14T19:47:45Z</time>
      </trkpt>
      <trkpt lat="45.636" lon="2.90947">
        <ele>1095.56</ele>
        <time>2021-08-14T19:47:46Z</time>
      </trkpt>
      <trkpt lat="45.63601" lon="2.90951">
        <ele>1095.56</ele>
        <time>2021-08-14T19:47:47Z</time>
      </trkpt>
      <trkpt lat="45.63602" lon="2.90956">
        <ele>1095.56</ele>
        <time>2021-08-14T19:47:48Z</time>
      </trkpt>
      <trkpt lat="45.63604" lon="2.90961">
        <ele>1095.56</ele>
        <time>2021-08-14T19:47:49Z</time>
      </trkpt>
      <trkpt lat="45.63605" lon="2.90965">
        <ele>1096.52</ele>
        <time>2021-08-14T19:47:50Z</time>
      </trkpt>
      <trkpt lat="45.63606" lon="2.90969">
        <ele>1096.52</ele>
        <time>2021-08-14T19:47:51Z</time>
      </trkpt>
      <trkpt lat="45.63616" lon="2.90992">
        <ele>1097.48</ele>
        <time>2021-08-14T19:47:57Z</time>
      </trkpt>
      <trkpt lat="45.63625" lon="2.9102">
        <ele>1097.48</ele>
        <time>2021-08-14T19:48:04Z</time>
      </trkpt>
      <trkpt lat="45.63634" lon="2.91047">
        <ele>1096.04</ele>
        <time>2021-08-14T19:48:09Z</time>
      </trkpt>
      <trkpt lat="45.63654" lon="2.91099">
        <ele>1095.08</ele>
        <time>2021-08-14T19:48:18Z</time>
      </trkpt>
      <trkpt lat="45.63656" lon="2.91105">
        <ele>1095.08</ele>
        <time>2021-08-14T19:48:19Z</time>
      </trkpt>
      <trkpt lat="45.63658" lon="2.9111">
        <ele>1094.6</ele>
        <time>2021-08-14T19:48:20Z</time>
      </trkpt>
      <trkpt lat="45.63677" lon="2.91163">
        <ele>1093.16</ele>
        <time>2021-08-14T19:48:29Z</time>
      </trkpt>
      <trkpt lat="45.63696" lon="2.91217">
        <ele>1091.23</ele>
        <time>2021-08-14T19:48:38Z</time>
      </trkpt>
      <trkpt lat="45.63702" lon="2.91235">
        <ele>1089.79</ele>
        <time>2021-08-14T19:48:41Z</time>
      </trkpt>
      <trkpt lat="45.63703" lon="2.91241">
        <ele>1089.79</ele>
        <time>2021-08-14T19:48:42Z</time>
      </trkpt>
      <trkpt lat="45.63711" lon="2.91262">
        <ele>1087.87</ele>
        <time>2021-08-14T19:48:45Z</time>
      </trkpt>
      <trkpt lat="45.63714" lon="2.91269">
        <ele>1087.39</ele>
        <time>2021-08-14T19:48:46Z</time>
      </trkpt>
      <trkpt lat="45.63726" lon="2.91303">
        <ele>1086.43</ele>
        <time>2021-08-14T19:48:50Z</time>
      </trkpt>
      <trkpt lat="45.63738" lon="2.91338">
        <ele>1084.5</ele>
        <time>2021-08-14T19:48:54Z</time>
      </trkpt>
      <trkpt lat="45.63749" lon="2.91373">
        <ele>1083.06</ele>
        <time>2021-08-14T19:48:58Z</time>
      </trkpt>
      <trkpt lat="45.63777" lon="2.91454">
        <ele>1082.58</ele>
        <time>2021-08-14T19:49:08Z</time>
      </trkpt>
      <trkpt lat="45.63797" lon="2.91509">
        <ele>1082.1</ele>
        <time>2021-08-14T19:49:16Z</time>
      </trkpt>
      <trkpt lat="45.6382" lon="2.91574">
        <ele>1082.1</ele>
        <time>2021-08-14T19:49:26Z</time>
      </trkpt>
      <trkpt lat="45.63845" lon="2.91646">
        <ele>1081.14</ele>
        <time>2021-08-14T19:49:36Z</time>
      </trkpt>
      <trkpt lat="45.63856" lon="2.91675">
        <ele>1079.7</ele>
        <time>2021-08-14T19:49:40Z</time>
      </trkpt>
      <trkpt lat="45.63858" lon="2.91681">
        <ele>1079.22</ele>
        <time>2021-08-14T19:49:41Z</time>
      </trkpt>
      <trkpt lat="45.63871" lon="2.91722">
        <ele>1075.85</ele>
        <time>2021-08-14T19:49:46Z</time>
      </trkpt>
      <trkpt lat="45.63874" lon="2.9173">
        <ele>1075.85</ele>
        <time>2021-08-14T19:49:47Z</time>
      </trkpt>
      <trkpt lat="45.63888" lon="2.91765">
        <ele>1072.97</ele>
        <time>2021-08-14T19:49:51Z</time>
      </trkpt>
      <trkpt lat="45.63902" lon="2.91804">
        <ele>1069.6</ele>
        <time>2021-08-14T19:49:56Z</time>
      </trkpt>
      <trkpt lat="45.6391" lon="2.91826">
        <ele>1066.72</ele>
        <time>2021-08-14T19:49:59Z</time>
      </trkpt>
      <trkpt lat="45.63912" lon="2.91834">
        <ele>1066.72</ele>
        <time>2021-08-14T19:50:00Z</time>
      </trkpt>
      <trkpt lat="45.63922" lon="2.91863">
        <ele>1064.32</ele>
        <time>2021-08-14T19:50:04Z</time>
      </trkpt>
      <trkpt lat="45.63934" lon="2.91906">
        <ele>1061.43</ele>
        <time>2021-08-14T19:50:10Z</time>
      </trkpt>
      <trkpt lat="45.63951" lon="2.91952">
        <ele>1059.51</ele>
        <time>2021-08-14T19:50:17Z</time>
      </trkpt>
      <trkpt lat="45.63957" lon="2.9197">
        <ele>1059.03</ele>
        <time>2021-08-14T19:50:20Z</time>
      </trkpt>
      <trkpt lat="45.63974" lon="2.92016">
        <ele>1057.11</ele>
        <time>2021-08-14T19:50:28Z</time>
      </trkpt>
      <trkpt lat="45.63973" lon="2.92025">
        <ele>1056.63</ele>
        <time>2021-08-14T19:50:30Z</time>
      </trkpt>
      <trkpt lat="45.63965" lon="2.92038">
        <ele>1056.63</ele>
        <time>2021-08-14T19:50:35Z</time>
      </trkpt>
      <trkpt lat="45.63954" lon="2.92041">
        <ele>1056.63</ele>
        <time>2021-08-14T19:50:38Z</time>
      </trkpt>
      <trkpt lat="45.63941" lon="2.92046">
        <ele>1055.67</ele>
        <time>2021-08-14T19:50:42Z</time>
      </trkpt>
      <trkpt lat="45.63919" lon="2.92054">
        <ele>1054.7</ele>
        <time>2021-08-14T19:50:47Z</time>
      </trkpt>
      <trkpt lat="45.63906" lon="2.92056">
        <ele>1053.74</ele>
        <time>2021-08-14T19:50:50Z</time>
      </trkpt>
      <trkpt lat="45.63902" lon="2.92055">
        <ele>1053.26</ele>
        <time>2021-08-14T19:50:51Z</time>
      </trkpt>
      <trkpt lat="45.63897" lon="2.92053">
        <ele>1053.26</ele>
        <time>2021-08-14T19:50:52Z</time>
      </trkpt>
      <trkpt lat="45.63893" lon="2.9205">
        <ele>1052.78</ele>
        <time>2021-08-14T19:50:53Z</time>
      </trkpt>
      <trkpt lat="45.63889" lon="2.92048">
        <ele>1052.78</ele>
        <time>2021-08-14T19:50:54Z</time>
      </trkpt>
      <trkpt lat="45.63885" lon="2.92044">
        <ele>1052.78</ele>
        <time>2021-08-14T19:50:55Z</time>
      </trkpt>
      <trkpt lat="45.63881" lon="2.92039">
        <ele>1052.3</ele>
        <time>2021-08-14T19:50:56Z</time>
      </trkpt>
      <trkpt lat="45.63877" lon="2.92034">
        <ele>1051.82</ele>
        <time>2021-08-14T19:50:57Z</time>
      </trkpt>
      <trkpt lat="45.63846" lon="2.92002">
        <ele>1049.9</ele>
        <time>2021-08-14T19:51:03Z</time>
      </trkpt>
      <trkpt lat="45.63836" lon="2.91994">
        <ele>1049.9</ele>
        <time>2021-08-14T19:51:05Z</time>
      </trkpt>
      <trkpt lat="45.63831" lon="2.91991">
        <ele>1049.9</ele>
        <time>2021-08-14T19:51:06Z</time>
      </trkpt>
      <trkpt lat="45.63826" lon="2.91989">
        <ele>1049.9</ele>
        <time>2021-08-14T19:51:07Z</time>
      </trkpt>
      <trkpt lat="45.63821" lon="2.91988">
        <ele>1049.9</ele>
        <time>2021-08-14T19:51:08Z</time>
      </trkpt>
      <trkpt lat="45.63816" lon="2.91988">
        <ele>1049.9</ele>
        <time>2021-08-14T19:51:09Z</time>
      </trkpt>
      <trkpt lat="45.63811" lon="2.91988">
        <ele>1049.9</ele>
        <time>2021-08-14T19:51:10Z</time>
      </trkpt>
      <trkpt lat="45.63773" lon="2.91996">
        <ele>1049.9</ele>
        <time>2021-08-14T19:51:18Z</time>
      </trkpt>
      <trkpt lat="45.63729" lon="2.91998">
        <ele>1049.42</ele>
        <time>2021-08-14T19:51:28Z</time>
      </trkpt>
      <trkpt lat="45.6372" lon="2.91994">
        <ele>1049.42</ele>
        <time>2021-08-14T19:51:30Z</time>
      </trkpt>
      <trkpt lat="45.63716" lon="2.91992">
        <ele>1049.42</ele>
        <time>2021-08-14T19:51:31Z</time>
      </trkpt>
      <trkpt lat="45.63711" lon="2.91988">
        <ele>1048.94</ele>
        <time>2021-08-14T19:51:32Z</time>
      </trkpt>
      <trkpt lat="45.63707" lon="2.91983">
        <ele>1048.94</ele>
        <time>2021-08-14T19:51:33Z</time>
      </trkpt>
      <trkpt lat="45.63702" lon="2.91979">
        <ele>1047.97</ele>
        <time>2021-08-14T19:51:34Z</time>
      </trkpt>
      <trkpt lat="45.63683" lon="2.9196">
        <ele>1046.05</ele>
        <time>2021-08-14T19:51:38Z</time>
      </trkpt>
      <trkpt lat="45.63656" lon="2.91932">
        <ele>1043.17</ele>
        <time>2021-08-14T19:51:43Z</time>
      </trkpt>
      <trkpt lat="45.63625" lon="2.91903">
        <ele>1039.32</ele>
        <time>2021-08-14T19:51:48Z</time>
      </trkpt>
      <trkpt lat="45.63593" lon="2.91877">
        <ele>1035.96</ele>
        <time>2021-08-14T19:51:53Z</time>
      </trkpt>
      <trkpt lat="45.63562" lon="2.91857">
        <ele>1034.52</ele>
        <time>2021-08-14T19:51:59Z</time>
      </trkpt>
      <trkpt lat="45.63552" lon="2.91853">
        <ele>1033.55</ele>
        <time>2021-08-14T19:52:01Z</time>
      </trkpt>
      <trkpt lat="45.63548" lon="2.91853">
        <ele>1033.55</ele>
        <time>2021-08-14T19:52:02Z</time>
      </trkpt>
      <trkpt lat="45.63545" lon="2.91853">
        <ele>1033.55</ele>
        <time>2021-08-14T19:52:03Z</time>
      </trkpt>
      <trkpt lat="45.63543" lon="2.91854">
        <ele>1033.55</ele>
        <time>2021-08-14T19:52:04Z</time>
      </trkpt>
      <trkpt lat="45.6354" lon="2.91856">
        <ele>1033.55</ele>
        <time>2021-08-14T19:52:05Z</time>
      </trkpt>
      <trkpt lat="45.63538" lon="2.91858">
        <ele>1033.55</ele>
        <time>2021-08-14T19:52:06Z</time>
      </trkpt>
      <trkpt lat="45.63536" lon="2.91861">
        <ele>1033.55</ele>
        <time>2021-08-14T19:52:07Z</time>
      </trkpt>
      <trkpt lat="45.63534" lon="2.91864">
        <ele>1033.55</ele>
        <time>2021-08-14T19:52:08Z</time>
      </trkpt>
      <trkpt lat="45.63522" lon="2.91899">
        <ele>1033.55</ele>
        <time>2021-08-14T19:52:16Z</time>
      </trkpt>
      <trkpt lat="45.63518" lon="2.91935">
        <ele>1033.55</ele>
        <time>2021-08-14T19:52:24Z</time>
      </trkpt>
      <trkpt lat="45.63517" lon="2.91942">
        <ele>1035</ele>
        <time>2021-08-14T19:52:26Z</time>
      </trkpt>
      <trkpt lat="45.63513" lon="2.9197">
        <ele>1035.96</ele>
        <time>2021-08-14T19:52:35Z</time>
      </trkpt>
      <trkpt lat="45.63508" lon="2.91985">
        <ele>1036.92</ele>
        <time>2021-08-14T19:52:42Z</time>
      </trkpt>
      <trkpt lat="45.63501" lon="2.92006">
        <ele>1037.88</ele>
        <time>2021-08-14T19:52:53Z</time>
      </trkpt>
      <trkpt lat="45.63496" lon="2.9202">
        <ele>1039.32</ele>
        <time>2021-08-14T19:53:01Z</time>
      </trkpt>
      <trkpt lat="45.63495" lon="2.92021">
        <ele>1039.32</ele>
        <time>2021-08-14T19:53:02Z</time>
      </trkpt>
      <trkpt lat="45.63494" lon="2.92023">
        <ele>1039.32</ele>
        <time>2021-08-14T19:53:03Z</time>
      </trkpt>
      <trkpt lat="45.63493" lon="2.92025">
        <ele>1039.32</ele>
        <time>2021-08-14T19:53:04Z</time>
      </trkpt>
      <trkpt lat="45.63493" lon="2.92026">
        <ele>1040.28</ele>
        <time>2021-08-14T19:53:05Z</time>
      </trkpt>
      <trkpt lat="45.63492" lon="2.92028">
        <ele>1040.28</ele>
        <time>2021-08-14T19:53:06Z</time>
      </trkpt>
      <trkpt lat="45.63492" lon="2.92029">
        <ele>1040.28</ele>
        <time>2021-08-14T19:53:07Z</time>
      </trkpt>
      <trkpt lat="45.63491" lon="2.92031">
        <ele>1040.28</ele>
        <time>2021-08-14T19:53:08Z</time>
      </trkpt>
      <trkpt lat="45.63487" lon="2.92043">
        <ele>1040.76</ele>
        <time>2021-08-14T19:53:16Z</time>
      </trkpt>
      <trkpt lat="45.63482" lon="2.92058">
        <ele>1042.21</ele>
        <time>2021-08-14T19:53:25Z</time>
      </trkpt>
      <trkpt lat="45.63477" lon="2.92074">
        <ele>1043.65</ele>
        <time>2021-08-14T19:53:34Z</time>
      </trkpt>
      <trkpt lat="45.63476" lon="2.92079">
        <ele>1043.65</ele>
        <time>2021-08-14T19:53:37Z</time>
      </trkpt>
      <trkpt lat="45.63475" lon="2.9208">
        <ele>1044.13</ele>
        <time>2021-08-14T19:53:38Z</time>
      </trkpt>
      <trkpt lat="45.63475" lon="2.92082">
        <ele>1044.13</ele>
        <time>2021-08-14T19:53:39Z</time>
      </trkpt>
      <trkpt lat="45.63474" lon="2.92083">
        <ele>1044.13</ele>
        <time>2021-08-14T19:53:40Z</time>
      </trkpt>
      <trkpt lat="45.63474" lon="2.92085">
        <ele>1044.13</ele>
        <time>2021-08-14T19:53:41Z</time>
      </trkpt>
      <trkpt lat="45.63473" lon="2.92086">
        <ele>1044.13</ele>
        <time>2021-08-14T19:53:42Z</time>
      </trkpt>
      <trkpt lat="45.63473" lon="2.92088">
        <ele>1044.61</ele>
        <time>2021-08-14T19:53:43Z</time>
      </trkpt>
      <trkpt lat="45.6347" lon="2.92098">
        <ele>1045.09</ele>
        <time>2021-08-14T19:53:50Z</time>
      </trkpt>
      <trkpt lat="45.63464" lon="2.92112">
        <ele>1046.05</ele>
        <time>2021-08-14T19:53:59Z</time>
      </trkpt>
      <trkpt lat="45.63462" lon="2.9212">
        <ele>1046.53</ele>
        <time>2021-08-14T19:54:03Z</time>
      </trkpt>
      <trkpt lat="45.63462" lon="2.92121">
        <ele>1046.53</ele>
        <time>2021-08-14T19:54:04Z</time>
      </trkpt>
      <trkpt lat="45.63461" lon="2.92123">
        <ele>1046.53</ele>
        <time>2021-08-14T19:54:05Z</time>
      </trkpt>
      <trkpt lat="45.63458" lon="2.92136">
        <ele>1047.49</ele>
        <time>2021-08-14T19:54:12Z</time>
      </trkpt>
      <trkpt lat="45.63451" lon="2.92152">
        <ele>1048.94</ele>
        <time>2021-08-14T19:54:22Z</time>
      </trkpt>
      <trkpt lat="45.63446" lon="2.92159">
        <ele>1049.42</ele>
        <time>2021-08-14T19:54:29Z</time>
      </trkpt>
      <trkpt lat="45.6344" lon="2.92169">
        <ele>1051.34</ele>
        <time>2021-08-14T19:54:39Z</time>
      </trkpt>
      <trkpt lat="45.63435" lon="2.92181">
        <ele>1051.82</ele>
        <time>2021-08-14T19:54:48Z</time>
      </trkpt>
      <trkpt lat="45.63431" lon="2.92194">
        <ele>1053.26</ele>
        <time>2021-08-14T19:54:58Z</time>
      </trkpt>
      <trkpt lat="45.63426" lon="2.9221">
        <ele>1054.22</ele>
        <time>2021-08-14T19:55:10Z</time>
      </trkpt>
      <trkpt lat="45.63425" lon="2.92218">
        <ele>1055.18</ele>
        <time>2021-08-14T19:55:18Z</time>
      </trkpt>
      <trkpt lat="45.63425" lon="2.92219">
        <ele>1055.67</ele>
        <time>2021-08-14T19:55:30Z</time>
      </trkpt>
      <trkpt lat="45.63424" lon="2.92223">
        <ele>1055.67</ele>
        <time>2021-08-14T19:55:33Z</time>
      </trkpt>
      <trkpt lat="45.63423" lon="2.92224">
        <ele>1055.67</ele>
        <time>2021-08-14T19:55:34Z</time>
      </trkpt>
      <trkpt lat="45.63422" lon="2.92229">
        <ele>1056.15</ele>
        <time>2021-08-14T19:55:37Z</time>
      </trkpt>
      <trkpt lat="45.63422" lon="2.92231">
        <ele>1056.15</ele>
        <time>2021-08-14T19:55:38Z</time>
      </trkpt>
      <trkpt lat="45.63421" lon="2.92236">
        <ele>1056.63</ele>
        <time>2021-08-14T19:55:42Z</time>
      </trkpt>
      <trkpt lat="45.63417" lon="2.92241">
        <ele>1057.11</ele>
        <time>2021-08-14T19:55:48Z</time>
      </trkpt>
      <trkpt lat="45.63411" lon="2.92253">
        <ele>1058.07</ele>
        <time>2021-08-14T19:55:58Z</time>
      </trkpt>
      <trkpt lat="45.63405" lon="2.92268">
        <ele>1059.03</ele>
        <time>2021-08-14T19:56:10Z</time>
      </trkpt>
      <trkpt lat="45.63401" lon="2.9228">
        <ele>1059.99</ele>
        <time>2021-08-14T19:56:20Z</time>
      </trkpt>
      <trkpt lat="45.63398" lon="2.9229">
        <ele>1060.95</ele>
        <time>2021-08-14T19:56:29Z</time>
      </trkpt>
      <trkpt lat="45.63395" lon="2.92299">
        <ele>1061.91</ele>
        <time>2021-08-14T19:56:37Z</time>
      </trkpt>
      <trkpt lat="45.63393" lon="2.92309">
        <ele>1062.87</ele>
        <time>2021-08-14T19:56:46Z</time>
      </trkpt>
      <trkpt lat="45.63389" lon="2.92318">
        <ele>1064.32</ele>
        <time>2021-08-14T19:56:55Z</time>
      </trkpt>
      <trkpt lat="45.63386" lon="2.92326">
        <ele>1064.8</ele>
        <time>2021-08-14T19:57:04Z</time>
      </trkpt>
      <trkpt lat="45.63382" lon="2.92336">
        <ele>1066.24</ele>
        <time>2021-08-14T19:57:15Z</time>
      </trkpt>
      <trkpt lat="45.63377" lon="2.92341">
        <ele>1066.72</ele>
        <time>2021-08-14T19:57:23Z</time>
      </trkpt>
      <trkpt lat="45.63371" lon="2.92348">
        <ele>1068.16</ele>
        <time>2021-08-14T19:57:32Z</time>
      </trkpt>
      <trkpt lat="45.63363" lon="2.92355">
        <ele>1069.12</ele>
        <time>2021-08-14T19:57:43Z</time>
      </trkpt>
      <trkpt lat="45.63362" lon="2.92356">
        <ele>1069.12</ele>
        <time>2021-08-14T19:57:45Z</time>
      </trkpt>
      <trkpt lat="45.63356" lon="2.92362">
        <ele>1070.08</ele>
        <time>2021-08-14T19:57:54Z</time>
      </trkpt>
      <trkpt lat="45.63349" lon="2.92368">
        <ele>1071.53</ele>
        <time>2021-08-14T19:58:04Z</time>
      </trkpt>
      <trkpt lat="45.63347" lon="2.9237">
        <ele>1071.53</ele>
        <time>2021-08-14T19:58:06Z</time>
      </trkpt>
      <trkpt lat="45.63345" lon="2.92373">
        <ele>1071.05</ele>
        <time>2021-08-14T19:58:13Z</time>
      </trkpt>
      <trkpt lat="45.63342" lon="2.92377">
        <ele>1071.53</ele>
        <time>2021-08-14T19:58:21Z</time>
      </trkpt>
      <trkpt lat="45.63333" lon="2.92387">
        <ele>1072.49</ele>
        <time>2021-08-14T19:58:30Z</time>
      </trkpt>
      <trkpt lat="45.63332" lon="2.92388">
        <ele>1072.49</ele>
        <time>2021-08-14T19:58:31Z</time>
      </trkpt>
      <trkpt lat="45.63331" lon="2.92389">
        <ele>1072.97</ele>
        <time>2021-08-14T19:58:32Z</time>
      </trkpt>
      <trkpt lat="45.6333" lon="2.9239">
        <ele>1072.97</ele>
        <time>2021-08-14T19:58:33Z</time>
      </trkpt>
      <trkpt lat="45.63329" lon="2.9239">
        <ele>1072.97</ele>
        <time>2021-08-14T19:58:34Z</time>
      </trkpt>
      <trkpt lat="45.63328" lon="2.92391">
        <ele>1072.97</ele>
        <time>2021-08-14T19:58:35Z</time>
      </trkpt>
      <trkpt lat="45.63327" lon="2.92392">
        <ele>1072.97</ele>
        <time>2021-08-14T19:58:36Z</time>
      </trkpt>
      <trkpt lat="45.63326" lon="2.92393">
        <ele>1072.97</ele>
        <time>2021-08-14T19:58:37Z</time>
      </trkpt>
      <trkpt lat="45.63325" lon="2.92394">
        <ele>1072.97</ele>
        <time>2021-08-14T19:58:38Z</time>
      </trkpt>
      <trkpt lat="45.63324" lon="2.92396">
        <ele>1073.45</ele>
        <time>2021-08-14T19:58:39Z</time>
      </trkpt>
      <trkpt lat="45.63323" lon="2.92398">
        <ele>1073.93</ele>
        <time>2021-08-14T19:58:40Z</time>
      </trkpt>
      <trkpt lat="45.63322" lon="2.92399">
        <ele>1073.93</ele>
        <time>2021-08-14T19:58:41Z</time>
      </trkpt>
      <trkpt lat="45.63321" lon="2.924">
        <ele>1073.93</ele>
        <time>2021-08-14T19:58:42Z</time>
      </trkpt>
      <trkpt lat="45.6332" lon="2.92401">
        <ele>1073.93</ele>
        <time>2021-08-14T19:58:43Z</time>
      </trkpt>
      <trkpt lat="45.63319" lon="2.92402">
        <ele>1073.93</ele>
        <time>2021-08-14T19:58:44Z</time>
      </trkpt>
      <trkpt lat="45.63318" lon="2.92402">
        <ele>1073.93</ele>
        <time>2021-08-14T19:58:45Z</time>
      </trkpt>
      <trkpt lat="45.63316" lon="2.92403">
        <ele>1074.41</ele>
        <time>2021-08-14T19:58:46Z</time>
      </trkpt>
      <trkpt lat="45.63307" lon="2.92413">
        <ele>1075.37</ele>
        <time>2021-08-14T19:58:55Z</time>
      </trkpt>
      <trkpt lat="45.63299" lon="2.92421">
        <ele>1075.85</ele>
        <time>2021-08-14T19:59:03Z</time>
      </trkpt>
      <trkpt lat="45.63295" lon="2.92424">
        <ele>1076.33</ele>
        <time>2021-08-14T19:59:07Z</time>
      </trkpt>
      <trkpt lat="45.63293" lon="2.92425">
        <ele>1076.33</ele>
        <time>2021-08-14T19:59:08Z</time>
      </trkpt>
      <trkpt lat="45.63292" lon="2.92425">
        <ele>1076.33</ele>
        <time>2021-08-14T19:59:09Z</time>
      </trkpt>
      <trkpt lat="45.63291" lon="2.92426">
        <ele>1076.33</ele>
        <time>2021-08-14T19:59:10Z</time>
      </trkpt>
      <trkpt lat="45.63285" lon="2.92432">
        <ele>1077.78</ele>
        <time>2021-08-14T19:59:16Z</time>
      </trkpt>
      <trkpt lat="45.63273" lon="2.92445">
        <ele>1078.26</ele>
        <time>2021-08-14T19:59:26Z</time>
      </trkpt>
      <trkpt lat="45.63272" lon="2.92447">
        <ele>1078.26</ele>
        <time>2021-08-14T19:59:27Z</time>
      </trkpt>
      <trkpt lat="45.6327" lon="2.92448">
        <ele>1078.26</ele>
        <time>2021-08-14T19:59:28Z</time>
      </trkpt>
      <trkpt lat="45.63269" lon="2.92449">
        <ele>1078.26</ele>
        <time>2021-08-14T19:59:29Z</time>
      </trkpt>
      <trkpt lat="45.63268" lon="2.92451">
        <ele>1078.26</ele>
        <time>2021-08-14T19:59:30Z</time>
      </trkpt>
      <trkpt lat="45.63267" lon="2.92452">
        <ele>1078.74</ele>
        <time>2021-08-14T19:59:31Z</time>
      </trkpt>
      <trkpt lat="45.63265" lon="2.92453">
        <ele>1078.74</ele>
        <time>2021-08-14T19:59:32Z</time>
      </trkpt>
      <trkpt lat="45.63264" lon="2.92454">
        <ele>1078.74</ele>
        <time>2021-08-14T19:59:33Z</time>
      </trkpt>
      <trkpt lat="45.63263" lon="2.92455">
        <ele>1078.74</ele>
        <time>2021-08-14T19:59:34Z</time>
      </trkpt>
      <trkpt lat="45.63262" lon="2.92456">
        <ele>1079.22</ele>
        <time>2021-08-14T19:59:35Z</time>
      </trkpt>
      <trkpt lat="45.6326" lon="2.92458">
        <ele>1079.22</ele>
        <time>2021-08-14T19:59:36Z</time>
      </trkpt>
      <trkpt lat="45.63259" lon="2.92459">
        <ele>1079.22</ele>
        <time>2021-08-14T19:59:37Z</time>
      </trkpt>
      <trkpt lat="45.63258" lon="2.9246">
        <ele>1079.22</ele>
        <time>2021-08-14T19:59:38Z</time>
      </trkpt>
      <trkpt lat="45.63257" lon="2.92461">
        <ele>1079.7</ele>
        <time>2021-08-14T19:59:39Z</time>
      </trkpt>
      <trkpt lat="45.63256" lon="2.92462">
        <ele>1079.7</ele>
        <time>2021-08-14T19:59:40Z</time>
      </trkpt>
      <trkpt lat="45.63254" lon="2.92464">
        <ele>1079.7</ele>
        <time>2021-08-14T19:59:41Z</time>
      </trkpt>
      <trkpt lat="45.63241" lon="2.92474">
        <ele>1081.14</ele>
        <time>2021-08-14T19:59:52Z</time>
      </trkpt>
      <trkpt lat="45.63238" lon="2.92475">
        <ele>1081.14</ele>
        <time>2021-08-14T19:59:55Z</time>
      </trkpt>
      <trkpt lat="45.63236" lon="2.92476">
        <ele>1081.14</ele>
        <time>2021-08-14T19:59:56Z</time>
      </trkpt>
      <trkpt lat="45.63235" lon="2.92475">
        <ele>1081.62</ele>
        <time>2021-08-14T19:59:57Z</time>
      </trkpt>
      <trkpt lat="45.63234" lon="2.92474">
        <ele>1081.62</ele>
        <time>2021-08-14T19:59:58Z</time>
      </trkpt>
      <trkpt lat="45.63233" lon="2.92473">
        <ele>1081.62</ele>
        <time>2021-08-14T19:59:59Z</time>
      </trkpt>
      <trkpt lat="45.63232" lon="2.92472">
        <ele>1081.62</ele>
        <time>2021-08-14T20:00:00Z</time>
      </trkpt>
      <trkpt lat="45.6323" lon="2.92471">
        <ele>1081.62</ele>
        <time>2021-08-14T20:00:01Z</time>
      </trkpt>
      <trkpt lat="45.63229" lon="2.92471">
        <ele>1081.62</ele>
        <time>2021-08-14T20:00:02Z</time>
      </trkpt>
      <trkpt lat="45.63227" lon="2.92471">
        <ele>1082.1</ele>
        <time>2021-08-14T20:00:03Z</time>
      </trkpt>
      <trkpt lat="45.63226" lon="2.92472">
        <ele>1082.1</ele>
        <time>2021-08-14T20:00:04Z</time>
      </trkpt>
      <trkpt lat="45.63225" lon="2.92473">
        <ele>1082.1</ele>
        <time>2021-08-14T20:00:05Z</time>
      </trkpt>
      <trkpt lat="45.63219" lon="2.92477">
        <ele>1082.1</ele>
        <time>2021-08-14T20:00:08Z</time>
      </trkpt>
      <trkpt lat="45.63218" lon="2.92478">
        <ele>1082.1</ele>
        <time>2021-08-14T20:00:09Z</time>
      </trkpt>
      <trkpt lat="45.63216" lon="2.9248">
        <ele>1082.1</ele>
        <time>2021-08-14T20:00:10Z</time>
      </trkpt>
      <trkpt lat="45.63214" lon="2.9248">
        <ele>1082.1</ele>
        <time>2021-08-14T20:00:11Z</time>
      </trkpt>
      <trkpt lat="45.63212" lon="2.92481">
        <ele>1082.58</ele>
        <time>2021-08-14T20:00:12Z</time>
      </trkpt>
      <trkpt lat="45.6321" lon="2.92481">
        <ele>1082.58</ele>
        <time>2021-08-14T20:00:13Z</time>
      </trkpt>
      <trkpt lat="45.63208" lon="2.92481">
        <ele>1082.58</ele>
        <time>2021-08-14T20:00:14Z</time>
      </trkpt>
      <trkpt lat="45.63206" lon="2.92482">
        <ele>1083.06</ele>
        <time>2021-08-14T20:00:15Z</time>
      </trkpt>
      <trkpt lat="45.63204" lon="2.92482">
        <ele>1083.06</ele>
        <time>2021-08-14T20:00:16Z</time>
      </trkpt>
      <trkpt lat="45.63181" lon="2.92487">
        <ele>1084.5</ele>
        <time>2021-08-14T20:00:25Z</time>
      </trkpt>
      <trkpt lat="45.63159" lon="2.92493">
        <ele>1084.99</ele>
        <time>2021-08-14T20:00:33Z</time>
      </trkpt>
      <trkpt lat="45.63149" lon="2.92494">
        <ele>1085.47</ele>
        <time>2021-08-14T20:00:36Z</time>
      </trkpt>
      <trkpt lat="45.63145" lon="2.92494">
        <ele>1085.47</ele>
        <time>2021-08-14T20:00:37Z</time>
      </trkpt>
      <trkpt lat="45.63131" lon="2.92499">
        <ele>1085.47</ele>
        <time>2021-08-14T20:00:42Z</time>
      </trkpt>
      <trkpt lat="45.63128" lon="2.925">
        <ele>1085.47</ele>
        <time>2021-08-14T20:00:43Z</time>
      </trkpt>
      <trkpt lat="45.63103" lon="2.92507">
        <ele>1085.47</ele>
        <time>2021-08-14T20:00:52Z</time>
      </trkpt>
      <trkpt lat="45.63086" lon="2.92512">
        <ele>1086.43</ele>
        <time>2021-08-14T20:00:59Z</time>
      </trkpt>
      <trkpt lat="45.63066" lon="2.92516">
        <ele>1085.95</ele>
        <time>2021-08-14T20:01:07Z</time>
      </trkpt>
      <trkpt lat="45.63043" lon="2.92522">
        <ele>1085.95</ele>
        <time>2021-08-14T20:01:17Z</time>
      </trkpt>
      <trkpt lat="45.63031" lon="2.92522">
        <ele>1085.95</ele>
        <time>2021-08-14T20:01:23Z</time>
      </trkpt>
      <trkpt lat="45.63029" lon="2.92523">
        <ele>1085.95</ele>
        <time>2021-08-14T20:01:28Z</time>
      </trkpt>
      <trkpt lat="45.63027" lon="2.92526">
        <ele>1085.95</ele>
        <time>2021-08-14T20:01:31Z</time>
      </trkpt>
      <trkpt lat="45.63026" lon="2.92527">
        <ele>1085.95</ele>
        <time>2021-08-14T20:01:32Z</time>
      </trkpt>
      <trkpt lat="45.63024" lon="2.92529">
        <ele>1085.95</ele>
        <time>2021-08-14T20:01:33Z</time>
      </trkpt>
      <trkpt lat="45.63022" lon="2.9253">
        <ele>1085.95</ele>
        <time>2021-08-14T20:01:34Z</time>
      </trkpt>
      <trkpt lat="45.63018" lon="2.92531">
        <ele>1085.95</ele>
        <time>2021-08-14T20:01:35Z</time>
      </trkpt>
      <trkpt lat="45.62991" lon="2.92537">
        <ele>1085.95</ele>
        <time>2021-08-14T20:01:43Z</time>
      </trkpt>
      <trkpt lat="45.62968" lon="2.92541">
        <ele>1085.95</ele>
        <time>2021-08-14T20:01:50Z</time>
      </trkpt>
      <trkpt lat="45.62942" lon="2.9255">
        <ele>1085.95</ele>
        <time>2021-08-14T20:01:57Z</time>
      </trkpt>
      <trkpt lat="45.62917" lon="2.92557">
        <ele>1085.95</ele>
        <time>2021-08-14T20:02:04Z</time>
      </trkpt>
      <trkpt lat="45.62884" lon="2.92565">
        <ele>1085.95</ele>
        <time>2021-08-14T20:02:13Z</time>
      </trkpt>
      <trkpt lat="45.62855" lon="2.92573">
        <ele>1085.95</ele>
        <time>2021-08-14T20:02:21Z</time>
      </trkpt>
      <trkpt lat="45.62826" lon="2.92581">
        <ele>1086.43</ele>
        <time>2021-08-14T20:02:29Z</time>
      </trkpt>
      <trkpt lat="45.62789" lon="2.92589">
        <ele>1086.91</ele>
        <time>2021-08-14T20:02:38Z</time>
      </trkpt>
      <trkpt lat="45.62766" lon="2.92594">
        <ele>1084.99</ele>
        <time>2021-08-14T20:02:43Z</time>
      </trkpt>
      <trkpt lat="45.6274" lon="2.92601">
        <ele>1081.62</ele>
        <time>2021-08-14T20:02:48Z</time>
      </trkpt>
      <trkpt lat="45.6273" lon="2.92605">
        <ele>1080.18</ele>
        <time>2021-08-14T20:02:50Z</time>
      </trkpt>
      <trkpt lat="45.62714" lon="2.92616">
        <ele>1077.78</ele>
        <time>2021-08-14T20:02:56Z</time>
      </trkpt>
      <trkpt lat="45.62711" lon="2.92618">
        <ele>1077.78</ele>
        <time>2021-08-14T20:02:57Z</time>
      </trkpt>
      <trkpt lat="45.62707" lon="2.9262">
        <ele>1076.33</ele>
        <time>2021-08-14T20:02:58Z</time>
      </trkpt>
      <trkpt lat="45.62702" lon="2.92621">
        <ele>1075.85</ele>
        <time>2021-08-14T20:02:59Z</time>
      </trkpt>
      <trkpt lat="45.62697" lon="2.92622">
        <ele>1074.89</ele>
        <time>2021-08-14T20:03:00Z</time>
      </trkpt>
      <trkpt lat="45.62692" lon="2.92625">
        <ele>1074.41</ele>
        <time>2021-08-14T20:03:01Z</time>
      </trkpt>
      <trkpt lat="45.62687" lon="2.92628">
        <ele>1073.45</ele>
        <time>2021-08-14T20:03:02Z</time>
      </trkpt>
      <trkpt lat="45.62662" lon="2.9264">
        <ele>1070.08</ele>
        <time>2021-08-14T20:03:07Z</time>
      </trkpt>
      <trkpt lat="45.62639" lon="2.9265">
        <ele>1067.2</ele>
        <time>2021-08-14T20:03:12Z</time>
      </trkpt>
      <trkpt lat="45.62615" lon="2.92656">
        <ele>1065.76</ele>
        <time>2021-08-14T20:03:19Z</time>
      </trkpt>
      <trkpt lat="45.62613" lon="2.92655">
        <ele>1065.28</ele>
        <time>2021-08-14T20:03:20Z</time>
      </trkpt>
      <trkpt lat="45.62611" lon="2.92655">
        <ele>1065.28</ele>
        <time>2021-08-14T20:03:21Z</time>
      </trkpt>
      <trkpt lat="45.6261" lon="2.92657">
        <ele>1065.28</ele>
        <time>2021-08-14T20:03:22Z</time>
      </trkpt>
      <trkpt lat="45.62609" lon="2.92659">
        <ele>1065.76</ele>
        <time>2021-08-14T20:03:23Z</time>
      </trkpt>
      <trkpt lat="45.62607" lon="2.92662">
        <ele>1065.28</ele>
        <time>2021-08-14T20:03:24Z</time>
      </trkpt>
      <trkpt lat="45.62605" lon="2.92666">
        <ele>1065.28</ele>
        <time>2021-08-14T20:03:25Z</time>
      </trkpt>
      <trkpt lat="45.62603" lon="2.92669">
        <ele>1065.28</ele>
        <time>2021-08-14T20:03:26Z</time>
      </trkpt>
      <trkpt lat="45.62601" lon="2.92672">
        <ele>1065.28</ele>
        <time>2021-08-14T20:03:27Z</time>
      </trkpt>
      <trkpt lat="45.6258" lon="2.92702">
        <ele>1064.32</ele>
        <time>2021-08-14T20:03:35Z</time>
      </trkpt>
      <trkpt lat="45.62557" lon="2.92725">
        <ele>1063.84</ele>
        <time>2021-08-14T20:03:43Z</time>
      </trkpt>
      <trkpt lat="45.62528" lon="2.92739">
        <ele>1063.84</ele>
        <time>2021-08-14T20:03:51Z</time>
      </trkpt>
      <trkpt lat="45.62499" lon="2.92753">
        <ele>1063.84</ele>
        <time>2021-08-14T20:03:59Z</time>
      </trkpt>
      <trkpt lat="45.62485" lon="2.92765">
        <ele>1063.36</ele>
        <time>2021-08-14T20:04:03Z</time>
      </trkpt>
      <trkpt lat="45.62478" lon="2.92772">
        <ele>1063.36</ele>
        <time>2021-08-14T20:04:05Z</time>
      </trkpt>
      <trkpt lat="45.6245" lon="2.92802">
        <ele>1063.36</ele>
        <time>2021-08-14T20:04:14Z</time>
      </trkpt>
      <trkpt lat="45.62443" lon="2.92807">
        <ele>1063.36</ele>
        <time>2021-08-14T20:04:16Z</time>
      </trkpt>
      <trkpt lat="45.62439" lon="2.9281">
        <ele>1063.36</ele>
        <time>2021-08-14T20:04:17Z</time>
      </trkpt>
      <trkpt lat="45.62424" lon="2.92819">
        <ele>1062.87</ele>
        <time>2021-08-14T20:04:21Z</time>
      </trkpt>
      <trkpt lat="45.62413" lon="2.92828">
        <ele>1062.87</ele>
        <time>2021-08-14T20:04:24Z</time>
      </trkpt>
      <trkpt lat="45.6241" lon="2.92832">
        <ele>1062.39</ele>
        <time>2021-08-14T20:04:25Z</time>
      </trkpt>
      <trkpt lat="45.624" lon="2.92843">
        <ele>1061.91</ele>
        <time>2021-08-14T20:04:28Z</time>
      </trkpt>
      <trkpt lat="45.62377" lon="2.92871">
        <ele>1060.47</ele>
        <time>2021-08-14T20:04:36Z</time>
      </trkpt>
      <trkpt lat="45.62362" lon="2.92902">
        <ele>1059.03</ele>
        <time>2021-08-14T20:04:44Z</time>
      </trkpt>
      <trkpt lat="45.62361" lon="2.9292">
        <ele>1060.95</ele>
        <time>2021-08-14T20:04:50Z</time>
      </trkpt>
      <trkpt lat="45.62361" lon="2.92925">
        <ele>1060.95</ele>
        <time>2021-08-14T20:04:52Z</time>
      </trkpt>
      <trkpt lat="45.62361" lon="2.92928">
        <ele>1060.95</ele>
        <time>2021-08-14T20:04:53Z</time>
      </trkpt>
      <trkpt lat="45.6236" lon="2.92931">
        <ele>1060.95</ele>
        <time>2021-08-14T20:04:54Z</time>
      </trkpt>
      <trkpt lat="45.62352" lon="2.9296">
        <ele>1059.03</ele>
        <time>2021-08-14T20:05:00Z</time>
      </trkpt>
      <trkpt lat="45.62343" lon="2.92989">
        <ele>1058.07</ele>
        <time>2021-08-14T20:05:07Z</time>
      </trkpt>
      <trkpt lat="45.62338" lon="2.92993">
        <ele>1057.59</ele>
        <time>2021-08-14T20:05:10Z</time>
      </trkpt>
      <trkpt lat="45.62336" lon="2.92993">
        <ele>1057.59</ele>
        <time>2021-08-14T20:05:11Z</time>
      </trkpt>
      <trkpt lat="45.62335" lon="2.92993">
        <ele>1057.11</ele>
        <time>2021-08-14T20:05:12Z</time>
      </trkpt>
      <trkpt lat="45.62334" lon="2.92994">
        <ele>1057.11</ele>
        <time>2021-08-14T20:05:13Z</time>
      </trkpt>
      <trkpt lat="45.62334" lon="2.92994">
        <ele>1056.63</ele>
        <time>2021-08-14T20:05:19Z</time>
      </trkpt>
      <trkpt lat="45.62332" lon="2.92998">
        <ele>1056.63</ele>
        <time>2021-08-14T20:05:25Z</time>
      </trkpt>
      <trkpt lat="45.62332" lon="2.92999">
        <ele>1056.63</ele>
        <time>2021-08-14T20:05:26Z</time>
      </trkpt>
      <trkpt lat="45.62334" lon="2.93001">
        <ele>1056.63</ele>
        <time>2021-08-14T20:05:29Z</time>
      </trkpt>
      <trkpt lat="45.62334" lon="2.93004">
        <ele>1056.63</ele>
        <time>2021-08-14T20:05:30Z</time>
      </trkpt>
      <trkpt lat="45.62335" lon="2.93007">
        <ele>1056.63</ele>
        <time>2021-08-14T20:05:31Z</time>
      </trkpt>
      <trkpt lat="45.62334" lon="2.9301">
        <ele>1056.63</ele>
        <time>2021-08-14T20:05:32Z</time>
      </trkpt>
      <trkpt lat="45.62333" lon="2.93014">
        <ele>1056.63</ele>
        <time>2021-08-14T20:05:33Z</time>
      </trkpt>
      <trkpt lat="45.62332" lon="2.93017">
        <ele>1056.63</ele>
        <time>2021-08-14T20:05:34Z</time>
      </trkpt>
      <trkpt lat="45.6233" lon="2.9302">
        <ele>1056.63</ele>
        <time>2021-08-14T20:05:35Z</time>
      </trkpt>
      <trkpt lat="45.62328" lon="2.93024">
        <ele>1056.15</ele>
        <time>2021-08-14T20:05:36Z</time>
      </trkpt>
      <trkpt lat="45.62327" lon="2.93027">
        <ele>1056.15</ele>
        <time>2021-08-14T20:05:37Z</time>
      </trkpt>
      <trkpt lat="45.62326" lon="2.9303">
        <ele>1056.15</ele>
        <time>2021-08-14T20:05:38Z</time>
      </trkpt>
      <trkpt lat="45.62325" lon="2.93032">
        <ele>1055.67</ele>
        <time>2021-08-14T20:05:39Z</time>
      </trkpt>
      <trkpt lat="45.62323" lon="2.93034">
        <ele>1055.67</ele>
        <time>2021-08-14T20:05:40Z</time>
      </trkpt>
      <trkpt lat="45.62322" lon="2.93035">
        <ele>1055.18</ele>
        <time>2021-08-14T20:05:41Z</time>
      </trkpt>
      <trkpt lat="45.6232" lon="2.93035">
        <ele>1055.18</ele>
        <time>2021-08-14T20:05:42Z</time>
      </trkpt>
      <trkpt lat="45.62316" lon="2.93035">
        <ele>1054.7</ele>
        <time>2021-08-14T20:05:43Z</time>
      </trkpt>
      <trkpt lat="45.62313" lon="2.93035">
        <ele>1054.7</ele>
        <time>2021-08-14T20:05:44Z</time>
      </trkpt>
      <trkpt lat="45.6231" lon="2.93034">
        <ele>1054.22</ele>
        <time>2021-08-14T20:05:45Z</time>
      </trkpt>
      <trkpt lat="45.62289" lon="2.93026">
        <ele>1050.86</ele>
        <time>2021-08-14T20:05:51Z</time>
      </trkpt>
      <trkpt lat="45.62268" lon="2.93016">
        <ele>1047.97</ele>
        <time>2021-08-14T20:05:58Z</time>
      </trkpt>
      <trkpt lat="45.6226" lon="2.93006">
        <ele>1046.05</ele>
        <time>2021-08-14T20:06:04Z</time>
      </trkpt>
      <trkpt lat="45.6226" lon="2.93005">
        <ele>1046.53</ele>
        <time>2021-08-14T20:06:12Z</time>
      </trkpt>
      <trkpt lat="45.6226" lon="2.93007">
        <ele>1046.53</ele>
        <time>2021-08-14T20:06:23Z</time>
      </trkpt>
      <trkpt lat="45.6226" lon="2.93005">
        <ele>1046.53</ele>
        <time>2021-08-14T20:06:37Z</time>
      </trkpt>
      <trkpt lat="45.62258" lon="2.93006">
        <ele>1046.53</ele>
        <time>2021-08-14T20:06:45Z</time>
      </trkpt>
      <trkpt lat="45.62256" lon="2.93005">
        <ele>1046.53</ele>
        <time>2021-08-14T20:06:46Z</time>
      </trkpt>
      <trkpt lat="45.62254" lon="2.93004">
        <ele>1046.05</ele>
        <time>2021-08-14T20:06:47Z</time>
      </trkpt>
      <trkpt lat="45.62252" lon="2.93002">
        <ele>1045.57</ele>
        <time>2021-08-14T20:06:48Z</time>
      </trkpt>
      <trkpt lat="45.62249" lon="2.93">
        <ele>1045.57</ele>
        <time>2021-08-14T20:06:49Z</time>
      </trkpt>
      <trkpt lat="45.62245" lon="2.92998">
        <ele>1044.61</ele>
        <time>2021-08-14T20:06:50Z</time>
      </trkpt>
      <trkpt lat="45.62239" lon="2.92994">
        <ele>1043.65</ele>
        <time>2021-08-14T20:06:54Z</time>
      </trkpt>
      <trkpt lat="45.62238" lon="2.92994">
        <ele>1043.17</ele>
        <time>2021-08-14T20:07:00Z</time>
      </trkpt>
      <trkpt lat="45.62238" lon="2.92992">
        <ele>1042.69</ele>
        <time>2021-08-14T20:07:01Z</time>
      </trkpt>
      <trkpt lat="45.62239" lon="2.92991">
        <ele>1042.69</ele>
        <time>2021-08-14T20:07:02Z</time>
      </trkpt>
      <trkpt lat="45.62241" lon="2.92991">
        <ele>1042.69</ele>
        <time>2021-08-14T20:07:03Z</time>
      </trkpt>
      <trkpt lat="45.62243" lon="2.92993">
        <ele>1043.17</ele>
        <time>2021-08-14T20:07:08Z</time>
      </trkpt>
      <trkpt lat="45.62243" lon="2.92994">
        <ele>1043.17</ele>
        <time>2021-08-14T20:07:09Z</time>
      </trkpt>
      <trkpt lat="45.62244" lon="2.92995">
        <ele>1043.17</ele>
        <time>2021-08-14T20:07:10Z</time>
      </trkpt>
      <trkpt lat="45.62245" lon="2.92997">
        <ele>1043.17</ele>
        <time>2021-08-14T20:07:11Z</time>
      </trkpt>
      <trkpt lat="45.62246" lon="2.92998">
        <ele>1043.17</ele>
        <time>2021-08-14T20:07:12Z</time>
      </trkpt>
      <trkpt lat="45.62247" lon="2.92999">
        <ele>1044.61</ele>
        <time>2021-08-14T20:07:13Z</time>
      </trkpt>
      <trkpt lat="45.62249" lon="2.93">
        <ele>1044.61</ele>
        <time>2021-08-14T20:07:14Z</time>
      </trkpt>
      <trkpt lat="45.62258" lon="2.93006">
        <ele>1046.05</ele>
        <time>2021-08-14T20:07:22Z</time>
      </trkpt>
      <trkpt lat="45.62259" lon="2.93005">
        <ele>1046.05</ele>
        <time>2021-08-14T20:07:23Z</time>
      </trkpt>
      <trkpt lat="45.6226" lon="2.93004">
        <ele>1046.05</ele>
        <time>2021-08-14T20:07:24Z</time>
      </trkpt>
      <trkpt lat="45.62261" lon="2.93">
        <ele>1046.53</ele>
        <time>2021-08-14T20:07:27Z</time>
      </trkpt>
      <trkpt lat="45.62261" lon="2.92999">
        <ele>1047.01</ele>
        <time>2021-08-14T20:07:28Z</time>
      </trkpt>
      <trkpt lat="45.62261" lon="2.92997">
        <ele>1047.01</ele>
        <time>2021-08-14T20:07:29Z</time>
      </trkpt>
      <trkpt lat="45.62261" lon="2.92996">
        <ele>1047.49</ele>
        <time>2021-08-14T20:07:30Z</time>
      </trkpt>
      <trkpt lat="45.62261" lon="2.92994">
        <ele>1047.49</ele>
        <time>2021-08-14T20:07:31Z</time>
      </trkpt>
      <trkpt lat="45.62261" lon="2.92992">
        <ele>1047.49</ele>
        <time>2021-08-14T20:07:32Z</time>
      </trkpt>
      <trkpt lat="45.62261" lon="2.9299">
        <ele>1047.49</ele>
        <time>2021-08-14T20:07:33Z</time>
      </trkpt>
      <trkpt lat="45.62261" lon="2.92988">
        <ele>1047.01</ele>
        <time>2021-08-14T20:07:34Z</time>
      </trkpt>
      <trkpt lat="45.62261" lon="2.92986">
        <ele>1047.49</ele>
        <time>2021-08-14T20:07:35Z</time>
      </trkpt>
      <trkpt lat="45.62261" lon="2.92985">
        <ele>1047.49</ele>
        <time>2021-08-14T20:07:36Z</time>
      </trkpt>
      <trkpt lat="45.62261" lon="2.92983">
        <ele>1047.49</ele>
        <time>2021-08-14T20:07:37Z</time>
      </trkpt>
      <trkpt lat="45.62261" lon="2.92981">
        <ele>1047.49</ele>
        <time>2021-08-14T20:07:38Z</time>
      </trkpt>
      <trkpt lat="45.62262" lon="2.9298">
        <ele>1047.97</ele>
        <time>2021-08-14T20:07:39Z</time>
      </trkpt>
      <trkpt lat="45.62262" lon="2.92978">
        <ele>1047.97</ele>
        <time>2021-08-14T20:07:40Z</time>
      </trkpt>
      <trkpt lat="45.62262" lon="2.92976">
        <ele>1047.97</ele>
        <time>2021-08-14T20:07:41Z</time>
      </trkpt>
      <trkpt lat="45.62262" lon="2.92975">
        <ele>1047.97</ele>
        <time>2021-08-14T20:07:42Z</time>
      </trkpt>
      <trkpt lat="45.62266" lon="2.92964">
        <ele>1049.42</ele>
        <time>2021-08-14T20:07:52Z</time>
      </trkpt>
      <trkpt lat="45.62273" lon="2.92956">
        <ele>1049.9</ele>
        <time>2021-08-14T20:08:02Z</time>
      </trkpt>
      <trkpt lat="45.62281" lon="2.92955">
        <ele>1050.86</ele>
        <time>2021-08-14T20:08:12Z</time>
      </trkpt>
      <trkpt lat="45.6228" lon="2.92954">
        <ele>1051.34</ele>
        <time>2021-08-14T20:08:17Z</time>
      </trkpt>
      <trkpt lat="45.62278" lon="2.92955">
        <ele>1051.34</ele>
        <time>2021-08-14T20:08:21Z</time>
      </trkpt>
      <trkpt lat="45.62277" lon="2.92954">
        <ele>1051.34</ele>
        <time>2021-08-14T20:08:22Z</time>
      </trkpt>
      <trkpt lat="45.62274" lon="2.92954">
        <ele>1051.34</ele>
        <time>2021-08-14T20:08:23Z</time>
      </trkpt>
      <trkpt lat="45.62273" lon="2.92956">
        <ele>1050.38</ele>
        <time>2021-08-14T20:08:24Z</time>
      </trkpt>
      <trkpt lat="45.62271" lon="2.92959">
        <ele>1050.38</ele>
        <time>2021-08-14T20:08:25Z</time>
      </trkpt>
      <trkpt lat="45.62269" lon="2.92963">
        <ele>1049.9</ele>
        <time>2021-08-14T20:08:26Z</time>
      </trkpt>
      <trkpt lat="45.62264" lon="2.92972">
        <ele>1048.94</ele>
        <time>2021-08-14T20:08:28Z</time>
      </trkpt>
      <trkpt lat="45.62261" lon="2.92979">
        <ele>1047.97</ele>
        <time>2021-08-14T20:08:30Z</time>
      </trkpt>
      <trkpt lat="45.62259" lon="2.92979">
        <ele>1047.49</ele>
        <time>2021-08-14T20:08:31Z</time>
      </trkpt>
      <trkpt lat="45.62258" lon="2.92978">
        <ele>1047.49</ele>
        <time>2021-08-14T20:08:32Z</time>
      </trkpt>
      <trkpt lat="45.62259" lon="2.92974">
        <ele>1047.49</ele>
        <time>2021-08-14T20:08:37Z</time>
      </trkpt>
      <trkpt lat="45.62263" lon="2.92973">
        <ele>1047.49</ele>
        <time>2021-08-14T20:08:48Z</time>
      </trkpt>
      <trkpt lat="45.62264" lon="2.92972">
        <ele>1047.49</ele>
        <time>2021-08-14T20:08:49Z</time>
      </trkpt>
      <trkpt lat="45.62266" lon="2.92967">
        <ele>1048.94</ele>
        <time>2021-08-14T20:08:53Z</time>
      </trkpt>
      <trkpt lat="45.62274" lon="2.92957">
        <ele>1050.38</ele>
        <time>2021-08-14T20:09:03Z</time>
      </trkpt>
      <trkpt lat="45.62284" lon="2.92954">
        <ele>1051.34</ele>
        <time>2021-08-14T20:09:12Z</time>
      </trkpt>
      <trkpt lat="45.62295" lon="2.92954">
        <ele>1052.78</ele>
        <time>2021-08-14T20:09:22Z</time>
      </trkpt>
    </trkseg>
  </trk>
  <trk>
    <name><![CDATA[09 FD]]></name>
    <trkseg>
      <trkpt lat="45.62281" lon="2.92952">
        <ele>1043.17</ele>
        <time>2021-08-15T03:23:14Z</time>
      </trkpt>
      <trkpt lat="45.62279" lon="2.92953">
        <ele>1042.69</ele>
        <time>2021-08-15T03:23:15Z</time>
      </trkpt>
      <trkpt lat="45.62277" lon="2.92954">
        <ele>1042.21</ele>
        <time>2021-08-15T03:23:16Z</time>
      </trkpt>
      <trkpt lat="45.62271" lon="2.92955">
        <ele>1041.25</ele>
        <time>2021-08-15T03:23:20Z</time>
      </trkpt>
      <trkpt lat="45.6227" lon="2.92957">
        <ele>1041.25</ele>
        <time>2021-08-15T03:23:21Z</time>
      </trkpt>
      <trkpt lat="45.62269" lon="2.92959">
        <ele>1041.25</ele>
        <time>2021-08-15T03:23:22Z</time>
      </trkpt>
      <trkpt lat="45.62266" lon="2.92963">
        <ele>1040.28</ele>
        <time>2021-08-15T03:23:24Z</time>
      </trkpt>
      <trkpt lat="45.62264" lon="2.92963">
        <ele>1040.76</ele>
        <time>2021-08-15T03:23:29Z</time>
      </trkpt>
      <trkpt lat="45.62266" lon="2.92959">
        <ele>1040.76</ele>
        <time>2021-08-15T03:23:42Z</time>
      </trkpt>
      <trkpt lat="45.62265" lon="2.9296">
        <ele>1040.28</ele>
        <time>2021-08-15T03:23:44Z</time>
      </trkpt>
      <trkpt lat="45.62264" lon="2.92962">
        <ele>1040.28</ele>
        <time>2021-08-15T03:23:45Z</time>
      </trkpt>
      <trkpt lat="45.62263" lon="2.92965">
        <ele>1039.8</ele>
        <time>2021-08-15T03:23:46Z</time>
      </trkpt>
      <trkpt lat="45.62262" lon="2.92967">
        <ele>1039.8</ele>
        <time>2021-08-15T03:23:47Z</time>
      </trkpt>
      <trkpt lat="45.62259" lon="2.92967">
        <ele>1038.84</ele>
        <time>2021-08-15T03:23:48Z</time>
      </trkpt>
      <trkpt lat="45.62258" lon="2.92966">
        <ele>1038.84</ele>
        <time>2021-08-15T03:23:49Z</time>
      </trkpt>
      <trkpt lat="45.62258" lon="2.92964">
        <ele>1038.84</ele>
        <time>2021-08-15T03:23:50Z</time>
      </trkpt>
      <trkpt lat="45.62258" lon="2.92962">
        <ele>1038.84</ele>
        <time>2021-08-15T03:23:51Z</time>
      </trkpt>
      <trkpt lat="45.62258" lon="2.92961">
        <ele>1038.84</ele>
        <time>2021-08-15T03:23:52Z</time>
      </trkpt>
      <trkpt lat="45.62258" lon="2.9296">
        <ele>1038.84</ele>
        <time>2021-08-15T03:23:53Z</time>
      </trkpt>
      <trkpt lat="45.62256" lon="2.92961">
        <ele>1038.36</ele>
        <time>2021-08-15T03:23:55Z</time>
      </trkpt>
      <trkpt lat="45.62256" lon="2.92962">
        <ele>1038.36</ele>
        <time>2021-08-15T03:23:56Z</time>
      </trkpt>
      <trkpt lat="45.62256" lon="2.92964">
        <ele>1038.36</ele>
        <time>2021-08-15T03:23:57Z</time>
      </trkpt>
      <trkpt lat="45.62258" lon="2.92972">
        <ele>1038.36</ele>
        <time>2021-08-15T03:24:01Z</time>
      </trkpt>
      <trkpt lat="45.62259" lon="2.92974">
        <ele>1038.36</ele>
        <time>2021-08-15T03:24:02Z</time>
      </trkpt>
      <trkpt lat="45.6226" lon="2.92976">
        <ele>1038.36</ele>
        <time>2021-08-15T03:24:03Z</time>
      </trkpt>
      <trkpt lat="45.6226" lon="2.92978">
        <ele>1038.36</ele>
        <time>2021-08-15T03:24:04Z</time>
      </trkpt>
      <trkpt lat="45.62259" lon="2.92981">
        <ele>1038.36</ele>
        <time>2021-08-15T03:24:05Z</time>
      </trkpt>
      <trkpt lat="45.62259" lon="2.92985">
        <ele>1038.36</ele>
        <time>2021-08-15T03:24:06Z</time>
      </trkpt>
      <trkpt lat="45.6226" lon="2.92999">
        <ele>1037.88</ele>
        <time>2021-08-15T03:24:10Z</time>
      </trkpt>
      <trkpt lat="45.62258" lon="2.93002">
        <ele>1037.4</ele>
        <time>2021-08-15T03:24:11Z</time>
      </trkpt>
      <trkpt lat="45.62256" lon="2.93002">
        <ele>1037.4</ele>
        <time>2021-08-15T03:24:12Z</time>
      </trkpt>
      <trkpt lat="45.62254" lon="2.93002">
        <ele>1036.92</ele>
        <time>2021-08-15T03:24:13Z</time>
      </trkpt>
      <trkpt lat="45.62252" lon="2.93001">
        <ele>1036.92</ele>
        <time>2021-08-15T03:24:14Z</time>
      </trkpt>
      <trkpt lat="45.62249" lon="2.92999">
        <ele>1036.44</ele>
        <time>2021-08-15T03:24:15Z</time>
      </trkpt>
      <trkpt lat="45.62231" lon="2.92984">
        <ele>1034.04</ele>
        <time>2021-08-15T03:24:20Z</time>
      </trkpt>
      <trkpt lat="45.62215" lon="2.92966">
        <ele>1031.15</ele>
        <time>2021-08-15T03:24:23Z</time>
      </trkpt>
      <trkpt lat="45.622" lon="2.9295">
        <ele>1028.27</ele>
        <time>2021-08-15T03:24:26Z</time>
      </trkpt>
      <trkpt lat="45.62186" lon="2.9293">
        <ele>1025.38</ele>
        <time>2021-08-15T03:24:29Z</time>
      </trkpt>
      <trkpt lat="45.62182" lon="2.92922">
        <ele>1024.42</ele>
        <time>2021-08-15T03:24:30Z</time>
      </trkpt>
      <trkpt lat="45.6218" lon="2.92914">
        <ele>1023.94</ele>
        <time>2021-08-15T03:24:31Z</time>
      </trkpt>
      <trkpt lat="45.62179" lon="2.92905">
        <ele>1022.98</ele>
        <time>2021-08-15T03:24:32Z</time>
      </trkpt>
      <trkpt lat="45.62178" lon="2.92897">
        <ele>1021.54</ele>
        <time>2021-08-15T03:24:33Z</time>
      </trkpt>
      <trkpt lat="45.62176" lon="2.92889">
        <ele>1021.54</ele>
        <time>2021-08-15T03:24:34Z</time>
      </trkpt>
      <trkpt lat="45.62172" lon="2.92865">
        <ele>1021.54</ele>
        <time>2021-08-15T03:24:37Z</time>
      </trkpt>
      <trkpt lat="45.62169" lon="2.9285">
        <ele>1020.1</ele>
        <time>2021-08-15T03:24:39Z</time>
      </trkpt>
      <trkpt lat="45.62167" lon="2.92843">
        <ele>1019.62</ele>
        <time>2021-08-15T03:24:40Z</time>
      </trkpt>
      <trkpt lat="45.62165" lon="2.92837">
        <ele>1020.1</ele>
        <time>2021-08-15T03:24:41Z</time>
      </trkpt>
      <trkpt lat="45.62163" lon="2.92831">
        <ele>1019.13</ele>
        <time>2021-08-15T03:24:42Z</time>
      </trkpt>
      <trkpt lat="45.62161" lon="2.92825">
        <ele>1019.13</ele>
        <time>2021-08-15T03:24:43Z</time>
      </trkpt>
      <trkpt lat="45.62159" lon="2.9282">
        <ele>1019.62</ele>
        <time>2021-08-15T03:24:44Z</time>
      </trkpt>
      <trkpt lat="45.62156" lon="2.92816">
        <ele>1020.58</ele>
        <time>2021-08-15T03:24:48Z</time>
      </trkpt>
      <trkpt lat="45.62156" lon="2.92816">
        <ele>1020.58</ele>
        <time>2021-08-15T03:24:49Z</time>
      </trkpt>
      <trkpt lat="45.62156" lon="2.92816">
        <ele>1020.58</ele>
        <time>2021-08-15T03:25:08Z</time>
      </trkpt>
      <trkpt lat="45.62155" lon="2.92818">
        <ele>1020.58</ele>
        <time>2021-08-15T03:25:15Z</time>
      </trkpt>
      <trkpt lat="45.62156" lon="2.9282">
        <ele>1020.58</ele>
        <time>2021-08-15T03:25:16Z</time>
      </trkpt>
      <trkpt lat="45.62157" lon="2.92822">
        <ele>1020.58</ele>
        <time>2021-08-15T03:25:17Z</time>
      </trkpt>
      <trkpt lat="45.62158" lon="2.92823">
        <ele>1020.58</ele>
        <time>2021-08-15T03:25:18Z</time>
      </trkpt>
      <trkpt lat="45.62159" lon="2.92825">
        <ele>1021.06</ele>
        <time>2021-08-15T03:25:19Z</time>
      </trkpt>
      <trkpt lat="45.6216" lon="2.92827">
        <ele>1021.06</ele>
        <time>2021-08-15T03:25:20Z</time>
      </trkpt>
      <trkpt lat="45.62161" lon="2.9283">
        <ele>1021.06</ele>
        <time>2021-08-15T03:25:21Z</time>
      </trkpt>
      <trkpt lat="45.62162" lon="2.92833">
        <ele>1021.06</ele>
        <time>2021-08-15T03:25:22Z</time>
      </trkpt>
      <trkpt lat="45.62167" lon="2.92856">
        <ele>1022.02</ele>
        <time>2021-08-15T03:25:29Z</time>
      </trkpt>
      <trkpt lat="45.62166" lon="2.92858">
        <ele>1022.02</ele>
        <time>2021-08-15T03:25:30Z</time>
      </trkpt>
      <trkpt lat="45.62164" lon="2.9286">
        <ele>1022.5</ele>
        <time>2021-08-15T03:25:31Z</time>
      </trkpt>
      <trkpt lat="45.62161" lon="2.92861">
        <ele>1022.5</ele>
        <time>2021-08-15T03:25:32Z</time>
      </trkpt>
      <trkpt lat="45.62158" lon="2.92861">
        <ele>1022.5</ele>
        <time>2021-08-15T03:25:33Z</time>
      </trkpt>
      <trkpt lat="45.62137" lon="2.92864">
        <ele>1021.06</ele>
        <time>2021-08-15T03:25:39Z</time>
      </trkpt>
      <trkpt lat="45.62113" lon="2.92869">
        <ele>1020.58</ele>
        <time>2021-08-15T03:25:47Z</time>
      </trkpt>
      <trkpt lat="45.62092" lon="2.92874">
        <ele>1021.54</ele>
        <time>2021-08-15T03:25:55Z</time>
      </trkpt>
      <trkpt lat="45.62076" lon="2.92876">
        <ele>1022.98</ele>
        <time>2021-08-15T03:26:04Z</time>
      </trkpt>
      <trkpt lat="45.62066" lon="2.9288">
        <ele>1024.42</ele>
        <time>2021-08-15T03:26:10Z</time>
      </trkpt>
      <trkpt lat="45.62065" lon="2.92882">
        <ele>1023.94</ele>
        <time>2021-08-15T03:26:11Z</time>
      </trkpt>
      <trkpt lat="45.62062" lon="2.92903">
        <ele>1023.94</ele>
        <time>2021-08-15T03:26:18Z</time>
      </trkpt>
      <trkpt lat="45.62063" lon="2.92933">
        <ele>1022.5</ele>
        <time>2021-08-15T03:26:24Z</time>
      </trkpt>
      <trkpt lat="45.62063" lon="2.92939">
        <ele>1022.5</ele>
        <time>2021-08-15T03:26:25Z</time>
      </trkpt>
      <trkpt lat="45.62064" lon="2.92991">
        <ele>1020.1</ele>
        <time>2021-08-15T03:26:33Z</time>
      </trkpt>
      <trkpt lat="45.62065" lon="2.9306">
        <ele>1018.65</ele>
        <time>2021-08-15T03:26:41Z</time>
      </trkpt>
      <trkpt lat="45.62063" lon="2.93084">
        <ele>1018.65</ele>
        <time>2021-08-15T03:26:44Z</time>
      </trkpt>
      <trkpt lat="45.62055" lon="2.93122">
        <ele>1018.65</ele>
        <time>2021-08-15T03:26:49Z</time>
      </trkpt>
      <trkpt lat="45.62043" lon="2.93186">
        <ele>1017.69</ele>
        <time>2021-08-15T03:26:58Z</time>
      </trkpt>
      <trkpt lat="45.62035" lon="2.93234">
        <ele>1017.69</ele>
        <time>2021-08-15T03:27:05Z</time>
      </trkpt>
      <trkpt lat="45.62034" lon="2.93241">
        <ele>1017.69</ele>
        <time>2021-08-15T03:27:06Z</time>
      </trkpt>
      <trkpt lat="45.62033" lon="2.93248">
        <ele>1017.69</ele>
        <time>2021-08-15T03:27:07Z</time>
      </trkpt>
      <trkpt lat="45.62032" lon="2.93295">
        <ele>1016.73</ele>
        <time>2021-08-15T03:27:13Z</time>
      </trkpt>
      <trkpt lat="45.62031" lon="2.93332">
        <ele>1016.73</ele>
        <time>2021-08-15T03:27:19Z</time>
      </trkpt>
      <trkpt lat="45.62025" lon="2.93353">
        <ele>1019.13</ele>
        <time>2021-08-15T03:27:25Z</time>
      </trkpt>
      <trkpt lat="45.62024" lon="2.93355">
        <ele>1019.13</ele>
        <time>2021-08-15T03:27:26Z</time>
      </trkpt>
      <trkpt lat="45.62023" lon="2.93357">
        <ele>1019.13</ele>
        <time>2021-08-15T03:27:27Z</time>
      </trkpt>
      <trkpt lat="45.62022" lon="2.93359">
        <ele>1019.13</ele>
        <time>2021-08-15T03:27:28Z</time>
      </trkpt>
      <trkpt lat="45.62021" lon="2.9336">
        <ele>1019.13</ele>
        <time>2021-08-15T03:27:29Z</time>
      </trkpt>
      <trkpt lat="45.62021" lon="2.93362">
        <ele>1019.13</ele>
        <time>2021-08-15T03:27:30Z</time>
      </trkpt>
      <trkpt lat="45.62019" lon="2.93364">
        <ele>1019.13</ele>
        <time>2021-08-15T03:27:31Z</time>
      </trkpt>
      <trkpt lat="45.62018" lon="2.93366">
        <ele>1019.62</ele>
        <time>2021-08-15T03:27:32Z</time>
      </trkpt>
      <trkpt lat="45.62017" lon="2.93368">
        <ele>1019.62</ele>
        <time>2021-08-15T03:27:33Z</time>
      </trkpt>
      <trkpt lat="45.62016" lon="2.9337">
        <ele>1019.62</ele>
        <time>2021-08-15T03:27:34Z</time>
      </trkpt>
      <trkpt lat="45.62015" lon="2.93372">
        <ele>1019.62</ele>
        <time>2021-08-15T03:27:35Z</time>
      </trkpt>
      <trkpt lat="45.62014" lon="2.93374">
        <ele>1019.62</ele>
        <time>2021-08-15T03:27:36Z</time>
      </trkpt>
      <trkpt lat="45.62014" lon="2.93376">
        <ele>1019.62</ele>
        <time>2021-08-15T03:27:37Z</time>
      </trkpt>
      <trkpt lat="45.62003" lon="2.93396">
        <ele>1021.54</ele>
        <time>2021-08-15T03:27:49Z</time>
      </trkpt>
      <trkpt lat="45.61995" lon="2.93409">
        <ele>1022.98</ele>
        <time>2021-08-15T03:27:58Z</time>
      </trkpt>
      <trkpt lat="45.61987" lon="2.93423">
        <ele>1023.94</ele>
        <time>2021-08-15T03:28:07Z</time>
      </trkpt>
      <trkpt lat="45.61979" lon="2.93437">
        <ele>1024.42</ele>
        <time>2021-08-15T03:28:16Z</time>
      </trkpt>
      <trkpt lat="45.61972" lon="2.93451">
        <ele>1025.86</ele>
        <time>2021-08-15T03:28:25Z</time>
      </trkpt>
      <trkpt lat="45.61964" lon="2.93464">
        <ele>1026.34</ele>
        <time>2021-08-15T03:28:34Z</time>
      </trkpt>
      <trkpt lat="45.61956" lon="2.93474">
        <ele>1027.31</ele>
        <time>2021-08-15T03:28:42Z</time>
      </trkpt>
      <trkpt lat="45.61956" lon="2.93476">
        <ele>1027.31</ele>
        <time>2021-08-15T03:28:43Z</time>
      </trkpt>
      <trkpt lat="45.61955" lon="2.93478">
        <ele>1027.31</ele>
        <time>2021-08-15T03:28:44Z</time>
      </trkpt>
      <trkpt lat="45.61955" lon="2.93479">
        <ele>1027.79</ele>
        <time>2021-08-15T03:28:45Z</time>
      </trkpt>
      <trkpt lat="45.61954" lon="2.93481">
        <ele>1027.79</ele>
        <time>2021-08-15T03:28:46Z</time>
      </trkpt>
      <trkpt lat="45.61953" lon="2.93482">
        <ele>1027.79</ele>
        <time>2021-08-15T03:28:47Z</time>
      </trkpt>
      <trkpt lat="45.61947" lon="2.93492">
        <ele>1028.27</ele>
        <time>2021-08-15T03:28:54Z</time>
      </trkpt>
      <trkpt lat="45.61946" lon="2.93493">
        <ele>1028.75</ele>
        <time>2021-08-15T03:28:55Z</time>
      </trkpt>
      <trkpt lat="45.61946" lon="2.93495">
        <ele>1028.75</ele>
        <time>2021-08-15T03:28:56Z</time>
      </trkpt>
      <trkpt lat="45.61945" lon="2.93496">
        <ele>1029.23</ele>
        <time>2021-08-15T03:28:57Z</time>
      </trkpt>
      <trkpt lat="45.61944" lon="2.93497">
        <ele>1029.71</ele>
        <time>2021-08-15T03:28:58Z</time>
      </trkpt>
      <trkpt lat="45.61943" lon="2.93498">
        <ele>1029.23</ele>
        <time>2021-08-15T03:28:59Z</time>
      </trkpt>
      <trkpt lat="45.61942" lon="2.93499">
        <ele>1029.23</ele>
        <time>2021-08-15T03:29:00Z</time>
      </trkpt>
      <trkpt lat="45.61941" lon="2.93501">
        <ele>1029.23</ele>
        <time>2021-08-15T03:29:01Z</time>
      </trkpt>
      <trkpt lat="45.61941" lon="2.93502">
        <ele>1029.71</ele>
        <time>2021-08-15T03:29:02Z</time>
      </trkpt>
      <trkpt lat="45.6194" lon="2.93503">
        <ele>1029.71</ele>
        <time>2021-08-15T03:29:03Z</time>
      </trkpt>
      <trkpt lat="45.61939" lon="2.93505">
        <ele>1029.71</ele>
        <time>2021-08-15T03:29:04Z</time>
      </trkpt>
      <trkpt lat="45.61933" lon="2.93514">
        <ele>1031.15</ele>
        <time>2021-08-15T03:29:12Z</time>
      </trkpt>
      <trkpt lat="45.6193" lon="2.93521">
        <ele>1031.15</ele>
        <time>2021-08-15T03:29:16Z</time>
      </trkpt>
      <trkpt lat="45.61929" lon="2.93522">
        <ele>1032.11</ele>
        <time>2021-08-15T03:29:17Z</time>
      </trkpt>
      <trkpt lat="45.61928" lon="2.93523">
        <ele>1031.63</ele>
        <time>2021-08-15T03:29:18Z</time>
      </trkpt>
      <trkpt lat="45.61927" lon="2.93525">
        <ele>1031.63</ele>
        <time>2021-08-15T03:29:19Z</time>
      </trkpt>
      <trkpt lat="45.61926" lon="2.93526">
        <ele>1032.59</ele>
        <time>2021-08-15T03:29:20Z</time>
      </trkpt>
      <trkpt lat="45.61926" lon="2.93527">
        <ele>1032.59</ele>
        <time>2021-08-15T03:29:21Z</time>
      </trkpt>
      <trkpt lat="45.61925" lon="2.93529">
        <ele>1032.59</ele>
        <time>2021-08-15T03:29:22Z</time>
      </trkpt>
      <trkpt lat="45.61924" lon="2.9353">
        <ele>1032.59</ele>
        <time>2021-08-15T03:29:23Z</time>
      </trkpt>
      <trkpt lat="45.61924" lon="2.93531">
        <ele>1033.07</ele>
        <time>2021-08-15T03:29:24Z</time>
      </trkpt>
      <trkpt lat="45.61923" lon="2.93533">
        <ele>1033.55</ele>
        <time>2021-08-15T03:29:25Z</time>
      </trkpt>
      <trkpt lat="45.61923" lon="2.93534">
        <ele>1033.55</ele>
        <time>2021-08-15T03:29:26Z</time>
      </trkpt>
      <trkpt lat="45.61921" lon="2.93538">
        <ele>1033.55</ele>
        <time>2021-08-15T03:29:29Z</time>
      </trkpt>
      <trkpt lat="45.6192" lon="2.93539">
        <ele>1034.04</ele>
        <time>2021-08-15T03:29:30Z</time>
      </trkpt>
      <trkpt lat="45.6192" lon="2.9354">
        <ele>1034.04</ele>
        <time>2021-08-15T03:29:31Z</time>
      </trkpt>
      <trkpt lat="45.61919" lon="2.93542">
        <ele>1034.52</ele>
        <time>2021-08-15T03:29:32Z</time>
      </trkpt>
      <trkpt lat="45.61919" lon="2.93543">
        <ele>1034.52</ele>
        <time>2021-08-15T03:29:33Z</time>
      </trkpt>
      <trkpt lat="45.61918" lon="2.93544">
        <ele>1034.52</ele>
        <time>2021-08-15T03:29:34Z</time>
      </trkpt>
      <trkpt lat="45.61917" lon="2.93546">
        <ele>1035</ele>
        <time>2021-08-15T03:29:35Z</time>
      </trkpt>
      <trkpt lat="45.61917" lon="2.93547">
        <ele>1035</ele>
        <time>2021-08-15T03:29:36Z</time>
      </trkpt>
      <trkpt lat="45.61917" lon="2.93549">
        <ele>1035</ele>
        <time>2021-08-15T03:29:37Z</time>
      </trkpt>
      <trkpt lat="45.61916" lon="2.9355">
        <ele>1035</ele>
        <time>2021-08-15T03:29:38Z</time>
      </trkpt>
      <trkpt lat="45.61916" lon="2.93552">
        <ele>1035</ele>
        <time>2021-08-15T03:29:39Z</time>
      </trkpt>
      <trkpt lat="45.61916" lon="2.93554">
        <ele>1035.48</ele>
        <time>2021-08-15T03:29:40Z</time>
      </trkpt>
      <trkpt lat="45.61915" lon="2.93555">
        <ele>1035.48</ele>
        <time>2021-08-15T03:29:41Z</time>
      </trkpt>
      <trkpt lat="45.61915" lon="2.93556">
        <ele>1035.96</ele>
        <time>2021-08-15T03:29:42Z</time>
      </trkpt>
      <trkpt lat="45.61914" lon="2.93558">
        <ele>1036.44</ele>
        <time>2021-08-15T03:29:43Z</time>
      </trkpt>
      <trkpt lat="45.61911" lon="2.93573">
        <ele>1036.92</ele>
        <time>2021-08-15T03:29:52Z</time>
      </trkpt>
      <trkpt lat="45.61907" lon="2.93586">
        <ele>1037.88</ele>
        <time>2021-08-15T03:30:00Z</time>
      </trkpt>
      <trkpt lat="45.61903" lon="2.936">
        <ele>1038.84</ele>
        <time>2021-08-15T03:30:09Z</time>
      </trkpt>
      <trkpt lat="45.619" lon="2.9361">
        <ele>1039.32</ele>
        <time>2021-08-15T03:30:15Z</time>
      </trkpt>
      <trkpt lat="45.61899" lon="2.93612">
        <ele>1039.32</ele>
        <time>2021-08-15T03:30:16Z</time>
      </trkpt>
      <trkpt lat="45.61899" lon="2.93614">
        <ele>1039.32</ele>
        <time>2021-08-15T03:30:17Z</time>
      </trkpt>
      <trkpt lat="45.61896" lon="2.93624">
        <ele>1040.76</ele>
        <time>2021-08-15T03:30:23Z</time>
      </trkpt>
      <trkpt lat="45.61895" lon="2.93631">
        <ele>1041.25</ele>
        <time>2021-08-15T03:30:27Z</time>
      </trkpt>
      <trkpt lat="45.61895" lon="2.93633">
        <ele>1041.25</ele>
        <time>2021-08-15T03:30:28Z</time>
      </trkpt>
      <trkpt lat="45.6189" lon="2.93651">
        <ele>1042.21</ele>
        <time>2021-08-15T03:30:39Z</time>
      </trkpt>
      <trkpt lat="45.61886" lon="2.9367">
        <ele>1043.65</ele>
        <time>2021-08-15T03:30:50Z</time>
      </trkpt>
      <trkpt lat="45.61886" lon="2.93672">
        <ele>1044.13</ele>
        <time>2021-08-15T03:30:51Z</time>
      </trkpt>
      <trkpt lat="45.61885" lon="2.93677">
        <ele>1044.13</ele>
        <time>2021-08-15T03:30:54Z</time>
      </trkpt>
      <trkpt lat="45.61884" lon="2.93679">
        <ele>1044.13</ele>
        <time>2021-08-15T03:30:55Z</time>
      </trkpt>
      <trkpt lat="45.61884" lon="2.9368">
        <ele>1044.61</ele>
        <time>2021-08-15T03:30:56Z</time>
      </trkpt>
      <trkpt lat="45.61884" lon="2.93682">
        <ele>1044.61</ele>
        <time>2021-08-15T03:30:57Z</time>
      </trkpt>
      <trkpt lat="45.61884" lon="2.93684">
        <ele>1045.09</ele>
        <time>2021-08-15T03:30:58Z</time>
      </trkpt>
      <trkpt lat="45.61884" lon="2.93686">
        <ele>1045.09</ele>
        <time>2021-08-15T03:30:59Z</time>
      </trkpt>
      <trkpt lat="45.61883" lon="2.93687">
        <ele>1045.09</ele>
        <time>2021-08-15T03:31:00Z</time>
      </trkpt>
      <trkpt lat="45.61883" lon="2.93689">
        <ele>1045.09</ele>
        <time>2021-08-15T03:31:01Z</time>
      </trkpt>
      <trkpt lat="45.61883" lon="2.93691">
        <ele>1045.57</ele>
        <time>2021-08-15T03:31:02Z</time>
      </trkpt>
      <trkpt lat="45.61882" lon="2.93693">
        <ele>1045.57</ele>
        <time>2021-08-15T03:31:03Z</time>
      </trkpt>
      <trkpt lat="45.61882" lon="2.93694">
        <ele>1045.57</ele>
        <time>2021-08-15T03:31:04Z</time>
      </trkpt>
      <trkpt lat="45.61882" lon="2.93696">
        <ele>1046.05</ele>
        <time>2021-08-15T03:31:05Z</time>
      </trkpt>
      <trkpt lat="45.61882" lon="2.93698">
        <ele>1046.05</ele>
        <time>2021-08-15T03:31:06Z</time>
      </trkpt>
      <trkpt lat="45.61878" lon="2.9372">
        <ele>1047.01</ele>
        <time>2021-08-15T03:31:17Z</time>
      </trkpt>
      <trkpt lat="45.61876" lon="2.93736">
        <ele>1047.97</ele>
        <time>2021-08-15T03:31:26Z</time>
      </trkpt>
      <trkpt lat="45.61875" lon="2.93742">
        <ele>1048.45</ele>
        <time>2021-08-15T03:31:30Z</time>
      </trkpt>
      <trkpt lat="45.61876" lon="2.93744">
        <ele>1048.45</ele>
        <time>2021-08-15T03:31:31Z</time>
      </trkpt>
      <trkpt lat="45.61875" lon="2.93745">
        <ele>1048.45</ele>
        <time>2021-08-15T03:31:32Z</time>
      </trkpt>
      <trkpt lat="45.61875" lon="2.93747">
        <ele>1048.94</ele>
        <time>2021-08-15T03:31:33Z</time>
      </trkpt>
      <trkpt lat="45.61875" lon="2.93749">
        <ele>1048.94</ele>
        <time>2021-08-15T03:31:34Z</time>
      </trkpt>
      <trkpt lat="45.61875" lon="2.9375">
        <ele>1049.42</ele>
        <time>2021-08-15T03:31:35Z</time>
      </trkpt>
      <trkpt lat="45.61875" lon="2.93752">
        <ele>1049.9</ele>
        <time>2021-08-15T03:31:36Z</time>
      </trkpt>
      <trkpt lat="45.61875" lon="2.93754">
        <ele>1049.9</ele>
        <time>2021-08-15T03:31:37Z</time>
      </trkpt>
      <trkpt lat="45.61874" lon="2.93755">
        <ele>1049.9</ele>
        <time>2021-08-15T03:31:38Z</time>
      </trkpt>
      <trkpt lat="45.61874" lon="2.93757">
        <ele>1049.9</ele>
        <time>2021-08-15T03:31:39Z</time>
      </trkpt>
      <trkpt lat="45.61873" lon="2.93759">
        <ele>1049.9</ele>
        <time>2021-08-15T03:31:40Z</time>
      </trkpt>
      <trkpt lat="45.61873" lon="2.93761">
        <ele>1050.38</ele>
        <time>2021-08-15T03:31:41Z</time>
      </trkpt>
      <trkpt lat="45.61873" lon="2.93763">
        <ele>1050.38</ele>
        <time>2021-08-15T03:31:42Z</time>
      </trkpt>
      <trkpt lat="45.61873" lon="2.93765">
        <ele>1050.38</ele>
        <time>2021-08-15T03:31:43Z</time>
      </trkpt>
      <trkpt lat="45.61873" lon="2.93767">
        <ele>1050.38</ele>
        <time>2021-08-15T03:31:44Z</time>
      </trkpt>
      <trkpt lat="45.61872" lon="2.93769">
        <ele>1050.38</ele>
        <time>2021-08-15T03:31:45Z</time>
      </trkpt>
      <trkpt lat="45.61872" lon="2.9377">
        <ele>1050.38</ele>
        <time>2021-08-15T03:31:46Z</time>
      </trkpt>
      <trkpt lat="45.61871" lon="2.93772">
        <ele>1051.34</ele>
        <time>2021-08-15T03:31:47Z</time>
      </trkpt>
      <trkpt lat="45.61871" lon="2.93774">
        <ele>1051.34</ele>
        <time>2021-08-15T03:31:48Z</time>
      </trkpt>
      <trkpt lat="45.61871" lon="2.93776">
        <ele>1051.34</ele>
        <time>2021-08-15T03:31:49Z</time>
      </trkpt>
      <trkpt lat="45.6187" lon="2.93777">
        <ele>1051.34</ele>
        <time>2021-08-15T03:31:50Z</time>
      </trkpt>
      <trkpt lat="45.6187" lon="2.93779">
        <ele>1051.34</ele>
        <time>2021-08-15T03:31:51Z</time>
      </trkpt>
      <trkpt lat="45.6187" lon="2.93781">
        <ele>1051.34</ele>
        <time>2021-08-15T03:31:52Z</time>
      </trkpt>
      <trkpt lat="45.61868" lon="2.93796">
        <ele>1052.3</ele>
        <time>2021-08-15T03:32:00Z</time>
      </trkpt>
      <trkpt lat="45.61867" lon="2.93803">
        <ele>1053.26</ele>
        <time>2021-08-15T03:32:04Z</time>
      </trkpt>
      <trkpt lat="45.61867" lon="2.93805">
        <ele>1053.26</ele>
        <time>2021-08-15T03:32:05Z</time>
      </trkpt>
      <trkpt lat="45.61867" lon="2.93807">
        <ele>1053.26</ele>
        <time>2021-08-15T03:32:06Z</time>
      </trkpt>
      <trkpt lat="45.61865" lon="2.9382">
        <ele>1053.74</ele>
        <time>2021-08-15T03:32:12Z</time>
      </trkpt>
      <trkpt lat="45.61865" lon="2.93822">
        <ele>1053.74</ele>
        <time>2021-08-15T03:32:13Z</time>
      </trkpt>
      <trkpt lat="45.61865" lon="2.93825">
        <ele>1053.74</ele>
        <time>2021-08-15T03:32:14Z</time>
      </trkpt>
      <trkpt lat="45.61863" lon="2.93841">
        <ele>1053.74</ele>
        <time>2021-08-15T03:32:21Z</time>
      </trkpt>
      <trkpt lat="45.61863" lon="2.9386">
        <ele>1055.18</ele>
        <time>2021-08-15T03:32:28Z</time>
      </trkpt>
      <trkpt lat="45.61862" lon="2.93886">
        <ele>1055.67</ele>
        <time>2021-08-15T03:32:35Z</time>
      </trkpt>
      <trkpt lat="45.61861" lon="2.93915">
        <ele>1056.15</ele>
        <time>2021-08-15T03:32:45Z</time>
      </trkpt>
      <trkpt lat="45.6186" lon="2.93944">
        <ele>1056.63</ele>
        <time>2021-08-15T03:32:54Z</time>
      </trkpt>
      <trkpt lat="45.61856" lon="2.93966">
        <ele>1057.59</ele>
        <time>2021-08-15T03:33:02Z</time>
      </trkpt>
      <trkpt lat="45.61852" lon="2.93972">
        <ele>1057.59</ele>
        <time>2021-08-15T03:33:07Z</time>
      </trkpt>
      <trkpt lat="45.61853" lon="2.93972">
        <ele>1060.47</ele>
        <time>2021-08-15T03:33:20Z</time>
      </trkpt>
      <trkpt lat="45.61853" lon="2.93972">
        <ele>1060.47</ele>
        <time>2021-08-15T03:33:21Z</time>
      </trkpt>
      <trkpt lat="45.61852" lon="2.93972">
        <ele>1058.55</ele>
        <time>2021-08-15T03:33:25Z</time>
      </trkpt>
      <trkpt lat="45.61851" lon="2.93973">
        <ele>1058.55</ele>
        <time>2021-08-15T03:33:28Z</time>
      </trkpt>
      <trkpt lat="45.61849" lon="2.93973">
        <ele>1058.55</ele>
        <time>2021-08-15T03:33:29Z</time>
      </trkpt>
      <trkpt lat="45.61848" lon="2.93973">
        <ele>1058.55</ele>
        <time>2021-08-15T03:33:30Z</time>
      </trkpt>
      <trkpt lat="45.6183" lon="2.93974">
        <ele>1059.51</ele>
        <time>2021-08-15T03:33:37Z</time>
      </trkpt>
      <trkpt lat="45.61805" lon="2.93979">
        <ele>1060.95</ele>
        <time>2021-08-15T03:33:46Z</time>
      </trkpt>
      <trkpt lat="45.61777" lon="2.93983">
        <ele>1062.39</ele>
        <time>2021-08-15T03:33:56Z</time>
      </trkpt>
      <trkpt lat="45.61755" lon="2.93986">
        <ele>1063.36</ele>
        <time>2021-08-15T03:34:04Z</time>
      </trkpt>
      <trkpt lat="45.61729" lon="2.9399">
        <ele>1064.32</ele>
        <time>2021-08-15T03:34:14Z</time>
      </trkpt>
      <trkpt lat="45.61701" lon="2.93994">
        <ele>1065.76</ele>
        <time>2021-08-15T03:34:24Z</time>
      </trkpt>
      <trkpt lat="45.61679" lon="2.93998">
        <ele>1065.76</ele>
        <time>2021-08-15T03:34:32Z</time>
      </trkpt>
      <trkpt lat="45.61656" lon="2.94001">
        <ele>1066.24</ele>
        <time>2021-08-15T03:34:41Z</time>
      </trkpt>
      <trkpt lat="45.61636" lon="2.94004">
        <ele>1066.24</ele>
        <time>2021-08-15T03:34:49Z</time>
      </trkpt>
      <trkpt lat="45.61616" lon="2.94006">
        <ele>1067.2</ele>
        <time>2021-08-15T03:34:58Z</time>
      </trkpt>
      <trkpt lat="45.61608" lon="2.94004">
        <ele>1067.68</ele>
        <time>2021-08-15T03:35:02Z</time>
      </trkpt>
      <trkpt lat="45.61607" lon="2.94001">
        <ele>1067.68</ele>
        <time>2021-08-15T03:35:03Z</time>
      </trkpt>
      <trkpt lat="45.61606" lon="2.93999">
        <ele>1067.68</ele>
        <time>2021-08-15T03:35:04Z</time>
      </trkpt>
      <trkpt lat="45.61606" lon="2.93981">
        <ele>1069.12</ele>
        <time>2021-08-15T03:35:11Z</time>
      </trkpt>
      <trkpt lat="45.61606" lon="2.93977">
        <ele>1069.12</ele>
        <time>2021-08-15T03:35:13Z</time>
      </trkpt>
      <trkpt lat="45.61605" lon="2.93976">
        <ele>1069.6</ele>
        <time>2021-08-15T03:35:14Z</time>
      </trkpt>
      <trkpt lat="45.61605" lon="2.93974">
        <ele>1069.6</ele>
        <time>2021-08-15T03:35:15Z</time>
      </trkpt>
      <trkpt lat="45.61605" lon="2.93972">
        <ele>1069.6</ele>
        <time>2021-08-15T03:35:16Z</time>
      </trkpt>
      <trkpt lat="45.61604" lon="2.93964">
        <ele>1070.08</ele>
        <time>2021-08-15T03:35:21Z</time>
      </trkpt>
      <trkpt lat="45.61604" lon="2.93962">
        <ele>1070.08</ele>
        <time>2021-08-15T03:35:22Z</time>
      </trkpt>
      <trkpt lat="45.61604" lon="2.93961">
        <ele>1070.08</ele>
        <time>2021-08-15T03:35:23Z</time>
      </trkpt>
      <trkpt lat="45.61604" lon="2.93959">
        <ele>1070.08</ele>
        <time>2021-08-15T03:35:24Z</time>
      </trkpt>
      <trkpt lat="45.61604" lon="2.93957">
        <ele>1070.08</ele>
        <time>2021-08-15T03:35:25Z</time>
      </trkpt>
      <trkpt lat="45.61604" lon="2.93956">
        <ele>1070.08</ele>
        <time>2021-08-15T03:35:26Z</time>
      </trkpt>
      <trkpt lat="45.61603" lon="2.93954">
        <ele>1070.08</ele>
        <time>2021-08-15T03:35:27Z</time>
      </trkpt>
      <trkpt lat="45.61603" lon="2.93952">
        <ele>1070.08</ele>
        <time>2021-08-15T03:35:28Z</time>
      </trkpt>
      <trkpt lat="45.61603" lon="2.9394">
        <ele>1071.05</ele>
        <time>2021-08-15T03:35:36Z</time>
      </trkpt>
      <trkpt lat="45.61603" lon="2.9393">
        <ele>1072.01</ele>
        <time>2021-08-15T03:35:43Z</time>
      </trkpt>
      <trkpt lat="45.61601" lon="2.93919">
        <ele>1073.45</ele>
        <time>2021-08-15T03:35:51Z</time>
      </trkpt>
      <trkpt lat="45.616" lon="2.93908">
        <ele>1074.41</ele>
        <time>2021-08-15T03:36:01Z</time>
      </trkpt>
      <trkpt lat="45.616" lon="2.93896">
        <ele>1075.85</ele>
        <time>2021-08-15T03:36:11Z</time>
      </trkpt>
      <trkpt lat="45.616" lon="2.93883">
        <ele>1076.33</ele>
        <time>2021-08-15T03:36:21Z</time>
      </trkpt>
      <trkpt lat="45.61599" lon="2.93868">
        <ele>1077.29</ele>
        <time>2021-08-15T03:36:32Z</time>
      </trkpt>
      <trkpt lat="45.61598" lon="2.93853">
        <ele>1078.74</ele>
        <time>2021-08-15T03:36:43Z</time>
      </trkpt>
      <trkpt lat="45.61598" lon="2.93847">
        <ele>1079.7</ele>
        <time>2021-08-15T03:36:52Z</time>
      </trkpt>
      <trkpt lat="45.61597" lon="2.93832">
        <ele>1080.18</ele>
        <time>2021-08-15T03:36:59Z</time>
      </trkpt>
      <trkpt lat="45.61596" lon="2.93822">
        <ele>1080.66</ele>
        <time>2021-08-15T03:37:04Z</time>
      </trkpt>
      <trkpt lat="45.61597" lon="2.9382">
        <ele>1081.62</ele>
        <time>2021-08-15T03:37:05Z</time>
      </trkpt>
      <trkpt lat="45.61597" lon="2.93818">
        <ele>1081.62</ele>
        <time>2021-08-15T03:37:06Z</time>
      </trkpt>
      <trkpt lat="45.61597" lon="2.93817">
        <ele>1081.62</ele>
        <time>2021-08-15T03:37:07Z</time>
      </trkpt>
      <trkpt lat="45.61597" lon="2.93815">
        <ele>1081.62</ele>
        <time>2021-08-15T03:37:08Z</time>
      </trkpt>
      <trkpt lat="45.61597" lon="2.93813">
        <ele>1082.1</ele>
        <time>2021-08-15T03:37:09Z</time>
      </trkpt>
      <trkpt lat="45.61596" lon="2.93811">
        <ele>1082.1</ele>
        <time>2021-08-15T03:37:10Z</time>
      </trkpt>
      <trkpt lat="45.61596" lon="2.93809">
        <ele>1082.1</ele>
        <time>2021-08-15T03:37:11Z</time>
      </trkpt>
      <trkpt lat="45.61596" lon="2.93801">
        <ele>1082.58</ele>
        <time>2021-08-15T03:37:15Z</time>
      </trkpt>
      <trkpt lat="45.61596" lon="2.938">
        <ele>1083.54</ele>
        <time>2021-08-15T03:37:16Z</time>
      </trkpt>
      <trkpt lat="45.61595" lon="2.93798">
        <ele>1083.54</ele>
        <time>2021-08-15T03:37:17Z</time>
      </trkpt>
      <trkpt lat="45.61595" lon="2.93796">
        <ele>1084.5</ele>
        <time>2021-08-15T03:37:18Z</time>
      </trkpt>
      <trkpt lat="45.61595" lon="2.93794">
        <ele>1084.5</ele>
        <time>2021-08-15T03:37:19Z</time>
      </trkpt>
      <trkpt lat="45.61595" lon="2.93788">
        <ele>1083.06</ele>
        <time>2021-08-15T03:37:22Z</time>
      </trkpt>
      <trkpt lat="45.61594" lon="2.93773">
        <ele>1084.5</ele>
        <time>2021-08-15T03:37:30Z</time>
      </trkpt>
      <trkpt lat="45.61593" lon="2.9377">
        <ele>1084.99</ele>
        <time>2021-08-15T03:37:31Z</time>
      </trkpt>
      <trkpt lat="45.61593" lon="2.93769">
        <ele>1084.99</ele>
        <time>2021-08-15T03:37:32Z</time>
      </trkpt>
      <trkpt lat="45.61593" lon="2.93767">
        <ele>1084.99</ele>
        <time>2021-08-15T03:37:33Z</time>
      </trkpt>
      <trkpt lat="45.61593" lon="2.93765">
        <ele>1084.99</ele>
        <time>2021-08-15T03:37:34Z</time>
      </trkpt>
      <trkpt lat="45.61593" lon="2.93763">
        <ele>1084.99</ele>
        <time>2021-08-15T03:37:35Z</time>
      </trkpt>
      <trkpt lat="45.61593" lon="2.93748">
        <ele>1086.91</ele>
        <time>2021-08-15T03:37:44Z</time>
      </trkpt>
      <trkpt lat="45.61593" lon="2.93731">
        <ele>1087.87</ele>
        <time>2021-08-15T03:37:54Z</time>
      </trkpt>
      <trkpt lat="45.61592" lon="2.93711">
        <ele>1088.35</ele>
        <time>2021-08-15T03:38:06Z</time>
      </trkpt>
      <trkpt lat="45.61591" lon="2.93693">
        <ele>1090.27</ele>
        <time>2021-08-15T03:38:15Z</time>
      </trkpt>
      <trkpt lat="45.61591" lon="2.93675">
        <ele>1090.75</ele>
        <time>2021-08-15T03:38:24Z</time>
      </trkpt>
      <trkpt lat="45.6159" lon="2.93667">
        <ele>1091.23</ele>
        <time>2021-08-15T03:38:28Z</time>
      </trkpt>
      <trkpt lat="45.6159" lon="2.93661">
        <ele>1091.71</ele>
        <time>2021-08-15T03:38:31Z</time>
      </trkpt>
      <trkpt lat="45.6159" lon="2.93659">
        <ele>1091.71</ele>
        <time>2021-08-15T03:38:32Z</time>
      </trkpt>
      <trkpt lat="45.6159" lon="2.93657">
        <ele>1091.71</ele>
        <time>2021-08-15T03:38:33Z</time>
      </trkpt>
      <trkpt lat="45.6159" lon="2.93655">
        <ele>1091.71</ele>
        <time>2021-08-15T03:38:34Z</time>
      </trkpt>
      <trkpt lat="45.6159" lon="2.93653">
        <ele>1091.71</ele>
        <time>2021-08-15T03:38:35Z</time>
      </trkpt>
      <trkpt lat="45.6159" lon="2.93651">
        <ele>1092.2</ele>
        <time>2021-08-15T03:38:36Z</time>
      </trkpt>
      <trkpt lat="45.6159" lon="2.93649">
        <ele>1092.2</ele>
        <time>2021-08-15T03:38:37Z</time>
      </trkpt>
      <trkpt lat="45.61589" lon="2.93647">
        <ele>1092.2</ele>
        <time>2021-08-15T03:38:38Z</time>
      </trkpt>
      <trkpt lat="45.61589" lon="2.93645">
        <ele>1092.68</ele>
        <time>2021-08-15T03:38:39Z</time>
      </trkpt>
      <trkpt lat="45.61589" lon="2.93643">
        <ele>1092.68</ele>
        <time>2021-08-15T03:38:40Z</time>
      </trkpt>
      <trkpt lat="45.61589" lon="2.93619">
        <ele>1094.12</ele>
        <time>2021-08-15T03:38:51Z</time>
      </trkpt>
      <trkpt lat="45.61587" lon="2.93596">
        <ele>1094.6</ele>
        <time>2021-08-15T03:39:01Z</time>
      </trkpt>
      <trkpt lat="45.61586" lon="2.93575">
        <ele>1095.08</ele>
        <time>2021-08-15T03:39:10Z</time>
      </trkpt>
      <trkpt lat="45.61584" lon="2.93552">
        <ele>1095.56</ele>
        <time>2021-08-15T03:39:20Z</time>
      </trkpt>
      <trkpt lat="45.61583" lon="2.93533">
        <ele>1096.52</ele>
        <time>2021-08-15T03:39:29Z</time>
      </trkpt>
      <trkpt lat="45.61582" lon="2.93509">
        <ele>1097.96</ele>
        <time>2021-08-15T03:39:39Z</time>
      </trkpt>
      <trkpt lat="45.61581" lon="2.93484">
        <ele>1098.92</ele>
        <time>2021-08-15T03:39:49Z</time>
      </trkpt>
      <trkpt lat="45.61581" lon="2.93462">
        <ele>1099.4</ele>
        <time>2021-08-15T03:39:58Z</time>
      </trkpt>
      <trkpt lat="45.61579" lon="2.93436">
        <ele>1099.89</ele>
        <time>2021-08-15T03:40:08Z</time>
      </trkpt>
      <trkpt lat="45.61578" lon="2.93413">
        <ele>1100.37</ele>
        <time>2021-08-15T03:40:16Z</time>
      </trkpt>
      <trkpt lat="45.61578" lon="2.93389">
        <ele>1100.37</ele>
        <time>2021-08-15T03:40:25Z</time>
      </trkpt>
      <trkpt lat="45.61578" lon="2.93372">
        <ele>1102.29</ele>
        <time>2021-08-15T03:40:32Z</time>
      </trkpt>
      <trkpt lat="45.61576" lon="2.93348">
        <ele>1102.29</ele>
        <time>2021-08-15T03:40:41Z</time>
      </trkpt>
      <trkpt lat="45.61576" lon="2.93318">
        <ele>1102.29</ele>
        <time>2021-08-15T03:40:52Z</time>
      </trkpt>
      <trkpt lat="45.61575" lon="2.93294">
        <ele>1103.25</ele>
        <time>2021-08-15T03:41:01Z</time>
      </trkpt>
      <trkpt lat="45.61574" lon="2.93267">
        <ele>1104.21</ele>
        <time>2021-08-15T03:41:11Z</time>
      </trkpt>
      <trkpt lat="45.61573" lon="2.93251">
        <ele>1105.17</ele>
        <time>2021-08-15T03:41:17Z</time>
      </trkpt>
      <trkpt lat="45.61575" lon="2.93222">
        <ele>1105.17</ele>
        <time>2021-08-15T03:41:28Z</time>
      </trkpt>
      <trkpt lat="45.61575" lon="2.93204">
        <ele>1106.13</ele>
        <time>2021-08-15T03:41:35Z</time>
      </trkpt>
      <trkpt lat="45.61576" lon="2.93182">
        <ele>1107.1</ele>
        <time>2021-08-15T03:41:43Z</time>
      </trkpt>
      <trkpt lat="45.61577" lon="2.93156">
        <ele>1107.58</ele>
        <time>2021-08-15T03:41:53Z</time>
      </trkpt>
      <trkpt lat="45.61579" lon="2.93137">
        <ele>1108.54</ele>
        <time>2021-08-15T03:42:00Z</time>
      </trkpt>
      <trkpt lat="45.6158" lon="2.93109">
        <ele>1108.54</ele>
        <time>2021-08-15T03:42:11Z</time>
      </trkpt>
      <trkpt lat="45.61581" lon="2.93082">
        <ele>1110.94</ele>
        <time>2021-08-15T03:42:23Z</time>
      </trkpt>
      <trkpt lat="45.61581" lon="2.93068">
        <ele>1111.9</ele>
        <time>2021-08-15T03:42:29Z</time>
      </trkpt>
      <trkpt lat="45.6158" lon="2.93065">
        <ele>1111.9</ele>
        <time>2021-08-15T03:42:31Z</time>
      </trkpt>
      <trkpt lat="45.61581" lon="2.93063">
        <ele>1111.9</ele>
        <time>2021-08-15T03:42:32Z</time>
      </trkpt>
      <trkpt lat="45.6158" lon="2.93039">
        <ele>1112.38</ele>
        <time>2021-08-15T03:42:42Z</time>
      </trkpt>
      <trkpt lat="45.61579" lon="2.9302">
        <ele>1114.31</ele>
        <time>2021-08-15T03:42:51Z</time>
      </trkpt>
      <trkpt lat="45.61577" lon="2.93001">
        <ele>1115.27</ele>
        <time>2021-08-15T03:43:00Z</time>
      </trkpt>
      <trkpt lat="45.61574" lon="2.92981">
        <ele>1115.75</ele>
        <time>2021-08-15T03:43:09Z</time>
      </trkpt>
      <trkpt lat="45.61572" lon="2.92966">
        <ele>1116.71</ele>
        <time>2021-08-15T03:43:16Z</time>
      </trkpt>
      <trkpt lat="45.61572" lon="2.92964">
        <ele>1116.71</ele>
        <time>2021-08-15T03:43:17Z</time>
      </trkpt>
      <trkpt lat="45.61571" lon="2.92962">
        <ele>1116.71</ele>
        <time>2021-08-15T03:43:18Z</time>
      </trkpt>
      <trkpt lat="45.6157" lon="2.92958">
        <ele>1117.19</ele>
        <time>2021-08-15T03:43:24Z</time>
      </trkpt>
      <trkpt lat="45.61571" lon="2.92952">
        <ele>1117.19</ele>
        <time>2021-08-15T03:43:38Z</time>
      </trkpt>
      <trkpt lat="45.6157" lon="2.9295">
        <ele>1117.19</ele>
        <time>2021-08-15T03:43:53Z</time>
      </trkpt>
      <trkpt lat="45.61569" lon="2.92947">
        <ele>1117.19</ele>
        <time>2021-08-15T03:44:07Z</time>
      </trkpt>
      <trkpt lat="45.6157" lon="2.92941">
        <ele>1117.19</ele>
        <time>2021-08-15T03:44:14Z</time>
      </trkpt>
      <trkpt lat="45.61567" lon="2.92919">
        <ele>1117.67</ele>
        <time>2021-08-15T03:44:22Z</time>
      </trkpt>
      <trkpt lat="45.61565" lon="2.92894">
        <ele>1119.59</ele>
        <time>2021-08-15T03:44:30Z</time>
      </trkpt>
      <trkpt lat="45.61563" lon="2.9287">
        <ele>1119.59</ele>
        <time>2021-08-15T03:44:37Z</time>
      </trkpt>
      <trkpt lat="45.61563" lon="2.92843">
        <ele>1120.07</ele>
        <time>2021-08-15T03:44:44Z</time>
      </trkpt>
      <trkpt lat="45.61561" lon="2.92808">
        <ele>1120.07</ele>
        <time>2021-08-15T03:44:53Z</time>
      </trkpt>
      <trkpt lat="45.61561" lon="2.92772">
        <ele>1118.63</ele>
        <time>2021-08-15T03:45:01Z</time>
      </trkpt>
      <trkpt lat="45.61561" lon="2.92767">
        <ele>1118.63</ele>
        <time>2021-08-15T03:45:02Z</time>
      </trkpt>
      <trkpt lat="45.61562" lon="2.92744">
        <ele>1120.07</ele>
        <time>2021-08-15T03:45:07Z</time>
      </trkpt>
      <trkpt lat="45.61561" lon="2.927">
        <ele>1120.55</ele>
        <time>2021-08-15T03:45:16Z</time>
      </trkpt>
      <trkpt lat="45.61559" lon="2.92643">
        <ele>1122</ele>
        <time>2021-08-15T03:45:28Z</time>
      </trkpt>
      <trkpt lat="45.61557" lon="2.92615">
        <ele>1122</ele>
        <time>2021-08-15T03:45:35Z</time>
      </trkpt>
      <trkpt lat="45.61555" lon="2.92586">
        <ele>1122.96</ele>
        <time>2021-08-15T03:45:43Z</time>
      </trkpt>
      <trkpt lat="45.61553" lon="2.92556">
        <ele>1123.92</ele>
        <time>2021-08-15T03:45:52Z</time>
      </trkpt>
      <trkpt lat="45.61551" lon="2.92541">
        <ele>1125.84</ele>
        <time>2021-08-15T03:45:57Z</time>
      </trkpt>
      <trkpt lat="45.61548" lon="2.92521">
        <ele>1126.32</ele>
        <time>2021-08-15T03:46:04Z</time>
      </trkpt>
      <trkpt lat="45.61545" lon="2.92496">
        <ele>1127.28</ele>
        <time>2021-08-15T03:46:12Z</time>
      </trkpt>
      <trkpt lat="45.61545" lon="2.92478">
        <ele>1128.73</ele>
        <time>2021-08-15T03:46:18Z</time>
      </trkpt>
      <trkpt lat="45.61544" lon="2.92463">
        <ele>1129.21</ele>
        <time>2021-08-15T03:46:25Z</time>
      </trkpt>
      <trkpt lat="45.61543" lon="2.92445">
        <ele>1130.65</ele>
        <time>2021-08-15T03:46:34Z</time>
      </trkpt>
      <trkpt lat="45.61538" lon="2.9242">
        <ele>1131.61</ele>
        <time>2021-08-15T03:46:44Z</time>
      </trkpt>
      <trkpt lat="45.61537" lon="2.92415">
        <ele>1132.09</ele>
        <time>2021-08-15T03:46:46Z</time>
      </trkpt>
      <trkpt lat="45.61536" lon="2.92413">
        <ele>1132.09</ele>
        <time>2021-08-15T03:46:47Z</time>
      </trkpt>
      <trkpt lat="45.61532" lon="2.92396">
        <ele>1133.05</ele>
        <time>2021-08-15T03:46:55Z</time>
      </trkpt>
      <trkpt lat="45.61531" lon="2.92392">
        <ele>1133.05</ele>
        <time>2021-08-15T03:46:57Z</time>
      </trkpt>
      <trkpt lat="45.61531" lon="2.9239">
        <ele>1133.05</ele>
        <time>2021-08-15T03:46:58Z</time>
      </trkpt>
      <trkpt lat="45.6153" lon="2.92387">
        <ele>1133.05</ele>
        <time>2021-08-15T03:46:59Z</time>
      </trkpt>
      <trkpt lat="45.61529" lon="2.92384">
        <ele>1133.05</ele>
        <time>2021-08-15T03:47:00Z</time>
      </trkpt>
      <trkpt lat="45.61529" lon="2.92381">
        <ele>1133.05</ele>
        <time>2021-08-15T03:47:01Z</time>
      </trkpt>
      <trkpt lat="45.61528" lon="2.92379">
        <ele>1133.53</ele>
        <time>2021-08-15T03:47:02Z</time>
      </trkpt>
      <trkpt lat="45.61524" lon="2.92362">
        <ele>1134.49</ele>
        <time>2021-08-15T03:47:09Z</time>
      </trkpt>
      <trkpt lat="45.61522" lon="2.92355">
        <ele>1134.49</ele>
        <time>2021-08-15T03:47:12Z</time>
      </trkpt>
      <trkpt lat="45.61518" lon="2.92333">
        <ele>1135.45</ele>
        <time>2021-08-15T03:47:20Z</time>
      </trkpt>
      <trkpt lat="45.61512" lon="2.9231">
        <ele>1134.49</ele>
        <time>2021-08-15T03:47:27Z</time>
      </trkpt>
      <trkpt lat="45.61507" lon="2.92295">
        <ele>1135.94</ele>
        <time>2021-08-15T03:47:32Z</time>
      </trkpt>
      <trkpt lat="45.61495" lon="2.92269">
        <ele>1136.9</ele>
        <time>2021-08-15T03:47:41Z</time>
      </trkpt>
      <trkpt lat="45.61494" lon="2.92269">
        <ele>1136.9</ele>
        <time>2021-08-15T03:47:42Z</time>
      </trkpt>
      <trkpt lat="45.61485" lon="2.92279">
        <ele>1136.9</ele>
        <time>2021-08-15T03:47:48Z</time>
      </trkpt>
      <trkpt lat="45.61471" lon="2.92306">
        <ele>1136.9</ele>
        <time>2021-08-15T03:47:58Z</time>
      </trkpt>
      <trkpt lat="45.6146" lon="2.92332">
        <ele>1136.9</ele>
        <time>2021-08-15T03:48:05Z</time>
      </trkpt>
      <trkpt lat="45.61447" lon="2.92362">
        <ele>1135.94</ele>
        <time>2021-08-15T03:48:12Z</time>
      </trkpt>
      <trkpt lat="45.61437" lon="2.92399">
        <ele>1134.49</ele>
        <time>2021-08-15T03:48:18Z</time>
      </trkpt>
      <trkpt lat="45.61429" lon="2.92421">
        <ele>1133.05</ele>
        <time>2021-08-15T03:48:21Z</time>
      </trkpt>
      <trkpt lat="45.61426" lon="2.92428">
        <ele>1133.05</ele>
        <time>2021-08-15T03:48:22Z</time>
      </trkpt>
      <trkpt lat="45.61406" lon="2.92464">
        <ele>1128.73</ele>
        <time>2021-08-15T03:48:27Z</time>
      </trkpt>
      <trkpt lat="45.61394" lon="2.92482">
        <ele>1127.76</ele>
        <time>2021-08-15T03:48:30Z</time>
      </trkpt>
      <trkpt lat="45.61389" lon="2.92487">
        <ele>1126.8</ele>
        <time>2021-08-15T03:48:31Z</time>
      </trkpt>
      <trkpt lat="45.61383" lon="2.92491">
        <ele>1125.84</ele>
        <time>2021-08-15T03:48:32Z</time>
      </trkpt>
      <trkpt lat="45.61379" lon="2.92495">
        <ele>1125.84</ele>
        <time>2021-08-15T03:48:33Z</time>
      </trkpt>
      <trkpt lat="45.61373" lon="2.92497">
        <ele>1124.4</ele>
        <time>2021-08-15T03:48:34Z</time>
      </trkpt>
      <trkpt lat="45.61367" lon="2.92499">
        <ele>1123.44</ele>
        <time>2021-08-15T03:48:35Z</time>
      </trkpt>
      <trkpt lat="45.61362" lon="2.925">
        <ele>1123.44</ele>
        <time>2021-08-15T03:48:36Z</time>
      </trkpt>
      <trkpt lat="45.61356" lon="2.92502">
        <ele>1122.48</ele>
        <time>2021-08-15T03:48:37Z</time>
      </trkpt>
      <trkpt lat="45.61351" lon="2.92506">
        <ele>1122.48</ele>
        <time>2021-08-15T03:48:38Z</time>
      </trkpt>
      <trkpt lat="45.61346" lon="2.92511">
        <ele>1121.03</ele>
        <time>2021-08-15T03:48:39Z</time>
      </trkpt>
      <trkpt lat="45.61342" lon="2.92518">
        <ele>1121.03</ele>
        <time>2021-08-15T03:48:40Z</time>
      </trkpt>
      <trkpt lat="45.61338" lon="2.92526">
        <ele>1120.07</ele>
        <time>2021-08-15T03:48:41Z</time>
      </trkpt>
      <trkpt lat="45.61335" lon="2.92535">
        <ele>1119.11</ele>
        <time>2021-08-15T03:48:42Z</time>
      </trkpt>
      <trkpt lat="45.61324" lon="2.92564">
        <ele>1115.75</ele>
        <time>2021-08-15T03:48:45Z</time>
      </trkpt>
      <trkpt lat="45.6132" lon="2.92572">
        <ele>1115.27</ele>
        <time>2021-08-15T03:48:46Z</time>
      </trkpt>
      <trkpt lat="45.61315" lon="2.9258">
        <ele>1114.31</ele>
        <time>2021-08-15T03:48:47Z</time>
      </trkpt>
      <trkpt lat="45.61294" lon="2.92609">
        <ele>1109.98</ele>
        <time>2021-08-15T03:48:51Z</time>
      </trkpt>
      <trkpt lat="45.61264" lon="2.92634">
        <ele>1106.61</ele>
        <time>2021-08-15T03:48:56Z</time>
      </trkpt>
      <trkpt lat="45.61246" lon="2.92646">
        <ele>1104.69</ele>
        <time>2021-08-15T03:48:59Z</time>
      </trkpt>
      <trkpt lat="45.61217" lon="2.92665">
        <ele>1101.33</ele>
        <time>2021-08-15T03:49:04Z</time>
      </trkpt>
      <trkpt lat="45.61195" lon="2.92679">
        <ele>1099.4</ele>
        <time>2021-08-15T03:49:08Z</time>
      </trkpt>
      <trkpt lat="45.61179" lon="2.92689">
        <ele>1097.96</ele>
        <time>2021-08-15T03:49:11Z</time>
      </trkpt>
      <trkpt lat="45.61154" lon="2.92718">
        <ele>1095.08</ele>
        <time>2021-08-15T03:49:16Z</time>
      </trkpt>
      <trkpt lat="45.61144" lon="2.92732">
        <ele>1094.12</ele>
        <time>2021-08-15T03:49:18Z</time>
      </trkpt>
      <trkpt lat="45.61125" lon="2.92756">
        <ele>1091.71</ele>
        <time>2021-08-15T03:49:22Z</time>
      </trkpt>
      <trkpt lat="45.61111" lon="2.92774">
        <ele>1089.79</ele>
        <time>2021-08-15T03:49:25Z</time>
      </trkpt>
      <trkpt lat="45.61088" lon="2.92804">
        <ele>1085.95</ele>
        <time>2021-08-15T03:49:30Z</time>
      </trkpt>
      <trkpt lat="45.6106" lon="2.92838">
        <ele>1082.58</ele>
        <time>2021-08-15T03:49:36Z</time>
      </trkpt>
      <trkpt lat="45.61048" lon="2.92851">
        <ele>1081.62</ele>
        <time>2021-08-15T03:49:39Z</time>
      </trkpt>
      <trkpt lat="45.61044" lon="2.92856">
        <ele>1080.66</ele>
        <time>2021-08-15T03:49:40Z</time>
      </trkpt>
      <trkpt lat="45.6104" lon="2.92862">
        <ele>1080.66</ele>
        <time>2021-08-15T03:49:41Z</time>
      </trkpt>
      <trkpt lat="45.61024" lon="2.92884">
        <ele>1079.22</ele>
        <time>2021-08-15T03:49:46Z</time>
      </trkpt>
      <trkpt lat="45.61021" lon="2.9289">
        <ele>1078.74</ele>
        <time>2021-08-15T03:49:47Z</time>
      </trkpt>
      <trkpt lat="45.61019" lon="2.92896">
        <ele>1078.26</ele>
        <time>2021-08-15T03:49:48Z</time>
      </trkpt>
      <trkpt lat="45.61017" lon="2.92902">
        <ele>1078.26</ele>
        <time>2021-08-15T03:49:49Z</time>
      </trkpt>
      <trkpt lat="45.61015" lon="2.92907">
        <ele>1077.78</ele>
        <time>2021-08-15T03:49:50Z</time>
      </trkpt>
      <trkpt lat="45.61013" lon="2.92913">
        <ele>1077.29</ele>
        <time>2021-08-15T03:49:51Z</time>
      </trkpt>
      <trkpt lat="45.61011" lon="2.92917">
        <ele>1077.29</ele>
        <time>2021-08-15T03:49:52Z</time>
      </trkpt>
      <trkpt lat="45.61009" lon="2.92923">
        <ele>1076.81</ele>
        <time>2021-08-15T03:49:53Z</time>
      </trkpt>
      <trkpt lat="45.61006" lon="2.92927">
        <ele>1076.33</ele>
        <time>2021-08-15T03:49:54Z</time>
      </trkpt>
      <trkpt lat="45.61003" lon="2.9293">
        <ele>1076.33</ele>
        <time>2021-08-15T03:49:55Z</time>
      </trkpt>
      <trkpt lat="45.60999" lon="2.92934">
        <ele>1075.85</ele>
        <time>2021-08-15T03:49:56Z</time>
      </trkpt>
      <trkpt lat="45.60995" lon="2.92937">
        <ele>1075.37</ele>
        <time>2021-08-15T03:49:57Z</time>
      </trkpt>
      <trkpt lat="45.60972" lon="2.9295">
        <ele>1072.97</ele>
        <time>2021-08-15T03:50:02Z</time>
      </trkpt>
      <trkpt lat="45.60968" lon="2.92954">
        <ele>1072.01</ele>
        <time>2021-08-15T03:50:03Z</time>
      </trkpt>
      <trkpt lat="45.60963" lon="2.9296">
        <ele>1072.01</ele>
        <time>2021-08-15T03:50:04Z</time>
      </trkpt>
      <trkpt lat="45.60959" lon="2.92967">
        <ele>1071.05</ele>
        <time>2021-08-15T03:50:05Z</time>
      </trkpt>
      <trkpt lat="45.60955" lon="2.92976">
        <ele>1070.08</ele>
        <time>2021-08-15T03:50:06Z</time>
      </trkpt>
      <trkpt lat="45.60951" lon="2.92985">
        <ele>1070.08</ele>
        <time>2021-08-15T03:50:07Z</time>
      </trkpt>
      <trkpt lat="45.60939" lon="2.93006">
        <ele>1069.12</ele>
        <time>2021-08-15T03:50:10Z</time>
      </trkpt>
      <trkpt lat="45.60935" lon="2.93009">
        <ele>1069.12</ele>
        <time>2021-08-15T03:50:11Z</time>
      </trkpt>
      <trkpt lat="45.60929" lon="2.93012">
        <ele>1068.64</ele>
        <time>2021-08-15T03:50:12Z</time>
      </trkpt>
      <trkpt lat="45.60926" lon="2.93014">
        <ele>1067.68</ele>
        <time>2021-08-15T03:50:13Z</time>
      </trkpt>
      <trkpt lat="45.60921" lon="2.93016">
        <ele>1067.68</ele>
        <time>2021-08-15T03:50:14Z</time>
      </trkpt>
      <trkpt lat="45.60916" lon="2.93019">
        <ele>1067.68</ele>
        <time>2021-08-15T03:50:15Z</time>
      </trkpt>
      <trkpt lat="45.60875" lon="2.93037">
        <ele>1064.32</ele>
        <time>2021-08-15T03:50:22Z</time>
      </trkpt>
      <trkpt lat="45.6087" lon="2.9304">
        <ele>1064.32</ele>
        <time>2021-08-15T03:50:23Z</time>
      </trkpt>
      <trkpt lat="45.60802" lon="2.93072">
        <ele>1061.91</ele>
        <time>2021-08-15T03:50:33Z</time>
      </trkpt>
      <trkpt lat="45.60765" lon="2.93087">
        <ele>1061.91</ele>
        <time>2021-08-15T03:50:39Z</time>
      </trkpt>
      <trkpt lat="45.60751" lon="2.9309">
        <ele>1061.91</ele>
        <time>2021-08-15T03:50:44Z</time>
      </trkpt>
      <trkpt lat="45.60731" lon="2.9309">
        <ele>1061.91</ele>
        <time>2021-08-15T03:50:50Z</time>
      </trkpt>
      <trkpt lat="45.60728" lon="2.93091">
        <ele>1061.43</ele>
        <time>2021-08-15T03:50:51Z</time>
      </trkpt>
      <trkpt lat="45.60724" lon="2.93094">
        <ele>1061.43</ele>
        <time>2021-08-15T03:50:52Z</time>
      </trkpt>
      <trkpt lat="45.6072" lon="2.93097">
        <ele>1061.43</ele>
        <time>2021-08-15T03:50:53Z</time>
      </trkpt>
      <trkpt lat="45.60716" lon="2.93101">
        <ele>1061.43</ele>
        <time>2021-08-15T03:50:54Z</time>
      </trkpt>
      <trkpt lat="45.607" lon="2.93122">
        <ele>1060.47</ele>
        <time>2021-08-15T03:50:59Z</time>
      </trkpt>
      <trkpt lat="45.60698" lon="2.93127">
        <ele>1060.47</ele>
        <time>2021-08-15T03:51:00Z</time>
      </trkpt>
      <trkpt lat="45.60697" lon="2.93132">
        <ele>1060.47</ele>
        <time>2021-08-15T03:51:01Z</time>
      </trkpt>
      <trkpt lat="45.6069" lon="2.93153">
        <ele>1060.47</ele>
        <time>2021-08-15T03:51:05Z</time>
      </trkpt>
      <trkpt lat="45.6067" lon="2.9319">
        <ele>1061.91</ele>
        <time>2021-08-15T03:51:13Z</time>
      </trkpt>
      <trkpt lat="45.60642" lon="2.93225">
        <ele>1063.36</ele>
        <time>2021-08-15T03:51:23Z</time>
      </trkpt>
      <trkpt lat="45.60615" lon="2.93249">
        <ele>1063.36</ele>
        <time>2021-08-15T03:51:32Z</time>
      </trkpt>
      <trkpt lat="45.60594" lon="2.93265">
        <ele>1063.36</ele>
        <time>2021-08-15T03:51:41Z</time>
      </trkpt>
      <trkpt lat="45.60574" lon="2.93278">
        <ele>1064.32</ele>
        <time>2021-08-15T03:51:50Z</time>
      </trkpt>
      <trkpt lat="45.60558" lon="2.93288">
        <ele>1065.28</ele>
        <time>2021-08-15T03:51:57Z</time>
      </trkpt>
      <trkpt lat="45.6054" lon="2.93295">
        <ele>1063.84</ele>
        <time>2021-08-15T03:52:04Z</time>
      </trkpt>
      <trkpt lat="45.60536" lon="2.93296">
        <ele>1063.84</ele>
        <time>2021-08-15T03:52:05Z</time>
      </trkpt>
      <trkpt lat="45.60525" lon="2.93297">
        <ele>1063.84</ele>
        <time>2021-08-15T03:52:08Z</time>
      </trkpt>
      <trkpt lat="45.6052" lon="2.93297">
        <ele>1062.87</ele>
        <time>2021-08-15T03:52:09Z</time>
      </trkpt>
      <trkpt lat="45.60515" lon="2.93296">
        <ele>1062.87</ele>
        <time>2021-08-15T03:52:10Z</time>
      </trkpt>
      <trkpt lat="45.605" lon="2.93292">
        <ele>1060.95</ele>
        <time>2021-08-15T03:52:13Z</time>
      </trkpt>
      <trkpt lat="45.60495" lon="2.93291">
        <ele>1059.99</ele>
        <time>2021-08-15T03:52:14Z</time>
      </trkpt>
      <trkpt lat="45.6046" lon="2.93271">
        <ele>1057.59</ele>
        <time>2021-08-15T03:52:21Z</time>
      </trkpt>
      <trkpt lat="45.60449" lon="2.93266">
        <ele>1056.63</ele>
        <time>2021-08-15T03:52:23Z</time>
      </trkpt>
      <trkpt lat="45.60433" lon="2.93258">
        <ele>1054.7</ele>
        <time>2021-08-15T03:52:26Z</time>
      </trkpt>
      <trkpt lat="45.60427" lon="2.93255">
        <ele>1053.74</ele>
        <time>2021-08-15T03:52:27Z</time>
      </trkpt>
      <trkpt lat="45.60422" lon="2.93252">
        <ele>1053.26</ele>
        <time>2021-08-15T03:52:28Z</time>
      </trkpt>
      <trkpt lat="45.60417" lon="2.93248">
        <ele>1053.26</ele>
        <time>2021-08-15T03:52:29Z</time>
      </trkpt>
      <trkpt lat="45.60412" lon="2.93245">
        <ele>1051.82</ele>
        <time>2021-08-15T03:52:30Z</time>
      </trkpt>
      <trkpt lat="45.60407" lon="2.93241">
        <ele>1051.82</ele>
        <time>2021-08-15T03:52:31Z</time>
      </trkpt>
      <trkpt lat="45.60392" lon="2.93231">
        <ele>1050.38</ele>
        <time>2021-08-15T03:52:34Z</time>
      </trkpt>
      <trkpt lat="45.60376" lon="2.93219">
        <ele>1048.45</ele>
        <time>2021-08-15T03:52:37Z</time>
      </trkpt>
      <trkpt lat="45.60353" lon="2.93203">
        <ele>1046.05</ele>
        <time>2021-08-15T03:52:41Z</time>
      </trkpt>
      <trkpt lat="45.60323" lon="2.93187">
        <ele>1044.13</ele>
        <time>2021-08-15T03:52:46Z</time>
      </trkpt>
      <trkpt lat="45.60318" lon="2.93185">
        <ele>1044.13</ele>
        <time>2021-08-15T03:52:47Z</time>
      </trkpt>
      <trkpt lat="45.60312" lon="2.93182">
        <ele>1044.13</ele>
        <time>2021-08-15T03:52:48Z</time>
      </trkpt>
      <trkpt lat="45.60288" lon="2.93165">
        <ele>1041.25</ele>
        <time>2021-08-15T03:52:53Z</time>
      </trkpt>
      <trkpt lat="45.60266" lon="2.93146">
        <ele>1039.8</ele>
        <time>2021-08-15T03:52:58Z</time>
      </trkpt>
      <trkpt lat="45.60261" lon="2.93142">
        <ele>1039.8</ele>
        <time>2021-08-15T03:52:59Z</time>
      </trkpt>
      <trkpt lat="45.60257" lon="2.93139">
        <ele>1038.84</ele>
        <time>2021-08-15T03:53:00Z</time>
      </trkpt>
      <trkpt lat="45.6022" lon="2.93104">
        <ele>1037.4</ele>
        <time>2021-08-15T03:53:09Z</time>
      </trkpt>
      <trkpt lat="45.60208" lon="2.93093">
        <ele>1038.36</ele>
        <time>2021-08-15T03:53:12Z</time>
      </trkpt>
      <trkpt lat="45.60205" lon="2.93089">
        <ele>1038.36</ele>
        <time>2021-08-15T03:53:13Z</time>
      </trkpt>
      <trkpt lat="45.60179" lon="2.93059">
        <ele>1036.92</ele>
        <time>2021-08-15T03:53:21Z</time>
      </trkpt>
      <trkpt lat="45.60149" lon="2.93027">
        <ele>1035.96</ele>
        <time>2021-08-15T03:53:30Z</time>
      </trkpt>
      <trkpt lat="45.6013" lon="2.93008">
        <ele>1034.52</ele>
        <time>2021-08-15T03:53:35Z</time>
      </trkpt>
      <trkpt lat="45.60126" lon="2.93005">
        <ele>1034.52</ele>
        <time>2021-08-15T03:53:36Z</time>
      </trkpt>
      <trkpt lat="45.60123" lon="2.93001">
        <ele>1034.52</ele>
        <time>2021-08-15T03:53:37Z</time>
      </trkpt>
      <trkpt lat="45.60094" lon="2.92972">
        <ele>1034.04</ele>
        <time>2021-08-15T03:53:46Z</time>
      </trkpt>
      <trkpt lat="45.60071" lon="2.92957">
        <ele>1034.52</ele>
        <time>2021-08-15T03:53:53Z</time>
      </trkpt>
      <trkpt lat="45.6005" lon="2.92947">
        <ele>1034.04</ele>
        <time>2021-08-15T03:54:00Z</time>
      </trkpt>
      <trkpt lat="45.60026" lon="2.92934">
        <ele>1034.04</ele>
        <time>2021-08-15T03:54:08Z</time>
      </trkpt>
      <trkpt lat="45.60001" lon="2.92926">
        <ele>1034.04</ele>
        <time>2021-08-15T03:54:16Z</time>
      </trkpt>
      <trkpt lat="45.59985" lon="2.92927">
        <ele>1034.04</ele>
        <time>2021-08-15T03:54:22Z</time>
      </trkpt>
      <trkpt lat="45.59962" lon="2.9293">
        <ele>1034.04</ele>
        <time>2021-08-15T03:54:29Z</time>
      </trkpt>
      <trkpt lat="45.59929" lon="2.92928">
        <ele>1035.48</ele>
        <time>2021-08-15T03:54:39Z</time>
      </trkpt>
      <trkpt lat="45.59914" lon="2.92922">
        <ele>1036.44</ele>
        <time>2021-08-15T03:54:46Z</time>
      </trkpt>
      <trkpt lat="45.59898" lon="2.92918">
        <ele>1037.4</ele>
        <time>2021-08-15T03:54:53Z</time>
      </trkpt>
      <trkpt lat="45.59873" lon="2.92911">
        <ele>1037.88</ele>
        <time>2021-08-15T03:55:03Z</time>
      </trkpt>
      <trkpt lat="45.59849" lon="2.92904">
        <ele>1038.84</ele>
        <time>2021-08-15T03:55:14Z</time>
      </trkpt>
      <trkpt lat="45.5982" lon="2.929">
        <ele>1040.28</ele>
        <time>2021-08-15T03:55:27Z</time>
      </trkpt>
      <trkpt lat="45.59798" lon="2.92898">
        <ele>1040.76</ele>
        <time>2021-08-15T03:55:36Z</time>
      </trkpt>
      <trkpt lat="45.59775" lon="2.929">
        <ele>1038.84</ele>
        <time>2021-08-15T03:55:42Z</time>
      </trkpt>
      <trkpt lat="45.59763" lon="2.92898">
        <ele>1038.36</ele>
        <time>2021-08-15T03:55:46Z</time>
      </trkpt>
      <trkpt lat="45.59761" lon="2.92897">
        <ele>1038.36</ele>
        <time>2021-08-15T03:55:47Z</time>
      </trkpt>
      <trkpt lat="45.59759" lon="2.92895">
        <ele>1038.36</ele>
        <time>2021-08-15T03:55:48Z</time>
      </trkpt>
      <trkpt lat="45.59757" lon="2.92893">
        <ele>1038.36</ele>
        <time>2021-08-15T03:55:49Z</time>
      </trkpt>
      <trkpt lat="45.59754" lon="2.92891">
        <ele>1038.36</ele>
        <time>2021-08-15T03:55:50Z</time>
      </trkpt>
      <trkpt lat="45.59752" lon="2.92889">
        <ele>1037.4</ele>
        <time>2021-08-15T03:55:51Z</time>
      </trkpt>
      <trkpt lat="45.59729" lon="2.92871">
        <ele>1037.4</ele>
        <time>2021-08-15T03:55:58Z</time>
      </trkpt>
      <trkpt lat="45.59704" lon="2.92853">
        <ele>1037.4</ele>
        <time>2021-08-15T03:56:05Z</time>
      </trkpt>
      <trkpt lat="45.59678" lon="2.9284">
        <ele>1036.92</ele>
        <time>2021-08-15T03:56:13Z</time>
      </trkpt>
      <trkpt lat="45.59672" lon="2.92834">
        <ele>1037.88</ele>
        <time>2021-08-15T03:56:16Z</time>
      </trkpt>
      <trkpt lat="45.59668" lon="2.92832">
        <ele>1038.84</ele>
        <time>2021-08-15T03:56:18Z</time>
      </trkpt>
      <trkpt lat="45.59666" lon="2.92833">
        <ele>1038.84</ele>
        <time>2021-08-15T03:56:19Z</time>
      </trkpt>
      <trkpt lat="45.59664" lon="2.92835">
        <ele>1038.84</ele>
        <time>2021-08-15T03:56:20Z</time>
      </trkpt>
      <trkpt lat="45.59646" lon="2.92853">
        <ele>1038.84</ele>
        <time>2021-08-15T03:56:27Z</time>
      </trkpt>
      <trkpt lat="45.59629" lon="2.92859">
        <ele>1038.84</ele>
        <time>2021-08-15T03:56:32Z</time>
      </trkpt>
      <trkpt lat="45.59613" lon="2.92843">
        <ele>1038.84</ele>
        <time>2021-08-15T03:56:38Z</time>
      </trkpt>
      <trkpt lat="45.59596" lon="2.92812">
        <ele>1039.32</ele>
        <time>2021-08-15T03:56:46Z</time>
      </trkpt>
      <trkpt lat="45.59579" lon="2.92776">
        <ele>1040.28</ele>
        <time>2021-08-15T03:56:55Z</time>
      </trkpt>
      <trkpt lat="45.59557" lon="2.92738">
        <ele>1041.25</ele>
        <time>2021-08-15T03:57:05Z</time>
      </trkpt>
      <trkpt lat="45.59534" lon="2.92702">
        <ele>1042.21</ele>
        <time>2021-08-15T03:57:15Z</time>
      </trkpt>
      <trkpt lat="45.59521" lon="2.9267">
        <ele>1043.17</ele>
        <time>2021-08-15T03:57:23Z</time>
      </trkpt>
      <trkpt lat="45.59515" lon="2.92652">
        <ele>1043.65</ele>
        <time>2021-08-15T03:57:28Z</time>
      </trkpt>
      <trkpt lat="45.59497" lon="2.9262">
        <ele>1044.61</ele>
        <time>2021-08-15T03:57:38Z</time>
      </trkpt>
      <trkpt lat="45.59476" lon="2.92598">
        <ele>1045.57</ele>
        <time>2021-08-15T03:57:48Z</time>
      </trkpt>
      <trkpt lat="45.59459" lon="2.92579">
        <ele>1046.53</ele>
        <time>2021-08-15T03:57:57Z</time>
      </trkpt>
      <trkpt lat="45.59445" lon="2.9255">
        <ele>1047.49</ele>
        <time>2021-08-15T03:58:07Z</time>
      </trkpt>
      <trkpt lat="45.59435" lon="2.92513">
        <ele>1047.97</ele>
        <time>2021-08-15T03:58:18Z</time>
      </trkpt>
      <trkpt lat="45.59423" lon="2.92479">
        <ele>1049.42</ele>
        <time>2021-08-15T03:58:29Z</time>
      </trkpt>
      <trkpt lat="45.59406" lon="2.9245">
        <ele>1049.9</ele>
        <time>2021-08-15T03:58:40Z</time>
      </trkpt>
      <trkpt lat="45.59393" lon="2.92432">
        <ele>1050.86</ele>
        <time>2021-08-15T03:58:48Z</time>
      </trkpt>
      <trkpt lat="45.59379" lon="2.92415">
        <ele>1051.34</ele>
        <time>2021-08-15T03:58:56Z</time>
      </trkpt>
      <trkpt lat="45.59367" lon="2.9239">
        <ele>1052.78</ele>
        <time>2021-08-15T03:59:05Z</time>
      </trkpt>
      <trkpt lat="45.5936" lon="2.9237">
        <ele>1053.26</ele>
        <time>2021-08-15T03:59:12Z</time>
      </trkpt>
      <trkpt lat="45.59354" lon="2.92352">
        <ele>1054.22</ele>
        <time>2021-08-15T03:59:19Z</time>
      </trkpt>
      <trkpt lat="45.59346" lon="2.92328">
        <ele>1055.67</ele>
        <time>2021-08-15T03:59:29Z</time>
      </trkpt>
      <trkpt lat="45.59339" lon="2.92304">
        <ele>1056.63</ele>
        <time>2021-08-15T03:59:39Z</time>
      </trkpt>
      <trkpt lat="45.59329" lon="2.92273">
        <ele>1058.55</ele>
        <time>2021-08-15T03:59:52Z</time>
      </trkpt>
      <trkpt lat="45.59321" lon="2.92251">
        <ele>1059.51</ele>
        <time>2021-08-15T04:00:01Z</time>
      </trkpt>
      <trkpt lat="45.59309" lon="2.92221">
        <ele>1060.47</ele>
        <time>2021-08-15T04:00:13Z</time>
      </trkpt>
      <trkpt lat="45.59294" lon="2.92197">
        <ele>1060.47</ele>
        <time>2021-08-15T04:00:22Z</time>
      </trkpt>
      <trkpt lat="45.59275" lon="2.92188">
        <ele>1061.91</ele>
        <time>2021-08-15T04:00:30Z</time>
      </trkpt>
      <trkpt lat="45.59262" lon="2.92186">
        <ele>1060.47</ele>
        <time>2021-08-15T04:00:35Z</time>
      </trkpt>
      <trkpt lat="45.59238" lon="2.92182">
        <ele>1059.51</ele>
        <time>2021-08-15T04:00:42Z</time>
      </trkpt>
      <trkpt lat="45.59234" lon="2.92182">
        <ele>1059.51</ele>
        <time>2021-08-15T04:00:43Z</time>
      </trkpt>
      <trkpt lat="45.59225" lon="2.92179">
        <ele>1059.51</ele>
        <time>2021-08-15T04:00:45Z</time>
      </trkpt>
      <trkpt lat="45.59205" lon="2.92167">
        <ele>1057.59</ele>
        <time>2021-08-15T04:00:49Z</time>
      </trkpt>
      <trkpt lat="45.59186" lon="2.92147">
        <ele>1055.67</ele>
        <time>2021-08-15T04:00:53Z</time>
      </trkpt>
      <trkpt lat="45.59182" lon="2.92141">
        <ele>1054.7</ele>
        <time>2021-08-15T04:00:54Z</time>
      </trkpt>
      <trkpt lat="45.59179" lon="2.92133">
        <ele>1054.22</ele>
        <time>2021-08-15T04:00:55Z</time>
      </trkpt>
      <trkpt lat="45.59177" lon="2.92126">
        <ele>1054.22</ele>
        <time>2021-08-15T04:00:56Z</time>
      </trkpt>
      <trkpt lat="45.59174" lon="2.92118">
        <ele>1053.26</ele>
        <time>2021-08-15T04:00:57Z</time>
      </trkpt>
      <trkpt lat="45.59156" lon="2.9206">
        <ele>1050.38</ele>
        <time>2021-08-15T04:01:04Z</time>
      </trkpt>
      <trkpt lat="45.59145" lon="2.92024">
        <ele>1049.42</ele>
        <time>2021-08-15T04:01:08Z</time>
      </trkpt>
      <trkpt lat="45.59135" lon="2.91998">
        <ele>1047.97</ele>
        <time>2021-08-15T04:01:11Z</time>
      </trkpt>
      <trkpt lat="45.59106" lon="2.9193">
        <ele>1046.05</ele>
        <time>2021-08-15T04:01:19Z</time>
      </trkpt>
      <trkpt lat="45.59102" lon="2.91922">
        <ele>1045.57</ele>
        <time>2021-08-15T04:01:20Z</time>
      </trkpt>
      <trkpt lat="45.59097" lon="2.91915">
        <ele>1045.09</ele>
        <time>2021-08-15T04:01:21Z</time>
      </trkpt>
      <trkpt lat="45.59085" lon="2.91901">
        <ele>1043.17</ele>
        <time>2021-08-15T04:01:23Z</time>
      </trkpt>
      <trkpt lat="45.59072" lon="2.91887">
        <ele>1042.21</ele>
        <time>2021-08-15T04:01:25Z</time>
      </trkpt>
      <trkpt lat="45.59066" lon="2.91881">
        <ele>1042.21</ele>
        <time>2021-08-15T04:01:26Z</time>
      </trkpt>
      <trkpt lat="45.5906" lon="2.91873">
        <ele>1042.21</ele>
        <time>2021-08-15T04:01:27Z</time>
      </trkpt>
      <trkpt lat="45.59055" lon="2.91864">
        <ele>1042.21</ele>
        <time>2021-08-15T04:01:28Z</time>
      </trkpt>
      <trkpt lat="45.59052" lon="2.91855">
        <ele>1042.21</ele>
        <time>2021-08-15T04:01:29Z</time>
      </trkpt>
      <trkpt lat="45.5905" lon="2.91844">
        <ele>1042.21</ele>
        <time>2021-08-15T04:01:30Z</time>
      </trkpt>
      <trkpt lat="45.59048" lon="2.91834">
        <ele>1041.73</ele>
        <time>2021-08-15T04:01:31Z</time>
      </trkpt>
      <trkpt lat="45.59045" lon="2.91787">
        <ele>1041.73</ele>
        <time>2021-08-15T04:01:37Z</time>
      </trkpt>
      <trkpt lat="45.59043" lon="2.91782">
        <ele>1041.73</ele>
        <time>2021-08-15T04:01:38Z</time>
      </trkpt>
      <trkpt lat="45.5904" lon="2.9178">
        <ele>1041.73</ele>
        <time>2021-08-15T04:01:39Z</time>
      </trkpt>
      <trkpt lat="45.59035" lon="2.91779">
        <ele>1041.73</ele>
        <time>2021-08-15T04:01:40Z</time>
      </trkpt>
      <trkpt lat="45.59031" lon="2.91779">
        <ele>1042.21</ele>
        <time>2021-08-15T04:01:41Z</time>
      </trkpt>
      <trkpt lat="45.59025" lon="2.91781">
        <ele>1042.21</ele>
        <time>2021-08-15T04:01:42Z</time>
      </trkpt>
      <trkpt lat="45.5902" lon="2.91783">
        <ele>1042.21</ele>
        <time>2021-08-15T04:01:43Z</time>
      </trkpt>
      <trkpt lat="45.5901" lon="2.91785">
        <ele>1041.73</ele>
        <time>2021-08-15T04:01:45Z</time>
      </trkpt>
      <trkpt lat="45.59005" lon="2.91785">
        <ele>1040.76</ele>
        <time>2021-08-15T04:01:46Z</time>
      </trkpt>
      <trkpt lat="45.59" lon="2.91785">
        <ele>1040.76</ele>
        <time>2021-08-15T04:01:47Z</time>
      </trkpt>
      <trkpt lat="45.58985" lon="2.91786">
        <ele>1040.76</ele>
        <time>2021-08-15T04:01:50Z</time>
      </trkpt>
      <trkpt lat="45.5895" lon="2.91781">
        <ele>1040.28</ele>
        <time>2021-08-15T04:01:58Z</time>
      </trkpt>
      <trkpt lat="45.58935" lon="2.9177">
        <ele>1041.25</ele>
        <time>2021-08-15T04:02:04Z</time>
      </trkpt>
      <trkpt lat="45.58928" lon="2.91761">
        <ele>1042.69</ele>
        <time>2021-08-15T04:02:11Z</time>
      </trkpt>
      <trkpt lat="45.58927" lon="2.91762">
        <ele>1043.17</ele>
        <time>2021-08-15T04:02:12Z</time>
      </trkpt>
      <trkpt lat="45.58926" lon="2.91764">
        <ele>1043.17</ele>
        <time>2021-08-15T04:02:13Z</time>
      </trkpt>
      <trkpt lat="45.58925" lon="2.91767">
        <ele>1043.17</ele>
        <time>2021-08-15T04:02:14Z</time>
      </trkpt>
      <trkpt lat="45.58924" lon="2.9177">
        <ele>1043.17</ele>
        <time>2021-08-15T04:02:15Z</time>
      </trkpt>
      <trkpt lat="45.58923" lon="2.91773">
        <ele>1043.17</ele>
        <time>2021-08-15T04:02:16Z</time>
      </trkpt>
      <trkpt lat="45.58923" lon="2.91776">
        <ele>1043.17</ele>
        <time>2021-08-15T04:02:17Z</time>
      </trkpt>
      <trkpt lat="45.58922" lon="2.91778">
        <ele>1043.17</ele>
        <time>2021-08-15T04:02:18Z</time>
      </trkpt>
      <trkpt lat="45.58921" lon="2.9178">
        <ele>1043.17</ele>
        <time>2021-08-15T04:02:19Z</time>
      </trkpt>
      <trkpt lat="45.58913" lon="2.91791">
        <ele>1043.65</ele>
        <time>2021-08-15T04:02:25Z</time>
      </trkpt>
      <trkpt lat="45.58909" lon="2.91802">
        <ele>1044.13</ele>
        <time>2021-08-15T04:02:30Z</time>
      </trkpt>
      <trkpt lat="45.58907" lon="2.91806">
        <ele>1044.61</ele>
        <time>2021-08-15T04:02:32Z</time>
      </trkpt>
      <trkpt lat="45.58906" lon="2.91807">
        <ele>1044.61</ele>
        <time>2021-08-15T04:02:33Z</time>
      </trkpt>
      <trkpt lat="45.58905" lon="2.91808">
        <ele>1045.09</ele>
        <time>2021-08-15T04:02:34Z</time>
      </trkpt>
      <trkpt lat="45.58903" lon="2.91809">
        <ele>1045.09</ele>
        <time>2021-08-15T04:02:35Z</time>
      </trkpt>
      <trkpt lat="45.58902" lon="2.91809">
        <ele>1045.09</ele>
        <time>2021-08-15T04:02:36Z</time>
      </trkpt>
      <trkpt lat="45.58901" lon="2.91809">
        <ele>1045.09</ele>
        <time>2021-08-15T04:02:37Z</time>
      </trkpt>
      <trkpt lat="45.58899" lon="2.9181">
        <ele>1045.09</ele>
        <time>2021-08-15T04:02:38Z</time>
      </trkpt>
      <trkpt lat="45.58898" lon="2.91809">
        <ele>1045.57</ele>
        <time>2021-08-15T04:02:39Z</time>
      </trkpt>
      <trkpt lat="45.58897" lon="2.91809">
        <ele>1045.57</ele>
        <time>2021-08-15T04:02:40Z</time>
      </trkpt>
      <trkpt lat="45.58895" lon="2.91809">
        <ele>1046.05</ele>
        <time>2021-08-15T04:02:41Z</time>
      </trkpt>
      <trkpt lat="45.58894" lon="2.91809">
        <ele>1046.05</ele>
        <time>2021-08-15T04:02:42Z</time>
      </trkpt>
      <trkpt lat="45.58893" lon="2.91808">
        <ele>1046.05</ele>
        <time>2021-08-15T04:02:43Z</time>
      </trkpt>
      <trkpt lat="45.58892" lon="2.91808">
        <ele>1046.05</ele>
        <time>2021-08-15T04:02:44Z</time>
      </trkpt>
      <trkpt lat="45.58887" lon="2.91805">
        <ele>1046.53</ele>
        <time>2021-08-15T04:02:49Z</time>
      </trkpt>
      <trkpt lat="45.58885" lon="2.91804">
        <ele>1047.49</ele>
        <time>2021-08-15T04:02:50Z</time>
      </trkpt>
      <trkpt lat="45.58879" lon="2.91799">
        <ele>1048.45</ele>
        <time>2021-08-15T04:02:57Z</time>
      </trkpt>
      <trkpt lat="45.58878" lon="2.91798">
        <ele>1048.94</ele>
        <time>2021-08-15T04:02:58Z</time>
      </trkpt>
      <trkpt lat="45.58867" lon="2.91792">
        <ele>1049.9</ele>
        <time>2021-08-15T04:03:07Z</time>
      </trkpt>
      <trkpt lat="45.58856" lon="2.91787">
        <ele>1050.38</ele>
        <time>2021-08-15T04:03:15Z</time>
      </trkpt>
      <trkpt lat="45.58855" lon="2.91787">
        <ele>1050.38</ele>
        <time>2021-08-15T04:03:16Z</time>
      </trkpt>
      <trkpt lat="45.58853" lon="2.91786">
        <ele>1050.86</ele>
        <time>2021-08-15T04:03:17Z</time>
      </trkpt>
      <trkpt lat="45.58852" lon="2.91786">
        <ele>1050.86</ele>
        <time>2021-08-15T04:03:18Z</time>
      </trkpt>
      <trkpt lat="45.58851" lon="2.91786">
        <ele>1050.86</ele>
        <time>2021-08-15T04:03:19Z</time>
      </trkpt>
      <trkpt lat="45.58849" lon="2.91785">
        <ele>1050.86</ele>
        <time>2021-08-15T04:03:20Z</time>
      </trkpt>
      <trkpt lat="45.58837" lon="2.91781">
        <ele>1052.3</ele>
        <time>2021-08-15T04:03:29Z</time>
      </trkpt>
      <trkpt lat="45.58824" lon="2.91777">
        <ele>1052.78</ele>
        <time>2021-08-15T04:03:38Z</time>
      </trkpt>
      <trkpt lat="45.5881" lon="2.91774">
        <ele>1053.74</ele>
        <time>2021-08-15T04:03:46Z</time>
      </trkpt>
      <trkpt lat="45.58792" lon="2.91773">
        <ele>1054.7</ele>
        <time>2021-08-15T04:03:55Z</time>
      </trkpt>
      <trkpt lat="45.58771" lon="2.91774">
        <ele>1055.67</ele>
        <time>2021-08-15T04:04:05Z</time>
      </trkpt>
      <trkpt lat="45.58753" lon="2.91784">
        <ele>1055.67</ele>
        <time>2021-08-15T04:04:13Z</time>
      </trkpt>
      <trkpt lat="45.58732" lon="2.91798">
        <ele>1055.67</ele>
        <time>2021-08-15T04:04:21Z</time>
      </trkpt>
      <trkpt lat="45.58701" lon="2.91815">
        <ele>1055.67</ele>
        <time>2021-08-15T04:04:31Z</time>
      </trkpt>
      <trkpt lat="45.58672" lon="2.91827">
        <ele>1055.67</ele>
        <time>2021-08-15T04:04:40Z</time>
      </trkpt>
      <trkpt lat="45.58643" lon="2.91843">
        <ele>1056.63</ele>
        <time>2021-08-15T04:04:49Z</time>
      </trkpt>
      <trkpt lat="45.58617" lon="2.91855">
        <ele>1056.63</ele>
        <time>2021-08-15T04:04:57Z</time>
      </trkpt>
      <trkpt lat="45.58585" lon="2.9187">
        <ele>1056.63</ele>
        <time>2021-08-15T04:05:07Z</time>
      </trkpt>
      <trkpt lat="45.5856" lon="2.91881">
        <ele>1056.63</ele>
        <time>2021-08-15T04:05:15Z</time>
      </trkpt>
      <trkpt lat="45.58532" lon="2.91886">
        <ele>1057.11</ele>
        <time>2021-08-15T04:05:24Z</time>
      </trkpt>
      <trkpt lat="45.58519" lon="2.9188">
        <ele>1058.07</ele>
        <time>2021-08-15T04:05:30Z</time>
      </trkpt>
      <trkpt lat="45.58502" lon="2.91875">
        <ele>1059.51</ele>
        <time>2021-08-15T04:05:38Z</time>
      </trkpt>
      <trkpt lat="45.58483" lon="2.91866">
        <ele>1059.51</ele>
        <time>2021-08-15T04:05:47Z</time>
      </trkpt>
      <trkpt lat="45.5847" lon="2.9186">
        <ele>1058.07</ele>
        <time>2021-08-15T04:05:52Z</time>
      </trkpt>
      <trkpt lat="45.58444" lon="2.91849">
        <ele>1057.59</ele>
        <time>2021-08-15T04:06:02Z</time>
      </trkpt>
      <trkpt lat="45.58415" lon="2.91836">
        <ele>1057.11</ele>
        <time>2021-08-15T04:06:12Z</time>
      </trkpt>
      <trkpt lat="45.58383" lon="2.91822">
        <ele>1056.63</ele>
        <time>2021-08-15T04:06:22Z</time>
      </trkpt>
      <trkpt lat="45.58352" lon="2.91807">
        <ele>1056.15</ele>
        <time>2021-08-15T04:06:32Z</time>
      </trkpt>
      <trkpt lat="45.58324" lon="2.91785">
        <ele>1054.7</ele>
        <time>2021-08-15T04:06:42Z</time>
      </trkpt>
      <trkpt lat="45.58296" lon="2.91763">
        <ele>1052.78</ele>
        <time>2021-08-15T04:06:51Z</time>
      </trkpt>
      <trkpt lat="45.58278" lon="2.91765">
        <ele>1050.86</ele>
        <time>2021-08-15T04:06:56Z</time>
      </trkpt>
      <trkpt lat="45.58246" lon="2.91784">
        <ele>1047.49</ele>
        <time>2021-08-15T04:07:04Z</time>
      </trkpt>
      <trkpt lat="45.58236" lon="2.9179">
        <ele>1046.53</ele>
        <time>2021-08-15T04:07:06Z</time>
      </trkpt>
      <trkpt lat="45.58226" lon="2.91796">
        <ele>1045.09</ele>
        <time>2021-08-15T04:07:08Z</time>
      </trkpt>
      <trkpt lat="45.58197" lon="2.91813">
        <ele>1042.21</ele>
        <time>2021-08-15T04:07:14Z</time>
      </trkpt>
      <trkpt lat="45.58188" lon="2.91818">
        <ele>1040.76</ele>
        <time>2021-08-15T04:07:16Z</time>
      </trkpt>
      <trkpt lat="45.58184" lon="2.9182">
        <ele>1040.28</ele>
        <time>2021-08-15T04:07:17Z</time>
      </trkpt>
      <trkpt lat="45.58166" lon="2.9183">
        <ele>1036.92</ele>
        <time>2021-08-15T04:07:22Z</time>
      </trkpt>
      <trkpt lat="45.58151" lon="2.91839">
        <ele>1033.55</ele>
        <time>2021-08-15T04:07:28Z</time>
      </trkpt>
      <trkpt lat="45.58145" lon="2.91841">
        <ele>1031.15</ele>
        <time>2021-08-15T04:07:31Z</time>
      </trkpt>
      <trkpt lat="45.58143" lon="2.91841">
        <ele>1030.67</ele>
        <time>2021-08-15T04:07:32Z</time>
      </trkpt>
      <trkpt lat="45.5814" lon="2.9184">
        <ele>1029.23</ele>
        <time>2021-08-15T04:07:33Z</time>
      </trkpt>
      <trkpt lat="45.58125" lon="2.91836">
        <ele>1024.9</ele>
        <time>2021-08-15T04:07:37Z</time>
      </trkpt>
      <trkpt lat="45.58108" lon="2.91837">
        <ele>1021.54</ele>
        <time>2021-08-15T04:07:41Z</time>
      </trkpt>
      <trkpt lat="45.58103" lon="2.9184">
        <ele>1020.58</ele>
        <time>2021-08-15T04:07:42Z</time>
      </trkpt>
      <trkpt lat="45.58094" lon="2.91846">
        <ele>1020.1</ele>
        <time>2021-08-15T04:07:44Z</time>
      </trkpt>
      <trkpt lat="45.58083" lon="2.91852">
        <ele>1017.69</ele>
        <time>2021-08-15T04:07:47Z</time>
      </trkpt>
      <trkpt lat="45.58079" lon="2.91851">
        <ele>1016.25</ele>
        <time>2021-08-15T04:07:48Z</time>
      </trkpt>
      <trkpt lat="45.58075" lon="2.91849">
        <ele>1014.81</ele>
        <time>2021-08-15T04:07:49Z</time>
      </trkpt>
      <trkpt lat="45.58072" lon="2.91846">
        <ele>1013.85</ele>
        <time>2021-08-15T04:07:50Z</time>
      </trkpt>
      <trkpt lat="45.58069" lon="2.91843">
        <ele>1012.41</ele>
        <time>2021-08-15T04:07:51Z</time>
      </trkpt>
      <trkpt lat="45.58067" lon="2.91839">
        <ele>1011.93</ele>
        <time>2021-08-15T04:07:52Z</time>
      </trkpt>
      <trkpt lat="45.58065" lon="2.91835">
        <ele>1011.44</ele>
        <time>2021-08-15T04:07:53Z</time>
      </trkpt>
      <trkpt lat="45.58064" lon="2.91831">
        <ele>1010.48</ele>
        <time>2021-08-15T04:07:54Z</time>
      </trkpt>
      <trkpt lat="45.58061" lon="2.91827">
        <ele>1009.52</ele>
        <time>2021-08-15T04:07:55Z</time>
      </trkpt>
      <trkpt lat="45.58059" lon="2.91823">
        <ele>1008.56</ele>
        <time>2021-08-15T04:07:56Z</time>
      </trkpt>
      <trkpt lat="45.58057" lon="2.91819">
        <ele>1007.6</ele>
        <time>2021-08-15T04:07:57Z</time>
      </trkpt>
      <trkpt lat="45.58054" lon="2.91817">
        <ele>1006.64</ele>
        <time>2021-08-15T04:07:58Z</time>
      </trkpt>
      <trkpt lat="45.58051" lon="2.91815">
        <ele>1005.68</ele>
        <time>2021-08-15T04:07:59Z</time>
      </trkpt>
      <trkpt lat="45.58048" lon="2.91812">
        <ele>1004.23</ele>
        <time>2021-08-15T04:08:00Z</time>
      </trkpt>
      <trkpt lat="45.58037" lon="2.91797">
        <ele>1001.35</ele>
        <time>2021-08-15T04:08:04Z</time>
      </trkpt>
      <trkpt lat="45.58036" lon="2.91793">
        <ele>1001.35</ele>
        <time>2021-08-15T04:08:05Z</time>
      </trkpt>
      <trkpt lat="45.58021" lon="2.91777">
        <ele>998.47</ele>
        <time>2021-08-15T04:08:10Z</time>
      </trkpt>
      <trkpt lat="45.58015" lon="2.91776">
        <ele>997.99</ele>
        <time>2021-08-15T04:08:11Z</time>
      </trkpt>
      <trkpt lat="45.58009" lon="2.91776">
        <ele>997.02</ele>
        <time>2021-08-15T04:08:12Z</time>
      </trkpt>
      <trkpt lat="45.57997" lon="2.91779">
        <ele>995.1</ele>
        <time>2021-08-15T04:08:14Z</time>
      </trkpt>
      <trkpt lat="45.57991" lon="2.91779">
        <ele>994.14</ele>
        <time>2021-08-15T04:08:15Z</time>
      </trkpt>
      <trkpt lat="45.57986" lon="2.91778">
        <ele>993.18</ele>
        <time>2021-08-15T04:08:16Z</time>
      </trkpt>
      <trkpt lat="45.57981" lon="2.91778">
        <ele>992.7</ele>
        <time>2021-08-15T04:08:17Z</time>
      </trkpt>
      <trkpt lat="45.57977" lon="2.91776">
        <ele>992.22</ele>
        <time>2021-08-15T04:08:18Z</time>
      </trkpt>
      <trkpt lat="45.57972" lon="2.91773">
        <ele>991.26</ele>
        <time>2021-08-15T04:08:19Z</time>
      </trkpt>
      <trkpt lat="45.57969" lon="2.9177">
        <ele>990.78</ele>
        <time>2021-08-15T04:08:20Z</time>
      </trkpt>
      <trkpt lat="45.57956" lon="2.91756">
        <ele>986.93</ele>
        <time>2021-08-15T04:08:24Z</time>
      </trkpt>
      <trkpt lat="45.57949" lon="2.91748">
        <ele>985.49</ele>
        <time>2021-08-15T04:08:26Z</time>
      </trkpt>
      <trkpt lat="45.57941" lon="2.91741">
        <ele>983.09</ele>
        <time>2021-08-15T04:08:28Z</time>
      </trkpt>
      <trkpt lat="45.57937" lon="2.91737">
        <ele>982.12</ele>
        <time>2021-08-15T04:08:29Z</time>
      </trkpt>
      <trkpt lat="45.57932" lon="2.91733">
        <ele>980.68</ele>
        <time>2021-08-15T04:08:30Z</time>
      </trkpt>
      <trkpt lat="45.57921" lon="2.91718">
        <ele>977.32</ele>
        <time>2021-08-15T04:08:34Z</time>
      </trkpt>
      <trkpt lat="45.57919" lon="2.91714">
        <ele>976.84</ele>
        <time>2021-08-15T04:08:35Z</time>
      </trkpt>
      <trkpt lat="45.57918" lon="2.9171">
        <ele>976.36</ele>
        <time>2021-08-15T04:08:36Z</time>
      </trkpt>
      <trkpt lat="45.57917" lon="2.91705">
        <ele>976.36</ele>
        <time>2021-08-15T04:08:37Z</time>
      </trkpt>
      <trkpt lat="45.57917" lon="2.91679">
        <ele>972.99</ele>
        <time>2021-08-15T04:08:42Z</time>
      </trkpt>
      <trkpt lat="45.5791" lon="2.91653">
        <ele>969.63</ele>
        <time>2021-08-15T04:08:47Z</time>
      </trkpt>
      <trkpt lat="45.57895" lon="2.91643">
        <ele>966.74</ele>
        <time>2021-08-15T04:08:52Z</time>
      </trkpt>
      <trkpt lat="45.5788" lon="2.91644">
        <ele>964.34</ele>
        <time>2021-08-15T04:08:57Z</time>
      </trkpt>
      <trkpt lat="45.57877" lon="2.91643">
        <ele>964.34</ele>
        <time>2021-08-15T04:08:58Z</time>
      </trkpt>
      <trkpt lat="45.57876" lon="2.91641">
        <ele>963.86</ele>
        <time>2021-08-15T04:08:59Z</time>
      </trkpt>
      <trkpt lat="45.57875" lon="2.91637">
        <ele>963.38</ele>
        <time>2021-08-15T04:09:00Z</time>
      </trkpt>
      <trkpt lat="45.57874" lon="2.91613">
        <ele>960.98</ele>
        <time>2021-08-15T04:09:06Z</time>
      </trkpt>
      <trkpt lat="45.57874" lon="2.91601">
        <ele>959.05</ele>
        <time>2021-08-15T04:09:08Z</time>
      </trkpt>
      <trkpt lat="45.57873" lon="2.91594">
        <ele>958.57</ele>
        <time>2021-08-15T04:09:09Z</time>
      </trkpt>
      <trkpt lat="45.57871" lon="2.91588">
        <ele>957.61</ele>
        <time>2021-08-15T04:09:10Z</time>
      </trkpt>
      <trkpt lat="45.57869" lon="2.9158">
        <ele>957.61</ele>
        <time>2021-08-15T04:09:11Z</time>
      </trkpt>
      <trkpt lat="45.57867" lon="2.91575">
        <ele>956.65</ele>
        <time>2021-08-15T04:09:12Z</time>
      </trkpt>
      <trkpt lat="45.57866" lon="2.9157">
        <ele>956.65</ele>
        <time>2021-08-15T04:09:13Z</time>
      </trkpt>
      <trkpt lat="45.57864" lon="2.91563">
        <ele>955.69</ele>
        <time>2021-08-15T04:09:14Z</time>
      </trkpt>
      <trkpt lat="45.57862" lon="2.91557">
        <ele>955.69</ele>
        <time>2021-08-15T04:09:15Z</time>
      </trkpt>
      <trkpt lat="45.57861" lon="2.9155">
        <ele>954.73</ele>
        <time>2021-08-15T04:09:16Z</time>
      </trkpt>
      <trkpt lat="45.5786" lon="2.91544">
        <ele>955.21</ele>
        <time>2021-08-15T04:09:17Z</time>
      </trkpt>
      <trkpt lat="45.57858" lon="2.91538">
        <ele>953.77</ele>
        <time>2021-08-15T04:09:18Z</time>
      </trkpt>
      <trkpt lat="45.57856" lon="2.91533">
        <ele>953.77</ele>
        <time>2021-08-15T04:09:19Z</time>
      </trkpt>
      <trkpt lat="45.57853" lon="2.91529">
        <ele>953.77</ele>
        <time>2021-08-15T04:09:20Z</time>
      </trkpt>
      <trkpt lat="45.5785" lon="2.91524">
        <ele>952.32</ele>
        <time>2021-08-15T04:09:21Z</time>
      </trkpt>
      <trkpt lat="45.57848" lon="2.9152">
        <ele>951.84</ele>
        <time>2021-08-15T04:09:22Z</time>
      </trkpt>
      <trkpt lat="45.57846" lon="2.91515">
        <ele>951.36</ele>
        <time>2021-08-15T04:09:23Z</time>
      </trkpt>
      <trkpt lat="45.57844" lon="2.9151">
        <ele>950.4</ele>
        <time>2021-08-15T04:09:24Z</time>
      </trkpt>
      <trkpt lat="45.57842" lon="2.91504">
        <ele>949.44</ele>
        <time>2021-08-15T04:09:25Z</time>
      </trkpt>
      <trkpt lat="45.5784" lon="2.91499">
        <ele>948.96</ele>
        <time>2021-08-15T04:09:26Z</time>
      </trkpt>
      <trkpt lat="45.57837" lon="2.91493">
        <ele>947.52</ele>
        <time>2021-08-15T04:09:27Z</time>
      </trkpt>
      <trkpt lat="45.57828" lon="2.91474">
        <ele>944.63</ele>
        <time>2021-08-15T04:09:30Z</time>
      </trkpt>
      <trkpt lat="45.57824" lon="2.91468">
        <ele>943.19</ele>
        <time>2021-08-15T04:09:31Z</time>
      </trkpt>
      <trkpt lat="45.57821" lon="2.91464">
        <ele>942.71</ele>
        <time>2021-08-15T04:09:32Z</time>
      </trkpt>
      <trkpt lat="45.57817" lon="2.9146">
        <ele>941.75</ele>
        <time>2021-08-15T04:09:33Z</time>
      </trkpt>
      <trkpt lat="45.57813" lon="2.91456">
        <ele>940.79</ele>
        <time>2021-08-15T04:09:34Z</time>
      </trkpt>
      <trkpt lat="45.57809" lon="2.91453">
        <ele>939.83</ele>
        <time>2021-08-15T04:09:35Z</time>
      </trkpt>
      <trkpt lat="45.57804" lon="2.9145">
        <ele>938.38</ele>
        <time>2021-08-15T04:09:36Z</time>
      </trkpt>
      <trkpt lat="45.578" lon="2.91448">
        <ele>937.9</ele>
        <time>2021-08-15T04:09:37Z</time>
      </trkpt>
      <trkpt lat="45.57797" lon="2.91447">
        <ele>937.9</ele>
        <time>2021-08-15T04:09:38Z</time>
      </trkpt>
      <trkpt lat="45.57786" lon="2.91444">
        <ele>934.54</ele>
        <time>2021-08-15T04:09:42Z</time>
      </trkpt>
      <trkpt lat="45.57782" lon="2.91444">
        <ele>934.54</ele>
        <time>2021-08-15T04:09:43Z</time>
      </trkpt>
      <trkpt lat="45.57766" lon="2.91443">
        <ele>932.14</ele>
        <time>2021-08-15T04:09:48Z</time>
      </trkpt>
      <trkpt lat="45.57752" lon="2.91453">
        <ele>928.77</ele>
        <time>2021-08-15T04:09:53Z</time>
      </trkpt>
      <trkpt lat="45.5775" lon="2.91457">
        <ele>928.77</ele>
        <time>2021-08-15T04:09:54Z</time>
      </trkpt>
      <trkpt lat="45.57741" lon="2.91475">
        <ele>927.33</ele>
        <time>2021-08-15T04:09:58Z</time>
      </trkpt>
      <trkpt lat="45.57739" lon="2.91481">
        <ele>926.85</ele>
        <time>2021-08-15T04:09:59Z</time>
      </trkpt>
      <trkpt lat="45.57732" lon="2.91506">
        <ele>924.93</ele>
        <time>2021-08-15T04:10:03Z</time>
      </trkpt>
      <trkpt lat="45.57727" lon="2.91527">
        <ele>922.52</ele>
        <time>2021-08-15T04:10:08Z</time>
      </trkpt>
      <trkpt lat="45.57725" lon="2.91533">
        <ele>921.56</ele>
        <time>2021-08-15T04:10:10Z</time>
      </trkpt>
      <trkpt lat="45.57723" lon="2.91534">
        <ele>921.08</ele>
        <time>2021-08-15T04:10:11Z</time>
      </trkpt>
      <trkpt lat="45.57721" lon="2.91532">
        <ele>920.6</ele>
        <time>2021-08-15T04:10:12Z</time>
      </trkpt>
      <trkpt lat="45.57719" lon="2.91529">
        <ele>920.12</ele>
        <time>2021-08-15T04:10:13Z</time>
      </trkpt>
      <trkpt lat="45.57718" lon="2.91524">
        <ele>919.64</ele>
        <time>2021-08-15T04:10:14Z</time>
      </trkpt>
      <trkpt lat="45.57717" lon="2.91519">
        <ele>919.16</ele>
        <time>2021-08-15T04:10:15Z</time>
      </trkpt>
      <trkpt lat="45.57716" lon="2.91513">
        <ele>918.2</ele>
        <time>2021-08-15T04:10:16Z</time>
      </trkpt>
      <trkpt lat="45.57715" lon="2.91496">
        <ele>916.75</ele>
        <time>2021-08-15T04:10:19Z</time>
      </trkpt>
      <trkpt lat="45.57715" lon="2.9149">
        <ele>916.75</ele>
        <time>2021-08-15T04:10:20Z</time>
      </trkpt>
      <trkpt lat="45.57717" lon="2.91478">
        <ele>916.75</ele>
        <time>2021-08-15T04:10:22Z</time>
      </trkpt>
      <trkpt lat="45.57721" lon="2.91443">
        <ele>916.75</ele>
        <time>2021-08-15T04:10:29Z</time>
      </trkpt>
      <trkpt lat="45.57722" lon="2.91427">
        <ele>916.75</ele>
        <time>2021-08-15T04:10:32Z</time>
      </trkpt>
      <trkpt lat="45.57722" lon="2.91421">
        <ele>915.79</ele>
        <time>2021-08-15T04:10:33Z</time>
      </trkpt>
      <trkpt lat="45.57722" lon="2.91381">
        <ele>915.31</ele>
        <time>2021-08-15T04:10:39Z</time>
      </trkpt>
      <trkpt lat="45.5772" lon="2.91358">
        <ele>913.39</ele>
        <time>2021-08-15T04:10:43Z</time>
      </trkpt>
      <trkpt lat="45.57721" lon="2.91347">
        <ele>912.91</ele>
        <time>2021-08-15T04:10:45Z</time>
      </trkpt>
      <trkpt lat="45.57722" lon="2.91341">
        <ele>911.95</ele>
        <time>2021-08-15T04:10:46Z</time>
      </trkpt>
      <trkpt lat="45.57725" lon="2.91335">
        <ele>910.99</ele>
        <time>2021-08-15T04:10:47Z</time>
      </trkpt>
      <trkpt lat="45.57727" lon="2.91329">
        <ele>910.51</ele>
        <time>2021-08-15T04:10:48Z</time>
      </trkpt>
      <trkpt lat="45.57729" lon="2.91324">
        <ele>910.03</ele>
        <time>2021-08-15T04:10:49Z</time>
      </trkpt>
      <trkpt lat="45.57731" lon="2.91319">
        <ele>909.54</ele>
        <time>2021-08-15T04:10:50Z</time>
      </trkpt>
      <trkpt lat="45.57732" lon="2.91314">
        <ele>909.06</ele>
        <time>2021-08-15T04:10:51Z</time>
      </trkpt>
      <trkpt lat="45.57733" lon="2.91309">
        <ele>909.06</ele>
        <time>2021-08-15T04:10:52Z</time>
      </trkpt>
      <trkpt lat="45.57733" lon="2.91305">
        <ele>909.06</ele>
        <time>2021-08-15T04:10:53Z</time>
      </trkpt>
      <trkpt lat="45.57732" lon="2.913">
        <ele>908.58</ele>
        <time>2021-08-15T04:10:54Z</time>
      </trkpt>
      <trkpt lat="45.57731" lon="2.91294">
        <ele>908.58</ele>
        <time>2021-08-15T04:10:55Z</time>
      </trkpt>
      <trkpt lat="45.57721" lon="2.91267">
        <ele>907.62</ele>
        <time>2021-08-15T04:11:02Z</time>
      </trkpt>
      <trkpt lat="45.57716" lon="2.91262">
        <ele>907.62</ele>
        <time>2021-08-15T04:11:05Z</time>
      </trkpt>
      <trkpt lat="45.57715" lon="2.91262">
        <ele>907.14</ele>
        <time>2021-08-15T04:11:06Z</time>
      </trkpt>
      <trkpt lat="45.57713" lon="2.91263">
        <ele>907.14</ele>
        <time>2021-08-15T04:11:07Z</time>
      </trkpt>
      <trkpt lat="45.57716" lon="2.91265">
        <ele>907.14</ele>
        <time>2021-08-15T04:11:11Z</time>
      </trkpt>
      <trkpt lat="45.57717" lon="2.91266">
        <ele>907.14</ele>
        <time>2021-08-15T04:11:12Z</time>
      </trkpt>
      <trkpt lat="45.57719" lon="2.91268">
        <ele>907.14</ele>
        <time>2021-08-15T04:11:14Z</time>
      </trkpt>
      <trkpt lat="45.57726" lon="2.91285">
        <ele>908.58</ele>
        <time>2021-08-15T04:11:22Z</time>
      </trkpt>
      <trkpt lat="45.57731" lon="2.91294">
        <ele>909.06</ele>
        <time>2021-08-15T04:11:26Z</time>
      </trkpt>
      <trkpt lat="45.57734" lon="2.91294">
        <ele>909.06</ele>
        <time>2021-08-15T04:11:29Z</time>
      </trkpt>
      <trkpt lat="45.57735" lon="2.91292">
        <ele>909.06</ele>
        <time>2021-08-15T04:11:30Z</time>
      </trkpt>
      <trkpt lat="45.57742" lon="2.91281">
        <ele>909.06</ele>
        <time>2021-08-15T04:11:37Z</time>
      </trkpt>
      <trkpt lat="45.57743" lon="2.91258">
        <ele>909.06</ele>
        <time>2021-08-15T04:11:43Z</time>
      </trkpt>
      <trkpt lat="45.57742" lon="2.91222">
        <ele>909.54</ele>
        <time>2021-08-15T04:11:54Z</time>
      </trkpt>
      <trkpt lat="45.57736" lon="2.91201">
        <ele>910.99</ele>
        <time>2021-08-15T04:12:03Z</time>
      </trkpt>
      <trkpt lat="45.57734" lon="2.91196">
        <ele>911.47</ele>
        <time>2021-08-15T04:12:05Z</time>
      </trkpt>
      <trkpt lat="45.57729" lon="2.91173">
        <ele>911.95</ele>
        <time>2021-08-15T04:12:14Z</time>
      </trkpt>
      <trkpt lat="45.57724" lon="2.91153">
        <ele>912.91</ele>
        <time>2021-08-15T04:12:22Z</time>
      </trkpt>
      <trkpt lat="45.5772" lon="2.9113">
        <ele>913.87</ele>
        <time>2021-08-15T04:12:32Z</time>
      </trkpt>
      <trkpt lat="45.57719" lon="2.91118">
        <ele>914.83</ele>
        <time>2021-08-15T04:12:39Z</time>
      </trkpt>
      <trkpt lat="45.57718" lon="2.91104">
        <ele>916.27</ele>
        <time>2021-08-15T04:12:48Z</time>
      </trkpt>
      <trkpt lat="45.57717" lon="2.9109">
        <ele>917.72</ele>
        <time>2021-08-15T04:12:57Z</time>
      </trkpt>
      <trkpt lat="45.57714" lon="2.91072">
        <ele>919.16</ele>
        <time>2021-08-15T04:13:08Z</time>
      </trkpt>
      <trkpt lat="45.57705" lon="2.91056">
        <ele>919.64</ele>
        <time>2021-08-15T04:13:17Z</time>
      </trkpt>
      <trkpt lat="45.5769" lon="2.91034">
        <ele>918.68</ele>
        <time>2021-08-15T04:13:24Z</time>
      </trkpt>
      <trkpt lat="45.57665" lon="2.91">
        <ele>917.72</ele>
        <time>2021-08-15T04:13:34Z</time>
      </trkpt>
      <trkpt lat="45.5765" lon="2.90979">
        <ele>917.72</ele>
        <time>2021-08-15T04:13:41Z</time>
      </trkpt>
      <trkpt lat="45.57627" lon="2.90949">
        <ele>918.68</ele>
        <time>2021-08-15T04:13:51Z</time>
      </trkpt>
      <trkpt lat="45.57612" lon="2.90927">
        <ele>919.16</ele>
        <time>2021-08-15T04:13:59Z</time>
      </trkpt>
      <trkpt lat="45.57604" lon="2.90914">
        <ele>917.24</ele>
        <time>2021-08-15T04:14:02Z</time>
      </trkpt>
      <trkpt lat="45.57585" lon="2.90887">
        <ele>914.35</ele>
        <time>2021-08-15T04:14:10Z</time>
      </trkpt>
      <trkpt lat="45.57566" lon="2.90859">
        <ele>911.47</ele>
        <time>2021-08-15T04:14:16Z</time>
      </trkpt>
      <trkpt lat="45.57552" lon="2.90841">
        <ele>908.58</ele>
        <time>2021-08-15T04:14:20Z</time>
      </trkpt>
      <trkpt lat="45.57536" lon="2.90821">
        <ele>904.74</ele>
        <time>2021-08-15T04:14:24Z</time>
      </trkpt>
      <trkpt lat="45.5752" lon="2.90801">
        <ele>899.93</ele>
        <time>2021-08-15T04:14:27Z</time>
      </trkpt>
      <trkpt lat="45.57508" lon="2.90787">
        <ele>896.57</ele>
        <time>2021-08-15T04:14:29Z</time>
      </trkpt>
      <trkpt lat="45.57498" lon="2.90775">
        <ele>895.61</ele>
        <time>2021-08-15T04:14:31Z</time>
      </trkpt>
      <trkpt lat="45.57494" lon="2.90773">
        <ele>894.64</ele>
        <time>2021-08-15T04:14:32Z</time>
      </trkpt>
      <trkpt lat="45.57489" lon="2.90774">
        <ele>894.16</ele>
        <time>2021-08-15T04:14:33Z</time>
      </trkpt>
      <trkpt lat="45.57484" lon="2.90777">
        <ele>893.68</ele>
        <time>2021-08-15T04:14:34Z</time>
      </trkpt>
      <trkpt lat="45.57478" lon="2.90784">
        <ele>893.2</ele>
        <time>2021-08-15T04:14:35Z</time>
      </trkpt>
      <trkpt lat="45.57473" lon="2.90791">
        <ele>892.24</ele>
        <time>2021-08-15T04:14:36Z</time>
      </trkpt>
      <trkpt lat="45.57467" lon="2.90799">
        <ele>891.76</ele>
        <time>2021-08-15T04:14:37Z</time>
      </trkpt>
      <trkpt lat="45.57461" lon="2.90808">
        <ele>891.76</ele>
        <time>2021-08-15T04:14:38Z</time>
      </trkpt>
      <trkpt lat="45.57424" lon="2.90863">
        <ele>889.84</ele>
        <time>2021-08-15T04:14:45Z</time>
      </trkpt>
      <trkpt lat="45.57417" lon="2.90875">
        <ele>888.88</ele>
        <time>2021-08-15T04:14:48Z</time>
      </trkpt>
      <trkpt lat="45.57415" lon="2.90876">
        <ele>888.88</ele>
        <time>2021-08-15T04:14:49Z</time>
      </trkpt>
      <trkpt lat="45.57413" lon="2.90875">
        <ele>888.88</ele>
        <time>2021-08-15T04:14:50Z</time>
      </trkpt>
      <trkpt lat="45.57411" lon="2.90872">
        <ele>889.36</ele>
        <time>2021-08-15T04:14:51Z</time>
      </trkpt>
      <trkpt lat="45.5741" lon="2.90869">
        <ele>889.36</ele>
        <time>2021-08-15T04:14:52Z</time>
      </trkpt>
      <trkpt lat="45.574" lon="2.90842">
        <ele>889.36</ele>
        <time>2021-08-15T04:14:58Z</time>
      </trkpt>
      <trkpt lat="45.57384" lon="2.90799">
        <ele>889.36</ele>
        <time>2021-08-15T04:15:06Z</time>
      </trkpt>
      <trkpt lat="45.57363" lon="2.90752">
        <ele>889.36</ele>
        <time>2021-08-15T04:15:15Z</time>
      </trkpt>
      <trkpt lat="45.57351" lon="2.90727">
        <ele>889.36</ele>
        <time>2021-08-15T04:15:20Z</time>
      </trkpt>
      <trkpt lat="45.57323" lon="2.90686">
        <ele>889.36</ele>
        <time>2021-08-15T04:15:29Z</time>
      </trkpt>
      <trkpt lat="45.57307" lon="2.90665">
        <ele>889.36</ele>
        <time>2021-08-15T04:15:34Z</time>
      </trkpt>
      <trkpt lat="45.57304" lon="2.90662">
        <ele>890.32</ele>
        <time>2021-08-15T04:15:35Z</time>
      </trkpt>
      <trkpt lat="45.57274" lon="2.9063">
        <ele>890.32</ele>
        <time>2021-08-15T04:15:44Z</time>
      </trkpt>
      <trkpt lat="45.57245" lon="2.90597">
        <ele>890.8</ele>
        <time>2021-08-15T04:15:53Z</time>
      </trkpt>
      <trkpt lat="45.57224" lon="2.90563">
        <ele>890.8</ele>
        <time>2021-08-15T04:16:01Z</time>
      </trkpt>
      <trkpt lat="45.57193" lon="2.90513">
        <ele>891.76</ele>
        <time>2021-08-15T04:16:13Z</time>
      </trkpt>
      <trkpt lat="45.57166" lon="2.90474">
        <ele>892.72</ele>
        <time>2021-08-15T04:16:23Z</time>
      </trkpt>
      <trkpt lat="45.57148" lon="2.90446">
        <ele>892.72</ele>
        <time>2021-08-15T04:16:30Z</time>
      </trkpt>
      <trkpt lat="45.57124" lon="2.90408">
        <ele>892.72</ele>
        <time>2021-08-15T04:16:39Z</time>
      </trkpt>
      <trkpt lat="45.571" lon="2.90367">
        <ele>893.2</ele>
        <time>2021-08-15T04:16:49Z</time>
      </trkpt>
      <trkpt lat="45.57087" lon="2.9033">
        <ele>893.68</ele>
        <time>2021-08-15T04:16:56Z</time>
      </trkpt>
      <trkpt lat="45.57078" lon="2.90276">
        <ele>894.16</ele>
        <time>2021-08-15T04:17:06Z</time>
      </trkpt>
      <trkpt lat="45.57066" lon="2.90221">
        <ele>894.16</ele>
        <time>2021-08-15T04:17:16Z</time>
      </trkpt>
      <trkpt lat="45.57058" lon="2.90166">
        <ele>894.64</ele>
        <time>2021-08-15T04:17:26Z</time>
      </trkpt>
      <trkpt lat="45.57058" lon="2.90108">
        <ele>895.12</ele>
        <time>2021-08-15T04:17:37Z</time>
      </trkpt>
      <trkpt lat="45.57062" lon="2.90064">
        <ele>896.09</ele>
        <time>2021-08-15T04:17:46Z</time>
      </trkpt>
      <trkpt lat="45.57062" lon="2.90036">
        <ele>896.57</ele>
        <time>2021-08-15T04:17:53Z</time>
      </trkpt>
      <trkpt lat="45.57061" lon="2.90035">
        <ele>897.05</ele>
        <time>2021-08-15T04:17:54Z</time>
      </trkpt>
      <trkpt lat="45.57059" lon="2.90033">
        <ele>897.05</ele>
        <time>2021-08-15T04:17:55Z</time>
      </trkpt>
      <trkpt lat="45.57058" lon="2.90033">
        <ele>897.05</ele>
        <time>2021-08-15T04:17:56Z</time>
      </trkpt>
      <trkpt lat="45.57056" lon="2.90033">
        <ele>897.05</ele>
        <time>2021-08-15T04:17:57Z</time>
      </trkpt>
      <trkpt lat="45.57054" lon="2.90033">
        <ele>897.05</ele>
        <time>2021-08-15T04:17:58Z</time>
      </trkpt>
      <trkpt lat="45.57052" lon="2.90034">
        <ele>897.05</ele>
        <time>2021-08-15T04:17:59Z</time>
      </trkpt>
      <trkpt lat="45.57049" lon="2.90035">
        <ele>897.05</ele>
        <time>2021-08-15T04:18:00Z</time>
      </trkpt>
      <trkpt lat="45.57046" lon="2.90037">
        <ele>897.05</ele>
        <time>2021-08-15T04:18:01Z</time>
      </trkpt>
      <trkpt lat="45.57025" lon="2.90049">
        <ele>897.05</ele>
        <time>2021-08-15T04:18:08Z</time>
      </trkpt>
      <trkpt lat="45.57012" lon="2.90063">
        <ele>897.05</ele>
        <time>2021-08-15T04:18:13Z</time>
      </trkpt>
      <trkpt lat="45.57005" lon="2.90078">
        <ele>897.05</ele>
        <time>2021-08-15T04:18:16Z</time>
      </trkpt>
      <trkpt lat="45.57003" lon="2.90084">
        <ele>897.05</ele>
        <time>2021-08-15T04:18:17Z</time>
      </trkpt>
      <trkpt lat="45.56999" lon="2.90096">
        <ele>897.05</ele>
        <time>2021-08-15T04:18:19Z</time>
      </trkpt>
      <trkpt lat="45.56998" lon="2.90102">
        <ele>897.05</ele>
        <time>2021-08-15T04:18:20Z</time>
      </trkpt>
      <trkpt lat="45.5699" lon="2.90151">
        <ele>897.05</ele>
        <time>2021-08-15T04:18:29Z</time>
      </trkpt>
      <trkpt lat="45.56983" lon="2.90214">
        <ele>897.05</ele>
        <time>2021-08-15T04:18:40Z</time>
      </trkpt>
      <trkpt lat="45.56983" lon="2.90227">
        <ele>895.61</ele>
        <time>2021-08-15T04:18:42Z</time>
      </trkpt>
      <trkpt lat="45.56982" lon="2.90246">
        <ele>895.61</ele>
        <time>2021-08-15T04:18:45Z</time>
      </trkpt>
      <trkpt lat="45.5698" lon="2.90266">
        <ele>895.61</ele>
        <time>2021-08-15T04:18:48Z</time>
      </trkpt>
      <trkpt lat="45.56979" lon="2.90331">
        <ele>894.64</ele>
        <time>2021-08-15T04:18:57Z</time>
      </trkpt>
      <trkpt lat="45.56975" lon="2.90439">
        <ele>893.68</ele>
        <time>2021-08-15T04:19:10Z</time>
      </trkpt>
      <trkpt lat="45.56973" lon="2.90533">
        <ele>893.68</ele>
        <time>2021-08-15T04:19:21Z</time>
      </trkpt>
      <trkpt lat="45.56974" lon="2.90611">
        <ele>893.68</ele>
        <time>2021-08-15T04:19:30Z</time>
      </trkpt>
      <trkpt lat="45.56968" lon="2.90695">
        <ele>892.72</ele>
        <time>2021-08-15T04:19:39Z</time>
      </trkpt>
      <trkpt lat="45.56959" lon="2.90776">
        <ele>892.24</ele>
        <time>2021-08-15T04:19:48Z</time>
      </trkpt>
      <trkpt lat="45.56958" lon="2.90802">
        <ele>892.24</ele>
        <time>2021-08-15T04:19:51Z</time>
      </trkpt>
      <trkpt lat="45.56957" lon="2.90809">
        <ele>892.24</ele>
        <time>2021-08-15T04:19:52Z</time>
      </trkpt>
      <trkpt lat="45.56955" lon="2.90816">
        <ele>892.24</ele>
        <time>2021-08-15T04:19:53Z</time>
      </trkpt>
      <trkpt lat="45.56947" lon="2.90849">
        <ele>892.24</ele>
        <time>2021-08-15T04:19:58Z</time>
      </trkpt>
      <trkpt lat="45.56945" lon="2.9089">
        <ele>890.8</ele>
        <time>2021-08-15T04:20:03Z</time>
      </trkpt>
      <trkpt lat="45.56942" lon="2.90906">
        <ele>890.8</ele>
        <time>2021-08-15T04:20:05Z</time>
      </trkpt>
      <trkpt lat="45.56936" lon="2.90927">
        <ele>890.8</ele>
        <time>2021-08-15T04:20:08Z</time>
      </trkpt>
      <trkpt lat="45.56908" lon="2.90985">
        <ele>890.32</ele>
        <time>2021-08-15T04:20:17Z</time>
      </trkpt>
      <trkpt lat="45.56904" lon="2.9099">
        <ele>890.32</ele>
        <time>2021-08-15T04:20:18Z</time>
      </trkpt>
      <trkpt lat="45.5689" lon="2.91005">
        <ele>890.32</ele>
        <time>2021-08-15T04:20:21Z</time>
      </trkpt>
      <trkpt lat="45.56843" lon="2.91045">
        <ele>890.32</ele>
        <time>2021-08-15T04:20:31Z</time>
      </trkpt>
      <trkpt lat="45.56838" lon="2.9105">
        <ele>890.32</ele>
        <time>2021-08-15T04:20:32Z</time>
      </trkpt>
      <trkpt lat="45.56835" lon="2.91055">
        <ele>890.32</ele>
        <time>2021-08-15T04:20:33Z</time>
      </trkpt>
      <trkpt lat="45.56832" lon="2.91062">
        <ele>890.32</ele>
        <time>2021-08-15T04:20:34Z</time>
      </trkpt>
      <trkpt lat="45.56829" lon="2.91069">
        <ele>889.84</ele>
        <time>2021-08-15T04:20:35Z</time>
      </trkpt>
      <trkpt lat="45.56814" lon="2.9111">
        <ele>889.84</ele>
        <time>2021-08-15T04:20:41Z</time>
      </trkpt>
      <trkpt lat="45.56794" lon="2.91184">
        <ele>889.36</ele>
        <time>2021-08-15T04:20:52Z</time>
      </trkpt>
      <trkpt lat="45.56784" lon="2.9123">
        <ele>889.36</ele>
        <time>2021-08-15T04:21:00Z</time>
      </trkpt>
      <trkpt lat="45.56779" lon="2.91251">
        <ele>889.36</ele>
        <time>2021-08-15T04:21:06Z</time>
      </trkpt>
      <trkpt lat="45.56779" lon="2.91257">
        <ele>889.36</ele>
        <time>2021-08-15T04:21:08Z</time>
      </trkpt>
      <trkpt lat="45.5678" lon="2.9126">
        <ele>889.36</ele>
        <time>2021-08-15T04:21:09Z</time>
      </trkpt>
      <trkpt lat="45.56782" lon="2.91263">
        <ele>889.36</ele>
        <time>2021-08-15T04:21:10Z</time>
      </trkpt>
      <trkpt lat="45.56785" lon="2.91265">
        <ele>890.8</ele>
        <time>2021-08-15T04:21:11Z</time>
      </trkpt>
      <trkpt lat="45.56786" lon="2.91267">
        <ele>890.8</ele>
        <time>2021-08-15T04:21:12Z</time>
      </trkpt>
      <trkpt lat="45.56787" lon="2.9127">
        <ele>890.8</ele>
        <time>2021-08-15T04:21:13Z</time>
      </trkpt>
      <trkpt lat="45.56787" lon="2.91274">
        <ele>890.8</ele>
        <time>2021-08-15T04:21:14Z</time>
      </trkpt>
      <trkpt lat="45.56787" lon="2.91278">
        <ele>890.8</ele>
        <time>2021-08-15T04:21:15Z</time>
      </trkpt>
      <trkpt lat="45.56788" lon="2.91303">
        <ele>890.8</ele>
        <time>2021-08-15T04:21:22Z</time>
      </trkpt>
      <trkpt lat="45.56788" lon="2.9134">
        <ele>890.8</ele>
        <time>2021-08-15T04:21:30Z</time>
      </trkpt>
      <trkpt lat="45.56786" lon="2.91388">
        <ele>888.88</ele>
        <time>2021-08-15T04:21:37Z</time>
      </trkpt>
      <trkpt lat="45.56786" lon="2.91395">
        <ele>888.88</ele>
        <time>2021-08-15T04:21:38Z</time>
      </trkpt>
      <trkpt lat="45.56783" lon="2.91459">
        <ele>888.4</ele>
        <time>2021-08-15T04:21:47Z</time>
      </trkpt>
      <trkpt lat="45.56783" lon="2.91513">
        <ele>888.4</ele>
        <time>2021-08-15T04:21:56Z</time>
      </trkpt>
      <trkpt lat="45.56783" lon="2.91519">
        <ele>888.4</ele>
        <time>2021-08-15T04:21:57Z</time>
      </trkpt>
      <trkpt lat="45.56778" lon="2.91541">
        <ele>888.4</ele>
        <time>2021-08-15T04:22:02Z</time>
      </trkpt>
      <trkpt lat="45.56777" lon="2.91543">
        <ele>888.4</ele>
        <time>2021-08-15T04:22:03Z</time>
      </trkpt>
      <trkpt lat="45.56776" lon="2.91544">
        <ele>888.4</ele>
        <time>2021-08-15T04:22:04Z</time>
      </trkpt>
      <trkpt lat="45.56775" lon="2.91544">
        <ele>888.4</ele>
        <time>2021-08-15T04:22:05Z</time>
      </trkpt>
      <trkpt lat="45.56773" lon="2.91545">
        <ele>888.4</ele>
        <time>2021-08-15T04:22:06Z</time>
      </trkpt>
      <trkpt lat="45.56772" lon="2.91547">
        <ele>888.4</ele>
        <time>2021-08-15T04:22:07Z</time>
      </trkpt>
      <trkpt lat="45.56771" lon="2.91549">
        <ele>888.4</ele>
        <time>2021-08-15T04:22:08Z</time>
      </trkpt>
      <trkpt lat="45.5677" lon="2.91553">
        <ele>888.4</ele>
        <time>2021-08-15T04:22:09Z</time>
      </trkpt>
      <trkpt lat="45.56769" lon="2.91557">
        <ele>888.4</ele>
        <time>2021-08-15T04:22:10Z</time>
      </trkpt>
      <trkpt lat="45.56768" lon="2.91561">
        <ele>888.4</ele>
        <time>2021-08-15T04:22:11Z</time>
      </trkpt>
      <trkpt lat="45.56761" lon="2.91592">
        <ele>888.4</ele>
        <time>2021-08-15T04:22:17Z</time>
      </trkpt>
      <trkpt lat="45.56758" lon="2.9162">
        <ele>888.4</ele>
        <time>2021-08-15T04:22:22Z</time>
      </trkpt>
      <trkpt lat="45.56758" lon="2.91655">
        <ele>888.4</ele>
        <time>2021-08-15T04:22:28Z</time>
      </trkpt>
      <trkpt lat="45.56761" lon="2.91683">
        <ele>889.84</ele>
        <time>2021-08-15T04:22:34Z</time>
      </trkpt>
      <trkpt lat="45.56761" lon="2.91687">
        <ele>889.84</ele>
        <time>2021-08-15T04:22:35Z</time>
      </trkpt>
      <trkpt lat="45.56766" lon="2.91713">
        <ele>889.84</ele>
        <time>2021-08-15T04:22:41Z</time>
      </trkpt>
      <trkpt lat="45.5677" lon="2.91741">
        <ele>888.4</ele>
        <time>2021-08-15T04:22:45Z</time>
      </trkpt>
      <trkpt lat="45.56771" lon="2.91748">
        <ele>887.91</ele>
        <time>2021-08-15T04:22:46Z</time>
      </trkpt>
      <trkpt lat="45.56771" lon="2.91755">
        <ele>887.91</ele>
        <time>2021-08-15T04:22:47Z</time>
      </trkpt>
      <trkpt lat="45.56773" lon="2.91769">
        <ele>887.43</ele>
        <time>2021-08-15T04:22:49Z</time>
      </trkpt>
      <trkpt lat="45.56778" lon="2.9181">
        <ele>887.43</ele>
        <time>2021-08-15T04:22:56Z</time>
      </trkpt>
      <trkpt lat="45.56776" lon="2.91841">
        <ele>887.43</ele>
        <time>2021-08-15T04:23:01Z</time>
      </trkpt>
      <trkpt lat="45.56772" lon="2.91862">
        <ele>887.43</ele>
        <time>2021-08-15T04:23:04Z</time>
      </trkpt>
      <trkpt lat="45.56766" lon="2.9192">
        <ele>886.95</ele>
        <time>2021-08-15T04:23:12Z</time>
      </trkpt>
      <trkpt lat="45.56764" lon="2.91948">
        <ele>886.95</ele>
        <time>2021-08-15T04:23:16Z</time>
      </trkpt>
      <trkpt lat="45.56763" lon="2.91954">
        <ele>886.95</ele>
        <time>2021-08-15T04:23:17Z</time>
      </trkpt>
      <trkpt lat="45.56761" lon="2.91961">
        <ele>886.95</ele>
        <time>2021-08-15T04:23:18Z</time>
      </trkpt>
      <trkpt lat="45.56755" lon="2.91976">
        <ele>886.95</ele>
        <time>2021-08-15T04:23:21Z</time>
      </trkpt>
      <trkpt lat="45.56748" lon="2.91992">
        <ele>886.47</ele>
        <time>2021-08-15T04:23:24Z</time>
      </trkpt>
      <trkpt lat="45.56746" lon="2.91999">
        <ele>886.47</ele>
        <time>2021-08-15T04:23:25Z</time>
      </trkpt>
      <trkpt lat="45.56745" lon="2.92005">
        <ele>886.47</ele>
        <time>2021-08-15T04:23:26Z</time>
      </trkpt>
      <trkpt lat="45.5674" lon="2.92053">
        <ele>886.47</ele>
        <time>2021-08-15T04:23:33Z</time>
      </trkpt>
      <trkpt lat="45.56736" lon="2.92092">
        <ele>886.47</ele>
        <time>2021-08-15T04:23:39Z</time>
      </trkpt>
      <trkpt lat="45.56727" lon="2.92133">
        <ele>886.47</ele>
        <time>2021-08-15T04:23:46Z</time>
      </trkpt>
      <trkpt lat="45.56722" lon="2.92143">
        <ele>886.47</ele>
        <time>2021-08-15T04:23:48Z</time>
      </trkpt>
      <trkpt lat="45.5672" lon="2.9215">
        <ele>886.47</ele>
        <time>2021-08-15T04:23:49Z</time>
      </trkpt>
      <trkpt lat="45.56718" lon="2.92157">
        <ele>886.47</ele>
        <time>2021-08-15T04:23:50Z</time>
      </trkpt>
      <trkpt lat="45.56716" lon="2.92164">
        <ele>886.47</ele>
        <time>2021-08-15T04:23:51Z</time>
      </trkpt>
      <trkpt lat="45.56714" lon="2.9217">
        <ele>886.47</ele>
        <time>2021-08-15T04:23:52Z</time>
      </trkpt>
      <trkpt lat="45.56709" lon="2.92213">
        <ele>886.47</ele>
        <time>2021-08-15T04:23:58Z</time>
      </trkpt>
      <trkpt lat="45.5671" lon="2.92221">
        <ele>886.47</ele>
        <time>2021-08-15T04:23:59Z</time>
      </trkpt>
      <trkpt lat="45.56711" lon="2.92235">
        <ele>886.47</ele>
        <time>2021-08-15T04:24:01Z</time>
      </trkpt>
      <trkpt lat="45.56712" lon="2.92242">
        <ele>886.47</ele>
        <time>2021-08-15T04:24:02Z</time>
      </trkpt>
      <trkpt lat="45.56713" lon="2.92248">
        <ele>886.47</ele>
        <time>2021-08-15T04:24:03Z</time>
      </trkpt>
      <trkpt lat="45.56715" lon="2.92254">
        <ele>886.47</ele>
        <time>2021-08-15T04:24:04Z</time>
      </trkpt>
      <trkpt lat="45.56718" lon="2.92261">
        <ele>886.47</ele>
        <time>2021-08-15T04:24:05Z</time>
      </trkpt>
      <trkpt lat="45.5672" lon="2.92266">
        <ele>886.47</ele>
        <time>2021-08-15T04:24:06Z</time>
      </trkpt>
      <trkpt lat="45.56729" lon="2.92291">
        <ele>886.47</ele>
        <time>2021-08-15T04:24:10Z</time>
      </trkpt>
      <trkpt lat="45.56738" lon="2.92316">
        <ele>886.47</ele>
        <time>2021-08-15T04:24:14Z</time>
      </trkpt>
      <trkpt lat="45.56749" lon="2.9234">
        <ele>886.47</ele>
        <time>2021-08-15T04:24:18Z</time>
      </trkpt>
      <trkpt lat="45.56761" lon="2.9238">
        <ele>886.47</ele>
        <time>2021-08-15T04:24:24Z</time>
      </trkpt>
      <trkpt lat="45.56762" lon="2.92387">
        <ele>886.47</ele>
        <time>2021-08-15T04:24:25Z</time>
      </trkpt>
      <trkpt lat="45.56768" lon="2.92427">
        <ele>886.47</ele>
        <time>2021-08-15T04:24:32Z</time>
      </trkpt>
      <trkpt lat="45.5677" lon="2.92442">
        <ele>886.47</ele>
        <time>2021-08-15T04:24:34Z</time>
      </trkpt>
      <trkpt lat="45.56769" lon="2.92448">
        <ele>886.47</ele>
        <time>2021-08-15T04:24:35Z</time>
      </trkpt>
      <trkpt lat="45.56769" lon="2.92455">
        <ele>886.47</ele>
        <time>2021-08-15T04:24:36Z</time>
      </trkpt>
      <trkpt lat="45.56764" lon="2.92503">
        <ele>886.47</ele>
        <time>2021-08-15T04:24:43Z</time>
      </trkpt>
      <trkpt lat="45.56763" lon="2.92522">
        <ele>886.95</ele>
        <time>2021-08-15T04:24:46Z</time>
      </trkpt>
      <trkpt lat="45.56763" lon="2.9253">
        <ele>886.47</ele>
        <time>2021-08-15T04:24:47Z</time>
      </trkpt>
      <trkpt lat="45.56763" lon="2.9259">
        <ele>886.95</ele>
        <time>2021-08-15T04:24:56Z</time>
      </trkpt>
      <trkpt lat="45.56762" lon="2.92604">
        <ele>886.95</ele>
        <time>2021-08-15T04:24:58Z</time>
      </trkpt>
      <trkpt lat="45.56761" lon="2.92631">
        <ele>886.95</ele>
        <time>2021-08-15T04:25:02Z</time>
      </trkpt>
      <trkpt lat="45.56761" lon="2.92638">
        <ele>886.95</ele>
        <time>2021-08-15T04:25:03Z</time>
      </trkpt>
      <trkpt lat="45.56762" lon="2.92691">
        <ele>886.95</ele>
        <time>2021-08-15T04:25:11Z</time>
      </trkpt>
      <trkpt lat="45.56761" lon="2.92697">
        <ele>886.95</ele>
        <time>2021-08-15T04:25:12Z</time>
      </trkpt>
      <trkpt lat="45.56762" lon="2.92704">
        <ele>886.95</ele>
        <time>2021-08-15T04:25:13Z</time>
      </trkpt>
      <trkpt lat="45.56762" lon="2.92711">
        <ele>886.95</ele>
        <time>2021-08-15T04:25:14Z</time>
      </trkpt>
      <trkpt lat="45.56762" lon="2.92718">
        <ele>886.95</ele>
        <time>2021-08-15T04:25:15Z</time>
      </trkpt>
      <trkpt lat="45.56763" lon="2.92731">
        <ele>886.95</ele>
        <time>2021-08-15T04:25:17Z</time>
      </trkpt>
      <trkpt lat="45.56765" lon="2.92752">
        <ele>886.95</ele>
        <time>2021-08-15T04:25:20Z</time>
      </trkpt>
      <trkpt lat="45.56765" lon="2.92758">
        <ele>886.95</ele>
        <time>2021-08-15T04:25:21Z</time>
      </trkpt>
      <trkpt lat="45.56765" lon="2.92765">
        <ele>886.95</ele>
        <time>2021-08-15T04:25:22Z</time>
      </trkpt>
      <trkpt lat="45.56765" lon="2.92771">
        <ele>886.95</ele>
        <time>2021-08-15T04:25:23Z</time>
      </trkpt>
      <trkpt lat="45.56765" lon="2.92778">
        <ele>886.95</ele>
        <time>2021-08-15T04:25:24Z</time>
      </trkpt>
      <trkpt lat="45.56771" lon="2.92825">
        <ele>886.47</ele>
        <time>2021-08-15T04:25:31Z</time>
      </trkpt>
      <trkpt lat="45.56773" lon="2.92831">
        <ele>886.47</ele>
        <time>2021-08-15T04:25:32Z</time>
      </trkpt>
      <trkpt lat="45.56787" lon="2.92864">
        <ele>886.47</ele>
        <time>2021-08-15T04:25:39Z</time>
      </trkpt>
      <trkpt lat="45.56791" lon="2.92891">
        <ele>886.47</ele>
        <time>2021-08-15T04:25:46Z</time>
      </trkpt>
      <trkpt lat="45.56787" lon="2.9291">
        <ele>886.47</ele>
        <time>2021-08-15T04:25:52Z</time>
      </trkpt>
      <trkpt lat="45.56783" lon="2.92932">
        <ele>886.47</ele>
        <time>2021-08-15T04:25:58Z</time>
      </trkpt>
      <trkpt lat="45.56779" lon="2.92956">
        <ele>885.99</ele>
        <time>2021-08-15T04:26:05Z</time>
      </trkpt>
      <trkpt lat="45.56779" lon="2.92959">
        <ele>886.47</ele>
        <time>2021-08-15T04:26:07Z</time>
      </trkpt>
      <trkpt lat="45.56779" lon="2.92961">
        <ele>886.47</ele>
        <time>2021-08-15T04:26:08Z</time>
      </trkpt>
      <trkpt lat="45.56779" lon="2.92963">
        <ele>886.47</ele>
        <time>2021-08-15T04:26:09Z</time>
      </trkpt>
      <trkpt lat="45.56779" lon="2.92964">
        <ele>886.47</ele>
        <time>2021-08-15T04:26:10Z</time>
      </trkpt>
      <trkpt lat="45.56779" lon="2.92966">
        <ele>886.47</ele>
        <time>2021-08-15T04:26:11Z</time>
      </trkpt>
      <trkpt lat="45.56779" lon="2.92969">
        <ele>886.47</ele>
        <time>2021-08-15T04:26:12Z</time>
      </trkpt>
      <trkpt lat="45.5678" lon="2.92972">
        <ele>886.47</ele>
        <time>2021-08-15T04:26:13Z</time>
      </trkpt>
      <trkpt lat="45.56781" lon="2.92975">
        <ele>886.47</ele>
        <time>2021-08-15T04:26:14Z</time>
      </trkpt>
      <trkpt lat="45.56782" lon="2.92979">
        <ele>886.47</ele>
        <time>2021-08-15T04:26:15Z</time>
      </trkpt>
      <trkpt lat="45.56783" lon="2.92983">
        <ele>886.47</ele>
        <time>2021-08-15T04:26:16Z</time>
      </trkpt>
      <trkpt lat="45.56784" lon="2.92988">
        <ele>886.47</ele>
        <time>2021-08-15T04:26:17Z</time>
      </trkpt>
      <trkpt lat="45.56784" lon="2.92993">
        <ele>886.47</ele>
        <time>2021-08-15T04:26:18Z</time>
      </trkpt>
      <trkpt lat="45.56785" lon="2.92997">
        <ele>886.47</ele>
        <time>2021-08-15T04:26:19Z</time>
      </trkpt>
      <trkpt lat="45.56786" lon="2.93003">
        <ele>886.47</ele>
        <time>2021-08-15T04:26:20Z</time>
      </trkpt>
      <trkpt lat="45.56781" lon="2.93032">
        <ele>886.47</ele>
        <time>2021-08-15T04:26:26Z</time>
      </trkpt>
      <trkpt lat="45.56778" lon="2.93049">
        <ele>887.43</ele>
        <time>2021-08-15T04:26:33Z</time>
      </trkpt>
      <trkpt lat="45.56775" lon="2.93061">
        <ele>887.91</ele>
        <time>2021-08-15T04:26:38Z</time>
      </trkpt>
      <trkpt lat="45.56775" lon="2.93064">
        <ele>887.91</ele>
        <time>2021-08-15T04:26:39Z</time>
      </trkpt>
      <trkpt lat="45.56775" lon="2.93066">
        <ele>887.91</ele>
        <time>2021-08-15T04:26:40Z</time>
      </trkpt>
      <trkpt lat="45.56775" lon="2.93069">
        <ele>888.88</ele>
        <time>2021-08-15T04:26:41Z</time>
      </trkpt>
      <trkpt lat="45.56775" lon="2.93071">
        <ele>888.88</ele>
        <time>2021-08-15T04:26:42Z</time>
      </trkpt>
      <trkpt lat="45.56775" lon="2.93074">
        <ele>888.88</ele>
        <time>2021-08-15T04:26:43Z</time>
      </trkpt>
      <trkpt lat="45.56775" lon="2.93076">
        <ele>888.88</ele>
        <time>2021-08-15T04:26:44Z</time>
      </trkpt>
      <trkpt lat="45.56775" lon="2.93078">
        <ele>888.88</ele>
        <time>2021-08-15T04:26:45Z</time>
      </trkpt>
      <trkpt lat="45.56776" lon="2.93081">
        <ele>888.88</ele>
        <time>2021-08-15T04:26:46Z</time>
      </trkpt>
      <trkpt lat="45.56777" lon="2.93084">
        <ele>889.36</ele>
        <time>2021-08-15T04:26:47Z</time>
      </trkpt>
      <trkpt lat="45.56777" lon="2.93086">
        <ele>889.84</ele>
        <time>2021-08-15T04:26:48Z</time>
      </trkpt>
      <trkpt lat="45.56778" lon="2.93089">
        <ele>889.84</ele>
        <time>2021-08-15T04:26:49Z</time>
      </trkpt>
      <trkpt lat="45.56778" lon="2.93092">
        <ele>889.84</ele>
        <time>2021-08-15T04:26:50Z</time>
      </trkpt>
      <trkpt lat="45.56779" lon="2.93095">
        <ele>889.84</ele>
        <time>2021-08-15T04:26:51Z</time>
      </trkpt>
      <trkpt lat="45.5678" lon="2.93111">
        <ele>890.8</ele>
        <time>2021-08-15T04:26:58Z</time>
      </trkpt>
      <trkpt lat="45.56784" lon="2.93127">
        <ele>891.76</ele>
        <time>2021-08-15T04:27:06Z</time>
      </trkpt>
      <trkpt lat="45.56788" lon="2.93141">
        <ele>892.72</ele>
        <time>2021-08-15T04:27:13Z</time>
      </trkpt>
      <trkpt lat="45.56792" lon="2.93154">
        <ele>893.68</ele>
        <time>2021-08-15T04:27:19Z</time>
      </trkpt>
      <trkpt lat="45.56793" lon="2.93163">
        <ele>893.68</ele>
        <time>2021-08-15T04:27:23Z</time>
      </trkpt>
      <trkpt lat="45.56799" lon="2.93183">
        <ele>895.12</ele>
        <time>2021-08-15T04:27:32Z</time>
      </trkpt>
      <trkpt lat="45.56805" lon="2.93204">
        <ele>895.61</ele>
        <time>2021-08-15T04:27:42Z</time>
      </trkpt>
      <trkpt lat="45.56809" lon="2.93222">
        <ele>897.05</ele>
        <time>2021-08-15T04:27:51Z</time>
      </trkpt>
      <trkpt lat="45.56809" lon="2.93224">
        <ele>897.05</ele>
        <time>2021-08-15T04:27:52Z</time>
      </trkpt>
      <trkpt lat="45.56809" lon="2.93226">
        <ele>897.05</ele>
        <time>2021-08-15T04:27:53Z</time>
      </trkpt>
      <trkpt lat="45.56809" lon="2.93228">
        <ele>897.05</ele>
        <time>2021-08-15T04:27:54Z</time>
      </trkpt>
      <trkpt lat="45.56813" lon="2.93247">
        <ele>898.49</ele>
        <time>2021-08-15T04:28:04Z</time>
      </trkpt>
      <trkpt lat="45.56815" lon="2.93263">
        <ele>899.45</ele>
        <time>2021-08-15T04:28:12Z</time>
      </trkpt>
      <trkpt lat="45.56814" lon="2.93279">
        <ele>900.89</ele>
        <time>2021-08-15T04:28:20Z</time>
      </trkpt>
      <trkpt lat="45.56814" lon="2.93295">
        <ele>902.82</ele>
        <time>2021-08-15T04:28:30Z</time>
      </trkpt>
      <trkpt lat="45.56815" lon="2.93312">
        <ele>903.78</ele>
        <time>2021-08-15T04:28:37Z</time>
      </trkpt>
      <trkpt lat="45.56816" lon="2.93334">
        <ele>905.22</ele>
        <time>2021-08-15T04:28:47Z</time>
      </trkpt>
      <trkpt lat="45.56814" lon="2.93347">
        <ele>905.7</ele>
        <time>2021-08-15T04:28:54Z</time>
      </trkpt>
      <trkpt lat="45.56814" lon="2.93349">
        <ele>905.7</ele>
        <time>2021-08-15T04:28:55Z</time>
      </trkpt>
      <trkpt lat="45.56813" lon="2.93351">
        <ele>905.7</ele>
        <time>2021-08-15T04:28:56Z</time>
      </trkpt>
      <trkpt lat="45.56812" lon="2.93373">
        <ele>907.14</ele>
        <time>2021-08-15T04:29:07Z</time>
      </trkpt>
      <trkpt lat="45.56808" lon="2.93399">
        <ele>908.1</ele>
        <time>2021-08-15T04:29:19Z</time>
      </trkpt>
      <trkpt lat="45.56807" lon="2.93408">
        <ele>909.06</ele>
        <time>2021-08-15T04:29:23Z</time>
      </trkpt>
      <trkpt lat="45.56807" lon="2.93411">
        <ele>909.54</ele>
        <time>2021-08-15T04:29:24Z</time>
      </trkpt>
      <trkpt lat="45.56807" lon="2.93413">
        <ele>909.54</ele>
        <time>2021-08-15T04:29:25Z</time>
      </trkpt>
      <trkpt lat="45.56807" lon="2.93415">
        <ele>909.54</ele>
        <time>2021-08-15T04:29:26Z</time>
      </trkpt>
      <trkpt lat="45.56808" lon="2.93418">
        <ele>909.54</ele>
        <time>2021-08-15T04:29:27Z</time>
      </trkpt>
      <trkpt lat="45.56812" lon="2.9344">
        <ele>910.99</ele>
        <time>2021-08-15T04:29:37Z</time>
      </trkpt>
      <trkpt lat="45.56813" lon="2.93448">
        <ele>910.99</ele>
        <time>2021-08-15T04:29:40Z</time>
      </trkpt>
      <trkpt lat="45.56814" lon="2.93451">
        <ele>910.99</ele>
        <time>2021-08-15T04:29:41Z</time>
      </trkpt>
      <trkpt lat="45.56814" lon="2.93454">
        <ele>910.99</ele>
        <time>2021-08-15T04:29:42Z</time>
      </trkpt>
      <trkpt lat="45.5682" lon="2.93489">
        <ele>910.99</ele>
        <time>2021-08-15T04:29:52Z</time>
      </trkpt>
      <trkpt lat="45.56823" lon="2.93517">
        <ele>910.99</ele>
        <time>2021-08-15T04:29:59Z</time>
      </trkpt>
      <trkpt lat="45.56824" lon="2.93538">
        <ele>909.06</ele>
        <time>2021-08-15T04:30:03Z</time>
      </trkpt>
      <trkpt lat="45.56825" lon="2.93585">
        <ele>905.7</ele>
        <time>2021-08-15T04:30:08Z</time>
      </trkpt>
      <trkpt lat="45.56828" lon="2.93633">
        <ele>902.33</ele>
        <time>2021-08-15T04:30:12Z</time>
      </trkpt>
      <trkpt lat="45.56833" lon="2.93673">
        <ele>898.97</ele>
        <time>2021-08-15T04:30:15Z</time>
      </trkpt>
      <trkpt lat="45.56839" lon="2.93726">
        <ele>896.09</ele>
        <time>2021-08-15T04:30:19Z</time>
      </trkpt>
      <trkpt lat="45.56843" lon="2.93739">
        <ele>895.12</ele>
        <time>2021-08-15T04:30:20Z</time>
      </trkpt>
      <trkpt lat="45.56856" lon="2.93789">
        <ele>892.24</ele>
        <time>2021-08-15T04:30:24Z</time>
      </trkpt>
      <trkpt lat="45.56867" lon="2.93829">
        <ele>888.88</ele>
        <time>2021-08-15T04:30:28Z</time>
      </trkpt>
      <trkpt lat="45.56868" lon="2.93836">
        <ele>888.88</ele>
        <time>2021-08-15T04:30:29Z</time>
      </trkpt>
      <trkpt lat="45.56868" lon="2.93842">
        <ele>887.91</ele>
        <time>2021-08-15T04:30:30Z</time>
      </trkpt>
      <trkpt lat="45.56865" lon="2.93845">
        <ele>887.91</ele>
        <time>2021-08-15T04:30:31Z</time>
      </trkpt>
      <trkpt lat="45.56862" lon="2.93844">
        <ele>887.91</ele>
        <time>2021-08-15T04:30:32Z</time>
      </trkpt>
      <trkpt lat="45.5686" lon="2.93843">
        <ele>887.91</ele>
        <time>2021-08-15T04:30:33Z</time>
      </trkpt>
      <trkpt lat="45.56858" lon="2.9384">
        <ele>887.43</ele>
        <time>2021-08-15T04:30:34Z</time>
      </trkpt>
      <trkpt lat="45.56856" lon="2.93837">
        <ele>886.95</ele>
        <time>2021-08-15T04:30:35Z</time>
      </trkpt>
      <trkpt lat="45.56854" lon="2.93834">
        <ele>887.43</ele>
        <time>2021-08-15T04:30:36Z</time>
      </trkpt>
      <trkpt lat="45.56852" lon="2.93831">
        <ele>886.95</ele>
        <time>2021-08-15T04:30:37Z</time>
      </trkpt>
      <trkpt lat="45.56833" lon="2.93808">
        <ele>888.88</ele>
        <time>2021-08-15T04:30:46Z</time>
      </trkpt>
      <trkpt lat="45.56819" lon="2.9379">
        <ele>889.84</ele>
        <time>2021-08-15T04:30:54Z</time>
      </trkpt>
      <trkpt lat="45.56806" lon="2.93769">
        <ele>890.8</ele>
        <time>2021-08-15T04:31:03Z</time>
      </trkpt>
      <trkpt lat="45.56794" lon="2.93744">
        <ele>892.72</ele>
        <time>2021-08-15T04:31:13Z</time>
      </trkpt>
      <trkpt lat="45.56785" lon="2.93724">
        <ele>894.64</ele>
        <time>2021-08-15T04:31:22Z</time>
      </trkpt>
      <trkpt lat="45.56775" lon="2.93702">
        <ele>895.61</ele>
        <time>2021-08-15T04:31:32Z</time>
      </trkpt>
      <trkpt lat="45.56764" lon="2.93678">
        <ele>897.05</ele>
        <time>2021-08-15T04:31:43Z</time>
      </trkpt>
      <trkpt lat="45.56757" lon="2.93661">
        <ele>898.01</ele>
        <time>2021-08-15T04:31:52Z</time>
      </trkpt>
      <trkpt lat="45.56752" lon="2.93644">
        <ele>898.97</ele>
        <time>2021-08-15T04:32:00Z</time>
      </trkpt>
      <trkpt lat="45.56748" lon="2.93626">
        <ele>899.93</ele>
        <time>2021-08-15T04:32:08Z</time>
      </trkpt>
      <trkpt lat="45.56746" lon="2.93617">
        <ele>900.41</ele>
        <time>2021-08-15T04:32:12Z</time>
      </trkpt>
      <trkpt lat="45.56745" lon="2.93614">
        <ele>900.41</ele>
        <time>2021-08-15T04:32:13Z</time>
      </trkpt>
      <trkpt lat="45.56745" lon="2.93612">
        <ele>900.41</ele>
        <time>2021-08-15T04:32:14Z</time>
      </trkpt>
      <trkpt lat="45.56742" lon="2.93606">
        <ele>900.89</ele>
        <time>2021-08-15T04:32:17Z</time>
      </trkpt>
      <trkpt lat="45.56741" lon="2.93604">
        <ele>901.37</ele>
        <time>2021-08-15T04:32:18Z</time>
      </trkpt>
      <trkpt lat="45.56736" lon="2.93579">
        <ele>902.82</ele>
        <time>2021-08-15T04:32:30Z</time>
      </trkpt>
      <trkpt lat="45.56732" lon="2.93563">
        <ele>904.74</ele>
        <time>2021-08-15T04:32:39Z</time>
      </trkpt>
      <trkpt lat="45.56729" lon="2.93549">
        <ele>905.22</ele>
        <time>2021-08-15T04:32:47Z</time>
      </trkpt>
      <trkpt lat="45.56723" lon="2.9353">
        <ele>906.66</ele>
        <time>2021-08-15T04:32:57Z</time>
      </trkpt>
      <trkpt lat="45.56721" lon="2.93516">
        <ele>907.62</ele>
        <time>2021-08-15T04:33:04Z</time>
      </trkpt>
      <trkpt lat="45.56716" lon="2.93504">
        <ele>909.06</ele>
        <time>2021-08-15T04:33:12Z</time>
      </trkpt>
      <trkpt lat="45.56714" lon="2.93504">
        <ele>909.06</ele>
        <time>2021-08-15T04:33:13Z</time>
      </trkpt>
      <trkpt lat="45.56713" lon="2.93504">
        <ele>909.06</ele>
        <time>2021-08-15T04:33:14Z</time>
      </trkpt>
      <trkpt lat="45.56711" lon="2.93504">
        <ele>909.06</ele>
        <time>2021-08-15T04:33:15Z</time>
      </trkpt>
      <trkpt lat="45.5671" lon="2.93505">
        <ele>909.06</ele>
        <time>2021-08-15T04:33:16Z</time>
      </trkpt>
      <trkpt lat="45.56709" lon="2.93506">
        <ele>909.06</ele>
        <time>2021-08-15T04:33:17Z</time>
      </trkpt>
      <trkpt lat="45.56707" lon="2.93506">
        <ele>909.06</ele>
        <time>2021-08-15T04:33:18Z</time>
      </trkpt>
      <trkpt lat="45.56696" lon="2.93514">
        <ele>909.06</ele>
        <time>2021-08-15T04:33:24Z</time>
      </trkpt>
      <trkpt lat="45.56683" lon="2.93525">
        <ele>905.22</ele>
        <time>2021-08-15T04:33:28Z</time>
      </trkpt>
      <trkpt lat="45.56679" lon="2.93527">
        <ele>905.22</ele>
        <time>2021-08-15T04:33:29Z</time>
      </trkpt>
      <trkpt lat="45.56671" lon="2.93532">
        <ele>903.3</ele>
        <time>2021-08-15T04:33:31Z</time>
      </trkpt>
      <trkpt lat="45.56661" lon="2.93544">
        <ele>901.85</ele>
        <time>2021-08-15T04:33:34Z</time>
      </trkpt>
      <trkpt lat="45.56658" lon="2.93549">
        <ele>900.89</ele>
        <time>2021-08-15T04:33:35Z</time>
      </trkpt>
      <trkpt lat="45.56654" lon="2.93554">
        <ele>900.41</ele>
        <time>2021-08-15T04:33:36Z</time>
      </trkpt>
      <trkpt lat="45.56647" lon="2.93561">
        <ele>898.97</ele>
        <time>2021-08-15T04:33:38Z</time>
      </trkpt>
      <trkpt lat="45.56643" lon="2.93565">
        <ele>898.01</ele>
        <time>2021-08-15T04:33:39Z</time>
      </trkpt>
      <trkpt lat="45.56639" lon="2.93568">
        <ele>897.05</ele>
        <time>2021-08-15T04:33:40Z</time>
      </trkpt>
      <trkpt lat="45.56631" lon="2.93576">
        <ele>895.61</ele>
        <time>2021-08-15T04:33:42Z</time>
      </trkpt>
      <trkpt lat="45.56627" lon="2.93579">
        <ele>895.61</ele>
        <time>2021-08-15T04:33:43Z</time>
      </trkpt>
      <trkpt lat="45.56612" lon="2.93592">
        <ele>893.68</ele>
        <time>2021-08-15T04:33:46Z</time>
      </trkpt>
      <trkpt lat="45.56594" lon="2.9361">
        <ele>890.32</ele>
        <time>2021-08-15T04:33:50Z</time>
      </trkpt>
      <trkpt lat="45.56576" lon="2.93626">
        <ele>887.91</ele>
        <time>2021-08-15T04:33:54Z</time>
      </trkpt>
      <trkpt lat="45.5656" lon="2.93651">
        <ele>885.51</ele>
        <time>2021-08-15T04:33:59Z</time>
      </trkpt>
      <trkpt lat="45.5655" lon="2.93665">
        <ele>883.59</ele>
        <time>2021-08-15T04:34:02Z</time>
      </trkpt>
      <trkpt lat="45.56543" lon="2.93674">
        <ele>882.15</ele>
        <time>2021-08-15T04:34:04Z</time>
      </trkpt>
      <trkpt lat="45.56539" lon="2.93678">
        <ele>882.15</ele>
        <time>2021-08-15T04:34:05Z</time>
      </trkpt>
      <trkpt lat="45.56531" lon="2.93686">
        <ele>880.71</ele>
        <time>2021-08-15T04:34:07Z</time>
      </trkpt>
      <trkpt lat="45.56528" lon="2.93689">
        <ele>879.74</ele>
        <time>2021-08-15T04:34:08Z</time>
      </trkpt>
      <trkpt lat="45.56524" lon="2.93692">
        <ele>879.26</ele>
        <time>2021-08-15T04:34:09Z</time>
      </trkpt>
      <trkpt lat="45.56521" lon="2.93695">
        <ele>879.26</ele>
        <time>2021-08-15T04:34:10Z</time>
      </trkpt>
      <trkpt lat="45.56498" lon="2.93714">
        <ele>876.38</ele>
        <time>2021-08-15T04:34:16Z</time>
      </trkpt>
      <trkpt lat="45.56479" lon="2.93725">
        <ele>874.46</ele>
        <time>2021-08-15T04:34:20Z</time>
      </trkpt>
      <trkpt lat="45.56465" lon="2.93729">
        <ele>873.5</ele>
        <time>2021-08-15T04:34:23Z</time>
      </trkpt>
      <trkpt lat="45.56444" lon="2.93729">
        <ele>872.05</ele>
        <time>2021-08-15T04:34:28Z</time>
      </trkpt>
      <trkpt lat="45.5644" lon="2.9373">
        <ele>871.57</ele>
        <time>2021-08-15T04:34:29Z</time>
      </trkpt>
      <trkpt lat="45.56419" lon="2.93736">
        <ele>870.61</ele>
        <time>2021-08-15T04:34:33Z</time>
      </trkpt>
      <trkpt lat="45.56404" lon="2.93737">
        <ele>869.65</ele>
        <time>2021-08-15T04:34:36Z</time>
      </trkpt>
      <trkpt lat="45.56399" lon="2.93738">
        <ele>869.17</ele>
        <time>2021-08-15T04:34:37Z</time>
      </trkpt>
      <trkpt lat="45.56395" lon="2.93738">
        <ele>869.17</ele>
        <time>2021-08-15T04:34:38Z</time>
      </trkpt>
      <trkpt lat="45.56366" lon="2.93739">
        <ele>867.73</ele>
        <time>2021-08-15T04:34:45Z</time>
      </trkpt>
      <trkpt lat="45.5636" lon="2.9374">
        <ele>866.77</ele>
        <time>2021-08-15T04:34:46Z</time>
      </trkpt>
      <trkpt lat="45.56355" lon="2.93741">
        <ele>866.77</ele>
        <time>2021-08-15T04:34:47Z</time>
      </trkpt>
      <trkpt lat="45.56349" lon="2.93741">
        <ele>866.77</ele>
        <time>2021-08-15T04:34:48Z</time>
      </trkpt>
      <trkpt lat="45.56317" lon="2.93733">
        <ele>866.77</ele>
        <time>2021-08-15T04:34:56Z</time>
      </trkpt>
      <trkpt lat="45.5629" lon="2.93727">
        <ele>867.73</ele>
        <time>2021-08-15T04:35:03Z</time>
      </trkpt>
      <trkpt lat="45.56264" lon="2.93722">
        <ele>868.69</ele>
        <time>2021-08-15T04:35:11Z</time>
      </trkpt>
      <trkpt lat="45.56256" lon="2.93724">
        <ele>868.69</ele>
        <time>2021-08-15T04:35:13Z</time>
      </trkpt>
      <trkpt lat="45.56246" lon="2.93728">
        <ele>865.8</ele>
        <time>2021-08-15T04:35:15Z</time>
      </trkpt>
      <trkpt lat="45.5624" lon="2.93727">
        <ele>865.8</ele>
        <time>2021-08-15T04:35:16Z</time>
      </trkpt>
      <trkpt lat="45.56234" lon="2.93723">
        <ele>865.8</ele>
        <time>2021-08-15T04:35:17Z</time>
      </trkpt>
      <trkpt lat="45.56229" lon="2.93719">
        <ele>865.8</ele>
        <time>2021-08-15T04:35:18Z</time>
      </trkpt>
      <trkpt lat="45.56225" lon="2.93714">
        <ele>865.8</ele>
        <time>2021-08-15T04:35:19Z</time>
      </trkpt>
      <trkpt lat="45.56221" lon="2.9371">
        <ele>865.8</ele>
        <time>2021-08-15T04:35:20Z</time>
      </trkpt>
      <trkpt lat="45.56217" lon="2.93707">
        <ele>865.8</ele>
        <time>2021-08-15T04:35:21Z</time>
      </trkpt>
      <trkpt lat="45.56214" lon="2.93705">
        <ele>865.8</ele>
        <time>2021-08-15T04:35:22Z</time>
      </trkpt>
      <trkpt lat="45.56208" lon="2.93702">
        <ele>867.25</ele>
        <time>2021-08-15T04:35:24Z</time>
      </trkpt>
      <trkpt lat="45.56194" lon="2.93696">
        <ele>869.17</ele>
        <time>2021-08-15T04:35:31Z</time>
      </trkpt>
      <trkpt lat="45.56192" lon="2.93695">
        <ele>869.17</ele>
        <time>2021-08-15T04:35:32Z</time>
      </trkpt>
      <trkpt lat="45.5619" lon="2.93693">
        <ele>869.17</ele>
        <time>2021-08-15T04:35:33Z</time>
      </trkpt>
      <trkpt lat="45.56187" lon="2.93689">
        <ele>869.17</ele>
        <time>2021-08-15T04:35:34Z</time>
      </trkpt>
      <trkpt lat="45.56185" lon="2.93684">
        <ele>869.17</ele>
        <time>2021-08-15T04:35:35Z</time>
      </trkpt>
      <trkpt lat="45.56184" lon="2.9368">
        <ele>869.17</ele>
        <time>2021-08-15T04:35:36Z</time>
      </trkpt>
      <trkpt lat="45.56183" lon="2.93676">
        <ele>869.17</ele>
        <time>2021-08-15T04:35:37Z</time>
      </trkpt>
      <trkpt lat="45.56183" lon="2.93671">
        <ele>869.17</ele>
        <time>2021-08-15T04:35:38Z</time>
      </trkpt>
      <trkpt lat="45.56182" lon="2.93667">
        <ele>869.17</ele>
        <time>2021-08-15T04:35:39Z</time>
      </trkpt>
      <trkpt lat="45.56181" lon="2.93662">
        <ele>869.17</ele>
        <time>2021-08-15T04:35:40Z</time>
      </trkpt>
      <trkpt lat="45.5618" lon="2.93657">
        <ele>869.17</ele>
        <time>2021-08-15T04:35:41Z</time>
      </trkpt>
      <trkpt lat="45.56179" lon="2.93653">
        <ele>869.17</ele>
        <time>2021-08-15T04:35:42Z</time>
      </trkpt>
      <trkpt lat="45.56177" lon="2.93648">
        <ele>869.17</ele>
        <time>2021-08-15T04:35:43Z</time>
      </trkpt>
      <trkpt lat="45.56175" lon="2.93643">
        <ele>869.17</ele>
        <time>2021-08-15T04:35:44Z</time>
      </trkpt>
      <trkpt lat="45.56172" lon="2.93639">
        <ele>869.17</ele>
        <time>2021-08-15T04:35:45Z</time>
      </trkpt>
      <trkpt lat="45.56169" lon="2.93635">
        <ele>869.17</ele>
        <time>2021-08-15T04:35:46Z</time>
      </trkpt>
      <trkpt lat="45.56165" lon="2.93628">
        <ele>867.73</ele>
        <time>2021-08-15T04:35:48Z</time>
      </trkpt>
      <trkpt lat="45.56151" lon="2.93609">
        <ele>867.73</ele>
        <time>2021-08-15T04:35:54Z</time>
      </trkpt>
      <trkpt lat="45.5613" lon="2.9358">
        <ele>867.73</ele>
        <time>2021-08-15T04:36:02Z</time>
      </trkpt>
      <trkpt lat="45.56111" lon="2.93555">
        <ele>867.73</ele>
        <time>2021-08-15T04:36:09Z</time>
      </trkpt>
      <trkpt lat="45.56096" lon="2.93526">
        <ele>867.73</ele>
        <time>2021-08-15T04:36:16Z</time>
      </trkpt>
      <trkpt lat="45.56077" lon="2.93475">
        <ele>868.69</ele>
        <time>2021-08-15T04:36:27Z</time>
      </trkpt>
      <trkpt lat="45.56065" lon="2.93445">
        <ele>869.17</ele>
        <time>2021-08-15T04:36:34Z</time>
      </trkpt>
      <trkpt lat="45.56046" lon="2.93405">
        <ele>869.65</ele>
        <time>2021-08-15T04:36:44Z</time>
      </trkpt>
      <trkpt lat="45.56033" lon="2.93375">
        <ele>870.61</ele>
        <time>2021-08-15T04:36:52Z</time>
      </trkpt>
      <trkpt lat="45.56025" lon="2.93349">
        <ele>870.61</ele>
        <time>2021-08-15T04:36:59Z</time>
      </trkpt>
      <trkpt lat="45.56019" lon="2.93314">
        <ele>871.57</ele>
        <time>2021-08-15T04:37:08Z</time>
      </trkpt>
      <trkpt lat="45.56017" lon="2.93302">
        <ele>871.57</ele>
        <time>2021-08-15T04:37:11Z</time>
      </trkpt>
      <trkpt lat="45.56018" lon="2.93298">
        <ele>871.57</ele>
        <time>2021-08-15T04:37:12Z</time>
      </trkpt>
      <trkpt lat="45.56018" lon="2.93294">
        <ele>872.05</ele>
        <time>2021-08-15T04:37:13Z</time>
      </trkpt>
      <trkpt lat="45.56012" lon="2.9327">
        <ele>871.57</ele>
        <time>2021-08-15T04:37:20Z</time>
      </trkpt>
      <trkpt lat="45.56001" lon="2.93239">
        <ele>872.53</ele>
        <time>2021-08-15T04:37:29Z</time>
      </trkpt>
      <trkpt lat="45.5599" lon="2.93207">
        <ele>873.01</ele>
        <time>2021-08-15T04:37:39Z</time>
      </trkpt>
      <trkpt lat="45.55987" lon="2.93183">
        <ele>874.46</ele>
        <time>2021-08-15T04:37:46Z</time>
      </trkpt>
      <trkpt lat="45.55981" lon="2.9315">
        <ele>875.42</ele>
        <time>2021-08-15T04:37:57Z</time>
      </trkpt>
      <trkpt lat="45.55976" lon="2.93125">
        <ele>876.38</ele>
        <time>2021-08-15T04:38:07Z</time>
      </trkpt>
      <trkpt lat="45.55969" lon="2.93103">
        <ele>878.3</ele>
        <time>2021-08-15T04:38:16Z</time>
      </trkpt>
      <trkpt lat="45.55968" lon="2.93102">
        <ele>878.3</ele>
        <time>2021-08-15T04:38:17Z</time>
      </trkpt>
      <trkpt lat="45.55967" lon="2.93102">
        <ele>878.78</ele>
        <time>2021-08-15T04:38:18Z</time>
      </trkpt>
      <trkpt lat="45.55966" lon="2.93103">
        <ele>878.78</ele>
        <time>2021-08-15T04:38:19Z</time>
      </trkpt>
      <trkpt lat="45.55965" lon="2.93106">
        <ele>878.78</ele>
        <time>2021-08-15T04:38:20Z</time>
      </trkpt>
      <trkpt lat="45.55964" lon="2.93108">
        <ele>878.78</ele>
        <time>2021-08-15T04:38:21Z</time>
      </trkpt>
      <trkpt lat="45.55964" lon="2.93111">
        <ele>878.78</ele>
        <time>2021-08-15T04:38:22Z</time>
      </trkpt>
      <trkpt lat="45.55963" lon="2.93114">
        <ele>878.78</ele>
        <time>2021-08-15T04:38:23Z</time>
      </trkpt>
      <trkpt lat="45.55962" lon="2.93117">
        <ele>878.78</ele>
        <time>2021-08-15T04:38:24Z</time>
      </trkpt>
      <trkpt lat="45.55952" lon="2.9314">
        <ele>877.34</ele>
        <time>2021-08-15T04:38:30Z</time>
      </trkpt>
      <trkpt lat="45.55946" lon="2.9315">
        <ele>876.86</ele>
        <time>2021-08-15T04:38:32Z</time>
      </trkpt>
      <trkpt lat="45.5594" lon="2.93161">
        <ele>876.38</ele>
        <time>2021-08-15T04:38:34Z</time>
      </trkpt>
      <trkpt lat="45.55937" lon="2.93165">
        <ele>876.38</ele>
        <time>2021-08-15T04:38:35Z</time>
      </trkpt>
      <trkpt lat="45.55934" lon="2.93168">
        <ele>876.38</ele>
        <time>2021-08-15T04:38:36Z</time>
      </trkpt>
      <trkpt lat="45.55929" lon="2.9317">
        <ele>876.38</ele>
        <time>2021-08-15T04:38:37Z</time>
      </trkpt>
      <trkpt lat="45.55927" lon="2.93171">
        <ele>876.38</ele>
        <time>2021-08-15T04:38:38Z</time>
      </trkpt>
      <trkpt lat="45.55924" lon="2.93171">
        <ele>876.38</ele>
        <time>2021-08-15T04:38:39Z</time>
      </trkpt>
      <trkpt lat="45.55922" lon="2.93171">
        <ele>877.82</ele>
        <time>2021-08-15T04:38:40Z</time>
      </trkpt>
      <trkpt lat="45.5592" lon="2.93171">
        <ele>877.82</ele>
        <time>2021-08-15T04:38:41Z</time>
      </trkpt>
      <trkpt lat="45.55898" lon="2.9317">
        <ele>878.78</ele>
        <time>2021-08-15T04:38:52Z</time>
      </trkpt>
      <trkpt lat="45.55886" lon="2.93174">
        <ele>880.71</ele>
        <time>2021-08-15T04:39:00Z</time>
      </trkpt>
      <trkpt lat="45.55881" lon="2.9319">
        <ele>881.19</ele>
        <time>2021-08-15T04:39:07Z</time>
      </trkpt>
      <trkpt lat="45.55876" lon="2.93205">
        <ele>881.67</ele>
        <time>2021-08-15T04:39:14Z</time>
      </trkpt>
      <trkpt lat="45.5587" lon="2.93215">
        <ele>883.11</ele>
        <time>2021-08-15T04:39:22Z</time>
      </trkpt>
      <trkpt lat="45.55867" lon="2.93224">
        <ele>884.07</ele>
        <time>2021-08-15T04:39:27Z</time>
      </trkpt>
      <trkpt lat="45.55867" lon="2.93226">
        <ele>884.07</ele>
        <time>2021-08-15T04:39:28Z</time>
      </trkpt>
      <trkpt lat="45.55863" lon="2.93237">
        <ele>885.03</ele>
        <time>2021-08-15T04:39:33Z</time>
      </trkpt>
      <trkpt lat="45.55863" lon="2.93241">
        <ele>885.03</ele>
        <time>2021-08-15T04:39:34Z</time>
      </trkpt>
      <trkpt lat="45.55863" lon="2.93243">
        <ele>885.03</ele>
        <time>2021-08-15T04:39:35Z</time>
      </trkpt>
      <trkpt lat="45.55862" lon="2.93256">
        <ele>886.95</ele>
        <time>2021-08-15T04:39:43Z</time>
      </trkpt>
      <trkpt lat="45.55862" lon="2.9327">
        <ele>887.91</ele>
        <time>2021-08-15T04:39:51Z</time>
      </trkpt>
      <trkpt lat="45.55867" lon="2.93285">
        <ele>889.36</ele>
        <time>2021-08-15T04:40:00Z</time>
      </trkpt>
      <trkpt lat="45.55877" lon="2.93299">
        <ele>889.84</ele>
        <time>2021-08-15T04:40:09Z</time>
      </trkpt>
      <trkpt lat="45.55883" lon="2.93314">
        <ele>890.8</ele>
        <time>2021-08-15T04:40:17Z</time>
      </trkpt>
      <trkpt lat="45.55887" lon="2.93328">
        <ele>891.28</ele>
        <time>2021-08-15T04:40:24Z</time>
      </trkpt>
      <trkpt lat="45.55889" lon="2.93346">
        <ele>892.72</ele>
        <time>2021-08-15T04:40:33Z</time>
      </trkpt>
      <trkpt lat="45.55889" lon="2.93349">
        <ele>893.2</ele>
        <time>2021-08-15T04:40:34Z</time>
      </trkpt>
      <trkpt lat="45.55889" lon="2.93351">
        <ele>893.2</ele>
        <time>2021-08-15T04:40:35Z</time>
      </trkpt>
      <trkpt lat="45.55889" lon="2.93354">
        <ele>893.68</ele>
        <time>2021-08-15T04:40:36Z</time>
      </trkpt>
      <trkpt lat="45.55888" lon="2.93356">
        <ele>893.68</ele>
        <time>2021-08-15T04:40:37Z</time>
      </trkpt>
      <trkpt lat="45.55888" lon="2.93358">
        <ele>893.68</ele>
        <time>2021-08-15T04:40:38Z</time>
      </trkpt>
      <trkpt lat="45.55888" lon="2.9336">
        <ele>893.68</ele>
        <time>2021-08-15T04:40:39Z</time>
      </trkpt>
      <trkpt lat="45.55887" lon="2.9338">
        <ele>894.64</ele>
        <time>2021-08-15T04:40:48Z</time>
      </trkpt>
      <trkpt lat="45.55887" lon="2.93383">
        <ele>895.61</ele>
        <time>2021-08-15T04:40:50Z</time>
      </trkpt>
      <trkpt lat="45.55886" lon="2.93398">
        <ele>896.09</ele>
        <time>2021-08-15T04:40:58Z</time>
      </trkpt>
      <trkpt lat="45.55882" lon="2.93411">
        <ele>897.05</ele>
        <time>2021-08-15T04:41:06Z</time>
      </trkpt>
      <trkpt lat="45.5588" lon="2.93425">
        <ele>898.01</ele>
        <time>2021-08-15T04:41:14Z</time>
      </trkpt>
      <trkpt lat="45.55879" lon="2.93426">
        <ele>898.49</ele>
        <time>2021-08-15T04:41:15Z</time>
      </trkpt>
      <trkpt lat="45.55878" lon="2.93428">
        <ele>898.01</ele>
        <time>2021-08-15T04:41:16Z</time>
      </trkpt>
      <trkpt lat="45.55878" lon="2.9343">
        <ele>898.97</ele>
        <time>2021-08-15T04:41:17Z</time>
      </trkpt>
      <trkpt lat="45.55877" lon="2.93432">
        <ele>898.97</ele>
        <time>2021-08-15T04:41:18Z</time>
      </trkpt>
      <trkpt lat="45.55876" lon="2.93434">
        <ele>898.97</ele>
        <time>2021-08-15T04:41:19Z</time>
      </trkpt>
      <trkpt lat="45.55876" lon="2.93436">
        <ele>898.97</ele>
        <time>2021-08-15T04:41:20Z</time>
      </trkpt>
      <trkpt lat="45.55875" lon="2.93438">
        <ele>899.45</ele>
        <time>2021-08-15T04:41:21Z</time>
      </trkpt>
      <trkpt lat="45.5587" lon="2.93455">
        <ele>900.89</ele>
        <time>2021-08-15T04:41:31Z</time>
      </trkpt>
      <trkpt lat="45.55867" lon="2.93469">
        <ele>901.85</ele>
        <time>2021-08-15T04:41:39Z</time>
      </trkpt>
      <trkpt lat="45.55862" lon="2.93484">
        <ele>903.3</ele>
        <time>2021-08-15T04:41:48Z</time>
      </trkpt>
      <trkpt lat="45.55859" lon="2.93495">
        <ele>904.74</ele>
        <time>2021-08-15T04:41:56Z</time>
      </trkpt>
      <trkpt lat="45.55853" lon="2.93508">
        <ele>905.7</ele>
        <time>2021-08-15T04:42:08Z</time>
      </trkpt>
      <trkpt lat="45.55847" lon="2.93515">
        <ele>907.14</ele>
        <time>2021-08-15T04:42:16Z</time>
      </trkpt>
      <trkpt lat="45.55842" lon="2.93523">
        <ele>908.1</ele>
        <time>2021-08-15T04:42:23Z</time>
      </trkpt>
      <trkpt lat="45.55834" lon="2.93533">
        <ele>909.06</ele>
        <time>2021-08-15T04:42:33Z</time>
      </trkpt>
      <trkpt lat="45.55827" lon="2.93541">
        <ele>910.51</ele>
        <time>2021-08-15T04:42:42Z</time>
      </trkpt>
      <trkpt lat="45.55819" lon="2.93548">
        <ele>911.47</ele>
        <time>2021-08-15T04:42:51Z</time>
      </trkpt>
      <trkpt lat="45.55815" lon="2.93551">
        <ele>911.95</ele>
        <time>2021-08-15T04:42:59Z</time>
      </trkpt>
      <trkpt lat="45.55811" lon="2.93552">
        <ele>912.91</ele>
        <time>2021-08-15T04:43:07Z</time>
      </trkpt>
      <trkpt lat="45.55808" lon="2.93555">
        <ele>912.91</ele>
        <time>2021-08-15T04:43:10Z</time>
      </trkpt>
      <trkpt lat="45.55801" lon="2.9356">
        <ele>914.35</ele>
        <time>2021-08-15T04:43:19Z</time>
      </trkpt>
      <trkpt lat="45.55792" lon="2.93564">
        <ele>915.31</ele>
        <time>2021-08-15T04:43:28Z</time>
      </trkpt>
      <trkpt lat="45.55786" lon="2.93567">
        <ele>917.24</ele>
        <time>2021-08-15T04:43:36Z</time>
      </trkpt>
      <trkpt lat="45.55779" lon="2.93564">
        <ele>917.72</ele>
        <time>2021-08-15T04:43:44Z</time>
      </trkpt>
      <trkpt lat="45.55778" lon="2.93563">
        <ele>917.72</ele>
        <time>2021-08-15T04:43:45Z</time>
      </trkpt>
      <trkpt lat="45.55767" lon="2.93557">
        <ele>918.68</ele>
        <time>2021-08-15T04:43:54Z</time>
      </trkpt>
      <trkpt lat="45.55756" lon="2.93553">
        <ele>920.12</ele>
        <time>2021-08-15T04:44:04Z</time>
      </trkpt>
      <trkpt lat="45.55748" lon="2.93551">
        <ele>921.08</ele>
        <time>2021-08-15T04:44:11Z</time>
      </trkpt>
      <trkpt lat="45.55743" lon="2.93551">
        <ele>922.04</ele>
        <time>2021-08-15T04:44:15Z</time>
      </trkpt>
      <trkpt lat="45.55742" lon="2.9355">
        <ele>922.04</ele>
        <time>2021-08-15T04:44:16Z</time>
      </trkpt>
      <trkpt lat="45.55737" lon="2.9355">
        <ele>922.52</ele>
        <time>2021-08-15T04:44:20Z</time>
      </trkpt>
      <trkpt lat="45.55727" lon="2.93552">
        <ele>923.96</ele>
        <time>2021-08-15T04:44:29Z</time>
      </trkpt>
      <trkpt lat="45.55719" lon="2.9355">
        <ele>924.45</ele>
        <time>2021-08-15T04:44:36Z</time>
      </trkpt>
      <trkpt lat="45.55706" lon="2.93545">
        <ele>925.89</ele>
        <time>2021-08-15T04:44:47Z</time>
      </trkpt>
      <trkpt lat="45.55704" lon="2.93544">
        <ele>925.89</ele>
        <time>2021-08-15T04:44:49Z</time>
      </trkpt>
      <trkpt lat="45.55703" lon="2.93543">
        <ele>926.37</ele>
        <time>2021-08-15T04:44:50Z</time>
      </trkpt>
      <trkpt lat="45.55702" lon="2.93542">
        <ele>926.37</ele>
        <time>2021-08-15T04:44:51Z</time>
      </trkpt>
      <trkpt lat="45.557" lon="2.93542">
        <ele>926.37</ele>
        <time>2021-08-15T04:44:52Z</time>
      </trkpt>
      <trkpt lat="45.55693" lon="2.9354">
        <ele>927.33</ele>
        <time>2021-08-15T04:44:59Z</time>
      </trkpt>
      <trkpt lat="45.55684" lon="2.93537">
        <ele>928.77</ele>
        <time>2021-08-15T04:45:08Z</time>
      </trkpt>
      <trkpt lat="45.55678" lon="2.93534">
        <ele>928.77</ele>
        <time>2021-08-15T04:45:14Z</time>
      </trkpt>
      <trkpt lat="45.55668" lon="2.93535">
        <ele>928.77</ele>
        <time>2021-08-15T04:45:20Z</time>
      </trkpt>
      <trkpt lat="45.55667" lon="2.93536">
        <ele>928.77</ele>
        <time>2021-08-15T04:45:21Z</time>
      </trkpt>
      <trkpt lat="45.55661" lon="2.93545">
        <ele>928.77</ele>
        <time>2021-08-15T04:45:27Z</time>
      </trkpt>
      <trkpt lat="45.55655" lon="2.93559">
        <ele>928.77</ele>
        <time>2021-08-15T04:45:34Z</time>
      </trkpt>
      <trkpt lat="45.55656" lon="2.93578">
        <ele>929.25</ele>
        <time>2021-08-15T04:45:42Z</time>
      </trkpt>
      <trkpt lat="45.5566" lon="2.93593">
        <ele>927.33</ele>
        <time>2021-08-15T04:45:45Z</time>
      </trkpt>
      <trkpt lat="45.5566" lon="2.93599">
        <ele>927.33</ele>
        <time>2021-08-15T04:45:46Z</time>
      </trkpt>
      <trkpt lat="45.55659" lon="2.9363">
        <ele>927.81</ele>
        <time>2021-08-15T04:45:53Z</time>
      </trkpt>
      <trkpt lat="45.55659" lon="2.93636">
        <ele>927.81</ele>
        <time>2021-08-15T04:45:59Z</time>
      </trkpt>
      <trkpt lat="45.55659" lon="2.93647">
        <ele>927.81</ele>
        <time>2021-08-15T04:46:21Z</time>
      </trkpt>
      <trkpt lat="45.55662" lon="2.93654">
        <ele>928.29</ele>
        <time>2021-08-15T04:46:43Z</time>
      </trkpt>
      <trkpt lat="45.55663" lon="2.93651">
        <ele>928.29</ele>
        <time>2021-08-15T04:46:59Z</time>
      </trkpt>
      <trkpt lat="45.55665" lon="2.93647">
        <ele>928.29</ele>
        <time>2021-08-15T04:47:13Z</time>
      </trkpt>
      <trkpt lat="45.55666" lon="2.93651">
        <ele>928.29</ele>
        <time>2021-08-15T04:47:27Z</time>
      </trkpt>
      <trkpt lat="45.55665" lon="2.93653">
        <ele>928.77</ele>
        <time>2021-08-15T04:47:43Z</time>
      </trkpt>
      <trkpt lat="45.55666" lon="2.93648">
        <ele>928.77</ele>
        <time>2021-08-15T04:47:58Z</time>
      </trkpt>
      <trkpt lat="45.55663" lon="2.93644">
        <ele>928.77</ele>
        <time>2021-08-15T04:48:14Z</time>
      </trkpt>
      <trkpt lat="45.55664" lon="2.93642">
        <ele>929.25</ele>
        <time>2021-08-15T04:48:33Z</time>
      </trkpt>
      <trkpt lat="45.55664" lon="2.93636">
        <ele>929.25</ele>
        <time>2021-08-15T04:48:49Z</time>
      </trkpt>
      <trkpt lat="45.55662" lon="2.93641">
        <ele>929.25</ele>
        <time>2021-08-15T04:49:01Z</time>
      </trkpt>
      <trkpt lat="45.55662" lon="2.93645">
        <ele>929.25</ele>
        <time>2021-08-15T04:49:12Z</time>
      </trkpt>
      <trkpt lat="45.55661" lon="2.93648">
        <ele>929.25</ele>
        <time>2021-08-15T04:49:24Z</time>
      </trkpt>
      <trkpt lat="45.55656" lon="2.93651">
        <ele>929.25</ele>
        <time>2021-08-15T04:49:36Z</time>
      </trkpt>
      <trkpt lat="45.55655" lon="2.93652">
        <ele>929.25</ele>
        <time>2021-08-15T04:49:54Z</time>
      </trkpt>
      <trkpt lat="45.55656" lon="2.93651">
        <ele>929.25</ele>
        <time>2021-08-15T04:50:09Z</time>
      </trkpt>
      <trkpt lat="45.55655" lon="2.93648">
        <ele>929.73</ele>
        <time>2021-08-15T04:50:27Z</time>
      </trkpt>
      <trkpt lat="45.55653" lon="2.93645">
        <ele>929.73</ele>
        <time>2021-08-15T04:50:41Z</time>
      </trkpt>
      <trkpt lat="45.55653" lon="2.93648">
        <ele>929.73</ele>
        <time>2021-08-15T04:50:56Z</time>
      </trkpt>
      <trkpt lat="45.55653" lon="2.93653">
        <ele>929.73</ele>
        <time>2021-08-15T04:50:58Z</time>
      </trkpt>
      <trkpt lat="45.55652" lon="2.93667">
        <ele>929.73</ele>
        <time>2021-08-15T04:51:03Z</time>
      </trkpt>
      <trkpt lat="45.55652" lon="2.9367">
        <ele>929.73</ele>
        <time>2021-08-15T04:51:04Z</time>
      </trkpt>
      <trkpt lat="45.55651" lon="2.93673">
        <ele>929.73</ele>
        <time>2021-08-15T04:51:05Z</time>
      </trkpt>
      <trkpt lat="45.5565" lon="2.93675">
        <ele>929.73</ele>
        <time>2021-08-15T04:51:06Z</time>
      </trkpt>
      <trkpt lat="45.5565" lon="2.93677">
        <ele>929.73</ele>
        <time>2021-08-15T04:51:07Z</time>
      </trkpt>
      <trkpt lat="45.55649" lon="2.9368">
        <ele>929.73</ele>
        <time>2021-08-15T04:51:08Z</time>
      </trkpt>
      <trkpt lat="45.55649" lon="2.93683">
        <ele>929.73</ele>
        <time>2021-08-15T04:51:09Z</time>
      </trkpt>
      <trkpt lat="45.55649" lon="2.93685">
        <ele>929.73</ele>
        <time>2021-08-15T04:51:10Z</time>
      </trkpt>
      <trkpt lat="45.55648" lon="2.93687">
        <ele>929.73</ele>
        <time>2021-08-15T04:51:11Z</time>
      </trkpt>
      <trkpt lat="45.55648" lon="2.93689">
        <ele>929.73</ele>
        <time>2021-08-15T04:51:12Z</time>
      </trkpt>
      <trkpt lat="45.55648" lon="2.93691">
        <ele>929.73</ele>
        <time>2021-08-15T04:51:13Z</time>
      </trkpt>
      <trkpt lat="45.55647" lon="2.93694">
        <ele>929.73</ele>
        <time>2021-08-15T04:51:14Z</time>
      </trkpt>
      <trkpt lat="45.55647" lon="2.93697">
        <ele>929.73</ele>
        <time>2021-08-15T04:51:15Z</time>
      </trkpt>
      <trkpt lat="45.55647" lon="2.937">
        <ele>929.73</ele>
        <time>2021-08-15T04:51:16Z</time>
      </trkpt>
      <trkpt lat="45.55646" lon="2.93703">
        <ele>929.73</ele>
        <time>2021-08-15T04:51:17Z</time>
      </trkpt>
      <trkpt lat="45.55647" lon="2.93718">
        <ele>931.17</ele>
        <time>2021-08-15T04:51:24Z</time>
      </trkpt>
      <trkpt lat="45.55647" lon="2.93725">
        <ele>931.65</ele>
        <time>2021-08-15T04:51:28Z</time>
      </trkpt>
      <trkpt lat="45.55646" lon="2.93727">
        <ele>931.65</ele>
        <time>2021-08-15T04:51:29Z</time>
      </trkpt>
      <trkpt lat="45.55647" lon="2.9373">
        <ele>931.65</ele>
        <time>2021-08-15T04:51:30Z</time>
      </trkpt>
      <trkpt lat="45.55647" lon="2.93732">
        <ele>932.14</ele>
        <time>2021-08-15T04:51:31Z</time>
      </trkpt>
      <trkpt lat="45.55648" lon="2.93742">
        <ele>933.1</ele>
        <time>2021-08-15T04:51:38Z</time>
      </trkpt>
      <trkpt lat="45.55649" lon="2.93749">
        <ele>933.1</ele>
        <time>2021-08-15T04:51:42Z</time>
      </trkpt>
      <trkpt lat="45.55649" lon="2.93751">
        <ele>933.58</ele>
        <time>2021-08-15T04:51:43Z</time>
      </trkpt>
      <trkpt lat="45.5565" lon="2.93753">
        <ele>934.06</ele>
        <time>2021-08-15T04:51:44Z</time>
      </trkpt>
      <trkpt lat="45.5565" lon="2.93755">
        <ele>934.06</ele>
        <time>2021-08-15T04:51:45Z</time>
      </trkpt>
      <trkpt lat="45.55651" lon="2.93768">
        <ele>935.5</ele>
        <time>2021-08-15T04:51:53Z</time>
      </trkpt>
      <trkpt lat="45.55653" lon="2.93783">
        <ele>935.98</ele>
        <time>2021-08-15T04:52:02Z</time>
      </trkpt>
      <trkpt lat="45.55655" lon="2.93797">
        <ele>937.42</ele>
        <time>2021-08-15T04:52:09Z</time>
      </trkpt>
      <trkpt lat="45.55656" lon="2.93806">
        <ele>937.42</ele>
        <time>2021-08-15T04:52:15Z</time>
      </trkpt>
      <trkpt lat="45.55658" lon="2.93819">
        <ele>937.9</ele>
        <time>2021-08-15T04:52:22Z</time>
      </trkpt>
      <trkpt lat="45.55658" lon="2.93851">
        <ele>938.86</ele>
        <time>2021-08-15T04:52:34Z</time>
      </trkpt>
      <trkpt lat="45.55659" lon="2.93867">
        <ele>940.31</ele>
        <time>2021-08-15T04:52:42Z</time>
      </trkpt>
      <trkpt lat="45.5566" lon="2.93884">
        <ele>941.27</ele>
        <time>2021-08-15T04:52:51Z</time>
      </trkpt>
      <trkpt lat="45.55664" lon="2.93897">
        <ele>942.71</ele>
        <time>2021-08-15T04:53:00Z</time>
      </trkpt>
      <trkpt lat="45.5567" lon="2.93918">
        <ele>943.19</ele>
        <time>2021-08-15T04:53:09Z</time>
      </trkpt>
      <trkpt lat="45.55677" lon="2.93942">
        <ele>943.19</ele>
        <time>2021-08-15T04:53:17Z</time>
      </trkpt>
      <trkpt lat="45.55687" lon="2.93969">
        <ele>943.19</ele>
        <time>2021-08-15T04:53:25Z</time>
      </trkpt>
      <trkpt lat="45.55695" lon="2.93985">
        <ele>943.19</ele>
        <time>2021-08-15T04:53:31Z</time>
      </trkpt>
      <trkpt lat="45.55699" lon="2.93995">
        <ele>944.15</ele>
        <time>2021-08-15T04:53:36Z</time>
      </trkpt>
      <trkpt lat="45.55707" lon="2.94011">
        <ele>944.63</ele>
        <time>2021-08-15T04:53:44Z</time>
      </trkpt>
      <trkpt lat="45.55721" lon="2.9403">
        <ele>944.63</ele>
        <time>2021-08-15T04:53:53Z</time>
      </trkpt>
      <trkpt lat="45.55739" lon="2.9405">
        <ele>944.63</ele>
        <time>2021-08-15T04:54:01Z</time>
      </trkpt>
      <trkpt lat="45.55759" lon="2.9407">
        <ele>944.63</ele>
        <time>2021-08-15T04:54:08Z</time>
      </trkpt>
      <trkpt lat="45.55776" lon="2.94092">
        <ele>941.75</ele>
        <time>2021-08-15T04:54:13Z</time>
      </trkpt>
      <trkpt lat="45.5578" lon="2.94098">
        <ele>939.83</ele>
        <time>2021-08-15T04:54:14Z</time>
      </trkpt>
      <trkpt lat="45.55784" lon="2.94105">
        <ele>939.83</ele>
        <time>2021-08-15T04:54:15Z</time>
      </trkpt>
      <trkpt lat="45.55797" lon="2.94132">
        <ele>937.9</ele>
        <time>2021-08-15T04:54:18Z</time>
      </trkpt>
      <trkpt lat="45.55805" lon="2.9416">
        <ele>937.42</ele>
        <time>2021-08-15T04:54:21Z</time>
      </trkpt>
      <trkpt lat="45.55806" lon="2.94169">
        <ele>937.42</ele>
        <time>2021-08-15T04:54:22Z</time>
      </trkpt>
      <trkpt lat="45.55808" lon="2.94199">
        <ele>938.86</ele>
        <time>2021-08-15T04:54:27Z</time>
      </trkpt>
      <trkpt lat="45.5581" lon="2.94211">
        <ele>940.31</ele>
        <time>2021-08-15T04:54:31Z</time>
      </trkpt>
      <trkpt lat="45.55811" lon="2.94214">
        <ele>940.31</ele>
        <time>2021-08-15T04:54:32Z</time>
      </trkpt>
      <trkpt lat="45.55811" lon="2.94217">
        <ele>940.31</ele>
        <time>2021-08-15T04:54:33Z</time>
      </trkpt>
      <trkpt lat="45.55814" lon="2.94238">
        <ele>942.71</ele>
        <time>2021-08-15T04:54:42Z</time>
      </trkpt>
      <trkpt lat="45.55817" lon="2.9425">
        <ele>943.67</ele>
        <time>2021-08-15T04:54:48Z</time>
      </trkpt>
      <trkpt lat="45.55818" lon="2.94252">
        <ele>943.67</ele>
        <time>2021-08-15T04:54:49Z</time>
      </trkpt>
      <trkpt lat="45.55819" lon="2.94254">
        <ele>943.67</ele>
        <time>2021-08-15T04:54:50Z</time>
      </trkpt>
      <trkpt lat="45.55819" lon="2.94255">
        <ele>943.67</ele>
        <time>2021-08-15T04:54:51Z</time>
      </trkpt>
      <trkpt lat="45.5582" lon="2.94257">
        <ele>943.67</ele>
        <time>2021-08-15T04:54:52Z</time>
      </trkpt>
      <trkpt lat="45.55821" lon="2.94258">
        <ele>944.15</ele>
        <time>2021-08-15T04:54:53Z</time>
      </trkpt>
      <trkpt lat="45.55828" lon="2.94273">
        <ele>945.11</ele>
        <time>2021-08-15T04:55:02Z</time>
      </trkpt>
      <trkpt lat="45.55834" lon="2.94289">
        <ele>944.63</ele>
        <time>2021-08-15T04:55:10Z</time>
      </trkpt>
      <trkpt lat="45.5584" lon="2.94311">
        <ele>943.19</ele>
        <time>2021-08-15T04:55:16Z</time>
      </trkpt>
      <trkpt lat="45.55841" lon="2.94318">
        <ele>942.71</ele>
        <time>2021-08-15T04:55:17Z</time>
      </trkpt>
      <trkpt lat="45.55846" lon="2.94353">
        <ele>939.35</ele>
        <time>2021-08-15T04:55:21Z</time>
      </trkpt>
      <trkpt lat="45.55849" lon="2.9437">
        <ele>938.38</ele>
        <time>2021-08-15T04:55:23Z</time>
      </trkpt>
      <trkpt lat="45.55866" lon="2.94434">
        <ele>936.46</ele>
        <time>2021-08-15T04:55:30Z</time>
      </trkpt>
      <trkpt lat="45.5588" lon="2.94479">
        <ele>937.42</ele>
        <time>2021-08-15T04:55:37Z</time>
      </trkpt>
      <trkpt lat="45.55888" lon="2.94519">
        <ele>938.38</ele>
        <time>2021-08-15T04:55:45Z</time>
      </trkpt>
      <trkpt lat="45.55893" lon="2.94547">
        <ele>938.86</ele>
        <time>2021-08-15T04:55:51Z</time>
      </trkpt>
      <trkpt lat="45.55899" lon="2.94576">
        <ele>939.83</ele>
        <time>2021-08-15T04:55:58Z</time>
      </trkpt>
      <trkpt lat="45.55899" lon="2.9458">
        <ele>939.83</ele>
        <time>2021-08-15T04:55:59Z</time>
      </trkpt>
      <trkpt lat="45.55899" lon="2.94585">
        <ele>939.83</ele>
        <time>2021-08-15T04:56:00Z</time>
      </trkpt>
      <trkpt lat="45.559" lon="2.94613">
        <ele>940.79</ele>
        <time>2021-08-15T04:56:07Z</time>
      </trkpt>
      <trkpt lat="45.559" lon="2.94652">
        <ele>942.23</ele>
        <time>2021-08-15T04:56:18Z</time>
      </trkpt>
      <trkpt lat="45.55899" lon="2.94669">
        <ele>944.63</ele>
        <time>2021-08-15T04:56:25Z</time>
      </trkpt>
      <trkpt lat="45.55893" lon="2.94689">
        <ele>945.11</ele>
        <time>2021-08-15T04:56:33Z</time>
      </trkpt>
      <trkpt lat="45.55878" lon="2.94709">
        <ele>946.07</ele>
        <time>2021-08-15T04:56:43Z</time>
      </trkpt>
      <trkpt lat="45.55866" lon="2.94722">
        <ele>947.52</ele>
        <time>2021-08-15T04:56:51Z</time>
      </trkpt>
      <trkpt lat="45.55856" lon="2.94741">
        <ele>948.48</ele>
        <time>2021-08-15T04:57:00Z</time>
      </trkpt>
      <trkpt lat="45.55845" lon="2.94759">
        <ele>949.44</ele>
        <time>2021-08-15T04:57:10Z</time>
      </trkpt>
      <trkpt lat="45.55837" lon="2.94773">
        <ele>950.4</ele>
        <time>2021-08-15T04:57:17Z</time>
      </trkpt>
      <trkpt lat="45.55835" lon="2.94774">
        <ele>950.4</ele>
        <time>2021-08-15T04:57:18Z</time>
      </trkpt>
      <trkpt lat="45.55833" lon="2.94773">
        <ele>950.4</ele>
        <time>2021-08-15T04:57:19Z</time>
      </trkpt>
      <trkpt lat="45.55832" lon="2.94772">
        <ele>950.88</ele>
        <time>2021-08-15T04:57:20Z</time>
      </trkpt>
      <trkpt lat="45.55832" lon="2.9477">
        <ele>950.88</ele>
        <time>2021-08-15T04:57:21Z</time>
      </trkpt>
      <trkpt lat="45.55831" lon="2.94769">
        <ele>950.88</ele>
        <time>2021-08-15T04:57:22Z</time>
      </trkpt>
      <trkpt lat="45.55831" lon="2.94767">
        <ele>950.88</ele>
        <time>2021-08-15T04:57:23Z</time>
      </trkpt>
      <trkpt lat="45.5583" lon="2.94765">
        <ele>950.88</ele>
        <time>2021-08-15T04:57:24Z</time>
      </trkpt>
      <trkpt lat="45.55829" lon="2.94763">
        <ele>951.36</ele>
        <time>2021-08-15T04:57:25Z</time>
      </trkpt>
      <trkpt lat="45.55829" lon="2.94761">
        <ele>951.36</ele>
        <time>2021-08-15T04:57:26Z</time>
      </trkpt>
      <trkpt lat="45.55825" lon="2.94748">
        <ele>953.28</ele>
        <time>2021-08-15T04:57:34Z</time>
      </trkpt>
      <trkpt lat="45.55822" lon="2.94739">
        <ele>953.77</ele>
        <time>2021-08-15T04:57:40Z</time>
      </trkpt>
      <trkpt lat="45.5582" lon="2.94731">
        <ele>954.73</ele>
        <time>2021-08-15T04:57:46Z</time>
      </trkpt>
      <trkpt lat="45.55819" lon="2.94726">
        <ele>955.21</ele>
        <time>2021-08-15T04:57:51Z</time>
      </trkpt>
      <trkpt lat="45.55816" lon="2.9471">
        <ele>956.65</ele>
        <time>2021-08-15T04:58:03Z</time>
      </trkpt>
      <trkpt lat="45.55815" lon="2.94708">
        <ele>957.13</ele>
        <time>2021-08-15T04:58:05Z</time>
      </trkpt>
      <trkpt lat="45.5581" lon="2.94702">
        <ele>958.09</ele>
        <time>2021-08-15T04:58:14Z</time>
      </trkpt>
      <trkpt lat="45.55807" lon="2.94705">
        <ele>958.57</ele>
        <time>2021-08-15T04:58:19Z</time>
      </trkpt>
      <trkpt lat="45.55804" lon="2.94711">
        <ele>959.05</ele>
        <time>2021-08-15T04:58:27Z</time>
      </trkpt>
      <trkpt lat="45.55801" lon="2.9472">
        <ele>959.53</ele>
        <time>2021-08-15T04:58:34Z</time>
      </trkpt>
      <trkpt lat="45.55794" lon="2.94733">
        <ele>960.49</ele>
        <time>2021-08-15T04:58:42Z</time>
      </trkpt>
      <trkpt lat="45.55787" lon="2.94743">
        <ele>961.46</ele>
        <time>2021-08-15T04:58:50Z</time>
      </trkpt>
      <trkpt lat="45.55785" lon="2.94744">
        <ele>961.46</ele>
        <time>2021-08-15T04:58:51Z</time>
      </trkpt>
      <trkpt lat="45.55784" lon="2.94745">
        <ele>961.46</ele>
        <time>2021-08-15T04:58:52Z</time>
      </trkpt>
      <trkpt lat="45.55783" lon="2.94746">
        <ele>961.94</ele>
        <time>2021-08-15T04:58:53Z</time>
      </trkpt>
      <trkpt lat="45.55781" lon="2.94746">
        <ele>961.94</ele>
        <time>2021-08-15T04:58:54Z</time>
      </trkpt>
      <trkpt lat="45.5578" lon="2.94747">
        <ele>962.42</ele>
        <time>2021-08-15T04:58:55Z</time>
      </trkpt>
      <trkpt lat="45.55779" lon="2.94747">
        <ele>962.42</ele>
        <time>2021-08-15T04:58:56Z</time>
      </trkpt>
      <trkpt lat="45.55777" lon="2.94746">
        <ele>962.42</ele>
        <time>2021-08-15T04:58:57Z</time>
      </trkpt>
      <trkpt lat="45.55776" lon="2.94746">
        <ele>962.9</ele>
        <time>2021-08-15T04:58:58Z</time>
      </trkpt>
      <trkpt lat="45.55775" lon="2.94746">
        <ele>962.9</ele>
        <time>2021-08-15T04:58:59Z</time>
      </trkpt>
      <trkpt lat="45.55774" lon="2.94746">
        <ele>962.9</ele>
        <time>2021-08-15T04:59:00Z</time>
      </trkpt>
      <trkpt lat="45.55772" lon="2.94745">
        <ele>963.38</ele>
        <time>2021-08-15T04:59:01Z</time>
      </trkpt>
      <trkpt lat="45.55771" lon="2.94745">
        <ele>963.38</ele>
        <time>2021-08-15T04:59:02Z</time>
      </trkpt>
      <trkpt lat="45.5577" lon="2.94745">
        <ele>963.38</ele>
        <time>2021-08-15T04:59:03Z</time>
      </trkpt>
      <trkpt lat="45.55769" lon="2.94744">
        <ele>963.86</ele>
        <time>2021-08-15T04:59:04Z</time>
      </trkpt>
      <trkpt lat="45.55768" lon="2.94744">
        <ele>963.86</ele>
        <time>2021-08-15T04:59:05Z</time>
      </trkpt>
      <trkpt lat="45.55766" lon="2.94744">
        <ele>963.86</ele>
        <time>2021-08-15T04:59:06Z</time>
      </trkpt>
      <trkpt lat="45.55765" lon="2.94743">
        <ele>963.86</ele>
        <time>2021-08-15T04:59:07Z</time>
      </trkpt>
      <trkpt lat="45.55764" lon="2.94742">
        <ele>963.86</ele>
        <time>2021-08-15T04:59:08Z</time>
      </trkpt>
      <trkpt lat="45.55762" lon="2.94742">
        <ele>964.34</ele>
        <time>2021-08-15T04:59:09Z</time>
      </trkpt>
      <trkpt lat="45.55752" lon="2.94735">
        <ele>965.3</ele>
        <time>2021-08-15T04:59:17Z</time>
      </trkpt>
      <trkpt lat="45.55743" lon="2.94728">
        <ele>965.3</ele>
        <time>2021-08-15T04:59:24Z</time>
      </trkpt>
      <trkpt lat="45.55736" lon="2.9472">
        <ele>965.78</ele>
        <time>2021-08-15T04:59:31Z</time>
      </trkpt>
      <trkpt lat="45.55728" lon="2.94713">
        <ele>967.22</ele>
        <time>2021-08-15T04:59:39Z</time>
      </trkpt>
      <trkpt lat="45.55726" lon="2.94713">
        <ele>967.22</ele>
        <time>2021-08-15T04:59:40Z</time>
      </trkpt>
      <trkpt lat="45.55725" lon="2.94712">
        <ele>967.22</ele>
        <time>2021-08-15T04:59:41Z</time>
      </trkpt>
      <trkpt lat="45.55724" lon="2.94711">
        <ele>967.7</ele>
        <time>2021-08-15T04:59:42Z</time>
      </trkpt>
      <trkpt lat="45.55722" lon="2.94711">
        <ele>967.7</ele>
        <time>2021-08-15T04:59:43Z</time>
      </trkpt>
      <trkpt lat="45.55721" lon="2.9471">
        <ele>967.7</ele>
        <time>2021-08-15T04:59:44Z</time>
      </trkpt>
      <trkpt lat="45.55719" lon="2.94709">
        <ele>968.18</ele>
        <time>2021-08-15T04:59:45Z</time>
      </trkpt>
      <trkpt lat="45.55718" lon="2.94709">
        <ele>968.18</ele>
        <time>2021-08-15T04:59:46Z</time>
      </trkpt>
      <trkpt lat="45.55716" lon="2.94708">
        <ele>968.18</ele>
        <time>2021-08-15T04:59:47Z</time>
      </trkpt>
      <trkpt lat="45.55715" lon="2.94707">
        <ele>968.18</ele>
        <time>2021-08-15T04:59:48Z</time>
      </trkpt>
      <trkpt lat="45.55713" lon="2.94706">
        <ele>968.67</ele>
        <time>2021-08-15T04:59:49Z</time>
      </trkpt>
      <trkpt lat="45.55702" lon="2.94702">
        <ele>969.15</ele>
        <time>2021-08-15T04:59:58Z</time>
      </trkpt>
      <trkpt lat="45.55692" lon="2.94706">
        <ele>970.59</ele>
        <time>2021-08-15T05:00:06Z</time>
      </trkpt>
      <trkpt lat="45.55688" lon="2.9471">
        <ele>971.07</ele>
        <time>2021-08-15T05:00:10Z</time>
      </trkpt>
      <trkpt lat="45.55683" lon="2.94717">
        <ele>972.51</ele>
        <time>2021-08-15T05:00:16Z</time>
      </trkpt>
      <trkpt lat="45.55681" lon="2.94718">
        <ele>972.51</ele>
        <time>2021-08-15T05:00:17Z</time>
      </trkpt>
      <trkpt lat="45.5568" lon="2.94718">
        <ele>972.51</ele>
        <time>2021-08-15T05:00:18Z</time>
      </trkpt>
      <trkpt lat="45.55678" lon="2.94718">
        <ele>972.51</ele>
        <time>2021-08-15T05:00:19Z</time>
      </trkpt>
      <trkpt lat="45.55677" lon="2.94718">
        <ele>972.99</ele>
        <time>2021-08-15T05:00:20Z</time>
      </trkpt>
      <trkpt lat="45.55676" lon="2.94716">
        <ele>973.47</ele>
        <time>2021-08-15T05:00:22Z</time>
      </trkpt>
      <trkpt lat="45.55675" lon="2.94712">
        <ele>973.95</ele>
        <time>2021-08-15T05:00:25Z</time>
      </trkpt>
      <trkpt lat="45.55676" lon="2.9471">
        <ele>973.95</ele>
        <time>2021-08-15T05:00:26Z</time>
      </trkpt>
      <trkpt lat="45.55676" lon="2.94708">
        <ele>973.95</ele>
        <time>2021-08-15T05:00:27Z</time>
      </trkpt>
      <trkpt lat="45.55682" lon="2.9469">
        <ele>972.51</ele>
        <time>2021-08-15T05:00:33Z</time>
      </trkpt>
      <trkpt lat="45.55683" lon="2.94666">
        <ele>972.51</ele>
        <time>2021-08-15T05:00:40Z</time>
      </trkpt>
      <trkpt lat="45.55682" lon="2.94657">
        <ele>972.51</ele>
        <time>2021-08-15T05:00:44Z</time>
      </trkpt>
      <trkpt lat="45.55675" lon="2.94638">
        <ele>973.95</ele>
        <time>2021-08-15T05:00:54Z</time>
      </trkpt>
      <trkpt lat="45.55673" lon="2.94633">
        <ele>974.91</ele>
        <time>2021-08-15T05:00:57Z</time>
      </trkpt>
      <trkpt lat="45.55673" lon="2.94631">
        <ele>974.91</ele>
        <time>2021-08-15T05:00:58Z</time>
      </trkpt>
      <trkpt lat="45.55673" lon="2.94629">
        <ele>974.91</ele>
        <time>2021-08-15T05:00:59Z</time>
      </trkpt>
      <trkpt lat="45.55673" lon="2.94627">
        <ele>974.91</ele>
        <time>2021-08-15T05:01:00Z</time>
      </trkpt>
      <trkpt lat="45.55673" lon="2.94625">
        <ele>974.91</ele>
        <time>2021-08-15T05:01:01Z</time>
      </trkpt>
      <trkpt lat="45.55672" lon="2.94623">
        <ele>974.91</ele>
        <time>2021-08-15T05:01:02Z</time>
      </trkpt>
      <trkpt lat="45.55672" lon="2.94621">
        <ele>975.39</ele>
        <time>2021-08-15T05:01:03Z</time>
      </trkpt>
      <trkpt lat="45.55671" lon="2.94619">
        <ele>975.39</ele>
        <time>2021-08-15T05:01:04Z</time>
      </trkpt>
      <trkpt lat="45.55671" lon="2.94618">
        <ele>975.88</ele>
        <time>2021-08-15T05:01:05Z</time>
      </trkpt>
      <trkpt lat="45.5567" lon="2.94616">
        <ele>975.88</ele>
        <time>2021-08-15T05:01:06Z</time>
      </trkpt>
      <trkpt lat="45.55659" lon="2.94614">
        <ele>976.84</ele>
        <time>2021-08-15T05:01:14Z</time>
      </trkpt>
      <trkpt lat="45.55649" lon="2.94612">
        <ele>977.32</ele>
        <time>2021-08-15T05:01:22Z</time>
      </trkpt>
      <trkpt lat="45.55643" lon="2.94607">
        <ele>977.8</ele>
        <time>2021-08-15T05:01:27Z</time>
      </trkpt>
      <trkpt lat="45.55642" lon="2.94606">
        <ele>977.8</ele>
        <time>2021-08-15T05:01:28Z</time>
      </trkpt>
      <trkpt lat="45.55641" lon="2.94604">
        <ele>978.28</ele>
        <time>2021-08-15T05:01:29Z</time>
      </trkpt>
      <trkpt lat="45.5564" lon="2.94603">
        <ele>978.28</ele>
        <time>2021-08-15T05:01:30Z</time>
      </trkpt>
      <trkpt lat="45.55639" lon="2.94601">
        <ele>978.28</ele>
        <time>2021-08-15T05:01:31Z</time>
      </trkpt>
      <trkpt lat="45.55638" lon="2.94599">
        <ele>978.28</ele>
        <time>2021-08-15T05:01:32Z</time>
      </trkpt>
      <trkpt lat="45.55637" lon="2.94597">
        <ele>978.28</ele>
        <time>2021-08-15T05:01:33Z</time>
      </trkpt>
      <trkpt lat="45.55636" lon="2.94595">
        <ele>978.76</ele>
        <time>2021-08-15T05:01:34Z</time>
      </trkpt>
      <trkpt lat="45.55635" lon="2.94593">
        <ele>978.76</ele>
        <time>2021-08-15T05:01:35Z</time>
      </trkpt>
      <trkpt lat="45.55634" lon="2.94591">
        <ele>978.76</ele>
        <time>2021-08-15T05:01:36Z</time>
      </trkpt>
      <trkpt lat="45.55633" lon="2.94589">
        <ele>978.76</ele>
        <time>2021-08-15T05:01:37Z</time>
      </trkpt>
      <trkpt lat="45.55627" lon="2.94569">
        <ele>980.2</ele>
        <time>2021-08-15T05:01:46Z</time>
      </trkpt>
      <trkpt lat="45.5562" lon="2.94552">
        <ele>981.16</ele>
        <time>2021-08-15T05:01:55Z</time>
      </trkpt>
      <trkpt lat="45.55616" lon="2.94543">
        <ele>982.12</ele>
        <time>2021-08-15T05:02:02Z</time>
      </trkpt>
      <trkpt lat="45.55612" lon="2.94535">
        <ele>982.6</ele>
        <time>2021-08-15T05:02:07Z</time>
      </trkpt>
      <trkpt lat="45.5561" lon="2.94531">
        <ele>982.6</ele>
        <time>2021-08-15T05:02:09Z</time>
      </trkpt>
      <trkpt lat="45.55609" lon="2.94529">
        <ele>983.09</ele>
        <time>2021-08-15T05:02:10Z</time>
      </trkpt>
      <trkpt lat="45.55608" lon="2.94528">
        <ele>983.09</ele>
        <time>2021-08-15T05:02:11Z</time>
      </trkpt>
      <trkpt lat="45.55607" lon="2.94526">
        <ele>983.09</ele>
        <time>2021-08-15T05:02:12Z</time>
      </trkpt>
      <trkpt lat="45.55606" lon="2.94524">
        <ele>983.09</ele>
        <time>2021-08-15T05:02:13Z</time>
      </trkpt>
      <trkpt lat="45.55605" lon="2.94522">
        <ele>983.09</ele>
        <time>2021-08-15T05:02:14Z</time>
      </trkpt>
      <trkpt lat="45.55604" lon="2.94519">
        <ele>984.05</ele>
        <time>2021-08-15T05:02:20Z</time>
      </trkpt>
      <trkpt lat="45.55603" lon="2.94517">
        <ele>984.05</ele>
        <time>2021-08-15T05:02:24Z</time>
      </trkpt>
      <trkpt lat="45.55602" lon="2.94514">
        <ele>983.57</ele>
        <time>2021-08-15T05:02:26Z</time>
      </trkpt>
      <trkpt lat="45.55601" lon="2.94513">
        <ele>984.05</ele>
        <time>2021-08-15T05:02:27Z</time>
      </trkpt>
      <trkpt lat="45.55596" lon="2.94501">
        <ele>985.49</ele>
        <time>2021-08-15T05:02:37Z</time>
      </trkpt>
      <trkpt lat="45.55591" lon="2.94491">
        <ele>986.45</ele>
        <time>2021-08-15T05:02:46Z</time>
      </trkpt>
      <trkpt lat="45.55585" lon="2.94481">
        <ele>986.93</ele>
        <time>2021-08-15T05:02:55Z</time>
      </trkpt>
      <trkpt lat="45.55584" lon="2.94481">
        <ele>987.41</ele>
        <time>2021-08-15T05:03:06Z</time>
      </trkpt>
      <trkpt lat="45.55584" lon="2.94483">
        <ele>987.41</ele>
        <time>2021-08-15T05:03:25Z</time>
      </trkpt>
      <trkpt lat="45.55584" lon="2.94481">
        <ele>987.41</ele>
        <time>2021-08-15T05:03:42Z</time>
      </trkpt>
      <trkpt lat="45.55584" lon="2.94482">
        <ele>987.41</ele>
        <time>2021-08-15T05:03:56Z</time>
      </trkpt>
      <trkpt lat="45.55582" lon="2.94477">
        <ele>987.41</ele>
        <time>2021-08-15T05:04:05Z</time>
      </trkpt>
      <trkpt lat="45.55575" lon="2.94462">
        <ele>987.89</ele>
        <time>2021-08-15T05:04:13Z</time>
      </trkpt>
      <trkpt lat="45.5557" lon="2.94446">
        <ele>988.85</ele>
        <time>2021-08-15T05:04:23Z</time>
      </trkpt>
      <trkpt lat="45.55568" lon="2.9444">
        <ele>989.33</ele>
        <time>2021-08-15T05:04:27Z</time>
      </trkpt>
      <trkpt lat="45.55568" lon="2.94438">
        <ele>989.33</ele>
        <time>2021-08-15T05:04:28Z</time>
      </trkpt>
      <trkpt lat="45.55567" lon="2.94437">
        <ele>989.33</ele>
        <time>2021-08-15T05:04:29Z</time>
      </trkpt>
      <trkpt lat="45.55561" lon="2.94427">
        <ele>990.78</ele>
        <time>2021-08-15T05:04:37Z</time>
      </trkpt>
      <trkpt lat="45.55557" lon="2.94418">
        <ele>991.74</ele>
        <time>2021-08-15T05:04:44Z</time>
      </trkpt>
      <trkpt lat="45.55551" lon="2.94408">
        <ele>992.7</ele>
        <time>2021-08-15T05:04:52Z</time>
      </trkpt>
      <trkpt lat="45.5555" lon="2.94405">
        <ele>993.18</ele>
        <time>2021-08-15T05:04:55Z</time>
      </trkpt>
      <trkpt lat="45.55546" lon="2.94397">
        <ele>994.14</ele>
        <time>2021-08-15T05:05:01Z</time>
      </trkpt>
      <trkpt lat="45.55545" lon="2.94396">
        <ele>994.14</ele>
        <time>2021-08-15T05:05:02Z</time>
      </trkpt>
      <trkpt lat="45.55541" lon="2.94388">
        <ele>995.1</ele>
        <time>2021-08-15T05:05:08Z</time>
      </trkpt>
      <trkpt lat="45.55535" lon="2.94381">
        <ele>995.58</ele>
        <time>2021-08-15T05:05:14Z</time>
      </trkpt>
      <trkpt lat="45.55535" lon="2.94379">
        <ele>995.58</ele>
        <time>2021-08-15T05:05:15Z</time>
      </trkpt>
      <trkpt lat="45.55529" lon="2.9437">
        <ele>997.02</ele>
        <time>2021-08-15T05:05:22Z</time>
      </trkpt>
      <trkpt lat="45.55519" lon="2.94357">
        <ele>997.02</ele>
        <time>2021-08-15T05:05:31Z</time>
      </trkpt>
      <trkpt lat="45.55512" lon="2.94346">
        <ele>997.51</ele>
        <time>2021-08-15T05:05:38Z</time>
      </trkpt>
      <trkpt lat="45.55501" lon="2.94331">
        <ele>998.47</ele>
        <time>2021-08-15T05:05:47Z</time>
      </trkpt>
      <trkpt lat="45.55488" lon="2.94318">
        <ele>998.95</ele>
        <time>2021-08-15T05:05:57Z</time>
      </trkpt>
      <trkpt lat="45.55476" lon="2.94306">
        <ele>999.43</ele>
        <time>2021-08-15T05:06:05Z</time>
      </trkpt>
      <trkpt lat="45.55464" lon="2.94284">
        <ele>999.91</ele>
        <time>2021-08-15T05:06:15Z</time>
      </trkpt>
      <trkpt lat="45.55455" lon="2.94258">
        <ele>1001.35</ele>
        <time>2021-08-15T05:06:26Z</time>
      </trkpt>
      <trkpt lat="45.55448" lon="2.9424">
        <ele>1001.83</ele>
        <time>2021-08-15T05:06:34Z</time>
      </trkpt>
      <trkpt lat="45.55442" lon="2.94231">
        <ele>1002.31</ele>
        <time>2021-08-15T05:06:40Z</time>
      </trkpt>
      <trkpt lat="45.55431" lon="2.94217">
        <ele>1002.79</ele>
        <time>2021-08-15T05:06:49Z</time>
      </trkpt>
      <trkpt lat="45.55423" lon="2.94202">
        <ele>1003.75</ele>
        <time>2021-08-15T05:06:57Z</time>
      </trkpt>
      <trkpt lat="45.55421" lon="2.94196">
        <ele>1004.23</ele>
        <time>2021-08-15T05:07:00Z</time>
      </trkpt>
      <trkpt lat="45.5542" lon="2.94194">
        <ele>1003.75</ele>
        <time>2021-08-15T05:07:01Z</time>
      </trkpt>
      <trkpt lat="45.55419" lon="2.94192">
        <ele>1003.75</ele>
        <time>2021-08-15T05:07:02Z</time>
      </trkpt>
      <trkpt lat="45.55418" lon="2.9419">
        <ele>1004.72</ele>
        <time>2021-08-15T05:07:03Z</time>
      </trkpt>
      <trkpt lat="45.55418" lon="2.94188">
        <ele>1004.72</ele>
        <time>2021-08-15T05:07:04Z</time>
      </trkpt>
      <trkpt lat="45.55417" lon="2.94185">
        <ele>1004.72</ele>
        <time>2021-08-15T05:07:05Z</time>
      </trkpt>
      <trkpt lat="45.55416" lon="2.94184">
        <ele>1004.72</ele>
        <time>2021-08-15T05:07:06Z</time>
      </trkpt>
      <trkpt lat="45.5541" lon="2.94165">
        <ele>1005.2</ele>
        <time>2021-08-15T05:07:14Z</time>
      </trkpt>
      <trkpt lat="45.55405" lon="2.94148">
        <ele>1005.68</ele>
        <time>2021-08-15T05:07:21Z</time>
      </trkpt>
      <trkpt lat="45.55395" lon="2.94126">
        <ele>1006.64</ele>
        <time>2021-08-15T05:07:31Z</time>
      </trkpt>
      <trkpt lat="45.55388" lon="2.94114">
        <ele>1007.12</ele>
        <time>2021-08-15T05:07:38Z</time>
      </trkpt>
      <trkpt lat="45.55379" lon="2.94102">
        <ele>1008.08</ele>
        <time>2021-08-15T05:07:46Z</time>
      </trkpt>
      <trkpt lat="45.55368" lon="2.94093">
        <ele>1009.04</ele>
        <time>2021-08-15T05:07:54Z</time>
      </trkpt>
      <trkpt lat="45.5536" lon="2.94086">
        <ele>1009.52</ele>
        <time>2021-08-15T05:08:00Z</time>
      </trkpt>
      <trkpt lat="45.55348" lon="2.94074">
        <ele>1010.48</ele>
        <time>2021-08-15T05:08:09Z</time>
      </trkpt>
      <trkpt lat="45.55338" lon="2.94066">
        <ele>1011.93</ele>
        <time>2021-08-15T05:08:17Z</time>
      </trkpt>
      <trkpt lat="45.55329" lon="2.94058">
        <ele>1012.41</ele>
        <time>2021-08-15T05:08:24Z</time>
      </trkpt>
      <trkpt lat="45.55317" lon="2.9405">
        <ele>1013.85</ele>
        <time>2021-08-15T05:08:33Z</time>
      </trkpt>
      <trkpt lat="45.55309" lon="2.94045">
        <ele>1015.29</ele>
        <time>2021-08-15T05:08:41Z</time>
      </trkpt>
      <trkpt lat="45.55301" lon="2.9404">
        <ele>1016.25</ele>
        <time>2021-08-15T05:08:50Z</time>
      </trkpt>
      <trkpt lat="45.55291" lon="2.94034">
        <ele>1016.73</ele>
        <time>2021-08-15T05:08:59Z</time>
      </trkpt>
      <trkpt lat="45.55288" lon="2.94032">
        <ele>1017.21</ele>
        <time>2021-08-15T05:09:08Z</time>
      </trkpt>
      <trkpt lat="45.55287" lon="2.9403">
        <ele>1017.21</ele>
        <time>2021-08-15T05:09:14Z</time>
      </trkpt>
      <trkpt lat="45.55278" lon="2.94022">
        <ele>1018.65</ele>
        <time>2021-08-15T05:09:24Z</time>
      </trkpt>
      <trkpt lat="45.5527" lon="2.94014">
        <ele>1019.62</ele>
        <time>2021-08-15T05:09:34Z</time>
      </trkpt>
      <trkpt lat="45.55267" lon="2.94009">
        <ele>1020.1</ele>
        <time>2021-08-15T05:09:42Z</time>
      </trkpt>
      <trkpt lat="45.55266" lon="2.94009">
        <ele>1020.58</ele>
        <time>2021-08-15T05:09:52Z</time>
      </trkpt>
      <trkpt lat="45.55267" lon="2.94009">
        <ele>1020.58</ele>
        <time>2021-08-15T05:10:03Z</time>
      </trkpt>
      <trkpt lat="45.55266" lon="2.9401">
        <ele>1020.58</ele>
        <time>2021-08-15T05:10:09Z</time>
      </trkpt>
      <trkpt lat="45.55266" lon="2.9401">
        <ele>1020.58</ele>
        <time>2021-08-15T05:10:28Z</time>
      </trkpt>
      <trkpt lat="45.55266" lon="2.94009">
        <ele>1020.58</ele>
        <time>2021-08-15T05:10:48Z</time>
      </trkpt>
      <trkpt lat="45.55267" lon="2.94011">
        <ele>1020.58</ele>
        <time>2021-08-15T05:11:06Z</time>
      </trkpt>
      <trkpt lat="45.55266" lon="2.94011">
        <ele>1020.58</ele>
        <time>2021-08-15T05:11:28Z</time>
      </trkpt>
      <trkpt lat="45.55266" lon="2.94008">
        <ele>1020.58</ele>
        <time>2021-08-15T05:11:44Z</time>
      </trkpt>
      <trkpt lat="45.5526" lon="2.93998">
        <ele>1022.02</ele>
        <time>2021-08-15T05:11:55Z</time>
      </trkpt>
      <trkpt lat="45.55258" lon="2.93997">
        <ele>1022.5</ele>
        <time>2021-08-15T05:12:03Z</time>
      </trkpt>
      <trkpt lat="45.55257" lon="2.93997">
        <ele>1022.5</ele>
        <time>2021-08-15T05:12:04Z</time>
      </trkpt>
      <trkpt lat="45.55256" lon="2.93996">
        <ele>1022.5</ele>
        <time>2021-08-15T05:12:05Z</time>
      </trkpt>
      <trkpt lat="45.55249" lon="2.93993">
        <ele>1023.46</ele>
        <time>2021-08-15T05:12:12Z</time>
      </trkpt>
      <trkpt lat="45.55238" lon="2.93989">
        <ele>1024.9</ele>
        <time>2021-08-15T05:12:19Z</time>
      </trkpt>
      <trkpt lat="45.55226" lon="2.93986">
        <ele>1025.86</ele>
        <time>2021-08-15T05:12:26Z</time>
      </trkpt>
      <trkpt lat="45.55225" lon="2.93985">
        <ele>1025.86</ele>
        <time>2021-08-15T05:12:27Z</time>
      </trkpt>
      <trkpt lat="45.55223" lon="2.93984">
        <ele>1025.86</ele>
        <time>2021-08-15T05:12:28Z</time>
      </trkpt>
      <trkpt lat="45.55212" lon="2.93972">
        <ele>1026.83</ele>
        <time>2021-08-15T05:12:37Z</time>
      </trkpt>
      <trkpt lat="45.55201" lon="2.93965">
        <ele>1027.31</ele>
        <time>2021-08-15T05:12:45Z</time>
      </trkpt>
      <trkpt lat="45.552" lon="2.93965">
        <ele>1027.31</ele>
        <time>2021-08-15T05:12:46Z</time>
      </trkpt>
      <trkpt lat="45.55199" lon="2.93966">
        <ele>1028.27</ele>
        <time>2021-08-15T05:12:47Z</time>
      </trkpt>
      <trkpt lat="45.55198" lon="2.93967">
        <ele>1028.27</ele>
        <time>2021-08-15T05:12:48Z</time>
      </trkpt>
      <trkpt lat="45.55198" lon="2.93969">
        <ele>1027.79</ele>
        <time>2021-08-15T05:12:49Z</time>
      </trkpt>
      <trkpt lat="45.55197" lon="2.93971">
        <ele>1028.27</ele>
        <time>2021-08-15T05:12:50Z</time>
      </trkpt>
      <trkpt lat="45.55196" lon="2.93972">
        <ele>1027.79</ele>
        <time>2021-08-15T05:12:51Z</time>
      </trkpt>
      <trkpt lat="45.55194" lon="2.93973">
        <ele>1028.27</ele>
        <time>2021-08-15T05:12:52Z</time>
      </trkpt>
      <trkpt lat="45.55193" lon="2.93973">
        <ele>1028.27</ele>
        <time>2021-08-15T05:12:53Z</time>
      </trkpt>
      <trkpt lat="45.55192" lon="2.93972">
        <ele>1028.27</ele>
        <time>2021-08-15T05:12:54Z</time>
      </trkpt>
      <trkpt lat="45.55192" lon="2.9397">
        <ele>1028.27</ele>
        <time>2021-08-15T05:12:55Z</time>
      </trkpt>
      <trkpt lat="45.55192" lon="2.93968">
        <ele>1028.27</ele>
        <time>2021-08-15T05:12:56Z</time>
      </trkpt>
      <trkpt lat="45.55193" lon="2.93966">
        <ele>1028.27</ele>
        <time>2021-08-15T05:12:57Z</time>
      </trkpt>
      <trkpt lat="45.55194" lon="2.93964">
        <ele>1028.27</ele>
        <time>2021-08-15T05:12:58Z</time>
      </trkpt>
      <trkpt lat="45.55195" lon="2.93962">
        <ele>1028.27</ele>
        <time>2021-08-15T05:12:59Z</time>
      </trkpt>
      <trkpt lat="45.55197" lon="2.9396">
        <ele>1028.27</ele>
        <time>2021-08-15T05:13:00Z</time>
      </trkpt>
      <trkpt lat="45.55201" lon="2.93951">
        <ele>1028.75</ele>
        <time>2021-08-15T05:13:05Z</time>
      </trkpt>
      <trkpt lat="45.55202" lon="2.9395">
        <ele>1028.75</ele>
        <time>2021-08-15T05:13:06Z</time>
      </trkpt>
      <trkpt lat="45.55203" lon="2.93949">
        <ele>1028.75</ele>
        <time>2021-08-15T05:13:07Z</time>
      </trkpt>
      <trkpt lat="45.55203" lon="2.93947">
        <ele>1028.75</ele>
        <time>2021-08-15T05:13:08Z</time>
      </trkpt>
      <trkpt lat="45.55204" lon="2.93946">
        <ele>1029.23</ele>
        <time>2021-08-15T05:13:09Z</time>
      </trkpt>
      <trkpt lat="45.55205" lon="2.93944">
        <ele>1029.23</ele>
        <time>2021-08-15T05:13:10Z</time>
      </trkpt>
      <trkpt lat="45.55205" lon="2.93943">
        <ele>1029.23</ele>
        <time>2021-08-15T05:13:11Z</time>
      </trkpt>
      <trkpt lat="45.55206" lon="2.93942">
        <ele>1029.23</ele>
        <time>2021-08-15T05:13:12Z</time>
      </trkpt>
      <trkpt lat="45.55207" lon="2.9394">
        <ele>1029.71</ele>
        <time>2021-08-15T05:13:13Z</time>
      </trkpt>
      <trkpt lat="45.55208" lon="2.93939">
        <ele>1029.71</ele>
        <time>2021-08-15T05:13:14Z</time>
      </trkpt>
      <trkpt lat="45.55209" lon="2.93937">
        <ele>1030.19</ele>
        <time>2021-08-15T05:13:15Z</time>
      </trkpt>
      <trkpt lat="45.5521" lon="2.93936">
        <ele>1030.19</ele>
        <time>2021-08-15T05:13:16Z</time>
      </trkpt>
      <trkpt lat="45.55212" lon="2.93934">
        <ele>1030.19</ele>
        <time>2021-08-15T05:13:18Z</time>
      </trkpt>
      <trkpt lat="45.55213" lon="2.93933">
        <ele>1030.19</ele>
        <time>2021-08-15T05:13:19Z</time>
      </trkpt>
      <trkpt lat="45.55218" lon="2.93927">
        <ele>1030.67</ele>
        <time>2021-08-15T05:13:23Z</time>
      </trkpt>
      <trkpt lat="45.55219" lon="2.93926">
        <ele>1030.67</ele>
        <time>2021-08-15T05:13:24Z</time>
      </trkpt>
      <trkpt lat="45.5522" lon="2.93925">
        <ele>1030.67</ele>
        <time>2021-08-15T05:13:25Z</time>
      </trkpt>
      <trkpt lat="45.55221" lon="2.93923">
        <ele>1030.67</ele>
        <time>2021-08-15T05:13:26Z</time>
      </trkpt>
      <trkpt lat="45.55222" lon="2.93921">
        <ele>1030.67</ele>
        <time>2021-08-15T05:13:27Z</time>
      </trkpt>
      <trkpt lat="45.55224" lon="2.93919">
        <ele>1030.67</ele>
        <time>2021-08-15T05:13:28Z</time>
      </trkpt>
      <trkpt lat="45.55225" lon="2.93917">
        <ele>1030.67</ele>
        <time>2021-08-15T05:13:29Z</time>
      </trkpt>
      <trkpt lat="45.5524" lon="2.93893">
        <ele>1031.63</ele>
        <time>2021-08-15T05:13:39Z</time>
      </trkpt>
      <trkpt lat="45.55251" lon="2.93871">
        <ele>1032.11</ele>
        <time>2021-08-15T05:13:47Z</time>
      </trkpt>
      <trkpt lat="45.55259" lon="2.9384">
        <ele>1032.59</ele>
        <time>2021-08-15T05:13:56Z</time>
      </trkpt>
      <trkpt lat="45.55264" lon="2.93811">
        <ele>1033.55</ele>
        <time>2021-08-15T05:14:04Z</time>
      </trkpt>
      <trkpt lat="45.55267" lon="2.93793">
        <ele>1034.04</ele>
        <time>2021-08-15T05:14:10Z</time>
      </trkpt>
      <trkpt lat="45.55268" lon="2.93791">
        <ele>1034.52</ele>
        <time>2021-08-15T05:14:11Z</time>
      </trkpt>
      <trkpt lat="45.55272" lon="2.93777">
        <ele>1035</ele>
        <time>2021-08-15T05:14:18Z</time>
      </trkpt>
      <trkpt lat="45.55271" lon="2.93778">
        <ele>1035</ele>
        <time>2021-08-15T05:14:26Z</time>
      </trkpt>
      <trkpt lat="45.55272" lon="2.93778">
        <ele>1035</ele>
        <time>2021-08-15T05:14:42Z</time>
      </trkpt>
      <trkpt lat="45.55271" lon="2.93777">
        <ele>1035</ele>
        <time>2021-08-15T05:14:44Z</time>
      </trkpt>
      <trkpt lat="45.55271" lon="2.93775">
        <ele>1035</ele>
        <time>2021-08-15T05:14:45Z</time>
      </trkpt>
      <trkpt lat="45.55272" lon="2.93762">
        <ele>1035.48</ele>
        <time>2021-08-15T05:14:51Z</time>
      </trkpt>
      <trkpt lat="45.55271" lon="2.93743">
        <ele>1036.44</ele>
        <time>2021-08-15T05:14:58Z</time>
      </trkpt>
      <trkpt lat="45.5527" lon="2.93729">
        <ele>1036.92</ele>
        <time>2021-08-15T05:15:04Z</time>
      </trkpt>
      <trkpt lat="45.55269" lon="2.93727">
        <ele>1036.92</ele>
        <time>2021-08-15T05:15:05Z</time>
      </trkpt>
      <trkpt lat="45.55269" lon="2.93724">
        <ele>1036.92</ele>
        <time>2021-08-15T05:15:06Z</time>
      </trkpt>
      <trkpt lat="45.55269" lon="2.93722">
        <ele>1036.92</ele>
        <time>2021-08-15T05:15:07Z</time>
      </trkpt>
      <trkpt lat="45.55268" lon="2.93719">
        <ele>1036.92</ele>
        <time>2021-08-15T05:15:08Z</time>
      </trkpt>
      <trkpt lat="45.55268" lon="2.93717">
        <ele>1036.92</ele>
        <time>2021-08-15T05:15:09Z</time>
      </trkpt>
      <trkpt lat="45.55268" lon="2.93714">
        <ele>1037.4</ele>
        <time>2021-08-15T05:15:10Z</time>
      </trkpt>
      <trkpt lat="45.55264" lon="2.93691">
        <ele>1037.88</ele>
        <time>2021-08-15T05:15:19Z</time>
      </trkpt>
      <trkpt lat="45.55259" lon="2.93668">
        <ele>1039.32</ele>
        <time>2021-08-15T05:15:29Z</time>
      </trkpt>
      <trkpt lat="45.55255" lon="2.93642">
        <ele>1040.76</ele>
        <time>2021-08-15T05:15:41Z</time>
      </trkpt>
      <trkpt lat="45.55249" lon="2.93625">
        <ele>1041.73</ele>
        <time>2021-08-15T05:15:50Z</time>
      </trkpt>
      <trkpt lat="45.55242" lon="2.93609">
        <ele>1044.13</ele>
        <time>2021-08-15T05:15:59Z</time>
      </trkpt>
      <trkpt lat="45.55236" lon="2.93604">
        <ele>1044.61</ele>
        <time>2021-08-15T05:16:04Z</time>
      </trkpt>
      <trkpt lat="45.55225" lon="2.93587">
        <ele>1045.57</ele>
        <time>2021-08-15T05:16:15Z</time>
      </trkpt>
      <trkpt lat="45.55218" lon="2.93568">
        <ele>1046.53</ele>
        <time>2021-08-15T05:16:25Z</time>
      </trkpt>
      <trkpt lat="45.55214" lon="2.93558">
        <ele>1047.01</ele>
        <time>2021-08-15T05:16:31Z</time>
      </trkpt>
      <trkpt lat="45.55213" lon="2.93557">
        <ele>1047.49</ele>
        <time>2021-08-15T05:16:32Z</time>
      </trkpt>
      <trkpt lat="45.55202" lon="2.93537">
        <ele>1048.94</ele>
        <time>2021-08-15T05:16:43Z</time>
      </trkpt>
      <trkpt lat="45.55193" lon="2.9353">
        <ele>1049.9</ele>
        <time>2021-08-15T05:16:50Z</time>
      </trkpt>
      <trkpt lat="45.55182" lon="2.93537">
        <ele>1049.9</ele>
        <time>2021-08-15T05:16:57Z</time>
      </trkpt>
      <trkpt lat="45.55172" lon="2.93556">
        <ele>1049.9</ele>
        <time>2021-08-15T05:17:03Z</time>
      </trkpt>
      <trkpt lat="45.55153" lon="2.93573">
        <ele>1048.94</ele>
        <time>2021-08-15T05:17:11Z</time>
      </trkpt>
      <trkpt lat="45.55127" lon="2.93589">
        <ele>1048.94</ele>
        <time>2021-08-15T05:17:20Z</time>
      </trkpt>
      <trkpt lat="45.55107" lon="2.93602">
        <ele>1047.97</ele>
        <time>2021-08-15T05:17:27Z</time>
      </trkpt>
      <trkpt lat="45.55075" lon="2.93617">
        <ele>1046.53</ele>
        <time>2021-08-15T05:17:36Z</time>
      </trkpt>
      <trkpt lat="45.55059" lon="2.93629">
        <ele>1046.05</ele>
        <time>2021-08-15T05:17:42Z</time>
      </trkpt>
      <trkpt lat="45.55058" lon="2.93634">
        <ele>1046.05</ele>
        <time>2021-08-15T05:17:43Z</time>
      </trkpt>
      <trkpt lat="45.55058" lon="2.9364">
        <ele>1046.05</ele>
        <time>2021-08-15T05:17:44Z</time>
      </trkpt>
      <trkpt lat="45.55061" lon="2.93655">
        <ele>1045.57</ele>
        <time>2021-08-15T05:17:47Z</time>
      </trkpt>
      <trkpt lat="45.55071" lon="2.93711">
        <ele>1043.17</ele>
        <time>2021-08-15T05:17:55Z</time>
      </trkpt>
      <trkpt lat="45.55088" lon="2.93759">
        <ele>1040.28</ele>
        <time>2021-08-15T05:18:01Z</time>
      </trkpt>
      <trkpt lat="45.55093" lon="2.93772">
        <ele>1039.32</ele>
        <time>2021-08-15T05:18:03Z</time>
      </trkpt>
      <trkpt lat="45.55096" lon="2.93777">
        <ele>1039.32</ele>
        <time>2021-08-15T05:18:04Z</time>
      </trkpt>
      <trkpt lat="45.55098" lon="2.93783">
        <ele>1039.32</ele>
        <time>2021-08-15T05:18:05Z</time>
      </trkpt>
      <trkpt lat="45.551" lon="2.93788">
        <ele>1039.32</ele>
        <time>2021-08-15T05:18:06Z</time>
      </trkpt>
      <trkpt lat="45.55101" lon="2.93793">
        <ele>1038.84</ele>
        <time>2021-08-15T05:18:07Z</time>
      </trkpt>
      <trkpt lat="45.551" lon="2.93797">
        <ele>1038.84</ele>
        <time>2021-08-15T05:18:08Z</time>
      </trkpt>
      <trkpt lat="45.55098" lon="2.93801">
        <ele>1038.84</ele>
        <time>2021-08-15T05:18:09Z</time>
      </trkpt>
      <trkpt lat="45.55095" lon="2.93801">
        <ele>1038.36</ele>
        <time>2021-08-15T05:18:10Z</time>
      </trkpt>
      <trkpt lat="45.55093" lon="2.938">
        <ele>1037.88</ele>
        <time>2021-08-15T05:18:11Z</time>
      </trkpt>
      <trkpt lat="45.5509" lon="2.93799">
        <ele>1038.36</ele>
        <time>2021-08-15T05:18:12Z</time>
      </trkpt>
      <trkpt lat="45.55078" lon="2.93785">
        <ele>1038.36</ele>
        <time>2021-08-15T05:18:19Z</time>
      </trkpt>
      <trkpt lat="45.55058" lon="2.93765">
        <ele>1038.36</ele>
        <time>2021-08-15T05:18:28Z</time>
      </trkpt>
      <trkpt lat="45.55037" lon="2.93752">
        <ele>1039.32</ele>
        <time>2021-08-15T05:18:36Z</time>
      </trkpt>
      <trkpt lat="45.55016" lon="2.93746">
        <ele>1040.76</ele>
        <time>2021-08-15T05:18:44Z</time>
      </trkpt>
      <trkpt lat="45.54994" lon="2.93746">
        <ele>1041.73</ele>
        <time>2021-08-15T05:18:52Z</time>
      </trkpt>
      <trkpt lat="45.54975" lon="2.93757">
        <ele>1042.69</ele>
        <time>2021-08-15T05:19:00Z</time>
      </trkpt>
      <trkpt lat="45.54953" lon="2.93768">
        <ele>1043.17</ele>
        <time>2021-08-15T05:19:09Z</time>
      </trkpt>
      <trkpt lat="45.54935" lon="2.93771">
        <ele>1044.61</ele>
        <time>2021-08-15T05:19:18Z</time>
      </trkpt>
      <trkpt lat="45.54918" lon="2.93774">
        <ele>1046.05</ele>
        <time>2021-08-15T05:19:27Z</time>
      </trkpt>
      <trkpt lat="45.54903" lon="2.93776">
        <ele>1047.49</ele>
        <time>2021-08-15T05:19:35Z</time>
      </trkpt>
      <trkpt lat="45.54885" lon="2.93779">
        <ele>1048.45</ele>
        <time>2021-08-15T05:19:45Z</time>
      </trkpt>
      <trkpt lat="45.54871" lon="2.9378">
        <ele>1049.42</ele>
        <time>2021-08-15T05:19:52Z</time>
      </trkpt>
      <trkpt lat="45.54853" lon="2.93782">
        <ele>1050.38</ele>
        <time>2021-08-15T05:20:01Z</time>
      </trkpt>
      <trkpt lat="45.54827" lon="2.93785">
        <ele>1051.82</ele>
        <time>2021-08-15T05:20:14Z</time>
      </trkpt>
      <trkpt lat="45.54809" lon="2.93787">
        <ele>1052.78</ele>
        <time>2021-08-15T05:20:23Z</time>
      </trkpt>
      <trkpt lat="45.54797" lon="2.93789">
        <ele>1053.26</ele>
        <time>2021-08-15T05:20:29Z</time>
      </trkpt>
      <trkpt lat="45.54795" lon="2.93788">
        <ele>1053.74</ele>
        <time>2021-08-15T05:20:30Z</time>
      </trkpt>
      <trkpt lat="45.54793" lon="2.93788">
        <ele>1053.74</ele>
        <time>2021-08-15T05:20:31Z</time>
      </trkpt>
      <trkpt lat="45.54782" lon="2.9379">
        <ele>1053.74</ele>
        <time>2021-08-15T05:20:38Z</time>
      </trkpt>
      <trkpt lat="45.54769" lon="2.93794">
        <ele>1053.74</ele>
        <time>2021-08-15T05:20:46Z</time>
      </trkpt>
      <trkpt lat="45.54748" lon="2.93802">
        <ele>1053.74</ele>
        <time>2021-08-15T05:20:55Z</time>
      </trkpt>
      <trkpt lat="45.54739" lon="2.93806">
        <ele>1052.3</ele>
        <time>2021-08-15T05:20:58Z</time>
      </trkpt>
      <trkpt lat="45.54713" lon="2.93817">
        <ele>1050.38</ele>
        <time>2021-08-15T05:21:05Z</time>
      </trkpt>
      <trkpt lat="45.54711" lon="2.93818">
        <ele>1050.38</ele>
        <time>2021-08-15T05:21:10Z</time>
      </trkpt>
      <trkpt lat="45.5471" lon="2.93817">
        <ele>1049.9</ele>
        <time>2021-08-15T05:21:28Z</time>
      </trkpt>
      <trkpt lat="45.54711" lon="2.93817">
        <ele>1049.9</ele>
        <time>2021-08-15T05:21:43Z</time>
      </trkpt>
      <trkpt lat="45.54716" lon="2.93814">
        <ele>1049.9</ele>
        <time>2021-08-15T05:21:59Z</time>
      </trkpt>
      <trkpt lat="45.54721" lon="2.93811">
        <ele>1049.9</ele>
        <time>2021-08-15T05:22:00Z</time>
      </trkpt>
      <trkpt lat="45.5472" lon="2.93812">
        <ele>1049.9</ele>
        <time>2021-08-15T05:22:04Z</time>
      </trkpt>
      <trkpt lat="45.5472" lon="2.93813">
        <ele>1049.9</ele>
        <time>2021-08-15T05:22:05Z</time>
      </trkpt>
      <trkpt lat="45.54719" lon="2.93815">
        <ele>1049.9</ele>
        <time>2021-08-15T05:22:10Z</time>
      </trkpt>
      <trkpt lat="45.54714" lon="2.93817">
        <ele>1049.9</ele>
        <time>2021-08-15T05:22:29Z</time>
      </trkpt>
      <trkpt lat="45.54713" lon="2.93817">
        <ele>1049.9</ele>
        <time>2021-08-15T05:22:47Z</time>
      </trkpt>
      <trkpt lat="45.54712" lon="2.93817">
        <ele>1049.9</ele>
        <time>2021-08-15T05:23:04Z</time>
      </trkpt>
      <trkpt lat="45.54712" lon="2.93817">
        <ele>1049.9</ele>
        <time>2021-08-15T05:23:18Z</time>
      </trkpt>
      <trkpt lat="45.54711" lon="2.93816">
        <ele>1049.9</ele>
        <time>2021-08-15T05:23:43Z</time>
      </trkpt>
      <trkpt lat="45.54711" lon="2.93816">
        <ele>1049.9</ele>
        <time>2021-08-15T05:24:00Z</time>
      </trkpt>
      <trkpt lat="45.54711" lon="2.93817">
        <ele>1049.9</ele>
        <time>2021-08-15T05:24:20Z</time>
      </trkpt>
      <trkpt lat="45.54709" lon="2.93818">
        <ele>1049.9</ele>
        <time>2021-08-15T05:24:27Z</time>
      </trkpt>
      <trkpt lat="45.54707" lon="2.93819">
        <ele>1049.42</ele>
        <time>2021-08-15T05:24:28Z</time>
      </trkpt>
      <trkpt lat="45.54706" lon="2.9382">
        <ele>1049.42</ele>
        <time>2021-08-15T05:24:29Z</time>
      </trkpt>
      <trkpt lat="45.54703" lon="2.93821">
        <ele>1049.42</ele>
        <time>2021-08-15T05:24:30Z</time>
      </trkpt>
      <trkpt lat="45.547" lon="2.93822">
        <ele>1048.94</ele>
        <time>2021-08-15T05:24:31Z</time>
      </trkpt>
      <trkpt lat="45.54675" lon="2.93833">
        <ele>1047.01</ele>
        <time>2021-08-15T05:24:37Z</time>
      </trkpt>
      <trkpt lat="45.54646" lon="2.93844">
        <ele>1043.65</ele>
        <time>2021-08-15T05:24:42Z</time>
      </trkpt>
      <trkpt lat="45.54623" lon="2.93852">
        <ele>1040.28</ele>
        <time>2021-08-15T05:24:46Z</time>
      </trkpt>
      <trkpt lat="45.54596" lon="2.9386">
        <ele>1037.88</ele>
        <time>2021-08-15T05:24:50Z</time>
      </trkpt>
      <trkpt lat="45.54552" lon="2.93869">
        <ele>1038.36</ele>
        <time>2021-08-15T05:24:57Z</time>
      </trkpt>
      <trkpt lat="45.54536" lon="2.93868">
        <ele>1040.28</ele>
        <time>2021-08-15T05:25:03Z</time>
      </trkpt>
      <trkpt lat="45.54523" lon="2.93866">
        <ele>1041.73</ele>
        <time>2021-08-15T05:25:10Z</time>
      </trkpt>
      <trkpt lat="45.54511" lon="2.93866">
        <ele>1043.17</ele>
        <time>2021-08-15T05:25:17Z</time>
      </trkpt>
      <trkpt lat="45.54499" lon="2.93866">
        <ele>1044.13</ele>
        <time>2021-08-15T05:25:24Z</time>
      </trkpt>
      <trkpt lat="45.54483" lon="2.93866">
        <ele>1046.05</ele>
        <time>2021-08-15T05:25:33Z</time>
      </trkpt>
      <trkpt lat="45.54467" lon="2.93865">
        <ele>1047.01</ele>
        <time>2021-08-15T05:25:41Z</time>
      </trkpt>
      <trkpt lat="45.54448" lon="2.93863">
        <ele>1047.97</ele>
        <time>2021-08-15T05:25:50Z</time>
      </trkpt>
      <trkpt lat="45.54434" lon="2.93863">
        <ele>1048.45</ele>
        <time>2021-08-15T05:25:56Z</time>
      </trkpt>
      <trkpt lat="45.54432" lon="2.93866">
        <ele>1047.01</ele>
        <time>2021-08-15T05:25:57Z</time>
      </trkpt>
      <trkpt lat="45.54431" lon="2.9387">
        <ele>1047.01</ele>
        <time>2021-08-15T05:25:58Z</time>
      </trkpt>
      <trkpt lat="45.54429" lon="2.93875">
        <ele>1046.53</ele>
        <time>2021-08-15T05:25:59Z</time>
      </trkpt>
      <trkpt lat="45.54427" lon="2.93878">
        <ele>1046.53</ele>
        <time>2021-08-15T05:26:00Z</time>
      </trkpt>
      <trkpt lat="45.54424" lon="2.93877">
        <ele>1046.53</ele>
        <time>2021-08-15T05:26:01Z</time>
      </trkpt>
      <trkpt lat="45.54422" lon="2.93875">
        <ele>1046.53</ele>
        <time>2021-08-15T05:26:02Z</time>
      </trkpt>
      <trkpt lat="45.5442" lon="2.93871">
        <ele>1045.57</ele>
        <time>2021-08-15T05:26:03Z</time>
      </trkpt>
      <trkpt lat="45.54417" lon="2.93867">
        <ele>1045.09</ele>
        <time>2021-08-15T05:26:04Z</time>
      </trkpt>
      <trkpt lat="45.54398" lon="2.93844">
        <ele>1041.73</ele>
        <time>2021-08-15T05:26:10Z</time>
      </trkpt>
      <trkpt lat="45.5437" lon="2.93817">
        <ele>1038.84</ele>
        <time>2021-08-15T05:26:17Z</time>
      </trkpt>
      <trkpt lat="45.54344" lon="2.93787">
        <ele>1035.48</ele>
        <time>2021-08-15T05:26:23Z</time>
      </trkpt>
      <trkpt lat="45.5434" lon="2.93781">
        <ele>1035</ele>
        <time>2021-08-15T05:26:24Z</time>
      </trkpt>
      <trkpt lat="45.54332" lon="2.93767">
        <ele>1033.55</ele>
        <time>2021-08-15T05:26:26Z</time>
      </trkpt>
      <trkpt lat="45.54329" lon="2.93759">
        <ele>1033.55</ele>
        <time>2021-08-15T05:26:27Z</time>
      </trkpt>
      <trkpt lat="45.54321" lon="2.93743">
        <ele>1032.11</ele>
        <time>2021-08-15T05:26:29Z</time>
      </trkpt>
      <trkpt lat="45.54316" lon="2.93735">
        <ele>1031.63</ele>
        <time>2021-08-15T05:26:30Z</time>
      </trkpt>
      <trkpt lat="45.54312" lon="2.93728">
        <ele>1031.15</ele>
        <time>2021-08-15T05:26:31Z</time>
      </trkpt>
      <trkpt lat="45.54303" lon="2.93713">
        <ele>1030.67</ele>
        <time>2021-08-15T05:26:33Z</time>
      </trkpt>
      <trkpt lat="45.5427" lon="2.93666">
        <ele>1029.71</ele>
        <time>2021-08-15T05:26:40Z</time>
      </trkpt>
      <trkpt lat="45.54267" lon="2.93659">
        <ele>1029.71</ele>
        <time>2021-08-15T05:26:41Z</time>
      </trkpt>
      <trkpt lat="45.54264" lon="2.93651">
        <ele>1029.23</ele>
        <time>2021-08-15T05:26:42Z</time>
      </trkpt>
      <trkpt lat="45.54256" lon="2.93629">
        <ele>1027.31</ele>
        <time>2021-08-15T05:26:45Z</time>
      </trkpt>
      <trkpt lat="45.54252" lon="2.93622">
        <ele>1026.83</ele>
        <time>2021-08-15T05:26:46Z</time>
      </trkpt>
      <trkpt lat="45.54241" lon="2.93602">
        <ele>1025.38</ele>
        <time>2021-08-15T05:26:49Z</time>
      </trkpt>
      <trkpt lat="45.54238" lon="2.93595">
        <ele>1025.38</ele>
        <time>2021-08-15T05:26:50Z</time>
      </trkpt>
      <trkpt lat="45.54227" lon="2.9356">
        <ele>1022.98</ele>
        <time>2021-08-15T05:26:56Z</time>
      </trkpt>
      <trkpt lat="45.54218" lon="2.93534">
        <ele>1020.58</ele>
        <time>2021-08-15T05:27:01Z</time>
      </trkpt>
      <trkpt lat="45.54213" lon="2.93523">
        <ele>1019.13</ele>
        <time>2021-08-15T05:27:03Z</time>
      </trkpt>
      <trkpt lat="45.54208" lon="2.93509">
        <ele>1018.17</ele>
        <time>2021-08-15T05:27:05Z</time>
      </trkpt>
      <trkpt lat="45.54205" lon="2.93502">
        <ele>1017.69</ele>
        <time>2021-08-15T05:27:06Z</time>
      </trkpt>
      <trkpt lat="45.54202" lon="2.93494">
        <ele>1016.73</ele>
        <time>2021-08-15T05:27:07Z</time>
      </trkpt>
      <trkpt lat="45.54198" lon="2.93479">
        <ele>1015.77</ele>
        <time>2021-08-15T05:27:09Z</time>
      </trkpt>
      <trkpt lat="45.54189" lon="2.93456">
        <ele>1015.29</ele>
        <time>2021-08-15T05:27:12Z</time>
      </trkpt>
      <trkpt lat="45.54187" lon="2.93447">
        <ele>1014.33</ele>
        <time>2021-08-15T05:27:13Z</time>
      </trkpt>
      <trkpt lat="45.54183" lon="2.93421">
        <ele>1013.37</ele>
        <time>2021-08-15T05:27:16Z</time>
      </trkpt>
      <trkpt lat="45.54181" lon="2.93413">
        <ele>1013.37</ele>
        <time>2021-08-15T05:27:17Z</time>
      </trkpt>
      <trkpt lat="45.54177" lon="2.934">
        <ele>1013.85</ele>
        <time>2021-08-15T05:27:21Z</time>
      </trkpt>
      <trkpt lat="45.54174" lon="2.93401">
        <ele>1013.85</ele>
        <time>2021-08-15T05:27:37Z</time>
      </trkpt>
      <trkpt lat="45.54174" lon="2.934">
        <ele>1013.85</ele>
        <time>2021-08-15T05:28:00Z</time>
      </trkpt>
      <trkpt lat="45.54173" lon="2.93399">
        <ele>1013.85</ele>
        <time>2021-08-15T05:28:01Z</time>
      </trkpt>
      <trkpt lat="45.54171" lon="2.93398">
        <ele>1013.85</ele>
        <time>2021-08-15T05:28:02Z</time>
      </trkpt>
      <trkpt lat="45.54169" lon="2.93397">
        <ele>1013.85</ele>
        <time>2021-08-15T05:28:03Z</time>
      </trkpt>
      <trkpt lat="45.54166" lon="2.93396">
        <ele>1014.33</ele>
        <time>2021-08-15T05:28:06Z</time>
      </trkpt>
      <trkpt lat="45.54165" lon="2.93397">
        <ele>1014.33</ele>
        <time>2021-08-15T05:28:07Z</time>
      </trkpt>
      <trkpt lat="45.54164" lon="2.93397">
        <ele>1014.33</ele>
        <time>2021-08-15T05:28:08Z</time>
      </trkpt>
      <trkpt lat="45.54155" lon="2.93398">
        <ele>1014.33</ele>
        <time>2021-08-15T05:28:16Z</time>
      </trkpt>
      <trkpt lat="45.5415" lon="2.93398">
        <ele>1015.29</ele>
        <time>2021-08-15T05:28:19Z</time>
      </trkpt>
      <trkpt lat="45.54142" lon="2.934">
        <ele>1015.77</ele>
        <time>2021-08-15T05:28:25Z</time>
      </trkpt>
      <trkpt lat="45.54135" lon="2.93404">
        <ele>1017.21</ele>
        <time>2021-08-15T05:28:33Z</time>
      </trkpt>
      <trkpt lat="45.54128" lon="2.93407">
        <ele>1018.17</ele>
        <time>2021-08-15T05:28:42Z</time>
      </trkpt>
      <trkpt lat="45.54124" lon="2.93413">
        <ele>1019.62</ele>
        <time>2021-08-15T05:28:51Z</time>
      </trkpt>
      <trkpt lat="45.54121" lon="2.93422">
        <ele>1021.06</ele>
        <time>2021-08-15T05:29:00Z</time>
      </trkpt>
      <trkpt lat="45.54119" lon="2.9343">
        <ele>1022.5</ele>
        <time>2021-08-15T05:29:08Z</time>
      </trkpt>
      <trkpt lat="45.54117" lon="2.93441">
        <ele>1023.46</ele>
        <time>2021-08-15T05:29:17Z</time>
      </trkpt>
      <trkpt lat="45.54116" lon="2.9345">
        <ele>1023.94</ele>
        <time>2021-08-15T05:29:27Z</time>
      </trkpt>
      <trkpt lat="45.54116" lon="2.93457">
        <ele>1024.9</ele>
        <time>2021-08-15T05:29:31Z</time>
      </trkpt>
      <trkpt lat="45.54111" lon="2.93477">
        <ele>1027.31</ele>
        <time>2021-08-15T05:29:40Z</time>
      </trkpt>
      <trkpt lat="45.5411" lon="2.93483">
        <ele>1027.31</ele>
        <time>2021-08-15T05:29:42Z</time>
      </trkpt>
      <trkpt lat="45.54104" lon="2.93505">
        <ele>1028.75</ele>
        <time>2021-08-15T05:29:51Z</time>
      </trkpt>
      <trkpt lat="45.54104" lon="2.93508">
        <ele>1029.23</ele>
        <time>2021-08-15T05:29:52Z</time>
      </trkpt>
      <trkpt lat="45.54104" lon="2.9351">
        <ele>1029.23</ele>
        <time>2021-08-15T05:29:53Z</time>
      </trkpt>
      <trkpt lat="45.54104" lon="2.93513">
        <ele>1029.23</ele>
        <time>2021-08-15T05:29:54Z</time>
      </trkpt>
      <trkpt lat="45.54102" lon="2.93535">
        <ele>1030.19</ele>
        <time>2021-08-15T05:30:03Z</time>
      </trkpt>
      <trkpt lat="45.541" lon="2.93554">
        <ele>1031.15</ele>
        <time>2021-08-15T05:30:11Z</time>
      </trkpt>
      <trkpt lat="45.54098" lon="2.93571">
        <ele>1032.59</ele>
        <time>2021-08-15T05:30:19Z</time>
      </trkpt>
      <trkpt lat="45.54097" lon="2.93585">
        <ele>1033.55</ele>
        <time>2021-08-15T05:30:26Z</time>
      </trkpt>
      <trkpt lat="45.54096" lon="2.93599">
        <ele>1034.52</ele>
        <time>2021-08-15T05:30:34Z</time>
      </trkpt>
      <trkpt lat="45.54095" lon="2.93611">
        <ele>1035.96</ele>
        <time>2021-08-15T05:30:42Z</time>
      </trkpt>
      <trkpt lat="45.54094" lon="2.93624">
        <ele>1037.4</ele>
        <time>2021-08-15T05:30:49Z</time>
      </trkpt>
      <trkpt lat="45.54093" lon="2.93636">
        <ele>1038.36</ele>
        <time>2021-08-15T05:30:56Z</time>
      </trkpt>
      <trkpt lat="45.54091" lon="2.93654">
        <ele>1039.32</ele>
        <time>2021-08-15T05:31:04Z</time>
      </trkpt>
      <trkpt lat="45.54089" lon="2.93671">
        <ele>1039.8</ele>
        <time>2021-08-15T05:31:11Z</time>
      </trkpt>
      <trkpt lat="45.54088" lon="2.93689">
        <ele>1041.25</ele>
        <time>2021-08-15T05:31:18Z</time>
      </trkpt>
      <trkpt lat="45.54086" lon="2.93707">
        <ele>1042.21</ele>
        <time>2021-08-15T05:31:25Z</time>
      </trkpt>
      <trkpt lat="45.54084" lon="2.93718">
        <ele>1043.65</ele>
        <time>2021-08-15T05:31:32Z</time>
      </trkpt>
      <trkpt lat="45.54084" lon="2.93729">
        <ele>1044.61</ele>
        <time>2021-08-15T05:31:39Z</time>
      </trkpt>
      <trkpt lat="45.54083" lon="2.93734">
        <ele>1045.09</ele>
        <time>2021-08-15T05:31:42Z</time>
      </trkpt>
      <trkpt lat="45.54082" lon="2.93738">
        <ele>1045.57</ele>
        <time>2021-08-15T05:31:44Z</time>
      </trkpt>
      <trkpt lat="45.54081" lon="2.93739">
        <ele>1045.57</ele>
        <time>2021-08-15T05:31:45Z</time>
      </trkpt>
      <trkpt lat="45.54078" lon="2.93744">
        <ele>1046.53</ele>
        <time>2021-08-15T05:31:51Z</time>
      </trkpt>
      <trkpt lat="45.54077" lon="2.93743">
        <ele>1046.53</ele>
        <time>2021-08-15T05:31:52Z</time>
      </trkpt>
      <trkpt lat="45.54077" lon="2.93742">
        <ele>1046.53</ele>
        <time>2021-08-15T05:31:53Z</time>
      </trkpt>
      <trkpt lat="45.54077" lon="2.93742">
        <ele>1046.53</ele>
        <time>2021-08-15T05:31:54Z</time>
      </trkpt>
      <trkpt lat="45.54076" lon="2.93741">
        <ele>1047.49</ele>
        <time>2021-08-15T05:31:55Z</time>
      </trkpt>
      <trkpt lat="45.54076" lon="2.9374">
        <ele>1047.49</ele>
        <time>2021-08-15T05:31:56Z</time>
      </trkpt>
      <trkpt lat="45.54076" lon="2.93736">
        <ele>1047.97</ele>
        <time>2021-08-15T05:32:00Z</time>
      </trkpt>
      <trkpt lat="45.54075" lon="2.93734">
        <ele>1047.97</ele>
        <time>2021-08-15T05:32:01Z</time>
      </trkpt>
      <trkpt lat="45.54071" lon="2.93708">
        <ele>1048.45</ele>
        <time>2021-08-15T05:32:10Z</time>
      </trkpt>
      <trkpt lat="45.54069" lon="2.93685">
        <ele>1049.42</ele>
        <time>2021-08-15T05:32:18Z</time>
      </trkpt>
      <trkpt lat="45.54067" lon="2.93664">
        <ele>1049.42</ele>
        <time>2021-08-15T05:32:25Z</time>
      </trkpt>
      <trkpt lat="45.54063" lon="2.93638">
        <ele>1049.9</ele>
        <time>2021-08-15T05:32:33Z</time>
      </trkpt>
      <trkpt lat="45.54059" lon="2.93612">
        <ele>1050.38</ele>
        <time>2021-08-15T05:32:39Z</time>
      </trkpt>
      <trkpt lat="45.54053" lon="2.93586">
        <ele>1050.86</ele>
        <time>2021-08-15T05:32:46Z</time>
      </trkpt>
      <trkpt lat="45.5404" lon="2.93574">
        <ele>1051.82</ele>
        <time>2021-08-15T05:32:52Z</time>
      </trkpt>
      <trkpt lat="45.5403" lon="2.93572">
        <ele>1052.3</ele>
        <time>2021-08-15T05:32:59Z</time>
      </trkpt>
      <trkpt lat="45.5402" lon="2.93571">
        <ele>1053.26</ele>
        <time>2021-08-15T05:33:07Z</time>
      </trkpt>
      <trkpt lat="45.54012" lon="2.93572">
        <ele>1054.22</ele>
        <time>2021-08-15T05:33:14Z</time>
      </trkpt>
      <trkpt lat="45.54" lon="2.93574">
        <ele>1054.7</ele>
        <time>2021-08-15T05:33:24Z</time>
      </trkpt>
      <trkpt lat="45.53992" lon="2.93576">
        <ele>1055.67</ele>
        <time>2021-08-15T05:33:32Z</time>
      </trkpt>
      <trkpt lat="45.53987" lon="2.93577">
        <ele>1056.15</ele>
        <time>2021-08-15T05:33:40Z</time>
      </trkpt>
      <trkpt lat="45.53986" lon="2.93578">
        <ele>1056.15</ele>
        <time>2021-08-15T05:33:41Z</time>
      </trkpt>
      <trkpt lat="45.53985" lon="2.93578">
        <ele>1056.63</ele>
        <time>2021-08-15T05:33:42Z</time>
      </trkpt>
      <trkpt lat="45.53972" lon="2.93582">
        <ele>1057.59</ele>
        <time>2021-08-15T05:33:51Z</time>
      </trkpt>
      <trkpt lat="45.53956" lon="2.93587">
        <ele>1058.55</ele>
        <time>2021-08-15T05:34:02Z</time>
      </trkpt>
      <trkpt lat="45.53947" lon="2.93591">
        <ele>1059.51</ele>
        <time>2021-08-15T05:34:09Z</time>
      </trkpt>
      <trkpt lat="45.53931" lon="2.93595">
        <ele>1060.47</ele>
        <time>2021-08-15T05:34:20Z</time>
      </trkpt>
      <trkpt lat="45.53918" lon="2.93601">
        <ele>1061.91</ele>
        <time>2021-08-15T05:34:30Z</time>
      </trkpt>
      <trkpt lat="45.53917" lon="2.93601">
        <ele>1061.91</ele>
        <time>2021-08-15T05:34:31Z</time>
      </trkpt>
      <trkpt lat="45.53916" lon="2.93602">
        <ele>1061.91</ele>
        <time>2021-08-15T05:34:32Z</time>
      </trkpt>
      <trkpt lat="45.53915" lon="2.93602">
        <ele>1061.91</ele>
        <time>2021-08-15T05:34:33Z</time>
      </trkpt>
      <trkpt lat="45.53914" lon="2.93603">
        <ele>1062.87</ele>
        <time>2021-08-15T05:34:34Z</time>
      </trkpt>
      <trkpt lat="45.53911" lon="2.93604">
        <ele>1062.87</ele>
        <time>2021-08-15T05:34:36Z</time>
      </trkpt>
      <trkpt lat="45.53909" lon="2.93604">
        <ele>1062.87</ele>
        <time>2021-08-15T05:34:37Z</time>
      </trkpt>
      <trkpt lat="45.53908" lon="2.93605">
        <ele>1062.87</ele>
        <time>2021-08-15T05:34:38Z</time>
      </trkpt>
      <trkpt lat="45.53906" lon="2.93606">
        <ele>1062.87</ele>
        <time>2021-08-15T05:34:39Z</time>
      </trkpt>
      <trkpt lat="45.53905" lon="2.93606">
        <ele>1063.36</ele>
        <time>2021-08-15T05:34:40Z</time>
      </trkpt>
      <trkpt lat="45.53903" lon="2.93607">
        <ele>1063.36</ele>
        <time>2021-08-15T05:34:41Z</time>
      </trkpt>
      <trkpt lat="45.53902" lon="2.93607">
        <ele>1062.87</ele>
        <time>2021-08-15T05:34:42Z</time>
      </trkpt>
      <trkpt lat="45.53892" lon="2.93613">
        <ele>1063.84</ele>
        <time>2021-08-15T05:34:49Z</time>
      </trkpt>
      <trkpt lat="45.5389" lon="2.93614">
        <ele>1063.84</ele>
        <time>2021-08-15T05:34:50Z</time>
      </trkpt>
      <trkpt lat="45.53889" lon="2.93614">
        <ele>1063.84</ele>
        <time>2021-08-15T05:34:51Z</time>
      </trkpt>
      <trkpt lat="45.53887" lon="2.93615">
        <ele>1063.84</ele>
        <time>2021-08-15T05:34:52Z</time>
      </trkpt>
      <trkpt lat="45.53886" lon="2.93615">
        <ele>1064.32</ele>
        <time>2021-08-15T05:34:53Z</time>
      </trkpt>
      <trkpt lat="45.53884" lon="2.93616">
        <ele>1064.32</ele>
        <time>2021-08-15T05:34:54Z</time>
      </trkpt>
      <trkpt lat="45.53883" lon="2.93617">
        <ele>1064.32</ele>
        <time>2021-08-15T05:34:55Z</time>
      </trkpt>
      <trkpt lat="45.53874" lon="2.93621">
        <ele>1064.8</ele>
        <time>2021-08-15T05:35:01Z</time>
      </trkpt>
      <trkpt lat="45.53873" lon="2.93622">
        <ele>1064.8</ele>
        <time>2021-08-15T05:35:02Z</time>
      </trkpt>
      <trkpt lat="45.53872" lon="2.93623">
        <ele>1064.8</ele>
        <time>2021-08-15T05:35:03Z</time>
      </trkpt>
      <trkpt lat="45.5387" lon="2.93623">
        <ele>1064.8</ele>
        <time>2021-08-15T05:35:04Z</time>
      </trkpt>
      <trkpt lat="45.53869" lon="2.93624">
        <ele>1065.28</ele>
        <time>2021-08-15T05:35:05Z</time>
      </trkpt>
      <trkpt lat="45.53859" lon="2.9363">
        <ele>1065.76</ele>
        <time>2021-08-15T05:35:12Z</time>
      </trkpt>
      <trkpt lat="45.53858" lon="2.93631">
        <ele>1066.24</ele>
        <time>2021-08-15T05:35:13Z</time>
      </trkpt>
      <trkpt lat="45.53857" lon="2.93632">
        <ele>1066.24</ele>
        <time>2021-08-15T05:35:14Z</time>
      </trkpt>
      <trkpt lat="45.53856" lon="2.93633">
        <ele>1066.24</ele>
        <time>2021-08-15T05:35:15Z</time>
      </trkpt>
      <trkpt lat="45.53854" lon="2.93634">
        <ele>1066.72</ele>
        <time>2021-08-15T05:35:16Z</time>
      </trkpt>
      <trkpt lat="45.53853" lon="2.93635">
        <ele>1066.72</ele>
        <time>2021-08-15T05:35:17Z</time>
      </trkpt>
      <trkpt lat="45.53852" lon="2.93636">
        <ele>1066.72</ele>
        <time>2021-08-15T05:35:18Z</time>
      </trkpt>
      <trkpt lat="45.53851" lon="2.93637">
        <ele>1067.2</ele>
        <time>2021-08-15T05:35:19Z</time>
      </trkpt>
      <trkpt lat="45.53841" lon="2.93645">
        <ele>1067.68</ele>
        <time>2021-08-15T05:35:27Z</time>
      </trkpt>
      <trkpt lat="45.5383" lon="2.9365">
        <ele>1068.64</ele>
        <time>2021-08-15T05:35:35Z</time>
      </trkpt>
      <trkpt lat="45.53827" lon="2.9365">
        <ele>1068.64</ele>
        <time>2021-08-15T05:35:37Z</time>
      </trkpt>
      <trkpt lat="45.53826" lon="2.93651">
        <ele>1068.64</ele>
        <time>2021-08-15T05:35:38Z</time>
      </trkpt>
      <trkpt lat="45.53812" lon="2.93653">
        <ele>1069.6</ele>
        <time>2021-08-15T05:35:47Z</time>
      </trkpt>
      <trkpt lat="45.53798" lon="2.93652">
        <ele>1070.57</ele>
        <time>2021-08-15T05:35:56Z</time>
      </trkpt>
      <trkpt lat="45.53787" lon="2.93652">
        <ele>1071.53</ele>
        <time>2021-08-15T05:36:03Z</time>
      </trkpt>
      <trkpt lat="45.53785" lon="2.93652">
        <ele>1071.53</ele>
        <time>2021-08-15T05:36:04Z</time>
      </trkpt>
      <trkpt lat="45.53784" lon="2.93652">
        <ele>1071.53</ele>
        <time>2021-08-15T05:36:05Z</time>
      </trkpt>
      <trkpt lat="45.53765" lon="2.93657">
        <ele>1072.49</ele>
        <time>2021-08-15T05:36:15Z</time>
      </trkpt>
      <trkpt lat="45.53748" lon="2.93664">
        <ele>1072.97</ele>
        <time>2021-08-15T05:36:23Z</time>
      </trkpt>
      <trkpt lat="45.53728" lon="2.93671">
        <ele>1073.93</ele>
        <time>2021-08-15T05:36:33Z</time>
      </trkpt>
      <trkpt lat="45.53715" lon="2.93675">
        <ele>1074.41</ele>
        <time>2021-08-15T05:36:40Z</time>
      </trkpt>
      <trkpt lat="45.53699" lon="2.93679">
        <ele>1075.37</ele>
        <time>2021-08-15T05:36:48Z</time>
      </trkpt>
      <trkpt lat="45.53685" lon="2.93686">
        <ele>1075.37</ele>
        <time>2021-08-15T05:36:56Z</time>
      </trkpt>
      <trkpt lat="45.53672" lon="2.93691">
        <ele>1076.81</ele>
        <time>2021-08-15T05:37:04Z</time>
      </trkpt>
      <trkpt lat="45.5366" lon="2.93695">
        <ele>1077.29</ele>
        <time>2021-08-15T05:37:11Z</time>
      </trkpt>
      <trkpt lat="45.53647" lon="2.93699">
        <ele>1078.74</ele>
        <time>2021-08-15T05:37:19Z</time>
      </trkpt>
      <trkpt lat="45.53631" lon="2.93703">
        <ele>1079.7</ele>
        <time>2021-08-15T05:37:29Z</time>
      </trkpt>
      <trkpt lat="45.53615" lon="2.9371">
        <ele>1081.62</ele>
        <time>2021-08-15T05:37:39Z</time>
      </trkpt>
      <trkpt lat="45.536" lon="2.93714">
        <ele>1082.58</ele>
        <time>2021-08-15T05:37:50Z</time>
      </trkpt>
      <trkpt lat="45.53587" lon="2.93717">
        <ele>1083.54</ele>
        <time>2021-08-15T05:37:59Z</time>
      </trkpt>
      <trkpt lat="45.53577" lon="2.93719">
        <ele>1084.99</ele>
        <time>2021-08-15T05:38:06Z</time>
      </trkpt>
      <trkpt lat="45.53566" lon="2.93722">
        <ele>1085.95</ele>
        <time>2021-08-15T05:38:14Z</time>
      </trkpt>
      <trkpt lat="45.5355" lon="2.93724">
        <ele>1087.39</ele>
        <time>2021-08-15T05:38:25Z</time>
      </trkpt>
      <trkpt lat="45.53538" lon="2.93727">
        <ele>1088.35</ele>
        <time>2021-08-15T05:38:34Z</time>
      </trkpt>
      <trkpt lat="45.53525" lon="2.9373">
        <ele>1089.79</ele>
        <time>2021-08-15T05:38:43Z</time>
      </trkpt>
      <trkpt lat="45.53512" lon="2.93733">
        <ele>1091.23</ele>
        <time>2021-08-15T05:38:52Z</time>
      </trkpt>
      <trkpt lat="45.53511" lon="2.93733">
        <ele>1091.23</ele>
        <time>2021-08-15T05:38:53Z</time>
      </trkpt>
      <trkpt lat="45.53509" lon="2.93733">
        <ele>1091.23</ele>
        <time>2021-08-15T05:38:54Z</time>
      </trkpt>
      <trkpt lat="45.53493" lon="2.93736">
        <ele>1092.68</ele>
        <time>2021-08-15T05:39:05Z</time>
      </trkpt>
      <trkpt lat="45.53491" lon="2.93736">
        <ele>1092.68</ele>
        <time>2021-08-15T05:39:06Z</time>
      </trkpt>
      <trkpt lat="45.5349" lon="2.93736">
        <ele>1092.68</ele>
        <time>2021-08-15T05:39:07Z</time>
      </trkpt>
      <trkpt lat="45.53488" lon="2.93737">
        <ele>1092.68</ele>
        <time>2021-08-15T05:39:08Z</time>
      </trkpt>
      <trkpt lat="45.53474" lon="2.9374">
        <ele>1094.12</ele>
        <time>2021-08-15T05:39:17Z</time>
      </trkpt>
      <trkpt lat="45.53469" lon="2.9374">
        <ele>1094.12</ele>
        <time>2021-08-15T05:39:20Z</time>
      </trkpt>
      <trkpt lat="45.53467" lon="2.9374">
        <ele>1094.6</ele>
        <time>2021-08-15T05:39:21Z</time>
      </trkpt>
      <trkpt lat="45.53466" lon="2.93741">
        <ele>1094.6</ele>
        <time>2021-08-15T05:39:22Z</time>
      </trkpt>
      <trkpt lat="45.53464" lon="2.93741">
        <ele>1094.6</ele>
        <time>2021-08-15T05:39:23Z</time>
      </trkpt>
      <trkpt lat="45.53463" lon="2.93741">
        <ele>1094.6</ele>
        <time>2021-08-15T05:39:24Z</time>
      </trkpt>
      <trkpt lat="45.53455" lon="2.93742">
        <ele>1095.08</ele>
        <time>2021-08-15T05:39:29Z</time>
      </trkpt>
      <trkpt lat="45.5344" lon="2.93742">
        <ele>1096.52</ele>
        <time>2021-08-15T05:39:38Z</time>
      </trkpt>
      <trkpt lat="45.53427" lon="2.93741">
        <ele>1096.52</ele>
        <time>2021-08-15T05:39:46Z</time>
      </trkpt>
      <trkpt lat="45.53415" lon="2.93739">
        <ele>1097</ele>
        <time>2021-08-15T05:39:53Z</time>
      </trkpt>
      <trkpt lat="45.53416" lon="2.9374">
        <ele>1097</ele>
        <time>2021-08-15T05:40:02Z</time>
      </trkpt>
      <trkpt lat="45.53415" lon="2.93739">
        <ele>1097</ele>
        <time>2021-08-15T05:40:15Z</time>
      </trkpt>
      <trkpt lat="45.53416" lon="2.93739">
        <ele>1097</ele>
        <time>2021-08-15T05:40:32Z</time>
      </trkpt>
      <trkpt lat="45.53416" lon="2.93739">
        <ele>1097</ele>
        <time>2021-08-15T05:40:53Z</time>
      </trkpt>
      <trkpt lat="45.53416" lon="2.93739">
        <ele>1097</ele>
        <time>2021-08-15T05:41:11Z</time>
      </trkpt>
      <trkpt lat="45.53416" lon="2.9374">
        <ele>1097.48</ele>
        <time>2021-08-15T05:41:29Z</time>
      </trkpt>
      <trkpt lat="45.53416" lon="2.93739">
        <ele>1097.48</ele>
        <time>2021-08-15T05:41:47Z</time>
      </trkpt>
      <trkpt lat="45.53416" lon="2.9374">
        <ele>1097.48</ele>
        <time>2021-08-15T05:42:02Z</time>
      </trkpt>
      <trkpt lat="45.53416" lon="2.9374">
        <ele>1097.48</ele>
        <time>2021-08-15T05:42:12Z</time>
      </trkpt>
      <trkpt lat="45.53416" lon="2.9374">
        <ele>1097.48</ele>
        <time>2021-08-15T05:42:37Z</time>
      </trkpt>
      <trkpt lat="45.53416" lon="2.93739">
        <ele>1097.48</ele>
        <time>2021-08-15T05:43:01Z</time>
      </trkpt>
      <trkpt lat="45.53417" lon="2.93739">
        <ele>1097.48</ele>
        <time>2021-08-15T05:43:31Z</time>
      </trkpt>
      <trkpt lat="45.53416" lon="2.93739">
        <ele>1097.48</ele>
        <time>2021-08-15T05:43:57Z</time>
      </trkpt>
      <trkpt lat="45.53416" lon="2.93739">
        <ele>1097.48</ele>
        <time>2021-08-15T05:44:20Z</time>
      </trkpt>
      <trkpt lat="45.53417" lon="2.93739">
        <ele>1097.48</ele>
        <time>2021-08-15T05:44:45Z</time>
      </trkpt>
      <trkpt lat="45.53417" lon="2.93739">
        <ele>1097.48</ele>
        <time>2021-08-15T05:45:04Z</time>
      </trkpt>
      <trkpt lat="45.53417" lon="2.9374">
        <ele>1097.48</ele>
        <time>2021-08-15T05:45:22Z</time>
      </trkpt>
      <trkpt lat="45.53417" lon="2.9374">
        <ele>1097.96</ele>
        <time>2021-08-15T05:45:43Z</time>
      </trkpt>
      <trkpt lat="45.53416" lon="2.93739">
        <ele>1097.96</ele>
        <time>2021-08-15T05:46:02Z</time>
      </trkpt>
      <trkpt lat="45.53416" lon="2.93739">
        <ele>1097</ele>
        <time>2021-08-15T05:46:20Z</time>
      </trkpt>
      <trkpt lat="45.53416" lon="2.9374">
        <ele>1097</ele>
        <time>2021-08-15T05:46:45Z</time>
      </trkpt>
      <trkpt lat="45.53415" lon="2.93738">
        <ele>1097</ele>
        <time>2021-08-15T05:47:01Z</time>
      </trkpt>
      <trkpt lat="45.53416" lon="2.93738">
        <ele>1096.52</ele>
        <time>2021-08-15T05:47:20Z</time>
      </trkpt>
      <trkpt lat="45.53416" lon="2.93739">
        <ele>1096.52</ele>
        <time>2021-08-15T05:47:44Z</time>
      </trkpt>
      <trkpt lat="45.53415" lon="2.9374">
        <ele>1096.52</ele>
        <time>2021-08-15T05:48:06Z</time>
      </trkpt>
      <trkpt lat="45.53416" lon="2.93739">
        <ele>1097.48</ele>
        <time>2021-08-15T05:48:31Z</time>
      </trkpt>
      <trkpt lat="45.53416" lon="2.9374">
        <ele>1097.48</ele>
        <time>2021-08-15T05:48:54Z</time>
      </trkpt>
      <trkpt lat="45.53416" lon="2.93739">
        <ele>1097.48</ele>
        <time>2021-08-15T05:49:21Z</time>
      </trkpt>
      <trkpt lat="45.53416" lon="2.9374">
        <ele>1097.48</ele>
        <time>2021-08-15T05:49:40Z</time>
      </trkpt>
      <trkpt lat="45.53417" lon="2.9374">
        <ele>1097.48</ele>
        <time>2021-08-15T05:49:55Z</time>
      </trkpt>
      <trkpt lat="45.53416" lon="2.9374">
        <ele>1097.96</ele>
        <time>2021-08-15T05:50:15Z</time>
      </trkpt>
      <trkpt lat="45.53415" lon="2.9374">
        <ele>1097.96</ele>
        <time>2021-08-15T05:50:33Z</time>
      </trkpt>
      <trkpt lat="45.53416" lon="2.93739">
        <ele>1097.96</ele>
        <time>2021-08-15T05:50:56Z</time>
      </trkpt>
      <trkpt lat="45.53416" lon="2.93739">
        <ele>1097.96</ele>
        <time>2021-08-15T05:51:11Z</time>
      </trkpt>
      <trkpt lat="45.53416" lon="2.93739">
        <ele>1097.96</ele>
        <time>2021-08-15T05:51:33Z</time>
      </trkpt>
      <trkpt lat="45.53416" lon="2.93739">
        <ele>1097.96</ele>
        <time>2021-08-15T05:51:48Z</time>
      </trkpt>
      <trkpt lat="45.53416" lon="2.93739">
        <ele>1097.96</ele>
        <time>2021-08-15T05:52:00Z</time>
      </trkpt>
      <trkpt lat="45.53415" lon="2.93739">
        <ele>1097.96</ele>
        <time>2021-08-15T05:52:10Z</time>
      </trkpt>
      <trkpt lat="45.53416" lon="2.9374">
        <ele>1097.96</ele>
        <time>2021-08-15T05:52:31Z</time>
      </trkpt>
      <trkpt lat="45.53415" lon="2.9374">
        <ele>1097.96</ele>
        <time>2021-08-15T05:52:45Z</time>
      </trkpt>
      <trkpt lat="45.53416" lon="2.9374">
        <ele>1097.96</ele>
        <time>2021-08-15T05:53:06Z</time>
      </trkpt>
      <trkpt lat="45.53416" lon="2.93739">
        <ele>1097.96</ele>
        <time>2021-08-15T05:53:25Z</time>
      </trkpt>
      <trkpt lat="45.53416" lon="2.93739">
        <ele>1096.52</ele>
        <time>2021-08-15T05:53:27Z</time>
      </trkpt>
      <trkpt lat="45.53415" lon="2.9374">
        <ele>1096.52</ele>
        <time>2021-08-15T05:53:50Z</time>
      </trkpt>
      <trkpt lat="45.53416" lon="2.9374">
        <ele>1096.52</ele>
        <time>2021-08-15T05:54:11Z</time>
      </trkpt>
      <trkpt lat="45.53416" lon="2.9374">
        <ele>1096.52</ele>
        <time>2021-08-15T05:54:28Z</time>
      </trkpt>
      <trkpt lat="45.53416" lon="2.9374">
        <ele>1096.04</ele>
        <time>2021-08-15T05:54:43Z</time>
      </trkpt>
      <trkpt lat="45.53416" lon="2.9374">
        <ele>1096.04</ele>
        <time>2021-08-15T05:54:58Z</time>
      </trkpt>
      <trkpt lat="45.53417" lon="2.93739">
        <ele>1096.04</ele>
        <time>2021-08-15T05:55:10Z</time>
      </trkpt>
      <trkpt lat="45.53417" lon="2.93739">
        <ele>1096.04</ele>
        <time>2021-08-15T05:55:22Z</time>
      </trkpt>
      <trkpt lat="45.53416" lon="2.93739">
        <ele>1095.56</ele>
        <time>2021-08-15T05:55:39Z</time>
      </trkpt>
      <trkpt lat="45.53414" lon="2.93739">
        <ele>1095.56</ele>
        <time>2021-08-15T05:55:42Z</time>
      </trkpt>
      <trkpt lat="45.53412" lon="2.93739">
        <ele>1095.56</ele>
        <time>2021-08-15T05:55:43Z</time>
      </trkpt>
      <trkpt lat="45.53411" lon="2.93739">
        <ele>1095.56</ele>
        <time>2021-08-15T05:55:44Z</time>
      </trkpt>
      <trkpt lat="45.53393" lon="2.93736">
        <ele>1095.56</ele>
        <time>2021-08-15T05:55:52Z</time>
      </trkpt>
      <trkpt lat="45.53369" lon="2.93733">
        <ele>1095.56</ele>
        <time>2021-08-15T05:55:59Z</time>
      </trkpt>
      <trkpt lat="45.53345" lon="2.93728">
        <ele>1095.56</ele>
        <time>2021-08-15T05:56:06Z</time>
      </trkpt>
      <trkpt lat="45.53319" lon="2.93726">
        <ele>1095.08</ele>
        <time>2021-08-15T05:56:13Z</time>
      </trkpt>
      <trkpt lat="45.53301" lon="2.93724">
        <ele>1094.6</ele>
        <time>2021-08-15T05:56:17Z</time>
      </trkpt>
      <trkpt lat="45.53296" lon="2.93723">
        <ele>1094.6</ele>
        <time>2021-08-15T05:56:18Z</time>
      </trkpt>
      <trkpt lat="45.53282" lon="2.9372">
        <ele>1094.12</ele>
        <time>2021-08-15T05:56:21Z</time>
      </trkpt>
      <trkpt lat="45.53277" lon="2.93719">
        <ele>1094.12</ele>
        <time>2021-08-15T05:56:22Z</time>
      </trkpt>
      <trkpt lat="45.53272" lon="2.93718">
        <ele>1094.12</ele>
        <time>2021-08-15T05:56:23Z</time>
      </trkpt>
      <trkpt lat="45.53267" lon="2.93717">
        <ele>1093.64</ele>
        <time>2021-08-15T05:56:24Z</time>
      </trkpt>
      <trkpt lat="45.53262" lon="2.93716">
        <ele>1093.64</ele>
        <time>2021-08-15T05:56:25Z</time>
      </trkpt>
      <trkpt lat="45.53258" lon="2.93715">
        <ele>1093.64</ele>
        <time>2021-08-15T05:56:26Z</time>
      </trkpt>
      <trkpt lat="45.53253" lon="2.93714">
        <ele>1093.64</ele>
        <time>2021-08-15T05:56:27Z</time>
      </trkpt>
      <trkpt lat="45.53249" lon="2.93714">
        <ele>1093.64</ele>
        <time>2021-08-15T05:56:28Z</time>
      </trkpt>
      <trkpt lat="45.53245" lon="2.93714">
        <ele>1093.64</ele>
        <time>2021-08-15T05:56:29Z</time>
      </trkpt>
      <trkpt lat="45.53237" lon="2.93712">
        <ele>1093.64</ele>
        <time>2021-08-15T05:56:31Z</time>
      </trkpt>
      <trkpt lat="45.53233" lon="2.9371">
        <ele>1093.64</ele>
        <time>2021-08-15T05:56:32Z</time>
      </trkpt>
      <trkpt lat="45.53224" lon="2.93705">
        <ele>1093.64</ele>
        <time>2021-08-15T05:56:34Z</time>
      </trkpt>
      <trkpt lat="45.53216" lon="2.93703">
        <ele>1093.16</ele>
        <time>2021-08-15T05:56:36Z</time>
      </trkpt>
      <trkpt lat="45.53212" lon="2.93702">
        <ele>1092.68</ele>
        <time>2021-08-15T05:56:37Z</time>
      </trkpt>
      <trkpt lat="45.53186" lon="2.93686">
        <ele>1089.79</ele>
        <time>2021-08-15T05:56:42Z</time>
      </trkpt>
      <trkpt lat="45.53181" lon="2.93682">
        <ele>1089.79</ele>
        <time>2021-08-15T05:56:43Z</time>
      </trkpt>
      <trkpt lat="45.53175" lon="2.93678">
        <ele>1089.31</ele>
        <time>2021-08-15T05:56:44Z</time>
      </trkpt>
      <trkpt lat="45.53124" lon="2.93655">
        <ele>1087.87</ele>
        <time>2021-08-15T05:56:52Z</time>
      </trkpt>
      <trkpt lat="45.53118" lon="2.93654">
        <ele>1087.87</ele>
        <time>2021-08-15T05:56:53Z</time>
      </trkpt>
      <trkpt lat="45.53111" lon="2.93652">
        <ele>1087.87</ele>
        <time>2021-08-15T05:56:54Z</time>
      </trkpt>
      <trkpt lat="45.53105" lon="2.93651">
        <ele>1087.87</ele>
        <time>2021-08-15T05:56:55Z</time>
      </trkpt>
      <trkpt lat="45.53085" lon="2.9365">
        <ele>1087.87</ele>
        <time>2021-08-15T05:56:59Z</time>
      </trkpt>
      <trkpt lat="45.53082" lon="2.93649">
        <ele>1087.87</ele>
        <time>2021-08-15T05:57:00Z</time>
      </trkpt>
      <trkpt lat="45.53077" lon="2.93648">
        <ele>1087.87</ele>
        <time>2021-08-15T05:57:01Z</time>
      </trkpt>
      <trkpt lat="45.53069" lon="2.93649">
        <ele>1089.31</ele>
        <time>2021-08-15T05:57:03Z</time>
      </trkpt>
      <trkpt lat="45.53039" lon="2.93651">
        <ele>1089.31</ele>
        <time>2021-08-15T05:57:10Z</time>
      </trkpt>
      <trkpt lat="45.53035" lon="2.93651">
        <ele>1089.31</ele>
        <time>2021-08-15T05:57:11Z</time>
      </trkpt>
      <trkpt lat="45.53031" lon="2.9365">
        <ele>1089.31</ele>
        <time>2021-08-15T05:57:12Z</time>
      </trkpt>
      <trkpt lat="45.52998" lon="2.9365">
        <ele>1089.79</ele>
        <time>2021-08-15T05:57:21Z</time>
      </trkpt>
      <trkpt lat="45.52975" lon="2.93649">
        <ele>1089.79</ele>
        <time>2021-08-15T05:57:28Z</time>
      </trkpt>
      <trkpt lat="45.52942" lon="2.93644">
        <ele>1087.87</ele>
        <time>2021-08-15T05:57:35Z</time>
      </trkpt>
      <trkpt lat="45.52936" lon="2.93642">
        <ele>1086.91</ele>
        <time>2021-08-15T05:57:36Z</time>
      </trkpt>
      <trkpt lat="45.52929" lon="2.93641">
        <ele>1086.43</ele>
        <time>2021-08-15T05:57:37Z</time>
      </trkpt>
      <trkpt lat="45.52914" lon="2.93639">
        <ele>1084.99</ele>
        <time>2021-08-15T05:57:39Z</time>
      </trkpt>
      <trkpt lat="45.52906" lon="2.93637">
        <ele>1084.02</ele>
        <time>2021-08-15T05:57:40Z</time>
      </trkpt>
      <trkpt lat="45.52874" lon="2.9363">
        <ele>1081.62</ele>
        <time>2021-08-15T05:57:44Z</time>
      </trkpt>
      <trkpt lat="45.52866" lon="2.93631">
        <ele>1081.14</ele>
        <time>2021-08-15T05:57:45Z</time>
      </trkpt>
      <trkpt lat="45.52835" lon="2.93634">
        <ele>1079.7</ele>
        <time>2021-08-15T05:57:49Z</time>
      </trkpt>
      <trkpt lat="45.52829" lon="2.93632">
        <ele>1079.7</ele>
        <time>2021-08-15T05:57:50Z</time>
      </trkpt>
      <trkpt lat="45.52815" lon="2.93626">
        <ele>1078.26</ele>
        <time>2021-08-15T05:57:52Z</time>
      </trkpt>
      <trkpt lat="45.52809" lon="2.93622">
        <ele>1077.29</ele>
        <time>2021-08-15T05:57:53Z</time>
      </trkpt>
      <trkpt lat="45.52783" lon="2.93599">
        <ele>1075.37</ele>
        <time>2021-08-15T05:57:57Z</time>
      </trkpt>
      <trkpt lat="45.5277" lon="2.93588">
        <ele>1074.89</ele>
        <time>2021-08-15T05:57:59Z</time>
      </trkpt>
      <trkpt lat="45.52764" lon="2.93585">
        <ele>1074.89</ele>
        <time>2021-08-15T05:58:00Z</time>
      </trkpt>
      <trkpt lat="45.52758" lon="2.93584">
        <ele>1074.89</ele>
        <time>2021-08-15T05:58:01Z</time>
      </trkpt>
      <trkpt lat="45.52752" lon="2.93585">
        <ele>1074.89</ele>
        <time>2021-08-15T05:58:02Z</time>
      </trkpt>
      <trkpt lat="45.52746" lon="2.93587">
        <ele>1074.89</ele>
        <time>2021-08-15T05:58:03Z</time>
      </trkpt>
      <trkpt lat="45.52716" lon="2.93596">
        <ele>1074.89</ele>
        <time>2021-08-15T05:58:09Z</time>
      </trkpt>
      <trkpt lat="45.52708" lon="2.936">
        <ele>1076.33</ele>
        <time>2021-08-15T05:58:11Z</time>
      </trkpt>
      <trkpt lat="45.52704" lon="2.93602">
        <ele>1076.33</ele>
        <time>2021-08-15T05:58:12Z</time>
      </trkpt>
      <trkpt lat="45.52684" lon="2.93613">
        <ele>1077.29</ele>
        <time>2021-08-15T05:58:19Z</time>
      </trkpt>
      <trkpt lat="45.52671" lon="2.93623">
        <ele>1079.22</ele>
        <time>2021-08-15T05:58:26Z</time>
      </trkpt>
      <trkpt lat="45.52657" lon="2.9363">
        <ele>1080.18</ele>
        <time>2021-08-15T05:58:34Z</time>
      </trkpt>
      <trkpt lat="45.52644" lon="2.93635">
        <ele>1081.14</ele>
        <time>2021-08-15T05:58:41Z</time>
      </trkpt>
      <trkpt lat="45.52628" lon="2.93639">
        <ele>1081.14</ele>
        <time>2021-08-15T05:58:48Z</time>
      </trkpt>
      <trkpt lat="45.52605" lon="2.93634">
        <ele>1082.1</ele>
        <time>2021-08-15T05:58:56Z</time>
      </trkpt>
      <trkpt lat="45.52577" lon="2.93634">
        <ele>1082.1</ele>
        <time>2021-08-15T05:59:04Z</time>
      </trkpt>
      <trkpt lat="45.52554" lon="2.93637">
        <ele>1082.1</ele>
        <time>2021-08-15T05:59:11Z</time>
      </trkpt>
      <trkpt lat="45.52534" lon="2.93635">
        <ele>1083.06</ele>
        <time>2021-08-15T05:59:19Z</time>
      </trkpt>
      <trkpt lat="45.5252" lon="2.93629">
        <ele>1084.5</ele>
        <time>2021-08-15T05:59:27Z</time>
      </trkpt>
      <trkpt lat="45.52502" lon="2.93628">
        <ele>1085.95</ele>
        <time>2021-08-15T05:59:37Z</time>
      </trkpt>
      <trkpt lat="45.52477" lon="2.93625">
        <ele>1087.87</ele>
        <time>2021-08-15T05:59:49Z</time>
      </trkpt>
      <trkpt lat="45.52452" lon="2.93626">
        <ele>1088.35</ele>
        <time>2021-08-15T06:00:00Z</time>
      </trkpt>
      <trkpt lat="45.52428" lon="2.93627">
        <ele>1089.31</ele>
        <time>2021-08-15T06:00:09Z</time>
      </trkpt>
      <trkpt lat="45.52405" lon="2.93622">
        <ele>1090.27</ele>
        <time>2021-08-15T06:00:17Z</time>
      </trkpt>
      <trkpt lat="45.52396" lon="2.93621">
        <ele>1088.83</ele>
        <time>2021-08-15T06:00:19Z</time>
      </trkpt>
      <trkpt lat="45.52392" lon="2.9362">
        <ele>1088.83</ele>
        <time>2021-08-15T06:00:20Z</time>
      </trkpt>
      <trkpt lat="45.52386" lon="2.93618">
        <ele>1088.35</ele>
        <time>2021-08-15T06:00:21Z</time>
      </trkpt>
      <trkpt lat="45.52336" lon="2.93596">
        <ele>1085.95</ele>
        <time>2021-08-15T06:00:30Z</time>
      </trkpt>
      <trkpt lat="45.52287" lon="2.93576">
        <ele>1084.99</ele>
        <time>2021-08-15T06:00:38Z</time>
      </trkpt>
      <trkpt lat="45.52281" lon="2.93571">
        <ele>1084.99</ele>
        <time>2021-08-15T06:00:39Z</time>
      </trkpt>
      <trkpt lat="45.52276" lon="2.93566">
        <ele>1084.5</ele>
        <time>2021-08-15T06:00:40Z</time>
      </trkpt>
      <trkpt lat="45.5227" lon="2.9356">
        <ele>1083.54</ele>
        <time>2021-08-15T06:00:41Z</time>
      </trkpt>
      <trkpt lat="45.52265" lon="2.93554">
        <ele>1083.06</ele>
        <time>2021-08-15T06:00:42Z</time>
      </trkpt>
      <trkpt lat="45.52261" lon="2.93546">
        <ele>1082.58</ele>
        <time>2021-08-15T06:00:43Z</time>
      </trkpt>
      <trkpt lat="45.52257" lon="2.93538">
        <ele>1082.58</ele>
        <time>2021-08-15T06:00:44Z</time>
      </trkpt>
      <trkpt lat="45.52254" lon="2.93529">
        <ele>1082.58</ele>
        <time>2021-08-15T06:00:45Z</time>
      </trkpt>
      <trkpt lat="45.52252" lon="2.9352">
        <ele>1082.58</ele>
        <time>2021-08-15T06:00:46Z</time>
      </trkpt>
      <trkpt lat="45.5225" lon="2.93512">
        <ele>1082.58</ele>
        <time>2021-08-15T06:00:47Z</time>
      </trkpt>
      <trkpt lat="45.52244" lon="2.93488">
        <ele>1082.58</ele>
        <time>2021-08-15T06:00:50Z</time>
      </trkpt>
      <trkpt lat="45.5224" lon="2.93481">
        <ele>1082.58</ele>
        <time>2021-08-15T06:00:51Z</time>
      </trkpt>
      <trkpt lat="45.52236" lon="2.93474">
        <ele>1082.58</ele>
        <time>2021-08-15T06:00:52Z</time>
      </trkpt>
      <trkpt lat="45.52219" lon="2.9345">
        <ele>1082.58</ele>
        <time>2021-08-15T06:00:56Z</time>
      </trkpt>
      <trkpt lat="45.52215" lon="2.93444">
        <ele>1082.58</ele>
        <time>2021-08-15T06:00:57Z</time>
      </trkpt>
      <trkpt lat="45.52194" lon="2.93415">
        <ele>1082.58</ele>
        <time>2021-08-15T06:01:02Z</time>
      </trkpt>
      <trkpt lat="45.52186" lon="2.93402">
        <ele>1082.58</ele>
        <time>2021-08-15T06:01:04Z</time>
      </trkpt>
      <trkpt lat="45.52182" lon="2.93397">
        <ele>1082.58</ele>
        <time>2021-08-15T06:01:05Z</time>
      </trkpt>
      <trkpt lat="45.52177" lon="2.93392">
        <ele>1082.58</ele>
        <time>2021-08-15T06:01:06Z</time>
      </trkpt>
      <trkpt lat="45.52171" lon="2.93388">
        <ele>1082.58</ele>
        <time>2021-08-15T06:01:07Z</time>
      </trkpt>
      <trkpt lat="45.52165" lon="2.93385">
        <ele>1082.58</ele>
        <time>2021-08-15T06:01:08Z</time>
      </trkpt>
      <trkpt lat="45.52159" lon="2.93383">
        <ele>1082.1</ele>
        <time>2021-08-15T06:01:09Z</time>
      </trkpt>
      <trkpt lat="45.52153" lon="2.93381">
        <ele>1082.1</ele>
        <time>2021-08-15T06:01:10Z</time>
      </trkpt>
      <trkpt lat="45.52146" lon="2.9338">
        <ele>1081.62</ele>
        <time>2021-08-15T06:01:11Z</time>
      </trkpt>
      <trkpt lat="45.52138" lon="2.9338">
        <ele>1081.62</ele>
        <time>2021-08-15T06:01:12Z</time>
      </trkpt>
      <trkpt lat="45.52132" lon="2.93382">
        <ele>1081.14</ele>
        <time>2021-08-15T06:01:13Z</time>
      </trkpt>
      <trkpt lat="45.52125" lon="2.93386">
        <ele>1080.66</ele>
        <time>2021-08-15T06:01:14Z</time>
      </trkpt>
      <trkpt lat="45.52119" lon="2.93392">
        <ele>1080.66</ele>
        <time>2021-08-15T06:01:15Z</time>
      </trkpt>
      <trkpt lat="45.52113" lon="2.93399">
        <ele>1079.7</ele>
        <time>2021-08-15T06:01:16Z</time>
      </trkpt>
      <trkpt lat="45.52109" lon="2.93407">
        <ele>1079.7</ele>
        <time>2021-08-15T06:01:17Z</time>
      </trkpt>
      <trkpt lat="45.52095" lon="2.93437">
        <ele>1079.7</ele>
        <time>2021-08-15T06:01:21Z</time>
      </trkpt>
      <trkpt lat="45.52094" lon="2.93442">
        <ele>1079.7</ele>
        <time>2021-08-15T06:01:22Z</time>
      </trkpt>
      <trkpt lat="45.52093" lon="2.93448">
        <ele>1079.7</ele>
        <time>2021-08-15T06:01:23Z</time>
      </trkpt>
      <trkpt lat="45.52093" lon="2.93453">
        <ele>1079.7</ele>
        <time>2021-08-15T06:01:24Z</time>
      </trkpt>
      <trkpt lat="45.52093" lon="2.93458">
        <ele>1079.22</ele>
        <time>2021-08-15T06:01:25Z</time>
      </trkpt>
      <trkpt lat="45.52093" lon="2.93462">
        <ele>1078.74</ele>
        <time>2021-08-15T06:01:26Z</time>
      </trkpt>
      <trkpt lat="45.52091" lon="2.93465">
        <ele>1077.78</ele>
        <time>2021-08-15T06:01:27Z</time>
      </trkpt>
      <trkpt lat="45.52088" lon="2.93468">
        <ele>1077.78</ele>
        <time>2021-08-15T06:01:28Z</time>
      </trkpt>
      <trkpt lat="45.52085" lon="2.93469">
        <ele>1077.29</ele>
        <time>2021-08-15T06:01:29Z</time>
      </trkpt>
      <trkpt lat="45.52081" lon="2.93468">
        <ele>1076.81</ele>
        <time>2021-08-15T06:01:30Z</time>
      </trkpt>
      <trkpt lat="45.52078" lon="2.93466">
        <ele>1076.33</ele>
        <time>2021-08-15T06:01:31Z</time>
      </trkpt>
      <trkpt lat="45.52075" lon="2.93465">
        <ele>1075.85</ele>
        <time>2021-08-15T06:01:32Z</time>
      </trkpt>
      <trkpt lat="45.52051" lon="2.93463">
        <ele>1072.49</ele>
        <time>2021-08-15T06:01:40Z</time>
      </trkpt>
      <trkpt lat="45.52045" lon="2.93462">
        <ele>1071.53</ele>
        <time>2021-08-15T06:01:42Z</time>
      </trkpt>
      <trkpt lat="45.52025" lon="2.93461">
        <ele>1068.64</ele>
        <time>2021-08-15T06:01:48Z</time>
      </trkpt>
      <trkpt lat="45.51997" lon="2.93456">
        <ele>1066.72</ele>
        <time>2021-08-15T06:01:54Z</time>
      </trkpt>
      <trkpt lat="45.51993" lon="2.93457">
        <ele>1066.72</ele>
        <time>2021-08-15T06:01:55Z</time>
      </trkpt>
      <trkpt lat="45.51989" lon="2.93459">
        <ele>1066.24</ele>
        <time>2021-08-15T06:01:56Z</time>
      </trkpt>
      <trkpt lat="45.51985" lon="2.93463">
        <ele>1066.24</ele>
        <time>2021-08-15T06:01:57Z</time>
      </trkpt>
      <trkpt lat="45.51983" lon="2.93466">
        <ele>1066.24</ele>
        <time>2021-08-15T06:01:58Z</time>
      </trkpt>
      <trkpt lat="45.51981" lon="2.93469">
        <ele>1065.76</ele>
        <time>2021-08-15T06:01:59Z</time>
      </trkpt>
      <trkpt lat="45.51979" lon="2.93472">
        <ele>1065.76</ele>
        <time>2021-08-15T06:02:00Z</time>
      </trkpt>
      <trkpt lat="45.51976" lon="2.93473">
        <ele>1065.76</ele>
        <time>2021-08-15T06:02:01Z</time>
      </trkpt>
      <trkpt lat="45.51973" lon="2.93474">
        <ele>1065.76</ele>
        <time>2021-08-15T06:02:02Z</time>
      </trkpt>
      <trkpt lat="45.51971" lon="2.93473">
        <ele>1064.8</ele>
        <time>2021-08-15T06:02:03Z</time>
      </trkpt>
      <trkpt lat="45.51969" lon="2.9347">
        <ele>1064.8</ele>
        <time>2021-08-15T06:02:04Z</time>
      </trkpt>
      <trkpt lat="45.51967" lon="2.93466">
        <ele>1063.84</ele>
        <time>2021-08-15T06:02:05Z</time>
      </trkpt>
      <trkpt lat="45.51964" lon="2.93461">
        <ele>1063.36</ele>
        <time>2021-08-15T06:02:06Z</time>
      </trkpt>
      <trkpt lat="45.51962" lon="2.93456">
        <ele>1063.36</ele>
        <time>2021-08-15T06:02:07Z</time>
      </trkpt>
      <trkpt lat="45.51961" lon="2.93452">
        <ele>1062.87</ele>
        <time>2021-08-15T06:02:08Z</time>
      </trkpt>
      <trkpt lat="45.51945" lon="2.93425">
        <ele>1059.99</ele>
        <time>2021-08-15T06:02:15Z</time>
      </trkpt>
      <trkpt lat="45.51941" lon="2.93422">
        <ele>1059.51</ele>
        <time>2021-08-15T06:02:16Z</time>
      </trkpt>
      <trkpt lat="45.51938" lon="2.9342">
        <ele>1059.03</ele>
        <time>2021-08-15T06:02:17Z</time>
      </trkpt>
      <trkpt lat="45.51921" lon="2.93409">
        <ele>1056.63</ele>
        <time>2021-08-15T06:02:21Z</time>
      </trkpt>
      <trkpt lat="45.51916" lon="2.93408">
        <ele>1056.15</ele>
        <time>2021-08-15T06:02:22Z</time>
      </trkpt>
      <trkpt lat="45.51901" lon="2.93407">
        <ele>1055.18</ele>
        <time>2021-08-15T06:02:25Z</time>
      </trkpt>
      <trkpt lat="45.51889" lon="2.9341">
        <ele>1054.22</ele>
        <time>2021-08-15T06:02:27Z</time>
      </trkpt>
      <trkpt lat="45.5185" lon="2.93419">
        <ele>1054.22</ele>
        <time>2021-08-15T06:02:34Z</time>
      </trkpt>
      <trkpt lat="45.51827" lon="2.93423">
        <ele>1052.78</ele>
        <time>2021-08-15T06:02:40Z</time>
      </trkpt>
      <trkpt lat="45.51803" lon="2.93428">
        <ele>1049.42</ele>
        <time>2021-08-15T06:02:47Z</time>
      </trkpt>
      <trkpt lat="45.51778" lon="2.9343">
        <ele>1047.49</ele>
        <time>2021-08-15T06:02:54Z</time>
      </trkpt>
      <trkpt lat="45.51762" lon="2.93425">
        <ele>1046.53</ele>
        <time>2021-08-15T06:02:59Z</time>
      </trkpt>
      <trkpt lat="45.51745" lon="2.93412">
        <ele>1045.09</ele>
        <time>2021-08-15T06:03:05Z</time>
      </trkpt>
      <trkpt lat="45.51712" lon="2.93383">
        <ele>1044.13</ele>
        <time>2021-08-15T06:03:13Z</time>
      </trkpt>
      <trkpt lat="45.51676" lon="2.93353">
        <ele>1041.73</ele>
        <time>2021-08-15T06:03:20Z</time>
      </trkpt>
      <trkpt lat="45.51658" lon="2.93335">
        <ele>1041.25</ele>
        <time>2021-08-15T06:03:24Z</time>
      </trkpt>
      <trkpt lat="45.51654" lon="2.9333">
        <ele>1041.25</ele>
        <time>2021-08-15T06:03:25Z</time>
      </trkpt>
      <trkpt lat="45.51651" lon="2.93326">
        <ele>1041.25</ele>
        <time>2021-08-15T06:03:26Z</time>
      </trkpt>
      <trkpt lat="45.51647" lon="2.93324">
        <ele>1043.17</ele>
        <time>2021-08-15T06:03:27Z</time>
      </trkpt>
      <trkpt lat="45.51643" lon="2.93323">
        <ele>1043.17</ele>
        <time>2021-08-15T06:03:28Z</time>
      </trkpt>
      <trkpt lat="45.5164" lon="2.93323">
        <ele>1043.17</ele>
        <time>2021-08-15T06:03:29Z</time>
      </trkpt>
      <trkpt lat="45.51636" lon="2.93323">
        <ele>1043.17</ele>
        <time>2021-08-15T06:03:30Z</time>
      </trkpt>
      <trkpt lat="45.51631" lon="2.93322">
        <ele>1043.17</ele>
        <time>2021-08-15T06:03:31Z</time>
      </trkpt>
      <trkpt lat="45.51626" lon="2.9332">
        <ele>1041.73</ele>
        <time>2021-08-15T06:03:32Z</time>
      </trkpt>
      <trkpt lat="45.51621" lon="2.93318">
        <ele>1041.73</ele>
        <time>2021-08-15T06:03:33Z</time>
      </trkpt>
      <trkpt lat="45.51606" lon="2.93314">
        <ele>1040.76</ele>
        <time>2021-08-15T06:03:37Z</time>
      </trkpt>
      <trkpt lat="45.51591" lon="2.93307">
        <ele>1039.8</ele>
        <time>2021-08-15T06:03:43Z</time>
      </trkpt>
      <trkpt lat="45.51587" lon="2.93303">
        <ele>1039.8</ele>
        <time>2021-08-15T06:03:44Z</time>
      </trkpt>
      <trkpt lat="45.51584" lon="2.93299">
        <ele>1038.84</ele>
        <time>2021-08-15T06:03:45Z</time>
      </trkpt>
      <trkpt lat="45.5158" lon="2.93294">
        <ele>1038.36</ele>
        <time>2021-08-15T06:03:46Z</time>
      </trkpt>
      <trkpt lat="45.51577" lon="2.93288">
        <ele>1038.36</ele>
        <time>2021-08-15T06:03:47Z</time>
      </trkpt>
      <trkpt lat="45.51575" lon="2.93281">
        <ele>1037.4</ele>
        <time>2021-08-15T06:03:48Z</time>
      </trkpt>
      <trkpt lat="45.51573" lon="2.93274">
        <ele>1036.92</ele>
        <time>2021-08-15T06:03:49Z</time>
      </trkpt>
      <trkpt lat="45.51571" lon="2.93266">
        <ele>1036.44</ele>
        <time>2021-08-15T06:03:50Z</time>
      </trkpt>
      <trkpt lat="45.51566" lon="2.9324">
        <ele>1035</ele>
        <time>2021-08-15T06:03:53Z</time>
      </trkpt>
      <trkpt lat="45.51559" lon="2.93199">
        <ele>1031.63</ele>
        <time>2021-08-15T06:03:57Z</time>
      </trkpt>
      <trkpt lat="45.51558" lon="2.93188">
        <ele>1031.63</ele>
        <time>2021-08-15T06:03:58Z</time>
      </trkpt>
      <trkpt lat="45.51553" lon="2.93102">
        <ele>1028.27</ele>
        <time>2021-08-15T06:04:05Z</time>
      </trkpt>
      <trkpt lat="45.51544" lon="2.9305">
        <ele>1025.86</ele>
        <time>2021-08-15T06:04:09Z</time>
      </trkpt>
      <trkpt lat="45.5153" lon="2.92967">
        <ele>1021.54</ele>
        <time>2021-08-15T06:04:15Z</time>
      </trkpt>
      <trkpt lat="45.51527" lon="2.92956">
        <ele>1022.02</ele>
        <time>2021-08-15T06:04:16Z</time>
      </trkpt>
      <trkpt lat="45.51514" lon="2.92918">
        <ele>1021.06</ele>
        <time>2021-08-15T06:04:20Z</time>
      </trkpt>
      <trkpt lat="45.5151" lon="2.92912">
        <ele>1020.58</ele>
        <time>2021-08-15T06:04:21Z</time>
      </trkpt>
      <trkpt lat="45.51505" lon="2.92907">
        <ele>1020.58</ele>
        <time>2021-08-15T06:04:22Z</time>
      </trkpt>
      <trkpt lat="45.515" lon="2.92903">
        <ele>1019.62</ele>
        <time>2021-08-15T06:04:23Z</time>
      </trkpt>
      <trkpt lat="45.51494" lon="2.92899">
        <ele>1019.13</ele>
        <time>2021-08-15T06:04:24Z</time>
      </trkpt>
      <trkpt lat="45.51487" lon="2.92897">
        <ele>1018.65</ele>
        <time>2021-08-15T06:04:25Z</time>
      </trkpt>
      <trkpt lat="45.51479" lon="2.92896">
        <ele>1018.65</ele>
        <time>2021-08-15T06:04:26Z</time>
      </trkpt>
      <trkpt lat="45.51473" lon="2.92898">
        <ele>1018.65</ele>
        <time>2021-08-15T06:04:27Z</time>
      </trkpt>
      <trkpt lat="45.51466" lon="2.929">
        <ele>1018.65</ele>
        <time>2021-08-15T06:04:28Z</time>
      </trkpt>
      <trkpt lat="45.51447" lon="2.92905">
        <ele>1018.65</ele>
        <time>2021-08-15T06:04:31Z</time>
      </trkpt>
      <trkpt lat="45.5144" lon="2.92905">
        <ele>1018.65</ele>
        <time>2021-08-15T06:04:32Z</time>
      </trkpt>
      <trkpt lat="45.51434" lon="2.92904">
        <ele>1018.65</ele>
        <time>2021-08-15T06:04:33Z</time>
      </trkpt>
      <trkpt lat="45.51429" lon="2.92902">
        <ele>1018.17</ele>
        <time>2021-08-15T06:04:34Z</time>
      </trkpt>
      <trkpt lat="45.51423" lon="2.929">
        <ele>1018.17</ele>
        <time>2021-08-15T06:04:35Z</time>
      </trkpt>
      <trkpt lat="45.51418" lon="2.92898">
        <ele>1018.17</ele>
        <time>2021-08-15T06:04:36Z</time>
      </trkpt>
      <trkpt lat="45.51404" lon="2.92893">
        <ele>1018.65</ele>
        <time>2021-08-15T06:04:39Z</time>
      </trkpt>
      <trkpt lat="45.51399" lon="2.92893">
        <ele>1018.65</ele>
        <time>2021-08-15T06:04:40Z</time>
      </trkpt>
      <trkpt lat="45.51395" lon="2.92896">
        <ele>1018.65</ele>
        <time>2021-08-15T06:04:41Z</time>
      </trkpt>
      <trkpt lat="45.51392" lon="2.92902">
        <ele>1018.65</ele>
        <time>2021-08-15T06:04:42Z</time>
      </trkpt>
      <trkpt lat="45.51391" lon="2.92907">
        <ele>1018.65</ele>
        <time>2021-08-15T06:04:43Z</time>
      </trkpt>
      <trkpt lat="45.5139" lon="2.92915">
        <ele>1018.65</ele>
        <time>2021-08-15T06:04:44Z</time>
      </trkpt>
      <trkpt lat="45.51387" lon="2.9294">
        <ele>1018.65</ele>
        <time>2021-08-15T06:04:48Z</time>
      </trkpt>
      <trkpt lat="45.51378" lon="2.92999">
        <ele>1018.65</ele>
        <time>2021-08-15T06:04:58Z</time>
      </trkpt>
      <trkpt lat="45.51377" lon="2.93005">
        <ele>1018.65</ele>
        <time>2021-08-15T06:04:59Z</time>
      </trkpt>
      <trkpt lat="45.51372" lon="2.93045">
        <ele>1018.65</ele>
        <time>2021-08-15T06:05:07Z</time>
      </trkpt>
      <trkpt lat="45.51362" lon="2.93079">
        <ele>1018.65</ele>
        <time>2021-08-15T06:05:14Z</time>
      </trkpt>
      <trkpt lat="45.51356" lon="2.931">
        <ele>1020.58</ele>
        <time>2021-08-15T06:05:20Z</time>
      </trkpt>
      <trkpt lat="45.51349" lon="2.93115">
        <ele>1021.54</ele>
        <time>2021-08-15T06:05:26Z</time>
      </trkpt>
      <trkpt lat="45.51349" lon="2.93118">
        <ele>1021.54</ele>
        <time>2021-08-15T06:05:27Z</time>
      </trkpt>
      <trkpt lat="45.51347" lon="2.93121">
        <ele>1021.54</ele>
        <time>2021-08-15T06:05:28Z</time>
      </trkpt>
      <trkpt lat="45.51346" lon="2.93124">
        <ele>1022.02</ele>
        <time>2021-08-15T06:05:29Z</time>
      </trkpt>
      <trkpt lat="45.51345" lon="2.93126">
        <ele>1022.02</ele>
        <time>2021-08-15T06:05:30Z</time>
      </trkpt>
      <trkpt lat="45.51344" lon="2.93129">
        <ele>1022.5</ele>
        <time>2021-08-15T06:05:31Z</time>
      </trkpt>
      <trkpt lat="45.51342" lon="2.93131">
        <ele>1022.5</ele>
        <time>2021-08-15T06:05:32Z</time>
      </trkpt>
      <trkpt lat="45.51326" lon="2.93145">
        <ele>1023.46</ele>
        <time>2021-08-15T06:05:42Z</time>
      </trkpt>
      <trkpt lat="45.51315" lon="2.93159">
        <ele>1024.42</ele>
        <time>2021-08-15T06:05:49Z</time>
      </trkpt>
      <trkpt lat="45.51314" lon="2.93161">
        <ele>1024.42</ele>
        <time>2021-08-15T06:05:50Z</time>
      </trkpt>
      <trkpt lat="45.51314" lon="2.93163">
        <ele>1024.42</ele>
        <time>2021-08-15T06:05:51Z</time>
      </trkpt>
      <trkpt lat="45.51314" lon="2.93166">
        <ele>1024.42</ele>
        <time>2021-08-15T06:05:52Z</time>
      </trkpt>
      <trkpt lat="45.51313" lon="2.93168">
        <ele>1024.42</ele>
        <time>2021-08-15T06:05:53Z</time>
      </trkpt>
      <trkpt lat="45.5131" lon="2.93183">
        <ele>1024.42</ele>
        <time>2021-08-15T06:06:00Z</time>
      </trkpt>
      <trkpt lat="45.51305" lon="2.93198">
        <ele>1024.9</ele>
        <time>2021-08-15T06:06:07Z</time>
      </trkpt>
      <trkpt lat="45.51299" lon="2.93215">
        <ele>1026.34</ele>
        <time>2021-08-15T06:06:15Z</time>
      </trkpt>
      <trkpt lat="45.51298" lon="2.93217">
        <ele>1026.34</ele>
        <time>2021-08-15T06:06:16Z</time>
      </trkpt>
      <trkpt lat="45.51298" lon="2.93219">
        <ele>1026.83</ele>
        <time>2021-08-15T06:06:17Z</time>
      </trkpt>
      <trkpt lat="45.51297" lon="2.93221">
        <ele>1026.83</ele>
        <time>2021-08-15T06:06:18Z</time>
      </trkpt>
      <trkpt lat="45.51296" lon="2.93223">
        <ele>1026.83</ele>
        <time>2021-08-15T06:06:19Z</time>
      </trkpt>
      <trkpt lat="45.51295" lon="2.93225">
        <ele>1027.31</ele>
        <time>2021-08-15T06:06:20Z</time>
      </trkpt>
      <trkpt lat="45.51293" lon="2.93244">
        <ele>1028.27</ele>
        <time>2021-08-15T06:06:29Z</time>
      </trkpt>
      <trkpt lat="45.51292" lon="2.93249">
        <ele>1029.23</ele>
        <time>2021-08-15T06:06:32Z</time>
      </trkpt>
      <trkpt lat="45.51291" lon="2.9325">
        <ele>1029.23</ele>
        <time>2021-08-15T06:06:33Z</time>
      </trkpt>
      <trkpt lat="45.5129" lon="2.9325">
        <ele>1029.71</ele>
        <time>2021-08-15T06:06:35Z</time>
      </trkpt>
      <trkpt lat="45.51288" lon="2.9325">
        <ele>1029.71</ele>
        <time>2021-08-15T06:06:36Z</time>
      </trkpt>
      <trkpt lat="45.51287" lon="2.93248">
        <ele>1029.71</ele>
        <time>2021-08-15T06:06:37Z</time>
      </trkpt>
      <trkpt lat="45.51286" lon="2.93247">
        <ele>1029.71</ele>
        <time>2021-08-15T06:06:38Z</time>
      </trkpt>
      <trkpt lat="45.51285" lon="2.93246">
        <ele>1029.71</ele>
        <time>2021-08-15T06:06:39Z</time>
      </trkpt>
      <trkpt lat="45.51284" lon="2.93245">
        <ele>1030.19</ele>
        <time>2021-08-15T06:06:40Z</time>
      </trkpt>
      <trkpt lat="45.51283" lon="2.93244">
        <ele>1030.19</ele>
        <time>2021-08-15T06:06:41Z</time>
      </trkpt>
      <trkpt lat="45.51283" lon="2.93242">
        <ele>1030.67</ele>
        <time>2021-08-15T06:06:42Z</time>
      </trkpt>
      <trkpt lat="45.51282" lon="2.93241">
        <ele>1030.67</ele>
        <time>2021-08-15T06:06:43Z</time>
      </trkpt>
      <trkpt lat="45.51281" lon="2.9324">
        <ele>1030.67</ele>
        <time>2021-08-15T06:06:44Z</time>
      </trkpt>
      <trkpt lat="45.5128" lon="2.93239">
        <ele>1030.67</ele>
        <time>2021-08-15T06:06:45Z</time>
      </trkpt>
      <trkpt lat="45.51279" lon="2.93238">
        <ele>1031.15</ele>
        <time>2021-08-15T06:06:46Z</time>
      </trkpt>
      <trkpt lat="45.51278" lon="2.93236">
        <ele>1031.15</ele>
        <time>2021-08-15T06:06:47Z</time>
      </trkpt>
      <trkpt lat="45.51268" lon="2.93231">
        <ele>1032.11</ele>
        <time>2021-08-15T06:06:55Z</time>
      </trkpt>
      <trkpt lat="45.51258" lon="2.93232">
        <ele>1033.55</ele>
        <time>2021-08-15T06:07:02Z</time>
      </trkpt>
      <trkpt lat="45.51246" lon="2.93227">
        <ele>1034.52</ele>
        <time>2021-08-15T06:07:11Z</time>
      </trkpt>
      <trkpt lat="45.51237" lon="2.93224">
        <ele>1035.96</ele>
        <time>2021-08-15T06:07:18Z</time>
      </trkpt>
      <trkpt lat="45.51235" lon="2.93222">
        <ele>1036.44</ele>
        <time>2021-08-15T06:07:22Z</time>
      </trkpt>
      <trkpt lat="45.51233" lon="2.93223">
        <ele>1036.44</ele>
        <time>2021-08-15T06:07:23Z</time>
      </trkpt>
      <trkpt lat="45.51232" lon="2.93226">
        <ele>1036.44</ele>
        <time>2021-08-15T06:07:25Z</time>
      </trkpt>
      <trkpt lat="45.51231" lon="2.93229">
        <ele>1036.44</ele>
        <time>2021-08-15T06:07:26Z</time>
      </trkpt>
      <trkpt lat="45.51231" lon="2.93232">
        <ele>1036.44</ele>
        <time>2021-08-15T06:07:27Z</time>
      </trkpt>
      <trkpt lat="45.5123" lon="2.93234">
        <ele>1036.44</ele>
        <time>2021-08-15T06:07:28Z</time>
      </trkpt>
      <trkpt lat="45.51225" lon="2.93252">
        <ele>1036.92</ele>
        <time>2021-08-15T06:07:35Z</time>
      </trkpt>
      <trkpt lat="45.51221" lon="2.93275">
        <ele>1036.92</ele>
        <time>2021-08-15T06:07:42Z</time>
      </trkpt>
      <trkpt lat="45.5122" lon="2.933">
        <ele>1036.92</ele>
        <time>2021-08-15T06:07:51Z</time>
      </trkpt>
      <trkpt lat="45.5122" lon="2.93303">
        <ele>1036.92</ele>
        <time>2021-08-15T06:07:58Z</time>
      </trkpt>
      <trkpt lat="45.51219" lon="2.93305">
        <ele>1036.92</ele>
        <time>2021-08-15T06:08:01Z</time>
      </trkpt>
      <trkpt lat="45.51221" lon="2.93311">
        <ele>1036.92</ele>
        <time>2021-08-15T06:08:07Z</time>
      </trkpt>
      <trkpt lat="45.51222" lon="2.93315">
        <ele>1037.4</ele>
        <time>2021-08-15T06:08:16Z</time>
      </trkpt>
      <trkpt lat="45.51223" lon="2.9332">
        <ele>1037.4</ele>
        <time>2021-08-15T06:08:25Z</time>
      </trkpt>
      <trkpt lat="45.51228" lon="2.93332">
        <ele>1035.96</ele>
        <time>2021-08-15T06:08:33Z</time>
      </trkpt>
      <trkpt lat="45.51228" lon="2.93335">
        <ele>1035.48</ele>
        <time>2021-08-15T06:08:41Z</time>
      </trkpt>
      <trkpt lat="45.51229" lon="2.93335">
        <ele>1035.96</ele>
        <time>2021-08-15T06:08:52Z</time>
      </trkpt>
      <trkpt lat="45.51228" lon="2.93333">
        <ele>1035.96</ele>
        <time>2021-08-15T06:09:11Z</time>
      </trkpt>
      <trkpt lat="45.51228" lon="2.93332">
        <ele>1035.96</ele>
        <time>2021-08-15T06:09:26Z</time>
      </trkpt>
      <trkpt lat="45.51229" lon="2.93332">
        <ele>1035.96</ele>
        <time>2021-08-15T06:09:39Z</time>
      </trkpt>
      <trkpt lat="45.51229" lon="2.9333">
        <ele>1035.96</ele>
        <time>2021-08-15T06:09:49Z</time>
      </trkpt>
      <trkpt lat="45.51225" lon="2.93327">
        <ele>1035.96</ele>
        <time>2021-08-15T06:10:08Z</time>
      </trkpt>
      <trkpt lat="45.51223" lon="2.93325">
        <ele>1035.96</ele>
        <time>2021-08-15T06:10:22Z</time>
      </trkpt>
      <trkpt lat="45.51222" lon="2.93324">
        <ele>1035.96</ele>
        <time>2021-08-15T06:10:34Z</time>
      </trkpt>
      <trkpt lat="45.51222" lon="2.93327">
        <ele>1036.44</ele>
        <time>2021-08-15T06:10:50Z</time>
      </trkpt>
      <trkpt lat="45.51225" lon="2.93331">
        <ele>1036.44</ele>
        <time>2021-08-15T06:11:08Z</time>
      </trkpt>
      <trkpt lat="45.51227" lon="2.93331">
        <ele>1036.44</ele>
        <time>2021-08-15T06:11:20Z</time>
      </trkpt>
      <trkpt lat="45.51228" lon="2.93331">
        <ele>1036.44</ele>
        <time>2021-08-15T06:11:31Z</time>
      </trkpt>
      <trkpt lat="45.5123" lon="2.9333">
        <ele>1036.44</ele>
        <time>2021-08-15T06:11:42Z</time>
      </trkpt>
      <trkpt lat="45.51231" lon="2.93329">
        <ele>1036.92</ele>
        <time>2021-08-15T06:12:03Z</time>
      </trkpt>
      <trkpt lat="45.51231" lon="2.93329">
        <ele>1036.92</ele>
        <time>2021-08-15T06:12:14Z</time>
      </trkpt>
      <trkpt lat="45.51229" lon="2.93328">
        <ele>1036.92</ele>
        <time>2021-08-15T06:12:26Z</time>
      </trkpt>
      <trkpt lat="45.51227" lon="2.93328">
        <ele>1037.4</ele>
        <time>2021-08-15T06:12:40Z</time>
      </trkpt>
      <trkpt lat="45.51225" lon="2.93323">
        <ele>1037.4</ele>
        <time>2021-08-15T06:12:51Z</time>
      </trkpt>
      <trkpt lat="45.51223" lon="2.93319">
        <ele>1037.4</ele>
        <time>2021-08-15T06:13:11Z</time>
      </trkpt>
      <trkpt lat="45.51223" lon="2.93319">
        <ele>1037.88</ele>
        <time>2021-08-15T06:13:30Z</time>
      </trkpt>
      <trkpt lat="45.51226" lon="2.93322">
        <ele>1037.88</ele>
        <time>2021-08-15T06:13:46Z</time>
      </trkpt>
      <trkpt lat="45.51227" lon="2.93322">
        <ele>1038.36</ele>
        <time>2021-08-15T06:14:01Z</time>
      </trkpt>
      <trkpt lat="45.51227" lon="2.93325">
        <ele>1038.36</ele>
        <time>2021-08-15T06:14:16Z</time>
      </trkpt>
      <trkpt lat="45.51225" lon="2.93327">
        <ele>1038.36</ele>
        <time>2021-08-15T06:14:36Z</time>
      </trkpt>
      <trkpt lat="45.51225" lon="2.93325">
        <ele>1038.84</ele>
        <time>2021-08-15T06:14:50Z</time>
      </trkpt>
      <trkpt lat="45.51224" lon="2.93324">
        <ele>1038.84</ele>
        <time>2021-08-15T06:15:01Z</time>
      </trkpt>
      <trkpt lat="45.51224" lon="2.93323">
        <ele>1038.84</ele>
        <time>2021-08-15T06:15:16Z</time>
      </trkpt>
      <trkpt lat="45.51225" lon="2.93322">
        <ele>1038.84</ele>
        <time>2021-08-15T06:15:29Z</time>
      </trkpt>
      <trkpt lat="45.51225" lon="2.93323">
        <ele>1039.32</ele>
        <time>2021-08-15T06:15:47Z</time>
      </trkpt>
      <trkpt lat="45.51224" lon="2.93319">
        <ele>1039.32</ele>
        <time>2021-08-15T06:15:58Z</time>
      </trkpt>
      <trkpt lat="45.51224" lon="2.93319">
        <ele>1039.32</ele>
        <time>2021-08-15T06:16:06Z</time>
      </trkpt>
      <trkpt lat="45.51227" lon="2.93321">
        <ele>1039.8</ele>
        <time>2021-08-15T06:16:24Z</time>
      </trkpt>
      <trkpt lat="45.51228" lon="2.93325">
        <ele>1039.8</ele>
        <time>2021-08-15T06:16:44Z</time>
      </trkpt>
      <trkpt lat="45.51229" lon="2.93325">
        <ele>1039.8</ele>
        <time>2021-08-15T06:16:54Z</time>
      </trkpt>
      <trkpt lat="45.51229" lon="2.93326">
        <ele>1039.8</ele>
        <time>2021-08-15T06:17:07Z</time>
      </trkpt>
      <trkpt lat="45.51228" lon="2.93325">
        <ele>1040.28</ele>
        <time>2021-08-15T06:17:16Z</time>
      </trkpt>
      <trkpt lat="45.51228" lon="2.93325">
        <ele>1040.28</ele>
        <time>2021-08-15T06:17:31Z</time>
      </trkpt>
      <trkpt lat="45.51228" lon="2.93328">
        <ele>1040.28</ele>
        <time>2021-08-15T06:17:45Z</time>
      </trkpt>
      <trkpt lat="45.51228" lon="2.93329">
        <ele>1040.76</ele>
        <time>2021-08-15T06:18:00Z</time>
      </trkpt>
      <trkpt lat="45.51227" lon="2.93329">
        <ele>1040.76</ele>
        <time>2021-08-15T06:18:11Z</time>
      </trkpt>
      <trkpt lat="45.51227" lon="2.93328">
        <ele>1040.76</ele>
        <time>2021-08-15T06:18:26Z</time>
      </trkpt>
      <trkpt lat="45.51228" lon="2.93328">
        <ele>1040.76</ele>
        <time>2021-08-15T06:18:44Z</time>
      </trkpt>
      <trkpt lat="45.51229" lon="2.9333">
        <ele>1041.25</ele>
        <time>2021-08-15T06:19:02Z</time>
      </trkpt>
      <trkpt lat="45.51229" lon="2.93329">
        <ele>1041.25</ele>
        <time>2021-08-15T06:19:15Z</time>
      </trkpt>
      <trkpt lat="45.51228" lon="2.9333">
        <ele>1041.25</ele>
        <time>2021-08-15T06:19:31Z</time>
      </trkpt>
      <trkpt lat="45.51227" lon="2.93331">
        <ele>1041.73</ele>
        <time>2021-08-15T06:19:48Z</time>
      </trkpt>
      <trkpt lat="45.51227" lon="2.93332">
        <ele>1041.25</ele>
        <time>2021-08-15T06:20:03Z</time>
      </trkpt>
      <trkpt lat="45.51228" lon="2.93332">
        <ele>1041.25</ele>
        <time>2021-08-15T06:20:23Z</time>
      </trkpt>
      <trkpt lat="45.51229" lon="2.93331">
        <ele>1041.73</ele>
        <time>2021-08-15T06:20:34Z</time>
      </trkpt>
      <trkpt lat="45.51229" lon="2.93332">
        <ele>1041.73</ele>
        <time>2021-08-15T06:20:55Z</time>
      </trkpt>
      <trkpt lat="45.51228" lon="2.93333">
        <ele>1041.73</ele>
        <time>2021-08-15T06:21:14Z</time>
      </trkpt>
      <trkpt lat="45.51228" lon="2.93333">
        <ele>1041.73</ele>
        <time>2021-08-15T06:21:31Z</time>
      </trkpt>
      <trkpt lat="45.51227" lon="2.93333">
        <ele>1042.21</ele>
        <time>2021-08-15T06:21:44Z</time>
      </trkpt>
      <trkpt lat="45.51227" lon="2.93334">
        <ele>1042.21</ele>
        <time>2021-08-15T06:21:56Z</time>
      </trkpt>
      <trkpt lat="45.51226" lon="2.93334">
        <ele>1042.21</ele>
        <time>2021-08-15T06:21:59Z</time>
      </trkpt>
      <trkpt lat="45.51226" lon="2.93334">
        <ele>1042.21</ele>
        <time>2021-08-15T06:22:00Z</time>
      </trkpt>
      <trkpt lat="45.51222" lon="2.93333">
        <ele>1042.21</ele>
        <time>2021-08-15T06:22:06Z</time>
      </trkpt>
      <trkpt lat="45.51222" lon="2.93333">
        <ele>1042.21</ele>
        <time>2021-08-15T06:22:13Z</time>
      </trkpt>
      <trkpt lat="45.51226" lon="2.93336">
        <ele>1042.21</ele>
        <time>2021-08-15T06:22:28Z</time>
      </trkpt>
      <trkpt lat="45.51226" lon="2.93334">
        <ele>1042.21</ele>
        <time>2021-08-15T06:22:41Z</time>
      </trkpt>
      <trkpt lat="45.51226" lon="2.93334">
        <ele>1043.65</ele>
        <time>2021-08-15T06:22:47Z</time>
      </trkpt>
      <trkpt lat="45.51227" lon="2.93334">
        <ele>1043.65</ele>
        <time>2021-08-15T06:23:03Z</time>
      </trkpt>
      <trkpt lat="45.51227" lon="2.93335">
        <ele>1044.13</ele>
        <time>2021-08-15T06:23:15Z</time>
      </trkpt>
      <trkpt lat="45.51226" lon="2.93335">
        <ele>1044.13</ele>
        <time>2021-08-15T06:23:36Z</time>
      </trkpt>
      <trkpt lat="45.51225" lon="2.93333">
        <ele>1044.13</ele>
        <time>2021-08-15T06:23:54Z</time>
      </trkpt>
      <trkpt lat="45.51224" lon="2.9333">
        <ele>1044.61</ele>
        <time>2021-08-15T06:24:14Z</time>
      </trkpt>
      <trkpt lat="45.51225" lon="2.93332">
        <ele>1044.61</ele>
        <time>2021-08-15T06:24:32Z</time>
      </trkpt>
      <trkpt lat="45.51226" lon="2.93334">
        <ele>1044.61</ele>
        <time>2021-08-15T06:24:46Z</time>
      </trkpt>
      <trkpt lat="45.51225" lon="2.93334">
        <ele>1045.09</ele>
        <time>2021-08-15T06:25:03Z</time>
      </trkpt>
      <trkpt lat="45.51226" lon="2.93332">
        <ele>1045.09</ele>
        <time>2021-08-15T06:25:18Z</time>
      </trkpt>
      <trkpt lat="45.51225" lon="2.93329">
        <ele>1045.09</ele>
        <time>2021-08-15T06:25:39Z</time>
      </trkpt>
      <trkpt lat="45.51225" lon="2.93327">
        <ele>1045.09</ele>
        <time>2021-08-15T06:25:53Z</time>
      </trkpt>
      <trkpt lat="45.51226" lon="2.93325">
        <ele>1045.09</ele>
        <time>2021-08-15T06:26:08Z</time>
      </trkpt>
      <trkpt lat="45.51227" lon="2.93324">
        <ele>1045.09</ele>
        <time>2021-08-15T06:26:18Z</time>
      </trkpt>
      <trkpt lat="45.51228" lon="2.93324">
        <ele>1045.09</ele>
        <time>2021-08-15T06:26:31Z</time>
      </trkpt>
      <trkpt lat="45.51228" lon="2.93324">
        <ele>1045.57</ele>
        <time>2021-08-15T06:26:42Z</time>
      </trkpt>
      <trkpt lat="45.51227" lon="2.93322">
        <ele>1045.57</ele>
        <time>2021-08-15T06:26:50Z</time>
      </trkpt>
      <trkpt lat="45.51228" lon="2.93322">
        <ele>1045.57</ele>
        <time>2021-08-15T06:27:06Z</time>
      </trkpt>
      <trkpt lat="45.51228" lon="2.93322">
        <ele>1045.57</ele>
        <time>2021-08-15T06:27:16Z</time>
      </trkpt>
      <trkpt lat="45.51227" lon="2.93321">
        <ele>1045.57</ele>
        <time>2021-08-15T06:27:25Z</time>
      </trkpt>
      <trkpt lat="45.51225" lon="2.93316">
        <ele>1045.57</ele>
        <time>2021-08-15T06:27:39Z</time>
      </trkpt>
      <trkpt lat="45.51222" lon="2.93314">
        <ele>1046.05</ele>
        <time>2021-08-15T06:27:56Z</time>
      </trkpt>
      <trkpt lat="45.5122" lon="2.93315">
        <ele>1046.05</ele>
        <time>2021-08-15T06:28:16Z</time>
      </trkpt>
      <trkpt lat="45.5122" lon="2.93316">
        <ele>1046.05</ele>
        <time>2021-08-15T06:28:28Z</time>
      </trkpt>
      <trkpt lat="45.51217" lon="2.93313">
        <ele>1046.53</ele>
        <time>2021-08-15T06:28:41Z</time>
      </trkpt>
      <trkpt lat="45.51217" lon="2.93311">
        <ele>1046.53</ele>
        <time>2021-08-15T06:28:58Z</time>
      </trkpt>
      <trkpt lat="45.51215" lon="2.9331">
        <ele>1047.01</ele>
        <time>2021-08-15T06:29:12Z</time>
      </trkpt>
      <trkpt lat="45.51216" lon="2.9331">
        <ele>1047.01</ele>
        <time>2021-08-15T06:29:25Z</time>
      </trkpt>
      <trkpt lat="45.51218" lon="2.93311">
        <ele>1047.01</ele>
        <time>2021-08-15T06:29:36Z</time>
      </trkpt>
      <trkpt lat="45.51222" lon="2.93315">
        <ele>1047.49</ele>
        <time>2021-08-15T06:29:52Z</time>
      </trkpt>
      <trkpt lat="45.51222" lon="2.93317">
        <ele>1047.49</ele>
        <time>2021-08-15T06:30:02Z</time>
      </trkpt>
      <trkpt lat="45.51224" lon="2.93326">
        <ele>1047.97</ele>
        <time>2021-08-15T06:30:18Z</time>
      </trkpt>
      <trkpt lat="45.51223" lon="2.93325">
        <ele>1047.97</ele>
        <time>2021-08-15T06:30:33Z</time>
      </trkpt>
      <trkpt lat="45.51222" lon="2.93323">
        <ele>1047.97</ele>
        <time>2021-08-15T06:30:48Z</time>
      </trkpt>
      <trkpt lat="45.51222" lon="2.93323">
        <ele>1048.45</ele>
        <time>2021-08-15T06:31:02Z</time>
      </trkpt>
      <trkpt lat="45.51222" lon="2.93324">
        <ele>1048.45</ele>
        <time>2021-08-15T06:31:15Z</time>
      </trkpt>
      <trkpt lat="45.51225" lon="2.93326">
        <ele>1048.45</ele>
        <time>2021-08-15T06:31:31Z</time>
      </trkpt>
      <trkpt lat="45.51226" lon="2.93327">
        <ele>1048.94</ele>
        <time>2021-08-15T06:31:44Z</time>
      </trkpt>
      <trkpt lat="45.51225" lon="2.93327">
        <ele>1048.94</ele>
        <time>2021-08-15T06:31:57Z</time>
      </trkpt>
      <trkpt lat="45.51225" lon="2.93326">
        <ele>1048.94</ele>
        <time>2021-08-15T06:32:09Z</time>
      </trkpt>
      <trkpt lat="45.51225" lon="2.93325">
        <ele>1048.94</ele>
        <time>2021-08-15T06:32:23Z</time>
      </trkpt>
      <trkpt lat="45.51225" lon="2.93325">
        <ele>1049.42</ele>
        <time>2021-08-15T06:32:35Z</time>
      </trkpt>
      <trkpt lat="45.51226" lon="2.93324">
        <ele>1049.42</ele>
        <time>2021-08-15T06:32:48Z</time>
      </trkpt>
      <trkpt lat="45.51226" lon="2.93324">
        <ele>1049.42</ele>
        <time>2021-08-15T06:32:59Z</time>
      </trkpt>
      <trkpt lat="45.51226" lon="2.93324">
        <ele>1049.42</ele>
        <time>2021-08-15T06:33:10Z</time>
      </trkpt>
      <trkpt lat="45.51226" lon="2.93327">
        <ele>1049.9</ele>
        <time>2021-08-15T06:33:28Z</time>
      </trkpt>
      <trkpt lat="45.51226" lon="2.93329">
        <ele>1049.9</ele>
        <time>2021-08-15T06:33:39Z</time>
      </trkpt>
      <trkpt lat="45.51227" lon="2.93332">
        <ele>1049.9</ele>
        <time>2021-08-15T06:33:59Z</time>
      </trkpt>
      <trkpt lat="45.51227" lon="2.93334">
        <ele>1049.9</ele>
        <time>2021-08-15T06:34:15Z</time>
      </trkpt>
      <trkpt lat="45.51228" lon="2.93335">
        <ele>1049.9</ele>
        <time>2021-08-15T06:34:27Z</time>
      </trkpt>
      <trkpt lat="45.51228" lon="2.93336">
        <ele>1049.9</ele>
        <time>2021-08-15T06:34:42Z</time>
      </trkpt>
      <trkpt lat="45.51229" lon="2.93336">
        <ele>1050.38</ele>
        <time>2021-08-15T06:34:54Z</time>
      </trkpt>
      <trkpt lat="45.51228" lon="2.93332">
        <ele>1048.94</ele>
        <time>2021-08-15T06:35:11Z</time>
      </trkpt>
      <trkpt lat="45.51228" lon="2.93329">
        <ele>1048.94</ele>
        <time>2021-08-15T06:35:30Z</time>
      </trkpt>
      <trkpt lat="45.51228" lon="2.93329">
        <ele>1049.42</ele>
        <time>2021-08-15T06:35:47Z</time>
      </trkpt>
      <trkpt lat="45.51226" lon="2.93329">
        <ele>1049.42</ele>
        <time>2021-08-15T06:36:03Z</time>
      </trkpt>
      <trkpt lat="45.51226" lon="2.93333">
        <ele>1049.42</ele>
        <time>2021-08-15T06:36:19Z</time>
      </trkpt>
      <trkpt lat="45.51224" lon="2.93334">
        <ele>1049.9</ele>
        <time>2021-08-15T06:36:33Z</time>
      </trkpt>
      <trkpt lat="45.51222" lon="2.93331">
        <ele>1049.9</ele>
        <time>2021-08-15T06:36:43Z</time>
      </trkpt>
      <trkpt lat="45.51222" lon="2.93332">
        <ele>1049.9</ele>
        <time>2021-08-15T06:36:51Z</time>
      </trkpt>
      <trkpt lat="45.51222" lon="2.93332">
        <ele>1049.9</ele>
        <time>2021-08-15T06:37:01Z</time>
      </trkpt>
      <trkpt lat="45.51221" lon="2.93327">
        <ele>1049.9</ele>
        <time>2021-08-15T06:37:14Z</time>
      </trkpt>
      <trkpt lat="45.51225" lon="2.93325">
        <ele>1049.9</ele>
        <time>2021-08-15T06:37:22Z</time>
      </trkpt>
      <trkpt lat="45.51232" lon="2.93329">
        <ele>1049.9</ele>
        <time>2021-08-15T06:37:27Z</time>
      </trkpt>
      <trkpt lat="45.51233" lon="2.93329">
        <ele>1049.9</ele>
        <time>2021-08-15T06:37:28Z</time>
      </trkpt>
      <trkpt lat="45.51235" lon="2.93329">
        <ele>1050.38</ele>
        <time>2021-08-15T06:37:33Z</time>
      </trkpt>
      <trkpt lat="45.51235" lon="2.93331">
        <ele>1050.38</ele>
        <time>2021-08-15T06:37:34Z</time>
      </trkpt>
      <trkpt lat="45.51233" lon="2.93334">
        <ele>1050.38</ele>
        <time>2021-08-15T06:37:40Z</time>
      </trkpt>
      <trkpt lat="45.51231" lon="2.93329">
        <ele>1050.38</ele>
        <time>2021-08-15T06:37:50Z</time>
      </trkpt>
      <trkpt lat="45.51231" lon="2.93328">
        <ele>1050.38</ele>
        <time>2021-08-15T06:38:05Z</time>
      </trkpt>
      <trkpt lat="45.51231" lon="2.93324">
        <ele>1050.38</ele>
        <time>2021-08-15T06:38:09Z</time>
      </trkpt>
      <trkpt lat="45.51231" lon="2.93322">
        <ele>1050.38</ele>
        <time>2021-08-15T06:38:10Z</time>
      </trkpt>
      <trkpt lat="45.51231" lon="2.9332">
        <ele>1050.38</ele>
        <time>2021-08-15T06:38:11Z</time>
      </trkpt>
      <trkpt lat="45.51231" lon="2.93319">
        <ele>1050.38</ele>
        <time>2021-08-15T06:38:12Z</time>
      </trkpt>
      <trkpt lat="45.51231" lon="2.93318">
        <ele>1050.38</ele>
        <time>2021-08-15T06:38:13Z</time>
      </trkpt>
      <trkpt lat="45.51231" lon="2.93317">
        <ele>1050.38</ele>
        <time>2021-08-15T06:38:14Z</time>
      </trkpt>
      <trkpt lat="45.51231" lon="2.93315">
        <ele>1050.38</ele>
        <time>2021-08-15T06:38:15Z</time>
      </trkpt>
      <trkpt lat="45.5123" lon="2.93314">
        <ele>1050.38</ele>
        <time>2021-08-15T06:38:16Z</time>
      </trkpt>
      <trkpt lat="45.5123" lon="2.93312">
        <ele>1050.38</ele>
        <time>2021-08-15T06:38:17Z</time>
      </trkpt>
      <trkpt lat="45.5123" lon="2.93311">
        <ele>1050.38</ele>
        <time>2021-08-15T06:38:18Z</time>
      </trkpt>
      <trkpt lat="45.5123" lon="2.93305">
        <ele>1051.34</ele>
        <time>2021-08-15T06:38:26Z</time>
      </trkpt>
      <trkpt lat="45.5123" lon="2.93305">
        <ele>1051.34</ele>
        <time>2021-08-15T06:38:27Z</time>
      </trkpt>
      <trkpt lat="45.5123" lon="2.93309">
        <ele>1051.34</ele>
        <time>2021-08-15T06:38:36Z</time>
      </trkpt>
      <trkpt lat="45.51231" lon="2.93318">
        <ele>1051.34</ele>
        <time>2021-08-15T06:38:46Z</time>
      </trkpt>
      <trkpt lat="45.51233" lon="2.93321">
        <ele>1051.34</ele>
        <time>2021-08-15T06:39:02Z</time>
      </trkpt>
      <trkpt lat="45.51233" lon="2.93322">
        <ele>1051.34</ele>
        <time>2021-08-15T06:39:14Z</time>
      </trkpt>
      <trkpt lat="45.51231" lon="2.93316">
        <ele>1051.34</ele>
        <time>2021-08-15T06:39:21Z</time>
      </trkpt>
      <trkpt lat="45.51231" lon="2.93318">
        <ele>1051.34</ele>
        <time>2021-08-15T06:39:23Z</time>
      </trkpt>
      <trkpt lat="45.51232" lon="2.9332">
        <ele>1051.34</ele>
        <time>2021-08-15T06:39:24Z</time>
      </trkpt>
      <trkpt lat="45.51233" lon="2.93323">
        <ele>1051.34</ele>
        <time>2021-08-15T06:39:25Z</time>
      </trkpt>
      <trkpt lat="45.51233" lon="2.93326">
        <ele>1051.34</ele>
        <time>2021-08-15T06:39:26Z</time>
      </trkpt>
      <trkpt lat="45.51234" lon="2.93329">
        <ele>1051.34</ele>
        <time>2021-08-15T06:39:27Z</time>
      </trkpt>
      <trkpt lat="45.51239" lon="2.9335">
        <ele>1049.9</ele>
        <time>2021-08-15T06:39:32Z</time>
      </trkpt>
      <trkpt lat="45.51247" lon="2.93362">
        <ele>1048.94</ele>
        <time>2021-08-15T06:39:35Z</time>
      </trkpt>
      <trkpt lat="45.51252" lon="2.93367">
        <ele>1048.94</ele>
        <time>2021-08-15T06:39:37Z</time>
      </trkpt>
      <trkpt lat="45.51253" lon="2.93372">
        <ele>1048.94</ele>
        <time>2021-08-15T06:39:38Z</time>
      </trkpt>
      <trkpt lat="45.51255" lon="2.93398">
        <ele>1048.45</ele>
        <time>2021-08-15T06:39:44Z</time>
      </trkpt>
      <trkpt lat="45.51254" lon="2.93401">
        <ele>1048.45</ele>
        <time>2021-08-15T06:39:45Z</time>
      </trkpt>
      <trkpt lat="45.51252" lon="2.93401">
        <ele>1048.45</ele>
        <time>2021-08-15T06:39:46Z</time>
      </trkpt>
      <trkpt lat="45.51251" lon="2.93403">
        <ele>1048.45</ele>
        <time>2021-08-15T06:39:48Z</time>
      </trkpt>
      <trkpt lat="45.51252" lon="2.93404">
        <ele>1047.97</ele>
        <time>2021-08-15T06:39:49Z</time>
      </trkpt>
      <trkpt lat="45.51253" lon="2.93403">
        <ele>1047.97</ele>
        <time>2021-08-15T06:39:50Z</time>
      </trkpt>
      <trkpt lat="45.51254" lon="2.93402">
        <ele>1047.97</ele>
        <time>2021-08-15T06:39:51Z</time>
      </trkpt>
      <trkpt lat="45.51255" lon="2.93399">
        <ele>1047.97</ele>
        <time>2021-08-15T06:39:52Z</time>
      </trkpt>
      <trkpt lat="45.51256" lon="2.93398">
        <ele>1047.97</ele>
        <time>2021-08-15T06:39:53Z</time>
      </trkpt>
      <trkpt lat="45.51257" lon="2.93398">
        <ele>1047.97</ele>
        <time>2021-08-15T06:39:54Z</time>
      </trkpt>
      <trkpt lat="45.51257" lon="2.93401">
        <ele>1047.97</ele>
        <time>2021-08-15T06:39:58Z</time>
      </trkpt>
      <trkpt lat="45.51256" lon="2.93402">
        <ele>1047.97</ele>
        <time>2021-08-15T06:39:59Z</time>
      </trkpt>
      <trkpt lat="45.51255" lon="2.93403">
        <ele>1047.97</ele>
        <time>2021-08-15T06:40:00Z</time>
      </trkpt>
      <trkpt lat="45.51253" lon="2.93404">
        <ele>1047.97</ele>
        <time>2021-08-15T06:40:01Z</time>
      </trkpt>
      <trkpt lat="45.51252" lon="2.93404">
        <ele>1047.97</ele>
        <time>2021-08-15T06:40:02Z</time>
      </trkpt>
      <trkpt lat="45.51239" lon="2.93407">
        <ele>1047.01</ele>
        <time>2021-08-15T06:40:10Z</time>
      </trkpt>
      <trkpt lat="45.51237" lon="2.93407">
        <ele>1047.01</ele>
        <time>2021-08-15T06:40:13Z</time>
      </trkpt>
      <trkpt lat="45.51237" lon="2.93409">
        <ele>1047.01</ele>
        <time>2021-08-15T06:40:14Z</time>
      </trkpt>
      <trkpt lat="45.51239" lon="2.9341">
        <ele>1047.01</ele>
        <time>2021-08-15T06:40:15Z</time>
      </trkpt>
      <trkpt lat="45.51241" lon="2.9341">
        <ele>1047.01</ele>
        <time>2021-08-15T06:40:16Z</time>
      </trkpt>
      <trkpt lat="45.51243" lon="2.93409">
        <ele>1047.01</ele>
        <time>2021-08-15T06:40:17Z</time>
      </trkpt>
      <trkpt lat="45.51246" lon="2.93407">
        <ele>1047.01</ele>
        <time>2021-08-15T06:40:18Z</time>
      </trkpt>
      <trkpt lat="45.51248" lon="2.93405">
        <ele>1047.01</ele>
        <time>2021-08-15T06:40:20Z</time>
      </trkpt>
      <trkpt lat="45.51256" lon="2.93401">
        <ele>1048.45</ele>
        <time>2021-08-15T06:40:24Z</time>
      </trkpt>
      <trkpt lat="45.51257" lon="2.93398">
        <ele>1048.45</ele>
        <time>2021-08-15T06:40:25Z</time>
      </trkpt>
      <trkpt lat="45.51258" lon="2.93396">
        <ele>1048.45</ele>
        <time>2021-08-15T06:40:26Z</time>
      </trkpt>
      <trkpt lat="45.51259" lon="2.93394">
        <ele>1048.45</ele>
        <time>2021-08-15T06:40:27Z</time>
      </trkpt>
      <trkpt lat="45.5126" lon="2.93392">
        <ele>1048.45</ele>
        <time>2021-08-15T06:40:28Z</time>
      </trkpt>
      <trkpt lat="45.51261" lon="2.93389">
        <ele>1048.94</ele>
        <time>2021-08-15T06:40:34Z</time>
      </trkpt>
      <trkpt lat="45.5126" lon="2.93385">
        <ele>1048.94</ele>
        <time>2021-08-15T06:40:48Z</time>
      </trkpt>
      <trkpt lat="45.51261" lon="2.93383">
        <ele>1048.45</ele>
        <time>2021-08-15T06:41:00Z</time>
      </trkpt>
      <trkpt lat="45.51261" lon="2.93382">
        <ele>1048.45</ele>
        <time>2021-08-15T06:41:13Z</time>
      </trkpt>
      <trkpt lat="45.51261" lon="2.93383">
        <ele>1048.45</ele>
        <time>2021-08-15T06:41:25Z</time>
      </trkpt>
      <trkpt lat="45.51261" lon="2.93384">
        <ele>1048.45</ele>
        <time>2021-08-15T06:41:39Z</time>
      </trkpt>
      <trkpt lat="45.51262" lon="2.93385">
        <ele>1048.45</ele>
        <time>2021-08-15T06:41:54Z</time>
      </trkpt>
      <trkpt lat="45.51262" lon="2.93386">
        <ele>1048.45</ele>
        <time>2021-08-15T06:42:11Z</time>
      </trkpt>
      <trkpt lat="45.5126" lon="2.93384">
        <ele>1048.45</ele>
        <time>2021-08-15T06:42:21Z</time>
      </trkpt>
      <trkpt lat="45.51261" lon="2.93386">
        <ele>1048.45</ele>
        <time>2021-08-15T06:42:34Z</time>
      </trkpt>
      <trkpt lat="45.5126" lon="2.93386">
        <ele>1048.45</ele>
        <time>2021-08-15T06:42:52Z</time>
      </trkpt>
      <trkpt lat="45.51258" lon="2.93386">
        <ele>1048.45</ele>
        <time>2021-08-15T06:43:01Z</time>
      </trkpt>
      <trkpt lat="45.51256" lon="2.93384">
        <ele>1048.45</ele>
        <time>2021-08-15T06:43:10Z</time>
      </trkpt>
      <trkpt lat="45.51255" lon="2.93384">
        <ele>1048.45</ele>
        <time>2021-08-15T06:43:11Z</time>
      </trkpt>
      <trkpt lat="45.51254" lon="2.93384">
        <ele>1048.45</ele>
        <time>2021-08-15T06:43:12Z</time>
      </trkpt>
      <trkpt lat="45.51253" lon="2.93383">
        <ele>1048.45</ele>
        <time>2021-08-15T06:43:13Z</time>
      </trkpt>
      <trkpt lat="45.51252" lon="2.93382">
        <ele>1048.45</ele>
        <time>2021-08-15T06:43:14Z</time>
      </trkpt>
      <trkpt lat="45.51251" lon="2.93379">
        <ele>1048.45</ele>
        <time>2021-08-15T06:43:15Z</time>
      </trkpt>
      <trkpt lat="45.51251" lon="2.93378">
        <ele>1048.45</ele>
        <time>2021-08-15T06:43:16Z</time>
      </trkpt>
      <trkpt lat="45.5125" lon="2.93376">
        <ele>1048.45</ele>
        <time>2021-08-15T06:43:17Z</time>
      </trkpt>
      <trkpt lat="45.5125" lon="2.93374">
        <ele>1048.45</ele>
        <time>2021-08-15T06:43:18Z</time>
      </trkpt>
      <trkpt lat="45.51249" lon="2.93372">
        <ele>1048.45</ele>
        <time>2021-08-15T06:43:19Z</time>
      </trkpt>
      <trkpt lat="45.51248" lon="2.9337">
        <ele>1048.45</ele>
        <time>2021-08-15T06:43:20Z</time>
      </trkpt>
      <trkpt lat="45.51248" lon="2.93367">
        <ele>1048.45</ele>
        <time>2021-08-15T06:43:21Z</time>
      </trkpt>
      <trkpt lat="45.51247" lon="2.93366">
        <ele>1048.45</ele>
        <time>2021-08-15T06:43:22Z</time>
      </trkpt>
      <trkpt lat="45.51245" lon="2.93364">
        <ele>1048.45</ele>
        <time>2021-08-15T06:43:24Z</time>
      </trkpt>
      <trkpt lat="45.51244" lon="2.93364">
        <ele>1048.45</ele>
        <time>2021-08-15T06:43:25Z</time>
      </trkpt>
      <trkpt lat="45.51242" lon="2.93363">
        <ele>1048.45</ele>
        <time>2021-08-15T06:43:26Z</time>
      </trkpt>
      <trkpt lat="45.5124" lon="2.93358">
        <ele>1048.94</ele>
        <time>2021-08-15T06:43:30Z</time>
      </trkpt>
      <trkpt lat="45.5124" lon="2.93355">
        <ele>1048.94</ele>
        <time>2021-08-15T06:43:31Z</time>
      </trkpt>
      <trkpt lat="45.51238" lon="2.93337">
        <ele>1049.9</ele>
        <time>2021-08-15T06:43:40Z</time>
      </trkpt>
      <trkpt lat="45.51234" lon="2.93326">
        <ele>1050.38</ele>
        <time>2021-08-15T06:43:43Z</time>
      </trkpt>
      <trkpt lat="45.51227" lon="2.93305">
        <ele>1050.86</ele>
        <time>2021-08-15T06:43:52Z</time>
      </trkpt>
      <trkpt lat="45.51217" lon="2.93295">
        <ele>1051.82</ele>
        <time>2021-08-15T06:43:59Z</time>
      </trkpt>
      <trkpt lat="45.51204" lon="2.93293">
        <ele>1051.82</ele>
        <time>2021-08-15T06:44:06Z</time>
      </trkpt>
      <trkpt lat="45.51203" lon="2.93292">
        <ele>1051.82</ele>
        <time>2021-08-15T06:44:07Z</time>
      </trkpt>
      <trkpt lat="45.51193" lon="2.93275">
        <ele>1052.78</ele>
        <time>2021-08-15T06:44:17Z</time>
      </trkpt>
      <trkpt lat="45.51182" lon="2.93271">
        <ele>1052.78</ele>
        <time>2021-08-15T06:44:24Z</time>
      </trkpt>
      <trkpt lat="45.51181" lon="2.93268">
        <ele>1052.78</ele>
        <time>2021-08-15T06:44:26Z</time>
      </trkpt>
      <trkpt lat="45.51181" lon="2.9327">
        <ele>1052.78</ele>
        <time>2021-08-15T06:44:31Z</time>
      </trkpt>
      <trkpt lat="45.51181" lon="2.93272">
        <ele>1052.78</ele>
        <time>2021-08-15T06:44:32Z</time>
      </trkpt>
      <trkpt lat="45.51177" lon="2.93276">
        <ele>1052.78</ele>
        <time>2021-08-15T06:44:38Z</time>
      </trkpt>
      <trkpt lat="45.51176" lon="2.93277">
        <ele>1052.78</ele>
        <time>2021-08-15T06:44:39Z</time>
      </trkpt>
      <trkpt lat="45.51175" lon="2.93278">
        <ele>1052.78</ele>
        <time>2021-08-15T06:44:40Z</time>
      </trkpt>
      <trkpt lat="45.51173" lon="2.93279">
        <ele>1052.78</ele>
        <time>2021-08-15T06:44:41Z</time>
      </trkpt>
      <trkpt lat="45.51172" lon="2.9328">
        <ele>1052.78</ele>
        <time>2021-08-15T06:44:42Z</time>
      </trkpt>
      <trkpt lat="45.5117" lon="2.93281">
        <ele>1052.78</ele>
        <time>2021-08-15T06:44:43Z</time>
      </trkpt>
      <trkpt lat="45.51161" lon="2.93285">
        <ele>1051.34</ele>
        <time>2021-08-15T06:44:50Z</time>
      </trkpt>
      <trkpt lat="45.51157" lon="2.93287">
        <ele>1051.34</ele>
        <time>2021-08-15T06:44:58Z</time>
      </trkpt>
      <trkpt lat="45.51155" lon="2.93291">
        <ele>1051.34</ele>
        <time>2021-08-15T06:45:05Z</time>
      </trkpt>
      <trkpt lat="45.51155" lon="2.93295">
        <ele>1051.34</ele>
        <time>2021-08-15T06:45:09Z</time>
      </trkpt>
      <trkpt lat="45.51156" lon="2.93296">
        <ele>1051.34</ele>
        <time>2021-08-15T06:45:10Z</time>
      </trkpt>
      <trkpt lat="45.51164" lon="2.93308">
        <ele>1050.86</ele>
        <time>2021-08-15T06:45:17Z</time>
      </trkpt>
      <trkpt lat="45.51167" lon="2.93313">
        <ele>1050.86</ele>
        <time>2021-08-15T06:45:23Z</time>
      </trkpt>
      <trkpt lat="45.51167" lon="2.93316">
        <ele>1050.86</ele>
        <time>2021-08-15T06:45:38Z</time>
      </trkpt>
      <trkpt lat="45.51166" lon="2.93315">
        <ele>1050.86</ele>
        <time>2021-08-15T06:45:52Z</time>
      </trkpt>
      <trkpt lat="45.51164" lon="2.93317">
        <ele>1050.86</ele>
        <time>2021-08-15T06:46:09Z</time>
      </trkpt>
      <trkpt lat="45.51163" lon="2.93321">
        <ele>1050.86</ele>
        <time>2021-08-15T06:46:26Z</time>
      </trkpt>
      <trkpt lat="45.51162" lon="2.93325">
        <ele>1051.82</ele>
        <time>2021-08-15T06:46:45Z</time>
      </trkpt>
      <trkpt lat="45.51162" lon="2.93324">
        <ele>1051.82</ele>
        <time>2021-08-15T06:47:03Z</time>
      </trkpt>
      <trkpt lat="45.51161" lon="2.93324">
        <ele>1051.82</ele>
        <time>2021-08-15T06:47:07Z</time>
      </trkpt>
      <trkpt lat="45.51161" lon="2.9332">
        <ele>1051.82</ele>
        <time>2021-08-15T06:47:19Z</time>
      </trkpt>
      <trkpt lat="45.51159" lon="2.93318">
        <ele>1051.82</ele>
        <time>2021-08-15T06:47:34Z</time>
      </trkpt>
      <trkpt lat="45.51158" lon="2.93319">
        <ele>1051.82</ele>
        <time>2021-08-15T06:47:49Z</time>
      </trkpt>
      <trkpt lat="45.51158" lon="2.93319">
        <ele>1051.82</ele>
        <time>2021-08-15T06:48:00Z</time>
      </trkpt>
      <trkpt lat="45.51158" lon="2.93319">
        <ele>1051.82</ele>
        <time>2021-08-15T06:48:12Z</time>
      </trkpt>
      <trkpt lat="45.51157" lon="2.93318">
        <ele>1051.82</ele>
        <time>2021-08-15T06:48:13Z</time>
      </trkpt>
      <trkpt lat="45.51159" lon="2.93319">
        <ele>1051.82</ele>
        <time>2021-08-15T06:48:17Z</time>
      </trkpt>
      <trkpt lat="45.51168" lon="2.93329">
        <ele>1051.82</ele>
        <time>2021-08-15T06:48:26Z</time>
      </trkpt>
      <trkpt lat="45.51173" lon="2.93339">
        <ele>1050.86</ele>
        <time>2021-08-15T06:48:34Z</time>
      </trkpt>
      <trkpt lat="45.51175" lon="2.93343">
        <ele>1050.38</ele>
        <time>2021-08-15T06:48:47Z</time>
      </trkpt>
      <trkpt lat="45.51174" lon="2.93342">
        <ele>1050.38</ele>
        <time>2021-08-15T06:48:51Z</time>
      </trkpt>
      <trkpt lat="45.51173" lon="2.93341">
        <ele>1050.38</ele>
        <time>2021-08-15T06:48:52Z</time>
      </trkpt>
      <trkpt lat="45.51172" lon="2.9334">
        <ele>1050.38</ele>
        <time>2021-08-15T06:48:53Z</time>
      </trkpt>
      <trkpt lat="45.51162" lon="2.93322">
        <ele>1051.34</ele>
        <time>2021-08-15T06:49:03Z</time>
      </trkpt>
      <trkpt lat="45.51158" lon="2.93306">
        <ele>1051.34</ele>
        <time>2021-08-15T06:49:10Z</time>
      </trkpt>
      <trkpt lat="45.51147" lon="2.93296">
        <ele>1051.34</ele>
        <time>2021-08-15T06:49:18Z</time>
      </trkpt>
      <trkpt lat="45.51147" lon="2.93293">
        <ele>1051.34</ele>
        <time>2021-08-15T06:49:19Z</time>
      </trkpt>
      <trkpt lat="45.51146" lon="2.93291">
        <ele>1051.34</ele>
        <time>2021-08-15T06:49:20Z</time>
      </trkpt>
      <trkpt lat="45.51146" lon="2.93289">
        <ele>1051.34</ele>
        <time>2021-08-15T06:49:21Z</time>
      </trkpt>
      <trkpt lat="45.51145" lon="2.93286">
        <ele>1051.82</ele>
        <time>2021-08-15T06:49:22Z</time>
      </trkpt>
      <trkpt lat="45.51144" lon="2.93285">
        <ele>1051.82</ele>
        <time>2021-08-15T06:49:23Z</time>
      </trkpt>
      <trkpt lat="45.51142" lon="2.93284">
        <ele>1051.82</ele>
        <time>2021-08-15T06:49:24Z</time>
      </trkpt>
      <trkpt lat="45.51141" lon="2.93283">
        <ele>1051.82</ele>
        <time>2021-08-15T06:49:25Z</time>
      </trkpt>
      <trkpt lat="45.51139" lon="2.93282">
        <ele>1052.3</ele>
        <time>2021-08-15T06:49:26Z</time>
      </trkpt>
      <trkpt lat="45.51125" lon="2.93276">
        <ele>1054.22</ele>
        <time>2021-08-15T06:49:36Z</time>
      </trkpt>
      <trkpt lat="45.51118" lon="2.93274">
        <ele>1054.7</ele>
        <time>2021-08-15T06:49:44Z</time>
      </trkpt>
      <trkpt lat="45.51115" lon="2.93269">
        <ele>1055.67</ele>
        <time>2021-08-15T06:49:48Z</time>
      </trkpt>
      <trkpt lat="45.51112" lon="2.93266">
        <ele>1056.15</ele>
        <time>2021-08-15T06:49:49Z</time>
      </trkpt>
      <trkpt lat="45.5111" lon="2.93262">
        <ele>1056.15</ele>
        <time>2021-08-15T06:49:50Z</time>
      </trkpt>
      <trkpt lat="45.51108" lon="2.93257">
        <ele>1055.67</ele>
        <time>2021-08-15T06:49:51Z</time>
      </trkpt>
      <trkpt lat="45.51108" lon="2.93254">
        <ele>1055.67</ele>
        <time>2021-08-15T06:49:52Z</time>
      </trkpt>
      <trkpt lat="45.51107" lon="2.93252">
        <ele>1056.15</ele>
        <time>2021-08-15T06:49:53Z</time>
      </trkpt>
      <trkpt lat="45.51105" lon="2.93246">
        <ele>1056.63</ele>
        <time>2021-08-15T06:49:55Z</time>
      </trkpt>
      <trkpt lat="45.51104" lon="2.93246">
        <ele>1057.11</ele>
        <time>2021-08-15T06:49:56Z</time>
      </trkpt>
      <trkpt lat="45.51101" lon="2.93247">
        <ele>1057.59</ele>
        <time>2021-08-15T06:50:00Z</time>
      </trkpt>
      <trkpt lat="45.511" lon="2.93247">
        <ele>1057.59</ele>
        <time>2021-08-15T06:50:01Z</time>
      </trkpt>
      <trkpt lat="45.51099" lon="2.93246">
        <ele>1057.59</ele>
        <time>2021-08-15T06:50:02Z</time>
      </trkpt>
      <trkpt lat="45.51098" lon="2.93245">
        <ele>1057.59</ele>
        <time>2021-08-15T06:50:03Z</time>
      </trkpt>
      <trkpt lat="45.51097" lon="2.93245">
        <ele>1057.59</ele>
        <time>2021-08-15T06:50:04Z</time>
      </trkpt>
      <trkpt lat="45.51097" lon="2.93245">
        <ele>1057.59</ele>
        <time>2021-08-15T06:50:05Z</time>
      </trkpt>
      <trkpt lat="45.51083" lon="2.93234">
        <ele>1058.55</ele>
        <time>2021-08-15T06:50:18Z</time>
      </trkpt>
      <trkpt lat="45.51073" lon="2.93219">
        <ele>1059.99</ele>
        <time>2021-08-15T06:50:28Z</time>
      </trkpt>
      <trkpt lat="45.51064" lon="2.93204">
        <ele>1060.95</ele>
        <time>2021-08-15T06:50:38Z</time>
      </trkpt>
      <trkpt lat="45.51061" lon="2.93201">
        <ele>1061.91</ele>
        <time>2021-08-15T06:50:41Z</time>
      </trkpt>
      <trkpt lat="45.51054" lon="2.93192">
        <ele>1062.87</ele>
        <time>2021-08-15T06:50:50Z</time>
      </trkpt>
      <trkpt lat="45.51051" lon="2.93191">
        <ele>1063.36</ele>
        <time>2021-08-15T06:50:53Z</time>
      </trkpt>
      <trkpt lat="45.51048" lon="2.93186">
        <ele>1064.32</ele>
        <time>2021-08-15T06:50:57Z</time>
      </trkpt>
      <trkpt lat="45.51036" lon="2.93168">
        <ele>1064.8</ele>
        <time>2021-08-15T06:51:06Z</time>
      </trkpt>
      <trkpt lat="45.51031" lon="2.93168">
        <ele>1064.8</ele>
        <time>2021-08-15T06:51:08Z</time>
      </trkpt>
      <trkpt lat="45.51029" lon="2.9317">
        <ele>1064.8</ele>
        <time>2021-08-15T06:51:09Z</time>
      </trkpt>
      <trkpt lat="45.51027" lon="2.93172">
        <ele>1064.8</ele>
        <time>2021-08-15T06:51:10Z</time>
      </trkpt>
      <trkpt lat="45.51026" lon="2.93175">
        <ele>1064.8</ele>
        <time>2021-08-15T06:51:11Z</time>
      </trkpt>
      <trkpt lat="45.51024" lon="2.93179">
        <ele>1064.8</ele>
        <time>2021-08-15T06:51:12Z</time>
      </trkpt>
      <trkpt lat="45.51023" lon="2.93183">
        <ele>1064.8</ele>
        <time>2021-08-15T06:51:13Z</time>
      </trkpt>
      <trkpt lat="45.51011" lon="2.93217">
        <ele>1063.36</ele>
        <time>2021-08-15T06:51:21Z</time>
      </trkpt>
      <trkpt lat="45.50995" lon="2.93253">
        <ele>1061.91</ele>
        <time>2021-08-15T06:51:28Z</time>
      </trkpt>
      <trkpt lat="45.50988" lon="2.93273">
        <ele>1061.43</ele>
        <time>2021-08-15T06:51:31Z</time>
      </trkpt>
      <trkpt lat="45.50986" lon="2.93281">
        <ele>1060.95</ele>
        <time>2021-08-15T06:51:32Z</time>
      </trkpt>
      <trkpt lat="45.50984" lon="2.9329">
        <ele>1060.47</ele>
        <time>2021-08-15T06:51:33Z</time>
      </trkpt>
      <trkpt lat="45.50974" lon="2.93364">
        <ele>1057.59</ele>
        <time>2021-08-15T06:51:42Z</time>
      </trkpt>
      <trkpt lat="45.50967" lon="2.93421">
        <ele>1055.67</ele>
        <time>2021-08-15T06:51:50Z</time>
      </trkpt>
      <trkpt lat="45.50965" lon="2.93427">
        <ele>1054.7</ele>
        <time>2021-08-15T06:51:51Z</time>
      </trkpt>
      <trkpt lat="45.50962" lon="2.93432">
        <ele>1054.22</ele>
        <time>2021-08-15T06:51:52Z</time>
      </trkpt>
      <trkpt lat="45.5096" lon="2.93439">
        <ele>1053.74</ele>
        <time>2021-08-15T06:51:53Z</time>
      </trkpt>
      <trkpt lat="45.5096" lon="2.93446">
        <ele>1054.22</ele>
        <time>2021-08-15T06:51:54Z</time>
      </trkpt>
      <trkpt lat="45.50961" lon="2.93451">
        <ele>1054.22</ele>
        <time>2021-08-15T06:51:55Z</time>
      </trkpt>
      <trkpt lat="45.50961" lon="2.93456">
        <ele>1054.22</ele>
        <time>2021-08-15T06:51:56Z</time>
      </trkpt>
      <trkpt lat="45.50962" lon="2.93467">
        <ele>1053.74</ele>
        <time>2021-08-15T06:51:58Z</time>
      </trkpt>
      <trkpt lat="45.50961" lon="2.93528">
        <ele>1050.86</ele>
        <time>2021-08-15T06:52:06Z</time>
      </trkpt>
      <trkpt lat="45.50964" lon="2.93572">
        <ele>1049.9</ele>
        <time>2021-08-15T06:52:12Z</time>
      </trkpt>
      <trkpt lat="45.50967" lon="2.93582">
        <ele>1049.42</ele>
        <time>2021-08-15T06:52:14Z</time>
      </trkpt>
      <trkpt lat="45.5097" lon="2.93584">
        <ele>1049.42</ele>
        <time>2021-08-15T06:52:15Z</time>
      </trkpt>
      <trkpt lat="45.50973" lon="2.93583">
        <ele>1048.94</ele>
        <time>2021-08-15T06:52:16Z</time>
      </trkpt>
      <trkpt lat="45.50976" lon="2.93579">
        <ele>1048.94</ele>
        <time>2021-08-15T06:52:17Z</time>
      </trkpt>
      <trkpt lat="45.50977" lon="2.93575">
        <ele>1048.94</ele>
        <time>2021-08-15T06:52:18Z</time>
      </trkpt>
      <trkpt lat="45.50991" lon="2.93566">
        <ele>1048.94</ele>
        <time>2021-08-15T06:52:23Z</time>
      </trkpt>
      <trkpt lat="45.50999" lon="2.93556">
        <ele>1048.94</ele>
        <time>2021-08-15T06:52:26Z</time>
      </trkpt>
      <trkpt lat="45.51" lon="2.93552">
        <ele>1048.94</ele>
        <time>2021-08-15T06:52:27Z</time>
      </trkpt>
      <trkpt lat="45.51002" lon="2.93547">
        <ele>1048.94</ele>
        <time>2021-08-15T06:52:28Z</time>
      </trkpt>
      <trkpt lat="45.51002" lon="2.93542">
        <ele>1048.94</ele>
        <time>2021-08-15T06:52:29Z</time>
      </trkpt>
      <trkpt lat="45.51002" lon="2.93538">
        <ele>1048.94</ele>
        <time>2021-08-15T06:52:30Z</time>
      </trkpt>
      <trkpt lat="45.51003" lon="2.9353">
        <ele>1050.86</ele>
        <time>2021-08-15T06:52:33Z</time>
      </trkpt>
      <trkpt lat="45.51004" lon="2.93526">
        <ele>1050.86</ele>
        <time>2021-08-15T06:52:36Z</time>
      </trkpt>
      <trkpt lat="45.51003" lon="2.93521">
        <ele>1051.34</ele>
        <time>2021-08-15T06:52:44Z</time>
      </trkpt>
      <trkpt lat="45.51002" lon="2.93525">
        <ele>1051.34</ele>
        <time>2021-08-15T06:52:59Z</time>
      </trkpt>
      <trkpt lat="45.51002" lon="2.93526">
        <ele>1051.34</ele>
        <time>2021-08-15T06:53:15Z</time>
      </trkpt>
      <trkpt lat="45.51" lon="2.93527">
        <ele>1051.34</ele>
        <time>2021-08-15T06:53:28Z</time>
      </trkpt>
      <trkpt lat="45.50998" lon="2.93528">
        <ele>1051.34</ele>
        <time>2021-08-15T06:53:42Z</time>
      </trkpt>
      <trkpt lat="45.50997" lon="2.9353">
        <ele>1050.86</ele>
        <time>2021-08-15T06:53:58Z</time>
      </trkpt>
      <trkpt lat="45.50999" lon="2.93528">
        <ele>1050.86</ele>
        <time>2021-08-15T06:54:14Z</time>
      </trkpt>
      <trkpt lat="45.50998" lon="2.93527">
        <ele>1050.38</ele>
        <time>2021-08-15T06:54:31Z</time>
      </trkpt>
      <trkpt lat="45.50998" lon="2.93528">
        <ele>1050.38</ele>
        <time>2021-08-15T06:54:51Z</time>
      </trkpt>
      <trkpt lat="45.50995" lon="2.93531">
        <ele>1049.9</ele>
        <time>2021-08-15T06:55:03Z</time>
      </trkpt>
      <trkpt lat="45.50993" lon="2.93533">
        <ele>1049.9</ele>
        <time>2021-08-15T06:55:14Z</time>
      </trkpt>
      <trkpt lat="45.50996" lon="2.93531">
        <ele>1049.9</ele>
        <time>2021-08-15T06:55:28Z</time>
      </trkpt>
      <trkpt lat="45.50998" lon="2.93529">
        <ele>1049.42</ele>
        <time>2021-08-15T06:55:45Z</time>
      </trkpt>
      <trkpt lat="45.50999" lon="2.93528">
        <ele>1049.42</ele>
        <time>2021-08-15T06:56:00Z</time>
      </trkpt>
      <trkpt lat="45.50997" lon="2.93529">
        <ele>1048.94</ele>
        <time>2021-08-15T06:56:13Z</time>
      </trkpt>
      <trkpt lat="45.50998" lon="2.93527">
        <ele>1048.94</ele>
        <time>2021-08-15T06:56:25Z</time>
      </trkpt>
      <trkpt lat="45.50997" lon="2.93529">
        <ele>1048.45</ele>
        <time>2021-08-15T06:56:38Z</time>
      </trkpt>
      <trkpt lat="45.50998" lon="2.93527">
        <ele>1048.45</ele>
        <time>2021-08-15T06:56:55Z</time>
      </trkpt>
      <trkpt lat="45.50995" lon="2.93531">
        <ele>1047.97</ele>
        <time>2021-08-15T06:57:13Z</time>
      </trkpt>
      <trkpt lat="45.50992" lon="2.93534">
        <ele>1047.97</ele>
        <time>2021-08-15T06:57:29Z</time>
      </trkpt>
      <trkpt lat="45.50989" lon="2.93535">
        <ele>1047.49</ele>
        <time>2021-08-15T06:57:45Z</time>
      </trkpt>
      <trkpt lat="45.5099" lon="2.93534">
        <ele>1047.49</ele>
        <time>2021-08-15T06:57:58Z</time>
      </trkpt>
      <trkpt lat="45.50992" lon="2.93532">
        <ele>1047.01</ele>
        <time>2021-08-15T06:58:10Z</time>
      </trkpt>
      <trkpt lat="45.50993" lon="2.93532">
        <ele>1047.01</ele>
        <time>2021-08-15T06:58:19Z</time>
      </trkpt>
      <trkpt lat="45.50995" lon="2.9353">
        <ele>1046.53</ele>
        <time>2021-08-15T06:58:30Z</time>
      </trkpt>
      <trkpt lat="45.50996" lon="2.9353">
        <ele>1046.53</ele>
        <time>2021-08-15T06:58:43Z</time>
      </trkpt>
      <trkpt lat="45.50996" lon="2.9353">
        <ele>1046.53</ele>
        <time>2021-08-15T06:59:01Z</time>
      </trkpt>
      <trkpt lat="45.50996" lon="2.93529">
        <ele>1046.05</ele>
        <time>2021-08-15T06:59:19Z</time>
      </trkpt>
      <trkpt lat="45.50997" lon="2.93528">
        <ele>1046.05</ele>
        <time>2021-08-15T06:59:39Z</time>
      </trkpt>
      <trkpt lat="45.50999" lon="2.93525">
        <ele>1045.57</ele>
        <time>2021-08-15T06:59:53Z</time>
      </trkpt>
      <trkpt lat="45.50998" lon="2.93527">
        <ele>1045.57</ele>
        <time>2021-08-15T07:00:08Z</time>
      </trkpt>
      <trkpt lat="45.50992" lon="2.93534">
        <ele>1045.09</ele>
        <time>2021-08-15T07:00:27Z</time>
      </trkpt>
      <trkpt lat="45.50987" lon="2.9354">
        <ele>1045.09</ele>
        <time>2021-08-15T07:00:46Z</time>
      </trkpt>
      <trkpt lat="45.50988" lon="2.93539">
        <ele>1044.61</ele>
        <time>2021-08-15T07:01:09Z</time>
      </trkpt>
      <trkpt lat="45.5099" lon="2.93537">
        <ele>1044.61</ele>
        <time>2021-08-15T07:01:22Z</time>
      </trkpt>
      <trkpt lat="45.50992" lon="2.93535">
        <ele>1044.61</ele>
        <time>2021-08-15T07:01:41Z</time>
      </trkpt>
      <trkpt lat="45.50993" lon="2.93532">
        <ele>1044.13</ele>
        <time>2021-08-15T07:01:53Z</time>
      </trkpt>
      <trkpt lat="45.50993" lon="2.93533">
        <ele>1044.13</ele>
        <time>2021-08-15T07:02:07Z</time>
      </trkpt>
      <trkpt lat="45.50992" lon="2.93536">
        <ele>1044.13</ele>
        <time>2021-08-15T07:02:23Z</time>
      </trkpt>
      <trkpt lat="45.50993" lon="2.93536">
        <ele>1043.65</ele>
        <time>2021-08-15T07:02:38Z</time>
      </trkpt>
      <trkpt lat="45.50992" lon="2.93543">
        <ele>1043.65</ele>
        <time>2021-08-15T07:02:55Z</time>
      </trkpt>
      <trkpt lat="45.50991" lon="2.93544">
        <ele>1043.65</ele>
        <time>2021-08-15T07:03:14Z</time>
      </trkpt>
      <trkpt lat="45.50987" lon="2.93542">
        <ele>1043.65</ele>
        <time>2021-08-15T07:03:18Z</time>
      </trkpt>
      <trkpt lat="45.50988" lon="2.93544">
        <ele>1043.65</ele>
        <time>2021-08-15T07:03:21Z</time>
      </trkpt>
      <trkpt lat="45.50988" lon="2.93544">
        <ele>1043.65</ele>
        <time>2021-08-15T07:03:22Z</time>
      </trkpt>
      <trkpt lat="45.50994" lon="2.93542">
        <ele>1043.17</ele>
        <time>2021-08-15T07:03:27Z</time>
      </trkpt>
      <trkpt lat="45.50996" lon="2.93538">
        <ele>1043.17</ele>
        <time>2021-08-15T07:03:40Z</time>
      </trkpt>
      <trkpt lat="45.50997" lon="2.93534">
        <ele>1043.17</ele>
        <time>2021-08-15T07:03:57Z</time>
      </trkpt>
      <trkpt lat="45.50997" lon="2.93534">
        <ele>1043.17</ele>
        <time>2021-08-15T07:04:08Z</time>
      </trkpt>
      <trkpt lat="45.50999" lon="2.93537">
        <ele>1043.17</ele>
        <time>2021-08-15T07:04:26Z</time>
      </trkpt>
      <trkpt lat="45.50998" lon="2.9354">
        <ele>1043.17</ele>
        <time>2021-08-15T07:04:37Z</time>
      </trkpt>
      <trkpt lat="45.50997" lon="2.93543">
        <ele>1043.17</ele>
        <time>2021-08-15T07:04:47Z</time>
      </trkpt>
      <trkpt lat="45.50995" lon="2.93547">
        <ele>1043.17</ele>
        <time>2021-08-15T07:04:59Z</time>
      </trkpt>
      <trkpt lat="45.50995" lon="2.93546">
        <ele>1043.17</ele>
        <time>2021-08-15T07:05:12Z</time>
      </trkpt>
      <trkpt lat="45.50998" lon="2.93539">
        <ele>1042.69</ele>
        <time>2021-08-15T07:05:29Z</time>
      </trkpt>
      <trkpt lat="45.50999" lon="2.93535">
        <ele>1042.69</ele>
        <time>2021-08-15T07:05:45Z</time>
      </trkpt>
      <trkpt lat="45.50998" lon="2.93538">
        <ele>1042.69</ele>
        <time>2021-08-15T07:05:59Z</time>
      </trkpt>
      <trkpt lat="45.50998" lon="2.93535">
        <ele>1042.69</ele>
        <time>2021-08-15T07:06:10Z</time>
      </trkpt>
      <trkpt lat="45.50998" lon="2.93535">
        <ele>1042.69</ele>
        <time>2021-08-15T07:06:21Z</time>
      </trkpt>
      <trkpt lat="45.50999" lon="2.93532">
        <ele>1042.69</ele>
        <time>2021-08-15T07:06:35Z</time>
      </trkpt>
      <trkpt lat="45.50999" lon="2.93533">
        <ele>1042.69</ele>
        <time>2021-08-15T07:06:49Z</time>
      </trkpt>
      <trkpt lat="45.50998" lon="2.93537">
        <ele>1042.69</ele>
        <time>2021-08-15T07:07:00Z</time>
      </trkpt>
      <trkpt lat="45.51" lon="2.93538">
        <ele>1042.21</ele>
        <time>2021-08-15T07:07:15Z</time>
      </trkpt>
      <trkpt lat="45.51001" lon="2.93542">
        <ele>1042.21</ele>
        <time>2021-08-15T07:07:28Z</time>
      </trkpt>
      <trkpt lat="45.51001" lon="2.93542">
        <ele>1042.21</ele>
        <time>2021-08-15T07:07:41Z</time>
      </trkpt>
      <trkpt lat="45.51002" lon="2.93543">
        <ele>1042.21</ele>
        <time>2021-08-15T07:07:54Z</time>
      </trkpt>
      <trkpt lat="45.51002" lon="2.93545">
        <ele>1042.21</ele>
        <time>2021-08-15T07:08:07Z</time>
      </trkpt>
      <trkpt lat="45.51001" lon="2.93547">
        <ele>1042.21</ele>
        <time>2021-08-15T07:08:20Z</time>
      </trkpt>
      <trkpt lat="45.51001" lon="2.93548">
        <ele>1041.73</ele>
        <time>2021-08-15T07:08:36Z</time>
      </trkpt>
      <trkpt lat="45.51" lon="2.93545">
        <ele>1042.21</ele>
        <time>2021-08-15T07:08:50Z</time>
      </trkpt>
      <trkpt lat="45.50999" lon="2.93543">
        <ele>1042.21</ele>
        <time>2021-08-15T07:09:06Z</time>
      </trkpt>
      <trkpt lat="45.50994" lon="2.93549">
        <ele>1042.21</ele>
        <time>2021-08-15T07:09:23Z</time>
      </trkpt>
      <trkpt lat="45.50998" lon="2.93539">
        <ele>1042.69</ele>
        <time>2021-08-15T07:09:38Z</time>
      </trkpt>
      <trkpt lat="45.50997" lon="2.93542">
        <ele>1042.21</ele>
        <time>2021-08-15T07:09:48Z</time>
      </trkpt>
      <trkpt lat="45.50998" lon="2.93538">
        <ele>1042.21</ele>
        <time>2021-08-15T07:10:04Z</time>
      </trkpt>
      <trkpt lat="45.50999" lon="2.93533">
        <ele>1042.21</ele>
        <time>2021-08-15T07:10:19Z</time>
      </trkpt>
      <trkpt lat="45.51" lon="2.93532">
        <ele>1042.21</ele>
        <time>2021-08-15T07:10:29Z</time>
      </trkpt>
      <trkpt lat="45.51001" lon="2.93532">
        <ele>1041.73</ele>
        <time>2021-08-15T07:10:45Z</time>
      </trkpt>
      <trkpt lat="45.51001" lon="2.93531">
        <ele>1041.73</ele>
        <time>2021-08-15T07:11:01Z</time>
      </trkpt>
      <trkpt lat="45.51" lon="2.9353">
        <ele>1041.73</ele>
        <time>2021-08-15T07:11:16Z</time>
      </trkpt>
      <trkpt lat="45.51" lon="2.93529">
        <ele>1041.73</ele>
        <time>2021-08-15T07:11:25Z</time>
      </trkpt>
      <trkpt lat="45.50998" lon="2.9353">
        <ele>1041.25</ele>
        <time>2021-08-15T07:11:33Z</time>
      </trkpt>
      <trkpt lat="45.50998" lon="2.93528">
        <ele>1041.25</ele>
        <time>2021-08-15T07:11:50Z</time>
      </trkpt>
      <trkpt lat="45.50996" lon="2.93531">
        <ele>1041.25</ele>
        <time>2021-08-15T07:12:05Z</time>
      </trkpt>
      <trkpt lat="45.50995" lon="2.93533">
        <ele>1040.76</ele>
        <time>2021-08-15T07:12:20Z</time>
      </trkpt>
      <trkpt lat="45.50997" lon="2.93532">
        <ele>1040.76</ele>
        <time>2021-08-15T07:12:35Z</time>
      </trkpt>
      <trkpt lat="45.50998" lon="2.93528">
        <ele>1040.76</ele>
        <time>2021-08-15T07:12:42Z</time>
      </trkpt>
      <trkpt lat="45.51002" lon="2.93513">
        <ele>1040.76</ele>
        <time>2021-08-15T07:12:50Z</time>
      </trkpt>
      <trkpt lat="45.51" lon="2.93512">
        <ele>1040.76</ele>
        <time>2021-08-15T07:12:52Z</time>
      </trkpt>
      <trkpt lat="45.50999" lon="2.93508">
        <ele>1039.32</ele>
        <time>2021-08-15T07:12:54Z</time>
      </trkpt>
      <trkpt lat="45.50997" lon="2.935">
        <ele>1039.32</ele>
        <time>2021-08-15T07:12:57Z</time>
      </trkpt>
      <trkpt lat="45.50991" lon="2.93497">
        <ele>1039.32</ele>
        <time>2021-08-15T07:13:00Z</time>
      </trkpt>
      <trkpt lat="45.50989" lon="2.93497">
        <ele>1039.32</ele>
        <time>2021-08-15T07:13:01Z</time>
      </trkpt>
      <trkpt lat="45.50987" lon="2.93497">
        <ele>1039.32</ele>
        <time>2021-08-15T07:13:02Z</time>
      </trkpt>
      <trkpt lat="45.50985" lon="2.93496">
        <ele>1039.32</ele>
        <time>2021-08-15T07:13:03Z</time>
      </trkpt>
      <trkpt lat="45.50983" lon="2.93495">
        <ele>1040.76</ele>
        <time>2021-08-15T07:13:04Z</time>
      </trkpt>
      <trkpt lat="45.50982" lon="2.93493">
        <ele>1040.76</ele>
        <time>2021-08-15T07:13:05Z</time>
      </trkpt>
      <trkpt lat="45.50981" lon="2.93492">
        <ele>1040.76</ele>
        <time>2021-08-15T07:13:06Z</time>
      </trkpt>
      <trkpt lat="45.50977" lon="2.93475">
        <ele>1041.73</ele>
        <time>2021-08-15T07:13:14Z</time>
      </trkpt>
      <trkpt lat="45.5098" lon="2.93461">
        <ele>1042.21</ele>
        <time>2021-08-15T07:13:22Z</time>
      </trkpt>
      <trkpt lat="45.50976" lon="2.93451">
        <ele>1042.21</ele>
        <time>2021-08-15T07:13:28Z</time>
      </trkpt>
      <trkpt lat="45.50976" lon="2.93449">
        <ele>1042.69</ele>
        <time>2021-08-15T07:13:29Z</time>
      </trkpt>
      <trkpt lat="45.5097" lon="2.93432">
        <ele>1044.13</ele>
        <time>2021-08-15T07:13:37Z</time>
      </trkpt>
      <trkpt lat="45.50959" lon="2.93434">
        <ele>1043.17</ele>
        <time>2021-08-15T07:13:43Z</time>
      </trkpt>
      <trkpt lat="45.50956" lon="2.93436">
        <ele>1043.17</ele>
        <time>2021-08-15T07:13:44Z</time>
      </trkpt>
      <trkpt lat="45.50954" lon="2.93439">
        <ele>1043.17</ele>
        <time>2021-08-15T07:13:45Z</time>
      </trkpt>
      <trkpt lat="45.50952" lon="2.93441">
        <ele>1043.17</ele>
        <time>2021-08-15T07:13:46Z</time>
      </trkpt>
      <trkpt lat="45.5094" lon="2.93451">
        <ele>1044.13</ele>
        <time>2021-08-15T07:13:53Z</time>
      </trkpt>
      <trkpt lat="45.50929" lon="2.93453">
        <ele>1045.57</ele>
        <time>2021-08-15T07:14:02Z</time>
      </trkpt>
      <trkpt lat="45.50919" lon="2.93459">
        <ele>1046.05</ele>
        <time>2021-08-15T07:14:09Z</time>
      </trkpt>
      <trkpt lat="45.50917" lon="2.93459">
        <ele>1046.53</ele>
        <time>2021-08-15T07:14:10Z</time>
      </trkpt>
      <trkpt lat="45.50916" lon="2.93459">
        <ele>1043.17</ele>
        <time>2021-08-15T07:14:11Z</time>
      </trkpt>
      <trkpt lat="45.50914" lon="2.9346">
        <ele>1050.38</ele>
        <time>2021-08-15T07:14:12Z</time>
      </trkpt>
      <trkpt lat="45.50913" lon="2.93461">
        <ele>1047.01</ele>
        <time>2021-08-15T07:14:13Z</time>
      </trkpt>
      <trkpt lat="45.50911" lon="2.93461">
        <ele>1047.01</ele>
        <time>2021-08-15T07:14:15Z</time>
      </trkpt>
      <trkpt lat="45.50909" lon="2.93462">
        <ele>1047.01</ele>
        <time>2021-08-15T07:14:16Z</time>
      </trkpt>
      <trkpt lat="45.50899" lon="2.93471">
        <ele>1048.45</ele>
        <time>2021-08-15T07:14:25Z</time>
      </trkpt>
      <trkpt lat="45.50897" lon="2.93473">
        <ele>1048.94</ele>
        <time>2021-08-15T07:14:27Z</time>
      </trkpt>
      <trkpt lat="45.50896" lon="2.93473">
        <ele>1048.94</ele>
        <time>2021-08-15T07:14:28Z</time>
      </trkpt>
      <trkpt lat="45.50893" lon="2.93474">
        <ele>1049.42</ele>
        <time>2021-08-15T07:14:30Z</time>
      </trkpt>
      <trkpt lat="45.50892" lon="2.93475">
        <ele>1049.42</ele>
        <time>2021-08-15T07:14:31Z</time>
      </trkpt>
      <trkpt lat="45.50891" lon="2.93476">
        <ele>1049.9</ele>
        <time>2021-08-15T07:14:32Z</time>
      </trkpt>
      <trkpt lat="45.50885" lon="2.9348">
        <ele>1050.38</ele>
        <time>2021-08-15T07:14:37Z</time>
      </trkpt>
      <trkpt lat="45.50884" lon="2.93481">
        <ele>1050.86</ele>
        <time>2021-08-15T07:14:38Z</time>
      </trkpt>
      <trkpt lat="45.50882" lon="2.93482">
        <ele>1050.86</ele>
        <time>2021-08-15T07:14:39Z</time>
      </trkpt>
      <trkpt lat="45.50881" lon="2.93483">
        <ele>1051.34</ele>
        <time>2021-08-15T07:14:40Z</time>
      </trkpt>
      <trkpt lat="45.50881" lon="2.93484">
        <ele>1051.34</ele>
        <time>2021-08-15T07:14:41Z</time>
      </trkpt>
      <trkpt lat="45.50879" lon="2.93484">
        <ele>1051.34</ele>
        <time>2021-08-15T07:14:42Z</time>
      </trkpt>
      <trkpt lat="45.50878" lon="2.93485">
        <ele>1051.82</ele>
        <time>2021-08-15T07:14:43Z</time>
      </trkpt>
      <trkpt lat="45.50877" lon="2.93486">
        <ele>1051.82</ele>
        <time>2021-08-15T07:14:44Z</time>
      </trkpt>
      <trkpt lat="45.50876" lon="2.93487">
        <ele>1051.82</ele>
        <time>2021-08-15T07:14:45Z</time>
      </trkpt>
      <trkpt lat="45.50875" lon="2.93488">
        <ele>1051.82</ele>
        <time>2021-08-15T07:14:46Z</time>
      </trkpt>
      <trkpt lat="45.50863" lon="2.93497">
        <ele>1053.74</ele>
        <time>2021-08-15T07:14:57Z</time>
      </trkpt>
      <trkpt lat="45.50853" lon="2.93503">
        <ele>1054.7</ele>
        <time>2021-08-15T07:15:06Z</time>
      </trkpt>
      <trkpt lat="45.50848" lon="2.93506">
        <ele>1055.67</ele>
        <time>2021-08-15T07:15:11Z</time>
      </trkpt>
      <trkpt lat="45.50846" lon="2.93506">
        <ele>1055.67</ele>
        <time>2021-08-15T07:15:12Z</time>
      </trkpt>
      <trkpt lat="45.50845" lon="2.93505">
        <ele>1055.67</ele>
        <time>2021-08-15T07:15:13Z</time>
      </trkpt>
      <trkpt lat="45.50844" lon="2.93506">
        <ele>1056.15</ele>
        <time>2021-08-15T07:15:14Z</time>
      </trkpt>
      <trkpt lat="45.50843" lon="2.93506">
        <ele>1056.15</ele>
        <time>2021-08-15T07:15:15Z</time>
      </trkpt>
      <trkpt lat="45.50842" lon="2.93507">
        <ele>1056.15</ele>
        <time>2021-08-15T07:15:16Z</time>
      </trkpt>
      <trkpt lat="45.50841" lon="2.93508">
        <ele>1056.15</ele>
        <time>2021-08-15T07:15:17Z</time>
      </trkpt>
      <trkpt lat="45.5084" lon="2.93509">
        <ele>1057.11</ele>
        <time>2021-08-15T07:15:18Z</time>
      </trkpt>
      <trkpt lat="45.5084" lon="2.9351">
        <ele>1057.11</ele>
        <time>2021-08-15T07:15:19Z</time>
      </trkpt>
      <trkpt lat="45.50839" lon="2.93511">
        <ele>1057.11</ele>
        <time>2021-08-15T07:15:20Z</time>
      </trkpt>
      <trkpt lat="45.5083" lon="2.93513">
        <ele>1058.07</ele>
        <time>2021-08-15T07:15:28Z</time>
      </trkpt>
      <trkpt lat="45.50825" lon="2.93516">
        <ele>1058.55</ele>
        <time>2021-08-15T07:15:33Z</time>
      </trkpt>
      <trkpt lat="45.50815" lon="2.93519">
        <ele>1060.47</ele>
        <time>2021-08-15T07:15:42Z</time>
      </trkpt>
      <trkpt lat="45.50813" lon="2.93519">
        <ele>1060.95</ele>
        <time>2021-08-15T07:15:44Z</time>
      </trkpt>
      <trkpt lat="45.50811" lon="2.93519">
        <ele>1060.95</ele>
        <time>2021-08-15T07:15:45Z</time>
      </trkpt>
      <trkpt lat="45.5081" lon="2.93518">
        <ele>1060.95</ele>
        <time>2021-08-15T07:15:46Z</time>
      </trkpt>
      <trkpt lat="45.5081" lon="2.93517">
        <ele>1060.95</ele>
        <time>2021-08-15T07:15:47Z</time>
      </trkpt>
      <trkpt lat="45.50809" lon="2.93515">
        <ele>1060.95</ele>
        <time>2021-08-15T07:15:48Z</time>
      </trkpt>
      <trkpt lat="45.50808" lon="2.93514">
        <ele>1060.95</ele>
        <time>2021-08-15T07:15:49Z</time>
      </trkpt>
      <trkpt lat="45.50803" lon="2.93502">
        <ele>1061.91</ele>
        <time>2021-08-15T07:15:56Z</time>
      </trkpt>
      <trkpt lat="45.50796" lon="2.93482">
        <ele>1061.91</ele>
        <time>2021-08-15T07:16:06Z</time>
      </trkpt>
      <trkpt lat="45.50794" lon="2.93466">
        <ele>1062.87</ele>
        <time>2021-08-15T07:16:14Z</time>
      </trkpt>
      <trkpt lat="45.50788" lon="2.93444">
        <ele>1063.84</ele>
        <time>2021-08-15T07:16:25Z</time>
      </trkpt>
      <trkpt lat="45.50782" lon="2.93418">
        <ele>1065.28</ele>
        <time>2021-08-15T07:16:37Z</time>
      </trkpt>
      <trkpt lat="45.50777" lon="2.93404">
        <ele>1065.76</ele>
        <time>2021-08-15T07:16:44Z</time>
      </trkpt>
      <trkpt lat="45.50773" lon="2.93385">
        <ele>1066.24</ele>
        <time>2021-08-15T07:16:53Z</time>
      </trkpt>
      <trkpt lat="45.50771" lon="2.9337">
        <ele>1067.2</ele>
        <time>2021-08-15T07:17:00Z</time>
      </trkpt>
      <trkpt lat="45.50771" lon="2.93368">
        <ele>1067.2</ele>
        <time>2021-08-15T07:17:01Z</time>
      </trkpt>
      <trkpt lat="45.5077" lon="2.93366">
        <ele>1067.2</ele>
        <time>2021-08-15T07:17:02Z</time>
      </trkpt>
      <trkpt lat="45.5077" lon="2.93364">
        <ele>1067.2</ele>
        <time>2021-08-15T07:17:03Z</time>
      </trkpt>
      <trkpt lat="45.50769" lon="2.93362">
        <ele>1067.2</ele>
        <time>2021-08-15T07:17:04Z</time>
      </trkpt>
      <trkpt lat="45.50769" lon="2.9336">
        <ele>1067.2</ele>
        <time>2021-08-15T07:17:05Z</time>
      </trkpt>
      <trkpt lat="45.50765" lon="2.93345">
        <ele>1068.16</ele>
        <time>2021-08-15T07:17:13Z</time>
      </trkpt>
      <trkpt lat="45.50758" lon="2.93322">
        <ele>1069.12</ele>
        <time>2021-08-15T07:17:23Z</time>
      </trkpt>
      <trkpt lat="45.50751" lon="2.93293">
        <ele>1070.57</ele>
        <time>2021-08-15T07:17:35Z</time>
      </trkpt>
      <trkpt lat="45.50745" lon="2.93273">
        <ele>1071.05</ele>
        <time>2021-08-15T07:17:44Z</time>
      </trkpt>
      <trkpt lat="45.50739" lon="2.93252">
        <ele>1072.49</ele>
        <time>2021-08-15T07:17:54Z</time>
      </trkpt>
      <trkpt lat="45.50736" lon="2.93244">
        <ele>1072.97</ele>
        <time>2021-08-15T07:17:58Z</time>
      </trkpt>
      <trkpt lat="45.5073" lon="2.93226">
        <ele>1073.45</ele>
        <time>2021-08-15T07:18:07Z</time>
      </trkpt>
      <trkpt lat="45.50719" lon="2.93206">
        <ele>1074.89</ele>
        <time>2021-08-15T07:18:18Z</time>
      </trkpt>
      <trkpt lat="45.50714" lon="2.932">
        <ele>1075.85</ele>
        <time>2021-08-15T07:18:22Z</time>
      </trkpt>
      <trkpt lat="45.50713" lon="2.93199">
        <ele>1075.85</ele>
        <time>2021-08-15T07:18:23Z</time>
      </trkpt>
      <trkpt lat="45.50711" lon="2.93198">
        <ele>1075.85</ele>
        <time>2021-08-15T07:18:24Z</time>
      </trkpt>
      <trkpt lat="45.5071" lon="2.93197">
        <ele>1075.85</ele>
        <time>2021-08-15T07:18:25Z</time>
      </trkpt>
      <trkpt lat="45.50708" lon="2.93196">
        <ele>1075.85</ele>
        <time>2021-08-15T07:18:26Z</time>
      </trkpt>
      <trkpt lat="45.50697" lon="2.93185">
        <ele>1076.81</ele>
        <time>2021-08-15T07:18:34Z</time>
      </trkpt>
      <trkpt lat="45.5068" lon="2.93178">
        <ele>1078.74</ele>
        <time>2021-08-15T07:18:45Z</time>
      </trkpt>
      <trkpt lat="45.50664" lon="2.93173">
        <ele>1080.18</ele>
        <time>2021-08-15T07:18:55Z</time>
      </trkpt>
      <trkpt lat="45.50652" lon="2.93178">
        <ele>1080.66</ele>
        <time>2021-08-15T07:19:03Z</time>
      </trkpt>
      <trkpt lat="45.50637" lon="2.93187">
        <ele>1080.66</ele>
        <time>2021-08-15T07:19:11Z</time>
      </trkpt>
      <trkpt lat="45.5062" lon="2.93184">
        <ele>1080.66</ele>
        <time>2021-08-15T07:19:17Z</time>
      </trkpt>
      <trkpt lat="45.50615" lon="2.93181">
        <ele>1080.66</ele>
        <time>2021-08-15T07:19:18Z</time>
      </trkpt>
      <trkpt lat="45.50603" lon="2.9317">
        <ele>1078.26</ele>
        <time>2021-08-15T07:19:21Z</time>
      </trkpt>
      <trkpt lat="45.50597" lon="2.93161">
        <ele>1078.26</ele>
        <time>2021-08-15T07:19:23Z</time>
      </trkpt>
      <trkpt lat="45.50587" lon="2.93141">
        <ele>1077.78</ele>
        <time>2021-08-15T07:19:26Z</time>
      </trkpt>
      <trkpt lat="45.50586" lon="2.93136">
        <ele>1077.78</ele>
        <time>2021-08-15T07:19:27Z</time>
      </trkpt>
      <trkpt lat="45.50585" lon="2.93131">
        <ele>1077.78</ele>
        <time>2021-08-15T07:19:28Z</time>
      </trkpt>
      <trkpt lat="45.50586" lon="2.93127">
        <ele>1078.74</ele>
        <time>2021-08-15T07:19:29Z</time>
      </trkpt>
      <trkpt lat="45.50586" lon="2.93124">
        <ele>1078.74</ele>
        <time>2021-08-15T07:19:30Z</time>
      </trkpt>
      <trkpt lat="45.50585" lon="2.93122">
        <ele>1079.22</ele>
        <time>2021-08-15T07:19:31Z</time>
      </trkpt>
      <trkpt lat="45.50584" lon="2.93121">
        <ele>1080.18</ele>
        <time>2021-08-15T07:19:32Z</time>
      </trkpt>
      <trkpt lat="45.50582" lon="2.93118">
        <ele>1081.14</ele>
        <time>2021-08-15T07:19:35Z</time>
      </trkpt>
      <trkpt lat="45.50581" lon="2.93116">
        <ele>1080.66</ele>
        <time>2021-08-15T07:19:36Z</time>
      </trkpt>
      <trkpt lat="45.5058" lon="2.93115">
        <ele>1081.14</ele>
        <time>2021-08-15T07:19:37Z</time>
      </trkpt>
      <trkpt lat="45.5058" lon="2.93113">
        <ele>1081.14</ele>
        <time>2021-08-15T07:19:38Z</time>
      </trkpt>
      <trkpt lat="45.50579" lon="2.93112">
        <ele>1081.62</ele>
        <time>2021-08-15T07:19:39Z</time>
      </trkpt>
      <trkpt lat="45.50576" lon="2.93099">
        <ele>1082.58</ele>
        <time>2021-08-15T07:19:47Z</time>
      </trkpt>
      <trkpt lat="45.50579" lon="2.93087">
        <ele>1084.02</ele>
        <time>2021-08-15T07:19:54Z</time>
      </trkpt>
      <trkpt lat="45.50578" lon="2.93085">
        <ele>1084.5</ele>
        <time>2021-08-15T07:19:55Z</time>
      </trkpt>
      <trkpt lat="45.50577" lon="2.93084">
        <ele>1084.5</ele>
        <time>2021-08-15T07:19:56Z</time>
      </trkpt>
      <trkpt lat="45.50576" lon="2.93083">
        <ele>1084.02</ele>
        <time>2021-08-15T07:19:57Z</time>
      </trkpt>
      <trkpt lat="45.50575" lon="2.93082">
        <ele>1084.5</ele>
        <time>2021-08-15T07:19:58Z</time>
      </trkpt>
      <trkpt lat="45.50574" lon="2.93082">
        <ele>1084.02</ele>
        <time>2021-08-15T07:19:59Z</time>
      </trkpt>
      <trkpt lat="45.50572" lon="2.93081">
        <ele>1084.5</ele>
        <time>2021-08-15T07:20:00Z</time>
      </trkpt>
      <trkpt lat="45.50571" lon="2.9308">
        <ele>1084.99</ele>
        <time>2021-08-15T07:20:01Z</time>
      </trkpt>
      <trkpt lat="45.5057" lon="2.93078">
        <ele>1084.99</ele>
        <time>2021-08-15T07:20:02Z</time>
      </trkpt>
      <trkpt lat="45.50569" lon="2.93077">
        <ele>1084.99</ele>
        <time>2021-08-15T07:20:03Z</time>
      </trkpt>
      <trkpt lat="45.50569" lon="2.93076">
        <ele>1084.99</ele>
        <time>2021-08-15T07:20:04Z</time>
      </trkpt>
      <trkpt lat="45.50568" lon="2.93074">
        <ele>1085.47</ele>
        <time>2021-08-15T07:20:05Z</time>
      </trkpt>
      <trkpt lat="45.5056" lon="2.93061">
        <ele>1086.91</ele>
        <time>2021-08-15T07:20:15Z</time>
      </trkpt>
      <trkpt lat="45.50552" lon="2.93048">
        <ele>1088.35</ele>
        <time>2021-08-15T07:20:26Z</time>
      </trkpt>
      <trkpt lat="45.50542" lon="2.93033">
        <ele>1090.75</ele>
        <time>2021-08-15T07:20:38Z</time>
      </trkpt>
      <trkpt lat="45.50533" lon="2.93027">
        <ele>1091.23</ele>
        <time>2021-08-15T07:20:47Z</time>
      </trkpt>
      <trkpt lat="45.50521" lon="2.93021">
        <ele>1092.68</ele>
        <time>2021-08-15T07:20:57Z</time>
      </trkpt>
      <trkpt lat="45.5051" lon="2.93018">
        <ele>1094.12</ele>
        <time>2021-08-15T07:21:07Z</time>
      </trkpt>
      <trkpt lat="45.505" lon="2.93019">
        <ele>1096.04</ele>
        <time>2021-08-15T07:21:16Z</time>
      </trkpt>
      <trkpt lat="45.50499" lon="2.93018">
        <ele>1096.04</ele>
        <time>2021-08-15T07:21:17Z</time>
      </trkpt>
      <trkpt lat="45.50495" lon="2.93016">
        <ele>1096.52</ele>
        <time>2021-08-15T07:21:21Z</time>
      </trkpt>
      <trkpt lat="45.50489" lon="2.93014">
        <ele>1097.96</ele>
        <time>2021-08-15T07:21:29Z</time>
      </trkpt>
      <trkpt lat="45.50479" lon="2.93014">
        <ele>1099.89</ele>
        <time>2021-08-15T07:21:39Z</time>
      </trkpt>
      <trkpt lat="45.5047" lon="2.93013">
        <ele>1100.85</ele>
        <time>2021-08-15T07:21:49Z</time>
      </trkpt>
      <trkpt lat="45.50468" lon="2.93012">
        <ele>1101.81</ele>
        <time>2021-08-15T07:21:57Z</time>
      </trkpt>
      <trkpt lat="45.50463" lon="2.93011">
        <ele>1102.29</ele>
        <time>2021-08-15T07:22:04Z</time>
      </trkpt>
      <trkpt lat="45.50454" lon="2.93009">
        <ele>1103.25</ele>
        <time>2021-08-15T07:22:14Z</time>
      </trkpt>
      <trkpt lat="45.50444" lon="2.93005">
        <ele>1104.69</ele>
        <time>2021-08-15T07:22:24Z</time>
      </trkpt>
      <trkpt lat="45.50437" lon="2.93001">
        <ele>1106.61</ele>
        <time>2021-08-15T07:22:33Z</time>
      </trkpt>
      <trkpt lat="45.50431" lon="2.92996">
        <ele>1107.58</ele>
        <time>2021-08-15T07:22:42Z</time>
      </trkpt>
      <trkpt lat="45.50425" lon="2.92991">
        <ele>1109.02</ele>
        <time>2021-08-15T07:22:51Z</time>
      </trkpt>
      <trkpt lat="45.50418" lon="2.92984">
        <ele>1110.46</ele>
        <time>2021-08-15T07:23:01Z</time>
      </trkpt>
      <trkpt lat="45.5041" lon="2.92974">
        <ele>1112.38</ele>
        <time>2021-08-15T07:23:14Z</time>
      </trkpt>
      <trkpt lat="45.50408" lon="2.92971">
        <ele>1112.86</ele>
        <time>2021-08-15T07:23:17Z</time>
      </trkpt>
      <trkpt lat="45.50403" lon="2.92967">
        <ele>1113.34</ele>
        <time>2021-08-15T07:23:23Z</time>
      </trkpt>
      <trkpt lat="45.504" lon="2.92964">
        <ele>1113.34</ele>
        <time>2021-08-15T07:23:27Z</time>
      </trkpt>
      <trkpt lat="45.50391" lon="2.92957">
        <ele>1115.27</ele>
        <time>2021-08-15T07:23:38Z</time>
      </trkpt>
      <trkpt lat="45.50391" lon="2.92957">
        <ele>1115.27</ele>
        <time>2021-08-15T07:23:45Z</time>
      </trkpt>
      <trkpt lat="45.50385" lon="2.92951">
        <ele>1115.27</ele>
        <time>2021-08-15T07:23:51Z</time>
      </trkpt>
      <trkpt lat="45.50371" lon="2.92936">
        <ele>1116.71</ele>
        <time>2021-08-15T07:24:02Z</time>
      </trkpt>
      <trkpt lat="45.50358" lon="2.92918">
        <ele>1117.19</ele>
        <time>2021-08-15T07:24:12Z</time>
      </trkpt>
      <trkpt lat="45.5035" lon="2.92902">
        <ele>1116.23</ele>
        <time>2021-08-15T07:24:20Z</time>
      </trkpt>
      <trkpt lat="45.50349" lon="2.929">
        <ele>1116.23</ele>
        <time>2021-08-15T07:24:21Z</time>
      </trkpt>
      <trkpt lat="45.50341" lon="2.92885">
        <ele>1117.67</ele>
        <time>2021-08-15T07:24:28Z</time>
      </trkpt>
      <trkpt lat="45.5033" lon="2.92865">
        <ele>1118.63</ele>
        <time>2021-08-15T07:24:36Z</time>
      </trkpt>
      <trkpt lat="45.50319" lon="2.92842">
        <ele>1118.63</ele>
        <time>2021-08-15T07:24:45Z</time>
      </trkpt>
      <trkpt lat="45.50311" lon="2.92824">
        <ele>1115.27</ele>
        <time>2021-08-15T07:24:51Z</time>
      </trkpt>
      <trkpt lat="45.5031" lon="2.9282">
        <ele>1115.27</ele>
        <time>2021-08-15T07:24:52Z</time>
      </trkpt>
      <trkpt lat="45.50305" lon="2.92814">
        <ele>1117.19</ele>
        <time>2021-08-15T07:24:55Z</time>
      </trkpt>
      <trkpt lat="45.50304" lon="2.92814">
        <ele>1117.67</ele>
        <time>2021-08-15T07:24:56Z</time>
      </trkpt>
      <trkpt lat="45.50302" lon="2.92814">
        <ele>1117.67</ele>
        <time>2021-08-15T07:24:57Z</time>
      </trkpt>
      <trkpt lat="45.50291" lon="2.92807">
        <ele>1119.59</ele>
        <time>2021-08-15T07:25:06Z</time>
      </trkpt>
      <trkpt lat="45.50281" lon="2.92797">
        <ele>1120.55</ele>
        <time>2021-08-15T07:25:15Z</time>
      </trkpt>
      <trkpt lat="45.50272" lon="2.92784">
        <ele>1119.11</ele>
        <time>2021-08-15T07:25:23Z</time>
      </trkpt>
      <trkpt lat="45.5027" lon="2.92783">
        <ele>1119.11</ele>
        <time>2021-08-15T07:25:24Z</time>
      </trkpt>
      <trkpt lat="45.50269" lon="2.92782">
        <ele>1119.11</ele>
        <time>2021-08-15T07:25:25Z</time>
      </trkpt>
      <trkpt lat="45.50262" lon="2.92774">
        <ele>1120.55</ele>
        <time>2021-08-15T07:25:31Z</time>
      </trkpt>
      <trkpt lat="45.50262" lon="2.92772">
        <ele>1120.55</ele>
        <time>2021-08-15T07:25:32Z</time>
      </trkpt>
      <trkpt lat="45.50261" lon="2.9277">
        <ele>1120.55</ele>
        <time>2021-08-15T07:25:33Z</time>
      </trkpt>
      <trkpt lat="45.5026" lon="2.92768">
        <ele>1120.55</ele>
        <time>2021-08-15T07:25:34Z</time>
      </trkpt>
      <trkpt lat="45.50259" lon="2.92767">
        <ele>1120.55</ele>
        <time>2021-08-15T07:25:35Z</time>
      </trkpt>
      <trkpt lat="45.50259" lon="2.92765">
        <ele>1120.55</ele>
        <time>2021-08-15T07:25:36Z</time>
      </trkpt>
      <trkpt lat="45.5025" lon="2.92757">
        <ele>1122</ele>
        <time>2021-08-15T07:25:45Z</time>
      </trkpt>
      <trkpt lat="45.50248" lon="2.92755">
        <ele>1122.96</ele>
        <time>2021-08-15T07:25:47Z</time>
      </trkpt>
      <trkpt lat="45.50247" lon="2.92754">
        <ele>1122.96</ele>
        <time>2021-08-15T07:25:48Z</time>
      </trkpt>
      <trkpt lat="45.50245" lon="2.92754">
        <ele>1123.92</ele>
        <time>2021-08-15T07:25:49Z</time>
      </trkpt>
      <trkpt lat="45.50244" lon="2.92753">
        <ele>1124.4</ele>
        <time>2021-08-15T07:25:50Z</time>
      </trkpt>
      <trkpt lat="45.50243" lon="2.92753">
        <ele>1124.4</ele>
        <time>2021-08-15T07:25:51Z</time>
      </trkpt>
      <trkpt lat="45.50235" lon="2.92751">
        <ele>1124.88</ele>
        <time>2021-08-15T07:25:59Z</time>
      </trkpt>
      <trkpt lat="45.50233" lon="2.92749">
        <ele>1124.88</ele>
        <time>2021-08-15T07:26:01Z</time>
      </trkpt>
      <trkpt lat="45.50228" lon="2.92743">
        <ele>1125.84</ele>
        <time>2021-08-15T07:26:07Z</time>
      </trkpt>
      <trkpt lat="45.50227" lon="2.92741">
        <ele>1125.84</ele>
        <time>2021-08-15T07:26:08Z</time>
      </trkpt>
      <trkpt lat="45.50227" lon="2.9274">
        <ele>1125.84</ele>
        <time>2021-08-15T07:26:09Z</time>
      </trkpt>
      <trkpt lat="45.50226" lon="2.92738">
        <ele>1126.32</ele>
        <time>2021-08-15T07:26:10Z</time>
      </trkpt>
      <trkpt lat="45.50225" lon="2.92737">
        <ele>1126.32</ele>
        <time>2021-08-15T07:26:11Z</time>
      </trkpt>
      <trkpt lat="45.50225" lon="2.92736">
        <ele>1126.32</ele>
        <time>2021-08-15T07:26:12Z</time>
      </trkpt>
      <trkpt lat="45.50224" lon="2.92734">
        <ele>1126.32</ele>
        <time>2021-08-15T07:26:13Z</time>
      </trkpt>
      <trkpt lat="45.50223" lon="2.9273">
        <ele>1127.76</ele>
        <time>2021-08-15T07:26:16Z</time>
      </trkpt>
      <trkpt lat="45.50223" lon="2.92729">
        <ele>1127.76</ele>
        <time>2021-08-15T07:26:17Z</time>
      </trkpt>
      <trkpt lat="45.50223" lon="2.92727">
        <ele>1128.24</ele>
        <time>2021-08-15T07:26:18Z</time>
      </trkpt>
      <trkpt lat="45.50222" lon="2.92726">
        <ele>1128.24</ele>
        <time>2021-08-15T07:26:19Z</time>
      </trkpt>
      <trkpt lat="45.50222" lon="2.92724">
        <ele>1128.24</ele>
        <time>2021-08-15T07:26:20Z</time>
      </trkpt>
      <trkpt lat="45.50222" lon="2.92723">
        <ele>1128.24</ele>
        <time>2021-08-15T07:26:21Z</time>
      </trkpt>
      <trkpt lat="45.50222" lon="2.92721">
        <ele>1128.24</ele>
        <time>2021-08-15T07:26:22Z</time>
      </trkpt>
      <trkpt lat="45.50222" lon="2.9272">
        <ele>1128.73</ele>
        <time>2021-08-15T07:26:23Z</time>
      </trkpt>
      <trkpt lat="45.50222" lon="2.92718">
        <ele>1128.73</ele>
        <time>2021-08-15T07:26:24Z</time>
      </trkpt>
      <trkpt lat="45.50222" lon="2.92716">
        <ele>1128.73</ele>
        <time>2021-08-15T07:26:25Z</time>
      </trkpt>
      <trkpt lat="45.50222" lon="2.92715">
        <ele>1128.73</ele>
        <time>2021-08-15T07:26:26Z</time>
      </trkpt>
      <trkpt lat="45.50222" lon="2.92713">
        <ele>1129.21</ele>
        <time>2021-08-15T07:26:27Z</time>
      </trkpt>
      <trkpt lat="45.50221" lon="2.92712">
        <ele>1129.21</ele>
        <time>2021-08-15T07:26:28Z</time>
      </trkpt>
      <trkpt lat="45.50221" lon="2.9271">
        <ele>1129.21</ele>
        <time>2021-08-15T07:26:29Z</time>
      </trkpt>
      <trkpt lat="45.50221" lon="2.92708">
        <ele>1130.17</ele>
        <time>2021-08-15T07:26:30Z</time>
      </trkpt>
      <trkpt lat="45.50221" lon="2.92707">
        <ele>1130.17</ele>
        <time>2021-08-15T07:26:31Z</time>
      </trkpt>
      <trkpt lat="45.50221" lon="2.92705">
        <ele>1130.17</ele>
        <time>2021-08-15T07:26:32Z</time>
      </trkpt>
      <trkpt lat="45.50221" lon="2.92704">
        <ele>1130.17</ele>
        <time>2021-08-15T07:26:33Z</time>
      </trkpt>
      <trkpt lat="45.50221" lon="2.92702">
        <ele>1130.17</ele>
        <time>2021-08-15T07:26:34Z</time>
      </trkpt>
      <trkpt lat="45.50221" lon="2.92699">
        <ele>1130.65</ele>
        <time>2021-08-15T07:26:36Z</time>
      </trkpt>
      <trkpt lat="45.50221" lon="2.92689">
        <ele>1131.61</ele>
        <time>2021-08-15T07:26:42Z</time>
      </trkpt>
      <trkpt lat="45.50221" lon="2.92688">
        <ele>1131.61</ele>
        <time>2021-08-15T07:26:43Z</time>
      </trkpt>
      <trkpt lat="45.5022" lon="2.92686">
        <ele>1131.61</ele>
        <time>2021-08-15T07:26:44Z</time>
      </trkpt>
      <trkpt lat="45.5022" lon="2.92685">
        <ele>1132.09</ele>
        <time>2021-08-15T07:26:45Z</time>
      </trkpt>
      <trkpt lat="45.50219" lon="2.92684">
        <ele>1132.57</ele>
        <time>2021-08-15T07:26:46Z</time>
      </trkpt>
      <trkpt lat="45.50219" lon="2.92682">
        <ele>1132.09</ele>
        <time>2021-08-15T07:26:47Z</time>
      </trkpt>
      <trkpt lat="45.50213" lon="2.92671">
        <ele>1133.05</ele>
        <time>2021-08-15T07:26:55Z</time>
      </trkpt>
      <trkpt lat="45.50208" lon="2.92661">
        <ele>1134.49</ele>
        <time>2021-08-15T07:27:03Z</time>
      </trkpt>
      <trkpt lat="45.50207" lon="2.9266">
        <ele>1134.49</ele>
        <time>2021-08-15T07:27:04Z</time>
      </trkpt>
      <trkpt lat="45.50206" lon="2.92659">
        <ele>1134.97</ele>
        <time>2021-08-15T07:27:05Z</time>
      </trkpt>
      <trkpt lat="45.50205" lon="2.92658">
        <ele>1134.97</ele>
        <time>2021-08-15T07:27:06Z</time>
      </trkpt>
      <trkpt lat="45.50204" lon="2.92656">
        <ele>1134.97</ele>
        <time>2021-08-15T07:27:07Z</time>
      </trkpt>
      <trkpt lat="45.50203" lon="2.92655">
        <ele>1134.97</ele>
        <time>2021-08-15T07:27:08Z</time>
      </trkpt>
      <trkpt lat="45.50202" lon="2.92654">
        <ele>1134.97</ele>
        <time>2021-08-15T07:27:09Z</time>
      </trkpt>
      <trkpt lat="45.50201" lon="2.92653">
        <ele>1134.97</ele>
        <time>2021-08-15T07:27:10Z</time>
      </trkpt>
      <trkpt lat="45.502" lon="2.92652">
        <ele>1134.97</ele>
        <time>2021-08-15T07:27:11Z</time>
      </trkpt>
      <trkpt lat="45.502" lon="2.9265">
        <ele>1134.97</ele>
        <time>2021-08-15T07:27:12Z</time>
      </trkpt>
      <trkpt lat="45.502" lon="2.92649">
        <ele>1134.97</ele>
        <time>2021-08-15T07:27:13Z</time>
      </trkpt>
      <trkpt lat="45.50199" lon="2.92648">
        <ele>1134.97</ele>
        <time>2021-08-15T07:27:14Z</time>
      </trkpt>
      <trkpt lat="45.50198" lon="2.92646">
        <ele>1135.94</ele>
        <time>2021-08-15T07:27:15Z</time>
      </trkpt>
      <trkpt lat="45.50196" lon="2.92643">
        <ele>1136.42</ele>
        <time>2021-08-15T07:27:18Z</time>
      </trkpt>
      <trkpt lat="45.50195" lon="2.92642">
        <ele>1136.42</ele>
        <time>2021-08-15T07:27:19Z</time>
      </trkpt>
      <trkpt lat="45.50194" lon="2.92641">
        <ele>1136.9</ele>
        <time>2021-08-15T07:27:20Z</time>
      </trkpt>
      <trkpt lat="45.50185" lon="2.92628">
        <ele>1138.34</ele>
        <time>2021-08-15T07:27:30Z</time>
      </trkpt>
      <trkpt lat="45.50184" lon="2.92626">
        <ele>1137.86</ele>
        <time>2021-08-15T07:27:32Z</time>
      </trkpt>
      <trkpt lat="45.50179" lon="2.92615">
        <ele>1138.82</ele>
        <time>2021-08-15T07:27:40Z</time>
      </trkpt>
      <trkpt lat="45.50174" lon="2.92605">
        <ele>1140.74</ele>
        <time>2021-08-15T07:27:49Z</time>
      </trkpt>
      <trkpt lat="45.50173" lon="2.92604">
        <ele>1140.74</ele>
        <time>2021-08-15T07:27:50Z</time>
      </trkpt>
      <trkpt lat="45.50173" lon="2.92602">
        <ele>1140.74</ele>
        <time>2021-08-15T07:27:51Z</time>
      </trkpt>
      <trkpt lat="45.50173" lon="2.926">
        <ele>1141.7</ele>
        <time>2021-08-15T07:27:52Z</time>
      </trkpt>
      <trkpt lat="45.50172" lon="2.92599">
        <ele>1141.7</ele>
        <time>2021-08-15T07:27:53Z</time>
      </trkpt>
      <trkpt lat="45.50172" lon="2.92597">
        <ele>1141.7</ele>
        <time>2021-08-15T07:27:54Z</time>
      </trkpt>
      <trkpt lat="45.50167" lon="2.92583">
        <ele>1142.66</ele>
        <time>2021-08-15T07:28:04Z</time>
      </trkpt>
      <trkpt lat="45.50162" lon="2.92573">
        <ele>1144.11</ele>
        <time>2021-08-15T07:28:11Z</time>
      </trkpt>
      <trkpt lat="45.50162" lon="2.92572">
        <ele>1144.59</ele>
        <time>2021-08-15T07:28:12Z</time>
      </trkpt>
      <trkpt lat="45.50161" lon="2.9257">
        <ele>1145.07</ele>
        <time>2021-08-15T07:28:13Z</time>
      </trkpt>
      <trkpt lat="45.5016" lon="2.92569">
        <ele>1145.07</ele>
        <time>2021-08-15T07:28:14Z</time>
      </trkpt>
      <trkpt lat="45.50159" lon="2.92568">
        <ele>1144.11</ele>
        <time>2021-08-15T07:28:15Z</time>
      </trkpt>
      <trkpt lat="45.50158" lon="2.92567">
        <ele>1144.11</ele>
        <time>2021-08-15T07:28:16Z</time>
      </trkpt>
      <trkpt lat="45.50158" lon="2.92566">
        <ele>1144.11</ele>
        <time>2021-08-15T07:28:17Z</time>
      </trkpt>
      <trkpt lat="45.50154" lon="2.92558">
        <ele>1145.07</ele>
        <time>2021-08-15T07:28:22Z</time>
      </trkpt>
      <trkpt lat="45.50147" lon="2.92545">
        <ele>1145.07</ele>
        <time>2021-08-15T07:28:31Z</time>
      </trkpt>
      <trkpt lat="45.5014" lon="2.9253">
        <ele>1146.03</ele>
        <time>2021-08-15T07:28:40Z</time>
      </trkpt>
      <trkpt lat="45.50137" lon="2.92526">
        <ele>1146.03</ele>
        <time>2021-08-15T07:28:43Z</time>
      </trkpt>
      <trkpt lat="45.50136" lon="2.92524">
        <ele>1146.99</ele>
        <time>2021-08-15T07:28:44Z</time>
      </trkpt>
      <trkpt lat="45.50128" lon="2.92509">
        <ele>1147.47</ele>
        <time>2021-08-15T07:28:54Z</time>
      </trkpt>
      <trkpt lat="45.50126" lon="2.92506">
        <ele>1147.47</ele>
        <time>2021-08-15T07:28:56Z</time>
      </trkpt>
      <trkpt lat="45.50125" lon="2.92505">
        <ele>1147.47</ele>
        <time>2021-08-15T07:28:57Z</time>
      </trkpt>
      <trkpt lat="45.50125" lon="2.92504">
        <ele>1147.47</ele>
        <time>2021-08-15T07:28:58Z</time>
      </trkpt>
      <trkpt lat="45.50124" lon="2.92502">
        <ele>1148.43</ele>
        <time>2021-08-15T07:28:59Z</time>
      </trkpt>
      <trkpt lat="45.50123" lon="2.925">
        <ele>1148.43</ele>
        <time>2021-08-15T07:29:00Z</time>
      </trkpt>
      <trkpt lat="45.50123" lon="2.92499">
        <ele>1148.43</ele>
        <time>2021-08-15T07:29:01Z</time>
      </trkpt>
      <trkpt lat="45.50122" lon="2.92497">
        <ele>1148.43</ele>
        <time>2021-08-15T07:29:02Z</time>
      </trkpt>
      <trkpt lat="45.50121" lon="2.92496">
        <ele>1148.43</ele>
        <time>2021-08-15T07:29:03Z</time>
      </trkpt>
      <trkpt lat="45.5012" lon="2.92495">
        <ele>1148.43</ele>
        <time>2021-08-15T07:29:04Z</time>
      </trkpt>
      <trkpt lat="45.50119" lon="2.92494">
        <ele>1148.91</ele>
        <time>2021-08-15T07:29:05Z</time>
      </trkpt>
      <trkpt lat="45.50118" lon="2.92492">
        <ele>1148.91</ele>
        <time>2021-08-15T07:29:06Z</time>
      </trkpt>
      <trkpt lat="45.50114" lon="2.92485">
        <ele>1147.95</ele>
        <time>2021-08-15T07:29:11Z</time>
      </trkpt>
      <trkpt lat="45.50113" lon="2.92484">
        <ele>1147.95</ele>
        <time>2021-08-15T07:29:12Z</time>
      </trkpt>
      <trkpt lat="45.5011" lon="2.9248">
        <ele>1146.99</ele>
        <time>2021-08-15T07:29:15Z</time>
      </trkpt>
      <trkpt lat="45.5011" lon="2.92478">
        <ele>1149.39</ele>
        <time>2021-08-15T07:29:16Z</time>
      </trkpt>
      <trkpt lat="45.50109" lon="2.92477">
        <ele>1149.39</ele>
        <time>2021-08-15T07:29:17Z</time>
      </trkpt>
      <trkpt lat="45.50109" lon="2.92475">
        <ele>1149.87</ele>
        <time>2021-08-15T07:29:18Z</time>
      </trkpt>
      <trkpt lat="45.50108" lon="2.92474">
        <ele>1150.35</ele>
        <time>2021-08-15T07:29:19Z</time>
      </trkpt>
      <trkpt lat="45.50107" lon="2.92473">
        <ele>1149.87</ele>
        <time>2021-08-15T07:29:20Z</time>
      </trkpt>
      <trkpt lat="45.50106" lon="2.92471">
        <ele>1149.87</ele>
        <time>2021-08-15T07:29:21Z</time>
      </trkpt>
      <trkpt lat="45.50105" lon="2.9247">
        <ele>1149.87</ele>
        <time>2021-08-15T07:29:22Z</time>
      </trkpt>
      <trkpt lat="45.50105" lon="2.92469">
        <ele>1149.87</ele>
        <time>2021-08-15T07:29:23Z</time>
      </trkpt>
      <trkpt lat="45.50101" lon="2.9246">
        <ele>1151.32</ele>
        <time>2021-08-15T07:29:29Z</time>
      </trkpt>
      <trkpt lat="45.50095" lon="2.92449">
        <ele>1152.28</ele>
        <time>2021-08-15T07:29:37Z</time>
      </trkpt>
      <trkpt lat="45.50087" lon="2.92433">
        <ele>1153.24</ele>
        <time>2021-08-15T07:29:49Z</time>
      </trkpt>
      <trkpt lat="45.5008" lon="2.9242">
        <ele>1153.72</ele>
        <time>2021-08-15T07:29:57Z</time>
      </trkpt>
      <trkpt lat="45.5007" lon="2.92403">
        <ele>1155.16</ele>
        <time>2021-08-15T07:30:07Z</time>
      </trkpt>
      <trkpt lat="45.5006" lon="2.92388">
        <ele>1155.64</ele>
        <time>2021-08-15T07:30:16Z</time>
      </trkpt>
      <trkpt lat="45.50053" lon="2.92377">
        <ele>1157.08</ele>
        <time>2021-08-15T07:30:23Z</time>
      </trkpt>
      <trkpt lat="45.50044" lon="2.92364">
        <ele>1158.05</ele>
        <time>2021-08-15T07:30:32Z</time>
      </trkpt>
      <trkpt lat="45.50038" lon="2.92353">
        <ele>1159.49</ele>
        <time>2021-08-15T07:30:40Z</time>
      </trkpt>
      <trkpt lat="45.5003" lon="2.92342">
        <ele>1160.45</ele>
        <time>2021-08-15T07:30:50Z</time>
      </trkpt>
      <trkpt lat="45.50028" lon="2.9234">
        <ele>1160.93</ele>
        <time>2021-08-15T07:30:52Z</time>
      </trkpt>
      <trkpt lat="45.50028" lon="2.92339">
        <ele>1160.93</ele>
        <time>2021-08-15T07:30:53Z</time>
      </trkpt>
      <trkpt lat="45.50023" lon="2.9233">
        <ele>1162.37</ele>
        <time>2021-08-15T07:31:00Z</time>
      </trkpt>
      <trkpt lat="45.50022" lon="2.92329">
        <ele>1162.37</ele>
        <time>2021-08-15T07:31:01Z</time>
      </trkpt>
      <trkpt lat="45.50021" lon="2.92328">
        <ele>1162.37</ele>
        <time>2021-08-15T07:31:02Z</time>
      </trkpt>
      <trkpt lat="45.5002" lon="2.92327">
        <ele>1162.37</ele>
        <time>2021-08-15T07:31:03Z</time>
      </trkpt>
      <trkpt lat="45.5002" lon="2.92326">
        <ele>1162.37</ele>
        <time>2021-08-15T07:31:04Z</time>
      </trkpt>
      <trkpt lat="45.50019" lon="2.92324">
        <ele>1162.37</ele>
        <time>2021-08-15T07:31:05Z</time>
      </trkpt>
      <trkpt lat="45.50019" lon="2.92323">
        <ele>1162.37</ele>
        <time>2021-08-15T07:31:06Z</time>
      </trkpt>
      <trkpt lat="45.50018" lon="2.92321">
        <ele>1162.37</ele>
        <time>2021-08-15T07:31:07Z</time>
      </trkpt>
      <trkpt lat="45.50017" lon="2.9232">
        <ele>1162.85</ele>
        <time>2021-08-15T07:31:08Z</time>
      </trkpt>
      <trkpt lat="45.50016" lon="2.92319">
        <ele>1162.85</ele>
        <time>2021-08-15T07:31:09Z</time>
      </trkpt>
      <trkpt lat="45.50015" lon="2.92318">
        <ele>1162.85</ele>
        <time>2021-08-15T07:31:10Z</time>
      </trkpt>
      <trkpt lat="45.50015" lon="2.92316">
        <ele>1162.85</ele>
        <time>2021-08-15T07:31:11Z</time>
      </trkpt>
      <trkpt lat="45.50014" lon="2.92315">
        <ele>1163.33</ele>
        <time>2021-08-15T07:31:12Z</time>
      </trkpt>
      <trkpt lat="45.50013" lon="2.92314">
        <ele>1163.33</ele>
        <time>2021-08-15T07:31:13Z</time>
      </trkpt>
      <trkpt lat="45.50013" lon="2.92312">
        <ele>1163.33</ele>
        <time>2021-08-15T07:31:14Z</time>
      </trkpt>
      <trkpt lat="45.50012" lon="2.92311">
        <ele>1163.33</ele>
        <time>2021-08-15T07:31:15Z</time>
      </trkpt>
      <trkpt lat="45.50012" lon="2.9231">
        <ele>1163.81</ele>
        <time>2021-08-15T07:31:16Z</time>
      </trkpt>
      <trkpt lat="45.50012" lon="2.92308">
        <ele>1163.81</ele>
        <time>2021-08-15T07:31:17Z</time>
      </trkpt>
      <trkpt lat="45.50011" lon="2.92307">
        <ele>1163.81</ele>
        <time>2021-08-15T07:31:18Z</time>
      </trkpt>
      <trkpt lat="45.50011" lon="2.92305">
        <ele>1163.81</ele>
        <time>2021-08-15T07:31:19Z</time>
      </trkpt>
      <trkpt lat="45.5001" lon="2.92304">
        <ele>1163.81</ele>
        <time>2021-08-15T07:31:20Z</time>
      </trkpt>
      <trkpt lat="45.50008" lon="2.923">
        <ele>1164.77</ele>
        <time>2021-08-15T07:31:23Z</time>
      </trkpt>
      <trkpt lat="45.50008" lon="2.92299">
        <ele>1164.77</ele>
        <time>2021-08-15T07:31:24Z</time>
      </trkpt>
      <trkpt lat="45.50007" lon="2.92297">
        <ele>1164.77</ele>
        <time>2021-08-15T07:31:25Z</time>
      </trkpt>
      <trkpt lat="45.50002" lon="2.92287">
        <ele>1165.74</ele>
        <time>2021-08-15T07:31:33Z</time>
      </trkpt>
      <trkpt lat="45.50001" lon="2.92284">
        <ele>1164.29</ele>
        <time>2021-08-15T07:31:35Z</time>
      </trkpt>
      <trkpt lat="45.50001" lon="2.92282">
        <ele>1164.29</ele>
        <time>2021-08-15T07:31:36Z</time>
      </trkpt>
      <trkpt lat="45.5" lon="2.92281">
        <ele>1165.74</ele>
        <time>2021-08-15T07:31:37Z</time>
      </trkpt>
      <trkpt lat="45.5" lon="2.9228">
        <ele>1165.74</ele>
        <time>2021-08-15T07:31:38Z</time>
      </trkpt>
      <trkpt lat="45.49999" lon="2.92278">
        <ele>1165.74</ele>
        <time>2021-08-15T07:31:39Z</time>
      </trkpt>
      <trkpt lat="45.49999" lon="2.92277">
        <ele>1166.22</ele>
        <time>2021-08-15T07:31:40Z</time>
      </trkpt>
      <trkpt lat="45.49998" lon="2.92275">
        <ele>1166.22</ele>
        <time>2021-08-15T07:31:41Z</time>
      </trkpt>
      <trkpt lat="45.49992" lon="2.92265">
        <ele>1167.66</ele>
        <time>2021-08-15T07:31:50Z</time>
      </trkpt>
      <trkpt lat="45.49991" lon="2.92262">
        <ele>1168.62</ele>
        <time>2021-08-15T07:31:52Z</time>
      </trkpt>
      <trkpt lat="45.49991" lon="2.92261">
        <ele>1168.62</ele>
        <time>2021-08-15T07:31:53Z</time>
      </trkpt>
      <trkpt lat="45.49991" lon="2.92259">
        <ele>1168.62</ele>
        <time>2021-08-15T07:31:54Z</time>
      </trkpt>
      <trkpt lat="45.4999" lon="2.92253">
        <ele>1169.1</ele>
        <time>2021-08-15T07:31:58Z</time>
      </trkpt>
      <trkpt lat="45.4999" lon="2.92251">
        <ele>1169.1</ele>
        <time>2021-08-15T07:31:59Z</time>
      </trkpt>
      <trkpt lat="45.4999" lon="2.9225">
        <ele>1169.1</ele>
        <time>2021-08-15T07:32:00Z</time>
      </trkpt>
      <trkpt lat="45.49989" lon="2.92248">
        <ele>1168.62</ele>
        <time>2021-08-15T07:32:01Z</time>
      </trkpt>
      <trkpt lat="45.49989" lon="2.92247">
        <ele>1170.06</ele>
        <time>2021-08-15T07:32:02Z</time>
      </trkpt>
      <trkpt lat="45.49989" lon="2.92245">
        <ele>1170.06</ele>
        <time>2021-08-15T07:32:03Z</time>
      </trkpt>
      <trkpt lat="45.49989" lon="2.92244">
        <ele>1169.58</ele>
        <time>2021-08-15T07:32:04Z</time>
      </trkpt>
      <trkpt lat="45.49988" lon="2.92243">
        <ele>1169.58</ele>
        <time>2021-08-15T07:32:05Z</time>
      </trkpt>
      <trkpt lat="45.49988" lon="2.92241">
        <ele>1169.58</ele>
        <time>2021-08-15T07:32:06Z</time>
      </trkpt>
      <trkpt lat="45.49988" lon="2.9224">
        <ele>1169.58</ele>
        <time>2021-08-15T07:32:07Z</time>
      </trkpt>
      <trkpt lat="45.49986" lon="2.92236">
        <ele>1171.02</ele>
        <time>2021-08-15T07:32:10Z</time>
      </trkpt>
      <trkpt lat="45.49985" lon="2.92235">
        <ele>1171.02</ele>
        <time>2021-08-15T07:32:11Z</time>
      </trkpt>
      <trkpt lat="45.49985" lon="2.92234">
        <ele>1171.02</ele>
        <time>2021-08-15T07:32:12Z</time>
      </trkpt>
      <trkpt lat="45.49984" lon="2.92233">
        <ele>1171.02</ele>
        <time>2021-08-15T07:32:13Z</time>
      </trkpt>
      <trkpt lat="45.49983" lon="2.92231">
        <ele>1171.5</ele>
        <time>2021-08-15T07:32:14Z</time>
      </trkpt>
      <trkpt lat="45.49983" lon="2.9223">
        <ele>1171.5</ele>
        <time>2021-08-15T07:32:15Z</time>
      </trkpt>
      <trkpt lat="45.49982" lon="2.92229">
        <ele>1171.5</ele>
        <time>2021-08-15T07:32:16Z</time>
      </trkpt>
      <trkpt lat="45.49982" lon="2.92227">
        <ele>1171.5</ele>
        <time>2021-08-15T07:32:17Z</time>
      </trkpt>
      <trkpt lat="45.49982" lon="2.92225">
        <ele>1171.5</ele>
        <time>2021-08-15T07:32:18Z</time>
      </trkpt>
      <trkpt lat="45.49982" lon="2.92224">
        <ele>1172.47</ele>
        <time>2021-08-15T07:32:19Z</time>
      </trkpt>
      <trkpt lat="45.49982" lon="2.92222">
        <ele>1172.47</ele>
        <time>2021-08-15T07:32:20Z</time>
      </trkpt>
      <trkpt lat="45.49982" lon="2.9222">
        <ele>1172.95</ele>
        <time>2021-08-15T07:32:21Z</time>
      </trkpt>
      <trkpt lat="45.49982" lon="2.92219">
        <ele>1172.47</ele>
        <time>2021-08-15T07:32:22Z</time>
      </trkpt>
      <trkpt lat="45.49981" lon="2.92217">
        <ele>1172.95</ele>
        <time>2021-08-15T07:32:23Z</time>
      </trkpt>
      <trkpt lat="45.4998" lon="2.92216">
        <ele>1173.43</ele>
        <time>2021-08-15T07:32:24Z</time>
      </trkpt>
      <trkpt lat="45.4998" lon="2.92214">
        <ele>1173.43</ele>
        <time>2021-08-15T07:32:25Z</time>
      </trkpt>
      <trkpt lat="45.4998" lon="2.92213">
        <ele>1173.43</ele>
        <time>2021-08-15T07:32:26Z</time>
      </trkpt>
      <trkpt lat="45.49979" lon="2.92211">
        <ele>1173.43</ele>
        <time>2021-08-15T07:32:27Z</time>
      </trkpt>
      <trkpt lat="45.49979" lon="2.92209">
        <ele>1172.95</ele>
        <time>2021-08-15T07:32:28Z</time>
      </trkpt>
      <trkpt lat="45.49978" lon="2.92208">
        <ele>1172.95</ele>
        <time>2021-08-15T07:32:29Z</time>
      </trkpt>
      <trkpt lat="45.49978" lon="2.92206">
        <ele>1172.95</ele>
        <time>2021-08-15T07:32:30Z</time>
      </trkpt>
      <trkpt lat="45.49977" lon="2.92205">
        <ele>1172.95</ele>
        <time>2021-08-15T07:32:31Z</time>
      </trkpt>
      <trkpt lat="45.49976" lon="2.92203">
        <ele>1173.91</ele>
        <time>2021-08-15T07:32:32Z</time>
      </trkpt>
      <trkpt lat="45.49975" lon="2.92202">
        <ele>1173.91</ele>
        <time>2021-08-15T07:32:33Z</time>
      </trkpt>
      <trkpt lat="45.49975" lon="2.92201">
        <ele>1174.39</ele>
        <time>2021-08-15T07:32:34Z</time>
      </trkpt>
      <trkpt lat="45.49974" lon="2.92199">
        <ele>1174.39</ele>
        <time>2021-08-15T07:32:35Z</time>
      </trkpt>
      <trkpt lat="45.49974" lon="2.92197">
        <ele>1174.39</ele>
        <time>2021-08-15T07:32:36Z</time>
      </trkpt>
      <trkpt lat="45.49973" lon="2.92196">
        <ele>1174.39</ele>
        <time>2021-08-15T07:32:37Z</time>
      </trkpt>
      <trkpt lat="45.49965" lon="2.92181">
        <ele>1174.87</ele>
        <time>2021-08-15T07:32:47Z</time>
      </trkpt>
      <trkpt lat="45.49956" lon="2.92166">
        <ele>1174.87</ele>
        <time>2021-08-15T07:32:56Z</time>
      </trkpt>
      <trkpt lat="45.49943" lon="2.92147">
        <ele>1174.87</ele>
        <time>2021-08-15T07:33:06Z</time>
      </trkpt>
      <trkpt lat="45.49927" lon="2.9213">
        <ele>1174.87</ele>
        <time>2021-08-15T07:33:14Z</time>
      </trkpt>
      <trkpt lat="45.49922" lon="2.92127">
        <ele>1174.87</ele>
        <time>2021-08-15T07:33:17Z</time>
      </trkpt>
      <trkpt lat="45.49921" lon="2.92126">
        <ele>1174.87</ele>
        <time>2021-08-15T07:33:18Z</time>
      </trkpt>
      <trkpt lat="45.4992" lon="2.92124">
        <ele>1174.87</ele>
        <time>2021-08-15T07:33:19Z</time>
      </trkpt>
      <trkpt lat="45.49919" lon="2.92122">
        <ele>1174.87</ele>
        <time>2021-08-15T07:33:20Z</time>
      </trkpt>
      <trkpt lat="45.49918" lon="2.92121">
        <ele>1174.87</ele>
        <time>2021-08-15T07:33:21Z</time>
      </trkpt>
      <trkpt lat="45.49916" lon="2.9212">
        <ele>1174.87</ele>
        <time>2021-08-15T07:33:22Z</time>
      </trkpt>
      <trkpt lat="45.49915" lon="2.92118">
        <ele>1174.87</ele>
        <time>2021-08-15T07:33:23Z</time>
      </trkpt>
      <trkpt lat="45.49903" lon="2.92103">
        <ele>1175.35</ele>
        <time>2021-08-15T07:33:31Z</time>
      </trkpt>
      <trkpt lat="45.49894" lon="2.92085">
        <ele>1176.31</ele>
        <time>2021-08-15T07:33:39Z</time>
      </trkpt>
      <trkpt lat="45.49888" lon="2.92057">
        <ele>1176.31</ele>
        <time>2021-08-15T07:33:48Z</time>
      </trkpt>
      <trkpt lat="45.4989" lon="2.92026">
        <ele>1176.79</ele>
        <time>2021-08-15T07:33:57Z</time>
      </trkpt>
      <trkpt lat="45.49894" lon="2.91997">
        <ele>1177.75</ele>
        <time>2021-08-15T07:34:07Z</time>
      </trkpt>
      <trkpt lat="45.49897" lon="2.91982">
        <ele>1178.71</ele>
        <time>2021-08-15T07:34:13Z</time>
      </trkpt>
      <trkpt lat="45.499" lon="2.91957">
        <ele>1179.19</ele>
        <time>2021-08-15T07:34:23Z</time>
      </trkpt>
      <trkpt lat="45.49904" lon="2.9194">
        <ele>1180.16</ele>
        <time>2021-08-15T07:34:31Z</time>
      </trkpt>
      <trkpt lat="45.49909" lon="2.9192">
        <ele>1182.08</ele>
        <time>2021-08-15T07:34:41Z</time>
      </trkpt>
      <trkpt lat="45.4991" lon="2.91918">
        <ele>1182.08</ele>
        <time>2021-08-15T07:34:42Z</time>
      </trkpt>
      <trkpt lat="45.4991" lon="2.91917">
        <ele>1182.08</ele>
        <time>2021-08-15T07:34:43Z</time>
      </trkpt>
      <trkpt lat="45.49912" lon="2.91908">
        <ele>1182.56</ele>
        <time>2021-08-15T07:34:48Z</time>
      </trkpt>
      <trkpt lat="45.49913" lon="2.91907">
        <ele>1182.56</ele>
        <time>2021-08-15T07:34:49Z</time>
      </trkpt>
      <trkpt lat="45.49915" lon="2.91903">
        <ele>1183.52</ele>
        <time>2021-08-15T07:34:52Z</time>
      </trkpt>
      <trkpt lat="45.49916" lon="2.91901">
        <ele>1183.52</ele>
        <time>2021-08-15T07:34:53Z</time>
      </trkpt>
      <trkpt lat="45.49916" lon="2.919">
        <ele>1183.52</ele>
        <time>2021-08-15T07:34:54Z</time>
      </trkpt>
      <trkpt lat="45.49917" lon="2.91898">
        <ele>1183.52</ele>
        <time>2021-08-15T07:34:55Z</time>
      </trkpt>
      <trkpt lat="45.49918" lon="2.91897">
        <ele>1184</ele>
        <time>2021-08-15T07:34:56Z</time>
      </trkpt>
      <trkpt lat="45.49919" lon="2.91895">
        <ele>1184</ele>
        <time>2021-08-15T07:34:57Z</time>
      </trkpt>
      <trkpt lat="45.49919" lon="2.91894">
        <ele>1184</ele>
        <time>2021-08-15T07:34:58Z</time>
      </trkpt>
      <trkpt lat="45.4992" lon="2.91892">
        <ele>1184</ele>
        <time>2021-08-15T07:34:59Z</time>
      </trkpt>
      <trkpt lat="45.49921" lon="2.91891">
        <ele>1184</ele>
        <time>2021-08-15T07:35:00Z</time>
      </trkpt>
      <trkpt lat="45.49921" lon="2.91889">
        <ele>1184.96</ele>
        <time>2021-08-15T07:35:01Z</time>
      </trkpt>
      <trkpt lat="45.49922" lon="2.91888">
        <ele>1185.44</ele>
        <time>2021-08-15T07:35:02Z</time>
      </trkpt>
      <trkpt lat="45.49922" lon="2.91886">
        <ele>1185.44</ele>
        <time>2021-08-15T07:35:03Z</time>
      </trkpt>
      <trkpt lat="45.49922" lon="2.91884">
        <ele>1185.44</ele>
        <time>2021-08-15T07:35:04Z</time>
      </trkpt>
      <trkpt lat="45.49923" lon="2.91883">
        <ele>1185.44</ele>
        <time>2021-08-15T07:35:05Z</time>
      </trkpt>
      <trkpt lat="45.49923" lon="2.91881">
        <ele>1185.44</ele>
        <time>2021-08-15T07:35:06Z</time>
      </trkpt>
      <trkpt lat="45.49923" lon="2.9188">
        <ele>1185.92</ele>
        <time>2021-08-15T07:35:07Z</time>
      </trkpt>
      <trkpt lat="45.49923" lon="2.91878">
        <ele>1185.92</ele>
        <time>2021-08-15T07:35:08Z</time>
      </trkpt>
      <trkpt lat="45.49923" lon="2.91876">
        <ele>1185.92</ele>
        <time>2021-08-15T07:35:09Z</time>
      </trkpt>
      <trkpt lat="45.49923" lon="2.91875">
        <ele>1186.4</ele>
        <time>2021-08-15T07:35:10Z</time>
      </trkpt>
      <trkpt lat="45.49924" lon="2.91873">
        <ele>1186.4</ele>
        <time>2021-08-15T07:35:11Z</time>
      </trkpt>
      <trkpt lat="45.49924" lon="2.91871">
        <ele>1186.4</ele>
        <time>2021-08-15T07:35:12Z</time>
      </trkpt>
      <trkpt lat="45.49926" lon="2.91866">
        <ele>1186.88</ele>
        <time>2021-08-15T07:35:15Z</time>
      </trkpt>
      <trkpt lat="45.49926" lon="2.91864">
        <ele>1186.88</ele>
        <time>2021-08-15T07:35:16Z</time>
      </trkpt>
      <trkpt lat="45.49927" lon="2.91863">
        <ele>1186.88</ele>
        <time>2021-08-15T07:35:17Z</time>
      </trkpt>
      <trkpt lat="45.49928" lon="2.91861">
        <ele>1187.37</ele>
        <time>2021-08-15T07:35:18Z</time>
      </trkpt>
      <trkpt lat="45.49928" lon="2.91859">
        <ele>1187.37</ele>
        <time>2021-08-15T07:35:19Z</time>
      </trkpt>
      <trkpt lat="45.49929" lon="2.91858">
        <ele>1187.37</ele>
        <time>2021-08-15T07:35:20Z</time>
      </trkpt>
      <trkpt lat="45.49933" lon="2.91844">
        <ele>1188.33</ele>
        <time>2021-08-15T07:35:27Z</time>
      </trkpt>
      <trkpt lat="45.49939" lon="2.91825">
        <ele>1189.29</ele>
        <time>2021-08-15T07:35:36Z</time>
      </trkpt>
      <trkpt lat="45.49943" lon="2.91811">
        <ele>1190.25</ele>
        <time>2021-08-15T07:35:43Z</time>
      </trkpt>
      <trkpt lat="45.49948" lon="2.91796">
        <ele>1191.21</ele>
        <time>2021-08-15T07:35:51Z</time>
      </trkpt>
      <trkpt lat="45.49956" lon="2.91772">
        <ele>1192.17</ele>
        <time>2021-08-15T07:36:01Z</time>
      </trkpt>
      <trkpt lat="45.4996" lon="2.91755">
        <ele>1193.13</ele>
        <time>2021-08-15T07:36:09Z</time>
      </trkpt>
      <trkpt lat="45.49961" lon="2.91753">
        <ele>1192.65</ele>
        <time>2021-08-15T07:36:10Z</time>
      </trkpt>
      <trkpt lat="45.49969" lon="2.91732">
        <ele>1193.61</ele>
        <time>2021-08-15T07:36:20Z</time>
      </trkpt>
      <trkpt lat="45.49977" lon="2.9171">
        <ele>1195.06</ele>
        <time>2021-08-15T07:36:30Z</time>
      </trkpt>
      <trkpt lat="45.49983" lon="2.91694">
        <ele>1194.58</ele>
        <time>2021-08-15T07:36:37Z</time>
      </trkpt>
      <trkpt lat="45.49989" lon="2.91675">
        <ele>1196.02</ele>
        <time>2021-08-15T07:36:46Z</time>
      </trkpt>
      <trkpt lat="45.4999" lon="2.91674">
        <ele>1196.02</ele>
        <time>2021-08-15T07:36:47Z</time>
      </trkpt>
      <trkpt lat="45.49991" lon="2.91672">
        <ele>1197.46</ele>
        <time>2021-08-15T07:36:48Z</time>
      </trkpt>
      <trkpt lat="45.49992" lon="2.9167">
        <ele>1197.46</ele>
        <time>2021-08-15T07:36:49Z</time>
      </trkpt>
      <trkpt lat="45.49993" lon="2.91668">
        <ele>1197.46</ele>
        <time>2021-08-15T07:36:50Z</time>
      </trkpt>
      <trkpt lat="45.49994" lon="2.91667">
        <ele>1197.46</ele>
        <time>2021-08-15T07:36:51Z</time>
      </trkpt>
      <trkpt lat="45.49994" lon="2.91665">
        <ele>1198.42</ele>
        <time>2021-08-15T07:36:52Z</time>
      </trkpt>
      <trkpt lat="45.49995" lon="2.91663">
        <ele>1198.42</ele>
        <time>2021-08-15T07:36:53Z</time>
      </trkpt>
      <trkpt lat="45.49995" lon="2.91661">
        <ele>1198.42</ele>
        <time>2021-08-15T07:36:54Z</time>
      </trkpt>
      <trkpt lat="45.49995" lon="2.91659">
        <ele>1198.42</ele>
        <time>2021-08-15T07:36:55Z</time>
      </trkpt>
      <trkpt lat="45.49996" lon="2.91657">
        <ele>1198.42</ele>
        <time>2021-08-15T07:36:56Z</time>
      </trkpt>
      <trkpt lat="45.50001" lon="2.91647">
        <ele>1196.02</ele>
        <time>2021-08-15T07:37:00Z</time>
      </trkpt>
      <trkpt lat="45.50012" lon="2.91605">
        <ele>1194.09</ele>
        <time>2021-08-15T07:37:09Z</time>
      </trkpt>
      <trkpt lat="45.50017" lon="2.9158">
        <ele>1195.54</ele>
        <time>2021-08-15T07:37:15Z</time>
      </trkpt>
      <trkpt lat="45.50016" lon="2.91551">
        <ele>1195.54</ele>
        <time>2021-08-15T07:37:24Z</time>
      </trkpt>
      <trkpt lat="45.50012" lon="2.91525">
        <ele>1197.46</ele>
        <time>2021-08-15T07:37:33Z</time>
      </trkpt>
      <trkpt lat="45.5001" lon="2.9152">
        <ele>1195.54</ele>
        <time>2021-08-15T07:37:35Z</time>
      </trkpt>
      <trkpt lat="45.50007" lon="2.91498">
        <ele>1195.06</ele>
        <time>2021-08-15T07:37:41Z</time>
      </trkpt>
      <trkpt lat="45.50004" lon="2.91477">
        <ele>1193.13</ele>
        <time>2021-08-15T07:37:45Z</time>
      </trkpt>
      <trkpt lat="45.5" lon="2.91453">
        <ele>1194.58</ele>
        <time>2021-08-15T07:37:50Z</time>
      </trkpt>
      <trkpt lat="45.5" lon="2.91449">
        <ele>1194.58</ele>
        <time>2021-08-15T07:37:51Z</time>
      </trkpt>
      <trkpt lat="45.49997" lon="2.91423">
        <ele>1195.06</ele>
        <time>2021-08-15T07:37:58Z</time>
      </trkpt>
      <trkpt lat="45.49992" lon="2.91391">
        <ele>1193.61</ele>
        <time>2021-08-15T07:38:06Z</time>
      </trkpt>
      <trkpt lat="45.49988" lon="2.91375">
        <ele>1195.06</ele>
        <time>2021-08-15T07:38:10Z</time>
      </trkpt>
      <trkpt lat="45.49985" lon="2.91355">
        <ele>1195.54</ele>
        <time>2021-08-15T07:38:16Z</time>
      </trkpt>
      <trkpt lat="45.49984" lon="2.91342">
        <ele>1195.54</ele>
        <time>2021-08-15T07:38:21Z</time>
      </trkpt>
      <trkpt lat="45.4998" lon="2.91312">
        <ele>1196.98</ele>
        <time>2021-08-15T07:38:31Z</time>
      </trkpt>
      <trkpt lat="45.49977" lon="2.91287">
        <ele>1197.46</ele>
        <time>2021-08-15T07:38:38Z</time>
      </trkpt>
      <trkpt lat="45.49973" lon="2.91263">
        <ele>1197.46</ele>
        <time>2021-08-15T07:38:46Z</time>
      </trkpt>
      <trkpt lat="45.49971" lon="2.91251">
        <ele>1198.9</ele>
        <time>2021-08-15T07:38:52Z</time>
      </trkpt>
      <trkpt lat="45.49968" lon="2.91234">
        <ele>1199.38</ele>
        <time>2021-08-15T07:39:00Z</time>
      </trkpt>
      <trkpt lat="45.49964" lon="2.91219">
        <ele>1199.86</ele>
        <time>2021-08-15T07:39:07Z</time>
      </trkpt>
      <trkpt lat="45.49962" lon="2.912">
        <ele>1200.82</ele>
        <time>2021-08-15T07:39:15Z</time>
      </trkpt>
      <trkpt lat="45.49959" lon="2.91188">
        <ele>1201.79</ele>
        <time>2021-08-15T07:39:20Z</time>
      </trkpt>
      <trkpt lat="45.49958" lon="2.91179">
        <ele>1199.38</ele>
        <time>2021-08-15T07:39:24Z</time>
      </trkpt>
      <trkpt lat="45.49956" lon="2.91173">
        <ele>1201.3</ele>
        <time>2021-08-15T07:39:27Z</time>
      </trkpt>
      <trkpt lat="45.49955" lon="2.91169">
        <ele>1202.27</ele>
        <time>2021-08-15T07:39:29Z</time>
      </trkpt>
      <trkpt lat="45.49955" lon="2.91167">
        <ele>1202.27</ele>
        <time>2021-08-15T07:39:30Z</time>
      </trkpt>
      <trkpt lat="45.49954" lon="2.91157">
        <ele>1202.75</ele>
        <time>2021-08-15T07:39:35Z</time>
      </trkpt>
      <trkpt lat="45.49954" lon="2.91155">
        <ele>1202.75</ele>
        <time>2021-08-15T07:39:36Z</time>
      </trkpt>
      <trkpt lat="45.49953" lon="2.91153">
        <ele>1202.75</ele>
        <time>2021-08-15T07:39:37Z</time>
      </trkpt>
      <trkpt lat="45.49949" lon="2.91127">
        <ele>1203.71</ele>
        <time>2021-08-15T07:39:48Z</time>
      </trkpt>
      <trkpt lat="45.49945" lon="2.91099">
        <ele>1202.27</ele>
        <time>2021-08-15T07:39:56Z</time>
      </trkpt>
      <trkpt lat="45.49944" lon="2.9109">
        <ele>1201.3</ele>
        <time>2021-08-15T07:39:58Z</time>
      </trkpt>
      <trkpt lat="45.49938" lon="2.91062">
        <ele>1199.38</ele>
        <time>2021-08-15T07:40:03Z</time>
      </trkpt>
      <trkpt lat="45.49937" lon="2.91056">
        <ele>1199.38</ele>
        <time>2021-08-15T07:40:04Z</time>
      </trkpt>
      <trkpt lat="45.49934" lon="2.91038">
        <ele>1200.82</ele>
        <time>2021-08-15T07:40:07Z</time>
      </trkpt>
      <trkpt lat="45.49933" lon="2.91033">
        <ele>1200.82</ele>
        <time>2021-08-15T07:40:08Z</time>
      </trkpt>
      <trkpt lat="45.4993" lon="2.91014">
        <ele>1199.38</ele>
        <time>2021-08-15T07:40:11Z</time>
      </trkpt>
      <trkpt lat="45.49928" lon="2.90997">
        <ele>1200.82</ele>
        <time>2021-08-15T07:40:15Z</time>
      </trkpt>
      <trkpt lat="45.49927" lon="2.90972">
        <ele>1201.3</ele>
        <time>2021-08-15T07:40:24Z</time>
      </trkpt>
      <trkpt lat="45.49927" lon="2.9097">
        <ele>1202.27</ele>
        <time>2021-08-15T07:40:25Z</time>
      </trkpt>
      <trkpt lat="45.49934" lon="2.90948">
        <ele>1202.27</ele>
        <time>2021-08-15T07:40:33Z</time>
      </trkpt>
      <trkpt lat="45.49935" lon="2.90946">
        <ele>1202.27</ele>
        <time>2021-08-15T07:40:34Z</time>
      </trkpt>
      <trkpt lat="45.49941" lon="2.90937">
        <ele>1202.75</ele>
        <time>2021-08-15T07:40:41Z</time>
      </trkpt>
      <trkpt lat="45.49945" lon="2.90928">
        <ele>1204.19</ele>
        <time>2021-08-15T07:40:51Z</time>
      </trkpt>
      <trkpt lat="45.49948" lon="2.90919">
        <ele>1205.15</ele>
        <time>2021-08-15T07:41:01Z</time>
      </trkpt>
      <trkpt lat="45.49949" lon="2.90913">
        <ele>1206.59</ele>
        <time>2021-08-15T07:41:07Z</time>
      </trkpt>
      <trkpt lat="45.4995" lon="2.90906">
        <ele>1207.07</ele>
        <time>2021-08-15T07:41:12Z</time>
      </trkpt>
      <trkpt lat="45.49954" lon="2.90897">
        <ele>1208.03</ele>
        <time>2021-08-15T07:41:20Z</time>
      </trkpt>
      <trkpt lat="45.49955" lon="2.90896">
        <ele>1208.51</ele>
        <time>2021-08-15T07:41:22Z</time>
      </trkpt>
      <trkpt lat="45.49958" lon="2.90892">
        <ele>1209</ele>
        <time>2021-08-15T07:41:27Z</time>
      </trkpt>
      <trkpt lat="45.49959" lon="2.90891">
        <ele>1209.96</ele>
        <time>2021-08-15T07:41:28Z</time>
      </trkpt>
      <trkpt lat="45.4996" lon="2.9089">
        <ele>1209.96</ele>
        <time>2021-08-15T07:41:29Z</time>
      </trkpt>
      <trkpt lat="45.49962" lon="2.90889">
        <ele>1210.44</ele>
        <time>2021-08-15T07:41:30Z</time>
      </trkpt>
      <trkpt lat="45.49963" lon="2.90888">
        <ele>1210.44</ele>
        <time>2021-08-15T07:41:31Z</time>
      </trkpt>
      <trkpt lat="45.49964" lon="2.90887">
        <ele>1210.44</ele>
        <time>2021-08-15T07:41:32Z</time>
      </trkpt>
      <trkpt lat="45.49968" lon="2.90879">
        <ele>1209</ele>
        <time>2021-08-15T07:41:39Z</time>
      </trkpt>
      <trkpt lat="45.49968" lon="2.90878">
        <ele>1209</ele>
        <time>2021-08-15T07:41:40Z</time>
      </trkpt>
      <trkpt lat="45.49966" lon="2.90874">
        <ele>1209.96</ele>
        <time>2021-08-15T07:41:44Z</time>
      </trkpt>
      <trkpt lat="45.4996" lon="2.90869">
        <ele>1210.44</ele>
        <time>2021-08-15T07:41:54Z</time>
      </trkpt>
      <trkpt lat="45.49959" lon="2.90871">
        <ele>1210.44</ele>
        <time>2021-08-15T07:42:07Z</time>
      </trkpt>
      <trkpt lat="45.4996" lon="2.9087">
        <ele>1210.92</ele>
        <time>2021-08-15T07:42:21Z</time>
      </trkpt>
      <trkpt lat="45.4996" lon="2.9087">
        <ele>1210.92</ele>
        <time>2021-08-15T07:42:33Z</time>
      </trkpt>
      <trkpt lat="45.4996" lon="2.90871">
        <ele>1211.4</ele>
        <time>2021-08-15T07:42:43Z</time>
      </trkpt>
      <trkpt lat="45.49959" lon="2.90869">
        <ele>1211.88</ele>
        <time>2021-08-15T07:42:51Z</time>
      </trkpt>
      <trkpt lat="45.49958" lon="2.90869">
        <ele>1211.88</ele>
        <time>2021-08-15T07:43:04Z</time>
      </trkpt>
      <trkpt lat="45.49957" lon="2.90868">
        <ele>1209.96</ele>
        <time>2021-08-15T07:43:06Z</time>
      </trkpt>
      <trkpt lat="45.49955" lon="2.90867">
        <ele>1209.96</ele>
        <time>2021-08-15T07:43:08Z</time>
      </trkpt>
      <trkpt lat="45.49954" lon="2.90866">
        <ele>1211.4</ele>
        <time>2021-08-15T07:43:09Z</time>
      </trkpt>
      <trkpt lat="45.49953" lon="2.90866">
        <ele>1211.4</ele>
        <time>2021-08-15T07:43:10Z</time>
      </trkpt>
      <trkpt lat="45.49952" lon="2.90865">
        <ele>1211.4</ele>
        <time>2021-08-15T07:43:11Z</time>
      </trkpt>
      <trkpt lat="45.4995" lon="2.90862">
        <ele>1211.4</ele>
        <time>2021-08-15T07:43:13Z</time>
      </trkpt>
      <trkpt lat="45.49949" lon="2.90861">
        <ele>1211.88</ele>
        <time>2021-08-15T07:43:14Z</time>
      </trkpt>
      <trkpt lat="45.49948" lon="2.90861">
        <ele>1211.88</ele>
        <time>2021-08-15T07:43:15Z</time>
      </trkpt>
      <trkpt lat="45.49947" lon="2.90861">
        <ele>1212.84</ele>
        <time>2021-08-15T07:43:16Z</time>
      </trkpt>
      <trkpt lat="45.49946" lon="2.90861">
        <ele>1212.84</ele>
        <time>2021-08-15T07:43:17Z</time>
      </trkpt>
      <trkpt lat="45.49945" lon="2.9086">
        <ele>1212.84</ele>
        <time>2021-08-15T07:43:18Z</time>
      </trkpt>
      <trkpt lat="45.49943" lon="2.9086">
        <ele>1213.32</ele>
        <time>2021-08-15T07:43:24Z</time>
      </trkpt>
      <trkpt lat="45.49939" lon="2.90857">
        <ele>1213.32</ele>
        <time>2021-08-15T07:43:32Z</time>
      </trkpt>
      <trkpt lat="45.49938" lon="2.90857">
        <ele>1213.32</ele>
        <time>2021-08-15T07:43:33Z</time>
      </trkpt>
      <trkpt lat="45.49929" lon="2.90851">
        <ele>1214.28</ele>
        <time>2021-08-15T07:43:40Z</time>
      </trkpt>
      <trkpt lat="45.49918" lon="2.90841">
        <ele>1214.28</ele>
        <time>2021-08-15T07:43:49Z</time>
      </trkpt>
      <trkpt lat="45.49907" lon="2.90826">
        <ele>1215.72</ele>
        <time>2021-08-15T07:43:58Z</time>
      </trkpt>
      <trkpt lat="45.49905" lon="2.90822">
        <ele>1216.69</ele>
        <time>2021-08-15T07:44:00Z</time>
      </trkpt>
      <trkpt lat="45.49896" lon="2.90805">
        <ele>1215.72</ele>
        <time>2021-08-15T07:44:09Z</time>
      </trkpt>
      <trkpt lat="45.4989" lon="2.90792">
        <ele>1217.17</ele>
        <time>2021-08-15T07:44:15Z</time>
      </trkpt>
      <trkpt lat="45.49886" lon="2.90778">
        <ele>1217.65</ele>
        <time>2021-08-15T07:44:21Z</time>
      </trkpt>
      <trkpt lat="45.49885" lon="2.90775">
        <ele>1217.65</ele>
        <time>2021-08-15T07:44:22Z</time>
      </trkpt>
      <trkpt lat="45.49884" lon="2.90773">
        <ele>1217.65</ele>
        <time>2021-08-15T07:44:23Z</time>
      </trkpt>
      <trkpt lat="45.49883" lon="2.90771">
        <ele>1217.65</ele>
        <time>2021-08-15T07:44:24Z</time>
      </trkpt>
      <trkpt lat="45.49882" lon="2.90769">
        <ele>1217.65</ele>
        <time>2021-08-15T07:44:25Z</time>
      </trkpt>
      <trkpt lat="45.49881" lon="2.90767">
        <ele>1217.65</ele>
        <time>2021-08-15T07:44:26Z</time>
      </trkpt>
      <trkpt lat="45.49881" lon="2.90765">
        <ele>1217.65</ele>
        <time>2021-08-15T07:44:27Z</time>
      </trkpt>
      <trkpt lat="45.49877" lon="2.90756">
        <ele>1217.65</ele>
        <time>2021-08-15T07:44:31Z</time>
      </trkpt>
      <trkpt lat="45.49875" lon="2.9075">
        <ele>1218.13</ele>
        <time>2021-08-15T07:44:34Z</time>
      </trkpt>
      <trkpt lat="45.49874" lon="2.90748">
        <ele>1218.13</ele>
        <time>2021-08-15T07:44:35Z</time>
      </trkpt>
      <trkpt lat="45.49866" lon="2.90729">
        <ele>1219.09</ele>
        <time>2021-08-15T07:44:44Z</time>
      </trkpt>
      <trkpt lat="45.49854" lon="2.90707">
        <ele>1219.57</ele>
        <time>2021-08-15T07:44:55Z</time>
      </trkpt>
      <trkpt lat="45.49853" lon="2.90706">
        <ele>1219.57</ele>
        <time>2021-08-15T07:44:56Z</time>
      </trkpt>
      <trkpt lat="45.49848" lon="2.90702">
        <ele>1221.01</ele>
        <time>2021-08-15T07:44:59Z</time>
      </trkpt>
      <trkpt lat="45.4983" lon="2.90682">
        <ele>1221.49</ele>
        <time>2021-08-15T07:45:12Z</time>
      </trkpt>
      <trkpt lat="45.49815" lon="2.90665">
        <ele>1221.01</ele>
        <time>2021-08-15T07:45:21Z</time>
      </trkpt>
      <trkpt lat="45.49812" lon="2.90662">
        <ele>1221.97</ele>
        <time>2021-08-15T07:45:23Z</time>
      </trkpt>
      <trkpt lat="45.49795" lon="2.90651">
        <ele>1222.93</ele>
        <time>2021-08-15T07:45:30Z</time>
      </trkpt>
      <trkpt lat="45.49778" lon="2.90641">
        <ele>1219.09</ele>
        <time>2021-08-15T07:45:36Z</time>
      </trkpt>
      <trkpt lat="45.49752" lon="2.90626">
        <ele>1221.49</ele>
        <time>2021-08-15T07:45:46Z</time>
      </trkpt>
      <trkpt lat="45.49731" lon="2.90613">
        <ele>1222.45</ele>
        <time>2021-08-15T07:45:55Z</time>
      </trkpt>
      <trkpt lat="45.49707" lon="2.90597">
        <ele>1223.42</ele>
        <time>2021-08-15T07:46:06Z</time>
      </trkpt>
      <trkpt lat="45.49685" lon="2.90583">
        <ele>1223.9</ele>
        <time>2021-08-15T07:46:16Z</time>
      </trkpt>
      <trkpt lat="45.49671" lon="2.90574">
        <ele>1222.93</ele>
        <time>2021-08-15T07:46:23Z</time>
      </trkpt>
      <trkpt lat="45.49667" lon="2.90572">
        <ele>1224.38</ele>
        <time>2021-08-15T07:46:25Z</time>
      </trkpt>
      <trkpt lat="45.49649" lon="2.90559">
        <ele>1225.34</ele>
        <time>2021-08-15T07:46:34Z</time>
      </trkpt>
      <trkpt lat="45.49632" lon="2.90543">
        <ele>1226.3</ele>
        <time>2021-08-15T07:46:43Z</time>
      </trkpt>
      <trkpt lat="45.49618" lon="2.90523">
        <ele>1226.78</ele>
        <time>2021-08-15T07:46:52Z</time>
      </trkpt>
      <trkpt lat="45.4961" lon="2.90511">
        <ele>1227.74</ele>
        <time>2021-08-15T07:46:59Z</time>
      </trkpt>
      <trkpt lat="45.49609" lon="2.90509">
        <ele>1227.74</ele>
        <time>2021-08-15T07:47:00Z</time>
      </trkpt>
      <trkpt lat="45.49608" lon="2.90508">
        <ele>1227.74</ele>
        <time>2021-08-15T07:47:01Z</time>
      </trkpt>
      <trkpt lat="45.49607" lon="2.90506">
        <ele>1227.74</ele>
        <time>2021-08-15T07:47:02Z</time>
      </trkpt>
      <trkpt lat="45.49605" lon="2.90504">
        <ele>1227.74</ele>
        <time>2021-08-15T07:47:03Z</time>
      </trkpt>
      <trkpt lat="45.49604" lon="2.90503">
        <ele>1228.7</ele>
        <time>2021-08-15T07:47:04Z</time>
      </trkpt>
      <trkpt lat="45.49597" lon="2.90493">
        <ele>1229.18</ele>
        <time>2021-08-15T07:47:10Z</time>
      </trkpt>
      <trkpt lat="45.49585" lon="2.90476">
        <ele>1229.66</ele>
        <time>2021-08-15T07:47:22Z</time>
      </trkpt>
      <trkpt lat="45.49577" lon="2.90465">
        <ele>1232.07</ele>
        <time>2021-08-15T07:47:30Z</time>
      </trkpt>
      <trkpt lat="45.49576" lon="2.90462">
        <ele>1232.07</ele>
        <time>2021-08-15T07:47:32Z</time>
      </trkpt>
      <trkpt lat="45.49575" lon="2.9046">
        <ele>1232.07</ele>
        <time>2021-08-15T07:47:33Z</time>
      </trkpt>
      <trkpt lat="45.49568" lon="2.90452">
        <ele>1232.55</ele>
        <time>2021-08-15T07:47:40Z</time>
      </trkpt>
      <trkpt lat="45.49568" lon="2.9045">
        <ele>1232.55</ele>
        <time>2021-08-15T07:47:41Z</time>
      </trkpt>
      <trkpt lat="45.49567" lon="2.90449">
        <ele>1233.03</ele>
        <time>2021-08-15T07:47:42Z</time>
      </trkpt>
      <trkpt lat="45.49566" lon="2.90448">
        <ele>1233.99</ele>
        <time>2021-08-15T07:47:43Z</time>
      </trkpt>
      <trkpt lat="45.49565" lon="2.90447">
        <ele>1233.99</ele>
        <time>2021-08-15T07:47:44Z</time>
      </trkpt>
      <trkpt lat="45.49561" lon="2.90439">
        <ele>1234.47</ele>
        <time>2021-08-15T07:47:50Z</time>
      </trkpt>
      <trkpt lat="45.4956" lon="2.90437">
        <ele>1234.95</ele>
        <time>2021-08-15T07:47:51Z</time>
      </trkpt>
      <trkpt lat="45.49559" lon="2.90436">
        <ele>1234.95</ele>
        <time>2021-08-15T07:47:52Z</time>
      </trkpt>
      <trkpt lat="45.49558" lon="2.90434">
        <ele>1234.95</ele>
        <time>2021-08-15T07:47:53Z</time>
      </trkpt>
      <trkpt lat="45.49552" lon="2.90424">
        <ele>1235.91</ele>
        <time>2021-08-15T07:48:01Z</time>
      </trkpt>
      <trkpt lat="45.49548" lon="2.90419">
        <ele>1237.35</ele>
        <time>2021-08-15T07:48:07Z</time>
      </trkpt>
      <trkpt lat="45.49544" lon="2.90411">
        <ele>1238.32</ele>
        <time>2021-08-15T07:48:15Z</time>
      </trkpt>
      <trkpt lat="45.49538" lon="2.90404">
        <ele>1239.28</ele>
        <time>2021-08-15T07:48:23Z</time>
      </trkpt>
      <trkpt lat="45.49532" lon="2.90396">
        <ele>1240.24</ele>
        <time>2021-08-15T07:48:30Z</time>
      </trkpt>
      <trkpt lat="45.49525" lon="2.90386">
        <ele>1241.2</ele>
        <time>2021-08-15T07:48:39Z</time>
      </trkpt>
      <trkpt lat="45.49517" lon="2.90374">
        <ele>1242.64</ele>
        <time>2021-08-15T07:48:48Z</time>
      </trkpt>
      <trkpt lat="45.49512" lon="2.90367">
        <ele>1243.6</ele>
        <time>2021-08-15T07:48:54Z</time>
      </trkpt>
      <trkpt lat="45.49505" lon="2.90355">
        <ele>1244.56</ele>
        <time>2021-08-15T07:49:04Z</time>
      </trkpt>
      <trkpt lat="45.49505" lon="2.90354">
        <ele>1245.04</ele>
        <time>2021-08-15T07:49:05Z</time>
      </trkpt>
      <trkpt lat="45.49504" lon="2.90353">
        <ele>1245.04</ele>
        <time>2021-08-15T07:49:06Z</time>
      </trkpt>
      <trkpt lat="45.49496" lon="2.90343">
        <ele>1246.97</ele>
        <time>2021-08-15T07:49:16Z</time>
      </trkpt>
      <trkpt lat="45.49495" lon="2.90342">
        <ele>1246.97</ele>
        <time>2021-08-15T07:49:17Z</time>
      </trkpt>
      <trkpt lat="45.4949" lon="2.90333">
        <ele>1247.93</ele>
        <time>2021-08-15T07:49:24Z</time>
      </trkpt>
      <trkpt lat="45.49485" lon="2.90326">
        <ele>1248.89</ele>
        <time>2021-08-15T07:49:31Z</time>
      </trkpt>
      <trkpt lat="45.49478" lon="2.90319">
        <ele>1249.85</ele>
        <time>2021-08-15T07:49:39Z</time>
      </trkpt>
      <trkpt lat="45.49473" lon="2.90312">
        <ele>1251.29</ele>
        <time>2021-08-15T07:49:47Z</time>
      </trkpt>
      <trkpt lat="45.49467" lon="2.90305">
        <ele>1250.81</ele>
        <time>2021-08-15T07:49:53Z</time>
      </trkpt>
      <trkpt lat="45.49463" lon="2.90301">
        <ele>1251.77</ele>
        <time>2021-08-15T07:49:57Z</time>
      </trkpt>
      <trkpt lat="45.4946" lon="2.90298">
        <ele>1253.22</ele>
        <time>2021-08-15T07:50:00Z</time>
      </trkpt>
      <trkpt lat="45.49452" lon="2.90291">
        <ele>1254.66</ele>
        <time>2021-08-15T07:50:08Z</time>
      </trkpt>
      <trkpt lat="45.49449" lon="2.90289">
        <ele>1254.66</ele>
        <time>2021-08-15T07:50:10Z</time>
      </trkpt>
      <trkpt lat="45.49448" lon="2.90288">
        <ele>1254.66</ele>
        <time>2021-08-15T07:50:11Z</time>
      </trkpt>
      <trkpt lat="45.49435" lon="2.90283">
        <ele>1255.14</ele>
        <time>2021-08-15T07:50:20Z</time>
      </trkpt>
      <trkpt lat="45.49423" lon="2.90281">
        <ele>1255.14</ele>
        <time>2021-08-15T07:50:26Z</time>
      </trkpt>
      <trkpt lat="45.49422" lon="2.9028">
        <ele>1255.14</ele>
        <time>2021-08-15T07:50:27Z</time>
      </trkpt>
      <trkpt lat="45.4942" lon="2.9028">
        <ele>1255.62</ele>
        <time>2021-08-15T07:50:28Z</time>
      </trkpt>
      <trkpt lat="45.49417" lon="2.9028">
        <ele>1255.62</ele>
        <time>2021-08-15T07:50:29Z</time>
      </trkpt>
      <trkpt lat="45.49415" lon="2.90279">
        <ele>1255.62</ele>
        <time>2021-08-15T07:50:30Z</time>
      </trkpt>
      <trkpt lat="45.49412" lon="2.90279">
        <ele>1255.62</ele>
        <time>2021-08-15T07:50:31Z</time>
      </trkpt>
      <trkpt lat="45.4939" lon="2.90277">
        <ele>1252.25</ele>
        <time>2021-08-15T07:50:38Z</time>
      </trkpt>
      <trkpt lat="45.49365" lon="2.90273">
        <ele>1251.77</ele>
        <time>2021-08-15T07:50:44Z</time>
      </trkpt>
      <trkpt lat="45.49356" lon="2.90272">
        <ele>1250.81</ele>
        <time>2021-08-15T07:50:46Z</time>
      </trkpt>
      <trkpt lat="45.49311" lon="2.9026">
        <ele>1248.41</ele>
        <time>2021-08-15T07:50:54Z</time>
      </trkpt>
      <trkpt lat="45.49293" lon="2.90254">
        <ele>1246.97</ele>
        <time>2021-08-15T07:50:57Z</time>
      </trkpt>
      <trkpt lat="45.49279" lon="2.90252">
        <ele>1245.53</ele>
        <time>2021-08-15T07:50:59Z</time>
      </trkpt>
      <trkpt lat="45.49227" lon="2.90249">
        <ele>1243.6</ele>
        <time>2021-08-15T07:51:06Z</time>
      </trkpt>
      <trkpt lat="45.49161" lon="2.90249">
        <ele>1242.16</ele>
        <time>2021-08-15T07:51:15Z</time>
      </trkpt>
      <trkpt lat="45.49116" lon="2.9025">
        <ele>1241.2</ele>
        <time>2021-08-15T07:51:22Z</time>
      </trkpt>
      <trkpt lat="45.49067" lon="2.9025">
        <ele>1240.24</ele>
        <time>2021-08-15T07:51:31Z</time>
      </trkpt>
      <trkpt lat="45.49037" lon="2.9025">
        <ele>1239.76</ele>
        <time>2021-08-15T07:51:37Z</time>
      </trkpt>
      <trkpt lat="45.49032" lon="2.90249">
        <ele>1239.76</ele>
        <time>2021-08-15T07:51:38Z</time>
      </trkpt>
      <trkpt lat="45.49027" lon="2.90248">
        <ele>1239.76</ele>
        <time>2021-08-15T07:51:39Z</time>
      </trkpt>
      <trkpt lat="45.4901" lon="2.9024">
        <ele>1240.72</ele>
        <time>2021-08-15T07:51:43Z</time>
      </trkpt>
      <trkpt lat="45.48987" lon="2.90223">
        <ele>1243.6</ele>
        <time>2021-08-15T07:51:51Z</time>
      </trkpt>
      <trkpt lat="45.48969" lon="2.90209">
        <ele>1245.53</ele>
        <time>2021-08-15T07:51:59Z</time>
      </trkpt>
      <trkpt lat="45.48956" lon="2.90199">
        <ele>1246.49</ele>
        <time>2021-08-15T07:52:05Z</time>
      </trkpt>
      <trkpt lat="45.48954" lon="2.90197">
        <ele>1246.49</ele>
        <time>2021-08-15T07:52:06Z</time>
      </trkpt>
      <trkpt lat="45.48953" lon="2.90196">
        <ele>1246.49</ele>
        <time>2021-08-15T07:52:07Z</time>
      </trkpt>
      <trkpt lat="45.4893" lon="2.90182">
        <ele>1247.93</ele>
        <time>2021-08-15T07:52:17Z</time>
      </trkpt>
      <trkpt lat="45.48915" lon="2.90173">
        <ele>1245.53</ele>
        <time>2021-08-15T07:52:22Z</time>
      </trkpt>
      <trkpt lat="45.48881" lon="2.90158">
        <ele>1243.12</ele>
        <time>2021-08-15T07:52:29Z</time>
      </trkpt>
      <trkpt lat="45.48827" lon="2.90134">
        <ele>1240.24</ele>
        <time>2021-08-15T07:52:38Z</time>
      </trkpt>
      <trkpt lat="45.48764" lon="2.90105">
        <ele>1239.76</ele>
        <time>2021-08-15T07:52:49Z</time>
      </trkpt>
      <trkpt lat="45.48698" lon="2.90076">
        <ele>1238.8</ele>
        <time>2021-08-15T07:53:01Z</time>
      </trkpt>
      <trkpt lat="45.48692" lon="2.90073">
        <ele>1238.8</ele>
        <time>2021-08-15T07:53:02Z</time>
      </trkpt>
      <trkpt lat="45.48682" lon="2.90065">
        <ele>1236.39</ele>
        <time>2021-08-15T07:53:04Z</time>
      </trkpt>
      <trkpt lat="45.48678" lon="2.90061">
        <ele>1235.91</ele>
        <time>2021-08-15T07:53:05Z</time>
      </trkpt>
      <trkpt lat="45.48675" lon="2.90054">
        <ele>1235.43</ele>
        <time>2021-08-15T07:53:06Z</time>
      </trkpt>
      <trkpt lat="45.48675" lon="2.90048">
        <ele>1235.43</ele>
        <time>2021-08-15T07:53:07Z</time>
      </trkpt>
      <trkpt lat="45.48675" lon="2.90044">
        <ele>1235.43</ele>
        <time>2021-08-15T07:53:08Z</time>
      </trkpt>
      <trkpt lat="45.48677" lon="2.90039">
        <ele>1235.43</ele>
        <time>2021-08-15T07:53:09Z</time>
      </trkpt>
      <trkpt lat="45.48679" lon="2.90035">
        <ele>1235.43</ele>
        <time>2021-08-15T07:53:10Z</time>
      </trkpt>
      <trkpt lat="45.48681" lon="2.90031">
        <ele>1235.43</ele>
        <time>2021-08-15T07:53:11Z</time>
      </trkpt>
      <trkpt lat="45.48705" lon="2.89985">
        <ele>1236.87</ele>
        <time>2021-08-15T07:53:22Z</time>
      </trkpt>
      <trkpt lat="45.48725" lon="2.89948">
        <ele>1238.8</ele>
        <time>2021-08-15T07:53:32Z</time>
      </trkpt>
      <trkpt lat="45.48736" lon="2.89924">
        <ele>1239.28</ele>
        <time>2021-08-15T07:53:40Z</time>
      </trkpt>
      <trkpt lat="45.48748" lon="2.89902">
        <ele>1238.32</ele>
        <time>2021-08-15T07:53:49Z</time>
      </trkpt>
      <trkpt lat="45.48755" lon="2.89887">
        <ele>1240.24</ele>
        <time>2021-08-15T07:53:55Z</time>
      </trkpt>
      <trkpt lat="45.48756" lon="2.89885">
        <ele>1241.2</ele>
        <time>2021-08-15T07:53:56Z</time>
      </trkpt>
      <trkpt lat="45.48757" lon="2.89882">
        <ele>1241.2</ele>
        <time>2021-08-15T07:53:57Z</time>
      </trkpt>
      <trkpt lat="45.48758" lon="2.8988">
        <ele>1241.2</ele>
        <time>2021-08-15T07:53:58Z</time>
      </trkpt>
      <trkpt lat="45.48767" lon="2.89862">
        <ele>1242.16</ele>
        <time>2021-08-15T07:54:06Z</time>
      </trkpt>
      <trkpt lat="45.48776" lon="2.89844">
        <ele>1243.12</ele>
        <time>2021-08-15T07:54:14Z</time>
      </trkpt>
      <trkpt lat="45.48785" lon="2.89825">
        <ele>1243.6</ele>
        <time>2021-08-15T07:54:23Z</time>
      </trkpt>
      <trkpt lat="45.48796" lon="2.89804">
        <ele>1245.04</ele>
        <time>2021-08-15T07:54:32Z</time>
      </trkpt>
      <trkpt lat="45.48808" lon="2.89781">
        <ele>1245.53</ele>
        <time>2021-08-15T07:54:42Z</time>
      </trkpt>
      <trkpt lat="45.48818" lon="2.89763">
        <ele>1246.49</ele>
        <time>2021-08-15T07:54:50Z</time>
      </trkpt>
      <trkpt lat="45.48829" lon="2.89743">
        <ele>1247.45</ele>
        <time>2021-08-15T07:54:59Z</time>
      </trkpt>
      <trkpt lat="45.48844" lon="2.89716">
        <ele>1247.93</ele>
        <time>2021-08-15T07:55:10Z</time>
      </trkpt>
      <trkpt lat="45.48859" lon="2.89688">
        <ele>1249.37</ele>
        <time>2021-08-15T07:55:21Z</time>
      </trkpt>
      <trkpt lat="45.4887" lon="2.89666">
        <ele>1249.85</ele>
        <time>2021-08-15T07:55:29Z</time>
      </trkpt>
      <trkpt lat="45.48885" lon="2.89636">
        <ele>1250.81</ele>
        <time>2021-08-15T07:55:40Z</time>
      </trkpt>
      <trkpt lat="45.48899" lon="2.8961">
        <ele>1251.77</ele>
        <time>2021-08-15T07:55:50Z</time>
      </trkpt>
      <trkpt lat="45.4891" lon="2.8959">
        <ele>1252.74</ele>
        <time>2021-08-15T07:55:58Z</time>
      </trkpt>
      <trkpt lat="45.48921" lon="2.89568">
        <ele>1253.7</ele>
        <time>2021-08-15T07:56:06Z</time>
      </trkpt>
      <trkpt lat="45.48937" lon="2.89539">
        <ele>1254.66</ele>
        <time>2021-08-15T07:56:16Z</time>
      </trkpt>
      <trkpt lat="45.48945" lon="2.8952">
        <ele>1255.14</ele>
        <time>2021-08-15T07:56:22Z</time>
      </trkpt>
      <trkpt lat="45.48945" lon="2.89516">
        <ele>1255.14</ele>
        <time>2021-08-15T07:56:23Z</time>
      </trkpt>
      <trkpt lat="45.48945" lon="2.89512">
        <ele>1256.1</ele>
        <time>2021-08-15T07:56:24Z</time>
      </trkpt>
      <trkpt lat="45.48944" lon="2.89508">
        <ele>1256.1</ele>
        <time>2021-08-15T07:56:25Z</time>
      </trkpt>
      <trkpt lat="45.48933" lon="2.89475">
        <ele>1256.1</ele>
        <time>2021-08-15T07:56:33Z</time>
      </trkpt>
      <trkpt lat="45.48919" lon="2.89439">
        <ele>1256.58</ele>
        <time>2021-08-15T07:56:41Z</time>
      </trkpt>
      <trkpt lat="45.48897" lon="2.89385">
        <ele>1256.58</ele>
        <time>2021-08-15T07:56:53Z</time>
      </trkpt>
      <trkpt lat="45.48875" lon="2.89332">
        <ele>1256.58</ele>
        <time>2021-08-15T07:57:05Z</time>
      </trkpt>
      <trkpt lat="45.48858" lon="2.89299">
        <ele>1256.58</ele>
        <time>2021-08-15T07:57:13Z</time>
      </trkpt>
      <trkpt lat="45.48838" lon="2.89286">
        <ele>1257.06</ele>
        <time>2021-08-15T07:57:20Z</time>
      </trkpt>
      <trkpt lat="45.48817" lon="2.89283">
        <ele>1258.98</ele>
        <time>2021-08-15T07:57:29Z</time>
      </trkpt>
      <trkpt lat="45.48803" lon="2.89286">
        <ele>1259.94</ele>
        <time>2021-08-15T07:57:37Z</time>
      </trkpt>
      <trkpt lat="45.4879" lon="2.89286">
        <ele>1260.91</ele>
        <time>2021-08-15T07:57:45Z</time>
      </trkpt>
      <trkpt lat="45.48781" lon="2.89287">
        <ele>1261.87</ele>
        <time>2021-08-15T07:57:51Z</time>
      </trkpt>
      <trkpt lat="45.4877" lon="2.89287">
        <ele>1262.83</ele>
        <time>2021-08-15T07:57:58Z</time>
      </trkpt>
      <trkpt lat="45.48758" lon="2.89289">
        <ele>1263.79</ele>
        <time>2021-08-15T07:58:06Z</time>
      </trkpt>
      <trkpt lat="45.48747" lon="2.8929">
        <ele>1264.75</ele>
        <time>2021-08-15T07:58:14Z</time>
      </trkpt>
      <trkpt lat="45.48745" lon="2.89288">
        <ele>1264.75</ele>
        <time>2021-08-15T07:58:16Z</time>
      </trkpt>
      <trkpt lat="45.48742" lon="2.89288">
        <ele>1265.23</ele>
        <time>2021-08-15T07:58:18Z</time>
      </trkpt>
      <trkpt lat="45.48741" lon="2.89288">
        <ele>1265.23</ele>
        <time>2021-08-15T07:58:19Z</time>
      </trkpt>
      <trkpt lat="45.4874" lon="2.89289">
        <ele>1265.23</ele>
        <time>2021-08-15T07:58:20Z</time>
      </trkpt>
      <trkpt lat="45.48738" lon="2.8929">
        <ele>1265.23</ele>
        <time>2021-08-15T07:58:21Z</time>
      </trkpt>
      <trkpt lat="45.48737" lon="2.89291">
        <ele>1265.23</ele>
        <time>2021-08-15T07:58:22Z</time>
      </trkpt>
      <trkpt lat="45.48736" lon="2.89291">
        <ele>1265.23</ele>
        <time>2021-08-15T07:58:23Z</time>
      </trkpt>
      <trkpt lat="45.4873" lon="2.8929">
        <ele>1266.19</ele>
        <time>2021-08-15T07:58:28Z</time>
      </trkpt>
      <trkpt lat="45.48729" lon="2.89291">
        <ele>1266.67</ele>
        <time>2021-08-15T07:58:29Z</time>
      </trkpt>
      <trkpt lat="45.48728" lon="2.89291">
        <ele>1266.19</ele>
        <time>2021-08-15T07:58:30Z</time>
      </trkpt>
      <trkpt lat="45.48724" lon="2.8929">
        <ele>1267.16</ele>
        <time>2021-08-15T07:58:34Z</time>
      </trkpt>
      <trkpt lat="45.48718" lon="2.89288">
        <ele>1267.64</ele>
        <time>2021-08-15T07:58:40Z</time>
      </trkpt>
      <trkpt lat="45.48717" lon="2.89287">
        <ele>1268.12</ele>
        <time>2021-08-15T07:58:41Z</time>
      </trkpt>
      <trkpt lat="45.48716" lon="2.89287">
        <ele>1268.12</ele>
        <time>2021-08-15T07:58:42Z</time>
      </trkpt>
      <trkpt lat="45.48714" lon="2.89287">
        <ele>1268.12</ele>
        <time>2021-08-15T07:58:43Z</time>
      </trkpt>
      <trkpt lat="45.48713" lon="2.89287">
        <ele>1268.6</ele>
        <time>2021-08-15T07:58:44Z</time>
      </trkpt>
      <trkpt lat="45.48707" lon="2.89282">
        <ele>1269.08</ele>
        <time>2021-08-15T07:58:50Z</time>
      </trkpt>
      <trkpt lat="45.48705" lon="2.89281">
        <ele>1269.08</ele>
        <time>2021-08-15T07:58:51Z</time>
      </trkpt>
      <trkpt lat="45.48704" lon="2.89281">
        <ele>1269.56</ele>
        <time>2021-08-15T07:58:52Z</time>
      </trkpt>
      <trkpt lat="45.48701" lon="2.89277">
        <ele>1270.04</ele>
        <time>2021-08-15T07:58:56Z</time>
      </trkpt>
      <trkpt lat="45.487" lon="2.89275">
        <ele>1270.04</ele>
        <time>2021-08-15T07:58:57Z</time>
      </trkpt>
      <trkpt lat="45.48699" lon="2.89274">
        <ele>1270.04</ele>
        <time>2021-08-15T07:58:58Z</time>
      </trkpt>
      <trkpt lat="45.48697" lon="2.89273">
        <ele>1270.04</ele>
        <time>2021-08-15T07:58:59Z</time>
      </trkpt>
      <trkpt lat="45.48696" lon="2.89272">
        <ele>1270.04</ele>
        <time>2021-08-15T07:59:00Z</time>
      </trkpt>
      <trkpt lat="45.48694" lon="2.89271">
        <ele>1270.04</ele>
        <time>2021-08-15T07:59:01Z</time>
      </trkpt>
      <trkpt lat="45.48692" lon="2.89269">
        <ele>1270.52</ele>
        <time>2021-08-15T07:59:03Z</time>
      </trkpt>
      <trkpt lat="45.48691" lon="2.89267">
        <ele>1270.52</ele>
        <time>2021-08-15T07:59:04Z</time>
      </trkpt>
      <trkpt lat="45.4869" lon="2.89265">
        <ele>1270.52</ele>
        <time>2021-08-15T07:59:05Z</time>
      </trkpt>
      <trkpt lat="45.48688" lon="2.89264">
        <ele>1271</ele>
        <time>2021-08-15T07:59:06Z</time>
      </trkpt>
      <trkpt lat="45.48687" lon="2.89262">
        <ele>1271</ele>
        <time>2021-08-15T07:59:07Z</time>
      </trkpt>
      <trkpt lat="45.48686" lon="2.8926">
        <ele>1271.48</ele>
        <time>2021-08-15T07:59:08Z</time>
      </trkpt>
      <trkpt lat="45.48676" lon="2.89249">
        <ele>1272.44</ele>
        <time>2021-08-15T07:59:15Z</time>
      </trkpt>
      <trkpt lat="45.48675" lon="2.89248">
        <ele>1272.44</ele>
        <time>2021-08-15T07:59:16Z</time>
      </trkpt>
      <trkpt lat="45.48674" lon="2.89246">
        <ele>1272.44</ele>
        <time>2021-08-15T07:59:17Z</time>
      </trkpt>
      <trkpt lat="45.48673" lon="2.89244">
        <ele>1271.96</ele>
        <time>2021-08-15T07:59:18Z</time>
      </trkpt>
      <trkpt lat="45.48671" lon="2.89243">
        <ele>1272.44</ele>
        <time>2021-08-15T07:59:19Z</time>
      </trkpt>
      <trkpt lat="45.4867" lon="2.89241">
        <ele>1272.44</ele>
        <time>2021-08-15T07:59:20Z</time>
      </trkpt>
      <trkpt lat="45.48657" lon="2.89223">
        <ele>1272.92</ele>
        <time>2021-08-15T07:59:29Z</time>
      </trkpt>
      <trkpt lat="45.48647" lon="2.89209">
        <ele>1272.92</ele>
        <time>2021-08-15T07:59:35Z</time>
      </trkpt>
      <trkpt lat="45.48631" lon="2.89187">
        <ele>1272.92</ele>
        <time>2021-08-15T07:59:44Z</time>
      </trkpt>
      <trkpt lat="45.48613" lon="2.89165">
        <ele>1271.96</ele>
        <time>2021-08-15T07:59:52Z</time>
      </trkpt>
      <trkpt lat="45.4859" lon="2.8913">
        <ele>1270.04</ele>
        <time>2021-08-15T08:00:00Z</time>
      </trkpt>
      <trkpt lat="45.48581" lon="2.89113">
        <ele>1270.04</ele>
        <time>2021-08-15T08:00:03Z</time>
      </trkpt>
      <trkpt lat="45.48558" lon="2.89061">
        <ele>1269.56</ele>
        <time>2021-08-15T08:00:11Z</time>
      </trkpt>
      <trkpt lat="45.48536" lon="2.89">
        <ele>1268.6</ele>
        <time>2021-08-15T08:00:20Z</time>
      </trkpt>
      <trkpt lat="45.48527" lon="2.88981">
        <ele>1268.6</ele>
        <time>2021-08-15T08:00:23Z</time>
      </trkpt>
      <trkpt lat="45.48515" lon="2.88962">
        <ele>1268.12</ele>
        <time>2021-08-15T08:00:26Z</time>
      </trkpt>
      <trkpt lat="45.4851" lon="2.88955">
        <ele>1268.12</ele>
        <time>2021-08-15T08:00:27Z</time>
      </trkpt>
      <trkpt lat="45.48505" lon="2.8895">
        <ele>1267.64</ele>
        <time>2021-08-15T08:00:28Z</time>
      </trkpt>
      <trkpt lat="45.48501" lon="2.88946">
        <ele>1267.64</ele>
        <time>2021-08-15T08:00:29Z</time>
      </trkpt>
      <trkpt lat="45.48496" lon="2.88943">
        <ele>1267.64</ele>
        <time>2021-08-15T08:00:30Z</time>
      </trkpt>
      <trkpt lat="45.48475" lon="2.8893">
        <ele>1269.08</ele>
        <time>2021-08-15T08:00:36Z</time>
      </trkpt>
      <trkpt lat="45.48462" lon="2.88922">
        <ele>1270.52</ele>
        <time>2021-08-15T08:00:43Z</time>
      </trkpt>
      <trkpt lat="45.48459" lon="2.88919">
        <ele>1271</ele>
        <time>2021-08-15T08:00:45Z</time>
      </trkpt>
      <trkpt lat="45.48457" lon="2.88918">
        <ele>1271</ele>
        <time>2021-08-15T08:00:46Z</time>
      </trkpt>
      <trkpt lat="45.48443" lon="2.88911">
        <ele>1272.44</ele>
        <time>2021-08-15T08:00:53Z</time>
      </trkpt>
      <trkpt lat="45.48435" lon="2.88904">
        <ele>1273.88</ele>
        <time>2021-08-15T08:00:59Z</time>
      </trkpt>
      <trkpt lat="45.48426" lon="2.88896">
        <ele>1274.85</ele>
        <time>2021-08-15T08:01:05Z</time>
      </trkpt>
      <trkpt lat="45.4842" lon="2.88887">
        <ele>1274.85</ele>
        <time>2021-08-15T08:01:11Z</time>
      </trkpt>
      <trkpt lat="45.48419" lon="2.88886">
        <ele>1274.85</ele>
        <time>2021-08-15T08:01:12Z</time>
      </trkpt>
      <trkpt lat="45.48418" lon="2.88885">
        <ele>1275.33</ele>
        <time>2021-08-15T08:01:13Z</time>
      </trkpt>
      <trkpt lat="45.48416" lon="2.88884">
        <ele>1275.33</ele>
        <time>2021-08-15T08:01:14Z</time>
      </trkpt>
      <trkpt lat="45.48415" lon="2.88883">
        <ele>1275.33</ele>
        <time>2021-08-15T08:01:15Z</time>
      </trkpt>
      <trkpt lat="45.48414" lon="2.88882">
        <ele>1275.81</ele>
        <time>2021-08-15T08:01:16Z</time>
      </trkpt>
      <trkpt lat="45.48413" lon="2.8888">
        <ele>1275.81</ele>
        <time>2021-08-15T08:01:17Z</time>
      </trkpt>
      <trkpt lat="45.48406" lon="2.88866">
        <ele>1277.25</ele>
        <time>2021-08-15T08:01:25Z</time>
      </trkpt>
      <trkpt lat="45.48403" lon="2.88861">
        <ele>1277.73</ele>
        <time>2021-08-15T08:01:28Z</time>
      </trkpt>
      <trkpt lat="45.48402" lon="2.88859">
        <ele>1277.73</ele>
        <time>2021-08-15T08:01:29Z</time>
      </trkpt>
      <trkpt lat="45.48401" lon="2.88857">
        <ele>1277.73</ele>
        <time>2021-08-15T08:01:30Z</time>
      </trkpt>
      <trkpt lat="45.484" lon="2.88855">
        <ele>1277.73</ele>
        <time>2021-08-15T08:01:31Z</time>
      </trkpt>
      <trkpt lat="45.48399" lon="2.88853">
        <ele>1278.69</ele>
        <time>2021-08-15T08:01:32Z</time>
      </trkpt>
      <trkpt lat="45.48395" lon="2.88838">
        <ele>1278.69</ele>
        <time>2021-08-15T08:01:40Z</time>
      </trkpt>
      <trkpt lat="45.48388" lon="2.88821">
        <ele>1279.65</ele>
        <time>2021-08-15T08:01:49Z</time>
      </trkpt>
      <trkpt lat="45.48374" lon="2.88801">
        <ele>1280.13</ele>
        <time>2021-08-15T08:01:59Z</time>
      </trkpt>
      <trkpt lat="45.48352" lon="2.88787">
        <ele>1280.13</ele>
        <time>2021-08-15T08:02:09Z</time>
      </trkpt>
      <trkpt lat="45.48328" lon="2.88783">
        <ele>1280.61</ele>
        <time>2021-08-15T08:02:17Z</time>
      </trkpt>
      <trkpt lat="45.48298" lon="2.88782">
        <ele>1278.69</ele>
        <time>2021-08-15T08:02:25Z</time>
      </trkpt>
      <trkpt lat="45.48257" lon="2.88779">
        <ele>1277.25</ele>
        <time>2021-08-15T08:02:34Z</time>
      </trkpt>
      <trkpt lat="45.48253" lon="2.88779">
        <ele>1277.25</ele>
        <time>2021-08-15T08:02:35Z</time>
      </trkpt>
      <trkpt lat="45.48222" lon="2.88781">
        <ele>1276.77</ele>
        <time>2021-08-15T08:02:41Z</time>
      </trkpt>
      <trkpt lat="45.48216" lon="2.88783">
        <ele>1275.81</ele>
        <time>2021-08-15T08:02:42Z</time>
      </trkpt>
      <trkpt lat="45.48211" lon="2.88786">
        <ele>1275.33</ele>
        <time>2021-08-15T08:02:43Z</time>
      </trkpt>
      <trkpt lat="45.48205" lon="2.88791">
        <ele>1275.33</ele>
        <time>2021-08-15T08:02:44Z</time>
      </trkpt>
      <trkpt lat="45.482" lon="2.88797">
        <ele>1274.36</ele>
        <time>2021-08-15T08:02:45Z</time>
      </trkpt>
      <trkpt lat="45.48196" lon="2.88804">
        <ele>1273.88</ele>
        <time>2021-08-15T08:02:46Z</time>
      </trkpt>
      <trkpt lat="45.48191" lon="2.88811">
        <ele>1272.92</ele>
        <time>2021-08-15T08:02:47Z</time>
      </trkpt>
      <trkpt lat="45.48185" lon="2.88817">
        <ele>1272.44</ele>
        <time>2021-08-15T08:02:48Z</time>
      </trkpt>
      <trkpt lat="45.48179" lon="2.88821">
        <ele>1271.48</ele>
        <time>2021-08-15T08:02:49Z</time>
      </trkpt>
      <trkpt lat="45.48172" lon="2.88823">
        <ele>1270.04</ele>
        <time>2021-08-15T08:02:50Z</time>
      </trkpt>
      <trkpt lat="45.48164" lon="2.88824">
        <ele>1269.08</ele>
        <time>2021-08-15T08:02:51Z</time>
      </trkpt>
      <trkpt lat="45.48156" lon="2.88824">
        <ele>1269.08</ele>
        <time>2021-08-15T08:02:52Z</time>
      </trkpt>
      <trkpt lat="45.48121" lon="2.88827">
        <ele>1265.71</ele>
        <time>2021-08-15T08:02:56Z</time>
      </trkpt>
      <trkpt lat="45.48071" lon="2.88839">
        <ele>1264.75</ele>
        <time>2021-08-15T08:03:02Z</time>
      </trkpt>
      <trkpt lat="45.48033" lon="2.8885">
        <ele>1264.75</ele>
        <time>2021-08-15T08:03:07Z</time>
      </trkpt>
      <trkpt lat="45.48027" lon="2.88855">
        <ele>1264.75</ele>
        <time>2021-08-15T08:03:08Z</time>
      </trkpt>
      <trkpt lat="45.48022" lon="2.88862">
        <ele>1264.75</ele>
        <time>2021-08-15T08:03:09Z</time>
      </trkpt>
      <trkpt lat="45.48017" lon="2.88869">
        <ele>1264.75</ele>
        <time>2021-08-15T08:03:10Z</time>
      </trkpt>
      <trkpt lat="45.48013" lon="2.88877">
        <ele>1264.75</ele>
        <time>2021-08-15T08:03:11Z</time>
      </trkpt>
      <trkpt lat="45.4801" lon="2.88886">
        <ele>1264.27</ele>
        <time>2021-08-15T08:03:12Z</time>
      </trkpt>
      <trkpt lat="45.48007" lon="2.88896">
        <ele>1264.27</ele>
        <time>2021-08-15T08:03:13Z</time>
      </trkpt>
      <trkpt lat="45.48005" lon="2.88908">
        <ele>1263.79</ele>
        <time>2021-08-15T08:03:14Z</time>
      </trkpt>
      <trkpt lat="45.48003" lon="2.88918">
        <ele>1262.83</ele>
        <time>2021-08-15T08:03:15Z</time>
      </trkpt>
      <trkpt lat="45.47996" lon="2.88954">
        <ele>1259.94</ele>
        <time>2021-08-15T08:03:18Z</time>
      </trkpt>
      <trkpt lat="45.47993" lon="2.88967">
        <ele>1258.98</ele>
        <time>2021-08-15T08:03:19Z</time>
      </trkpt>
      <trkpt lat="45.47988" lon="2.88979">
        <ele>1258.02</ele>
        <time>2021-08-15T08:03:20Z</time>
      </trkpt>
      <trkpt lat="45.47981" lon="2.88991">
        <ele>1256.1</ele>
        <time>2021-08-15T08:03:21Z</time>
      </trkpt>
      <trkpt lat="45.47973" lon="2.89002">
        <ele>1255.14</ele>
        <time>2021-08-15T08:03:22Z</time>
      </trkpt>
      <trkpt lat="45.47965" lon="2.89011">
        <ele>1254.66</ele>
        <time>2021-08-15T08:03:23Z</time>
      </trkpt>
      <trkpt lat="45.47948" lon="2.8903">
        <ele>1253.7</ele>
        <time>2021-08-15T08:03:25Z</time>
      </trkpt>
      <trkpt lat="45.47895" lon="2.8909">
        <ele>1252.74</ele>
        <time>2021-08-15T08:03:31Z</time>
      </trkpt>
      <trkpt lat="45.47878" lon="2.89105">
        <ele>1251.29</ele>
        <time>2021-08-15T08:03:33Z</time>
      </trkpt>
      <trkpt lat="45.47871" lon="2.89116">
        <ele>1251.29</ele>
        <time>2021-08-15T08:03:34Z</time>
      </trkpt>
      <trkpt lat="45.47866" lon="2.89127">
        <ele>1251.29</ele>
        <time>2021-08-15T08:03:35Z</time>
      </trkpt>
      <trkpt lat="45.47861" lon="2.89142">
        <ele>1250.81</ele>
        <time>2021-08-15T08:03:36Z</time>
      </trkpt>
      <trkpt lat="45.47859" lon="2.89155">
        <ele>1250.33</ele>
        <time>2021-08-15T08:03:37Z</time>
      </trkpt>
      <trkpt lat="45.47857" lon="2.89166">
        <ele>1249.85</ele>
        <time>2021-08-15T08:03:38Z</time>
      </trkpt>
      <trkpt lat="45.47852" lon="2.89192">
        <ele>1249.37</ele>
        <time>2021-08-15T08:03:40Z</time>
      </trkpt>
      <trkpt lat="45.47848" lon="2.89203">
        <ele>1249.37</ele>
        <time>2021-08-15T08:03:41Z</time>
      </trkpt>
      <trkpt lat="45.47843" lon="2.89214">
        <ele>1249.37</ele>
        <time>2021-08-15T08:03:42Z</time>
      </trkpt>
      <trkpt lat="45.47831" lon="2.89235">
        <ele>1248.89</ele>
        <time>2021-08-15T08:03:44Z</time>
      </trkpt>
      <trkpt lat="45.47827" lon="2.89246">
        <ele>1248.89</ele>
        <time>2021-08-15T08:03:45Z</time>
      </trkpt>
      <trkpt lat="45.47826" lon="2.89257">
        <ele>1248.89</ele>
        <time>2021-08-15T08:03:46Z</time>
      </trkpt>
      <trkpt lat="45.47829" lon="2.89269">
        <ele>1248.41</ele>
        <time>2021-08-15T08:03:47Z</time>
      </trkpt>
      <trkpt lat="45.47835" lon="2.8928">
        <ele>1248.89</ele>
        <time>2021-08-15T08:03:48Z</time>
      </trkpt>
      <trkpt lat="45.47839" lon="2.89285">
        <ele>1248.41</ele>
        <time>2021-08-15T08:03:49Z</time>
      </trkpt>
      <trkpt lat="45.47844" lon="2.89293">
        <ele>1248.41</ele>
        <time>2021-08-15T08:03:50Z</time>
      </trkpt>
      <trkpt lat="45.47849" lon="2.89299">
        <ele>1248.41</ele>
        <time>2021-08-15T08:03:51Z</time>
      </trkpt>
      <trkpt lat="45.47858" lon="2.89311">
        <ele>1250.33</ele>
        <time>2021-08-15T08:03:53Z</time>
      </trkpt>
      <trkpt lat="45.47868" lon="2.89328">
        <ele>1251.77</ele>
        <time>2021-08-15T08:03:57Z</time>
      </trkpt>
      <trkpt lat="45.47869" lon="2.8933">
        <ele>1252.25</ele>
        <time>2021-08-15T08:03:58Z</time>
      </trkpt>
      <trkpt lat="45.47869" lon="2.89331">
        <ele>1252.25</ele>
        <time>2021-08-15T08:04:00Z</time>
      </trkpt>
      <trkpt lat="45.47864" lon="2.8932">
        <ele>1252.74</ele>
        <time>2021-08-15T08:04:04Z</time>
      </trkpt>
      <trkpt lat="45.47848" lon="2.89293">
        <ele>1250.81</ele>
        <time>2021-08-15T08:04:11Z</time>
      </trkpt>
      <trkpt lat="45.47833" lon="2.89269">
        <ele>1250.33</ele>
        <time>2021-08-15T08:04:16Z</time>
      </trkpt>
      <trkpt lat="45.47831" lon="2.89265">
        <ele>1250.33</ele>
        <time>2021-08-15T08:04:17Z</time>
      </trkpt>
      <trkpt lat="45.47828" lon="2.89262">
        <ele>1250.33</ele>
        <time>2021-08-15T08:04:18Z</time>
      </trkpt>
      <trkpt lat="45.47825" lon="2.8926">
        <ele>1250.33</ele>
        <time>2021-08-15T08:04:19Z</time>
      </trkpt>
      <trkpt lat="45.47823" lon="2.89259">
        <ele>1249.85</ele>
        <time>2021-08-15T08:04:20Z</time>
      </trkpt>
      <trkpt lat="45.47821" lon="2.89258">
        <ele>1249.85</ele>
        <time>2021-08-15T08:04:21Z</time>
      </trkpt>
      <trkpt lat="45.4782" lon="2.89258">
        <ele>1249.85</ele>
        <time>2021-08-15T08:04:22Z</time>
      </trkpt>
      <trkpt lat="45.47818" lon="2.8926">
        <ele>1249.85</ele>
        <time>2021-08-15T08:04:25Z</time>
      </trkpt>
      <trkpt lat="45.47817" lon="2.89261">
        <ele>1249.85</ele>
        <time>2021-08-15T08:04:26Z</time>
      </trkpt>
      <trkpt lat="45.47817" lon="2.89263">
        <ele>1249.85</ele>
        <time>2021-08-15T08:04:27Z</time>
      </trkpt>
      <trkpt lat="45.47816" lon="2.89264">
        <ele>1249.85</ele>
        <time>2021-08-15T08:04:28Z</time>
      </trkpt>
      <trkpt lat="45.47815" lon="2.89266">
        <ele>1249.85</ele>
        <time>2021-08-15T08:04:29Z</time>
      </trkpt>
      <trkpt lat="45.47806" lon="2.89281">
        <ele>1248.89</ele>
        <time>2021-08-15T08:04:35Z</time>
      </trkpt>
      <trkpt lat="45.47797" lon="2.89311">
        <ele>1246.01</ele>
        <time>2021-08-15T08:04:41Z</time>
      </trkpt>
      <trkpt lat="45.4779" lon="2.89341">
        <ele>1245.53</ele>
        <time>2021-08-15T08:04:46Z</time>
      </trkpt>
      <trkpt lat="45.47787" lon="2.89347">
        <ele>1245.04</ele>
        <time>2021-08-15T08:04:47Z</time>
      </trkpt>
      <trkpt lat="45.47784" lon="2.89353">
        <ele>1244.56</ele>
        <time>2021-08-15T08:04:48Z</time>
      </trkpt>
      <trkpt lat="45.47758" lon="2.89402">
        <ele>1242.64</ele>
        <time>2021-08-15T08:04:55Z</time>
      </trkpt>
      <trkpt lat="45.47756" lon="2.8941">
        <ele>1242.16</ele>
        <time>2021-08-15T08:04:56Z</time>
      </trkpt>
      <trkpt lat="45.47752" lon="2.89434">
        <ele>1241.68</ele>
        <time>2021-08-15T08:04:59Z</time>
      </trkpt>
      <trkpt lat="45.47748" lon="2.8944">
        <ele>1241.68</ele>
        <time>2021-08-15T08:05:00Z</time>
      </trkpt>
      <trkpt lat="45.47742" lon="2.89445">
        <ele>1240.24</ele>
        <time>2021-08-15T08:05:01Z</time>
      </trkpt>
      <trkpt lat="45.47736" lon="2.89449">
        <ele>1239.28</ele>
        <time>2021-08-15T08:05:02Z</time>
      </trkpt>
      <trkpt lat="45.4773" lon="2.89452">
        <ele>1238.8</ele>
        <time>2021-08-15T08:05:03Z</time>
      </trkpt>
      <trkpt lat="45.47723" lon="2.89456">
        <ele>1238.32</ele>
        <time>2021-08-15T08:05:04Z</time>
      </trkpt>
      <trkpt lat="45.47717" lon="2.89462">
        <ele>1238.8</ele>
        <time>2021-08-15T08:05:05Z</time>
      </trkpt>
      <trkpt lat="45.47711" lon="2.89468">
        <ele>1238.8</ele>
        <time>2021-08-15T08:05:06Z</time>
      </trkpt>
      <trkpt lat="45.47693" lon="2.89498">
        <ele>1236.87</ele>
        <time>2021-08-15T08:05:10Z</time>
      </trkpt>
      <trkpt lat="45.47688" lon="2.89504">
        <ele>1236.87</ele>
        <time>2021-08-15T08:05:11Z</time>
      </trkpt>
      <trkpt lat="45.47683" lon="2.89509">
        <ele>1236.87</ele>
        <time>2021-08-15T08:05:12Z</time>
      </trkpt>
      <trkpt lat="45.47677" lon="2.89514">
        <ele>1236.39</ele>
        <time>2021-08-15T08:05:13Z</time>
      </trkpt>
      <trkpt lat="45.47671" lon="2.89518">
        <ele>1235.91</ele>
        <time>2021-08-15T08:05:14Z</time>
      </trkpt>
      <trkpt lat="45.47665" lon="2.89523">
        <ele>1235.43</ele>
        <time>2021-08-15T08:05:15Z</time>
      </trkpt>
      <trkpt lat="45.47654" lon="2.89537">
        <ele>1234.47</ele>
        <time>2021-08-15T08:05:17Z</time>
      </trkpt>
      <trkpt lat="45.4765" lon="2.89546">
        <ele>1233.51</ele>
        <time>2021-08-15T08:05:18Z</time>
      </trkpt>
      <trkpt lat="45.47646" lon="2.89556">
        <ele>1233.51</ele>
        <time>2021-08-15T08:05:19Z</time>
      </trkpt>
      <trkpt lat="45.47638" lon="2.89585">
        <ele>1233.03</ele>
        <time>2021-08-15T08:05:22Z</time>
      </trkpt>
      <trkpt lat="45.47634" lon="2.89593">
        <ele>1233.03</ele>
        <time>2021-08-15T08:05:23Z</time>
      </trkpt>
      <trkpt lat="45.47622" lon="2.89617">
        <ele>1231.59</ele>
        <time>2021-08-15T08:05:26Z</time>
      </trkpt>
      <trkpt lat="45.47619" lon="2.89625">
        <ele>1231.59</ele>
        <time>2021-08-15T08:05:27Z</time>
      </trkpt>
      <trkpt lat="45.47617" lon="2.89632">
        <ele>1231.59</ele>
        <time>2021-08-15T08:05:28Z</time>
      </trkpt>
      <trkpt lat="45.47616" lon="2.89638">
        <ele>1231.59</ele>
        <time>2021-08-15T08:05:29Z</time>
      </trkpt>
      <trkpt lat="45.47614" lon="2.89643">
        <ele>1231.59</ele>
        <time>2021-08-15T08:05:30Z</time>
      </trkpt>
      <trkpt lat="45.47614" lon="2.89649">
        <ele>1231.59</ele>
        <time>2021-08-15T08:05:31Z</time>
      </trkpt>
      <trkpt lat="45.47614" lon="2.89655">
        <ele>1231.59</ele>
        <time>2021-08-15T08:05:32Z</time>
      </trkpt>
      <trkpt lat="45.47615" lon="2.89662">
        <ele>1231.11</ele>
        <time>2021-08-15T08:05:33Z</time>
      </trkpt>
      <trkpt lat="45.47613" lon="2.89676">
        <ele>1231.11</ele>
        <time>2021-08-15T08:05:37Z</time>
      </trkpt>
      <trkpt lat="45.47612" lon="2.89682">
        <ele>1231.11</ele>
        <time>2021-08-15T08:05:43Z</time>
      </trkpt>
      <trkpt lat="45.47612" lon="2.89685">
        <ele>1231.11</ele>
        <time>2021-08-15T08:05:51Z</time>
      </trkpt>
      <trkpt lat="45.47609" lon="2.89688">
        <ele>1231.11</ele>
        <time>2021-08-15T08:06:02Z</time>
      </trkpt>
      <trkpt lat="45.47607" lon="2.89689">
        <ele>1232.07</ele>
        <time>2021-08-15T08:06:07Z</time>
      </trkpt>
      <trkpt lat="45.47605" lon="2.89688">
        <ele>1232.07</ele>
        <time>2021-08-15T08:06:08Z</time>
      </trkpt>
      <trkpt lat="45.47604" lon="2.89688">
        <ele>1232.07</ele>
        <time>2021-08-15T08:06:09Z</time>
      </trkpt>
      <trkpt lat="45.47603" lon="2.89687">
        <ele>1232.07</ele>
        <time>2021-08-15T08:06:10Z</time>
      </trkpt>
      <trkpt lat="45.47602" lon="2.89685">
        <ele>1232.07</ele>
        <time>2021-08-15T08:06:11Z</time>
      </trkpt>
      <trkpt lat="45.47601" lon="2.89684">
        <ele>1232.07</ele>
        <time>2021-08-15T08:06:12Z</time>
      </trkpt>
      <trkpt lat="45.476" lon="2.89683">
        <ele>1232.07</ele>
        <time>2021-08-15T08:06:13Z</time>
      </trkpt>
      <trkpt lat="45.47599" lon="2.89681">
        <ele>1232.07</ele>
        <time>2021-08-15T08:06:14Z</time>
      </trkpt>
      <trkpt lat="45.47588" lon="2.89666">
        <ele>1232.07</ele>
        <time>2021-08-15T08:06:22Z</time>
      </trkpt>
      <trkpt lat="45.47566" lon="2.89634">
        <ele>1231.11</ele>
        <time>2021-08-15T08:06:33Z</time>
      </trkpt>
      <trkpt lat="45.47558" lon="2.89624">
        <ele>1231.11</ele>
        <time>2021-08-15T08:06:37Z</time>
      </trkpt>
      <trkpt lat="45.47555" lon="2.89625">
        <ele>1231.11</ele>
        <time>2021-08-15T08:06:38Z</time>
      </trkpt>
      <trkpt lat="45.47553" lon="2.89628">
        <ele>1231.11</ele>
        <time>2021-08-15T08:06:39Z</time>
      </trkpt>
      <trkpt lat="45.47551" lon="2.8963">
        <ele>1231.11</ele>
        <time>2021-08-15T08:06:40Z</time>
      </trkpt>
      <trkpt lat="45.47549" lon="2.8963">
        <ele>1231.11</ele>
        <time>2021-08-15T08:06:41Z</time>
      </trkpt>
      <trkpt lat="45.47547" lon="2.89629">
        <ele>1229.66</ele>
        <time>2021-08-15T08:06:42Z</time>
      </trkpt>
      <trkpt lat="45.47545" lon="2.89627">
        <ele>1229.66</ele>
        <time>2021-08-15T08:06:43Z</time>
      </trkpt>
      <trkpt lat="45.47544" lon="2.89625">
        <ele>1229.66</ele>
        <time>2021-08-15T08:06:44Z</time>
      </trkpt>
      <trkpt lat="45.47542" lon="2.89624">
        <ele>1229.66</ele>
        <time>2021-08-15T08:06:45Z</time>
      </trkpt>
      <trkpt lat="45.4754" lon="2.89624">
        <ele>1229.66</ele>
        <time>2021-08-15T08:06:46Z</time>
      </trkpt>
      <trkpt lat="45.47519" lon="2.89623">
        <ele>1228.7</ele>
        <time>2021-08-15T08:06:53Z</time>
      </trkpt>
      <trkpt lat="45.47505" lon="2.89611">
        <ele>1228.22</ele>
        <time>2021-08-15T08:06:59Z</time>
      </trkpt>
      <trkpt lat="45.475" lon="2.89612">
        <ele>1228.22</ele>
        <time>2021-08-15T08:07:01Z</time>
      </trkpt>
      <trkpt lat="45.47495" lon="2.89616">
        <ele>1229.66</ele>
        <time>2021-08-15T08:07:03Z</time>
      </trkpt>
      <trkpt lat="45.47482" lon="2.8962">
        <ele>1230.14</ele>
        <time>2021-08-15T08:07:09Z</time>
      </trkpt>
      <trkpt lat="45.4746" lon="2.89621">
        <ele>1230.14</ele>
        <time>2021-08-15T08:07:17Z</time>
      </trkpt>
      <trkpt lat="45.4743" lon="2.89619">
        <ele>1230.62</ele>
        <time>2021-08-15T08:07:27Z</time>
      </trkpt>
      <trkpt lat="45.47404" lon="2.89615">
        <ele>1231.11</ele>
        <time>2021-08-15T08:07:36Z</time>
      </trkpt>
      <trkpt lat="45.47379" lon="2.89607">
        <ele>1232.07</ele>
        <time>2021-08-15T08:07:46Z</time>
      </trkpt>
      <trkpt lat="45.47361" lon="2.89604">
        <ele>1233.51</ele>
        <time>2021-08-15T08:07:55Z</time>
      </trkpt>
      <trkpt lat="45.47342" lon="2.89602">
        <ele>1233.51</ele>
        <time>2021-08-15T08:08:03Z</time>
      </trkpt>
      <trkpt lat="45.47339" lon="2.89601">
        <ele>1232.07</ele>
        <time>2021-08-15T08:08:04Z</time>
      </trkpt>
      <trkpt lat="45.47337" lon="2.896">
        <ele>1232.07</ele>
        <time>2021-08-15T08:08:05Z</time>
      </trkpt>
      <trkpt lat="45.47335" lon="2.896">
        <ele>1233.99</ele>
        <time>2021-08-15T08:08:06Z</time>
      </trkpt>
      <trkpt lat="45.47332" lon="2.89601">
        <ele>1234.47</ele>
        <time>2021-08-15T08:08:07Z</time>
      </trkpt>
      <trkpt lat="45.47329" lon="2.89602">
        <ele>1234.47</ele>
        <time>2021-08-15T08:08:08Z</time>
      </trkpt>
      <trkpt lat="45.47308" lon="2.896">
        <ele>1234.47</ele>
        <time>2021-08-15T08:08:16Z</time>
      </trkpt>
      <trkpt lat="45.47286" lon="2.89594">
        <ele>1234.95</ele>
        <time>2021-08-15T08:08:24Z</time>
      </trkpt>
      <trkpt lat="45.47278" lon="2.89591">
        <ele>1233.99</ele>
        <time>2021-08-15T08:08:26Z</time>
      </trkpt>
      <trkpt lat="45.47264" lon="2.89586">
        <ele>1233.99</ele>
        <time>2021-08-15T08:08:30Z</time>
      </trkpt>
      <trkpt lat="45.47259" lon="2.89585">
        <ele>1233.99</ele>
        <time>2021-08-15T08:08:31Z</time>
      </trkpt>
      <trkpt lat="45.47254" lon="2.89585">
        <ele>1233.03</ele>
        <time>2021-08-15T08:08:32Z</time>
      </trkpt>
      <trkpt lat="45.47226" lon="2.8959">
        <ele>1231.59</ele>
        <time>2021-08-15T08:08:38Z</time>
      </trkpt>
      <trkpt lat="45.47221" lon="2.89589">
        <ele>1231.11</ele>
        <time>2021-08-15T08:08:39Z</time>
      </trkpt>
      <trkpt lat="45.47216" lon="2.89589">
        <ele>1230.62</ele>
        <time>2021-08-15T08:08:40Z</time>
      </trkpt>
      <trkpt lat="45.47211" lon="2.89589">
        <ele>1232.07</ele>
        <time>2021-08-15T08:08:41Z</time>
      </trkpt>
      <trkpt lat="45.47206" lon="2.89589">
        <ele>1232.07</ele>
        <time>2021-08-15T08:08:42Z</time>
      </trkpt>
      <trkpt lat="45.47201" lon="2.89591">
        <ele>1233.03</ele>
        <time>2021-08-15T08:08:43Z</time>
      </trkpt>
      <trkpt lat="45.47196" lon="2.89594">
        <ele>1233.03</ele>
        <time>2021-08-15T08:08:44Z</time>
      </trkpt>
      <trkpt lat="45.47192" lon="2.89598">
        <ele>1233.03</ele>
        <time>2021-08-15T08:08:45Z</time>
      </trkpt>
      <trkpt lat="45.47187" lon="2.89601">
        <ele>1231.59</ele>
        <time>2021-08-15T08:08:46Z</time>
      </trkpt>
      <trkpt lat="45.47183" lon="2.89603">
        <ele>1231.59</ele>
        <time>2021-08-15T08:08:47Z</time>
      </trkpt>
      <trkpt lat="45.47155" lon="2.89622">
        <ele>1230.14</ele>
        <time>2021-08-15T08:08:53Z</time>
      </trkpt>
      <trkpt lat="45.4715" lon="2.89626">
        <ele>1229.18</ele>
        <time>2021-08-15T08:08:54Z</time>
      </trkpt>
      <trkpt lat="45.47141" lon="2.89634">
        <ele>1229.18</ele>
        <time>2021-08-15T08:08:56Z</time>
      </trkpt>
      <trkpt lat="45.47137" lon="2.89638">
        <ele>1229.18</ele>
        <time>2021-08-15T08:08:57Z</time>
      </trkpt>
      <trkpt lat="45.47128" lon="2.89646">
        <ele>1228.22</ele>
        <time>2021-08-15T08:08:59Z</time>
      </trkpt>
      <trkpt lat="45.47123" lon="2.8965">
        <ele>1227.74</ele>
        <time>2021-08-15T08:09:00Z</time>
      </trkpt>
      <trkpt lat="45.47119" lon="2.89653">
        <ele>1226.78</ele>
        <time>2021-08-15T08:09:01Z</time>
      </trkpt>
      <trkpt lat="45.47109" lon="2.8966">
        <ele>1225.34</ele>
        <time>2021-08-15T08:09:03Z</time>
      </trkpt>
      <trkpt lat="45.47104" lon="2.89665">
        <ele>1224.86</ele>
        <time>2021-08-15T08:09:04Z</time>
      </trkpt>
      <trkpt lat="45.471" lon="2.89671">
        <ele>1224.86</ele>
        <time>2021-08-15T08:09:05Z</time>
      </trkpt>
      <trkpt lat="45.47092" lon="2.89684">
        <ele>1224.86</ele>
        <time>2021-08-15T08:09:07Z</time>
      </trkpt>
      <trkpt lat="45.47089" lon="2.89687">
        <ele>1224.38</ele>
        <time>2021-08-15T08:09:08Z</time>
      </trkpt>
      <trkpt lat="45.47085" lon="2.89689">
        <ele>1224.38</ele>
        <time>2021-08-15T08:09:09Z</time>
      </trkpt>
      <trkpt lat="45.47083" lon="2.8969">
        <ele>1224.38</ele>
        <time>2021-08-15T08:09:10Z</time>
      </trkpt>
      <trkpt lat="45.4708" lon="2.8969">
        <ele>1224.38</ele>
        <time>2021-08-15T08:09:11Z</time>
      </trkpt>
      <trkpt lat="45.47077" lon="2.89691">
        <ele>1224.38</ele>
        <time>2021-08-15T08:09:12Z</time>
      </trkpt>
      <trkpt lat="45.47063" lon="2.89691">
        <ele>1223.9</ele>
        <time>2021-08-15T08:09:17Z</time>
      </trkpt>
      <trkpt lat="45.4705" lon="2.89699">
        <ele>1222.93</ele>
        <time>2021-08-15T08:09:22Z</time>
      </trkpt>
      <trkpt lat="45.47026" lon="2.89707">
        <ele>1221.49</ele>
        <time>2021-08-15T08:09:29Z</time>
      </trkpt>
      <trkpt lat="45.47007" lon="2.89715">
        <ele>1219.09</ele>
        <time>2021-08-15T08:09:33Z</time>
      </trkpt>
      <trkpt lat="45.47003" lon="2.89716">
        <ele>1218.61</ele>
        <time>2021-08-15T08:09:34Z</time>
      </trkpt>
      <trkpt lat="45.46998" lon="2.89718">
        <ele>1218.61</ele>
        <time>2021-08-15T08:09:35Z</time>
      </trkpt>
      <trkpt lat="45.46972" lon="2.89728">
        <ele>1215.72</ele>
        <time>2021-08-15T08:09:41Z</time>
      </trkpt>
      <trkpt lat="45.46968" lon="2.89729">
        <ele>1214.76</ele>
        <time>2021-08-15T08:09:42Z</time>
      </trkpt>
      <trkpt lat="45.46964" lon="2.89731">
        <ele>1214.76</ele>
        <time>2021-08-15T08:09:43Z</time>
      </trkpt>
      <trkpt lat="45.46954" lon="2.89734">
        <ele>1212.36</ele>
        <time>2021-08-15T08:09:45Z</time>
      </trkpt>
      <trkpt lat="45.46949" lon="2.89735">
        <ele>1211.88</ele>
        <time>2021-08-15T08:09:46Z</time>
      </trkpt>
      <trkpt lat="45.46939" lon="2.89739">
        <ele>1210.44</ele>
        <time>2021-08-15T08:09:48Z</time>
      </trkpt>
      <trkpt lat="45.46934" lon="2.8974">
        <ele>1210.44</ele>
        <time>2021-08-15T08:09:49Z</time>
      </trkpt>
      <trkpt lat="45.46929" lon="2.8974">
        <ele>1209</ele>
        <time>2021-08-15T08:09:50Z</time>
      </trkpt>
      <trkpt lat="45.46907" lon="2.89742">
        <ele>1207.07</ele>
        <time>2021-08-15T08:09:54Z</time>
      </trkpt>
      <trkpt lat="45.46882" lon="2.89749">
        <ele>1203.71</ele>
        <time>2021-08-15T08:09:58Z</time>
      </trkpt>
      <trkpt lat="45.46875" lon="2.89752">
        <ele>1203.71</ele>
        <time>2021-08-15T08:09:59Z</time>
      </trkpt>
      <trkpt lat="45.46858" lon="2.89758">
        <ele>1203.23</ele>
        <time>2021-08-15T08:10:02Z</time>
      </trkpt>
      <trkpt lat="45.46852" lon="2.8976">
        <ele>1203.23</ele>
        <time>2021-08-15T08:10:03Z</time>
      </trkpt>
      <trkpt lat="45.4684" lon="2.89763">
        <ele>1200.82</ele>
        <time>2021-08-15T08:10:05Z</time>
      </trkpt>
      <trkpt lat="45.46833" lon="2.89764">
        <ele>1200.82</ele>
        <time>2021-08-15T08:10:06Z</time>
      </trkpt>
      <trkpt lat="45.46822" lon="2.89767">
        <ele>1198.9</ele>
        <time>2021-08-15T08:10:08Z</time>
      </trkpt>
      <trkpt lat="45.46816" lon="2.89768">
        <ele>1198.9</ele>
        <time>2021-08-15T08:10:09Z</time>
      </trkpt>
      <trkpt lat="45.46805" lon="2.89771">
        <ele>1197.46</ele>
        <time>2021-08-15T08:10:11Z</time>
      </trkpt>
      <trkpt lat="45.468" lon="2.89773">
        <ele>1197.46</ele>
        <time>2021-08-15T08:10:12Z</time>
      </trkpt>
      <trkpt lat="45.46782" lon="2.8978">
        <ele>1195.06</ele>
        <time>2021-08-15T08:10:15Z</time>
      </trkpt>
      <trkpt lat="45.46775" lon="2.89782">
        <ele>1195.06</ele>
        <time>2021-08-15T08:10:16Z</time>
      </trkpt>
      <trkpt lat="45.46759" lon="2.8979">
        <ele>1194.58</ele>
        <time>2021-08-15T08:10:20Z</time>
      </trkpt>
      <trkpt lat="45.46755" lon="2.89789">
        <ele>1194.58</ele>
        <time>2021-08-15T08:10:24Z</time>
      </trkpt>
      <trkpt lat="45.4675" lon="2.89789">
        <ele>1193.61</ele>
        <time>2021-08-15T08:10:27Z</time>
      </trkpt>
      <trkpt lat="45.46748" lon="2.8979">
        <ele>1193.61</ele>
        <time>2021-08-15T08:10:28Z</time>
      </trkpt>
      <trkpt lat="45.46745" lon="2.89792">
        <ele>1193.61</ele>
        <time>2021-08-15T08:10:29Z</time>
      </trkpt>
      <trkpt lat="45.46742" lon="2.89794">
        <ele>1192.65</ele>
        <time>2021-08-15T08:10:30Z</time>
      </trkpt>
      <trkpt lat="45.46738" lon="2.89796">
        <ele>1192.17</ele>
        <time>2021-08-15T08:10:31Z</time>
      </trkpt>
      <trkpt lat="45.46735" lon="2.89798">
        <ele>1192.17</ele>
        <time>2021-08-15T08:10:32Z</time>
      </trkpt>
      <trkpt lat="45.46731" lon="2.89801">
        <ele>1190.73</ele>
        <time>2021-08-15T08:10:33Z</time>
      </trkpt>
      <trkpt lat="45.46728" lon="2.89803">
        <ele>1190.73</ele>
        <time>2021-08-15T08:10:34Z</time>
      </trkpt>
      <trkpt lat="45.46699" lon="2.8983">
        <ele>1188.33</ele>
        <time>2021-08-15T08:10:42Z</time>
      </trkpt>
      <trkpt lat="45.46696" lon="2.89834">
        <ele>1188.33</ele>
        <time>2021-08-15T08:10:43Z</time>
      </trkpt>
      <trkpt lat="45.46693" lon="2.89838">
        <ele>1187.85</ele>
        <time>2021-08-15T08:10:44Z</time>
      </trkpt>
      <trkpt lat="45.46689" lon="2.89841">
        <ele>1187.37</ele>
        <time>2021-08-15T08:10:45Z</time>
      </trkpt>
      <trkpt lat="45.46686" lon="2.89843">
        <ele>1187.85</ele>
        <time>2021-08-15T08:10:46Z</time>
      </trkpt>
      <trkpt lat="45.46683" lon="2.89845">
        <ele>1187.37</ele>
        <time>2021-08-15T08:10:47Z</time>
      </trkpt>
      <trkpt lat="45.4668" lon="2.89846">
        <ele>1186.4</ele>
        <time>2021-08-15T08:10:48Z</time>
      </trkpt>
      <trkpt lat="45.46678" lon="2.89848">
        <ele>1186.4</ele>
        <time>2021-08-15T08:10:49Z</time>
      </trkpt>
      <trkpt lat="45.46678" lon="2.8985">
        <ele>1186.88</ele>
        <time>2021-08-15T08:10:54Z</time>
      </trkpt>
      <trkpt lat="45.46676" lon="2.89851">
        <ele>1185.92</ele>
        <time>2021-08-15T08:11:00Z</time>
      </trkpt>
      <trkpt lat="45.46668" lon="2.8986">
        <ele>1185.92</ele>
        <time>2021-08-15T08:11:07Z</time>
      </trkpt>
      <trkpt lat="45.46655" lon="2.89874">
        <ele>1185.92</ele>
        <time>2021-08-15T08:11:14Z</time>
      </trkpt>
      <trkpt lat="45.46644" lon="2.89879">
        <ele>1185.92</ele>
        <time>2021-08-15T08:11:19Z</time>
      </trkpt>
      <trkpt lat="45.46642" lon="2.89879">
        <ele>1185.92</ele>
        <time>2021-08-15T08:11:20Z</time>
      </trkpt>
      <trkpt lat="45.4664" lon="2.89878">
        <ele>1185.92</ele>
        <time>2021-08-15T08:11:21Z</time>
      </trkpt>
      <trkpt lat="45.4663" lon="2.89874">
        <ele>1184.96</ele>
        <time>2021-08-15T08:11:24Z</time>
      </trkpt>
      <trkpt lat="45.46602" lon="2.89867">
        <ele>1184.48</ele>
        <time>2021-08-15T08:11:30Z</time>
      </trkpt>
      <trkpt lat="45.46597" lon="2.89867">
        <ele>1184.48</ele>
        <time>2021-08-15T08:11:31Z</time>
      </trkpt>
      <trkpt lat="45.46578" lon="2.8987">
        <ele>1185.44</ele>
        <time>2021-08-15T08:11:36Z</time>
      </trkpt>
      <trkpt lat="45.46552" lon="2.89876">
        <ele>1185.44</ele>
        <time>2021-08-15T08:11:43Z</time>
      </trkpt>
      <trkpt lat="45.46548" lon="2.89878">
        <ele>1185.44</ele>
        <time>2021-08-15T08:11:44Z</time>
      </trkpt>
      <trkpt lat="45.46544" lon="2.89879">
        <ele>1185.44</ele>
        <time>2021-08-15T08:11:45Z</time>
      </trkpt>
      <trkpt lat="45.46511" lon="2.8989">
        <ele>1186.4</ele>
        <time>2021-08-15T08:11:53Z</time>
      </trkpt>
      <trkpt lat="45.46495" lon="2.899">
        <ele>1187.85</ele>
        <time>2021-08-15T08:11:59Z</time>
      </trkpt>
      <trkpt lat="45.46478" lon="2.89913">
        <ele>1189.29</ele>
        <time>2021-08-15T08:12:08Z</time>
      </trkpt>
      <trkpt lat="45.46459" lon="2.89927">
        <ele>1190.25</ele>
        <time>2021-08-15T08:12:18Z</time>
      </trkpt>
      <trkpt lat="45.4644" lon="2.89941">
        <ele>1190.25</ele>
        <time>2021-08-15T08:12:26Z</time>
      </trkpt>
      <trkpt lat="45.46414" lon="2.89963">
        <ele>1189.29</ele>
        <time>2021-08-15T08:12:35Z</time>
      </trkpt>
      <trkpt lat="45.4639" lon="2.89991">
        <ele>1188.81</ele>
        <time>2021-08-15T08:12:44Z</time>
      </trkpt>
      <trkpt lat="45.46377" lon="2.90019">
        <ele>1190.25</ele>
        <time>2021-08-15T08:12:53Z</time>
      </trkpt>
      <trkpt lat="45.46375" lon="2.90022">
        <ele>1190.25</ele>
        <time>2021-08-15T08:12:54Z</time>
      </trkpt>
      <trkpt lat="45.46357" lon="2.90058">
        <ele>1191.21</ele>
        <time>2021-08-15T08:13:05Z</time>
      </trkpt>
      <trkpt lat="45.46344" lon="2.90095">
        <ele>1191.69</ele>
        <time>2021-08-15T08:13:14Z</time>
      </trkpt>
      <trkpt lat="45.46335" lon="2.90129">
        <ele>1192.17</ele>
        <time>2021-08-15T08:13:21Z</time>
      </trkpt>
      <trkpt lat="45.46332" lon="2.9014">
        <ele>1192.17</ele>
        <time>2021-08-15T08:13:23Z</time>
      </trkpt>
      <trkpt lat="45.4633" lon="2.90147">
        <ele>1192.17</ele>
        <time>2021-08-15T08:13:24Z</time>
      </trkpt>
      <trkpt lat="45.46328" lon="2.90152">
        <ele>1192.17</ele>
        <time>2021-08-15T08:13:25Z</time>
      </trkpt>
      <trkpt lat="45.46326" lon="2.90158">
        <ele>1192.17</ele>
        <time>2021-08-15T08:13:26Z</time>
      </trkpt>
      <trkpt lat="45.46325" lon="2.90164">
        <ele>1192.17</ele>
        <time>2021-08-15T08:13:27Z</time>
      </trkpt>
      <trkpt lat="45.46323" lon="2.9017">
        <ele>1192.17</ele>
        <time>2021-08-15T08:13:28Z</time>
      </trkpt>
      <trkpt lat="45.46321" lon="2.90176">
        <ele>1192.17</ele>
        <time>2021-08-15T08:13:29Z</time>
      </trkpt>
      <trkpt lat="45.46319" lon="2.90183">
        <ele>1192.17</ele>
        <time>2021-08-15T08:13:30Z</time>
      </trkpt>
      <trkpt lat="45.46315" lon="2.90196">
        <ele>1192.17</ele>
        <time>2021-08-15T08:13:32Z</time>
      </trkpt>
      <trkpt lat="45.46312" lon="2.90202">
        <ele>1192.17</ele>
        <time>2021-08-15T08:13:33Z</time>
      </trkpt>
      <trkpt lat="45.46293" lon="2.90246">
        <ele>1190.25</ele>
        <time>2021-08-15T08:13:40Z</time>
      </trkpt>
      <trkpt lat="45.4629" lon="2.90252">
        <ele>1190.25</ele>
        <time>2021-08-15T08:13:41Z</time>
      </trkpt>
      <trkpt lat="45.46286" lon="2.90257">
        <ele>1190.25</ele>
        <time>2021-08-15T08:13:42Z</time>
      </trkpt>
      <trkpt lat="45.46283" lon="2.90263">
        <ele>1189.77</ele>
        <time>2021-08-15T08:13:43Z</time>
      </trkpt>
      <trkpt lat="45.46279" lon="2.90268">
        <ele>1189.77</ele>
        <time>2021-08-15T08:13:44Z</time>
      </trkpt>
      <trkpt lat="45.46272" lon="2.9028">
        <ele>1189.77</ele>
        <time>2021-08-15T08:13:46Z</time>
      </trkpt>
      <trkpt lat="45.46261" lon="2.90294">
        <ele>1189.77</ele>
        <time>2021-08-15T08:13:49Z</time>
      </trkpt>
      <trkpt lat="45.46257" lon="2.90297">
        <ele>1189.77</ele>
        <time>2021-08-15T08:13:50Z</time>
      </trkpt>
      <trkpt lat="45.46252" lon="2.903">
        <ele>1189.77</ele>
        <time>2021-08-15T08:13:51Z</time>
      </trkpt>
      <trkpt lat="45.46247" lon="2.90302">
        <ele>1189.77</ele>
        <time>2021-08-15T08:13:52Z</time>
      </trkpt>
      <trkpt lat="45.46243" lon="2.90304">
        <ele>1189.77</ele>
        <time>2021-08-15T08:13:53Z</time>
      </trkpt>
      <trkpt lat="45.46207" lon="2.90313">
        <ele>1188.81</ele>
        <time>2021-08-15T08:14:00Z</time>
      </trkpt>
      <trkpt lat="45.46202" lon="2.90312">
        <ele>1187.85</ele>
        <time>2021-08-15T08:14:01Z</time>
      </trkpt>
      <trkpt lat="45.46197" lon="2.90311">
        <ele>1187.85</ele>
        <time>2021-08-15T08:14:02Z</time>
      </trkpt>
      <trkpt lat="45.46192" lon="2.90309">
        <ele>1186.88</ele>
        <time>2021-08-15T08:14:03Z</time>
      </trkpt>
      <trkpt lat="45.46172" lon="2.90297">
        <ele>1185.92</ele>
        <time>2021-08-15T08:14:08Z</time>
      </trkpt>
      <trkpt lat="45.46169" lon="2.90295">
        <ele>1185.92</ele>
        <time>2021-08-15T08:14:09Z</time>
      </trkpt>
      <trkpt lat="45.4615" lon="2.90283">
        <ele>1184.96</ele>
        <time>2021-08-15T08:14:16Z</time>
      </trkpt>
      <trkpt lat="45.46145" lon="2.90284">
        <ele>1187.37</ele>
        <time>2021-08-15T08:14:18Z</time>
      </trkpt>
      <trkpt lat="45.46144" lon="2.90286">
        <ele>1187.85</ele>
        <time>2021-08-15T08:14:19Z</time>
      </trkpt>
      <trkpt lat="45.46138" lon="2.90305">
        <ele>1188.33</ele>
        <time>2021-08-15T08:14:26Z</time>
      </trkpt>
      <trkpt lat="45.46139" lon="2.90328">
        <ele>1190.25</ele>
        <time>2021-08-15T08:14:34Z</time>
      </trkpt>
      <trkpt lat="45.46143" lon="2.90349">
        <ele>1191.21</ele>
        <time>2021-08-15T08:14:41Z</time>
      </trkpt>
      <trkpt lat="45.46144" lon="2.90351">
        <ele>1191.21</ele>
        <time>2021-08-15T08:14:42Z</time>
      </trkpt>
      <trkpt lat="45.46144" lon="2.90353">
        <ele>1191.21</ele>
        <time>2021-08-15T08:14:43Z</time>
      </trkpt>
      <trkpt lat="45.46145" lon="2.90356">
        <ele>1191.69</ele>
        <time>2021-08-15T08:14:44Z</time>
      </trkpt>
      <trkpt lat="45.46146" lon="2.90358">
        <ele>1191.69</ele>
        <time>2021-08-15T08:14:45Z</time>
      </trkpt>
      <trkpt lat="45.46149" lon="2.90374">
        <ele>1192.65</ele>
        <time>2021-08-15T08:14:51Z</time>
      </trkpt>
      <trkpt lat="45.4615" lon="2.90401">
        <ele>1192.65</ele>
        <time>2021-08-15T08:14:58Z</time>
      </trkpt>
      <trkpt lat="45.4615" lon="2.90412">
        <ele>1191.21</ele>
        <time>2021-08-15T08:15:00Z</time>
      </trkpt>
      <trkpt lat="45.46152" lon="2.90444">
        <ele>1188.81</ele>
        <time>2021-08-15T08:15:06Z</time>
      </trkpt>
      <trkpt lat="45.46154" lon="2.90488">
        <ele>1185.44</ele>
        <time>2021-08-15T08:15:14Z</time>
      </trkpt>
      <trkpt lat="45.46154" lon="2.90494">
        <ele>1185.44</ele>
        <time>2021-08-15T08:15:15Z</time>
      </trkpt>
      <trkpt lat="45.46154" lon="2.905">
        <ele>1184</ele>
        <time>2021-08-15T08:15:16Z</time>
      </trkpt>
      <trkpt lat="45.46155" lon="2.90507">
        <ele>1183.04</ele>
        <time>2021-08-15T08:15:17Z</time>
      </trkpt>
      <trkpt lat="45.46156" lon="2.90513">
        <ele>1182.08</ele>
        <time>2021-08-15T08:15:18Z</time>
      </trkpt>
      <trkpt lat="45.46157" lon="2.9052">
        <ele>1181.6</ele>
        <time>2021-08-15T08:15:19Z</time>
      </trkpt>
      <trkpt lat="45.46157" lon="2.90527">
        <ele>1180.64</ele>
        <time>2021-08-15T08:15:20Z</time>
      </trkpt>
      <trkpt lat="45.46158" lon="2.90538">
        <ele>1179.19</ele>
        <time>2021-08-15T08:15:21Z</time>
      </trkpt>
      <trkpt lat="45.46157" lon="2.90573">
        <ele>1175.83</ele>
        <time>2021-08-15T08:15:25Z</time>
      </trkpt>
      <trkpt lat="45.46155" lon="2.90599">
        <ele>1171.98</ele>
        <time>2021-08-15T08:15:28Z</time>
      </trkpt>
      <trkpt lat="45.46153" lon="2.9064">
        <ele>1169.1</ele>
        <time>2021-08-15T08:15:32Z</time>
      </trkpt>
      <trkpt lat="45.46149" lon="2.90693">
        <ele>1165.26</ele>
        <time>2021-08-15T08:15:37Z</time>
      </trkpt>
      <trkpt lat="45.46149" lon="2.90702">
        <ele>1165.26</ele>
        <time>2021-08-15T08:15:38Z</time>
      </trkpt>
      <trkpt lat="45.46151" lon="2.90712">
        <ele>1164.29</ele>
        <time>2021-08-15T08:15:39Z</time>
      </trkpt>
      <trkpt lat="45.46154" lon="2.90721">
        <ele>1163.81</ele>
        <time>2021-08-15T08:15:40Z</time>
      </trkpt>
      <trkpt lat="45.46158" lon="2.90731">
        <ele>1163.81</ele>
        <time>2021-08-15T08:15:41Z</time>
      </trkpt>
      <trkpt lat="45.46163" lon="2.90738">
        <ele>1163.81</ele>
        <time>2021-08-15T08:15:42Z</time>
      </trkpt>
      <trkpt lat="45.46169" lon="2.90744">
        <ele>1163.81</ele>
        <time>2021-08-15T08:15:43Z</time>
      </trkpt>
      <trkpt lat="45.46175" lon="2.90747">
        <ele>1162.85</ele>
        <time>2021-08-15T08:15:44Z</time>
      </trkpt>
      <trkpt lat="45.4618" lon="2.90749">
        <ele>1161.41</ele>
        <time>2021-08-15T08:15:45Z</time>
      </trkpt>
      <trkpt lat="45.46186" lon="2.9075">
        <ele>1160.45</ele>
        <time>2021-08-15T08:15:46Z</time>
      </trkpt>
      <trkpt lat="45.46196" lon="2.90753">
        <ele>1160.45</ele>
        <time>2021-08-15T08:15:48Z</time>
      </trkpt>
      <trkpt lat="45.46198" lon="2.90755">
        <ele>1161.89</ele>
        <time>2021-08-15T08:15:49Z</time>
      </trkpt>
      <trkpt lat="45.46199" lon="2.90755">
        <ele>1161.89</ele>
        <time>2021-08-15T08:15:50Z</time>
      </trkpt>
      <trkpt lat="45.462" lon="2.90754">
        <ele>1160.93</ele>
        <time>2021-08-15T08:15:51Z</time>
      </trkpt>
      <trkpt lat="45.46195" lon="2.90751">
        <ele>1161.89</ele>
        <time>2021-08-15T08:15:55Z</time>
      </trkpt>
      <trkpt lat="45.46193" lon="2.90752">
        <ele>1161.89</ele>
        <time>2021-08-15T08:15:56Z</time>
      </trkpt>
      <trkpt lat="45.4619" lon="2.90751">
        <ele>1161.89</ele>
        <time>2021-08-15T08:15:57Z</time>
      </trkpt>
      <trkpt lat="45.46188" lon="2.90751">
        <ele>1161.89</ele>
        <time>2021-08-15T08:15:58Z</time>
      </trkpt>
      <trkpt lat="45.46166" lon="2.90753">
        <ele>1163.33</ele>
        <time>2021-08-15T08:16:08Z</time>
      </trkpt>
      <trkpt lat="45.46151" lon="2.90762">
        <ele>1164.77</ele>
        <time>2021-08-15T08:16:16Z</time>
      </trkpt>
      <trkpt lat="45.46149" lon="2.90766">
        <ele>1165.26</ele>
        <time>2021-08-15T08:16:18Z</time>
      </trkpt>
      <trkpt lat="45.46143" lon="2.90778">
        <ele>1166.7</ele>
        <time>2021-08-15T08:16:25Z</time>
      </trkpt>
      <trkpt lat="45.46134" lon="2.90793">
        <ele>1168.14</ele>
        <time>2021-08-15T08:16:34Z</time>
      </trkpt>
      <trkpt lat="45.4613" lon="2.908">
        <ele>1167.66</ele>
        <time>2021-08-15T08:16:40Z</time>
      </trkpt>
      <trkpt lat="45.46129" lon="2.90801">
        <ele>1167.66</ele>
        <time>2021-08-15T08:16:41Z</time>
      </trkpt>
      <trkpt lat="45.4612" lon="2.90816">
        <ele>1169.58</ele>
        <time>2021-08-15T08:16:53Z</time>
      </trkpt>
      <trkpt lat="45.46115" lon="2.90824">
        <ele>1170.54</ele>
        <time>2021-08-15T08:17:01Z</time>
      </trkpt>
      <trkpt lat="45.4611" lon="2.90832">
        <ele>1171.02</ele>
        <time>2021-08-15T08:17:09Z</time>
      </trkpt>
      <trkpt lat="45.46105" lon="2.9084">
        <ele>1171.5</ele>
        <time>2021-08-15T08:17:17Z</time>
      </trkpt>
      <trkpt lat="45.461" lon="2.90851">
        <ele>1173.43</ele>
        <time>2021-08-15T08:17:28Z</time>
      </trkpt>
      <trkpt lat="45.46094" lon="2.9086">
        <ele>1174.39</ele>
        <time>2021-08-15T08:17:37Z</time>
      </trkpt>
      <trkpt lat="45.4609" lon="2.90867">
        <ele>1174.87</ele>
        <time>2021-08-15T08:17:45Z</time>
      </trkpt>
      <trkpt lat="45.46084" lon="2.90878">
        <ele>1175.83</ele>
        <time>2021-08-15T08:17:55Z</time>
      </trkpt>
      <trkpt lat="45.46081" lon="2.90883">
        <ele>1176.31</ele>
        <time>2021-08-15T08:18:01Z</time>
      </trkpt>
      <trkpt lat="45.46078" lon="2.90889">
        <ele>1177.27</ele>
        <time>2021-08-15T08:18:06Z</time>
      </trkpt>
      <trkpt lat="45.46072" lon="2.90899">
        <ele>1178.23</ele>
        <time>2021-08-15T08:18:16Z</time>
      </trkpt>
      <trkpt lat="45.46067" lon="2.90909">
        <ele>1179.19</ele>
        <time>2021-08-15T08:18:25Z</time>
      </trkpt>
      <trkpt lat="45.46062" lon="2.90919">
        <ele>1180.16</ele>
        <time>2021-08-15T08:18:34Z</time>
      </trkpt>
      <trkpt lat="45.46056" lon="2.90929">
        <ele>1181.12</ele>
        <time>2021-08-15T08:18:43Z</time>
      </trkpt>
      <trkpt lat="45.46048" lon="2.90939">
        <ele>1182.08</ele>
        <time>2021-08-15T08:18:53Z</time>
      </trkpt>
      <trkpt lat="45.46038" lon="2.90947">
        <ele>1182.56</ele>
        <time>2021-08-15T08:19:03Z</time>
      </trkpt>
      <trkpt lat="45.46028" lon="2.90954">
        <ele>1183.52</ele>
        <time>2021-08-15T08:19:13Z</time>
      </trkpt>
      <trkpt lat="45.46021" lon="2.90958">
        <ele>1184</ele>
        <time>2021-08-15T08:19:20Z</time>
      </trkpt>
      <trkpt lat="45.4602" lon="2.90959">
        <ele>1184</ele>
        <time>2021-08-15T08:19:21Z</time>
      </trkpt>
      <trkpt lat="45.46019" lon="2.90959">
        <ele>1184</ele>
        <time>2021-08-15T08:19:22Z</time>
      </trkpt>
      <trkpt lat="45.46016" lon="2.90961">
        <ele>1184.48</ele>
        <time>2021-08-15T08:19:25Z</time>
      </trkpt>
      <trkpt lat="45.46015" lon="2.90962">
        <ele>1184.48</ele>
        <time>2021-08-15T08:19:26Z</time>
      </trkpt>
      <trkpt lat="45.46014" lon="2.90962">
        <ele>1184.48</ele>
        <time>2021-08-15T08:19:27Z</time>
      </trkpt>
      <trkpt lat="45.46013" lon="2.90963">
        <ele>1184.96</ele>
        <time>2021-08-15T08:19:28Z</time>
      </trkpt>
      <trkpt lat="45.46012" lon="2.90964">
        <ele>1184.96</ele>
        <time>2021-08-15T08:19:29Z</time>
      </trkpt>
      <trkpt lat="45.46007" lon="2.90967">
        <ele>1185.44</ele>
        <time>2021-08-15T08:19:36Z</time>
      </trkpt>
      <trkpt lat="45.46001" lon="2.90971">
        <ele>1185.92</ele>
        <time>2021-08-15T08:19:42Z</time>
      </trkpt>
      <trkpt lat="45.45996" lon="2.90974">
        <ele>1186.4</ele>
        <time>2021-08-15T08:19:46Z</time>
      </trkpt>
      <trkpt lat="45.45995" lon="2.90975">
        <ele>1186.4</ele>
        <time>2021-08-15T08:19:47Z</time>
      </trkpt>
      <trkpt lat="45.45993" lon="2.90976">
        <ele>1186.4</ele>
        <time>2021-08-15T08:19:48Z</time>
      </trkpt>
      <trkpt lat="45.45992" lon="2.90977">
        <ele>1186.4</ele>
        <time>2021-08-15T08:19:49Z</time>
      </trkpt>
      <trkpt lat="45.45991" lon="2.90979">
        <ele>1186.88</ele>
        <time>2021-08-15T08:19:50Z</time>
      </trkpt>
      <trkpt lat="45.4599" lon="2.9098">
        <ele>1186.88</ele>
        <time>2021-08-15T08:19:51Z</time>
      </trkpt>
      <trkpt lat="45.45981" lon="2.90988">
        <ele>1187.37</ele>
        <time>2021-08-15T08:19:58Z</time>
      </trkpt>
      <trkpt lat="45.45979" lon="2.90989">
        <ele>1186.88</ele>
        <time>2021-08-15T08:19:59Z</time>
      </trkpt>
      <trkpt lat="45.45978" lon="2.9099">
        <ele>1186.88</ele>
        <time>2021-08-15T08:20:00Z</time>
      </trkpt>
      <trkpt lat="45.45959" lon="2.90999">
        <ele>1187.85</ele>
        <time>2021-08-15T08:20:11Z</time>
      </trkpt>
      <trkpt lat="45.45944" lon="2.91003">
        <ele>1188.33</ele>
        <time>2021-08-15T08:20:20Z</time>
      </trkpt>
      <trkpt lat="45.45929" lon="2.91005">
        <ele>1189.29</ele>
        <time>2021-08-15T08:20:29Z</time>
      </trkpt>
      <trkpt lat="45.45913" lon="2.91007">
        <ele>1190.25</ele>
        <time>2021-08-15T08:20:39Z</time>
      </trkpt>
      <trkpt lat="45.45902" lon="2.91009">
        <ele>1190.73</ele>
        <time>2021-08-15T08:20:46Z</time>
      </trkpt>
      <trkpt lat="45.459" lon="2.91009">
        <ele>1190.73</ele>
        <time>2021-08-15T08:20:47Z</time>
      </trkpt>
      <trkpt lat="45.45884" lon="2.9101">
        <ele>1192.17</ele>
        <time>2021-08-15T08:20:57Z</time>
      </trkpt>
      <trkpt lat="45.4587" lon="2.91011">
        <ele>1193.13</ele>
        <time>2021-08-15T08:21:06Z</time>
      </trkpt>
      <trkpt lat="45.45868" lon="2.91011">
        <ele>1193.61</ele>
        <time>2021-08-15T08:21:07Z</time>
      </trkpt>
      <trkpt lat="45.45866" lon="2.91011">
        <ele>1193.61</ele>
        <time>2021-08-15T08:21:08Z</time>
      </trkpt>
      <trkpt lat="45.45865" lon="2.91011">
        <ele>1193.61</ele>
        <time>2021-08-15T08:21:09Z</time>
      </trkpt>
      <trkpt lat="45.45863" lon="2.91011">
        <ele>1194.09</ele>
        <time>2021-08-15T08:21:10Z</time>
      </trkpt>
      <trkpt lat="45.45862" lon="2.91011">
        <ele>1194.09</ele>
        <time>2021-08-15T08:21:11Z</time>
      </trkpt>
      <trkpt lat="45.4586" lon="2.91012">
        <ele>1194.58</ele>
        <time>2021-08-15T08:21:12Z</time>
      </trkpt>
      <trkpt lat="45.45848" lon="2.91015">
        <ele>1195.54</ele>
        <time>2021-08-15T08:21:21Z</time>
      </trkpt>
      <trkpt lat="45.45847" lon="2.91017">
        <ele>1195.54</ele>
        <time>2021-08-15T08:21:22Z</time>
      </trkpt>
      <trkpt lat="45.45847" lon="2.91018">
        <ele>1195.54</ele>
        <time>2021-08-15T08:21:23Z</time>
      </trkpt>
      <trkpt lat="45.45847" lon="2.9102">
        <ele>1195.54</ele>
        <time>2021-08-15T08:21:24Z</time>
      </trkpt>
      <trkpt lat="45.45847" lon="2.91022">
        <ele>1195.54</ele>
        <time>2021-08-15T08:21:25Z</time>
      </trkpt>
      <trkpt lat="45.45845" lon="2.91024">
        <ele>1195.54</ele>
        <time>2021-08-15T08:21:26Z</time>
      </trkpt>
      <trkpt lat="45.45843" lon="2.91027">
        <ele>1194.09</ele>
        <time>2021-08-15T08:21:27Z</time>
      </trkpt>
      <trkpt lat="45.45841" lon="2.9103">
        <ele>1194.09</ele>
        <time>2021-08-15T08:21:28Z</time>
      </trkpt>
      <trkpt lat="45.45836" lon="2.91036">
        <ele>1192.65</ele>
        <time>2021-08-15T08:21:30Z</time>
      </trkpt>
      <trkpt lat="45.45832" lon="2.9104">
        <ele>1192.17</ele>
        <time>2021-08-15T08:21:31Z</time>
      </trkpt>
      <trkpt lat="45.45827" lon="2.91042">
        <ele>1191.21</ele>
        <time>2021-08-15T08:21:32Z</time>
      </trkpt>
      <trkpt lat="45.4582" lon="2.91045">
        <ele>1190.73</ele>
        <time>2021-08-15T08:21:33Z</time>
      </trkpt>
      <trkpt lat="45.45816" lon="2.91047">
        <ele>1189.77</ele>
        <time>2021-08-15T08:21:34Z</time>
      </trkpt>
      <trkpt lat="45.4581" lon="2.91048">
        <ele>1188.81</ele>
        <time>2021-08-15T08:21:35Z</time>
      </trkpt>
      <trkpt lat="45.45803" lon="2.91049">
        <ele>1188.81</ele>
        <time>2021-08-15T08:21:36Z</time>
      </trkpt>
      <trkpt lat="45.45797" lon="2.91049">
        <ele>1188.81</ele>
        <time>2021-08-15T08:21:37Z</time>
      </trkpt>
      <trkpt lat="45.4579" lon="2.91049">
        <ele>1189.29</ele>
        <time>2021-08-15T08:21:38Z</time>
      </trkpt>
      <trkpt lat="45.45785" lon="2.91049">
        <ele>1188.81</ele>
        <time>2021-08-15T08:21:39Z</time>
      </trkpt>
      <trkpt lat="45.45779" lon="2.91049">
        <ele>1189.29</ele>
        <time>2021-08-15T08:21:40Z</time>
      </trkpt>
      <trkpt lat="45.45774" lon="2.91051">
        <ele>1188.33</ele>
        <time>2021-08-15T08:21:41Z</time>
      </trkpt>
      <trkpt lat="45.4577" lon="2.91053">
        <ele>1187.37</ele>
        <time>2021-08-15T08:21:42Z</time>
      </trkpt>
      <trkpt lat="45.45762" lon="2.91059">
        <ele>1184</ele>
        <time>2021-08-15T08:21:45Z</time>
      </trkpt>
      <trkpt lat="45.45755" lon="2.91066">
        <ele>1181.12</ele>
        <time>2021-08-15T08:21:49Z</time>
      </trkpt>
      <trkpt lat="45.45753" lon="2.91068">
        <ele>1179.67</ele>
        <time>2021-08-15T08:21:50Z</time>
      </trkpt>
      <trkpt lat="45.45746" lon="2.91076">
        <ele>1176.31</ele>
        <time>2021-08-15T08:21:54Z</time>
      </trkpt>
      <trkpt lat="45.45735" lon="2.9109">
        <ele>1172.95</ele>
        <time>2021-08-15T08:21:58Z</time>
      </trkpt>
      <trkpt lat="45.45719" lon="2.91109">
        <ele>1173.43</ele>
        <time>2021-08-15T08:22:03Z</time>
      </trkpt>
      <trkpt lat="45.4571" lon="2.91122">
        <ele>1175.35</ele>
        <time>2021-08-15T08:22:10Z</time>
      </trkpt>
      <trkpt lat="45.45698" lon="2.91141">
        <ele>1172.95</ele>
        <time>2021-08-15T08:22:16Z</time>
      </trkpt>
      <trkpt lat="45.4569" lon="2.91153">
        <ele>1174.39</ele>
        <time>2021-08-15T08:22:21Z</time>
      </trkpt>
      <trkpt lat="45.45681" lon="2.91167">
        <ele>1176.31</ele>
        <time>2021-08-15T08:22:29Z</time>
      </trkpt>
      <trkpt lat="45.45678" lon="2.91173">
        <ele>1176.79</ele>
        <time>2021-08-15T08:22:32Z</time>
      </trkpt>
      <trkpt lat="45.45669" lon="2.91187">
        <ele>1177.27</ele>
        <time>2021-08-15T08:22:39Z</time>
      </trkpt>
      <trkpt lat="45.45664" lon="2.91193">
        <ele>1175.35</ele>
        <time>2021-08-15T08:22:42Z</time>
      </trkpt>
      <trkpt lat="45.45661" lon="2.91196">
        <ele>1174.39</ele>
        <time>2021-08-15T08:22:43Z</time>
      </trkpt>
      <trkpt lat="45.45659" lon="2.912">
        <ele>1173.91</ele>
        <time>2021-08-15T08:22:44Z</time>
      </trkpt>
      <trkpt lat="45.45656" lon="2.91205">
        <ele>1173.43</ele>
        <time>2021-08-15T08:22:45Z</time>
      </trkpt>
      <trkpt lat="45.45654" lon="2.91211">
        <ele>1172.95</ele>
        <time>2021-08-15T08:22:46Z</time>
      </trkpt>
      <trkpt lat="45.45651" lon="2.91217">
        <ele>1172.95</ele>
        <time>2021-08-15T08:22:47Z</time>
      </trkpt>
      <trkpt lat="45.45645" lon="2.91228">
        <ele>1172.95</ele>
        <time>2021-08-15T08:22:49Z</time>
      </trkpt>
      <trkpt lat="45.45628" lon="2.91251">
        <ele>1173.91</ele>
        <time>2021-08-15T08:22:55Z</time>
      </trkpt>
      <trkpt lat="45.45626" lon="2.91254">
        <ele>1173.91</ele>
        <time>2021-08-15T08:22:56Z</time>
      </trkpt>
      <trkpt lat="45.45616" lon="2.91268">
        <ele>1175.83</ele>
        <time>2021-08-15T08:23:05Z</time>
      </trkpt>
      <trkpt lat="45.45616" lon="2.9127">
        <ele>1175.83</ele>
        <time>2021-08-15T08:23:06Z</time>
      </trkpt>
      <trkpt lat="45.45613" lon="2.9128">
        <ele>1177.27</ele>
        <time>2021-08-15T08:23:11Z</time>
      </trkpt>
      <trkpt lat="45.45612" lon="2.91282">
        <ele>1177.75</ele>
        <time>2021-08-15T08:23:12Z</time>
      </trkpt>
      <trkpt lat="45.45611" lon="2.91283">
        <ele>1177.75</ele>
        <time>2021-08-15T08:23:13Z</time>
      </trkpt>
      <trkpt lat="45.45609" lon="2.91285">
        <ele>1177.75</ele>
        <time>2021-08-15T08:23:14Z</time>
      </trkpt>
      <trkpt lat="45.45607" lon="2.91287">
        <ele>1177.75</ele>
        <time>2021-08-15T08:23:15Z</time>
      </trkpt>
      <trkpt lat="45.456" lon="2.91301">
        <ele>1178.23</ele>
        <time>2021-08-15T08:23:22Z</time>
      </trkpt>
      <trkpt lat="45.45594" lon="2.91317">
        <ele>1179.19</ele>
        <time>2021-08-15T08:23:29Z</time>
      </trkpt>
      <trkpt lat="45.45581" lon="2.91338">
        <ele>1179.19</ele>
        <time>2021-08-15T08:23:36Z</time>
      </trkpt>
      <trkpt lat="45.45569" lon="2.91358">
        <ele>1176.79</ele>
        <time>2021-08-15T08:23:42Z</time>
      </trkpt>
      <trkpt lat="45.45563" lon="2.91371">
        <ele>1174.39</ele>
        <time>2021-08-15T08:23:45Z</time>
      </trkpt>
      <trkpt lat="45.45561" lon="2.91377">
        <ele>1173.43</ele>
        <time>2021-08-15T08:23:46Z</time>
      </trkpt>
      <trkpt lat="45.45559" lon="2.91384">
        <ele>1173.43</ele>
        <time>2021-08-15T08:23:47Z</time>
      </trkpt>
      <trkpt lat="45.45556" lon="2.9139">
        <ele>1173.43</ele>
        <time>2021-08-15T08:23:48Z</time>
      </trkpt>
      <trkpt lat="45.45555" lon="2.91396">
        <ele>1173.43</ele>
        <time>2021-08-15T08:23:49Z</time>
      </trkpt>
      <trkpt lat="45.45551" lon="2.91406">
        <ele>1175.83</ele>
        <time>2021-08-15T08:23:52Z</time>
      </trkpt>
      <trkpt lat="45.45547" lon="2.91413">
        <ele>1177.75</ele>
        <time>2021-08-15T08:23:57Z</time>
      </trkpt>
      <trkpt lat="45.45546" lon="2.91416">
        <ele>1178.23</ele>
        <time>2021-08-15T08:23:58Z</time>
      </trkpt>
      <trkpt lat="45.45545" lon="2.91418">
        <ele>1178.23</ele>
        <time>2021-08-15T08:23:59Z</time>
      </trkpt>
      <trkpt lat="45.45544" lon="2.9142">
        <ele>1178.23</ele>
        <time>2021-08-15T08:24:00Z</time>
      </trkpt>
      <trkpt lat="45.45542" lon="2.91423">
        <ele>1178.23</ele>
        <time>2021-08-15T08:24:01Z</time>
      </trkpt>
      <trkpt lat="45.45541" lon="2.91425">
        <ele>1178.23</ele>
        <time>2021-08-15T08:24:02Z</time>
      </trkpt>
      <trkpt lat="45.4554" lon="2.91428">
        <ele>1178.23</ele>
        <time>2021-08-15T08:24:03Z</time>
      </trkpt>
      <trkpt lat="45.45539" lon="2.91431">
        <ele>1176.31</ele>
        <time>2021-08-15T08:24:04Z</time>
      </trkpt>
      <trkpt lat="45.45538" lon="2.91435">
        <ele>1175.35</ele>
        <time>2021-08-15T08:24:05Z</time>
      </trkpt>
      <trkpt lat="45.45536" lon="2.91439">
        <ele>1174.39</ele>
        <time>2021-08-15T08:24:06Z</time>
      </trkpt>
      <trkpt lat="45.45534" lon="2.91443">
        <ele>1173.91</ele>
        <time>2021-08-15T08:24:07Z</time>
      </trkpt>
      <trkpt lat="45.45531" lon="2.91446">
        <ele>1173.43</ele>
        <time>2021-08-15T08:24:08Z</time>
      </trkpt>
      <trkpt lat="45.45528" lon="2.91448">
        <ele>1173.43</ele>
        <time>2021-08-15T08:24:09Z</time>
      </trkpt>
      <trkpt lat="45.45526" lon="2.9145">
        <ele>1173.43</ele>
        <time>2021-08-15T08:24:10Z</time>
      </trkpt>
      <trkpt lat="45.45517" lon="2.91463">
        <ele>1175.35</ele>
        <time>2021-08-15T08:24:16Z</time>
      </trkpt>
      <trkpt lat="45.45515" lon="2.91468">
        <ele>1175.35</ele>
        <time>2021-08-15T08:24:19Z</time>
      </trkpt>
      <trkpt lat="45.45514" lon="2.91471">
        <ele>1175.35</ele>
        <time>2021-08-15T08:24:20Z</time>
      </trkpt>
      <trkpt lat="45.45514" lon="2.91476">
        <ele>1175.35</ele>
        <time>2021-08-15T08:24:22Z</time>
      </trkpt>
      <trkpt lat="45.45515" lon="2.91478">
        <ele>1175.35</ele>
        <time>2021-08-15T08:24:23Z</time>
      </trkpt>
      <trkpt lat="45.45516" lon="2.91481">
        <ele>1175.35</ele>
        <time>2021-08-15T08:24:24Z</time>
      </trkpt>
      <trkpt lat="45.45518" lon="2.91483">
        <ele>1175.35</ele>
        <time>2021-08-15T08:24:25Z</time>
      </trkpt>
      <trkpt lat="45.4552" lon="2.91485">
        <ele>1173.43</ele>
        <time>2021-08-15T08:24:26Z</time>
      </trkpt>
      <trkpt lat="45.45521" lon="2.91487">
        <ele>1173.43</ele>
        <time>2021-08-15T08:24:27Z</time>
      </trkpt>
      <trkpt lat="45.45523" lon="2.9149">
        <ele>1172.47</ele>
        <time>2021-08-15T08:24:29Z</time>
      </trkpt>
      <trkpt lat="45.45524" lon="2.91492">
        <ele>1171.98</ele>
        <time>2021-08-15T08:24:30Z</time>
      </trkpt>
      <trkpt lat="45.45525" lon="2.91495">
        <ele>1171.5</ele>
        <time>2021-08-15T08:24:31Z</time>
      </trkpt>
      <trkpt lat="45.45526" lon="2.91496">
        <ele>1171.5</ele>
        <time>2021-08-15T08:24:32Z</time>
      </trkpt>
      <trkpt lat="45.45526" lon="2.91498">
        <ele>1171.02</ele>
        <time>2021-08-15T08:24:33Z</time>
      </trkpt>
      <trkpt lat="45.45525" lon="2.915">
        <ele>1171.02</ele>
        <time>2021-08-15T08:24:34Z</time>
      </trkpt>
      <trkpt lat="45.45522" lon="2.91503">
        <ele>1171.02</ele>
        <time>2021-08-15T08:24:37Z</time>
      </trkpt>
      <trkpt lat="45.45521" lon="2.91503">
        <ele>1171.02</ele>
        <time>2021-08-15T08:24:38Z</time>
      </trkpt>
      <trkpt lat="45.4552" lon="2.91504">
        <ele>1171.02</ele>
        <time>2021-08-15T08:24:39Z</time>
      </trkpt>
      <trkpt lat="45.45519" lon="2.91504">
        <ele>1171.02</ele>
        <time>2021-08-15T08:24:40Z</time>
      </trkpt>
      <trkpt lat="45.45517" lon="2.91505">
        <ele>1171.02</ele>
        <time>2021-08-15T08:24:41Z</time>
      </trkpt>
      <trkpt lat="45.45514" lon="2.91507">
        <ele>1171.98</ele>
        <time>2021-08-15T08:24:46Z</time>
      </trkpt>
      <trkpt lat="45.45502" lon="2.91508">
        <ele>1173.43</ele>
        <time>2021-08-15T08:24:54Z</time>
      </trkpt>
      <trkpt lat="45.45483" lon="2.9151">
        <ele>1171.5</ele>
        <time>2021-08-15T08:25:00Z</time>
      </trkpt>
      <trkpt lat="45.45466" lon="2.91508">
        <ele>1170.54</ele>
        <time>2021-08-15T08:25:05Z</time>
      </trkpt>
      <trkpt lat="45.45462" lon="2.91505">
        <ele>1170.06</ele>
        <time>2021-08-15T08:25:09Z</time>
      </trkpt>
      <trkpt lat="45.45459" lon="2.91505">
        <ele>1169.58</ele>
        <time>2021-08-15T08:25:16Z</time>
      </trkpt>
      <trkpt lat="45.4546" lon="2.91503">
        <ele>1169.58</ele>
        <time>2021-08-15T08:25:24Z</time>
      </trkpt>
      <trkpt lat="45.45459" lon="2.91496">
        <ele>1169.58</ele>
        <time>2021-08-15T08:25:32Z</time>
      </trkpt>
      <trkpt lat="45.4546" lon="2.91494">
        <ele>1169.58</ele>
        <time>2021-08-15T08:25:33Z</time>
      </trkpt>
      <trkpt lat="45.4546" lon="2.91492">
        <ele>1169.58</ele>
        <time>2021-08-15T08:25:34Z</time>
      </trkpt>
      <trkpt lat="45.45459" lon="2.91491">
        <ele>1169.58</ele>
        <time>2021-08-15T08:25:35Z</time>
      </trkpt>
      <trkpt lat="45.45458" lon="2.9149">
        <ele>1169.58</ele>
        <time>2021-08-15T08:25:36Z</time>
      </trkpt>
      <trkpt lat="45.45457" lon="2.91489">
        <ele>1169.58</ele>
        <time>2021-08-15T08:25:37Z</time>
      </trkpt>
      <trkpt lat="45.45456" lon="2.91488">
        <ele>1169.58</ele>
        <time>2021-08-15T08:25:38Z</time>
      </trkpt>
      <trkpt lat="45.45455" lon="2.91488">
        <ele>1169.58</ele>
        <time>2021-08-15T08:25:40Z</time>
      </trkpt>
      <trkpt lat="45.45444" lon="2.91493">
        <ele>1167.18</ele>
        <time>2021-08-15T08:25:46Z</time>
      </trkpt>
      <trkpt lat="45.45442" lon="2.91492">
        <ele>1167.18</ele>
        <time>2021-08-15T08:25:47Z</time>
      </trkpt>
      <trkpt lat="45.45439" lon="2.9149">
        <ele>1167.18</ele>
        <time>2021-08-15T08:25:48Z</time>
      </trkpt>
      <trkpt lat="45.45436" lon="2.91489">
        <ele>1167.18</ele>
        <time>2021-08-15T08:25:49Z</time>
      </trkpt>
      <trkpt lat="45.45433" lon="2.91489">
        <ele>1167.18</ele>
        <time>2021-08-15T08:25:50Z</time>
      </trkpt>
      <trkpt lat="45.45429" lon="2.91489">
        <ele>1166.7</ele>
        <time>2021-08-15T08:25:51Z</time>
      </trkpt>
      <trkpt lat="45.45426" lon="2.91489">
        <ele>1166.7</ele>
        <time>2021-08-15T08:25:52Z</time>
      </trkpt>
      <trkpt lat="45.45402" lon="2.91489">
        <ele>1166.7</ele>
        <time>2021-08-15T08:25:59Z</time>
      </trkpt>
      <trkpt lat="45.45392" lon="2.91488">
        <ele>1166.7</ele>
        <time>2021-08-15T08:26:02Z</time>
      </trkpt>
      <trkpt lat="45.45389" lon="2.91487">
        <ele>1166.7</ele>
        <time>2021-08-15T08:26:03Z</time>
      </trkpt>
      <trkpt lat="45.45386" lon="2.91486">
        <ele>1166.7</ele>
        <time>2021-08-15T08:26:04Z</time>
      </trkpt>
      <trkpt lat="45.45382" lon="2.91486">
        <ele>1166.7</ele>
        <time>2021-08-15T08:26:05Z</time>
      </trkpt>
      <trkpt lat="45.45379" lon="2.91485">
        <ele>1166.22</ele>
        <time>2021-08-15T08:26:06Z</time>
      </trkpt>
      <trkpt lat="45.45364" lon="2.91473">
        <ele>1166.22</ele>
        <time>2021-08-15T08:26:11Z</time>
      </trkpt>
      <trkpt lat="45.45353" lon="2.91466">
        <ele>1165.74</ele>
        <time>2021-08-15T08:26:16Z</time>
      </trkpt>
      <trkpt lat="45.45344" lon="2.91457">
        <ele>1166.7</ele>
        <time>2021-08-15T08:26:22Z</time>
      </trkpt>
      <trkpt lat="45.45341" lon="2.91453">
        <ele>1166.7</ele>
        <time>2021-08-15T08:26:24Z</time>
      </trkpt>
      <trkpt lat="45.45339" lon="2.91451">
        <ele>1166.7</ele>
        <time>2021-08-15T08:26:25Z</time>
      </trkpt>
      <trkpt lat="45.45336" lon="2.9145">
        <ele>1166.7</ele>
        <time>2021-08-15T08:26:26Z</time>
      </trkpt>
      <trkpt lat="45.45317" lon="2.91448">
        <ele>1166.7</ele>
        <time>2021-08-15T08:26:33Z</time>
      </trkpt>
      <trkpt lat="45.45314" lon="2.91447">
        <ele>1166.7</ele>
        <time>2021-08-15T08:26:34Z</time>
      </trkpt>
      <trkpt lat="45.45312" lon="2.91447">
        <ele>1166.7</ele>
        <time>2021-08-15T08:26:35Z</time>
      </trkpt>
      <trkpt lat="45.45309" lon="2.91447">
        <ele>1166.7</ele>
        <time>2021-08-15T08:26:36Z</time>
      </trkpt>
      <trkpt lat="45.45306" lon="2.91446">
        <ele>1166.7</ele>
        <time>2021-08-15T08:26:37Z</time>
      </trkpt>
      <trkpt lat="45.45303" lon="2.91446">
        <ele>1165.26</ele>
        <time>2021-08-15T08:26:38Z</time>
      </trkpt>
      <trkpt lat="45.453" lon="2.91445">
        <ele>1165.26</ele>
        <time>2021-08-15T08:26:39Z</time>
      </trkpt>
      <trkpt lat="45.4528" lon="2.91447">
        <ele>1165.26</ele>
        <time>2021-08-15T08:26:46Z</time>
      </trkpt>
      <trkpt lat="45.45266" lon="2.91444">
        <ele>1166.7</ele>
        <time>2021-08-15T08:26:54Z</time>
      </trkpt>
      <trkpt lat="45.45254" lon="2.91442">
        <ele>1167.66</ele>
        <time>2021-08-15T08:27:02Z</time>
      </trkpt>
      <trkpt lat="45.45242" lon="2.91435">
        <ele>1168.62</ele>
        <time>2021-08-15T08:27:12Z</time>
      </trkpt>
      <trkpt lat="45.45237" lon="2.91431">
        <ele>1168.62</ele>
        <time>2021-08-15T08:27:16Z</time>
      </trkpt>
      <trkpt lat="45.45235" lon="2.9143">
        <ele>1168.62</ele>
        <time>2021-08-15T08:27:17Z</time>
      </trkpt>
      <trkpt lat="45.45234" lon="2.91428">
        <ele>1169.1</ele>
        <time>2021-08-15T08:27:18Z</time>
      </trkpt>
      <trkpt lat="45.45232" lon="2.91427">
        <ele>1169.1</ele>
        <time>2021-08-15T08:27:19Z</time>
      </trkpt>
      <trkpt lat="45.45231" lon="2.91426">
        <ele>1169.1</ele>
        <time>2021-08-15T08:27:20Z</time>
      </trkpt>
      <trkpt lat="45.4523" lon="2.91425">
        <ele>1169.1</ele>
        <time>2021-08-15T08:27:21Z</time>
      </trkpt>
      <trkpt lat="45.45228" lon="2.91423">
        <ele>1169.58</ele>
        <time>2021-08-15T08:27:23Z</time>
      </trkpt>
      <trkpt lat="45.45226" lon="2.91422">
        <ele>1169.58</ele>
        <time>2021-08-15T08:27:24Z</time>
      </trkpt>
      <trkpt lat="45.45225" lon="2.91422">
        <ele>1169.58</ele>
        <time>2021-08-15T08:27:25Z</time>
      </trkpt>
      <trkpt lat="45.45224" lon="2.9142">
        <ele>1169.58</ele>
        <time>2021-08-15T08:27:26Z</time>
      </trkpt>
      <trkpt lat="45.45222" lon="2.91419">
        <ele>1169.58</ele>
        <time>2021-08-15T08:27:27Z</time>
      </trkpt>
      <trkpt lat="45.45219" lon="2.91415">
        <ele>1168.14</ele>
        <time>2021-08-15T08:27:29Z</time>
      </trkpt>
      <trkpt lat="45.45206" lon="2.91398">
        <ele>1166.22</ele>
        <time>2021-08-15T08:27:35Z</time>
      </trkpt>
      <trkpt lat="45.45188" lon="2.9138">
        <ele>1164.77</ele>
        <time>2021-08-15T08:27:41Z</time>
      </trkpt>
      <trkpt lat="45.45168" lon="2.91372">
        <ele>1164.77</ele>
        <time>2021-08-15T08:27:47Z</time>
      </trkpt>
      <trkpt lat="45.45158" lon="2.91366">
        <ele>1164.77</ele>
        <time>2021-08-15T08:27:52Z</time>
      </trkpt>
      <trkpt lat="45.4515" lon="2.91365">
        <ele>1164.77</ele>
        <time>2021-08-15T08:28:00Z</time>
      </trkpt>
      <trkpt lat="45.45141" lon="2.91363">
        <ele>1166.7</ele>
        <time>2021-08-15T08:28:09Z</time>
      </trkpt>
      <trkpt lat="45.4514" lon="2.91361">
        <ele>1166.7</ele>
        <time>2021-08-15T08:28:19Z</time>
      </trkpt>
      <trkpt lat="45.45138" lon="2.91364">
        <ele>1167.66</ele>
        <time>2021-08-15T08:28:26Z</time>
      </trkpt>
      <trkpt lat="45.4513" lon="2.91369">
        <ele>1168.14</ele>
        <time>2021-08-15T08:28:33Z</time>
      </trkpt>
      <trkpt lat="45.45118" lon="2.91376">
        <ele>1168.14</ele>
        <time>2021-08-15T08:28:41Z</time>
      </trkpt>
      <trkpt lat="45.45113" lon="2.9138">
        <ele>1168.14</ele>
        <time>2021-08-15T08:28:49Z</time>
      </trkpt>
      <trkpt lat="45.45112" lon="2.91379">
        <ele>1168.14</ele>
        <time>2021-08-15T08:28:51Z</time>
      </trkpt>
      <trkpt lat="45.45111" lon="2.91378">
        <ele>1167.18</ele>
        <time>2021-08-15T08:28:52Z</time>
      </trkpt>
      <trkpt lat="45.4511" lon="2.91377">
        <ele>1167.18</ele>
        <time>2021-08-15T08:28:53Z</time>
      </trkpt>
      <trkpt lat="45.45103" lon="2.91376">
        <ele>1167.18</ele>
        <time>2021-08-15T08:28:57Z</time>
      </trkpt>
      <trkpt lat="45.45102" lon="2.91377">
        <ele>1167.18</ele>
        <time>2021-08-15T08:28:58Z</time>
      </trkpt>
      <trkpt lat="45.45097" lon="2.91379">
        <ele>1167.18</ele>
        <time>2021-08-15T08:29:02Z</time>
      </trkpt>
      <trkpt lat="45.45096" lon="2.9138">
        <ele>1167.18</ele>
        <time>2021-08-15T08:29:03Z</time>
      </trkpt>
      <trkpt lat="45.4509" lon="2.91386">
        <ele>1167.18</ele>
        <time>2021-08-15T08:29:10Z</time>
      </trkpt>
      <trkpt lat="45.4508" lon="2.91392">
        <ele>1167.18</ele>
        <time>2021-08-15T08:29:17Z</time>
      </trkpt>
      <trkpt lat="45.45066" lon="2.91408">
        <ele>1166.22</ele>
        <time>2021-08-15T08:29:23Z</time>
      </trkpt>
      <trkpt lat="45.45052" lon="2.91427">
        <ele>1164.77</ele>
        <time>2021-08-15T08:29:28Z</time>
      </trkpt>
      <trkpt lat="45.45045" lon="2.91434">
        <ele>1165.26</ele>
        <time>2021-08-15T08:29:33Z</time>
      </trkpt>
      <trkpt lat="45.45042" lon="2.91436">
        <ele>1165.26</ele>
        <time>2021-08-15T08:29:35Z</time>
      </trkpt>
      <trkpt lat="45.45031" lon="2.91445">
        <ele>1165.26</ele>
        <time>2021-08-15T08:29:42Z</time>
      </trkpt>
      <trkpt lat="45.45018" lon="2.91453">
        <ele>1164.77</ele>
        <time>2021-08-15T08:29:48Z</time>
      </trkpt>
      <trkpt lat="45.45003" lon="2.91467">
        <ele>1163.81</ele>
        <time>2021-08-15T08:29:54Z</time>
      </trkpt>
      <trkpt lat="45.4498" lon="2.91495">
        <ele>1161.41</ele>
        <time>2021-08-15T08:30:02Z</time>
      </trkpt>
      <trkpt lat="45.44968" lon="2.91502">
        <ele>1160.45</ele>
        <time>2021-08-15T08:30:05Z</time>
      </trkpt>
      <trkpt lat="45.44958" lon="2.91506">
        <ele>1159.01</ele>
        <time>2021-08-15T08:30:07Z</time>
      </trkpt>
      <trkpt lat="45.44948" lon="2.9151">
        <ele>1158.05</ele>
        <time>2021-08-15T08:30:09Z</time>
      </trkpt>
      <trkpt lat="45.44944" lon="2.91513">
        <ele>1157.56</ele>
        <time>2021-08-15T08:30:10Z</time>
      </trkpt>
      <trkpt lat="45.4494" lon="2.91518">
        <ele>1157.56</ele>
        <time>2021-08-15T08:30:11Z</time>
      </trkpt>
      <trkpt lat="45.44933" lon="2.9153">
        <ele>1157.56</ele>
        <time>2021-08-15T08:30:13Z</time>
      </trkpt>
      <trkpt lat="45.44914" lon="2.91553">
        <ele>1156.12</ele>
        <time>2021-08-15T08:30:18Z</time>
      </trkpt>
      <trkpt lat="45.44904" lon="2.91562">
        <ele>1154.68</ele>
        <time>2021-08-15T08:30:20Z</time>
      </trkpt>
      <trkpt lat="45.44899" lon="2.91567">
        <ele>1154.2</ele>
        <time>2021-08-15T08:30:21Z</time>
      </trkpt>
      <trkpt lat="45.44879" lon="2.91592">
        <ele>1150.35</ele>
        <time>2021-08-15T08:30:25Z</time>
      </trkpt>
      <trkpt lat="45.44863" lon="2.91613">
        <ele>1146.99</ele>
        <time>2021-08-15T08:30:28Z</time>
      </trkpt>
      <trkpt lat="45.44858" lon="2.91619">
        <ele>1146.99</ele>
        <time>2021-08-15T08:30:29Z</time>
      </trkpt>
      <trkpt lat="45.44852" lon="2.91624">
        <ele>1146.51</ele>
        <time>2021-08-15T08:30:30Z</time>
      </trkpt>
      <trkpt lat="45.44846" lon="2.91627">
        <ele>1146.51</ele>
        <time>2021-08-15T08:30:31Z</time>
      </trkpt>
      <trkpt lat="45.44842" lon="2.91628">
        <ele>1146.51</ele>
        <time>2021-08-15T08:30:32Z</time>
      </trkpt>
      <trkpt lat="45.44837" lon="2.91628">
        <ele>1146.51</ele>
        <time>2021-08-15T08:30:33Z</time>
      </trkpt>
      <trkpt lat="45.44832" lon="2.91627">
        <ele>1146.03</ele>
        <time>2021-08-15T08:30:34Z</time>
      </trkpt>
      <trkpt lat="45.44828" lon="2.91624">
        <ele>1146.03</ele>
        <time>2021-08-15T08:30:35Z</time>
      </trkpt>
      <trkpt lat="45.44823" lon="2.91621">
        <ele>1146.03</ele>
        <time>2021-08-15T08:30:36Z</time>
      </trkpt>
      <trkpt lat="45.44818" lon="2.91616">
        <ele>1145.07</ele>
        <time>2021-08-15T08:30:37Z</time>
      </trkpt>
      <trkpt lat="45.44796" lon="2.91596">
        <ele>1141.22</ele>
        <time>2021-08-15T08:30:41Z</time>
      </trkpt>
      <trkpt lat="45.44775" lon="2.91579">
        <ele>1137.38</ele>
        <time>2021-08-15T08:30:44Z</time>
      </trkpt>
      <trkpt lat="45.44757" lon="2.9157">
        <ele>1136.42</ele>
        <time>2021-08-15T08:30:46Z</time>
      </trkpt>
      <trkpt lat="45.44749" lon="2.91567">
        <ele>1136.42</ele>
        <time>2021-08-15T08:30:47Z</time>
      </trkpt>
      <trkpt lat="45.44716" lon="2.91556">
        <ele>1136.42</ele>
        <time>2021-08-15T08:30:51Z</time>
      </trkpt>
      <trkpt lat="45.44709" lon="2.91551">
        <ele>1136.42</ele>
        <time>2021-08-15T08:30:52Z</time>
      </trkpt>
      <trkpt lat="45.44704" lon="2.91545">
        <ele>1136.42</ele>
        <time>2021-08-15T08:30:53Z</time>
      </trkpt>
      <trkpt lat="45.44698" lon="2.91538">
        <ele>1136.42</ele>
        <time>2021-08-15T08:30:54Z</time>
      </trkpt>
      <trkpt lat="45.44693" lon="2.91531">
        <ele>1136.42</ele>
        <time>2021-08-15T08:30:55Z</time>
      </trkpt>
      <trkpt lat="45.44689" lon="2.91525">
        <ele>1136.42</ele>
        <time>2021-08-15T08:30:56Z</time>
      </trkpt>
      <trkpt lat="45.44675" lon="2.91508">
        <ele>1136.42</ele>
        <time>2021-08-15T08:30:59Z</time>
      </trkpt>
      <trkpt lat="45.44671" lon="2.91502">
        <ele>1136.42</ele>
        <time>2021-08-15T08:31:00Z</time>
      </trkpt>
      <trkpt lat="45.44665" lon="2.91491">
        <ele>1134.97</ele>
        <time>2021-08-15T08:31:02Z</time>
      </trkpt>
      <trkpt lat="45.44658" lon="2.91482">
        <ele>1133.53</ele>
        <time>2021-08-15T08:31:04Z</time>
      </trkpt>
      <trkpt lat="45.4464" lon="2.9146">
        <ele>1129.69</ele>
        <time>2021-08-15T08:31:08Z</time>
      </trkpt>
      <trkpt lat="45.44627" lon="2.91442">
        <ele>1127.76</ele>
        <time>2021-08-15T08:31:11Z</time>
      </trkpt>
      <trkpt lat="45.44621" lon="2.91437">
        <ele>1126.8</ele>
        <time>2021-08-15T08:31:12Z</time>
      </trkpt>
      <trkpt lat="45.44614" lon="2.91434">
        <ele>1125.84</ele>
        <time>2021-08-15T08:31:13Z</time>
      </trkpt>
      <trkpt lat="45.44606" lon="2.91434">
        <ele>1124.88</ele>
        <time>2021-08-15T08:31:14Z</time>
      </trkpt>
      <trkpt lat="45.44598" lon="2.91435">
        <ele>1123.92</ele>
        <time>2021-08-15T08:31:15Z</time>
      </trkpt>
      <trkpt lat="45.4459" lon="2.91438">
        <ele>1122.96</ele>
        <time>2021-08-15T08:31:16Z</time>
      </trkpt>
      <trkpt lat="45.44583" lon="2.91442">
        <ele>1121.52</ele>
        <time>2021-08-15T08:31:17Z</time>
      </trkpt>
      <trkpt lat="45.44576" lon="2.91448">
        <ele>1121.03</ele>
        <time>2021-08-15T08:31:18Z</time>
      </trkpt>
      <trkpt lat="45.4457" lon="2.91455">
        <ele>1119.59</ele>
        <time>2021-08-15T08:31:19Z</time>
      </trkpt>
      <trkpt lat="45.44566" lon="2.91462">
        <ele>1119.59</ele>
        <time>2021-08-15T08:31:20Z</time>
      </trkpt>
      <trkpt lat="45.44561" lon="2.91468">
        <ele>1119.59</ele>
        <time>2021-08-15T08:31:21Z</time>
      </trkpt>
      <trkpt lat="45.44556" lon="2.91473">
        <ele>1119.59</ele>
        <time>2021-08-15T08:31:22Z</time>
      </trkpt>
      <trkpt lat="45.4455" lon="2.91475">
        <ele>1118.15</ele>
        <time>2021-08-15T08:31:23Z</time>
      </trkpt>
      <trkpt lat="45.44544" lon="2.91473">
        <ele>1117.67</ele>
        <time>2021-08-15T08:31:24Z</time>
      </trkpt>
      <trkpt lat="45.44538" lon="2.9147">
        <ele>1117.67</ele>
        <time>2021-08-15T08:31:25Z</time>
      </trkpt>
      <trkpt lat="45.44531" lon="2.91467">
        <ele>1116.71</ele>
        <time>2021-08-15T08:31:26Z</time>
      </trkpt>
      <trkpt lat="45.44524" lon="2.91465">
        <ele>1115.75</ele>
        <time>2021-08-15T08:31:27Z</time>
      </trkpt>
      <trkpt lat="45.44516" lon="2.91465">
        <ele>1114.79</ele>
        <time>2021-08-15T08:31:28Z</time>
      </trkpt>
      <trkpt lat="45.44507" lon="2.91465">
        <ele>1112.86</ele>
        <time>2021-08-15T08:31:29Z</time>
      </trkpt>
      <trkpt lat="45.44461" lon="2.91471">
        <ele>1110.94</ele>
        <time>2021-08-15T08:31:35Z</time>
      </trkpt>
      <trkpt lat="45.44454" lon="2.91472">
        <ele>1109.98</ele>
        <time>2021-08-15T08:31:36Z</time>
      </trkpt>
      <trkpt lat="45.44448" lon="2.91475">
        <ele>1109.5</ele>
        <time>2021-08-15T08:31:37Z</time>
      </trkpt>
      <trkpt lat="45.44441" lon="2.9148">
        <ele>1109.02</ele>
        <time>2021-08-15T08:31:38Z</time>
      </trkpt>
      <trkpt lat="45.44435" lon="2.91486">
        <ele>1108.54</ele>
        <time>2021-08-15T08:31:39Z</time>
      </trkpt>
      <trkpt lat="45.44432" lon="2.91494">
        <ele>1108.54</ele>
        <time>2021-08-15T08:31:40Z</time>
      </trkpt>
      <trkpt lat="45.44429" lon="2.91503">
        <ele>1108.54</ele>
        <time>2021-08-15T08:31:41Z</time>
      </trkpt>
      <trkpt lat="45.44428" lon="2.91512">
        <ele>1108.54</ele>
        <time>2021-08-15T08:31:42Z</time>
      </trkpt>
      <trkpt lat="45.44428" lon="2.91521">
        <ele>1108.54</ele>
        <time>2021-08-15T08:31:43Z</time>
      </trkpt>
      <trkpt lat="45.44428" lon="2.91528">
        <ele>1109.98</ele>
        <time>2021-08-15T08:31:44Z</time>
      </trkpt>
      <trkpt lat="45.44427" lon="2.91535">
        <ele>1109.98</ele>
        <time>2021-08-15T08:31:45Z</time>
      </trkpt>
      <trkpt lat="45.44425" lon="2.9154">
        <ele>1110.94</ele>
        <time>2021-08-15T08:31:46Z</time>
      </trkpt>
      <trkpt lat="45.44423" lon="2.91544">
        <ele>1110.94</ele>
        <time>2021-08-15T08:31:47Z</time>
      </trkpt>
      <trkpt lat="45.44421" lon="2.91547">
        <ele>1111.42</ele>
        <time>2021-08-15T08:31:48Z</time>
      </trkpt>
      <trkpt lat="45.44419" lon="2.9155">
        <ele>1111.42</ele>
        <time>2021-08-15T08:31:49Z</time>
      </trkpt>
      <trkpt lat="45.44398" lon="2.91573">
        <ele>1111.9</ele>
        <time>2021-08-15T08:31:58Z</time>
      </trkpt>
      <trkpt lat="45.44386" lon="2.91583">
        <ele>1113.34</ele>
        <time>2021-08-15T08:32:07Z</time>
      </trkpt>
      <trkpt lat="45.44373" lon="2.91591">
        <ele>1113.82</ele>
        <time>2021-08-15T08:32:16Z</time>
      </trkpt>
      <trkpt lat="45.44358" lon="2.91597">
        <ele>1114.31</ele>
        <time>2021-08-15T08:32:25Z</time>
      </trkpt>
      <trkpt lat="45.44357" lon="2.916">
        <ele>1114.31</ele>
        <time>2021-08-15T08:32:26Z</time>
      </trkpt>
      <trkpt lat="45.44357" lon="2.91602">
        <ele>1114.31</ele>
        <time>2021-08-15T08:32:27Z</time>
      </trkpt>
      <trkpt lat="45.44355" lon="2.91603">
        <ele>1114.31</ele>
        <time>2021-08-15T08:32:28Z</time>
      </trkpt>
      <trkpt lat="45.44354" lon="2.91603">
        <ele>1114.31</ele>
        <time>2021-08-15T08:32:34Z</time>
      </trkpt>
      <trkpt lat="45.44353" lon="2.91602">
        <ele>1114.31</ele>
        <time>2021-08-15T08:32:50Z</time>
      </trkpt>
      <trkpt lat="45.44352" lon="2.91602">
        <ele>1114.31</ele>
        <time>2021-08-15T08:32:56Z</time>
      </trkpt>
      <trkpt lat="45.44354" lon="2.91603">
        <ele>1114.31</ele>
        <time>2021-08-15T08:33:03Z</time>
      </trkpt>
      <trkpt lat="45.44356" lon="2.91604">
        <ele>1114.31</ele>
        <time>2021-08-15T08:33:18Z</time>
      </trkpt>
      <trkpt lat="45.44356" lon="2.91604">
        <ele>1114.31</ele>
        <time>2021-08-15T08:33:33Z</time>
      </trkpt>
      <trkpt lat="45.44355" lon="2.91604">
        <ele>1114.31</ele>
        <time>2021-08-15T08:33:52Z</time>
      </trkpt>
      <trkpt lat="45.44356" lon="2.91604">
        <ele>1114.31</ele>
        <time>2021-08-15T08:34:11Z</time>
      </trkpt>
      <trkpt lat="45.44355" lon="2.91604">
        <ele>1114.31</ele>
        <time>2021-08-15T08:34:33Z</time>
      </trkpt>
      <trkpt lat="45.44354" lon="2.91601">
        <ele>1114.31</ele>
        <time>2021-08-15T08:34:50Z</time>
      </trkpt>
      <trkpt lat="45.44353" lon="2.916">
        <ele>1114.31</ele>
        <time>2021-08-15T08:35:04Z</time>
      </trkpt>
      <trkpt lat="45.44352" lon="2.91601">
        <ele>1114.31</ele>
        <time>2021-08-15T08:35:15Z</time>
      </trkpt>
      <trkpt lat="45.44353" lon="2.91602">
        <ele>1114.31</ele>
        <time>2021-08-15T08:35:28Z</time>
      </trkpt>
      <trkpt lat="45.44354" lon="2.91604">
        <ele>1112.38</ele>
        <time>2021-08-15T08:35:58Z</time>
      </trkpt>
      <trkpt lat="45.44355" lon="2.91605">
        <ele>1113.82</ele>
        <time>2021-08-15T08:36:20Z</time>
      </trkpt>
      <trkpt lat="45.44353" lon="2.91605">
        <ele>1113.82</ele>
        <time>2021-08-15T08:36:35Z</time>
      </trkpt>
      <trkpt lat="45.44352" lon="2.91605">
        <ele>1113.82</ele>
        <time>2021-08-15T08:36:52Z</time>
      </trkpt>
      <trkpt lat="45.4435" lon="2.91605">
        <ele>1113.82</ele>
        <time>2021-08-15T08:37:01Z</time>
      </trkpt>
      <trkpt lat="45.44352" lon="2.91606">
        <ele>1113.82</ele>
        <time>2021-08-15T08:37:09Z</time>
      </trkpt>
      <trkpt lat="45.44353" lon="2.91607">
        <ele>1113.82</ele>
        <time>2021-08-15T08:37:19Z</time>
      </trkpt>
      <trkpt lat="45.44355" lon="2.91605">
        <ele>1113.82</ele>
        <time>2021-08-15T08:37:26Z</time>
      </trkpt>
      <trkpt lat="45.44355" lon="2.91604">
        <ele>1113.82</ele>
        <time>2021-08-15T08:37:37Z</time>
      </trkpt>
      <trkpt lat="45.44356" lon="2.91603">
        <ele>1112.38</ele>
        <time>2021-08-15T08:37:41Z</time>
      </trkpt>
      <trkpt lat="45.44356" lon="2.91604">
        <ele>1112.38</ele>
        <time>2021-08-15T08:37:57Z</time>
      </trkpt>
      <trkpt lat="45.44354" lon="2.91604">
        <ele>1112.38</ele>
        <time>2021-08-15T08:38:21Z</time>
      </trkpt>
      <trkpt lat="45.44353" lon="2.91605">
        <ele>1112.38</ele>
        <time>2021-08-15T08:38:44Z</time>
      </trkpt>
      <trkpt lat="45.44355" lon="2.91604">
        <ele>1111.9</ele>
        <time>2021-08-15T08:39:05Z</time>
      </trkpt>
      <trkpt lat="45.44359" lon="2.91607">
        <ele>1111.9</ele>
        <time>2021-08-15T08:39:26Z</time>
      </trkpt>
      <trkpt lat="45.44359" lon="2.91605">
        <ele>1111.9</ele>
        <time>2021-08-15T08:39:46Z</time>
      </trkpt>
      <trkpt lat="45.44357" lon="2.91601">
        <ele>1111.9</ele>
        <time>2021-08-15T08:40:07Z</time>
      </trkpt>
      <trkpt lat="45.44359" lon="2.91604">
        <ele>1111.9</ele>
        <time>2021-08-15T08:40:27Z</time>
      </trkpt>
      <trkpt lat="45.4436" lon="2.91609">
        <ele>1111.9</ele>
        <time>2021-08-15T08:40:55Z</time>
      </trkpt>
      <trkpt lat="45.44361" lon="2.91613">
        <ele>1112.38</ele>
        <time>2021-08-15T08:41:13Z</time>
      </trkpt>
      <trkpt lat="45.44361" lon="2.91613">
        <ele>1111.9</ele>
        <time>2021-08-15T08:41:33Z</time>
      </trkpt>
      <trkpt lat="45.44359" lon="2.91612">
        <ele>1111.9</ele>
        <time>2021-08-15T08:41:51Z</time>
      </trkpt>
      <trkpt lat="45.44358" lon="2.91609">
        <ele>1111.9</ele>
        <time>2021-08-15T08:42:09Z</time>
      </trkpt>
      <trkpt lat="45.44359" lon="2.91607">
        <ele>1111.9</ele>
        <time>2021-08-15T08:42:28Z</time>
      </trkpt>
      <trkpt lat="45.4436" lon="2.91606">
        <ele>1112.38</ele>
        <time>2021-08-15T08:42:45Z</time>
      </trkpt>
      <trkpt lat="45.44359" lon="2.91606">
        <ele>1112.38</ele>
        <time>2021-08-15T08:42:55Z</time>
      </trkpt>
      <trkpt lat="45.44358" lon="2.91605">
        <ele>1112.38</ele>
        <time>2021-08-15T08:43:04Z</time>
      </trkpt>
      <trkpt lat="45.4436" lon="2.91604">
        <ele>1112.38</ele>
        <time>2021-08-15T08:43:20Z</time>
      </trkpt>
      <trkpt lat="45.44359" lon="2.91603">
        <ele>1112.38</ele>
        <time>2021-08-15T08:43:41Z</time>
      </trkpt>
      <trkpt lat="45.44361" lon="2.91601">
        <ele>1112.38</ele>
        <time>2021-08-15T08:43:59Z</time>
      </trkpt>
      <trkpt lat="45.44362" lon="2.91603">
        <ele>1112.38</ele>
        <time>2021-08-15T08:44:22Z</time>
      </trkpt>
      <trkpt lat="45.4436" lon="2.91604">
        <ele>1112.86</ele>
        <time>2021-08-15T08:44:42Z</time>
      </trkpt>
      <trkpt lat="45.44358" lon="2.91604">
        <ele>1112.86</ele>
        <time>2021-08-15T08:44:55Z</time>
      </trkpt>
      <trkpt lat="45.44356" lon="2.91605">
        <ele>1112.86</ele>
        <time>2021-08-15T08:45:09Z</time>
      </trkpt>
      <trkpt lat="45.44355" lon="2.91607">
        <ele>1112.86</ele>
        <time>2021-08-15T08:45:28Z</time>
      </trkpt>
      <trkpt lat="45.44354" lon="2.91607">
        <ele>1112.86</ele>
        <time>2021-08-15T08:45:43Z</time>
      </trkpt>
      <trkpt lat="45.44354" lon="2.91607">
        <ele>1112.86</ele>
        <time>2021-08-15T08:45:59Z</time>
      </trkpt>
      <trkpt lat="45.44354" lon="2.91607">
        <ele>1112.86</ele>
        <time>2021-08-15T08:46:20Z</time>
      </trkpt>
      <trkpt lat="45.44354" lon="2.91606">
        <ele>1113.34</ele>
        <time>2021-08-15T08:46:37Z</time>
      </trkpt>
      <trkpt lat="45.44354" lon="2.91604">
        <ele>1113.34</ele>
        <time>2021-08-15T08:46:44Z</time>
      </trkpt>
      <trkpt lat="45.44353" lon="2.91603">
        <ele>1114.31</ele>
        <time>2021-08-15T08:47:02Z</time>
      </trkpt>
      <trkpt lat="45.44354" lon="2.91604">
        <ele>1114.79</ele>
        <time>2021-08-15T08:47:19Z</time>
      </trkpt>
      <trkpt lat="45.44352" lon="2.91601">
        <ele>1114.79</ele>
        <time>2021-08-15T08:47:31Z</time>
      </trkpt>
      <trkpt lat="45.4435" lon="2.91603">
        <ele>1114.79</ele>
        <time>2021-08-15T08:47:38Z</time>
      </trkpt>
      <trkpt lat="45.44349" lon="2.91606">
        <ele>1114.79</ele>
        <time>2021-08-15T08:47:46Z</time>
      </trkpt>
      <trkpt lat="45.44351" lon="2.91608">
        <ele>1114.79</ele>
        <time>2021-08-15T08:47:54Z</time>
      </trkpt>
      <trkpt lat="45.44352" lon="2.91612">
        <ele>1114.79</ele>
        <time>2021-08-15T08:47:55Z</time>
      </trkpt>
      <trkpt lat="45.44351" lon="2.91614">
        <ele>1114.79</ele>
        <time>2021-08-15T08:47:57Z</time>
      </trkpt>
      <trkpt lat="45.44349" lon="2.91615">
        <ele>1114.79</ele>
        <time>2021-08-15T08:47:58Z</time>
      </trkpt>
      <trkpt lat="45.44348" lon="2.91617">
        <ele>1113.34</ele>
        <time>2021-08-15T08:47:59Z</time>
      </trkpt>
      <trkpt lat="45.44346" lon="2.91618">
        <ele>1113.82</ele>
        <time>2021-08-15T08:48:00Z</time>
      </trkpt>
      <trkpt lat="45.44344" lon="2.9162">
        <ele>1113.34</ele>
        <time>2021-08-15T08:48:01Z</time>
      </trkpt>
      <trkpt lat="45.44342" lon="2.91622">
        <ele>1113.82</ele>
        <time>2021-08-15T08:48:02Z</time>
      </trkpt>
      <trkpt lat="45.44341" lon="2.91624">
        <ele>1113.34</ele>
        <time>2021-08-15T08:48:03Z</time>
      </trkpt>
      <trkpt lat="45.44339" lon="2.91625">
        <ele>1113.34</ele>
        <time>2021-08-15T08:48:04Z</time>
      </trkpt>
      <trkpt lat="45.44336" lon="2.91627">
        <ele>1113.34</ele>
        <time>2021-08-15T08:48:05Z</time>
      </trkpt>
      <trkpt lat="45.44336" lon="2.91628">
        <ele>1113.34</ele>
        <time>2021-08-15T08:48:08Z</time>
      </trkpt>
      <trkpt lat="45.44337" lon="2.91627">
        <ele>1113.34</ele>
        <time>2021-08-15T08:48:09Z</time>
      </trkpt>
      <trkpt lat="45.44337" lon="2.91625">
        <ele>1113.34</ele>
        <time>2021-08-15T08:48:10Z</time>
      </trkpt>
      <trkpt lat="45.4434" lon="2.91617">
        <ele>1113.34</ele>
        <time>2021-08-15T08:48:15Z</time>
      </trkpt>
      <trkpt lat="45.44341" lon="2.91616">
        <ele>1113.34</ele>
        <time>2021-08-15T08:48:16Z</time>
      </trkpt>
      <trkpt lat="45.44342" lon="2.91614">
        <ele>1113.34</ele>
        <time>2021-08-15T08:48:17Z</time>
      </trkpt>
      <trkpt lat="45.44343" lon="2.91613">
        <ele>1113.34</ele>
        <time>2021-08-15T08:48:18Z</time>
      </trkpt>
      <trkpt lat="45.44345" lon="2.9161">
        <ele>1113.34</ele>
        <time>2021-08-15T08:48:24Z</time>
      </trkpt>
      <trkpt lat="45.44344" lon="2.91612">
        <ele>1112.86</ele>
        <time>2021-08-15T08:48:25Z</time>
      </trkpt>
      <trkpt lat="45.44343" lon="2.91613">
        <ele>1113.34</ele>
        <time>2021-08-15T08:48:26Z</time>
      </trkpt>
      <trkpt lat="45.44342" lon="2.91615">
        <ele>1112.86</ele>
        <time>2021-08-15T08:48:27Z</time>
      </trkpt>
      <trkpt lat="45.4434" lon="2.91617">
        <ele>1112.86</ele>
        <time>2021-08-15T08:48:28Z</time>
      </trkpt>
      <trkpt lat="45.44338" lon="2.9162">
        <ele>1112.86</ele>
        <time>2021-08-15T08:48:29Z</time>
      </trkpt>
      <trkpt lat="45.44336" lon="2.91622">
        <ele>1112.86</ele>
        <time>2021-08-15T08:48:30Z</time>
      </trkpt>
      <trkpt lat="45.44335" lon="2.91625">
        <ele>1112.86</ele>
        <time>2021-08-15T08:48:31Z</time>
      </trkpt>
      <trkpt lat="45.4432" lon="2.91638">
        <ele>1112.38</ele>
        <time>2021-08-15T08:48:36Z</time>
      </trkpt>
      <trkpt lat="45.44315" lon="2.91639">
        <ele>1111.42</ele>
        <time>2021-08-15T08:48:37Z</time>
      </trkpt>
      <trkpt lat="45.4431" lon="2.91639">
        <ele>1111.42</ele>
        <time>2021-08-15T08:48:38Z</time>
      </trkpt>
      <trkpt lat="45.44265" lon="2.91644">
        <ele>1109.02</ele>
        <time>2021-08-15T08:48:45Z</time>
      </trkpt>
      <trkpt lat="45.44258" lon="2.91648">
        <ele>1109.02</ele>
        <time>2021-08-15T08:48:46Z</time>
      </trkpt>
      <trkpt lat="45.44251" lon="2.91652">
        <ele>1108.54</ele>
        <time>2021-08-15T08:48:47Z</time>
      </trkpt>
      <trkpt lat="45.44244" lon="2.91657">
        <ele>1107.58</ele>
        <time>2021-08-15T08:48:48Z</time>
      </trkpt>
      <trkpt lat="45.44238" lon="2.91663">
        <ele>1107.58</ele>
        <time>2021-08-15T08:48:49Z</time>
      </trkpt>
      <trkpt lat="45.4422" lon="2.91679">
        <ele>1104.69</ele>
        <time>2021-08-15T08:48:52Z</time>
      </trkpt>
      <trkpt lat="45.44212" lon="2.91683">
        <ele>1104.69</ele>
        <time>2021-08-15T08:48:53Z</time>
      </trkpt>
      <trkpt lat="45.44205" lon="2.91685">
        <ele>1104.21</ele>
        <time>2021-08-15T08:48:54Z</time>
      </trkpt>
      <trkpt lat="45.44196" lon="2.91686">
        <ele>1103.25</ele>
        <time>2021-08-15T08:48:55Z</time>
      </trkpt>
      <trkpt lat="45.44189" lon="2.91687">
        <ele>1102.29</ele>
        <time>2021-08-15T08:48:56Z</time>
      </trkpt>
      <trkpt lat="45.44163" lon="2.91693">
        <ele>1098.92</ele>
        <time>2021-08-15T08:48:59Z</time>
      </trkpt>
      <trkpt lat="45.44145" lon="2.91696">
        <ele>1096.52</ele>
        <time>2021-08-15T08:49:01Z</time>
      </trkpt>
      <trkpt lat="45.44118" lon="2.91694">
        <ele>1092.68</ele>
        <time>2021-08-15T08:49:04Z</time>
      </trkpt>
      <trkpt lat="45.44089" lon="2.91686">
        <ele>1089.31</ele>
        <time>2021-08-15T08:49:07Z</time>
      </trkpt>
      <trkpt lat="45.44071" lon="2.91679">
        <ele>1085.95</ele>
        <time>2021-08-15T08:49:09Z</time>
      </trkpt>
      <trkpt lat="45.44047" lon="2.91669">
        <ele>1083.06</ele>
        <time>2021-08-15T08:49:12Z</time>
      </trkpt>
      <trkpt lat="45.44018" lon="2.91655">
        <ele>1078.26</ele>
        <time>2021-08-15T08:49:15Z</time>
      </trkpt>
      <trkpt lat="45.43996" lon="2.91641">
        <ele>1074.89</ele>
        <time>2021-08-15T08:49:17Z</time>
      </trkpt>
      <trkpt lat="45.43973" lon="2.91627">
        <ele>1071.05</ele>
        <time>2021-08-15T08:49:19Z</time>
      </trkpt>
      <trkpt lat="45.43951" lon="2.91612">
        <ele>1067.2</ele>
        <time>2021-08-15T08:49:21Z</time>
      </trkpt>
      <trkpt lat="45.43927" lon="2.91598">
        <ele>1063.84</ele>
        <time>2021-08-15T08:49:23Z</time>
      </trkpt>
      <trkpt lat="45.43904" lon="2.91583">
        <ele>1060.47</ele>
        <time>2021-08-15T08:49:25Z</time>
      </trkpt>
      <trkpt lat="45.43882" lon="2.91569">
        <ele>1059.03</ele>
        <time>2021-08-15T08:49:27Z</time>
      </trkpt>
      <trkpt lat="45.43851" lon="2.91554">
        <ele>1056.63</ele>
        <time>2021-08-15T08:49:30Z</time>
      </trkpt>
      <trkpt lat="45.43819" lon="2.91543">
        <ele>1057.11</ele>
        <time>2021-08-15T08:49:34Z</time>
      </trkpt>
      <trkpt lat="45.43813" lon="2.91542">
        <ele>1057.11</ele>
        <time>2021-08-15T08:49:35Z</time>
      </trkpt>
      <trkpt lat="45.43807" lon="2.91545">
        <ele>1054.22</ele>
        <time>2021-08-15T08:49:36Z</time>
      </trkpt>
      <trkpt lat="45.43803" lon="2.91551">
        <ele>1053.74</ele>
        <time>2021-08-15T08:49:37Z</time>
      </trkpt>
      <trkpt lat="45.43802" lon="2.91559">
        <ele>1053.26</ele>
        <time>2021-08-15T08:49:38Z</time>
      </trkpt>
      <trkpt lat="45.43804" lon="2.91566">
        <ele>1053.26</ele>
        <time>2021-08-15T08:49:39Z</time>
      </trkpt>
      <trkpt lat="45.43809" lon="2.91572">
        <ele>1053.26</ele>
        <time>2021-08-15T08:49:40Z</time>
      </trkpt>
      <trkpt lat="45.43817" lon="2.91575">
        <ele>1052.3</ele>
        <time>2021-08-15T08:49:41Z</time>
      </trkpt>
      <trkpt lat="45.43824" lon="2.91579">
        <ele>1051.34</ele>
        <time>2021-08-15T08:49:42Z</time>
      </trkpt>
      <trkpt lat="45.4383" lon="2.91583">
        <ele>1050.86</ele>
        <time>2021-08-15T08:49:43Z</time>
      </trkpt>
      <trkpt lat="45.43835" lon="2.91589">
        <ele>1048.94</ele>
        <time>2021-08-15T08:49:44Z</time>
      </trkpt>
      <trkpt lat="45.43839" lon="2.91596">
        <ele>1047.97</ele>
        <time>2021-08-15T08:49:45Z</time>
      </trkpt>
      <trkpt lat="45.43841" lon="2.91601">
        <ele>1047.49</ele>
        <time>2021-08-15T08:49:46Z</time>
      </trkpt>
      <trkpt lat="45.43841" lon="2.91605">
        <ele>1046.05</ele>
        <time>2021-08-15T08:49:47Z</time>
      </trkpt>
      <trkpt lat="45.43839" lon="2.91607">
        <ele>1044.61</ele>
        <time>2021-08-15T08:49:48Z</time>
      </trkpt>
      <trkpt lat="45.43835" lon="2.91606">
        <ele>1045.57</ele>
        <time>2021-08-15T08:49:49Z</time>
      </trkpt>
      <trkpt lat="45.43833" lon="2.91605">
        <ele>1047.01</ele>
        <time>2021-08-15T08:49:50Z</time>
      </trkpt>
      <trkpt lat="45.43831" lon="2.91604">
        <ele>1047.01</ele>
        <time>2021-08-15T08:49:51Z</time>
      </trkpt>
      <trkpt lat="45.43818" lon="2.91601">
        <ele>1047.01</ele>
        <time>2021-08-15T08:49:57Z</time>
      </trkpt>
      <trkpt lat="45.43802" lon="2.91602">
        <ele>1047.97</ele>
        <time>2021-08-15T08:50:04Z</time>
      </trkpt>
      <trkpt lat="45.43788" lon="2.9161">
        <ele>1049.42</ele>
        <time>2021-08-15T08:50:12Z</time>
      </trkpt>
      <trkpt lat="45.43767" lon="2.91621">
        <ele>1049.9</ele>
        <time>2021-08-15T08:50:22Z</time>
      </trkpt>
      <trkpt lat="45.43746" lon="2.91624">
        <ele>1051.34</ele>
        <time>2021-08-15T08:50:32Z</time>
      </trkpt>
      <trkpt lat="45.4373" lon="2.91622">
        <ele>1052.3</ele>
        <time>2021-08-15T08:50:40Z</time>
      </trkpt>
      <trkpt lat="45.43716" lon="2.91613">
        <ele>1053.74</ele>
        <time>2021-08-15T08:50:48Z</time>
      </trkpt>
      <trkpt lat="45.43702" lon="2.916">
        <ele>1054.22</ele>
        <time>2021-08-15T08:50:56Z</time>
      </trkpt>
      <trkpt lat="45.43688" lon="2.91583">
        <ele>1055.18</ele>
        <time>2021-08-15T08:51:05Z</time>
      </trkpt>
      <trkpt lat="45.43674" lon="2.91568">
        <ele>1056.15</ele>
        <time>2021-08-15T08:51:13Z</time>
      </trkpt>
      <trkpt lat="45.4366" lon="2.91552">
        <ele>1056.63</ele>
        <time>2021-08-15T08:51:21Z</time>
      </trkpt>
      <trkpt lat="45.43643" lon="2.91533">
        <ele>1058.07</ele>
        <time>2021-08-15T08:51:31Z</time>
      </trkpt>
      <trkpt lat="45.43625" lon="2.91513">
        <ele>1059.99</ele>
        <time>2021-08-15T08:51:41Z</time>
      </trkpt>
      <trkpt lat="45.43607" lon="2.91493">
        <ele>1061.91</ele>
        <time>2021-08-15T08:51:51Z</time>
      </trkpt>
      <trkpt lat="45.4359" lon="2.91474">
        <ele>1062.39</ele>
        <time>2021-08-15T08:52:01Z</time>
      </trkpt>
      <trkpt lat="45.43575" lon="2.91456">
        <ele>1063.36</ele>
        <time>2021-08-15T08:52:10Z</time>
      </trkpt>
      <trkpt lat="45.43556" lon="2.91435">
        <ele>1064.32</ele>
        <time>2021-08-15T08:52:21Z</time>
      </trkpt>
      <trkpt lat="45.43536" lon="2.91414">
        <ele>1065.76</ele>
        <time>2021-08-15T08:52:32Z</time>
      </trkpt>
      <trkpt lat="45.4352" lon="2.91399">
        <ele>1066.24</ele>
        <time>2021-08-15T08:52:40Z</time>
      </trkpt>
      <trkpt lat="45.43498" lon="2.91388">
        <ele>1066.72</ele>
        <time>2021-08-15T08:52:49Z</time>
      </trkpt>
      <trkpt lat="45.43481" lon="2.91389">
        <ele>1068.16</ele>
        <time>2021-08-15T08:52:56Z</time>
      </trkpt>
      <trkpt lat="45.43456" lon="2.91391">
        <ele>1069.12</ele>
        <time>2021-08-15T08:53:07Z</time>
      </trkpt>
      <trkpt lat="45.43434" lon="2.91391">
        <ele>1071.05</ele>
        <time>2021-08-15T08:53:17Z</time>
      </trkpt>
      <trkpt lat="45.43416" lon="2.91389">
        <ele>1071.53</ele>
        <time>2021-08-15T08:53:25Z</time>
      </trkpt>
      <trkpt lat="45.43399" lon="2.91387">
        <ele>1072.49</ele>
        <time>2021-08-15T08:53:33Z</time>
      </trkpt>
      <trkpt lat="45.43382" lon="2.91384">
        <ele>1073.45</ele>
        <time>2021-08-15T08:53:41Z</time>
      </trkpt>
      <trkpt lat="45.43359" lon="2.91377">
        <ele>1074.41</ele>
        <time>2021-08-15T08:53:50Z</time>
      </trkpt>
      <trkpt lat="45.4334" lon="2.91363">
        <ele>1075.37</ele>
        <time>2021-08-15T08:53:59Z</time>
      </trkpt>
      <trkpt lat="45.43322" lon="2.91345">
        <ele>1076.33</ele>
        <time>2021-08-15T08:54:08Z</time>
      </trkpt>
      <trkpt lat="45.43308" lon="2.91333">
        <ele>1077.29</ele>
        <time>2021-08-15T08:54:16Z</time>
      </trkpt>
      <trkpt lat="45.4329" lon="2.91317">
        <ele>1079.22</ele>
        <time>2021-08-15T08:54:27Z</time>
      </trkpt>
      <trkpt lat="45.43271" lon="2.91299">
        <ele>1079.22</ele>
        <time>2021-08-15T08:54:37Z</time>
      </trkpt>
      <trkpt lat="45.43253" lon="2.91298">
        <ele>1080.66</ele>
        <time>2021-08-15T08:54:44Z</time>
      </trkpt>
      <trkpt lat="45.43241" lon="2.91301">
        <ele>1079.22</ele>
        <time>2021-08-15T08:54:47Z</time>
      </trkpt>
      <trkpt lat="45.43204" lon="2.91313">
        <ele>1077.78</ele>
        <time>2021-08-15T08:54:54Z</time>
      </trkpt>
      <trkpt lat="45.43175" lon="2.91322">
        <ele>1077.78</ele>
        <time>2021-08-15T08:55:01Z</time>
      </trkpt>
      <trkpt lat="45.43147" lon="2.91331">
        <ele>1078.74</ele>
        <time>2021-08-15T08:55:10Z</time>
      </trkpt>
      <trkpt lat="45.43119" lon="2.91338">
        <ele>1080.18</ele>
        <time>2021-08-15T08:55:20Z</time>
      </trkpt>
      <trkpt lat="45.43098" lon="2.91343">
        <ele>1081.62</ele>
        <time>2021-08-15T08:55:30Z</time>
      </trkpt>
      <trkpt lat="45.43071" lon="2.9135">
        <ele>1084.02</ele>
        <time>2021-08-15T08:55:43Z</time>
      </trkpt>
      <trkpt lat="45.43055" lon="2.91355">
        <ele>1085.47</ele>
        <time>2021-08-15T08:55:52Z</time>
      </trkpt>
      <trkpt lat="45.43041" lon="2.91359">
        <ele>1085.95</ele>
        <time>2021-08-15T08:56:01Z</time>
      </trkpt>
      <trkpt lat="45.4303" lon="2.91362">
        <ele>1087.39</ele>
        <time>2021-08-15T08:56:09Z</time>
      </trkpt>
      <trkpt lat="45.43015" lon="2.91373">
        <ele>1089.79</ele>
        <time>2021-08-15T08:56:20Z</time>
      </trkpt>
      <trkpt lat="45.43007" lon="2.9139">
        <ele>1091.71</ele>
        <time>2021-08-15T08:56:30Z</time>
      </trkpt>
      <trkpt lat="45.43001" lon="2.91407">
        <ele>1093.16</ele>
        <time>2021-08-15T08:56:39Z</time>
      </trkpt>
      <trkpt lat="45.42989" lon="2.91413">
        <ele>1094.6</ele>
        <time>2021-08-15T08:56:48Z</time>
      </trkpt>
      <trkpt lat="45.42983" lon="2.91414">
        <ele>1096.52</ele>
        <time>2021-08-15T08:56:52Z</time>
      </trkpt>
      <trkpt lat="45.42968" lon="2.91409">
        <ele>1097</ele>
        <time>2021-08-15T08:57:04Z</time>
      </trkpt>
      <trkpt lat="45.42958" lon="2.914">
        <ele>1097.96</ele>
        <time>2021-08-15T08:57:13Z</time>
      </trkpt>
      <trkpt lat="45.42948" lon="2.91388">
        <ele>1099.89</ele>
        <time>2021-08-15T08:57:22Z</time>
      </trkpt>
      <trkpt lat="45.42947" lon="2.91387">
        <ele>1099.89</ele>
        <time>2021-08-15T08:57:23Z</time>
      </trkpt>
      <trkpt lat="45.42946" lon="2.91386">
        <ele>1100.37</ele>
        <time>2021-08-15T08:57:24Z</time>
      </trkpt>
      <trkpt lat="45.42946" lon="2.91384">
        <ele>1100.37</ele>
        <time>2021-08-15T08:57:25Z</time>
      </trkpt>
      <trkpt lat="45.42945" lon="2.91383">
        <ele>1100.37</ele>
        <time>2021-08-15T08:57:26Z</time>
      </trkpt>
      <trkpt lat="45.42944" lon="2.91381">
        <ele>1100.37</ele>
        <time>2021-08-15T08:57:27Z</time>
      </trkpt>
      <trkpt lat="45.42944" lon="2.91379">
        <ele>1100.85</ele>
        <time>2021-08-15T08:57:28Z</time>
      </trkpt>
      <trkpt lat="45.42943" lon="2.91377">
        <ele>1100.85</ele>
        <time>2021-08-15T08:57:29Z</time>
      </trkpt>
      <trkpt lat="45.42942" lon="2.91376">
        <ele>1100.85</ele>
        <time>2021-08-15T08:57:30Z</time>
      </trkpt>
      <trkpt lat="45.42935" lon="2.91359">
        <ele>1103.25</ele>
        <time>2021-08-15T08:57:40Z</time>
      </trkpt>
      <trkpt lat="45.4293" lon="2.91352">
        <ele>1103.73</ele>
        <time>2021-08-15T08:57:45Z</time>
      </trkpt>
      <trkpt lat="45.4293" lon="2.91349">
        <ele>1103.73</ele>
        <time>2021-08-15T08:57:46Z</time>
      </trkpt>
      <trkpt lat="45.42929" lon="2.91347">
        <ele>1104.21</ele>
        <time>2021-08-15T08:57:47Z</time>
      </trkpt>
      <trkpt lat="45.42926" lon="2.91338">
        <ele>1104.69</ele>
        <time>2021-08-15T08:57:53Z</time>
      </trkpt>
      <trkpt lat="45.42925" lon="2.91338">
        <ele>1105.17</ele>
        <time>2021-08-15T08:57:54Z</time>
      </trkpt>
      <trkpt lat="45.42924" lon="2.91337">
        <ele>1105.65</ele>
        <time>2021-08-15T08:57:55Z</time>
      </trkpt>
      <trkpt lat="45.42922" lon="2.91337">
        <ele>1105.65</ele>
        <time>2021-08-15T08:57:56Z</time>
      </trkpt>
      <trkpt lat="45.42921" lon="2.91337">
        <ele>1107.1</ele>
        <time>2021-08-15T08:57:57Z</time>
      </trkpt>
      <trkpt lat="45.42919" lon="2.91337">
        <ele>1107.1</ele>
        <time>2021-08-15T08:57:58Z</time>
      </trkpt>
      <trkpt lat="45.42908" lon="2.9133">
        <ele>1108.06</ele>
        <time>2021-08-15T08:58:07Z</time>
      </trkpt>
      <trkpt lat="45.42896" lon="2.91328">
        <ele>1109.98</ele>
        <time>2021-08-15T08:58:16Z</time>
      </trkpt>
      <trkpt lat="45.42883" lon="2.91328">
        <ele>1110.94</ele>
        <time>2021-08-15T08:58:25Z</time>
      </trkpt>
      <trkpt lat="45.42865" lon="2.91325">
        <ele>1112.86</ele>
        <time>2021-08-15T08:58:37Z</time>
      </trkpt>
      <trkpt lat="45.42847" lon="2.91323">
        <ele>1115.27</ele>
        <time>2021-08-15T08:58:48Z</time>
      </trkpt>
      <trkpt lat="45.42833" lon="2.91325">
        <ele>1116.71</ele>
        <time>2021-08-15T08:58:58Z</time>
      </trkpt>
      <trkpt lat="45.42823" lon="2.91327">
        <ele>1117.67</ele>
        <time>2021-08-15T08:59:05Z</time>
      </trkpt>
      <trkpt lat="45.42811" lon="2.91335">
        <ele>1119.11</ele>
        <time>2021-08-15T08:59:15Z</time>
      </trkpt>
      <trkpt lat="45.428" lon="2.91341">
        <ele>1121.03</ele>
        <time>2021-08-15T08:59:24Z</time>
      </trkpt>
      <trkpt lat="45.42791" lon="2.91347">
        <ele>1122.48</ele>
        <time>2021-08-15T08:59:32Z</time>
      </trkpt>
      <trkpt lat="45.4278" lon="2.91352">
        <ele>1123.92</ele>
        <time>2021-08-15T08:59:41Z</time>
      </trkpt>
      <trkpt lat="45.42768" lon="2.91354">
        <ele>1126.32</ele>
        <time>2021-08-15T08:59:50Z</time>
      </trkpt>
      <trkpt lat="45.42754" lon="2.91355">
        <ele>1127.28</ele>
        <time>2021-08-15T08:59:59Z</time>
      </trkpt>
      <trkpt lat="45.42751" lon="2.91357">
        <ele>1127.28</ele>
        <time>2021-08-15T09:00:01Z</time>
      </trkpt>
      <trkpt lat="45.4275" lon="2.91359">
        <ele>1127.28</ele>
        <time>2021-08-15T09:00:02Z</time>
      </trkpt>
      <trkpt lat="45.42748" lon="2.91361">
        <ele>1127.28</ele>
        <time>2021-08-15T09:00:03Z</time>
      </trkpt>
      <trkpt lat="45.42747" lon="2.91363">
        <ele>1127.28</ele>
        <time>2021-08-15T09:00:04Z</time>
      </trkpt>
      <trkpt lat="45.42746" lon="2.91365">
        <ele>1127.28</ele>
        <time>2021-08-15T09:00:05Z</time>
      </trkpt>
      <trkpt lat="45.42745" lon="2.91367">
        <ele>1127.28</ele>
        <time>2021-08-15T09:00:06Z</time>
      </trkpt>
      <trkpt lat="45.42735" lon="2.91387">
        <ele>1127.28</ele>
        <time>2021-08-15T09:00:14Z</time>
      </trkpt>
      <trkpt lat="45.42728" lon="2.91412">
        <ele>1128.73</ele>
        <time>2021-08-15T09:00:23Z</time>
      </trkpt>
      <trkpt lat="45.42724" lon="2.91442">
        <ele>1130.17</ele>
        <time>2021-08-15T09:00:34Z</time>
      </trkpt>
      <trkpt lat="45.42724" lon="2.9146">
        <ele>1131.61</ele>
        <time>2021-08-15T09:00:42Z</time>
      </trkpt>
      <trkpt lat="45.42724" lon="2.91483">
        <ele>1133.05</ele>
        <time>2021-08-15T09:00:52Z</time>
      </trkpt>
      <trkpt lat="45.42722" lon="2.9151">
        <ele>1135.45</ele>
        <time>2021-08-15T09:01:05Z</time>
      </trkpt>
      <trkpt lat="45.42719" lon="2.91527">
        <ele>1137.38</ele>
        <time>2021-08-15T09:01:15Z</time>
      </trkpt>
      <trkpt lat="45.42718" lon="2.91529">
        <ele>1137.38</ele>
        <time>2021-08-15T09:01:16Z</time>
      </trkpt>
      <trkpt lat="45.42718" lon="2.91531">
        <ele>1137.86</ele>
        <time>2021-08-15T09:01:17Z</time>
      </trkpt>
      <trkpt lat="45.42717" lon="2.91533">
        <ele>1137.86</ele>
        <time>2021-08-15T09:01:18Z</time>
      </trkpt>
      <trkpt lat="45.42717" lon="2.91535">
        <ele>1137.86</ele>
        <time>2021-08-15T09:01:19Z</time>
      </trkpt>
      <trkpt lat="45.42716" lon="2.91536">
        <ele>1137.86</ele>
        <time>2021-08-15T09:01:20Z</time>
      </trkpt>
      <trkpt lat="45.42715" lon="2.91539">
        <ele>1138.34</ele>
        <time>2021-08-15T09:01:21Z</time>
      </trkpt>
      <trkpt lat="45.42712" lon="2.91558">
        <ele>1139.78</ele>
        <time>2021-08-15T09:01:31Z</time>
      </trkpt>
      <trkpt lat="45.42705" lon="2.91575">
        <ele>1141.22</ele>
        <time>2021-08-15T09:01:41Z</time>
      </trkpt>
      <trkpt lat="45.42698" lon="2.91584">
        <ele>1142.66</ele>
        <time>2021-08-15T09:01:47Z</time>
      </trkpt>
      <trkpt lat="45.42697" lon="2.91585">
        <ele>1143.14</ele>
        <time>2021-08-15T09:01:48Z</time>
      </trkpt>
      <trkpt lat="45.42696" lon="2.91586">
        <ele>1143.14</ele>
        <time>2021-08-15T09:01:49Z</time>
      </trkpt>
      <trkpt lat="45.42681" lon="2.91594">
        <ele>1144.59</ele>
        <time>2021-08-15T09:02:00Z</time>
      </trkpt>
      <trkpt lat="45.42668" lon="2.91596">
        <ele>1146.03</ele>
        <time>2021-08-15T09:02:10Z</time>
      </trkpt>
      <trkpt lat="45.42655" lon="2.91597">
        <ele>1147.95</ele>
        <time>2021-08-15T09:02:20Z</time>
      </trkpt>
      <trkpt lat="45.42644" lon="2.91597">
        <ele>1149.39</ele>
        <time>2021-08-15T09:02:29Z</time>
      </trkpt>
      <trkpt lat="45.4263" lon="2.91593">
        <ele>1151.32</ele>
        <time>2021-08-15T09:02:39Z</time>
      </trkpt>
      <trkpt lat="45.42621" lon="2.91591">
        <ele>1151.8</ele>
        <time>2021-08-15T09:02:45Z</time>
      </trkpt>
      <trkpt lat="45.4262" lon="2.91591">
        <ele>1151.8</ele>
        <time>2021-08-15T09:02:46Z</time>
      </trkpt>
      <trkpt lat="45.42608" lon="2.91589">
        <ele>1152.76</ele>
        <time>2021-08-15T09:02:54Z</time>
      </trkpt>
      <trkpt lat="45.42595" lon="2.91587">
        <ele>1154.2</ele>
        <time>2021-08-15T09:03:02Z</time>
      </trkpt>
      <trkpt lat="45.4258" lon="2.91583">
        <ele>1156.6</ele>
        <time>2021-08-15T09:03:10Z</time>
      </trkpt>
      <trkpt lat="45.42558" lon="2.9158">
        <ele>1157.56</ele>
        <time>2021-08-15T09:03:21Z</time>
      </trkpt>
      <trkpt lat="45.42537" lon="2.91576">
        <ele>1159.49</ele>
        <time>2021-08-15T09:03:31Z</time>
      </trkpt>
      <trkpt lat="45.42509" lon="2.91572">
        <ele>1160.45</ele>
        <time>2021-08-15T09:03:42Z</time>
      </trkpt>
      <trkpt lat="45.42485" lon="2.9157">
        <ele>1161.89</ele>
        <time>2021-08-15T09:03:51Z</time>
      </trkpt>
      <trkpt lat="45.42457" lon="2.91564">
        <ele>1163.33</ele>
        <time>2021-08-15T09:04:02Z</time>
      </trkpt>
      <trkpt lat="45.4245" lon="2.91563">
        <ele>1164.77</ele>
        <time>2021-08-15T09:04:05Z</time>
      </trkpt>
      <trkpt lat="45.42427" lon="2.91562">
        <ele>1165.26</ele>
        <time>2021-08-15T09:04:15Z</time>
      </trkpt>
      <trkpt lat="45.42405" lon="2.91564">
        <ele>1167.66</ele>
        <time>2021-08-15T09:04:26Z</time>
      </trkpt>
      <trkpt lat="45.4239" lon="2.91563">
        <ele>1170.06</ele>
        <time>2021-08-15T09:04:36Z</time>
      </trkpt>
      <trkpt lat="45.42371" lon="2.91566">
        <ele>1171.02</ele>
        <time>2021-08-15T09:04:48Z</time>
      </trkpt>
      <trkpt lat="45.42358" lon="2.91567">
        <ele>1172.47</ele>
        <time>2021-08-15T09:04:56Z</time>
      </trkpt>
      <trkpt lat="45.42339" lon="2.91575">
        <ele>1172.95</ele>
        <time>2021-08-15T09:05:06Z</time>
      </trkpt>
      <trkpt lat="45.42336" lon="2.91593">
        <ele>1173.43</ele>
        <time>2021-08-15T09:05:12Z</time>
      </trkpt>
      <trkpt lat="45.42344" lon="2.91613">
        <ele>1173.91</ele>
        <time>2021-08-15T09:05:17Z</time>
      </trkpt>
      <trkpt lat="45.42346" lon="2.91619">
        <ele>1173.91</ele>
        <time>2021-08-15T09:05:18Z</time>
      </trkpt>
      <trkpt lat="45.42357" lon="2.9164">
        <ele>1173.91</ele>
        <time>2021-08-15T09:05:22Z</time>
      </trkpt>
      <trkpt lat="45.42359" lon="2.91645">
        <ele>1173.91</ele>
        <time>2021-08-15T09:05:23Z</time>
      </trkpt>
      <trkpt lat="45.42363" lon="2.91652">
        <ele>1173.91</ele>
        <time>2021-08-15T09:05:24Z</time>
      </trkpt>
      <trkpt lat="45.42387" lon="2.917">
        <ele>1174.39</ele>
        <time>2021-08-15T09:05:32Z</time>
      </trkpt>
      <trkpt lat="45.4239" lon="2.91704">
        <ele>1174.39</ele>
        <time>2021-08-15T09:05:33Z</time>
      </trkpt>
      <trkpt lat="45.42394" lon="2.91709">
        <ele>1174.39</ele>
        <time>2021-08-15T09:05:34Z</time>
      </trkpt>
      <trkpt lat="45.42397" lon="2.91713">
        <ele>1174.87</ele>
        <time>2021-08-15T09:05:35Z</time>
      </trkpt>
      <trkpt lat="45.42402" lon="2.91719">
        <ele>1174.87</ele>
        <time>2021-08-15T09:05:36Z</time>
      </trkpt>
      <trkpt lat="45.42414" lon="2.91731">
        <ele>1175.35</ele>
        <time>2021-08-15T09:05:39Z</time>
      </trkpt>
      <trkpt lat="45.42417" lon="2.91737">
        <ele>1176.31</ele>
        <time>2021-08-15T09:05:40Z</time>
      </trkpt>
      <trkpt lat="45.42427" lon="2.91753">
        <ele>1176.79</ele>
        <time>2021-08-15T09:05:43Z</time>
      </trkpt>
      <trkpt lat="45.42434" lon="2.91764">
        <ele>1177.27</ele>
        <time>2021-08-15T09:05:45Z</time>
      </trkpt>
      <trkpt lat="45.4246" lon="2.91809">
        <ele>1177.27</ele>
        <time>2021-08-15T09:05:52Z</time>
      </trkpt>
      <trkpt lat="45.4247" lon="2.91832">
        <ele>1175.83</ele>
        <time>2021-08-15T09:05:55Z</time>
      </trkpt>
      <trkpt lat="45.42495" lon="2.91894">
        <ele>1174.87</ele>
        <time>2021-08-15T09:06:02Z</time>
      </trkpt>
      <trkpt lat="45.42498" lon="2.91903">
        <ele>1174.87</ele>
        <time>2021-08-15T09:06:03Z</time>
      </trkpt>
      <trkpt lat="45.42528" lon="2.91975">
        <ele>1173.43</ele>
        <time>2021-08-15T09:06:11Z</time>
      </trkpt>
      <trkpt lat="45.42557" lon="2.92061">
        <ele>1170.06</ele>
        <time>2021-08-15T09:06:19Z</time>
      </trkpt>
      <trkpt lat="45.42561" lon="2.92073">
        <ele>1170.06</ele>
        <time>2021-08-15T09:06:20Z</time>
      </trkpt>
      <trkpt lat="45.42591" lon="2.92169">
        <ele>1166.7</ele>
        <time>2021-08-15T09:06:28Z</time>
      </trkpt>
      <trkpt lat="45.42623" lon="2.92266">
        <ele>1164.29</ele>
        <time>2021-08-15T09:06:36Z</time>
      </trkpt>
      <trkpt lat="45.42655" lon="2.92374">
        <ele>1163.33</ele>
        <time>2021-08-15T09:06:45Z</time>
      </trkpt>
      <trkpt lat="45.42656" lon="2.92384">
        <ele>1163.33</ele>
        <time>2021-08-15T09:06:46Z</time>
      </trkpt>
      <trkpt lat="45.42658" lon="2.92407">
        <ele>1163.33</ele>
        <time>2021-08-15T09:06:48Z</time>
      </trkpt>
      <trkpt lat="45.42658" lon="2.92418">
        <ele>1163.33</ele>
        <time>2021-08-15T09:06:49Z</time>
      </trkpt>
      <trkpt lat="45.42656" lon="2.92491">
        <ele>1166.22</ele>
        <time>2021-08-15T09:06:56Z</time>
      </trkpt>
      <trkpt lat="45.42665" lon="2.92553">
        <ele>1168.14</ele>
        <time>2021-08-15T09:07:03Z</time>
      </trkpt>
      <trkpt lat="45.42673" lon="2.926">
        <ele>1169.58</ele>
        <time>2021-08-15T09:07:09Z</time>
      </trkpt>
      <trkpt lat="45.42674" lon="2.92614">
        <ele>1170.06</ele>
        <time>2021-08-15T09:07:11Z</time>
      </trkpt>
      <trkpt lat="45.42674" lon="2.9262">
        <ele>1170.54</ele>
        <time>2021-08-15T09:07:12Z</time>
      </trkpt>
      <trkpt lat="45.42677" lon="2.92654">
        <ele>1171.02</ele>
        <time>2021-08-15T09:07:19Z</time>
      </trkpt>
      <trkpt lat="45.42678" lon="2.92677">
        <ele>1171.02</ele>
        <time>2021-08-15T09:07:26Z</time>
      </trkpt>
      <trkpt lat="45.42681" lon="2.9271">
        <ele>1171.02</ele>
        <time>2021-08-15T09:07:34Z</time>
      </trkpt>
      <trkpt lat="45.42683" lon="2.92727">
        <ele>1171.02</ele>
        <time>2021-08-15T09:07:37Z</time>
      </trkpt>
      <trkpt lat="45.42684" lon="2.92756">
        <ele>1171.02</ele>
        <time>2021-08-15T09:07:42Z</time>
      </trkpt>
      <trkpt lat="45.42682" lon="2.92765">
        <ele>1171.02</ele>
        <time>2021-08-15T09:07:44Z</time>
      </trkpt>
      <trkpt lat="45.42687" lon="2.92787">
        <ele>1171.02</ele>
        <time>2021-08-15T09:07:48Z</time>
      </trkpt>
      <trkpt lat="45.42691" lon="2.92791">
        <ele>1171.02</ele>
        <time>2021-08-15T09:07:49Z</time>
      </trkpt>
      <trkpt lat="45.42693" lon="2.92796">
        <ele>1171.02</ele>
        <time>2021-08-15T09:07:50Z</time>
      </trkpt>
      <trkpt lat="45.42695" lon="2.92834">
        <ele>1171.02</ele>
        <time>2021-08-15T09:07:57Z</time>
      </trkpt>
      <trkpt lat="45.427" lon="2.92876">
        <ele>1170.54</ele>
        <time>2021-08-15T09:08:05Z</time>
      </trkpt>
      <trkpt lat="45.42706" lon="2.92929">
        <ele>1171.5</ele>
        <time>2021-08-15T09:08:15Z</time>
      </trkpt>
      <trkpt lat="45.42708" lon="2.92951">
        <ele>1171.5</ele>
        <time>2021-08-15T09:08:19Z</time>
      </trkpt>
      <trkpt lat="45.42709" lon="2.93006">
        <ele>1171.5</ele>
        <time>2021-08-15T09:08:28Z</time>
      </trkpt>
      <trkpt lat="45.42709" lon="2.93035">
        <ele>1171.5</ele>
        <time>2021-08-15T09:08:33Z</time>
      </trkpt>
      <trkpt lat="45.42708" lon="2.93041">
        <ele>1171.5</ele>
        <time>2021-08-15T09:08:34Z</time>
      </trkpt>
      <trkpt lat="45.42708" lon="2.93047">
        <ele>1171.5</ele>
        <time>2021-08-15T09:08:35Z</time>
      </trkpt>
      <trkpt lat="45.42708" lon="2.93053">
        <ele>1171.5</ele>
        <time>2021-08-15T09:08:36Z</time>
      </trkpt>
      <trkpt lat="45.42709" lon="2.93059">
        <ele>1171.5</ele>
        <time>2021-08-15T09:08:37Z</time>
      </trkpt>
      <trkpt lat="45.42709" lon="2.93065">
        <ele>1171.5</ele>
        <time>2021-08-15T09:08:38Z</time>
      </trkpt>
      <trkpt lat="45.4271" lon="2.93072">
        <ele>1171.5</ele>
        <time>2021-08-15T09:08:39Z</time>
      </trkpt>
      <trkpt lat="45.42711" lon="2.93078">
        <ele>1171.5</ele>
        <time>2021-08-15T09:08:40Z</time>
      </trkpt>
      <trkpt lat="45.42714" lon="2.93091">
        <ele>1171.5</ele>
        <time>2021-08-15T09:08:42Z</time>
      </trkpt>
      <trkpt lat="45.42731" lon="2.93156">
        <ele>1170.06</ele>
        <time>2021-08-15T09:08:52Z</time>
      </trkpt>
      <trkpt lat="45.42738" lon="2.93182">
        <ele>1170.06</ele>
        <time>2021-08-15T09:08:56Z</time>
      </trkpt>
      <trkpt lat="45.42749" lon="2.93226">
        <ele>1171.5</ele>
        <time>2021-08-15T09:09:04Z</time>
      </trkpt>
      <trkpt lat="45.42759" lon="2.93264">
        <ele>1172.47</ele>
        <time>2021-08-15T09:09:12Z</time>
      </trkpt>
      <trkpt lat="45.42774" lon="2.93317">
        <ele>1172.95</ele>
        <time>2021-08-15T09:09:22Z</time>
      </trkpt>
      <trkpt lat="45.42777" lon="2.93328">
        <ele>1172.95</ele>
        <time>2021-08-15T09:09:24Z</time>
      </trkpt>
      <trkpt lat="45.42778" lon="2.93334">
        <ele>1172.95</ele>
        <time>2021-08-15T09:09:25Z</time>
      </trkpt>
      <trkpt lat="45.42777" lon="2.9334">
        <ele>1172.95</ele>
        <time>2021-08-15T09:09:26Z</time>
      </trkpt>
      <trkpt lat="45.42775" lon="2.93345">
        <ele>1172.95</ele>
        <time>2021-08-15T09:09:27Z</time>
      </trkpt>
      <trkpt lat="45.42772" lon="2.93349">
        <ele>1172.95</ele>
        <time>2021-08-15T09:09:28Z</time>
      </trkpt>
      <trkpt lat="45.42769" lon="2.93351">
        <ele>1172.95</ele>
        <time>2021-08-15T09:09:29Z</time>
      </trkpt>
      <trkpt lat="45.42753" lon="2.93365">
        <ele>1174.87</ele>
        <time>2021-08-15T09:09:36Z</time>
      </trkpt>
      <trkpt lat="45.42737" lon="2.93378">
        <ele>1175.83</ele>
        <time>2021-08-15T09:09:43Z</time>
      </trkpt>
      <trkpt lat="45.42724" lon="2.9339">
        <ele>1177.75</ele>
        <time>2021-08-15T09:09:49Z</time>
      </trkpt>
      <trkpt lat="45.42712" lon="2.93406">
        <ele>1179.67</ele>
        <time>2021-08-15T09:09:57Z</time>
      </trkpt>
      <trkpt lat="45.4271" lon="2.93408">
        <ele>1179.67</ele>
        <time>2021-08-15T09:09:58Z</time>
      </trkpt>
      <trkpt lat="45.42701" lon="2.93435">
        <ele>1180.16</ele>
        <time>2021-08-15T09:10:08Z</time>
      </trkpt>
      <trkpt lat="45.42692" lon="2.93467">
        <ele>1181.12</ele>
        <time>2021-08-15T09:10:17Z</time>
      </trkpt>
      <trkpt lat="45.4268" lon="2.9351">
        <ele>1181.6</ele>
        <time>2021-08-15T09:10:25Z</time>
      </trkpt>
      <trkpt lat="45.42673" lon="2.93536">
        <ele>1180.16</ele>
        <time>2021-08-15T09:10:29Z</time>
      </trkpt>
      <trkpt lat="45.42671" lon="2.93542">
        <ele>1180.16</ele>
        <time>2021-08-15T09:10:30Z</time>
      </trkpt>
      <trkpt lat="45.42665" lon="2.93558">
        <ele>1180.16</ele>
        <time>2021-08-15T09:10:33Z</time>
      </trkpt>
      <trkpt lat="45.42664" lon="2.93563">
        <ele>1180.16</ele>
        <time>2021-08-15T09:10:34Z</time>
      </trkpt>
      <trkpt lat="45.42663" lon="2.93569">
        <ele>1180.16</ele>
        <time>2021-08-15T09:10:35Z</time>
      </trkpt>
      <trkpt lat="45.42662" lon="2.93574">
        <ele>1180.16</ele>
        <time>2021-08-15T09:10:36Z</time>
      </trkpt>
      <trkpt lat="45.4266" lon="2.9358">
        <ele>1181.6</ele>
        <time>2021-08-15T09:10:37Z</time>
      </trkpt>
      <trkpt lat="45.42659" lon="2.93585">
        <ele>1181.6</ele>
        <time>2021-08-15T09:10:38Z</time>
      </trkpt>
      <trkpt lat="45.42652" lon="2.93616">
        <ele>1183.52</ele>
        <time>2021-08-15T09:10:46Z</time>
      </trkpt>
      <trkpt lat="45.42646" lon="2.9364">
        <ele>1184</ele>
        <time>2021-08-15T09:10:53Z</time>
      </trkpt>
      <trkpt lat="45.42637" lon="2.93677">
        <ele>1184.48</ele>
        <time>2021-08-15T09:11:02Z</time>
      </trkpt>
      <trkpt lat="45.42629" lon="2.93702">
        <ele>1184.48</ele>
        <time>2021-08-15T09:11:07Z</time>
      </trkpt>
      <trkpt lat="45.42625" lon="2.93714">
        <ele>1184.48</ele>
        <time>2021-08-15T09:11:09Z</time>
      </trkpt>
      <trkpt lat="45.42624" lon="2.93721">
        <ele>1184.48</ele>
        <time>2021-08-15T09:11:10Z</time>
      </trkpt>
      <trkpt lat="45.42622" lon="2.93728">
        <ele>1183.04</ele>
        <time>2021-08-15T09:11:11Z</time>
      </trkpt>
      <trkpt lat="45.42619" lon="2.93735">
        <ele>1183.04</ele>
        <time>2021-08-15T09:11:12Z</time>
      </trkpt>
      <trkpt lat="45.42617" lon="2.93743">
        <ele>1183.04</ele>
        <time>2021-08-15T09:11:13Z</time>
      </trkpt>
      <trkpt lat="45.42611" lon="2.93759">
        <ele>1182.56</ele>
        <time>2021-08-15T09:11:15Z</time>
      </trkpt>
      <trkpt lat="45.42597" lon="2.93793">
        <ele>1181.6</ele>
        <time>2021-08-15T09:11:19Z</time>
      </trkpt>
      <trkpt lat="45.42581" lon="2.93822">
        <ele>1181.6</ele>
        <time>2021-08-15T09:11:23Z</time>
      </trkpt>
      <trkpt lat="45.42569" lon="2.9384">
        <ele>1183.04</ele>
        <time>2021-08-15T09:11:26Z</time>
      </trkpt>
      <trkpt lat="45.42555" lon="2.9386">
        <ele>1184</ele>
        <time>2021-08-15T09:11:30Z</time>
      </trkpt>
      <trkpt lat="45.42551" lon="2.93864">
        <ele>1184.48</ele>
        <time>2021-08-15T09:11:31Z</time>
      </trkpt>
      <trkpt lat="45.42518" lon="2.93885">
        <ele>1184.96</ele>
        <time>2021-08-15T09:11:39Z</time>
      </trkpt>
      <trkpt lat="45.42476" lon="2.93916">
        <ele>1182.08</ele>
        <time>2021-08-15T09:11:47Z</time>
      </trkpt>
      <trkpt lat="45.42455" lon="2.93936">
        <ele>1182.08</ele>
        <time>2021-08-15T09:11:51Z</time>
      </trkpt>
      <trkpt lat="45.42423" lon="2.93977">
        <ele>1183.52</ele>
        <time>2021-08-15T09:11:59Z</time>
      </trkpt>
      <trkpt lat="45.42405" lon="2.93999">
        <ele>1185.44</ele>
        <time>2021-08-15T09:12:06Z</time>
      </trkpt>
      <trkpt lat="45.42382" lon="2.94025">
        <ele>1186.88</ele>
        <time>2021-08-15T09:12:16Z</time>
      </trkpt>
      <trkpt lat="45.42356" lon="2.94052">
        <ele>1185.44</ele>
        <time>2021-08-15T09:12:23Z</time>
      </trkpt>
      <trkpt lat="45.42342" lon="2.94067">
        <ele>1184.48</ele>
        <time>2021-08-15T09:12:26Z</time>
      </trkpt>
      <trkpt lat="45.42337" lon="2.94072">
        <ele>1184.48</ele>
        <time>2021-08-15T09:12:27Z</time>
      </trkpt>
      <trkpt lat="45.4231" lon="2.941">
        <ele>1184</ele>
        <time>2021-08-15T09:12:33Z</time>
      </trkpt>
      <trkpt lat="45.42305" lon="2.94105">
        <ele>1184</ele>
        <time>2021-08-15T09:12:34Z</time>
      </trkpt>
      <trkpt lat="45.42261" lon="2.94153">
        <ele>1183.04</ele>
        <time>2021-08-15T09:12:44Z</time>
      </trkpt>
      <trkpt lat="45.4224" lon="2.94183">
        <ele>1183.04</ele>
        <time>2021-08-15T09:12:49Z</time>
      </trkpt>
      <trkpt lat="45.42236" lon="2.9419">
        <ele>1184.48</ele>
        <time>2021-08-15T09:12:50Z</time>
      </trkpt>
      <trkpt lat="45.42233" lon="2.94196">
        <ele>1184.48</ele>
        <time>2021-08-15T09:12:51Z</time>
      </trkpt>
      <trkpt lat="45.42191" lon="2.94258">
        <ele>1185.44</ele>
        <time>2021-08-15T09:13:02Z</time>
      </trkpt>
      <trkpt lat="45.4216" lon="2.94306">
        <ele>1185.92</ele>
        <time>2021-08-15T09:13:11Z</time>
      </trkpt>
      <trkpt lat="45.4215" lon="2.94322">
        <ele>1185.92</ele>
        <time>2021-08-15T09:13:14Z</time>
      </trkpt>
      <trkpt lat="45.42147" lon="2.94326">
        <ele>1185.92</ele>
        <time>2021-08-15T09:13:15Z</time>
      </trkpt>
      <trkpt lat="45.42126" lon="2.94359">
        <ele>1186.88</ele>
        <time>2021-08-15T09:13:22Z</time>
      </trkpt>
      <trkpt lat="45.42123" lon="2.94364">
        <ele>1187.37</ele>
        <time>2021-08-15T09:13:23Z</time>
      </trkpt>
      <trkpt lat="45.42121" lon="2.9437">
        <ele>1187.37</ele>
        <time>2021-08-15T09:13:24Z</time>
      </trkpt>
      <trkpt lat="45.42098" lon="2.94424">
        <ele>1186.4</ele>
        <time>2021-08-15T09:13:32Z</time>
      </trkpt>
      <trkpt lat="45.42084" lon="2.94464">
        <ele>1183.04</ele>
        <time>2021-08-15T09:13:36Z</time>
      </trkpt>
      <trkpt lat="45.42083" lon="2.94477">
        <ele>1182.08</ele>
        <time>2021-08-15T09:13:37Z</time>
      </trkpt>
      <trkpt lat="45.42083" lon="2.94491">
        <ele>1180.64</ele>
        <time>2021-08-15T09:13:38Z</time>
      </trkpt>
      <trkpt lat="45.42084" lon="2.94505">
        <ele>1179.67</ele>
        <time>2021-08-15T09:13:39Z</time>
      </trkpt>
      <trkpt lat="45.42086" lon="2.9452">
        <ele>1178.71</ele>
        <time>2021-08-15T09:13:40Z</time>
      </trkpt>
      <trkpt lat="45.42087" lon="2.94549">
        <ele>1177.75</ele>
        <time>2021-08-15T09:13:42Z</time>
      </trkpt>
      <trkpt lat="45.42086" lon="2.94566">
        <ele>1177.27</ele>
        <time>2021-08-15T09:13:43Z</time>
      </trkpt>
      <trkpt lat="45.42085" lon="2.94597">
        <ele>1176.31</ele>
        <time>2021-08-15T09:13:45Z</time>
      </trkpt>
      <trkpt lat="45.42086" lon="2.94613">
        <ele>1175.35</ele>
        <time>2021-08-15T09:13:46Z</time>
      </trkpt>
      <trkpt lat="45.42088" lon="2.94629">
        <ele>1174.39</ele>
        <time>2021-08-15T09:13:47Z</time>
      </trkpt>
      <trkpt lat="45.42089" lon="2.94646">
        <ele>1172.47</ele>
        <time>2021-08-15T09:13:48Z</time>
      </trkpt>
      <trkpt lat="45.42088" lon="2.94663">
        <ele>1171.5</ele>
        <time>2021-08-15T09:13:49Z</time>
      </trkpt>
      <trkpt lat="45.42087" lon="2.94681">
        <ele>1170.54</ele>
        <time>2021-08-15T09:13:50Z</time>
      </trkpt>
      <trkpt lat="45.42084" lon="2.94701">
        <ele>1169.58</ele>
        <time>2021-08-15T09:13:51Z</time>
      </trkpt>
      <trkpt lat="45.4208" lon="2.94717">
        <ele>1168.62</ele>
        <time>2021-08-15T09:13:52Z</time>
      </trkpt>
      <trkpt lat="45.42067" lon="2.94776">
        <ele>1163.81</ele>
        <time>2021-08-15T09:13:55Z</time>
      </trkpt>
      <trkpt lat="45.42052" lon="2.94853">
        <ele>1159.01</ele>
        <time>2021-08-15T09:13:59Z</time>
      </trkpt>
      <trkpt lat="45.42036" lon="2.94912">
        <ele>1155.64</ele>
        <time>2021-08-15T09:14:02Z</time>
      </trkpt>
      <trkpt lat="45.42026" lon="2.94947">
        <ele>1155.16</ele>
        <time>2021-08-15T09:14:04Z</time>
      </trkpt>
      <trkpt lat="45.4202" lon="2.94959">
        <ele>1155.16</ele>
        <time>2021-08-15T09:14:05Z</time>
      </trkpt>
      <trkpt lat="45.42013" lon="2.94968">
        <ele>1157.56</ele>
        <time>2021-08-15T09:14:06Z</time>
      </trkpt>
      <trkpt lat="45.42005" lon="2.94974">
        <ele>1158.53</ele>
        <time>2021-08-15T09:14:07Z</time>
      </trkpt>
      <trkpt lat="45.41982" lon="2.94989">
        <ele>1162.85</ele>
        <time>2021-08-15T09:14:11Z</time>
      </trkpt>
      <trkpt lat="45.41978" lon="2.94992">
        <ele>1163.81</ele>
        <time>2021-08-15T09:14:12Z</time>
      </trkpt>
      <trkpt lat="45.41965" lon="2.95008">
        <ele>1166.7</ele>
        <time>2021-08-15T09:14:18Z</time>
      </trkpt>
      <trkpt lat="45.41955" lon="2.95027">
        <ele>1168.14</ele>
        <time>2021-08-15T09:14:27Z</time>
      </trkpt>
      <trkpt lat="45.41945" lon="2.95049">
        <ele>1170.54</ele>
        <time>2021-08-15T09:14:37Z</time>
      </trkpt>
      <trkpt lat="45.41941" lon="2.95072">
        <ele>1171.98</ele>
        <time>2021-08-15T09:14:46Z</time>
      </trkpt>
      <trkpt lat="45.41941" lon="2.95078">
        <ele>1172.47</ele>
        <time>2021-08-15T09:14:48Z</time>
      </trkpt>
      <trkpt lat="45.4194" lon="2.9508">
        <ele>1172.95</ele>
        <time>2021-08-15T09:14:49Z</time>
      </trkpt>
      <trkpt lat="45.41938" lon="2.95083">
        <ele>1172.95</ele>
        <time>2021-08-15T09:14:50Z</time>
      </trkpt>
      <trkpt lat="45.41926" lon="2.95109">
        <ele>1173.91</ele>
        <time>2021-08-15T09:14:59Z</time>
      </trkpt>
      <trkpt lat="45.41908" lon="2.95145">
        <ele>1176.31</ele>
        <time>2021-08-15T09:15:12Z</time>
      </trkpt>
      <trkpt lat="45.41897" lon="2.95178">
        <ele>1178.23</ele>
        <time>2021-08-15T09:15:23Z</time>
      </trkpt>
      <trkpt lat="45.4189" lon="2.95217">
        <ele>1179.19</ele>
        <time>2021-08-15T09:15:34Z</time>
      </trkpt>
      <trkpt lat="45.41884" lon="2.95256">
        <ele>1181.12</ele>
        <time>2021-08-15T09:15:45Z</time>
      </trkpt>
      <trkpt lat="45.41875" lon="2.95291">
        <ele>1183.04</ele>
        <time>2021-08-15T09:15:55Z</time>
      </trkpt>
      <trkpt lat="45.4186" lon="2.95324">
        <ele>1184.48</ele>
        <time>2021-08-15T09:16:06Z</time>
      </trkpt>
      <trkpt lat="45.41848" lon="2.95355">
        <ele>1185.44</ele>
        <time>2021-08-15T09:16:16Z</time>
      </trkpt>
      <trkpt lat="45.4184" lon="2.9539">
        <ele>1187.37</ele>
        <time>2021-08-15T09:16:26Z</time>
      </trkpt>
      <trkpt lat="45.41833" lon="2.95416">
        <ele>1188.81</ele>
        <time>2021-08-15T09:16:34Z</time>
      </trkpt>
      <trkpt lat="45.41818" lon="2.95442">
        <ele>1190.25</ele>
        <time>2021-08-15T09:16:43Z</time>
      </trkpt>
      <trkpt lat="45.41798" lon="2.95458">
        <ele>1191.21</ele>
        <time>2021-08-15T09:16:53Z</time>
      </trkpt>
      <trkpt lat="45.4178" lon="2.95461">
        <ele>1192.17</ele>
        <time>2021-08-15T09:17:01Z</time>
      </trkpt>
      <trkpt lat="45.41756" lon="2.95465">
        <ele>1194.09</ele>
        <time>2021-08-15T09:17:12Z</time>
      </trkpt>
      <trkpt lat="45.4173" lon="2.95477">
        <ele>1196.02</ele>
        <time>2021-08-15T09:17:24Z</time>
      </trkpt>
      <trkpt lat="45.4171" lon="2.9549">
        <ele>1197.46</ele>
        <time>2021-08-15T09:17:34Z</time>
      </trkpt>
      <trkpt lat="45.41692" lon="2.95499">
        <ele>1197.94</ele>
        <time>2021-08-15T09:17:42Z</time>
      </trkpt>
      <trkpt lat="45.41674" lon="2.95515">
        <ele>1199.38</ele>
        <time>2021-08-15T09:17:50Z</time>
      </trkpt>
      <trkpt lat="45.41656" lon="2.95535">
        <ele>1200.34</ele>
        <time>2021-08-15T09:17:58Z</time>
      </trkpt>
      <trkpt lat="45.41637" lon="2.95544">
        <ele>1201.3</ele>
        <time>2021-08-15T09:18:06Z</time>
      </trkpt>
      <trkpt lat="45.41618" lon="2.95548">
        <ele>1201.79</ele>
        <time>2021-08-15T09:18:15Z</time>
      </trkpt>
      <trkpt lat="45.41594" lon="2.95555">
        <ele>1203.71</ele>
        <time>2021-08-15T09:18:26Z</time>
      </trkpt>
      <trkpt lat="45.41574" lon="2.95566">
        <ele>1205.15</ele>
        <time>2021-08-15T09:18:36Z</time>
      </trkpt>
      <trkpt lat="45.41556" lon="2.95591">
        <ele>1207.07</ele>
        <time>2021-08-15T09:18:47Z</time>
      </trkpt>
      <trkpt lat="45.41542" lon="2.95627">
        <ele>1209.48</ele>
        <time>2021-08-15T09:19:00Z</time>
      </trkpt>
      <trkpt lat="45.41533" lon="2.95643">
        <ele>1210.92</ele>
        <time>2021-08-15T09:19:08Z</time>
      </trkpt>
      <trkpt lat="45.41532" lon="2.95643">
        <ele>1210.44</ele>
        <time>2021-08-15T09:19:09Z</time>
      </trkpt>
      <trkpt lat="45.4153" lon="2.95644">
        <ele>1210.92</ele>
        <time>2021-08-15T09:19:10Z</time>
      </trkpt>
      <trkpt lat="45.41529" lon="2.95644">
        <ele>1210.92</ele>
        <time>2021-08-15T09:19:11Z</time>
      </trkpt>
      <trkpt lat="45.41528" lon="2.95644">
        <ele>1210.92</ele>
        <time>2021-08-15T09:19:12Z</time>
      </trkpt>
      <trkpt lat="45.41526" lon="2.95644">
        <ele>1211.88</ele>
        <time>2021-08-15T09:19:13Z</time>
      </trkpt>
      <trkpt lat="45.41525" lon="2.95644">
        <ele>1211.88</ele>
        <time>2021-08-15T09:19:14Z</time>
      </trkpt>
      <trkpt lat="45.41524" lon="2.95644">
        <ele>1211.88</ele>
        <time>2021-08-15T09:19:15Z</time>
      </trkpt>
      <trkpt lat="45.41522" lon="2.95643">
        <ele>1211.88</ele>
        <time>2021-08-15T09:19:16Z</time>
      </trkpt>
      <trkpt lat="45.41521" lon="2.95642">
        <ele>1211.88</ele>
        <time>2021-08-15T09:19:17Z</time>
      </trkpt>
      <trkpt lat="45.41519" lon="2.95642">
        <ele>1211.88</ele>
        <time>2021-08-15T09:19:18Z</time>
      </trkpt>
      <trkpt lat="45.41518" lon="2.9564">
        <ele>1211.88</ele>
        <time>2021-08-15T09:19:19Z</time>
      </trkpt>
      <trkpt lat="45.41516" lon="2.95639">
        <ele>1211.88</ele>
        <time>2021-08-15T09:19:20Z</time>
      </trkpt>
      <trkpt lat="45.41514" lon="2.95638">
        <ele>1211.88</ele>
        <time>2021-08-15T09:19:21Z</time>
      </trkpt>
      <trkpt lat="45.41505" lon="2.95626">
        <ele>1212.36</ele>
        <time>2021-08-15T09:19:28Z</time>
      </trkpt>
      <trkpt lat="45.41491" lon="2.9561">
        <ele>1213.32</ele>
        <time>2021-08-15T09:19:37Z</time>
      </trkpt>
      <trkpt lat="45.41476" lon="2.95592">
        <ele>1214.28</ele>
        <time>2021-08-15T09:19:46Z</time>
      </trkpt>
      <trkpt lat="45.41456" lon="2.95569">
        <ele>1215.72</ele>
        <time>2021-08-15T09:19:56Z</time>
      </trkpt>
      <trkpt lat="45.4144" lon="2.9555">
        <ele>1217.17</ele>
        <time>2021-08-15T09:20:04Z</time>
      </trkpt>
      <trkpt lat="45.41422" lon="2.9553">
        <ele>1218.61</ele>
        <time>2021-08-15T09:20:13Z</time>
      </trkpt>
      <trkpt lat="45.41407" lon="2.95504">
        <ele>1219.09</ele>
        <time>2021-08-15T09:20:22Z</time>
      </trkpt>
      <trkpt lat="45.4139" lon="2.95467">
        <ele>1220.53</ele>
        <time>2021-08-15T09:20:33Z</time>
      </trkpt>
      <trkpt lat="45.41374" lon="2.95436">
        <ele>1221.49</ele>
        <time>2021-08-15T09:20:42Z</time>
      </trkpt>
      <trkpt lat="45.41366" lon="2.95418">
        <ele>1222.93</ele>
        <time>2021-08-15T09:20:48Z</time>
      </trkpt>
      <trkpt lat="45.41356" lon="2.95402">
        <ele>1222.93</ele>
        <time>2021-08-15T09:20:54Z</time>
      </trkpt>
      <trkpt lat="45.41339" lon="2.95374">
        <ele>1224.38</ele>
        <time>2021-08-15T09:21:02Z</time>
      </trkpt>
      <trkpt lat="45.41317" lon="2.95331">
        <ele>1224.86</ele>
        <time>2021-08-15T09:21:13Z</time>
      </trkpt>
      <trkpt lat="45.4131" lon="2.95319">
        <ele>1223.42</ele>
        <time>2021-08-15T09:21:16Z</time>
      </trkpt>
      <trkpt lat="45.41294" lon="2.9529">
        <ele>1221.49</ele>
        <time>2021-08-15T09:21:22Z</time>
      </trkpt>
      <trkpt lat="45.41288" lon="2.95281">
        <ele>1222.93</ele>
        <time>2021-08-15T09:21:24Z</time>
      </trkpt>
      <trkpt lat="45.41277" lon="2.95266">
        <ele>1221.01</ele>
        <time>2021-08-15T09:21:27Z</time>
      </trkpt>
      <trkpt lat="45.4125" lon="2.95236">
        <ele>1220.05</ele>
        <time>2021-08-15T09:21:33Z</time>
      </trkpt>
      <trkpt lat="45.41245" lon="2.95231">
        <ele>1220.05</ele>
        <time>2021-08-15T09:21:34Z</time>
      </trkpt>
      <trkpt lat="45.41241" lon="2.95226">
        <ele>1220.05</ele>
        <time>2021-08-15T09:21:35Z</time>
      </trkpt>
      <trkpt lat="45.41237" lon="2.95221">
        <ele>1220.05</ele>
        <time>2021-08-15T09:21:36Z</time>
      </trkpt>
      <trkpt lat="45.41234" lon="2.95216">
        <ele>1220.05</ele>
        <time>2021-08-15T09:21:37Z</time>
      </trkpt>
      <trkpt lat="45.4123" lon="2.95212">
        <ele>1220.05</ele>
        <time>2021-08-15T09:21:38Z</time>
      </trkpt>
      <trkpt lat="45.41226" lon="2.95208">
        <ele>1220.05</ele>
        <time>2021-08-15T09:21:39Z</time>
      </trkpt>
      <trkpt lat="45.41223" lon="2.95204">
        <ele>1220.05</ele>
        <time>2021-08-15T09:21:40Z</time>
      </trkpt>
      <trkpt lat="45.41216" lon="2.95199">
        <ele>1222.45</ele>
        <time>2021-08-15T09:21:42Z</time>
      </trkpt>
      <trkpt lat="45.41206" lon="2.95191">
        <ele>1223.42</ele>
        <time>2021-08-15T09:21:45Z</time>
      </trkpt>
      <trkpt lat="45.41177" lon="2.95163">
        <ele>1224.38</ele>
        <time>2021-08-15T09:21:53Z</time>
      </trkpt>
      <trkpt lat="45.41175" lon="2.95159">
        <ele>1222.93</ele>
        <time>2021-08-15T09:21:54Z</time>
      </trkpt>
      <trkpt lat="45.41172" lon="2.95153">
        <ele>1222.93</ele>
        <time>2021-08-15T09:21:55Z</time>
      </trkpt>
      <trkpt lat="45.4117" lon="2.95147">
        <ele>1221.97</ele>
        <time>2021-08-15T09:21:56Z</time>
      </trkpt>
      <trkpt lat="45.41168" lon="2.95141">
        <ele>1221.49</ele>
        <time>2021-08-15T09:21:57Z</time>
      </trkpt>
      <trkpt lat="45.41167" lon="2.95134">
        <ele>1221.49</ele>
        <time>2021-08-15T09:21:58Z</time>
      </trkpt>
      <trkpt lat="45.41166" lon="2.95127">
        <ele>1220.53</ele>
        <time>2021-08-15T09:21:59Z</time>
      </trkpt>
      <trkpt lat="45.41164" lon="2.95112">
        <ele>1219.57</ele>
        <time>2021-08-15T09:22:01Z</time>
      </trkpt>
      <trkpt lat="45.4116" lon="2.95087">
        <ele>1216.21</ele>
        <time>2021-08-15T09:22:04Z</time>
      </trkpt>
      <trkpt lat="45.41155" lon="2.95059">
        <ele>1212.36</ele>
        <time>2021-08-15T09:22:07Z</time>
      </trkpt>
      <trkpt lat="45.41151" lon="2.95028">
        <ele>1208.03</ele>
        <time>2021-08-15T09:22:10Z</time>
      </trkpt>
      <trkpt lat="45.41146" lon="2.94997">
        <ele>1206.11</ele>
        <time>2021-08-15T09:22:13Z</time>
      </trkpt>
      <trkpt lat="45.41139" lon="2.94951">
        <ele>1206.11</ele>
        <time>2021-08-15T09:22:18Z</time>
      </trkpt>
      <trkpt lat="45.41139" lon="2.94942">
        <ele>1206.11</ele>
        <time>2021-08-15T09:22:19Z</time>
      </trkpt>
      <trkpt lat="45.41139" lon="2.94933">
        <ele>1207.07</ele>
        <time>2021-08-15T09:22:20Z</time>
      </trkpt>
      <trkpt lat="45.4114" lon="2.94924">
        <ele>1207.55</ele>
        <time>2021-08-15T09:22:21Z</time>
      </trkpt>
      <trkpt lat="45.41142" lon="2.94916">
        <ele>1207.55</ele>
        <time>2021-08-15T09:22:22Z</time>
      </trkpt>
      <trkpt lat="45.41145" lon="2.94908">
        <ele>1207.55</ele>
        <time>2021-08-15T09:22:23Z</time>
      </trkpt>
      <trkpt lat="45.41147" lon="2.94901">
        <ele>1207.55</ele>
        <time>2021-08-15T09:22:24Z</time>
      </trkpt>
      <trkpt lat="45.41149" lon="2.94894">
        <ele>1207.55</ele>
        <time>2021-08-15T09:22:25Z</time>
      </trkpt>
      <trkpt lat="45.41167" lon="2.94837">
        <ele>1208.03</ele>
        <time>2021-08-15T09:22:34Z</time>
      </trkpt>
      <trkpt lat="45.41173" lon="2.94809">
        <ele>1208.03</ele>
        <time>2021-08-15T09:22:38Z</time>
      </trkpt>
      <trkpt lat="45.41174" lon="2.94803">
        <ele>1208.03</ele>
        <time>2021-08-15T09:22:39Z</time>
      </trkpt>
      <trkpt lat="45.41179" lon="2.94783">
        <ele>1208.03</ele>
        <time>2021-08-15T09:22:42Z</time>
      </trkpt>
      <trkpt lat="45.4118" lon="2.94776">
        <ele>1208.51</ele>
        <time>2021-08-15T09:22:43Z</time>
      </trkpt>
      <trkpt lat="45.41182" lon="2.94768">
        <ele>1208.51</ele>
        <time>2021-08-15T09:22:44Z</time>
      </trkpt>
      <trkpt lat="45.41183" lon="2.94762">
        <ele>1208.51</ele>
        <time>2021-08-15T09:22:45Z</time>
      </trkpt>
      <trkpt lat="45.41185" lon="2.94756">
        <ele>1208.51</ele>
        <time>2021-08-15T09:22:46Z</time>
      </trkpt>
      <trkpt lat="45.41197" lon="2.94719">
        <ele>1208.51</ele>
        <time>2021-08-15T09:22:51Z</time>
      </trkpt>
      <trkpt lat="45.41199" lon="2.94714">
        <ele>1208.51</ele>
        <time>2021-08-15T09:22:52Z</time>
      </trkpt>
      <trkpt lat="45.41201" lon="2.94708">
        <ele>1208.51</ele>
        <time>2021-08-15T09:22:53Z</time>
      </trkpt>
      <trkpt lat="45.41202" lon="2.94701">
        <ele>1208.51</ele>
        <time>2021-08-15T09:22:54Z</time>
      </trkpt>
      <trkpt lat="45.41204" lon="2.94694">
        <ele>1208.51</ele>
        <time>2021-08-15T09:22:55Z</time>
      </trkpt>
      <trkpt lat="45.41204" lon="2.94688">
        <ele>1208.51</ele>
        <time>2021-08-15T09:22:56Z</time>
      </trkpt>
      <trkpt lat="45.41204" lon="2.94682">
        <ele>1208.51</ele>
        <time>2021-08-15T09:22:57Z</time>
      </trkpt>
      <trkpt lat="45.41203" lon="2.94677">
        <ele>1209</ele>
        <time>2021-08-15T09:22:58Z</time>
      </trkpt>
      <trkpt lat="45.41201" lon="2.94674">
        <ele>1209.48</ele>
        <time>2021-08-15T09:22:59Z</time>
      </trkpt>
      <trkpt lat="45.412" lon="2.94671">
        <ele>1209.48</ele>
        <time>2021-08-15T09:23:00Z</time>
      </trkpt>
      <trkpt lat="45.41198" lon="2.94669">
        <ele>1209.48</ele>
        <time>2021-08-15T09:23:01Z</time>
      </trkpt>
      <trkpt lat="45.41196" lon="2.94668">
        <ele>1210.44</ele>
        <time>2021-08-15T09:23:02Z</time>
      </trkpt>
      <trkpt lat="45.41195" lon="2.94667">
        <ele>1210.44</ele>
        <time>2021-08-15T09:23:03Z</time>
      </trkpt>
      <trkpt lat="45.41193" lon="2.94665">
        <ele>1210.44</ele>
        <time>2021-08-15T09:23:04Z</time>
      </trkpt>
      <trkpt lat="45.41191" lon="2.94663">
        <ele>1210.44</ele>
        <time>2021-08-15T09:23:05Z</time>
      </trkpt>
      <trkpt lat="45.4119" lon="2.94662">
        <ele>1210.44</ele>
        <time>2021-08-15T09:23:06Z</time>
      </trkpt>
      <trkpt lat="45.41189" lon="2.94661">
        <ele>1210.44</ele>
        <time>2021-08-15T09:23:07Z</time>
      </trkpt>
      <trkpt lat="45.41178" lon="2.94651">
        <ele>1212.36</ele>
        <time>2021-08-15T09:23:16Z</time>
      </trkpt>
      <trkpt lat="45.41166" lon="2.94641">
        <ele>1214.76</ele>
        <time>2021-08-15T09:23:27Z</time>
      </trkpt>
      <trkpt lat="45.41162" lon="2.94638">
        <ele>1215.24</ele>
        <time>2021-08-15T09:23:30Z</time>
      </trkpt>
      <trkpt lat="45.41161" lon="2.94637">
        <ele>1215.24</ele>
        <time>2021-08-15T09:23:31Z</time>
      </trkpt>
      <trkpt lat="45.4116" lon="2.94636">
        <ele>1215.24</ele>
        <time>2021-08-15T09:23:32Z</time>
      </trkpt>
      <trkpt lat="45.41159" lon="2.94635">
        <ele>1216.21</ele>
        <time>2021-08-15T09:23:33Z</time>
      </trkpt>
      <trkpt lat="45.41158" lon="2.94634">
        <ele>1216.21</ele>
        <time>2021-08-15T09:23:34Z</time>
      </trkpt>
      <trkpt lat="45.41157" lon="2.94633">
        <ele>1216.21</ele>
        <time>2021-08-15T09:23:35Z</time>
      </trkpt>
      <trkpt lat="45.41156" lon="2.94632">
        <ele>1216.69</ele>
        <time>2021-08-15T09:23:36Z</time>
      </trkpt>
      <trkpt lat="45.41146" lon="2.94624">
        <ele>1218.13</ele>
        <time>2021-08-15T09:23:45Z</time>
      </trkpt>
      <trkpt lat="45.41143" lon="2.94622">
        <ele>1218.61</ele>
        <time>2021-08-15T09:23:48Z</time>
      </trkpt>
      <trkpt lat="45.4114" lon="2.9462">
        <ele>1219.09</ele>
        <time>2021-08-15T09:23:52Z</time>
      </trkpt>
      <trkpt lat="45.41132" lon="2.94614">
        <ele>1220.05</ele>
        <time>2021-08-15T09:24:00Z</time>
      </trkpt>
      <trkpt lat="45.41124" lon="2.94609">
        <ele>1221.97</ele>
        <time>2021-08-15T09:24:08Z</time>
      </trkpt>
      <trkpt lat="45.41113" lon="2.94601">
        <ele>1223.42</ele>
        <time>2021-08-15T09:24:19Z</time>
      </trkpt>
      <trkpt lat="45.41103" lon="2.94594">
        <ele>1225.34</ele>
        <time>2021-08-15T09:24:29Z</time>
      </trkpt>
      <trkpt lat="45.41094" lon="2.94587">
        <ele>1226.78</ele>
        <time>2021-08-15T09:24:38Z</time>
      </trkpt>
      <trkpt lat="45.41085" lon="2.94579">
        <ele>1227.74</ele>
        <time>2021-08-15T09:24:47Z</time>
      </trkpt>
      <trkpt lat="45.41072" lon="2.94571">
        <ele>1231.11</ele>
        <time>2021-08-15T09:24:59Z</time>
      </trkpt>
      <trkpt lat="45.4106" lon="2.94561">
        <ele>1233.03</ele>
        <time>2021-08-15T09:25:11Z</time>
      </trkpt>
      <trkpt lat="45.41058" lon="2.94559">
        <ele>1233.03</ele>
        <time>2021-08-15T09:25:17Z</time>
      </trkpt>
      <trkpt lat="45.41049" lon="2.94552">
        <ele>1233.99</ele>
        <time>2021-08-15T09:25:24Z</time>
      </trkpt>
      <trkpt lat="45.41033" lon="2.94542">
        <ele>1235.43</ele>
        <time>2021-08-15T09:25:33Z</time>
      </trkpt>
      <trkpt lat="45.41014" lon="2.94528">
        <ele>1235.43</ele>
        <time>2021-08-15T09:25:43Z</time>
      </trkpt>
      <trkpt lat="45.40996" lon="2.94515">
        <ele>1235.43</ele>
        <time>2021-08-15T09:25:52Z</time>
      </trkpt>
      <trkpt lat="45.40992" lon="2.94512">
        <ele>1236.39</ele>
        <time>2021-08-15T09:25:54Z</time>
      </trkpt>
      <trkpt lat="45.40978" lon="2.94503">
        <ele>1238.32</ele>
        <time>2021-08-15T09:26:01Z</time>
      </trkpt>
      <trkpt lat="45.40962" lon="2.9449">
        <ele>1239.28</ele>
        <time>2021-08-15T09:26:10Z</time>
      </trkpt>
      <trkpt lat="45.40938" lon="2.94473">
        <ele>1241.2</ele>
        <time>2021-08-15T09:26:22Z</time>
      </trkpt>
      <trkpt lat="45.40921" lon="2.94461">
        <ele>1241.68</ele>
        <time>2021-08-15T09:26:31Z</time>
      </trkpt>
      <trkpt lat="45.40898" lon="2.94445">
        <ele>1242.16</ele>
        <time>2021-08-15T09:26:40Z</time>
      </trkpt>
      <trkpt lat="45.40874" lon="2.94427">
        <ele>1242.64</ele>
        <time>2021-08-15T09:26:49Z</time>
      </trkpt>
      <trkpt lat="45.40844" lon="2.94407">
        <ele>1244.08</ele>
        <time>2021-08-15T09:27:00Z</time>
      </trkpt>
      <trkpt lat="45.40818" lon="2.94387">
        <ele>1245.04</ele>
        <time>2021-08-15T09:27:09Z</time>
      </trkpt>
      <trkpt lat="45.40798" lon="2.94372">
        <ele>1246.49</ele>
        <time>2021-08-15T09:27:19Z</time>
      </trkpt>
      <trkpt lat="45.40779" lon="2.94359">
        <ele>1247.45</ele>
        <time>2021-08-15T09:27:29Z</time>
      </trkpt>
      <trkpt lat="45.4076" lon="2.94345">
        <ele>1248.41</ele>
        <time>2021-08-15T09:27:39Z</time>
      </trkpt>
      <trkpt lat="45.40746" lon="2.94333">
        <ele>1249.37</ele>
        <time>2021-08-15T09:27:46Z</time>
      </trkpt>
      <trkpt lat="45.40731" lon="2.94324">
        <ele>1251.29</ele>
        <time>2021-08-15T09:27:55Z</time>
      </trkpt>
      <trkpt lat="45.40717" lon="2.94312">
        <ele>1252.74</ele>
        <time>2021-08-15T09:28:05Z</time>
      </trkpt>
      <trkpt lat="45.40716" lon="2.94312">
        <ele>1252.74</ele>
        <time>2021-08-15T09:28:06Z</time>
      </trkpt>
      <trkpt lat="45.40715" lon="2.94311">
        <ele>1253.22</ele>
        <time>2021-08-15T09:28:07Z</time>
      </trkpt>
      <trkpt lat="45.40702" lon="2.94302">
        <ele>1254.66</ele>
        <time>2021-08-15T09:28:17Z</time>
      </trkpt>
      <trkpt lat="45.4069" lon="2.94294">
        <ele>1255.62</ele>
        <time>2021-08-15T09:28:26Z</time>
      </trkpt>
      <trkpt lat="45.4068" lon="2.94286">
        <ele>1257.06</ele>
        <time>2021-08-15T09:28:34Z</time>
      </trkpt>
      <trkpt lat="45.40668" lon="2.94278">
        <ele>1258.5</ele>
        <time>2021-08-15T09:28:43Z</time>
      </trkpt>
      <trkpt lat="45.4065" lon="2.94265">
        <ele>1259.46</ele>
        <time>2021-08-15T09:28:53Z</time>
      </trkpt>
      <trkpt lat="45.40627" lon="2.94249">
        <ele>1260.43</ele>
        <time>2021-08-15T09:29:02Z</time>
      </trkpt>
      <trkpt lat="45.40608" lon="2.94236">
        <ele>1261.39</ele>
        <time>2021-08-15T09:29:09Z</time>
      </trkpt>
      <trkpt lat="45.4059" lon="2.94224">
        <ele>1262.83</ele>
        <time>2021-08-15T09:29:16Z</time>
      </trkpt>
      <trkpt lat="45.40568" lon="2.94206">
        <ele>1263.79</ele>
        <time>2021-08-15T09:29:24Z</time>
      </trkpt>
      <trkpt lat="45.40535" lon="2.94182">
        <ele>1263.79</ele>
        <time>2021-08-15T09:29:34Z</time>
      </trkpt>
      <trkpt lat="45.40517" lon="2.94168">
        <ele>1262.35</ele>
        <time>2021-08-15T09:29:39Z</time>
      </trkpt>
      <trkpt lat="45.40505" lon="2.94166">
        <ele>1261.87</ele>
        <time>2021-08-15T09:29:44Z</time>
      </trkpt>
      <trkpt lat="45.40503" lon="2.94163">
        <ele>1261.39</ele>
        <time>2021-08-15T09:29:49Z</time>
      </trkpt>
      <trkpt lat="45.40502" lon="2.94161">
        <ele>1261.39</ele>
        <time>2021-08-15T09:29:56Z</time>
      </trkpt>
      <trkpt lat="45.40502" lon="2.94161">
        <ele>1262.83</ele>
        <time>2021-08-15T09:30:02Z</time>
      </trkpt>
      <trkpt lat="45.40502" lon="2.94159">
        <ele>1262.83</ele>
        <time>2021-08-15T09:30:05Z</time>
      </trkpt>
      <trkpt lat="45.40503" lon="2.94158">
        <ele>1262.83</ele>
        <time>2021-08-15T09:30:12Z</time>
      </trkpt>
      <trkpt lat="45.40501" lon="2.94158">
        <ele>1264.27</ele>
        <time>2021-08-15T09:30:19Z</time>
      </trkpt>
      <trkpt lat="45.40501" lon="2.94158">
        <ele>1264.27</ele>
        <time>2021-08-15T09:30:26Z</time>
      </trkpt>
      <trkpt lat="45.40501" lon="2.94157">
        <ele>1262.83</ele>
        <time>2021-08-15T09:30:44Z</time>
      </trkpt>
      <trkpt lat="45.405" lon="2.94158">
        <ele>1262.83</ele>
        <time>2021-08-15T09:30:47Z</time>
      </trkpt>
      <trkpt lat="45.40498" lon="2.94158">
        <ele>1262.35</ele>
        <time>2021-08-15T09:30:48Z</time>
      </trkpt>
      <trkpt lat="45.40495" lon="2.9416">
        <ele>1262.35</ele>
        <time>2021-08-15T09:30:53Z</time>
      </trkpt>
      <trkpt lat="45.40483" lon="2.94171">
        <ele>1261.39</ele>
        <time>2021-08-15T09:30:58Z</time>
      </trkpt>
      <trkpt lat="45.40462" lon="2.94193">
        <ele>1259.46</ele>
        <time>2021-08-15T09:31:03Z</time>
      </trkpt>
      <trkpt lat="45.40453" lon="2.94203">
        <ele>1257.54</ele>
        <time>2021-08-15T09:31:05Z</time>
      </trkpt>
      <trkpt lat="45.40449" lon="2.9421">
        <ele>1257.54</ele>
        <time>2021-08-15T09:31:06Z</time>
      </trkpt>
      <trkpt lat="45.40439" lon="2.94224">
        <ele>1253.7</ele>
        <time>2021-08-15T09:31:08Z</time>
      </trkpt>
      <trkpt lat="45.40433" lon="2.94232">
        <ele>1253.7</ele>
        <time>2021-08-15T09:31:09Z</time>
      </trkpt>
      <trkpt lat="45.40411" lon="2.94263">
        <ele>1250.81</ele>
        <time>2021-08-15T09:31:13Z</time>
      </trkpt>
      <trkpt lat="45.40388" lon="2.94293">
        <ele>1246.97</ele>
        <time>2021-08-15T09:31:17Z</time>
      </trkpt>
      <trkpt lat="45.40378" lon="2.94307">
        <ele>1245.53</ele>
        <time>2021-08-15T09:31:19Z</time>
      </trkpt>
      <trkpt lat="45.40373" lon="2.94312">
        <ele>1244.56</ele>
        <time>2021-08-15T09:31:20Z</time>
      </trkpt>
      <trkpt lat="45.40368" lon="2.94315">
        <ele>1244.56</ele>
        <time>2021-08-15T09:31:21Z</time>
      </trkpt>
      <trkpt lat="45.40361" lon="2.94315">
        <ele>1243.12</ele>
        <time>2021-08-15T09:31:22Z</time>
      </trkpt>
      <trkpt lat="45.40357" lon="2.94313">
        <ele>1243.12</ele>
        <time>2021-08-15T09:31:23Z</time>
      </trkpt>
      <trkpt lat="45.40352" lon="2.94307">
        <ele>1243.12</ele>
        <time>2021-08-15T09:31:24Z</time>
      </trkpt>
      <trkpt lat="45.40349" lon="2.94302">
        <ele>1242.16</ele>
        <time>2021-08-15T09:31:25Z</time>
      </trkpt>
      <trkpt lat="45.40346" lon="2.94296">
        <ele>1243.12</ele>
        <time>2021-08-15T09:31:26Z</time>
      </trkpt>
      <trkpt lat="45.40344" lon="2.9429">
        <ele>1243.6</ele>
        <time>2021-08-15T09:31:27Z</time>
      </trkpt>
      <trkpt lat="45.40322" lon="2.94236">
        <ele>1244.08</ele>
        <time>2021-08-15T09:31:36Z</time>
      </trkpt>
      <trkpt lat="45.40298" lon="2.94178">
        <ele>1244.56</ele>
        <time>2021-08-15T09:31:46Z</time>
      </trkpt>
      <trkpt lat="45.40271" lon="2.94116">
        <ele>1244.56</ele>
        <time>2021-08-15T09:31:57Z</time>
      </trkpt>
      <trkpt lat="45.40254" lon="2.94073">
        <ele>1244.56</ele>
        <time>2021-08-15T09:32:05Z</time>
      </trkpt>
      <trkpt lat="45.40246" lon="2.94049">
        <ele>1242.64</ele>
        <time>2021-08-15T09:32:09Z</time>
      </trkpt>
      <trkpt lat="45.4023" lon="2.94003">
        <ele>1241.2</ele>
        <time>2021-08-15T09:32:15Z</time>
      </trkpt>
      <trkpt lat="45.40219" lon="2.93975">
        <ele>1239.28</ele>
        <time>2021-08-15T09:32:18Z</time>
      </trkpt>
      <trkpt lat="45.40207" lon="2.93945">
        <ele>1237.35</ele>
        <time>2021-08-15T09:32:21Z</time>
      </trkpt>
      <trkpt lat="45.4019" lon="2.939">
        <ele>1236.87</ele>
        <time>2021-08-15T09:32:26Z</time>
      </trkpt>
      <trkpt lat="45.40187" lon="2.93895">
        <ele>1236.87</ele>
        <time>2021-08-15T09:32:27Z</time>
      </trkpt>
      <trkpt lat="45.40184" lon="2.93889">
        <ele>1235.91</ele>
        <time>2021-08-15T09:32:28Z</time>
      </trkpt>
      <trkpt lat="45.40182" lon="2.93884">
        <ele>1235.91</ele>
        <time>2021-08-15T09:32:29Z</time>
      </trkpt>
      <trkpt lat="45.40181" lon="2.93877">
        <ele>1234.95</ele>
        <time>2021-08-15T09:32:30Z</time>
      </trkpt>
      <trkpt lat="45.40179" lon="2.93871">
        <ele>1234.47</ele>
        <time>2021-08-15T09:32:31Z</time>
      </trkpt>
      <trkpt lat="45.40178" lon="2.93866">
        <ele>1233.99</ele>
        <time>2021-08-15T09:32:32Z</time>
      </trkpt>
      <trkpt lat="45.40176" lon="2.93861">
        <ele>1234.47</ele>
        <time>2021-08-15T09:32:33Z</time>
      </trkpt>
      <trkpt lat="45.40163" lon="2.93836">
        <ele>1234.47</ele>
        <time>2021-08-15T09:32:39Z</time>
      </trkpt>
      <trkpt lat="45.40157" lon="2.93822">
        <ele>1233.51</ele>
        <time>2021-08-15T09:32:42Z</time>
      </trkpt>
      <trkpt lat="45.40156" lon="2.93814">
        <ele>1233.51</ele>
        <time>2021-08-15T09:32:43Z</time>
      </trkpt>
      <trkpt lat="45.4015" lon="2.93778">
        <ele>1230.62</ele>
        <time>2021-08-15T09:32:47Z</time>
      </trkpt>
      <trkpt lat="45.40148" lon="2.93769">
        <ele>1230.62</ele>
        <time>2021-08-15T09:32:48Z</time>
      </trkpt>
      <trkpt lat="45.40144" lon="2.9375">
        <ele>1228.7</ele>
        <time>2021-08-15T09:32:50Z</time>
      </trkpt>
      <trkpt lat="45.40142" lon="2.93739">
        <ele>1227.26</ele>
        <time>2021-08-15T09:32:51Z</time>
      </trkpt>
      <trkpt lat="45.40137" lon="2.93706">
        <ele>1225.82</ele>
        <time>2021-08-15T09:32:54Z</time>
      </trkpt>
      <trkpt lat="45.4013" lon="2.93672">
        <ele>1221.97</ele>
        <time>2021-08-15T09:32:58Z</time>
      </trkpt>
      <trkpt lat="45.40125" lon="2.93652">
        <ele>1220.05</ele>
        <time>2021-08-15T09:33:01Z</time>
      </trkpt>
      <trkpt lat="45.40121" lon="2.93636">
        <ele>1220.05</ele>
        <time>2021-08-15T09:33:04Z</time>
      </trkpt>
      <trkpt lat="45.4012" lon="2.93632">
        <ele>1220.05</ele>
        <time>2021-08-15T09:33:05Z</time>
      </trkpt>
      <trkpt lat="45.4012" lon="2.93629">
        <ele>1220.05</ele>
        <time>2021-08-15T09:33:06Z</time>
      </trkpt>
      <trkpt lat="45.40118" lon="2.93623">
        <ele>1220.05</ele>
        <time>2021-08-15T09:33:08Z</time>
      </trkpt>
      <trkpt lat="45.40105" lon="2.93607">
        <ele>1220.05</ele>
        <time>2021-08-15T09:33:15Z</time>
      </trkpt>
      <trkpt lat="45.40095" lon="2.93599">
        <ele>1218.61</ele>
        <time>2021-08-15T09:33:21Z</time>
      </trkpt>
      <trkpt lat="45.40093" lon="2.93598">
        <ele>1218.13</ele>
        <time>2021-08-15T09:33:22Z</time>
      </trkpt>
      <trkpt lat="45.40089" lon="2.93601">
        <ele>1217.17</ele>
        <time>2021-08-15T09:33:25Z</time>
      </trkpt>
      <trkpt lat="45.40087" lon="2.93602">
        <ele>1216.21</ele>
        <time>2021-08-15T09:33:26Z</time>
      </trkpt>
      <trkpt lat="45.40085" lon="2.93602">
        <ele>1215.72</ele>
        <time>2021-08-15T09:33:27Z</time>
      </trkpt>
      <trkpt lat="45.40082" lon="2.93602">
        <ele>1215.72</ele>
        <time>2021-08-15T09:33:28Z</time>
      </trkpt>
      <trkpt lat="45.40079" lon="2.93602">
        <ele>1215.72</ele>
        <time>2021-08-15T09:33:29Z</time>
      </trkpt>
      <trkpt lat="45.40077" lon="2.93601">
        <ele>1215.72</ele>
        <time>2021-08-15T09:33:30Z</time>
      </trkpt>
      <trkpt lat="45.40074" lon="2.93599">
        <ele>1215.72</ele>
        <time>2021-08-15T09:33:31Z</time>
      </trkpt>
      <trkpt lat="45.40072" lon="2.93598">
        <ele>1214.76</ele>
        <time>2021-08-15T09:33:32Z</time>
      </trkpt>
      <trkpt lat="45.4007" lon="2.93596">
        <ele>1214.76</ele>
        <time>2021-08-15T09:33:33Z</time>
      </trkpt>
      <trkpt lat="45.40069" lon="2.93593">
        <ele>1213.8</ele>
        <time>2021-08-15T09:33:34Z</time>
      </trkpt>
      <trkpt lat="45.40068" lon="2.93591">
        <ele>1213.8</ele>
        <time>2021-08-15T09:33:35Z</time>
      </trkpt>
      <trkpt lat="45.40061" lon="2.93581">
        <ele>1212.36</ele>
        <time>2021-08-15T09:33:41Z</time>
      </trkpt>
      <trkpt lat="45.4006" lon="2.93575">
        <ele>1209.96</ele>
        <time>2021-08-15T09:33:43Z</time>
      </trkpt>
      <trkpt lat="45.40057" lon="2.93572">
        <ele>1209.48</ele>
        <time>2021-08-15T09:33:44Z</time>
      </trkpt>
      <trkpt lat="45.40054" lon="2.93569">
        <ele>1208.51</ele>
        <time>2021-08-15T09:33:45Z</time>
      </trkpt>
      <trkpt lat="45.4005" lon="2.93567">
        <ele>1207.55</ele>
        <time>2021-08-15T09:33:46Z</time>
      </trkpt>
      <trkpt lat="45.40046" lon="2.93566">
        <ele>1207.07</ele>
        <time>2021-08-15T09:33:47Z</time>
      </trkpt>
      <trkpt lat="45.40041" lon="2.93566">
        <ele>1206.59</ele>
        <time>2021-08-15T09:33:48Z</time>
      </trkpt>
      <trkpt lat="45.40036" lon="2.93566">
        <ele>1206.11</ele>
        <time>2021-08-15T09:33:49Z</time>
      </trkpt>
      <trkpt lat="45.40032" lon="2.93566">
        <ele>1205.15</ele>
        <time>2021-08-15T09:33:50Z</time>
      </trkpt>
      <trkpt lat="45.40028" lon="2.93564">
        <ele>1205.15</ele>
        <time>2021-08-15T09:33:51Z</time>
      </trkpt>
      <trkpt lat="45.40025" lon="2.93559">
        <ele>1204.67</ele>
        <time>2021-08-15T09:33:52Z</time>
      </trkpt>
      <trkpt lat="45.40024" lon="2.93554">
        <ele>1204.67</ele>
        <time>2021-08-15T09:33:53Z</time>
      </trkpt>
      <trkpt lat="45.40022" lon="2.93547">
        <ele>1204.19</ele>
        <time>2021-08-15T09:33:54Z</time>
      </trkpt>
      <trkpt lat="45.40022" lon="2.93541">
        <ele>1203.71</ele>
        <time>2021-08-15T09:33:55Z</time>
      </trkpt>
      <trkpt lat="45.40021" lon="2.93536">
        <ele>1203.23</ele>
        <time>2021-08-15T09:33:56Z</time>
      </trkpt>
      <trkpt lat="45.40019" lon="2.93527">
        <ele>1202.75</ele>
        <time>2021-08-15T09:33:58Z</time>
      </trkpt>
      <trkpt lat="45.40019" lon="2.93523">
        <ele>1202.27</ele>
        <time>2021-08-15T09:33:59Z</time>
      </trkpt>
      <trkpt lat="45.4002" lon="2.93518">
        <ele>1202.27</ele>
        <time>2021-08-15T09:34:00Z</time>
      </trkpt>
      <trkpt lat="45.40027" lon="2.93502">
        <ele>1200.82</ele>
        <time>2021-08-15T09:34:03Z</time>
      </trkpt>
      <trkpt lat="45.40029" lon="2.93495">
        <ele>1200.34</ele>
        <time>2021-08-15T09:34:04Z</time>
      </trkpt>
      <trkpt lat="45.4003" lon="2.93487">
        <ele>1200.34</ele>
        <time>2021-08-15T09:34:05Z</time>
      </trkpt>
      <trkpt lat="45.40031" lon="2.93471">
        <ele>1199.38</ele>
        <time>2021-08-15T09:34:07Z</time>
      </trkpt>
      <trkpt lat="45.40031" lon="2.93461">
        <ele>1199.38</ele>
        <time>2021-08-15T09:34:08Z</time>
      </trkpt>
      <trkpt lat="45.4003" lon="2.93453">
        <ele>1198.42</ele>
        <time>2021-08-15T09:34:09Z</time>
      </trkpt>
      <trkpt lat="45.40027" lon="2.93446">
        <ele>1198.42</ele>
        <time>2021-08-15T09:34:10Z</time>
      </trkpt>
      <trkpt lat="45.40024" lon="2.93441">
        <ele>1198.42</ele>
        <time>2021-08-15T09:34:11Z</time>
      </trkpt>
      <trkpt lat="45.4002" lon="2.93437">
        <ele>1198.9</ele>
        <time>2021-08-15T09:34:12Z</time>
      </trkpt>
      <trkpt lat="45.40016" lon="2.93433">
        <ele>1198.9</ele>
        <time>2021-08-15T09:34:13Z</time>
      </trkpt>
      <trkpt lat="45.40011" lon="2.93428">
        <ele>1198.42</ele>
        <time>2021-08-15T09:34:14Z</time>
      </trkpt>
      <trkpt lat="45.39986" lon="2.93406">
        <ele>1199.38</ele>
        <time>2021-08-15T09:34:21Z</time>
      </trkpt>
      <trkpt lat="45.39958" lon="2.93392">
        <ele>1200.34</ele>
        <time>2021-08-15T09:34:28Z</time>
      </trkpt>
      <trkpt lat="45.39931" lon="2.93386">
        <ele>1201.79</ele>
        <time>2021-08-15T09:34:35Z</time>
      </trkpt>
      <trkpt lat="45.39908" lon="2.93382">
        <ele>1203.23</ele>
        <time>2021-08-15T09:34:42Z</time>
      </trkpt>
      <trkpt lat="45.39889" lon="2.93369">
        <ele>1204.19</ele>
        <time>2021-08-15T09:34:49Z</time>
      </trkpt>
      <trkpt lat="45.39871" lon="2.93346">
        <ele>1203.23</ele>
        <time>2021-08-15T09:34:56Z</time>
      </trkpt>
      <trkpt lat="45.39849" lon="2.93319">
        <ele>1202.27</ele>
        <time>2021-08-15T09:35:04Z</time>
      </trkpt>
      <trkpt lat="45.3984" lon="2.93306">
        <ele>1203.23</ele>
        <time>2021-08-15T09:35:08Z</time>
      </trkpt>
      <trkpt lat="45.39829" lon="2.93293">
        <ele>1204.19</ele>
        <time>2021-08-15T09:35:14Z</time>
      </trkpt>
      <trkpt lat="45.39818" lon="2.93277">
        <ele>1205.63</ele>
        <time>2021-08-15T09:35:22Z</time>
      </trkpt>
      <trkpt lat="45.398" lon="2.93254">
        <ele>1205.15</ele>
        <time>2021-08-15T09:35:31Z</time>
      </trkpt>
      <trkpt lat="45.39775" lon="2.93222">
        <ele>1205.15</ele>
        <time>2021-08-15T09:35:41Z</time>
      </trkpt>
      <trkpt lat="45.39751" lon="2.93191">
        <ele>1204.67</ele>
        <time>2021-08-15T09:35:50Z</time>
      </trkpt>
      <trkpt lat="45.39734" lon="2.93173">
        <ele>1204.67</ele>
        <time>2021-08-15T09:35:56Z</time>
      </trkpt>
      <trkpt lat="45.39727" lon="2.93167">
        <ele>1206.11</ele>
        <time>2021-08-15T09:35:59Z</time>
      </trkpt>
      <trkpt lat="45.3971" lon="2.93149">
        <ele>1207.07</ele>
        <time>2021-08-15T09:36:07Z</time>
      </trkpt>
      <trkpt lat="45.39702" lon="2.93143">
        <ele>1209</ele>
        <time>2021-08-15T09:36:13Z</time>
      </trkpt>
      <trkpt lat="45.39695" lon="2.93137">
        <ele>1210.44</ele>
        <time>2021-08-15T09:36:21Z</time>
      </trkpt>
      <trkpt lat="45.39686" lon="2.93127">
        <ele>1211.88</ele>
        <time>2021-08-15T09:36:31Z</time>
      </trkpt>
      <trkpt lat="45.39677" lon="2.93115">
        <ele>1212.36</ele>
        <time>2021-08-15T09:36:41Z</time>
      </trkpt>
      <trkpt lat="45.39666" lon="2.93105">
        <ele>1213.8</ele>
        <time>2021-08-15T09:36:51Z</time>
      </trkpt>
      <trkpt lat="45.39655" lon="2.93101">
        <ele>1214.76</ele>
        <time>2021-08-15T09:37:00Z</time>
      </trkpt>
      <trkpt lat="45.39653" lon="2.931">
        <ele>1214.76</ele>
        <time>2021-08-15T09:37:03Z</time>
      </trkpt>
      <trkpt lat="45.39651" lon="2.93099">
        <ele>1214.76</ele>
        <time>2021-08-15T09:37:04Z</time>
      </trkpt>
      <trkpt lat="45.39629" lon="2.9309">
        <ele>1215.24</ele>
        <time>2021-08-15T09:37:12Z</time>
      </trkpt>
      <trkpt lat="45.39592" lon="2.93078">
        <ele>1215.24</ele>
        <time>2021-08-15T09:37:22Z</time>
      </trkpt>
      <trkpt lat="45.39566" lon="2.93067">
        <ele>1216.21</ele>
        <time>2021-08-15T09:37:29Z</time>
      </trkpt>
      <trkpt lat="45.39542" lon="2.93049">
        <ele>1214.76</ele>
        <time>2021-08-15T09:37:36Z</time>
      </trkpt>
      <trkpt lat="45.39531" lon="2.93029">
        <ele>1214.28</ele>
        <time>2021-08-15T09:37:41Z</time>
      </trkpt>
      <trkpt lat="45.39518" lon="2.92997">
        <ele>1210.92</ele>
        <time>2021-08-15T09:37:47Z</time>
      </trkpt>
      <trkpt lat="45.39515" lon="2.9299">
        <ele>1209.48</ele>
        <time>2021-08-15T09:37:48Z</time>
      </trkpt>
      <trkpt lat="45.39511" lon="2.92985">
        <ele>1209.48</ele>
        <time>2021-08-15T09:37:49Z</time>
      </trkpt>
      <trkpt lat="45.39507" lon="2.92982">
        <ele>1209.48</ele>
        <time>2021-08-15T09:37:50Z</time>
      </trkpt>
      <trkpt lat="45.39502" lon="2.92982">
        <ele>1210.92</ele>
        <time>2021-08-15T09:37:51Z</time>
      </trkpt>
      <trkpt lat="45.39498" lon="2.92982">
        <ele>1210.92</ele>
        <time>2021-08-15T09:37:52Z</time>
      </trkpt>
      <trkpt lat="45.39495" lon="2.92981">
        <ele>1211.88</ele>
        <time>2021-08-15T09:37:53Z</time>
      </trkpt>
      <trkpt lat="45.39493" lon="2.92982">
        <ele>1212.36</ele>
        <time>2021-08-15T09:37:54Z</time>
      </trkpt>
      <trkpt lat="45.3949" lon="2.92982">
        <ele>1212.84</ele>
        <time>2021-08-15T09:37:55Z</time>
      </trkpt>
      <trkpt lat="45.39488" lon="2.92981">
        <ele>1213.8</ele>
        <time>2021-08-15T09:37:56Z</time>
      </trkpt>
      <trkpt lat="45.39486" lon="2.92981">
        <ele>1214.76</ele>
        <time>2021-08-15T09:37:57Z</time>
      </trkpt>
      <trkpt lat="45.39484" lon="2.92981">
        <ele>1214.76</ele>
        <time>2021-08-15T09:37:58Z</time>
      </trkpt>
      <trkpt lat="45.39466" lon="2.92979">
        <ele>1216.21</ele>
        <time>2021-08-15T09:38:06Z</time>
      </trkpt>
      <trkpt lat="45.39441" lon="2.92968">
        <ele>1216.21</ele>
        <time>2021-08-15T09:38:13Z</time>
      </trkpt>
      <trkpt lat="45.39421" lon="2.92958">
        <ele>1216.21</ele>
        <time>2021-08-15T09:38:20Z</time>
      </trkpt>
      <trkpt lat="45.39393" lon="2.92945">
        <ele>1217.17</ele>
        <time>2021-08-15T09:38:30Z</time>
      </trkpt>
      <trkpt lat="45.39383" lon="2.92951">
        <ele>1217.17</ele>
        <time>2021-08-15T09:38:35Z</time>
      </trkpt>
      <trkpt lat="45.39384" lon="2.92954">
        <ele>1217.17</ele>
        <time>2021-08-15T09:38:36Z</time>
      </trkpt>
      <trkpt lat="45.39385" lon="2.92956">
        <ele>1217.17</ele>
        <time>2021-08-15T09:38:37Z</time>
      </trkpt>
      <trkpt lat="45.39387" lon="2.92959">
        <ele>1217.65</ele>
        <time>2021-08-15T09:38:38Z</time>
      </trkpt>
      <trkpt lat="45.39389" lon="2.92962">
        <ele>1217.65</ele>
        <time>2021-08-15T09:38:39Z</time>
      </trkpt>
      <trkpt lat="45.39391" lon="2.92965">
        <ele>1217.65</ele>
        <time>2021-08-15T09:38:40Z</time>
      </trkpt>
      <trkpt lat="45.39393" lon="2.92967">
        <ele>1217.65</ele>
        <time>2021-08-15T09:38:41Z</time>
      </trkpt>
      <trkpt lat="45.39396" lon="2.9297">
        <ele>1218.13</ele>
        <time>2021-08-15T09:38:42Z</time>
      </trkpt>
      <trkpt lat="45.39398" lon="2.92974">
        <ele>1218.13</ele>
        <time>2021-08-15T09:38:43Z</time>
      </trkpt>
      <trkpt lat="45.39417" lon="2.93002">
        <ele>1218.61</ele>
        <time>2021-08-15T09:38:51Z</time>
      </trkpt>
      <trkpt lat="45.39446" lon="2.93053">
        <ele>1220.53</ele>
        <time>2021-08-15T09:39:04Z</time>
      </trkpt>
      <trkpt lat="45.39474" lon="2.93104">
        <ele>1221.97</ele>
        <time>2021-08-15T09:39:16Z</time>
      </trkpt>
      <trkpt lat="45.39495" lon="2.93152">
        <ele>1222.45</ele>
        <time>2021-08-15T09:39:25Z</time>
      </trkpt>
      <trkpt lat="45.39502" lon="2.93188">
        <ele>1222.45</ele>
        <time>2021-08-15T09:39:30Z</time>
      </trkpt>
      <trkpt lat="45.39505" lon="2.93197">
        <ele>1221.49</ele>
        <time>2021-08-15T09:39:31Z</time>
      </trkpt>
      <trkpt lat="45.39508" lon="2.93203">
        <ele>1221.01</ele>
        <time>2021-08-15T09:39:32Z</time>
      </trkpt>
      <trkpt lat="45.39518" lon="2.93225">
        <ele>1221.01</ele>
        <time>2021-08-15T09:39:35Z</time>
      </trkpt>
      <trkpt lat="45.39537" lon="2.93279">
        <ele>1220.05</ele>
        <time>2021-08-15T09:39:41Z</time>
      </trkpt>
      <trkpt lat="45.39539" lon="2.93291">
        <ele>1220.05</ele>
        <time>2021-08-15T09:39:42Z</time>
      </trkpt>
      <trkpt lat="45.3954" lon="2.933">
        <ele>1220.05</ele>
        <time>2021-08-15T09:39:43Z</time>
      </trkpt>
      <trkpt lat="45.39541" lon="2.9331">
        <ele>1219.57</ele>
        <time>2021-08-15T09:39:44Z</time>
      </trkpt>
      <trkpt lat="45.39541" lon="2.93321">
        <ele>1219.57</ele>
        <time>2021-08-15T09:39:45Z</time>
      </trkpt>
      <trkpt lat="45.39544" lon="2.93344">
        <ele>1219.09</ele>
        <time>2021-08-15T09:39:47Z</time>
      </trkpt>
      <trkpt lat="45.39557" lon="2.93426">
        <ele>1218.13</ele>
        <time>2021-08-15T09:39:54Z</time>
      </trkpt>
      <trkpt lat="45.39552" lon="2.93504">
        <ele>1215.72</ele>
        <time>2021-08-15T09:40:00Z</time>
      </trkpt>
      <trkpt lat="45.39551" lon="2.9353">
        <ele>1215.72</ele>
        <time>2021-08-15T09:40:02Z</time>
      </trkpt>
      <trkpt lat="45.39552" lon="2.93543">
        <ele>1215.72</ele>
        <time>2021-08-15T09:40:03Z</time>
      </trkpt>
      <trkpt lat="45.39554" lon="2.93556">
        <ele>1215.72</ele>
        <time>2021-08-15T09:40:04Z</time>
      </trkpt>
      <trkpt lat="45.39561" lon="2.93592">
        <ele>1215.72</ele>
        <time>2021-08-15T09:40:07Z</time>
      </trkpt>
      <trkpt lat="45.39561" lon="2.93605">
        <ele>1216.69</ele>
        <time>2021-08-15T09:40:08Z</time>
      </trkpt>
      <trkpt lat="45.39561" lon="2.93617">
        <ele>1216.69</ele>
        <time>2021-08-15T09:40:09Z</time>
      </trkpt>
      <trkpt lat="45.3956" lon="2.93688">
        <ele>1217.17</ele>
        <time>2021-08-15T09:40:15Z</time>
      </trkpt>
      <trkpt lat="45.39562" lon="2.937">
        <ele>1217.17</ele>
        <time>2021-08-15T09:40:16Z</time>
      </trkpt>
      <trkpt lat="45.39565" lon="2.9371">
        <ele>1217.17</ele>
        <time>2021-08-15T09:40:17Z</time>
      </trkpt>
      <trkpt lat="45.3957" lon="2.9372">
        <ele>1217.17</ele>
        <time>2021-08-15T09:40:18Z</time>
      </trkpt>
      <trkpt lat="45.39575" lon="2.93729">
        <ele>1217.65</ele>
        <time>2021-08-15T09:40:19Z</time>
      </trkpt>
      <trkpt lat="45.39579" lon="2.93738">
        <ele>1217.65</ele>
        <time>2021-08-15T09:40:20Z</time>
      </trkpt>
      <trkpt lat="45.39608" lon="2.93804">
        <ele>1217.65</ele>
        <time>2021-08-15T09:40:27Z</time>
      </trkpt>
      <trkpt lat="45.39638" lon="2.93865">
        <ele>1218.61</ele>
        <time>2021-08-15T09:40:34Z</time>
      </trkpt>
      <trkpt lat="45.39654" lon="2.93921">
        <ele>1219.09</ele>
        <time>2021-08-15T09:40:40Z</time>
      </trkpt>
      <trkpt lat="45.39682" lon="2.93991">
        <ele>1219.57</ele>
        <time>2021-08-15T09:40:48Z</time>
      </trkpt>
      <trkpt lat="45.39697" lon="2.94023">
        <ele>1220.05</ele>
        <time>2021-08-15T09:40:52Z</time>
      </trkpt>
      <trkpt lat="45.39701" lon="2.94032">
        <ele>1220.05</ele>
        <time>2021-08-15T09:40:53Z</time>
      </trkpt>
      <trkpt lat="45.39729" lon="2.94098">
        <ele>1221.01</ele>
        <time>2021-08-15T09:41:01Z</time>
      </trkpt>
      <trkpt lat="45.39756" lon="2.94173">
        <ele>1221.49</ele>
        <time>2021-08-15T09:41:10Z</time>
      </trkpt>
      <trkpt lat="45.39757" lon="2.94183">
        <ele>1221.49</ele>
        <time>2021-08-15T09:41:11Z</time>
      </trkpt>
      <trkpt lat="45.39758" lon="2.94192">
        <ele>1221.49</ele>
        <time>2021-08-15T09:41:12Z</time>
      </trkpt>
      <trkpt lat="45.39758" lon="2.94201">
        <ele>1221.49</ele>
        <time>2021-08-15T09:41:13Z</time>
      </trkpt>
      <trkpt lat="45.39757" lon="2.94211">
        <ele>1221.49</ele>
        <time>2021-08-15T09:41:14Z</time>
      </trkpt>
      <trkpt lat="45.39756" lon="2.9422">
        <ele>1221.49</ele>
        <time>2021-08-15T09:41:15Z</time>
      </trkpt>
      <trkpt lat="45.39754" lon="2.94228">
        <ele>1221.49</ele>
        <time>2021-08-15T09:41:16Z</time>
      </trkpt>
      <trkpt lat="45.39752" lon="2.94237">
        <ele>1221.49</ele>
        <time>2021-08-15T09:41:17Z</time>
      </trkpt>
      <trkpt lat="45.39749" lon="2.94246">
        <ele>1221.49</ele>
        <time>2021-08-15T09:41:18Z</time>
      </trkpt>
      <trkpt lat="45.39744" lon="2.94264">
        <ele>1221.49</ele>
        <time>2021-08-15T09:41:20Z</time>
      </trkpt>
      <trkpt lat="45.39743" lon="2.94273">
        <ele>1221.49</ele>
        <time>2021-08-15T09:41:21Z</time>
      </trkpt>
      <trkpt lat="45.39743" lon="2.94282">
        <ele>1221.49</ele>
        <time>2021-08-15T09:41:22Z</time>
      </trkpt>
      <trkpt lat="45.39743" lon="2.94291">
        <ele>1221.49</ele>
        <time>2021-08-15T09:41:23Z</time>
      </trkpt>
      <trkpt lat="45.39745" lon="2.94301">
        <ele>1221.49</ele>
        <time>2021-08-15T09:41:24Z</time>
      </trkpt>
      <trkpt lat="45.39747" lon="2.9431">
        <ele>1221.49</ele>
        <time>2021-08-15T09:41:25Z</time>
      </trkpt>
      <trkpt lat="45.3975" lon="2.94318">
        <ele>1221.49</ele>
        <time>2021-08-15T09:41:26Z</time>
      </trkpt>
      <trkpt lat="45.39755" lon="2.94336">
        <ele>1221.49</ele>
        <time>2021-08-15T09:41:28Z</time>
      </trkpt>
      <trkpt lat="45.39756" lon="2.94345">
        <ele>1221.49</ele>
        <time>2021-08-15T09:41:29Z</time>
      </trkpt>
      <trkpt lat="45.39756" lon="2.94355">
        <ele>1221.49</ele>
        <time>2021-08-15T09:41:30Z</time>
      </trkpt>
      <trkpt lat="45.39754" lon="2.94364">
        <ele>1221.49</ele>
        <time>2021-08-15T09:41:31Z</time>
      </trkpt>
      <trkpt lat="45.39751" lon="2.94373">
        <ele>1221.49</ele>
        <time>2021-08-15T09:41:32Z</time>
      </trkpt>
      <trkpt lat="45.39747" lon="2.9438">
        <ele>1221.49</ele>
        <time>2021-08-15T09:41:33Z</time>
      </trkpt>
      <trkpt lat="45.39742" lon="2.94387">
        <ele>1221.49</ele>
        <time>2021-08-15T09:41:34Z</time>
      </trkpt>
      <trkpt lat="45.39687" lon="2.94469">
        <ele>1220.53</ele>
        <time>2021-08-15T09:41:45Z</time>
      </trkpt>
      <trkpt lat="45.39684" lon="2.94479">
        <ele>1220.53</ele>
        <time>2021-08-15T09:41:46Z</time>
      </trkpt>
      <trkpt lat="45.39683" lon="2.94489">
        <ele>1220.53</ele>
        <time>2021-08-15T09:41:47Z</time>
      </trkpt>
      <trkpt lat="45.39684" lon="2.94499">
        <ele>1220.53</ele>
        <time>2021-08-15T09:41:48Z</time>
      </trkpt>
      <trkpt lat="45.39686" lon="2.9451">
        <ele>1220.53</ele>
        <time>2021-08-15T09:41:49Z</time>
      </trkpt>
      <trkpt lat="45.39689" lon="2.9452">
        <ele>1220.53</ele>
        <time>2021-08-15T09:41:50Z</time>
      </trkpt>
      <trkpt lat="45.39693" lon="2.94529">
        <ele>1220.05</ele>
        <time>2021-08-15T09:41:51Z</time>
      </trkpt>
      <trkpt lat="45.39698" lon="2.94538">
        <ele>1220.05</ele>
        <time>2021-08-15T09:41:52Z</time>
      </trkpt>
      <trkpt lat="45.39726" lon="2.94601">
        <ele>1220.05</ele>
        <time>2021-08-15T09:41:59Z</time>
      </trkpt>
      <trkpt lat="45.39749" lon="2.94657">
        <ele>1221.49</ele>
        <time>2021-08-15T09:42:05Z</time>
      </trkpt>
      <trkpt lat="45.39751" lon="2.94667">
        <ele>1221.01</ele>
        <time>2021-08-15T09:42:06Z</time>
      </trkpt>
      <trkpt lat="45.39752" lon="2.94677">
        <ele>1221.01</ele>
        <time>2021-08-15T09:42:07Z</time>
      </trkpt>
      <trkpt lat="45.39752" lon="2.94687">
        <ele>1221.01</ele>
        <time>2021-08-15T09:42:08Z</time>
      </trkpt>
      <trkpt lat="45.39751" lon="2.94697">
        <ele>1221.01</ele>
        <time>2021-08-15T09:42:09Z</time>
      </trkpt>
      <trkpt lat="45.39749" lon="2.94706">
        <ele>1221.01</ele>
        <time>2021-08-15T09:42:10Z</time>
      </trkpt>
      <trkpt lat="45.39739" lon="2.94763">
        <ele>1221.97</ele>
        <time>2021-08-15T09:42:16Z</time>
      </trkpt>
      <trkpt lat="45.39736" lon="2.9477">
        <ele>1221.97</ele>
        <time>2021-08-15T09:42:17Z</time>
      </trkpt>
      <trkpt lat="45.39732" lon="2.94777">
        <ele>1221.97</ele>
        <time>2021-08-15T09:42:18Z</time>
      </trkpt>
      <trkpt lat="45.39726" lon="2.94784">
        <ele>1221.97</ele>
        <time>2021-08-15T09:42:19Z</time>
      </trkpt>
      <trkpt lat="45.39721" lon="2.94789">
        <ele>1220.05</ele>
        <time>2021-08-15T09:42:20Z</time>
      </trkpt>
      <trkpt lat="45.39715" lon="2.94795">
        <ele>1220.05</ele>
        <time>2021-08-15T09:42:21Z</time>
      </trkpt>
      <trkpt lat="45.39709" lon="2.948">
        <ele>1220.05</ele>
        <time>2021-08-15T09:42:22Z</time>
      </trkpt>
      <trkpt lat="45.39678" lon="2.94831">
        <ele>1219.57</ele>
        <time>2021-08-15T09:42:27Z</time>
      </trkpt>
      <trkpt lat="45.39674" lon="2.94838">
        <ele>1219.57</ele>
        <time>2021-08-15T09:42:28Z</time>
      </trkpt>
      <trkpt lat="45.3967" lon="2.94848">
        <ele>1219.57</ele>
        <time>2021-08-15T09:42:29Z</time>
      </trkpt>
      <trkpt lat="45.39656" lon="2.94897">
        <ele>1221.01</ele>
        <time>2021-08-15T09:42:34Z</time>
      </trkpt>
      <trkpt lat="45.39652" lon="2.94906">
        <ele>1221.01</ele>
        <time>2021-08-15T09:42:35Z</time>
      </trkpt>
      <trkpt lat="45.39646" lon="2.94913">
        <ele>1221.01</ele>
        <time>2021-08-15T09:42:36Z</time>
      </trkpt>
      <trkpt lat="45.39638" lon="2.94918">
        <ele>1219.57</ele>
        <time>2021-08-15T09:42:37Z</time>
      </trkpt>
      <trkpt lat="45.39631" lon="2.94921">
        <ele>1218.61</ele>
        <time>2021-08-15T09:42:38Z</time>
      </trkpt>
      <trkpt lat="45.39622" lon="2.94921">
        <ele>1218.13</ele>
        <time>2021-08-15T09:42:39Z</time>
      </trkpt>
      <trkpt lat="45.39615" lon="2.94921">
        <ele>1217.65</ele>
        <time>2021-08-15T09:42:40Z</time>
      </trkpt>
      <trkpt lat="45.39607" lon="2.94922">
        <ele>1217.65</ele>
        <time>2021-08-15T09:42:41Z</time>
      </trkpt>
      <trkpt lat="45.39599" lon="2.94925">
        <ele>1217.65</ele>
        <time>2021-08-15T09:42:42Z</time>
      </trkpt>
      <trkpt lat="45.39594" lon="2.94931">
        <ele>1220.05</ele>
        <time>2021-08-15T09:42:43Z</time>
      </trkpt>
      <trkpt lat="45.39589" lon="2.9494">
        <ele>1221.01</ele>
        <time>2021-08-15T09:42:44Z</time>
      </trkpt>
      <trkpt lat="45.39587" lon="2.94948">
        <ele>1221.01</ele>
        <time>2021-08-15T09:42:45Z</time>
      </trkpt>
      <trkpt lat="45.39585" lon="2.94959">
        <ele>1221.01</ele>
        <time>2021-08-15T09:42:46Z</time>
      </trkpt>
      <trkpt lat="45.39584" lon="2.94968">
        <ele>1221.01</ele>
        <time>2021-08-15T09:42:47Z</time>
      </trkpt>
      <trkpt lat="45.39581" lon="2.94996">
        <ele>1221.01</ele>
        <time>2021-08-15T09:42:50Z</time>
      </trkpt>
      <trkpt lat="45.39579" lon="2.95004">
        <ele>1221.01</ele>
        <time>2021-08-15T09:42:51Z</time>
      </trkpt>
      <trkpt lat="45.39568" lon="2.95053">
        <ele>1221.01</ele>
        <time>2021-08-15T09:42:56Z</time>
      </trkpt>
      <trkpt lat="45.39567" lon="2.95062">
        <ele>1219.57</ele>
        <time>2021-08-15T09:42:57Z</time>
      </trkpt>
      <trkpt lat="45.39567" lon="2.95074">
        <ele>1219.57</ele>
        <time>2021-08-15T09:42:58Z</time>
      </trkpt>
      <trkpt lat="45.39568" lon="2.95084">
        <ele>1219.57</ele>
        <time>2021-08-15T09:42:59Z</time>
      </trkpt>
      <trkpt lat="45.3957" lon="2.95095">
        <ele>1219.57</ele>
        <time>2021-08-15T09:43:00Z</time>
      </trkpt>
      <trkpt lat="45.39573" lon="2.95107">
        <ele>1219.57</ele>
        <time>2021-08-15T09:43:01Z</time>
      </trkpt>
      <trkpt lat="45.39591" lon="2.95203">
        <ele>1218.13</ele>
        <time>2021-08-15T09:43:09Z</time>
      </trkpt>
      <trkpt lat="45.39609" lon="2.953">
        <ele>1216.69</ele>
        <time>2021-08-15T09:43:16Z</time>
      </trkpt>
      <trkpt lat="45.39635" lon="2.95399">
        <ele>1214.76</ele>
        <time>2021-08-15T09:43:24Z</time>
      </trkpt>
      <trkpt lat="45.39662" lon="2.95474">
        <ele>1213.8</ele>
        <time>2021-08-15T09:43:30Z</time>
      </trkpt>
      <trkpt lat="45.39678" lon="2.9551">
        <ele>1212.36</ele>
        <time>2021-08-15T09:43:33Z</time>
      </trkpt>
      <trkpt lat="45.39683" lon="2.95523">
        <ele>1212.36</ele>
        <time>2021-08-15T09:43:34Z</time>
      </trkpt>
      <trkpt lat="45.39685" lon="2.95537">
        <ele>1212.36</ele>
        <time>2021-08-15T09:43:35Z</time>
      </trkpt>
      <trkpt lat="45.39686" lon="2.95551">
        <ele>1212.36</ele>
        <time>2021-08-15T09:43:36Z</time>
      </trkpt>
      <trkpt lat="45.39684" lon="2.95565">
        <ele>1212.36</ele>
        <time>2021-08-15T09:43:37Z</time>
      </trkpt>
      <trkpt lat="45.39681" lon="2.95577">
        <ele>1211.4</ele>
        <time>2021-08-15T09:43:38Z</time>
      </trkpt>
      <trkpt lat="45.39677" lon="2.9559">
        <ele>1210.44</ele>
        <time>2021-08-15T09:43:39Z</time>
      </trkpt>
      <trkpt lat="45.39675" lon="2.95604">
        <ele>1210.44</ele>
        <time>2021-08-15T09:43:40Z</time>
      </trkpt>
      <trkpt lat="45.39674" lon="2.95616">
        <ele>1210.44</ele>
        <time>2021-08-15T09:43:41Z</time>
      </trkpt>
      <trkpt lat="45.39675" lon="2.95629">
        <ele>1210.92</ele>
        <time>2021-08-15T09:43:42Z</time>
      </trkpt>
      <trkpt lat="45.39677" lon="2.9564">
        <ele>1210.44</ele>
        <time>2021-08-15T09:43:43Z</time>
      </trkpt>
      <trkpt lat="45.39681" lon="2.95652">
        <ele>1212.36</ele>
        <time>2021-08-15T09:43:44Z</time>
      </trkpt>
      <trkpt lat="45.39684" lon="2.95661">
        <ele>1211.88</ele>
        <time>2021-08-15T09:43:45Z</time>
      </trkpt>
      <trkpt lat="45.39689" lon="2.95672">
        <ele>1213.32</ele>
        <time>2021-08-15T09:43:46Z</time>
      </trkpt>
      <trkpt lat="45.39715" lon="2.9574">
        <ele>1216.21</ele>
        <time>2021-08-15T09:43:54Z</time>
      </trkpt>
      <trkpt lat="45.39718" lon="2.95749">
        <ele>1216.21</ele>
        <time>2021-08-15T09:43:55Z</time>
      </trkpt>
      <trkpt lat="45.39719" lon="2.95757">
        <ele>1216.21</ele>
        <time>2021-08-15T09:43:56Z</time>
      </trkpt>
      <trkpt lat="45.3972" lon="2.95765">
        <ele>1216.69</ele>
        <time>2021-08-15T09:43:57Z</time>
      </trkpt>
      <trkpt lat="45.3972" lon="2.95838">
        <ele>1218.61</ele>
        <time>2021-08-15T09:44:07Z</time>
      </trkpt>
      <trkpt lat="45.3972" lon="2.95897">
        <ele>1219.57</ele>
        <time>2021-08-15T09:44:16Z</time>
      </trkpt>
      <trkpt lat="45.39721" lon="2.95911">
        <ele>1220.05</ele>
        <time>2021-08-15T09:44:18Z</time>
      </trkpt>
      <trkpt lat="45.39723" lon="2.95923">
        <ele>1220.05</ele>
        <time>2021-08-15T09:44:20Z</time>
      </trkpt>
      <trkpt lat="45.39725" lon="2.9593">
        <ele>1220.05</ele>
        <time>2021-08-15T09:44:21Z</time>
      </trkpt>
      <trkpt lat="45.39734" lon="2.95953">
        <ele>1221.97</ele>
        <time>2021-08-15T09:44:25Z</time>
      </trkpt>
      <trkpt lat="45.39737" lon="2.95958">
        <ele>1221.97</ele>
        <time>2021-08-15T09:44:26Z</time>
      </trkpt>
      <trkpt lat="45.39766" lon="2.96004">
        <ele>1221.49</ele>
        <time>2021-08-15T09:44:34Z</time>
      </trkpt>
      <trkpt lat="45.39799" lon="2.96052">
        <ele>1219.09</ele>
        <time>2021-08-15T09:44:42Z</time>
      </trkpt>
      <trkpt lat="45.39823" lon="2.96086">
        <ele>1219.09</ele>
        <time>2021-08-15T09:44:48Z</time>
      </trkpt>
      <trkpt lat="45.39825" lon="2.96093">
        <ele>1219.09</ele>
        <time>2021-08-15T09:44:49Z</time>
      </trkpt>
      <trkpt lat="45.39825" lon="2.96098">
        <ele>1219.09</ele>
        <time>2021-08-15T09:44:50Z</time>
      </trkpt>
      <trkpt lat="45.39823" lon="2.96102">
        <ele>1219.09</ele>
        <time>2021-08-15T09:44:51Z</time>
      </trkpt>
      <trkpt lat="45.3982" lon="2.96105">
        <ele>1219.09</ele>
        <time>2021-08-15T09:44:52Z</time>
      </trkpt>
      <trkpt lat="45.39817" lon="2.96106">
        <ele>1219.09</ele>
        <time>2021-08-15T09:44:53Z</time>
      </trkpt>
      <trkpt lat="45.39813" lon="2.96107">
        <ele>1219.09</ele>
        <time>2021-08-15T09:44:54Z</time>
      </trkpt>
      <trkpt lat="45.3981" lon="2.96108">
        <ele>1219.09</ele>
        <time>2021-08-15T09:44:55Z</time>
      </trkpt>
      <trkpt lat="45.39804" lon="2.96109">
        <ele>1220.53</ele>
        <time>2021-08-15T09:44:57Z</time>
      </trkpt>
      <trkpt lat="45.39797" lon="2.96111">
        <ele>1221.97</ele>
        <time>2021-08-15T09:45:00Z</time>
      </trkpt>
      <trkpt lat="45.39784" lon="2.96125">
        <ele>1223.42</ele>
        <time>2021-08-15T09:45:08Z</time>
      </trkpt>
      <trkpt lat="45.39772" lon="2.96145">
        <ele>1225.34</ele>
        <time>2021-08-15T09:45:17Z</time>
      </trkpt>
      <trkpt lat="45.39766" lon="2.96167">
        <ele>1226.3</ele>
        <time>2021-08-15T09:45:25Z</time>
      </trkpt>
      <trkpt lat="45.39757" lon="2.96206">
        <ele>1227.74</ele>
        <time>2021-08-15T09:45:37Z</time>
      </trkpt>
      <trkpt lat="45.39738" lon="2.96235">
        <ele>1227.74</ele>
        <time>2021-08-15T09:45:45Z</time>
      </trkpt>
      <trkpt lat="45.3972" lon="2.96257">
        <ele>1229.18</ele>
        <time>2021-08-15T09:45:53Z</time>
      </trkpt>
      <trkpt lat="45.39701" lon="2.96268">
        <ele>1230.62</ele>
        <time>2021-08-15T09:46:00Z</time>
      </trkpt>
      <trkpt lat="45.39687" lon="2.96263">
        <ele>1230.62</ele>
        <time>2021-08-15T09:46:04Z</time>
      </trkpt>
      <trkpt lat="45.39649" lon="2.96245">
        <ele>1230.62</ele>
        <time>2021-08-15T09:46:12Z</time>
      </trkpt>
      <trkpt lat="45.39626" lon="2.96236">
        <ele>1229.18</ele>
        <time>2021-08-15T09:46:17Z</time>
      </trkpt>
      <trkpt lat="45.39614" lon="2.96228">
        <ele>1230.14</ele>
        <time>2021-08-15T09:46:20Z</time>
      </trkpt>
      <trkpt lat="45.39611" lon="2.96224">
        <ele>1230.14</ele>
        <time>2021-08-15T09:46:21Z</time>
      </trkpt>
      <trkpt lat="45.39608" lon="2.96221">
        <ele>1231.11</ele>
        <time>2021-08-15T09:46:22Z</time>
      </trkpt>
      <trkpt lat="45.39594" lon="2.96198">
        <ele>1232.55</ele>
        <time>2021-08-15T09:46:29Z</time>
      </trkpt>
      <trkpt lat="45.39589" lon="2.96181">
        <ele>1233.99</ele>
        <time>2021-08-15T09:46:37Z</time>
      </trkpt>
      <trkpt lat="45.39582" lon="2.96166">
        <ele>1236.87</ele>
        <time>2021-08-15T09:46:46Z</time>
      </trkpt>
      <trkpt lat="45.39579" lon="2.96164">
        <ele>1237.35</ele>
        <time>2021-08-15T09:46:48Z</time>
      </trkpt>
      <trkpt lat="45.39563" lon="2.96163">
        <ele>1237.83</ele>
        <time>2021-08-15T09:46:55Z</time>
      </trkpt>
      <trkpt lat="45.39535" lon="2.96168">
        <ele>1237.83</ele>
        <time>2021-08-15T09:47:03Z</time>
      </trkpt>
      <trkpt lat="45.3951" lon="2.96172">
        <ele>1236.39</ele>
        <time>2021-08-15T09:47:09Z</time>
      </trkpt>
      <trkpt lat="45.39476" lon="2.96177">
        <ele>1233.03</ele>
        <time>2021-08-15T09:47:14Z</time>
      </trkpt>
      <trkpt lat="45.39468" lon="2.96178">
        <ele>1233.03</ele>
        <time>2021-08-15T09:47:15Z</time>
      </trkpt>
      <trkpt lat="45.39452" lon="2.9618">
        <ele>1231.59</ele>
        <time>2021-08-15T09:47:17Z</time>
      </trkpt>
      <trkpt lat="45.3942" lon="2.96185">
        <ele>1229.66</ele>
        <time>2021-08-15T09:47:21Z</time>
      </trkpt>
      <trkpt lat="45.39371" lon="2.96191">
        <ele>1231.11</ele>
        <time>2021-08-15T09:47:28Z</time>
      </trkpt>
      <trkpt lat="45.39362" lon="2.96192">
        <ele>1232.55</ele>
        <time>2021-08-15T09:47:30Z</time>
      </trkpt>
      <trkpt lat="45.39354" lon="2.96193">
        <ele>1234.47</ele>
        <time>2021-08-15T09:47:32Z</time>
      </trkpt>
      <trkpt lat="45.39326" lon="2.96198">
        <ele>1234.95</ele>
        <time>2021-08-15T09:47:39Z</time>
      </trkpt>
      <trkpt lat="45.39312" lon="2.96201">
        <ele>1233.51</ele>
        <time>2021-08-15T09:47:42Z</time>
      </trkpt>
      <trkpt lat="45.39271" lon="2.96214">
        <ele>1231.11</ele>
        <time>2021-08-15T09:47:49Z</time>
      </trkpt>
      <trkpt lat="45.39248" lon="2.96221">
        <ele>1227.74</ele>
        <time>2021-08-15T09:47:52Z</time>
      </trkpt>
      <trkpt lat="45.3922" lon="2.9623">
        <ele>1222.93</ele>
        <time>2021-08-15T09:47:55Z</time>
      </trkpt>
      <trkpt lat="45.39201" lon="2.96236">
        <ele>1221.49</ele>
        <time>2021-08-15T09:47:57Z</time>
      </trkpt>
      <trkpt lat="45.39163" lon="2.96241">
        <ele>1221.01</ele>
        <time>2021-08-15T09:48:01Z</time>
      </trkpt>
      <trkpt lat="45.39154" lon="2.9624">
        <ele>1220.53</ele>
        <time>2021-08-15T09:48:02Z</time>
      </trkpt>
      <trkpt lat="45.39137" lon="2.96237">
        <ele>1219.57</ele>
        <time>2021-08-15T09:48:04Z</time>
      </trkpt>
      <trkpt lat="45.39092" lon="2.96215">
        <ele>1219.09</ele>
        <time>2021-08-15T09:48:10Z</time>
      </trkpt>
      <trkpt lat="45.39035" lon="2.96189">
        <ele>1218.61</ele>
        <time>2021-08-15T09:48:18Z</time>
      </trkpt>
      <trkpt lat="45.38983" lon="2.96174">
        <ele>1215.24</ele>
        <time>2021-08-15T09:48:25Z</time>
      </trkpt>
      <trkpt lat="45.38954" lon="2.96161">
        <ele>1213.32</ele>
        <time>2021-08-15T09:48:29Z</time>
      </trkpt>
      <trkpt lat="45.38918" lon="2.96147">
        <ele>1210.44</ele>
        <time>2021-08-15T09:48:33Z</time>
      </trkpt>
      <trkpt lat="45.38892" lon="2.96138">
        <ele>1206.59</ele>
        <time>2021-08-15T09:48:36Z</time>
      </trkpt>
      <trkpt lat="45.38875" lon="2.96135">
        <ele>1206.11</ele>
        <time>2021-08-15T09:48:38Z</time>
      </trkpt>
      <trkpt lat="45.38868" lon="2.96135">
        <ele>1205.15</ele>
        <time>2021-08-15T09:48:39Z</time>
      </trkpt>
      <trkpt lat="45.38841" lon="2.96139">
        <ele>1202.27</ele>
        <time>2021-08-15T09:48:42Z</time>
      </trkpt>
      <trkpt lat="45.38813" lon="2.96143">
        <ele>1200.34</ele>
        <time>2021-08-15T09:48:45Z</time>
      </trkpt>
      <trkpt lat="45.38783" lon="2.9615">
        <ele>1198.9</ele>
        <time>2021-08-15T09:48:49Z</time>
      </trkpt>
      <trkpt lat="45.38776" lon="2.96154">
        <ele>1197.94</ele>
        <time>2021-08-15T09:48:50Z</time>
      </trkpt>
      <trkpt lat="45.38772" lon="2.96158">
        <ele>1197.94</ele>
        <time>2021-08-15T09:48:51Z</time>
      </trkpt>
      <trkpt lat="45.38748" lon="2.96182">
        <ele>1194.09</ele>
        <time>2021-08-15T09:48:55Z</time>
      </trkpt>
      <trkpt lat="45.38743" lon="2.96189">
        <ele>1193.61</ele>
        <time>2021-08-15T09:48:56Z</time>
      </trkpt>
      <trkpt lat="45.3874" lon="2.96197">
        <ele>1193.61</ele>
        <time>2021-08-15T09:48:57Z</time>
      </trkpt>
      <trkpt lat="45.38739" lon="2.96207">
        <ele>1192.65</ele>
        <time>2021-08-15T09:48:58Z</time>
      </trkpt>
      <trkpt lat="45.3874" lon="2.96214">
        <ele>1193.13</ele>
        <time>2021-08-15T09:48:59Z</time>
      </trkpt>
      <trkpt lat="45.38741" lon="2.96223">
        <ele>1192.65</ele>
        <time>2021-08-15T09:49:00Z</time>
      </trkpt>
      <trkpt lat="45.38747" lon="2.96263">
        <ele>1192.17</ele>
        <time>2021-08-15T09:49:04Z</time>
      </trkpt>
      <trkpt lat="45.38747" lon="2.96274">
        <ele>1191.69</ele>
        <time>2021-08-15T09:49:05Z</time>
      </trkpt>
      <trkpt lat="45.38746" lon="2.96286">
        <ele>1190.25</ele>
        <time>2021-08-15T09:49:06Z</time>
      </trkpt>
      <trkpt lat="45.38744" lon="2.96298">
        <ele>1189.29</ele>
        <time>2021-08-15T09:49:07Z</time>
      </trkpt>
      <trkpt lat="45.38742" lon="2.96312">
        <ele>1187.37</ele>
        <time>2021-08-15T09:49:08Z</time>
      </trkpt>
      <trkpt lat="45.38737" lon="2.9634">
        <ele>1184.96</ele>
        <time>2021-08-15T09:49:10Z</time>
      </trkpt>
      <trkpt lat="45.38733" lon="2.96362">
        <ele>1184.96</ele>
        <time>2021-08-15T09:49:12Z</time>
      </trkpt>
      <trkpt lat="45.38728" lon="2.9637">
        <ele>1184.96</ele>
        <time>2021-08-15T09:49:13Z</time>
      </trkpt>
      <trkpt lat="45.38722" lon="2.96377">
        <ele>1184.48</ele>
        <time>2021-08-15T09:49:14Z</time>
      </trkpt>
      <trkpt lat="45.38716" lon="2.9638">
        <ele>1183.52</ele>
        <time>2021-08-15T09:49:15Z</time>
      </trkpt>
      <trkpt lat="45.38709" lon="2.96383">
        <ele>1183.52</ele>
        <time>2021-08-15T09:49:16Z</time>
      </trkpt>
      <trkpt lat="45.38701" lon="2.96385">
        <ele>1183.04</ele>
        <time>2021-08-15T09:49:17Z</time>
      </trkpt>
      <trkpt lat="45.38657" lon="2.96398">
        <ele>1185.44</ele>
        <time>2021-08-15T09:49:23Z</time>
      </trkpt>
      <trkpt lat="45.38608" lon="2.96416">
        <ele>1185.44</ele>
        <time>2021-08-15T09:49:31Z</time>
      </trkpt>
      <trkpt lat="45.38602" lon="2.96419">
        <ele>1185.44</ele>
        <time>2021-08-15T09:49:32Z</time>
      </trkpt>
      <trkpt lat="45.38564" lon="2.96433">
        <ele>1184.96</ele>
        <time>2021-08-15T09:49:38Z</time>
      </trkpt>
      <trkpt lat="45.38557" lon="2.96433">
        <ele>1184</ele>
        <time>2021-08-15T09:49:39Z</time>
      </trkpt>
      <trkpt lat="45.38542" lon="2.96431">
        <ele>1182.56</ele>
        <time>2021-08-15T09:49:41Z</time>
      </trkpt>
      <trkpt lat="45.38535" lon="2.96428">
        <ele>1182.08</ele>
        <time>2021-08-15T09:49:42Z</time>
      </trkpt>
      <trkpt lat="45.38527" lon="2.96425">
        <ele>1181.6</ele>
        <time>2021-08-15T09:49:43Z</time>
      </trkpt>
      <trkpt lat="45.38521" lon="2.96421">
        <ele>1181.6</ele>
        <time>2021-08-15T09:49:44Z</time>
      </trkpt>
      <trkpt lat="45.38514" lon="2.96416">
        <ele>1181.12</ele>
        <time>2021-08-15T09:49:45Z</time>
      </trkpt>
      <trkpt lat="45.38507" lon="2.96412">
        <ele>1181.12</ele>
        <time>2021-08-15T09:49:46Z</time>
      </trkpt>
      <trkpt lat="45.38457" lon="2.96397">
        <ele>1181.12</ele>
        <time>2021-08-15T09:49:54Z</time>
      </trkpt>
      <trkpt lat="45.38433" lon="2.96397">
        <ele>1181.12</ele>
        <time>2021-08-15T09:49:58Z</time>
      </trkpt>
      <trkpt lat="45.38428" lon="2.96395">
        <ele>1181.12</ele>
        <time>2021-08-15T09:49:59Z</time>
      </trkpt>
      <trkpt lat="45.38423" lon="2.96391">
        <ele>1180.16</ele>
        <time>2021-08-15T09:50:00Z</time>
      </trkpt>
      <trkpt lat="45.38412" lon="2.96384">
        <ele>1179.19</ele>
        <time>2021-08-15T09:50:02Z</time>
      </trkpt>
      <trkpt lat="45.38407" lon="2.96382">
        <ele>1178.23</ele>
        <time>2021-08-15T09:50:03Z</time>
      </trkpt>
      <trkpt lat="45.38401" lon="2.96381">
        <ele>1177.27</ele>
        <time>2021-08-15T09:50:04Z</time>
      </trkpt>
      <trkpt lat="45.38396" lon="2.96382">
        <ele>1177.27</ele>
        <time>2021-08-15T09:50:05Z</time>
      </trkpt>
      <trkpt lat="45.38391" lon="2.96384">
        <ele>1177.27</ele>
        <time>2021-08-15T09:50:06Z</time>
      </trkpt>
      <trkpt lat="45.38386" lon="2.96388">
        <ele>1176.79</ele>
        <time>2021-08-15T09:50:07Z</time>
      </trkpt>
      <trkpt lat="45.38382" lon="2.96393">
        <ele>1176.79</ele>
        <time>2021-08-15T09:50:08Z</time>
      </trkpt>
      <trkpt lat="45.38377" lon="2.96399">
        <ele>1176.31</ele>
        <time>2021-08-15T09:50:09Z</time>
      </trkpt>
      <trkpt lat="45.38373" lon="2.96405">
        <ele>1176.31</ele>
        <time>2021-08-15T09:50:10Z</time>
      </trkpt>
      <trkpt lat="45.38369" lon="2.96412">
        <ele>1176.31</ele>
        <time>2021-08-15T09:50:11Z</time>
      </trkpt>
      <trkpt lat="45.38366" lon="2.96419">
        <ele>1176.31</ele>
        <time>2021-08-15T09:50:12Z</time>
      </trkpt>
      <trkpt lat="45.3836" lon="2.96433">
        <ele>1176.31</ele>
        <time>2021-08-15T09:50:14Z</time>
      </trkpt>
      <trkpt lat="45.38357" lon="2.9644">
        <ele>1176.31</ele>
        <time>2021-08-15T09:50:15Z</time>
      </trkpt>
      <trkpt lat="45.38323" lon="2.96493">
        <ele>1175.35</ele>
        <time>2021-08-15T09:50:23Z</time>
      </trkpt>
      <trkpt lat="45.38286" lon="2.96551">
        <ele>1173.43</ele>
        <time>2021-08-15T09:50:31Z</time>
      </trkpt>
      <trkpt lat="45.38247" lon="2.96626">
        <ele>1171.5</ele>
        <time>2021-08-15T09:50:40Z</time>
      </trkpt>
      <trkpt lat="45.38222" lon="2.96667">
        <ele>1170.54</ele>
        <time>2021-08-15T09:50:45Z</time>
      </trkpt>
      <trkpt lat="45.382" lon="2.967">
        <ele>1166.7</ele>
        <time>2021-08-15T09:50:49Z</time>
      </trkpt>
      <trkpt lat="45.38194" lon="2.96709">
        <ele>1166.7</ele>
        <time>2021-08-15T09:50:50Z</time>
      </trkpt>
      <trkpt lat="45.38173" lon="2.96734">
        <ele>1165.26</ele>
        <time>2021-08-15T09:50:53Z</time>
      </trkpt>
      <trkpt lat="45.38141" lon="2.96762">
        <ele>1166.7</ele>
        <time>2021-08-15T09:50:58Z</time>
      </trkpt>
      <trkpt lat="45.38128" lon="2.96768">
        <ele>1166.7</ele>
        <time>2021-08-15T09:51:00Z</time>
      </trkpt>
      <trkpt lat="45.3811" lon="2.9678">
        <ele>1164.77</ele>
        <time>2021-08-15T09:51:03Z</time>
      </trkpt>
      <trkpt lat="45.38104" lon="2.96786">
        <ele>1164.77</ele>
        <time>2021-08-15T09:51:04Z</time>
      </trkpt>
      <trkpt lat="45.38099" lon="2.96793">
        <ele>1163.81</ele>
        <time>2021-08-15T09:51:05Z</time>
      </trkpt>
      <trkpt lat="45.3806" lon="2.96859">
        <ele>1161.41</ele>
        <time>2021-08-15T09:51:13Z</time>
      </trkpt>
      <trkpt lat="45.38052" lon="2.96878">
        <ele>1159.97</ele>
        <time>2021-08-15T09:51:15Z</time>
      </trkpt>
      <trkpt lat="45.3804" lon="2.96911">
        <ele>1159.49</ele>
        <time>2021-08-15T09:51:20Z</time>
      </trkpt>
      <trkpt lat="45.38036" lon="2.96914">
        <ele>1158.05</ele>
        <time>2021-08-15T09:51:21Z</time>
      </trkpt>
      <trkpt lat="45.38032" lon="2.96916">
        <ele>1157.08</ele>
        <time>2021-08-15T09:51:22Z</time>
      </trkpt>
      <trkpt lat="45.38027" lon="2.96915">
        <ele>1157.08</ele>
        <time>2021-08-15T09:51:23Z</time>
      </trkpt>
      <trkpt lat="45.38022" lon="2.96913">
        <ele>1156.12</ele>
        <time>2021-08-15T09:51:24Z</time>
      </trkpt>
      <trkpt lat="45.38019" lon="2.96911">
        <ele>1155.64</ele>
        <time>2021-08-15T09:51:25Z</time>
      </trkpt>
      <trkpt lat="45.38015" lon="2.96908">
        <ele>1155.64</ele>
        <time>2021-08-15T09:51:26Z</time>
      </trkpt>
      <trkpt lat="45.38" lon="2.96899">
        <ele>1156.6</ele>
        <time>2021-08-15T09:51:30Z</time>
      </trkpt>
      <trkpt lat="45.37954" lon="2.96882">
        <ele>1157.08</ele>
        <time>2021-08-15T09:51:42Z</time>
      </trkpt>
      <trkpt lat="45.37935" lon="2.9688">
        <ele>1158.53</ele>
        <time>2021-08-15T09:51:47Z</time>
      </trkpt>
      <trkpt lat="45.3792" lon="2.96888">
        <ele>1159.49</ele>
        <time>2021-08-15T09:51:51Z</time>
      </trkpt>
      <trkpt lat="45.37917" lon="2.96891">
        <ele>1159.97</ele>
        <time>2021-08-15T09:51:52Z</time>
      </trkpt>
      <trkpt lat="45.37914" lon="2.96895">
        <ele>1159.97</ele>
        <time>2021-08-15T09:51:53Z</time>
      </trkpt>
      <trkpt lat="45.37911" lon="2.969">
        <ele>1160.45</ele>
        <time>2021-08-15T09:51:54Z</time>
      </trkpt>
      <trkpt lat="45.37908" lon="2.96905">
        <ele>1160.45</ele>
        <time>2021-08-15T09:51:55Z</time>
      </trkpt>
      <trkpt lat="45.37906" lon="2.9691">
        <ele>1160.45</ele>
        <time>2021-08-15T09:51:56Z</time>
      </trkpt>
      <trkpt lat="45.37886" lon="2.96964">
        <ele>1160.45</ele>
        <time>2021-08-15T09:52:06Z</time>
      </trkpt>
      <trkpt lat="45.37866" lon="2.97008">
        <ele>1163.81</ele>
        <time>2021-08-15T09:52:15Z</time>
      </trkpt>
      <trkpt lat="45.37848" lon="2.97032">
        <ele>1161.41</ele>
        <time>2021-08-15T09:52:21Z</time>
      </trkpt>
      <trkpt lat="45.37841" lon="2.9704">
        <ele>1162.85</ele>
        <time>2021-08-15T09:52:24Z</time>
      </trkpt>
      <trkpt lat="45.37828" lon="2.97054">
        <ele>1163.81</ele>
        <time>2021-08-15T09:52:31Z</time>
      </trkpt>
      <trkpt lat="45.37814" lon="2.97073">
        <ele>1164.29</ele>
        <time>2021-08-15T09:52:38Z</time>
      </trkpt>
      <trkpt lat="45.37791" lon="2.97103">
        <ele>1164.77</ele>
        <time>2021-08-15T09:52:48Z</time>
      </trkpt>
      <trkpt lat="45.37776" lon="2.97133">
        <ele>1166.7</ele>
        <time>2021-08-15T09:52:57Z</time>
      </trkpt>
      <trkpt lat="45.3777" lon="2.97158">
        <ele>1167.66</ele>
        <time>2021-08-15T09:53:05Z</time>
      </trkpt>
      <trkpt lat="45.37766" lon="2.97189">
        <ele>1169.58</ele>
        <time>2021-08-15T09:53:16Z</time>
      </trkpt>
      <trkpt lat="45.37762" lon="2.97222">
        <ele>1170.06</ele>
        <time>2021-08-15T09:53:27Z</time>
      </trkpt>
      <trkpt lat="45.37758" lon="2.97247">
        <ele>1171.5</ele>
        <time>2021-08-15T09:53:34Z</time>
      </trkpt>
      <trkpt lat="45.37754" lon="2.97276">
        <ele>1171.98</ele>
        <time>2021-08-15T09:53:41Z</time>
      </trkpt>
      <trkpt lat="45.37742" lon="2.97313">
        <ele>1173.91</ele>
        <time>2021-08-15T09:53:51Z</time>
      </trkpt>
      <trkpt lat="45.37729" lon="2.97336">
        <ele>1175.35</ele>
        <time>2021-08-15T09:53:59Z</time>
      </trkpt>
      <trkpt lat="45.37716" lon="2.97341">
        <ele>1175.83</ele>
        <time>2021-08-15T09:54:05Z</time>
      </trkpt>
      <trkpt lat="45.37696" lon="2.97331">
        <ele>1176.31</ele>
        <time>2021-08-15T09:54:12Z</time>
      </trkpt>
      <trkpt lat="45.37672" lon="2.97313">
        <ele>1176.79</ele>
        <time>2021-08-15T09:54:21Z</time>
      </trkpt>
      <trkpt lat="45.37649" lon="2.97298">
        <ele>1177.75</ele>
        <time>2021-08-15T09:54:29Z</time>
      </trkpt>
      <trkpt lat="45.37627" lon="2.97296">
        <ele>1178.71</ele>
        <time>2021-08-15T09:54:37Z</time>
      </trkpt>
      <trkpt lat="45.37603" lon="2.973">
        <ele>1180.16</ele>
        <time>2021-08-15T09:54:46Z</time>
      </trkpt>
      <trkpt lat="45.37575" lon="2.97316">
        <ele>1181.12</ele>
        <time>2021-08-15T09:54:56Z</time>
      </trkpt>
      <trkpt lat="45.37561" lon="2.97326">
        <ele>1182.56</ele>
        <time>2021-08-15T09:55:03Z</time>
      </trkpt>
      <trkpt lat="45.37547" lon="2.97337">
        <ele>1183.52</ele>
        <time>2021-08-15T09:55:12Z</time>
      </trkpt>
      <trkpt lat="45.37532" lon="2.97338">
        <ele>1184</ele>
        <time>2021-08-15T09:55:19Z</time>
      </trkpt>
      <trkpt lat="45.37516" lon="2.97326">
        <ele>1183.52</ele>
        <time>2021-08-15T09:55:24Z</time>
      </trkpt>
      <trkpt lat="45.37486" lon="2.97286">
        <ele>1183.52</ele>
        <time>2021-08-15T09:55:34Z</time>
      </trkpt>
      <trkpt lat="45.37469" lon="2.97256">
        <ele>1182.56</ele>
        <time>2021-08-15T09:55:40Z</time>
      </trkpt>
      <trkpt lat="45.37463" lon="2.97247">
        <ele>1182.56</ele>
        <time>2021-08-15T09:55:42Z</time>
      </trkpt>
      <trkpt lat="45.37459" lon="2.97242">
        <ele>1182.56</ele>
        <time>2021-08-15T09:55:43Z</time>
      </trkpt>
      <trkpt lat="45.37455" lon="2.97238">
        <ele>1181.6</ele>
        <time>2021-08-15T09:55:44Z</time>
      </trkpt>
      <trkpt lat="45.37428" lon="2.97219">
        <ele>1180.64</ele>
        <time>2021-08-15T09:55:49Z</time>
      </trkpt>
      <trkpt lat="45.37422" lon="2.97218">
        <ele>1180.64</ele>
        <time>2021-08-15T09:55:50Z</time>
      </trkpt>
      <trkpt lat="45.37417" lon="2.97218">
        <ele>1180.64</ele>
        <time>2021-08-15T09:55:51Z</time>
      </trkpt>
      <trkpt lat="45.3741" lon="2.9722">
        <ele>1180.64</ele>
        <time>2021-08-15T09:55:52Z</time>
      </trkpt>
      <trkpt lat="45.37404" lon="2.97223">
        <ele>1180.16</ele>
        <time>2021-08-15T09:55:53Z</time>
      </trkpt>
      <trkpt lat="45.37398" lon="2.97226">
        <ele>1180.16</ele>
        <time>2021-08-15T09:55:54Z</time>
      </trkpt>
      <trkpt lat="45.37387" lon="2.97231">
        <ele>1180.16</ele>
        <time>2021-08-15T09:55:56Z</time>
      </trkpt>
      <trkpt lat="45.37375" lon="2.97234">
        <ele>1180.16</ele>
        <time>2021-08-15T09:55:58Z</time>
      </trkpt>
      <trkpt lat="45.3737" lon="2.97234">
        <ele>1179.67</ele>
        <time>2021-08-15T09:55:59Z</time>
      </trkpt>
      <trkpt lat="45.37364" lon="2.97231">
        <ele>1179.67</ele>
        <time>2021-08-15T09:56:00Z</time>
      </trkpt>
      <trkpt lat="45.37361" lon="2.97229">
        <ele>1179.67</ele>
        <time>2021-08-15T09:56:01Z</time>
      </trkpt>
      <trkpt lat="45.37358" lon="2.97227">
        <ele>1179.67</ele>
        <time>2021-08-15T09:56:02Z</time>
      </trkpt>
      <trkpt lat="45.37356" lon="2.97226">
        <ele>1179.67</ele>
        <time>2021-08-15T09:56:03Z</time>
      </trkpt>
      <trkpt lat="45.37355" lon="2.97228">
        <ele>1179.67</ele>
        <time>2021-08-15T09:56:04Z</time>
      </trkpt>
      <trkpt lat="45.37357" lon="2.97231">
        <ele>1181.12</ele>
        <time>2021-08-15T09:56:06Z</time>
      </trkpt>
      <trkpt lat="45.37359" lon="2.97232">
        <ele>1181.12</ele>
        <time>2021-08-15T09:56:07Z</time>
      </trkpt>
      <trkpt lat="45.37361" lon="2.97233">
        <ele>1181.12</ele>
        <time>2021-08-15T09:56:08Z</time>
      </trkpt>
      <trkpt lat="45.37372" lon="2.97237">
        <ele>1181.12</ele>
        <time>2021-08-15T09:56:11Z</time>
      </trkpt>
      <trkpt lat="45.37377" lon="2.97235">
        <ele>1181.12</ele>
        <time>2021-08-15T09:56:12Z</time>
      </trkpt>
      <trkpt lat="45.3738" lon="2.97232">
        <ele>1181.12</ele>
        <time>2021-08-15T09:56:13Z</time>
      </trkpt>
      <trkpt lat="45.37382" lon="2.97227">
        <ele>1181.12</ele>
        <time>2021-08-15T09:56:14Z</time>
      </trkpt>
      <trkpt lat="45.37383" lon="2.97221">
        <ele>1181.12</ele>
        <time>2021-08-15T09:56:15Z</time>
      </trkpt>
      <trkpt lat="45.37382" lon="2.97217">
        <ele>1181.12</ele>
        <time>2021-08-15T09:56:16Z</time>
      </trkpt>
      <trkpt lat="45.3738" lon="2.97213">
        <ele>1181.12</ele>
        <time>2021-08-15T09:56:17Z</time>
      </trkpt>
      <trkpt lat="45.37371" lon="2.97191">
        <ele>1183.04</ele>
        <time>2021-08-15T09:56:25Z</time>
      </trkpt>
      <trkpt lat="45.37364" lon="2.97178">
        <ele>1184.96</ele>
        <time>2021-08-15T09:56:31Z</time>
      </trkpt>
      <trkpt lat="45.37361" lon="2.97178">
        <ele>1186.4</ele>
        <time>2021-08-15T09:56:36Z</time>
      </trkpt>
      <trkpt lat="45.37361" lon="2.9718">
        <ele>1186.4</ele>
        <time>2021-08-15T09:56:37Z</time>
      </trkpt>
      <trkpt lat="45.37363" lon="2.97184">
        <ele>1186.4</ele>
        <time>2021-08-15T09:56:38Z</time>
      </trkpt>
      <trkpt lat="45.37365" lon="2.97186">
        <ele>1184.96</ele>
        <time>2021-08-15T09:56:39Z</time>
      </trkpt>
      <trkpt lat="45.37368" lon="2.9719">
        <ele>1184.96</ele>
        <time>2021-08-15T09:56:40Z</time>
      </trkpt>
      <trkpt lat="45.37371" lon="2.97194">
        <ele>1184</ele>
        <time>2021-08-15T09:56:41Z</time>
      </trkpt>
      <trkpt lat="45.37374" lon="2.972">
        <ele>1183.52</ele>
        <time>2021-08-15T09:56:42Z</time>
      </trkpt>
      <trkpt lat="45.37377" lon="2.97206">
        <ele>1183.04</ele>
        <time>2021-08-15T09:56:43Z</time>
      </trkpt>
      <trkpt lat="45.3738" lon="2.97214">
        <ele>1182.08</ele>
        <time>2021-08-15T09:56:44Z</time>
      </trkpt>
      <trkpt lat="45.37382" lon="2.97221">
        <ele>1181.6</ele>
        <time>2021-08-15T09:56:45Z</time>
      </trkpt>
      <trkpt lat="45.37382" lon="2.97229">
        <ele>1181.6</ele>
        <time>2021-08-15T09:56:46Z</time>
      </trkpt>
      <trkpt lat="45.3738" lon="2.97232">
        <ele>1180.64</ele>
        <time>2021-08-15T09:56:47Z</time>
      </trkpt>
      <trkpt lat="45.37375" lon="2.97234">
        <ele>1180.16</ele>
        <time>2021-08-15T09:56:48Z</time>
      </trkpt>
      <trkpt lat="45.37371" lon="2.97233">
        <ele>1180.16</ele>
        <time>2021-08-15T09:56:49Z</time>
      </trkpt>
      <trkpt lat="45.37366" lon="2.97231">
        <ele>1179.19</ele>
        <time>2021-08-15T09:56:50Z</time>
      </trkpt>
      <trkpt lat="45.37362" lon="2.97229">
        <ele>1179.19</ele>
        <time>2021-08-15T09:56:51Z</time>
      </trkpt>
      <trkpt lat="45.37354" lon="2.97224">
        <ele>1179.19</ele>
        <time>2021-08-15T09:56:53Z</time>
      </trkpt>
      <trkpt lat="45.37313" lon="2.97182">
        <ele>1178.71</ele>
        <time>2021-08-15T09:57:03Z</time>
      </trkpt>
      <trkpt lat="45.37309" lon="2.97177">
        <ele>1178.71</ele>
        <time>2021-08-15T09:57:04Z</time>
      </trkpt>
      <trkpt lat="45.37306" lon="2.97171">
        <ele>1178.71</ele>
        <time>2021-08-15T09:57:05Z</time>
      </trkpt>
      <trkpt lat="45.37279" lon="2.97131">
        <ele>1177.75</ele>
        <time>2021-08-15T09:57:12Z</time>
      </trkpt>
      <trkpt lat="45.37274" lon="2.97128">
        <ele>1177.75</ele>
        <time>2021-08-15T09:57:13Z</time>
      </trkpt>
      <trkpt lat="45.37268" lon="2.97127">
        <ele>1177.75</ele>
        <time>2021-08-15T09:57:14Z</time>
      </trkpt>
      <trkpt lat="45.37263" lon="2.97127">
        <ele>1177.75</ele>
        <time>2021-08-15T09:57:15Z</time>
      </trkpt>
      <trkpt lat="45.37257" lon="2.97127">
        <ele>1177.75</ele>
        <time>2021-08-15T09:57:16Z</time>
      </trkpt>
      <trkpt lat="45.37251" lon="2.97128">
        <ele>1179.19</ele>
        <time>2021-08-15T09:57:17Z</time>
      </trkpt>
      <trkpt lat="45.37246" lon="2.9713">
        <ele>1179.19</ele>
        <time>2021-08-15T09:57:18Z</time>
      </trkpt>
      <trkpt lat="45.37241" lon="2.97133">
        <ele>1179.19</ele>
        <time>2021-08-15T09:57:19Z</time>
      </trkpt>
      <trkpt lat="45.37236" lon="2.97136">
        <ele>1179.67</ele>
        <time>2021-08-15T09:57:20Z</time>
      </trkpt>
      <trkpt lat="45.3721" lon="2.97156">
        <ele>1181.12</ele>
        <time>2021-08-15T09:57:27Z</time>
      </trkpt>
      <trkpt lat="45.37191" lon="2.97173">
        <ele>1182.56</ele>
        <time>2021-08-15T09:57:34Z</time>
      </trkpt>
      <trkpt lat="45.37178" lon="2.97181">
        <ele>1183.52</ele>
        <time>2021-08-15T09:57:39Z</time>
      </trkpt>
      <trkpt lat="45.37149" lon="2.97193">
        <ele>1183.52</ele>
        <time>2021-08-15T09:57:47Z</time>
      </trkpt>
      <trkpt lat="45.37128" lon="2.97202">
        <ele>1183.52</ele>
        <time>2021-08-15T09:57:52Z</time>
      </trkpt>
      <trkpt lat="45.37081" lon="2.97223">
        <ele>1183.52</ele>
        <time>2021-08-15T09:58:02Z</time>
      </trkpt>
      <trkpt lat="45.37059" lon="2.9723">
        <ele>1183.52</ele>
        <time>2021-08-15T09:58:07Z</time>
      </trkpt>
      <trkpt lat="45.3703" lon="2.97224">
        <ele>1185.44</ele>
        <time>2021-08-15T09:58:15Z</time>
      </trkpt>
      <trkpt lat="45.37013" lon="2.97217">
        <ele>1185.92</ele>
        <time>2021-08-15T09:58:22Z</time>
      </trkpt>
      <trkpt lat="45.36989" lon="2.97202">
        <ele>1187.37</ele>
        <time>2021-08-15T09:58:31Z</time>
      </trkpt>
      <trkpt lat="45.36966" lon="2.97185">
        <ele>1188.33</ele>
        <time>2021-08-15T09:58:40Z</time>
      </trkpt>
      <trkpt lat="45.36949" lon="2.97178">
        <ele>1189.77</ele>
        <time>2021-08-15T09:58:47Z</time>
      </trkpt>
      <trkpt lat="45.3693" lon="2.9717">
        <ele>1190.73</ele>
        <time>2021-08-15T09:58:55Z</time>
      </trkpt>
      <trkpt lat="45.36909" lon="2.97164">
        <ele>1192.17</ele>
        <time>2021-08-15T09:59:04Z</time>
      </trkpt>
      <trkpt lat="45.36891" lon="2.97162">
        <ele>1193.13</ele>
        <time>2021-08-15T09:59:12Z</time>
      </trkpt>
      <trkpt lat="45.36875" lon="2.9716">
        <ele>1194.09</ele>
        <time>2021-08-15T09:59:20Z</time>
      </trkpt>
      <trkpt lat="45.36855" lon="2.97163">
        <ele>1196.02</ele>
        <time>2021-08-15T09:59:29Z</time>
      </trkpt>
      <trkpt lat="45.36838" lon="2.97164">
        <ele>1197.94</ele>
        <time>2021-08-15T09:59:37Z</time>
      </trkpt>
      <trkpt lat="45.36823" lon="2.97162">
        <ele>1198.42</ele>
        <time>2021-08-15T09:59:44Z</time>
      </trkpt>
      <trkpt lat="45.36802" lon="2.97162">
        <ele>1200.34</ele>
        <time>2021-08-15T09:59:54Z</time>
      </trkpt>
      <trkpt lat="45.36785" lon="2.97161">
        <ele>1199.86</ele>
        <time>2021-08-15T10:00:02Z</time>
      </trkpt>
      <trkpt lat="45.36766" lon="2.97156">
        <ele>1200.82</ele>
        <time>2021-08-15T10:00:11Z</time>
      </trkpt>
      <trkpt lat="45.36741" lon="2.97146">
        <ele>1202.27</ele>
        <time>2021-08-15T10:00:22Z</time>
      </trkpt>
      <trkpt lat="45.3672" lon="2.97143">
        <ele>1203.23</ele>
        <time>2021-08-15T10:00:31Z</time>
      </trkpt>
      <trkpt lat="45.36717" lon="2.97141">
        <ele>1203.23</ele>
        <time>2021-08-15T10:00:32Z</time>
      </trkpt>
      <trkpt lat="45.36687" lon="2.97125">
        <ele>1203.71</ele>
        <time>2021-08-15T10:00:42Z</time>
      </trkpt>
      <trkpt lat="45.36667" lon="2.97103">
        <ele>1203.71</ele>
        <time>2021-08-15T10:00:49Z</time>
      </trkpt>
      <trkpt lat="45.36641" lon="2.9707">
        <ele>1203.71</ele>
        <time>2021-08-15T10:00:58Z</time>
      </trkpt>
      <trkpt lat="45.3662" lon="2.97056">
        <ele>1204.19</ele>
        <time>2021-08-15T10:01:05Z</time>
      </trkpt>
      <trkpt lat="45.36596" lon="2.97053">
        <ele>1205.63</ele>
        <time>2021-08-15T10:01:12Z</time>
      </trkpt>
      <trkpt lat="45.36573" lon="2.97054">
        <ele>1207.07</ele>
        <time>2021-08-15T10:01:20Z</time>
      </trkpt>
      <trkpt lat="45.36547" lon="2.97049">
        <ele>1207.07</ele>
        <time>2021-08-15T10:01:29Z</time>
      </trkpt>
      <trkpt lat="45.36539" lon="2.9705">
        <ele>1207.55</ele>
        <time>2021-08-15T10:01:33Z</time>
      </trkpt>
      <trkpt lat="45.36522" lon="2.97059">
        <ele>1208.03</ele>
        <time>2021-08-15T10:01:39Z</time>
      </trkpt>
      <trkpt lat="45.36498" lon="2.97064">
        <ele>1208.03</ele>
        <time>2021-08-15T10:01:46Z</time>
      </trkpt>
      <trkpt lat="45.36477" lon="2.97072">
        <ele>1208.03</ele>
        <time>2021-08-15T10:01:52Z</time>
      </trkpt>
      <trkpt lat="45.36459" lon="2.9708">
        <ele>1208.51</ele>
        <time>2021-08-15T10:01:57Z</time>
      </trkpt>
      <trkpt lat="45.36455" lon="2.97083">
        <ele>1208.51</ele>
        <time>2021-08-15T10:01:58Z</time>
      </trkpt>
      <trkpt lat="45.36452" lon="2.97088">
        <ele>1208.51</ele>
        <time>2021-08-15T10:01:59Z</time>
      </trkpt>
      <trkpt lat="45.36432" lon="2.97125">
        <ele>1209.48</ele>
        <time>2021-08-15T10:02:08Z</time>
      </trkpt>
      <trkpt lat="45.36413" lon="2.97147">
        <ele>1210.44</ele>
        <time>2021-08-15T10:02:16Z</time>
      </trkpt>
      <trkpt lat="45.36392" lon="2.97164">
        <ele>1211.88</ele>
        <time>2021-08-15T10:02:26Z</time>
      </trkpt>
      <trkpt lat="45.3639" lon="2.97166">
        <ele>1211.88</ele>
        <time>2021-08-15T10:02:29Z</time>
      </trkpt>
      <trkpt lat="45.36392" lon="2.97164">
        <ele>1211.88</ele>
        <time>2021-08-15T10:02:30Z</time>
      </trkpt>
      <trkpt lat="45.36394" lon="2.97162">
        <ele>1211.88</ele>
        <time>2021-08-15T10:02:31Z</time>
      </trkpt>
      <trkpt lat="45.36396" lon="2.9716">
        <ele>1211.88</ele>
        <time>2021-08-15T10:02:32Z</time>
      </trkpt>
      <trkpt lat="45.36398" lon="2.97158">
        <ele>1211.88</ele>
        <time>2021-08-15T10:02:33Z</time>
      </trkpt>
      <trkpt lat="45.36403" lon="2.97155">
        <ele>1211.88</ele>
        <time>2021-08-15T10:02:37Z</time>
      </trkpt>
      <trkpt lat="45.36404" lon="2.97154">
        <ele>1211.88</ele>
        <time>2021-08-15T10:02:43Z</time>
      </trkpt>
      <trkpt lat="45.36404" lon="2.97154">
        <ele>1211.88</ele>
        <time>2021-08-15T10:02:45Z</time>
      </trkpt>
      <trkpt lat="45.36403" lon="2.97155">
        <ele>1211.88</ele>
        <time>2021-08-15T10:02:46Z</time>
      </trkpt>
      <trkpt lat="45.36402" lon="2.97157">
        <ele>1211.88</ele>
        <time>2021-08-15T10:02:47Z</time>
      </trkpt>
      <trkpt lat="45.36401" lon="2.97159">
        <ele>1211.88</ele>
        <time>2021-08-15T10:02:48Z</time>
      </trkpt>
      <trkpt lat="45.36399" lon="2.9716">
        <ele>1211.88</ele>
        <time>2021-08-15T10:02:49Z</time>
      </trkpt>
      <trkpt lat="45.36397" lon="2.97162">
        <ele>1211.88</ele>
        <time>2021-08-15T10:02:50Z</time>
      </trkpt>
      <trkpt lat="45.36395" lon="2.97164">
        <ele>1211.88</ele>
        <time>2021-08-15T10:02:51Z</time>
      </trkpt>
      <trkpt lat="45.36389" lon="2.97168">
        <ele>1211.88</ele>
        <time>2021-08-15T10:02:54Z</time>
      </trkpt>
      <trkpt lat="45.36387" lon="2.97171">
        <ele>1211.88</ele>
        <time>2021-08-15T10:02:55Z</time>
      </trkpt>
      <trkpt lat="45.36385" lon="2.97174">
        <ele>1212.36</ele>
        <time>2021-08-15T10:02:56Z</time>
      </trkpt>
      <trkpt lat="45.36381" lon="2.97187">
        <ele>1212.36</ele>
        <time>2021-08-15T10:03:00Z</time>
      </trkpt>
      <trkpt lat="45.36382" lon="2.97192">
        <ele>1212.84</ele>
        <time>2021-08-15T10:03:05Z</time>
      </trkpt>
      <trkpt lat="45.36381" lon="2.97192">
        <ele>1213.8</ele>
        <time>2021-08-15T10:03:24Z</time>
      </trkpt>
      <trkpt lat="45.36382" lon="2.9719">
        <ele>1213.8</ele>
        <time>2021-08-15T10:03:52Z</time>
      </trkpt>
      <trkpt lat="45.3638" lon="2.9719">
        <ele>1213.8</ele>
        <time>2021-08-15T10:04:14Z</time>
      </trkpt>
      <trkpt lat="45.36381" lon="2.9719">
        <ele>1213.8</ele>
        <time>2021-08-15T10:04:26Z</time>
      </trkpt>
      <trkpt lat="45.36381" lon="2.97191">
        <ele>1213.8</ele>
        <time>2021-08-15T10:04:33Z</time>
      </trkpt>
      <trkpt lat="45.36382" lon="2.9719">
        <ele>1213.8</ele>
        <time>2021-08-15T10:04:42Z</time>
      </trkpt>
      <trkpt lat="45.36383" lon="2.97187">
        <ele>1213.8</ele>
        <time>2021-08-15T10:04:58Z</time>
      </trkpt>
      <trkpt lat="45.36383" lon="2.9719">
        <ele>1214.28</ele>
        <time>2021-08-15T10:05:15Z</time>
      </trkpt>
      <trkpt lat="45.36382" lon="2.97191">
        <ele>1214.28</ele>
        <time>2021-08-15T10:05:27Z</time>
      </trkpt>
      <trkpt lat="45.36383" lon="2.9719">
        <ele>1214.28</ele>
        <time>2021-08-15T10:05:41Z</time>
      </trkpt>
      <trkpt lat="45.36383" lon="2.97189">
        <ele>1214.28</ele>
        <time>2021-08-15T10:05:54Z</time>
      </trkpt>
      <trkpt lat="45.36385" lon="2.97188">
        <ele>1214.28</ele>
        <time>2021-08-15T10:06:06Z</time>
      </trkpt>
      <trkpt lat="45.36385" lon="2.97187">
        <ele>1214.28</ele>
        <time>2021-08-15T10:06:19Z</time>
      </trkpt>
      <trkpt lat="45.36383" lon="2.97186">
        <ele>1214.76</ele>
        <time>2021-08-15T10:06:26Z</time>
      </trkpt>
      <trkpt lat="45.36381" lon="2.97186">
        <ele>1214.76</ele>
        <time>2021-08-15T10:06:28Z</time>
      </trkpt>
      <trkpt lat="45.36379" lon="2.97186">
        <ele>1214.76</ele>
        <time>2021-08-15T10:06:29Z</time>
      </trkpt>
      <trkpt lat="45.36378" lon="2.97186">
        <ele>1214.76</ele>
        <time>2021-08-15T10:06:30Z</time>
      </trkpt>
      <trkpt lat="45.36361" lon="2.9718">
        <ele>1215.24</ele>
        <time>2021-08-15T10:06:38Z</time>
      </trkpt>
      <trkpt lat="45.36346" lon="2.97163">
        <ele>1216.21</ele>
        <time>2021-08-15T10:06:47Z</time>
      </trkpt>
      <trkpt lat="45.36338" lon="2.97142">
        <ele>1218.13</ele>
        <time>2021-08-15T10:06:57Z</time>
      </trkpt>
      <trkpt lat="45.36333" lon="2.97129">
        <ele>1218.13</ele>
        <time>2021-08-15T10:07:03Z</time>
      </trkpt>
      <trkpt lat="45.36331" lon="2.97127">
        <ele>1218.61</ele>
        <time>2021-08-15T10:07:04Z</time>
      </trkpt>
      <trkpt lat="45.36319" lon="2.97112">
        <ele>1221.01</ele>
        <time>2021-08-15T10:07:13Z</time>
      </trkpt>
      <trkpt lat="45.36305" lon="2.97102">
        <ele>1221.49</ele>
        <time>2021-08-15T10:07:22Z</time>
      </trkpt>
      <trkpt lat="45.36292" lon="2.9709">
        <ele>1222.93</ele>
        <time>2021-08-15T10:07:30Z</time>
      </trkpt>
      <trkpt lat="45.36282" lon="2.97078">
        <ele>1222.93</ele>
        <time>2021-08-15T10:07:37Z</time>
      </trkpt>
      <trkpt lat="45.36272" lon="2.97062">
        <ele>1223.9</ele>
        <time>2021-08-15T10:07:45Z</time>
      </trkpt>
      <trkpt lat="45.36258" lon="2.9704">
        <ele>1224.86</ele>
        <time>2021-08-15T10:07:55Z</time>
      </trkpt>
      <trkpt lat="45.36248" lon="2.97033">
        <ele>1224.86</ele>
        <time>2021-08-15T10:08:00Z</time>
      </trkpt>
      <trkpt lat="45.36247" lon="2.9703">
        <ele>1225.34</ele>
        <time>2021-08-15T10:08:01Z</time>
      </trkpt>
      <trkpt lat="45.36246" lon="2.97028">
        <ele>1225.34</ele>
        <time>2021-08-15T10:08:02Z</time>
      </trkpt>
      <trkpt lat="45.36243" lon="2.97025">
        <ele>1225.34</ele>
        <time>2021-08-15T10:08:03Z</time>
      </trkpt>
      <trkpt lat="45.36241" lon="2.97023">
        <ele>1225.34</ele>
        <time>2021-08-15T10:08:04Z</time>
      </trkpt>
      <trkpt lat="45.36239" lon="2.9702">
        <ele>1225.34</ele>
        <time>2021-08-15T10:08:05Z</time>
      </trkpt>
      <trkpt lat="45.36237" lon="2.97017">
        <ele>1225.34</ele>
        <time>2021-08-15T10:08:06Z</time>
      </trkpt>
      <trkpt lat="45.36205" lon="2.9698">
        <ele>1226.3</ele>
        <time>2021-08-15T10:08:19Z</time>
      </trkpt>
      <trkpt lat="45.36185" lon="2.96961">
        <ele>1227.26</ele>
        <time>2021-08-15T10:08:27Z</time>
      </trkpt>
      <trkpt lat="45.36171" lon="2.96949">
        <ele>1228.7</ele>
        <time>2021-08-15T10:08:35Z</time>
      </trkpt>
      <trkpt lat="45.36157" lon="2.96938">
        <ele>1229.66</ele>
        <time>2021-08-15T10:08:43Z</time>
      </trkpt>
      <trkpt lat="45.36141" lon="2.96924">
        <ele>1230.14</ele>
        <time>2021-08-15T10:08:51Z</time>
      </trkpt>
      <trkpt lat="45.36124" lon="2.96896">
        <ele>1230.14</ele>
        <time>2021-08-15T10:08:59Z</time>
      </trkpt>
      <trkpt lat="45.36117" lon="2.96849">
        <ele>1230.14</ele>
        <time>2021-08-15T10:09:09Z</time>
      </trkpt>
      <trkpt lat="45.36112" lon="2.96811">
        <ele>1230.62</ele>
        <time>2021-08-15T10:09:19Z</time>
      </trkpt>
      <trkpt lat="45.36109" lon="2.9678">
        <ele>1231.11</ele>
        <time>2021-08-15T10:09:27Z</time>
      </trkpt>
      <trkpt lat="45.36101" lon="2.96746">
        <ele>1232.55</ele>
        <time>2021-08-15T10:09:36Z</time>
      </trkpt>
      <trkpt lat="45.36091" lon="2.96707">
        <ele>1233.51</ele>
        <time>2021-08-15T10:09:46Z</time>
      </trkpt>
      <trkpt lat="45.36079" lon="2.96668">
        <ele>1234.47</ele>
        <time>2021-08-15T10:09:57Z</time>
      </trkpt>
      <trkpt lat="45.36067" lon="2.9664">
        <ele>1235.43</ele>
        <time>2021-08-15T10:10:07Z</time>
      </trkpt>
      <trkpt lat="45.36052" lon="2.96621">
        <ele>1237.35</ele>
        <time>2021-08-15T10:10:16Z</time>
      </trkpt>
      <trkpt lat="45.36042" lon="2.96605">
        <ele>1237.35</ele>
        <time>2021-08-15T10:10:23Z</time>
      </trkpt>
      <trkpt lat="45.36032" lon="2.96587">
        <ele>1238.8</ele>
        <time>2021-08-15T10:10:31Z</time>
      </trkpt>
      <trkpt lat="45.36022" lon="2.96562">
        <ele>1240.24</ele>
        <time>2021-08-15T10:10:41Z</time>
      </trkpt>
      <trkpt lat="45.36019" lon="2.96535">
        <ele>1241.68</ele>
        <time>2021-08-15T10:10:50Z</time>
      </trkpt>
      <trkpt lat="45.36012" lon="2.96511">
        <ele>1243.12</ele>
        <time>2021-08-15T10:10:59Z</time>
      </trkpt>
      <trkpt lat="45.36006" lon="2.96491">
        <ele>1243.6</ele>
        <time>2021-08-15T10:11:06Z</time>
      </trkpt>
      <trkpt lat="45.35997" lon="2.96469">
        <ele>1244.56</ele>
        <time>2021-08-15T10:11:14Z</time>
      </trkpt>
      <trkpt lat="45.35982" lon="2.9644">
        <ele>1246.01</ele>
        <time>2021-08-15T10:11:24Z</time>
      </trkpt>
      <trkpt lat="45.35964" lon="2.96409">
        <ele>1246.97</ele>
        <time>2021-08-15T10:11:35Z</time>
      </trkpt>
      <trkpt lat="45.35952" lon="2.96385">
        <ele>1247.45</ele>
        <time>2021-08-15T10:11:42Z</time>
      </trkpt>
      <trkpt lat="45.35939" lon="2.96353">
        <ele>1244.56</ele>
        <time>2021-08-15T10:11:48Z</time>
      </trkpt>
      <trkpt lat="45.35924" lon="2.96309">
        <ele>1240.72</ele>
        <time>2021-08-15T10:11:54Z</time>
      </trkpt>
      <trkpt lat="45.35922" lon="2.96301">
        <ele>1240.72</ele>
        <time>2021-08-15T10:11:55Z</time>
      </trkpt>
      <trkpt lat="45.35912" lon="2.96257">
        <ele>1238.32</ele>
        <time>2021-08-15T10:12:00Z</time>
      </trkpt>
      <trkpt lat="45.35909" lon="2.96248">
        <ele>1238.32</ele>
        <time>2021-08-15T10:12:01Z</time>
      </trkpt>
      <trkpt lat="45.35905" lon="2.9624">
        <ele>1237.35</ele>
        <time>2021-08-15T10:12:02Z</time>
      </trkpt>
      <trkpt lat="45.359" lon="2.96235">
        <ele>1236.39</ele>
        <time>2021-08-15T10:12:03Z</time>
      </trkpt>
      <trkpt lat="45.35893" lon="2.96232">
        <ele>1236.39</ele>
        <time>2021-08-15T10:12:04Z</time>
      </trkpt>
      <trkpt lat="45.35886" lon="2.96232">
        <ele>1236.39</ele>
        <time>2021-08-15T10:12:05Z</time>
      </trkpt>
      <trkpt lat="45.35878" lon="2.96235">
        <ele>1236.39</ele>
        <time>2021-08-15T10:12:06Z</time>
      </trkpt>
      <trkpt lat="45.35871" lon="2.9624">
        <ele>1235.91</ele>
        <time>2021-08-15T10:12:07Z</time>
      </trkpt>
      <trkpt lat="45.35864" lon="2.96245">
        <ele>1235.43</ele>
        <time>2021-08-15T10:12:08Z</time>
      </trkpt>
      <trkpt lat="45.35857" lon="2.96253">
        <ele>1234.95</ele>
        <time>2021-08-15T10:12:09Z</time>
      </trkpt>
      <trkpt lat="45.3585" lon="2.96261">
        <ele>1233.99</ele>
        <time>2021-08-15T10:12:10Z</time>
      </trkpt>
      <trkpt lat="45.35843" lon="2.96268">
        <ele>1233.51</ele>
        <time>2021-08-15T10:12:11Z</time>
      </trkpt>
      <trkpt lat="45.35835" lon="2.96272">
        <ele>1232.55</ele>
        <time>2021-08-15T10:12:12Z</time>
      </trkpt>
      <trkpt lat="45.35827" lon="2.96272">
        <ele>1231.59</ele>
        <time>2021-08-15T10:12:13Z</time>
      </trkpt>
      <trkpt lat="45.35818" lon="2.96269">
        <ele>1230.14</ele>
        <time>2021-08-15T10:12:14Z</time>
      </trkpt>
      <trkpt lat="45.35811" lon="2.96263">
        <ele>1229.18</ele>
        <time>2021-08-15T10:12:15Z</time>
      </trkpt>
      <trkpt lat="45.35803" lon="2.96255">
        <ele>1227.74</ele>
        <time>2021-08-15T10:12:16Z</time>
      </trkpt>
      <trkpt lat="45.35796" lon="2.96247">
        <ele>1227.26</ele>
        <time>2021-08-15T10:12:17Z</time>
      </trkpt>
      <trkpt lat="45.35773" lon="2.96226">
        <ele>1225.82</ele>
        <time>2021-08-15T10:12:20Z</time>
      </trkpt>
      <trkpt lat="45.35737" lon="2.96198">
        <ele>1227.74</ele>
        <time>2021-08-15T10:12:25Z</time>
      </trkpt>
      <trkpt lat="45.35706" lon="2.96174">
        <ele>1225.82</ele>
        <time>2021-08-15T10:12:30Z</time>
      </trkpt>
      <trkpt lat="45.35671" lon="2.96141">
        <ele>1226.78</ele>
        <time>2021-08-15T10:12:37Z</time>
      </trkpt>
      <trkpt lat="45.35663" lon="2.96131">
        <ele>1225.34</ele>
        <time>2021-08-15T10:12:39Z</time>
      </trkpt>
      <trkpt lat="45.35649" lon="2.9611">
        <ele>1227.26</ele>
        <time>2021-08-15T10:12:43Z</time>
      </trkpt>
      <trkpt lat="45.35622" lon="2.96065">
        <ele>1228.22</ele>
        <time>2021-08-15T10:12:52Z</time>
      </trkpt>
      <trkpt lat="45.35591" lon="2.96012">
        <ele>1228.7</ele>
        <time>2021-08-15T10:13:03Z</time>
      </trkpt>
      <trkpt lat="45.35585" lon="2.96002">
        <ele>1228.7</ele>
        <time>2021-08-15T10:13:05Z</time>
      </trkpt>
      <trkpt lat="45.35567" lon="2.95961">
        <ele>1228.7</ele>
        <time>2021-08-15T10:13:12Z</time>
      </trkpt>
      <trkpt lat="45.35553" lon="2.95921">
        <ele>1228.7</ele>
        <time>2021-08-15T10:13:19Z</time>
      </trkpt>
      <trkpt lat="45.35547" lon="2.95897">
        <ele>1229.18</ele>
        <time>2021-08-15T10:13:23Z</time>
      </trkpt>
      <trkpt lat="45.35545" lon="2.95892">
        <ele>1229.18</ele>
        <time>2021-08-15T10:13:24Z</time>
      </trkpt>
      <trkpt lat="45.35542" lon="2.95887">
        <ele>1229.18</ele>
        <time>2021-08-15T10:13:25Z</time>
      </trkpt>
      <trkpt lat="45.35538" lon="2.95882">
        <ele>1229.18</ele>
        <time>2021-08-15T10:13:26Z</time>
      </trkpt>
      <trkpt lat="45.35535" lon="2.95878">
        <ele>1229.18</ele>
        <time>2021-08-15T10:13:27Z</time>
      </trkpt>
      <trkpt lat="45.35531" lon="2.95875">
        <ele>1229.18</ele>
        <time>2021-08-15T10:13:28Z</time>
      </trkpt>
      <trkpt lat="45.35528" lon="2.95872">
        <ele>1229.18</ele>
        <time>2021-08-15T10:13:29Z</time>
      </trkpt>
      <trkpt lat="45.35524" lon="2.95869">
        <ele>1229.66</ele>
        <time>2021-08-15T10:13:30Z</time>
      </trkpt>
      <trkpt lat="45.35501" lon="2.95851">
        <ele>1231.11</ele>
        <time>2021-08-15T10:13:36Z</time>
      </trkpt>
      <trkpt lat="45.35495" lon="2.95844">
        <ele>1231.11</ele>
        <time>2021-08-15T10:13:38Z</time>
      </trkpt>
      <trkpt lat="45.35492" lon="2.95838">
        <ele>1231.11</ele>
        <time>2021-08-15T10:13:39Z</time>
      </trkpt>
      <trkpt lat="45.3549" lon="2.95833">
        <ele>1231.11</ele>
        <time>2021-08-15T10:13:40Z</time>
      </trkpt>
      <trkpt lat="45.35488" lon="2.95827">
        <ele>1231.11</ele>
        <time>2021-08-15T10:13:41Z</time>
      </trkpt>
      <trkpt lat="45.35486" lon="2.95821">
        <ele>1231.11</ele>
        <time>2021-08-15T10:13:42Z</time>
      </trkpt>
      <trkpt lat="45.35485" lon="2.95815">
        <ele>1229.66</ele>
        <time>2021-08-15T10:13:43Z</time>
      </trkpt>
      <trkpt lat="45.35483" lon="2.9581">
        <ele>1229.66</ele>
        <time>2021-08-15T10:13:44Z</time>
      </trkpt>
      <trkpt lat="45.35472" lon="2.95783">
        <ele>1229.66</ele>
        <time>2021-08-15T10:13:49Z</time>
      </trkpt>
      <trkpt lat="45.35461" lon="2.95766">
        <ele>1231.11</ele>
        <time>2021-08-15T10:13:53Z</time>
      </trkpt>
      <trkpt lat="45.35433" lon="2.95735">
        <ele>1231.59</ele>
        <time>2021-08-15T10:14:02Z</time>
      </trkpt>
      <trkpt lat="45.35405" lon="2.957">
        <ele>1231.59</ele>
        <time>2021-08-15T10:14:12Z</time>
      </trkpt>
      <trkpt lat="45.35373" lon="2.95653">
        <ele>1233.03</ele>
        <time>2021-08-15T10:14:24Z</time>
      </trkpt>
      <trkpt lat="45.35368" lon="2.95644">
        <ele>1233.03</ele>
        <time>2021-08-15T10:14:26Z</time>
      </trkpt>
      <trkpt lat="45.35351" lon="2.95594">
        <ele>1233.51</ele>
        <time>2021-08-15T10:14:36Z</time>
      </trkpt>
      <trkpt lat="45.35344" lon="2.95579">
        <ele>1233.51</ele>
        <time>2021-08-15T10:14:39Z</time>
      </trkpt>
      <trkpt lat="45.35342" lon="2.95575">
        <ele>1233.99</ele>
        <time>2021-08-15T10:14:40Z</time>
      </trkpt>
      <trkpt lat="45.35339" lon="2.95572">
        <ele>1233.99</ele>
        <time>2021-08-15T10:14:41Z</time>
      </trkpt>
      <trkpt lat="45.35335" lon="2.95568">
        <ele>1233.99</ele>
        <time>2021-08-15T10:14:42Z</time>
      </trkpt>
      <trkpt lat="45.35332" lon="2.95565">
        <ele>1233.99</ele>
        <time>2021-08-15T10:14:43Z</time>
      </trkpt>
      <trkpt lat="45.35312" lon="2.95546">
        <ele>1233.99</ele>
        <time>2021-08-15T10:14:49Z</time>
      </trkpt>
      <trkpt lat="45.35308" lon="2.95542">
        <ele>1233.99</ele>
        <time>2021-08-15T10:14:50Z</time>
      </trkpt>
      <trkpt lat="45.35306" lon="2.95537">
        <ele>1233.99</ele>
        <time>2021-08-15T10:14:51Z</time>
      </trkpt>
      <trkpt lat="45.35304" lon="2.95532">
        <ele>1233.99</ele>
        <time>2021-08-15T10:14:52Z</time>
      </trkpt>
      <trkpt lat="45.35302" lon="2.95527">
        <ele>1233.99</ele>
        <time>2021-08-15T10:14:53Z</time>
      </trkpt>
      <trkpt lat="45.35301" lon="2.95521">
        <ele>1233.99</ele>
        <time>2021-08-15T10:14:54Z</time>
      </trkpt>
      <trkpt lat="45.353" lon="2.95515">
        <ele>1233.99</ele>
        <time>2021-08-15T10:14:55Z</time>
      </trkpt>
      <trkpt lat="45.35299" lon="2.9551">
        <ele>1233.99</ele>
        <time>2021-08-15T10:14:56Z</time>
      </trkpt>
      <trkpt lat="45.35299" lon="2.95504">
        <ele>1233.99</ele>
        <time>2021-08-15T10:14:57Z</time>
      </trkpt>
      <trkpt lat="45.35299" lon="2.95499">
        <ele>1233.99</ele>
        <time>2021-08-15T10:14:58Z</time>
      </trkpt>
      <trkpt lat="45.353" lon="2.95493">
        <ele>1233.99</ele>
        <time>2021-08-15T10:14:59Z</time>
      </trkpt>
      <trkpt lat="45.35299" lon="2.95488">
        <ele>1233.99</ele>
        <time>2021-08-15T10:15:00Z</time>
      </trkpt>
      <trkpt lat="45.35299" lon="2.95443">
        <ele>1234.47</ele>
        <time>2021-08-15T10:15:08Z</time>
      </trkpt>
      <trkpt lat="45.35286" lon="2.95389">
        <ele>1235.43</ele>
        <time>2021-08-15T10:15:18Z</time>
      </trkpt>
      <trkpt lat="45.35268" lon="2.95357">
        <ele>1235.91</ele>
        <time>2021-08-15T10:15:25Z</time>
      </trkpt>
      <trkpt lat="45.35265" lon="2.95352">
        <ele>1235.91</ele>
        <time>2021-08-15T10:15:26Z</time>
      </trkpt>
      <trkpt lat="45.35264" lon="2.95346">
        <ele>1235.91</ele>
        <time>2021-08-15T10:15:27Z</time>
      </trkpt>
      <trkpt lat="45.35263" lon="2.95341">
        <ele>1235.91</ele>
        <time>2021-08-15T10:15:28Z</time>
      </trkpt>
      <trkpt lat="45.35263" lon="2.95336">
        <ele>1236.39</ele>
        <time>2021-08-15T10:15:29Z</time>
      </trkpt>
      <trkpt lat="45.35262" lon="2.9533">
        <ele>1236.87</ele>
        <time>2021-08-15T10:15:30Z</time>
      </trkpt>
      <trkpt lat="45.35261" lon="2.95294">
        <ele>1238.32</ele>
        <time>2021-08-15T10:15:39Z</time>
      </trkpt>
      <trkpt lat="45.35256" lon="2.95268">
        <ele>1239.28</ele>
        <time>2021-08-15T10:15:46Z</time>
      </trkpt>
      <trkpt lat="45.35246" lon="2.95247">
        <ele>1240.24</ele>
        <time>2021-08-15T10:15:53Z</time>
      </trkpt>
      <trkpt lat="45.35233" lon="2.95222">
        <ele>1241.2</ele>
        <time>2021-08-15T10:16:01Z</time>
      </trkpt>
      <trkpt lat="45.35216" lon="2.95199">
        <ele>1243.12</ele>
        <time>2021-08-15T10:16:10Z</time>
      </trkpt>
      <trkpt lat="45.35196" lon="2.95172">
        <ele>1245.04</ele>
        <time>2021-08-15T10:16:20Z</time>
      </trkpt>
      <trkpt lat="45.35179" lon="2.95138">
        <ele>1246.01</ele>
        <time>2021-08-15T10:16:31Z</time>
      </trkpt>
      <trkpt lat="45.35164" lon="2.95119">
        <ele>1246.97</ele>
        <time>2021-08-15T10:16:39Z</time>
      </trkpt>
      <trkpt lat="45.3514" lon="2.95107">
        <ele>1248.89</ele>
        <time>2021-08-15T10:16:49Z</time>
      </trkpt>
      <trkpt lat="45.3511" lon="2.95104">
        <ele>1250.81</ele>
        <time>2021-08-15T10:17:00Z</time>
      </trkpt>
      <trkpt lat="45.35088" lon="2.9509">
        <ele>1250.81</ele>
        <time>2021-08-15T10:17:10Z</time>
      </trkpt>
      <trkpt lat="45.35074" lon="2.9507">
        <ele>1252.25</ele>
        <time>2021-08-15T10:17:19Z</time>
      </trkpt>
      <trkpt lat="45.35066" lon="2.95058">
        <ele>1253.22</ele>
        <time>2021-08-15T10:17:24Z</time>
      </trkpt>
      <trkpt lat="45.35051" lon="2.95046">
        <ele>1253.7</ele>
        <time>2021-08-15T10:17:32Z</time>
      </trkpt>
      <trkpt lat="45.35034" lon="2.9503">
        <ele>1255.14</ele>
        <time>2021-08-15T10:17:41Z</time>
      </trkpt>
      <trkpt lat="45.3501" lon="2.9501">
        <ele>1256.1</ele>
        <time>2021-08-15T10:17:52Z</time>
      </trkpt>
      <trkpt lat="45.3499" lon="2.94993">
        <ele>1257.06</ele>
        <time>2021-08-15T10:18:01Z</time>
      </trkpt>
      <trkpt lat="45.34968" lon="2.94972">
        <ele>1258.5</ele>
        <time>2021-08-15T10:18:11Z</time>
      </trkpt>
      <trkpt lat="45.34953" lon="2.94944">
        <ele>1259.46</ele>
        <time>2021-08-15T10:18:21Z</time>
      </trkpt>
      <trkpt lat="45.34934" lon="2.94915">
        <ele>1260.43</ele>
        <time>2021-08-15T10:18:31Z</time>
      </trkpt>
      <trkpt lat="45.34914" lon="2.94883">
        <ele>1260.91</ele>
        <time>2021-08-15T10:18:41Z</time>
      </trkpt>
      <trkpt lat="45.3489" lon="2.94848">
        <ele>1261.87</ele>
        <time>2021-08-15T10:18:52Z</time>
      </trkpt>
      <trkpt lat="45.34863" lon="2.94823">
        <ele>1263.31</ele>
        <time>2021-08-15T10:19:02Z</time>
      </trkpt>
      <trkpt lat="45.34835" lon="2.9481">
        <ele>1263.31</ele>
        <time>2021-08-15T10:19:11Z</time>
      </trkpt>
      <trkpt lat="45.34803" lon="2.94803">
        <ele>1264.27</ele>
        <time>2021-08-15T10:19:20Z</time>
      </trkpt>
      <trkpt lat="45.34774" lon="2.9479">
        <ele>1264.75</ele>
        <time>2021-08-15T10:19:28Z</time>
      </trkpt>
      <trkpt lat="45.3474" lon="2.9477">
        <ele>1266.19</ele>
        <time>2021-08-15T10:19:38Z</time>
      </trkpt>
      <trkpt lat="45.34709" lon="2.94756">
        <ele>1266.19</ele>
        <time>2021-08-15T10:19:47Z</time>
      </trkpt>
      <trkpt lat="45.34683" lon="2.94744">
        <ele>1267.16</ele>
        <time>2021-08-15T10:19:55Z</time>
      </trkpt>
      <trkpt lat="45.34648" lon="2.94734">
        <ele>1267.64</ele>
        <time>2021-08-15T10:20:05Z</time>
      </trkpt>
      <trkpt lat="45.34616" lon="2.94721">
        <ele>1267.64</ele>
        <time>2021-08-15T10:20:14Z</time>
      </trkpt>
      <trkpt lat="45.34585" lon="2.94704">
        <ele>1269.56</ele>
        <time>2021-08-15T10:20:23Z</time>
      </trkpt>
      <trkpt lat="45.34556" lon="2.94681">
        <ele>1270.04</ele>
        <time>2021-08-15T10:20:32Z</time>
      </trkpt>
      <trkpt lat="45.34513" lon="2.9466">
        <ele>1270.04</ele>
        <time>2021-08-15T10:20:44Z</time>
      </trkpt>
      <trkpt lat="45.34476" lon="2.94639">
        <ele>1271</ele>
        <time>2021-08-15T10:20:54Z</time>
      </trkpt>
      <trkpt lat="45.34445" lon="2.9461">
        <ele>1272.44</ele>
        <time>2021-08-15T10:21:04Z</time>
      </trkpt>
      <trkpt lat="45.34415" lon="2.94587">
        <ele>1273.4</ele>
        <time>2021-08-15T10:21:13Z</time>
      </trkpt>
      <trkpt lat="45.34392" lon="2.94573">
        <ele>1274.85</ele>
        <time>2021-08-15T10:21:20Z</time>
      </trkpt>
      <trkpt lat="45.34367" lon="2.94567">
        <ele>1275.33</ele>
        <time>2021-08-15T10:21:27Z</time>
      </trkpt>
      <trkpt lat="45.34335" lon="2.94572">
        <ele>1275.81</ele>
        <time>2021-08-15T10:21:36Z</time>
      </trkpt>
      <trkpt lat="45.34303" lon="2.94569">
        <ele>1276.29</ele>
        <time>2021-08-15T10:21:45Z</time>
      </trkpt>
      <trkpt lat="45.34274" lon="2.94548">
        <ele>1277.25</ele>
        <time>2021-08-15T10:21:54Z</time>
      </trkpt>
      <trkpt lat="45.34244" lon="2.94529">
        <ele>1278.21</ele>
        <time>2021-08-15T10:22:03Z</time>
      </trkpt>
      <trkpt lat="45.34224" lon="2.94505">
        <ele>1279.17</ele>
        <time>2021-08-15T10:22:10Z</time>
      </trkpt>
      <trkpt lat="45.34202" lon="2.94488">
        <ele>1279.17</ele>
        <time>2021-08-15T10:22:17Z</time>
      </trkpt>
      <trkpt lat="45.34172" lon="2.9448">
        <ele>1279.65</ele>
        <time>2021-08-15T10:22:25Z</time>
      </trkpt>
      <trkpt lat="45.34153" lon="2.94465">
        <ele>1280.13</ele>
        <time>2021-08-15T10:22:31Z</time>
      </trkpt>
      <trkpt lat="45.34132" lon="2.94438">
        <ele>1280.61</ele>
        <time>2021-08-15T10:22:39Z</time>
      </trkpt>
      <trkpt lat="45.34114" lon="2.94422">
        <ele>1281.57</ele>
        <time>2021-08-15T10:22:45Z</time>
      </trkpt>
      <trkpt lat="45.3411" lon="2.94412">
        <ele>1281.57</ele>
        <time>2021-08-15T10:22:47Z</time>
      </trkpt>
      <trkpt lat="45.34108" lon="2.94407">
        <ele>1281.57</ele>
        <time>2021-08-15T10:22:48Z</time>
      </trkpt>
      <trkpt lat="45.34107" lon="2.94401">
        <ele>1281.57</ele>
        <time>2021-08-15T10:22:49Z</time>
      </trkpt>
      <trkpt lat="45.34106" lon="2.94396">
        <ele>1281.57</ele>
        <time>2021-08-15T10:22:50Z</time>
      </trkpt>
      <trkpt lat="45.34106" lon="2.94391">
        <ele>1282.54</ele>
        <time>2021-08-15T10:22:51Z</time>
      </trkpt>
      <trkpt lat="45.34096" lon="2.94355">
        <ele>1283.02</ele>
        <time>2021-08-15T10:22:59Z</time>
      </trkpt>
      <trkpt lat="45.34077" lon="2.94331">
        <ele>1283.98</ele>
        <time>2021-08-15T10:23:06Z</time>
      </trkpt>
      <trkpt lat="45.34049" lon="2.943">
        <ele>1284.46</ele>
        <time>2021-08-15T10:23:16Z</time>
      </trkpt>
      <trkpt lat="45.34025" lon="2.94298">
        <ele>1285.42</ele>
        <time>2021-08-15T10:23:23Z</time>
      </trkpt>
      <trkpt lat="45.34001" lon="2.94293">
        <ele>1285.42</ele>
        <time>2021-08-15T10:23:30Z</time>
      </trkpt>
      <trkpt lat="45.3399" lon="2.94269">
        <ele>1286.38</ele>
        <time>2021-08-15T10:23:36Z</time>
      </trkpt>
      <trkpt lat="45.33989" lon="2.94225">
        <ele>1286.38</ele>
        <time>2021-08-15T10:23:45Z</time>
      </trkpt>
      <trkpt lat="45.33983" lon="2.9421">
        <ele>1286.38</ele>
        <time>2021-08-15T10:23:49Z</time>
      </trkpt>
      <trkpt lat="45.33979" lon="2.94208">
        <ele>1286.38</ele>
        <time>2021-08-15T10:23:50Z</time>
      </trkpt>
      <trkpt lat="45.33977" lon="2.94208">
        <ele>1286.38</ele>
        <time>2021-08-15T10:23:51Z</time>
      </trkpt>
      <trkpt lat="45.33962" lon="2.94212">
        <ele>1287.82</ele>
        <time>2021-08-15T10:23:58Z</time>
      </trkpt>
      <trkpt lat="45.33962" lon="2.94212">
        <ele>1288.78</ele>
        <time>2021-08-15T10:24:05Z</time>
      </trkpt>
      <trkpt lat="45.3396" lon="2.94212">
        <ele>1288.78</ele>
        <time>2021-08-15T10:24:15Z</time>
      </trkpt>
      <trkpt lat="45.3396" lon="2.94211">
        <ele>1288.78</ele>
        <time>2021-08-15T10:24:31Z</time>
      </trkpt>
      <trkpt lat="45.3396" lon="2.94211">
        <ele>1288.78</ele>
        <time>2021-08-15T10:24:43Z</time>
      </trkpt>
      <trkpt lat="45.33952" lon="2.94208">
        <ele>1288.78</ele>
        <time>2021-08-15T10:24:48Z</time>
      </trkpt>
      <trkpt lat="45.33949" lon="2.94208">
        <ele>1288.78</ele>
        <time>2021-08-15T10:24:49Z</time>
      </trkpt>
      <trkpt lat="45.33947" lon="2.94207">
        <ele>1288.78</ele>
        <time>2021-08-15T10:24:50Z</time>
      </trkpt>
      <trkpt lat="45.33922" lon="2.94198">
        <ele>1288.78</ele>
        <time>2021-08-15T10:24:58Z</time>
      </trkpt>
      <trkpt lat="45.33895" lon="2.94188">
        <ele>1289.27</ele>
        <time>2021-08-15T10:25:06Z</time>
      </trkpt>
      <trkpt lat="45.33873" lon="2.94179">
        <ele>1290.23</ele>
        <time>2021-08-15T10:25:14Z</time>
      </trkpt>
      <trkpt lat="45.33868" lon="2.94178">
        <ele>1290.71</ele>
        <time>2021-08-15T10:25:17Z</time>
      </trkpt>
      <trkpt lat="45.33867" lon="2.94177">
        <ele>1290.71</ele>
        <time>2021-08-15T10:25:18Z</time>
      </trkpt>
      <trkpt lat="45.33865" lon="2.94177">
        <ele>1290.71</ele>
        <time>2021-08-15T10:25:19Z</time>
      </trkpt>
      <trkpt lat="45.33864" lon="2.94176">
        <ele>1290.71</ele>
        <time>2021-08-15T10:25:20Z</time>
      </trkpt>
      <trkpt lat="45.33862" lon="2.94176">
        <ele>1291.19</ele>
        <time>2021-08-15T10:25:21Z</time>
      </trkpt>
      <trkpt lat="45.3385" lon="2.94173">
        <ele>1292.15</ele>
        <time>2021-08-15T10:25:28Z</time>
      </trkpt>
      <trkpt lat="45.33842" lon="2.94183">
        <ele>1293.59</ele>
        <time>2021-08-15T10:25:35Z</time>
      </trkpt>
      <trkpt lat="45.33842" lon="2.94185">
        <ele>1293.11</ele>
        <time>2021-08-15T10:25:36Z</time>
      </trkpt>
      <trkpt lat="45.33846" lon="2.94201">
        <ele>1294.55</ele>
        <time>2021-08-15T10:25:44Z</time>
      </trkpt>
      <trkpt lat="45.33855" lon="2.94217">
        <ele>1295.99</ele>
        <time>2021-08-15T10:25:54Z</time>
      </trkpt>
      <trkpt lat="45.33857" lon="2.94222">
        <ele>1296.48</ele>
        <time>2021-08-15T10:25:57Z</time>
      </trkpt>
      <trkpt lat="45.33857" lon="2.94223">
        <ele>1296.48</ele>
        <time>2021-08-15T10:25:58Z</time>
      </trkpt>
      <trkpt lat="45.33861" lon="2.9424">
        <ele>1297.92</ele>
        <time>2021-08-15T10:26:08Z</time>
      </trkpt>
      <trkpt lat="45.33863" lon="2.94253">
        <ele>1299.36</ele>
        <time>2021-08-15T10:26:15Z</time>
      </trkpt>
      <trkpt lat="45.33863" lon="2.94255">
        <ele>1299.84</ele>
        <time>2021-08-15T10:26:16Z</time>
      </trkpt>
      <trkpt lat="45.33864" lon="2.94266">
        <ele>1300.8</ele>
        <time>2021-08-15T10:26:22Z</time>
      </trkpt>
      <trkpt lat="45.33862" lon="2.94283">
        <ele>1301.76</ele>
        <time>2021-08-15T10:26:31Z</time>
      </trkpt>
      <trkpt lat="45.33858" lon="2.94297">
        <ele>1302.72</ele>
        <time>2021-08-15T10:26:39Z</time>
      </trkpt>
      <trkpt lat="45.33854" lon="2.94312">
        <ele>1303.69</ele>
        <time>2021-08-15T10:26:48Z</time>
      </trkpt>
      <trkpt lat="45.33852" lon="2.94319">
        <ele>1303.69</ele>
        <time>2021-08-15T10:26:52Z</time>
      </trkpt>
      <trkpt lat="45.33852" lon="2.94321">
        <ele>1304.17</ele>
        <time>2021-08-15T10:26:53Z</time>
      </trkpt>
      <trkpt lat="45.33853" lon="2.94323">
        <ele>1304.65</ele>
        <time>2021-08-15T10:26:54Z</time>
      </trkpt>
      <trkpt lat="45.33853" lon="2.94325">
        <ele>1304.65</ele>
        <time>2021-08-15T10:26:55Z</time>
      </trkpt>
      <trkpt lat="45.33853" lon="2.94327">
        <ele>1304.65</ele>
        <time>2021-08-15T10:26:56Z</time>
      </trkpt>
      <trkpt lat="45.33852" lon="2.94329">
        <ele>1305.13</ele>
        <time>2021-08-15T10:26:57Z</time>
      </trkpt>
      <trkpt lat="45.33852" lon="2.9433">
        <ele>1305.13</ele>
        <time>2021-08-15T10:26:58Z</time>
      </trkpt>
      <trkpt lat="45.33852" lon="2.94332">
        <ele>1305.13</ele>
        <time>2021-08-15T10:26:59Z</time>
      </trkpt>
      <trkpt lat="45.3385" lon="2.94347">
        <ele>1306.09</ele>
        <time>2021-08-15T10:27:07Z</time>
      </trkpt>
      <trkpt lat="45.33848" lon="2.94363">
        <ele>1307.53</ele>
        <time>2021-08-15T10:27:17Z</time>
      </trkpt>
      <trkpt lat="45.33847" lon="2.94365">
        <ele>1307.53</ele>
        <time>2021-08-15T10:27:18Z</time>
      </trkpt>
      <trkpt lat="45.33846" lon="2.94366">
        <ele>1308.01</ele>
        <time>2021-08-15T10:27:19Z</time>
      </trkpt>
      <trkpt lat="45.33846" lon="2.94371">
        <ele>1308.49</ele>
        <time>2021-08-15T10:27:22Z</time>
      </trkpt>
      <trkpt lat="45.33845" lon="2.94372">
        <ele>1308.49</ele>
        <time>2021-08-15T10:27:23Z</time>
      </trkpt>
      <trkpt lat="45.33844" lon="2.94374">
        <ele>1308.49</ele>
        <time>2021-08-15T10:27:24Z</time>
      </trkpt>
      <trkpt lat="45.33839" lon="2.94384">
        <ele>1309.45</ele>
        <time>2021-08-15T10:27:30Z</time>
      </trkpt>
      <trkpt lat="45.3383" lon="2.94394">
        <ele>1310.41</ele>
        <time>2021-08-15T10:27:39Z</time>
      </trkpt>
      <trkpt lat="45.33825" lon="2.944">
        <ele>1311.38</ele>
        <time>2021-08-15T10:27:45Z</time>
      </trkpt>
      <trkpt lat="45.33824" lon="2.944">
        <ele>1311.38</ele>
        <time>2021-08-15T10:27:46Z</time>
      </trkpt>
      <trkpt lat="45.33818" lon="2.94402">
        <ele>1311.86</ele>
        <time>2021-08-15T10:27:51Z</time>
      </trkpt>
      <trkpt lat="45.33817" lon="2.94403">
        <ele>1312.34</ele>
        <time>2021-08-15T10:27:52Z</time>
      </trkpt>
      <trkpt lat="45.33816" lon="2.94403">
        <ele>1312.34</ele>
        <time>2021-08-15T10:27:53Z</time>
      </trkpt>
      <trkpt lat="45.33815" lon="2.94404">
        <ele>1313.3</ele>
        <time>2021-08-15T10:27:54Z</time>
      </trkpt>
      <trkpt lat="45.33813" lon="2.94404">
        <ele>1313.3</ele>
        <time>2021-08-15T10:27:55Z</time>
      </trkpt>
      <trkpt lat="45.33812" lon="2.94405">
        <ele>1313.3</ele>
        <time>2021-08-15T10:27:56Z</time>
      </trkpt>
      <trkpt lat="45.3381" lon="2.94405">
        <ele>1313.3</ele>
        <time>2021-08-15T10:27:57Z</time>
      </trkpt>
      <trkpt lat="45.33803" lon="2.94405">
        <ele>1314.26</ele>
        <time>2021-08-15T10:28:03Z</time>
      </trkpt>
      <trkpt lat="45.33801" lon="2.94405">
        <ele>1314.26</ele>
        <time>2021-08-15T10:28:04Z</time>
      </trkpt>
      <trkpt lat="45.338" lon="2.94406">
        <ele>1314.26</ele>
        <time>2021-08-15T10:28:05Z</time>
      </trkpt>
      <trkpt lat="45.33799" lon="2.94406">
        <ele>1314.26</ele>
        <time>2021-08-15T10:28:06Z</time>
      </trkpt>
      <trkpt lat="45.33797" lon="2.94406">
        <ele>1314.26</ele>
        <time>2021-08-15T10:28:07Z</time>
      </trkpt>
      <trkpt lat="45.33796" lon="2.94406">
        <ele>1314.74</ele>
        <time>2021-08-15T10:28:08Z</time>
      </trkpt>
      <trkpt lat="45.33794" lon="2.94406">
        <ele>1314.74</ele>
        <time>2021-08-15T10:28:09Z</time>
      </trkpt>
      <trkpt lat="45.33793" lon="2.94406">
        <ele>1314.74</ele>
        <time>2021-08-15T10:28:10Z</time>
      </trkpt>
      <trkpt lat="45.33792" lon="2.94406">
        <ele>1315.22</ele>
        <time>2021-08-15T10:28:11Z</time>
      </trkpt>
      <trkpt lat="45.3379" lon="2.94406">
        <ele>1315.22</ele>
        <time>2021-08-15T10:28:12Z</time>
      </trkpt>
      <trkpt lat="45.33789" lon="2.94406">
        <ele>1315.22</ele>
        <time>2021-08-15T10:28:13Z</time>
      </trkpt>
      <trkpt lat="45.33788" lon="2.94406">
        <ele>1315.22</ele>
        <time>2021-08-15T10:28:14Z</time>
      </trkpt>
      <trkpt lat="45.33779" lon="2.94403">
        <ele>1316.18</ele>
        <time>2021-08-15T10:28:21Z</time>
      </trkpt>
      <trkpt lat="45.33777" lon="2.94403">
        <ele>1316.18</ele>
        <time>2021-08-15T10:28:22Z</time>
      </trkpt>
      <trkpt lat="45.3376" lon="2.94399">
        <ele>1317.62</ele>
        <time>2021-08-15T10:28:34Z</time>
      </trkpt>
      <trkpt lat="45.33749" lon="2.94395">
        <ele>1319.07</ele>
        <time>2021-08-15T10:28:42Z</time>
      </trkpt>
      <trkpt lat="45.33737" lon="2.94394">
        <ele>1319.55</ele>
        <time>2021-08-15T10:28:50Z</time>
      </trkpt>
      <trkpt lat="45.33726" lon="2.94392">
        <ele>1320.51</ele>
        <time>2021-08-15T10:28:58Z</time>
      </trkpt>
      <trkpt lat="45.33714" lon="2.9439">
        <ele>1321.47</ele>
        <time>2021-08-15T10:29:06Z</time>
      </trkpt>
      <trkpt lat="45.33713" lon="2.9439">
        <ele>1321.47</ele>
        <time>2021-08-15T10:29:07Z</time>
      </trkpt>
      <trkpt lat="45.33711" lon="2.94389">
        <ele>1321.47</ele>
        <time>2021-08-15T10:29:08Z</time>
      </trkpt>
      <trkpt lat="45.337" lon="2.94388">
        <ele>1322.91</ele>
        <time>2021-08-15T10:29:16Z</time>
      </trkpt>
      <trkpt lat="45.33698" lon="2.94387">
        <ele>1322.91</ele>
        <time>2021-08-15T10:29:17Z</time>
      </trkpt>
      <trkpt lat="45.33685" lon="2.94385">
        <ele>1323.87</ele>
        <time>2021-08-15T10:29:26Z</time>
      </trkpt>
      <trkpt lat="45.3367" lon="2.9438">
        <ele>1324.83</ele>
        <time>2021-08-15T10:29:37Z</time>
      </trkpt>
      <trkpt lat="45.33655" lon="2.94376">
        <ele>1326.76</ele>
        <time>2021-08-15T10:29:47Z</time>
      </trkpt>
      <trkpt lat="45.33644" lon="2.94372">
        <ele>1327.72</ele>
        <time>2021-08-15T10:29:55Z</time>
      </trkpt>
      <trkpt lat="45.33643" lon="2.94371">
        <ele>1327.72</ele>
        <time>2021-08-15T10:29:56Z</time>
      </trkpt>
      <trkpt lat="45.33641" lon="2.94371">
        <ele>1327.72</ele>
        <time>2021-08-15T10:29:57Z</time>
      </trkpt>
      <trkpt lat="45.3364" lon="2.94371">
        <ele>1328.2</ele>
        <time>2021-08-15T10:29:58Z</time>
      </trkpt>
      <trkpt lat="45.33638" lon="2.94371">
        <ele>1328.2</ele>
        <time>2021-08-15T10:29:59Z</time>
      </trkpt>
      <trkpt lat="45.33632" lon="2.94369">
        <ele>1328.68</ele>
        <time>2021-08-15T10:30:03Z</time>
      </trkpt>
      <trkpt lat="45.33617" lon="2.94367">
        <ele>1330.12</ele>
        <time>2021-08-15T10:30:12Z</time>
      </trkpt>
      <trkpt lat="45.33612" lon="2.94363">
        <ele>1331.08</ele>
        <time>2021-08-15T10:30:16Z</time>
      </trkpt>
      <trkpt lat="45.3361" lon="2.94362">
        <ele>1331.08</ele>
        <time>2021-08-15T10:30:17Z</time>
      </trkpt>
      <trkpt lat="45.33609" lon="2.94362">
        <ele>1331.08</ele>
        <time>2021-08-15T10:30:18Z</time>
      </trkpt>
      <trkpt lat="45.33607" lon="2.94362">
        <ele>1331.08</ele>
        <time>2021-08-15T10:30:19Z</time>
      </trkpt>
      <trkpt lat="45.33606" lon="2.94363">
        <ele>1331.08</ele>
        <time>2021-08-15T10:30:20Z</time>
      </trkpt>
      <trkpt lat="45.33594" lon="2.94366">
        <ele>1332.52</ele>
        <time>2021-08-15T10:30:27Z</time>
      </trkpt>
      <trkpt lat="45.33592" lon="2.94367">
        <ele>1332.52</ele>
        <time>2021-08-15T10:30:28Z</time>
      </trkpt>
      <trkpt lat="45.33591" lon="2.94367">
        <ele>1332.52</ele>
        <time>2021-08-15T10:30:29Z</time>
      </trkpt>
      <trkpt lat="45.33589" lon="2.94367">
        <ele>1332.52</ele>
        <time>2021-08-15T10:30:30Z</time>
      </trkpt>
      <trkpt lat="45.33588" lon="2.94367">
        <ele>1332.52</ele>
        <time>2021-08-15T10:30:31Z</time>
      </trkpt>
      <trkpt lat="45.33586" lon="2.94368">
        <ele>1332.52</ele>
        <time>2021-08-15T10:30:32Z</time>
      </trkpt>
      <trkpt lat="45.33584" lon="2.94368">
        <ele>1332.52</ele>
        <time>2021-08-15T10:30:33Z</time>
      </trkpt>
      <trkpt lat="45.33572" lon="2.94366">
        <ele>1334.45</ele>
        <time>2021-08-15T10:30:41Z</time>
      </trkpt>
      <trkpt lat="45.3356" lon="2.94362">
        <ele>1335.41</ele>
        <time>2021-08-15T10:30:49Z</time>
      </trkpt>
      <trkpt lat="45.33551" lon="2.94362">
        <ele>1336.37</ele>
        <time>2021-08-15T10:30:56Z</time>
      </trkpt>
      <trkpt lat="45.33533" lon="2.94358">
        <ele>1337.33</ele>
        <time>2021-08-15T10:31:07Z</time>
      </trkpt>
      <trkpt lat="45.33521" lon="2.94353">
        <ele>1338.77</ele>
        <time>2021-08-15T10:31:15Z</time>
      </trkpt>
      <trkpt lat="45.33512" lon="2.94346">
        <ele>1340.22</ele>
        <time>2021-08-15T10:31:23Z</time>
      </trkpt>
      <trkpt lat="45.33504" lon="2.94332">
        <ele>1340.7</ele>
        <time>2021-08-15T10:31:32Z</time>
      </trkpt>
      <trkpt lat="45.33498" lon="2.94317">
        <ele>1342.14</ele>
        <time>2021-08-15T10:31:39Z</time>
      </trkpt>
      <trkpt lat="45.33494" lon="2.943">
        <ele>1342.62</ele>
        <time>2021-08-15T10:31:47Z</time>
      </trkpt>
      <trkpt lat="45.33491" lon="2.94289">
        <ele>1344.06</ele>
        <time>2021-08-15T10:31:52Z</time>
      </trkpt>
      <trkpt lat="45.3349" lon="2.94287">
        <ele>1344.06</ele>
        <time>2021-08-15T10:31:53Z</time>
      </trkpt>
      <trkpt lat="45.3349" lon="2.94285">
        <ele>1344.06</ele>
        <time>2021-08-15T10:31:54Z</time>
      </trkpt>
      <trkpt lat="45.33489" lon="2.94282">
        <ele>1344.06</ele>
        <time>2021-08-15T10:31:55Z</time>
      </trkpt>
      <trkpt lat="45.33488" lon="2.9428">
        <ele>1344.54</ele>
        <time>2021-08-15T10:31:56Z</time>
      </trkpt>
      <trkpt lat="45.33487" lon="2.94278">
        <ele>1344.54</ele>
        <time>2021-08-15T10:31:57Z</time>
      </trkpt>
      <trkpt lat="45.33477" lon="2.94269">
        <ele>1345.5</ele>
        <time>2021-08-15T10:32:04Z</time>
      </trkpt>
      <trkpt lat="45.33463" lon="2.94267">
        <ele>1346.46</ele>
        <time>2021-08-15T10:32:12Z</time>
      </trkpt>
      <trkpt lat="45.33461" lon="2.94267">
        <ele>1346.46</ele>
        <time>2021-08-15T10:32:13Z</time>
      </trkpt>
      <trkpt lat="45.33449" lon="2.94268">
        <ele>1346.94</ele>
        <time>2021-08-15T10:32:20Z</time>
      </trkpt>
      <trkpt lat="45.33439" lon="2.94267">
        <ele>1347.91</ele>
        <time>2021-08-15T10:32:25Z</time>
      </trkpt>
      <trkpt lat="45.33427" lon="2.94265">
        <ele>1348.39</ele>
        <time>2021-08-15T10:32:33Z</time>
      </trkpt>
      <trkpt lat="45.33413" lon="2.94265">
        <ele>1350.31</ele>
        <time>2021-08-15T10:32:42Z</time>
      </trkpt>
      <trkpt lat="45.33395" lon="2.94266">
        <ele>1351.27</ele>
        <time>2021-08-15T10:32:53Z</time>
      </trkpt>
      <trkpt lat="45.33379" lon="2.9427">
        <ele>1352.71</ele>
        <time>2021-08-15T10:33:03Z</time>
      </trkpt>
      <trkpt lat="45.33378" lon="2.94271">
        <ele>1352.71</ele>
        <time>2021-08-15T10:33:04Z</time>
      </trkpt>
      <trkpt lat="45.3336" lon="2.94275">
        <ele>1353.67</ele>
        <time>2021-08-15T10:33:14Z</time>
      </trkpt>
      <trkpt lat="45.33347" lon="2.9428">
        <ele>1354.63</ele>
        <time>2021-08-15T10:33:21Z</time>
      </trkpt>
      <trkpt lat="45.33345" lon="2.9428">
        <ele>1354.63</ele>
        <time>2021-08-15T10:33:22Z</time>
      </trkpt>
      <trkpt lat="45.33343" lon="2.9428">
        <ele>1354.63</ele>
        <time>2021-08-15T10:33:23Z</time>
      </trkpt>
      <trkpt lat="45.33342" lon="2.94281">
        <ele>1355.12</ele>
        <time>2021-08-15T10:33:24Z</time>
      </trkpt>
      <trkpt lat="45.3334" lon="2.94281">
        <ele>1355.6</ele>
        <time>2021-08-15T10:33:25Z</time>
      </trkpt>
      <trkpt lat="45.33338" lon="2.94282">
        <ele>1356.08</ele>
        <time>2021-08-15T10:33:26Z</time>
      </trkpt>
      <trkpt lat="45.33336" lon="2.94283">
        <ele>1356.08</ele>
        <time>2021-08-15T10:33:27Z</time>
      </trkpt>
      <trkpt lat="45.33322" lon="2.94296">
        <ele>1357.04</ele>
        <time>2021-08-15T10:33:37Z</time>
      </trkpt>
      <trkpt lat="45.3332" lon="2.94298">
        <ele>1357.52</ele>
        <time>2021-08-15T10:33:39Z</time>
      </trkpt>
      <trkpt lat="45.33319" lon="2.94299">
        <ele>1357.52</ele>
        <time>2021-08-15T10:33:40Z</time>
      </trkpt>
      <trkpt lat="45.33318" lon="2.943">
        <ele>1357.52</ele>
        <time>2021-08-15T10:33:41Z</time>
      </trkpt>
      <trkpt lat="45.33316" lon="2.94301">
        <ele>1358</ele>
        <time>2021-08-15T10:33:42Z</time>
      </trkpt>
      <trkpt lat="45.33315" lon="2.94302">
        <ele>1358</ele>
        <time>2021-08-15T10:33:43Z</time>
      </trkpt>
      <trkpt lat="45.33307" lon="2.94311">
        <ele>1359.44</ele>
        <time>2021-08-15T10:33:50Z</time>
      </trkpt>
      <trkpt lat="45.33297" lon="2.94321">
        <ele>1360.4</ele>
        <time>2021-08-15T10:33:58Z</time>
      </trkpt>
      <trkpt lat="45.33295" lon="2.94322">
        <ele>1360.4</ele>
        <time>2021-08-15T10:33:59Z</time>
      </trkpt>
      <trkpt lat="45.33294" lon="2.94324">
        <ele>1360.4</ele>
        <time>2021-08-15T10:34:00Z</time>
      </trkpt>
      <trkpt lat="45.33294" lon="2.94326">
        <ele>1360.4</ele>
        <time>2021-08-15T10:34:01Z</time>
      </trkpt>
      <trkpt lat="45.33292" lon="2.94326">
        <ele>1360.4</ele>
        <time>2021-08-15T10:34:02Z</time>
      </trkpt>
      <trkpt lat="45.33291" lon="2.94325">
        <ele>1360.4</ele>
        <time>2021-08-15T10:34:03Z</time>
      </trkpt>
      <trkpt lat="45.3329" lon="2.94326">
        <ele>1361.36</ele>
        <time>2021-08-15T10:34:04Z</time>
      </trkpt>
      <trkpt lat="45.33289" lon="2.94327">
        <ele>1361.36</ele>
        <time>2021-08-15T10:34:05Z</time>
      </trkpt>
      <trkpt lat="45.33287" lon="2.94327">
        <ele>1361.36</ele>
        <time>2021-08-15T10:34:06Z</time>
      </trkpt>
      <trkpt lat="45.33286" lon="2.94328">
        <ele>1361.36</ele>
        <time>2021-08-15T10:34:07Z</time>
      </trkpt>
      <trkpt lat="45.33286" lon="2.94328">
        <ele>1361.84</ele>
        <time>2021-08-15T10:34:13Z</time>
      </trkpt>
      <trkpt lat="45.33286" lon="2.94328">
        <ele>1361.84</ele>
        <time>2021-08-15T10:34:26Z</time>
      </trkpt>
      <trkpt lat="45.33285" lon="2.94327">
        <ele>1361.84</ele>
        <time>2021-08-15T10:34:37Z</time>
      </trkpt>
      <trkpt lat="45.33285" lon="2.94327">
        <ele>1361.84</ele>
        <time>2021-08-15T10:34:52Z</time>
      </trkpt>
      <trkpt lat="45.33285" lon="2.94329">
        <ele>1361.84</ele>
        <time>2021-08-15T10:34:56Z</time>
      </trkpt>
      <trkpt lat="45.33278" lon="2.94337">
        <ele>1361.84</ele>
        <time>2021-08-15T10:35:02Z</time>
      </trkpt>
      <trkpt lat="45.33263" lon="2.94349">
        <ele>1362.81</ele>
        <time>2021-08-15T10:35:12Z</time>
      </trkpt>
      <trkpt lat="45.33251" lon="2.94359">
        <ele>1364.25</ele>
        <time>2021-08-15T10:35:21Z</time>
      </trkpt>
      <trkpt lat="45.33243" lon="2.94369">
        <ele>1365.21</ele>
        <time>2021-08-15T10:35:29Z</time>
      </trkpt>
      <trkpt lat="45.33237" lon="2.94379">
        <ele>1366.17</ele>
        <time>2021-08-15T10:35:37Z</time>
      </trkpt>
      <trkpt lat="45.33236" lon="2.94381">
        <ele>1366.17</ele>
        <time>2021-08-15T10:35:38Z</time>
      </trkpt>
      <trkpt lat="45.33231" lon="2.94393">
        <ele>1367.13</ele>
        <time>2021-08-15T10:35:46Z</time>
      </trkpt>
      <trkpt lat="45.33227" lon="2.94408">
        <ele>1368.09</ele>
        <time>2021-08-15T10:35:55Z</time>
      </trkpt>
      <trkpt lat="45.33226" lon="2.9441">
        <ele>1368.57</ele>
        <time>2021-08-15T10:35:56Z</time>
      </trkpt>
      <trkpt lat="45.33225" lon="2.94412">
        <ele>1368.57</ele>
        <time>2021-08-15T10:35:57Z</time>
      </trkpt>
      <trkpt lat="45.33219" lon="2.94431">
        <ele>1369.54</ele>
        <time>2021-08-15T10:36:08Z</time>
      </trkpt>
      <trkpt lat="45.33216" lon="2.94438">
        <ele>1370.5</ele>
        <time>2021-08-15T10:36:12Z</time>
      </trkpt>
      <trkpt lat="45.33215" lon="2.94439">
        <ele>1370.5</ele>
        <time>2021-08-15T10:36:13Z</time>
      </trkpt>
      <trkpt lat="45.33214" lon="2.9444">
        <ele>1370.5</ele>
        <time>2021-08-15T10:36:14Z</time>
      </trkpt>
      <trkpt lat="45.33213" lon="2.94441">
        <ele>1370.98</ele>
        <time>2021-08-15T10:36:15Z</time>
      </trkpt>
      <trkpt lat="45.33212" lon="2.94442">
        <ele>1370.98</ele>
        <time>2021-08-15T10:36:16Z</time>
      </trkpt>
      <trkpt lat="45.33211" lon="2.94444">
        <ele>1370.98</ele>
        <time>2021-08-15T10:36:17Z</time>
      </trkpt>
      <trkpt lat="45.33211" lon="2.94445">
        <ele>1370.98</ele>
        <time>2021-08-15T10:36:18Z</time>
      </trkpt>
      <trkpt lat="45.3321" lon="2.94446">
        <ele>1370.98</ele>
        <time>2021-08-15T10:36:19Z</time>
      </trkpt>
      <trkpt lat="45.33209" lon="2.94448">
        <ele>1370.98</ele>
        <time>2021-08-15T10:36:20Z</time>
      </trkpt>
      <trkpt lat="45.33208" lon="2.94449">
        <ele>1371.46</ele>
        <time>2021-08-15T10:36:21Z</time>
      </trkpt>
      <trkpt lat="45.33207" lon="2.9445">
        <ele>1371.46</ele>
        <time>2021-08-15T10:36:22Z</time>
      </trkpt>
      <trkpt lat="45.33206" lon="2.94452">
        <ele>1371.46</ele>
        <time>2021-08-15T10:36:23Z</time>
      </trkpt>
      <trkpt lat="45.33204" lon="2.94453">
        <ele>1371.46</ele>
        <time>2021-08-15T10:36:24Z</time>
      </trkpt>
      <trkpt lat="45.33203" lon="2.94453">
        <ele>1371.94</ele>
        <time>2021-08-15T10:36:25Z</time>
      </trkpt>
      <trkpt lat="45.33202" lon="2.94454">
        <ele>1371.94</ele>
        <time>2021-08-15T10:36:26Z</time>
      </trkpt>
      <trkpt lat="45.332" lon="2.94456">
        <ele>1372.42</ele>
        <time>2021-08-15T10:36:28Z</time>
      </trkpt>
      <trkpt lat="45.33199" lon="2.94457">
        <ele>1372.42</ele>
        <time>2021-08-15T10:36:29Z</time>
      </trkpt>
      <trkpt lat="45.33198" lon="2.94458">
        <ele>1372.42</ele>
        <time>2021-08-15T10:36:30Z</time>
      </trkpt>
      <trkpt lat="45.33197" lon="2.94459">
        <ele>1372.9</ele>
        <time>2021-08-15T10:36:31Z</time>
      </trkpt>
      <trkpt lat="45.33195" lon="2.9446">
        <ele>1372.9</ele>
        <time>2021-08-15T10:36:32Z</time>
      </trkpt>
      <trkpt lat="45.33193" lon="2.94462">
        <ele>1373.38</ele>
        <time>2021-08-15T10:36:34Z</time>
      </trkpt>
      <trkpt lat="45.33192" lon="2.94463">
        <ele>1373.86</ele>
        <time>2021-08-15T10:36:35Z</time>
      </trkpt>
      <trkpt lat="45.33191" lon="2.94464">
        <ele>1373.86</ele>
        <time>2021-08-15T10:36:36Z</time>
      </trkpt>
      <trkpt lat="45.3319" lon="2.94464">
        <ele>1373.86</ele>
        <time>2021-08-15T10:36:37Z</time>
      </trkpt>
      <trkpt lat="45.33188" lon="2.94466">
        <ele>1373.86</ele>
        <time>2021-08-15T10:36:38Z</time>
      </trkpt>
      <trkpt lat="45.33188" lon="2.94467">
        <ele>1374.34</ele>
        <time>2021-08-15T10:36:39Z</time>
      </trkpt>
      <trkpt lat="45.33187" lon="2.94468">
        <ele>1374.34</ele>
        <time>2021-08-15T10:36:40Z</time>
      </trkpt>
      <trkpt lat="45.33186" lon="2.94469">
        <ele>1374.34</ele>
        <time>2021-08-15T10:36:41Z</time>
      </trkpt>
      <trkpt lat="45.33175" lon="2.94476">
        <ele>1375.78</ele>
        <time>2021-08-15T10:36:50Z</time>
      </trkpt>
      <trkpt lat="45.33174" lon="2.94476">
        <ele>1375.78</ele>
        <time>2021-08-15T10:36:51Z</time>
      </trkpt>
      <trkpt lat="45.33165" lon="2.94483">
        <ele>1377.23</ele>
        <time>2021-08-15T10:36:59Z</time>
      </trkpt>
      <trkpt lat="45.33161" lon="2.94487">
        <ele>1377.71</ele>
        <time>2021-08-15T10:37:03Z</time>
      </trkpt>
      <trkpt lat="45.3316" lon="2.94487">
        <ele>1377.71</ele>
        <time>2021-08-15T10:37:04Z</time>
      </trkpt>
      <trkpt lat="45.33158" lon="2.94488">
        <ele>1378.19</ele>
        <time>2021-08-15T10:37:05Z</time>
      </trkpt>
      <trkpt lat="45.33157" lon="2.94489">
        <ele>1378.19</ele>
        <time>2021-08-15T10:37:06Z</time>
      </trkpt>
      <trkpt lat="45.33156" lon="2.9449">
        <ele>1378.19</ele>
        <time>2021-08-15T10:37:07Z</time>
      </trkpt>
      <trkpt lat="45.33143" lon="2.945">
        <ele>1379.15</ele>
        <time>2021-08-15T10:37:18Z</time>
      </trkpt>
      <trkpt lat="45.33135" lon="2.94504">
        <ele>1380.59</ele>
        <time>2021-08-15T10:37:25Z</time>
      </trkpt>
      <trkpt lat="45.33125" lon="2.94511">
        <ele>1381.55</ele>
        <time>2021-08-15T10:37:33Z</time>
      </trkpt>
      <trkpt lat="45.33124" lon="2.94511">
        <ele>1381.55</ele>
        <time>2021-08-15T10:37:34Z</time>
      </trkpt>
      <trkpt lat="45.33123" lon="2.94512">
        <ele>1382.03</ele>
        <time>2021-08-15T10:37:35Z</time>
      </trkpt>
      <trkpt lat="45.33122" lon="2.94513">
        <ele>1382.03</ele>
        <time>2021-08-15T10:37:36Z</time>
      </trkpt>
      <trkpt lat="45.33121" lon="2.94514">
        <ele>1382.03</ele>
        <time>2021-08-15T10:37:37Z</time>
      </trkpt>
      <trkpt lat="45.33119" lon="2.94514">
        <ele>1382.03</ele>
        <time>2021-08-15T10:37:38Z</time>
      </trkpt>
      <trkpt lat="45.33118" lon="2.94515">
        <ele>1382.51</ele>
        <time>2021-08-15T10:37:39Z</time>
      </trkpt>
      <trkpt lat="45.33117" lon="2.94515">
        <ele>1382.51</ele>
        <time>2021-08-15T10:37:40Z</time>
      </trkpt>
      <trkpt lat="45.33106" lon="2.94523">
        <ele>1383.96</ele>
        <time>2021-08-15T10:37:50Z</time>
      </trkpt>
      <trkpt lat="45.33096" lon="2.94532">
        <ele>1384.92</ele>
        <time>2021-08-15T10:37:59Z</time>
      </trkpt>
      <trkpt lat="45.33087" lon="2.94539">
        <ele>1385.88</ele>
        <time>2021-08-15T10:38:07Z</time>
      </trkpt>
      <trkpt lat="45.33079" lon="2.94545">
        <ele>1386.84</ele>
        <time>2021-08-15T10:38:14Z</time>
      </trkpt>
      <trkpt lat="45.3307" lon="2.94555">
        <ele>1387.8</ele>
        <time>2021-08-15T10:38:22Z</time>
      </trkpt>
      <trkpt lat="45.3306" lon="2.94564">
        <ele>1389.72</ele>
        <time>2021-08-15T10:38:30Z</time>
      </trkpt>
      <trkpt lat="45.33049" lon="2.94572">
        <ele>1390.68</ele>
        <time>2021-08-15T10:38:38Z</time>
      </trkpt>
      <trkpt lat="45.33037" lon="2.94581">
        <ele>1391.65</ele>
        <time>2021-08-15T10:38:46Z</time>
      </trkpt>
      <trkpt lat="45.33027" lon="2.94588">
        <ele>1392.61</ele>
        <time>2021-08-15T10:38:53Z</time>
      </trkpt>
      <trkpt lat="45.33016" lon="2.94602">
        <ele>1394.05</ele>
        <time>2021-08-15T10:39:02Z</time>
      </trkpt>
      <trkpt lat="45.33007" lon="2.94616">
        <ele>1395.01</ele>
        <time>2021-08-15T10:39:10Z</time>
      </trkpt>
      <trkpt lat="45.32998" lon="2.94628">
        <ele>1395.97</ele>
        <time>2021-08-15T10:39:18Z</time>
      </trkpt>
      <trkpt lat="45.32988" lon="2.94643">
        <ele>1397.41</ele>
        <time>2021-08-15T10:39:26Z</time>
      </trkpt>
      <trkpt lat="45.3298" lon="2.94653">
        <ele>1398.86</ele>
        <time>2021-08-15T10:39:34Z</time>
      </trkpt>
      <trkpt lat="45.32973" lon="2.94663">
        <ele>1399.82</ele>
        <time>2021-08-15T10:39:41Z</time>
      </trkpt>
      <trkpt lat="45.32964" lon="2.94676">
        <ele>1401.26</ele>
        <time>2021-08-15T10:39:51Z</time>
      </trkpt>
      <trkpt lat="45.32953" lon="2.94688">
        <ele>1402.7</ele>
        <time>2021-08-15T10:40:01Z</time>
      </trkpt>
      <trkpt lat="45.32952" lon="2.9469">
        <ele>1402.22</ele>
        <time>2021-08-15T10:40:02Z</time>
      </trkpt>
      <trkpt lat="45.32951" lon="2.94691">
        <ele>1402.22</ele>
        <time>2021-08-15T10:40:03Z</time>
      </trkpt>
      <trkpt lat="45.3295" lon="2.94693">
        <ele>1402.22</ele>
        <time>2021-08-15T10:40:04Z</time>
      </trkpt>
      <trkpt lat="45.32946" lon="2.94701">
        <ele>1403.66</ele>
        <time>2021-08-15T10:40:09Z</time>
      </trkpt>
      <trkpt lat="45.32946" lon="2.94702">
        <ele>1403.66</ele>
        <time>2021-08-15T10:40:10Z</time>
      </trkpt>
      <trkpt lat="45.32939" lon="2.94718">
        <ele>1404.62</ele>
        <time>2021-08-15T10:40:20Z</time>
      </trkpt>
      <trkpt lat="45.32932" lon="2.94739">
        <ele>1406.55</ele>
        <time>2021-08-15T10:40:32Z</time>
      </trkpt>
      <trkpt lat="45.32925" lon="2.94752">
        <ele>1407.99</ele>
        <time>2021-08-15T10:40:41Z</time>
      </trkpt>
      <trkpt lat="45.32921" lon="2.94759">
        <ele>1408.47</ele>
        <time>2021-08-15T10:40:46Z</time>
      </trkpt>
      <trkpt lat="45.3292" lon="2.9476">
        <ele>1408.47</ele>
        <time>2021-08-15T10:40:47Z</time>
      </trkpt>
      <trkpt lat="45.32919" lon="2.94761">
        <ele>1408.95</ele>
        <time>2021-08-15T10:40:48Z</time>
      </trkpt>
      <trkpt lat="45.32919" lon="2.94763">
        <ele>1408.95</ele>
        <time>2021-08-15T10:40:49Z</time>
      </trkpt>
      <trkpt lat="45.32918" lon="2.94764">
        <ele>1408.95</ele>
        <time>2021-08-15T10:40:50Z</time>
      </trkpt>
      <trkpt lat="45.32916" lon="2.94765">
        <ele>1409.43</ele>
        <time>2021-08-15T10:40:51Z</time>
      </trkpt>
      <trkpt lat="45.32915" lon="2.94767">
        <ele>1409.43</ele>
        <time>2021-08-15T10:40:52Z</time>
      </trkpt>
      <trkpt lat="45.32914" lon="2.94768">
        <ele>1409.91</ele>
        <time>2021-08-15T10:40:53Z</time>
      </trkpt>
      <trkpt lat="45.32913" lon="2.94769">
        <ele>1409.91</ele>
        <time>2021-08-15T10:40:54Z</time>
      </trkpt>
      <trkpt lat="45.32912" lon="2.94771">
        <ele>1409.91</ele>
        <time>2021-08-15T10:40:55Z</time>
      </trkpt>
      <trkpt lat="45.32911" lon="2.94772">
        <ele>1410.39</ele>
        <time>2021-08-15T10:40:56Z</time>
      </trkpt>
      <trkpt lat="45.3291" lon="2.94773">
        <ele>1410.39</ele>
        <time>2021-08-15T10:40:57Z</time>
      </trkpt>
      <trkpt lat="45.32909" lon="2.94774">
        <ele>1410.39</ele>
        <time>2021-08-15T10:40:58Z</time>
      </trkpt>
      <trkpt lat="45.32908" lon="2.94776">
        <ele>1410.87</ele>
        <time>2021-08-15T10:40:59Z</time>
      </trkpt>
      <trkpt lat="45.32908" lon="2.94778">
        <ele>1410.87</ele>
        <time>2021-08-15T10:41:00Z</time>
      </trkpt>
      <trkpt lat="45.32907" lon="2.94779">
        <ele>1410.87</ele>
        <time>2021-08-15T10:41:01Z</time>
      </trkpt>
      <trkpt lat="45.32904" lon="2.94784">
        <ele>1410.87</ele>
        <time>2021-08-15T10:41:05Z</time>
      </trkpt>
      <trkpt lat="45.32903" lon="2.94786">
        <ele>1410.87</ele>
        <time>2021-08-15T10:41:06Z</time>
      </trkpt>
      <trkpt lat="45.32902" lon="2.94787">
        <ele>1410.87</ele>
        <time>2021-08-15T10:41:07Z</time>
      </trkpt>
      <trkpt lat="45.32901" lon="2.94788">
        <ele>1410.87</ele>
        <time>2021-08-15T10:41:08Z</time>
      </trkpt>
      <trkpt lat="45.329" lon="2.94789">
        <ele>1410.87</ele>
        <time>2021-08-15T10:41:09Z</time>
      </trkpt>
      <trkpt lat="45.32899" lon="2.94791">
        <ele>1411.35</ele>
        <time>2021-08-15T10:41:10Z</time>
      </trkpt>
      <trkpt lat="45.3289" lon="2.94802">
        <ele>1412.79</ele>
        <time>2021-08-15T10:41:19Z</time>
      </trkpt>
      <trkpt lat="45.32888" lon="2.94805">
        <ele>1412.79</ele>
        <time>2021-08-15T10:41:21Z</time>
      </trkpt>
      <trkpt lat="45.32885" lon="2.9481">
        <ele>1413.28</ele>
        <time>2021-08-15T10:41:25Z</time>
      </trkpt>
      <trkpt lat="45.32884" lon="2.94812">
        <ele>1413.28</ele>
        <time>2021-08-15T10:41:26Z</time>
      </trkpt>
      <trkpt lat="45.32874" lon="2.94826">
        <ele>1414.72</ele>
        <time>2021-08-15T10:41:36Z</time>
      </trkpt>
      <trkpt lat="45.32868" lon="2.94839">
        <ele>1415.68</ele>
        <time>2021-08-15T10:41:44Z</time>
      </trkpt>
      <trkpt lat="45.32861" lon="2.94853">
        <ele>1416.64</ele>
        <time>2021-08-15T10:41:53Z</time>
      </trkpt>
      <trkpt lat="45.32856" lon="2.94867">
        <ele>1417.6</ele>
        <time>2021-08-15T10:42:01Z</time>
      </trkpt>
      <trkpt lat="45.32853" lon="2.94881">
        <ele>1418.56</ele>
        <time>2021-08-15T10:42:09Z</time>
      </trkpt>
      <trkpt lat="45.3285" lon="2.94889">
        <ele>1419.52</ele>
        <time>2021-08-15T10:42:14Z</time>
      </trkpt>
      <trkpt lat="45.3285" lon="2.94891">
        <ele>1419.52</ele>
        <time>2021-08-15T10:42:15Z</time>
      </trkpt>
      <trkpt lat="45.32849" lon="2.94894">
        <ele>1420</ele>
        <time>2021-08-15T10:42:17Z</time>
      </trkpt>
      <trkpt lat="45.32848" lon="2.94895">
        <ele>1420</ele>
        <time>2021-08-15T10:42:18Z</time>
      </trkpt>
      <trkpt lat="45.32847" lon="2.94896">
        <ele>1420</ele>
        <time>2021-08-15T10:42:19Z</time>
      </trkpt>
      <trkpt lat="45.32847" lon="2.94898">
        <ele>1420.49</ele>
        <time>2021-08-15T10:42:20Z</time>
      </trkpt>
      <trkpt lat="45.32846" lon="2.94899">
        <ele>1420.49</ele>
        <time>2021-08-15T10:42:21Z</time>
      </trkpt>
      <trkpt lat="45.32845" lon="2.949">
        <ele>1420.49</ele>
        <time>2021-08-15T10:42:22Z</time>
      </trkpt>
      <trkpt lat="45.32844" lon="2.94906">
        <ele>1420.49</ele>
        <time>2021-08-15T10:42:25Z</time>
      </trkpt>
      <trkpt lat="45.32842" lon="2.94908">
        <ele>1420.49</ele>
        <time>2021-08-15T10:42:26Z</time>
      </trkpt>
      <trkpt lat="45.32841" lon="2.94909">
        <ele>1420.49</ele>
        <time>2021-08-15T10:42:27Z</time>
      </trkpt>
      <trkpt lat="45.3284" lon="2.9491">
        <ele>1420.97</ele>
        <time>2021-08-15T10:42:28Z</time>
      </trkpt>
      <trkpt lat="45.32839" lon="2.94911">
        <ele>1420.97</ele>
        <time>2021-08-15T10:42:29Z</time>
      </trkpt>
      <trkpt lat="45.32837" lon="2.94912">
        <ele>1420.97</ele>
        <time>2021-08-15T10:42:30Z</time>
      </trkpt>
      <trkpt lat="45.32836" lon="2.94913">
        <ele>1420.97</ele>
        <time>2021-08-15T10:42:31Z</time>
      </trkpt>
      <trkpt lat="45.32835" lon="2.94915">
        <ele>1420.97</ele>
        <time>2021-08-15T10:42:32Z</time>
      </trkpt>
      <trkpt lat="45.32834" lon="2.94916">
        <ele>1421.45</ele>
        <time>2021-08-15T10:42:33Z</time>
      </trkpt>
      <trkpt lat="45.32833" lon="2.94917">
        <ele>1421.45</ele>
        <time>2021-08-15T10:42:34Z</time>
      </trkpt>
      <trkpt lat="45.32831" lon="2.94918">
        <ele>1421.45</ele>
        <time>2021-08-15T10:42:35Z</time>
      </trkpt>
      <trkpt lat="45.3283" lon="2.94918">
        <ele>1421.45</ele>
        <time>2021-08-15T10:42:36Z</time>
      </trkpt>
      <trkpt lat="45.32828" lon="2.94919">
        <ele>1421.45</ele>
        <time>2021-08-15T10:42:37Z</time>
      </trkpt>
      <trkpt lat="45.32827" lon="2.9492">
        <ele>1421.93</ele>
        <time>2021-08-15T10:42:38Z</time>
      </trkpt>
      <trkpt lat="45.32825" lon="2.94921">
        <ele>1422.41</ele>
        <time>2021-08-15T10:42:39Z</time>
      </trkpt>
      <trkpt lat="45.32824" lon="2.94922">
        <ele>1422.41</ele>
        <time>2021-08-15T10:42:40Z</time>
      </trkpt>
      <trkpt lat="45.32822" lon="2.94922">
        <ele>1422.41</ele>
        <time>2021-08-15T10:42:41Z</time>
      </trkpt>
      <trkpt lat="45.32821" lon="2.94922">
        <ele>1422.41</ele>
        <time>2021-08-15T10:42:42Z</time>
      </trkpt>
      <trkpt lat="45.3282" lon="2.94923">
        <ele>1422.41</ele>
        <time>2021-08-15T10:42:43Z</time>
      </trkpt>
      <trkpt lat="45.32818" lon="2.94923">
        <ele>1422.41</ele>
        <time>2021-08-15T10:42:44Z</time>
      </trkpt>
      <trkpt lat="45.32817" lon="2.94922">
        <ele>1422.89</ele>
        <time>2021-08-15T10:42:45Z</time>
      </trkpt>
      <trkpt lat="45.32805" lon="2.94921">
        <ele>1424.33</ele>
        <time>2021-08-15T10:42:53Z</time>
      </trkpt>
      <trkpt lat="45.32787" lon="2.94922">
        <ele>1425.29</ele>
        <time>2021-08-15T10:43:03Z</time>
      </trkpt>
      <trkpt lat="45.32773" lon="2.94926">
        <ele>1425.77</ele>
        <time>2021-08-15T10:43:11Z</time>
      </trkpt>
      <trkpt lat="45.32752" lon="2.94931">
        <ele>1426.25</ele>
        <time>2021-08-15T10:43:20Z</time>
      </trkpt>
      <trkpt lat="45.32727" lon="2.94927">
        <ele>1427.7</ele>
        <time>2021-08-15T10:43:30Z</time>
      </trkpt>
      <trkpt lat="45.3271" lon="2.94922">
        <ele>1429.14</ele>
        <time>2021-08-15T10:43:40Z</time>
      </trkpt>
      <trkpt lat="45.32692" lon="2.94915">
        <ele>1430.58</ele>
        <time>2021-08-15T10:43:50Z</time>
      </trkpt>
      <trkpt lat="45.32676" lon="2.94905">
        <ele>1431.54</ele>
        <time>2021-08-15T10:43:58Z</time>
      </trkpt>
      <trkpt lat="45.32662" lon="2.94899">
        <ele>1432.5</ele>
        <time>2021-08-15T10:44:05Z</time>
      </trkpt>
      <trkpt lat="45.32642" lon="2.94892">
        <ele>1432.98</ele>
        <time>2021-08-15T10:44:14Z</time>
      </trkpt>
      <trkpt lat="45.32621" lon="2.94893">
        <ele>1434.91</ele>
        <time>2021-08-15T10:44:23Z</time>
      </trkpt>
      <trkpt lat="45.32602" lon="2.94894">
        <ele>1436.35</ele>
        <time>2021-08-15T10:44:31Z</time>
      </trkpt>
      <trkpt lat="45.32589" lon="2.94895">
        <ele>1436.83</ele>
        <time>2021-08-15T10:44:38Z</time>
      </trkpt>
      <trkpt lat="45.32574" lon="2.94897">
        <ele>1439.23</ele>
        <time>2021-08-15T10:44:47Z</time>
      </trkpt>
      <trkpt lat="45.32562" lon="2.94898">
        <ele>1440.19</ele>
        <time>2021-08-15T10:44:56Z</time>
      </trkpt>
      <trkpt lat="45.32552" lon="2.94899">
        <ele>1441.63</ele>
        <time>2021-08-15T10:45:04Z</time>
      </trkpt>
      <trkpt lat="45.3254" lon="2.949">
        <ele>1442.6</ele>
        <time>2021-08-15T10:45:13Z</time>
      </trkpt>
      <trkpt lat="45.32529" lon="2.94901">
        <ele>1443.56</ele>
        <time>2021-08-15T10:45:21Z</time>
      </trkpt>
      <trkpt lat="45.32516" lon="2.94902">
        <ele>1445</ele>
        <time>2021-08-15T10:45:30Z</time>
      </trkpt>
      <trkpt lat="45.32502" lon="2.94901">
        <ele>1445.96</ele>
        <time>2021-08-15T10:45:39Z</time>
      </trkpt>
      <trkpt lat="45.32501" lon="2.94901">
        <ele>1445.96</ele>
        <time>2021-08-15T10:45:44Z</time>
      </trkpt>
      <trkpt lat="45.32501" lon="2.949">
        <ele>1445.96</ele>
        <time>2021-08-15T10:45:51Z</time>
      </trkpt>
      <trkpt lat="45.32499" lon="2.94901">
        <ele>1446.44</ele>
        <time>2021-08-15T10:46:02Z</time>
      </trkpt>
      <trkpt lat="45.32498" lon="2.94901">
        <ele>1446.44</ele>
        <time>2021-08-15T10:46:05Z</time>
      </trkpt>
      <trkpt lat="45.32497" lon="2.94902">
        <ele>1446.44</ele>
        <time>2021-08-15T10:46:06Z</time>
      </trkpt>
      <trkpt lat="45.32496" lon="2.94902">
        <ele>1446.44</ele>
        <time>2021-08-15T10:46:07Z</time>
      </trkpt>
      <trkpt lat="45.32495" lon="2.94902">
        <ele>1446.44</ele>
        <time>2021-08-15T10:46:08Z</time>
      </trkpt>
      <trkpt lat="45.32493" lon="2.94902">
        <ele>1446.44</ele>
        <time>2021-08-15T10:46:09Z</time>
      </trkpt>
      <trkpt lat="45.32492" lon="2.94901">
        <ele>1446.44</ele>
        <time>2021-08-15T10:46:10Z</time>
      </trkpt>
      <trkpt lat="45.3249" lon="2.94901">
        <ele>1446.44</ele>
        <time>2021-08-15T10:46:11Z</time>
      </trkpt>
      <trkpt lat="45.32477" lon="2.94905">
        <ele>1447.4</ele>
        <time>2021-08-15T10:46:19Z</time>
      </trkpt>
      <trkpt lat="45.32463" lon="2.94906">
        <ele>1448.84</ele>
        <time>2021-08-15T10:46:27Z</time>
      </trkpt>
      <trkpt lat="45.32448" lon="2.94908">
        <ele>1449.32</ele>
        <time>2021-08-15T10:46:36Z</time>
      </trkpt>
      <trkpt lat="45.32429" lon="2.9491">
        <ele>1450.29</ele>
        <time>2021-08-15T10:46:46Z</time>
      </trkpt>
      <trkpt lat="45.32411" lon="2.94912">
        <ele>1450.77</ele>
        <time>2021-08-15T10:46:53Z</time>
      </trkpt>
      <trkpt lat="45.32379" lon="2.94916">
        <ele>1450.77</ele>
        <time>2021-08-15T10:47:02Z</time>
      </trkpt>
      <trkpt lat="45.32341" lon="2.9492">
        <ele>1448.84</ele>
        <time>2021-08-15T10:47:09Z</time>
      </trkpt>
      <trkpt lat="45.32305" lon="2.94924">
        <ele>1445.96</ele>
        <time>2021-08-15T10:47:14Z</time>
      </trkpt>
      <trkpt lat="45.32297" lon="2.94925">
        <ele>1445.48</ele>
        <time>2021-08-15T10:47:15Z</time>
      </trkpt>
      <trkpt lat="45.3229" lon="2.94926">
        <ele>1445.48</ele>
        <time>2021-08-15T10:47:16Z</time>
      </trkpt>
      <trkpt lat="45.32277" lon="2.94928">
        <ele>1446.44</ele>
        <time>2021-08-15T10:47:18Z</time>
      </trkpt>
      <trkpt lat="45.32261" lon="2.94929">
        <ele>1447.88</ele>
        <time>2021-08-15T10:47:21Z</time>
      </trkpt>
      <trkpt lat="45.32256" lon="2.94929">
        <ele>1448.36</ele>
        <time>2021-08-15T10:47:22Z</time>
      </trkpt>
      <trkpt lat="45.32239" lon="2.94932">
        <ele>1449.81</ele>
        <time>2021-08-15T10:47:26Z</time>
      </trkpt>
      <trkpt lat="45.32202" lon="2.94935">
        <ele>1450.77</ele>
        <time>2021-08-15T10:47:35Z</time>
      </trkpt>
      <trkpt lat="45.32157" lon="2.9494">
        <ele>1453.17</ele>
        <time>2021-08-15T10:47:46Z</time>
      </trkpt>
      <trkpt lat="45.32133" lon="2.94941">
        <ele>1452.69</ele>
        <time>2021-08-15T10:47:53Z</time>
      </trkpt>
      <trkpt lat="45.32106" lon="2.94931">
        <ele>1451.25</ele>
        <time>2021-08-15T10:48:02Z</time>
      </trkpt>
      <trkpt lat="45.3209" lon="2.94923">
        <ele>1450.29</ele>
        <time>2021-08-15T10:48:07Z</time>
      </trkpt>
      <trkpt lat="45.32086" lon="2.94921">
        <ele>1450.29</ele>
        <time>2021-08-15T10:48:08Z</time>
      </trkpt>
      <trkpt lat="45.32081" lon="2.9492">
        <ele>1449.32</ele>
        <time>2021-08-15T10:48:09Z</time>
      </trkpt>
      <trkpt lat="45.32077" lon="2.94918">
        <ele>1449.32</ele>
        <time>2021-08-15T10:48:10Z</time>
      </trkpt>
      <trkpt lat="45.32072" lon="2.94915">
        <ele>1448.36</ele>
        <time>2021-08-15T10:48:11Z</time>
      </trkpt>
      <trkpt lat="45.32067" lon="2.94914">
        <ele>1447.88</ele>
        <time>2021-08-15T10:48:12Z</time>
      </trkpt>
      <trkpt lat="45.32061" lon="2.94913">
        <ele>1447.4</ele>
        <time>2021-08-15T10:48:13Z</time>
      </trkpt>
      <trkpt lat="45.32019" lon="2.94918">
        <ele>1444.52</ele>
        <time>2021-08-15T10:48:20Z</time>
      </trkpt>
      <trkpt lat="45.32007" lon="2.94924">
        <ele>1443.56</ele>
        <time>2021-08-15T10:48:22Z</time>
      </trkpt>
      <trkpt lat="45.31971" lon="2.94941">
        <ele>1441.63</ele>
        <time>2021-08-15T10:48:28Z</time>
      </trkpt>
      <trkpt lat="45.31965" lon="2.94945">
        <ele>1441.63</ele>
        <time>2021-08-15T10:48:29Z</time>
      </trkpt>
      <trkpt lat="45.31959" lon="2.94951">
        <ele>1441.63</ele>
        <time>2021-08-15T10:48:30Z</time>
      </trkpt>
      <trkpt lat="45.31955" lon="2.94958">
        <ele>1441.63</ele>
        <time>2021-08-15T10:48:31Z</time>
      </trkpt>
      <trkpt lat="45.31952" lon="2.94965">
        <ele>1441.15</ele>
        <time>2021-08-15T10:48:32Z</time>
      </trkpt>
      <trkpt lat="45.31949" lon="2.94974">
        <ele>1441.15</ele>
        <time>2021-08-15T10:48:33Z</time>
      </trkpt>
      <trkpt lat="45.31948" lon="2.94985">
        <ele>1439.71</ele>
        <time>2021-08-15T10:48:34Z</time>
      </trkpt>
      <trkpt lat="45.31947" lon="2.94995">
        <ele>1439.71</ele>
        <time>2021-08-15T10:48:35Z</time>
      </trkpt>
      <trkpt lat="45.31946" lon="2.95006">
        <ele>1439.23</ele>
        <time>2021-08-15T10:48:36Z</time>
      </trkpt>
      <trkpt lat="45.31945" lon="2.95017">
        <ele>1439.23</ele>
        <time>2021-08-15T10:48:37Z</time>
      </trkpt>
      <trkpt lat="45.31946" lon="2.95039">
        <ele>1439.23</ele>
        <time>2021-08-15T10:48:39Z</time>
      </trkpt>
      <trkpt lat="45.31948" lon="2.95049">
        <ele>1438.75</ele>
        <time>2021-08-15T10:48:40Z</time>
      </trkpt>
      <trkpt lat="45.3195" lon="2.9506">
        <ele>1438.75</ele>
        <time>2021-08-15T10:48:41Z</time>
      </trkpt>
      <trkpt lat="45.31965" lon="2.95114">
        <ele>1436.35</ele>
        <time>2021-08-15T10:48:46Z</time>
      </trkpt>
      <trkpt lat="45.31971" lon="2.9517">
        <ele>1434.91</ele>
        <time>2021-08-15T10:48:51Z</time>
      </trkpt>
      <trkpt lat="45.31971" lon="2.95191">
        <ele>1433.46</ele>
        <time>2021-08-15T10:48:53Z</time>
      </trkpt>
      <trkpt lat="45.31969" lon="2.95202">
        <ele>1432.98</ele>
        <time>2021-08-15T10:48:54Z</time>
      </trkpt>
      <trkpt lat="45.31966" lon="2.95211">
        <ele>1432.98</ele>
        <time>2021-08-15T10:48:55Z</time>
      </trkpt>
      <trkpt lat="45.3196" lon="2.95219">
        <ele>1431.54</ele>
        <time>2021-08-15T10:48:56Z</time>
      </trkpt>
      <trkpt lat="45.31954" lon="2.95225">
        <ele>1430.58</ele>
        <time>2021-08-15T10:48:57Z</time>
      </trkpt>
      <trkpt lat="45.31947" lon="2.95228">
        <ele>1430.1</ele>
        <time>2021-08-15T10:48:58Z</time>
      </trkpt>
      <trkpt lat="45.31939" lon="2.95229">
        <ele>1429.14</ele>
        <time>2021-08-15T10:48:59Z</time>
      </trkpt>
      <trkpt lat="45.31932" lon="2.95228">
        <ele>1429.14</ele>
        <time>2021-08-15T10:49:00Z</time>
      </trkpt>
      <trkpt lat="45.31923" lon="2.95228">
        <ele>1428.66</ele>
        <time>2021-08-15T10:49:01Z</time>
      </trkpt>
      <trkpt lat="45.31916" lon="2.95229">
        <ele>1427.7</ele>
        <time>2021-08-15T10:49:02Z</time>
      </trkpt>
      <trkpt lat="45.31907" lon="2.95231">
        <ele>1426.73</ele>
        <time>2021-08-15T10:49:03Z</time>
      </trkpt>
      <trkpt lat="45.319" lon="2.95234">
        <ele>1426.73</ele>
        <time>2021-08-15T10:49:04Z</time>
      </trkpt>
      <trkpt lat="45.31892" lon="2.95238">
        <ele>1426.73</ele>
        <time>2021-08-15T10:49:05Z</time>
      </trkpt>
      <trkpt lat="45.31885" lon="2.95243">
        <ele>1426.73</ele>
        <time>2021-08-15T10:49:06Z</time>
      </trkpt>
      <trkpt lat="45.31878" lon="2.9525">
        <ele>1426.25</ele>
        <time>2021-08-15T10:49:07Z</time>
      </trkpt>
      <trkpt lat="45.31871" lon="2.95259">
        <ele>1424.81</ele>
        <time>2021-08-15T10:49:08Z</time>
      </trkpt>
      <trkpt lat="45.31866" lon="2.95268">
        <ele>1424.81</ele>
        <time>2021-08-15T10:49:09Z</time>
      </trkpt>
      <trkpt lat="45.31861" lon="2.95279">
        <ele>1424.33</ele>
        <time>2021-08-15T10:49:10Z</time>
      </trkpt>
      <trkpt lat="45.31858" lon="2.9529">
        <ele>1424.33</ele>
        <time>2021-08-15T10:49:11Z</time>
      </trkpt>
      <trkpt lat="45.31856" lon="2.95303">
        <ele>1423.85</ele>
        <time>2021-08-15T10:49:12Z</time>
      </trkpt>
      <trkpt lat="45.31854" lon="2.95315">
        <ele>1423.37</ele>
        <time>2021-08-15T10:49:13Z</time>
      </trkpt>
      <trkpt lat="45.31853" lon="2.95328">
        <ele>1422.89</ele>
        <time>2021-08-15T10:49:14Z</time>
      </trkpt>
      <trkpt lat="45.31853" lon="2.95342">
        <ele>1422.41</ele>
        <time>2021-08-15T10:49:15Z</time>
      </trkpt>
      <trkpt lat="45.31852" lon="2.95354">
        <ele>1421.93</ele>
        <time>2021-08-15T10:49:16Z</time>
      </trkpt>
      <trkpt lat="45.3185" lon="2.95366">
        <ele>1421.45</ele>
        <time>2021-08-15T10:49:17Z</time>
      </trkpt>
      <trkpt lat="45.31846" lon="2.95379">
        <ele>1420.49</ele>
        <time>2021-08-15T10:49:18Z</time>
      </trkpt>
      <trkpt lat="45.31843" lon="2.95389">
        <ele>1420</ele>
        <time>2021-08-15T10:49:19Z</time>
      </trkpt>
      <trkpt lat="45.31838" lon="2.954">
        <ele>1420</ele>
        <time>2021-08-15T10:49:20Z</time>
      </trkpt>
      <trkpt lat="45.31832" lon="2.95409">
        <ele>1420</ele>
        <time>2021-08-15T10:49:21Z</time>
      </trkpt>
      <trkpt lat="45.31826" lon="2.95416">
        <ele>1419.04</ele>
        <time>2021-08-15T10:49:22Z</time>
      </trkpt>
      <trkpt lat="45.31818" lon="2.9542">
        <ele>1417.6</ele>
        <time>2021-08-15T10:49:23Z</time>
      </trkpt>
      <trkpt lat="45.3181" lon="2.95423">
        <ele>1416.64</ele>
        <time>2021-08-15T10:49:24Z</time>
      </trkpt>
      <trkpt lat="45.31802" lon="2.95424">
        <ele>1416.16</ele>
        <time>2021-08-15T10:49:25Z</time>
      </trkpt>
      <trkpt lat="45.31794" lon="2.95424">
        <ele>1416.16</ele>
        <time>2021-08-15T10:49:26Z</time>
      </trkpt>
      <trkpt lat="45.31786" lon="2.95423">
        <ele>1416.16</ele>
        <time>2021-08-15T10:49:27Z</time>
      </trkpt>
      <trkpt lat="45.31778" lon="2.95421">
        <ele>1415.68</ele>
        <time>2021-08-15T10:49:28Z</time>
      </trkpt>
      <trkpt lat="45.31754" lon="2.95415">
        <ele>1414.72</ele>
        <time>2021-08-15T10:49:31Z</time>
      </trkpt>
      <trkpt lat="45.31706" lon="2.95403">
        <ele>1411.83</ele>
        <time>2021-08-15T10:49:37Z</time>
      </trkpt>
      <trkpt lat="45.31654" lon="2.95392">
        <ele>1410.39</ele>
        <time>2021-08-15T10:49:44Z</time>
      </trkpt>
      <trkpt lat="45.31647" lon="2.95388">
        <ele>1409.91</ele>
        <time>2021-08-15T10:49:45Z</time>
      </trkpt>
      <trkpt lat="45.3164" lon="2.95383">
        <ele>1408.95</ele>
        <time>2021-08-15T10:49:46Z</time>
      </trkpt>
      <trkpt lat="45.31634" lon="2.95378">
        <ele>1408.95</ele>
        <time>2021-08-15T10:49:47Z</time>
      </trkpt>
      <trkpt lat="45.31629" lon="2.95372">
        <ele>1408.47</ele>
        <time>2021-08-15T10:49:48Z</time>
      </trkpt>
      <trkpt lat="45.31618" lon="2.95361">
        <ele>1407.51</ele>
        <time>2021-08-15T10:49:50Z</time>
      </trkpt>
      <trkpt lat="45.31601" lon="2.95345">
        <ele>1406.07</ele>
        <time>2021-08-15T10:49:53Z</time>
      </trkpt>
      <trkpt lat="45.31569" lon="2.95316">
        <ele>1402.7</ele>
        <time>2021-08-15T10:49:58Z</time>
      </trkpt>
      <trkpt lat="45.31528" lon="2.95279">
        <ele>1399.34</ele>
        <time>2021-08-15T10:50:04Z</time>
      </trkpt>
      <trkpt lat="45.3152" lon="2.95277">
        <ele>1399.34</ele>
        <time>2021-08-15T10:50:05Z</time>
      </trkpt>
      <trkpt lat="45.31512" lon="2.95277">
        <ele>1398.37</ele>
        <time>2021-08-15T10:50:06Z</time>
      </trkpt>
      <trkpt lat="45.31504" lon="2.95279">
        <ele>1398.37</ele>
        <time>2021-08-15T10:50:07Z</time>
      </trkpt>
      <trkpt lat="45.31496" lon="2.9528">
        <ele>1397.89</ele>
        <time>2021-08-15T10:50:08Z</time>
      </trkpt>
      <trkpt lat="45.31487" lon="2.95279">
        <ele>1396.93</ele>
        <time>2021-08-15T10:50:09Z</time>
      </trkpt>
      <trkpt lat="45.31479" lon="2.95278">
        <ele>1396.93</ele>
        <time>2021-08-15T10:50:10Z</time>
      </trkpt>
      <trkpt lat="45.31453" lon="2.95275">
        <ele>1395.01</ele>
        <time>2021-08-15T10:50:13Z</time>
      </trkpt>
      <trkpt lat="45.31432" lon="2.95272">
        <ele>1393.57</ele>
        <time>2021-08-15T10:50:16Z</time>
      </trkpt>
      <trkpt lat="45.31426" lon="2.95268">
        <ele>1392.61</ele>
        <time>2021-08-15T10:50:17Z</time>
      </trkpt>
      <trkpt lat="45.31407" lon="2.95257">
        <ele>1390.68</ele>
        <time>2021-08-15T10:50:20Z</time>
      </trkpt>
      <trkpt lat="45.31393" lon="2.95252">
        <ele>1387.8</ele>
        <time>2021-08-15T10:50:22Z</time>
      </trkpt>
      <trkpt lat="45.31362" lon="2.95236">
        <ele>1384.92</ele>
        <time>2021-08-15T10:50:27Z</time>
      </trkpt>
      <trkpt lat="45.31356" lon="2.95232">
        <ele>1384.92</ele>
        <time>2021-08-15T10:50:28Z</time>
      </trkpt>
      <trkpt lat="45.31337" lon="2.95219">
        <ele>1383.47</ele>
        <time>2021-08-15T10:50:32Z</time>
      </trkpt>
      <trkpt lat="45.31319" lon="2.95204">
        <ele>1382.51</ele>
        <time>2021-08-15T10:50:39Z</time>
      </trkpt>
      <trkpt lat="45.3131" lon="2.95196">
        <ele>1382.03</ele>
        <time>2021-08-15T10:50:46Z</time>
      </trkpt>
      <trkpt lat="45.31307" lon="2.95193">
        <ele>1381.55</ele>
        <time>2021-08-15T10:50:48Z</time>
      </trkpt>
      <trkpt lat="45.31305" lon="2.95192">
        <ele>1381.55</ele>
        <time>2021-08-15T10:50:49Z</time>
      </trkpt>
      <trkpt lat="45.31303" lon="2.95189">
        <ele>1381.55</ele>
        <time>2021-08-15T10:50:50Z</time>
      </trkpt>
      <trkpt lat="45.313" lon="2.95187">
        <ele>1381.55</ele>
        <time>2021-08-15T10:50:51Z</time>
      </trkpt>
      <trkpt lat="45.31297" lon="2.95184">
        <ele>1381.55</ele>
        <time>2021-08-15T10:50:52Z</time>
      </trkpt>
      <trkpt lat="45.31293" lon="2.95181">
        <ele>1381.07</ele>
        <time>2021-08-15T10:50:53Z</time>
      </trkpt>
      <trkpt lat="45.31289" lon="2.95179">
        <ele>1380.59</ele>
        <time>2021-08-15T10:50:54Z</time>
      </trkpt>
      <trkpt lat="45.31284" lon="2.95176">
        <ele>1380.11</ele>
        <time>2021-08-15T10:50:55Z</time>
      </trkpt>
      <trkpt lat="45.31274" lon="2.95172">
        <ele>1380.11</ele>
        <time>2021-08-15T10:50:57Z</time>
      </trkpt>
      <trkpt lat="45.3121" lon="2.95164">
        <ele>1379.15</ele>
        <time>2021-08-15T10:51:08Z</time>
      </trkpt>
      <trkpt lat="45.31165" lon="2.95163">
        <ele>1377.71</ele>
        <time>2021-08-15T10:51:15Z</time>
      </trkpt>
      <trkpt lat="45.31158" lon="2.95165">
        <ele>1377.71</ele>
        <time>2021-08-15T10:51:16Z</time>
      </trkpt>
      <trkpt lat="45.31152" lon="2.95168">
        <ele>1376.75</ele>
        <time>2021-08-15T10:51:17Z</time>
      </trkpt>
      <trkpt lat="45.31139" lon="2.95176">
        <ele>1375.3</ele>
        <time>2021-08-15T10:51:19Z</time>
      </trkpt>
      <trkpt lat="45.31131" lon="2.95181">
        <ele>1375.3</ele>
        <time>2021-08-15T10:51:20Z</time>
      </trkpt>
      <trkpt lat="45.31125" lon="2.95182">
        <ele>1373.86</ele>
        <time>2021-08-15T10:51:21Z</time>
      </trkpt>
      <trkpt lat="45.31112" lon="2.95175">
        <ele>1370.98</ele>
        <time>2021-08-15T10:51:23Z</time>
      </trkpt>
      <trkpt lat="45.31103" lon="2.95153">
        <ele>1369.05</ele>
        <time>2021-08-15T10:51:26Z</time>
      </trkpt>
      <trkpt lat="45.31102" lon="2.95139">
        <ele>1368.57</ele>
        <time>2021-08-15T10:51:27Z</time>
      </trkpt>
      <trkpt lat="45.31102" lon="2.9513">
        <ele>1368.09</ele>
        <time>2021-08-15T10:51:28Z</time>
      </trkpt>
      <trkpt lat="45.31098" lon="2.95101">
        <ele>1368.09</ele>
        <time>2021-08-15T10:51:31Z</time>
      </trkpt>
      <trkpt lat="45.31094" lon="2.95092">
        <ele>1367.61</ele>
        <time>2021-08-15T10:51:32Z</time>
      </trkpt>
      <trkpt lat="45.31091" lon="2.95086">
        <ele>1367.61</ele>
        <time>2021-08-15T10:51:33Z</time>
      </trkpt>
      <trkpt lat="45.31086" lon="2.95079">
        <ele>1369.05</ele>
        <time>2021-08-15T10:51:34Z</time>
      </trkpt>
      <trkpt lat="45.31072" lon="2.95064">
        <ele>1369.05</ele>
        <time>2021-08-15T10:51:37Z</time>
      </trkpt>
      <trkpt lat="45.31067" lon="2.95059">
        <ele>1369.05</ele>
        <time>2021-08-15T10:51:38Z</time>
      </trkpt>
      <trkpt lat="45.31045" lon="2.95041">
        <ele>1367.61</ele>
        <time>2021-08-15T10:51:43Z</time>
      </trkpt>
      <trkpt lat="45.31033" lon="2.9503">
        <ele>1369.05</ele>
        <time>2021-08-15T10:51:46Z</time>
      </trkpt>
      <trkpt lat="45.31005" lon="2.95002">
        <ele>1370.02</ele>
        <time>2021-08-15T10:51:55Z</time>
      </trkpt>
      <trkpt lat="45.30966" lon="2.94967">
        <ele>1370.5</ele>
        <time>2021-08-15T10:52:07Z</time>
      </trkpt>
      <trkpt lat="45.30957" lon="2.9496">
        <ele>1370.5</ele>
        <time>2021-08-15T10:52:09Z</time>
      </trkpt>
      <trkpt lat="45.30953" lon="2.94958">
        <ele>1370.5</ele>
        <time>2021-08-15T10:52:10Z</time>
      </trkpt>
      <trkpt lat="45.30945" lon="2.94953">
        <ele>1370.5</ele>
        <time>2021-08-15T10:52:12Z</time>
      </trkpt>
      <trkpt lat="45.30938" lon="2.94947">
        <ele>1370.5</ele>
        <time>2021-08-15T10:52:14Z</time>
      </trkpt>
      <trkpt lat="45.30935" lon="2.94945">
        <ele>1370.5</ele>
        <time>2021-08-15T10:52:15Z</time>
      </trkpt>
      <trkpt lat="45.30928" lon="2.9494">
        <ele>1369.05</ele>
        <time>2021-08-15T10:52:17Z</time>
      </trkpt>
      <trkpt lat="45.30922" lon="2.94935">
        <ele>1369.05</ele>
        <time>2021-08-15T10:52:19Z</time>
      </trkpt>
      <trkpt lat="45.30903" lon="2.94922">
        <ele>1368.09</ele>
        <time>2021-08-15T10:52:26Z</time>
      </trkpt>
      <trkpt lat="45.309" lon="2.94922">
        <ele>1368.09</ele>
        <time>2021-08-15T10:52:33Z</time>
      </trkpt>
      <trkpt lat="45.30899" lon="2.94921">
        <ele>1367.13</ele>
        <time>2021-08-15T10:52:43Z</time>
      </trkpt>
      <trkpt lat="45.30899" lon="2.94921">
        <ele>1367.13</ele>
        <time>2021-08-15T10:52:56Z</time>
      </trkpt>
      <trkpt lat="45.30899" lon="2.94919">
        <ele>1367.13</ele>
        <time>2021-08-15T10:53:05Z</time>
      </trkpt>
      <trkpt lat="45.30897" lon="2.94917">
        <ele>1367.13</ele>
        <time>2021-08-15T10:53:06Z</time>
      </trkpt>
      <trkpt lat="45.30895" lon="2.94915">
        <ele>1367.13</ele>
        <time>2021-08-15T10:53:07Z</time>
      </trkpt>
      <trkpt lat="45.30876" lon="2.94897">
        <ele>1365.69</ele>
        <time>2021-08-15T10:53:13Z</time>
      </trkpt>
      <trkpt lat="45.30868" lon="2.94887">
        <ele>1364.73</ele>
        <time>2021-08-15T10:53:15Z</time>
      </trkpt>
      <trkpt lat="45.30866" lon="2.94881">
        <ele>1364.25</ele>
        <time>2021-08-15T10:53:16Z</time>
      </trkpt>
      <trkpt lat="45.30864" lon="2.94875">
        <ele>1364.25</ele>
        <time>2021-08-15T10:53:17Z</time>
      </trkpt>
      <trkpt lat="45.30861" lon="2.9487">
        <ele>1364.25</ele>
        <time>2021-08-15T10:53:18Z</time>
      </trkpt>
      <trkpt lat="45.30859" lon="2.94865">
        <ele>1364.25</ele>
        <time>2021-08-15T10:53:19Z</time>
      </trkpt>
      <trkpt lat="45.30858" lon="2.94861">
        <ele>1366.17</ele>
        <time>2021-08-15T10:53:20Z</time>
      </trkpt>
      <trkpt lat="45.30856" lon="2.94857">
        <ele>1366.17</ele>
        <time>2021-08-15T10:53:21Z</time>
      </trkpt>
      <trkpt lat="45.30855" lon="2.94854">
        <ele>1366.65</ele>
        <time>2021-08-15T10:53:22Z</time>
      </trkpt>
      <trkpt lat="45.30853" lon="2.94851">
        <ele>1366.65</ele>
        <time>2021-08-15T10:53:23Z</time>
      </trkpt>
      <trkpt lat="45.30853" lon="2.94849">
        <ele>1367.13</ele>
        <time>2021-08-15T10:53:24Z</time>
      </trkpt>
      <trkpt lat="45.30841" lon="2.9483">
        <ele>1369.05</ele>
        <time>2021-08-15T10:53:34Z</time>
      </trkpt>
      <trkpt lat="45.3083" lon="2.9481">
        <ele>1370.02</ele>
        <time>2021-08-15T10:53:42Z</time>
      </trkpt>
      <trkpt lat="45.30818" lon="2.94791">
        <ele>1370.5</ele>
        <time>2021-08-15T10:53:50Z</time>
      </trkpt>
      <trkpt lat="45.30807" lon="2.9477">
        <ele>1370.5</ele>
        <time>2021-08-15T10:53:58Z</time>
      </trkpt>
      <trkpt lat="45.30795" lon="2.94745">
        <ele>1371.94</ele>
        <time>2021-08-15T10:54:09Z</time>
      </trkpt>
      <trkpt lat="45.30786" lon="2.9473">
        <ele>1372.9</ele>
        <time>2021-08-15T10:54:18Z</time>
      </trkpt>
      <trkpt lat="45.30776" lon="2.94709">
        <ele>1372.9</ele>
        <time>2021-08-15T10:54:28Z</time>
      </trkpt>
      <trkpt lat="45.30764" lon="2.94677">
        <ele>1373.86</ele>
        <time>2021-08-15T10:54:40Z</time>
      </trkpt>
      <trkpt lat="45.30753" lon="2.94647">
        <ele>1374.82</ele>
        <time>2021-08-15T10:54:51Z</time>
      </trkpt>
      <trkpt lat="45.30742" lon="2.9462">
        <ele>1375.78</ele>
        <time>2021-08-15T10:55:01Z</time>
      </trkpt>
      <trkpt lat="45.30729" lon="2.94594">
        <ele>1377.23</ele>
        <time>2021-08-15T10:55:12Z</time>
      </trkpt>
      <trkpt lat="45.30721" lon="2.9458">
        <ele>1378.19</ele>
        <time>2021-08-15T10:55:21Z</time>
      </trkpt>
      <trkpt lat="45.30717" lon="2.94572">
        <ele>1378.67</ele>
        <time>2021-08-15T10:55:26Z</time>
      </trkpt>
      <trkpt lat="45.30716" lon="2.9457">
        <ele>1378.67</ele>
        <time>2021-08-15T10:55:27Z</time>
      </trkpt>
      <trkpt lat="45.30708" lon="2.94557">
        <ele>1379.63</ele>
        <time>2021-08-15T10:55:36Z</time>
      </trkpt>
      <trkpt lat="45.30697" lon="2.94544">
        <ele>1381.07</ele>
        <time>2021-08-15T10:55:45Z</time>
      </trkpt>
      <trkpt lat="45.30684" lon="2.94528">
        <ele>1381.55</ele>
        <time>2021-08-15T10:55:55Z</time>
      </trkpt>
      <trkpt lat="45.30669" lon="2.94508">
        <ele>1382.03</ele>
        <time>2021-08-15T10:56:04Z</time>
      </trkpt>
      <trkpt lat="45.30655" lon="2.94486">
        <ele>1383.96</ele>
        <time>2021-08-15T10:56:14Z</time>
      </trkpt>
      <trkpt lat="45.30645" lon="2.9447">
        <ele>1383.96</ele>
        <time>2021-08-15T10:56:21Z</time>
      </trkpt>
      <trkpt lat="45.30642" lon="2.94463">
        <ele>1384.44</ele>
        <time>2021-08-15T10:56:24Z</time>
      </trkpt>
      <trkpt lat="45.30641" lon="2.9446">
        <ele>1383.96</ele>
        <time>2021-08-15T10:56:25Z</time>
      </trkpt>
      <trkpt lat="45.3064" lon="2.94458">
        <ele>1383.96</ele>
        <time>2021-08-15T10:56:26Z</time>
      </trkpt>
      <trkpt lat="45.30639" lon="2.94456">
        <ele>1383.96</ele>
        <time>2021-08-15T10:56:27Z</time>
      </trkpt>
      <trkpt lat="45.30638" lon="2.94454">
        <ele>1384.92</ele>
        <time>2021-08-15T10:56:28Z</time>
      </trkpt>
      <trkpt lat="45.30637" lon="2.94452">
        <ele>1385.4</ele>
        <time>2021-08-15T10:56:29Z</time>
      </trkpt>
      <trkpt lat="45.30627" lon="2.94428">
        <ele>1386.36</ele>
        <time>2021-08-15T10:56:39Z</time>
      </trkpt>
      <trkpt lat="45.30618" lon="2.94404">
        <ele>1387.32</ele>
        <time>2021-08-15T10:56:48Z</time>
      </trkpt>
      <trkpt lat="45.30608" lon="2.94378">
        <ele>1387.8</ele>
        <time>2021-08-15T10:56:55Z</time>
      </trkpt>
      <trkpt lat="45.30583" lon="2.94333">
        <ele>1387.8</ele>
        <time>2021-08-15T10:57:06Z</time>
      </trkpt>
      <trkpt lat="45.30561" lon="2.94299">
        <ele>1388.28</ele>
        <time>2021-08-15T10:57:15Z</time>
      </trkpt>
      <trkpt lat="45.30546" lon="2.94274">
        <ele>1388.28</ele>
        <time>2021-08-15T10:57:22Z</time>
      </trkpt>
      <trkpt lat="45.30535" lon="2.94256">
        <ele>1389.24</ele>
        <time>2021-08-15T10:57:29Z</time>
      </trkpt>
      <trkpt lat="45.30525" lon="2.94239">
        <ele>1390.2</ele>
        <time>2021-08-15T10:57:36Z</time>
      </trkpt>
      <trkpt lat="45.30509" lon="2.94215">
        <ele>1392.61</ele>
        <time>2021-08-15T10:57:46Z</time>
      </trkpt>
      <trkpt lat="45.30508" lon="2.94212">
        <ele>1392.61</ele>
        <time>2021-08-15T10:57:47Z</time>
      </trkpt>
      <trkpt lat="45.30497" lon="2.94193">
        <ele>1394.05</ele>
        <time>2021-08-15T10:57:55Z</time>
      </trkpt>
      <trkpt lat="45.30481" lon="2.9417">
        <ele>1395.01</ele>
        <time>2021-08-15T10:58:05Z</time>
      </trkpt>
      <trkpt lat="45.30462" lon="2.94137">
        <ele>1395.97</ele>
        <time>2021-08-15T10:58:18Z</time>
      </trkpt>
      <trkpt lat="45.30443" lon="2.94109">
        <ele>1395.97</ele>
        <time>2021-08-15T10:58:28Z</time>
      </trkpt>
      <trkpt lat="45.30427" lon="2.94084">
        <ele>1395.97</ele>
        <time>2021-08-15T10:58:34Z</time>
      </trkpt>
      <trkpt lat="45.30424" lon="2.94079">
        <ele>1394.53</ele>
        <time>2021-08-15T10:58:35Z</time>
      </trkpt>
      <trkpt lat="45.30422" lon="2.94074">
        <ele>1394.05</ele>
        <time>2021-08-15T10:58:36Z</time>
      </trkpt>
      <trkpt lat="45.30394" lon="2.94031">
        <ele>1390.68</ele>
        <time>2021-08-15T10:58:44Z</time>
      </trkpt>
      <trkpt lat="45.3039" lon="2.94024">
        <ele>1390.68</ele>
        <time>2021-08-15T10:58:45Z</time>
      </trkpt>
      <trkpt lat="45.30376" lon="2.94003">
        <ele>1388.76</ele>
        <time>2021-08-15T10:58:48Z</time>
      </trkpt>
      <trkpt lat="45.30356" lon="2.9397">
        <ele>1384.44</ele>
        <time>2021-08-15T10:58:52Z</time>
      </trkpt>
      <trkpt lat="45.30351" lon="2.93962">
        <ele>1384.44</ele>
        <time>2021-08-15T10:58:53Z</time>
      </trkpt>
      <trkpt lat="45.30311" lon="2.93894">
        <ele>1380.59</ele>
        <time>2021-08-15T10:59:01Z</time>
      </trkpt>
      <trkpt lat="45.30307" lon="2.93886">
        <ele>1380.59</ele>
        <time>2021-08-15T10:59:02Z</time>
      </trkpt>
      <trkpt lat="45.30291" lon="2.93858">
        <ele>1377.23</ele>
        <time>2021-08-15T10:59:05Z</time>
      </trkpt>
      <trkpt lat="45.30272" lon="2.93833">
        <ele>1374.34</ele>
        <time>2021-08-15T10:59:08Z</time>
      </trkpt>
      <trkpt lat="45.30259" lon="2.93815">
        <ele>1373.38</ele>
        <time>2021-08-15T10:59:10Z</time>
      </trkpt>
      <trkpt lat="45.30226" lon="2.93778">
        <ele>1368.57</ele>
        <time>2021-08-15T10:59:14Z</time>
      </trkpt>
      <trkpt lat="45.30197" lon="2.93748">
        <ele>1363.77</ele>
        <time>2021-08-15T10:59:17Z</time>
      </trkpt>
      <trkpt lat="45.30177" lon="2.93726">
        <ele>1359.92</ele>
        <time>2021-08-15T10:59:19Z</time>
      </trkpt>
      <trkpt lat="45.30158" lon="2.93702">
        <ele>1358.96</ele>
        <time>2021-08-15T10:59:21Z</time>
      </trkpt>
      <trkpt lat="45.3014" lon="2.93681">
        <ele>1358.48</ele>
        <time>2021-08-15T10:59:23Z</time>
      </trkpt>
      <trkpt lat="45.3013" lon="2.93672">
        <ele>1357.04</ele>
        <time>2021-08-15T10:59:24Z</time>
      </trkpt>
      <trkpt lat="45.30097" lon="2.9365">
        <ele>1353.19</ele>
        <time>2021-08-15T10:59:27Z</time>
      </trkpt>
      <trkpt lat="45.30085" lon="2.93644">
        <ele>1351.27</ele>
        <time>2021-08-15T10:59:28Z</time>
      </trkpt>
      <trkpt lat="45.30071" lon="2.9364">
        <ele>1349.83</ele>
        <time>2021-08-15T10:59:29Z</time>
      </trkpt>
      <trkpt lat="45.30059" lon="2.93636">
        <ele>1349.83</ele>
        <time>2021-08-15T10:59:30Z</time>
      </trkpt>
      <trkpt lat="45.30022" lon="2.93631">
        <ele>1349.35</ele>
        <time>2021-08-15T10:59:33Z</time>
      </trkpt>
      <trkpt lat="45.3" lon="2.93633">
        <ele>1350.79</ele>
        <time>2021-08-15T10:59:35Z</time>
      </trkpt>
      <trkpt lat="45.29957" lon="2.93631">
        <ele>1353.67</ele>
        <time>2021-08-15T10:59:40Z</time>
      </trkpt>
      <trkpt lat="45.29913" lon="2.93626">
        <ele>1353.67</ele>
        <time>2021-08-15T10:59:46Z</time>
      </trkpt>
      <trkpt lat="45.29906" lon="2.93626">
        <ele>1351.75</ele>
        <time>2021-08-15T10:59:47Z</time>
      </trkpt>
      <trkpt lat="45.29898" lon="2.93628">
        <ele>1351.75</ele>
        <time>2021-08-15T10:59:48Z</time>
      </trkpt>
      <trkpt lat="45.29891" lon="2.93631">
        <ele>1350.79</ele>
        <time>2021-08-15T10:59:49Z</time>
      </trkpt>
      <trkpt lat="45.29884" lon="2.93635">
        <ele>1350.79</ele>
        <time>2021-08-15T10:59:50Z</time>
      </trkpt>
      <trkpt lat="45.29836" lon="2.93656">
        <ele>1346.94</ele>
        <time>2021-08-15T10:59:56Z</time>
      </trkpt>
      <trkpt lat="45.298" lon="2.93671">
        <ele>1343.1</ele>
        <time>2021-08-15T11:00:00Z</time>
      </trkpt>
      <trkpt lat="45.29759" lon="2.93689">
        <ele>1338.77</ele>
        <time>2021-08-15T11:00:04Z</time>
      </trkpt>
      <trkpt lat="45.29716" lon="2.93708">
        <ele>1336.37</ele>
        <time>2021-08-15T11:00:08Z</time>
      </trkpt>
      <trkpt lat="45.2961" lon="2.93753">
        <ele>1333.01</ele>
        <time>2021-08-15T11:00:18Z</time>
      </trkpt>
      <trkpt lat="45.29575" lon="2.93768">
        <ele>1328.68</ele>
        <time>2021-08-15T11:00:21Z</time>
      </trkpt>
      <trkpt lat="45.29539" lon="2.93785">
        <ele>1325.31</ele>
        <time>2021-08-15T11:00:24Z</time>
      </trkpt>
      <trkpt lat="45.29499" lon="2.93803">
        <ele>1320.99</ele>
        <time>2021-08-15T11:00:27Z</time>
      </trkpt>
      <trkpt lat="45.29472" lon="2.93815">
        <ele>1317.62</ele>
        <time>2021-08-15T11:00:29Z</time>
      </trkpt>
      <trkpt lat="45.29443" lon="2.93827">
        <ele>1313.78</ele>
        <time>2021-08-15T11:00:31Z</time>
      </trkpt>
      <trkpt lat="45.29411" lon="2.9384">
        <ele>1309.93</ele>
        <time>2021-08-15T11:00:33Z</time>
      </trkpt>
      <trkpt lat="45.29381" lon="2.93853">
        <ele>1306.09</ele>
        <time>2021-08-15T11:00:35Z</time>
      </trkpt>
      <trkpt lat="45.29349" lon="2.93867">
        <ele>1302.72</ele>
        <time>2021-08-15T11:00:37Z</time>
      </trkpt>
      <trkpt lat="45.29303" lon="2.93886">
        <ele>1298.88</ele>
        <time>2021-08-15T11:00:40Z</time>
      </trkpt>
      <trkpt lat="45.29245" lon="2.93911">
        <ele>1295.51</ele>
        <time>2021-08-15T11:00:44Z</time>
      </trkpt>
      <trkpt lat="45.29231" lon="2.93916">
        <ele>1295.51</ele>
        <time>2021-08-15T11:00:45Z</time>
      </trkpt>
      <trkpt lat="45.29165" lon="2.9393">
        <ele>1293.11</ele>
        <time>2021-08-15T11:00:50Z</time>
      </trkpt>
      <trkpt lat="45.29097" lon="2.93935">
        <ele>1293.11</ele>
        <time>2021-08-15T11:00:56Z</time>
      </trkpt>
      <trkpt lat="45.29052" lon="2.93938">
        <ele>1294.55</ele>
        <time>2021-08-15T11:01:01Z</time>
      </trkpt>
      <trkpt lat="45.29011" lon="2.93941">
        <ele>1297.44</ele>
        <time>2021-08-15T11:01:07Z</time>
      </trkpt>
      <trkpt lat="45.28964" lon="2.93944">
        <ele>1298.88</ele>
        <time>2021-08-15T11:01:17Z</time>
      </trkpt>
      <trkpt lat="45.28959" lon="2.93944">
        <ele>1298.88</ele>
        <time>2021-08-15T11:01:18Z</time>
      </trkpt>
      <trkpt lat="45.28916" lon="2.93946">
        <ele>1298.88</ele>
        <time>2021-08-15T11:01:27Z</time>
      </trkpt>
      <trkpt lat="45.28914" lon="2.93946">
        <ele>1298.4</ele>
        <time>2021-08-15T11:01:31Z</time>
      </trkpt>
      <trkpt lat="45.28915" lon="2.93946">
        <ele>1298.4</ele>
        <time>2021-08-15T11:01:47Z</time>
      </trkpt>
      <trkpt lat="45.28915" lon="2.93946">
        <ele>1298.4</ele>
        <time>2021-08-15T11:02:10Z</time>
      </trkpt>
      <trkpt lat="45.28917" lon="2.93946">
        <ele>1298.4</ele>
        <time>2021-08-15T11:02:18Z</time>
      </trkpt>
      <trkpt lat="45.28917" lon="2.93946">
        <ele>1298.4</ele>
        <time>2021-08-15T11:02:33Z</time>
      </trkpt>
      <trkpt lat="45.28914" lon="2.93946">
        <ele>1298.4</ele>
        <time>2021-08-15T11:02:47Z</time>
      </trkpt>
      <trkpt lat="45.28904" lon="2.93948">
        <ele>1296.96</ele>
        <time>2021-08-15T11:02:51Z</time>
      </trkpt>
      <trkpt lat="45.28882" lon="2.9395">
        <ele>1296.48</ele>
        <time>2021-08-15T11:02:56Z</time>
      </trkpt>
      <trkpt lat="45.28868" lon="2.93951">
        <ele>1295.51</ele>
        <time>2021-08-15T11:02:59Z</time>
      </trkpt>
      <trkpt lat="45.28863" lon="2.93951">
        <ele>1295.51</ele>
        <time>2021-08-15T11:03:00Z</time>
      </trkpt>
      <trkpt lat="45.28858" lon="2.93952">
        <ele>1295.51</ele>
        <time>2021-08-15T11:03:01Z</time>
      </trkpt>
      <trkpt lat="45.28814" lon="2.93961">
        <ele>1293.59</ele>
        <time>2021-08-15T11:03:09Z</time>
      </trkpt>
      <trkpt lat="45.2876" lon="2.93974">
        <ele>1289.75</ele>
        <time>2021-08-15T11:03:17Z</time>
      </trkpt>
      <trkpt lat="45.28736" lon="2.93978">
        <ele>1287.82</ele>
        <time>2021-08-15T11:03:20Z</time>
      </trkpt>
      <trkpt lat="45.2871" lon="2.93984">
        <ele>1286.38</ele>
        <time>2021-08-15T11:03:23Z</time>
      </trkpt>
      <trkpt lat="45.28648" lon="2.93996">
        <ele>1286.38</ele>
        <time>2021-08-15T11:03:31Z</time>
      </trkpt>
      <trkpt lat="45.28623" lon="2.94001">
        <ele>1287.34</ele>
        <time>2021-08-15T11:03:35Z</time>
      </trkpt>
      <trkpt lat="45.28619" lon="2.94002">
        <ele>1287.82</ele>
        <time>2021-08-15T11:03:36Z</time>
      </trkpt>
      <trkpt lat="45.28614" lon="2.94002">
        <ele>1287.82</ele>
        <time>2021-08-15T11:03:37Z</time>
      </trkpt>
      <trkpt lat="45.2861" lon="2.94004">
        <ele>1288.3</ele>
        <time>2021-08-15T11:03:38Z</time>
      </trkpt>
      <trkpt lat="45.28606" lon="2.94005">
        <ele>1289.27</ele>
        <time>2021-08-15T11:03:39Z</time>
      </trkpt>
      <trkpt lat="45.28602" lon="2.94006">
        <ele>1289.27</ele>
        <time>2021-08-15T11:03:40Z</time>
      </trkpt>
      <trkpt lat="45.28581" lon="2.94015">
        <ele>1290.23</ele>
        <time>2021-08-15T11:03:47Z</time>
      </trkpt>
      <trkpt lat="45.28551" lon="2.9402">
        <ele>1291.19</ele>
        <time>2021-08-15T11:03:56Z</time>
      </trkpt>
      <trkpt lat="45.28513" lon="2.94031">
        <ele>1291.67</ele>
        <time>2021-08-15T11:04:06Z</time>
      </trkpt>
      <trkpt lat="45.28491" lon="2.94039">
        <ele>1289.75</ele>
        <time>2021-08-15T11:04:10Z</time>
      </trkpt>
      <trkpt lat="45.2847" lon="2.94045">
        <ele>1287.82</ele>
        <time>2021-08-15T11:04:13Z</time>
      </trkpt>
      <trkpt lat="45.28412" lon="2.94066">
        <ele>1285.42</ele>
        <time>2021-08-15T11:04:21Z</time>
      </trkpt>
      <trkpt lat="45.28344" lon="2.94091">
        <ele>1283.02</ele>
        <time>2021-08-15T11:04:30Z</time>
      </trkpt>
      <trkpt lat="45.28295" lon="2.94111">
        <ele>1279.65</ele>
        <time>2021-08-15T11:04:36Z</time>
      </trkpt>
      <trkpt lat="45.28217" lon="2.94144">
        <ele>1277.73</ele>
        <time>2021-08-15T11:04:46Z</time>
      </trkpt>
      <trkpt lat="45.28152" lon="2.94171">
        <ele>1276.77</ele>
        <time>2021-08-15T11:04:55Z</time>
      </trkpt>
      <trkpt lat="45.28108" lon="2.9419">
        <ele>1277.73</ele>
        <time>2021-08-15T11:05:03Z</time>
      </trkpt>
      <trkpt lat="45.28086" lon="2.94201">
        <ele>1279.65</ele>
        <time>2021-08-15T11:05:09Z</time>
      </trkpt>
      <trkpt lat="45.28057" lon="2.94212">
        <ele>1281.09</ele>
        <time>2021-08-15T11:05:19Z</time>
      </trkpt>
      <trkpt lat="45.28036" lon="2.94218">
        <ele>1281.09</ele>
        <time>2021-08-15T11:05:24Z</time>
      </trkpt>
      <trkpt lat="45.28032" lon="2.94219">
        <ele>1281.09</ele>
        <time>2021-08-15T11:05:25Z</time>
      </trkpt>
      <trkpt lat="45.28028" lon="2.9422">
        <ele>1281.09</ele>
        <time>2021-08-15T11:05:26Z</time>
      </trkpt>
      <trkpt lat="45.28024" lon="2.94222">
        <ele>1281.09</ele>
        <time>2021-08-15T11:05:27Z</time>
      </trkpt>
      <trkpt lat="45.28019" lon="2.94223">
        <ele>1280.61</ele>
        <time>2021-08-15T11:05:28Z</time>
      </trkpt>
      <trkpt lat="45.28003" lon="2.9423">
        <ele>1280.61</ele>
        <time>2021-08-15T11:05:32Z</time>
      </trkpt>
      <trkpt lat="45.27998" lon="2.94232">
        <ele>1280.61</ele>
        <time>2021-08-15T11:05:33Z</time>
      </trkpt>
      <trkpt lat="45.27964" lon="2.94245">
        <ele>1281.57</ele>
        <time>2021-08-15T11:05:42Z</time>
      </trkpt>
      <trkpt lat="45.27949" lon="2.94251">
        <ele>1281.57</ele>
        <time>2021-08-15T11:05:46Z</time>
      </trkpt>
      <trkpt lat="45.27944" lon="2.94252">
        <ele>1281.09</ele>
        <time>2021-08-15T11:05:47Z</time>
      </trkpt>
      <trkpt lat="45.2794" lon="2.94252">
        <ele>1281.09</ele>
        <time>2021-08-15T11:05:48Z</time>
      </trkpt>
      <trkpt lat="45.27936" lon="2.94252">
        <ele>1281.09</ele>
        <time>2021-08-15T11:05:49Z</time>
      </trkpt>
      <trkpt lat="45.27931" lon="2.9425">
        <ele>1281.09</ele>
        <time>2021-08-15T11:05:50Z</time>
      </trkpt>
      <trkpt lat="45.27928" lon="2.94246">
        <ele>1281.09</ele>
        <time>2021-08-15T11:05:51Z</time>
      </trkpt>
      <trkpt lat="45.27926" lon="2.94243">
        <ele>1281.09</ele>
        <time>2021-08-15T11:05:52Z</time>
      </trkpt>
      <trkpt lat="45.27923" lon="2.94238">
        <ele>1281.09</ele>
        <time>2021-08-15T11:05:53Z</time>
      </trkpt>
      <trkpt lat="45.27916" lon="2.94228">
        <ele>1280.13</ele>
        <time>2021-08-15T11:05:55Z</time>
      </trkpt>
      <trkpt lat="45.2788" lon="2.9418">
        <ele>1278.21</ele>
        <time>2021-08-15T11:06:04Z</time>
      </trkpt>
      <trkpt lat="45.27858" lon="2.94155">
        <ele>1276.29</ele>
        <time>2021-08-15T11:06:09Z</time>
      </trkpt>
      <trkpt lat="45.27817" lon="2.94105">
        <ele>1275.81</ele>
        <time>2021-08-15T11:06:18Z</time>
      </trkpt>
      <trkpt lat="45.27773" lon="2.94054">
        <ele>1273.4</ele>
        <time>2021-08-15T11:06:27Z</time>
      </trkpt>
      <trkpt lat="45.27767" lon="2.9405">
        <ele>1273.4</ele>
        <time>2021-08-15T11:06:28Z</time>
      </trkpt>
      <trkpt lat="45.27761" lon="2.94045">
        <ele>1273.4</ele>
        <time>2021-08-15T11:06:29Z</time>
      </trkpt>
      <trkpt lat="45.27726" lon="2.94029">
        <ele>1270.52</ele>
        <time>2021-08-15T11:06:34Z</time>
      </trkpt>
      <trkpt lat="45.27687" lon="2.9401">
        <ele>1268.6</ele>
        <time>2021-08-15T11:06:39Z</time>
      </trkpt>
      <trkpt lat="45.2768" lon="2.94004">
        <ele>1267.64</ele>
        <time>2021-08-15T11:06:40Z</time>
      </trkpt>
      <trkpt lat="45.27673" lon="2.93998">
        <ele>1267.64</ele>
        <time>2021-08-15T11:06:41Z</time>
      </trkpt>
      <trkpt lat="45.27666" lon="2.9399">
        <ele>1266.67</ele>
        <time>2021-08-15T11:06:42Z</time>
      </trkpt>
      <trkpt lat="45.2766" lon="2.93981">
        <ele>1265.23</ele>
        <time>2021-08-15T11:06:43Z</time>
      </trkpt>
      <trkpt lat="45.27655" lon="2.93972">
        <ele>1265.23</ele>
        <time>2021-08-15T11:06:44Z</time>
      </trkpt>
      <trkpt lat="45.27649" lon="2.93962">
        <ele>1264.27</ele>
        <time>2021-08-15T11:06:45Z</time>
      </trkpt>
      <trkpt lat="45.27637" lon="2.93942">
        <ele>1263.79</ele>
        <time>2021-08-15T11:06:47Z</time>
      </trkpt>
      <trkpt lat="45.27615" lon="2.93904">
        <ele>1261.87</ele>
        <time>2021-08-15T11:06:51Z</time>
      </trkpt>
      <trkpt lat="45.27574" lon="2.93835">
        <ele>1258.5</ele>
        <time>2021-08-15T11:06:58Z</time>
      </trkpt>
      <trkpt lat="45.27528" lon="2.93772">
        <ele>1255.62</ele>
        <time>2021-08-15T11:07:05Z</time>
      </trkpt>
      <trkpt lat="45.27501" lon="2.93732">
        <ele>1253.22</ele>
        <time>2021-08-15T11:07:09Z</time>
      </trkpt>
      <trkpt lat="45.27496" lon="2.93721">
        <ele>1252.25</ele>
        <time>2021-08-15T11:07:10Z</time>
      </trkpt>
      <trkpt lat="45.27491" lon="2.93709">
        <ele>1251.77</ele>
        <time>2021-08-15T11:07:11Z</time>
      </trkpt>
      <trkpt lat="45.27472" lon="2.93642">
        <ele>1249.37</ele>
        <time>2021-08-15T11:07:16Z</time>
      </trkpt>
      <trkpt lat="45.27461" lon="2.93602">
        <ele>1247.45</ele>
        <time>2021-08-15T11:07:19Z</time>
      </trkpt>
      <trkpt lat="45.27456" lon="2.9359">
        <ele>1247.45</ele>
        <time>2021-08-15T11:07:20Z</time>
      </trkpt>
      <trkpt lat="45.2745" lon="2.93579">
        <ele>1246.97</ele>
        <time>2021-08-15T11:07:21Z</time>
      </trkpt>
      <trkpt lat="45.27444" lon="2.93569">
        <ele>1246.49</ele>
        <time>2021-08-15T11:07:22Z</time>
      </trkpt>
      <trkpt lat="45.27436" lon="2.93559">
        <ele>1246.01</ele>
        <time>2021-08-15T11:07:23Z</time>
      </trkpt>
      <trkpt lat="45.27428" lon="2.93549">
        <ele>1245.53</ele>
        <time>2021-08-15T11:07:24Z</time>
      </trkpt>
      <trkpt lat="45.27381" lon="2.93499">
        <ele>1241.68</ele>
        <time>2021-08-15T11:07:30Z</time>
      </trkpt>
      <trkpt lat="45.27374" lon="2.93489">
        <ele>1241.2</ele>
        <time>2021-08-15T11:07:31Z</time>
      </trkpt>
      <trkpt lat="45.27369" lon="2.93477">
        <ele>1240.72</ele>
        <time>2021-08-15T11:07:32Z</time>
      </trkpt>
      <trkpt lat="45.27364" lon="2.93464">
        <ele>1240.72</ele>
        <time>2021-08-15T11:07:33Z</time>
      </trkpt>
      <trkpt lat="45.27361" lon="2.93451">
        <ele>1239.76</ele>
        <time>2021-08-15T11:07:34Z</time>
      </trkpt>
      <trkpt lat="45.27358" lon="2.93437">
        <ele>1238.8</ele>
        <time>2021-08-15T11:07:35Z</time>
      </trkpt>
      <trkpt lat="45.27355" lon="2.93423">
        <ele>1238.8</ele>
        <time>2021-08-15T11:07:36Z</time>
      </trkpt>
      <trkpt lat="45.27352" lon="2.93409">
        <ele>1237.35</ele>
        <time>2021-08-15T11:07:37Z</time>
      </trkpt>
      <trkpt lat="45.27347" lon="2.93396">
        <ele>1236.87</ele>
        <time>2021-08-15T11:07:38Z</time>
      </trkpt>
      <trkpt lat="45.27342" lon="2.93385">
        <ele>1236.87</ele>
        <time>2021-08-15T11:07:39Z</time>
      </trkpt>
      <trkpt lat="45.27336" lon="2.93373">
        <ele>1236.87</ele>
        <time>2021-08-15T11:07:40Z</time>
      </trkpt>
      <trkpt lat="45.2733" lon="2.93362">
        <ele>1236.39</ele>
        <time>2021-08-15T11:07:41Z</time>
      </trkpt>
      <trkpt lat="45.27317" lon="2.93339">
        <ele>1234.95</ele>
        <time>2021-08-15T11:07:43Z</time>
      </trkpt>
      <trkpt lat="45.27298" lon="2.93289">
        <ele>1231.59</ele>
        <time>2021-08-15T11:07:47Z</time>
      </trkpt>
      <trkpt lat="45.2729" lon="2.93263">
        <ele>1230.62</ele>
        <time>2021-08-15T11:07:49Z</time>
      </trkpt>
      <trkpt lat="45.27269" lon="2.932">
        <ele>1227.74</ele>
        <time>2021-08-15T11:07:54Z</time>
      </trkpt>
      <trkpt lat="45.27266" lon="2.93183">
        <ele>1227.74</ele>
        <time>2021-08-15T11:07:55Z</time>
      </trkpt>
      <trkpt lat="45.27264" lon="2.93171">
        <ele>1227.26</ele>
        <time>2021-08-15T11:07:56Z</time>
      </trkpt>
      <trkpt lat="45.27263" lon="2.93159">
        <ele>1226.3</ele>
        <time>2021-08-15T11:07:57Z</time>
      </trkpt>
      <trkpt lat="45.27263" lon="2.93143">
        <ele>1225.82</ele>
        <time>2021-08-15T11:07:58Z</time>
      </trkpt>
      <trkpt lat="45.27264" lon="2.9313">
        <ele>1225.82</ele>
        <time>2021-08-15T11:07:59Z</time>
      </trkpt>
      <trkpt lat="45.27264" lon="2.93117">
        <ele>1225.34</ele>
        <time>2021-08-15T11:08:00Z</time>
      </trkpt>
      <trkpt lat="45.27264" lon="2.93091">
        <ele>1224.38</ele>
        <time>2021-08-15T11:08:02Z</time>
      </trkpt>
      <trkpt lat="45.27263" lon="2.93077">
        <ele>1223.9</ele>
        <time>2021-08-15T11:08:03Z</time>
      </trkpt>
      <trkpt lat="45.27261" lon="2.93063">
        <ele>1223.9</ele>
        <time>2021-08-15T11:08:04Z</time>
      </trkpt>
      <trkpt lat="45.27258" lon="2.9305">
        <ele>1223.42</ele>
        <time>2021-08-15T11:08:05Z</time>
      </trkpt>
      <trkpt lat="45.27256" lon="2.93037">
        <ele>1222.93</ele>
        <time>2021-08-15T11:08:06Z</time>
      </trkpt>
      <trkpt lat="45.27246" lon="2.92998">
        <ele>1220.53</ele>
        <time>2021-08-15T11:08:09Z</time>
      </trkpt>
      <trkpt lat="45.27239" lon="2.92957">
        <ele>1217.65</ele>
        <time>2021-08-15T11:08:12Z</time>
      </trkpt>
      <trkpt lat="45.27238" lon="2.92944">
        <ele>1217.65</ele>
        <time>2021-08-15T11:08:13Z</time>
      </trkpt>
      <trkpt lat="45.27239" lon="2.92928">
        <ele>1216.69</ele>
        <time>2021-08-15T11:08:14Z</time>
      </trkpt>
      <trkpt lat="45.2724" lon="2.92913">
        <ele>1214.76</ele>
        <time>2021-08-15T11:08:15Z</time>
      </trkpt>
      <trkpt lat="45.27242" lon="2.92896">
        <ele>1213.32</ele>
        <time>2021-08-15T11:08:16Z</time>
      </trkpt>
      <trkpt lat="45.27246" lon="2.92851">
        <ele>1210.44</ele>
        <time>2021-08-15T11:08:19Z</time>
      </trkpt>
      <trkpt lat="45.27249" lon="2.92803">
        <ele>1208.03</ele>
        <time>2021-08-15T11:08:22Z</time>
      </trkpt>
      <trkpt lat="45.27248" lon="2.92787">
        <ele>1207.07</ele>
        <time>2021-08-15T11:08:23Z</time>
      </trkpt>
      <trkpt lat="45.27245" lon="2.92771">
        <ele>1206.59</ele>
        <time>2021-08-15T11:08:24Z</time>
      </trkpt>
      <trkpt lat="45.27242" lon="2.92756">
        <ele>1205.15</ele>
        <time>2021-08-15T11:08:25Z</time>
      </trkpt>
      <trkpt lat="45.27238" lon="2.92742">
        <ele>1204.19</ele>
        <time>2021-08-15T11:08:26Z</time>
      </trkpt>
      <trkpt lat="45.27229" lon="2.92716">
        <ele>1202.27</ele>
        <time>2021-08-15T11:08:28Z</time>
      </trkpt>
      <trkpt lat="45.27222" lon="2.92703">
        <ele>1201.3</ele>
        <time>2021-08-15T11:08:29Z</time>
      </trkpt>
      <trkpt lat="45.27215" lon="2.92692">
        <ele>1200.34</ele>
        <time>2021-08-15T11:08:30Z</time>
      </trkpt>
      <trkpt lat="45.27207" lon="2.92681">
        <ele>1198.9</ele>
        <time>2021-08-15T11:08:31Z</time>
      </trkpt>
      <trkpt lat="45.27198" lon="2.92671">
        <ele>1197.94</ele>
        <time>2021-08-15T11:08:32Z</time>
      </trkpt>
      <trkpt lat="45.2717" lon="2.92639">
        <ele>1194.09</ele>
        <time>2021-08-15T11:08:35Z</time>
      </trkpt>
      <trkpt lat="45.27141" lon="2.92609">
        <ele>1191.21</ele>
        <time>2021-08-15T11:08:38Z</time>
      </trkpt>
      <trkpt lat="45.27113" lon="2.92579">
        <ele>1187.37</ele>
        <time>2021-08-15T11:08:41Z</time>
      </trkpt>
      <trkpt lat="45.27078" lon="2.92537">
        <ele>1184.48</ele>
        <time>2021-08-15T11:08:45Z</time>
      </trkpt>
      <trkpt lat="45.27046" lon="2.92501">
        <ele>1181.12</ele>
        <time>2021-08-15T11:08:49Z</time>
      </trkpt>
      <trkpt lat="45.27029" lon="2.92485">
        <ele>1179.19</ele>
        <time>2021-08-15T11:08:51Z</time>
      </trkpt>
      <trkpt lat="45.26989" lon="2.92461">
        <ele>1178.23</ele>
        <time>2021-08-15T11:08:56Z</time>
      </trkpt>
      <trkpt lat="45.26983" lon="2.92459">
        <ele>1179.67</ele>
        <time>2021-08-15T11:08:57Z</time>
      </trkpt>
      <trkpt lat="45.26936" lon="2.9245">
        <ele>1179.67</ele>
        <time>2021-08-15T11:09:05Z</time>
      </trkpt>
      <trkpt lat="45.2693" lon="2.92449">
        <ele>1179.67</ele>
        <time>2021-08-15T11:09:06Z</time>
      </trkpt>
      <trkpt lat="45.26913" lon="2.92445">
        <ele>1180.64</ele>
        <time>2021-08-15T11:09:10Z</time>
      </trkpt>
      <trkpt lat="45.26909" lon="2.92445">
        <ele>1180.64</ele>
        <time>2021-08-15T11:09:11Z</time>
      </trkpt>
      <trkpt lat="45.26905" lon="2.92446">
        <ele>1180.64</ele>
        <time>2021-08-15T11:09:12Z</time>
      </trkpt>
      <trkpt lat="45.26902" lon="2.92447">
        <ele>1180.64</ele>
        <time>2021-08-15T11:09:13Z</time>
      </trkpt>
      <trkpt lat="45.26899" lon="2.92449">
        <ele>1180.64</ele>
        <time>2021-08-15T11:09:14Z</time>
      </trkpt>
      <trkpt lat="45.26896" lon="2.9245">
        <ele>1180.64</ele>
        <time>2021-08-15T11:09:15Z</time>
      </trkpt>
      <trkpt lat="45.26881" lon="2.92457">
        <ele>1181.6</ele>
        <time>2021-08-15T11:09:22Z</time>
      </trkpt>
      <trkpt lat="45.26862" lon="2.92465">
        <ele>1182.56</ele>
        <time>2021-08-15T11:09:31Z</time>
      </trkpt>
      <trkpt lat="45.26844" lon="2.9247">
        <ele>1184</ele>
        <time>2021-08-15T11:09:40Z</time>
      </trkpt>
      <trkpt lat="45.26826" lon="2.92467">
        <ele>1184</ele>
        <time>2021-08-15T11:09:47Z</time>
      </trkpt>
      <trkpt lat="45.26797" lon="2.92465">
        <ele>1183.04</ele>
        <time>2021-08-15T11:09:56Z</time>
      </trkpt>
      <trkpt lat="45.26793" lon="2.92465">
        <ele>1183.04</ele>
        <time>2021-08-15T11:09:57Z</time>
      </trkpt>
      <trkpt lat="45.26762" lon="2.9246">
        <ele>1182.56</ele>
        <time>2021-08-15T11:10:05Z</time>
      </trkpt>
      <trkpt lat="45.2675" lon="2.92459">
        <ele>1182.56</ele>
        <time>2021-08-15T11:10:08Z</time>
      </trkpt>
      <trkpt lat="45.26737" lon="2.92457">
        <ele>1182.08</ele>
        <time>2021-08-15T11:10:11Z</time>
      </trkpt>
      <trkpt lat="45.26709" lon="2.92458">
        <ele>1181.6</ele>
        <time>2021-08-15T11:10:18Z</time>
      </trkpt>
      <trkpt lat="45.26679" lon="2.92466">
        <ele>1181.12</ele>
        <time>2021-08-15T11:10:25Z</time>
      </trkpt>
      <trkpt lat="45.26674" lon="2.92466">
        <ele>1181.12</ele>
        <time>2021-08-15T11:10:26Z</time>
      </trkpt>
      <trkpt lat="45.2667" lon="2.92464">
        <ele>1181.12</ele>
        <time>2021-08-15T11:10:27Z</time>
      </trkpt>
      <trkpt lat="45.26666" lon="2.9246">
        <ele>1181.12</ele>
        <time>2021-08-15T11:10:28Z</time>
      </trkpt>
      <trkpt lat="45.26663" lon="2.92456">
        <ele>1181.12</ele>
        <time>2021-08-15T11:10:29Z</time>
      </trkpt>
      <trkpt lat="45.2666" lon="2.92452">
        <ele>1181.12</ele>
        <time>2021-08-15T11:10:30Z</time>
      </trkpt>
      <trkpt lat="45.2664" lon="2.92424">
        <ele>1179.19</ele>
        <time>2021-08-15T11:10:35Z</time>
      </trkpt>
      <trkpt lat="45.26625" lon="2.924">
        <ele>1178.23</ele>
        <time>2021-08-15T11:10:39Z</time>
      </trkpt>
      <trkpt lat="45.26586" lon="2.92363">
        <ele>1174.39</ele>
        <time>2021-08-15T11:10:46Z</time>
      </trkpt>
      <trkpt lat="45.26565" lon="2.92346">
        <ele>1171.98</ele>
        <time>2021-08-15T11:10:49Z</time>
      </trkpt>
      <trkpt lat="45.2655" lon="2.92334">
        <ele>1170.54</ele>
        <time>2021-08-15T11:10:51Z</time>
      </trkpt>
      <trkpt lat="45.26527" lon="2.92315">
        <ele>1166.22</ele>
        <time>2021-08-15T11:10:54Z</time>
      </trkpt>
      <trkpt lat="45.26519" lon="2.92308">
        <ele>1166.22</ele>
        <time>2021-08-15T11:10:55Z</time>
      </trkpt>
      <trkpt lat="45.26497" lon="2.92285">
        <ele>1165.26</ele>
        <time>2021-08-15T11:10:58Z</time>
      </trkpt>
      <trkpt lat="45.26491" lon="2.92276">
        <ele>1165.26</ele>
        <time>2021-08-15T11:10:59Z</time>
      </trkpt>
      <trkpt lat="45.26474" lon="2.92247">
        <ele>1163.33</ele>
        <time>2021-08-15T11:11:02Z</time>
      </trkpt>
      <trkpt lat="45.26456" lon="2.92201">
        <ele>1159.97</ele>
        <time>2021-08-15T11:11:06Z</time>
      </trkpt>
      <trkpt lat="45.26453" lon="2.9219">
        <ele>1159.97</ele>
        <time>2021-08-15T11:11:07Z</time>
      </trkpt>
      <trkpt lat="45.26426" lon="2.9212">
        <ele>1157.08</ele>
        <time>2021-08-15T11:11:13Z</time>
      </trkpt>
      <trkpt lat="45.26414" lon="2.92099">
        <ele>1155.64</ele>
        <time>2021-08-15T11:11:15Z</time>
      </trkpt>
      <trkpt lat="45.26368" lon="2.92034">
        <ele>1153.24</ele>
        <time>2021-08-15T11:11:22Z</time>
      </trkpt>
      <trkpt lat="45.26345" lon="2.92011">
        <ele>1151.32</ele>
        <time>2021-08-15T11:11:25Z</time>
      </trkpt>
      <trkpt lat="45.26337" lon="2.92003">
        <ele>1150.35</ele>
        <time>2021-08-15T11:11:26Z</time>
      </trkpt>
      <trkpt lat="45.26329" lon="2.91998">
        <ele>1150.35</ele>
        <time>2021-08-15T11:11:27Z</time>
      </trkpt>
      <trkpt lat="45.26322" lon="2.91995">
        <ele>1150.35</ele>
        <time>2021-08-15T11:11:28Z</time>
      </trkpt>
      <trkpt lat="45.26313" lon="2.91993">
        <ele>1150.35</ele>
        <time>2021-08-15T11:11:29Z</time>
      </trkpt>
      <trkpt lat="45.26307" lon="2.91994">
        <ele>1150.35</ele>
        <time>2021-08-15T11:11:30Z</time>
      </trkpt>
      <trkpt lat="45.26299" lon="2.91996">
        <ele>1150.35</ele>
        <time>2021-08-15T11:11:31Z</time>
      </trkpt>
      <trkpt lat="45.26293" lon="2.91999">
        <ele>1149.87</ele>
        <time>2021-08-15T11:11:32Z</time>
      </trkpt>
      <trkpt lat="45.26287" lon="2.92003">
        <ele>1151.32</ele>
        <time>2021-08-15T11:11:33Z</time>
      </trkpt>
      <trkpt lat="45.26281" lon="2.92007">
        <ele>1151.32</ele>
        <time>2021-08-15T11:11:34Z</time>
      </trkpt>
      <trkpt lat="45.26272" lon="2.92016">
        <ele>1152.28</ele>
        <time>2021-08-15T11:11:36Z</time>
      </trkpt>
      <trkpt lat="45.26257" lon="2.92034">
        <ele>1152.76</ele>
        <time>2021-08-15T11:11:40Z</time>
      </trkpt>
      <trkpt lat="45.2622" lon="2.92079">
        <ele>1151.8</ele>
        <time>2021-08-15T11:11:49Z</time>
      </trkpt>
      <trkpt lat="45.26216" lon="2.92084">
        <ele>1151.8</ele>
        <time>2021-08-15T11:11:50Z</time>
      </trkpt>
      <trkpt lat="45.26194" lon="2.92114">
        <ele>1147.95</ele>
        <time>2021-08-15T11:11:54Z</time>
      </trkpt>
      <trkpt lat="45.26172" lon="2.92152">
        <ele>1144.59</ele>
        <time>2021-08-15T11:11:58Z</time>
      </trkpt>
      <trkpt lat="45.26131" lon="2.92218">
        <ele>1141.22</ele>
        <time>2021-08-15T11:12:04Z</time>
      </trkpt>
      <trkpt lat="45.26102" lon="2.92262">
        <ele>1137.86</ele>
        <time>2021-08-15T11:12:09Z</time>
      </trkpt>
      <trkpt lat="45.26096" lon="2.92267">
        <ele>1136.9</ele>
        <time>2021-08-15T11:12:10Z</time>
      </trkpt>
      <trkpt lat="45.26088" lon="2.92271">
        <ele>1135.45</ele>
        <time>2021-08-15T11:12:11Z</time>
      </trkpt>
      <trkpt lat="45.26072" lon="2.92277">
        <ele>1134.01</ele>
        <time>2021-08-15T11:12:13Z</time>
      </trkpt>
      <trkpt lat="45.26066" lon="2.92281">
        <ele>1134.01</ele>
        <time>2021-08-15T11:12:14Z</time>
      </trkpt>
      <trkpt lat="45.2606" lon="2.92286">
        <ele>1134.01</ele>
        <time>2021-08-15T11:12:15Z</time>
      </trkpt>
      <trkpt lat="45.26046" lon="2.92299">
        <ele>1133.05</ele>
        <time>2021-08-15T11:12:18Z</time>
      </trkpt>
      <trkpt lat="45.26035" lon="2.92307">
        <ele>1132.09</ele>
        <time>2021-08-15T11:12:20Z</time>
      </trkpt>
      <trkpt lat="45.26029" lon="2.92308">
        <ele>1132.09</ele>
        <time>2021-08-15T11:12:21Z</time>
      </trkpt>
      <trkpt lat="45.26022" lon="2.92308">
        <ele>1131.61</ele>
        <time>2021-08-15T11:12:22Z</time>
      </trkpt>
      <trkpt lat="45.26016" lon="2.92306">
        <ele>1131.13</ele>
        <time>2021-08-15T11:12:23Z</time>
      </trkpt>
      <trkpt lat="45.2601" lon="2.92303">
        <ele>1131.13</ele>
        <time>2021-08-15T11:12:24Z</time>
      </trkpt>
      <trkpt lat="45.26004" lon="2.92301">
        <ele>1130.17</ele>
        <time>2021-08-15T11:12:25Z</time>
      </trkpt>
      <trkpt lat="45.25998" lon="2.92299">
        <ele>1130.17</ele>
        <time>2021-08-15T11:12:26Z</time>
      </trkpt>
      <trkpt lat="45.25992" lon="2.92299">
        <ele>1130.17</ele>
        <time>2021-08-15T11:12:27Z</time>
      </trkpt>
      <trkpt lat="45.25985" lon="2.923">
        <ele>1130.17</ele>
        <time>2021-08-15T11:12:28Z</time>
      </trkpt>
      <trkpt lat="45.25978" lon="2.92301">
        <ele>1130.17</ele>
        <time>2021-08-15T11:12:29Z</time>
      </trkpt>
      <trkpt lat="45.25971" lon="2.92303">
        <ele>1129.21</ele>
        <time>2021-08-15T11:12:30Z</time>
      </trkpt>
      <trkpt lat="45.25928" lon="2.92323">
        <ele>1125.36</ele>
        <time>2021-08-15T11:12:36Z</time>
      </trkpt>
      <trkpt lat="45.25897" lon="2.92344">
        <ele>1122.48</ele>
        <time>2021-08-15T11:12:40Z</time>
      </trkpt>
      <trkpt lat="45.25882" lon="2.92356">
        <ele>1121.52</ele>
        <time>2021-08-15T11:12:42Z</time>
      </trkpt>
      <trkpt lat="45.25861" lon="2.92372">
        <ele>1120.55</ele>
        <time>2021-08-15T11:12:45Z</time>
      </trkpt>
      <trkpt lat="45.25854" lon="2.92374">
        <ele>1120.55</ele>
        <time>2021-08-15T11:12:46Z</time>
      </trkpt>
      <trkpt lat="45.25846" lon="2.92375">
        <ele>1120.07</ele>
        <time>2021-08-15T11:12:47Z</time>
      </trkpt>
      <trkpt lat="45.25784" lon="2.92375">
        <ele>1116.23</ele>
        <time>2021-08-15T11:12:55Z</time>
      </trkpt>
      <trkpt lat="45.25777" lon="2.92376">
        <ele>1115.75</ele>
        <time>2021-08-15T11:12:56Z</time>
      </trkpt>
      <trkpt lat="45.25769" lon="2.92379">
        <ele>1115.75</ele>
        <time>2021-08-15T11:12:57Z</time>
      </trkpt>
      <trkpt lat="45.25736" lon="2.92394">
        <ele>1113.82</ele>
        <time>2021-08-15T11:13:01Z</time>
      </trkpt>
      <trkpt lat="45.25713" lon="2.92407">
        <ele>1111.9</ele>
        <time>2021-08-15T11:13:04Z</time>
      </trkpt>
      <trkpt lat="45.25708" lon="2.92413">
        <ele>1111.42</ele>
        <time>2021-08-15T11:13:05Z</time>
      </trkpt>
      <trkpt lat="45.25702" lon="2.92422">
        <ele>1110.94</ele>
        <time>2021-08-15T11:13:06Z</time>
      </trkpt>
      <trkpt lat="45.25698" lon="2.92431">
        <ele>1110.94</ele>
        <time>2021-08-15T11:13:07Z</time>
      </trkpt>
      <trkpt lat="45.25695" lon="2.92443">
        <ele>1110.94</ele>
        <time>2021-08-15T11:13:08Z</time>
      </trkpt>
      <trkpt lat="45.25693" lon="2.92451">
        <ele>1110.94</ele>
        <time>2021-08-15T11:13:09Z</time>
      </trkpt>
      <trkpt lat="45.25691" lon="2.9246">
        <ele>1110.94</ele>
        <time>2021-08-15T11:13:10Z</time>
      </trkpt>
      <trkpt lat="45.25691" lon="2.9247">
        <ele>1110.94</ele>
        <time>2021-08-15T11:13:11Z</time>
      </trkpt>
      <trkpt lat="45.25692" lon="2.92477">
        <ele>1110.94</ele>
        <time>2021-08-15T11:13:12Z</time>
      </trkpt>
      <trkpt lat="45.25693" lon="2.92486">
        <ele>1112.38</ele>
        <time>2021-08-15T11:13:13Z</time>
      </trkpt>
      <trkpt lat="45.25693" lon="2.92491">
        <ele>1112.38</ele>
        <time>2021-08-15T11:13:14Z</time>
      </trkpt>
      <trkpt lat="45.25692" lon="2.92497">
        <ele>1112.86</ele>
        <time>2021-08-15T11:13:15Z</time>
      </trkpt>
      <trkpt lat="45.25689" lon="2.92502">
        <ele>1112.86</ele>
        <time>2021-08-15T11:13:16Z</time>
      </trkpt>
      <trkpt lat="45.25686" lon="2.92504">
        <ele>1112.86</ele>
        <time>2021-08-15T11:13:17Z</time>
      </trkpt>
      <trkpt lat="45.25682" lon="2.92504">
        <ele>1112.86</ele>
        <time>2021-08-15T11:13:18Z</time>
      </trkpt>
      <trkpt lat="45.25677" lon="2.92504">
        <ele>1112.86</ele>
        <time>2021-08-15T11:13:19Z</time>
      </trkpt>
      <trkpt lat="45.25674" lon="2.92504">
        <ele>1112.86</ele>
        <time>2021-08-15T11:13:20Z</time>
      </trkpt>
      <trkpt lat="45.25642" lon="2.92507">
        <ele>1112.86</ele>
        <time>2021-08-15T11:13:27Z</time>
      </trkpt>
      <trkpt lat="45.25594" lon="2.92516">
        <ele>1113.82</ele>
        <time>2021-08-15T11:13:38Z</time>
      </trkpt>
      <trkpt lat="45.2557" lon="2.92519">
        <ele>1113.82</ele>
        <time>2021-08-15T11:13:44Z</time>
      </trkpt>
      <trkpt lat="45.25566" lon="2.92515">
        <ele>1113.82</ele>
        <time>2021-08-15T11:13:45Z</time>
      </trkpt>
      <trkpt lat="45.25565" lon="2.9251">
        <ele>1111.9</ele>
        <time>2021-08-15T11:13:46Z</time>
      </trkpt>
      <trkpt lat="45.25563" lon="2.92503">
        <ele>1111.9</ele>
        <time>2021-08-15T11:13:47Z</time>
      </trkpt>
      <trkpt lat="45.25555" lon="2.92464">
        <ele>1108.54</ele>
        <time>2021-08-15T11:13:52Z</time>
      </trkpt>
      <trkpt lat="45.25552" lon="2.92455">
        <ele>1108.54</ele>
        <time>2021-08-15T11:13:53Z</time>
      </trkpt>
      <trkpt lat="45.25547" lon="2.92445">
        <ele>1106.61</ele>
        <time>2021-08-15T11:13:54Z</time>
      </trkpt>
      <trkpt lat="45.25543" lon="2.92438">
        <ele>1106.61</ele>
        <time>2021-08-15T11:13:55Z</time>
      </trkpt>
      <trkpt lat="45.25514" lon="2.92385">
        <ele>1102.29</ele>
        <time>2021-08-15T11:14:01Z</time>
      </trkpt>
      <trkpt lat="45.2549" lon="2.9235">
        <ele>1099.89</ele>
        <time>2021-08-15T11:14:05Z</time>
      </trkpt>
      <trkpt lat="45.25471" lon="2.92318">
        <ele>1096.52</ele>
        <time>2021-08-15T11:14:08Z</time>
      </trkpt>
      <trkpt lat="45.25436" lon="2.92259">
        <ele>1092.68</ele>
        <time>2021-08-15T11:14:14Z</time>
      </trkpt>
      <trkpt lat="45.25431" lon="2.9225">
        <ele>1092.68</ele>
        <time>2021-08-15T11:14:15Z</time>
      </trkpt>
      <trkpt lat="45.25417" lon="2.92221">
        <ele>1093.16</ele>
        <time>2021-08-15T11:14:19Z</time>
      </trkpt>
      <trkpt lat="45.25415" lon="2.92217">
        <ele>1093.16</ele>
        <time>2021-08-15T11:14:20Z</time>
      </trkpt>
      <trkpt lat="45.25408" lon="2.92199">
        <ele>1091.23</ele>
        <time>2021-08-15T11:14:25Z</time>
      </trkpt>
      <trkpt lat="45.25392" lon="2.92167">
        <ele>1088.35</ele>
        <time>2021-08-15T11:14:33Z</time>
      </trkpt>
      <trkpt lat="45.25378" lon="2.9215">
        <ele>1084.99</ele>
        <time>2021-08-15T11:14:39Z</time>
      </trkpt>
      <trkpt lat="45.25376" lon="2.92148">
        <ele>1084.5</ele>
        <time>2021-08-15T11:14:40Z</time>
      </trkpt>
      <trkpt lat="45.25374" lon="2.92144">
        <ele>1084.02</ele>
        <time>2021-08-15T11:14:41Z</time>
      </trkpt>
      <trkpt lat="45.2537" lon="2.92133">
        <ele>1082.1</ele>
        <time>2021-08-15T11:14:44Z</time>
      </trkpt>
      <trkpt lat="45.25358" lon="2.92115">
        <ele>1078.74</ele>
        <time>2021-08-15T11:14:50Z</time>
      </trkpt>
      <trkpt lat="45.25345" lon="2.92107">
        <ele>1075.37</ele>
        <time>2021-08-15T11:14:55Z</time>
      </trkpt>
      <trkpt lat="45.25338" lon="2.92108">
        <ele>1074.89</ele>
        <time>2021-08-15T11:14:57Z</time>
      </trkpt>
      <trkpt lat="45.25323" lon="2.9211">
        <ele>1072.49</ele>
        <time>2021-08-15T11:15:01Z</time>
      </trkpt>
      <trkpt lat="45.25311" lon="2.9211">
        <ele>1069.12</ele>
        <time>2021-08-15T11:15:05Z</time>
      </trkpt>
      <trkpt lat="45.25293" lon="2.92115">
        <ele>1065.76</ele>
        <time>2021-08-15T11:15:11Z</time>
      </trkpt>
      <trkpt lat="45.25275" lon="2.92133">
        <ele>1062.87</ele>
        <time>2021-08-15T11:15:17Z</time>
      </trkpt>
      <trkpt lat="45.25269" lon="2.9214">
        <ele>1061.43</ele>
        <time>2021-08-15T11:15:19Z</time>
      </trkpt>
      <trkpt lat="45.25265" lon="2.92145">
        <ele>1060.95</ele>
        <time>2021-08-15T11:15:20Z</time>
      </trkpt>
      <trkpt lat="45.25255" lon="2.92157">
        <ele>1058.55</ele>
        <time>2021-08-15T11:15:23Z</time>
      </trkpt>
      <trkpt lat="45.2525" lon="2.9216">
        <ele>1057.59</ele>
        <time>2021-08-15T11:15:24Z</time>
      </trkpt>
      <trkpt lat="45.25241" lon="2.92161">
        <ele>1056.15</ele>
        <time>2021-08-15T11:15:26Z</time>
      </trkpt>
      <trkpt lat="45.25237" lon="2.9216">
        <ele>1055.18</ele>
        <time>2021-08-15T11:15:27Z</time>
      </trkpt>
      <trkpt lat="45.25234" lon="2.92157">
        <ele>1054.7</ele>
        <time>2021-08-15T11:15:28Z</time>
      </trkpt>
      <trkpt lat="45.25231" lon="2.92153">
        <ele>1053.74</ele>
        <time>2021-08-15T11:15:29Z</time>
      </trkpt>
      <trkpt lat="45.2523" lon="2.92149">
        <ele>1052.78</ele>
        <time>2021-08-15T11:15:30Z</time>
      </trkpt>
      <trkpt lat="45.2523" lon="2.92144">
        <ele>1052.3</ele>
        <time>2021-08-15T11:15:31Z</time>
      </trkpt>
      <trkpt lat="45.25231" lon="2.92139">
        <ele>1052.3</ele>
        <time>2021-08-15T11:15:32Z</time>
      </trkpt>
      <trkpt lat="45.25234" lon="2.92121">
        <ele>1049.9</ele>
        <time>2021-08-15T11:15:35Z</time>
      </trkpt>
      <trkpt lat="45.25236" lon="2.92115">
        <ele>1049.42</ele>
        <time>2021-08-15T11:15:36Z</time>
      </trkpt>
      <trkpt lat="45.25238" lon="2.92107">
        <ele>1049.42</ele>
        <time>2021-08-15T11:15:37Z</time>
      </trkpt>
      <trkpt lat="45.2524" lon="2.92101">
        <ele>1048.94</ele>
        <time>2021-08-15T11:15:38Z</time>
      </trkpt>
      <trkpt lat="45.25243" lon="2.92094">
        <ele>1047.97</ele>
        <time>2021-08-15T11:15:39Z</time>
      </trkpt>
      <trkpt lat="45.25245" lon="2.92089">
        <ele>1047.97</ele>
        <time>2021-08-15T11:15:40Z</time>
      </trkpt>
      <trkpt lat="45.25253" lon="2.92069">
        <ele>1046.53</ele>
        <time>2021-08-15T11:15:44Z</time>
      </trkpt>
      <trkpt lat="45.25258" lon="2.9205">
        <ele>1043.65</ele>
        <time>2021-08-15T11:15:47Z</time>
      </trkpt>
      <trkpt lat="45.25266" lon="2.92024">
        <ele>1040.28</ele>
        <time>2021-08-15T11:15:51Z</time>
      </trkpt>
      <trkpt lat="45.25268" lon="2.92019">
        <ele>1039.32</ele>
        <time>2021-08-15T11:15:52Z</time>
      </trkpt>
      <trkpt lat="45.2527" lon="2.92008">
        <ele>1038.36</ele>
        <time>2021-08-15T11:15:54Z</time>
      </trkpt>
      <trkpt lat="45.25272" lon="2.91987">
        <ele>1037.4</ele>
        <time>2021-08-15T11:15:59Z</time>
      </trkpt>
      <trkpt lat="45.25268" lon="2.91968">
        <ele>1035.48</ele>
        <time>2021-08-15T11:16:03Z</time>
      </trkpt>
      <trkpt lat="45.25265" lon="2.91962">
        <ele>1035</ele>
        <time>2021-08-15T11:16:04Z</time>
      </trkpt>
      <trkpt lat="45.25262" lon="2.91957">
        <ele>1034.04</ele>
        <time>2021-08-15T11:16:05Z</time>
      </trkpt>
      <trkpt lat="45.25258" lon="2.91951">
        <ele>1033.55</ele>
        <time>2021-08-15T11:16:06Z</time>
      </trkpt>
      <trkpt lat="45.25254" lon="2.91944">
        <ele>1033.55</ele>
        <time>2021-08-15T11:16:07Z</time>
      </trkpt>
      <trkpt lat="45.25239" lon="2.91912">
        <ele>1031.15</ele>
        <time>2021-08-15T11:16:11Z</time>
      </trkpt>
      <trkpt lat="45.25234" lon="2.91905">
        <ele>1031.15</ele>
        <time>2021-08-15T11:16:12Z</time>
      </trkpt>
      <trkpt lat="45.25229" lon="2.919">
        <ele>1030.67</ele>
        <time>2021-08-15T11:16:13Z</time>
      </trkpt>
      <trkpt lat="45.25224" lon="2.91896">
        <ele>1030.67</ele>
        <time>2021-08-15T11:16:14Z</time>
      </trkpt>
      <trkpt lat="45.25218" lon="2.91892">
        <ele>1030.67</ele>
        <time>2021-08-15T11:16:15Z</time>
      </trkpt>
      <trkpt lat="45.25195" lon="2.91877">
        <ele>1030.67</ele>
        <time>2021-08-15T11:16:20Z</time>
      </trkpt>
      <trkpt lat="45.25186" lon="2.91872">
        <ele>1033.07</ele>
        <time>2021-08-15T11:16:25Z</time>
      </trkpt>
      <trkpt lat="45.25179" lon="2.91869">
        <ele>1033.55</ele>
        <time>2021-08-15T11:16:29Z</time>
      </trkpt>
      <trkpt lat="45.25178" lon="2.91868">
        <ele>1034.04</ele>
        <time>2021-08-15T11:16:30Z</time>
      </trkpt>
      <trkpt lat="45.25176" lon="2.91868">
        <ele>1034.04</ele>
        <time>2021-08-15T11:16:31Z</time>
      </trkpt>
      <trkpt lat="45.25175" lon="2.91867">
        <ele>1034.04</ele>
        <time>2021-08-15T11:16:32Z</time>
      </trkpt>
      <trkpt lat="45.25174" lon="2.91865">
        <ele>1034.04</ele>
        <time>2021-08-15T11:16:33Z</time>
      </trkpt>
      <trkpt lat="45.2516" lon="2.91853">
        <ele>1035.48</ele>
        <time>2021-08-15T11:16:43Z</time>
      </trkpt>
      <trkpt lat="45.25149" lon="2.91835">
        <ele>1036.44</ele>
        <time>2021-08-15T11:16:52Z</time>
      </trkpt>
      <trkpt lat="45.25138" lon="2.91812">
        <ele>1037.4</ele>
        <time>2021-08-15T11:17:03Z</time>
      </trkpt>
      <trkpt lat="45.25129" lon="2.91794">
        <ele>1038.36</ele>
        <time>2021-08-15T11:17:12Z</time>
      </trkpt>
      <trkpt lat="45.25129" lon="2.91792">
        <ele>1038.36</ele>
        <time>2021-08-15T11:17:13Z</time>
      </trkpt>
      <trkpt lat="45.25128" lon="2.9179">
        <ele>1038.84</ele>
        <time>2021-08-15T11:17:14Z</time>
      </trkpt>
      <trkpt lat="45.25115" lon="2.91769">
        <ele>1040.28</ele>
        <time>2021-08-15T11:17:26Z</time>
      </trkpt>
      <trkpt lat="45.25105" lon="2.91751">
        <ele>1041.73</ele>
        <time>2021-08-15T11:17:35Z</time>
      </trkpt>
      <trkpt lat="45.25096" lon="2.91732">
        <ele>1042.69</ele>
        <time>2021-08-15T11:17:43Z</time>
      </trkpt>
      <trkpt lat="45.25086" lon="2.91709">
        <ele>1042.69</ele>
        <time>2021-08-15T11:17:51Z</time>
      </trkpt>
      <trkpt lat="45.25083" lon="2.91708">
        <ele>1042.69</ele>
        <time>2021-08-15T11:17:52Z</time>
      </trkpt>
      <trkpt lat="45.25081" lon="2.91708">
        <ele>1042.69</ele>
        <time>2021-08-15T11:17:53Z</time>
      </trkpt>
      <trkpt lat="45.25078" lon="2.91707">
        <ele>1042.69</ele>
        <time>2021-08-15T11:17:54Z</time>
      </trkpt>
      <trkpt lat="45.25075" lon="2.91707">
        <ele>1042.69</ele>
        <time>2021-08-15T11:17:55Z</time>
      </trkpt>
      <trkpt lat="45.25073" lon="2.91707">
        <ele>1042.69</ele>
        <time>2021-08-15T11:17:56Z</time>
      </trkpt>
      <trkpt lat="45.25053" lon="2.91708">
        <ele>1042.69</ele>
        <time>2021-08-15T11:18:02Z</time>
      </trkpt>
      <trkpt lat="45.25042" lon="2.91714">
        <ele>1041.25</ele>
        <time>2021-08-15T11:18:05Z</time>
      </trkpt>
      <trkpt lat="45.2501" lon="2.91739">
        <ele>1038.84</ele>
        <time>2021-08-15T11:18:12Z</time>
      </trkpt>
      <trkpt lat="45.24982" lon="2.91762">
        <ele>1037.4</ele>
        <time>2021-08-15T11:18:17Z</time>
      </trkpt>
      <trkpt lat="45.24959" lon="2.91782">
        <ele>1035.96</ele>
        <time>2021-08-15T11:18:22Z</time>
      </trkpt>
      <trkpt lat="45.24926" lon="2.91818">
        <ele>1033.55</ele>
        <time>2021-08-15T11:18:28Z</time>
      </trkpt>
      <trkpt lat="45.24907" lon="2.91839">
        <ele>1032.11</ele>
        <time>2021-08-15T11:18:31Z</time>
      </trkpt>
      <trkpt lat="45.24863" lon="2.91886">
        <ele>1028.27</ele>
        <time>2021-08-15T11:18:37Z</time>
      </trkpt>
      <trkpt lat="45.24822" lon="2.91923">
        <ele>1024.9</ele>
        <time>2021-08-15T11:18:42Z</time>
      </trkpt>
      <trkpt lat="45.24785" lon="2.91949">
        <ele>1023.46</ele>
        <time>2021-08-15T11:18:46Z</time>
      </trkpt>
      <trkpt lat="45.24755" lon="2.91966">
        <ele>1021.54</ele>
        <time>2021-08-15T11:18:49Z</time>
      </trkpt>
      <trkpt lat="45.24714" lon="2.9199">
        <ele>1018.17</ele>
        <time>2021-08-15T11:18:53Z</time>
      </trkpt>
      <trkpt lat="45.24657" lon="2.92026">
        <ele>1016.73</ele>
        <time>2021-08-15T11:18:59Z</time>
      </trkpt>
      <trkpt lat="45.24629" lon="2.92048">
        <ele>1015.77</ele>
        <time>2021-08-15T11:19:03Z</time>
      </trkpt>
      <trkpt lat="45.24623" lon="2.9205">
        <ele>1015.77</ele>
        <time>2021-08-15T11:19:04Z</time>
      </trkpt>
      <trkpt lat="45.24616" lon="2.92051">
        <ele>1014.81</ele>
        <time>2021-08-15T11:19:05Z</time>
      </trkpt>
      <trkpt lat="45.24612" lon="2.92049">
        <ele>1014.81</ele>
        <time>2021-08-15T11:19:06Z</time>
      </trkpt>
      <trkpt lat="45.24608" lon="2.92045">
        <ele>1013.85</ele>
        <time>2021-08-15T11:19:07Z</time>
      </trkpt>
      <trkpt lat="45.24605" lon="2.92041">
        <ele>1014.33</ele>
        <time>2021-08-15T11:19:08Z</time>
      </trkpt>
      <trkpt lat="45.24602" lon="2.92039">
        <ele>1014.33</ele>
        <time>2021-08-15T11:19:09Z</time>
      </trkpt>
      <trkpt lat="45.24598" lon="2.92038">
        <ele>1014.33</ele>
        <time>2021-08-15T11:19:10Z</time>
      </trkpt>
      <trkpt lat="45.24594" lon="2.9204">
        <ele>1014.33</ele>
        <time>2021-08-15T11:19:11Z</time>
      </trkpt>
      <trkpt lat="45.2457" lon="2.92059">
        <ele>1013.37</ele>
        <time>2021-08-15T11:19:17Z</time>
      </trkpt>
      <trkpt lat="45.24532" lon="2.92094">
        <ele>1012.41</ele>
        <time>2021-08-15T11:19:24Z</time>
      </trkpt>
      <trkpt lat="45.24478" lon="2.9216">
        <ele>1010.96</ele>
        <time>2021-08-15T11:19:34Z</time>
      </trkpt>
      <trkpt lat="45.24474" lon="2.9217">
        <ele>1010.96</ele>
        <time>2021-08-15T11:19:35Z</time>
      </trkpt>
      <trkpt lat="45.24471" lon="2.92179">
        <ele>1010.96</ele>
        <time>2021-08-15T11:19:36Z</time>
      </trkpt>
      <trkpt lat="45.24468" lon="2.92189">
        <ele>1010</ele>
        <time>2021-08-15T11:19:37Z</time>
      </trkpt>
      <trkpt lat="45.24465" lon="2.92199">
        <ele>1010</ele>
        <time>2021-08-15T11:19:38Z</time>
      </trkpt>
      <trkpt lat="45.24442" lon="2.92288">
        <ele>1008.08</ele>
        <time>2021-08-15T11:19:46Z</time>
      </trkpt>
      <trkpt lat="45.24413" lon="2.92367">
        <ele>1005.68</ele>
        <time>2021-08-15T11:19:53Z</time>
      </trkpt>
      <trkpt lat="45.24371" lon="2.92439">
        <ele>1004.72</ele>
        <time>2021-08-15T11:20:00Z</time>
      </trkpt>
      <trkpt lat="45.24308" lon="2.92528">
        <ele>1003.75</ele>
        <time>2021-08-15T11:20:10Z</time>
      </trkpt>
      <trkpt lat="45.2425" lon="2.92608">
        <ele>1003.75</ele>
        <time>2021-08-15T11:20:20Z</time>
      </trkpt>
      <trkpt lat="45.24204" lon="2.92673">
        <ele>1003.27</ele>
        <time>2021-08-15T11:20:29Z</time>
      </trkpt>
      <trkpt lat="45.24163" lon="2.9273">
        <ele>1002.79</ele>
        <time>2021-08-15T11:20:37Z</time>
      </trkpt>
      <trkpt lat="45.24108" lon="2.92809">
        <ele>1000.39</ele>
        <time>2021-08-15T11:20:47Z</time>
      </trkpt>
      <trkpt lat="45.24054" lon="2.92883">
        <ele>998.47</ele>
        <time>2021-08-15T11:20:56Z</time>
      </trkpt>
      <trkpt lat="45.24046" lon="2.92895">
        <ele>998.47</ele>
        <time>2021-08-15T11:20:58Z</time>
      </trkpt>
      <trkpt lat="45.24042" lon="2.92897">
        <ele>998.95</ele>
        <time>2021-08-15T11:20:59Z</time>
      </trkpt>
      <trkpt lat="45.24038" lon="2.92898">
        <ele>998.95</ele>
        <time>2021-08-15T11:21:00Z</time>
      </trkpt>
      <trkpt lat="45.24034" lon="2.92896">
        <ele>998.47</ele>
        <time>2021-08-15T11:21:01Z</time>
      </trkpt>
      <trkpt lat="45.2403" lon="2.92893">
        <ele>998.47</ele>
        <time>2021-08-15T11:21:02Z</time>
      </trkpt>
      <trkpt lat="45.24026" lon="2.9289">
        <ele>998.47</ele>
        <time>2021-08-15T11:21:03Z</time>
      </trkpt>
      <trkpt lat="45.24023" lon="2.92886">
        <ele>998.47</ele>
        <time>2021-08-15T11:21:04Z</time>
      </trkpt>
      <trkpt lat="45.24003" lon="2.9286">
        <ele>998.47</ele>
        <time>2021-08-15T11:21:11Z</time>
      </trkpt>
      <trkpt lat="45.23984" lon="2.92822">
        <ele>997.02</ele>
        <time>2021-08-15T11:21:19Z</time>
      </trkpt>
      <trkpt lat="45.23982" lon="2.92815">
        <ele>997.02</ele>
        <time>2021-08-15T11:21:20Z</time>
      </trkpt>
      <trkpt lat="45.2398" lon="2.92808">
        <ele>996.06</ele>
        <time>2021-08-15T11:21:21Z</time>
      </trkpt>
      <trkpt lat="45.23973" lon="2.92777">
        <ele>994.14</ele>
        <time>2021-08-15T11:21:25Z</time>
      </trkpt>
      <trkpt lat="45.23971" lon="2.92766">
        <ele>994.14</ele>
        <time>2021-08-15T11:21:27Z</time>
      </trkpt>
      <trkpt lat="45.23972" lon="2.92761">
        <ele>994.14</ele>
        <time>2021-08-15T11:21:28Z</time>
      </trkpt>
      <trkpt lat="45.23973" lon="2.92758">
        <ele>994.14</ele>
        <time>2021-08-15T11:21:29Z</time>
      </trkpt>
      <trkpt lat="45.23973" lon="2.92754">
        <ele>994.14</ele>
        <time>2021-08-15T11:21:30Z</time>
      </trkpt>
      <trkpt lat="45.23972" lon="2.92752">
        <ele>994.14</ele>
        <time>2021-08-15T11:21:31Z</time>
      </trkpt>
      <trkpt lat="45.2397" lon="2.92753">
        <ele>994.14</ele>
        <time>2021-08-15T11:21:35Z</time>
      </trkpt>
      <trkpt lat="45.23955" lon="2.92764">
        <ele>994.14</ele>
        <time>2021-08-15T11:21:41Z</time>
      </trkpt>
      <trkpt lat="45.23933" lon="2.92773">
        <ele>994.14</ele>
        <time>2021-08-15T11:21:49Z</time>
      </trkpt>
      <trkpt lat="45.2392" lon="2.92778">
        <ele>994.14</ele>
        <time>2021-08-15T11:21:56Z</time>
      </trkpt>
      <trkpt lat="45.23918" lon="2.92779">
        <ele>994.14</ele>
        <time>2021-08-15T11:21:57Z</time>
      </trkpt>
      <trkpt lat="45.23916" lon="2.92777">
        <ele>994.14</ele>
        <time>2021-08-15T11:21:58Z</time>
      </trkpt>
      <trkpt lat="45.23916" lon="2.92767">
        <ele>994.14</ele>
        <time>2021-08-15T11:22:03Z</time>
      </trkpt>
      <trkpt lat="45.23917" lon="2.92767">
        <ele>994.14</ele>
        <time>2021-08-15T11:22:04Z</time>
      </trkpt>
      <trkpt lat="45.2392" lon="2.92767">
        <ele>994.14</ele>
        <time>2021-08-15T11:22:09Z</time>
      </trkpt>
      <trkpt lat="45.23921" lon="2.92769">
        <ele>994.14</ele>
        <time>2021-08-15T11:22:16Z</time>
      </trkpt>
      <trkpt lat="45.23923" lon="2.92768">
        <ele>994.14</ele>
        <time>2021-08-15T11:22:27Z</time>
      </trkpt>
      <trkpt lat="45.23923" lon="2.92766">
        <ele>993.66</ele>
        <time>2021-08-15T11:22:43Z</time>
      </trkpt>
      <trkpt lat="45.23922" lon="2.92765">
        <ele>993.66</ele>
        <time>2021-08-15T11:23:01Z</time>
      </trkpt>
      <trkpt lat="45.23922" lon="2.92764">
        <ele>993.66</ele>
        <time>2021-08-15T11:23:22Z</time>
      </trkpt>
      <trkpt lat="45.23923" lon="2.92765">
        <ele>993.18</ele>
        <time>2021-08-15T11:23:45Z</time>
      </trkpt>
      <trkpt lat="45.23923" lon="2.92767">
        <ele>993.18</ele>
        <time>2021-08-15T11:24:10Z</time>
      </trkpt>
      <trkpt lat="45.23922" lon="2.92766">
        <ele>992.7</ele>
        <time>2021-08-15T11:24:36Z</time>
      </trkpt>
      <trkpt lat="45.23921" lon="2.92766">
        <ele>992.7</ele>
        <time>2021-08-15T11:25:01Z</time>
      </trkpt>
      <trkpt lat="45.23921" lon="2.92768">
        <ele>993.66</ele>
        <time>2021-08-15T11:25:29Z</time>
      </trkpt>
      <trkpt lat="45.23921" lon="2.92766">
        <ele>993.66</ele>
        <time>2021-08-15T11:25:50Z</time>
      </trkpt>
      <trkpt lat="45.23919" lon="2.92767">
        <ele>993.66</ele>
        <time>2021-08-15T11:26:15Z</time>
      </trkpt>
      <trkpt lat="45.2392" lon="2.92766">
        <ele>993.18</ele>
        <time>2021-08-15T11:26:42Z</time>
      </trkpt>
      <trkpt lat="45.23919" lon="2.92765">
        <ele>993.18</ele>
        <time>2021-08-15T11:27:02Z</time>
      </trkpt>
      <trkpt lat="45.23919" lon="2.92766">
        <ele>993.18</ele>
        <time>2021-08-15T11:27:08Z</time>
      </trkpt>
      <trkpt lat="45.23919" lon="2.92764">
        <ele>993.18</ele>
        <time>2021-08-15T11:27:16Z</time>
      </trkpt>
      <trkpt lat="45.2392" lon="2.92762">
        <ele>992.7</ele>
        <time>2021-08-15T11:27:42Z</time>
      </trkpt>
      <trkpt lat="45.23917" lon="2.92762">
        <ele>992.7</ele>
        <time>2021-08-15T11:28:05Z</time>
      </trkpt>
      <trkpt lat="45.23917" lon="2.92763">
        <ele>992.22</ele>
        <time>2021-08-15T11:28:33Z</time>
      </trkpt>
      <trkpt lat="45.23919" lon="2.92766">
        <ele>992.22</ele>
        <time>2021-08-15T11:28:59Z</time>
      </trkpt>
      <trkpt lat="45.23918" lon="2.92767">
        <ele>991.74</ele>
        <time>2021-08-15T11:29:20Z</time>
      </trkpt>
      <trkpt lat="45.23919" lon="2.92767">
        <ele>991.74</ele>
        <time>2021-08-15T11:29:49Z</time>
      </trkpt>
      <trkpt lat="45.23919" lon="2.92766">
        <ele>991.26</ele>
        <time>2021-08-15T11:30:11Z</time>
      </trkpt>
      <trkpt lat="45.23919" lon="2.92766">
        <ele>991.26</ele>
        <time>2021-08-15T11:30:35Z</time>
      </trkpt>
      <trkpt lat="45.23919" lon="2.92766">
        <ele>991.26</ele>
        <time>2021-08-15T11:30:56Z</time>
      </trkpt>
      <trkpt lat="45.23918" lon="2.92765">
        <ele>990.78</ele>
        <time>2021-08-15T11:31:15Z</time>
      </trkpt>
      <trkpt lat="45.23918" lon="2.92766">
        <ele>991.26</ele>
        <time>2021-08-15T11:31:33Z</time>
      </trkpt>
      <trkpt lat="45.23918" lon="2.92765">
        <ele>991.26</ele>
        <time>2021-08-15T11:31:54Z</time>
      </trkpt>
      <trkpt lat="45.23918" lon="2.92766">
        <ele>991.26</ele>
        <time>2021-08-15T11:32:15Z</time>
      </trkpt>
      <trkpt lat="45.23919" lon="2.92767">
        <ele>991.26</ele>
        <time>2021-08-15T11:32:18Z</time>
      </trkpt>
      <trkpt lat="45.2392" lon="2.92768">
        <ele>991.26</ele>
        <time>2021-08-15T11:32:25Z</time>
      </trkpt>
      <trkpt lat="45.23919" lon="2.92768">
        <ele>991.26</ele>
        <time>2021-08-15T11:32:49Z</time>
      </trkpt>
      <trkpt lat="45.23919" lon="2.92768">
        <ele>991.26</ele>
        <time>2021-08-15T11:33:06Z</time>
      </trkpt>
      <trkpt lat="45.23918" lon="2.92766">
        <ele>991.26</ele>
        <time>2021-08-15T11:33:35Z</time>
      </trkpt>
      <trkpt lat="45.23918" lon="2.92767">
        <ele>991.26</ele>
        <time>2021-08-15T11:34:02Z</time>
      </trkpt>
      <trkpt lat="45.23917" lon="2.92766">
        <ele>991.26</ele>
        <time>2021-08-15T11:34:26Z</time>
      </trkpt>
      <trkpt lat="45.23917" lon="2.92765">
        <ele>990.78</ele>
        <time>2021-08-15T11:34:46Z</time>
      </trkpt>
      <trkpt lat="45.23918" lon="2.92764">
        <ele>990.78</ele>
        <time>2021-08-15T11:35:06Z</time>
      </trkpt>
      <trkpt lat="45.2392" lon="2.92764">
        <ele>990.78</ele>
        <time>2021-08-15T11:35:22Z</time>
      </trkpt>
      <trkpt lat="45.23919" lon="2.92765">
        <ele>990.78</ele>
        <time>2021-08-15T11:35:51Z</time>
      </trkpt>
      <trkpt lat="45.23919" lon="2.92764">
        <ele>990.78</ele>
        <time>2021-08-15T11:36:09Z</time>
      </trkpt>
      <trkpt lat="45.2392" lon="2.92764">
        <ele>991.26</ele>
        <time>2021-08-15T11:36:32Z</time>
      </trkpt>
      <trkpt lat="45.2392" lon="2.92765">
        <ele>990.78</ele>
        <time>2021-08-15T11:36:46Z</time>
      </trkpt>
      <trkpt lat="45.2392" lon="2.92766">
        <ele>990.78</ele>
        <time>2021-08-15T11:37:05Z</time>
      </trkpt>
      <trkpt lat="45.2392" lon="2.92766">
        <ele>990.78</ele>
        <time>2021-08-15T11:37:14Z</time>
      </trkpt>
      <trkpt lat="45.23921" lon="2.92767">
        <ele>991.26</ele>
        <time>2021-08-15T11:37:39Z</time>
      </trkpt>
      <trkpt lat="45.23921" lon="2.92769">
        <ele>990.78</ele>
        <time>2021-08-15T11:38:00Z</time>
      </trkpt>
      <trkpt lat="45.23921" lon="2.92768">
        <ele>990.78</ele>
        <time>2021-08-15T11:38:30Z</time>
      </trkpt>
      <trkpt lat="45.23921" lon="2.92767">
        <ele>990.78</ele>
        <time>2021-08-15T11:38:53Z</time>
      </trkpt>
      <trkpt lat="45.23921" lon="2.92768">
        <ele>990.3</ele>
        <time>2021-08-15T11:39:21Z</time>
      </trkpt>
      <trkpt lat="45.23921" lon="2.92768">
        <ele>990.78</ele>
        <time>2021-08-15T11:39:45Z</time>
      </trkpt>
      <trkpt lat="45.23921" lon="2.92767">
        <ele>990.78</ele>
        <time>2021-08-15T11:40:11Z</time>
      </trkpt>
      <trkpt lat="45.23919" lon="2.92766">
        <ele>990.3</ele>
        <time>2021-08-15T11:40:37Z</time>
      </trkpt>
      <trkpt lat="45.23919" lon="2.92766">
        <ele>990.3</ele>
        <time>2021-08-15T11:40:58Z</time>
      </trkpt>
      <trkpt lat="45.23918" lon="2.92765">
        <ele>990.3</ele>
        <time>2021-08-15T11:41:16Z</time>
      </trkpt>
      <trkpt lat="45.23918" lon="2.92766">
        <ele>990.3</ele>
        <time>2021-08-15T11:41:36Z</time>
      </trkpt>
      <trkpt lat="45.2392" lon="2.92767">
        <ele>989.81</ele>
        <time>2021-08-15T11:41:56Z</time>
      </trkpt>
      <trkpt lat="45.23921" lon="2.92766">
        <ele>989.81</ele>
        <time>2021-08-15T11:42:18Z</time>
      </trkpt>
      <trkpt lat="45.23923" lon="2.92766">
        <ele>989.81</ele>
        <time>2021-08-15T11:42:41Z</time>
      </trkpt>
      <trkpt lat="45.23923" lon="2.92768">
        <ele>989.81</ele>
        <time>2021-08-15T11:43:08Z</time>
      </trkpt>
      <trkpt lat="45.23923" lon="2.92766">
        <ele>989.33</ele>
        <time>2021-08-15T11:43:29Z</time>
      </trkpt>
      <trkpt lat="45.23922" lon="2.92765">
        <ele>989.33</ele>
        <time>2021-08-15T11:43:47Z</time>
      </trkpt>
      <trkpt lat="45.23922" lon="2.92766">
        <ele>989.33</ele>
        <time>2021-08-15T11:44:10Z</time>
      </trkpt>
      <trkpt lat="45.23922" lon="2.92767">
        <ele>989.81</ele>
        <time>2021-08-15T11:44:31Z</time>
      </trkpt>
      <trkpt lat="45.23922" lon="2.92765">
        <ele>989.33</ele>
        <time>2021-08-15T11:44:55Z</time>
      </trkpt>
      <trkpt lat="45.23921" lon="2.92763">
        <ele>989.33</ele>
        <time>2021-08-15T11:45:13Z</time>
      </trkpt>
      <trkpt lat="45.23921" lon="2.92763">
        <ele>989.33</ele>
        <time>2021-08-15T11:45:35Z</time>
      </trkpt>
      <trkpt lat="45.2392" lon="2.92765">
        <ele>988.85</ele>
        <time>2021-08-15T11:45:59Z</time>
      </trkpt>
      <trkpt lat="45.23919" lon="2.92766">
        <ele>988.85</ele>
        <time>2021-08-15T11:46:21Z</time>
      </trkpt>
      <trkpt lat="45.23919" lon="2.92765">
        <ele>988.85</ele>
        <time>2021-08-15T11:46:50Z</time>
      </trkpt>
      <trkpt lat="45.2392" lon="2.92766">
        <ele>988.37</ele>
        <time>2021-08-15T11:47:13Z</time>
      </trkpt>
      <trkpt lat="45.23922" lon="2.92765">
        <ele>988.37</ele>
        <time>2021-08-15T11:47:40Z</time>
      </trkpt>
      <trkpt lat="45.23922" lon="2.92765">
        <ele>988.37</ele>
        <time>2021-08-15T11:47:59Z</time>
      </trkpt>
      <trkpt lat="45.23921" lon="2.92764">
        <ele>987.89</ele>
        <time>2021-08-15T11:48:24Z</time>
      </trkpt>
      <trkpt lat="45.23921" lon="2.92764">
        <ele>987.89</ele>
        <time>2021-08-15T11:48:41Z</time>
      </trkpt>
      <trkpt lat="45.23921" lon="2.92764">
        <ele>987.89</ele>
        <time>2021-08-15T11:49:04Z</time>
      </trkpt>
      <trkpt lat="45.23921" lon="2.92763">
        <ele>987.89</ele>
        <time>2021-08-15T11:49:25Z</time>
      </trkpt>
      <trkpt lat="45.23919" lon="2.92762">
        <ele>987.89</ele>
        <time>2021-08-15T11:49:48Z</time>
      </trkpt>
      <trkpt lat="45.23919" lon="2.92764">
        <ele>987.41</ele>
        <time>2021-08-15T11:50:10Z</time>
      </trkpt>
      <trkpt lat="45.23919" lon="2.92765">
        <ele>987.41</ele>
        <time>2021-08-15T11:50:31Z</time>
      </trkpt>
      <trkpt lat="45.2392" lon="2.92766">
        <ele>987.41</ele>
        <time>2021-08-15T11:50:57Z</time>
      </trkpt>
      <trkpt lat="45.2392" lon="2.92767">
        <ele>986.93</ele>
        <time>2021-08-15T11:51:15Z</time>
      </trkpt>
      <trkpt lat="45.23922" lon="2.92766">
        <ele>986.93</ele>
        <time>2021-08-15T11:51:35Z</time>
      </trkpt>
      <trkpt lat="45.2392" lon="2.92766">
        <ele>986.93</ele>
        <time>2021-08-15T11:51:54Z</time>
      </trkpt>
      <trkpt lat="45.23919" lon="2.92765">
        <ele>986.93</ele>
        <time>2021-08-15T11:52:10Z</time>
      </trkpt>
      <trkpt lat="45.23918" lon="2.92764">
        <ele>986.93</ele>
        <time>2021-08-15T11:52:31Z</time>
      </trkpt>
      <trkpt lat="45.23918" lon="2.92765">
        <ele>986.45</ele>
        <time>2021-08-15T11:52:49Z</time>
      </trkpt>
      <trkpt lat="45.23919" lon="2.92766">
        <ele>986.45</ele>
        <time>2021-08-15T11:53:12Z</time>
      </trkpt>
      <trkpt lat="45.23919" lon="2.92766">
        <ele>986.45</ele>
        <time>2021-08-15T11:53:38Z</time>
      </trkpt>
      <trkpt lat="45.23919" lon="2.92766">
        <ele>986.45</ele>
        <time>2021-08-15T11:53:59Z</time>
      </trkpt>
      <trkpt lat="45.23918" lon="2.92764">
        <ele>985.97</ele>
        <time>2021-08-15T11:54:20Z</time>
      </trkpt>
      <trkpt lat="45.23918" lon="2.92762">
        <ele>985.97</ele>
        <time>2021-08-15T11:54:43Z</time>
      </trkpt>
      <trkpt lat="45.23918" lon="2.92763">
        <ele>985.97</ele>
        <time>2021-08-15T11:55:07Z</time>
      </trkpt>
      <trkpt lat="45.23917" lon="2.92763">
        <ele>985.97</ele>
        <time>2021-08-15T11:55:27Z</time>
      </trkpt>
      <trkpt lat="45.23919" lon="2.92764">
        <ele>985.49</ele>
        <time>2021-08-15T11:55:54Z</time>
      </trkpt>
      <trkpt lat="45.23921" lon="2.92764">
        <ele>985.49</ele>
        <time>2021-08-15T11:56:14Z</time>
      </trkpt>
      <trkpt lat="45.23922" lon="2.92766">
        <ele>985.49</ele>
        <time>2021-08-15T11:56:33Z</time>
      </trkpt>
      <trkpt lat="45.2392" lon="2.92766">
        <ele>984.53</ele>
        <time>2021-08-15T11:56:52Z</time>
      </trkpt>
      <trkpt lat="45.23919" lon="2.92765">
        <ele>984.53</ele>
        <time>2021-08-15T11:57:14Z</time>
      </trkpt>
      <trkpt lat="45.2392" lon="2.92765">
        <ele>984.05</ele>
        <time>2021-08-15T11:57:40Z</time>
      </trkpt>
      <trkpt lat="45.23918" lon="2.92764">
        <ele>984.05</ele>
        <time>2021-08-15T11:58:04Z</time>
      </trkpt>
      <trkpt lat="45.2392" lon="2.92766">
        <ele>984.05</ele>
        <time>2021-08-15T11:58:25Z</time>
      </trkpt>
      <trkpt lat="45.2392" lon="2.92768">
        <ele>984.05</ele>
        <time>2021-08-15T11:58:45Z</time>
      </trkpt>
      <trkpt lat="45.23919" lon="2.92766">
        <ele>984.05</ele>
        <time>2021-08-15T11:59:09Z</time>
      </trkpt>
      <trkpt lat="45.2392" lon="2.92763">
        <ele>984.05</ele>
        <time>2021-08-15T11:59:28Z</time>
      </trkpt>
      <trkpt lat="45.23919" lon="2.92765">
        <ele>984.05</ele>
        <time>2021-08-15T11:59:48Z</time>
      </trkpt>
      <trkpt lat="45.2392" lon="2.92767">
        <ele>984.05</ele>
        <time>2021-08-15T12:00:08Z</time>
      </trkpt>
      <trkpt lat="45.2392" lon="2.92766">
        <ele>984.05</ele>
        <time>2021-08-15T12:00:28Z</time>
      </trkpt>
      <trkpt lat="45.23919" lon="2.92764">
        <ele>984.05</ele>
        <time>2021-08-15T12:00:50Z</time>
      </trkpt>
      <trkpt lat="45.23918" lon="2.92764">
        <ele>984.05</ele>
        <time>2021-08-15T12:01:08Z</time>
      </trkpt>
      <trkpt lat="45.2392" lon="2.92764">
        <ele>984.05</ele>
        <time>2021-08-15T12:01:32Z</time>
      </trkpt>
      <trkpt lat="45.2392" lon="2.92765">
        <ele>983.57</ele>
        <time>2021-08-15T12:01:53Z</time>
      </trkpt>
      <trkpt lat="45.2392" lon="2.92765">
        <ele>983.57</ele>
        <time>2021-08-15T12:02:12Z</time>
      </trkpt>
      <trkpt lat="45.23919" lon="2.92764">
        <ele>983.57</ele>
        <time>2021-08-15T12:02:28Z</time>
      </trkpt>
      <trkpt lat="45.23919" lon="2.92764">
        <ele>983.57</ele>
        <time>2021-08-15T12:02:45Z</time>
      </trkpt>
      <trkpt lat="45.23919" lon="2.92762">
        <ele>983.57</ele>
        <time>2021-08-15T12:03:06Z</time>
      </trkpt>
      <trkpt lat="45.23919" lon="2.92763">
        <ele>983.57</ele>
        <time>2021-08-15T12:03:23Z</time>
      </trkpt>
      <trkpt lat="45.23919" lon="2.92762">
        <ele>983.57</ele>
        <time>2021-08-15T12:03:49Z</time>
      </trkpt>
      <trkpt lat="45.23919" lon="2.92762">
        <ele>983.09</ele>
        <time>2021-08-15T12:04:09Z</time>
      </trkpt>
      <trkpt lat="45.23919" lon="2.92762">
        <ele>983.09</ele>
        <time>2021-08-15T12:04:33Z</time>
      </trkpt>
      <trkpt lat="45.2392" lon="2.92764">
        <ele>983.09</ele>
        <time>2021-08-15T12:04:51Z</time>
      </trkpt>
      <trkpt lat="45.2392" lon="2.92765">
        <ele>983.09</ele>
        <time>2021-08-15T12:05:12Z</time>
      </trkpt>
      <trkpt lat="45.23919" lon="2.92763">
        <ele>983.09</ele>
        <time>2021-08-15T12:05:33Z</time>
      </trkpt>
      <trkpt lat="45.23919" lon="2.92764">
        <ele>983.09</ele>
        <time>2021-08-15T12:05:49Z</time>
      </trkpt>
      <trkpt lat="45.2392" lon="2.92764">
        <ele>983.09</ele>
        <time>2021-08-15T12:06:16Z</time>
      </trkpt>
      <trkpt lat="45.2392" lon="2.92766">
        <ele>983.09</ele>
        <time>2021-08-15T12:06:36Z</time>
      </trkpt>
      <trkpt lat="45.23921" lon="2.92766">
        <ele>982.6</ele>
        <time>2021-08-15T12:06:51Z</time>
      </trkpt>
      <trkpt lat="45.23921" lon="2.92766">
        <ele>984.05</ele>
        <time>2021-08-15T12:07:11Z</time>
      </trkpt>
      <trkpt lat="45.2392" lon="2.92763">
        <ele>984.05</ele>
        <time>2021-08-15T12:07:32Z</time>
      </trkpt>
      <trkpt lat="45.2392" lon="2.92762">
        <ele>984.05</ele>
        <time>2021-08-15T12:07:49Z</time>
      </trkpt>
      <trkpt lat="45.2392" lon="2.92762">
        <ele>983.57</ele>
        <time>2021-08-15T12:08:12Z</time>
      </trkpt>
      <trkpt lat="45.23921" lon="2.92763">
        <ele>983.57</ele>
        <time>2021-08-15T12:08:29Z</time>
      </trkpt>
      <trkpt lat="45.23919" lon="2.92762">
        <ele>983.57</ele>
        <time>2021-08-15T12:08:54Z</time>
      </trkpt>
      <trkpt lat="45.23919" lon="2.92762">
        <ele>983.57</ele>
        <time>2021-08-15T12:09:23Z</time>
      </trkpt>
      <trkpt lat="45.23919" lon="2.92762">
        <ele>983.57</ele>
        <time>2021-08-15T12:09:44Z</time>
      </trkpt>
      <trkpt lat="45.2392" lon="2.92762">
        <ele>983.57</ele>
        <time>2021-08-15T12:10:05Z</time>
      </trkpt>
      <trkpt lat="45.2392" lon="2.92763">
        <ele>983.57</ele>
        <time>2021-08-15T12:10:29Z</time>
      </trkpt>
      <trkpt lat="45.23922" lon="2.92762">
        <ele>983.09</ele>
        <time>2021-08-15T12:10:58Z</time>
      </trkpt>
      <trkpt lat="45.2392" lon="2.92763">
        <ele>983.09</ele>
        <time>2021-08-15T12:11:22Z</time>
      </trkpt>
      <trkpt lat="45.23919" lon="2.92764">
        <ele>983.09</ele>
        <time>2021-08-15T12:11:49Z</time>
      </trkpt>
      <trkpt lat="45.2392" lon="2.92766">
        <ele>983.09</ele>
        <time>2021-08-15T12:12:14Z</time>
      </trkpt>
      <trkpt lat="45.23921" lon="2.92765">
        <ele>983.09</ele>
        <time>2021-08-15T12:12:35Z</time>
      </trkpt>
      <trkpt lat="45.23922" lon="2.92765">
        <ele>983.09</ele>
        <time>2021-08-15T12:12:55Z</time>
      </trkpt>
      <trkpt lat="45.23922" lon="2.92768">
        <ele>983.09</ele>
        <time>2021-08-15T12:13:23Z</time>
      </trkpt>
      <trkpt lat="45.23922" lon="2.92767">
        <ele>983.09</ele>
        <time>2021-08-15T12:13:48Z</time>
      </trkpt>
      <trkpt lat="45.23922" lon="2.92766">
        <ele>983.09</ele>
        <time>2021-08-15T12:14:14Z</time>
      </trkpt>
      <trkpt lat="45.23922" lon="2.92766">
        <ele>983.09</ele>
        <time>2021-08-15T12:14:37Z</time>
      </trkpt>
      <trkpt lat="45.23921" lon="2.92764">
        <ele>983.09</ele>
        <time>2021-08-15T12:15:09Z</time>
      </trkpt>
      <trkpt lat="45.23921" lon="2.92765">
        <ele>983.09</ele>
        <time>2021-08-15T12:15:36Z</time>
      </trkpt>
      <trkpt lat="45.23923" lon="2.92763">
        <ele>983.09</ele>
        <time>2021-08-15T12:16:01Z</time>
      </trkpt>
      <trkpt lat="45.23924" lon="2.92762">
        <ele>983.09</ele>
        <time>2021-08-15T12:16:28Z</time>
      </trkpt>
      <trkpt lat="45.23922" lon="2.92762">
        <ele>983.09</ele>
        <time>2021-08-15T12:16:51Z</time>
      </trkpt>
      <trkpt lat="45.23921" lon="2.92762">
        <ele>982.6</ele>
        <time>2021-08-15T12:17:13Z</time>
      </trkpt>
      <trkpt lat="45.23921" lon="2.92763">
        <ele>982.6</ele>
        <time>2021-08-15T12:17:35Z</time>
      </trkpt>
      <trkpt lat="45.23922" lon="2.92765">
        <ele>982.6</ele>
        <time>2021-08-15T12:18:01Z</time>
      </trkpt>
      <trkpt lat="45.23923" lon="2.92764">
        <ele>982.6</ele>
        <time>2021-08-15T12:18:25Z</time>
      </trkpt>
      <trkpt lat="45.23923" lon="2.92762">
        <ele>982.6</ele>
        <time>2021-08-15T12:18:44Z</time>
      </trkpt>
      <trkpt lat="45.23922" lon="2.92762">
        <ele>982.6</ele>
        <time>2021-08-15T12:19:04Z</time>
      </trkpt>
      <trkpt lat="45.23921" lon="2.92764">
        <ele>982.6</ele>
        <time>2021-08-15T12:19:23Z</time>
      </trkpt>
      <trkpt lat="45.23921" lon="2.92763">
        <ele>982.6</ele>
        <time>2021-08-15T12:19:44Z</time>
      </trkpt>
      <trkpt lat="45.23921" lon="2.92764">
        <ele>982.6</ele>
        <time>2021-08-15T12:20:05Z</time>
      </trkpt>
      <trkpt lat="45.23922" lon="2.92765">
        <ele>982.6</ele>
        <time>2021-08-15T12:20:27Z</time>
      </trkpt>
      <trkpt lat="45.23922" lon="2.92765">
        <ele>982.6</ele>
        <time>2021-08-15T12:20:44Z</time>
      </trkpt>
      <trkpt lat="45.23922" lon="2.92764">
        <ele>982.6</ele>
        <time>2021-08-15T12:21:01Z</time>
      </trkpt>
      <trkpt lat="45.23922" lon="2.92764">
        <ele>982.6</ele>
        <time>2021-08-15T12:21:18Z</time>
      </trkpt>
      <trkpt lat="45.23923" lon="2.92764">
        <ele>983.09</ele>
        <time>2021-08-15T12:21:31Z</time>
      </trkpt>
      <trkpt lat="45.23922" lon="2.92764">
        <ele>983.09</ele>
        <time>2021-08-15T12:21:41Z</time>
      </trkpt>
      <trkpt lat="45.23921" lon="2.92766">
        <ele>983.09</ele>
        <time>2021-08-15T12:21:46Z</time>
      </trkpt>
      <trkpt lat="45.23916" lon="2.92772">
        <ele>983.09</ele>
        <time>2021-08-15T12:21:51Z</time>
      </trkpt>
      <trkpt lat="45.23914" lon="2.92777">
        <ele>983.09</ele>
        <time>2021-08-15T12:21:57Z</time>
      </trkpt>
      <trkpt lat="45.23913" lon="2.92782">
        <ele>983.09</ele>
        <time>2021-08-15T12:21:59Z</time>
      </trkpt>
      <trkpt lat="45.23911" lon="2.92785">
        <ele>983.09</ele>
        <time>2021-08-15T12:22:00Z</time>
      </trkpt>
      <trkpt lat="45.23909" lon="2.92786">
        <ele>983.09</ele>
        <time>2021-08-15T12:22:01Z</time>
      </trkpt>
      <trkpt lat="45.23906" lon="2.92786">
        <ele>983.09</ele>
        <time>2021-08-15T12:22:02Z</time>
      </trkpt>
      <trkpt lat="45.23904" lon="2.92786">
        <ele>983.09</ele>
        <time>2021-08-15T12:22:03Z</time>
      </trkpt>
      <trkpt lat="45.239" lon="2.92787">
        <ele>983.09</ele>
        <time>2021-08-15T12:22:08Z</time>
      </trkpt>
      <trkpt lat="45.23899" lon="2.92789">
        <ele>983.09</ele>
        <time>2021-08-15T12:22:10Z</time>
      </trkpt>
      <trkpt lat="45.23898" lon="2.9279">
        <ele>983.09</ele>
        <time>2021-08-15T12:22:11Z</time>
      </trkpt>
      <trkpt lat="45.23897" lon="2.92792">
        <ele>983.09</ele>
        <time>2021-08-15T12:22:12Z</time>
      </trkpt>
      <trkpt lat="45.23896" lon="2.92794">
        <ele>983.09</ele>
        <time>2021-08-15T12:22:13Z</time>
      </trkpt>
      <trkpt lat="45.23894" lon="2.92796">
        <ele>983.09</ele>
        <time>2021-08-15T12:22:14Z</time>
      </trkpt>
      <trkpt lat="45.23891" lon="2.92799">
        <ele>983.09</ele>
        <time>2021-08-15T12:22:15Z</time>
      </trkpt>
      <trkpt lat="45.23888" lon="2.92801">
        <ele>983.09</ele>
        <time>2021-08-15T12:22:16Z</time>
      </trkpt>
      <trkpt lat="45.23885" lon="2.92804">
        <ele>983.09</ele>
        <time>2021-08-15T12:22:17Z</time>
      </trkpt>
      <trkpt lat="45.23881" lon="2.92806">
        <ele>983.09</ele>
        <time>2021-08-15T12:22:18Z</time>
      </trkpt>
      <trkpt lat="45.2386" lon="2.92819">
        <ele>983.09</ele>
        <time>2021-08-15T12:22:23Z</time>
      </trkpt>
      <trkpt lat="45.23852" lon="2.92826">
        <ele>983.09</ele>
        <time>2021-08-15T12:22:25Z</time>
      </trkpt>
      <trkpt lat="45.2382" lon="2.92849">
        <ele>981.64</ele>
        <time>2021-08-15T12:22:32Z</time>
      </trkpt>
      <trkpt lat="45.23778" lon="2.9288">
        <ele>980.68</ele>
        <time>2021-08-15T12:22:41Z</time>
      </trkpt>
      <trkpt lat="45.23773" lon="2.92883">
        <ele>980.68</ele>
        <time>2021-08-15T12:22:42Z</time>
      </trkpt>
      <trkpt lat="45.23751" lon="2.92894">
        <ele>979.72</ele>
        <time>2021-08-15T12:22:46Z</time>
      </trkpt>
      <trkpt lat="45.23733" lon="2.92897">
        <ele>979.72</ele>
        <time>2021-08-15T12:22:49Z</time>
      </trkpt>
      <trkpt lat="45.23727" lon="2.929">
        <ele>979.72</ele>
        <time>2021-08-15T12:22:50Z</time>
      </trkpt>
      <trkpt lat="45.23721" lon="2.92904">
        <ele>979.72</ele>
        <time>2021-08-15T12:22:51Z</time>
      </trkpt>
      <trkpt lat="45.23717" lon="2.9291">
        <ele>979.24</ele>
        <time>2021-08-15T12:22:52Z</time>
      </trkpt>
      <trkpt lat="45.23713" lon="2.92916">
        <ele>979.24</ele>
        <time>2021-08-15T12:22:53Z</time>
      </trkpt>
      <trkpt lat="45.2371" lon="2.92924">
        <ele>979.24</ele>
        <time>2021-08-15T12:22:54Z</time>
      </trkpt>
      <trkpt lat="45.23707" lon="2.92931">
        <ele>979.24</ele>
        <time>2021-08-15T12:22:55Z</time>
      </trkpt>
      <trkpt lat="45.23703" lon="2.92938">
        <ele>979.24</ele>
        <time>2021-08-15T12:22:56Z</time>
      </trkpt>
      <trkpt lat="45.23699" lon="2.92944">
        <ele>979.24</ele>
        <time>2021-08-15T12:22:57Z</time>
      </trkpt>
      <trkpt lat="45.23693" lon="2.92948">
        <ele>978.76</ele>
        <time>2021-08-15T12:22:58Z</time>
      </trkpt>
      <trkpt lat="45.23687" lon="2.92949">
        <ele>978.76</ele>
        <time>2021-08-15T12:22:59Z</time>
      </trkpt>
      <trkpt lat="45.23681" lon="2.9295">
        <ele>978.76</ele>
        <time>2021-08-15T12:23:00Z</time>
      </trkpt>
      <trkpt lat="45.23676" lon="2.92952">
        <ele>978.76</ele>
        <time>2021-08-15T12:23:01Z</time>
      </trkpt>
      <trkpt lat="45.2367" lon="2.92955">
        <ele>978.76</ele>
        <time>2021-08-15T12:23:02Z</time>
      </trkpt>
      <trkpt lat="45.23665" lon="2.92959">
        <ele>978.76</ele>
        <time>2021-08-15T12:23:03Z</time>
      </trkpt>
      <trkpt lat="45.23661" lon="2.92964">
        <ele>978.76</ele>
        <time>2021-08-15T12:23:04Z</time>
      </trkpt>
      <trkpt lat="45.23652" lon="2.92972">
        <ele>978.76</ele>
        <time>2021-08-15T12:23:06Z</time>
      </trkpt>
      <trkpt lat="45.23647" lon="2.92975">
        <ele>978.76</ele>
        <time>2021-08-15T12:23:07Z</time>
      </trkpt>
      <trkpt lat="45.23629" lon="2.92981">
        <ele>978.76</ele>
        <time>2021-08-15T12:23:11Z</time>
      </trkpt>
      <trkpt lat="45.23615" lon="2.92984">
        <ele>978.76</ele>
        <time>2021-08-15T12:23:14Z</time>
      </trkpt>
      <trkpt lat="45.23611" lon="2.92985">
        <ele>978.76</ele>
        <time>2021-08-15T12:23:15Z</time>
      </trkpt>
      <trkpt lat="45.23607" lon="2.92986">
        <ele>978.76</ele>
        <time>2021-08-15T12:23:16Z</time>
      </trkpt>
      <trkpt lat="45.23573" lon="2.93002">
        <ele>978.76</ele>
        <time>2021-08-15T12:23:23Z</time>
      </trkpt>
      <trkpt lat="45.23559" lon="2.93016">
        <ele>978.76</ele>
        <time>2021-08-15T12:23:26Z</time>
      </trkpt>
      <trkpt lat="45.23555" lon="2.9302">
        <ele>978.76</ele>
        <time>2021-08-15T12:23:27Z</time>
      </trkpt>
      <trkpt lat="45.2355" lon="2.93025">
        <ele>978.76</ele>
        <time>2021-08-15T12:23:28Z</time>
      </trkpt>
      <trkpt lat="45.23545" lon="2.93028">
        <ele>978.76</ele>
        <time>2021-08-15T12:23:29Z</time>
      </trkpt>
      <trkpt lat="45.23539" lon="2.93032">
        <ele>978.76</ele>
        <time>2021-08-15T12:23:30Z</time>
      </trkpt>
      <trkpt lat="45.23533" lon="2.93035">
        <ele>978.76</ele>
        <time>2021-08-15T12:23:31Z</time>
      </trkpt>
      <trkpt lat="45.23528" lon="2.93037">
        <ele>978.76</ele>
        <time>2021-08-15T12:23:32Z</time>
      </trkpt>
      <trkpt lat="45.23471" lon="2.93059">
        <ele>978.28</ele>
        <time>2021-08-15T12:23:41Z</time>
      </trkpt>
      <trkpt lat="45.23435" lon="2.93084">
        <ele>977.32</ele>
        <time>2021-08-15T12:23:47Z</time>
      </trkpt>
      <trkpt lat="45.23394" lon="2.9313">
        <ele>977.32</ele>
        <time>2021-08-15T12:23:55Z</time>
      </trkpt>
      <trkpt lat="45.23379" lon="2.93146">
        <ele>976.84</ele>
        <time>2021-08-15T12:23:58Z</time>
      </trkpt>
      <trkpt lat="45.23373" lon="2.9315">
        <ele>976.84</ele>
        <time>2021-08-15T12:23:59Z</time>
      </trkpt>
      <trkpt lat="45.23367" lon="2.93153">
        <ele>976.36</ele>
        <time>2021-08-15T12:24:00Z</time>
      </trkpt>
      <trkpt lat="45.23361" lon="2.93155">
        <ele>976.36</ele>
        <time>2021-08-15T12:24:01Z</time>
      </trkpt>
      <trkpt lat="45.23354" lon="2.93155">
        <ele>976.36</ele>
        <time>2021-08-15T12:24:02Z</time>
      </trkpt>
      <trkpt lat="45.23348" lon="2.93156">
        <ele>976.36</ele>
        <time>2021-08-15T12:24:03Z</time>
      </trkpt>
      <trkpt lat="45.23298" lon="2.93156">
        <ele>975.88</ele>
        <time>2021-08-15T12:24:11Z</time>
      </trkpt>
      <trkpt lat="45.23253" lon="2.93151">
        <ele>974.91</ele>
        <time>2021-08-15T12:24:18Z</time>
      </trkpt>
      <trkpt lat="45.23247" lon="2.93151">
        <ele>974.91</ele>
        <time>2021-08-15T12:24:19Z</time>
      </trkpt>
      <trkpt lat="45.2324" lon="2.93154">
        <ele>974.91</ele>
        <time>2021-08-15T12:24:20Z</time>
      </trkpt>
      <trkpt lat="45.23234" lon="2.93157">
        <ele>974.91</ele>
        <time>2021-08-15T12:24:21Z</time>
      </trkpt>
      <trkpt lat="45.23228" lon="2.93161">
        <ele>974.91</ele>
        <time>2021-08-15T12:24:22Z</time>
      </trkpt>
      <trkpt lat="45.23194" lon="2.93181">
        <ele>974.91</ele>
        <time>2021-08-15T12:24:28Z</time>
      </trkpt>
      <trkpt lat="45.23162" lon="2.93183">
        <ele>974.91</ele>
        <time>2021-08-15T12:24:34Z</time>
      </trkpt>
      <trkpt lat="45.23151" lon="2.93179">
        <ele>974.91</ele>
        <time>2021-08-15T12:24:36Z</time>
      </trkpt>
      <trkpt lat="45.23106" lon="2.93156">
        <ele>975.88</ele>
        <time>2021-08-15T12:24:45Z</time>
      </trkpt>
      <trkpt lat="45.23101" lon="2.93156">
        <ele>976.36</ele>
        <time>2021-08-15T12:24:46Z</time>
      </trkpt>
      <trkpt lat="45.23096" lon="2.93156">
        <ele>976.36</ele>
        <time>2021-08-15T12:24:47Z</time>
      </trkpt>
      <trkpt lat="45.23091" lon="2.93157">
        <ele>976.36</ele>
        <time>2021-08-15T12:24:48Z</time>
      </trkpt>
      <trkpt lat="45.23086" lon="2.93158">
        <ele>977.32</ele>
        <time>2021-08-15T12:24:49Z</time>
      </trkpt>
      <trkpt lat="45.23068" lon="2.93161">
        <ele>978.28</ele>
        <time>2021-08-15T12:24:55Z</time>
      </trkpt>
      <trkpt lat="45.23044" lon="2.93168">
        <ele>981.16</ele>
        <time>2021-08-15T12:25:05Z</time>
      </trkpt>
      <trkpt lat="45.23024" lon="2.93173">
        <ele>981.64</ele>
        <time>2021-08-15T12:25:12Z</time>
      </trkpt>
      <trkpt lat="45.2299" lon="2.93184">
        <ele>981.64</ele>
        <time>2021-08-15T12:25:21Z</time>
      </trkpt>
      <trkpt lat="45.22964" lon="2.93195">
        <ele>981.64</ele>
        <time>2021-08-15T12:25:28Z</time>
      </trkpt>
      <trkpt lat="45.22951" lon="2.93204">
        <ele>983.09</ele>
        <time>2021-08-15T12:25:34Z</time>
      </trkpt>
      <trkpt lat="45.22949" lon="2.93206">
        <ele>983.57</ele>
        <time>2021-08-15T12:25:36Z</time>
      </trkpt>
      <trkpt lat="45.22947" lon="2.93205">
        <ele>983.57</ele>
        <time>2021-08-15T12:25:37Z</time>
      </trkpt>
      <trkpt lat="45.22946" lon="2.93204">
        <ele>983.57</ele>
        <time>2021-08-15T12:25:38Z</time>
      </trkpt>
      <trkpt lat="45.22945" lon="2.93189">
        <ele>984.53</ele>
        <time>2021-08-15T12:25:43Z</time>
      </trkpt>
      <trkpt lat="45.22947" lon="2.93183">
        <ele>985.01</ele>
        <time>2021-08-15T12:25:45Z</time>
      </trkpt>
      <trkpt lat="45.22947" lon="2.93179">
        <ele>985.01</ele>
        <time>2021-08-15T12:25:46Z</time>
      </trkpt>
      <trkpt lat="45.22947" lon="2.93168">
        <ele>985.49</ele>
        <time>2021-08-15T12:25:51Z</time>
      </trkpt>
      <trkpt lat="45.22948" lon="2.93166">
        <ele>985.97</ele>
        <time>2021-08-15T12:25:52Z</time>
      </trkpt>
      <trkpt lat="45.22951" lon="2.93164">
        <ele>985.49</ele>
        <time>2021-08-15T12:25:53Z</time>
      </trkpt>
      <trkpt lat="45.22953" lon="2.93163">
        <ele>985.49</ele>
        <time>2021-08-15T12:25:54Z</time>
      </trkpt>
      <trkpt lat="45.22956" lon="2.93162">
        <ele>985.49</ele>
        <time>2021-08-15T12:25:55Z</time>
      </trkpt>
      <trkpt lat="45.22976" lon="2.93156">
        <ele>985.49</ele>
        <time>2021-08-15T12:26:01Z</time>
      </trkpt>
      <trkpt lat="45.22986" lon="2.9315">
        <ele>985.49</ele>
        <time>2021-08-15T12:26:05Z</time>
      </trkpt>
      <trkpt lat="45.22986" lon="2.93147">
        <ele>985.49</ele>
        <time>2021-08-15T12:26:06Z</time>
      </trkpt>
      <trkpt lat="45.22986" lon="2.93145">
        <ele>985.97</ele>
        <time>2021-08-15T12:26:07Z</time>
      </trkpt>
      <trkpt lat="45.22985" lon="2.93142">
        <ele>985.97</ele>
        <time>2021-08-15T12:26:12Z</time>
      </trkpt>
      <trkpt lat="45.22986" lon="2.93142">
        <ele>985.97</ele>
        <time>2021-08-15T12:26:25Z</time>
      </trkpt>
      <trkpt lat="45.22986" lon="2.93144">
        <ele>985.97</ele>
        <time>2021-08-15T12:26:35Z</time>
      </trkpt>
      <trkpt lat="45.22987" lon="2.93144">
        <ele>985.97</ele>
        <time>2021-08-15T12:26:50Z</time>
      </trkpt>
      <trkpt lat="45.22986" lon="2.93144">
        <ele>985.97</ele>
        <time>2021-08-15T12:27:04Z</time>
      </trkpt>
      <trkpt lat="45.22985" lon="2.93146">
        <ele>985.97</ele>
        <time>2021-08-15T12:27:11Z</time>
      </trkpt>
      <trkpt lat="45.22986" lon="2.93148">
        <ele>985.97</ele>
        <time>2021-08-15T12:27:14Z</time>
      </trkpt>
      <trkpt lat="45.22987" lon="2.9315">
        <ele>985.97</ele>
        <time>2021-08-15T12:27:15Z</time>
      </trkpt>
      <trkpt lat="45.22986" lon="2.93152">
        <ele>985.97</ele>
        <time>2021-08-15T12:27:16Z</time>
      </trkpt>
      <trkpt lat="45.22985" lon="2.93154">
        <ele>986.45</ele>
        <time>2021-08-15T12:27:17Z</time>
      </trkpt>
      <trkpt lat="45.22983" lon="2.93155">
        <ele>986.45</ele>
        <time>2021-08-15T12:27:18Z</time>
      </trkpt>
      <trkpt lat="45.2298" lon="2.93156">
        <ele>986.45</ele>
        <time>2021-08-15T12:27:19Z</time>
      </trkpt>
      <trkpt lat="45.22977" lon="2.93157">
        <ele>985.97</ele>
        <time>2021-08-15T12:27:20Z</time>
      </trkpt>
      <trkpt lat="45.22973" lon="2.93158">
        <ele>986.45</ele>
        <time>2021-08-15T12:27:21Z</time>
      </trkpt>
      <trkpt lat="45.22961" lon="2.93163">
        <ele>986.45</ele>
        <time>2021-08-15T12:27:24Z</time>
      </trkpt>
      <trkpt lat="45.22945" lon="2.93167">
        <ele>986.45</ele>
        <time>2021-08-15T12:27:28Z</time>
      </trkpt>
      <trkpt lat="45.22941" lon="2.93169">
        <ele>986.45</ele>
        <time>2021-08-15T12:27:29Z</time>
      </trkpt>
      <trkpt lat="45.22937" lon="2.93171">
        <ele>986.45</ele>
        <time>2021-08-15T12:27:30Z</time>
      </trkpt>
      <trkpt lat="45.22903" lon="2.93192">
        <ele>986.45</ele>
        <time>2021-08-15T12:27:39Z</time>
      </trkpt>
      <trkpt lat="45.22886" lon="2.93206">
        <ele>986.45</ele>
        <time>2021-08-15T12:27:44Z</time>
      </trkpt>
      <trkpt lat="45.22882" lon="2.93207">
        <ele>986.45</ele>
        <time>2021-08-15T12:27:45Z</time>
      </trkpt>
      <trkpt lat="45.22878" lon="2.93208">
        <ele>986.45</ele>
        <time>2021-08-15T12:27:46Z</time>
      </trkpt>
      <trkpt lat="45.22865" lon="2.9321">
        <ele>985.01</ele>
        <time>2021-08-15T12:27:49Z</time>
      </trkpt>
      <trkpt lat="45.22861" lon="2.93211">
        <ele>984.05</ele>
        <time>2021-08-15T12:27:50Z</time>
      </trkpt>
      <trkpt lat="45.22856" lon="2.93213">
        <ele>984.05</ele>
        <time>2021-08-15T12:27:51Z</time>
      </trkpt>
      <trkpt lat="45.22852" lon="2.93216">
        <ele>984.05</ele>
        <time>2021-08-15T12:27:52Z</time>
      </trkpt>
      <trkpt lat="45.22847" lon="2.93219">
        <ele>983.57</ele>
        <time>2021-08-15T12:27:53Z</time>
      </trkpt>
      <trkpt lat="45.22842" lon="2.93223">
        <ele>983.57</ele>
        <time>2021-08-15T12:27:54Z</time>
      </trkpt>
      <trkpt lat="45.22838" lon="2.93227">
        <ele>982.6</ele>
        <time>2021-08-15T12:27:55Z</time>
      </trkpt>
      <trkpt lat="45.22834" lon="2.93233">
        <ele>982.12</ele>
        <time>2021-08-15T12:27:56Z</time>
      </trkpt>
      <trkpt lat="45.22831" lon="2.93238">
        <ele>981.64</ele>
        <time>2021-08-15T12:27:57Z</time>
      </trkpt>
      <trkpt lat="45.22828" lon="2.93245">
        <ele>981.64</ele>
        <time>2021-08-15T12:27:58Z</time>
      </trkpt>
      <trkpt lat="45.22825" lon="2.93252">
        <ele>981.16</ele>
        <time>2021-08-15T12:27:59Z</time>
      </trkpt>
      <trkpt lat="45.22822" lon="2.93258">
        <ele>980.2</ele>
        <time>2021-08-15T12:28:00Z</time>
      </trkpt>
      <trkpt lat="45.22814" lon="2.93278">
        <ele>979.24</ele>
        <time>2021-08-15T12:28:03Z</time>
      </trkpt>
      <trkpt lat="45.22811" lon="2.93283">
        <ele>978.76</ele>
        <time>2021-08-15T12:28:04Z</time>
      </trkpt>
      <trkpt lat="45.22807" lon="2.93288">
        <ele>978.76</ele>
        <time>2021-08-15T12:28:05Z</time>
      </trkpt>
      <trkpt lat="45.22781" lon="2.93315">
        <ele>975.88</ele>
        <time>2021-08-15T12:28:11Z</time>
      </trkpt>
      <trkpt lat="45.22754" lon="2.9334">
        <ele>973.47</ele>
        <time>2021-08-15T12:28:17Z</time>
      </trkpt>
      <trkpt lat="45.22748" lon="2.93342">
        <ele>972.51</ele>
        <time>2021-08-15T12:28:18Z</time>
      </trkpt>
      <trkpt lat="45.22742" lon="2.93342">
        <ele>972.51</ele>
        <time>2021-08-15T12:28:19Z</time>
      </trkpt>
      <trkpt lat="45.22736" lon="2.93341">
        <ele>972.51</ele>
        <time>2021-08-15T12:28:20Z</time>
      </trkpt>
      <trkpt lat="45.2273" lon="2.9334">
        <ele>972.51</ele>
        <time>2021-08-15T12:28:21Z</time>
      </trkpt>
      <trkpt lat="45.22715" lon="2.93336">
        <ele>972.51</ele>
        <time>2021-08-15T12:28:24Z</time>
      </trkpt>
      <trkpt lat="45.22711" lon="2.93337">
        <ele>972.51</ele>
        <time>2021-08-15T12:28:25Z</time>
      </trkpt>
      <trkpt lat="45.22686" lon="2.93339">
        <ele>973.47</ele>
        <time>2021-08-15T12:28:32Z</time>
      </trkpt>
      <trkpt lat="45.22683" lon="2.93339">
        <ele>973.47</ele>
        <time>2021-08-15T12:28:33Z</time>
      </trkpt>
      <trkpt lat="45.22656" lon="2.93351">
        <ele>974.91</ele>
        <time>2021-08-15T12:28:42Z</time>
      </trkpt>
      <trkpt lat="45.22649" lon="2.93357">
        <ele>974.91</ele>
        <time>2021-08-15T12:28:48Z</time>
      </trkpt>
      <trkpt lat="45.22649" lon="2.93355">
        <ele>974.91</ele>
        <time>2021-08-15T12:29:04Z</time>
      </trkpt>
      <trkpt lat="45.22648" lon="2.93354">
        <ele>974.91</ele>
        <time>2021-08-15T12:29:17Z</time>
      </trkpt>
      <trkpt lat="45.22648" lon="2.93352">
        <ele>974.91</ele>
        <time>2021-08-15T12:29:18Z</time>
      </trkpt>
      <trkpt lat="45.22649" lon="2.93351">
        <ele>974.91</ele>
        <time>2021-08-15T12:29:19Z</time>
      </trkpt>
      <trkpt lat="45.22653" lon="2.9335">
        <ele>974.91</ele>
        <time>2021-08-15T12:29:21Z</time>
      </trkpt>
      <trkpt lat="45.22656" lon="2.93349">
        <ele>974.91</ele>
        <time>2021-08-15T12:29:22Z</time>
      </trkpt>
      <trkpt lat="45.22659" lon="2.93349">
        <ele>974.91</ele>
        <time>2021-08-15T12:29:23Z</time>
      </trkpt>
      <trkpt lat="45.22663" lon="2.93348">
        <ele>974.91</ele>
        <time>2021-08-15T12:29:24Z</time>
      </trkpt>
      <trkpt lat="45.22667" lon="2.93347">
        <ele>974.91</ele>
        <time>2021-08-15T12:29:25Z</time>
      </trkpt>
      <trkpt lat="45.22671" lon="2.93346">
        <ele>974.91</ele>
        <time>2021-08-15T12:29:26Z</time>
      </trkpt>
      <trkpt lat="45.22675" lon="2.93345">
        <ele>973.47</ele>
        <time>2021-08-15T12:29:27Z</time>
      </trkpt>
      <trkpt lat="45.22681" lon="2.93342">
        <ele>973.47</ele>
        <time>2021-08-15T12:29:28Z</time>
      </trkpt>
      <trkpt lat="45.22686" lon="2.93341">
        <ele>973.47</ele>
        <time>2021-08-15T12:29:29Z</time>
      </trkpt>
      <trkpt lat="45.22702" lon="2.93339">
        <ele>972.99</ele>
        <time>2021-08-15T12:29:32Z</time>
      </trkpt>
      <trkpt lat="45.22741" lon="2.93343">
        <ele>972.03</ele>
        <time>2021-08-15T12:29:38Z</time>
      </trkpt>
      <trkpt lat="45.22747" lon="2.93342">
        <ele>972.03</ele>
        <time>2021-08-15T12:29:39Z</time>
      </trkpt>
      <trkpt lat="45.22753" lon="2.9334">
        <ele>972.03</ele>
        <time>2021-08-15T12:29:40Z</time>
      </trkpt>
      <trkpt lat="45.22757" lon="2.93337">
        <ele>972.03</ele>
        <time>2021-08-15T12:29:41Z</time>
      </trkpt>
      <trkpt lat="45.22762" lon="2.93334">
        <ele>972.99</ele>
        <time>2021-08-15T12:29:42Z</time>
      </trkpt>
      <trkpt lat="45.22766" lon="2.9333">
        <ele>973.47</ele>
        <time>2021-08-15T12:29:43Z</time>
      </trkpt>
      <trkpt lat="45.22769" lon="2.93326">
        <ele>973.95</ele>
        <time>2021-08-15T12:29:44Z</time>
      </trkpt>
      <trkpt lat="45.22785" lon="2.9331">
        <ele>975.88</ele>
        <time>2021-08-15T12:29:51Z</time>
      </trkpt>
      <trkpt lat="45.22804" lon="2.93289">
        <ele>978.28</ele>
        <time>2021-08-15T12:30:02Z</time>
      </trkpt>
      <trkpt lat="45.22817" lon="2.93265">
        <ele>979.72</ele>
        <time>2021-08-15T12:30:12Z</time>
      </trkpt>
      <trkpt lat="45.22827" lon="2.93242">
        <ele>981.16</ele>
        <time>2021-08-15T12:30:22Z</time>
      </trkpt>
      <trkpt lat="45.22839" lon="2.93228">
        <ele>982.6</ele>
        <time>2021-08-15T12:30:30Z</time>
      </trkpt>
      <trkpt lat="45.22854" lon="2.93217">
        <ele>983.57</ele>
        <time>2021-08-15T12:30:38Z</time>
      </trkpt>
      <trkpt lat="45.22879" lon="2.93209">
        <ele>985.01</ele>
        <time>2021-08-15T12:30:48Z</time>
      </trkpt>
      <trkpt lat="45.22903" lon="2.93215">
        <ele>985.49</ele>
        <time>2021-08-15T12:30:56Z</time>
      </trkpt>
      <trkpt lat="45.22937" lon="2.93211">
        <ele>985.49</ele>
        <time>2021-08-15T12:31:05Z</time>
      </trkpt>
      <trkpt lat="45.22942" lon="2.93211">
        <ele>984.05</ele>
        <time>2021-08-15T12:31:06Z</time>
      </trkpt>
      <trkpt lat="45.22946" lon="2.93211">
        <ele>984.05</ele>
        <time>2021-08-15T12:31:07Z</time>
      </trkpt>
      <trkpt lat="45.22952" lon="2.93213">
        <ele>983.57</ele>
        <time>2021-08-15T12:31:08Z</time>
      </trkpt>
      <trkpt lat="45.22956" lon="2.93216">
        <ele>983.57</ele>
        <time>2021-08-15T12:31:09Z</time>
      </trkpt>
      <trkpt lat="45.22961" lon="2.9322">
        <ele>983.09</ele>
        <time>2021-08-15T12:31:10Z</time>
      </trkpt>
      <trkpt lat="45.22964" lon="2.93225">
        <ele>983.09</ele>
        <time>2021-08-15T12:31:11Z</time>
      </trkpt>
      <trkpt lat="45.22968" lon="2.93232">
        <ele>982.6</ele>
        <time>2021-08-15T12:31:12Z</time>
      </trkpt>
      <trkpt lat="45.2297" lon="2.93239">
        <ele>981.64</ele>
        <time>2021-08-15T12:31:13Z</time>
      </trkpt>
      <trkpt lat="45.22972" lon="2.93248">
        <ele>981.16</ele>
        <time>2021-08-15T12:31:14Z</time>
      </trkpt>
      <trkpt lat="45.22983" lon="2.93305">
        <ele>979.24</ele>
        <time>2021-08-15T12:31:20Z</time>
      </trkpt>
      <trkpt lat="45.22989" lon="2.93337">
        <ele>980.68</ele>
        <time>2021-08-15T12:31:24Z</time>
      </trkpt>
      <trkpt lat="45.22994" lon="2.93367">
        <ele>982.12</ele>
        <time>2021-08-15T12:31:30Z</time>
      </trkpt>
      <trkpt lat="45.23002" lon="2.93401">
        <ele>983.09</ele>
        <time>2021-08-15T12:31:40Z</time>
      </trkpt>
      <trkpt lat="45.23007" lon="2.93425">
        <ele>983.57</ele>
        <time>2021-08-15T12:31:48Z</time>
      </trkpt>
      <trkpt lat="45.23004" lon="2.93427">
        <ele>983.57</ele>
        <time>2021-08-15T12:31:51Z</time>
      </trkpt>
      <trkpt lat="45.23003" lon="2.93429">
        <ele>983.57</ele>
        <time>2021-08-15T12:31:52Z</time>
      </trkpt>
      <trkpt lat="45.23001" lon="2.9343">
        <ele>983.57</ele>
        <time>2021-08-15T12:31:53Z</time>
      </trkpt>
      <trkpt lat="45.22993" lon="2.93429">
        <ele>983.57</ele>
        <time>2021-08-15T12:31:59Z</time>
      </trkpt>
      <trkpt lat="45.22989" lon="2.93424">
        <ele>983.57</ele>
        <time>2021-08-15T12:32:07Z</time>
      </trkpt>
      <trkpt lat="45.22986" lon="2.93422">
        <ele>983.57</ele>
        <time>2021-08-15T12:32:15Z</time>
      </trkpt>
      <trkpt lat="45.22983" lon="2.93424">
        <ele>983.57</ele>
        <time>2021-08-15T12:32:29Z</time>
      </trkpt>
      <trkpt lat="45.22983" lon="2.93424">
        <ele>983.57</ele>
        <time>2021-08-15T12:32:47Z</time>
      </trkpt>
      <trkpt lat="45.22982" lon="2.93428">
        <ele>983.57</ele>
        <time>2021-08-15T12:33:06Z</time>
      </trkpt>
      <trkpt lat="45.22981" lon="2.93434">
        <ele>983.57</ele>
        <time>2021-08-15T12:33:17Z</time>
      </trkpt>
      <trkpt lat="45.22978" lon="2.9344">
        <ele>983.57</ele>
        <time>2021-08-15T12:33:20Z</time>
      </trkpt>
      <trkpt lat="45.22977" lon="2.93441">
        <ele>983.57</ele>
        <time>2021-08-15T12:33:21Z</time>
      </trkpt>
      <trkpt lat="45.22956" lon="2.93444">
        <ele>982.12</ele>
        <time>2021-08-15T12:33:27Z</time>
      </trkpt>
      <trkpt lat="45.22924" lon="2.93448">
        <ele>981.16</ele>
        <time>2021-08-15T12:33:34Z</time>
      </trkpt>
      <trkpt lat="45.22919" lon="2.93448">
        <ele>981.16</ele>
        <time>2021-08-15T12:33:35Z</time>
      </trkpt>
      <trkpt lat="45.22897" lon="2.93449">
        <ele>980.68</ele>
        <time>2021-08-15T12:33:42Z</time>
      </trkpt>
      <trkpt lat="45.22894" lon="2.93448">
        <ele>980.68</ele>
        <time>2021-08-15T12:33:44Z</time>
      </trkpt>
      <trkpt lat="45.22893" lon="2.93446">
        <ele>980.68</ele>
        <time>2021-08-15T12:33:48Z</time>
      </trkpt>
      <trkpt lat="45.22893" lon="2.93449">
        <ele>980.68</ele>
        <time>2021-08-15T12:33:59Z</time>
      </trkpt>
      <trkpt lat="45.22893" lon="2.93453">
        <ele>980.68</ele>
        <time>2021-08-15T12:34:12Z</time>
      </trkpt>
      <trkpt lat="45.2289" lon="2.93452">
        <ele>980.68</ele>
        <time>2021-08-15T12:34:28Z</time>
      </trkpt>
      <trkpt lat="45.22891" lon="2.93452">
        <ele>980.68</ele>
        <time>2021-08-15T12:34:40Z</time>
      </trkpt>
      <trkpt lat="45.2289" lon="2.93454">
        <ele>980.68</ele>
        <time>2021-08-15T12:34:58Z</time>
      </trkpt>
      <trkpt lat="45.22889" lon="2.93455">
        <ele>980.68</ele>
        <time>2021-08-15T12:35:12Z</time>
      </trkpt>
      <trkpt lat="45.22888" lon="2.93455">
        <ele>980.68</ele>
        <time>2021-08-15T12:35:26Z</time>
      </trkpt>
      <trkpt lat="45.22891" lon="2.93455">
        <ele>980.68</ele>
        <time>2021-08-15T12:35:40Z</time>
      </trkpt>
      <trkpt lat="45.22893" lon="2.93454">
        <ele>980.68</ele>
        <time>2021-08-15T12:35:56Z</time>
      </trkpt>
      <trkpt lat="45.22892" lon="2.93453">
        <ele>980.68</ele>
        <time>2021-08-15T12:36:08Z</time>
      </trkpt>
      <trkpt lat="45.2289" lon="2.93451">
        <ele>980.68</ele>
        <time>2021-08-15T12:36:15Z</time>
      </trkpt>
      <trkpt lat="45.22888" lon="2.93451">
        <ele>980.68</ele>
        <time>2021-08-15T12:36:24Z</time>
      </trkpt>
      <trkpt lat="45.22888" lon="2.93454">
        <ele>980.68</ele>
        <time>2021-08-15T12:36:35Z</time>
      </trkpt>
      <trkpt lat="45.22885" lon="2.93454">
        <ele>981.16</ele>
        <time>2021-08-15T12:36:46Z</time>
      </trkpt>
      <trkpt lat="45.22886" lon="2.93451">
        <ele>981.16</ele>
        <time>2021-08-15T12:37:02Z</time>
      </trkpt>
      <trkpt lat="45.22888" lon="2.93451">
        <ele>981.16</ele>
        <time>2021-08-15T12:37:10Z</time>
      </trkpt>
      <trkpt lat="45.22893" lon="2.93453">
        <ele>981.16</ele>
        <time>2021-08-15T12:37:18Z</time>
      </trkpt>
      <trkpt lat="45.22897" lon="2.93455">
        <ele>981.16</ele>
        <time>2021-08-15T12:37:36Z</time>
      </trkpt>
      <trkpt lat="45.22896" lon="2.93458">
        <ele>981.16</ele>
        <time>2021-08-15T12:37:49Z</time>
      </trkpt>
      <trkpt lat="45.22894" lon="2.9346">
        <ele>981.16</ele>
        <time>2021-08-15T12:38:03Z</time>
      </trkpt>
      <trkpt lat="45.22891" lon="2.93463">
        <ele>981.16</ele>
        <time>2021-08-15T12:38:21Z</time>
      </trkpt>
      <trkpt lat="45.2289" lon="2.93461">
        <ele>982.6</ele>
        <time>2021-08-15T12:38:31Z</time>
      </trkpt>
      <trkpt lat="45.22891" lon="2.9346">
        <ele>982.6</ele>
        <time>2021-08-15T12:38:42Z</time>
      </trkpt>
      <trkpt lat="45.22892" lon="2.93458">
        <ele>982.6</ele>
        <time>2021-08-15T12:38:56Z</time>
      </trkpt>
      <trkpt lat="45.22895" lon="2.93456">
        <ele>982.6</ele>
        <time>2021-08-15T12:39:10Z</time>
      </trkpt>
      <trkpt lat="45.22897" lon="2.93454">
        <ele>982.6</ele>
        <time>2021-08-15T12:39:25Z</time>
      </trkpt>
      <trkpt lat="45.22897" lon="2.93455">
        <ele>982.6</ele>
        <time>2021-08-15T12:39:34Z</time>
      </trkpt>
      <trkpt lat="45.22895" lon="2.93458">
        <ele>982.6</ele>
        <time>2021-08-15T12:39:47Z</time>
      </trkpt>
      <trkpt lat="45.22894" lon="2.93459">
        <ele>982.6</ele>
        <time>2021-08-15T12:39:58Z</time>
      </trkpt>
      <trkpt lat="45.22894" lon="2.93461">
        <ele>982.6</ele>
        <time>2021-08-15T12:40:10Z</time>
      </trkpt>
      <trkpt lat="45.22894" lon="2.93462">
        <ele>982.6</ele>
        <time>2021-08-15T12:40:17Z</time>
      </trkpt>
      <trkpt lat="45.22895" lon="2.9346">
        <ele>982.6</ele>
        <time>2021-08-15T12:40:27Z</time>
      </trkpt>
      <trkpt lat="45.22896" lon="2.9346">
        <ele>983.09</ele>
        <time>2021-08-15T12:40:42Z</time>
      </trkpt>
      <trkpt lat="45.22897" lon="2.93459">
        <ele>983.57</ele>
        <time>2021-08-15T12:40:58Z</time>
      </trkpt>
      <trkpt lat="45.22898" lon="2.93459">
        <ele>983.57</ele>
        <time>2021-08-15T12:41:07Z</time>
      </trkpt>
      <trkpt lat="45.22898" lon="2.9346">
        <ele>983.57</ele>
        <time>2021-08-15T12:41:16Z</time>
      </trkpt>
      <trkpt lat="45.22897" lon="2.93459">
        <ele>983.57</ele>
        <time>2021-08-15T12:41:30Z</time>
      </trkpt>
      <trkpt lat="45.22897" lon="2.93459">
        <ele>983.57</ele>
        <time>2021-08-15T12:41:38Z</time>
      </trkpt>
      <trkpt lat="45.22897" lon="2.9346">
        <ele>983.57</ele>
        <time>2021-08-15T12:41:48Z</time>
      </trkpt>
      <trkpt lat="45.22896" lon="2.93457">
        <ele>983.57</ele>
        <time>2021-08-15T12:41:58Z</time>
      </trkpt>
      <trkpt lat="45.22896" lon="2.9346">
        <ele>983.57</ele>
        <time>2021-08-15T12:42:08Z</time>
      </trkpt>
      <trkpt lat="45.22897" lon="2.93463">
        <ele>983.57</ele>
        <time>2021-08-15T12:42:13Z</time>
      </trkpt>
      <trkpt lat="45.229" lon="2.93467">
        <ele>983.57</ele>
        <time>2021-08-15T12:42:18Z</time>
      </trkpt>
      <trkpt lat="45.22903" lon="2.93469">
        <ele>983.57</ele>
        <time>2021-08-15T12:42:36Z</time>
      </trkpt>
      <trkpt lat="45.22901" lon="2.93469">
        <ele>983.57</ele>
        <time>2021-08-15T12:42:50Z</time>
      </trkpt>
      <trkpt lat="45.22897" lon="2.93468">
        <ele>983.57</ele>
        <time>2021-08-15T12:43:09Z</time>
      </trkpt>
      <trkpt lat="45.22896" lon="2.93467">
        <ele>983.57</ele>
        <time>2021-08-15T12:43:21Z</time>
      </trkpt>
      <trkpt lat="45.22895" lon="2.93468">
        <ele>983.57</ele>
        <time>2021-08-15T12:43:33Z</time>
      </trkpt>
      <trkpt lat="45.22894" lon="2.93469">
        <ele>983.57</ele>
        <time>2021-08-15T12:43:48Z</time>
      </trkpt>
      <trkpt lat="45.22894" lon="2.93469">
        <ele>983.57</ele>
        <time>2021-08-15T12:43:57Z</time>
      </trkpt>
      <trkpt lat="45.22896" lon="2.9347">
        <ele>983.57</ele>
        <time>2021-08-15T12:44:13Z</time>
      </trkpt>
      <trkpt lat="45.22898" lon="2.93467">
        <ele>983.57</ele>
        <time>2021-08-15T12:44:27Z</time>
      </trkpt>
      <trkpt lat="45.229" lon="2.93463">
        <ele>983.57</ele>
        <time>2021-08-15T12:44:41Z</time>
      </trkpt>
      <trkpt lat="45.229" lon="2.93461">
        <ele>983.57</ele>
        <time>2021-08-15T12:44:51Z</time>
      </trkpt>
      <trkpt lat="45.22902" lon="2.93462">
        <ele>983.57</ele>
        <time>2021-08-15T12:45:05Z</time>
      </trkpt>
      <trkpt lat="45.22902" lon="2.93462">
        <ele>984.05</ele>
        <time>2021-08-15T12:45:22Z</time>
      </trkpt>
      <trkpt lat="45.229" lon="2.93462">
        <ele>984.53</ele>
        <time>2021-08-15T12:45:31Z</time>
      </trkpt>
      <trkpt lat="45.229" lon="2.93462">
        <ele>984.53</ele>
        <time>2021-08-15T12:45:43Z</time>
      </trkpt>
      <trkpt lat="45.22898" lon="2.9346">
        <ele>984.53</ele>
        <time>2021-08-15T12:46:00Z</time>
      </trkpt>
      <trkpt lat="45.22895" lon="2.93458">
        <ele>984.53</ele>
        <time>2021-08-15T12:46:11Z</time>
      </trkpt>
      <trkpt lat="45.22893" lon="2.93457">
        <ele>984.53</ele>
        <time>2021-08-15T12:46:22Z</time>
      </trkpt>
      <trkpt lat="45.22892" lon="2.93456">
        <ele>984.53</ele>
        <time>2021-08-15T12:46:31Z</time>
      </trkpt>
      <trkpt lat="45.22891" lon="2.93454">
        <ele>984.53</ele>
        <time>2021-08-15T12:46:41Z</time>
      </trkpt>
      <trkpt lat="45.22891" lon="2.93455">
        <ele>984.53</ele>
        <time>2021-08-15T12:46:54Z</time>
      </trkpt>
      <trkpt lat="45.2289" lon="2.93457">
        <ele>984.53</ele>
        <time>2021-08-15T12:47:04Z</time>
      </trkpt>
      <trkpt lat="45.2289" lon="2.93458">
        <ele>984.53</ele>
        <time>2021-08-15T12:47:16Z</time>
      </trkpt>
      <trkpt lat="45.22888" lon="2.93457">
        <ele>984.53</ele>
        <time>2021-08-15T12:47:25Z</time>
      </trkpt>
      <trkpt lat="45.22888" lon="2.93456">
        <ele>985.01</ele>
        <time>2021-08-15T12:47:41Z</time>
      </trkpt>
      <trkpt lat="45.22888" lon="2.93456">
        <ele>985.01</ele>
        <time>2021-08-15T12:47:54Z</time>
      </trkpt>
      <trkpt lat="45.22889" lon="2.93457">
        <ele>985.01</ele>
        <time>2021-08-15T12:48:10Z</time>
      </trkpt>
      <trkpt lat="45.22888" lon="2.93459">
        <ele>985.01</ele>
        <time>2021-08-15T12:48:23Z</time>
      </trkpt>
      <trkpt lat="45.2289" lon="2.9346">
        <ele>985.01</ele>
        <time>2021-08-15T12:48:38Z</time>
      </trkpt>
      <trkpt lat="45.22892" lon="2.9346">
        <ele>985.01</ele>
        <time>2021-08-15T12:48:52Z</time>
      </trkpt>
      <trkpt lat="45.22892" lon="2.93457">
        <ele>985.01</ele>
        <time>2021-08-15T12:49:02Z</time>
      </trkpt>
      <trkpt lat="45.2289" lon="2.93457">
        <ele>985.01</ele>
        <time>2021-08-15T12:49:17Z</time>
      </trkpt>
      <trkpt lat="45.22892" lon="2.93456">
        <ele>985.01</ele>
        <time>2021-08-15T12:49:31Z</time>
      </trkpt>
      <trkpt lat="45.22897" lon="2.9346">
        <ele>985.01</ele>
        <time>2021-08-15T12:49:57Z</time>
      </trkpt>
      <trkpt lat="45.22897" lon="2.93462">
        <ele>985.01</ele>
        <time>2021-08-15T12:50:20Z</time>
      </trkpt>
      <trkpt lat="45.22898" lon="2.93464">
        <ele>985.01</ele>
        <time>2021-08-15T12:50:36Z</time>
      </trkpt>
      <trkpt lat="45.229" lon="2.93466">
        <ele>985.01</ele>
        <time>2021-08-15T12:50:56Z</time>
      </trkpt>
      <trkpt lat="45.22899" lon="2.93465">
        <ele>985.01</ele>
        <time>2021-08-15T12:51:13Z</time>
      </trkpt>
      <trkpt lat="45.22898" lon="2.93462">
        <ele>985.01</ele>
        <time>2021-08-15T12:51:26Z</time>
      </trkpt>
      <trkpt lat="45.22895" lon="2.93462">
        <ele>985.01</ele>
        <time>2021-08-15T12:51:28Z</time>
      </trkpt>
      <trkpt lat="45.22887" lon="2.93459">
        <ele>985.01</ele>
        <time>2021-08-15T12:51:33Z</time>
      </trkpt>
      <trkpt lat="45.22885" lon="2.93458">
        <ele>985.01</ele>
        <time>2021-08-15T12:51:34Z</time>
      </trkpt>
      <trkpt lat="45.22883" lon="2.93457">
        <ele>985.01</ele>
        <time>2021-08-15T12:51:35Z</time>
      </trkpt>
      <trkpt lat="45.22881" lon="2.93457">
        <ele>985.01</ele>
        <time>2021-08-15T12:51:36Z</time>
      </trkpt>
      <trkpt lat="45.22879" lon="2.93456">
        <ele>985.01</ele>
        <time>2021-08-15T12:51:37Z</time>
      </trkpt>
      <trkpt lat="45.2288" lon="2.93456">
        <ele>985.01</ele>
        <time>2021-08-15T12:51:38Z</time>
      </trkpt>
      <trkpt lat="45.22881" lon="2.93455">
        <ele>985.01</ele>
        <time>2021-08-15T12:51:39Z</time>
      </trkpt>
      <trkpt lat="45.22883" lon="2.93455">
        <ele>985.01</ele>
        <time>2021-08-15T12:51:40Z</time>
      </trkpt>
      <trkpt lat="45.22886" lon="2.93454">
        <ele>985.01</ele>
        <time>2021-08-15T12:51:41Z</time>
      </trkpt>
      <trkpt lat="45.22904" lon="2.93452">
        <ele>985.01</ele>
        <time>2021-08-15T12:51:45Z</time>
      </trkpt>
      <trkpt lat="45.22908" lon="2.93452">
        <ele>985.01</ele>
        <time>2021-08-15T12:51:46Z</time>
      </trkpt>
      <trkpt lat="45.22913" lon="2.93452">
        <ele>985.01</ele>
        <time>2021-08-15T12:51:47Z</time>
      </trkpt>
      <trkpt lat="45.22941" lon="2.9345">
        <ele>985.49</ele>
        <time>2021-08-15T12:51:54Z</time>
      </trkpt>
      <trkpt lat="45.22966" lon="2.93443">
        <ele>985.97</ele>
        <time>2021-08-15T12:52:01Z</time>
      </trkpt>
      <trkpt lat="45.22988" lon="2.93434">
        <ele>987.41</ele>
        <time>2021-08-15T12:52:09Z</time>
      </trkpt>
      <trkpt lat="45.23004" lon="2.93432">
        <ele>987.89</ele>
        <time>2021-08-15T12:52:16Z</time>
      </trkpt>
      <trkpt lat="45.23005" lon="2.93431">
        <ele>987.89</ele>
        <time>2021-08-15T12:52:17Z</time>
      </trkpt>
      <trkpt lat="45.23007" lon="2.93431">
        <ele>988.37</ele>
        <time>2021-08-15T12:52:18Z</time>
      </trkpt>
      <trkpt lat="45.23008" lon="2.93435">
        <ele>988.37</ele>
        <time>2021-08-15T12:52:19Z</time>
      </trkpt>
      <trkpt lat="45.23009" lon="2.93439">
        <ele>988.37</ele>
        <time>2021-08-15T12:52:20Z</time>
      </trkpt>
      <trkpt lat="45.23009" lon="2.93442">
        <ele>988.37</ele>
        <time>2021-08-15T12:52:21Z</time>
      </trkpt>
      <trkpt lat="45.2301" lon="2.93445">
        <ele>988.37</ele>
        <time>2021-08-15T12:52:22Z</time>
      </trkpt>
      <trkpt lat="45.23018" lon="2.93463">
        <ele>988.37</ele>
        <time>2021-08-15T12:52:27Z</time>
      </trkpt>
      <trkpt lat="45.2302" lon="2.93464">
        <ele>988.37</ele>
        <time>2021-08-15T12:52:28Z</time>
      </trkpt>
      <trkpt lat="45.23023" lon="2.93465">
        <ele>988.37</ele>
        <time>2021-08-15T12:52:29Z</time>
      </trkpt>
      <trkpt lat="45.23025" lon="2.93465">
        <ele>988.37</ele>
        <time>2021-08-15T12:52:30Z</time>
      </trkpt>
      <trkpt lat="45.23054" lon="2.93463">
        <ele>989.81</ele>
        <time>2021-08-15T12:52:40Z</time>
      </trkpt>
      <trkpt lat="45.23069" lon="2.93456">
        <ele>990.3</ele>
        <time>2021-08-15T12:52:46Z</time>
      </trkpt>
      <trkpt lat="45.23082" lon="2.9344">
        <ele>990.3</ele>
        <time>2021-08-15T12:52:53Z</time>
      </trkpt>
      <trkpt lat="45.23088" lon="2.93427">
        <ele>990.78</ele>
        <time>2021-08-15T12:52:59Z</time>
      </trkpt>
      <trkpt lat="45.23082" lon="2.93421">
        <ele>990.78</ele>
        <time>2021-08-15T12:53:03Z</time>
      </trkpt>
      <trkpt lat="45.2308" lon="2.93422">
        <ele>990.78</ele>
        <time>2021-08-15T12:53:04Z</time>
      </trkpt>
      <trkpt lat="45.23077" lon="2.93423">
        <ele>990.78</ele>
        <time>2021-08-15T12:53:05Z</time>
      </trkpt>
      <trkpt lat="45.23055" lon="2.93429">
        <ele>990.78</ele>
        <time>2021-08-15T12:53:11Z</time>
      </trkpt>
      <trkpt lat="45.23032" lon="2.93432">
        <ele>989.33</ele>
        <time>2021-08-15T12:53:16Z</time>
      </trkpt>
      <trkpt lat="45.23017" lon="2.93431">
        <ele>988.85</ele>
        <time>2021-08-15T12:53:19Z</time>
      </trkpt>
      <trkpt lat="45.23012" lon="2.93429">
        <ele>988.85</ele>
        <time>2021-08-15T12:53:20Z</time>
      </trkpt>
      <trkpt lat="45.23008" lon="2.93423">
        <ele>988.85</ele>
        <time>2021-08-15T12:53:21Z</time>
      </trkpt>
      <trkpt lat="45.23006" lon="2.93415">
        <ele>987.89</ele>
        <time>2021-08-15T12:53:22Z</time>
      </trkpt>
      <trkpt lat="45.23005" lon="2.9341">
        <ele>987.89</ele>
        <time>2021-08-15T12:53:23Z</time>
      </trkpt>
      <trkpt lat="45.23003" lon="2.93402">
        <ele>987.89</ele>
        <time>2021-08-15T12:53:24Z</time>
      </trkpt>
      <trkpt lat="45.2299" lon="2.93335">
        <ele>985.01</ele>
        <time>2021-08-15T12:53:32Z</time>
      </trkpt>
      <trkpt lat="45.22975" lon="2.93255">
        <ele>985.49</ele>
        <time>2021-08-15T12:53:40Z</time>
      </trkpt>
      <trkpt lat="45.22972" lon="2.9324">
        <ele>985.49</ele>
        <time>2021-08-15T12:53:42Z</time>
      </trkpt>
      <trkpt lat="45.2297" lon="2.93234">
        <ele>986.45</ele>
        <time>2021-08-15T12:53:43Z</time>
      </trkpt>
      <trkpt lat="45.22968" lon="2.93228">
        <ele>986.45</ele>
        <time>2021-08-15T12:53:44Z</time>
      </trkpt>
      <trkpt lat="45.22965" lon="2.93223">
        <ele>986.93</ele>
        <time>2021-08-15T12:53:45Z</time>
      </trkpt>
      <trkpt lat="45.22962" lon="2.93219">
        <ele>987.41</ele>
        <time>2021-08-15T12:53:46Z</time>
      </trkpt>
      <trkpt lat="45.22945" lon="2.93209">
        <ele>988.37</ele>
        <time>2021-08-15T12:53:51Z</time>
      </trkpt>
      <trkpt lat="45.22941" lon="2.93209">
        <ele>988.37</ele>
        <time>2021-08-15T12:53:52Z</time>
      </trkpt>
      <trkpt lat="45.22905" lon="2.93211">
        <ele>989.81</ele>
        <time>2021-08-15T12:54:01Z</time>
      </trkpt>
      <trkpt lat="45.22882" lon="2.93206">
        <ele>990.3</ele>
        <time>2021-08-15T12:54:07Z</time>
      </trkpt>
      <trkpt lat="45.22874" lon="2.93206">
        <ele>990.3</ele>
        <time>2021-08-15T12:54:09Z</time>
      </trkpt>
      <trkpt lat="45.22869" lon="2.93207">
        <ele>990.3</ele>
        <time>2021-08-15T12:54:10Z</time>
      </trkpt>
      <trkpt lat="45.22863" lon="2.93209">
        <ele>990.3</ele>
        <time>2021-08-15T12:54:11Z</time>
      </trkpt>
      <trkpt lat="45.22858" lon="2.93211">
        <ele>988.85</ele>
        <time>2021-08-15T12:54:12Z</time>
      </trkpt>
      <trkpt lat="45.22852" lon="2.93214">
        <ele>988.37</ele>
        <time>2021-08-15T12:54:13Z</time>
      </trkpt>
      <trkpt lat="45.22847" lon="2.93218">
        <ele>988.37</ele>
        <time>2021-08-15T12:54:14Z</time>
      </trkpt>
      <trkpt lat="45.22841" lon="2.93223">
        <ele>987.89</ele>
        <time>2021-08-15T12:54:15Z</time>
      </trkpt>
      <trkpt lat="45.22836" lon="2.93229">
        <ele>987.41</ele>
        <time>2021-08-15T12:54:16Z</time>
      </trkpt>
      <trkpt lat="45.22831" lon="2.93236">
        <ele>986.93</ele>
        <time>2021-08-15T12:54:17Z</time>
      </trkpt>
      <trkpt lat="45.22827" lon="2.93244">
        <ele>985.97</ele>
        <time>2021-08-15T12:54:18Z</time>
      </trkpt>
      <trkpt lat="45.22823" lon="2.93253">
        <ele>985.49</ele>
        <time>2021-08-15T12:54:19Z</time>
      </trkpt>
      <trkpt lat="45.22819" lon="2.93262">
        <ele>985.01</ele>
        <time>2021-08-15T12:54:20Z</time>
      </trkpt>
      <trkpt lat="45.22809" lon="2.93281">
        <ele>983.57</ele>
        <time>2021-08-15T12:54:22Z</time>
      </trkpt>
      <trkpt lat="45.22803" lon="2.93289">
        <ele>982.6</ele>
        <time>2021-08-15T12:54:23Z</time>
      </trkpt>
      <trkpt lat="45.22797" lon="2.93297">
        <ele>981.64</ele>
        <time>2021-08-15T12:54:24Z</time>
      </trkpt>
      <trkpt lat="45.2279" lon="2.93304">
        <ele>980.68</ele>
        <time>2021-08-15T12:54:25Z</time>
      </trkpt>
      <trkpt lat="45.22783" lon="2.93311">
        <ele>980.68</ele>
        <time>2021-08-15T12:54:26Z</time>
      </trkpt>
      <trkpt lat="45.22749" lon="2.9334">
        <ele>977.32</ele>
        <time>2021-08-15T12:54:31Z</time>
      </trkpt>
      <trkpt lat="45.22741" lon="2.93341">
        <ele>976.84</ele>
        <time>2021-08-15T12:54:32Z</time>
      </trkpt>
      <trkpt lat="45.22732" lon="2.9334">
        <ele>977.32</ele>
        <time>2021-08-15T12:54:33Z</time>
      </trkpt>
      <trkpt lat="45.22703" lon="2.93336">
        <ele>976.84</ele>
        <time>2021-08-15T12:54:37Z</time>
      </trkpt>
      <trkpt lat="45.22697" lon="2.93337">
        <ele>976.84</ele>
        <time>2021-08-15T12:54:38Z</time>
      </trkpt>
      <trkpt lat="45.22691" lon="2.93339">
        <ele>976.84</ele>
        <time>2021-08-15T12:54:39Z</time>
      </trkpt>
      <trkpt lat="45.22685" lon="2.93341">
        <ele>976.84</ele>
        <time>2021-08-15T12:54:40Z</time>
      </trkpt>
      <trkpt lat="45.2268" lon="2.93342">
        <ele>976.84</ele>
        <time>2021-08-15T12:54:41Z</time>
      </trkpt>
      <trkpt lat="45.22664" lon="2.93345">
        <ele>978.76</ele>
        <time>2021-08-15T12:54:44Z</time>
      </trkpt>
      <trkpt lat="45.22639" lon="2.93349">
        <ele>979.72</ele>
        <time>2021-08-15T12:54:49Z</time>
      </trkpt>
      <trkpt lat="45.2259" lon="2.93359">
        <ele>979.72</ele>
        <time>2021-08-15T12:54:59Z</time>
      </trkpt>
      <trkpt lat="45.22538" lon="2.93355">
        <ele>979.72</ele>
        <time>2021-08-15T12:55:09Z</time>
      </trkpt>
      <trkpt lat="45.22527" lon="2.93351">
        <ele>980.2</ele>
        <time>2021-08-15T12:55:11Z</time>
      </trkpt>
      <trkpt lat="45.22478" lon="2.93316">
        <ele>980.2</ele>
        <time>2021-08-15T12:55:22Z</time>
      </trkpt>
      <trkpt lat="45.22435" lon="2.93284">
        <ele>981.16</ele>
        <time>2021-08-15T12:55:32Z</time>
      </trkpt>
      <trkpt lat="45.22423" lon="2.93275">
        <ele>981.16</ele>
        <time>2021-08-15T12:55:35Z</time>
      </trkpt>
      <trkpt lat="45.22419" lon="2.93274">
        <ele>981.64</ele>
        <time>2021-08-15T12:55:36Z</time>
      </trkpt>
      <trkpt lat="45.22415" lon="2.93272">
        <ele>981.64</ele>
        <time>2021-08-15T12:55:37Z</time>
      </trkpt>
      <trkpt lat="45.22386" lon="2.93256">
        <ele>983.09</ele>
        <time>2021-08-15T12:55:46Z</time>
      </trkpt>
      <trkpt lat="45.22363" lon="2.9323">
        <ele>984.05</ele>
        <time>2021-08-15T12:55:55Z</time>
      </trkpt>
      <trkpt lat="45.22339" lon="2.93208">
        <ele>984.05</ele>
        <time>2021-08-15T12:56:02Z</time>
      </trkpt>
      <trkpt lat="45.22297" lon="2.93171">
        <ele>984.05</ele>
        <time>2021-08-15T12:56:14Z</time>
      </trkpt>
      <trkpt lat="45.2228" lon="2.9315">
        <ele>985.49</ele>
        <time>2021-08-15T12:56:20Z</time>
      </trkpt>
      <trkpt lat="45.22267" lon="2.93128">
        <ele>986.93</ele>
        <time>2021-08-15T12:56:28Z</time>
      </trkpt>
      <trkpt lat="45.2225" lon="2.93109">
        <ele>987.89</ele>
        <time>2021-08-15T12:56:36Z</time>
      </trkpt>
      <trkpt lat="45.22243" lon="2.93113">
        <ele>987.89</ele>
        <time>2021-08-15T12:56:38Z</time>
      </trkpt>
      <trkpt lat="45.22239" lon="2.93116">
        <ele>987.89</ele>
        <time>2021-08-15T12:56:39Z</time>
      </trkpt>
      <trkpt lat="45.22236" lon="2.9312">
        <ele>987.89</ele>
        <time>2021-08-15T12:56:40Z</time>
      </trkpt>
      <trkpt lat="45.22216" lon="2.93151">
        <ele>988.37</ele>
        <time>2021-08-15T12:56:48Z</time>
      </trkpt>
      <trkpt lat="45.222" lon="2.93173">
        <ele>988.85</ele>
        <time>2021-08-15T12:56:54Z</time>
      </trkpt>
      <trkpt lat="45.22197" lon="2.93178">
        <ele>988.85</ele>
        <time>2021-08-15T12:56:55Z</time>
      </trkpt>
      <trkpt lat="45.22176" lon="2.93207">
        <ele>989.81</ele>
        <time>2021-08-15T12:57:03Z</time>
      </trkpt>
      <trkpt lat="45.22151" lon="2.93232">
        <ele>990.78</ele>
        <time>2021-08-15T12:57:12Z</time>
      </trkpt>
      <trkpt lat="45.22137" lon="2.9323">
        <ele>991.74</ele>
        <time>2021-08-15T12:57:18Z</time>
      </trkpt>
      <trkpt lat="45.22121" lon="2.93217">
        <ele>993.66</ele>
        <time>2021-08-15T12:57:28Z</time>
      </trkpt>
      <trkpt lat="45.22106" lon="2.93202">
        <ele>994.62</ele>
        <time>2021-08-15T12:57:35Z</time>
      </trkpt>
      <trkpt lat="45.22083" lon="2.9318">
        <ele>994.14</ele>
        <time>2021-08-15T12:57:42Z</time>
      </trkpt>
      <trkpt lat="45.22071" lon="2.9317">
        <ele>993.18</ele>
        <time>2021-08-15T12:57:45Z</time>
      </trkpt>
      <trkpt lat="45.22044" lon="2.93152">
        <ele>994.62</ele>
        <time>2021-08-15T12:57:53Z</time>
      </trkpt>
      <trkpt lat="45.22041" lon="2.93152">
        <ele>994.62</ele>
        <time>2021-08-15T12:57:54Z</time>
      </trkpt>
      <trkpt lat="45.22035" lon="2.93156">
        <ele>995.1</ele>
        <time>2021-08-15T12:57:56Z</time>
      </trkpt>
      <trkpt lat="45.22032" lon="2.93159">
        <ele>995.1</ele>
        <time>2021-08-15T12:57:57Z</time>
      </trkpt>
      <trkpt lat="45.22029" lon="2.93163">
        <ele>995.1</ele>
        <time>2021-08-15T12:57:58Z</time>
      </trkpt>
      <trkpt lat="45.22022" lon="2.93176">
        <ele>995.1</ele>
        <time>2021-08-15T12:58:01Z</time>
      </trkpt>
      <trkpt lat="45.2202" lon="2.93182">
        <ele>995.1</ele>
        <time>2021-08-15T12:58:02Z</time>
      </trkpt>
      <trkpt lat="45.22018" lon="2.93188">
        <ele>995.1</ele>
        <time>2021-08-15T12:58:03Z</time>
      </trkpt>
      <trkpt lat="45.22012" lon="2.93221">
        <ele>993.18</ele>
        <time>2021-08-15T12:58:07Z</time>
      </trkpt>
      <trkpt lat="45.22009" lon="2.93251">
        <ele>989.81</ele>
        <time>2021-08-15T12:58:10Z</time>
      </trkpt>
      <trkpt lat="45.22006" lon="2.93292">
        <ele>986.45</ele>
        <time>2021-08-15T12:58:14Z</time>
      </trkpt>
      <trkpt lat="45.22005" lon="2.93301">
        <ele>986.45</ele>
        <time>2021-08-15T12:58:15Z</time>
      </trkpt>
      <trkpt lat="45.22005" lon="2.93319">
        <ele>984.53</ele>
        <time>2021-08-15T12:58:17Z</time>
      </trkpt>
      <trkpt lat="45.22007" lon="2.93327">
        <ele>984.05</ele>
        <time>2021-08-15T12:58:18Z</time>
      </trkpt>
      <trkpt lat="45.22008" lon="2.93334">
        <ele>983.57</ele>
        <time>2021-08-15T12:58:19Z</time>
      </trkpt>
      <trkpt lat="45.22008" lon="2.93341">
        <ele>983.09</ele>
        <time>2021-08-15T12:58:20Z</time>
      </trkpt>
      <trkpt lat="45.22006" lon="2.93348">
        <ele>981.64</ele>
        <time>2021-08-15T12:58:21Z</time>
      </trkpt>
      <trkpt lat="45.22002" lon="2.93355">
        <ele>980.68</ele>
        <time>2021-08-15T12:58:22Z</time>
      </trkpt>
      <trkpt lat="45.21994" lon="2.93359">
        <ele>979.24</ele>
        <time>2021-08-15T12:58:23Z</time>
      </trkpt>
      <trkpt lat="45.21987" lon="2.9336">
        <ele>978.28</ele>
        <time>2021-08-15T12:58:24Z</time>
      </trkpt>
      <trkpt lat="45.21978" lon="2.93362">
        <ele>976.84</ele>
        <time>2021-08-15T12:58:25Z</time>
      </trkpt>
      <trkpt lat="45.21968" lon="2.93366">
        <ele>975.88</ele>
        <time>2021-08-15T12:58:26Z</time>
      </trkpt>
      <trkpt lat="45.21957" lon="2.93371">
        <ele>974.43</ele>
        <time>2021-08-15T12:58:27Z</time>
      </trkpt>
      <trkpt lat="45.21948" lon="2.93376">
        <ele>973.47</ele>
        <time>2021-08-15T12:58:28Z</time>
      </trkpt>
      <trkpt lat="45.21936" lon="2.9338">
        <ele>972.51</ele>
        <time>2021-08-15T12:58:29Z</time>
      </trkpt>
      <trkpt lat="45.21925" lon="2.93381">
        <ele>972.03</ele>
        <time>2021-08-15T12:58:30Z</time>
      </trkpt>
      <trkpt lat="45.21912" lon="2.93381">
        <ele>971.55</ele>
        <time>2021-08-15T12:58:31Z</time>
      </trkpt>
      <trkpt lat="45.21903" lon="2.93381">
        <ele>971.07</ele>
        <time>2021-08-15T12:58:32Z</time>
      </trkpt>
      <trkpt lat="45.2187" lon="2.93382">
        <ele>970.11</ele>
        <time>2021-08-15T12:58:35Z</time>
      </trkpt>
      <trkpt lat="45.2186" lon="2.93386">
        <ele>970.11</ele>
        <time>2021-08-15T12:58:36Z</time>
      </trkpt>
      <trkpt lat="45.21841" lon="2.93395">
        <ele>970.11</ele>
        <time>2021-08-15T12:58:38Z</time>
      </trkpt>
      <trkpt lat="45.21831" lon="2.93397">
        <ele>970.11</ele>
        <time>2021-08-15T12:58:39Z</time>
      </trkpt>
      <trkpt lat="45.21821" lon="2.93399">
        <ele>969.15</ele>
        <time>2021-08-15T12:58:40Z</time>
      </trkpt>
      <trkpt lat="45.21756" lon="2.93401">
        <ele>966.26</ele>
        <time>2021-08-15T12:58:46Z</time>
      </trkpt>
      <trkpt lat="45.2168" lon="2.93397">
        <ele>966.26</ele>
        <time>2021-08-15T12:58:54Z</time>
      </trkpt>
      <trkpt lat="45.21627" lon="2.93398">
        <ele>967.7</ele>
        <time>2021-08-15T12:59:01Z</time>
      </trkpt>
      <trkpt lat="45.21575" lon="2.93402">
        <ele>967.7</ele>
        <time>2021-08-15T12:59:09Z</time>
      </trkpt>
      <trkpt lat="45.21515" lon="2.93402">
        <ele>967.7</ele>
        <time>2021-08-15T12:59:18Z</time>
      </trkpt>
      <trkpt lat="45.21444" lon="2.934">
        <ele>965.78</ele>
        <time>2021-08-15T12:59:28Z</time>
      </trkpt>
      <trkpt lat="45.21365" lon="2.93399">
        <ele>964.82</ele>
        <time>2021-08-15T12:59:38Z</time>
      </trkpt>
      <trkpt lat="45.21318" lon="2.93399">
        <ele>965.78</ele>
        <time>2021-08-15T12:59:45Z</time>
      </trkpt>
      <trkpt lat="45.21289" lon="2.934">
        <ele>964.34</ele>
        <time>2021-08-15T12:59:49Z</time>
      </trkpt>
      <trkpt lat="45.21282" lon="2.93401">
        <ele>964.34</ele>
        <time>2021-08-15T12:59:50Z</time>
      </trkpt>
      <trkpt lat="45.21274" lon="2.93402">
        <ele>963.38</ele>
        <time>2021-08-15T12:59:51Z</time>
      </trkpt>
      <trkpt lat="45.21267" lon="2.93405">
        <ele>962.9</ele>
        <time>2021-08-15T12:59:52Z</time>
      </trkpt>
      <trkpt lat="45.21259" lon="2.93409">
        <ele>962.9</ele>
        <time>2021-08-15T12:59:53Z</time>
      </trkpt>
      <trkpt lat="45.21251" lon="2.93415">
        <ele>961.94</ele>
        <time>2021-08-15T12:59:54Z</time>
      </trkpt>
      <trkpt lat="45.21242" lon="2.93422">
        <ele>960.98</ele>
        <time>2021-08-15T12:59:55Z</time>
      </trkpt>
      <trkpt lat="45.21234" lon="2.93427">
        <ele>960.49</ele>
        <time>2021-08-15T12:59:56Z</time>
      </trkpt>
      <trkpt lat="45.21224" lon="2.93431">
        <ele>960.01</ele>
        <time>2021-08-15T12:59:57Z</time>
      </trkpt>
      <trkpt lat="45.21216" lon="2.93433">
        <ele>959.53</ele>
        <time>2021-08-15T12:59:58Z</time>
      </trkpt>
      <trkpt lat="45.21206" lon="2.93434">
        <ele>959.53</ele>
        <time>2021-08-15T12:59:59Z</time>
      </trkpt>
      <trkpt lat="45.21197" lon="2.93434">
        <ele>959.53</ele>
        <time>2021-08-15T13:00:00Z</time>
      </trkpt>
      <trkpt lat="45.21189" lon="2.93436">
        <ele>959.53</ele>
        <time>2021-08-15T13:00:01Z</time>
      </trkpt>
      <trkpt lat="45.2118" lon="2.9344">
        <ele>959.53</ele>
        <time>2021-08-15T13:00:02Z</time>
      </trkpt>
      <trkpt lat="45.21127" lon="2.9347">
        <ele>958.57</ele>
        <time>2021-08-15T13:00:08Z</time>
      </trkpt>
      <trkpt lat="45.21072" lon="2.93493">
        <ele>957.13</ele>
        <time>2021-08-15T13:00:14Z</time>
      </trkpt>
      <trkpt lat="45.21024" lon="2.935">
        <ele>957.13</ele>
        <time>2021-08-15T13:00:20Z</time>
      </trkpt>
      <trkpt lat="45.20973" lon="2.93488">
        <ele>957.13</ele>
        <time>2021-08-15T13:00:27Z</time>
      </trkpt>
      <trkpt lat="45.20949" lon="2.93477">
        <ele>958.57</ele>
        <time>2021-08-15T13:00:31Z</time>
      </trkpt>
      <trkpt lat="45.20907" lon="2.93455">
        <ele>959.53</ele>
        <time>2021-08-15T13:00:39Z</time>
      </trkpt>
      <trkpt lat="45.20875" lon="2.93432">
        <ele>960.49</ele>
        <time>2021-08-15T13:00:47Z</time>
      </trkpt>
      <trkpt lat="45.20845" lon="2.93407">
        <ele>960.98</ele>
        <time>2021-08-15T13:00:55Z</time>
      </trkpt>
      <trkpt lat="45.20812" lon="2.93382">
        <ele>960.98</ele>
        <time>2021-08-15T13:01:03Z</time>
      </trkpt>
      <trkpt lat="45.20767" lon="2.9336">
        <ele>959.05</ele>
        <time>2021-08-15T13:01:11Z</time>
      </trkpt>
      <trkpt lat="45.20722" lon="2.93344">
        <ele>957.61</ele>
        <time>2021-08-15T13:01:18Z</time>
      </trkpt>
      <trkpt lat="45.20653" lon="2.93334">
        <ele>956.17</ele>
        <time>2021-08-15T13:01:28Z</time>
      </trkpt>
      <trkpt lat="45.20588" lon="2.93322">
        <ele>955.21</ele>
        <time>2021-08-15T13:01:37Z</time>
      </trkpt>
      <trkpt lat="45.20553" lon="2.93314">
        <ele>956.65</ele>
        <time>2021-08-15T13:01:43Z</time>
      </trkpt>
      <trkpt lat="45.20536" lon="2.93308">
        <ele>958.09</ele>
        <time>2021-08-15T13:01:48Z</time>
      </trkpt>
      <trkpt lat="45.20522" lon="2.93298">
        <ele>959.05</ele>
        <time>2021-08-15T13:01:55Z</time>
      </trkpt>
      <trkpt lat="45.20508" lon="2.93283">
        <ele>959.53</ele>
        <time>2021-08-15T13:02:02Z</time>
      </trkpt>
      <trkpt lat="45.20501" lon="2.93267">
        <ele>960.01</ele>
        <time>2021-08-15T13:02:07Z</time>
      </trkpt>
      <trkpt lat="45.20504" lon="2.93248">
        <ele>960.49</ele>
        <time>2021-08-15T13:02:14Z</time>
      </trkpt>
      <trkpt lat="45.20511" lon="2.93229">
        <ele>962.42</ele>
        <time>2021-08-15T13:02:23Z</time>
      </trkpt>
      <trkpt lat="45.20519" lon="2.93211">
        <ele>963.86</ele>
        <time>2021-08-15T13:02:32Z</time>
      </trkpt>
      <trkpt lat="45.20528" lon="2.93194">
        <ele>964.82</ele>
        <time>2021-08-15T13:02:41Z</time>
      </trkpt>
      <trkpt lat="45.20534" lon="2.9318">
        <ele>966.26</ele>
        <time>2021-08-15T13:02:50Z</time>
      </trkpt>
      <trkpt lat="45.20534" lon="2.93179">
        <ele>966.26</ele>
        <time>2021-08-15T13:02:51Z</time>
      </trkpt>
      <trkpt lat="45.20535" lon="2.93177">
        <ele>966.74</ele>
        <time>2021-08-15T13:02:52Z</time>
      </trkpt>
      <trkpt lat="45.20536" lon="2.93176">
        <ele>966.74</ele>
        <time>2021-08-15T13:02:53Z</time>
      </trkpt>
      <trkpt lat="45.20539" lon="2.93166">
        <ele>967.22</ele>
        <time>2021-08-15T13:02:59Z</time>
      </trkpt>
      <trkpt lat="45.20539" lon="2.93164">
        <ele>967.7</ele>
        <time>2021-08-15T13:03:00Z</time>
      </trkpt>
      <trkpt lat="45.20539" lon="2.93162">
        <ele>967.7</ele>
        <time>2021-08-15T13:03:01Z</time>
      </trkpt>
      <trkpt lat="45.20539" lon="2.93151">
        <ele>968.18</ele>
        <time>2021-08-15T13:03:08Z</time>
      </trkpt>
      <trkpt lat="45.20538" lon="2.93137">
        <ele>969.63</ele>
        <time>2021-08-15T13:03:16Z</time>
      </trkpt>
      <trkpt lat="45.20538" lon="2.93135">
        <ele>969.63</ele>
        <time>2021-08-15T13:03:17Z</time>
      </trkpt>
      <trkpt lat="45.20538" lon="2.93133">
        <ele>969.63</ele>
        <time>2021-08-15T13:03:18Z</time>
      </trkpt>
      <trkpt lat="45.20538" lon="2.93131">
        <ele>969.63</ele>
        <time>2021-08-15T13:03:19Z</time>
      </trkpt>
      <trkpt lat="45.20537" lon="2.9313">
        <ele>969.63</ele>
        <time>2021-08-15T13:03:20Z</time>
      </trkpt>
      <trkpt lat="45.20536" lon="2.93128">
        <ele>969.63</ele>
        <time>2021-08-15T13:03:21Z</time>
      </trkpt>
      <trkpt lat="45.20536" lon="2.93126">
        <ele>970.11</ele>
        <time>2021-08-15T13:03:22Z</time>
      </trkpt>
      <trkpt lat="45.20535" lon="2.93125">
        <ele>970.11</ele>
        <time>2021-08-15T13:03:23Z</time>
      </trkpt>
      <trkpt lat="45.20534" lon="2.93124">
        <ele>970.59</ele>
        <time>2021-08-15T13:03:24Z</time>
      </trkpt>
      <trkpt lat="45.20534" lon="2.93123">
        <ele>970.59</ele>
        <time>2021-08-15T13:03:25Z</time>
      </trkpt>
      <trkpt lat="45.20533" lon="2.93121">
        <ele>970.59</ele>
        <time>2021-08-15T13:03:26Z</time>
      </trkpt>
      <trkpt lat="45.20533" lon="2.93119">
        <ele>971.07</ele>
        <time>2021-08-15T13:03:27Z</time>
      </trkpt>
      <trkpt lat="45.20532" lon="2.93118">
        <ele>971.07</ele>
        <time>2021-08-15T13:03:28Z</time>
      </trkpt>
      <trkpt lat="45.20532" lon="2.93116">
        <ele>971.07</ele>
        <time>2021-08-15T13:03:29Z</time>
      </trkpt>
      <trkpt lat="45.20531" lon="2.93114">
        <ele>971.55</ele>
        <time>2021-08-15T13:03:30Z</time>
      </trkpt>
      <trkpt lat="45.2053" lon="2.93112">
        <ele>971.55</ele>
        <time>2021-08-15T13:03:31Z</time>
      </trkpt>
      <trkpt lat="45.2053" lon="2.9311">
        <ele>971.55</ele>
        <time>2021-08-15T13:03:32Z</time>
      </trkpt>
      <trkpt lat="45.20529" lon="2.93109">
        <ele>971.55</ele>
        <time>2021-08-15T13:03:33Z</time>
      </trkpt>
      <trkpt lat="45.20529" lon="2.93107">
        <ele>972.03</ele>
        <time>2021-08-15T13:03:34Z</time>
      </trkpt>
      <trkpt lat="45.20528" lon="2.93105">
        <ele>972.03</ele>
        <time>2021-08-15T13:03:35Z</time>
      </trkpt>
      <trkpt lat="45.20527" lon="2.93099">
        <ele>972.51</ele>
        <time>2021-08-15T13:03:38Z</time>
      </trkpt>
      <trkpt lat="45.20527" lon="2.93097">
        <ele>972.51</ele>
        <time>2021-08-15T13:03:39Z</time>
      </trkpt>
      <trkpt lat="45.20527" lon="2.93095">
        <ele>972.51</ele>
        <time>2021-08-15T13:03:40Z</time>
      </trkpt>
      <trkpt lat="45.20527" lon="2.93094">
        <ele>972.99</ele>
        <time>2021-08-15T13:03:41Z</time>
      </trkpt>
      <trkpt lat="45.20526" lon="2.93092">
        <ele>972.99</ele>
        <time>2021-08-15T13:03:42Z</time>
      </trkpt>
      <trkpt lat="45.20526" lon="2.9309">
        <ele>972.99</ele>
        <time>2021-08-15T13:03:43Z</time>
      </trkpt>
      <trkpt lat="45.20526" lon="2.93088">
        <ele>972.99</ele>
        <time>2021-08-15T13:03:44Z</time>
      </trkpt>
      <trkpt lat="45.20526" lon="2.93086">
        <ele>972.99</ele>
        <time>2021-08-15T13:03:45Z</time>
      </trkpt>
      <trkpt lat="45.20526" lon="2.93084">
        <ele>973.47</ele>
        <time>2021-08-15T13:03:46Z</time>
      </trkpt>
      <trkpt lat="45.2052" lon="2.93059">
        <ele>974.43</ele>
        <time>2021-08-15T13:03:59Z</time>
      </trkpt>
      <trkpt lat="45.20518" lon="2.93052">
        <ele>974.91</ele>
        <time>2021-08-15T13:04:03Z</time>
      </trkpt>
      <trkpt lat="45.20517" lon="2.93051">
        <ele>974.91</ele>
        <time>2021-08-15T13:04:04Z</time>
      </trkpt>
      <trkpt lat="45.20517" lon="2.9305">
        <ele>974.91</ele>
        <time>2021-08-15T13:04:05Z</time>
      </trkpt>
      <trkpt lat="45.20515" lon="2.93049">
        <ele>975.39</ele>
        <time>2021-08-15T13:04:06Z</time>
      </trkpt>
      <trkpt lat="45.20514" lon="2.9305">
        <ele>975.39</ele>
        <time>2021-08-15T13:04:07Z</time>
      </trkpt>
      <trkpt lat="45.20514" lon="2.93051">
        <ele>975.39</ele>
        <time>2021-08-15T13:04:08Z</time>
      </trkpt>
      <trkpt lat="45.20513" lon="2.93052">
        <ele>975.39</ele>
        <time>2021-08-15T13:04:09Z</time>
      </trkpt>
      <trkpt lat="45.20513" lon="2.93053">
        <ele>975.39</ele>
        <time>2021-08-15T13:04:10Z</time>
      </trkpt>
      <trkpt lat="45.20509" lon="2.93065">
        <ele>976.84</ele>
        <time>2021-08-15T13:04:17Z</time>
      </trkpt>
      <trkpt lat="45.20505" lon="2.93082">
        <ele>977.8</ele>
        <time>2021-08-15T13:04:25Z</time>
      </trkpt>
      <trkpt lat="45.20498" lon="2.93103">
        <ele>978.76</ele>
        <time>2021-08-15T13:04:34Z</time>
      </trkpt>
      <trkpt lat="45.20494" lon="2.93121">
        <ele>979.24</ele>
        <time>2021-08-15T13:04:41Z</time>
      </trkpt>
      <trkpt lat="45.20488" lon="2.93143">
        <ele>980.68</ele>
        <time>2021-08-15T13:04:50Z</time>
      </trkpt>
      <trkpt lat="45.2048" lon="2.9316">
        <ele>981.64</ele>
        <time>2021-08-15T13:04:58Z</time>
      </trkpt>
      <trkpt lat="45.20472" lon="2.93177">
        <ele>983.09</ele>
        <time>2021-08-15T13:05:06Z</time>
      </trkpt>
      <trkpt lat="45.20462" lon="2.93193">
        <ele>983.57</ele>
        <time>2021-08-15T13:05:14Z</time>
      </trkpt>
      <trkpt lat="45.20453" lon="2.93207">
        <ele>985.01</ele>
        <time>2021-08-15T13:05:22Z</time>
      </trkpt>
      <trkpt lat="45.2045" lon="2.93209">
        <ele>985.49</ele>
        <time>2021-08-15T13:05:24Z</time>
      </trkpt>
      <trkpt lat="45.20449" lon="2.93211">
        <ele>985.49</ele>
        <time>2021-08-15T13:05:25Z</time>
      </trkpt>
      <trkpt lat="45.20448" lon="2.93212">
        <ele>985.49</ele>
        <time>2021-08-15T13:05:26Z</time>
      </trkpt>
      <trkpt lat="45.20436" lon="2.93223">
        <ele>986.45</ele>
        <time>2021-08-15T13:05:34Z</time>
      </trkpt>
      <trkpt lat="45.20423" lon="2.93233">
        <ele>987.41</ele>
        <time>2021-08-15T13:05:43Z</time>
      </trkpt>
      <trkpt lat="45.20411" lon="2.93242">
        <ele>988.37</ele>
        <time>2021-08-15T13:05:50Z</time>
      </trkpt>
      <trkpt lat="45.20397" lon="2.93249">
        <ele>989.33</ele>
        <time>2021-08-15T13:05:58Z</time>
      </trkpt>
      <trkpt lat="45.20385" lon="2.93253">
        <ele>990.3</ele>
        <time>2021-08-15T13:06:05Z</time>
      </trkpt>
      <trkpt lat="45.20369" lon="2.93259">
        <ele>991.74</ele>
        <time>2021-08-15T13:06:14Z</time>
      </trkpt>
      <trkpt lat="45.20358" lon="2.93263">
        <ele>993.66</ele>
        <time>2021-08-15T13:06:22Z</time>
      </trkpt>
      <trkpt lat="45.20347" lon="2.93265">
        <ele>995.1</ele>
        <time>2021-08-15T13:06:31Z</time>
      </trkpt>
      <trkpt lat="45.20335" lon="2.93265">
        <ele>996.54</ele>
        <time>2021-08-15T13:06:40Z</time>
      </trkpt>
      <trkpt lat="45.20322" lon="2.93265">
        <ele>997.99</ele>
        <time>2021-08-15T13:06:50Z</time>
      </trkpt>
      <trkpt lat="45.20321" lon="2.93265">
        <ele>998.47</ele>
        <time>2021-08-15T13:06:51Z</time>
      </trkpt>
      <trkpt lat="45.20319" lon="2.93266">
        <ele>998.47</ele>
        <time>2021-08-15T13:06:52Z</time>
      </trkpt>
      <trkpt lat="45.20317" lon="2.93266">
        <ele>998.47</ele>
        <time>2021-08-15T13:06:53Z</time>
      </trkpt>
      <trkpt lat="45.20312" lon="2.93266">
        <ele>998.95</ele>
        <time>2021-08-15T13:06:57Z</time>
      </trkpt>
      <trkpt lat="45.20308" lon="2.93266">
        <ele>999.43</ele>
        <time>2021-08-15T13:07:01Z</time>
      </trkpt>
      <trkpt lat="45.20297" lon="2.93268">
        <ele>1000.87</ele>
        <time>2021-08-15T13:07:10Z</time>
      </trkpt>
      <trkpt lat="45.2029" lon="2.93268">
        <ele>1001.35</ele>
        <time>2021-08-15T13:07:15Z</time>
      </trkpt>
      <trkpt lat="45.20289" lon="2.93267">
        <ele>1001.83</ele>
        <time>2021-08-15T13:07:16Z</time>
      </trkpt>
      <trkpt lat="45.20288" lon="2.93267">
        <ele>1002.31</ele>
        <time>2021-08-15T13:07:17Z</time>
      </trkpt>
      <trkpt lat="45.20287" lon="2.93267">
        <ele>1002.31</ele>
        <time>2021-08-15T13:07:18Z</time>
      </trkpt>
      <trkpt lat="45.20285" lon="2.93267">
        <ele>1002.31</ele>
        <time>2021-08-15T13:07:19Z</time>
      </trkpt>
      <trkpt lat="45.20275" lon="2.93267">
        <ele>1003.27</ele>
        <time>2021-08-15T13:07:27Z</time>
      </trkpt>
      <trkpt lat="45.20265" lon="2.93264">
        <ele>1004.72</ele>
        <time>2021-08-15T13:07:35Z</time>
      </trkpt>
      <trkpt lat="45.20256" lon="2.93262">
        <ele>1006.16</ele>
        <time>2021-08-15T13:07:44Z</time>
      </trkpt>
      <trkpt lat="45.20244" lon="2.93264">
        <ele>1007.6</ele>
        <time>2021-08-15T13:07:53Z</time>
      </trkpt>
      <trkpt lat="45.20235" lon="2.93264">
        <ele>1008.08</ele>
        <time>2021-08-15T13:08:01Z</time>
      </trkpt>
      <trkpt lat="45.20227" lon="2.93264">
        <ele>1009.04</ele>
        <time>2021-08-15T13:08:07Z</time>
      </trkpt>
      <trkpt lat="45.20226" lon="2.93264">
        <ele>1009.52</ele>
        <time>2021-08-15T13:08:08Z</time>
      </trkpt>
      <trkpt lat="45.20224" lon="2.93264">
        <ele>1009.52</ele>
        <time>2021-08-15T13:08:09Z</time>
      </trkpt>
      <trkpt lat="45.20223" lon="2.93264">
        <ele>1009.52</ele>
        <time>2021-08-15T13:08:10Z</time>
      </trkpt>
      <trkpt lat="45.20214" lon="2.93263">
        <ele>1010.48</ele>
        <time>2021-08-15T13:08:17Z</time>
      </trkpt>
      <trkpt lat="45.20213" lon="2.93263">
        <ele>1010.96</ele>
        <time>2021-08-15T13:08:18Z</time>
      </trkpt>
      <trkpt lat="45.20212" lon="2.93263">
        <ele>1010.96</ele>
        <time>2021-08-15T13:08:19Z</time>
      </trkpt>
      <trkpt lat="45.2021" lon="2.93263">
        <ele>1010.96</ele>
        <time>2021-08-15T13:08:20Z</time>
      </trkpt>
      <trkpt lat="45.20209" lon="2.93262">
        <ele>1011.44</ele>
        <time>2021-08-15T13:08:21Z</time>
      </trkpt>
      <trkpt lat="45.20205" lon="2.93262">
        <ele>1011.93</ele>
        <time>2021-08-15T13:08:24Z</time>
      </trkpt>
      <trkpt lat="45.20203" lon="2.93261">
        <ele>1011.93</ele>
        <time>2021-08-15T13:08:25Z</time>
      </trkpt>
      <trkpt lat="45.20193" lon="2.9326">
        <ele>1012.89</ele>
        <time>2021-08-15T13:08:32Z</time>
      </trkpt>
      <trkpt lat="45.20192" lon="2.9326">
        <ele>1013.37</ele>
        <time>2021-08-15T13:08:33Z</time>
      </trkpt>
      <trkpt lat="45.2019" lon="2.9326">
        <ele>1013.37</ele>
        <time>2021-08-15T13:08:34Z</time>
      </trkpt>
      <trkpt lat="45.20189" lon="2.9326">
        <ele>1013.37</ele>
        <time>2021-08-15T13:08:35Z</time>
      </trkpt>
      <trkpt lat="45.20187" lon="2.93259">
        <ele>1013.37</ele>
        <time>2021-08-15T13:08:36Z</time>
      </trkpt>
      <trkpt lat="45.20186" lon="2.93259">
        <ele>1013.37</ele>
        <time>2021-08-15T13:08:37Z</time>
      </trkpt>
      <trkpt lat="45.20184" lon="2.93258">
        <ele>1013.37</ele>
        <time>2021-08-15T13:08:38Z</time>
      </trkpt>
      <trkpt lat="45.20183" lon="2.93258">
        <ele>1013.37</ele>
        <time>2021-08-15T13:08:39Z</time>
      </trkpt>
      <trkpt lat="45.20181" lon="2.93257">
        <ele>1013.37</ele>
        <time>2021-08-15T13:08:40Z</time>
      </trkpt>
      <trkpt lat="45.20168" lon="2.93254">
        <ele>1014.33</ele>
        <time>2021-08-15T13:08:47Z</time>
      </trkpt>
      <trkpt lat="45.20154" lon="2.93253">
        <ele>1015.77</ele>
        <time>2021-08-15T13:08:55Z</time>
      </trkpt>
      <trkpt lat="45.20148" lon="2.93253">
        <ele>1016.25</ele>
        <time>2021-08-15T13:09:00Z</time>
      </trkpt>
      <trkpt lat="45.20137" lon="2.93252">
        <ele>1017.69</ele>
        <time>2021-08-15T13:09:07Z</time>
      </trkpt>
      <trkpt lat="45.20136" lon="2.93251">
        <ele>1017.69</ele>
        <time>2021-08-15T13:09:08Z</time>
      </trkpt>
      <trkpt lat="45.20132" lon="2.93249">
        <ele>1018.17</ele>
        <time>2021-08-15T13:09:11Z</time>
      </trkpt>
      <trkpt lat="45.20117" lon="2.93243">
        <ele>1019.13</ele>
        <time>2021-08-15T13:09:20Z</time>
      </trkpt>
      <trkpt lat="45.20107" lon="2.9324">
        <ele>1020.58</ele>
        <time>2021-08-15T13:09:27Z</time>
      </trkpt>
      <trkpt lat="45.201" lon="2.93237">
        <ele>1021.06</ele>
        <time>2021-08-15T13:09:32Z</time>
      </trkpt>
      <trkpt lat="45.20099" lon="2.93236">
        <ele>1021.06</ele>
        <time>2021-08-15T13:09:33Z</time>
      </trkpt>
      <trkpt lat="45.20098" lon="2.93235">
        <ele>1021.06</ele>
        <time>2021-08-15T13:09:34Z</time>
      </trkpt>
      <trkpt lat="45.20097" lon="2.93234">
        <ele>1022.02</ele>
        <time>2021-08-15T13:09:35Z</time>
      </trkpt>
      <trkpt lat="45.20095" lon="2.93233">
        <ele>1022.02</ele>
        <time>2021-08-15T13:09:36Z</time>
      </trkpt>
      <trkpt lat="45.20083" lon="2.93226">
        <ele>1022.98</ele>
        <time>2021-08-15T13:09:45Z</time>
      </trkpt>
      <trkpt lat="45.2007" lon="2.93226">
        <ele>1023.94</ele>
        <time>2021-08-15T13:09:54Z</time>
      </trkpt>
      <trkpt lat="45.2006" lon="2.93225">
        <ele>1024.9</ele>
        <time>2021-08-15T13:10:02Z</time>
      </trkpt>
      <trkpt lat="45.20046" lon="2.93222">
        <ele>1025.86</ele>
        <time>2021-08-15T13:10:11Z</time>
      </trkpt>
      <trkpt lat="45.20037" lon="2.9322">
        <ele>1026.34</ele>
        <time>2021-08-15T13:10:17Z</time>
      </trkpt>
      <trkpt lat="45.20027" lon="2.93219">
        <ele>1026.83</ele>
        <time>2021-08-15T13:10:24Z</time>
      </trkpt>
      <trkpt lat="45.20015" lon="2.93221">
        <ele>1028.27</ele>
        <time>2021-08-15T13:10:33Z</time>
      </trkpt>
      <trkpt lat="45.20004" lon="2.93227">
        <ele>1029.23</ele>
        <time>2021-08-15T13:10:41Z</time>
      </trkpt>
      <trkpt lat="45.19997" lon="2.93231">
        <ele>1029.71</ele>
        <time>2021-08-15T13:10:46Z</time>
      </trkpt>
      <trkpt lat="45.19996" lon="2.93232">
        <ele>1030.19</ele>
        <time>2021-08-15T13:10:47Z</time>
      </trkpt>
      <trkpt lat="45.19994" lon="2.93232">
        <ele>1030.19</ele>
        <time>2021-08-15T13:10:48Z</time>
      </trkpt>
      <trkpt lat="45.19993" lon="2.93233">
        <ele>1030.19</ele>
        <time>2021-08-15T13:10:49Z</time>
      </trkpt>
      <trkpt lat="45.19992" lon="2.93234">
        <ele>1030.67</ele>
        <time>2021-08-15T13:10:50Z</time>
      </trkpt>
      <trkpt lat="45.19991" lon="2.93235">
        <ele>1030.67</ele>
        <time>2021-08-15T13:10:51Z</time>
      </trkpt>
      <trkpt lat="45.19979" lon="2.93241">
        <ele>1031.63</ele>
        <time>2021-08-15T13:10:59Z</time>
      </trkpt>
      <trkpt lat="45.19967" lon="2.93244">
        <ele>1033.07</ele>
        <time>2021-08-15T13:11:07Z</time>
      </trkpt>
      <trkpt lat="45.19953" lon="2.93247">
        <ele>1033.55</ele>
        <time>2021-08-15T13:11:15Z</time>
      </trkpt>
      <trkpt lat="45.19942" lon="2.93249">
        <ele>1034.52</ele>
        <time>2021-08-15T13:11:23Z</time>
      </trkpt>
      <trkpt lat="45.19935" lon="2.93251">
        <ele>1035.48</ele>
        <time>2021-08-15T13:11:28Z</time>
      </trkpt>
      <trkpt lat="45.19934" lon="2.93252">
        <ele>1035.96</ele>
        <time>2021-08-15T13:11:29Z</time>
      </trkpt>
      <trkpt lat="45.19922" lon="2.93258">
        <ele>1036.44</ele>
        <time>2021-08-15T13:11:37Z</time>
      </trkpt>
      <trkpt lat="45.19911" lon="2.93265">
        <ele>1037.88</ele>
        <time>2021-08-15T13:11:44Z</time>
      </trkpt>
      <trkpt lat="45.19901" lon="2.93269">
        <ele>1038.84</ele>
        <time>2021-08-15T13:11:51Z</time>
      </trkpt>
      <trkpt lat="45.19892" lon="2.93276">
        <ele>1039.8</ele>
        <time>2021-08-15T13:11:58Z</time>
      </trkpt>
      <trkpt lat="45.19891" lon="2.93276">
        <ele>1039.8</ele>
        <time>2021-08-15T13:11:59Z</time>
      </trkpt>
      <trkpt lat="45.19882" lon="2.9328">
        <ele>1040.28</ele>
        <time>2021-08-15T13:12:06Z</time>
      </trkpt>
      <trkpt lat="45.19875" lon="2.93286">
        <ele>1041.25</ele>
        <time>2021-08-15T13:12:12Z</time>
      </trkpt>
      <trkpt lat="45.19874" lon="2.93287">
        <ele>1041.25</ele>
        <time>2021-08-15T13:12:13Z</time>
      </trkpt>
      <trkpt lat="45.19872" lon="2.93288">
        <ele>1041.73</ele>
        <time>2021-08-15T13:12:14Z</time>
      </trkpt>
      <trkpt lat="45.19871" lon="2.9329">
        <ele>1041.73</ele>
        <time>2021-08-15T13:12:15Z</time>
      </trkpt>
      <trkpt lat="45.19869" lon="2.93291">
        <ele>1041.73</ele>
        <time>2021-08-15T13:12:16Z</time>
      </trkpt>
      <trkpt lat="45.19868" lon="2.93291">
        <ele>1042.21</ele>
        <time>2021-08-15T13:12:17Z</time>
      </trkpt>
      <trkpt lat="45.19866" lon="2.93292">
        <ele>1042.21</ele>
        <time>2021-08-15T13:12:18Z</time>
      </trkpt>
      <trkpt lat="45.19853" lon="2.93296">
        <ele>1043.17</ele>
        <time>2021-08-15T13:12:26Z</time>
      </trkpt>
      <trkpt lat="45.19841" lon="2.93301">
        <ele>1044.61</ele>
        <time>2021-08-15T13:12:34Z</time>
      </trkpt>
      <trkpt lat="45.19824" lon="2.93306">
        <ele>1045.57</ele>
        <time>2021-08-15T13:12:43Z</time>
      </trkpt>
      <trkpt lat="45.19823" lon="2.93306">
        <ele>1045.57</ele>
        <time>2021-08-15T13:12:44Z</time>
      </trkpt>
      <trkpt lat="45.19809" lon="2.93309">
        <ele>1046.53</ele>
        <time>2021-08-15T13:12:51Z</time>
      </trkpt>
      <trkpt lat="45.19789" lon="2.93312">
        <ele>1047.49</ele>
        <time>2021-08-15T13:13:00Z</time>
      </trkpt>
      <trkpt lat="45.19764" lon="2.93307">
        <ele>1048.94</ele>
        <time>2021-08-15T13:13:11Z</time>
      </trkpt>
      <trkpt lat="45.1975" lon="2.93303">
        <ele>1049.9</ele>
        <time>2021-08-15T13:13:18Z</time>
      </trkpt>
      <trkpt lat="45.19736" lon="2.93299">
        <ele>1050.38</ele>
        <time>2021-08-15T13:13:25Z</time>
      </trkpt>
      <trkpt lat="45.19711" lon="2.93288">
        <ele>1050.38</ele>
        <time>2021-08-15T13:13:33Z</time>
      </trkpt>
      <trkpt lat="45.19678" lon="2.93269">
        <ele>1050.38</ele>
        <time>2021-08-15T13:13:42Z</time>
      </trkpt>
      <trkpt lat="45.19663" lon="2.93258">
        <ele>1050.38</ele>
        <time>2021-08-15T13:13:46Z</time>
      </trkpt>
      <trkpt lat="45.19639" lon="2.9324">
        <ele>1050.38</ele>
        <time>2021-08-15T13:13:52Z</time>
      </trkpt>
      <trkpt lat="45.19597" lon="2.9321">
        <ele>1047.97</ele>
        <time>2021-08-15T13:14:02Z</time>
      </trkpt>
      <trkpt lat="45.19571" lon="2.93198">
        <ele>1046.53</ele>
        <time>2021-08-15T13:14:07Z</time>
      </trkpt>
      <trkpt lat="45.19538" lon="2.93175">
        <ele>1046.05</ele>
        <time>2021-08-15T13:14:14Z</time>
      </trkpt>
      <trkpt lat="45.19516" lon="2.93166">
        <ele>1047.49</ele>
        <time>2021-08-15T13:14:21Z</time>
      </trkpt>
      <trkpt lat="45.19496" lon="2.93158">
        <ele>1048.94</ele>
        <time>2021-08-15T13:14:29Z</time>
      </trkpt>
      <trkpt lat="45.19468" lon="2.93151">
        <ele>1049.42</ele>
        <time>2021-08-15T13:14:39Z</time>
      </trkpt>
      <trkpt lat="45.19443" lon="2.93136">
        <ele>1049.42</ele>
        <time>2021-08-15T13:14:47Z</time>
      </trkpt>
      <trkpt lat="45.19415" lon="2.93123">
        <ele>1048.45</ele>
        <time>2021-08-15T13:14:54Z</time>
      </trkpt>
      <trkpt lat="45.19385" lon="2.93106">
        <ele>1047.97</ele>
        <time>2021-08-15T13:15:01Z</time>
      </trkpt>
      <trkpt lat="45.19381" lon="2.93104">
        <ele>1047.49</ele>
        <time>2021-08-15T13:15:02Z</time>
      </trkpt>
      <trkpt lat="45.19376" lon="2.93102">
        <ele>1047.49</ele>
        <time>2021-08-15T13:15:03Z</time>
      </trkpt>
      <trkpt lat="45.19354" lon="2.9309">
        <ele>1047.49</ele>
        <time>2021-08-15T13:15:09Z</time>
      </trkpt>
      <trkpt lat="45.19317" lon="2.93071">
        <ele>1046.05</ele>
        <time>2021-08-15T13:15:17Z</time>
      </trkpt>
      <trkpt lat="45.19269" lon="2.93045">
        <ele>1043.17</ele>
        <time>2021-08-15T13:15:26Z</time>
      </trkpt>
      <trkpt lat="45.19223" lon="2.93024">
        <ele>1041.73</ele>
        <time>2021-08-15T13:15:33Z</time>
      </trkpt>
      <trkpt lat="45.19178" lon="2.93005">
        <ele>1039.8</ele>
        <time>2021-08-15T13:15:40Z</time>
      </trkpt>
      <trkpt lat="45.19162" lon="2.93">
        <ele>1038.84</ele>
        <time>2021-08-15T13:15:42Z</time>
      </trkpt>
      <trkpt lat="45.19154" lon="2.92999">
        <ele>1038.84</ele>
        <time>2021-08-15T13:15:43Z</time>
      </trkpt>
      <trkpt lat="45.19103" lon="2.92992">
        <ele>1037.88</ele>
        <time>2021-08-15T13:15:50Z</time>
      </trkpt>
      <trkpt lat="45.19073" lon="2.92987">
        <ele>1038.36</ele>
        <time>2021-08-15T13:15:55Z</time>
      </trkpt>
      <trkpt lat="45.19068" lon="2.92988">
        <ele>1037.88</ele>
        <time>2021-08-15T13:15:56Z</time>
      </trkpt>
      <trkpt lat="45.19063" lon="2.92991">
        <ele>1039.32</ele>
        <time>2021-08-15T13:15:57Z</time>
      </trkpt>
      <trkpt lat="45.19059" lon="2.92995">
        <ele>1039.32</ele>
        <time>2021-08-15T13:15:58Z</time>
      </trkpt>
      <trkpt lat="45.19055" lon="2.93">
        <ele>1040.28</ele>
        <time>2021-08-15T13:15:59Z</time>
      </trkpt>
      <trkpt lat="45.19053" lon="2.93005">
        <ele>1040.28</ele>
        <time>2021-08-15T13:16:00Z</time>
      </trkpt>
      <trkpt lat="45.19051" lon="2.9301">
        <ele>1040.76</ele>
        <time>2021-08-15T13:16:01Z</time>
      </trkpt>
      <trkpt lat="45.19049" lon="2.93015">
        <ele>1040.76</ele>
        <time>2021-08-15T13:16:02Z</time>
      </trkpt>
      <trkpt lat="45.19041" lon="2.93039">
        <ele>1042.69</ele>
        <time>2021-08-15T13:16:09Z</time>
      </trkpt>
      <trkpt lat="45.19039" lon="2.93043">
        <ele>1043.17</ele>
        <time>2021-08-15T13:16:11Z</time>
      </trkpt>
      <trkpt lat="45.19038" lon="2.93045">
        <ele>1043.17</ele>
        <time>2021-08-15T13:16:12Z</time>
      </trkpt>
      <trkpt lat="45.19027" lon="2.9306">
        <ele>1045.09</ele>
        <time>2021-08-15T13:16:21Z</time>
      </trkpt>
      <trkpt lat="45.19018" lon="2.93059">
        <ele>1046.53</ele>
        <time>2021-08-15T13:16:27Z</time>
      </trkpt>
      <trkpt lat="45.19007" lon="2.93049">
        <ele>1047.49</ele>
        <time>2021-08-15T13:16:35Z</time>
      </trkpt>
      <trkpt lat="45.19005" lon="2.93046">
        <ele>1047.97</ele>
        <time>2021-08-15T13:16:37Z</time>
      </trkpt>
      <trkpt lat="45.19004" lon="2.93044">
        <ele>1047.97</ele>
        <time>2021-08-15T13:16:38Z</time>
      </trkpt>
      <trkpt lat="45.18995" lon="2.93035">
        <ele>1049.42</ele>
        <time>2021-08-15T13:16:45Z</time>
      </trkpt>
      <trkpt lat="45.18994" lon="2.93034">
        <ele>1049.42</ele>
        <time>2021-08-15T13:16:46Z</time>
      </trkpt>
      <trkpt lat="45.1898" lon="2.93028">
        <ele>1050.38</ele>
        <time>2021-08-15T13:16:54Z</time>
      </trkpt>
      <trkpt lat="45.18963" lon="2.93029">
        <ele>1051.82</ele>
        <time>2021-08-15T13:17:04Z</time>
      </trkpt>
      <trkpt lat="45.18947" lon="2.9303">
        <ele>1053.26</ele>
        <time>2021-08-15T13:17:14Z</time>
      </trkpt>
      <trkpt lat="45.1893" lon="2.93033">
        <ele>1055.18</ele>
        <time>2021-08-15T13:17:24Z</time>
      </trkpt>
      <trkpt lat="45.18913" lon="2.93033">
        <ele>1056.63</ele>
        <time>2021-08-15T13:17:34Z</time>
      </trkpt>
      <trkpt lat="45.18899" lon="2.93032">
        <ele>1057.59</ele>
        <time>2021-08-15T13:17:43Z</time>
      </trkpt>
      <trkpt lat="45.1888" lon="2.93028">
        <ele>1059.03</ele>
        <time>2021-08-15T13:17:53Z</time>
      </trkpt>
      <trkpt lat="45.18863" lon="2.93022">
        <ele>1060.47</ele>
        <time>2021-08-15T13:18:02Z</time>
      </trkpt>
      <trkpt lat="45.1884" lon="2.93018">
        <ele>1061.91</ele>
        <time>2021-08-15T13:18:13Z</time>
      </trkpt>
      <trkpt lat="45.18822" lon="2.93014">
        <ele>1063.36</ele>
        <time>2021-08-15T13:18:22Z</time>
      </trkpt>
      <trkpt lat="45.188" lon="2.93008">
        <ele>1064.8</ele>
        <time>2021-08-15T13:18:33Z</time>
      </trkpt>
      <trkpt lat="45.18779" lon="2.93004">
        <ele>1066.24</ele>
        <time>2021-08-15T13:18:43Z</time>
      </trkpt>
      <trkpt lat="45.18759" lon="2.92999">
        <ele>1067.2</ele>
        <time>2021-08-15T13:18:52Z</time>
      </trkpt>
      <trkpt lat="45.18741" lon="2.92996">
        <ele>1068.16</ele>
        <time>2021-08-15T13:19:00Z</time>
      </trkpt>
      <trkpt lat="45.18718" lon="2.92998">
        <ele>1070.08</ele>
        <time>2021-08-15T13:19:10Z</time>
      </trkpt>
      <trkpt lat="45.18699" lon="2.93008">
        <ele>1071.53</ele>
        <time>2021-08-15T13:19:18Z</time>
      </trkpt>
      <trkpt lat="45.18678" lon="2.93025">
        <ele>1072.97</ele>
        <time>2021-08-15T13:19:27Z</time>
      </trkpt>
      <trkpt lat="45.18654" lon="2.93045">
        <ele>1074.89</ele>
        <time>2021-08-15T13:19:37Z</time>
      </trkpt>
      <trkpt lat="45.18628" lon="2.93061">
        <ele>1075.37</ele>
        <time>2021-08-15T13:19:45Z</time>
      </trkpt>
      <trkpt lat="45.18589" lon="2.9307">
        <ele>1075.37</ele>
        <time>2021-08-15T13:19:54Z</time>
      </trkpt>
      <trkpt lat="45.1855" lon="2.93073">
        <ele>1074.41</ele>
        <time>2021-08-15T13:20:01Z</time>
      </trkpt>
      <trkpt lat="45.18481" lon="2.9307">
        <ele>1072.49</ele>
        <time>2021-08-15T13:20:11Z</time>
      </trkpt>
      <trkpt lat="45.18443" lon="2.93073">
        <ele>1072.49</ele>
        <time>2021-08-15T13:20:17Z</time>
      </trkpt>
      <trkpt lat="45.18438" lon="2.9307">
        <ele>1072.49</ele>
        <time>2021-08-15T13:20:18Z</time>
      </trkpt>
      <trkpt lat="45.18435" lon="2.93063">
        <ele>1072.49</ele>
        <time>2021-08-15T13:20:19Z</time>
      </trkpt>
      <trkpt lat="45.18435" lon="2.93057">
        <ele>1072.49</ele>
        <time>2021-08-15T13:20:20Z</time>
      </trkpt>
      <trkpt lat="45.18437" lon="2.93052">
        <ele>1072.49</ele>
        <time>2021-08-15T13:20:21Z</time>
      </trkpt>
      <trkpt lat="45.18439" lon="2.93048">
        <ele>1072.49</ele>
        <time>2021-08-15T13:20:22Z</time>
      </trkpt>
      <trkpt lat="45.18455" lon="2.9302">
        <ele>1073.93</ele>
        <time>2021-08-15T13:20:28Z</time>
      </trkpt>
      <trkpt lat="45.18478" lon="2.92969">
        <ele>1074.89</ele>
        <time>2021-08-15T13:20:39Z</time>
      </trkpt>
      <trkpt lat="45.18495" lon="2.92916">
        <ele>1075.37</ele>
        <time>2021-08-15T13:20:49Z</time>
      </trkpt>
      <trkpt lat="45.18511" lon="2.92867">
        <ele>1075.85</ele>
        <time>2021-08-15T13:20:58Z</time>
      </trkpt>
      <trkpt lat="45.18532" lon="2.92797">
        <ele>1075.85</ele>
        <time>2021-08-15T13:21:10Z</time>
      </trkpt>
      <trkpt lat="45.18539" lon="2.92774">
        <ele>1075.85</ele>
        <time>2021-08-15T13:21:14Z</time>
      </trkpt>
      <trkpt lat="45.1854" lon="2.92768">
        <ele>1076.33</ele>
        <time>2021-08-15T13:21:15Z</time>
      </trkpt>
      <trkpt lat="45.18541" lon="2.92761">
        <ele>1076.33</ele>
        <time>2021-08-15T13:21:16Z</time>
      </trkpt>
      <trkpt lat="45.18552" lon="2.92696">
        <ele>1077.78</ele>
        <time>2021-08-15T13:21:27Z</time>
      </trkpt>
      <trkpt lat="45.18567" lon="2.92634">
        <ele>1078.74</ele>
        <time>2021-08-15T13:21:38Z</time>
      </trkpt>
      <trkpt lat="45.18581" lon="2.92569">
        <ele>1079.7</ele>
        <time>2021-08-15T13:21:49Z</time>
      </trkpt>
      <trkpt lat="45.18581" lon="2.92545">
        <ele>1080.18</ele>
        <time>2021-08-15T13:21:53Z</time>
      </trkpt>
      <trkpt lat="45.1858" lon="2.92539">
        <ele>1080.18</ele>
        <time>2021-08-15T13:21:54Z</time>
      </trkpt>
      <trkpt lat="45.18574" lon="2.92491">
        <ele>1081.62</ele>
        <time>2021-08-15T13:22:03Z</time>
      </trkpt>
      <trkpt lat="45.18569" lon="2.92453">
        <ele>1082.58</ele>
        <time>2021-08-15T13:22:11Z</time>
      </trkpt>
      <trkpt lat="45.18564" lon="2.9242">
        <ele>1083.54</ele>
        <time>2021-08-15T13:22:18Z</time>
      </trkpt>
      <trkpt lat="45.1856" lon="2.92391">
        <ele>1085.95</ele>
        <time>2021-08-15T13:22:26Z</time>
      </trkpt>
      <trkpt lat="45.18557" lon="2.9237">
        <ele>1086.91</ele>
        <time>2021-08-15T13:22:35Z</time>
      </trkpt>
      <trkpt lat="45.18554" lon="2.92356">
        <ele>1088.35</ele>
        <time>2021-08-15T13:22:42Z</time>
      </trkpt>
      <trkpt lat="45.18554" lon="2.92337">
        <ele>1089.79</ele>
        <time>2021-08-15T13:22:52Z</time>
      </trkpt>
      <trkpt lat="45.18551" lon="2.9232">
        <ele>1091.23</ele>
        <time>2021-08-15T13:23:00Z</time>
      </trkpt>
      <trkpt lat="45.18549" lon="2.92299">
        <ele>1092.68</ele>
        <time>2021-08-15T13:23:09Z</time>
      </trkpt>
      <trkpt lat="45.18549" lon="2.92273">
        <ele>1094.12</ele>
        <time>2021-08-15T13:23:18Z</time>
      </trkpt>
      <trkpt lat="45.18552" lon="2.92246">
        <ele>1095.08</ele>
        <time>2021-08-15T13:23:26Z</time>
      </trkpt>
      <trkpt lat="45.18557" lon="2.92218">
        <ele>1095.56</ele>
        <time>2021-08-15T13:23:34Z</time>
      </trkpt>
      <trkpt lat="45.18564" lon="2.92183">
        <ele>1097.48</ele>
        <time>2021-08-15T13:23:44Z</time>
      </trkpt>
      <trkpt lat="45.18567" lon="2.92155">
        <ele>1099.4</ele>
        <time>2021-08-15T13:23:53Z</time>
      </trkpt>
      <trkpt lat="45.18562" lon="2.92139">
        <ele>1100.37</ele>
        <time>2021-08-15T13:24:01Z</time>
      </trkpt>
      <trkpt lat="45.18552" lon="2.92124">
        <ele>1102.29</ele>
        <time>2021-08-15T13:24:12Z</time>
      </trkpt>
      <trkpt lat="45.1854" lon="2.92112">
        <ele>1104.69</ele>
        <time>2021-08-15T13:24:23Z</time>
      </trkpt>
      <trkpt lat="45.18528" lon="2.92107">
        <ele>1105.65</ele>
        <time>2021-08-15T13:24:32Z</time>
      </trkpt>
      <trkpt lat="45.18526" lon="2.92106">
        <ele>1105.65</ele>
        <time>2021-08-15T13:24:33Z</time>
      </trkpt>
      <trkpt lat="45.18514" lon="2.92103">
        <ele>1107.1</ele>
        <time>2021-08-15T13:24:41Z</time>
      </trkpt>
      <trkpt lat="45.18501" lon="2.92104">
        <ele>1108.54</ele>
        <time>2021-08-15T13:24:49Z</time>
      </trkpt>
      <trkpt lat="45.18487" lon="2.92106">
        <ele>1109.5</ele>
        <time>2021-08-15T13:24:57Z</time>
      </trkpt>
      <trkpt lat="45.18481" lon="2.92106">
        <ele>1109.98</ele>
        <time>2021-08-15T13:25:03Z</time>
      </trkpt>
      <trkpt lat="45.1848" lon="2.92107">
        <ele>1109.98</ele>
        <time>2021-08-15T13:25:12Z</time>
      </trkpt>
      <trkpt lat="45.18483" lon="2.92107">
        <ele>1109.98</ele>
        <time>2021-08-15T13:25:24Z</time>
      </trkpt>
      <trkpt lat="45.18481" lon="2.9211">
        <ele>1109.98</ele>
        <time>2021-08-15T13:25:39Z</time>
      </trkpt>
      <trkpt lat="45.18479" lon="2.9211">
        <ele>1110.46</ele>
        <time>2021-08-15T13:25:52Z</time>
      </trkpt>
      <trkpt lat="45.18478" lon="2.9211">
        <ele>1110.46</ele>
        <time>2021-08-15T13:26:10Z</time>
      </trkpt>
      <trkpt lat="45.18478" lon="2.92108">
        <ele>1110.46</ele>
        <time>2021-08-15T13:26:23Z</time>
      </trkpt>
      <trkpt lat="45.18479" lon="2.92104">
        <ele>1110.46</ele>
        <time>2021-08-15T13:26:38Z</time>
      </trkpt>
      <trkpt lat="45.18479" lon="2.92106">
        <ele>1110.46</ele>
        <time>2021-08-15T13:26:50Z</time>
      </trkpt>
      <trkpt lat="45.18478" lon="2.92109">
        <ele>1110.46</ele>
        <time>2021-08-15T13:26:58Z</time>
      </trkpt>
      <trkpt lat="45.18478" lon="2.92109">
        <ele>1110.46</ele>
        <time>2021-08-15T13:27:04Z</time>
      </trkpt>
      <trkpt lat="45.18479" lon="2.92109">
        <ele>1110.46</ele>
        <time>2021-08-15T13:27:16Z</time>
      </trkpt>
      <trkpt lat="45.18481" lon="2.9211">
        <ele>1110.94</ele>
        <time>2021-08-15T13:27:32Z</time>
      </trkpt>
      <trkpt lat="45.18483" lon="2.9211">
        <ele>1110.94</ele>
        <time>2021-08-15T13:27:51Z</time>
      </trkpt>
      <trkpt lat="45.18482" lon="2.92117">
        <ele>1110.94</ele>
        <time>2021-08-15T13:28:10Z</time>
      </trkpt>
      <trkpt lat="45.18482" lon="2.92116">
        <ele>1111.42</ele>
        <time>2021-08-15T13:28:25Z</time>
      </trkpt>
      <trkpt lat="45.18484" lon="2.9212">
        <ele>1111.42</ele>
        <time>2021-08-15T13:28:47Z</time>
      </trkpt>
      <trkpt lat="45.1848" lon="2.92123">
        <ele>1111.9</ele>
        <time>2021-08-15T13:29:07Z</time>
      </trkpt>
      <trkpt lat="45.18483" lon="2.92124">
        <ele>1111.9</ele>
        <time>2021-08-15T13:29:26Z</time>
      </trkpt>
      <trkpt lat="45.18482" lon="2.9212">
        <ele>1112.38</ele>
        <time>2021-08-15T13:29:41Z</time>
      </trkpt>
      <trkpt lat="45.18481" lon="2.9212">
        <ele>1112.38</ele>
        <time>2021-08-15T13:29:54Z</time>
      </trkpt>
      <trkpt lat="45.1848" lon="2.92115">
        <ele>1112.38</ele>
        <time>2021-08-15T13:30:03Z</time>
      </trkpt>
      <trkpt lat="45.18479" lon="2.92109">
        <ele>1112.86</ele>
        <time>2021-08-15T13:30:23Z</time>
      </trkpt>
      <trkpt lat="45.18475" lon="2.92109">
        <ele>1113.34</ele>
        <time>2021-08-15T13:30:31Z</time>
      </trkpt>
      <trkpt lat="45.18472" lon="2.9211">
        <ele>1113.34</ele>
        <time>2021-08-15T13:30:39Z</time>
      </trkpt>
      <trkpt lat="45.1847" lon="2.9211">
        <ele>1113.34</ele>
        <time>2021-08-15T13:30:40Z</time>
      </trkpt>
      <trkpt lat="45.18468" lon="2.9211">
        <ele>1113.82</ele>
        <time>2021-08-15T13:30:41Z</time>
      </trkpt>
      <trkpt lat="45.18466" lon="2.9211">
        <ele>1113.82</ele>
        <time>2021-08-15T13:30:42Z</time>
      </trkpt>
      <trkpt lat="45.18464" lon="2.9211">
        <ele>1113.82</ele>
        <time>2021-08-15T13:30:43Z</time>
      </trkpt>
      <trkpt lat="45.18462" lon="2.9211">
        <ele>1113.82</ele>
        <time>2021-08-15T13:30:44Z</time>
      </trkpt>
      <trkpt lat="45.18451" lon="2.9211">
        <ele>1114.79</ele>
        <time>2021-08-15T13:30:49Z</time>
      </trkpt>
      <trkpt lat="45.18449" lon="2.92108">
        <ele>1114.79</ele>
        <time>2021-08-15T13:30:50Z</time>
      </trkpt>
      <trkpt lat="45.18441" lon="2.921">
        <ele>1116.23</ele>
        <time>2021-08-15T13:30:55Z</time>
      </trkpt>
      <trkpt lat="45.1844" lon="2.92098">
        <ele>1116.23</ele>
        <time>2021-08-15T13:30:56Z</time>
      </trkpt>
      <trkpt lat="45.18437" lon="2.92071">
        <ele>1118.15</ele>
        <time>2021-08-15T13:31:07Z</time>
      </trkpt>
      <trkpt lat="45.18441" lon="2.92046">
        <ele>1119.59</ele>
        <time>2021-08-15T13:31:16Z</time>
      </trkpt>
      <trkpt lat="45.18448" lon="2.92023">
        <ele>1120.55</ele>
        <time>2021-08-15T13:31:25Z</time>
      </trkpt>
      <trkpt lat="45.18447" lon="2.92003">
        <ele>1121.52</ele>
        <time>2021-08-15T13:31:33Z</time>
      </trkpt>
      <trkpt lat="45.18437" lon="2.91987">
        <ele>1122</ele>
        <time>2021-08-15T13:31:41Z</time>
      </trkpt>
      <trkpt lat="45.18422" lon="2.91974">
        <ele>1122.96</ele>
        <time>2021-08-15T13:31:48Z</time>
      </trkpt>
      <trkpt lat="45.18407" lon="2.91965">
        <ele>1122.96</ele>
        <time>2021-08-15T13:31:55Z</time>
      </trkpt>
      <trkpt lat="45.18388" lon="2.91961">
        <ele>1123.44</ele>
        <time>2021-08-15T13:32:02Z</time>
      </trkpt>
      <trkpt lat="45.1837" lon="2.91954">
        <ele>1124.4</ele>
        <time>2021-08-15T13:32:08Z</time>
      </trkpt>
      <trkpt lat="45.18369" lon="2.9195">
        <ele>1124.4</ele>
        <time>2021-08-15T13:32:09Z</time>
      </trkpt>
      <trkpt lat="45.18368" lon="2.91948">
        <ele>1124.88</ele>
        <time>2021-08-15T13:32:10Z</time>
      </trkpt>
      <trkpt lat="45.18367" lon="2.91945">
        <ele>1125.36</ele>
        <time>2021-08-15T13:32:11Z</time>
      </trkpt>
      <trkpt lat="45.18367" lon="2.91942">
        <ele>1125.36</ele>
        <time>2021-08-15T13:32:12Z</time>
      </trkpt>
      <trkpt lat="45.18367" lon="2.91939">
        <ele>1125.36</ele>
        <time>2021-08-15T13:32:13Z</time>
      </trkpt>
      <trkpt lat="45.18367" lon="2.91936">
        <ele>1125.84</ele>
        <time>2021-08-15T13:32:14Z</time>
      </trkpt>
      <trkpt lat="45.18367" lon="2.91933">
        <ele>1125.84</ele>
        <time>2021-08-15T13:32:15Z</time>
      </trkpt>
      <trkpt lat="45.18372" lon="2.91912">
        <ele>1126.8</ele>
        <time>2021-08-15T13:32:22Z</time>
      </trkpt>
      <trkpt lat="45.18378" lon="2.91882">
        <ele>1128.73</ele>
        <time>2021-08-15T13:32:32Z</time>
      </trkpt>
      <trkpt lat="45.18382" lon="2.91859">
        <ele>1129.69</ele>
        <time>2021-08-15T13:32:41Z</time>
      </trkpt>
      <trkpt lat="45.18387" lon="2.91843">
        <ele>1131.13</ele>
        <time>2021-08-15T13:32:49Z</time>
      </trkpt>
      <trkpt lat="45.18393" lon="2.9182">
        <ele>1131.61</ele>
        <time>2021-08-15T13:32:56Z</time>
      </trkpt>
      <trkpt lat="45.18394" lon="2.9179">
        <ele>1132.57</ele>
        <time>2021-08-15T13:33:04Z</time>
      </trkpt>
      <trkpt lat="45.184" lon="2.91758">
        <ele>1133.53</ele>
        <time>2021-08-15T13:33:12Z</time>
      </trkpt>
      <trkpt lat="45.18412" lon="2.91723">
        <ele>1134.49</ele>
        <time>2021-08-15T13:33:21Z</time>
      </trkpt>
      <trkpt lat="45.18416" lon="2.91701">
        <ele>1135.45</ele>
        <time>2021-08-15T13:33:27Z</time>
      </trkpt>
      <trkpt lat="45.18424" lon="2.9168">
        <ele>1136.42</ele>
        <time>2021-08-15T13:33:34Z</time>
      </trkpt>
      <trkpt lat="45.18428" lon="2.91669">
        <ele>1137.38</ele>
        <time>2021-08-15T13:33:39Z</time>
      </trkpt>
      <trkpt lat="45.18429" lon="2.91668">
        <ele>1137.38</ele>
        <time>2021-08-15T13:33:40Z</time>
      </trkpt>
      <trkpt lat="45.18429" lon="2.91666">
        <ele>1137.38</ele>
        <time>2021-08-15T13:33:41Z</time>
      </trkpt>
      <trkpt lat="45.18433" lon="2.91649">
        <ele>1139.78</ele>
        <time>2021-08-15T13:33:49Z</time>
      </trkpt>
      <trkpt lat="45.18434" lon="2.91644">
        <ele>1140.26</ele>
        <time>2021-08-15T13:33:52Z</time>
      </trkpt>
      <trkpt lat="45.18436" lon="2.91629">
        <ele>1141.7</ele>
        <time>2021-08-15T13:34:01Z</time>
      </trkpt>
      <trkpt lat="45.18436" lon="2.91627">
        <ele>1142.18</ele>
        <time>2021-08-15T13:34:02Z</time>
      </trkpt>
      <trkpt lat="45.18436" lon="2.91625">
        <ele>1142.18</ele>
        <time>2021-08-15T13:34:03Z</time>
      </trkpt>
      <trkpt lat="45.18436" lon="2.91622">
        <ele>1142.66</ele>
        <time>2021-08-15T13:34:05Z</time>
      </trkpt>
      <trkpt lat="45.18436" lon="2.91621">
        <ele>1142.66</ele>
        <time>2021-08-15T13:34:06Z</time>
      </trkpt>
      <trkpt lat="45.18439" lon="2.91607">
        <ele>1144.59</ele>
        <time>2021-08-15T13:34:14Z</time>
      </trkpt>
      <trkpt lat="45.18445" lon="2.91596">
        <ele>1145.55</ele>
        <time>2021-08-15T13:34:22Z</time>
      </trkpt>
      <trkpt lat="45.18447" lon="2.91584">
        <ele>1146.51</ele>
        <time>2021-08-15T13:34:29Z</time>
      </trkpt>
      <trkpt lat="45.18449" lon="2.91568">
        <ele>1147.95</ele>
        <time>2021-08-15T13:34:37Z</time>
      </trkpt>
      <trkpt lat="45.18449" lon="2.9155">
        <ele>1149.87</ele>
        <time>2021-08-15T13:34:46Z</time>
      </trkpt>
      <trkpt lat="45.1845" lon="2.91532">
        <ele>1150.35</ele>
        <time>2021-08-15T13:34:54Z</time>
      </trkpt>
      <trkpt lat="45.18453" lon="2.91512">
        <ele>1152.28</ele>
        <time>2021-08-15T13:35:03Z</time>
      </trkpt>
      <trkpt lat="45.18456" lon="2.91489">
        <ele>1153.24</ele>
        <time>2021-08-15T13:35:13Z</time>
      </trkpt>
      <trkpt lat="45.18459" lon="2.91472">
        <ele>1154.2</ele>
        <time>2021-08-15T13:35:20Z</time>
      </trkpt>
      <trkpt lat="45.18462" lon="2.91453">
        <ele>1155.64</ele>
        <time>2021-08-15T13:35:28Z</time>
      </trkpt>
      <trkpt lat="45.18465" lon="2.91435">
        <ele>1156.6</ele>
        <time>2021-08-15T13:35:36Z</time>
      </trkpt>
      <trkpt lat="45.18465" lon="2.91416">
        <ele>1157.56</ele>
        <time>2021-08-15T13:35:43Z</time>
      </trkpt>
      <trkpt lat="45.18464" lon="2.91396">
        <ele>1158.53</ele>
        <time>2021-08-15T13:35:50Z</time>
      </trkpt>
      <trkpt lat="45.18464" lon="2.91367">
        <ele>1159.97</ele>
        <time>2021-08-15T13:35:59Z</time>
      </trkpt>
      <trkpt lat="45.18466" lon="2.91342">
        <ele>1160.93</ele>
        <time>2021-08-15T13:36:06Z</time>
      </trkpt>
      <trkpt lat="45.18464" lon="2.91309">
        <ele>1161.41</ele>
        <time>2021-08-15T13:36:14Z</time>
      </trkpt>
      <trkpt lat="45.18463" lon="2.91274">
        <ele>1162.37</ele>
        <time>2021-08-15T13:36:22Z</time>
      </trkpt>
      <trkpt lat="45.18466" lon="2.91241">
        <ele>1162.85</ele>
        <time>2021-08-15T13:36:29Z</time>
      </trkpt>
      <trkpt lat="45.18469" lon="2.91209">
        <ele>1163.81</ele>
        <time>2021-08-15T13:36:37Z</time>
      </trkpt>
      <trkpt lat="45.1847" lon="2.91184">
        <ele>1164.77</ele>
        <time>2021-08-15T13:36:44Z</time>
      </trkpt>
      <trkpt lat="45.18471" lon="2.91157">
        <ele>1166.7</ele>
        <time>2021-08-15T13:36:51Z</time>
      </trkpt>
      <trkpt lat="45.18472" lon="2.91125">
        <ele>1168.14</ele>
        <time>2021-08-15T13:36:59Z</time>
      </trkpt>
      <trkpt lat="45.18474" lon="2.9109">
        <ele>1168.62</ele>
        <time>2021-08-15T13:37:07Z</time>
      </trkpt>
      <trkpt lat="45.18478" lon="2.91053">
        <ele>1169.1</ele>
        <time>2021-08-15T13:37:15Z</time>
      </trkpt>
      <trkpt lat="45.1848" lon="2.91021">
        <ele>1169.58</ele>
        <time>2021-08-15T13:37:22Z</time>
      </trkpt>
      <trkpt lat="45.18484" lon="2.90979">
        <ele>1169.58</ele>
        <time>2021-08-15T13:37:29Z</time>
      </trkpt>
      <trkpt lat="45.18491" lon="2.90929">
        <ele>1169.58</ele>
        <time>2021-08-15T13:37:37Z</time>
      </trkpt>
      <trkpt lat="45.18492" lon="2.90895">
        <ele>1169.58</ele>
        <time>2021-08-15T13:37:42Z</time>
      </trkpt>
      <trkpt lat="45.18492" lon="2.90888">
        <ele>1169.58</ele>
        <time>2021-08-15T13:37:43Z</time>
      </trkpt>
      <trkpt lat="45.18493" lon="2.90881">
        <ele>1169.58</ele>
        <time>2021-08-15T13:37:44Z</time>
      </trkpt>
      <trkpt lat="45.18493" lon="2.90874">
        <ele>1169.58</ele>
        <time>2021-08-15T13:37:45Z</time>
      </trkpt>
      <trkpt lat="45.18493" lon="2.90866">
        <ele>1169.58</ele>
        <time>2021-08-15T13:37:46Z</time>
      </trkpt>
      <trkpt lat="45.18493" lon="2.90859">
        <ele>1169.58</ele>
        <time>2021-08-15T13:37:47Z</time>
      </trkpt>
      <trkpt lat="45.18493" lon="2.90851">
        <ele>1169.58</ele>
        <time>2021-08-15T13:37:48Z</time>
      </trkpt>
      <trkpt lat="45.18493" lon="2.908">
        <ele>1169.58</ele>
        <time>2021-08-15T13:37:56Z</time>
      </trkpt>
      <trkpt lat="45.18495" lon="2.90755">
        <ele>1170.06</ele>
        <time>2021-08-15T13:38:04Z</time>
      </trkpt>
      <trkpt lat="45.1849" lon="2.90697">
        <ele>1170.06</ele>
        <time>2021-08-15T13:38:13Z</time>
      </trkpt>
      <trkpt lat="45.18488" lon="2.90675">
        <ele>1168.62</ele>
        <time>2021-08-15T13:38:16Z</time>
      </trkpt>
      <trkpt lat="45.18487" lon="2.90669">
        <ele>1168.14</ele>
        <time>2021-08-15T13:38:17Z</time>
      </trkpt>
      <trkpt lat="45.18486" lon="2.90621">
        <ele>1165.26</ele>
        <time>2021-08-15T13:38:23Z</time>
      </trkpt>
      <trkpt lat="45.18487" lon="2.90612">
        <ele>1164.77</ele>
        <time>2021-08-15T13:38:24Z</time>
      </trkpt>
      <trkpt lat="45.1849" lon="2.90594">
        <ele>1164.29</ele>
        <time>2021-08-15T13:38:26Z</time>
      </trkpt>
      <trkpt lat="45.18491" lon="2.90528">
        <ele>1162.37</ele>
        <time>2021-08-15T13:38:33Z</time>
      </trkpt>
      <trkpt lat="45.18489" lon="2.90487">
        <ele>1161.89</ele>
        <time>2021-08-15T13:38:38Z</time>
      </trkpt>
      <trkpt lat="45.18488" lon="2.9048">
        <ele>1161.89</ele>
        <time>2021-08-15T13:38:39Z</time>
      </trkpt>
      <trkpt lat="45.18483" lon="2.90445">
        <ele>1161.41</ele>
        <time>2021-08-15T13:38:44Z</time>
      </trkpt>
      <trkpt lat="45.18483" lon="2.90438">
        <ele>1160.93</ele>
        <time>2021-08-15T13:38:45Z</time>
      </trkpt>
      <trkpt lat="45.18483" lon="2.90431">
        <ele>1160.93</ele>
        <time>2021-08-15T13:38:46Z</time>
      </trkpt>
      <trkpt lat="45.18482" lon="2.90388">
        <ele>1159.49</ele>
        <time>2021-08-15T13:38:52Z</time>
      </trkpt>
      <trkpt lat="45.18482" lon="2.90382">
        <ele>1159.97</ele>
        <time>2021-08-15T13:38:53Z</time>
      </trkpt>
      <trkpt lat="45.18482" lon="2.90373">
        <ele>1159.01</ele>
        <time>2021-08-15T13:38:54Z</time>
      </trkpt>
      <trkpt lat="45.18484" lon="2.90343">
        <ele>1158.05</ele>
        <time>2021-08-15T13:38:58Z</time>
      </trkpt>
      <trkpt lat="45.18488" lon="2.90335">
        <ele>1158.05</ele>
        <time>2021-08-15T13:38:59Z</time>
      </trkpt>
      <trkpt lat="45.1849" lon="2.90328">
        <ele>1157.56</ele>
        <time>2021-08-15T13:39:00Z</time>
      </trkpt>
      <trkpt lat="45.18491" lon="2.90321">
        <ele>1157.56</ele>
        <time>2021-08-15T13:39:01Z</time>
      </trkpt>
      <trkpt lat="45.18493" lon="2.9031">
        <ele>1156.6</ele>
        <time>2021-08-15T13:39:02Z</time>
      </trkpt>
      <trkpt lat="45.18503" lon="2.90255">
        <ele>1153.24</ele>
        <time>2021-08-15T13:39:08Z</time>
      </trkpt>
      <trkpt lat="45.18508" lon="2.90237">
        <ele>1152.76</ele>
        <time>2021-08-15T13:39:10Z</time>
      </trkpt>
      <trkpt lat="45.18519" lon="2.90197">
        <ele>1150.35</ele>
        <time>2021-08-15T13:39:15Z</time>
      </trkpt>
      <trkpt lat="45.1852" lon="2.9019">
        <ele>1150.35</ele>
        <time>2021-08-15T13:39:16Z</time>
      </trkpt>
      <trkpt lat="45.18521" lon="2.90164">
        <ele>1146.51</ele>
        <time>2021-08-15T13:39:21Z</time>
      </trkpt>
      <trkpt lat="45.18521" lon="2.9016">
        <ele>1143.14</ele>
        <time>2021-08-15T13:39:22Z</time>
      </trkpt>
      <trkpt lat="45.18521" lon="2.90156">
        <ele>1148.91</ele>
        <time>2021-08-15T13:39:23Z</time>
      </trkpt>
      <trkpt lat="45.18521" lon="2.90147">
        <ele>1146.03</ele>
        <time>2021-08-15T13:39:29Z</time>
      </trkpt>
      <trkpt lat="45.18521" lon="2.90146">
        <ele>1150.84</ele>
        <time>2021-08-15T13:39:30Z</time>
      </trkpt>
      <trkpt lat="45.1852" lon="2.90147">
        <ele>1147.95</ele>
        <time>2021-08-15T13:39:40Z</time>
      </trkpt>
      <trkpt lat="45.18519" lon="2.9014">
        <ele>1148.43</ele>
        <time>2021-08-15T13:40:00Z</time>
      </trkpt>
      <trkpt lat="45.18526" lon="2.90117">
        <ele>1147.47</ele>
        <time>2021-08-15T13:40:05Z</time>
      </trkpt>
      <trkpt lat="45.18532" lon="2.90072">
        <ele>1147.47</ele>
        <time>2021-08-15T13:40:13Z</time>
      </trkpt>
      <trkpt lat="45.18536" lon="2.90038">
        <ele>1147.47</ele>
        <time>2021-08-15T13:40:20Z</time>
      </trkpt>
      <trkpt lat="45.18538" lon="2.90014">
        <ele>1148.91</ele>
        <time>2021-08-15T13:40:25Z</time>
      </trkpt>
      <trkpt lat="45.18543" lon="2.89982">
        <ele>1150.35</ele>
        <time>2021-08-15T13:40:33Z</time>
      </trkpt>
      <trkpt lat="45.18552" lon="2.89941">
        <ele>1150.35</ele>
        <time>2021-08-15T13:40:41Z</time>
      </trkpt>
      <trkpt lat="45.18554" lon="2.89935">
        <ele>1150.35</ele>
        <time>2021-08-15T13:40:42Z</time>
      </trkpt>
      <trkpt lat="45.18566" lon="2.89883">
        <ele>1151.32</ele>
        <time>2021-08-15T13:40:52Z</time>
      </trkpt>
      <trkpt lat="45.18576" lon="2.89839">
        <ele>1151.8</ele>
        <time>2021-08-15T13:41:01Z</time>
      </trkpt>
      <trkpt lat="45.18588" lon="2.89801">
        <ele>1152.28</ele>
        <time>2021-08-15T13:41:09Z</time>
      </trkpt>
      <trkpt lat="45.18592" lon="2.89755">
        <ele>1152.28</ele>
        <time>2021-08-15T13:41:17Z</time>
      </trkpt>
      <trkpt lat="45.18595" lon="2.89738">
        <ele>1152.28</ele>
        <time>2021-08-15T13:41:20Z</time>
      </trkpt>
      <trkpt lat="45.18597" lon="2.89733">
        <ele>1152.28</ele>
        <time>2021-08-15T13:41:21Z</time>
      </trkpt>
      <trkpt lat="45.18597" lon="2.89727">
        <ele>1152.28</ele>
        <time>2021-08-15T13:41:22Z</time>
      </trkpt>
      <trkpt lat="45.18598" lon="2.89722">
        <ele>1152.28</ele>
        <time>2021-08-15T13:41:23Z</time>
      </trkpt>
      <trkpt lat="45.18597" lon="2.89716">
        <ele>1152.28</ele>
        <time>2021-08-15T13:41:24Z</time>
      </trkpt>
      <trkpt lat="45.18597" lon="2.8971">
        <ele>1152.28</ele>
        <time>2021-08-15T13:41:25Z</time>
      </trkpt>
      <trkpt lat="45.18597" lon="2.8969">
        <ele>1152.28</ele>
        <time>2021-08-15T13:41:28Z</time>
      </trkpt>
      <trkpt lat="45.18598" lon="2.89684">
        <ele>1150.84</ele>
        <time>2021-08-15T13:41:29Z</time>
      </trkpt>
      <trkpt lat="45.18599" lon="2.89677">
        <ele>1150.84</ele>
        <time>2021-08-15T13:41:30Z</time>
      </trkpt>
      <trkpt lat="45.18601" lon="2.89671">
        <ele>1150.84</ele>
        <time>2021-08-15T13:41:31Z</time>
      </trkpt>
      <trkpt lat="45.18603" lon="2.89665">
        <ele>1150.35</ele>
        <time>2021-08-15T13:41:32Z</time>
      </trkpt>
      <trkpt lat="45.18608" lon="2.89651">
        <ele>1149.39</ele>
        <time>2021-08-15T13:41:34Z</time>
      </trkpt>
      <trkpt lat="45.18609" lon="2.89644">
        <ele>1149.39</ele>
        <time>2021-08-15T13:41:35Z</time>
      </trkpt>
      <trkpt lat="45.1861" lon="2.89636">
        <ele>1149.39</ele>
        <time>2021-08-15T13:41:36Z</time>
      </trkpt>
      <trkpt lat="45.18612" lon="2.89629">
        <ele>1149.39</ele>
        <time>2021-08-15T13:41:37Z</time>
      </trkpt>
      <trkpt lat="45.18613" lon="2.89622">
        <ele>1149.39</ele>
        <time>2021-08-15T13:41:38Z</time>
      </trkpt>
      <trkpt lat="45.18615" lon="2.89614">
        <ele>1149.39</ele>
        <time>2021-08-15T13:41:39Z</time>
      </trkpt>
      <trkpt lat="45.18617" lon="2.89608">
        <ele>1149.39</ele>
        <time>2021-08-15T13:41:40Z</time>
      </trkpt>
      <trkpt lat="45.18622" lon="2.89596">
        <ele>1148.91</ele>
        <time>2021-08-15T13:41:42Z</time>
      </trkpt>
      <trkpt lat="45.18626" lon="2.8959">
        <ele>1148.91</ele>
        <time>2021-08-15T13:41:43Z</time>
      </trkpt>
      <trkpt lat="45.18628" lon="2.89583">
        <ele>1148.91</ele>
        <time>2021-08-15T13:41:44Z</time>
      </trkpt>
      <trkpt lat="45.18634" lon="2.89549">
        <ele>1147.95</ele>
        <time>2021-08-15T13:41:50Z</time>
      </trkpt>
      <trkpt lat="45.18639" lon="2.89524">
        <ele>1147.95</ele>
        <time>2021-08-15T13:41:55Z</time>
      </trkpt>
      <trkpt lat="45.1864" lon="2.89517">
        <ele>1147.95</ele>
        <time>2021-08-15T13:41:56Z</time>
      </trkpt>
      <trkpt lat="45.18642" lon="2.8951">
        <ele>1147.95</ele>
        <time>2021-08-15T13:41:57Z</time>
      </trkpt>
      <trkpt lat="45.18648" lon="2.89472">
        <ele>1147.47</ele>
        <time>2021-08-15T13:42:03Z</time>
      </trkpt>
      <trkpt lat="45.18649" lon="2.89466">
        <ele>1147.47</ele>
        <time>2021-08-15T13:42:04Z</time>
      </trkpt>
      <trkpt lat="45.18649" lon="2.89459">
        <ele>1147.47</ele>
        <time>2021-08-15T13:42:05Z</time>
      </trkpt>
      <trkpt lat="45.18649" lon="2.89451">
        <ele>1147.47</ele>
        <time>2021-08-15T13:42:06Z</time>
      </trkpt>
      <trkpt lat="45.18649" lon="2.89445">
        <ele>1147.47</ele>
        <time>2021-08-15T13:42:07Z</time>
      </trkpt>
      <trkpt lat="45.18648" lon="2.89395">
        <ele>1147.47</ele>
        <time>2021-08-15T13:42:15Z</time>
      </trkpt>
      <trkpt lat="45.18648" lon="2.89384">
        <ele>1147.47</ele>
        <time>2021-08-15T13:42:17Z</time>
      </trkpt>
      <trkpt lat="45.18649" lon="2.89378">
        <ele>1147.47</ele>
        <time>2021-08-15T13:42:18Z</time>
      </trkpt>
      <trkpt lat="45.18649" lon="2.89372">
        <ele>1147.47</ele>
        <time>2021-08-15T13:42:19Z</time>
      </trkpt>
      <trkpt lat="45.1865" lon="2.89312">
        <ele>1147.47</ele>
        <time>2021-08-15T13:42:28Z</time>
      </trkpt>
      <trkpt lat="45.1865" lon="2.89286">
        <ele>1148.43</ele>
        <time>2021-08-15T13:42:32Z</time>
      </trkpt>
      <trkpt lat="45.1865" lon="2.8928">
        <ele>1148.43</ele>
        <time>2021-08-15T13:42:33Z</time>
      </trkpt>
      <trkpt lat="45.18652" lon="2.89223">
        <ele>1149.39</ele>
        <time>2021-08-15T13:42:42Z</time>
      </trkpt>
      <trkpt lat="45.18658" lon="2.89181">
        <ele>1149.39</ele>
        <time>2021-08-15T13:42:49Z</time>
      </trkpt>
      <trkpt lat="45.18657" lon="2.89144">
        <ele>1149.87</ele>
        <time>2021-08-15T13:42:56Z</time>
      </trkpt>
      <trkpt lat="45.18658" lon="2.89114">
        <ele>1150.35</ele>
        <time>2021-08-15T13:43:02Z</time>
      </trkpt>
      <trkpt lat="45.18659" lon="2.8908">
        <ele>1150.84</ele>
        <time>2021-08-15T13:43:09Z</time>
      </trkpt>
      <trkpt lat="45.18656" lon="2.89049">
        <ele>1151.32</ele>
        <time>2021-08-15T13:43:15Z</time>
      </trkpt>
      <trkpt lat="45.18659" lon="2.89018">
        <ele>1152.28</ele>
        <time>2021-08-15T13:43:22Z</time>
      </trkpt>
      <trkpt lat="45.18661" lon="2.88989">
        <ele>1153.72</ele>
        <time>2021-08-15T13:43:31Z</time>
      </trkpt>
      <trkpt lat="45.1866" lon="2.88958">
        <ele>1154.68</ele>
        <time>2021-08-15T13:43:40Z</time>
      </trkpt>
      <trkpt lat="45.18658" lon="2.88935">
        <ele>1155.16</ele>
        <time>2021-08-15T13:43:48Z</time>
      </trkpt>
      <trkpt lat="45.18656" lon="2.88913">
        <ele>1155.64</ele>
        <time>2021-08-15T13:43:55Z</time>
      </trkpt>
      <trkpt lat="45.18654" lon="2.88892">
        <ele>1156.12</ele>
        <time>2021-08-15T13:44:01Z</time>
      </trkpt>
      <trkpt lat="45.18655" lon="2.88861">
        <ele>1156.12</ele>
        <time>2021-08-15T13:44:09Z</time>
      </trkpt>
      <trkpt lat="45.18656" lon="2.88854">
        <ele>1156.6</ele>
        <time>2021-08-15T13:44:14Z</time>
      </trkpt>
      <trkpt lat="45.18655" lon="2.8885">
        <ele>1156.6</ele>
        <time>2021-08-15T13:44:18Z</time>
      </trkpt>
      <trkpt lat="45.1865" lon="2.88834">
        <ele>1156.6</ele>
        <time>2021-08-15T13:44:24Z</time>
      </trkpt>
      <trkpt lat="45.18644" lon="2.88806">
        <ele>1157.56</ele>
        <time>2021-08-15T13:44:31Z</time>
      </trkpt>
      <trkpt lat="45.18642" lon="2.8879">
        <ele>1158.05</ele>
        <time>2021-08-15T13:44:37Z</time>
      </trkpt>
      <trkpt lat="45.18642" lon="2.88788">
        <ele>1158.05</ele>
        <time>2021-08-15T13:44:44Z</time>
      </trkpt>
      <trkpt lat="45.18643" lon="2.88785">
        <ele>1158.05</ele>
        <time>2021-08-15T13:44:47Z</time>
      </trkpt>
      <trkpt lat="45.18643" lon="2.88783">
        <ele>1158.05</ele>
        <time>2021-08-15T13:44:48Z</time>
      </trkpt>
      <trkpt lat="45.18644" lon="2.8878">
        <ele>1158.05</ele>
        <time>2021-08-15T13:44:49Z</time>
      </trkpt>
      <trkpt lat="45.18644" lon="2.88777">
        <ele>1158.05</ele>
        <time>2021-08-15T13:44:50Z</time>
      </trkpt>
      <trkpt lat="45.18645" lon="2.88774">
        <ele>1158.05</ele>
        <time>2021-08-15T13:44:51Z</time>
      </trkpt>
      <trkpt lat="45.18645" lon="2.8877">
        <ele>1158.05</ele>
        <time>2021-08-15T13:44:52Z</time>
      </trkpt>
      <trkpt lat="45.18645" lon="2.88765">
        <ele>1158.05</ele>
        <time>2021-08-15T13:44:53Z</time>
      </trkpt>
      <trkpt lat="45.18646" lon="2.88761">
        <ele>1158.05</ele>
        <time>2021-08-15T13:44:54Z</time>
      </trkpt>
      <trkpt lat="45.18646" lon="2.88757">
        <ele>1158.05</ele>
        <time>2021-08-15T13:44:55Z</time>
      </trkpt>
      <trkpt lat="45.18647" lon="2.88753">
        <ele>1158.05</ele>
        <time>2021-08-15T13:44:56Z</time>
      </trkpt>
      <trkpt lat="45.18647" lon="2.88725">
        <ele>1158.05</ele>
        <time>2021-08-15T13:45:03Z</time>
      </trkpt>
      <trkpt lat="45.18648" lon="2.88693">
        <ele>1158.05</ele>
        <time>2021-08-15T13:45:10Z</time>
      </trkpt>
      <trkpt lat="45.18648" lon="2.8867">
        <ele>1158.05</ele>
        <time>2021-08-15T13:45:14Z</time>
      </trkpt>
      <trkpt lat="45.18648" lon="2.88622">
        <ele>1156.6</ele>
        <time>2021-08-15T13:45:21Z</time>
      </trkpt>
      <trkpt lat="45.18649" lon="2.88614">
        <ele>1156.6</ele>
        <time>2021-08-15T13:45:22Z</time>
      </trkpt>
      <trkpt lat="45.18651" lon="2.88554">
        <ele>1155.16</ele>
        <time>2021-08-15T13:45:30Z</time>
      </trkpt>
      <trkpt lat="45.18649" lon="2.88487">
        <ele>1152.76</ele>
        <time>2021-08-15T13:45:39Z</time>
      </trkpt>
      <trkpt lat="45.18651" lon="2.88457">
        <ele>1150.84</ele>
        <time>2021-08-15T13:45:43Z</time>
      </trkpt>
      <trkpt lat="45.18651" lon="2.8845">
        <ele>1150.84</ele>
        <time>2021-08-15T13:45:44Z</time>
      </trkpt>
      <trkpt lat="45.18652" lon="2.88444">
        <ele>1150.84</ele>
        <time>2021-08-15T13:45:45Z</time>
      </trkpt>
      <trkpt lat="45.18652" lon="2.88439">
        <ele>1150.84</ele>
        <time>2021-08-15T13:45:46Z</time>
      </trkpt>
      <trkpt lat="45.18653" lon="2.88436">
        <ele>1150.84</ele>
        <time>2021-08-15T13:45:47Z</time>
      </trkpt>
      <trkpt lat="45.18656" lon="2.88434">
        <ele>1150.84</ele>
        <time>2021-08-15T13:45:48Z</time>
      </trkpt>
      <trkpt lat="45.18659" lon="2.88434">
        <ele>1150.84</ele>
        <time>2021-08-15T13:45:49Z</time>
      </trkpt>
      <trkpt lat="45.18661" lon="2.88434">
        <ele>1150.84</ele>
        <time>2021-08-15T13:45:50Z</time>
      </trkpt>
      <trkpt lat="45.18692" lon="2.88434">
        <ele>1151.32</ele>
        <time>2021-08-15T13:45:58Z</time>
      </trkpt>
      <trkpt lat="45.18711" lon="2.88434">
        <ele>1152.28</ele>
        <time>2021-08-15T13:46:03Z</time>
      </trkpt>
      <trkpt lat="45.18732" lon="2.88435">
        <ele>1153.24</ele>
        <time>2021-08-15T13:46:11Z</time>
      </trkpt>
      <trkpt lat="45.18737" lon="2.88433">
        <ele>1153.72</ele>
        <time>2021-08-15T13:46:15Z</time>
      </trkpt>
      <trkpt lat="45.18737" lon="2.88431">
        <ele>1153.72</ele>
        <time>2021-08-15T13:46:16Z</time>
      </trkpt>
      <trkpt lat="45.18738" lon="2.88428">
        <ele>1153.72</ele>
        <time>2021-08-15T13:46:17Z</time>
      </trkpt>
      <trkpt lat="45.1874" lon="2.88426">
        <ele>1153.72</ele>
        <time>2021-08-15T13:46:18Z</time>
      </trkpt>
      <trkpt lat="45.18743" lon="2.88424">
        <ele>1153.72</ele>
        <time>2021-08-15T13:46:19Z</time>
      </trkpt>
      <trkpt lat="45.18745" lon="2.88422">
        <ele>1153.72</ele>
        <time>2021-08-15T13:46:20Z</time>
      </trkpt>
      <trkpt lat="45.18746" lon="2.88419">
        <ele>1154.2</ele>
        <time>2021-08-15T13:46:21Z</time>
      </trkpt>
      <trkpt lat="45.18747" lon="2.88416">
        <ele>1154.2</ele>
        <time>2021-08-15T13:46:22Z</time>
      </trkpt>
      <trkpt lat="45.18751" lon="2.88391">
        <ele>1154.68</ele>
        <time>2021-08-15T13:46:30Z</time>
      </trkpt>
      <trkpt lat="45.18751" lon="2.88388">
        <ele>1154.68</ele>
        <time>2021-08-15T13:46:38Z</time>
      </trkpt>
      <trkpt lat="45.18753" lon="2.88365">
        <ele>1154.68</ele>
        <time>2021-08-15T13:46:44Z</time>
      </trkpt>
      <trkpt lat="45.18757" lon="2.88324">
        <ele>1155.16</ele>
        <time>2021-08-15T13:46:53Z</time>
      </trkpt>
      <trkpt lat="45.18762" lon="2.88283">
        <ele>1155.16</ele>
        <time>2021-08-15T13:47:01Z</time>
      </trkpt>
      <trkpt lat="45.18763" lon="2.88251">
        <ele>1154.2</ele>
        <time>2021-08-15T13:47:06Z</time>
      </trkpt>
      <trkpt lat="45.18764" lon="2.88243">
        <ele>1154.2</ele>
        <time>2021-08-15T13:47:07Z</time>
      </trkpt>
      <trkpt lat="45.18765" lon="2.88237">
        <ele>1154.2</ele>
        <time>2021-08-15T13:47:08Z</time>
      </trkpt>
      <trkpt lat="45.18765" lon="2.88231">
        <ele>1154.2</ele>
        <time>2021-08-15T13:47:09Z</time>
      </trkpt>
      <trkpt lat="45.18766" lon="2.88226">
        <ele>1154.2</ele>
        <time>2021-08-15T13:47:10Z</time>
      </trkpt>
      <trkpt lat="45.18766" lon="2.8822">
        <ele>1154.2</ele>
        <time>2021-08-15T13:47:11Z</time>
      </trkpt>
      <trkpt lat="45.18768" lon="2.88201">
        <ele>1155.16</ele>
        <time>2021-08-15T13:47:15Z</time>
      </trkpt>
      <trkpt lat="45.1877" lon="2.88165">
        <ele>1156.12</ele>
        <time>2021-08-15T13:47:23Z</time>
      </trkpt>
      <trkpt lat="45.18773" lon="2.88136">
        <ele>1156.12</ele>
        <time>2021-08-15T13:47:29Z</time>
      </trkpt>
      <trkpt lat="45.18776" lon="2.881">
        <ele>1156.6</ele>
        <time>2021-08-15T13:47:36Z</time>
      </trkpt>
      <trkpt lat="45.18776" lon="2.88084">
        <ele>1156.6</ele>
        <time>2021-08-15T13:47:42Z</time>
      </trkpt>
      <trkpt lat="45.18776" lon="2.88081">
        <ele>1156.6</ele>
        <time>2021-08-15T13:47:48Z</time>
      </trkpt>
      <trkpt lat="45.18773" lon="2.88068">
        <ele>1155.16</ele>
        <time>2021-08-15T13:47:54Z</time>
      </trkpt>
      <trkpt lat="45.1877" lon="2.88049">
        <ele>1154.68</ele>
        <time>2021-08-15T13:47:59Z</time>
      </trkpt>
      <trkpt lat="45.1877" lon="2.88047">
        <ele>1154.68</ele>
        <time>2021-08-15T13:48:00Z</time>
      </trkpt>
      <trkpt lat="45.18769" lon="2.88046">
        <ele>1154.68</ele>
        <time>2021-08-15T13:48:01Z</time>
      </trkpt>
      <trkpt lat="45.18767" lon="2.88045">
        <ele>1154.68</ele>
        <time>2021-08-15T13:48:03Z</time>
      </trkpt>
      <trkpt lat="45.18767" lon="2.88046">
        <ele>1153.24</ele>
        <time>2021-08-15T13:48:08Z</time>
      </trkpt>
      <trkpt lat="45.18768" lon="2.88046">
        <ele>1153.24</ele>
        <time>2021-08-15T13:48:10Z</time>
      </trkpt>
      <trkpt lat="45.18768" lon="2.88042">
        <ele>1153.24</ele>
        <time>2021-08-15T13:48:12Z</time>
      </trkpt>
      <trkpt lat="45.18766" lon="2.88034">
        <ele>1153.24</ele>
        <time>2021-08-15T13:48:19Z</time>
      </trkpt>
      <trkpt lat="45.18764" lon="2.88029">
        <ele>1153.24</ele>
        <time>2021-08-15T13:48:26Z</time>
      </trkpt>
      <trkpt lat="45.18762" lon="2.88021">
        <ele>1152.76</ele>
        <time>2021-08-15T13:48:28Z</time>
      </trkpt>
      <trkpt lat="45.18763" lon="2.88016">
        <ele>1152.76</ele>
        <time>2021-08-15T13:48:29Z</time>
      </trkpt>
      <trkpt lat="45.18764" lon="2.88013">
        <ele>1152.76</ele>
        <time>2021-08-15T13:48:30Z</time>
      </trkpt>
      <trkpt lat="45.18765" lon="2.8801">
        <ele>1152.76</ele>
        <time>2021-08-15T13:48:31Z</time>
      </trkpt>
      <trkpt lat="45.18766" lon="2.88005">
        <ele>1152.76</ele>
        <time>2021-08-15T13:48:32Z</time>
      </trkpt>
      <trkpt lat="45.18767" lon="2.88001">
        <ele>1152.76</ele>
        <time>2021-08-15T13:48:33Z</time>
      </trkpt>
      <trkpt lat="45.18768" lon="2.87993">
        <ele>1154.2</ele>
        <time>2021-08-15T13:48:35Z</time>
      </trkpt>
      <trkpt lat="45.18776" lon="2.87957">
        <ele>1154.68</ele>
        <time>2021-08-15T13:48:44Z</time>
      </trkpt>
      <trkpt lat="45.18779" lon="2.87931">
        <ele>1156.12</ele>
        <time>2021-08-15T13:48:52Z</time>
      </trkpt>
      <trkpt lat="45.18782" lon="2.87911">
        <ele>1157.08</ele>
        <time>2021-08-15T13:49:00Z</time>
      </trkpt>
      <trkpt lat="45.18785" lon="2.87897">
        <ele>1158.53</ele>
        <time>2021-08-15T13:49:06Z</time>
      </trkpt>
      <trkpt lat="45.18787" lon="2.8788">
        <ele>1159.49</ele>
        <time>2021-08-15T13:49:13Z</time>
      </trkpt>
      <trkpt lat="45.18793" lon="2.8786">
        <ele>1159.97</ele>
        <time>2021-08-15T13:49:21Z</time>
      </trkpt>
      <trkpt lat="45.188" lon="2.87831">
        <ele>1160.45</ele>
        <time>2021-08-15T13:49:30Z</time>
      </trkpt>
      <trkpt lat="45.18806" lon="2.87806">
        <ele>1161.89</ele>
        <time>2021-08-15T13:49:38Z</time>
      </trkpt>
      <trkpt lat="45.1881" lon="2.87782">
        <ele>1162.85</ele>
        <time>2021-08-15T13:49:46Z</time>
      </trkpt>
      <trkpt lat="45.18811" lon="2.8776">
        <ele>1163.81</ele>
        <time>2021-08-15T13:49:52Z</time>
      </trkpt>
      <trkpt lat="45.18814" lon="2.87725">
        <ele>1164.29</ele>
        <time>2021-08-15T13:50:00Z</time>
      </trkpt>
      <trkpt lat="45.18819" lon="2.87695">
        <ele>1164.77</ele>
        <time>2021-08-15T13:50:07Z</time>
      </trkpt>
      <trkpt lat="45.18823" lon="2.87665">
        <ele>1165.74</ele>
        <time>2021-08-15T13:50:14Z</time>
      </trkpt>
      <trkpt lat="45.18826" lon="2.87635">
        <ele>1166.22</ele>
        <time>2021-08-15T13:50:21Z</time>
      </trkpt>
      <trkpt lat="45.18832" lon="2.87587">
        <ele>1166.22</ele>
        <time>2021-08-15T13:50:30Z</time>
      </trkpt>
      <trkpt lat="45.18836" lon="2.87541">
        <ele>1166.22</ele>
        <time>2021-08-15T13:50:39Z</time>
      </trkpt>
      <trkpt lat="45.1884" lon="2.87502">
        <ele>1166.7</ele>
        <time>2021-08-15T13:50:47Z</time>
      </trkpt>
      <trkpt lat="45.18844" lon="2.87468">
        <ele>1167.18</ele>
        <time>2021-08-15T13:50:54Z</time>
      </trkpt>
      <trkpt lat="45.18846" lon="2.87438">
        <ele>1167.18</ele>
        <time>2021-08-15T13:50:59Z</time>
      </trkpt>
      <trkpt lat="45.18846" lon="2.87432">
        <ele>1167.18</ele>
        <time>2021-08-15T13:51:00Z</time>
      </trkpt>
      <trkpt lat="45.18846" lon="2.87425">
        <ele>1167.18</ele>
        <time>2021-08-15T13:51:01Z</time>
      </trkpt>
      <trkpt lat="45.18846" lon="2.87418">
        <ele>1167.18</ele>
        <time>2021-08-15T13:51:02Z</time>
      </trkpt>
      <trkpt lat="45.18846" lon="2.87411">
        <ele>1167.18</ele>
        <time>2021-08-15T13:51:03Z</time>
      </trkpt>
      <trkpt lat="45.18846" lon="2.87383">
        <ele>1165.74</ele>
        <time>2021-08-15T13:51:07Z</time>
      </trkpt>
      <trkpt lat="45.18847" lon="2.8737">
        <ele>1165.74</ele>
        <time>2021-08-15T13:51:09Z</time>
      </trkpt>
      <trkpt lat="45.18848" lon="2.87358">
        <ele>1166.22</ele>
        <time>2021-08-15T13:51:11Z</time>
      </trkpt>
      <trkpt lat="45.18852" lon="2.87303">
        <ele>1165.74</ele>
        <time>2021-08-15T13:51:19Z</time>
      </trkpt>
      <trkpt lat="45.18857" lon="2.87245">
        <ele>1166.22</ele>
        <time>2021-08-15T13:51:28Z</time>
      </trkpt>
      <trkpt lat="45.18857" lon="2.872">
        <ele>1168.62</ele>
        <time>2021-08-15T13:51:36Z</time>
      </trkpt>
      <trkpt lat="45.18857" lon="2.87172">
        <ele>1170.06</ele>
        <time>2021-08-15T13:51:43Z</time>
      </trkpt>
      <trkpt lat="45.18861" lon="2.87128">
        <ele>1170.54</ele>
        <time>2021-08-15T13:51:53Z</time>
      </trkpt>
      <trkpt lat="45.18864" lon="2.87097">
        <ele>1171.02</ele>
        <time>2021-08-15T13:52:00Z</time>
      </trkpt>
      <trkpt lat="45.18864" lon="2.87069">
        <ele>1171.5</ele>
        <time>2021-08-15T13:52:06Z</time>
      </trkpt>
      <trkpt lat="45.18864" lon="2.87031">
        <ele>1172.47</ele>
        <time>2021-08-15T13:52:13Z</time>
      </trkpt>
      <trkpt lat="45.18867" lon="2.86997">
        <ele>1172.95</ele>
        <time>2021-08-15T13:52:21Z</time>
      </trkpt>
      <trkpt lat="45.18866" lon="2.86969">
        <ele>1172.95</ele>
        <time>2021-08-15T13:52:27Z</time>
      </trkpt>
      <trkpt lat="45.18864" lon="2.86934">
        <ele>1173.91</ele>
        <time>2021-08-15T13:52:35Z</time>
      </trkpt>
      <trkpt lat="45.18858" lon="2.86904">
        <ele>1174.39</ele>
        <time>2021-08-15T13:52:43Z</time>
      </trkpt>
      <trkpt lat="45.18847" lon="2.86884">
        <ele>1176.31</ele>
        <time>2021-08-15T13:52:51Z</time>
      </trkpt>
      <trkpt lat="45.18836" lon="2.86859">
        <ele>1176.79</ele>
        <time>2021-08-15T13:52:58Z</time>
      </trkpt>
      <trkpt lat="45.1883" lon="2.86823">
        <ele>1175.35</ele>
        <time>2021-08-15T13:53:04Z</time>
      </trkpt>
      <trkpt lat="45.18829" lon="2.86778">
        <ele>1176.79</ele>
        <time>2021-08-15T13:53:11Z</time>
      </trkpt>
      <trkpt lat="45.1883" lon="2.86739">
        <ele>1173.91</ele>
        <time>2021-08-15T13:53:16Z</time>
      </trkpt>
      <trkpt lat="45.18831" lon="2.86687">
        <ele>1172.95</ele>
        <time>2021-08-15T13:53:22Z</time>
      </trkpt>
      <trkpt lat="45.1883" lon="2.86654">
        <ele>1174.87</ele>
        <time>2021-08-15T13:53:27Z</time>
      </trkpt>
      <trkpt lat="45.18827" lon="2.86631">
        <ele>1175.83</ele>
        <time>2021-08-15T13:53:33Z</time>
      </trkpt>
      <trkpt lat="45.18828" lon="2.86614">
        <ele>1176.79</ele>
        <time>2021-08-15T13:53:38Z</time>
      </trkpt>
      <trkpt lat="45.18831" lon="2.86598">
        <ele>1174.87</ele>
        <time>2021-08-15T13:53:41Z</time>
      </trkpt>
      <trkpt lat="45.18837" lon="2.86556">
        <ele>1173.91</ele>
        <time>2021-08-15T13:53:50Z</time>
      </trkpt>
      <trkpt lat="45.18836" lon="2.8654">
        <ele>1173.91</ele>
        <time>2021-08-15T13:53:53Z</time>
      </trkpt>
      <trkpt lat="45.18834" lon="2.86528">
        <ele>1173.43</ele>
        <time>2021-08-15T13:53:55Z</time>
      </trkpt>
      <trkpt lat="45.1883" lon="2.86515">
        <ele>1172.47</ele>
        <time>2021-08-15T13:53:57Z</time>
      </trkpt>
      <trkpt lat="45.1882" lon="2.86486">
        <ele>1173.91</ele>
        <time>2021-08-15T13:54:03Z</time>
      </trkpt>
      <trkpt lat="45.18819" lon="2.86482">
        <ele>1173.91</ele>
        <time>2021-08-15T13:54:04Z</time>
      </trkpt>
      <trkpt lat="45.18816" lon="2.86472">
        <ele>1172.47</ele>
        <time>2021-08-15T13:54:06Z</time>
      </trkpt>
      <trkpt lat="45.18814" lon="2.86458">
        <ele>1172.47</ele>
        <time>2021-08-15T13:54:09Z</time>
      </trkpt>
      <trkpt lat="45.18814" lon="2.86445">
        <ele>1171.98</ele>
        <time>2021-08-15T13:54:11Z</time>
      </trkpt>
      <trkpt lat="45.18814" lon="2.86432">
        <ele>1171.02</ele>
        <time>2021-08-15T13:54:13Z</time>
      </trkpt>
      <trkpt lat="45.18815" lon="2.86425">
        <ele>1171.02</ele>
        <time>2021-08-15T13:54:14Z</time>
      </trkpt>
      <trkpt lat="45.18815" lon="2.86417">
        <ele>1169.58</ele>
        <time>2021-08-15T13:54:15Z</time>
      </trkpt>
      <trkpt lat="45.18816" lon="2.86373">
        <ele>1166.7</ele>
        <time>2021-08-15T13:54:21Z</time>
      </trkpt>
      <trkpt lat="45.18816" lon="2.86342">
        <ele>1163.81</ele>
        <time>2021-08-15T13:54:25Z</time>
      </trkpt>
      <trkpt lat="45.18819" lon="2.86324">
        <ele>1161.89</ele>
        <time>2021-08-15T13:54:28Z</time>
      </trkpt>
      <trkpt lat="45.18821" lon="2.8632">
        <ele>1161.89</ele>
        <time>2021-08-15T13:54:29Z</time>
      </trkpt>
      <trkpt lat="45.18822" lon="2.86317">
        <ele>1161.41</ele>
        <time>2021-08-15T13:54:30Z</time>
      </trkpt>
      <trkpt lat="45.18825" lon="2.86311">
        <ele>1161.41</ele>
        <time>2021-08-15T13:54:35Z</time>
      </trkpt>
      <trkpt lat="45.18824" lon="2.86309">
        <ele>1161.41</ele>
        <time>2021-08-15T13:54:38Z</time>
      </trkpt>
      <trkpt lat="45.18824" lon="2.86307">
        <ele>1161.41</ele>
        <time>2021-08-15T13:54:39Z</time>
      </trkpt>
      <trkpt lat="45.18825" lon="2.86298">
        <ele>1159.49</ele>
        <time>2021-08-15T13:54:42Z</time>
      </trkpt>
      <trkpt lat="45.18834" lon="2.86276">
        <ele>1157.56</ele>
        <time>2021-08-15T13:54:46Z</time>
      </trkpt>
      <trkpt lat="45.18835" lon="2.86266">
        <ele>1156.12</ele>
        <time>2021-08-15T13:54:47Z</time>
      </trkpt>
      <trkpt lat="45.18835" lon="2.86257">
        <ele>1155.64</ele>
        <time>2021-08-15T13:54:48Z</time>
      </trkpt>
      <trkpt lat="45.18836" lon="2.86248">
        <ele>1155.64</ele>
        <time>2021-08-15T13:54:49Z</time>
      </trkpt>
      <trkpt lat="45.18838" lon="2.86237">
        <ele>1155.64</ele>
        <time>2021-08-15T13:54:50Z</time>
      </trkpt>
      <trkpt lat="45.18839" lon="2.86228">
        <ele>1155.16</ele>
        <time>2021-08-15T13:54:51Z</time>
      </trkpt>
      <trkpt lat="45.18846" lon="2.862">
        <ele>1154.68</ele>
        <time>2021-08-15T13:54:54Z</time>
      </trkpt>
      <trkpt lat="45.18858" lon="2.86126">
        <ele>1151.8</ele>
        <time>2021-08-15T13:55:02Z</time>
      </trkpt>
      <trkpt lat="45.1886" lon="2.86116">
        <ele>1151.32</ele>
        <time>2021-08-15T13:55:03Z</time>
      </trkpt>
      <trkpt lat="45.18868" lon="2.86063">
        <ele>1151.8</ele>
        <time>2021-08-15T13:55:09Z</time>
      </trkpt>
      <trkpt lat="45.18872" lon="2.86042">
        <ele>1151.8</ele>
        <time>2021-08-15T13:55:12Z</time>
      </trkpt>
      <trkpt lat="45.18872" lon="2.86035">
        <ele>1151.8</ele>
        <time>2021-08-15T13:55:13Z</time>
      </trkpt>
      <trkpt lat="45.18871" lon="2.86028">
        <ele>1151.8</ele>
        <time>2021-08-15T13:55:14Z</time>
      </trkpt>
      <trkpt lat="45.18869" lon="2.86022">
        <ele>1151.8</ele>
        <time>2021-08-15T13:55:15Z</time>
      </trkpt>
      <trkpt lat="45.18865" lon="2.86018">
        <ele>1151.8</ele>
        <time>2021-08-15T13:55:16Z</time>
      </trkpt>
      <trkpt lat="45.18861" lon="2.86016">
        <ele>1151.8</ele>
        <time>2021-08-15T13:55:17Z</time>
      </trkpt>
      <trkpt lat="45.18858" lon="2.86016">
        <ele>1151.8</ele>
        <time>2021-08-15T13:55:18Z</time>
      </trkpt>
      <trkpt lat="45.18854" lon="2.86017">
        <ele>1151.8</ele>
        <time>2021-08-15T13:55:19Z</time>
      </trkpt>
      <trkpt lat="45.18851" lon="2.86017">
        <ele>1152.76</ele>
        <time>2021-08-15T13:55:20Z</time>
      </trkpt>
      <trkpt lat="45.18846" lon="2.86018">
        <ele>1152.76</ele>
        <time>2021-08-15T13:55:21Z</time>
      </trkpt>
      <trkpt lat="45.18808" lon="2.86024">
        <ele>1153.72</ele>
        <time>2021-08-15T13:55:31Z</time>
      </trkpt>
      <trkpt lat="45.18803" lon="2.86023">
        <ele>1154.2</ele>
        <time>2021-08-15T13:55:32Z</time>
      </trkpt>
      <trkpt lat="45.18774" lon="2.86019">
        <ele>1152.76</ele>
        <time>2021-08-15T13:55:38Z</time>
      </trkpt>
      <trkpt lat="45.18752" lon="2.86015">
        <ele>1152.28</ele>
        <time>2021-08-15T13:55:42Z</time>
      </trkpt>
      <trkpt lat="45.18747" lon="2.86013">
        <ele>1152.28</ele>
        <time>2021-08-15T13:55:43Z</time>
      </trkpt>
      <trkpt lat="45.18742" lon="2.86009">
        <ele>1151.8</ele>
        <time>2021-08-15T13:55:44Z</time>
      </trkpt>
      <trkpt lat="45.18738" lon="2.86005">
        <ele>1151.8</ele>
        <time>2021-08-15T13:55:45Z</time>
      </trkpt>
      <trkpt lat="45.18734" lon="2.86">
        <ele>1150.84</ele>
        <time>2021-08-15T13:55:46Z</time>
      </trkpt>
      <trkpt lat="45.1873" lon="2.85994">
        <ele>1150.84</ele>
        <time>2021-08-15T13:55:47Z</time>
      </trkpt>
      <trkpt lat="45.18707" lon="2.85955">
        <ele>1147.95</ele>
        <time>2021-08-15T13:55:52Z</time>
      </trkpt>
      <trkpt lat="45.18698" lon="2.85937">
        <ele>1146.99</ele>
        <time>2021-08-15T13:55:54Z</time>
      </trkpt>
      <trkpt lat="45.18677" lon="2.85897">
        <ele>1144.11</ele>
        <time>2021-08-15T13:55:58Z</time>
      </trkpt>
      <trkpt lat="45.18648" lon="2.85824">
        <ele>1140.26</ele>
        <time>2021-08-15T13:56:04Z</time>
      </trkpt>
      <trkpt lat="45.18631" lon="2.85766">
        <ele>1136.42</ele>
        <time>2021-08-15T13:56:08Z</time>
      </trkpt>
      <trkpt lat="45.18616" lon="2.85703">
        <ele>1132.09</ele>
        <time>2021-08-15T13:56:12Z</time>
      </trkpt>
      <trkpt lat="45.18608" lon="2.85672">
        <ele>1131.61</ele>
        <time>2021-08-15T13:56:14Z</time>
      </trkpt>
      <trkpt lat="45.18583" lon="2.85602">
        <ele>1128.24</ele>
        <time>2021-08-15T13:56:19Z</time>
      </trkpt>
      <trkpt lat="45.18561" lon="2.85548">
        <ele>1125.84</ele>
        <time>2021-08-15T13:56:23Z</time>
      </trkpt>
      <trkpt lat="45.18524" lon="2.85456">
        <ele>1122.96</ele>
        <time>2021-08-15T13:56:30Z</time>
      </trkpt>
      <trkpt lat="45.18493" lon="2.85399">
        <ele>1120.55</ele>
        <time>2021-08-15T13:56:35Z</time>
      </trkpt>
      <trkpt lat="45.18477" lon="2.85369">
        <ele>1118.63</ele>
        <time>2021-08-15T13:56:38Z</time>
      </trkpt>
      <trkpt lat="45.18472" lon="2.85355">
        <ele>1117.67</ele>
        <time>2021-08-15T13:56:39Z</time>
      </trkpt>
      <trkpt lat="45.18468" lon="2.85341">
        <ele>1117.19</ele>
        <time>2021-08-15T13:56:40Z</time>
      </trkpt>
      <trkpt lat="45.18462" lon="2.8531">
        <ele>1115.75</ele>
        <time>2021-08-15T13:56:42Z</time>
      </trkpt>
      <trkpt lat="45.18452" lon="2.85282">
        <ele>1114.79</ele>
        <time>2021-08-15T13:56:44Z</time>
      </trkpt>
      <trkpt lat="45.18445" lon="2.85251">
        <ele>1113.82</ele>
        <time>2021-08-15T13:56:46Z</time>
      </trkpt>
      <trkpt lat="45.18426" lon="2.8518">
        <ele>1110.46</ele>
        <time>2021-08-15T13:56:51Z</time>
      </trkpt>
      <trkpt lat="45.18414" lon="2.85106">
        <ele>1108.06</ele>
        <time>2021-08-15T13:56:56Z</time>
      </trkpt>
      <trkpt lat="45.184" lon="2.85028">
        <ele>1105.17</ele>
        <time>2021-08-15T13:57:02Z</time>
      </trkpt>
      <trkpt lat="45.1837" lon="2.84914">
        <ele>1102.77</ele>
        <time>2021-08-15T13:57:11Z</time>
      </trkpt>
      <trkpt lat="45.18354" lon="2.84823">
        <ele>1099.4</ele>
        <time>2021-08-15T13:57:18Z</time>
      </trkpt>
      <trkpt lat="45.18345" lon="2.84766">
        <ele>1095.56</ele>
        <time>2021-08-15T13:57:22Z</time>
      </trkpt>
      <trkpt lat="45.18332" lon="2.84706">
        <ele>1092.68</ele>
        <time>2021-08-15T13:57:26Z</time>
      </trkpt>
      <trkpt lat="45.18311" lon="2.84648">
        <ele>1089.31</ele>
        <time>2021-08-15T13:57:30Z</time>
      </trkpt>
      <trkpt lat="45.18296" lon="2.84604">
        <ele>1087.87</ele>
        <time>2021-08-15T13:57:33Z</time>
      </trkpt>
      <trkpt lat="45.18277" lon="2.84545">
        <ele>1084.5</ele>
        <time>2021-08-15T13:57:37Z</time>
      </trkpt>
      <trkpt lat="45.18241" lon="2.84461">
        <ele>1080.66</ele>
        <time>2021-08-15T13:57:43Z</time>
      </trkpt>
      <trkpt lat="45.18217" lon="2.84408">
        <ele>1076.81</ele>
        <time>2021-08-15T13:57:47Z</time>
      </trkpt>
      <trkpt lat="45.18199" lon="2.84368">
        <ele>1075.37</ele>
        <time>2021-08-15T13:57:50Z</time>
      </trkpt>
      <trkpt lat="45.18174" lon="2.84314">
        <ele>1072.49</ele>
        <time>2021-08-15T13:57:54Z</time>
      </trkpt>
      <trkpt lat="45.18155" lon="2.84274">
        <ele>1071.05</ele>
        <time>2021-08-15T13:57:57Z</time>
      </trkpt>
      <trkpt lat="45.18126" lon="2.84224">
        <ele>1068.64</ele>
        <time>2021-08-15T13:58:01Z</time>
      </trkpt>
      <trkpt lat="45.18117" lon="2.84213">
        <ele>1068.64</ele>
        <time>2021-08-15T13:58:02Z</time>
      </trkpt>
      <trkpt lat="45.18073" lon="2.84165">
        <ele>1065.28</ele>
        <time>2021-08-15T13:58:07Z</time>
      </trkpt>
      <trkpt lat="45.18064" lon="2.84155">
        <ele>1065.28</ele>
        <time>2021-08-15T13:58:08Z</time>
      </trkpt>
      <trkpt lat="45.18037" lon="2.84126">
        <ele>1061.91</ele>
        <time>2021-08-15T13:58:11Z</time>
      </trkpt>
      <trkpt lat="45.17972" lon="2.84052">
        <ele>1059.99</ele>
        <time>2021-08-15T13:58:19Z</time>
      </trkpt>
      <trkpt lat="45.17915" lon="2.83988">
        <ele>1059.03</ele>
        <time>2021-08-15T13:58:27Z</time>
      </trkpt>
      <trkpt lat="45.17905" lon="2.83975">
        <ele>1059.03</ele>
        <time>2021-08-15T13:58:29Z</time>
      </trkpt>
      <trkpt lat="45.17901" lon="2.83967">
        <ele>1059.03</ele>
        <time>2021-08-15T13:58:30Z</time>
      </trkpt>
      <trkpt lat="45.17901" lon="2.83959">
        <ele>1058.55</ele>
        <time>2021-08-15T13:58:31Z</time>
      </trkpt>
      <trkpt lat="45.17901" lon="2.8395">
        <ele>1058.55</ele>
        <time>2021-08-15T13:58:32Z</time>
      </trkpt>
      <trkpt lat="45.17902" lon="2.83944">
        <ele>1058.55</ele>
        <time>2021-08-15T13:58:33Z</time>
      </trkpt>
      <trkpt lat="45.17902" lon="2.83928">
        <ele>1058.55</ele>
        <time>2021-08-15T13:58:36Z</time>
      </trkpt>
      <trkpt lat="45.179" lon="2.83925">
        <ele>1058.55</ele>
        <time>2021-08-15T13:58:37Z</time>
      </trkpt>
      <trkpt lat="45.17897" lon="2.83921">
        <ele>1058.55</ele>
        <time>2021-08-15T13:58:38Z</time>
      </trkpt>
      <trkpt lat="45.17895" lon="2.83919">
        <ele>1058.55</ele>
        <time>2021-08-15T13:58:39Z</time>
      </trkpt>
      <trkpt lat="45.17891" lon="2.83917">
        <ele>1058.55</ele>
        <time>2021-08-15T13:58:40Z</time>
      </trkpt>
      <trkpt lat="45.17887" lon="2.83915">
        <ele>1058.55</ele>
        <time>2021-08-15T13:58:41Z</time>
      </trkpt>
      <trkpt lat="45.17861" lon="2.839">
        <ele>1059.99</ele>
        <time>2021-08-15T13:58:48Z</time>
      </trkpt>
      <trkpt lat="45.17831" lon="2.8388">
        <ele>1061.43</ele>
        <time>2021-08-15T13:58:57Z</time>
      </trkpt>
      <trkpt lat="45.17802" lon="2.83863">
        <ele>1062.39</ele>
        <time>2021-08-15T13:59:06Z</time>
      </trkpt>
      <trkpt lat="45.17764" lon="2.83839">
        <ele>1062.87</ele>
        <time>2021-08-15T13:59:18Z</time>
      </trkpt>
      <trkpt lat="45.17728" lon="2.83817">
        <ele>1064.8</ele>
        <time>2021-08-15T13:59:29Z</time>
      </trkpt>
      <trkpt lat="45.17684" lon="2.83793">
        <ele>1066.24</ele>
        <time>2021-08-15T13:59:42Z</time>
      </trkpt>
      <trkpt lat="45.17653" lon="2.83777">
        <ele>1067.2</ele>
        <time>2021-08-15T13:59:52Z</time>
      </trkpt>
      <trkpt lat="45.17625" lon="2.83762">
        <ele>1068.64</ele>
        <time>2021-08-15T14:00:01Z</time>
      </trkpt>
      <trkpt lat="45.17586" lon="2.83747">
        <ele>1069.12</ele>
        <time>2021-08-15T14:00:13Z</time>
      </trkpt>
      <trkpt lat="45.17554" lon="2.83734">
        <ele>1070.57</ele>
        <time>2021-08-15T14:00:23Z</time>
      </trkpt>
      <trkpt lat="45.1752" lon="2.83724">
        <ele>1071.05</ele>
        <time>2021-08-15T14:00:33Z</time>
      </trkpt>
      <trkpt lat="45.17497" lon="2.83716">
        <ele>1072.01</ele>
        <time>2021-08-15T14:00:40Z</time>
      </trkpt>
      <trkpt lat="45.17469" lon="2.83709">
        <ele>1073.45</ele>
        <time>2021-08-15T14:00:49Z</time>
      </trkpt>
      <trkpt lat="45.17436" lon="2.83701">
        <ele>1074.41</ele>
        <time>2021-08-15T14:00:59Z</time>
      </trkpt>
      <trkpt lat="45.17392" lon="2.8369">
        <ele>1075.37</ele>
        <time>2021-08-15T14:01:12Z</time>
      </trkpt>
      <trkpt lat="45.17354" lon="2.83682">
        <ele>1076.33</ele>
        <time>2021-08-15T14:01:23Z</time>
      </trkpt>
      <trkpt lat="45.17323" lon="2.83677">
        <ele>1076.81</ele>
        <time>2021-08-15T14:01:32Z</time>
      </trkpt>
      <trkpt lat="45.17319" lon="2.83677">
        <ele>1077.29</ele>
        <time>2021-08-15T14:01:33Z</time>
      </trkpt>
      <trkpt lat="45.17289" lon="2.83674">
        <ele>1078.26</ele>
        <time>2021-08-15T14:01:42Z</time>
      </trkpt>
      <trkpt lat="45.1725" lon="2.83675">
        <ele>1079.7</ele>
        <time>2021-08-15T14:01:53Z</time>
      </trkpt>
      <trkpt lat="45.17218" lon="2.83676">
        <ele>1080.66</ele>
        <time>2021-08-15T14:02:02Z</time>
      </trkpt>
      <trkpt lat="45.17183" lon="2.83679">
        <ele>1081.14</ele>
        <time>2021-08-15T14:02:11Z</time>
      </trkpt>
      <trkpt lat="45.17156" lon="2.83682">
        <ele>1082.58</ele>
        <time>2021-08-15T14:02:18Z</time>
      </trkpt>
      <trkpt lat="45.17124" lon="2.83681">
        <ele>1083.54</ele>
        <time>2021-08-15T14:02:27Z</time>
      </trkpt>
      <trkpt lat="45.1709" lon="2.83677">
        <ele>1084.02</ele>
        <time>2021-08-15T14:02:37Z</time>
      </trkpt>
      <trkpt lat="45.17052" lon="2.83667">
        <ele>1085.95</ele>
        <time>2021-08-15T14:02:48Z</time>
      </trkpt>
      <trkpt lat="45.17018" lon="2.83654">
        <ele>1087.39</ele>
        <time>2021-08-15T14:02:58Z</time>
      </trkpt>
      <trkpt lat="45.16984" lon="2.83641">
        <ele>1088.35</ele>
        <time>2021-08-15T14:03:08Z</time>
      </trkpt>
      <trkpt lat="45.16954" lon="2.83629">
        <ele>1089.31</ele>
        <time>2021-08-15T14:03:17Z</time>
      </trkpt>
      <trkpt lat="45.1692" lon="2.83616">
        <ele>1090.75</ele>
        <time>2021-08-15T14:03:27Z</time>
      </trkpt>
      <trkpt lat="45.16881" lon="2.83599">
        <ele>1091.71</ele>
        <time>2021-08-15T14:03:38Z</time>
      </trkpt>
      <trkpt lat="45.16848" lon="2.83583">
        <ele>1093.16</ele>
        <time>2021-08-15T14:03:48Z</time>
      </trkpt>
      <trkpt lat="45.16819" lon="2.83566">
        <ele>1093.64</ele>
        <time>2021-08-15T14:03:57Z</time>
      </trkpt>
      <trkpt lat="45.16793" lon="2.8355">
        <ele>1094.6</ele>
        <time>2021-08-15T14:04:05Z</time>
      </trkpt>
      <trkpt lat="45.16765" lon="2.8353">
        <ele>1095.56</ele>
        <time>2021-08-15T14:04:14Z</time>
      </trkpt>
      <trkpt lat="45.16739" lon="2.83506">
        <ele>1096.04</ele>
        <time>2021-08-15T14:04:23Z</time>
      </trkpt>
      <trkpt lat="45.16733" lon="2.83484">
        <ele>1096.52</ele>
        <time>2021-08-15T14:04:28Z</time>
      </trkpt>
      <trkpt lat="45.16734" lon="2.83473">
        <ele>1096.52</ele>
        <time>2021-08-15T14:04:30Z</time>
      </trkpt>
      <trkpt lat="45.16734" lon="2.83467">
        <ele>1096.52</ele>
        <time>2021-08-15T14:04:31Z</time>
      </trkpt>
      <trkpt lat="45.16732" lon="2.8346">
        <ele>1095.08</ele>
        <time>2021-08-15T14:04:32Z</time>
      </trkpt>
      <trkpt lat="45.16729" lon="2.83453">
        <ele>1095.08</ele>
        <time>2021-08-15T14:04:33Z</time>
      </trkpt>
      <trkpt lat="45.16725" lon="2.83447">
        <ele>1094.6</ele>
        <time>2021-08-15T14:04:34Z</time>
      </trkpt>
      <trkpt lat="45.16721" lon="2.83441">
        <ele>1094.6</ele>
        <time>2021-08-15T14:04:35Z</time>
      </trkpt>
      <trkpt lat="45.16715" lon="2.83435">
        <ele>1093.64</ele>
        <time>2021-08-15T14:04:36Z</time>
      </trkpt>
      <trkpt lat="45.16703" lon="2.83424">
        <ele>1092.2</ele>
        <time>2021-08-15T14:04:38Z</time>
      </trkpt>
      <trkpt lat="45.16697" lon="2.83416">
        <ele>1091.71</ele>
        <time>2021-08-15T14:04:39Z</time>
      </trkpt>
      <trkpt lat="45.16691" lon="2.83407">
        <ele>1090.75</ele>
        <time>2021-08-15T14:04:40Z</time>
      </trkpt>
      <trkpt lat="45.16687" lon="2.83398">
        <ele>1090.27</ele>
        <time>2021-08-15T14:04:41Z</time>
      </trkpt>
      <trkpt lat="45.16682" lon="2.83387">
        <ele>1089.79</ele>
        <time>2021-08-15T14:04:42Z</time>
      </trkpt>
      <trkpt lat="45.16648" lon="2.83315">
        <ele>1086.43</ele>
        <time>2021-08-15T14:04:49Z</time>
      </trkpt>
      <trkpt lat="45.16623" lon="2.83257">
        <ele>1083.06</ele>
        <time>2021-08-15T14:04:54Z</time>
      </trkpt>
      <trkpt lat="45.166" lon="2.83193">
        <ele>1079.7</ele>
        <time>2021-08-15T14:04:59Z</time>
      </trkpt>
      <trkpt lat="45.16587" lon="2.83135">
        <ele>1076.33</ele>
        <time>2021-08-15T14:05:03Z</time>
      </trkpt>
      <trkpt lat="45.16566" lon="2.83046">
        <ele>1072.97</ele>
        <time>2021-08-15T14:05:09Z</time>
      </trkpt>
      <trkpt lat="45.16558" lon="2.83019">
        <ele>1071.53</ele>
        <time>2021-08-15T14:05:11Z</time>
      </trkpt>
      <trkpt lat="45.16552" lon="2.83005">
        <ele>1070.57</ele>
        <time>2021-08-15T14:05:12Z</time>
      </trkpt>
      <trkpt lat="45.16541" lon="2.82981">
        <ele>1069.6</ele>
        <time>2021-08-15T14:05:14Z</time>
      </trkpt>
      <trkpt lat="45.16535" lon="2.8297">
        <ele>1068.16</ele>
        <time>2021-08-15T14:05:15Z</time>
      </trkpt>
      <trkpt lat="45.16528" lon="2.82959">
        <ele>1068.16</ele>
        <time>2021-08-15T14:05:16Z</time>
      </trkpt>
      <trkpt lat="45.16521" lon="2.8295">
        <ele>1067.68</ele>
        <time>2021-08-15T14:05:17Z</time>
      </trkpt>
      <trkpt lat="45.16513" lon="2.82943">
        <ele>1067.68</ele>
        <time>2021-08-15T14:05:18Z</time>
      </trkpt>
      <trkpt lat="45.16504" lon="2.82937">
        <ele>1067.68</ele>
        <time>2021-08-15T14:05:19Z</time>
      </trkpt>
      <trkpt lat="45.16495" lon="2.82931">
        <ele>1066.24</ele>
        <time>2021-08-15T14:05:20Z</time>
      </trkpt>
      <trkpt lat="45.16487" lon="2.82924">
        <ele>1066.24</ele>
        <time>2021-08-15T14:05:21Z</time>
      </trkpt>
      <trkpt lat="45.1648" lon="2.82916">
        <ele>1066.24</ele>
        <time>2021-08-15T14:05:22Z</time>
      </trkpt>
      <trkpt lat="45.16473" lon="2.82908">
        <ele>1065.28</ele>
        <time>2021-08-15T14:05:23Z</time>
      </trkpt>
      <trkpt lat="45.16465" lon="2.82898">
        <ele>1064.8</ele>
        <time>2021-08-15T14:05:24Z</time>
      </trkpt>
      <trkpt lat="45.16459" lon="2.82887">
        <ele>1063.84</ele>
        <time>2021-08-15T14:05:25Z</time>
      </trkpt>
      <trkpt lat="45.16453" lon="2.82875">
        <ele>1062.87</ele>
        <time>2021-08-15T14:05:26Z</time>
      </trkpt>
      <trkpt lat="45.16432" lon="2.82825">
        <ele>1059.51</ele>
        <time>2021-08-15T14:05:30Z</time>
      </trkpt>
      <trkpt lat="45.16398" lon="2.8275">
        <ele>1056.63</ele>
        <time>2021-08-15T14:05:36Z</time>
      </trkpt>
      <trkpt lat="45.16353" lon="2.82659">
        <ele>1054.7</ele>
        <time>2021-08-15T14:05:44Z</time>
      </trkpt>
      <trkpt lat="45.16341" lon="2.82642">
        <ele>1055.67</ele>
        <time>2021-08-15T14:05:46Z</time>
      </trkpt>
      <trkpt lat="45.16337" lon="2.82634">
        <ele>1056.63</ele>
        <time>2021-08-15T14:05:47Z</time>
      </trkpt>
      <trkpt lat="45.16333" lon="2.82626">
        <ele>1056.63</ele>
        <time>2021-08-15T14:05:48Z</time>
      </trkpt>
      <trkpt lat="45.1633" lon="2.82618">
        <ele>1056.63</ele>
        <time>2021-08-15T14:05:49Z</time>
      </trkpt>
      <trkpt lat="45.16329" lon="2.82608">
        <ele>1056.63</ele>
        <time>2021-08-15T14:05:50Z</time>
      </trkpt>
      <trkpt lat="45.16327" lon="2.82599">
        <ele>1056.63</ele>
        <time>2021-08-15T14:05:51Z</time>
      </trkpt>
      <trkpt lat="45.16327" lon="2.82592">
        <ele>1057.11</ele>
        <time>2021-08-15T14:05:52Z</time>
      </trkpt>
      <trkpt lat="45.16327" lon="2.82584">
        <ele>1057.11</ele>
        <time>2021-08-15T14:05:53Z</time>
      </trkpt>
      <trkpt lat="45.16328" lon="2.82535">
        <ele>1057.59</ele>
        <time>2021-08-15T14:06:00Z</time>
      </trkpt>
      <trkpt lat="45.16326" lon="2.82475">
        <ele>1057.59</ele>
        <time>2021-08-15T14:06:09Z</time>
      </trkpt>
      <trkpt lat="45.16321" lon="2.8245">
        <ele>1057.59</ele>
        <time>2021-08-15T14:06:13Z</time>
      </trkpt>
      <trkpt lat="45.1632" lon="2.82444">
        <ele>1057.59</ele>
        <time>2021-08-15T14:06:14Z</time>
      </trkpt>
      <trkpt lat="45.16317" lon="2.82438">
        <ele>1057.59</ele>
        <time>2021-08-15T14:06:15Z</time>
      </trkpt>
      <trkpt lat="45.16314" lon="2.82433">
        <ele>1057.59</ele>
        <time>2021-08-15T14:06:16Z</time>
      </trkpt>
      <trkpt lat="45.16312" lon="2.82429">
        <ele>1057.59</ele>
        <time>2021-08-15T14:06:17Z</time>
      </trkpt>
      <trkpt lat="45.16306" lon="2.8242">
        <ele>1058.07</ele>
        <time>2021-08-15T14:06:19Z</time>
      </trkpt>
      <trkpt lat="45.16298" lon="2.82408">
        <ele>1058.07</ele>
        <time>2021-08-15T14:06:22Z</time>
      </trkpt>
      <trkpt lat="45.16275" lon="2.82369">
        <ele>1059.03</ele>
        <time>2021-08-15T14:06:32Z</time>
      </trkpt>
      <trkpt lat="45.16254" lon="2.82331">
        <ele>1059.51</ele>
        <time>2021-08-15T14:06:42Z</time>
      </trkpt>
      <trkpt lat="45.16243" lon="2.82295">
        <ele>1059.99</ele>
        <time>2021-08-15T14:06:50Z</time>
      </trkpt>
      <trkpt lat="45.1624" lon="2.8226">
        <ele>1059.99</ele>
        <time>2021-08-15T14:06:57Z</time>
      </trkpt>
      <trkpt lat="45.16242" lon="2.82211">
        <ele>1060.47</ele>
        <time>2021-08-15T14:07:06Z</time>
      </trkpt>
      <trkpt lat="45.16239" lon="2.82174">
        <ele>1059.03</ele>
        <time>2021-08-15T14:07:12Z</time>
      </trkpt>
      <trkpt lat="45.16237" lon="2.82168">
        <ele>1059.03</ele>
        <time>2021-08-15T14:07:13Z</time>
      </trkpt>
      <trkpt lat="45.16233" lon="2.82154">
        <ele>1058.07</ele>
        <time>2021-08-15T14:07:15Z</time>
      </trkpt>
      <trkpt lat="45.1623" lon="2.82147">
        <ele>1057.59</ele>
        <time>2021-08-15T14:07:16Z</time>
      </trkpt>
      <trkpt lat="45.16208" lon="2.82092">
        <ele>1055.18</ele>
        <time>2021-08-15T14:07:23Z</time>
      </trkpt>
      <trkpt lat="45.16206" lon="2.82084">
        <ele>1055.18</ele>
        <time>2021-08-15T14:07:24Z</time>
      </trkpt>
      <trkpt lat="45.16205" lon="2.82073">
        <ele>1053.74</ele>
        <time>2021-08-15T14:07:25Z</time>
      </trkpt>
      <trkpt lat="45.16205" lon="2.82062">
        <ele>1053.74</ele>
        <time>2021-08-15T14:07:26Z</time>
      </trkpt>
      <trkpt lat="45.16206" lon="2.82052">
        <ele>1053.74</ele>
        <time>2021-08-15T14:07:27Z</time>
      </trkpt>
      <trkpt lat="45.16208" lon="2.82041">
        <ele>1053.74</ele>
        <time>2021-08-15T14:07:28Z</time>
      </trkpt>
      <trkpt lat="45.1621" lon="2.82033">
        <ele>1052.78</ele>
        <time>2021-08-15T14:07:29Z</time>
      </trkpt>
      <trkpt lat="45.16213" lon="2.82015">
        <ele>1052.78</ele>
        <time>2021-08-15T14:07:31Z</time>
      </trkpt>
      <trkpt lat="45.16214" lon="2.82005">
        <ele>1052.78</ele>
        <time>2021-08-15T14:07:32Z</time>
      </trkpt>
      <trkpt lat="45.16215" lon="2.81996">
        <ele>1052.78</ele>
        <time>2021-08-15T14:07:33Z</time>
      </trkpt>
      <trkpt lat="45.16213" lon="2.81969">
        <ele>1052.3</ele>
        <time>2021-08-15T14:07:36Z</time>
      </trkpt>
      <trkpt lat="45.16208" lon="2.81906">
        <ele>1051.82</ele>
        <time>2021-08-15T14:07:43Z</time>
      </trkpt>
      <trkpt lat="45.16209" lon="2.81897">
        <ele>1051.82</ele>
        <time>2021-08-15T14:07:44Z</time>
      </trkpt>
      <trkpt lat="45.1621" lon="2.81888">
        <ele>1051.82</ele>
        <time>2021-08-15T14:07:45Z</time>
      </trkpt>
      <trkpt lat="45.16217" lon="2.81864">
        <ele>1051.82</ele>
        <time>2021-08-15T14:07:48Z</time>
      </trkpt>
      <trkpt lat="45.1622" lon="2.81856">
        <ele>1051.82</ele>
        <time>2021-08-15T14:07:49Z</time>
      </trkpt>
      <trkpt lat="45.16222" lon="2.8185">
        <ele>1051.82</ele>
        <time>2021-08-15T14:07:50Z</time>
      </trkpt>
      <trkpt lat="45.16241" lon="2.818">
        <ele>1051.82</ele>
        <time>2021-08-15T14:07:58Z</time>
      </trkpt>
      <trkpt lat="45.1626" lon="2.8175">
        <ele>1051.34</ele>
        <time>2021-08-15T14:08:05Z</time>
      </trkpt>
      <trkpt lat="45.16291" lon="2.81671">
        <ele>1049.9</ele>
        <time>2021-08-15T14:08:15Z</time>
      </trkpt>
      <trkpt lat="45.16296" lon="2.81658">
        <ele>1051.34</ele>
        <time>2021-08-15T14:08:17Z</time>
      </trkpt>
      <trkpt lat="45.1631" lon="2.81618">
        <ele>1051.82</ele>
        <time>2021-08-15T14:08:24Z</time>
      </trkpt>
      <trkpt lat="45.16312" lon="2.81613">
        <ele>1051.82</ele>
        <time>2021-08-15T14:08:25Z</time>
      </trkpt>
      <trkpt lat="45.16313" lon="2.81607">
        <ele>1052.3</ele>
        <time>2021-08-15T14:08:26Z</time>
      </trkpt>
      <trkpt lat="45.16315" lon="2.81602">
        <ele>1052.3</ele>
        <time>2021-08-15T14:08:27Z</time>
      </trkpt>
      <trkpt lat="45.16316" lon="2.81597">
        <ele>1052.3</ele>
        <time>2021-08-15T14:08:28Z</time>
      </trkpt>
      <trkpt lat="45.16318" lon="2.81556">
        <ele>1052.78</ele>
        <time>2021-08-15T14:08:36Z</time>
      </trkpt>
      <trkpt lat="45.16311" lon="2.81506">
        <ele>1052.78</ele>
        <time>2021-08-15T14:08:45Z</time>
      </trkpt>
      <trkpt lat="45.16301" lon="2.8147">
        <ele>1053.26</ele>
        <time>2021-08-15T14:08:53Z</time>
      </trkpt>
      <trkpt lat="45.16288" lon="2.81443">
        <ele>1053.26</ele>
        <time>2021-08-15T14:08:59Z</time>
      </trkpt>
      <trkpt lat="45.16265" lon="2.81395">
        <ele>1053.26</ele>
        <time>2021-08-15T14:09:09Z</time>
      </trkpt>
      <trkpt lat="45.16237" lon="2.81343">
        <ele>1053.26</ele>
        <time>2021-08-15T14:09:20Z</time>
      </trkpt>
      <trkpt lat="45.16232" lon="2.81332">
        <ele>1053.26</ele>
        <time>2021-08-15T14:09:22Z</time>
      </trkpt>
      <trkpt lat="45.16216" lon="2.81288">
        <ele>1053.26</ele>
        <time>2021-08-15T14:09:31Z</time>
      </trkpt>
      <trkpt lat="45.16207" lon="2.81251">
        <ele>1053.26</ele>
        <time>2021-08-15T14:09:38Z</time>
      </trkpt>
      <trkpt lat="45.16205" lon="2.81196">
        <ele>1052.78</ele>
        <time>2021-08-15T14:09:47Z</time>
      </trkpt>
      <trkpt lat="45.16205" lon="2.81189">
        <ele>1052.78</ele>
        <time>2021-08-15T14:09:48Z</time>
      </trkpt>
      <trkpt lat="45.16206" lon="2.81183">
        <ele>1052.78</ele>
        <time>2021-08-15T14:09:49Z</time>
      </trkpt>
      <trkpt lat="45.16205" lon="2.81106">
        <ele>1052.78</ele>
        <time>2021-08-15T14:10:00Z</time>
      </trkpt>
      <trkpt lat="45.16205" lon="2.81093">
        <ele>1052.78</ele>
        <time>2021-08-15T14:10:02Z</time>
      </trkpt>
      <trkpt lat="45.16204" lon="2.81058">
        <ele>1052.78</ele>
        <time>2021-08-15T14:10:07Z</time>
      </trkpt>
      <trkpt lat="45.16202" lon="2.81044">
        <ele>1052.78</ele>
        <time>2021-08-15T14:10:09Z</time>
      </trkpt>
      <trkpt lat="45.16202" lon="2.81037">
        <ele>1052.78</ele>
        <time>2021-08-15T14:10:10Z</time>
      </trkpt>
      <trkpt lat="45.16196" lon="2.80991">
        <ele>1051.82</ele>
        <time>2021-08-15T14:10:17Z</time>
      </trkpt>
      <trkpt lat="45.16187" lon="2.80922">
        <ele>1051.82</ele>
        <time>2021-08-15T14:10:27Z</time>
      </trkpt>
      <trkpt lat="45.16186" lon="2.80916">
        <ele>1051.82</ele>
        <time>2021-08-15T14:10:28Z</time>
      </trkpt>
      <trkpt lat="45.16177" lon="2.80857">
        <ele>1051.82</ele>
        <time>2021-08-15T14:10:37Z</time>
      </trkpt>
      <trkpt lat="45.16169" lon="2.80828">
        <ele>1053.26</ele>
        <time>2021-08-15T14:10:42Z</time>
      </trkpt>
      <trkpt lat="45.16161" lon="2.80795">
        <ele>1054.22</ele>
        <time>2021-08-15T14:10:49Z</time>
      </trkpt>
      <trkpt lat="45.16152" lon="2.80759">
        <ele>1055.18</ele>
        <time>2021-08-15T14:10:56Z</time>
      </trkpt>
      <trkpt lat="45.16147" lon="2.80707">
        <ele>1056.63</ele>
        <time>2021-08-15T14:11:06Z</time>
      </trkpt>
      <trkpt lat="45.16145" lon="2.80667">
        <ele>1057.11</ele>
        <time>2021-08-15T14:11:16Z</time>
      </trkpt>
      <trkpt lat="45.16142" lon="2.80644">
        <ele>1058.07</ele>
        <time>2021-08-15T14:11:22Z</time>
      </trkpt>
      <trkpt lat="45.16135" lon="2.80608">
        <ele>1058.07</ele>
        <time>2021-08-15T14:11:30Z</time>
      </trkpt>
      <trkpt lat="45.16129" lon="2.80576">
        <ele>1058.07</ele>
        <time>2021-08-15T14:11:36Z</time>
      </trkpt>
      <trkpt lat="45.16122" lon="2.80532">
        <ele>1058.07</ele>
        <time>2021-08-15T14:11:44Z</time>
      </trkpt>
      <trkpt lat="45.16113" lon="2.8048">
        <ele>1058.07</ele>
        <time>2021-08-15T14:11:53Z</time>
      </trkpt>
      <trkpt lat="45.16102" lon="2.8042">
        <ele>1058.55</ele>
        <time>2021-08-15T14:12:03Z</time>
      </trkpt>
      <trkpt lat="45.16088" lon="2.80363">
        <ele>1058.55</ele>
        <time>2021-08-15T14:12:12Z</time>
      </trkpt>
      <trkpt lat="45.1607" lon="2.80303">
        <ele>1057.11</ele>
        <time>2021-08-15T14:12:21Z</time>
      </trkpt>
      <trkpt lat="45.16049" lon="2.80247">
        <ele>1056.63</ele>
        <time>2021-08-15T14:12:30Z</time>
      </trkpt>
      <trkpt lat="45.16024" lon="2.80193">
        <ele>1057.59</ele>
        <time>2021-08-15T14:12:40Z</time>
      </trkpt>
      <trkpt lat="45.16007" lon="2.80145">
        <ele>1057.59</ele>
        <time>2021-08-15T14:12:48Z</time>
      </trkpt>
      <trkpt lat="45.15999" lon="2.80083">
        <ele>1057.59</ele>
        <time>2021-08-15T14:12:57Z</time>
      </trkpt>
      <trkpt lat="45.15988" lon="2.80006">
        <ele>1057.59</ele>
        <time>2021-08-15T14:13:08Z</time>
      </trkpt>
      <trkpt lat="45.15978" lon="2.79954">
        <ele>1057.59</ele>
        <time>2021-08-15T14:13:16Z</time>
      </trkpt>
      <trkpt lat="45.15963" lon="2.79905">
        <ele>1058.07</ele>
        <time>2021-08-15T14:13:24Z</time>
      </trkpt>
      <trkpt lat="45.15957" lon="2.79888">
        <ele>1058.07</ele>
        <time>2021-08-15T14:13:27Z</time>
      </trkpt>
      <trkpt lat="45.15956" lon="2.79882">
        <ele>1058.07</ele>
        <time>2021-08-15T14:13:28Z</time>
      </trkpt>
      <trkpt lat="45.15951" lon="2.79864">
        <ele>1058.07</ele>
        <time>2021-08-15T14:13:31Z</time>
      </trkpt>
      <trkpt lat="45.15941" lon="2.7979">
        <ele>1058.07</ele>
        <time>2021-08-15T14:13:42Z</time>
      </trkpt>
      <trkpt lat="45.15933" lon="2.79708">
        <ele>1057.59</ele>
        <time>2021-08-15T14:13:53Z</time>
      </trkpt>
      <trkpt lat="45.15923" lon="2.79643">
        <ele>1056.63</ele>
        <time>2021-08-15T14:14:02Z</time>
      </trkpt>
      <trkpt lat="45.15922" lon="2.79636">
        <ele>1056.63</ele>
        <time>2021-08-15T14:14:03Z</time>
      </trkpt>
      <trkpt lat="45.15917" lon="2.796">
        <ele>1056.63</ele>
        <time>2021-08-15T14:14:08Z</time>
      </trkpt>
      <trkpt lat="45.15916" lon="2.79594">
        <ele>1056.63</ele>
        <time>2021-08-15T14:14:09Z</time>
      </trkpt>
      <trkpt lat="45.15913" lon="2.79587">
        <ele>1056.63</ele>
        <time>2021-08-15T14:14:10Z</time>
      </trkpt>
      <trkpt lat="45.15895" lon="2.79536">
        <ele>1058.07</ele>
        <time>2021-08-15T14:14:19Z</time>
      </trkpt>
      <trkpt lat="45.1589" lon="2.7952">
        <ele>1058.55</ele>
        <time>2021-08-15T14:14:22Z</time>
      </trkpt>
      <trkpt lat="45.1588" lon="2.79472">
        <ele>1059.51</ele>
        <time>2021-08-15T14:14:31Z</time>
      </trkpt>
      <trkpt lat="45.15872" lon="2.79421">
        <ele>1059.99</ele>
        <time>2021-08-15T14:14:40Z</time>
      </trkpt>
      <trkpt lat="45.15858" lon="2.79361">
        <ele>1060.47</ele>
        <time>2021-08-15T14:14:49Z</time>
      </trkpt>
      <trkpt lat="45.15844" lon="2.79294">
        <ele>1060.47</ele>
        <time>2021-08-15T14:14:59Z</time>
      </trkpt>
      <trkpt lat="45.15835" lon="2.79248">
        <ele>1060.95</ele>
        <time>2021-08-15T14:15:07Z</time>
      </trkpt>
      <trkpt lat="45.15823" lon="2.79188">
        <ele>1059.51</ele>
        <time>2021-08-15T14:15:16Z</time>
      </trkpt>
      <trkpt lat="45.15821" lon="2.7918">
        <ele>1059.51</ele>
        <time>2021-08-15T14:15:17Z</time>
      </trkpt>
      <trkpt lat="45.15809" lon="2.79119">
        <ele>1059.03</ele>
        <time>2021-08-15T14:15:25Z</time>
      </trkpt>
      <trkpt lat="45.15808" lon="2.79074">
        <ele>1059.03</ele>
        <time>2021-08-15T14:15:32Z</time>
      </trkpt>
      <trkpt lat="45.15807" lon="2.7902">
        <ele>1060.95</ele>
        <time>2021-08-15T14:15:41Z</time>
      </trkpt>
      <trkpt lat="45.15811" lon="2.78984">
        <ele>1061.43</ele>
        <time>2021-08-15T14:15:48Z</time>
      </trkpt>
      <trkpt lat="45.15817" lon="2.78959">
        <ele>1062.39</ele>
        <time>2021-08-15T14:15:55Z</time>
      </trkpt>
      <trkpt lat="45.15824" lon="2.78933">
        <ele>1063.84</ele>
        <time>2021-08-15T14:16:04Z</time>
      </trkpt>
      <trkpt lat="45.15831" lon="2.78915">
        <ele>1064.32</ele>
        <time>2021-08-15T14:16:11Z</time>
      </trkpt>
      <trkpt lat="45.15834" lon="2.78914">
        <ele>1064.8</ele>
        <time>2021-08-15T14:16:12Z</time>
      </trkpt>
      <trkpt lat="45.15835" lon="2.78916">
        <ele>1064.8</ele>
        <time>2021-08-15T14:16:13Z</time>
      </trkpt>
      <trkpt lat="45.15835" lon="2.78919">
        <ele>1064.8</ele>
        <time>2021-08-15T14:16:14Z</time>
      </trkpt>
      <trkpt lat="45.15834" lon="2.78922">
        <ele>1064.8</ele>
        <time>2021-08-15T14:16:15Z</time>
      </trkpt>
      <trkpt lat="45.15833" lon="2.78923">
        <ele>1064.8</ele>
        <time>2021-08-15T14:16:16Z</time>
      </trkpt>
      <trkpt lat="45.15831" lon="2.78925">
        <ele>1064.8</ele>
        <time>2021-08-15T14:16:22Z</time>
      </trkpt>
      <trkpt lat="45.1583" lon="2.78927">
        <ele>1064.8</ele>
        <time>2021-08-15T14:16:33Z</time>
      </trkpt>
      <trkpt lat="45.1583" lon="2.78927">
        <ele>1064.8</ele>
        <time>2021-08-15T14:16:37Z</time>
      </trkpt>
      <trkpt lat="45.15829" lon="2.78928">
        <ele>1064.8</ele>
        <time>2021-08-15T14:16:38Z</time>
      </trkpt>
      <trkpt lat="45.1583" lon="2.78927">
        <ele>1065.28</ele>
        <time>2021-08-15T14:16:44Z</time>
      </trkpt>
      <trkpt lat="45.15833" lon="2.78926">
        <ele>1065.28</ele>
        <time>2021-08-15T14:16:58Z</time>
      </trkpt>
      <trkpt lat="45.15833" lon="2.78926">
        <ele>1065.28</ele>
        <time>2021-08-15T14:17:10Z</time>
      </trkpt>
      <trkpt lat="45.15832" lon="2.78927">
        <ele>1064.8</ele>
        <time>2021-08-15T14:17:25Z</time>
      </trkpt>
      <trkpt lat="45.15831" lon="2.78926">
        <ele>1064.8</ele>
        <time>2021-08-15T14:17:38Z</time>
      </trkpt>
      <trkpt lat="45.15832" lon="2.78926">
        <ele>1064.8</ele>
        <time>2021-08-15T14:17:48Z</time>
      </trkpt>
      <trkpt lat="45.15832" lon="2.78926">
        <ele>1064.8</ele>
        <time>2021-08-15T14:18:00Z</time>
      </trkpt>
      <trkpt lat="45.15832" lon="2.78928">
        <ele>1064.8</ele>
        <time>2021-08-15T14:18:15Z</time>
      </trkpt>
      <trkpt lat="45.15832" lon="2.78928">
        <ele>1064.8</ele>
        <time>2021-08-15T14:18:29Z</time>
      </trkpt>
      <trkpt lat="45.15832" lon="2.78928">
        <ele>1064.8</ele>
        <time>2021-08-15T14:18:40Z</time>
      </trkpt>
      <trkpt lat="45.15832" lon="2.78926">
        <ele>1064.8</ele>
        <time>2021-08-15T14:18:53Z</time>
      </trkpt>
      <trkpt lat="45.15833" lon="2.78926">
        <ele>1064.8</ele>
        <time>2021-08-15T14:19:06Z</time>
      </trkpt>
      <trkpt lat="45.15834" lon="2.78928">
        <ele>1065.28</ele>
        <time>2021-08-15T14:19:21Z</time>
      </trkpt>
      <trkpt lat="45.15833" lon="2.78928">
        <ele>1065.28</ele>
        <time>2021-08-15T14:19:34Z</time>
      </trkpt>
      <trkpt lat="45.15832" lon="2.78927">
        <ele>1065.28</ele>
        <time>2021-08-15T14:19:49Z</time>
      </trkpt>
      <trkpt lat="45.15831" lon="2.78926">
        <ele>1065.28</ele>
        <time>2021-08-15T14:20:04Z</time>
      </trkpt>
      <trkpt lat="45.15831" lon="2.78926">
        <ele>1065.28</ele>
        <time>2021-08-15T14:20:17Z</time>
      </trkpt>
      <trkpt lat="45.1583" lon="2.78926">
        <ele>1065.28</ele>
        <time>2021-08-15T14:20:31Z</time>
      </trkpt>
      <trkpt lat="45.1583" lon="2.78925">
        <ele>1065.28</ele>
        <time>2021-08-15T14:20:44Z</time>
      </trkpt>
      <trkpt lat="45.1583" lon="2.78925">
        <ele>1065.28</ele>
        <time>2021-08-15T14:20:59Z</time>
      </trkpt>
      <trkpt lat="45.1583" lon="2.78926">
        <ele>1065.28</ele>
        <time>2021-08-15T14:21:14Z</time>
      </trkpt>
      <trkpt lat="45.1583" lon="2.78926">
        <ele>1065.28</ele>
        <time>2021-08-15T14:21:35Z</time>
      </trkpt>
      <trkpt lat="45.15833" lon="2.78927">
        <ele>1065.28</ele>
        <time>2021-08-15T14:21:45Z</time>
      </trkpt>
      <trkpt lat="45.15834" lon="2.78926">
        <ele>1065.28</ele>
        <time>2021-08-15T14:21:47Z</time>
      </trkpt>
      <trkpt lat="45.15835" lon="2.78923">
        <ele>1065.28</ele>
        <time>2021-08-15T14:21:49Z</time>
      </trkpt>
      <trkpt lat="45.15835" lon="2.78921">
        <ele>1065.28</ele>
        <time>2021-08-15T14:21:50Z</time>
      </trkpt>
      <trkpt lat="45.15834" lon="2.78899">
        <ele>1065.28</ele>
        <time>2021-08-15T14:21:57Z</time>
      </trkpt>
      <trkpt lat="45.15841" lon="2.78876">
        <ele>1066.24</ele>
        <time>2021-08-15T14:22:05Z</time>
      </trkpt>
      <trkpt lat="45.15847" lon="2.78859">
        <ele>1067.2</ele>
        <time>2021-08-15T14:22:11Z</time>
      </trkpt>
      <trkpt lat="45.15849" lon="2.78828">
        <ele>1068.16</ele>
        <time>2021-08-15T14:22:20Z</time>
      </trkpt>
      <trkpt lat="45.15847" lon="2.788">
        <ele>1068.16</ele>
        <time>2021-08-15T14:22:28Z</time>
      </trkpt>
      <trkpt lat="45.15842" lon="2.78769">
        <ele>1069.12</ele>
        <time>2021-08-15T14:22:37Z</time>
      </trkpt>
      <trkpt lat="45.15836" lon="2.78734">
        <ele>1070.57</ele>
        <time>2021-08-15T14:22:47Z</time>
      </trkpt>
      <trkpt lat="45.15825" lon="2.78704">
        <ele>1070.57</ele>
        <time>2021-08-15T14:22:56Z</time>
      </trkpt>
      <trkpt lat="45.15802" lon="2.7868">
        <ele>1070.57</ele>
        <time>2021-08-15T14:23:04Z</time>
      </trkpt>
      <trkpt lat="45.15781" lon="2.78666">
        <ele>1069.6</ele>
        <time>2021-08-15T14:23:09Z</time>
      </trkpt>
      <trkpt lat="45.15769" lon="2.78655">
        <ele>1069.12</ele>
        <time>2021-08-15T14:23:12Z</time>
      </trkpt>
      <trkpt lat="45.15765" lon="2.78649">
        <ele>1068.64</ele>
        <time>2021-08-15T14:23:13Z</time>
      </trkpt>
      <trkpt lat="45.1576" lon="2.78643">
        <ele>1068.64</ele>
        <time>2021-08-15T14:23:14Z</time>
      </trkpt>
      <trkpt lat="45.15733" lon="2.78599">
        <ele>1065.28</ele>
        <time>2021-08-15T14:23:20Z</time>
      </trkpt>
      <trkpt lat="45.15729" lon="2.78591">
        <ele>1065.28</ele>
        <time>2021-08-15T14:23:21Z</time>
      </trkpt>
      <trkpt lat="45.15684" lon="2.78521">
        <ele>1062.87</ele>
        <time>2021-08-15T14:23:30Z</time>
      </trkpt>
      <trkpt lat="45.15629" lon="2.78445">
        <ele>1062.39</ele>
        <time>2021-08-15T14:23:40Z</time>
      </trkpt>
      <trkpt lat="45.15586" lon="2.78392">
        <ele>1059.99</ele>
        <time>2021-08-15T14:23:48Z</time>
      </trkpt>
      <trkpt lat="45.1554" lon="2.78332">
        <ele>1059.03</ele>
        <time>2021-08-15T14:23:57Z</time>
      </trkpt>
      <trkpt lat="45.15503" lon="2.78274">
        <ele>1057.59</ele>
        <time>2021-08-15T14:24:05Z</time>
      </trkpt>
      <trkpt lat="45.15465" lon="2.7823">
        <ele>1056.63</ele>
        <time>2021-08-15T14:24:12Z</time>
      </trkpt>
      <trkpt lat="45.15427" lon="2.78179">
        <ele>1056.63</ele>
        <time>2021-08-15T14:24:20Z</time>
      </trkpt>
      <trkpt lat="45.15411" lon="2.78154">
        <ele>1056.63</ele>
        <time>2021-08-15T14:24:24Z</time>
      </trkpt>
      <trkpt lat="45.15407" lon="2.78148">
        <ele>1056.63</ele>
        <time>2021-08-15T14:24:25Z</time>
      </trkpt>
      <trkpt lat="45.15386" lon="2.78095">
        <ele>1058.07</ele>
        <time>2021-08-15T14:24:33Z</time>
      </trkpt>
      <trkpt lat="45.15384" lon="2.78089">
        <ele>1058.07</ele>
        <time>2021-08-15T14:24:34Z</time>
      </trkpt>
      <trkpt lat="45.15375" lon="2.78053">
        <ele>1059.51</ele>
        <time>2021-08-15T14:24:41Z</time>
      </trkpt>
      <trkpt lat="45.15367" lon="2.77996">
        <ele>1059.51</ele>
        <time>2021-08-15T14:24:52Z</time>
      </trkpt>
      <trkpt lat="45.1536" lon="2.77936">
        <ele>1059.99</ele>
        <time>2021-08-15T14:25:03Z</time>
      </trkpt>
      <trkpt lat="45.15351" lon="2.77883">
        <ele>1060.47</ele>
        <time>2021-08-15T14:25:13Z</time>
      </trkpt>
      <trkpt lat="45.15337" lon="2.7784">
        <ele>1060.95</ele>
        <time>2021-08-15T14:25:22Z</time>
      </trkpt>
      <trkpt lat="45.1533" lon="2.77821">
        <ele>1061.43</ele>
        <time>2021-08-15T14:25:28Z</time>
      </trkpt>
      <trkpt lat="45.15314" lon="2.77795">
        <ele>1061.43</ele>
        <time>2021-08-15T14:25:36Z</time>
      </trkpt>
      <trkpt lat="45.15288" lon="2.77774">
        <ele>1061.91</ele>
        <time>2021-08-15T14:25:45Z</time>
      </trkpt>
      <trkpt lat="45.15251" lon="2.77743">
        <ele>1061.91</ele>
        <time>2021-08-15T14:25:56Z</time>
      </trkpt>
      <trkpt lat="45.15227" lon="2.77724">
        <ele>1061.91</ele>
        <time>2021-08-15T14:26:04Z</time>
      </trkpt>
      <trkpt lat="45.15189" lon="2.7769">
        <ele>1062.87</ele>
        <time>2021-08-15T14:26:16Z</time>
      </trkpt>
      <trkpt lat="45.15156" lon="2.77654">
        <ele>1062.87</ele>
        <time>2021-08-15T14:26:27Z</time>
      </trkpt>
      <trkpt lat="45.15139" lon="2.77637">
        <ele>1062.87</ele>
        <time>2021-08-15T14:26:32Z</time>
      </trkpt>
      <trkpt lat="45.15135" lon="2.77633">
        <ele>1062.87</ele>
        <time>2021-08-15T14:26:33Z</time>
      </trkpt>
      <trkpt lat="45.1511" lon="2.77607">
        <ele>1063.36</ele>
        <time>2021-08-15T14:26:41Z</time>
      </trkpt>
      <trkpt lat="45.15081" lon="2.77581">
        <ele>1063.84</ele>
        <time>2021-08-15T14:26:50Z</time>
      </trkpt>
      <trkpt lat="45.1505" lon="2.7755">
        <ele>1064.8</ele>
        <time>2021-08-15T14:27:00Z</time>
      </trkpt>
      <trkpt lat="45.15016" lon="2.7752">
        <ele>1065.76</ele>
        <time>2021-08-15T14:27:11Z</time>
      </trkpt>
      <trkpt lat="45.15002" lon="2.77509">
        <ele>1065.76</ele>
        <time>2021-08-15T14:27:17Z</time>
      </trkpt>
      <trkpt lat="45.14973" lon="2.77488">
        <ele>1066.72</ele>
        <time>2021-08-15T14:27:27Z</time>
      </trkpt>
      <trkpt lat="45.14945" lon="2.77475">
        <ele>1067.2</ele>
        <time>2021-08-15T14:27:37Z</time>
      </trkpt>
      <trkpt lat="45.1492" lon="2.77464">
        <ele>1067.68</ele>
        <time>2021-08-15T14:27:46Z</time>
      </trkpt>
      <trkpt lat="45.14893" lon="2.77447">
        <ele>1068.64</ele>
        <time>2021-08-15T14:27:56Z</time>
      </trkpt>
      <trkpt lat="45.14874" lon="2.77429">
        <ele>1070.08</ele>
        <time>2021-08-15T14:28:04Z</time>
      </trkpt>
      <trkpt lat="45.14852" lon="2.77411">
        <ele>1071.05</ele>
        <time>2021-08-15T14:28:13Z</time>
      </trkpt>
      <trkpt lat="45.1483" lon="2.77391">
        <ele>1071.53</ele>
        <time>2021-08-15T14:28:22Z</time>
      </trkpt>
      <trkpt lat="45.14803" lon="2.77366">
        <ele>1072.49</ele>
        <time>2021-08-15T14:28:33Z</time>
      </trkpt>
      <trkpt lat="45.14783" lon="2.7735">
        <ele>1073.45</ele>
        <time>2021-08-15T14:28:41Z</time>
      </trkpt>
      <trkpt lat="45.14757" lon="2.77326">
        <ele>1074.41</ele>
        <time>2021-08-15T14:28:51Z</time>
      </trkpt>
      <trkpt lat="45.14734" lon="2.7731">
        <ele>1075.85</ele>
        <time>2021-08-15T14:28:58Z</time>
      </trkpt>
      <trkpt lat="45.14704" lon="2.77291">
        <ele>1076.33</ele>
        <time>2021-08-15T14:29:07Z</time>
      </trkpt>
      <trkpt lat="45.14682" lon="2.77278">
        <ele>1077.78</ele>
        <time>2021-08-15T14:29:14Z</time>
      </trkpt>
      <trkpt lat="45.14647" lon="2.77256">
        <ele>1078.26</ele>
        <time>2021-08-15T14:29:26Z</time>
      </trkpt>
      <trkpt lat="45.14621" lon="2.77241">
        <ele>1078.74</ele>
        <time>2021-08-15T14:29:35Z</time>
      </trkpt>
      <trkpt lat="45.14592" lon="2.77222">
        <ele>1079.7</ele>
        <time>2021-08-15T14:29:45Z</time>
      </trkpt>
      <trkpt lat="45.14562" lon="2.77198">
        <ele>1080.66</ele>
        <time>2021-08-15T14:29:56Z</time>
      </trkpt>
      <trkpt lat="45.14539" lon="2.77166">
        <ele>1081.62</ele>
        <time>2021-08-15T14:30:06Z</time>
      </trkpt>
      <trkpt lat="45.14525" lon="2.77137">
        <ele>1082.1</ele>
        <time>2021-08-15T14:30:13Z</time>
      </trkpt>
      <trkpt lat="45.14513" lon="2.77109">
        <ele>1083.54</ele>
        <time>2021-08-15T14:30:20Z</time>
      </trkpt>
      <trkpt lat="45.14489" lon="2.77063">
        <ele>1084.02</ele>
        <time>2021-08-15T14:30:32Z</time>
      </trkpt>
      <trkpt lat="45.14465" lon="2.77032">
        <ele>1084.99</ele>
        <time>2021-08-15T14:30:42Z</time>
      </trkpt>
      <trkpt lat="45.14447" lon="2.77011">
        <ele>1085.95</ele>
        <time>2021-08-15T14:30:49Z</time>
      </trkpt>
      <trkpt lat="45.14417" lon="2.76973">
        <ele>1086.91</ele>
        <time>2021-08-15T14:31:01Z</time>
      </trkpt>
      <trkpt lat="45.14395" lon="2.76944">
        <ele>1087.39</ele>
        <time>2021-08-15T14:31:10Z</time>
      </trkpt>
      <trkpt lat="45.14379" lon="2.76919">
        <ele>1087.39</ele>
        <time>2021-08-15T14:31:18Z</time>
      </trkpt>
      <trkpt lat="45.1436" lon="2.76881">
        <ele>1089.31</ele>
        <time>2021-08-15T14:31:28Z</time>
      </trkpt>
      <trkpt lat="45.14348" lon="2.76851">
        <ele>1089.79</ele>
        <time>2021-08-15T14:31:35Z</time>
      </trkpt>
      <trkpt lat="45.14326" lon="2.76799">
        <ele>1090.27</ele>
        <time>2021-08-15T14:31:48Z</time>
      </trkpt>
      <trkpt lat="45.1431" lon="2.76763">
        <ele>1091.23</ele>
        <time>2021-08-15T14:31:58Z</time>
      </trkpt>
      <trkpt lat="45.14294" lon="2.76727">
        <ele>1092.2</ele>
        <time>2021-08-15T14:32:08Z</time>
      </trkpt>
      <trkpt lat="45.14284" lon="2.76696">
        <ele>1093.64</ele>
        <time>2021-08-15T14:32:16Z</time>
      </trkpt>
      <trkpt lat="45.14268" lon="2.76649">
        <ele>1094.12</ele>
        <time>2021-08-15T14:32:28Z</time>
      </trkpt>
      <trkpt lat="45.14252" lon="2.76598">
        <ele>1095.56</ele>
        <time>2021-08-15T14:32:40Z</time>
      </trkpt>
      <trkpt lat="45.14238" lon="2.76551">
        <ele>1096.04</ele>
        <time>2021-08-15T14:32:51Z</time>
      </trkpt>
      <trkpt lat="45.14234" lon="2.76513">
        <ele>1096.04</ele>
        <time>2021-08-15T14:32:59Z</time>
      </trkpt>
      <trkpt lat="45.14234" lon="2.76477">
        <ele>1097.48</ele>
        <time>2021-08-15T14:33:07Z</time>
      </trkpt>
      <trkpt lat="45.14235" lon="2.76444">
        <ele>1098.92</ele>
        <time>2021-08-15T14:33:15Z</time>
      </trkpt>
      <trkpt lat="45.14236" lon="2.76398">
        <ele>1097.96</ele>
        <time>2021-08-15T14:33:26Z</time>
      </trkpt>
      <trkpt lat="45.14239" lon="2.7638">
        <ele>1099.4</ele>
        <time>2021-08-15T14:33:30Z</time>
      </trkpt>
      <trkpt lat="45.14245" lon="2.76337">
        <ele>1099.4</ele>
        <time>2021-08-15T14:33:40Z</time>
      </trkpt>
      <trkpt lat="45.14252" lon="2.76304">
        <ele>1099.89</ele>
        <time>2021-08-15T14:33:48Z</time>
      </trkpt>
      <trkpt lat="45.14262" lon="2.76254">
        <ele>1101.33</ele>
        <time>2021-08-15T14:33:59Z</time>
      </trkpt>
      <trkpt lat="45.14268" lon="2.76225">
        <ele>1101.81</ele>
        <time>2021-08-15T14:34:06Z</time>
      </trkpt>
      <trkpt lat="45.14272" lon="2.76199">
        <ele>1102.29</ele>
        <time>2021-08-15T14:34:12Z</time>
      </trkpt>
      <trkpt lat="45.14278" lon="2.76161">
        <ele>1102.77</ele>
        <time>2021-08-15T14:34:20Z</time>
      </trkpt>
      <trkpt lat="45.14283" lon="2.76118">
        <ele>1103.25</ele>
        <time>2021-08-15T14:34:29Z</time>
      </trkpt>
      <trkpt lat="45.14284" lon="2.76079">
        <ele>1104.21</ele>
        <time>2021-08-15T14:34:38Z</time>
      </trkpt>
      <trkpt lat="45.14285" lon="2.76036">
        <ele>1104.69</ele>
        <time>2021-08-15T14:34:48Z</time>
      </trkpt>
      <trkpt lat="45.14284" lon="2.75995">
        <ele>1105.65</ele>
        <time>2021-08-15T14:34:58Z</time>
      </trkpt>
      <trkpt lat="45.14284" lon="2.75957">
        <ele>1106.61</ele>
        <time>2021-08-15T14:35:07Z</time>
      </trkpt>
      <trkpt lat="45.14283" lon="2.7592">
        <ele>1107.1</ele>
        <time>2021-08-15T14:35:15Z</time>
      </trkpt>
      <trkpt lat="45.14276" lon="2.75865">
        <ele>1108.06</ele>
        <time>2021-08-15T14:35:27Z</time>
      </trkpt>
      <trkpt lat="45.14266" lon="2.75812">
        <ele>1108.54</ele>
        <time>2021-08-15T14:35:38Z</time>
      </trkpt>
      <trkpt lat="45.14263" lon="2.75754">
        <ele>1108.54</ele>
        <time>2021-08-15T14:35:48Z</time>
      </trkpt>
      <trkpt lat="45.14257" lon="2.757">
        <ele>1109.5</ele>
        <time>2021-08-15T14:35:58Z</time>
      </trkpt>
      <trkpt lat="45.1424" lon="2.75642">
        <ele>1109.5</ele>
        <time>2021-08-15T14:36:08Z</time>
      </trkpt>
      <trkpt lat="45.14217" lon="2.75563">
        <ele>1109.5</ele>
        <time>2021-08-15T14:36:20Z</time>
      </trkpt>
      <trkpt lat="45.14214" lon="2.75549">
        <ele>1109.5</ele>
        <time>2021-08-15T14:36:22Z</time>
      </trkpt>
      <trkpt lat="45.14212" lon="2.75534">
        <ele>1109.5</ele>
        <time>2021-08-15T14:36:24Z</time>
      </trkpt>
      <trkpt lat="45.14211" lon="2.75528">
        <ele>1109.5</ele>
        <time>2021-08-15T14:36:25Z</time>
      </trkpt>
      <trkpt lat="45.14211" lon="2.75521">
        <ele>1109.5</ele>
        <time>2021-08-15T14:36:26Z</time>
      </trkpt>
      <trkpt lat="45.14203" lon="2.75459">
        <ele>1109.5</ele>
        <time>2021-08-15T14:36:35Z</time>
      </trkpt>
      <trkpt lat="45.14198" lon="2.75437">
        <ele>1109.5</ele>
        <time>2021-08-15T14:36:38Z</time>
      </trkpt>
      <trkpt lat="45.14195" lon="2.7543">
        <ele>1109.5</ele>
        <time>2021-08-15T14:36:39Z</time>
      </trkpt>
      <trkpt lat="45.14193" lon="2.75422">
        <ele>1109.5</ele>
        <time>2021-08-15T14:36:40Z</time>
      </trkpt>
      <trkpt lat="45.14171" lon="2.75358">
        <ele>1109.5</ele>
        <time>2021-08-15T14:36:50Z</time>
      </trkpt>
      <trkpt lat="45.14158" lon="2.75314">
        <ele>1109.5</ele>
        <time>2021-08-15T14:36:58Z</time>
      </trkpt>
      <trkpt lat="45.14143" lon="2.7527">
        <ele>1109.98</ele>
        <time>2021-08-15T14:37:06Z</time>
      </trkpt>
      <trkpt lat="45.14126" lon="2.75212">
        <ele>1110.94</ele>
        <time>2021-08-15T14:37:16Z</time>
      </trkpt>
      <trkpt lat="45.14115" lon="2.75156">
        <ele>1111.9</ele>
        <time>2021-08-15T14:37:26Z</time>
      </trkpt>
      <trkpt lat="45.14107" lon="2.75103">
        <ele>1112.86</ele>
        <time>2021-08-15T14:37:35Z</time>
      </trkpt>
      <trkpt lat="45.14101" lon="2.75074">
        <ele>1112.38</ele>
        <time>2021-08-15T14:37:40Z</time>
      </trkpt>
      <trkpt lat="45.141" lon="2.75069">
        <ele>1112.86</ele>
        <time>2021-08-15T14:37:41Z</time>
      </trkpt>
      <trkpt lat="45.14097" lon="2.75063">
        <ele>1112.86</ele>
        <time>2021-08-15T14:37:42Z</time>
      </trkpt>
      <trkpt lat="45.14083" lon="2.75039">
        <ele>1112.86</ele>
        <time>2021-08-15T14:37:47Z</time>
      </trkpt>
      <trkpt lat="45.1408" lon="2.75035">
        <ele>1112.86</ele>
        <time>2021-08-15T14:37:48Z</time>
      </trkpt>
      <trkpt lat="45.1405" lon="2.74991">
        <ele>1114.31</ele>
        <time>2021-08-15T14:37:58Z</time>
      </trkpt>
      <trkpt lat="45.14047" lon="2.74985">
        <ele>1114.31</ele>
        <time>2021-08-15T14:37:59Z</time>
      </trkpt>
      <trkpt lat="45.14045" lon="2.7498">
        <ele>1114.31</ele>
        <time>2021-08-15T14:38:00Z</time>
      </trkpt>
      <trkpt lat="45.14037" lon="2.74931">
        <ele>1115.27</ele>
        <time>2021-08-15T14:38:09Z</time>
      </trkpt>
      <trkpt lat="45.14021" lon="2.74897">
        <ele>1115.27</ele>
        <time>2021-08-15T14:38:17Z</time>
      </trkpt>
      <trkpt lat="45.14007" lon="2.74874">
        <ele>1115.75</ele>
        <time>2021-08-15T14:38:24Z</time>
      </trkpt>
      <trkpt lat="45.14" lon="2.74859">
        <ele>1116.23</ele>
        <time>2021-08-15T14:38:31Z</time>
      </trkpt>
      <trkpt lat="45.14" lon="2.7486">
        <ele>1116.23</ele>
        <time>2021-08-15T14:38:40Z</time>
      </trkpt>
      <trkpt lat="45.13994" lon="2.74858">
        <ele>1116.23</ele>
        <time>2021-08-15T14:38:45Z</time>
      </trkpt>
      <trkpt lat="45.13991" lon="2.74859">
        <ele>1116.23</ele>
        <time>2021-08-15T14:38:50Z</time>
      </trkpt>
      <trkpt lat="45.13991" lon="2.7486">
        <ele>1116.23</ele>
        <time>2021-08-15T14:38:58Z</time>
      </trkpt>
      <trkpt lat="45.13992" lon="2.74859">
        <ele>1116.23</ele>
        <time>2021-08-15T14:39:06Z</time>
      </trkpt>
      <trkpt lat="45.1399" lon="2.74857">
        <ele>1116.23</ele>
        <time>2021-08-15T14:39:26Z</time>
      </trkpt>
      <trkpt lat="45.13991" lon="2.74855">
        <ele>1116.23</ele>
        <time>2021-08-15T14:39:55Z</time>
      </trkpt>
      <trkpt lat="45.13992" lon="2.74855">
        <ele>1116.71</ele>
        <time>2021-08-15T14:40:17Z</time>
      </trkpt>
      <trkpt lat="45.13992" lon="2.74855">
        <ele>1116.71</ele>
        <time>2021-08-15T14:40:47Z</time>
      </trkpt>
      <trkpt lat="45.13992" lon="2.74855">
        <ele>1116.71</ele>
        <time>2021-08-15T14:41:12Z</time>
      </trkpt>
      <trkpt lat="45.13994" lon="2.74856">
        <ele>1116.71</ele>
        <time>2021-08-15T14:41:28Z</time>
      </trkpt>
      <trkpt lat="45.13992" lon="2.74857">
        <ele>1116.71</ele>
        <time>2021-08-15T14:42:01Z</time>
      </trkpt>
      <trkpt lat="45.13989" lon="2.74857">
        <ele>1116.71</ele>
        <time>2021-08-15T14:42:23Z</time>
      </trkpt>
      <trkpt lat="45.1399" lon="2.74855">
        <ele>1116.23</ele>
        <time>2021-08-15T14:42:54Z</time>
      </trkpt>
      <trkpt lat="45.1399" lon="2.74855">
        <ele>1116.23</ele>
        <time>2021-08-15T14:43:17Z</time>
      </trkpt>
      <trkpt lat="45.13989" lon="2.74854">
        <ele>1116.23</ele>
        <time>2021-08-15T14:43:41Z</time>
      </trkpt>
      <trkpt lat="45.13992" lon="2.74857">
        <ele>1116.23</ele>
        <time>2021-08-15T14:44:11Z</time>
      </trkpt>
      <trkpt lat="45.13991" lon="2.74857">
        <ele>1116.23</ele>
        <time>2021-08-15T14:44:31Z</time>
      </trkpt>
      <trkpt lat="45.1399" lon="2.74859">
        <ele>1116.23</ele>
        <time>2021-08-15T14:44:54Z</time>
      </trkpt>
      <trkpt lat="45.13991" lon="2.74856">
        <ele>1116.23</ele>
        <time>2021-08-15T14:45:20Z</time>
      </trkpt>
      <trkpt lat="45.13992" lon="2.74859">
        <ele>1116.23</ele>
        <time>2021-08-15T14:45:42Z</time>
      </trkpt>
      <trkpt lat="45.13993" lon="2.74861">
        <ele>1116.23</ele>
        <time>2021-08-15T14:46:05Z</time>
      </trkpt>
      <trkpt lat="45.13995" lon="2.74862">
        <ele>1115.75</ele>
        <time>2021-08-15T14:46:22Z</time>
      </trkpt>
      <trkpt lat="45.13994" lon="2.7486">
        <ele>1115.75</ele>
        <time>2021-08-15T14:46:31Z</time>
      </trkpt>
      <trkpt lat="45.13994" lon="2.74856">
        <ele>1115.75</ele>
        <time>2021-08-15T14:46:54Z</time>
      </trkpt>
      <trkpt lat="45.13993" lon="2.74854">
        <ele>1115.75</ele>
        <time>2021-08-15T14:47:19Z</time>
      </trkpt>
      <trkpt lat="45.13996" lon="2.74858">
        <ele>1115.75</ele>
        <time>2021-08-15T14:47:29Z</time>
      </trkpt>
      <trkpt lat="45.13996" lon="2.74857">
        <ele>1116.23</ele>
        <time>2021-08-15T14:47:35Z</time>
      </trkpt>
      <trkpt lat="45.13996" lon="2.74855">
        <ele>1116.23</ele>
        <time>2021-08-15T14:47:45Z</time>
      </trkpt>
      <trkpt lat="45.13997" lon="2.74854">
        <ele>1116.23</ele>
        <time>2021-08-15T14:47:47Z</time>
      </trkpt>
      <trkpt lat="45.13997" lon="2.74851">
        <ele>1116.23</ele>
        <time>2021-08-15T14:47:48Z</time>
      </trkpt>
      <trkpt lat="45.13997" lon="2.7485">
        <ele>1116.23</ele>
        <time>2021-08-15T14:47:49Z</time>
      </trkpt>
      <trkpt lat="45.13996" lon="2.74847">
        <ele>1116.23</ele>
        <time>2021-08-15T14:47:50Z</time>
      </trkpt>
      <trkpt lat="45.13995" lon="2.74844">
        <ele>1116.23</ele>
        <time>2021-08-15T14:47:51Z</time>
      </trkpt>
      <trkpt lat="45.13994" lon="2.74841">
        <ele>1116.23</ele>
        <time>2021-08-15T14:47:52Z</time>
      </trkpt>
      <trkpt lat="45.13983" lon="2.74818">
        <ele>1116.23</ele>
        <time>2021-08-15T14:48:00Z</time>
      </trkpt>
      <trkpt lat="45.13963" lon="2.74797">
        <ele>1116.71</ele>
        <time>2021-08-15T14:48:08Z</time>
      </trkpt>
      <trkpt lat="45.13943" lon="2.74773">
        <ele>1116.71</ele>
        <time>2021-08-15T14:48:16Z</time>
      </trkpt>
      <trkpt lat="45.13928" lon="2.74731">
        <ele>1117.67</ele>
        <time>2021-08-15T14:48:26Z</time>
      </trkpt>
      <trkpt lat="45.13914" lon="2.74701">
        <ele>1117.67</ele>
        <time>2021-08-15T14:48:34Z</time>
      </trkpt>
      <trkpt lat="45.13891" lon="2.74673">
        <ele>1118.15</ele>
        <time>2021-08-15T14:48:43Z</time>
      </trkpt>
      <trkpt lat="45.13871" lon="2.74639">
        <ele>1118.15</ele>
        <time>2021-08-15T14:48:52Z</time>
      </trkpt>
      <trkpt lat="45.13854" lon="2.7459">
        <ele>1118.63</ele>
        <time>2021-08-15T14:49:03Z</time>
      </trkpt>
      <trkpt lat="45.13836" lon="2.74559">
        <ele>1119.11</ele>
        <time>2021-08-15T14:49:11Z</time>
      </trkpt>
      <trkpt lat="45.13824" lon="2.7452">
        <ele>1120.07</ele>
        <time>2021-08-15T14:49:20Z</time>
      </trkpt>
      <trkpt lat="45.1382" lon="2.74475">
        <ele>1120.55</ele>
        <time>2021-08-15T14:49:29Z</time>
      </trkpt>
      <trkpt lat="45.13814" lon="2.74435">
        <ele>1120.55</ele>
        <time>2021-08-15T14:49:37Z</time>
      </trkpt>
      <trkpt lat="45.13808" lon="2.74412">
        <ele>1121.52</ele>
        <time>2021-08-15T14:49:43Z</time>
      </trkpt>
      <trkpt lat="45.13793" lon="2.74388">
        <ele>1123.44</ele>
        <time>2021-08-15T14:49:53Z</time>
      </trkpt>
      <trkpt lat="45.13784" lon="2.74371">
        <ele>1124.88</ele>
        <time>2021-08-15T14:50:02Z</time>
      </trkpt>
      <trkpt lat="45.13777" lon="2.74352">
        <ele>1125.84</ele>
        <time>2021-08-15T14:50:12Z</time>
      </trkpt>
      <trkpt lat="45.13772" lon="2.74328">
        <ele>1126.8</ele>
        <time>2021-08-15T14:50:22Z</time>
      </trkpt>
      <trkpt lat="45.13767" lon="2.74301">
        <ele>1129.21</ele>
        <time>2021-08-15T14:50:34Z</time>
      </trkpt>
      <trkpt lat="45.13764" lon="2.74279">
        <ele>1129.69</ele>
        <time>2021-08-15T14:50:43Z</time>
      </trkpt>
      <trkpt lat="45.13762" lon="2.74255">
        <ele>1131.13</ele>
        <time>2021-08-15T14:50:52Z</time>
      </trkpt>
      <trkpt lat="45.13758" lon="2.74232">
        <ele>1132.09</ele>
        <time>2021-08-15T14:51:01Z</time>
      </trkpt>
      <trkpt lat="45.13755" lon="2.74211">
        <ele>1133.53</ele>
        <time>2021-08-15T14:51:10Z</time>
      </trkpt>
      <trkpt lat="45.13753" lon="2.74193">
        <ele>1134.49</ele>
        <time>2021-08-15T14:51:18Z</time>
      </trkpt>
      <trkpt lat="45.13752" lon="2.74186">
        <ele>1134.97</ele>
        <time>2021-08-15T14:51:21Z</time>
      </trkpt>
      <trkpt lat="45.13751" lon="2.74184">
        <ele>1134.97</ele>
        <time>2021-08-15T14:51:22Z</time>
      </trkpt>
      <trkpt lat="45.1375" lon="2.74181">
        <ele>1134.97</ele>
        <time>2021-08-15T14:51:23Z</time>
      </trkpt>
      <trkpt lat="45.13747" lon="2.74154">
        <ele>1136.9</ele>
        <time>2021-08-15T14:51:34Z</time>
      </trkpt>
      <trkpt lat="45.13745" lon="2.74125">
        <ele>1137.86</ele>
        <time>2021-08-15T14:51:45Z</time>
      </trkpt>
      <trkpt lat="45.13741" lon="2.74101">
        <ele>1138.82</ele>
        <time>2021-08-15T14:51:55Z</time>
      </trkpt>
      <trkpt lat="45.13735" lon="2.74087">
        <ele>1140.26</ele>
        <time>2021-08-15T14:52:02Z</time>
      </trkpt>
      <trkpt lat="45.13728" lon="2.74069">
        <ele>1141.7</ele>
        <time>2021-08-15T14:52:10Z</time>
      </trkpt>
      <trkpt lat="45.13725" lon="2.74045">
        <ele>1143.14</ele>
        <time>2021-08-15T14:52:20Z</time>
      </trkpt>
      <trkpt lat="45.13727" lon="2.74024">
        <ele>1144.59</ele>
        <time>2021-08-15T14:52:29Z</time>
      </trkpt>
      <trkpt lat="45.1373" lon="2.74007">
        <ele>1145.55</ele>
        <time>2021-08-15T14:52:36Z</time>
      </trkpt>
      <trkpt lat="45.13728" lon="2.73987">
        <ele>1146.99</ele>
        <time>2021-08-15T14:52:44Z</time>
      </trkpt>
      <trkpt lat="45.1372" lon="2.73967">
        <ele>1148.43</ele>
        <time>2021-08-15T14:52:53Z</time>
      </trkpt>
      <trkpt lat="45.1371" lon="2.73947">
        <ele>1149.87</ele>
        <time>2021-08-15T14:53:02Z</time>
      </trkpt>
      <trkpt lat="45.13701" lon="2.73929">
        <ele>1150.84</ele>
        <time>2021-08-15T14:53:10Z</time>
      </trkpt>
      <trkpt lat="45.13693" lon="2.739">
        <ele>1152.28</ele>
        <time>2021-08-15T14:53:21Z</time>
      </trkpt>
      <trkpt lat="45.13688" lon="2.73871">
        <ele>1154.2</ele>
        <time>2021-08-15T14:53:32Z</time>
      </trkpt>
      <trkpt lat="45.13682" lon="2.7385">
        <ele>1155.16</ele>
        <time>2021-08-15T14:53:41Z</time>
      </trkpt>
      <trkpt lat="45.13675" lon="2.7383">
        <ele>1156.12</ele>
        <time>2021-08-15T14:53:49Z</time>
      </trkpt>
      <trkpt lat="45.13664" lon="2.73806">
        <ele>1157.56</ele>
        <time>2021-08-15T14:53:59Z</time>
      </trkpt>
      <trkpt lat="45.13656" lon="2.73785">
        <ele>1158.53</ele>
        <time>2021-08-15T14:54:08Z</time>
      </trkpt>
      <trkpt lat="45.13646" lon="2.7376">
        <ele>1159.49</ele>
        <time>2021-08-15T14:54:18Z</time>
      </trkpt>
      <trkpt lat="45.13636" lon="2.73736">
        <ele>1160.93</ele>
        <time>2021-08-15T14:54:28Z</time>
      </trkpt>
      <trkpt lat="45.13625" lon="2.73711">
        <ele>1161.89</ele>
        <time>2021-08-15T14:54:38Z</time>
      </trkpt>
      <trkpt lat="45.13621" lon="2.73689">
        <ele>1163.33</ele>
        <time>2021-08-15T14:54:46Z</time>
      </trkpt>
      <trkpt lat="45.1362" lon="2.73666">
        <ele>1164.77</ele>
        <time>2021-08-15T14:54:53Z</time>
      </trkpt>
      <trkpt lat="45.13617" lon="2.73637">
        <ele>1166.7</ele>
        <time>2021-08-15T14:55:02Z</time>
      </trkpt>
      <trkpt lat="45.13616" lon="2.73612">
        <ele>1168.14</ele>
        <time>2021-08-15T14:55:11Z</time>
      </trkpt>
      <trkpt lat="45.13618" lon="2.73585">
        <ele>1169.58</ele>
        <time>2021-08-15T14:55:21Z</time>
      </trkpt>
      <trkpt lat="45.13618" lon="2.73557">
        <ele>1170.54</ele>
        <time>2021-08-15T14:55:30Z</time>
      </trkpt>
      <trkpt lat="45.13616" lon="2.73528">
        <ele>1171.98</ele>
        <time>2021-08-15T14:55:40Z</time>
      </trkpt>
      <trkpt lat="45.13612" lon="2.73494">
        <ele>1173.43</ele>
        <time>2021-08-15T14:55:52Z</time>
      </trkpt>
      <trkpt lat="45.13612" lon="2.73466">
        <ele>1174.87</ele>
        <time>2021-08-15T14:56:02Z</time>
      </trkpt>
      <trkpt lat="45.13611" lon="2.73438">
        <ele>1176.31</ele>
        <time>2021-08-15T14:56:12Z</time>
      </trkpt>
      <trkpt lat="45.13611" lon="2.73416">
        <ele>1177.27</ele>
        <time>2021-08-15T14:56:20Z</time>
      </trkpt>
      <trkpt lat="45.13611" lon="2.73414">
        <ele>1177.27</ele>
        <time>2021-08-15T14:56:21Z</time>
      </trkpt>
      <trkpt lat="45.13612" lon="2.73383">
        <ele>1179.19</ele>
        <time>2021-08-15T14:56:32Z</time>
      </trkpt>
      <trkpt lat="45.13614" lon="2.73361">
        <ele>1180.16</ele>
        <time>2021-08-15T14:56:40Z</time>
      </trkpt>
      <trkpt lat="45.13618" lon="2.73332">
        <ele>1182.08</ele>
        <time>2021-08-15T14:56:51Z</time>
      </trkpt>
      <trkpt lat="45.13623" lon="2.73305">
        <ele>1183.52</ele>
        <time>2021-08-15T14:57:01Z</time>
      </trkpt>
      <trkpt lat="45.1362" lon="2.73282">
        <ele>1184.96</ele>
        <time>2021-08-15T14:57:10Z</time>
      </trkpt>
      <trkpt lat="45.13621" lon="2.73254">
        <ele>1186.4</ele>
        <time>2021-08-15T14:57:20Z</time>
      </trkpt>
      <trkpt lat="45.13625" lon="2.73229">
        <ele>1188.33</ele>
        <time>2021-08-15T14:57:29Z</time>
      </trkpt>
      <trkpt lat="45.13631" lon="2.73204">
        <ele>1189.77</ele>
        <time>2021-08-15T14:57:38Z</time>
      </trkpt>
      <trkpt lat="45.13632" lon="2.73187">
        <ele>1190.73</ele>
        <time>2021-08-15T14:57:44Z</time>
      </trkpt>
      <trkpt lat="45.13631" lon="2.73183">
        <ele>1190.73</ele>
        <time>2021-08-15T14:57:45Z</time>
      </trkpt>
      <trkpt lat="45.1363" lon="2.73181">
        <ele>1190.73</ele>
        <time>2021-08-15T14:57:46Z</time>
      </trkpt>
      <trkpt lat="45.13629" lon="2.73179">
        <ele>1190.73</ele>
        <time>2021-08-15T14:57:47Z</time>
      </trkpt>
      <trkpt lat="45.13628" lon="2.73176">
        <ele>1190.73</ele>
        <time>2021-08-15T14:57:48Z</time>
      </trkpt>
      <trkpt lat="45.13626" lon="2.73173">
        <ele>1190.73</ele>
        <time>2021-08-15T14:57:49Z</time>
      </trkpt>
      <trkpt lat="45.13623" lon="2.73169">
        <ele>1191.21</ele>
        <time>2021-08-15T14:57:51Z</time>
      </trkpt>
      <trkpt lat="45.13612" lon="2.73146">
        <ele>1192.17</ele>
        <time>2021-08-15T14:57:59Z</time>
      </trkpt>
      <trkpt lat="45.13599" lon="2.73114">
        <ele>1194.09</ele>
        <time>2021-08-15T14:58:10Z</time>
      </trkpt>
      <trkpt lat="45.13584" lon="2.73082">
        <ele>1196.02</ele>
        <time>2021-08-15T14:58:21Z</time>
      </trkpt>
      <trkpt lat="45.13567" lon="2.73049">
        <ele>1197.46</ele>
        <time>2021-08-15T14:58:32Z</time>
      </trkpt>
      <trkpt lat="45.13552" lon="2.73019">
        <ele>1198.9</ele>
        <time>2021-08-15T14:58:43Z</time>
      </trkpt>
      <trkpt lat="45.13542" lon="2.73002">
        <ele>1200.34</ele>
        <time>2021-08-15T14:58:50Z</time>
      </trkpt>
      <trkpt lat="45.13531" lon="2.72979">
        <ele>1201.79</ele>
        <time>2021-08-15T14:58:59Z</time>
      </trkpt>
      <trkpt lat="45.13525" lon="2.72959">
        <ele>1202.75</ele>
        <time>2021-08-15T14:59:06Z</time>
      </trkpt>
      <trkpt lat="45.13518" lon="2.72939">
        <ele>1204.19</ele>
        <time>2021-08-15T14:59:13Z</time>
      </trkpt>
      <trkpt lat="45.13506" lon="2.72915">
        <ele>1205.63</ele>
        <time>2021-08-15T14:59:23Z</time>
      </trkpt>
      <trkpt lat="45.13498" lon="2.72887">
        <ele>1206.59</ele>
        <time>2021-08-15T14:59:32Z</time>
      </trkpt>
      <trkpt lat="45.13494" lon="2.72865">
        <ele>1207.55</ele>
        <time>2021-08-15T14:59:38Z</time>
      </trkpt>
      <trkpt lat="45.13486" lon="2.72835">
        <ele>1209</ele>
        <time>2021-08-15T14:59:47Z</time>
      </trkpt>
      <trkpt lat="45.13483" lon="2.7281">
        <ele>1210.44</ele>
        <time>2021-08-15T14:59:55Z</time>
      </trkpt>
      <trkpt lat="45.13478" lon="2.72788">
        <ele>1211.88</ele>
        <time>2021-08-15T15:00:02Z</time>
      </trkpt>
      <trkpt lat="45.13478" lon="2.72786">
        <ele>1211.88</ele>
        <time>2021-08-15T15:00:03Z</time>
      </trkpt>
      <trkpt lat="45.13478" lon="2.72783">
        <ele>1211.88</ele>
        <time>2021-08-15T15:00:04Z</time>
      </trkpt>
      <trkpt lat="45.13478" lon="2.72779">
        <ele>1211.88</ele>
        <time>2021-08-15T15:00:05Z</time>
      </trkpt>
      <trkpt lat="45.13477" lon="2.72775">
        <ele>1212.36</ele>
        <time>2021-08-15T15:00:06Z</time>
      </trkpt>
      <trkpt lat="45.13472" lon="2.72747">
        <ele>1213.32</ele>
        <time>2021-08-15T15:00:14Z</time>
      </trkpt>
      <trkpt lat="45.13465" lon="2.72718">
        <ele>1214.28</ele>
        <time>2021-08-15T15:00:23Z</time>
      </trkpt>
      <trkpt lat="45.1346" lon="2.72683">
        <ele>1215.72</ele>
        <time>2021-08-15T15:00:32Z</time>
      </trkpt>
      <trkpt lat="45.13457" lon="2.72633">
        <ele>1218.13</ele>
        <time>2021-08-15T15:00:45Z</time>
      </trkpt>
      <trkpt lat="45.13456" lon="2.72586">
        <ele>1219.57</ele>
        <time>2021-08-15T15:00:57Z</time>
      </trkpt>
      <trkpt lat="45.13455" lon="2.72549">
        <ele>1221.01</ele>
        <time>2021-08-15T15:01:08Z</time>
      </trkpt>
      <trkpt lat="45.13453" lon="2.7252">
        <ele>1222.93</ele>
        <time>2021-08-15T15:01:17Z</time>
      </trkpt>
      <trkpt lat="45.1345" lon="2.72493">
        <ele>1223.9</ele>
        <time>2021-08-15T15:01:26Z</time>
      </trkpt>
      <trkpt lat="45.13448" lon="2.72462">
        <ele>1225.34</ele>
        <time>2021-08-15T15:01:36Z</time>
      </trkpt>
      <trkpt lat="45.13445" lon="2.72424">
        <ele>1226.3</ele>
        <time>2021-08-15T15:01:48Z</time>
      </trkpt>
      <trkpt lat="45.13443" lon="2.72398">
        <ele>1228.22</ele>
        <time>2021-08-15T15:01:57Z</time>
      </trkpt>
      <trkpt lat="45.13448" lon="2.72372">
        <ele>1229.18</ele>
        <time>2021-08-15T15:02:06Z</time>
      </trkpt>
      <trkpt lat="45.13456" lon="2.72354">
        <ele>1230.62</ele>
        <time>2021-08-15T15:02:13Z</time>
      </trkpt>
      <trkpt lat="45.13466" lon="2.72339">
        <ele>1231.59</ele>
        <time>2021-08-15T15:02:20Z</time>
      </trkpt>
      <trkpt lat="45.13463" lon="2.7232">
        <ele>1232.55</ele>
        <time>2021-08-15T15:02:27Z</time>
      </trkpt>
      <trkpt lat="45.13447" lon="2.72298">
        <ele>1233.03</ele>
        <time>2021-08-15T15:02:36Z</time>
      </trkpt>
      <trkpt lat="45.1344" lon="2.72274">
        <ele>1234.47</ele>
        <time>2021-08-15T15:02:43Z</time>
      </trkpt>
      <trkpt lat="45.13439" lon="2.72249">
        <ele>1235.43</ele>
        <time>2021-08-15T15:02:50Z</time>
      </trkpt>
      <trkpt lat="45.13437" lon="2.72217">
        <ele>1236.87</ele>
        <time>2021-08-15T15:02:59Z</time>
      </trkpt>
      <trkpt lat="45.13427" lon="2.72193">
        <ele>1237.83</ele>
        <time>2021-08-15T15:03:08Z</time>
      </trkpt>
      <trkpt lat="45.13411" lon="2.72164">
        <ele>1239.76</ele>
        <time>2021-08-15T15:03:20Z</time>
      </trkpt>
      <trkpt lat="45.13396" lon="2.72134">
        <ele>1241.68</ele>
        <time>2021-08-15T15:03:32Z</time>
      </trkpt>
      <trkpt lat="45.13386" lon="2.72113">
        <ele>1242.16</ele>
        <time>2021-08-15T15:03:40Z</time>
      </trkpt>
      <trkpt lat="45.13378" lon="2.72089">
        <ele>1243.6</ele>
        <time>2021-08-15T15:03:49Z</time>
      </trkpt>
      <trkpt lat="45.13371" lon="2.72051">
        <ele>1245.53</ele>
        <time>2021-08-15T15:04:02Z</time>
      </trkpt>
      <trkpt lat="45.13367" lon="2.72017">
        <ele>1247.45</ele>
        <time>2021-08-15T15:04:14Z</time>
      </trkpt>
      <trkpt lat="45.13364" lon="2.71987">
        <ele>1248.41</ele>
        <time>2021-08-15T15:04:25Z</time>
      </trkpt>
      <trkpt lat="45.13361" lon="2.71956">
        <ele>1249.37</ele>
        <time>2021-08-15T15:04:37Z</time>
      </trkpt>
      <trkpt lat="45.13358" lon="2.71931">
        <ele>1250.81</ele>
        <time>2021-08-15T15:04:46Z</time>
      </trkpt>
      <trkpt lat="45.13356" lon="2.7191">
        <ele>1251.77</ele>
        <time>2021-08-15T15:04:53Z</time>
      </trkpt>
      <trkpt lat="45.13353" lon="2.71884">
        <ele>1252.74</ele>
        <time>2021-08-15T15:05:02Z</time>
      </trkpt>
      <trkpt lat="45.13349" lon="2.71856">
        <ele>1254.18</ele>
        <time>2021-08-15T15:05:12Z</time>
      </trkpt>
      <trkpt lat="45.13346" lon="2.71833">
        <ele>1254.66</ele>
        <time>2021-08-15T15:05:19Z</time>
      </trkpt>
      <trkpt lat="45.13342" lon="2.7181">
        <ele>1256.1</ele>
        <time>2021-08-15T15:05:26Z</time>
      </trkpt>
      <trkpt lat="45.13338" lon="2.71784">
        <ele>1257.06</ele>
        <time>2021-08-15T15:05:35Z</time>
      </trkpt>
      <trkpt lat="45.13335" lon="2.71758">
        <ele>1258.98</ele>
        <time>2021-08-15T15:05:44Z</time>
      </trkpt>
      <trkpt lat="45.1333" lon="2.71727">
        <ele>1259.94</ele>
        <time>2021-08-15T15:05:55Z</time>
      </trkpt>
      <trkpt lat="45.13325" lon="2.71701">
        <ele>1261.39</ele>
        <time>2021-08-15T15:06:04Z</time>
      </trkpt>
      <trkpt lat="45.13321" lon="2.71672">
        <ele>1262.83</ele>
        <time>2021-08-15T15:06:14Z</time>
      </trkpt>
      <trkpt lat="45.13317" lon="2.71651">
        <ele>1263.79</ele>
        <time>2021-08-15T15:06:21Z</time>
      </trkpt>
      <trkpt lat="45.13314" lon="2.71625">
        <ele>1264.27</ele>
        <time>2021-08-15T15:06:30Z</time>
      </trkpt>
      <trkpt lat="45.13312" lon="2.71619">
        <ele>1265.71</ele>
        <time>2021-08-15T15:06:32Z</time>
      </trkpt>
      <trkpt lat="45.13308" lon="2.71591">
        <ele>1266.19</ele>
        <time>2021-08-15T15:06:42Z</time>
      </trkpt>
      <trkpt lat="45.13303" lon="2.71564">
        <ele>1267.16</ele>
        <time>2021-08-15T15:06:52Z</time>
      </trkpt>
      <trkpt lat="45.133" lon="2.71543">
        <ele>1268.6</ele>
        <time>2021-08-15T15:06:59Z</time>
      </trkpt>
      <trkpt lat="45.13295" lon="2.71512">
        <ele>1270.04</ele>
        <time>2021-08-15T15:07:09Z</time>
      </trkpt>
      <trkpt lat="45.13291" lon="2.71481">
        <ele>1271.48</ele>
        <time>2021-08-15T15:07:19Z</time>
      </trkpt>
      <trkpt lat="45.13286" lon="2.7145">
        <ele>1271.96</ele>
        <time>2021-08-15T15:07:29Z</time>
      </trkpt>
      <trkpt lat="45.13281" lon="2.71413">
        <ele>1273.4</ele>
        <time>2021-08-15T15:07:40Z</time>
      </trkpt>
      <trkpt lat="45.13274" lon="2.71378">
        <ele>1274.36</ele>
        <time>2021-08-15T15:07:51Z</time>
      </trkpt>
      <trkpt lat="45.13268" lon="2.71349">
        <ele>1275.33</ele>
        <time>2021-08-15T15:08:00Z</time>
      </trkpt>
      <trkpt lat="45.13259" lon="2.71314">
        <ele>1277.25</ele>
        <time>2021-08-15T15:08:11Z</time>
      </trkpt>
      <trkpt lat="45.13251" lon="2.71273">
        <ele>1278.69</ele>
        <time>2021-08-15T15:08:23Z</time>
      </trkpt>
      <trkpt lat="45.13245" lon="2.71236">
        <ele>1280.13</ele>
        <time>2021-08-15T15:08:34Z</time>
      </trkpt>
      <trkpt lat="45.13244" lon="2.71206">
        <ele>1281.57</ele>
        <time>2021-08-15T15:08:44Z</time>
      </trkpt>
      <trkpt lat="45.13243" lon="2.71165">
        <ele>1283.98</ele>
        <time>2021-08-15T15:08:58Z</time>
      </trkpt>
      <trkpt lat="45.13242" lon="2.71135">
        <ele>1285.42</ele>
        <time>2021-08-15T15:09:09Z</time>
      </trkpt>
      <trkpt lat="45.13241" lon="2.71105">
        <ele>1286.38</ele>
        <time>2021-08-15T15:09:20Z</time>
      </trkpt>
      <trkpt lat="45.13243" lon="2.71073">
        <ele>1287.82</ele>
        <time>2021-08-15T15:09:32Z</time>
      </trkpt>
      <trkpt lat="45.13243" lon="2.71049">
        <ele>1289.27</ele>
        <time>2021-08-15T15:09:40Z</time>
      </trkpt>
      <trkpt lat="45.13241" lon="2.71025">
        <ele>1290.71</ele>
        <time>2021-08-15T15:09:48Z</time>
      </trkpt>
      <trkpt lat="45.13235" lon="2.70992">
        <ele>1292.15</ele>
        <time>2021-08-15T15:09:58Z</time>
      </trkpt>
      <trkpt lat="45.13231" lon="2.70963">
        <ele>1293.11</ele>
        <time>2021-08-15T15:10:08Z</time>
      </trkpt>
      <trkpt lat="45.13227" lon="2.70935">
        <ele>1294.07</ele>
        <time>2021-08-15T15:10:17Z</time>
      </trkpt>
      <trkpt lat="45.13224" lon="2.70901">
        <ele>1295.99</ele>
        <time>2021-08-15T15:10:28Z</time>
      </trkpt>
      <trkpt lat="45.13218" lon="2.70862">
        <ele>1296.96</ele>
        <time>2021-08-15T15:10:41Z</time>
      </trkpt>
      <trkpt lat="45.1321" lon="2.70828">
        <ele>1297.92</ele>
        <time>2021-08-15T15:10:51Z</time>
      </trkpt>
      <trkpt lat="45.13202" lon="2.70798">
        <ele>1298.88</ele>
        <time>2021-08-15T15:11:00Z</time>
      </trkpt>
      <trkpt lat="45.13195" lon="2.70772">
        <ele>1299.84</ele>
        <time>2021-08-15T15:11:08Z</time>
      </trkpt>
      <trkpt lat="45.13189" lon="2.70748">
        <ele>1300.32</ele>
        <time>2021-08-15T15:11:15Z</time>
      </trkpt>
      <trkpt lat="45.13182" lon="2.70718">
        <ele>1301.76</ele>
        <time>2021-08-15T15:11:24Z</time>
      </trkpt>
      <trkpt lat="45.13175" lon="2.70687">
        <ele>1302.72</ele>
        <time>2021-08-15T15:11:33Z</time>
      </trkpt>
      <trkpt lat="45.13166" lon="2.70657">
        <ele>1303.69</ele>
        <time>2021-08-15T15:11:42Z</time>
      </trkpt>
      <trkpt lat="45.13159" lon="2.70632">
        <ele>1304.65</ele>
        <time>2021-08-15T15:11:50Z</time>
      </trkpt>
      <trkpt lat="45.13151" lon="2.70605">
        <ele>1306.09</ele>
        <time>2021-08-15T15:11:59Z</time>
      </trkpt>
      <trkpt lat="45.13144" lon="2.70578">
        <ele>1308.01</ele>
        <time>2021-08-15T15:12:10Z</time>
      </trkpt>
      <trkpt lat="45.1314" lon="2.70562">
        <ele>1309.45</ele>
        <time>2021-08-15T15:12:17Z</time>
      </trkpt>
      <trkpt lat="45.13134" lon="2.70537">
        <ele>1310.9</ele>
        <time>2021-08-15T15:12:28Z</time>
      </trkpt>
      <trkpt lat="45.13128" lon="2.70516">
        <ele>1312.34</ele>
        <time>2021-08-15T15:12:37Z</time>
      </trkpt>
      <trkpt lat="45.13122" lon="2.70498">
        <ele>1313.3</ele>
        <time>2021-08-15T15:12:45Z</time>
      </trkpt>
      <trkpt lat="45.13116" lon="2.70476">
        <ele>1315.22</ele>
        <time>2021-08-15T15:12:54Z</time>
      </trkpt>
      <trkpt lat="45.13109" lon="2.7045">
        <ele>1317.14</ele>
        <time>2021-08-15T15:13:05Z</time>
      </trkpt>
      <trkpt lat="45.13101" lon="2.70427">
        <ele>1318.59</ele>
        <time>2021-08-15T15:13:15Z</time>
      </trkpt>
      <trkpt lat="45.13091" lon="2.70408">
        <ele>1319.55</ele>
        <time>2021-08-15T15:13:23Z</time>
      </trkpt>
      <trkpt lat="45.13086" lon="2.70401">
        <ele>1320.99</ele>
        <time>2021-08-15T15:13:26Z</time>
      </trkpt>
      <trkpt lat="45.13066" lon="2.70379">
        <ele>1321.95</ele>
        <time>2021-08-15T15:13:36Z</time>
      </trkpt>
      <trkpt lat="45.1305" lon="2.70355">
        <ele>1323.39</ele>
        <time>2021-08-15T15:13:46Z</time>
      </trkpt>
      <trkpt lat="45.13042" lon="2.70326">
        <ele>1324.35</ele>
        <time>2021-08-15T15:13:55Z</time>
      </trkpt>
      <trkpt lat="45.13036" lon="2.70286">
        <ele>1325.8</ele>
        <time>2021-08-15T15:14:07Z</time>
      </trkpt>
      <trkpt lat="45.13025" lon="2.7027">
        <ele>1326.76</ele>
        <time>2021-08-15T15:14:14Z</time>
      </trkpt>
      <trkpt lat="45.13017" lon="2.70261">
        <ele>1327.72</ele>
        <time>2021-08-15T15:14:19Z</time>
      </trkpt>
      <trkpt lat="45.13016" lon="2.70258">
        <ele>1327.72</ele>
        <time>2021-08-15T15:14:20Z</time>
      </trkpt>
      <trkpt lat="45.13017" lon="2.70256">
        <ele>1328.2</ele>
        <time>2021-08-15T15:14:21Z</time>
      </trkpt>
      <trkpt lat="45.13018" lon="2.70252">
        <ele>1328.2</ele>
        <time>2021-08-15T15:14:22Z</time>
      </trkpt>
      <trkpt lat="45.13019" lon="2.70249">
        <ele>1327.72</ele>
        <time>2021-08-15T15:14:23Z</time>
      </trkpt>
      <trkpt lat="45.13026" lon="2.70219">
        <ele>1328.2</ele>
        <time>2021-08-15T15:14:30Z</time>
      </trkpt>
      <trkpt lat="45.13028" lon="2.70214">
        <ele>1328.2</ele>
        <time>2021-08-15T15:14:32Z</time>
      </trkpt>
      <trkpt lat="45.1303" lon="2.70211">
        <ele>1328.2</ele>
        <time>2021-08-15T15:14:37Z</time>
      </trkpt>
      <trkpt lat="45.1303" lon="2.70211">
        <ele>1328.2</ele>
        <time>2021-08-15T15:14:50Z</time>
      </trkpt>
      <trkpt lat="45.13029" lon="2.70211">
        <ele>1328.2</ele>
        <time>2021-08-15T15:15:11Z</time>
      </trkpt>
      <trkpt lat="45.1303" lon="2.70211">
        <ele>1328.2</ele>
        <time>2021-08-15T15:15:33Z</time>
      </trkpt>
      <trkpt lat="45.13029" lon="2.70213">
        <ele>1328.2</ele>
        <time>2021-08-15T15:15:49Z</time>
      </trkpt>
      <trkpt lat="45.13028" lon="2.70216">
        <ele>1328.68</ele>
        <time>2021-08-15T15:16:09Z</time>
      </trkpt>
      <trkpt lat="45.13029" lon="2.70216">
        <ele>1328.68</ele>
        <time>2021-08-15T15:16:22Z</time>
      </trkpt>
      <trkpt lat="45.13029" lon="2.70215">
        <ele>1328.68</ele>
        <time>2021-08-15T15:16:31Z</time>
      </trkpt>
      <trkpt lat="45.13029" lon="2.70213">
        <ele>1328.68</ele>
        <time>2021-08-15T15:16:52Z</time>
      </trkpt>
      <trkpt lat="45.13029" lon="2.70213">
        <ele>1328.68</ele>
        <time>2021-08-15T15:17:07Z</time>
      </trkpt>
      <trkpt lat="45.13028" lon="2.70212">
        <ele>1327.72</ele>
        <time>2021-08-15T15:17:23Z</time>
      </trkpt>
      <trkpt lat="45.13029" lon="2.70212">
        <ele>1327.72</ele>
        <time>2021-08-15T15:17:37Z</time>
      </trkpt>
      <trkpt lat="45.1303" lon="2.70212">
        <ele>1327.72</ele>
        <time>2021-08-15T15:17:49Z</time>
      </trkpt>
      <trkpt lat="45.13031" lon="2.70212">
        <ele>1329.16</ele>
        <time>2021-08-15T15:17:55Z</time>
      </trkpt>
      <trkpt lat="45.13031" lon="2.70212">
        <ele>1329.16</ele>
        <time>2021-08-15T15:18:13Z</time>
      </trkpt>
      <trkpt lat="45.13031" lon="2.7021">
        <ele>1329.16</ele>
        <time>2021-08-15T15:18:28Z</time>
      </trkpt>
      <trkpt lat="45.1303" lon="2.70208">
        <ele>1329.16</ele>
        <time>2021-08-15T15:18:38Z</time>
      </trkpt>
      <trkpt lat="45.13029" lon="2.70209">
        <ele>1329.16</ele>
        <time>2021-08-15T15:18:39Z</time>
      </trkpt>
      <trkpt lat="45.13027" lon="2.7021">
        <ele>1329.64</ele>
        <time>2021-08-15T15:18:45Z</time>
      </trkpt>
      <trkpt lat="45.13027" lon="2.70213">
        <ele>1329.64</ele>
        <time>2021-08-15T15:19:00Z</time>
      </trkpt>
      <trkpt lat="45.13026" lon="2.70211">
        <ele>1329.64</ele>
        <time>2021-08-15T15:19:15Z</time>
      </trkpt>
      <trkpt lat="45.13025" lon="2.70216">
        <ele>1329.64</ele>
        <time>2021-08-15T15:19:22Z</time>
      </trkpt>
      <trkpt lat="45.13024" lon="2.70219">
        <ele>1329.64</ele>
        <time>2021-08-15T15:19:23Z</time>
      </trkpt>
      <trkpt lat="45.13023" lon="2.70222">
        <ele>1329.64</ele>
        <time>2021-08-15T15:19:24Z</time>
      </trkpt>
      <trkpt lat="45.13023" lon="2.70226">
        <ele>1329.64</ele>
        <time>2021-08-15T15:19:25Z</time>
      </trkpt>
      <trkpt lat="45.13022" lon="2.70229">
        <ele>1329.64</ele>
        <time>2021-08-15T15:19:26Z</time>
      </trkpt>
      <trkpt lat="45.13021" lon="2.70233">
        <ele>1329.64</ele>
        <time>2021-08-15T15:19:27Z</time>
      </trkpt>
      <trkpt lat="45.1302" lon="2.70237">
        <ele>1329.64</ele>
        <time>2021-08-15T15:19:28Z</time>
      </trkpt>
      <trkpt lat="45.13016" lon="2.70259">
        <ele>1330.12</ele>
        <time>2021-08-15T15:19:34Z</time>
      </trkpt>
      <trkpt lat="45.13014" lon="2.7026">
        <ele>1330.12</ele>
        <time>2021-08-15T15:19:35Z</time>
      </trkpt>
      <trkpt lat="45.13011" lon="2.7026">
        <ele>1330.12</ele>
        <time>2021-08-15T15:19:36Z</time>
      </trkpt>
      <trkpt lat="45.13009" lon="2.70259">
        <ele>1330.6</ele>
        <time>2021-08-15T15:19:37Z</time>
      </trkpt>
      <trkpt lat="45.13008" lon="2.70257">
        <ele>1331.08</ele>
        <time>2021-08-15T15:19:38Z</time>
      </trkpt>
      <trkpt lat="45.13006" lon="2.70255">
        <ele>1331.08</ele>
        <time>2021-08-15T15:19:39Z</time>
      </trkpt>
      <trkpt lat="45.13003" lon="2.70254">
        <ele>1331.08</ele>
        <time>2021-08-15T15:19:40Z</time>
      </trkpt>
      <trkpt lat="45.13001" lon="2.70253">
        <ele>1331.08</ele>
        <time>2021-08-15T15:19:41Z</time>
      </trkpt>
      <trkpt lat="45.12974" lon="2.70241">
        <ele>1331.08</ele>
        <time>2021-08-15T15:19:50Z</time>
      </trkpt>
      <trkpt lat="45.12954" lon="2.70236">
        <ele>1331.56</ele>
        <time>2021-08-15T15:19:56Z</time>
      </trkpt>
      <trkpt lat="45.12924" lon="2.70227">
        <ele>1331.08</ele>
        <time>2021-08-15T15:20:04Z</time>
      </trkpt>
      <trkpt lat="45.1292" lon="2.70224">
        <ele>1331.08</ele>
        <time>2021-08-15T15:20:05Z</time>
      </trkpt>
      <trkpt lat="45.12883" lon="2.70196">
        <ele>1329.16</ele>
        <time>2021-08-15T15:20:13Z</time>
      </trkpt>
      <trkpt lat="45.12873" lon="2.70189">
        <ele>1329.16</ele>
        <time>2021-08-15T15:20:15Z</time>
      </trkpt>
      <trkpt lat="45.12867" lon="2.70186">
        <ele>1328.68</ele>
        <time>2021-08-15T15:20:16Z</time>
      </trkpt>
      <trkpt lat="45.12861" lon="2.70185">
        <ele>1328.68</ele>
        <time>2021-08-15T15:20:17Z</time>
      </trkpt>
      <trkpt lat="45.12855" lon="2.70183">
        <ele>1328.68</ele>
        <time>2021-08-15T15:20:18Z</time>
      </trkpt>
      <trkpt lat="45.12849" lon="2.70183">
        <ele>1327.72</ele>
        <time>2021-08-15T15:20:19Z</time>
      </trkpt>
      <trkpt lat="45.128" lon="2.70172">
        <ele>1325.8</ele>
        <time>2021-08-15T15:20:26Z</time>
      </trkpt>
      <trkpt lat="45.12793" lon="2.70169">
        <ele>1325.8</ele>
        <time>2021-08-15T15:20:27Z</time>
      </trkpt>
      <trkpt lat="45.12786" lon="2.70164">
        <ele>1325.8</ele>
        <time>2021-08-15T15:20:28Z</time>
      </trkpt>
      <trkpt lat="45.12779" lon="2.7016">
        <ele>1325.8</ele>
        <time>2021-08-15T15:20:29Z</time>
      </trkpt>
      <trkpt lat="45.12774" lon="2.70155">
        <ele>1325.8</ele>
        <time>2021-08-15T15:20:30Z</time>
      </trkpt>
      <trkpt lat="45.12769" lon="2.7015">
        <ele>1325.8</ele>
        <time>2021-08-15T15:20:31Z</time>
      </trkpt>
      <trkpt lat="45.12764" lon="2.70145">
        <ele>1326.76</ele>
        <time>2021-08-15T15:20:32Z</time>
      </trkpt>
      <trkpt lat="45.12759" lon="2.70139">
        <ele>1326.76</ele>
        <time>2021-08-15T15:20:33Z</time>
      </trkpt>
      <trkpt lat="45.1273" lon="2.70104">
        <ele>1329.16</ele>
        <time>2021-08-15T15:20:41Z</time>
      </trkpt>
      <trkpt lat="45.12728" lon="2.701">
        <ele>1329.64</ele>
        <time>2021-08-15T15:20:42Z</time>
      </trkpt>
      <trkpt lat="45.12721" lon="2.70091">
        <ele>1329.64</ele>
        <time>2021-08-15T15:20:44Z</time>
      </trkpt>
      <trkpt lat="45.12695" lon="2.70053">
        <ele>1331.08</ele>
        <time>2021-08-15T15:20:54Z</time>
      </trkpt>
      <trkpt lat="45.12677" lon="2.70018">
        <ele>1332.52</ele>
        <time>2021-08-15T15:21:03Z</time>
      </trkpt>
      <trkpt lat="45.12659" lon="2.69982">
        <ele>1333.01</ele>
        <time>2021-08-15T15:21:13Z</time>
      </trkpt>
      <trkpt lat="45.12636" lon="2.69943">
        <ele>1333.97</ele>
        <time>2021-08-15T15:21:25Z</time>
      </trkpt>
      <trkpt lat="45.12616" lon="2.69912">
        <ele>1334.93</ele>
        <time>2021-08-15T15:21:35Z</time>
      </trkpt>
      <trkpt lat="45.12598" lon="2.69884">
        <ele>1336.37</ele>
        <time>2021-08-15T15:21:44Z</time>
      </trkpt>
      <trkpt lat="45.12581" lon="2.69856">
        <ele>1337.33</ele>
        <time>2021-08-15T15:21:53Z</time>
      </trkpt>
      <trkpt lat="45.12555" lon="2.69829">
        <ele>1337.81</ele>
        <time>2021-08-15T15:22:04Z</time>
      </trkpt>
      <trkpt lat="45.12533" lon="2.6981">
        <ele>1339.25</ele>
        <time>2021-08-15T15:22:13Z</time>
      </trkpt>
      <trkpt lat="45.1251" lon="2.69791">
        <ele>1339.73</ele>
        <time>2021-08-15T15:22:22Z</time>
      </trkpt>
      <trkpt lat="45.12484" lon="2.69772">
        <ele>1341.18</ele>
        <time>2021-08-15T15:22:32Z</time>
      </trkpt>
      <trkpt lat="45.12459" lon="2.6976">
        <ele>1342.14</ele>
        <time>2021-08-15T15:22:41Z</time>
      </trkpt>
      <trkpt lat="45.12436" lon="2.69755">
        <ele>1343.1</ele>
        <time>2021-08-15T15:22:49Z</time>
      </trkpt>
      <trkpt lat="45.12409" lon="2.69746">
        <ele>1344.06</ele>
        <time>2021-08-15T15:22:59Z</time>
      </trkpt>
      <trkpt lat="45.1238" lon="2.69739">
        <ele>1345.02</ele>
        <time>2021-08-15T15:23:09Z</time>
      </trkpt>
      <trkpt lat="45.1236" lon="2.69733">
        <ele>1345.5</ele>
        <time>2021-08-15T15:23:16Z</time>
      </trkpt>
      <trkpt lat="45.12337" lon="2.69723">
        <ele>1346.46</ele>
        <time>2021-08-15T15:23:24Z</time>
      </trkpt>
      <trkpt lat="45.12311" lon="2.69709">
        <ele>1347.43</ele>
        <time>2021-08-15T15:23:32Z</time>
      </trkpt>
      <trkpt lat="45.12281" lon="2.69695">
        <ele>1348.39</ele>
        <time>2021-08-15T15:23:41Z</time>
      </trkpt>
      <trkpt lat="45.12255" lon="2.69679">
        <ele>1349.83</ele>
        <time>2021-08-15T15:23:51Z</time>
      </trkpt>
      <trkpt lat="45.12228" lon="2.69661">
        <ele>1351.27</ele>
        <time>2021-08-15T15:24:02Z</time>
      </trkpt>
      <trkpt lat="45.12209" lon="2.69653">
        <ele>1351.75</ele>
        <time>2021-08-15T15:24:09Z</time>
      </trkpt>
      <trkpt lat="45.12178" lon="2.69636">
        <ele>1352.71</ele>
        <time>2021-08-15T15:24:20Z</time>
      </trkpt>
      <trkpt lat="45.12153" lon="2.69618">
        <ele>1354.15</ele>
        <time>2021-08-15T15:24:30Z</time>
      </trkpt>
      <trkpt lat="45.12127" lon="2.69598">
        <ele>1354.63</ele>
        <time>2021-08-15T15:24:40Z</time>
      </trkpt>
      <trkpt lat="45.12104" lon="2.69573">
        <ele>1355.6</ele>
        <time>2021-08-15T15:24:50Z</time>
      </trkpt>
      <trkpt lat="45.12085" lon="2.69547">
        <ele>1357.04</ele>
        <time>2021-08-15T15:25:00Z</time>
      </trkpt>
      <trkpt lat="45.12063" lon="2.69529">
        <ele>1358</ele>
        <time>2021-08-15T15:25:09Z</time>
      </trkpt>
      <trkpt lat="45.12039" lon="2.69516">
        <ele>1358.96</ele>
        <time>2021-08-15T15:25:18Z</time>
      </trkpt>
      <trkpt lat="45.1202" lon="2.69502">
        <ele>1359.44</ele>
        <time>2021-08-15T15:25:26Z</time>
      </trkpt>
      <trkpt lat="45.11999" lon="2.69481">
        <ele>1360.4</ele>
        <time>2021-08-15T15:25:35Z</time>
      </trkpt>
      <trkpt lat="45.11971" lon="2.69454">
        <ele>1361.36</ele>
        <time>2021-08-15T15:25:46Z</time>
      </trkpt>
      <trkpt lat="45.11945" lon="2.69436">
        <ele>1362.81</ele>
        <time>2021-08-15T15:25:55Z</time>
      </trkpt>
      <trkpt lat="45.11927" lon="2.69425">
        <ele>1363.29</ele>
        <time>2021-08-15T15:26:01Z</time>
      </trkpt>
      <trkpt lat="45.1191" lon="2.69414">
        <ele>1363.29</ele>
        <time>2021-08-15T15:26:07Z</time>
      </trkpt>
      <trkpt lat="45.11892" lon="2.69401">
        <ele>1364.25</ele>
        <time>2021-08-15T15:26:13Z</time>
      </trkpt>
      <trkpt lat="45.11868" lon="2.69381">
        <ele>1364.73</ele>
        <time>2021-08-15T15:26:22Z</time>
      </trkpt>
      <trkpt lat="45.11839" lon="2.69353">
        <ele>1365.69</ele>
        <time>2021-08-15T15:26:33Z</time>
      </trkpt>
      <trkpt lat="45.11817" lon="2.69332">
        <ele>1367.13</ele>
        <time>2021-08-15T15:26:42Z</time>
      </trkpt>
      <trkpt lat="45.11796" lon="2.69312">
        <ele>1368.09</ele>
        <time>2021-08-15T15:26:51Z</time>
      </trkpt>
      <trkpt lat="45.11774" lon="2.6929">
        <ele>1369.54</ele>
        <time>2021-08-15T15:27:00Z</time>
      </trkpt>
      <trkpt lat="45.11756" lon="2.69274">
        <ele>1370.5</ele>
        <time>2021-08-15T15:27:07Z</time>
      </trkpt>
      <trkpt lat="45.11723" lon="2.69255">
        <ele>1371.46</ele>
        <time>2021-08-15T15:27:18Z</time>
      </trkpt>
      <trkpt lat="45.11694" lon="2.69238">
        <ele>1372.9</ele>
        <time>2021-08-15T15:27:28Z</time>
      </trkpt>
      <trkpt lat="45.11665" lon="2.69219">
        <ele>1373.86</ele>
        <time>2021-08-15T15:27:38Z</time>
      </trkpt>
      <trkpt lat="45.11636" lon="2.69193">
        <ele>1375.78</ele>
        <time>2021-08-15T15:27:49Z</time>
      </trkpt>
      <trkpt lat="45.11614" lon="2.69162">
        <ele>1376.75</ele>
        <time>2021-08-15T15:28:00Z</time>
      </trkpt>
      <trkpt lat="45.11592" lon="2.69129">
        <ele>1377.23</ele>
        <time>2021-08-15T15:28:11Z</time>
      </trkpt>
      <trkpt lat="45.11572" lon="2.69106">
        <ele>1378.19</ele>
        <time>2021-08-15T15:28:20Z</time>
      </trkpt>
      <trkpt lat="45.11551" lon="2.69084">
        <ele>1379.63</ele>
        <time>2021-08-15T15:28:29Z</time>
      </trkpt>
      <trkpt lat="45.11531" lon="2.69069">
        <ele>1380.59</ele>
        <time>2021-08-15T15:28:37Z</time>
      </trkpt>
      <trkpt lat="45.11504" lon="2.6905">
        <ele>1381.07</ele>
        <time>2021-08-15T15:28:48Z</time>
      </trkpt>
      <trkpt lat="45.11476" lon="2.69031">
        <ele>1382.51</ele>
        <time>2021-08-15T15:29:00Z</time>
      </trkpt>
      <trkpt lat="45.1145" lon="2.69013">
        <ele>1384.44</ele>
        <time>2021-08-15T15:29:11Z</time>
      </trkpt>
      <trkpt lat="45.11431" lon="2.69001">
        <ele>1384.92</ele>
        <time>2021-08-15T15:29:18Z</time>
      </trkpt>
      <trkpt lat="45.11414" lon="2.68982">
        <ele>1385.88</ele>
        <time>2021-08-15T15:29:26Z</time>
      </trkpt>
      <trkpt lat="45.114" lon="2.68959">
        <ele>1387.8</ele>
        <time>2021-08-15T15:29:36Z</time>
      </trkpt>
      <trkpt lat="45.11393" lon="2.68936">
        <ele>1389.24</ele>
        <time>2021-08-15T15:29:46Z</time>
      </trkpt>
      <trkpt lat="45.11389" lon="2.68912">
        <ele>1390.68</ele>
        <time>2021-08-15T15:29:56Z</time>
      </trkpt>
      <trkpt lat="45.11386" lon="2.68886">
        <ele>1392.13</ele>
        <time>2021-08-15T15:30:07Z</time>
      </trkpt>
      <trkpt lat="45.11385" lon="2.68863">
        <ele>1393.57</ele>
        <time>2021-08-15T15:30:17Z</time>
      </trkpt>
      <trkpt lat="45.11384" lon="2.68834">
        <ele>1394.53</ele>
        <time>2021-08-15T15:30:28Z</time>
      </trkpt>
      <trkpt lat="45.11382" lon="2.68802">
        <ele>1396.45</ele>
        <time>2021-08-15T15:30:40Z</time>
      </trkpt>
      <trkpt lat="45.11381" lon="2.6877">
        <ele>1397.89</ele>
        <time>2021-08-15T15:30:52Z</time>
      </trkpt>
      <trkpt lat="45.1138" lon="2.6874">
        <ele>1399.82</ele>
        <time>2021-08-15T15:31:03Z</time>
      </trkpt>
      <trkpt lat="45.11378" lon="2.6873">
        <ele>1400.78</ele>
        <time>2021-08-15T15:31:07Z</time>
      </trkpt>
      <trkpt lat="45.11378" lon="2.68727">
        <ele>1400.78</ele>
        <time>2021-08-15T15:31:08Z</time>
      </trkpt>
      <trkpt lat="45.11374" lon="2.68704">
        <ele>1401.74</ele>
        <time>2021-08-15T15:31:16Z</time>
      </trkpt>
      <trkpt lat="45.11365" lon="2.68683">
        <ele>1403.66</ele>
        <time>2021-08-15T15:31:24Z</time>
      </trkpt>
      <trkpt lat="45.11353" lon="2.68665">
        <ele>1404.62</ele>
        <time>2021-08-15T15:31:33Z</time>
      </trkpt>
      <trkpt lat="45.11335" lon="2.6865">
        <ele>1406.07</ele>
        <time>2021-08-15T15:31:44Z</time>
      </trkpt>
      <trkpt lat="45.11318" lon="2.68644">
        <ele>1407.03</ele>
        <time>2021-08-15T15:31:53Z</time>
      </trkpt>
      <trkpt lat="45.11304" lon="2.68641">
        <ele>1408.47</ele>
        <time>2021-08-15T15:32:01Z</time>
      </trkpt>
      <trkpt lat="45.11282" lon="2.68638">
        <ele>1409.91</ele>
        <time>2021-08-15T15:32:12Z</time>
      </trkpt>
      <trkpt lat="45.11263" lon="2.68638">
        <ele>1411.35</ele>
        <time>2021-08-15T15:32:22Z</time>
      </trkpt>
      <trkpt lat="45.11244" lon="2.68632">
        <ele>1412.79</ele>
        <time>2021-08-15T15:32:32Z</time>
      </trkpt>
      <trkpt lat="45.11222" lon="2.68623">
        <ele>1413.76</ele>
        <time>2021-08-15T15:32:44Z</time>
      </trkpt>
      <trkpt lat="45.11208" lon="2.68614">
        <ele>1416.16</ele>
        <time>2021-08-15T15:32:53Z</time>
      </trkpt>
      <trkpt lat="45.11193" lon="2.68604">
        <ele>1418.56</ele>
        <time>2021-08-15T15:33:03Z</time>
      </trkpt>
      <trkpt lat="45.11181" lon="2.68598">
        <ele>1419.52</ele>
        <time>2021-08-15T15:33:11Z</time>
      </trkpt>
      <trkpt lat="45.11168" lon="2.6859">
        <ele>1421.45</ele>
        <time>2021-08-15T15:33:20Z</time>
      </trkpt>
      <trkpt lat="45.11159" lon="2.68587">
        <ele>1422.41</ele>
        <time>2021-08-15T15:33:26Z</time>
      </trkpt>
      <trkpt lat="45.11157" lon="2.68586">
        <ele>1422.89</ele>
        <time>2021-08-15T15:33:27Z</time>
      </trkpt>
      <trkpt lat="45.1114" lon="2.68574">
        <ele>1425.29</ele>
        <time>2021-08-15T15:33:40Z</time>
      </trkpt>
      <trkpt lat="45.11125" lon="2.68564">
        <ele>1426.73</ele>
        <time>2021-08-15T15:33:51Z</time>
      </trkpt>
      <trkpt lat="45.11111" lon="2.68553">
        <ele>1428.18</ele>
        <time>2021-08-15T15:34:02Z</time>
      </trkpt>
      <trkpt lat="45.11097" lon="2.68538">
        <ele>1430.58</ele>
        <time>2021-08-15T15:34:13Z</time>
      </trkpt>
      <trkpt lat="45.1109" lon="2.68527">
        <ele>1432.02</ele>
        <time>2021-08-15T15:34:20Z</time>
      </trkpt>
      <trkpt lat="45.11086" lon="2.68506">
        <ele>1433.94</ele>
        <time>2021-08-15T15:34:30Z</time>
      </trkpt>
      <trkpt lat="45.11086" lon="2.68486">
        <ele>1435.39</ele>
        <time>2021-08-15T15:34:39Z</time>
      </trkpt>
      <trkpt lat="45.11078" lon="2.68466">
        <ele>1436.83</ele>
        <time>2021-08-15T15:34:50Z</time>
      </trkpt>
      <trkpt lat="45.11064" lon="2.68453">
        <ele>1439.23</ele>
        <time>2021-08-15T15:35:01Z</time>
      </trkpt>
      <trkpt lat="45.11052" lon="2.68443">
        <ele>1440.67</ele>
        <time>2021-08-15T15:35:10Z</time>
      </trkpt>
      <trkpt lat="45.1104" lon="2.68431">
        <ele>1442.11</ele>
        <time>2021-08-15T15:35:20Z</time>
      </trkpt>
      <trkpt lat="45.1103" lon="2.68421">
        <ele>1444.04</ele>
        <time>2021-08-15T15:35:28Z</time>
      </trkpt>
      <trkpt lat="45.1102" lon="2.68411">
        <ele>1445.48</ele>
        <time>2021-08-15T15:35:36Z</time>
      </trkpt>
      <trkpt lat="45.11014" lon="2.68402">
        <ele>1445.96</ele>
        <time>2021-08-15T15:35:42Z</time>
      </trkpt>
      <trkpt lat="45.11003" lon="2.68392">
        <ele>1448.36</ele>
        <time>2021-08-15T15:35:51Z</time>
      </trkpt>
      <trkpt lat="45.10991" lon="2.68381">
        <ele>1449.81</ele>
        <time>2021-08-15T15:36:00Z</time>
      </trkpt>
      <trkpt lat="45.1099" lon="2.6838">
        <ele>1450.29</ele>
        <time>2021-08-15T15:36:01Z</time>
      </trkpt>
      <trkpt lat="45.10979" lon="2.68367">
        <ele>1451.25</ele>
        <time>2021-08-15T15:36:09Z</time>
      </trkpt>
      <trkpt lat="45.1097" lon="2.68357">
        <ele>1452.69</ele>
        <time>2021-08-15T15:36:18Z</time>
      </trkpt>
      <trkpt lat="45.10958" lon="2.68345">
        <ele>1454.13</ele>
        <time>2021-08-15T15:36:28Z</time>
      </trkpt>
      <trkpt lat="45.10941" lon="2.68333">
        <ele>1456.53</ele>
        <time>2021-08-15T15:36:40Z</time>
      </trkpt>
      <trkpt lat="45.10939" lon="2.68332">
        <ele>1456.53</ele>
        <time>2021-08-15T15:36:41Z</time>
      </trkpt>
      <trkpt lat="45.10924" lon="2.68319">
        <ele>1457.98</ele>
        <time>2021-08-15T15:36:52Z</time>
      </trkpt>
      <trkpt lat="45.10914" lon="2.68311">
        <ele>1458.94</ele>
        <time>2021-08-15T15:36:59Z</time>
      </trkpt>
      <trkpt lat="45.1091" lon="2.68307">
        <ele>1459.9</ele>
        <time>2021-08-15T15:37:02Z</time>
      </trkpt>
      <trkpt lat="45.1091" lon="2.68305">
        <ele>1459.9</ele>
        <time>2021-08-15T15:37:03Z</time>
      </trkpt>
      <trkpt lat="45.1091" lon="2.68303">
        <ele>1460.38</ele>
        <time>2021-08-15T15:37:04Z</time>
      </trkpt>
      <trkpt lat="45.10911" lon="2.68302">
        <ele>1460.38</ele>
        <time>2021-08-15T15:37:05Z</time>
      </trkpt>
      <trkpt lat="45.10912" lon="2.683">
        <ele>1460.38</ele>
        <time>2021-08-15T15:37:06Z</time>
      </trkpt>
      <trkpt lat="45.10913" lon="2.68299">
        <ele>1460.38</ele>
        <time>2021-08-15T15:37:07Z</time>
      </trkpt>
      <trkpt lat="45.10915" lon="2.68299">
        <ele>1461.34</ele>
        <time>2021-08-15T15:37:08Z</time>
      </trkpt>
      <trkpt lat="45.10916" lon="2.68298">
        <ele>1461.34</ele>
        <time>2021-08-15T15:37:09Z</time>
      </trkpt>
      <trkpt lat="45.10918" lon="2.68299">
        <ele>1461.34</ele>
        <time>2021-08-15T15:37:10Z</time>
      </trkpt>
      <trkpt lat="45.10919" lon="2.683">
        <ele>1461.82</ele>
        <time>2021-08-15T15:37:11Z</time>
      </trkpt>
      <trkpt lat="45.10921" lon="2.68301">
        <ele>1461.82</ele>
        <time>2021-08-15T15:37:12Z</time>
      </trkpt>
      <trkpt lat="45.10923" lon="2.68302">
        <ele>1461.82</ele>
        <time>2021-08-15T15:37:13Z</time>
      </trkpt>
      <trkpt lat="45.10925" lon="2.68303">
        <ele>1461.82</ele>
        <time>2021-08-15T15:37:14Z</time>
      </trkpt>
      <trkpt lat="45.10927" lon="2.68304">
        <ele>1462.3</ele>
        <time>2021-08-15T15:37:15Z</time>
      </trkpt>
      <trkpt lat="45.10946" lon="2.68314">
        <ele>1464.23</ele>
        <time>2021-08-15T15:37:26Z</time>
      </trkpt>
      <trkpt lat="45.10963" lon="2.68321">
        <ele>1466.63</ele>
        <time>2021-08-15T15:37:36Z</time>
      </trkpt>
      <trkpt lat="45.10979" lon="2.68328">
        <ele>1468.07</ele>
        <time>2021-08-15T15:37:45Z</time>
      </trkpt>
      <trkpt lat="45.10996" lon="2.68335">
        <ele>1469.99</ele>
        <time>2021-08-15T15:37:56Z</time>
      </trkpt>
      <trkpt lat="45.1101" lon="2.68344">
        <ele>1471.44</ele>
        <time>2021-08-15T15:38:06Z</time>
      </trkpt>
      <trkpt lat="45.11021" lon="2.68353">
        <ele>1472.88</ele>
        <time>2021-08-15T15:38:14Z</time>
      </trkpt>
      <trkpt lat="45.11033" lon="2.68365">
        <ele>1474.8</ele>
        <time>2021-08-15T15:38:22Z</time>
      </trkpt>
      <trkpt lat="45.11044" lon="2.68373">
        <ele>1476.72</ele>
        <time>2021-08-15T15:38:30Z</time>
      </trkpt>
      <trkpt lat="45.11056" lon="2.68379">
        <ele>1478.16</ele>
        <time>2021-08-15T15:38:39Z</time>
      </trkpt>
      <trkpt lat="45.11073" lon="2.68387">
        <ele>1479.61</ele>
        <time>2021-08-15T15:38:51Z</time>
      </trkpt>
      <trkpt lat="45.11088" lon="2.68391">
        <ele>1481.53</ele>
        <time>2021-08-15T15:39:01Z</time>
      </trkpt>
      <trkpt lat="45.11098" lon="2.68387">
        <ele>1482.01</ele>
        <time>2021-08-15T15:39:08Z</time>
      </trkpt>
      <trkpt lat="45.111" lon="2.68386">
        <ele>1482.97</ele>
        <time>2021-08-15T15:39:09Z</time>
      </trkpt>
      <trkpt lat="45.11101" lon="2.68385">
        <ele>1482.97</ele>
        <time>2021-08-15T15:39:10Z</time>
      </trkpt>
      <trkpt lat="45.11103" lon="2.68384">
        <ele>1482.97</ele>
        <time>2021-08-15T15:39:11Z</time>
      </trkpt>
      <trkpt lat="45.11104" lon="2.68383">
        <ele>1483.45</ele>
        <time>2021-08-15T15:39:12Z</time>
      </trkpt>
      <trkpt lat="45.11106" lon="2.68382">
        <ele>1483.45</ele>
        <time>2021-08-15T15:39:13Z</time>
      </trkpt>
      <trkpt lat="45.11107" lon="2.68382">
        <ele>1483.45</ele>
        <time>2021-08-15T15:39:14Z</time>
      </trkpt>
      <trkpt lat="45.11109" lon="2.68381">
        <ele>1483.93</ele>
        <time>2021-08-15T15:39:15Z</time>
      </trkpt>
      <trkpt lat="45.1112" lon="2.68372">
        <ele>1484.89</ele>
        <time>2021-08-15T15:39:23Z</time>
      </trkpt>
      <trkpt lat="45.1113" lon="2.68361">
        <ele>1485.85</ele>
        <time>2021-08-15T15:39:31Z</time>
      </trkpt>
      <trkpt lat="45.11139" lon="2.6834">
        <ele>1487.3</ele>
        <time>2021-08-15T15:39:42Z</time>
      </trkpt>
      <trkpt lat="45.11144" lon="2.6832">
        <ele>1489.22</ele>
        <time>2021-08-15T15:39:51Z</time>
      </trkpt>
      <trkpt lat="45.11149" lon="2.683">
        <ele>1491.62</ele>
        <time>2021-08-15T15:40:01Z</time>
      </trkpt>
      <trkpt lat="45.11152" lon="2.68279">
        <ele>1493.06</ele>
        <time>2021-08-15T15:40:11Z</time>
      </trkpt>
      <trkpt lat="45.11152" lon="2.68258">
        <ele>1494.99</ele>
        <time>2021-08-15T15:40:22Z</time>
      </trkpt>
      <trkpt lat="45.11148" lon="2.68243">
        <ele>1496.43</ele>
        <time>2021-08-15T15:40:30Z</time>
      </trkpt>
      <trkpt lat="45.11146" lon="2.68228">
        <ele>1497.39</ele>
        <time>2021-08-15T15:40:37Z</time>
      </trkpt>
      <trkpt lat="45.11147" lon="2.68225">
        <ele>1497.39</ele>
        <time>2021-08-15T15:40:38Z</time>
      </trkpt>
      <trkpt lat="45.11148" lon="2.68223">
        <ele>1497.87</ele>
        <time>2021-08-15T15:40:39Z</time>
      </trkpt>
      <trkpt lat="45.11149" lon="2.68221">
        <ele>1497.87</ele>
        <time>2021-08-15T15:40:40Z</time>
      </trkpt>
      <trkpt lat="45.1115" lon="2.68219">
        <ele>1498.35</ele>
        <time>2021-08-15T15:40:41Z</time>
      </trkpt>
      <trkpt lat="45.11151" lon="2.68218">
        <ele>1498.35</ele>
        <time>2021-08-15T15:40:42Z</time>
      </trkpt>
      <trkpt lat="45.1116" lon="2.68206">
        <ele>1499.31</ele>
        <time>2021-08-15T15:40:50Z</time>
      </trkpt>
      <trkpt lat="45.11164" lon="2.68203">
        <ele>1499.79</ele>
        <time>2021-08-15T15:40:53Z</time>
      </trkpt>
      <trkpt lat="45.11165" lon="2.68202">
        <ele>1500.27</ele>
        <time>2021-08-15T15:40:54Z</time>
      </trkpt>
      <trkpt lat="45.11167" lon="2.68202">
        <ele>1500.27</ele>
        <time>2021-08-15T15:40:55Z</time>
      </trkpt>
      <trkpt lat="45.11168" lon="2.68202">
        <ele>1500.76</ele>
        <time>2021-08-15T15:40:56Z</time>
      </trkpt>
      <trkpt lat="45.1117" lon="2.68201">
        <ele>1500.76</ele>
        <time>2021-08-15T15:40:57Z</time>
      </trkpt>
      <trkpt lat="45.11179" lon="2.68197">
        <ele>1501.72</ele>
        <time>2021-08-15T15:41:03Z</time>
      </trkpt>
      <trkpt lat="45.11189" lon="2.68189">
        <ele>1502.68</ele>
        <time>2021-08-15T15:41:10Z</time>
      </trkpt>
      <trkpt lat="45.11195" lon="2.68172">
        <ele>1503.64</ele>
        <time>2021-08-15T15:41:18Z</time>
      </trkpt>
      <trkpt lat="45.11197" lon="2.6815">
        <ele>1505.56</ele>
        <time>2021-08-15T15:41:28Z</time>
      </trkpt>
      <trkpt lat="45.11194" lon="2.68129">
        <ele>1507</ele>
        <time>2021-08-15T15:41:38Z</time>
      </trkpt>
      <trkpt lat="45.11191" lon="2.6811">
        <ele>1507.97</ele>
        <time>2021-08-15T15:41:47Z</time>
      </trkpt>
      <trkpt lat="45.11195" lon="2.68088">
        <ele>1509.41</ele>
        <time>2021-08-15T15:41:56Z</time>
      </trkpt>
      <trkpt lat="45.11201" lon="2.6807">
        <ele>1511.81</ele>
        <time>2021-08-15T15:42:04Z</time>
      </trkpt>
      <trkpt lat="45.1121" lon="2.68053">
        <ele>1513.73</ele>
        <time>2021-08-15T15:42:12Z</time>
      </trkpt>
      <trkpt lat="45.11218" lon="2.68032">
        <ele>1515.18</ele>
        <time>2021-08-15T15:42:22Z</time>
      </trkpt>
      <trkpt lat="45.11217" lon="2.68008">
        <ele>1517.1</ele>
        <time>2021-08-15T15:42:32Z</time>
      </trkpt>
      <trkpt lat="45.11216" lon="2.67986">
        <ele>1518.06</ele>
        <time>2021-08-15T15:42:41Z</time>
      </trkpt>
      <trkpt lat="45.11212" lon="2.67965">
        <ele>1520.46</ele>
        <time>2021-08-15T15:42:50Z</time>
      </trkpt>
      <trkpt lat="45.11206" lon="2.67947">
        <ele>1521.9</ele>
        <time>2021-08-15T15:42:58Z</time>
      </trkpt>
      <trkpt lat="45.11191" lon="2.67921">
        <ele>1524.31</ele>
        <time>2021-08-15T15:43:11Z</time>
      </trkpt>
      <trkpt lat="45.11183" lon="2.67903">
        <ele>1525.75</ele>
        <time>2021-08-15T15:43:20Z</time>
      </trkpt>
      <trkpt lat="45.1118" lon="2.67889">
        <ele>1527.67</ele>
        <time>2021-08-15T15:43:27Z</time>
      </trkpt>
      <trkpt lat="45.11177" lon="2.67867">
        <ele>1529.11</ele>
        <time>2021-08-15T15:43:38Z</time>
      </trkpt>
      <trkpt lat="45.11178" lon="2.67847">
        <ele>1531.04</ele>
        <time>2021-08-15T15:43:47Z</time>
      </trkpt>
      <trkpt lat="45.1118" lon="2.67825">
        <ele>1533.44</ele>
        <time>2021-08-15T15:43:57Z</time>
      </trkpt>
      <trkpt lat="45.1118" lon="2.67823">
        <ele>1533.44</ele>
        <time>2021-08-15T15:43:58Z</time>
      </trkpt>
      <trkpt lat="45.1118" lon="2.67821">
        <ele>1533.44</ele>
        <time>2021-08-15T15:43:59Z</time>
      </trkpt>
      <trkpt lat="45.11181" lon="2.67797">
        <ele>1535.84</ele>
        <time>2021-08-15T15:44:10Z</time>
      </trkpt>
      <trkpt lat="45.11182" lon="2.67781">
        <ele>1537.29</ele>
        <time>2021-08-15T15:44:17Z</time>
      </trkpt>
      <trkpt lat="45.11183" lon="2.67763">
        <ele>1538.73</ele>
        <time>2021-08-15T15:44:25Z</time>
      </trkpt>
      <trkpt lat="45.11184" lon="2.67739">
        <ele>1540.17</ele>
        <time>2021-08-15T15:44:35Z</time>
      </trkpt>
      <trkpt lat="45.11186" lon="2.67709">
        <ele>1542.09</ele>
        <time>2021-08-15T15:44:46Z</time>
      </trkpt>
      <trkpt lat="45.11189" lon="2.67687">
        <ele>1543.53</ele>
        <time>2021-08-15T15:44:55Z</time>
      </trkpt>
      <trkpt lat="45.11193" lon="2.67669">
        <ele>1544.98</ele>
        <time>2021-08-15T15:45:03Z</time>
      </trkpt>
      <trkpt lat="45.112" lon="2.67649">
        <ele>1545.94</ele>
        <time>2021-08-15T15:45:13Z</time>
      </trkpt>
      <trkpt lat="45.11206" lon="2.67634">
        <ele>1546.9</ele>
        <time>2021-08-15T15:45:20Z</time>
      </trkpt>
      <trkpt lat="45.11213" lon="2.67614">
        <ele>1548.34</ele>
        <time>2021-08-15T15:45:29Z</time>
      </trkpt>
      <trkpt lat="45.11226" lon="2.67588">
        <ele>1549.78</ele>
        <time>2021-08-15T15:45:40Z</time>
      </trkpt>
      <trkpt lat="45.11236" lon="2.67567">
        <ele>1551.22</ele>
        <time>2021-08-15T15:45:49Z</time>
      </trkpt>
      <trkpt lat="45.11242" lon="2.67551">
        <ele>1552.67</ele>
        <time>2021-08-15T15:45:56Z</time>
      </trkpt>
      <trkpt lat="45.11249" lon="2.67528">
        <ele>1554.11</ele>
        <time>2021-08-15T15:46:04Z</time>
      </trkpt>
      <trkpt lat="45.11256" lon="2.67504">
        <ele>1556.99</ele>
        <time>2021-08-15T15:46:13Z</time>
      </trkpt>
      <trkpt lat="45.11257" lon="2.67498">
        <ele>1557.95</ele>
        <time>2021-08-15T15:46:15Z</time>
      </trkpt>
      <trkpt lat="45.1126" lon="2.67482">
        <ele>1558.43</ele>
        <time>2021-08-15T15:46:21Z</time>
      </trkpt>
      <trkpt lat="45.11267" lon="2.6746">
        <ele>1560.36</ele>
        <time>2021-08-15T15:46:30Z</time>
      </trkpt>
      <trkpt lat="45.11275" lon="2.67438">
        <ele>1561.8</ele>
        <time>2021-08-15T15:46:40Z</time>
      </trkpt>
      <trkpt lat="45.11284" lon="2.67414">
        <ele>1563.72</ele>
        <time>2021-08-15T15:46:50Z</time>
      </trkpt>
      <trkpt lat="45.11294" lon="2.67393">
        <ele>1565.64</ele>
        <time>2021-08-15T15:47:00Z</time>
      </trkpt>
      <trkpt lat="45.11305" lon="2.67369">
        <ele>1567.57</ele>
        <time>2021-08-15T15:47:11Z</time>
      </trkpt>
      <trkpt lat="45.11315" lon="2.67341">
        <ele>1569.97</ele>
        <time>2021-08-15T15:47:23Z</time>
      </trkpt>
      <trkpt lat="45.11324" lon="2.67312">
        <ele>1572.37</ele>
        <time>2021-08-15T15:47:35Z</time>
      </trkpt>
      <trkpt lat="45.11335" lon="2.67288">
        <ele>1575.26</ele>
        <time>2021-08-15T15:47:45Z</time>
      </trkpt>
      <trkpt lat="45.11351" lon="2.6726">
        <ele>1576.7</ele>
        <time>2021-08-15T15:47:58Z</time>
      </trkpt>
      <trkpt lat="45.11366" lon="2.6724">
        <ele>1578.62</ele>
        <time>2021-08-15T15:48:08Z</time>
      </trkpt>
      <trkpt lat="45.11379" lon="2.67225">
        <ele>1579.58</ele>
        <time>2021-08-15T15:48:17Z</time>
      </trkpt>
      <trkpt lat="45.11395" lon="2.67208">
        <ele>1581.03</ele>
        <time>2021-08-15T15:48:27Z</time>
      </trkpt>
      <trkpt lat="45.11404" lon="2.67196">
        <ele>1581.51</ele>
        <time>2021-08-15T15:48:34Z</time>
      </trkpt>
      <trkpt lat="45.11405" lon="2.67193">
        <ele>1581.51</ele>
        <time>2021-08-15T15:48:35Z</time>
      </trkpt>
      <trkpt lat="45.11406" lon="2.67191">
        <ele>1581.51</ele>
        <time>2021-08-15T15:48:36Z</time>
      </trkpt>
      <trkpt lat="45.11406" lon="2.67189">
        <ele>1581.51</ele>
        <time>2021-08-15T15:48:37Z</time>
      </trkpt>
      <trkpt lat="45.11407" lon="2.67187">
        <ele>1581.51</ele>
        <time>2021-08-15T15:48:38Z</time>
      </trkpt>
      <trkpt lat="45.11416" lon="2.67176">
        <ele>1581.51</ele>
        <time>2021-08-15T15:48:46Z</time>
      </trkpt>
      <trkpt lat="45.11419" lon="2.67173">
        <ele>1581.51</ele>
        <time>2021-08-15T15:48:51Z</time>
      </trkpt>
      <trkpt lat="45.1142" lon="2.67174">
        <ele>1581.99</ele>
        <time>2021-08-15T15:48:59Z</time>
      </trkpt>
      <trkpt lat="45.11421" lon="2.67176">
        <ele>1581.99</ele>
        <time>2021-08-15T15:49:20Z</time>
      </trkpt>
      <trkpt lat="45.11421" lon="2.67175">
        <ele>1581.03</ele>
        <time>2021-08-15T15:49:41Z</time>
      </trkpt>
      <trkpt lat="45.11421" lon="2.67175">
        <ele>1581.03</ele>
        <time>2021-08-15T15:49:59Z</time>
      </trkpt>
      <trkpt lat="45.11418" lon="2.67172">
        <ele>1580.54</ele>
        <time>2021-08-15T15:50:17Z</time>
      </trkpt>
      <trkpt lat="45.11417" lon="2.67172">
        <ele>1580.54</ele>
        <time>2021-08-15T15:50:18Z</time>
      </trkpt>
      <trkpt lat="45.11415" lon="2.67173">
        <ele>1580.54</ele>
        <time>2021-08-15T15:50:19Z</time>
      </trkpt>
      <trkpt lat="45.11412" lon="2.67174">
        <ele>1581.99</ele>
        <time>2021-08-15T15:50:22Z</time>
      </trkpt>
      <trkpt lat="45.11399" lon="2.67186">
        <ele>1582.47</ele>
        <time>2021-08-15T15:50:36Z</time>
      </trkpt>
      <trkpt lat="45.11396" lon="2.6719">
        <ele>1581.51</ele>
        <time>2021-08-15T15:50:44Z</time>
      </trkpt>
      <trkpt lat="45.11396" lon="2.67191">
        <ele>1581.51</ele>
        <time>2021-08-15T15:50:57Z</time>
      </trkpt>
      <trkpt lat="45.11397" lon="2.67191">
        <ele>1581.03</ele>
        <time>2021-08-15T15:51:03Z</time>
      </trkpt>
      <trkpt lat="45.11397" lon="2.67192">
        <ele>1581.51</ele>
        <time>2021-08-15T15:51:16Z</time>
      </trkpt>
      <trkpt lat="45.11397" lon="2.67193">
        <ele>1581.51</ele>
        <time>2021-08-15T15:51:34Z</time>
      </trkpt>
      <trkpt lat="45.11397" lon="2.67194">
        <ele>1581.51</ele>
        <time>2021-08-15T15:51:53Z</time>
      </trkpt>
      <trkpt lat="45.11397" lon="2.67194">
        <ele>1581.51</ele>
        <time>2021-08-15T15:52:09Z</time>
      </trkpt>
      <trkpt lat="45.11397" lon="2.67195">
        <ele>1581.51</ele>
        <time>2021-08-15T15:52:29Z</time>
      </trkpt>
      <trkpt lat="45.11397" lon="2.67195">
        <ele>1581.99</ele>
        <time>2021-08-15T15:52:48Z</time>
      </trkpt>
      <trkpt lat="45.11397" lon="2.67195">
        <ele>1581.99</ele>
        <time>2021-08-15T15:53:07Z</time>
      </trkpt>
      <trkpt lat="45.11397" lon="2.67194">
        <ele>1581.99</ele>
        <time>2021-08-15T15:53:25Z</time>
      </trkpt>
      <trkpt lat="45.11395" lon="2.67193">
        <ele>1581.99</ele>
        <time>2021-08-15T15:53:45Z</time>
      </trkpt>
      <trkpt lat="45.11394" lon="2.67191">
        <ele>1582.47</ele>
        <time>2021-08-15T15:54:08Z</time>
      </trkpt>
      <trkpt lat="45.11393" lon="2.6719">
        <ele>1582.47</ele>
        <time>2021-08-15T15:54:31Z</time>
      </trkpt>
      <trkpt lat="45.11394" lon="2.67188">
        <ele>1583.91</ele>
        <time>2021-08-15T15:54:43Z</time>
      </trkpt>
      <trkpt lat="45.11393" lon="2.67188">
        <ele>1583.91</ele>
        <time>2021-08-15T15:54:58Z</time>
      </trkpt>
      <trkpt lat="45.11393" lon="2.67188">
        <ele>1584.39</ele>
        <time>2021-08-15T15:55:23Z</time>
      </trkpt>
      <trkpt lat="45.11393" lon="2.6719">
        <ele>1584.39</ele>
        <time>2021-08-15T15:55:42Z</time>
      </trkpt>
      <trkpt lat="45.11394" lon="2.67191">
        <ele>1584.39</ele>
        <time>2021-08-15T15:55:54Z</time>
      </trkpt>
      <trkpt lat="45.11394" lon="2.67192">
        <ele>1584.39</ele>
        <time>2021-08-15T15:56:03Z</time>
      </trkpt>
      <trkpt lat="45.11394" lon="2.67193">
        <ele>1583.43</ele>
        <time>2021-08-15T15:56:07Z</time>
      </trkpt>
      <trkpt lat="45.11394" lon="2.67192">
        <ele>1583.43</ele>
        <time>2021-08-15T15:56:24Z</time>
      </trkpt>
      <trkpt lat="45.11394" lon="2.67192">
        <ele>1584.87</ele>
        <time>2021-08-15T15:56:26Z</time>
      </trkpt>
      <trkpt lat="45.11394" lon="2.6719">
        <ele>1585.83</ele>
        <time>2021-08-15T15:56:45Z</time>
      </trkpt>
      <trkpt lat="45.11394" lon="2.6719">
        <ele>1585.83</ele>
        <time>2021-08-15T15:57:10Z</time>
      </trkpt>
      <trkpt lat="45.11393" lon="2.67188">
        <ele>1586.31</ele>
        <time>2021-08-15T15:57:26Z</time>
      </trkpt>
      <trkpt lat="45.11394" lon="2.67187">
        <ele>1586.31</ele>
        <time>2021-08-15T15:57:40Z</time>
      </trkpt>
      <trkpt lat="45.11398" lon="2.67186">
        <ele>1586.31</ele>
        <time>2021-08-15T15:57:44Z</time>
      </trkpt>
      <trkpt lat="45.11399" lon="2.67185">
        <ele>1586.31</ele>
        <time>2021-08-15T15:57:45Z</time>
      </trkpt>
      <trkpt lat="45.114" lon="2.67184">
        <ele>1586.31</ele>
        <time>2021-08-15T15:57:46Z</time>
      </trkpt>
      <trkpt lat="45.11401" lon="2.67183">
        <ele>1586.31</ele>
        <time>2021-08-15T15:57:47Z</time>
      </trkpt>
      <trkpt lat="45.11402" lon="2.67182">
        <ele>1586.31</ele>
        <time>2021-08-15T15:57:48Z</time>
      </trkpt>
      <trkpt lat="45.11413" lon="2.67173">
        <ele>1584.87</ele>
        <time>2021-08-15T15:57:55Z</time>
      </trkpt>
      <trkpt lat="45.11416" lon="2.6717">
        <ele>1585.35</ele>
        <time>2021-08-15T15:57:57Z</time>
      </trkpt>
      <trkpt lat="45.11416" lon="2.67168">
        <ele>1585.35</ele>
        <time>2021-08-15T15:57:58Z</time>
      </trkpt>
      <trkpt lat="45.11415" lon="2.67166">
        <ele>1585.35</ele>
        <time>2021-08-15T15:57:59Z</time>
      </trkpt>
      <trkpt lat="45.11414" lon="2.67166">
        <ele>1585.35</ele>
        <time>2021-08-15T15:58:00Z</time>
      </trkpt>
      <trkpt lat="45.11412" lon="2.67166">
        <ele>1585.35</ele>
        <time>2021-08-15T15:58:01Z</time>
      </trkpt>
      <trkpt lat="45.1141" lon="2.67167">
        <ele>1585.35</ele>
        <time>2021-08-15T15:58:02Z</time>
      </trkpt>
      <trkpt lat="45.11407" lon="2.67167">
        <ele>1585.35</ele>
        <time>2021-08-15T15:58:03Z</time>
      </trkpt>
      <trkpt lat="45.11405" lon="2.67167">
        <ele>1584.87</ele>
        <time>2021-08-15T15:58:04Z</time>
      </trkpt>
      <trkpt lat="45.11402" lon="2.67167">
        <ele>1584.87</ele>
        <time>2021-08-15T15:58:05Z</time>
      </trkpt>
      <trkpt lat="45.11398" lon="2.67167">
        <ele>1584.87</ele>
        <time>2021-08-15T15:58:06Z</time>
      </trkpt>
      <trkpt lat="45.11366" lon="2.67167">
        <ele>1582.95</ele>
        <time>2021-08-15T15:58:14Z</time>
      </trkpt>
      <trkpt lat="45.11324" lon="2.67172">
        <ele>1579.58</ele>
        <time>2021-08-15T15:58:21Z</time>
      </trkpt>
      <trkpt lat="45.1127" lon="2.67179">
        <ele>1576.22</ele>
        <time>2021-08-15T15:58:29Z</time>
      </trkpt>
      <trkpt lat="45.11225" lon="2.67177">
        <ele>1573.33</ele>
        <time>2021-08-15T15:58:35Z</time>
      </trkpt>
      <trkpt lat="45.11203" lon="2.67172">
        <ele>1572.85</ele>
        <time>2021-08-15T15:58:38Z</time>
      </trkpt>
      <trkpt lat="45.11195" lon="2.67171">
        <ele>1571.89</ele>
        <time>2021-08-15T15:58:39Z</time>
      </trkpt>
      <trkpt lat="45.11125" lon="2.67174">
        <ele>1569.97</ele>
        <time>2021-08-15T15:58:48Z</time>
      </trkpt>
      <trkpt lat="45.1107" lon="2.67186">
        <ele>1568.53</ele>
        <time>2021-08-15T15:58:55Z</time>
      </trkpt>
      <trkpt lat="45.11047" lon="2.67196">
        <ele>1567.57</ele>
        <time>2021-08-15T15:58:58Z</time>
      </trkpt>
      <trkpt lat="45.11039" lon="2.67197">
        <ele>1567.09</ele>
        <time>2021-08-15T15:58:59Z</time>
      </trkpt>
      <trkpt lat="45.11031" lon="2.67196">
        <ele>1566.61</ele>
        <time>2021-08-15T15:59:00Z</time>
      </trkpt>
      <trkpt lat="45.11023" lon="2.67193">
        <ele>1566.61</ele>
        <time>2021-08-15T15:59:01Z</time>
      </trkpt>
      <trkpt lat="45.11016" lon="2.6719">
        <ele>1566.61</ele>
        <time>2021-08-15T15:59:02Z</time>
      </trkpt>
      <trkpt lat="45.11008" lon="2.67186">
        <ele>1566.61</ele>
        <time>2021-08-15T15:59:03Z</time>
      </trkpt>
      <trkpt lat="45.11001" lon="2.67184">
        <ele>1566.61</ele>
        <time>2021-08-15T15:59:04Z</time>
      </trkpt>
      <trkpt lat="45.10993" lon="2.67183">
        <ele>1566.61</ele>
        <time>2021-08-15T15:59:05Z</time>
      </trkpt>
      <trkpt lat="45.10985" lon="2.67183">
        <ele>1566.12</ele>
        <time>2021-08-15T15:59:06Z</time>
      </trkpt>
      <trkpt lat="45.10978" lon="2.67183">
        <ele>1566.12</ele>
        <time>2021-08-15T15:59:07Z</time>
      </trkpt>
      <trkpt lat="45.10925" lon="2.67182">
        <ele>1564.2</ele>
        <time>2021-08-15T15:59:14Z</time>
      </trkpt>
      <trkpt lat="45.10917" lon="2.67179">
        <ele>1563.72</ele>
        <time>2021-08-15T15:59:15Z</time>
      </trkpt>
      <trkpt lat="45.10903" lon="2.67171">
        <ele>1563.72</ele>
        <time>2021-08-15T15:59:17Z</time>
      </trkpt>
      <trkpt lat="45.10896" lon="2.67169">
        <ele>1563.24</ele>
        <time>2021-08-15T15:59:18Z</time>
      </trkpt>
      <trkpt lat="45.10881" lon="2.67164">
        <ele>1562.76</ele>
        <time>2021-08-15T15:59:20Z</time>
      </trkpt>
      <trkpt lat="45.10838" lon="2.67151">
        <ele>1562.28</ele>
        <time>2021-08-15T15:59:26Z</time>
      </trkpt>
      <trkpt lat="45.10798" lon="2.67133">
        <ele>1561.8</ele>
        <time>2021-08-15T15:59:32Z</time>
      </trkpt>
      <trkpt lat="45.10792" lon="2.67131">
        <ele>1561.32</ele>
        <time>2021-08-15T15:59:33Z</time>
      </trkpt>
      <trkpt lat="45.10786" lon="2.67131">
        <ele>1561.32</ele>
        <time>2021-08-15T15:59:34Z</time>
      </trkpt>
      <trkpt lat="45.10779" lon="2.67132">
        <ele>1561.32</ele>
        <time>2021-08-15T15:59:35Z</time>
      </trkpt>
      <trkpt lat="45.10773" lon="2.67133">
        <ele>1560.84</ele>
        <time>2021-08-15T15:59:36Z</time>
      </trkpt>
      <trkpt lat="45.10747" lon="2.67135">
        <ele>1560.36</ele>
        <time>2021-08-15T15:59:40Z</time>
      </trkpt>
      <trkpt lat="45.10741" lon="2.67133">
        <ele>1560.36</ele>
        <time>2021-08-15T15:59:41Z</time>
      </trkpt>
      <trkpt lat="45.10735" lon="2.6713">
        <ele>1560.36</ele>
        <time>2021-08-15T15:59:42Z</time>
      </trkpt>
      <trkpt lat="45.10729" lon="2.67125">
        <ele>1560.36</ele>
        <time>2021-08-15T15:59:43Z</time>
      </trkpt>
      <trkpt lat="45.10724" lon="2.67119">
        <ele>1559.88</ele>
        <time>2021-08-15T15:59:44Z</time>
      </trkpt>
      <trkpt lat="45.10719" lon="2.67113">
        <ele>1559.88</ele>
        <time>2021-08-15T15:59:45Z</time>
      </trkpt>
      <trkpt lat="45.10683" lon="2.67073">
        <ele>1559.88</ele>
        <time>2021-08-15T15:59:53Z</time>
      </trkpt>
      <trkpt lat="45.10674" lon="2.67066">
        <ele>1559.88</ele>
        <time>2021-08-15T15:59:55Z</time>
      </trkpt>
      <trkpt lat="45.1067" lon="2.67061">
        <ele>1559.4</ele>
        <time>2021-08-15T15:59:56Z</time>
      </trkpt>
      <trkpt lat="45.10665" lon="2.67054">
        <ele>1558.92</ele>
        <time>2021-08-15T15:59:57Z</time>
      </trkpt>
      <trkpt lat="45.10661" lon="2.67046">
        <ele>1558.92</ele>
        <time>2021-08-15T15:59:58Z</time>
      </trkpt>
      <trkpt lat="45.10655" lon="2.67039">
        <ele>1557.47</ele>
        <time>2021-08-15T15:59:59Z</time>
      </trkpt>
      <trkpt lat="45.1065" lon="2.67032">
        <ele>1557.47</ele>
        <time>2021-08-15T16:00:00Z</time>
      </trkpt>
      <trkpt lat="45.10644" lon="2.67025">
        <ele>1556.03</ele>
        <time>2021-08-15T16:00:01Z</time>
      </trkpt>
      <trkpt lat="45.10637" lon="2.67016">
        <ele>1555.55</ele>
        <time>2021-08-15T16:00:02Z</time>
      </trkpt>
      <trkpt lat="45.10633" lon="2.67008">
        <ele>1555.55</ele>
        <time>2021-08-15T16:00:03Z</time>
      </trkpt>
      <trkpt lat="45.10627" lon="2.66996">
        <ele>1554.59</ele>
        <time>2021-08-15T16:00:04Z</time>
      </trkpt>
      <trkpt lat="45.10613" lon="2.66967">
        <ele>1553.63</ele>
        <time>2021-08-15T16:00:07Z</time>
      </trkpt>
      <trkpt lat="45.10608" lon="2.66961">
        <ele>1553.63</ele>
        <time>2021-08-15T16:00:08Z</time>
      </trkpt>
      <trkpt lat="45.106" lon="2.66955">
        <ele>1553.63</ele>
        <time>2021-08-15T16:00:09Z</time>
      </trkpt>
      <trkpt lat="45.10594" lon="2.6695">
        <ele>1553.63</ele>
        <time>2021-08-15T16:00:10Z</time>
      </trkpt>
      <trkpt lat="45.10588" lon="2.66946">
        <ele>1553.63</ele>
        <time>2021-08-15T16:00:11Z</time>
      </trkpt>
      <trkpt lat="45.10582" lon="2.66941">
        <ele>1553.63</ele>
        <time>2021-08-15T16:00:12Z</time>
      </trkpt>
      <trkpt lat="45.10576" lon="2.66935">
        <ele>1553.63</ele>
        <time>2021-08-15T16:00:13Z</time>
      </trkpt>
      <trkpt lat="45.10553" lon="2.66914">
        <ele>1552.67</ele>
        <time>2021-08-15T16:00:17Z</time>
      </trkpt>
      <trkpt lat="45.10548" lon="2.66908">
        <ele>1552.67</ele>
        <time>2021-08-15T16:00:18Z</time>
      </trkpt>
      <trkpt lat="45.10544" lon="2.669">
        <ele>1552.67</ele>
        <time>2021-08-15T16:00:19Z</time>
      </trkpt>
      <trkpt lat="45.10505" lon="2.66845">
        <ele>1551.22</ele>
        <time>2021-08-15T16:00:27Z</time>
      </trkpt>
      <trkpt lat="45.10497" lon="2.6683">
        <ele>1550.74</ele>
        <time>2021-08-15T16:00:29Z</time>
      </trkpt>
      <trkpt lat="45.10484" lon="2.66794">
        <ele>1550.26</ele>
        <time>2021-08-15T16:00:33Z</time>
      </trkpt>
      <trkpt lat="45.10481" lon="2.66784">
        <ele>1549.78</ele>
        <time>2021-08-15T16:00:34Z</time>
      </trkpt>
      <trkpt lat="45.10472" lon="2.66735">
        <ele>1551.22</ele>
        <time>2021-08-15T16:00:40Z</time>
      </trkpt>
      <trkpt lat="45.10472" lon="2.66729">
        <ele>1551.71</ele>
        <time>2021-08-15T16:00:41Z</time>
      </trkpt>
      <trkpt lat="45.1047" lon="2.66694">
        <ele>1553.15</ele>
        <time>2021-08-15T16:00:48Z</time>
      </trkpt>
      <trkpt lat="45.1047" lon="2.66671">
        <ele>1554.59</ele>
        <time>2021-08-15T16:00:54Z</time>
      </trkpt>
      <trkpt lat="45.10472" lon="2.66663">
        <ele>1555.07</ele>
        <time>2021-08-15T16:00:56Z</time>
      </trkpt>
      <trkpt lat="45.10474" lon="2.6666">
        <ele>1555.07</ele>
        <time>2021-08-15T16:00:57Z</time>
      </trkpt>
      <trkpt lat="45.10477" lon="2.66657">
        <ele>1555.07</ele>
        <time>2021-08-15T16:00:58Z</time>
      </trkpt>
      <trkpt lat="45.10491" lon="2.66642">
        <ele>1555.07</ele>
        <time>2021-08-15T16:01:03Z</time>
      </trkpt>
      <trkpt lat="45.10493" lon="2.66636">
        <ele>1555.07</ele>
        <time>2021-08-15T16:01:04Z</time>
      </trkpt>
      <trkpt lat="45.10495" lon="2.6663">
        <ele>1553.63</ele>
        <time>2021-08-15T16:01:05Z</time>
      </trkpt>
      <trkpt lat="45.10496" lon="2.66622">
        <ele>1553.15</ele>
        <time>2021-08-15T16:01:06Z</time>
      </trkpt>
      <trkpt lat="45.10495" lon="2.66613">
        <ele>1552.67</ele>
        <time>2021-08-15T16:01:07Z</time>
      </trkpt>
      <trkpt lat="45.10493" lon="2.66604">
        <ele>1552.19</ele>
        <time>2021-08-15T16:01:08Z</time>
      </trkpt>
      <trkpt lat="45.1049" lon="2.66596">
        <ele>1551.22</ele>
        <time>2021-08-15T16:01:09Z</time>
      </trkpt>
      <trkpt lat="45.10487" lon="2.66586">
        <ele>1551.22</ele>
        <time>2021-08-15T16:01:10Z</time>
      </trkpt>
      <trkpt lat="45.10485" lon="2.66576">
        <ele>1549.78</ele>
        <time>2021-08-15T16:01:11Z</time>
      </trkpt>
      <trkpt lat="45.10483" lon="2.66565">
        <ele>1549.3</ele>
        <time>2021-08-15T16:01:12Z</time>
      </trkpt>
      <trkpt lat="45.10483" lon="2.66555">
        <ele>1548.34</ele>
        <time>2021-08-15T16:01:13Z</time>
      </trkpt>
      <trkpt lat="45.10484" lon="2.66544">
        <ele>1547.38</ele>
        <time>2021-08-15T16:01:14Z</time>
      </trkpt>
      <trkpt lat="45.10486" lon="2.66534">
        <ele>1547.38</ele>
        <time>2021-08-15T16:01:15Z</time>
      </trkpt>
      <trkpt lat="45.10485" lon="2.66525">
        <ele>1547.38</ele>
        <time>2021-08-15T16:01:16Z</time>
      </trkpt>
      <trkpt lat="45.10482" lon="2.66517">
        <ele>1547.38</ele>
        <time>2021-08-15T16:01:17Z</time>
      </trkpt>
      <trkpt lat="45.10476" lon="2.6651">
        <ele>1546.42</ele>
        <time>2021-08-15T16:01:18Z</time>
      </trkpt>
      <trkpt lat="45.10469" lon="2.66506">
        <ele>1545.94</ele>
        <time>2021-08-15T16:01:19Z</time>
      </trkpt>
      <trkpt lat="45.10461" lon="2.66502">
        <ele>1544.98</ele>
        <time>2021-08-15T16:01:20Z</time>
      </trkpt>
      <trkpt lat="45.10454" lon="2.66497">
        <ele>1544.5</ele>
        <time>2021-08-15T16:01:21Z</time>
      </trkpt>
      <trkpt lat="45.10448" lon="2.66489">
        <ele>1543.53</ele>
        <time>2021-08-15T16:01:22Z</time>
      </trkpt>
      <trkpt lat="45.10445" lon="2.66478">
        <ele>1542.57</ele>
        <time>2021-08-15T16:01:23Z</time>
      </trkpt>
      <trkpt lat="45.10443" lon="2.66466">
        <ele>1542.09</ele>
        <time>2021-08-15T16:01:24Z</time>
      </trkpt>
      <trkpt lat="45.1044" lon="2.66454">
        <ele>1541.61</ele>
        <time>2021-08-15T16:01:25Z</time>
      </trkpt>
      <trkpt lat="45.10434" lon="2.66414">
        <ele>1537.77</ele>
        <time>2021-08-15T16:01:28Z</time>
      </trkpt>
      <trkpt lat="45.1043" lon="2.66385">
        <ele>1536.32</ele>
        <time>2021-08-15T16:01:30Z</time>
      </trkpt>
      <trkpt lat="45.1043" lon="2.6637">
        <ele>1534.88</ele>
        <time>2021-08-15T16:01:31Z</time>
      </trkpt>
      <trkpt lat="45.1043" lon="2.66355">
        <ele>1533.92</ele>
        <time>2021-08-15T16:01:32Z</time>
      </trkpt>
      <trkpt lat="45.10432" lon="2.6634">
        <ele>1532.96</ele>
        <time>2021-08-15T16:01:33Z</time>
      </trkpt>
      <trkpt lat="45.10434" lon="2.66325">
        <ele>1532.48</ele>
        <time>2021-08-15T16:01:34Z</time>
      </trkpt>
      <trkpt lat="45.10439" lon="2.66271">
        <ele>1529.11</ele>
        <time>2021-08-15T16:01:38Z</time>
      </trkpt>
      <trkpt lat="45.10442" lon="2.66229">
        <ele>1527.19</ele>
        <time>2021-08-15T16:01:42Z</time>
      </trkpt>
      <trkpt lat="45.1044" lon="2.66221">
        <ele>1526.23</ele>
        <time>2021-08-15T16:01:43Z</time>
      </trkpt>
      <trkpt lat="45.10436" lon="2.66214">
        <ele>1526.23</ele>
        <time>2021-08-15T16:01:44Z</time>
      </trkpt>
      <trkpt lat="45.10431" lon="2.66211">
        <ele>1526.23</ele>
        <time>2021-08-15T16:01:45Z</time>
      </trkpt>
      <trkpt lat="45.10426" lon="2.66211">
        <ele>1526.23</ele>
        <time>2021-08-15T16:01:46Z</time>
      </trkpt>
      <trkpt lat="45.10421" lon="2.66215">
        <ele>1525.75</ele>
        <time>2021-08-15T16:01:47Z</time>
      </trkpt>
      <trkpt lat="45.10417" lon="2.6622">
        <ele>1525.75</ele>
        <time>2021-08-15T16:01:48Z</time>
      </trkpt>
      <trkpt lat="45.10413" lon="2.66227">
        <ele>1525.75</ele>
        <time>2021-08-15T16:01:49Z</time>
      </trkpt>
      <trkpt lat="45.10411" lon="2.66235">
        <ele>1525.27</ele>
        <time>2021-08-15T16:01:50Z</time>
      </trkpt>
      <trkpt lat="45.10408" lon="2.66244">
        <ele>1524.79</ele>
        <time>2021-08-15T16:01:51Z</time>
      </trkpt>
      <trkpt lat="45.10396" lon="2.66319">
        <ele>1521.9</ele>
        <time>2021-08-15T16:01:59Z</time>
      </trkpt>
      <trkpt lat="45.10391" lon="2.6634">
        <ele>1520.94</ele>
        <time>2021-08-15T16:02:01Z</time>
      </trkpt>
      <trkpt lat="45.10388" lon="2.66351">
        <ele>1519.98</ele>
        <time>2021-08-15T16:02:02Z</time>
      </trkpt>
      <trkpt lat="45.10384" lon="2.66361">
        <ele>1519.98</ele>
        <time>2021-08-15T16:02:03Z</time>
      </trkpt>
      <trkpt lat="45.1037" lon="2.66399">
        <ele>1517.58</ele>
        <time>2021-08-15T16:02:07Z</time>
      </trkpt>
      <trkpt lat="45.10368" lon="2.66408">
        <ele>1517.1</ele>
        <time>2021-08-15T16:02:08Z</time>
      </trkpt>
      <trkpt lat="45.10367" lon="2.66418">
        <ele>1516.14</ele>
        <time>2021-08-15T16:02:09Z</time>
      </trkpt>
      <trkpt lat="45.10368" lon="2.66429">
        <ele>1515.18</ele>
        <time>2021-08-15T16:02:10Z</time>
      </trkpt>
      <trkpt lat="45.1037" lon="2.66441">
        <ele>1513.73</ele>
        <time>2021-08-15T16:02:11Z</time>
      </trkpt>
      <trkpt lat="45.10371" lon="2.66453">
        <ele>1512.77</ele>
        <time>2021-08-15T16:02:12Z</time>
      </trkpt>
      <trkpt lat="45.10371" lon="2.66465">
        <ele>1511.81</ele>
        <time>2021-08-15T16:02:13Z</time>
      </trkpt>
      <trkpt lat="45.10369" lon="2.66478">
        <ele>1511.33</ele>
        <time>2021-08-15T16:02:14Z</time>
      </trkpt>
      <trkpt lat="45.10366" lon="2.6649">
        <ele>1510.37</ele>
        <time>2021-08-15T16:02:15Z</time>
      </trkpt>
      <trkpt lat="45.10355" lon="2.66553">
        <ele>1507</ele>
        <time>2021-08-15T16:02:20Z</time>
      </trkpt>
      <trkpt lat="45.10355" lon="2.66564">
        <ele>1506.52</ele>
        <time>2021-08-15T16:02:21Z</time>
      </trkpt>
      <trkpt lat="45.10357" lon="2.66574">
        <ele>1506.52</ele>
        <time>2021-08-15T16:02:22Z</time>
      </trkpt>
      <trkpt lat="45.1036" lon="2.66584">
        <ele>1505.56</ele>
        <time>2021-08-15T16:02:23Z</time>
      </trkpt>
      <trkpt lat="45.10364" lon="2.66593">
        <ele>1505.08</ele>
        <time>2021-08-15T16:02:24Z</time>
      </trkpt>
      <trkpt lat="45.10369" lon="2.66602">
        <ele>1504.6</ele>
        <time>2021-08-15T16:02:25Z</time>
      </trkpt>
      <trkpt lat="45.10378" lon="2.66624">
        <ele>1504.12</ele>
        <time>2021-08-15T16:02:27Z</time>
      </trkpt>
      <trkpt lat="45.10381" lon="2.66636">
        <ele>1503.64</ele>
        <time>2021-08-15T16:02:28Z</time>
      </trkpt>
      <trkpt lat="45.10383" lon="2.66649">
        <ele>1502.68</ele>
        <time>2021-08-15T16:02:29Z</time>
      </trkpt>
      <trkpt lat="45.10388" lon="2.66689">
        <ele>1500.76</ele>
        <time>2021-08-15T16:02:32Z</time>
      </trkpt>
      <trkpt lat="45.10394" lon="2.66718">
        <ele>1499.79</ele>
        <time>2021-08-15T16:02:34Z</time>
      </trkpt>
      <trkpt lat="45.10403" lon="2.66775">
        <ele>1496.43</ele>
        <time>2021-08-15T16:02:38Z</time>
      </trkpt>
      <trkpt lat="45.10404" lon="2.66788">
        <ele>1496.43</ele>
        <time>2021-08-15T16:02:39Z</time>
      </trkpt>
      <trkpt lat="45.10405" lon="2.66801">
        <ele>1495.47</ele>
        <time>2021-08-15T16:02:40Z</time>
      </trkpt>
      <trkpt lat="45.10404" lon="2.66815">
        <ele>1494.51</ele>
        <time>2021-08-15T16:02:41Z</time>
      </trkpt>
      <trkpt lat="45.10401" lon="2.66827">
        <ele>1494.03</ele>
        <time>2021-08-15T16:02:42Z</time>
      </trkpt>
      <trkpt lat="45.10395" lon="2.66839">
        <ele>1493.06</ele>
        <time>2021-08-15T16:02:43Z</time>
      </trkpt>
      <trkpt lat="45.10389" lon="2.66849">
        <ele>1493.55</ele>
        <time>2021-08-15T16:02:44Z</time>
      </trkpt>
      <trkpt lat="45.10379" lon="2.66871">
        <ele>1492.58</ele>
        <time>2021-08-15T16:02:46Z</time>
      </trkpt>
      <trkpt lat="45.1037" lon="2.66894">
        <ele>1491.14</ele>
        <time>2021-08-15T16:02:48Z</time>
      </trkpt>
      <trkpt lat="45.10364" lon="2.66905">
        <ele>1491.62</ele>
        <time>2021-08-15T16:02:49Z</time>
      </trkpt>
      <trkpt lat="45.10357" lon="2.66914">
        <ele>1491.62</ele>
        <time>2021-08-15T16:02:50Z</time>
      </trkpt>
      <trkpt lat="45.10328" lon="2.66947">
        <ele>1490.18</ele>
        <time>2021-08-15T16:02:54Z</time>
      </trkpt>
      <trkpt lat="45.10319" lon="2.66953">
        <ele>1489.22</ele>
        <time>2021-08-15T16:02:55Z</time>
      </trkpt>
      <trkpt lat="45.1031" lon="2.66957">
        <ele>1489.22</ele>
        <time>2021-08-15T16:02:56Z</time>
      </trkpt>
      <trkpt lat="45.10301" lon="2.6696">
        <ele>1489.22</ele>
        <time>2021-08-15T16:02:57Z</time>
      </trkpt>
      <trkpt lat="45.10292" lon="2.66962">
        <ele>1488.74</ele>
        <time>2021-08-15T16:02:58Z</time>
      </trkpt>
      <trkpt lat="45.10283" lon="2.66963">
        <ele>1488.74</ele>
        <time>2021-08-15T16:02:59Z</time>
      </trkpt>
      <trkpt lat="45.10265" lon="2.66967">
        <ele>1488.74</ele>
        <time>2021-08-15T16:03:01Z</time>
      </trkpt>
      <trkpt lat="45.10257" lon="2.66972">
        <ele>1487.78</ele>
        <time>2021-08-15T16:03:02Z</time>
      </trkpt>
      <trkpt lat="45.1025" lon="2.66978">
        <ele>1487.78</ele>
        <time>2021-08-15T16:03:03Z</time>
      </trkpt>
      <trkpt lat="45.10244" lon="2.66984">
        <ele>1487.3</ele>
        <time>2021-08-15T16:03:04Z</time>
      </trkpt>
      <trkpt lat="45.10238" lon="2.66991">
        <ele>1487.3</ele>
        <time>2021-08-15T16:03:05Z</time>
      </trkpt>
      <trkpt lat="45.10233" lon="2.66996">
        <ele>1487.3</ele>
        <time>2021-08-15T16:03:06Z</time>
      </trkpt>
      <trkpt lat="45.10229" lon="2.67004">
        <ele>1487.3</ele>
        <time>2021-08-15T16:03:07Z</time>
      </trkpt>
      <trkpt lat="45.10228" lon="2.67012">
        <ele>1486.82</ele>
        <time>2021-08-15T16:03:08Z</time>
      </trkpt>
      <trkpt lat="45.10229" lon="2.67021">
        <ele>1486.34</ele>
        <time>2021-08-15T16:03:09Z</time>
      </trkpt>
      <trkpt lat="45.10232" lon="2.67029">
        <ele>1485.85</ele>
        <time>2021-08-15T16:03:10Z</time>
      </trkpt>
      <trkpt lat="45.10237" lon="2.67036">
        <ele>1485.85</ele>
        <time>2021-08-15T16:03:11Z</time>
      </trkpt>
      <trkpt lat="45.10243" lon="2.67042">
        <ele>1485.85</ele>
        <time>2021-08-15T16:03:12Z</time>
      </trkpt>
      <trkpt lat="45.10249" lon="2.67047">
        <ele>1485.37</ele>
        <time>2021-08-15T16:03:13Z</time>
      </trkpt>
      <trkpt lat="45.10256" lon="2.67052">
        <ele>1485.37</ele>
        <time>2021-08-15T16:03:14Z</time>
      </trkpt>
      <trkpt lat="45.10263" lon="2.67056">
        <ele>1484.89</ele>
        <time>2021-08-15T16:03:15Z</time>
      </trkpt>
      <trkpt lat="45.10271" lon="2.67059">
        <ele>1483.93</ele>
        <time>2021-08-15T16:03:16Z</time>
      </trkpt>
      <trkpt lat="45.10287" lon="2.67068">
        <ele>1482.97</ele>
        <time>2021-08-15T16:03:18Z</time>
      </trkpt>
      <trkpt lat="45.10339" lon="2.67104">
        <ele>1480.57</ele>
        <time>2021-08-15T16:03:25Z</time>
      </trkpt>
      <trkpt lat="45.10345" lon="2.67111">
        <ele>1480.57</ele>
        <time>2021-08-15T16:03:26Z</time>
      </trkpt>
      <trkpt lat="45.1035" lon="2.6712">
        <ele>1480.09</ele>
        <time>2021-08-15T16:03:27Z</time>
      </trkpt>
      <trkpt lat="45.10353" lon="2.6713">
        <ele>1479.61</ele>
        <time>2021-08-15T16:03:28Z</time>
      </trkpt>
      <trkpt lat="45.10354" lon="2.67141">
        <ele>1479.61</ele>
        <time>2021-08-15T16:03:29Z</time>
      </trkpt>
      <trkpt lat="45.10354" lon="2.67152">
        <ele>1479.61</ele>
        <time>2021-08-15T16:03:30Z</time>
      </trkpt>
      <trkpt lat="45.10361" lon="2.67207">
        <ele>1478.16</ele>
        <time>2021-08-15T16:03:35Z</time>
      </trkpt>
      <trkpt lat="45.10364" lon="2.67218">
        <ele>1477.68</ele>
        <time>2021-08-15T16:03:36Z</time>
      </trkpt>
      <trkpt lat="45.10367" lon="2.67228">
        <ele>1477.68</ele>
        <time>2021-08-15T16:03:37Z</time>
      </trkpt>
      <trkpt lat="45.10372" lon="2.67238">
        <ele>1477.68</ele>
        <time>2021-08-15T16:03:38Z</time>
      </trkpt>
      <trkpt lat="45.10377" lon="2.67247">
        <ele>1476.72</ele>
        <time>2021-08-15T16:03:39Z</time>
      </trkpt>
      <trkpt lat="45.10382" lon="2.67256">
        <ele>1476.24</ele>
        <time>2021-08-15T16:03:40Z</time>
      </trkpt>
      <trkpt lat="45.10388" lon="2.67266">
        <ele>1475.76</ele>
        <time>2021-08-15T16:03:41Z</time>
      </trkpt>
      <trkpt lat="45.10407" lon="2.67303">
        <ele>1474.8</ele>
        <time>2021-08-15T16:03:45Z</time>
      </trkpt>
      <trkpt lat="45.10413" lon="2.6731">
        <ele>1474.32</ele>
        <time>2021-08-15T16:03:46Z</time>
      </trkpt>
      <trkpt lat="45.1042" lon="2.67314">
        <ele>1473.36</ele>
        <time>2021-08-15T16:03:47Z</time>
      </trkpt>
      <trkpt lat="45.10428" lon="2.67317">
        <ele>1472.4</ele>
        <time>2021-08-15T16:03:48Z</time>
      </trkpt>
      <trkpt lat="45.10437" lon="2.67317">
        <ele>1471.92</ele>
        <time>2021-08-15T16:03:49Z</time>
      </trkpt>
      <trkpt lat="45.10446" lon="2.67316">
        <ele>1470.95</ele>
        <time>2021-08-15T16:03:50Z</time>
      </trkpt>
      <trkpt lat="45.10491" lon="2.67321">
        <ele>1467.11</ele>
        <time>2021-08-15T16:03:55Z</time>
      </trkpt>
      <trkpt lat="45.105" lon="2.67324">
        <ele>1466.63</ele>
        <time>2021-08-15T16:03:56Z</time>
      </trkpt>
      <trkpt lat="45.10509" lon="2.67329">
        <ele>1466.15</ele>
        <time>2021-08-15T16:03:57Z</time>
      </trkpt>
      <trkpt lat="45.10517" lon="2.67335">
        <ele>1465.67</ele>
        <time>2021-08-15T16:03:58Z</time>
      </trkpt>
      <trkpt lat="45.10524" lon="2.67342">
        <ele>1465.19</ele>
        <time>2021-08-15T16:03:59Z</time>
      </trkpt>
      <trkpt lat="45.1053" lon="2.67353">
        <ele>1464.23</ele>
        <time>2021-08-15T16:04:00Z</time>
      </trkpt>
      <trkpt lat="45.10533" lon="2.67364">
        <ele>1464.23</ele>
        <time>2021-08-15T16:04:01Z</time>
      </trkpt>
      <trkpt lat="45.10534" lon="2.67377">
        <ele>1463.74</ele>
        <time>2021-08-15T16:04:02Z</time>
      </trkpt>
      <trkpt lat="45.10534" lon="2.67391">
        <ele>1462.78</ele>
        <time>2021-08-15T16:04:03Z</time>
      </trkpt>
      <trkpt lat="45.10533" lon="2.67403">
        <ele>1462.3</ele>
        <time>2021-08-15T16:04:04Z</time>
      </trkpt>
      <trkpt lat="45.10532" lon="2.67416">
        <ele>1461.82</ele>
        <time>2021-08-15T16:04:05Z</time>
      </trkpt>
      <trkpt lat="45.10532" lon="2.67429">
        <ele>1461.34</ele>
        <time>2021-08-15T16:04:06Z</time>
      </trkpt>
      <trkpt lat="45.10533" lon="2.67441">
        <ele>1460.86</ele>
        <time>2021-08-15T16:04:07Z</time>
      </trkpt>
      <trkpt lat="45.10537" lon="2.67453">
        <ele>1459.9</ele>
        <time>2021-08-15T16:04:08Z</time>
      </trkpt>
      <trkpt lat="45.10542" lon="2.67464">
        <ele>1458.94</ele>
        <time>2021-08-15T16:04:09Z</time>
      </trkpt>
      <trkpt lat="45.10547" lon="2.67474">
        <ele>1458.46</ele>
        <time>2021-08-15T16:04:10Z</time>
      </trkpt>
      <trkpt lat="45.10551" lon="2.67486">
        <ele>1457.5</ele>
        <time>2021-08-15T16:04:11Z</time>
      </trkpt>
      <trkpt lat="45.10552" lon="2.67497">
        <ele>1457.02</ele>
        <time>2021-08-15T16:04:12Z</time>
      </trkpt>
      <trkpt lat="45.10551" lon="2.67508">
        <ele>1457.02</ele>
        <time>2021-08-15T16:04:13Z</time>
      </trkpt>
      <trkpt lat="45.10547" lon="2.67519">
        <ele>1456.53</ele>
        <time>2021-08-15T16:04:14Z</time>
      </trkpt>
      <trkpt lat="45.10543" lon="2.67529">
        <ele>1456.05</ele>
        <time>2021-08-15T16:04:15Z</time>
      </trkpt>
      <trkpt lat="45.10534" lon="2.67551">
        <ele>1454.61</ele>
        <time>2021-08-15T16:04:17Z</time>
      </trkpt>
      <trkpt lat="45.10514" lon="2.6761">
        <ele>1451.73</ele>
        <time>2021-08-15T16:04:22Z</time>
      </trkpt>
      <trkpt lat="45.10485" lon="2.67668">
        <ele>1447.88</ele>
        <time>2021-08-15T16:04:27Z</time>
      </trkpt>
      <trkpt lat="45.10467" lon="2.67701">
        <ele>1445.96</ele>
        <time>2021-08-15T16:04:30Z</time>
      </trkpt>
      <trkpt lat="45.10462" lon="2.67714">
        <ele>1445</ele>
        <time>2021-08-15T16:04:31Z</time>
      </trkpt>
      <trkpt lat="45.10458" lon="2.67728">
        <ele>1444.04</ele>
        <time>2021-08-15T16:04:32Z</time>
      </trkpt>
      <trkpt lat="45.10455" lon="2.67742">
        <ele>1443.08</ele>
        <time>2021-08-15T16:04:33Z</time>
      </trkpt>
      <trkpt lat="45.10451" lon="2.67756">
        <ele>1442.11</ele>
        <time>2021-08-15T16:04:34Z</time>
      </trkpt>
      <trkpt lat="45.1044" lon="2.67796">
        <ele>1439.71</ele>
        <time>2021-08-15T16:04:37Z</time>
      </trkpt>
      <trkpt lat="45.10434" lon="2.67807">
        <ele>1438.75</ele>
        <time>2021-08-15T16:04:38Z</time>
      </trkpt>
      <trkpt lat="45.10425" lon="2.67828">
        <ele>1437.79</ele>
        <time>2021-08-15T16:04:40Z</time>
      </trkpt>
      <trkpt lat="45.10421" lon="2.6784">
        <ele>1436.83</ele>
        <time>2021-08-15T16:04:41Z</time>
      </trkpt>
      <trkpt lat="45.10419" lon="2.67852">
        <ele>1436.35</ele>
        <time>2021-08-15T16:04:42Z</time>
      </trkpt>
      <trkpt lat="45.10417" lon="2.67866">
        <ele>1435.39</ele>
        <time>2021-08-15T16:04:43Z</time>
      </trkpt>
      <trkpt lat="45.10415" lon="2.6788">
        <ele>1434.42</ele>
        <time>2021-08-15T16:04:44Z</time>
      </trkpt>
      <trkpt lat="45.10411" lon="2.67939">
        <ele>1431.06</ele>
        <time>2021-08-15T16:04:48Z</time>
      </trkpt>
      <trkpt lat="45.10408" lon="2.67968">
        <ele>1429.62</ele>
        <time>2021-08-15T16:04:50Z</time>
      </trkpt>
      <trkpt lat="45.10405" lon="2.67981">
        <ele>1428.66</ele>
        <time>2021-08-15T16:04:51Z</time>
      </trkpt>
      <trkpt lat="45.10399" lon="2.67993">
        <ele>1428.18</ele>
        <time>2021-08-15T16:04:52Z</time>
      </trkpt>
      <trkpt lat="45.10392" lon="2.68003">
        <ele>1427.21</ele>
        <time>2021-08-15T16:04:53Z</time>
      </trkpt>
      <trkpt lat="45.10384" lon="2.68012">
        <ele>1426.25</ele>
        <time>2021-08-15T16:04:54Z</time>
      </trkpt>
      <trkpt lat="45.10375" lon="2.68019">
        <ele>1425.29</ele>
        <time>2021-08-15T16:04:55Z</time>
      </trkpt>
      <trkpt lat="45.10366" lon="2.68026">
        <ele>1424.33</ele>
        <time>2021-08-15T16:04:56Z</time>
      </trkpt>
      <trkpt lat="45.10338" lon="2.68051">
        <ele>1420.97</ele>
        <time>2021-08-15T16:04:59Z</time>
      </trkpt>
      <trkpt lat="45.10329" lon="2.68058">
        <ele>1420.97</ele>
        <time>2021-08-15T16:05:00Z</time>
      </trkpt>
      <trkpt lat="45.10312" lon="2.68069">
        <ele>1419.04</ele>
        <time>2021-08-15T16:05:02Z</time>
      </trkpt>
      <trkpt lat="45.10303" lon="2.68071">
        <ele>1418.08</ele>
        <time>2021-08-15T16:05:03Z</time>
      </trkpt>
      <trkpt lat="45.10294" lon="2.68071">
        <ele>1417.12</ele>
        <time>2021-08-15T16:05:04Z</time>
      </trkpt>
      <trkpt lat="45.10285" lon="2.6807">
        <ele>1417.12</ele>
        <time>2021-08-15T16:05:05Z</time>
      </trkpt>
      <trkpt lat="45.10275" lon="2.68069">
        <ele>1416.16</ele>
        <time>2021-08-15T16:05:06Z</time>
      </trkpt>
      <trkpt lat="45.10266" lon="2.68071">
        <ele>1415.2</ele>
        <time>2021-08-15T16:05:07Z</time>
      </trkpt>
      <trkpt lat="45.10257" lon="2.68074">
        <ele>1414.24</ele>
        <time>2021-08-15T16:05:08Z</time>
      </trkpt>
      <trkpt lat="45.10238" lon="2.68083">
        <ele>1413.28</ele>
        <time>2021-08-15T16:05:10Z</time>
      </trkpt>
      <trkpt lat="45.10222" lon="2.68094">
        <ele>1411.83</ele>
        <time>2021-08-15T16:05:12Z</time>
      </trkpt>
      <trkpt lat="45.10216" lon="2.68102">
        <ele>1411.83</ele>
        <time>2021-08-15T16:05:13Z</time>
      </trkpt>
      <trkpt lat="45.10212" lon="2.68111">
        <ele>1411.35</ele>
        <time>2021-08-15T16:05:14Z</time>
      </trkpt>
      <trkpt lat="45.10208" lon="2.68121">
        <ele>1410.87</ele>
        <time>2021-08-15T16:05:15Z</time>
      </trkpt>
      <trkpt lat="45.10203" lon="2.6813">
        <ele>1409.43</ele>
        <time>2021-08-15T16:05:16Z</time>
      </trkpt>
      <trkpt lat="45.10197" lon="2.68138">
        <ele>1408.95</ele>
        <time>2021-08-15T16:05:17Z</time>
      </trkpt>
      <trkpt lat="45.1019" lon="2.68144">
        <ele>1408.47</ele>
        <time>2021-08-15T16:05:18Z</time>
      </trkpt>
      <trkpt lat="45.10165" lon="2.68163">
        <ele>1405.1</ele>
        <time>2021-08-15T16:05:21Z</time>
      </trkpt>
      <trkpt lat="45.1014" lon="2.68182">
        <ele>1402.7</ele>
        <time>2021-08-15T16:05:24Z</time>
      </trkpt>
      <trkpt lat="45.10131" lon="2.68186">
        <ele>1401.74</ele>
        <time>2021-08-15T16:05:25Z</time>
      </trkpt>
      <trkpt lat="45.10121" lon="2.68187">
        <ele>1401.26</ele>
        <time>2021-08-15T16:05:26Z</time>
      </trkpt>
      <trkpt lat="45.10111" lon="2.68188">
        <ele>1400.78</ele>
        <time>2021-08-15T16:05:27Z</time>
      </trkpt>
      <trkpt lat="45.10102" lon="2.68189">
        <ele>1399.82</ele>
        <time>2021-08-15T16:05:28Z</time>
      </trkpt>
      <trkpt lat="45.10092" lon="2.68192">
        <ele>1399.34</ele>
        <time>2021-08-15T16:05:29Z</time>
      </trkpt>
      <trkpt lat="45.10082" lon="2.68197">
        <ele>1398.37</ele>
        <time>2021-08-15T16:05:30Z</time>
      </trkpt>
      <trkpt lat="45.10073" lon="2.68202">
        <ele>1397.89</ele>
        <time>2021-08-15T16:05:31Z</time>
      </trkpt>
      <trkpt lat="45.10035" lon="2.68221">
        <ele>1395.01</ele>
        <time>2021-08-15T16:05:35Z</time>
      </trkpt>
      <trkpt lat="45.10024" lon="2.68224">
        <ele>1395.01</ele>
        <time>2021-08-15T16:05:36Z</time>
      </trkpt>
      <trkpt lat="45.09975" lon="2.6825">
        <ele>1391.65</ele>
        <time>2021-08-15T16:05:41Z</time>
      </trkpt>
      <trkpt lat="45.09957" lon="2.6826">
        <ele>1390.68</ele>
        <time>2021-08-15T16:05:43Z</time>
      </trkpt>
      <trkpt lat="45.09941" lon="2.68269">
        <ele>1390.2</ele>
        <time>2021-08-15T16:05:45Z</time>
      </trkpt>
      <trkpt lat="45.09935" lon="2.68274">
        <ele>1390.2</ele>
        <time>2021-08-15T16:05:46Z</time>
      </trkpt>
      <trkpt lat="45.0993" lon="2.68281">
        <ele>1390.68</ele>
        <time>2021-08-15T16:05:47Z</time>
      </trkpt>
      <trkpt lat="45.09928" lon="2.68289">
        <ele>1390.2</ele>
        <time>2021-08-15T16:05:48Z</time>
      </trkpt>
      <trkpt lat="45.09928" lon="2.68299">
        <ele>1389.72</ele>
        <time>2021-08-15T16:05:49Z</time>
      </trkpt>
      <trkpt lat="45.0993" lon="2.6831">
        <ele>1388.76</ele>
        <time>2021-08-15T16:05:50Z</time>
      </trkpt>
      <trkpt lat="45.09933" lon="2.6832">
        <ele>1387.8</ele>
        <time>2021-08-15T16:05:51Z</time>
      </trkpt>
      <trkpt lat="45.09936" lon="2.68331">
        <ele>1387.32</ele>
        <time>2021-08-15T16:05:52Z</time>
      </trkpt>
      <trkpt lat="45.0994" lon="2.68341">
        <ele>1386.36</ele>
        <time>2021-08-15T16:05:53Z</time>
      </trkpt>
      <trkpt lat="45.09945" lon="2.68351">
        <ele>1386.36</ele>
        <time>2021-08-15T16:05:54Z</time>
      </trkpt>
      <trkpt lat="45.09953" lon="2.68373">
        <ele>1384.44</ele>
        <time>2021-08-15T16:05:56Z</time>
      </trkpt>
      <trkpt lat="45.09955" lon="2.68387">
        <ele>1383.47</ele>
        <time>2021-08-15T16:05:57Z</time>
      </trkpt>
      <trkpt lat="45.09955" lon="2.684">
        <ele>1382.99</ele>
        <time>2021-08-15T16:05:58Z</time>
      </trkpt>
      <trkpt lat="45.09956" lon="2.68429">
        <ele>1381.55</ele>
        <time>2021-08-15T16:06:00Z</time>
      </trkpt>
      <trkpt lat="45.09958" lon="2.68443">
        <ele>1381.07</ele>
        <time>2021-08-15T16:06:01Z</time>
      </trkpt>
      <trkpt lat="45.09961" lon="2.68474">
        <ele>1379.15</ele>
        <time>2021-08-15T16:06:03Z</time>
      </trkpt>
      <trkpt lat="45.09961" lon="2.6849">
        <ele>1377.71</ele>
        <time>2021-08-15T16:06:04Z</time>
      </trkpt>
      <trkpt lat="45.0996" lon="2.68516">
        <ele>1376.75</ele>
        <time>2021-08-15T16:06:06Z</time>
      </trkpt>
      <trkpt lat="45.09962" lon="2.68529">
        <ele>1376.75</ele>
        <time>2021-08-15T16:06:07Z</time>
      </trkpt>
      <trkpt lat="45.09965" lon="2.68538">
        <ele>1375.78</ele>
        <time>2021-08-15T16:06:08Z</time>
      </trkpt>
      <trkpt lat="45.09968" lon="2.68547">
        <ele>1375.78</ele>
        <time>2021-08-15T16:06:09Z</time>
      </trkpt>
      <trkpt lat="45.09969" lon="2.68557">
        <ele>1374.82</ele>
        <time>2021-08-15T16:06:10Z</time>
      </trkpt>
      <trkpt lat="45.09968" lon="2.68567">
        <ele>1374.34</ele>
        <time>2021-08-15T16:06:11Z</time>
      </trkpt>
      <trkpt lat="45.09965" lon="2.68577">
        <ele>1373.86</ele>
        <time>2021-08-15T16:06:12Z</time>
      </trkpt>
      <trkpt lat="45.09961" lon="2.68587">
        <ele>1373.86</ele>
        <time>2021-08-15T16:06:13Z</time>
      </trkpt>
      <trkpt lat="45.09956" lon="2.68597">
        <ele>1373.38</ele>
        <time>2021-08-15T16:06:14Z</time>
      </trkpt>
      <trkpt lat="45.0994" lon="2.68626">
        <ele>1370.98</ele>
        <time>2021-08-15T16:06:17Z</time>
      </trkpt>
      <trkpt lat="45.09926" lon="2.68643">
        <ele>1369.05</ele>
        <time>2021-08-15T16:06:19Z</time>
      </trkpt>
      <trkpt lat="45.09918" lon="2.6865">
        <ele>1368.09</ele>
        <time>2021-08-15T16:06:20Z</time>
      </trkpt>
      <trkpt lat="45.09909" lon="2.68654">
        <ele>1368.09</ele>
        <time>2021-08-15T16:06:21Z</time>
      </trkpt>
      <trkpt lat="45.09899" lon="2.68657">
        <ele>1367.13</ele>
        <time>2021-08-15T16:06:22Z</time>
      </trkpt>
      <trkpt lat="45.09889" lon="2.68658">
        <ele>1366.17</ele>
        <time>2021-08-15T16:06:23Z</time>
      </trkpt>
      <trkpt lat="45.09879" lon="2.6866">
        <ele>1365.21</ele>
        <time>2021-08-15T16:06:24Z</time>
      </trkpt>
      <trkpt lat="45.09857" lon="2.68665">
        <ele>1363.77</ele>
        <time>2021-08-15T16:06:26Z</time>
      </trkpt>
      <trkpt lat="45.09847" lon="2.68671">
        <ele>1362.81</ele>
        <time>2021-08-15T16:06:27Z</time>
      </trkpt>
      <trkpt lat="45.09838" lon="2.68677">
        <ele>1361.84</ele>
        <time>2021-08-15T16:06:28Z</time>
      </trkpt>
      <trkpt lat="45.09828" lon="2.68684">
        <ele>1361.36</ele>
        <time>2021-08-15T16:06:29Z</time>
      </trkpt>
      <trkpt lat="45.09818" lon="2.68688">
        <ele>1360.4</ele>
        <time>2021-08-15T16:06:30Z</time>
      </trkpt>
      <trkpt lat="45.09808" lon="2.68691">
        <ele>1359.44</ele>
        <time>2021-08-15T16:06:31Z</time>
      </trkpt>
      <trkpt lat="45.09797" lon="2.68691">
        <ele>1358.96</ele>
        <time>2021-08-15T16:06:32Z</time>
      </trkpt>
      <trkpt lat="45.09786" lon="2.68691">
        <ele>1358</ele>
        <time>2021-08-15T16:06:33Z</time>
      </trkpt>
      <trkpt lat="45.09751" lon="2.68687">
        <ele>1354.63</ele>
        <time>2021-08-15T16:06:36Z</time>
      </trkpt>
      <trkpt lat="45.09717" lon="2.68681">
        <ele>1351.75</ele>
        <time>2021-08-15T16:06:39Z</time>
      </trkpt>
      <trkpt lat="45.09706" lon="2.68683">
        <ele>1350.79</ele>
        <time>2021-08-15T16:06:40Z</time>
      </trkpt>
      <trkpt lat="45.0966" lon="2.68692">
        <ele>1347.43</ele>
        <time>2021-08-15T16:06:44Z</time>
      </trkpt>
      <trkpt lat="45.09616" lon="2.68701">
        <ele>1343.58</ele>
        <time>2021-08-15T16:06:48Z</time>
      </trkpt>
      <trkpt lat="45.09575" lon="2.68704">
        <ele>1340.7</ele>
        <time>2021-08-15T16:06:52Z</time>
      </trkpt>
      <trkpt lat="45.09564" lon="2.68702">
        <ele>1340.22</ele>
        <time>2021-08-15T16:06:53Z</time>
      </trkpt>
      <trkpt lat="45.09554" lon="2.68696">
        <ele>1338.77</ele>
        <time>2021-08-15T16:06:54Z</time>
      </trkpt>
      <trkpt lat="45.09545" lon="2.6869">
        <ele>1338.29</ele>
        <time>2021-08-15T16:06:55Z</time>
      </trkpt>
      <trkpt lat="45.09535" lon="2.68681">
        <ele>1337.33</ele>
        <time>2021-08-15T16:06:56Z</time>
      </trkpt>
      <trkpt lat="45.09526" lon="2.68673">
        <ele>1336.85</ele>
        <time>2021-08-15T16:06:57Z</time>
      </trkpt>
      <trkpt lat="45.09488" lon="2.68637">
        <ele>1333.49</ele>
        <time>2021-08-15T16:07:01Z</time>
      </trkpt>
      <trkpt lat="45.0946" lon="2.68613">
        <ele>1330.6</ele>
        <time>2021-08-15T16:07:04Z</time>
      </trkpt>
      <trkpt lat="45.09452" lon="2.68603">
        <ele>1330.12</ele>
        <time>2021-08-15T16:07:05Z</time>
      </trkpt>
      <trkpt lat="45.09444" lon="2.68591">
        <ele>1328.68</ele>
        <time>2021-08-15T16:07:06Z</time>
      </trkpt>
      <trkpt lat="45.09437" lon="2.68578">
        <ele>1327.72</ele>
        <time>2021-08-15T16:07:07Z</time>
      </trkpt>
      <trkpt lat="45.0943" lon="2.68565">
        <ele>1326.76</ele>
        <time>2021-08-15T16:07:08Z</time>
      </trkpt>
      <trkpt lat="45.09414" lon="2.6854">
        <ele>1325.31</ele>
        <time>2021-08-15T16:07:10Z</time>
      </trkpt>
      <trkpt lat="45.09406" lon="2.68528">
        <ele>1324.35</ele>
        <time>2021-08-15T16:07:11Z</time>
      </trkpt>
      <trkpt lat="45.09398" lon="2.68519">
        <ele>1322.91</ele>
        <time>2021-08-15T16:07:12Z</time>
      </trkpt>
      <trkpt lat="45.0939" lon="2.6851">
        <ele>1321.95</ele>
        <time>2021-08-15T16:07:13Z</time>
      </trkpt>
      <trkpt lat="45.09383" lon="2.685">
        <ele>1321.47</ele>
        <time>2021-08-15T16:07:14Z</time>
      </trkpt>
      <trkpt lat="45.09378" lon="2.68489">
        <ele>1320.99</ele>
        <time>2021-08-15T16:07:15Z</time>
      </trkpt>
      <trkpt lat="45.09373" lon="2.68478">
        <ele>1320.03</ele>
        <time>2021-08-15T16:07:16Z</time>
      </trkpt>
      <trkpt lat="45.09369" lon="2.68464">
        <ele>1319.07</ele>
        <time>2021-08-15T16:07:17Z</time>
      </trkpt>
      <trkpt lat="45.09367" lon="2.6845">
        <ele>1318.1</ele>
        <time>2021-08-15T16:07:18Z</time>
      </trkpt>
      <trkpt lat="45.09364" lon="2.68436">
        <ele>1317.62</ele>
        <time>2021-08-15T16:07:19Z</time>
      </trkpt>
      <trkpt lat="45.09361" lon="2.68424">
        <ele>1317.14</ele>
        <time>2021-08-15T16:07:20Z</time>
      </trkpt>
      <trkpt lat="45.09356" lon="2.68412">
        <ele>1315.7</ele>
        <time>2021-08-15T16:07:21Z</time>
      </trkpt>
      <trkpt lat="45.09349" lon="2.68401">
        <ele>1314.74</ele>
        <time>2021-08-15T16:07:22Z</time>
      </trkpt>
      <trkpt lat="45.09341" lon="2.68391">
        <ele>1313.3</ele>
        <time>2021-08-15T16:07:23Z</time>
      </trkpt>
      <trkpt lat="45.09334" lon="2.6838">
        <ele>1312.82</ele>
        <time>2021-08-15T16:07:24Z</time>
      </trkpt>
      <trkpt lat="45.09327" lon="2.68369">
        <ele>1311.86</ele>
        <time>2021-08-15T16:07:25Z</time>
      </trkpt>
      <trkpt lat="45.0932" lon="2.68356">
        <ele>1311.86</ele>
        <time>2021-08-15T16:07:26Z</time>
      </trkpt>
      <trkpt lat="45.09314" lon="2.68346">
        <ele>1310.41</ele>
        <time>2021-08-15T16:07:27Z</time>
      </trkpt>
      <trkpt lat="45.09307" lon="2.68337">
        <ele>1309.93</ele>
        <time>2021-08-15T16:07:28Z</time>
      </trkpt>
      <trkpt lat="45.09299" lon="2.68331">
        <ele>1309.45</ele>
        <time>2021-08-15T16:07:29Z</time>
      </trkpt>
      <trkpt lat="45.09291" lon="2.68329">
        <ele>1308.49</ele>
        <time>2021-08-15T16:07:30Z</time>
      </trkpt>
      <trkpt lat="45.09282" lon="2.6833">
        <ele>1307.53</ele>
        <time>2021-08-15T16:07:31Z</time>
      </trkpt>
      <trkpt lat="45.09273" lon="2.68334">
        <ele>1307.53</ele>
        <time>2021-08-15T16:07:32Z</time>
      </trkpt>
      <trkpt lat="45.09266" lon="2.68342">
        <ele>1306.09</ele>
        <time>2021-08-15T16:07:33Z</time>
      </trkpt>
      <trkpt lat="45.09259" lon="2.68351">
        <ele>1305.13</ele>
        <time>2021-08-15T16:07:34Z</time>
      </trkpt>
      <trkpt lat="45.09252" lon="2.68361">
        <ele>1304.17</ele>
        <time>2021-08-15T16:07:35Z</time>
      </trkpt>
      <trkpt lat="45.09246" lon="2.68371">
        <ele>1303.69</ele>
        <time>2021-08-15T16:07:36Z</time>
      </trkpt>
      <trkpt lat="45.09239" lon="2.68382">
        <ele>1302.72</ele>
        <time>2021-08-15T16:07:37Z</time>
      </trkpt>
      <trkpt lat="45.09234" lon="2.68394">
        <ele>1301.76</ele>
        <time>2021-08-15T16:07:38Z</time>
      </trkpt>
      <trkpt lat="45.09229" lon="2.68406">
        <ele>1301.28</ele>
        <time>2021-08-15T16:07:39Z</time>
      </trkpt>
      <trkpt lat="45.09225" lon="2.68418">
        <ele>1300.32</ele>
        <time>2021-08-15T16:07:40Z</time>
      </trkpt>
      <trkpt lat="45.09223" lon="2.68431">
        <ele>1299.84</ele>
        <time>2021-08-15T16:07:41Z</time>
      </trkpt>
      <trkpt lat="45.09221" lon="2.68445">
        <ele>1299.36</ele>
        <time>2021-08-15T16:07:42Z</time>
      </trkpt>
      <trkpt lat="45.0922" lon="2.6846">
        <ele>1298.88</ele>
        <time>2021-08-15T16:07:43Z</time>
      </trkpt>
      <trkpt lat="45.09223" lon="2.68522">
        <ele>1295.03</ele>
        <time>2021-08-15T16:07:47Z</time>
      </trkpt>
      <trkpt lat="45.09233" lon="2.68579">
        <ele>1291.19</ele>
        <time>2021-08-15T16:07:51Z</time>
      </trkpt>
      <trkpt lat="45.09237" lon="2.68603">
        <ele>1290.71</ele>
        <time>2021-08-15T16:07:53Z</time>
      </trkpt>
      <trkpt lat="45.09241" lon="2.68614">
        <ele>1289.75</ele>
        <time>2021-08-15T16:07:54Z</time>
      </trkpt>
      <trkpt lat="45.0925" lon="2.68634">
        <ele>1287.82</ele>
        <time>2021-08-15T16:07:56Z</time>
      </trkpt>
      <trkpt lat="45.09252" lon="2.68646">
        <ele>1286.86</ele>
        <time>2021-08-15T16:07:57Z</time>
      </trkpt>
      <trkpt lat="45.09252" lon="2.68658">
        <ele>1286.86</ele>
        <time>2021-08-15T16:07:58Z</time>
      </trkpt>
      <trkpt lat="45.09249" lon="2.68683">
        <ele>1285.42</ele>
        <time>2021-08-15T16:08:00Z</time>
      </trkpt>
      <trkpt lat="45.09249" lon="2.68697">
        <ele>1284.46</ele>
        <time>2021-08-15T16:08:01Z</time>
      </trkpt>
      <trkpt lat="45.09252" lon="2.68735">
        <ele>1283.02</ele>
        <time>2021-08-15T16:08:04Z</time>
      </trkpt>
      <trkpt lat="45.09254" lon="2.68746">
        <ele>1282.06</ele>
        <time>2021-08-15T16:08:05Z</time>
      </trkpt>
      <trkpt lat="45.09259" lon="2.68757">
        <ele>1281.09</ele>
        <time>2021-08-15T16:08:06Z</time>
      </trkpt>
      <trkpt lat="45.09263" lon="2.68764">
        <ele>1281.09</ele>
        <time>2021-08-15T16:08:07Z</time>
      </trkpt>
      <trkpt lat="45.0927" lon="2.6877">
        <ele>1280.13</ele>
        <time>2021-08-15T16:08:08Z</time>
      </trkpt>
      <trkpt lat="45.09277" lon="2.68774">
        <ele>1279.17</ele>
        <time>2021-08-15T16:08:09Z</time>
      </trkpt>
      <trkpt lat="45.09286" lon="2.68778">
        <ele>1278.21</ele>
        <time>2021-08-15T16:08:10Z</time>
      </trkpt>
      <trkpt lat="45.09294" lon="2.68782">
        <ele>1277.25</ele>
        <time>2021-08-15T16:08:11Z</time>
      </trkpt>
      <trkpt lat="45.09303" lon="2.68787">
        <ele>1276.77</ele>
        <time>2021-08-15T16:08:12Z</time>
      </trkpt>
      <trkpt lat="45.09311" lon="2.68794">
        <ele>1276.29</ele>
        <time>2021-08-15T16:08:13Z</time>
      </trkpt>
      <trkpt lat="45.09318" lon="2.68804">
        <ele>1275.33</ele>
        <time>2021-08-15T16:08:14Z</time>
      </trkpt>
      <trkpt lat="45.09323" lon="2.68815">
        <ele>1273.88</ele>
        <time>2021-08-15T16:08:15Z</time>
      </trkpt>
      <trkpt lat="45.09328" lon="2.68828">
        <ele>1272.92</ele>
        <time>2021-08-15T16:08:16Z</time>
      </trkpt>
      <trkpt lat="45.09331" lon="2.68842">
        <ele>1271.96</ele>
        <time>2021-08-15T16:08:17Z</time>
      </trkpt>
      <trkpt lat="45.09334" lon="2.68858">
        <ele>1271.48</ele>
        <time>2021-08-15T16:08:18Z</time>
      </trkpt>
      <trkpt lat="45.09336" lon="2.68871">
        <ele>1270.52</ele>
        <time>2021-08-15T16:08:19Z</time>
      </trkpt>
      <trkpt lat="45.09337" lon="2.68885">
        <ele>1269.56</ele>
        <time>2021-08-15T16:08:20Z</time>
      </trkpt>
      <trkpt lat="45.09336" lon="2.68898">
        <ele>1268.6</ele>
        <time>2021-08-15T16:08:21Z</time>
      </trkpt>
      <trkpt lat="45.09334" lon="2.68911">
        <ele>1267.64</ele>
        <time>2021-08-15T16:08:22Z</time>
      </trkpt>
      <trkpt lat="45.09331" lon="2.68921">
        <ele>1267.16</ele>
        <time>2021-08-15T16:08:23Z</time>
      </trkpt>
      <trkpt lat="45.09326" lon="2.68931">
        <ele>1267.16</ele>
        <time>2021-08-15T16:08:24Z</time>
      </trkpt>
      <trkpt lat="45.09319" lon="2.6895">
        <ele>1265.23</ele>
        <time>2021-08-15T16:08:26Z</time>
      </trkpt>
      <trkpt lat="45.09318" lon="2.68959">
        <ele>1264.75</ele>
        <time>2021-08-15T16:08:27Z</time>
      </trkpt>
      <trkpt lat="45.0932" lon="2.69005">
        <ele>1261.87</ele>
        <time>2021-08-15T16:08:31Z</time>
      </trkpt>
      <trkpt lat="45.09322" lon="2.69044">
        <ele>1260.43</ele>
        <time>2021-08-15T16:08:34Z</time>
      </trkpt>
      <trkpt lat="45.09324" lon="2.69055">
        <ele>1258.98</ele>
        <time>2021-08-15T16:08:35Z</time>
      </trkpt>
      <trkpt lat="45.09328" lon="2.69068">
        <ele>1258.02</ele>
        <time>2021-08-15T16:08:36Z</time>
      </trkpt>
      <trkpt lat="45.09332" lon="2.69079">
        <ele>1257.54</ele>
        <time>2021-08-15T16:08:37Z</time>
      </trkpt>
      <trkpt lat="45.09337" lon="2.69091">
        <ele>1256.58</ele>
        <time>2021-08-15T16:08:38Z</time>
      </trkpt>
      <trkpt lat="45.09342" lon="2.69101">
        <ele>1256.1</ele>
        <time>2021-08-15T16:08:39Z</time>
      </trkpt>
      <trkpt lat="45.09349" lon="2.69112">
        <ele>1255.14</ele>
        <time>2021-08-15T16:08:40Z</time>
      </trkpt>
      <trkpt lat="45.09356" lon="2.69122">
        <ele>1254.18</ele>
        <time>2021-08-15T16:08:41Z</time>
      </trkpt>
      <trkpt lat="45.09364" lon="2.69132">
        <ele>1252.74</ele>
        <time>2021-08-15T16:08:42Z</time>
      </trkpt>
      <trkpt lat="45.09373" lon="2.6914">
        <ele>1252.25</ele>
        <time>2021-08-15T16:08:43Z</time>
      </trkpt>
      <trkpt lat="45.09382" lon="2.69148">
        <ele>1250.81</ele>
        <time>2021-08-15T16:08:44Z</time>
      </trkpt>
      <trkpt lat="45.09392" lon="2.69155">
        <ele>1250.33</ele>
        <time>2021-08-15T16:08:45Z</time>
      </trkpt>
      <trkpt lat="45.0941" lon="2.6917">
        <ele>1249.37</ele>
        <time>2021-08-15T16:08:47Z</time>
      </trkpt>
      <trkpt lat="45.09433" lon="2.69194">
        <ele>1247.45</ele>
        <time>2021-08-15T16:08:50Z</time>
      </trkpt>
      <trkpt lat="45.09437" lon="2.69204">
        <ele>1246.97</ele>
        <time>2021-08-15T16:08:51Z</time>
      </trkpt>
      <trkpt lat="45.09438" lon="2.69214">
        <ele>1246.97</ele>
        <time>2021-08-15T16:08:52Z</time>
      </trkpt>
      <trkpt lat="45.09438" lon="2.69224">
        <ele>1246.01</ele>
        <time>2021-08-15T16:08:53Z</time>
      </trkpt>
      <trkpt lat="45.09434" lon="2.69233">
        <ele>1245.53</ele>
        <time>2021-08-15T16:08:54Z</time>
      </trkpt>
      <trkpt lat="45.09429" lon="2.69241">
        <ele>1245.53</ele>
        <time>2021-08-15T16:08:55Z</time>
      </trkpt>
      <trkpt lat="45.09425" lon="2.69245">
        <ele>1244.56</ele>
        <time>2021-08-15T16:08:56Z</time>
      </trkpt>
      <trkpt lat="45.09418" lon="2.69249">
        <ele>1244.56</ele>
        <time>2021-08-15T16:08:57Z</time>
      </trkpt>
      <trkpt lat="45.09411" lon="2.69252">
        <ele>1244.08</ele>
        <time>2021-08-15T16:08:58Z</time>
      </trkpt>
      <trkpt lat="45.09403" lon="2.69254">
        <ele>1244.08</ele>
        <time>2021-08-15T16:08:59Z</time>
      </trkpt>
      <trkpt lat="45.09368" lon="2.69267">
        <ele>1240.72</ele>
        <time>2021-08-15T16:09:03Z</time>
      </trkpt>
      <trkpt lat="45.09329" lon="2.69279">
        <ele>1236.87</ele>
        <time>2021-08-15T16:09:07Z</time>
      </trkpt>
      <trkpt lat="45.09291" lon="2.6929">
        <ele>1233.51</ele>
        <time>2021-08-15T16:09:11Z</time>
      </trkpt>
      <trkpt lat="45.09283" lon="2.69293">
        <ele>1233.03</ele>
        <time>2021-08-15T16:09:12Z</time>
      </trkpt>
      <trkpt lat="45.09275" lon="2.69298">
        <ele>1232.55</ele>
        <time>2021-08-15T16:09:13Z</time>
      </trkpt>
      <trkpt lat="45.09268" lon="2.69305">
        <ele>1231.59</ele>
        <time>2021-08-15T16:09:14Z</time>
      </trkpt>
      <trkpt lat="45.09262" lon="2.69312">
        <ele>1231.11</ele>
        <time>2021-08-15T16:09:15Z</time>
      </trkpt>
      <trkpt lat="45.09257" lon="2.69317">
        <ele>1231.11</ele>
        <time>2021-08-15T16:09:16Z</time>
      </trkpt>
      <trkpt lat="45.09252" lon="2.69321">
        <ele>1230.62</ele>
        <time>2021-08-15T16:09:17Z</time>
      </trkpt>
      <trkpt lat="45.09247" lon="2.69323">
        <ele>1230.14</ele>
        <time>2021-08-15T16:09:18Z</time>
      </trkpt>
      <trkpt lat="45.09242" lon="2.6932">
        <ele>1229.66</ele>
        <time>2021-08-15T16:09:19Z</time>
      </trkpt>
      <trkpt lat="45.09238" lon="2.69314">
        <ele>1228.7</ele>
        <time>2021-08-15T16:09:20Z</time>
      </trkpt>
      <trkpt lat="45.09238" lon="2.69307">
        <ele>1228.7</ele>
        <time>2021-08-15T16:09:21Z</time>
      </trkpt>
      <trkpt lat="45.09241" lon="2.69299">
        <ele>1228.22</ele>
        <time>2021-08-15T16:09:22Z</time>
      </trkpt>
      <trkpt lat="45.09246" lon="2.69291">
        <ele>1228.22</ele>
        <time>2021-08-15T16:09:23Z</time>
      </trkpt>
      <trkpt lat="45.09251" lon="2.69284">
        <ele>1227.26</ele>
        <time>2021-08-15T16:09:24Z</time>
      </trkpt>
      <trkpt lat="45.09256" lon="2.6928">
        <ele>1227.26</ele>
        <time>2021-08-15T16:09:25Z</time>
      </trkpt>
      <trkpt lat="45.09264" lon="2.69276">
        <ele>1226.78</ele>
        <time>2021-08-15T16:09:26Z</time>
      </trkpt>
      <trkpt lat="45.09271" lon="2.69273">
        <ele>1226.78</ele>
        <time>2021-08-15T16:09:27Z</time>
      </trkpt>
      <trkpt lat="45.09278" lon="2.69272">
        <ele>1226.3</ele>
        <time>2021-08-15T16:09:28Z</time>
      </trkpt>
      <trkpt lat="45.09298" lon="2.69265">
        <ele>1224.86</ele>
        <time>2021-08-15T16:09:31Z</time>
      </trkpt>
      <trkpt lat="45.09312" lon="2.69261">
        <ele>1224.38</ele>
        <time>2021-08-15T16:09:34Z</time>
      </trkpt>
      <trkpt lat="45.09321" lon="2.69257">
        <ele>1223.42</ele>
        <time>2021-08-15T16:09:36Z</time>
      </trkpt>
      <trkpt lat="45.09324" lon="2.69257">
        <ele>1222.93</ele>
        <time>2021-08-15T16:09:37Z</time>
      </trkpt>
      <trkpt lat="45.09329" lon="2.69256">
        <ele>1222.93</ele>
        <time>2021-08-15T16:09:38Z</time>
      </trkpt>
      <trkpt lat="45.09332" lon="2.69257">
        <ele>1222.93</ele>
        <time>2021-08-15T16:09:39Z</time>
      </trkpt>
      <trkpt lat="45.09336" lon="2.69258">
        <ele>1222.93</ele>
        <time>2021-08-15T16:09:40Z</time>
      </trkpt>
      <trkpt lat="45.09337" lon="2.69259">
        <ele>1222.93</ele>
        <time>2021-08-15T16:09:44Z</time>
      </trkpt>
      <trkpt lat="45.09336" lon="2.69259">
        <ele>1222.45</ele>
        <time>2021-08-15T16:09:56Z</time>
      </trkpt>
      <trkpt lat="45.09336" lon="2.69259">
        <ele>1222.45</ele>
        <time>2021-08-15T16:10:10Z</time>
      </trkpt>
      <trkpt lat="45.09335" lon="2.69259">
        <ele>1222.45</ele>
        <time>2021-08-15T16:10:22Z</time>
      </trkpt>
      <trkpt lat="45.09337" lon="2.69258">
        <ele>1222.45</ele>
        <time>2021-08-15T16:10:33Z</time>
      </trkpt>
      <trkpt lat="45.09336" lon="2.69258">
        <ele>1222.45</ele>
        <time>2021-08-15T16:10:44Z</time>
      </trkpt>
      <trkpt lat="45.09335" lon="2.69256">
        <ele>1222.45</ele>
        <time>2021-08-15T16:10:54Z</time>
      </trkpt>
      <trkpt lat="45.09335" lon="2.69249">
        <ele>1222.45</ele>
        <time>2021-08-15T16:11:06Z</time>
      </trkpt>
      <trkpt lat="45.09334" lon="2.69245">
        <ele>1222.45</ele>
        <time>2021-08-15T16:11:21Z</time>
      </trkpt>
      <trkpt lat="45.09334" lon="2.69242">
        <ele>1222.45</ele>
        <time>2021-08-15T16:11:25Z</time>
      </trkpt>
      <trkpt lat="45.09333" lon="2.6924">
        <ele>1222.45</ele>
        <time>2021-08-15T16:11:26Z</time>
      </trkpt>
      <trkpt lat="45.09331" lon="2.69239">
        <ele>1222.45</ele>
        <time>2021-08-15T16:11:27Z</time>
      </trkpt>
      <trkpt lat="45.0933" lon="2.69239">
        <ele>1222.45</ele>
        <time>2021-08-15T16:11:28Z</time>
      </trkpt>
      <trkpt lat="45.09328" lon="2.69238">
        <ele>1222.45</ele>
        <time>2021-08-15T16:11:29Z</time>
      </trkpt>
      <trkpt lat="45.09309" lon="2.69244">
        <ele>1222.45</ele>
        <time>2021-08-15T16:11:36Z</time>
      </trkpt>
      <trkpt lat="45.09301" lon="2.69251">
        <ele>1223.42</ele>
        <time>2021-08-15T16:11:40Z</time>
      </trkpt>
      <trkpt lat="45.09288" lon="2.6926">
        <ele>1224.86</ele>
        <time>2021-08-15T16:11:48Z</time>
      </trkpt>
      <trkpt lat="45.09274" lon="2.69267">
        <ele>1225.82</ele>
        <time>2021-08-15T16:11:56Z</time>
      </trkpt>
      <trkpt lat="45.09258" lon="2.69274">
        <ele>1226.78</ele>
        <time>2021-08-15T16:12:04Z</time>
      </trkpt>
      <trkpt lat="45.09249" lon="2.69279">
        <ele>1227.74</ele>
        <time>2021-08-15T16:12:09Z</time>
      </trkpt>
      <trkpt lat="45.09247" lon="2.69281">
        <ele>1227.74</ele>
        <time>2021-08-15T16:12:10Z</time>
      </trkpt>
      <trkpt lat="45.09236" lon="2.69304">
        <ele>1228.7</ele>
        <time>2021-08-15T16:12:19Z</time>
      </trkpt>
      <trkpt lat="45.09238" lon="2.69331">
        <ele>1229.66</ele>
        <time>2021-08-15T16:12:28Z</time>
      </trkpt>
      <trkpt lat="45.09241" lon="2.69357">
        <ele>1230.62</ele>
        <time>2021-08-15T16:12:37Z</time>
      </trkpt>
      <trkpt lat="45.09247" lon="2.69378">
        <ele>1231.11</ele>
        <time>2021-08-15T16:12:45Z</time>
      </trkpt>
      <trkpt lat="45.09255" lon="2.69397">
        <ele>1231.59</ele>
        <time>2021-08-15T16:12:51Z</time>
      </trkpt>
      <trkpt lat="45.09267" lon="2.69431">
        <ele>1231.59</ele>
        <time>2021-08-15T16:12:59Z</time>
      </trkpt>
      <trkpt lat="45.09274" lon="2.69453">
        <ele>1231.59</ele>
        <time>2021-08-15T16:13:05Z</time>
      </trkpt>
      <trkpt lat="45.09279" lon="2.69473">
        <ele>1231.11</ele>
        <time>2021-08-15T16:13:11Z</time>
      </trkpt>
      <trkpt lat="45.09283" lon="2.69493">
        <ele>1231.59</ele>
        <time>2021-08-15T16:13:17Z</time>
      </trkpt>
      <trkpt lat="45.09291" lon="2.69521">
        <ele>1231.59</ele>
        <time>2021-08-15T16:13:24Z</time>
      </trkpt>
      <trkpt lat="45.09296" lon="2.69549">
        <ele>1231.59</ele>
        <time>2021-08-15T16:13:32Z</time>
      </trkpt>
      <trkpt lat="45.09298" lon="2.69562">
        <ele>1231.59</ele>
        <time>2021-08-15T16:13:38Z</time>
      </trkpt>
      <trkpt lat="45.09298" lon="2.69566">
        <ele>1231.59</ele>
        <time>2021-08-15T16:13:53Z</time>
      </trkpt>
      <trkpt lat="45.09299" lon="2.69569">
        <ele>1231.59</ele>
        <time>2021-08-15T16:14:04Z</time>
      </trkpt>
      <trkpt lat="45.09299" lon="2.69572">
        <ele>1231.59</ele>
        <time>2021-08-15T16:14:20Z</time>
      </trkpt>
      <trkpt lat="45.093" lon="2.69573">
        <ele>1231.59</ele>
        <time>2021-08-15T16:14:40Z</time>
      </trkpt>
      <trkpt lat="45.09302" lon="2.69571">
        <ele>1231.59</ele>
        <time>2021-08-15T16:15:00Z</time>
      </trkpt>
      <trkpt lat="45.09299" lon="2.69573">
        <ele>1231.11</ele>
        <time>2021-08-15T16:15:18Z</time>
      </trkpt>
      <trkpt lat="45.093" lon="2.69573">
        <ele>1231.11</ele>
        <time>2021-08-15T16:15:32Z</time>
      </trkpt>
      <trkpt lat="45.09305" lon="2.69587">
        <ele>1231.11</ele>
        <time>2021-08-15T16:15:37Z</time>
      </trkpt>
      <trkpt lat="45.09315" lon="2.69632">
        <ele>1231.11</ele>
        <time>2021-08-15T16:15:46Z</time>
      </trkpt>
      <trkpt lat="45.09316" lon="2.69638">
        <ele>1231.11</ele>
        <time>2021-08-15T16:15:47Z</time>
      </trkpt>
      <trkpt lat="45.09318" lon="2.69643">
        <ele>1230.14</ele>
        <time>2021-08-15T16:15:48Z</time>
      </trkpt>
      <trkpt lat="45.0932" lon="2.69648">
        <ele>1230.14</ele>
        <time>2021-08-15T16:15:49Z</time>
      </trkpt>
      <trkpt lat="45.09334" lon="2.69687">
        <ele>1229.18</ele>
        <time>2021-08-15T16:15:56Z</time>
      </trkpt>
      <trkpt lat="45.09336" lon="2.69693">
        <ele>1229.18</ele>
        <time>2021-08-15T16:15:57Z</time>
      </trkpt>
      <trkpt lat="45.09339" lon="2.69698">
        <ele>1229.18</ele>
        <time>2021-08-15T16:15:58Z</time>
      </trkpt>
      <trkpt lat="45.09344" lon="2.69708">
        <ele>1229.18</ele>
        <time>2021-08-15T16:16:00Z</time>
      </trkpt>
      <trkpt lat="45.09347" lon="2.69714">
        <ele>1229.18</ele>
        <time>2021-08-15T16:16:01Z</time>
      </trkpt>
      <trkpt lat="45.0935" lon="2.69718">
        <ele>1229.18</ele>
        <time>2021-08-15T16:16:02Z</time>
      </trkpt>
      <trkpt lat="45.09352" lon="2.69723">
        <ele>1229.18</ele>
        <time>2021-08-15T16:16:03Z</time>
      </trkpt>
      <trkpt lat="45.09354" lon="2.69728">
        <ele>1229.18</ele>
        <time>2021-08-15T16:16:04Z</time>
      </trkpt>
      <trkpt lat="45.09367" lon="2.69762">
        <ele>1229.18</ele>
        <time>2021-08-15T16:16:11Z</time>
      </trkpt>
      <trkpt lat="45.09371" lon="2.69772">
        <ele>1228.7</ele>
        <time>2021-08-15T16:16:13Z</time>
      </trkpt>
      <trkpt lat="45.09374" lon="2.69777">
        <ele>1228.7</ele>
        <time>2021-08-15T16:16:14Z</time>
      </trkpt>
      <trkpt lat="45.09377" lon="2.69782">
        <ele>1228.7</ele>
        <time>2021-08-15T16:16:15Z</time>
      </trkpt>
      <trkpt lat="45.0938" lon="2.69787">
        <ele>1228.7</ele>
        <time>2021-08-15T16:16:16Z</time>
      </trkpt>
      <trkpt lat="45.09382" lon="2.69793">
        <ele>1228.7</ele>
        <time>2021-08-15T16:16:17Z</time>
      </trkpt>
      <trkpt lat="45.09393" lon="2.69809">
        <ele>1228.22</ele>
        <time>2021-08-15T16:16:20Z</time>
      </trkpt>
      <trkpt lat="45.09397" lon="2.69815">
        <ele>1228.22</ele>
        <time>2021-08-15T16:16:21Z</time>
      </trkpt>
      <trkpt lat="45.09404" lon="2.69826">
        <ele>1228.22</ele>
        <time>2021-08-15T16:16:23Z</time>
      </trkpt>
      <trkpt lat="45.09407" lon="2.69831">
        <ele>1228.22</ele>
        <time>2021-08-15T16:16:24Z</time>
      </trkpt>
      <trkpt lat="45.09419" lon="2.69846">
        <ele>1227.74</ele>
        <time>2021-08-15T16:16:27Z</time>
      </trkpt>
      <trkpt lat="45.09422" lon="2.69852">
        <ele>1227.74</ele>
        <time>2021-08-15T16:16:28Z</time>
      </trkpt>
      <trkpt lat="45.09436" lon="2.69873">
        <ele>1226.3</ele>
        <time>2021-08-15T16:16:32Z</time>
      </trkpt>
      <trkpt lat="45.09439" lon="2.69879">
        <ele>1226.3</ele>
        <time>2021-08-15T16:16:33Z</time>
      </trkpt>
      <trkpt lat="45.09451" lon="2.69916">
        <ele>1226.3</ele>
        <time>2021-08-15T16:16:40Z</time>
      </trkpt>
      <trkpt lat="45.0946" lon="2.69955">
        <ele>1226.3</ele>
        <time>2021-08-15T16:16:47Z</time>
      </trkpt>
      <trkpt lat="45.09469" lon="2.69978">
        <ele>1226.3</ele>
        <time>2021-08-15T16:16:51Z</time>
      </trkpt>
      <trkpt lat="45.09474" lon="2.69988">
        <ele>1226.3</ele>
        <time>2021-08-15T16:16:53Z</time>
      </trkpt>
      <trkpt lat="45.09477" lon="2.69992">
        <ele>1226.3</ele>
        <time>2021-08-15T16:16:54Z</time>
      </trkpt>
      <trkpt lat="45.09503" lon="2.70024">
        <ele>1226.3</ele>
        <time>2021-08-15T16:17:02Z</time>
      </trkpt>
      <trkpt lat="45.09513" lon="2.7004">
        <ele>1225.82</ele>
        <time>2021-08-15T16:17:05Z</time>
      </trkpt>
      <trkpt lat="45.09514" lon="2.70047">
        <ele>1224.86</ele>
        <time>2021-08-15T16:17:06Z</time>
      </trkpt>
      <trkpt lat="45.09515" lon="2.70054">
        <ele>1224.86</ele>
        <time>2021-08-15T16:17:07Z</time>
      </trkpt>
      <trkpt lat="45.09514" lon="2.70062">
        <ele>1224.86</ele>
        <time>2021-08-15T16:17:08Z</time>
      </trkpt>
      <trkpt lat="45.09513" lon="2.70068">
        <ele>1224.86</ele>
        <time>2021-08-15T16:17:09Z</time>
      </trkpt>
      <trkpt lat="45.09512" lon="2.70074">
        <ele>1224.86</ele>
        <time>2021-08-15T16:17:10Z</time>
      </trkpt>
      <trkpt lat="45.09507" lon="2.70111">
        <ele>1224.86</ele>
        <time>2021-08-15T16:17:17Z</time>
      </trkpt>
      <trkpt lat="45.09508" lon="2.70122">
        <ele>1224.86</ele>
        <time>2021-08-15T16:17:19Z</time>
      </trkpt>
      <trkpt lat="45.0951" lon="2.70128">
        <ele>1224.86</ele>
        <time>2021-08-15T16:17:20Z</time>
      </trkpt>
      <trkpt lat="45.09512" lon="2.70133">
        <ele>1224.86</ele>
        <time>2021-08-15T16:17:21Z</time>
      </trkpt>
      <trkpt lat="45.09537" lon="2.70177">
        <ele>1224.86</ele>
        <time>2021-08-15T16:17:30Z</time>
      </trkpt>
      <trkpt lat="45.09548" lon="2.70197">
        <ele>1227.26</ele>
        <time>2021-08-15T16:17:36Z</time>
      </trkpt>
      <trkpt lat="45.09555" lon="2.70213">
        <ele>1227.74</ele>
        <time>2021-08-15T16:17:43Z</time>
      </trkpt>
      <trkpt lat="45.09562" lon="2.70235">
        <ele>1228.7</ele>
        <time>2021-08-15T16:17:50Z</time>
      </trkpt>
      <trkpt lat="45.09567" lon="2.70254">
        <ele>1229.18</ele>
        <time>2021-08-15T16:17:57Z</time>
      </trkpt>
      <trkpt lat="45.09577" lon="2.70278">
        <ele>1229.66</ele>
        <time>2021-08-15T16:18:03Z</time>
      </trkpt>
      <trkpt lat="45.09587" lon="2.70307">
        <ele>1230.14</ele>
        <time>2021-08-15T16:18:09Z</time>
      </trkpt>
      <trkpt lat="45.09596" lon="2.70335">
        <ele>1230.14</ele>
        <time>2021-08-15T16:18:15Z</time>
      </trkpt>
      <trkpt lat="45.09594" lon="2.70357">
        <ele>1228.7</ele>
        <time>2021-08-15T16:18:19Z</time>
      </trkpt>
      <trkpt lat="45.0959" lon="2.70362">
        <ele>1228.7</ele>
        <time>2021-08-15T16:18:20Z</time>
      </trkpt>
      <trkpt lat="45.09586" lon="2.70364">
        <ele>1228.22</ele>
        <time>2021-08-15T16:18:21Z</time>
      </trkpt>
      <trkpt lat="45.0958" lon="2.70366">
        <ele>1227.74</ele>
        <time>2021-08-15T16:18:22Z</time>
      </trkpt>
      <trkpt lat="45.09574" lon="2.70366">
        <ele>1227.74</ele>
        <time>2021-08-15T16:18:23Z</time>
      </trkpt>
      <trkpt lat="45.09569" lon="2.70365">
        <ele>1227.74</ele>
        <time>2021-08-15T16:18:24Z</time>
      </trkpt>
      <trkpt lat="45.09564" lon="2.70364">
        <ele>1227.74</ele>
        <time>2021-08-15T16:18:25Z</time>
      </trkpt>
      <trkpt lat="45.09559" lon="2.70362">
        <ele>1227.74</ele>
        <time>2021-08-15T16:18:26Z</time>
      </trkpt>
      <trkpt lat="45.0955" lon="2.70356">
        <ele>1228.7</ele>
        <time>2021-08-15T16:18:30Z</time>
      </trkpt>
      <trkpt lat="45.09543" lon="2.70348">
        <ele>1230.14</ele>
        <time>2021-08-15T16:18:37Z</time>
      </trkpt>
      <trkpt lat="45.09533" lon="2.70336">
        <ele>1230.62</ele>
        <time>2021-08-15T16:18:45Z</time>
      </trkpt>
      <trkpt lat="45.09529" lon="2.70329">
        <ele>1231.11</ele>
        <time>2021-08-15T16:18:49Z</time>
      </trkpt>
      <trkpt lat="45.09529" lon="2.70327">
        <ele>1231.11</ele>
        <time>2021-08-15T16:18:50Z</time>
      </trkpt>
      <trkpt lat="45.09528" lon="2.70325">
        <ele>1231.11</ele>
        <time>2021-08-15T16:18:51Z</time>
      </trkpt>
      <trkpt lat="45.09527" lon="2.70323">
        <ele>1231.59</ele>
        <time>2021-08-15T16:18:52Z</time>
      </trkpt>
      <trkpt lat="45.09526" lon="2.70322">
        <ele>1231.59</ele>
        <time>2021-08-15T16:18:53Z</time>
      </trkpt>
      <trkpt lat="45.09524" lon="2.7032">
        <ele>1231.59</ele>
        <time>2021-08-15T16:18:54Z</time>
      </trkpt>
      <trkpt lat="45.09523" lon="2.70317">
        <ele>1232.07</ele>
        <time>2021-08-15T16:18:55Z</time>
      </trkpt>
      <trkpt lat="45.09522" lon="2.70315">
        <ele>1232.07</ele>
        <time>2021-08-15T16:18:56Z</time>
      </trkpt>
      <trkpt lat="45.09521" lon="2.70313">
        <ele>1232.07</ele>
        <time>2021-08-15T16:18:57Z</time>
      </trkpt>
      <trkpt lat="45.09511" lon="2.70299">
        <ele>1233.03</ele>
        <time>2021-08-15T16:19:05Z</time>
      </trkpt>
      <trkpt lat="45.09499" lon="2.70289">
        <ele>1233.99</ele>
        <time>2021-08-15T16:19:13Z</time>
      </trkpt>
      <trkpt lat="45.09487" lon="2.70278">
        <ele>1235.43</ele>
        <time>2021-08-15T16:19:21Z</time>
      </trkpt>
      <trkpt lat="45.0947" lon="2.70261">
        <ele>1236.39</ele>
        <time>2021-08-15T16:19:31Z</time>
      </trkpt>
      <trkpt lat="45.09456" lon="2.70247">
        <ele>1237.83</ele>
        <time>2021-08-15T16:19:39Z</time>
      </trkpt>
      <trkpt lat="45.09449" lon="2.70239">
        <ele>1237.83</ele>
        <time>2021-08-15T16:19:45Z</time>
      </trkpt>
      <trkpt lat="45.09446" lon="2.70239">
        <ele>1237.83</ele>
        <time>2021-08-15T16:19:54Z</time>
      </trkpt>
      <trkpt lat="45.09444" lon="2.70239">
        <ele>1237.83</ele>
        <time>2021-08-15T16:20:06Z</time>
      </trkpt>
      <trkpt lat="45.09442" lon="2.70245">
        <ele>1238.32</ele>
        <time>2021-08-15T16:20:25Z</time>
      </trkpt>
      <trkpt lat="45.09443" lon="2.70242">
        <ele>1238.32</ele>
        <time>2021-08-15T16:20:43Z</time>
      </trkpt>
      <trkpt lat="45.09444" lon="2.7024">
        <ele>1238.32</ele>
        <time>2021-08-15T16:20:58Z</time>
      </trkpt>
      <trkpt lat="45.09445" lon="2.70239">
        <ele>1238.32</ele>
        <time>2021-08-15T16:21:07Z</time>
      </trkpt>
      <trkpt lat="45.09446" lon="2.70238">
        <ele>1238.32</ele>
        <time>2021-08-15T16:21:24Z</time>
      </trkpt>
      <trkpt lat="45.09446" lon="2.70236">
        <ele>1238.32</ele>
        <time>2021-08-15T16:21:34Z</time>
      </trkpt>
      <trkpt lat="45.09444" lon="2.70237">
        <ele>1238.32</ele>
        <time>2021-08-15T16:21:40Z</time>
      </trkpt>
      <trkpt lat="45.09444" lon="2.70235">
        <ele>1238.32</ele>
        <time>2021-08-15T16:21:50Z</time>
      </trkpt>
      <trkpt lat="45.09444" lon="2.70239">
        <ele>1238.32</ele>
        <time>2021-08-15T16:22:05Z</time>
      </trkpt>
      <trkpt lat="45.09442" lon="2.70243">
        <ele>1238.32</ele>
        <time>2021-08-15T16:22:24Z</time>
      </trkpt>
      <trkpt lat="45.09443" lon="2.70236">
        <ele>1238.32</ele>
        <time>2021-08-15T16:22:43Z</time>
      </trkpt>
      <trkpt lat="45.09447" lon="2.70235">
        <ele>1238.32</ele>
        <time>2021-08-15T16:22:57Z</time>
      </trkpt>
      <trkpt lat="45.09448" lon="2.70237">
        <ele>1238.32</ele>
        <time>2021-08-15T16:23:13Z</time>
      </trkpt>
      <trkpt lat="45.09448" lon="2.70235">
        <ele>1238.32</ele>
        <time>2021-08-15T16:23:28Z</time>
      </trkpt>
      <trkpt lat="45.09446" lon="2.70237">
        <ele>1238.32</ele>
        <time>2021-08-15T16:23:43Z</time>
      </trkpt>
      <trkpt lat="45.09442" lon="2.70236">
        <ele>1238.32</ele>
        <time>2021-08-15T16:23:55Z</time>
      </trkpt>
      <trkpt lat="45.09442" lon="2.70234">
        <ele>1238.32</ele>
        <time>2021-08-15T16:24:10Z</time>
      </trkpt>
      <trkpt lat="45.09444" lon="2.70231">
        <ele>1238.32</ele>
        <time>2021-08-15T16:24:28Z</time>
      </trkpt>
      <trkpt lat="45.09439" lon="2.70233">
        <ele>1238.32</ele>
        <time>2021-08-15T16:24:44Z</time>
      </trkpt>
      <trkpt lat="45.09435" lon="2.70235">
        <ele>1238.32</ele>
        <time>2021-08-15T16:24:59Z</time>
      </trkpt>
      <trkpt lat="45.09434" lon="2.70239">
        <ele>1238.32</ele>
        <time>2021-08-15T16:25:12Z</time>
      </trkpt>
      <trkpt lat="45.09436" lon="2.70239">
        <ele>1238.32</ele>
        <time>2021-08-15T16:25:24Z</time>
      </trkpt>
      <trkpt lat="45.09441" lon="2.70235">
        <ele>1238.32</ele>
        <time>2021-08-15T16:25:41Z</time>
      </trkpt>
      <trkpt lat="45.09442" lon="2.70235">
        <ele>1238.32</ele>
        <time>2021-08-15T16:25:51Z</time>
      </trkpt>
      <trkpt lat="45.09441" lon="2.70232">
        <ele>1238.32</ele>
        <time>2021-08-15T16:25:53Z</time>
      </trkpt>
      <trkpt lat="45.0944" lon="2.70234">
        <ele>1238.32</ele>
        <time>2021-08-15T16:25:58Z</time>
      </trkpt>
      <trkpt lat="45.09439" lon="2.70239">
        <ele>1238.32</ele>
        <time>2021-08-15T16:26:17Z</time>
      </trkpt>
      <trkpt lat="45.09437" lon="2.70241">
        <ele>1237.35</ele>
        <time>2021-08-15T16:26:28Z</time>
      </trkpt>
      <trkpt lat="45.09435" lon="2.70241">
        <ele>1237.35</ele>
        <time>2021-08-15T16:26:33Z</time>
      </trkpt>
      <trkpt lat="45.0943" lon="2.70228">
        <ele>1238.32</ele>
        <time>2021-08-15T16:26:40Z</time>
      </trkpt>
      <trkpt lat="45.09421" lon="2.70206">
        <ele>1238.32</ele>
        <time>2021-08-15T16:26:47Z</time>
      </trkpt>
      <trkpt lat="45.09407" lon="2.70181">
        <ele>1238.32</ele>
        <time>2021-08-15T16:26:54Z</time>
      </trkpt>
      <trkpt lat="45.09405" lon="2.70176">
        <ele>1237.35</ele>
        <time>2021-08-15T16:26:55Z</time>
      </trkpt>
      <trkpt lat="45.09388" lon="2.70142">
        <ele>1233.99</ele>
        <time>2021-08-15T16:27:01Z</time>
      </trkpt>
      <trkpt lat="45.09358" lon="2.70096">
        <ele>1230.14</ele>
        <time>2021-08-15T16:27:08Z</time>
      </trkpt>
      <trkpt lat="45.09354" lon="2.70089">
        <ele>1230.14</ele>
        <time>2021-08-15T16:27:09Z</time>
      </trkpt>
      <trkpt lat="45.0935" lon="2.70083">
        <ele>1229.66</ele>
        <time>2021-08-15T16:27:10Z</time>
      </trkpt>
      <trkpt lat="45.09317" lon="2.70034">
        <ele>1226.3</ele>
        <time>2021-08-15T16:27:17Z</time>
      </trkpt>
      <trkpt lat="45.09301" lon="2.70011">
        <ele>1225.34</ele>
        <time>2021-08-15T16:27:20Z</time>
      </trkpt>
      <trkpt lat="45.09296" lon="2.70003">
        <ele>1224.38</ele>
        <time>2021-08-15T16:27:21Z</time>
      </trkpt>
      <trkpt lat="45.09291" lon="2.69997">
        <ele>1224.38</ele>
        <time>2021-08-15T16:27:22Z</time>
      </trkpt>
      <trkpt lat="45.09258" lon="2.69953">
        <ele>1220.53</ele>
        <time>2021-08-15T16:27:28Z</time>
      </trkpt>
      <trkpt lat="45.09252" lon="2.69945">
        <ele>1220.53</ele>
        <time>2021-08-15T16:27:29Z</time>
      </trkpt>
      <trkpt lat="45.09247" lon="2.69937">
        <ele>1219.57</ele>
        <time>2021-08-15T16:27:30Z</time>
      </trkpt>
      <trkpt lat="45.09211" lon="2.69884">
        <ele>1217.65</ele>
        <time>2021-08-15T16:27:37Z</time>
      </trkpt>
      <trkpt lat="45.09208" lon="2.69878">
        <ele>1217.17</ele>
        <time>2021-08-15T16:27:38Z</time>
      </trkpt>
      <trkpt lat="45.092" lon="2.69861">
        <ele>1216.21</ele>
        <time>2021-08-15T16:27:40Z</time>
      </trkpt>
      <trkpt lat="45.09178" lon="2.69825">
        <ele>1213.32</ele>
        <time>2021-08-15T16:27:45Z</time>
      </trkpt>
      <trkpt lat="45.09152" lon="2.69791">
        <ele>1209.96</ele>
        <time>2021-08-15T16:27:51Z</time>
      </trkpt>
      <trkpt lat="45.09147" lon="2.69784">
        <ele>1209.96</ele>
        <time>2021-08-15T16:27:52Z</time>
      </trkpt>
      <trkpt lat="45.09125" lon="2.69754">
        <ele>1207.07</ele>
        <time>2021-08-15T16:27:56Z</time>
      </trkpt>
      <trkpt lat="45.09107" lon="2.69732">
        <ele>1205.15</ele>
        <time>2021-08-15T16:27:59Z</time>
      </trkpt>
      <trkpt lat="45.09082" lon="2.69708">
        <ele>1204.19</ele>
        <time>2021-08-15T16:28:03Z</time>
      </trkpt>
      <trkpt lat="45.09075" lon="2.69706">
        <ele>1204.19</ele>
        <time>2021-08-15T16:28:04Z</time>
      </trkpt>
      <trkpt lat="45.09069" lon="2.69705">
        <ele>1204.19</ele>
        <time>2021-08-15T16:28:05Z</time>
      </trkpt>
      <trkpt lat="45.09064" lon="2.69707">
        <ele>1204.19</ele>
        <time>2021-08-15T16:28:06Z</time>
      </trkpt>
      <trkpt lat="45.09059" lon="2.69709">
        <ele>1206.11</ele>
        <time>2021-08-15T16:28:07Z</time>
      </trkpt>
      <trkpt lat="45.09056" lon="2.69711">
        <ele>1206.11</ele>
        <time>2021-08-15T16:28:08Z</time>
      </trkpt>
      <trkpt lat="45.09054" lon="2.69712">
        <ele>1206.59</ele>
        <time>2021-08-15T16:28:09Z</time>
      </trkpt>
      <trkpt lat="45.09052" lon="2.69714">
        <ele>1206.59</ele>
        <time>2021-08-15T16:28:10Z</time>
      </trkpt>
      <trkpt lat="45.09051" lon="2.69715">
        <ele>1206.59</ele>
        <time>2021-08-15T16:28:11Z</time>
      </trkpt>
      <trkpt lat="45.0905" lon="2.69717">
        <ele>1207.55</ele>
        <time>2021-08-15T16:28:12Z</time>
      </trkpt>
      <trkpt lat="45.09042" lon="2.69733">
        <ele>1208.51</ele>
        <time>2021-08-15T16:28:20Z</time>
      </trkpt>
      <trkpt lat="45.0904" lon="2.69745">
        <ele>1209</ele>
        <time>2021-08-15T16:28:24Z</time>
      </trkpt>
      <trkpt lat="45.09035" lon="2.69767">
        <ele>1209.96</ele>
        <time>2021-08-15T16:28:33Z</time>
      </trkpt>
      <trkpt lat="45.09033" lon="2.69787">
        <ele>1211.4</ele>
        <time>2021-08-15T16:28:41Z</time>
      </trkpt>
      <trkpt lat="45.09031" lon="2.69813">
        <ele>1212.36</ele>
        <time>2021-08-15T16:28:51Z</time>
      </trkpt>
      <trkpt lat="45.09029" lon="2.69832">
        <ele>1213.32</ele>
        <time>2021-08-15T16:28:59Z</time>
      </trkpt>
      <trkpt lat="45.09028" lon="2.69854">
        <ele>1214.76</ele>
        <time>2021-08-15T16:29:09Z</time>
      </trkpt>
      <trkpt lat="45.09027" lon="2.69856">
        <ele>1214.76</ele>
        <time>2021-08-15T16:29:10Z</time>
      </trkpt>
      <trkpt lat="45.09027" lon="2.69859">
        <ele>1214.76</ele>
        <time>2021-08-15T16:29:11Z</time>
      </trkpt>
      <trkpt lat="45.09027" lon="2.69861">
        <ele>1214.76</ele>
        <time>2021-08-15T16:29:12Z</time>
      </trkpt>
      <trkpt lat="45.09028" lon="2.69864">
        <ele>1215.24</ele>
        <time>2021-08-15T16:29:13Z</time>
      </trkpt>
      <trkpt lat="45.09027" lon="2.69866">
        <ele>1215.24</ele>
        <time>2021-08-15T16:29:14Z</time>
      </trkpt>
      <trkpt lat="45.09026" lon="2.69882">
        <ele>1216.21</ele>
        <time>2021-08-15T16:29:22Z</time>
      </trkpt>
      <trkpt lat="45.09026" lon="2.69884">
        <ele>1216.69</ele>
        <time>2021-08-15T16:29:23Z</time>
      </trkpt>
      <trkpt lat="45.09026" lon="2.69886">
        <ele>1216.69</ele>
        <time>2021-08-15T16:29:24Z</time>
      </trkpt>
      <trkpt lat="45.09025" lon="2.69899">
        <ele>1217.65</ele>
        <time>2021-08-15T16:29:30Z</time>
      </trkpt>
      <trkpt lat="45.09024" lon="2.69901">
        <ele>1217.65</ele>
        <time>2021-08-15T16:29:31Z</time>
      </trkpt>
      <trkpt lat="45.09024" lon="2.69903">
        <ele>1217.65</ele>
        <time>2021-08-15T16:29:32Z</time>
      </trkpt>
      <trkpt lat="45.09023" lon="2.69906">
        <ele>1217.65</ele>
        <time>2021-08-15T16:29:33Z</time>
      </trkpt>
      <trkpt lat="45.09023" lon="2.69908">
        <ele>1217.65</ele>
        <time>2021-08-15T16:29:34Z</time>
      </trkpt>
      <trkpt lat="45.09023" lon="2.69911">
        <ele>1218.13</ele>
        <time>2021-08-15T16:29:35Z</time>
      </trkpt>
      <trkpt lat="45.09022" lon="2.6993">
        <ele>1219.09</ele>
        <time>2021-08-15T16:29:43Z</time>
      </trkpt>
      <trkpt lat="45.0902" lon="2.69952">
        <ele>1220.05</ele>
        <time>2021-08-15T16:29:52Z</time>
      </trkpt>
      <trkpt lat="45.09019" lon="2.69965">
        <ele>1221.01</ele>
        <time>2021-08-15T16:29:59Z</time>
      </trkpt>
      <trkpt lat="45.09016" lon="2.69974">
        <ele>1221.49</ele>
        <time>2021-08-15T16:30:04Z</time>
      </trkpt>
      <trkpt lat="45.09008" lon="2.69993">
        <ele>1223.9</ele>
        <time>2021-08-15T16:30:15Z</time>
      </trkpt>
      <trkpt lat="45.09002" lon="2.70009">
        <ele>1225.34</ele>
        <time>2021-08-15T16:30:24Z</time>
      </trkpt>
      <trkpt lat="45.08998" lon="2.70027">
        <ele>1226.3</ele>
        <time>2021-08-15T16:30:32Z</time>
      </trkpt>
      <trkpt lat="45.08994" lon="2.70048">
        <ele>1227.74</ele>
        <time>2021-08-15T16:30:41Z</time>
      </trkpt>
      <trkpt lat="45.08992" lon="2.70064">
        <ele>1228.7</ele>
        <time>2021-08-15T16:30:48Z</time>
      </trkpt>
      <trkpt lat="45.08989" lon="2.70085">
        <ele>1230.14</ele>
        <time>2021-08-15T16:30:58Z</time>
      </trkpt>
      <trkpt lat="45.08989" lon="2.70104">
        <ele>1231.59</ele>
        <time>2021-08-15T16:31:06Z</time>
      </trkpt>
      <trkpt lat="45.08989" lon="2.70127">
        <ele>1231.59</ele>
        <time>2021-08-15T16:31:15Z</time>
      </trkpt>
      <trkpt lat="45.08989" lon="2.70141">
        <ele>1232.55</ele>
        <time>2021-08-15T16:31:23Z</time>
      </trkpt>
      <trkpt lat="45.08986" lon="2.70144">
        <ele>1233.51</ele>
        <time>2021-08-15T16:31:27Z</time>
      </trkpt>
      <trkpt lat="45.08985" lon="2.70146">
        <ele>1233.51</ele>
        <time>2021-08-15T16:31:28Z</time>
      </trkpt>
      <trkpt lat="45.08983" lon="2.70149">
        <ele>1233.51</ele>
        <time>2021-08-15T16:31:30Z</time>
      </trkpt>
      <trkpt lat="45.08982" lon="2.70151">
        <ele>1233.99</ele>
        <time>2021-08-15T16:31:31Z</time>
      </trkpt>
      <trkpt lat="45.08982" lon="2.70153">
        <ele>1233.99</ele>
        <time>2021-08-15T16:31:32Z</time>
      </trkpt>
      <trkpt lat="45.08975" lon="2.70167">
        <ele>1234.95</ele>
        <time>2021-08-15T16:31:38Z</time>
      </trkpt>
      <trkpt lat="45.08968" lon="2.70185">
        <ele>1235.91</ele>
        <time>2021-08-15T16:31:45Z</time>
      </trkpt>
      <trkpt lat="45.08965" lon="2.70198">
        <ele>1236.87</ele>
        <time>2021-08-15T16:31:52Z</time>
      </trkpt>
      <trkpt lat="45.08963" lon="2.70211">
        <ele>1238.32</ele>
        <time>2021-08-15T16:31:59Z</time>
      </trkpt>
      <trkpt lat="45.0896" lon="2.70228">
        <ele>1239.28</ele>
        <time>2021-08-15T16:32:08Z</time>
      </trkpt>
      <trkpt lat="45.08957" lon="2.70248">
        <ele>1239.76</ele>
        <time>2021-08-15T16:32:16Z</time>
      </trkpt>
      <trkpt lat="45.08951" lon="2.70273">
        <ele>1239.76</ele>
        <time>2021-08-15T16:32:24Z</time>
      </trkpt>
      <trkpt lat="45.08936" lon="2.703">
        <ele>1237.83</ele>
        <time>2021-08-15T16:32:30Z</time>
      </trkpt>
      <trkpt lat="45.08934" lon="2.70307">
        <ele>1237.83</ele>
        <time>2021-08-15T16:32:31Z</time>
      </trkpt>
      <trkpt lat="45.08921" lon="2.70353">
        <ele>1233.99</ele>
        <time>2021-08-15T16:32:37Z</time>
      </trkpt>
      <trkpt lat="45.08918" lon="2.7036">
        <ele>1233.51</ele>
        <time>2021-08-15T16:32:38Z</time>
      </trkpt>
      <trkpt lat="45.08914" lon="2.70366">
        <ele>1233.51</ele>
        <time>2021-08-15T16:32:39Z</time>
      </trkpt>
      <trkpt lat="45.0891" lon="2.70369">
        <ele>1233.51</ele>
        <time>2021-08-15T16:32:40Z</time>
      </trkpt>
      <trkpt lat="45.08906" lon="2.70369">
        <ele>1233.99</ele>
        <time>2021-08-15T16:32:41Z</time>
      </trkpt>
      <trkpt lat="45.08902" lon="2.70369">
        <ele>1233.99</ele>
        <time>2021-08-15T16:32:42Z</time>
      </trkpt>
      <trkpt lat="45.089" lon="2.70368">
        <ele>1233.99</ele>
        <time>2021-08-15T16:32:43Z</time>
      </trkpt>
      <trkpt lat="45.08897" lon="2.70366">
        <ele>1233.99</ele>
        <time>2021-08-15T16:32:44Z</time>
      </trkpt>
      <trkpt lat="45.08895" lon="2.70363">
        <ele>1233.99</ele>
        <time>2021-08-15T16:32:45Z</time>
      </trkpt>
      <trkpt lat="45.08894" lon="2.7036">
        <ele>1235.43</ele>
        <time>2021-08-15T16:32:46Z</time>
      </trkpt>
      <trkpt lat="45.08892" lon="2.70356">
        <ele>1235.43</ele>
        <time>2021-08-15T16:32:47Z</time>
      </trkpt>
      <trkpt lat="45.08879" lon="2.70334">
        <ele>1235.91</ele>
        <time>2021-08-15T16:32:53Z</time>
      </trkpt>
      <trkpt lat="45.08867" lon="2.70316">
        <ele>1235.91</ele>
        <time>2021-08-15T16:32:57Z</time>
      </trkpt>
      <trkpt lat="45.08851" lon="2.70285">
        <ele>1234.47</ele>
        <time>2021-08-15T16:33:02Z</time>
      </trkpt>
      <trkpt lat="45.08835" lon="2.70253">
        <ele>1232.55</ele>
        <time>2021-08-15T16:33:06Z</time>
      </trkpt>
      <trkpt lat="45.08832" lon="2.70247">
        <ele>1232.55</ele>
        <time>2021-08-15T16:33:07Z</time>
      </trkpt>
      <trkpt lat="45.08828" lon="2.7024">
        <ele>1232.55</ele>
        <time>2021-08-15T16:33:08Z</time>
      </trkpt>
      <trkpt lat="45.08824" lon="2.70234">
        <ele>1232.55</ele>
        <time>2021-08-15T16:33:09Z</time>
      </trkpt>
      <trkpt lat="45.08819" lon="2.70228">
        <ele>1232.55</ele>
        <time>2021-08-15T16:33:10Z</time>
      </trkpt>
      <trkpt lat="45.08813" lon="2.70224">
        <ele>1232.55</ele>
        <time>2021-08-15T16:33:11Z</time>
      </trkpt>
      <trkpt lat="45.08808" lon="2.7022">
        <ele>1232.07</ele>
        <time>2021-08-15T16:33:12Z</time>
      </trkpt>
      <trkpt lat="45.08803" lon="2.70214">
        <ele>1232.07</ele>
        <time>2021-08-15T16:33:13Z</time>
      </trkpt>
      <trkpt lat="45.08799" lon="2.70207">
        <ele>1231.11</ele>
        <time>2021-08-15T16:33:14Z</time>
      </trkpt>
      <trkpt lat="45.08797" lon="2.70199">
        <ele>1231.11</ele>
        <time>2021-08-15T16:33:15Z</time>
      </trkpt>
      <trkpt lat="45.08797" lon="2.7019">
        <ele>1231.11</ele>
        <time>2021-08-15T16:33:16Z</time>
      </trkpt>
      <trkpt lat="45.08798" lon="2.70184">
        <ele>1231.11</ele>
        <time>2021-08-15T16:33:17Z</time>
      </trkpt>
      <trkpt lat="45.088" lon="2.70174">
        <ele>1232.55</ele>
        <time>2021-08-15T16:33:19Z</time>
      </trkpt>
      <trkpt lat="45.08816" lon="2.70139">
        <ele>1233.51</ele>
        <time>2021-08-15T16:33:28Z</time>
      </trkpt>
      <trkpt lat="45.08827" lon="2.70101">
        <ele>1234.47</ele>
        <time>2021-08-15T16:33:36Z</time>
      </trkpt>
      <trkpt lat="45.08831" lon="2.70074">
        <ele>1235.43</ele>
        <time>2021-08-15T16:33:43Z</time>
      </trkpt>
      <trkpt lat="45.08834" lon="2.70046">
        <ele>1236.39</ele>
        <time>2021-08-15T16:33:51Z</time>
      </trkpt>
      <trkpt lat="45.08837" lon="2.70013">
        <ele>1237.35</ele>
        <time>2021-08-15T16:34:00Z</time>
      </trkpt>
      <trkpt lat="45.08835" lon="2.69984">
        <ele>1238.8</ele>
        <time>2021-08-15T16:34:08Z</time>
      </trkpt>
      <trkpt lat="45.08832" lon="2.69959">
        <ele>1239.28</ele>
        <time>2021-08-15T16:34:15Z</time>
      </trkpt>
      <trkpt lat="45.08828" lon="2.69936">
        <ele>1239.76</ele>
        <time>2021-08-15T16:34:22Z</time>
      </trkpt>
      <trkpt lat="45.08826" lon="2.69908">
        <ele>1241.2</ele>
        <time>2021-08-15T16:34:31Z</time>
      </trkpt>
      <trkpt lat="45.08818" lon="2.69887">
        <ele>1242.64</ele>
        <time>2021-08-15T16:34:41Z</time>
      </trkpt>
      <trkpt lat="45.08809" lon="2.69863">
        <ele>1243.12</ele>
        <time>2021-08-15T16:34:50Z</time>
      </trkpt>
      <trkpt lat="45.088" lon="2.69839">
        <ele>1244.56</ele>
        <time>2021-08-15T16:34:59Z</time>
      </trkpt>
      <trkpt lat="45.08789" lon="2.69818">
        <ele>1245.04</ele>
        <time>2021-08-15T16:35:08Z</time>
      </trkpt>
      <trkpt lat="45.08774" lon="2.69798">
        <ele>1246.01</ele>
        <time>2021-08-15T16:35:18Z</time>
      </trkpt>
      <trkpt lat="45.08759" lon="2.69782">
        <ele>1246.97</ele>
        <time>2021-08-15T16:35:26Z</time>
      </trkpt>
      <trkpt lat="45.08745" lon="2.69765">
        <ele>1247.93</ele>
        <time>2021-08-15T16:35:34Z</time>
      </trkpt>
      <trkpt lat="45.08726" lon="2.69749">
        <ele>1249.37</ele>
        <time>2021-08-15T16:35:44Z</time>
      </trkpt>
      <trkpt lat="45.08712" lon="2.69748">
        <ele>1250.33</ele>
        <time>2021-08-15T16:35:51Z</time>
      </trkpt>
      <trkpt lat="45.08694" lon="2.69741">
        <ele>1250.81</ele>
        <time>2021-08-15T16:35:58Z</time>
      </trkpt>
      <trkpt lat="45.08692" lon="2.69739">
        <ele>1251.29</ele>
        <time>2021-08-15T16:35:59Z</time>
      </trkpt>
      <trkpt lat="45.0869" lon="2.69736">
        <ele>1251.29</ele>
        <time>2021-08-15T16:36:00Z</time>
      </trkpt>
      <trkpt lat="45.08689" lon="2.69734">
        <ele>1251.29</ele>
        <time>2021-08-15T16:36:01Z</time>
      </trkpt>
      <trkpt lat="45.08689" lon="2.69731">
        <ele>1251.29</ele>
        <time>2021-08-15T16:36:02Z</time>
      </trkpt>
      <trkpt lat="45.08688" lon="2.69728">
        <ele>1251.29</ele>
        <time>2021-08-15T16:36:03Z</time>
      </trkpt>
      <trkpt lat="45.08688" lon="2.69725">
        <ele>1251.77</ele>
        <time>2021-08-15T16:36:04Z</time>
      </trkpt>
      <trkpt lat="45.08682" lon="2.69704">
        <ele>1253.22</ele>
        <time>2021-08-15T16:36:12Z</time>
      </trkpt>
      <trkpt lat="45.08671" lon="2.69686">
        <ele>1254.66</ele>
        <time>2021-08-15T16:36:20Z</time>
      </trkpt>
      <trkpt lat="45.08657" lon="2.69681">
        <ele>1255.62</ele>
        <time>2021-08-15T16:36:27Z</time>
      </trkpt>
      <trkpt lat="45.08637" lon="2.69682">
        <ele>1257.06</ele>
        <time>2021-08-15T16:36:37Z</time>
      </trkpt>
      <trkpt lat="45.08626" lon="2.69668">
        <ele>1257.54</ele>
        <time>2021-08-15T16:36:44Z</time>
      </trkpt>
      <trkpt lat="45.08629" lon="2.69647">
        <ele>1258.02</ele>
        <time>2021-08-15T16:36:51Z</time>
      </trkpt>
      <trkpt lat="45.08631" lon="2.69625">
        <ele>1258.98</ele>
        <time>2021-08-15T16:36:58Z</time>
      </trkpt>
      <trkpt lat="45.08631" lon="2.696">
        <ele>1259.94</ele>
        <time>2021-08-15T16:37:06Z</time>
      </trkpt>
      <trkpt lat="45.0863" lon="2.69574">
        <ele>1260.43</ele>
        <time>2021-08-15T16:37:14Z</time>
      </trkpt>
      <trkpt lat="45.08623" lon="2.69549">
        <ele>1261.39</ele>
        <time>2021-08-15T16:37:22Z</time>
      </trkpt>
      <trkpt lat="45.08613" lon="2.69531">
        <ele>1262.35</ele>
        <time>2021-08-15T16:37:29Z</time>
      </trkpt>
      <trkpt lat="45.08601" lon="2.69519">
        <ele>1263.31</ele>
        <time>2021-08-15T16:37:36Z</time>
      </trkpt>
      <trkpt lat="45.08584" lon="2.69521">
        <ele>1263.31</ele>
        <time>2021-08-15T16:37:43Z</time>
      </trkpt>
      <trkpt lat="45.08564" lon="2.6953">
        <ele>1264.27</ele>
        <time>2021-08-15T16:37:53Z</time>
      </trkpt>
      <trkpt lat="45.08551" lon="2.69534">
        <ele>1265.71</ele>
        <time>2021-08-15T16:38:00Z</time>
      </trkpt>
      <trkpt lat="45.0854" lon="2.69534">
        <ele>1266.19</ele>
        <time>2021-08-15T16:38:07Z</time>
      </trkpt>
      <trkpt lat="45.08535" lon="2.69532">
        <ele>1266.67</ele>
        <time>2021-08-15T16:38:11Z</time>
      </trkpt>
      <trkpt lat="45.08533" lon="2.69532">
        <ele>1266.67</ele>
        <time>2021-08-15T16:38:12Z</time>
      </trkpt>
      <trkpt lat="45.08532" lon="2.69532">
        <ele>1267.16</ele>
        <time>2021-08-15T16:38:13Z</time>
      </trkpt>
      <trkpt lat="45.0853" lon="2.69532">
        <ele>1267.16</ele>
        <time>2021-08-15T16:38:14Z</time>
      </trkpt>
      <trkpt lat="45.08528" lon="2.69532">
        <ele>1267.16</ele>
        <time>2021-08-15T16:38:15Z</time>
      </trkpt>
      <trkpt lat="45.08513" lon="2.69529">
        <ele>1268.12</ele>
        <time>2021-08-15T16:38:23Z</time>
      </trkpt>
      <trkpt lat="45.08495" lon="2.69526">
        <ele>1269.56</ele>
        <time>2021-08-15T16:38:32Z</time>
      </trkpt>
      <trkpt lat="45.0848" lon="2.69529">
        <ele>1270.52</ele>
        <time>2021-08-15T16:38:41Z</time>
      </trkpt>
      <trkpt lat="45.08467" lon="2.69537">
        <ele>1271.96</ele>
        <time>2021-08-15T16:38:50Z</time>
      </trkpt>
      <trkpt lat="45.08456" lon="2.69542">
        <ele>1271.96</ele>
        <time>2021-08-15T16:38:57Z</time>
      </trkpt>
      <trkpt lat="45.08442" lon="2.69538">
        <ele>1272.44</ele>
        <time>2021-08-15T16:39:03Z</time>
      </trkpt>
      <trkpt lat="45.08429" lon="2.69521">
        <ele>1272.92</ele>
        <time>2021-08-15T16:39:10Z</time>
      </trkpt>
      <trkpt lat="45.08422" lon="2.69502">
        <ele>1273.4</ele>
        <time>2021-08-15T16:39:16Z</time>
      </trkpt>
      <trkpt lat="45.08409" lon="2.69481">
        <ele>1273.4</ele>
        <time>2021-08-15T16:39:23Z</time>
      </trkpt>
      <trkpt lat="45.08393" lon="2.69453">
        <ele>1271.48</ele>
        <time>2021-08-15T16:39:29Z</time>
      </trkpt>
      <trkpt lat="45.08389" lon="2.69447">
        <ele>1271</ele>
        <time>2021-08-15T16:39:30Z</time>
      </trkpt>
      <trkpt lat="45.08381" lon="2.69435">
        <ele>1270.52</ele>
        <time>2021-08-15T16:39:32Z</time>
      </trkpt>
      <trkpt lat="45.08377" lon="2.69428">
        <ele>1270.04</ele>
        <time>2021-08-15T16:39:33Z</time>
      </trkpt>
      <trkpt lat="45.08372" lon="2.6942">
        <ele>1269.56</ele>
        <time>2021-08-15T16:39:34Z</time>
      </trkpt>
      <trkpt lat="45.08368" lon="2.69412">
        <ele>1269.56</ele>
        <time>2021-08-15T16:39:35Z</time>
      </trkpt>
      <trkpt lat="45.08365" lon="2.69403">
        <ele>1268.6</ele>
        <time>2021-08-15T16:39:36Z</time>
      </trkpt>
      <trkpt lat="45.08362" lon="2.69394">
        <ele>1268.12</ele>
        <time>2021-08-15T16:39:37Z</time>
      </trkpt>
      <trkpt lat="45.08358" lon="2.69386">
        <ele>1267.64</ele>
        <time>2021-08-15T16:39:38Z</time>
      </trkpt>
      <trkpt lat="45.08353" lon="2.69378">
        <ele>1267.16</ele>
        <time>2021-08-15T16:39:39Z</time>
      </trkpt>
      <trkpt lat="45.08348" lon="2.69371">
        <ele>1266.67</ele>
        <time>2021-08-15T16:39:40Z</time>
      </trkpt>
      <trkpt lat="45.08343" lon="2.69366">
        <ele>1265.23</ele>
        <time>2021-08-15T16:39:41Z</time>
      </trkpt>
      <trkpt lat="45.08336" lon="2.69361">
        <ele>1265.23</ele>
        <time>2021-08-15T16:39:42Z</time>
      </trkpt>
      <trkpt lat="45.0833" lon="2.69359">
        <ele>1264.27</ele>
        <time>2021-08-15T16:39:43Z</time>
      </trkpt>
      <trkpt lat="45.08322" lon="2.69357">
        <ele>1263.79</ele>
        <time>2021-08-15T16:39:44Z</time>
      </trkpt>
      <trkpt lat="45.08315" lon="2.69356">
        <ele>1263.31</ele>
        <time>2021-08-15T16:39:45Z</time>
      </trkpt>
      <trkpt lat="45.08308" lon="2.69356">
        <ele>1262.83</ele>
        <time>2021-08-15T16:39:46Z</time>
      </trkpt>
      <trkpt lat="45.083" lon="2.69356">
        <ele>1261.87</ele>
        <time>2021-08-15T16:39:47Z</time>
      </trkpt>
      <trkpt lat="45.08282" lon="2.69355">
        <ele>1260.91</ele>
        <time>2021-08-15T16:39:49Z</time>
      </trkpt>
      <trkpt lat="45.0826" lon="2.69353">
        <ele>1259.46</ele>
        <time>2021-08-15T16:39:52Z</time>
      </trkpt>
      <trkpt lat="45.08252" lon="2.69354">
        <ele>1258.98</ele>
        <time>2021-08-15T16:39:53Z</time>
      </trkpt>
      <trkpt lat="45.08243" lon="2.69357">
        <ele>1258.5</ele>
        <time>2021-08-15T16:39:54Z</time>
      </trkpt>
      <trkpt lat="45.08227" lon="2.69364">
        <ele>1257.54</ele>
        <time>2021-08-15T16:39:56Z</time>
      </trkpt>
      <trkpt lat="45.0818" lon="2.69388">
        <ele>1256.1</ele>
        <time>2021-08-15T16:40:02Z</time>
      </trkpt>
      <trkpt lat="45.08157" lon="2.69398">
        <ele>1254.66</ele>
        <time>2021-08-15T16:40:05Z</time>
      </trkpt>
      <trkpt lat="45.08122" lon="2.69403">
        <ele>1250.81</ele>
        <time>2021-08-15T16:40:09Z</time>
      </trkpt>
      <trkpt lat="45.08086" lon="2.69405">
        <ele>1248.41</ele>
        <time>2021-08-15T16:40:13Z</time>
      </trkpt>
      <trkpt lat="45.08068" lon="2.69407">
        <ele>1247.45</ele>
        <time>2021-08-15T16:40:15Z</time>
      </trkpt>
      <trkpt lat="45.08061" lon="2.6941">
        <ele>1246.49</ele>
        <time>2021-08-15T16:40:16Z</time>
      </trkpt>
      <trkpt lat="45.08053" lon="2.69414">
        <ele>1246.49</ele>
        <time>2021-08-15T16:40:17Z</time>
      </trkpt>
      <trkpt lat="45.08046" lon="2.6942">
        <ele>1246.01</ele>
        <time>2021-08-15T16:40:18Z</time>
      </trkpt>
      <trkpt lat="45.0804" lon="2.69426">
        <ele>1245.04</ele>
        <time>2021-08-15T16:40:19Z</time>
      </trkpt>
      <trkpt lat="45.08035" lon="2.69434">
        <ele>1244.08</ele>
        <time>2021-08-15T16:40:20Z</time>
      </trkpt>
      <trkpt lat="45.0803" lon="2.69442">
        <ele>1244.08</ele>
        <time>2021-08-15T16:40:21Z</time>
      </trkpt>
      <trkpt lat="45.08026" lon="2.69451">
        <ele>1243.12</ele>
        <time>2021-08-15T16:40:22Z</time>
      </trkpt>
      <trkpt lat="45.08024" lon="2.6946">
        <ele>1242.64</ele>
        <time>2021-08-15T16:40:23Z</time>
      </trkpt>
      <trkpt lat="45.08022" lon="2.69471">
        <ele>1242.16</ele>
        <time>2021-08-15T16:40:24Z</time>
      </trkpt>
      <trkpt lat="45.08022" lon="2.6948">
        <ele>1241.68</ele>
        <time>2021-08-15T16:40:25Z</time>
      </trkpt>
      <trkpt lat="45.08021" lon="2.6949">
        <ele>1240.72</ele>
        <time>2021-08-15T16:40:26Z</time>
      </trkpt>
      <trkpt lat="45.0802" lon="2.695">
        <ele>1241.2</ele>
        <time>2021-08-15T16:40:27Z</time>
      </trkpt>
      <trkpt lat="45.08018" lon="2.69508">
        <ele>1240.24</ele>
        <time>2021-08-15T16:40:28Z</time>
      </trkpt>
      <trkpt lat="45.08015" lon="2.69516">
        <ele>1239.76</ele>
        <time>2021-08-15T16:40:29Z</time>
      </trkpt>
      <trkpt lat="45.0801" lon="2.69521">
        <ele>1239.76</ele>
        <time>2021-08-15T16:40:30Z</time>
      </trkpt>
      <trkpt lat="45.08006" lon="2.69523">
        <ele>1239.28</ele>
        <time>2021-08-15T16:40:31Z</time>
      </trkpt>
      <trkpt lat="45.08001" lon="2.69524">
        <ele>1239.76</ele>
        <time>2021-08-15T16:40:32Z</time>
      </trkpt>
      <trkpt lat="45.07996" lon="2.69522">
        <ele>1239.76</ele>
        <time>2021-08-15T16:40:33Z</time>
      </trkpt>
      <trkpt lat="45.07991" lon="2.6952">
        <ele>1239.76</ele>
        <time>2021-08-15T16:40:34Z</time>
      </trkpt>
      <trkpt lat="45.07988" lon="2.69516">
        <ele>1239.76</ele>
        <time>2021-08-15T16:40:35Z</time>
      </trkpt>
      <trkpt lat="45.07985" lon="2.69514">
        <ele>1239.76</ele>
        <time>2021-08-15T16:40:36Z</time>
      </trkpt>
      <trkpt lat="45.07982" lon="2.69511">
        <ele>1239.76</ele>
        <time>2021-08-15T16:40:37Z</time>
      </trkpt>
      <trkpt lat="45.07973" lon="2.6949">
        <ele>1239.76</ele>
        <time>2021-08-15T16:40:42Z</time>
      </trkpt>
      <trkpt lat="45.07971" lon="2.69468">
        <ele>1238.32</ele>
        <time>2021-08-15T16:40:47Z</time>
      </trkpt>
      <trkpt lat="45.0797" lon="2.6946">
        <ele>1238.32</ele>
        <time>2021-08-15T16:40:49Z</time>
      </trkpt>
      <trkpt lat="45.0797" lon="2.69456">
        <ele>1237.83</ele>
        <time>2021-08-15T16:40:50Z</time>
      </trkpt>
      <trkpt lat="45.07969" lon="2.69453">
        <ele>1237.83</ele>
        <time>2021-08-15T16:40:51Z</time>
      </trkpt>
      <trkpt lat="45.07967" lon="2.6945">
        <ele>1237.35</ele>
        <time>2021-08-15T16:40:52Z</time>
      </trkpt>
      <trkpt lat="45.07966" lon="2.69447">
        <ele>1237.35</ele>
        <time>2021-08-15T16:40:53Z</time>
      </trkpt>
      <trkpt lat="45.07963" lon="2.69444">
        <ele>1237.35</ele>
        <time>2021-08-15T16:40:54Z</time>
      </trkpt>
      <trkpt lat="45.07959" lon="2.6944">
        <ele>1236.39</ele>
        <time>2021-08-15T16:40:55Z</time>
      </trkpt>
      <trkpt lat="45.07955" lon="2.69437">
        <ele>1235.43</ele>
        <time>2021-08-15T16:40:56Z</time>
      </trkpt>
      <trkpt lat="45.0795" lon="2.69435">
        <ele>1234.95</ele>
        <time>2021-08-15T16:40:57Z</time>
      </trkpt>
      <trkpt lat="45.07939" lon="2.69432">
        <ele>1233.51</ele>
        <time>2021-08-15T16:40:59Z</time>
      </trkpt>
      <trkpt lat="45.07933" lon="2.69432">
        <ele>1232.55</ele>
        <time>2021-08-15T16:41:00Z</time>
      </trkpt>
      <trkpt lat="45.07926" lon="2.69433">
        <ele>1232.07</ele>
        <time>2021-08-15T16:41:01Z</time>
      </trkpt>
      <trkpt lat="45.0792" lon="2.69435">
        <ele>1231.11</ele>
        <time>2021-08-15T16:41:02Z</time>
      </trkpt>
      <trkpt lat="45.07915" lon="2.69437">
        <ele>1230.62</ele>
        <time>2021-08-15T16:41:03Z</time>
      </trkpt>
      <trkpt lat="45.07909" lon="2.6944">
        <ele>1230.14</ele>
        <time>2021-08-15T16:41:04Z</time>
      </trkpt>
      <trkpt lat="45.07893" lon="2.69451">
        <ele>1227.74</ele>
        <time>2021-08-15T16:41:07Z</time>
      </trkpt>
      <trkpt lat="45.07882" lon="2.69456">
        <ele>1226.78</ele>
        <time>2021-08-15T16:41:09Z</time>
      </trkpt>
      <trkpt lat="45.07876" lon="2.69458">
        <ele>1226.78</ele>
        <time>2021-08-15T16:41:10Z</time>
      </trkpt>
      <trkpt lat="45.0787" lon="2.6946">
        <ele>1225.34</ele>
        <time>2021-08-15T16:41:11Z</time>
      </trkpt>
      <trkpt lat="45.07851" lon="2.69463">
        <ele>1223.9</ele>
        <time>2021-08-15T16:41:14Z</time>
      </trkpt>
      <trkpt lat="45.07844" lon="2.69463">
        <ele>1223.42</ele>
        <time>2021-08-15T16:41:15Z</time>
      </trkpt>
      <trkpt lat="45.07837" lon="2.69462">
        <ele>1222.93</ele>
        <time>2021-08-15T16:41:16Z</time>
      </trkpt>
      <trkpt lat="45.0783" lon="2.69462">
        <ele>1222.45</ele>
        <time>2021-08-15T16:41:17Z</time>
      </trkpt>
      <trkpt lat="45.07824" lon="2.69461">
        <ele>1222.45</ele>
        <time>2021-08-15T16:41:18Z</time>
      </trkpt>
      <trkpt lat="45.07798" lon="2.69457">
        <ele>1219.57</ele>
        <time>2021-08-15T16:41:22Z</time>
      </trkpt>
      <trkpt lat="45.07794" lon="2.69453">
        <ele>1219.57</ele>
        <time>2021-08-15T16:41:23Z</time>
      </trkpt>
      <trkpt lat="45.0779" lon="2.69448">
        <ele>1219.57</ele>
        <time>2021-08-15T16:41:24Z</time>
      </trkpt>
      <trkpt lat="45.07786" lon="2.69437">
        <ele>1219.09</ele>
        <time>2021-08-15T16:41:26Z</time>
      </trkpt>
      <trkpt lat="45.07786" lon="2.69431">
        <ele>1218.61</ele>
        <time>2021-08-15T16:41:27Z</time>
      </trkpt>
      <trkpt lat="45.07786" lon="2.69425">
        <ele>1218.61</ele>
        <time>2021-08-15T16:41:28Z</time>
      </trkpt>
      <trkpt lat="45.07786" lon="2.69419">
        <ele>1218.61</ele>
        <time>2021-08-15T16:41:29Z</time>
      </trkpt>
      <trkpt lat="45.07787" lon="2.69413">
        <ele>1218.13</ele>
        <time>2021-08-15T16:41:30Z</time>
      </trkpt>
      <trkpt lat="45.07789" lon="2.69409">
        <ele>1218.13</ele>
        <time>2021-08-15T16:41:31Z</time>
      </trkpt>
      <trkpt lat="45.07792" lon="2.69405">
        <ele>1218.13</ele>
        <time>2021-08-15T16:41:32Z</time>
      </trkpt>
      <trkpt lat="45.07794" lon="2.69402">
        <ele>1218.13</ele>
        <time>2021-08-15T16:41:33Z</time>
      </trkpt>
      <trkpt lat="45.07796" lon="2.694">
        <ele>1218.13</ele>
        <time>2021-08-15T16:41:34Z</time>
      </trkpt>
      <trkpt lat="45.07797" lon="2.69398">
        <ele>1218.13</ele>
        <time>2021-08-15T16:41:39Z</time>
      </trkpt>
      <trkpt lat="45.07802" lon="2.6939">
        <ele>1217.65</ele>
        <time>2021-08-15T16:41:52Z</time>
      </trkpt>
      <trkpt lat="45.07818" lon="2.69366">
        <ele>1216.21</ele>
        <time>2021-08-15T16:41:58Z</time>
      </trkpt>
      <trkpt lat="45.07841" lon="2.69338">
        <ele>1213.8</ele>
        <time>2021-08-15T16:42:03Z</time>
      </trkpt>
      <trkpt lat="45.07845" lon="2.69331">
        <ele>1212.84</ele>
        <time>2021-08-15T16:42:04Z</time>
      </trkpt>
      <trkpt lat="45.07853" lon="2.69315">
        <ele>1211.88</ele>
        <time>2021-08-15T16:42:06Z</time>
      </trkpt>
      <trkpt lat="45.07865" lon="2.69291">
        <ele>1209.48</ele>
        <time>2021-08-15T16:42:09Z</time>
      </trkpt>
      <trkpt lat="45.0787" lon="2.69284">
        <ele>1208.51</ele>
        <time>2021-08-15T16:42:10Z</time>
      </trkpt>
      <trkpt lat="45.07896" lon="2.69244">
        <ele>1205.15</ele>
        <time>2021-08-15T16:42:16Z</time>
      </trkpt>
      <trkpt lat="45.079" lon="2.69238">
        <ele>1204.19</ele>
        <time>2021-08-15T16:42:17Z</time>
      </trkpt>
      <trkpt lat="45.07904" lon="2.69229">
        <ele>1203.23</ele>
        <time>2021-08-15T16:42:18Z</time>
      </trkpt>
      <trkpt lat="45.07913" lon="2.6921">
        <ele>1201.79</ele>
        <time>2021-08-15T16:42:20Z</time>
      </trkpt>
      <trkpt lat="45.07919" lon="2.6919">
        <ele>1199.86</ele>
        <time>2021-08-15T16:42:22Z</time>
      </trkpt>
      <trkpt lat="45.07925" lon="2.69128">
        <ele>1196.5</ele>
        <time>2021-08-15T16:42:27Z</time>
      </trkpt>
      <trkpt lat="45.07926" lon="2.69114">
        <ele>1195.54</ele>
        <time>2021-08-15T16:42:28Z</time>
      </trkpt>
      <trkpt lat="45.0793" lon="2.69081">
        <ele>1195.06</ele>
        <time>2021-08-15T16:42:31Z</time>
      </trkpt>
      <trkpt lat="45.07929" lon="2.69072">
        <ele>1194.09</ele>
        <time>2021-08-15T16:42:32Z</time>
      </trkpt>
      <trkpt lat="45.07926" lon="2.69064">
        <ele>1194.58</ele>
        <time>2021-08-15T16:42:33Z</time>
      </trkpt>
      <trkpt lat="45.07922" lon="2.69058">
        <ele>1194.09</ele>
        <time>2021-08-15T16:42:34Z</time>
      </trkpt>
      <trkpt lat="45.07917" lon="2.69054">
        <ele>1193.61</ele>
        <time>2021-08-15T16:42:35Z</time>
      </trkpt>
      <trkpt lat="45.07911" lon="2.6905">
        <ele>1193.13</ele>
        <time>2021-08-15T16:42:36Z</time>
      </trkpt>
      <trkpt lat="45.07907" lon="2.69045">
        <ele>1192.17</ele>
        <time>2021-08-15T16:42:37Z</time>
      </trkpt>
      <trkpt lat="45.07906" lon="2.69039">
        <ele>1192.17</ele>
        <time>2021-08-15T16:42:38Z</time>
      </trkpt>
      <trkpt lat="45.07907" lon="2.69033">
        <ele>1192.17</ele>
        <time>2021-08-15T16:42:39Z</time>
      </trkpt>
      <trkpt lat="45.0791" lon="2.69028">
        <ele>1191.69</ele>
        <time>2021-08-15T16:42:40Z</time>
      </trkpt>
      <trkpt lat="45.07913" lon="2.69024">
        <ele>1191.69</ele>
        <time>2021-08-15T16:42:41Z</time>
      </trkpt>
      <trkpt lat="45.07916" lon="2.69019">
        <ele>1191.69</ele>
        <time>2021-08-15T16:42:42Z</time>
      </trkpt>
      <trkpt lat="45.0792" lon="2.69016">
        <ele>1191.21</ele>
        <time>2021-08-15T16:42:43Z</time>
      </trkpt>
      <trkpt lat="45.07924" lon="2.69013">
        <ele>1191.21</ele>
        <time>2021-08-15T16:42:44Z</time>
      </trkpt>
      <trkpt lat="45.07929" lon="2.69008">
        <ele>1190.73</ele>
        <time>2021-08-15T16:42:45Z</time>
      </trkpt>
      <trkpt lat="45.07932" lon="2.69002">
        <ele>1190.73</ele>
        <time>2021-08-15T16:42:46Z</time>
      </trkpt>
      <trkpt lat="45.07934" lon="2.68993">
        <ele>1189.29</ele>
        <time>2021-08-15T16:42:47Z</time>
      </trkpt>
      <trkpt lat="45.07937" lon="2.68964">
        <ele>1186.4</ele>
        <time>2021-08-15T16:42:50Z</time>
      </trkpt>
      <trkpt lat="45.07937" lon="2.68928">
        <ele>1183.04</ele>
        <time>2021-08-15T16:42:53Z</time>
      </trkpt>
      <trkpt lat="45.07937" lon="2.68918">
        <ele>1182.08</ele>
        <time>2021-08-15T16:42:54Z</time>
      </trkpt>
      <trkpt lat="45.07935" lon="2.68898">
        <ele>1180.16</ele>
        <time>2021-08-15T16:42:56Z</time>
      </trkpt>
      <trkpt lat="45.07936" lon="2.68887">
        <ele>1179.67</ele>
        <time>2021-08-15T16:42:57Z</time>
      </trkpt>
      <trkpt lat="45.07938" lon="2.68877">
        <ele>1179.67</ele>
        <time>2021-08-15T16:42:58Z</time>
      </trkpt>
      <trkpt lat="45.0794" lon="2.68867">
        <ele>1179.67</ele>
        <time>2021-08-15T16:42:59Z</time>
      </trkpt>
      <trkpt lat="45.07941" lon="2.68856">
        <ele>1178.23</ele>
        <time>2021-08-15T16:43:00Z</time>
      </trkpt>
      <trkpt lat="45.07941" lon="2.68778">
        <ele>1175.83</ele>
        <time>2021-08-15T16:43:07Z</time>
      </trkpt>
      <trkpt lat="45.07941" lon="2.68766">
        <ele>1175.35</ele>
        <time>2021-08-15T16:43:08Z</time>
      </trkpt>
      <trkpt lat="45.07944" lon="2.68709">
        <ele>1171.5</ele>
        <time>2021-08-15T16:43:13Z</time>
      </trkpt>
      <trkpt lat="45.07951" lon="2.68654">
        <ele>1170.06</ele>
        <time>2021-08-15T16:43:19Z</time>
      </trkpt>
      <trkpt lat="45.07946" lon="2.6864">
        <ele>1169.58</ele>
        <time>2021-08-15T16:43:23Z</time>
      </trkpt>
      <trkpt lat="45.07942" lon="2.68634">
        <ele>1171.02</ele>
        <time>2021-08-15T16:43:27Z</time>
      </trkpt>
      <trkpt lat="45.07936" lon="2.68619">
        <ele>1171.98</ele>
        <time>2021-08-15T16:43:36Z</time>
      </trkpt>
      <trkpt lat="45.0793" lon="2.68605">
        <ele>1173.43</ele>
        <time>2021-08-15T16:43:44Z</time>
      </trkpt>
      <trkpt lat="45.0792" lon="2.68594">
        <ele>1173.91</ele>
        <time>2021-08-15T16:43:53Z</time>
      </trkpt>
      <trkpt lat="45.07909" lon="2.68582">
        <ele>1174.87</ele>
        <time>2021-08-15T16:44:02Z</time>
      </trkpt>
      <trkpt lat="45.07905" lon="2.68575">
        <ele>1175.83</ele>
        <time>2021-08-15T16:44:07Z</time>
      </trkpt>
      <trkpt lat="45.07905" lon="2.68574">
        <ele>1175.35</ele>
        <time>2021-08-15T16:44:08Z</time>
      </trkpt>
      <trkpt lat="45.07902" lon="2.68558">
        <ele>1177.27</ele>
        <time>2021-08-15T16:44:16Z</time>
      </trkpt>
      <trkpt lat="45.07896" lon="2.68541">
        <ele>1178.23</ele>
        <time>2021-08-15T16:44:24Z</time>
      </trkpt>
      <trkpt lat="45.07888" lon="2.68524">
        <ele>1178.71</ele>
        <time>2021-08-15T16:44:32Z</time>
      </trkpt>
      <trkpt lat="45.07885" lon="2.68513">
        <ele>1179.67</ele>
        <time>2021-08-15T16:44:38Z</time>
      </trkpt>
      <trkpt lat="45.07879" lon="2.68498">
        <ele>1180.16</ele>
        <time>2021-08-15T16:44:47Z</time>
      </trkpt>
      <trkpt lat="45.07872" lon="2.68489">
        <ele>1181.6</ele>
        <time>2021-08-15T16:44:55Z</time>
      </trkpt>
      <trkpt lat="45.07864" lon="2.68477">
        <ele>1181.6</ele>
        <time>2021-08-15T16:45:03Z</time>
      </trkpt>
      <trkpt lat="45.07855" lon="2.6847">
        <ele>1183.04</ele>
        <time>2021-08-15T16:45:11Z</time>
      </trkpt>
      <trkpt lat="45.07843" lon="2.68469">
        <ele>1184.48</ele>
        <time>2021-08-15T16:45:19Z</time>
      </trkpt>
      <trkpt lat="45.07828" lon="2.68473">
        <ele>1185.44</ele>
        <time>2021-08-15T16:45:28Z</time>
      </trkpt>
      <trkpt lat="45.0782" lon="2.68475">
        <ele>1185.92</ele>
        <time>2021-08-15T16:45:35Z</time>
      </trkpt>
      <trkpt lat="45.07811" lon="2.68472">
        <ele>1186.4</ele>
        <time>2021-08-15T16:45:41Z</time>
      </trkpt>
      <trkpt lat="45.0781" lon="2.68472">
        <ele>1186.4</ele>
        <time>2021-08-15T16:45:42Z</time>
      </trkpt>
      <trkpt lat="45.07806" lon="2.68468">
        <ele>1186.88</ele>
        <time>2021-08-15T16:45:46Z</time>
      </trkpt>
      <trkpt lat="45.07806" lon="2.68467">
        <ele>1186.88</ele>
        <time>2021-08-15T16:45:47Z</time>
      </trkpt>
      <trkpt lat="45.07803" lon="2.68463">
        <ele>1187.37</ele>
        <time>2021-08-15T16:45:50Z</time>
      </trkpt>
      <trkpt lat="45.07803" lon="2.68461">
        <ele>1187.37</ele>
        <time>2021-08-15T16:45:51Z</time>
      </trkpt>
      <trkpt lat="45.078" lon="2.6845">
        <ele>1188.81</ele>
        <time>2021-08-15T16:45:59Z</time>
      </trkpt>
      <trkpt lat="45.07798" lon="2.68438">
        <ele>1189.29</ele>
        <time>2021-08-15T16:46:07Z</time>
      </trkpt>
      <trkpt lat="45.07796" lon="2.68427">
        <ele>1191.21</ele>
        <time>2021-08-15T16:46:15Z</time>
      </trkpt>
      <trkpt lat="45.07796" lon="2.68426">
        <ele>1191.21</ele>
        <time>2021-08-15T16:46:16Z</time>
      </trkpt>
      <trkpt lat="45.07795" lon="2.68421">
        <ele>1191.69</ele>
        <time>2021-08-15T16:46:20Z</time>
      </trkpt>
      <trkpt lat="45.07792" lon="2.68405">
        <ele>1192.65</ele>
        <time>2021-08-15T16:46:30Z</time>
      </trkpt>
      <trkpt lat="45.07789" lon="2.68393">
        <ele>1193.61</ele>
        <time>2021-08-15T16:46:40Z</time>
      </trkpt>
      <trkpt lat="45.07786" lon="2.6838">
        <ele>1194.09</ele>
        <time>2021-08-15T16:46:49Z</time>
      </trkpt>
      <trkpt lat="45.07787" lon="2.68367">
        <ele>1195.54</ele>
        <time>2021-08-15T16:46:59Z</time>
      </trkpt>
      <trkpt lat="45.07787" lon="2.68363">
        <ele>1195.54</ele>
        <time>2021-08-15T16:47:02Z</time>
      </trkpt>
      <trkpt lat="45.07787" lon="2.68361">
        <ele>1195.54</ele>
        <time>2021-08-15T16:47:03Z</time>
      </trkpt>
      <trkpt lat="45.07787" lon="2.68359">
        <ele>1195.54</ele>
        <time>2021-08-15T16:47:04Z</time>
      </trkpt>
      <trkpt lat="45.07787" lon="2.68357">
        <ele>1195.54</ele>
        <time>2021-08-15T16:47:05Z</time>
      </trkpt>
      <trkpt lat="45.07787" lon="2.68354">
        <ele>1195.54</ele>
        <time>2021-08-15T16:47:06Z</time>
      </trkpt>
      <trkpt lat="45.07787" lon="2.68352">
        <ele>1196.5</ele>
        <time>2021-08-15T16:47:07Z</time>
      </trkpt>
      <trkpt lat="45.07787" lon="2.6835">
        <ele>1196.02</ele>
        <time>2021-08-15T16:47:08Z</time>
      </trkpt>
      <trkpt lat="45.07787" lon="2.68348">
        <ele>1196.5</ele>
        <time>2021-08-15T16:47:09Z</time>
      </trkpt>
      <trkpt lat="45.07787" lon="2.68346">
        <ele>1196.5</ele>
        <time>2021-08-15T16:47:10Z</time>
      </trkpt>
      <trkpt lat="45.07788" lon="2.68345">
        <ele>1196.5</ele>
        <time>2021-08-15T16:47:11Z</time>
      </trkpt>
      <trkpt lat="45.07789" lon="2.68341">
        <ele>1196.5</ele>
        <time>2021-08-15T16:47:13Z</time>
      </trkpt>
      <trkpt lat="45.07793" lon="2.68325">
        <ele>1197.46</ele>
        <time>2021-08-15T16:47:21Z</time>
      </trkpt>
      <trkpt lat="45.07798" lon="2.68308">
        <ele>1198.42</ele>
        <time>2021-08-15T16:47:28Z</time>
      </trkpt>
      <trkpt lat="45.078" lon="2.68297">
        <ele>1198.9</ele>
        <time>2021-08-15T16:47:33Z</time>
      </trkpt>
      <trkpt lat="45.07805" lon="2.6828">
        <ele>1199.38</ele>
        <time>2021-08-15T16:47:40Z</time>
      </trkpt>
      <trkpt lat="45.07811" lon="2.6826">
        <ele>1200.34</ele>
        <time>2021-08-15T16:47:49Z</time>
      </trkpt>
      <trkpt lat="45.07812" lon="2.68245">
        <ele>1201.79</ele>
        <time>2021-08-15T16:47:57Z</time>
      </trkpt>
      <trkpt lat="45.07811" lon="2.68228">
        <ele>1203.23</ele>
        <time>2021-08-15T16:48:07Z</time>
      </trkpt>
      <trkpt lat="45.07809" lon="2.68217">
        <ele>1203.71</ele>
        <time>2021-08-15T16:48:14Z</time>
      </trkpt>
      <trkpt lat="45.07808" lon="2.68203">
        <ele>1204.67</ele>
        <time>2021-08-15T16:48:22Z</time>
      </trkpt>
      <trkpt lat="45.07804" lon="2.68189">
        <ele>1205.15</ele>
        <time>2021-08-15T16:48:28Z</time>
      </trkpt>
      <trkpt lat="45.07801" lon="2.68176">
        <ele>1206.11</ele>
        <time>2021-08-15T16:48:35Z</time>
      </trkpt>
      <trkpt lat="45.07796" lon="2.68153">
        <ele>1207.07</ele>
        <time>2021-08-15T16:48:44Z</time>
      </trkpt>
      <trkpt lat="45.07794" lon="2.68141">
        <ele>1207.55</ele>
        <time>2021-08-15T16:48:50Z</time>
      </trkpt>
      <trkpt lat="45.0779" lon="2.68121">
        <ele>1208.51</ele>
        <time>2021-08-15T16:48:58Z</time>
      </trkpt>
      <trkpt lat="45.07789" lon="2.68119">
        <ele>1208.51</ele>
        <time>2021-08-15T16:48:59Z</time>
      </trkpt>
      <trkpt lat="45.07782" lon="2.68098">
        <ele>1209.96</ele>
        <time>2021-08-15T16:49:08Z</time>
      </trkpt>
      <trkpt lat="45.07774" lon="2.68084">
        <ele>1210.92</ele>
        <time>2021-08-15T16:49:17Z</time>
      </trkpt>
      <trkpt lat="45.07761" lon="2.68069">
        <ele>1212.84</ele>
        <time>2021-08-15T16:49:29Z</time>
      </trkpt>
      <trkpt lat="45.07751" lon="2.6806">
        <ele>1213.8</ele>
        <time>2021-08-15T16:49:38Z</time>
      </trkpt>
      <trkpt lat="45.0774" lon="2.68057">
        <ele>1214.76</ele>
        <time>2021-08-15T16:49:46Z</time>
      </trkpt>
      <trkpt lat="45.07725" lon="2.68064">
        <ele>1215.72</ele>
        <time>2021-08-15T16:49:55Z</time>
      </trkpt>
      <trkpt lat="45.07713" lon="2.6807">
        <ele>1216.69</ele>
        <time>2021-08-15T16:50:04Z</time>
      </trkpt>
      <trkpt lat="45.07702" lon="2.68071">
        <ele>1217.65</ele>
        <time>2021-08-15T16:50:12Z</time>
      </trkpt>
      <trkpt lat="45.07692" lon="2.68068">
        <ele>1219.09</ele>
        <time>2021-08-15T16:50:22Z</time>
      </trkpt>
      <trkpt lat="45.07685" lon="2.68065">
        <ele>1219.57</ele>
        <time>2021-08-15T16:50:29Z</time>
      </trkpt>
      <trkpt lat="45.07674" lon="2.68062">
        <ele>1220.53</ele>
        <time>2021-08-15T16:50:37Z</time>
      </trkpt>
      <trkpt lat="45.07663" lon="2.68057">
        <ele>1221.49</ele>
        <time>2021-08-15T16:50:45Z</time>
      </trkpt>
      <trkpt lat="45.07649" lon="2.68055">
        <ele>1222.45</ele>
        <time>2021-08-15T16:50:54Z</time>
      </trkpt>
      <trkpt lat="45.07633" lon="2.68059">
        <ele>1223.9</ele>
        <time>2021-08-15T16:51:03Z</time>
      </trkpt>
      <trkpt lat="45.07624" lon="2.68061">
        <ele>1224.86</ele>
        <time>2021-08-15T16:51:10Z</time>
      </trkpt>
      <trkpt lat="45.0761" lon="2.68059">
        <ele>1225.34</ele>
        <time>2021-08-15T16:51:18Z</time>
      </trkpt>
      <trkpt lat="45.07598" lon="2.68053">
        <ele>1226.3</ele>
        <time>2021-08-15T16:51:25Z</time>
      </trkpt>
      <trkpt lat="45.07588" lon="2.68045">
        <ele>1227.26</ele>
        <time>2021-08-15T16:51:32Z</time>
      </trkpt>
      <trkpt lat="45.07578" lon="2.68038">
        <ele>1228.22</ele>
        <time>2021-08-15T16:51:39Z</time>
      </trkpt>
      <trkpt lat="45.07569" lon="2.68043">
        <ele>1229.18</ele>
        <time>2021-08-15T16:51:45Z</time>
      </trkpt>
      <trkpt lat="45.07569" lon="2.68044">
        <ele>1229.18</ele>
        <time>2021-08-15T16:51:46Z</time>
      </trkpt>
      <trkpt lat="45.07569" lon="2.68046">
        <ele>1229.18</ele>
        <time>2021-08-15T16:51:47Z</time>
      </trkpt>
      <trkpt lat="45.07577" lon="2.68056">
        <ele>1230.14</ele>
        <time>2021-08-15T16:51:55Z</time>
      </trkpt>
      <trkpt lat="45.07578" lon="2.68057">
        <ele>1230.62</ele>
        <time>2021-08-15T16:51:56Z</time>
      </trkpt>
      <trkpt lat="45.07579" lon="2.68057">
        <ele>1230.62</ele>
        <time>2021-08-15T16:51:57Z</time>
      </trkpt>
      <trkpt lat="45.0758" lon="2.68058">
        <ele>1230.62</ele>
        <time>2021-08-15T16:51:58Z</time>
      </trkpt>
      <trkpt lat="45.07581" lon="2.68059">
        <ele>1230.62</ele>
        <time>2021-08-15T16:51:59Z</time>
      </trkpt>
      <trkpt lat="45.07583" lon="2.6806">
        <ele>1230.62</ele>
        <time>2021-08-15T16:52:00Z</time>
      </trkpt>
      <trkpt lat="45.07584" lon="2.68061">
        <ele>1230.62</ele>
        <time>2021-08-15T16:52:01Z</time>
      </trkpt>
      <trkpt lat="45.07586" lon="2.68062">
        <ele>1231.11</ele>
        <time>2021-08-15T16:52:02Z</time>
      </trkpt>
      <trkpt lat="45.07587" lon="2.68064">
        <ele>1231.11</ele>
        <time>2021-08-15T16:52:03Z</time>
      </trkpt>
      <trkpt lat="45.07588" lon="2.68065">
        <ele>1231.11</ele>
        <time>2021-08-15T16:52:04Z</time>
      </trkpt>
      <trkpt lat="45.0759" lon="2.68066">
        <ele>1231.11</ele>
        <time>2021-08-15T16:52:05Z</time>
      </trkpt>
      <trkpt lat="45.07591" lon="2.68067">
        <ele>1231.59</ele>
        <time>2021-08-15T16:52:06Z</time>
      </trkpt>
      <trkpt lat="45.07592" lon="2.68068">
        <ele>1231.59</ele>
        <time>2021-08-15T16:52:07Z</time>
      </trkpt>
      <trkpt lat="45.07594" lon="2.68069">
        <ele>1231.59</ele>
        <time>2021-08-15T16:52:08Z</time>
      </trkpt>
      <trkpt lat="45.07595" lon="2.6807">
        <ele>1231.59</ele>
        <time>2021-08-15T16:52:09Z</time>
      </trkpt>
      <trkpt lat="45.07596" lon="2.68071">
        <ele>1231.59</ele>
        <time>2021-08-15T16:52:10Z</time>
      </trkpt>
      <trkpt lat="45.07598" lon="2.68073">
        <ele>1231.59</ele>
        <time>2021-08-15T16:52:11Z</time>
      </trkpt>
      <trkpt lat="45.07598" lon="2.68073">
        <ele>1232.07</ele>
        <time>2021-08-15T16:52:12Z</time>
      </trkpt>
      <trkpt lat="45.07611" lon="2.68087">
        <ele>1233.03</ele>
        <time>2021-08-15T16:52:22Z</time>
      </trkpt>
      <trkpt lat="45.07624" lon="2.68096">
        <ele>1233.99</ele>
        <time>2021-08-15T16:52:31Z</time>
      </trkpt>
      <trkpt lat="45.07629" lon="2.68097">
        <ele>1234.47</ele>
        <time>2021-08-15T16:52:34Z</time>
      </trkpt>
      <trkpt lat="45.0763" lon="2.68097">
        <ele>1234.47</ele>
        <time>2021-08-15T16:52:35Z</time>
      </trkpt>
      <trkpt lat="45.07632" lon="2.68098">
        <ele>1234.47</ele>
        <time>2021-08-15T16:52:36Z</time>
      </trkpt>
      <trkpt lat="45.07633" lon="2.68098">
        <ele>1234.47</ele>
        <time>2021-08-15T16:52:37Z</time>
      </trkpt>
      <trkpt lat="45.07634" lon="2.68099">
        <ele>1234.95</ele>
        <time>2021-08-15T16:52:38Z</time>
      </trkpt>
      <trkpt lat="45.07635" lon="2.681">
        <ele>1234.95</ele>
        <time>2021-08-15T16:52:39Z</time>
      </trkpt>
      <trkpt lat="45.07637" lon="2.681">
        <ele>1235.43</ele>
        <time>2021-08-15T16:52:40Z</time>
      </trkpt>
      <trkpt lat="45.07638" lon="2.68102">
        <ele>1235.43</ele>
        <time>2021-08-15T16:52:41Z</time>
      </trkpt>
      <trkpt lat="45.0764" lon="2.68102">
        <ele>1235.43</ele>
        <time>2021-08-15T16:52:42Z</time>
      </trkpt>
      <trkpt lat="45.07641" lon="2.68103">
        <ele>1235.43</ele>
        <time>2021-08-15T16:52:43Z</time>
      </trkpt>
      <trkpt lat="45.07643" lon="2.68103">
        <ele>1235.43</ele>
        <time>2021-08-15T16:52:44Z</time>
      </trkpt>
      <trkpt lat="45.07645" lon="2.68105">
        <ele>1235.91</ele>
        <time>2021-08-15T16:52:45Z</time>
      </trkpt>
      <trkpt lat="45.07646" lon="2.68106">
        <ele>1235.91</ele>
        <time>2021-08-15T16:52:46Z</time>
      </trkpt>
      <trkpt lat="45.07648" lon="2.68108">
        <ele>1235.91</ele>
        <time>2021-08-15T16:52:47Z</time>
      </trkpt>
      <trkpt lat="45.07658" lon="2.68121">
        <ele>1236.87</ele>
        <time>2021-08-15T16:52:55Z</time>
      </trkpt>
      <trkpt lat="45.0767" lon="2.68134">
        <ele>1237.83</ele>
        <time>2021-08-15T16:53:03Z</time>
      </trkpt>
      <trkpt lat="45.0768" lon="2.6814">
        <ele>1238.32</ele>
        <time>2021-08-15T16:53:10Z</time>
      </trkpt>
      <trkpt lat="45.07691" lon="2.68147">
        <ele>1240.24</ele>
        <time>2021-08-15T16:53:18Z</time>
      </trkpt>
      <trkpt lat="45.07696" lon="2.6815">
        <ele>1240.24</ele>
        <time>2021-08-15T16:53:21Z</time>
      </trkpt>
      <trkpt lat="45.07696" lon="2.68152">
        <ele>1240.24</ele>
        <time>2021-08-15T16:53:22Z</time>
      </trkpt>
      <trkpt lat="45.07697" lon="2.68154">
        <ele>1240.72</ele>
        <time>2021-08-15T16:53:23Z</time>
      </trkpt>
      <trkpt lat="45.07706" lon="2.6817">
        <ele>1242.16</ele>
        <time>2021-08-15T16:53:31Z</time>
      </trkpt>
      <trkpt lat="45.07707" lon="2.68172">
        <ele>1242.16</ele>
        <time>2021-08-15T16:53:32Z</time>
      </trkpt>
      <trkpt lat="45.07712" lon="2.68188">
        <ele>1243.6</ele>
        <time>2021-08-15T16:53:40Z</time>
      </trkpt>
      <trkpt lat="45.07712" lon="2.6819">
        <ele>1243.6</ele>
        <time>2021-08-15T16:53:41Z</time>
      </trkpt>
      <trkpt lat="45.07713" lon="2.68192">
        <ele>1243.6</ele>
        <time>2021-08-15T16:53:42Z</time>
      </trkpt>
      <trkpt lat="45.07714" lon="2.68196">
        <ele>1244.08</ele>
        <time>2021-08-15T16:53:44Z</time>
      </trkpt>
      <trkpt lat="45.07714" lon="2.68198">
        <ele>1244.56</ele>
        <time>2021-08-15T16:53:45Z</time>
      </trkpt>
      <trkpt lat="45.07713" lon="2.68212">
        <ele>1245.53</ele>
        <time>2021-08-15T16:53:53Z</time>
      </trkpt>
      <trkpt lat="45.07706" lon="2.68225">
        <ele>1246.97</ele>
        <time>2021-08-15T16:54:01Z</time>
      </trkpt>
      <trkpt lat="45.077" lon="2.6823">
        <ele>1247.45</ele>
        <time>2021-08-15T16:54:07Z</time>
      </trkpt>
      <trkpt lat="45.07691" lon="2.68227">
        <ele>1249.37</ele>
        <time>2021-08-15T16:54:15Z</time>
      </trkpt>
      <trkpt lat="45.07691" lon="2.68226">
        <ele>1249.37</ele>
        <time>2021-08-15T16:54:16Z</time>
      </trkpt>
      <trkpt lat="45.0769" lon="2.68224">
        <ele>1249.37</ele>
        <time>2021-08-15T16:54:17Z</time>
      </trkpt>
      <trkpt lat="45.07687" lon="2.68216">
        <ele>1250.33</ele>
        <time>2021-08-15T16:54:22Z</time>
      </trkpt>
      <trkpt lat="45.07686" lon="2.68215">
        <ele>1250.33</ele>
        <time>2021-08-15T16:54:23Z</time>
      </trkpt>
      <trkpt lat="45.07686" lon="2.68213">
        <ele>1250.33</ele>
        <time>2021-08-15T16:54:24Z</time>
      </trkpt>
      <trkpt lat="45.07685" lon="2.68212">
        <ele>1250.33</ele>
        <time>2021-08-15T16:54:25Z</time>
      </trkpt>
      <trkpt lat="45.07685" lon="2.6821">
        <ele>1250.33</ele>
        <time>2021-08-15T16:54:26Z</time>
      </trkpt>
      <trkpt lat="45.07674" lon="2.68197">
        <ele>1251.29</ele>
        <time>2021-08-15T16:54:35Z</time>
      </trkpt>
      <trkpt lat="45.07657" lon="2.68193">
        <ele>1252.25</ele>
        <time>2021-08-15T16:54:44Z</time>
      </trkpt>
      <trkpt lat="45.07648" lon="2.6819">
        <ele>1253.22</ele>
        <time>2021-08-15T16:54:53Z</time>
      </trkpt>
      <trkpt lat="45.07639" lon="2.68192">
        <ele>1254.18</ele>
        <time>2021-08-15T16:55:01Z</time>
      </trkpt>
      <trkpt lat="45.07628" lon="2.68195">
        <ele>1255.14</ele>
        <time>2021-08-15T16:55:08Z</time>
      </trkpt>
      <trkpt lat="45.07613" lon="2.68199">
        <ele>1256.1</ele>
        <time>2021-08-15T16:55:17Z</time>
      </trkpt>
      <trkpt lat="45.07597" lon="2.6821">
        <ele>1256.58</ele>
        <time>2021-08-15T16:55:25Z</time>
      </trkpt>
      <trkpt lat="45.07584" lon="2.68218">
        <ele>1256.58</ele>
        <time>2021-08-15T16:55:30Z</time>
      </trkpt>
      <trkpt lat="45.0757" lon="2.68213">
        <ele>1256.58</ele>
        <time>2021-08-15T16:55:36Z</time>
      </trkpt>
      <trkpt lat="45.07556" lon="2.68202">
        <ele>1257.54</ele>
        <time>2021-08-15T16:55:44Z</time>
      </trkpt>
      <trkpt lat="45.0754" lon="2.68191">
        <ele>1258.5</ele>
        <time>2021-08-15T16:55:50Z</time>
      </trkpt>
      <trkpt lat="45.07527" lon="2.6818">
        <ele>1258.98</ele>
        <time>2021-08-15T16:55:56Z</time>
      </trkpt>
      <trkpt lat="45.07517" lon="2.6817">
        <ele>1259.94</ele>
        <time>2021-08-15T16:56:03Z</time>
      </trkpt>
      <trkpt lat="45.07513" lon="2.68167">
        <ele>1259.94</ele>
        <time>2021-08-15T16:56:06Z</time>
      </trkpt>
      <trkpt lat="45.07512" lon="2.68166">
        <ele>1260.91</ele>
        <time>2021-08-15T16:56:07Z</time>
      </trkpt>
      <trkpt lat="45.07511" lon="2.68165">
        <ele>1260.91</ele>
        <time>2021-08-15T16:56:08Z</time>
      </trkpt>
      <trkpt lat="45.0751" lon="2.68164">
        <ele>1260.91</ele>
        <time>2021-08-15T16:56:09Z</time>
      </trkpt>
      <trkpt lat="45.07508" lon="2.68162">
        <ele>1260.91</ele>
        <time>2021-08-15T16:56:10Z</time>
      </trkpt>
      <trkpt lat="45.07507" lon="2.68161">
        <ele>1260.91</ele>
        <time>2021-08-15T16:56:11Z</time>
      </trkpt>
      <trkpt lat="45.07505" lon="2.6816">
        <ele>1261.39</ele>
        <time>2021-08-15T16:56:12Z</time>
      </trkpt>
      <trkpt lat="45.07504" lon="2.68159">
        <ele>1260.91</ele>
        <time>2021-08-15T16:56:13Z</time>
      </trkpt>
      <trkpt lat="45.07497" lon="2.68152">
        <ele>1262.35</ele>
        <time>2021-08-15T16:56:20Z</time>
      </trkpt>
      <trkpt lat="45.07496" lon="2.68151">
        <ele>1262.35</ele>
        <time>2021-08-15T16:56:21Z</time>
      </trkpt>
      <trkpt lat="45.07494" lon="2.68141">
        <ele>1263.31</ele>
        <time>2021-08-15T16:56:27Z</time>
      </trkpt>
      <trkpt lat="45.0749" lon="2.68133">
        <ele>1264.75</ele>
        <time>2021-08-15T16:56:35Z</time>
      </trkpt>
      <trkpt lat="45.07487" lon="2.68125">
        <ele>1265.23</ele>
        <time>2021-08-15T16:56:43Z</time>
      </trkpt>
      <trkpt lat="45.07482" lon="2.68114">
        <ele>1266.67</ele>
        <time>2021-08-15T16:56:53Z</time>
      </trkpt>
      <trkpt lat="45.07477" lon="2.68104">
        <ele>1268.12</ele>
        <time>2021-08-15T16:57:03Z</time>
      </trkpt>
      <trkpt lat="45.07474" lon="2.68097">
        <ele>1269.08</ele>
        <time>2021-08-15T16:57:11Z</time>
      </trkpt>
      <trkpt lat="45.07469" lon="2.68088">
        <ele>1271</ele>
        <time>2021-08-15T16:57:20Z</time>
      </trkpt>
      <trkpt lat="45.07466" lon="2.68079">
        <ele>1271.96</ele>
        <time>2021-08-15T16:57:29Z</time>
      </trkpt>
      <trkpt lat="45.0746" lon="2.68072">
        <ele>1273.4</ele>
        <time>2021-08-15T16:57:38Z</time>
      </trkpt>
      <trkpt lat="45.07456" lon="2.68063">
        <ele>1274.36</ele>
        <time>2021-08-15T16:57:48Z</time>
      </trkpt>
      <trkpt lat="45.07452" lon="2.68054">
        <ele>1275.33</ele>
        <time>2021-08-15T16:57:56Z</time>
      </trkpt>
      <trkpt lat="45.07447" lon="2.68049">
        <ele>1276.77</ele>
        <time>2021-08-15T16:58:04Z</time>
      </trkpt>
      <trkpt lat="45.07441" lon="2.68043">
        <ele>1278.69</ele>
        <time>2021-08-15T16:58:13Z</time>
      </trkpt>
      <trkpt lat="45.07433" lon="2.68048">
        <ele>1279.65</ele>
        <time>2021-08-15T16:58:24Z</time>
      </trkpt>
      <trkpt lat="45.07427" lon="2.68055">
        <ele>1280.13</ele>
        <time>2021-08-15T16:58:31Z</time>
      </trkpt>
      <trkpt lat="45.07421" lon="2.68059">
        <ele>1280.61</ele>
        <time>2021-08-15T16:58:39Z</time>
      </trkpt>
      <trkpt lat="45.07418" lon="2.68063">
        <ele>1280.61</ele>
        <time>2021-08-15T16:58:49Z</time>
      </trkpt>
      <trkpt lat="45.0741" lon="2.68072">
        <ele>1280.61</ele>
        <time>2021-08-15T16:58:54Z</time>
      </trkpt>
      <trkpt lat="45.07397" lon="2.68086">
        <ele>1278.69</ele>
        <time>2021-08-15T16:58:58Z</time>
      </trkpt>
      <trkpt lat="45.07373" lon="2.68112">
        <ele>1275.81</ele>
        <time>2021-08-15T16:59:03Z</time>
      </trkpt>
      <trkpt lat="45.07355" lon="2.68139">
        <ele>1274.85</ele>
        <time>2021-08-15T16:59:07Z</time>
      </trkpt>
      <trkpt lat="45.07354" lon="2.68145">
        <ele>1274.85</ele>
        <time>2021-08-15T16:59:08Z</time>
      </trkpt>
      <trkpt lat="45.07353" lon="2.68159">
        <ele>1273.88</ele>
        <time>2021-08-15T16:59:10Z</time>
      </trkpt>
      <trkpt lat="45.07354" lon="2.68167">
        <ele>1273.4</ele>
        <time>2021-08-15T16:59:11Z</time>
      </trkpt>
      <trkpt lat="45.07364" lon="2.6821">
        <ele>1270.52</ele>
        <time>2021-08-15T16:59:16Z</time>
      </trkpt>
      <trkpt lat="45.07373" lon="2.68254">
        <ele>1270.04</ele>
        <time>2021-08-15T16:59:21Z</time>
      </trkpt>
      <trkpt lat="45.07373" lon="2.68261">
        <ele>1269.08</ele>
        <time>2021-08-15T16:59:22Z</time>
      </trkpt>
      <trkpt lat="45.07373" lon="2.68266">
        <ele>1269.08</ele>
        <time>2021-08-15T16:59:23Z</time>
      </trkpt>
      <trkpt lat="45.07372" lon="2.68271">
        <ele>1269.08</ele>
        <time>2021-08-15T16:59:24Z</time>
      </trkpt>
      <trkpt lat="45.07369" lon="2.68277">
        <ele>1268.12</ele>
        <time>2021-08-15T16:59:25Z</time>
      </trkpt>
      <trkpt lat="45.07367" lon="2.68283">
        <ele>1267.64</ele>
        <time>2021-08-15T16:59:26Z</time>
      </trkpt>
      <trkpt lat="45.07365" lon="2.68288">
        <ele>1267.64</ele>
        <time>2021-08-15T16:59:27Z</time>
      </trkpt>
      <trkpt lat="45.07362" lon="2.68294">
        <ele>1266.67</ele>
        <time>2021-08-15T16:59:28Z</time>
      </trkpt>
      <trkpt lat="45.07358" lon="2.68304">
        <ele>1266.67</ele>
        <time>2021-08-15T16:59:30Z</time>
      </trkpt>
      <trkpt lat="45.0735" lon="2.68322">
        <ele>1265.71</ele>
        <time>2021-08-15T16:59:33Z</time>
      </trkpt>
      <trkpt lat="45.07348" lon="2.68328">
        <ele>1264.75</ele>
        <time>2021-08-15T16:59:34Z</time>
      </trkpt>
      <trkpt lat="45.07346" lon="2.68337">
        <ele>1263.79</ele>
        <time>2021-08-15T16:59:35Z</time>
      </trkpt>
      <trkpt lat="45.07331" lon="2.68389">
        <ele>1260.43</ele>
        <time>2021-08-15T16:59:41Z</time>
      </trkpt>
      <trkpt lat="45.07327" lon="2.68395">
        <ele>1260.43</ele>
        <time>2021-08-15T16:59:42Z</time>
      </trkpt>
      <trkpt lat="45.07323" lon="2.684">
        <ele>1259.94</ele>
        <time>2021-08-15T16:59:43Z</time>
      </trkpt>
      <trkpt lat="45.07319" lon="2.68403">
        <ele>1259.94</ele>
        <time>2021-08-15T16:59:44Z</time>
      </trkpt>
      <trkpt lat="45.07315" lon="2.68404">
        <ele>1259.46</ele>
        <time>2021-08-15T16:59:45Z</time>
      </trkpt>
      <trkpt lat="45.0731" lon="2.68405">
        <ele>1258.98</ele>
        <time>2021-08-15T16:59:46Z</time>
      </trkpt>
      <trkpt lat="45.07305" lon="2.68405">
        <ele>1258.02</ele>
        <time>2021-08-15T16:59:47Z</time>
      </trkpt>
      <trkpt lat="45.07299" lon="2.68407">
        <ele>1257.54</ele>
        <time>2021-08-15T16:59:48Z</time>
      </trkpt>
      <trkpt lat="45.07283" lon="2.68414">
        <ele>1255.14</ele>
        <time>2021-08-15T16:59:51Z</time>
      </trkpt>
      <trkpt lat="45.07271" lon="2.68418">
        <ele>1254.66</ele>
        <time>2021-08-15T16:59:53Z</time>
      </trkpt>
      <trkpt lat="45.07265" lon="2.68419">
        <ele>1254.66</ele>
        <time>2021-08-15T16:59:54Z</time>
      </trkpt>
      <trkpt lat="45.07259" lon="2.6842">
        <ele>1255.14</ele>
        <time>2021-08-15T16:59:55Z</time>
      </trkpt>
      <trkpt lat="45.07254" lon="2.68421">
        <ele>1254.66</ele>
        <time>2021-08-15T16:59:56Z</time>
      </trkpt>
      <trkpt lat="45.07248" lon="2.68423">
        <ele>1254.66</ele>
        <time>2021-08-15T16:59:57Z</time>
      </trkpt>
      <trkpt lat="45.07242" lon="2.68425">
        <ele>1253.7</ele>
        <time>2021-08-15T16:59:58Z</time>
      </trkpt>
      <trkpt lat="45.0723" lon="2.68428">
        <ele>1253.7</ele>
        <time>2021-08-15T17:00:00Z</time>
      </trkpt>
      <trkpt lat="45.07224" lon="2.6843">
        <ele>1252.74</ele>
        <time>2021-08-15T17:00:01Z</time>
      </trkpt>
      <trkpt lat="45.07213" lon="2.68434">
        <ele>1251.29</ele>
        <time>2021-08-15T17:00:03Z</time>
      </trkpt>
      <trkpt lat="45.07208" lon="2.68432">
        <ele>1250.81</ele>
        <time>2021-08-15T17:00:04Z</time>
      </trkpt>
      <trkpt lat="45.07204" lon="2.68428">
        <ele>1250.33</ele>
        <time>2021-08-15T17:00:05Z</time>
      </trkpt>
      <trkpt lat="45.07201" lon="2.68421">
        <ele>1250.33</ele>
        <time>2021-08-15T17:00:06Z</time>
      </trkpt>
      <trkpt lat="45.07198" lon="2.68416">
        <ele>1248.89</ele>
        <time>2021-08-15T17:00:07Z</time>
      </trkpt>
      <trkpt lat="45.07194" lon="2.68412">
        <ele>1248.89</ele>
        <time>2021-08-15T17:00:08Z</time>
      </trkpt>
      <trkpt lat="45.07189" lon="2.68409">
        <ele>1248.41</ele>
        <time>2021-08-15T17:00:09Z</time>
      </trkpt>
      <trkpt lat="45.07183" lon="2.68405">
        <ele>1247.93</ele>
        <time>2021-08-15T17:00:10Z</time>
      </trkpt>
      <trkpt lat="45.07178" lon="2.684">
        <ele>1246.97</ele>
        <time>2021-08-15T17:00:11Z</time>
      </trkpt>
      <trkpt lat="45.07173" lon="2.68395">
        <ele>1246.97</ele>
        <time>2021-08-15T17:00:12Z</time>
      </trkpt>
      <trkpt lat="45.07167" lon="2.68389">
        <ele>1246.01</ele>
        <time>2021-08-15T17:00:13Z</time>
      </trkpt>
      <trkpt lat="45.07164" lon="2.68383">
        <ele>1246.01</ele>
        <time>2021-08-15T17:00:14Z</time>
      </trkpt>
      <trkpt lat="45.0716" lon="2.68375">
        <ele>1245.04</ele>
        <time>2021-08-15T17:00:15Z</time>
      </trkpt>
      <trkpt lat="45.07155" lon="2.68368">
        <ele>1244.56</ele>
        <time>2021-08-15T17:00:16Z</time>
      </trkpt>
      <trkpt lat="45.07151" lon="2.68362">
        <ele>1244.56</ele>
        <time>2021-08-15T17:00:17Z</time>
      </trkpt>
      <trkpt lat="45.07146" lon="2.68356">
        <ele>1244.08</ele>
        <time>2021-08-15T17:00:18Z</time>
      </trkpt>
      <trkpt lat="45.07141" lon="2.68351">
        <ele>1243.12</ele>
        <time>2021-08-15T17:00:19Z</time>
      </trkpt>
      <trkpt lat="45.07135" lon="2.68345">
        <ele>1242.16</ele>
        <time>2021-08-15T17:00:20Z</time>
      </trkpt>
      <trkpt lat="45.07115" lon="2.68332">
        <ele>1240.24</ele>
        <time>2021-08-15T17:00:23Z</time>
      </trkpt>
      <trkpt lat="45.07109" lon="2.6833">
        <ele>1240.24</ele>
        <time>2021-08-15T17:00:24Z</time>
      </trkpt>
      <trkpt lat="45.07096" lon="2.68328">
        <ele>1238.32</ele>
        <time>2021-08-15T17:00:26Z</time>
      </trkpt>
      <trkpt lat="45.07076" lon="2.68327">
        <ele>1235.91</ele>
        <time>2021-08-15T17:00:29Z</time>
      </trkpt>
      <trkpt lat="45.07063" lon="2.68329">
        <ele>1235.43</ele>
        <time>2021-08-15T17:00:31Z</time>
      </trkpt>
      <trkpt lat="45.07035" lon="2.68336">
        <ele>1233.51</ele>
        <time>2021-08-15T17:00:35Z</time>
      </trkpt>
      <trkpt lat="45.07008" lon="2.68349">
        <ele>1231.11</ele>
        <time>2021-08-15T17:00:39Z</time>
      </trkpt>
      <trkpt lat="45.06983" lon="2.68369">
        <ele>1227.74</ele>
        <time>2021-08-15T17:00:43Z</time>
      </trkpt>
      <trkpt lat="45.06977" lon="2.68373">
        <ele>1227.74</ele>
        <time>2021-08-15T17:00:44Z</time>
      </trkpt>
      <trkpt lat="45.06971" lon="2.68377">
        <ele>1226.78</ele>
        <time>2021-08-15T17:00:45Z</time>
      </trkpt>
      <trkpt lat="45.06964" lon="2.68379">
        <ele>1226.3</ele>
        <time>2021-08-15T17:00:46Z</time>
      </trkpt>
      <trkpt lat="45.06957" lon="2.6838">
        <ele>1226.3</ele>
        <time>2021-08-15T17:00:47Z</time>
      </trkpt>
      <trkpt lat="45.06934" lon="2.68382">
        <ele>1224.38</ele>
        <time>2021-08-15T17:00:51Z</time>
      </trkpt>
      <trkpt lat="45.06925" lon="2.68385">
        <ele>1224.86</ele>
        <time>2021-08-15T17:00:52Z</time>
      </trkpt>
      <trkpt lat="45.06919" lon="2.68388">
        <ele>1224.38</ele>
        <time>2021-08-15T17:00:53Z</time>
      </trkpt>
      <trkpt lat="45.06907" lon="2.68395">
        <ele>1223.42</ele>
        <time>2021-08-15T17:00:55Z</time>
      </trkpt>
      <trkpt lat="45.06902" lon="2.684">
        <ele>1223.42</ele>
        <time>2021-08-15T17:00:56Z</time>
      </trkpt>
      <trkpt lat="45.06896" lon="2.68405">
        <ele>1222.93</ele>
        <time>2021-08-15T17:00:57Z</time>
      </trkpt>
      <trkpt lat="45.06891" lon="2.6841">
        <ele>1222.93</ele>
        <time>2021-08-15T17:00:58Z</time>
      </trkpt>
      <trkpt lat="45.06887" lon="2.68415">
        <ele>1222.93</ele>
        <time>2021-08-15T17:00:59Z</time>
      </trkpt>
      <trkpt lat="45.06885" lon="2.68419">
        <ele>1222.93</ele>
        <time>2021-08-15T17:01:00Z</time>
      </trkpt>
      <trkpt lat="45.06882" lon="2.68424">
        <ele>1224.38</ele>
        <time>2021-08-15T17:01:01Z</time>
      </trkpt>
      <trkpt lat="45.06881" lon="2.68428">
        <ele>1224.38</ele>
        <time>2021-08-15T17:01:02Z</time>
      </trkpt>
      <trkpt lat="45.06879" lon="2.68432">
        <ele>1224.38</ele>
        <time>2021-08-15T17:01:03Z</time>
      </trkpt>
      <trkpt lat="45.06879" lon="2.68436">
        <ele>1224.38</ele>
        <time>2021-08-15T17:01:04Z</time>
      </trkpt>
      <trkpt lat="45.06878" lon="2.68439">
        <ele>1224.86</ele>
        <time>2021-08-15T17:01:05Z</time>
      </trkpt>
      <trkpt lat="45.06874" lon="2.68463">
        <ele>1225.82</ele>
        <time>2021-08-15T17:01:13Z</time>
      </trkpt>
      <trkpt lat="45.06875" lon="2.68495">
        <ele>1226.78</ele>
        <time>2021-08-15T17:01:21Z</time>
      </trkpt>
      <trkpt lat="45.06878" lon="2.68516">
        <ele>1228.22</ele>
        <time>2021-08-15T17:01:29Z</time>
      </trkpt>
      <trkpt lat="45.06878" lon="2.6853">
        <ele>1229.18</ele>
        <time>2021-08-15T17:01:36Z</time>
      </trkpt>
      <trkpt lat="45.06882" lon="2.68545">
        <ele>1230.14</ele>
        <time>2021-08-15T17:01:45Z</time>
      </trkpt>
      <trkpt lat="45.06885" lon="2.68557">
        <ele>1231.11</ele>
        <time>2021-08-15T17:01:52Z</time>
      </trkpt>
      <trkpt lat="45.06885" lon="2.68559">
        <ele>1231.11</ele>
        <time>2021-08-15T17:01:53Z</time>
      </trkpt>
      <trkpt lat="45.06886" lon="2.68561">
        <ele>1231.11</ele>
        <time>2021-08-15T17:01:54Z</time>
      </trkpt>
      <trkpt lat="45.06886" lon="2.68563">
        <ele>1231.59</ele>
        <time>2021-08-15T17:01:55Z</time>
      </trkpt>
      <trkpt lat="45.06887" lon="2.68565">
        <ele>1231.59</ele>
        <time>2021-08-15T17:01:56Z</time>
      </trkpt>
      <trkpt lat="45.06887" lon="2.68579">
        <ele>1232.07</ele>
        <time>2021-08-15T17:02:01Z</time>
      </trkpt>
      <trkpt lat="45.06881" lon="2.68604">
        <ele>1232.55</ele>
        <time>2021-08-15T17:02:09Z</time>
      </trkpt>
      <trkpt lat="45.06873" lon="2.68621">
        <ele>1232.55</ele>
        <time>2021-08-15T17:02:15Z</time>
      </trkpt>
      <trkpt lat="45.06866" lon="2.68632">
        <ele>1231.11</ele>
        <time>2021-08-15T17:02:18Z</time>
      </trkpt>
      <trkpt lat="45.06853" lon="2.6866">
        <ele>1229.66</ele>
        <time>2021-08-15T17:02:24Z</time>
      </trkpt>
      <trkpt lat="45.06838" lon="2.68694">
        <ele>1229.18</ele>
        <time>2021-08-15T17:02:30Z</time>
      </trkpt>
      <trkpt lat="45.06831" lon="2.6872">
        <ele>1227.26</ele>
        <time>2021-08-15T17:02:34Z</time>
      </trkpt>
      <trkpt lat="45.06831" lon="2.68727">
        <ele>1226.78</ele>
        <time>2021-08-15T17:02:35Z</time>
      </trkpt>
      <trkpt lat="45.06828" lon="2.68736">
        <ele>1226.78</ele>
        <time>2021-08-15T17:02:36Z</time>
      </trkpt>
      <trkpt lat="45.06825" lon="2.6874">
        <ele>1225.82</ele>
        <time>2021-08-15T17:02:37Z</time>
      </trkpt>
      <trkpt lat="45.06822" lon="2.68743">
        <ele>1225.82</ele>
        <time>2021-08-15T17:02:38Z</time>
      </trkpt>
      <trkpt lat="45.06819" lon="2.68744">
        <ele>1225.82</ele>
        <time>2021-08-15T17:02:39Z</time>
      </trkpt>
      <trkpt lat="45.06816" lon="2.68744">
        <ele>1227.26</ele>
        <time>2021-08-15T17:02:40Z</time>
      </trkpt>
      <trkpt lat="45.06815" lon="2.68745">
        <ele>1227.26</ele>
        <time>2021-08-15T17:02:41Z</time>
      </trkpt>
      <trkpt lat="45.06812" lon="2.68744">
        <ele>1228.22</ele>
        <time>2021-08-15T17:02:44Z</time>
      </trkpt>
      <trkpt lat="45.06805" lon="2.68736">
        <ele>1229.66</ele>
        <time>2021-08-15T17:02:52Z</time>
      </trkpt>
      <trkpt lat="45.06794" lon="2.68727">
        <ele>1230.62</ele>
        <time>2021-08-15T17:03:01Z</time>
      </trkpt>
      <trkpt lat="45.06784" lon="2.68715">
        <ele>1231.11</ele>
        <time>2021-08-15T17:03:09Z</time>
      </trkpt>
      <trkpt lat="45.06771" lon="2.68694">
        <ele>1231.11</ele>
        <time>2021-08-15T17:03:15Z</time>
      </trkpt>
      <trkpt lat="45.0676" lon="2.68683">
        <ele>1227.74</ele>
        <time>2021-08-15T17:03:18Z</time>
      </trkpt>
      <trkpt lat="45.06756" lon="2.68678">
        <ele>1227.74</ele>
        <time>2021-08-15T17:03:19Z</time>
      </trkpt>
      <trkpt lat="45.06755" lon="2.68672">
        <ele>1227.74</ele>
        <time>2021-08-15T17:03:20Z</time>
      </trkpt>
      <trkpt lat="45.06753" lon="2.68658">
        <ele>1230.62</ele>
        <time>2021-08-15T17:03:24Z</time>
      </trkpt>
      <trkpt lat="45.06751" lon="2.68639">
        <ele>1232.55</ele>
        <time>2021-08-15T17:03:32Z</time>
      </trkpt>
      <trkpt lat="45.0675" lon="2.68608">
        <ele>1233.51</ele>
        <time>2021-08-15T17:03:41Z</time>
      </trkpt>
      <trkpt lat="45.06741" lon="2.68573">
        <ele>1233.51</ele>
        <time>2021-08-15T17:03:48Z</time>
      </trkpt>
      <trkpt lat="45.06739" lon="2.6857">
        <ele>1233.51</ele>
        <time>2021-08-15T17:03:49Z</time>
      </trkpt>
      <trkpt lat="45.06737" lon="2.68568">
        <ele>1233.51</ele>
        <time>2021-08-15T17:03:50Z</time>
      </trkpt>
      <trkpt lat="45.06736" lon="2.68566">
        <ele>1233.51</ele>
        <time>2021-08-15T17:03:51Z</time>
      </trkpt>
      <trkpt lat="45.06734" lon="2.68564">
        <ele>1233.51</ele>
        <time>2021-08-15T17:03:52Z</time>
      </trkpt>
      <trkpt lat="45.06732" lon="2.68561">
        <ele>1233.51</ele>
        <time>2021-08-15T17:03:53Z</time>
      </trkpt>
      <trkpt lat="45.06721" lon="2.68545">
        <ele>1234.47</ele>
        <time>2021-08-15T17:04:00Z</time>
      </trkpt>
      <trkpt lat="45.06713" lon="2.68529">
        <ele>1235.43</ele>
        <time>2021-08-15T17:04:09Z</time>
      </trkpt>
      <trkpt lat="45.06707" lon="2.68515">
        <ele>1237.35</ele>
        <time>2021-08-15T17:04:18Z</time>
      </trkpt>
      <trkpt lat="45.06699" lon="2.68501">
        <ele>1238.8</ele>
        <time>2021-08-15T17:04:28Z</time>
      </trkpt>
      <trkpt lat="45.06693" lon="2.68494">
        <ele>1239.76</ele>
        <time>2021-08-15T17:04:34Z</time>
      </trkpt>
      <trkpt lat="45.06686" lon="2.68487">
        <ele>1240.72</ele>
        <time>2021-08-15T17:04:42Z</time>
      </trkpt>
      <trkpt lat="45.06685" lon="2.68486">
        <ele>1240.72</ele>
        <time>2021-08-15T17:04:43Z</time>
      </trkpt>
      <trkpt lat="45.06683" lon="2.68474">
        <ele>1242.16</ele>
        <time>2021-08-15T17:04:51Z</time>
      </trkpt>
      <trkpt lat="45.06681" lon="2.68463">
        <ele>1242.64</ele>
        <time>2021-08-15T17:04:58Z</time>
      </trkpt>
      <trkpt lat="45.0668" lon="2.68461">
        <ele>1242.64</ele>
        <time>2021-08-15T17:04:59Z</time>
      </trkpt>
      <trkpt lat="45.06676" lon="2.6845">
        <ele>1243.6</ele>
        <time>2021-08-15T17:05:07Z</time>
      </trkpt>
      <trkpt lat="45.06674" lon="2.68437">
        <ele>1244.56</ele>
        <time>2021-08-15T17:05:15Z</time>
      </trkpt>
      <trkpt lat="45.06668" lon="2.68425">
        <ele>1245.04</ele>
        <time>2021-08-15T17:05:22Z</time>
      </trkpt>
      <trkpt lat="45.06665" lon="2.68417">
        <ele>1246.49</ele>
        <time>2021-08-15T17:05:29Z</time>
      </trkpt>
      <trkpt lat="45.06658" lon="2.68407">
        <ele>1247.93</ele>
        <time>2021-08-15T17:05:38Z</time>
      </trkpt>
      <trkpt lat="45.06649" lon="2.68396">
        <ele>1248.89</ele>
        <time>2021-08-15T17:05:46Z</time>
      </trkpt>
      <trkpt lat="45.06645" lon="2.68387">
        <ele>1249.85</ele>
        <time>2021-08-15T17:05:52Z</time>
      </trkpt>
      <trkpt lat="45.06641" lon="2.68378">
        <ele>1250.81</ele>
        <time>2021-08-15T17:06:00Z</time>
      </trkpt>
      <trkpt lat="45.0664" lon="2.68377">
        <ele>1250.81</ele>
        <time>2021-08-15T17:06:01Z</time>
      </trkpt>
      <trkpt lat="45.0664" lon="2.68375">
        <ele>1250.81</ele>
        <time>2021-08-15T17:06:02Z</time>
      </trkpt>
      <trkpt lat="45.0664" lon="2.68374">
        <ele>1250.81</ele>
        <time>2021-08-15T17:06:03Z</time>
      </trkpt>
      <trkpt lat="45.06639" lon="2.68372">
        <ele>1251.29</ele>
        <time>2021-08-15T17:06:04Z</time>
      </trkpt>
      <trkpt lat="45.06639" lon="2.6837">
        <ele>1251.29</ele>
        <time>2021-08-15T17:06:05Z</time>
      </trkpt>
      <trkpt lat="45.06639" lon="2.68368">
        <ele>1251.29</ele>
        <time>2021-08-15T17:06:06Z</time>
      </trkpt>
      <trkpt lat="45.06633" lon="2.68356">
        <ele>1251.77</ele>
        <time>2021-08-15T17:06:14Z</time>
      </trkpt>
      <trkpt lat="45.0663" lon="2.68348">
        <ele>1252.25</ele>
        <time>2021-08-15T17:06:21Z</time>
      </trkpt>
      <trkpt lat="45.06621" lon="2.68335">
        <ele>1252.74</ele>
        <time>2021-08-15T17:06:29Z</time>
      </trkpt>
      <trkpt lat="45.0662" lon="2.68332">
        <ele>1252.74</ele>
        <time>2021-08-15T17:06:30Z</time>
      </trkpt>
      <trkpt lat="45.06618" lon="2.6833">
        <ele>1252.74</ele>
        <time>2021-08-15T17:06:31Z</time>
      </trkpt>
      <trkpt lat="45.06616" lon="2.68328">
        <ele>1252.74</ele>
        <time>2021-08-15T17:06:32Z</time>
      </trkpt>
      <trkpt lat="45.06615" lon="2.68325">
        <ele>1252.74</ele>
        <time>2021-08-15T17:06:33Z</time>
      </trkpt>
      <trkpt lat="45.06614" lon="2.68323">
        <ele>1252.74</ele>
        <time>2021-08-15T17:06:34Z</time>
      </trkpt>
      <trkpt lat="45.06613" lon="2.68321">
        <ele>1252.74</ele>
        <time>2021-08-15T17:06:35Z</time>
      </trkpt>
      <trkpt lat="45.06612" lon="2.68318">
        <ele>1252.74</ele>
        <time>2021-08-15T17:06:36Z</time>
      </trkpt>
      <trkpt lat="45.06611" lon="2.68315">
        <ele>1252.74</ele>
        <time>2021-08-15T17:06:37Z</time>
      </trkpt>
      <trkpt lat="45.0661" lon="2.68313">
        <ele>1252.74</ele>
        <time>2021-08-15T17:06:38Z</time>
      </trkpt>
      <trkpt lat="45.06605" lon="2.68291">
        <ele>1253.7</ele>
        <time>2021-08-15T17:06:45Z</time>
      </trkpt>
      <trkpt lat="45.06603" lon="2.68265">
        <ele>1254.18</ele>
        <time>2021-08-15T17:06:51Z</time>
      </trkpt>
      <trkpt lat="45.06598" lon="2.68229">
        <ele>1254.18</ele>
        <time>2021-08-15T17:06:58Z</time>
      </trkpt>
      <trkpt lat="45.06596" lon="2.68198">
        <ele>1254.18</ele>
        <time>2021-08-15T17:07:03Z</time>
      </trkpt>
      <trkpt lat="45.06595" lon="2.68192">
        <ele>1254.18</ele>
        <time>2021-08-15T17:07:04Z</time>
      </trkpt>
      <trkpt lat="45.06593" lon="2.68166">
        <ele>1254.18</ele>
        <time>2021-08-15T17:07:10Z</time>
      </trkpt>
      <trkpt lat="45.06598" lon="2.68143">
        <ele>1254.66</ele>
        <time>2021-08-15T17:07:16Z</time>
      </trkpt>
      <trkpt lat="45.06601" lon="2.68117">
        <ele>1253.22</ele>
        <time>2021-08-15T17:07:21Z</time>
      </trkpt>
      <trkpt lat="45.06602" lon="2.68104">
        <ele>1253.22</ele>
        <time>2021-08-15T17:07:23Z</time>
      </trkpt>
      <trkpt lat="45.06603" lon="2.68096">
        <ele>1252.74</ele>
        <time>2021-08-15T17:07:24Z</time>
      </trkpt>
      <trkpt lat="45.06603" lon="2.68082">
        <ele>1252.74</ele>
        <time>2021-08-15T17:07:28Z</time>
      </trkpt>
      <trkpt lat="45.06604" lon="2.68079">
        <ele>1253.22</ele>
        <time>2021-08-15T17:07:39Z</time>
      </trkpt>
      <trkpt lat="45.06603" lon="2.68078">
        <ele>1253.22</ele>
        <time>2021-08-15T17:07:55Z</time>
      </trkpt>
      <trkpt lat="45.06601" lon="2.68078">
        <ele>1253.22</ele>
        <time>2021-08-15T17:08:10Z</time>
      </trkpt>
      <trkpt lat="45.06602" lon="2.68078">
        <ele>1253.22</ele>
        <time>2021-08-15T17:08:25Z</time>
      </trkpt>
      <trkpt lat="45.066" lon="2.68075">
        <ele>1253.22</ele>
        <time>2021-08-15T17:08:36Z</time>
      </trkpt>
      <trkpt lat="45.06599" lon="2.68076">
        <ele>1253.22</ele>
        <time>2021-08-15T17:08:56Z</time>
      </trkpt>
      <trkpt lat="45.06602" lon="2.68076">
        <ele>1252.74</ele>
        <time>2021-08-15T17:09:19Z</time>
      </trkpt>
      <trkpt lat="45.06605" lon="2.6808">
        <ele>1252.74</ele>
        <time>2021-08-15T17:09:38Z</time>
      </trkpt>
      <trkpt lat="45.06605" lon="2.6808">
        <ele>1252.74</ele>
        <time>2021-08-15T17:09:53Z</time>
      </trkpt>
      <trkpt lat="45.06607" lon="2.68081">
        <ele>1252.74</ele>
        <time>2021-08-15T17:10:09Z</time>
      </trkpt>
      <trkpt lat="45.06608" lon="2.68081">
        <ele>1252.74</ele>
        <time>2021-08-15T17:10:24Z</time>
      </trkpt>
      <trkpt lat="45.06608" lon="2.68081">
        <ele>1252.74</ele>
        <time>2021-08-15T17:10:34Z</time>
      </trkpt>
      <trkpt lat="45.06607" lon="2.6808">
        <ele>1252.74</ele>
        <time>2021-08-15T17:10:52Z</time>
      </trkpt>
      <trkpt lat="45.06607" lon="2.68075">
        <ele>1252.74</ele>
        <time>2021-08-15T17:11:09Z</time>
      </trkpt>
      <trkpt lat="45.06607" lon="2.68075">
        <ele>1252.74</ele>
        <time>2021-08-15T17:11:23Z</time>
      </trkpt>
      <trkpt lat="45.06607" lon="2.68075">
        <ele>1252.74</ele>
        <time>2021-08-15T17:11:39Z</time>
      </trkpt>
      <trkpt lat="45.06604" lon="2.68074">
        <ele>1253.22</ele>
        <time>2021-08-15T17:12:00Z</time>
      </trkpt>
      <trkpt lat="45.06605" lon="2.68075">
        <ele>1253.22</ele>
        <time>2021-08-15T17:12:20Z</time>
      </trkpt>
      <trkpt lat="45.06605" lon="2.6807">
        <ele>1253.22</ele>
        <time>2021-08-15T17:12:42Z</time>
      </trkpt>
      <trkpt lat="45.06606" lon="2.68074">
        <ele>1253.22</ele>
        <time>2021-08-15T17:13:01Z</time>
      </trkpt>
      <trkpt lat="45.06608" lon="2.68078">
        <ele>1253.22</ele>
        <time>2021-08-15T17:13:20Z</time>
      </trkpt>
      <trkpt lat="45.06606" lon="2.68079">
        <ele>1253.22</ele>
        <time>2021-08-15T17:13:32Z</time>
      </trkpt>
      <trkpt lat="45.06604" lon="2.68078">
        <ele>1252.74</ele>
        <time>2021-08-15T17:13:46Z</time>
      </trkpt>
      <trkpt lat="45.06602" lon="2.68079">
        <ele>1252.74</ele>
        <time>2021-08-15T17:14:01Z</time>
      </trkpt>
      <trkpt lat="45.06601" lon="2.68079">
        <ele>1252.25</ele>
        <time>2021-08-15T17:14:13Z</time>
      </trkpt>
      <trkpt lat="45.06601" lon="2.68079">
        <ele>1252.25</ele>
        <time>2021-08-15T17:14:29Z</time>
      </trkpt>
      <trkpt lat="45.06603" lon="2.6808">
        <ele>1252.25</ele>
        <time>2021-08-15T17:14:42Z</time>
      </trkpt>
      <trkpt lat="45.06607" lon="2.68083">
        <ele>1252.25</ele>
        <time>2021-08-15T17:14:57Z</time>
      </trkpt>
      <trkpt lat="45.06607" lon="2.68081">
        <ele>1252.25</ele>
        <time>2021-08-15T17:15:16Z</time>
      </trkpt>
      <trkpt lat="45.06607" lon="2.68081">
        <ele>1252.25</ele>
        <time>2021-08-15T17:15:22Z</time>
      </trkpt>
      <trkpt lat="45.06605" lon="2.6808">
        <ele>1252.25</ele>
        <time>2021-08-15T17:15:28Z</time>
      </trkpt>
      <trkpt lat="45.06606" lon="2.68065">
        <ele>1252.25</ele>
        <time>2021-08-15T17:15:35Z</time>
      </trkpt>
      <trkpt lat="45.06606" lon="2.68041">
        <ele>1250.81</ele>
        <time>2021-08-15T17:15:40Z</time>
      </trkpt>
      <trkpt lat="45.0661" lon="2.6802">
        <ele>1252.25</ele>
        <time>2021-08-15T17:15:46Z</time>
      </trkpt>
      <trkpt lat="45.06613" lon="2.6801">
        <ele>1253.22</ele>
        <time>2021-08-15T17:15:52Z</time>
      </trkpt>
      <trkpt lat="45.06615" lon="2.68005">
        <ele>1253.7</ele>
        <time>2021-08-15T17:15:55Z</time>
      </trkpt>
      <trkpt lat="45.06618" lon="2.67985">
        <ele>1255.14</ele>
        <time>2021-08-15T17:16:03Z</time>
      </trkpt>
      <trkpt lat="45.06622" lon="2.67966">
        <ele>1256.1</ele>
        <time>2021-08-15T17:16:12Z</time>
      </trkpt>
      <trkpt lat="45.06625" lon="2.6795">
        <ele>1256.58</ele>
        <time>2021-08-15T17:16:19Z</time>
      </trkpt>
      <trkpt lat="45.06625" lon="2.67948">
        <ele>1256.58</ele>
        <time>2021-08-15T17:16:20Z</time>
      </trkpt>
      <trkpt lat="45.06626" lon="2.67946">
        <ele>1256.58</ele>
        <time>2021-08-15T17:16:21Z</time>
      </trkpt>
      <trkpt lat="45.06629" lon="2.67925">
        <ele>1257.54</ele>
        <time>2021-08-15T17:16:30Z</time>
      </trkpt>
      <trkpt lat="45.0663" lon="2.67908">
        <ele>1258.02</ele>
        <time>2021-08-15T17:16:39Z</time>
      </trkpt>
      <trkpt lat="45.06631" lon="2.67902">
        <ele>1258.5</ele>
        <time>2021-08-15T17:16:42Z</time>
      </trkpt>
      <trkpt lat="45.06631" lon="2.67895">
        <ele>1258.98</ele>
        <time>2021-08-15T17:16:46Z</time>
      </trkpt>
      <trkpt lat="45.06632" lon="2.67884">
        <ele>1259.46</ele>
        <time>2021-08-15T17:16:51Z</time>
      </trkpt>
      <trkpt lat="45.06631" lon="2.67883">
        <ele>1259.94</ele>
        <time>2021-08-15T17:16:52Z</time>
      </trkpt>
      <trkpt lat="45.0663" lon="2.67881">
        <ele>1259.94</ele>
        <time>2021-08-15T17:16:53Z</time>
      </trkpt>
      <trkpt lat="45.0663" lon="2.67879">
        <ele>1259.94</ele>
        <time>2021-08-15T17:16:54Z</time>
      </trkpt>
      <trkpt lat="45.06629" lon="2.67877">
        <ele>1260.43</ele>
        <time>2021-08-15T17:16:55Z</time>
      </trkpt>
      <trkpt lat="45.06623" lon="2.67862">
        <ele>1261.39</ele>
        <time>2021-08-15T17:17:04Z</time>
      </trkpt>
      <trkpt lat="45.06615" lon="2.67851">
        <ele>1262.35</ele>
        <time>2021-08-15T17:17:14Z</time>
      </trkpt>
      <trkpt lat="45.0661" lon="2.67844">
        <ele>1263.31</ele>
        <time>2021-08-15T17:17:21Z</time>
      </trkpt>
      <trkpt lat="45.0661" lon="2.67843">
        <ele>1263.31</ele>
        <time>2021-08-15T17:17:22Z</time>
      </trkpt>
      <trkpt lat="45.0661" lon="2.67841">
        <ele>1263.79</ele>
        <time>2021-08-15T17:17:23Z</time>
      </trkpt>
      <trkpt lat="45.0661" lon="2.67839">
        <ele>1263.79</ele>
        <time>2021-08-15T17:17:24Z</time>
      </trkpt>
      <trkpt lat="45.0661" lon="2.67837">
        <ele>1263.79</ele>
        <time>2021-08-15T17:17:25Z</time>
      </trkpt>
      <trkpt lat="45.06611" lon="2.6782">
        <ele>1264.27</ele>
        <time>2021-08-15T17:17:34Z</time>
      </trkpt>
      <trkpt lat="45.06614" lon="2.67812">
        <ele>1265.23</ele>
        <time>2021-08-15T17:17:42Z</time>
      </trkpt>
      <trkpt lat="45.06617" lon="2.67802">
        <ele>1266.67</ele>
        <time>2021-08-15T17:17:52Z</time>
      </trkpt>
      <trkpt lat="45.0662" lon="2.67793">
        <ele>1267.64</ele>
        <time>2021-08-15T17:18:01Z</time>
      </trkpt>
      <trkpt lat="45.06623" lon="2.67777">
        <ele>1268.6</ele>
        <time>2021-08-15T17:18:11Z</time>
      </trkpt>
      <trkpt lat="45.06627" lon="2.67767">
        <ele>1269.56</ele>
        <time>2021-08-15T17:18:19Z</time>
      </trkpt>
      <trkpt lat="45.06631" lon="2.67755">
        <ele>1270.52</ele>
        <time>2021-08-15T17:18:28Z</time>
      </trkpt>
      <trkpt lat="45.06634" lon="2.67744">
        <ele>1271.48</ele>
        <time>2021-08-15T17:18:36Z</time>
      </trkpt>
      <trkpt lat="45.0664" lon="2.67732">
        <ele>1272.44</ele>
        <time>2021-08-15T17:18:45Z</time>
      </trkpt>
      <trkpt lat="45.06646" lon="2.67721">
        <ele>1273.4</ele>
        <time>2021-08-15T17:18:55Z</time>
      </trkpt>
      <trkpt lat="45.0665" lon="2.67712">
        <ele>1274.36</ele>
        <time>2021-08-15T17:19:04Z</time>
      </trkpt>
      <trkpt lat="45.06652" lon="2.67704">
        <ele>1275.81</ele>
        <time>2021-08-15T17:19:13Z</time>
      </trkpt>
      <trkpt lat="45.06654" lon="2.67694">
        <ele>1276.29</ele>
        <time>2021-08-15T17:19:22Z</time>
      </trkpt>
      <trkpt lat="45.06657" lon="2.67687">
        <ele>1276.77</ele>
        <time>2021-08-15T17:19:30Z</time>
      </trkpt>
      <trkpt lat="45.06657" lon="2.67686">
        <ele>1276.77</ele>
        <time>2021-08-15T17:19:31Z</time>
      </trkpt>
      <trkpt lat="45.06659" lon="2.67681">
        <ele>1276.77</ele>
        <time>2021-08-15T17:19:33Z</time>
      </trkpt>
      <trkpt lat="45.06661" lon="2.67666">
        <ele>1277.73</ele>
        <time>2021-08-15T17:19:40Z</time>
      </trkpt>
      <trkpt lat="45.06663" lon="2.67655">
        <ele>1279.17</ele>
        <time>2021-08-15T17:19:49Z</time>
      </trkpt>
      <trkpt lat="45.06665" lon="2.67641">
        <ele>1280.61</ele>
        <time>2021-08-15T17:19:58Z</time>
      </trkpt>
      <trkpt lat="45.06667" lon="2.67627">
        <ele>1281.09</ele>
        <time>2021-08-15T17:20:05Z</time>
      </trkpt>
      <trkpt lat="45.06666" lon="2.67612">
        <ele>1281.57</ele>
        <time>2021-08-15T17:20:12Z</time>
      </trkpt>
      <trkpt lat="45.06667" lon="2.67601">
        <ele>1282.06</ele>
        <time>2021-08-15T17:20:19Z</time>
      </trkpt>
      <trkpt lat="45.06668" lon="2.67598">
        <ele>1282.06</ele>
        <time>2021-08-15T17:20:20Z</time>
      </trkpt>
      <trkpt lat="45.0667" lon="2.67581">
        <ele>1283.5</ele>
        <time>2021-08-15T17:20:30Z</time>
      </trkpt>
      <trkpt lat="45.06672" lon="2.67566">
        <ele>1284.94</ele>
        <time>2021-08-15T17:20:40Z</time>
      </trkpt>
      <trkpt lat="45.06673" lon="2.67551">
        <ele>1285.9</ele>
        <time>2021-08-15T17:20:48Z</time>
      </trkpt>
      <trkpt lat="45.06675" lon="2.67533">
        <ele>1287.34</ele>
        <time>2021-08-15T17:20:57Z</time>
      </trkpt>
      <trkpt lat="45.06679" lon="2.67523">
        <ele>1287.82</ele>
        <time>2021-08-15T17:21:01Z</time>
      </trkpt>
      <trkpt lat="45.0668" lon="2.67521">
        <ele>1287.82</ele>
        <time>2021-08-15T17:21:02Z</time>
      </trkpt>
      <trkpt lat="45.06681" lon="2.67519">
        <ele>1287.82</ele>
        <time>2021-08-15T17:21:03Z</time>
      </trkpt>
      <trkpt lat="45.06692" lon="2.67497">
        <ele>1288.3</ele>
        <time>2021-08-15T17:21:13Z</time>
      </trkpt>
      <trkpt lat="45.06702" lon="2.67483">
        <ele>1289.75</ele>
        <time>2021-08-15T17:21:20Z</time>
      </trkpt>
      <trkpt lat="45.06706" lon="2.67478">
        <ele>1289.75</ele>
        <time>2021-08-15T17:21:23Z</time>
      </trkpt>
      <trkpt lat="45.06716" lon="2.67467">
        <ele>1290.71</ele>
        <time>2021-08-15T17:21:31Z</time>
      </trkpt>
      <trkpt lat="45.06724" lon="2.67454">
        <ele>1291.67</ele>
        <time>2021-08-15T17:21:38Z</time>
      </trkpt>
      <trkpt lat="45.06731" lon="2.67441">
        <ele>1293.11</ele>
        <time>2021-08-15T17:21:46Z</time>
      </trkpt>
      <trkpt lat="45.06735" lon="2.67434">
        <ele>1294.55</ele>
        <time>2021-08-15T17:21:53Z</time>
      </trkpt>
      <trkpt lat="45.0674" lon="2.67425">
        <ele>1295.51</ele>
        <time>2021-08-15T17:22:02Z</time>
      </trkpt>
      <trkpt lat="45.06744" lon="2.67414">
        <ele>1296.96</ele>
        <time>2021-08-15T17:22:11Z</time>
      </trkpt>
      <trkpt lat="45.06747" lon="2.67404">
        <ele>1298.4</ele>
        <time>2021-08-15T17:22:19Z</time>
      </trkpt>
      <trkpt lat="45.06748" lon="2.67394">
        <ele>1299.36</ele>
        <time>2021-08-15T17:22:28Z</time>
      </trkpt>
      <trkpt lat="45.06751" lon="2.67374">
        <ele>1301.28</ele>
        <time>2021-08-15T17:22:40Z</time>
      </trkpt>
      <trkpt lat="45.06749" lon="2.67358">
        <ele>1302.24</ele>
        <time>2021-08-15T17:22:50Z</time>
      </trkpt>
      <trkpt lat="45.06749" lon="2.67352">
        <ele>1302.24</ele>
        <time>2021-08-15T17:22:57Z</time>
      </trkpt>
      <trkpt lat="45.06748" lon="2.67348">
        <ele>1302.24</ele>
        <time>2021-08-15T17:23:05Z</time>
      </trkpt>
      <trkpt lat="45.06737" lon="2.67329">
        <ele>1301.28</ele>
        <time>2021-08-15T17:23:11Z</time>
      </trkpt>
      <trkpt lat="45.06729" lon="2.67325">
        <ele>1300.32</ele>
        <time>2021-08-15T17:23:13Z</time>
      </trkpt>
      <trkpt lat="45.06725" lon="2.67324">
        <ele>1299.36</ele>
        <time>2021-08-15T17:23:14Z</time>
      </trkpt>
      <trkpt lat="45.06721" lon="2.67323">
        <ele>1298.88</ele>
        <time>2021-08-15T17:23:15Z</time>
      </trkpt>
      <trkpt lat="45.06713" lon="2.67321">
        <ele>1297.92</ele>
        <time>2021-08-15T17:23:17Z</time>
      </trkpt>
      <trkpt lat="45.06709" lon="2.6732">
        <ele>1296.96</ele>
        <time>2021-08-15T17:23:18Z</time>
      </trkpt>
      <trkpt lat="45.06705" lon="2.67317">
        <ele>1296.48</ele>
        <time>2021-08-15T17:23:19Z</time>
      </trkpt>
      <trkpt lat="45.06702" lon="2.67315">
        <ele>1295.99</ele>
        <time>2021-08-15T17:23:20Z</time>
      </trkpt>
      <trkpt lat="45.06694" lon="2.67309">
        <ele>1294.55</ele>
        <time>2021-08-15T17:23:22Z</time>
      </trkpt>
      <trkpt lat="45.06691" lon="2.67305">
        <ele>1294.55</ele>
        <time>2021-08-15T17:23:23Z</time>
      </trkpt>
      <trkpt lat="45.06687" lon="2.67301">
        <ele>1293.59</ele>
        <time>2021-08-15T17:23:24Z</time>
      </trkpt>
      <trkpt lat="45.06683" lon="2.67298">
        <ele>1293.11</ele>
        <time>2021-08-15T17:23:25Z</time>
      </trkpt>
      <trkpt lat="45.0668" lon="2.67295">
        <ele>1293.11</ele>
        <time>2021-08-15T17:23:26Z</time>
      </trkpt>
      <trkpt lat="45.06667" lon="2.67286">
        <ele>1291.19</ele>
        <time>2021-08-15T17:23:29Z</time>
      </trkpt>
      <trkpt lat="45.06664" lon="2.67283">
        <ele>1291.19</ele>
        <time>2021-08-15T17:23:30Z</time>
      </trkpt>
      <trkpt lat="45.0664" lon="2.67264">
        <ele>1287.34</ele>
        <time>2021-08-15T17:23:37Z</time>
      </trkpt>
      <trkpt lat="45.06633" lon="2.67259">
        <ele>1286.86</ele>
        <time>2021-08-15T17:23:39Z</time>
      </trkpt>
      <trkpt lat="45.06617" lon="2.67248">
        <ele>1283.5</ele>
        <time>2021-08-15T17:23:43Z</time>
      </trkpt>
      <trkpt lat="45.06613" lon="2.67244">
        <ele>1283.02</ele>
        <time>2021-08-15T17:23:44Z</time>
      </trkpt>
      <trkpt lat="45.06605" lon="2.67236">
        <ele>1281.57</ele>
        <time>2021-08-15T17:23:46Z</time>
      </trkpt>
      <trkpt lat="45.06601" lon="2.67231">
        <ele>1281.09</ele>
        <time>2021-08-15T17:23:47Z</time>
      </trkpt>
      <trkpt lat="45.06596" lon="2.67226">
        <ele>1280.13</ele>
        <time>2021-08-15T17:23:48Z</time>
      </trkpt>
      <trkpt lat="45.06592" lon="2.67221">
        <ele>1279.65</ele>
        <time>2021-08-15T17:23:49Z</time>
      </trkpt>
      <trkpt lat="45.06588" lon="2.67217">
        <ele>1278.69</ele>
        <time>2021-08-15T17:23:50Z</time>
      </trkpt>
      <trkpt lat="45.06575" lon="2.67206">
        <ele>1277.73</ele>
        <time>2021-08-15T17:23:53Z</time>
      </trkpt>
      <trkpt lat="45.06565" lon="2.67192">
        <ele>1275.81</ele>
        <time>2021-08-15T17:23:56Z</time>
      </trkpt>
      <trkpt lat="45.06562" lon="2.67186">
        <ele>1275.33</ele>
        <time>2021-08-15T17:23:57Z</time>
      </trkpt>
      <trkpt lat="45.06559" lon="2.67181">
        <ele>1274.36</ele>
        <time>2021-08-15T17:23:58Z</time>
      </trkpt>
      <trkpt lat="45.06556" lon="2.67177">
        <ele>1274.36</ele>
        <time>2021-08-15T17:23:59Z</time>
      </trkpt>
      <trkpt lat="45.06552" lon="2.67173">
        <ele>1273.88</ele>
        <time>2021-08-15T17:24:00Z</time>
      </trkpt>
      <trkpt lat="45.0655" lon="2.67168">
        <ele>1273.4</ele>
        <time>2021-08-15T17:24:01Z</time>
      </trkpt>
      <trkpt lat="45.06541" lon="2.67155">
        <ele>1271.96</ele>
        <time>2021-08-15T17:24:04Z</time>
      </trkpt>
      <trkpt lat="45.06536" lon="2.67151">
        <ele>1271.48</ele>
        <time>2021-08-15T17:24:05Z</time>
      </trkpt>
      <trkpt lat="45.06528" lon="2.67143">
        <ele>1270.52</ele>
        <time>2021-08-15T17:24:07Z</time>
      </trkpt>
      <trkpt lat="45.06523" lon="2.67141">
        <ele>1270.04</ele>
        <time>2021-08-15T17:24:08Z</time>
      </trkpt>
      <trkpt lat="45.06518" lon="2.67138">
        <ele>1269.56</ele>
        <time>2021-08-15T17:24:09Z</time>
      </trkpt>
      <trkpt lat="45.06497" lon="2.67127">
        <ele>1266.67</ele>
        <time>2021-08-15T17:24:13Z</time>
      </trkpt>
      <trkpt lat="45.06492" lon="2.67125">
        <ele>1265.71</ele>
        <time>2021-08-15T17:24:14Z</time>
      </trkpt>
      <trkpt lat="45.06481" lon="2.67124">
        <ele>1264.27</ele>
        <time>2021-08-15T17:24:16Z</time>
      </trkpt>
      <trkpt lat="45.06476" lon="2.67121">
        <ele>1263.31</ele>
        <time>2021-08-15T17:24:17Z</time>
      </trkpt>
      <trkpt lat="45.06471" lon="2.67117">
        <ele>1263.31</ele>
        <time>2021-08-15T17:24:18Z</time>
      </trkpt>
      <trkpt lat="45.06467" lon="2.67112">
        <ele>1263.31</ele>
        <time>2021-08-15T17:24:19Z</time>
      </trkpt>
      <trkpt lat="45.06463" lon="2.67106">
        <ele>1262.83</ele>
        <time>2021-08-15T17:24:20Z</time>
      </trkpt>
      <trkpt lat="45.06457" lon="2.67101">
        <ele>1261.87</ele>
        <time>2021-08-15T17:24:21Z</time>
      </trkpt>
      <trkpt lat="45.06452" lon="2.67097">
        <ele>1261.39</ele>
        <time>2021-08-15T17:24:22Z</time>
      </trkpt>
      <trkpt lat="45.06446" lon="2.67094">
        <ele>1260.91</ele>
        <time>2021-08-15T17:24:23Z</time>
      </trkpt>
      <trkpt lat="45.0644" lon="2.67091">
        <ele>1259.94</ele>
        <time>2021-08-15T17:24:24Z</time>
      </trkpt>
      <trkpt lat="45.06419" lon="2.67081">
        <ele>1258.02</ele>
        <time>2021-08-15T17:24:28Z</time>
      </trkpt>
      <trkpt lat="45.06401" lon="2.67068">
        <ele>1256.58</ele>
        <time>2021-08-15T17:24:32Z</time>
      </trkpt>
      <trkpt lat="45.06375" lon="2.67058">
        <ele>1253.7</ele>
        <time>2021-08-15T17:24:39Z</time>
      </trkpt>
      <trkpt lat="45.06365" lon="2.67068">
        <ele>1253.22</ele>
        <time>2021-08-15T17:24:42Z</time>
      </trkpt>
      <trkpt lat="45.06362" lon="2.67074">
        <ele>1252.74</ele>
        <time>2021-08-15T17:24:43Z</time>
      </trkpt>
      <trkpt lat="45.06358" lon="2.67086">
        <ele>1251.77</ele>
        <time>2021-08-15T17:24:45Z</time>
      </trkpt>
      <trkpt lat="45.06349" lon="2.67111">
        <ele>1250.81</ele>
        <time>2021-08-15T17:24:49Z</time>
      </trkpt>
      <trkpt lat="45.06346" lon="2.67116">
        <ele>1249.85</ele>
        <time>2021-08-15T17:24:50Z</time>
      </trkpt>
      <trkpt lat="45.06344" lon="2.67122">
        <ele>1249.37</ele>
        <time>2021-08-15T17:24:51Z</time>
      </trkpt>
      <trkpt lat="45.06342" lon="2.67128">
        <ele>1248.89</ele>
        <time>2021-08-15T17:24:52Z</time>
      </trkpt>
      <trkpt lat="45.0634" lon="2.67133">
        <ele>1248.41</ele>
        <time>2021-08-15T17:24:53Z</time>
      </trkpt>
      <trkpt lat="45.06338" lon="2.67138">
        <ele>1248.41</ele>
        <time>2021-08-15T17:24:54Z</time>
      </trkpt>
      <trkpt lat="45.06335" lon="2.67142">
        <ele>1247.93</ele>
        <time>2021-08-15T17:24:55Z</time>
      </trkpt>
      <trkpt lat="45.06332" lon="2.67144">
        <ele>1247.93</ele>
        <time>2021-08-15T17:24:56Z</time>
      </trkpt>
      <trkpt lat="45.06329" lon="2.67145">
        <ele>1247.45</ele>
        <time>2021-08-15T17:24:57Z</time>
      </trkpt>
      <trkpt lat="45.06327" lon="2.67144">
        <ele>1247.45</ele>
        <time>2021-08-15T17:24:58Z</time>
      </trkpt>
      <trkpt lat="45.06325" lon="2.67144">
        <ele>1247.45</ele>
        <time>2021-08-15T17:24:59Z</time>
      </trkpt>
      <trkpt lat="45.06323" lon="2.67144">
        <ele>1247.45</ele>
        <time>2021-08-15T17:25:00Z</time>
      </trkpt>
      <trkpt lat="45.06322" lon="2.67146">
        <ele>1247.45</ele>
        <time>2021-08-15T17:25:01Z</time>
      </trkpt>
      <trkpt lat="45.06317" lon="2.67158">
        <ele>1248.89</ele>
        <time>2021-08-15T17:25:09Z</time>
      </trkpt>
      <trkpt lat="45.06312" lon="2.67173">
        <ele>1250.33</ele>
        <time>2021-08-15T17:25:17Z</time>
      </trkpt>
      <trkpt lat="45.06309" lon="2.67187">
        <ele>1251.29</ele>
        <time>2021-08-15T17:25:25Z</time>
      </trkpt>
      <trkpt lat="45.06309" lon="2.67189">
        <ele>1251.29</ele>
        <time>2021-08-15T17:25:26Z</time>
      </trkpt>
      <trkpt lat="45.06309" lon="2.6719">
        <ele>1251.77</ele>
        <time>2021-08-15T17:25:27Z</time>
      </trkpt>
      <trkpt lat="45.06308" lon="2.67192">
        <ele>1251.77</ele>
        <time>2021-08-15T17:25:28Z</time>
      </trkpt>
      <trkpt lat="45.06308" lon="2.67194">
        <ele>1251.77</ele>
        <time>2021-08-15T17:25:29Z</time>
      </trkpt>
      <trkpt lat="45.06306" lon="2.67195">
        <ele>1251.77</ele>
        <time>2021-08-15T17:25:30Z</time>
      </trkpt>
      <trkpt lat="45.06305" lon="2.67196">
        <ele>1252.25</ele>
        <time>2021-08-15T17:25:31Z</time>
      </trkpt>
      <trkpt lat="45.06292" lon="2.67208">
        <ele>1254.18</ele>
        <time>2021-08-15T17:25:41Z</time>
      </trkpt>
      <trkpt lat="45.06283" lon="2.67213">
        <ele>1255.14</ele>
        <time>2021-08-15T17:25:48Z</time>
      </trkpt>
      <trkpt lat="45.06272" lon="2.67216">
        <ele>1255.62</ele>
        <time>2021-08-15T17:25:56Z</time>
      </trkpt>
      <trkpt lat="45.06257" lon="2.67218">
        <ele>1257.54</ele>
        <time>2021-08-15T17:26:07Z</time>
      </trkpt>
      <trkpt lat="45.06245" lon="2.67221">
        <ele>1258.98</ele>
        <time>2021-08-15T17:26:16Z</time>
      </trkpt>
      <trkpt lat="45.06243" lon="2.67221">
        <ele>1258.98</ele>
        <time>2021-08-15T17:26:18Z</time>
      </trkpt>
      <trkpt lat="45.06241" lon="2.67221">
        <ele>1258.98</ele>
        <time>2021-08-15T17:26:19Z</time>
      </trkpt>
      <trkpt lat="45.0624" lon="2.6722">
        <ele>1259.46</ele>
        <time>2021-08-15T17:26:20Z</time>
      </trkpt>
      <trkpt lat="45.06239" lon="2.67221">
        <ele>1259.46</ele>
        <time>2021-08-15T17:26:21Z</time>
      </trkpt>
      <trkpt lat="45.06237" lon="2.67221">
        <ele>1259.46</ele>
        <time>2021-08-15T17:26:22Z</time>
      </trkpt>
      <trkpt lat="45.06236" lon="2.67221">
        <ele>1259.94</ele>
        <time>2021-08-15T17:26:23Z</time>
      </trkpt>
      <trkpt lat="45.06235" lon="2.67221">
        <ele>1259.94</ele>
        <time>2021-08-15T17:26:24Z</time>
      </trkpt>
      <trkpt lat="45.06233" lon="2.67221">
        <ele>1259.94</ele>
        <time>2021-08-15T17:26:25Z</time>
      </trkpt>
      <trkpt lat="45.06232" lon="2.67221">
        <ele>1260.43</ele>
        <time>2021-08-15T17:26:26Z</time>
      </trkpt>
      <trkpt lat="45.06231" lon="2.67221">
        <ele>1260.43</ele>
        <time>2021-08-15T17:26:27Z</time>
      </trkpt>
      <trkpt lat="45.0623" lon="2.67221">
        <ele>1260.91</ele>
        <time>2021-08-15T17:26:28Z</time>
      </trkpt>
      <trkpt lat="45.06228" lon="2.67221">
        <ele>1260.91</ele>
        <time>2021-08-15T17:26:29Z</time>
      </trkpt>
      <trkpt lat="45.06227" lon="2.67222">
        <ele>1260.91</ele>
        <time>2021-08-15T17:26:30Z</time>
      </trkpt>
      <trkpt lat="45.06209" lon="2.67231">
        <ele>1262.83</ele>
        <time>2021-08-15T17:26:42Z</time>
      </trkpt>
      <trkpt lat="45.06199" lon="2.67246">
        <ele>1264.27</ele>
        <time>2021-08-15T17:26:52Z</time>
      </trkpt>
      <trkpt lat="45.06193" lon="2.67266">
        <ele>1266.19</ele>
        <time>2021-08-15T17:27:04Z</time>
      </trkpt>
      <trkpt lat="45.06191" lon="2.67281">
        <ele>1267.16</ele>
        <time>2021-08-15T17:27:13Z</time>
      </trkpt>
      <trkpt lat="45.0619" lon="2.67294">
        <ele>1269.08</ele>
        <time>2021-08-15T17:27:20Z</time>
      </trkpt>
      <trkpt lat="45.06183" lon="2.67312">
        <ele>1271</ele>
        <time>2021-08-15T17:27:31Z</time>
      </trkpt>
      <trkpt lat="45.06172" lon="2.67324">
        <ele>1272.92</ele>
        <time>2021-08-15T17:27:41Z</time>
      </trkpt>
      <trkpt lat="45.06163" lon="2.67333">
        <ele>1273.88</ele>
        <time>2021-08-15T17:27:49Z</time>
      </trkpt>
      <trkpt lat="45.06151" lon="2.67352">
        <ele>1275.81</ele>
        <time>2021-08-15T17:28:00Z</time>
      </trkpt>
      <trkpt lat="45.06141" lon="2.67372">
        <ele>1277.73</ele>
        <time>2021-08-15T17:28:11Z</time>
      </trkpt>
      <trkpt lat="45.06133" lon="2.67391">
        <ele>1278.69</ele>
        <time>2021-08-15T17:28:21Z</time>
      </trkpt>
      <trkpt lat="45.06118" lon="2.67406">
        <ele>1280.13</ele>
        <time>2021-08-15T17:28:32Z</time>
      </trkpt>
      <trkpt lat="45.06101" lon="2.67409">
        <ele>1281.57</ele>
        <time>2021-08-15T17:28:43Z</time>
      </trkpt>
      <trkpt lat="45.06087" lon="2.67418">
        <ele>1283.5</ele>
        <time>2021-08-15T17:28:53Z</time>
      </trkpt>
      <trkpt lat="45.06074" lon="2.67426">
        <ele>1284.94</ele>
        <time>2021-08-15T17:29:02Z</time>
      </trkpt>
      <trkpt lat="45.0606" lon="2.67433">
        <ele>1286.38</ele>
        <time>2021-08-15T17:29:12Z</time>
      </trkpt>
      <trkpt lat="45.06048" lon="2.67435">
        <ele>1287.82</ele>
        <time>2021-08-15T17:29:20Z</time>
      </trkpt>
      <trkpt lat="45.06035" lon="2.67435">
        <ele>1289.27</ele>
        <time>2021-08-15T17:29:29Z</time>
      </trkpt>
      <trkpt lat="45.06018" lon="2.6744">
        <ele>1291.19</ele>
        <time>2021-08-15T17:29:40Z</time>
      </trkpt>
      <trkpt lat="45.06001" lon="2.67444">
        <ele>1293.11</ele>
        <time>2021-08-15T17:29:50Z</time>
      </trkpt>
      <trkpt lat="45.05987" lon="2.67442">
        <ele>1295.03</ele>
        <time>2021-08-15T17:30:00Z</time>
      </trkpt>
      <trkpt lat="45.05974" lon="2.67436">
        <ele>1295.99</ele>
        <time>2021-08-15T17:30:09Z</time>
      </trkpt>
      <trkpt lat="45.05956" lon="2.67423">
        <ele>1297.92</ele>
        <time>2021-08-15T17:30:22Z</time>
      </trkpt>
      <trkpt lat="45.05953" lon="2.67418">
        <ele>1298.88</ele>
        <time>2021-08-15T17:30:25Z</time>
      </trkpt>
      <trkpt lat="45.05952" lon="2.67417">
        <ele>1299.36</ele>
        <time>2021-08-15T17:30:26Z</time>
      </trkpt>
      <trkpt lat="45.05944" lon="2.67404">
        <ele>1300.8</ele>
        <time>2021-08-15T17:30:34Z</time>
      </trkpt>
      <trkpt lat="45.05942" lon="2.67402">
        <ele>1301.28</ele>
        <time>2021-08-15T17:30:35Z</time>
      </trkpt>
      <trkpt lat="45.05941" lon="2.674">
        <ele>1301.28</ele>
        <time>2021-08-15T17:30:36Z</time>
      </trkpt>
      <trkpt lat="45.05941" lon="2.67398">
        <ele>1301.28</ele>
        <time>2021-08-15T17:30:37Z</time>
      </trkpt>
      <trkpt lat="45.0594" lon="2.67396">
        <ele>1301.28</ele>
        <time>2021-08-15T17:30:38Z</time>
      </trkpt>
      <trkpt lat="45.0594" lon="2.67394">
        <ele>1301.76</ele>
        <time>2021-08-15T17:30:39Z</time>
      </trkpt>
      <trkpt lat="45.05939" lon="2.67392">
        <ele>1301.76</ele>
        <time>2021-08-15T17:30:40Z</time>
      </trkpt>
      <trkpt lat="45.05939" lon="2.6739">
        <ele>1302.24</ele>
        <time>2021-08-15T17:30:41Z</time>
      </trkpt>
      <trkpt lat="45.05938" lon="2.67387">
        <ele>1302.24</ele>
        <time>2021-08-15T17:30:42Z</time>
      </trkpt>
      <trkpt lat="45.05938" lon="2.67385">
        <ele>1302.24</ele>
        <time>2021-08-15T17:30:43Z</time>
      </trkpt>
      <trkpt lat="45.05933" lon="2.67364">
        <ele>1303.2</ele>
        <time>2021-08-15T17:30:53Z</time>
      </trkpt>
      <trkpt lat="45.05929" lon="2.6735">
        <ele>1305.61</ele>
        <time>2021-08-15T17:31:00Z</time>
      </trkpt>
      <trkpt lat="45.05922" lon="2.67334">
        <ele>1307.05</ele>
        <time>2021-08-15T17:31:09Z</time>
      </trkpt>
      <trkpt lat="45.05912" lon="2.67321">
        <ele>1308.49</ele>
        <time>2021-08-15T17:31:19Z</time>
      </trkpt>
      <trkpt lat="45.05902" lon="2.67313">
        <ele>1309.93</ele>
        <time>2021-08-15T17:31:27Z</time>
      </trkpt>
      <trkpt lat="45.05889" lon="2.67312">
        <ele>1311.38</ele>
        <time>2021-08-15T17:31:36Z</time>
      </trkpt>
      <trkpt lat="45.05877" lon="2.67315">
        <ele>1312.34</ele>
        <time>2021-08-15T17:31:44Z</time>
      </trkpt>
      <trkpt lat="45.0586" lon="2.67322">
        <ele>1313.78</ele>
        <time>2021-08-15T17:31:53Z</time>
      </trkpt>
      <trkpt lat="45.05841" lon="2.67331">
        <ele>1314.74</ele>
        <time>2021-08-15T17:32:03Z</time>
      </trkpt>
      <trkpt lat="45.05821" lon="2.67347">
        <ele>1316.66</ele>
        <time>2021-08-15T17:32:13Z</time>
      </trkpt>
      <trkpt lat="45.0581" lon="2.67367">
        <ele>1317.62</ele>
        <time>2021-08-15T17:32:22Z</time>
      </trkpt>
      <trkpt lat="45.05809" lon="2.67388">
        <ele>1317.62</ele>
        <time>2021-08-15T17:32:29Z</time>
      </trkpt>
      <trkpt lat="45.0581" lon="2.6741">
        <ele>1316.18</ele>
        <time>2021-08-15T17:32:33Z</time>
      </trkpt>
      <trkpt lat="45.05811" lon="2.67417">
        <ele>1315.7</ele>
        <time>2021-08-15T17:32:34Z</time>
      </trkpt>
      <trkpt lat="45.05825" lon="2.67466">
        <ele>1312.82</ele>
        <time>2021-08-15T17:32:40Z</time>
      </trkpt>
      <trkpt lat="45.0584" lon="2.675">
        <ele>1310.41</ele>
        <time>2021-08-15T17:32:44Z</time>
      </trkpt>
      <trkpt lat="45.05845" lon="2.67507">
        <ele>1310.41</ele>
        <time>2021-08-15T17:32:45Z</time>
      </trkpt>
      <trkpt lat="45.05849" lon="2.67513">
        <ele>1309.93</ele>
        <time>2021-08-15T17:32:46Z</time>
      </trkpt>
      <trkpt lat="45.05855" lon="2.6752">
        <ele>1309.93</ele>
        <time>2021-08-15T17:32:47Z</time>
      </trkpt>
      <trkpt lat="45.0586" lon="2.67525">
        <ele>1308.97</ele>
        <time>2021-08-15T17:32:48Z</time>
      </trkpt>
      <trkpt lat="45.05865" lon="2.6753">
        <ele>1308.49</ele>
        <time>2021-08-15T17:32:49Z</time>
      </trkpt>
      <trkpt lat="45.05883" lon="2.67547">
        <ele>1306.57</ele>
        <time>2021-08-15T17:32:52Z</time>
      </trkpt>
      <trkpt lat="45.05888" lon="2.67556">
        <ele>1305.61</ele>
        <time>2021-08-15T17:32:53Z</time>
      </trkpt>
      <trkpt lat="45.05891" lon="2.67565">
        <ele>1305.13</ele>
        <time>2021-08-15T17:32:54Z</time>
      </trkpt>
      <trkpt lat="45.05894" lon="2.67577">
        <ele>1304.17</ele>
        <time>2021-08-15T17:32:55Z</time>
      </trkpt>
      <trkpt lat="45.05895" lon="2.67589">
        <ele>1303.69</ele>
        <time>2021-08-15T17:32:56Z</time>
      </trkpt>
      <trkpt lat="45.05896" lon="2.676">
        <ele>1302.72</ele>
        <time>2021-08-15T17:32:57Z</time>
      </trkpt>
      <trkpt lat="45.05897" lon="2.67613">
        <ele>1302.24</ele>
        <time>2021-08-15T17:32:58Z</time>
      </trkpt>
      <trkpt lat="45.05898" lon="2.67625">
        <ele>1301.76</ele>
        <time>2021-08-15T17:32:59Z</time>
      </trkpt>
      <trkpt lat="45.059" lon="2.67637">
        <ele>1301.76</ele>
        <time>2021-08-15T17:33:00Z</time>
      </trkpt>
      <trkpt lat="45.05905" lon="2.67649">
        <ele>1300.8</ele>
        <time>2021-08-15T17:33:01Z</time>
      </trkpt>
      <trkpt lat="45.05909" lon="2.6766">
        <ele>1299.84</ele>
        <time>2021-08-15T17:33:02Z</time>
      </trkpt>
      <trkpt lat="45.05914" lon="2.67671">
        <ele>1299.36</ele>
        <time>2021-08-15T17:33:03Z</time>
      </trkpt>
      <trkpt lat="45.05938" lon="2.6772">
        <ele>1295.99</ele>
        <time>2021-08-15T17:33:07Z</time>
      </trkpt>
      <trkpt lat="45.05963" lon="2.67768">
        <ele>1291.67</ele>
        <time>2021-08-15T17:33:11Z</time>
      </trkpt>
      <trkpt lat="45.05974" lon="2.67796">
        <ele>1289.75</ele>
        <time>2021-08-15T17:33:13Z</time>
      </trkpt>
      <trkpt lat="45.05978" lon="2.67811">
        <ele>1288.3</ele>
        <time>2021-08-15T17:33:14Z</time>
      </trkpt>
      <trkpt lat="45.05981" lon="2.67827">
        <ele>1287.34</ele>
        <time>2021-08-15T17:33:15Z</time>
      </trkpt>
      <trkpt lat="45.05982" lon="2.67843">
        <ele>1286.38</ele>
        <time>2021-08-15T17:33:16Z</time>
      </trkpt>
      <trkpt lat="45.05982" lon="2.67859">
        <ele>1285.42</ele>
        <time>2021-08-15T17:33:17Z</time>
      </trkpt>
      <trkpt lat="45.05981" lon="2.67876">
        <ele>1284.94</ele>
        <time>2021-08-15T17:33:18Z</time>
      </trkpt>
      <trkpt lat="45.05981" lon="2.67905">
        <ele>1283.5</ele>
        <time>2021-08-15T17:33:20Z</time>
      </trkpt>
      <trkpt lat="45.05982" lon="2.67918">
        <ele>1282.54</ele>
        <time>2021-08-15T17:33:21Z</time>
      </trkpt>
      <trkpt lat="45.05985" lon="2.67933">
        <ele>1282.06</ele>
        <time>2021-08-15T17:33:22Z</time>
      </trkpt>
      <trkpt lat="45.05987" lon="2.67944">
        <ele>1281.09</ele>
        <time>2021-08-15T17:33:23Z</time>
      </trkpt>
      <trkpt lat="45.05992" lon="2.67954">
        <ele>1280.61</ele>
        <time>2021-08-15T17:33:24Z</time>
      </trkpt>
      <trkpt lat="45.05999" lon="2.67962">
        <ele>1279.65</ele>
        <time>2021-08-15T17:33:25Z</time>
      </trkpt>
      <trkpt lat="45.06007" lon="2.67969">
        <ele>1278.69</ele>
        <time>2021-08-15T17:33:26Z</time>
      </trkpt>
      <trkpt lat="45.06016" lon="2.67973">
        <ele>1277.73</ele>
        <time>2021-08-15T17:33:27Z</time>
      </trkpt>
      <trkpt lat="45.06025" lon="2.67978">
        <ele>1277.25</ele>
        <time>2021-08-15T17:33:28Z</time>
      </trkpt>
      <trkpt lat="45.06033" lon="2.67983">
        <ele>1276.77</ele>
        <time>2021-08-15T17:33:29Z</time>
      </trkpt>
      <trkpt lat="45.06041" lon="2.6799">
        <ele>1276.77</ele>
        <time>2021-08-15T17:33:30Z</time>
      </trkpt>
      <trkpt lat="45.06045" lon="2.67998">
        <ele>1276.29</ele>
        <time>2021-08-15T17:33:31Z</time>
      </trkpt>
      <trkpt lat="45.06047" lon="2.68008">
        <ele>1276.29</ele>
        <time>2021-08-15T17:33:32Z</time>
      </trkpt>
      <trkpt lat="45.06046" lon="2.68017">
        <ele>1275.81</ele>
        <time>2021-08-15T17:33:33Z</time>
      </trkpt>
      <trkpt lat="45.06042" lon="2.68026">
        <ele>1275.81</ele>
        <time>2021-08-15T17:33:34Z</time>
      </trkpt>
      <trkpt lat="45.06037" lon="2.68033">
        <ele>1275.33</ele>
        <time>2021-08-15T17:33:35Z</time>
      </trkpt>
      <trkpt lat="45.06031" lon="2.68039">
        <ele>1274.85</ele>
        <time>2021-08-15T17:33:36Z</time>
      </trkpt>
      <trkpt lat="45.0601" lon="2.68055">
        <ele>1272.92</ele>
        <time>2021-08-15T17:33:39Z</time>
      </trkpt>
      <trkpt lat="45.06002" lon="2.68059">
        <ele>1271.96</ele>
        <time>2021-08-15T17:33:40Z</time>
      </trkpt>
      <trkpt lat="45.05992" lon="2.68062">
        <ele>1271</ele>
        <time>2021-08-15T17:33:41Z</time>
      </trkpt>
      <trkpt lat="45.05984" lon="2.68066">
        <ele>1270.04</ele>
        <time>2021-08-15T17:33:42Z</time>
      </trkpt>
      <trkpt lat="45.05976" lon="2.68071">
        <ele>1269.08</ele>
        <time>2021-08-15T17:33:43Z</time>
      </trkpt>
      <trkpt lat="45.05968" lon="2.6808">
        <ele>1268.12</ele>
        <time>2021-08-15T17:33:44Z</time>
      </trkpt>
      <trkpt lat="45.05963" lon="2.6809">
        <ele>1266.67</ele>
        <time>2021-08-15T17:33:45Z</time>
      </trkpt>
      <trkpt lat="45.05957" lon="2.68104">
        <ele>1266.19</ele>
        <time>2021-08-15T17:33:46Z</time>
      </trkpt>
      <trkpt lat="45.05955" lon="2.68115">
        <ele>1265.71</ele>
        <time>2021-08-15T17:33:47Z</time>
      </trkpt>
      <trkpt lat="45.05952" lon="2.68129">
        <ele>1265.71</ele>
        <time>2021-08-15T17:33:48Z</time>
      </trkpt>
      <trkpt lat="45.05951" lon="2.68143">
        <ele>1264.75</ele>
        <time>2021-08-15T17:33:49Z</time>
      </trkpt>
      <trkpt lat="45.0595" lon="2.68154">
        <ele>1264.27</ele>
        <time>2021-08-15T17:33:50Z</time>
      </trkpt>
      <trkpt lat="45.0595" lon="2.68168">
        <ele>1263.31</ele>
        <time>2021-08-15T17:33:51Z</time>
      </trkpt>
      <trkpt lat="45.05952" lon="2.6818">
        <ele>1262.35</ele>
        <time>2021-08-15T17:33:52Z</time>
      </trkpt>
      <trkpt lat="45.05955" lon="2.68192">
        <ele>1261.87</ele>
        <time>2021-08-15T17:33:53Z</time>
      </trkpt>
      <trkpt lat="45.05959" lon="2.68205">
        <ele>1260.91</ele>
        <time>2021-08-15T17:33:54Z</time>
      </trkpt>
      <trkpt lat="45.05965" lon="2.68216">
        <ele>1259.94</ele>
        <time>2021-08-15T17:33:55Z</time>
      </trkpt>
      <trkpt lat="45.05972" lon="2.68226">
        <ele>1259.46</ele>
        <time>2021-08-15T17:33:56Z</time>
      </trkpt>
      <trkpt lat="45.05978" lon="2.68236">
        <ele>1258.98</ele>
        <time>2021-08-15T17:33:57Z</time>
      </trkpt>
      <trkpt lat="45.05985" lon="2.68245">
        <ele>1258.5</ele>
        <time>2021-08-15T17:33:58Z</time>
      </trkpt>
      <trkpt lat="45.06" lon="2.68264">
        <ele>1257.54</ele>
        <time>2021-08-15T17:34:00Z</time>
      </trkpt>
      <trkpt lat="45.06023" lon="2.68303">
        <ele>1255.14</ele>
        <time>2021-08-15T17:34:04Z</time>
      </trkpt>
      <trkpt lat="45.06027" lon="2.68314">
        <ele>1255.14</ele>
        <time>2021-08-15T17:34:05Z</time>
      </trkpt>
      <trkpt lat="45.06029" lon="2.68327">
        <ele>1254.18</ele>
        <time>2021-08-15T17:34:06Z</time>
      </trkpt>
      <trkpt lat="45.06031" lon="2.6834">
        <ele>1253.22</ele>
        <time>2021-08-15T17:34:07Z</time>
      </trkpt>
      <trkpt lat="45.06031" lon="2.68353">
        <ele>1252.74</ele>
        <time>2021-08-15T17:34:08Z</time>
      </trkpt>
      <trkpt lat="45.0603" lon="2.68367">
        <ele>1251.77</ele>
        <time>2021-08-15T17:34:09Z</time>
      </trkpt>
      <trkpt lat="45.06029" lon="2.6838">
        <ele>1251.29</ele>
        <time>2021-08-15T17:34:10Z</time>
      </trkpt>
      <trkpt lat="45.06027" lon="2.68391">
        <ele>1250.81</ele>
        <time>2021-08-15T17:34:11Z</time>
      </trkpt>
      <trkpt lat="45.06023" lon="2.68403">
        <ele>1250.33</ele>
        <time>2021-08-15T17:34:12Z</time>
      </trkpt>
      <trkpt lat="45.06017" lon="2.68411">
        <ele>1249.85</ele>
        <time>2021-08-15T17:34:13Z</time>
      </trkpt>
      <trkpt lat="45.0601" lon="2.68416">
        <ele>1248.89</ele>
        <time>2021-08-15T17:34:14Z</time>
      </trkpt>
      <trkpt lat="45.06002" lon="2.68418">
        <ele>1248.89</ele>
        <time>2021-08-15T17:34:15Z</time>
      </trkpt>
      <trkpt lat="45.05994" lon="2.68417">
        <ele>1248.41</ele>
        <time>2021-08-15T17:34:16Z</time>
      </trkpt>
      <trkpt lat="45.05985" lon="2.68415">
        <ele>1247.93</ele>
        <time>2021-08-15T17:34:17Z</time>
      </trkpt>
      <trkpt lat="45.05976" lon="2.68413">
        <ele>1247.45</ele>
        <time>2021-08-15T17:34:18Z</time>
      </trkpt>
      <trkpt lat="45.05967" lon="2.68413">
        <ele>1246.97</ele>
        <time>2021-08-15T17:34:19Z</time>
      </trkpt>
      <trkpt lat="45.05958" lon="2.68415">
        <ele>1245.04</ele>
        <time>2021-08-15T17:34:20Z</time>
      </trkpt>
      <trkpt lat="45.05948" lon="2.68418">
        <ele>1244.08</ele>
        <time>2021-08-15T17:34:21Z</time>
      </trkpt>
      <trkpt lat="45.05939" lon="2.68422">
        <ele>1243.12</ele>
        <time>2021-08-15T17:34:22Z</time>
      </trkpt>
      <trkpt lat="45.0593" lon="2.68427">
        <ele>1241.68</ele>
        <time>2021-08-15T17:34:23Z</time>
      </trkpt>
      <trkpt lat="45.0592" lon="2.68434">
        <ele>1240.72</ele>
        <time>2021-08-15T17:34:24Z</time>
      </trkpt>
      <trkpt lat="45.05911" lon="2.68442">
        <ele>1239.28</ele>
        <time>2021-08-15T17:34:25Z</time>
      </trkpt>
      <trkpt lat="45.05902" lon="2.68451">
        <ele>1238.8</ele>
        <time>2021-08-15T17:34:26Z</time>
      </trkpt>
      <trkpt lat="45.05895" lon="2.68461">
        <ele>1238.32</ele>
        <time>2021-08-15T17:34:27Z</time>
      </trkpt>
      <trkpt lat="45.0589" lon="2.68473">
        <ele>1237.35</ele>
        <time>2021-08-15T17:34:28Z</time>
      </trkpt>
      <trkpt lat="45.05886" lon="2.68484">
        <ele>1236.87</ele>
        <time>2021-08-15T17:34:29Z</time>
      </trkpt>
      <trkpt lat="45.05883" lon="2.68496">
        <ele>1236.87</ele>
        <time>2021-08-15T17:34:30Z</time>
      </trkpt>
      <trkpt lat="45.0588" lon="2.68505">
        <ele>1235.91</ele>
        <time>2021-08-15T17:34:31Z</time>
      </trkpt>
      <trkpt lat="45.05875" lon="2.68511">
        <ele>1235.43</ele>
        <time>2021-08-15T17:34:32Z</time>
      </trkpt>
      <trkpt lat="45.05868" lon="2.68513">
        <ele>1234.47</ele>
        <time>2021-08-15T17:34:33Z</time>
      </trkpt>
      <trkpt lat="45.05862" lon="2.68511">
        <ele>1233.99</ele>
        <time>2021-08-15T17:34:34Z</time>
      </trkpt>
      <trkpt lat="45.05856" lon="2.68506">
        <ele>1233.51</ele>
        <time>2021-08-15T17:34:35Z</time>
      </trkpt>
      <trkpt lat="45.0585" lon="2.68499">
        <ele>1233.03</ele>
        <time>2021-08-15T17:34:36Z</time>
      </trkpt>
      <trkpt lat="45.05843" lon="2.68493">
        <ele>1232.55</ele>
        <time>2021-08-15T17:34:37Z</time>
      </trkpt>
      <trkpt lat="45.05836" lon="2.68488">
        <ele>1231.59</ele>
        <time>2021-08-15T17:34:38Z</time>
      </trkpt>
      <trkpt lat="45.05828" lon="2.68486">
        <ele>1230.14</ele>
        <time>2021-08-15T17:34:39Z</time>
      </trkpt>
      <trkpt lat="45.05817" lon="2.68486">
        <ele>1229.18</ele>
        <time>2021-08-15T17:34:40Z</time>
      </trkpt>
      <trkpt lat="45.05808" lon="2.68488">
        <ele>1227.74</ele>
        <time>2021-08-15T17:34:41Z</time>
      </trkpt>
      <trkpt lat="45.05798" lon="2.68491">
        <ele>1226.78</ele>
        <time>2021-08-15T17:34:42Z</time>
      </trkpt>
      <trkpt lat="45.05789" lon="2.68496">
        <ele>1225.82</ele>
        <time>2021-08-15T17:34:43Z</time>
      </trkpt>
      <trkpt lat="45.05779" lon="2.68504">
        <ele>1224.86</ele>
        <time>2021-08-15T17:34:44Z</time>
      </trkpt>
      <trkpt lat="45.05772" lon="2.68515">
        <ele>1224.38</ele>
        <time>2021-08-15T17:34:45Z</time>
      </trkpt>
      <trkpt lat="45.05765" lon="2.68525">
        <ele>1223.9</ele>
        <time>2021-08-15T17:34:46Z</time>
      </trkpt>
      <trkpt lat="45.05759" lon="2.68534">
        <ele>1222.93</ele>
        <time>2021-08-15T17:34:47Z</time>
      </trkpt>
      <trkpt lat="45.05751" lon="2.68539">
        <ele>1221.97</ele>
        <time>2021-08-15T17:34:48Z</time>
      </trkpt>
      <trkpt lat="45.05743" lon="2.68539">
        <ele>1221.01</ele>
        <time>2021-08-15T17:34:49Z</time>
      </trkpt>
      <trkpt lat="45.05734" lon="2.68535">
        <ele>1221.01</ele>
        <time>2021-08-15T17:34:50Z</time>
      </trkpt>
      <trkpt lat="45.05726" lon="2.6853">
        <ele>1221.01</ele>
        <time>2021-08-15T17:34:51Z</time>
      </trkpt>
      <trkpt lat="45.05718" lon="2.68523">
        <ele>1220.53</ele>
        <time>2021-08-15T17:34:52Z</time>
      </trkpt>
      <trkpt lat="45.05711" lon="2.68517">
        <ele>1219.09</ele>
        <time>2021-08-15T17:34:53Z</time>
      </trkpt>
      <trkpt lat="45.05694" lon="2.68503">
        <ele>1218.13</ele>
        <time>2021-08-15T17:34:55Z</time>
      </trkpt>
      <trkpt lat="45.05661" lon="2.68475">
        <ele>1216.21</ele>
        <time>2021-08-15T17:34:59Z</time>
      </trkpt>
      <trkpt lat="45.05608" lon="2.68442">
        <ele>1213.32</ele>
        <time>2021-08-15T17:35:05Z</time>
      </trkpt>
      <trkpt lat="45.05599" lon="2.6844">
        <ele>1212.36</ele>
        <time>2021-08-15T17:35:06Z</time>
      </trkpt>
      <trkpt lat="45.05588" lon="2.68438">
        <ele>1212.36</ele>
        <time>2021-08-15T17:35:07Z</time>
      </trkpt>
      <trkpt lat="45.05578" lon="2.68438">
        <ele>1211.88</ele>
        <time>2021-08-15T17:35:08Z</time>
      </trkpt>
      <trkpt lat="45.05569" lon="2.6844">
        <ele>1211.4</ele>
        <time>2021-08-15T17:35:09Z</time>
      </trkpt>
      <trkpt lat="45.05559" lon="2.68443">
        <ele>1211.4</ele>
        <time>2021-08-15T17:35:10Z</time>
      </trkpt>
      <trkpt lat="45.05549" lon="2.68448">
        <ele>1211.4</ele>
        <time>2021-08-15T17:35:11Z</time>
      </trkpt>
      <trkpt lat="45.0554" lon="2.68455">
        <ele>1210.44</ele>
        <time>2021-08-15T17:35:12Z</time>
      </trkpt>
      <trkpt lat="45.05531" lon="2.68463">
        <ele>1209.96</ele>
        <time>2021-08-15T17:35:13Z</time>
      </trkpt>
      <trkpt lat="45.05522" lon="2.68474">
        <ele>1209</ele>
        <time>2021-08-15T17:35:14Z</time>
      </trkpt>
      <trkpt lat="45.05515" lon="2.68485">
        <ele>1208.03</ele>
        <time>2021-08-15T17:35:15Z</time>
      </trkpt>
      <trkpt lat="45.05508" lon="2.68498">
        <ele>1207.07</ele>
        <time>2021-08-15T17:35:16Z</time>
      </trkpt>
      <trkpt lat="45.05484" lon="2.6853">
        <ele>1205.15</ele>
        <time>2021-08-15T17:35:19Z</time>
      </trkpt>
      <trkpt lat="45.05475" lon="2.68538">
        <ele>1204.67</ele>
        <time>2021-08-15T17:35:20Z</time>
      </trkpt>
      <trkpt lat="45.05466" lon="2.68545">
        <ele>1204.67</ele>
        <time>2021-08-15T17:35:21Z</time>
      </trkpt>
      <trkpt lat="45.05455" lon="2.68551">
        <ele>1203.71</ele>
        <time>2021-08-15T17:35:22Z</time>
      </trkpt>
      <trkpt lat="45.05446" lon="2.68556">
        <ele>1203.23</ele>
        <time>2021-08-15T17:35:23Z</time>
      </trkpt>
      <trkpt lat="45.05436" lon="2.6856">
        <ele>1202.75</ele>
        <time>2021-08-15T17:35:24Z</time>
      </trkpt>
      <trkpt lat="45.05428" lon="2.68562">
        <ele>1202.75</ele>
        <time>2021-08-15T17:35:25Z</time>
      </trkpt>
      <trkpt lat="45.05419" lon="2.68566">
        <ele>1201.79</ele>
        <time>2021-08-15T17:35:26Z</time>
      </trkpt>
      <trkpt lat="45.05403" lon="2.68574">
        <ele>1200.82</ele>
        <time>2021-08-15T17:35:28Z</time>
      </trkpt>
      <trkpt lat="45.05396" lon="2.68582">
        <ele>1199.38</ele>
        <time>2021-08-15T17:35:29Z</time>
      </trkpt>
      <trkpt lat="45.05385" lon="2.68599">
        <ele>1197.46</ele>
        <time>2021-08-15T17:35:31Z</time>
      </trkpt>
      <trkpt lat="45.05381" lon="2.68611">
        <ele>1196.02</ele>
        <time>2021-08-15T17:35:32Z</time>
      </trkpt>
      <trkpt lat="45.05378" lon="2.68625">
        <ele>1195.06</ele>
        <time>2021-08-15T17:35:33Z</time>
      </trkpt>
      <trkpt lat="45.05368" lon="2.68665">
        <ele>1191.21</ele>
        <time>2021-08-15T17:35:36Z</time>
      </trkpt>
      <trkpt lat="45.05356" lon="2.687">
        <ele>1187.37</ele>
        <time>2021-08-15T17:35:39Z</time>
      </trkpt>
      <trkpt lat="45.0535" lon="2.68711">
        <ele>1185.92</ele>
        <time>2021-08-15T17:35:40Z</time>
      </trkpt>
      <trkpt lat="45.05341" lon="2.6872">
        <ele>1184.96</ele>
        <time>2021-08-15T17:35:41Z</time>
      </trkpt>
      <trkpt lat="45.05332" lon="2.68728">
        <ele>1184</ele>
        <time>2021-08-15T17:35:42Z</time>
      </trkpt>
      <trkpt lat="45.05323" lon="2.68734">
        <ele>1184.48</ele>
        <time>2021-08-15T17:35:43Z</time>
      </trkpt>
      <trkpt lat="45.05308" lon="2.68749">
        <ele>1184</ele>
        <time>2021-08-15T17:35:45Z</time>
      </trkpt>
      <trkpt lat="45.05302" lon="2.68757">
        <ele>1184</ele>
        <time>2021-08-15T17:35:46Z</time>
      </trkpt>
      <trkpt lat="45.05296" lon="2.68765">
        <ele>1184</ele>
        <time>2021-08-15T17:35:47Z</time>
      </trkpt>
      <trkpt lat="45.05289" lon="2.68773">
        <ele>1184.96</ele>
        <time>2021-08-15T17:35:48Z</time>
      </trkpt>
      <trkpt lat="45.05283" lon="2.68779">
        <ele>1185.44</ele>
        <time>2021-08-15T17:35:49Z</time>
      </trkpt>
      <trkpt lat="45.05277" lon="2.68783">
        <ele>1185.44</ele>
        <time>2021-08-15T17:35:50Z</time>
      </trkpt>
      <trkpt lat="45.0527" lon="2.68786">
        <ele>1186.4</ele>
        <time>2021-08-15T17:35:51Z</time>
      </trkpt>
      <trkpt lat="45.05264" lon="2.68789">
        <ele>1186.4</ele>
        <time>2021-08-15T17:35:52Z</time>
      </trkpt>
      <trkpt lat="45.05257" lon="2.68792">
        <ele>1186.4</ele>
        <time>2021-08-15T17:35:53Z</time>
      </trkpt>
      <trkpt lat="45.05251" lon="2.68796">
        <ele>1186.88</ele>
        <time>2021-08-15T17:35:54Z</time>
      </trkpt>
      <trkpt lat="45.05246" lon="2.68801">
        <ele>1187.85</ele>
        <time>2021-08-15T17:35:55Z</time>
      </trkpt>
      <trkpt lat="45.05242" lon="2.68806">
        <ele>1187.85</ele>
        <time>2021-08-15T17:35:56Z</time>
      </trkpt>
      <trkpt lat="45.05238" lon="2.68812">
        <ele>1187.85</ele>
        <time>2021-08-15T17:35:57Z</time>
      </trkpt>
      <trkpt lat="45.05235" lon="2.68817">
        <ele>1187.85</ele>
        <time>2021-08-15T17:35:58Z</time>
      </trkpt>
      <trkpt lat="45.05232" lon="2.68823">
        <ele>1187.85</ele>
        <time>2021-08-15T17:35:59Z</time>
      </trkpt>
      <trkpt lat="45.0523" lon="2.68829">
        <ele>1187.85</ele>
        <time>2021-08-15T17:36:00Z</time>
      </trkpt>
      <trkpt lat="45.05228" lon="2.68835">
        <ele>1187.85</ele>
        <time>2021-08-15T17:36:01Z</time>
      </trkpt>
      <trkpt lat="45.05227" lon="2.68841">
        <ele>1187.85</ele>
        <time>2021-08-15T17:36:02Z</time>
      </trkpt>
      <trkpt lat="45.05227" lon="2.68846">
        <ele>1187.85</ele>
        <time>2021-08-15T17:36:03Z</time>
      </trkpt>
      <trkpt lat="45.05223" lon="2.68882">
        <ele>1188.81</ele>
        <time>2021-08-15T17:36:11Z</time>
      </trkpt>
      <trkpt lat="45.05218" lon="2.68925">
        <ele>1189.77</ele>
        <time>2021-08-15T17:36:19Z</time>
      </trkpt>
      <trkpt lat="45.05217" lon="2.68965">
        <ele>1186.4</ele>
        <time>2021-08-15T17:36:24Z</time>
      </trkpt>
      <trkpt lat="45.05223" lon="2.69031">
        <ele>1183.04</ele>
        <time>2021-08-15T17:36:30Z</time>
      </trkpt>
      <trkpt lat="45.0523" lon="2.69075">
        <ele>1184.96</ele>
        <time>2021-08-15T17:36:35Z</time>
      </trkpt>
      <trkpt lat="45.05231" lon="2.6908">
        <ele>1185.92</ele>
        <time>2021-08-15T17:36:36Z</time>
      </trkpt>
      <trkpt lat="45.05233" lon="2.69086">
        <ele>1186.4</ele>
        <time>2021-08-15T17:36:37Z</time>
      </trkpt>
      <trkpt lat="45.05241" lon="2.69112">
        <ele>1188.33</ele>
        <time>2021-08-15T17:36:44Z</time>
      </trkpt>
      <trkpt lat="45.05249" lon="2.69139">
        <ele>1188.81</ele>
        <time>2021-08-15T17:36:52Z</time>
      </trkpt>
      <trkpt lat="45.05254" lon="2.69169">
        <ele>1190.25</ele>
        <time>2021-08-15T17:37:02Z</time>
      </trkpt>
      <trkpt lat="45.05253" lon="2.69193">
        <ele>1191.69</ele>
        <time>2021-08-15T17:37:11Z</time>
      </trkpt>
      <trkpt lat="45.05247" lon="2.69224">
        <ele>1193.61</ele>
        <time>2021-08-15T17:37:22Z</time>
      </trkpt>
      <trkpt lat="45.05246" lon="2.69256">
        <ele>1193.61</ele>
        <time>2021-08-15T17:37:30Z</time>
      </trkpt>
      <trkpt lat="45.0525" lon="2.69282">
        <ele>1193.61</ele>
        <time>2021-08-15T17:37:35Z</time>
      </trkpt>
      <trkpt lat="45.05251" lon="2.69288">
        <ele>1193.61</ele>
        <time>2021-08-15T17:37:36Z</time>
      </trkpt>
      <trkpt lat="45.05254" lon="2.693">
        <ele>1193.61</ele>
        <time>2021-08-15T17:37:38Z</time>
      </trkpt>
      <trkpt lat="45.05257" lon="2.69306">
        <ele>1193.61</ele>
        <time>2021-08-15T17:37:39Z</time>
      </trkpt>
      <trkpt lat="45.05262" lon="2.69317">
        <ele>1192.17</ele>
        <time>2021-08-15T17:37:41Z</time>
      </trkpt>
      <trkpt lat="45.05265" lon="2.69322">
        <ele>1192.17</ele>
        <time>2021-08-15T17:37:42Z</time>
      </trkpt>
      <trkpt lat="45.05269" lon="2.69327">
        <ele>1192.17</ele>
        <time>2021-08-15T17:37:43Z</time>
      </trkpt>
      <trkpt lat="45.05287" lon="2.69349">
        <ele>1190.73</ele>
        <time>2021-08-15T17:37:48Z</time>
      </trkpt>
      <trkpt lat="45.05296" lon="2.69357">
        <ele>1190.73</ele>
        <time>2021-08-15T17:37:50Z</time>
      </trkpt>
      <trkpt lat="45.053" lon="2.69362">
        <ele>1190.25</ele>
        <time>2021-08-15T17:37:51Z</time>
      </trkpt>
      <trkpt lat="45.05333" lon="2.69404">
        <ele>1187.37</ele>
        <time>2021-08-15T17:37:58Z</time>
      </trkpt>
      <trkpt lat="45.05356" lon="2.69437">
        <ele>1184</ele>
        <time>2021-08-15T17:38:02Z</time>
      </trkpt>
      <trkpt lat="45.05372" lon="2.69467">
        <ele>1181.12</ele>
        <time>2021-08-15T17:38:05Z</time>
      </trkpt>
      <trkpt lat="45.05376" lon="2.69478">
        <ele>1181.6</ele>
        <time>2021-08-15T17:38:06Z</time>
      </trkpt>
      <trkpt lat="45.05396" lon="2.69545">
        <ele>1180.16</ele>
        <time>2021-08-15T17:38:12Z</time>
      </trkpt>
      <trkpt lat="45.05419" lon="2.6959">
        <ele>1180.16</ele>
        <time>2021-08-15T17:38:17Z</time>
      </trkpt>
      <trkpt lat="45.05432" lon="2.69617">
        <ele>1181.6</ele>
        <time>2021-08-15T17:38:21Z</time>
      </trkpt>
      <trkpt lat="45.05434" lon="2.69624">
        <ele>1181.6</ele>
        <time>2021-08-15T17:38:22Z</time>
      </trkpt>
      <trkpt lat="45.05434" lon="2.69631">
        <ele>1182.08</ele>
        <time>2021-08-15T17:38:23Z</time>
      </trkpt>
      <trkpt lat="45.05434" lon="2.69638">
        <ele>1182.08</ele>
        <time>2021-08-15T17:38:24Z</time>
      </trkpt>
      <trkpt lat="45.05433" lon="2.69644">
        <ele>1182.56</ele>
        <time>2021-08-15T17:38:25Z</time>
      </trkpt>
      <trkpt lat="45.05431" lon="2.69651">
        <ele>1182.56</ele>
        <time>2021-08-15T17:38:26Z</time>
      </trkpt>
      <trkpt lat="45.05429" lon="2.69657">
        <ele>1182.08</ele>
        <time>2021-08-15T17:38:27Z</time>
      </trkpt>
      <trkpt lat="45.05426" lon="2.69662">
        <ele>1183.04</ele>
        <time>2021-08-15T17:38:28Z</time>
      </trkpt>
      <trkpt lat="45.05423" lon="2.69667">
        <ele>1183.04</ele>
        <time>2021-08-15T17:38:29Z</time>
      </trkpt>
      <trkpt lat="45.05419" lon="2.69672">
        <ele>1183.04</ele>
        <time>2021-08-15T17:38:30Z</time>
      </trkpt>
      <trkpt lat="45.05416" lon="2.69676">
        <ele>1183.04</ele>
        <time>2021-08-15T17:38:31Z</time>
      </trkpt>
      <trkpt lat="45.05412" lon="2.6968">
        <ele>1183.52</ele>
        <time>2021-08-15T17:38:32Z</time>
      </trkpt>
      <trkpt lat="45.05377" lon="2.69712">
        <ele>1183.52</ele>
        <time>2021-08-15T17:38:41Z</time>
      </trkpt>
      <trkpt lat="45.05358" lon="2.69724">
        <ele>1184</ele>
        <time>2021-08-15T17:38:46Z</time>
      </trkpt>
      <trkpt lat="45.05353" lon="2.69726">
        <ele>1184</ele>
        <time>2021-08-15T17:38:47Z</time>
      </trkpt>
      <trkpt lat="45.0535" lon="2.69726">
        <ele>1184.48</ele>
        <time>2021-08-15T17:38:48Z</time>
      </trkpt>
      <trkpt lat="45.05324" lon="2.69723">
        <ele>1185.92</ele>
        <time>2021-08-15T17:38:55Z</time>
      </trkpt>
      <trkpt lat="45.05304" lon="2.69715">
        <ele>1187.37</ele>
        <time>2021-08-15T17:39:03Z</time>
      </trkpt>
      <trkpt lat="45.05287" lon="2.69708">
        <ele>1188.33</ele>
        <time>2021-08-15T17:39:12Z</time>
      </trkpt>
      <trkpt lat="45.05266" lon="2.69702">
        <ele>1190.73</ele>
        <time>2021-08-15T17:39:22Z</time>
      </trkpt>
      <trkpt lat="45.05244" lon="2.69695">
        <ele>1192.65</ele>
        <time>2021-08-15T17:39:33Z</time>
      </trkpt>
      <trkpt lat="45.05221" lon="2.69688">
        <ele>1194.09</ele>
        <time>2021-08-15T17:39:44Z</time>
      </trkpt>
      <trkpt lat="45.05204" lon="2.69679">
        <ele>1194.58</ele>
        <time>2021-08-15T17:39:53Z</time>
      </trkpt>
      <trkpt lat="45.05183" lon="2.69667">
        <ele>1195.54</ele>
        <time>2021-08-15T17:40:03Z</time>
      </trkpt>
      <trkpt lat="45.05162" lon="2.69659">
        <ele>1196.5</ele>
        <time>2021-08-15T17:40:10Z</time>
      </trkpt>
      <trkpt lat="45.05128" lon="2.69652">
        <ele>1196.5</ele>
        <time>2021-08-15T17:40:19Z</time>
      </trkpt>
      <trkpt lat="45.05124" lon="2.69653">
        <ele>1196.5</ele>
        <time>2021-08-15T17:40:20Z</time>
      </trkpt>
      <trkpt lat="45.05087" lon="2.69661">
        <ele>1196.5</ele>
        <time>2021-08-15T17:40:27Z</time>
      </trkpt>
      <trkpt lat="45.05061" lon="2.69675">
        <ele>1196.5</ele>
        <time>2021-08-15T17:40:32Z</time>
      </trkpt>
      <trkpt lat="45.05024" lon="2.697">
        <ele>1194.58</ele>
        <time>2021-08-15T17:40:39Z</time>
      </trkpt>
      <trkpt lat="45.05018" lon="2.69706">
        <ele>1194.58</ele>
        <time>2021-08-15T17:40:40Z</time>
      </trkpt>
      <trkpt lat="45.05013" lon="2.69714">
        <ele>1194.58</ele>
        <time>2021-08-15T17:40:41Z</time>
      </trkpt>
      <trkpt lat="45.0501" lon="2.69722">
        <ele>1194.09</ele>
        <time>2021-08-15T17:40:42Z</time>
      </trkpt>
      <trkpt lat="45.05007" lon="2.69732">
        <ele>1194.09</ele>
        <time>2021-08-15T17:40:43Z</time>
      </trkpt>
      <trkpt lat="45.05006" lon="2.69743">
        <ele>1193.61</ele>
        <time>2021-08-15T17:40:44Z</time>
      </trkpt>
      <trkpt lat="45.05006" lon="2.69753">
        <ele>1193.61</ele>
        <time>2021-08-15T17:40:45Z</time>
      </trkpt>
      <trkpt lat="45.05006" lon="2.69764">
        <ele>1192.65</ele>
        <time>2021-08-15T17:40:46Z</time>
      </trkpt>
      <trkpt lat="45.05006" lon="2.698">
        <ele>1190.25</ele>
        <time>2021-08-15T17:40:49Z</time>
      </trkpt>
      <trkpt lat="45.05004" lon="2.69813">
        <ele>1189.77</ele>
        <time>2021-08-15T17:40:50Z</time>
      </trkpt>
      <trkpt lat="45.05002" lon="2.69828">
        <ele>1188.81</ele>
        <time>2021-08-15T17:40:51Z</time>
      </trkpt>
      <trkpt lat="45.04998" lon="2.69841">
        <ele>1187.37</ele>
        <time>2021-08-15T17:40:52Z</time>
      </trkpt>
      <trkpt lat="45.04992" lon="2.69858">
        <ele>1184.96</ele>
        <time>2021-08-15T17:40:53Z</time>
      </trkpt>
      <trkpt lat="45.0498" lon="2.69901">
        <ele>1182.08</ele>
        <time>2021-08-15T17:40:56Z</time>
      </trkpt>
      <trkpt lat="45.04967" lon="2.6995">
        <ele>1177.75</ele>
        <time>2021-08-15T17:40:59Z</time>
      </trkpt>
      <trkpt lat="45.04962" lon="2.69966">
        <ele>1176.31</ele>
        <time>2021-08-15T17:41:00Z</time>
      </trkpt>
      <trkpt lat="45.04955" lon="2.69982">
        <ele>1175.35</ele>
        <time>2021-08-15T17:41:01Z</time>
      </trkpt>
      <trkpt lat="45.04947" lon="2.69997">
        <ele>1174.87</ele>
        <time>2021-08-15T17:41:02Z</time>
      </trkpt>
      <trkpt lat="45.04939" lon="2.70009">
        <ele>1173.91</ele>
        <time>2021-08-15T17:41:03Z</time>
      </trkpt>
      <trkpt lat="45.04929" lon="2.70022">
        <ele>1172.95</ele>
        <time>2021-08-15T17:41:04Z</time>
      </trkpt>
      <trkpt lat="45.0492" lon="2.70033">
        <ele>1172.95</ele>
        <time>2021-08-15T17:41:05Z</time>
      </trkpt>
      <trkpt lat="45.0491" lon="2.70043">
        <ele>1172.95</ele>
        <time>2021-08-15T17:41:06Z</time>
      </trkpt>
      <trkpt lat="45.04899" lon="2.70052">
        <ele>1172.47</ele>
        <time>2021-08-15T17:41:07Z</time>
      </trkpt>
      <trkpt lat="45.04889" lon="2.70059">
        <ele>1172.47</ele>
        <time>2021-08-15T17:41:08Z</time>
      </trkpt>
      <trkpt lat="45.04879" lon="2.70066">
        <ele>1171.5</ele>
        <time>2021-08-15T17:41:09Z</time>
      </trkpt>
      <trkpt lat="45.04846" lon="2.70081">
        <ele>1171.02</ele>
        <time>2021-08-15T17:41:12Z</time>
      </trkpt>
      <trkpt lat="45.04836" lon="2.70084">
        <ele>1171.02</ele>
        <time>2021-08-15T17:41:13Z</time>
      </trkpt>
      <trkpt lat="45.04825" lon="2.70086">
        <ele>1171.02</ele>
        <time>2021-08-15T17:41:14Z</time>
      </trkpt>
      <trkpt lat="45.04796" lon="2.70088">
        <ele>1172.47</ele>
        <time>2021-08-15T17:41:17Z</time>
      </trkpt>
      <trkpt lat="45.04763" lon="2.70088">
        <ele>1173.43</ele>
        <time>2021-08-15T17:41:21Z</time>
      </trkpt>
      <trkpt lat="45.04756" lon="2.70091">
        <ele>1174.39</ele>
        <time>2021-08-15T17:41:22Z</time>
      </trkpt>
      <trkpt lat="45.04751" lon="2.70097">
        <ele>1174.39</ele>
        <time>2021-08-15T17:41:23Z</time>
      </trkpt>
      <trkpt lat="45.04746" lon="2.70105">
        <ele>1174.39</ele>
        <time>2021-08-15T17:41:24Z</time>
      </trkpt>
      <trkpt lat="45.04745" lon="2.70114">
        <ele>1174.39</ele>
        <time>2021-08-15T17:41:25Z</time>
      </trkpt>
      <trkpt lat="45.04746" lon="2.70125">
        <ele>1174.39</ele>
        <time>2021-08-15T17:41:26Z</time>
      </trkpt>
      <trkpt lat="45.04749" lon="2.70134">
        <ele>1172.95</ele>
        <time>2021-08-15T17:41:27Z</time>
      </trkpt>
      <trkpt lat="45.04753" lon="2.70143">
        <ele>1172.95</ele>
        <time>2021-08-15T17:41:28Z</time>
      </trkpt>
      <trkpt lat="45.04757" lon="2.70152">
        <ele>1172.47</ele>
        <time>2021-08-15T17:41:29Z</time>
      </trkpt>
      <trkpt lat="45.04763" lon="2.7016">
        <ele>1171.98</ele>
        <time>2021-08-15T17:41:30Z</time>
      </trkpt>
      <trkpt lat="45.04768" lon="2.70168">
        <ele>1171.5</ele>
        <time>2021-08-15T17:41:31Z</time>
      </trkpt>
      <trkpt lat="45.04774" lon="2.70174">
        <ele>1171.02</ele>
        <time>2021-08-15T17:41:32Z</time>
      </trkpt>
      <trkpt lat="45.04781" lon="2.7018">
        <ele>1170.54</ele>
        <time>2021-08-15T17:41:33Z</time>
      </trkpt>
      <trkpt lat="45.048" lon="2.70199">
        <ele>1169.58</ele>
        <time>2021-08-15T17:41:36Z</time>
      </trkpt>
      <trkpt lat="45.04833" lon="2.70254">
        <ele>1169.58</ele>
        <time>2021-08-15T17:41:44Z</time>
      </trkpt>
      <trkpt lat="45.04836" lon="2.70264">
        <ele>1169.58</ele>
        <time>2021-08-15T17:41:45Z</time>
      </trkpt>
      <trkpt lat="45.04841" lon="2.70278">
        <ele>1171.02</ele>
        <time>2021-08-15T17:41:47Z</time>
      </trkpt>
      <trkpt lat="45.04858" lon="2.70329">
        <ele>1171.5</ele>
        <time>2021-08-15T17:41:56Z</time>
      </trkpt>
      <trkpt lat="45.04866" lon="2.70371">
        <ele>1170.06</ele>
        <time>2021-08-15T17:42:03Z</time>
      </trkpt>
      <trkpt lat="45.04869" lon="2.70397">
        <ele>1168.14</ele>
        <time>2021-08-15T17:42:06Z</time>
      </trkpt>
      <trkpt lat="45.04872" lon="2.70416">
        <ele>1167.18</ele>
        <time>2021-08-15T17:42:08Z</time>
      </trkpt>
      <trkpt lat="45.04872" lon="2.70425">
        <ele>1166.22</ele>
        <time>2021-08-15T17:42:09Z</time>
      </trkpt>
      <trkpt lat="45.04871" lon="2.70432">
        <ele>1165.74</ele>
        <time>2021-08-15T17:42:10Z</time>
      </trkpt>
      <trkpt lat="45.04868" lon="2.7044">
        <ele>1164.29</ele>
        <time>2021-08-15T17:42:11Z</time>
      </trkpt>
      <trkpt lat="45.04864" lon="2.70445">
        <ele>1163.33</ele>
        <time>2021-08-15T17:42:12Z</time>
      </trkpt>
      <trkpt lat="45.04857" lon="2.70447">
        <ele>1162.85</ele>
        <time>2021-08-15T17:42:13Z</time>
      </trkpt>
      <trkpt lat="45.0485" lon="2.70446">
        <ele>1161.89</ele>
        <time>2021-08-15T17:42:14Z</time>
      </trkpt>
      <trkpt lat="45.04842" lon="2.70444">
        <ele>1160.93</ele>
        <time>2021-08-15T17:42:15Z</time>
      </trkpt>
      <trkpt lat="45.04835" lon="2.70441">
        <ele>1159.49</ele>
        <time>2021-08-15T17:42:16Z</time>
      </trkpt>
      <trkpt lat="45.04827" lon="2.70436">
        <ele>1158.05</ele>
        <time>2021-08-15T17:42:17Z</time>
      </trkpt>
      <trkpt lat="45.04819" lon="2.70428">
        <ele>1156.6</ele>
        <time>2021-08-15T17:42:18Z</time>
      </trkpt>
      <trkpt lat="45.04814" lon="2.70419">
        <ele>1155.64</ele>
        <time>2021-08-15T17:42:19Z</time>
      </trkpt>
      <trkpt lat="45.04809" lon="2.70408">
        <ele>1155.16</ele>
        <time>2021-08-15T17:42:20Z</time>
      </trkpt>
      <trkpt lat="45.04805" lon="2.70397">
        <ele>1153.72</ele>
        <time>2021-08-15T17:42:21Z</time>
      </trkpt>
      <trkpt lat="45.048" lon="2.70385">
        <ele>1152.28</ele>
        <time>2021-08-15T17:42:22Z</time>
      </trkpt>
      <trkpt lat="45.04794" lon="2.70377">
        <ele>1151.32</ele>
        <time>2021-08-15T17:42:23Z</time>
      </trkpt>
      <trkpt lat="45.04787" lon="2.70372">
        <ele>1150.84</ele>
        <time>2021-08-15T17:42:24Z</time>
      </trkpt>
      <trkpt lat="45.04777" lon="2.70369">
        <ele>1149.39</ele>
        <time>2021-08-15T17:42:25Z</time>
      </trkpt>
      <trkpt lat="45.04769" lon="2.70371">
        <ele>1147.95</ele>
        <time>2021-08-15T17:42:26Z</time>
      </trkpt>
      <trkpt lat="45.04759" lon="2.70374">
        <ele>1146.99</ele>
        <time>2021-08-15T17:42:27Z</time>
      </trkpt>
      <trkpt lat="45.0475" lon="2.70379">
        <ele>1146.03</ele>
        <time>2021-08-15T17:42:28Z</time>
      </trkpt>
      <trkpt lat="45.04742" lon="2.70384">
        <ele>1144.59</ele>
        <time>2021-08-15T17:42:29Z</time>
      </trkpt>
      <trkpt lat="45.04731" lon="2.70391">
        <ele>1142.66</ele>
        <time>2021-08-15T17:42:30Z</time>
      </trkpt>
      <trkpt lat="45.04722" lon="2.70399">
        <ele>1141.7</ele>
        <time>2021-08-15T17:42:31Z</time>
      </trkpt>
      <trkpt lat="45.04712" lon="2.70408">
        <ele>1140.26</ele>
        <time>2021-08-15T17:42:32Z</time>
      </trkpt>
      <trkpt lat="45.04703" lon="2.70418">
        <ele>1138.34</ele>
        <time>2021-08-15T17:42:33Z</time>
      </trkpt>
      <trkpt lat="45.04679" lon="2.70452">
        <ele>1134.97</ele>
        <time>2021-08-15T17:42:36Z</time>
      </trkpt>
      <trkpt lat="45.04673" lon="2.70464">
        <ele>1134.97</ele>
        <time>2021-08-15T17:42:37Z</time>
      </trkpt>
      <trkpt lat="45.04667" lon="2.70477">
        <ele>1133.53</ele>
        <time>2021-08-15T17:42:38Z</time>
      </trkpt>
      <trkpt lat="45.04664" lon="2.70488">
        <ele>1133.05</ele>
        <time>2021-08-15T17:42:39Z</time>
      </trkpt>
      <trkpt lat="45.04661" lon="2.705">
        <ele>1132.57</ele>
        <time>2021-08-15T17:42:40Z</time>
      </trkpt>
      <trkpt lat="45.0466" lon="2.70514">
        <ele>1131.61</ele>
        <time>2021-08-15T17:42:41Z</time>
      </trkpt>
      <trkpt lat="45.0466" lon="2.70526">
        <ele>1130.65</ele>
        <time>2021-08-15T17:42:42Z</time>
      </trkpt>
      <trkpt lat="45.04661" lon="2.70541">
        <ele>1129.69</ele>
        <time>2021-08-15T17:42:43Z</time>
      </trkpt>
      <trkpt lat="45.04667" lon="2.70581">
        <ele>1127.28</ele>
        <time>2021-08-15T17:42:46Z</time>
      </trkpt>
      <trkpt lat="45.0467" lon="2.70589">
        <ele>1126.8</ele>
        <time>2021-08-15T17:42:47Z</time>
      </trkpt>
      <trkpt lat="45.04675" lon="2.706">
        <ele>1125.84</ele>
        <time>2021-08-15T17:42:48Z</time>
      </trkpt>
      <trkpt lat="45.04681" lon="2.70608">
        <ele>1125.36</ele>
        <time>2021-08-15T17:42:49Z</time>
      </trkpt>
      <trkpt lat="45.04688" lon="2.70616">
        <ele>1123.92</ele>
        <time>2021-08-15T17:42:50Z</time>
      </trkpt>
      <trkpt lat="45.04697" lon="2.70622">
        <ele>1122.48</ele>
        <time>2021-08-15T17:42:51Z</time>
      </trkpt>
      <trkpt lat="45.04707" lon="2.70626">
        <ele>1121.03</ele>
        <time>2021-08-15T17:42:52Z</time>
      </trkpt>
      <trkpt lat="45.04717" lon="2.70628">
        <ele>1120.07</ele>
        <time>2021-08-15T17:42:53Z</time>
      </trkpt>
      <trkpt lat="45.04727" lon="2.70629">
        <ele>1119.11</ele>
        <time>2021-08-15T17:42:54Z</time>
      </trkpt>
      <trkpt lat="45.04751" lon="2.70632">
        <ele>1116.23</ele>
        <time>2021-08-15T17:42:56Z</time>
      </trkpt>
      <trkpt lat="45.04762" lon="2.70635">
        <ele>1114.79</ele>
        <time>2021-08-15T17:42:57Z</time>
      </trkpt>
      <trkpt lat="45.04809" lon="2.70649">
        <ele>1111.9</ele>
        <time>2021-08-15T17:43:01Z</time>
      </trkpt>
      <trkpt lat="45.04821" lon="2.70652">
        <ele>1111.42</ele>
        <time>2021-08-15T17:43:02Z</time>
      </trkpt>
      <trkpt lat="45.04832" lon="2.70658">
        <ele>1110.46</ele>
        <time>2021-08-15T17:43:03Z</time>
      </trkpt>
      <trkpt lat="45.04865" lon="2.70673">
        <ele>1107.1</ele>
        <time>2021-08-15T17:43:06Z</time>
      </trkpt>
      <trkpt lat="45.04875" lon="2.70676">
        <ele>1105.17</ele>
        <time>2021-08-15T17:43:07Z</time>
      </trkpt>
      <trkpt lat="45.04886" lon="2.70677">
        <ele>1103.73</ele>
        <time>2021-08-15T17:43:08Z</time>
      </trkpt>
      <trkpt lat="45.04898" lon="2.70675">
        <ele>1102.29</ele>
        <time>2021-08-15T17:43:09Z</time>
      </trkpt>
      <trkpt lat="45.0491" lon="2.70672">
        <ele>1100.85</ele>
        <time>2021-08-15T17:43:10Z</time>
      </trkpt>
      <trkpt lat="45.04923" lon="2.70668">
        <ele>1098.92</ele>
        <time>2021-08-15T17:43:11Z</time>
      </trkpt>
      <trkpt lat="45.04935" lon="2.70665">
        <ele>1097.48</ele>
        <time>2021-08-15T17:43:12Z</time>
      </trkpt>
      <trkpt lat="45.04947" lon="2.70664">
        <ele>1095.56</ele>
        <time>2021-08-15T17:43:13Z</time>
      </trkpt>
      <trkpt lat="45.04961" lon="2.70665">
        <ele>1094.12</ele>
        <time>2021-08-15T17:43:14Z</time>
      </trkpt>
      <trkpt lat="45.04974" lon="2.70669">
        <ele>1093.16</ele>
        <time>2021-08-15T17:43:15Z</time>
      </trkpt>
      <trkpt lat="45.04987" lon="2.70674">
        <ele>1092.2</ele>
        <time>2021-08-15T17:43:16Z</time>
      </trkpt>
      <trkpt lat="45.05015" lon="2.70686">
        <ele>1088.83</ele>
        <time>2021-08-15T17:43:18Z</time>
      </trkpt>
      <trkpt lat="45.05042" lon="2.70697">
        <ele>1085.47</ele>
        <time>2021-08-15T17:43:20Z</time>
      </trkpt>
      <trkpt lat="45.05076" lon="2.70711">
        <ele>1082.1</ele>
        <time>2021-08-15T17:43:23Z</time>
      </trkpt>
      <trkpt lat="45.05093" lon="2.70717">
        <ele>1080.18</ele>
        <time>2021-08-15T17:43:25Z</time>
      </trkpt>
      <trkpt lat="45.05099" lon="2.70717">
        <ele>1081.14</ele>
        <time>2021-08-15T17:43:26Z</time>
      </trkpt>
      <trkpt lat="45.05104" lon="2.70712">
        <ele>1080.66</ele>
        <time>2021-08-15T17:43:27Z</time>
      </trkpt>
      <trkpt lat="45.05108" lon="2.70705">
        <ele>1080.18</ele>
        <time>2021-08-15T17:43:28Z</time>
      </trkpt>
      <trkpt lat="45.05111" lon="2.70697">
        <ele>1080.18</ele>
        <time>2021-08-15T17:43:29Z</time>
      </trkpt>
      <trkpt lat="45.05114" lon="2.70688">
        <ele>1079.7</ele>
        <time>2021-08-15T17:43:30Z</time>
      </trkpt>
      <trkpt lat="45.05118" lon="2.70681">
        <ele>1079.7</ele>
        <time>2021-08-15T17:43:31Z</time>
      </trkpt>
      <trkpt lat="45.05123" lon="2.70678">
        <ele>1079.7</ele>
        <time>2021-08-15T17:43:32Z</time>
      </trkpt>
      <trkpt lat="45.05129" lon="2.70678">
        <ele>1079.7</ele>
        <time>2021-08-15T17:43:33Z</time>
      </trkpt>
      <trkpt lat="45.05134" lon="2.7068">
        <ele>1078.74</ele>
        <time>2021-08-15T17:43:34Z</time>
      </trkpt>
      <trkpt lat="45.05139" lon="2.70683">
        <ele>1078.74</ele>
        <time>2021-08-15T17:43:35Z</time>
      </trkpt>
      <trkpt lat="45.05144" lon="2.70688">
        <ele>1078.74</ele>
        <time>2021-08-15T17:43:36Z</time>
      </trkpt>
      <trkpt lat="45.05148" lon="2.70693">
        <ele>1078.74</ele>
        <time>2021-08-15T17:43:37Z</time>
      </trkpt>
      <trkpt lat="45.05171" lon="2.70721">
        <ele>1075.85</ele>
        <time>2021-08-15T17:43:41Z</time>
      </trkpt>
      <trkpt lat="45.05177" lon="2.70731">
        <ele>1075.37</ele>
        <time>2021-08-15T17:43:42Z</time>
      </trkpt>
      <trkpt lat="45.05183" lon="2.70741">
        <ele>1073.93</ele>
        <time>2021-08-15T17:43:43Z</time>
      </trkpt>
      <trkpt lat="45.05187" lon="2.70754">
        <ele>1073.45</ele>
        <time>2021-08-15T17:43:44Z</time>
      </trkpt>
      <trkpt lat="45.05192" lon="2.70766">
        <ele>1071.53</ele>
        <time>2021-08-15T17:43:45Z</time>
      </trkpt>
      <trkpt lat="45.05202" lon="2.70794">
        <ele>1068.64</ele>
        <time>2021-08-15T17:43:47Z</time>
      </trkpt>
      <trkpt lat="45.05221" lon="2.70836">
        <ele>1064.8</ele>
        <time>2021-08-15T17:43:50Z</time>
      </trkpt>
      <trkpt lat="45.05241" lon="2.70879">
        <ele>1060.47</ele>
        <time>2021-08-15T17:43:53Z</time>
      </trkpt>
      <trkpt lat="45.05261" lon="2.70916">
        <ele>1057.11</ele>
        <time>2021-08-15T17:43:56Z</time>
      </trkpt>
      <trkpt lat="45.05281" lon="2.70951">
        <ele>1053.26</ele>
        <time>2021-08-15T17:43:59Z</time>
      </trkpt>
      <trkpt lat="45.0529" lon="2.70962">
        <ele>1052.3</ele>
        <time>2021-08-15T17:44:00Z</time>
      </trkpt>
      <trkpt lat="45.05299" lon="2.70971">
        <ele>1050.86</ele>
        <time>2021-08-15T17:44:01Z</time>
      </trkpt>
      <trkpt lat="45.05309" lon="2.70979">
        <ele>1049.42</ele>
        <time>2021-08-15T17:44:02Z</time>
      </trkpt>
      <trkpt lat="45.05342" lon="2.71">
        <ele>1045.57</ele>
        <time>2021-08-15T17:44:05Z</time>
      </trkpt>
      <trkpt lat="45.05352" lon="2.7101">
        <ele>1044.61</ele>
        <time>2021-08-15T17:44:06Z</time>
      </trkpt>
      <trkpt lat="45.05372" lon="2.71031">
        <ele>1041.25</ele>
        <time>2021-08-15T17:44:08Z</time>
      </trkpt>
      <trkpt lat="45.05411" lon="2.71066">
        <ele>1036.92</ele>
        <time>2021-08-15T17:44:12Z</time>
      </trkpt>
      <trkpt lat="45.05443" lon="2.7109">
        <ele>1033.55</ele>
        <time>2021-08-15T17:44:16Z</time>
      </trkpt>
      <trkpt lat="45.05468" lon="2.7111">
        <ele>1029.71</ele>
        <time>2021-08-15T17:44:20Z</time>
      </trkpt>
      <trkpt lat="45.05475" lon="2.71114">
        <ele>1028.27</ele>
        <time>2021-08-15T17:44:21Z</time>
      </trkpt>
      <trkpt lat="45.05483" lon="2.71117">
        <ele>1027.31</ele>
        <time>2021-08-15T17:44:22Z</time>
      </trkpt>
      <trkpt lat="45.0549" lon="2.71117">
        <ele>1025.86</ele>
        <time>2021-08-15T17:44:23Z</time>
      </trkpt>
      <trkpt lat="45.05499" lon="2.71116">
        <ele>1024.9</ele>
        <time>2021-08-15T17:44:24Z</time>
      </trkpt>
      <trkpt lat="45.05509" lon="2.71113">
        <ele>1023.46</ele>
        <time>2021-08-15T17:44:25Z</time>
      </trkpt>
      <trkpt lat="45.05517" lon="2.7111">
        <ele>1022.02</ele>
        <time>2021-08-15T17:44:26Z</time>
      </trkpt>
      <trkpt lat="45.05525" lon="2.71107">
        <ele>1022.02</ele>
        <time>2021-08-15T17:44:27Z</time>
      </trkpt>
      <trkpt lat="45.05532" lon="2.71106">
        <ele>1021.06</ele>
        <time>2021-08-15T17:44:28Z</time>
      </trkpt>
      <trkpt lat="45.05537" lon="2.71108">
        <ele>1021.06</ele>
        <time>2021-08-15T17:44:29Z</time>
      </trkpt>
      <trkpt lat="45.0554" lon="2.71111">
        <ele>1021.06</ele>
        <time>2021-08-15T17:44:30Z</time>
      </trkpt>
      <trkpt lat="45.05542" lon="2.71118">
        <ele>1020.1</ele>
        <time>2021-08-15T17:44:31Z</time>
      </trkpt>
      <trkpt lat="45.05541" lon="2.71126">
        <ele>1019.13</ele>
        <time>2021-08-15T17:44:32Z</time>
      </trkpt>
      <trkpt lat="45.05539" lon="2.71133">
        <ele>1018.65</ele>
        <time>2021-08-15T17:44:33Z</time>
      </trkpt>
      <trkpt lat="45.05536" lon="2.71146">
        <ele>1018.17</ele>
        <time>2021-08-15T17:44:35Z</time>
      </trkpt>
      <trkpt lat="45.0553" lon="2.71156">
        <ele>1018.17</ele>
        <time>2021-08-15T17:44:39Z</time>
      </trkpt>
      <trkpt lat="45.05528" lon="2.71155">
        <ele>1017.69</ele>
        <time>2021-08-15T17:44:44Z</time>
      </trkpt>
      <trkpt lat="45.05511" lon="2.71151">
        <ele>1017.21</ele>
        <time>2021-08-15T17:44:50Z</time>
      </trkpt>
      <trkpt lat="45.05469" lon="2.7114">
        <ele>1015.77</ele>
        <time>2021-08-15T17:44:59Z</time>
      </trkpt>
      <trkpt lat="45.05425" lon="2.71134">
        <ele>1013.85</ele>
        <time>2021-08-15T17:45:07Z</time>
      </trkpt>
      <trkpt lat="45.0542" lon="2.71135">
        <ele>1013.85</ele>
        <time>2021-08-15T17:45:08Z</time>
      </trkpt>
      <trkpt lat="45.05416" lon="2.71138">
        <ele>1013.85</ele>
        <time>2021-08-15T17:45:09Z</time>
      </trkpt>
      <trkpt lat="45.05413" lon="2.7114">
        <ele>1013.85</ele>
        <time>2021-08-15T17:45:10Z</time>
      </trkpt>
      <trkpt lat="45.05409" lon="2.71142">
        <ele>1013.85</ele>
        <time>2021-08-15T17:45:11Z</time>
      </trkpt>
      <trkpt lat="45.05391" lon="2.71147">
        <ele>1011.44</ele>
        <time>2021-08-15T17:45:17Z</time>
      </trkpt>
      <trkpt lat="45.05386" lon="2.71147">
        <ele>1010.96</ele>
        <time>2021-08-15T17:45:18Z</time>
      </trkpt>
      <trkpt lat="45.05369" lon="2.71151">
        <ele>1007.6</ele>
        <time>2021-08-15T17:45:21Z</time>
      </trkpt>
      <trkpt lat="45.05335" lon="2.71163">
        <ele>1005.2</ele>
        <time>2021-08-15T17:45:27Z</time>
      </trkpt>
      <trkpt lat="45.05298" lon="2.71158">
        <ele>1003.75</ele>
        <time>2021-08-15T17:45:34Z</time>
      </trkpt>
      <trkpt lat="45.05285" lon="2.71159">
        <ele>1003.27</ele>
        <time>2021-08-15T17:45:39Z</time>
      </trkpt>
      <trkpt lat="45.05281" lon="2.7116">
        <ele>1002.79</ele>
        <time>2021-08-15T17:45:42Z</time>
      </trkpt>
      <trkpt lat="45.05278" lon="2.71157">
        <ele>1002.79</ele>
        <time>2021-08-15T17:45:48Z</time>
      </trkpt>
      <trkpt lat="45.05278" lon="2.71156">
        <ele>1002.79</ele>
        <time>2021-08-15T17:45:57Z</time>
      </trkpt>
      <trkpt lat="45.05278" lon="2.71156">
        <ele>1002.79</ele>
        <time>2021-08-15T17:46:12Z</time>
      </trkpt>
      <trkpt lat="45.05278" lon="2.71155">
        <ele>1002.31</ele>
        <time>2021-08-15T17:46:29Z</time>
      </trkpt>
      <trkpt lat="45.05277" lon="2.71154">
        <ele>1002.31</ele>
        <time>2021-08-15T17:46:44Z</time>
      </trkpt>
      <trkpt lat="45.05277" lon="2.71153">
        <ele>1002.31</ele>
        <time>2021-08-15T17:47:00Z</time>
      </trkpt>
      <trkpt lat="45.05277" lon="2.71154">
        <ele>1002.31</ele>
        <time>2021-08-15T17:47:13Z</time>
      </trkpt>
      <trkpt lat="45.05276" lon="2.71155">
        <ele>1001.83</ele>
        <time>2021-08-15T17:47:27Z</time>
      </trkpt>
      <trkpt lat="45.05277" lon="2.71154">
        <ele>1001.83</ele>
        <time>2021-08-15T17:47:45Z</time>
      </trkpt>
      <trkpt lat="45.05277" lon="2.71155">
        <ele>1001.83</ele>
        <time>2021-08-15T17:48:00Z</time>
      </trkpt>
      <trkpt lat="45.05277" lon="2.71157">
        <ele>1001.83</ele>
        <time>2021-08-15T17:48:10Z</time>
      </trkpt>
      <trkpt lat="45.05278" lon="2.71158">
        <ele>1001.83</ele>
        <time>2021-08-15T17:48:26Z</time>
      </trkpt>
      <trkpt lat="45.05278" lon="2.71158">
        <ele>1001.35</ele>
        <time>2021-08-15T17:48:37Z</time>
      </trkpt>
      <trkpt lat="45.05278" lon="2.71159">
        <ele>1001.35</ele>
        <time>2021-08-15T17:48:52Z</time>
      </trkpt>
      <trkpt lat="45.05279" lon="2.71159">
        <ele>1001.35</ele>
        <time>2021-08-15T17:49:03Z</time>
      </trkpt>
      <trkpt lat="45.05279" lon="2.71159">
        <ele>1001.35</ele>
        <time>2021-08-15T17:49:15Z</time>
      </trkpt>
      <trkpt lat="45.05279" lon="2.71159">
        <ele>1001.35</ele>
        <time>2021-08-15T17:49:24Z</time>
      </trkpt>
      <trkpt lat="45.05279" lon="2.71159">
        <ele>1001.35</ele>
        <time>2021-08-15T17:49:37Z</time>
      </trkpt>
      <trkpt lat="45.05278" lon="2.71159">
        <ele>1000.87</ele>
        <time>2021-08-15T17:49:51Z</time>
      </trkpt>
      <trkpt lat="45.05277" lon="2.71159">
        <ele>1000.87</ele>
        <time>2021-08-15T17:50:04Z</time>
      </trkpt>
      <trkpt lat="45.05277" lon="2.71161">
        <ele>1000.87</ele>
        <time>2021-08-15T17:50:19Z</time>
      </trkpt>
      <trkpt lat="45.05279" lon="2.71164">
        <ele>1000.87</ele>
        <time>2021-08-15T17:50:20Z</time>
      </trkpt>
      <trkpt lat="45.05279" lon="2.71164">
        <ele>1000.87</ele>
        <time>2021-08-15T17:50:23Z</time>
      </trkpt>
      <trkpt lat="45.05278" lon="2.71164">
        <ele>1000.87</ele>
        <time>2021-08-15T17:50:25Z</time>
      </trkpt>
      <trkpt lat="45.05275" lon="2.71162">
        <ele>1000.87</ele>
        <time>2021-08-15T17:50:32Z</time>
      </trkpt>
      <trkpt lat="45.05274" lon="2.71161">
        <ele>1000.87</ele>
        <time>2021-08-15T17:50:51Z</time>
      </trkpt>
      <trkpt lat="45.05273" lon="2.71159">
        <ele>1000.39</ele>
        <time>2021-08-15T17:51:12Z</time>
      </trkpt>
      <trkpt lat="45.05274" lon="2.71159">
        <ele>1000.39</ele>
        <time>2021-08-15T17:51:33Z</time>
      </trkpt>
      <trkpt lat="45.05274" lon="2.71159">
        <ele>1000.39</ele>
        <time>2021-08-15T17:51:46Z</time>
      </trkpt>
      <trkpt lat="45.05275" lon="2.71158">
        <ele>1000.39</ele>
        <time>2021-08-15T17:51:59Z</time>
      </trkpt>
      <trkpt lat="45.05275" lon="2.71157">
        <ele>1000.39</ele>
        <time>2021-08-15T17:52:12Z</time>
      </trkpt>
      <trkpt lat="45.05273" lon="2.71157">
        <ele>999.91</ele>
        <time>2021-08-15T17:52:21Z</time>
      </trkpt>
      <trkpt lat="45.05271" lon="2.71157">
        <ele>999.91</ele>
        <time>2021-08-15T17:52:22Z</time>
      </trkpt>
      <trkpt lat="45.0527" lon="2.71157">
        <ele>999.91</ele>
        <time>2021-08-15T17:52:23Z</time>
      </trkpt>
      <trkpt lat="45.05268" lon="2.71156">
        <ele>999.91</ele>
        <time>2021-08-15T17:52:24Z</time>
      </trkpt>
      <trkpt lat="45.05265" lon="2.71155">
        <ele>999.91</ele>
        <time>2021-08-15T17:52:25Z</time>
      </trkpt>
      <trkpt lat="45.05258" lon="2.71152">
        <ele>999.91</ele>
        <time>2021-08-15T17:52:29Z</time>
      </trkpt>
      <trkpt lat="45.05258" lon="2.71153">
        <ele>999.91</ele>
        <time>2021-08-15T17:52:30Z</time>
      </trkpt>
      <trkpt lat="45.05259" lon="2.71154">
        <ele>999.91</ele>
        <time>2021-08-15T17:52:31Z</time>
      </trkpt>
      <trkpt lat="45.05261" lon="2.71155">
        <ele>999.91</ele>
        <time>2021-08-15T17:52:32Z</time>
      </trkpt>
      <trkpt lat="45.05263" lon="2.71155">
        <ele>999.91</ele>
        <time>2021-08-15T17:52:33Z</time>
      </trkpt>
      <trkpt lat="45.05274" lon="2.71159">
        <ele>999.91</ele>
        <time>2021-08-15T17:52:37Z</time>
      </trkpt>
      <trkpt lat="45.05276" lon="2.71162">
        <ele>999.91</ele>
        <time>2021-08-15T17:52:38Z</time>
      </trkpt>
      <trkpt lat="45.05277" lon="2.71166">
        <ele>999.91</ele>
        <time>2021-08-15T17:52:39Z</time>
      </trkpt>
      <trkpt lat="45.05278" lon="2.7117">
        <ele>999.91</ele>
        <time>2021-08-15T17:52:40Z</time>
      </trkpt>
      <trkpt lat="45.05277" lon="2.71175">
        <ele>999.91</ele>
        <time>2021-08-15T17:52:41Z</time>
      </trkpt>
      <trkpt lat="45.05275" lon="2.7118">
        <ele>999.91</ele>
        <time>2021-08-15T17:52:42Z</time>
      </trkpt>
      <trkpt lat="45.05274" lon="2.71185">
        <ele>999.91</ele>
        <time>2021-08-15T17:52:43Z</time>
      </trkpt>
      <trkpt lat="45.05273" lon="2.71189">
        <ele>999.91</ele>
        <time>2021-08-15T17:52:44Z</time>
      </trkpt>
      <trkpt lat="45.05272" lon="2.71193">
        <ele>999.91</ele>
        <time>2021-08-15T17:52:45Z</time>
      </trkpt>
      <trkpt lat="45.0527" lon="2.71198">
        <ele>999.91</ele>
        <time>2021-08-15T17:52:46Z</time>
      </trkpt>
      <trkpt lat="45.05267" lon="2.71214">
        <ele>997.99</ele>
        <time>2021-08-15T17:52:49Z</time>
      </trkpt>
      <trkpt lat="45.05267" lon="2.7122">
        <ele>997.02</ele>
        <time>2021-08-15T17:52:50Z</time>
      </trkpt>
      <trkpt lat="45.05269" lon="2.71226">
        <ele>996.06</ele>
        <time>2021-08-15T17:52:51Z</time>
      </trkpt>
      <trkpt lat="45.05272" lon="2.71231">
        <ele>996.06</ele>
        <time>2021-08-15T17:52:52Z</time>
      </trkpt>
      <trkpt lat="45.05276" lon="2.71235">
        <ele>995.58</ele>
        <time>2021-08-15T17:52:53Z</time>
      </trkpt>
      <trkpt lat="45.05281" lon="2.71238">
        <ele>994.62</ele>
        <time>2021-08-15T17:52:54Z</time>
      </trkpt>
      <trkpt lat="45.05287" lon="2.7124">
        <ele>994.14</ele>
        <time>2021-08-15T17:52:55Z</time>
      </trkpt>
      <trkpt lat="45.05309" lon="2.71251">
        <ele>990.3</ele>
        <time>2021-08-15T17:52:59Z</time>
      </trkpt>
      <trkpt lat="45.05315" lon="2.71256">
        <ele>989.33</ele>
        <time>2021-08-15T17:53:00Z</time>
      </trkpt>
      <trkpt lat="45.05318" lon="2.71262">
        <ele>988.37</ele>
        <time>2021-08-15T17:53:01Z</time>
      </trkpt>
      <trkpt lat="45.0532" lon="2.71268">
        <ele>988.37</ele>
        <time>2021-08-15T17:53:02Z</time>
      </trkpt>
      <trkpt lat="45.0532" lon="2.71274">
        <ele>987.89</ele>
        <time>2021-08-15T17:53:03Z</time>
      </trkpt>
      <trkpt lat="45.0532" lon="2.7128">
        <ele>987.89</ele>
        <time>2021-08-15T17:53:04Z</time>
      </trkpt>
      <trkpt lat="45.05315" lon="2.71319">
        <ele>986.93</ele>
        <time>2021-08-15T17:53:11Z</time>
      </trkpt>
      <trkpt lat="45.05309" lon="2.7138">
        <ele>985.49</ele>
        <time>2021-08-15T17:53:20Z</time>
      </trkpt>
      <trkpt lat="45.05306" lon="2.71387">
        <ele>985.49</ele>
        <time>2021-08-15T17:53:21Z</time>
      </trkpt>
      <trkpt lat="45.05303" lon="2.71392">
        <ele>985.49</ele>
        <time>2021-08-15T17:53:22Z</time>
      </trkpt>
      <trkpt lat="45.05299" lon="2.71396">
        <ele>985.49</ele>
        <time>2021-08-15T17:53:23Z</time>
      </trkpt>
      <trkpt lat="45.05294" lon="2.71398">
        <ele>985.49</ele>
        <time>2021-08-15T17:53:24Z</time>
      </trkpt>
      <trkpt lat="45.05289" lon="2.71398">
        <ele>985.49</ele>
        <time>2021-08-15T17:53:25Z</time>
      </trkpt>
      <trkpt lat="45.05284" lon="2.71398">
        <ele>985.49</ele>
        <time>2021-08-15T17:53:26Z</time>
      </trkpt>
      <trkpt lat="45.05279" lon="2.71397">
        <ele>985.49</ele>
        <time>2021-08-15T17:53:27Z</time>
      </trkpt>
      <trkpt lat="45.05275" lon="2.71396">
        <ele>985.49</ele>
        <time>2021-08-15T17:53:28Z</time>
      </trkpt>
      <trkpt lat="45.05223" lon="2.71381">
        <ele>985.01</ele>
        <time>2021-08-15T17:53:38Z</time>
      </trkpt>
      <trkpt lat="45.05178" lon="2.7137">
        <ele>986.45</ele>
        <time>2021-08-15T17:53:48Z</time>
      </trkpt>
      <trkpt lat="45.05147" lon="2.71365">
        <ele>986.93</ele>
        <time>2021-08-15T17:53:57Z</time>
      </trkpt>
      <trkpt lat="45.05125" lon="2.7136">
        <ele>988.37</ele>
        <time>2021-08-15T17:54:05Z</time>
      </trkpt>
      <trkpt lat="45.05101" lon="2.71356">
        <ele>989.81</ele>
        <time>2021-08-15T17:54:15Z</time>
      </trkpt>
      <trkpt lat="45.05072" lon="2.71348">
        <ele>990.3</ele>
        <time>2021-08-15T17:54:25Z</time>
      </trkpt>
      <trkpt lat="45.05056" lon="2.71344">
        <ele>990.3</ele>
        <time>2021-08-15T17:54:29Z</time>
      </trkpt>
      <trkpt lat="45.05044" lon="2.71341">
        <ele>988.85</ele>
        <time>2021-08-15T17:54:32Z</time>
      </trkpt>
      <trkpt lat="45.05" lon="2.71331">
        <ele>987.41</ele>
        <time>2021-08-15T17:54:41Z</time>
      </trkpt>
      <trkpt lat="45.04951" lon="2.71321">
        <ele>985.01</ele>
        <time>2021-08-15T17:54:49Z</time>
      </trkpt>
      <trkpt lat="45.04944" lon="2.7132">
        <ele>985.01</ele>
        <time>2021-08-15T17:54:50Z</time>
      </trkpt>
      <trkpt lat="45.04878" lon="2.71308">
        <ele>983.57</ele>
        <time>2021-08-15T17:55:01Z</time>
      </trkpt>
      <trkpt lat="45.0484" lon="2.71286">
        <ele>984.05</ele>
        <time>2021-08-15T17:55:09Z</time>
      </trkpt>
      <trkpt lat="45.04831" lon="2.71281">
        <ele>985.49</ele>
        <time>2021-08-15T17:55:11Z</time>
      </trkpt>
      <trkpt lat="45.04827" lon="2.71279">
        <ele>985.97</ele>
        <time>2021-08-15T17:55:12Z</time>
      </trkpt>
      <trkpt lat="45.04823" lon="2.71278">
        <ele>985.97</ele>
        <time>2021-08-15T17:55:13Z</time>
      </trkpt>
      <trkpt lat="45.04819" lon="2.71277">
        <ele>986.45</ele>
        <time>2021-08-15T17:55:14Z</time>
      </trkpt>
      <trkpt lat="45.04816" lon="2.71277">
        <ele>986.45</ele>
        <time>2021-08-15T17:55:15Z</time>
      </trkpt>
      <trkpt lat="45.04785" lon="2.71282">
        <ele>986.93</ele>
        <time>2021-08-15T17:55:23Z</time>
      </trkpt>
      <trkpt lat="45.04767" lon="2.71281">
        <ele>987.41</ele>
        <time>2021-08-15T17:55:28Z</time>
      </trkpt>
      <trkpt lat="45.04741" lon="2.71277">
        <ele>988.85</ele>
        <time>2021-08-15T17:55:36Z</time>
      </trkpt>
      <trkpt lat="45.04719" lon="2.71277">
        <ele>990.3</ele>
        <time>2021-08-15T17:55:45Z</time>
      </trkpt>
      <trkpt lat="45.04695" lon="2.71277">
        <ele>990.3</ele>
        <time>2021-08-15T17:55:55Z</time>
      </trkpt>
      <trkpt lat="45.04676" lon="2.71279">
        <ele>991.26</ele>
        <time>2021-08-15T17:56:03Z</time>
      </trkpt>
      <trkpt lat="45.04651" lon="2.71285">
        <ele>992.7</ele>
        <time>2021-08-15T17:56:13Z</time>
      </trkpt>
      <trkpt lat="45.04635" lon="2.71288">
        <ele>993.66</ele>
        <time>2021-08-15T17:56:22Z</time>
      </trkpt>
      <trkpt lat="45.04621" lon="2.7129">
        <ele>994.14</ele>
        <time>2021-08-15T17:56:30Z</time>
      </trkpt>
      <trkpt lat="45.04606" lon="2.71294">
        <ele>995.58</ele>
        <time>2021-08-15T17:56:39Z</time>
      </trkpt>
      <trkpt lat="45.04594" lon="2.71305">
        <ele>997.02</ele>
        <time>2021-08-15T17:56:48Z</time>
      </trkpt>
      <trkpt lat="45.04582" lon="2.71313">
        <ele>997.99</ele>
        <time>2021-08-15T17:56:58Z</time>
      </trkpt>
      <trkpt lat="45.0457" lon="2.71315">
        <ele>999.43</ele>
        <time>2021-08-15T17:57:07Z</time>
      </trkpt>
      <trkpt lat="45.04561" lon="2.71318">
        <ele>1000.39</ele>
        <time>2021-08-15T17:57:13Z</time>
      </trkpt>
      <trkpt lat="45.04552" lon="2.71325">
        <ele>1001.35</ele>
        <time>2021-08-15T17:57:20Z</time>
      </trkpt>
      <trkpt lat="45.04544" lon="2.71338">
        <ele>1002.31</ele>
        <time>2021-08-15T17:57:27Z</time>
      </trkpt>
      <trkpt lat="45.04525" lon="2.71351">
        <ele>1002.79</ele>
        <time>2021-08-15T17:57:36Z</time>
      </trkpt>
      <trkpt lat="45.04497" lon="2.71353">
        <ele>1003.27</ele>
        <time>2021-08-15T17:57:45Z</time>
      </trkpt>
      <trkpt lat="45.04472" lon="2.71359">
        <ele>1003.27</ele>
        <time>2021-08-15T17:57:52Z</time>
      </trkpt>
      <trkpt lat="45.04462" lon="2.71381">
        <ele>1004.23</ele>
        <time>2021-08-15T17:57:58Z</time>
      </trkpt>
      <trkpt lat="45.04457" lon="2.71392">
        <ele>1002.31</ele>
        <time>2021-08-15T17:58:00Z</time>
      </trkpt>
      <trkpt lat="45.04453" lon="2.71398">
        <ele>1002.31</ele>
        <time>2021-08-15T17:58:01Z</time>
      </trkpt>
      <trkpt lat="45.04448" lon="2.71401">
        <ele>1002.31</ele>
        <time>2021-08-15T17:58:02Z</time>
      </trkpt>
      <trkpt lat="45.04444" lon="2.71402">
        <ele>1002.31</ele>
        <time>2021-08-15T17:58:03Z</time>
      </trkpt>
      <trkpt lat="45.04439" lon="2.71401">
        <ele>1002.31</ele>
        <time>2021-08-15T17:58:04Z</time>
      </trkpt>
      <trkpt lat="45.04435" lon="2.714">
        <ele>1002.31</ele>
        <time>2021-08-15T17:58:05Z</time>
      </trkpt>
      <trkpt lat="45.04432" lon="2.71399">
        <ele>1002.31</ele>
        <time>2021-08-15T17:58:06Z</time>
      </trkpt>
      <trkpt lat="45.04429" lon="2.71397">
        <ele>1003.27</ele>
        <time>2021-08-15T17:58:07Z</time>
      </trkpt>
      <trkpt lat="45.04414" lon="2.71387">
        <ele>1004.72</ele>
        <time>2021-08-15T17:58:15Z</time>
      </trkpt>
      <trkpt lat="45.04396" lon="2.71381">
        <ele>1006.16</ele>
        <time>2021-08-15T17:58:26Z</time>
      </trkpt>
      <trkpt lat="45.04378" lon="2.71376">
        <ele>1008.08</ele>
        <time>2021-08-15T17:58:38Z</time>
      </trkpt>
      <trkpt lat="45.04365" lon="2.71374">
        <ele>1010</ele>
        <time>2021-08-15T17:58:47Z</time>
      </trkpt>
      <trkpt lat="45.04351" lon="2.71368">
        <ele>1010</ele>
        <time>2021-08-15T17:58:56Z</time>
      </trkpt>
      <trkpt lat="45.04329" lon="2.71357">
        <ele>1010</ele>
        <time>2021-08-15T17:59:06Z</time>
      </trkpt>
      <trkpt lat="45.04306" lon="2.71345">
        <ele>1010.96</ele>
        <time>2021-08-15T17:59:15Z</time>
      </trkpt>
      <trkpt lat="45.0429" lon="2.71343">
        <ele>1012.41</ele>
        <time>2021-08-15T17:59:25Z</time>
      </trkpt>
      <trkpt lat="45.04277" lon="2.71342">
        <ele>1013.85</ele>
        <time>2021-08-15T17:59:35Z</time>
      </trkpt>
      <trkpt lat="45.04263" lon="2.7134">
        <ele>1014.33</ele>
        <time>2021-08-15T17:59:44Z</time>
      </trkpt>
      <trkpt lat="45.04244" lon="2.71337">
        <ele>1015.77</ele>
        <time>2021-08-15T17:59:54Z</time>
      </trkpt>
      <trkpt lat="45.04221" lon="2.71341">
        <ele>1016.73</ele>
        <time>2021-08-15T18:00:05Z</time>
      </trkpt>
      <trkpt lat="45.04206" lon="2.71339">
        <ele>1017.21</ele>
        <time>2021-08-15T18:00:13Z</time>
      </trkpt>
      <trkpt lat="45.04191" lon="2.71336">
        <ele>1017.69</ele>
        <time>2021-08-15T18:00:21Z</time>
      </trkpt>
      <trkpt lat="45.04181" lon="2.71327">
        <ele>1018.17</ele>
        <time>2021-08-15T18:00:27Z</time>
      </trkpt>
      <trkpt lat="45.04178" lon="2.71315">
        <ele>1016.73</ele>
        <time>2021-08-15T18:00:29Z</time>
      </trkpt>
      <trkpt lat="45.04176" lon="2.71309">
        <ele>1016.25</ele>
        <time>2021-08-15T18:00:30Z</time>
      </trkpt>
      <trkpt lat="45.04172" lon="2.71303">
        <ele>1015.29</ele>
        <time>2021-08-15T18:00:31Z</time>
      </trkpt>
      <trkpt lat="45.04167" lon="2.71299">
        <ele>1014.81</ele>
        <time>2021-08-15T18:00:32Z</time>
      </trkpt>
      <trkpt lat="45.04161" lon="2.71297">
        <ele>1013.85</ele>
        <time>2021-08-15T18:00:33Z</time>
      </trkpt>
      <trkpt lat="45.04154" lon="2.71295">
        <ele>1012.89</ele>
        <time>2021-08-15T18:00:34Z</time>
      </trkpt>
      <trkpt lat="45.04147" lon="2.71294">
        <ele>1012.41</ele>
        <time>2021-08-15T18:00:35Z</time>
      </trkpt>
      <trkpt lat="45.04117" lon="2.71289">
        <ele>1009.52</ele>
        <time>2021-08-15T18:00:39Z</time>
      </trkpt>
      <trkpt lat="45.04102" lon="2.71288">
        <ele>1007.6</ele>
        <time>2021-08-15T18:00:41Z</time>
      </trkpt>
      <trkpt lat="45.04093" lon="2.71289">
        <ele>1006.64</ele>
        <time>2021-08-15T18:00:42Z</time>
      </trkpt>
      <trkpt lat="45.04085" lon="2.71292">
        <ele>1006.16</ele>
        <time>2021-08-15T18:00:43Z</time>
      </trkpt>
      <trkpt lat="45.04076" lon="2.71296">
        <ele>1005.68</ele>
        <time>2021-08-15T18:00:44Z</time>
      </trkpt>
      <trkpt lat="45.04069" lon="2.71301">
        <ele>1005.68</ele>
        <time>2021-08-15T18:00:45Z</time>
      </trkpt>
      <trkpt lat="45.04035" lon="2.7132">
        <ele>1006.64</ele>
        <time>2021-08-15T18:00:50Z</time>
      </trkpt>
      <trkpt lat="45.04029" lon="2.71322">
        <ele>1006.64</ele>
        <time>2021-08-15T18:00:51Z</time>
      </trkpt>
      <trkpt lat="45.04024" lon="2.71322">
        <ele>1007.6</ele>
        <time>2021-08-15T18:00:52Z</time>
      </trkpt>
      <trkpt lat="45.04003" lon="2.71323">
        <ele>1008.08</ele>
        <time>2021-08-15T18:00:57Z</time>
      </trkpt>
      <trkpt lat="45.03992" lon="2.71324">
        <ele>1008.08</ele>
        <time>2021-08-15T18:01:00Z</time>
      </trkpt>
      <trkpt lat="45.03987" lon="2.71324">
        <ele>1008.08</ele>
        <time>2021-08-15T18:01:01Z</time>
      </trkpt>
      <trkpt lat="45.03983" lon="2.71323">
        <ele>1008.08</ele>
        <time>2021-08-15T18:01:02Z</time>
      </trkpt>
      <trkpt lat="45.03977" lon="2.71319">
        <ele>1006.64</ele>
        <time>2021-08-15T18:01:03Z</time>
      </trkpt>
      <trkpt lat="45.03973" lon="2.71313">
        <ele>1006.64</ele>
        <time>2021-08-15T18:01:04Z</time>
      </trkpt>
      <trkpt lat="45.0397" lon="2.71305">
        <ele>1005.68</ele>
        <time>2021-08-15T18:01:05Z</time>
      </trkpt>
      <trkpt lat="45.03967" lon="2.71297">
        <ele>1005.2</ele>
        <time>2021-08-15T18:01:06Z</time>
      </trkpt>
      <trkpt lat="45.0395" lon="2.71247">
        <ele>1002.31</ele>
        <time>2021-08-15T18:01:11Z</time>
      </trkpt>
      <trkpt lat="45.03936" lon="2.71202">
        <ele>1000.87</ele>
        <time>2021-08-15T18:01:15Z</time>
      </trkpt>
      <trkpt lat="45.03931" lon="2.71192">
        <ele>1000.39</ele>
        <time>2021-08-15T18:01:16Z</time>
      </trkpt>
      <trkpt lat="45.03925" lon="2.71183">
        <ele>1000.39</ele>
        <time>2021-08-15T18:01:17Z</time>
      </trkpt>
      <trkpt lat="45.03918" lon="2.71176">
        <ele>999.91</ele>
        <time>2021-08-15T18:01:18Z</time>
      </trkpt>
      <trkpt lat="45.03911" lon="2.7117">
        <ele>999.43</ele>
        <time>2021-08-15T18:01:19Z</time>
      </trkpt>
      <trkpt lat="45.03876" lon="2.7114">
        <ele>998.47</ele>
        <time>2021-08-15T18:01:24Z</time>
      </trkpt>
      <trkpt lat="45.03849" lon="2.71113">
        <ele>998.47</ele>
        <time>2021-08-15T18:01:29Z</time>
      </trkpt>
      <trkpt lat="45.03836" lon="2.71101">
        <ele>999.91</ele>
        <time>2021-08-15T18:01:32Z</time>
      </trkpt>
      <trkpt lat="45.03818" lon="2.71089">
        <ele>1000.87</ele>
        <time>2021-08-15T18:01:38Z</time>
      </trkpt>
      <trkpt lat="45.03802" lon="2.71078">
        <ele>1002.79</ele>
        <time>2021-08-15T18:01:47Z</time>
      </trkpt>
      <trkpt lat="45.03787" lon="2.71071">
        <ele>1003.75</ele>
        <time>2021-08-15T18:01:56Z</time>
      </trkpt>
      <trkpt lat="45.03772" lon="2.71062">
        <ele>1005.2</ele>
        <time>2021-08-15T18:02:07Z</time>
      </trkpt>
      <trkpt lat="45.03762" lon="2.71055">
        <ele>1006.16</ele>
        <time>2021-08-15T18:02:16Z</time>
      </trkpt>
      <trkpt lat="45.03751" lon="2.71047">
        <ele>1007.6</ele>
        <time>2021-08-15T18:02:25Z</time>
      </trkpt>
      <trkpt lat="45.03744" lon="2.7104">
        <ele>1008.56</ele>
        <time>2021-08-15T18:02:33Z</time>
      </trkpt>
      <trkpt lat="45.03743" lon="2.71039">
        <ele>1008.56</ele>
        <time>2021-08-15T18:02:34Z</time>
      </trkpt>
      <trkpt lat="45.03742" lon="2.71038">
        <ele>1008.56</ele>
        <time>2021-08-15T18:02:35Z</time>
      </trkpt>
      <trkpt lat="45.03736" lon="2.71028">
        <ele>1010</ele>
        <time>2021-08-15T18:02:44Z</time>
      </trkpt>
      <trkpt lat="45.03733" lon="2.71024">
        <ele>1010.48</ele>
        <time>2021-08-15T18:02:48Z</time>
      </trkpt>
      <trkpt lat="45.03732" lon="2.71023">
        <ele>1010.48</ele>
        <time>2021-08-15T18:02:49Z</time>
      </trkpt>
      <trkpt lat="45.03731" lon="2.71022">
        <ele>1010.48</ele>
        <time>2021-08-15T18:02:50Z</time>
      </trkpt>
      <trkpt lat="45.03729" lon="2.71017">
        <ele>1010.96</ele>
        <time>2021-08-15T18:02:53Z</time>
      </trkpt>
      <trkpt lat="45.03728" lon="2.71016">
        <ele>1010.96</ele>
        <time>2021-08-15T18:02:54Z</time>
      </trkpt>
      <trkpt lat="45.03727" lon="2.71015">
        <ele>1010.96</ele>
        <time>2021-08-15T18:02:55Z</time>
      </trkpt>
      <trkpt lat="45.0372" lon="2.71004">
        <ele>1011.93</ele>
        <time>2021-08-15T18:03:03Z</time>
      </trkpt>
      <trkpt lat="45.03714" lon="2.70994">
        <ele>1012.89</ele>
        <time>2021-08-15T18:03:11Z</time>
      </trkpt>
      <trkpt lat="45.0371" lon="2.70984">
        <ele>1013.37</ele>
        <time>2021-08-15T18:03:19Z</time>
      </trkpt>
      <trkpt lat="45.03705" lon="2.70975">
        <ele>1013.85</ele>
        <time>2021-08-15T18:03:26Z</time>
      </trkpt>
      <trkpt lat="45.03697" lon="2.70964">
        <ele>1014.81</ele>
        <time>2021-08-15T18:03:34Z</time>
      </trkpt>
      <trkpt lat="45.03692" lon="2.70957">
        <ele>1015.77</ele>
        <time>2021-08-15T18:03:40Z</time>
      </trkpt>
      <trkpt lat="45.03687" lon="2.70951">
        <ele>1016.73</ele>
        <time>2021-08-15T18:03:46Z</time>
      </trkpt>
      <trkpt lat="45.03679" lon="2.7094">
        <ele>1017.21</ele>
        <time>2021-08-15T18:03:54Z</time>
      </trkpt>
      <trkpt lat="45.0367" lon="2.70925">
        <ele>1018.65</ele>
        <time>2021-08-15T18:04:04Z</time>
      </trkpt>
      <trkpt lat="45.03653" lon="2.70914">
        <ele>1020.1</ele>
        <time>2021-08-15T18:04:13Z</time>
      </trkpt>
      <trkpt lat="45.03646" lon="2.70908">
        <ele>1020.58</ele>
        <time>2021-08-15T18:04:17Z</time>
      </trkpt>
      <trkpt lat="45.03644" lon="2.70907">
        <ele>1020.58</ele>
        <time>2021-08-15T18:04:18Z</time>
      </trkpt>
      <trkpt lat="45.03627" lon="2.709">
        <ele>1022.02</ele>
        <time>2021-08-15T18:04:27Z</time>
      </trkpt>
      <trkpt lat="45.03625" lon="2.70899">
        <ele>1022.02</ele>
        <time>2021-08-15T18:04:28Z</time>
      </trkpt>
      <trkpt lat="45.03623" lon="2.70899">
        <ele>1022.5</ele>
        <time>2021-08-15T18:04:29Z</time>
      </trkpt>
      <trkpt lat="45.03621" lon="2.709">
        <ele>1022.5</ele>
        <time>2021-08-15T18:04:30Z</time>
      </trkpt>
      <trkpt lat="45.03619" lon="2.70901">
        <ele>1022.5</ele>
        <time>2021-08-15T18:04:31Z</time>
      </trkpt>
      <trkpt lat="45.03617" lon="2.70902">
        <ele>1022.5</ele>
        <time>2021-08-15T18:04:32Z</time>
      </trkpt>
      <trkpt lat="45.03615" lon="2.70903">
        <ele>1022.98</ele>
        <time>2021-08-15T18:04:33Z</time>
      </trkpt>
      <trkpt lat="45.03613" lon="2.70903">
        <ele>1022.5</ele>
        <time>2021-08-15T18:04:34Z</time>
      </trkpt>
      <trkpt lat="45.0361" lon="2.70904">
        <ele>1022.5</ele>
        <time>2021-08-15T18:04:35Z</time>
      </trkpt>
      <trkpt lat="45.0359" lon="2.70907">
        <ele>1023.46</ele>
        <time>2021-08-15T18:04:45Z</time>
      </trkpt>
      <trkpt lat="45.0357" lon="2.70909">
        <ele>1026.34</ele>
        <time>2021-08-15T18:04:56Z</time>
      </trkpt>
      <trkpt lat="45.03552" lon="2.70914">
        <ele>1027.31</ele>
        <time>2021-08-15T18:05:05Z</time>
      </trkpt>
      <trkpt lat="45.03529" lon="2.70921">
        <ele>1027.79</ele>
        <time>2021-08-15T18:05:16Z</time>
      </trkpt>
      <trkpt lat="45.03517" lon="2.70928">
        <ele>1028.27</ele>
        <time>2021-08-15T18:05:21Z</time>
      </trkpt>
      <trkpt lat="45.03504" lon="2.70946">
        <ele>1029.23</ele>
        <time>2021-08-15T18:05:28Z</time>
      </trkpt>
      <trkpt lat="45.03488" lon="2.70968">
        <ele>1030.19</ele>
        <time>2021-08-15T18:05:38Z</time>
      </trkpt>
      <trkpt lat="45.03474" lon="2.70987">
        <ele>1031.63</ele>
        <time>2021-08-15T18:05:48Z</time>
      </trkpt>
      <trkpt lat="45.03462" lon="2.71009">
        <ele>1033.07</ele>
        <time>2021-08-15T18:05:59Z</time>
      </trkpt>
      <trkpt lat="45.03453" lon="2.71025">
        <ele>1034.52</ele>
        <time>2021-08-15T18:06:09Z</time>
      </trkpt>
      <trkpt lat="45.03443" lon="2.71048">
        <ele>1035.96</ele>
        <time>2021-08-15T18:06:20Z</time>
      </trkpt>
      <trkpt lat="45.03436" lon="2.71069">
        <ele>1036.44</ele>
        <time>2021-08-15T18:06:28Z</time>
      </trkpt>
      <trkpt lat="45.03428" lon="2.71085">
        <ele>1037.4</ele>
        <time>2021-08-15T18:06:36Z</time>
      </trkpt>
      <trkpt lat="45.03417" lon="2.711">
        <ele>1038.36</ele>
        <time>2021-08-15T18:06:46Z</time>
      </trkpt>
      <trkpt lat="45.03404" lon="2.71109">
        <ele>1039.32</ele>
        <time>2021-08-15T18:06:55Z</time>
      </trkpt>
      <trkpt lat="45.03392" lon="2.71116">
        <ele>1040.76</ele>
        <time>2021-08-15T18:07:04Z</time>
      </trkpt>
      <trkpt lat="45.03383" lon="2.71123">
        <ele>1041.25</ele>
        <time>2021-08-15T18:07:11Z</time>
      </trkpt>
      <trkpt lat="45.03376" lon="2.71126">
        <ele>1042.21</ele>
        <time>2021-08-15T18:07:18Z</time>
      </trkpt>
      <trkpt lat="45.03375" lon="2.71127">
        <ele>1042.21</ele>
        <time>2021-08-15T18:07:36Z</time>
      </trkpt>
      <trkpt lat="45.03375" lon="2.71126">
        <ele>1042.21</ele>
        <time>2021-08-15T18:07:48Z</time>
      </trkpt>
      <trkpt lat="45.03375" lon="2.71129">
        <ele>1042.21</ele>
        <time>2021-08-15T18:08:03Z</time>
      </trkpt>
      <trkpt lat="45.03374" lon="2.71127">
        <ele>1042.21</ele>
        <time>2021-08-15T18:08:21Z</time>
      </trkpt>
      <trkpt lat="45.03374" lon="2.71125">
        <ele>1042.21</ele>
        <time>2021-08-15T18:08:42Z</time>
      </trkpt>
      <trkpt lat="45.03376" lon="2.71123">
        <ele>1042.21</ele>
        <time>2021-08-15T18:08:55Z</time>
      </trkpt>
      <trkpt lat="45.03373" lon="2.71126">
        <ele>1042.21</ele>
        <time>2021-08-15T18:09:01Z</time>
      </trkpt>
      <trkpt lat="45.03372" lon="2.71127">
        <ele>1042.21</ele>
        <time>2021-08-15T18:09:02Z</time>
      </trkpt>
      <trkpt lat="45.03372" lon="2.71128">
        <ele>1042.21</ele>
        <time>2021-08-15T18:09:03Z</time>
      </trkpt>
      <trkpt lat="45.0336" lon="2.7114">
        <ele>1044.13</ele>
        <time>2021-08-15T18:09:12Z</time>
      </trkpt>
      <trkpt lat="45.03347" lon="2.71156">
        <ele>1045.57</ele>
        <time>2021-08-15T18:09:22Z</time>
      </trkpt>
      <trkpt lat="45.03335" lon="2.71176">
        <ele>1046.53</ele>
        <time>2021-08-15T18:09:32Z</time>
      </trkpt>
      <trkpt lat="45.03325" lon="2.71191">
        <ele>1047.49</ele>
        <time>2021-08-15T18:09:41Z</time>
      </trkpt>
      <trkpt lat="45.03314" lon="2.7121">
        <ele>1048.94</ele>
        <time>2021-08-15T18:09:51Z</time>
      </trkpt>
      <trkpt lat="45.03304" lon="2.71228">
        <ele>1049.9</ele>
        <time>2021-08-15T18:10:00Z</time>
      </trkpt>
      <trkpt lat="45.03294" lon="2.71237">
        <ele>1050.86</ele>
        <time>2021-08-15T18:10:08Z</time>
      </trkpt>
      <trkpt lat="45.03283" lon="2.71231">
        <ele>1051.82</ele>
        <time>2021-08-15T18:10:16Z</time>
      </trkpt>
      <trkpt lat="45.03282" lon="2.7123">
        <ele>1051.82</ele>
        <time>2021-08-15T18:10:17Z</time>
      </trkpt>
      <trkpt lat="45.03281" lon="2.71229">
        <ele>1052.78</ele>
        <time>2021-08-15T18:10:18Z</time>
      </trkpt>
      <trkpt lat="45.03277" lon="2.71219">
        <ele>1053.74</ele>
        <time>2021-08-15T18:10:26Z</time>
      </trkpt>
      <trkpt lat="45.03276" lon="2.7121">
        <ele>1054.22</ele>
        <time>2021-08-15T18:10:32Z</time>
      </trkpt>
      <trkpt lat="45.03276" lon="2.71208">
        <ele>1054.22</ele>
        <time>2021-08-15T18:10:33Z</time>
      </trkpt>
      <trkpt lat="45.03276" lon="2.71206">
        <ele>1054.7</ele>
        <time>2021-08-15T18:10:34Z</time>
      </trkpt>
      <trkpt lat="45.03276" lon="2.71204">
        <ele>1054.7</ele>
        <time>2021-08-15T18:10:35Z</time>
      </trkpt>
      <trkpt lat="45.03275" lon="2.71202">
        <ele>1054.7</ele>
        <time>2021-08-15T18:10:36Z</time>
      </trkpt>
      <trkpt lat="45.03274" lon="2.71178">
        <ele>1056.63</ele>
        <time>2021-08-15T18:10:46Z</time>
      </trkpt>
      <trkpt lat="45.03275" lon="2.71176">
        <ele>1056.63</ele>
        <time>2021-08-15T18:10:47Z</time>
      </trkpt>
      <trkpt lat="45.03273" lon="2.71157">
        <ele>1058.07</ele>
        <time>2021-08-15T18:10:58Z</time>
      </trkpt>
      <trkpt lat="45.0327" lon="2.71143">
        <ele>1059.03</ele>
        <time>2021-08-15T18:11:06Z</time>
      </trkpt>
      <trkpt lat="45.03267" lon="2.71135">
        <ele>1059.51</ele>
        <time>2021-08-15T18:11:10Z</time>
      </trkpt>
      <trkpt lat="45.03267" lon="2.71133">
        <ele>1059.99</ele>
        <time>2021-08-15T18:11:11Z</time>
      </trkpt>
      <trkpt lat="45.03266" lon="2.71131">
        <ele>1059.99</ele>
        <time>2021-08-15T18:11:12Z</time>
      </trkpt>
      <trkpt lat="45.03261" lon="2.71119">
        <ele>1060.95</ele>
        <time>2021-08-15T18:11:20Z</time>
      </trkpt>
      <trkpt lat="45.03253" lon="2.711">
        <ele>1062.39</ele>
        <time>2021-08-15T18:11:30Z</time>
      </trkpt>
      <trkpt lat="45.03251" lon="2.71081">
        <ele>1063.36</ele>
        <time>2021-08-15T18:11:38Z</time>
      </trkpt>
      <trkpt lat="45.03248" lon="2.71062">
        <ele>1064.8</ele>
        <time>2021-08-15T18:11:47Z</time>
      </trkpt>
      <trkpt lat="45.03251" lon="2.71034">
        <ele>1067.2</ele>
        <time>2021-08-15T18:12:00Z</time>
      </trkpt>
      <trkpt lat="45.03254" lon="2.71005">
        <ele>1069.12</ele>
        <time>2021-08-15T18:12:13Z</time>
      </trkpt>
      <trkpt lat="45.03254" lon="2.70989">
        <ele>1070.57</ele>
        <time>2021-08-15T18:12:21Z</time>
      </trkpt>
      <trkpt lat="45.03253" lon="2.70967">
        <ele>1072.49</ele>
        <time>2021-08-15T18:12:32Z</time>
      </trkpt>
      <trkpt lat="45.03253" lon="2.70966">
        <ele>1072.49</ele>
        <time>2021-08-15T18:12:33Z</time>
      </trkpt>
      <trkpt lat="45.03253" lon="2.70964">
        <ele>1072.49</ele>
        <time>2021-08-15T18:12:34Z</time>
      </trkpt>
      <trkpt lat="45.03252" lon="2.70962">
        <ele>1073.45</ele>
        <time>2021-08-15T18:12:35Z</time>
      </trkpt>
      <trkpt lat="45.03251" lon="2.70955">
        <ele>1073.45</ele>
        <time>2021-08-15T18:12:40Z</time>
      </trkpt>
      <trkpt lat="45.0325" lon="2.70949">
        <ele>1073.93</ele>
        <time>2021-08-15T18:12:43Z</time>
      </trkpt>
      <trkpt lat="45.03242" lon="2.70929">
        <ele>1075.85</ele>
        <time>2021-08-15T18:12:54Z</time>
      </trkpt>
      <trkpt lat="45.03234" lon="2.70914">
        <ele>1076.81</ele>
        <time>2021-08-15T18:13:05Z</time>
      </trkpt>
      <trkpt lat="45.03226" lon="2.70905">
        <ele>1077.78</ele>
        <time>2021-08-15T18:13:12Z</time>
      </trkpt>
      <trkpt lat="45.0322" lon="2.70898">
        <ele>1078.26</ele>
        <time>2021-08-15T18:13:18Z</time>
      </trkpt>
      <trkpt lat="45.03219" lon="2.70897">
        <ele>1078.26</ele>
        <time>2021-08-15T18:13:19Z</time>
      </trkpt>
      <trkpt lat="45.03205" lon="2.70888">
        <ele>1080.18</ele>
        <time>2021-08-15T18:13:30Z</time>
      </trkpt>
      <trkpt lat="45.03189" lon="2.70879">
        <ele>1081.62</ele>
        <time>2021-08-15T18:13:41Z</time>
      </trkpt>
      <trkpt lat="45.03177" lon="2.7087">
        <ele>1083.06</ele>
        <time>2021-08-15T18:13:50Z</time>
      </trkpt>
      <trkpt lat="45.03164" lon="2.70864">
        <ele>1084.02</ele>
        <time>2021-08-15T18:14:01Z</time>
      </trkpt>
      <trkpt lat="45.03152" lon="2.70863">
        <ele>1085.47</ele>
        <time>2021-08-15T18:14:11Z</time>
      </trkpt>
      <trkpt lat="45.03135" lon="2.70865">
        <ele>1086.43</ele>
        <time>2021-08-15T18:14:22Z</time>
      </trkpt>
      <trkpt lat="45.03124" lon="2.70867">
        <ele>1087.87</ele>
        <time>2021-08-15T18:14:30Z</time>
      </trkpt>
      <trkpt lat="45.03122" lon="2.70867">
        <ele>1087.87</ele>
        <time>2021-08-15T18:14:31Z</time>
      </trkpt>
      <trkpt lat="45.03108" lon="2.70869">
        <ele>1089.31</ele>
        <time>2021-08-15T18:14:41Z</time>
      </trkpt>
      <trkpt lat="45.03093" lon="2.70872">
        <ele>1090.75</ele>
        <time>2021-08-15T18:14:51Z</time>
      </trkpt>
      <trkpt lat="45.03077" lon="2.70876">
        <ele>1091.71</ele>
        <time>2021-08-15T18:15:00Z</time>
      </trkpt>
      <trkpt lat="45.0306" lon="2.70881">
        <ele>1091.71</ele>
        <time>2021-08-15T18:15:07Z</time>
      </trkpt>
      <trkpt lat="45.0305" lon="2.70885">
        <ele>1090.75</ele>
        <time>2021-08-15T18:15:10Z</time>
      </trkpt>
      <trkpt lat="45.03027" lon="2.709">
        <ele>1089.31</ele>
        <time>2021-08-15T18:15:17Z</time>
      </trkpt>
      <trkpt lat="45.03023" lon="2.70902">
        <ele>1089.31</ele>
        <time>2021-08-15T18:15:18Z</time>
      </trkpt>
      <trkpt lat="45.03019" lon="2.70902">
        <ele>1089.31</ele>
        <time>2021-08-15T18:15:19Z</time>
      </trkpt>
      <trkpt lat="45.02985" lon="2.709">
        <ele>1086.91</ele>
        <time>2021-08-15T18:15:25Z</time>
      </trkpt>
      <trkpt lat="45.02979" lon="2.709">
        <ele>1086.91</ele>
        <time>2021-08-15T18:15:26Z</time>
      </trkpt>
      <trkpt lat="45.02973" lon="2.70901">
        <ele>1086.43</ele>
        <time>2021-08-15T18:15:27Z</time>
      </trkpt>
      <trkpt lat="45.02968" lon="2.70903">
        <ele>1085.95</ele>
        <time>2021-08-15T18:15:28Z</time>
      </trkpt>
      <trkpt lat="45.02963" lon="2.70906">
        <ele>1085.95</ele>
        <time>2021-08-15T18:15:29Z</time>
      </trkpt>
      <trkpt lat="45.02959" lon="2.7091">
        <ele>1085.95</ele>
        <time>2021-08-15T18:15:30Z</time>
      </trkpt>
      <trkpt lat="45.02955" lon="2.70915">
        <ele>1085.95</ele>
        <time>2021-08-15T18:15:31Z</time>
      </trkpt>
      <trkpt lat="45.02951" lon="2.7092">
        <ele>1085.95</ele>
        <time>2021-08-15T18:15:32Z</time>
      </trkpt>
      <trkpt lat="45.02947" lon="2.70926">
        <ele>1085.95</ele>
        <time>2021-08-15T18:15:33Z</time>
      </trkpt>
      <trkpt lat="45.02944" lon="2.70931">
        <ele>1085.95</ele>
        <time>2021-08-15T18:15:34Z</time>
      </trkpt>
      <trkpt lat="45.02934" lon="2.70947">
        <ele>1085.95</ele>
        <time>2021-08-15T18:15:37Z</time>
      </trkpt>
      <trkpt lat="45.02923" lon="2.7096">
        <ele>1085.95</ele>
        <time>2021-08-15T18:15:40Z</time>
      </trkpt>
      <trkpt lat="45.02919" lon="2.70963">
        <ele>1085.95</ele>
        <time>2021-08-15T18:15:41Z</time>
      </trkpt>
      <trkpt lat="45.02915" lon="2.70966">
        <ele>1085.95</ele>
        <time>2021-08-15T18:15:42Z</time>
      </trkpt>
      <trkpt lat="45.02888" lon="2.70978">
        <ele>1087.39</ele>
        <time>2021-08-15T18:15:50Z</time>
      </trkpt>
      <trkpt lat="45.02886" lon="2.70977">
        <ele>1087.39</ele>
        <time>2021-08-15T18:15:51Z</time>
      </trkpt>
      <trkpt lat="45.02884" lon="2.70976">
        <ele>1087.87</ele>
        <time>2021-08-15T18:15:52Z</time>
      </trkpt>
      <trkpt lat="45.02883" lon="2.70974">
        <ele>1087.87</ele>
        <time>2021-08-15T18:15:53Z</time>
      </trkpt>
      <trkpt lat="45.02882" lon="2.70973">
        <ele>1088.35</ele>
        <time>2021-08-15T18:15:54Z</time>
      </trkpt>
      <trkpt lat="45.02881" lon="2.70971">
        <ele>1088.35</ele>
        <time>2021-08-15T18:15:55Z</time>
      </trkpt>
      <trkpt lat="45.0288" lon="2.7097">
        <ele>1088.83</ele>
        <time>2021-08-15T18:15:56Z</time>
      </trkpt>
      <trkpt lat="45.0288" lon="2.70968">
        <ele>1088.83</ele>
        <time>2021-08-15T18:15:57Z</time>
      </trkpt>
      <trkpt lat="45.0288" lon="2.70967">
        <ele>1088.83</ele>
        <time>2021-08-15T18:15:58Z</time>
      </trkpt>
      <trkpt lat="45.0288" lon="2.70966">
        <ele>1089.79</ele>
        <time>2021-08-15T18:15:59Z</time>
      </trkpt>
      <trkpt lat="45.0288" lon="2.70964">
        <ele>1089.31</ele>
        <time>2021-08-15T18:16:00Z</time>
      </trkpt>
      <trkpt lat="45.0288" lon="2.70963">
        <ele>1089.79</ele>
        <time>2021-08-15T18:16:01Z</time>
      </trkpt>
      <trkpt lat="45.0288" lon="2.70961">
        <ele>1089.79</ele>
        <time>2021-08-15T18:16:02Z</time>
      </trkpt>
      <trkpt lat="45.02877" lon="2.70941">
        <ele>1090.75</ele>
        <time>2021-08-15T18:16:11Z</time>
      </trkpt>
      <trkpt lat="45.0287" lon="2.70912">
        <ele>1092.2</ele>
        <time>2021-08-15T18:16:20Z</time>
      </trkpt>
      <trkpt lat="45.02858" lon="2.70879">
        <ele>1092.68</ele>
        <time>2021-08-15T18:16:29Z</time>
      </trkpt>
      <trkpt lat="45.02841" lon="2.70843">
        <ele>1092.68</ele>
        <time>2021-08-15T18:16:37Z</time>
      </trkpt>
      <trkpt lat="45.02838" lon="2.70835">
        <ele>1090.75</ele>
        <time>2021-08-15T18:16:38Z</time>
      </trkpt>
      <trkpt lat="45.02834" lon="2.7082">
        <ele>1089.79</ele>
        <time>2021-08-15T18:16:40Z</time>
      </trkpt>
      <trkpt lat="45.02833" lon="2.7081">
        <ele>1089.31</ele>
        <time>2021-08-15T18:16:41Z</time>
      </trkpt>
      <trkpt lat="45.02831" lon="2.708">
        <ele>1088.83</ele>
        <time>2021-08-15T18:16:42Z</time>
      </trkpt>
      <trkpt lat="45.02829" lon="2.70779">
        <ele>1087.87</ele>
        <time>2021-08-15T18:16:44Z</time>
      </trkpt>
      <trkpt lat="45.02813" lon="2.70719">
        <ele>1086.43</ele>
        <time>2021-08-15T18:16:50Z</time>
      </trkpt>
      <trkpt lat="45.02792" lon="2.70672">
        <ele>1083.54</ele>
        <time>2021-08-15T18:16:55Z</time>
      </trkpt>
      <trkpt lat="45.02788" lon="2.70663">
        <ele>1083.54</ele>
        <time>2021-08-15T18:16:56Z</time>
      </trkpt>
      <trkpt lat="45.0277" lon="2.70593">
        <ele>1079.7</ele>
        <time>2021-08-15T18:17:02Z</time>
      </trkpt>
      <trkpt lat="45.02765" lon="2.70536">
        <ele>1075.37</ele>
        <time>2021-08-15T18:17:06Z</time>
      </trkpt>
      <trkpt lat="45.02769" lon="2.7049">
        <ele>1072.49</ele>
        <time>2021-08-15T18:17:09Z</time>
      </trkpt>
      <trkpt lat="45.02777" lon="2.70449">
        <ele>1071.05</ele>
        <time>2021-08-15T18:17:12Z</time>
      </trkpt>
      <trkpt lat="45.02783" lon="2.70412">
        <ele>1069.6</ele>
        <time>2021-08-15T18:17:15Z</time>
      </trkpt>
      <trkpt lat="45.02786" lon="2.70401">
        <ele>1069.12</ele>
        <time>2021-08-15T18:17:16Z</time>
      </trkpt>
      <trkpt lat="45.0279" lon="2.7039">
        <ele>1068.16</ele>
        <time>2021-08-15T18:17:17Z</time>
      </trkpt>
      <trkpt lat="45.02797" lon="2.70368">
        <ele>1067.68</ele>
        <time>2021-08-15T18:17:19Z</time>
      </trkpt>
      <trkpt lat="45.02798" lon="2.70357">
        <ele>1066.72</ele>
        <time>2021-08-15T18:17:20Z</time>
      </trkpt>
      <trkpt lat="45.02797" lon="2.70346">
        <ele>1066.72</ele>
        <time>2021-08-15T18:17:21Z</time>
      </trkpt>
      <trkpt lat="45.02794" lon="2.70334">
        <ele>1065.28</ele>
        <time>2021-08-15T18:17:22Z</time>
      </trkpt>
      <trkpt lat="45.0279" lon="2.70324">
        <ele>1064.8</ele>
        <time>2021-08-15T18:17:23Z</time>
      </trkpt>
      <trkpt lat="45.02786" lon="2.70314">
        <ele>1063.84</ele>
        <time>2021-08-15T18:17:24Z</time>
      </trkpt>
      <trkpt lat="45.02763" lon="2.70273">
        <ele>1060.95</ele>
        <time>2021-08-15T18:17:28Z</time>
      </trkpt>
      <trkpt lat="45.02755" lon="2.70264">
        <ele>1060.47</ele>
        <time>2021-08-15T18:17:29Z</time>
      </trkpt>
      <trkpt lat="45.02746" lon="2.70257">
        <ele>1059.51</ele>
        <time>2021-08-15T18:17:30Z</time>
      </trkpt>
      <trkpt lat="45.02737" lon="2.7025">
        <ele>1058.07</ele>
        <time>2021-08-15T18:17:31Z</time>
      </trkpt>
      <trkpt lat="45.02728" lon="2.70244">
        <ele>1057.59</ele>
        <time>2021-08-15T18:17:32Z</time>
      </trkpt>
      <trkpt lat="45.02672" lon="2.70211">
        <ele>1053.74</ele>
        <time>2021-08-15T18:17:38Z</time>
      </trkpt>
      <trkpt lat="45.02642" lon="2.70192">
        <ele>1050.86</ele>
        <time>2021-08-15T18:17:41Z</time>
      </trkpt>
      <trkpt lat="45.02614" lon="2.70174">
        <ele>1047.49</ele>
        <time>2021-08-15T18:17:44Z</time>
      </trkpt>
      <trkpt lat="45.02597" lon="2.70165">
        <ele>1045.57</ele>
        <time>2021-08-15T18:17:46Z</time>
      </trkpt>
      <trkpt lat="45.02589" lon="2.70163">
        <ele>1044.13</ele>
        <time>2021-08-15T18:17:47Z</time>
      </trkpt>
      <trkpt lat="45.02582" lon="2.70163">
        <ele>1043.17</ele>
        <time>2021-08-15T18:17:48Z</time>
      </trkpt>
      <trkpt lat="45.02575" lon="2.70164">
        <ele>1042.21</ele>
        <time>2021-08-15T18:17:49Z</time>
      </trkpt>
      <trkpt lat="45.02568" lon="2.70166">
        <ele>1041.25</ele>
        <time>2021-08-15T18:17:50Z</time>
      </trkpt>
      <trkpt lat="45.02563" lon="2.7017">
        <ele>1040.76</ele>
        <time>2021-08-15T18:17:51Z</time>
      </trkpt>
      <trkpt lat="45.02558" lon="2.70174">
        <ele>1039.32</ele>
        <time>2021-08-15T18:17:52Z</time>
      </trkpt>
      <trkpt lat="45.02548" lon="2.70179">
        <ele>1037.88</ele>
        <time>2021-08-15T18:17:54Z</time>
      </trkpt>
      <trkpt lat="45.02545" lon="2.70179">
        <ele>1037.88</ele>
        <time>2021-08-15T18:17:55Z</time>
      </trkpt>
      <trkpt lat="45.02542" lon="2.70178">
        <ele>1037.4</ele>
        <time>2021-08-15T18:17:56Z</time>
      </trkpt>
      <trkpt lat="45.02539" lon="2.70176">
        <ele>1037.4</ele>
        <time>2021-08-15T18:17:57Z</time>
      </trkpt>
      <trkpt lat="45.02537" lon="2.70173">
        <ele>1036.44</ele>
        <time>2021-08-15T18:17:58Z</time>
      </trkpt>
      <trkpt lat="45.02536" lon="2.70172">
        <ele>1036.44</ele>
        <time>2021-08-15T18:17:59Z</time>
      </trkpt>
      <trkpt lat="45.02534" lon="2.70172">
        <ele>1036.92</ele>
        <time>2021-08-15T18:18:00Z</time>
      </trkpt>
      <trkpt lat="45.02533" lon="2.70174">
        <ele>1037.4</ele>
        <time>2021-08-15T18:18:01Z</time>
      </trkpt>
      <trkpt lat="45.02532" lon="2.70176">
        <ele>1037.4</ele>
        <time>2021-08-15T18:18:02Z</time>
      </trkpt>
      <trkpt lat="45.0253" lon="2.7018">
        <ele>1036.92</ele>
        <time>2021-08-15T18:18:04Z</time>
      </trkpt>
      <trkpt lat="45.02529" lon="2.70182">
        <ele>1036.92</ele>
        <time>2021-08-15T18:18:05Z</time>
      </trkpt>
      <trkpt lat="45.02527" lon="2.70183">
        <ele>1036.92</ele>
        <time>2021-08-15T18:18:06Z</time>
      </trkpt>
      <trkpt lat="45.02525" lon="2.70183">
        <ele>1036.44</ele>
        <time>2021-08-15T18:18:07Z</time>
      </trkpt>
      <trkpt lat="45.02524" lon="2.70183">
        <ele>1036.44</ele>
        <time>2021-08-15T18:18:08Z</time>
      </trkpt>
      <trkpt lat="45.02522" lon="2.70183">
        <ele>1035.96</ele>
        <time>2021-08-15T18:18:09Z</time>
      </trkpt>
      <trkpt lat="45.0252" lon="2.70182">
        <ele>1035.96</ele>
        <time>2021-08-15T18:18:10Z</time>
      </trkpt>
      <trkpt lat="45.02518" lon="2.70182">
        <ele>1035.48</ele>
        <time>2021-08-15T18:18:11Z</time>
      </trkpt>
      <trkpt lat="45.02517" lon="2.70181">
        <ele>1035.48</ele>
        <time>2021-08-15T18:18:12Z</time>
      </trkpt>
      <trkpt lat="45.02516" lon="2.70181">
        <ele>1035.48</ele>
        <time>2021-08-15T18:18:13Z</time>
      </trkpt>
      <trkpt lat="45.02513" lon="2.7018">
        <ele>1035</ele>
        <time>2021-08-15T18:18:21Z</time>
      </trkpt>
      <trkpt lat="45.02512" lon="2.70177">
        <ele>1035</ele>
        <time>2021-08-15T18:18:25Z</time>
      </trkpt>
      <trkpt lat="45.02512" lon="2.70175">
        <ele>1035</ele>
        <time>2021-08-15T18:18:26Z</time>
      </trkpt>
      <trkpt lat="45.02509" lon="2.70159">
        <ele>1033.55</ele>
        <time>2021-08-15T18:18:31Z</time>
      </trkpt>
      <trkpt lat="45.02494" lon="2.7013">
        <ele>1031.63</ele>
        <time>2021-08-15T18:18:38Z</time>
      </trkpt>
      <trkpt lat="45.02488" lon="2.70104">
        <ele>1028.75</ele>
        <time>2021-08-15T18:18:44Z</time>
      </trkpt>
      <trkpt lat="45.02488" lon="2.701">
        <ele>1028.75</ele>
        <time>2021-08-15T18:18:45Z</time>
      </trkpt>
      <trkpt lat="45.02488" lon="2.70095">
        <ele>1028.75</ele>
        <time>2021-08-15T18:18:46Z</time>
      </trkpt>
      <trkpt lat="45.02487" lon="2.70089">
        <ele>1028.75</ele>
        <time>2021-08-15T18:18:47Z</time>
      </trkpt>
      <trkpt lat="45.02486" lon="2.70082">
        <ele>1027.79</ele>
        <time>2021-08-15T18:18:48Z</time>
      </trkpt>
      <trkpt lat="45.02484" lon="2.70075">
        <ele>1025.86</ele>
        <time>2021-08-15T18:18:49Z</time>
      </trkpt>
      <trkpt lat="45.02483" lon="2.70068">
        <ele>1025.38</ele>
        <time>2021-08-15T18:18:50Z</time>
      </trkpt>
      <trkpt lat="45.02478" lon="2.7005">
        <ele>1021.54</ele>
        <time>2021-08-15T18:18:52Z</time>
      </trkpt>
      <trkpt lat="45.0247" lon="2.70026">
        <ele>1017.69</ele>
        <time>2021-08-15T18:18:55Z</time>
      </trkpt>
      <trkpt lat="45.02469" lon="2.70017">
        <ele>1016.25</ele>
        <time>2021-08-15T18:18:56Z</time>
      </trkpt>
      <trkpt lat="45.02468" lon="2.70006">
        <ele>1013.85</ele>
        <time>2021-08-15T18:18:57Z</time>
      </trkpt>
      <trkpt lat="45.02466" lon="2.69975">
        <ele>1010</ele>
        <time>2021-08-15T18:19:00Z</time>
      </trkpt>
      <trkpt lat="45.02464" lon="2.69966">
        <ele>1009.52</ele>
        <time>2021-08-15T18:19:01Z</time>
      </trkpt>
      <trkpt lat="45.0246" lon="2.69958">
        <ele>1007.6</ele>
        <time>2021-08-15T18:19:02Z</time>
      </trkpt>
      <trkpt lat="45.02451" lon="2.69943">
        <ele>1004.72</ele>
        <time>2021-08-15T18:19:04Z</time>
      </trkpt>
      <trkpt lat="45.02446" lon="2.69937">
        <ele>1003.27</ele>
        <time>2021-08-15T18:19:05Z</time>
      </trkpt>
      <trkpt lat="45.02443" lon="2.69931">
        <ele>1001.35</ele>
        <time>2021-08-15T18:19:06Z</time>
      </trkpt>
      <trkpt lat="45.02441" lon="2.69924">
        <ele>999.91</ele>
        <time>2021-08-15T18:19:07Z</time>
      </trkpt>
      <trkpt lat="45.02441" lon="2.69917">
        <ele>998.95</ele>
        <time>2021-08-15T18:19:08Z</time>
      </trkpt>
      <trkpt lat="45.02443" lon="2.69908">
        <ele>998.47</ele>
        <time>2021-08-15T18:19:09Z</time>
      </trkpt>
      <trkpt lat="45.02445" lon="2.69898">
        <ele>997.51</ele>
        <time>2021-08-15T18:19:10Z</time>
      </trkpt>
      <trkpt lat="45.02448" lon="2.69888">
        <ele>995.58</ele>
        <time>2021-08-15T18:19:11Z</time>
      </trkpt>
      <trkpt lat="45.02452" lon="2.6988">
        <ele>995.1</ele>
        <time>2021-08-15T18:19:12Z</time>
      </trkpt>
      <trkpt lat="45.0246" lon="2.69865">
        <ele>995.1</ele>
        <time>2021-08-15T18:19:14Z</time>
      </trkpt>
      <trkpt lat="45.02468" lon="2.69842">
        <ele>994.62</ele>
        <time>2021-08-15T18:19:18Z</time>
      </trkpt>
      <trkpt lat="45.02463" lon="2.69821">
        <ele>992.7</ele>
        <time>2021-08-15T18:19:23Z</time>
      </trkpt>
      <trkpt lat="45.02457" lon="2.69801">
        <ele>990.3</ele>
        <time>2021-08-15T18:19:27Z</time>
      </trkpt>
      <trkpt lat="45.0245" lon="2.69781">
        <ele>986.93</ele>
        <time>2021-08-15T18:19:33Z</time>
      </trkpt>
      <trkpt lat="45.02452" lon="2.69763">
        <ele>983.57</ele>
        <time>2021-08-15T18:19:38Z</time>
      </trkpt>
      <trkpt lat="45.02453" lon="2.69749">
        <ele>981.64</ele>
        <time>2021-08-15T18:19:42Z</time>
      </trkpt>
      <trkpt lat="45.02452" lon="2.69747">
        <ele>981.16</ele>
        <time>2021-08-15T18:19:43Z</time>
      </trkpt>
      <trkpt lat="45.02449" lon="2.69742">
        <ele>980.68</ele>
        <time>2021-08-15T18:19:45Z</time>
      </trkpt>
      <trkpt lat="45.02441" lon="2.69729">
        <ele>976.84</ele>
        <time>2021-08-15T18:19:50Z</time>
      </trkpt>
      <trkpt lat="45.02433" lon="2.69715">
        <ele>974.43</ele>
        <time>2021-08-15T18:19:56Z</time>
      </trkpt>
      <trkpt lat="45.02433" lon="2.69713">
        <ele>973.95</ele>
        <time>2021-08-15T18:19:57Z</time>
      </trkpt>
      <trkpt lat="45.02432" lon="2.69711">
        <ele>973.47</ele>
        <time>2021-08-15T18:19:58Z</time>
      </trkpt>
      <trkpt lat="45.02425" lon="2.69701">
        <ele>971.07</ele>
        <time>2021-08-15T18:20:04Z</time>
      </trkpt>
      <trkpt lat="45.02423" lon="2.69698">
        <ele>970.11</ele>
        <time>2021-08-15T18:20:05Z</time>
      </trkpt>
      <trkpt lat="45.02422" lon="2.69696">
        <ele>969.63</ele>
        <time>2021-08-15T18:20:06Z</time>
      </trkpt>
      <trkpt lat="45.02421" lon="2.69693">
        <ele>969.15</ele>
        <time>2021-08-15T18:20:07Z</time>
      </trkpt>
      <trkpt lat="45.0242" lon="2.69691">
        <ele>969.15</ele>
        <time>2021-08-15T18:20:08Z</time>
      </trkpt>
      <trkpt lat="45.0242" lon="2.69689">
        <ele>968.18</ele>
        <time>2021-08-15T18:20:09Z</time>
      </trkpt>
      <trkpt lat="45.0242" lon="2.69687">
        <ele>968.18</ele>
        <time>2021-08-15T18:20:10Z</time>
      </trkpt>
      <trkpt lat="45.0242" lon="2.69684">
        <ele>967.7</ele>
        <time>2021-08-15T18:20:11Z</time>
      </trkpt>
      <trkpt lat="45.02422" lon="2.69667">
        <ele>964.34</ele>
        <time>2021-08-15T18:20:18Z</time>
      </trkpt>
      <trkpt lat="45.0243" lon="2.69655">
        <ele>960.98</ele>
        <time>2021-08-15T18:20:25Z</time>
      </trkpt>
      <trkpt lat="45.02431" lon="2.69655">
        <ele>960.98</ele>
        <time>2021-08-15T18:20:26Z</time>
      </trkpt>
      <trkpt lat="45.02432" lon="2.69656">
        <ele>960.98</ele>
        <time>2021-08-15T18:20:27Z</time>
      </trkpt>
      <trkpt lat="45.02432" lon="2.69657">
        <ele>960.49</ele>
        <time>2021-08-15T18:20:28Z</time>
      </trkpt>
      <trkpt lat="45.02432" lon="2.69659">
        <ele>960.49</ele>
        <time>2021-08-15T18:20:29Z</time>
      </trkpt>
      <trkpt lat="45.02438" lon="2.69668">
        <ele>957.61</ele>
        <time>2021-08-15T18:20:35Z</time>
      </trkpt>
      <trkpt lat="45.02439" lon="2.69669">
        <ele>956.65</ele>
        <time>2021-08-15T18:20:36Z</time>
      </trkpt>
      <trkpt lat="45.0244" lon="2.69671">
        <ele>956.65</ele>
        <time>2021-08-15T18:20:37Z</time>
      </trkpt>
      <trkpt lat="45.02442" lon="2.69673">
        <ele>955.69</ele>
        <time>2021-08-15T18:20:38Z</time>
      </trkpt>
      <trkpt lat="45.02443" lon="2.69674">
        <ele>955.21</ele>
        <time>2021-08-15T18:20:39Z</time>
      </trkpt>
      <trkpt lat="45.02445" lon="2.69673">
        <ele>955.21</ele>
        <time>2021-08-15T18:20:40Z</time>
      </trkpt>
      <trkpt lat="45.02446" lon="2.69671">
        <ele>954.73</ele>
        <time>2021-08-15T18:20:41Z</time>
      </trkpt>
      <trkpt lat="45.02445" lon="2.69668">
        <ele>954.25</ele>
        <time>2021-08-15T18:20:43Z</time>
      </trkpt>
      <trkpt lat="45.02446" lon="2.69663">
        <ele>952.8</ele>
        <time>2021-08-15T18:20:47Z</time>
      </trkpt>
      <trkpt lat="45.02457" lon="2.69671">
        <ele>949.92</ele>
        <time>2021-08-15T18:20:55Z</time>
      </trkpt>
      <trkpt lat="45.02467" lon="2.69674">
        <ele>948</ele>
        <time>2021-08-15T18:21:02Z</time>
      </trkpt>
      <trkpt lat="45.0247" lon="2.69675">
        <ele>947.52</ele>
        <time>2021-08-15T18:21:04Z</time>
      </trkpt>
      <trkpt lat="45.02471" lon="2.69676">
        <ele>947.04</ele>
        <time>2021-08-15T18:21:05Z</time>
      </trkpt>
      <trkpt lat="45.02472" lon="2.69676">
        <ele>947.04</ele>
        <time>2021-08-15T18:21:06Z</time>
      </trkpt>
      <trkpt lat="45.02474" lon="2.69677">
        <ele>946.56</ele>
        <time>2021-08-15T18:21:07Z</time>
      </trkpt>
      <trkpt lat="45.02475" lon="2.69676">
        <ele>946.56</ele>
        <time>2021-08-15T18:21:08Z</time>
      </trkpt>
      <trkpt lat="45.02479" lon="2.69677">
        <ele>945.59</ele>
        <time>2021-08-15T18:21:14Z</time>
      </trkpt>
      <trkpt lat="45.0249" lon="2.69677">
        <ele>942.23</ele>
        <time>2021-08-15T18:21:20Z</time>
      </trkpt>
      <trkpt lat="45.02492" lon="2.69675">
        <ele>941.75</ele>
        <time>2021-08-15T18:21:21Z</time>
      </trkpt>
      <trkpt lat="45.02493" lon="2.69674">
        <ele>941.27</ele>
        <time>2021-08-15T18:21:22Z</time>
      </trkpt>
      <trkpt lat="45.02494" lon="2.69672">
        <ele>940.79</ele>
        <time>2021-08-15T18:21:23Z</time>
      </trkpt>
      <trkpt lat="45.02493" lon="2.6967">
        <ele>940.79</ele>
        <time>2021-08-15T18:21:24Z</time>
      </trkpt>
      <trkpt lat="45.02493" lon="2.69669">
        <ele>939.83</ele>
        <time>2021-08-15T18:21:25Z</time>
      </trkpt>
      <trkpt lat="45.02492" lon="2.69667">
        <ele>939.83</ele>
        <time>2021-08-15T18:21:26Z</time>
      </trkpt>
      <trkpt lat="45.02492" lon="2.69665">
        <ele>938.86</ele>
        <time>2021-08-15T18:21:27Z</time>
      </trkpt>
      <trkpt lat="45.02493" lon="2.69663">
        <ele>938.86</ele>
        <time>2021-08-15T18:21:28Z</time>
      </trkpt>
      <trkpt lat="45.02495" lon="2.69662">
        <ele>938.38</ele>
        <time>2021-08-15T18:21:29Z</time>
      </trkpt>
      <trkpt lat="45.02496" lon="2.69661">
        <ele>937.9</ele>
        <time>2021-08-15T18:21:30Z</time>
      </trkpt>
      <trkpt lat="45.02498" lon="2.69661">
        <ele>937.9</ele>
        <time>2021-08-15T18:21:31Z</time>
      </trkpt>
      <trkpt lat="45.025" lon="2.69662">
        <ele>936.94</ele>
        <time>2021-08-15T18:21:32Z</time>
      </trkpt>
      <trkpt lat="45.02501" lon="2.69663">
        <ele>936.46</ele>
        <time>2021-08-15T18:21:33Z</time>
      </trkpt>
      <trkpt lat="45.02503" lon="2.69664">
        <ele>935.98</ele>
        <time>2021-08-15T18:21:34Z</time>
      </trkpt>
      <trkpt lat="45.02506" lon="2.69665">
        <ele>935.5</ele>
        <time>2021-08-15T18:21:35Z</time>
      </trkpt>
      <trkpt lat="45.02508" lon="2.69665">
        <ele>934.54</ele>
        <time>2021-08-15T18:21:36Z</time>
      </trkpt>
      <trkpt lat="45.0251" lon="2.69664">
        <ele>934.06</ele>
        <time>2021-08-15T18:21:37Z</time>
      </trkpt>
      <trkpt lat="45.02513" lon="2.69664">
        <ele>933.58</ele>
        <time>2021-08-15T18:21:38Z</time>
      </trkpt>
      <trkpt lat="45.02521" lon="2.69661">
        <ele>931.65</ele>
        <time>2021-08-15T18:21:41Z</time>
      </trkpt>
      <trkpt lat="45.02537" lon="2.69656">
        <ele>928.29</ele>
        <time>2021-08-15T18:21:47Z</time>
      </trkpt>
      <trkpt lat="45.02546" lon="2.69653">
        <ele>927.33</ele>
        <time>2021-08-15T18:21:49Z</time>
      </trkpt>
      <trkpt lat="45.02556" lon="2.69652">
        <ele>926.85</ele>
        <time>2021-08-15T18:21:51Z</time>
      </trkpt>
      <trkpt lat="45.02561" lon="2.69653">
        <ele>926.37</ele>
        <time>2021-08-15T18:21:52Z</time>
      </trkpt>
      <trkpt lat="45.02572" lon="2.69655">
        <ele>925.41</ele>
        <time>2021-08-15T18:21:54Z</time>
      </trkpt>
      <trkpt lat="45.02582" lon="2.69657">
        <ele>924.45</ele>
        <time>2021-08-15T18:21:56Z</time>
      </trkpt>
      <trkpt lat="45.02587" lon="2.69659">
        <ele>923.48</ele>
        <time>2021-08-15T18:21:57Z</time>
      </trkpt>
      <trkpt lat="45.02602" lon="2.69666">
        <ele>922.04</ele>
        <time>2021-08-15T18:22:01Z</time>
      </trkpt>
      <trkpt lat="45.02606" lon="2.69664">
        <ele>921.56</ele>
        <time>2021-08-15T18:22:03Z</time>
      </trkpt>
      <trkpt lat="45.02608" lon="2.69661">
        <ele>921.56</ele>
        <time>2021-08-15T18:22:04Z</time>
      </trkpt>
      <trkpt lat="45.0261" lon="2.69656">
        <ele>921.08</ele>
        <time>2021-08-15T18:22:09Z</time>
      </trkpt>
      <trkpt lat="45.02613" lon="2.6966">
        <ele>921.08</ele>
        <time>2021-08-15T18:22:26Z</time>
      </trkpt>
      <trkpt lat="45.02614" lon="2.69659">
        <ele>921.08</ele>
        <time>2021-08-15T18:22:29Z</time>
      </trkpt>
      <trkpt lat="45.02616" lon="2.69658">
        <ele>920.6</ele>
        <time>2021-08-15T18:22:30Z</time>
      </trkpt>
      <trkpt lat="45.02618" lon="2.69658">
        <ele>920.6</ele>
        <time>2021-08-15T18:22:31Z</time>
      </trkpt>
      <trkpt lat="45.02635" lon="2.69655">
        <ele>917.24</ele>
        <time>2021-08-15T18:22:38Z</time>
      </trkpt>
      <trkpt lat="45.02653" lon="2.69661">
        <ele>914.35</ele>
        <time>2021-08-15T18:22:44Z</time>
      </trkpt>
      <trkpt lat="45.02655" lon="2.69662">
        <ele>914.35</ele>
        <time>2021-08-15T18:22:45Z</time>
      </trkpt>
      <trkpt lat="45.02668" lon="2.69663">
        <ele>910.99</ele>
        <time>2021-08-15T18:22:50Z</time>
      </trkpt>
      <trkpt lat="45.0267" lon="2.69663">
        <ele>910.99</ele>
        <time>2021-08-15T18:22:51Z</time>
      </trkpt>
      <trkpt lat="45.02683" lon="2.69654">
        <ele>907.62</ele>
        <time>2021-08-15T18:22:57Z</time>
      </trkpt>
      <trkpt lat="45.02694" lon="2.69642">
        <ele>904.26</ele>
        <time>2021-08-15T18:23:01Z</time>
      </trkpt>
      <trkpt lat="45.02699" lon="2.69635">
        <ele>902.82</ele>
        <time>2021-08-15T18:23:03Z</time>
      </trkpt>
      <trkpt lat="45.02699" lon="2.69631">
        <ele>901.85</ele>
        <time>2021-08-15T18:23:04Z</time>
      </trkpt>
      <trkpt lat="45.02698" lon="2.69627">
        <ele>901.37</ele>
        <time>2021-08-15T18:23:05Z</time>
      </trkpt>
      <trkpt lat="45.02698" lon="2.69623">
        <ele>901.37</ele>
        <time>2021-08-15T18:23:06Z</time>
      </trkpt>
      <trkpt lat="45.02698" lon="2.69617">
        <ele>900.89</ele>
        <time>2021-08-15T18:23:07Z</time>
      </trkpt>
      <trkpt lat="45.02699" lon="2.69613">
        <ele>900.89</ele>
        <time>2021-08-15T18:23:08Z</time>
      </trkpt>
      <trkpt lat="45.02699" lon="2.69608">
        <ele>900.41</ele>
        <time>2021-08-15T18:23:09Z</time>
      </trkpt>
      <trkpt lat="45.027" lon="2.69604">
        <ele>899.45</ele>
        <time>2021-08-15T18:23:10Z</time>
      </trkpt>
      <trkpt lat="45.02701" lon="2.696">
        <ele>899.45</ele>
        <time>2021-08-15T18:23:11Z</time>
      </trkpt>
      <trkpt lat="45.02702" lon="2.69596">
        <ele>898.97</ele>
        <time>2021-08-15T18:23:12Z</time>
      </trkpt>
      <trkpt lat="45.02702" lon="2.69591">
        <ele>898.49</ele>
        <time>2021-08-15T18:23:13Z</time>
      </trkpt>
      <trkpt lat="45.02703" lon="2.69587">
        <ele>898.49</ele>
        <time>2021-08-15T18:23:14Z</time>
      </trkpt>
      <trkpt lat="45.02703" lon="2.69582">
        <ele>898.49</ele>
        <time>2021-08-15T18:23:15Z</time>
      </trkpt>
      <trkpt lat="45.02708" lon="2.69548">
        <ele>896.09</ele>
        <time>2021-08-15T18:23:22Z</time>
      </trkpt>
      <trkpt lat="45.02705" lon="2.69536">
        <ele>895.12</ele>
        <time>2021-08-15T18:23:25Z</time>
      </trkpt>
      <trkpt lat="45.02702" lon="2.69533">
        <ele>894.16</ele>
        <time>2021-08-15T18:23:26Z</time>
      </trkpt>
      <trkpt lat="45.02699" lon="2.69532">
        <ele>894.16</ele>
        <time>2021-08-15T18:23:27Z</time>
      </trkpt>
      <trkpt lat="45.02686" lon="2.6953">
        <ele>892.24</ele>
        <time>2021-08-15T18:23:30Z</time>
      </trkpt>
      <trkpt lat="45.02681" lon="2.69528">
        <ele>891.76</ele>
        <time>2021-08-15T18:23:31Z</time>
      </trkpt>
      <trkpt lat="45.02677" lon="2.69526">
        <ele>891.76</ele>
        <time>2021-08-15T18:23:32Z</time>
      </trkpt>
      <trkpt lat="45.02674" lon="2.69525">
        <ele>891.28</ele>
        <time>2021-08-15T18:23:33Z</time>
      </trkpt>
      <trkpt lat="45.02671" lon="2.69525">
        <ele>891.28</ele>
        <time>2021-08-15T18:23:34Z</time>
      </trkpt>
      <trkpt lat="45.02668" lon="2.69527">
        <ele>890.8</ele>
        <time>2021-08-15T18:23:35Z</time>
      </trkpt>
      <trkpt lat="45.02655" lon="2.69537">
        <ele>888.4</ele>
        <time>2021-08-15T18:23:39Z</time>
      </trkpt>
      <trkpt lat="45.02651" lon="2.6954">
        <ele>888.4</ele>
        <time>2021-08-15T18:23:40Z</time>
      </trkpt>
      <trkpt lat="45.02646" lon="2.69542">
        <ele>887.43</ele>
        <time>2021-08-15T18:23:41Z</time>
      </trkpt>
      <trkpt lat="45.02642" lon="2.69541">
        <ele>886.95</ele>
        <time>2021-08-15T18:23:42Z</time>
      </trkpt>
      <trkpt lat="45.02637" lon="2.69539">
        <ele>886.47</ele>
        <time>2021-08-15T18:23:43Z</time>
      </trkpt>
      <trkpt lat="45.02634" lon="2.69534">
        <ele>885.51</ele>
        <time>2021-08-15T18:23:44Z</time>
      </trkpt>
      <trkpt lat="45.02632" lon="2.69527">
        <ele>885.51</ele>
        <time>2021-08-15T18:23:45Z</time>
      </trkpt>
      <trkpt lat="45.0263" lon="2.6952">
        <ele>884.55</ele>
        <time>2021-08-15T18:23:46Z</time>
      </trkpt>
      <trkpt lat="45.0263" lon="2.69513">
        <ele>884.55</ele>
        <time>2021-08-15T18:23:47Z</time>
      </trkpt>
      <trkpt lat="45.02631" lon="2.69507">
        <ele>884.55</ele>
        <time>2021-08-15T18:23:48Z</time>
      </trkpt>
      <trkpt lat="45.02632" lon="2.69502">
        <ele>884.07</ele>
        <time>2021-08-15T18:23:49Z</time>
      </trkpt>
      <trkpt lat="45.02631" lon="2.69496">
        <ele>883.59</ele>
        <time>2021-08-15T18:23:50Z</time>
      </trkpt>
      <trkpt lat="45.02629" lon="2.69491">
        <ele>883.11</ele>
        <time>2021-08-15T18:23:51Z</time>
      </trkpt>
      <trkpt lat="45.02628" lon="2.69486">
        <ele>882.15</ele>
        <time>2021-08-15T18:23:52Z</time>
      </trkpt>
      <trkpt lat="45.02626" lon="2.69481">
        <ele>882.15</ele>
        <time>2021-08-15T18:23:53Z</time>
      </trkpt>
      <trkpt lat="45.02625" lon="2.69473">
        <ele>881.19</ele>
        <time>2021-08-15T18:23:54Z</time>
      </trkpt>
      <trkpt lat="45.02624" lon="2.69465">
        <ele>881.19</ele>
        <time>2021-08-15T18:23:55Z</time>
      </trkpt>
      <trkpt lat="45.02624" lon="2.69456">
        <ele>881.19</ele>
        <time>2021-08-15T18:23:56Z</time>
      </trkpt>
      <trkpt lat="45.02625" lon="2.69448">
        <ele>880.71</ele>
        <time>2021-08-15T18:23:57Z</time>
      </trkpt>
      <trkpt lat="45.02624" lon="2.69438">
        <ele>880.22</ele>
        <time>2021-08-15T18:23:58Z</time>
      </trkpt>
      <trkpt lat="45.02622" lon="2.69428">
        <ele>879.74</ele>
        <time>2021-08-15T18:23:59Z</time>
      </trkpt>
      <trkpt lat="45.02619" lon="2.6942">
        <ele>878.78</ele>
        <time>2021-08-15T18:24:00Z</time>
      </trkpt>
      <trkpt lat="45.02616" lon="2.69413">
        <ele>878.78</ele>
        <time>2021-08-15T18:24:01Z</time>
      </trkpt>
      <trkpt lat="45.02612" lon="2.69407">
        <ele>878.3</ele>
        <time>2021-08-15T18:24:02Z</time>
      </trkpt>
      <trkpt lat="45.02609" lon="2.69405">
        <ele>877.82</ele>
        <time>2021-08-15T18:24:03Z</time>
      </trkpt>
      <trkpt lat="45.02604" lon="2.69407">
        <ele>877.34</ele>
        <time>2021-08-15T18:24:04Z</time>
      </trkpt>
      <trkpt lat="45.026" lon="2.6941">
        <ele>876.38</ele>
        <time>2021-08-15T18:24:05Z</time>
      </trkpt>
      <trkpt lat="45.02595" lon="2.69412">
        <ele>875.9</ele>
        <time>2021-08-15T18:24:06Z</time>
      </trkpt>
      <trkpt lat="45.0259" lon="2.69411">
        <ele>875.42</ele>
        <time>2021-08-15T18:24:07Z</time>
      </trkpt>
      <trkpt lat="45.02584" lon="2.69409">
        <ele>874.94</ele>
        <time>2021-08-15T18:24:08Z</time>
      </trkpt>
      <trkpt lat="45.02578" lon="2.69406">
        <ele>874.46</ele>
        <time>2021-08-15T18:24:09Z</time>
      </trkpt>
      <trkpt lat="45.02572" lon="2.69404">
        <ele>874.46</ele>
        <time>2021-08-15T18:24:10Z</time>
      </trkpt>
      <trkpt lat="45.02567" lon="2.69403">
        <ele>873.5</ele>
        <time>2021-08-15T18:24:11Z</time>
      </trkpt>
      <trkpt lat="45.02561" lon="2.69402">
        <ele>873.01</ele>
        <time>2021-08-15T18:24:12Z</time>
      </trkpt>
      <trkpt lat="45.02556" lon="2.69399">
        <ele>872.53</ele>
        <time>2021-08-15T18:24:13Z</time>
      </trkpt>
      <trkpt lat="45.0255" lon="2.69397">
        <ele>872.53</ele>
        <time>2021-08-15T18:24:14Z</time>
      </trkpt>
      <trkpt lat="45.02545" lon="2.69393">
        <ele>871.09</ele>
        <time>2021-08-15T18:24:15Z</time>
      </trkpt>
      <trkpt lat="45.0254" lon="2.69389">
        <ele>870.61</ele>
        <time>2021-08-15T18:24:16Z</time>
      </trkpt>
      <trkpt lat="45.02536" lon="2.69386">
        <ele>870.61</ele>
        <time>2021-08-15T18:24:17Z</time>
      </trkpt>
      <trkpt lat="45.02532" lon="2.69385">
        <ele>869.65</ele>
        <time>2021-08-15T18:24:18Z</time>
      </trkpt>
      <trkpt lat="45.02527" lon="2.69384">
        <ele>868.69</ele>
        <time>2021-08-15T18:24:19Z</time>
      </trkpt>
      <trkpt lat="45.02522" lon="2.69384">
        <ele>867.73</ele>
        <time>2021-08-15T18:24:20Z</time>
      </trkpt>
      <trkpt lat="45.02517" lon="2.69383">
        <ele>866.77</ele>
        <time>2021-08-15T18:24:21Z</time>
      </trkpt>
      <trkpt lat="45.02512" lon="2.69381">
        <ele>865.8</ele>
        <time>2021-08-15T18:24:22Z</time>
      </trkpt>
      <trkpt lat="45.02506" lon="2.69377">
        <ele>864.36</ele>
        <time>2021-08-15T18:24:23Z</time>
      </trkpt>
      <trkpt lat="45.02502" lon="2.69371">
        <ele>863.88</ele>
        <time>2021-08-15T18:24:24Z</time>
      </trkpt>
      <trkpt lat="45.02499" lon="2.69364">
        <ele>863.4</ele>
        <time>2021-08-15T18:24:25Z</time>
      </trkpt>
      <trkpt lat="45.02497" lon="2.69358">
        <ele>863.4</ele>
        <time>2021-08-15T18:24:26Z</time>
      </trkpt>
      <trkpt lat="45.02495" lon="2.69353">
        <ele>863.4</ele>
        <time>2021-08-15T18:24:27Z</time>
      </trkpt>
      <trkpt lat="45.02492" lon="2.69349">
        <ele>862.92</ele>
        <time>2021-08-15T18:24:28Z</time>
      </trkpt>
      <trkpt lat="45.02488" lon="2.69346">
        <ele>861.96</ele>
        <time>2021-08-15T18:24:29Z</time>
      </trkpt>
      <trkpt lat="45.02484" lon="2.69344">
        <ele>861.48</ele>
        <time>2021-08-15T18:24:30Z</time>
      </trkpt>
      <trkpt lat="45.02479" lon="2.69343">
        <ele>860.52</ele>
        <time>2021-08-15T18:24:31Z</time>
      </trkpt>
      <trkpt lat="45.02473" lon="2.69343">
        <ele>859.56</ele>
        <time>2021-08-15T18:24:32Z</time>
      </trkpt>
      <trkpt lat="45.0246" lon="2.6934">
        <ele>858.11</ele>
        <time>2021-08-15T18:24:34Z</time>
      </trkpt>
      <trkpt lat="45.02455" lon="2.69336">
        <ele>857.63</ele>
        <time>2021-08-15T18:24:35Z</time>
      </trkpt>
      <trkpt lat="45.02449" lon="2.6933">
        <ele>857.15</ele>
        <time>2021-08-15T18:24:36Z</time>
      </trkpt>
      <trkpt lat="45.02441" lon="2.69319">
        <ele>856.67</ele>
        <time>2021-08-15T18:24:38Z</time>
      </trkpt>
      <trkpt lat="45.02429" lon="2.693">
        <ele>856.19</ele>
        <time>2021-08-15T18:24:41Z</time>
      </trkpt>
      <trkpt lat="45.0242" lon="2.69289">
        <ele>855.71</ele>
        <time>2021-08-15T18:24:43Z</time>
      </trkpt>
      <trkpt lat="45.02417" lon="2.69281">
        <ele>854.75</ele>
        <time>2021-08-15T18:24:44Z</time>
      </trkpt>
      <trkpt lat="45.02415" lon="2.69273">
        <ele>854.27</ele>
        <time>2021-08-15T18:24:45Z</time>
      </trkpt>
      <trkpt lat="45.02412" lon="2.69266">
        <ele>854.27</ele>
        <time>2021-08-15T18:24:46Z</time>
      </trkpt>
      <trkpt lat="45.02409" lon="2.69261">
        <ele>853.79</ele>
        <time>2021-08-15T18:24:47Z</time>
      </trkpt>
      <trkpt lat="45.02406" lon="2.69257">
        <ele>853.31</ele>
        <time>2021-08-15T18:24:48Z</time>
      </trkpt>
      <trkpt lat="45.02402" lon="2.69252">
        <ele>852.83</ele>
        <time>2021-08-15T18:24:49Z</time>
      </trkpt>
      <trkpt lat="45.02399" lon="2.69246">
        <ele>851.87</ele>
        <time>2021-08-15T18:24:50Z</time>
      </trkpt>
      <trkpt lat="45.02396" lon="2.69239">
        <ele>851.38</ele>
        <time>2021-08-15T18:24:51Z</time>
      </trkpt>
      <trkpt lat="45.02395" lon="2.69231">
        <ele>849.94</ele>
        <time>2021-08-15T18:24:52Z</time>
      </trkpt>
      <trkpt lat="45.02395" lon="2.69223">
        <ele>848.98</ele>
        <time>2021-08-15T18:24:53Z</time>
      </trkpt>
      <trkpt lat="45.02396" lon="2.69214">
        <ele>848.5</ele>
        <time>2021-08-15T18:24:54Z</time>
      </trkpt>
      <trkpt lat="45.02395" lon="2.69204">
        <ele>848.02</ele>
        <time>2021-08-15T18:24:55Z</time>
      </trkpt>
      <trkpt lat="45.02394" lon="2.69197">
        <ele>848.02</ele>
        <time>2021-08-15T18:24:56Z</time>
      </trkpt>
      <trkpt lat="45.02392" lon="2.69182">
        <ele>848.02</ele>
        <time>2021-08-15T18:24:59Z</time>
      </trkpt>
      <trkpt lat="45.0239" lon="2.69179">
        <ele>848.02</ele>
        <time>2021-08-15T18:25:00Z</time>
      </trkpt>
      <trkpt lat="45.02389" lon="2.69173">
        <ele>848.02</ele>
        <time>2021-08-15T18:25:02Z</time>
      </trkpt>
      <trkpt lat="45.02388" lon="2.6917">
        <ele>848.02</ele>
        <time>2021-08-15T18:25:03Z</time>
      </trkpt>
      <trkpt lat="45.02387" lon="2.69167">
        <ele>848.02</ele>
        <time>2021-08-15T18:25:04Z</time>
      </trkpt>
      <trkpt lat="45.02387" lon="2.69163">
        <ele>848.02</ele>
        <time>2021-08-15T18:25:05Z</time>
      </trkpt>
      <trkpt lat="45.02386" lon="2.69159">
        <ele>848.02</ele>
        <time>2021-08-15T18:25:06Z</time>
      </trkpt>
      <trkpt lat="45.02386" lon="2.69154">
        <ele>848.02</ele>
        <time>2021-08-15T18:25:07Z</time>
      </trkpt>
      <trkpt lat="45.02379" lon="2.69127">
        <ele>845.62</ele>
        <time>2021-08-15T18:25:13Z</time>
      </trkpt>
      <trkpt lat="45.02377" lon="2.69108">
        <ele>842.73</ele>
        <time>2021-08-15T18:25:16Z</time>
      </trkpt>
      <trkpt lat="45.02374" lon="2.69099">
        <ele>842.25</ele>
        <time>2021-08-15T18:25:17Z</time>
      </trkpt>
      <trkpt lat="45.02365" lon="2.69065">
        <ele>841.29</ele>
        <time>2021-08-15T18:25:21Z</time>
      </trkpt>
      <trkpt lat="45.02359" lon="2.69037">
        <ele>840.81</ele>
        <time>2021-08-15T18:25:25Z</time>
      </trkpt>
      <trkpt lat="45.02356" lon="2.69031">
        <ele>840.81</ele>
        <time>2021-08-15T18:25:26Z</time>
      </trkpt>
      <trkpt lat="45.02353" lon="2.69026">
        <ele>839.85</ele>
        <time>2021-08-15T18:25:27Z</time>
      </trkpt>
      <trkpt lat="45.02352" lon="2.69022">
        <ele>839.85</ele>
        <time>2021-08-15T18:25:28Z</time>
      </trkpt>
      <trkpt lat="45.02351" lon="2.69016">
        <ele>839.85</ele>
        <time>2021-08-15T18:25:33Z</time>
      </trkpt>
      <trkpt lat="45.02349" lon="2.69015">
        <ele>839.37</ele>
        <time>2021-08-15T18:25:52Z</time>
      </trkpt>
      <trkpt lat="45.02348" lon="2.69014">
        <ele>838.89</ele>
        <time>2021-08-15T18:26:04Z</time>
      </trkpt>
      <trkpt lat="45.02347" lon="2.69017">
        <ele>838.89</ele>
        <time>2021-08-15T18:26:09Z</time>
      </trkpt>
      <trkpt lat="45.02348" lon="2.69017">
        <ele>838.89</ele>
        <time>2021-08-15T18:26:10Z</time>
      </trkpt>
      <trkpt lat="45.02356" lon="2.6903">
        <ele>840.33</ele>
        <time>2021-08-15T18:26:18Z</time>
      </trkpt>
      <trkpt lat="45.02355" lon="2.69035">
        <ele>840.81</ele>
        <time>2021-08-15T18:26:20Z</time>
      </trkpt>
      <trkpt lat="45.02354" lon="2.69037">
        <ele>840.81</ele>
        <time>2021-08-15T18:26:21Z</time>
      </trkpt>
      <trkpt lat="45.02353" lon="2.69038">
        <ele>841.29</ele>
        <time>2021-08-15T18:26:22Z</time>
      </trkpt>
      <trkpt lat="45.02351" lon="2.69038">
        <ele>841.29</ele>
        <time>2021-08-15T18:26:23Z</time>
      </trkpt>
      <trkpt lat="45.02349" lon="2.69038">
        <ele>841.77</ele>
        <time>2021-08-15T18:26:24Z</time>
      </trkpt>
      <trkpt lat="45.02348" lon="2.69037">
        <ele>841.77</ele>
        <time>2021-08-15T18:26:25Z</time>
      </trkpt>
      <trkpt lat="45.02347" lon="2.69036">
        <ele>842.73</ele>
        <time>2021-08-15T18:26:26Z</time>
      </trkpt>
      <trkpt lat="45.02346" lon="2.69035">
        <ele>842.73</ele>
        <time>2021-08-15T18:26:27Z</time>
      </trkpt>
      <trkpt lat="45.02345" lon="2.69034">
        <ele>842.73</ele>
        <time>2021-08-15T18:26:28Z</time>
      </trkpt>
      <trkpt lat="45.02344" lon="2.69032">
        <ele>843.21</ele>
        <time>2021-08-15T18:26:29Z</time>
      </trkpt>
      <trkpt lat="45.02343" lon="2.69031">
        <ele>843.21</ele>
        <time>2021-08-15T18:26:30Z</time>
      </trkpt>
      <trkpt lat="45.02343" lon="2.6903">
        <ele>843.21</ele>
        <time>2021-08-15T18:26:31Z</time>
      </trkpt>
      <trkpt lat="45.02342" lon="2.69028">
        <ele>843.69</ele>
        <time>2021-08-15T18:26:32Z</time>
      </trkpt>
      <trkpt lat="45.02337" lon="2.69016">
        <ele>845.14</ele>
        <time>2021-08-15T18:26:41Z</time>
      </trkpt>
      <trkpt lat="45.0233" lon="2.69006">
        <ele>846.58</ele>
        <time>2021-08-15T18:26:50Z</time>
      </trkpt>
      <trkpt lat="45.02321" lon="2.68995">
        <ele>847.54</ele>
        <time>2021-08-15T18:26:59Z</time>
      </trkpt>
      <trkpt lat="45.02305" lon="2.68981">
        <ele>849.46</ele>
        <time>2021-08-15T18:27:13Z</time>
      </trkpt>
      <trkpt lat="45.0229" lon="2.68973">
        <ele>849.94</ele>
        <time>2021-08-15T18:27:23Z</time>
      </trkpt>
      <trkpt lat="45.02269" lon="2.68976">
        <ele>850.42</ele>
        <time>2021-08-15T18:27:33Z</time>
      </trkpt>
      <trkpt lat="45.0225" lon="2.68993">
        <ele>850.42</ele>
        <time>2021-08-15T18:27:41Z</time>
      </trkpt>
      <trkpt lat="45.02224" lon="2.69022">
        <ele>850.42</ele>
        <time>2021-08-15T18:27:50Z</time>
      </trkpt>
      <trkpt lat="45.02194" lon="2.69046">
        <ele>850.9</ele>
        <time>2021-08-15T18:27:59Z</time>
      </trkpt>
      <trkpt lat="45.0216" lon="2.69074">
        <ele>850.9</ele>
        <time>2021-08-15T18:28:08Z</time>
      </trkpt>
      <trkpt lat="45.02151" lon="2.6908">
        <ele>852.35</ele>
        <time>2021-08-15T18:28:12Z</time>
      </trkpt>
      <trkpt lat="45.02148" lon="2.69079">
        <ele>852.35</ele>
        <time>2021-08-15T18:28:13Z</time>
      </trkpt>
      <trkpt lat="45.02132" lon="2.69068">
        <ele>853.31</ele>
        <time>2021-08-15T18:28:21Z</time>
      </trkpt>
      <trkpt lat="45.02129" lon="2.69064">
        <ele>853.79</ele>
        <time>2021-08-15T18:28:24Z</time>
      </trkpt>
      <trkpt lat="45.02126" lon="2.69061">
        <ele>854.27</ele>
        <time>2021-08-15T18:28:29Z</time>
      </trkpt>
      <trkpt lat="45.02124" lon="2.69052">
        <ele>855.71</ele>
        <time>2021-08-15T18:28:38Z</time>
      </trkpt>
      <trkpt lat="45.02123" lon="2.69043">
        <ele>857.15</ele>
        <time>2021-08-15T18:28:46Z</time>
      </trkpt>
      <trkpt lat="45.02121" lon="2.69032">
        <ele>858.59</ele>
        <time>2021-08-15T18:28:56Z</time>
      </trkpt>
      <trkpt lat="45.02116" lon="2.69023">
        <ele>859.56</ele>
        <time>2021-08-15T18:29:05Z</time>
      </trkpt>
      <trkpt lat="45.02115" lon="2.69022">
        <ele>859.56</ele>
        <time>2021-08-15T18:29:07Z</time>
      </trkpt>
      <trkpt lat="45.02114" lon="2.69021">
        <ele>859.56</ele>
        <time>2021-08-15T18:29:08Z</time>
      </trkpt>
      <trkpt lat="45.02114" lon="2.69019">
        <ele>859.56</ele>
        <time>2021-08-15T18:29:09Z</time>
      </trkpt>
      <trkpt lat="45.02112" lon="2.69018">
        <ele>859.56</ele>
        <time>2021-08-15T18:29:10Z</time>
      </trkpt>
      <trkpt lat="45.02111" lon="2.69016">
        <ele>859.56</ele>
        <time>2021-08-15T18:29:11Z</time>
      </trkpt>
      <trkpt lat="45.02109" lon="2.69014">
        <ele>859.56</ele>
        <time>2021-08-15T18:29:12Z</time>
      </trkpt>
      <trkpt lat="45.02107" lon="2.69011">
        <ele>859.56</ele>
        <time>2021-08-15T18:29:13Z</time>
      </trkpt>
      <trkpt lat="45.02105" lon="2.69008">
        <ele>859.56</ele>
        <time>2021-08-15T18:29:14Z</time>
      </trkpt>
      <trkpt lat="45.02088" lon="2.68985">
        <ele>857.63</ele>
        <time>2021-08-15T18:29:21Z</time>
      </trkpt>
      <trkpt lat="45.02084" lon="2.68979">
        <ele>857.63</ele>
        <time>2021-08-15T18:29:26Z</time>
      </trkpt>
      <trkpt lat="45.02083" lon="2.68978">
        <ele>857.63</ele>
        <time>2021-08-15T18:29:33Z</time>
      </trkpt>
      <trkpt lat="45.02083" lon="2.68978">
        <ele>857.15</ele>
        <time>2021-08-15T18:29:45Z</time>
      </trkpt>
      <trkpt lat="45.02082" lon="2.68975">
        <ele>857.15</ele>
        <time>2021-08-15T18:29:53Z</time>
      </trkpt>
      <trkpt lat="45.02082" lon="2.68972">
        <ele>857.15</ele>
        <time>2021-08-15T18:29:54Z</time>
      </trkpt>
      <trkpt lat="45.02082" lon="2.6897">
        <ele>857.15</ele>
        <time>2021-08-15T18:29:55Z</time>
      </trkpt>
      <trkpt lat="45.02083" lon="2.68967">
        <ele>857.15</ele>
        <time>2021-08-15T18:29:56Z</time>
      </trkpt>
      <trkpt lat="45.02082" lon="2.68964">
        <ele>857.15</ele>
        <time>2021-08-15T18:29:57Z</time>
      </trkpt>
      <trkpt lat="45.02081" lon="2.68962">
        <ele>856.67</ele>
        <time>2021-08-15T18:29:58Z</time>
      </trkpt>
      <trkpt lat="45.0208" lon="2.68959">
        <ele>856.67</ele>
        <time>2021-08-15T18:29:59Z</time>
      </trkpt>
      <trkpt lat="45.02079" lon="2.68957">
        <ele>856.67</ele>
        <time>2021-08-15T18:30:00Z</time>
      </trkpt>
      <trkpt lat="45.02077" lon="2.68953">
        <ele>856.19</ele>
        <time>2021-08-15T18:30:01Z</time>
      </trkpt>
      <trkpt lat="45.02075" lon="2.68949">
        <ele>855.23</ele>
        <time>2021-08-15T18:30:02Z</time>
      </trkpt>
      <trkpt lat="45.02071" lon="2.68943">
        <ele>854.75</ele>
        <time>2021-08-15T18:30:04Z</time>
      </trkpt>
      <trkpt lat="45.0207" lon="2.68928">
        <ele>852.83</ele>
        <time>2021-08-15T18:30:09Z</time>
      </trkpt>
      <trkpt lat="45.0207" lon="2.68912">
        <ele>851.38</ele>
        <time>2021-08-15T18:30:15Z</time>
      </trkpt>
      <trkpt lat="45.02073" lon="2.68909">
        <ele>850.9</ele>
        <time>2021-08-15T18:30:17Z</time>
      </trkpt>
      <trkpt lat="45.02074" lon="2.68908">
        <ele>850.9</ele>
        <time>2021-08-15T18:30:18Z</time>
      </trkpt>
      <trkpt lat="45.02076" lon="2.68906">
        <ele>850.9</ele>
        <time>2021-08-15T18:30:19Z</time>
      </trkpt>
      <trkpt lat="45.02078" lon="2.68905">
        <ele>850.9</ele>
        <time>2021-08-15T18:30:20Z</time>
      </trkpt>
      <trkpt lat="45.0208" lon="2.68904">
        <ele>850.42</ele>
        <time>2021-08-15T18:30:21Z</time>
      </trkpt>
      <trkpt lat="45.02094" lon="2.68884">
        <ele>847.06</ele>
        <time>2021-08-15T18:30:27Z</time>
      </trkpt>
      <trkpt lat="45.02098" lon="2.68881">
        <ele>847.06</ele>
        <time>2021-08-15T18:30:28Z</time>
      </trkpt>
      <trkpt lat="45.02105" lon="2.68873">
        <ele>846.1</ele>
        <time>2021-08-15T18:30:30Z</time>
      </trkpt>
      <trkpt lat="45.02107" lon="2.68868">
        <ele>845.62</ele>
        <time>2021-08-15T18:30:31Z</time>
      </trkpt>
      <trkpt lat="45.02108" lon="2.68864">
        <ele>845.62</ele>
        <time>2021-08-15T18:30:32Z</time>
      </trkpt>
      <trkpt lat="45.02107" lon="2.68861">
        <ele>845.62</ele>
        <time>2021-08-15T18:30:33Z</time>
      </trkpt>
      <trkpt lat="45.02105" lon="2.68858">
        <ele>845.62</ele>
        <time>2021-08-15T18:30:34Z</time>
      </trkpt>
      <trkpt lat="45.02103" lon="2.68855">
        <ele>845.62</ele>
        <time>2021-08-15T18:30:35Z</time>
      </trkpt>
      <trkpt lat="45.02097" lon="2.68838">
        <ele>845.62</ele>
        <time>2021-08-15T18:30:40Z</time>
      </trkpt>
      <trkpt lat="45.02093" lon="2.6882">
        <ele>845.62</ele>
        <time>2021-08-15T18:30:46Z</time>
      </trkpt>
      <trkpt lat="45.02084" lon="2.68808">
        <ele>844.66</ele>
        <time>2021-08-15T18:30:51Z</time>
      </trkpt>
      <trkpt lat="45.02063" lon="2.68789">
        <ele>844.66</ele>
        <time>2021-08-15T18:30:59Z</time>
      </trkpt>
      <trkpt lat="45.0206" lon="2.68786">
        <ele>846.1</ele>
        <time>2021-08-15T18:31:01Z</time>
      </trkpt>
      <trkpt lat="45.02051" lon="2.68777">
        <ele>847.06</ele>
        <time>2021-08-15T18:31:07Z</time>
      </trkpt>
      <trkpt lat="45.02041" lon="2.68769">
        <ele>848.02</ele>
        <time>2021-08-15T18:31:13Z</time>
      </trkpt>
      <trkpt lat="45.02038" lon="2.68764">
        <ele>848.5</ele>
        <time>2021-08-15T18:31:20Z</time>
      </trkpt>
      <trkpt lat="45.02035" lon="2.68757">
        <ele>848.5</ele>
        <time>2021-08-15T18:31:27Z</time>
      </trkpt>
      <trkpt lat="45.02035" lon="2.68755">
        <ele>848.98</ele>
        <time>2021-08-15T18:31:28Z</time>
      </trkpt>
      <trkpt lat="45.02034" lon="2.68753">
        <ele>848.98</ele>
        <time>2021-08-15T18:31:29Z</time>
      </trkpt>
      <trkpt lat="45.02034" lon="2.68751">
        <ele>849.46</ele>
        <time>2021-08-15T18:31:30Z</time>
      </trkpt>
      <trkpt lat="45.02035" lon="2.68747">
        <ele>849.46</ele>
        <time>2021-08-15T18:31:31Z</time>
      </trkpt>
      <trkpt lat="45.02035" lon="2.68743">
        <ele>849.46</ele>
        <time>2021-08-15T18:31:32Z</time>
      </trkpt>
      <trkpt lat="45.02036" lon="2.68717">
        <ele>849.46</ele>
        <time>2021-08-15T18:31:38Z</time>
      </trkpt>
      <trkpt lat="45.02036" lon="2.68715">
        <ele>849.46</ele>
        <time>2021-08-15T18:31:39Z</time>
      </trkpt>
      <trkpt lat="45.02034" lon="2.68712">
        <ele>848.5</ele>
        <time>2021-08-15T18:31:40Z</time>
      </trkpt>
      <trkpt lat="45.02033" lon="2.68709">
        <ele>848.5</ele>
        <time>2021-08-15T18:31:41Z</time>
      </trkpt>
      <trkpt lat="45.02031" lon="2.68706">
        <ele>848.5</ele>
        <time>2021-08-15T18:31:42Z</time>
      </trkpt>
      <trkpt lat="45.0202" lon="2.68689">
        <ele>846.1</ele>
        <time>2021-08-15T18:31:48Z</time>
      </trkpt>
      <trkpt lat="45.02017" lon="2.6868">
        <ele>845.62</ele>
        <time>2021-08-15T18:31:50Z</time>
      </trkpt>
      <trkpt lat="45.02015" lon="2.68669">
        <ele>844.66</ele>
        <time>2021-08-15T18:31:52Z</time>
      </trkpt>
      <trkpt lat="45.02014" lon="2.68664">
        <ele>844.66</ele>
        <time>2021-08-15T18:31:53Z</time>
      </trkpt>
      <trkpt lat="45.02012" lon="2.68639">
        <ele>844.66</ele>
        <time>2021-08-15T18:31:59Z</time>
      </trkpt>
      <trkpt lat="45.02002" lon="2.68622">
        <ele>844.66</ele>
        <time>2021-08-15T18:32:04Z</time>
      </trkpt>
      <trkpt lat="45.01979" lon="2.68615">
        <ele>844.66</ele>
        <time>2021-08-15T18:32:11Z</time>
      </trkpt>
      <trkpt lat="45.01961" lon="2.68611">
        <ele>846.1</ele>
        <time>2021-08-15T18:32:17Z</time>
      </trkpt>
      <trkpt lat="45.01947" lon="2.68596">
        <ele>846.1</ele>
        <time>2021-08-15T18:32:24Z</time>
      </trkpt>
      <trkpt lat="45.0194" lon="2.68591">
        <ele>844.66</ele>
        <time>2021-08-15T18:32:26Z</time>
      </trkpt>
      <trkpt lat="45.01926" lon="2.68583">
        <ele>843.21</ele>
        <time>2021-08-15T18:32:29Z</time>
      </trkpt>
      <trkpt lat="45.01922" lon="2.68579">
        <ele>842.73</ele>
        <time>2021-08-15T18:32:30Z</time>
      </trkpt>
      <trkpt lat="45.01918" lon="2.68575">
        <ele>842.73</ele>
        <time>2021-08-15T18:32:31Z</time>
      </trkpt>
      <trkpt lat="45.01907" lon="2.68563">
        <ele>842.73</ele>
        <time>2021-08-15T18:32:34Z</time>
      </trkpt>
      <trkpt lat="45.01894" lon="2.68553">
        <ele>842.73</ele>
        <time>2021-08-15T18:32:39Z</time>
      </trkpt>
      <trkpt lat="45.01881" lon="2.68548">
        <ele>842.73</ele>
        <time>2021-08-15T18:32:45Z</time>
      </trkpt>
      <trkpt lat="45.01878" lon="2.68547">
        <ele>842.73</ele>
        <time>2021-08-15T18:32:50Z</time>
      </trkpt>
      <trkpt lat="45.01877" lon="2.68548">
        <ele>842.73</ele>
        <time>2021-08-15T18:32:51Z</time>
      </trkpt>
      <trkpt lat="45.01875" lon="2.68548">
        <ele>842.73</ele>
        <time>2021-08-15T18:32:52Z</time>
      </trkpt>
      <trkpt lat="45.01874" lon="2.68548">
        <ele>842.25</ele>
        <time>2021-08-15T18:32:53Z</time>
      </trkpt>
      <trkpt lat="45.01872" lon="2.68548">
        <ele>841.77</ele>
        <time>2021-08-15T18:32:54Z</time>
      </trkpt>
      <trkpt lat="45.01871" lon="2.68548">
        <ele>841.77</ele>
        <time>2021-08-15T18:32:55Z</time>
      </trkpt>
      <trkpt lat="45.01868" lon="2.68548">
        <ele>841.77</ele>
        <time>2021-08-15T18:32:56Z</time>
      </trkpt>
      <trkpt lat="45.01866" lon="2.68548">
        <ele>841.29</ele>
        <time>2021-08-15T18:32:57Z</time>
      </trkpt>
      <trkpt lat="45.01863" lon="2.68547">
        <ele>841.29</ele>
        <time>2021-08-15T18:32:58Z</time>
      </trkpt>
      <trkpt lat="45.01846" lon="2.68544">
        <ele>838.41</ele>
        <time>2021-08-15T18:33:05Z</time>
      </trkpt>
      <trkpt lat="45.01842" lon="2.68543">
        <ele>837.45</ele>
        <time>2021-08-15T18:33:07Z</time>
      </trkpt>
      <trkpt lat="45.01841" lon="2.68541">
        <ele>836.96</ele>
        <time>2021-08-15T18:33:08Z</time>
      </trkpt>
      <trkpt lat="45.01839" lon="2.6854">
        <ele>836.96</ele>
        <time>2021-08-15T18:33:09Z</time>
      </trkpt>
      <trkpt lat="45.01838" lon="2.68539">
        <ele>836.48</ele>
        <time>2021-08-15T18:33:10Z</time>
      </trkpt>
      <trkpt lat="45.01836" lon="2.68537">
        <ele>836</ele>
        <time>2021-08-15T18:33:11Z</time>
      </trkpt>
      <trkpt lat="45.01833" lon="2.68535">
        <ele>835.04</ele>
        <time>2021-08-15T18:33:12Z</time>
      </trkpt>
      <trkpt lat="45.0183" lon="2.68532">
        <ele>835.04</ele>
        <time>2021-08-15T18:33:13Z</time>
      </trkpt>
      <trkpt lat="45.01821" lon="2.68523">
        <ele>833.12</ele>
        <time>2021-08-15T18:33:18Z</time>
      </trkpt>
      <trkpt lat="45.01819" lon="2.68518">
        <ele>833.12</ele>
        <time>2021-08-15T18:33:21Z</time>
      </trkpt>
      <trkpt lat="45.01818" lon="2.68517">
        <ele>833.12</ele>
        <time>2021-08-15T18:33:22Z</time>
      </trkpt>
      <trkpt lat="45.01818" lon="2.68515">
        <ele>832.64</ele>
        <time>2021-08-15T18:33:23Z</time>
      </trkpt>
      <trkpt lat="45.01817" lon="2.68506">
        <ele>831.68</ele>
        <time>2021-08-15T18:33:29Z</time>
      </trkpt>
      <trkpt lat="45.01816" lon="2.68505">
        <ele>831.2</ele>
        <time>2021-08-15T18:33:30Z</time>
      </trkpt>
      <trkpt lat="45.01815" lon="2.68495">
        <ele>829.76</ele>
        <time>2021-08-15T18:33:36Z</time>
      </trkpt>
      <trkpt lat="45.01814" lon="2.68493">
        <ele>829.76</ele>
        <time>2021-08-15T18:33:37Z</time>
      </trkpt>
      <trkpt lat="45.01813" lon="2.68489">
        <ele>829.76</ele>
        <time>2021-08-15T18:33:39Z</time>
      </trkpt>
      <trkpt lat="45.01805" lon="2.6847">
        <ele>829.27</ele>
        <time>2021-08-15T18:33:47Z</time>
      </trkpt>
      <trkpt lat="45.01803" lon="2.68464">
        <ele>828.31</ele>
        <time>2021-08-15T18:33:50Z</time>
      </trkpt>
      <trkpt lat="45.01794" lon="2.68433">
        <ele>827.83</ele>
        <time>2021-08-15T18:33:59Z</time>
      </trkpt>
      <trkpt lat="45.0179" lon="2.68415">
        <ele>827.35</ele>
        <time>2021-08-15T18:34:05Z</time>
      </trkpt>
      <trkpt lat="45.01784" lon="2.68401">
        <ele>827.35</ele>
        <time>2021-08-15T18:34:12Z</time>
      </trkpt>
      <trkpt lat="45.01779" lon="2.68389">
        <ele>827.35</ele>
        <time>2021-08-15T18:34:17Z</time>
      </trkpt>
      <trkpt lat="45.01775" lon="2.68378">
        <ele>827.35</ele>
        <time>2021-08-15T18:34:25Z</time>
      </trkpt>
      <trkpt lat="45.01771" lon="2.68367">
        <ele>827.35</ele>
        <time>2021-08-15T18:34:33Z</time>
      </trkpt>
      <trkpt lat="45.01767" lon="2.6834">
        <ele>826.87</ele>
        <time>2021-08-15T18:34:41Z</time>
      </trkpt>
      <trkpt lat="45.01764" lon="2.68326">
        <ele>826.39</ele>
        <time>2021-08-15T18:34:46Z</time>
      </trkpt>
      <trkpt lat="45.01764" lon="2.68323">
        <ele>826.39</ele>
        <time>2021-08-15T18:34:47Z</time>
      </trkpt>
      <trkpt lat="45.01759" lon="2.68304">
        <ele>826.39</ele>
        <time>2021-08-15T18:34:53Z</time>
      </trkpt>
      <trkpt lat="45.01748" lon="2.68276">
        <ele>826.39</ele>
        <time>2021-08-15T18:35:02Z</time>
      </trkpt>
      <trkpt lat="45.01737" lon="2.68251">
        <ele>826.39</ele>
        <time>2021-08-15T18:35:08Z</time>
      </trkpt>
      <trkpt lat="45.01735" lon="2.68249">
        <ele>826.39</ele>
        <time>2021-08-15T18:35:09Z</time>
      </trkpt>
      <trkpt lat="45.01733" lon="2.68246">
        <ele>826.39</ele>
        <time>2021-08-15T18:35:10Z</time>
      </trkpt>
      <trkpt lat="45.01731" lon="2.68242">
        <ele>826.39</ele>
        <time>2021-08-15T18:35:11Z</time>
      </trkpt>
      <trkpt lat="45.01729" lon="2.68237">
        <ele>826.39</ele>
        <time>2021-08-15T18:35:12Z</time>
      </trkpt>
      <trkpt lat="45.01728" lon="2.68233">
        <ele>827.83</ele>
        <time>2021-08-15T18:35:13Z</time>
      </trkpt>
      <trkpt lat="45.01727" lon="2.6823">
        <ele>827.83</ele>
        <time>2021-08-15T18:35:14Z</time>
      </trkpt>
      <trkpt lat="45.01725" lon="2.68227">
        <ele>827.83</ele>
        <time>2021-08-15T18:35:15Z</time>
      </trkpt>
      <trkpt lat="45.01724" lon="2.68224">
        <ele>827.83</ele>
        <time>2021-08-15T18:35:16Z</time>
      </trkpt>
      <trkpt lat="45.01721" lon="2.68218">
        <ele>827.83</ele>
        <time>2021-08-15T18:35:18Z</time>
      </trkpt>
      <trkpt lat="45.01719" lon="2.68215">
        <ele>827.83</ele>
        <time>2021-08-15T18:35:19Z</time>
      </trkpt>
      <trkpt lat="45.01716" lon="2.68212">
        <ele>827.83</ele>
        <time>2021-08-15T18:35:20Z</time>
      </trkpt>
      <trkpt lat="45.01713" lon="2.6821">
        <ele>827.83</ele>
        <time>2021-08-15T18:35:21Z</time>
      </trkpt>
      <trkpt lat="45.01711" lon="2.68208">
        <ele>827.83</ele>
        <time>2021-08-15T18:35:22Z</time>
      </trkpt>
      <trkpt lat="45.01709" lon="2.68206">
        <ele>827.83</ele>
        <time>2021-08-15T18:35:23Z</time>
      </trkpt>
      <trkpt lat="45.01706" lon="2.68204">
        <ele>827.83</ele>
        <time>2021-08-15T18:35:24Z</time>
      </trkpt>
      <trkpt lat="45.01703" lon="2.68202">
        <ele>827.83</ele>
        <time>2021-08-15T18:35:25Z</time>
      </trkpt>
      <trkpt lat="45.01701" lon="2.68199">
        <ele>827.83</ele>
        <time>2021-08-15T18:35:26Z</time>
      </trkpt>
      <trkpt lat="45.01698" lon="2.68196">
        <ele>827.83</ele>
        <time>2021-08-15T18:35:27Z</time>
      </trkpt>
      <trkpt lat="45.01697" lon="2.68192">
        <ele>827.83</ele>
        <time>2021-08-15T18:35:28Z</time>
      </trkpt>
      <trkpt lat="45.01696" lon="2.68189">
        <ele>827.83</ele>
        <time>2021-08-15T18:35:29Z</time>
      </trkpt>
      <trkpt lat="45.01696" lon="2.68186">
        <ele>826.39</ele>
        <time>2021-08-15T18:35:30Z</time>
      </trkpt>
      <trkpt lat="45.01696" lon="2.68183">
        <ele>826.39</ele>
        <time>2021-08-15T18:35:31Z</time>
      </trkpt>
      <trkpt lat="45.01696" lon="2.68181">
        <ele>826.39</ele>
        <time>2021-08-15T18:35:32Z</time>
      </trkpt>
      <trkpt lat="45.01696" lon="2.68178">
        <ele>826.39</ele>
        <time>2021-08-15T18:35:33Z</time>
      </trkpt>
      <trkpt lat="45.01697" lon="2.68175">
        <ele>826.39</ele>
        <time>2021-08-15T18:35:34Z</time>
      </trkpt>
      <trkpt lat="45.01697" lon="2.68171">
        <ele>825.91</ele>
        <time>2021-08-15T18:35:35Z</time>
      </trkpt>
      <trkpt lat="45.01698" lon="2.68168">
        <ele>825.91</ele>
        <time>2021-08-15T18:35:36Z</time>
      </trkpt>
      <trkpt lat="45.01698" lon="2.68165">
        <ele>825.91</ele>
        <time>2021-08-15T18:35:37Z</time>
      </trkpt>
      <trkpt lat="45.01699" lon="2.68163">
        <ele>825.91</ele>
        <time>2021-08-15T18:35:38Z</time>
      </trkpt>
      <trkpt lat="45.017" lon="2.6816">
        <ele>825.43</ele>
        <time>2021-08-15T18:35:39Z</time>
      </trkpt>
      <trkpt lat="45.01702" lon="2.68157">
        <ele>825.43</ele>
        <time>2021-08-15T18:35:40Z</time>
      </trkpt>
      <trkpt lat="45.01703" lon="2.68155">
        <ele>825.43</ele>
        <time>2021-08-15T18:35:41Z</time>
      </trkpt>
      <trkpt lat="45.01704" lon="2.68152">
        <ele>825.43</ele>
        <time>2021-08-15T18:35:42Z</time>
      </trkpt>
      <trkpt lat="45.01706" lon="2.68149">
        <ele>825.43</ele>
        <time>2021-08-15T18:35:43Z</time>
      </trkpt>
      <trkpt lat="45.01707" lon="2.68146">
        <ele>825.43</ele>
        <time>2021-08-15T18:35:44Z</time>
      </trkpt>
      <trkpt lat="45.0171" lon="2.68126">
        <ele>824.95</ele>
        <time>2021-08-15T18:35:51Z</time>
      </trkpt>
      <trkpt lat="45.0171" lon="2.68123">
        <ele>824.95</ele>
        <time>2021-08-15T18:35:52Z</time>
      </trkpt>
      <trkpt lat="45.0171" lon="2.6812">
        <ele>824.47</ele>
        <time>2021-08-15T18:35:53Z</time>
      </trkpt>
      <trkpt lat="45.01709" lon="2.68118">
        <ele>824.47</ele>
        <time>2021-08-15T18:35:54Z</time>
      </trkpt>
      <trkpt lat="45.01707" lon="2.68116">
        <ele>824.47</ele>
        <time>2021-08-15T18:35:55Z</time>
      </trkpt>
      <trkpt lat="45.01706" lon="2.68113">
        <ele>824.47</ele>
        <time>2021-08-15T18:35:56Z</time>
      </trkpt>
      <trkpt lat="45.01704" lon="2.6811">
        <ele>824.47</ele>
        <time>2021-08-15T18:35:57Z</time>
      </trkpt>
      <trkpt lat="45.01699" lon="2.68101">
        <ele>825.43</ele>
        <time>2021-08-15T18:36:00Z</time>
      </trkpt>
      <trkpt lat="45.01685" lon="2.68086">
        <ele>826.87</ele>
        <time>2021-08-15T18:36:08Z</time>
      </trkpt>
      <trkpt lat="45.01671" lon="2.68075">
        <ele>827.83</ele>
        <time>2021-08-15T18:36:16Z</time>
      </trkpt>
      <trkpt lat="45.01659" lon="2.68065">
        <ele>828.79</ele>
        <time>2021-08-15T18:36:24Z</time>
      </trkpt>
      <trkpt lat="45.01647" lon="2.68051">
        <ele>830.24</ele>
        <time>2021-08-15T18:36:33Z</time>
      </trkpt>
      <trkpt lat="45.01638" lon="2.68043">
        <ele>831.2</ele>
        <time>2021-08-15T18:36:40Z</time>
      </trkpt>
      <trkpt lat="45.01629" lon="2.68035">
        <ele>831.68</ele>
        <time>2021-08-15T18:36:47Z</time>
      </trkpt>
      <trkpt lat="45.01628" lon="2.68035">
        <ele>832.16</ele>
        <time>2021-08-15T18:36:48Z</time>
      </trkpt>
      <trkpt lat="45.01626" lon="2.68035">
        <ele>832.16</ele>
        <time>2021-08-15T18:36:49Z</time>
      </trkpt>
      <trkpt lat="45.0161" lon="2.68029">
        <ele>833.6</ele>
        <time>2021-08-15T18:36:59Z</time>
      </trkpt>
      <trkpt lat="45.01596" lon="2.68023">
        <ele>835.04</ele>
        <time>2021-08-15T18:37:07Z</time>
      </trkpt>
      <trkpt lat="45.01578" lon="2.68015">
        <ele>836.48</ele>
        <time>2021-08-15T18:37:17Z</time>
      </trkpt>
      <trkpt lat="45.01563" lon="2.68008">
        <ele>836.96</ele>
        <time>2021-08-15T18:37:26Z</time>
      </trkpt>
      <trkpt lat="45.01547" lon="2.67999">
        <ele>838.41</ele>
        <time>2021-08-15T18:37:34Z</time>
      </trkpt>
      <trkpt lat="45.01524" lon="2.67987">
        <ele>838.89</ele>
        <time>2021-08-15T18:37:44Z</time>
      </trkpt>
      <trkpt lat="45.01506" lon="2.67978">
        <ele>836.96</ele>
        <time>2021-08-15T18:37:49Z</time>
      </trkpt>
      <trkpt lat="45.01476" lon="2.67969">
        <ele>835.04</ele>
        <time>2021-08-15T18:37:55Z</time>
      </trkpt>
      <trkpt lat="45.01473" lon="2.67966">
        <ele>835.04</ele>
        <time>2021-08-15T18:37:56Z</time>
      </trkpt>
      <trkpt lat="45.01472" lon="2.67961">
        <ele>835.04</ele>
        <time>2021-08-15T18:37:57Z</time>
      </trkpt>
      <trkpt lat="45.01471" lon="2.67942">
        <ele>834.08</ele>
        <time>2021-08-15T18:38:01Z</time>
      </trkpt>
      <trkpt lat="45.01469" lon="2.67936">
        <ele>833.6</ele>
        <time>2021-08-15T18:38:02Z</time>
      </trkpt>
      <trkpt lat="45.01465" lon="2.67931">
        <ele>833.6</ele>
        <time>2021-08-15T18:38:03Z</time>
      </trkpt>
      <trkpt lat="45.0146" lon="2.67926">
        <ele>833.6</ele>
        <time>2021-08-15T18:38:04Z</time>
      </trkpt>
      <trkpt lat="45.01455" lon="2.67922">
        <ele>833.6</ele>
        <time>2021-08-15T18:38:05Z</time>
      </trkpt>
      <trkpt lat="45.01422" lon="2.67889">
        <ele>830.24</ele>
        <time>2021-08-15T18:38:11Z</time>
      </trkpt>
      <trkpt lat="45.01411" lon="2.67872">
        <ele>828.31</ele>
        <time>2021-08-15T18:38:13Z</time>
      </trkpt>
      <trkpt lat="45.01407" lon="2.67862">
        <ele>827.35</ele>
        <time>2021-08-15T18:38:14Z</time>
      </trkpt>
      <trkpt lat="45.01402" lon="2.67851">
        <ele>825.91</ele>
        <time>2021-08-15T18:38:15Z</time>
      </trkpt>
      <trkpt lat="45.01392" lon="2.67826">
        <ele>822.55</ele>
        <time>2021-08-15T18:38:17Z</time>
      </trkpt>
      <trkpt lat="45.0137" lon="2.67784">
        <ele>819.18</ele>
        <time>2021-08-15T18:38:21Z</time>
      </trkpt>
      <trkpt lat="45.01359" lon="2.67763">
        <ele>817.74</ele>
        <time>2021-08-15T18:38:24Z</time>
      </trkpt>
      <trkpt lat="45.01357" lon="2.67756">
        <ele>817.74</ele>
        <time>2021-08-15T18:38:25Z</time>
      </trkpt>
      <trkpt lat="45.01356" lon="2.67748">
        <ele>816.78</ele>
        <time>2021-08-15T18:38:26Z</time>
      </trkpt>
      <trkpt lat="45.01357" lon="2.67742">
        <ele>816.3</ele>
        <time>2021-08-15T18:38:27Z</time>
      </trkpt>
      <trkpt lat="45.01358" lon="2.67735">
        <ele>815.82</ele>
        <time>2021-08-15T18:38:28Z</time>
      </trkpt>
      <trkpt lat="45.0136" lon="2.67728">
        <ele>814.85</ele>
        <time>2021-08-15T18:38:29Z</time>
      </trkpt>
      <trkpt lat="45.01363" lon="2.6772">
        <ele>814.37</ele>
        <time>2021-08-15T18:38:30Z</time>
      </trkpt>
      <trkpt lat="45.01367" lon="2.67712">
        <ele>813.41</ele>
        <time>2021-08-15T18:38:31Z</time>
      </trkpt>
      <trkpt lat="45.01372" lon="2.67704">
        <ele>812.45</ele>
        <time>2021-08-15T18:38:32Z</time>
      </trkpt>
      <trkpt lat="45.01385" lon="2.67683">
        <ele>810.53</ele>
        <time>2021-08-15T18:38:35Z</time>
      </trkpt>
      <trkpt lat="45.01387" lon="2.67676">
        <ele>810.05</ele>
        <time>2021-08-15T18:38:36Z</time>
      </trkpt>
      <trkpt lat="45.01389" lon="2.67668">
        <ele>809.09</ele>
        <time>2021-08-15T18:38:37Z</time>
      </trkpt>
      <trkpt lat="45.01391" lon="2.6766">
        <ele>808.13</ele>
        <time>2021-08-15T18:38:38Z</time>
      </trkpt>
      <trkpt lat="45.01391" lon="2.67651">
        <ele>807.64</ele>
        <time>2021-08-15T18:38:39Z</time>
      </trkpt>
      <trkpt lat="45.0139" lon="2.67642">
        <ele>806.68</ele>
        <time>2021-08-15T18:38:40Z</time>
      </trkpt>
      <trkpt lat="45.01385" lon="2.676">
        <ele>802.84</ele>
        <time>2021-08-15T18:38:44Z</time>
      </trkpt>
      <trkpt lat="45.01383" lon="2.67579">
        <ele>801.4</ele>
        <time>2021-08-15T18:38:46Z</time>
      </trkpt>
      <trkpt lat="45.0138" lon="2.67553">
        <ele>798.99</ele>
        <time>2021-08-15T18:38:49Z</time>
      </trkpt>
      <trkpt lat="45.01379" lon="2.67545">
        <ele>798.51</ele>
        <time>2021-08-15T18:38:50Z</time>
      </trkpt>
      <trkpt lat="45.01377" lon="2.67537">
        <ele>798.03</ele>
        <time>2021-08-15T18:38:51Z</time>
      </trkpt>
      <trkpt lat="45.01371" lon="2.67508">
        <ele>794.19</ele>
        <time>2021-08-15T18:38:55Z</time>
      </trkpt>
      <trkpt lat="45.01369" lon="2.67502">
        <ele>793.22</ele>
        <time>2021-08-15T18:38:56Z</time>
      </trkpt>
      <trkpt lat="45.01366" lon="2.67497">
        <ele>792.26</ele>
        <time>2021-08-15T18:38:57Z</time>
      </trkpt>
      <trkpt lat="45.01362" lon="2.67493">
        <ele>792.26</ele>
        <time>2021-08-15T18:38:58Z</time>
      </trkpt>
      <trkpt lat="45.01357" lon="2.67488">
        <ele>792.26</ele>
        <time>2021-08-15T18:38:59Z</time>
      </trkpt>
      <trkpt lat="45.01355" lon="2.67484">
        <ele>791.78</ele>
        <time>2021-08-15T18:39:00Z</time>
      </trkpt>
      <trkpt lat="45.01354" lon="2.6748">
        <ele>791.3</ele>
        <time>2021-08-15T18:39:01Z</time>
      </trkpt>
      <trkpt lat="45.01352" lon="2.67473">
        <ele>790.82</ele>
        <time>2021-08-15T18:39:02Z</time>
      </trkpt>
      <trkpt lat="45.01351" lon="2.67465">
        <ele>790.34</ele>
        <time>2021-08-15T18:39:03Z</time>
      </trkpt>
      <trkpt lat="45.0135" lon="2.67457">
        <ele>788.9</ele>
        <time>2021-08-15T18:39:04Z</time>
      </trkpt>
      <trkpt lat="45.0135" lon="2.67449">
        <ele>787.46</ele>
        <time>2021-08-15T18:39:05Z</time>
      </trkpt>
      <trkpt lat="45.01351" lon="2.6744">
        <ele>787.46</ele>
        <time>2021-08-15T18:39:06Z</time>
      </trkpt>
      <trkpt lat="45.01353" lon="2.67433">
        <ele>786.98</ele>
        <time>2021-08-15T18:39:07Z</time>
      </trkpt>
      <trkpt lat="45.01357" lon="2.67426">
        <ele>786.98</ele>
        <time>2021-08-15T18:39:08Z</time>
      </trkpt>
      <trkpt lat="45.01363" lon="2.67421">
        <ele>785.05</ele>
        <time>2021-08-15T18:39:09Z</time>
      </trkpt>
      <trkpt lat="45.01369" lon="2.67418">
        <ele>785.05</ele>
        <time>2021-08-15T18:39:10Z</time>
      </trkpt>
      <trkpt lat="45.01376" lon="2.67417">
        <ele>785.05</ele>
        <time>2021-08-15T18:39:11Z</time>
      </trkpt>
      <trkpt lat="45.01383" lon="2.67416">
        <ele>784.57</ele>
        <time>2021-08-15T18:39:12Z</time>
      </trkpt>
      <trkpt lat="45.01391" lon="2.67416">
        <ele>784.57</ele>
        <time>2021-08-15T18:39:13Z</time>
      </trkpt>
      <trkpt lat="45.01398" lon="2.67415">
        <ele>783.61</ele>
        <time>2021-08-15T18:39:14Z</time>
      </trkpt>
      <trkpt lat="45.01405" lon="2.67413">
        <ele>783.61</ele>
        <time>2021-08-15T18:39:15Z</time>
      </trkpt>
      <trkpt lat="45.01412" lon="2.67408">
        <ele>782.17</ele>
        <time>2021-08-15T18:39:16Z</time>
      </trkpt>
      <trkpt lat="45.01419" lon="2.67401">
        <ele>782.17</ele>
        <time>2021-08-15T18:39:17Z</time>
      </trkpt>
      <trkpt lat="45.01424" lon="2.67392">
        <ele>781.69</ele>
        <time>2021-08-15T18:39:18Z</time>
      </trkpt>
      <trkpt lat="45.01427" lon="2.67383">
        <ele>781.69</ele>
        <time>2021-08-15T18:39:19Z</time>
      </trkpt>
      <trkpt lat="45.01429" lon="2.67373">
        <ele>780.73</ele>
        <time>2021-08-15T18:39:20Z</time>
      </trkpt>
      <trkpt lat="45.01429" lon="2.67362">
        <ele>780.73</ele>
        <time>2021-08-15T18:39:21Z</time>
      </trkpt>
      <trkpt lat="45.01429" lon="2.67351">
        <ele>780.73</ele>
        <time>2021-08-15T18:39:22Z</time>
      </trkpt>
      <trkpt lat="45.01429" lon="2.6734">
        <ele>780.25</ele>
        <time>2021-08-15T18:39:23Z</time>
      </trkpt>
      <trkpt lat="45.01423" lon="2.67264">
        <ele>778.32</ele>
        <time>2021-08-15T18:39:30Z</time>
      </trkpt>
      <trkpt lat="45.01419" lon="2.67189">
        <ele>776.88</ele>
        <time>2021-08-15T18:39:37Z</time>
      </trkpt>
      <trkpt lat="45.0142" lon="2.6718">
        <ele>775.92</ele>
        <time>2021-08-15T18:39:38Z</time>
      </trkpt>
      <trkpt lat="45.01423" lon="2.67172">
        <ele>775.92</ele>
        <time>2021-08-15T18:39:39Z</time>
      </trkpt>
      <trkpt lat="45.01427" lon="2.67165">
        <ele>775.92</ele>
        <time>2021-08-15T18:39:40Z</time>
      </trkpt>
      <trkpt lat="45.01431" lon="2.67161">
        <ele>775.92</ele>
        <time>2021-08-15T18:39:41Z</time>
      </trkpt>
      <trkpt lat="45.01435" lon="2.67157">
        <ele>777.36</ele>
        <time>2021-08-15T18:39:42Z</time>
      </trkpt>
      <trkpt lat="45.01438" lon="2.67154">
        <ele>777.36</ele>
        <time>2021-08-15T18:39:43Z</time>
      </trkpt>
      <trkpt lat="45.01463" lon="2.67129">
        <ele>777.36</ele>
        <time>2021-08-15T18:39:52Z</time>
      </trkpt>
      <trkpt lat="45.01466" lon="2.67124">
        <ele>777.84</ele>
        <time>2021-08-15T18:39:53Z</time>
      </trkpt>
      <trkpt lat="45.01469" lon="2.67117">
        <ele>777.84</ele>
        <time>2021-08-15T18:39:54Z</time>
      </trkpt>
      <trkpt lat="45.01469" lon="2.6711">
        <ele>776.88</ele>
        <time>2021-08-15T18:39:55Z</time>
      </trkpt>
      <trkpt lat="45.0147" lon="2.67101">
        <ele>775.92</ele>
        <time>2021-08-15T18:39:56Z</time>
      </trkpt>
      <trkpt lat="45.0147" lon="2.67093">
        <ele>775.44</ele>
        <time>2021-08-15T18:39:57Z</time>
      </trkpt>
      <trkpt lat="45.01471" lon="2.67084">
        <ele>775.44</ele>
        <time>2021-08-15T18:39:58Z</time>
      </trkpt>
      <trkpt lat="45.01472" lon="2.67078">
        <ele>775.44</ele>
        <time>2021-08-15T18:39:59Z</time>
      </trkpt>
      <trkpt lat="45.01474" lon="2.67071">
        <ele>775.44</ele>
        <time>2021-08-15T18:40:00Z</time>
      </trkpt>
      <trkpt lat="45.01477" lon="2.67063">
        <ele>776.88</ele>
        <time>2021-08-15T18:40:02Z</time>
      </trkpt>
      <trkpt lat="45.01479" lon="2.6705">
        <ele>778.81</ele>
        <time>2021-08-15T18:40:08Z</time>
      </trkpt>
      <trkpt lat="45.01476" lon="2.67036">
        <ele>779.29</ele>
        <time>2021-08-15T18:40:14Z</time>
      </trkpt>
      <trkpt lat="45.01467" lon="2.67021">
        <ele>778.81</ele>
        <time>2021-08-15T18:40:18Z</time>
      </trkpt>
      <trkpt lat="45.01465" lon="2.67015">
        <ele>777.36</ele>
        <time>2021-08-15T18:40:19Z</time>
      </trkpt>
      <trkpt lat="45.01463" lon="2.67007">
        <ele>775.92</ele>
        <time>2021-08-15T18:40:20Z</time>
      </trkpt>
      <trkpt lat="45.01459" lon="2.66991">
        <ele>774.48</ele>
        <time>2021-08-15T18:40:22Z</time>
      </trkpt>
      <trkpt lat="45.01456" lon="2.66983">
        <ele>774.48</ele>
        <time>2021-08-15T18:40:23Z</time>
      </trkpt>
      <trkpt lat="45.01452" lon="2.66975">
        <ele>774.48</ele>
        <time>2021-08-15T18:40:24Z</time>
      </trkpt>
      <trkpt lat="45.01447" lon="2.66969">
        <ele>774.48</ele>
        <time>2021-08-15T18:40:25Z</time>
      </trkpt>
      <trkpt lat="45.01442" lon="2.66961">
        <ele>774</ele>
        <time>2021-08-15T18:40:26Z</time>
      </trkpt>
      <trkpt lat="45.01413" lon="2.66919">
        <ele>774</ele>
        <time>2021-08-15T18:40:33Z</time>
      </trkpt>
      <trkpt lat="45.01382" lon="2.66881">
        <ele>774</ele>
        <time>2021-08-15T18:40:41Z</time>
      </trkpt>
      <trkpt lat="45.01367" lon="2.66864">
        <ele>774</ele>
        <time>2021-08-15T18:40:45Z</time>
      </trkpt>
      <trkpt lat="45.01347" lon="2.66839">
        <ele>773.52</ele>
        <time>2021-08-15T18:40:50Z</time>
      </trkpt>
      <trkpt lat="45.01311" lon="2.66805">
        <ele>773.52</ele>
        <time>2021-08-15T18:40:58Z</time>
      </trkpt>
      <trkpt lat="45.0129" lon="2.66781">
        <ele>773.52</ele>
        <time>2021-08-15T18:41:04Z</time>
      </trkpt>
      <trkpt lat="45.01287" lon="2.66777">
        <ele>773.04</ele>
        <time>2021-08-15T18:41:05Z</time>
      </trkpt>
      <trkpt lat="45.01265" lon="2.66745">
        <ele>772.56</ele>
        <time>2021-08-15T18:41:12Z</time>
      </trkpt>
      <trkpt lat="45.0124" lon="2.66716">
        <ele>772.08</ele>
        <time>2021-08-15T18:41:20Z</time>
      </trkpt>
      <trkpt lat="45.01226" lon="2.66703">
        <ele>771.6</ele>
        <time>2021-08-15T18:41:24Z</time>
      </trkpt>
      <trkpt lat="45.01199" lon="2.66678">
        <ele>770.63</ele>
        <time>2021-08-15T18:41:32Z</time>
      </trkpt>
      <trkpt lat="45.01187" lon="2.66662">
        <ele>771.11</ele>
        <time>2021-08-15T18:41:38Z</time>
      </trkpt>
      <trkpt lat="45.01184" lon="2.66658">
        <ele>772.08</ele>
        <time>2021-08-15T18:41:40Z</time>
      </trkpt>
      <trkpt lat="45.01181" lon="2.66639">
        <ele>773.04</ele>
        <time>2021-08-15T18:41:46Z</time>
      </trkpt>
      <trkpt lat="45.0118" lon="2.66628">
        <ele>773.52</ele>
        <time>2021-08-15T18:41:50Z</time>
      </trkpt>
      <trkpt lat="45.01179" lon="2.66626">
        <ele>773.52</ele>
        <time>2021-08-15T18:41:51Z</time>
      </trkpt>
      <trkpt lat="45.01177" lon="2.66626">
        <ele>774</ele>
        <time>2021-08-15T18:41:52Z</time>
      </trkpt>
      <trkpt lat="45.01175" lon="2.66626">
        <ele>774</ele>
        <time>2021-08-15T18:41:53Z</time>
      </trkpt>
      <trkpt lat="45.01173" lon="2.66628">
        <ele>774</ele>
        <time>2021-08-15T18:41:54Z</time>
      </trkpt>
      <trkpt lat="45.0117" lon="2.66629">
        <ele>774</ele>
        <time>2021-08-15T18:41:55Z</time>
      </trkpt>
      <trkpt lat="45.01147" lon="2.66644">
        <ele>772.56</ele>
        <time>2021-08-15T18:42:02Z</time>
      </trkpt>
      <trkpt lat="45.01135" lon="2.66668">
        <ele>772.56</ele>
        <time>2021-08-15T18:42:08Z</time>
      </trkpt>
      <trkpt lat="45.01129" lon="2.66682">
        <ele>772.56</ele>
        <time>2021-08-15T18:42:12Z</time>
      </trkpt>
      <trkpt lat="45.01126" lon="2.66683">
        <ele>772.56</ele>
        <time>2021-08-15T18:42:13Z</time>
      </trkpt>
      <trkpt lat="45.01122" lon="2.66682">
        <ele>772.56</ele>
        <time>2021-08-15T18:42:14Z</time>
      </trkpt>
      <trkpt lat="45.01118" lon="2.6668">
        <ele>772.56</ele>
        <time>2021-08-15T18:42:15Z</time>
      </trkpt>
      <trkpt lat="45.01115" lon="2.66678">
        <ele>772.08</ele>
        <time>2021-08-15T18:42:16Z</time>
      </trkpt>
      <trkpt lat="45.0111" lon="2.66675">
        <ele>771.6</ele>
        <time>2021-08-15T18:42:17Z</time>
      </trkpt>
      <trkpt lat="45.01068" lon="2.66656">
        <ele>769.19</ele>
        <time>2021-08-15T18:42:25Z</time>
      </trkpt>
      <trkpt lat="45.01019" lon="2.66628">
        <ele>767.27</ele>
        <time>2021-08-15T18:42:33Z</time>
      </trkpt>
      <trkpt lat="45.00978" lon="2.6659">
        <ele>766.79</ele>
        <time>2021-08-15T18:42:41Z</time>
      </trkpt>
      <trkpt lat="45.00957" lon="2.66548">
        <ele>766.79</ele>
        <time>2021-08-15T18:42:47Z</time>
      </trkpt>
      <trkpt lat="45.00924" lon="2.66469">
        <ele>766.79</ele>
        <time>2021-08-15T18:42:58Z</time>
      </trkpt>
      <trkpt lat="45.00885" lon="2.66417">
        <ele>766.79</ele>
        <time>2021-08-15T18:43:07Z</time>
      </trkpt>
      <trkpt lat="45.00839" lon="2.66379">
        <ele>766.31</ele>
        <time>2021-08-15T18:43:16Z</time>
      </trkpt>
      <trkpt lat="45.00813" lon="2.66366">
        <ele>765.83</ele>
        <time>2021-08-15T18:43:21Z</time>
      </trkpt>
      <trkpt lat="45.00808" lon="2.66362">
        <ele>765.83</ele>
        <time>2021-08-15T18:43:22Z</time>
      </trkpt>
      <trkpt lat="45.00803" lon="2.66357">
        <ele>765.83</ele>
        <time>2021-08-15T18:43:23Z</time>
      </trkpt>
      <trkpt lat="45.008" lon="2.66352">
        <ele>765.83</ele>
        <time>2021-08-15T18:43:24Z</time>
      </trkpt>
      <trkpt lat="45.00797" lon="2.66346">
        <ele>765.83</ele>
        <time>2021-08-15T18:43:25Z</time>
      </trkpt>
      <trkpt lat="45.00794" lon="2.66339">
        <ele>765.83</ele>
        <time>2021-08-15T18:43:26Z</time>
      </trkpt>
      <trkpt lat="45.00792" lon="2.66333">
        <ele>765.83</ele>
        <time>2021-08-15T18:43:27Z</time>
      </trkpt>
      <trkpt lat="45.00779" lon="2.66305">
        <ele>765.83</ele>
        <time>2021-08-15T18:43:32Z</time>
      </trkpt>
      <trkpt lat="45.00764" lon="2.66264">
        <ele>767.27</ele>
        <time>2021-08-15T18:43:39Z</time>
      </trkpt>
      <trkpt lat="45.00749" lon="2.66237">
        <ele>768.23</ele>
        <time>2021-08-15T18:43:46Z</time>
      </trkpt>
      <trkpt lat="45.00746" lon="2.66224">
        <ele>769.67</ele>
        <time>2021-08-15T18:43:53Z</time>
      </trkpt>
      <trkpt lat="45.00745" lon="2.66214">
        <ele>770.63</ele>
        <time>2021-08-15T18:44:00Z</time>
      </trkpt>
      <trkpt lat="45.00742" lon="2.66201">
        <ele>772.08</ele>
        <time>2021-08-15T18:44:10Z</time>
      </trkpt>
      <trkpt lat="45.00738" lon="2.66194">
        <ele>773.04</ele>
        <time>2021-08-15T18:44:19Z</time>
      </trkpt>
      <trkpt lat="45.00739" lon="2.66195">
        <ele>773.04</ele>
        <time>2021-08-15T18:44:34Z</time>
      </trkpt>
      <trkpt lat="45.00739" lon="2.66196">
        <ele>773.04</ele>
        <time>2021-08-15T18:44:49Z</time>
      </trkpt>
      <trkpt lat="45.00739" lon="2.66194">
        <ele>773.04</ele>
        <time>2021-08-15T18:45:08Z</time>
      </trkpt>
      <trkpt lat="45.00735" lon="2.6619">
        <ele>774</ele>
        <time>2021-08-15T18:45:18Z</time>
      </trkpt>
      <trkpt lat="45.0073" lon="2.66185">
        <ele>774.48</ele>
        <time>2021-08-15T18:45:24Z</time>
      </trkpt>
      <trkpt lat="45.00729" lon="2.66184">
        <ele>774.48</ele>
        <time>2021-08-15T18:45:25Z</time>
      </trkpt>
      <trkpt lat="45.00728" lon="2.66183">
        <ele>774.48</ele>
        <time>2021-08-15T18:45:26Z</time>
      </trkpt>
      <trkpt lat="45.00719" lon="2.66175">
        <ele>774.96</ele>
        <time>2021-08-15T18:45:35Z</time>
      </trkpt>
      <trkpt lat="45.00713" lon="2.66161">
        <ele>775.92</ele>
        <time>2021-08-15T18:45:45Z</time>
      </trkpt>
      <trkpt lat="45.00708" lon="2.66149">
        <ele>777.36</ele>
        <time>2021-08-15T18:45:53Z</time>
      </trkpt>
      <trkpt lat="45.00706" lon="2.66134">
        <ele>778.81</ele>
        <time>2021-08-15T18:46:03Z</time>
      </trkpt>
      <trkpt lat="45.00706" lon="2.66133">
        <ele>779.29</ele>
        <time>2021-08-15T18:46:04Z</time>
      </trkpt>
      <trkpt lat="45.007" lon="2.66119">
        <ele>779.29</ele>
        <time>2021-08-15T18:46:14Z</time>
      </trkpt>
      <trkpt lat="45.00698" lon="2.66117">
        <ele>780.25</ele>
        <time>2021-08-15T18:46:20Z</time>
      </trkpt>
      <trkpt lat="45.00698" lon="2.66114">
        <ele>779.77</ele>
        <time>2021-08-15T18:46:36Z</time>
      </trkpt>
      <trkpt lat="45.00695" lon="2.66115">
        <ele>779.77</ele>
        <time>2021-08-15T18:47:00Z</time>
      </trkpt>
      <trkpt lat="45.00692" lon="2.66115">
        <ele>779.77</ele>
        <time>2021-08-15T18:47:05Z</time>
      </trkpt>
      <trkpt lat="45.00681" lon="2.66111">
        <ele>779.77</ele>
        <time>2021-08-15T18:47:12Z</time>
      </trkpt>
      <trkpt lat="45.00669" lon="2.66098">
        <ele>780.73</ele>
        <time>2021-08-15T18:47:18Z</time>
      </trkpt>
      <trkpt lat="45.00656" lon="2.66085">
        <ele>781.21</ele>
        <time>2021-08-15T18:47:24Z</time>
      </trkpt>
      <trkpt lat="45.00642" lon="2.66073">
        <ele>781.69</ele>
        <time>2021-08-15T18:47:31Z</time>
      </trkpt>
      <trkpt lat="45.00634" lon="2.66059">
        <ele>782.17</ele>
        <time>2021-08-15T18:47:37Z</time>
      </trkpt>
      <trkpt lat="45.00623" lon="2.66043">
        <ele>783.13</ele>
        <time>2021-08-15T18:47:45Z</time>
      </trkpt>
      <trkpt lat="45.00603" lon="2.66024">
        <ele>784.09</ele>
        <time>2021-08-15T18:47:55Z</time>
      </trkpt>
      <trkpt lat="45.00593" lon="2.66014">
        <ele>785.53</ele>
        <time>2021-08-15T18:48:02Z</time>
      </trkpt>
      <trkpt lat="45.00592" lon="2.6601">
        <ele>786.02</ele>
        <time>2021-08-15T18:48:05Z</time>
      </trkpt>
      <trkpt lat="45.00587" lon="2.65998">
        <ele>786.98</ele>
        <time>2021-08-15T18:48:12Z</time>
      </trkpt>
      <trkpt lat="45.00581" lon="2.65982">
        <ele>787.46</ele>
        <time>2021-08-15T18:48:20Z</time>
      </trkpt>
      <trkpt lat="45.00576" lon="2.65964">
        <ele>787.94</ele>
        <time>2021-08-15T18:48:27Z</time>
      </trkpt>
      <trkpt lat="45.0057" lon="2.65945">
        <ele>787.94</ele>
        <time>2021-08-15T18:48:34Z</time>
      </trkpt>
      <trkpt lat="45.00561" lon="2.6592">
        <ele>787.94</ele>
        <time>2021-08-15T18:48:41Z</time>
      </trkpt>
      <trkpt lat="45.00548" lon="2.65892">
        <ele>787.94</ele>
        <time>2021-08-15T18:48:48Z</time>
      </trkpt>
      <trkpt lat="45.00538" lon="2.65865">
        <ele>787.94</ele>
        <time>2021-08-15T18:48:54Z</time>
      </trkpt>
      <trkpt lat="45.0053" lon="2.65838">
        <ele>788.42</ele>
        <time>2021-08-15T18:49:00Z</time>
      </trkpt>
      <trkpt lat="45.00525" lon="2.65812">
        <ele>788.42</ele>
        <time>2021-08-15T18:49:06Z</time>
      </trkpt>
      <trkpt lat="45.00516" lon="2.65788">
        <ele>788.42</ele>
        <time>2021-08-15T18:49:11Z</time>
      </trkpt>
      <trkpt lat="45.00508" lon="2.65771">
        <ele>788.42</ele>
        <time>2021-08-15T18:49:14Z</time>
      </trkpt>
      <trkpt lat="45.00497" lon="2.65744">
        <ele>786.98</ele>
        <time>2021-08-15T18:49:19Z</time>
      </trkpt>
      <trkpt lat="45.00493" lon="2.65739">
        <ele>786.98</ele>
        <time>2021-08-15T18:49:20Z</time>
      </trkpt>
      <trkpt lat="45.00489" lon="2.65734">
        <ele>786.98</ele>
        <time>2021-08-15T18:49:21Z</time>
      </trkpt>
      <trkpt lat="45.0046" lon="2.65711">
        <ele>786.5</ele>
        <time>2021-08-15T18:49:27Z</time>
      </trkpt>
      <trkpt lat="45.00443" lon="2.65697">
        <ele>784.57</ele>
        <time>2021-08-15T18:49:31Z</time>
      </trkpt>
      <trkpt lat="45.00439" lon="2.65691">
        <ele>784.09</ele>
        <time>2021-08-15T18:49:32Z</time>
      </trkpt>
      <trkpt lat="45.00418" lon="2.65656">
        <ele>782.65</ele>
        <time>2021-08-15T18:49:37Z</time>
      </trkpt>
      <trkpt lat="45.00402" lon="2.65627">
        <ele>780.73</ele>
        <time>2021-08-15T18:49:41Z</time>
      </trkpt>
      <trkpt lat="45.00395" lon="2.65613">
        <ele>780.25</ele>
        <time>2021-08-15T18:49:43Z</time>
      </trkpt>
      <trkpt lat="45.0039" lon="2.65606">
        <ele>779.77</ele>
        <time>2021-08-15T18:49:44Z</time>
      </trkpt>
      <trkpt lat="45.00367" lon="2.65576">
        <ele>779.29</ele>
        <time>2021-08-15T18:49:50Z</time>
      </trkpt>
      <trkpt lat="45.00348" lon="2.6555">
        <ele>779.77</ele>
        <time>2021-08-15T18:49:56Z</time>
      </trkpt>
      <trkpt lat="45.00339" lon="2.65537">
        <ele>779.77</ele>
        <time>2021-08-15T18:49:59Z</time>
      </trkpt>
      <trkpt lat="45.00323" lon="2.65511">
        <ele>779.77</ele>
        <time>2021-08-15T18:50:05Z</time>
      </trkpt>
      <trkpt lat="45.00322" lon="2.6551">
        <ele>779.77</ele>
        <time>2021-08-15T18:50:06Z</time>
      </trkpt>
      <trkpt lat="45.00321" lon="2.65507">
        <ele>780.73</ele>
        <time>2021-08-15T18:50:07Z</time>
      </trkpt>
      <trkpt lat="45.00313" lon="2.65494">
        <ele>781.69</ele>
        <time>2021-08-15T18:50:14Z</time>
      </trkpt>
      <trkpt lat="45.0031" lon="2.65489">
        <ele>782.17</ele>
        <time>2021-08-15T18:50:17Z</time>
      </trkpt>
      <trkpt lat="45.00309" lon="2.65488">
        <ele>782.65</ele>
        <time>2021-08-15T18:50:18Z</time>
      </trkpt>
      <trkpt lat="45.00299" lon="2.65482">
        <ele>783.61</ele>
        <time>2021-08-15T18:50:26Z</time>
      </trkpt>
      <trkpt lat="45.00287" lon="2.65482">
        <ele>784.57</ele>
        <time>2021-08-15T18:50:35Z</time>
      </trkpt>
      <trkpt lat="45.00271" lon="2.65483">
        <ele>783.13</ele>
        <time>2021-08-15T18:50:40Z</time>
      </trkpt>
      <trkpt lat="45.00267" lon="2.65484">
        <ele>783.13</ele>
        <time>2021-08-15T18:50:41Z</time>
      </trkpt>
      <trkpt lat="45.00252" lon="2.6549">
        <ele>783.13</ele>
        <time>2021-08-15T18:50:46Z</time>
      </trkpt>
      <trkpt lat="45.00244" lon="2.65498">
        <ele>782.65</ele>
        <time>2021-08-15T18:50:52Z</time>
      </trkpt>
      <trkpt lat="45.00239" lon="2.65502">
        <ele>784.09</ele>
        <time>2021-08-15T18:50:56Z</time>
      </trkpt>
      <trkpt lat="45.00233" lon="2.65509">
        <ele>785.05</ele>
        <time>2021-08-15T18:51:03Z</time>
      </trkpt>
      <trkpt lat="45.0022" lon="2.65521">
        <ele>786.02</ele>
        <time>2021-08-15T18:51:12Z</time>
      </trkpt>
      <trkpt lat="45.00216" lon="2.65528">
        <ele>786.98</ele>
        <time>2021-08-15T18:51:20Z</time>
      </trkpt>
      <trkpt lat="45.00214" lon="2.65535">
        <ele>788.42</ele>
        <time>2021-08-15T18:51:29Z</time>
      </trkpt>
      <trkpt lat="45.00213" lon="2.65542">
        <ele>789.38</ele>
        <time>2021-08-15T18:51:37Z</time>
      </trkpt>
      <trkpt lat="45.00213" lon="2.65545">
        <ele>791.3</ele>
        <time>2021-08-15T18:51:47Z</time>
      </trkpt>
      <trkpt lat="45.00211" lon="2.65551">
        <ele>792.74</ele>
        <time>2021-08-15T18:51:56Z</time>
      </trkpt>
      <trkpt lat="45.00211" lon="2.65557">
        <ele>793.71</ele>
        <time>2021-08-15T18:52:03Z</time>
      </trkpt>
      <trkpt lat="45.0021" lon="2.65565">
        <ele>795.15</ele>
        <time>2021-08-15T18:52:13Z</time>
      </trkpt>
      <trkpt lat="45.00209" lon="2.65569">
        <ele>797.07</ele>
        <time>2021-08-15T18:52:22Z</time>
      </trkpt>
      <trkpt lat="45.00207" lon="2.65573">
        <ele>797.55</ele>
        <time>2021-08-15T18:52:29Z</time>
      </trkpt>
      <trkpt lat="45.00206" lon="2.65578">
        <ele>798.99</ele>
        <time>2021-08-15T18:52:35Z</time>
      </trkpt>
      <trkpt lat="45.00205" lon="2.65586">
        <ele>799.47</ele>
        <time>2021-08-15T18:52:43Z</time>
      </trkpt>
      <trkpt lat="45.00204" lon="2.65596">
        <ele>800.92</ele>
        <time>2021-08-15T18:52:51Z</time>
      </trkpt>
      <trkpt lat="45.00205" lon="2.65606">
        <ele>801.88</ele>
        <time>2021-08-15T18:52:58Z</time>
      </trkpt>
      <trkpt lat="45.00204" lon="2.65618">
        <ele>802.84</ele>
        <time>2021-08-15T18:53:07Z</time>
      </trkpt>
      <trkpt lat="45.00204" lon="2.65619">
        <ele>802.84</ele>
        <time>2021-08-15T18:53:08Z</time>
      </trkpt>
      <trkpt lat="45.00204" lon="2.65628">
        <ele>803.8</ele>
        <time>2021-08-15T18:53:15Z</time>
      </trkpt>
      <trkpt lat="45.00207" lon="2.65639">
        <ele>805.24</ele>
        <time>2021-08-15T18:53:25Z</time>
      </trkpt>
      <trkpt lat="45.00206" lon="2.6565">
        <ele>805.72</ele>
        <time>2021-08-15T18:53:32Z</time>
      </trkpt>
      <trkpt lat="45.00205" lon="2.65652">
        <ele>806.2</ele>
        <time>2021-08-15T18:53:34Z</time>
      </trkpt>
      <trkpt lat="45.00204" lon="2.65653">
        <ele>806.2</ele>
        <time>2021-08-15T18:53:35Z</time>
      </trkpt>
      <trkpt lat="45.00201" lon="2.65651">
        <ele>806.68</ele>
        <time>2021-08-15T18:53:43Z</time>
      </trkpt>
      <trkpt lat="45.00198" lon="2.65645">
        <ele>807.16</ele>
        <time>2021-08-15T18:53:51Z</time>
      </trkpt>
      <trkpt lat="45.00196" lon="2.65637">
        <ele>808.61</ele>
        <time>2021-08-15T18:53:58Z</time>
      </trkpt>
      <trkpt lat="45.00196" lon="2.65629">
        <ele>809.57</ele>
        <time>2021-08-15T18:54:06Z</time>
      </trkpt>
      <trkpt lat="45.00196" lon="2.65623">
        <ele>810.53</ele>
        <time>2021-08-15T18:54:13Z</time>
      </trkpt>
      <trkpt lat="45.00194" lon="2.65617">
        <ele>811.97</ele>
        <time>2021-08-15T18:54:21Z</time>
      </trkpt>
      <trkpt lat="45.00193" lon="2.65611">
        <ele>813.41</ele>
        <time>2021-08-15T18:54:29Z</time>
      </trkpt>
      <trkpt lat="45.00192" lon="2.65602">
        <ele>814.37</ele>
        <time>2021-08-15T18:54:38Z</time>
      </trkpt>
      <trkpt lat="45.00191" lon="2.65593">
        <ele>814.85</ele>
        <time>2021-08-15T18:54:45Z</time>
      </trkpt>
      <trkpt lat="45.0019" lon="2.65583">
        <ele>815.82</ele>
        <time>2021-08-15T18:54:53Z</time>
      </trkpt>
      <trkpt lat="45.00186" lon="2.65575">
        <ele>816.78</ele>
        <time>2021-08-15T18:55:01Z</time>
      </trkpt>
      <trkpt lat="45.00183" lon="2.65568">
        <ele>818.22</ele>
        <time>2021-08-15T18:55:08Z</time>
      </trkpt>
      <trkpt lat="45.0018" lon="2.6556">
        <ele>819.18</ele>
        <time>2021-08-15T18:55:16Z</time>
      </trkpt>
      <trkpt lat="45.00173" lon="2.6555">
        <ele>820.62</ele>
        <time>2021-08-15T18:55:26Z</time>
      </trkpt>
      <trkpt lat="45.00165" lon="2.65546">
        <ele>821.58</ele>
        <time>2021-08-15T18:55:35Z</time>
      </trkpt>
      <trkpt lat="45.00164" lon="2.65545">
        <ele>821.58</ele>
        <time>2021-08-15T18:55:36Z</time>
      </trkpt>
      <trkpt lat="45.00163" lon="2.65543">
        <ele>820.62</ele>
        <time>2021-08-15T18:55:37Z</time>
      </trkpt>
      <trkpt lat="45.00161" lon="2.65542">
        <ele>820.14</ele>
        <time>2021-08-15T18:55:38Z</time>
      </trkpt>
      <trkpt lat="45.00159" lon="2.65541">
        <ele>819.18</ele>
        <time>2021-08-15T18:55:39Z</time>
      </trkpt>
      <trkpt lat="45.00156" lon="2.65539">
        <ele>818.7</ele>
        <time>2021-08-15T18:55:40Z</time>
      </trkpt>
      <trkpt lat="45.00152" lon="2.65536">
        <ele>817.74</ele>
        <time>2021-08-15T18:55:41Z</time>
      </trkpt>
      <trkpt lat="45.00148" lon="2.65533">
        <ele>817.26</ele>
        <time>2021-08-15T18:55:42Z</time>
      </trkpt>
      <trkpt lat="45.00144" lon="2.65529">
        <ele>817.26</ele>
        <time>2021-08-15T18:55:43Z</time>
      </trkpt>
      <trkpt lat="45.0014" lon="2.65526">
        <ele>817.26</ele>
        <time>2021-08-15T18:55:44Z</time>
      </trkpt>
      <trkpt lat="45.00137" lon="2.65524">
        <ele>817.26</ele>
        <time>2021-08-15T18:55:45Z</time>
      </trkpt>
      <trkpt lat="45.00134" lon="2.65522">
        <ele>817.26</ele>
        <time>2021-08-15T18:55:46Z</time>
      </trkpt>
      <trkpt lat="45.00132" lon="2.65521">
        <ele>818.7</ele>
        <time>2021-08-15T18:55:47Z</time>
      </trkpt>
      <trkpt lat="45.00131" lon="2.65521">
        <ele>818.7</ele>
        <time>2021-08-15T18:55:48Z</time>
      </trkpt>
      <trkpt lat="45.00119" lon="2.65511">
        <ele>820.62</ele>
        <time>2021-08-15T18:55:56Z</time>
      </trkpt>
      <trkpt lat="45.00112" lon="2.65509">
        <ele>822.55</ele>
        <time>2021-08-15T18:56:06Z</time>
      </trkpt>
      <trkpt lat="45.00109" lon="2.65511">
        <ele>822.55</ele>
        <time>2021-08-15T18:56:26Z</time>
      </trkpt>
      <trkpt lat="45.00108" lon="2.6551">
        <ele>822.55</ele>
        <time>2021-08-15T18:56:39Z</time>
      </trkpt>
      <trkpt lat="45.00106" lon="2.6551">
        <ele>822.55</ele>
        <time>2021-08-15T18:56:54Z</time>
      </trkpt>
      <trkpt lat="45.00105" lon="2.65511">
        <ele>822.55</ele>
        <time>2021-08-15T18:57:05Z</time>
      </trkpt>
      <trkpt lat="45.00099" lon="2.6551">
        <ele>823.99</ele>
        <time>2021-08-15T18:57:13Z</time>
      </trkpt>
      <trkpt lat="45.00093" lon="2.6551">
        <ele>825.91</ele>
        <time>2021-08-15T18:57:22Z</time>
      </trkpt>
      <trkpt lat="45.00089" lon="2.65509">
        <ele>827.35</ele>
        <time>2021-08-15T18:57:30Z</time>
      </trkpt>
      <trkpt lat="45.00082" lon="2.6551">
        <ele>829.27</ele>
        <time>2021-08-15T18:57:39Z</time>
      </trkpt>
      <trkpt lat="45.00077" lon="2.6551">
        <ele>830.72</ele>
        <time>2021-08-15T18:57:47Z</time>
      </trkpt>
      <trkpt lat="45.00069" lon="2.65509">
        <ele>831.2</ele>
        <time>2021-08-15T18:57:54Z</time>
      </trkpt>
      <trkpt lat="45.00063" lon="2.65508">
        <ele>831.2</ele>
        <time>2021-08-15T18:58:01Z</time>
      </trkpt>
      <trkpt lat="45.00062" lon="2.65508">
        <ele>831.2</ele>
        <time>2021-08-15T18:58:10Z</time>
      </trkpt>
      <trkpt lat="45.00062" lon="2.6551">
        <ele>831.2</ele>
        <time>2021-08-15T18:58:23Z</time>
      </trkpt>
      <trkpt lat="45.00067" lon="2.65513">
        <ele>831.2</ele>
        <time>2021-08-15T18:58:45Z</time>
      </trkpt>
      <trkpt lat="45.00065" lon="2.65514">
        <ele>831.2</ele>
        <time>2021-08-15T18:59:09Z</time>
      </trkpt>
      <trkpt lat="45.0006" lon="2.65515">
        <ele>831.2</ele>
        <time>2021-08-15T18:59:32Z</time>
      </trkpt>
      <trkpt lat="45.00058" lon="2.65516">
        <ele>831.2</ele>
        <time>2021-08-15T18:59:50Z</time>
      </trkpt>
      <trkpt lat="45.00059" lon="2.65516">
        <ele>831.2</ele>
        <time>2021-08-15T18:59:51Z</time>
      </trkpt>
      <trkpt lat="45.00058" lon="2.65517">
        <ele>831.2</ele>
        <time>2021-08-15T18:59:57Z</time>
      </trkpt>
      <trkpt lat="45.00056" lon="2.65516">
        <ele>831.2</ele>
        <time>2021-08-15T19:00:06Z</time>
      </trkpt>
      <trkpt lat="45.00057" lon="2.65516">
        <ele>831.2</ele>
        <time>2021-08-15T19:00:23Z</time>
      </trkpt>
      <trkpt lat="45.00056" lon="2.65512">
        <ele>831.2</ele>
        <time>2021-08-15T19:00:27Z</time>
      </trkpt>
      <trkpt lat="45.00055" lon="2.6551">
        <ele>831.2</ele>
        <time>2021-08-15T19:00:28Z</time>
      </trkpt>
      <trkpt lat="45.00046" lon="2.65498">
        <ele>829.76</ele>
        <time>2021-08-15T19:00:32Z</time>
      </trkpt>
      <trkpt lat="45.00039" lon="2.65491">
        <ele>828.31</ele>
        <time>2021-08-15T19:00:34Z</time>
      </trkpt>
      <trkpt lat="45.00036" lon="2.65487">
        <ele>827.35</ele>
        <time>2021-08-15T19:00:35Z</time>
      </trkpt>
      <trkpt lat="45.00033" lon="2.65482">
        <ele>826.87</ele>
        <time>2021-08-15T19:00:36Z</time>
      </trkpt>
      <trkpt lat="45.00016" lon="2.65452">
        <ele>823.51</ele>
        <time>2021-08-15T19:00:42Z</time>
      </trkpt>
      <trkpt lat="45.00012" lon="2.65449">
        <ele>823.03</ele>
        <time>2021-08-15T19:00:43Z</time>
      </trkpt>
      <trkpt lat="45.00007" lon="2.65447">
        <ele>822.06</ele>
        <time>2021-08-15T19:00:44Z</time>
      </trkpt>
      <trkpt lat="45.00003" lon="2.65446">
        <ele>821.1</ele>
        <time>2021-08-15T19:00:45Z</time>
      </trkpt>
      <trkpt lat="44.99998" lon="2.65446">
        <ele>820.62</ele>
        <time>2021-08-15T19:00:46Z</time>
      </trkpt>
      <trkpt lat="44.99993" lon="2.65445">
        <ele>820.14</ele>
        <time>2021-08-15T19:00:47Z</time>
      </trkpt>
      <trkpt lat="44.99988" lon="2.65444">
        <ele>819.66</ele>
        <time>2021-08-15T19:00:48Z</time>
      </trkpt>
      <trkpt lat="44.99983" lon="2.65443">
        <ele>819.18</ele>
        <time>2021-08-15T19:00:49Z</time>
      </trkpt>
      <trkpt lat="44.9998" lon="2.65441">
        <ele>819.18</ele>
        <time>2021-08-15T19:00:50Z</time>
      </trkpt>
      <trkpt lat="44.99977" lon="2.65438">
        <ele>818.7</ele>
        <time>2021-08-15T19:00:51Z</time>
      </trkpt>
      <trkpt lat="44.99975" lon="2.65436">
        <ele>818.7</ele>
        <time>2021-08-15T19:00:52Z</time>
      </trkpt>
      <trkpt lat="44.99971" lon="2.65433">
        <ele>818.22</ele>
        <time>2021-08-15T19:00:56Z</time>
      </trkpt>
      <trkpt lat="44.99972" lon="2.65435">
        <ele>818.22</ele>
        <time>2021-08-15T19:01:14Z</time>
      </trkpt>
      <trkpt lat="44.9997" lon="2.65433">
        <ele>817.74</ele>
        <time>2021-08-15T19:01:24Z</time>
      </trkpt>
      <trkpt lat="44.99968" lon="2.65432">
        <ele>817.74</ele>
        <time>2021-08-15T19:01:25Z</time>
      </trkpt>
      <trkpt lat="44.99965" lon="2.65431">
        <ele>817.26</ele>
        <time>2021-08-15T19:01:26Z</time>
      </trkpt>
      <trkpt lat="44.99961" lon="2.6543">
        <ele>817.26</ele>
        <time>2021-08-15T19:01:27Z</time>
      </trkpt>
      <trkpt lat="44.99957" lon="2.6543">
        <ele>816.78</ele>
        <time>2021-08-15T19:01:28Z</time>
      </trkpt>
      <trkpt lat="44.99952" lon="2.6543">
        <ele>816.78</ele>
        <time>2021-08-15T19:01:29Z</time>
      </trkpt>
      <trkpt lat="44.99941" lon="2.65431">
        <ele>814.85</ele>
        <time>2021-08-15T19:01:31Z</time>
      </trkpt>
      <trkpt lat="44.99935" lon="2.65429">
        <ele>813.89</ele>
        <time>2021-08-15T19:01:32Z</time>
      </trkpt>
      <trkpt lat="44.99929" lon="2.65426">
        <ele>813.41</ele>
        <time>2021-08-15T19:01:33Z</time>
      </trkpt>
      <trkpt lat="44.99922" lon="2.65422">
        <ele>812.45</ele>
        <time>2021-08-15T19:01:34Z</time>
      </trkpt>
      <trkpt lat="44.99916" lon="2.65417">
        <ele>811.97</ele>
        <time>2021-08-15T19:01:35Z</time>
      </trkpt>
      <trkpt lat="44.9991" lon="2.65411">
        <ele>811.01</ele>
        <time>2021-08-15T19:01:36Z</time>
      </trkpt>
      <trkpt lat="44.99905" lon="2.65404">
        <ele>809.57</ele>
        <time>2021-08-15T19:01:37Z</time>
      </trkpt>
      <trkpt lat="44.99901" lon="2.65396">
        <ele>808.61</ele>
        <time>2021-08-15T19:01:38Z</time>
      </trkpt>
      <trkpt lat="44.99898" lon="2.65387">
        <ele>807.64</ele>
        <time>2021-08-15T19:01:39Z</time>
      </trkpt>
      <trkpt lat="44.99896" lon="2.65377">
        <ele>806.68</ele>
        <time>2021-08-15T19:01:40Z</time>
      </trkpt>
      <trkpt lat="44.99893" lon="2.65369">
        <ele>805.72</ele>
        <time>2021-08-15T19:01:41Z</time>
      </trkpt>
      <trkpt lat="44.99889" lon="2.6536">
        <ele>805.72</ele>
        <time>2021-08-15T19:01:42Z</time>
      </trkpt>
      <trkpt lat="44.99885" lon="2.65352">
        <ele>804.76</ele>
        <time>2021-08-15T19:01:43Z</time>
      </trkpt>
      <trkpt lat="44.99879" lon="2.65346">
        <ele>803.8</ele>
        <time>2021-08-15T19:01:44Z</time>
      </trkpt>
      <trkpt lat="44.99873" lon="2.65341">
        <ele>802.36</ele>
        <time>2021-08-15T19:01:45Z</time>
      </trkpt>
      <trkpt lat="44.99866" lon="2.65337">
        <ele>801.4</ele>
        <time>2021-08-15T19:01:46Z</time>
      </trkpt>
      <trkpt lat="44.99859" lon="2.65334">
        <ele>800.92</ele>
        <time>2021-08-15T19:01:47Z</time>
      </trkpt>
      <trkpt lat="44.99853" lon="2.65329">
        <ele>800.44</ele>
        <time>2021-08-15T19:01:48Z</time>
      </trkpt>
      <trkpt lat="44.99848" lon="2.65323">
        <ele>799.47</ele>
        <time>2021-08-15T19:01:49Z</time>
      </trkpt>
      <trkpt lat="44.99844" lon="2.65317">
        <ele>798.99</ele>
        <time>2021-08-15T19:01:50Z</time>
      </trkpt>
      <trkpt lat="44.99841" lon="2.65311">
        <ele>798.51</ele>
        <time>2021-08-15T19:01:51Z</time>
      </trkpt>
      <trkpt lat="44.99839" lon="2.65304">
        <ele>798.03</ele>
        <time>2021-08-15T19:01:52Z</time>
      </trkpt>
      <trkpt lat="44.9983" lon="2.65282">
        <ele>796.11</ele>
        <time>2021-08-15T19:01:56Z</time>
      </trkpt>
      <trkpt lat="44.99824" lon="2.65276">
        <ele>795.15</ele>
        <time>2021-08-15T19:01:58Z</time>
      </trkpt>
      <trkpt lat="44.9982" lon="2.65275">
        <ele>795.15</ele>
        <time>2021-08-15T19:01:59Z</time>
      </trkpt>
      <trkpt lat="44.99816" lon="2.65276">
        <ele>794.67</ele>
        <time>2021-08-15T19:02:00Z</time>
      </trkpt>
      <trkpt lat="44.99805" lon="2.65282">
        <ele>794.67</ele>
        <time>2021-08-15T19:02:03Z</time>
      </trkpt>
      <trkpt lat="44.998" lon="2.65283">
        <ele>794.19</ele>
        <time>2021-08-15T19:02:04Z</time>
      </trkpt>
      <trkpt lat="44.99796" lon="2.65282">
        <ele>794.19</ele>
        <time>2021-08-15T19:02:05Z</time>
      </trkpt>
      <trkpt lat="44.99791" lon="2.65281">
        <ele>793.22</ele>
        <time>2021-08-15T19:02:06Z</time>
      </trkpt>
      <trkpt lat="44.99785" lon="2.65279">
        <ele>793.22</ele>
        <time>2021-08-15T19:02:07Z</time>
      </trkpt>
      <trkpt lat="44.9978" lon="2.65277">
        <ele>793.22</ele>
        <time>2021-08-15T19:02:08Z</time>
      </trkpt>
      <trkpt lat="44.99774" lon="2.65274">
        <ele>792.26</ele>
        <time>2021-08-15T19:02:09Z</time>
      </trkpt>
      <trkpt lat="44.99738" lon="2.65256">
        <ele>791.78</ele>
        <time>2021-08-15T19:02:15Z</time>
      </trkpt>
      <trkpt lat="44.99733" lon="2.65254">
        <ele>791.78</ele>
        <time>2021-08-15T19:02:16Z</time>
      </trkpt>
      <trkpt lat="44.99704" lon="2.65236">
        <ele>791.78</ele>
        <time>2021-08-15T19:02:23Z</time>
      </trkpt>
      <trkpt lat="44.99699" lon="2.65234">
        <ele>791.78</ele>
        <time>2021-08-15T19:02:24Z</time>
      </trkpt>
      <trkpt lat="44.99695" lon="2.65232">
        <ele>791.78</ele>
        <time>2021-08-15T19:02:25Z</time>
      </trkpt>
      <trkpt lat="44.99658" lon="2.65218">
        <ele>788.42</ele>
        <time>2021-08-15T19:02:32Z</time>
      </trkpt>
      <trkpt lat="44.99651" lon="2.65216">
        <ele>787.46</ele>
        <time>2021-08-15T19:02:33Z</time>
      </trkpt>
      <trkpt lat="44.99644" lon="2.65215">
        <ele>786.98</ele>
        <time>2021-08-15T19:02:34Z</time>
      </trkpt>
      <trkpt lat="44.99621" lon="2.65213">
        <ele>784.57</ele>
        <time>2021-08-15T19:02:37Z</time>
      </trkpt>
      <trkpt lat="44.99615" lon="2.65212">
        <ele>783.61</ele>
        <time>2021-08-15T19:02:38Z</time>
      </trkpt>
      <trkpt lat="44.996" lon="2.65211">
        <ele>782.65</ele>
        <time>2021-08-15T19:02:40Z</time>
      </trkpt>
      <trkpt lat="44.9958" lon="2.65213">
        <ele>780.25</ele>
        <time>2021-08-15T19:02:43Z</time>
      </trkpt>
      <trkpt lat="44.99575" lon="2.65211">
        <ele>779.77</ele>
        <time>2021-08-15T19:02:44Z</time>
      </trkpt>
      <trkpt lat="44.9957" lon="2.65207">
        <ele>779.29</ele>
        <time>2021-08-15T19:02:45Z</time>
      </trkpt>
      <trkpt lat="44.99567" lon="2.65194">
        <ele>778.81</ele>
        <time>2021-08-15T19:02:47Z</time>
      </trkpt>
      <trkpt lat="44.99568" lon="2.65188">
        <ele>778.81</ele>
        <time>2021-08-15T19:02:48Z</time>
      </trkpt>
      <trkpt lat="44.99569" lon="2.65184">
        <ele>778.81</ele>
        <time>2021-08-15T19:02:49Z</time>
      </trkpt>
      <trkpt lat="44.9957" lon="2.65181">
        <ele>778.81</ele>
        <time>2021-08-15T19:02:50Z</time>
      </trkpt>
      <trkpt lat="44.99573" lon="2.65175">
        <ele>778.81</ele>
        <time>2021-08-15T19:02:52Z</time>
      </trkpt>
      <trkpt lat="44.99575" lon="2.65173">
        <ele>778.81</ele>
        <time>2021-08-15T19:02:53Z</time>
      </trkpt>
      <trkpt lat="44.99576" lon="2.6517">
        <ele>778.81</ele>
        <time>2021-08-15T19:02:54Z</time>
      </trkpt>
      <trkpt lat="44.99577" lon="2.65167">
        <ele>780.25</ele>
        <time>2021-08-15T19:02:55Z</time>
      </trkpt>
      <trkpt lat="44.99578" lon="2.65164">
        <ele>780.25</ele>
        <time>2021-08-15T19:02:56Z</time>
      </trkpt>
      <trkpt lat="44.99579" lon="2.65161">
        <ele>780.25</ele>
        <time>2021-08-15T19:02:57Z</time>
      </trkpt>
      <trkpt lat="44.9958" lon="2.65157">
        <ele>780.25</ele>
        <time>2021-08-15T19:02:58Z</time>
      </trkpt>
      <trkpt lat="44.99582" lon="2.65154">
        <ele>780.25</ele>
        <time>2021-08-15T19:02:59Z</time>
      </trkpt>
      <trkpt lat="44.99584" lon="2.6515">
        <ele>780.25</ele>
        <time>2021-08-15T19:03:00Z</time>
      </trkpt>
      <trkpt lat="44.99591" lon="2.65127">
        <ele>780.73</ele>
        <time>2021-08-15T19:03:05Z</time>
      </trkpt>
      <trkpt lat="44.99591" lon="2.6511">
        <ele>780.73</ele>
        <time>2021-08-15T19:03:08Z</time>
      </trkpt>
      <trkpt lat="44.99589" lon="2.65104">
        <ele>780.73</ele>
        <time>2021-08-15T19:03:09Z</time>
      </trkpt>
      <trkpt lat="44.99587" lon="2.651">
        <ele>780.73</ele>
        <time>2021-08-15T19:03:10Z</time>
      </trkpt>
      <trkpt lat="44.99577" lon="2.65071">
        <ele>781.21</ele>
        <time>2021-08-15T19:03:16Z</time>
      </trkpt>
      <trkpt lat="44.99573" lon="2.65059">
        <ele>781.21</ele>
        <time>2021-08-15T19:03:18Z</time>
      </trkpt>
      <trkpt lat="44.99567" lon="2.65035">
        <ele>781.21</ele>
        <time>2021-08-15T19:03:22Z</time>
      </trkpt>
      <trkpt lat="44.99566" lon="2.65029">
        <ele>781.21</ele>
        <time>2021-08-15T19:03:23Z</time>
      </trkpt>
      <trkpt lat="44.99564" lon="2.65024">
        <ele>781.21</ele>
        <time>2021-08-15T19:03:24Z</time>
      </trkpt>
      <trkpt lat="44.99563" lon="2.65019">
        <ele>781.21</ele>
        <time>2021-08-15T19:03:25Z</time>
      </trkpt>
      <trkpt lat="44.99562" lon="2.65014">
        <ele>781.69</ele>
        <time>2021-08-15T19:03:26Z</time>
      </trkpt>
      <trkpt lat="44.9956" lon="2.65009">
        <ele>781.69</ele>
        <time>2021-08-15T19:03:27Z</time>
      </trkpt>
      <trkpt lat="44.99558" lon="2.65004">
        <ele>781.69</ele>
        <time>2021-08-15T19:03:28Z</time>
      </trkpt>
      <trkpt lat="44.99551" lon="2.64983">
        <ele>781.69</ele>
        <time>2021-08-15T19:03:32Z</time>
      </trkpt>
      <trkpt lat="44.99545" lon="2.64972">
        <ele>781.69</ele>
        <time>2021-08-15T19:03:34Z</time>
      </trkpt>
      <trkpt lat="44.99526" lon="2.64933">
        <ele>780.25</ele>
        <time>2021-08-15T19:03:41Z</time>
      </trkpt>
      <trkpt lat="44.99508" lon="2.64906">
        <ele>778.81</ele>
        <time>2021-08-15T19:03:45Z</time>
      </trkpt>
      <trkpt lat="44.995" lon="2.64894">
        <ele>777.36</ele>
        <time>2021-08-15T19:03:47Z</time>
      </trkpt>
      <trkpt lat="44.99498" lon="2.64887">
        <ele>777.36</ele>
        <time>2021-08-15T19:03:48Z</time>
      </trkpt>
      <trkpt lat="44.99498" lon="2.6488">
        <ele>777.36</ele>
        <time>2021-08-15T19:03:49Z</time>
      </trkpt>
      <trkpt lat="44.995" lon="2.64872">
        <ele>776.88</ele>
        <time>2021-08-15T19:03:50Z</time>
      </trkpt>
      <trkpt lat="44.99504" lon="2.64867">
        <ele>776.4</ele>
        <time>2021-08-15T19:03:51Z</time>
      </trkpt>
      <trkpt lat="44.99509" lon="2.64861">
        <ele>775.44</ele>
        <time>2021-08-15T19:03:52Z</time>
      </trkpt>
      <trkpt lat="44.9953" lon="2.64836">
        <ele>771.6</ele>
        <time>2021-08-15T19:03:56Z</time>
      </trkpt>
      <trkpt lat="44.99535" lon="2.64833">
        <ele>771.11</ele>
        <time>2021-08-15T19:03:57Z</time>
      </trkpt>
      <trkpt lat="44.9954" lon="2.64832">
        <ele>771.11</ele>
        <time>2021-08-15T19:03:58Z</time>
      </trkpt>
      <trkpt lat="44.99545" lon="2.64833">
        <ele>770.63</ele>
        <time>2021-08-15T19:03:59Z</time>
      </trkpt>
      <trkpt lat="44.9955" lon="2.64836">
        <ele>770.63</ele>
        <time>2021-08-15T19:04:00Z</time>
      </trkpt>
      <trkpt lat="44.99555" lon="2.6484">
        <ele>770.15</ele>
        <time>2021-08-15T19:04:01Z</time>
      </trkpt>
      <trkpt lat="44.9956" lon="2.64842">
        <ele>770.15</ele>
        <time>2021-08-15T19:04:02Z</time>
      </trkpt>
      <trkpt lat="44.99565" lon="2.64842">
        <ele>769.19</ele>
        <time>2021-08-15T19:04:03Z</time>
      </trkpt>
      <trkpt lat="44.99571" lon="2.6484">
        <ele>769.19</ele>
        <time>2021-08-15T19:04:04Z</time>
      </trkpt>
      <trkpt lat="44.99575" lon="2.64835">
        <ele>768.23</ele>
        <time>2021-08-15T19:04:05Z</time>
      </trkpt>
      <trkpt lat="44.99578" lon="2.64827">
        <ele>767.75</ele>
        <time>2021-08-15T19:04:06Z</time>
      </trkpt>
      <trkpt lat="44.99581" lon="2.64818">
        <ele>767.27</ele>
        <time>2021-08-15T19:04:07Z</time>
      </trkpt>
      <trkpt lat="44.99584" lon="2.64808">
        <ele>766.79</ele>
        <time>2021-08-15T19:04:08Z</time>
      </trkpt>
      <trkpt lat="44.99589" lon="2.64787">
        <ele>765.35</ele>
        <time>2021-08-15T19:04:10Z</time>
      </trkpt>
      <trkpt lat="44.9959" lon="2.64777">
        <ele>765.35</ele>
        <time>2021-08-15T19:04:11Z</time>
      </trkpt>
      <trkpt lat="44.99589" lon="2.64766">
        <ele>764.87</ele>
        <time>2021-08-15T19:04:12Z</time>
      </trkpt>
      <trkpt lat="44.99588" lon="2.64754">
        <ele>763.9</ele>
        <time>2021-08-15T19:04:13Z</time>
      </trkpt>
      <trkpt lat="44.99586" lon="2.64744">
        <ele>763.9</ele>
        <time>2021-08-15T19:04:14Z</time>
      </trkpt>
      <trkpt lat="44.99581" lon="2.64723">
        <ele>763.42</ele>
        <time>2021-08-15T19:04:16Z</time>
      </trkpt>
      <trkpt lat="44.99577" lon="2.64714">
        <ele>763.42</ele>
        <time>2021-08-15T19:04:17Z</time>
      </trkpt>
      <trkpt lat="44.99574" lon="2.64708">
        <ele>763.42</ele>
        <time>2021-08-15T19:04:18Z</time>
      </trkpt>
      <trkpt lat="44.9957" lon="2.64705">
        <ele>763.42</ele>
        <time>2021-08-15T19:04:19Z</time>
      </trkpt>
      <trkpt lat="44.99568" lon="2.64703">
        <ele>763.42</ele>
        <time>2021-08-15T19:04:20Z</time>
      </trkpt>
      <trkpt lat="44.99565" lon="2.64702">
        <ele>763.42</ele>
        <time>2021-08-15T19:04:21Z</time>
      </trkpt>
      <trkpt lat="44.99562" lon="2.64701">
        <ele>763.42</ele>
        <time>2021-08-15T19:04:22Z</time>
      </trkpt>
      <trkpt lat="44.9956" lon="2.64701">
        <ele>763.42</ele>
        <time>2021-08-15T19:04:23Z</time>
      </trkpt>
      <trkpt lat="44.99557" lon="2.647">
        <ele>763.42</ele>
        <time>2021-08-15T19:04:24Z</time>
      </trkpt>
      <trkpt lat="44.99555" lon="2.647">
        <ele>763.42</ele>
        <time>2021-08-15T19:04:25Z</time>
      </trkpt>
      <trkpt lat="44.9954" lon="2.647">
        <ele>765.83</ele>
        <time>2021-08-15T19:04:34Z</time>
      </trkpt>
      <trkpt lat="44.99527" lon="2.64702">
        <ele>767.27</ele>
        <time>2021-08-15T19:04:41Z</time>
      </trkpt>
      <trkpt lat="44.99523" lon="2.64702">
        <ele>767.27</ele>
        <time>2021-08-15T19:04:43Z</time>
      </trkpt>
      <trkpt lat="44.99521" lon="2.64702">
        <ele>767.75</ele>
        <time>2021-08-15T19:04:44Z</time>
      </trkpt>
      <trkpt lat="44.99512" lon="2.64707">
        <ele>768.23</ele>
        <time>2021-08-15T19:04:49Z</time>
      </trkpt>
      <trkpt lat="44.99511" lon="2.64709">
        <ele>768.23</ele>
        <time>2021-08-15T19:04:50Z</time>
      </trkpt>
      <trkpt lat="44.99509" lon="2.6471">
        <ele>768.23</ele>
        <time>2021-08-15T19:04:51Z</time>
      </trkpt>
      <trkpt lat="44.99488" lon="2.64719">
        <ele>766.79</ele>
        <time>2021-08-15T19:04:58Z</time>
      </trkpt>
      <trkpt lat="44.99484" lon="2.64722">
        <ele>766.31</ele>
        <time>2021-08-15T19:04:59Z</time>
      </trkpt>
      <trkpt lat="44.99481" lon="2.64726">
        <ele>765.83</ele>
        <time>2021-08-15T19:05:00Z</time>
      </trkpt>
      <trkpt lat="44.99473" lon="2.64734">
        <ele>765.83</ele>
        <time>2021-08-15T19:05:02Z</time>
      </trkpt>
      <trkpt lat="44.99469" lon="2.64737">
        <ele>765.83</ele>
        <time>2021-08-15T19:05:03Z</time>
      </trkpt>
      <trkpt lat="44.99463" lon="2.64745">
        <ele>765.83</ele>
        <time>2021-08-15T19:05:06Z</time>
      </trkpt>
      <trkpt lat="44.99461" lon="2.64746">
        <ele>765.83</ele>
        <time>2021-08-15T19:05:07Z</time>
      </trkpt>
      <trkpt lat="44.9946" lon="2.64747">
        <ele>767.27</ele>
        <time>2021-08-15T19:05:08Z</time>
      </trkpt>
      <trkpt lat="44.99459" lon="2.64748">
        <ele>767.27</ele>
        <time>2021-08-15T19:05:09Z</time>
      </trkpt>
      <trkpt lat="44.99457" lon="2.64749">
        <ele>767.27</ele>
        <time>2021-08-15T19:05:10Z</time>
      </trkpt>
      <trkpt lat="44.99456" lon="2.6475">
        <ele>767.75</ele>
        <time>2021-08-15T19:05:11Z</time>
      </trkpt>
      <trkpt lat="44.99442" lon="2.64758">
        <ele>767.75</ele>
        <time>2021-08-15T19:05:18Z</time>
      </trkpt>
      <trkpt lat="44.99433" lon="2.64756">
        <ele>766.31</ele>
        <time>2021-08-15T19:05:21Z</time>
      </trkpt>
      <trkpt lat="44.99409" lon="2.64744">
        <ele>763.9</ele>
        <time>2021-08-15T19:05:28Z</time>
      </trkpt>
      <trkpt lat="44.99384" lon="2.64746">
        <ele>760.06</ele>
        <time>2021-08-15T19:05:35Z</time>
      </trkpt>
      <trkpt lat="44.9938" lon="2.64747">
        <ele>760.06</ele>
        <time>2021-08-15T19:05:36Z</time>
      </trkpt>
      <trkpt lat="44.99375" lon="2.64748">
        <ele>759.58</ele>
        <time>2021-08-15T19:05:37Z</time>
      </trkpt>
      <trkpt lat="44.99364" lon="2.64751">
        <ele>758.62</ele>
        <time>2021-08-15T19:05:39Z</time>
      </trkpt>
      <trkpt lat="44.99321" lon="2.64747">
        <ele>754.77</ele>
        <time>2021-08-15T19:05:46Z</time>
      </trkpt>
      <trkpt lat="44.99316" lon="2.64744">
        <ele>754.29</ele>
        <time>2021-08-15T19:05:47Z</time>
      </trkpt>
      <trkpt lat="44.9931" lon="2.64738">
        <ele>754.29</ele>
        <time>2021-08-15T19:05:48Z</time>
      </trkpt>
      <trkpt lat="44.99306" lon="2.64732">
        <ele>753.81</ele>
        <time>2021-08-15T19:05:49Z</time>
      </trkpt>
      <trkpt lat="44.99303" lon="2.64724">
        <ele>753.81</ele>
        <time>2021-08-15T19:05:50Z</time>
      </trkpt>
      <trkpt lat="44.993" lon="2.64717">
        <ele>753.81</ele>
        <time>2021-08-15T19:05:51Z</time>
      </trkpt>
      <trkpt lat="44.99298" lon="2.64709">
        <ele>753.81</ele>
        <time>2021-08-15T19:05:52Z</time>
      </trkpt>
      <trkpt lat="44.99297" lon="2.64701">
        <ele>753.81</ele>
        <time>2021-08-15T19:05:53Z</time>
      </trkpt>
      <trkpt lat="44.99296" lon="2.64693">
        <ele>753.81</ele>
        <time>2021-08-15T19:05:54Z</time>
      </trkpt>
      <trkpt lat="44.99296" lon="2.64674">
        <ele>753.81</ele>
        <time>2021-08-15T19:05:57Z</time>
      </trkpt>
      <trkpt lat="44.99297" lon="2.64667">
        <ele>753.33</ele>
        <time>2021-08-15T19:05:58Z</time>
      </trkpt>
      <trkpt lat="44.99299" lon="2.64661">
        <ele>752.85</ele>
        <time>2021-08-15T19:05:59Z</time>
      </trkpt>
      <trkpt lat="44.99301" lon="2.64655">
        <ele>751.89</ele>
        <time>2021-08-15T19:06:00Z</time>
      </trkpt>
      <trkpt lat="44.99303" lon="2.64651">
        <ele>751.89</ele>
        <time>2021-08-15T19:06:01Z</time>
      </trkpt>
      <trkpt lat="44.99305" lon="2.64646">
        <ele>751.89</ele>
        <time>2021-08-15T19:06:02Z</time>
      </trkpt>
      <trkpt lat="44.99306" lon="2.64639">
        <ele>751.41</ele>
        <time>2021-08-15T19:06:03Z</time>
      </trkpt>
      <trkpt lat="44.99307" lon="2.64633">
        <ele>750.93</ele>
        <time>2021-08-15T19:06:04Z</time>
      </trkpt>
      <trkpt lat="44.99306" lon="2.64626">
        <ele>750.93</ele>
        <time>2021-08-15T19:06:05Z</time>
      </trkpt>
      <trkpt lat="44.99306" lon="2.6462">
        <ele>750.93</ele>
        <time>2021-08-15T19:06:06Z</time>
      </trkpt>
      <trkpt lat="44.99304" lon="2.64613">
        <ele>750.93</ele>
        <time>2021-08-15T19:06:07Z</time>
      </trkpt>
      <trkpt lat="44.99296" lon="2.64588">
        <ele>749.97</ele>
        <time>2021-08-15T19:06:12Z</time>
      </trkpt>
      <trkpt lat="44.9929" lon="2.64579">
        <ele>751.41</ele>
        <time>2021-08-15T19:06:14Z</time>
      </trkpt>
      <trkpt lat="44.99281" lon="2.64563">
        <ele>749</ele>
        <time>2021-08-15T19:06:17Z</time>
      </trkpt>
      <trkpt lat="44.99279" lon="2.64558">
        <ele>748.52</ele>
        <time>2021-08-15T19:06:18Z</time>
      </trkpt>
      <trkpt lat="44.99254" lon="2.64519">
        <ele>747.08</ele>
        <time>2021-08-15T19:06:26Z</time>
      </trkpt>
      <trkpt lat="44.99251" lon="2.64514">
        <ele>746.6</ele>
        <time>2021-08-15T19:06:27Z</time>
      </trkpt>
      <trkpt lat="44.99247" lon="2.64511">
        <ele>746.12</ele>
        <time>2021-08-15T19:06:28Z</time>
      </trkpt>
      <trkpt lat="44.99243" lon="2.64508">
        <ele>745.16</ele>
        <time>2021-08-15T19:06:29Z</time>
      </trkpt>
      <trkpt lat="44.9923" lon="2.64499">
        <ele>741.79</ele>
        <time>2021-08-15T19:06:32Z</time>
      </trkpt>
      <trkpt lat="44.99211" lon="2.64484">
        <ele>738.43</ele>
        <time>2021-08-15T19:06:35Z</time>
      </trkpt>
      <trkpt lat="44.99182" lon="2.64465">
        <ele>735.55</ele>
        <time>2021-08-15T19:06:39Z</time>
      </trkpt>
      <trkpt lat="44.99176" lon="2.6446">
        <ele>734.58</ele>
        <time>2021-08-15T19:06:40Z</time>
      </trkpt>
      <trkpt lat="44.99169" lon="2.64453">
        <ele>734.1</ele>
        <time>2021-08-15T19:06:41Z</time>
      </trkpt>
      <trkpt lat="44.99159" lon="2.64439">
        <ele>732.18</ele>
        <time>2021-08-15T19:06:43Z</time>
      </trkpt>
      <trkpt lat="44.99154" lon="2.64431">
        <ele>731.7</ele>
        <time>2021-08-15T19:06:44Z</time>
      </trkpt>
      <trkpt lat="44.99148" lon="2.64419">
        <ele>731.7</ele>
        <time>2021-08-15T19:06:46Z</time>
      </trkpt>
      <trkpt lat="44.99146" lon="2.64411">
        <ele>731.22</ele>
        <time>2021-08-15T19:06:47Z</time>
      </trkpt>
      <trkpt lat="44.99144" lon="2.64403">
        <ele>730.26</ele>
        <time>2021-08-15T19:06:48Z</time>
      </trkpt>
      <trkpt lat="44.99142" lon="2.64394">
        <ele>729.78</ele>
        <time>2021-08-15T19:06:49Z</time>
      </trkpt>
      <trkpt lat="44.99139" lon="2.64386">
        <ele>728.34</ele>
        <time>2021-08-15T19:06:50Z</time>
      </trkpt>
      <trkpt lat="44.99137" lon="2.64379">
        <ele>727.37</ele>
        <time>2021-08-15T19:06:51Z</time>
      </trkpt>
      <trkpt lat="44.99134" lon="2.64372">
        <ele>727.37</ele>
        <time>2021-08-15T19:06:52Z</time>
      </trkpt>
      <trkpt lat="44.99129" lon="2.6436">
        <ele>724.49</ele>
        <time>2021-08-15T19:06:54Z</time>
      </trkpt>
      <trkpt lat="44.99123" lon="2.64345">
        <ele>721.61</ele>
        <time>2021-08-15T19:06:58Z</time>
      </trkpt>
      <trkpt lat="44.99121" lon="2.64343">
        <ele>721.61</ele>
        <time>2021-08-15T19:06:59Z</time>
      </trkpt>
      <trkpt lat="44.9912" lon="2.64341">
        <ele>721.13</ele>
        <time>2021-08-15T19:07:00Z</time>
      </trkpt>
      <trkpt lat="44.99118" lon="2.6434">
        <ele>721.13</ele>
        <time>2021-08-15T19:07:05Z</time>
      </trkpt>
      <trkpt lat="44.99117" lon="2.6434">
        <ele>720.65</ele>
        <time>2021-08-15T19:07:07Z</time>
      </trkpt>
      <trkpt lat="44.99116" lon="2.6434">
        <ele>720.65</ele>
        <time>2021-08-15T19:07:08Z</time>
      </trkpt>
      <trkpt lat="44.99108" lon="2.64339">
        <ele>719.2</ele>
        <time>2021-08-15T19:07:10Z</time>
      </trkpt>
      <trkpt lat="44.99102" lon="2.64335">
        <ele>718.24</ele>
        <time>2021-08-15T19:07:11Z</time>
      </trkpt>
      <trkpt lat="44.99097" lon="2.64332">
        <ele>716.8</ele>
        <time>2021-08-15T19:07:12Z</time>
      </trkpt>
      <trkpt lat="44.99076" lon="2.64319">
        <ele>712.95</ele>
        <time>2021-08-15T19:07:15Z</time>
      </trkpt>
      <trkpt lat="44.99049" lon="2.64311">
        <ele>708.63</ele>
        <time>2021-08-15T19:07:18Z</time>
      </trkpt>
      <trkpt lat="44.99024" lon="2.64306">
        <ele>706.71</ele>
        <time>2021-08-15T19:07:21Z</time>
      </trkpt>
      <trkpt lat="44.99003" lon="2.64302">
        <ele>706.23</ele>
        <time>2021-08-15T19:07:24Z</time>
      </trkpt>
      <trkpt lat="44.98996" lon="2.643">
        <ele>706.23</ele>
        <time>2021-08-15T19:07:25Z</time>
      </trkpt>
      <trkpt lat="44.98957" lon="2.64277">
        <ele>705.26</ele>
        <time>2021-08-15T19:07:32Z</time>
      </trkpt>
      <trkpt lat="44.98953" lon="2.64273">
        <ele>705.26</ele>
        <time>2021-08-15T19:07:33Z</time>
      </trkpt>
      <trkpt lat="44.98936" lon="2.64258">
        <ele>703.34</ele>
        <time>2021-08-15T19:07:36Z</time>
      </trkpt>
      <trkpt lat="44.989" lon="2.64213">
        <ele>700.94</ele>
        <time>2021-08-15T19:07:42Z</time>
      </trkpt>
      <trkpt lat="44.98891" lon="2.64199">
        <ele>700.46</ele>
        <time>2021-08-15T19:07:44Z</time>
      </trkpt>
      <trkpt lat="44.98876" lon="2.64176">
        <ele>699.98</ele>
        <time>2021-08-15T19:07:48Z</time>
      </trkpt>
      <trkpt lat="44.98872" lon="2.64172">
        <ele>699.5</ele>
        <time>2021-08-15T19:07:49Z</time>
      </trkpt>
      <trkpt lat="44.98866" lon="2.64168">
        <ele>699.02</ele>
        <time>2021-08-15T19:07:50Z</time>
      </trkpt>
      <trkpt lat="44.98862" lon="2.64164">
        <ele>698.53</ele>
        <time>2021-08-15T19:07:51Z</time>
      </trkpt>
      <trkpt lat="44.98856" lon="2.64161">
        <ele>697.57</ele>
        <time>2021-08-15T19:07:52Z</time>
      </trkpt>
      <trkpt lat="44.98823" lon="2.64139">
        <ele>695.65</ele>
        <time>2021-08-15T19:07:59Z</time>
      </trkpt>
      <trkpt lat="44.98818" lon="2.64135">
        <ele>695.65</ele>
        <time>2021-08-15T19:08:00Z</time>
      </trkpt>
      <trkpt lat="44.98813" lon="2.64131">
        <ele>695.65</ele>
        <time>2021-08-15T19:08:01Z</time>
      </trkpt>
      <trkpt lat="44.98802" lon="2.64114">
        <ele>694.69</ele>
        <time>2021-08-15T19:08:06Z</time>
      </trkpt>
      <trkpt lat="44.98802" lon="2.64112">
        <ele>694.69</ele>
        <time>2021-08-15T19:08:07Z</time>
      </trkpt>
      <trkpt lat="44.98802" lon="2.6411">
        <ele>694.69</ele>
        <time>2021-08-15T19:08:08Z</time>
      </trkpt>
      <trkpt lat="44.98801" lon="2.64108">
        <ele>694.69</ele>
        <time>2021-08-15T19:08:09Z</time>
      </trkpt>
      <trkpt lat="44.98799" lon="2.64106">
        <ele>694.69</ele>
        <time>2021-08-15T19:08:10Z</time>
      </trkpt>
      <trkpt lat="44.98798" lon="2.64106">
        <ele>694.69</ele>
        <time>2021-08-15T19:08:11Z</time>
      </trkpt>
      <trkpt lat="44.98797" lon="2.64107">
        <ele>694.69</ele>
        <time>2021-08-15T19:08:12Z</time>
      </trkpt>
      <trkpt lat="44.98797" lon="2.64109">
        <ele>694.69</ele>
        <time>2021-08-15T19:08:13Z</time>
      </trkpt>
      <trkpt lat="44.98799" lon="2.64111">
        <ele>694.69</ele>
        <time>2021-08-15T19:08:14Z</time>
      </trkpt>
      <trkpt lat="44.988" lon="2.64111">
        <ele>694.69</ele>
        <time>2021-08-15T19:08:15Z</time>
      </trkpt>
      <trkpt lat="44.98802" lon="2.64111">
        <ele>694.69</ele>
        <time>2021-08-15T19:08:16Z</time>
      </trkpt>
      <trkpt lat="44.98803" lon="2.6411">
        <ele>694.69</ele>
        <time>2021-08-15T19:08:17Z</time>
      </trkpt>
      <trkpt lat="44.98805" lon="2.6411">
        <ele>694.69</ele>
        <time>2021-08-15T19:08:18Z</time>
      </trkpt>
      <trkpt lat="44.98825" lon="2.6411">
        <ele>692.77</ele>
        <time>2021-08-15T19:08:26Z</time>
      </trkpt>
      <trkpt lat="44.98847" lon="2.64111">
        <ele>691.81</ele>
        <time>2021-08-15T19:08:35Z</time>
      </trkpt>
    </trkseg>
  </trk>
  <trk>
    <name><![CDATA[10 FD]]></name>
    <trkseg>
      <trkpt lat="44.98919" lon="2.64111">
        <ele>678.35</ele>
        <time>2021-08-16T04:47:03Z</time>
      </trkpt>
      <trkpt lat="44.98903" lon="2.64111">
        <ele>679.31</ele>
        <time>2021-08-16T04:47:11Z</time>
      </trkpt>
      <trkpt lat="44.98902" lon="2.6411">
        <ele>679.31</ele>
        <time>2021-08-16T04:47:16Z</time>
      </trkpt>
      <trkpt lat="44.98901" lon="2.64112">
        <ele>688.44</ele>
        <time>2021-08-16T04:47:27Z</time>
      </trkpt>
      <trkpt lat="44.98901" lon="2.64112">
        <ele>688.44</ele>
        <time>2021-08-16T04:47:28Z</time>
      </trkpt>
      <trkpt lat="44.98895" lon="2.64112">
        <ele>687.48</ele>
        <time>2021-08-16T04:47:35Z</time>
      </trkpt>
      <trkpt lat="44.98873" lon="2.64113">
        <ele>689.4</ele>
        <time>2021-08-16T04:47:46Z</time>
      </trkpt>
      <trkpt lat="44.9887" lon="2.64113">
        <ele>689.4</ele>
        <time>2021-08-16T04:47:52Z</time>
      </trkpt>
      <trkpt lat="44.98869" lon="2.64115">
        <ele>689.4</ele>
        <time>2021-08-16T04:47:59Z</time>
      </trkpt>
      <trkpt lat="44.98869" lon="2.64114">
        <ele>689.4</ele>
        <time>2021-08-16T04:48:07Z</time>
      </trkpt>
      <trkpt lat="44.98867" lon="2.64112">
        <ele>689.4</ele>
        <time>2021-08-16T04:48:09Z</time>
      </trkpt>
      <trkpt lat="44.98852" lon="2.64108">
        <ele>690.36</ele>
        <time>2021-08-16T04:48:16Z</time>
      </trkpt>
      <trkpt lat="44.98833" lon="2.64111">
        <ele>691.81</ele>
        <time>2021-08-16T04:48:25Z</time>
      </trkpt>
      <trkpt lat="44.98806" lon="2.64108">
        <ele>693.73</ele>
        <time>2021-08-16T04:48:37Z</time>
      </trkpt>
      <trkpt lat="44.98787" lon="2.64095">
        <ele>693.73</ele>
        <time>2021-08-16T04:48:44Z</time>
      </trkpt>
      <trkpt lat="44.98767" lon="2.64075">
        <ele>693.73</ele>
        <time>2021-08-16T04:48:52Z</time>
      </trkpt>
      <trkpt lat="44.98754" lon="2.64051">
        <ele>694.21</ele>
        <time>2021-08-16T04:48:59Z</time>
      </trkpt>
      <trkpt lat="44.98739" lon="2.64031">
        <ele>694.69</ele>
        <time>2021-08-16T04:49:06Z</time>
      </trkpt>
      <trkpt lat="44.98721" lon="2.64016">
        <ele>695.17</ele>
        <time>2021-08-16T04:49:13Z</time>
      </trkpt>
      <trkpt lat="44.98701" lon="2.64003">
        <ele>696.61</ele>
        <time>2021-08-16T04:49:21Z</time>
      </trkpt>
      <trkpt lat="44.98681" lon="2.63987">
        <ele>694.21</ele>
        <time>2021-08-16T04:49:27Z</time>
      </trkpt>
      <trkpt lat="44.98664" lon="2.6397">
        <ele>690.84</ele>
        <time>2021-08-16T04:49:31Z</time>
      </trkpt>
      <trkpt lat="44.98655" lon="2.63963">
        <ele>689.4</ele>
        <time>2021-08-16T04:49:33Z</time>
      </trkpt>
      <trkpt lat="44.9865" lon="2.63959">
        <ele>688.92</ele>
        <time>2021-08-16T04:49:34Z</time>
      </trkpt>
      <trkpt lat="44.98645" lon="2.63958">
        <ele>688.44</ele>
        <time>2021-08-16T04:49:35Z</time>
      </trkpt>
      <trkpt lat="44.9864" lon="2.63957">
        <ele>687.96</ele>
        <time>2021-08-16T04:49:36Z</time>
      </trkpt>
      <trkpt lat="44.98635" lon="2.63956">
        <ele>687.96</ele>
        <time>2021-08-16T04:49:37Z</time>
      </trkpt>
      <trkpt lat="44.98631" lon="2.63954">
        <ele>687.96</ele>
        <time>2021-08-16T04:49:38Z</time>
      </trkpt>
      <trkpt lat="44.98628" lon="2.63949">
        <ele>687.48</ele>
        <time>2021-08-16T04:49:39Z</time>
      </trkpt>
      <trkpt lat="44.98626" lon="2.63943">
        <ele>687.48</ele>
        <time>2021-08-16T04:49:40Z</time>
      </trkpt>
      <trkpt lat="44.98624" lon="2.63936">
        <ele>686.52</ele>
        <time>2021-08-16T04:49:41Z</time>
      </trkpt>
      <trkpt lat="44.98608" lon="2.63893">
        <ele>683.63</ele>
        <time>2021-08-16T04:49:46Z</time>
      </trkpt>
      <trkpt lat="44.98582" lon="2.63816">
        <ele>682.19</ele>
        <time>2021-08-16T04:49:54Z</time>
      </trkpt>
      <trkpt lat="44.9856" lon="2.63722">
        <ele>681.23</ele>
        <time>2021-08-16T04:50:04Z</time>
      </trkpt>
      <trkpt lat="44.98556" lon="2.63715">
        <ele>681.23</ele>
        <time>2021-08-16T04:50:05Z</time>
      </trkpt>
      <trkpt lat="44.98552" lon="2.63709">
        <ele>680.75</ele>
        <time>2021-08-16T04:50:06Z</time>
      </trkpt>
      <trkpt lat="44.98547" lon="2.63704">
        <ele>680.75</ele>
        <time>2021-08-16T04:50:07Z</time>
      </trkpt>
      <trkpt lat="44.98542" lon="2.63699">
        <ele>680.75</ele>
        <time>2021-08-16T04:50:08Z</time>
      </trkpt>
      <trkpt lat="44.98537" lon="2.63694">
        <ele>680.75</ele>
        <time>2021-08-16T04:50:09Z</time>
      </trkpt>
      <trkpt lat="44.98497" lon="2.63668">
        <ele>680.75</ele>
        <time>2021-08-16T04:50:17Z</time>
      </trkpt>
      <trkpt lat="44.98476" lon="2.63649">
        <ele>680.75</ele>
        <time>2021-08-16T04:50:22Z</time>
      </trkpt>
      <trkpt lat="44.98448" lon="2.63619">
        <ele>682.19</ele>
        <time>2021-08-16T04:50:30Z</time>
      </trkpt>
      <trkpt lat="44.98445" lon="2.63615">
        <ele>682.19</ele>
        <time>2021-08-16T04:50:31Z</time>
      </trkpt>
      <trkpt lat="44.98423" lon="2.63581">
        <ele>680.75</ele>
        <time>2021-08-16T04:50:38Z</time>
      </trkpt>
      <trkpt lat="44.9842" lon="2.63573">
        <ele>680.27</ele>
        <time>2021-08-16T04:50:39Z</time>
      </trkpt>
      <trkpt lat="44.98418" lon="2.63566">
        <ele>679.79</ele>
        <time>2021-08-16T04:50:40Z</time>
      </trkpt>
      <trkpt lat="44.98416" lon="2.63557">
        <ele>679.79</ele>
        <time>2021-08-16T04:50:41Z</time>
      </trkpt>
      <trkpt lat="44.98415" lon="2.63548">
        <ele>679.31</ele>
        <time>2021-08-16T04:50:42Z</time>
      </trkpt>
      <trkpt lat="44.98414" lon="2.63538">
        <ele>678.83</ele>
        <time>2021-08-16T04:50:43Z</time>
      </trkpt>
      <trkpt lat="44.9841" lon="2.63503">
        <ele>678.35</ele>
        <time>2021-08-16T04:50:47Z</time>
      </trkpt>
      <trkpt lat="44.9841" lon="2.63493">
        <ele>678.35</ele>
        <time>2021-08-16T04:50:48Z</time>
      </trkpt>
      <trkpt lat="44.98411" lon="2.63485">
        <ele>678.35</ele>
        <time>2021-08-16T04:50:49Z</time>
      </trkpt>
      <trkpt lat="44.98413" lon="2.63478">
        <ele>678.35</ele>
        <time>2021-08-16T04:50:50Z</time>
      </trkpt>
      <trkpt lat="44.98415" lon="2.63472">
        <ele>678.35</ele>
        <time>2021-08-16T04:50:51Z</time>
      </trkpt>
      <trkpt lat="44.98417" lon="2.63467">
        <ele>678.35</ele>
        <time>2021-08-16T04:50:52Z</time>
      </trkpt>
      <trkpt lat="44.98422" lon="2.63454">
        <ele>678.35</ele>
        <time>2021-08-16T04:50:54Z</time>
      </trkpt>
      <trkpt lat="44.98422" lon="2.63448">
        <ele>678.35</ele>
        <time>2021-08-16T04:50:55Z</time>
      </trkpt>
      <trkpt lat="44.98421" lon="2.63441">
        <ele>678.35</ele>
        <time>2021-08-16T04:50:56Z</time>
      </trkpt>
      <trkpt lat="44.98418" lon="2.63434">
        <ele>678.35</ele>
        <time>2021-08-16T04:50:57Z</time>
      </trkpt>
      <trkpt lat="44.98415" lon="2.63427">
        <ele>678.35</ele>
        <time>2021-08-16T04:50:58Z</time>
      </trkpt>
      <trkpt lat="44.98411" lon="2.6342">
        <ele>677.39</ele>
        <time>2021-08-16T04:50:59Z</time>
      </trkpt>
      <trkpt lat="44.98381" lon="2.63358">
        <ele>675.94</ele>
        <time>2021-08-16T04:51:07Z</time>
      </trkpt>
      <trkpt lat="44.98353" lon="2.63295">
        <ele>675.46</ele>
        <time>2021-08-16T04:51:16Z</time>
      </trkpt>
      <trkpt lat="44.98322" lon="2.63244">
        <ele>675.46</ele>
        <time>2021-08-16T04:51:25Z</time>
      </trkpt>
      <trkpt lat="44.98283" lon="2.63206">
        <ele>675.46</ele>
        <time>2021-08-16T04:51:34Z</time>
      </trkpt>
      <trkpt lat="44.98241" lon="2.63177">
        <ele>674.98</ele>
        <time>2021-08-16T04:51:43Z</time>
      </trkpt>
      <trkpt lat="44.98233" lon="2.63169">
        <ele>674.98</ele>
        <time>2021-08-16T04:51:45Z</time>
      </trkpt>
      <trkpt lat="44.9823" lon="2.63163">
        <ele>674.5</ele>
        <time>2021-08-16T04:51:46Z</time>
      </trkpt>
      <trkpt lat="44.98228" lon="2.63156">
        <ele>674.5</ele>
        <time>2021-08-16T04:51:47Z</time>
      </trkpt>
      <trkpt lat="44.98227" lon="2.63149">
        <ele>674.5</ele>
        <time>2021-08-16T04:51:48Z</time>
      </trkpt>
      <trkpt lat="44.98227" lon="2.63142">
        <ele>674.5</ele>
        <time>2021-08-16T04:51:49Z</time>
      </trkpt>
      <trkpt lat="44.98227" lon="2.63134">
        <ele>674.5</ele>
        <time>2021-08-16T04:51:50Z</time>
      </trkpt>
      <trkpt lat="44.9822" lon="2.6307">
        <ele>674.5</ele>
        <time>2021-08-16T04:51:59Z</time>
      </trkpt>
      <trkpt lat="44.98216" lon="2.63055">
        <ele>674.02</ele>
        <time>2021-08-16T04:52:01Z</time>
      </trkpt>
      <trkpt lat="44.98193" lon="2.62997">
        <ele>673.54</ele>
        <time>2021-08-16T04:52:10Z</time>
      </trkpt>
      <trkpt lat="44.98174" lon="2.62964">
        <ele>673.06</ele>
        <time>2021-08-16T04:52:16Z</time>
      </trkpt>
      <trkpt lat="44.98147" lon="2.62917">
        <ele>673.06</ele>
        <time>2021-08-16T04:52:25Z</time>
      </trkpt>
      <trkpt lat="44.98126" lon="2.62877">
        <ele>673.06</ele>
        <time>2021-08-16T04:52:33Z</time>
      </trkpt>
      <trkpt lat="44.98119" lon="2.62864">
        <ele>674.5</ele>
        <time>2021-08-16T04:52:36Z</time>
      </trkpt>
      <trkpt lat="44.98095" lon="2.62822">
        <ele>674.5</ele>
        <time>2021-08-16T04:52:45Z</time>
      </trkpt>
      <trkpt lat="44.98093" lon="2.62817">
        <ele>674.5</ele>
        <time>2021-08-16T04:52:46Z</time>
      </trkpt>
      <trkpt lat="44.9809" lon="2.62813">
        <ele>674.5</ele>
        <time>2021-08-16T04:52:47Z</time>
      </trkpt>
      <trkpt lat="44.98088" lon="2.62808">
        <ele>674.5</ele>
        <time>2021-08-16T04:52:48Z</time>
      </trkpt>
      <trkpt lat="44.98087" lon="2.62803">
        <ele>674.5</ele>
        <time>2021-08-16T04:52:49Z</time>
      </trkpt>
      <trkpt lat="44.98085" lon="2.62797">
        <ele>674.5</ele>
        <time>2021-08-16T04:52:50Z</time>
      </trkpt>
      <trkpt lat="44.98083" lon="2.62792">
        <ele>674.5</ele>
        <time>2021-08-16T04:52:51Z</time>
      </trkpt>
      <trkpt lat="44.98081" lon="2.62788">
        <ele>674.5</ele>
        <time>2021-08-16T04:52:52Z</time>
      </trkpt>
      <trkpt lat="44.98078" lon="2.62784">
        <ele>675.46</ele>
        <time>2021-08-16T04:52:53Z</time>
      </trkpt>
      <trkpt lat="44.98074" lon="2.62781">
        <ele>675.46</ele>
        <time>2021-08-16T04:52:54Z</time>
      </trkpt>
      <trkpt lat="44.9807" lon="2.62779">
        <ele>675.46</ele>
        <time>2021-08-16T04:52:55Z</time>
      </trkpt>
      <trkpt lat="44.98068" lon="2.62778">
        <ele>675.46</ele>
        <time>2021-08-16T04:52:56Z</time>
      </trkpt>
      <trkpt lat="44.98064" lon="2.62777">
        <ele>675.94</ele>
        <time>2021-08-16T04:52:57Z</time>
      </trkpt>
      <trkpt lat="44.9806" lon="2.62776">
        <ele>675.46</ele>
        <time>2021-08-16T04:52:58Z</time>
      </trkpt>
      <trkpt lat="44.98047" lon="2.62774">
        <ele>675.94</ele>
        <time>2021-08-16T04:53:02Z</time>
      </trkpt>
      <trkpt lat="44.98045" lon="2.6277">
        <ele>676.42</ele>
        <time>2021-08-16T04:53:03Z</time>
      </trkpt>
      <trkpt lat="44.98043" lon="2.62766">
        <ele>676.42</ele>
        <time>2021-08-16T04:53:04Z</time>
      </trkpt>
      <trkpt lat="44.98042" lon="2.62762">
        <ele>676.42</ele>
        <time>2021-08-16T04:53:05Z</time>
      </trkpt>
      <trkpt lat="44.98042" lon="2.62758">
        <ele>676.42</ele>
        <time>2021-08-16T04:53:06Z</time>
      </trkpt>
      <trkpt lat="44.98037" lon="2.62733">
        <ele>676.91</ele>
        <time>2021-08-16T04:53:12Z</time>
      </trkpt>
      <trkpt lat="44.98036" lon="2.62731">
        <ele>676.91</ele>
        <time>2021-08-16T04:53:13Z</time>
      </trkpt>
      <trkpt lat="44.98035" lon="2.6273">
        <ele>676.91</ele>
        <time>2021-08-16T04:53:14Z</time>
      </trkpt>
      <trkpt lat="44.98035" lon="2.62726">
        <ele>677.39</ele>
        <time>2021-08-16T04:53:19Z</time>
      </trkpt>
      <trkpt lat="44.98034" lon="2.62716">
        <ele>677.39</ele>
        <time>2021-08-16T04:53:25Z</time>
      </trkpt>
      <trkpt lat="44.98034" lon="2.62692">
        <ele>677.87</ele>
        <time>2021-08-16T04:53:31Z</time>
      </trkpt>
      <trkpt lat="44.98037" lon="2.62666">
        <ele>677.87</ele>
        <time>2021-08-16T04:53:38Z</time>
      </trkpt>
      <trkpt lat="44.98037" lon="2.62663">
        <ele>678.35</ele>
        <time>2021-08-16T04:53:39Z</time>
      </trkpt>
      <trkpt lat="44.98039" lon="2.62661">
        <ele>678.35</ele>
        <time>2021-08-16T04:53:40Z</time>
      </trkpt>
      <trkpt lat="44.98043" lon="2.62658">
        <ele>678.35</ele>
        <time>2021-08-16T04:53:43Z</time>
      </trkpt>
      <trkpt lat="44.98043" lon="2.62654">
        <ele>678.83</ele>
        <time>2021-08-16T04:53:44Z</time>
      </trkpt>
      <trkpt lat="44.98043" lon="2.62652">
        <ele>678.83</ele>
        <time>2021-08-16T04:53:45Z</time>
      </trkpt>
      <trkpt lat="44.98043" lon="2.62632">
        <ele>679.79</ele>
        <time>2021-08-16T04:53:52Z</time>
      </trkpt>
      <trkpt lat="44.98043" lon="2.6263">
        <ele>679.79</ele>
        <time>2021-08-16T04:53:53Z</time>
      </trkpt>
      <trkpt lat="44.98043" lon="2.62628">
        <ele>680.27</ele>
        <time>2021-08-16T04:53:54Z</time>
      </trkpt>
      <trkpt lat="44.98043" lon="2.62625">
        <ele>680.27</ele>
        <time>2021-08-16T04:53:55Z</time>
      </trkpt>
      <trkpt lat="44.98044" lon="2.62623">
        <ele>680.75</ele>
        <time>2021-08-16T04:54:00Z</time>
      </trkpt>
      <trkpt lat="44.98045" lon="2.6261">
        <ele>680.75</ele>
        <time>2021-08-16T04:54:05Z</time>
      </trkpt>
      <trkpt lat="44.98045" lon="2.62578">
        <ele>681.71</ele>
        <time>2021-08-16T04:54:14Z</time>
      </trkpt>
      <trkpt lat="44.98046" lon="2.62569">
        <ele>682.19</ele>
        <time>2021-08-16T04:54:17Z</time>
      </trkpt>
      <trkpt lat="44.98045" lon="2.62566">
        <ele>682.19</ele>
        <time>2021-08-16T04:54:18Z</time>
      </trkpt>
      <trkpt lat="44.98043" lon="2.62562">
        <ele>682.19</ele>
        <time>2021-08-16T04:54:19Z</time>
      </trkpt>
      <trkpt lat="44.98022" lon="2.62539">
        <ele>682.19</ele>
        <time>2021-08-16T04:54:27Z</time>
      </trkpt>
      <trkpt lat="44.97997" lon="2.62505">
        <ele>681.71</ele>
        <time>2021-08-16T04:54:36Z</time>
      </trkpt>
      <trkpt lat="44.97967" lon="2.62457">
        <ele>681.71</ele>
        <time>2021-08-16T04:54:48Z</time>
      </trkpt>
      <trkpt lat="44.9795" lon="2.62421">
        <ele>681.71</ele>
        <time>2021-08-16T04:54:56Z</time>
      </trkpt>
      <trkpt lat="44.97929" lon="2.62376">
        <ele>682.19</ele>
        <time>2021-08-16T04:55:06Z</time>
      </trkpt>
      <trkpt lat="44.97905" lon="2.62322">
        <ele>682.67</ele>
        <time>2021-08-16T04:55:17Z</time>
      </trkpt>
      <trkpt lat="44.97884" lon="2.62275">
        <ele>683.15</ele>
        <time>2021-08-16T04:55:27Z</time>
      </trkpt>
      <trkpt lat="44.97861" lon="2.62236">
        <ele>683.63</ele>
        <time>2021-08-16T04:55:36Z</time>
      </trkpt>
      <trkpt lat="44.97826" lon="2.62199">
        <ele>683.63</ele>
        <time>2021-08-16T04:55:46Z</time>
      </trkpt>
      <trkpt lat="44.97799" lon="2.62172">
        <ele>682.67</ele>
        <time>2021-08-16T04:55:53Z</time>
      </trkpt>
      <trkpt lat="44.97795" lon="2.62169">
        <ele>682.67</ele>
        <time>2021-08-16T04:55:54Z</time>
      </trkpt>
      <trkpt lat="44.97791" lon="2.62165">
        <ele>682.67</ele>
        <time>2021-08-16T04:55:55Z</time>
      </trkpt>
      <trkpt lat="44.97743" lon="2.62115">
        <ele>681.71</ele>
        <time>2021-08-16T04:56:07Z</time>
      </trkpt>
      <trkpt lat="44.97697" lon="2.62069">
        <ele>681.71</ele>
        <time>2021-08-16T04:56:18Z</time>
      </trkpt>
      <trkpt lat="44.97651" lon="2.62022">
        <ele>681.23</ele>
        <time>2021-08-16T04:56:28Z</time>
      </trkpt>
      <trkpt lat="44.97599" lon="2.61969">
        <ele>680.75</ele>
        <time>2021-08-16T04:56:40Z</time>
      </trkpt>
      <trkpt lat="44.97564" lon="2.6193">
        <ele>680.75</ele>
        <time>2021-08-16T04:56:49Z</time>
      </trkpt>
      <trkpt lat="44.97528" lon="2.61882">
        <ele>680.75</ele>
        <time>2021-08-16T04:56:59Z</time>
      </trkpt>
      <trkpt lat="44.97515" lon="2.61862">
        <ele>682.19</ele>
        <time>2021-08-16T04:57:03Z</time>
      </trkpt>
      <trkpt lat="44.97506" lon="2.61849">
        <ele>682.19</ele>
        <time>2021-08-16T04:57:06Z</time>
      </trkpt>
      <trkpt lat="44.97489" lon="2.61819">
        <ele>682.67</ele>
        <time>2021-08-16T04:57:13Z</time>
      </trkpt>
      <trkpt lat="44.97466" lon="2.61772">
        <ele>683.15</ele>
        <time>2021-08-16T04:57:24Z</time>
      </trkpt>
      <trkpt lat="44.97436" lon="2.61716">
        <ele>683.63</ele>
        <time>2021-08-16T04:57:36Z</time>
      </trkpt>
      <trkpt lat="44.97423" lon="2.61693">
        <ele>683.63</ele>
        <time>2021-08-16T04:57:41Z</time>
      </trkpt>
      <trkpt lat="44.97421" lon="2.61688">
        <ele>683.63</ele>
        <time>2021-08-16T04:57:42Z</time>
      </trkpt>
      <trkpt lat="44.974" lon="2.61653">
        <ele>684.12</ele>
        <time>2021-08-16T04:57:50Z</time>
      </trkpt>
      <trkpt lat="44.97367" lon="2.61601">
        <ele>685.08</ele>
        <time>2021-08-16T04:58:02Z</time>
      </trkpt>
      <trkpt lat="44.97333" lon="2.61552">
        <ele>685.08</ele>
        <time>2021-08-16T04:58:13Z</time>
      </trkpt>
      <trkpt lat="44.97288" lon="2.61505">
        <ele>686.52</ele>
        <time>2021-08-16T04:58:26Z</time>
      </trkpt>
      <trkpt lat="44.97254" lon="2.61468">
        <ele>686.52</ele>
        <time>2021-08-16T04:58:36Z</time>
      </trkpt>
      <trkpt lat="44.9723" lon="2.61425">
        <ele>686.52</ele>
        <time>2021-08-16T04:58:45Z</time>
      </trkpt>
      <trkpt lat="44.97213" lon="2.61384">
        <ele>687</ele>
        <time>2021-08-16T04:58:53Z</time>
      </trkpt>
      <trkpt lat="44.97185" lon="2.61319">
        <ele>687</ele>
        <time>2021-08-16T04:59:05Z</time>
      </trkpt>
      <trkpt lat="44.97167" lon="2.61273">
        <ele>687</ele>
        <time>2021-08-16T04:59:13Z</time>
      </trkpt>
      <trkpt lat="44.97165" lon="2.61267">
        <ele>687</ele>
        <time>2021-08-16T04:59:14Z</time>
      </trkpt>
      <trkpt lat="44.97164" lon="2.6126">
        <ele>687</ele>
        <time>2021-08-16T04:59:15Z</time>
      </trkpt>
      <trkpt lat="44.97162" lon="2.61243">
        <ele>687</ele>
        <time>2021-08-16T04:59:18Z</time>
      </trkpt>
      <trkpt lat="44.9716" lon="2.61238">
        <ele>687</ele>
        <time>2021-08-16T04:59:19Z</time>
      </trkpt>
      <trkpt lat="44.97157" lon="2.61233">
        <ele>687</ele>
        <time>2021-08-16T04:59:20Z</time>
      </trkpt>
      <trkpt lat="44.97153" lon="2.6123">
        <ele>687</ele>
        <time>2021-08-16T04:59:21Z</time>
      </trkpt>
      <trkpt lat="44.97149" lon="2.61228">
        <ele>687</ele>
        <time>2021-08-16T04:59:22Z</time>
      </trkpt>
      <trkpt lat="44.97141" lon="2.6122">
        <ele>687</ele>
        <time>2021-08-16T04:59:24Z</time>
      </trkpt>
      <trkpt lat="44.97137" lon="2.61216">
        <ele>687</ele>
        <time>2021-08-16T04:59:25Z</time>
      </trkpt>
      <trkpt lat="44.97133" lon="2.61211">
        <ele>685.56</ele>
        <time>2021-08-16T04:59:26Z</time>
      </trkpt>
      <trkpt lat="44.9713" lon="2.61205">
        <ele>685.56</ele>
        <time>2021-08-16T04:59:27Z</time>
      </trkpt>
      <trkpt lat="44.97093" lon="2.61139">
        <ele>684.6</ele>
        <time>2021-08-16T04:59:38Z</time>
      </trkpt>
      <trkpt lat="44.97074" lon="2.61107">
        <ele>684.6</ele>
        <time>2021-08-16T04:59:44Z</time>
      </trkpt>
      <trkpt lat="44.97073" lon="2.611">
        <ele>684.6</ele>
        <time>2021-08-16T04:59:45Z</time>
      </trkpt>
      <trkpt lat="44.97072" lon="2.61094">
        <ele>684.6</ele>
        <time>2021-08-16T04:59:46Z</time>
      </trkpt>
      <trkpt lat="44.97073" lon="2.61086">
        <ele>684.6</ele>
        <time>2021-08-16T04:59:47Z</time>
      </trkpt>
      <trkpt lat="44.97074" lon="2.61081">
        <ele>684.6</ele>
        <time>2021-08-16T04:59:48Z</time>
      </trkpt>
      <trkpt lat="44.97076" lon="2.61075">
        <ele>686.04</ele>
        <time>2021-08-16T04:59:49Z</time>
      </trkpt>
      <trkpt lat="44.97077" lon="2.61054">
        <ele>687.48</ele>
        <time>2021-08-16T04:59:54Z</time>
      </trkpt>
      <trkpt lat="44.97071" lon="2.61038">
        <ele>688.44</ele>
        <time>2021-08-16T05:00:00Z</time>
      </trkpt>
      <trkpt lat="44.97062" lon="2.6101">
        <ele>689.4</ele>
        <time>2021-08-16T05:00:09Z</time>
      </trkpt>
      <trkpt lat="44.97052" lon="2.6098">
        <ele>690.36</ele>
        <time>2021-08-16T05:00:18Z</time>
      </trkpt>
      <trkpt lat="44.97049" lon="2.6097">
        <ele>690.84</ele>
        <time>2021-08-16T05:00:22Z</time>
      </trkpt>
      <trkpt lat="44.97049" lon="2.60968">
        <ele>691.33</ele>
        <time>2021-08-16T05:00:23Z</time>
      </trkpt>
      <trkpt lat="44.9705" lon="2.60966">
        <ele>691.33</ele>
        <time>2021-08-16T05:00:24Z</time>
      </trkpt>
      <trkpt lat="44.97055" lon="2.60955">
        <ele>693.25</ele>
        <time>2021-08-16T05:00:32Z</time>
      </trkpt>
      <trkpt lat="44.97066" lon="2.60943">
        <ele>695.17</ele>
        <time>2021-08-16T05:00:42Z</time>
      </trkpt>
      <trkpt lat="44.97073" lon="2.60932">
        <ele>695.65</ele>
        <time>2021-08-16T05:00:50Z</time>
      </trkpt>
      <trkpt lat="44.97074" lon="2.60931">
        <ele>696.13</ele>
        <time>2021-08-16T05:00:51Z</time>
      </trkpt>
      <trkpt lat="44.97074" lon="2.60929">
        <ele>696.13</ele>
        <time>2021-08-16T05:00:52Z</time>
      </trkpt>
      <trkpt lat="44.97075" lon="2.60928">
        <ele>696.13</ele>
        <time>2021-08-16T05:00:53Z</time>
      </trkpt>
      <trkpt lat="44.97075" lon="2.60926">
        <ele>696.13</ele>
        <time>2021-08-16T05:00:54Z</time>
      </trkpt>
      <trkpt lat="44.97076" lon="2.60924">
        <ele>696.61</ele>
        <time>2021-08-16T05:00:55Z</time>
      </trkpt>
      <trkpt lat="44.97076" lon="2.60922">
        <ele>696.61</ele>
        <time>2021-08-16T05:00:56Z</time>
      </trkpt>
      <trkpt lat="44.97077" lon="2.60906">
        <ele>697.57</ele>
        <time>2021-08-16T05:01:04Z</time>
      </trkpt>
      <trkpt lat="44.97076" lon="2.60887">
        <ele>699.02</ele>
        <time>2021-08-16T05:01:13Z</time>
      </trkpt>
      <trkpt lat="44.97075" lon="2.60866">
        <ele>699.98</ele>
        <time>2021-08-16T05:01:22Z</time>
      </trkpt>
      <trkpt lat="44.9708" lon="2.60849">
        <ele>701.42</ele>
        <time>2021-08-16T05:01:30Z</time>
      </trkpt>
      <trkpt lat="44.97083" lon="2.6083">
        <ele>702.38</ele>
        <time>2021-08-16T05:01:39Z</time>
      </trkpt>
      <trkpt lat="44.97075" lon="2.60808">
        <ele>703.82</ele>
        <time>2021-08-16T05:01:48Z</time>
      </trkpt>
      <trkpt lat="44.97063" lon="2.60781">
        <ele>704.78</ele>
        <time>2021-08-16T05:01:59Z</time>
      </trkpt>
      <trkpt lat="44.97054" lon="2.6077">
        <ele>706.23</ele>
        <time>2021-08-16T05:02:07Z</time>
      </trkpt>
      <trkpt lat="44.97041" lon="2.60762">
        <ele>707.19</ele>
        <time>2021-08-16T05:02:15Z</time>
      </trkpt>
      <trkpt lat="44.97023" lon="2.60751">
        <ele>708.63</ele>
        <time>2021-08-16T05:02:27Z</time>
      </trkpt>
      <trkpt lat="44.97007" lon="2.6074">
        <ele>710.07</ele>
        <time>2021-08-16T05:02:38Z</time>
      </trkpt>
      <trkpt lat="44.97005" lon="2.60739">
        <ele>710.07</ele>
        <time>2021-08-16T05:02:39Z</time>
      </trkpt>
      <trkpt lat="44.97004" lon="2.60738">
        <ele>710.55</ele>
        <time>2021-08-16T05:02:40Z</time>
      </trkpt>
      <trkpt lat="44.97002" lon="2.60737">
        <ele>710.55</ele>
        <time>2021-08-16T05:02:41Z</time>
      </trkpt>
      <trkpt lat="44.97001" lon="2.60735">
        <ele>710.55</ele>
        <time>2021-08-16T05:02:42Z</time>
      </trkpt>
      <trkpt lat="44.97" lon="2.60732">
        <ele>711.03</ele>
        <time>2021-08-16T05:02:43Z</time>
      </trkpt>
      <trkpt lat="44.96999" lon="2.6073">
        <ele>711.03</ele>
        <time>2021-08-16T05:02:44Z</time>
      </trkpt>
      <trkpt lat="44.96997" lon="2.60729">
        <ele>711.03</ele>
        <time>2021-08-16T05:02:45Z</time>
      </trkpt>
      <trkpt lat="44.96995" lon="2.60728">
        <ele>711.03</ele>
        <time>2021-08-16T05:02:46Z</time>
      </trkpt>
      <trkpt lat="44.96994" lon="2.60726">
        <ele>711.03</ele>
        <time>2021-08-16T05:02:47Z</time>
      </trkpt>
      <trkpt lat="44.96993" lon="2.60725">
        <ele>711.03</ele>
        <time>2021-08-16T05:02:48Z</time>
      </trkpt>
      <trkpt lat="44.96992" lon="2.60723">
        <ele>711.51</ele>
        <time>2021-08-16T05:02:49Z</time>
      </trkpt>
      <trkpt lat="44.96991" lon="2.60722">
        <ele>711.51</ele>
        <time>2021-08-16T05:02:50Z</time>
      </trkpt>
      <trkpt lat="44.96989" lon="2.60721">
        <ele>711.51</ele>
        <time>2021-08-16T05:02:51Z</time>
      </trkpt>
      <trkpt lat="44.96988" lon="2.60719">
        <ele>711.51</ele>
        <time>2021-08-16T05:02:52Z</time>
      </trkpt>
      <trkpt lat="44.96979" lon="2.60707">
        <ele>713.44</ele>
        <time>2021-08-16T05:03:00Z</time>
      </trkpt>
      <trkpt lat="44.96979" lon="2.60705">
        <ele>713.44</ele>
        <time>2021-08-16T05:03:01Z</time>
      </trkpt>
      <trkpt lat="44.9698" lon="2.60704">
        <ele>713.92</ele>
        <time>2021-08-16T05:03:02Z</time>
      </trkpt>
      <trkpt lat="44.9698" lon="2.60702">
        <ele>713.92</ele>
        <time>2021-08-16T05:03:03Z</time>
      </trkpt>
      <trkpt lat="44.96981" lon="2.60701">
        <ele>713.92</ele>
        <time>2021-08-16T05:03:04Z</time>
      </trkpt>
      <trkpt lat="44.96982" lon="2.60699">
        <ele>714.4</ele>
        <time>2021-08-16T05:03:05Z</time>
      </trkpt>
      <trkpt lat="44.96983" lon="2.60698">
        <ele>714.4</ele>
        <time>2021-08-16T05:03:06Z</time>
      </trkpt>
      <trkpt lat="44.96984" lon="2.60696">
        <ele>714.88</ele>
        <time>2021-08-16T05:03:07Z</time>
      </trkpt>
      <trkpt lat="44.96993" lon="2.6068">
        <ele>715.84</ele>
        <time>2021-08-16T05:03:18Z</time>
      </trkpt>
      <trkpt lat="44.97003" lon="2.6066">
        <ele>717.28</ele>
        <time>2021-08-16T05:03:30Z</time>
      </trkpt>
      <trkpt lat="44.97011" lon="2.60648">
        <ele>718.24</ele>
        <time>2021-08-16T05:03:38Z</time>
      </trkpt>
      <trkpt lat="44.97021" lon="2.60636">
        <ele>719.68</ele>
        <time>2021-08-16T05:03:47Z</time>
      </trkpt>
      <trkpt lat="44.97025" lon="2.6063">
        <ele>720.16</ele>
        <time>2021-08-16T05:03:51Z</time>
      </trkpt>
      <trkpt lat="44.97031" lon="2.6062">
        <ele>721.13</ele>
        <time>2021-08-16T05:03:58Z</time>
      </trkpt>
      <trkpt lat="44.97031" lon="2.60619">
        <ele>721.61</ele>
        <time>2021-08-16T05:03:59Z</time>
      </trkpt>
      <trkpt lat="44.97031" lon="2.60617">
        <ele>721.61</ele>
        <time>2021-08-16T05:04:00Z</time>
      </trkpt>
      <trkpt lat="44.97032" lon="2.60615">
        <ele>721.61</ele>
        <time>2021-08-16T05:04:01Z</time>
      </trkpt>
      <trkpt lat="44.97032" lon="2.60614">
        <ele>721.61</ele>
        <time>2021-08-16T05:04:02Z</time>
      </trkpt>
      <trkpt lat="44.97033" lon="2.60611">
        <ele>722.09</ele>
        <time>2021-08-16T05:04:04Z</time>
      </trkpt>
      <trkpt lat="44.97033" lon="2.6061">
        <ele>722.09</ele>
        <time>2021-08-16T05:04:05Z</time>
      </trkpt>
      <trkpt lat="44.97034" lon="2.60608">
        <ele>722.09</ele>
        <time>2021-08-16T05:04:06Z</time>
      </trkpt>
      <trkpt lat="44.97035" lon="2.60607">
        <ele>723.05</ele>
        <time>2021-08-16T05:04:07Z</time>
      </trkpt>
      <trkpt lat="44.97035" lon="2.60605">
        <ele>723.05</ele>
        <time>2021-08-16T05:04:08Z</time>
      </trkpt>
      <trkpt lat="44.97036" lon="2.60604">
        <ele>723.05</ele>
        <time>2021-08-16T05:04:09Z</time>
      </trkpt>
      <trkpt lat="44.97036" lon="2.60602">
        <ele>723.05</ele>
        <time>2021-08-16T05:04:10Z</time>
      </trkpt>
      <trkpt lat="44.97037" lon="2.606">
        <ele>723.53</ele>
        <time>2021-08-16T05:04:11Z</time>
      </trkpt>
      <trkpt lat="44.97037" lon="2.60599">
        <ele>723.53</ele>
        <time>2021-08-16T05:04:12Z</time>
      </trkpt>
      <trkpt lat="44.97039" lon="2.60589">
        <ele>724.97</ele>
        <time>2021-08-16T05:04:20Z</time>
      </trkpt>
      <trkpt lat="44.97039" lon="2.60576">
        <ele>726.41</ele>
        <time>2021-08-16T05:04:29Z</time>
      </trkpt>
      <trkpt lat="44.97041" lon="2.60565">
        <ele>727.86</ele>
        <time>2021-08-16T05:04:38Z</time>
      </trkpt>
      <trkpt lat="44.97043" lon="2.60553">
        <ele>729.78</ele>
        <time>2021-08-16T05:04:49Z</time>
      </trkpt>
      <trkpt lat="44.97045" lon="2.60541">
        <ele>731.22</ele>
        <time>2021-08-16T05:04:59Z</time>
      </trkpt>
      <trkpt lat="44.97048" lon="2.60526">
        <ele>732.66</ele>
        <time>2021-08-16T05:05:10Z</time>
      </trkpt>
      <trkpt lat="44.97053" lon="2.60511">
        <ele>734.58</ele>
        <time>2021-08-16T05:05:21Z</time>
      </trkpt>
      <trkpt lat="44.97057" lon="2.60499">
        <ele>736.03</ele>
        <time>2021-08-16T05:05:30Z</time>
      </trkpt>
      <trkpt lat="44.9706" lon="2.60486">
        <ele>737.95</ele>
        <time>2021-08-16T05:05:41Z</time>
      </trkpt>
      <trkpt lat="44.9706" lon="2.60485">
        <ele>737.95</ele>
        <time>2021-08-16T05:05:42Z</time>
      </trkpt>
      <trkpt lat="44.97061" lon="2.60478">
        <ele>738.91</ele>
        <time>2021-08-16T05:05:48Z</time>
      </trkpt>
      <trkpt lat="44.97063" lon="2.6046">
        <ele>740.35</ele>
        <time>2021-08-16T05:05:59Z</time>
      </trkpt>
      <trkpt lat="44.97062" lon="2.60453">
        <ele>741.31</ele>
        <time>2021-08-16T05:06:07Z</time>
      </trkpt>
      <trkpt lat="44.97061" lon="2.60449">
        <ele>741.31</ele>
        <time>2021-08-16T05:06:10Z</time>
      </trkpt>
      <trkpt lat="44.97061" lon="2.60448">
        <ele>741.31</ele>
        <time>2021-08-16T05:06:11Z</time>
      </trkpt>
      <trkpt lat="44.97054" lon="2.60426">
        <ele>742.28</ele>
        <time>2021-08-16T05:06:19Z</time>
      </trkpt>
      <trkpt lat="44.97051" lon="2.60403">
        <ele>743.24</ele>
        <time>2021-08-16T05:06:27Z</time>
      </trkpt>
      <trkpt lat="44.97047" lon="2.60383">
        <ele>744.68</ele>
        <time>2021-08-16T05:06:35Z</time>
      </trkpt>
      <trkpt lat="44.97044" lon="2.60358">
        <ele>746.12</ele>
        <time>2021-08-16T05:06:45Z</time>
      </trkpt>
      <trkpt lat="44.9704" lon="2.60339">
        <ele>747.56</ele>
        <time>2021-08-16T05:06:53Z</time>
      </trkpt>
      <trkpt lat="44.97038" lon="2.60324">
        <ele>748.04</ele>
        <time>2021-08-16T05:07:00Z</time>
      </trkpt>
      <trkpt lat="44.97038" lon="2.60322">
        <ele>749</ele>
        <time>2021-08-16T05:07:01Z</time>
      </trkpt>
      <trkpt lat="44.97037" lon="2.6032">
        <ele>749</ele>
        <time>2021-08-16T05:07:02Z</time>
      </trkpt>
      <trkpt lat="44.97037" lon="2.60318">
        <ele>749</ele>
        <time>2021-08-16T05:07:03Z</time>
      </trkpt>
      <trkpt lat="44.97037" lon="2.60316">
        <ele>749.49</ele>
        <time>2021-08-16T05:07:04Z</time>
      </trkpt>
      <trkpt lat="44.97037" lon="2.60314">
        <ele>749.49</ele>
        <time>2021-08-16T05:07:05Z</time>
      </trkpt>
      <trkpt lat="44.97037" lon="2.60312">
        <ele>749.49</ele>
        <time>2021-08-16T05:07:06Z</time>
      </trkpt>
      <trkpt lat="44.97037" lon="2.6031">
        <ele>749.97</ele>
        <time>2021-08-16T05:07:07Z</time>
      </trkpt>
      <trkpt lat="44.97037" lon="2.60308">
        <ele>749.97</ele>
        <time>2021-08-16T05:07:08Z</time>
      </trkpt>
      <trkpt lat="44.97036" lon="2.60286">
        <ele>750.93</ele>
        <time>2021-08-16T05:07:17Z</time>
      </trkpt>
      <trkpt lat="44.97035" lon="2.6027">
        <ele>751.89</ele>
        <time>2021-08-16T05:07:24Z</time>
      </trkpt>
      <trkpt lat="44.97035" lon="2.60257">
        <ele>753.33</ele>
        <time>2021-08-16T05:07:31Z</time>
      </trkpt>
      <trkpt lat="44.97035" lon="2.60256">
        <ele>753.81</ele>
        <time>2021-08-16T05:07:32Z</time>
      </trkpt>
      <trkpt lat="44.97035" lon="2.60248">
        <ele>754.29</ele>
        <time>2021-08-16T05:07:37Z</time>
      </trkpt>
      <trkpt lat="44.97032" lon="2.60239">
        <ele>755.25</ele>
        <time>2021-08-16T05:07:43Z</time>
      </trkpt>
      <trkpt lat="44.9703" lon="2.60228">
        <ele>756.69</ele>
        <time>2021-08-16T05:07:50Z</time>
      </trkpt>
      <trkpt lat="44.9703" lon="2.60218">
        <ele>758.14</ele>
        <time>2021-08-16T05:07:57Z</time>
      </trkpt>
      <trkpt lat="44.97028" lon="2.60204">
        <ele>759.58</ele>
        <time>2021-08-16T05:08:07Z</time>
      </trkpt>
      <trkpt lat="44.97024" lon="2.60196">
        <ele>761.5</ele>
        <time>2021-08-16T05:08:16Z</time>
      </trkpt>
      <trkpt lat="44.9702" lon="2.60188">
        <ele>761.98</ele>
        <time>2021-08-16T05:08:24Z</time>
      </trkpt>
      <trkpt lat="44.97019" lon="2.60185">
        <ele>761.98</ele>
        <time>2021-08-16T05:08:32Z</time>
      </trkpt>
      <trkpt lat="44.97019" lon="2.60184">
        <ele>762.46</ele>
        <time>2021-08-16T05:08:33Z</time>
      </trkpt>
      <trkpt lat="44.97019" lon="2.60182">
        <ele>762.46</ele>
        <time>2021-08-16T05:08:34Z</time>
      </trkpt>
      <trkpt lat="44.97014" lon="2.60167">
        <ele>763.9</ele>
        <time>2021-08-16T05:08:42Z</time>
      </trkpt>
      <trkpt lat="44.97011" lon="2.6015">
        <ele>764.87</ele>
        <time>2021-08-16T05:08:49Z</time>
      </trkpt>
      <trkpt lat="44.97008" lon="2.60134">
        <ele>765.35</ele>
        <time>2021-08-16T05:08:56Z</time>
      </trkpt>
      <trkpt lat="44.97001" lon="2.60111">
        <ele>767.27</ele>
        <time>2021-08-16T05:09:06Z</time>
      </trkpt>
      <trkpt lat="44.96993" lon="2.60095">
        <ele>768.71</ele>
        <time>2021-08-16T05:09:14Z</time>
      </trkpt>
      <trkpt lat="44.96983" lon="2.6008">
        <ele>770.15</ele>
        <time>2021-08-16T05:09:23Z</time>
      </trkpt>
      <trkpt lat="44.96978" lon="2.60067">
        <ele>771.6</ele>
        <time>2021-08-16T05:09:31Z</time>
      </trkpt>
      <trkpt lat="44.96978" lon="2.60066">
        <ele>771.6</ele>
        <time>2021-08-16T05:09:32Z</time>
      </trkpt>
      <trkpt lat="44.96977" lon="2.60063">
        <ele>772.08</ele>
        <time>2021-08-16T05:09:34Z</time>
      </trkpt>
      <trkpt lat="44.96977" lon="2.60061">
        <ele>772.08</ele>
        <time>2021-08-16T05:09:35Z</time>
      </trkpt>
      <trkpt lat="44.96978" lon="2.60049">
        <ele>773.52</ele>
        <time>2021-08-16T05:09:42Z</time>
      </trkpt>
      <trkpt lat="44.96978" lon="2.60047">
        <ele>773.52</ele>
        <time>2021-08-16T05:09:43Z</time>
      </trkpt>
      <trkpt lat="44.96979" lon="2.60045">
        <ele>774.48</ele>
        <time>2021-08-16T05:09:44Z</time>
      </trkpt>
      <trkpt lat="44.96979" lon="2.60043">
        <ele>774.48</ele>
        <time>2021-08-16T05:09:45Z</time>
      </trkpt>
      <trkpt lat="44.96979" lon="2.60042">
        <ele>774.48</ele>
        <time>2021-08-16T05:09:46Z</time>
      </trkpt>
      <trkpt lat="44.96979" lon="2.6004">
        <ele>774.48</ele>
        <time>2021-08-16T05:09:47Z</time>
      </trkpt>
      <trkpt lat="44.96979" lon="2.60038">
        <ele>774.48</ele>
        <time>2021-08-16T05:09:48Z</time>
      </trkpt>
      <trkpt lat="44.9698" lon="2.60036">
        <ele>774.96</ele>
        <time>2021-08-16T05:09:49Z</time>
      </trkpt>
      <trkpt lat="44.9698" lon="2.60034">
        <ele>774.96</ele>
        <time>2021-08-16T05:09:50Z</time>
      </trkpt>
      <trkpt lat="44.96981" lon="2.60016">
        <ele>775.92</ele>
        <time>2021-08-16T05:09:59Z</time>
      </trkpt>
      <trkpt lat="44.96982" lon="2.59992">
        <ele>777.36</ele>
        <time>2021-08-16T05:10:10Z</time>
      </trkpt>
      <trkpt lat="44.96982" lon="2.5999">
        <ele>777.36</ele>
        <time>2021-08-16T05:10:11Z</time>
      </trkpt>
      <trkpt lat="44.96981" lon="2.59983">
        <ele>778.32</ele>
        <time>2021-08-16T05:10:16Z</time>
      </trkpt>
      <trkpt lat="44.96981" lon="2.59982">
        <ele>778.32</ele>
        <time>2021-08-16T05:10:17Z</time>
      </trkpt>
      <trkpt lat="44.9698" lon="2.5998">
        <ele>778.81</ele>
        <time>2021-08-16T05:10:18Z</time>
      </trkpt>
      <trkpt lat="44.96977" lon="2.59969">
        <ele>780.25</ele>
        <time>2021-08-16T05:10:24Z</time>
      </trkpt>
      <trkpt lat="44.96976" lon="2.59967">
        <ele>780.25</ele>
        <time>2021-08-16T05:10:25Z</time>
      </trkpt>
      <trkpt lat="44.96975" lon="2.59966">
        <ele>780.25</ele>
        <time>2021-08-16T05:10:26Z</time>
      </trkpt>
      <trkpt lat="44.96974" lon="2.59964">
        <ele>780.73</ele>
        <time>2021-08-16T05:10:27Z</time>
      </trkpt>
      <trkpt lat="44.96973" lon="2.59963">
        <ele>780.73</ele>
        <time>2021-08-16T05:10:28Z</time>
      </trkpt>
      <trkpt lat="44.96972" lon="2.59961">
        <ele>781.21</ele>
        <time>2021-08-16T05:10:29Z</time>
      </trkpt>
      <trkpt lat="44.96972" lon="2.5996">
        <ele>781.21</ele>
        <time>2021-08-16T05:10:30Z</time>
      </trkpt>
      <trkpt lat="44.96966" lon="2.59952">
        <ele>782.17</ele>
        <time>2021-08-16T05:10:35Z</time>
      </trkpt>
      <trkpt lat="44.96965" lon="2.5995">
        <ele>782.65</ele>
        <time>2021-08-16T05:10:36Z</time>
      </trkpt>
      <trkpt lat="44.96964" lon="2.59948">
        <ele>782.65</ele>
        <time>2021-08-16T05:10:37Z</time>
      </trkpt>
      <trkpt lat="44.96958" lon="2.59934">
        <ele>783.13</ele>
        <time>2021-08-16T05:10:44Z</time>
      </trkpt>
      <trkpt lat="44.96944" lon="2.59913">
        <ele>783.13</ele>
        <time>2021-08-16T05:10:52Z</time>
      </trkpt>
      <trkpt lat="44.96929" lon="2.59898">
        <ele>783.61</ele>
        <time>2021-08-16T05:10:59Z</time>
      </trkpt>
      <trkpt lat="44.96912" lon="2.59892">
        <ele>783.61</ele>
        <time>2021-08-16T05:11:06Z</time>
      </trkpt>
      <trkpt lat="44.96904" lon="2.59888">
        <ele>785.05</ele>
        <time>2021-08-16T05:11:12Z</time>
      </trkpt>
      <trkpt lat="44.96903" lon="2.59886">
        <ele>785.05</ele>
        <time>2021-08-16T05:11:13Z</time>
      </trkpt>
      <trkpt lat="44.96902" lon="2.59884">
        <ele>785.53</ele>
        <time>2021-08-16T05:11:14Z</time>
      </trkpt>
      <trkpt lat="44.96896" lon="2.59874">
        <ele>786.5</ele>
        <time>2021-08-16T05:11:21Z</time>
      </trkpt>
      <trkpt lat="44.9689" lon="2.59864">
        <ele>787.46</ele>
        <time>2021-08-16T05:11:27Z</time>
      </trkpt>
      <trkpt lat="44.96881" lon="2.5985">
        <ele>788.42</ele>
        <time>2021-08-16T05:11:36Z</time>
      </trkpt>
      <trkpt lat="44.96873" lon="2.59839">
        <ele>790.82</ele>
        <time>2021-08-16T05:11:47Z</time>
      </trkpt>
      <trkpt lat="44.9687" lon="2.59835">
        <ele>792.26</ele>
        <time>2021-08-16T05:11:51Z</time>
      </trkpt>
      <trkpt lat="44.96869" lon="2.59834">
        <ele>792.26</ele>
        <time>2021-08-16T05:11:52Z</time>
      </trkpt>
      <trkpt lat="44.96868" lon="2.59833">
        <ele>792.26</ele>
        <time>2021-08-16T05:11:53Z</time>
      </trkpt>
      <trkpt lat="44.96868" lon="2.59831">
        <ele>792.26</ele>
        <time>2021-08-16T05:11:54Z</time>
      </trkpt>
      <trkpt lat="44.96866" lon="2.5983">
        <ele>792.26</ele>
        <time>2021-08-16T05:11:55Z</time>
      </trkpt>
      <trkpt lat="44.96854" lon="2.59823">
        <ele>793.22</ele>
        <time>2021-08-16T05:12:02Z</time>
      </trkpt>
      <trkpt lat="44.96849" lon="2.59818">
        <ele>793.71</ele>
        <time>2021-08-16T05:12:05Z</time>
      </trkpt>
      <trkpt lat="44.96848" lon="2.59817">
        <ele>793.71</ele>
        <time>2021-08-16T05:12:06Z</time>
      </trkpt>
      <trkpt lat="44.96847" lon="2.59815">
        <ele>793.71</ele>
        <time>2021-08-16T05:12:07Z</time>
      </trkpt>
      <trkpt lat="44.96845" lon="2.59813">
        <ele>793.71</ele>
        <time>2021-08-16T05:12:08Z</time>
      </trkpt>
      <trkpt lat="44.96843" lon="2.5981">
        <ele>793.71</ele>
        <time>2021-08-16T05:12:09Z</time>
      </trkpt>
      <trkpt lat="44.96841" lon="2.59807">
        <ele>793.71</ele>
        <time>2021-08-16T05:12:10Z</time>
      </trkpt>
      <trkpt lat="44.96839" lon="2.59804">
        <ele>793.71</ele>
        <time>2021-08-16T05:12:11Z</time>
      </trkpt>
      <trkpt lat="44.96827" lon="2.59785">
        <ele>793.71</ele>
        <time>2021-08-16T05:12:17Z</time>
      </trkpt>
      <trkpt lat="44.96814" lon="2.5977">
        <ele>793.71</ele>
        <time>2021-08-16T05:12:24Z</time>
      </trkpt>
      <trkpt lat="44.96806" lon="2.59757">
        <ele>794.19</ele>
        <time>2021-08-16T05:12:30Z</time>
      </trkpt>
      <trkpt lat="44.96798" lon="2.59748">
        <ele>794.67</ele>
        <time>2021-08-16T05:12:36Z</time>
      </trkpt>
      <trkpt lat="44.96791" lon="2.59739">
        <ele>795.63</ele>
        <time>2021-08-16T05:12:43Z</time>
      </trkpt>
      <trkpt lat="44.96788" lon="2.59736">
        <ele>795.63</ele>
        <time>2021-08-16T05:12:45Z</time>
      </trkpt>
      <trkpt lat="44.96785" lon="2.59735">
        <ele>796.11</ele>
        <time>2021-08-16T05:12:47Z</time>
      </trkpt>
      <trkpt lat="44.96776" lon="2.59726">
        <ele>797.55</ele>
        <time>2021-08-16T05:12:56Z</time>
      </trkpt>
      <trkpt lat="44.96773" lon="2.59717">
        <ele>798.99</ele>
        <time>2021-08-16T05:13:04Z</time>
      </trkpt>
      <trkpt lat="44.96767" lon="2.59709">
        <ele>800.44</ele>
        <time>2021-08-16T05:13:14Z</time>
      </trkpt>
      <trkpt lat="44.96762" lon="2.59705">
        <ele>801.88</ele>
        <time>2021-08-16T05:13:22Z</time>
      </trkpt>
      <trkpt lat="44.96758" lon="2.59701">
        <ele>803.32</ele>
        <time>2021-08-16T05:13:31Z</time>
      </trkpt>
      <trkpt lat="44.96752" lon="2.59696">
        <ele>805.24</ele>
        <time>2021-08-16T05:13:42Z</time>
      </trkpt>
      <trkpt lat="44.96746" lon="2.5969">
        <ele>807.16</ele>
        <time>2021-08-16T05:13:53Z</time>
      </trkpt>
      <trkpt lat="44.9674" lon="2.59686">
        <ele>808.61</ele>
        <time>2021-08-16T05:14:03Z</time>
      </trkpt>
      <trkpt lat="44.96738" lon="2.59679">
        <ele>810.05</ele>
        <time>2021-08-16T05:14:11Z</time>
      </trkpt>
      <trkpt lat="44.96736" lon="2.59676">
        <ele>811.97</ele>
        <time>2021-08-16T05:14:20Z</time>
      </trkpt>
      <trkpt lat="44.96732" lon="2.59672">
        <ele>813.89</ele>
        <time>2021-08-16T05:14:30Z</time>
      </trkpt>
      <trkpt lat="44.96729" lon="2.59668">
        <ele>815.34</ele>
        <time>2021-08-16T05:14:39Z</time>
      </trkpt>
      <trkpt lat="44.96724" lon="2.59664">
        <ele>817.26</ele>
        <time>2021-08-16T05:14:49Z</time>
      </trkpt>
      <trkpt lat="44.96719" lon="2.59657">
        <ele>818.7</ele>
        <time>2021-08-16T05:14:58Z</time>
      </trkpt>
      <trkpt lat="44.96717" lon="2.59649">
        <ele>819.18</ele>
        <time>2021-08-16T05:15:06Z</time>
      </trkpt>
      <trkpt lat="44.9671" lon="2.59641">
        <ele>819.18</ele>
        <time>2021-08-16T05:15:14Z</time>
      </trkpt>
      <trkpt lat="44.96699" lon="2.5963">
        <ele>815.82</ele>
        <time>2021-08-16T05:15:20Z</time>
      </trkpt>
      <trkpt lat="44.96693" lon="2.59625">
        <ele>815.82</ele>
        <time>2021-08-16T05:15:24Z</time>
      </trkpt>
      <trkpt lat="44.96688" lon="2.59619">
        <ele>815.34</ele>
        <time>2021-08-16T05:15:30Z</time>
      </trkpt>
      <trkpt lat="44.96684" lon="2.59617">
        <ele>815.34</ele>
        <time>2021-08-16T05:15:35Z</time>
      </trkpt>
      <trkpt lat="44.96679" lon="2.59614">
        <ele>816.78</ele>
        <time>2021-08-16T05:15:40Z</time>
      </trkpt>
      <trkpt lat="44.96673" lon="2.59612">
        <ele>818.7</ele>
        <time>2021-08-16T05:15:49Z</time>
      </trkpt>
      <trkpt lat="44.96667" lon="2.59615">
        <ele>820.14</ele>
        <time>2021-08-16T05:15:58Z</time>
      </trkpt>
      <trkpt lat="44.96657" lon="2.59611">
        <ele>817.74</ele>
        <time>2021-08-16T05:16:03Z</time>
      </trkpt>
      <trkpt lat="44.96641" lon="2.59596">
        <ele>816.3</ele>
        <time>2021-08-16T05:16:08Z</time>
      </trkpt>
      <trkpt lat="44.96621" lon="2.59581">
        <ele>815.34</ele>
        <time>2021-08-16T05:16:14Z</time>
      </trkpt>
      <trkpt lat="44.96603" lon="2.59563">
        <ele>812.45</ele>
        <time>2021-08-16T05:16:20Z</time>
      </trkpt>
      <trkpt lat="44.9659" lon="2.59549">
        <ele>811.97</ele>
        <time>2021-08-16T05:16:25Z</time>
      </trkpt>
      <trkpt lat="44.96584" lon="2.59526">
        <ele>810.05</ele>
        <time>2021-08-16T05:16:31Z</time>
      </trkpt>
      <trkpt lat="44.96574" lon="2.59502">
        <ele>810.05</ele>
        <time>2021-08-16T05:16:38Z</time>
      </trkpt>
      <trkpt lat="44.96563" lon="2.5949">
        <ele>810.05</ele>
        <time>2021-08-16T05:16:44Z</time>
      </trkpt>
      <trkpt lat="44.96552" lon="2.59476">
        <ele>809.57</ele>
        <time>2021-08-16T05:16:49Z</time>
      </trkpt>
      <trkpt lat="44.96539" lon="2.59462">
        <ele>806.2</ele>
        <time>2021-08-16T05:16:54Z</time>
      </trkpt>
      <trkpt lat="44.9653" lon="2.59458">
        <ele>803.32</ele>
        <time>2021-08-16T05:16:57Z</time>
      </trkpt>
      <trkpt lat="44.96515" lon="2.59448">
        <ele>799.47</ele>
        <time>2021-08-16T05:17:01Z</time>
      </trkpt>
      <trkpt lat="44.965" lon="2.5944">
        <ele>795.63</ele>
        <time>2021-08-16T05:17:05Z</time>
      </trkpt>
      <trkpt lat="44.96478" lon="2.59434">
        <ele>792.26</ele>
        <time>2021-08-16T05:17:11Z</time>
      </trkpt>
      <trkpt lat="44.96472" lon="2.59432">
        <ele>791.3</ele>
        <time>2021-08-16T05:17:13Z</time>
      </trkpt>
      <trkpt lat="44.96452" lon="2.59424">
        <ele>788.9</ele>
        <time>2021-08-16T05:17:18Z</time>
      </trkpt>
      <trkpt lat="44.96442" lon="2.59418">
        <ele>787.94</ele>
        <time>2021-08-16T05:17:20Z</time>
      </trkpt>
      <trkpt lat="44.96436" lon="2.59415">
        <ele>786.5</ele>
        <time>2021-08-16T05:17:22Z</time>
      </trkpt>
      <trkpt lat="44.96434" lon="2.59415">
        <ele>786.02</ele>
        <time>2021-08-16T05:17:23Z</time>
      </trkpt>
      <trkpt lat="44.96433" lon="2.59416">
        <ele>786.02</ele>
        <time>2021-08-16T05:17:24Z</time>
      </trkpt>
      <trkpt lat="44.96432" lon="2.59418">
        <ele>786.02</ele>
        <time>2021-08-16T05:17:28Z</time>
      </trkpt>
      <trkpt lat="44.9643" lon="2.59417">
        <ele>786.5</ele>
        <time>2021-08-16T05:17:34Z</time>
      </trkpt>
      <trkpt lat="44.96428" lon="2.59415">
        <ele>786.02</ele>
        <time>2021-08-16T05:17:36Z</time>
      </trkpt>
      <trkpt lat="44.96426" lon="2.59413">
        <ele>785.53</ele>
        <time>2021-08-16T05:17:38Z</time>
      </trkpt>
      <trkpt lat="44.9642" lon="2.59408">
        <ele>785.05</ele>
        <time>2021-08-16T05:17:41Z</time>
      </trkpt>
      <trkpt lat="44.96418" lon="2.59406">
        <ele>784.57</ele>
        <time>2021-08-16T05:17:42Z</time>
      </trkpt>
      <trkpt lat="44.96417" lon="2.59404">
        <ele>784.57</ele>
        <time>2021-08-16T05:17:43Z</time>
      </trkpt>
      <trkpt lat="44.96415" lon="2.59402">
        <ele>784.09</ele>
        <time>2021-08-16T05:17:44Z</time>
      </trkpt>
      <trkpt lat="44.96413" lon="2.59401">
        <ele>784.09</ele>
        <time>2021-08-16T05:17:45Z</time>
      </trkpt>
      <trkpt lat="44.96411" lon="2.594">
        <ele>783.13</ele>
        <time>2021-08-16T05:17:46Z</time>
      </trkpt>
      <trkpt lat="44.96409" lon="2.59398">
        <ele>782.65</ele>
        <time>2021-08-16T05:17:47Z</time>
      </trkpt>
      <trkpt lat="44.96406" lon="2.59397">
        <ele>782.17</ele>
        <time>2021-08-16T05:17:48Z</time>
      </trkpt>
      <trkpt lat="44.96403" lon="2.59396">
        <ele>782.17</ele>
        <time>2021-08-16T05:17:49Z</time>
      </trkpt>
      <trkpt lat="44.96389" lon="2.59387">
        <ele>778.81</ele>
        <time>2021-08-16T05:17:54Z</time>
      </trkpt>
      <trkpt lat="44.96372" lon="2.5938">
        <ele>776.88</ele>
        <time>2021-08-16T05:17:58Z</time>
      </trkpt>
      <trkpt lat="44.96352" lon="2.59375">
        <ele>774</ele>
        <time>2021-08-16T05:18:04Z</time>
      </trkpt>
      <trkpt lat="44.9634" lon="2.59372">
        <ele>770.63</ele>
        <time>2021-08-16T05:18:09Z</time>
      </trkpt>
      <trkpt lat="44.96325" lon="2.59365">
        <ele>768.23</ele>
        <time>2021-08-16T05:18:14Z</time>
      </trkpt>
      <trkpt lat="44.96313" lon="2.59367">
        <ele>766.31</ele>
        <time>2021-08-16T05:18:18Z</time>
      </trkpt>
      <trkpt lat="44.96309" lon="2.59365">
        <ele>765.83</ele>
        <time>2021-08-16T05:18:19Z</time>
      </trkpt>
      <trkpt lat="44.96282" lon="2.59354">
        <ele>763.42</ele>
        <time>2021-08-16T05:18:26Z</time>
      </trkpt>
      <trkpt lat="44.96281" lon="2.5935">
        <ele>763.42</ele>
        <time>2021-08-16T05:18:27Z</time>
      </trkpt>
      <trkpt lat="44.96281" lon="2.59345">
        <ele>763.42</ele>
        <time>2021-08-16T05:18:28Z</time>
      </trkpt>
      <trkpt lat="44.96284" lon="2.59321">
        <ele>763.42</ele>
        <time>2021-08-16T05:18:34Z</time>
      </trkpt>
      <trkpt lat="44.96283" lon="2.59306">
        <ele>763.42</ele>
        <time>2021-08-16T05:18:37Z</time>
      </trkpt>
      <trkpt lat="44.96281" lon="2.593">
        <ele>762.94</ele>
        <time>2021-08-16T05:18:38Z</time>
      </trkpt>
      <trkpt lat="44.96277" lon="2.59295">
        <ele>762.46</ele>
        <time>2021-08-16T05:18:39Z</time>
      </trkpt>
      <trkpt lat="44.96273" lon="2.59291">
        <ele>761.5</ele>
        <time>2021-08-16T05:18:40Z</time>
      </trkpt>
      <trkpt lat="44.96252" lon="2.59277">
        <ele>758.14</ele>
        <time>2021-08-16T05:18:44Z</time>
      </trkpt>
      <trkpt lat="44.96229" lon="2.59268">
        <ele>755.25</ele>
        <time>2021-08-16T05:18:49Z</time>
      </trkpt>
      <trkpt lat="44.96226" lon="2.59269">
        <ele>755.25</ele>
        <time>2021-08-16T05:18:50Z</time>
      </trkpt>
      <trkpt lat="44.96224" lon="2.59273">
        <ele>755.25</ele>
        <time>2021-08-16T05:18:51Z</time>
      </trkpt>
      <trkpt lat="44.96224" lon="2.59277">
        <ele>754.29</ele>
        <time>2021-08-16T05:18:52Z</time>
      </trkpt>
      <trkpt lat="44.96223" lon="2.59283">
        <ele>754.29</ele>
        <time>2021-08-16T05:18:53Z</time>
      </trkpt>
      <trkpt lat="44.96224" lon="2.5929">
        <ele>753.33</ele>
        <time>2021-08-16T05:18:54Z</time>
      </trkpt>
      <trkpt lat="44.96224" lon="2.59305">
        <ele>752.37</ele>
        <time>2021-08-16T05:18:56Z</time>
      </trkpt>
      <trkpt lat="44.96225" lon="2.59319">
        <ele>751.89</ele>
        <time>2021-08-16T05:18:58Z</time>
      </trkpt>
      <trkpt lat="44.96226" lon="2.59326">
        <ele>751.41</ele>
        <time>2021-08-16T05:18:59Z</time>
      </trkpt>
      <trkpt lat="44.96228" lon="2.59332">
        <ele>751.41</ele>
        <time>2021-08-16T05:19:00Z</time>
      </trkpt>
      <trkpt lat="44.96231" lon="2.59338">
        <ele>750.45</ele>
        <time>2021-08-16T05:19:01Z</time>
      </trkpt>
      <trkpt lat="44.96245" lon="2.59372">
        <ele>747.08</ele>
        <time>2021-08-16T05:19:06Z</time>
      </trkpt>
      <trkpt lat="44.9625" lon="2.59384">
        <ele>746.12</ele>
        <time>2021-08-16T05:19:08Z</time>
      </trkpt>
      <trkpt lat="44.96252" lon="2.59389">
        <ele>745.64</ele>
        <time>2021-08-16T05:19:09Z</time>
      </trkpt>
      <trkpt lat="44.96254" lon="2.59394">
        <ele>745.16</ele>
        <time>2021-08-16T05:19:10Z</time>
      </trkpt>
      <trkpt lat="44.96255" lon="2.59399">
        <ele>744.2</ele>
        <time>2021-08-16T05:19:11Z</time>
      </trkpt>
      <trkpt lat="44.96255" lon="2.59403">
        <ele>743.72</ele>
        <time>2021-08-16T05:19:12Z</time>
      </trkpt>
      <trkpt lat="44.96254" lon="2.59407">
        <ele>742.28</ele>
        <time>2021-08-16T05:19:13Z</time>
      </trkpt>
      <trkpt lat="44.96253" lon="2.5941">
        <ele>741.79</ele>
        <time>2021-08-16T05:19:14Z</time>
      </trkpt>
      <trkpt lat="44.9625" lon="2.59411">
        <ele>740.35</ele>
        <time>2021-08-16T05:19:15Z</time>
      </trkpt>
      <trkpt lat="44.96247" lon="2.5941">
        <ele>739.87</ele>
        <time>2021-08-16T05:19:16Z</time>
      </trkpt>
      <trkpt lat="44.96243" lon="2.59407">
        <ele>738.91</ele>
        <time>2021-08-16T05:19:17Z</time>
      </trkpt>
      <trkpt lat="44.9624" lon="2.59403">
        <ele>738.43</ele>
        <time>2021-08-16T05:19:18Z</time>
      </trkpt>
      <trkpt lat="44.96235" lon="2.594">
        <ele>737.47</ele>
        <time>2021-08-16T05:19:19Z</time>
      </trkpt>
      <trkpt lat="44.96229" lon="2.59399">
        <ele>737.47</ele>
        <time>2021-08-16T05:19:20Z</time>
      </trkpt>
      <trkpt lat="44.96224" lon="2.59401">
        <ele>736.99</ele>
        <time>2021-08-16T05:19:21Z</time>
      </trkpt>
      <trkpt lat="44.96219" lon="2.59404">
        <ele>736.99</ele>
        <time>2021-08-16T05:19:22Z</time>
      </trkpt>
      <trkpt lat="44.96215" lon="2.59407">
        <ele>738.43</ele>
        <time>2021-08-16T05:19:23Z</time>
      </trkpt>
      <trkpt lat="44.96205" lon="2.59414">
        <ele>739.39</ele>
        <time>2021-08-16T05:19:28Z</time>
      </trkpt>
      <trkpt lat="44.96191" lon="2.59424">
        <ele>740.35</ele>
        <time>2021-08-16T05:19:34Z</time>
      </trkpt>
      <trkpt lat="44.96185" lon="2.59431">
        <ele>740.35</ele>
        <time>2021-08-16T05:19:36Z</time>
      </trkpt>
      <trkpt lat="44.96181" lon="2.59435">
        <ele>739.39</ele>
        <time>2021-08-16T05:19:37Z</time>
      </trkpt>
      <trkpt lat="44.96178" lon="2.59438">
        <ele>738.43</ele>
        <time>2021-08-16T05:19:38Z</time>
      </trkpt>
      <trkpt lat="44.96174" lon="2.59441">
        <ele>738.43</ele>
        <time>2021-08-16T05:19:39Z</time>
      </trkpt>
      <trkpt lat="44.9617" lon="2.59442">
        <ele>737.95</ele>
        <time>2021-08-16T05:19:40Z</time>
      </trkpt>
      <trkpt lat="44.96166" lon="2.59442">
        <ele>737.95</ele>
        <time>2021-08-16T05:19:41Z</time>
      </trkpt>
      <trkpt lat="44.96161" lon="2.59442">
        <ele>736.99</ele>
        <time>2021-08-16T05:19:42Z</time>
      </trkpt>
      <trkpt lat="44.96152" lon="2.5944">
        <ele>736.51</ele>
        <time>2021-08-16T05:19:44Z</time>
      </trkpt>
      <trkpt lat="44.96146" lon="2.59439">
        <ele>735.55</ele>
        <time>2021-08-16T05:19:45Z</time>
      </trkpt>
      <trkpt lat="44.96141" lon="2.59438">
        <ele>735.55</ele>
        <time>2021-08-16T05:19:46Z</time>
      </trkpt>
      <trkpt lat="44.96137" lon="2.59437">
        <ele>735.55</ele>
        <time>2021-08-16T05:19:47Z</time>
      </trkpt>
      <trkpt lat="44.96133" lon="2.59434">
        <ele>735.55</ele>
        <time>2021-08-16T05:19:48Z</time>
      </trkpt>
      <trkpt lat="44.9613" lon="2.59432">
        <ele>735.55</ele>
        <time>2021-08-16T05:19:49Z</time>
      </trkpt>
      <trkpt lat="44.96128" lon="2.5943">
        <ele>735.55</ele>
        <time>2021-08-16T05:19:50Z</time>
      </trkpt>
      <trkpt lat="44.96126" lon="2.59427">
        <ele>735.55</ele>
        <time>2021-08-16T05:19:51Z</time>
      </trkpt>
      <trkpt lat="44.96124" lon="2.59424">
        <ele>736.51</ele>
        <time>2021-08-16T05:19:52Z</time>
      </trkpt>
      <trkpt lat="44.96123" lon="2.59421">
        <ele>736.51</ele>
        <time>2021-08-16T05:19:53Z</time>
      </trkpt>
      <trkpt lat="44.96121" lon="2.59418">
        <ele>736.99</ele>
        <time>2021-08-16T05:19:54Z</time>
      </trkpt>
      <trkpt lat="44.96119" lon="2.59415">
        <ele>736.99</ele>
        <time>2021-08-16T05:19:55Z</time>
      </trkpt>
      <trkpt lat="44.96117" lon="2.59412">
        <ele>736.99</ele>
        <time>2021-08-16T05:19:56Z</time>
      </trkpt>
      <trkpt lat="44.96101" lon="2.59391">
        <ele>737.47</ele>
        <time>2021-08-16T05:20:03Z</time>
      </trkpt>
      <trkpt lat="44.96082" lon="2.59366">
        <ele>738.91</ele>
        <time>2021-08-16T05:20:12Z</time>
      </trkpt>
      <trkpt lat="44.96074" lon="2.59347">
        <ele>738.91</ele>
        <time>2021-08-16T05:20:18Z</time>
      </trkpt>
      <trkpt lat="44.96069" lon="2.59326">
        <ele>739.39</ele>
        <time>2021-08-16T05:20:23Z</time>
      </trkpt>
      <trkpt lat="44.96065" lon="2.59308">
        <ele>740.35</ele>
        <time>2021-08-16T05:20:29Z</time>
      </trkpt>
      <trkpt lat="44.96058" lon="2.59287">
        <ele>741.31</ele>
        <time>2021-08-16T05:20:36Z</time>
      </trkpt>
      <trkpt lat="44.96049" lon="2.59256">
        <ele>741.31</ele>
        <time>2021-08-16T05:20:44Z</time>
      </trkpt>
      <trkpt lat="44.96048" lon="2.59223">
        <ele>741.31</ele>
        <time>2021-08-16T05:20:50Z</time>
      </trkpt>
      <trkpt lat="44.96048" lon="2.59209">
        <ele>742.28</ele>
        <time>2021-08-16T05:20:53Z</time>
      </trkpt>
      <trkpt lat="44.96047" lon="2.59206">
        <ele>742.28</ele>
        <time>2021-08-16T05:20:54Z</time>
      </trkpt>
      <trkpt lat="44.96037" lon="2.59182">
        <ele>742.76</ele>
        <time>2021-08-16T05:21:02Z</time>
      </trkpt>
      <trkpt lat="44.96025" lon="2.59164">
        <ele>742.76</ele>
        <time>2021-08-16T05:21:08Z</time>
      </trkpt>
      <trkpt lat="44.96018" lon="2.59154">
        <ele>742.76</ele>
        <time>2021-08-16T05:21:11Z</time>
      </trkpt>
      <trkpt lat="44.96014" lon="2.5915">
        <ele>741.31</ele>
        <time>2021-08-16T05:21:12Z</time>
      </trkpt>
      <trkpt lat="44.96011" lon="2.59145">
        <ele>741.31</ele>
        <time>2021-08-16T05:21:13Z</time>
      </trkpt>
      <trkpt lat="44.96008" lon="2.59141">
        <ele>740.83</ele>
        <time>2021-08-16T05:21:14Z</time>
      </trkpt>
      <trkpt lat="44.96005" lon="2.59136">
        <ele>740.83</ele>
        <time>2021-08-16T05:21:15Z</time>
      </trkpt>
      <trkpt lat="44.96003" lon="2.59131">
        <ele>740.35</ele>
        <time>2021-08-16T05:21:16Z</time>
      </trkpt>
      <trkpt lat="44.95986" lon="2.59096">
        <ele>739.39</ele>
        <time>2021-08-16T05:21:23Z</time>
      </trkpt>
      <trkpt lat="44.9598" lon="2.59082">
        <ele>738.43</ele>
        <time>2021-08-16T05:21:25Z</time>
      </trkpt>
      <trkpt lat="44.95978" lon="2.59074">
        <ele>738.43</ele>
        <time>2021-08-16T05:21:26Z</time>
      </trkpt>
      <trkpt lat="44.95968" lon="2.59043">
        <ele>737.47</ele>
        <time>2021-08-16T05:21:31Z</time>
      </trkpt>
      <trkpt lat="44.95965" lon="2.59039">
        <ele>737.47</ele>
        <time>2021-08-16T05:21:32Z</time>
      </trkpt>
      <trkpt lat="44.95961" lon="2.59036">
        <ele>737.47</ele>
        <time>2021-08-16T05:21:33Z</time>
      </trkpt>
      <trkpt lat="44.95947" lon="2.59026">
        <ele>736.51</ele>
        <time>2021-08-16T05:21:36Z</time>
      </trkpt>
      <trkpt lat="44.95944" lon="2.59022">
        <ele>736.51</ele>
        <time>2021-08-16T05:21:37Z</time>
      </trkpt>
      <trkpt lat="44.95941" lon="2.59017">
        <ele>736.51</ele>
        <time>2021-08-16T05:21:38Z</time>
      </trkpt>
      <trkpt lat="44.95928" lon="2.58984">
        <ele>736.51</ele>
        <time>2021-08-16T05:21:45Z</time>
      </trkpt>
      <trkpt lat="44.95917" lon="2.58954">
        <ele>736.51</ele>
        <time>2021-08-16T05:21:52Z</time>
      </trkpt>
      <trkpt lat="44.95906" lon="2.58931">
        <ele>735.55</ele>
        <time>2021-08-16T05:21:57Z</time>
      </trkpt>
      <trkpt lat="44.9589" lon="2.58909">
        <ele>735.07</ele>
        <time>2021-08-16T05:22:03Z</time>
      </trkpt>
      <trkpt lat="44.95877" lon="2.58883">
        <ele>734.58</ele>
        <time>2021-08-16T05:22:09Z</time>
      </trkpt>
      <trkpt lat="44.95872" lon="2.58874">
        <ele>734.1</ele>
        <time>2021-08-16T05:22:11Z</time>
      </trkpt>
      <trkpt lat="44.95869" lon="2.58869">
        <ele>733.62</ele>
        <time>2021-08-16T05:22:12Z</time>
      </trkpt>
      <trkpt lat="44.95851" lon="2.58847">
        <ele>732.66</ele>
        <time>2021-08-16T05:22:17Z</time>
      </trkpt>
      <trkpt lat="44.95848" lon="2.58841">
        <ele>732.66</ele>
        <time>2021-08-16T05:22:18Z</time>
      </trkpt>
      <trkpt lat="44.95846" lon="2.58835">
        <ele>732.18</ele>
        <time>2021-08-16T05:22:19Z</time>
      </trkpt>
      <trkpt lat="44.95843" lon="2.58827">
        <ele>732.18</ele>
        <time>2021-08-16T05:22:20Z</time>
      </trkpt>
      <trkpt lat="44.9584" lon="2.58819">
        <ele>731.7</ele>
        <time>2021-08-16T05:22:21Z</time>
      </trkpt>
      <trkpt lat="44.95838" lon="2.58812">
        <ele>731.7</ele>
        <time>2021-08-16T05:22:22Z</time>
      </trkpt>
      <trkpt lat="44.95836" lon="2.58804">
        <ele>731.7</ele>
        <time>2021-08-16T05:22:23Z</time>
      </trkpt>
      <trkpt lat="44.95831" lon="2.58789">
        <ele>731.22</ele>
        <time>2021-08-16T05:22:25Z</time>
      </trkpt>
      <trkpt lat="44.95829" lon="2.58783">
        <ele>731.22</ele>
        <time>2021-08-16T05:22:26Z</time>
      </trkpt>
      <trkpt lat="44.95826" lon="2.58777">
        <ele>731.22</ele>
        <time>2021-08-16T05:22:27Z</time>
      </trkpt>
      <trkpt lat="44.95819" lon="2.58765">
        <ele>731.22</ele>
        <time>2021-08-16T05:22:29Z</time>
      </trkpt>
      <trkpt lat="44.9581" lon="2.58755">
        <ele>732.66</ele>
        <time>2021-08-16T05:22:32Z</time>
      </trkpt>
      <trkpt lat="44.95799" lon="2.58729">
        <ele>732.66</ele>
        <time>2021-08-16T05:22:38Z</time>
      </trkpt>
      <trkpt lat="44.95796" lon="2.58722">
        <ele>732.66</ele>
        <time>2021-08-16T05:22:39Z</time>
      </trkpt>
      <trkpt lat="44.95793" lon="2.58716">
        <ele>732.66</ele>
        <time>2021-08-16T05:22:40Z</time>
      </trkpt>
      <trkpt lat="44.95789" lon="2.5871">
        <ele>732.66</ele>
        <time>2021-08-16T05:22:41Z</time>
      </trkpt>
      <trkpt lat="44.95778" lon="2.58688">
        <ele>733.62</ele>
        <time>2021-08-16T05:22:46Z</time>
      </trkpt>
      <trkpt lat="44.95769" lon="2.58659">
        <ele>734.58</ele>
        <time>2021-08-16T05:22:55Z</time>
      </trkpt>
      <trkpt lat="44.95765" lon="2.58644">
        <ele>736.03</ele>
        <time>2021-08-16T05:23:02Z</time>
      </trkpt>
      <trkpt lat="44.95761" lon="2.5863">
        <ele>736.99</ele>
        <time>2021-08-16T05:23:08Z</time>
      </trkpt>
      <trkpt lat="44.9576" lon="2.58628">
        <ele>736.99</ele>
        <time>2021-08-16T05:23:09Z</time>
      </trkpt>
      <trkpt lat="44.95756" lon="2.58618">
        <ele>737.47</ele>
        <time>2021-08-16T05:23:14Z</time>
      </trkpt>
      <trkpt lat="44.95754" lon="2.58615">
        <ele>737.47</ele>
        <time>2021-08-16T05:23:15Z</time>
      </trkpt>
      <trkpt lat="44.95753" lon="2.58612">
        <ele>737.47</ele>
        <time>2021-08-16T05:23:16Z</time>
      </trkpt>
      <trkpt lat="44.95751" lon="2.5861">
        <ele>737.47</ele>
        <time>2021-08-16T05:23:17Z</time>
      </trkpt>
      <trkpt lat="44.95749" lon="2.58608">
        <ele>737.47</ele>
        <time>2021-08-16T05:23:18Z</time>
      </trkpt>
      <trkpt lat="44.95747" lon="2.58606">
        <ele>737.47</ele>
        <time>2021-08-16T05:23:19Z</time>
      </trkpt>
      <trkpt lat="44.95734" lon="2.58597">
        <ele>734.1</ele>
        <time>2021-08-16T05:23:25Z</time>
      </trkpt>
      <trkpt lat="44.9572" lon="2.58586">
        <ele>732.66</ele>
        <time>2021-08-16T05:23:30Z</time>
      </trkpt>
      <trkpt lat="44.95701" lon="2.58561">
        <ele>731.7</ele>
        <time>2021-08-16T05:23:36Z</time>
      </trkpt>
      <trkpt lat="44.95675" lon="2.58526">
        <ele>729.3</ele>
        <time>2021-08-16T05:23:43Z</time>
      </trkpt>
      <trkpt lat="44.9566" lon="2.58505">
        <ele>725.93</ele>
        <time>2021-08-16T05:23:46Z</time>
      </trkpt>
      <trkpt lat="44.95641" lon="2.58483">
        <ele>724.49</ele>
        <time>2021-08-16T05:23:49Z</time>
      </trkpt>
      <trkpt lat="44.9561" lon="2.58445">
        <ele>722.57</ele>
        <time>2021-08-16T05:23:53Z</time>
      </trkpt>
      <trkpt lat="44.95604" lon="2.58438">
        <ele>722.09</ele>
        <time>2021-08-16T05:23:54Z</time>
      </trkpt>
      <trkpt lat="44.95563" lon="2.58398">
        <ele>721.13</ele>
        <time>2021-08-16T05:24:00Z</time>
      </trkpt>
      <trkpt lat="44.95547" lon="2.58368">
        <ele>722.57</ele>
        <time>2021-08-16T05:24:04Z</time>
      </trkpt>
      <trkpt lat="44.95527" lon="2.58326">
        <ele>720.65</ele>
        <time>2021-08-16T05:24:10Z</time>
      </trkpt>
      <trkpt lat="44.95522" lon="2.58318">
        <ele>719.68</ele>
        <time>2021-08-16T05:24:11Z</time>
      </trkpt>
      <trkpt lat="44.95513" lon="2.58304">
        <ele>718.24</ele>
        <time>2021-08-16T05:24:13Z</time>
      </trkpt>
      <trkpt lat="44.95493" lon="2.5828">
        <ele>714.4</ele>
        <time>2021-08-16T05:24:16Z</time>
      </trkpt>
      <trkpt lat="44.9547" lon="2.58253">
        <ele>711.99</ele>
        <time>2021-08-16T05:24:19Z</time>
      </trkpt>
      <trkpt lat="44.95445" lon="2.58207">
        <ele>709.11</ele>
        <time>2021-08-16T05:24:23Z</time>
      </trkpt>
      <trkpt lat="44.95419" lon="2.58144">
        <ele>705.75</ele>
        <time>2021-08-16T05:24:28Z</time>
      </trkpt>
      <trkpt lat="44.95414" lon="2.58135">
        <ele>705.26</ele>
        <time>2021-08-16T05:24:29Z</time>
      </trkpt>
      <trkpt lat="44.95393" lon="2.58102">
        <ele>701.9</ele>
        <time>2021-08-16T05:24:32Z</time>
      </trkpt>
      <trkpt lat="44.9538" lon="2.58077">
        <ele>699.98</ele>
        <time>2021-08-16T05:24:34Z</time>
      </trkpt>
      <trkpt lat="44.95364" lon="2.58039">
        <ele>696.61</ele>
        <time>2021-08-16T05:24:37Z</time>
      </trkpt>
      <trkpt lat="44.95341" lon="2.57999">
        <ele>693.25</ele>
        <time>2021-08-16T05:24:41Z</time>
      </trkpt>
      <trkpt lat="44.95336" lon="2.57988">
        <ele>692.77</ele>
        <time>2021-08-16T05:24:42Z</time>
      </trkpt>
      <trkpt lat="44.95332" lon="2.57979">
        <ele>691.81</ele>
        <time>2021-08-16T05:24:43Z</time>
      </trkpt>
      <trkpt lat="44.9533" lon="2.57968">
        <ele>691.33</ele>
        <time>2021-08-16T05:24:44Z</time>
      </trkpt>
      <trkpt lat="44.95327" lon="2.57957">
        <ele>689.88</ele>
        <time>2021-08-16T05:24:45Z</time>
      </trkpt>
      <trkpt lat="44.95327" lon="2.57947">
        <ele>689.4</ele>
        <time>2021-08-16T05:24:46Z</time>
      </trkpt>
      <trkpt lat="44.95328" lon="2.57932">
        <ele>688.92</ele>
        <time>2021-08-16T05:24:47Z</time>
      </trkpt>
      <trkpt lat="44.95328" lon="2.57924">
        <ele>688.44</ele>
        <time>2021-08-16T05:24:48Z</time>
      </trkpt>
      <trkpt lat="44.95327" lon="2.57914">
        <ele>687.48</ele>
        <time>2021-08-16T05:24:49Z</time>
      </trkpt>
      <trkpt lat="44.95325" lon="2.57904">
        <ele>686.52</ele>
        <time>2021-08-16T05:24:50Z</time>
      </trkpt>
      <trkpt lat="44.95321" lon="2.57895">
        <ele>686.52</ele>
        <time>2021-08-16T05:24:51Z</time>
      </trkpt>
      <trkpt lat="44.95316" lon="2.57887">
        <ele>685.56</ele>
        <time>2021-08-16T05:24:52Z</time>
      </trkpt>
      <trkpt lat="44.95311" lon="2.5788">
        <ele>684.6</ele>
        <time>2021-08-16T05:24:53Z</time>
      </trkpt>
      <trkpt lat="44.95305" lon="2.57873">
        <ele>684.12</ele>
        <time>2021-08-16T05:24:54Z</time>
      </trkpt>
      <trkpt lat="44.95298" lon="2.57869">
        <ele>683.15</ele>
        <time>2021-08-16T05:24:55Z</time>
      </trkpt>
      <trkpt lat="44.95292" lon="2.57866">
        <ele>682.19</ele>
        <time>2021-08-16T05:24:56Z</time>
      </trkpt>
      <trkpt lat="44.95287" lon="2.57862">
        <ele>681.71</ele>
        <time>2021-08-16T05:24:57Z</time>
      </trkpt>
      <trkpt lat="44.95283" lon="2.57857">
        <ele>680.75</ele>
        <time>2021-08-16T05:24:58Z</time>
      </trkpt>
      <trkpt lat="44.95279" lon="2.57849">
        <ele>679.79</ele>
        <time>2021-08-16T05:24:59Z</time>
      </trkpt>
      <trkpt lat="44.95272" lon="2.57835">
        <ele>677.87</ele>
        <time>2021-08-16T05:25:01Z</time>
      </trkpt>
      <trkpt lat="44.95268" lon="2.57829">
        <ele>676.91</ele>
        <time>2021-08-16T05:25:02Z</time>
      </trkpt>
      <trkpt lat="44.95262" lon="2.57817">
        <ele>675.94</ele>
        <time>2021-08-16T05:25:04Z</time>
      </trkpt>
      <trkpt lat="44.95256" lon="2.57798">
        <ele>674.02</ele>
        <time>2021-08-16T05:25:09Z</time>
      </trkpt>
      <trkpt lat="44.95253" lon="2.57793">
        <ele>673.54</ele>
        <time>2021-08-16T05:25:13Z</time>
      </trkpt>
      <trkpt lat="44.95251" lon="2.57793">
        <ele>673.06</ele>
        <time>2021-08-16T05:25:14Z</time>
      </trkpt>
      <trkpt lat="44.9525" lon="2.57794">
        <ele>673.06</ele>
        <time>2021-08-16T05:25:15Z</time>
      </trkpt>
      <trkpt lat="44.95247" lon="2.57794">
        <ele>672.1</ele>
        <time>2021-08-16T05:25:16Z</time>
      </trkpt>
      <trkpt lat="44.95245" lon="2.57793">
        <ele>672.58</ele>
        <time>2021-08-16T05:25:17Z</time>
      </trkpt>
      <trkpt lat="44.95242" lon="2.57794">
        <ele>672.1</ele>
        <time>2021-08-16T05:25:18Z</time>
      </trkpt>
      <trkpt lat="44.95234" lon="2.5779">
        <ele>671.14</ele>
        <time>2021-08-16T05:25:21Z</time>
      </trkpt>
      <trkpt lat="44.95232" lon="2.57786">
        <ele>671.14</ele>
        <time>2021-08-16T05:25:22Z</time>
      </trkpt>
      <trkpt lat="44.95232" lon="2.57782">
        <ele>671.14</ele>
        <time>2021-08-16T05:25:23Z</time>
      </trkpt>
      <trkpt lat="44.95231" lon="2.5775">
        <ele>670.18</ele>
        <time>2021-08-16T05:25:29Z</time>
      </trkpt>
      <trkpt lat="44.95232" lon="2.57746">
        <ele>671.14</ele>
        <time>2021-08-16T05:25:30Z</time>
      </trkpt>
      <trkpt lat="44.95232" lon="2.57743">
        <ele>671.14</ele>
        <time>2021-08-16T05:25:31Z</time>
      </trkpt>
      <trkpt lat="44.95232" lon="2.57742">
        <ele>671.14</ele>
        <time>2021-08-16T05:25:35Z</time>
      </trkpt>
      <trkpt lat="44.95232" lon="2.57742">
        <ele>671.14</ele>
        <time>2021-08-16T05:25:46Z</time>
      </trkpt>
      <trkpt lat="44.95232" lon="2.57742">
        <ele>671.14</ele>
        <time>2021-08-16T05:25:57Z</time>
      </trkpt>
      <trkpt lat="44.95232" lon="2.57741">
        <ele>671.14</ele>
        <time>2021-08-16T05:26:10Z</time>
      </trkpt>
      <trkpt lat="44.95232" lon="2.57739">
        <ele>671.14</ele>
        <time>2021-08-16T05:26:11Z</time>
      </trkpt>
      <trkpt lat="44.95232" lon="2.57737">
        <ele>671.14</ele>
        <time>2021-08-16T05:26:12Z</time>
      </trkpt>
      <trkpt lat="44.95231" lon="2.57735">
        <ele>671.14</ele>
        <time>2021-08-16T05:26:13Z</time>
      </trkpt>
      <trkpt lat="44.9523" lon="2.57731">
        <ele>671.14</ele>
        <time>2021-08-16T05:26:14Z</time>
      </trkpt>
      <trkpt lat="44.95229" lon="2.57728">
        <ele>671.14</ele>
        <time>2021-08-16T05:26:15Z</time>
      </trkpt>
      <trkpt lat="44.95228" lon="2.57723">
        <ele>671.14</ele>
        <time>2021-08-16T05:26:16Z</time>
      </trkpt>
      <trkpt lat="44.95227" lon="2.57719">
        <ele>671.14</ele>
        <time>2021-08-16T05:26:17Z</time>
      </trkpt>
      <trkpt lat="44.95226" lon="2.57713">
        <ele>671.14</ele>
        <time>2021-08-16T05:26:18Z</time>
      </trkpt>
      <trkpt lat="44.95221" lon="2.57667">
        <ele>670.66</ele>
        <time>2021-08-16T05:26:26Z</time>
      </trkpt>
      <trkpt lat="44.95216" lon="2.57624">
        <ele>672.1</ele>
        <time>2021-08-16T05:26:34Z</time>
      </trkpt>
      <trkpt lat="44.95215" lon="2.57615">
        <ele>672.58</ele>
        <time>2021-08-16T05:26:36Z</time>
      </trkpt>
      <trkpt lat="44.95212" lon="2.57584">
        <ele>673.06</ele>
        <time>2021-08-16T05:26:43Z</time>
      </trkpt>
      <trkpt lat="44.95208" lon="2.57545">
        <ele>674.02</ele>
        <time>2021-08-16T05:26:52Z</time>
      </trkpt>
      <trkpt lat="44.95203" lon="2.57502">
        <ele>674.98</ele>
        <time>2021-08-16T05:27:02Z</time>
      </trkpt>
      <trkpt lat="44.95195" lon="2.57461">
        <ele>675.46</ele>
        <time>2021-08-16T05:27:11Z</time>
      </trkpt>
      <trkpt lat="44.95181" lon="2.57427">
        <ele>675.94</ele>
        <time>2021-08-16T05:27:19Z</time>
      </trkpt>
      <trkpt lat="44.9516" lon="2.57385">
        <ele>675.94</ele>
        <time>2021-08-16T05:27:28Z</time>
      </trkpt>
      <trkpt lat="44.95149" lon="2.57364">
        <ele>676.42</ele>
        <time>2021-08-16T05:27:33Z</time>
      </trkpt>
      <trkpt lat="44.95146" lon="2.5736">
        <ele>676.42</ele>
        <time>2021-08-16T05:27:34Z</time>
      </trkpt>
      <trkpt lat="44.95144" lon="2.57356">
        <ele>676.91</ele>
        <time>2021-08-16T05:27:35Z</time>
      </trkpt>
      <trkpt lat="44.95131" lon="2.5733">
        <ele>677.87</ele>
        <time>2021-08-16T05:27:43Z</time>
      </trkpt>
      <trkpt lat="44.95116" lon="2.57301">
        <ele>679.79</ele>
        <time>2021-08-16T05:27:54Z</time>
      </trkpt>
      <trkpt lat="44.95105" lon="2.57279">
        <ele>680.27</ele>
        <time>2021-08-16T05:28:03Z</time>
      </trkpt>
      <trkpt lat="44.95092" lon="2.57252">
        <ele>681.71</ele>
        <time>2021-08-16T05:28:13Z</time>
      </trkpt>
      <trkpt lat="44.95077" lon="2.57222">
        <ele>682.67</ele>
        <time>2021-08-16T05:28:24Z</time>
      </trkpt>
      <trkpt lat="44.95061" lon="2.57193">
        <ele>684.12</ele>
        <time>2021-08-16T05:28:34Z</time>
      </trkpt>
      <trkpt lat="44.95054" lon="2.57176">
        <ele>685.08</ele>
        <time>2021-08-16T05:28:40Z</time>
      </trkpt>
      <trkpt lat="44.95053" lon="2.57173">
        <ele>685.08</ele>
        <time>2021-08-16T05:28:41Z</time>
      </trkpt>
      <trkpt lat="44.95054" lon="2.5717">
        <ele>685.56</ele>
        <time>2021-08-16T05:28:42Z</time>
      </trkpt>
      <trkpt lat="44.95055" lon="2.57169">
        <ele>685.56</ele>
        <time>2021-08-16T05:28:43Z</time>
      </trkpt>
      <trkpt lat="44.95056" lon="2.57169">
        <ele>686.04</ele>
        <time>2021-08-16T05:28:44Z</time>
      </trkpt>
      <trkpt lat="44.95057" lon="2.57168">
        <ele>686.04</ele>
        <time>2021-08-16T05:28:45Z</time>
      </trkpt>
      <trkpt lat="44.95058" lon="2.57167">
        <ele>686.52</ele>
        <time>2021-08-16T05:28:46Z</time>
      </trkpt>
      <trkpt lat="44.95059" lon="2.57166">
        <ele>686.52</ele>
        <time>2021-08-16T05:28:47Z</time>
      </trkpt>
      <trkpt lat="44.9506" lon="2.57166">
        <ele>686.52</ele>
        <time>2021-08-16T05:28:48Z</time>
      </trkpt>
      <trkpt lat="44.95061" lon="2.57165">
        <ele>686.52</ele>
        <time>2021-08-16T05:28:49Z</time>
      </trkpt>
      <trkpt lat="44.95062" lon="2.57164">
        <ele>687</ele>
        <time>2021-08-16T05:28:50Z</time>
      </trkpt>
      <trkpt lat="44.95063" lon="2.57163">
        <ele>687</ele>
        <time>2021-08-16T05:28:51Z</time>
      </trkpt>
      <trkpt lat="44.95065" lon="2.57163">
        <ele>687.96</ele>
        <time>2021-08-16T05:28:52Z</time>
      </trkpt>
      <trkpt lat="44.95065" lon="2.57161">
        <ele>687.48</ele>
        <time>2021-08-16T05:28:53Z</time>
      </trkpt>
      <trkpt lat="44.95066" lon="2.5716">
        <ele>687.96</ele>
        <time>2021-08-16T05:28:54Z</time>
      </trkpt>
      <trkpt lat="44.95071" lon="2.57147">
        <ele>689.4</ele>
        <time>2021-08-16T05:29:03Z</time>
      </trkpt>
      <trkpt lat="44.95071" lon="2.57145">
        <ele>689.4</ele>
        <time>2021-08-16T05:29:10Z</time>
      </trkpt>
      <trkpt lat="44.9507" lon="2.57145">
        <ele>689.4</ele>
        <time>2021-08-16T05:29:27Z</time>
      </trkpt>
      <trkpt lat="44.95068" lon="2.57143">
        <ele>689.4</ele>
        <time>2021-08-16T05:29:37Z</time>
      </trkpt>
      <trkpt lat="44.95067" lon="2.57141">
        <ele>689.4</ele>
        <time>2021-08-16T05:29:38Z</time>
      </trkpt>
      <trkpt lat="44.95067" lon="2.57139">
        <ele>689.4</ele>
        <time>2021-08-16T05:29:39Z</time>
      </trkpt>
      <trkpt lat="44.95066" lon="2.57137">
        <ele>689.4</ele>
        <time>2021-08-16T05:29:40Z</time>
      </trkpt>
      <trkpt lat="44.95065" lon="2.57135">
        <ele>689.4</ele>
        <time>2021-08-16T05:29:41Z</time>
      </trkpt>
      <trkpt lat="44.95065" lon="2.57133">
        <ele>689.4</ele>
        <time>2021-08-16T05:29:42Z</time>
      </trkpt>
      <trkpt lat="44.95065" lon="2.5713">
        <ele>689.88</ele>
        <time>2021-08-16T05:29:43Z</time>
      </trkpt>
      <trkpt lat="44.95064" lon="2.57128">
        <ele>689.88</ele>
        <time>2021-08-16T05:29:44Z</time>
      </trkpt>
      <trkpt lat="44.95059" lon="2.5711">
        <ele>691.33</ele>
        <time>2021-08-16T05:29:53Z</time>
      </trkpt>
      <trkpt lat="44.95057" lon="2.57096">
        <ele>691.33</ele>
        <time>2021-08-16T05:30:00Z</time>
      </trkpt>
      <trkpt lat="44.95057" lon="2.57094">
        <ele>692.29</ele>
        <time>2021-08-16T05:30:01Z</time>
      </trkpt>
      <trkpt lat="44.95057" lon="2.57093">
        <ele>692.29</ele>
        <time>2021-08-16T05:30:02Z</time>
      </trkpt>
      <trkpt lat="44.95054" lon="2.57074">
        <ele>693.25</ele>
        <time>2021-08-16T05:30:12Z</time>
      </trkpt>
      <trkpt lat="44.95052" lon="2.5706">
        <ele>695.17</ele>
        <time>2021-08-16T05:30:20Z</time>
      </trkpt>
      <trkpt lat="44.95051" lon="2.57058">
        <ele>695.65</ele>
        <time>2021-08-16T05:30:24Z</time>
      </trkpt>
      <trkpt lat="44.95053" lon="2.57046">
        <ele>696.61</ele>
        <time>2021-08-16T05:30:33Z</time>
      </trkpt>
      <trkpt lat="44.95058" lon="2.57039">
        <ele>698.05</ele>
        <time>2021-08-16T05:30:42Z</time>
      </trkpt>
      <trkpt lat="44.95062" lon="2.57029">
        <ele>699.98</ele>
        <time>2021-08-16T05:30:53Z</time>
      </trkpt>
      <trkpt lat="44.95065" lon="2.57019">
        <ele>701.42</ele>
        <time>2021-08-16T05:31:03Z</time>
      </trkpt>
      <trkpt lat="44.95067" lon="2.57011">
        <ele>702.86</ele>
        <time>2021-08-16T05:31:13Z</time>
      </trkpt>
      <trkpt lat="44.95067" lon="2.57003">
        <ele>704.3</ele>
        <time>2021-08-16T05:31:22Z</time>
      </trkpt>
      <trkpt lat="44.95067" lon="2.57001">
        <ele>704.78</ele>
        <time>2021-08-16T05:31:31Z</time>
      </trkpt>
      <trkpt lat="44.95067" lon="2.56995">
        <ele>705.75</ele>
        <time>2021-08-16T05:31:38Z</time>
      </trkpt>
      <trkpt lat="44.95067" lon="2.56986">
        <ele>707.67</ele>
        <time>2021-08-16T05:31:48Z</time>
      </trkpt>
      <trkpt lat="44.95066" lon="2.56975">
        <ele>709.11</ele>
        <time>2021-08-16T05:32:00Z</time>
      </trkpt>
      <trkpt lat="44.95065" lon="2.56966">
        <ele>711.03</ele>
        <time>2021-08-16T05:32:10Z</time>
      </trkpt>
      <trkpt lat="44.95063" lon="2.56959">
        <ele>711.99</ele>
        <time>2021-08-16T05:32:19Z</time>
      </trkpt>
      <trkpt lat="44.95063" lon="2.56958">
        <ele>712.47</ele>
        <time>2021-08-16T05:32:20Z</time>
      </trkpt>
      <trkpt lat="44.95062" lon="2.56949">
        <ele>713.44</ele>
        <time>2021-08-16T05:32:28Z</time>
      </trkpt>
      <trkpt lat="44.95063" lon="2.56937">
        <ele>714.88</ele>
        <time>2021-08-16T05:32:39Z</time>
      </trkpt>
      <trkpt lat="44.95063" lon="2.56929">
        <ele>715.36</ele>
        <time>2021-08-16T05:32:47Z</time>
      </trkpt>
      <trkpt lat="44.95063" lon="2.56922">
        <ele>716.32</ele>
        <time>2021-08-16T05:32:53Z</time>
      </trkpt>
      <trkpt lat="44.95062" lon="2.56921">
        <ele>716.32</ele>
        <time>2021-08-16T05:32:54Z</time>
      </trkpt>
      <trkpt lat="44.95062" lon="2.5692">
        <ele>716.32</ele>
        <time>2021-08-16T05:32:55Z</time>
      </trkpt>
      <trkpt lat="44.95063" lon="2.56911">
        <ele>717.76</ele>
        <time>2021-08-16T05:33:01Z</time>
      </trkpt>
      <trkpt lat="44.95063" lon="2.56909">
        <ele>718.24</ele>
        <time>2021-08-16T05:33:02Z</time>
      </trkpt>
      <trkpt lat="44.95063" lon="2.56907">
        <ele>718.24</ele>
        <time>2021-08-16T05:33:03Z</time>
      </trkpt>
      <trkpt lat="44.95063" lon="2.56905">
        <ele>718.72</ele>
        <time>2021-08-16T05:33:04Z</time>
      </trkpt>
      <trkpt lat="44.95063" lon="2.56903">
        <ele>718.72</ele>
        <time>2021-08-16T05:33:05Z</time>
      </trkpt>
      <trkpt lat="44.95063" lon="2.56902">
        <ele>719.2</ele>
        <time>2021-08-16T05:33:06Z</time>
      </trkpt>
      <trkpt lat="44.95063" lon="2.569">
        <ele>719.68</ele>
        <time>2021-08-16T05:33:07Z</time>
      </trkpt>
      <trkpt lat="44.95063" lon="2.56898">
        <ele>719.68</ele>
        <time>2021-08-16T05:33:08Z</time>
      </trkpt>
      <trkpt lat="44.95063" lon="2.56896">
        <ele>719.68</ele>
        <time>2021-08-16T05:33:09Z</time>
      </trkpt>
      <trkpt lat="44.95064" lon="2.56891">
        <ele>720.65</ele>
        <time>2021-08-16T05:33:13Z</time>
      </trkpt>
      <trkpt lat="44.95066" lon="2.56884">
        <ele>721.61</ele>
        <time>2021-08-16T05:33:18Z</time>
      </trkpt>
      <trkpt lat="44.95075" lon="2.56877">
        <ele>722.57</ele>
        <time>2021-08-16T05:33:27Z</time>
      </trkpt>
      <trkpt lat="44.95083" lon="2.5687">
        <ele>723.05</ele>
        <time>2021-08-16T05:33:34Z</time>
      </trkpt>
      <trkpt lat="44.95084" lon="2.56868">
        <ele>723.05</ele>
        <time>2021-08-16T05:33:35Z</time>
      </trkpt>
      <trkpt lat="44.95085" lon="2.56867">
        <ele>723.53</ele>
        <time>2021-08-16T05:33:36Z</time>
      </trkpt>
      <trkpt lat="44.95086" lon="2.56867">
        <ele>723.53</ele>
        <time>2021-08-16T05:33:37Z</time>
      </trkpt>
      <trkpt lat="44.95087" lon="2.56866">
        <ele>723.53</ele>
        <time>2021-08-16T05:33:38Z</time>
      </trkpt>
      <trkpt lat="44.95088" lon="2.56865">
        <ele>723.53</ele>
        <time>2021-08-16T05:33:39Z</time>
      </trkpt>
      <trkpt lat="44.9509" lon="2.56865">
        <ele>723.53</ele>
        <time>2021-08-16T05:33:40Z</time>
      </trkpt>
      <trkpt lat="44.95091" lon="2.56864">
        <ele>724.01</ele>
        <time>2021-08-16T05:33:41Z</time>
      </trkpt>
      <trkpt lat="44.95092" lon="2.56863">
        <ele>724.01</ele>
        <time>2021-08-16T05:33:42Z</time>
      </trkpt>
      <trkpt lat="44.951" lon="2.56856">
        <ele>724.97</ele>
        <time>2021-08-16T05:33:50Z</time>
      </trkpt>
      <trkpt lat="44.95108" lon="2.56849">
        <ele>726.41</ele>
        <time>2021-08-16T05:33:58Z</time>
      </trkpt>
      <trkpt lat="44.95117" lon="2.56842">
        <ele>727.37</ele>
        <time>2021-08-16T05:34:06Z</time>
      </trkpt>
      <trkpt lat="44.9512" lon="2.56839">
        <ele>727.86</ele>
        <time>2021-08-16T05:34:09Z</time>
      </trkpt>
      <trkpt lat="44.9512" lon="2.56837">
        <ele>728.34</ele>
        <time>2021-08-16T05:34:10Z</time>
      </trkpt>
      <trkpt lat="44.95121" lon="2.56836">
        <ele>728.34</ele>
        <time>2021-08-16T05:34:11Z</time>
      </trkpt>
      <trkpt lat="44.95122" lon="2.56835">
        <ele>728.34</ele>
        <time>2021-08-16T05:34:12Z</time>
      </trkpt>
      <trkpt lat="44.95123" lon="2.56834">
        <ele>728.34</ele>
        <time>2021-08-16T05:34:13Z</time>
      </trkpt>
      <trkpt lat="44.95127" lon="2.56821">
        <ele>730.26</ele>
        <time>2021-08-16T05:34:23Z</time>
      </trkpt>
      <trkpt lat="44.95126" lon="2.56808">
        <ele>731.7</ele>
        <time>2021-08-16T05:34:32Z</time>
      </trkpt>
      <trkpt lat="44.95123" lon="2.56802">
        <ele>733.14</ele>
        <time>2021-08-16T05:34:38Z</time>
      </trkpt>
      <trkpt lat="44.95122" lon="2.56801">
        <ele>733.14</ele>
        <time>2021-08-16T05:34:39Z</time>
      </trkpt>
      <trkpt lat="44.95121" lon="2.56801">
        <ele>733.14</ele>
        <time>2021-08-16T05:34:40Z</time>
      </trkpt>
      <trkpt lat="44.9512" lon="2.568">
        <ele>733.14</ele>
        <time>2021-08-16T05:34:41Z</time>
      </trkpt>
      <trkpt lat="44.95118" lon="2.568">
        <ele>733.14</ele>
        <time>2021-08-16T05:34:42Z</time>
      </trkpt>
      <trkpt lat="44.95117" lon="2.568">
        <ele>733.14</ele>
        <time>2021-08-16T05:34:43Z</time>
      </trkpt>
      <trkpt lat="44.95116" lon="2.568">
        <ele>734.1</ele>
        <time>2021-08-16T05:34:44Z</time>
      </trkpt>
      <trkpt lat="44.95115" lon="2.568">
        <ele>734.1</ele>
        <time>2021-08-16T05:34:45Z</time>
      </trkpt>
      <trkpt lat="44.95112" lon="2.56804">
        <ele>735.07</ele>
        <time>2021-08-16T05:34:50Z</time>
      </trkpt>
      <trkpt lat="44.95108" lon="2.56807">
        <ele>736.03</ele>
        <time>2021-08-16T05:34:56Z</time>
      </trkpt>
      <trkpt lat="44.95103" lon="2.56806">
        <ele>736.99</ele>
        <time>2021-08-16T05:35:01Z</time>
      </trkpt>
      <trkpt lat="44.95102" lon="2.56806">
        <ele>737.47</ele>
        <time>2021-08-16T05:35:02Z</time>
      </trkpt>
      <trkpt lat="44.95095" lon="2.56803">
        <ele>738.43</ele>
        <time>2021-08-16T05:35:10Z</time>
      </trkpt>
      <trkpt lat="44.95087" lon="2.56796">
        <ele>739.87</ele>
        <time>2021-08-16T05:35:18Z</time>
      </trkpt>
      <trkpt lat="44.95073" lon="2.56786">
        <ele>740.83</ele>
        <time>2021-08-16T05:35:29Z</time>
      </trkpt>
      <trkpt lat="44.95069" lon="2.56783">
        <ele>741.79</ele>
        <time>2021-08-16T05:35:33Z</time>
      </trkpt>
      <trkpt lat="44.95061" lon="2.56778">
        <ele>743.24</ele>
        <time>2021-08-16T05:35:41Z</time>
      </trkpt>
      <trkpt lat="44.95051" lon="2.56774">
        <ele>744.2</ele>
        <time>2021-08-16T05:35:50Z</time>
      </trkpt>
      <trkpt lat="44.95043" lon="2.56769">
        <ele>745.16</ele>
        <time>2021-08-16T05:35:57Z</time>
      </trkpt>
      <trkpt lat="44.95036" lon="2.56764">
        <ele>746.12</ele>
        <time>2021-08-16T05:36:04Z</time>
      </trkpt>
      <trkpt lat="44.95032" lon="2.56761">
        <ele>747.08</ele>
        <time>2021-08-16T05:36:08Z</time>
      </trkpt>
      <trkpt lat="44.95025" lon="2.56758">
        <ele>748.04</ele>
        <time>2021-08-16T05:36:16Z</time>
      </trkpt>
      <trkpt lat="44.95019" lon="2.56753">
        <ele>749</ele>
        <time>2021-08-16T05:36:23Z</time>
      </trkpt>
      <trkpt lat="44.95014" lon="2.56751">
        <ele>749.97</ele>
        <time>2021-08-16T05:36:30Z</time>
      </trkpt>
      <trkpt lat="44.95005" lon="2.56745">
        <ele>749.97</ele>
        <time>2021-08-16T05:36:44Z</time>
      </trkpt>
      <trkpt lat="44.95001" lon="2.56741">
        <ele>749.97</ele>
        <time>2021-08-16T05:36:57Z</time>
      </trkpt>
      <trkpt lat="44.95002" lon="2.56738">
        <ele>749.97</ele>
        <time>2021-08-16T05:37:05Z</time>
      </trkpt>
      <trkpt lat="44.95003" lon="2.56734">
        <ele>750.45</ele>
        <time>2021-08-16T05:37:12Z</time>
      </trkpt>
      <trkpt lat="44.95005" lon="2.5673">
        <ele>751.41</ele>
        <time>2021-08-16T05:37:16Z</time>
      </trkpt>
      <trkpt lat="44.95008" lon="2.56721">
        <ele>752.85</ele>
        <time>2021-08-16T05:37:23Z</time>
      </trkpt>
      <trkpt lat="44.95008" lon="2.5672">
        <ele>752.85</ele>
        <time>2021-08-16T05:37:24Z</time>
      </trkpt>
      <trkpt lat="44.95008" lon="2.56716">
        <ele>753.33</ele>
        <time>2021-08-16T05:37:26Z</time>
      </trkpt>
      <trkpt lat="44.95012" lon="2.56702">
        <ele>754.29</ele>
        <time>2021-08-16T05:37:33Z</time>
      </trkpt>
      <trkpt lat="44.95012" lon="2.56698">
        <ele>755.25</ele>
        <time>2021-08-16T05:37:36Z</time>
      </trkpt>
      <trkpt lat="44.95013" lon="2.56695">
        <ele>755.25</ele>
        <time>2021-08-16T05:37:37Z</time>
      </trkpt>
      <trkpt lat="44.95012" lon="2.56693">
        <ele>755.25</ele>
        <time>2021-08-16T05:37:38Z</time>
      </trkpt>
      <trkpt lat="44.95012" lon="2.5668">
        <ele>756.21</ele>
        <time>2021-08-16T05:37:45Z</time>
      </trkpt>
      <trkpt lat="44.95014" lon="2.56665">
        <ele>757.18</ele>
        <time>2021-08-16T05:37:53Z</time>
      </trkpt>
      <trkpt lat="44.95015" lon="2.56656">
        <ele>758.14</ele>
        <time>2021-08-16T05:37:58Z</time>
      </trkpt>
      <trkpt lat="44.95015" lon="2.56652">
        <ele>758.62</ele>
        <time>2021-08-16T05:38:01Z</time>
      </trkpt>
      <trkpt lat="44.95017" lon="2.56635">
        <ele>760.06</ele>
        <time>2021-08-16T05:38:10Z</time>
      </trkpt>
      <trkpt lat="44.95019" lon="2.56625">
        <ele>761.02</ele>
        <time>2021-08-16T05:38:17Z</time>
      </trkpt>
      <trkpt lat="44.95021" lon="2.56619">
        <ele>761.5</ele>
        <time>2021-08-16T05:38:22Z</time>
      </trkpt>
      <trkpt lat="44.95021" lon="2.56617">
        <ele>761.98</ele>
        <time>2021-08-16T05:38:23Z</time>
      </trkpt>
      <trkpt lat="44.95025" lon="2.5661">
        <ele>762.94</ele>
        <time>2021-08-16T05:38:29Z</time>
      </trkpt>
      <trkpt lat="44.95031" lon="2.56597">
        <ele>764.87</ele>
        <time>2021-08-16T05:38:39Z</time>
      </trkpt>
      <trkpt lat="44.95036" lon="2.56589">
        <ele>766.79</ele>
        <time>2021-08-16T05:38:48Z</time>
      </trkpt>
      <trkpt lat="44.95041" lon="2.56581">
        <ele>767.75</ele>
        <time>2021-08-16T05:38:56Z</time>
      </trkpt>
      <trkpt lat="44.95046" lon="2.56574">
        <ele>769.19</ele>
        <time>2021-08-16T05:39:03Z</time>
      </trkpt>
      <trkpt lat="44.95053" lon="2.56563">
        <ele>770.63</ele>
        <time>2021-08-16T05:39:12Z</time>
      </trkpt>
      <trkpt lat="44.95058" lon="2.56553">
        <ele>771.6</ele>
        <time>2021-08-16T05:39:20Z</time>
      </trkpt>
      <trkpt lat="44.95061" lon="2.56545">
        <ele>773.04</ele>
        <time>2021-08-16T05:39:29Z</time>
      </trkpt>
      <trkpt lat="44.95065" lon="2.56536">
        <ele>774.48</ele>
        <time>2021-08-16T05:39:37Z</time>
      </trkpt>
      <trkpt lat="44.95069" lon="2.56525">
        <ele>775.44</ele>
        <time>2021-08-16T05:39:45Z</time>
      </trkpt>
      <trkpt lat="44.95071" lon="2.56513">
        <ele>776.4</ele>
        <time>2021-08-16T05:39:54Z</time>
      </trkpt>
      <trkpt lat="44.95073" lon="2.56505">
        <ele>776.4</ele>
        <time>2021-08-16T05:40:02Z</time>
      </trkpt>
      <trkpt lat="44.95076" lon="2.56488">
        <ele>777.84</ele>
        <time>2021-08-16T05:40:10Z</time>
      </trkpt>
      <trkpt lat="44.95079" lon="2.56474">
        <ele>778.32</ele>
        <time>2021-08-16T05:40:16Z</time>
      </trkpt>
      <trkpt lat="44.95079" lon="2.56463">
        <ele>779.77</ele>
        <time>2021-08-16T05:40:21Z</time>
      </trkpt>
      <trkpt lat="44.95079" lon="2.5646">
        <ele>779.77</ele>
        <time>2021-08-16T05:40:22Z</time>
      </trkpt>
      <trkpt lat="44.95079" lon="2.56457">
        <ele>779.77</ele>
        <time>2021-08-16T05:40:23Z</time>
      </trkpt>
      <trkpt lat="44.95078" lon="2.56455">
        <ele>780.25</ele>
        <time>2021-08-16T05:40:24Z</time>
      </trkpt>
      <trkpt lat="44.95078" lon="2.56452">
        <ele>780.25</ele>
        <time>2021-08-16T05:40:25Z</time>
      </trkpt>
      <trkpt lat="44.95077" lon="2.5645">
        <ele>780.25</ele>
        <time>2021-08-16T05:40:26Z</time>
      </trkpt>
      <trkpt lat="44.95076" lon="2.56447">
        <ele>780.73</ele>
        <time>2021-08-16T05:40:27Z</time>
      </trkpt>
      <trkpt lat="44.95076" lon="2.56444">
        <ele>780.73</ele>
        <time>2021-08-16T05:40:28Z</time>
      </trkpt>
      <trkpt lat="44.95071" lon="2.56424">
        <ele>782.17</ele>
        <time>2021-08-16T05:40:35Z</time>
      </trkpt>
      <trkpt lat="44.95068" lon="2.56398">
        <ele>784.09</ele>
        <time>2021-08-16T05:40:45Z</time>
      </trkpt>
      <trkpt lat="44.95065" lon="2.56374">
        <ele>785.53</ele>
        <time>2021-08-16T05:40:55Z</time>
      </trkpt>
      <trkpt lat="44.95062" lon="2.5636">
        <ele>788.42</ele>
        <time>2021-08-16T05:41:00Z</time>
      </trkpt>
      <trkpt lat="44.95055" lon="2.56339">
        <ele>785.53</ele>
        <time>2021-08-16T05:41:07Z</time>
      </trkpt>
      <trkpt lat="44.95049" lon="2.56313">
        <ele>784.09</ele>
        <time>2021-08-16T05:41:13Z</time>
      </trkpt>
      <trkpt lat="44.95047" lon="2.56301">
        <ele>784.09</ele>
        <time>2021-08-16T05:41:15Z</time>
      </trkpt>
      <trkpt lat="44.9504" lon="2.56275">
        <ele>783.13</ele>
        <time>2021-08-16T05:41:19Z</time>
      </trkpt>
      <trkpt lat="44.95038" lon="2.56268">
        <ele>783.13</ele>
        <time>2021-08-16T05:41:20Z</time>
      </trkpt>
      <trkpt lat="44.95029" lon="2.56232">
        <ele>781.69</ele>
        <time>2021-08-16T05:41:27Z</time>
      </trkpt>
      <trkpt lat="44.95028" lon="2.56226">
        <ele>781.69</ele>
        <time>2021-08-16T05:41:28Z</time>
      </trkpt>
      <trkpt lat="44.95011" lon="2.56184">
        <ele>778.81</ele>
        <time>2021-08-16T05:41:34Z</time>
      </trkpt>
      <trkpt lat="44.95002" lon="2.56158">
        <ele>778.32</ele>
        <time>2021-08-16T05:41:39Z</time>
      </trkpt>
      <trkpt lat="44.95003" lon="2.56156">
        <ele>778.32</ele>
        <time>2021-08-16T05:41:40Z</time>
      </trkpt>
      <trkpt lat="44.95004" lon="2.56154">
        <ele>778.32</ele>
        <time>2021-08-16T05:41:41Z</time>
      </trkpt>
      <trkpt lat="44.95019" lon="2.56138">
        <ele>779.77</ele>
        <time>2021-08-16T05:41:50Z</time>
      </trkpt>
      <trkpt lat="44.95022" lon="2.56133">
        <ele>780.25</ele>
        <time>2021-08-16T05:41:52Z</time>
      </trkpt>
      <trkpt lat="44.95023" lon="2.56129">
        <ele>780.25</ele>
        <time>2021-08-16T05:41:53Z</time>
      </trkpt>
      <trkpt lat="44.95023" lon="2.56125">
        <ele>780.25</ele>
        <time>2021-08-16T05:41:54Z</time>
      </trkpt>
      <trkpt lat="44.95022" lon="2.56121">
        <ele>780.25</ele>
        <time>2021-08-16T05:41:55Z</time>
      </trkpt>
      <trkpt lat="44.95021" lon="2.56116">
        <ele>780.25</ele>
        <time>2021-08-16T05:41:56Z</time>
      </trkpt>
      <trkpt lat="44.9502" lon="2.5611">
        <ele>780.25</ele>
        <time>2021-08-16T05:41:57Z</time>
      </trkpt>
      <trkpt lat="44.95018" lon="2.56104">
        <ele>780.25</ele>
        <time>2021-08-16T05:41:58Z</time>
      </trkpt>
      <trkpt lat="44.95004" lon="2.56048">
        <ele>780.25</ele>
        <time>2021-08-16T05:42:07Z</time>
      </trkpt>
      <trkpt lat="44.94995" lon="2.56002">
        <ele>780.25</ele>
        <time>2021-08-16T05:42:15Z</time>
      </trkpt>
      <trkpt lat="44.94982" lon="2.55953">
        <ele>780.73</ele>
        <time>2021-08-16T05:42:25Z</time>
      </trkpt>
      <trkpt lat="44.94976" lon="2.55921">
        <ele>781.69</ele>
        <time>2021-08-16T05:42:33Z</time>
      </trkpt>
      <trkpt lat="44.94972" lon="2.55907">
        <ele>782.17</ele>
        <time>2021-08-16T05:42:37Z</time>
      </trkpt>
      <trkpt lat="44.9497" lon="2.55903">
        <ele>782.65</ele>
        <time>2021-08-16T05:42:38Z</time>
      </trkpt>
      <trkpt lat="44.94969" lon="2.559">
        <ele>782.65</ele>
        <time>2021-08-16T05:42:39Z</time>
      </trkpt>
      <trkpt lat="44.94963" lon="2.55874">
        <ele>783.61</ele>
        <time>2021-08-16T05:42:48Z</time>
      </trkpt>
      <trkpt lat="44.94956" lon="2.55848">
        <ele>785.05</ele>
        <time>2021-08-16T05:42:57Z</time>
      </trkpt>
      <trkpt lat="44.9495" lon="2.55826">
        <ele>785.05</ele>
        <time>2021-08-16T05:43:03Z</time>
      </trkpt>
      <trkpt lat="44.94942" lon="2.55802">
        <ele>786.02</ele>
        <time>2021-08-16T05:43:10Z</time>
      </trkpt>
      <trkpt lat="44.94936" lon="2.5578">
        <ele>786.98</ele>
        <time>2021-08-16T05:43:17Z</time>
      </trkpt>
      <trkpt lat="44.94928" lon="2.55755">
        <ele>787.94</ele>
        <time>2021-08-16T05:43:26Z</time>
      </trkpt>
      <trkpt lat="44.94921" lon="2.55737">
        <ele>788.9</ele>
        <time>2021-08-16T05:43:34Z</time>
      </trkpt>
      <trkpt lat="44.94914" lon="2.5572">
        <ele>790.34</ele>
        <time>2021-08-16T05:43:43Z</time>
      </trkpt>
      <trkpt lat="44.94904" lon="2.55702">
        <ele>791.78</ele>
        <time>2021-08-16T05:43:51Z</time>
      </trkpt>
      <trkpt lat="44.94903" lon="2.557">
        <ele>791.78</ele>
        <time>2021-08-16T05:43:52Z</time>
      </trkpt>
      <trkpt lat="44.94902" lon="2.55698">
        <ele>792.26</ele>
        <time>2021-08-16T05:43:53Z</time>
      </trkpt>
      <trkpt lat="44.94901" lon="2.55695">
        <ele>792.26</ele>
        <time>2021-08-16T05:43:54Z</time>
      </trkpt>
      <trkpt lat="44.949" lon="2.55693">
        <ele>792.74</ele>
        <time>2021-08-16T05:43:55Z</time>
      </trkpt>
      <trkpt lat="44.94899" lon="2.55691">
        <ele>792.74</ele>
        <time>2021-08-16T05:43:56Z</time>
      </trkpt>
      <trkpt lat="44.94899" lon="2.5569">
        <ele>792.74</ele>
        <time>2021-08-16T05:43:57Z</time>
      </trkpt>
      <trkpt lat="44.94898" lon="2.55688">
        <ele>793.22</ele>
        <time>2021-08-16T05:43:58Z</time>
      </trkpt>
      <trkpt lat="44.94897" lon="2.55687">
        <ele>793.22</ele>
        <time>2021-08-16T05:43:59Z</time>
      </trkpt>
      <trkpt lat="44.94893" lon="2.55677">
        <ele>794.19</ele>
        <time>2021-08-16T05:44:07Z</time>
      </trkpt>
      <trkpt lat="44.94888" lon="2.55667">
        <ele>795.15</ele>
        <time>2021-08-16T05:44:14Z</time>
      </trkpt>
      <trkpt lat="44.94882" lon="2.55655">
        <ele>796.11</ele>
        <time>2021-08-16T05:44:22Z</time>
      </trkpt>
      <trkpt lat="44.94881" lon="2.55653">
        <ele>796.59</ele>
        <time>2021-08-16T05:44:23Z</time>
      </trkpt>
      <trkpt lat="44.9488" lon="2.55652">
        <ele>796.59</ele>
        <time>2021-08-16T05:44:24Z</time>
      </trkpt>
      <trkpt lat="44.94872" lon="2.55644">
        <ele>798.51</ele>
        <time>2021-08-16T05:44:32Z</time>
      </trkpt>
      <trkpt lat="44.94862" lon="2.55628">
        <ele>798.99</ele>
        <time>2021-08-16T05:44:39Z</time>
      </trkpt>
      <trkpt lat="44.94852" lon="2.55615">
        <ele>799.95</ele>
        <time>2021-08-16T05:44:47Z</time>
      </trkpt>
      <trkpt lat="44.94844" lon="2.55604">
        <ele>800.92</ele>
        <time>2021-08-16T05:44:53Z</time>
      </trkpt>
      <trkpt lat="44.94837" lon="2.55592">
        <ele>801.88</ele>
        <time>2021-08-16T05:45:00Z</time>
      </trkpt>
      <trkpt lat="44.94826" lon="2.55571">
        <ele>802.84</ele>
        <time>2021-08-16T05:45:08Z</time>
      </trkpt>
      <trkpt lat="44.94819" lon="2.55557">
        <ele>804.28</ele>
        <time>2021-08-16T05:45:16Z</time>
      </trkpt>
      <trkpt lat="44.94811" lon="2.55539">
        <ele>805.72</ele>
        <time>2021-08-16T05:45:24Z</time>
      </trkpt>
      <trkpt lat="44.94805" lon="2.55525">
        <ele>806.68</ele>
        <time>2021-08-16T05:45:32Z</time>
      </trkpt>
      <trkpt lat="44.94799" lon="2.55516">
        <ele>807.16</ele>
        <time>2021-08-16T05:45:39Z</time>
      </trkpt>
      <trkpt lat="44.94789" lon="2.55501">
        <ele>808.13</ele>
        <time>2021-08-16T05:45:47Z</time>
      </trkpt>
      <trkpt lat="44.94782" lon="2.55479">
        <ele>809.09</ele>
        <time>2021-08-16T05:45:54Z</time>
      </trkpt>
      <trkpt lat="44.94775" lon="2.55461">
        <ele>810.05</ele>
        <time>2021-08-16T05:46:01Z</time>
      </trkpt>
      <trkpt lat="44.94768" lon="2.55448">
        <ele>811.01</ele>
        <time>2021-08-16T05:46:07Z</time>
      </trkpt>
      <trkpt lat="44.94767" lon="2.55443">
        <ele>811.01</ele>
        <time>2021-08-16T05:46:09Z</time>
      </trkpt>
      <trkpt lat="44.94767" lon="2.55441">
        <ele>811.97</ele>
        <time>2021-08-16T05:46:10Z</time>
      </trkpt>
      <trkpt lat="44.94766" lon="2.55439">
        <ele>811.97</ele>
        <time>2021-08-16T05:46:11Z</time>
      </trkpt>
      <trkpt lat="44.94763" lon="2.55417">
        <ele>813.41</ele>
        <time>2021-08-16T05:46:19Z</time>
      </trkpt>
      <trkpt lat="44.94758" lon="2.55401">
        <ele>813.89</ele>
        <time>2021-08-16T05:46:25Z</time>
      </trkpt>
      <trkpt lat="44.94757" lon="2.55399">
        <ele>814.37</ele>
        <time>2021-08-16T05:46:26Z</time>
      </trkpt>
      <trkpt lat="44.94757" lon="2.55397">
        <ele>814.37</ele>
        <time>2021-08-16T05:46:27Z</time>
      </trkpt>
      <trkpt lat="44.94756" lon="2.55395">
        <ele>814.85</ele>
        <time>2021-08-16T05:46:28Z</time>
      </trkpt>
      <trkpt lat="44.94755" lon="2.55393">
        <ele>814.85</ele>
        <time>2021-08-16T05:46:29Z</time>
      </trkpt>
      <trkpt lat="44.94755" lon="2.5539">
        <ele>815.34</ele>
        <time>2021-08-16T05:46:30Z</time>
      </trkpt>
      <trkpt lat="44.94754" lon="2.55389">
        <ele>815.34</ele>
        <time>2021-08-16T05:46:31Z</time>
      </trkpt>
      <trkpt lat="44.94752" lon="2.55387">
        <ele>815.34</ele>
        <time>2021-08-16T05:46:32Z</time>
      </trkpt>
      <trkpt lat="44.94746" lon="2.55381">
        <ele>816.3</ele>
        <time>2021-08-16T05:46:38Z</time>
      </trkpt>
      <trkpt lat="44.94745" lon="2.5538">
        <ele>816.3</ele>
        <time>2021-08-16T05:46:39Z</time>
      </trkpt>
      <trkpt lat="44.94744" lon="2.55379">
        <ele>816.3</ele>
        <time>2021-08-16T05:46:40Z</time>
      </trkpt>
      <trkpt lat="44.94733" lon="2.55366">
        <ele>817.26</ele>
        <time>2021-08-16T05:46:48Z</time>
      </trkpt>
      <trkpt lat="44.94725" lon="2.55346">
        <ele>818.7</ele>
        <time>2021-08-16T05:46:56Z</time>
      </trkpt>
      <trkpt lat="44.94723" lon="2.55335">
        <ele>818.7</ele>
        <time>2021-08-16T05:47:00Z</time>
      </trkpt>
      <trkpt lat="44.94723" lon="2.55332">
        <ele>819.18</ele>
        <time>2021-08-16T05:47:01Z</time>
      </trkpt>
      <trkpt lat="44.94722" lon="2.5533">
        <ele>819.18</ele>
        <time>2021-08-16T05:47:02Z</time>
      </trkpt>
      <trkpt lat="44.94722" lon="2.55327">
        <ele>819.18</ele>
        <time>2021-08-16T05:47:03Z</time>
      </trkpt>
      <trkpt lat="44.94721" lon="2.55325">
        <ele>819.18</ele>
        <time>2021-08-16T05:47:04Z</time>
      </trkpt>
      <trkpt lat="44.9472" lon="2.55323">
        <ele>819.66</ele>
        <time>2021-08-16T05:47:05Z</time>
      </trkpt>
      <trkpt lat="44.94719" lon="2.5532">
        <ele>819.66</ele>
        <time>2021-08-16T05:47:06Z</time>
      </trkpt>
      <trkpt lat="44.94718" lon="2.55318">
        <ele>819.66</ele>
        <time>2021-08-16T05:47:07Z</time>
      </trkpt>
      <trkpt lat="44.94716" lon="2.55315">
        <ele>819.66</ele>
        <time>2021-08-16T05:47:08Z</time>
      </trkpt>
      <trkpt lat="44.94705" lon="2.55297">
        <ele>820.62</ele>
        <time>2021-08-16T05:47:15Z</time>
      </trkpt>
      <trkpt lat="44.94696" lon="2.55276">
        <ele>821.1</ele>
        <time>2021-08-16T05:47:22Z</time>
      </trkpt>
      <trkpt lat="44.94691" lon="2.55258">
        <ele>822.55</ele>
        <time>2021-08-16T05:47:28Z</time>
      </trkpt>
      <trkpt lat="44.94691" lon="2.55254">
        <ele>822.55</ele>
        <time>2021-08-16T05:47:30Z</time>
      </trkpt>
      <trkpt lat="44.94689" lon="2.55251">
        <ele>823.03</ele>
        <time>2021-08-16T05:47:32Z</time>
      </trkpt>
      <trkpt lat="44.94688" lon="2.55248">
        <ele>823.03</ele>
        <time>2021-08-16T05:47:33Z</time>
      </trkpt>
      <trkpt lat="44.94686" lon="2.55245">
        <ele>823.03</ele>
        <time>2021-08-16T05:47:34Z</time>
      </trkpt>
      <trkpt lat="44.94684" lon="2.5524">
        <ele>823.51</ele>
        <time>2021-08-16T05:47:36Z</time>
      </trkpt>
      <trkpt lat="44.94681" lon="2.55234">
        <ele>823.51</ele>
        <time>2021-08-16T05:47:38Z</time>
      </trkpt>
      <trkpt lat="44.9468" lon="2.55232">
        <ele>823.51</ele>
        <time>2021-08-16T05:47:39Z</time>
      </trkpt>
      <trkpt lat="44.9467" lon="2.55213">
        <ele>824.95</ele>
        <time>2021-08-16T05:47:47Z</time>
      </trkpt>
      <trkpt lat="44.9466" lon="2.5519">
        <ele>826.39</ele>
        <time>2021-08-16T05:47:55Z</time>
      </trkpt>
      <trkpt lat="44.94653" lon="2.55172">
        <ele>827.35</ele>
        <time>2021-08-16T05:48:03Z</time>
      </trkpt>
      <trkpt lat="44.94652" lon="2.55167">
        <ele>827.83</ele>
        <time>2021-08-16T05:48:06Z</time>
      </trkpt>
      <trkpt lat="44.94651" lon="2.55164">
        <ele>827.83</ele>
        <time>2021-08-16T05:48:07Z</time>
      </trkpt>
      <trkpt lat="44.94651" lon="2.55162">
        <ele>827.83</ele>
        <time>2021-08-16T05:48:08Z</time>
      </trkpt>
      <trkpt lat="44.9465" lon="2.55159">
        <ele>827.83</ele>
        <time>2021-08-16T05:48:09Z</time>
      </trkpt>
      <trkpt lat="44.94649" lon="2.55157">
        <ele>827.83</ele>
        <time>2021-08-16T05:48:10Z</time>
      </trkpt>
      <trkpt lat="44.94649" lon="2.55155">
        <ele>827.83</ele>
        <time>2021-08-16T05:48:11Z</time>
      </trkpt>
      <trkpt lat="44.94648" lon="2.55153">
        <ele>827.83</ele>
        <time>2021-08-16T05:48:12Z</time>
      </trkpt>
      <trkpt lat="44.94648" lon="2.55151">
        <ele>828.79</ele>
        <time>2021-08-16T05:48:13Z</time>
      </trkpt>
      <trkpt lat="44.94647" lon="2.55149">
        <ele>828.79</ele>
        <time>2021-08-16T05:48:14Z</time>
      </trkpt>
      <trkpt lat="44.94646" lon="2.55148">
        <ele>828.79</ele>
        <time>2021-08-16T05:48:15Z</time>
      </trkpt>
      <trkpt lat="44.94646" lon="2.55146">
        <ele>829.27</ele>
        <time>2021-08-16T05:48:16Z</time>
      </trkpt>
      <trkpt lat="44.94645" lon="2.55144">
        <ele>829.27</ele>
        <time>2021-08-16T05:48:17Z</time>
      </trkpt>
      <trkpt lat="44.94644" lon="2.55142">
        <ele>829.27</ele>
        <time>2021-08-16T05:48:18Z</time>
      </trkpt>
      <trkpt lat="44.94644" lon="2.5514">
        <ele>829.76</ele>
        <time>2021-08-16T05:48:19Z</time>
      </trkpt>
      <trkpt lat="44.94643" lon="2.55137">
        <ele>829.76</ele>
        <time>2021-08-16T05:48:20Z</time>
      </trkpt>
      <trkpt lat="44.94642" lon="2.55135">
        <ele>829.76</ele>
        <time>2021-08-16T05:48:21Z</time>
      </trkpt>
      <trkpt lat="44.94638" lon="2.55115">
        <ele>830.72</ele>
        <time>2021-08-16T05:48:29Z</time>
      </trkpt>
      <trkpt lat="44.94635" lon="2.55098">
        <ele>831.68</ele>
        <time>2021-08-16T05:48:36Z</time>
      </trkpt>
      <trkpt lat="44.94634" lon="2.55079">
        <ele>833.12</ele>
        <time>2021-08-16T05:48:44Z</time>
      </trkpt>
      <trkpt lat="44.94633" lon="2.55075">
        <ele>833.6</ele>
        <time>2021-08-16T05:48:46Z</time>
      </trkpt>
      <trkpt lat="44.9463" lon="2.5507">
        <ele>834.08</ele>
        <time>2021-08-16T05:48:49Z</time>
      </trkpt>
      <trkpt lat="44.94628" lon="2.55069">
        <ele>834.08</ele>
        <time>2021-08-16T05:48:50Z</time>
      </trkpt>
      <trkpt lat="44.94627" lon="2.55067">
        <ele>834.08</ele>
        <time>2021-08-16T05:48:51Z</time>
      </trkpt>
      <trkpt lat="44.94621" lon="2.5505">
        <ele>835.04</ele>
        <time>2021-08-16T05:48:59Z</time>
      </trkpt>
      <trkpt lat="44.9462" lon="2.55048">
        <ele>835.04</ele>
        <time>2021-08-16T05:49:00Z</time>
      </trkpt>
      <trkpt lat="44.94615" lon="2.55036">
        <ele>836</ele>
        <time>2021-08-16T05:49:07Z</time>
      </trkpt>
      <trkpt lat="44.94612" lon="2.55029">
        <ele>836.48</ele>
        <time>2021-08-16T05:49:11Z</time>
      </trkpt>
      <trkpt lat="44.9461" lon="2.55027">
        <ele>836.96</ele>
        <time>2021-08-16T05:49:12Z</time>
      </trkpt>
      <trkpt lat="44.94609" lon="2.55026">
        <ele>836.96</ele>
        <time>2021-08-16T05:49:13Z</time>
      </trkpt>
      <trkpt lat="44.94608" lon="2.55024">
        <ele>836.96</ele>
        <time>2021-08-16T05:49:14Z</time>
      </trkpt>
      <trkpt lat="44.94607" lon="2.55023">
        <ele>837.45</ele>
        <time>2021-08-16T05:49:15Z</time>
      </trkpt>
      <trkpt lat="44.94606" lon="2.55021">
        <ele>837.45</ele>
        <time>2021-08-16T05:49:16Z</time>
      </trkpt>
      <trkpt lat="44.94605" lon="2.55019">
        <ele>837.45</ele>
        <time>2021-08-16T05:49:17Z</time>
      </trkpt>
      <trkpt lat="44.94604" lon="2.55017">
        <ele>837.93</ele>
        <time>2021-08-16T05:49:18Z</time>
      </trkpt>
      <trkpt lat="44.94603" lon="2.55015">
        <ele>837.93</ele>
        <time>2021-08-16T05:49:19Z</time>
      </trkpt>
      <trkpt lat="44.94598" lon="2.55004">
        <ele>838.89</ele>
        <time>2021-08-16T05:49:25Z</time>
      </trkpt>
      <trkpt lat="44.94592" lon="2.54988">
        <ele>839.85</ele>
        <time>2021-08-16T05:49:32Z</time>
      </trkpt>
      <trkpt lat="44.94586" lon="2.54972">
        <ele>841.77</ele>
        <time>2021-08-16T05:49:41Z</time>
      </trkpt>
      <trkpt lat="44.94578" lon="2.54959">
        <ele>842.73</ele>
        <time>2021-08-16T05:49:49Z</time>
      </trkpt>
      <trkpt lat="44.94572" lon="2.54949">
        <ele>843.69</ele>
        <time>2021-08-16T05:49:55Z</time>
      </trkpt>
      <trkpt lat="44.94566" lon="2.54938">
        <ele>844.66</ele>
        <time>2021-08-16T05:50:03Z</time>
      </trkpt>
      <trkpt lat="44.94558" lon="2.54923">
        <ele>846.1</ele>
        <time>2021-08-16T05:50:12Z</time>
      </trkpt>
      <trkpt lat="44.94548" lon="2.54905">
        <ele>848.02</ele>
        <time>2021-08-16T05:50:22Z</time>
      </trkpt>
      <trkpt lat="44.94541" lon="2.54893">
        <ele>848.98</ele>
        <time>2021-08-16T05:50:29Z</time>
      </trkpt>
      <trkpt lat="44.94534" lon="2.54883">
        <ele>849.94</ele>
        <time>2021-08-16T05:50:36Z</time>
      </trkpt>
      <trkpt lat="44.94531" lon="2.54878">
        <ele>850.42</ele>
        <time>2021-08-16T05:50:40Z</time>
      </trkpt>
      <trkpt lat="44.94524" lon="2.54872">
        <ele>851.38</ele>
        <time>2021-08-16T05:50:46Z</time>
      </trkpt>
      <trkpt lat="44.94523" lon="2.54871">
        <ele>851.87</ele>
        <time>2021-08-16T05:50:47Z</time>
      </trkpt>
      <trkpt lat="44.94522" lon="2.5487">
        <ele>851.87</ele>
        <time>2021-08-16T05:50:48Z</time>
      </trkpt>
      <trkpt lat="44.9452" lon="2.54869">
        <ele>851.87</ele>
        <time>2021-08-16T05:50:49Z</time>
      </trkpt>
      <trkpt lat="44.94519" lon="2.54868">
        <ele>851.87</ele>
        <time>2021-08-16T05:50:50Z</time>
      </trkpt>
      <trkpt lat="44.94518" lon="2.54867">
        <ele>851.87</ele>
        <time>2021-08-16T05:50:51Z</time>
      </trkpt>
      <trkpt lat="44.94516" lon="2.54866">
        <ele>852.35</ele>
        <time>2021-08-16T05:50:52Z</time>
      </trkpt>
      <trkpt lat="44.94509" lon="2.54859">
        <ele>853.31</ele>
        <time>2021-08-16T05:50:59Z</time>
      </trkpt>
      <trkpt lat="44.94497" lon="2.54853">
        <ele>854.27</ele>
        <time>2021-08-16T05:51:07Z</time>
      </trkpt>
      <trkpt lat="44.94486" lon="2.54845">
        <ele>855.23</ele>
        <time>2021-08-16T05:51:16Z</time>
      </trkpt>
      <trkpt lat="44.94485" lon="2.54844">
        <ele>855.23</ele>
        <time>2021-08-16T05:51:17Z</time>
      </trkpt>
      <trkpt lat="44.94483" lon="2.54843">
        <ele>855.23</ele>
        <time>2021-08-16T05:51:18Z</time>
      </trkpt>
      <trkpt lat="44.94482" lon="2.54842">
        <ele>855.71</ele>
        <time>2021-08-16T05:51:19Z</time>
      </trkpt>
      <trkpt lat="44.94481" lon="2.54841">
        <ele>855.71</ele>
        <time>2021-08-16T05:51:20Z</time>
      </trkpt>
      <trkpt lat="44.94469" lon="2.54833">
        <ele>857.63</ele>
        <time>2021-08-16T05:51:30Z</time>
      </trkpt>
      <trkpt lat="44.94463" lon="2.54826">
        <ele>859.08</ele>
        <time>2021-08-16T05:51:36Z</time>
      </trkpt>
      <trkpt lat="44.94455" lon="2.54818">
        <ele>860.04</ele>
        <time>2021-08-16T05:51:43Z</time>
      </trkpt>
      <trkpt lat="44.94448" lon="2.54812">
        <ele>861</ele>
        <time>2021-08-16T05:51:49Z</time>
      </trkpt>
      <trkpt lat="44.94435" lon="2.54792">
        <ele>862.44</ele>
        <time>2021-08-16T05:51:58Z</time>
      </trkpt>
      <trkpt lat="44.9443" lon="2.5478">
        <ele>862.92</ele>
        <time>2021-08-16T05:52:03Z</time>
      </trkpt>
      <trkpt lat="44.94429" lon="2.54778">
        <ele>863.4</ele>
        <time>2021-08-16T05:52:04Z</time>
      </trkpt>
      <trkpt lat="44.94429" lon="2.54775">
        <ele>863.4</ele>
        <time>2021-08-16T05:52:05Z</time>
      </trkpt>
      <trkpt lat="44.94425" lon="2.54755">
        <ele>864.36</ele>
        <time>2021-08-16T05:52:13Z</time>
      </trkpt>
      <trkpt lat="44.94425" lon="2.54753">
        <ele>864.36</ele>
        <time>2021-08-16T05:52:14Z</time>
      </trkpt>
      <trkpt lat="44.94425" lon="2.5475">
        <ele>864.36</ele>
        <time>2021-08-16T05:52:15Z</time>
      </trkpt>
      <trkpt lat="44.94425" lon="2.54729">
        <ele>865.32</ele>
        <time>2021-08-16T05:52:24Z</time>
      </trkpt>
      <trkpt lat="44.94429" lon="2.54714">
        <ele>867.25</ele>
        <time>2021-08-16T05:52:32Z</time>
      </trkpt>
      <trkpt lat="44.94428" lon="2.54707">
        <ele>867.73</ele>
        <time>2021-08-16T05:52:37Z</time>
      </trkpt>
      <trkpt lat="44.94431" lon="2.547">
        <ele>868.69</ele>
        <time>2021-08-16T05:52:43Z</time>
      </trkpt>
      <trkpt lat="44.94431" lon="2.54698">
        <ele>869.17</ele>
        <time>2021-08-16T05:52:44Z</time>
      </trkpt>
      <trkpt lat="44.94432" lon="2.54696">
        <ele>869.17</ele>
        <time>2021-08-16T05:52:45Z</time>
      </trkpt>
      <trkpt lat="44.94437" lon="2.54688">
        <ele>871.09</ele>
        <time>2021-08-16T05:52:52Z</time>
      </trkpt>
      <trkpt lat="44.94447" lon="2.54672">
        <ele>869.65</ele>
        <time>2021-08-16T05:53:00Z</time>
      </trkpt>
      <trkpt lat="44.94459" lon="2.54663">
        <ele>868.21</ele>
        <time>2021-08-16T05:53:03Z</time>
      </trkpt>
      <trkpt lat="44.94466" lon="2.54659">
        <ele>867.25</ele>
        <time>2021-08-16T05:53:05Z</time>
      </trkpt>
      <trkpt lat="44.94487" lon="2.54643">
        <ele>865.32</ele>
        <time>2021-08-16T05:53:11Z</time>
      </trkpt>
      <trkpt lat="44.9449" lon="2.5464">
        <ele>864.36</ele>
        <time>2021-08-16T05:53:12Z</time>
      </trkpt>
      <trkpt lat="44.94519" lon="2.54621">
        <ele>862.44</ele>
        <time>2021-08-16T05:53:19Z</time>
      </trkpt>
      <trkpt lat="44.94541" lon="2.54604">
        <ele>860.04</ele>
        <time>2021-08-16T05:53:25Z</time>
      </trkpt>
      <trkpt lat="44.94554" lon="2.54595">
        <ele>858.59</ele>
        <time>2021-08-16T05:53:28Z</time>
      </trkpt>
      <trkpt lat="44.94579" lon="2.54577">
        <ele>855.71</ele>
        <time>2021-08-16T05:53:33Z</time>
      </trkpt>
      <trkpt lat="44.94584" lon="2.54572">
        <ele>855.71</ele>
        <time>2021-08-16T05:53:34Z</time>
      </trkpt>
      <trkpt lat="44.94588" lon="2.54567">
        <ele>854.75</ele>
        <time>2021-08-16T05:53:35Z</time>
      </trkpt>
      <trkpt lat="44.9461" lon="2.54541">
        <ele>853.31</ele>
        <time>2021-08-16T05:53:39Z</time>
      </trkpt>
      <trkpt lat="44.94616" lon="2.54536">
        <ele>853.31</ele>
        <time>2021-08-16T05:53:40Z</time>
      </trkpt>
      <trkpt lat="44.94633" lon="2.54524">
        <ele>852.35</ele>
        <time>2021-08-16T05:53:43Z</time>
      </trkpt>
      <trkpt lat="44.94646" lon="2.54511">
        <ele>853.31</ele>
        <time>2021-08-16T05:53:47Z</time>
      </trkpt>
      <trkpt lat="44.94648" lon="2.54501">
        <ele>853.79</ele>
        <time>2021-08-16T05:53:50Z</time>
      </trkpt>
      <trkpt lat="44.94647" lon="2.54498">
        <ele>853.79</ele>
        <time>2021-08-16T05:53:51Z</time>
      </trkpt>
      <trkpt lat="44.94641" lon="2.54493">
        <ele>851.87</ele>
        <time>2021-08-16T05:53:53Z</time>
      </trkpt>
      <trkpt lat="44.94627" lon="2.54481">
        <ele>848.98</ele>
        <time>2021-08-16T05:53:57Z</time>
      </trkpt>
      <trkpt lat="44.94615" lon="2.54476">
        <ele>848.5</ele>
        <time>2021-08-16T05:54:00Z</time>
      </trkpt>
      <trkpt lat="44.94611" lon="2.54476">
        <ele>847.54</ele>
        <time>2021-08-16T05:54:01Z</time>
      </trkpt>
      <trkpt lat="44.94601" lon="2.54475">
        <ele>847.06</ele>
        <time>2021-08-16T05:54:03Z</time>
      </trkpt>
      <trkpt lat="44.94595" lon="2.54474">
        <ele>846.58</ele>
        <time>2021-08-16T05:54:04Z</time>
      </trkpt>
      <trkpt lat="44.94589" lon="2.54472">
        <ele>846.1</ele>
        <time>2021-08-16T05:54:05Z</time>
      </trkpt>
      <trkpt lat="44.94563" lon="2.54459">
        <ele>842.73</ele>
        <time>2021-08-16T05:54:09Z</time>
      </trkpt>
      <trkpt lat="44.94523" lon="2.5443">
        <ele>839.85</ele>
        <time>2021-08-16T05:54:14Z</time>
      </trkpt>
      <trkpt lat="44.94517" lon="2.54423">
        <ele>839.37</ele>
        <time>2021-08-16T05:54:15Z</time>
      </trkpt>
      <trkpt lat="44.9451" lon="2.54414">
        <ele>839.37</ele>
        <time>2021-08-16T05:54:16Z</time>
      </trkpt>
      <trkpt lat="44.94505" lon="2.54405">
        <ele>839.37</ele>
        <time>2021-08-16T05:54:17Z</time>
      </trkpt>
      <trkpt lat="44.945" lon="2.54396">
        <ele>839.85</ele>
        <time>2021-08-16T05:54:18Z</time>
      </trkpt>
      <trkpt lat="44.94473" lon="2.54352">
        <ele>839.85</ele>
        <time>2021-08-16T05:54:24Z</time>
      </trkpt>
      <trkpt lat="44.94434" lon="2.54299">
        <ele>839.85</ele>
        <time>2021-08-16T05:54:34Z</time>
      </trkpt>
      <trkpt lat="44.9442" lon="2.54285">
        <ele>841.77</ele>
        <time>2021-08-16T05:54:38Z</time>
      </trkpt>
      <trkpt lat="44.94411" lon="2.54279">
        <ele>841.77</ele>
        <time>2021-08-16T05:54:40Z</time>
      </trkpt>
      <trkpt lat="44.944" lon="2.54268">
        <ele>841.77</ele>
        <time>2021-08-16T05:54:43Z</time>
      </trkpt>
      <trkpt lat="44.94396" lon="2.54263">
        <ele>841.77</ele>
        <time>2021-08-16T05:54:44Z</time>
      </trkpt>
      <trkpt lat="44.94393" lon="2.54258">
        <ele>841.77</ele>
        <time>2021-08-16T05:54:45Z</time>
      </trkpt>
      <trkpt lat="44.9439" lon="2.54252">
        <ele>841.77</ele>
        <time>2021-08-16T05:54:46Z</time>
      </trkpt>
      <trkpt lat="44.94388" lon="2.54245">
        <ele>841.77</ele>
        <time>2021-08-16T05:54:47Z</time>
      </trkpt>
      <trkpt lat="44.94386" lon="2.5424">
        <ele>841.77</ele>
        <time>2021-08-16T05:54:48Z</time>
      </trkpt>
      <trkpt lat="44.94368" lon="2.54188">
        <ele>841.77</ele>
        <time>2021-08-16T05:54:56Z</time>
      </trkpt>
      <trkpt lat="44.94354" lon="2.54159">
        <ele>839.85</ele>
        <time>2021-08-16T05:55:00Z</time>
      </trkpt>
      <trkpt lat="44.9432" lon="2.54111">
        <ele>837.45</ele>
        <time>2021-08-16T05:55:07Z</time>
      </trkpt>
      <trkpt lat="44.94302" lon="2.54092">
        <ele>836</ele>
        <time>2021-08-16T05:55:10Z</time>
      </trkpt>
      <trkpt lat="44.94266" lon="2.54044">
        <ele>832.64</ele>
        <time>2021-08-16T05:55:16Z</time>
      </trkpt>
      <trkpt lat="44.94254" lon="2.54028">
        <ele>831.68</ele>
        <time>2021-08-16T05:55:18Z</time>
      </trkpt>
      <trkpt lat="44.94246" lon="2.54021">
        <ele>830.72</ele>
        <time>2021-08-16T05:55:19Z</time>
      </trkpt>
      <trkpt lat="44.94239" lon="2.54015">
        <ele>829.76</ele>
        <time>2021-08-16T05:55:20Z</time>
      </trkpt>
      <trkpt lat="44.9423" lon="2.54009">
        <ele>829.27</ele>
        <time>2021-08-16T05:55:21Z</time>
      </trkpt>
      <trkpt lat="44.94221" lon="2.54004">
        <ele>828.31</ele>
        <time>2021-08-16T05:55:22Z</time>
      </trkpt>
      <trkpt lat="44.94211" lon="2.54">
        <ele>827.35</ele>
        <time>2021-08-16T05:55:23Z</time>
      </trkpt>
      <trkpt lat="44.94201" lon="2.53998">
        <ele>825.91</ele>
        <time>2021-08-16T05:55:24Z</time>
      </trkpt>
      <trkpt lat="44.9419" lon="2.53996">
        <ele>824.47</ele>
        <time>2021-08-16T05:55:25Z</time>
      </trkpt>
      <trkpt lat="44.94164" lon="2.53991">
        <ele>820.14</ele>
        <time>2021-08-16T05:55:27Z</time>
      </trkpt>
      <trkpt lat="44.94127" lon="2.53982">
        <ele>815.82</ele>
        <time>2021-08-16T05:55:30Z</time>
      </trkpt>
      <trkpt lat="44.94105" lon="2.53975">
        <ele>813.89</ele>
        <time>2021-08-16T05:55:32Z</time>
      </trkpt>
      <trkpt lat="44.94095" lon="2.5397">
        <ele>812.93</ele>
        <time>2021-08-16T05:55:33Z</time>
      </trkpt>
      <trkpt lat="44.94085" lon="2.53964">
        <ele>812.45</ele>
        <time>2021-08-16T05:55:34Z</time>
      </trkpt>
      <trkpt lat="44.94076" lon="2.53956">
        <ele>811.49</ele>
        <time>2021-08-16T05:55:35Z</time>
      </trkpt>
      <trkpt lat="44.94069" lon="2.53948">
        <ele>811.01</ele>
        <time>2021-08-16T05:55:36Z</time>
      </trkpt>
      <trkpt lat="44.9406" lon="2.53938">
        <ele>809.57</ele>
        <time>2021-08-16T05:55:37Z</time>
      </trkpt>
      <trkpt lat="44.94048" lon="2.53925">
        <ele>808.13</ele>
        <time>2021-08-16T05:55:39Z</time>
      </trkpt>
      <trkpt lat="44.94046" lon="2.53923">
        <ele>808.13</ele>
        <time>2021-08-16T05:55:40Z</time>
      </trkpt>
      <trkpt lat="44.94045" lon="2.53926">
        <ele>808.13</ele>
        <time>2021-08-16T05:55:44Z</time>
      </trkpt>
      <trkpt lat="44.94047" lon="2.53927">
        <ele>807.64</ele>
        <time>2021-08-16T05:55:45Z</time>
      </trkpt>
      <trkpt lat="44.94048" lon="2.53927">
        <ele>808.13</ele>
        <time>2021-08-16T05:55:46Z</time>
      </trkpt>
      <trkpt lat="44.9405" lon="2.53929">
        <ele>808.13</ele>
        <time>2021-08-16T05:55:47Z</time>
      </trkpt>
      <trkpt lat="44.94052" lon="2.5393">
        <ele>808.13</ele>
        <time>2021-08-16T05:55:48Z</time>
      </trkpt>
      <trkpt lat="44.94068" lon="2.53933">
        <ele>808.13</ele>
        <time>2021-08-16T05:55:55Z</time>
      </trkpt>
      <trkpt lat="44.94085" lon="2.53919">
        <ele>808.13</ele>
        <time>2021-08-16T05:56:01Z</time>
      </trkpt>
      <trkpt lat="44.94104" lon="2.53902">
        <ele>808.13</ele>
        <time>2021-08-16T05:56:09Z</time>
      </trkpt>
      <trkpt lat="44.9411" lon="2.53898">
        <ele>809.57</ele>
        <time>2021-08-16T05:56:13Z</time>
      </trkpt>
      <trkpt lat="44.94114" lon="2.53897">
        <ele>810.05</ele>
        <time>2021-08-16T05:56:16Z</time>
      </trkpt>
      <trkpt lat="44.94115" lon="2.53896">
        <ele>810.53</ele>
        <time>2021-08-16T05:56:17Z</time>
      </trkpt>
      <trkpt lat="44.94117" lon="2.53896">
        <ele>810.53</ele>
        <time>2021-08-16T05:56:18Z</time>
      </trkpt>
      <trkpt lat="44.94118" lon="2.53896">
        <ele>810.53</ele>
        <time>2021-08-16T05:56:19Z</time>
      </trkpt>
      <trkpt lat="44.9412" lon="2.53896">
        <ele>811.01</ele>
        <time>2021-08-16T05:56:20Z</time>
      </trkpt>
      <trkpt lat="44.94123" lon="2.53895">
        <ele>811.97</ele>
        <time>2021-08-16T05:56:23Z</time>
      </trkpt>
      <trkpt lat="44.94124" lon="2.53895">
        <ele>811.97</ele>
        <time>2021-08-16T05:56:24Z</time>
      </trkpt>
      <trkpt lat="44.94125" lon="2.53895">
        <ele>812.45</ele>
        <time>2021-08-16T05:56:25Z</time>
      </trkpt>
      <trkpt lat="44.94127" lon="2.53894">
        <ele>812.45</ele>
        <time>2021-08-16T05:56:26Z</time>
      </trkpt>
      <trkpt lat="44.94128" lon="2.53894">
        <ele>812.93</ele>
        <time>2021-08-16T05:56:27Z</time>
      </trkpt>
      <trkpt lat="44.94129" lon="2.53894">
        <ele>812.93</ele>
        <time>2021-08-16T05:56:28Z</time>
      </trkpt>
      <trkpt lat="44.94139" lon="2.53894">
        <ele>813.89</ele>
        <time>2021-08-16T05:56:36Z</time>
      </trkpt>
      <trkpt lat="44.9414" lon="2.53894">
        <ele>814.37</ele>
        <time>2021-08-16T05:56:37Z</time>
      </trkpt>
      <trkpt lat="44.94141" lon="2.53894">
        <ele>814.37</ele>
        <time>2021-08-16T05:56:38Z</time>
      </trkpt>
      <trkpt lat="44.94152" lon="2.53892">
        <ele>815.82</ele>
        <time>2021-08-16T05:56:47Z</time>
      </trkpt>
      <trkpt lat="44.9416" lon="2.5389">
        <ele>817.26</ele>
        <time>2021-08-16T05:56:54Z</time>
      </trkpt>
      <trkpt lat="44.94169" lon="2.53887">
        <ele>818.7</ele>
        <time>2021-08-16T05:57:04Z</time>
      </trkpt>
      <trkpt lat="44.94176" lon="2.53884">
        <ele>820.14</ele>
        <time>2021-08-16T05:57:13Z</time>
      </trkpt>
      <trkpt lat="44.94184" lon="2.5388">
        <ele>823.03</ele>
        <time>2021-08-16T05:57:23Z</time>
      </trkpt>
      <trkpt lat="44.94192" lon="2.53875">
        <ele>824.95</ele>
        <time>2021-08-16T05:57:33Z</time>
      </trkpt>
      <trkpt lat="44.94196" lon="2.53872">
        <ele>825.91</ele>
        <time>2021-08-16T05:57:39Z</time>
      </trkpt>
      <trkpt lat="44.94198" lon="2.53868">
        <ele>826.39</ele>
        <time>2021-08-16T05:57:44Z</time>
      </trkpt>
      <trkpt lat="44.942" lon="2.53859">
        <ele>827.83</ele>
        <time>2021-08-16T05:57:52Z</time>
      </trkpt>
      <trkpt lat="44.94197" lon="2.53849">
        <ele>829.76</ele>
        <time>2021-08-16T05:58:01Z</time>
      </trkpt>
      <trkpt lat="44.94191" lon="2.53842">
        <ele>831.2</ele>
        <time>2021-08-16T05:58:11Z</time>
      </trkpt>
      <trkpt lat="44.9419" lon="2.53839">
        <ele>831.68</ele>
        <time>2021-08-16T05:58:20Z</time>
      </trkpt>
      <trkpt lat="44.94191" lon="2.5384">
        <ele>831.68</ele>
        <time>2021-08-16T05:58:35Z</time>
      </trkpt>
      <trkpt lat="44.94189" lon="2.53838">
        <ele>832.16</ele>
        <time>2021-08-16T05:58:44Z</time>
      </trkpt>
      <trkpt lat="44.94187" lon="2.53838">
        <ele>832.16</ele>
        <time>2021-08-16T05:58:48Z</time>
      </trkpt>
      <trkpt lat="44.94186" lon="2.53838">
        <ele>832.16</ele>
        <time>2021-08-16T05:58:49Z</time>
      </trkpt>
      <trkpt lat="44.94185" lon="2.53839">
        <ele>832.16</ele>
        <time>2021-08-16T05:58:50Z</time>
      </trkpt>
      <trkpt lat="44.94183" lon="2.5384">
        <ele>832.16</ele>
        <time>2021-08-16T05:58:51Z</time>
      </trkpt>
      <trkpt lat="44.94182" lon="2.5384">
        <ele>832.16</ele>
        <time>2021-08-16T05:58:52Z</time>
      </trkpt>
      <trkpt lat="44.94181" lon="2.5384">
        <ele>832.16</ele>
        <time>2021-08-16T05:58:53Z</time>
      </trkpt>
      <trkpt lat="44.9418" lon="2.5384">
        <ele>832.16</ele>
        <time>2021-08-16T05:58:54Z</time>
      </trkpt>
      <trkpt lat="44.94171" lon="2.53835">
        <ele>832.16</ele>
        <time>2021-08-16T05:59:01Z</time>
      </trkpt>
      <trkpt lat="44.94162" lon="2.53821">
        <ele>830.72</ele>
        <time>2021-08-16T05:59:05Z</time>
      </trkpt>
      <trkpt lat="44.9416" lon="2.53816">
        <ele>830.24</ele>
        <time>2021-08-16T05:59:06Z</time>
      </trkpt>
      <trkpt lat="44.94144" lon="2.5376">
        <ele>828.31</ele>
        <time>2021-08-16T05:59:14Z</time>
      </trkpt>
      <trkpt lat="44.94128" lon="2.53723">
        <ele>825.91</ele>
        <time>2021-08-16T05:59:19Z</time>
      </trkpt>
      <trkpt lat="44.94125" lon="2.53716">
        <ele>825.91</ele>
        <time>2021-08-16T05:59:20Z</time>
      </trkpt>
      <trkpt lat="44.94121" lon="2.53712">
        <ele>824.95</ele>
        <time>2021-08-16T05:59:21Z</time>
      </trkpt>
      <trkpt lat="44.9411" lon="2.53702">
        <ele>823.99</ele>
        <time>2021-08-16T05:59:26Z</time>
      </trkpt>
      <trkpt lat="44.94105" lon="2.537">
        <ele>823.51</ele>
        <time>2021-08-16T05:59:29Z</time>
      </trkpt>
      <trkpt lat="44.94104" lon="2.53699">
        <ele>823.51</ele>
        <time>2021-08-16T05:59:30Z</time>
      </trkpt>
      <trkpt lat="44.9409" lon="2.53681">
        <ele>822.06</ele>
        <time>2021-08-16T05:59:36Z</time>
      </trkpt>
      <trkpt lat="44.94073" lon="2.53659">
        <ele>820.14</ele>
        <time>2021-08-16T05:59:42Z</time>
      </trkpt>
      <trkpt lat="44.94062" lon="2.53648">
        <ele>819.18</ele>
        <time>2021-08-16T05:59:45Z</time>
      </trkpt>
      <trkpt lat="44.94059" lon="2.53644">
        <ele>819.18</ele>
        <time>2021-08-16T05:59:46Z</time>
      </trkpt>
      <trkpt lat="44.94034" lon="2.53626">
        <ele>816.3</ele>
        <time>2021-08-16T05:59:52Z</time>
      </trkpt>
      <trkpt lat="44.94027" lon="2.53618">
        <ele>815.34</ele>
        <time>2021-08-16T05:59:54Z</time>
      </trkpt>
      <trkpt lat="44.94003" lon="2.53599">
        <ele>814.85</ele>
        <time>2021-08-16T05:59:59Z</time>
      </trkpt>
      <trkpt lat="44.93989" lon="2.53592">
        <ele>813.89</ele>
        <time>2021-08-16T06:00:02Z</time>
      </trkpt>
      <trkpt lat="44.93973" lon="2.53585">
        <ele>812.93</ele>
        <time>2021-08-16T06:00:05Z</time>
      </trkpt>
      <trkpt lat="44.93937" lon="2.53568">
        <ele>811.01</ele>
        <time>2021-08-16T06:00:12Z</time>
      </trkpt>
      <trkpt lat="44.93932" lon="2.53564">
        <ele>810.53</ele>
        <time>2021-08-16T06:00:13Z</time>
      </trkpt>
      <trkpt lat="44.93928" lon="2.5356">
        <ele>810.53</ele>
        <time>2021-08-16T06:00:14Z</time>
      </trkpt>
      <trkpt lat="44.93917" lon="2.53548">
        <ele>810.05</ele>
        <time>2021-08-16T06:00:17Z</time>
      </trkpt>
      <trkpt lat="44.93902" lon="2.53523">
        <ele>809.57</ele>
        <time>2021-08-16T06:00:23Z</time>
      </trkpt>
      <trkpt lat="44.93885" lon="2.53484">
        <ele>809.57</ele>
        <time>2021-08-16T06:00:31Z</time>
      </trkpt>
      <trkpt lat="44.93874" lon="2.53459">
        <ele>808.61</ele>
        <time>2021-08-16T06:00:36Z</time>
      </trkpt>
      <trkpt lat="44.93872" lon="2.53453">
        <ele>808.61</ele>
        <time>2021-08-16T06:00:37Z</time>
      </trkpt>
      <trkpt lat="44.9387" lon="2.53446">
        <ele>808.13</ele>
        <time>2021-08-16T06:00:38Z</time>
      </trkpt>
      <trkpt lat="44.93861" lon="2.534">
        <ele>804.76</ele>
        <time>2021-08-16T06:00:45Z</time>
      </trkpt>
      <trkpt lat="44.9386" lon="2.53386">
        <ele>804.28</ele>
        <time>2021-08-16T06:00:47Z</time>
      </trkpt>
      <trkpt lat="44.93854" lon="2.53368">
        <ele>801.4</ele>
        <time>2021-08-16T06:00:51Z</time>
      </trkpt>
      <trkpt lat="44.93846" lon="2.53355">
        <ele>798.03</ele>
        <time>2021-08-16T06:00:56Z</time>
      </trkpt>
      <trkpt lat="44.93845" lon="2.53354">
        <ele>798.03</ele>
        <time>2021-08-16T06:00:57Z</time>
      </trkpt>
      <trkpt lat="44.93839" lon="2.53346">
        <ele>796.11</ele>
        <time>2021-08-16T06:01:04Z</time>
      </trkpt>
      <trkpt lat="44.93837" lon="2.53342">
        <ele>795.15</ele>
        <time>2021-08-16T06:01:06Z</time>
      </trkpt>
      <trkpt lat="44.93836" lon="2.53338">
        <ele>794.67</ele>
        <time>2021-08-16T06:01:08Z</time>
      </trkpt>
      <trkpt lat="44.93833" lon="2.53335">
        <ele>794.67</ele>
        <time>2021-08-16T06:01:13Z</time>
      </trkpt>
      <trkpt lat="44.93832" lon="2.53335">
        <ele>794.67</ele>
        <time>2021-08-16T06:01:14Z</time>
      </trkpt>
      <trkpt lat="44.93831" lon="2.53336">
        <ele>794.19</ele>
        <time>2021-08-16T06:01:15Z</time>
      </trkpt>
      <trkpt lat="44.93829" lon="2.53337">
        <ele>793.71</ele>
        <time>2021-08-16T06:01:16Z</time>
      </trkpt>
      <trkpt lat="44.93828" lon="2.53338">
        <ele>793.71</ele>
        <time>2021-08-16T06:01:17Z</time>
      </trkpt>
      <trkpt lat="44.93828" lon="2.53341">
        <ele>792.74</ele>
        <time>2021-08-16T06:01:18Z</time>
      </trkpt>
      <trkpt lat="44.93827" lon="2.53342">
        <ele>792.26</ele>
        <time>2021-08-16T06:01:19Z</time>
      </trkpt>
      <trkpt lat="44.93827" lon="2.53345">
        <ele>792.26</ele>
        <time>2021-08-16T06:01:20Z</time>
      </trkpt>
      <trkpt lat="44.93826" lon="2.53347">
        <ele>791.78</ele>
        <time>2021-08-16T06:01:22Z</time>
      </trkpt>
      <trkpt lat="44.93824" lon="2.53349">
        <ele>790.82</ele>
        <time>2021-08-16T06:01:23Z</time>
      </trkpt>
      <trkpt lat="44.93823" lon="2.53349">
        <ele>790.34</ele>
        <time>2021-08-16T06:01:24Z</time>
      </trkpt>
      <trkpt lat="44.93821" lon="2.5335">
        <ele>790.34</ele>
        <time>2021-08-16T06:01:25Z</time>
      </trkpt>
      <trkpt lat="44.93819" lon="2.5335">
        <ele>789.86</ele>
        <time>2021-08-16T06:01:26Z</time>
      </trkpt>
      <trkpt lat="44.93818" lon="2.53349">
        <ele>789.86</ele>
        <time>2021-08-16T06:01:27Z</time>
      </trkpt>
      <trkpt lat="44.93817" lon="2.53348">
        <ele>789.38</ele>
        <time>2021-08-16T06:01:28Z</time>
      </trkpt>
      <trkpt lat="44.93815" lon="2.53347">
        <ele>789.38</ele>
        <time>2021-08-16T06:01:29Z</time>
      </trkpt>
      <trkpt lat="44.93814" lon="2.53348">
        <ele>788.42</ele>
        <time>2021-08-16T06:01:30Z</time>
      </trkpt>
      <trkpt lat="44.93812" lon="2.53348">
        <ele>787.94</ele>
        <time>2021-08-16T06:01:31Z</time>
      </trkpt>
      <trkpt lat="44.9381" lon="2.53348">
        <ele>787.46</ele>
        <time>2021-08-16T06:01:32Z</time>
      </trkpt>
      <trkpt lat="44.93808" lon="2.53349">
        <ele>787.46</ele>
        <time>2021-08-16T06:01:33Z</time>
      </trkpt>
      <trkpt lat="44.93806" lon="2.53351">
        <ele>786.5</ele>
        <time>2021-08-16T06:01:34Z</time>
      </trkpt>
      <trkpt lat="44.93805" lon="2.53353">
        <ele>786.02</ele>
        <time>2021-08-16T06:01:35Z</time>
      </trkpt>
      <trkpt lat="44.93803" lon="2.53355">
        <ele>785.53</ele>
        <time>2021-08-16T06:01:36Z</time>
      </trkpt>
      <trkpt lat="44.938" lon="2.53357">
        <ele>785.53</ele>
        <time>2021-08-16T06:01:37Z</time>
      </trkpt>
      <trkpt lat="44.93798" lon="2.53358">
        <ele>785.05</ele>
        <time>2021-08-16T06:01:38Z</time>
      </trkpt>
      <trkpt lat="44.93795" lon="2.5336">
        <ele>785.05</ele>
        <time>2021-08-16T06:01:39Z</time>
      </trkpt>
      <trkpt lat="44.93786" lon="2.53364">
        <ele>784.09</ele>
        <time>2021-08-16T06:01:44Z</time>
      </trkpt>
      <trkpt lat="44.93777" lon="2.53363">
        <ele>784.09</ele>
        <time>2021-08-16T06:01:52Z</time>
      </trkpt>
      <trkpt lat="44.93771" lon="2.53364">
        <ele>784.09</ele>
        <time>2021-08-16T06:01:59Z</time>
      </trkpt>
      <trkpt lat="44.93769" lon="2.53363">
        <ele>784.09</ele>
        <time>2021-08-16T06:02:00Z</time>
      </trkpt>
      <trkpt lat="44.93768" lon="2.53362">
        <ele>784.09</ele>
        <time>2021-08-16T06:02:01Z</time>
      </trkpt>
      <trkpt lat="44.93767" lon="2.53361">
        <ele>784.09</ele>
        <time>2021-08-16T06:02:02Z</time>
      </trkpt>
      <trkpt lat="44.93767" lon="2.53359">
        <ele>784.09</ele>
        <time>2021-08-16T06:02:03Z</time>
      </trkpt>
      <trkpt lat="44.93766" lon="2.53357">
        <ele>784.09</ele>
        <time>2021-08-16T06:02:04Z</time>
      </trkpt>
      <trkpt lat="44.93765" lon="2.53355">
        <ele>784.09</ele>
        <time>2021-08-16T06:02:05Z</time>
      </trkpt>
      <trkpt lat="44.93765" lon="2.53352">
        <ele>784.09</ele>
        <time>2021-08-16T06:02:06Z</time>
      </trkpt>
      <trkpt lat="44.93766" lon="2.53333">
        <ele>783.13</ele>
        <time>2021-08-16T06:02:11Z</time>
      </trkpt>
      <trkpt lat="44.93766" lon="2.53331">
        <ele>783.13</ele>
        <time>2021-08-16T06:02:12Z</time>
      </trkpt>
      <trkpt lat="44.93767" lon="2.53325">
        <ele>783.13</ele>
        <time>2021-08-16T06:02:17Z</time>
      </trkpt>
      <trkpt lat="44.93767" lon="2.53321">
        <ele>783.13</ele>
        <time>2021-08-16T06:02:23Z</time>
      </trkpt>
      <trkpt lat="44.93766" lon="2.53313">
        <ele>782.17</ele>
        <time>2021-08-16T06:02:30Z</time>
      </trkpt>
      <trkpt lat="44.93762" lon="2.53306">
        <ele>781.69</ele>
        <time>2021-08-16T06:02:35Z</time>
      </trkpt>
      <trkpt lat="44.93761" lon="2.53299">
        <ele>781.69</ele>
        <time>2021-08-16T06:02:41Z</time>
      </trkpt>
      <trkpt lat="44.93761" lon="2.53295">
        <ele>781.69</ele>
        <time>2021-08-16T06:02:45Z</time>
      </trkpt>
      <trkpt lat="44.9376" lon="2.53284">
        <ele>781.69</ele>
        <time>2021-08-16T06:02:49Z</time>
      </trkpt>
      <trkpt lat="44.93759" lon="2.53281">
        <ele>781.69</ele>
        <time>2021-08-16T06:02:50Z</time>
      </trkpt>
      <trkpt lat="44.93758" lon="2.53278">
        <ele>781.69</ele>
        <time>2021-08-16T06:02:51Z</time>
      </trkpt>
      <trkpt lat="44.93757" lon="2.53275">
        <ele>781.69</ele>
        <time>2021-08-16T06:02:52Z</time>
      </trkpt>
      <trkpt lat="44.93756" lon="2.53273">
        <ele>781.69</ele>
        <time>2021-08-16T06:02:53Z</time>
      </trkpt>
      <trkpt lat="44.93756" lon="2.53269">
        <ele>781.21</ele>
        <time>2021-08-16T06:02:54Z</time>
      </trkpt>
      <trkpt lat="44.93755" lon="2.53267">
        <ele>781.21</ele>
        <time>2021-08-16T06:02:55Z</time>
      </trkpt>
      <trkpt lat="44.93754" lon="2.53264">
        <ele>781.21</ele>
        <time>2021-08-16T06:02:56Z</time>
      </trkpt>
      <trkpt lat="44.9375" lon="2.53257">
        <ele>781.21</ele>
        <time>2021-08-16T06:03:01Z</time>
      </trkpt>
      <trkpt lat="44.93748" lon="2.53256">
        <ele>781.21</ele>
        <time>2021-08-16T06:03:02Z</time>
      </trkpt>
      <trkpt lat="44.93746" lon="2.53255">
        <ele>781.21</ele>
        <time>2021-08-16T06:03:03Z</time>
      </trkpt>
      <trkpt lat="44.93745" lon="2.53253">
        <ele>781.21</ele>
        <time>2021-08-16T06:03:04Z</time>
      </trkpt>
      <trkpt lat="44.93743" lon="2.5325">
        <ele>781.21</ele>
        <time>2021-08-16T06:03:05Z</time>
      </trkpt>
      <trkpt lat="44.93734" lon="2.53231">
        <ele>780.73</ele>
        <time>2021-08-16T06:03:11Z</time>
      </trkpt>
      <trkpt lat="44.93728" lon="2.53204">
        <ele>779.77</ele>
        <time>2021-08-16T06:03:19Z</time>
      </trkpt>
      <trkpt lat="44.93722" lon="2.5318">
        <ele>780.25</ele>
        <time>2021-08-16T06:03:26Z</time>
      </trkpt>
      <trkpt lat="44.9372" lon="2.53158">
        <ele>780.25</ele>
        <time>2021-08-16T06:03:33Z</time>
      </trkpt>
      <trkpt lat="44.93719" lon="2.53153">
        <ele>781.21</ele>
        <time>2021-08-16T06:03:35Z</time>
      </trkpt>
      <trkpt lat="44.93718" lon="2.53135">
        <ele>782.65</ele>
        <time>2021-08-16T06:03:43Z</time>
      </trkpt>
      <trkpt lat="44.93715" lon="2.53113">
        <ele>783.61</ele>
        <time>2021-08-16T06:03:50Z</time>
      </trkpt>
      <trkpt lat="44.93707" lon="2.53089">
        <ele>783.61</ele>
        <time>2021-08-16T06:03:56Z</time>
      </trkpt>
      <trkpt lat="44.93703" lon="2.53051">
        <ele>783.61</ele>
        <time>2021-08-16T06:04:03Z</time>
      </trkpt>
      <trkpt lat="44.93704" lon="2.5303">
        <ele>784.09</ele>
        <time>2021-08-16T06:04:09Z</time>
      </trkpt>
      <trkpt lat="44.93707" lon="2.53018">
        <ele>784.57</ele>
        <time>2021-08-16T06:04:15Z</time>
      </trkpt>
      <trkpt lat="44.93708" lon="2.53005">
        <ele>786.5</ele>
        <time>2021-08-16T06:04:23Z</time>
      </trkpt>
      <trkpt lat="44.93709" lon="2.52998">
        <ele>786.5</ele>
        <time>2021-08-16T06:04:30Z</time>
      </trkpt>
      <trkpt lat="44.93709" lon="2.52997">
        <ele>786.5</ele>
        <time>2021-08-16T06:04:32Z</time>
      </trkpt>
      <trkpt lat="44.93712" lon="2.52991">
        <ele>786.98</ele>
        <time>2021-08-16T06:04:36Z</time>
      </trkpt>
      <trkpt lat="44.93713" lon="2.52989">
        <ele>786.98</ele>
        <time>2021-08-16T06:04:37Z</time>
      </trkpt>
      <trkpt lat="44.93714" lon="2.52988">
        <ele>786.98</ele>
        <time>2021-08-16T06:04:38Z</time>
      </trkpt>
      <trkpt lat="44.93718" lon="2.52974">
        <ele>788.42</ele>
        <time>2021-08-16T06:04:46Z</time>
      </trkpt>
      <trkpt lat="44.93724" lon="2.5296">
        <ele>791.3</ele>
        <time>2021-08-16T06:04:55Z</time>
      </trkpt>
      <trkpt lat="44.93728" lon="2.52947">
        <ele>793.22</ele>
        <time>2021-08-16T06:05:03Z</time>
      </trkpt>
      <trkpt lat="44.93731" lon="2.52936">
        <ele>794.19</ele>
        <time>2021-08-16T06:05:11Z</time>
      </trkpt>
      <trkpt lat="44.93735" lon="2.52925">
        <ele>795.15</ele>
        <time>2021-08-16T06:05:19Z</time>
      </trkpt>
      <trkpt lat="44.93738" lon="2.52918">
        <ele>796.11</ele>
        <time>2021-08-16T06:05:25Z</time>
      </trkpt>
      <trkpt lat="44.93741" lon="2.52909">
        <ele>797.07</ele>
        <time>2021-08-16T06:05:32Z</time>
      </trkpt>
      <trkpt lat="44.93743" lon="2.52903">
        <ele>797.55</ele>
        <time>2021-08-16T06:05:39Z</time>
      </trkpt>
      <trkpt lat="44.93745" lon="2.52897">
        <ele>798.03</ele>
        <time>2021-08-16T06:05:42Z</time>
      </trkpt>
      <trkpt lat="44.93752" lon="2.52882">
        <ele>799.47</ele>
        <time>2021-08-16T06:05:50Z</time>
      </trkpt>
      <trkpt lat="44.93753" lon="2.52881">
        <ele>799.47</ele>
        <time>2021-08-16T06:05:51Z</time>
      </trkpt>
      <trkpt lat="44.93758" lon="2.52877">
        <ele>800.44</ele>
        <time>2021-08-16T06:05:56Z</time>
      </trkpt>
      <trkpt lat="44.93762" lon="2.52874">
        <ele>801.4</ele>
        <time>2021-08-16T06:06:03Z</time>
      </trkpt>
      <trkpt lat="44.93772" lon="2.52867">
        <ele>803.8</ele>
        <time>2021-08-16T06:06:15Z</time>
      </trkpt>
      <trkpt lat="44.93779" lon="2.5286">
        <ele>805.24</ele>
        <time>2021-08-16T06:06:24Z</time>
      </trkpt>
      <trkpt lat="44.93785" lon="2.52854">
        <ele>806.68</ele>
        <time>2021-08-16T06:06:32Z</time>
      </trkpt>
      <trkpt lat="44.93788" lon="2.52852">
        <ele>806.68</ele>
        <time>2021-08-16T06:06:39Z</time>
      </trkpt>
      <trkpt lat="44.93801" lon="2.52844">
        <ele>807.64</ele>
        <time>2021-08-16T06:06:46Z</time>
      </trkpt>
      <trkpt lat="44.93816" lon="2.52832">
        <ele>809.57</ele>
        <time>2021-08-16T06:06:55Z</time>
      </trkpt>
      <trkpt lat="44.93827" lon="2.52825">
        <ele>810.53</ele>
        <time>2021-08-16T06:07:03Z</time>
      </trkpt>
      <trkpt lat="44.93839" lon="2.52817">
        <ele>812.93</ele>
        <time>2021-08-16T06:07:12Z</time>
      </trkpt>
      <trkpt lat="44.93844" lon="2.52815">
        <ele>812.93</ele>
        <time>2021-08-16T06:07:15Z</time>
      </trkpt>
      <trkpt lat="44.93846" lon="2.52814">
        <ele>812.93</ele>
        <time>2021-08-16T06:07:16Z</time>
      </trkpt>
      <trkpt lat="44.9386" lon="2.52807">
        <ele>814.37</ele>
        <time>2021-08-16T06:07:23Z</time>
      </trkpt>
      <trkpt lat="44.93876" lon="2.52796">
        <ele>814.85</ele>
        <time>2021-08-16T06:07:31Z</time>
      </trkpt>
      <trkpt lat="44.9389" lon="2.52788">
        <ele>815.34</ele>
        <time>2021-08-16T06:07:37Z</time>
      </trkpt>
      <trkpt lat="44.93901" lon="2.52783">
        <ele>815.82</ele>
        <time>2021-08-16T06:07:42Z</time>
      </trkpt>
      <trkpt lat="44.93922" lon="2.52774">
        <ele>816.3</ele>
        <time>2021-08-16T06:07:50Z</time>
      </trkpt>
      <trkpt lat="44.93942" lon="2.52776">
        <ele>816.78</ele>
        <time>2021-08-16T06:07:57Z</time>
      </trkpt>
      <trkpt lat="44.93966" lon="2.52783">
        <ele>817.26</ele>
        <time>2021-08-16T06:08:05Z</time>
      </trkpt>
      <trkpt lat="44.93986" lon="2.52794">
        <ele>817.26</ele>
        <time>2021-08-16T06:08:12Z</time>
      </trkpt>
      <trkpt lat="44.94001" lon="2.52793">
        <ele>818.22</ele>
        <time>2021-08-16T06:08:19Z</time>
      </trkpt>
      <trkpt lat="44.94005" lon="2.52791">
        <ele>818.22</ele>
        <time>2021-08-16T06:08:27Z</time>
      </trkpt>
      <trkpt lat="44.94006" lon="2.52789">
        <ele>818.22</ele>
        <time>2021-08-16T06:08:28Z</time>
      </trkpt>
      <trkpt lat="44.94008" lon="2.52781">
        <ele>818.22</ele>
        <time>2021-08-16T06:08:32Z</time>
      </trkpt>
      <trkpt lat="44.94007" lon="2.52763">
        <ele>818.7</ele>
        <time>2021-08-16T06:08:38Z</time>
      </trkpt>
      <trkpt lat="44.94004" lon="2.52738">
        <ele>820.14</ele>
        <time>2021-08-16T06:08:46Z</time>
      </trkpt>
      <trkpt lat="44.94004" lon="2.5273">
        <ele>820.14</ele>
        <time>2021-08-16T06:08:49Z</time>
      </trkpt>
      <trkpt lat="44.94003" lon="2.52728">
        <ele>820.14</ele>
        <time>2021-08-16T06:08:50Z</time>
      </trkpt>
      <trkpt lat="44.94003" lon="2.52725">
        <ele>820.62</ele>
        <time>2021-08-16T06:08:51Z</time>
      </trkpt>
      <trkpt lat="44.94002" lon="2.52707">
        <ele>822.55</ele>
        <time>2021-08-16T06:09:00Z</time>
      </trkpt>
      <trkpt lat="44.94002" lon="2.52688">
        <ele>823.51</ele>
        <time>2021-08-16T06:09:08Z</time>
      </trkpt>
      <trkpt lat="44.94003" lon="2.52683">
        <ele>823.99</ele>
        <time>2021-08-16T06:09:10Z</time>
      </trkpt>
      <trkpt lat="44.94002" lon="2.52681">
        <ele>824.47</ele>
        <time>2021-08-16T06:09:11Z</time>
      </trkpt>
      <trkpt lat="44.94002" lon="2.52679">
        <ele>824.47</ele>
        <time>2021-08-16T06:09:12Z</time>
      </trkpt>
      <trkpt lat="44.94002" lon="2.52676">
        <ele>824.47</ele>
        <time>2021-08-16T06:09:13Z</time>
      </trkpt>
      <trkpt lat="44.94002" lon="2.52674">
        <ele>824.95</ele>
        <time>2021-08-16T06:09:14Z</time>
      </trkpt>
      <trkpt lat="44.94003" lon="2.52672">
        <ele>824.95</ele>
        <time>2021-08-16T06:09:15Z</time>
      </trkpt>
      <trkpt lat="44.94003" lon="2.5267">
        <ele>825.43</ele>
        <time>2021-08-16T06:09:16Z</time>
      </trkpt>
      <trkpt lat="44.94004" lon="2.52668">
        <ele>825.43</ele>
        <time>2021-08-16T06:09:17Z</time>
      </trkpt>
      <trkpt lat="44.94006" lon="2.52669">
        <ele>825.43</ele>
        <time>2021-08-16T06:09:18Z</time>
      </trkpt>
      <trkpt lat="44.94006" lon="2.5267">
        <ele>825.43</ele>
        <time>2021-08-16T06:09:19Z</time>
      </trkpt>
      <trkpt lat="44.94007" lon="2.52672">
        <ele>825.43</ele>
        <time>2021-08-16T06:09:20Z</time>
      </trkpt>
      <trkpt lat="44.94007" lon="2.52674">
        <ele>825.43</ele>
        <time>2021-08-16T06:09:21Z</time>
      </trkpt>
      <trkpt lat="44.94009" lon="2.52685">
        <ele>825.43</ele>
        <time>2021-08-16T06:09:26Z</time>
      </trkpt>
      <trkpt lat="44.9401" lon="2.52678">
        <ele>825.91</ele>
        <time>2021-08-16T06:09:29Z</time>
      </trkpt>
      <trkpt lat="44.94009" lon="2.52675">
        <ele>825.91</ele>
        <time>2021-08-16T06:09:30Z</time>
      </trkpt>
      <trkpt lat="44.94008" lon="2.52641">
        <ele>825.43</ele>
        <time>2021-08-16T06:09:38Z</time>
      </trkpt>
      <trkpt lat="44.94005" lon="2.52625">
        <ele>825.43</ele>
        <time>2021-08-16T06:09:41Z</time>
      </trkpt>
      <trkpt lat="44.94003" lon="2.52619">
        <ele>825.43</ele>
        <time>2021-08-16T06:09:42Z</time>
      </trkpt>
      <trkpt lat="44.94" lon="2.52614">
        <ele>824.47</ele>
        <time>2021-08-16T06:09:43Z</time>
      </trkpt>
      <trkpt lat="44.93996" lon="2.5261">
        <ele>824.47</ele>
        <time>2021-08-16T06:09:44Z</time>
      </trkpt>
      <trkpt lat="44.93991" lon="2.52604">
        <ele>823.51</ele>
        <time>2021-08-16T06:09:45Z</time>
      </trkpt>
      <trkpt lat="44.93988" lon="2.52602">
        <ele>823.51</ele>
        <time>2021-08-16T06:09:46Z</time>
      </trkpt>
      <trkpt lat="44.93981" lon="2.52596">
        <ele>823.03</ele>
        <time>2021-08-16T06:09:48Z</time>
      </trkpt>
      <trkpt lat="44.93954" lon="2.52571">
        <ele>821.58</ele>
        <time>2021-08-16T06:09:53Z</time>
      </trkpt>
      <trkpt lat="44.9395" lon="2.52563">
        <ele>821.1</ele>
        <time>2021-08-16T06:09:54Z</time>
      </trkpt>
      <trkpt lat="44.93948" lon="2.52555">
        <ele>821.1</ele>
        <time>2021-08-16T06:09:55Z</time>
      </trkpt>
      <trkpt lat="44.93947" lon="2.52549">
        <ele>820.62</ele>
        <time>2021-08-16T06:09:56Z</time>
      </trkpt>
      <trkpt lat="44.93946" lon="2.52543">
        <ele>820.62</ele>
        <time>2021-08-16T06:09:57Z</time>
      </trkpt>
      <trkpt lat="44.93944" lon="2.52532">
        <ele>822.06</ele>
        <time>2021-08-16T06:10:01Z</time>
      </trkpt>
      <trkpt lat="44.93943" lon="2.5253">
        <ele>822.06</ele>
        <time>2021-08-16T06:10:02Z</time>
      </trkpt>
      <trkpt lat="44.93939" lon="2.5252">
        <ele>823.99</ele>
        <time>2021-08-16T06:10:09Z</time>
      </trkpt>
      <trkpt lat="44.93936" lon="2.52511">
        <ele>824.95</ele>
        <time>2021-08-16T06:10:14Z</time>
      </trkpt>
      <trkpt lat="44.93936" lon="2.52509">
        <ele>824.95</ele>
        <time>2021-08-16T06:10:15Z</time>
      </trkpt>
      <trkpt lat="44.93935" lon="2.52507">
        <ele>824.95</ele>
        <time>2021-08-16T06:10:16Z</time>
      </trkpt>
      <trkpt lat="44.93935" lon="2.52505">
        <ele>825.43</ele>
        <time>2021-08-16T06:10:17Z</time>
      </trkpt>
      <trkpt lat="44.93936" lon="2.52503">
        <ele>825.43</ele>
        <time>2021-08-16T06:10:18Z</time>
      </trkpt>
      <trkpt lat="44.93937" lon="2.52501">
        <ele>825.91</ele>
        <time>2021-08-16T06:10:20Z</time>
      </trkpt>
      <trkpt lat="44.93941" lon="2.52498">
        <ele>826.87</ele>
        <time>2021-08-16T06:10:25Z</time>
      </trkpt>
      <trkpt lat="44.93946" lon="2.52504">
        <ele>827.35</ele>
        <time>2021-08-16T06:10:30Z</time>
      </trkpt>
      <trkpt lat="44.93946" lon="2.52505">
        <ele>828.31</ele>
        <time>2021-08-16T06:10:31Z</time>
      </trkpt>
      <trkpt lat="44.93947" lon="2.52506">
        <ele>828.31</ele>
        <time>2021-08-16T06:10:32Z</time>
      </trkpt>
      <trkpt lat="44.93954" lon="2.52517">
        <ele>829.76</ele>
        <time>2021-08-16T06:10:42Z</time>
      </trkpt>
      <trkpt lat="44.93959" lon="2.52524">
        <ele>831.2</ele>
        <time>2021-08-16T06:10:50Z</time>
      </trkpt>
      <trkpt lat="44.9396" lon="2.52526">
        <ele>831.2</ele>
        <time>2021-08-16T06:10:51Z</time>
      </trkpt>
      <trkpt lat="44.9396" lon="2.52527">
        <ele>831.68</ele>
        <time>2021-08-16T06:10:52Z</time>
      </trkpt>
      <trkpt lat="44.93967" lon="2.52536">
        <ele>833.12</ele>
        <time>2021-08-16T06:11:00Z</time>
      </trkpt>
      <trkpt lat="44.93971" lon="2.52539">
        <ele>833.6</ele>
        <time>2021-08-16T06:11:04Z</time>
      </trkpt>
      <trkpt lat="44.9398" lon="2.52544">
        <ele>835.04</ele>
        <time>2021-08-16T06:11:13Z</time>
      </trkpt>
      <trkpt lat="44.93992" lon="2.52547">
        <ele>836.96</ele>
        <time>2021-08-16T06:11:23Z</time>
      </trkpt>
      <trkpt lat="44.94003" lon="2.52547">
        <ele>838.89</ele>
        <time>2021-08-16T06:11:32Z</time>
      </trkpt>
      <trkpt lat="44.94015" lon="2.52547">
        <ele>840.81</ele>
        <time>2021-08-16T06:11:42Z</time>
      </trkpt>
      <trkpt lat="44.94025" lon="2.52546">
        <ele>842.25</ele>
        <time>2021-08-16T06:11:50Z</time>
      </trkpt>
      <trkpt lat="44.94036" lon="2.52546">
        <ele>844.18</ele>
        <time>2021-08-16T06:12:00Z</time>
      </trkpt>
      <trkpt lat="44.94047" lon="2.52545">
        <ele>846.1</ele>
        <time>2021-08-16T06:12:09Z</time>
      </trkpt>
      <trkpt lat="44.94061" lon="2.52546">
        <ele>847.54</ele>
        <time>2021-08-16T06:12:18Z</time>
      </trkpt>
      <trkpt lat="44.94063" lon="2.52545">
        <ele>848.02</ele>
        <time>2021-08-16T06:12:19Z</time>
      </trkpt>
      <trkpt lat="44.94074" lon="2.52542">
        <ele>849.46</ele>
        <time>2021-08-16T06:12:27Z</time>
      </trkpt>
      <trkpt lat="44.94084" lon="2.52539">
        <ele>851.38</ele>
        <time>2021-08-16T06:12:35Z</time>
      </trkpt>
      <trkpt lat="44.94099" lon="2.52531">
        <ele>852.83</ele>
        <time>2021-08-16T06:12:44Z</time>
      </trkpt>
      <trkpt lat="44.9411" lon="2.52525">
        <ele>854.27</ele>
        <time>2021-08-16T06:12:52Z</time>
      </trkpt>
      <trkpt lat="44.94117" lon="2.5252">
        <ele>854.75</ele>
        <time>2021-08-16T06:12:57Z</time>
      </trkpt>
      <trkpt lat="44.94118" lon="2.52518">
        <ele>855.23</ele>
        <time>2021-08-16T06:12:58Z</time>
      </trkpt>
      <trkpt lat="44.94122" lon="2.52512">
        <ele>855.71</ele>
        <time>2021-08-16T06:13:02Z</time>
      </trkpt>
      <trkpt lat="44.94134" lon="2.52504">
        <ele>857.15</ele>
        <time>2021-08-16T06:13:11Z</time>
      </trkpt>
      <trkpt lat="44.94145" lon="2.52494">
        <ele>859.08</ele>
        <time>2021-08-16T06:13:20Z</time>
      </trkpt>
      <trkpt lat="44.94154" lon="2.52479">
        <ele>860.52</ele>
        <time>2021-08-16T06:13:29Z</time>
      </trkpt>
      <trkpt lat="44.94164" lon="2.52462">
        <ele>862.44</ele>
        <time>2021-08-16T06:13:38Z</time>
      </trkpt>
      <trkpt lat="44.94173" lon="2.52444">
        <ele>862.92</ele>
        <time>2021-08-16T06:13:46Z</time>
      </trkpt>
      <trkpt lat="44.94185" lon="2.52421">
        <ele>864.36</ele>
        <time>2021-08-16T06:13:56Z</time>
      </trkpt>
      <trkpt lat="44.94195" lon="2.52401">
        <ele>865.8</ele>
        <time>2021-08-16T06:14:05Z</time>
      </trkpt>
      <trkpt lat="44.94202" lon="2.52388">
        <ele>866.29</ele>
        <time>2021-08-16T06:14:11Z</time>
      </trkpt>
      <trkpt lat="44.94203" lon="2.52385">
        <ele>866.29</ele>
        <time>2021-08-16T06:14:12Z</time>
      </trkpt>
      <trkpt lat="44.94204" lon="2.52383">
        <ele>866.29</ele>
        <time>2021-08-16T06:14:13Z</time>
      </trkpt>
      <trkpt lat="44.94205" lon="2.52381">
        <ele>866.77</ele>
        <time>2021-08-16T06:14:14Z</time>
      </trkpt>
      <trkpt lat="44.94206" lon="2.52378">
        <ele>866.77</ele>
        <time>2021-08-16T06:14:15Z</time>
      </trkpt>
      <trkpt lat="44.94207" lon="2.52376">
        <ele>866.77</ele>
        <time>2021-08-16T06:14:16Z</time>
      </trkpt>
      <trkpt lat="44.94218" lon="2.52356">
        <ele>868.21</ele>
        <time>2021-08-16T06:14:25Z</time>
      </trkpt>
      <trkpt lat="44.94231" lon="2.52331">
        <ele>869.65</ele>
        <time>2021-08-16T06:14:36Z</time>
      </trkpt>
      <trkpt lat="44.94246" lon="2.52301">
        <ele>871.57</ele>
        <time>2021-08-16T06:14:49Z</time>
      </trkpt>
      <trkpt lat="44.94256" lon="2.5228">
        <ele>873.5</ele>
        <time>2021-08-16T06:14:56Z</time>
      </trkpt>
      <trkpt lat="44.94264" lon="2.52252">
        <ele>874.46</ele>
        <time>2021-08-16T06:15:04Z</time>
      </trkpt>
      <trkpt lat="44.94254" lon="2.52236">
        <ele>874.94</ele>
        <time>2021-08-16T06:15:09Z</time>
      </trkpt>
      <trkpt lat="44.94231" lon="2.52228">
        <ele>874.94</ele>
        <time>2021-08-16T06:15:16Z</time>
      </trkpt>
      <trkpt lat="44.94202" lon="2.52217">
        <ele>874.94</ele>
        <time>2021-08-16T06:15:24Z</time>
      </trkpt>
      <trkpt lat="44.94167" lon="2.52202">
        <ele>875.42</ele>
        <time>2021-08-16T06:15:33Z</time>
      </trkpt>
      <trkpt lat="44.94157" lon="2.52196">
        <ele>875.42</ele>
        <time>2021-08-16T06:15:36Z</time>
      </trkpt>
      <trkpt lat="44.94153" lon="2.52194">
        <ele>875.42</ele>
        <time>2021-08-16T06:15:37Z</time>
      </trkpt>
      <trkpt lat="44.94119" lon="2.52165">
        <ele>875.42</ele>
        <time>2021-08-16T06:15:46Z</time>
      </trkpt>
      <trkpt lat="44.94103" lon="2.52152">
        <ele>875.42</ele>
        <time>2021-08-16T06:15:50Z</time>
      </trkpt>
      <trkpt lat="44.94099" lon="2.52149">
        <ele>875.42</ele>
        <time>2021-08-16T06:15:51Z</time>
      </trkpt>
      <trkpt lat="44.94094" lon="2.52147">
        <ele>874.46</ele>
        <time>2021-08-16T06:15:52Z</time>
      </trkpt>
      <trkpt lat="44.9409" lon="2.52143">
        <ele>874.46</ele>
        <time>2021-08-16T06:15:53Z</time>
      </trkpt>
      <trkpt lat="44.94086" lon="2.5214">
        <ele>874.46</ele>
        <time>2021-08-16T06:15:54Z</time>
      </trkpt>
      <trkpt lat="44.94081" lon="2.52136">
        <ele>874.46</ele>
        <time>2021-08-16T06:15:55Z</time>
      </trkpt>
      <trkpt lat="44.94077" lon="2.52133">
        <ele>874.46</ele>
        <time>2021-08-16T06:15:56Z</time>
      </trkpt>
      <trkpt lat="44.94041" lon="2.52102">
        <ele>873.01</ele>
        <time>2021-08-16T06:16:04Z</time>
      </trkpt>
      <trkpt lat="44.94005" lon="2.52059">
        <ele>872.05</ele>
        <time>2021-08-16T06:16:13Z</time>
      </trkpt>
      <trkpt lat="44.93973" lon="2.52021">
        <ele>872.05</ele>
        <time>2021-08-16T06:16:21Z</time>
      </trkpt>
      <trkpt lat="44.93954" lon="2.51995">
        <ele>871.57</ele>
        <time>2021-08-16T06:16:26Z</time>
      </trkpt>
      <trkpt lat="44.93932" lon="2.51958">
        <ele>871.09</ele>
        <time>2021-08-16T06:16:32Z</time>
      </trkpt>
      <trkpt lat="44.93897" lon="2.51896">
        <ele>869.17</ele>
        <time>2021-08-16T06:16:41Z</time>
      </trkpt>
      <trkpt lat="44.93866" lon="2.51844">
        <ele>868.69</ele>
        <time>2021-08-16T06:16:49Z</time>
      </trkpt>
      <trkpt lat="44.9383" lon="2.51784">
        <ele>867.73</ele>
        <time>2021-08-16T06:16:58Z</time>
      </trkpt>
      <trkpt lat="44.938" lon="2.51734">
        <ele>866.77</ele>
        <time>2021-08-16T06:17:06Z</time>
      </trkpt>
      <trkpt lat="44.93796" lon="2.51728">
        <ele>866.29</ele>
        <time>2021-08-16T06:17:07Z</time>
      </trkpt>
      <trkpt lat="44.93789" lon="2.51717">
        <ele>866.29</ele>
        <time>2021-08-16T06:17:09Z</time>
      </trkpt>
      <trkpt lat="44.93786" lon="2.5171">
        <ele>866.29</ele>
        <time>2021-08-16T06:17:10Z</time>
      </trkpt>
      <trkpt lat="44.93785" lon="2.51702">
        <ele>866.29</ele>
        <time>2021-08-16T06:17:11Z</time>
      </trkpt>
      <trkpt lat="44.93786" lon="2.51695">
        <ele>866.29</ele>
        <time>2021-08-16T06:17:12Z</time>
      </trkpt>
      <trkpt lat="44.93787" lon="2.51688">
        <ele>866.29</ele>
        <time>2021-08-16T06:17:13Z</time>
      </trkpt>
      <trkpt lat="44.9379" lon="2.51683">
        <ele>866.29</ele>
        <time>2021-08-16T06:17:14Z</time>
      </trkpt>
      <trkpt lat="44.93794" lon="2.51677">
        <ele>866.29</ele>
        <time>2021-08-16T06:17:15Z</time>
      </trkpt>
      <trkpt lat="44.93797" lon="2.51672">
        <ele>866.29</ele>
        <time>2021-08-16T06:17:16Z</time>
      </trkpt>
      <trkpt lat="44.93823" lon="2.51632">
        <ele>864.84</ele>
        <time>2021-08-16T06:17:23Z</time>
      </trkpt>
      <trkpt lat="44.9383" lon="2.51619">
        <ele>863.4</ele>
        <time>2021-08-16T06:17:25Z</time>
      </trkpt>
      <trkpt lat="44.93832" lon="2.51613">
        <ele>863.4</ele>
        <time>2021-08-16T06:17:26Z</time>
      </trkpt>
      <trkpt lat="44.93834" lon="2.51604">
        <ele>862.44</ele>
        <time>2021-08-16T06:17:27Z</time>
      </trkpt>
      <trkpt lat="44.93834" lon="2.51596">
        <ele>861.96</ele>
        <time>2021-08-16T06:17:28Z</time>
      </trkpt>
      <trkpt lat="44.9383" lon="2.51589">
        <ele>861.48</ele>
        <time>2021-08-16T06:17:29Z</time>
      </trkpt>
      <trkpt lat="44.93824" lon="2.51585">
        <ele>861.48</ele>
        <time>2021-08-16T06:17:30Z</time>
      </trkpt>
      <trkpt lat="44.93817" lon="2.51579">
        <ele>861.48</ele>
        <time>2021-08-16T06:17:31Z</time>
      </trkpt>
      <trkpt lat="44.9381" lon="2.51574">
        <ele>861</ele>
        <time>2021-08-16T06:17:32Z</time>
      </trkpt>
      <trkpt lat="44.93805" lon="2.51568">
        <ele>860.52</ele>
        <time>2021-08-16T06:17:33Z</time>
      </trkpt>
      <trkpt lat="44.93799" lon="2.51561">
        <ele>860.04</ele>
        <time>2021-08-16T06:17:34Z</time>
      </trkpt>
      <trkpt lat="44.93773" lon="2.51533">
        <ele>856.67</ele>
        <time>2021-08-16T06:17:38Z</time>
      </trkpt>
      <trkpt lat="44.9376" lon="2.51518">
        <ele>855.23</ele>
        <time>2021-08-16T06:17:40Z</time>
      </trkpt>
      <trkpt lat="44.93712" lon="2.51458">
        <ele>850.9</ele>
        <time>2021-08-16T06:17:48Z</time>
      </trkpt>
      <trkpt lat="44.93689" lon="2.51419">
        <ele>847.54</ele>
        <time>2021-08-16T06:17:52Z</time>
      </trkpt>
      <trkpt lat="44.93673" lon="2.51385">
        <ele>843.69</ele>
        <time>2021-08-16T06:17:55Z</time>
      </trkpt>
      <trkpt lat="44.93649" lon="2.51342">
        <ele>839.37</ele>
        <time>2021-08-16T06:17:59Z</time>
      </trkpt>
      <trkpt lat="44.93597" lon="2.51246">
        <ele>837.45</ele>
        <time>2021-08-16T06:18:08Z</time>
      </trkpt>
      <trkpt lat="44.93558" lon="2.51169">
        <ele>835.52</ele>
        <time>2021-08-16T06:18:16Z</time>
      </trkpt>
      <trkpt lat="44.93544" lon="2.51122">
        <ele>836.96</ele>
        <time>2021-08-16T06:18:22Z</time>
      </trkpt>
      <trkpt lat="44.93539" lon="2.51105">
        <ele>836.96</ele>
        <time>2021-08-16T06:18:25Z</time>
      </trkpt>
      <trkpt lat="44.93537" lon="2.51099">
        <ele>836.96</ele>
        <time>2021-08-16T06:18:26Z</time>
      </trkpt>
      <trkpt lat="44.93535" lon="2.51093">
        <ele>836.96</ele>
        <time>2021-08-16T06:18:27Z</time>
      </trkpt>
      <trkpt lat="44.93531" lon="2.51081">
        <ele>836.96</ele>
        <time>2021-08-16T06:18:29Z</time>
      </trkpt>
      <trkpt lat="44.93519" lon="2.51041">
        <ele>835.52</ele>
        <time>2021-08-16T06:18:35Z</time>
      </trkpt>
      <trkpt lat="44.935" lon="2.50989">
        <ele>831.2</ele>
        <time>2021-08-16T06:18:42Z</time>
      </trkpt>
      <trkpt lat="44.93493" lon="2.50972">
        <ele>830.24</ele>
        <time>2021-08-16T06:18:44Z</time>
      </trkpt>
      <trkpt lat="44.93488" lon="2.50964">
        <ele>829.27</ele>
        <time>2021-08-16T06:18:45Z</time>
      </trkpt>
      <trkpt lat="44.93448" lon="2.50912">
        <ele>826.39</ele>
        <time>2021-08-16T06:18:52Z</time>
      </trkpt>
      <trkpt lat="44.93399" lon="2.50871">
        <ele>823.51</ele>
        <time>2021-08-16T06:18:59Z</time>
      </trkpt>
      <trkpt lat="44.93354" lon="2.5084">
        <ele>819.66</ele>
        <time>2021-08-16T06:19:05Z</time>
      </trkpt>
      <trkpt lat="44.93331" lon="2.50823">
        <ele>816.3</ele>
        <time>2021-08-16T06:19:09Z</time>
      </trkpt>
      <trkpt lat="44.93306" lon="2.50804">
        <ele>811.97</ele>
        <time>2021-08-16T06:19:14Z</time>
      </trkpt>
      <trkpt lat="44.93294" lon="2.50795">
        <ele>810.05</ele>
        <time>2021-08-16T06:19:16Z</time>
      </trkpt>
      <trkpt lat="44.93281" lon="2.50789">
        <ele>807.64</ele>
        <time>2021-08-16T06:19:18Z</time>
      </trkpt>
      <trkpt lat="44.93275" lon="2.50787">
        <ele>806.68</ele>
        <time>2021-08-16T06:19:19Z</time>
      </trkpt>
      <trkpt lat="44.93253" lon="2.50784">
        <ele>803.32</ele>
        <time>2021-08-16T06:19:23Z</time>
      </trkpt>
      <trkpt lat="44.93234" lon="2.50782">
        <ele>799.95</ele>
        <time>2021-08-16T06:19:27Z</time>
      </trkpt>
      <trkpt lat="44.93227" lon="2.50775">
        <ele>798.51</ele>
        <time>2021-08-16T06:19:30Z</time>
      </trkpt>
      <trkpt lat="44.93227" lon="2.50772">
        <ele>798.99</ele>
        <time>2021-08-16T06:19:31Z</time>
      </trkpt>
      <trkpt lat="44.93228" lon="2.5077">
        <ele>798.99</ele>
        <time>2021-08-16T06:19:32Z</time>
      </trkpt>
      <trkpt lat="44.93229" lon="2.50769">
        <ele>798.99</ele>
        <time>2021-08-16T06:19:33Z</time>
      </trkpt>
      <trkpt lat="44.93235" lon="2.50765">
        <ele>799.95</ele>
        <time>2021-08-16T06:19:41Z</time>
      </trkpt>
      <trkpt lat="44.93244" lon="2.5076">
        <ele>800.44</ele>
        <time>2021-08-16T06:19:47Z</time>
      </trkpt>
      <trkpt lat="44.93245" lon="2.50758">
        <ele>800.44</ele>
        <time>2021-08-16T06:19:48Z</time>
      </trkpt>
      <trkpt lat="44.93247" lon="2.50757">
        <ele>800.44</ele>
        <time>2021-08-16T06:19:49Z</time>
      </trkpt>
      <trkpt lat="44.93248" lon="2.50756">
        <ele>800.44</ele>
        <time>2021-08-16T06:19:50Z</time>
      </trkpt>
      <trkpt lat="44.9325" lon="2.50755">
        <ele>800.44</ele>
        <time>2021-08-16T06:19:51Z</time>
      </trkpt>
      <trkpt lat="44.93252" lon="2.50753">
        <ele>800.44</ele>
        <time>2021-08-16T06:19:52Z</time>
      </trkpt>
      <trkpt lat="44.93278" lon="2.50741">
        <ele>800.44</ele>
        <time>2021-08-16T06:20:00Z</time>
      </trkpt>
      <trkpt lat="44.93282" lon="2.5074">
        <ele>800.44</ele>
        <time>2021-08-16T06:20:01Z</time>
      </trkpt>
      <trkpt lat="44.93286" lon="2.50739">
        <ele>798.99</ele>
        <time>2021-08-16T06:20:02Z</time>
      </trkpt>
      <trkpt lat="44.93296" lon="2.50738">
        <ele>798.03</ele>
        <time>2021-08-16T06:20:04Z</time>
      </trkpt>
      <trkpt lat="44.93311" lon="2.50736">
        <ele>796.59</ele>
        <time>2021-08-16T06:20:07Z</time>
      </trkpt>
      <trkpt lat="44.93322" lon="2.50737">
        <ele>795.15</ele>
        <time>2021-08-16T06:20:10Z</time>
      </trkpt>
      <trkpt lat="44.93327" lon="2.50739">
        <ele>794.19</ele>
        <time>2021-08-16T06:20:11Z</time>
      </trkpt>
      <trkpt lat="44.93332" lon="2.5074">
        <ele>793.22</ele>
        <time>2021-08-16T06:20:12Z</time>
      </trkpt>
      <trkpt lat="44.93356" lon="2.50746">
        <ele>790.34</ele>
        <time>2021-08-16T06:20:16Z</time>
      </trkpt>
      <trkpt lat="44.93376" lon="2.50754">
        <ele>788.9</ele>
        <time>2021-08-16T06:20:19Z</time>
      </trkpt>
      <trkpt lat="44.93415" lon="2.50765">
        <ele>785.53</ele>
        <time>2021-08-16T06:20:25Z</time>
      </trkpt>
      <trkpt lat="44.93421" lon="2.50765">
        <ele>784.57</ele>
        <time>2021-08-16T06:20:26Z</time>
      </trkpt>
      <trkpt lat="44.93431" lon="2.50765">
        <ele>783.61</ele>
        <time>2021-08-16T06:20:27Z</time>
      </trkpt>
      <trkpt lat="44.93439" lon="2.50765">
        <ele>782.65</ele>
        <time>2021-08-16T06:20:28Z</time>
      </trkpt>
      <trkpt lat="44.93446" lon="2.50765">
        <ele>783.13</ele>
        <time>2021-08-16T06:20:29Z</time>
      </trkpt>
      <trkpt lat="44.93454" lon="2.50765">
        <ele>782.17</ele>
        <time>2021-08-16T06:20:30Z</time>
      </trkpt>
      <trkpt lat="44.93462" lon="2.50764">
        <ele>781.69</ele>
        <time>2021-08-16T06:20:31Z</time>
      </trkpt>
      <trkpt lat="44.93469" lon="2.50763">
        <ele>781.69</ele>
        <time>2021-08-16T06:20:32Z</time>
      </trkpt>
      <trkpt lat="44.93488" lon="2.5076">
        <ele>780.73</ele>
        <time>2021-08-16T06:20:35Z</time>
      </trkpt>
      <trkpt lat="44.93493" lon="2.50758">
        <ele>780.25</ele>
        <time>2021-08-16T06:20:36Z</time>
      </trkpt>
      <trkpt lat="44.93497" lon="2.50754">
        <ele>779.77</ele>
        <time>2021-08-16T06:20:37Z</time>
      </trkpt>
      <trkpt lat="44.93501" lon="2.50749">
        <ele>778.81</ele>
        <time>2021-08-16T06:20:38Z</time>
      </trkpt>
      <trkpt lat="44.93505" lon="2.50745">
        <ele>778.32</ele>
        <time>2021-08-16T06:20:39Z</time>
      </trkpt>
      <trkpt lat="44.93509" lon="2.50744">
        <ele>778.32</ele>
        <time>2021-08-16T06:20:40Z</time>
      </trkpt>
      <trkpt lat="44.93512" lon="2.50745">
        <ele>777.36</ele>
        <time>2021-08-16T06:20:41Z</time>
      </trkpt>
      <trkpt lat="44.93516" lon="2.50745">
        <ele>776.88</ele>
        <time>2021-08-16T06:20:42Z</time>
      </trkpt>
      <trkpt lat="44.93533" lon="2.50747">
        <ele>773.04</ele>
        <time>2021-08-16T06:20:48Z</time>
      </trkpt>
      <trkpt lat="44.9355" lon="2.50763">
        <ele>769.67</ele>
        <time>2021-08-16T06:20:53Z</time>
      </trkpt>
      <trkpt lat="44.93565" lon="2.50776">
        <ele>766.31</ele>
        <time>2021-08-16T06:20:57Z</time>
      </trkpt>
      <trkpt lat="44.93568" lon="2.50779">
        <ele>766.31</ele>
        <time>2021-08-16T06:20:58Z</time>
      </trkpt>
      <trkpt lat="44.93572" lon="2.50782">
        <ele>766.31</ele>
        <time>2021-08-16T06:21:02Z</time>
      </trkpt>
      <trkpt lat="44.93574" lon="2.50786">
        <ele>765.83</ele>
        <time>2021-08-16T06:21:15Z</time>
      </trkpt>
      <trkpt lat="44.93571" lon="2.50789">
        <ele>765.83</ele>
        <time>2021-08-16T06:21:31Z</time>
      </trkpt>
      <trkpt lat="44.93578" lon="2.50786">
        <ele>765.83</ele>
        <time>2021-08-16T06:21:49Z</time>
      </trkpt>
      <trkpt lat="44.93581" lon="2.50784">
        <ele>765.83</ele>
        <time>2021-08-16T06:22:06Z</time>
      </trkpt>
      <trkpt lat="44.93582" lon="2.50783">
        <ele>765.35</ele>
        <time>2021-08-16T06:22:23Z</time>
      </trkpt>
      <trkpt lat="44.93582" lon="2.50786">
        <ele>765.35</ele>
        <time>2021-08-16T06:22:38Z</time>
      </trkpt>
      <trkpt lat="44.93584" lon="2.50787">
        <ele>766.31</ele>
        <time>2021-08-16T06:22:53Z</time>
      </trkpt>
      <trkpt lat="44.93583" lon="2.50786">
        <ele>766.31</ele>
        <time>2021-08-16T06:23:05Z</time>
      </trkpt>
      <trkpt lat="44.93589" lon="2.50785">
        <ele>766.31</ele>
        <time>2021-08-16T06:23:20Z</time>
      </trkpt>
      <trkpt lat="44.93589" lon="2.50785">
        <ele>766.31</ele>
        <time>2021-08-16T06:23:40Z</time>
      </trkpt>
      <trkpt lat="44.93588" lon="2.50789">
        <ele>766.31</ele>
        <time>2021-08-16T06:23:57Z</time>
      </trkpt>
      <trkpt lat="44.93589" lon="2.50784">
        <ele>765.35</ele>
        <time>2021-08-16T06:24:16Z</time>
      </trkpt>
      <trkpt lat="44.93591" lon="2.50782">
        <ele>765.35</ele>
        <time>2021-08-16T06:24:37Z</time>
      </trkpt>
      <trkpt lat="44.93593" lon="2.50783">
        <ele>765.35</ele>
        <time>2021-08-16T06:24:58Z</time>
      </trkpt>
      <trkpt lat="44.93594" lon="2.50783">
        <ele>765.35</ele>
        <time>2021-08-16T06:25:15Z</time>
      </trkpt>
      <trkpt lat="44.93593" lon="2.50783">
        <ele>764.87</ele>
        <time>2021-08-16T06:25:28Z</time>
      </trkpt>
      <trkpt lat="44.93593" lon="2.5078">
        <ele>764.87</ele>
        <time>2021-08-16T06:25:46Z</time>
      </trkpt>
      <trkpt lat="44.93595" lon="2.50779">
        <ele>764.87</ele>
        <time>2021-08-16T06:26:02Z</time>
      </trkpt>
      <trkpt lat="44.93594" lon="2.50783">
        <ele>764.87</ele>
        <time>2021-08-16T06:26:19Z</time>
      </trkpt>
      <trkpt lat="44.93591" lon="2.50782">
        <ele>764.87</ele>
        <time>2021-08-16T06:26:34Z</time>
      </trkpt>
      <trkpt lat="44.93592" lon="2.50783">
        <ele>764.87</ele>
        <time>2021-08-16T06:26:51Z</time>
      </trkpt>
      <trkpt lat="44.93591" lon="2.50784">
        <ele>764.87</ele>
        <time>2021-08-16T06:27:07Z</time>
      </trkpt>
      <trkpt lat="44.93591" lon="2.5078">
        <ele>765.35</ele>
        <time>2021-08-16T06:27:23Z</time>
      </trkpt>
      <trkpt lat="44.93591" lon="2.50778">
        <ele>765.35</ele>
        <time>2021-08-16T06:27:34Z</time>
      </trkpt>
      <trkpt lat="44.93593" lon="2.50776">
        <ele>765.35</ele>
        <time>2021-08-16T06:27:46Z</time>
      </trkpt>
      <trkpt lat="44.93593" lon="2.50779">
        <ele>764.87</ele>
        <time>2021-08-16T06:28:04Z</time>
      </trkpt>
      <trkpt lat="44.93595" lon="2.50776">
        <ele>764.87</ele>
        <time>2021-08-16T06:28:17Z</time>
      </trkpt>
      <trkpt lat="44.93594" lon="2.50772">
        <ele>764.87</ele>
        <time>2021-08-16T06:28:30Z</time>
      </trkpt>
      <trkpt lat="44.93592" lon="2.50775">
        <ele>764.87</ele>
        <time>2021-08-16T06:28:45Z</time>
      </trkpt>
      <trkpt lat="44.9359" lon="2.50777">
        <ele>764.87</ele>
        <time>2021-08-16T06:29:00Z</time>
      </trkpt>
      <trkpt lat="44.93589" lon="2.50775">
        <ele>764.87</ele>
        <time>2021-08-16T06:29:13Z</time>
      </trkpt>
      <trkpt lat="44.93588" lon="2.50775">
        <ele>764.87</ele>
        <time>2021-08-16T06:29:27Z</time>
      </trkpt>
      <trkpt lat="44.9359" lon="2.50777">
        <ele>764.87</ele>
        <time>2021-08-16T06:29:32Z</time>
      </trkpt>
      <trkpt lat="44.9359" lon="2.50778">
        <ele>764.87</ele>
        <time>2021-08-16T06:29:33Z</time>
      </trkpt>
      <trkpt lat="44.93595" lon="2.50781">
        <ele>764.87</ele>
        <time>2021-08-16T06:29:38Z</time>
      </trkpt>
      <trkpt lat="44.93597" lon="2.5078">
        <ele>764.87</ele>
        <time>2021-08-16T06:29:39Z</time>
      </trkpt>
      <trkpt lat="44.93599" lon="2.50779">
        <ele>764.87</ele>
        <time>2021-08-16T06:29:40Z</time>
      </trkpt>
      <trkpt lat="44.93602" lon="2.50777">
        <ele>764.87</ele>
        <time>2021-08-16T06:29:41Z</time>
      </trkpt>
      <trkpt lat="44.93604" lon="2.50775">
        <ele>764.87</ele>
        <time>2021-08-16T06:29:42Z</time>
      </trkpt>
      <trkpt lat="44.93606" lon="2.50772">
        <ele>764.87</ele>
        <time>2021-08-16T06:29:43Z</time>
      </trkpt>
      <trkpt lat="44.93614" lon="2.50753">
        <ele>766.31</ele>
        <time>2021-08-16T06:29:50Z</time>
      </trkpt>
      <trkpt lat="44.93621" lon="2.50732">
        <ele>767.75</ele>
        <time>2021-08-16T06:29:59Z</time>
      </trkpt>
      <trkpt lat="44.93626" lon="2.50721">
        <ele>769.19</ele>
        <time>2021-08-16T06:30:08Z</time>
      </trkpt>
      <trkpt lat="44.93633" lon="2.50705">
        <ele>771.11</ele>
        <time>2021-08-16T06:30:19Z</time>
      </trkpt>
      <trkpt lat="44.93638" lon="2.50694">
        <ele>772.56</ele>
        <time>2021-08-16T06:30:29Z</time>
      </trkpt>
      <trkpt lat="44.93642" lon="2.50685">
        <ele>773.52</ele>
        <time>2021-08-16T06:30:37Z</time>
      </trkpt>
      <trkpt lat="44.93648" lon="2.50678">
        <ele>775.44</ele>
        <time>2021-08-16T06:30:46Z</time>
      </trkpt>
      <trkpt lat="44.93655" lon="2.50671">
        <ele>777.84</ele>
        <time>2021-08-16T06:30:57Z</time>
      </trkpt>
      <trkpt lat="44.93662" lon="2.50668">
        <ele>779.29</ele>
        <time>2021-08-16T06:31:07Z</time>
      </trkpt>
      <trkpt lat="44.9367" lon="2.50668">
        <ele>780.73</ele>
        <time>2021-08-16T06:31:16Z</time>
      </trkpt>
      <trkpt lat="44.93678" lon="2.50664">
        <ele>782.65</ele>
        <time>2021-08-16T06:31:26Z</time>
      </trkpt>
      <trkpt lat="44.9368" lon="2.50662">
        <ele>782.65</ele>
        <time>2021-08-16T06:31:29Z</time>
      </trkpt>
      <trkpt lat="44.93681" lon="2.50662">
        <ele>782.65</ele>
        <time>2021-08-16T06:31:30Z</time>
      </trkpt>
      <trkpt lat="44.93682" lon="2.50661">
        <ele>782.65</ele>
        <time>2021-08-16T06:31:31Z</time>
      </trkpt>
      <trkpt lat="44.93683" lon="2.5066">
        <ele>783.13</ele>
        <time>2021-08-16T06:31:32Z</time>
      </trkpt>
      <trkpt lat="44.93684" lon="2.5066">
        <ele>783.13</ele>
        <time>2021-08-16T06:31:38Z</time>
      </trkpt>
      <trkpt lat="44.93688" lon="2.50655">
        <ele>783.13</ele>
        <time>2021-08-16T06:31:49Z</time>
      </trkpt>
      <trkpt lat="44.93698" lon="2.50636">
        <ele>783.61</ele>
        <time>2021-08-16T06:31:57Z</time>
      </trkpt>
      <trkpt lat="44.93712" lon="2.50625">
        <ele>779.77</ele>
        <time>2021-08-16T06:32:02Z</time>
      </trkpt>
      <trkpt lat="44.93716" lon="2.50626">
        <ele>779.29</ele>
        <time>2021-08-16T06:32:03Z</time>
      </trkpt>
      <trkpt lat="44.93721" lon="2.50629">
        <ele>778.81</ele>
        <time>2021-08-16T06:32:04Z</time>
      </trkpt>
      <trkpt lat="44.93725" lon="2.50633">
        <ele>778.32</ele>
        <time>2021-08-16T06:32:05Z</time>
      </trkpt>
      <trkpt lat="44.93729" lon="2.50637">
        <ele>778.32</ele>
        <time>2021-08-16T06:32:06Z</time>
      </trkpt>
      <trkpt lat="44.93746" lon="2.50655">
        <ele>776.4</ele>
        <time>2021-08-16T06:32:10Z</time>
      </trkpt>
      <trkpt lat="44.9375" lon="2.5066">
        <ele>775.44</ele>
        <time>2021-08-16T06:32:11Z</time>
      </trkpt>
      <trkpt lat="44.93754" lon="2.50664">
        <ele>775.44</ele>
        <time>2021-08-16T06:32:12Z</time>
      </trkpt>
      <trkpt lat="44.93758" lon="2.50666">
        <ele>774.48</ele>
        <time>2021-08-16T06:32:13Z</time>
      </trkpt>
      <trkpt lat="44.93761" lon="2.50665">
        <ele>774.48</ele>
        <time>2021-08-16T06:32:14Z</time>
      </trkpt>
      <trkpt lat="44.93763" lon="2.50662">
        <ele>773.52</ele>
        <time>2021-08-16T06:32:15Z</time>
      </trkpt>
      <trkpt lat="44.93765" lon="2.50656">
        <ele>772.56</ele>
        <time>2021-08-16T06:32:16Z</time>
      </trkpt>
      <trkpt lat="44.93764" lon="2.5065">
        <ele>772.08</ele>
        <time>2021-08-16T06:32:17Z</time>
      </trkpt>
      <trkpt lat="44.93762" lon="2.50643">
        <ele>772.08</ele>
        <time>2021-08-16T06:32:18Z</time>
      </trkpt>
      <trkpt lat="44.9376" lon="2.50636">
        <ele>771.6</ele>
        <time>2021-08-16T06:32:19Z</time>
      </trkpt>
      <trkpt lat="44.93755" lon="2.5062">
        <ele>770.63</ele>
        <time>2021-08-16T06:32:21Z</time>
      </trkpt>
      <trkpt lat="44.93746" lon="2.50584">
        <ele>768.23</ele>
        <time>2021-08-16T06:32:26Z</time>
      </trkpt>
      <trkpt lat="44.93745" lon="2.50577">
        <ele>767.75</ele>
        <time>2021-08-16T06:32:27Z</time>
      </trkpt>
      <trkpt lat="44.93738" lon="2.50537">
        <ele>764.87</ele>
        <time>2021-08-16T06:32:33Z</time>
      </trkpt>
      <trkpt lat="44.93735" lon="2.50522">
        <ele>763.42</ele>
        <time>2021-08-16T06:32:35Z</time>
      </trkpt>
      <trkpt lat="44.93729" lon="2.50485">
        <ele>760.06</ele>
        <time>2021-08-16T06:32:40Z</time>
      </trkpt>
      <trkpt lat="44.93726" lon="2.50464">
        <ele>758.62</ele>
        <time>2021-08-16T06:32:43Z</time>
      </trkpt>
      <trkpt lat="44.93726" lon="2.50458">
        <ele>757.66</ele>
        <time>2021-08-16T06:32:44Z</time>
      </trkpt>
      <trkpt lat="44.93726" lon="2.50452">
        <ele>756.69</ele>
        <time>2021-08-16T06:32:45Z</time>
      </trkpt>
      <trkpt lat="44.93728" lon="2.50448">
        <ele>755.73</ele>
        <time>2021-08-16T06:32:46Z</time>
      </trkpt>
      <trkpt lat="44.93731" lon="2.50444">
        <ele>754.77</ele>
        <time>2021-08-16T06:32:47Z</time>
      </trkpt>
      <trkpt lat="44.93735" lon="2.50443">
        <ele>754.29</ele>
        <time>2021-08-16T06:32:48Z</time>
      </trkpt>
      <trkpt lat="44.93741" lon="2.50444">
        <ele>753.33</ele>
        <time>2021-08-16T06:32:49Z</time>
      </trkpt>
      <trkpt lat="44.93745" lon="2.50445">
        <ele>752.37</ele>
        <time>2021-08-16T06:32:50Z</time>
      </trkpt>
      <trkpt lat="44.93751" lon="2.50448">
        <ele>751.41</ele>
        <time>2021-08-16T06:32:51Z</time>
      </trkpt>
      <trkpt lat="44.93757" lon="2.50451">
        <ele>750.45</ele>
        <time>2021-08-16T06:32:52Z</time>
      </trkpt>
      <trkpt lat="44.93762" lon="2.50454">
        <ele>749.49</ele>
        <time>2021-08-16T06:32:53Z</time>
      </trkpt>
      <trkpt lat="44.9377" lon="2.50457">
        <ele>748.04</ele>
        <time>2021-08-16T06:32:54Z</time>
      </trkpt>
      <trkpt lat="44.93776" lon="2.5046">
        <ele>747.56</ele>
        <time>2021-08-16T06:32:55Z</time>
      </trkpt>
      <trkpt lat="44.93793" lon="2.50468">
        <ele>744.2</ele>
        <time>2021-08-16T06:32:58Z</time>
      </trkpt>
      <trkpt lat="44.93811" lon="2.50475">
        <ele>741.31</ele>
        <time>2021-08-16T06:33:01Z</time>
      </trkpt>
      <trkpt lat="44.93816" lon="2.50475">
        <ele>741.31</ele>
        <time>2021-08-16T06:33:02Z</time>
      </trkpt>
      <trkpt lat="44.93821" lon="2.50473">
        <ele>740.35</ele>
        <time>2021-08-16T06:33:03Z</time>
      </trkpt>
      <trkpt lat="44.93824" lon="2.5047">
        <ele>738.91</ele>
        <time>2021-08-16T06:33:04Z</time>
      </trkpt>
      <trkpt lat="44.93826" lon="2.50465">
        <ele>738.43</ele>
        <time>2021-08-16T06:33:05Z</time>
      </trkpt>
      <trkpt lat="44.93826" lon="2.50459">
        <ele>738.43</ele>
        <time>2021-08-16T06:33:06Z</time>
      </trkpt>
      <trkpt lat="44.93824" lon="2.50455">
        <ele>737.95</ele>
        <time>2021-08-16T06:33:07Z</time>
      </trkpt>
      <trkpt lat="44.93821" lon="2.50449">
        <ele>738.43</ele>
        <time>2021-08-16T06:33:08Z</time>
      </trkpt>
      <trkpt lat="44.93801" lon="2.50418">
        <ele>736.03</ele>
        <time>2021-08-16T06:33:13Z</time>
      </trkpt>
      <trkpt lat="44.93784" lon="2.50378">
        <ele>733.62</ele>
        <time>2021-08-16T06:33:18Z</time>
      </trkpt>
      <trkpt lat="44.93782" lon="2.5037">
        <ele>732.66</ele>
        <time>2021-08-16T06:33:19Z</time>
      </trkpt>
      <trkpt lat="44.9378" lon="2.50362">
        <ele>732.18</ele>
        <time>2021-08-16T06:33:20Z</time>
      </trkpt>
      <trkpt lat="44.93779" lon="2.50354">
        <ele>731.22</ele>
        <time>2021-08-16T06:33:21Z</time>
      </trkpt>
      <trkpt lat="44.93779" lon="2.50345">
        <ele>730.26</ele>
        <time>2021-08-16T06:33:22Z</time>
      </trkpt>
      <trkpt lat="44.93779" lon="2.50338">
        <ele>729.78</ele>
        <time>2021-08-16T06:33:23Z</time>
      </trkpt>
      <trkpt lat="44.93779" lon="2.50323">
        <ele>728.82</ele>
        <time>2021-08-16T06:33:25Z</time>
      </trkpt>
      <trkpt lat="44.93781" lon="2.50301">
        <ele>726.89</ele>
        <time>2021-08-16T06:33:28Z</time>
      </trkpt>
      <trkpt lat="44.93779" lon="2.5025">
        <ele>724.01</ele>
        <time>2021-08-16T06:33:34Z</time>
      </trkpt>
      <trkpt lat="44.93779" lon="2.50244">
        <ele>723.53</ele>
        <time>2021-08-16T06:33:35Z</time>
      </trkpt>
      <trkpt lat="44.9378" lon="2.50237">
        <ele>722.09</ele>
        <time>2021-08-16T06:33:36Z</time>
      </trkpt>
      <trkpt lat="44.93782" lon="2.50232">
        <ele>721.61</ele>
        <time>2021-08-16T06:33:37Z</time>
      </trkpt>
      <trkpt lat="44.93786" lon="2.50227">
        <ele>720.65</ele>
        <time>2021-08-16T06:33:38Z</time>
      </trkpt>
      <trkpt lat="44.93791" lon="2.50225">
        <ele>720.16</ele>
        <time>2021-08-16T06:33:39Z</time>
      </trkpt>
      <trkpt lat="44.93797" lon="2.50223">
        <ele>719.2</ele>
        <time>2021-08-16T06:33:40Z</time>
      </trkpt>
      <trkpt lat="44.93803" lon="2.50221">
        <ele>718.72</ele>
        <time>2021-08-16T06:33:41Z</time>
      </trkpt>
      <trkpt lat="44.93808" lon="2.50218">
        <ele>717.76</ele>
        <time>2021-08-16T06:33:42Z</time>
      </trkpt>
      <trkpt lat="44.93813" lon="2.50214">
        <ele>717.76</ele>
        <time>2021-08-16T06:33:43Z</time>
      </trkpt>
      <trkpt lat="44.93818" lon="2.5021">
        <ele>717.28</ele>
        <time>2021-08-16T06:33:44Z</time>
      </trkpt>
      <trkpt lat="44.93821" lon="2.50206">
        <ele>717.28</ele>
        <time>2021-08-16T06:33:45Z</time>
      </trkpt>
      <trkpt lat="44.93825" lon="2.502">
        <ele>717.28</ele>
        <time>2021-08-16T06:33:46Z</time>
      </trkpt>
      <trkpt lat="44.93828" lon="2.50195">
        <ele>717.28</ele>
        <time>2021-08-16T06:33:47Z</time>
      </trkpt>
      <trkpt lat="44.9383" lon="2.50188">
        <ele>717.28</ele>
        <time>2021-08-16T06:33:48Z</time>
      </trkpt>
      <trkpt lat="44.9383" lon="2.50182">
        <ele>717.28</ele>
        <time>2021-08-16T06:33:49Z</time>
      </trkpt>
      <trkpt lat="44.9383" lon="2.50175">
        <ele>717.28</ele>
        <time>2021-08-16T06:33:50Z</time>
      </trkpt>
      <trkpt lat="44.9383" lon="2.50139">
        <ele>717.28</ele>
        <time>2021-08-16T06:33:57Z</time>
      </trkpt>
      <trkpt lat="44.9383" lon="2.5012">
        <ele>718.72</ele>
        <time>2021-08-16T06:34:02Z</time>
      </trkpt>
      <trkpt lat="44.93834" lon="2.50084">
        <ele>719.68</ele>
        <time>2021-08-16T06:34:11Z</time>
      </trkpt>
      <trkpt lat="44.9384" lon="2.5004">
        <ele>720.65</ele>
        <time>2021-08-16T06:34:21Z</time>
      </trkpt>
      <trkpt lat="44.93844" lon="2.5001">
        <ele>721.61</ele>
        <time>2021-08-16T06:34:30Z</time>
      </trkpt>
      <trkpt lat="44.93843" lon="2.49976">
        <ele>723.05</ele>
        <time>2021-08-16T06:34:41Z</time>
      </trkpt>
      <trkpt lat="44.93838" lon="2.49943">
        <ele>724.01</ele>
        <time>2021-08-16T06:34:50Z</time>
      </trkpt>
      <trkpt lat="44.93835" lon="2.49912">
        <ele>724.97</ele>
        <time>2021-08-16T06:34:58Z</time>
      </trkpt>
      <trkpt lat="44.9383" lon="2.49884">
        <ele>724.97</ele>
        <time>2021-08-16T06:35:05Z</time>
      </trkpt>
      <trkpt lat="44.93822" lon="2.49847">
        <ele>724.97</ele>
        <time>2021-08-16T06:35:12Z</time>
      </trkpt>
      <trkpt lat="44.93815" lon="2.49821">
        <ele>724.97</ele>
        <time>2021-08-16T06:35:16Z</time>
      </trkpt>
      <trkpt lat="44.93807" lon="2.49775">
        <ele>724.97</ele>
        <time>2021-08-16T06:35:23Z</time>
      </trkpt>
      <trkpt lat="44.93806" lon="2.49769">
        <ele>724.97</ele>
        <time>2021-08-16T06:35:24Z</time>
      </trkpt>
      <trkpt lat="44.93805" lon="2.49762">
        <ele>724.97</ele>
        <time>2021-08-16T06:35:25Z</time>
      </trkpt>
      <trkpt lat="44.93804" lon="2.49755">
        <ele>724.97</ele>
        <time>2021-08-16T06:35:26Z</time>
      </trkpt>
      <trkpt lat="44.93804" lon="2.49748">
        <ele>724.97</ele>
        <time>2021-08-16T06:35:27Z</time>
      </trkpt>
      <trkpt lat="44.93801" lon="2.49698">
        <ele>724.97</ele>
        <time>2021-08-16T06:35:35Z</time>
      </trkpt>
      <trkpt lat="44.93796" lon="2.49658">
        <ele>726.41</ele>
        <time>2021-08-16T06:35:44Z</time>
      </trkpt>
      <trkpt lat="44.93797" lon="2.49632">
        <ele>727.86</ele>
        <time>2021-08-16T06:35:52Z</time>
      </trkpt>
      <trkpt lat="44.93799" lon="2.496">
        <ele>729.3</ele>
        <time>2021-08-16T06:36:02Z</time>
      </trkpt>
      <trkpt lat="44.93804" lon="2.49576">
        <ele>730.74</ele>
        <time>2021-08-16T06:36:10Z</time>
      </trkpt>
      <trkpt lat="44.93815" lon="2.49543">
        <ele>731.7</ele>
        <time>2021-08-16T06:36:21Z</time>
      </trkpt>
      <trkpt lat="44.93825" lon="2.4952">
        <ele>731.7</ele>
        <time>2021-08-16T06:36:27Z</time>
      </trkpt>
      <trkpt lat="44.93828" lon="2.49504">
        <ele>731.7</ele>
        <time>2021-08-16T06:36:30Z</time>
      </trkpt>
      <trkpt lat="44.93828" lon="2.49498">
        <ele>731.7</ele>
        <time>2021-08-16T06:36:31Z</time>
      </trkpt>
      <trkpt lat="44.93827" lon="2.49493">
        <ele>731.7</ele>
        <time>2021-08-16T06:36:32Z</time>
      </trkpt>
      <trkpt lat="44.93824" lon="2.49487">
        <ele>731.7</ele>
        <time>2021-08-16T06:36:33Z</time>
      </trkpt>
      <trkpt lat="44.93821" lon="2.49482">
        <ele>731.7</ele>
        <time>2021-08-16T06:36:34Z</time>
      </trkpt>
      <trkpt lat="44.93816" lon="2.49479">
        <ele>731.7</ele>
        <time>2021-08-16T06:36:35Z</time>
      </trkpt>
      <trkpt lat="44.93811" lon="2.49476">
        <ele>730.26</ele>
        <time>2021-08-16T06:36:36Z</time>
      </trkpt>
      <trkpt lat="44.93805" lon="2.49475">
        <ele>730.26</ele>
        <time>2021-08-16T06:36:37Z</time>
      </trkpt>
      <trkpt lat="44.938" lon="2.49474">
        <ele>729.78</ele>
        <time>2021-08-16T06:36:38Z</time>
      </trkpt>
      <trkpt lat="44.93772" lon="2.49468">
        <ele>729.78</ele>
        <time>2021-08-16T06:36:44Z</time>
      </trkpt>
      <trkpt lat="44.93749" lon="2.49457">
        <ele>731.7</ele>
        <time>2021-08-16T06:36:51Z</time>
      </trkpt>
      <trkpt lat="44.93719" lon="2.49438">
        <ele>733.62</ele>
        <time>2021-08-16T06:37:01Z</time>
      </trkpt>
      <trkpt lat="44.93695" lon="2.49416">
        <ele>734.58</ele>
        <time>2021-08-16T06:37:11Z</time>
      </trkpt>
      <trkpt lat="44.93677" lon="2.49394">
        <ele>736.03</ele>
        <time>2021-08-16T06:37:19Z</time>
      </trkpt>
      <trkpt lat="44.93669" lon="2.49381">
        <ele>736.51</ele>
        <time>2021-08-16T06:37:24Z</time>
      </trkpt>
      <trkpt lat="44.9366" lon="2.4936">
        <ele>737.95</ele>
        <time>2021-08-16T06:37:32Z</time>
      </trkpt>
      <trkpt lat="44.93649" lon="2.4933">
        <ele>739.87</ele>
        <time>2021-08-16T06:37:43Z</time>
      </trkpt>
      <trkpt lat="44.93643" lon="2.49308">
        <ele>740.83</ele>
        <time>2021-08-16T06:37:51Z</time>
      </trkpt>
      <trkpt lat="44.93634" lon="2.49278">
        <ele>742.28</ele>
        <time>2021-08-16T06:38:01Z</time>
      </trkpt>
      <trkpt lat="44.93625" lon="2.4924">
        <ele>743.72</ele>
        <time>2021-08-16T06:38:13Z</time>
      </trkpt>
      <trkpt lat="44.93621" lon="2.49202">
        <ele>744.68</ele>
        <time>2021-08-16T06:38:22Z</time>
      </trkpt>
      <trkpt lat="44.93618" lon="2.49164">
        <ele>745.64</ele>
        <time>2021-08-16T06:38:31Z</time>
      </trkpt>
      <trkpt lat="44.93615" lon="2.49129">
        <ele>746.12</ele>
        <time>2021-08-16T06:38:39Z</time>
      </trkpt>
      <trkpt lat="44.93609" lon="2.49087">
        <ele>746.12</ele>
        <time>2021-08-16T06:38:46Z</time>
      </trkpt>
      <trkpt lat="44.936" lon="2.49053">
        <ele>744.68</ele>
        <time>2021-08-16T06:38:51Z</time>
      </trkpt>
      <trkpt lat="44.93597" lon="2.49048">
        <ele>744.68</ele>
        <time>2021-08-16T06:38:52Z</time>
      </trkpt>
      <trkpt lat="44.93594" lon="2.49042">
        <ele>744.68</ele>
        <time>2021-08-16T06:38:53Z</time>
      </trkpt>
      <trkpt lat="44.9359" lon="2.49038">
        <ele>744.68</ele>
        <time>2021-08-16T06:38:54Z</time>
      </trkpt>
      <trkpt lat="44.93587" lon="2.49036">
        <ele>744.68</ele>
        <time>2021-08-16T06:38:55Z</time>
      </trkpt>
      <trkpt lat="44.93583" lon="2.49033">
        <ele>744.68</ele>
        <time>2021-08-16T06:38:56Z</time>
      </trkpt>
      <trkpt lat="44.93551" lon="2.49015">
        <ele>746.6</ele>
        <time>2021-08-16T06:39:05Z</time>
      </trkpt>
      <trkpt lat="44.9353" lon="2.48999">
        <ele>748.52</ele>
        <time>2021-08-16T06:39:13Z</time>
      </trkpt>
      <trkpt lat="44.93511" lon="2.48977">
        <ele>749.97</ele>
        <time>2021-08-16T06:39:21Z</time>
      </trkpt>
      <trkpt lat="44.93484" lon="2.4895">
        <ele>751.41</ele>
        <time>2021-08-16T06:39:31Z</time>
      </trkpt>
      <trkpt lat="44.93458" lon="2.48918">
        <ele>751.89</ele>
        <time>2021-08-16T06:39:41Z</time>
      </trkpt>
      <trkpt lat="44.93439" lon="2.48892">
        <ele>753.33</ele>
        <time>2021-08-16T06:39:50Z</time>
      </trkpt>
      <trkpt lat="44.93424" lon="2.4886">
        <ele>754.29</ele>
        <time>2021-08-16T06:40:00Z</time>
      </trkpt>
      <trkpt lat="44.93419" lon="2.48831">
        <ele>756.69</ele>
        <time>2021-08-16T06:40:08Z</time>
      </trkpt>
      <trkpt lat="44.93416" lon="2.48796">
        <ele>757.66</ele>
        <time>2021-08-16T06:40:17Z</time>
      </trkpt>
      <trkpt lat="44.93417" lon="2.48753">
        <ele>759.58</ele>
        <time>2021-08-16T06:40:28Z</time>
      </trkpt>
      <trkpt lat="44.9342" lon="2.48719">
        <ele>760.54</ele>
        <time>2021-08-16T06:40:37Z</time>
      </trkpt>
      <trkpt lat="44.93425" lon="2.48678">
        <ele>761.98</ele>
        <time>2021-08-16T06:40:48Z</time>
      </trkpt>
      <trkpt lat="44.93432" lon="2.48644">
        <ele>762.94</ele>
        <time>2021-08-16T06:40:57Z</time>
      </trkpt>
      <trkpt lat="44.93441" lon="2.48609">
        <ele>763.42</ele>
        <time>2021-08-16T06:41:06Z</time>
      </trkpt>
      <trkpt lat="44.93449" lon="2.48579">
        <ele>764.87</ele>
        <time>2021-08-16T06:41:15Z</time>
      </trkpt>
      <trkpt lat="44.93456" lon="2.48554">
        <ele>765.83</ele>
        <time>2021-08-16T06:41:23Z</time>
      </trkpt>
      <trkpt lat="44.93464" lon="2.48522">
        <ele>767.75</ele>
        <time>2021-08-16T06:41:33Z</time>
      </trkpt>
      <trkpt lat="44.93472" lon="2.48492">
        <ele>769.67</ele>
        <time>2021-08-16T06:41:43Z</time>
      </trkpt>
      <trkpt lat="44.93478" lon="2.4847">
        <ele>771.11</ele>
        <time>2021-08-16T06:41:51Z</time>
      </trkpt>
      <trkpt lat="44.93484" lon="2.48447">
        <ele>772.56</ele>
        <time>2021-08-16T06:42:00Z</time>
      </trkpt>
      <trkpt lat="44.93487" lon="2.48416">
        <ele>774.48</ele>
        <time>2021-08-16T06:42:09Z</time>
      </trkpt>
      <trkpt lat="44.93485" lon="2.4839">
        <ele>775.44</ele>
        <time>2021-08-16T06:42:17Z</time>
      </trkpt>
      <trkpt lat="44.9348" lon="2.48374">
        <ele>776.4</ele>
        <time>2021-08-16T06:42:24Z</time>
      </trkpt>
      <trkpt lat="44.93469" lon="2.48347">
        <ele>777.84</ele>
        <time>2021-08-16T06:42:33Z</time>
      </trkpt>
      <trkpt lat="44.9346" lon="2.48309">
        <ele>779.29</ele>
        <time>2021-08-16T06:42:44Z</time>
      </trkpt>
      <trkpt lat="44.93456" lon="2.48283">
        <ele>780.25</ele>
        <time>2021-08-16T06:42:51Z</time>
      </trkpt>
      <trkpt lat="44.93456" lon="2.48246">
        <ele>780.25</ele>
        <time>2021-08-16T06:42:58Z</time>
      </trkpt>
      <trkpt lat="44.93459" lon="2.482">
        <ele>778.81</ele>
        <time>2021-08-16T06:43:05Z</time>
      </trkpt>
      <trkpt lat="44.93461" lon="2.48186">
        <ele>777.84</ele>
        <time>2021-08-16T06:43:07Z</time>
      </trkpt>
      <trkpt lat="44.93462" lon="2.48178">
        <ele>777.84</ele>
        <time>2021-08-16T06:43:08Z</time>
      </trkpt>
      <trkpt lat="44.93464" lon="2.48118">
        <ele>777.36</ele>
        <time>2021-08-16T06:43:16Z</time>
      </trkpt>
      <trkpt lat="44.93469" lon="2.48074">
        <ele>777.84</ele>
        <time>2021-08-16T06:43:23Z</time>
      </trkpt>
      <trkpt lat="44.93474" lon="2.48023">
        <ele>777.36</ele>
        <time>2021-08-16T06:43:30Z</time>
      </trkpt>
      <trkpt lat="44.9348" lon="2.47965">
        <ele>777.36</ele>
        <time>2021-08-16T06:43:37Z</time>
      </trkpt>
      <trkpt lat="44.93485" lon="2.47927">
        <ele>778.32</ele>
        <time>2021-08-16T06:43:43Z</time>
      </trkpt>
      <trkpt lat="44.93486" lon="2.47904">
        <ele>779.77</ele>
        <time>2021-08-16T06:43:49Z</time>
      </trkpt>
      <trkpt lat="44.93486" lon="2.479">
        <ele>779.77</ele>
        <time>2021-08-16T06:43:50Z</time>
      </trkpt>
      <trkpt lat="44.93481" lon="2.47869">
        <ele>780.73</ele>
        <time>2021-08-16T06:43:57Z</time>
      </trkpt>
      <trkpt lat="44.93472" lon="2.47837">
        <ele>782.17</ele>
        <time>2021-08-16T06:44:05Z</time>
      </trkpt>
      <trkpt lat="44.93462" lon="2.47808">
        <ele>782.17</ele>
        <time>2021-08-16T06:44:12Z</time>
      </trkpt>
      <trkpt lat="44.93452" lon="2.47775">
        <ele>783.61</ele>
        <time>2021-08-16T06:44:19Z</time>
      </trkpt>
      <trkpt lat="44.93445" lon="2.47735">
        <ele>784.09</ele>
        <time>2021-08-16T06:44:26Z</time>
      </trkpt>
      <trkpt lat="44.9344" lon="2.477">
        <ele>784.09</ele>
        <time>2021-08-16T06:44:31Z</time>
      </trkpt>
      <trkpt lat="44.93439" lon="2.47693">
        <ele>783.13</ele>
        <time>2021-08-16T06:44:32Z</time>
      </trkpt>
      <trkpt lat="44.93436" lon="2.47663">
        <ele>783.13</ele>
        <time>2021-08-16T06:44:36Z</time>
      </trkpt>
      <trkpt lat="44.93436" lon="2.47657">
        <ele>783.13</ele>
        <time>2021-08-16T06:44:37Z</time>
      </trkpt>
      <trkpt lat="44.93434" lon="2.47638">
        <ele>782.65</ele>
        <time>2021-08-16T06:44:40Z</time>
      </trkpt>
      <trkpt lat="44.93433" lon="2.47609">
        <ele>782.65</ele>
        <time>2021-08-16T06:44:46Z</time>
      </trkpt>
      <trkpt lat="44.93435" lon="2.47605">
        <ele>782.65</ele>
        <time>2021-08-16T06:44:51Z</time>
      </trkpt>
      <trkpt lat="44.93435" lon="2.47607">
        <ele>782.65</ele>
        <time>2021-08-16T06:44:52Z</time>
      </trkpt>
      <trkpt lat="44.93435" lon="2.47609">
        <ele>782.65</ele>
        <time>2021-08-16T06:44:53Z</time>
      </trkpt>
      <trkpt lat="44.93436" lon="2.47611">
        <ele>782.65</ele>
        <time>2021-08-16T06:44:54Z</time>
      </trkpt>
      <trkpt lat="44.93435" lon="2.47614">
        <ele>782.65</ele>
        <time>2021-08-16T06:44:55Z</time>
      </trkpt>
      <trkpt lat="44.93436" lon="2.47618">
        <ele>782.65</ele>
        <time>2021-08-16T06:44:56Z</time>
      </trkpt>
      <trkpt lat="44.93436" lon="2.47623">
        <ele>782.65</ele>
        <time>2021-08-16T06:44:57Z</time>
      </trkpt>
      <trkpt lat="44.93438" lon="2.47652">
        <ele>782.65</ele>
        <time>2021-08-16T06:45:02Z</time>
      </trkpt>
      <trkpt lat="44.93438" lon="2.47659">
        <ele>782.65</ele>
        <time>2021-08-16T06:45:03Z</time>
      </trkpt>
      <trkpt lat="44.93443" lon="2.47709">
        <ele>783.61</ele>
        <time>2021-08-16T06:45:11Z</time>
      </trkpt>
      <trkpt lat="44.93445" lon="2.47715">
        <ele>783.61</ele>
        <time>2021-08-16T06:45:12Z</time>
      </trkpt>
      <trkpt lat="44.93446" lon="2.4772">
        <ele>784.09</ele>
        <time>2021-08-16T06:45:13Z</time>
      </trkpt>
      <trkpt lat="44.93447" lon="2.47726">
        <ele>784.09</ele>
        <time>2021-08-16T06:45:14Z</time>
      </trkpt>
      <trkpt lat="44.93448" lon="2.47732">
        <ele>784.09</ele>
        <time>2021-08-16T06:45:15Z</time>
      </trkpt>
      <trkpt lat="44.93457" lon="2.47777">
        <ele>784.57</ele>
        <time>2021-08-16T06:45:23Z</time>
      </trkpt>
      <trkpt lat="44.93464" lon="2.47795">
        <ele>783.61</ele>
        <time>2021-08-16T06:45:26Z</time>
      </trkpt>
      <trkpt lat="44.93472" lon="2.47814">
        <ele>782.65</ele>
        <time>2021-08-16T06:45:31Z</time>
      </trkpt>
      <trkpt lat="44.9348" lon="2.4784">
        <ele>781.69</ele>
        <time>2021-08-16T06:45:37Z</time>
      </trkpt>
      <trkpt lat="44.93483" lon="2.47865">
        <ele>780.73</ele>
        <time>2021-08-16T06:45:42Z</time>
      </trkpt>
      <trkpt lat="44.93484" lon="2.47878">
        <ele>780.73</ele>
        <time>2021-08-16T06:45:44Z</time>
      </trkpt>
      <trkpt lat="44.93483" lon="2.47884">
        <ele>780.25</ele>
        <time>2021-08-16T06:45:45Z</time>
      </trkpt>
      <trkpt lat="44.93482" lon="2.47896">
        <ele>780.25</ele>
        <time>2021-08-16T06:45:49Z</time>
      </trkpt>
      <trkpt lat="44.93483" lon="2.47895">
        <ele>780.25</ele>
        <time>2021-08-16T06:45:53Z</time>
      </trkpt>
      <trkpt lat="44.93483" lon="2.47893">
        <ele>780.25</ele>
        <time>2021-08-16T06:45:54Z</time>
      </trkpt>
      <trkpt lat="44.93484" lon="2.4789">
        <ele>780.25</ele>
        <time>2021-08-16T06:45:55Z</time>
      </trkpt>
      <trkpt lat="44.93484" lon="2.47862">
        <ele>780.25</ele>
        <time>2021-08-16T06:46:02Z</time>
      </trkpt>
      <trkpt lat="44.93483" lon="2.47853">
        <ele>782.17</ele>
        <time>2021-08-16T06:46:04Z</time>
      </trkpt>
      <trkpt lat="44.93475" lon="2.47829">
        <ele>782.65</ele>
        <time>2021-08-16T06:46:11Z</time>
      </trkpt>
      <trkpt lat="44.93467" lon="2.47806">
        <ele>783.13</ele>
        <time>2021-08-16T06:46:17Z</time>
      </trkpt>
      <trkpt lat="44.93459" lon="2.4778">
        <ele>784.09</ele>
        <time>2021-08-16T06:46:23Z</time>
      </trkpt>
      <trkpt lat="44.93449" lon="2.4774">
        <ele>785.05</ele>
        <time>2021-08-16T06:46:32Z</time>
      </trkpt>
      <trkpt lat="44.93443" lon="2.47699">
        <ele>785.05</ele>
        <time>2021-08-16T06:46:39Z</time>
      </trkpt>
      <trkpt lat="44.93438" lon="2.47643">
        <ele>783.61</ele>
        <time>2021-08-16T06:46:47Z</time>
      </trkpt>
      <trkpt lat="44.93438" lon="2.47637">
        <ele>783.61</ele>
        <time>2021-08-16T06:46:48Z</time>
      </trkpt>
      <trkpt lat="44.93437" lon="2.47631">
        <ele>783.61</ele>
        <time>2021-08-16T06:46:49Z</time>
      </trkpt>
      <trkpt lat="44.93437" lon="2.47593">
        <ele>783.61</ele>
        <time>2021-08-16T06:46:56Z</time>
      </trkpt>
      <trkpt lat="44.93439" lon="2.4758">
        <ele>783.61</ele>
        <time>2021-08-16T06:46:58Z</time>
      </trkpt>
      <trkpt lat="44.9344" lon="2.47573">
        <ele>783.61</ele>
        <time>2021-08-16T06:46:59Z</time>
      </trkpt>
      <trkpt lat="44.93441" lon="2.47566">
        <ele>783.61</ele>
        <time>2021-08-16T06:47:00Z</time>
      </trkpt>
      <trkpt lat="44.93447" lon="2.47523">
        <ele>783.61</ele>
        <time>2021-08-16T06:47:07Z</time>
      </trkpt>
      <trkpt lat="44.93447" lon="2.47514">
        <ele>785.05</ele>
        <time>2021-08-16T06:47:09Z</time>
      </trkpt>
      <trkpt lat="44.93447" lon="2.47497">
        <ele>785.05</ele>
        <time>2021-08-16T06:47:12Z</time>
      </trkpt>
      <trkpt lat="44.93446" lon="2.4749">
        <ele>785.05</ele>
        <time>2021-08-16T06:47:13Z</time>
      </trkpt>
      <trkpt lat="44.93445" lon="2.47483">
        <ele>783.61</ele>
        <time>2021-08-16T06:47:14Z</time>
      </trkpt>
      <trkpt lat="44.93445" lon="2.47474">
        <ele>783.61</ele>
        <time>2021-08-16T06:47:15Z</time>
      </trkpt>
      <trkpt lat="44.93443" lon="2.47466">
        <ele>783.13</ele>
        <time>2021-08-16T06:47:16Z</time>
      </trkpt>
      <trkpt lat="44.93441" lon="2.47458">
        <ele>783.61</ele>
        <time>2021-08-16T06:47:17Z</time>
      </trkpt>
      <trkpt lat="44.93436" lon="2.47432">
        <ele>782.17</ele>
        <time>2021-08-16T06:47:20Z</time>
      </trkpt>
      <trkpt lat="44.93435" lon="2.47424">
        <ele>782.17</ele>
        <time>2021-08-16T06:47:21Z</time>
      </trkpt>
      <trkpt lat="44.93433" lon="2.47416">
        <ele>782.17</ele>
        <time>2021-08-16T06:47:22Z</time>
      </trkpt>
      <trkpt lat="44.93431" lon="2.47409">
        <ele>782.17</ele>
        <time>2021-08-16T06:47:23Z</time>
      </trkpt>
      <trkpt lat="44.93428" lon="2.47401">
        <ele>782.17</ele>
        <time>2021-08-16T06:47:24Z</time>
      </trkpt>
      <trkpt lat="44.93409" lon="2.47357">
        <ele>781.69</ele>
        <time>2021-08-16T06:47:30Z</time>
      </trkpt>
      <trkpt lat="44.93385" lon="2.47321">
        <ele>781.21</ele>
        <time>2021-08-16T06:47:37Z</time>
      </trkpt>
      <trkpt lat="44.93387" lon="2.47315">
        <ele>781.21</ele>
        <time>2021-08-16T06:47:43Z</time>
      </trkpt>
      <trkpt lat="44.93389" lon="2.4731">
        <ele>781.21</ele>
        <time>2021-08-16T06:47:59Z</time>
      </trkpt>
      <trkpt lat="44.93389" lon="2.4731">
        <ele>781.21</ele>
        <time>2021-08-16T06:48:06Z</time>
      </trkpt>
      <trkpt lat="44.93388" lon="2.47309">
        <ele>781.21</ele>
        <time>2021-08-16T06:48:07Z</time>
      </trkpt>
      <trkpt lat="44.93386" lon="2.47307">
        <ele>781.21</ele>
        <time>2021-08-16T06:48:08Z</time>
      </trkpt>
      <trkpt lat="44.93385" lon="2.47305">
        <ele>781.21</ele>
        <time>2021-08-16T06:48:09Z</time>
      </trkpt>
      <trkpt lat="44.93383" lon="2.47303">
        <ele>780.73</ele>
        <time>2021-08-16T06:48:10Z</time>
      </trkpt>
      <trkpt lat="44.93365" lon="2.47272">
        <ele>779.77</ele>
        <time>2021-08-16T06:48:17Z</time>
      </trkpt>
      <trkpt lat="44.93362" lon="2.47266">
        <ele>778.81</ele>
        <time>2021-08-16T06:48:18Z</time>
      </trkpt>
      <trkpt lat="44.93354" lon="2.47246">
        <ele>777.84</ele>
        <time>2021-08-16T06:48:21Z</time>
      </trkpt>
      <trkpt lat="44.93351" lon="2.47239">
        <ele>777.84</ele>
        <time>2021-08-16T06:48:22Z</time>
      </trkpt>
      <trkpt lat="44.93348" lon="2.47231">
        <ele>777.36</ele>
        <time>2021-08-16T06:48:23Z</time>
      </trkpt>
      <trkpt lat="44.93324" lon="2.47167">
        <ele>775.92</ele>
        <time>2021-08-16T06:48:31Z</time>
      </trkpt>
      <trkpt lat="44.93307" lon="2.47127">
        <ele>775.92</ele>
        <time>2021-08-16T06:48:36Z</time>
      </trkpt>
      <trkpt lat="44.9329" lon="2.47072">
        <ele>775.44</ele>
        <time>2021-08-16T06:48:43Z</time>
      </trkpt>
      <trkpt lat="44.93273" lon="2.47018">
        <ele>776.88</ele>
        <time>2021-08-16T06:48:51Z</time>
      </trkpt>
      <trkpt lat="44.93257" lon="2.46982">
        <ele>778.32</ele>
        <time>2021-08-16T06:48:58Z</time>
      </trkpt>
      <trkpt lat="44.93236" lon="2.4696">
        <ele>779.77</ele>
        <time>2021-08-16T06:49:06Z</time>
      </trkpt>
      <trkpt lat="44.93219" lon="2.46936">
        <ele>781.69</ele>
        <time>2021-08-16T06:49:15Z</time>
      </trkpt>
      <trkpt lat="44.93206" lon="2.4691">
        <ele>782.17</ele>
        <time>2021-08-16T06:49:23Z</time>
      </trkpt>
      <trkpt lat="44.93193" lon="2.4687">
        <ele>780.25</ele>
        <time>2021-08-16T06:49:29Z</time>
      </trkpt>
      <trkpt lat="44.93174" lon="2.46805">
        <ele>777.84</ele>
        <time>2021-08-16T06:49:36Z</time>
      </trkpt>
      <trkpt lat="44.9317" lon="2.46788">
        <ele>777.36</ele>
        <time>2021-08-16T06:49:38Z</time>
      </trkpt>
      <trkpt lat="44.9317" lon="2.4678">
        <ele>777.36</ele>
        <time>2021-08-16T06:49:39Z</time>
      </trkpt>
      <trkpt lat="44.93172" lon="2.46775">
        <ele>777.36</ele>
        <time>2021-08-16T06:49:40Z</time>
      </trkpt>
      <trkpt lat="44.93175" lon="2.46772">
        <ele>776.88</ele>
        <time>2021-08-16T06:49:41Z</time>
      </trkpt>
      <trkpt lat="44.93178" lon="2.4677">
        <ele>777.36</ele>
        <time>2021-08-16T06:49:42Z</time>
      </trkpt>
      <trkpt lat="44.93181" lon="2.4677">
        <ele>777.36</ele>
        <time>2021-08-16T06:49:43Z</time>
      </trkpt>
      <trkpt lat="44.93184" lon="2.46772">
        <ele>777.36</ele>
        <time>2021-08-16T06:49:44Z</time>
      </trkpt>
      <trkpt lat="44.93187" lon="2.46774">
        <ele>777.36</ele>
        <time>2021-08-16T06:49:45Z</time>
      </trkpt>
      <trkpt lat="44.93188" lon="2.46776">
        <ele>777.36</ele>
        <time>2021-08-16T06:49:46Z</time>
      </trkpt>
      <trkpt lat="44.93189" lon="2.46778">
        <ele>778.81</ele>
        <time>2021-08-16T06:49:47Z</time>
      </trkpt>
      <trkpt lat="44.9319" lon="2.46781">
        <ele>778.81</ele>
        <time>2021-08-16T06:49:48Z</time>
      </trkpt>
      <trkpt lat="44.93192" lon="2.46787">
        <ele>778.81</ele>
        <time>2021-08-16T06:49:51Z</time>
      </trkpt>
      <trkpt lat="44.93194" lon="2.46788">
        <ele>778.81</ele>
        <time>2021-08-16T06:49:52Z</time>
      </trkpt>
      <trkpt lat="44.93195" lon="2.46789">
        <ele>778.81</ele>
        <time>2021-08-16T06:49:53Z</time>
      </trkpt>
      <trkpt lat="44.93196" lon="2.4679">
        <ele>778.81</ele>
        <time>2021-08-16T06:49:54Z</time>
      </trkpt>
      <trkpt lat="44.93198" lon="2.46792">
        <ele>779.29</ele>
        <time>2021-08-16T06:49:55Z</time>
      </trkpt>
      <trkpt lat="44.93199" lon="2.46793">
        <ele>779.29</ele>
        <time>2021-08-16T06:49:56Z</time>
      </trkpt>
      <trkpt lat="44.93201" lon="2.46795">
        <ele>779.29</ele>
        <time>2021-08-16T06:49:57Z</time>
      </trkpt>
      <trkpt lat="44.93202" lon="2.46797">
        <ele>779.77</ele>
        <time>2021-08-16T06:49:58Z</time>
      </trkpt>
      <trkpt lat="44.93203" lon="2.46798">
        <ele>779.77</ele>
        <time>2021-08-16T06:49:59Z</time>
      </trkpt>
      <trkpt lat="44.93205" lon="2.468">
        <ele>779.77</ele>
        <time>2021-08-16T06:50:00Z</time>
      </trkpt>
      <trkpt lat="44.93215" lon="2.46811">
        <ele>781.21</ele>
        <time>2021-08-16T06:50:08Z</time>
      </trkpt>
      <trkpt lat="44.93223" lon="2.46817">
        <ele>783.13</ele>
        <time>2021-08-16T06:50:15Z</time>
      </trkpt>
      <trkpt lat="44.93234" lon="2.46822">
        <ele>784.57</ele>
        <time>2021-08-16T06:50:23Z</time>
      </trkpt>
      <trkpt lat="44.93235" lon="2.46821">
        <ele>784.57</ele>
        <time>2021-08-16T06:50:24Z</time>
      </trkpt>
      <trkpt lat="44.93235" lon="2.46819">
        <ele>784.57</ele>
        <time>2021-08-16T06:50:25Z</time>
      </trkpt>
      <trkpt lat="44.93236" lon="2.46813">
        <ele>785.05</ele>
        <time>2021-08-16T06:50:29Z</time>
      </trkpt>
      <trkpt lat="44.93244" lon="2.46792">
        <ele>786.5</ele>
        <time>2021-08-16T06:50:38Z</time>
      </trkpt>
      <trkpt lat="44.93256" lon="2.4677">
        <ele>784.57</ele>
        <time>2021-08-16T06:50:44Z</time>
      </trkpt>
      <trkpt lat="44.93269" lon="2.46749">
        <ele>783.61</ele>
        <time>2021-08-16T06:50:50Z</time>
      </trkpt>
      <trkpt lat="44.93285" lon="2.46725">
        <ele>782.65</ele>
        <time>2021-08-16T06:50:56Z</time>
      </trkpt>
      <trkpt lat="44.93291" lon="2.46715">
        <ele>782.17</ele>
        <time>2021-08-16T06:50:58Z</time>
      </trkpt>
      <trkpt lat="44.93295" lon="2.46711">
        <ele>782.17</ele>
        <time>2021-08-16T06:50:59Z</time>
      </trkpt>
      <trkpt lat="44.93299" lon="2.46709">
        <ele>782.17</ele>
        <time>2021-08-16T06:51:00Z</time>
      </trkpt>
      <trkpt lat="44.93302" lon="2.46708">
        <ele>782.17</ele>
        <time>2021-08-16T06:51:01Z</time>
      </trkpt>
      <trkpt lat="44.93305" lon="2.46706">
        <ele>783.61</ele>
        <time>2021-08-16T06:51:02Z</time>
      </trkpt>
      <trkpt lat="44.93308" lon="2.46705">
        <ele>783.61</ele>
        <time>2021-08-16T06:51:03Z</time>
      </trkpt>
      <trkpt lat="44.9331" lon="2.46703">
        <ele>783.61</ele>
        <time>2021-08-16T06:51:04Z</time>
      </trkpt>
      <trkpt lat="44.93312" lon="2.467">
        <ele>783.61</ele>
        <time>2021-08-16T06:51:05Z</time>
      </trkpt>
      <trkpt lat="44.93315" lon="2.46694">
        <ele>781.21</ele>
        <time>2021-08-16T06:51:06Z</time>
      </trkpt>
      <trkpt lat="44.93317" lon="2.46688">
        <ele>779.77</ele>
        <time>2021-08-16T06:51:07Z</time>
      </trkpt>
      <trkpt lat="44.93327" lon="2.46663">
        <ele>775.92</ele>
        <time>2021-08-16T06:51:10Z</time>
      </trkpt>
      <trkpt lat="44.93329" lon="2.46657">
        <ele>774.96</ele>
        <time>2021-08-16T06:51:11Z</time>
      </trkpt>
      <trkpt lat="44.93334" lon="2.46639">
        <ele>773.04</ele>
        <time>2021-08-16T06:51:13Z</time>
      </trkpt>
      <trkpt lat="44.93341" lon="2.46615">
        <ele>769.67</ele>
        <time>2021-08-16T06:51:16Z</time>
      </trkpt>
      <trkpt lat="44.93344" lon="2.46607">
        <ele>768.71</ele>
        <time>2021-08-16T06:51:17Z</time>
      </trkpt>
      <trkpt lat="44.93346" lon="2.46599">
        <ele>768.23</ele>
        <time>2021-08-16T06:51:18Z</time>
      </trkpt>
      <trkpt lat="44.93352" lon="2.46576">
        <ele>764.87</ele>
        <time>2021-08-16T06:51:22Z</time>
      </trkpt>
      <trkpt lat="44.93354" lon="2.46571">
        <ele>764.39</ele>
        <time>2021-08-16T06:51:23Z</time>
      </trkpt>
      <trkpt lat="44.93355" lon="2.46565">
        <ele>762.94</ele>
        <time>2021-08-16T06:51:24Z</time>
      </trkpt>
      <trkpt lat="44.9336" lon="2.46549">
        <ele>760.06</ele>
        <time>2021-08-16T06:51:26Z</time>
      </trkpt>
      <trkpt lat="44.93371" lon="2.46512">
        <ele>756.69</ele>
        <time>2021-08-16T06:51:31Z</time>
      </trkpt>
      <trkpt lat="44.93372" lon="2.46506">
        <ele>756.69</ele>
        <time>2021-08-16T06:51:32Z</time>
      </trkpt>
      <trkpt lat="44.93374" lon="2.46499">
        <ele>755.73</ele>
        <time>2021-08-16T06:51:33Z</time>
      </trkpt>
      <trkpt lat="44.93382" lon="2.46479">
        <ele>753.33</ele>
        <time>2021-08-16T06:51:36Z</time>
      </trkpt>
      <trkpt lat="44.93387" lon="2.46457">
        <ele>749.97</ele>
        <time>2021-08-16T06:51:39Z</time>
      </trkpt>
      <trkpt lat="44.93388" lon="2.4645">
        <ele>749.49</ele>
        <time>2021-08-16T06:51:40Z</time>
      </trkpt>
      <trkpt lat="44.93389" lon="2.46442">
        <ele>748.52</ele>
        <time>2021-08-16T06:51:41Z</time>
      </trkpt>
      <trkpt lat="44.9339" lon="2.46435">
        <ele>748.52</ele>
        <time>2021-08-16T06:51:42Z</time>
      </trkpt>
      <trkpt lat="44.93394" lon="2.46412">
        <ele>745.64</ele>
        <time>2021-08-16T06:51:45Z</time>
      </trkpt>
      <trkpt lat="44.93401" lon="2.46367">
        <ele>741.31</ele>
        <time>2021-08-16T06:51:51Z</time>
      </trkpt>
      <trkpt lat="44.93403" lon="2.46359">
        <ele>741.31</ele>
        <time>2021-08-16T06:51:52Z</time>
      </trkpt>
      <trkpt lat="44.93406" lon="2.46331">
        <ele>739.87</ele>
        <time>2021-08-16T06:51:55Z</time>
      </trkpt>
      <trkpt lat="44.93406" lon="2.46322">
        <ele>739.87</ele>
        <time>2021-08-16T06:51:56Z</time>
      </trkpt>
      <trkpt lat="44.93406" lon="2.46314">
        <ele>738.91</ele>
        <time>2021-08-16T06:51:57Z</time>
      </trkpt>
      <trkpt lat="44.93407" lon="2.46307">
        <ele>738.91</ele>
        <time>2021-08-16T06:51:58Z</time>
      </trkpt>
      <trkpt lat="44.93408" lon="2.463">
        <ele>738.43</ele>
        <time>2021-08-16T06:51:59Z</time>
      </trkpt>
      <trkpt lat="44.93408" lon="2.46295">
        <ele>737.47</ele>
        <time>2021-08-16T06:52:00Z</time>
      </trkpt>
      <trkpt lat="44.93407" lon="2.46291">
        <ele>736.99</ele>
        <time>2021-08-16T06:52:01Z</time>
      </trkpt>
      <trkpt lat="44.93403" lon="2.46288">
        <ele>736.03</ele>
        <time>2021-08-16T06:52:02Z</time>
      </trkpt>
      <trkpt lat="44.93398" lon="2.46285">
        <ele>735.55</ele>
        <time>2021-08-16T06:52:03Z</time>
      </trkpt>
      <trkpt lat="44.93392" lon="2.46284">
        <ele>734.1</ele>
        <time>2021-08-16T06:52:04Z</time>
      </trkpt>
      <trkpt lat="44.93386" lon="2.46285">
        <ele>733.14</ele>
        <time>2021-08-16T06:52:05Z</time>
      </trkpt>
      <trkpt lat="44.9338" lon="2.46288">
        <ele>732.18</ele>
        <time>2021-08-16T06:52:06Z</time>
      </trkpt>
      <trkpt lat="44.93373" lon="2.46291">
        <ele>730.74</ele>
        <time>2021-08-16T06:52:07Z</time>
      </trkpt>
      <trkpt lat="44.9335" lon="2.463">
        <ele>727.37</ele>
        <time>2021-08-16T06:52:11Z</time>
      </trkpt>
      <trkpt lat="44.93348" lon="2.46296">
        <ele>726.89</ele>
        <time>2021-08-16T06:52:12Z</time>
      </trkpt>
      <trkpt lat="44.93349" lon="2.46291">
        <ele>726.41</ele>
        <time>2021-08-16T06:52:13Z</time>
      </trkpt>
      <trkpt lat="44.9335" lon="2.46284">
        <ele>725.45</ele>
        <time>2021-08-16T06:52:14Z</time>
      </trkpt>
      <trkpt lat="44.93352" lon="2.46276">
        <ele>724.49</ele>
        <time>2021-08-16T06:52:15Z</time>
      </trkpt>
      <trkpt lat="44.93357" lon="2.46258">
        <ele>722.57</ele>
        <time>2021-08-16T06:52:17Z</time>
      </trkpt>
      <trkpt lat="44.9337" lon="2.46229">
        <ele>719.68</ele>
        <time>2021-08-16T06:52:20Z</time>
      </trkpt>
      <trkpt lat="44.93376" lon="2.4622">
        <ele>719.2</ele>
        <time>2021-08-16T06:52:21Z</time>
      </trkpt>
      <trkpt lat="44.934" lon="2.4619">
        <ele>715.84</ele>
        <time>2021-08-16T06:52:25Z</time>
      </trkpt>
      <trkpt lat="44.93411" lon="2.46178">
        <ele>713.44</ele>
        <time>2021-08-16T06:52:27Z</time>
      </trkpt>
      <trkpt lat="44.93415" lon="2.46172">
        <ele>711.99</ele>
        <time>2021-08-16T06:52:28Z</time>
      </trkpt>
      <trkpt lat="44.93425" lon="2.46158">
        <ele>709.11</ele>
        <time>2021-08-16T06:52:31Z</time>
      </trkpt>
      <trkpt lat="44.93426" lon="2.46154">
        <ele>708.15</ele>
        <time>2021-08-16T06:52:32Z</time>
      </trkpt>
      <trkpt lat="44.93425" lon="2.4615">
        <ele>707.67</ele>
        <time>2021-08-16T06:52:33Z</time>
      </trkpt>
      <trkpt lat="44.93421" lon="2.46146">
        <ele>707.19</ele>
        <time>2021-08-16T06:52:34Z</time>
      </trkpt>
      <trkpt lat="44.93417" lon="2.46142">
        <ele>706.23</ele>
        <time>2021-08-16T06:52:35Z</time>
      </trkpt>
      <trkpt lat="44.93411" lon="2.46139">
        <ele>705.26</ele>
        <time>2021-08-16T06:52:36Z</time>
      </trkpt>
      <trkpt lat="44.93403" lon="2.46137">
        <ele>703.82</ele>
        <time>2021-08-16T06:52:37Z</time>
      </trkpt>
      <trkpt lat="44.93387" lon="2.46129">
        <ele>700.46</ele>
        <time>2021-08-16T06:52:39Z</time>
      </trkpt>
      <trkpt lat="44.9338" lon="2.46122">
        <ele>699.5</ele>
        <time>2021-08-16T06:52:40Z</time>
      </trkpt>
      <trkpt lat="44.93374" lon="2.46112">
        <ele>698.53</ele>
        <time>2021-08-16T06:52:41Z</time>
      </trkpt>
      <trkpt lat="44.9337" lon="2.46102">
        <ele>698.53</ele>
        <time>2021-08-16T06:52:42Z</time>
      </trkpt>
      <trkpt lat="44.93354" lon="2.46064">
        <ele>699.98</ele>
        <time>2021-08-16T06:52:47Z</time>
      </trkpt>
      <trkpt lat="44.93352" lon="2.46059">
        <ele>699.98</ele>
        <time>2021-08-16T06:52:48Z</time>
      </trkpt>
      <trkpt lat="44.93339" lon="2.46028">
        <ele>700.94</ele>
        <time>2021-08-16T06:52:55Z</time>
      </trkpt>
      <trkpt lat="44.93327" lon="2.46002">
        <ele>698.05</ele>
        <time>2021-08-16T06:52:59Z</time>
      </trkpt>
      <trkpt lat="44.93324" lon="2.45991">
        <ele>697.09</ele>
        <time>2021-08-16T06:53:00Z</time>
      </trkpt>
      <trkpt lat="44.93322" lon="2.4598">
        <ele>695.65</ele>
        <time>2021-08-16T06:53:01Z</time>
      </trkpt>
      <trkpt lat="44.93321" lon="2.45969">
        <ele>694.69</ele>
        <time>2021-08-16T06:53:02Z</time>
      </trkpt>
      <trkpt lat="44.93321" lon="2.45958">
        <ele>694.69</ele>
        <time>2021-08-16T06:53:03Z</time>
      </trkpt>
      <trkpt lat="44.93319" lon="2.45938">
        <ele>694.69</ele>
        <time>2021-08-16T06:53:05Z</time>
      </trkpt>
      <trkpt lat="44.93309" lon="2.45883">
        <ele>691.33</ele>
        <time>2021-08-16T06:53:11Z</time>
      </trkpt>
      <trkpt lat="44.93307" lon="2.45874">
        <ele>691.33</ele>
        <time>2021-08-16T06:53:12Z</time>
      </trkpt>
      <trkpt lat="44.93302" lon="2.45848">
        <ele>690.36</ele>
        <time>2021-08-16T06:53:15Z</time>
      </trkpt>
      <trkpt lat="44.933" lon="2.45833">
        <ele>689.4</ele>
        <time>2021-08-16T06:53:17Z</time>
      </trkpt>
      <trkpt lat="44.93298" lon="2.45826">
        <ele>689.4</ele>
        <time>2021-08-16T06:53:18Z</time>
      </trkpt>
      <trkpt lat="44.93295" lon="2.45819">
        <ele>687.96</ele>
        <time>2021-08-16T06:53:19Z</time>
      </trkpt>
      <trkpt lat="44.9329" lon="2.45811">
        <ele>687.48</ele>
        <time>2021-08-16T06:53:20Z</time>
      </trkpt>
      <trkpt lat="44.93284" lon="2.45803">
        <ele>686.04</ele>
        <time>2021-08-16T06:53:21Z</time>
      </trkpt>
      <trkpt lat="44.93277" lon="2.45795">
        <ele>686.04</ele>
        <time>2021-08-16T06:53:22Z</time>
      </trkpt>
      <trkpt lat="44.9327" lon="2.45788">
        <ele>685.56</ele>
        <time>2021-08-16T06:53:23Z</time>
      </trkpt>
      <trkpt lat="44.93238" lon="2.45757">
        <ele>682.67</ele>
        <time>2021-08-16T06:53:28Z</time>
      </trkpt>
      <trkpt lat="44.93232" lon="2.45753">
        <ele>681.71</ele>
        <time>2021-08-16T06:53:29Z</time>
      </trkpt>
      <trkpt lat="44.93228" lon="2.4575">
        <ele>681.71</ele>
        <time>2021-08-16T06:53:30Z</time>
      </trkpt>
      <trkpt lat="44.93226" lon="2.45747">
        <ele>681.71</ele>
        <time>2021-08-16T06:53:31Z</time>
      </trkpt>
      <trkpt lat="44.93226" lon="2.45743">
        <ele>681.23</ele>
        <time>2021-08-16T06:53:32Z</time>
      </trkpt>
      <trkpt lat="44.93228" lon="2.45741">
        <ele>681.23</ele>
        <time>2021-08-16T06:53:33Z</time>
      </trkpt>
      <trkpt lat="44.9323" lon="2.45741">
        <ele>680.75</ele>
        <time>2021-08-16T06:53:34Z</time>
      </trkpt>
      <trkpt lat="44.93233" lon="2.45741">
        <ele>680.75</ele>
        <time>2021-08-16T06:53:35Z</time>
      </trkpt>
      <trkpt lat="44.93236" lon="2.45742">
        <ele>680.27</ele>
        <time>2021-08-16T06:53:36Z</time>
      </trkpt>
      <trkpt lat="44.93239" lon="2.45744">
        <ele>679.79</ele>
        <time>2021-08-16T06:53:37Z</time>
      </trkpt>
      <trkpt lat="44.93259" lon="2.45753">
        <ele>676.91</ele>
        <time>2021-08-16T06:53:41Z</time>
      </trkpt>
      <trkpt lat="44.93286" lon="2.45766">
        <ele>674.5</ele>
        <time>2021-08-16T06:53:45Z</time>
      </trkpt>
      <trkpt lat="44.93317" lon="2.45775">
        <ele>672.58</ele>
        <time>2021-08-16T06:53:50Z</time>
      </trkpt>
      <trkpt lat="44.93333" lon="2.45782">
        <ele>672.58</ele>
        <time>2021-08-16T06:53:53Z</time>
      </trkpt>
      <trkpt lat="44.93338" lon="2.45785">
        <ele>672.58</ele>
        <time>2021-08-16T06:53:54Z</time>
      </trkpt>
      <trkpt lat="44.93343" lon="2.45789">
        <ele>672.1</ele>
        <time>2021-08-16T06:53:55Z</time>
      </trkpt>
      <trkpt lat="44.93376" lon="2.45811">
        <ele>669.7</ele>
        <time>2021-08-16T06:54:01Z</time>
      </trkpt>
      <trkpt lat="44.93382" lon="2.45816">
        <ele>669.7</ele>
        <time>2021-08-16T06:54:02Z</time>
      </trkpt>
      <trkpt lat="44.93406" lon="2.45847">
        <ele>669.22</ele>
        <time>2021-08-16T06:54:08Z</time>
      </trkpt>
      <trkpt lat="44.93426" lon="2.45869">
        <ele>669.22</ele>
        <time>2021-08-16T06:54:15Z</time>
      </trkpt>
      <trkpt lat="44.93439" lon="2.4589">
        <ele>670.66</ele>
        <time>2021-08-16T06:54:21Z</time>
      </trkpt>
      <trkpt lat="44.93454" lon="2.45921">
        <ele>671.62</ele>
        <time>2021-08-16T06:54:29Z</time>
      </trkpt>
      <trkpt lat="44.9346" lon="2.45929">
        <ele>672.1</ele>
        <time>2021-08-16T06:54:33Z</time>
      </trkpt>
      <trkpt lat="44.93462" lon="2.4593">
        <ele>672.1</ele>
        <time>2021-08-16T06:54:34Z</time>
      </trkpt>
      <trkpt lat="44.93463" lon="2.4593">
        <ele>673.06</ele>
        <time>2021-08-16T06:54:35Z</time>
      </trkpt>
      <trkpt lat="44.93465" lon="2.45931">
        <ele>673.06</ele>
        <time>2021-08-16T06:54:36Z</time>
      </trkpt>
      <trkpt lat="44.93467" lon="2.45931">
        <ele>673.06</ele>
        <time>2021-08-16T06:54:37Z</time>
      </trkpt>
      <trkpt lat="44.93469" lon="2.45932">
        <ele>673.06</ele>
        <time>2021-08-16T06:54:38Z</time>
      </trkpt>
      <trkpt lat="44.93471" lon="2.45933">
        <ele>673.06</ele>
        <time>2021-08-16T06:54:39Z</time>
      </trkpt>
      <trkpt lat="44.93473" lon="2.45934">
        <ele>673.06</ele>
        <time>2021-08-16T06:54:40Z</time>
      </trkpt>
      <trkpt lat="44.93475" lon="2.45936">
        <ele>673.06</ele>
        <time>2021-08-16T06:54:41Z</time>
      </trkpt>
      <trkpt lat="44.93477" lon="2.45937">
        <ele>673.06</ele>
        <time>2021-08-16T06:54:42Z</time>
      </trkpt>
      <trkpt lat="44.93478" lon="2.45938">
        <ele>673.54</ele>
        <time>2021-08-16T06:54:43Z</time>
      </trkpt>
      <trkpt lat="44.93492" lon="2.45949">
        <ele>673.54</ele>
        <time>2021-08-16T06:54:50Z</time>
      </trkpt>
      <trkpt lat="44.93502" lon="2.45955">
        <ele>671.62</ele>
        <time>2021-08-16T06:54:53Z</time>
      </trkpt>
      <trkpt lat="44.93507" lon="2.45956">
        <ele>671.14</ele>
        <time>2021-08-16T06:54:54Z</time>
      </trkpt>
      <trkpt lat="44.93512" lon="2.45956">
        <ele>670.66</ele>
        <time>2021-08-16T06:54:55Z</time>
      </trkpt>
      <trkpt lat="44.93517" lon="2.45958">
        <ele>670.66</ele>
        <time>2021-08-16T06:54:56Z</time>
      </trkpt>
      <trkpt lat="44.93521" lon="2.45959">
        <ele>670.66</ele>
        <time>2021-08-16T06:54:57Z</time>
      </trkpt>
      <trkpt lat="44.93526" lon="2.45959">
        <ele>670.66</ele>
        <time>2021-08-16T06:54:58Z</time>
      </trkpt>
      <trkpt lat="44.93535" lon="2.4596">
        <ele>670.66</ele>
        <time>2021-08-16T06:55:01Z</time>
      </trkpt>
      <trkpt lat="44.93536" lon="2.45959">
        <ele>670.66</ele>
        <time>2021-08-16T06:55:02Z</time>
      </trkpt>
      <trkpt lat="44.93537" lon="2.45957">
        <ele>670.18</ele>
        <time>2021-08-16T06:55:03Z</time>
      </trkpt>
      <trkpt lat="44.93541" lon="2.45947">
        <ele>668.25</ele>
        <time>2021-08-16T06:55:08Z</time>
      </trkpt>
      <trkpt lat="44.93544" lon="2.45942">
        <ele>667.29</ele>
        <time>2021-08-16T06:55:13Z</time>
      </trkpt>
      <trkpt lat="44.93547" lon="2.45936">
        <ele>666.81</ele>
        <time>2021-08-16T06:55:18Z</time>
      </trkpt>
      <trkpt lat="44.93548" lon="2.45935">
        <ele>666.33</ele>
        <time>2021-08-16T06:55:19Z</time>
      </trkpt>
      <trkpt lat="44.93549" lon="2.45932">
        <ele>666.33</ele>
        <time>2021-08-16T06:55:20Z</time>
      </trkpt>
      <trkpt lat="44.93555" lon="2.45908">
        <ele>662.97</ele>
        <time>2021-08-16T06:55:26Z</time>
      </trkpt>
      <trkpt lat="44.93556" lon="2.45905">
        <ele>662.97</ele>
        <time>2021-08-16T06:55:27Z</time>
      </trkpt>
      <trkpt lat="44.93557" lon="2.45892">
        <ele>662.01</ele>
        <time>2021-08-16T06:55:32Z</time>
      </trkpt>
      <trkpt lat="44.93556" lon="2.45889">
        <ele>661.04</ele>
        <time>2021-08-16T06:55:33Z</time>
      </trkpt>
      <trkpt lat="44.93556" lon="2.45886">
        <ele>661.04</ele>
        <time>2021-08-16T06:55:34Z</time>
      </trkpt>
      <trkpt lat="44.93556" lon="2.45884">
        <ele>661.04</ele>
        <time>2021-08-16T06:55:35Z</time>
      </trkpt>
      <trkpt lat="44.93556" lon="2.45881">
        <ele>660.56</ele>
        <time>2021-08-16T06:55:36Z</time>
      </trkpt>
      <trkpt lat="44.93557" lon="2.45879">
        <ele>660.08</ele>
        <time>2021-08-16T06:55:37Z</time>
      </trkpt>
      <trkpt lat="44.93558" lon="2.45877">
        <ele>659.12</ele>
        <time>2021-08-16T06:55:38Z</time>
      </trkpt>
      <trkpt lat="44.9356" lon="2.45875">
        <ele>658.64</ele>
        <time>2021-08-16T06:55:39Z</time>
      </trkpt>
      <trkpt lat="44.93561" lon="2.45874">
        <ele>658.16</ele>
        <time>2021-08-16T06:55:40Z</time>
      </trkpt>
      <trkpt lat="44.93569" lon="2.45862">
        <ele>655.76</ele>
        <time>2021-08-16T06:55:46Z</time>
      </trkpt>
      <trkpt lat="44.93574" lon="2.45854">
        <ele>654.31</ele>
        <time>2021-08-16T06:55:50Z</time>
      </trkpt>
      <trkpt lat="44.93577" lon="2.45849">
        <ele>652.39</ele>
        <time>2021-08-16T06:55:54Z</time>
      </trkpt>
      <trkpt lat="44.93578" lon="2.45847">
        <ele>651.91</ele>
        <time>2021-08-16T06:55:55Z</time>
      </trkpt>
      <trkpt lat="44.9358" lon="2.45845">
        <ele>651.91</ele>
        <time>2021-08-16T06:55:56Z</time>
      </trkpt>
      <trkpt lat="44.93588" lon="2.4584">
        <ele>650.47</ele>
        <time>2021-08-16T06:56:00Z</time>
      </trkpt>
      <trkpt lat="44.93589" lon="2.4584">
        <ele>649.99</ele>
        <time>2021-08-16T06:56:01Z</time>
      </trkpt>
      <trkpt lat="44.9359" lon="2.4584">
        <ele>649.51</ele>
        <time>2021-08-16T06:56:02Z</time>
      </trkpt>
      <trkpt lat="44.93592" lon="2.4584">
        <ele>649.51</ele>
        <time>2021-08-16T06:56:03Z</time>
      </trkpt>
      <trkpt lat="44.93594" lon="2.4584">
        <ele>649.51</ele>
        <time>2021-08-16T06:56:04Z</time>
      </trkpt>
      <trkpt lat="44.93596" lon="2.4584">
        <ele>649.03</ele>
        <time>2021-08-16T06:56:05Z</time>
      </trkpt>
      <trkpt lat="44.93598" lon="2.45841">
        <ele>648.55</ele>
        <time>2021-08-16T06:56:06Z</time>
      </trkpt>
      <trkpt lat="44.936" lon="2.45842">
        <ele>648.07</ele>
        <time>2021-08-16T06:56:07Z</time>
      </trkpt>
      <trkpt lat="44.93603" lon="2.45842">
        <ele>648.07</ele>
        <time>2021-08-16T06:56:08Z</time>
      </trkpt>
      <trkpt lat="44.93605" lon="2.45843">
        <ele>647.59</ele>
        <time>2021-08-16T06:56:09Z</time>
      </trkpt>
      <trkpt lat="44.93609" lon="2.45844">
        <ele>647.1</ele>
        <time>2021-08-16T06:56:10Z</time>
      </trkpt>
      <trkpt lat="44.93629" lon="2.45842">
        <ele>643.26</ele>
        <time>2021-08-16T06:56:16Z</time>
      </trkpt>
      <trkpt lat="44.93645" lon="2.45827">
        <ele>640.86</ele>
        <time>2021-08-16T06:56:22Z</time>
      </trkpt>
      <trkpt lat="44.93647" lon="2.45823">
        <ele>640.38</ele>
        <time>2021-08-16T06:56:23Z</time>
      </trkpt>
      <trkpt lat="44.93648" lon="2.45817">
        <ele>640.38</ele>
        <time>2021-08-16T06:56:24Z</time>
      </trkpt>
      <trkpt lat="44.93652" lon="2.45792">
        <ele>637.49</ele>
        <time>2021-08-16T06:56:27Z</time>
      </trkpt>
      <trkpt lat="44.93654" lon="2.45785">
        <ele>637.01</ele>
        <time>2021-08-16T06:56:28Z</time>
      </trkpt>
      <trkpt lat="44.93659" lon="2.45778">
        <ele>636.53</ele>
        <time>2021-08-16T06:56:29Z</time>
      </trkpt>
      <trkpt lat="44.93664" lon="2.45772">
        <ele>636.05</ele>
        <time>2021-08-16T06:56:30Z</time>
      </trkpt>
      <trkpt lat="44.93669" lon="2.45768">
        <ele>636.05</ele>
        <time>2021-08-16T06:56:31Z</time>
      </trkpt>
      <trkpt lat="44.93688" lon="2.45752">
        <ele>635.09</ele>
        <time>2021-08-16T06:56:35Z</time>
      </trkpt>
      <trkpt lat="44.93691" lon="2.45748">
        <ele>634.61</ele>
        <time>2021-08-16T06:56:36Z</time>
      </trkpt>
      <trkpt lat="44.93692" lon="2.45744">
        <ele>634.61</ele>
        <time>2021-08-16T06:56:37Z</time>
      </trkpt>
      <trkpt lat="44.93693" lon="2.45739">
        <ele>634.61</ele>
        <time>2021-08-16T06:56:38Z</time>
      </trkpt>
      <trkpt lat="44.93691" lon="2.45735">
        <ele>634.61</ele>
        <time>2021-08-16T06:56:39Z</time>
      </trkpt>
      <trkpt lat="44.93689" lon="2.45731">
        <ele>634.61</ele>
        <time>2021-08-16T06:56:40Z</time>
      </trkpt>
      <trkpt lat="44.93687" lon="2.45727">
        <ele>634.61</ele>
        <time>2021-08-16T06:56:41Z</time>
      </trkpt>
      <trkpt lat="44.93675" lon="2.45709">
        <ele>636.05</ele>
        <time>2021-08-16T06:56:46Z</time>
      </trkpt>
      <trkpt lat="44.93653" lon="2.45675">
        <ele>636.05</ele>
        <time>2021-08-16T06:56:53Z</time>
      </trkpt>
      <trkpt lat="44.93617" lon="2.45623">
        <ele>636.05</ele>
        <time>2021-08-16T06:57:03Z</time>
      </trkpt>
      <trkpt lat="44.93596" lon="2.45587">
        <ele>636.05</ele>
        <time>2021-08-16T06:57:10Z</time>
      </trkpt>
      <trkpt lat="44.93593" lon="2.45582">
        <ele>636.05</ele>
        <time>2021-08-16T06:57:11Z</time>
      </trkpt>
      <trkpt lat="44.93591" lon="2.45578">
        <ele>636.05</ele>
        <time>2021-08-16T06:57:12Z</time>
      </trkpt>
      <trkpt lat="44.93589" lon="2.45572">
        <ele>636.05</ele>
        <time>2021-08-16T06:57:13Z</time>
      </trkpt>
      <trkpt lat="44.93588" lon="2.45566">
        <ele>636.05</ele>
        <time>2021-08-16T06:57:14Z</time>
      </trkpt>
      <trkpt lat="44.93587" lon="2.45558">
        <ele>636.05</ele>
        <time>2021-08-16T06:57:15Z</time>
      </trkpt>
      <trkpt lat="44.93584" lon="2.45544">
        <ele>636.05</ele>
        <time>2021-08-16T06:57:17Z</time>
      </trkpt>
      <trkpt lat="44.93578" lon="2.45519">
        <ele>635.09</ele>
        <time>2021-08-16T06:57:21Z</time>
      </trkpt>
      <trkpt lat="44.93577" lon="2.45507">
        <ele>635.09</ele>
        <time>2021-08-16T06:57:23Z</time>
      </trkpt>
      <trkpt lat="44.93577" lon="2.45502">
        <ele>635.09</ele>
        <time>2021-08-16T06:57:24Z</time>
      </trkpt>
      <trkpt lat="44.93578" lon="2.4549">
        <ele>635.09</ele>
        <time>2021-08-16T06:57:29Z</time>
      </trkpt>
      <trkpt lat="44.93577" lon="2.45486">
        <ele>635.09</ele>
        <time>2021-08-16T06:57:32Z</time>
      </trkpt>
      <trkpt lat="44.93576" lon="2.45483">
        <ele>635.09</ele>
        <time>2021-08-16T06:57:33Z</time>
      </trkpt>
      <trkpt lat="44.93575" lon="2.45481">
        <ele>635.09</ele>
        <time>2021-08-16T06:57:34Z</time>
      </trkpt>
      <trkpt lat="44.93573" lon="2.45479">
        <ele>635.09</ele>
        <time>2021-08-16T06:57:35Z</time>
      </trkpt>
      <trkpt lat="44.93571" lon="2.45475">
        <ele>634.61</ele>
        <time>2021-08-16T06:57:36Z</time>
      </trkpt>
      <trkpt lat="44.93568" lon="2.45471">
        <ele>634.61</ele>
        <time>2021-08-16T06:57:37Z</time>
      </trkpt>
      <trkpt lat="44.93562" lon="2.45458">
        <ele>634.61</ele>
        <time>2021-08-16T06:57:40Z</time>
      </trkpt>
      <trkpt lat="44.93562" lon="2.45452">
        <ele>634.61</ele>
        <time>2021-08-16T06:57:41Z</time>
      </trkpt>
      <trkpt lat="44.93562" lon="2.45445">
        <ele>634.61</ele>
        <time>2021-08-16T06:57:42Z</time>
      </trkpt>
      <trkpt lat="44.93562" lon="2.4544">
        <ele>634.61</ele>
        <time>2021-08-16T06:57:43Z</time>
      </trkpt>
      <trkpt lat="44.93562" lon="2.45433">
        <ele>634.61</ele>
        <time>2021-08-16T06:57:44Z</time>
      </trkpt>
      <trkpt lat="44.93561" lon="2.45385">
        <ele>634.61</ele>
        <time>2021-08-16T06:57:52Z</time>
      </trkpt>
      <trkpt lat="44.93559" lon="2.45358">
        <ele>634.61</ele>
        <time>2021-08-16T06:57:56Z</time>
      </trkpt>
      <trkpt lat="44.93558" lon="2.4535">
        <ele>634.61</ele>
        <time>2021-08-16T06:57:57Z</time>
      </trkpt>
      <trkpt lat="44.93556" lon="2.45344">
        <ele>634.61</ele>
        <time>2021-08-16T06:57:58Z</time>
      </trkpt>
      <trkpt lat="44.93554" lon="2.45338">
        <ele>634.61</ele>
        <time>2021-08-16T06:57:59Z</time>
      </trkpt>
      <trkpt lat="44.93551" lon="2.45333">
        <ele>634.61</ele>
        <time>2021-08-16T06:58:00Z</time>
      </trkpt>
      <trkpt lat="44.93547" lon="2.45328">
        <ele>634.61</ele>
        <time>2021-08-16T06:58:01Z</time>
      </trkpt>
      <trkpt lat="44.93527" lon="2.45301">
        <ele>634.61</ele>
        <time>2021-08-16T06:58:06Z</time>
      </trkpt>
      <trkpt lat="44.93523" lon="2.45295">
        <ele>634.61</ele>
        <time>2021-08-16T06:58:07Z</time>
      </trkpt>
      <trkpt lat="44.93492" lon="2.4525">
        <ele>633.65</ele>
        <time>2021-08-16T06:58:15Z</time>
      </trkpt>
      <trkpt lat="44.93489" lon="2.45245">
        <ele>633.65</ele>
        <time>2021-08-16T06:58:16Z</time>
      </trkpt>
      <trkpt lat="44.93464" lon="2.4521">
        <ele>633.65</ele>
        <time>2021-08-16T06:58:23Z</time>
      </trkpt>
      <trkpt lat="44.93431" lon="2.45159">
        <ele>633.17</ele>
        <time>2021-08-16T06:58:32Z</time>
      </trkpt>
      <trkpt lat="44.93423" lon="2.45148">
        <ele>633.17</ele>
        <time>2021-08-16T06:58:34Z</time>
      </trkpt>
      <trkpt lat="44.93419" lon="2.45141">
        <ele>633.17</ele>
        <time>2021-08-16T06:58:35Z</time>
      </trkpt>
      <trkpt lat="44.93415" lon="2.45135">
        <ele>633.17</ele>
        <time>2021-08-16T06:58:36Z</time>
      </trkpt>
      <trkpt lat="44.93375" lon="2.45078">
        <ele>632.2</ele>
        <time>2021-08-16T06:58:46Z</time>
      </trkpt>
      <trkpt lat="44.93344" lon="2.45033">
        <ele>631.72</ele>
        <time>2021-08-16T06:58:54Z</time>
      </trkpt>
      <trkpt lat="44.93314" lon="2.4499">
        <ele>631.72</ele>
        <time>2021-08-16T06:59:02Z</time>
      </trkpt>
      <trkpt lat="44.93286" lon="2.44949">
        <ele>631.72</ele>
        <time>2021-08-16T06:59:10Z</time>
      </trkpt>
      <trkpt lat="44.93264" lon="2.44919">
        <ele>631.72</ele>
        <time>2021-08-16T06:59:17Z</time>
      </trkpt>
      <trkpt lat="44.93258" lon="2.44912">
        <ele>631.72</ele>
        <time>2021-08-16T06:59:19Z</time>
      </trkpt>
      <trkpt lat="44.93245" lon="2.44896">
        <ele>631.24</ele>
        <time>2021-08-16T06:59:23Z</time>
      </trkpt>
      <trkpt lat="44.93241" lon="2.44892">
        <ele>631.24</ele>
        <time>2021-08-16T06:59:24Z</time>
      </trkpt>
      <trkpt lat="44.93238" lon="2.44886">
        <ele>631.24</ele>
        <time>2021-08-16T06:59:25Z</time>
      </trkpt>
      <trkpt lat="44.93233" lon="2.4488">
        <ele>631.24</ele>
        <time>2021-08-16T06:59:26Z</time>
      </trkpt>
      <trkpt lat="44.93231" lon="2.44875">
        <ele>630.76</ele>
        <time>2021-08-16T06:59:27Z</time>
      </trkpt>
      <trkpt lat="44.93227" lon="2.4487">
        <ele>630.76</ele>
        <time>2021-08-16T06:59:28Z</time>
      </trkpt>
      <trkpt lat="44.93215" lon="2.44853">
        <ele>630.76</ele>
        <time>2021-08-16T06:59:32Z</time>
      </trkpt>
      <trkpt lat="44.93212" lon="2.4485">
        <ele>630.76</ele>
        <time>2021-08-16T06:59:33Z</time>
      </trkpt>
      <trkpt lat="44.93209" lon="2.44846">
        <ele>630.76</ele>
        <time>2021-08-16T06:59:34Z</time>
      </trkpt>
      <trkpt lat="44.93184" lon="2.44808">
        <ele>630.28</ele>
        <time>2021-08-16T06:59:43Z</time>
      </trkpt>
      <trkpt lat="44.93181" lon="2.44805">
        <ele>630.28</ele>
        <time>2021-08-16T06:59:44Z</time>
      </trkpt>
      <trkpt lat="44.93178" lon="2.44801">
        <ele>630.28</ele>
        <time>2021-08-16T06:59:45Z</time>
      </trkpt>
      <trkpt lat="44.93174" lon="2.44798">
        <ele>630.28</ele>
        <time>2021-08-16T06:59:46Z</time>
      </trkpt>
      <trkpt lat="44.9317" lon="2.44796">
        <ele>630.28</ele>
        <time>2021-08-16T06:59:47Z</time>
      </trkpt>
      <trkpt lat="44.93162" lon="2.4479">
        <ele>630.28</ele>
        <time>2021-08-16T06:59:49Z</time>
      </trkpt>
      <trkpt lat="44.93158" lon="2.44787">
        <ele>630.28</ele>
        <time>2021-08-16T06:59:50Z</time>
      </trkpt>
      <trkpt lat="44.93155" lon="2.44785">
        <ele>630.28</ele>
        <time>2021-08-16T06:59:51Z</time>
      </trkpt>
      <trkpt lat="44.93151" lon="2.44782">
        <ele>630.28</ele>
        <time>2021-08-16T06:59:52Z</time>
      </trkpt>
      <trkpt lat="44.93147" lon="2.4478">
        <ele>630.28</ele>
        <time>2021-08-16T06:59:53Z</time>
      </trkpt>
      <trkpt lat="44.93139" lon="2.44774">
        <ele>629.8</ele>
        <time>2021-08-16T06:59:55Z</time>
      </trkpt>
      <trkpt lat="44.93135" lon="2.44772">
        <ele>629.8</ele>
        <time>2021-08-16T06:59:56Z</time>
      </trkpt>
      <trkpt lat="44.93126" lon="2.44768">
        <ele>629.8</ele>
        <time>2021-08-16T06:59:58Z</time>
      </trkpt>
      <trkpt lat="44.93123" lon="2.44766">
        <ele>629.8</ele>
        <time>2021-08-16T06:59:59Z</time>
      </trkpt>
      <trkpt lat="44.93102" lon="2.44754">
        <ele>629.32</ele>
        <time>2021-08-16T07:00:05Z</time>
      </trkpt>
      <trkpt lat="44.93076" lon="2.44736">
        <ele>628.84</ele>
        <time>2021-08-16T07:00:13Z</time>
      </trkpt>
      <trkpt lat="44.93058" lon="2.44719">
        <ele>628.84</ele>
        <time>2021-08-16T07:00:17Z</time>
      </trkpt>
      <trkpt lat="44.93035" lon="2.44696">
        <ele>628.36</ele>
        <time>2021-08-16T07:00:24Z</time>
      </trkpt>
      <trkpt lat="44.93027" lon="2.44685">
        <ele>628.36</ele>
        <time>2021-08-16T07:00:29Z</time>
      </trkpt>
      <trkpt lat="44.93025" lon="2.44684">
        <ele>628.36</ele>
        <time>2021-08-16T07:00:30Z</time>
      </trkpt>
      <trkpt lat="44.93026" lon="2.44683">
        <ele>628.36</ele>
        <time>2021-08-16T07:00:31Z</time>
      </trkpt>
      <trkpt lat="44.93028" lon="2.44681">
        <ele>628.36</ele>
        <time>2021-08-16T07:00:32Z</time>
      </trkpt>
      <trkpt lat="44.9303" lon="2.44678">
        <ele>628.36</ele>
        <time>2021-08-16T07:00:33Z</time>
      </trkpt>
      <trkpt lat="44.93031" lon="2.44673">
        <ele>628.36</ele>
        <time>2021-08-16T07:00:34Z</time>
      </trkpt>
      <trkpt lat="44.93048" lon="2.44641">
        <ele>628.36</ele>
        <time>2021-08-16T07:00:42Z</time>
      </trkpt>
      <trkpt lat="44.9306" lon="2.44623">
        <ele>628.84</ele>
        <time>2021-08-16T07:00:47Z</time>
      </trkpt>
      <trkpt lat="44.93061" lon="2.4462">
        <ele>628.84</ele>
        <time>2021-08-16T07:00:48Z</time>
      </trkpt>
      <trkpt lat="44.93061" lon="2.44617">
        <ele>628.84</ele>
        <time>2021-08-16T07:00:49Z</time>
      </trkpt>
      <trkpt lat="44.9306" lon="2.44614">
        <ele>629.8</ele>
        <time>2021-08-16T07:00:50Z</time>
      </trkpt>
      <trkpt lat="44.93059" lon="2.44611">
        <ele>629.8</ele>
        <time>2021-08-16T07:00:51Z</time>
      </trkpt>
      <trkpt lat="44.93057" lon="2.44609">
        <ele>629.8</ele>
        <time>2021-08-16T07:00:52Z</time>
      </trkpt>
      <trkpt lat="44.93044" lon="2.44591">
        <ele>630.28</ele>
        <time>2021-08-16T07:00:59Z</time>
      </trkpt>
      <trkpt lat="44.93038" lon="2.44578">
        <ele>630.28</ele>
        <time>2021-08-16T07:01:03Z</time>
      </trkpt>
      <trkpt lat="44.93039" lon="2.44575">
        <ele>630.28</ele>
        <time>2021-08-16T07:01:04Z</time>
      </trkpt>
      <trkpt lat="44.9304" lon="2.44562">
        <ele>631.24</ele>
        <time>2021-08-16T07:01:09Z</time>
      </trkpt>
      <trkpt lat="44.93042" lon="2.44559">
        <ele>631.24</ele>
        <time>2021-08-16T07:01:10Z</time>
      </trkpt>
      <trkpt lat="44.93043" lon="2.44557">
        <ele>631.24</ele>
        <time>2021-08-16T07:01:11Z</time>
      </trkpt>
      <trkpt lat="44.93044" lon="2.44555">
        <ele>631.24</ele>
        <time>2021-08-16T07:01:12Z</time>
      </trkpt>
      <trkpt lat="44.93044" lon="2.44552">
        <ele>631.24</ele>
        <time>2021-08-16T07:01:13Z</time>
      </trkpt>
      <trkpt lat="44.93046" lon="2.4455">
        <ele>631.24</ele>
        <time>2021-08-16T07:01:14Z</time>
      </trkpt>
      <trkpt lat="44.93046" lon="2.44551">
        <ele>631.24</ele>
        <time>2021-08-16T07:01:16Z</time>
      </trkpt>
      <trkpt lat="44.93046" lon="2.44552">
        <ele>631.24</ele>
        <time>2021-08-16T07:01:17Z</time>
      </trkpt>
      <trkpt lat="44.93046" lon="2.44549">
        <ele>631.24</ele>
        <time>2021-08-16T07:01:22Z</time>
      </trkpt>
      <trkpt lat="44.93042" lon="2.44541">
        <ele>631.24</ele>
        <time>2021-08-16T07:01:32Z</time>
      </trkpt>
      <trkpt lat="44.93035" lon="2.44528">
        <ele>631.72</ele>
        <time>2021-08-16T07:01:49Z</time>
      </trkpt>
      <trkpt lat="44.93032" lon="2.44524">
        <ele>631.72</ele>
        <time>2021-08-16T07:02:05Z</time>
      </trkpt>
      <trkpt lat="44.93032" lon="2.44524">
        <ele>631.72</ele>
        <time>2021-08-16T07:02:16Z</time>
      </trkpt>
      <trkpt lat="44.93032" lon="2.44523">
        <ele>631.72</ele>
        <time>2021-08-16T07:02:18Z</time>
      </trkpt>
      <trkpt lat="44.9303" lon="2.44521">
        <ele>632.2</ele>
        <time>2021-08-16T07:02:24Z</time>
      </trkpt>
      <trkpt lat="44.93031" lon="2.44523">
        <ele>632.2</ele>
        <time>2021-08-16T07:02:32Z</time>
      </trkpt>
      <trkpt lat="44.9303" lon="2.44526">
        <ele>632.2</ele>
        <time>2021-08-16T07:02:47Z</time>
      </trkpt>
      <trkpt lat="44.93029" lon="2.44528">
        <ele>632.68</ele>
        <time>2021-08-16T07:03:00Z</time>
      </trkpt>
      <trkpt lat="44.93029" lon="2.44529">
        <ele>632.68</ele>
        <time>2021-08-16T07:03:13Z</time>
      </trkpt>
      <trkpt lat="44.93025" lon="2.44526">
        <ele>632.68</ele>
        <time>2021-08-16T07:03:32Z</time>
      </trkpt>
      <trkpt lat="44.93024" lon="2.44523">
        <ele>633.17</ele>
        <time>2021-08-16T07:03:51Z</time>
      </trkpt>
      <trkpt lat="44.9303" lon="2.44526">
        <ele>633.17</ele>
        <time>2021-08-16T07:04:13Z</time>
      </trkpt>
      <trkpt lat="44.93027" lon="2.44527">
        <ele>633.65</ele>
        <time>2021-08-16T07:04:30Z</time>
      </trkpt>
      <trkpt lat="44.93027" lon="2.44527">
        <ele>633.65</ele>
        <time>2021-08-16T07:04:39Z</time>
      </trkpt>
      <trkpt lat="44.93028" lon="2.44525">
        <ele>633.65</ele>
        <time>2021-08-16T07:05:00Z</time>
      </trkpt>
      <trkpt lat="44.93029" lon="2.44522">
        <ele>633.65</ele>
        <time>2021-08-16T07:05:05Z</time>
      </trkpt>
      <trkpt lat="44.93021" lon="2.44526">
        <ele>633.65</ele>
        <time>2021-08-16T07:05:12Z</time>
      </trkpt>
      <trkpt lat="44.93011" lon="2.44537">
        <ele>634.13</ele>
        <time>2021-08-16T07:05:19Z</time>
      </trkpt>
      <trkpt lat="44.93009" lon="2.44535">
        <ele>634.13</ele>
        <time>2021-08-16T07:05:20Z</time>
      </trkpt>
      <trkpt lat="44.93007" lon="2.44533">
        <ele>634.13</ele>
        <time>2021-08-16T07:05:21Z</time>
      </trkpt>
      <trkpt lat="44.93006" lon="2.44531">
        <ele>634.13</ele>
        <time>2021-08-16T07:05:22Z</time>
      </trkpt>
      <trkpt lat="44.93004" lon="2.44528">
        <ele>634.13</ele>
        <time>2021-08-16T07:05:23Z</time>
      </trkpt>
      <trkpt lat="44.92993" lon="2.44515">
        <ele>634.13</ele>
        <time>2021-08-16T07:05:29Z</time>
      </trkpt>
      <trkpt lat="44.92988" lon="2.44516">
        <ele>634.13</ele>
        <time>2021-08-16T07:05:32Z</time>
      </trkpt>
      <trkpt lat="44.92982" lon="2.44525">
        <ele>634.13</ele>
        <time>2021-08-16T07:05:39Z</time>
      </trkpt>
      <trkpt lat="44.92982" lon="2.44526">
        <ele>634.13</ele>
        <time>2021-08-16T07:05:40Z</time>
      </trkpt>
      <trkpt lat="44.92984" lon="2.44528">
        <ele>634.13</ele>
        <time>2021-08-16T07:05:46Z</time>
      </trkpt>
      <trkpt lat="44.92989" lon="2.4453">
        <ele>632.68</ele>
        <time>2021-08-16T07:06:04Z</time>
      </trkpt>
      <trkpt lat="44.9299" lon="2.44531">
        <ele>632.2</ele>
        <time>2021-08-16T07:06:17Z</time>
      </trkpt>
      <trkpt lat="44.92991" lon="2.44532">
        <ele>634.13</ele>
        <time>2021-08-16T07:06:23Z</time>
      </trkpt>
      <trkpt lat="44.92994" lon="2.44533">
        <ele>633.65</ele>
        <time>2021-08-16T07:06:33Z</time>
      </trkpt>
      <trkpt lat="44.92993" lon="2.4453">
        <ele>633.65</ele>
        <time>2021-08-16T07:06:42Z</time>
      </trkpt>
      <trkpt lat="44.9299" lon="2.44527">
        <ele>633.65</ele>
        <time>2021-08-16T07:06:51Z</time>
      </trkpt>
      <trkpt lat="44.92987" lon="2.44527">
        <ele>633.65</ele>
        <time>2021-08-16T07:06:53Z</time>
      </trkpt>
      <trkpt lat="44.92985" lon="2.44526">
        <ele>632.68</ele>
        <time>2021-08-16T07:06:54Z</time>
      </trkpt>
      <trkpt lat="44.92983" lon="2.44525">
        <ele>632.68</ele>
        <time>2021-08-16T07:06:55Z</time>
      </trkpt>
      <trkpt lat="44.92957" lon="2.44514">
        <ele>632.68</ele>
        <time>2021-08-16T07:07:02Z</time>
      </trkpt>
      <trkpt lat="44.92936" lon="2.44507">
        <ele>631.72</ele>
        <time>2021-08-16T07:07:08Z</time>
      </trkpt>
      <trkpt lat="44.9293" lon="2.44508">
        <ele>631.72</ele>
        <time>2021-08-16T07:07:10Z</time>
      </trkpt>
      <trkpt lat="44.92905" lon="2.44526">
        <ele>630.28</ele>
        <time>2021-08-16T07:07:18Z</time>
      </trkpt>
      <trkpt lat="44.92889" lon="2.4454">
        <ele>629.32</ele>
        <time>2021-08-16T07:07:24Z</time>
      </trkpt>
      <trkpt lat="44.92877" lon="2.44562">
        <ele>628.84</ele>
        <time>2021-08-16T07:07:31Z</time>
      </trkpt>
      <trkpt lat="44.92877" lon="2.44567">
        <ele>628.84</ele>
        <time>2021-08-16T07:07:37Z</time>
      </trkpt>
      <trkpt lat="44.9288" lon="2.44569">
        <ele>628.84</ele>
        <time>2021-08-16T07:07:54Z</time>
      </trkpt>
      <trkpt lat="44.92882" lon="2.44572">
        <ele>628.84</ele>
        <time>2021-08-16T07:08:16Z</time>
      </trkpt>
      <trkpt lat="44.92883" lon="2.44574">
        <ele>628.84</ele>
        <time>2021-08-16T07:08:30Z</time>
      </trkpt>
      <trkpt lat="44.92884" lon="2.44573">
        <ele>628.84</ele>
        <time>2021-08-16T07:08:50Z</time>
      </trkpt>
      <trkpt lat="44.92886" lon="2.4457">
        <ele>628.84</ele>
        <time>2021-08-16T07:09:11Z</time>
      </trkpt>
      <trkpt lat="44.92886" lon="2.44567">
        <ele>628.84</ele>
        <time>2021-08-16T07:09:35Z</time>
      </trkpt>
      <trkpt lat="44.92885" lon="2.44566">
        <ele>628.84</ele>
        <time>2021-08-16T07:09:54Z</time>
      </trkpt>
      <trkpt lat="44.92886" lon="2.44565">
        <ele>628.84</ele>
        <time>2021-08-16T07:10:12Z</time>
      </trkpt>
      <trkpt lat="44.92886" lon="2.44563">
        <ele>628.84</ele>
        <time>2021-08-16T07:10:33Z</time>
      </trkpt>
      <trkpt lat="44.92888" lon="2.44566">
        <ele>628.36</ele>
        <time>2021-08-16T07:10:52Z</time>
      </trkpt>
      <trkpt lat="44.92887" lon="2.44568">
        <ele>628.36</ele>
        <time>2021-08-16T07:11:11Z</time>
      </trkpt>
      <trkpt lat="44.92885" lon="2.44568">
        <ele>628.36</ele>
        <time>2021-08-16T07:11:32Z</time>
      </trkpt>
      <trkpt lat="44.92883" lon="2.44567">
        <ele>628.36</ele>
        <time>2021-08-16T07:11:50Z</time>
      </trkpt>
      <trkpt lat="44.92879" lon="2.44565">
        <ele>628.36</ele>
        <time>2021-08-16T07:12:07Z</time>
      </trkpt>
      <trkpt lat="44.92878" lon="2.44566">
        <ele>628.36</ele>
        <time>2021-08-16T07:12:21Z</time>
      </trkpt>
      <trkpt lat="44.92878" lon="2.44567">
        <ele>628.36</ele>
        <time>2021-08-16T07:12:36Z</time>
      </trkpt>
      <trkpt lat="44.92881" lon="2.44569">
        <ele>628.36</ele>
        <time>2021-08-16T07:12:55Z</time>
      </trkpt>
      <trkpt lat="44.92883" lon="2.44569">
        <ele>628.36</ele>
        <time>2021-08-16T07:13:16Z</time>
      </trkpt>
      <trkpt lat="44.92882" lon="2.44567">
        <ele>628.36</ele>
        <time>2021-08-16T07:13:41Z</time>
      </trkpt>
      <trkpt lat="44.9288" lon="2.44567">
        <ele>628.36</ele>
        <time>2021-08-16T07:13:57Z</time>
      </trkpt>
      <trkpt lat="44.92879" lon="2.44563">
        <ele>628.36</ele>
        <time>2021-08-16T07:14:21Z</time>
      </trkpt>
      <trkpt lat="44.92879" lon="2.44567">
        <ele>628.36</ele>
        <time>2021-08-16T07:14:41Z</time>
      </trkpt>
      <trkpt lat="44.92878" lon="2.44569">
        <ele>628.36</ele>
        <time>2021-08-16T07:14:59Z</time>
      </trkpt>
      <trkpt lat="44.92879" lon="2.4457">
        <ele>628.36</ele>
        <time>2021-08-16T07:15:19Z</time>
      </trkpt>
      <trkpt lat="44.92881" lon="2.44568">
        <ele>628.36</ele>
        <time>2021-08-16T07:15:35Z</time>
      </trkpt>
      <trkpt lat="44.92882" lon="2.44568">
        <ele>628.36</ele>
        <time>2021-08-16T07:15:50Z</time>
      </trkpt>
      <trkpt lat="44.92883" lon="2.44567">
        <ele>628.36</ele>
        <time>2021-08-16T07:16:09Z</time>
      </trkpt>
      <trkpt lat="44.92883" lon="2.44567">
        <ele>628.36</ele>
        <time>2021-08-16T07:16:29Z</time>
      </trkpt>
      <trkpt lat="44.92884" lon="2.4457">
        <ele>628.36</ele>
        <time>2021-08-16T07:16:53Z</time>
      </trkpt>
      <trkpt lat="44.92883" lon="2.44571">
        <ele>628.36</ele>
        <time>2021-08-16T07:17:04Z</time>
      </trkpt>
      <trkpt lat="44.92884" lon="2.4457">
        <ele>628.36</ele>
        <time>2021-08-16T07:17:17Z</time>
      </trkpt>
      <trkpt lat="44.92885" lon="2.44569">
        <ele>628.36</ele>
        <time>2021-08-16T07:17:41Z</time>
      </trkpt>
      <trkpt lat="44.92883" lon="2.44566">
        <ele>628.36</ele>
        <time>2021-08-16T07:18:03Z</time>
      </trkpt>
      <trkpt lat="44.92879" lon="2.44564">
        <ele>628.36</ele>
        <time>2021-08-16T07:18:29Z</time>
      </trkpt>
      <trkpt lat="44.92881" lon="2.44566">
        <ele>628.36</ele>
        <time>2021-08-16T07:18:52Z</time>
      </trkpt>
      <trkpt lat="44.9288" lon="2.44563">
        <ele>628.36</ele>
        <time>2021-08-16T07:19:14Z</time>
      </trkpt>
      <trkpt lat="44.92879" lon="2.44563">
        <ele>628.36</ele>
        <time>2021-08-16T07:19:31Z</time>
      </trkpt>
      <trkpt lat="44.92881" lon="2.44564">
        <ele>628.36</ele>
        <time>2021-08-16T07:19:45Z</time>
      </trkpt>
      <trkpt lat="44.92885" lon="2.44564">
        <ele>628.36</ele>
        <time>2021-08-16T07:20:01Z</time>
      </trkpt>
      <trkpt lat="44.92884" lon="2.44563">
        <ele>628.36</ele>
        <time>2021-08-16T07:20:17Z</time>
      </trkpt>
      <trkpt lat="44.92883" lon="2.44568">
        <ele>628.36</ele>
        <time>2021-08-16T07:20:35Z</time>
      </trkpt>
      <trkpt lat="44.92884" lon="2.44569">
        <ele>628.36</ele>
        <time>2021-08-16T07:20:50Z</time>
      </trkpt>
      <trkpt lat="44.92884" lon="2.44568">
        <ele>628.36</ele>
        <time>2021-08-16T07:21:08Z</time>
      </trkpt>
      <trkpt lat="44.92883" lon="2.44567">
        <ele>627.88</ele>
        <time>2021-08-16T07:21:29Z</time>
      </trkpt>
      <trkpt lat="44.92884" lon="2.44569">
        <ele>627.88</ele>
        <time>2021-08-16T07:21:50Z</time>
      </trkpt>
      <trkpt lat="44.92883" lon="2.44571">
        <ele>627.88</ele>
        <time>2021-08-16T07:22:06Z</time>
      </trkpt>
      <trkpt lat="44.92881" lon="2.44571">
        <ele>628.36</ele>
        <time>2021-08-16T07:22:17Z</time>
      </trkpt>
      <trkpt lat="44.92882" lon="2.44571">
        <ele>628.36</ele>
        <time>2021-08-16T07:22:25Z</time>
      </trkpt>
      <trkpt lat="44.92878" lon="2.44568">
        <ele>628.36</ele>
        <time>2021-08-16T07:22:41Z</time>
      </trkpt>
      <trkpt lat="44.9288" lon="2.44567">
        <ele>628.36</ele>
        <time>2021-08-16T07:23:02Z</time>
      </trkpt>
      <trkpt lat="44.92881" lon="2.44567">
        <ele>628.36</ele>
        <time>2021-08-16T07:23:21Z</time>
      </trkpt>
      <trkpt lat="44.92881" lon="2.44567">
        <ele>627.88</ele>
        <time>2021-08-16T07:23:29Z</time>
      </trkpt>
      <trkpt lat="44.92882" lon="2.44564">
        <ele>627.88</ele>
        <time>2021-08-16T07:23:32Z</time>
      </trkpt>
      <trkpt lat="44.9288" lon="2.44561">
        <ele>627.88</ele>
        <time>2021-08-16T07:23:40Z</time>
      </trkpt>
      <trkpt lat="44.92879" lon="2.4456">
        <ele>627.88</ele>
        <time>2021-08-16T07:23:53Z</time>
      </trkpt>
      <trkpt lat="44.92881" lon="2.4456">
        <ele>627.88</ele>
        <time>2021-08-16T07:24:02Z</time>
      </trkpt>
      <trkpt lat="44.92882" lon="2.44558">
        <ele>627.88</ele>
        <time>2021-08-16T07:24:19Z</time>
      </trkpt>
      <trkpt lat="44.92883" lon="2.44559">
        <ele>627.88</ele>
        <time>2021-08-16T07:24:26Z</time>
      </trkpt>
      <trkpt lat="44.92893" lon="2.44548">
        <ele>627.88</ele>
        <time>2021-08-16T07:24:32Z</time>
      </trkpt>
      <trkpt lat="44.92905" lon="2.44534">
        <ele>629.32</ele>
        <time>2021-08-16T07:24:38Z</time>
      </trkpt>
      <trkpt lat="44.92922" lon="2.44519">
        <ele>629.8</ele>
        <time>2021-08-16T07:24:46Z</time>
      </trkpt>
      <trkpt lat="44.92936" lon="2.44508">
        <ele>630.76</ele>
        <time>2021-08-16T07:24:53Z</time>
      </trkpt>
      <trkpt lat="44.92948" lon="2.44513">
        <ele>631.24</ele>
        <time>2021-08-16T07:25:00Z</time>
      </trkpt>
      <trkpt lat="44.92965" lon="2.4452">
        <ele>631.72</ele>
        <time>2021-08-16T07:25:07Z</time>
      </trkpt>
      <trkpt lat="44.92983" lon="2.44523">
        <ele>631.72</ele>
        <time>2021-08-16T07:25:14Z</time>
      </trkpt>
      <trkpt lat="44.92998" lon="2.4454">
        <ele>631.72</ele>
        <time>2021-08-16T07:25:20Z</time>
      </trkpt>
      <trkpt lat="44.93001" lon="2.44541">
        <ele>631.72</ele>
        <time>2021-08-16T07:25:21Z</time>
      </trkpt>
      <trkpt lat="44.93006" lon="2.44542">
        <ele>631.72</ele>
        <time>2021-08-16T07:25:24Z</time>
      </trkpt>
      <trkpt lat="44.93008" lon="2.44544">
        <ele>631.72</ele>
        <time>2021-08-16T07:25:25Z</time>
      </trkpt>
      <trkpt lat="44.93028" lon="2.44559">
        <ele>630.28</ele>
        <time>2021-08-16T07:25:33Z</time>
      </trkpt>
      <trkpt lat="44.93041" lon="2.44577">
        <ele>630.28</ele>
        <time>2021-08-16T07:25:38Z</time>
      </trkpt>
      <trkpt lat="44.93053" lon="2.44598">
        <ele>630.28</ele>
        <time>2021-08-16T07:25:43Z</time>
      </trkpt>
      <trkpt lat="44.93061" lon="2.44608">
        <ele>630.28</ele>
        <time>2021-08-16T07:25:47Z</time>
      </trkpt>
      <trkpt lat="44.93064" lon="2.44608">
        <ele>630.28</ele>
        <time>2021-08-16T07:25:48Z</time>
      </trkpt>
      <trkpt lat="44.93067" lon="2.44607">
        <ele>630.28</ele>
        <time>2021-08-16T07:25:49Z</time>
      </trkpt>
      <trkpt lat="44.93069" lon="2.44604">
        <ele>630.28</ele>
        <time>2021-08-16T07:25:50Z</time>
      </trkpt>
      <trkpt lat="44.93071" lon="2.44601">
        <ele>630.28</ele>
        <time>2021-08-16T07:25:51Z</time>
      </trkpt>
      <trkpt lat="44.93072" lon="2.44597">
        <ele>630.28</ele>
        <time>2021-08-16T07:25:52Z</time>
      </trkpt>
      <trkpt lat="44.9308" lon="2.44575">
        <ele>630.76</ele>
        <time>2021-08-16T07:25:57Z</time>
      </trkpt>
      <trkpt lat="44.93086" lon="2.44545">
        <ele>631.72</ele>
        <time>2021-08-16T07:26:04Z</time>
      </trkpt>
      <trkpt lat="44.93085" lon="2.44536">
        <ele>632.2</ele>
        <time>2021-08-16T07:26:06Z</time>
      </trkpt>
      <trkpt lat="44.93083" lon="2.44528">
        <ele>632.2</ele>
        <time>2021-08-16T07:26:08Z</time>
      </trkpt>
      <trkpt lat="44.93082" lon="2.44524">
        <ele>632.68</ele>
        <time>2021-08-16T07:26:09Z</time>
      </trkpt>
      <trkpt lat="44.93081" lon="2.44521">
        <ele>632.68</ele>
        <time>2021-08-16T07:26:10Z</time>
      </trkpt>
      <trkpt lat="44.93081" lon="2.44498">
        <ele>633.17</ele>
        <time>2021-08-16T07:26:16Z</time>
      </trkpt>
      <trkpt lat="44.93082" lon="2.44473">
        <ele>634.13</ele>
        <time>2021-08-16T07:26:23Z</time>
      </trkpt>
      <trkpt lat="44.93081" lon="2.44469">
        <ele>634.13</ele>
        <time>2021-08-16T07:26:24Z</time>
      </trkpt>
      <trkpt lat="44.93081" lon="2.44466">
        <ele>634.61</ele>
        <time>2021-08-16T07:26:25Z</time>
      </trkpt>
      <trkpt lat="44.93081" lon="2.44464">
        <ele>634.61</ele>
        <time>2021-08-16T07:26:26Z</time>
      </trkpt>
      <trkpt lat="44.93081" lon="2.44461">
        <ele>634.61</ele>
        <time>2021-08-16T07:26:27Z</time>
      </trkpt>
      <trkpt lat="44.9308" lon="2.44458">
        <ele>634.61</ele>
        <time>2021-08-16T07:26:28Z</time>
      </trkpt>
      <trkpt lat="44.9308" lon="2.44454">
        <ele>635.09</ele>
        <time>2021-08-16T07:26:29Z</time>
      </trkpt>
      <trkpt lat="44.93079" lon="2.44433">
        <ele>635.57</ele>
        <time>2021-08-16T07:26:35Z</time>
      </trkpt>
      <trkpt lat="44.93076" lon="2.44413">
        <ele>636.53</ele>
        <time>2021-08-16T07:26:42Z</time>
      </trkpt>
      <trkpt lat="44.93076" lon="2.44409">
        <ele>636.53</ele>
        <time>2021-08-16T07:26:43Z</time>
      </trkpt>
      <trkpt lat="44.93076" lon="2.44406">
        <ele>636.53</ele>
        <time>2021-08-16T07:26:44Z</time>
      </trkpt>
      <trkpt lat="44.93076" lon="2.44403">
        <ele>636.53</ele>
        <time>2021-08-16T07:26:45Z</time>
      </trkpt>
      <trkpt lat="44.93075" lon="2.44399">
        <ele>637.01</ele>
        <time>2021-08-16T07:26:46Z</time>
      </trkpt>
      <trkpt lat="44.93075" lon="2.44396">
        <ele>637.01</ele>
        <time>2021-08-16T07:26:47Z</time>
      </trkpt>
      <trkpt lat="44.93075" lon="2.44371">
        <ele>637.49</ele>
        <time>2021-08-16T07:26:54Z</time>
      </trkpt>
      <trkpt lat="44.93075" lon="2.44336">
        <ele>638.93</ele>
        <time>2021-08-16T07:27:04Z</time>
      </trkpt>
      <trkpt lat="44.93074" lon="2.44309">
        <ele>639.41</ele>
        <time>2021-08-16T07:27:12Z</time>
      </trkpt>
      <trkpt lat="44.93075" lon="2.4428">
        <ele>640.38</ele>
        <time>2021-08-16T07:27:20Z</time>
      </trkpt>
      <trkpt lat="44.93073" lon="2.44251">
        <ele>641.82</ele>
        <time>2021-08-16T07:27:29Z</time>
      </trkpt>
      <trkpt lat="44.93073" lon="2.44245">
        <ele>642.3</ele>
        <time>2021-08-16T07:27:31Z</time>
      </trkpt>
      <trkpt lat="44.93079" lon="2.44233">
        <ele>643.26</ele>
        <time>2021-08-16T07:27:36Z</time>
      </trkpt>
      <trkpt lat="44.93094" lon="2.44232">
        <ele>644.7</ele>
        <time>2021-08-16T07:27:44Z</time>
      </trkpt>
      <trkpt lat="44.93102" lon="2.44241">
        <ele>645.66</ele>
        <time>2021-08-16T07:27:51Z</time>
      </trkpt>
      <trkpt lat="44.93109" lon="2.44251">
        <ele>646.62</ele>
        <time>2021-08-16T07:28:00Z</time>
      </trkpt>
      <trkpt lat="44.9312" lon="2.44263">
        <ele>648.07</ele>
        <time>2021-08-16T07:28:07Z</time>
      </trkpt>
      <trkpt lat="44.93129" lon="2.44276">
        <ele>649.03</ele>
        <time>2021-08-16T07:28:14Z</time>
      </trkpt>
      <trkpt lat="44.93133" lon="2.44293">
        <ele>650.47</ele>
        <time>2021-08-16T07:28:21Z</time>
      </trkpt>
      <trkpt lat="44.93137" lon="2.44317">
        <ele>650.95</ele>
        <time>2021-08-16T07:28:29Z</time>
      </trkpt>
      <trkpt lat="44.93143" lon="2.44343">
        <ele>652.39</ele>
        <time>2021-08-16T07:28:37Z</time>
      </trkpt>
      <trkpt lat="44.9315" lon="2.44371">
        <ele>653.83</ele>
        <time>2021-08-16T07:28:46Z</time>
      </trkpt>
      <trkpt lat="44.93154" lon="2.44402">
        <ele>654.8</ele>
        <time>2021-08-16T07:28:55Z</time>
      </trkpt>
      <trkpt lat="44.93161" lon="2.44416">
        <ele>654.8</ele>
        <time>2021-08-16T07:29:01Z</time>
      </trkpt>
      <trkpt lat="44.93163" lon="2.44417">
        <ele>654.8</ele>
        <time>2021-08-16T07:29:02Z</time>
      </trkpt>
      <trkpt lat="44.93165" lon="2.44416">
        <ele>654.8</ele>
        <time>2021-08-16T07:29:03Z</time>
      </trkpt>
      <trkpt lat="44.93167" lon="2.44414">
        <ele>655.28</ele>
        <time>2021-08-16T07:29:04Z</time>
      </trkpt>
      <trkpt lat="44.93168" lon="2.44411">
        <ele>655.76</ele>
        <time>2021-08-16T07:29:05Z</time>
      </trkpt>
      <trkpt lat="44.93168" lon="2.44408">
        <ele>655.76</ele>
        <time>2021-08-16T07:29:06Z</time>
      </trkpt>
      <trkpt lat="44.93168" lon="2.44405">
        <ele>655.76</ele>
        <time>2021-08-16T07:29:07Z</time>
      </trkpt>
      <trkpt lat="44.93168" lon="2.44402">
        <ele>655.76</ele>
        <time>2021-08-16T07:29:08Z</time>
      </trkpt>
      <trkpt lat="44.93163" lon="2.44377">
        <ele>656.72</ele>
        <time>2021-08-16T07:29:16Z</time>
      </trkpt>
      <trkpt lat="44.93158" lon="2.44356">
        <ele>658.16</ele>
        <time>2021-08-16T07:29:25Z</time>
      </trkpt>
      <trkpt lat="44.93156" lon="2.44332">
        <ele>659.12</ele>
        <time>2021-08-16T07:29:34Z</time>
      </trkpt>
      <trkpt lat="44.93158" lon="2.44297">
        <ele>661.04</ele>
        <time>2021-08-16T07:29:44Z</time>
      </trkpt>
      <trkpt lat="44.93168" lon="2.44271">
        <ele>662.01</ele>
        <time>2021-08-16T07:29:53Z</time>
      </trkpt>
      <trkpt lat="44.93181" lon="2.4425">
        <ele>662.97</ele>
        <time>2021-08-16T07:30:02Z</time>
      </trkpt>
      <trkpt lat="44.93193" lon="2.4423">
        <ele>663.45</ele>
        <time>2021-08-16T07:30:10Z</time>
      </trkpt>
      <trkpt lat="44.93203" lon="2.44206">
        <ele>664.89</ele>
        <time>2021-08-16T07:30:19Z</time>
      </trkpt>
      <trkpt lat="44.93211" lon="2.44185">
        <ele>665.85</ele>
        <time>2021-08-16T07:30:27Z</time>
      </trkpt>
      <trkpt lat="44.93222" lon="2.4416">
        <ele>667.29</ele>
        <time>2021-08-16T07:30:37Z</time>
      </trkpt>
      <trkpt lat="44.93224" lon="2.44158">
        <ele>667.29</ele>
        <time>2021-08-16T07:30:38Z</time>
      </trkpt>
      <trkpt lat="44.93238" lon="2.4413">
        <ele>669.22</ele>
        <time>2021-08-16T07:30:50Z</time>
      </trkpt>
      <trkpt lat="44.93248" lon="2.44109">
        <ele>670.66</ele>
        <time>2021-08-16T07:30:59Z</time>
      </trkpt>
      <trkpt lat="44.93259" lon="2.4409">
        <ele>672.1</ele>
        <time>2021-08-16T07:31:08Z</time>
      </trkpt>
      <trkpt lat="44.93265" lon="2.44072">
        <ele>673.06</ele>
        <time>2021-08-16T07:31:16Z</time>
      </trkpt>
      <trkpt lat="44.93277" lon="2.44048">
        <ele>674.5</ele>
        <time>2021-08-16T07:31:27Z</time>
      </trkpt>
      <trkpt lat="44.93286" lon="2.44034">
        <ele>675.46</ele>
        <time>2021-08-16T07:31:35Z</time>
      </trkpt>
      <trkpt lat="44.933" lon="2.44014">
        <ele>677.39</ele>
        <time>2021-08-16T07:31:44Z</time>
      </trkpt>
      <trkpt lat="44.93316" lon="2.43992">
        <ele>678.83</ele>
        <time>2021-08-16T07:31:54Z</time>
      </trkpt>
      <trkpt lat="44.93334" lon="2.43969">
        <ele>680.75</ele>
        <time>2021-08-16T07:32:06Z</time>
      </trkpt>
      <trkpt lat="44.9335" lon="2.4395">
        <ele>682.19</ele>
        <time>2021-08-16T07:32:17Z</time>
      </trkpt>
      <trkpt lat="44.93357" lon="2.43932">
        <ele>683.63</ele>
        <time>2021-08-16T07:32:25Z</time>
      </trkpt>
      <trkpt lat="44.93357" lon="2.43907">
        <ele>685.08</ele>
        <time>2021-08-16T07:32:35Z</time>
      </trkpt>
      <trkpt lat="44.93355" lon="2.43896">
        <ele>686.04</ele>
        <time>2021-08-16T07:32:40Z</time>
      </trkpt>
      <trkpt lat="44.93355" lon="2.43894">
        <ele>686.04</ele>
        <time>2021-08-16T07:32:41Z</time>
      </trkpt>
      <trkpt lat="44.93348" lon="2.43878">
        <ele>687.48</ele>
        <time>2021-08-16T07:32:49Z</time>
      </trkpt>
      <trkpt lat="44.93347" lon="2.43877">
        <ele>687.48</ele>
        <time>2021-08-16T07:32:50Z</time>
      </trkpt>
      <trkpt lat="44.93345" lon="2.43876">
        <ele>687.48</ele>
        <time>2021-08-16T07:32:51Z</time>
      </trkpt>
      <trkpt lat="44.93343" lon="2.43876">
        <ele>687.48</ele>
        <time>2021-08-16T07:32:52Z</time>
      </trkpt>
      <trkpt lat="44.93341" lon="2.43877">
        <ele>687.48</ele>
        <time>2021-08-16T07:32:53Z</time>
      </trkpt>
      <trkpt lat="44.93339" lon="2.43879">
        <ele>687.48</ele>
        <time>2021-08-16T07:32:54Z</time>
      </trkpt>
      <trkpt lat="44.93337" lon="2.4388">
        <ele>687.48</ele>
        <time>2021-08-16T07:32:55Z</time>
      </trkpt>
      <trkpt lat="44.93335" lon="2.43882">
        <ele>687.48</ele>
        <time>2021-08-16T07:32:56Z</time>
      </trkpt>
      <trkpt lat="44.93334" lon="2.43884">
        <ele>687.48</ele>
        <time>2021-08-16T07:32:57Z</time>
      </trkpt>
      <trkpt lat="44.93316" lon="2.43894">
        <ele>688.92</ele>
        <time>2021-08-16T07:33:06Z</time>
      </trkpt>
      <trkpt lat="44.93296" lon="2.43899">
        <ele>690.36</ele>
        <time>2021-08-16T07:33:15Z</time>
      </trkpt>
      <trkpt lat="44.93282" lon="2.43898">
        <ele>692.29</ele>
        <time>2021-08-16T07:33:22Z</time>
      </trkpt>
      <trkpt lat="44.93268" lon="2.43896">
        <ele>694.21</ele>
        <time>2021-08-16T07:33:30Z</time>
      </trkpt>
      <trkpt lat="44.93257" lon="2.43889">
        <ele>696.13</ele>
        <time>2021-08-16T07:33:38Z</time>
      </trkpt>
      <trkpt lat="44.93252" lon="2.43887">
        <ele>696.61</ele>
        <time>2021-08-16T07:33:42Z</time>
      </trkpt>
      <trkpt lat="44.9325" lon="2.43884">
        <ele>696.61</ele>
        <time>2021-08-16T07:33:44Z</time>
      </trkpt>
      <trkpt lat="44.93249" lon="2.43884">
        <ele>696.61</ele>
        <time>2021-08-16T07:33:45Z</time>
      </trkpt>
      <trkpt lat="44.93239" lon="2.43872">
        <ele>698.05</ele>
        <time>2021-08-16T07:33:54Z</time>
      </trkpt>
      <trkpt lat="44.93235" lon="2.43851">
        <ele>699.98</ele>
        <time>2021-08-16T07:34:05Z</time>
      </trkpt>
      <trkpt lat="44.93232" lon="2.43832">
        <ele>702.38</ele>
        <time>2021-08-16T07:34:16Z</time>
      </trkpt>
      <trkpt lat="44.9323" lon="2.43813">
        <ele>703.82</ele>
        <time>2021-08-16T07:34:26Z</time>
      </trkpt>
      <trkpt lat="44.93227" lon="2.43793">
        <ele>705.26</ele>
        <time>2021-08-16T07:34:37Z</time>
      </trkpt>
      <trkpt lat="44.93224" lon="2.43771">
        <ele>707.19</ele>
        <time>2021-08-16T07:34:47Z</time>
      </trkpt>
      <trkpt lat="44.93221" lon="2.43746">
        <ele>710.07</ele>
        <time>2021-08-16T07:34:58Z</time>
      </trkpt>
      <trkpt lat="44.93221" lon="2.43721">
        <ele>710.07</ele>
        <time>2021-08-16T07:35:06Z</time>
      </trkpt>
      <trkpt lat="44.93219" lon="2.43691">
        <ele>710.07</ele>
        <time>2021-08-16T07:35:14Z</time>
      </trkpt>
      <trkpt lat="44.9322" lon="2.43665">
        <ele>709.59</ele>
        <time>2021-08-16T07:35:22Z</time>
      </trkpt>
      <trkpt lat="44.9322" lon="2.43663">
        <ele>709.59</ele>
        <time>2021-08-16T07:35:23Z</time>
      </trkpt>
      <trkpt lat="44.9322" lon="2.43662">
        <ele>709.59</ele>
        <time>2021-08-16T07:35:24Z</time>
      </trkpt>
      <trkpt lat="44.9322" lon="2.4366">
        <ele>709.59</ele>
        <time>2021-08-16T07:35:25Z</time>
      </trkpt>
      <trkpt lat="44.93218" lon="2.43658">
        <ele>709.59</ele>
        <time>2021-08-16T07:35:26Z</time>
      </trkpt>
      <trkpt lat="44.93215" lon="2.43656">
        <ele>709.59</ele>
        <time>2021-08-16T07:35:27Z</time>
      </trkpt>
      <trkpt lat="44.93206" lon="2.4365">
        <ele>708.63</ele>
        <time>2021-08-16T07:35:30Z</time>
      </trkpt>
      <trkpt lat="44.93178" lon="2.43633">
        <ele>705.75</ele>
        <time>2021-08-16T07:35:36Z</time>
      </trkpt>
      <trkpt lat="44.93156" lon="2.43617">
        <ele>705.26</ele>
        <time>2021-08-16T07:35:40Z</time>
      </trkpt>
      <trkpt lat="44.9315" lon="2.43612">
        <ele>705.26</ele>
        <time>2021-08-16T07:35:41Z</time>
      </trkpt>
      <trkpt lat="44.93145" lon="2.4361">
        <ele>704.78</ele>
        <time>2021-08-16T07:35:42Z</time>
      </trkpt>
      <trkpt lat="44.93139" lon="2.43608">
        <ele>704.3</ele>
        <time>2021-08-16T07:35:44Z</time>
      </trkpt>
      <trkpt lat="44.93138" lon="2.43605">
        <ele>703.82</ele>
        <time>2021-08-16T07:35:45Z</time>
      </trkpt>
      <trkpt lat="44.93138" lon="2.43601">
        <ele>704.3</ele>
        <time>2021-08-16T07:35:46Z</time>
      </trkpt>
      <trkpt lat="44.93138" lon="2.43598">
        <ele>704.3</ele>
        <time>2021-08-16T07:35:47Z</time>
      </trkpt>
      <trkpt lat="44.93139" lon="2.43594">
        <ele>703.34</ele>
        <time>2021-08-16T07:35:48Z</time>
      </trkpt>
      <trkpt lat="44.9314" lon="2.4359">
        <ele>703.34</ele>
        <time>2021-08-16T07:35:49Z</time>
      </trkpt>
      <trkpt lat="44.93141" lon="2.43585">
        <ele>703.34</ele>
        <time>2021-08-16T07:35:50Z</time>
      </trkpt>
      <trkpt lat="44.93143" lon="2.4358">
        <ele>703.34</ele>
        <time>2021-08-16T07:35:51Z</time>
      </trkpt>
      <trkpt lat="44.93162" lon="2.4352">
        <ele>700.94</ele>
        <time>2021-08-16T07:36:00Z</time>
      </trkpt>
      <trkpt lat="44.9317" lon="2.43492">
        <ele>699.98</ele>
        <time>2021-08-16T07:36:04Z</time>
      </trkpt>
      <trkpt lat="44.93175" lon="2.43477">
        <ele>699.02</ele>
        <time>2021-08-16T07:36:06Z</time>
      </trkpt>
      <trkpt lat="44.93175" lon="2.43468">
        <ele>698.05</ele>
        <time>2021-08-16T07:36:07Z</time>
      </trkpt>
      <trkpt lat="44.93173" lon="2.43459">
        <ele>696.61</ele>
        <time>2021-08-16T07:36:08Z</time>
      </trkpt>
      <trkpt lat="44.93169" lon="2.43452">
        <ele>696.61</ele>
        <time>2021-08-16T07:36:09Z</time>
      </trkpt>
      <trkpt lat="44.93165" lon="2.43446">
        <ele>697.57</ele>
        <time>2021-08-16T07:36:10Z</time>
      </trkpt>
      <trkpt lat="44.93161" lon="2.4344">
        <ele>697.57</ele>
        <time>2021-08-16T07:36:11Z</time>
      </trkpt>
      <trkpt lat="44.93141" lon="2.43403">
        <ele>697.57</ele>
        <time>2021-08-16T07:36:17Z</time>
      </trkpt>
      <trkpt lat="44.93141" lon="2.43396">
        <ele>696.61</ele>
        <time>2021-08-16T07:36:18Z</time>
      </trkpt>
      <trkpt lat="44.93143" lon="2.4339">
        <ele>696.13</ele>
        <time>2021-08-16T07:36:19Z</time>
      </trkpt>
      <trkpt lat="44.93146" lon="2.43378">
        <ele>695.65</ele>
        <time>2021-08-16T07:36:21Z</time>
      </trkpt>
      <trkpt lat="44.93149" lon="2.4337">
        <ele>696.13</ele>
        <time>2021-08-16T07:36:22Z</time>
      </trkpt>
      <trkpt lat="44.93155" lon="2.43349">
        <ele>696.13</ele>
        <time>2021-08-16T07:36:26Z</time>
      </trkpt>
      <trkpt lat="44.93154" lon="2.43347">
        <ele>696.13</ele>
        <time>2021-08-16T07:36:27Z</time>
      </trkpt>
      <trkpt lat="44.93153" lon="2.43349">
        <ele>696.13</ele>
        <time>2021-08-16T07:36:28Z</time>
      </trkpt>
      <trkpt lat="44.93152" lon="2.43351">
        <ele>696.13</ele>
        <time>2021-08-16T07:36:29Z</time>
      </trkpt>
      <trkpt lat="44.93151" lon="2.43354">
        <ele>696.13</ele>
        <time>2021-08-16T07:36:30Z</time>
      </trkpt>
      <trkpt lat="44.93146" lon="2.43361">
        <ele>696.13</ele>
        <time>2021-08-16T07:36:33Z</time>
      </trkpt>
      <trkpt lat="44.93143" lon="2.43361">
        <ele>696.13</ele>
        <time>2021-08-16T07:36:34Z</time>
      </trkpt>
      <trkpt lat="44.9314" lon="2.43359">
        <ele>696.13</ele>
        <time>2021-08-16T07:36:35Z</time>
      </trkpt>
      <trkpt lat="44.93118" lon="2.43345">
        <ele>692.29</ele>
        <time>2021-08-16T07:36:40Z</time>
      </trkpt>
      <trkpt lat="44.93114" lon="2.4334">
        <ele>691.81</ele>
        <time>2021-08-16T07:36:41Z</time>
      </trkpt>
      <trkpt lat="44.9311" lon="2.43336">
        <ele>690.84</ele>
        <time>2021-08-16T07:36:42Z</time>
      </trkpt>
      <trkpt lat="44.93104" lon="2.43332">
        <ele>689.88</ele>
        <time>2021-08-16T07:36:43Z</time>
      </trkpt>
      <trkpt lat="44.93098" lon="2.4333">
        <ele>689.88</ele>
        <time>2021-08-16T07:36:44Z</time>
      </trkpt>
      <trkpt lat="44.93092" lon="2.43328">
        <ele>688.44</ele>
        <time>2021-08-16T07:36:45Z</time>
      </trkpt>
      <trkpt lat="44.93085" lon="2.43325">
        <ele>688.44</ele>
        <time>2021-08-16T07:36:46Z</time>
      </trkpt>
      <trkpt lat="44.9308" lon="2.43321">
        <ele>688.44</ele>
        <time>2021-08-16T07:36:47Z</time>
      </trkpt>
      <trkpt lat="44.93075" lon="2.43316">
        <ele>688.92</ele>
        <time>2021-08-16T07:36:48Z</time>
      </trkpt>
      <trkpt lat="44.93071" lon="2.43311">
        <ele>688.44</ele>
        <time>2021-08-16T07:36:49Z</time>
      </trkpt>
      <trkpt lat="44.93067" lon="2.43305">
        <ele>688.44</ele>
        <time>2021-08-16T07:36:50Z</time>
      </trkpt>
      <trkpt lat="44.93049" lon="2.43277">
        <ele>689.88</ele>
        <time>2021-08-16T07:36:56Z</time>
      </trkpt>
      <trkpt lat="44.93046" lon="2.43274">
        <ele>689.88</ele>
        <time>2021-08-16T07:36:57Z</time>
      </trkpt>
      <trkpt lat="44.93042" lon="2.4327">
        <ele>689.88</ele>
        <time>2021-08-16T07:36:58Z</time>
      </trkpt>
      <trkpt lat="44.93038" lon="2.43266">
        <ele>688.92</ele>
        <time>2021-08-16T07:36:59Z</time>
      </trkpt>
      <trkpt lat="44.93032" lon="2.43261">
        <ele>687.96</ele>
        <time>2021-08-16T07:37:00Z</time>
      </trkpt>
      <trkpt lat="44.93025" lon="2.43259">
        <ele>687.96</ele>
        <time>2021-08-16T07:37:01Z</time>
      </trkpt>
      <trkpt lat="44.93019" lon="2.43259">
        <ele>687.96</ele>
        <time>2021-08-16T07:37:02Z</time>
      </trkpt>
      <trkpt lat="44.93013" lon="2.43261">
        <ele>687.96</ele>
        <time>2021-08-16T07:37:03Z</time>
      </trkpt>
      <trkpt lat="44.93006" lon="2.43265">
        <ele>687</ele>
        <time>2021-08-16T07:37:04Z</time>
      </trkpt>
      <trkpt lat="44.93001" lon="2.4327">
        <ele>687</ele>
        <time>2021-08-16T07:37:05Z</time>
      </trkpt>
      <trkpt lat="44.92991" lon="2.4328">
        <ele>687</ele>
        <time>2021-08-16T07:37:07Z</time>
      </trkpt>
      <trkpt lat="44.92958" lon="2.43316">
        <ele>686.52</ele>
        <time>2021-08-16T07:37:14Z</time>
      </trkpt>
      <trkpt lat="44.92953" lon="2.4332">
        <ele>686.52</ele>
        <time>2021-08-16T07:37:15Z</time>
      </trkpt>
      <trkpt lat="44.92934" lon="2.43334">
        <ele>686.52</ele>
        <time>2021-08-16T07:37:19Z</time>
      </trkpt>
      <trkpt lat="44.92929" lon="2.43335">
        <ele>686.52</ele>
        <time>2021-08-16T07:37:20Z</time>
      </trkpt>
      <trkpt lat="44.92903" lon="2.43338">
        <ele>686.52</ele>
        <time>2021-08-16T07:37:27Z</time>
      </trkpt>
      <trkpt lat="44.92889" lon="2.43325">
        <ele>686.52</ele>
        <time>2021-08-16T07:37:32Z</time>
      </trkpt>
      <trkpt lat="44.92889" lon="2.43321">
        <ele>686.52</ele>
        <time>2021-08-16T07:37:33Z</time>
      </trkpt>
      <trkpt lat="44.9289" lon="2.43317">
        <ele>686.52</ele>
        <time>2021-08-16T07:37:34Z</time>
      </trkpt>
      <trkpt lat="44.92891" lon="2.43313">
        <ele>686.52</ele>
        <time>2021-08-16T07:37:35Z</time>
      </trkpt>
      <trkpt lat="44.92892" lon="2.43308">
        <ele>686.52</ele>
        <time>2021-08-16T07:37:36Z</time>
      </trkpt>
      <trkpt lat="44.92903" lon="2.43287">
        <ele>685.56</ele>
        <time>2021-08-16T07:37:42Z</time>
      </trkpt>
      <trkpt lat="44.92911" lon="2.43276">
        <ele>684.6</ele>
        <time>2021-08-16T07:37:45Z</time>
      </trkpt>
      <trkpt lat="44.92935" lon="2.4324">
        <ele>680.27</ele>
        <time>2021-08-16T07:37:51Z</time>
      </trkpt>
      <trkpt lat="44.92939" lon="2.43234">
        <ele>678.83</ele>
        <time>2021-08-16T07:37:52Z</time>
      </trkpt>
      <trkpt lat="44.92942" lon="2.43228">
        <ele>678.83</ele>
        <time>2021-08-16T07:37:53Z</time>
      </trkpt>
      <trkpt lat="44.92945" lon="2.43222">
        <ele>678.35</ele>
        <time>2021-08-16T07:37:54Z</time>
      </trkpt>
      <trkpt lat="44.92958" lon="2.43198">
        <ele>676.42</ele>
        <time>2021-08-16T07:37:58Z</time>
      </trkpt>
      <trkpt lat="44.92961" lon="2.43192">
        <ele>675.46</ele>
        <time>2021-08-16T07:37:59Z</time>
      </trkpt>
      <trkpt lat="44.92964" lon="2.43186">
        <ele>674.98</ele>
        <time>2021-08-16T07:38:00Z</time>
      </trkpt>
      <trkpt lat="44.92972" lon="2.43171">
        <ele>671.62</ele>
        <time>2021-08-16T07:38:04Z</time>
      </trkpt>
      <trkpt lat="44.92976" lon="2.43168">
        <ele>671.62</ele>
        <time>2021-08-16T07:38:08Z</time>
      </trkpt>
      <trkpt lat="44.92978" lon="2.43168">
        <ele>670.66</ele>
        <time>2021-08-16T07:38:09Z</time>
      </trkpt>
      <trkpt lat="44.92991" lon="2.43166">
        <ele>667.77</ele>
        <time>2021-08-16T07:38:14Z</time>
      </trkpt>
      <trkpt lat="44.93009" lon="2.43158">
        <ele>665.37</ele>
        <time>2021-08-16T07:38:20Z</time>
      </trkpt>
      <trkpt lat="44.93031" lon="2.43161">
        <ele>662.49</ele>
        <time>2021-08-16T07:38:26Z</time>
      </trkpt>
      <trkpt lat="44.93049" lon="2.43163">
        <ele>660.56</ele>
        <time>2021-08-16T07:38:31Z</time>
      </trkpt>
      <trkpt lat="44.93062" lon="2.43155">
        <ele>658.16</ele>
        <time>2021-08-16T07:38:37Z</time>
      </trkpt>
      <trkpt lat="44.93078" lon="2.43133">
        <ele>655.76</ele>
        <time>2021-08-16T07:38:45Z</time>
      </trkpt>
      <trkpt lat="44.93083" lon="2.4312">
        <ele>654.31</ele>
        <time>2021-08-16T07:38:48Z</time>
      </trkpt>
      <trkpt lat="44.93091" lon="2.43102">
        <ele>651.43</ele>
        <time>2021-08-16T07:38:53Z</time>
      </trkpt>
      <trkpt lat="44.93092" lon="2.431">
        <ele>650.95</ele>
        <time>2021-08-16T07:38:54Z</time>
      </trkpt>
      <trkpt lat="44.93097" lon="2.43081">
        <ele>648.55</ele>
        <time>2021-08-16T07:39:01Z</time>
      </trkpt>
      <trkpt lat="44.93097" lon="2.43076">
        <ele>648.07</ele>
        <time>2021-08-16T07:39:03Z</time>
      </trkpt>
      <trkpt lat="44.93098" lon="2.4307">
        <ele>646.62</ele>
        <time>2021-08-16T07:39:05Z</time>
      </trkpt>
      <trkpt lat="44.93098" lon="2.43068">
        <ele>646.14</ele>
        <time>2021-08-16T07:39:06Z</time>
      </trkpt>
      <trkpt lat="44.931" lon="2.43056">
        <ele>645.18</ele>
        <time>2021-08-16T07:39:11Z</time>
      </trkpt>
      <trkpt lat="44.931" lon="2.43037">
        <ele>642.78</ele>
        <time>2021-08-16T07:39:17Z</time>
      </trkpt>
      <trkpt lat="44.93099" lon="2.43017">
        <ele>639.41</ele>
        <time>2021-08-16T07:39:22Z</time>
      </trkpt>
      <trkpt lat="44.93096" lon="2.42995">
        <ele>636.53</ele>
        <time>2021-08-16T07:39:27Z</time>
      </trkpt>
      <trkpt lat="44.93095" lon="2.42971">
        <ele>633.17</ele>
        <time>2021-08-16T07:39:33Z</time>
      </trkpt>
      <trkpt lat="44.93098" lon="2.42941">
        <ele>630.76</ele>
        <time>2021-08-16T07:39:40Z</time>
      </trkpt>
      <trkpt lat="44.93098" lon="2.42916">
        <ele>628.36</ele>
        <time>2021-08-16T07:39:46Z</time>
      </trkpt>
      <trkpt lat="44.93096" lon="2.42881">
        <ele>626.92</ele>
        <time>2021-08-16T07:39:53Z</time>
      </trkpt>
      <trkpt lat="44.93093" lon="2.42841">
        <ele>625.96</ele>
        <time>2021-08-16T07:40:00Z</time>
      </trkpt>
      <trkpt lat="44.93093" lon="2.42829">
        <ele>625.47</ele>
        <time>2021-08-16T07:40:02Z</time>
      </trkpt>
      <trkpt lat="44.93094" lon="2.42823">
        <ele>624.99</ele>
        <time>2021-08-16T07:40:03Z</time>
      </trkpt>
      <trkpt lat="44.93094" lon="2.42816">
        <ele>624.99</ele>
        <time>2021-08-16T07:40:04Z</time>
      </trkpt>
      <trkpt lat="44.93095" lon="2.42809">
        <ele>624.99</ele>
        <time>2021-08-16T07:40:05Z</time>
      </trkpt>
      <trkpt lat="44.93097" lon="2.42802">
        <ele>624.03</ele>
        <time>2021-08-16T07:40:06Z</time>
      </trkpt>
      <trkpt lat="44.93104" lon="2.42776">
        <ele>623.55</ele>
        <time>2021-08-16T07:40:10Z</time>
      </trkpt>
      <trkpt lat="44.93116" lon="2.42749">
        <ele>623.07</ele>
        <time>2021-08-16T07:40:14Z</time>
      </trkpt>
      <trkpt lat="44.93128" lon="2.42701">
        <ele>623.07</ele>
        <time>2021-08-16T07:40:22Z</time>
      </trkpt>
      <trkpt lat="44.9313" lon="2.42682">
        <ele>624.51</ele>
        <time>2021-08-16T07:40:26Z</time>
      </trkpt>
      <trkpt lat="44.9313" lon="2.42653">
        <ele>624.51</ele>
        <time>2021-08-16T07:40:31Z</time>
      </trkpt>
      <trkpt lat="44.93131" lon="2.42646">
        <ele>624.51</ele>
        <time>2021-08-16T07:40:32Z</time>
      </trkpt>
      <trkpt lat="44.93135" lon="2.42612">
        <ele>624.51</ele>
        <time>2021-08-16T07:40:38Z</time>
      </trkpt>
      <trkpt lat="44.93132" lon="2.42601">
        <ele>624.51</ele>
        <time>2021-08-16T07:40:40Z</time>
      </trkpt>
      <trkpt lat="44.9313" lon="2.42596">
        <ele>624.51</ele>
        <time>2021-08-16T07:40:41Z</time>
      </trkpt>
      <trkpt lat="44.93127" lon="2.42591">
        <ele>624.51</ele>
        <time>2021-08-16T07:40:42Z</time>
      </trkpt>
      <trkpt lat="44.93124" lon="2.42585">
        <ele>624.03</ele>
        <time>2021-08-16T07:40:43Z</time>
      </trkpt>
      <trkpt lat="44.9312" lon="2.42578">
        <ele>624.03</ele>
        <time>2021-08-16T07:40:44Z</time>
      </trkpt>
      <trkpt lat="44.93118" lon="2.42573">
        <ele>624.03</ele>
        <time>2021-08-16T07:40:45Z</time>
      </trkpt>
      <trkpt lat="44.93116" lon="2.42566">
        <ele>623.07</ele>
        <time>2021-08-16T07:40:46Z</time>
      </trkpt>
      <trkpt lat="44.93111" lon="2.42552">
        <ele>623.07</ele>
        <time>2021-08-16T07:40:48Z</time>
      </trkpt>
      <trkpt lat="44.9311" lon="2.42545">
        <ele>623.07</ele>
        <time>2021-08-16T07:40:49Z</time>
      </trkpt>
      <trkpt lat="44.931" lon="2.42498">
        <ele>624.03</ele>
        <time>2021-08-16T07:40:57Z</time>
      </trkpt>
      <trkpt lat="44.93093" lon="2.42463">
        <ele>624.51</ele>
        <time>2021-08-16T07:41:04Z</time>
      </trkpt>
      <trkpt lat="44.9308" lon="2.4241">
        <ele>624.51</ele>
        <time>2021-08-16T07:41:13Z</time>
      </trkpt>
      <trkpt lat="44.93076" lon="2.42396">
        <ele>623.07</ele>
        <time>2021-08-16T07:41:15Z</time>
      </trkpt>
      <trkpt lat="44.93056" lon="2.42335">
        <ele>619.71</ele>
        <time>2021-08-16T07:41:23Z</time>
      </trkpt>
      <trkpt lat="44.9304" lon="2.42304">
        <ele>619.71</ele>
        <time>2021-08-16T07:41:27Z</time>
      </trkpt>
      <trkpt lat="44.93002" lon="2.42252">
        <ele>618.75</ele>
        <time>2021-08-16T07:41:35Z</time>
      </trkpt>
      <trkpt lat="44.92983" lon="2.42202">
        <ele>620.19</ele>
        <time>2021-08-16T07:41:42Z</time>
      </trkpt>
      <trkpt lat="44.92969" lon="2.42166">
        <ele>622.11</ele>
        <time>2021-08-16T07:41:49Z</time>
      </trkpt>
      <trkpt lat="44.92957" lon="2.42131">
        <ele>622.59</ele>
        <time>2021-08-16T07:41:57Z</time>
      </trkpt>
      <trkpt lat="44.92936" lon="2.42087">
        <ele>622.59</ele>
        <time>2021-08-16T07:42:05Z</time>
      </trkpt>
      <trkpt lat="44.92901" lon="2.4203">
        <ele>619.71</ele>
        <time>2021-08-16T07:42:15Z</time>
      </trkpt>
      <trkpt lat="44.92859" lon="2.4198">
        <ele>618.26</ele>
        <time>2021-08-16T07:42:23Z</time>
      </trkpt>
      <trkpt lat="44.9282" lon="2.41936">
        <ele>617.3</ele>
        <time>2021-08-16T07:42:31Z</time>
      </trkpt>
      <trkpt lat="44.92815" lon="2.41929">
        <ele>617.3</ele>
        <time>2021-08-16T07:42:32Z</time>
      </trkpt>
      <trkpt lat="44.92812" lon="2.41924">
        <ele>617.3</ele>
        <time>2021-08-16T07:42:33Z</time>
      </trkpt>
      <trkpt lat="44.92792" lon="2.41895">
        <ele>616.82</ele>
        <time>2021-08-16T07:42:38Z</time>
      </trkpt>
      <trkpt lat="44.92788" lon="2.41887">
        <ele>616.34</ele>
        <time>2021-08-16T07:42:39Z</time>
      </trkpt>
      <trkpt lat="44.92786" lon="2.4188">
        <ele>615.86</ele>
        <time>2021-08-16T07:42:40Z</time>
      </trkpt>
      <trkpt lat="44.92783" lon="2.41871">
        <ele>615.86</ele>
        <time>2021-08-16T07:42:41Z</time>
      </trkpt>
      <trkpt lat="44.92782" lon="2.41863">
        <ele>615.86</ele>
        <time>2021-08-16T07:42:42Z</time>
      </trkpt>
      <trkpt lat="44.9278" lon="2.41854">
        <ele>615.86</ele>
        <time>2021-08-16T07:42:43Z</time>
      </trkpt>
      <trkpt lat="44.92779" lon="2.41845">
        <ele>615.38</ele>
        <time>2021-08-16T07:42:44Z</time>
      </trkpt>
      <trkpt lat="44.92773" lon="2.4182">
        <ele>615.38</ele>
        <time>2021-08-16T07:42:47Z</time>
      </trkpt>
      <trkpt lat="44.9277" lon="2.41812">
        <ele>614.9</ele>
        <time>2021-08-16T07:42:48Z</time>
      </trkpt>
      <trkpt lat="44.92767" lon="2.41805">
        <ele>614.9</ele>
        <time>2021-08-16T07:42:49Z</time>
      </trkpt>
      <trkpt lat="44.92763" lon="2.41798">
        <ele>613.94</ele>
        <time>2021-08-16T07:42:50Z</time>
      </trkpt>
      <trkpt lat="44.92758" lon="2.41793">
        <ele>613.94</ele>
        <time>2021-08-16T07:42:51Z</time>
      </trkpt>
      <trkpt lat="44.92753" lon="2.41788">
        <ele>613.94</ele>
        <time>2021-08-16T07:42:52Z</time>
      </trkpt>
      <trkpt lat="44.92748" lon="2.41783">
        <ele>613.94</ele>
        <time>2021-08-16T07:42:53Z</time>
      </trkpt>
      <trkpt lat="44.92742" lon="2.41778">
        <ele>613.94</ele>
        <time>2021-08-16T07:42:54Z</time>
      </trkpt>
      <trkpt lat="44.92707" lon="2.41748">
        <ele>611.06</ele>
        <time>2021-08-16T07:43:00Z</time>
      </trkpt>
      <trkpt lat="44.92702" lon="2.41741">
        <ele>611.54</ele>
        <time>2021-08-16T07:43:01Z</time>
      </trkpt>
      <trkpt lat="44.92697" lon="2.41734">
        <ele>611.06</ele>
        <time>2021-08-16T07:43:02Z</time>
      </trkpt>
      <trkpt lat="44.92672" lon="2.4168">
        <ele>611.06</ele>
        <time>2021-08-16T07:43:09Z</time>
      </trkpt>
      <trkpt lat="44.92656" lon="2.41611">
        <ele>609.13</ele>
        <time>2021-08-16T07:43:17Z</time>
      </trkpt>
      <trkpt lat="44.92646" lon="2.41558">
        <ele>606.25</ele>
        <time>2021-08-16T07:43:22Z</time>
      </trkpt>
      <trkpt lat="44.9263" lon="2.415">
        <ele>602.88</ele>
        <time>2021-08-16T07:43:27Z</time>
      </trkpt>
      <trkpt lat="44.92621" lon="2.41477">
        <ele>601.44</ele>
        <time>2021-08-16T07:43:29Z</time>
      </trkpt>
      <trkpt lat="44.92611" lon="2.41454">
        <ele>600.48</ele>
        <time>2021-08-16T07:43:31Z</time>
      </trkpt>
      <trkpt lat="44.92583" lon="2.41382">
        <ele>596.64</ele>
        <time>2021-08-16T07:43:37Z</time>
      </trkpt>
      <trkpt lat="44.92579" lon="2.41369">
        <ele>596.64</ele>
        <time>2021-08-16T07:43:38Z</time>
      </trkpt>
      <trkpt lat="44.92546" lon="2.41261">
        <ele>595.19</ele>
        <time>2021-08-16T07:43:47Z</time>
      </trkpt>
      <trkpt lat="44.92513" lon="2.41165">
        <ele>592.79</ele>
        <time>2021-08-16T07:43:56Z</time>
      </trkpt>
      <trkpt lat="44.92472" lon="2.41066">
        <ele>590.39</ele>
        <time>2021-08-16T07:44:06Z</time>
      </trkpt>
      <trkpt lat="44.92449" lon="2.40999">
        <ele>588.46</ele>
        <time>2021-08-16T07:44:13Z</time>
      </trkpt>
      <trkpt lat="44.9244" lon="2.40937">
        <ele>588.95</ele>
        <time>2021-08-16T07:44:20Z</time>
      </trkpt>
      <trkpt lat="44.92439" lon="2.4092">
        <ele>588.95</ele>
        <time>2021-08-16T07:44:22Z</time>
      </trkpt>
      <trkpt lat="44.92439" lon="2.40913">
        <ele>588.95</ele>
        <time>2021-08-16T07:44:23Z</time>
      </trkpt>
      <trkpt lat="44.92441" lon="2.40849">
        <ele>589.91</ele>
        <time>2021-08-16T07:44:32Z</time>
      </trkpt>
      <trkpt lat="44.92446" lon="2.40787">
        <ele>590.87</ele>
        <time>2021-08-16T07:44:42Z</time>
      </trkpt>
      <trkpt lat="44.9245" lon="2.40731">
        <ele>591.83</ele>
        <time>2021-08-16T07:44:52Z</time>
      </trkpt>
      <trkpt lat="44.9245" lon="2.40691">
        <ele>593.27</ele>
        <time>2021-08-16T07:45:01Z</time>
      </trkpt>
      <trkpt lat="44.92449" lon="2.4067">
        <ele>594.23</ele>
        <time>2021-08-16T07:45:06Z</time>
      </trkpt>
      <trkpt lat="44.92448" lon="2.40656">
        <ele>595.19</ele>
        <time>2021-08-16T07:45:11Z</time>
      </trkpt>
      <trkpt lat="44.92448" lon="2.40654">
        <ele>595.19</ele>
        <time>2021-08-16T07:45:12Z</time>
      </trkpt>
      <trkpt lat="44.92444" lon="2.40618">
        <ele>596.64</ele>
        <time>2021-08-16T07:45:24Z</time>
      </trkpt>
      <trkpt lat="44.92441" lon="2.40587">
        <ele>598.08</ele>
        <time>2021-08-16T07:45:34Z</time>
      </trkpt>
      <trkpt lat="44.92438" lon="2.40557">
        <ele>599.52</ele>
        <time>2021-08-16T07:45:44Z</time>
      </trkpt>
      <trkpt lat="44.92434" lon="2.40523">
        <ele>600.96</ele>
        <time>2021-08-16T07:45:55Z</time>
      </trkpt>
      <trkpt lat="44.92431" lon="2.40493">
        <ele>601.92</ele>
        <time>2021-08-16T07:46:05Z</time>
      </trkpt>
      <trkpt lat="44.92426" lon="2.40461">
        <ele>602.88</ele>
        <time>2021-08-16T07:46:14Z</time>
      </trkpt>
      <trkpt lat="44.92414" lon="2.40416">
        <ele>603.36</ele>
        <time>2021-08-16T07:46:25Z</time>
      </trkpt>
      <trkpt lat="44.92399" lon="2.40377">
        <ele>603.36</ele>
        <time>2021-08-16T07:46:33Z</time>
      </trkpt>
      <trkpt lat="44.92377" lon="2.40326">
        <ele>603.36</ele>
        <time>2021-08-16T07:46:43Z</time>
      </trkpt>
      <trkpt lat="44.92352" lon="2.40268">
        <ele>603.36</ele>
        <time>2021-08-16T07:46:53Z</time>
      </trkpt>
      <trkpt lat="44.92322" lon="2.40199">
        <ele>601.92</ele>
        <time>2021-08-16T07:47:04Z</time>
      </trkpt>
      <trkpt lat="44.92295" lon="2.40132">
        <ele>601.92</ele>
        <time>2021-08-16T07:47:14Z</time>
      </trkpt>
      <trkpt lat="44.92279" lon="2.40072">
        <ele>601.92</ele>
        <time>2021-08-16T07:47:23Z</time>
      </trkpt>
      <trkpt lat="44.92271" lon="2.40019">
        <ele>603.36</ele>
        <time>2021-08-16T07:47:32Z</time>
      </trkpt>
      <trkpt lat="44.92264" lon="2.39954">
        <ele>604.81</ele>
        <time>2021-08-16T07:47:43Z</time>
      </trkpt>
      <trkpt lat="44.92256" lon="2.39893">
        <ele>604.81</ele>
        <time>2021-08-16T07:47:52Z</time>
      </trkpt>
      <trkpt lat="44.92249" lon="2.39838">
        <ele>603.36</ele>
        <time>2021-08-16T07:47:59Z</time>
      </trkpt>
      <trkpt lat="44.92248" lon="2.39829">
        <ele>603.36</ele>
        <time>2021-08-16T07:48:00Z</time>
      </trkpt>
      <trkpt lat="44.92238" lon="2.39741">
        <ele>602.4</ele>
        <time>2021-08-16T07:48:10Z</time>
      </trkpt>
      <trkpt lat="44.92227" lon="2.39646">
        <ele>600.96</ele>
        <time>2021-08-16T07:48:20Z</time>
      </trkpt>
      <trkpt lat="44.92222" lon="2.39539">
        <ele>599.52</ele>
        <time>2021-08-16T07:48:31Z</time>
      </trkpt>
      <trkpt lat="44.9222" lon="2.39434">
        <ele>598.56</ele>
        <time>2021-08-16T07:48:42Z</time>
      </trkpt>
      <trkpt lat="44.92215" lon="2.3935">
        <ele>597.6</ele>
        <time>2021-08-16T07:48:51Z</time>
      </trkpt>
      <trkpt lat="44.922" lon="2.39244">
        <ele>596.64</ele>
        <time>2021-08-16T07:49:02Z</time>
      </trkpt>
      <trkpt lat="44.92178" lon="2.39146">
        <ele>596.15</ele>
        <time>2021-08-16T07:49:13Z</time>
      </trkpt>
      <trkpt lat="44.92157" lon="2.39057">
        <ele>596.15</ele>
        <time>2021-08-16T07:49:24Z</time>
      </trkpt>
      <trkpt lat="44.92136" lon="2.38971">
        <ele>596.15</ele>
        <time>2021-08-16T07:49:35Z</time>
      </trkpt>
      <trkpt lat="44.92112" lon="2.38887">
        <ele>595.19</ele>
        <time>2021-08-16T07:49:45Z</time>
      </trkpt>
      <trkpt lat="44.9208" lon="2.3879">
        <ele>594.71</ele>
        <time>2021-08-16T07:49:57Z</time>
      </trkpt>
      <trkpt lat="44.92058" lon="2.38729">
        <ele>594.71</ele>
        <time>2021-08-16T07:50:05Z</time>
      </trkpt>
      <trkpt lat="44.92042" lon="2.38681">
        <ele>596.15</ele>
        <time>2021-08-16T07:50:12Z</time>
      </trkpt>
      <trkpt lat="44.9202" lon="2.38618">
        <ele>596.64</ele>
        <time>2021-08-16T07:50:22Z</time>
      </trkpt>
      <trkpt lat="44.92003" lon="2.38569">
        <ele>598.08</ele>
        <time>2021-08-16T07:50:30Z</time>
      </trkpt>
      <trkpt lat="44.91987" lon="2.38519">
        <ele>599.04</ele>
        <time>2021-08-16T07:50:39Z</time>
      </trkpt>
      <trkpt lat="44.9197" lon="2.38462">
        <ele>599.52</ele>
        <time>2021-08-16T07:50:50Z</time>
      </trkpt>
      <trkpt lat="44.91956" lon="2.38406">
        <ele>600</ele>
        <time>2021-08-16T07:51:00Z</time>
      </trkpt>
      <trkpt lat="44.91942" lon="2.38343">
        <ele>598.56</ele>
        <time>2021-08-16T07:51:09Z</time>
      </trkpt>
      <trkpt lat="44.91939" lon="2.38326">
        <ele>598.08</ele>
        <time>2021-08-16T07:51:11Z</time>
      </trkpt>
      <trkpt lat="44.9193" lon="2.38273">
        <ele>596.15</ele>
        <time>2021-08-16T07:51:17Z</time>
      </trkpt>
      <trkpt lat="44.91929" lon="2.38263">
        <ele>596.15</ele>
        <time>2021-08-16T07:51:18Z</time>
      </trkpt>
      <trkpt lat="44.91911" lon="2.38146">
        <ele>594.23</ele>
        <time>2021-08-16T07:51:30Z</time>
      </trkpt>
      <trkpt lat="44.91898" lon="2.38042">
        <ele>593.75</ele>
        <time>2021-08-16T07:51:41Z</time>
      </trkpt>
      <trkpt lat="44.91893" lon="2.37937">
        <ele>590.39</ele>
        <time>2021-08-16T07:51:51Z</time>
      </trkpt>
      <trkpt lat="44.91888" lon="2.37842">
        <ele>588.95</ele>
        <time>2021-08-16T07:52:00Z</time>
      </trkpt>
      <trkpt lat="44.91871" lon="2.37755">
        <ele>587.5</ele>
        <time>2021-08-16T07:52:09Z</time>
      </trkpt>
      <trkpt lat="44.91854" lon="2.37691">
        <ele>587.98</ele>
        <time>2021-08-16T07:52:17Z</time>
      </trkpt>
      <trkpt lat="44.9185" lon="2.37678">
        <ele>589.43</ele>
        <time>2021-08-16T07:52:19Z</time>
      </trkpt>
      <trkpt lat="44.91836" lon="2.37618">
        <ele>589.43</ele>
        <time>2021-08-16T07:52:27Z</time>
      </trkpt>
      <trkpt lat="44.91824" lon="2.37553">
        <ele>586.54</ele>
        <time>2021-08-16T07:52:34Z</time>
      </trkpt>
      <trkpt lat="44.91805" lon="2.37449">
        <ele>584.14</ele>
        <time>2021-08-16T07:52:45Z</time>
      </trkpt>
      <trkpt lat="44.91802" lon="2.37386">
        <ele>581.25</ele>
        <time>2021-08-16T07:52:51Z</time>
      </trkpt>
      <trkpt lat="44.918" lon="2.37342">
        <ele>579.81</ele>
        <time>2021-08-16T07:52:55Z</time>
      </trkpt>
      <trkpt lat="44.91797" lon="2.37274">
        <ele>575.49</ele>
        <time>2021-08-16T07:53:01Z</time>
      </trkpt>
      <trkpt lat="44.91795" lon="2.37249">
        <ele>575.01</ele>
        <time>2021-08-16T07:53:03Z</time>
      </trkpt>
      <trkpt lat="44.91788" lon="2.37182">
        <ele>571.16</ele>
        <time>2021-08-16T07:53:08Z</time>
      </trkpt>
      <trkpt lat="44.91773" lon="2.37094">
        <ele>567.32</ele>
        <time>2021-08-16T07:53:14Z</time>
      </trkpt>
      <trkpt lat="44.91751" lon="2.36995">
        <ele>566.83</ele>
        <time>2021-08-16T07:53:22Z</time>
      </trkpt>
      <trkpt lat="44.91739" lon="2.36945">
        <ele>568.28</ele>
        <time>2021-08-16T07:53:27Z</time>
      </trkpt>
      <trkpt lat="44.91728" lon="2.36899">
        <ele>570.2</ele>
        <time>2021-08-16T07:53:33Z</time>
      </trkpt>
      <trkpt lat="44.91721" lon="2.36865">
        <ele>572.12</ele>
        <time>2021-08-16T07:53:40Z</time>
      </trkpt>
      <trkpt lat="44.91715" lon="2.36839">
        <ele>573.56</ele>
        <time>2021-08-16T07:53:48Z</time>
      </trkpt>
      <trkpt lat="44.91707" lon="2.36806">
        <ele>575.49</ele>
        <time>2021-08-16T07:54:00Z</time>
      </trkpt>
      <trkpt lat="44.91702" lon="2.36781">
        <ele>576.93</ele>
        <time>2021-08-16T07:54:10Z</time>
      </trkpt>
      <trkpt lat="44.91695" lon="2.36749">
        <ele>578.37</ele>
        <time>2021-08-16T07:54:21Z</time>
      </trkpt>
      <trkpt lat="44.91689" lon="2.36722">
        <ele>578.85</ele>
        <time>2021-08-16T07:54:31Z</time>
      </trkpt>
      <trkpt lat="44.91682" lon="2.36693">
        <ele>580.29</ele>
        <time>2021-08-16T07:54:41Z</time>
      </trkpt>
      <trkpt lat="44.91677" lon="2.36669">
        <ele>581.25</ele>
        <time>2021-08-16T07:54:49Z</time>
      </trkpt>
      <trkpt lat="44.91669" lon="2.36637">
        <ele>582.22</ele>
        <time>2021-08-16T07:54:59Z</time>
      </trkpt>
      <trkpt lat="44.91663" lon="2.3661">
        <ele>583.18</ele>
        <time>2021-08-16T07:55:06Z</time>
      </trkpt>
      <trkpt lat="44.91657" lon="2.36586">
        <ele>583.66</ele>
        <time>2021-08-16T07:55:13Z</time>
      </trkpt>
      <trkpt lat="44.91637" lon="2.36536">
        <ele>584.14</ele>
        <time>2021-08-16T07:55:24Z</time>
      </trkpt>
      <trkpt lat="44.91626" lon="2.36512">
        <ele>584.14</ele>
        <time>2021-08-16T07:55:29Z</time>
      </trkpt>
      <trkpt lat="44.9161" lon="2.36464">
        <ele>584.14</ele>
        <time>2021-08-16T07:55:38Z</time>
      </trkpt>
      <trkpt lat="44.91602" lon="2.36428">
        <ele>585.1</ele>
        <time>2021-08-16T07:55:46Z</time>
      </trkpt>
      <trkpt lat="44.91595" lon="2.36387">
        <ele>587.02</ele>
        <time>2021-08-16T07:55:58Z</time>
      </trkpt>
      <trkpt lat="44.91593" lon="2.36366">
        <ele>588.46</ele>
        <time>2021-08-16T07:56:05Z</time>
      </trkpt>
      <trkpt lat="44.9159" lon="2.36346">
        <ele>589.91</ele>
        <time>2021-08-16T07:56:12Z</time>
      </trkpt>
      <trkpt lat="44.91588" lon="2.36325">
        <ele>590.39</ele>
        <time>2021-08-16T07:56:20Z</time>
      </trkpt>
      <trkpt lat="44.91586" lon="2.36311">
        <ele>591.35</ele>
        <time>2021-08-16T07:56:26Z</time>
      </trkpt>
      <trkpt lat="44.91582" lon="2.36295">
        <ele>592.79</ele>
        <time>2021-08-16T07:56:33Z</time>
      </trkpt>
      <trkpt lat="44.91576" lon="2.36275">
        <ele>594.23</ele>
        <time>2021-08-16T07:56:42Z</time>
      </trkpt>
      <trkpt lat="44.91571" lon="2.36255">
        <ele>595.67</ele>
        <time>2021-08-16T07:56:51Z</time>
      </trkpt>
      <trkpt lat="44.9156" lon="2.36241">
        <ele>596.15</ele>
        <time>2021-08-16T07:56:59Z</time>
      </trkpt>
      <trkpt lat="44.91558" lon="2.36242">
        <ele>596.15</ele>
        <time>2021-08-16T07:57:00Z</time>
      </trkpt>
      <trkpt lat="44.91556" lon="2.36243">
        <ele>596.15</ele>
        <time>2021-08-16T07:57:01Z</time>
      </trkpt>
      <trkpt lat="44.91541" lon="2.3625">
        <ele>596.15</ele>
        <time>2021-08-16T07:57:07Z</time>
      </trkpt>
      <trkpt lat="44.91539" lon="2.36248">
        <ele>596.15</ele>
        <time>2021-08-16T07:57:08Z</time>
      </trkpt>
      <trkpt lat="44.91537" lon="2.36246">
        <ele>596.64</ele>
        <time>2021-08-16T07:57:09Z</time>
      </trkpt>
      <trkpt lat="44.91536" lon="2.36243">
        <ele>596.64</ele>
        <time>2021-08-16T07:57:10Z</time>
      </trkpt>
      <trkpt lat="44.91534" lon="2.36239">
        <ele>596.64</ele>
        <time>2021-08-16T07:57:11Z</time>
      </trkpt>
      <trkpt lat="44.91533" lon="2.36236">
        <ele>596.64</ele>
        <time>2021-08-16T07:57:12Z</time>
      </trkpt>
      <trkpt lat="44.91531" lon="2.36215">
        <ele>596.64</ele>
        <time>2021-08-16T07:57:16Z</time>
      </trkpt>
      <trkpt lat="44.9153" lon="2.36209">
        <ele>596.64</ele>
        <time>2021-08-16T07:57:17Z</time>
      </trkpt>
      <trkpt lat="44.9153" lon="2.36203">
        <ele>594.71</ele>
        <time>2021-08-16T07:57:18Z</time>
      </trkpt>
      <trkpt lat="44.91528" lon="2.36196">
        <ele>594.71</ele>
        <time>2021-08-16T07:57:19Z</time>
      </trkpt>
      <trkpt lat="44.91526" lon="2.36189">
        <ele>594.23</ele>
        <time>2021-08-16T07:57:20Z</time>
      </trkpt>
      <trkpt lat="44.91522" lon="2.36183">
        <ele>593.27</ele>
        <time>2021-08-16T07:57:21Z</time>
      </trkpt>
      <trkpt lat="44.91518" lon="2.36177">
        <ele>593.27</ele>
        <time>2021-08-16T07:57:22Z</time>
      </trkpt>
      <trkpt lat="44.91513" lon="2.36171">
        <ele>592.79</ele>
        <time>2021-08-16T07:57:23Z</time>
      </trkpt>
      <trkpt lat="44.91482" lon="2.36136">
        <ele>589.91</ele>
        <time>2021-08-16T07:57:29Z</time>
      </trkpt>
      <trkpt lat="44.91468" lon="2.36119">
        <ele>587.98</ele>
        <time>2021-08-16T07:57:32Z</time>
      </trkpt>
      <trkpt lat="44.91447" lon="2.36084">
        <ele>584.62</ele>
        <time>2021-08-16T07:57:38Z</time>
      </trkpt>
      <trkpt lat="44.91439" lon="2.36061">
        <ele>582.7</ele>
        <time>2021-08-16T07:57:42Z</time>
      </trkpt>
      <trkpt lat="44.91437" lon="2.36053">
        <ele>582.22</ele>
        <time>2021-08-16T07:57:43Z</time>
      </trkpt>
      <trkpt lat="44.91435" lon="2.36044">
        <ele>581.73</ele>
        <time>2021-08-16T07:57:44Z</time>
      </trkpt>
      <trkpt lat="44.91434" lon="2.36035">
        <ele>580.77</ele>
        <time>2021-08-16T07:57:45Z</time>
      </trkpt>
      <trkpt lat="44.91434" lon="2.36024">
        <ele>580.29</ele>
        <time>2021-08-16T07:57:46Z</time>
      </trkpt>
      <trkpt lat="44.9143" lon="2.35966">
        <ele>576.45</ele>
        <time>2021-08-16T07:57:51Z</time>
      </trkpt>
      <trkpt lat="44.91429" lon="2.35954">
        <ele>576.45</ele>
        <time>2021-08-16T07:57:52Z</time>
      </trkpt>
      <trkpt lat="44.91421" lon="2.35891">
        <ele>574.04</ele>
        <time>2021-08-16T07:57:57Z</time>
      </trkpt>
      <trkpt lat="44.91412" lon="2.35831">
        <ele>574.04</ele>
        <time>2021-08-16T07:58:03Z</time>
      </trkpt>
      <trkpt lat="44.91409" lon="2.35787">
        <ele>576.45</ele>
        <time>2021-08-16T07:58:09Z</time>
      </trkpt>
      <trkpt lat="44.91403" lon="2.3575">
        <ele>577.89</ele>
        <time>2021-08-16T07:58:17Z</time>
      </trkpt>
      <trkpt lat="44.91398" lon="2.35724">
        <ele>577.89</ele>
        <time>2021-08-16T07:58:25Z</time>
      </trkpt>
      <trkpt lat="44.9139" lon="2.35699">
        <ele>579.33</ele>
        <time>2021-08-16T07:58:35Z</time>
      </trkpt>
      <trkpt lat="44.91389" lon="2.35695">
        <ele>579.81</ele>
        <time>2021-08-16T07:58:37Z</time>
      </trkpt>
      <trkpt lat="44.91389" lon="2.35693">
        <ele>580.29</ele>
        <time>2021-08-16T07:58:38Z</time>
      </trkpt>
      <trkpt lat="44.9139" lon="2.35691">
        <ele>580.29</ele>
        <time>2021-08-16T07:58:39Z</time>
      </trkpt>
      <trkpt lat="44.91391" lon="2.35689">
        <ele>580.29</ele>
        <time>2021-08-16T07:58:40Z</time>
      </trkpt>
      <trkpt lat="44.91391" lon="2.35688">
        <ele>580.77</ele>
        <time>2021-08-16T07:58:41Z</time>
      </trkpt>
      <trkpt lat="44.91391" lon="2.35685">
        <ele>580.77</ele>
        <time>2021-08-16T07:58:42Z</time>
      </trkpt>
      <trkpt lat="44.9139" lon="2.35684">
        <ele>580.77</ele>
        <time>2021-08-16T07:58:43Z</time>
      </trkpt>
      <trkpt lat="44.91389" lon="2.35682">
        <ele>580.77</ele>
        <time>2021-08-16T07:58:44Z</time>
      </trkpt>
      <trkpt lat="44.91388" lon="2.35682">
        <ele>580.77</ele>
        <time>2021-08-16T07:58:45Z</time>
      </trkpt>
      <trkpt lat="44.9137" lon="2.35675">
        <ele>581.73</ele>
        <time>2021-08-16T07:58:54Z</time>
      </trkpt>
      <trkpt lat="44.91351" lon="2.3567">
        <ele>582.7</ele>
        <time>2021-08-16T07:59:04Z</time>
      </trkpt>
      <trkpt lat="44.91341" lon="2.35665">
        <ele>583.66</ele>
        <time>2021-08-16T07:59:11Z</time>
      </trkpt>
      <trkpt lat="44.91327" lon="2.35661">
        <ele>585.1</ele>
        <time>2021-08-16T07:59:22Z</time>
      </trkpt>
      <trkpt lat="44.91316" lon="2.35657">
        <ele>586.06</ele>
        <time>2021-08-16T07:59:30Z</time>
      </trkpt>
      <trkpt lat="44.91303" lon="2.35653">
        <ele>587.02</ele>
        <time>2021-08-16T07:59:38Z</time>
      </trkpt>
      <trkpt lat="44.9129" lon="2.35648">
        <ele>588.95</ele>
        <time>2021-08-16T07:59:46Z</time>
      </trkpt>
      <trkpt lat="44.91275" lon="2.3564">
        <ele>590.39</ele>
        <time>2021-08-16T07:59:55Z</time>
      </trkpt>
      <trkpt lat="44.91264" lon="2.35635">
        <ele>591.35</ele>
        <time>2021-08-16T08:00:02Z</time>
      </trkpt>
      <trkpt lat="44.91263" lon="2.35635">
        <ele>591.35</ele>
        <time>2021-08-16T08:00:04Z</time>
      </trkpt>
      <trkpt lat="44.91261" lon="2.35633">
        <ele>591.83</ele>
        <time>2021-08-16T08:00:05Z</time>
      </trkpt>
      <trkpt lat="44.91259" lon="2.35632">
        <ele>591.83</ele>
        <time>2021-08-16T08:00:06Z</time>
      </trkpt>
      <trkpt lat="44.91247" lon="2.35619">
        <ele>592.31</ele>
        <time>2021-08-16T08:00:13Z</time>
      </trkpt>
      <trkpt lat="44.91232" lon="2.35605">
        <ele>593.27</ele>
        <time>2021-08-16T08:00:21Z</time>
      </trkpt>
      <trkpt lat="44.91215" lon="2.35593">
        <ele>593.75</ele>
        <time>2021-08-16T08:00:29Z</time>
      </trkpt>
      <trkpt lat="44.91211" lon="2.35588">
        <ele>593.75</ele>
        <time>2021-08-16T08:00:31Z</time>
      </trkpt>
      <trkpt lat="44.91209" lon="2.35585">
        <ele>593.75</ele>
        <time>2021-08-16T08:00:32Z</time>
      </trkpt>
      <trkpt lat="44.91209" lon="2.35581">
        <ele>593.75</ele>
        <time>2021-08-16T08:00:33Z</time>
      </trkpt>
      <trkpt lat="44.9121" lon="2.35578">
        <ele>593.75</ele>
        <time>2021-08-16T08:00:34Z</time>
      </trkpt>
      <trkpt lat="44.91211" lon="2.35575">
        <ele>593.75</ele>
        <time>2021-08-16T08:00:35Z</time>
      </trkpt>
      <trkpt lat="44.91223" lon="2.35547">
        <ele>593.75</ele>
        <time>2021-08-16T08:00:43Z</time>
      </trkpt>
      <trkpt lat="44.91238" lon="2.35517">
        <ele>594.71</ele>
        <time>2021-08-16T08:00:52Z</time>
      </trkpt>
      <trkpt lat="44.91254" lon="2.35487">
        <ele>595.67</ele>
        <time>2021-08-16T08:01:02Z</time>
      </trkpt>
      <trkpt lat="44.91268" lon="2.35455">
        <ele>597.12</ele>
        <time>2021-08-16T08:01:13Z</time>
      </trkpt>
      <trkpt lat="44.91268" lon="2.35452">
        <ele>597.12</ele>
        <time>2021-08-16T08:01:14Z</time>
      </trkpt>
      <trkpt lat="44.91266" lon="2.35449">
        <ele>597.12</ele>
        <time>2021-08-16T08:01:15Z</time>
      </trkpt>
      <trkpt lat="44.91265" lon="2.35447">
        <ele>597.12</ele>
        <time>2021-08-16T08:01:16Z</time>
      </trkpt>
      <trkpt lat="44.91262" lon="2.35445">
        <ele>597.12</ele>
        <time>2021-08-16T08:01:17Z</time>
      </trkpt>
      <trkpt lat="44.91259" lon="2.35442">
        <ele>597.12</ele>
        <time>2021-08-16T08:01:18Z</time>
      </trkpt>
      <trkpt lat="44.91256" lon="2.3544">
        <ele>597.12</ele>
        <time>2021-08-16T08:01:19Z</time>
      </trkpt>
      <trkpt lat="44.91241" lon="2.35427">
        <ele>595.67</ele>
        <time>2021-08-16T08:01:23Z</time>
      </trkpt>
      <trkpt lat="44.91222" lon="2.35408">
        <ele>592.31</ele>
        <time>2021-08-16T08:01:27Z</time>
      </trkpt>
      <trkpt lat="44.91204" lon="2.35392">
        <ele>589.91</ele>
        <time>2021-08-16T08:01:30Z</time>
      </trkpt>
      <trkpt lat="44.91192" lon="2.3538">
        <ele>589.43</ele>
        <time>2021-08-16T08:01:32Z</time>
      </trkpt>
      <trkpt lat="44.91169" lon="2.35358">
        <ele>589.43</ele>
        <time>2021-08-16T08:01:36Z</time>
      </trkpt>
      <trkpt lat="44.91165" lon="2.35354">
        <ele>589.43</ele>
        <time>2021-08-16T08:01:37Z</time>
      </trkpt>
      <trkpt lat="44.91162" lon="2.35348">
        <ele>589.43</ele>
        <time>2021-08-16T08:01:38Z</time>
      </trkpt>
      <trkpt lat="44.91159" lon="2.35343">
        <ele>589.43</ele>
        <time>2021-08-16T08:01:39Z</time>
      </trkpt>
      <trkpt lat="44.91157" lon="2.35338">
        <ele>589.43</ele>
        <time>2021-08-16T08:01:40Z</time>
      </trkpt>
      <trkpt lat="44.91155" lon="2.35334">
        <ele>589.43</ele>
        <time>2021-08-16T08:01:41Z</time>
      </trkpt>
      <trkpt lat="44.91154" lon="2.35329">
        <ele>590.39</ele>
        <time>2021-08-16T08:01:42Z</time>
      </trkpt>
      <trkpt lat="44.91153" lon="2.35326">
        <ele>590.87</ele>
        <time>2021-08-16T08:01:43Z</time>
      </trkpt>
      <trkpt lat="44.91145" lon="2.353">
        <ele>591.83</ele>
        <time>2021-08-16T08:01:51Z</time>
      </trkpt>
      <trkpt lat="44.91134" lon="2.3528">
        <ele>592.79</ele>
        <time>2021-08-16T08:02:00Z</time>
      </trkpt>
      <trkpt lat="44.91127" lon="2.35267">
        <ele>593.27</ele>
        <time>2021-08-16T08:02:07Z</time>
      </trkpt>
      <trkpt lat="44.91126" lon="2.35266">
        <ele>593.75</ele>
        <time>2021-08-16T08:02:08Z</time>
      </trkpt>
      <trkpt lat="44.91125" lon="2.35264">
        <ele>593.75</ele>
        <time>2021-08-16T08:02:09Z</time>
      </trkpt>
      <trkpt lat="44.91122" lon="2.3525">
        <ele>595.19</ele>
        <time>2021-08-16T08:02:16Z</time>
      </trkpt>
      <trkpt lat="44.91119" lon="2.35237">
        <ele>596.64</ele>
        <time>2021-08-16T08:02:23Z</time>
      </trkpt>
      <trkpt lat="44.91119" lon="2.35235">
        <ele>596.64</ele>
        <time>2021-08-16T08:02:24Z</time>
      </trkpt>
      <trkpt lat="44.91119" lon="2.35233">
        <ele>596.64</ele>
        <time>2021-08-16T08:02:25Z</time>
      </trkpt>
      <trkpt lat="44.91117" lon="2.35226">
        <ele>597.12</ele>
        <time>2021-08-16T08:02:29Z</time>
      </trkpt>
      <trkpt lat="44.91116" lon="2.35223">
        <ele>597.6</ele>
        <time>2021-08-16T08:02:30Z</time>
      </trkpt>
      <trkpt lat="44.91116" lon="2.35222">
        <ele>597.6</ele>
        <time>2021-08-16T08:02:31Z</time>
      </trkpt>
      <trkpt lat="44.91115" lon="2.35219">
        <ele>597.6</ele>
        <time>2021-08-16T08:02:32Z</time>
      </trkpt>
      <trkpt lat="44.91115" lon="2.35217">
        <ele>597.6</ele>
        <time>2021-08-16T08:02:33Z</time>
      </trkpt>
      <trkpt lat="44.91115" lon="2.35215">
        <ele>597.6</ele>
        <time>2021-08-16T08:02:34Z</time>
      </trkpt>
      <trkpt lat="44.91114" lon="2.35213">
        <ele>597.6</ele>
        <time>2021-08-16T08:02:35Z</time>
      </trkpt>
      <trkpt lat="44.9111" lon="2.35192">
        <ele>598.08</ele>
        <time>2021-08-16T08:02:43Z</time>
      </trkpt>
      <trkpt lat="44.91107" lon="2.35172">
        <ele>598.56</ele>
        <time>2021-08-16T08:02:51Z</time>
      </trkpt>
      <trkpt lat="44.91103" lon="2.35152">
        <ele>599.04</ele>
        <time>2021-08-16T08:02:59Z</time>
      </trkpt>
      <trkpt lat="44.91103" lon="2.3515">
        <ele>599.04</ele>
        <time>2021-08-16T08:03:00Z</time>
      </trkpt>
      <trkpt lat="44.91103" lon="2.35148">
        <ele>599.52</ele>
        <time>2021-08-16T08:03:01Z</time>
      </trkpt>
      <trkpt lat="44.91103" lon="2.35145">
        <ele>599.52</ele>
        <time>2021-08-16T08:03:02Z</time>
      </trkpt>
      <trkpt lat="44.91103" lon="2.35143">
        <ele>599.52</ele>
        <time>2021-08-16T08:03:03Z</time>
      </trkpt>
      <trkpt lat="44.91102" lon="2.35141">
        <ele>600</ele>
        <time>2021-08-16T08:03:04Z</time>
      </trkpt>
      <trkpt lat="44.91102" lon="2.35139">
        <ele>600</ele>
        <time>2021-08-16T08:03:05Z</time>
      </trkpt>
      <trkpt lat="44.91101" lon="2.35137">
        <ele>600</ele>
        <time>2021-08-16T08:03:06Z</time>
      </trkpt>
      <trkpt lat="44.911" lon="2.35134">
        <ele>600.48</ele>
        <time>2021-08-16T08:03:07Z</time>
      </trkpt>
      <trkpt lat="44.911" lon="2.35132">
        <ele>600.48</ele>
        <time>2021-08-16T08:03:08Z</time>
      </trkpt>
      <trkpt lat="44.91099" lon="2.3513">
        <ele>600.96</ele>
        <time>2021-08-16T08:03:09Z</time>
      </trkpt>
      <trkpt lat="44.91099" lon="2.35128">
        <ele>600.96</ele>
        <time>2021-08-16T08:03:10Z</time>
      </trkpt>
      <trkpt lat="44.91099" lon="2.35126">
        <ele>600.96</ele>
        <time>2021-08-16T08:03:11Z</time>
      </trkpt>
      <trkpt lat="44.91098" lon="2.35123">
        <ele>600.96</ele>
        <time>2021-08-16T08:03:12Z</time>
      </trkpt>
      <trkpt lat="44.91098" lon="2.35121">
        <ele>601.44</ele>
        <time>2021-08-16T08:03:13Z</time>
      </trkpt>
      <trkpt lat="44.91098" lon="2.35119">
        <ele>601.44</ele>
        <time>2021-08-16T08:03:14Z</time>
      </trkpt>
      <trkpt lat="44.91097" lon="2.35116">
        <ele>601.44</ele>
        <time>2021-08-16T08:03:15Z</time>
      </trkpt>
      <trkpt lat="44.9109" lon="2.35088">
        <ele>601.44</ele>
        <time>2021-08-16T08:03:23Z</time>
      </trkpt>
      <trkpt lat="44.91083" lon="2.35065">
        <ele>601.92</ele>
        <time>2021-08-16T08:03:29Z</time>
      </trkpt>
      <trkpt lat="44.91073" lon="2.3504">
        <ele>601.92</ele>
        <time>2021-08-16T08:03:37Z</time>
      </trkpt>
      <trkpt lat="44.91068" lon="2.3503">
        <ele>600.48</ele>
        <time>2021-08-16T08:03:39Z</time>
      </trkpt>
      <trkpt lat="44.91065" lon="2.35025">
        <ele>599.52</ele>
        <time>2021-08-16T08:03:40Z</time>
      </trkpt>
      <trkpt lat="44.91061" lon="2.35017">
        <ele>598.56</ele>
        <time>2021-08-16T08:03:41Z</time>
      </trkpt>
      <trkpt lat="44.91056" lon="2.35009">
        <ele>597.6</ele>
        <time>2021-08-16T08:03:42Z</time>
      </trkpt>
      <trkpt lat="44.9105" lon="2.35">
        <ele>596.15</ele>
        <time>2021-08-16T08:03:43Z</time>
      </trkpt>
      <trkpt lat="44.91024" lon="2.34957">
        <ele>595.19</ele>
        <time>2021-08-16T08:03:48Z</time>
      </trkpt>
      <trkpt lat="44.91022" lon="2.34948">
        <ele>595.19</ele>
        <time>2021-08-16T08:03:49Z</time>
      </trkpt>
      <trkpt lat="44.91022" lon="2.34941">
        <ele>595.19</ele>
        <time>2021-08-16T08:03:50Z</time>
      </trkpt>
      <trkpt lat="44.91023" lon="2.34935">
        <ele>595.19</ele>
        <time>2021-08-16T08:03:51Z</time>
      </trkpt>
      <trkpt lat="44.91024" lon="2.3493">
        <ele>596.64</ele>
        <time>2021-08-16T08:03:52Z</time>
      </trkpt>
      <trkpt lat="44.91024" lon="2.34928">
        <ele>597.12</ele>
        <time>2021-08-16T08:03:53Z</time>
      </trkpt>
      <trkpt lat="44.91024" lon="2.34922">
        <ele>597.6</ele>
        <time>2021-08-16T08:03:58Z</time>
      </trkpt>
      <trkpt lat="44.91023" lon="2.34913">
        <ele>599.52</ele>
        <time>2021-08-16T08:04:07Z</time>
      </trkpt>
      <trkpt lat="44.9102" lon="2.34903">
        <ele>600.96</ele>
        <time>2021-08-16T08:04:17Z</time>
      </trkpt>
      <trkpt lat="44.91019" lon="2.34895">
        <ele>601.44</ele>
        <time>2021-08-16T08:04:24Z</time>
      </trkpt>
      <trkpt lat="44.91018" lon="2.34892">
        <ele>601.44</ele>
        <time>2021-08-16T08:04:26Z</time>
      </trkpt>
      <trkpt lat="44.91013" lon="2.34878">
        <ele>602.88</ele>
        <time>2021-08-16T08:04:33Z</time>
      </trkpt>
      <trkpt lat="44.91013" lon="2.34876">
        <ele>602.88</ele>
        <time>2021-08-16T08:04:34Z</time>
      </trkpt>
      <trkpt lat="44.91012" lon="2.34874">
        <ele>603.36</ele>
        <time>2021-08-16T08:04:35Z</time>
      </trkpt>
      <trkpt lat="44.91012" lon="2.34872">
        <ele>603.36</ele>
        <time>2021-08-16T08:04:36Z</time>
      </trkpt>
      <trkpt lat="44.91011" lon="2.3487">
        <ele>602.88</ele>
        <time>2021-08-16T08:04:37Z</time>
      </trkpt>
      <trkpt lat="44.9101" lon="2.34868">
        <ele>603.36</ele>
        <time>2021-08-16T08:04:38Z</time>
      </trkpt>
      <trkpt lat="44.91009" lon="2.34867">
        <ele>603.36</ele>
        <time>2021-08-16T08:04:39Z</time>
      </trkpt>
      <trkpt lat="44.90997" lon="2.34853">
        <ele>604.33</ele>
        <time>2021-08-16T08:04:47Z</time>
      </trkpt>
      <trkpt lat="44.90987" lon="2.34841">
        <ele>605.29</ele>
        <time>2021-08-16T08:04:54Z</time>
      </trkpt>
      <trkpt lat="44.9098" lon="2.34828">
        <ele>605.29</ele>
        <time>2021-08-16T08:05:00Z</time>
      </trkpt>
      <trkpt lat="44.9097" lon="2.34813">
        <ele>605.29</ele>
        <time>2021-08-16T08:05:07Z</time>
      </trkpt>
      <trkpt lat="44.90967" lon="2.3481">
        <ele>605.29</ele>
        <time>2021-08-16T08:05:13Z</time>
      </trkpt>
      <trkpt lat="44.90966" lon="2.34808">
        <ele>605.29</ele>
        <time>2021-08-16T08:05:22Z</time>
      </trkpt>
      <trkpt lat="44.90967" lon="2.34808">
        <ele>605.29</ele>
        <time>2021-08-16T08:05:23Z</time>
      </trkpt>
      <trkpt lat="44.90973" lon="2.34815">
        <ele>605.29</ele>
        <time>2021-08-16T08:05:29Z</time>
      </trkpt>
      <trkpt lat="44.90981" lon="2.34828">
        <ele>605.29</ele>
        <time>2021-08-16T08:05:35Z</time>
      </trkpt>
      <trkpt lat="44.90997" lon="2.34846">
        <ele>604.33</ele>
        <time>2021-08-16T08:05:41Z</time>
      </trkpt>
      <trkpt lat="44.91004" lon="2.34847">
        <ele>603.36</ele>
        <time>2021-08-16T08:05:43Z</time>
      </trkpt>
      <trkpt lat="44.91006" lon="2.34845">
        <ele>603.36</ele>
        <time>2021-08-16T08:05:44Z</time>
      </trkpt>
      <trkpt lat="44.91007" lon="2.34843">
        <ele>603.36</ele>
        <time>2021-08-16T08:05:45Z</time>
      </trkpt>
      <trkpt lat="44.91009" lon="2.34841">
        <ele>603.36</ele>
        <time>2021-08-16T08:05:46Z</time>
      </trkpt>
      <trkpt lat="44.9101" lon="2.34839">
        <ele>603.36</ele>
        <time>2021-08-16T08:05:47Z</time>
      </trkpt>
      <trkpt lat="44.91011" lon="2.34837">
        <ele>603.36</ele>
        <time>2021-08-16T08:05:48Z</time>
      </trkpt>
      <trkpt lat="44.91012" lon="2.34834">
        <ele>603.36</ele>
        <time>2021-08-16T08:05:49Z</time>
      </trkpt>
      <trkpt lat="44.91013" lon="2.34832">
        <ele>603.36</ele>
        <time>2021-08-16T08:05:50Z</time>
      </trkpt>
      <trkpt lat="44.91013" lon="2.34829">
        <ele>603.85</ele>
        <time>2021-08-16T08:05:51Z</time>
      </trkpt>
      <trkpt lat="44.91013" lon="2.34826">
        <ele>603.85</ele>
        <time>2021-08-16T08:05:52Z</time>
      </trkpt>
      <trkpt lat="44.91014" lon="2.34823">
        <ele>603.85</ele>
        <time>2021-08-16T08:05:53Z</time>
      </trkpt>
      <trkpt lat="44.91014" lon="2.34819">
        <ele>603.85</ele>
        <time>2021-08-16T08:05:54Z</time>
      </trkpt>
      <trkpt lat="44.91019" lon="2.34796">
        <ele>603.85</ele>
        <time>2021-08-16T08:06:00Z</time>
      </trkpt>
      <trkpt lat="44.91025" lon="2.34767">
        <ele>603.85</ele>
        <time>2021-08-16T08:06:06Z</time>
      </trkpt>
      <trkpt lat="44.91037" lon="2.34721">
        <ele>600.96</ele>
        <time>2021-08-16T08:06:13Z</time>
      </trkpt>
      <trkpt lat="44.9104" lon="2.34715">
        <ele>600.48</ele>
        <time>2021-08-16T08:06:14Z</time>
      </trkpt>
      <trkpt lat="44.91044" lon="2.34708">
        <ele>600</ele>
        <time>2021-08-16T08:06:15Z</time>
      </trkpt>
      <trkpt lat="44.91052" lon="2.34695">
        <ele>598.56</ele>
        <time>2021-08-16T08:06:17Z</time>
      </trkpt>
      <trkpt lat="44.91071" lon="2.34654">
        <ele>596.15</ele>
        <time>2021-08-16T08:06:22Z</time>
      </trkpt>
      <trkpt lat="44.91074" lon="2.34646">
        <ele>596.15</ele>
        <time>2021-08-16T08:06:23Z</time>
      </trkpt>
      <trkpt lat="44.91079" lon="2.34629">
        <ele>596.15</ele>
        <time>2021-08-16T08:06:25Z</time>
      </trkpt>
      <trkpt lat="44.91083" lon="2.34622">
        <ele>596.15</ele>
        <time>2021-08-16T08:06:26Z</time>
      </trkpt>
      <trkpt lat="44.91086" lon="2.34616">
        <ele>596.15</ele>
        <time>2021-08-16T08:06:27Z</time>
      </trkpt>
      <trkpt lat="44.91098" lon="2.34596">
        <ele>597.6</ele>
        <time>2021-08-16T08:06:31Z</time>
      </trkpt>
      <trkpt lat="44.91112" lon="2.34571">
        <ele>598.56</ele>
        <time>2021-08-16T08:06:38Z</time>
      </trkpt>
      <trkpt lat="44.91128" lon="2.34561">
        <ele>598.08</ele>
        <time>2021-08-16T08:06:43Z</time>
      </trkpt>
      <trkpt lat="44.91153" lon="2.34555">
        <ele>596.15</ele>
        <time>2021-08-16T08:06:49Z</time>
      </trkpt>
      <trkpt lat="44.91157" lon="2.34555">
        <ele>596.15</ele>
        <time>2021-08-16T08:06:50Z</time>
      </trkpt>
      <trkpt lat="44.91165" lon="2.34558">
        <ele>595.67</ele>
        <time>2021-08-16T08:06:52Z</time>
      </trkpt>
      <trkpt lat="44.9117" lon="2.34558">
        <ele>594.71</ele>
        <time>2021-08-16T08:06:53Z</time>
      </trkpt>
      <trkpt lat="44.91174" lon="2.34556">
        <ele>594.71</ele>
        <time>2021-08-16T08:06:54Z</time>
      </trkpt>
      <trkpt lat="44.91179" lon="2.34555">
        <ele>593.75</ele>
        <time>2021-08-16T08:06:55Z</time>
      </trkpt>
      <trkpt lat="44.91184" lon="2.34554">
        <ele>593.75</ele>
        <time>2021-08-16T08:06:56Z</time>
      </trkpt>
      <trkpt lat="44.91189" lon="2.34552">
        <ele>592.79</ele>
        <time>2021-08-16T08:06:57Z</time>
      </trkpt>
      <trkpt lat="44.91194" lon="2.34549">
        <ele>592.31</ele>
        <time>2021-08-16T08:06:58Z</time>
      </trkpt>
      <trkpt lat="44.91198" lon="2.34545">
        <ele>592.79</ele>
        <time>2021-08-16T08:06:59Z</time>
      </trkpt>
      <trkpt lat="44.91202" lon="2.3454">
        <ele>591.83</ele>
        <time>2021-08-16T08:07:00Z</time>
      </trkpt>
      <trkpt lat="44.91206" lon="2.34536">
        <ele>591.83</ele>
        <time>2021-08-16T08:07:01Z</time>
      </trkpt>
      <trkpt lat="44.9121" lon="2.34532">
        <ele>591.35</ele>
        <time>2021-08-16T08:07:02Z</time>
      </trkpt>
      <trkpt lat="44.91225" lon="2.3452">
        <ele>590.39</ele>
        <time>2021-08-16T08:07:05Z</time>
      </trkpt>
      <trkpt lat="44.91234" lon="2.34513">
        <ele>588.95</ele>
        <time>2021-08-16T08:07:07Z</time>
      </trkpt>
      <trkpt lat="44.91239" lon="2.34508">
        <ele>588.46</ele>
        <time>2021-08-16T08:07:08Z</time>
      </trkpt>
      <trkpt lat="44.91242" lon="2.34501">
        <ele>587.5</ele>
        <time>2021-08-16T08:07:09Z</time>
      </trkpt>
      <trkpt lat="44.91246" lon="2.34493">
        <ele>587.02</ele>
        <time>2021-08-16T08:07:10Z</time>
      </trkpt>
      <trkpt lat="44.9125" lon="2.34485">
        <ele>586.06</ele>
        <time>2021-08-16T08:07:11Z</time>
      </trkpt>
      <trkpt lat="44.91261" lon="2.34461">
        <ele>586.06</ele>
        <time>2021-08-16T08:07:14Z</time>
      </trkpt>
      <trkpt lat="44.91265" lon="2.34454">
        <ele>586.06</ele>
        <time>2021-08-16T08:07:15Z</time>
      </trkpt>
      <trkpt lat="44.91282" lon="2.34422">
        <ele>586.06</ele>
        <time>2021-08-16T08:07:20Z</time>
      </trkpt>
      <trkpt lat="44.91293" lon="2.34408">
        <ele>584.14</ele>
        <time>2021-08-16T08:07:22Z</time>
      </trkpt>
      <trkpt lat="44.91298" lon="2.34403">
        <ele>583.18</ele>
        <time>2021-08-16T08:07:23Z</time>
      </trkpt>
      <trkpt lat="44.9133" lon="2.34384">
        <ele>579.33</ele>
        <time>2021-08-16T08:07:28Z</time>
      </trkpt>
      <trkpt lat="44.91336" lon="2.34382">
        <ele>579.33</ele>
        <time>2021-08-16T08:07:29Z</time>
      </trkpt>
      <trkpt lat="44.91344" lon="2.34381">
        <ele>577.41</ele>
        <time>2021-08-16T08:07:30Z</time>
      </trkpt>
      <trkpt lat="44.91357" lon="2.34376">
        <ele>577.41</ele>
        <time>2021-08-16T08:07:32Z</time>
      </trkpt>
      <trkpt lat="44.91381" lon="2.34363">
        <ele>579.33</ele>
        <time>2021-08-16T08:07:37Z</time>
      </trkpt>
      <trkpt lat="44.91386" lon="2.34357">
        <ele>580.77</ele>
        <time>2021-08-16T08:07:41Z</time>
      </trkpt>
      <trkpt lat="44.91394" lon="2.34347">
        <ele>583.18</ele>
        <time>2021-08-16T08:07:51Z</time>
      </trkpt>
      <trkpt lat="44.91397" lon="2.34337">
        <ele>584.14</ele>
        <time>2021-08-16T08:08:00Z</time>
      </trkpt>
      <trkpt lat="44.91402" lon="2.34334">
        <ele>584.14</ele>
        <time>2021-08-16T08:08:07Z</time>
      </trkpt>
      <trkpt lat="44.91404" lon="2.34334">
        <ele>584.14</ele>
        <time>2021-08-16T08:08:08Z</time>
      </trkpt>
      <trkpt lat="44.91405" lon="2.34333">
        <ele>584.14</ele>
        <time>2021-08-16T08:08:09Z</time>
      </trkpt>
      <trkpt lat="44.91406" lon="2.34332">
        <ele>584.14</ele>
        <time>2021-08-16T08:08:10Z</time>
      </trkpt>
      <trkpt lat="44.91418" lon="2.34326">
        <ele>584.14</ele>
        <time>2021-08-16T08:08:17Z</time>
      </trkpt>
      <trkpt lat="44.91427" lon="2.34321">
        <ele>583.18</ele>
        <time>2021-08-16T08:08:20Z</time>
      </trkpt>
      <trkpt lat="44.91435" lon="2.34316">
        <ele>581.25</ele>
        <time>2021-08-16T08:08:22Z</time>
      </trkpt>
      <trkpt lat="44.9144" lon="2.34313">
        <ele>580.29</ele>
        <time>2021-08-16T08:08:23Z</time>
      </trkpt>
      <trkpt lat="44.91444" lon="2.34308">
        <ele>580.29</ele>
        <time>2021-08-16T08:08:24Z</time>
      </trkpt>
      <trkpt lat="44.91446" lon="2.34304">
        <ele>580.29</ele>
        <time>2021-08-16T08:08:25Z</time>
      </trkpt>
      <trkpt lat="44.9145" lon="2.34295">
        <ele>582.22</ele>
        <time>2021-08-16T08:08:28Z</time>
      </trkpt>
      <trkpt lat="44.91455" lon="2.34276">
        <ele>583.18</ele>
        <time>2021-08-16T08:08:35Z</time>
      </trkpt>
      <trkpt lat="44.91464" lon="2.34259">
        <ele>584.14</ele>
        <time>2021-08-16T08:08:41Z</time>
      </trkpt>
      <trkpt lat="44.91476" lon="2.3425">
        <ele>584.14</ele>
        <time>2021-08-16T08:08:47Z</time>
      </trkpt>
      <trkpt lat="44.91477" lon="2.34247">
        <ele>584.14</ele>
        <time>2021-08-16T08:08:48Z</time>
      </trkpt>
      <trkpt lat="44.91478" lon="2.34244">
        <ele>584.14</ele>
        <time>2021-08-16T08:08:49Z</time>
      </trkpt>
      <trkpt lat="44.91478" lon="2.34242">
        <ele>584.14</ele>
        <time>2021-08-16T08:08:50Z</time>
      </trkpt>
      <trkpt lat="44.91478" lon="2.34239">
        <ele>584.14</ele>
        <time>2021-08-16T08:08:51Z</time>
      </trkpt>
      <trkpt lat="44.91485" lon="2.34221">
        <ele>581.25</ele>
        <time>2021-08-16T08:08:56Z</time>
      </trkpt>
      <trkpt lat="44.91488" lon="2.34217">
        <ele>580.29</ele>
        <time>2021-08-16T08:08:57Z</time>
      </trkpt>
      <trkpt lat="44.91493" lon="2.34215">
        <ele>580.29</ele>
        <time>2021-08-16T08:08:58Z</time>
      </trkpt>
      <trkpt lat="44.91496" lon="2.34213">
        <ele>579.33</ele>
        <time>2021-08-16T08:08:59Z</time>
      </trkpt>
      <trkpt lat="44.91499" lon="2.34209">
        <ele>579.33</ele>
        <time>2021-08-16T08:09:00Z</time>
      </trkpt>
      <trkpt lat="44.915" lon="2.34206">
        <ele>579.33</ele>
        <time>2021-08-16T08:09:01Z</time>
      </trkpt>
      <trkpt lat="44.91502" lon="2.34203">
        <ele>579.33</ele>
        <time>2021-08-16T08:09:02Z</time>
      </trkpt>
      <trkpt lat="44.91503" lon="2.34201">
        <ele>580.29</ele>
        <time>2021-08-16T08:09:03Z</time>
      </trkpt>
      <trkpt lat="44.91504" lon="2.342">
        <ele>580.29</ele>
        <time>2021-08-16T08:09:04Z</time>
      </trkpt>
      <trkpt lat="44.91506" lon="2.34198">
        <ele>580.29</ele>
        <time>2021-08-16T08:09:05Z</time>
      </trkpt>
      <trkpt lat="44.91509" lon="2.34196">
        <ele>580.29</ele>
        <time>2021-08-16T08:09:06Z</time>
      </trkpt>
      <trkpt lat="44.91512" lon="2.34194">
        <ele>580.29</ele>
        <time>2021-08-16T08:09:07Z</time>
      </trkpt>
      <trkpt lat="44.91514" lon="2.34191">
        <ele>580.29</ele>
        <time>2021-08-16T08:09:08Z</time>
      </trkpt>
      <trkpt lat="44.91516" lon="2.34188">
        <ele>580.29</ele>
        <time>2021-08-16T08:09:09Z</time>
      </trkpt>
      <trkpt lat="44.9152" lon="2.34184">
        <ele>578.85</ele>
        <time>2021-08-16T08:09:10Z</time>
      </trkpt>
      <trkpt lat="44.91524" lon="2.34181">
        <ele>578.85</ele>
        <time>2021-08-16T08:09:11Z</time>
      </trkpt>
      <trkpt lat="44.91544" lon="2.34172">
        <ele>579.33</ele>
        <time>2021-08-16T08:09:16Z</time>
      </trkpt>
      <trkpt lat="44.91546" lon="2.34171">
        <ele>579.33</ele>
        <time>2021-08-16T08:09:17Z</time>
      </trkpt>
      <trkpt lat="44.91561" lon="2.34163">
        <ele>579.33</ele>
        <time>2021-08-16T08:09:22Z</time>
      </trkpt>
      <trkpt lat="44.91564" lon="2.34163">
        <ele>579.33</ele>
        <time>2021-08-16T08:09:23Z</time>
      </trkpt>
      <trkpt lat="44.91572" lon="2.34159">
        <ele>578.37</ele>
        <time>2021-08-16T08:09:26Z</time>
      </trkpt>
      <trkpt lat="44.91574" lon="2.34156">
        <ele>578.37</ele>
        <time>2021-08-16T08:09:27Z</time>
      </trkpt>
      <trkpt lat="44.91576" lon="2.34153">
        <ele>578.37</ele>
        <time>2021-08-16T08:09:28Z</time>
      </trkpt>
      <trkpt lat="44.91578" lon="2.34151">
        <ele>578.37</ele>
        <time>2021-08-16T08:09:29Z</time>
      </trkpt>
      <trkpt lat="44.91579" lon="2.34148">
        <ele>578.37</ele>
        <time>2021-08-16T08:09:30Z</time>
      </trkpt>
      <trkpt lat="44.9158" lon="2.34146">
        <ele>578.37</ele>
        <time>2021-08-16T08:09:31Z</time>
      </trkpt>
      <trkpt lat="44.91582" lon="2.34144">
        <ele>578.37</ele>
        <time>2021-08-16T08:09:32Z</time>
      </trkpt>
      <trkpt lat="44.916" lon="2.34125">
        <ele>576.93</ele>
        <time>2021-08-16T08:09:39Z</time>
      </trkpt>
      <trkpt lat="44.91617" lon="2.341">
        <ele>574.04</ele>
        <time>2021-08-16T08:09:45Z</time>
      </trkpt>
      <trkpt lat="44.91621" lon="2.34094">
        <ele>573.08</ele>
        <time>2021-08-16T08:09:46Z</time>
      </trkpt>
      <trkpt lat="44.91636" lon="2.34073">
        <ele>570.68</ele>
        <time>2021-08-16T08:09:51Z</time>
      </trkpt>
      <trkpt lat="44.9164" lon="2.34072">
        <ele>569.72</ele>
        <time>2021-08-16T08:09:52Z</time>
      </trkpt>
      <trkpt lat="44.91643" lon="2.34073">
        <ele>568.76</ele>
        <time>2021-08-16T08:09:53Z</time>
      </trkpt>
      <trkpt lat="44.91646" lon="2.34073">
        <ele>567.8</ele>
        <time>2021-08-16T08:09:54Z</time>
      </trkpt>
      <trkpt lat="44.9165" lon="2.34072">
        <ele>566.35</ele>
        <time>2021-08-16T08:09:55Z</time>
      </trkpt>
      <trkpt lat="44.91654" lon="2.3407">
        <ele>564.91</ele>
        <time>2021-08-16T08:09:56Z</time>
      </trkpt>
      <trkpt lat="44.91657" lon="2.34067">
        <ele>564.91</ele>
        <time>2021-08-16T08:09:57Z</time>
      </trkpt>
      <trkpt lat="44.91659" lon="2.34063">
        <ele>564.43</ele>
        <time>2021-08-16T08:09:58Z</time>
      </trkpt>
      <trkpt lat="44.9166" lon="2.34058">
        <ele>564.43</ele>
        <time>2021-08-16T08:09:59Z</time>
      </trkpt>
      <trkpt lat="44.91671" lon="2.3403">
        <ele>564.91</ele>
        <time>2021-08-16T08:10:05Z</time>
      </trkpt>
      <trkpt lat="44.91673" lon="2.34024">
        <ele>564.43</ele>
        <time>2021-08-16T08:10:06Z</time>
      </trkpt>
      <trkpt lat="44.91685" lon="2.33981">
        <ele>563.47</ele>
        <time>2021-08-16T08:10:12Z</time>
      </trkpt>
      <trkpt lat="44.91687" lon="2.33973">
        <ele>563.47</ele>
        <time>2021-08-16T08:10:13Z</time>
      </trkpt>
      <trkpt lat="44.91697" lon="2.33936">
        <ele>563.47</ele>
        <time>2021-08-16T08:10:19Z</time>
      </trkpt>
      <trkpt lat="44.91701" lon="2.33912">
        <ele>564.91</ele>
        <time>2021-08-16T08:10:25Z</time>
      </trkpt>
      <trkpt lat="44.91704" lon="2.33893">
        <ele>566.35</ele>
        <time>2021-08-16T08:10:32Z</time>
      </trkpt>
      <trkpt lat="44.91705" lon="2.3389">
        <ele>566.35</ele>
        <time>2021-08-16T08:10:33Z</time>
      </trkpt>
      <trkpt lat="44.91707" lon="2.33887">
        <ele>566.35</ele>
        <time>2021-08-16T08:10:34Z</time>
      </trkpt>
      <trkpt lat="44.9171" lon="2.33884">
        <ele>566.35</ele>
        <time>2021-08-16T08:10:35Z</time>
      </trkpt>
      <trkpt lat="44.91712" lon="2.3388">
        <ele>566.35</ele>
        <time>2021-08-16T08:10:36Z</time>
      </trkpt>
      <trkpt lat="44.91715" lon="2.33876">
        <ele>566.35</ele>
        <time>2021-08-16T08:10:37Z</time>
      </trkpt>
      <trkpt lat="44.91718" lon="2.33872">
        <ele>566.83</ele>
        <time>2021-08-16T08:10:38Z</time>
      </trkpt>
      <trkpt lat="44.91727" lon="2.33862">
        <ele>565.39</ele>
        <time>2021-08-16T08:10:41Z</time>
      </trkpt>
      <trkpt lat="44.91736" lon="2.33847">
        <ele>565.39</ele>
        <time>2021-08-16T08:10:47Z</time>
      </trkpt>
      <trkpt lat="44.91749" lon="2.33826">
        <ele>563.95</ele>
        <time>2021-08-16T08:10:53Z</time>
      </trkpt>
      <trkpt lat="44.91756" lon="2.33817">
        <ele>562.51</ele>
        <time>2021-08-16T08:10:55Z</time>
      </trkpt>
      <trkpt lat="44.91759" lon="2.33812">
        <ele>561.55</ele>
        <time>2021-08-16T08:10:56Z</time>
      </trkpt>
      <trkpt lat="44.91762" lon="2.33805">
        <ele>561.07</ele>
        <time>2021-08-16T08:10:57Z</time>
      </trkpt>
      <trkpt lat="44.91764" lon="2.33797">
        <ele>560.11</ele>
        <time>2021-08-16T08:10:58Z</time>
      </trkpt>
      <trkpt lat="44.91764" lon="2.33787">
        <ele>559.14</ele>
        <time>2021-08-16T08:10:59Z</time>
      </trkpt>
      <trkpt lat="44.91764" lon="2.33778">
        <ele>558.66</ele>
        <time>2021-08-16T08:11:00Z</time>
      </trkpt>
      <trkpt lat="44.91764" lon="2.33768">
        <ele>557.7</ele>
        <time>2021-08-16T08:11:01Z</time>
      </trkpt>
      <trkpt lat="44.91763" lon="2.33758">
        <ele>557.22</ele>
        <time>2021-08-16T08:11:02Z</time>
      </trkpt>
      <trkpt lat="44.9176" lon="2.33741">
        <ele>556.26</ele>
        <time>2021-08-16T08:11:04Z</time>
      </trkpt>
      <trkpt lat="44.9176" lon="2.33734">
        <ele>556.26</ele>
        <time>2021-08-16T08:11:05Z</time>
      </trkpt>
      <trkpt lat="44.91761" lon="2.33729">
        <ele>556.26</ele>
        <time>2021-08-16T08:11:06Z</time>
      </trkpt>
      <trkpt lat="44.91762" lon="2.33725">
        <ele>555.78</ele>
        <time>2021-08-16T08:11:07Z</time>
      </trkpt>
      <trkpt lat="44.91763" lon="2.33722">
        <ele>555.78</ele>
        <time>2021-08-16T08:11:08Z</time>
      </trkpt>
      <trkpt lat="44.91763" lon="2.33719">
        <ele>555.78</ele>
        <time>2021-08-16T08:11:09Z</time>
      </trkpt>
      <trkpt lat="44.91763" lon="2.33716">
        <ele>556.26</ele>
        <time>2021-08-16T08:11:16Z</time>
      </trkpt>
      <trkpt lat="44.91763" lon="2.33714">
        <ele>556.26</ele>
        <time>2021-08-16T08:11:41Z</time>
      </trkpt>
      <trkpt lat="44.91762" lon="2.33711">
        <ele>556.26</ele>
        <time>2021-08-16T08:11:49Z</time>
      </trkpt>
      <trkpt lat="44.9176" lon="2.33706">
        <ele>556.26</ele>
        <time>2021-08-16T08:12:01Z</time>
      </trkpt>
      <trkpt lat="44.91757" lon="2.33694">
        <ele>558.18</ele>
        <time>2021-08-16T08:12:08Z</time>
      </trkpt>
      <trkpt lat="44.91756" lon="2.3369">
        <ele>558.18</ele>
        <time>2021-08-16T08:12:15Z</time>
      </trkpt>
      <trkpt lat="44.91755" lon="2.33689">
        <ele>558.18</ele>
        <time>2021-08-16T08:12:34Z</time>
      </trkpt>
      <trkpt lat="44.91755" lon="2.33686">
        <ele>558.18</ele>
        <time>2021-08-16T08:12:48Z</time>
      </trkpt>
      <trkpt lat="44.9175" lon="2.33671">
        <ele>560.11</ele>
        <time>2021-08-16T08:12:56Z</time>
      </trkpt>
      <trkpt lat="44.91747" lon="2.33664">
        <ele>560.59</ele>
        <time>2021-08-16T08:13:00Z</time>
      </trkpt>
      <trkpt lat="44.91742" lon="2.33656">
        <ele>562.03</ele>
        <time>2021-08-16T08:13:08Z</time>
      </trkpt>
      <trkpt lat="44.91736" lon="2.33646">
        <ele>562.99</ele>
        <time>2021-08-16T08:13:17Z</time>
      </trkpt>
      <trkpt lat="44.91729" lon="2.33632">
        <ele>564.43</ele>
        <time>2021-08-16T08:13:28Z</time>
      </trkpt>
      <trkpt lat="44.91725" lon="2.33622">
        <ele>565.87</ele>
        <time>2021-08-16T08:13:37Z</time>
      </trkpt>
      <trkpt lat="44.9172" lon="2.33612">
        <ele>566.83</ele>
        <time>2021-08-16T08:13:46Z</time>
      </trkpt>
      <trkpt lat="44.91716" lon="2.336">
        <ele>568.28</ele>
        <time>2021-08-16T08:13:56Z</time>
      </trkpt>
      <trkpt lat="44.91714" lon="2.33596">
        <ele>568.76</ele>
        <time>2021-08-16T08:14:04Z</time>
      </trkpt>
      <trkpt lat="44.91707" lon="2.33586">
        <ele>569.24</ele>
        <time>2021-08-16T08:14:10Z</time>
      </trkpt>
      <trkpt lat="44.91697" lon="2.33573">
        <ele>570.2</ele>
        <time>2021-08-16T08:14:16Z</time>
      </trkpt>
      <trkpt lat="44.91684" lon="2.33565">
        <ele>570.68</ele>
        <time>2021-08-16T08:14:23Z</time>
      </trkpt>
      <trkpt lat="44.91672" lon="2.33564">
        <ele>571.16</ele>
        <time>2021-08-16T08:14:29Z</time>
      </trkpt>
      <trkpt lat="44.91653" lon="2.33564">
        <ele>572.6</ele>
        <time>2021-08-16T08:14:38Z</time>
      </trkpt>
      <trkpt lat="44.91636" lon="2.33562">
        <ele>573.56</ele>
        <time>2021-08-16T08:14:47Z</time>
      </trkpt>
      <trkpt lat="44.91625" lon="2.33563">
        <ele>575.01</ele>
        <time>2021-08-16T08:14:54Z</time>
      </trkpt>
      <trkpt lat="44.91614" lon="2.33564">
        <ele>575.49</ele>
        <time>2021-08-16T08:15:02Z</time>
      </trkpt>
      <trkpt lat="44.91603" lon="2.33563">
        <ele>576.93</ele>
        <time>2021-08-16T08:15:10Z</time>
      </trkpt>
      <trkpt lat="44.91591" lon="2.33561">
        <ele>578.37</ele>
        <time>2021-08-16T08:15:19Z</time>
      </trkpt>
      <trkpt lat="44.91588" lon="2.33559">
        <ele>578.85</ele>
        <time>2021-08-16T08:15:25Z</time>
      </trkpt>
      <trkpt lat="44.91581" lon="2.33557">
        <ele>580.29</ele>
        <time>2021-08-16T08:15:33Z</time>
      </trkpt>
      <trkpt lat="44.91579" lon="2.33552">
        <ele>580.77</ele>
        <time>2021-08-16T08:15:42Z</time>
      </trkpt>
      <trkpt lat="44.91578" lon="2.33549">
        <ele>580.77</ele>
        <time>2021-08-16T08:15:44Z</time>
      </trkpt>
      <trkpt lat="44.91576" lon="2.33543">
        <ele>581.25</ele>
        <time>2021-08-16T08:15:48Z</time>
      </trkpt>
      <trkpt lat="44.91576" lon="2.33541">
        <ele>581.25</ele>
        <time>2021-08-16T08:15:49Z</time>
      </trkpt>
      <trkpt lat="44.91575" lon="2.33539">
        <ele>581.25</ele>
        <time>2021-08-16T08:15:50Z</time>
      </trkpt>
      <trkpt lat="44.91575" lon="2.33537">
        <ele>581.25</ele>
        <time>2021-08-16T08:15:51Z</time>
      </trkpt>
      <trkpt lat="44.91574" lon="2.33536">
        <ele>581.73</ele>
        <time>2021-08-16T08:15:52Z</time>
      </trkpt>
      <trkpt lat="44.91573" lon="2.33534">
        <ele>581.73</ele>
        <time>2021-08-16T08:15:53Z</time>
      </trkpt>
      <trkpt lat="44.91572" lon="2.33532">
        <ele>582.22</ele>
        <time>2021-08-16T08:15:54Z</time>
      </trkpt>
      <trkpt lat="44.91568" lon="2.33524">
        <ele>583.18</ele>
        <time>2021-08-16T08:15:59Z</time>
      </trkpt>
      <trkpt lat="44.91564" lon="2.3352">
        <ele>583.66</ele>
        <time>2021-08-16T08:16:06Z</time>
      </trkpt>
      <trkpt lat="44.91556" lon="2.33519">
        <ele>585.58</ele>
        <time>2021-08-16T08:16:17Z</time>
      </trkpt>
      <trkpt lat="44.91552" lon="2.33526">
        <ele>587.02</ele>
        <time>2021-08-16T08:16:26Z</time>
      </trkpt>
      <trkpt lat="44.91547" lon="2.33531">
        <ele>587.98</ele>
        <time>2021-08-16T08:16:34Z</time>
      </trkpt>
      <trkpt lat="44.9154" lon="2.33536">
        <ele>589.43</ele>
        <time>2021-08-16T08:16:42Z</time>
      </trkpt>
      <trkpt lat="44.91539" lon="2.33536">
        <ele>589.43</ele>
        <time>2021-08-16T08:16:43Z</time>
      </trkpt>
      <trkpt lat="44.91535" lon="2.3354">
        <ele>589.91</ele>
        <time>2021-08-16T08:16:51Z</time>
      </trkpt>
      <trkpt lat="44.91527" lon="2.33544">
        <ele>590.87</ele>
        <time>2021-08-16T08:16:57Z</time>
      </trkpt>
      <trkpt lat="44.91519" lon="2.33544">
        <ele>591.35</ele>
        <time>2021-08-16T08:17:03Z</time>
      </trkpt>
      <trkpt lat="44.91518" lon="2.33543">
        <ele>591.35</ele>
        <time>2021-08-16T08:17:04Z</time>
      </trkpt>
      <trkpt lat="44.91517" lon="2.33543">
        <ele>591.83</ele>
        <time>2021-08-16T08:17:05Z</time>
      </trkpt>
      <trkpt lat="44.91513" lon="2.33538">
        <ele>592.79</ele>
        <time>2021-08-16T08:17:09Z</time>
      </trkpt>
      <trkpt lat="44.91513" lon="2.33536">
        <ele>593.27</ele>
        <time>2021-08-16T08:17:10Z</time>
      </trkpt>
      <trkpt lat="44.91513" lon="2.33535">
        <ele>593.27</ele>
        <time>2021-08-16T08:17:11Z</time>
      </trkpt>
      <trkpt lat="44.91512" lon="2.33532">
        <ele>593.75</ele>
        <time>2021-08-16T08:17:13Z</time>
      </trkpt>
      <trkpt lat="44.91513" lon="2.3353">
        <ele>593.75</ele>
        <time>2021-08-16T08:17:14Z</time>
      </trkpt>
      <trkpt lat="44.91513" lon="2.33529">
        <ele>593.75</ele>
        <time>2021-08-16T08:17:15Z</time>
      </trkpt>
      <trkpt lat="44.91514" lon="2.33514">
        <ele>595.67</ele>
        <time>2021-08-16T08:17:25Z</time>
      </trkpt>
      <trkpt lat="44.91515" lon="2.33513">
        <ele>595.67</ele>
        <time>2021-08-16T08:17:26Z</time>
      </trkpt>
      <trkpt lat="44.91515" lon="2.3351">
        <ele>595.67</ele>
        <time>2021-08-16T08:17:32Z</time>
      </trkpt>
      <trkpt lat="44.91514" lon="2.33507">
        <ele>595.67</ele>
        <time>2021-08-16T08:17:49Z</time>
      </trkpt>
      <trkpt lat="44.91513" lon="2.33505">
        <ele>596.15</ele>
        <time>2021-08-16T08:18:02Z</time>
      </trkpt>
      <trkpt lat="44.91514" lon="2.335">
        <ele>596.64</ele>
        <time>2021-08-16T08:18:09Z</time>
      </trkpt>
      <trkpt lat="44.91511" lon="2.33492">
        <ele>598.56</ele>
        <time>2021-08-16T08:18:18Z</time>
      </trkpt>
      <trkpt lat="44.91507" lon="2.33485">
        <ele>599.52</ele>
        <time>2021-08-16T08:18:27Z</time>
      </trkpt>
      <trkpt lat="44.91503" lon="2.33476">
        <ele>600.96</ele>
        <time>2021-08-16T08:18:34Z</time>
      </trkpt>
      <trkpt lat="44.91497" lon="2.33469">
        <ele>602.4</ele>
        <time>2021-08-16T08:18:43Z</time>
      </trkpt>
      <trkpt lat="44.91491" lon="2.3346">
        <ele>603.36</ele>
        <time>2021-08-16T08:18:52Z</time>
      </trkpt>
      <trkpt lat="44.91487" lon="2.33452">
        <ele>604.33</ele>
        <time>2021-08-16T08:18:59Z</time>
      </trkpt>
      <trkpt lat="44.91486" lon="2.33451">
        <ele>604.81</ele>
        <time>2021-08-16T08:19:13Z</time>
      </trkpt>
      <trkpt lat="44.91483" lon="2.33443">
        <ele>604.81</ele>
        <time>2021-08-16T08:19:24Z</time>
      </trkpt>
      <trkpt lat="44.91481" lon="2.33438">
        <ele>605.29</ele>
        <time>2021-08-16T08:19:31Z</time>
      </trkpt>
      <trkpt lat="44.91468" lon="2.33424">
        <ele>606.25</ele>
        <time>2021-08-16T08:19:39Z</time>
      </trkpt>
      <trkpt lat="44.9145" lon="2.33409">
        <ele>606.73</ele>
        <time>2021-08-16T08:19:47Z</time>
      </trkpt>
      <trkpt lat="44.91437" lon="2.33398">
        <ele>606.73</ele>
        <time>2021-08-16T08:19:52Z</time>
      </trkpt>
      <trkpt lat="44.91423" lon="2.33386">
        <ele>606.73</ele>
        <time>2021-08-16T08:19:57Z</time>
      </trkpt>
      <trkpt lat="44.91408" lon="2.33379">
        <ele>605.29</ele>
        <time>2021-08-16T08:20:02Z</time>
      </trkpt>
      <trkpt lat="44.91397" lon="2.33374">
        <ele>604.33</ele>
        <time>2021-08-16T08:20:07Z</time>
      </trkpt>
      <trkpt lat="44.91393" lon="2.33372">
        <ele>604.33</ele>
        <time>2021-08-16T08:20:14Z</time>
      </trkpt>
      <trkpt lat="44.91389" lon="2.3337">
        <ele>604.33</ele>
        <time>2021-08-16T08:20:19Z</time>
      </trkpt>
      <trkpt lat="44.91378" lon="2.33357">
        <ele>602.4</ele>
        <time>2021-08-16T08:20:25Z</time>
      </trkpt>
      <trkpt lat="44.91367" lon="2.33332">
        <ele>600</ele>
        <time>2021-08-16T08:20:30Z</time>
      </trkpt>
      <trkpt lat="44.91356" lon="2.33314">
        <ele>597.12</ele>
        <time>2021-08-16T08:20:34Z</time>
      </trkpt>
      <trkpt lat="44.91356" lon="2.33308">
        <ele>597.12</ele>
        <time>2021-08-16T08:20:35Z</time>
      </trkpt>
      <trkpt lat="44.91358" lon="2.33301">
        <ele>596.64</ele>
        <time>2021-08-16T08:20:36Z</time>
      </trkpt>
      <trkpt lat="44.91363" lon="2.3329">
        <ele>596.64</ele>
        <time>2021-08-16T08:20:38Z</time>
      </trkpt>
      <trkpt lat="44.91365" lon="2.33284">
        <ele>596.15</ele>
        <time>2021-08-16T08:20:39Z</time>
      </trkpt>
      <trkpt lat="44.91369" lon="2.33272">
        <ele>595.67</ele>
        <time>2021-08-16T08:20:41Z</time>
      </trkpt>
      <trkpt lat="44.91378" lon="2.33244">
        <ele>593.75</ele>
        <time>2021-08-16T08:20:47Z</time>
      </trkpt>
      <trkpt lat="44.91382" lon="2.33233">
        <ele>591.35</ele>
        <time>2021-08-16T08:20:50Z</time>
      </trkpt>
      <trkpt lat="44.91382" lon="2.33229">
        <ele>591.35</ele>
        <time>2021-08-16T08:20:51Z</time>
      </trkpt>
      <trkpt lat="44.91381" lon="2.33225">
        <ele>590.39</ele>
        <time>2021-08-16T08:20:52Z</time>
      </trkpt>
      <trkpt lat="44.91379" lon="2.33223">
        <ele>589.91</ele>
        <time>2021-08-16T08:20:53Z</time>
      </trkpt>
      <trkpt lat="44.91377" lon="2.3322">
        <ele>589.43</ele>
        <time>2021-08-16T08:20:54Z</time>
      </trkpt>
      <trkpt lat="44.91376" lon="2.33217">
        <ele>589.43</ele>
        <time>2021-08-16T08:20:55Z</time>
      </trkpt>
      <trkpt lat="44.91374" lon="2.33215">
        <ele>588.46</ele>
        <time>2021-08-16T08:20:56Z</time>
      </trkpt>
      <trkpt lat="44.91372" lon="2.33213">
        <ele>587.98</ele>
        <time>2021-08-16T08:20:57Z</time>
      </trkpt>
      <trkpt lat="44.91363" lon="2.3319">
        <ele>584.62</ele>
        <time>2021-08-16T08:21:04Z</time>
      </trkpt>
      <trkpt lat="44.91363" lon="2.33184">
        <ele>584.14</ele>
        <time>2021-08-16T08:21:05Z</time>
      </trkpt>
      <trkpt lat="44.91364" lon="2.3317">
        <ele>583.18</ele>
        <time>2021-08-16T08:21:07Z</time>
      </trkpt>
      <trkpt lat="44.91365" lon="2.33163">
        <ele>582.22</ele>
        <time>2021-08-16T08:21:08Z</time>
      </trkpt>
      <trkpt lat="44.91373" lon="2.33128">
        <ele>581.25</ele>
        <time>2021-08-16T08:21:13Z</time>
      </trkpt>
      <trkpt lat="44.91381" lon="2.33111">
        <ele>580.29</ele>
        <time>2021-08-16T08:21:16Z</time>
      </trkpt>
      <trkpt lat="44.9139" lon="2.33092">
        <ele>578.85</ele>
        <time>2021-08-16T08:21:19Z</time>
      </trkpt>
      <trkpt lat="44.91394" lon="2.33086">
        <ele>578.37</ele>
        <time>2021-08-16T08:21:20Z</time>
      </trkpt>
      <trkpt lat="44.91416" lon="2.33056">
        <ele>575.97</ele>
        <time>2021-08-16T08:21:25Z</time>
      </trkpt>
      <trkpt lat="44.9145" lon="2.33031">
        <ele>572.6</ele>
        <time>2021-08-16T08:21:30Z</time>
      </trkpt>
      <trkpt lat="44.91463" lon="2.33022">
        <ele>572.12</ele>
        <time>2021-08-16T08:21:32Z</time>
      </trkpt>
      <trkpt lat="44.91469" lon="2.33018">
        <ele>571.16</ele>
        <time>2021-08-16T08:21:33Z</time>
      </trkpt>
      <trkpt lat="44.9148" lon="2.3301">
        <ele>569.24</ele>
        <time>2021-08-16T08:21:35Z</time>
      </trkpt>
      <trkpt lat="44.91486" lon="2.33004">
        <ele>568.76</ele>
        <time>2021-08-16T08:21:36Z</time>
      </trkpt>
      <trkpt lat="44.91491" lon="2.32998">
        <ele>567.8</ele>
        <time>2021-08-16T08:21:37Z</time>
      </trkpt>
      <trkpt lat="44.91501" lon="2.32984">
        <ele>566.83</ele>
        <time>2021-08-16T08:21:39Z</time>
      </trkpt>
      <trkpt lat="44.91519" lon="2.32956">
        <ele>564.43</ele>
        <time>2021-08-16T08:21:43Z</time>
      </trkpt>
      <trkpt lat="44.91534" lon="2.32937">
        <ele>562.51</ele>
        <time>2021-08-16T08:21:46Z</time>
      </trkpt>
      <trkpt lat="44.91543" lon="2.32929">
        <ele>561.55</ele>
        <time>2021-08-16T08:21:48Z</time>
      </trkpt>
      <trkpt lat="44.91548" lon="2.32926">
        <ele>561.07</ele>
        <time>2021-08-16T08:21:49Z</time>
      </trkpt>
      <trkpt lat="44.91552" lon="2.32923">
        <ele>561.07</ele>
        <time>2021-08-16T08:21:50Z</time>
      </trkpt>
      <trkpt lat="44.91574" lon="2.32903">
        <ele>560.59</ele>
        <time>2021-08-16T08:21:57Z</time>
      </trkpt>
      <trkpt lat="44.91589" lon="2.32889">
        <ele>560.59</ele>
        <time>2021-08-16T08:22:04Z</time>
      </trkpt>
      <trkpt lat="44.91608" lon="2.32871">
        <ele>560.59</ele>
        <time>2021-08-16T08:22:11Z</time>
      </trkpt>
      <trkpt lat="44.9163" lon="2.32846">
        <ele>560.59</ele>
        <time>2021-08-16T08:22:18Z</time>
      </trkpt>
      <trkpt lat="44.9165" lon="2.32815">
        <ele>559.62</ele>
        <time>2021-08-16T08:22:25Z</time>
      </trkpt>
      <trkpt lat="44.9167" lon="2.32762">
        <ele>557.7</ele>
        <time>2021-08-16T08:22:32Z</time>
      </trkpt>
      <trkpt lat="44.91695" lon="2.3272">
        <ele>556.26</ele>
        <time>2021-08-16T08:22:38Z</time>
      </trkpt>
      <trkpt lat="44.91741" lon="2.32656">
        <ele>555.3</ele>
        <time>2021-08-16T08:22:48Z</time>
      </trkpt>
      <trkpt lat="44.91778" lon="2.32603">
        <ele>555.78</ele>
        <time>2021-08-16T08:22:57Z</time>
      </trkpt>
      <trkpt lat="44.91781" lon="2.32596">
        <ele>555.78</ele>
        <time>2021-08-16T08:22:58Z</time>
      </trkpt>
      <trkpt lat="44.91784" lon="2.32587">
        <ele>555.78</ele>
        <time>2021-08-16T08:22:59Z</time>
      </trkpt>
      <trkpt lat="44.91786" lon="2.32578">
        <ele>555.78</ele>
        <time>2021-08-16T08:23:00Z</time>
      </trkpt>
      <trkpt lat="44.91787" lon="2.32569">
        <ele>555.78</ele>
        <time>2021-08-16T08:23:01Z</time>
      </trkpt>
      <trkpt lat="44.91787" lon="2.32561">
        <ele>555.78</ele>
        <time>2021-08-16T08:23:02Z</time>
      </trkpt>
      <trkpt lat="44.91787" lon="2.32553">
        <ele>555.78</ele>
        <time>2021-08-16T08:23:03Z</time>
      </trkpt>
      <trkpt lat="44.91786" lon="2.32523">
        <ele>557.22</ele>
        <time>2021-08-16T08:23:07Z</time>
      </trkpt>
      <trkpt lat="44.91786" lon="2.32517">
        <ele>557.22</ele>
        <time>2021-08-16T08:23:08Z</time>
      </trkpt>
      <trkpt lat="44.91785" lon="2.32496">
        <ele>558.66</ele>
        <time>2021-08-16T08:23:14Z</time>
      </trkpt>
      <trkpt lat="44.91785" lon="2.32474">
        <ele>560.11</ele>
        <time>2021-08-16T08:23:23Z</time>
      </trkpt>
      <trkpt lat="44.9179" lon="2.32455">
        <ele>561.55</ele>
        <time>2021-08-16T08:23:32Z</time>
      </trkpt>
      <trkpt lat="44.9182" lon="2.32439">
        <ele>564.43</ele>
        <time>2021-08-16T08:23:52Z</time>
      </trkpt>
      <trkpt lat="44.91846" lon="2.32439">
        <ele>565.39</ele>
        <time>2021-08-16T08:24:03Z</time>
      </trkpt>
      <trkpt lat="44.91871" lon="2.32432">
        <ele>565.87</ele>
        <time>2021-08-16T08:24:12Z</time>
      </trkpt>
      <trkpt lat="44.91888" lon="2.32416">
        <ele>566.83</ele>
        <time>2021-08-16T08:24:20Z</time>
      </trkpt>
      <trkpt lat="44.91907" lon="2.32398">
        <ele>567.32</ele>
        <time>2021-08-16T08:24:29Z</time>
      </trkpt>
      <trkpt lat="44.91919" lon="2.32372">
        <ele>568.76</ele>
        <time>2021-08-16T08:24:38Z</time>
      </trkpt>
      <trkpt lat="44.91929" lon="2.32342">
        <ele>569.72</ele>
        <time>2021-08-16T08:24:48Z</time>
      </trkpt>
      <trkpt lat="44.91935" lon="2.32324">
        <ele>570.2</ele>
        <time>2021-08-16T08:24:54Z</time>
      </trkpt>
      <trkpt lat="44.91937" lon="2.32319">
        <ele>570.2</ele>
        <time>2021-08-16T08:24:56Z</time>
      </trkpt>
      <trkpt lat="44.91953" lon="2.32303">
        <ele>572.12</ele>
        <time>2021-08-16T08:25:05Z</time>
      </trkpt>
      <trkpt lat="44.91968" lon="2.32298">
        <ele>573.08</ele>
        <time>2021-08-16T08:25:14Z</time>
      </trkpt>
      <trkpt lat="44.91985" lon="2.32302">
        <ele>574.53</ele>
        <time>2021-08-16T08:25:24Z</time>
      </trkpt>
      <trkpt lat="44.92" lon="2.32314">
        <ele>575.97</ele>
        <time>2021-08-16T08:25:34Z</time>
      </trkpt>
      <trkpt lat="44.92012" lon="2.32326">
        <ele>576.93</ele>
        <time>2021-08-16T08:25:42Z</time>
      </trkpt>
      <trkpt lat="44.92028" lon="2.32338">
        <ele>577.89</ele>
        <time>2021-08-16T08:25:51Z</time>
      </trkpt>
      <trkpt lat="44.92045" lon="2.3235">
        <ele>579.33</ele>
        <time>2021-08-16T08:26:01Z</time>
      </trkpt>
      <trkpt lat="44.9205" lon="2.32353">
        <ele>579.81</ele>
        <time>2021-08-16T08:26:04Z</time>
      </trkpt>
      <trkpt lat="44.92052" lon="2.32355">
        <ele>580.29</ele>
        <time>2021-08-16T08:26:05Z</time>
      </trkpt>
      <trkpt lat="44.92071" lon="2.32366">
        <ele>581.25</ele>
        <time>2021-08-16T08:26:15Z</time>
      </trkpt>
      <trkpt lat="44.92088" lon="2.32371">
        <ele>583.18</ele>
        <time>2021-08-16T08:26:23Z</time>
      </trkpt>
      <trkpt lat="44.92108" lon="2.32378">
        <ele>584.62</ele>
        <time>2021-08-16T08:26:31Z</time>
      </trkpt>
      <trkpt lat="44.92134" lon="2.32381">
        <ele>585.58</ele>
        <time>2021-08-16T08:26:41Z</time>
      </trkpt>
      <trkpt lat="44.92162" lon="2.32375">
        <ele>585.58</ele>
        <time>2021-08-16T08:26:50Z</time>
      </trkpt>
      <trkpt lat="44.92188" lon="2.32375">
        <ele>586.06</ele>
        <time>2021-08-16T08:26:59Z</time>
      </trkpt>
      <trkpt lat="44.92198" lon="2.32371">
        <ele>586.54</ele>
        <time>2021-08-16T08:27:03Z</time>
      </trkpt>
      <trkpt lat="44.922" lon="2.32368">
        <ele>586.54</ele>
        <time>2021-08-16T08:27:04Z</time>
      </trkpt>
      <trkpt lat="44.922" lon="2.32363">
        <ele>586.54</ele>
        <time>2021-08-16T08:27:05Z</time>
      </trkpt>
      <trkpt lat="44.922" lon="2.3236">
        <ele>586.54</ele>
        <time>2021-08-16T08:27:06Z</time>
      </trkpt>
      <trkpt lat="44.922" lon="2.32357">
        <ele>586.54</ele>
        <time>2021-08-16T08:27:07Z</time>
      </trkpt>
      <trkpt lat="44.92199" lon="2.32353">
        <ele>586.54</ele>
        <time>2021-08-16T08:27:08Z</time>
      </trkpt>
      <trkpt lat="44.92189" lon="2.32324">
        <ele>587.5</ele>
        <time>2021-08-16T08:27:17Z</time>
      </trkpt>
      <trkpt lat="44.92182" lon="2.32305">
        <ele>588.95</ele>
        <time>2021-08-16T08:27:25Z</time>
      </trkpt>
      <trkpt lat="44.92176" lon="2.32288">
        <ele>589.91</ele>
        <time>2021-08-16T08:27:32Z</time>
      </trkpt>
      <trkpt lat="44.9217" lon="2.32267">
        <ele>590.87</ele>
        <time>2021-08-16T08:27:41Z</time>
      </trkpt>
      <trkpt lat="44.92169" lon="2.32244">
        <ele>592.31</ele>
        <time>2021-08-16T08:27:49Z</time>
      </trkpt>
      <trkpt lat="44.92175" lon="2.32223">
        <ele>593.27</ele>
        <time>2021-08-16T08:27:58Z</time>
      </trkpt>
      <trkpt lat="44.92181" lon="2.32202">
        <ele>594.71</ele>
        <time>2021-08-16T08:28:07Z</time>
      </trkpt>
      <trkpt lat="44.9219" lon="2.32183">
        <ele>595.67</ele>
        <time>2021-08-16T08:28:16Z</time>
      </trkpt>
      <trkpt lat="44.92199" lon="2.32159">
        <ele>597.12</ele>
        <time>2021-08-16T08:28:26Z</time>
      </trkpt>
      <trkpt lat="44.92212" lon="2.32129">
        <ele>598.56</ele>
        <time>2021-08-16T08:28:36Z</time>
      </trkpt>
      <trkpt lat="44.92227" lon="2.32099">
        <ele>599.52</ele>
        <time>2021-08-16T08:28:45Z</time>
      </trkpt>
      <trkpt lat="44.92232" lon="2.32083">
        <ele>599.52</ele>
        <time>2021-08-16T08:28:50Z</time>
      </trkpt>
      <trkpt lat="44.9223" lon="2.3208">
        <ele>599.52</ele>
        <time>2021-08-16T08:28:51Z</time>
      </trkpt>
      <trkpt lat="44.92228" lon="2.32077">
        <ele>599.52</ele>
        <time>2021-08-16T08:28:52Z</time>
      </trkpt>
      <trkpt lat="44.92222" lon="2.3207">
        <ele>599.52</ele>
        <time>2021-08-16T08:28:54Z</time>
      </trkpt>
      <trkpt lat="44.92219" lon="2.32065">
        <ele>598.08</ele>
        <time>2021-08-16T08:28:55Z</time>
      </trkpt>
      <trkpt lat="44.92217" lon="2.32059">
        <ele>598.08</ele>
        <time>2021-08-16T08:28:56Z</time>
      </trkpt>
      <trkpt lat="44.92215" lon="2.32051">
        <ele>597.6</ele>
        <time>2021-08-16T08:28:57Z</time>
      </trkpt>
      <trkpt lat="44.92215" lon="2.32043">
        <ele>596.64</ele>
        <time>2021-08-16T08:28:58Z</time>
      </trkpt>
      <trkpt lat="44.92215" lon="2.32035">
        <ele>595.67</ele>
        <time>2021-08-16T08:28:59Z</time>
      </trkpt>
      <trkpt lat="44.92215" lon="2.32018">
        <ele>595.19</ele>
        <time>2021-08-16T08:29:01Z</time>
      </trkpt>
      <trkpt lat="44.92214" lon="2.31982">
        <ele>592.79</ele>
        <time>2021-08-16T08:29:05Z</time>
      </trkpt>
      <trkpt lat="44.92217" lon="2.31941">
        <ele>591.35</ele>
        <time>2021-08-16T08:29:09Z</time>
      </trkpt>
      <trkpt lat="44.92219" lon="2.3193">
        <ele>590.39</ele>
        <time>2021-08-16T08:29:10Z</time>
      </trkpt>
      <trkpt lat="44.92229" lon="2.31885">
        <ele>587.02</ele>
        <time>2021-08-16T08:29:14Z</time>
      </trkpt>
      <trkpt lat="44.92245" lon="2.31832">
        <ele>584.14</ele>
        <time>2021-08-16T08:29:19Z</time>
      </trkpt>
      <trkpt lat="44.92257" lon="2.31794">
        <ele>581.25</ele>
        <time>2021-08-16T08:29:23Z</time>
      </trkpt>
      <trkpt lat="44.92267" lon="2.31754">
        <ele>578.37</ele>
        <time>2021-08-16T08:29:27Z</time>
      </trkpt>
      <trkpt lat="44.92273" lon="2.31708">
        <ele>575.97</ele>
        <time>2021-08-16T08:29:32Z</time>
      </trkpt>
      <trkpt lat="44.92273" lon="2.31701">
        <ele>575.49</ele>
        <time>2021-08-16T08:29:33Z</time>
      </trkpt>
      <trkpt lat="44.92272" lon="2.31692">
        <ele>574.53</ele>
        <time>2021-08-16T08:29:35Z</time>
      </trkpt>
      <trkpt lat="44.92275" lon="2.3167">
        <ele>574.04</ele>
        <time>2021-08-16T08:29:41Z</time>
      </trkpt>
      <trkpt lat="44.92279" lon="2.31645">
        <ele>573.56</ele>
        <time>2021-08-16T08:29:46Z</time>
      </trkpt>
      <trkpt lat="44.92289" lon="2.31614">
        <ele>572.6</ele>
        <time>2021-08-16T08:29:53Z</time>
      </trkpt>
      <trkpt lat="44.92304" lon="2.31589">
        <ele>571.64</ele>
        <time>2021-08-16T08:29:59Z</time>
      </trkpt>
      <trkpt lat="44.92312" lon="2.31582">
        <ele>571.16</ele>
        <time>2021-08-16T08:30:01Z</time>
      </trkpt>
      <trkpt lat="44.92315" lon="2.31576">
        <ele>571.16</ele>
        <time>2021-08-16T08:30:02Z</time>
      </trkpt>
      <trkpt lat="44.92339" lon="2.31537">
        <ele>569.24</ele>
        <time>2021-08-16T08:30:09Z</time>
      </trkpt>
      <trkpt lat="44.92361" lon="2.31511">
        <ele>568.28</ele>
        <time>2021-08-16T08:30:15Z</time>
      </trkpt>
      <trkpt lat="44.92384" lon="2.31487">
        <ele>566.83</ele>
        <time>2021-08-16T08:30:22Z</time>
      </trkpt>
      <trkpt lat="44.92399" lon="2.31476">
        <ele>565.39</ele>
        <time>2021-08-16T08:30:28Z</time>
      </trkpt>
      <trkpt lat="44.92417" lon="2.31472">
        <ele>562.51</ele>
        <time>2021-08-16T08:30:33Z</time>
      </trkpt>
      <trkpt lat="44.92421" lon="2.31473">
        <ele>562.03</ele>
        <time>2021-08-16T08:30:34Z</time>
      </trkpt>
      <trkpt lat="44.92425" lon="2.31473">
        <ele>561.07</ele>
        <time>2021-08-16T08:30:35Z</time>
      </trkpt>
      <trkpt lat="44.9244" lon="2.3147">
        <ele>559.14</ele>
        <time>2021-08-16T08:30:40Z</time>
      </trkpt>
      <trkpt lat="44.92452" lon="2.31463">
        <ele>556.74</ele>
        <time>2021-08-16T08:30:44Z</time>
      </trkpt>
      <trkpt lat="44.92454" lon="2.31462">
        <ele>556.26</ele>
        <time>2021-08-16T08:30:45Z</time>
      </trkpt>
      <trkpt lat="44.92457" lon="2.31461">
        <ele>556.26</ele>
        <time>2021-08-16T08:30:49Z</time>
      </trkpt>
      <trkpt lat="44.92458" lon="2.3146">
        <ele>556.26</ele>
        <time>2021-08-16T08:30:59Z</time>
      </trkpt>
      <trkpt lat="44.9246" lon="2.31459">
        <ele>556.26</ele>
        <time>2021-08-16T08:31:13Z</time>
      </trkpt>
      <trkpt lat="44.9246" lon="2.31458">
        <ele>556.26</ele>
        <time>2021-08-16T08:31:22Z</time>
      </trkpt>
      <trkpt lat="44.9246" lon="2.31458">
        <ele>556.26</ele>
        <time>2021-08-16T08:31:41Z</time>
      </trkpt>
      <trkpt lat="44.92461" lon="2.31456">
        <ele>556.26</ele>
        <time>2021-08-16T08:32:02Z</time>
      </trkpt>
      <trkpt lat="44.92461" lon="2.31456">
        <ele>556.74</ele>
        <time>2021-08-16T08:32:16Z</time>
      </trkpt>
      <trkpt lat="44.92463" lon="2.31456">
        <ele>556.74</ele>
        <time>2021-08-16T08:32:17Z</time>
      </trkpt>
      <trkpt lat="44.92466" lon="2.31457">
        <ele>555.78</ele>
        <time>2021-08-16T08:32:18Z</time>
      </trkpt>
      <trkpt lat="44.92469" lon="2.31457">
        <ele>554.82</ele>
        <time>2021-08-16T08:32:19Z</time>
      </trkpt>
      <trkpt lat="44.92472" lon="2.31459">
        <ele>553.86</ele>
        <time>2021-08-16T08:32:20Z</time>
      </trkpt>
      <trkpt lat="44.92475" lon="2.3146">
        <ele>553.86</ele>
        <time>2021-08-16T08:32:21Z</time>
      </trkpt>
      <trkpt lat="44.92478" lon="2.31461">
        <ele>553.38</ele>
        <time>2021-08-16T08:32:22Z</time>
      </trkpt>
      <trkpt lat="44.92482" lon="2.31463">
        <ele>553.38</ele>
        <time>2021-08-16T08:32:23Z</time>
      </trkpt>
      <trkpt lat="44.92484" lon="2.31464">
        <ele>553.38</ele>
        <time>2021-08-16T08:32:24Z</time>
      </trkpt>
      <trkpt lat="44.92486" lon="2.31465">
        <ele>553.38</ele>
        <time>2021-08-16T08:32:25Z</time>
      </trkpt>
      <trkpt lat="44.92488" lon="2.31466">
        <ele>553.38</ele>
        <time>2021-08-16T08:32:26Z</time>
      </trkpt>
      <trkpt lat="44.9249" lon="2.31467">
        <ele>553.38</ele>
        <time>2021-08-16T08:32:27Z</time>
      </trkpt>
      <trkpt lat="44.92492" lon="2.31468">
        <ele>553.38</ele>
        <time>2021-08-16T08:32:28Z</time>
      </trkpt>
      <trkpt lat="44.92494" lon="2.31469">
        <ele>553.38</ele>
        <time>2021-08-16T08:32:29Z</time>
      </trkpt>
      <trkpt lat="44.92497" lon="2.31469">
        <ele>553.38</ele>
        <time>2021-08-16T08:32:30Z</time>
      </trkpt>
      <trkpt lat="44.92499" lon="2.31469">
        <ele>553.38</ele>
        <time>2021-08-16T08:32:31Z</time>
      </trkpt>
      <trkpt lat="44.92501" lon="2.31469">
        <ele>553.38</ele>
        <time>2021-08-16T08:32:32Z</time>
      </trkpt>
      <trkpt lat="44.92503" lon="2.31469">
        <ele>553.38</ele>
        <time>2021-08-16T08:32:33Z</time>
      </trkpt>
      <trkpt lat="44.9251" lon="2.31469">
        <ele>555.78</ele>
        <time>2021-08-16T08:32:39Z</time>
      </trkpt>
      <trkpt lat="44.92512" lon="2.31467">
        <ele>555.78</ele>
        <time>2021-08-16T08:32:40Z</time>
      </trkpt>
      <trkpt lat="44.92524" lon="2.31456">
        <ele>555.78</ele>
        <time>2021-08-16T08:32:46Z</time>
      </trkpt>
      <trkpt lat="44.92529" lon="2.3145">
        <ele>554.82</ele>
        <time>2021-08-16T08:32:48Z</time>
      </trkpt>
      <trkpt lat="44.92541" lon="2.31443">
        <ele>556.26</ele>
        <time>2021-08-16T08:32:53Z</time>
      </trkpt>
      <trkpt lat="44.92543" lon="2.31442">
        <ele>556.26</ele>
        <time>2021-08-16T08:32:54Z</time>
      </trkpt>
      <trkpt lat="44.92548" lon="2.31439">
        <ele>556.74</ele>
        <time>2021-08-16T08:32:57Z</time>
      </trkpt>
      <trkpt lat="44.92549" lon="2.31437">
        <ele>556.74</ele>
        <time>2021-08-16T08:32:58Z</time>
      </trkpt>
      <trkpt lat="44.92555" lon="2.31433">
        <ele>556.74</ele>
        <time>2021-08-16T08:33:01Z</time>
      </trkpt>
      <trkpt lat="44.92556" lon="2.3143">
        <ele>556.74</ele>
        <time>2021-08-16T08:33:02Z</time>
      </trkpt>
      <trkpt lat="44.92558" lon="2.31426">
        <ele>555.78</ele>
        <time>2021-08-16T08:33:03Z</time>
      </trkpt>
      <trkpt lat="44.9256" lon="2.31424">
        <ele>555.78</ele>
        <time>2021-08-16T08:33:04Z</time>
      </trkpt>
      <trkpt lat="44.92561" lon="2.31422">
        <ele>555.78</ele>
        <time>2021-08-16T08:33:05Z</time>
      </trkpt>
      <trkpt lat="44.92563" lon="2.3142">
        <ele>555.78</ele>
        <time>2021-08-16T08:33:06Z</time>
      </trkpt>
      <trkpt lat="44.92568" lon="2.31416">
        <ele>555.78</ele>
        <time>2021-08-16T08:33:12Z</time>
      </trkpt>
      <trkpt lat="44.92568" lon="2.31415">
        <ele>557.22</ele>
        <time>2021-08-16T08:33:14Z</time>
      </trkpt>
      <trkpt lat="44.92569" lon="2.31414">
        <ele>558.66</ele>
        <time>2021-08-16T08:33:21Z</time>
      </trkpt>
      <trkpt lat="44.92571" lon="2.31411">
        <ele>559.62</ele>
        <time>2021-08-16T08:33:28Z</time>
      </trkpt>
      <trkpt lat="44.92572" lon="2.31407">
        <ele>561.07</ele>
        <time>2021-08-16T08:33:36Z</time>
      </trkpt>
      <trkpt lat="44.92568" lon="2.31404">
        <ele>562.51</ele>
        <time>2021-08-16T08:33:46Z</time>
      </trkpt>
      <trkpt lat="44.92562" lon="2.31401">
        <ele>563.47</ele>
        <time>2021-08-16T08:33:55Z</time>
      </trkpt>
      <trkpt lat="44.9256" lon="2.31394">
        <ele>565.39</ele>
        <time>2021-08-16T08:34:04Z</time>
      </trkpt>
      <trkpt lat="44.92561" lon="2.31388">
        <ele>566.83</ele>
        <time>2021-08-16T08:34:12Z</time>
      </trkpt>
      <trkpt lat="44.9256" lon="2.31382">
        <ele>568.28</ele>
        <time>2021-08-16T08:34:20Z</time>
      </trkpt>
      <trkpt lat="44.92561" lon="2.31374">
        <ele>570.2</ele>
        <time>2021-08-16T08:34:30Z</time>
      </trkpt>
      <trkpt lat="44.92562" lon="2.31367">
        <ele>571.64</ele>
        <time>2021-08-16T08:34:38Z</time>
      </trkpt>
      <trkpt lat="44.92559" lon="2.31357">
        <ele>573.08</ele>
        <time>2021-08-16T08:34:46Z</time>
      </trkpt>
      <trkpt lat="44.92557" lon="2.31351">
        <ele>573.08</ele>
        <time>2021-08-16T08:34:53Z</time>
      </trkpt>
      <trkpt lat="44.92557" lon="2.31349">
        <ele>573.08</ele>
        <time>2021-08-16T08:34:54Z</time>
      </trkpt>
      <trkpt lat="44.92557" lon="2.31346">
        <ele>573.08</ele>
        <time>2021-08-16T08:34:55Z</time>
      </trkpt>
      <trkpt lat="44.92557" lon="2.31344">
        <ele>573.08</ele>
        <time>2021-08-16T08:34:56Z</time>
      </trkpt>
      <trkpt lat="44.92558" lon="2.31342">
        <ele>573.08</ele>
        <time>2021-08-16T08:34:57Z</time>
      </trkpt>
      <trkpt lat="44.92558" lon="2.3134">
        <ele>573.08</ele>
        <time>2021-08-16T08:34:58Z</time>
      </trkpt>
      <trkpt lat="44.92559" lon="2.31338">
        <ele>573.56</ele>
        <time>2021-08-16T08:34:59Z</time>
      </trkpt>
      <trkpt lat="44.92557" lon="2.31318">
        <ele>574.04</ele>
        <time>2021-08-16T08:35:06Z</time>
      </trkpt>
      <trkpt lat="44.92552" lon="2.31285">
        <ele>575.49</ele>
        <time>2021-08-16T08:35:16Z</time>
      </trkpt>
      <trkpt lat="44.92549" lon="2.31257">
        <ele>576.45</ele>
        <time>2021-08-16T08:35:26Z</time>
      </trkpt>
      <trkpt lat="44.92546" lon="2.31234">
        <ele>577.89</ele>
        <time>2021-08-16T08:35:36Z</time>
      </trkpt>
      <trkpt lat="44.92543" lon="2.31221">
        <ele>578.85</ele>
        <time>2021-08-16T08:35:43Z</time>
      </trkpt>
      <trkpt lat="44.92541" lon="2.31213">
        <ele>579.33</ele>
        <time>2021-08-16T08:35:50Z</time>
      </trkpt>
      <trkpt lat="44.92539" lon="2.31204">
        <ele>580.77</ele>
        <time>2021-08-16T08:35:59Z</time>
      </trkpt>
      <trkpt lat="44.92537" lon="2.312">
        <ele>582.7</ele>
        <time>2021-08-16T08:36:09Z</time>
      </trkpt>
      <trkpt lat="44.92535" lon="2.31197">
        <ele>583.66</ele>
        <time>2021-08-16T08:36:15Z</time>
      </trkpt>
      <trkpt lat="44.92532" lon="2.31191">
        <ele>585.58</ele>
        <time>2021-08-16T08:36:23Z</time>
      </trkpt>
      <trkpt lat="44.9253" lon="2.31181">
        <ele>587.02</ele>
        <time>2021-08-16T08:36:34Z</time>
      </trkpt>
      <trkpt lat="44.9253" lon="2.31172">
        <ele>587.98</ele>
        <time>2021-08-16T08:36:42Z</time>
      </trkpt>
      <trkpt lat="44.92531" lon="2.31163">
        <ele>588.95</ele>
        <time>2021-08-16T08:36:49Z</time>
      </trkpt>
      <trkpt lat="44.9253" lon="2.3115">
        <ele>590.39</ele>
        <time>2021-08-16T08:36:58Z</time>
      </trkpt>
      <trkpt lat="44.92527" lon="2.31135">
        <ele>592.31</ele>
        <time>2021-08-16T08:37:07Z</time>
      </trkpt>
      <trkpt lat="44.92525" lon="2.31121">
        <ele>593.75</ele>
        <time>2021-08-16T08:37:16Z</time>
      </trkpt>
      <trkpt lat="44.9252" lon="2.31102">
        <ele>595.19</ele>
        <time>2021-08-16T08:37:25Z</time>
      </trkpt>
      <trkpt lat="44.92508" lon="2.31088">
        <ele>596.15</ele>
        <time>2021-08-16T08:37:34Z</time>
      </trkpt>
      <trkpt lat="44.92491" lon="2.31073">
        <ele>598.08</ele>
        <time>2021-08-16T08:37:45Z</time>
      </trkpt>
      <trkpt lat="44.92481" lon="2.31062">
        <ele>599.52</ele>
        <time>2021-08-16T08:37:53Z</time>
      </trkpt>
      <trkpt lat="44.92479" lon="2.31059">
        <ele>600</ele>
        <time>2021-08-16T08:37:55Z</time>
      </trkpt>
      <trkpt lat="44.92477" lon="2.31057">
        <ele>600</ele>
        <time>2021-08-16T08:37:56Z</time>
      </trkpt>
      <trkpt lat="44.92466" lon="2.31044">
        <ele>602.4</ele>
        <time>2021-08-16T08:38:06Z</time>
      </trkpt>
      <trkpt lat="44.92456" lon="2.31032">
        <ele>603.85</ele>
        <time>2021-08-16T08:38:16Z</time>
      </trkpt>
      <trkpt lat="44.92454" lon="2.31031">
        <ele>604.33</ele>
        <time>2021-08-16T08:38:17Z</time>
      </trkpt>
      <trkpt lat="44.92446" lon="2.31023">
        <ele>606.25</ele>
        <time>2021-08-16T08:38:26Z</time>
      </trkpt>
      <trkpt lat="44.92438" lon="2.31014">
        <ele>607.21</ele>
        <time>2021-08-16T08:38:35Z</time>
      </trkpt>
      <trkpt lat="44.92428" lon="2.31003">
        <ele>609.61</ele>
        <time>2021-08-16T08:38:45Z</time>
      </trkpt>
      <trkpt lat="44.92422" lon="2.30996">
        <ele>610.09</ele>
        <time>2021-08-16T08:38:50Z</time>
      </trkpt>
      <trkpt lat="44.92421" lon="2.30994">
        <ele>610.57</ele>
        <time>2021-08-16T08:38:51Z</time>
      </trkpt>
      <trkpt lat="44.9242" lon="2.30993">
        <ele>610.57</ele>
        <time>2021-08-16T08:38:52Z</time>
      </trkpt>
      <trkpt lat="44.92415" lon="2.30986">
        <ele>612.02</ele>
        <time>2021-08-16T08:38:57Z</time>
      </trkpt>
      <trkpt lat="44.92414" lon="2.30984">
        <ele>612.02</ele>
        <time>2021-08-16T08:38:58Z</time>
      </trkpt>
      <trkpt lat="44.92411" lon="2.30979">
        <ele>612.02</ele>
        <time>2021-08-16T08:39:01Z</time>
      </trkpt>
      <trkpt lat="44.9241" lon="2.30978">
        <ele>612.02</ele>
        <time>2021-08-16T08:39:02Z</time>
      </trkpt>
      <trkpt lat="44.92409" lon="2.30977">
        <ele>612.5</ele>
        <time>2021-08-16T08:39:03Z</time>
      </trkpt>
      <trkpt lat="44.92406" lon="2.30973">
        <ele>612.98</ele>
        <time>2021-08-16T08:39:06Z</time>
      </trkpt>
      <trkpt lat="44.92405" lon="2.30972">
        <ele>612.98</ele>
        <time>2021-08-16T08:39:07Z</time>
      </trkpt>
      <trkpt lat="44.92397" lon="2.3096">
        <ele>614.42</ele>
        <time>2021-08-16T08:39:16Z</time>
      </trkpt>
      <trkpt lat="44.92388" lon="2.30947">
        <ele>615.38</ele>
        <time>2021-08-16T08:39:25Z</time>
      </trkpt>
      <trkpt lat="44.92376" lon="2.30934">
        <ele>616.34</ele>
        <time>2021-08-16T08:39:33Z</time>
      </trkpt>
      <trkpt lat="44.92359" lon="2.30915">
        <ele>618.26</ele>
        <time>2021-08-16T08:39:43Z</time>
      </trkpt>
      <trkpt lat="44.92342" lon="2.30897">
        <ele>618.75</ele>
        <time>2021-08-16T08:39:52Z</time>
      </trkpt>
      <trkpt lat="44.9233" lon="2.30882">
        <ele>618.75</ele>
        <time>2021-08-16T08:39:58Z</time>
      </trkpt>
      <trkpt lat="44.92313" lon="2.30853">
        <ele>618.75</ele>
        <time>2021-08-16T08:40:06Z</time>
      </trkpt>
      <trkpt lat="44.92306" lon="2.30838">
        <ele>617.3</ele>
        <time>2021-08-16T08:40:09Z</time>
      </trkpt>
      <trkpt lat="44.92299" lon="2.30822">
        <ele>616.82</ele>
        <time>2021-08-16T08:40:12Z</time>
      </trkpt>
      <trkpt lat="44.92293" lon="2.30812">
        <ele>616.34</ele>
        <time>2021-08-16T08:40:14Z</time>
      </trkpt>
      <trkpt lat="44.92276" lon="2.30788">
        <ele>615.38</ele>
        <time>2021-08-16T08:40:20Z</time>
      </trkpt>
      <trkpt lat="44.92255" lon="2.30769">
        <ele>613.94</ele>
        <time>2021-08-16T08:40:27Z</time>
      </trkpt>
      <trkpt lat="44.92253" lon="2.30767">
        <ele>613.94</ele>
        <time>2021-08-16T08:40:28Z</time>
      </trkpt>
      <trkpt lat="44.92252" lon="2.30767">
        <ele>613.94</ele>
        <time>2021-08-16T08:40:29Z</time>
      </trkpt>
      <trkpt lat="44.92251" lon="2.30769">
        <ele>613.94</ele>
        <time>2021-08-16T08:40:30Z</time>
      </trkpt>
      <trkpt lat="44.92251" lon="2.3077">
        <ele>613.94</ele>
        <time>2021-08-16T08:40:31Z</time>
      </trkpt>
      <trkpt lat="44.92253" lon="2.30771">
        <ele>613.94</ele>
        <time>2021-08-16T08:40:32Z</time>
      </trkpt>
      <trkpt lat="44.92255" lon="2.30772">
        <ele>613.94</ele>
        <time>2021-08-16T08:40:33Z</time>
      </trkpt>
      <trkpt lat="44.92257" lon="2.30773">
        <ele>613.94</ele>
        <time>2021-08-16T08:40:34Z</time>
      </trkpt>
      <trkpt lat="44.92273" lon="2.30781">
        <ele>615.38</ele>
        <time>2021-08-16T08:40:40Z</time>
      </trkpt>
      <trkpt lat="44.92276" lon="2.3078">
        <ele>615.38</ele>
        <time>2021-08-16T08:40:41Z</time>
      </trkpt>
      <trkpt lat="44.92278" lon="2.30777">
        <ele>615.38</ele>
        <time>2021-08-16T08:40:42Z</time>
      </trkpt>
      <trkpt lat="44.9228" lon="2.30772">
        <ele>615.38</ele>
        <time>2021-08-16T08:40:43Z</time>
      </trkpt>
      <trkpt lat="44.9228" lon="2.30768">
        <ele>615.38</ele>
        <time>2021-08-16T08:40:44Z</time>
      </trkpt>
      <trkpt lat="44.9228" lon="2.30762">
        <ele>615.38</ele>
        <time>2021-08-16T08:40:45Z</time>
      </trkpt>
      <trkpt lat="44.9228" lon="2.30755">
        <ele>613.94</ele>
        <time>2021-08-16T08:40:46Z</time>
      </trkpt>
      <trkpt lat="44.9228" lon="2.30747">
        <ele>613.46</ele>
        <time>2021-08-16T08:40:47Z</time>
      </trkpt>
      <trkpt lat="44.9228" lon="2.30731">
        <ele>612.5</ele>
        <time>2021-08-16T08:40:49Z</time>
      </trkpt>
      <trkpt lat="44.92282" lon="2.30714">
        <ele>611.54</ele>
        <time>2021-08-16T08:40:51Z</time>
      </trkpt>
      <trkpt lat="44.92284" lon="2.30706">
        <ele>611.54</ele>
        <time>2021-08-16T08:40:52Z</time>
      </trkpt>
      <trkpt lat="44.92287" lon="2.30697">
        <ele>611.06</ele>
        <time>2021-08-16T08:40:53Z</time>
      </trkpt>
      <trkpt lat="44.9229" lon="2.3069">
        <ele>611.06</ele>
        <time>2021-08-16T08:40:54Z</time>
      </trkpt>
      <trkpt lat="44.92294" lon="2.30683">
        <ele>610.57</ele>
        <time>2021-08-16T08:40:55Z</time>
      </trkpt>
      <trkpt lat="44.92335" lon="2.306">
        <ele>610.09</ele>
        <time>2021-08-16T08:41:06Z</time>
      </trkpt>
      <trkpt lat="44.92363" lon="2.30527">
        <ele>608.17</ele>
        <time>2021-08-16T08:41:15Z</time>
      </trkpt>
      <trkpt lat="44.92385" lon="2.30447">
        <ele>606.73</ele>
        <time>2021-08-16T08:41:24Z</time>
      </trkpt>
      <trkpt lat="44.92406" lon="2.30353">
        <ele>604.33</ele>
        <time>2021-08-16T08:41:34Z</time>
      </trkpt>
      <trkpt lat="44.92412" lon="2.30325">
        <ele>603.85</ele>
        <time>2021-08-16T08:41:37Z</time>
      </trkpt>
      <trkpt lat="44.92415" lon="2.30316">
        <ele>603.85</ele>
        <time>2021-08-16T08:41:38Z</time>
      </trkpt>
      <trkpt lat="44.92423" lon="2.30292">
        <ele>603.36</ele>
        <time>2021-08-16T08:41:41Z</time>
      </trkpt>
      <trkpt lat="44.92423" lon="2.30287">
        <ele>603.36</ele>
        <time>2021-08-16T08:41:42Z</time>
      </trkpt>
      <trkpt lat="44.92422" lon="2.3028">
        <ele>603.36</ele>
        <time>2021-08-16T08:41:43Z</time>
      </trkpt>
      <trkpt lat="44.92419" lon="2.30274">
        <ele>602.4</ele>
        <time>2021-08-16T08:41:44Z</time>
      </trkpt>
      <trkpt lat="44.92415" lon="2.30271">
        <ele>601.92</ele>
        <time>2021-08-16T08:41:45Z</time>
      </trkpt>
      <trkpt lat="44.9241" lon="2.30268">
        <ele>601.92</ele>
        <time>2021-08-16T08:41:46Z</time>
      </trkpt>
      <trkpt lat="44.92405" lon="2.30265">
        <ele>601.92</ele>
        <time>2021-08-16T08:41:47Z</time>
      </trkpt>
      <trkpt lat="44.92363" lon="2.30239">
        <ele>600.96</ele>
        <time>2021-08-16T08:41:54Z</time>
      </trkpt>
      <trkpt lat="44.92311" lon="2.3021">
        <ele>600</ele>
        <time>2021-08-16T08:42:02Z</time>
      </trkpt>
      <trkpt lat="44.92238" lon="2.30184">
        <ele>598.08</ele>
        <time>2021-08-16T08:42:12Z</time>
      </trkpt>
      <trkpt lat="44.92173" lon="2.3017">
        <ele>596.64</ele>
        <time>2021-08-16T08:42:21Z</time>
      </trkpt>
      <trkpt lat="44.92136" lon="2.30157">
        <ele>596.64</ele>
        <time>2021-08-16T08:42:27Z</time>
      </trkpt>
      <trkpt lat="44.92076" lon="2.3012">
        <ele>596.15</ele>
        <time>2021-08-16T08:42:38Z</time>
      </trkpt>
      <trkpt lat="44.92035" lon="2.30102">
        <ele>597.6</ele>
        <time>2021-08-16T08:42:46Z</time>
      </trkpt>
      <trkpt lat="44.92033" lon="2.301">
        <ele>597.6</ele>
        <time>2021-08-16T08:42:47Z</time>
      </trkpt>
      <trkpt lat="44.92033" lon="2.30097">
        <ele>597.6</ele>
        <time>2021-08-16T08:42:48Z</time>
      </trkpt>
      <trkpt lat="44.92034" lon="2.30094">
        <ele>597.6</ele>
        <time>2021-08-16T08:42:49Z</time>
      </trkpt>
      <trkpt lat="44.92034" lon="2.30092">
        <ele>598.08</ele>
        <time>2021-08-16T08:42:50Z</time>
      </trkpt>
      <trkpt lat="44.92033" lon="2.3009">
        <ele>598.08</ele>
        <time>2021-08-16T08:42:51Z</time>
      </trkpt>
      <trkpt lat="44.92032" lon="2.30087">
        <ele>598.08</ele>
        <time>2021-08-16T08:42:52Z</time>
      </trkpt>
      <trkpt lat="44.92032" lon="2.30084">
        <ele>598.08</ele>
        <time>2021-08-16T08:42:53Z</time>
      </trkpt>
      <trkpt lat="44.92032" lon="2.30079">
        <ele>598.08</ele>
        <time>2021-08-16T08:42:54Z</time>
      </trkpt>
      <trkpt lat="44.92032" lon="2.30074">
        <ele>598.08</ele>
        <time>2021-08-16T08:42:55Z</time>
      </trkpt>
      <trkpt lat="44.92039" lon="2.3004">
        <ele>598.08</ele>
        <time>2021-08-16T08:43:01Z</time>
      </trkpt>
      <trkpt lat="44.92047" lon="2.30012">
        <ele>596.15</ele>
        <time>2021-08-16T08:43:05Z</time>
      </trkpt>
      <trkpt lat="44.9205" lon="2.30007">
        <ele>595.67</ele>
        <time>2021-08-16T08:43:06Z</time>
      </trkpt>
      <trkpt lat="44.92059" lon="2.29988">
        <ele>595.67</ele>
        <time>2021-08-16T08:43:09Z</time>
      </trkpt>
      <trkpt lat="44.92073" lon="2.2995">
        <ele>592.31</ele>
        <time>2021-08-16T08:43:14Z</time>
      </trkpt>
      <trkpt lat="44.92078" lon="2.29942">
        <ele>591.35</ele>
        <time>2021-08-16T08:43:15Z</time>
      </trkpt>
      <trkpt lat="44.92083" lon="2.29938">
        <ele>590.87</ele>
        <time>2021-08-16T08:43:16Z</time>
      </trkpt>
      <trkpt lat="44.92092" lon="2.29936">
        <ele>590.39</ele>
        <time>2021-08-16T08:43:17Z</time>
      </trkpt>
      <trkpt lat="44.92098" lon="2.29935">
        <ele>589.43</ele>
        <time>2021-08-16T08:43:18Z</time>
      </trkpt>
      <trkpt lat="44.92122" lon="2.29928">
        <ele>587.98</ele>
        <time>2021-08-16T08:43:21Z</time>
      </trkpt>
      <trkpt lat="44.9213" lon="2.29924">
        <ele>587.5</ele>
        <time>2021-08-16T08:43:22Z</time>
      </trkpt>
      <trkpt lat="44.92158" lon="2.29907">
        <ele>586.54</ele>
        <time>2021-08-16T08:43:26Z</time>
      </trkpt>
      <trkpt lat="44.92182" lon="2.29892">
        <ele>586.54</ele>
        <time>2021-08-16T08:43:30Z</time>
      </trkpt>
      <trkpt lat="44.92187" lon="2.29892">
        <ele>586.06</ele>
        <time>2021-08-16T08:43:31Z</time>
      </trkpt>
      <trkpt lat="44.92193" lon="2.29894">
        <ele>585.58</ele>
        <time>2021-08-16T08:43:32Z</time>
      </trkpt>
      <trkpt lat="44.92234" lon="2.29911">
        <ele>586.06</ele>
        <time>2021-08-16T08:43:39Z</time>
      </trkpt>
      <trkpt lat="44.92267" lon="2.29926">
        <ele>586.06</ele>
        <time>2021-08-16T08:43:45Z</time>
      </trkpt>
      <trkpt lat="44.92272" lon="2.29925">
        <ele>586.06</ele>
        <time>2021-08-16T08:43:46Z</time>
      </trkpt>
      <trkpt lat="44.92278" lon="2.29923">
        <ele>585.58</ele>
        <time>2021-08-16T08:43:47Z</time>
      </trkpt>
      <trkpt lat="44.92282" lon="2.29919">
        <ele>585.58</ele>
        <time>2021-08-16T08:43:48Z</time>
      </trkpt>
      <trkpt lat="44.92287" lon="2.29913">
        <ele>584.62</ele>
        <time>2021-08-16T08:43:49Z</time>
      </trkpt>
      <trkpt lat="44.9229" lon="2.29905">
        <ele>584.62</ele>
        <time>2021-08-16T08:43:50Z</time>
      </trkpt>
      <trkpt lat="44.92293" lon="2.29897">
        <ele>583.66</ele>
        <time>2021-08-16T08:43:51Z</time>
      </trkpt>
      <trkpt lat="44.92295" lon="2.29887">
        <ele>583.18</ele>
        <time>2021-08-16T08:43:52Z</time>
      </trkpt>
      <trkpt lat="44.92302" lon="2.29855">
        <ele>580.29</ele>
        <time>2021-08-16T08:43:55Z</time>
      </trkpt>
      <trkpt lat="44.9231" lon="2.29819">
        <ele>576.45</ele>
        <time>2021-08-16T08:43:58Z</time>
      </trkpt>
      <trkpt lat="44.92314" lon="2.29808">
        <ele>575.49</ele>
        <time>2021-08-16T08:43:59Z</time>
      </trkpt>
      <trkpt lat="44.92319" lon="2.29797">
        <ele>574.53</ele>
        <time>2021-08-16T08:44:00Z</time>
      </trkpt>
      <trkpt lat="44.92324" lon="2.29787">
        <ele>574.53</ele>
        <time>2021-08-16T08:44:01Z</time>
      </trkpt>
      <trkpt lat="44.92327" lon="2.29777">
        <ele>574.53</ele>
        <time>2021-08-16T08:44:02Z</time>
      </trkpt>
      <trkpt lat="44.92329" lon="2.29764">
        <ele>574.53</ele>
        <time>2021-08-16T08:44:03Z</time>
      </trkpt>
      <trkpt lat="44.92329" lon="2.29755">
        <ele>574.53</ele>
        <time>2021-08-16T08:44:04Z</time>
      </trkpt>
      <trkpt lat="44.9233" lon="2.29706">
        <ele>576.45</ele>
        <time>2021-08-16T08:44:10Z</time>
      </trkpt>
      <trkpt lat="44.92331" lon="2.29699">
        <ele>576.93</ele>
        <time>2021-08-16T08:44:11Z</time>
      </trkpt>
      <trkpt lat="44.92335" lon="2.29681">
        <ele>577.41</ele>
        <time>2021-08-16T08:44:14Z</time>
      </trkpt>
      <trkpt lat="44.9234" lon="2.29664">
        <ele>577.89</ele>
        <time>2021-08-16T08:44:17Z</time>
      </trkpt>
      <trkpt lat="44.92349" lon="2.29644">
        <ele>578.37</ele>
        <time>2021-08-16T08:44:21Z</time>
      </trkpt>
      <trkpt lat="44.92353" lon="2.29638">
        <ele>578.37</ele>
        <time>2021-08-16T08:44:22Z</time>
      </trkpt>
      <trkpt lat="44.92355" lon="2.29634">
        <ele>578.37</ele>
        <time>2021-08-16T08:44:23Z</time>
      </trkpt>
      <trkpt lat="44.92382" lon="2.29582">
        <ele>578.37</ele>
        <time>2021-08-16T08:44:32Z</time>
      </trkpt>
      <trkpt lat="44.92386" lon="2.29568">
        <ele>578.37</ele>
        <time>2021-08-16T08:44:34Z</time>
      </trkpt>
      <trkpt lat="44.92397" lon="2.29508">
        <ele>578.85</ele>
        <time>2021-08-16T08:44:43Z</time>
      </trkpt>
      <trkpt lat="44.92398" lon="2.29502">
        <ele>578.85</ele>
        <time>2021-08-16T08:44:44Z</time>
      </trkpt>
      <trkpt lat="44.924" lon="2.29496">
        <ele>578.85</ele>
        <time>2021-08-16T08:44:45Z</time>
      </trkpt>
      <trkpt lat="44.92402" lon="2.29491">
        <ele>578.85</ele>
        <time>2021-08-16T08:44:46Z</time>
      </trkpt>
      <trkpt lat="44.92404" lon="2.29487">
        <ele>579.33</ele>
        <time>2021-08-16T08:44:47Z</time>
      </trkpt>
      <trkpt lat="44.92407" lon="2.29483">
        <ele>578.85</ele>
        <time>2021-08-16T08:44:48Z</time>
      </trkpt>
      <trkpt lat="44.92411" lon="2.29475">
        <ele>579.33</ele>
        <time>2021-08-16T08:44:50Z</time>
      </trkpt>
      <trkpt lat="44.92414" lon="2.2947">
        <ele>579.81</ele>
        <time>2021-08-16T08:44:51Z</time>
      </trkpt>
      <trkpt lat="44.92431" lon="2.29449">
        <ele>580.77</ele>
        <time>2021-08-16T08:44:58Z</time>
      </trkpt>
      <trkpt lat="44.9245" lon="2.29425">
        <ele>579.81</ele>
        <time>2021-08-16T08:45:04Z</time>
      </trkpt>
      <trkpt lat="44.92465" lon="2.29405">
        <ele>579.33</ele>
        <time>2021-08-16T08:45:08Z</time>
      </trkpt>
      <trkpt lat="44.92468" lon="2.294">
        <ele>578.85</ele>
        <time>2021-08-16T08:45:09Z</time>
      </trkpt>
      <trkpt lat="44.92487" lon="2.29358">
        <ele>575.97</ele>
        <time>2021-08-16T08:45:15Z</time>
      </trkpt>
      <trkpt lat="44.92502" lon="2.29332">
        <ele>575.97</ele>
        <time>2021-08-16T08:45:19Z</time>
      </trkpt>
      <trkpt lat="44.92506" lon="2.29327">
        <ele>575.97</ele>
        <time>2021-08-16T08:45:20Z</time>
      </trkpt>
      <trkpt lat="44.92514" lon="2.29318">
        <ele>575.97</ele>
        <time>2021-08-16T08:45:22Z</time>
      </trkpt>
      <trkpt lat="44.92523" lon="2.29311">
        <ele>575.97</ele>
        <time>2021-08-16T08:45:24Z</time>
      </trkpt>
      <trkpt lat="44.92544" lon="2.29293">
        <ele>577.89</ele>
        <time>2021-08-16T08:45:30Z</time>
      </trkpt>
      <trkpt lat="44.92566" lon="2.29273">
        <ele>577.89</ele>
        <time>2021-08-16T08:45:37Z</time>
      </trkpt>
      <trkpt lat="44.92581" lon="2.29261">
        <ele>577.89</ele>
        <time>2021-08-16T08:45:42Z</time>
      </trkpt>
      <trkpt lat="44.92591" lon="2.29241">
        <ele>578.37</ele>
        <time>2021-08-16T08:45:47Z</time>
      </trkpt>
      <trkpt lat="44.92601" lon="2.29198">
        <ele>576.93</ele>
        <time>2021-08-16T08:45:54Z</time>
      </trkpt>
      <trkpt lat="44.92602" lon="2.2919">
        <ele>576.93</ele>
        <time>2021-08-16T08:45:55Z</time>
      </trkpt>
      <trkpt lat="44.92604" lon="2.29161">
        <ele>576.45</ele>
        <time>2021-08-16T08:45:59Z</time>
      </trkpt>
      <trkpt lat="44.92603" lon="2.29139">
        <ele>576.45</ele>
        <time>2021-08-16T08:46:02Z</time>
      </trkpt>
      <trkpt lat="44.92598" lon="2.291">
        <ele>577.89</ele>
        <time>2021-08-16T08:46:08Z</time>
      </trkpt>
      <trkpt lat="44.92597" lon="2.29095">
        <ele>577.89</ele>
        <time>2021-08-16T08:46:09Z</time>
      </trkpt>
      <trkpt lat="44.92596" lon="2.29088">
        <ele>577.89</ele>
        <time>2021-08-16T08:46:10Z</time>
      </trkpt>
      <trkpt lat="44.92595" lon="2.29082">
        <ele>577.89</ele>
        <time>2021-08-16T08:46:11Z</time>
      </trkpt>
      <trkpt lat="44.92594" lon="2.29076">
        <ele>577.89</ele>
        <time>2021-08-16T08:46:12Z</time>
      </trkpt>
      <trkpt lat="44.92594" lon="2.29069">
        <ele>577.89</ele>
        <time>2021-08-16T08:46:13Z</time>
      </trkpt>
      <trkpt lat="44.92591" lon="2.29017">
        <ele>577.89</ele>
        <time>2021-08-16T08:46:21Z</time>
      </trkpt>
      <trkpt lat="44.92589" lon="2.28964">
        <ele>580.29</ele>
        <time>2021-08-16T08:46:30Z</time>
      </trkpt>
      <trkpt lat="44.92585" lon="2.28924">
        <ele>581.25</ele>
        <time>2021-08-16T08:46:37Z</time>
      </trkpt>
      <trkpt lat="44.92575" lon="2.28891">
        <ele>581.73</ele>
        <time>2021-08-16T08:46:44Z</time>
      </trkpt>
      <trkpt lat="44.92568" lon="2.28861">
        <ele>582.7</ele>
        <time>2021-08-16T08:46:51Z</time>
      </trkpt>
      <trkpt lat="44.92564" lon="2.28828">
        <ele>583.18</ele>
        <time>2021-08-16T08:46:58Z</time>
      </trkpt>
      <trkpt lat="44.9256" lon="2.28787">
        <ele>584.62</ele>
        <time>2021-08-16T08:47:08Z</time>
      </trkpt>
      <trkpt lat="44.92559" lon="2.28749">
        <ele>587.02</ele>
        <time>2021-08-16T08:47:18Z</time>
      </trkpt>
      <trkpt lat="44.92555" lon="2.2871">
        <ele>587.98</ele>
        <time>2021-08-16T08:47:28Z</time>
      </trkpt>
      <trkpt lat="44.92556" lon="2.28664">
        <ele>587.98</ele>
        <time>2021-08-16T08:47:37Z</time>
      </trkpt>
      <trkpt lat="44.92568" lon="2.28613">
        <ele>587.98</ele>
        <time>2021-08-16T08:47:45Z</time>
      </trkpt>
      <trkpt lat="44.92585" lon="2.28562">
        <ele>587.98</ele>
        <time>2021-08-16T08:47:53Z</time>
      </trkpt>
      <trkpt lat="44.92608" lon="2.28496">
        <ele>586.54</ele>
        <time>2021-08-16T08:48:02Z</time>
      </trkpt>
      <trkpt lat="44.92633" lon="2.28423">
        <ele>585.1</ele>
        <time>2021-08-16T08:48:12Z</time>
      </trkpt>
      <trkpt lat="44.92654" lon="2.28355">
        <ele>584.14</ele>
        <time>2021-08-16T08:48:21Z</time>
      </trkpt>
      <trkpt lat="44.9268" lon="2.28279">
        <ele>582.22</ele>
        <time>2021-08-16T08:48:30Z</time>
      </trkpt>
      <trkpt lat="44.92686" lon="2.28269">
        <ele>582.22</ele>
        <time>2021-08-16T08:48:31Z</time>
      </trkpt>
      <trkpt lat="44.92692" lon="2.2826">
        <ele>581.73</ele>
        <time>2021-08-16T08:48:33Z</time>
      </trkpt>
      <trkpt lat="44.92701" lon="2.28251">
        <ele>582.7</ele>
        <time>2021-08-16T08:48:35Z</time>
      </trkpt>
      <trkpt lat="44.92705" lon="2.28247">
        <ele>582.7</ele>
        <time>2021-08-16T08:48:36Z</time>
      </trkpt>
      <trkpt lat="44.9271" lon="2.28244">
        <ele>582.7</ele>
        <time>2021-08-16T08:48:37Z</time>
      </trkpt>
      <trkpt lat="44.92715" lon="2.2824">
        <ele>582.7</ele>
        <time>2021-08-16T08:48:38Z</time>
      </trkpt>
      <trkpt lat="44.92719" lon="2.28236">
        <ele>582.7</ele>
        <time>2021-08-16T08:48:39Z</time>
      </trkpt>
      <trkpt lat="44.9276" lon="2.28183">
        <ele>581.25</ele>
        <time>2021-08-16T08:48:49Z</time>
      </trkpt>
      <trkpt lat="44.92764" lon="2.28176">
        <ele>581.25</ele>
        <time>2021-08-16T08:48:50Z</time>
      </trkpt>
      <trkpt lat="44.92767" lon="2.28166">
        <ele>580.77</ele>
        <time>2021-08-16T08:48:51Z</time>
      </trkpt>
      <trkpt lat="44.92768" lon="2.28157">
        <ele>580.77</ele>
        <time>2021-08-16T08:48:52Z</time>
      </trkpt>
      <trkpt lat="44.92769" lon="2.2815">
        <ele>579.81</ele>
        <time>2021-08-16T08:48:53Z</time>
      </trkpt>
      <trkpt lat="44.9277" lon="2.28138">
        <ele>579.33</ele>
        <time>2021-08-16T08:48:54Z</time>
      </trkpt>
      <trkpt lat="44.9277" lon="2.28086">
        <ele>576.93</ele>
        <time>2021-08-16T08:48:59Z</time>
      </trkpt>
      <trkpt lat="44.92767" lon="2.2805">
        <ele>575.49</ele>
        <time>2021-08-16T08:49:02Z</time>
      </trkpt>
      <trkpt lat="44.92763" lon="2.27971">
        <ele>572.12</ele>
        <time>2021-08-16T08:49:08Z</time>
      </trkpt>
      <trkpt lat="44.92765" lon="2.27959">
        <ele>572.12</ele>
        <time>2021-08-16T08:49:09Z</time>
      </trkpt>
      <trkpt lat="44.92767" lon="2.27948">
        <ele>571.64</ele>
        <time>2021-08-16T08:49:10Z</time>
      </trkpt>
      <trkpt lat="44.9277" lon="2.27936">
        <ele>571.16</ele>
        <time>2021-08-16T08:49:11Z</time>
      </trkpt>
      <trkpt lat="44.92775" lon="2.27924">
        <ele>571.16</ele>
        <time>2021-08-16T08:49:12Z</time>
      </trkpt>
      <trkpt lat="44.92778" lon="2.27914">
        <ele>571.16</ele>
        <time>2021-08-16T08:49:13Z</time>
      </trkpt>
      <trkpt lat="44.92801" lon="2.27851">
        <ele>572.6</ele>
        <time>2021-08-16T08:49:20Z</time>
      </trkpt>
      <trkpt lat="44.92813" lon="2.27815">
        <ele>575.01</ele>
        <time>2021-08-16T08:49:26Z</time>
      </trkpt>
      <trkpt lat="44.92823" lon="2.27785">
        <ele>576.45</ele>
        <time>2021-08-16T08:49:33Z</time>
      </trkpt>
      <trkpt lat="44.92834" lon="2.27754">
        <ele>577.89</ele>
        <time>2021-08-16T08:49:41Z</time>
      </trkpt>
      <trkpt lat="44.92841" lon="2.27729">
        <ele>578.85</ele>
        <time>2021-08-16T08:49:48Z</time>
      </trkpt>
      <trkpt lat="44.92848" lon="2.2771">
        <ele>579.33</ele>
        <time>2021-08-16T08:49:54Z</time>
      </trkpt>
      <trkpt lat="44.92863" lon="2.2768">
        <ele>581.25</ele>
        <time>2021-08-16T08:50:05Z</time>
      </trkpt>
      <trkpt lat="44.9288" lon="2.27654">
        <ele>581.73</ele>
        <time>2021-08-16T08:50:15Z</time>
      </trkpt>
      <trkpt lat="44.92897" lon="2.27635">
        <ele>582.7</ele>
        <time>2021-08-16T08:50:23Z</time>
      </trkpt>
      <trkpt lat="44.92915" lon="2.27616">
        <ele>583.18</ele>
        <time>2021-08-16T08:50:31Z</time>
      </trkpt>
      <trkpt lat="44.92934" lon="2.27595">
        <ele>584.62</ele>
        <time>2021-08-16T08:50:40Z</time>
      </trkpt>
      <trkpt lat="44.9295" lon="2.27575">
        <ele>586.06</ele>
        <time>2021-08-16T08:50:48Z</time>
      </trkpt>
      <trkpt lat="44.92967" lon="2.27551">
        <ele>587.02</ele>
        <time>2021-08-16T08:50:57Z</time>
      </trkpt>
      <trkpt lat="44.92983" lon="2.27526">
        <ele>587.98</ele>
        <time>2021-08-16T08:51:06Z</time>
      </trkpt>
      <trkpt lat="44.92998" lon="2.27502">
        <ele>588.95</ele>
        <time>2021-08-16T08:51:14Z</time>
      </trkpt>
      <trkpt lat="44.93016" lon="2.27472">
        <ele>589.43</ele>
        <time>2021-08-16T08:51:23Z</time>
      </trkpt>
      <trkpt lat="44.93034" lon="2.27437">
        <ele>590.39</ele>
        <time>2021-08-16T08:51:33Z</time>
      </trkpt>
      <trkpt lat="44.93046" lon="2.27412">
        <ele>590.39</ele>
        <time>2021-08-16T08:51:40Z</time>
      </trkpt>
      <trkpt lat="44.93055" lon="2.27388">
        <ele>590.87</ele>
        <time>2021-08-16T08:51:46Z</time>
      </trkpt>
      <trkpt lat="44.93068" lon="2.27348">
        <ele>591.35</ele>
        <time>2021-08-16T08:51:55Z</time>
      </trkpt>
      <trkpt lat="44.93087" lon="2.27313">
        <ele>592.31</ele>
        <time>2021-08-16T08:52:05Z</time>
      </trkpt>
      <trkpt lat="44.93109" lon="2.27292">
        <ele>593.27</ele>
        <time>2021-08-16T08:52:14Z</time>
      </trkpt>
      <trkpt lat="44.93127" lon="2.27285">
        <ele>594.23</ele>
        <time>2021-08-16T08:52:20Z</time>
      </trkpt>
      <trkpt lat="44.93146" lon="2.27272">
        <ele>594.71</ele>
        <time>2021-08-16T08:52:27Z</time>
      </trkpt>
      <trkpt lat="44.93164" lon="2.27243">
        <ele>595.19</ele>
        <time>2021-08-16T08:52:36Z</time>
      </trkpt>
      <trkpt lat="44.93182" lon="2.27205">
        <ele>597.12</ele>
        <time>2021-08-16T08:52:47Z</time>
      </trkpt>
      <trkpt lat="44.93199" lon="2.27184">
        <ele>598.56</ele>
        <time>2021-08-16T08:52:56Z</time>
      </trkpt>
      <trkpt lat="44.93215" lon="2.2716">
        <ele>599.04</ele>
        <time>2021-08-16T08:53:04Z</time>
      </trkpt>
      <trkpt lat="44.93226" lon="2.2712">
        <ele>599.04</ele>
        <time>2021-08-16T08:53:12Z</time>
      </trkpt>
      <trkpt lat="44.93229" lon="2.27101">
        <ele>599.04</ele>
        <time>2021-08-16T08:53:15Z</time>
      </trkpt>
      <trkpt lat="44.93237" lon="2.27052">
        <ele>597.6</ele>
        <time>2021-08-16T08:53:22Z</time>
      </trkpt>
      <trkpt lat="44.93249" lon="2.26997">
        <ele>597.12</ele>
        <time>2021-08-16T08:53:30Z</time>
      </trkpt>
      <trkpt lat="44.93259" lon="2.26949">
        <ele>596.64</ele>
        <time>2021-08-16T08:53:38Z</time>
      </trkpt>
      <trkpt lat="44.9326" lon="2.26943">
        <ele>596.64</ele>
        <time>2021-08-16T08:53:39Z</time>
      </trkpt>
      <trkpt lat="44.9326" lon="2.26937">
        <ele>596.64</ele>
        <time>2021-08-16T08:53:40Z</time>
      </trkpt>
      <trkpt lat="44.9326" lon="2.26931">
        <ele>596.64</ele>
        <time>2021-08-16T08:53:41Z</time>
      </trkpt>
      <trkpt lat="44.93259" lon="2.26925">
        <ele>596.64</ele>
        <time>2021-08-16T08:53:42Z</time>
      </trkpt>
      <trkpt lat="44.93258" lon="2.26919">
        <ele>596.64</ele>
        <time>2021-08-16T08:53:43Z</time>
      </trkpt>
      <trkpt lat="44.93257" lon="2.26913">
        <ele>596.64</ele>
        <time>2021-08-16T08:53:44Z</time>
      </trkpt>
      <trkpt lat="44.93255" lon="2.26907">
        <ele>596.64</ele>
        <time>2021-08-16T08:53:45Z</time>
      </trkpt>
      <trkpt lat="44.93253" lon="2.26902">
        <ele>596.64</ele>
        <time>2021-08-16T08:53:46Z</time>
      </trkpt>
      <trkpt lat="44.93251" lon="2.26898">
        <ele>596.64</ele>
        <time>2021-08-16T08:53:47Z</time>
      </trkpt>
      <trkpt lat="44.93244" lon="2.26885">
        <ele>598.08</ele>
        <time>2021-08-16T08:53:50Z</time>
      </trkpt>
      <trkpt lat="44.93223" lon="2.26836">
        <ele>599.04</ele>
        <time>2021-08-16T08:54:01Z</time>
      </trkpt>
      <trkpt lat="44.9321" lon="2.26791">
        <ele>600</ele>
        <time>2021-08-16T08:54:10Z</time>
      </trkpt>
      <trkpt lat="44.93213" lon="2.26762">
        <ele>600</ele>
        <time>2021-08-16T08:54:15Z</time>
      </trkpt>
      <trkpt lat="44.93216" lon="2.2675">
        <ele>600</ele>
        <time>2021-08-16T08:54:17Z</time>
      </trkpt>
      <trkpt lat="44.93226" lon="2.26727">
        <ele>598.56</ele>
        <time>2021-08-16T08:54:21Z</time>
      </trkpt>
      <trkpt lat="44.93229" lon="2.26721">
        <ele>598.56</ele>
        <time>2021-08-16T08:54:22Z</time>
      </trkpt>
      <trkpt lat="44.93239" lon="2.26697">
        <ele>598.08</ele>
        <time>2021-08-16T08:54:26Z</time>
      </trkpt>
      <trkpt lat="44.93241" lon="2.2669">
        <ele>597.6</ele>
        <time>2021-08-16T08:54:27Z</time>
      </trkpt>
      <trkpt lat="44.93251" lon="2.26622">
        <ele>595.67</ele>
        <time>2021-08-16T08:54:35Z</time>
      </trkpt>
      <trkpt lat="44.93245" lon="2.26547">
        <ele>593.75</ele>
        <time>2021-08-16T08:54:43Z</time>
      </trkpt>
      <trkpt lat="44.93244" lon="2.26525">
        <ele>591.83</ele>
        <time>2021-08-16T08:54:45Z</time>
      </trkpt>
      <trkpt lat="44.93244" lon="2.26513">
        <ele>591.83</ele>
        <time>2021-08-16T08:54:46Z</time>
      </trkpt>
      <trkpt lat="44.93249" lon="2.26465">
        <ele>588.95</ele>
        <time>2021-08-16T08:54:50Z</time>
      </trkpt>
      <trkpt lat="44.93261" lon="2.264">
        <ele>586.06</ele>
        <time>2021-08-16T08:54:55Z</time>
      </trkpt>
      <trkpt lat="44.9327" lon="2.26343">
        <ele>582.7</ele>
        <time>2021-08-16T08:54:59Z</time>
      </trkpt>
      <trkpt lat="44.93281" lon="2.2628">
        <ele>578.37</ele>
        <time>2021-08-16T08:55:03Z</time>
      </trkpt>
      <trkpt lat="44.93301" lon="2.26198">
        <ele>575.01</ele>
        <time>2021-08-16T08:55:08Z</time>
      </trkpt>
      <trkpt lat="44.93324" lon="2.26124">
        <ele>571.64</ele>
        <time>2021-08-16T08:55:13Z</time>
      </trkpt>
      <trkpt lat="44.93349" lon="2.26032">
        <ele>567.8</ele>
        <time>2021-08-16T08:55:19Z</time>
      </trkpt>
      <trkpt lat="44.93364" lon="2.25956">
        <ele>566.35</ele>
        <time>2021-08-16T08:55:24Z</time>
      </trkpt>
      <trkpt lat="44.93368" lon="2.25873">
        <ele>564.91</ele>
        <time>2021-08-16T08:55:30Z</time>
      </trkpt>
      <trkpt lat="44.93363" lon="2.25794">
        <ele>565.87</ele>
        <time>2021-08-16T08:55:37Z</time>
      </trkpt>
      <trkpt lat="44.93365" lon="2.2571">
        <ele>564.43</ele>
        <time>2021-08-16T08:55:45Z</time>
      </trkpt>
      <trkpt lat="44.93374" lon="2.25643">
        <ele>562.99</ele>
        <time>2021-08-16T08:55:52Z</time>
      </trkpt>
      <trkpt lat="44.93385" lon="2.25576">
        <ele>561.07</ele>
        <time>2021-08-16T08:56:00Z</time>
      </trkpt>
      <trkpt lat="44.93385" lon="2.25571">
        <ele>561.55</ele>
        <time>2021-08-16T08:56:04Z</time>
      </trkpt>
      <trkpt lat="44.93382" lon="2.25564">
        <ele>560.59</ele>
        <time>2021-08-16T08:56:13Z</time>
      </trkpt>
      <trkpt lat="44.93381" lon="2.25562">
        <ele>560.59</ele>
        <time>2021-08-16T08:56:14Z</time>
      </trkpt>
      <trkpt lat="44.93378" lon="2.2556">
        <ele>560.59</ele>
        <time>2021-08-16T08:56:15Z</time>
      </trkpt>
      <trkpt lat="44.93375" lon="2.25559">
        <ele>560.59</ele>
        <time>2021-08-16T08:56:16Z</time>
      </trkpt>
      <trkpt lat="44.93372" lon="2.25557">
        <ele>560.59</ele>
        <time>2021-08-16T08:56:17Z</time>
      </trkpt>
      <trkpt lat="44.93368" lon="2.25555">
        <ele>560.59</ele>
        <time>2021-08-16T08:56:18Z</time>
      </trkpt>
      <trkpt lat="44.93341" lon="2.25538">
        <ele>560.59</ele>
        <time>2021-08-16T08:56:25Z</time>
      </trkpt>
      <trkpt lat="44.93337" lon="2.25533">
        <ele>560.59</ele>
        <time>2021-08-16T08:56:26Z</time>
      </trkpt>
      <trkpt lat="44.93336" lon="2.2553">
        <ele>560.59</ele>
        <time>2021-08-16T08:56:27Z</time>
      </trkpt>
      <trkpt lat="44.93333" lon="2.25529">
        <ele>560.59</ele>
        <time>2021-08-16T08:56:28Z</time>
      </trkpt>
      <trkpt lat="44.93332" lon="2.25531">
        <ele>560.59</ele>
        <time>2021-08-16T08:56:29Z</time>
      </trkpt>
      <trkpt lat="44.93332" lon="2.25535">
        <ele>560.59</ele>
        <time>2021-08-16T08:56:30Z</time>
      </trkpt>
      <trkpt lat="44.93334" lon="2.25539">
        <ele>560.59</ele>
        <time>2021-08-16T08:56:31Z</time>
      </trkpt>
      <trkpt lat="44.93337" lon="2.25542">
        <ele>560.59</ele>
        <time>2021-08-16T08:56:32Z</time>
      </trkpt>
      <trkpt lat="44.9334" lon="2.25544">
        <ele>560.59</ele>
        <time>2021-08-16T08:56:33Z</time>
      </trkpt>
      <trkpt lat="44.93343" lon="2.25546">
        <ele>560.59</ele>
        <time>2021-08-16T08:56:34Z</time>
      </trkpt>
      <trkpt lat="44.93347" lon="2.25546">
        <ele>560.59</ele>
        <time>2021-08-16T08:56:35Z</time>
      </trkpt>
      <trkpt lat="44.93352" lon="2.25545">
        <ele>560.59</ele>
        <time>2021-08-16T08:56:36Z</time>
      </trkpt>
      <trkpt lat="44.93356" lon="2.25542">
        <ele>560.59</ele>
        <time>2021-08-16T08:56:37Z</time>
      </trkpt>
      <trkpt lat="44.93358" lon="2.25538">
        <ele>560.59</ele>
        <time>2021-08-16T08:56:38Z</time>
      </trkpt>
      <trkpt lat="44.93369" lon="2.25516">
        <ele>562.51</ele>
        <time>2021-08-16T08:56:44Z</time>
      </trkpt>
      <trkpt lat="44.93384" lon="2.25473">
        <ele>563.47</ele>
        <time>2021-08-16T08:56:54Z</time>
      </trkpt>
      <trkpt lat="44.93397" lon="2.25442">
        <ele>563.95</ele>
        <time>2021-08-16T08:57:02Z</time>
      </trkpt>
      <trkpt lat="44.93411" lon="2.25413">
        <ele>563.95</ele>
        <time>2021-08-16T08:57:09Z</time>
      </trkpt>
      <trkpt lat="44.93436" lon="2.2537">
        <ele>562.51</ele>
        <time>2021-08-16T08:57:18Z</time>
      </trkpt>
      <trkpt lat="44.93438" lon="2.25365">
        <ele>562.51</ele>
        <time>2021-08-16T08:57:19Z</time>
      </trkpt>
      <trkpt lat="44.93441" lon="2.25361">
        <ele>562.51</ele>
        <time>2021-08-16T08:57:20Z</time>
      </trkpt>
      <trkpt lat="44.93444" lon="2.25357">
        <ele>562.51</ele>
        <time>2021-08-16T08:57:21Z</time>
      </trkpt>
      <trkpt lat="44.93447" lon="2.25352">
        <ele>562.51</ele>
        <time>2021-08-16T08:57:22Z</time>
      </trkpt>
      <trkpt lat="44.93475" lon="2.25315">
        <ele>560.59</ele>
        <time>2021-08-16T08:57:30Z</time>
      </trkpt>
      <trkpt lat="44.9351" lon="2.25277">
        <ele>558.18</ele>
        <time>2021-08-16T08:57:37Z</time>
      </trkpt>
      <trkpt lat="44.9354" lon="2.2525">
        <ele>555.3</ele>
        <time>2021-08-16T08:57:42Z</time>
      </trkpt>
      <trkpt lat="44.93582" lon="2.25203">
        <ele>552.41</ele>
        <time>2021-08-16T08:57:49Z</time>
      </trkpt>
      <trkpt lat="44.93588" lon="2.25193">
        <ele>551.93</ele>
        <time>2021-08-16T08:57:50Z</time>
      </trkpt>
      <trkpt lat="44.93597" lon="2.25173">
        <ele>550.01</ele>
        <time>2021-08-16T08:57:52Z</time>
      </trkpt>
      <trkpt lat="44.93602" lon="2.25163">
        <ele>550.01</ele>
        <time>2021-08-16T08:57:53Z</time>
      </trkpt>
      <trkpt lat="44.93623" lon="2.25129">
        <ele>549.53</ele>
        <time>2021-08-16T08:57:57Z</time>
      </trkpt>
      <trkpt lat="44.93628" lon="2.25123">
        <ele>549.53</ele>
        <time>2021-08-16T08:57:58Z</time>
      </trkpt>
      <trkpt lat="44.93633" lon="2.25119">
        <ele>549.53</ele>
        <time>2021-08-16T08:57:59Z</time>
      </trkpt>
      <trkpt lat="44.9364" lon="2.25113">
        <ele>550.97</ele>
        <time>2021-08-16T08:58:01Z</time>
      </trkpt>
      <trkpt lat="44.93651" lon="2.25102">
        <ele>552.41</ele>
        <time>2021-08-16T08:58:07Z</time>
      </trkpt>
      <trkpt lat="44.93665" lon="2.25086">
        <ele>552.9</ele>
        <time>2021-08-16T08:58:15Z</time>
      </trkpt>
      <trkpt lat="44.93683" lon="2.25069">
        <ele>553.86</ele>
        <time>2021-08-16T08:58:23Z</time>
      </trkpt>
      <trkpt lat="44.93698" lon="2.25052">
        <ele>554.82</ele>
        <time>2021-08-16T08:58:30Z</time>
      </trkpt>
      <trkpt lat="44.93709" lon="2.25033">
        <ele>555.78</ele>
        <time>2021-08-16T08:58:38Z</time>
      </trkpt>
      <trkpt lat="44.9372" lon="2.25014">
        <ele>557.22</ele>
        <time>2021-08-16T08:58:46Z</time>
      </trkpt>
      <trkpt lat="44.93729" lon="2.25003">
        <ele>557.22</ele>
        <time>2021-08-16T08:58:52Z</time>
      </trkpt>
      <trkpt lat="44.9374" lon="2.2499">
        <ele>558.66</ele>
        <time>2021-08-16T08:59:00Z</time>
      </trkpt>
      <trkpt lat="44.9375" lon="2.24978">
        <ele>559.14</ele>
        <time>2021-08-16T08:59:07Z</time>
      </trkpt>
      <trkpt lat="44.9376" lon="2.24967">
        <ele>559.62</ele>
        <time>2021-08-16T08:59:14Z</time>
      </trkpt>
      <trkpt lat="44.9377" lon="2.24955">
        <ele>560.59</ele>
        <time>2021-08-16T08:59:21Z</time>
      </trkpt>
      <trkpt lat="44.93771" lon="2.24953">
        <ele>560.59</ele>
        <time>2021-08-16T08:59:22Z</time>
      </trkpt>
      <trkpt lat="44.93772" lon="2.24952">
        <ele>560.59</ele>
        <time>2021-08-16T08:59:23Z</time>
      </trkpt>
      <trkpt lat="44.93781" lon="2.2494">
        <ele>561.07</ele>
        <time>2021-08-16T08:59:29Z</time>
      </trkpt>
      <trkpt lat="44.93788" lon="2.24917">
        <ele>562.03</ele>
        <time>2021-08-16T08:59:37Z</time>
      </trkpt>
      <trkpt lat="44.93791" lon="2.24902">
        <ele>563.47</ele>
        <time>2021-08-16T08:59:44Z</time>
      </trkpt>
      <trkpt lat="44.93796" lon="2.24882">
        <ele>564.43</ele>
        <time>2021-08-16T08:59:51Z</time>
      </trkpt>
      <trkpt lat="44.93801" lon="2.24855">
        <ele>564.43</ele>
        <time>2021-08-16T08:59:59Z</time>
      </trkpt>
      <trkpt lat="44.93793" lon="2.24822">
        <ele>565.87</ele>
        <time>2021-08-16T09:00:09Z</time>
      </trkpt>
      <trkpt lat="44.93787" lon="2.24805">
        <ele>566.83</ele>
        <time>2021-08-16T09:00:16Z</time>
      </trkpt>
      <trkpt lat="44.93781" lon="2.24787">
        <ele>568.28</ele>
        <time>2021-08-16T09:00:23Z</time>
      </trkpt>
      <trkpt lat="44.93775" lon="2.24773">
        <ele>569.24</ele>
        <time>2021-08-16T09:00:29Z</time>
      </trkpt>
      <trkpt lat="44.93769" lon="2.24757">
        <ele>570.2</ele>
        <time>2021-08-16T09:00:35Z</time>
      </trkpt>
      <trkpt lat="44.93758" lon="2.24744">
        <ele>571.16</ele>
        <time>2021-08-16T09:00:43Z</time>
      </trkpt>
      <trkpt lat="44.93752" lon="2.24739">
        <ele>572.6</ele>
        <time>2021-08-16T09:00:47Z</time>
      </trkpt>
      <trkpt lat="44.93751" lon="2.24739">
        <ele>572.6</ele>
        <time>2021-08-16T09:00:48Z</time>
      </trkpt>
      <trkpt lat="44.9375" lon="2.24738">
        <ele>572.6</ele>
        <time>2021-08-16T09:00:49Z</time>
      </trkpt>
      <trkpt lat="44.93748" lon="2.24738">
        <ele>572.6</ele>
        <time>2021-08-16T09:00:50Z</time>
      </trkpt>
      <trkpt lat="44.93747" lon="2.24737">
        <ele>573.08</ele>
        <time>2021-08-16T09:00:51Z</time>
      </trkpt>
      <trkpt lat="44.93746" lon="2.24736">
        <ele>573.08</ele>
        <time>2021-08-16T09:00:52Z</time>
      </trkpt>
      <trkpt lat="44.93744" lon="2.24735">
        <ele>573.08</ele>
        <time>2021-08-16T09:00:53Z</time>
      </trkpt>
      <trkpt lat="44.93742" lon="2.24733">
        <ele>573.56</ele>
        <time>2021-08-16T09:00:54Z</time>
      </trkpt>
      <trkpt lat="44.93741" lon="2.24731">
        <ele>574.04</ele>
        <time>2021-08-16T09:00:55Z</time>
      </trkpt>
      <trkpt lat="44.9374" lon="2.24729">
        <ele>574.04</ele>
        <time>2021-08-16T09:00:56Z</time>
      </trkpt>
      <trkpt lat="44.9374" lon="2.24726">
        <ele>574.04</ele>
        <time>2021-08-16T09:00:57Z</time>
      </trkpt>
      <trkpt lat="44.93739" lon="2.24724">
        <ele>574.04</ele>
        <time>2021-08-16T09:00:58Z</time>
      </trkpt>
      <trkpt lat="44.93739" lon="2.24722">
        <ele>574.04</ele>
        <time>2021-08-16T09:00:59Z</time>
      </trkpt>
      <trkpt lat="44.9374" lon="2.24719">
        <ele>574.04</ele>
        <time>2021-08-16T09:01:00Z</time>
      </trkpt>
      <trkpt lat="44.93739" lon="2.24717">
        <ele>574.53</ele>
        <time>2021-08-16T09:01:01Z</time>
      </trkpt>
      <trkpt lat="44.93739" lon="2.24715">
        <ele>574.53</ele>
        <time>2021-08-16T09:01:02Z</time>
      </trkpt>
      <trkpt lat="44.93739" lon="2.24712">
        <ele>574.53</ele>
        <time>2021-08-16T09:01:03Z</time>
      </trkpt>
      <trkpt lat="44.93739" lon="2.2471">
        <ele>574.53</ele>
        <time>2021-08-16T09:01:04Z</time>
      </trkpt>
      <trkpt lat="44.93738" lon="2.24688">
        <ele>575.01</ele>
        <time>2021-08-16T09:01:11Z</time>
      </trkpt>
      <trkpt lat="44.93739" lon="2.24658">
        <ele>575.49</ele>
        <time>2021-08-16T09:01:20Z</time>
      </trkpt>
      <trkpt lat="44.93735" lon="2.24641">
        <ele>576.93</ele>
        <time>2021-08-16T09:01:27Z</time>
      </trkpt>
      <trkpt lat="44.93722" lon="2.2463">
        <ele>577.89</ele>
        <time>2021-08-16T09:01:34Z</time>
      </trkpt>
      <trkpt lat="44.93706" lon="2.24621">
        <ele>577.89</ele>
        <time>2021-08-16T09:01:42Z</time>
      </trkpt>
      <trkpt lat="44.93699" lon="2.24606">
        <ele>579.33</ele>
        <time>2021-08-16T09:01:48Z</time>
      </trkpt>
      <trkpt lat="44.93699" lon="2.24604">
        <ele>579.33</ele>
        <time>2021-08-16T09:01:49Z</time>
      </trkpt>
      <trkpt lat="44.937" lon="2.24602">
        <ele>579.33</ele>
        <time>2021-08-16T09:01:50Z</time>
      </trkpt>
      <trkpt lat="44.93701" lon="2.24601">
        <ele>579.33</ele>
        <time>2021-08-16T09:01:51Z</time>
      </trkpt>
      <trkpt lat="44.93703" lon="2.24599">
        <ele>579.33</ele>
        <time>2021-08-16T09:01:52Z</time>
      </trkpt>
      <trkpt lat="44.93718" lon="2.24593">
        <ele>580.29</ele>
        <time>2021-08-16T09:01:59Z</time>
      </trkpt>
      <trkpt lat="44.93738" lon="2.24586">
        <ele>581.25</ele>
        <time>2021-08-16T09:02:06Z</time>
      </trkpt>
      <trkpt lat="44.93765" lon="2.24576">
        <ele>581.25</ele>
        <time>2021-08-16T09:02:15Z</time>
      </trkpt>
      <trkpt lat="44.93782" lon="2.24563">
        <ele>582.22</ele>
        <time>2021-08-16T09:02:22Z</time>
      </trkpt>
      <trkpt lat="44.93785" lon="2.24557">
        <ele>582.7</ele>
        <time>2021-08-16T09:02:25Z</time>
      </trkpt>
      <trkpt lat="44.93786" lon="2.24556">
        <ele>582.7</ele>
        <time>2021-08-16T09:02:26Z</time>
      </trkpt>
      <trkpt lat="44.93789" lon="2.2455">
        <ele>583.18</ele>
        <time>2021-08-16T09:02:29Z</time>
      </trkpt>
      <trkpt lat="44.93796" lon="2.24523">
        <ele>584.62</ele>
        <time>2021-08-16T09:02:39Z</time>
      </trkpt>
      <trkpt lat="44.93807" lon="2.24498">
        <ele>585.58</ele>
        <time>2021-08-16T09:02:50Z</time>
      </trkpt>
      <trkpt lat="44.93811" lon="2.2448">
        <ele>587.02</ele>
        <time>2021-08-16T09:02:58Z</time>
      </trkpt>
      <trkpt lat="44.93808" lon="2.24471">
        <ele>588.46</ele>
        <time>2021-08-16T09:03:04Z</time>
      </trkpt>
      <trkpt lat="44.93802" lon="2.24458">
        <ele>589.43</ele>
        <time>2021-08-16T09:03:12Z</time>
      </trkpt>
      <trkpt lat="44.93793" lon="2.24443">
        <ele>591.35</ele>
        <time>2021-08-16T09:03:22Z</time>
      </trkpt>
      <trkpt lat="44.93785" lon="2.24428">
        <ele>593.27</ele>
        <time>2021-08-16T09:03:32Z</time>
      </trkpt>
      <trkpt lat="44.93776" lon="2.2441">
        <ele>594.71</ele>
        <time>2021-08-16T09:03:42Z</time>
      </trkpt>
      <trkpt lat="44.93766" lon="2.24393">
        <ele>595.19</ele>
        <time>2021-08-16T09:03:51Z</time>
      </trkpt>
      <trkpt lat="44.93754" lon="2.24371">
        <ele>596.15</ele>
        <time>2021-08-16T09:04:00Z</time>
      </trkpt>
      <trkpt lat="44.93742" lon="2.24351">
        <ele>597.12</ele>
        <time>2021-08-16T09:04:09Z</time>
      </trkpt>
      <trkpt lat="44.93737" lon="2.2434">
        <ele>597.6</ele>
        <time>2021-08-16T09:04:14Z</time>
      </trkpt>
      <trkpt lat="44.93737" lon="2.24338">
        <ele>598.08</ele>
        <time>2021-08-16T09:04:15Z</time>
      </trkpt>
      <trkpt lat="44.93738" lon="2.24337">
        <ele>598.08</ele>
        <time>2021-08-16T09:04:16Z</time>
      </trkpt>
      <trkpt lat="44.9374" lon="2.24337">
        <ele>598.08</ele>
        <time>2021-08-16T09:04:17Z</time>
      </trkpt>
      <trkpt lat="44.93742" lon="2.24336">
        <ele>598.08</ele>
        <time>2021-08-16T09:04:18Z</time>
      </trkpt>
      <trkpt lat="44.93744" lon="2.24337">
        <ele>598.08</ele>
        <time>2021-08-16T09:04:19Z</time>
      </trkpt>
      <trkpt lat="44.93747" lon="2.24336">
        <ele>598.08</ele>
        <time>2021-08-16T09:04:20Z</time>
      </trkpt>
      <trkpt lat="44.9375" lon="2.24336">
        <ele>598.08</ele>
        <time>2021-08-16T09:04:21Z</time>
      </trkpt>
      <trkpt lat="44.93754" lon="2.24337">
        <ele>598.08</ele>
        <time>2021-08-16T09:04:22Z</time>
      </trkpt>
      <trkpt lat="44.93773" lon="2.24339">
        <ele>595.67</ele>
        <time>2021-08-16T09:04:26Z</time>
      </trkpt>
      <trkpt lat="44.93823" lon="2.24339">
        <ele>594.71</ele>
        <time>2021-08-16T09:04:35Z</time>
      </trkpt>
      <trkpt lat="44.93831" lon="2.24336">
        <ele>594.71</ele>
        <time>2021-08-16T09:04:37Z</time>
      </trkpt>
      <trkpt lat="44.93869" lon="2.24329">
        <ele>594.71</ele>
        <time>2021-08-16T09:04:46Z</time>
      </trkpt>
      <trkpt lat="44.9389" lon="2.24326">
        <ele>595.67</ele>
        <time>2021-08-16T09:04:51Z</time>
      </trkpt>
      <trkpt lat="44.93926" lon="2.2432">
        <ele>596.15</ele>
        <time>2021-08-16T09:05:00Z</time>
      </trkpt>
      <trkpt lat="44.93962" lon="2.24312">
        <ele>596.64</ele>
        <time>2021-08-16T09:05:10Z</time>
      </trkpt>
      <trkpt lat="44.93986" lon="2.24313">
        <ele>597.12</ele>
        <time>2021-08-16T09:05:17Z</time>
      </trkpt>
      <trkpt lat="44.93999" lon="2.24332">
        <ele>595.19</ele>
        <time>2021-08-16T09:05:21Z</time>
      </trkpt>
      <trkpt lat="44.94003" lon="2.24338">
        <ele>594.23</ele>
        <time>2021-08-16T09:05:22Z</time>
      </trkpt>
      <trkpt lat="44.94008" lon="2.24342">
        <ele>593.75</ele>
        <time>2021-08-16T09:05:23Z</time>
      </trkpt>
      <trkpt lat="44.94013" lon="2.24345">
        <ele>593.27</ele>
        <time>2021-08-16T09:05:24Z</time>
      </trkpt>
      <trkpt lat="44.94031" lon="2.24349">
        <ele>592.79</ele>
        <time>2021-08-16T09:05:29Z</time>
      </trkpt>
      <trkpt lat="44.94056" lon="2.24333">
        <ele>594.23</ele>
        <time>2021-08-16T09:05:37Z</time>
      </trkpt>
      <trkpt lat="44.94084" lon="2.24317">
        <ele>594.71</ele>
        <time>2021-08-16T09:05:45Z</time>
      </trkpt>
      <trkpt lat="44.94126" lon="2.24291">
        <ele>594.71</ele>
        <time>2021-08-16T09:05:56Z</time>
      </trkpt>
      <trkpt lat="44.94159" lon="2.24271">
        <ele>593.27</ele>
        <time>2021-08-16T09:06:03Z</time>
      </trkpt>
      <trkpt lat="44.94209" lon="2.24237">
        <ele>590.87</ele>
        <time>2021-08-16T09:06:12Z</time>
      </trkpt>
      <trkpt lat="44.94247" lon="2.24189">
        <ele>588.46</ele>
        <time>2021-08-16T09:06:20Z</time>
      </trkpt>
      <trkpt lat="44.94261" lon="2.24169">
        <ele>588.46</ele>
        <time>2021-08-16T09:06:23Z</time>
      </trkpt>
      <trkpt lat="44.94295" lon="2.24118">
        <ele>587.02</ele>
        <time>2021-08-16T09:06:31Z</time>
      </trkpt>
      <trkpt lat="44.94343" lon="2.24038">
        <ele>585.1</ele>
        <time>2021-08-16T09:06:42Z</time>
      </trkpt>
      <trkpt lat="44.94403" lon="2.23943">
        <ele>582.7</ele>
        <time>2021-08-16T09:06:55Z</time>
      </trkpt>
      <trkpt lat="44.94442" lon="2.23872">
        <ele>580.77</ele>
        <time>2021-08-16T09:07:04Z</time>
      </trkpt>
      <trkpt lat="44.94461" lon="2.23838">
        <ele>580.29</ele>
        <time>2021-08-16T09:07:09Z</time>
      </trkpt>
      <trkpt lat="44.94466" lon="2.23832">
        <ele>580.29</ele>
        <time>2021-08-16T09:07:10Z</time>
      </trkpt>
      <trkpt lat="44.94472" lon="2.23826">
        <ele>580.29</ele>
        <time>2021-08-16T09:07:11Z</time>
      </trkpt>
      <trkpt lat="44.94475" lon="2.23823">
        <ele>580.29</ele>
        <time>2021-08-16T09:07:12Z</time>
      </trkpt>
      <trkpt lat="44.9448" lon="2.23818">
        <ele>580.29</ele>
        <time>2021-08-16T09:07:13Z</time>
      </trkpt>
      <trkpt lat="44.94513" lon="2.23785">
        <ele>580.29</ele>
        <time>2021-08-16T09:07:21Z</time>
      </trkpt>
      <trkpt lat="44.94543" lon="2.23755">
        <ele>580.77</ele>
        <time>2021-08-16T09:07:29Z</time>
      </trkpt>
      <trkpt lat="44.94577" lon="2.23719">
        <ele>580.77</ele>
        <time>2021-08-16T09:07:39Z</time>
      </trkpt>
      <trkpt lat="44.94598" lon="2.23696">
        <ele>581.73</ele>
        <time>2021-08-16T09:07:46Z</time>
      </trkpt>
      <trkpt lat="44.94619" lon="2.23674">
        <ele>582.7</ele>
        <time>2021-08-16T09:07:54Z</time>
      </trkpt>
      <trkpt lat="44.94635" lon="2.23655">
        <ele>583.66</ele>
        <time>2021-08-16T09:08:01Z</time>
      </trkpt>
      <trkpt lat="44.94651" lon="2.23626">
        <ele>583.66</ele>
        <time>2021-08-16T09:08:08Z</time>
      </trkpt>
      <trkpt lat="44.94653" lon="2.2362">
        <ele>583.66</ele>
        <time>2021-08-16T09:08:09Z</time>
      </trkpt>
      <trkpt lat="44.94655" lon="2.23614">
        <ele>583.66</ele>
        <time>2021-08-16T09:08:10Z</time>
      </trkpt>
      <trkpt lat="44.94658" lon="2.236">
        <ele>582.22</ele>
        <time>2021-08-16T09:08:12Z</time>
      </trkpt>
      <trkpt lat="44.94659" lon="2.23593">
        <ele>581.25</ele>
        <time>2021-08-16T09:08:13Z</time>
      </trkpt>
      <trkpt lat="44.94661" lon="2.23541">
        <ele>580.29</ele>
        <time>2021-08-16T09:08:20Z</time>
      </trkpt>
      <trkpt lat="44.94662" lon="2.23536">
        <ele>580.29</ele>
        <time>2021-08-16T09:08:21Z</time>
      </trkpt>
      <trkpt lat="44.94664" lon="2.23529">
        <ele>580.29</ele>
        <time>2021-08-16T09:08:22Z</time>
      </trkpt>
      <trkpt lat="44.94672" lon="2.23497">
        <ele>580.29</ele>
        <time>2021-08-16T09:08:28Z</time>
      </trkpt>
      <trkpt lat="44.9468" lon="2.23475">
        <ele>580.29</ele>
        <time>2021-08-16T09:08:32Z</time>
      </trkpt>
      <trkpt lat="44.94683" lon="2.23469">
        <ele>580.29</ele>
        <time>2021-08-16T09:08:33Z</time>
      </trkpt>
      <trkpt lat="44.94699" lon="2.2344">
        <ele>580.29</ele>
        <time>2021-08-16T09:08:39Z</time>
      </trkpt>
      <trkpt lat="44.94703" lon="2.23435">
        <ele>580.29</ele>
        <time>2021-08-16T09:08:40Z</time>
      </trkpt>
      <trkpt lat="44.94706" lon="2.23431">
        <ele>580.29</ele>
        <time>2021-08-16T09:08:41Z</time>
      </trkpt>
      <trkpt lat="44.94709" lon="2.23427">
        <ele>580.29</ele>
        <time>2021-08-16T09:08:42Z</time>
      </trkpt>
      <trkpt lat="44.94711" lon="2.23422">
        <ele>580.29</ele>
        <time>2021-08-16T09:08:43Z</time>
      </trkpt>
      <trkpt lat="44.94714" lon="2.23417">
        <ele>580.29</ele>
        <time>2021-08-16T09:08:44Z</time>
      </trkpt>
      <trkpt lat="44.94719" lon="2.23408">
        <ele>580.29</ele>
        <time>2021-08-16T09:08:46Z</time>
      </trkpt>
      <trkpt lat="44.94721" lon="2.23403">
        <ele>580.29</ele>
        <time>2021-08-16T09:08:47Z</time>
      </trkpt>
      <trkpt lat="44.94724" lon="2.23398">
        <ele>580.29</ele>
        <time>2021-08-16T09:08:48Z</time>
      </trkpt>
      <trkpt lat="44.94727" lon="2.23394">
        <ele>581.25</ele>
        <time>2021-08-16T09:08:49Z</time>
      </trkpt>
      <trkpt lat="44.9473" lon="2.23389">
        <ele>581.25</ele>
        <time>2021-08-16T09:08:50Z</time>
      </trkpt>
      <trkpt lat="44.94733" lon="2.23386">
        <ele>581.25</ele>
        <time>2021-08-16T09:08:51Z</time>
      </trkpt>
      <trkpt lat="44.94761" lon="2.23354">
        <ele>581.73</ele>
        <time>2021-08-16T09:09:01Z</time>
      </trkpt>
      <trkpt lat="44.9479" lon="2.23322">
        <ele>580.29</ele>
        <time>2021-08-16T09:09:10Z</time>
      </trkpt>
      <trkpt lat="44.94793" lon="2.23318">
        <ele>580.29</ele>
        <time>2021-08-16T09:09:11Z</time>
      </trkpt>
      <trkpt lat="44.94796" lon="2.23314">
        <ele>580.29</ele>
        <time>2021-08-16T09:09:12Z</time>
      </trkpt>
      <trkpt lat="44.94826" lon="2.23277">
        <ele>579.33</ele>
        <time>2021-08-16T09:09:20Z</time>
      </trkpt>
      <trkpt lat="44.94839" lon="2.23265">
        <ele>577.89</ele>
        <time>2021-08-16T09:09:23Z</time>
      </trkpt>
      <trkpt lat="44.9488" lon="2.23231">
        <ele>575.49</ele>
        <time>2021-08-16T09:09:32Z</time>
      </trkpt>
      <trkpt lat="44.94908" lon="2.23193">
        <ele>574.53</ele>
        <time>2021-08-16T09:09:39Z</time>
      </trkpt>
      <trkpt lat="44.94912" lon="2.23187">
        <ele>574.53</ele>
        <time>2021-08-16T09:09:40Z</time>
      </trkpt>
      <trkpt lat="44.94916" lon="2.23182">
        <ele>574.53</ele>
        <time>2021-08-16T09:09:41Z</time>
      </trkpt>
      <trkpt lat="44.94936" lon="2.23141">
        <ele>574.53</ele>
        <time>2021-08-16T09:09:48Z</time>
      </trkpt>
      <trkpt lat="44.94943" lon="2.23131">
        <ele>575.01</ele>
        <time>2021-08-16T09:09:50Z</time>
      </trkpt>
      <trkpt lat="44.94946" lon="2.23127">
        <ele>575.01</ele>
        <time>2021-08-16T09:09:51Z</time>
      </trkpt>
      <trkpt lat="44.9495" lon="2.23124">
        <ele>575.01</ele>
        <time>2021-08-16T09:09:52Z</time>
      </trkpt>
      <trkpt lat="44.94953" lon="2.23121">
        <ele>575.01</ele>
        <time>2021-08-16T09:09:53Z</time>
      </trkpt>
      <trkpt lat="44.94957" lon="2.23118">
        <ele>575.97</ele>
        <time>2021-08-16T09:09:54Z</time>
      </trkpt>
      <trkpt lat="44.94984" lon="2.23101">
        <ele>577.41</ele>
        <time>2021-08-16T09:10:02Z</time>
      </trkpt>
      <trkpt lat="44.95004" lon="2.23084">
        <ele>577.89</ele>
        <time>2021-08-16T09:10:09Z</time>
      </trkpt>
      <trkpt lat="44.9503" lon="2.23057">
        <ele>577.41</ele>
        <time>2021-08-16T09:10:17Z</time>
      </trkpt>
      <trkpt lat="44.95034" lon="2.23053">
        <ele>577.41</ele>
        <time>2021-08-16T09:10:18Z</time>
      </trkpt>
      <trkpt lat="44.9504" lon="2.23044">
        <ele>576.45</ele>
        <time>2021-08-16T09:10:20Z</time>
      </trkpt>
      <trkpt lat="44.95051" lon="2.23022">
        <ele>575.49</ele>
        <time>2021-08-16T09:10:24Z</time>
      </trkpt>
      <trkpt lat="44.95053" lon="2.23015">
        <ele>575.49</ele>
        <time>2021-08-16T09:10:25Z</time>
      </trkpt>
      <trkpt lat="44.95054" lon="2.23007">
        <ele>574.53</ele>
        <time>2021-08-16T09:10:26Z</time>
      </trkpt>
      <trkpt lat="44.95055" lon="2.22998">
        <ele>573.56</ele>
        <time>2021-08-16T09:10:27Z</time>
      </trkpt>
      <trkpt lat="44.95054" lon="2.22989">
        <ele>573.08</ele>
        <time>2021-08-16T09:10:28Z</time>
      </trkpt>
      <trkpt lat="44.95053" lon="2.2298">
        <ele>573.08</ele>
        <time>2021-08-16T09:10:29Z</time>
      </trkpt>
      <trkpt lat="44.95052" lon="2.22971">
        <ele>572.6</ele>
        <time>2021-08-16T09:10:30Z</time>
      </trkpt>
      <trkpt lat="44.95049" lon="2.22943">
        <ele>571.16</ele>
        <time>2021-08-16T09:10:33Z</time>
      </trkpt>
      <trkpt lat="44.95049" lon="2.22933">
        <ele>571.16</ele>
        <time>2021-08-16T09:10:34Z</time>
      </trkpt>
      <trkpt lat="44.9505" lon="2.22923">
        <ele>570.2</ele>
        <time>2021-08-16T09:10:35Z</time>
      </trkpt>
      <trkpt lat="44.95052" lon="2.22914">
        <ele>569.24</ele>
        <time>2021-08-16T09:10:36Z</time>
      </trkpt>
      <trkpt lat="44.95055" lon="2.22905">
        <ele>569.24</ele>
        <time>2021-08-16T09:10:37Z</time>
      </trkpt>
      <trkpt lat="44.95059" lon="2.22897">
        <ele>569.24</ele>
        <time>2021-08-16T09:10:38Z</time>
      </trkpt>
      <trkpt lat="44.95064" lon="2.2289">
        <ele>568.28</ele>
        <time>2021-08-16T09:10:39Z</time>
      </trkpt>
      <trkpt lat="44.95071" lon="2.22884">
        <ele>567.8</ele>
        <time>2021-08-16T09:10:40Z</time>
      </trkpt>
      <trkpt lat="44.95078" lon="2.22879">
        <ele>566.83</ele>
        <time>2021-08-16T09:10:41Z</time>
      </trkpt>
      <trkpt lat="44.95098" lon="2.22863">
        <ele>563.95</ele>
        <time>2021-08-16T09:10:44Z</time>
      </trkpt>
      <trkpt lat="44.95103" lon="2.22855">
        <ele>563.95</ele>
        <time>2021-08-16T09:10:45Z</time>
      </trkpt>
      <trkpt lat="44.95107" lon="2.22847">
        <ele>563.95</ele>
        <time>2021-08-16T09:10:46Z</time>
      </trkpt>
      <trkpt lat="44.9511" lon="2.22837">
        <ele>562.99</ele>
        <time>2021-08-16T09:10:47Z</time>
      </trkpt>
      <trkpt lat="44.95112" lon="2.22826">
        <ele>562.03</ele>
        <time>2021-08-16T09:10:48Z</time>
      </trkpt>
      <trkpt lat="44.95113" lon="2.22816">
        <ele>562.03</ele>
        <time>2021-08-16T09:10:49Z</time>
      </trkpt>
      <trkpt lat="44.95114" lon="2.22805">
        <ele>561.55</ele>
        <time>2021-08-16T09:10:50Z</time>
      </trkpt>
      <trkpt lat="44.95114" lon="2.22794">
        <ele>561.07</ele>
        <time>2021-08-16T09:10:51Z</time>
      </trkpt>
      <trkpt lat="44.95113" lon="2.22784">
        <ele>561.07</ele>
        <time>2021-08-16T09:10:52Z</time>
      </trkpt>
      <trkpt lat="44.95112" lon="2.22773">
        <ele>560.11</ele>
        <time>2021-08-16T09:10:53Z</time>
      </trkpt>
      <trkpt lat="44.9511" lon="2.22762">
        <ele>560.11</ele>
        <time>2021-08-16T09:10:54Z</time>
      </trkpt>
      <trkpt lat="44.95107" lon="2.22753">
        <ele>559.62</ele>
        <time>2021-08-16T09:10:55Z</time>
      </trkpt>
      <trkpt lat="44.95103" lon="2.22743">
        <ele>559.62</ele>
        <time>2021-08-16T09:10:56Z</time>
      </trkpt>
      <trkpt lat="44.95099" lon="2.22735">
        <ele>559.62</ele>
        <time>2021-08-16T09:10:57Z</time>
      </trkpt>
      <trkpt lat="44.95093" lon="2.22726">
        <ele>559.14</ele>
        <time>2021-08-16T09:10:58Z</time>
      </trkpt>
      <trkpt lat="44.95088" lon="2.22718">
        <ele>558.66</ele>
        <time>2021-08-16T09:10:59Z</time>
      </trkpt>
      <trkpt lat="44.95044" lon="2.2265">
        <ele>556.26</ele>
        <time>2021-08-16T09:11:08Z</time>
      </trkpt>
      <trkpt lat="44.95009" lon="2.22602">
        <ele>554.34</ele>
        <time>2021-08-16T09:11:14Z</time>
      </trkpt>
      <trkpt lat="44.95003" lon="2.22596">
        <ele>553.86</ele>
        <time>2021-08-16T09:11:15Z</time>
      </trkpt>
      <trkpt lat="44.94988" lon="2.22584">
        <ele>552.9</ele>
        <time>2021-08-16T09:11:17Z</time>
      </trkpt>
      <trkpt lat="44.9498" lon="2.22581">
        <ele>552.41</ele>
        <time>2021-08-16T09:11:18Z</time>
      </trkpt>
      <trkpt lat="44.94972" lon="2.22579">
        <ele>552.41</ele>
        <time>2021-08-16T09:11:19Z</time>
      </trkpt>
      <trkpt lat="44.94964" lon="2.2258">
        <ele>551.93</ele>
        <time>2021-08-16T09:11:20Z</time>
      </trkpt>
      <trkpt lat="44.94955" lon="2.22582">
        <ele>551.45</ele>
        <time>2021-08-16T09:11:21Z</time>
      </trkpt>
      <trkpt lat="44.94948" lon="2.22584">
        <ele>551.45</ele>
        <time>2021-08-16T09:11:22Z</time>
      </trkpt>
      <trkpt lat="44.9494" lon="2.22584">
        <ele>550.97</ele>
        <time>2021-08-16T09:11:23Z</time>
      </trkpt>
      <trkpt lat="44.94932" lon="2.22583">
        <ele>550.97</ele>
        <time>2021-08-16T09:11:24Z</time>
      </trkpt>
      <trkpt lat="44.94925" lon="2.22579">
        <ele>550.97</ele>
        <time>2021-08-16T09:11:25Z</time>
      </trkpt>
      <trkpt lat="44.94919" lon="2.22574">
        <ele>550.97</ele>
        <time>2021-08-16T09:11:26Z</time>
      </trkpt>
      <trkpt lat="44.94915" lon="2.22567">
        <ele>550.97</ele>
        <time>2021-08-16T09:11:27Z</time>
      </trkpt>
      <trkpt lat="44.94911" lon="2.22559">
        <ele>550.97</ele>
        <time>2021-08-16T09:11:28Z</time>
      </trkpt>
      <trkpt lat="44.94909" lon="2.22552">
        <ele>550.97</ele>
        <time>2021-08-16T09:11:29Z</time>
      </trkpt>
      <trkpt lat="44.94902" lon="2.22535">
        <ele>550.97</ele>
        <time>2021-08-16T09:11:32Z</time>
      </trkpt>
      <trkpt lat="44.94899" lon="2.2253">
        <ele>550.97</ele>
        <time>2021-08-16T09:11:33Z</time>
      </trkpt>
      <trkpt lat="44.94895" lon="2.22527">
        <ele>550.97</ele>
        <time>2021-08-16T09:11:34Z</time>
      </trkpt>
      <trkpt lat="44.94876" lon="2.22512">
        <ele>550.97</ele>
        <time>2021-08-16T09:11:40Z</time>
      </trkpt>
      <trkpt lat="44.94873" lon="2.22513">
        <ele>550.97</ele>
        <time>2021-08-16T09:11:41Z</time>
      </trkpt>
      <trkpt lat="44.9487" lon="2.22519">
        <ele>552.9</ele>
        <time>2021-08-16T09:11:43Z</time>
      </trkpt>
      <trkpt lat="44.94871" lon="2.22522">
        <ele>552.9</ele>
        <time>2021-08-16T09:11:44Z</time>
      </trkpt>
      <trkpt lat="44.94872" lon="2.22524">
        <ele>552.9</ele>
        <time>2021-08-16T09:11:45Z</time>
      </trkpt>
      <trkpt lat="44.94873" lon="2.22526">
        <ele>552.9</ele>
        <time>2021-08-16T09:11:46Z</time>
      </trkpt>
      <trkpt lat="44.94876" lon="2.2253">
        <ele>553.38</ele>
        <time>2021-08-16T09:11:53Z</time>
      </trkpt>
      <trkpt lat="44.94877" lon="2.22531">
        <ele>553.86</ele>
        <time>2021-08-16T09:12:07Z</time>
      </trkpt>
      <trkpt lat="44.94877" lon="2.22532">
        <ele>553.86</ele>
        <time>2021-08-16T09:12:28Z</time>
      </trkpt>
      <trkpt lat="44.94877" lon="2.22533">
        <ele>553.86</ele>
        <time>2021-08-16T09:12:47Z</time>
      </trkpt>
      <trkpt lat="44.94878" lon="2.22534">
        <ele>553.86</ele>
        <time>2021-08-16T09:13:05Z</time>
      </trkpt>
      <trkpt lat="44.94877" lon="2.22534">
        <ele>553.86</ele>
        <time>2021-08-16T09:13:22Z</time>
      </trkpt>
      <trkpt lat="44.94876" lon="2.22533">
        <ele>553.86</ele>
        <time>2021-08-16T09:13:37Z</time>
      </trkpt>
      <trkpt lat="44.94876" lon="2.22533">
        <ele>553.86</ele>
        <time>2021-08-16T09:13:52Z</time>
      </trkpt>
      <trkpt lat="44.94876" lon="2.22533">
        <ele>553.86</ele>
        <time>2021-08-16T09:14:05Z</time>
      </trkpt>
      <trkpt lat="44.94875" lon="2.22529">
        <ele>553.86</ele>
        <time>2021-08-16T09:14:11Z</time>
      </trkpt>
      <trkpt lat="44.94872" lon="2.22514">
        <ele>553.86</ele>
        <time>2021-08-16T09:14:17Z</time>
      </trkpt>
      <trkpt lat="44.94864" lon="2.22492">
        <ele>552.9</ele>
        <time>2021-08-16T09:14:22Z</time>
      </trkpt>
      <trkpt lat="44.94848" lon="2.22464">
        <ele>552.9</ele>
        <time>2021-08-16T09:14:29Z</time>
      </trkpt>
      <trkpt lat="44.94842" lon="2.22454">
        <ele>552.41</ele>
        <time>2021-08-16T09:14:31Z</time>
      </trkpt>
      <trkpt lat="44.94838" lon="2.22449">
        <ele>552.41</ele>
        <time>2021-08-16T09:14:32Z</time>
      </trkpt>
      <trkpt lat="44.94834" lon="2.22445">
        <ele>552.41</ele>
        <time>2021-08-16T09:14:33Z</time>
      </trkpt>
      <trkpt lat="44.94816" lon="2.22427">
        <ele>553.86</ele>
        <time>2021-08-16T09:14:38Z</time>
      </trkpt>
      <trkpt lat="44.94785" lon="2.22416">
        <ele>553.86</ele>
        <time>2021-08-16T09:14:47Z</time>
      </trkpt>
      <trkpt lat="44.94775" lon="2.22415">
        <ele>552.9</ele>
        <time>2021-08-16T09:14:49Z</time>
      </trkpt>
      <trkpt lat="44.94769" lon="2.22413">
        <ele>552.41</ele>
        <time>2021-08-16T09:14:50Z</time>
      </trkpt>
      <trkpt lat="44.94763" lon="2.2241">
        <ele>551.45</ele>
        <time>2021-08-16T09:14:51Z</time>
      </trkpt>
      <trkpt lat="44.94757" lon="2.22405">
        <ele>550.97</ele>
        <time>2021-08-16T09:14:52Z</time>
      </trkpt>
      <trkpt lat="44.94751" lon="2.224">
        <ele>550.01</ele>
        <time>2021-08-16T09:14:53Z</time>
      </trkpt>
      <trkpt lat="44.94746" lon="2.22394">
        <ele>549.05</ele>
        <time>2021-08-16T09:14:54Z</time>
      </trkpt>
      <trkpt lat="44.94726" lon="2.22379">
        <ele>546.17</ele>
        <time>2021-08-16T09:14:58Z</time>
      </trkpt>
      <trkpt lat="44.9471" lon="2.22364">
        <ele>544.72</ele>
        <time>2021-08-16T09:15:03Z</time>
      </trkpt>
      <trkpt lat="44.94702" lon="2.22359">
        <ele>544.24</ele>
        <time>2021-08-16T09:15:05Z</time>
      </trkpt>
      <trkpt lat="44.94697" lon="2.22358">
        <ele>544.24</ele>
        <time>2021-08-16T09:15:06Z</time>
      </trkpt>
      <trkpt lat="44.94651" lon="2.22357">
        <ele>543.28</ele>
        <time>2021-08-16T09:15:14Z</time>
      </trkpt>
      <trkpt lat="44.94639" lon="2.22357">
        <ele>543.28</ele>
        <time>2021-08-16T09:15:17Z</time>
      </trkpt>
      <trkpt lat="44.94638" lon="2.22366">
        <ele>542.8</ele>
        <time>2021-08-16T09:15:22Z</time>
      </trkpt>
      <trkpt lat="44.94642" lon="2.22368">
        <ele>542.32</ele>
        <time>2021-08-16T09:15:28Z</time>
      </trkpt>
      <trkpt lat="44.94643" lon="2.22369">
        <ele>541.84</ele>
        <time>2021-08-16T09:15:34Z</time>
      </trkpt>
      <trkpt lat="44.94644" lon="2.22368">
        <ele>541.84</ele>
        <time>2021-08-16T09:15:36Z</time>
      </trkpt>
      <trkpt lat="44.94643" lon="2.22367">
        <ele>541.84</ele>
        <time>2021-08-16T09:15:38Z</time>
      </trkpt>
      <trkpt lat="44.94638" lon="2.22367">
        <ele>541.84</ele>
        <time>2021-08-16T09:15:42Z</time>
      </trkpt>
      <trkpt lat="44.94632" lon="2.2236">
        <ele>542.8</ele>
        <time>2021-08-16T09:15:52Z</time>
      </trkpt>
      <trkpt lat="44.94626" lon="2.2236">
        <ele>542.8</ele>
        <time>2021-08-16T09:15:56Z</time>
      </trkpt>
      <trkpt lat="44.94606" lon="2.22364">
        <ele>543.76</ele>
        <time>2021-08-16T09:16:04Z</time>
      </trkpt>
      <trkpt lat="44.94579" lon="2.2237">
        <ele>543.76</ele>
        <time>2021-08-16T09:16:12Z</time>
      </trkpt>
      <trkpt lat="44.94557" lon="2.22375">
        <ele>543.76</ele>
        <time>2021-08-16T09:16:17Z</time>
      </trkpt>
      <trkpt lat="44.94553" lon="2.22375">
        <ele>543.76</ele>
        <time>2021-08-16T09:16:18Z</time>
      </trkpt>
      <trkpt lat="44.94549" lon="2.22375">
        <ele>543.76</ele>
        <time>2021-08-16T09:16:19Z</time>
      </trkpt>
      <trkpt lat="44.94545" lon="2.22374">
        <ele>543.76</ele>
        <time>2021-08-16T09:16:20Z</time>
      </trkpt>
      <trkpt lat="44.9454" lon="2.22373">
        <ele>543.76</ele>
        <time>2021-08-16T09:16:21Z</time>
      </trkpt>
      <trkpt lat="44.94536" lon="2.22372">
        <ele>543.76</ele>
        <time>2021-08-16T09:16:22Z</time>
      </trkpt>
      <trkpt lat="44.94533" lon="2.22369">
        <ele>543.76</ele>
        <time>2021-08-16T09:16:23Z</time>
      </trkpt>
      <trkpt lat="44.94529" lon="2.22367">
        <ele>543.76</ele>
        <time>2021-08-16T09:16:24Z</time>
      </trkpt>
      <trkpt lat="44.94526" lon="2.22363">
        <ele>543.76</ele>
        <time>2021-08-16T09:16:25Z</time>
      </trkpt>
      <trkpt lat="44.94523" lon="2.2236">
        <ele>543.76</ele>
        <time>2021-08-16T09:16:26Z</time>
      </trkpt>
      <trkpt lat="44.94515" lon="2.22347">
        <ele>543.76</ele>
        <time>2021-08-16T09:16:29Z</time>
      </trkpt>
      <trkpt lat="44.94511" lon="2.22338">
        <ele>543.76</ele>
        <time>2021-08-16T09:16:31Z</time>
      </trkpt>
      <trkpt lat="44.9451" lon="2.22332">
        <ele>542.32</ele>
        <time>2021-08-16T09:16:32Z</time>
      </trkpt>
      <trkpt lat="44.94503" lon="2.22281">
        <ele>539.92</ele>
        <time>2021-08-16T09:16:39Z</time>
      </trkpt>
      <trkpt lat="44.9449" lon="2.22194">
        <ele>538.48</ele>
        <time>2021-08-16T09:16:49Z</time>
      </trkpt>
      <trkpt lat="44.9449" lon="2.22141">
        <ele>537.99</ele>
        <time>2021-08-16T09:16:56Z</time>
      </trkpt>
      <trkpt lat="44.94491" lon="2.22133">
        <ele>537.99</ele>
        <time>2021-08-16T09:16:57Z</time>
      </trkpt>
      <trkpt lat="44.94493" lon="2.22126">
        <ele>537.99</ele>
        <time>2021-08-16T09:16:58Z</time>
      </trkpt>
      <trkpt lat="44.94504" lon="2.22093">
        <ele>537.99</ele>
        <time>2021-08-16T09:17:03Z</time>
      </trkpt>
      <trkpt lat="44.94507" lon="2.22088">
        <ele>537.99</ele>
        <time>2021-08-16T09:17:04Z</time>
      </trkpt>
      <trkpt lat="44.94511" lon="2.22084">
        <ele>537.51</ele>
        <time>2021-08-16T09:17:05Z</time>
      </trkpt>
      <trkpt lat="44.94515" lon="2.22082">
        <ele>537.51</ele>
        <time>2021-08-16T09:17:06Z</time>
      </trkpt>
      <trkpt lat="44.94519" lon="2.2208">
        <ele>537.51</ele>
        <time>2021-08-16T09:17:07Z</time>
      </trkpt>
      <trkpt lat="44.94525" lon="2.22076">
        <ele>537.51</ele>
        <time>2021-08-16T09:17:09Z</time>
      </trkpt>
      <trkpt lat="44.9456" lon="2.22065">
        <ele>537.51</ele>
        <time>2021-08-16T09:17:18Z</time>
      </trkpt>
      <trkpt lat="44.94591" lon="2.2205">
        <ele>537.51</ele>
        <time>2021-08-16T09:17:26Z</time>
      </trkpt>
      <trkpt lat="44.94613" lon="2.2204">
        <ele>537.51</ele>
        <time>2021-08-16T09:17:31Z</time>
      </trkpt>
      <trkpt lat="44.94618" lon="2.22039">
        <ele>537.51</ele>
        <time>2021-08-16T09:17:32Z</time>
      </trkpt>
      <trkpt lat="44.94626" lon="2.22035">
        <ele>537.51</ele>
        <time>2021-08-16T09:17:34Z</time>
      </trkpt>
      <trkpt lat="44.94635" lon="2.2203">
        <ele>537.51</ele>
        <time>2021-08-16T09:17:36Z</time>
      </trkpt>
      <trkpt lat="44.94639" lon="2.22029">
        <ele>537.51</ele>
        <time>2021-08-16T09:17:37Z</time>
      </trkpt>
      <trkpt lat="44.94669" lon="2.22029">
        <ele>535.11</ele>
        <time>2021-08-16T09:17:44Z</time>
      </trkpt>
      <trkpt lat="44.94674" lon="2.22031">
        <ele>535.11</ele>
        <time>2021-08-16T09:17:45Z</time>
      </trkpt>
      <trkpt lat="44.94677" lon="2.22033">
        <ele>534.63</ele>
        <time>2021-08-16T09:17:46Z</time>
      </trkpt>
      <trkpt lat="44.94682" lon="2.22036">
        <ele>534.15</ele>
        <time>2021-08-16T09:17:47Z</time>
      </trkpt>
      <trkpt lat="44.94687" lon="2.2204">
        <ele>534.15</ele>
        <time>2021-08-16T09:17:48Z</time>
      </trkpt>
      <trkpt lat="44.94691" lon="2.22044">
        <ele>533.67</ele>
        <time>2021-08-16T09:17:49Z</time>
      </trkpt>
      <trkpt lat="44.94695" lon="2.22049">
        <ele>533.19</ele>
        <time>2021-08-16T09:17:50Z</time>
      </trkpt>
      <trkpt lat="44.94707" lon="2.22062">
        <ele>532.71</ele>
        <time>2021-08-16T09:17:54Z</time>
      </trkpt>
      <trkpt lat="44.9471" lon="2.2205">
        <ele>532.23</ele>
        <time>2021-08-16T09:17:59Z</time>
      </trkpt>
      <trkpt lat="44.94708" lon="2.22046">
        <ele>532.23</ele>
        <time>2021-08-16T09:18:00Z</time>
      </trkpt>
      <trkpt lat="44.94698" lon="2.22028">
        <ele>530.79</ele>
        <time>2021-08-16T09:18:04Z</time>
      </trkpt>
      <trkpt lat="44.94671" lon="2.21993">
        <ele>528.38</ele>
        <time>2021-08-16T09:18:11Z</time>
      </trkpt>
      <trkpt lat="44.94664" lon="2.21984">
        <ele>527.9</ele>
        <time>2021-08-16T09:18:13Z</time>
      </trkpt>
      <trkpt lat="44.94661" lon="2.21981">
        <ele>527.9</ele>
        <time>2021-08-16T09:18:14Z</time>
      </trkpt>
      <trkpt lat="44.94656" lon="2.21978">
        <ele>527.42</ele>
        <time>2021-08-16T09:18:15Z</time>
      </trkpt>
      <trkpt lat="44.94648" lon="2.21974">
        <ele>527.42</ele>
        <time>2021-08-16T09:18:17Z</time>
      </trkpt>
      <trkpt lat="44.94643" lon="2.21973">
        <ele>527.42</ele>
        <time>2021-08-16T09:18:18Z</time>
      </trkpt>
      <trkpt lat="44.94624" lon="2.21969">
        <ele>526.46</ele>
        <time>2021-08-16T09:18:22Z</time>
      </trkpt>
      <trkpt lat="44.94619" lon="2.21969">
        <ele>525.98</ele>
        <time>2021-08-16T09:18:23Z</time>
      </trkpt>
      <trkpt lat="44.94613" lon="2.21969">
        <ele>525.5</ele>
        <time>2021-08-16T09:18:24Z</time>
      </trkpt>
      <trkpt lat="44.94608" lon="2.21971">
        <ele>525.02</ele>
        <time>2021-08-16T09:18:25Z</time>
      </trkpt>
      <trkpt lat="44.94604" lon="2.21973">
        <ele>525.02</ele>
        <time>2021-08-16T09:18:26Z</time>
      </trkpt>
      <trkpt lat="44.94587" lon="2.21976">
        <ele>523.58</ele>
        <time>2021-08-16T09:18:30Z</time>
      </trkpt>
      <trkpt lat="44.94583" lon="2.21975">
        <ele>523.58</ele>
        <time>2021-08-16T09:18:31Z</time>
      </trkpt>
      <trkpt lat="44.94569" lon="2.21965">
        <ele>523.58</ele>
        <time>2021-08-16T09:18:34Z</time>
      </trkpt>
      <trkpt lat="44.94559" lon="2.21956">
        <ele>523.58</ele>
        <time>2021-08-16T09:18:37Z</time>
      </trkpt>
      <trkpt lat="44.94555" lon="2.21952">
        <ele>523.58</ele>
        <time>2021-08-16T09:18:38Z</time>
      </trkpt>
      <trkpt lat="44.94523" lon="2.2191">
        <ele>523.58</ele>
        <time>2021-08-16T09:18:47Z</time>
      </trkpt>
      <trkpt lat="44.9452" lon="2.21904">
        <ele>523.58</ele>
        <time>2021-08-16T09:18:48Z</time>
      </trkpt>
      <trkpt lat="44.94503" lon="2.21849">
        <ele>523.58</ele>
        <time>2021-08-16T09:18:57Z</time>
      </trkpt>
      <trkpt lat="44.94497" lon="2.21783">
        <ele>523.58</ele>
        <time>2021-08-16T09:19:07Z</time>
      </trkpt>
      <trkpt lat="44.94504" lon="2.21736">
        <ele>523.58</ele>
        <time>2021-08-16T09:19:14Z</time>
      </trkpt>
      <trkpt lat="44.9452" lon="2.21696">
        <ele>523.58</ele>
        <time>2021-08-16T09:19:21Z</time>
      </trkpt>
      <trkpt lat="44.94523" lon="2.21691">
        <ele>523.58</ele>
        <time>2021-08-16T09:19:22Z</time>
      </trkpt>
      <trkpt lat="44.94527" lon="2.21687">
        <ele>523.58</ele>
        <time>2021-08-16T09:19:23Z</time>
      </trkpt>
      <trkpt lat="44.9453" lon="2.21684">
        <ele>523.58</ele>
        <time>2021-08-16T09:19:24Z</time>
      </trkpt>
      <trkpt lat="44.94534" lon="2.21682">
        <ele>523.09</ele>
        <time>2021-08-16T09:19:25Z</time>
      </trkpt>
      <trkpt lat="44.94554" lon="2.21668">
        <ele>523.09</ele>
        <time>2021-08-16T09:19:30Z</time>
      </trkpt>
      <trkpt lat="44.94559" lon="2.21665">
        <ele>522.61</ele>
        <time>2021-08-16T09:19:31Z</time>
      </trkpt>
      <trkpt lat="44.94592" lon="2.21641">
        <ele>522.13</ele>
        <time>2021-08-16T09:19:40Z</time>
      </trkpt>
      <trkpt lat="44.94621" lon="2.21624">
        <ele>522.13</ele>
        <time>2021-08-16T09:19:48Z</time>
      </trkpt>
      <trkpt lat="44.94632" lon="2.21619">
        <ele>523.58</ele>
        <time>2021-08-16T09:19:52Z</time>
      </trkpt>
      <trkpt lat="44.94653" lon="2.21602">
        <ele>524.06</ele>
        <time>2021-08-16T09:20:01Z</time>
      </trkpt>
      <trkpt lat="44.94664" lon="2.21578">
        <ele>525.02</ele>
        <time>2021-08-16T09:20:08Z</time>
      </trkpt>
      <trkpt lat="44.94673" lon="2.21549">
        <ele>525.98</ele>
        <time>2021-08-16T09:20:16Z</time>
      </trkpt>
      <trkpt lat="44.94677" lon="2.21527">
        <ele>526.46</ele>
        <time>2021-08-16T09:20:23Z</time>
      </trkpt>
      <trkpt lat="44.94676" lon="2.2152">
        <ele>526.94</ele>
        <time>2021-08-16T09:20:26Z</time>
      </trkpt>
      <trkpt lat="44.94675" lon="2.21518">
        <ele>527.42</ele>
        <time>2021-08-16T09:20:27Z</time>
      </trkpt>
      <trkpt lat="44.94674" lon="2.21518">
        <ele>527.42</ele>
        <time>2021-08-16T09:20:28Z</time>
      </trkpt>
      <trkpt lat="44.94673" lon="2.21517">
        <ele>527.42</ele>
        <time>2021-08-16T09:20:29Z</time>
      </trkpt>
      <trkpt lat="44.94672" lon="2.21517">
        <ele>527.42</ele>
        <time>2021-08-16T09:20:30Z</time>
      </trkpt>
      <trkpt lat="44.94668" lon="2.21516">
        <ele>528.38</ele>
        <time>2021-08-16T09:20:34Z</time>
      </trkpt>
      <trkpt lat="44.94666" lon="2.21516">
        <ele>528.38</ele>
        <time>2021-08-16T09:20:35Z</time>
      </trkpt>
      <trkpt lat="44.94665" lon="2.21515">
        <ele>528.38</ele>
        <time>2021-08-16T09:20:36Z</time>
      </trkpt>
      <trkpt lat="44.94654" lon="2.21509">
        <ele>530.3</ele>
        <time>2021-08-16T09:20:45Z</time>
      </trkpt>
      <trkpt lat="44.94652" lon="2.21507">
        <ele>530.79</ele>
        <time>2021-08-16T09:20:48Z</time>
      </trkpt>
      <trkpt lat="44.94651" lon="2.21506">
        <ele>531.27</ele>
        <time>2021-08-16T09:20:49Z</time>
      </trkpt>
      <trkpt lat="44.94642" lon="2.215">
        <ele>532.23</ele>
        <time>2021-08-16T09:20:57Z</time>
      </trkpt>
      <trkpt lat="44.94631" lon="2.21496">
        <ele>534.15</ele>
        <time>2021-08-16T09:21:07Z</time>
      </trkpt>
      <trkpt lat="44.94621" lon="2.21492">
        <ele>535.59</ele>
        <time>2021-08-16T09:21:16Z</time>
      </trkpt>
      <trkpt lat="44.94607" lon="2.21489">
        <ele>536.55</ele>
        <time>2021-08-16T09:21:28Z</time>
      </trkpt>
      <trkpt lat="44.94598" lon="2.21486">
        <ele>538.48</ele>
        <time>2021-08-16T09:21:38Z</time>
      </trkpt>
      <trkpt lat="44.94597" lon="2.21486">
        <ele>538.48</ele>
        <time>2021-08-16T09:21:46Z</time>
      </trkpt>
      <trkpt lat="44.94592" lon="2.21485">
        <ele>538.48</ele>
        <time>2021-08-16T09:21:52Z</time>
      </trkpt>
      <trkpt lat="44.94591" lon="2.21485">
        <ele>538.96</ele>
        <time>2021-08-16T09:21:53Z</time>
      </trkpt>
      <trkpt lat="44.94589" lon="2.21485">
        <ele>539.44</ele>
        <time>2021-08-16T09:21:54Z</time>
      </trkpt>
      <trkpt lat="44.94588" lon="2.21485">
        <ele>539.44</ele>
        <time>2021-08-16T09:21:55Z</time>
      </trkpt>
      <trkpt lat="44.94587" lon="2.21485">
        <ele>539.44</ele>
        <time>2021-08-16T09:21:56Z</time>
      </trkpt>
      <trkpt lat="44.94586" lon="2.21485">
        <ele>539.92</ele>
        <time>2021-08-16T09:21:57Z</time>
      </trkpt>
      <trkpt lat="44.94585" lon="2.21484">
        <ele>539.92</ele>
        <time>2021-08-16T09:21:58Z</time>
      </trkpt>
      <trkpt lat="44.94584" lon="2.21483">
        <ele>539.92</ele>
        <time>2021-08-16T09:21:59Z</time>
      </trkpt>
      <trkpt lat="44.94582" lon="2.21483">
        <ele>539.92</ele>
        <time>2021-08-16T09:22:00Z</time>
      </trkpt>
      <trkpt lat="44.94581" lon="2.21482">
        <ele>540.4</ele>
        <time>2021-08-16T09:22:01Z</time>
      </trkpt>
      <trkpt lat="44.9458" lon="2.21482">
        <ele>540.4</ele>
        <time>2021-08-16T09:22:02Z</time>
      </trkpt>
      <trkpt lat="44.94579" lon="2.21481">
        <ele>540.88</ele>
        <time>2021-08-16T09:22:03Z</time>
      </trkpt>
      <trkpt lat="44.94577" lon="2.21481">
        <ele>540.88</ele>
        <time>2021-08-16T09:22:04Z</time>
      </trkpt>
      <trkpt lat="44.94564" lon="2.21476">
        <ele>542.8</ele>
        <time>2021-08-16T09:22:14Z</time>
      </trkpt>
      <trkpt lat="44.94551" lon="2.21466">
        <ele>544.24</ele>
        <time>2021-08-16T09:22:24Z</time>
      </trkpt>
      <trkpt lat="44.94536" lon="2.21451">
        <ele>546.17</ele>
        <time>2021-08-16T09:22:34Z</time>
      </trkpt>
      <trkpt lat="44.94522" lon="2.21436">
        <ele>547.61</ele>
        <time>2021-08-16T09:22:43Z</time>
      </trkpt>
      <trkpt lat="44.94509" lon="2.21421">
        <ele>548.57</ele>
        <time>2021-08-16T09:22:51Z</time>
      </trkpt>
      <trkpt lat="44.9449" lon="2.21395">
        <ele>549.05</ele>
        <time>2021-08-16T09:23:01Z</time>
      </trkpt>
      <trkpt lat="44.94472" lon="2.2137">
        <ele>550.01</ele>
        <time>2021-08-16T09:23:09Z</time>
      </trkpt>
      <trkpt lat="44.94448" lon="2.21333">
        <ele>550.01</ele>
        <time>2021-08-16T09:23:19Z</time>
      </trkpt>
      <trkpt lat="44.94422" lon="2.21307">
        <ele>548.57</ele>
        <time>2021-08-16T09:23:27Z</time>
      </trkpt>
      <trkpt lat="44.94418" lon="2.21306">
        <ele>548.09</ele>
        <time>2021-08-16T09:23:28Z</time>
      </trkpt>
      <trkpt lat="44.94414" lon="2.21304">
        <ele>548.09</ele>
        <time>2021-08-16T09:23:29Z</time>
      </trkpt>
      <trkpt lat="44.94378" lon="2.21297">
        <ele>547.61</ele>
        <time>2021-08-16T09:23:36Z</time>
      </trkpt>
      <trkpt lat="44.9431" lon="2.21277">
        <ele>547.13</ele>
        <time>2021-08-16T09:23:48Z</time>
      </trkpt>
      <trkpt lat="44.94283" lon="2.21263">
        <ele>548.57</ele>
        <time>2021-08-16T09:23:54Z</time>
      </trkpt>
      <trkpt lat="44.94262" lon="2.21245">
        <ele>550.49</ele>
        <time>2021-08-16T09:24:01Z</time>
      </trkpt>
      <trkpt lat="44.94244" lon="2.21221">
        <ele>551.93</ele>
        <time>2021-08-16T09:24:09Z</time>
      </trkpt>
      <trkpt lat="44.94232" lon="2.21194">
        <ele>552.9</ele>
        <time>2021-08-16T09:24:18Z</time>
      </trkpt>
      <trkpt lat="44.94214" lon="2.21152">
        <ele>554.34</ele>
        <time>2021-08-16T09:24:30Z</time>
      </trkpt>
      <trkpt lat="44.94201" lon="2.2112">
        <ele>554.82</ele>
        <time>2021-08-16T09:24:39Z</time>
      </trkpt>
      <trkpt lat="44.94188" lon="2.2109">
        <ele>555.3</ele>
        <time>2021-08-16T09:24:47Z</time>
      </trkpt>
      <trkpt lat="44.94171" lon="2.21056">
        <ele>557.22</ele>
        <time>2021-08-16T09:24:57Z</time>
      </trkpt>
      <trkpt lat="44.94155" lon="2.21028">
        <ele>558.66</ele>
        <time>2021-08-16T09:25:07Z</time>
      </trkpt>
      <trkpt lat="44.9415" lon="2.21004">
        <ele>559.14</ele>
        <time>2021-08-16T09:25:14Z</time>
      </trkpt>
      <trkpt lat="44.94148" lon="2.20969">
        <ele>559.14</ele>
        <time>2021-08-16T09:25:22Z</time>
      </trkpt>
      <trkpt lat="44.94148" lon="2.20941">
        <ele>559.14</ele>
        <time>2021-08-16T09:25:28Z</time>
      </trkpt>
      <trkpt lat="44.94161" lon="2.20902">
        <ele>559.62</ele>
        <time>2021-08-16T09:25:36Z</time>
      </trkpt>
      <trkpt lat="44.94187" lon="2.20867">
        <ele>561.55</ele>
        <time>2021-08-16T09:25:45Z</time>
      </trkpt>
      <trkpt lat="44.94206" lon="2.20842">
        <ele>562.03</ele>
        <time>2021-08-16T09:25:52Z</time>
      </trkpt>
      <trkpt lat="44.9423" lon="2.20811">
        <ele>561.55</ele>
        <time>2021-08-16T09:26:01Z</time>
      </trkpt>
      <trkpt lat="44.94255" lon="2.20776">
        <ele>559.14</ele>
        <time>2021-08-16T09:26:09Z</time>
      </trkpt>
      <trkpt lat="44.94274" lon="2.20746">
        <ele>555.3</ele>
        <time>2021-08-16T09:26:13Z</time>
      </trkpt>
      <trkpt lat="44.94299" lon="2.20705">
        <ele>550.97</ele>
        <time>2021-08-16T09:26:17Z</time>
      </trkpt>
      <trkpt lat="44.94313" lon="2.20682">
        <ele>547.61</ele>
        <time>2021-08-16T09:26:19Z</time>
      </trkpt>
      <trkpt lat="44.94338" lon="2.20646">
        <ele>543.76</ele>
        <time>2021-08-16T09:26:22Z</time>
      </trkpt>
      <trkpt lat="44.94346" lon="2.20635">
        <ele>543.76</ele>
        <time>2021-08-16T09:26:23Z</time>
      </trkpt>
      <trkpt lat="44.94366" lon="2.20613">
        <ele>542.32</ele>
        <time>2021-08-16T09:26:25Z</time>
      </trkpt>
      <trkpt lat="44.94376" lon="2.20604">
        <ele>540.4</ele>
        <time>2021-08-16T09:26:26Z</time>
      </trkpt>
      <trkpt lat="44.94387" lon="2.20596">
        <ele>539.92</ele>
        <time>2021-08-16T09:26:27Z</time>
      </trkpt>
      <trkpt lat="44.9445" lon="2.20555">
        <ele>538.96</ele>
        <time>2021-08-16T09:26:33Z</time>
      </trkpt>
      <trkpt lat="44.94544" lon="2.20495">
        <ele>536.07</ele>
        <time>2021-08-16T09:26:43Z</time>
      </trkpt>
      <trkpt lat="44.94613" lon="2.20461">
        <ele>533.19</ele>
        <time>2021-08-16T09:26:50Z</time>
      </trkpt>
      <trkpt lat="44.94657" lon="2.20454">
        <ele>532.71</ele>
        <time>2021-08-16T09:26:55Z</time>
      </trkpt>
      <trkpt lat="44.94695" lon="2.20433">
        <ele>532.71</ele>
        <time>2021-08-16T09:27:00Z</time>
      </trkpt>
      <trkpt lat="44.94701" lon="2.20427">
        <ele>532.71</ele>
        <time>2021-08-16T09:27:01Z</time>
      </trkpt>
      <trkpt lat="44.94707" lon="2.2042">
        <ele>532.71</ele>
        <time>2021-08-16T09:27:02Z</time>
      </trkpt>
      <trkpt lat="44.94746" lon="2.20364">
        <ele>530.3</ele>
        <time>2021-08-16T09:27:09Z</time>
      </trkpt>
      <trkpt lat="44.94767" lon="2.20335">
        <ele>527.42</ele>
        <time>2021-08-16T09:27:12Z</time>
      </trkpt>
      <trkpt lat="44.94791" lon="2.20301">
        <ele>523.58</ele>
        <time>2021-08-16T09:27:15Z</time>
      </trkpt>
      <trkpt lat="44.94808" lon="2.20276">
        <ele>520.21</ele>
        <time>2021-08-16T09:27:17Z</time>
      </trkpt>
      <trkpt lat="44.94833" lon="2.20241">
        <ele>517.33</ele>
        <time>2021-08-16T09:27:20Z</time>
      </trkpt>
      <trkpt lat="44.94844" lon="2.20227">
        <ele>517.81</ele>
        <time>2021-08-16T09:27:22Z</time>
      </trkpt>
      <trkpt lat="44.94846" lon="2.20221">
        <ele>517.33</ele>
        <time>2021-08-16T09:27:23Z</time>
      </trkpt>
      <trkpt lat="44.94845" lon="2.20215">
        <ele>517.33</ele>
        <time>2021-08-16T09:27:24Z</time>
      </trkpt>
      <trkpt lat="44.94843" lon="2.20208">
        <ele>517.33</ele>
        <time>2021-08-16T09:27:25Z</time>
      </trkpt>
      <trkpt lat="44.94842" lon="2.20205">
        <ele>517.33</ele>
        <time>2021-08-16T09:27:26Z</time>
      </trkpt>
      <trkpt lat="44.94836" lon="2.20186">
        <ele>517.33</ele>
        <time>2021-08-16T09:27:32Z</time>
      </trkpt>
      <trkpt lat="44.94835" lon="2.20183">
        <ele>518.77</ele>
        <time>2021-08-16T09:27:35Z</time>
      </trkpt>
      <trkpt lat="44.94832" lon="2.20175">
        <ele>519.73</ele>
        <time>2021-08-16T09:27:42Z</time>
      </trkpt>
      <trkpt lat="44.94831" lon="2.20166">
        <ele>521.65</ele>
        <time>2021-08-16T09:27:49Z</time>
      </trkpt>
      <trkpt lat="44.94828" lon="2.20157">
        <ele>522.61</ele>
        <time>2021-08-16T09:27:55Z</time>
      </trkpt>
      <trkpt lat="44.94821" lon="2.20144">
        <ele>523.58</ele>
        <time>2021-08-16T09:28:03Z</time>
      </trkpt>
      <trkpt lat="44.94817" lon="2.20129">
        <ele>524.06</ele>
        <time>2021-08-16T09:28:11Z</time>
      </trkpt>
      <trkpt lat="44.94813" lon="2.20113">
        <ele>525.02</ele>
        <time>2021-08-16T09:28:19Z</time>
      </trkpt>
      <trkpt lat="44.94809" lon="2.20098">
        <ele>526.46</ele>
        <time>2021-08-16T09:28:27Z</time>
      </trkpt>
      <trkpt lat="44.94807" lon="2.20088">
        <ele>527.9</ele>
        <time>2021-08-16T09:28:36Z</time>
      </trkpt>
      <trkpt lat="44.94805" lon="2.20077">
        <ele>529.34</ele>
        <time>2021-08-16T09:28:45Z</time>
      </trkpt>
      <trkpt lat="44.94803" lon="2.20067">
        <ele>530.3</ele>
        <time>2021-08-16T09:28:54Z</time>
      </trkpt>
      <trkpt lat="44.94802" lon="2.20061">
        <ele>530.79</ele>
        <time>2021-08-16T09:28:58Z</time>
      </trkpt>
      <trkpt lat="44.94801" lon="2.2006">
        <ele>530.79</ele>
        <time>2021-08-16T09:28:59Z</time>
      </trkpt>
      <trkpt lat="44.94801" lon="2.20058">
        <ele>530.79</ele>
        <time>2021-08-16T09:29:00Z</time>
      </trkpt>
      <trkpt lat="44.94801" lon="2.20055">
        <ele>530.79</ele>
        <time>2021-08-16T09:29:01Z</time>
      </trkpt>
      <trkpt lat="44.94801" lon="2.20052">
        <ele>530.79</ele>
        <time>2021-08-16T09:29:02Z</time>
      </trkpt>
      <trkpt lat="44.94801" lon="2.20049">
        <ele>530.79</ele>
        <time>2021-08-16T09:29:03Z</time>
      </trkpt>
      <trkpt lat="44.94802" lon="2.20045">
        <ele>530.79</ele>
        <time>2021-08-16T09:29:04Z</time>
      </trkpt>
      <trkpt lat="44.94802" lon="2.20041">
        <ele>530.79</ele>
        <time>2021-08-16T09:29:05Z</time>
      </trkpt>
      <trkpt lat="44.94802" lon="2.20038">
        <ele>530.79</ele>
        <time>2021-08-16T09:29:06Z</time>
      </trkpt>
      <trkpt lat="44.94801" lon="2.20006">
        <ele>531.75</ele>
        <time>2021-08-16T09:29:16Z</time>
      </trkpt>
      <trkpt lat="44.94802" lon="2.1997">
        <ele>532.23</ele>
        <time>2021-08-16T09:29:27Z</time>
      </trkpt>
      <trkpt lat="44.94801" lon="2.19951">
        <ele>533.19</ele>
        <time>2021-08-16T09:29:36Z</time>
      </trkpt>
      <trkpt lat="44.948" lon="2.1995">
        <ele>533.19</ele>
        <time>2021-08-16T09:29:37Z</time>
      </trkpt>
      <trkpt lat="44.948" lon="2.19948">
        <ele>533.67</ele>
        <time>2021-08-16T09:29:38Z</time>
      </trkpt>
      <trkpt lat="44.948" lon="2.19946">
        <ele>533.67</ele>
        <time>2021-08-16T09:29:39Z</time>
      </trkpt>
      <trkpt lat="44.948" lon="2.19945">
        <ele>533.67</ele>
        <time>2021-08-16T09:29:40Z</time>
      </trkpt>
      <trkpt lat="44.948" lon="2.19943">
        <ele>533.67</ele>
        <time>2021-08-16T09:29:41Z</time>
      </trkpt>
      <trkpt lat="44.948" lon="2.19942">
        <ele>533.67</ele>
        <time>2021-08-16T09:29:42Z</time>
      </trkpt>
      <trkpt lat="44.948" lon="2.1994">
        <ele>534.15</ele>
        <time>2021-08-16T09:29:43Z</time>
      </trkpt>
      <trkpt lat="44.948" lon="2.19939">
        <ele>534.15</ele>
        <time>2021-08-16T09:29:44Z</time>
      </trkpt>
      <trkpt lat="44.948" lon="2.19937">
        <ele>534.15</ele>
        <time>2021-08-16T09:29:45Z</time>
      </trkpt>
      <trkpt lat="44.94799" lon="2.19936">
        <ele>534.15</ele>
        <time>2021-08-16T09:29:46Z</time>
      </trkpt>
      <trkpt lat="44.94799" lon="2.19934">
        <ele>535.11</ele>
        <time>2021-08-16T09:29:47Z</time>
      </trkpt>
      <trkpt lat="44.94799" lon="2.19932">
        <ele>534.63</ele>
        <time>2021-08-16T09:29:48Z</time>
      </trkpt>
      <trkpt lat="44.94797" lon="2.19919">
        <ele>535.59</ele>
        <time>2021-08-16T09:29:55Z</time>
      </trkpt>
      <trkpt lat="44.94795" lon="2.19898">
        <ele>536.55</ele>
        <time>2021-08-16T09:30:06Z</time>
      </trkpt>
      <trkpt lat="44.94793" lon="2.19887">
        <ele>537.51</ele>
        <time>2021-08-16T09:30:11Z</time>
      </trkpt>
      <trkpt lat="44.94793" lon="2.19885">
        <ele>537.51</ele>
        <time>2021-08-16T09:30:12Z</time>
      </trkpt>
      <trkpt lat="44.94791" lon="2.19873">
        <ele>538.48</ele>
        <time>2021-08-16T09:30:19Z</time>
      </trkpt>
      <trkpt lat="44.9479" lon="2.1987">
        <ele>538.96</ele>
        <time>2021-08-16T09:30:21Z</time>
      </trkpt>
      <trkpt lat="44.9479" lon="2.19868">
        <ele>539.44</ele>
        <time>2021-08-16T09:30:22Z</time>
      </trkpt>
      <trkpt lat="44.94788" lon="2.19858">
        <ele>539.92</ele>
        <time>2021-08-16T09:30:27Z</time>
      </trkpt>
      <trkpt lat="44.94787" lon="2.19857">
        <ele>539.92</ele>
        <time>2021-08-16T09:30:28Z</time>
      </trkpt>
      <trkpt lat="44.94786" lon="2.19855">
        <ele>540.4</ele>
        <time>2021-08-16T09:30:29Z</time>
      </trkpt>
      <trkpt lat="44.94785" lon="2.19854">
        <ele>540.4</ele>
        <time>2021-08-16T09:30:30Z</time>
      </trkpt>
      <trkpt lat="44.94784" lon="2.19852">
        <ele>540.4</ele>
        <time>2021-08-16T09:30:31Z</time>
      </trkpt>
      <trkpt lat="44.94783" lon="2.1985">
        <ele>540.4</ele>
        <time>2021-08-16T09:30:32Z</time>
      </trkpt>
      <trkpt lat="44.94778" lon="2.19839">
        <ele>542.32</ele>
        <time>2021-08-16T09:30:40Z</time>
      </trkpt>
      <trkpt lat="44.94773" lon="2.19833">
        <ele>542.8</ele>
        <time>2021-08-16T09:30:47Z</time>
      </trkpt>
      <trkpt lat="44.94771" lon="2.19831">
        <ele>543.28</ele>
        <time>2021-08-16T09:30:49Z</time>
      </trkpt>
      <trkpt lat="44.9477" lon="2.1983">
        <ele>543.28</ele>
        <time>2021-08-16T09:30:50Z</time>
      </trkpt>
      <trkpt lat="44.94768" lon="2.19827">
        <ele>543.76</ele>
        <time>2021-08-16T09:30:52Z</time>
      </trkpt>
      <trkpt lat="44.94765" lon="2.1982">
        <ele>544.72</ele>
        <time>2021-08-16T09:30:57Z</time>
      </trkpt>
      <trkpt lat="44.94764" lon="2.19819">
        <ele>544.72</ele>
        <time>2021-08-16T09:30:58Z</time>
      </trkpt>
      <trkpt lat="44.94763" lon="2.19817">
        <ele>544.72</ele>
        <time>2021-08-16T09:30:59Z</time>
      </trkpt>
      <trkpt lat="44.94762" lon="2.19816">
        <ele>545.2</ele>
        <time>2021-08-16T09:31:00Z</time>
      </trkpt>
      <trkpt lat="44.94762" lon="2.19814">
        <ele>545.2</ele>
        <time>2021-08-16T09:31:01Z</time>
      </trkpt>
      <trkpt lat="44.94756" lon="2.19804">
        <ele>546.17</ele>
        <time>2021-08-16T09:31:09Z</time>
      </trkpt>
      <trkpt lat="44.94749" lon="2.19797">
        <ele>547.61</ele>
        <time>2021-08-16T09:31:17Z</time>
      </trkpt>
      <trkpt lat="44.94745" lon="2.1979">
        <ele>548.57</ele>
        <time>2021-08-16T09:31:25Z</time>
      </trkpt>
      <trkpt lat="44.94744" lon="2.19789">
        <ele>548.57</ele>
        <time>2021-08-16T09:31:26Z</time>
      </trkpt>
      <trkpt lat="44.94737" lon="2.19781">
        <ele>550.01</ele>
        <time>2021-08-16T09:31:35Z</time>
      </trkpt>
      <trkpt lat="44.94731" lon="2.19777">
        <ele>551.45</ele>
        <time>2021-08-16T09:31:43Z</time>
      </trkpt>
      <trkpt lat="44.94723" lon="2.19773">
        <ele>552.41</ele>
        <time>2021-08-16T09:31:52Z</time>
      </trkpt>
      <trkpt lat="44.94715" lon="2.19767">
        <ele>553.86</ele>
        <time>2021-08-16T09:32:02Z</time>
      </trkpt>
      <trkpt lat="44.94707" lon="2.19762">
        <ele>554.82</ele>
        <time>2021-08-16T09:32:10Z</time>
      </trkpt>
      <trkpt lat="44.94699" lon="2.19757">
        <ele>555.78</ele>
        <time>2021-08-16T09:32:19Z</time>
      </trkpt>
      <trkpt lat="44.94693" lon="2.19754">
        <ele>556.74</ele>
        <time>2021-08-16T09:32:26Z</time>
      </trkpt>
      <trkpt lat="44.94688" lon="2.19751">
        <ele>557.22</ele>
        <time>2021-08-16T09:32:30Z</time>
      </trkpt>
      <trkpt lat="44.94678" lon="2.19746">
        <ele>558.66</ele>
        <time>2021-08-16T09:32:39Z</time>
      </trkpt>
      <trkpt lat="44.9467" lon="2.19741">
        <ele>559.62</ele>
        <time>2021-08-16T09:32:48Z</time>
      </trkpt>
      <trkpt lat="44.94661" lon="2.19735">
        <ele>561.55</ele>
        <time>2021-08-16T09:32:58Z</time>
      </trkpt>
      <trkpt lat="44.94658" lon="2.19732">
        <ele>562.03</ele>
        <time>2021-08-16T09:33:06Z</time>
      </trkpt>
      <trkpt lat="44.94658" lon="2.19727">
        <ele>562.03</ele>
        <time>2021-08-16T09:33:19Z</time>
      </trkpt>
      <trkpt lat="44.94655" lon="2.19727">
        <ele>562.03</ele>
        <time>2021-08-16T09:33:29Z</time>
      </trkpt>
      <trkpt lat="44.94649" lon="2.19727">
        <ele>562.03</ele>
        <time>2021-08-16T09:33:47Z</time>
      </trkpt>
      <trkpt lat="44.9465" lon="2.19727">
        <ele>562.03</ele>
        <time>2021-08-16T09:33:56Z</time>
      </trkpt>
      <trkpt lat="44.94651" lon="2.19727">
        <ele>562.03</ele>
        <time>2021-08-16T09:34:06Z</time>
      </trkpt>
      <trkpt lat="44.9465" lon="2.19728">
        <ele>562.03</ele>
        <time>2021-08-16T09:34:12Z</time>
      </trkpt>
      <trkpt lat="44.94651" lon="2.19733">
        <ele>562.03</ele>
        <time>2021-08-16T09:34:28Z</time>
      </trkpt>
      <trkpt lat="44.94649" lon="2.19732">
        <ele>562.03</ele>
        <time>2021-08-16T09:34:46Z</time>
      </trkpt>
      <trkpt lat="44.9465" lon="2.19733">
        <ele>562.03</ele>
        <time>2021-08-16T09:35:00Z</time>
      </trkpt>
      <trkpt lat="44.94652" lon="2.19734">
        <ele>562.03</ele>
        <time>2021-08-16T09:35:03Z</time>
      </trkpt>
      <trkpt lat="44.94654" lon="2.19732">
        <ele>562.03</ele>
        <time>2021-08-16T09:35:08Z</time>
      </trkpt>
      <trkpt lat="44.94651" lon="2.19729">
        <ele>562.99</ele>
        <time>2021-08-16T09:35:14Z</time>
      </trkpt>
      <trkpt lat="44.94643" lon="2.19726">
        <ele>563.95</ele>
        <time>2021-08-16T09:35:23Z</time>
      </trkpt>
      <trkpt lat="44.94636" lon="2.19725">
        <ele>565.39</ele>
        <time>2021-08-16T09:35:30Z</time>
      </trkpt>
      <trkpt lat="44.94629" lon="2.19725">
        <ele>566.35</ele>
        <time>2021-08-16T09:35:37Z</time>
      </trkpt>
      <trkpt lat="44.94622" lon="2.19723">
        <ele>567.32</ele>
        <time>2021-08-16T09:35:45Z</time>
      </trkpt>
      <trkpt lat="44.94617" lon="2.19721">
        <ele>568.76</ele>
        <time>2021-08-16T09:35:53Z</time>
      </trkpt>
      <trkpt lat="44.9461" lon="2.19717">
        <ele>570.2</ele>
        <time>2021-08-16T09:36:03Z</time>
      </trkpt>
      <trkpt lat="44.94604" lon="2.19711">
        <ele>571.16</ele>
        <time>2021-08-16T09:36:12Z</time>
      </trkpt>
      <trkpt lat="44.94597" lon="2.19707">
        <ele>572.12</ele>
        <time>2021-08-16T09:36:20Z</time>
      </trkpt>
      <trkpt lat="44.9459" lon="2.19705">
        <ele>574.04</ele>
        <time>2021-08-16T09:36:29Z</time>
      </trkpt>
      <trkpt lat="44.94583" lon="2.19701">
        <ele>575.97</ele>
        <time>2021-08-16T09:36:39Z</time>
      </trkpt>
      <trkpt lat="44.94577" lon="2.19697">
        <ele>577.41</ele>
        <time>2021-08-16T09:36:48Z</time>
      </trkpt>
      <trkpt lat="44.94571" lon="2.19692">
        <ele>578.85</ele>
        <time>2021-08-16T09:36:58Z</time>
      </trkpt>
      <trkpt lat="44.94562" lon="2.19691">
        <ele>580.29</ele>
        <time>2021-08-16T09:37:06Z</time>
      </trkpt>
      <trkpt lat="44.94554" lon="2.1969">
        <ele>581.25</ele>
        <time>2021-08-16T09:37:15Z</time>
      </trkpt>
      <trkpt lat="44.94545" lon="2.19687">
        <ele>582.7</ele>
        <time>2021-08-16T09:37:25Z</time>
      </trkpt>
      <trkpt lat="44.94537" lon="2.19684">
        <ele>584.14</ele>
        <time>2021-08-16T09:37:33Z</time>
      </trkpt>
      <trkpt lat="44.94529" lon="2.1968">
        <ele>585.58</ele>
        <time>2021-08-16T09:37:41Z</time>
      </trkpt>
      <trkpt lat="44.9452" lon="2.19674">
        <ele>587.02</ele>
        <time>2021-08-16T09:37:50Z</time>
      </trkpt>
      <trkpt lat="44.94519" lon="2.19673">
        <ele>587.02</ele>
        <time>2021-08-16T09:37:51Z</time>
      </trkpt>
      <trkpt lat="44.94509" lon="2.19666">
        <ele>587.5</ele>
        <time>2021-08-16T09:37:58Z</time>
      </trkpt>
      <trkpt lat="44.94502" lon="2.19659">
        <ele>588.95</ele>
        <time>2021-08-16T09:38:04Z</time>
      </trkpt>
      <trkpt lat="44.945" lon="2.19656">
        <ele>589.43</ele>
        <time>2021-08-16T09:38:12Z</time>
      </trkpt>
      <trkpt lat="44.94498" lon="2.19649">
        <ele>589.43</ele>
        <time>2021-08-16T09:38:19Z</time>
      </trkpt>
      <trkpt lat="44.94489" lon="2.19632">
        <ele>590.39</ele>
        <time>2021-08-16T09:38:27Z</time>
      </trkpt>
      <trkpt lat="44.94483" lon="2.19615">
        <ele>590.87</ele>
        <time>2021-08-16T09:38:34Z</time>
      </trkpt>
      <trkpt lat="44.94472" lon="2.1959">
        <ele>591.35</ele>
        <time>2021-08-16T09:38:44Z</time>
      </trkpt>
      <trkpt lat="44.94467" lon="2.19572">
        <ele>592.79</ele>
        <time>2021-08-16T09:38:52Z</time>
      </trkpt>
      <trkpt lat="44.94465" lon="2.19556">
        <ele>594.23</ele>
        <time>2021-08-16T09:39:00Z</time>
      </trkpt>
      <trkpt lat="44.94464" lon="2.19552">
        <ele>594.23</ele>
        <time>2021-08-16T09:39:02Z</time>
      </trkpt>
      <trkpt lat="44.94464" lon="2.19551">
        <ele>594.71</ele>
        <time>2021-08-16T09:39:03Z</time>
      </trkpt>
      <trkpt lat="44.94463" lon="2.19549">
        <ele>594.71</ele>
        <time>2021-08-16T09:39:04Z</time>
      </trkpt>
      <trkpt lat="44.9446" lon="2.19529">
        <ele>595.67</ele>
        <time>2021-08-16T09:39:14Z</time>
      </trkpt>
      <trkpt lat="44.94457" lon="2.19509">
        <ele>597.12</ele>
        <time>2021-08-16T09:39:23Z</time>
      </trkpt>
      <trkpt lat="44.94457" lon="2.19507">
        <ele>597.12</ele>
        <time>2021-08-16T09:39:24Z</time>
      </trkpt>
      <trkpt lat="44.94456" lon="2.19505">
        <ele>597.12</ele>
        <time>2021-08-16T09:39:25Z</time>
      </trkpt>
      <trkpt lat="44.94456" lon="2.19504">
        <ele>597.12</ele>
        <time>2021-08-16T09:39:26Z</time>
      </trkpt>
      <trkpt lat="44.94455" lon="2.19501">
        <ele>597.12</ele>
        <time>2021-08-16T09:39:27Z</time>
      </trkpt>
      <trkpt lat="44.94452" lon="2.19491">
        <ele>598.56</ele>
        <time>2021-08-16T09:39:32Z</time>
      </trkpt>
      <trkpt lat="44.94445" lon="2.19478">
        <ele>599.52</ele>
        <time>2021-08-16T09:39:41Z</time>
      </trkpt>
      <trkpt lat="44.94445" lon="2.19477">
        <ele>599.52</ele>
        <time>2021-08-16T09:39:42Z</time>
      </trkpt>
      <trkpt lat="44.9444" lon="2.19472">
        <ele>600.48</ele>
        <time>2021-08-16T09:39:47Z</time>
      </trkpt>
      <trkpt lat="44.94439" lon="2.19471">
        <ele>600.48</ele>
        <time>2021-08-16T09:39:48Z</time>
      </trkpt>
      <trkpt lat="44.94438" lon="2.19469">
        <ele>600.96</ele>
        <time>2021-08-16T09:39:49Z</time>
      </trkpt>
      <trkpt lat="44.94429" lon="2.1946">
        <ele>602.4</ele>
        <time>2021-08-16T09:39:58Z</time>
      </trkpt>
      <trkpt lat="44.9442" lon="2.19454">
        <ele>602.88</ele>
        <time>2021-08-16T09:40:05Z</time>
      </trkpt>
      <trkpt lat="44.94419" lon="2.19454">
        <ele>602.88</ele>
        <time>2021-08-16T09:40:06Z</time>
      </trkpt>
      <trkpt lat="44.94417" lon="2.19453">
        <ele>602.88</ele>
        <time>2021-08-16T09:40:07Z</time>
      </trkpt>
      <trkpt lat="44.94416" lon="2.19452">
        <ele>602.88</ele>
        <time>2021-08-16T09:40:08Z</time>
      </trkpt>
      <trkpt lat="44.94415" lon="2.19451">
        <ele>602.88</ele>
        <time>2021-08-16T09:40:09Z</time>
      </trkpt>
      <trkpt lat="44.94414" lon="2.1945">
        <ele>602.88</ele>
        <time>2021-08-16T09:40:10Z</time>
      </trkpt>
      <trkpt lat="44.94409" lon="2.19447">
        <ele>603.85</ele>
        <time>2021-08-16T09:40:14Z</time>
      </trkpt>
      <trkpt lat="44.94408" lon="2.19446">
        <ele>603.85</ele>
        <time>2021-08-16T09:40:15Z</time>
      </trkpt>
      <trkpt lat="44.94407" lon="2.19445">
        <ele>604.33</ele>
        <time>2021-08-16T09:40:16Z</time>
      </trkpt>
      <trkpt lat="44.94405" lon="2.19445">
        <ele>604.33</ele>
        <time>2021-08-16T09:40:17Z</time>
      </trkpt>
      <trkpt lat="44.94404" lon="2.19444">
        <ele>604.33</ele>
        <time>2021-08-16T09:40:18Z</time>
      </trkpt>
      <trkpt lat="44.94403" lon="2.19444">
        <ele>604.81</ele>
        <time>2021-08-16T09:40:19Z</time>
      </trkpt>
      <trkpt lat="44.94401" lon="2.19443">
        <ele>604.81</ele>
        <time>2021-08-16T09:40:20Z</time>
      </trkpt>
      <trkpt lat="44.944" lon="2.19443">
        <ele>605.29</ele>
        <time>2021-08-16T09:40:21Z</time>
      </trkpt>
      <trkpt lat="44.94399" lon="2.19442">
        <ele>605.29</ele>
        <time>2021-08-16T09:40:22Z</time>
      </trkpt>
      <trkpt lat="44.94398" lon="2.19441">
        <ele>605.77</ele>
        <time>2021-08-16T09:40:23Z</time>
      </trkpt>
      <trkpt lat="44.94397" lon="2.1944">
        <ele>605.77</ele>
        <time>2021-08-16T09:40:24Z</time>
      </trkpt>
      <trkpt lat="44.94396" lon="2.19439">
        <ele>605.77</ele>
        <time>2021-08-16T09:40:25Z</time>
      </trkpt>
      <trkpt lat="44.94395" lon="2.19438">
        <ele>606.25</ele>
        <time>2021-08-16T09:40:26Z</time>
      </trkpt>
      <trkpt lat="44.94394" lon="2.19438">
        <ele>606.25</ele>
        <time>2021-08-16T09:40:27Z</time>
      </trkpt>
      <trkpt lat="44.94386" lon="2.19432">
        <ele>608.17</ele>
        <time>2021-08-16T09:40:35Z</time>
      </trkpt>
      <trkpt lat="44.94377" lon="2.19423">
        <ele>609.61</ele>
        <time>2021-08-16T09:40:43Z</time>
      </trkpt>
      <trkpt lat="44.94372" lon="2.19408">
        <ele>610.09</ele>
        <time>2021-08-16T09:40:49Z</time>
      </trkpt>
      <trkpt lat="44.94367" lon="2.19386">
        <ele>610.09</ele>
        <time>2021-08-16T09:40:56Z</time>
      </trkpt>
      <trkpt lat="44.94367" lon="2.19363">
        <ele>610.09</ele>
        <time>2021-08-16T09:41:00Z</time>
      </trkpt>
      <trkpt lat="44.94367" lon="2.19357">
        <ele>608.65</ele>
        <time>2021-08-16T09:41:01Z</time>
      </trkpt>
      <trkpt lat="44.94369" lon="2.19352">
        <ele>608.65</ele>
        <time>2021-08-16T09:41:02Z</time>
      </trkpt>
      <trkpt lat="44.9437" lon="2.19346">
        <ele>608.65</ele>
        <time>2021-08-16T09:41:03Z</time>
      </trkpt>
      <trkpt lat="44.94378" lon="2.19309">
        <ele>607.21</ele>
        <time>2021-08-16T09:41:10Z</time>
      </trkpt>
      <trkpt lat="44.94376" lon="2.19277">
        <ele>605.77</ele>
        <time>2021-08-16T09:41:15Z</time>
      </trkpt>
      <trkpt lat="44.94375" lon="2.1927">
        <ele>605.77</ele>
        <time>2021-08-16T09:41:16Z</time>
      </trkpt>
      <trkpt lat="44.94374" lon="2.19263">
        <ele>605.77</ele>
        <time>2021-08-16T09:41:17Z</time>
      </trkpt>
      <trkpt lat="44.94372" lon="2.19258">
        <ele>605.77</ele>
        <time>2021-08-16T09:41:18Z</time>
      </trkpt>
      <trkpt lat="44.9437" lon="2.19252">
        <ele>605.77</ele>
        <time>2021-08-16T09:41:19Z</time>
      </trkpt>
      <trkpt lat="44.94368" lon="2.19248">
        <ele>605.77</ele>
        <time>2021-08-16T09:41:20Z</time>
      </trkpt>
      <trkpt lat="44.94365" lon="2.19243">
        <ele>605.77</ele>
        <time>2021-08-16T09:41:21Z</time>
      </trkpt>
      <trkpt lat="44.94363" lon="2.1924">
        <ele>605.77</ele>
        <time>2021-08-16T09:41:22Z</time>
      </trkpt>
      <trkpt lat="44.94359" lon="2.19237">
        <ele>606.25</ele>
        <time>2021-08-16T09:41:23Z</time>
      </trkpt>
      <trkpt lat="44.94357" lon="2.19234">
        <ele>606.25</ele>
        <time>2021-08-16T09:41:24Z</time>
      </trkpt>
      <trkpt lat="44.94345" lon="2.19221">
        <ele>606.25</ele>
        <time>2021-08-16T09:41:30Z</time>
      </trkpt>
      <trkpt lat="44.94345" lon="2.19219">
        <ele>607.21</ele>
        <time>2021-08-16T09:41:31Z</time>
      </trkpt>
      <trkpt lat="44.94345" lon="2.19218">
        <ele>607.21</ele>
        <time>2021-08-16T09:41:32Z</time>
      </trkpt>
      <trkpt lat="44.9434" lon="2.19206">
        <ele>609.13</ele>
        <time>2021-08-16T09:41:40Z</time>
      </trkpt>
      <trkpt lat="44.9434" lon="2.19204">
        <ele>609.13</ele>
        <time>2021-08-16T09:41:41Z</time>
      </trkpt>
      <trkpt lat="44.94339" lon="2.19203">
        <ele>609.13</ele>
        <time>2021-08-16T09:41:42Z</time>
      </trkpt>
      <trkpt lat="44.94339" lon="2.19201">
        <ele>609.13</ele>
        <time>2021-08-16T09:41:43Z</time>
      </trkpt>
      <trkpt lat="44.94339" lon="2.192">
        <ele>609.61</ele>
        <time>2021-08-16T09:41:44Z</time>
      </trkpt>
      <trkpt lat="44.94338" lon="2.19198">
        <ele>609.61</ele>
        <time>2021-08-16T09:41:45Z</time>
      </trkpt>
      <trkpt lat="44.94337" lon="2.19197">
        <ele>609.61</ele>
        <time>2021-08-16T09:41:46Z</time>
      </trkpt>
      <trkpt lat="44.94336" lon="2.19195">
        <ele>610.09</ele>
        <time>2021-08-16T09:41:47Z</time>
      </trkpt>
      <trkpt lat="44.94336" lon="2.19193">
        <ele>610.09</ele>
        <time>2021-08-16T09:41:48Z</time>
      </trkpt>
      <trkpt lat="44.9433" lon="2.19186">
        <ele>612.02</ele>
        <time>2021-08-16T09:41:55Z</time>
      </trkpt>
      <trkpt lat="44.94326" lon="2.19179">
        <ele>612.98</ele>
        <time>2021-08-16T09:42:02Z</time>
      </trkpt>
      <trkpt lat="44.94321" lon="2.19165">
        <ele>614.9</ele>
        <time>2021-08-16T09:42:10Z</time>
      </trkpt>
      <trkpt lat="44.94314" lon="2.19145">
        <ele>616.34</ele>
        <time>2021-08-16T09:42:19Z</time>
      </trkpt>
      <trkpt lat="44.94307" lon="2.19119">
        <ele>616.82</ele>
        <time>2021-08-16T09:42:27Z</time>
      </trkpt>
      <trkpt lat="44.94305" lon="2.19109">
        <ele>615.38</ele>
        <time>2021-08-16T09:42:29Z</time>
      </trkpt>
      <trkpt lat="44.94304" lon="2.19081">
        <ele>613.94</ele>
        <time>2021-08-16T09:42:34Z</time>
      </trkpt>
      <trkpt lat="44.94304" lon="2.19075">
        <ele>612.98</ele>
        <time>2021-08-16T09:42:35Z</time>
      </trkpt>
      <trkpt lat="44.94305" lon="2.19066">
        <ele>612.98</ele>
        <time>2021-08-16T09:42:36Z</time>
      </trkpt>
      <trkpt lat="44.94308" lon="2.1903">
        <ele>610.57</ele>
        <time>2021-08-16T09:42:40Z</time>
      </trkpt>
      <trkpt lat="44.94307" lon="2.19021">
        <ele>610.57</ele>
        <time>2021-08-16T09:42:41Z</time>
      </trkpt>
      <trkpt lat="44.94306" lon="2.19013">
        <ele>610.09</ele>
        <time>2021-08-16T09:42:42Z</time>
      </trkpt>
      <trkpt lat="44.94305" lon="2.19005">
        <ele>610.09</ele>
        <time>2021-08-16T09:42:43Z</time>
      </trkpt>
      <trkpt lat="44.94305" lon="2.18997">
        <ele>610.09</ele>
        <time>2021-08-16T09:42:44Z</time>
      </trkpt>
      <trkpt lat="44.94306" lon="2.18991">
        <ele>610.09</ele>
        <time>2021-08-16T09:42:45Z</time>
      </trkpt>
      <trkpt lat="44.94307" lon="2.18986">
        <ele>611.54</ele>
        <time>2021-08-16T09:42:46Z</time>
      </trkpt>
      <trkpt lat="44.9431" lon="2.18972">
        <ele>612.98</ele>
        <time>2021-08-16T09:42:52Z</time>
      </trkpt>
      <trkpt lat="44.94315" lon="2.18958">
        <ele>614.9</ele>
        <time>2021-08-16T09:42:59Z</time>
      </trkpt>
      <trkpt lat="44.94316" lon="2.18956">
        <ele>614.9</ele>
        <time>2021-08-16T09:43:00Z</time>
      </trkpt>
      <trkpt lat="44.94321" lon="2.18934">
        <ele>616.82</ele>
        <time>2021-08-16T09:43:10Z</time>
      </trkpt>
      <trkpt lat="44.9433" lon="2.18913">
        <ele>618.26</ele>
        <time>2021-08-16T09:43:21Z</time>
      </trkpt>
      <trkpt lat="44.94338" lon="2.18901">
        <ele>619.71</ele>
        <time>2021-08-16T09:43:29Z</time>
      </trkpt>
      <trkpt lat="44.94353" lon="2.18887">
        <ele>621.15</ele>
        <time>2021-08-16T09:43:39Z</time>
      </trkpt>
      <trkpt lat="44.94368" lon="2.18873">
        <ele>622.59</ele>
        <time>2021-08-16T09:43:49Z</time>
      </trkpt>
      <trkpt lat="44.94381" lon="2.18857">
        <ele>623.55</ele>
        <time>2021-08-16T09:43:58Z</time>
      </trkpt>
      <trkpt lat="44.94397" lon="2.18838">
        <ele>624.51</ele>
        <time>2021-08-16T09:44:08Z</time>
      </trkpt>
      <trkpt lat="44.94414" lon="2.18823">
        <ele>625.47</ele>
        <time>2021-08-16T09:44:18Z</time>
      </trkpt>
      <trkpt lat="44.94416" lon="2.1882">
        <ele>625.96</ele>
        <time>2021-08-16T09:44:20Z</time>
      </trkpt>
      <trkpt lat="44.94418" lon="2.18819">
        <ele>625.96</ele>
        <time>2021-08-16T09:44:21Z</time>
      </trkpt>
      <trkpt lat="44.94419" lon="2.18817">
        <ele>626.92</ele>
        <time>2021-08-16T09:44:22Z</time>
      </trkpt>
      <trkpt lat="44.94434" lon="2.18801">
        <ele>628.84</ele>
        <time>2021-08-16T09:44:31Z</time>
      </trkpt>
      <trkpt lat="44.94448" lon="2.18786">
        <ele>630.28</ele>
        <time>2021-08-16T09:44:39Z</time>
      </trkpt>
      <trkpt lat="44.94463" lon="2.1877">
        <ele>631.24</ele>
        <time>2021-08-16T09:44:48Z</time>
      </trkpt>
      <trkpt lat="44.94475" lon="2.18752">
        <ele>632.2</ele>
        <time>2021-08-16T09:44:56Z</time>
      </trkpt>
      <trkpt lat="44.94489" lon="2.18729">
        <ele>632.68</ele>
        <time>2021-08-16T09:45:04Z</time>
      </trkpt>
      <trkpt lat="44.94498" lon="2.187">
        <ele>632.68</ele>
        <time>2021-08-16T09:45:12Z</time>
      </trkpt>
      <trkpt lat="44.945" lon="2.18663">
        <ele>632.68</ele>
        <time>2021-08-16T09:45:21Z</time>
      </trkpt>
      <trkpt lat="44.94502" lon="2.18636">
        <ele>632.68</ele>
        <time>2021-08-16T09:45:28Z</time>
      </trkpt>
      <trkpt lat="44.94505" lon="2.186">
        <ele>632.68</ele>
        <time>2021-08-16T09:45:37Z</time>
      </trkpt>
      <trkpt lat="44.945" lon="2.18559">
        <ele>633.65</ele>
        <time>2021-08-16T09:45:45Z</time>
      </trkpt>
      <trkpt lat="44.94494" lon="2.18506">
        <ele>633.65</ele>
        <time>2021-08-16T09:45:55Z</time>
      </trkpt>
      <trkpt lat="44.94488" lon="2.18456">
        <ele>633.65</ele>
        <time>2021-08-16T09:46:04Z</time>
      </trkpt>
      <trkpt lat="44.94482" lon="2.18395">
        <ele>634.13</ele>
        <time>2021-08-16T09:46:15Z</time>
      </trkpt>
      <trkpt lat="44.94483" lon="2.18349">
        <ele>635.09</ele>
        <time>2021-08-16T09:46:24Z</time>
      </trkpt>
      <trkpt lat="44.94488" lon="2.1832">
        <ele>635.57</ele>
        <time>2021-08-16T09:46:31Z</time>
      </trkpt>
      <trkpt lat="44.94493" lon="2.18288">
        <ele>636.53</ele>
        <time>2021-08-16T09:46:38Z</time>
      </trkpt>
      <trkpt lat="44.94507" lon="2.18242">
        <ele>636.53</ele>
        <time>2021-08-16T09:46:46Z</time>
      </trkpt>
      <trkpt lat="44.94511" lon="2.1823">
        <ele>635.09</ele>
        <time>2021-08-16T09:46:48Z</time>
      </trkpt>
      <trkpt lat="44.94527" lon="2.18178">
        <ele>635.09</ele>
        <time>2021-08-16T09:46:57Z</time>
      </trkpt>
      <trkpt lat="44.94528" lon="2.18172">
        <ele>635.09</ele>
        <time>2021-08-16T09:46:58Z</time>
      </trkpt>
      <trkpt lat="44.94533" lon="2.18135">
        <ele>635.09</ele>
        <time>2021-08-16T09:47:04Z</time>
      </trkpt>
      <trkpt lat="44.94534" lon="2.18129">
        <ele>635.09</ele>
        <time>2021-08-16T09:47:05Z</time>
      </trkpt>
      <trkpt lat="44.94539" lon="2.18094">
        <ele>636.53</ele>
        <time>2021-08-16T09:47:11Z</time>
      </trkpt>
      <trkpt lat="44.94544" lon="2.18072">
        <ele>636.05</ele>
        <time>2021-08-16T09:47:15Z</time>
      </trkpt>
      <trkpt lat="44.94555" lon="2.18039">
        <ele>637.49</ele>
        <time>2021-08-16T09:47:22Z</time>
      </trkpt>
      <trkpt lat="44.94569" lon="2.17999">
        <ele>638.45</ele>
        <time>2021-08-16T09:47:31Z</time>
      </trkpt>
      <trkpt lat="44.94575" lon="2.17966">
        <ele>639.89</ele>
        <time>2021-08-16T09:47:39Z</time>
      </trkpt>
      <trkpt lat="44.9458" lon="2.17927">
        <ele>640.86</ele>
        <time>2021-08-16T09:47:48Z</time>
      </trkpt>
      <trkpt lat="44.94595" lon="2.1789">
        <ele>640.86</ele>
        <time>2021-08-16T09:47:56Z</time>
      </trkpt>
      <trkpt lat="44.94615" lon="2.17864">
        <ele>643.26</ele>
        <time>2021-08-16T09:48:05Z</time>
      </trkpt>
      <trkpt lat="44.94643" lon="2.17843">
        <ele>645.18</ele>
        <time>2021-08-16T09:48:16Z</time>
      </trkpt>
      <trkpt lat="44.9467" lon="2.17828">
        <ele>646.62</ele>
        <time>2021-08-16T09:48:26Z</time>
      </trkpt>
      <trkpt lat="44.94694" lon="2.17812">
        <ele>648.07</ele>
        <time>2021-08-16T09:48:35Z</time>
      </trkpt>
      <trkpt lat="44.94714" lon="2.17793">
        <ele>649.03</ele>
        <time>2021-08-16T09:48:43Z</time>
      </trkpt>
      <trkpt lat="44.94739" lon="2.17771">
        <ele>650.47</ele>
        <time>2021-08-16T09:48:53Z</time>
      </trkpt>
      <trkpt lat="44.94768" lon="2.17752">
        <ele>651.91</ele>
        <time>2021-08-16T09:49:04Z</time>
      </trkpt>
      <trkpt lat="44.94794" lon="2.17746">
        <ele>653.83</ele>
        <time>2021-08-16T09:49:13Z</time>
      </trkpt>
      <trkpt lat="44.94815" lon="2.17748">
        <ele>653.83</ele>
        <time>2021-08-16T09:49:19Z</time>
      </trkpt>
      <trkpt lat="44.94845" lon="2.17755">
        <ele>653.83</ele>
        <time>2021-08-16T09:49:26Z</time>
      </trkpt>
      <trkpt lat="44.94894" lon="2.17767">
        <ele>653.83</ele>
        <time>2021-08-16T09:49:36Z</time>
      </trkpt>
      <trkpt lat="44.94946" lon="2.17781">
        <ele>652.39</ele>
        <time>2021-08-16T09:49:46Z</time>
      </trkpt>
      <trkpt lat="44.94994" lon="2.17798">
        <ele>649.51</ele>
        <time>2021-08-16T09:49:54Z</time>
      </trkpt>
      <trkpt lat="44.95007" lon="2.17806">
        <ele>648.55</ele>
        <time>2021-08-16T09:49:56Z</time>
      </trkpt>
      <trkpt lat="44.95013" lon="2.17812">
        <ele>648.55</ele>
        <time>2021-08-16T09:49:57Z</time>
      </trkpt>
      <trkpt lat="44.95019" lon="2.17818">
        <ele>648.55</ele>
        <time>2021-08-16T09:49:58Z</time>
      </trkpt>
      <trkpt lat="44.95026" lon="2.17822">
        <ele>647.59</ele>
        <time>2021-08-16T09:49:59Z</time>
      </trkpt>
      <trkpt lat="44.95034" lon="2.17825">
        <ele>646.62</ele>
        <time>2021-08-16T09:50:00Z</time>
      </trkpt>
      <trkpt lat="44.95041" lon="2.17827">
        <ele>645.66</ele>
        <time>2021-08-16T09:50:01Z</time>
      </trkpt>
      <trkpt lat="44.95093" lon="2.17844">
        <ele>642.78</ele>
        <time>2021-08-16T09:50:08Z</time>
      </trkpt>
      <trkpt lat="44.95098" lon="2.17848">
        <ele>642.3</ele>
        <time>2021-08-16T09:50:09Z</time>
      </trkpt>
      <trkpt lat="44.95103" lon="2.17853">
        <ele>641.34</ele>
        <time>2021-08-16T09:50:10Z</time>
      </trkpt>
      <trkpt lat="44.95106" lon="2.17859">
        <ele>641.34</ele>
        <time>2021-08-16T09:50:11Z</time>
      </trkpt>
      <trkpt lat="44.95107" lon="2.17864">
        <ele>640.86</ele>
        <time>2021-08-16T09:50:12Z</time>
      </trkpt>
      <trkpt lat="44.95109" lon="2.17871">
        <ele>639.89</ele>
        <time>2021-08-16T09:50:13Z</time>
      </trkpt>
      <trkpt lat="44.9511" lon="2.17878">
        <ele>639.41</ele>
        <time>2021-08-16T09:50:14Z</time>
      </trkpt>
      <trkpt lat="44.95112" lon="2.17884">
        <ele>638.93</ele>
        <time>2021-08-16T09:50:15Z</time>
      </trkpt>
      <trkpt lat="44.95115" lon="2.1789">
        <ele>637.97</ele>
        <time>2021-08-16T09:50:16Z</time>
      </trkpt>
      <trkpt lat="44.95118" lon="2.17896">
        <ele>637.97</ele>
        <time>2021-08-16T09:50:17Z</time>
      </trkpt>
      <trkpt lat="44.95127" lon="2.17908">
        <ele>637.01</ele>
        <time>2021-08-16T09:50:19Z</time>
      </trkpt>
      <trkpt lat="44.95132" lon="2.17912">
        <ele>637.01</ele>
        <time>2021-08-16T09:50:20Z</time>
      </trkpt>
      <trkpt lat="44.95144" lon="2.17919">
        <ele>636.05</ele>
        <time>2021-08-16T09:50:22Z</time>
      </trkpt>
      <trkpt lat="44.95171" lon="2.17937">
        <ele>635.09</ele>
        <time>2021-08-16T09:50:27Z</time>
      </trkpt>
      <trkpt lat="44.95203" lon="2.17968">
        <ele>633.17</ele>
        <time>2021-08-16T09:50:33Z</time>
      </trkpt>
      <trkpt lat="44.95245" lon="2.17995">
        <ele>632.68</ele>
        <time>2021-08-16T09:50:40Z</time>
      </trkpt>
      <trkpt lat="44.9527" lon="2.18012">
        <ele>632.2</ele>
        <time>2021-08-16T09:50:44Z</time>
      </trkpt>
      <trkpt lat="44.95301" lon="2.18051">
        <ele>630.76</ele>
        <time>2021-08-16T09:50:51Z</time>
      </trkpt>
      <trkpt lat="44.95308" lon="2.18063">
        <ele>630.76</ele>
        <time>2021-08-16T09:50:53Z</time>
      </trkpt>
      <trkpt lat="44.95313" lon="2.18068">
        <ele>630.28</ele>
        <time>2021-08-16T09:50:54Z</time>
      </trkpt>
      <trkpt lat="44.95317" lon="2.18071">
        <ele>629.32</ele>
        <time>2021-08-16T09:50:55Z</time>
      </trkpt>
      <trkpt lat="44.95333" lon="2.18083">
        <ele>626.44</ele>
        <time>2021-08-16T09:50:58Z</time>
      </trkpt>
      <trkpt lat="44.95345" lon="2.18093">
        <ele>624.03</ele>
        <time>2021-08-16T09:51:00Z</time>
      </trkpt>
      <trkpt lat="44.95351" lon="2.18098">
        <ele>623.55</ele>
        <time>2021-08-16T09:51:01Z</time>
      </trkpt>
      <trkpt lat="44.95358" lon="2.18102">
        <ele>623.55</ele>
        <time>2021-08-16T09:51:02Z</time>
      </trkpt>
      <trkpt lat="44.95364" lon="2.18104">
        <ele>623.07</ele>
        <time>2021-08-16T09:51:03Z</time>
      </trkpt>
      <trkpt lat="44.95372" lon="2.18106">
        <ele>622.11</ele>
        <time>2021-08-16T09:51:04Z</time>
      </trkpt>
      <trkpt lat="44.95387" lon="2.1811">
        <ele>621.63</ele>
        <time>2021-08-16T09:51:06Z</time>
      </trkpt>
      <trkpt lat="44.95392" lon="2.18114">
        <ele>621.15</ele>
        <time>2021-08-16T09:51:07Z</time>
      </trkpt>
      <trkpt lat="44.95399" lon="2.18119">
        <ele>620.19</ele>
        <time>2021-08-16T09:51:08Z</time>
      </trkpt>
      <trkpt lat="44.95404" lon="2.18124">
        <ele>620.19</ele>
        <time>2021-08-16T09:51:09Z</time>
      </trkpt>
      <trkpt lat="44.9541" lon="2.1813">
        <ele>619.71</ele>
        <time>2021-08-16T09:51:10Z</time>
      </trkpt>
      <trkpt lat="44.95415" lon="2.18137">
        <ele>619.71</ele>
        <time>2021-08-16T09:51:11Z</time>
      </trkpt>
      <trkpt lat="44.95421" lon="2.18143">
        <ele>618.75</ele>
        <time>2021-08-16T09:51:12Z</time>
      </trkpt>
      <trkpt lat="44.95427" lon="2.18148">
        <ele>618.75</ele>
        <time>2021-08-16T09:51:13Z</time>
      </trkpt>
      <trkpt lat="44.95434" lon="2.18152">
        <ele>617.78</ele>
        <time>2021-08-16T09:51:14Z</time>
      </trkpt>
      <trkpt lat="44.95441" lon="2.18155">
        <ele>616.82</ele>
        <time>2021-08-16T09:51:15Z</time>
      </trkpt>
      <trkpt lat="44.95448" lon="2.18158">
        <ele>616.82</ele>
        <time>2021-08-16T09:51:16Z</time>
      </trkpt>
      <trkpt lat="44.95495" lon="2.18186">
        <ele>615.38</ele>
        <time>2021-08-16T09:51:23Z</time>
      </trkpt>
      <trkpt lat="44.95502" lon="2.18188">
        <ele>615.86</ele>
        <time>2021-08-16T09:51:24Z</time>
      </trkpt>
      <trkpt lat="44.95509" lon="2.18189">
        <ele>614.9</ele>
        <time>2021-08-16T09:51:25Z</time>
      </trkpt>
      <trkpt lat="44.9555" lon="2.18195">
        <ele>614.42</ele>
        <time>2021-08-16T09:51:31Z</time>
      </trkpt>
      <trkpt lat="44.95564" lon="2.18192">
        <ele>612.98</ele>
        <time>2021-08-16T09:51:33Z</time>
      </trkpt>
      <trkpt lat="44.95571" lon="2.1819">
        <ele>612.5</ele>
        <time>2021-08-16T09:51:34Z</time>
      </trkpt>
      <trkpt lat="44.95578" lon="2.18187">
        <ele>612.02</ele>
        <time>2021-08-16T09:51:35Z</time>
      </trkpt>
      <trkpt lat="44.95618" lon="2.18164">
        <ele>610.09</ele>
        <time>2021-08-16T09:51:41Z</time>
      </trkpt>
      <trkpt lat="44.95645" lon="2.18145">
        <ele>608.17</ele>
        <time>2021-08-16T09:51:45Z</time>
      </trkpt>
      <trkpt lat="44.95653" lon="2.18141">
        <ele>606.73</ele>
        <time>2021-08-16T09:51:46Z</time>
      </trkpt>
      <trkpt lat="44.95659" lon="2.18139">
        <ele>606.25</ele>
        <time>2021-08-16T09:51:47Z</time>
      </trkpt>
      <trkpt lat="44.95677" lon="2.18133">
        <ele>602.88</ele>
        <time>2021-08-16T09:51:50Z</time>
      </trkpt>
      <trkpt lat="44.95682" lon="2.18129">
        <ele>601.44</ele>
        <time>2021-08-16T09:51:51Z</time>
      </trkpt>
      <trkpt lat="44.95688" lon="2.18124">
        <ele>600</ele>
        <time>2021-08-16T09:51:52Z</time>
      </trkpt>
      <trkpt lat="44.95694" lon="2.1812">
        <ele>598.56</ele>
        <time>2021-08-16T09:51:53Z</time>
      </trkpt>
      <trkpt lat="44.95701" lon="2.18117">
        <ele>597.6</ele>
        <time>2021-08-16T09:51:54Z</time>
      </trkpt>
      <trkpt lat="44.95708" lon="2.18116">
        <ele>596.64</ele>
        <time>2021-08-16T09:51:55Z</time>
      </trkpt>
      <trkpt lat="44.95715" lon="2.18115">
        <ele>595.19</ele>
        <time>2021-08-16T09:51:56Z</time>
      </trkpt>
      <trkpt lat="44.95729" lon="2.18116">
        <ele>593.27</ele>
        <time>2021-08-16T09:51:58Z</time>
      </trkpt>
      <trkpt lat="44.95749" lon="2.18121">
        <ele>589.91</ele>
        <time>2021-08-16T09:52:01Z</time>
      </trkpt>
      <trkpt lat="44.95763" lon="2.18126">
        <ele>587.5</ele>
        <time>2021-08-16T09:52:03Z</time>
      </trkpt>
      <trkpt lat="44.9577" lon="2.18129">
        <ele>586.54</ele>
        <time>2021-08-16T09:52:04Z</time>
      </trkpt>
      <trkpt lat="44.9579" lon="2.18139">
        <ele>583.66</ele>
        <time>2021-08-16T09:52:07Z</time>
      </trkpt>
      <trkpt lat="44.95807" lon="2.18144">
        <ele>582.7</ele>
        <time>2021-08-16T09:52:09Z</time>
      </trkpt>
      <trkpt lat="44.95815" lon="2.18145">
        <ele>581.73</ele>
        <time>2021-08-16T09:52:10Z</time>
      </trkpt>
      <trkpt lat="44.95834" lon="2.18144">
        <ele>581.25</ele>
        <time>2021-08-16T09:52:12Z</time>
      </trkpt>
      <trkpt lat="44.95843" lon="2.18145">
        <ele>580.77</ele>
        <time>2021-08-16T09:52:13Z</time>
      </trkpt>
      <trkpt lat="44.95851" lon="2.18148">
        <ele>580.77</ele>
        <time>2021-08-16T09:52:14Z</time>
      </trkpt>
      <trkpt lat="44.9586" lon="2.18154">
        <ele>580.29</ele>
        <time>2021-08-16T09:52:15Z</time>
      </trkpt>
      <trkpt lat="44.95869" lon="2.1816">
        <ele>579.33</ele>
        <time>2021-08-16T09:52:16Z</time>
      </trkpt>
      <trkpt lat="44.95876" lon="2.18164">
        <ele>579.33</ele>
        <time>2021-08-16T09:52:17Z</time>
      </trkpt>
      <trkpt lat="44.95885" lon="2.18169">
        <ele>578.85</ele>
        <time>2021-08-16T09:52:18Z</time>
      </trkpt>
      <trkpt lat="44.95893" lon="2.18173">
        <ele>578.37</ele>
        <time>2021-08-16T09:52:19Z</time>
      </trkpt>
      <trkpt lat="44.959" lon="2.18177">
        <ele>577.89</ele>
        <time>2021-08-16T09:52:20Z</time>
      </trkpt>
      <trkpt lat="44.95915" lon="2.18185">
        <ele>575.97</ele>
        <time>2021-08-16T09:52:22Z</time>
      </trkpt>
      <trkpt lat="44.95921" lon="2.1819">
        <ele>575.01</ele>
        <time>2021-08-16T09:52:23Z</time>
      </trkpt>
      <trkpt lat="44.95946" lon="2.18219">
        <ele>571.64</ele>
        <time>2021-08-16T09:52:27Z</time>
      </trkpt>
      <trkpt lat="44.95968" lon="2.18247">
        <ele>567.8</ele>
        <time>2021-08-16T09:52:30Z</time>
      </trkpt>
      <trkpt lat="44.95976" lon="2.18254">
        <ele>566.83</ele>
        <time>2021-08-16T09:52:31Z</time>
      </trkpt>
      <trkpt lat="44.95982" lon="2.18259">
        <ele>565.39</ele>
        <time>2021-08-16T09:52:32Z</time>
      </trkpt>
      <trkpt lat="44.95992" lon="2.18264">
        <ele>563.95</ele>
        <time>2021-08-16T09:52:33Z</time>
      </trkpt>
      <trkpt lat="44.96001" lon="2.18268">
        <ele>562.99</ele>
        <time>2021-08-16T09:52:34Z</time>
      </trkpt>
      <trkpt lat="44.96008" lon="2.18272">
        <ele>561.55</ele>
        <time>2021-08-16T09:52:35Z</time>
      </trkpt>
      <trkpt lat="44.96017" lon="2.18278">
        <ele>560.11</ele>
        <time>2021-08-16T09:52:36Z</time>
      </trkpt>
      <trkpt lat="44.96036" lon="2.18289">
        <ele>556.74</ele>
        <time>2021-08-16T09:52:39Z</time>
      </trkpt>
      <trkpt lat="44.96041" lon="2.18293">
        <ele>555.3</ele>
        <time>2021-08-16T09:52:40Z</time>
      </trkpt>
      <trkpt lat="44.96046" lon="2.18299">
        <ele>553.86</ele>
        <time>2021-08-16T09:52:41Z</time>
      </trkpt>
      <trkpt lat="44.96052" lon="2.18307">
        <ele>552.41</ele>
        <time>2021-08-16T09:52:42Z</time>
      </trkpt>
      <trkpt lat="44.96071" lon="2.18334">
        <ele>548.09</ele>
        <time>2021-08-16T09:52:45Z</time>
      </trkpt>
      <trkpt lat="44.96077" lon="2.18341">
        <ele>548.09</ele>
        <time>2021-08-16T09:52:46Z</time>
      </trkpt>
      <trkpt lat="44.96084" lon="2.18347">
        <ele>546.65</ele>
        <time>2021-08-16T09:52:47Z</time>
      </trkpt>
      <trkpt lat="44.96092" lon="2.18352">
        <ele>546.17</ele>
        <time>2021-08-16T09:52:48Z</time>
      </trkpt>
      <trkpt lat="44.961" lon="2.18355">
        <ele>545.69</ele>
        <time>2021-08-16T09:52:49Z</time>
      </trkpt>
      <trkpt lat="44.9611" lon="2.18359">
        <ele>545.2</ele>
        <time>2021-08-16T09:52:50Z</time>
      </trkpt>
      <trkpt lat="44.96136" lon="2.18369">
        <ele>541.36</ele>
        <time>2021-08-16T09:52:53Z</time>
      </trkpt>
      <trkpt lat="44.9616" lon="2.18384">
        <ele>537.51</ele>
        <time>2021-08-16T09:52:56Z</time>
      </trkpt>
      <trkpt lat="44.96178" lon="2.18399">
        <ele>534.15</ele>
        <time>2021-08-16T09:52:58Z</time>
      </trkpt>
      <trkpt lat="44.96198" lon="2.18413">
        <ele>531.27</ele>
        <time>2021-08-16T09:53:00Z</time>
      </trkpt>
      <trkpt lat="44.96227" lon="2.18432">
        <ele>529.82</ele>
        <time>2021-08-16T09:53:03Z</time>
      </trkpt>
      <trkpt lat="44.96284" lon="2.18469">
        <ele>528.38</ele>
        <time>2021-08-16T09:53:09Z</time>
      </trkpt>
      <trkpt lat="44.96309" lon="2.18486">
        <ele>528.38</ele>
        <time>2021-08-16T09:53:12Z</time>
      </trkpt>
      <trkpt lat="44.96316" lon="2.18493">
        <ele>528.38</ele>
        <time>2021-08-16T09:53:13Z</time>
      </trkpt>
      <trkpt lat="44.96323" lon="2.18501">
        <ele>527.9</ele>
        <time>2021-08-16T09:53:14Z</time>
      </trkpt>
      <trkpt lat="44.96329" lon="2.1851">
        <ele>527.9</ele>
        <time>2021-08-16T09:53:15Z</time>
      </trkpt>
      <trkpt lat="44.96334" lon="2.18519">
        <ele>527.9</ele>
        <time>2021-08-16T09:53:16Z</time>
      </trkpt>
      <trkpt lat="44.96338" lon="2.18529">
        <ele>527.42</ele>
        <time>2021-08-16T09:53:17Z</time>
      </trkpt>
      <trkpt lat="44.96348" lon="2.18545">
        <ele>527.42</ele>
        <time>2021-08-16T09:53:19Z</time>
      </trkpt>
      <trkpt lat="44.96358" lon="2.18559">
        <ele>527.42</ele>
        <time>2021-08-16T09:53:21Z</time>
      </trkpt>
      <trkpt lat="44.96384" lon="2.18581">
        <ele>527.42</ele>
        <time>2021-08-16T09:53:26Z</time>
      </trkpt>
      <trkpt lat="44.96389" lon="2.18583">
        <ele>527.42</ele>
        <time>2021-08-16T09:53:27Z</time>
      </trkpt>
      <trkpt lat="44.964" lon="2.18586">
        <ele>527.42</ele>
        <time>2021-08-16T09:53:29Z</time>
      </trkpt>
      <trkpt lat="44.96435" lon="2.18595">
        <ele>528.38</ele>
        <time>2021-08-16T09:53:36Z</time>
      </trkpt>
      <trkpt lat="44.96448" lon="2.186">
        <ele>528.38</ele>
        <time>2021-08-16T09:53:39Z</time>
      </trkpt>
      <trkpt lat="44.96453" lon="2.18603">
        <ele>528.38</ele>
        <time>2021-08-16T09:53:40Z</time>
      </trkpt>
      <trkpt lat="44.96463" lon="2.1861">
        <ele>528.38</ele>
        <time>2021-08-16T09:53:42Z</time>
      </trkpt>
      <trkpt lat="44.96494" lon="2.18629">
        <ele>525.02</ele>
        <time>2021-08-16T09:53:47Z</time>
      </trkpt>
      <trkpt lat="44.96524" lon="2.18649">
        <ele>522.13</ele>
        <time>2021-08-16T09:53:51Z</time>
      </trkpt>
      <trkpt lat="44.96538" lon="2.18661">
        <ele>520.21</ele>
        <time>2021-08-16T09:53:53Z</time>
      </trkpt>
      <trkpt lat="44.96544" lon="2.18668">
        <ele>519.25</ele>
        <time>2021-08-16T09:53:54Z</time>
      </trkpt>
      <trkpt lat="44.96569" lon="2.18697">
        <ele>517.81</ele>
        <time>2021-08-16T09:53:58Z</time>
      </trkpt>
      <trkpt lat="44.96573" lon="2.18704">
        <ele>516.85</ele>
        <time>2021-08-16T09:53:59Z</time>
      </trkpt>
      <trkpt lat="44.96577" lon="2.18711">
        <ele>516.37</ele>
        <time>2021-08-16T09:54:00Z</time>
      </trkpt>
      <trkpt lat="44.96581" lon="2.18719">
        <ele>515.88</ele>
        <time>2021-08-16T09:54:01Z</time>
      </trkpt>
      <trkpt lat="44.96583" lon="2.18728">
        <ele>515.4</ele>
        <time>2021-08-16T09:54:02Z</time>
      </trkpt>
      <trkpt lat="44.96585" lon="2.18735">
        <ele>515.4</ele>
        <time>2021-08-16T09:54:03Z</time>
      </trkpt>
      <trkpt lat="44.96586" lon="2.18743">
        <ele>514.92</ele>
        <time>2021-08-16T09:54:04Z</time>
      </trkpt>
      <trkpt lat="44.96586" lon="2.18752">
        <ele>514.44</ele>
        <time>2021-08-16T09:54:05Z</time>
      </trkpt>
      <trkpt lat="44.96586" lon="2.1876">
        <ele>513.96</ele>
        <time>2021-08-16T09:54:06Z</time>
      </trkpt>
      <trkpt lat="44.96584" lon="2.18769">
        <ele>513</ele>
        <time>2021-08-16T09:54:07Z</time>
      </trkpt>
      <trkpt lat="44.96582" lon="2.18778">
        <ele>512.04</ele>
        <time>2021-08-16T09:54:08Z</time>
      </trkpt>
      <trkpt lat="44.96578" lon="2.18788">
        <ele>510.6</ele>
        <time>2021-08-16T09:54:09Z</time>
      </trkpt>
      <trkpt lat="44.96572" lon="2.18808">
        <ele>509.16</ele>
        <time>2021-08-16T09:54:11Z</time>
      </trkpt>
      <trkpt lat="44.96562" lon="2.18829">
        <ele>507.71</ele>
        <time>2021-08-16T09:54:13Z</time>
      </trkpt>
      <trkpt lat="44.96559" lon="2.18837">
        <ele>507.71</ele>
        <time>2021-08-16T09:54:14Z</time>
      </trkpt>
      <trkpt lat="44.96549" lon="2.18862">
        <ele>506.27</ele>
        <time>2021-08-16T09:54:18Z</time>
      </trkpt>
      <trkpt lat="44.96546" lon="2.1887">
        <ele>505.79</ele>
        <time>2021-08-16T09:54:19Z</time>
      </trkpt>
      <trkpt lat="44.96541" lon="2.18888">
        <ele>504.83</ele>
        <time>2021-08-16T09:54:21Z</time>
      </trkpt>
      <trkpt lat="44.96537" lon="2.18929">
        <ele>502.91</ele>
        <time>2021-08-16T09:54:26Z</time>
      </trkpt>
      <trkpt lat="44.96532" lon="2.18954">
        <ele>499.06</ele>
        <time>2021-08-16T09:54:30Z</time>
      </trkpt>
      <trkpt lat="44.96531" lon="2.18962">
        <ele>498.1</ele>
        <time>2021-08-16T09:54:31Z</time>
      </trkpt>
      <trkpt lat="44.96532" lon="2.18969">
        <ele>497.14</ele>
        <time>2021-08-16T09:54:32Z</time>
      </trkpt>
      <trkpt lat="44.96533" lon="2.18976">
        <ele>496.18</ele>
        <time>2021-08-16T09:54:33Z</time>
      </trkpt>
      <trkpt lat="44.96535" lon="2.18993">
        <ele>494.26</ele>
        <time>2021-08-16T09:54:36Z</time>
      </trkpt>
      <trkpt lat="44.96534" lon="2.18998">
        <ele>493.29</ele>
        <time>2021-08-16T09:54:37Z</time>
      </trkpt>
      <trkpt lat="44.96531" lon="2.19">
        <ele>493.29</ele>
        <time>2021-08-16T09:54:38Z</time>
      </trkpt>
      <trkpt lat="44.96528" lon="2.19002">
        <ele>491.85</ele>
        <time>2021-08-16T09:54:39Z</time>
      </trkpt>
      <trkpt lat="44.96511" lon="2.19007">
        <ele>489.93</ele>
        <time>2021-08-16T09:54:42Z</time>
      </trkpt>
      <trkpt lat="44.96507" lon="2.1901">
        <ele>489.45</ele>
        <time>2021-08-16T09:54:43Z</time>
      </trkpt>
      <trkpt lat="44.96497" lon="2.19016">
        <ele>488.49</ele>
        <time>2021-08-16T09:54:45Z</time>
      </trkpt>
      <trkpt lat="44.96493" lon="2.19022">
        <ele>487.05</ele>
        <time>2021-08-16T09:54:46Z</time>
      </trkpt>
      <trkpt lat="44.96489" lon="2.19029">
        <ele>486.56</ele>
        <time>2021-08-16T09:54:47Z</time>
      </trkpt>
      <trkpt lat="44.96488" lon="2.19036">
        <ele>485.6</ele>
        <time>2021-08-16T09:54:48Z</time>
      </trkpt>
      <trkpt lat="44.96489" lon="2.19044">
        <ele>484.64</ele>
        <time>2021-08-16T09:54:49Z</time>
      </trkpt>
      <trkpt lat="44.9649" lon="2.19052">
        <ele>483.68</ele>
        <time>2021-08-16T09:54:50Z</time>
      </trkpt>
      <trkpt lat="44.96491" lon="2.1906">
        <ele>482.72</ele>
        <time>2021-08-16T09:54:51Z</time>
      </trkpt>
      <trkpt lat="44.96492" lon="2.19067">
        <ele>482.24</ele>
        <time>2021-08-16T09:54:52Z</time>
      </trkpt>
      <trkpt lat="44.96495" lon="2.19072">
        <ele>481.28</ele>
        <time>2021-08-16T09:54:53Z</time>
      </trkpt>
      <trkpt lat="44.96498" lon="2.19077">
        <ele>480.8</ele>
        <time>2021-08-16T09:54:54Z</time>
      </trkpt>
      <trkpt lat="44.96501" lon="2.19079">
        <ele>480.32</ele>
        <time>2021-08-16T09:54:55Z</time>
      </trkpt>
      <trkpt lat="44.96505" lon="2.1908">
        <ele>479.35</ele>
        <time>2021-08-16T09:54:56Z</time>
      </trkpt>
      <trkpt lat="44.96508" lon="2.1908">
        <ele>478.87</ele>
        <time>2021-08-16T09:54:57Z</time>
      </trkpt>
      <trkpt lat="44.96513" lon="2.19079">
        <ele>478.39</ele>
        <time>2021-08-16T09:54:58Z</time>
      </trkpt>
      <trkpt lat="44.96518" lon="2.19077">
        <ele>477.91</ele>
        <time>2021-08-16T09:54:59Z</time>
      </trkpt>
      <trkpt lat="44.96523" lon="2.19073">
        <ele>476.95</ele>
        <time>2021-08-16T09:55:00Z</time>
      </trkpt>
      <trkpt lat="44.96534" lon="2.19066">
        <ele>476.47</ele>
        <time>2021-08-16T09:55:02Z</time>
      </trkpt>
      <trkpt lat="44.9657" lon="2.19043">
        <ele>474.07</ele>
        <time>2021-08-16T09:55:08Z</time>
      </trkpt>
      <trkpt lat="44.96611" lon="2.19007">
        <ele>473.11</ele>
        <time>2021-08-16T09:55:15Z</time>
      </trkpt>
      <trkpt lat="44.9663" lon="2.18992">
        <ele>471.66</ele>
        <time>2021-08-16T09:55:18Z</time>
      </trkpt>
      <trkpt lat="44.96645" lon="2.18981">
        <ele>469.74</ele>
        <time>2021-08-16T09:55:20Z</time>
      </trkpt>
      <trkpt lat="44.96653" lon="2.18973">
        <ele>468.78</ele>
        <time>2021-08-16T09:55:21Z</time>
      </trkpt>
      <trkpt lat="44.9666" lon="2.18965">
        <ele>468.3</ele>
        <time>2021-08-16T09:55:22Z</time>
      </trkpt>
      <trkpt lat="44.96666" lon="2.18956">
        <ele>467.34</ele>
        <time>2021-08-16T09:55:23Z</time>
      </trkpt>
      <trkpt lat="44.96672" lon="2.18946">
        <ele>466.86</ele>
        <time>2021-08-16T09:55:24Z</time>
      </trkpt>
      <trkpt lat="44.96677" lon="2.18935">
        <ele>466.38</ele>
        <time>2021-08-16T09:55:25Z</time>
      </trkpt>
      <trkpt lat="44.96682" lon="2.18923">
        <ele>465.9</ele>
        <time>2021-08-16T09:55:26Z</time>
      </trkpt>
      <trkpt lat="44.96686" lon="2.18912">
        <ele>465.9</ele>
        <time>2021-08-16T09:55:27Z</time>
      </trkpt>
      <trkpt lat="44.96714" lon="2.18828">
        <ele>463.97</ele>
        <time>2021-08-16T09:55:35Z</time>
      </trkpt>
      <trkpt lat="44.96716" lon="2.18818">
        <ele>463.49</ele>
        <time>2021-08-16T09:55:36Z</time>
      </trkpt>
      <trkpt lat="44.96718" lon="2.18806">
        <ele>462.53</ele>
        <time>2021-08-16T09:55:37Z</time>
      </trkpt>
      <trkpt lat="44.96719" lon="2.18794">
        <ele>461.57</ele>
        <time>2021-08-16T09:55:38Z</time>
      </trkpt>
      <trkpt lat="44.9672" lon="2.18782">
        <ele>461.57</ele>
        <time>2021-08-16T09:55:39Z</time>
      </trkpt>
      <trkpt lat="44.96722" lon="2.18772">
        <ele>460.13</ele>
        <time>2021-08-16T09:55:40Z</time>
      </trkpt>
      <trkpt lat="44.96725" lon="2.18762">
        <ele>460.13</ele>
        <time>2021-08-16T09:55:41Z</time>
      </trkpt>
      <trkpt lat="44.9673" lon="2.18754">
        <ele>459.65</ele>
        <time>2021-08-16T09:55:42Z</time>
      </trkpt>
      <trkpt lat="44.96736" lon="2.18746">
        <ele>459.17</ele>
        <time>2021-08-16T09:55:43Z</time>
      </trkpt>
      <trkpt lat="44.9674" lon="2.18737">
        <ele>459.17</ele>
        <time>2021-08-16T09:55:44Z</time>
      </trkpt>
      <trkpt lat="44.96744" lon="2.18726">
        <ele>457.72</ele>
        <time>2021-08-16T09:55:45Z</time>
      </trkpt>
      <trkpt lat="44.96762" lon="2.18661">
        <ele>454.36</ele>
        <time>2021-08-16T09:55:51Z</time>
      </trkpt>
      <trkpt lat="44.96766" lon="2.18649">
        <ele>453.4</ele>
        <time>2021-08-16T09:55:53Z</time>
      </trkpt>
      <trkpt lat="44.96768" lon="2.18645">
        <ele>452.92</ele>
        <time>2021-08-16T09:55:54Z</time>
      </trkpt>
      <trkpt lat="44.96772" lon="2.18645">
        <ele>452.92</ele>
        <time>2021-08-16T09:55:55Z</time>
      </trkpt>
      <trkpt lat="44.96775" lon="2.18649">
        <ele>452.92</ele>
        <time>2021-08-16T09:55:56Z</time>
      </trkpt>
      <trkpt lat="44.96776" lon="2.18651">
        <ele>452.92</ele>
        <time>2021-08-16T09:55:57Z</time>
      </trkpt>
      <trkpt lat="44.96776" lon="2.18656">
        <ele>452.92</ele>
        <time>2021-08-16T09:55:58Z</time>
      </trkpt>
      <trkpt lat="44.96775" lon="2.18667">
        <ele>451.96</ele>
        <time>2021-08-16T09:56:00Z</time>
      </trkpt>
      <trkpt lat="44.96763" lon="2.18712">
        <ele>450.03</ele>
        <time>2021-08-16T09:56:06Z</time>
      </trkpt>
      <trkpt lat="44.96755" lon="2.18771">
        <ele>447.63</ele>
        <time>2021-08-16T09:56:12Z</time>
      </trkpt>
      <trkpt lat="44.96751" lon="2.18806">
        <ele>446.19</ele>
        <time>2021-08-16T09:56:15Z</time>
      </trkpt>
      <trkpt lat="44.9674" lon="2.18875">
        <ele>444.27</ele>
        <time>2021-08-16T09:56:21Z</time>
      </trkpt>
      <trkpt lat="44.96732" lon="2.189">
        <ele>445.71</ele>
        <time>2021-08-16T09:56:24Z</time>
      </trkpt>
      <trkpt lat="44.96722" lon="2.18931">
        <ele>447.63</ele>
        <time>2021-08-16T09:56:30Z</time>
      </trkpt>
      <trkpt lat="44.96721" lon="2.18942">
        <ele>448.11</ele>
        <time>2021-08-16T09:56:33Z</time>
      </trkpt>
      <trkpt lat="44.96723" lon="2.18947">
        <ele>448.11</ele>
        <time>2021-08-16T09:56:34Z</time>
      </trkpt>
      <trkpt lat="44.96725" lon="2.18951">
        <ele>448.59</ele>
        <time>2021-08-16T09:56:35Z</time>
      </trkpt>
      <trkpt lat="44.96728" lon="2.18954">
        <ele>448.59</ele>
        <time>2021-08-16T09:56:36Z</time>
      </trkpt>
      <trkpt lat="44.96731" lon="2.18957">
        <ele>449.07</ele>
        <time>2021-08-16T09:56:37Z</time>
      </trkpt>
      <trkpt lat="44.96734" lon="2.1896">
        <ele>449.07</ele>
        <time>2021-08-16T09:56:38Z</time>
      </trkpt>
      <trkpt lat="44.96768" lon="2.1899">
        <ele>449.07</ele>
        <time>2021-08-16T09:56:47Z</time>
      </trkpt>
      <trkpt lat="44.96792" lon="2.19012">
        <ele>447.15</ele>
        <time>2021-08-16T09:56:53Z</time>
      </trkpt>
      <trkpt lat="44.96795" lon="2.19017">
        <ele>447.15</ele>
        <time>2021-08-16T09:56:55Z</time>
      </trkpt>
      <trkpt lat="44.96797" lon="2.19017">
        <ele>447.15</ele>
        <time>2021-08-16T09:56:56Z</time>
      </trkpt>
      <trkpt lat="44.96799" lon="2.19015">
        <ele>447.15</ele>
        <time>2021-08-16T09:56:57Z</time>
      </trkpt>
      <trkpt lat="44.96801" lon="2.19013">
        <ele>447.15</ele>
        <time>2021-08-16T09:56:58Z</time>
      </trkpt>
      <trkpt lat="44.96802" lon="2.1901">
        <ele>447.15</ele>
        <time>2021-08-16T09:56:59Z</time>
      </trkpt>
      <trkpt lat="44.96803" lon="2.19007">
        <ele>447.15</ele>
        <time>2021-08-16T09:57:00Z</time>
      </trkpt>
      <trkpt lat="44.96805" lon="2.19004">
        <ele>447.15</ele>
        <time>2021-08-16T09:57:01Z</time>
      </trkpt>
      <trkpt lat="44.96806" lon="2.19001">
        <ele>447.15</ele>
        <time>2021-08-16T09:57:02Z</time>
      </trkpt>
      <trkpt lat="44.96808" lon="2.18997">
        <ele>447.15</ele>
        <time>2021-08-16T09:57:03Z</time>
      </trkpt>
      <trkpt lat="44.96818" lon="2.18973">
        <ele>447.15</ele>
        <time>2021-08-16T09:57:11Z</time>
      </trkpt>
      <trkpt lat="44.96824" lon="2.18947">
        <ele>449.07</ele>
        <time>2021-08-16T09:57:19Z</time>
      </trkpt>
      <trkpt lat="44.96834" lon="2.18919">
        <ele>450.03</ele>
        <time>2021-08-16T09:57:28Z</time>
      </trkpt>
      <trkpt lat="44.96839" lon="2.18892">
        <ele>450.52</ele>
        <time>2021-08-16T09:57:36Z</time>
      </trkpt>
      <trkpt lat="44.96844" lon="2.18859">
        <ele>451</ele>
        <time>2021-08-16T09:57:45Z</time>
      </trkpt>
      <trkpt lat="44.96857" lon="2.18833">
        <ele>452.44</ele>
        <time>2021-08-16T09:57:53Z</time>
      </trkpt>
      <trkpt lat="44.96876" lon="2.18808">
        <ele>453.4</ele>
        <time>2021-08-16T09:58:03Z</time>
      </trkpt>
      <trkpt lat="44.96891" lon="2.18784">
        <ele>454.36</ele>
        <time>2021-08-16T09:58:13Z</time>
      </trkpt>
      <trkpt lat="44.96902" lon="2.18761">
        <ele>454.84</ele>
        <time>2021-08-16T09:58:21Z</time>
      </trkpt>
      <trkpt lat="44.96913" lon="2.18739">
        <ele>455.32</ele>
        <time>2021-08-16T09:58:28Z</time>
      </trkpt>
      <trkpt lat="44.96922" lon="2.18711">
        <ele>456.28</ele>
        <time>2021-08-16T09:58:38Z</time>
      </trkpt>
      <trkpt lat="44.96923" lon="2.18708">
        <ele>456.28</ele>
        <time>2021-08-16T09:58:40Z</time>
      </trkpt>
      <trkpt lat="44.96924" lon="2.18705">
        <ele>456.28</ele>
        <time>2021-08-16T09:58:46Z</time>
      </trkpt>
      <trkpt lat="44.96925" lon="2.18704">
        <ele>456.28</ele>
        <time>2021-08-16T09:58:50Z</time>
      </trkpt>
      <trkpt lat="44.96926" lon="2.18703">
        <ele>456.28</ele>
        <time>2021-08-16T09:58:52Z</time>
      </trkpt>
      <trkpt lat="44.96927" lon="2.187">
        <ele>456.76</ele>
        <time>2021-08-16T09:58:54Z</time>
      </trkpt>
      <trkpt lat="44.96929" lon="2.18698">
        <ele>456.76</ele>
        <time>2021-08-16T09:58:55Z</time>
      </trkpt>
      <trkpt lat="44.9693" lon="2.18696">
        <ele>456.76</ele>
        <time>2021-08-16T09:58:56Z</time>
      </trkpt>
      <trkpt lat="44.96935" lon="2.18673">
        <ele>457.72</ele>
        <time>2021-08-16T09:59:03Z</time>
      </trkpt>
      <trkpt lat="44.96938" lon="2.18643">
        <ele>458.69</ele>
        <time>2021-08-16T09:59:12Z</time>
      </trkpt>
      <trkpt lat="44.96937" lon="2.18623">
        <ele>459.17</ele>
        <time>2021-08-16T09:59:18Z</time>
      </trkpt>
      <trkpt lat="44.96937" lon="2.1862">
        <ele>459.17</ele>
        <time>2021-08-16T09:59:19Z</time>
      </trkpt>
      <trkpt lat="44.96937" lon="2.18616">
        <ele>459.17</ele>
        <time>2021-08-16T09:59:20Z</time>
      </trkpt>
      <trkpt lat="44.96936" lon="2.18613">
        <ele>459.17</ele>
        <time>2021-08-16T09:59:21Z</time>
      </trkpt>
      <trkpt lat="44.96936" lon="2.18609">
        <ele>459.17</ele>
        <time>2021-08-16T09:59:22Z</time>
      </trkpt>
      <trkpt lat="44.96935" lon="2.18605">
        <ele>459.65</ele>
        <time>2021-08-16T09:59:23Z</time>
      </trkpt>
      <trkpt lat="44.96932" lon="2.18577">
        <ele>460.61</ele>
        <time>2021-08-16T09:59:31Z</time>
      </trkpt>
      <trkpt lat="44.96931" lon="2.18541">
        <ele>461.09</ele>
        <time>2021-08-16T09:59:40Z</time>
      </trkpt>
      <trkpt lat="44.96933" lon="2.1851">
        <ele>462.05</ele>
        <time>2021-08-16T09:59:48Z</time>
      </trkpt>
      <trkpt lat="44.96936" lon="2.18481">
        <ele>462.53</ele>
        <time>2021-08-16T09:59:56Z</time>
      </trkpt>
      <trkpt lat="44.96938" lon="2.18452">
        <ele>463.01</ele>
        <time>2021-08-16T10:00:03Z</time>
      </trkpt>
      <trkpt lat="44.96941" lon="2.18425">
        <ele>463.97</ele>
        <time>2021-08-16T10:00:11Z</time>
      </trkpt>
      <trkpt lat="44.96948" lon="2.18387">
        <ele>464.93</ele>
        <time>2021-08-16T10:00:21Z</time>
      </trkpt>
      <trkpt lat="44.96943" lon="2.18363">
        <ele>465.42</ele>
        <time>2021-08-16T10:00:27Z</time>
      </trkpt>
      <trkpt lat="44.9693" lon="2.18336">
        <ele>465.9</ele>
        <time>2021-08-16T10:00:35Z</time>
      </trkpt>
      <trkpt lat="44.96926" lon="2.18315">
        <ele>466.38</ele>
        <time>2021-08-16T10:00:41Z</time>
      </trkpt>
      <trkpt lat="44.96929" lon="2.18291">
        <ele>467.34</ele>
        <time>2021-08-16T10:00:48Z</time>
      </trkpt>
      <trkpt lat="44.9693" lon="2.18271">
        <ele>468.3</ele>
        <time>2021-08-16T10:00:54Z</time>
      </trkpt>
      <trkpt lat="44.96926" lon="2.18237">
        <ele>468.78</ele>
        <time>2021-08-16T10:01:03Z</time>
      </trkpt>
      <trkpt lat="44.96921" lon="2.18205">
        <ele>469.74</ele>
        <time>2021-08-16T10:01:11Z</time>
      </trkpt>
      <trkpt lat="44.9692" lon="2.18178">
        <ele>470.22</ele>
        <time>2021-08-16T10:01:18Z</time>
      </trkpt>
      <trkpt lat="44.96915" lon="2.18152">
        <ele>470.7</ele>
        <time>2021-08-16T10:01:25Z</time>
      </trkpt>
      <trkpt lat="44.96904" lon="2.18122">
        <ele>471.18</ele>
        <time>2021-08-16T10:01:33Z</time>
      </trkpt>
      <trkpt lat="44.96892" lon="2.18098">
        <ele>471.66</ele>
        <time>2021-08-16T10:01:40Z</time>
      </trkpt>
      <trkpt lat="44.96882" lon="2.18073">
        <ele>472.63</ele>
        <time>2021-08-16T10:01:47Z</time>
      </trkpt>
      <trkpt lat="44.9687" lon="2.18047">
        <ele>473.11</ele>
        <time>2021-08-16T10:01:54Z</time>
      </trkpt>
      <trkpt lat="44.96858" lon="2.18015">
        <ele>474.07</ele>
        <time>2021-08-16T10:02:02Z</time>
      </trkpt>
      <trkpt lat="44.96842" lon="2.17984">
        <ele>474.55</ele>
        <time>2021-08-16T10:02:11Z</time>
      </trkpt>
      <trkpt lat="44.96822" lon="2.17951">
        <ele>475.51</ele>
        <time>2021-08-16T10:02:21Z</time>
      </trkpt>
      <trkpt lat="44.96816" lon="2.17919">
        <ele>475.51</ele>
        <time>2021-08-16T10:02:28Z</time>
      </trkpt>
      <trkpt lat="44.96817" lon="2.17881">
        <ele>475.51</ele>
        <time>2021-08-16T10:02:36Z</time>
      </trkpt>
      <trkpt lat="44.96819" lon="2.17842">
        <ele>475.51</ele>
        <time>2021-08-16T10:02:44Z</time>
      </trkpt>
      <trkpt lat="44.96811" lon="2.17818">
        <ele>475.51</ele>
        <time>2021-08-16T10:02:49Z</time>
      </trkpt>
      <trkpt lat="44.96808" lon="2.17814">
        <ele>475.51</ele>
        <time>2021-08-16T10:02:50Z</time>
      </trkpt>
      <trkpt lat="44.96787" lon="2.17792">
        <ele>475.51</ele>
        <time>2021-08-16T10:02:56Z</time>
      </trkpt>
      <trkpt lat="44.96777" lon="2.17776">
        <ele>475.51</ele>
        <time>2021-08-16T10:02:59Z</time>
      </trkpt>
      <trkpt lat="44.96774" lon="2.1777">
        <ele>475.51</ele>
        <time>2021-08-16T10:03:00Z</time>
      </trkpt>
      <trkpt lat="44.96758" lon="2.17727">
        <ele>475.51</ele>
        <time>2021-08-16T10:03:07Z</time>
      </trkpt>
      <trkpt lat="44.96756" lon="2.1772">
        <ele>475.51</ele>
        <time>2021-08-16T10:03:08Z</time>
      </trkpt>
      <trkpt lat="44.96755" lon="2.17713">
        <ele>475.51</ele>
        <time>2021-08-16T10:03:09Z</time>
      </trkpt>
      <trkpt lat="44.96749" lon="2.17669">
        <ele>475.51</ele>
        <time>2021-08-16T10:03:15Z</time>
      </trkpt>
      <trkpt lat="44.9675" lon="2.17662">
        <ele>475.51</ele>
        <time>2021-08-16T10:03:16Z</time>
      </trkpt>
      <trkpt lat="44.96751" lon="2.17655">
        <ele>475.51</ele>
        <time>2021-08-16T10:03:17Z</time>
      </trkpt>
      <trkpt lat="44.96752" lon="2.17648">
        <ele>474.55</ele>
        <time>2021-08-16T10:03:18Z</time>
      </trkpt>
      <trkpt lat="44.96753" lon="2.17641">
        <ele>474.55</ele>
        <time>2021-08-16T10:03:19Z</time>
      </trkpt>
      <trkpt lat="44.96769" lon="2.17591">
        <ele>474.55</ele>
        <time>2021-08-16T10:03:26Z</time>
      </trkpt>
      <trkpt lat="44.96788" lon="2.17549">
        <ele>474.55</ele>
        <time>2021-08-16T10:03:33Z</time>
      </trkpt>
      <trkpt lat="44.96809" lon="2.17501">
        <ele>474.55</ele>
        <time>2021-08-16T10:03:41Z</time>
      </trkpt>
      <trkpt lat="44.96834" lon="2.17448">
        <ele>474.55</ele>
        <time>2021-08-16T10:03:50Z</time>
      </trkpt>
      <trkpt lat="44.96842" lon="2.1743">
        <ele>473.59</ele>
        <time>2021-08-16T10:03:53Z</time>
      </trkpt>
      <trkpt lat="44.96846" lon="2.17425">
        <ele>473.59</ele>
        <time>2021-08-16T10:03:54Z</time>
      </trkpt>
      <trkpt lat="44.96849" lon="2.1742">
        <ele>473.59</ele>
        <time>2021-08-16T10:03:55Z</time>
      </trkpt>
      <trkpt lat="44.96857" lon="2.17412">
        <ele>473.59</ele>
        <time>2021-08-16T10:03:57Z</time>
      </trkpt>
      <trkpt lat="44.96894" lon="2.17388">
        <ele>473.59</ele>
        <time>2021-08-16T10:04:05Z</time>
      </trkpt>
      <trkpt lat="44.96932" lon="2.17374">
        <ele>473.11</ele>
        <time>2021-08-16T10:04:13Z</time>
      </trkpt>
      <trkpt lat="44.96957" lon="2.17363">
        <ele>473.11</ele>
        <time>2021-08-16T10:04:18Z</time>
      </trkpt>
      <trkpt lat="44.96966" lon="2.17358">
        <ele>472.63</ele>
        <time>2021-08-16T10:04:20Z</time>
      </trkpt>
      <trkpt lat="44.97018" lon="2.17341">
        <ele>471.18</ele>
        <time>2021-08-16T10:04:30Z</time>
      </trkpt>
      <trkpt lat="44.97061" lon="2.17319">
        <ele>471.18</ele>
        <time>2021-08-16T10:04:38Z</time>
      </trkpt>
      <trkpt lat="44.97098" lon="2.17301">
        <ele>471.18</ele>
        <time>2021-08-16T10:04:45Z</time>
      </trkpt>
      <trkpt lat="44.97146" lon="2.17278">
        <ele>471.18</ele>
        <time>2021-08-16T10:04:54Z</time>
      </trkpt>
      <trkpt lat="44.97186" lon="2.17259">
        <ele>470.7</ele>
        <time>2021-08-16T10:05:02Z</time>
      </trkpt>
      <trkpt lat="44.97191" lon="2.17257">
        <ele>470.7</ele>
        <time>2021-08-16T10:05:03Z</time>
      </trkpt>
      <trkpt lat="44.97196" lon="2.17256">
        <ele>470.7</ele>
        <time>2021-08-16T10:05:04Z</time>
      </trkpt>
      <trkpt lat="44.97202" lon="2.17256">
        <ele>470.7</ele>
        <time>2021-08-16T10:05:05Z</time>
      </trkpt>
      <trkpt lat="44.97207" lon="2.17256">
        <ele>470.7</ele>
        <time>2021-08-16T10:05:06Z</time>
      </trkpt>
      <trkpt lat="44.97212" lon="2.17257">
        <ele>470.22</ele>
        <time>2021-08-16T10:05:07Z</time>
      </trkpt>
      <trkpt lat="44.97217" lon="2.17258">
        <ele>470.22</ele>
        <time>2021-08-16T10:05:08Z</time>
      </trkpt>
      <trkpt lat="44.97223" lon="2.1726">
        <ele>470.22</ele>
        <time>2021-08-16T10:05:09Z</time>
      </trkpt>
      <trkpt lat="44.97257" lon="2.17276">
        <ele>470.22</ele>
        <time>2021-08-16T10:05:16Z</time>
      </trkpt>
      <trkpt lat="44.97267" lon="2.17283">
        <ele>470.22</ele>
        <time>2021-08-16T10:05:18Z</time>
      </trkpt>
      <trkpt lat="44.97272" lon="2.17288">
        <ele>470.22</ele>
        <time>2021-08-16T10:05:19Z</time>
      </trkpt>
      <trkpt lat="44.97286" lon="2.17303">
        <ele>470.22</ele>
        <time>2021-08-16T10:05:22Z</time>
      </trkpt>
      <trkpt lat="44.97292" lon="2.17306">
        <ele>470.22</ele>
        <time>2021-08-16T10:05:23Z</time>
      </trkpt>
      <trkpt lat="44.97298" lon="2.17308">
        <ele>470.22</ele>
        <time>2021-08-16T10:05:24Z</time>
      </trkpt>
      <trkpt lat="44.97304" lon="2.17308">
        <ele>470.22</ele>
        <time>2021-08-16T10:05:25Z</time>
      </trkpt>
      <trkpt lat="44.9731" lon="2.17304">
        <ele>469.74</ele>
        <time>2021-08-16T10:05:26Z</time>
      </trkpt>
      <trkpt lat="44.97315" lon="2.173">
        <ele>469.74</ele>
        <time>2021-08-16T10:05:27Z</time>
      </trkpt>
      <trkpt lat="44.97319" lon="2.17295">
        <ele>469.74</ele>
        <time>2021-08-16T10:05:28Z</time>
      </trkpt>
      <trkpt lat="44.97322" lon="2.17288">
        <ele>469.74</ele>
        <time>2021-08-16T10:05:29Z</time>
      </trkpt>
      <trkpt lat="44.97324" lon="2.17281">
        <ele>469.74</ele>
        <time>2021-08-16T10:05:30Z</time>
      </trkpt>
      <trkpt lat="44.97324" lon="2.17273">
        <ele>469.74</ele>
        <time>2021-08-16T10:05:31Z</time>
      </trkpt>
      <trkpt lat="44.97324" lon="2.17265">
        <ele>469.74</ele>
        <time>2021-08-16T10:05:32Z</time>
      </trkpt>
      <trkpt lat="44.97322" lon="2.17257">
        <ele>469.74</ele>
        <time>2021-08-16T10:05:33Z</time>
      </trkpt>
      <trkpt lat="44.97321" lon="2.17251">
        <ele>469.74</ele>
        <time>2021-08-16T10:05:34Z</time>
      </trkpt>
      <trkpt lat="44.97319" lon="2.17243">
        <ele>469.74</ele>
        <time>2021-08-16T10:05:35Z</time>
      </trkpt>
      <trkpt lat="44.97317" lon="2.17236">
        <ele>469.74</ele>
        <time>2021-08-16T10:05:36Z</time>
      </trkpt>
      <trkpt lat="44.97313" lon="2.17222">
        <ele>469.74</ele>
        <time>2021-08-16T10:05:38Z</time>
      </trkpt>
      <trkpt lat="44.9731" lon="2.17214">
        <ele>469.74</ele>
        <time>2021-08-16T10:05:39Z</time>
      </trkpt>
      <trkpt lat="44.97307" lon="2.17207">
        <ele>469.74</ele>
        <time>2021-08-16T10:05:40Z</time>
      </trkpt>
      <trkpt lat="44.97304" lon="2.17199">
        <ele>469.74</ele>
        <time>2021-08-16T10:05:41Z</time>
      </trkpt>
      <trkpt lat="44.97301" lon="2.17191">
        <ele>469.74</ele>
        <time>2021-08-16T10:05:42Z</time>
      </trkpt>
      <trkpt lat="44.97293" lon="2.17169">
        <ele>469.26</ele>
        <time>2021-08-16T10:05:45Z</time>
      </trkpt>
      <trkpt lat="44.97288" lon="2.17154">
        <ele>469.26</ele>
        <time>2021-08-16T10:05:47Z</time>
      </trkpt>
      <trkpt lat="44.97287" lon="2.17145">
        <ele>469.26</ele>
        <time>2021-08-16T10:05:48Z</time>
      </trkpt>
      <trkpt lat="44.97287" lon="2.17136">
        <ele>468.78</ele>
        <time>2021-08-16T10:05:49Z</time>
      </trkpt>
      <trkpt lat="44.97288" lon="2.17128">
        <ele>468.78</ele>
        <time>2021-08-16T10:05:50Z</time>
      </trkpt>
      <trkpt lat="44.97292" lon="2.17121">
        <ele>468.78</ele>
        <time>2021-08-16T10:05:51Z</time>
      </trkpt>
      <trkpt lat="44.97297" lon="2.17117">
        <ele>468.78</ele>
        <time>2021-08-16T10:05:52Z</time>
      </trkpt>
      <trkpt lat="44.97302" lon="2.17115">
        <ele>468.78</ele>
        <time>2021-08-16T10:05:53Z</time>
      </trkpt>
      <trkpt lat="44.97308" lon="2.17115">
        <ele>468.78</ele>
        <time>2021-08-16T10:05:54Z</time>
      </trkpt>
      <trkpt lat="44.97313" lon="2.17117">
        <ele>468.78</ele>
        <time>2021-08-16T10:05:55Z</time>
      </trkpt>
      <trkpt lat="44.97319" lon="2.17119">
        <ele>469.26</ele>
        <time>2021-08-16T10:05:56Z</time>
      </trkpt>
      <trkpt lat="44.97358" lon="2.17135">
        <ele>469.26</ele>
        <time>2021-08-16T10:06:03Z</time>
      </trkpt>
      <trkpt lat="44.97381" lon="2.17138">
        <ele>469.26</ele>
        <time>2021-08-16T10:06:07Z</time>
      </trkpt>
      <trkpt lat="44.97387" lon="2.17138">
        <ele>469.26</ele>
        <time>2021-08-16T10:06:08Z</time>
      </trkpt>
      <trkpt lat="44.97434" lon="2.17122">
        <ele>468.78</ele>
        <time>2021-08-16T10:06:16Z</time>
      </trkpt>
      <trkpt lat="44.97468" lon="2.17101">
        <ele>468.3</ele>
        <time>2021-08-16T10:06:22Z</time>
      </trkpt>
      <trkpt lat="44.97474" lon="2.17097">
        <ele>468.3</ele>
        <time>2021-08-16T10:06:23Z</time>
      </trkpt>
      <trkpt lat="44.97505" lon="2.1707">
        <ele>467.82</ele>
        <time>2021-08-16T10:06:29Z</time>
      </trkpt>
      <trkpt lat="44.9751" lon="2.17064">
        <ele>467.82</ele>
        <time>2021-08-16T10:06:30Z</time>
      </trkpt>
      <trkpt lat="44.97538" lon="2.17024">
        <ele>466.86</ele>
        <time>2021-08-16T10:06:36Z</time>
      </trkpt>
      <trkpt lat="44.97544" lon="2.17019">
        <ele>466.86</ele>
        <time>2021-08-16T10:06:37Z</time>
      </trkpt>
      <trkpt lat="44.97555" lon="2.17012">
        <ele>466.38</ele>
        <time>2021-08-16T10:06:39Z</time>
      </trkpt>
      <trkpt lat="44.97561" lon="2.1701">
        <ele>466.38</ele>
        <time>2021-08-16T10:06:40Z</time>
      </trkpt>
      <trkpt lat="44.97567" lon="2.17009">
        <ele>466.38</ele>
        <time>2021-08-16T10:06:41Z</time>
      </trkpt>
      <trkpt lat="44.97572" lon="2.17008">
        <ele>466.38</ele>
        <time>2021-08-16T10:06:42Z</time>
      </trkpt>
      <trkpt lat="44.9759" lon="2.17003">
        <ele>466.38</ele>
        <time>2021-08-16T10:06:45Z</time>
      </trkpt>
      <trkpt lat="44.97596" lon="2.16999">
        <ele>466.38</ele>
        <time>2021-08-16T10:06:46Z</time>
      </trkpt>
      <trkpt lat="44.97602" lon="2.16993">
        <ele>466.38</ele>
        <time>2021-08-16T10:06:47Z</time>
      </trkpt>
      <trkpt lat="44.97606" lon="2.16988">
        <ele>466.38</ele>
        <time>2021-08-16T10:06:48Z</time>
      </trkpt>
      <trkpt lat="44.97611" lon="2.1698">
        <ele>466.38</ele>
        <time>2021-08-16T10:06:49Z</time>
      </trkpt>
      <trkpt lat="44.97613" lon="2.16973">
        <ele>466.38</ele>
        <time>2021-08-16T10:06:50Z</time>
      </trkpt>
      <trkpt lat="44.97613" lon="2.16964">
        <ele>466.38</ele>
        <time>2021-08-16T10:06:51Z</time>
      </trkpt>
      <trkpt lat="44.97612" lon="2.16957">
        <ele>466.38</ele>
        <time>2021-08-16T10:06:52Z</time>
      </trkpt>
      <trkpt lat="44.97611" lon="2.1695">
        <ele>466.38</ele>
        <time>2021-08-16T10:06:53Z</time>
      </trkpt>
      <trkpt lat="44.97609" lon="2.16943">
        <ele>467.82</ele>
        <time>2021-08-16T10:06:54Z</time>
      </trkpt>
      <trkpt lat="44.97607" lon="2.16936">
        <ele>467.82</ele>
        <time>2021-08-16T10:06:55Z</time>
      </trkpt>
      <trkpt lat="44.97605" lon="2.1693">
        <ele>467.82</ele>
        <time>2021-08-16T10:06:56Z</time>
      </trkpt>
      <trkpt lat="44.97602" lon="2.16925">
        <ele>467.82</ele>
        <time>2021-08-16T10:06:57Z</time>
      </trkpt>
      <trkpt lat="44.97599" lon="2.16921">
        <ele>468.3</ele>
        <time>2021-08-16T10:06:58Z</time>
      </trkpt>
      <trkpt lat="44.97596" lon="2.16918">
        <ele>468.3</ele>
        <time>2021-08-16T10:06:59Z</time>
      </trkpt>
      <trkpt lat="44.97592" lon="2.16915">
        <ele>468.3</ele>
        <time>2021-08-16T10:07:00Z</time>
      </trkpt>
      <trkpt lat="44.97589" lon="2.16913">
        <ele>468.78</ele>
        <time>2021-08-16T10:07:01Z</time>
      </trkpt>
      <trkpt lat="44.97585" lon="2.16911">
        <ele>468.78</ele>
        <time>2021-08-16T10:07:02Z</time>
      </trkpt>
      <trkpt lat="44.97581" lon="2.1691">
        <ele>469.26</ele>
        <time>2021-08-16T10:07:03Z</time>
      </trkpt>
      <trkpt lat="44.97578" lon="2.16909">
        <ele>469.26</ele>
        <time>2021-08-16T10:07:04Z</time>
      </trkpt>
      <trkpt lat="44.97574" lon="2.16908">
        <ele>469.26</ele>
        <time>2021-08-16T10:07:05Z</time>
      </trkpt>
      <trkpt lat="44.97556" lon="2.16904">
        <ele>470.22</ele>
        <time>2021-08-16T10:07:11Z</time>
      </trkpt>
      <trkpt lat="44.97529" lon="2.16903">
        <ele>471.66</ele>
        <time>2021-08-16T10:07:20Z</time>
      </trkpt>
      <trkpt lat="44.97512" lon="2.1691">
        <ele>472.63</ele>
        <time>2021-08-16T10:07:26Z</time>
      </trkpt>
      <trkpt lat="44.97498" lon="2.16919">
        <ele>473.59</ele>
        <time>2021-08-16T10:07:32Z</time>
      </trkpt>
      <trkpt lat="44.97477" lon="2.16941">
        <ele>475.03</ele>
        <time>2021-08-16T10:07:42Z</time>
      </trkpt>
      <trkpt lat="44.97457" lon="2.1696">
        <ele>475.99</ele>
        <time>2021-08-16T10:07:51Z</time>
      </trkpt>
      <trkpt lat="44.97437" lon="2.16973">
        <ele>476.47</ele>
        <time>2021-08-16T10:07:59Z</time>
      </trkpt>
      <trkpt lat="44.97412" lon="2.16976">
        <ele>477.43</ele>
        <time>2021-08-16T10:08:08Z</time>
      </trkpt>
      <trkpt lat="44.97393" lon="2.16965">
        <ele>478.39</ele>
        <time>2021-08-16T10:08:15Z</time>
      </trkpt>
      <trkpt lat="44.97377" lon="2.1695">
        <ele>479.35</ele>
        <time>2021-08-16T10:08:22Z</time>
      </trkpt>
      <trkpt lat="44.9736" lon="2.16924">
        <ele>479.84</ele>
        <time>2021-08-16T10:08:31Z</time>
      </trkpt>
      <trkpt lat="44.97363" lon="2.16899">
        <ele>481.28</ele>
        <time>2021-08-16T10:08:38Z</time>
      </trkpt>
      <trkpt lat="44.97378" lon="2.16884">
        <ele>482.72</ele>
        <time>2021-08-16T10:08:47Z</time>
      </trkpt>
      <trkpt lat="44.97394" lon="2.16876">
        <ele>483.2</ele>
        <time>2021-08-16T10:08:55Z</time>
      </trkpt>
      <trkpt lat="44.97423" lon="2.16862">
        <ele>484.64</ele>
        <time>2021-08-16T10:09:06Z</time>
      </trkpt>
      <trkpt lat="44.9744" lon="2.16852">
        <ele>485.12</ele>
        <time>2021-08-16T10:09:13Z</time>
      </trkpt>
      <trkpt lat="44.97456" lon="2.16842">
        <ele>485.6</ele>
        <time>2021-08-16T10:09:19Z</time>
      </trkpt>
      <trkpt lat="44.97475" lon="2.16825">
        <ele>487.05</ele>
        <time>2021-08-16T10:09:26Z</time>
      </trkpt>
      <trkpt lat="44.97498" lon="2.16804">
        <ele>488.01</ele>
        <time>2021-08-16T10:09:34Z</time>
      </trkpt>
      <trkpt lat="44.97517" lon="2.16789">
        <ele>488.97</ele>
        <time>2021-08-16T10:09:41Z</time>
      </trkpt>
      <trkpt lat="44.97536" lon="2.16766">
        <ele>489.93</ele>
        <time>2021-08-16T10:09:49Z</time>
      </trkpt>
      <trkpt lat="44.97555" lon="2.16737">
        <ele>490.41</ele>
        <time>2021-08-16T10:09:58Z</time>
      </trkpt>
      <trkpt lat="44.97574" lon="2.16711">
        <ele>491.85</ele>
        <time>2021-08-16T10:10:07Z</time>
      </trkpt>
      <trkpt lat="44.97597" lon="2.16688">
        <ele>492.81</ele>
        <time>2021-08-16T10:10:16Z</time>
      </trkpt>
      <trkpt lat="44.97614" lon="2.16667">
        <ele>493.77</ele>
        <time>2021-08-16T10:10:23Z</time>
      </trkpt>
      <trkpt lat="44.97628" lon="2.16629">
        <ele>495.22</ele>
        <time>2021-08-16T10:10:32Z</time>
      </trkpt>
      <trkpt lat="44.97642" lon="2.16605">
        <ele>496.18</ele>
        <time>2021-08-16T10:10:39Z</time>
      </trkpt>
      <trkpt lat="44.97657" lon="2.16584">
        <ele>496.66</ele>
        <time>2021-08-16T10:10:46Z</time>
      </trkpt>
      <trkpt lat="44.97661" lon="2.16553">
        <ele>498.1</ele>
        <time>2021-08-16T10:10:53Z</time>
      </trkpt>
      <trkpt lat="44.97662" lon="2.16517">
        <ele>498.58</ele>
        <time>2021-08-16T10:11:01Z</time>
      </trkpt>
      <trkpt lat="44.97673" lon="2.16491">
        <ele>499.54</ele>
        <time>2021-08-16T10:11:07Z</time>
      </trkpt>
      <trkpt lat="44.97694" lon="2.16474">
        <ele>500.5</ele>
        <time>2021-08-16T10:11:16Z</time>
      </trkpt>
      <trkpt lat="44.97714" lon="2.16467">
        <ele>501.46</ele>
        <time>2021-08-16T10:11:24Z</time>
      </trkpt>
      <trkpt lat="44.97736" lon="2.16454">
        <ele>502.91</ele>
        <time>2021-08-16T10:11:33Z</time>
      </trkpt>
      <trkpt lat="44.97757" lon="2.16437">
        <ele>502.91</ele>
        <time>2021-08-16T10:11:41Z</time>
      </trkpt>
      <trkpt lat="44.97781" lon="2.16415">
        <ele>504.35</ele>
        <time>2021-08-16T10:11:51Z</time>
      </trkpt>
      <trkpt lat="44.97802" lon="2.164">
        <ele>505.31</ele>
        <time>2021-08-16T10:11:59Z</time>
      </trkpt>
      <trkpt lat="44.97823" lon="2.16393">
        <ele>506.27</ele>
        <time>2021-08-16T10:12:07Z</time>
      </trkpt>
      <trkpt lat="44.97838" lon="2.16399">
        <ele>507.23</ele>
        <time>2021-08-16T10:12:14Z</time>
      </trkpt>
      <trkpt lat="44.97852" lon="2.1641">
        <ele>508.19</ele>
        <time>2021-08-16T10:12:22Z</time>
      </trkpt>
      <trkpt lat="44.97869" lon="2.16412">
        <ele>509.16</ele>
        <time>2021-08-16T10:12:29Z</time>
      </trkpt>
      <trkpt lat="44.97881" lon="2.16403">
        <ele>509.64</ele>
        <time>2021-08-16T10:12:35Z</time>
      </trkpt>
      <trkpt lat="44.97894" lon="2.16391">
        <ele>510.12</ele>
        <time>2021-08-16T10:12:41Z</time>
      </trkpt>
      <trkpt lat="44.97897" lon="2.1639">
        <ele>510.12</ele>
        <time>2021-08-16T10:12:42Z</time>
      </trkpt>
      <trkpt lat="44.97914" lon="2.16391">
        <ele>511.08</ele>
        <time>2021-08-16T10:12:49Z</time>
      </trkpt>
      <trkpt lat="44.97931" lon="2.16401">
        <ele>512.04</ele>
        <time>2021-08-16T10:12:56Z</time>
      </trkpt>
      <trkpt lat="44.97948" lon="2.1642">
        <ele>513.48</ele>
        <time>2021-08-16T10:13:04Z</time>
      </trkpt>
      <trkpt lat="44.97963" lon="2.16429">
        <ele>513.96</ele>
        <time>2021-08-16T10:13:10Z</time>
      </trkpt>
      <trkpt lat="44.97977" lon="2.16423">
        <ele>514.92</ele>
        <time>2021-08-16T10:13:16Z</time>
      </trkpt>
      <trkpt lat="44.97985" lon="2.16408">
        <ele>515.88</ele>
        <time>2021-08-16T10:13:22Z</time>
      </trkpt>
      <trkpt lat="44.97995" lon="2.1638">
        <ele>516.37</ele>
        <time>2021-08-16T10:13:31Z</time>
      </trkpt>
      <trkpt lat="44.9801" lon="2.16372">
        <ele>517.33</ele>
        <time>2021-08-16T10:13:37Z</time>
      </trkpt>
      <trkpt lat="44.98025" lon="2.16385">
        <ele>518.77</ele>
        <time>2021-08-16T10:13:44Z</time>
      </trkpt>
      <trkpt lat="44.98031" lon="2.16396">
        <ele>519.25</ele>
        <time>2021-08-16T10:13:50Z</time>
      </trkpt>
      <trkpt lat="44.98032" lon="2.16398">
        <ele>519.73</ele>
        <time>2021-08-16T10:13:51Z</time>
      </trkpt>
      <trkpt lat="44.98034" lon="2.164">
        <ele>519.73</ele>
        <time>2021-08-16T10:13:52Z</time>
      </trkpt>
      <trkpt lat="44.98046" lon="2.1641">
        <ele>520.21</ele>
        <time>2021-08-16T10:13:59Z</time>
      </trkpt>
      <trkpt lat="44.98065" lon="2.16409">
        <ele>521.17</ele>
        <time>2021-08-16T10:14:06Z</time>
      </trkpt>
      <trkpt lat="44.98081" lon="2.16391">
        <ele>522.13</ele>
        <time>2021-08-16T10:14:14Z</time>
      </trkpt>
      <trkpt lat="44.98096" lon="2.16373">
        <ele>523.09</ele>
        <time>2021-08-16T10:14:21Z</time>
      </trkpt>
      <trkpt lat="44.98115" lon="2.16365">
        <ele>524.06</ele>
        <time>2021-08-16T10:14:28Z</time>
      </trkpt>
      <trkpt lat="44.9813" lon="2.16357">
        <ele>524.54</ele>
        <time>2021-08-16T10:14:34Z</time>
      </trkpt>
      <trkpt lat="44.98149" lon="2.16344">
        <ele>525.98</ele>
        <time>2021-08-16T10:14:42Z</time>
      </trkpt>
      <trkpt lat="44.98164" lon="2.16332">
        <ele>526.46</ele>
        <time>2021-08-16T10:14:48Z</time>
      </trkpt>
      <trkpt lat="44.98182" lon="2.16319">
        <ele>526.94</ele>
        <time>2021-08-16T10:14:55Z</time>
      </trkpt>
      <trkpt lat="44.98204" lon="2.16307">
        <ele>527.9</ele>
        <time>2021-08-16T10:15:03Z</time>
      </trkpt>
      <trkpt lat="44.98227" lon="2.16296">
        <ele>529.34</ele>
        <time>2021-08-16T10:15:11Z</time>
      </trkpt>
      <trkpt lat="44.98248" lon="2.16293">
        <ele>530.3</ele>
        <time>2021-08-16T10:15:18Z</time>
      </trkpt>
      <trkpt lat="44.98268" lon="2.16295">
        <ele>531.27</ele>
        <time>2021-08-16T10:15:26Z</time>
      </trkpt>
      <trkpt lat="44.98285" lon="2.16305">
        <ele>532.71</ele>
        <time>2021-08-16T10:15:34Z</time>
      </trkpt>
      <trkpt lat="44.98296" lon="2.16323">
        <ele>533.19</ele>
        <time>2021-08-16T10:15:40Z</time>
      </trkpt>
      <trkpt lat="44.98313" lon="2.16342">
        <ele>534.15</ele>
        <time>2021-08-16T10:15:48Z</time>
      </trkpt>
      <trkpt lat="44.98318" lon="2.16344">
        <ele>534.63</ele>
        <time>2021-08-16T10:15:50Z</time>
      </trkpt>
      <trkpt lat="44.98321" lon="2.16342">
        <ele>534.63</ele>
        <time>2021-08-16T10:15:51Z</time>
      </trkpt>
      <trkpt lat="44.98335" lon="2.16323">
        <ele>535.59</ele>
        <time>2021-08-16T10:15:59Z</time>
      </trkpt>
      <trkpt lat="44.98346" lon="2.16302">
        <ele>536.07</ele>
        <time>2021-08-16T10:16:06Z</time>
      </trkpt>
      <trkpt lat="44.98362" lon="2.16285">
        <ele>536.55</ele>
        <time>2021-08-16T10:16:13Z</time>
      </trkpt>
      <trkpt lat="44.98384" lon="2.16274">
        <ele>537.99</ele>
        <time>2021-08-16T10:16:21Z</time>
      </trkpt>
      <trkpt lat="44.98412" lon="2.16264">
        <ele>539.44</ele>
        <time>2021-08-16T10:16:31Z</time>
      </trkpt>
      <trkpt lat="44.98433" lon="2.16244">
        <ele>540.88</ele>
        <time>2021-08-16T10:16:39Z</time>
      </trkpt>
      <trkpt lat="44.98447" lon="2.16212">
        <ele>541.84</ele>
        <time>2021-08-16T10:16:48Z</time>
      </trkpt>
      <trkpt lat="44.98456" lon="2.1619">
        <ele>542.8</ele>
        <time>2021-08-16T10:16:55Z</time>
      </trkpt>
      <trkpt lat="44.98469" lon="2.16169">
        <ele>543.76</ele>
        <time>2021-08-16T10:17:03Z</time>
      </trkpt>
      <trkpt lat="44.98484" lon="2.16156">
        <ele>545.2</ele>
        <time>2021-08-16T10:17:11Z</time>
      </trkpt>
      <trkpt lat="44.98499" lon="2.16147">
        <ele>546.17</ele>
        <time>2021-08-16T10:17:18Z</time>
      </trkpt>
      <trkpt lat="44.98514" lon="2.16137">
        <ele>546.65</ele>
        <time>2021-08-16T10:17:24Z</time>
      </trkpt>
      <trkpt lat="44.98537" lon="2.1612">
        <ele>547.13</ele>
        <time>2021-08-16T10:17:32Z</time>
      </trkpt>
      <trkpt lat="44.98563" lon="2.16105">
        <ele>548.09</ele>
        <time>2021-08-16T10:17:41Z</time>
      </trkpt>
      <trkpt lat="44.98588" lon="2.16103">
        <ele>549.53</ele>
        <time>2021-08-16T10:17:50Z</time>
      </trkpt>
      <trkpt lat="44.98612" lon="2.16102">
        <ele>551.45</ele>
        <time>2021-08-16T10:18:00Z</time>
      </trkpt>
      <trkpt lat="44.98632" lon="2.16095">
        <ele>552.9</ele>
        <time>2021-08-16T10:18:10Z</time>
      </trkpt>
      <trkpt lat="44.98648" lon="2.16077">
        <ele>554.34</ele>
        <time>2021-08-16T10:18:20Z</time>
      </trkpt>
      <trkpt lat="44.98662" lon="2.16055">
        <ele>555.3</ele>
        <time>2021-08-16T10:18:30Z</time>
      </trkpt>
      <trkpt lat="44.98674" lon="2.16034">
        <ele>556.74</ele>
        <time>2021-08-16T10:18:40Z</time>
      </trkpt>
      <trkpt lat="44.98691" lon="2.16011">
        <ele>558.18</ele>
        <time>2021-08-16T10:18:51Z</time>
      </trkpt>
      <trkpt lat="44.98706" lon="2.15994">
        <ele>559.14</ele>
        <time>2021-08-16T10:19:00Z</time>
      </trkpt>
      <trkpt lat="44.98719" lon="2.1598">
        <ele>560.11</ele>
        <time>2021-08-16T10:19:08Z</time>
      </trkpt>
      <trkpt lat="44.98728" lon="2.15971">
        <ele>560.59</ele>
        <time>2021-08-16T10:19:13Z</time>
      </trkpt>
      <trkpt lat="44.9873" lon="2.15969">
        <ele>560.59</ele>
        <time>2021-08-16T10:19:14Z</time>
      </trkpt>
      <trkpt lat="44.98731" lon="2.15967">
        <ele>561.07</ele>
        <time>2021-08-16T10:19:15Z</time>
      </trkpt>
      <trkpt lat="44.98733" lon="2.15965">
        <ele>561.07</ele>
        <time>2021-08-16T10:19:16Z</time>
      </trkpt>
      <trkpt lat="44.98735" lon="2.15963">
        <ele>561.07</ele>
        <time>2021-08-16T10:19:17Z</time>
      </trkpt>
      <trkpt lat="44.98737" lon="2.15962">
        <ele>561.07</ele>
        <time>2021-08-16T10:19:18Z</time>
      </trkpt>
      <trkpt lat="44.98749" lon="2.15949">
        <ele>562.03</ele>
        <time>2021-08-16T10:19:25Z</time>
      </trkpt>
      <trkpt lat="44.98767" lon="2.1593">
        <ele>563.47</ele>
        <time>2021-08-16T10:19:35Z</time>
      </trkpt>
      <trkpt lat="44.98784" lon="2.15913">
        <ele>563.95</ele>
        <time>2021-08-16T10:19:44Z</time>
      </trkpt>
      <trkpt lat="44.98799" lon="2.15895">
        <ele>565.39</ele>
        <time>2021-08-16T10:19:52Z</time>
      </trkpt>
      <trkpt lat="44.98812" lon="2.15871">
        <ele>566.35</ele>
        <time>2021-08-16T10:20:01Z</time>
      </trkpt>
      <trkpt lat="44.98822" lon="2.15845">
        <ele>567.32</ele>
        <time>2021-08-16T10:20:10Z</time>
      </trkpt>
      <trkpt lat="44.98833" lon="2.15819">
        <ele>567.8</ele>
        <time>2021-08-16T10:20:19Z</time>
      </trkpt>
      <trkpt lat="44.98846" lon="2.15786">
        <ele>569.72</ele>
        <time>2021-08-16T10:20:30Z</time>
      </trkpt>
      <trkpt lat="44.98857" lon="2.15759">
        <ele>570.2</ele>
        <time>2021-08-16T10:20:40Z</time>
      </trkpt>
      <trkpt lat="44.98865" lon="2.15742">
        <ele>571.16</ele>
        <time>2021-08-16T10:20:47Z</time>
      </trkpt>
      <trkpt lat="44.9888" lon="2.15722">
        <ele>572.6</ele>
        <time>2021-08-16T10:20:56Z</time>
      </trkpt>
      <trkpt lat="44.98896" lon="2.15704">
        <ele>574.53</ele>
        <time>2021-08-16T10:21:06Z</time>
      </trkpt>
      <trkpt lat="44.98916" lon="2.15687">
        <ele>575.97</ele>
        <time>2021-08-16T10:21:17Z</time>
      </trkpt>
      <trkpt lat="44.98933" lon="2.15673">
        <ele>577.89</ele>
        <time>2021-08-16T10:21:28Z</time>
      </trkpt>
      <trkpt lat="44.98949" lon="2.1566">
        <ele>579.33</ele>
        <time>2021-08-16T10:21:38Z</time>
      </trkpt>
      <trkpt lat="44.98968" lon="2.15641">
        <ele>581.25</ele>
        <time>2021-08-16T10:21:50Z</time>
      </trkpt>
      <trkpt lat="44.98982" lon="2.1562">
        <ele>583.18</ele>
        <time>2021-08-16T10:22:01Z</time>
      </trkpt>
      <trkpt lat="44.98994" lon="2.15595">
        <ele>584.62</ele>
        <time>2021-08-16T10:22:12Z</time>
      </trkpt>
      <trkpt lat="44.99" lon="2.15574">
        <ele>585.58</ele>
        <time>2021-08-16T10:22:20Z</time>
      </trkpt>
      <trkpt lat="44.99006" lon="2.15547">
        <ele>587.5</ele>
        <time>2021-08-16T10:22:30Z</time>
      </trkpt>
      <trkpt lat="44.9901" lon="2.15522">
        <ele>588.46</ele>
        <time>2021-08-16T10:22:39Z</time>
      </trkpt>
      <trkpt lat="44.99011" lon="2.15492">
        <ele>589.43</ele>
        <time>2021-08-16T10:22:49Z</time>
      </trkpt>
      <trkpt lat="44.99012" lon="2.15471">
        <ele>590.87</ele>
        <time>2021-08-16T10:22:56Z</time>
      </trkpt>
      <trkpt lat="44.99012" lon="2.15443">
        <ele>591.35</ele>
        <time>2021-08-16T10:23:04Z</time>
      </trkpt>
      <trkpt lat="44.99012" lon="2.15406">
        <ele>592.79</ele>
        <time>2021-08-16T10:23:14Z</time>
      </trkpt>
      <trkpt lat="44.99011" lon="2.15367">
        <ele>593.75</ele>
        <time>2021-08-16T10:23:24Z</time>
      </trkpt>
      <trkpt lat="44.99017" lon="2.15332">
        <ele>594.71</ele>
        <time>2021-08-16T10:23:33Z</time>
      </trkpt>
      <trkpt lat="44.99027" lon="2.15296">
        <ele>595.67</ele>
        <time>2021-08-16T10:23:42Z</time>
      </trkpt>
      <trkpt lat="44.9904" lon="2.15267">
        <ele>596.64</ele>
        <time>2021-08-16T10:23:51Z</time>
      </trkpt>
      <trkpt lat="44.99042" lon="2.15264">
        <ele>597.12</ele>
        <time>2021-08-16T10:23:52Z</time>
      </trkpt>
      <trkpt lat="44.99043" lon="2.15262">
        <ele>597.12</ele>
        <time>2021-08-16T10:23:53Z</time>
      </trkpt>
      <trkpt lat="44.99045" lon="2.15258">
        <ele>597.12</ele>
        <time>2021-08-16T10:23:54Z</time>
      </trkpt>
      <trkpt lat="44.99046" lon="2.15255">
        <ele>597.6</ele>
        <time>2021-08-16T10:23:55Z</time>
      </trkpt>
      <trkpt lat="44.99058" lon="2.15231">
        <ele>598.56</ele>
        <time>2021-08-16T10:24:03Z</time>
      </trkpt>
      <trkpt lat="44.9907" lon="2.15213">
        <ele>599.52</ele>
        <time>2021-08-16T10:24:09Z</time>
      </trkpt>
      <trkpt lat="44.99086" lon="2.15185">
        <ele>600.48</ele>
        <time>2021-08-16T10:24:18Z</time>
      </trkpt>
      <trkpt lat="44.99101" lon="2.15154">
        <ele>601.92</ele>
        <time>2021-08-16T10:24:27Z</time>
      </trkpt>
      <trkpt lat="44.99115" lon="2.15128">
        <ele>602.88</ele>
        <time>2021-08-16T10:24:36Z</time>
      </trkpt>
      <trkpt lat="44.9913" lon="2.15099">
        <ele>604.33</ele>
        <time>2021-08-16T10:24:45Z</time>
      </trkpt>
      <trkpt lat="44.99145" lon="2.1507">
        <ele>605.29</ele>
        <time>2021-08-16T10:24:54Z</time>
      </trkpt>
      <trkpt lat="44.99156" lon="2.15047">
        <ele>606.25</ele>
        <time>2021-08-16T10:25:02Z</time>
      </trkpt>
      <trkpt lat="44.9917" lon="2.15021">
        <ele>607.21</ele>
        <time>2021-08-16T10:25:11Z</time>
      </trkpt>
      <trkpt lat="44.99187" lon="2.1499">
        <ele>608.65</ele>
        <time>2021-08-16T10:25:22Z</time>
      </trkpt>
      <trkpt lat="44.99201" lon="2.14965">
        <ele>609.61</ele>
        <time>2021-08-16T10:25:31Z</time>
      </trkpt>
      <trkpt lat="44.99221" lon="2.14928">
        <ele>611.54</ele>
        <time>2021-08-16T10:25:43Z</time>
      </trkpt>
      <trkpt lat="44.9924" lon="2.14891">
        <ele>612.02</ele>
        <time>2021-08-16T10:25:55Z</time>
      </trkpt>
      <trkpt lat="44.99254" lon="2.14865">
        <ele>612.98</ele>
        <time>2021-08-16T10:26:04Z</time>
      </trkpt>
      <trkpt lat="44.99268" lon="2.1484">
        <ele>614.42</ele>
        <time>2021-08-16T10:26:13Z</time>
      </trkpt>
      <trkpt lat="44.99285" lon="2.14808">
        <ele>615.86</ele>
        <time>2021-08-16T10:26:24Z</time>
      </trkpt>
      <trkpt lat="44.99301" lon="2.14777">
        <ele>617.3</ele>
        <time>2021-08-16T10:26:34Z</time>
      </trkpt>
      <trkpt lat="44.99318" lon="2.14743">
        <ele>618.26</ele>
        <time>2021-08-16T10:26:44Z</time>
      </trkpt>
      <trkpt lat="44.99333" lon="2.14718">
        <ele>619.71</ele>
        <time>2021-08-16T10:26:52Z</time>
      </trkpt>
      <trkpt lat="44.99349" lon="2.14693">
        <ele>620.67</ele>
        <time>2021-08-16T10:27:00Z</time>
      </trkpt>
      <trkpt lat="44.99364" lon="2.14668">
        <ele>621.15</ele>
        <time>2021-08-16T10:27:08Z</time>
      </trkpt>
      <trkpt lat="44.99369" lon="2.14648">
        <ele>621.15</ele>
        <time>2021-08-16T10:27:12Z</time>
      </trkpt>
      <trkpt lat="44.99375" lon="2.14632">
        <ele>619.71</ele>
        <time>2021-08-16T10:27:15Z</time>
      </trkpt>
      <trkpt lat="44.9938" lon="2.14621">
        <ele>619.71</ele>
        <time>2021-08-16T10:27:17Z</time>
      </trkpt>
      <trkpt lat="44.99383" lon="2.14616">
        <ele>619.71</ele>
        <time>2021-08-16T10:27:18Z</time>
      </trkpt>
      <trkpt lat="44.99386" lon="2.14611">
        <ele>619.71</ele>
        <time>2021-08-16T10:27:19Z</time>
      </trkpt>
      <trkpt lat="44.99388" lon="2.14606">
        <ele>619.23</ele>
        <time>2021-08-16T10:27:20Z</time>
      </trkpt>
      <trkpt lat="44.99391" lon="2.14602">
        <ele>619.23</ele>
        <time>2021-08-16T10:27:21Z</time>
      </trkpt>
      <trkpt lat="44.99394" lon="2.14599">
        <ele>619.23</ele>
        <time>2021-08-16T10:27:22Z</time>
      </trkpt>
      <trkpt lat="44.99395" lon="2.14597">
        <ele>619.23</ele>
        <time>2021-08-16T10:27:23Z</time>
      </trkpt>
      <trkpt lat="44.99395" lon="2.14596">
        <ele>619.23</ele>
        <time>2021-08-16T10:27:28Z</time>
      </trkpt>
      <trkpt lat="44.99395" lon="2.14595">
        <ele>619.23</ele>
        <time>2021-08-16T10:27:42Z</time>
      </trkpt>
      <trkpt lat="44.99396" lon="2.14596">
        <ele>619.23</ele>
        <time>2021-08-16T10:27:50Z</time>
      </trkpt>
      <trkpt lat="44.99396" lon="2.14596">
        <ele>619.23</ele>
        <time>2021-08-16T10:28:01Z</time>
      </trkpt>
      <trkpt lat="44.99395" lon="2.14592">
        <ele>619.23</ele>
        <time>2021-08-16T10:28:05Z</time>
      </trkpt>
      <trkpt lat="44.99395" lon="2.1459">
        <ele>619.23</ele>
        <time>2021-08-16T10:28:06Z</time>
      </trkpt>
      <trkpt lat="44.99396" lon="2.14588">
        <ele>619.23</ele>
        <time>2021-08-16T10:28:07Z</time>
      </trkpt>
      <trkpt lat="44.99396" lon="2.14586">
        <ele>619.23</ele>
        <time>2021-08-16T10:28:08Z</time>
      </trkpt>
      <trkpt lat="44.99397" lon="2.14584">
        <ele>619.23</ele>
        <time>2021-08-16T10:28:09Z</time>
      </trkpt>
      <trkpt lat="44.9941" lon="2.14558">
        <ele>618.26</ele>
        <time>2021-08-16T10:28:15Z</time>
      </trkpt>
      <trkpt lat="44.9942" lon="2.14541">
        <ele>617.78</ele>
        <time>2021-08-16T10:28:18Z</time>
      </trkpt>
      <trkpt lat="44.99454" lon="2.14483">
        <ele>616.34</ele>
        <time>2021-08-16T10:28:27Z</time>
      </trkpt>
      <trkpt lat="44.99488" lon="2.14425">
        <ele>616.34</ele>
        <time>2021-08-16T10:28:37Z</time>
      </trkpt>
      <trkpt lat="44.99524" lon="2.14367">
        <ele>615.86</ele>
        <time>2021-08-16T10:28:47Z</time>
      </trkpt>
      <trkpt lat="44.99562" lon="2.14302">
        <ele>613.46</ele>
        <time>2021-08-16T10:28:56Z</time>
      </trkpt>
      <trkpt lat="44.99607" lon="2.14223">
        <ele>611.06</ele>
        <time>2021-08-16T10:29:06Z</time>
      </trkpt>
      <trkpt lat="44.99638" lon="2.14152">
        <ele>610.57</ele>
        <time>2021-08-16T10:29:15Z</time>
      </trkpt>
      <trkpt lat="44.99654" lon="2.14103">
        <ele>610.57</ele>
        <time>2021-08-16T10:29:21Z</time>
      </trkpt>
      <trkpt lat="44.99659" lon="2.14088">
        <ele>610.57</ele>
        <time>2021-08-16T10:29:23Z</time>
      </trkpt>
      <trkpt lat="44.99669" lon="2.14039">
        <ele>610.57</ele>
        <time>2021-08-16T10:29:29Z</time>
      </trkpt>
      <trkpt lat="44.9967" lon="2.14032">
        <ele>610.57</ele>
        <time>2021-08-16T10:29:30Z</time>
      </trkpt>
      <trkpt lat="44.99672" lon="2.14025">
        <ele>610.57</ele>
        <time>2021-08-16T10:29:31Z</time>
      </trkpt>
      <trkpt lat="44.99684" lon="2.13989">
        <ele>610.09</ele>
        <time>2021-08-16T10:29:38Z</time>
      </trkpt>
      <trkpt lat="44.99696" lon="2.1394">
        <ele>608.65</ele>
        <time>2021-08-16T10:29:46Z</time>
      </trkpt>
      <trkpt lat="44.99697" lon="2.13933">
        <ele>608.65</ele>
        <time>2021-08-16T10:29:47Z</time>
      </trkpt>
      <trkpt lat="44.99698" lon="2.13928">
        <ele>608.17</ele>
        <time>2021-08-16T10:29:48Z</time>
      </trkpt>
      <trkpt lat="44.99699" lon="2.13923">
        <ele>608.17</ele>
        <time>2021-08-16T10:29:49Z</time>
      </trkpt>
      <trkpt lat="44.997" lon="2.13919">
        <ele>608.17</ele>
        <time>2021-08-16T10:29:50Z</time>
      </trkpt>
      <trkpt lat="44.997" lon="2.13915">
        <ele>607.69</ele>
        <time>2021-08-16T10:29:51Z</time>
      </trkpt>
      <trkpt lat="44.997" lon="2.13907">
        <ele>607.69</ele>
        <time>2021-08-16T10:29:57Z</time>
      </trkpt>
      <trkpt lat="44.99699" lon="2.13906">
        <ele>607.69</ele>
        <time>2021-08-16T10:29:58Z</time>
      </trkpt>
      <trkpt lat="44.99692" lon="2.13908">
        <ele>607.69</ele>
        <time>2021-08-16T10:30:00Z</time>
      </trkpt>
      <trkpt lat="44.99691" lon="2.13911">
        <ele>607.69</ele>
        <time>2021-08-16T10:30:01Z</time>
      </trkpt>
      <trkpt lat="44.9969" lon="2.13914">
        <ele>607.69</ele>
        <time>2021-08-16T10:30:02Z</time>
      </trkpt>
      <trkpt lat="44.99689" lon="2.13918">
        <ele>607.69</ele>
        <time>2021-08-16T10:30:03Z</time>
      </trkpt>
      <trkpt lat="44.99678" lon="2.1394">
        <ele>607.21</ele>
        <time>2021-08-16T10:30:10Z</time>
      </trkpt>
      <trkpt lat="44.99676" lon="2.13941">
        <ele>607.21</ele>
        <time>2021-08-16T10:30:14Z</time>
      </trkpt>
      <trkpt lat="44.99675" lon="2.13941">
        <ele>607.21</ele>
        <time>2021-08-16T10:30:33Z</time>
      </trkpt>
      <trkpt lat="44.99676" lon="2.13941">
        <ele>607.21</ele>
        <time>2021-08-16T10:30:38Z</time>
      </trkpt>
      <trkpt lat="44.99677" lon="2.13942">
        <ele>607.21</ele>
        <time>2021-08-16T10:30:39Z</time>
      </trkpt>
      <trkpt lat="44.99678" lon="2.13941">
        <ele>607.21</ele>
        <time>2021-08-16T10:30:40Z</time>
      </trkpt>
      <trkpt lat="44.99685" lon="2.13927">
        <ele>607.21</ele>
        <time>2021-08-16T10:30:46Z</time>
      </trkpt>
      <trkpt lat="44.99696" lon="2.13901">
        <ele>607.21</ele>
        <time>2021-08-16T10:30:52Z</time>
      </trkpt>
      <trkpt lat="44.99698" lon="2.13896">
        <ele>607.21</ele>
        <time>2021-08-16T10:30:53Z</time>
      </trkpt>
      <trkpt lat="44.997" lon="2.13889">
        <ele>606.73</ele>
        <time>2021-08-16T10:30:54Z</time>
      </trkpt>
      <trkpt lat="44.99701" lon="2.13882">
        <ele>606.73</ele>
        <time>2021-08-16T10:30:55Z</time>
      </trkpt>
      <trkpt lat="44.99701" lon="2.13875">
        <ele>606.25</ele>
        <time>2021-08-16T10:30:56Z</time>
      </trkpt>
      <trkpt lat="44.99702" lon="2.13867">
        <ele>606.25</ele>
        <time>2021-08-16T10:30:57Z</time>
      </trkpt>
      <trkpt lat="44.99702" lon="2.13859">
        <ele>605.29</ele>
        <time>2021-08-16T10:30:58Z</time>
      </trkpt>
      <trkpt lat="44.99698" lon="2.13803">
        <ele>602.88</ele>
        <time>2021-08-16T10:31:04Z</time>
      </trkpt>
      <trkpt lat="44.99693" lon="2.13742">
        <ele>600</ele>
        <time>2021-08-16T10:31:10Z</time>
      </trkpt>
      <trkpt lat="44.99688" lon="2.13683">
        <ele>598.08</ele>
        <time>2021-08-16T10:31:15Z</time>
      </trkpt>
      <trkpt lat="44.99685" lon="2.13645">
        <ele>596.64</ele>
        <time>2021-08-16T10:31:18Z</time>
      </trkpt>
      <trkpt lat="44.99683" lon="2.13617">
        <ele>595.19</ele>
        <time>2021-08-16T10:31:20Z</time>
      </trkpt>
      <trkpt lat="44.99673" lon="2.13499">
        <ele>592.31</ele>
        <time>2021-08-16T10:31:29Z</time>
      </trkpt>
      <trkpt lat="44.99667" lon="2.13418">
        <ele>591.83</ele>
        <time>2021-08-16T10:31:36Z</time>
      </trkpt>
      <trkpt lat="44.99664" lon="2.13399">
        <ele>591.83</ele>
        <time>2021-08-16T10:31:38Z</time>
      </trkpt>
      <trkpt lat="44.99661" lon="2.13392">
        <ele>591.83</ele>
        <time>2021-08-16T10:31:39Z</time>
      </trkpt>
      <trkpt lat="44.99656" lon="2.13386">
        <ele>591.35</ele>
        <time>2021-08-16T10:31:40Z</time>
      </trkpt>
      <trkpt lat="44.99651" lon="2.13382">
        <ele>591.35</ele>
        <time>2021-08-16T10:31:41Z</time>
      </trkpt>
      <trkpt lat="44.99645" lon="2.13378">
        <ele>590.87</ele>
        <time>2021-08-16T10:31:42Z</time>
      </trkpt>
      <trkpt lat="44.99639" lon="2.13376">
        <ele>590.87</ele>
        <time>2021-08-16T10:31:43Z</time>
      </trkpt>
      <trkpt lat="44.99633" lon="2.13373">
        <ele>590.39</ele>
        <time>2021-08-16T10:31:44Z</time>
      </trkpt>
      <trkpt lat="44.99613" lon="2.13365">
        <ele>589.43</ele>
        <time>2021-08-16T10:31:49Z</time>
      </trkpt>
      <trkpt lat="44.99605" lon="2.13353">
        <ele>588.46</ele>
        <time>2021-08-16T10:31:54Z</time>
      </trkpt>
      <trkpt lat="44.99589" lon="2.13325">
        <ele>587.02</ele>
        <time>2021-08-16T10:32:00Z</time>
      </trkpt>
      <trkpt lat="44.99576" lon="2.13304">
        <ele>586.06</ele>
        <time>2021-08-16T10:32:04Z</time>
      </trkpt>
      <trkpt lat="44.99572" lon="2.133">
        <ele>586.06</ele>
        <time>2021-08-16T10:32:05Z</time>
      </trkpt>
      <trkpt lat="44.99567" lon="2.13297">
        <ele>585.58</ele>
        <time>2021-08-16T10:32:06Z</time>
      </trkpt>
      <trkpt lat="44.99549" lon="2.13287">
        <ele>584.14</ele>
        <time>2021-08-16T10:32:09Z</time>
      </trkpt>
      <trkpt lat="44.99537" lon="2.13277">
        <ele>583.18</ele>
        <time>2021-08-16T10:32:11Z</time>
      </trkpt>
      <trkpt lat="44.99526" lon="2.13269">
        <ele>582.7</ele>
        <time>2021-08-16T10:32:13Z</time>
      </trkpt>
      <trkpt lat="44.99519" lon="2.13267">
        <ele>581.73</ele>
        <time>2021-08-16T10:32:14Z</time>
      </trkpt>
      <trkpt lat="44.99512" lon="2.13266">
        <ele>581.73</ele>
        <time>2021-08-16T10:32:15Z</time>
      </trkpt>
      <trkpt lat="44.99506" lon="2.13266">
        <ele>581.73</ele>
        <time>2021-08-16T10:32:16Z</time>
      </trkpt>
      <trkpt lat="44.995" lon="2.13267">
        <ele>581.25</ele>
        <time>2021-08-16T10:32:17Z</time>
      </trkpt>
      <trkpt lat="44.99494" lon="2.13269">
        <ele>581.25</ele>
        <time>2021-08-16T10:32:18Z</time>
      </trkpt>
      <trkpt lat="44.99488" lon="2.13272">
        <ele>580.77</ele>
        <time>2021-08-16T10:32:19Z</time>
      </trkpt>
      <trkpt lat="44.99483" lon="2.13275">
        <ele>580.29</ele>
        <time>2021-08-16T10:32:20Z</time>
      </trkpt>
      <trkpt lat="44.99468" lon="2.13286">
        <ele>579.81</ele>
        <time>2021-08-16T10:32:23Z</time>
      </trkpt>
      <trkpt lat="44.99462" lon="2.13287">
        <ele>579.81</ele>
        <time>2021-08-16T10:32:24Z</time>
      </trkpt>
      <trkpt lat="44.99457" lon="2.13287">
        <ele>579.33</ele>
        <time>2021-08-16T10:32:25Z</time>
      </trkpt>
      <trkpt lat="44.99452" lon="2.13285">
        <ele>579.33</ele>
        <time>2021-08-16T10:32:26Z</time>
      </trkpt>
      <trkpt lat="44.99448" lon="2.13282">
        <ele>579.33</ele>
        <time>2021-08-16T10:32:27Z</time>
      </trkpt>
      <trkpt lat="44.99444" lon="2.13278">
        <ele>578.85</ele>
        <time>2021-08-16T10:32:28Z</time>
      </trkpt>
      <trkpt lat="44.99441" lon="2.13273">
        <ele>578.85</ele>
        <time>2021-08-16T10:32:29Z</time>
      </trkpt>
      <trkpt lat="44.99438" lon="2.13268">
        <ele>578.85</ele>
        <time>2021-08-16T10:32:30Z</time>
      </trkpt>
      <trkpt lat="44.99427" lon="2.13255">
        <ele>577.89</ele>
        <time>2021-08-16T10:32:33Z</time>
      </trkpt>
      <trkpt lat="44.99424" lon="2.13248">
        <ele>577.41</ele>
        <time>2021-08-16T10:32:34Z</time>
      </trkpt>
      <trkpt lat="44.99422" lon="2.13241">
        <ele>577.41</ele>
        <time>2021-08-16T10:32:35Z</time>
      </trkpt>
      <trkpt lat="44.99416" lon="2.13208">
        <ele>575.97</ele>
        <time>2021-08-16T10:32:39Z</time>
      </trkpt>
      <trkpt lat="44.99417" lon="2.13199">
        <ele>575.97</ele>
        <time>2021-08-16T10:32:40Z</time>
      </trkpt>
      <trkpt lat="44.99417" lon="2.13191">
        <ele>575.97</ele>
        <time>2021-08-16T10:32:41Z</time>
      </trkpt>
      <trkpt lat="44.99419" lon="2.13175">
        <ele>575.49</ele>
        <time>2021-08-16T10:32:43Z</time>
      </trkpt>
      <trkpt lat="44.99419" lon="2.13167">
        <ele>575.49</ele>
        <time>2021-08-16T10:32:44Z</time>
      </trkpt>
      <trkpt lat="44.99418" lon="2.1316">
        <ele>575.49</ele>
        <time>2021-08-16T10:32:45Z</time>
      </trkpt>
      <trkpt lat="44.99416" lon="2.13153">
        <ele>575.49</ele>
        <time>2021-08-16T10:32:46Z</time>
      </trkpt>
      <trkpt lat="44.99414" lon="2.13146">
        <ele>575.49</ele>
        <time>2021-08-16T10:32:47Z</time>
      </trkpt>
      <trkpt lat="44.99399" lon="2.13102">
        <ele>575.49</ele>
        <time>2021-08-16T10:32:55Z</time>
      </trkpt>
      <trkpt lat="44.99387" lon="2.13074">
        <ele>577.41</ele>
        <time>2021-08-16T10:33:02Z</time>
      </trkpt>
      <trkpt lat="44.99376" lon="2.13038">
        <ele>578.37</ele>
        <time>2021-08-16T10:33:10Z</time>
      </trkpt>
      <trkpt lat="44.99363" lon="2.13035">
        <ele>578.85</ele>
        <time>2021-08-16T10:33:15Z</time>
      </trkpt>
      <trkpt lat="44.99347" lon="2.13042">
        <ele>579.33</ele>
        <time>2021-08-16T10:33:21Z</time>
      </trkpt>
      <trkpt lat="44.99327" lon="2.13048">
        <ele>579.81</ele>
        <time>2021-08-16T10:33:28Z</time>
      </trkpt>
      <trkpt lat="44.99304" lon="2.13044">
        <ele>579.81</ele>
        <time>2021-08-16T10:33:35Z</time>
      </trkpt>
      <trkpt lat="44.99286" lon="2.13028">
        <ele>580.29</ele>
        <time>2021-08-16T10:33:41Z</time>
      </trkpt>
      <trkpt lat="44.99267" lon="2.13025">
        <ele>580.29</ele>
        <time>2021-08-16T10:33:47Z</time>
      </trkpt>
      <trkpt lat="44.99258" lon="2.1303">
        <ele>578.85</ele>
        <time>2021-08-16T10:33:50Z</time>
      </trkpt>
      <trkpt lat="44.99247" lon="2.13042">
        <ele>577.89</ele>
        <time>2021-08-16T10:33:54Z</time>
      </trkpt>
      <trkpt lat="44.99243" lon="2.13046">
        <ele>577.41</ele>
        <time>2021-08-16T10:33:55Z</time>
      </trkpt>
      <trkpt lat="44.9924" lon="2.13051">
        <ele>577.41</ele>
        <time>2021-08-16T10:33:56Z</time>
      </trkpt>
      <trkpt lat="44.99224" lon="2.13074">
        <ele>573.56</ele>
        <time>2021-08-16T10:34:00Z</time>
      </trkpt>
      <trkpt lat="44.99219" lon="2.13079">
        <ele>572.6</ele>
        <time>2021-08-16T10:34:01Z</time>
      </trkpt>
      <trkpt lat="44.99214" lon="2.13083">
        <ele>571.64</ele>
        <time>2021-08-16T10:34:02Z</time>
      </trkpt>
      <trkpt lat="44.99209" lon="2.13087">
        <ele>571.16</ele>
        <time>2021-08-16T10:34:03Z</time>
      </trkpt>
      <trkpt lat="44.99203" lon="2.13089">
        <ele>570.68</ele>
        <time>2021-08-16T10:34:04Z</time>
      </trkpt>
      <trkpt lat="44.99197" lon="2.1309">
        <ele>569.72</ele>
        <time>2021-08-16T10:34:05Z</time>
      </trkpt>
      <trkpt lat="44.99191" lon="2.1309">
        <ele>569.24</ele>
        <time>2021-08-16T10:34:06Z</time>
      </trkpt>
      <trkpt lat="44.99184" lon="2.1309">
        <ele>568.76</ele>
        <time>2021-08-16T10:34:07Z</time>
      </trkpt>
      <trkpt lat="44.99177" lon="2.1309">
        <ele>568.28</ele>
        <time>2021-08-16T10:34:08Z</time>
      </trkpt>
      <trkpt lat="44.99139" lon="2.13085">
        <ele>567.32</ele>
        <time>2021-08-16T10:34:14Z</time>
      </trkpt>
      <trkpt lat="44.99133" lon="2.13083">
        <ele>566.35</ele>
        <time>2021-08-16T10:34:15Z</time>
      </trkpt>
      <trkpt lat="44.99128" lon="2.1308">
        <ele>566.35</ele>
        <time>2021-08-16T10:34:16Z</time>
      </trkpt>
      <trkpt lat="44.99122" lon="2.13077">
        <ele>566.35</ele>
        <time>2021-08-16T10:34:17Z</time>
      </trkpt>
      <trkpt lat="44.99116" lon="2.13072">
        <ele>565.39</ele>
        <time>2021-08-16T10:34:18Z</time>
      </trkpt>
      <trkpt lat="44.99099" lon="2.13057">
        <ele>563.47</ele>
        <time>2021-08-16T10:34:21Z</time>
      </trkpt>
      <trkpt lat="44.99088" lon="2.13043">
        <ele>562.03</ele>
        <time>2021-08-16T10:34:23Z</time>
      </trkpt>
      <trkpt lat="44.99065" lon="2.13011">
        <ele>558.66</ele>
        <time>2021-08-16T10:34:28Z</time>
      </trkpt>
      <trkpt lat="44.99061" lon="2.13007">
        <ele>558.18</ele>
        <time>2021-08-16T10:34:29Z</time>
      </trkpt>
      <trkpt lat="44.99056" lon="2.13004">
        <ele>557.7</ele>
        <time>2021-08-16T10:34:30Z</time>
      </trkpt>
      <trkpt lat="44.99051" lon="2.13003">
        <ele>556.74</ele>
        <time>2021-08-16T10:34:31Z</time>
      </trkpt>
      <trkpt lat="44.99045" lon="2.13004">
        <ele>556.26</ele>
        <time>2021-08-16T10:34:32Z</time>
      </trkpt>
      <trkpt lat="44.9904" lon="2.13007">
        <ele>555.78</ele>
        <time>2021-08-16T10:34:33Z</time>
      </trkpt>
      <trkpt lat="44.99035" lon="2.13012">
        <ele>555.3</ele>
        <time>2021-08-16T10:34:34Z</time>
      </trkpt>
      <trkpt lat="44.99029" lon="2.13017">
        <ele>554.34</ele>
        <time>2021-08-16T10:34:35Z</time>
      </trkpt>
      <trkpt lat="44.99024" lon="2.13023">
        <ele>553.86</ele>
        <time>2021-08-16T10:34:36Z</time>
      </trkpt>
      <trkpt lat="44.99018" lon="2.13028">
        <ele>552.9</ele>
        <time>2021-08-16T10:34:37Z</time>
      </trkpt>
      <trkpt lat="44.99011" lon="2.13035">
        <ele>552.41</ele>
        <time>2021-08-16T10:34:38Z</time>
      </trkpt>
      <trkpt lat="44.98978" lon="2.13063">
        <ele>549.53</ele>
        <time>2021-08-16T10:34:43Z</time>
      </trkpt>
      <trkpt lat="44.9895" lon="2.13083">
        <ele>548.09</ele>
        <time>2021-08-16T10:34:47Z</time>
      </trkpt>
      <trkpt lat="44.98895" lon="2.13104">
        <ele>547.61</ele>
        <time>2021-08-16T10:34:55Z</time>
      </trkpt>
      <trkpt lat="44.9888" lon="2.13106">
        <ele>549.05</ele>
        <time>2021-08-16T10:34:58Z</time>
      </trkpt>
      <trkpt lat="44.98868" lon="2.13105">
        <ele>550.01</ele>
        <time>2021-08-16T10:35:03Z</time>
      </trkpt>
      <trkpt lat="44.98857" lon="2.13107">
        <ele>551.45</ele>
        <time>2021-08-16T10:35:10Z</time>
      </trkpt>
      <trkpt lat="44.98852" lon="2.13109">
        <ele>551.93</ele>
        <time>2021-08-16T10:35:13Z</time>
      </trkpt>
      <trkpt lat="44.98851" lon="2.1311">
        <ele>552.41</ele>
        <time>2021-08-16T10:35:14Z</time>
      </trkpt>
      <trkpt lat="44.98849" lon="2.1311">
        <ele>552.41</ele>
        <time>2021-08-16T10:35:15Z</time>
      </trkpt>
      <trkpt lat="44.98834" lon="2.13116">
        <ele>552.9</ele>
        <time>2021-08-16T10:35:23Z</time>
      </trkpt>
      <trkpt lat="44.98819" lon="2.13125">
        <ele>552.9</ele>
        <time>2021-08-16T10:35:30Z</time>
      </trkpt>
      <trkpt lat="44.98802" lon="2.13131">
        <ele>552.9</ele>
        <time>2021-08-16T10:35:36Z</time>
      </trkpt>
      <trkpt lat="44.98778" lon="2.13133">
        <ele>550.49</ele>
        <time>2021-08-16T10:35:42Z</time>
      </trkpt>
      <trkpt lat="44.98768" lon="2.13132">
        <ele>550.01</ele>
        <time>2021-08-16T10:35:44Z</time>
      </trkpt>
      <trkpt lat="44.98737" lon="2.13126">
        <ele>546.65</ele>
        <time>2021-08-16T10:35:51Z</time>
      </trkpt>
      <trkpt lat="44.98724" lon="2.13122">
        <ele>544.72</ele>
        <time>2021-08-16T10:35:54Z</time>
      </trkpt>
      <trkpt lat="44.98719" lon="2.13119">
        <ele>543.76</ele>
        <time>2021-08-16T10:35:55Z</time>
      </trkpt>
      <trkpt lat="44.98705" lon="2.13096">
        <ele>539.92</ele>
        <time>2021-08-16T10:36:00Z</time>
      </trkpt>
      <trkpt lat="44.98704" lon="2.1309">
        <ele>539.92</ele>
        <time>2021-08-16T10:36:01Z</time>
      </trkpt>
      <trkpt lat="44.98705" lon="2.13077">
        <ele>537.99</ele>
        <time>2021-08-16T10:36:03Z</time>
      </trkpt>
      <trkpt lat="44.98706" lon="2.13047">
        <ele>534.15</ele>
        <time>2021-08-16T10:36:07Z</time>
      </trkpt>
      <trkpt lat="44.98708" lon="2.13022">
        <ele>532.23</ele>
        <time>2021-08-16T10:36:10Z</time>
      </trkpt>
      <trkpt lat="44.98702" lon="2.12984">
        <ele>528.38</ele>
        <time>2021-08-16T10:36:15Z</time>
      </trkpt>
      <trkpt lat="44.987" lon="2.12967">
        <ele>526.46</ele>
        <time>2021-08-16T10:36:17Z</time>
      </trkpt>
      <trkpt lat="44.98704" lon="2.12936">
        <ele>522.13</ele>
        <time>2021-08-16T10:36:21Z</time>
      </trkpt>
      <trkpt lat="44.98709" lon="2.12922">
        <ele>519.25</ele>
        <time>2021-08-16T10:36:23Z</time>
      </trkpt>
      <trkpt lat="44.98716" lon="2.12899">
        <ele>515.4</ele>
        <time>2021-08-16T10:36:26Z</time>
      </trkpt>
      <trkpt lat="44.9873" lon="2.12872">
        <ele>510.6</ele>
        <time>2021-08-16T10:36:30Z</time>
      </trkpt>
      <trkpt lat="44.98748" lon="2.12848">
        <ele>505.31</ele>
        <time>2021-08-16T10:36:34Z</time>
      </trkpt>
      <trkpt lat="44.98763" lon="2.12832">
        <ele>502.43</ele>
        <time>2021-08-16T10:36:37Z</time>
      </trkpt>
      <trkpt lat="44.98788" lon="2.12816">
        <ele>497.14</ele>
        <time>2021-08-16T10:36:41Z</time>
      </trkpt>
      <trkpt lat="44.98794" lon="2.12813">
        <ele>496.18</ele>
        <time>2021-08-16T10:36:42Z</time>
      </trkpt>
      <trkpt lat="44.98809" lon="2.12809">
        <ele>495.22</ele>
        <time>2021-08-16T10:36:44Z</time>
      </trkpt>
      <trkpt lat="44.98818" lon="2.12799">
        <ele>493.77</ele>
        <time>2021-08-16T10:36:47Z</time>
      </trkpt>
      <trkpt lat="44.98811" lon="2.12796">
        <ele>491.85</ele>
        <time>2021-08-16T10:36:50Z</time>
      </trkpt>
      <trkpt lat="44.98801" lon="2.12796">
        <ele>487.53</ele>
        <time>2021-08-16T10:36:53Z</time>
      </trkpt>
      <trkpt lat="44.98789" lon="2.1279">
        <ele>484.16</ele>
        <time>2021-08-16T10:36:55Z</time>
      </trkpt>
      <trkpt lat="44.98758" lon="2.1278">
        <ele>478.39</ele>
        <time>2021-08-16T10:37:00Z</time>
      </trkpt>
      <trkpt lat="44.98736" lon="2.12784">
        <ele>474.07</ele>
        <time>2021-08-16T10:37:03Z</time>
      </trkpt>
      <trkpt lat="44.98712" lon="2.1279">
        <ele>469.74</ele>
        <time>2021-08-16T10:37:06Z</time>
      </trkpt>
      <trkpt lat="44.98692" lon="2.12797">
        <ele>466.38</ele>
        <time>2021-08-16T10:37:09Z</time>
      </trkpt>
      <trkpt lat="44.98677" lon="2.12799">
        <ele>462.53</ele>
        <time>2021-08-16T10:37:11Z</time>
      </trkpt>
      <trkpt lat="44.9867" lon="2.12799">
        <ele>461.09</ele>
        <time>2021-08-16T10:37:12Z</time>
      </trkpt>
      <trkpt lat="44.98648" lon="2.12793">
        <ele>456.28</ele>
        <time>2021-08-16T10:37:16Z</time>
      </trkpt>
      <trkpt lat="44.98633" lon="2.12794">
        <ele>453.4</ele>
        <time>2021-08-16T10:37:20Z</time>
      </trkpt>
      <trkpt lat="44.9862" lon="2.12807">
        <ele>449.55</ele>
        <time>2021-08-16T10:37:25Z</time>
      </trkpt>
      <trkpt lat="44.98617" lon="2.12798">
        <ele>447.63</ele>
        <time>2021-08-16T10:37:28Z</time>
      </trkpt>
      <trkpt lat="44.98618" lon="2.12787">
        <ele>446.19</ele>
        <time>2021-08-16T10:37:30Z</time>
      </trkpt>
      <trkpt lat="44.98632" lon="2.12763">
        <ele>440.9</ele>
        <time>2021-08-16T10:37:35Z</time>
      </trkpt>
      <trkpt lat="44.98657" lon="2.12749">
        <ele>438.02</ele>
        <time>2021-08-16T10:37:39Z</time>
      </trkpt>
      <trkpt lat="44.98689" lon="2.12739">
        <ele>438.5</ele>
        <time>2021-08-16T10:37:45Z</time>
      </trkpt>
      <trkpt lat="44.98695" lon="2.12734">
        <ele>438.5</ele>
        <time>2021-08-16T10:37:46Z</time>
      </trkpt>
      <trkpt lat="44.98698" lon="2.12731">
        <ele>438.5</ele>
        <time>2021-08-16T10:37:47Z</time>
      </trkpt>
      <trkpt lat="44.98702" lon="2.12727">
        <ele>438.5</ele>
        <time>2021-08-16T10:37:48Z</time>
      </trkpt>
      <trkpt lat="44.98706" lon="2.12722">
        <ele>438.5</ele>
        <time>2021-08-16T10:37:49Z</time>
      </trkpt>
      <trkpt lat="44.9871" lon="2.12717">
        <ele>437.54</ele>
        <time>2021-08-16T10:37:50Z</time>
      </trkpt>
      <trkpt lat="44.98712" lon="2.12713">
        <ele>436.58</ele>
        <time>2021-08-16T10:37:51Z</time>
      </trkpt>
      <trkpt lat="44.98714" lon="2.12708">
        <ele>435.61</ele>
        <time>2021-08-16T10:37:52Z</time>
      </trkpt>
      <trkpt lat="44.98714" lon="2.12703">
        <ele>435.13</ele>
        <time>2021-08-16T10:37:53Z</time>
      </trkpt>
      <trkpt lat="44.98712" lon="2.127">
        <ele>434.17</ele>
        <time>2021-08-16T10:37:54Z</time>
      </trkpt>
      <trkpt lat="44.98709" lon="2.12698">
        <ele>433.69</ele>
        <time>2021-08-16T10:37:55Z</time>
      </trkpt>
      <trkpt lat="44.98704" lon="2.12696">
        <ele>433.69</ele>
        <time>2021-08-16T10:37:56Z</time>
      </trkpt>
      <trkpt lat="44.98684" lon="2.12693">
        <ele>430.33</ele>
        <time>2021-08-16T10:38:00Z</time>
      </trkpt>
      <trkpt lat="44.9868" lon="2.12694">
        <ele>429.85</ele>
        <time>2021-08-16T10:38:01Z</time>
      </trkpt>
      <trkpt lat="44.98675" lon="2.12698">
        <ele>428.89</ele>
        <time>2021-08-16T10:38:02Z</time>
      </trkpt>
      <trkpt lat="44.98671" lon="2.12704">
        <ele>427.92</ele>
        <time>2021-08-16T10:38:03Z</time>
      </trkpt>
      <trkpt lat="44.98668" lon="2.12709">
        <ele>426.96</ele>
        <time>2021-08-16T10:38:04Z</time>
      </trkpt>
      <trkpt lat="44.98664" lon="2.12712">
        <ele>426.48</ele>
        <time>2021-08-16T10:38:05Z</time>
      </trkpt>
      <trkpt lat="44.9866" lon="2.12713">
        <ele>426.48</ele>
        <time>2021-08-16T10:38:06Z</time>
      </trkpt>
      <trkpt lat="44.98655" lon="2.12712">
        <ele>426.48</ele>
        <time>2021-08-16T10:38:07Z</time>
      </trkpt>
      <trkpt lat="44.98642" lon="2.12713">
        <ele>426.48</ele>
        <time>2021-08-16T10:38:12Z</time>
      </trkpt>
      <trkpt lat="44.98637" lon="2.12707">
        <ele>426.48</ele>
        <time>2021-08-16T10:38:16Z</time>
      </trkpt>
      <trkpt lat="44.98637" lon="2.12705">
        <ele>426.48</ele>
        <time>2021-08-16T10:38:17Z</time>
      </trkpt>
      <trkpt lat="44.98637" lon="2.12702">
        <ele>426.48</ele>
        <time>2021-08-16T10:38:18Z</time>
      </trkpt>
      <trkpt lat="44.98637" lon="2.12678">
        <ele>425.52</ele>
        <time>2021-08-16T10:38:24Z</time>
      </trkpt>
      <trkpt lat="44.98636" lon="2.12676">
        <ele>425.52</ele>
        <time>2021-08-16T10:38:25Z</time>
      </trkpt>
      <trkpt lat="44.98624" lon="2.12657">
        <ele>426.96</ele>
        <time>2021-08-16T10:38:35Z</time>
      </trkpt>
      <trkpt lat="44.98619" lon="2.12637">
        <ele>426.96</ele>
        <time>2021-08-16T10:38:43Z</time>
      </trkpt>
      <trkpt lat="44.98618" lon="2.12612">
        <ele>426.96</ele>
        <time>2021-08-16T10:38:49Z</time>
      </trkpt>
      <trkpt lat="44.9861" lon="2.12588">
        <ele>426.96</ele>
        <time>2021-08-16T10:38:55Z</time>
      </trkpt>
      <trkpt lat="44.98604" lon="2.12563">
        <ele>426.96</ele>
        <time>2021-08-16T10:39:01Z</time>
      </trkpt>
      <trkpt lat="44.98605" lon="2.12561">
        <ele>426.96</ele>
        <time>2021-08-16T10:39:02Z</time>
      </trkpt>
      <trkpt lat="44.98604" lon="2.12558">
        <ele>426.96</ele>
        <time>2021-08-16T10:39:07Z</time>
      </trkpt>
      <trkpt lat="44.98604" lon="2.12555">
        <ele>426.96</ele>
        <time>2021-08-16T10:39:24Z</time>
      </trkpt>
      <trkpt lat="44.98602" lon="2.12554">
        <ele>426.96</ele>
        <time>2021-08-16T10:39:46Z</time>
      </trkpt>
      <trkpt lat="44.98603" lon="2.12552">
        <ele>426.96</ele>
        <time>2021-08-16T10:39:54Z</time>
      </trkpt>
      <trkpt lat="44.98602" lon="2.1255">
        <ele>426.96</ele>
        <time>2021-08-16T10:40:09Z</time>
      </trkpt>
      <trkpt lat="44.98608" lon="2.12534">
        <ele>426.96</ele>
        <time>2021-08-16T10:40:14Z</time>
      </trkpt>
      <trkpt lat="44.98615" lon="2.12519">
        <ele>426.96</ele>
        <time>2021-08-16T10:40:20Z</time>
      </trkpt>
      <trkpt lat="44.98626" lon="2.12503">
        <ele>426.96</ele>
        <time>2021-08-16T10:40:26Z</time>
      </trkpt>
      <trkpt lat="44.98642" lon="2.1248">
        <ele>426.96</ele>
        <time>2021-08-16T10:40:33Z</time>
      </trkpt>
      <trkpt lat="44.98652" lon="2.1245">
        <ele>426.96</ele>
        <time>2021-08-16T10:40:40Z</time>
      </trkpt>
      <trkpt lat="44.98651" lon="2.12427">
        <ele>426.48</ele>
        <time>2021-08-16T10:40:45Z</time>
      </trkpt>
      <trkpt lat="44.98652" lon="2.124">
        <ele>426.48</ele>
        <time>2021-08-16T10:40:51Z</time>
      </trkpt>
      <trkpt lat="44.98653" lon="2.12375">
        <ele>426.48</ele>
        <time>2021-08-16T10:40:57Z</time>
      </trkpt>
      <trkpt lat="44.98651" lon="2.12343">
        <ele>426.48</ele>
        <time>2021-08-16T10:41:04Z</time>
      </trkpt>
      <trkpt lat="44.98651" lon="2.12334">
        <ele>426.48</ele>
        <time>2021-08-16T10:41:06Z</time>
      </trkpt>
      <trkpt lat="44.98658" lon="2.12304">
        <ele>426.48</ele>
        <time>2021-08-16T10:41:13Z</time>
      </trkpt>
      <trkpt lat="44.98654" lon="2.12278">
        <ele>426.48</ele>
        <time>2021-08-16T10:41:19Z</time>
      </trkpt>
      <trkpt lat="44.98651" lon="2.12244">
        <ele>426.48</ele>
        <time>2021-08-16T10:41:26Z</time>
      </trkpt>
      <trkpt lat="44.98648" lon="2.12203">
        <ele>426.48</ele>
        <time>2021-08-16T10:41:34Z</time>
      </trkpt>
      <trkpt lat="44.98646" lon="2.12176">
        <ele>426.48</ele>
        <time>2021-08-16T10:41:40Z</time>
      </trkpt>
      <trkpt lat="44.98646" lon="2.12149">
        <ele>426.48</ele>
        <time>2021-08-16T10:41:45Z</time>
      </trkpt>
      <trkpt lat="44.98647" lon="2.12144">
        <ele>426.48</ele>
        <time>2021-08-16T10:41:46Z</time>
      </trkpt>
      <trkpt lat="44.98649" lon="2.1214">
        <ele>426.48</ele>
        <time>2021-08-16T10:41:47Z</time>
      </trkpt>
      <trkpt lat="44.98652" lon="2.12137">
        <ele>426.48</ele>
        <time>2021-08-16T10:41:48Z</time>
      </trkpt>
      <trkpt lat="44.98655" lon="2.12135">
        <ele>426.48</ele>
        <time>2021-08-16T10:41:49Z</time>
      </trkpt>
      <trkpt lat="44.98678" lon="2.12121">
        <ele>426.48</ele>
        <time>2021-08-16T10:41:57Z</time>
      </trkpt>
      <trkpt lat="44.98704" lon="2.12117">
        <ele>426.48</ele>
        <time>2021-08-16T10:42:05Z</time>
      </trkpt>
      <trkpt lat="44.98713" lon="2.12112">
        <ele>426.48</ele>
        <time>2021-08-16T10:42:09Z</time>
      </trkpt>
      <trkpt lat="44.98714" lon="2.1211">
        <ele>426.48</ele>
        <time>2021-08-16T10:42:10Z</time>
      </trkpt>
      <trkpt lat="44.98714" lon="2.12107">
        <ele>426.48</ele>
        <time>2021-08-16T10:42:11Z</time>
      </trkpt>
      <trkpt lat="44.98713" lon="2.12106">
        <ele>426.48</ele>
        <time>2021-08-16T10:42:12Z</time>
      </trkpt>
      <trkpt lat="44.98711" lon="2.12104">
        <ele>426.48</ele>
        <time>2021-08-16T10:42:13Z</time>
      </trkpt>
      <trkpt lat="44.9871" lon="2.12103">
        <ele>426.48</ele>
        <time>2021-08-16T10:42:14Z</time>
      </trkpt>
      <trkpt lat="44.98698" lon="2.12094">
        <ele>426.48</ele>
        <time>2021-08-16T10:42:20Z</time>
      </trkpt>
      <trkpt lat="44.98683" lon="2.12069">
        <ele>426.48</ele>
        <time>2021-08-16T10:42:27Z</time>
      </trkpt>
      <trkpt lat="44.9867" lon="2.12045">
        <ele>426.48</ele>
        <time>2021-08-16T10:42:33Z</time>
      </trkpt>
      <trkpt lat="44.98657" lon="2.12018">
        <ele>426.48</ele>
        <time>2021-08-16T10:42:40Z</time>
      </trkpt>
      <trkpt lat="44.98655" lon="2.11985">
        <ele>426.48</ele>
        <time>2021-08-16T10:42:47Z</time>
      </trkpt>
      <trkpt lat="44.98656" lon="2.11971">
        <ele>426.48</ele>
        <time>2021-08-16T10:42:50Z</time>
      </trkpt>
      <trkpt lat="44.98656" lon="2.11968">
        <ele>426.48</ele>
        <time>2021-08-16T10:42:51Z</time>
      </trkpt>
      <trkpt lat="44.98655" lon="2.11965">
        <ele>426.48</ele>
        <time>2021-08-16T10:42:52Z</time>
      </trkpt>
      <trkpt lat="44.98654" lon="2.11963">
        <ele>426.48</ele>
        <time>2021-08-16T10:42:53Z</time>
      </trkpt>
      <trkpt lat="44.98653" lon="2.1196">
        <ele>426.48</ele>
        <time>2021-08-16T10:42:54Z</time>
      </trkpt>
      <trkpt lat="44.98652" lon="2.11957">
        <ele>426.48</ele>
        <time>2021-08-16T10:42:55Z</time>
      </trkpt>
      <trkpt lat="44.98646" lon="2.11947">
        <ele>426.48</ele>
        <time>2021-08-16T10:43:00Z</time>
      </trkpt>
      <trkpt lat="44.98638" lon="2.11936">
        <ele>426.48</ele>
        <time>2021-08-16T10:43:06Z</time>
      </trkpt>
      <trkpt lat="44.9863" lon="2.1192">
        <ele>426.48</ele>
        <time>2021-08-16T10:43:12Z</time>
      </trkpt>
      <trkpt lat="44.98628" lon="2.11917">
        <ele>426.48</ele>
        <time>2021-08-16T10:43:14Z</time>
      </trkpt>
      <trkpt lat="44.98627" lon="2.11915">
        <ele>426.48</ele>
        <time>2021-08-16T10:43:15Z</time>
      </trkpt>
      <trkpt lat="44.98627" lon="2.11913">
        <ele>426.48</ele>
        <time>2021-08-16T10:43:16Z</time>
      </trkpt>
      <trkpt lat="44.98621" lon="2.11904">
        <ele>426.48</ele>
        <time>2021-08-16T10:43:21Z</time>
      </trkpt>
      <trkpt lat="44.98619" lon="2.119">
        <ele>426.48</ele>
        <time>2021-08-16T10:43:26Z</time>
      </trkpt>
      <trkpt lat="44.98615" lon="2.11896">
        <ele>426.48</ele>
        <time>2021-08-16T10:43:33Z</time>
      </trkpt>
      <trkpt lat="44.98615" lon="2.11897">
        <ele>426.48</ele>
        <time>2021-08-16T10:43:46Z</time>
      </trkpt>
      <trkpt lat="44.98615" lon="2.11895">
        <ele>426.48</ele>
        <time>2021-08-16T10:43:58Z</time>
      </trkpt>
      <trkpt lat="44.98615" lon="2.11896">
        <ele>426.48</ele>
        <time>2021-08-16T10:44:05Z</time>
      </trkpt>
      <trkpt lat="44.98614" lon="2.11898">
        <ele>426.48</ele>
        <time>2021-08-16T10:44:14Z</time>
      </trkpt>
      <trkpt lat="44.98611" lon="2.11899">
        <ele>426.48</ele>
        <time>2021-08-16T10:44:29Z</time>
      </trkpt>
      <trkpt lat="44.98609" lon="2.11897">
        <ele>426.48</ele>
        <time>2021-08-16T10:44:46Z</time>
      </trkpt>
      <trkpt lat="44.9861" lon="2.11896">
        <ele>426.48</ele>
        <time>2021-08-16T10:44:54Z</time>
      </trkpt>
      <trkpt lat="44.986" lon="2.11888">
        <ele>426.48</ele>
        <time>2021-08-16T10:45:01Z</time>
      </trkpt>
      <trkpt lat="44.98586" lon="2.11881">
        <ele>426.48</ele>
        <time>2021-08-16T10:45:07Z</time>
      </trkpt>
      <trkpt lat="44.98567" lon="2.11875">
        <ele>426.48</ele>
        <time>2021-08-16T10:45:14Z</time>
      </trkpt>
      <trkpt lat="44.98549" lon="2.11872">
        <ele>426.48</ele>
        <time>2021-08-16T10:45:21Z</time>
      </trkpt>
      <trkpt lat="44.9853" lon="2.11866">
        <ele>426.48</ele>
        <time>2021-08-16T10:45:28Z</time>
      </trkpt>
      <trkpt lat="44.98513" lon="2.11867">
        <ele>426.48</ele>
        <time>2021-08-16T10:45:34Z</time>
      </trkpt>
      <trkpt lat="44.98499" lon="2.11874">
        <ele>426.48</ele>
        <time>2021-08-16T10:45:40Z</time>
      </trkpt>
      <trkpt lat="44.98482" lon="2.11874">
        <ele>426.96</ele>
        <time>2021-08-16T10:45:47Z</time>
      </trkpt>
      <trkpt lat="44.98466" lon="2.11861">
        <ele>426.96</ele>
        <time>2021-08-16T10:45:53Z</time>
      </trkpt>
      <trkpt lat="44.98465" lon="2.11857">
        <ele>426.96</ele>
        <time>2021-08-16T10:45:54Z</time>
      </trkpt>
      <trkpt lat="44.98464" lon="2.11854">
        <ele>426.96</ele>
        <time>2021-08-16T10:45:55Z</time>
      </trkpt>
      <trkpt lat="44.98464" lon="2.11851">
        <ele>426.96</ele>
        <time>2021-08-16T10:45:56Z</time>
      </trkpt>
      <trkpt lat="44.98465" lon="2.11848">
        <ele>426.96</ele>
        <time>2021-08-16T10:45:57Z</time>
      </trkpt>
      <trkpt lat="44.98466" lon="2.11846">
        <ele>426.96</ele>
        <time>2021-08-16T10:45:58Z</time>
      </trkpt>
      <trkpt lat="44.98467" lon="2.11843">
        <ele>426.96</ele>
        <time>2021-08-16T10:45:59Z</time>
      </trkpt>
      <trkpt lat="44.98468" lon="2.11841">
        <ele>426.96</ele>
        <time>2021-08-16T10:46:00Z</time>
      </trkpt>
      <trkpt lat="44.98469" lon="2.11838">
        <ele>426.96</ele>
        <time>2021-08-16T10:46:01Z</time>
      </trkpt>
      <trkpt lat="44.9847" lon="2.11836">
        <ele>426.96</ele>
        <time>2021-08-16T10:46:02Z</time>
      </trkpt>
      <trkpt lat="44.9847" lon="2.11833">
        <ele>426.96</ele>
        <time>2021-08-16T10:46:03Z</time>
      </trkpt>
      <trkpt lat="44.98473" lon="2.11809">
        <ele>425.52</ele>
        <time>2021-08-16T10:46:10Z</time>
      </trkpt>
      <trkpt lat="44.98474" lon="2.11795">
        <ele>425.52</ele>
        <time>2021-08-16T10:46:15Z</time>
      </trkpt>
      <trkpt lat="44.98476" lon="2.11792">
        <ele>425.52</ele>
        <time>2021-08-16T10:46:16Z</time>
      </trkpt>
      <trkpt lat="44.98478" lon="2.1179">
        <ele>425.52</ele>
        <time>2021-08-16T10:46:17Z</time>
      </trkpt>
      <trkpt lat="44.9848" lon="2.11787">
        <ele>425.52</ele>
        <time>2021-08-16T10:46:18Z</time>
      </trkpt>
      <trkpt lat="44.98482" lon="2.11785">
        <ele>425.52</ele>
        <time>2021-08-16T10:46:19Z</time>
      </trkpt>
      <trkpt lat="44.98483" lon="2.11783">
        <ele>425.52</ele>
        <time>2021-08-16T10:46:20Z</time>
      </trkpt>
      <trkpt lat="44.98484" lon="2.1178">
        <ele>425.52</ele>
        <time>2021-08-16T10:46:21Z</time>
      </trkpt>
      <trkpt lat="44.98485" lon="2.11778">
        <ele>425.52</ele>
        <time>2021-08-16T10:46:22Z</time>
      </trkpt>
      <trkpt lat="44.98486" lon="2.11774">
        <ele>425.52</ele>
        <time>2021-08-16T10:46:23Z</time>
      </trkpt>
      <trkpt lat="44.98495" lon="2.11749">
        <ele>425.52</ele>
        <time>2021-08-16T10:46:29Z</time>
      </trkpt>
      <trkpt lat="44.98501" lon="2.1173">
        <ele>425.52</ele>
        <time>2021-08-16T10:46:34Z</time>
      </trkpt>
      <trkpt lat="44.98507" lon="2.11706">
        <ele>425.52</ele>
        <time>2021-08-16T10:46:40Z</time>
      </trkpt>
      <trkpt lat="44.98515" lon="2.11684">
        <ele>425.52</ele>
        <time>2021-08-16T10:46:46Z</time>
      </trkpt>
      <trkpt lat="44.98525" lon="2.11664">
        <ele>425.52</ele>
        <time>2021-08-16T10:46:52Z</time>
      </trkpt>
      <trkpt lat="44.98538" lon="2.11645">
        <ele>425.52</ele>
        <time>2021-08-16T10:46:58Z</time>
      </trkpt>
      <trkpt lat="44.98548" lon="2.11625">
        <ele>425.52</ele>
        <time>2021-08-16T10:47:03Z</time>
      </trkpt>
      <trkpt lat="44.98558" lon="2.11597">
        <ele>425.04</ele>
        <time>2021-08-16T10:47:10Z</time>
      </trkpt>
      <trkpt lat="44.98561" lon="2.11581">
        <ele>425.04</ele>
        <time>2021-08-16T10:47:13Z</time>
      </trkpt>
      <trkpt lat="44.98562" lon="2.11575">
        <ele>425.04</ele>
        <time>2021-08-16T10:47:14Z</time>
      </trkpt>
      <trkpt lat="44.98563" lon="2.11571">
        <ele>425.04</ele>
        <time>2021-08-16T10:47:15Z</time>
      </trkpt>
      <trkpt lat="44.98565" lon="2.11566">
        <ele>425.04</ele>
        <time>2021-08-16T10:47:16Z</time>
      </trkpt>
      <trkpt lat="44.98567" lon="2.1156">
        <ele>425.04</ele>
        <time>2021-08-16T10:47:17Z</time>
      </trkpt>
      <trkpt lat="44.9857" lon="2.11555">
        <ele>425.04</ele>
        <time>2021-08-16T10:47:18Z</time>
      </trkpt>
      <trkpt lat="44.9859" lon="2.11529">
        <ele>425.04</ele>
        <time>2021-08-16T10:47:25Z</time>
      </trkpt>
      <trkpt lat="44.98596" lon="2.1152">
        <ele>425.04</ele>
        <time>2021-08-16T10:47:28Z</time>
      </trkpt>
      <trkpt lat="44.98597" lon="2.11516">
        <ele>425.04</ele>
        <time>2021-08-16T10:47:29Z</time>
      </trkpt>
      <trkpt lat="44.98599" lon="2.11512">
        <ele>425.04</ele>
        <time>2021-08-16T10:47:30Z</time>
      </trkpt>
      <trkpt lat="44.98616" lon="2.11479">
        <ele>425.04</ele>
        <time>2021-08-16T10:47:38Z</time>
      </trkpt>
      <trkpt lat="44.98627" lon="2.11467">
        <ele>425.04</ele>
        <time>2021-08-16T10:47:44Z</time>
      </trkpt>
      <trkpt lat="44.98643" lon="2.11457">
        <ele>425.04</ele>
        <time>2021-08-16T10:47:50Z</time>
      </trkpt>
      <trkpt lat="44.98649" lon="2.11451">
        <ele>425.04</ele>
        <time>2021-08-16T10:47:55Z</time>
      </trkpt>
      <trkpt lat="44.98651" lon="2.11444">
        <ele>425.04</ele>
        <time>2021-08-16T10:48:03Z</time>
      </trkpt>
      <trkpt lat="44.98653" lon="2.11441">
        <ele>425.04</ele>
        <time>2021-08-16T10:48:11Z</time>
      </trkpt>
      <trkpt lat="44.98654" lon="2.11436">
        <ele>425.04</ele>
        <time>2021-08-16T10:48:18Z</time>
      </trkpt>
      <trkpt lat="44.98654" lon="2.11434">
        <ele>425.04</ele>
        <time>2021-08-16T10:48:19Z</time>
      </trkpt>
      <trkpt lat="44.98654" lon="2.11432">
        <ele>425.04</ele>
        <time>2021-08-16T10:48:20Z</time>
      </trkpt>
      <trkpt lat="44.98661" lon="2.11412">
        <ele>425.04</ele>
        <time>2021-08-16T10:48:26Z</time>
      </trkpt>
      <trkpt lat="44.98667" lon="2.11397">
        <ele>424.56</ele>
        <time>2021-08-16T10:48:30Z</time>
      </trkpt>
      <trkpt lat="44.98669" lon="2.11394">
        <ele>424.56</ele>
        <time>2021-08-16T10:48:31Z</time>
      </trkpt>
      <trkpt lat="44.98675" lon="2.11388">
        <ele>424.56</ele>
        <time>2021-08-16T10:48:34Z</time>
      </trkpt>
      <trkpt lat="44.98677" lon="2.11385">
        <ele>424.56</ele>
        <time>2021-08-16T10:48:35Z</time>
      </trkpt>
      <trkpt lat="44.98679" lon="2.11382">
        <ele>424.56</ele>
        <time>2021-08-16T10:48:36Z</time>
      </trkpt>
      <trkpt lat="44.98689" lon="2.11362">
        <ele>424.56</ele>
        <time>2021-08-16T10:48:43Z</time>
      </trkpt>
      <trkpt lat="44.98695" lon="2.11352">
        <ele>424.56</ele>
        <time>2021-08-16T10:48:48Z</time>
      </trkpt>
      <trkpt lat="44.98697" lon="2.11351">
        <ele>424.56</ele>
        <time>2021-08-16T10:48:49Z</time>
      </trkpt>
      <trkpt lat="44.98698" lon="2.1135">
        <ele>424.56</ele>
        <time>2021-08-16T10:48:50Z</time>
      </trkpt>
      <trkpt lat="44.98699" lon="2.11348">
        <ele>424.56</ele>
        <time>2021-08-16T10:48:51Z</time>
      </trkpt>
      <trkpt lat="44.98701" lon="2.11345">
        <ele>424.56</ele>
        <time>2021-08-16T10:48:52Z</time>
      </trkpt>
      <trkpt lat="44.98701" lon="2.11343">
        <ele>424.56</ele>
        <time>2021-08-16T10:48:53Z</time>
      </trkpt>
      <trkpt lat="44.98699" lon="2.11342">
        <ele>424.56</ele>
        <time>2021-08-16T10:48:56Z</time>
      </trkpt>
      <trkpt lat="44.98693" lon="2.11343">
        <ele>424.56</ele>
        <time>2021-08-16T10:49:01Z</time>
      </trkpt>
      <trkpt lat="44.98675" lon="2.11348">
        <ele>424.08</ele>
        <time>2021-08-16T10:49:10Z</time>
      </trkpt>
      <trkpt lat="44.98659" lon="2.11352">
        <ele>424.08</ele>
        <time>2021-08-16T10:49:16Z</time>
      </trkpt>
      <trkpt lat="44.98641" lon="2.1135">
        <ele>424.08</ele>
        <time>2021-08-16T10:49:22Z</time>
      </trkpt>
      <trkpt lat="44.9863" lon="2.11344">
        <ele>424.08</ele>
        <time>2021-08-16T10:49:25Z</time>
      </trkpt>
      <trkpt lat="44.98628" lon="2.1134">
        <ele>424.08</ele>
        <time>2021-08-16T10:49:26Z</time>
      </trkpt>
      <trkpt lat="44.98612" lon="2.11318">
        <ele>424.08</ele>
        <time>2021-08-16T10:49:33Z</time>
      </trkpt>
      <trkpt lat="44.98603" lon="2.113">
        <ele>424.08</ele>
        <time>2021-08-16T10:49:39Z</time>
      </trkpt>
      <trkpt lat="44.98596" lon="2.11282">
        <ele>424.08</ele>
        <time>2021-08-16T10:49:44Z</time>
      </trkpt>
      <trkpt lat="44.98589" lon="2.11259">
        <ele>424.08</ele>
        <time>2021-08-16T10:49:50Z</time>
      </trkpt>
      <trkpt lat="44.98582" lon="2.11245">
        <ele>425.04</ele>
        <time>2021-08-16T10:49:55Z</time>
      </trkpt>
      <trkpt lat="44.98579" lon="2.11244">
        <ele>425.04</ele>
        <time>2021-08-16T10:49:56Z</time>
      </trkpt>
      <trkpt lat="44.98561" lon="2.11235">
        <ele>425.04</ele>
        <time>2021-08-16T10:50:01Z</time>
      </trkpt>
      <trkpt lat="44.98541" lon="2.1122">
        <ele>425.04</ele>
        <time>2021-08-16T10:50:08Z</time>
      </trkpt>
      <trkpt lat="44.98519" lon="2.11204">
        <ele>425.04</ele>
        <time>2021-08-16T10:50:15Z</time>
      </trkpt>
      <trkpt lat="44.98515" lon="2.11201">
        <ele>425.04</ele>
        <time>2021-08-16T10:50:17Z</time>
      </trkpt>
      <trkpt lat="44.98513" lon="2.11199">
        <ele>425.04</ele>
        <time>2021-08-16T10:50:18Z</time>
      </trkpt>
      <trkpt lat="44.98509" lon="2.11182">
        <ele>425.04</ele>
        <time>2021-08-16T10:50:23Z</time>
      </trkpt>
      <trkpt lat="44.98509" lon="2.11171">
        <ele>425.04</ele>
        <time>2021-08-16T10:50:26Z</time>
      </trkpt>
      <trkpt lat="44.98508" lon="2.11167">
        <ele>425.04</ele>
        <time>2021-08-16T10:50:27Z</time>
      </trkpt>
      <trkpt lat="44.98496" lon="2.11149">
        <ele>425.04</ele>
        <time>2021-08-16T10:50:34Z</time>
      </trkpt>
      <trkpt lat="44.98479" lon="2.11133">
        <ele>425.04</ele>
        <time>2021-08-16T10:50:40Z</time>
      </trkpt>
      <trkpt lat="44.98472" lon="2.11117">
        <ele>425.04</ele>
        <time>2021-08-16T10:50:45Z</time>
      </trkpt>
      <trkpt lat="44.98469" lon="2.11106">
        <ele>425.04</ele>
        <time>2021-08-16T10:50:48Z</time>
      </trkpt>
      <trkpt lat="44.98453" lon="2.11089">
        <ele>425.04</ele>
        <time>2021-08-16T10:50:55Z</time>
      </trkpt>
      <trkpt lat="44.98438" lon="2.11082">
        <ele>425.04</ele>
        <time>2021-08-16T10:51:00Z</time>
      </trkpt>
      <trkpt lat="44.98431" lon="2.11061">
        <ele>425.04</ele>
        <time>2021-08-16T10:51:06Z</time>
      </trkpt>
      <trkpt lat="44.98428" lon="2.11045">
        <ele>425.04</ele>
        <time>2021-08-16T10:51:10Z</time>
      </trkpt>
      <trkpt lat="44.98428" lon="2.11042">
        <ele>425.04</ele>
        <time>2021-08-16T10:51:11Z</time>
      </trkpt>
      <trkpt lat="44.98429" lon="2.11039">
        <ele>425.04</ele>
        <time>2021-08-16T10:51:12Z</time>
      </trkpt>
      <trkpt lat="44.98427" lon="2.11018">
        <ele>425.04</ele>
        <time>2021-08-16T10:51:18Z</time>
      </trkpt>
      <trkpt lat="44.98421" lon="2.10993">
        <ele>425.04</ele>
        <time>2021-08-16T10:51:24Z</time>
      </trkpt>
      <trkpt lat="44.98418" lon="2.10985">
        <ele>425.04</ele>
        <time>2021-08-16T10:51:27Z</time>
      </trkpt>
      <trkpt lat="44.98417" lon="2.10983">
        <ele>425.04</ele>
        <time>2021-08-16T10:51:28Z</time>
      </trkpt>
      <trkpt lat="44.98406" lon="2.10962">
        <ele>425.04</ele>
        <time>2021-08-16T10:51:34Z</time>
      </trkpt>
      <trkpt lat="44.98393" lon="2.10944">
        <ele>425.04</ele>
        <time>2021-08-16T10:51:40Z</time>
      </trkpt>
      <trkpt lat="44.98379" lon="2.10922">
        <ele>425.04</ele>
        <time>2021-08-16T10:51:46Z</time>
      </trkpt>
      <trkpt lat="44.98364" lon="2.10899">
        <ele>425.04</ele>
        <time>2021-08-16T10:51:52Z</time>
      </trkpt>
      <trkpt lat="44.98353" lon="2.10879">
        <ele>425.04</ele>
        <time>2021-08-16T10:51:58Z</time>
      </trkpt>
      <trkpt lat="44.98335" lon="2.10864">
        <ele>425.04</ele>
        <time>2021-08-16T10:52:03Z</time>
      </trkpt>
      <trkpt lat="44.9832" lon="2.10847">
        <ele>425.04</ele>
        <time>2021-08-16T10:52:08Z</time>
      </trkpt>
      <trkpt lat="44.98312" lon="2.10828">
        <ele>425.04</ele>
        <time>2021-08-16T10:52:13Z</time>
      </trkpt>
      <trkpt lat="44.98299" lon="2.10816">
        <ele>425.04</ele>
        <time>2021-08-16T10:52:19Z</time>
      </trkpt>
      <trkpt lat="44.9828" lon="2.10798">
        <ele>425.04</ele>
        <time>2021-08-16T10:52:26Z</time>
      </trkpt>
      <trkpt lat="44.98266" lon="2.10775">
        <ele>425.04</ele>
        <time>2021-08-16T10:52:32Z</time>
      </trkpt>
      <trkpt lat="44.98259" lon="2.10751">
        <ele>425.52</ele>
        <time>2021-08-16T10:52:39Z</time>
      </trkpt>
      <trkpt lat="44.98262" lon="2.10726">
        <ele>425.52</ele>
        <time>2021-08-16T10:52:45Z</time>
      </trkpt>
      <trkpt lat="44.9826" lon="2.10718">
        <ele>425.52</ele>
        <time>2021-08-16T10:52:47Z</time>
      </trkpt>
      <trkpt lat="44.98258" lon="2.10715">
        <ele>425.52</ele>
        <time>2021-08-16T10:52:48Z</time>
      </trkpt>
      <trkpt lat="44.98255" lon="2.10713">
        <ele>425.52</ele>
        <time>2021-08-16T10:52:49Z</time>
      </trkpt>
      <trkpt lat="44.98253" lon="2.10711">
        <ele>425.52</ele>
        <time>2021-08-16T10:52:50Z</time>
      </trkpt>
      <trkpt lat="44.9825" lon="2.10709">
        <ele>425.52</ele>
        <time>2021-08-16T10:52:51Z</time>
      </trkpt>
      <trkpt lat="44.98247" lon="2.10706">
        <ele>425.52</ele>
        <time>2021-08-16T10:52:52Z</time>
      </trkpt>
      <trkpt lat="44.98245" lon="2.10702">
        <ele>425.52</ele>
        <time>2021-08-16T10:52:53Z</time>
      </trkpt>
      <trkpt lat="44.98243" lon="2.10698">
        <ele>425.52</ele>
        <time>2021-08-16T10:52:54Z</time>
      </trkpt>
      <trkpt lat="44.98241" lon="2.10694">
        <ele>425.52</ele>
        <time>2021-08-16T10:52:55Z</time>
      </trkpt>
      <trkpt lat="44.98239" lon="2.1069">
        <ele>425.52</ele>
        <time>2021-08-16T10:52:56Z</time>
      </trkpt>
      <trkpt lat="44.98231" lon="2.10662">
        <ele>425.52</ele>
        <time>2021-08-16T10:53:03Z</time>
      </trkpt>
      <trkpt lat="44.98223" lon="2.10634">
        <ele>425.52</ele>
        <time>2021-08-16T10:53:09Z</time>
      </trkpt>
      <trkpt lat="44.9822" lon="2.10628">
        <ele>425.52</ele>
        <time>2021-08-16T10:53:10Z</time>
      </trkpt>
      <trkpt lat="44.98219" lon="2.10623">
        <ele>425.52</ele>
        <time>2021-08-16T10:53:11Z</time>
      </trkpt>
      <trkpt lat="44.98217" lon="2.10618">
        <ele>425.52</ele>
        <time>2021-08-16T10:53:12Z</time>
      </trkpt>
      <trkpt lat="44.98216" lon="2.10614">
        <ele>425.52</ele>
        <time>2021-08-16T10:53:13Z</time>
      </trkpt>
      <trkpt lat="44.98215" lon="2.1061">
        <ele>425.52</ele>
        <time>2021-08-16T10:53:14Z</time>
      </trkpt>
      <trkpt lat="44.9821" lon="2.10601">
        <ele>425.52</ele>
        <time>2021-08-16T10:53:16Z</time>
      </trkpt>
      <trkpt lat="44.98208" lon="2.10597">
        <ele>425.52</ele>
        <time>2021-08-16T10:53:17Z</time>
      </trkpt>
      <trkpt lat="44.98206" lon="2.10593">
        <ele>425.52</ele>
        <time>2021-08-16T10:53:18Z</time>
      </trkpt>
      <trkpt lat="44.98197" lon="2.1056">
        <ele>425.52</ele>
        <time>2021-08-16T10:53:24Z</time>
      </trkpt>
      <trkpt lat="44.98187" lon="2.10534">
        <ele>425.52</ele>
        <time>2021-08-16T10:53:29Z</time>
      </trkpt>
      <trkpt lat="44.98183" lon="2.1053">
        <ele>425.52</ele>
        <time>2021-08-16T10:53:30Z</time>
      </trkpt>
      <trkpt lat="44.98171" lon="2.10504">
        <ele>425.52</ele>
        <time>2021-08-16T10:53:35Z</time>
      </trkpt>
      <trkpt lat="44.9816" lon="2.10482">
        <ele>425.52</ele>
        <time>2021-08-16T10:53:40Z</time>
      </trkpt>
      <trkpt lat="44.98156" lon="2.10455">
        <ele>426</ele>
        <time>2021-08-16T10:53:46Z</time>
      </trkpt>
      <trkpt lat="44.98153" lon="2.10449">
        <ele>426</ele>
        <time>2021-08-16T10:53:47Z</time>
      </trkpt>
      <trkpt lat="44.98142" lon="2.10417">
        <ele>426</ele>
        <time>2021-08-16T10:53:53Z</time>
      </trkpt>
      <trkpt lat="44.9814" lon="2.1041">
        <ele>426</ele>
        <time>2021-08-16T10:53:54Z</time>
      </trkpt>
      <trkpt lat="44.98139" lon="2.10405">
        <ele>426</ele>
        <time>2021-08-16T10:53:55Z</time>
      </trkpt>
      <trkpt lat="44.98138" lon="2.10398">
        <ele>426</ele>
        <time>2021-08-16T10:53:56Z</time>
      </trkpt>
      <trkpt lat="44.98136" lon="2.10388">
        <ele>426</ele>
        <time>2021-08-16T10:53:58Z</time>
      </trkpt>
      <trkpt lat="44.98135" lon="2.10381">
        <ele>426</ele>
        <time>2021-08-16T10:53:59Z</time>
      </trkpt>
      <trkpt lat="44.98126" lon="2.10345">
        <ele>426</ele>
        <time>2021-08-16T10:54:05Z</time>
      </trkpt>
      <trkpt lat="44.98129" lon="2.1031">
        <ele>426</ele>
        <time>2021-08-16T10:54:10Z</time>
      </trkpt>
      <trkpt lat="44.98146" lon="2.10275">
        <ele>426</ele>
        <time>2021-08-16T10:54:17Z</time>
      </trkpt>
      <trkpt lat="44.98174" lon="2.10248">
        <ele>426.48</ele>
        <time>2021-08-16T10:54:24Z</time>
      </trkpt>
      <trkpt lat="44.98188" lon="2.10231">
        <ele>426.48</ele>
        <time>2021-08-16T10:54:29Z</time>
      </trkpt>
      <trkpt lat="44.9821" lon="2.10214">
        <ele>426.48</ele>
        <time>2021-08-16T10:54:35Z</time>
      </trkpt>
      <trkpt lat="44.98232" lon="2.10199">
        <ele>426.48</ele>
        <time>2021-08-16T10:54:41Z</time>
      </trkpt>
      <trkpt lat="44.98254" lon="2.10194">
        <ele>426.48</ele>
        <time>2021-08-16T10:54:48Z</time>
      </trkpt>
      <trkpt lat="44.98273" lon="2.10195">
        <ele>426.48</ele>
        <time>2021-08-16T10:54:53Z</time>
      </trkpt>
      <trkpt lat="44.98299" lon="2.10196">
        <ele>425.52</ele>
        <time>2021-08-16T10:54:59Z</time>
      </trkpt>
      <trkpt lat="44.98324" lon="2.10194">
        <ele>425.52</ele>
        <time>2021-08-16T10:55:05Z</time>
      </trkpt>
      <trkpt lat="44.98337" lon="2.10189">
        <ele>425.52</ele>
        <time>2021-08-16T10:55:08Z</time>
      </trkpt>
      <trkpt lat="44.98347" lon="2.10182">
        <ele>425.52</ele>
        <time>2021-08-16T10:55:10Z</time>
      </trkpt>
      <trkpt lat="44.98351" lon="2.10178">
        <ele>425.52</ele>
        <time>2021-08-16T10:55:11Z</time>
      </trkpt>
      <trkpt lat="44.9836" lon="2.10171">
        <ele>425.04</ele>
        <time>2021-08-16T10:55:13Z</time>
      </trkpt>
      <trkpt lat="44.98384" lon="2.10148">
        <ele>425.04</ele>
        <time>2021-08-16T10:55:20Z</time>
      </trkpt>
      <trkpt lat="44.98406" lon="2.10129">
        <ele>425.04</ele>
        <time>2021-08-16T10:55:27Z</time>
      </trkpt>
      <trkpt lat="44.98423" lon="2.10109">
        <ele>425.04</ele>
        <time>2021-08-16T10:55:34Z</time>
      </trkpt>
      <trkpt lat="44.98427" lon="2.10105">
        <ele>425.04</ele>
        <time>2021-08-16T10:55:41Z</time>
      </trkpt>
      <trkpt lat="44.98431" lon="2.10101">
        <ele>425.04</ele>
        <time>2021-08-16T10:55:47Z</time>
      </trkpt>
      <trkpt lat="44.98434" lon="2.10099">
        <ele>425.04</ele>
        <time>2021-08-16T10:55:53Z</time>
      </trkpt>
      <trkpt lat="44.9844" lon="2.10096">
        <ele>425.04</ele>
        <time>2021-08-16T10:55:59Z</time>
      </trkpt>
      <trkpt lat="44.98442" lon="2.10096">
        <ele>425.04</ele>
        <time>2021-08-16T10:56:00Z</time>
      </trkpt>
      <trkpt lat="44.98444" lon="2.10095">
        <ele>425.04</ele>
        <time>2021-08-16T10:56:01Z</time>
      </trkpt>
      <trkpt lat="44.98446" lon="2.10094">
        <ele>425.04</ele>
        <time>2021-08-16T10:56:02Z</time>
      </trkpt>
      <trkpt lat="44.98448" lon="2.10094">
        <ele>425.04</ele>
        <time>2021-08-16T10:56:03Z</time>
      </trkpt>
      <trkpt lat="44.98451" lon="2.10094">
        <ele>425.04</ele>
        <time>2021-08-16T10:56:04Z</time>
      </trkpt>
      <trkpt lat="44.98454" lon="2.10094">
        <ele>425.04</ele>
        <time>2021-08-16T10:56:05Z</time>
      </trkpt>
      <trkpt lat="44.98457" lon="2.10094">
        <ele>425.04</ele>
        <time>2021-08-16T10:56:06Z</time>
      </trkpt>
      <trkpt lat="44.98473" lon="2.10087">
        <ele>425.04</ele>
        <time>2021-08-16T10:56:12Z</time>
      </trkpt>
      <trkpt lat="44.98483" lon="2.10071">
        <ele>425.52</ele>
        <time>2021-08-16T10:56:17Z</time>
      </trkpt>
      <trkpt lat="44.98486" lon="2.1005">
        <ele>425.52</ele>
        <time>2021-08-16T10:56:22Z</time>
      </trkpt>
      <trkpt lat="44.98486" lon="2.10046">
        <ele>425.52</ele>
        <time>2021-08-16T10:56:23Z</time>
      </trkpt>
      <trkpt lat="44.98488" lon="2.10042">
        <ele>425.52</ele>
        <time>2021-08-16T10:56:24Z</time>
      </trkpt>
      <trkpt lat="44.98489" lon="2.10039">
        <ele>425.52</ele>
        <time>2021-08-16T10:56:25Z</time>
      </trkpt>
      <trkpt lat="44.98491" lon="2.10036">
        <ele>425.52</ele>
        <time>2021-08-16T10:56:26Z</time>
      </trkpt>
      <trkpt lat="44.98493" lon="2.10033">
        <ele>425.52</ele>
        <time>2021-08-16T10:56:27Z</time>
      </trkpt>
      <trkpt lat="44.98495" lon="2.10031">
        <ele>425.52</ele>
        <time>2021-08-16T10:56:28Z</time>
      </trkpt>
      <trkpt lat="44.98508" lon="2.10007">
        <ele>425.52</ele>
        <time>2021-08-16T10:56:35Z</time>
      </trkpt>
      <trkpt lat="44.98518" lon="2.09986">
        <ele>425.52</ele>
        <time>2021-08-16T10:56:41Z</time>
      </trkpt>
      <trkpt lat="44.98527" lon="2.09961">
        <ele>425.52</ele>
        <time>2021-08-16T10:56:47Z</time>
      </trkpt>
      <trkpt lat="44.98536" lon="2.09938">
        <ele>425.52</ele>
        <time>2021-08-16T10:56:53Z</time>
      </trkpt>
      <trkpt lat="44.98542" lon="2.09912">
        <ele>425.52</ele>
        <time>2021-08-16T10:56:59Z</time>
      </trkpt>
      <trkpt lat="44.98554" lon="2.09876">
        <ele>425.52</ele>
        <time>2021-08-16T10:57:06Z</time>
      </trkpt>
      <trkpt lat="44.98558" lon="2.0985">
        <ele>425.52</ele>
        <time>2021-08-16T10:57:11Z</time>
      </trkpt>
      <trkpt lat="44.98557" lon="2.09843">
        <ele>425.52</ele>
        <time>2021-08-16T10:57:12Z</time>
      </trkpt>
      <trkpt lat="44.98556" lon="2.09836">
        <ele>425.52</ele>
        <time>2021-08-16T10:57:13Z</time>
      </trkpt>
      <trkpt lat="44.98555" lon="2.09831">
        <ele>425.52</ele>
        <time>2021-08-16T10:57:14Z</time>
      </trkpt>
      <trkpt lat="44.98554" lon="2.09826">
        <ele>425.52</ele>
        <time>2021-08-16T10:57:15Z</time>
      </trkpt>
      <trkpt lat="44.98554" lon="2.09821">
        <ele>425.52</ele>
        <time>2021-08-16T10:57:16Z</time>
      </trkpt>
      <trkpt lat="44.98554" lon="2.09817">
        <ele>425.52</ele>
        <time>2021-08-16T10:57:17Z</time>
      </trkpt>
      <trkpt lat="44.98553" lon="2.09813">
        <ele>425.52</ele>
        <time>2021-08-16T10:57:18Z</time>
      </trkpt>
      <trkpt lat="44.98553" lon="2.09809">
        <ele>425.52</ele>
        <time>2021-08-16T10:57:19Z</time>
      </trkpt>
      <trkpt lat="44.98551" lon="2.09806">
        <ele>425.52</ele>
        <time>2021-08-16T10:57:20Z</time>
      </trkpt>
      <trkpt lat="44.9855" lon="2.09803">
        <ele>425.52</ele>
        <time>2021-08-16T10:57:21Z</time>
      </trkpt>
      <trkpt lat="44.98548" lon="2.09799">
        <ele>425.52</ele>
        <time>2021-08-16T10:57:22Z</time>
      </trkpt>
      <trkpt lat="44.98548" lon="2.09794">
        <ele>425.52</ele>
        <time>2021-08-16T10:57:23Z</time>
      </trkpt>
      <trkpt lat="44.98548" lon="2.09789">
        <ele>425.52</ele>
        <time>2021-08-16T10:57:24Z</time>
      </trkpt>
      <trkpt lat="44.98549" lon="2.09785">
        <ele>425.52</ele>
        <time>2021-08-16T10:57:25Z</time>
      </trkpt>
      <trkpt lat="44.98551" lon="2.0978">
        <ele>425.52</ele>
        <time>2021-08-16T10:57:26Z</time>
      </trkpt>
      <trkpt lat="44.98553" lon="2.09776">
        <ele>425.52</ele>
        <time>2021-08-16T10:57:27Z</time>
      </trkpt>
      <trkpt lat="44.98565" lon="2.09755">
        <ele>425.52</ele>
        <time>2021-08-16T10:57:33Z</time>
      </trkpt>
      <trkpt lat="44.98567" lon="2.09733">
        <ele>425.52</ele>
        <time>2021-08-16T10:57:38Z</time>
      </trkpt>
      <trkpt lat="44.98565" lon="2.09702">
        <ele>425.52</ele>
        <time>2021-08-16T10:57:45Z</time>
      </trkpt>
      <trkpt lat="44.98565" lon="2.0968">
        <ele>425.52</ele>
        <time>2021-08-16T10:57:50Z</time>
      </trkpt>
      <trkpt lat="44.98564" lon="2.09658">
        <ele>425.52</ele>
        <time>2021-08-16T10:57:56Z</time>
      </trkpt>
      <trkpt lat="44.98563" lon="2.09634">
        <ele>425.52</ele>
        <time>2021-08-16T10:58:01Z</time>
      </trkpt>
      <trkpt lat="44.98554" lon="2.09604">
        <ele>425.52</ele>
        <time>2021-08-16T10:58:08Z</time>
      </trkpt>
      <trkpt lat="44.98554" lon="2.09579">
        <ele>425.52</ele>
        <time>2021-08-16T10:58:13Z</time>
      </trkpt>
      <trkpt lat="44.98554" lon="2.09552">
        <ele>425.52</ele>
        <time>2021-08-16T10:58:19Z</time>
      </trkpt>
      <trkpt lat="44.98556" lon="2.09548">
        <ele>425.52</ele>
        <time>2021-08-16T10:58:20Z</time>
      </trkpt>
      <trkpt lat="44.98559" lon="2.09544">
        <ele>425.52</ele>
        <time>2021-08-16T10:58:21Z</time>
      </trkpt>
      <trkpt lat="44.98561" lon="2.09541">
        <ele>425.52</ele>
        <time>2021-08-16T10:58:22Z</time>
      </trkpt>
      <trkpt lat="44.98564" lon="2.09539">
        <ele>425.52</ele>
        <time>2021-08-16T10:58:23Z</time>
      </trkpt>
      <trkpt lat="44.98567" lon="2.09538">
        <ele>425.52</ele>
        <time>2021-08-16T10:58:24Z</time>
      </trkpt>
      <trkpt lat="44.98569" lon="2.09537">
        <ele>425.52</ele>
        <time>2021-08-16T10:58:25Z</time>
      </trkpt>
      <trkpt lat="44.98592" lon="2.09532">
        <ele>425.52</ele>
        <time>2021-08-16T10:58:32Z</time>
      </trkpt>
      <trkpt lat="44.98607" lon="2.09536">
        <ele>425.52</ele>
        <time>2021-08-16T10:58:37Z</time>
      </trkpt>
      <trkpt lat="44.98626" lon="2.09549">
        <ele>425.52</ele>
        <time>2021-08-16T10:58:43Z</time>
      </trkpt>
      <trkpt lat="44.98646" lon="2.09545">
        <ele>426</ele>
        <time>2021-08-16T10:58:49Z</time>
      </trkpt>
      <trkpt lat="44.98651" lon="2.09529">
        <ele>426</ele>
        <time>2021-08-16T10:58:55Z</time>
      </trkpt>
      <trkpt lat="44.98651" lon="2.09526">
        <ele>426</ele>
        <time>2021-08-16T10:58:56Z</time>
      </trkpt>
      <trkpt lat="44.9865" lon="2.09522">
        <ele>426</ele>
        <time>2021-08-16T10:58:57Z</time>
      </trkpt>
      <trkpt lat="44.98649" lon="2.09519">
        <ele>426</ele>
        <time>2021-08-16T10:58:58Z</time>
      </trkpt>
      <trkpt lat="44.98647" lon="2.09509">
        <ele>426</ele>
        <time>2021-08-16T10:59:01Z</time>
      </trkpt>
      <trkpt lat="44.98649" lon="2.09505">
        <ele>426</ele>
        <time>2021-08-16T10:59:02Z</time>
      </trkpt>
      <trkpt lat="44.98662" lon="2.0947">
        <ele>426</ele>
        <time>2021-08-16T10:59:09Z</time>
      </trkpt>
      <trkpt lat="44.98677" lon="2.09434">
        <ele>426</ele>
        <time>2021-08-16T10:59:16Z</time>
      </trkpt>
      <trkpt lat="44.98687" lon="2.09406">
        <ele>426</ele>
        <time>2021-08-16T10:59:22Z</time>
      </trkpt>
      <trkpt lat="44.98691" lon="2.09374">
        <ele>426</ele>
        <time>2021-08-16T10:59:28Z</time>
      </trkpt>
      <trkpt lat="44.98691" lon="2.09352">
        <ele>426</ele>
        <time>2021-08-16T10:59:33Z</time>
      </trkpt>
      <trkpt lat="44.98686" lon="2.09315">
        <ele>426</ele>
        <time>2021-08-16T10:59:40Z</time>
      </trkpt>
      <trkpt lat="44.98684" lon="2.093">
        <ele>426</ele>
        <time>2021-08-16T10:59:43Z</time>
      </trkpt>
      <trkpt lat="44.98686" lon="2.09296">
        <ele>426</ele>
        <time>2021-08-16T10:59:44Z</time>
      </trkpt>
      <trkpt lat="44.98687" lon="2.09293">
        <ele>426</ele>
        <time>2021-08-16T10:59:45Z</time>
      </trkpt>
      <trkpt lat="44.98689" lon="2.09291">
        <ele>426</ele>
        <time>2021-08-16T10:59:46Z</time>
      </trkpt>
      <trkpt lat="44.9869" lon="2.09289">
        <ele>426</ele>
        <time>2021-08-16T10:59:47Z</time>
      </trkpt>
      <trkpt lat="44.9869" lon="2.09287">
        <ele>426</ele>
        <time>2021-08-16T10:59:48Z</time>
      </trkpt>
      <trkpt lat="44.9869" lon="2.09279">
        <ele>426</ele>
        <time>2021-08-16T10:59:54Z</time>
      </trkpt>
      <trkpt lat="44.98689" lon="2.09274">
        <ele>426</ele>
        <time>2021-08-16T11:00:02Z</time>
      </trkpt>
      <trkpt lat="44.98686" lon="2.09268">
        <ele>426</ele>
        <time>2021-08-16T11:00:08Z</time>
      </trkpt>
      <trkpt lat="44.98684" lon="2.0926">
        <ele>426</ele>
        <time>2021-08-16T11:00:14Z</time>
      </trkpt>
      <trkpt lat="44.98681" lon="2.09256">
        <ele>426.96</ele>
        <time>2021-08-16T11:00:19Z</time>
      </trkpt>
      <trkpt lat="44.98678" lon="2.09252">
        <ele>426.96</ele>
        <time>2021-08-16T11:00:26Z</time>
      </trkpt>
      <trkpt lat="44.98678" lon="2.09251">
        <ele>426.96</ele>
        <time>2021-08-16T11:00:28Z</time>
      </trkpt>
      <trkpt lat="44.98676" lon="2.0925">
        <ele>427.44</ele>
        <time>2021-08-16T11:00:29Z</time>
      </trkpt>
      <trkpt lat="44.98676" lon="2.09248">
        <ele>427.44</ele>
        <time>2021-08-16T11:00:30Z</time>
      </trkpt>
      <trkpt lat="44.98673" lon="2.09244">
        <ele>427.44</ele>
        <time>2021-08-16T11:00:37Z</time>
      </trkpt>
      <trkpt lat="44.98669" lon="2.09238">
        <ele>427.44</ele>
        <time>2021-08-16T11:00:44Z</time>
      </trkpt>
      <trkpt lat="44.98667" lon="2.09237">
        <ele>427.44</ele>
        <time>2021-08-16T11:00:45Z</time>
      </trkpt>
      <trkpt lat="44.98648" lon="2.09231">
        <ele>427.44</ele>
        <time>2021-08-16T11:00:52Z</time>
      </trkpt>
      <trkpt lat="44.98641" lon="2.09219">
        <ele>427.44</ele>
        <time>2021-08-16T11:00:59Z</time>
      </trkpt>
      <trkpt lat="44.98638" lon="2.09196">
        <ele>427.44</ele>
        <time>2021-08-16T11:01:05Z</time>
      </trkpt>
      <trkpt lat="44.98629" lon="2.0918">
        <ele>427.44</ele>
        <time>2021-08-16T11:01:11Z</time>
      </trkpt>
      <trkpt lat="44.98609" lon="2.09166">
        <ele>427.44</ele>
        <time>2021-08-16T11:01:18Z</time>
      </trkpt>
      <trkpt lat="44.98589" lon="2.09147">
        <ele>427.44</ele>
        <time>2021-08-16T11:01:24Z</time>
      </trkpt>
      <trkpt lat="44.98587" lon="2.09142">
        <ele>427.44</ele>
        <time>2021-08-16T11:01:25Z</time>
      </trkpt>
      <trkpt lat="44.98587" lon="2.09139">
        <ele>427.44</ele>
        <time>2021-08-16T11:01:26Z</time>
      </trkpt>
      <trkpt lat="44.98586" lon="2.09135">
        <ele>427.44</ele>
        <time>2021-08-16T11:01:27Z</time>
      </trkpt>
      <trkpt lat="44.98586" lon="2.09131">
        <ele>427.44</ele>
        <time>2021-08-16T11:01:28Z</time>
      </trkpt>
      <trkpt lat="44.98586" lon="2.09126">
        <ele>427.44</ele>
        <time>2021-08-16T11:01:29Z</time>
      </trkpt>
      <trkpt lat="44.98588" lon="2.09098">
        <ele>427.44</ele>
        <time>2021-08-16T11:01:35Z</time>
      </trkpt>
      <trkpt lat="44.98588" lon="2.09095">
        <ele>427.44</ele>
        <time>2021-08-16T11:01:36Z</time>
      </trkpt>
      <trkpt lat="44.98587" lon="2.09093">
        <ele>427.44</ele>
        <time>2021-08-16T11:01:37Z</time>
      </trkpt>
      <trkpt lat="44.98586" lon="2.09089">
        <ele>426.48</ele>
        <time>2021-08-16T11:01:43Z</time>
      </trkpt>
      <trkpt lat="44.98583" lon="2.09079">
        <ele>426.48</ele>
        <time>2021-08-16T11:01:50Z</time>
      </trkpt>
      <trkpt lat="44.98581" lon="2.09074">
        <ele>426.48</ele>
        <time>2021-08-16T11:01:55Z</time>
      </trkpt>
      <trkpt lat="44.98579" lon="2.09072">
        <ele>426.48</ele>
        <time>2021-08-16T11:01:56Z</time>
      </trkpt>
      <trkpt lat="44.98569" lon="2.09062">
        <ele>426.48</ele>
        <time>2021-08-16T11:02:01Z</time>
      </trkpt>
      <trkpt lat="44.98568" lon="2.09059">
        <ele>426.48</ele>
        <time>2021-08-16T11:02:02Z</time>
      </trkpt>
      <trkpt lat="44.98568" lon="2.09056">
        <ele>426.48</ele>
        <time>2021-08-16T11:02:03Z</time>
      </trkpt>
      <trkpt lat="44.98568" lon="2.09053">
        <ele>426.48</ele>
        <time>2021-08-16T11:02:04Z</time>
      </trkpt>
      <trkpt lat="44.98569" lon="2.09049">
        <ele>426.48</ele>
        <time>2021-08-16T11:02:05Z</time>
      </trkpt>
      <trkpt lat="44.98568" lon="2.09027">
        <ele>426.48</ele>
        <time>2021-08-16T11:02:11Z</time>
      </trkpt>
      <trkpt lat="44.98568" lon="2.08998">
        <ele>426.48</ele>
        <time>2021-08-16T11:02:18Z</time>
      </trkpt>
      <trkpt lat="44.98568" lon="2.08973">
        <ele>426.48</ele>
        <time>2021-08-16T11:02:24Z</time>
      </trkpt>
      <trkpt lat="44.98575" lon="2.0895">
        <ele>426.48</ele>
        <time>2021-08-16T11:02:30Z</time>
      </trkpt>
      <trkpt lat="44.98578" lon="2.0893">
        <ele>426.48</ele>
        <time>2021-08-16T11:02:35Z</time>
      </trkpt>
      <trkpt lat="44.98575" lon="2.08909">
        <ele>426.48</ele>
        <time>2021-08-16T11:02:41Z</time>
      </trkpt>
      <trkpt lat="44.98573" lon="2.089">
        <ele>426.48</ele>
        <time>2021-08-16T11:02:49Z</time>
      </trkpt>
      <trkpt lat="44.98576" lon="2.0889">
        <ele>426.48</ele>
        <time>2021-08-16T11:03:05Z</time>
      </trkpt>
      <trkpt lat="44.98574" lon="2.08885">
        <ele>426.48</ele>
        <time>2021-08-16T11:03:20Z</time>
      </trkpt>
      <trkpt lat="44.98575" lon="2.08883">
        <ele>426.48</ele>
        <time>2021-08-16T11:03:37Z</time>
      </trkpt>
      <trkpt lat="44.98577" lon="2.08884">
        <ele>426.48</ele>
        <time>2021-08-16T11:03:55Z</time>
      </trkpt>
      <trkpt lat="44.98577" lon="2.08886">
        <ele>426.48</ele>
        <time>2021-08-16T11:04:03Z</time>
      </trkpt>
      <trkpt lat="44.98572" lon="2.08891">
        <ele>426.48</ele>
        <time>2021-08-16T11:04:15Z</time>
      </trkpt>
      <trkpt lat="44.98571" lon="2.0889">
        <ele>426.48</ele>
        <time>2021-08-16T11:04:16Z</time>
      </trkpt>
      <trkpt lat="44.98569" lon="2.0889">
        <ele>426.48</ele>
        <time>2021-08-16T11:04:17Z</time>
      </trkpt>
      <trkpt lat="44.98567" lon="2.08889">
        <ele>426.48</ele>
        <time>2021-08-16T11:04:18Z</time>
      </trkpt>
      <trkpt lat="44.98565" lon="2.08889">
        <ele>426.48</ele>
        <time>2021-08-16T11:04:19Z</time>
      </trkpt>
      <trkpt lat="44.98562" lon="2.08888">
        <ele>426.48</ele>
        <time>2021-08-16T11:04:20Z</time>
      </trkpt>
      <trkpt lat="44.9856" lon="2.08887">
        <ele>426.48</ele>
        <time>2021-08-16T11:04:21Z</time>
      </trkpt>
      <trkpt lat="44.98558" lon="2.08884">
        <ele>426.48</ele>
        <time>2021-08-16T11:04:22Z</time>
      </trkpt>
      <trkpt lat="44.98556" lon="2.08881">
        <ele>426.48</ele>
        <time>2021-08-16T11:04:23Z</time>
      </trkpt>
      <trkpt lat="44.98554" lon="2.08878">
        <ele>426.48</ele>
        <time>2021-08-16T11:04:24Z</time>
      </trkpt>
      <trkpt lat="44.98553" lon="2.08874">
        <ele>426.48</ele>
        <time>2021-08-16T11:04:25Z</time>
      </trkpt>
      <trkpt lat="44.98554" lon="2.08858">
        <ele>426.48</ele>
        <time>2021-08-16T11:04:30Z</time>
      </trkpt>
      <trkpt lat="44.98557" lon="2.08832">
        <ele>426.48</ele>
        <time>2021-08-16T11:04:36Z</time>
      </trkpt>
      <trkpt lat="44.9856" lon="2.088">
        <ele>426.48</ele>
        <time>2021-08-16T11:04:44Z</time>
      </trkpt>
      <trkpt lat="44.98559" lon="2.08777">
        <ele>426.48</ele>
        <time>2021-08-16T11:04:49Z</time>
      </trkpt>
      <trkpt lat="44.98556" lon="2.08753">
        <ele>426.48</ele>
        <time>2021-08-16T11:04:55Z</time>
      </trkpt>
      <trkpt lat="44.98553" lon="2.08719">
        <ele>426.48</ele>
        <time>2021-08-16T11:05:02Z</time>
      </trkpt>
      <trkpt lat="44.98546" lon="2.08699">
        <ele>426.48</ele>
        <time>2021-08-16T11:05:06Z</time>
      </trkpt>
      <trkpt lat="44.98544" lon="2.08694">
        <ele>426.48</ele>
        <time>2021-08-16T11:05:07Z</time>
      </trkpt>
      <trkpt lat="44.98542" lon="2.08688">
        <ele>426.48</ele>
        <time>2021-08-16T11:05:08Z</time>
      </trkpt>
      <trkpt lat="44.98529" lon="2.08661">
        <ele>426.48</ele>
        <time>2021-08-16T11:05:14Z</time>
      </trkpt>
      <trkpt lat="44.98532" lon="2.08638">
        <ele>426.48</ele>
        <time>2021-08-16T11:05:19Z</time>
      </trkpt>
      <trkpt lat="44.9853" lon="2.08613">
        <ele>426.48</ele>
        <time>2021-08-16T11:05:25Z</time>
      </trkpt>
      <trkpt lat="44.98525" lon="2.08589">
        <ele>426.48</ele>
        <time>2021-08-16T11:05:31Z</time>
      </trkpt>
      <trkpt lat="44.98528" lon="2.08566">
        <ele>426.48</ele>
        <time>2021-08-16T11:05:36Z</time>
      </trkpt>
      <trkpt lat="44.98524" lon="2.08549">
        <ele>426.48</ele>
        <time>2021-08-16T11:05:40Z</time>
      </trkpt>
      <trkpt lat="44.98511" lon="2.0852">
        <ele>426.48</ele>
        <time>2021-08-16T11:05:47Z</time>
      </trkpt>
      <trkpt lat="44.98506" lon="2.08501">
        <ele>426.96</ele>
        <time>2021-08-16T11:05:52Z</time>
      </trkpt>
      <trkpt lat="44.98498" lon="2.08482">
        <ele>426.96</ele>
        <time>2021-08-16T11:05:58Z</time>
      </trkpt>
      <trkpt lat="44.98488" lon="2.08455">
        <ele>426.96</ele>
        <time>2021-08-16T11:06:05Z</time>
      </trkpt>
      <trkpt lat="44.98478" lon="2.08432">
        <ele>426.96</ele>
        <time>2021-08-16T11:06:11Z</time>
      </trkpt>
      <trkpt lat="44.98466" lon="2.08416">
        <ele>426.96</ele>
        <time>2021-08-16T11:06:16Z</time>
      </trkpt>
      <trkpt lat="44.9846" lon="2.084">
        <ele>426.96</ele>
        <time>2021-08-16T11:06:23Z</time>
      </trkpt>
      <trkpt lat="44.98459" lon="2.08398">
        <ele>426.96</ele>
        <time>2021-08-16T11:06:25Z</time>
      </trkpt>
      <trkpt lat="44.98457" lon="2.08397">
        <ele>426.96</ele>
        <time>2021-08-16T11:06:26Z</time>
      </trkpt>
      <trkpt lat="44.98441" lon="2.08382">
        <ele>426.96</ele>
        <time>2021-08-16T11:06:34Z</time>
      </trkpt>
      <trkpt lat="44.98422" lon="2.08371">
        <ele>426.96</ele>
        <time>2021-08-16T11:06:40Z</time>
      </trkpt>
      <trkpt lat="44.98399" lon="2.08366">
        <ele>426.96</ele>
        <time>2021-08-16T11:06:47Z</time>
      </trkpt>
      <trkpt lat="44.98381" lon="2.08365">
        <ele>428.4</ele>
        <time>2021-08-16T11:06:53Z</time>
      </trkpt>
      <trkpt lat="44.98362" lon="2.0836">
        <ele>428.4</ele>
        <time>2021-08-16T11:07:00Z</time>
      </trkpt>
      <trkpt lat="44.98346" lon="2.08359">
        <ele>428.4</ele>
        <time>2021-08-16T11:07:05Z</time>
      </trkpt>
      <trkpt lat="44.98329" lon="2.0837">
        <ele>428.4</ele>
        <time>2021-08-16T11:07:11Z</time>
      </trkpt>
      <trkpt lat="44.98317" lon="2.08375">
        <ele>428.4</ele>
        <time>2021-08-16T11:07:15Z</time>
      </trkpt>
      <trkpt lat="44.98301" lon="2.08372">
        <ele>428.4</ele>
        <time>2021-08-16T11:07:21Z</time>
      </trkpt>
      <trkpt lat="44.98279" lon="2.08378">
        <ele>428.4</ele>
        <time>2021-08-16T11:07:28Z</time>
      </trkpt>
      <trkpt lat="44.98262" lon="2.08369">
        <ele>428.4</ele>
        <time>2021-08-16T11:07:34Z</time>
      </trkpt>
      <trkpt lat="44.98252" lon="2.08357">
        <ele>428.89</ele>
        <time>2021-08-16T11:07:40Z</time>
      </trkpt>
      <trkpt lat="44.9824" lon="2.08342">
        <ele>428.89</ele>
        <time>2021-08-16T11:07:46Z</time>
      </trkpt>
      <trkpt lat="44.98223" lon="2.08327">
        <ele>428.89</ele>
        <time>2021-08-16T11:07:53Z</time>
      </trkpt>
      <trkpt lat="44.98221" lon="2.08303">
        <ele>428.89</ele>
        <time>2021-08-16T11:08:00Z</time>
      </trkpt>
      <trkpt lat="44.98211" lon="2.08288">
        <ele>428.89</ele>
        <time>2021-08-16T11:08:06Z</time>
      </trkpt>
      <trkpt lat="44.982" lon="2.08271">
        <ele>428.89</ele>
        <time>2021-08-16T11:08:12Z</time>
      </trkpt>
      <trkpt lat="44.9819" lon="2.08248">
        <ele>428.89</ele>
        <time>2021-08-16T11:08:18Z</time>
      </trkpt>
      <trkpt lat="44.98187" lon="2.08243">
        <ele>428.89</ele>
        <time>2021-08-16T11:08:20Z</time>
      </trkpt>
      <trkpt lat="44.98178" lon="2.08235">
        <ele>427.44</ele>
        <time>2021-08-16T11:08:23Z</time>
      </trkpt>
      <trkpt lat="44.98171" lon="2.0823">
        <ele>427.44</ele>
        <time>2021-08-16T11:08:30Z</time>
      </trkpt>
      <trkpt lat="44.98165" lon="2.08229">
        <ele>427.44</ele>
        <time>2021-08-16T11:08:43Z</time>
      </trkpt>
      <trkpt lat="44.98162" lon="2.08222">
        <ele>427.44</ele>
        <time>2021-08-16T11:08:51Z</time>
      </trkpt>
      <trkpt lat="44.98161" lon="2.08221">
        <ele>427.44</ele>
        <time>2021-08-16T11:08:55Z</time>
      </trkpt>
      <trkpt lat="44.98156" lon="2.08219">
        <ele>427.44</ele>
        <time>2021-08-16T11:09:02Z</time>
      </trkpt>
      <trkpt lat="44.98156" lon="2.08212">
        <ele>427.44</ele>
        <time>2021-08-16T11:09:09Z</time>
      </trkpt>
      <trkpt lat="44.98153" lon="2.08193">
        <ele>427.92</ele>
        <time>2021-08-16T11:09:16Z</time>
      </trkpt>
      <trkpt lat="44.98151" lon="2.08187">
        <ele>427.92</ele>
        <time>2021-08-16T11:09:18Z</time>
      </trkpt>
      <trkpt lat="44.98139" lon="2.08175">
        <ele>427.92</ele>
        <time>2021-08-16T11:09:25Z</time>
      </trkpt>
      <trkpt lat="44.98138" lon="2.08152">
        <ele>427.92</ele>
        <time>2021-08-16T11:09:31Z</time>
      </trkpt>
      <trkpt lat="44.9814" lon="2.0814">
        <ele>427.92</ele>
        <time>2021-08-16T11:09:34Z</time>
      </trkpt>
      <trkpt lat="44.98138" lon="2.0811">
        <ele>427.92</ele>
        <time>2021-08-16T11:09:41Z</time>
      </trkpt>
      <trkpt lat="44.98136" lon="2.08081">
        <ele>427.92</ele>
        <time>2021-08-16T11:09:47Z</time>
      </trkpt>
      <trkpt lat="44.98129" lon="2.08055">
        <ele>427.92</ele>
        <time>2021-08-16T11:09:53Z</time>
      </trkpt>
      <trkpt lat="44.98127" lon="2.08029">
        <ele>427.92</ele>
        <time>2021-08-16T11:09:59Z</time>
      </trkpt>
      <trkpt lat="44.98134" lon="2.07993">
        <ele>427.92</ele>
        <time>2021-08-16T11:10:06Z</time>
      </trkpt>
      <trkpt lat="44.98134" lon="2.07977">
        <ele>427.92</ele>
        <time>2021-08-16T11:10:09Z</time>
      </trkpt>
      <trkpt lat="44.98137" lon="2.07966">
        <ele>428.89</ele>
        <time>2021-08-16T11:10:14Z</time>
      </trkpt>
      <trkpt lat="44.98136" lon="2.07962">
        <ele>428.89</ele>
        <time>2021-08-16T11:10:23Z</time>
      </trkpt>
      <trkpt lat="44.98136" lon="2.0796">
        <ele>428.89</ele>
        <time>2021-08-16T11:10:26Z</time>
      </trkpt>
      <trkpt lat="44.98132" lon="2.07953">
        <ele>428.89</ele>
        <time>2021-08-16T11:10:33Z</time>
      </trkpt>
      <trkpt lat="44.98131" lon="2.07948">
        <ele>428.89</ele>
        <time>2021-08-16T11:10:39Z</time>
      </trkpt>
      <trkpt lat="44.9813" lon="2.07945">
        <ele>428.89</ele>
        <time>2021-08-16T11:10:44Z</time>
      </trkpt>
      <trkpt lat="44.98128" lon="2.07938">
        <ele>428.89</ele>
        <time>2021-08-16T11:10:48Z</time>
      </trkpt>
      <trkpt lat="44.98115" lon="2.0791">
        <ele>428.89</ele>
        <time>2021-08-16T11:10:56Z</time>
      </trkpt>
      <trkpt lat="44.98103" lon="2.07892">
        <ele>428.89</ele>
        <time>2021-08-16T11:11:02Z</time>
      </trkpt>
      <trkpt lat="44.98092" lon="2.07868">
        <ele>428.89</ele>
        <time>2021-08-16T11:11:09Z</time>
      </trkpt>
      <trkpt lat="44.98084" lon="2.07854">
        <ele>428.4</ele>
        <time>2021-08-16T11:11:14Z</time>
      </trkpt>
      <trkpt lat="44.98083" lon="2.07852">
        <ele>428.4</ele>
        <time>2021-08-16T11:11:15Z</time>
      </trkpt>
      <trkpt lat="44.98074" lon="2.07831">
        <ele>428.4</ele>
        <time>2021-08-16T11:11:22Z</time>
      </trkpt>
      <trkpt lat="44.98063" lon="2.0781">
        <ele>427.44</ele>
        <time>2021-08-16T11:11:29Z</time>
      </trkpt>
      <trkpt lat="44.98057" lon="2.07787">
        <ele>427.44</ele>
        <time>2021-08-16T11:11:36Z</time>
      </trkpt>
      <trkpt lat="44.98054" lon="2.07762">
        <ele>427.44</ele>
        <time>2021-08-16T11:11:43Z</time>
      </trkpt>
      <trkpt lat="44.98049" lon="2.0774">
        <ele>427.44</ele>
        <time>2021-08-16T11:11:48Z</time>
      </trkpt>
      <trkpt lat="44.98047" lon="2.07716">
        <ele>427.44</ele>
        <time>2021-08-16T11:11:54Z</time>
      </trkpt>
      <trkpt lat="44.98046" lon="2.07711">
        <ele>427.44</ele>
        <time>2021-08-16T11:11:56Z</time>
      </trkpt>
      <trkpt lat="44.98046" lon="2.07709">
        <ele>427.44</ele>
        <time>2021-08-16T11:11:57Z</time>
      </trkpt>
      <trkpt lat="44.98045" lon="2.07707">
        <ele>427.44</ele>
        <time>2021-08-16T11:11:58Z</time>
      </trkpt>
      <trkpt lat="44.98037" lon="2.07687">
        <ele>427.44</ele>
        <time>2021-08-16T11:12:04Z</time>
      </trkpt>
      <trkpt lat="44.98015" lon="2.07659">
        <ele>426.96</ele>
        <time>2021-08-16T11:12:12Z</time>
      </trkpt>
      <trkpt lat="44.97996" lon="2.07641">
        <ele>426.96</ele>
        <time>2021-08-16T11:12:19Z</time>
      </trkpt>
      <trkpt lat="44.97984" lon="2.07634">
        <ele>426.96</ele>
        <time>2021-08-16T11:12:23Z</time>
      </trkpt>
      <trkpt lat="44.97983" lon="2.07633">
        <ele>426.96</ele>
        <time>2021-08-16T11:12:24Z</time>
      </trkpt>
      <trkpt lat="44.97981" lon="2.0763">
        <ele>426.96</ele>
        <time>2021-08-16T11:12:25Z</time>
      </trkpt>
      <trkpt lat="44.97981" lon="2.07627">
        <ele>426.96</ele>
        <time>2021-08-16T11:12:26Z</time>
      </trkpt>
      <trkpt lat="44.9798" lon="2.07624">
        <ele>426.96</ele>
        <time>2021-08-16T11:12:27Z</time>
      </trkpt>
      <trkpt lat="44.9798" lon="2.07621">
        <ele>426.96</ele>
        <time>2021-08-16T11:12:28Z</time>
      </trkpt>
      <trkpt lat="44.97978" lon="2.07592">
        <ele>427.44</ele>
        <time>2021-08-16T11:12:34Z</time>
      </trkpt>
      <trkpt lat="44.97963" lon="2.07565">
        <ele>427.44</ele>
        <time>2021-08-16T11:12:40Z</time>
      </trkpt>
      <trkpt lat="44.97944" lon="2.07544">
        <ele>427.44</ele>
        <time>2021-08-16T11:12:46Z</time>
      </trkpt>
      <trkpt lat="44.97928" lon="2.07531">
        <ele>427.44</ele>
        <time>2021-08-16T11:12:52Z</time>
      </trkpt>
      <trkpt lat="44.97916" lon="2.07521">
        <ele>427.44</ele>
        <time>2021-08-16T11:12:58Z</time>
      </trkpt>
      <trkpt lat="44.97903" lon="2.07502">
        <ele>427.44</ele>
        <time>2021-08-16T11:13:04Z</time>
      </trkpt>
      <trkpt lat="44.97897" lon="2.07492">
        <ele>427.44</ele>
        <time>2021-08-16T11:13:07Z</time>
      </trkpt>
      <trkpt lat="44.97896" lon="2.07487">
        <ele>427.44</ele>
        <time>2021-08-16T11:13:08Z</time>
      </trkpt>
      <trkpt lat="44.97896" lon="2.07484">
        <ele>427.44</ele>
        <time>2021-08-16T11:13:09Z</time>
      </trkpt>
      <trkpt lat="44.97894" lon="2.07452">
        <ele>427.44</ele>
        <time>2021-08-16T11:13:15Z</time>
      </trkpt>
      <trkpt lat="44.97896" lon="2.07411">
        <ele>427.44</ele>
        <time>2021-08-16T11:13:22Z</time>
      </trkpt>
      <trkpt lat="44.97896" lon="2.074">
        <ele>427.44</ele>
        <time>2021-08-16T11:13:24Z</time>
      </trkpt>
      <trkpt lat="44.97901" lon="2.07358">
        <ele>427.44</ele>
        <time>2021-08-16T11:13:31Z</time>
      </trkpt>
      <trkpt lat="44.97916" lon="2.07326">
        <ele>427.44</ele>
        <time>2021-08-16T11:13:38Z</time>
      </trkpt>
      <trkpt lat="44.97932" lon="2.07298">
        <ele>427.44</ele>
        <time>2021-08-16T11:13:44Z</time>
      </trkpt>
      <trkpt lat="44.97952" lon="2.07274">
        <ele>427.44</ele>
        <time>2021-08-16T11:13:51Z</time>
      </trkpt>
      <trkpt lat="44.9797" lon="2.07263">
        <ele>427.44</ele>
        <time>2021-08-16T11:13:57Z</time>
      </trkpt>
      <trkpt lat="44.97972" lon="2.07256">
        <ele>427.44</ele>
        <time>2021-08-16T11:14:01Z</time>
      </trkpt>
      <trkpt lat="44.97972" lon="2.07253">
        <ele>427.44</ele>
        <time>2021-08-16T11:14:02Z</time>
      </trkpt>
      <trkpt lat="44.97972" lon="2.07251">
        <ele>427.44</ele>
        <time>2021-08-16T11:14:03Z</time>
      </trkpt>
      <trkpt lat="44.97972" lon="2.07249">
        <ele>427.44</ele>
        <time>2021-08-16T11:14:04Z</time>
      </trkpt>
      <trkpt lat="44.9797" lon="2.07247">
        <ele>427.44</ele>
        <time>2021-08-16T11:14:05Z</time>
      </trkpt>
      <trkpt lat="44.97969" lon="2.07246">
        <ele>427.44</ele>
        <time>2021-08-16T11:14:06Z</time>
      </trkpt>
      <trkpt lat="44.97958" lon="2.07232">
        <ele>427.44</ele>
        <time>2021-08-16T11:14:12Z</time>
      </trkpt>
      <trkpt lat="44.97941" lon="2.07213">
        <ele>427.44</ele>
        <time>2021-08-16T11:14:19Z</time>
      </trkpt>
      <trkpt lat="44.9794" lon="2.0721">
        <ele>427.44</ele>
        <time>2021-08-16T11:14:20Z</time>
      </trkpt>
      <trkpt lat="44.9794" lon="2.07206">
        <ele>427.44</ele>
        <time>2021-08-16T11:14:21Z</time>
      </trkpt>
      <trkpt lat="44.9794" lon="2.07203">
        <ele>427.44</ele>
        <time>2021-08-16T11:14:22Z</time>
      </trkpt>
      <trkpt lat="44.9794" lon="2.07198">
        <ele>427.44</ele>
        <time>2021-08-16T11:14:23Z</time>
      </trkpt>
      <trkpt lat="44.97941" lon="2.07194">
        <ele>427.44</ele>
        <time>2021-08-16T11:14:24Z</time>
      </trkpt>
      <trkpt lat="44.97942" lon="2.07189">
        <ele>427.44</ele>
        <time>2021-08-16T11:14:25Z</time>
      </trkpt>
      <trkpt lat="44.97946" lon="2.07151">
        <ele>427.44</ele>
        <time>2021-08-16T11:14:32Z</time>
      </trkpt>
      <trkpt lat="44.97947" lon="2.07113">
        <ele>427.44</ele>
        <time>2021-08-16T11:14:39Z</time>
      </trkpt>
      <trkpt lat="44.97943" lon="2.07096">
        <ele>427.44</ele>
        <time>2021-08-16T11:14:42Z</time>
      </trkpt>
      <trkpt lat="44.97942" lon="2.0709">
        <ele>427.44</ele>
        <time>2021-08-16T11:14:43Z</time>
      </trkpt>
      <trkpt lat="44.97942" lon="2.07086">
        <ele>427.44</ele>
        <time>2021-08-16T11:14:44Z</time>
      </trkpt>
      <trkpt lat="44.97943" lon="2.07082">
        <ele>427.44</ele>
        <time>2021-08-16T11:14:45Z</time>
      </trkpt>
      <trkpt lat="44.97944" lon="2.07078">
        <ele>427.44</ele>
        <time>2021-08-16T11:14:46Z</time>
      </trkpt>
      <trkpt lat="44.97949" lon="2.07049">
        <ele>426.96</ele>
        <time>2021-08-16T11:14:53Z</time>
      </trkpt>
      <trkpt lat="44.9795" lon="2.07017">
        <ele>426.96</ele>
        <time>2021-08-16T11:15:00Z</time>
      </trkpt>
      <trkpt lat="44.97951" lon="2.07012">
        <ele>426.96</ele>
        <time>2021-08-16T11:15:02Z</time>
      </trkpt>
      <trkpt lat="44.97951" lon="2.0701">
        <ele>426.96</ele>
        <time>2021-08-16T11:15:03Z</time>
      </trkpt>
      <trkpt lat="44.97947" lon="2.06988">
        <ele>426.96</ele>
        <time>2021-08-16T11:15:10Z</time>
      </trkpt>
      <trkpt lat="44.9794" lon="2.06955">
        <ele>426.96</ele>
        <time>2021-08-16T11:15:17Z</time>
      </trkpt>
      <trkpt lat="44.97931" lon="2.06919">
        <ele>426.96</ele>
        <time>2021-08-16T11:15:24Z</time>
      </trkpt>
      <trkpt lat="44.97918" lon="2.06881">
        <ele>426.96</ele>
        <time>2021-08-16T11:15:32Z</time>
      </trkpt>
      <trkpt lat="44.97905" lon="2.06834">
        <ele>426.96</ele>
        <time>2021-08-16T11:15:40Z</time>
      </trkpt>
      <trkpt lat="44.97897" lon="2.06795">
        <ele>426.96</ele>
        <time>2021-08-16T11:15:47Z</time>
      </trkpt>
      <trkpt lat="44.97893" lon="2.06749">
        <ele>426.96</ele>
        <time>2021-08-16T11:15:55Z</time>
      </trkpt>
      <trkpt lat="44.97894" lon="2.0673">
        <ele>426.48</ele>
        <time>2021-08-16T11:15:58Z</time>
      </trkpt>
      <trkpt lat="44.97902" lon="2.06678">
        <ele>426.48</ele>
        <time>2021-08-16T11:16:06Z</time>
      </trkpt>
      <trkpt lat="44.97905" lon="2.06665">
        <ele>426.48</ele>
        <time>2021-08-16T11:16:08Z</time>
      </trkpt>
      <trkpt lat="44.97912" lon="2.06625">
        <ele>426.48</ele>
        <time>2021-08-16T11:16:15Z</time>
      </trkpt>
      <trkpt lat="44.97917" lon="2.06593">
        <ele>426.48</ele>
        <time>2021-08-16T11:16:21Z</time>
      </trkpt>
      <trkpt lat="44.97921" lon="2.0656">
        <ele>426.48</ele>
        <time>2021-08-16T11:16:27Z</time>
      </trkpt>
      <trkpt lat="44.9792" lon="2.06515">
        <ele>426.48</ele>
        <time>2021-08-16T11:16:35Z</time>
      </trkpt>
      <trkpt lat="44.97912" lon="2.06491">
        <ele>426.48</ele>
        <time>2021-08-16T11:16:40Z</time>
      </trkpt>
      <trkpt lat="44.97904" lon="2.06481">
        <ele>426.48</ele>
        <time>2021-08-16T11:16:42Z</time>
      </trkpt>
      <trkpt lat="44.97901" lon="2.06477">
        <ele>426.48</ele>
        <time>2021-08-16T11:16:43Z</time>
      </trkpt>
      <trkpt lat="44.97897" lon="2.06474">
        <ele>426.48</ele>
        <time>2021-08-16T11:16:44Z</time>
      </trkpt>
      <trkpt lat="44.97873" lon="2.06464">
        <ele>426</ele>
        <time>2021-08-16T11:16:50Z</time>
      </trkpt>
      <trkpt lat="44.97852" lon="2.06461">
        <ele>426</ele>
        <time>2021-08-16T11:16:55Z</time>
      </trkpt>
      <trkpt lat="44.97848" lon="2.06463">
        <ele>426</ele>
        <time>2021-08-16T11:16:56Z</time>
      </trkpt>
      <trkpt lat="44.97828" lon="2.06464">
        <ele>426</ele>
        <time>2021-08-16T11:17:01Z</time>
      </trkpt>
      <trkpt lat="44.97825" lon="2.06458">
        <ele>426</ele>
        <time>2021-08-16T11:17:03Z</time>
      </trkpt>
      <trkpt lat="44.97826" lon="2.06452">
        <ele>426</ele>
        <time>2021-08-16T11:17:04Z</time>
      </trkpt>
      <trkpt lat="44.97827" lon="2.06449">
        <ele>426</ele>
        <time>2021-08-16T11:17:05Z</time>
      </trkpt>
      <trkpt lat="44.97828" lon="2.06445">
        <ele>426</ele>
        <time>2021-08-16T11:17:06Z</time>
      </trkpt>
      <trkpt lat="44.9783" lon="2.06441">
        <ele>426</ele>
        <time>2021-08-16T11:17:07Z</time>
      </trkpt>
      <trkpt lat="44.97831" lon="2.06437">
        <ele>426</ele>
        <time>2021-08-16T11:17:08Z</time>
      </trkpt>
      <trkpt lat="44.97834" lon="2.06435">
        <ele>426</ele>
        <time>2021-08-16T11:17:09Z</time>
      </trkpt>
      <trkpt lat="44.97836" lon="2.06432">
        <ele>426</ele>
        <time>2021-08-16T11:17:10Z</time>
      </trkpt>
      <trkpt lat="44.97838" lon="2.0643">
        <ele>426</ele>
        <time>2021-08-16T11:17:11Z</time>
      </trkpt>
      <trkpt lat="44.97851" lon="2.06413">
        <ele>426</ele>
        <time>2021-08-16T11:17:17Z</time>
      </trkpt>
      <trkpt lat="44.9786" lon="2.06389">
        <ele>426</ele>
        <time>2021-08-16T11:17:24Z</time>
      </trkpt>
      <trkpt lat="44.97866" lon="2.06362">
        <ele>426</ele>
        <time>2021-08-16T11:17:31Z</time>
      </trkpt>
      <trkpt lat="44.97866" lon="2.06356">
        <ele>426</ele>
        <time>2021-08-16T11:17:37Z</time>
      </trkpt>
      <trkpt lat="44.97863" lon="2.06351">
        <ele>426</ele>
        <time>2021-08-16T11:17:46Z</time>
      </trkpt>
      <trkpt lat="44.97858" lon="2.06355">
        <ele>426</ele>
        <time>2021-08-16T11:17:55Z</time>
      </trkpt>
      <trkpt lat="44.97859" lon="2.06355">
        <ele>426</ele>
        <time>2021-08-16T11:18:04Z</time>
      </trkpt>
      <trkpt lat="44.97861" lon="2.06355">
        <ele>426</ele>
        <time>2021-08-16T11:18:17Z</time>
      </trkpt>
      <trkpt lat="44.97863" lon="2.06353">
        <ele>426</ele>
        <time>2021-08-16T11:18:28Z</time>
      </trkpt>
      <trkpt lat="44.97865" lon="2.06355">
        <ele>426</ele>
        <time>2021-08-16T11:18:47Z</time>
      </trkpt>
      <trkpt lat="44.97869" lon="2.06358">
        <ele>426</ele>
        <time>2021-08-16T11:18:48Z</time>
      </trkpt>
      <trkpt lat="44.9787" lon="2.0636">
        <ele>426</ele>
        <time>2021-08-16T11:18:51Z</time>
      </trkpt>
      <trkpt lat="44.97869" lon="2.06361">
        <ele>426</ele>
        <time>2021-08-16T11:18:53Z</time>
      </trkpt>
      <trkpt lat="44.97868" lon="2.06362">
        <ele>426</ele>
        <time>2021-08-16T11:18:58Z</time>
      </trkpt>
      <trkpt lat="44.97865" lon="2.06356">
        <ele>426</ele>
        <time>2021-08-16T11:19:21Z</time>
      </trkpt>
      <trkpt lat="44.97865" lon="2.06356">
        <ele>426</ele>
        <time>2021-08-16T11:19:39Z</time>
      </trkpt>
      <trkpt lat="44.97865" lon="2.06347">
        <ele>426</ele>
        <time>2021-08-16T11:19:55Z</time>
      </trkpt>
      <trkpt lat="44.97865" lon="2.0634">
        <ele>426</ele>
        <time>2021-08-16T11:20:16Z</time>
      </trkpt>
      <trkpt lat="44.97863" lon="2.06338">
        <ele>426</ele>
        <time>2021-08-16T11:20:32Z</time>
      </trkpt>
      <trkpt lat="44.97863" lon="2.06337">
        <ele>426</ele>
        <time>2021-08-16T11:20:44Z</time>
      </trkpt>
      <trkpt lat="44.97861" lon="2.06343">
        <ele>426</ele>
        <time>2021-08-16T11:21:07Z</time>
      </trkpt>
      <trkpt lat="44.97861" lon="2.06343">
        <ele>426.48</ele>
        <time>2021-08-16T11:21:16Z</time>
      </trkpt>
      <trkpt lat="44.97861" lon="2.06343">
        <ele>426.48</ele>
        <time>2021-08-16T11:21:33Z</time>
      </trkpt>
      <trkpt lat="44.97864" lon="2.06342">
        <ele>426.48</ele>
        <time>2021-08-16T11:21:51Z</time>
      </trkpt>
      <trkpt lat="44.97863" lon="2.06347">
        <ele>426.96</ele>
        <time>2021-08-16T11:22:07Z</time>
      </trkpt>
      <trkpt lat="44.97868" lon="2.0635">
        <ele>426.96</ele>
        <time>2021-08-16T11:22:29Z</time>
      </trkpt>
      <trkpt lat="44.97869" lon="2.06349">
        <ele>427.44</ele>
        <time>2021-08-16T11:22:48Z</time>
      </trkpt>
      <trkpt lat="44.97867" lon="2.06352">
        <ele>427.44</ele>
        <time>2021-08-16T11:23:01Z</time>
      </trkpt>
      <trkpt lat="44.97865" lon="2.06351">
        <ele>427.44</ele>
        <time>2021-08-16T11:23:17Z</time>
      </trkpt>
      <trkpt lat="44.97866" lon="2.06345">
        <ele>427.92</ele>
        <time>2021-08-16T11:23:37Z</time>
      </trkpt>
      <trkpt lat="44.9786" lon="2.06347">
        <ele>427.92</ele>
        <time>2021-08-16T11:23:48Z</time>
      </trkpt>
      <trkpt lat="44.9786" lon="2.0635">
        <ele>427.92</ele>
        <time>2021-08-16T11:23:55Z</time>
      </trkpt>
      <trkpt lat="44.97864" lon="2.06346">
        <ele>427.92</ele>
        <time>2021-08-16T11:24:07Z</time>
      </trkpt>
      <trkpt lat="44.9786" lon="2.06347">
        <ele>427.92</ele>
        <time>2021-08-16T11:24:20Z</time>
      </trkpt>
      <trkpt lat="44.97861" lon="2.06346">
        <ele>428.4</ele>
        <time>2021-08-16T11:24:29Z</time>
      </trkpt>
      <trkpt lat="44.97862" lon="2.06344">
        <ele>428.4</ele>
        <time>2021-08-16T11:24:46Z</time>
      </trkpt>
      <trkpt lat="44.97861" lon="2.06346">
        <ele>428.4</ele>
        <time>2021-08-16T11:25:07Z</time>
      </trkpt>
      <trkpt lat="44.97862" lon="2.06342">
        <ele>428.4</ele>
        <time>2021-08-16T11:25:20Z</time>
      </trkpt>
      <trkpt lat="44.97862" lon="2.06342">
        <ele>428.4</ele>
        <time>2021-08-16T11:25:33Z</time>
      </trkpt>
      <trkpt lat="44.97862" lon="2.06343">
        <ele>428.89</ele>
        <time>2021-08-16T11:25:50Z</time>
      </trkpt>
      <trkpt lat="44.97857" lon="2.0634">
        <ele>428.89</ele>
        <time>2021-08-16T11:26:03Z</time>
      </trkpt>
      <trkpt lat="44.97856" lon="2.06339">
        <ele>428.89</ele>
        <time>2021-08-16T11:26:20Z</time>
      </trkpt>
      <trkpt lat="44.97861" lon="2.06337">
        <ele>429.37</ele>
        <time>2021-08-16T11:26:38Z</time>
      </trkpt>
      <trkpt lat="44.97862" lon="2.06333">
        <ele>429.85</ele>
        <time>2021-08-16T11:26:55Z</time>
      </trkpt>
      <trkpt lat="44.97863" lon="2.06336">
        <ele>429.85</ele>
        <time>2021-08-16T11:27:14Z</time>
      </trkpt>
      <trkpt lat="44.97861" lon="2.06335">
        <ele>430.33</ele>
        <time>2021-08-16T11:27:25Z</time>
      </trkpt>
      <trkpt lat="44.97864" lon="2.06342">
        <ele>430.33</ele>
        <time>2021-08-16T11:27:40Z</time>
      </trkpt>
      <trkpt lat="44.97867" lon="2.06342">
        <ele>430.81</ele>
        <time>2021-08-16T11:27:55Z</time>
      </trkpt>
      <trkpt lat="44.97871" lon="2.06344">
        <ele>431.29</ele>
        <time>2021-08-16T11:28:12Z</time>
      </trkpt>
      <trkpt lat="44.97872" lon="2.06347">
        <ele>431.29</ele>
        <time>2021-08-16T11:28:21Z</time>
      </trkpt>
      <trkpt lat="44.97872" lon="2.0635">
        <ele>431.77</ele>
        <time>2021-08-16T11:28:29Z</time>
      </trkpt>
      <trkpt lat="44.97872" lon="2.06356">
        <ele>431.77</ele>
        <time>2021-08-16T11:28:42Z</time>
      </trkpt>
      <trkpt lat="44.97872" lon="2.06351">
        <ele>431.77</ele>
        <time>2021-08-16T11:28:45Z</time>
      </trkpt>
      <trkpt lat="44.97872" lon="2.06348">
        <ele>432.25</ele>
        <time>2021-08-16T11:28:49Z</time>
      </trkpt>
      <trkpt lat="44.97873" lon="2.06347">
        <ele>432.25</ele>
        <time>2021-08-16T11:28:51Z</time>
      </trkpt>
      <trkpt lat="44.97872" lon="2.06348">
        <ele>432.25</ele>
        <time>2021-08-16T11:28:56Z</time>
      </trkpt>
      <trkpt lat="44.9787" lon="2.06352">
        <ele>432.25</ele>
        <time>2021-08-16T11:29:15Z</time>
      </trkpt>
      <trkpt lat="44.97867" lon="2.06356">
        <ele>432.73</ele>
        <time>2021-08-16T11:29:28Z</time>
      </trkpt>
      <trkpt lat="44.97868" lon="2.06356">
        <ele>434.17</ele>
        <time>2021-08-16T11:29:32Z</time>
      </trkpt>
      <trkpt lat="44.97868" lon="2.06356">
        <ele>432.73</ele>
        <time>2021-08-16T11:29:36Z</time>
      </trkpt>
      <trkpt lat="44.97869" lon="2.06356">
        <ele>432.73</ele>
        <time>2021-08-16T11:29:48Z</time>
      </trkpt>
      <trkpt lat="44.97867" lon="2.06353">
        <ele>433.21</ele>
        <time>2021-08-16T11:29:58Z</time>
      </trkpt>
      <trkpt lat="44.97867" lon="2.06354">
        <ele>433.21</ele>
        <time>2021-08-16T11:30:12Z</time>
      </trkpt>
      <trkpt lat="44.97866" lon="2.06356">
        <ele>433.21</ele>
        <time>2021-08-16T11:30:23Z</time>
      </trkpt>
      <trkpt lat="44.97869" lon="2.06357">
        <ele>435.13</ele>
        <time>2021-08-16T11:30:32Z</time>
      </trkpt>
      <trkpt lat="44.97873" lon="2.06355">
        <ele>434.17</ele>
        <time>2021-08-16T11:30:55Z</time>
      </trkpt>
      <trkpt lat="44.97871" lon="2.06354">
        <ele>434.65</ele>
        <time>2021-08-16T11:31:09Z</time>
      </trkpt>
      <trkpt lat="44.97871" lon="2.06353">
        <ele>434.65</ele>
        <time>2021-08-16T11:31:25Z</time>
      </trkpt>
      <trkpt lat="44.9787" lon="2.06353">
        <ele>434.65</ele>
        <time>2021-08-16T11:31:32Z</time>
      </trkpt>
      <trkpt lat="44.97872" lon="2.0635">
        <ele>435.13</ele>
        <time>2021-08-16T11:31:45Z</time>
      </trkpt>
      <trkpt lat="44.97869" lon="2.06346">
        <ele>435.13</ele>
        <time>2021-08-16T11:32:00Z</time>
      </trkpt>
      <trkpt lat="44.97869" lon="2.06344">
        <ele>435.61</ele>
        <time>2021-08-16T11:32:11Z</time>
      </trkpt>
      <trkpt lat="44.97868" lon="2.06344">
        <ele>435.61</ele>
        <time>2021-08-16T11:32:24Z</time>
      </trkpt>
      <trkpt lat="44.97868" lon="2.06342">
        <ele>436.1</ele>
        <time>2021-08-16T11:32:37Z</time>
      </trkpt>
      <trkpt lat="44.97869" lon="2.0634">
        <ele>436.1</ele>
        <time>2021-08-16T11:32:52Z</time>
      </trkpt>
      <trkpt lat="44.97868" lon="2.06338">
        <ele>436.1</ele>
        <time>2021-08-16T11:33:03Z</time>
      </trkpt>
      <trkpt lat="44.97864" lon="2.06339">
        <ele>436.58</ele>
        <time>2021-08-16T11:33:14Z</time>
      </trkpt>
      <trkpt lat="44.97866" lon="2.06339">
        <ele>436.58</ele>
        <time>2021-08-16T11:33:24Z</time>
      </trkpt>
      <trkpt lat="44.97873" lon="2.06343">
        <ele>436.58</ele>
        <time>2021-08-16T11:33:36Z</time>
      </trkpt>
      <trkpt lat="44.97876" lon="2.06338">
        <ele>437.06</ele>
        <time>2021-08-16T11:33:45Z</time>
      </trkpt>
      <trkpt lat="44.97877" lon="2.06337">
        <ele>437.06</ele>
        <time>2021-08-16T11:33:57Z</time>
      </trkpt>
      <trkpt lat="44.97875" lon="2.0634">
        <ele>437.06</ele>
        <time>2021-08-16T11:34:05Z</time>
      </trkpt>
      <trkpt lat="44.97873" lon="2.06343">
        <ele>437.06</ele>
        <time>2021-08-16T11:34:11Z</time>
      </trkpt>
      <trkpt lat="44.97872" lon="2.06348">
        <ele>437.54</ele>
        <time>2021-08-16T11:34:20Z</time>
      </trkpt>
      <trkpt lat="44.97874" lon="2.06343">
        <ele>437.54</ele>
        <time>2021-08-16T11:34:36Z</time>
      </trkpt>
      <trkpt lat="44.97873" lon="2.06343">
        <ele>437.54</ele>
        <time>2021-08-16T11:34:48Z</time>
      </trkpt>
      <trkpt lat="44.97867" lon="2.06347">
        <ele>438.02</ele>
        <time>2021-08-16T11:35:02Z</time>
      </trkpt>
      <trkpt lat="44.97865" lon="2.06349">
        <ele>438.02</ele>
        <time>2021-08-16T11:35:13Z</time>
      </trkpt>
      <trkpt lat="44.97866" lon="2.06347">
        <ele>438.5</ele>
        <time>2021-08-16T11:35:23Z</time>
      </trkpt>
      <trkpt lat="44.97868" lon="2.06344">
        <ele>438.5</ele>
        <time>2021-08-16T11:35:39Z</time>
      </trkpt>
      <trkpt lat="44.9787" lon="2.06343">
        <ele>438.5</ele>
        <time>2021-08-16T11:35:51Z</time>
      </trkpt>
      <trkpt lat="44.97872" lon="2.0634">
        <ele>438.98</ele>
        <time>2021-08-16T11:36:02Z</time>
      </trkpt>
      <trkpt lat="44.97873" lon="2.06337">
        <ele>438.98</ele>
        <time>2021-08-16T11:36:10Z</time>
      </trkpt>
      <trkpt lat="44.97872" lon="2.06338">
        <ele>438.98</ele>
        <time>2021-08-16T11:36:20Z</time>
      </trkpt>
      <trkpt lat="44.97868" lon="2.06343">
        <ele>439.46</ele>
        <time>2021-08-16T11:36:33Z</time>
      </trkpt>
      <trkpt lat="44.97865" lon="2.06345">
        <ele>439.46</ele>
        <time>2021-08-16T11:36:42Z</time>
      </trkpt>
      <trkpt lat="44.97867" lon="2.06345">
        <ele>439.94</ele>
        <time>2021-08-16T11:36:53Z</time>
      </trkpt>
      <trkpt lat="44.97867" lon="2.06346">
        <ele>439.94</ele>
        <time>2021-08-16T11:37:02Z</time>
      </trkpt>
      <trkpt lat="44.97863" lon="2.06348">
        <ele>439.94</ele>
        <time>2021-08-16T11:37:20Z</time>
      </trkpt>
      <trkpt lat="44.97862" lon="2.06349">
        <ele>440.42</ele>
        <time>2021-08-16T11:37:25Z</time>
      </trkpt>
      <trkpt lat="44.97864" lon="2.06349">
        <ele>440.42</ele>
        <time>2021-08-16T11:37:34Z</time>
      </trkpt>
      <trkpt lat="44.97863" lon="2.06347">
        <ele>440.42</ele>
        <time>2021-08-16T11:37:47Z</time>
      </trkpt>
      <trkpt lat="44.97864" lon="2.06349">
        <ele>440.42</ele>
        <time>2021-08-16T11:37:55Z</time>
      </trkpt>
      <trkpt lat="44.97865" lon="2.0635">
        <ele>440.42</ele>
        <time>2021-08-16T11:38:06Z</time>
      </trkpt>
      <trkpt lat="44.97862" lon="2.06349">
        <ele>440.42</ele>
        <time>2021-08-16T11:38:20Z</time>
      </trkpt>
      <trkpt lat="44.97862" lon="2.06349">
        <ele>440.9</ele>
        <time>2021-08-16T11:38:36Z</time>
      </trkpt>
      <trkpt lat="44.9786" lon="2.06352">
        <ele>440.9</ele>
        <time>2021-08-16T11:38:53Z</time>
      </trkpt>
      <trkpt lat="44.97861" lon="2.06348">
        <ele>440.9</ele>
        <time>2021-08-16T11:39:03Z</time>
      </trkpt>
      <trkpt lat="44.97864" lon="2.06345">
        <ele>440.9</ele>
        <time>2021-08-16T11:39:15Z</time>
      </trkpt>
      <trkpt lat="44.97868" lon="2.06341">
        <ele>440.9</ele>
        <time>2021-08-16T11:39:27Z</time>
      </trkpt>
      <trkpt lat="44.9787" lon="2.06342">
        <ele>440.9</ele>
        <time>2021-08-16T11:39:40Z</time>
      </trkpt>
      <trkpt lat="44.97869" lon="2.06346">
        <ele>441.38</ele>
        <time>2021-08-16T11:39:57Z</time>
      </trkpt>
      <trkpt lat="44.97867" lon="2.06349">
        <ele>441.38</ele>
        <time>2021-08-16T11:40:05Z</time>
      </trkpt>
      <trkpt lat="44.9787" lon="2.0635">
        <ele>441.38</ele>
        <time>2021-08-16T11:40:17Z</time>
      </trkpt>
      <trkpt lat="44.97872" lon="2.0635">
        <ele>441.38</ele>
        <time>2021-08-16T11:40:29Z</time>
      </trkpt>
      <trkpt lat="44.97866" lon="2.06348">
        <ele>441.38</ele>
        <time>2021-08-16T11:40:43Z</time>
      </trkpt>
      <trkpt lat="44.97866" lon="2.06349">
        <ele>441.38</ele>
        <time>2021-08-16T11:40:58Z</time>
      </trkpt>
      <trkpt lat="44.97865" lon="2.06345">
        <ele>441.38</ele>
        <time>2021-08-16T11:41:11Z</time>
      </trkpt>
      <trkpt lat="44.97864" lon="2.06349">
        <ele>441.86</ele>
        <time>2021-08-16T11:41:26Z</time>
      </trkpt>
      <trkpt lat="44.97866" lon="2.06348">
        <ele>441.86</ele>
        <time>2021-08-16T11:41:35Z</time>
      </trkpt>
      <trkpt lat="44.97868" lon="2.06346">
        <ele>441.86</ele>
        <time>2021-08-16T11:41:44Z</time>
      </trkpt>
      <trkpt lat="44.97868" lon="2.06344">
        <ele>441.86</ele>
        <time>2021-08-16T11:41:56Z</time>
      </trkpt>
      <trkpt lat="44.97866" lon="2.06346">
        <ele>441.86</ele>
        <time>2021-08-16T11:42:11Z</time>
      </trkpt>
      <trkpt lat="44.9787" lon="2.06349">
        <ele>441.86</ele>
        <time>2021-08-16T11:42:25Z</time>
      </trkpt>
      <trkpt lat="44.97873" lon="2.0635">
        <ele>442.34</ele>
        <time>2021-08-16T11:42:37Z</time>
      </trkpt>
      <trkpt lat="44.97872" lon="2.06347">
        <ele>442.34</ele>
        <time>2021-08-16T11:42:52Z</time>
      </trkpt>
      <trkpt lat="44.97873" lon="2.06347">
        <ele>442.34</ele>
        <time>2021-08-16T11:43:08Z</time>
      </trkpt>
      <trkpt lat="44.97875" lon="2.06345">
        <ele>442.82</ele>
        <time>2021-08-16T11:43:21Z</time>
      </trkpt>
      <trkpt lat="44.97869" lon="2.06343">
        <ele>442.82</ele>
        <time>2021-08-16T11:43:32Z</time>
      </trkpt>
      <trkpt lat="44.97866" lon="2.06338">
        <ele>442.82</ele>
        <time>2021-08-16T11:43:46Z</time>
      </trkpt>
      <trkpt lat="44.97863" lon="2.06336">
        <ele>442.82</ele>
        <time>2021-08-16T11:44:00Z</time>
      </trkpt>
      <trkpt lat="44.9786" lon="2.06341">
        <ele>442.82</ele>
        <time>2021-08-16T11:44:21Z</time>
      </trkpt>
      <trkpt lat="44.97858" lon="2.06343">
        <ele>442.82</ele>
        <time>2021-08-16T11:44:39Z</time>
      </trkpt>
      <trkpt lat="44.97858" lon="2.06344">
        <ele>442.82</ele>
        <time>2021-08-16T11:44:53Z</time>
      </trkpt>
      <trkpt lat="44.97859" lon="2.06352">
        <ele>442.82</ele>
        <time>2021-08-16T11:45:01Z</time>
      </trkpt>
      <trkpt lat="44.97858" lon="2.06354">
        <ele>442.82</ele>
        <time>2021-08-16T11:45:02Z</time>
      </trkpt>
      <trkpt lat="44.97858" lon="2.06355">
        <ele>442.82</ele>
        <time>2021-08-16T11:45:03Z</time>
      </trkpt>
      <trkpt lat="44.97856" lon="2.06358">
        <ele>442.82</ele>
        <time>2021-08-16T11:45:04Z</time>
      </trkpt>
      <trkpt lat="44.97855" lon="2.0636">
        <ele>442.82</ele>
        <time>2021-08-16T11:45:05Z</time>
      </trkpt>
      <trkpt lat="44.97853" lon="2.06361">
        <ele>442.82</ele>
        <time>2021-08-16T11:45:06Z</time>
      </trkpt>
      <trkpt lat="44.97851" lon="2.06363">
        <ele>442.82</ele>
        <time>2021-08-16T11:45:07Z</time>
      </trkpt>
      <trkpt lat="44.97848" lon="2.06364">
        <ele>442.82</ele>
        <time>2021-08-16T11:45:08Z</time>
      </trkpt>
      <trkpt lat="44.97846" lon="2.06365">
        <ele>442.82</ele>
        <time>2021-08-16T11:45:09Z</time>
      </trkpt>
      <trkpt lat="44.97843" lon="2.06366">
        <ele>442.82</ele>
        <time>2021-08-16T11:45:10Z</time>
      </trkpt>
      <trkpt lat="44.9784" lon="2.06366">
        <ele>442.82</ele>
        <time>2021-08-16T11:45:11Z</time>
      </trkpt>
      <trkpt lat="44.97837" lon="2.06366">
        <ele>442.82</ele>
        <time>2021-08-16T11:45:12Z</time>
      </trkpt>
      <trkpt lat="44.97833" lon="2.06365">
        <ele>442.82</ele>
        <time>2021-08-16T11:45:13Z</time>
      </trkpt>
      <trkpt lat="44.97814" lon="2.06374">
        <ele>442.82</ele>
        <time>2021-08-16T11:45:20Z</time>
      </trkpt>
      <trkpt lat="44.97796" lon="2.06384">
        <ele>442.34</ele>
        <time>2021-08-16T11:45:26Z</time>
      </trkpt>
      <trkpt lat="44.97793" lon="2.06383">
        <ele>442.34</ele>
        <time>2021-08-16T11:45:27Z</time>
      </trkpt>
      <trkpt lat="44.9779" lon="2.06381">
        <ele>442.34</ele>
        <time>2021-08-16T11:45:28Z</time>
      </trkpt>
      <trkpt lat="44.97782" lon="2.06372">
        <ele>442.34</ele>
        <time>2021-08-16T11:45:31Z</time>
      </trkpt>
      <trkpt lat="44.97781" lon="2.06369">
        <ele>442.34</ele>
        <time>2021-08-16T11:45:32Z</time>
      </trkpt>
      <trkpt lat="44.97779" lon="2.06367">
        <ele>442.34</ele>
        <time>2021-08-16T11:45:33Z</time>
      </trkpt>
      <trkpt lat="44.97778" lon="2.06365">
        <ele>442.34</ele>
        <time>2021-08-16T11:45:34Z</time>
      </trkpt>
      <trkpt lat="44.97778" lon="2.06362">
        <ele>442.34</ele>
        <time>2021-08-16T11:45:35Z</time>
      </trkpt>
      <trkpt lat="44.9778" lon="2.06359">
        <ele>442.34</ele>
        <time>2021-08-16T11:45:36Z</time>
      </trkpt>
      <trkpt lat="44.97782" lon="2.06354">
        <ele>442.34</ele>
        <time>2021-08-16T11:45:37Z</time>
      </trkpt>
      <trkpt lat="44.97783" lon="2.06348">
        <ele>442.34</ele>
        <time>2021-08-16T11:45:38Z</time>
      </trkpt>
      <trkpt lat="44.97783" lon="2.06345">
        <ele>442.34</ele>
        <time>2021-08-16T11:45:39Z</time>
      </trkpt>
      <trkpt lat="44.97778" lon="2.06331">
        <ele>442.34</ele>
        <time>2021-08-16T11:45:43Z</time>
      </trkpt>
      <trkpt lat="44.97778" lon="2.06326">
        <ele>442.34</ele>
        <time>2021-08-16T11:45:44Z</time>
      </trkpt>
      <trkpt lat="44.97778" lon="2.06323">
        <ele>442.34</ele>
        <time>2021-08-16T11:45:45Z</time>
      </trkpt>
      <trkpt lat="44.97782" lon="2.06287">
        <ele>442.34</ele>
        <time>2021-08-16T11:45:53Z</time>
      </trkpt>
      <trkpt lat="44.97776" lon="2.06264">
        <ele>442.34</ele>
        <time>2021-08-16T11:45:58Z</time>
      </trkpt>
      <trkpt lat="44.97763" lon="2.06253">
        <ele>442.34</ele>
        <time>2021-08-16T11:46:03Z</time>
      </trkpt>
      <trkpt lat="44.97762" lon="2.0625">
        <ele>442.34</ele>
        <time>2021-08-16T11:46:04Z</time>
      </trkpt>
      <trkpt lat="44.97762" lon="2.06247">
        <ele>442.34</ele>
        <time>2021-08-16T11:46:05Z</time>
      </trkpt>
      <trkpt lat="44.97761" lon="2.06244">
        <ele>442.34</ele>
        <time>2021-08-16T11:46:06Z</time>
      </trkpt>
      <trkpt lat="44.9776" lon="2.06241">
        <ele>442.34</ele>
        <time>2021-08-16T11:46:07Z</time>
      </trkpt>
      <trkpt lat="44.9776" lon="2.06237">
        <ele>442.34</ele>
        <time>2021-08-16T11:46:08Z</time>
      </trkpt>
      <trkpt lat="44.97766" lon="2.06216">
        <ele>441.86</ele>
        <time>2021-08-16T11:46:13Z</time>
      </trkpt>
      <trkpt lat="44.97764" lon="2.06209">
        <ele>441.86</ele>
        <time>2021-08-16T11:46:15Z</time>
      </trkpt>
      <trkpt lat="44.97762" lon="2.06206">
        <ele>441.86</ele>
        <time>2021-08-16T11:46:16Z</time>
      </trkpt>
      <trkpt lat="44.97761" lon="2.06203">
        <ele>441.86</ele>
        <time>2021-08-16T11:46:17Z</time>
      </trkpt>
      <trkpt lat="44.9776" lon="2.062">
        <ele>441.86</ele>
        <time>2021-08-16T11:46:18Z</time>
      </trkpt>
      <trkpt lat="44.97759" lon="2.06196">
        <ele>441.86</ele>
        <time>2021-08-16T11:46:19Z</time>
      </trkpt>
      <trkpt lat="44.97758" lon="2.06191">
        <ele>441.86</ele>
        <time>2021-08-16T11:46:20Z</time>
      </trkpt>
      <trkpt lat="44.97756" lon="2.06182">
        <ele>441.86</ele>
        <time>2021-08-16T11:46:22Z</time>
      </trkpt>
      <trkpt lat="44.97741" lon="2.06169">
        <ele>441.86</ele>
        <time>2021-08-16T11:46:27Z</time>
      </trkpt>
      <trkpt lat="44.97737" lon="2.06169">
        <ele>441.86</ele>
        <time>2021-08-16T11:46:28Z</time>
      </trkpt>
      <trkpt lat="44.97731" lon="2.06166">
        <ele>441.86</ele>
        <time>2021-08-16T11:46:30Z</time>
      </trkpt>
      <trkpt lat="44.97729" lon="2.06162">
        <ele>441.86</ele>
        <time>2021-08-16T11:46:31Z</time>
      </trkpt>
      <trkpt lat="44.97728" lon="2.06158">
        <ele>441.86</ele>
        <time>2021-08-16T11:46:32Z</time>
      </trkpt>
      <trkpt lat="44.97727" lon="2.0615">
        <ele>441.38</ele>
        <time>2021-08-16T11:46:34Z</time>
      </trkpt>
      <trkpt lat="44.97731" lon="2.06134">
        <ele>440.9</ele>
        <time>2021-08-16T11:46:38Z</time>
      </trkpt>
      <trkpt lat="44.97733" lon="2.06133">
        <ele>440.9</ele>
        <time>2021-08-16T11:46:39Z</time>
      </trkpt>
      <trkpt lat="44.97735" lon="2.06133">
        <ele>440.9</ele>
        <time>2021-08-16T11:46:40Z</time>
      </trkpt>
      <trkpt lat="44.97736" lon="2.06134">
        <ele>440.9</ele>
        <time>2021-08-16T11:46:41Z</time>
      </trkpt>
      <trkpt lat="44.97738" lon="2.06135">
        <ele>440.9</ele>
        <time>2021-08-16T11:46:42Z</time>
      </trkpt>
      <trkpt lat="44.97739" lon="2.06136">
        <ele>440.9</ele>
        <time>2021-08-16T11:46:43Z</time>
      </trkpt>
      <trkpt lat="44.97753" lon="2.06142">
        <ele>440.9</ele>
        <time>2021-08-16T11:46:50Z</time>
      </trkpt>
      <trkpt lat="44.97755" lon="2.06142">
        <ele>440.9</ele>
        <time>2021-08-16T11:46:58Z</time>
      </trkpt>
      <trkpt lat="44.97757" lon="2.06143">
        <ele>440.42</ele>
        <time>2021-08-16T11:47:15Z</time>
      </trkpt>
      <trkpt lat="44.97761" lon="2.06143">
        <ele>440.42</ele>
        <time>2021-08-16T11:47:18Z</time>
      </trkpt>
      <trkpt lat="44.97764" lon="2.06143">
        <ele>440.42</ele>
        <time>2021-08-16T11:47:19Z</time>
      </trkpt>
      <trkpt lat="44.97781" lon="2.06139">
        <ele>440.42</ele>
        <time>2021-08-16T11:47:26Z</time>
      </trkpt>
      <trkpt lat="44.97802" lon="2.06132">
        <ele>440.42</ele>
        <time>2021-08-16T11:47:33Z</time>
      </trkpt>
      <trkpt lat="44.97827" lon="2.06122">
        <ele>440.42</ele>
        <time>2021-08-16T11:47:41Z</time>
      </trkpt>
      <trkpt lat="44.97841" lon="2.06111">
        <ele>440.42</ele>
        <time>2021-08-16T11:47:46Z</time>
      </trkpt>
      <trkpt lat="44.97858" lon="2.06088">
        <ele>440.42</ele>
        <time>2021-08-16T11:47:52Z</time>
      </trkpt>
      <trkpt lat="44.9786" lon="2.06084">
        <ele>440.42</ele>
        <time>2021-08-16T11:47:53Z</time>
      </trkpt>
      <trkpt lat="44.97863" lon="2.06082">
        <ele>440.42</ele>
        <time>2021-08-16T11:47:54Z</time>
      </trkpt>
      <trkpt lat="44.97866" lon="2.06079">
        <ele>440.42</ele>
        <time>2021-08-16T11:47:55Z</time>
      </trkpt>
      <trkpt lat="44.97885" lon="2.06051">
        <ele>440.42</ele>
        <time>2021-08-16T11:48:02Z</time>
      </trkpt>
      <trkpt lat="44.97897" lon="2.0602">
        <ele>440.42</ele>
        <time>2021-08-16T11:48:08Z</time>
      </trkpt>
      <trkpt lat="44.97899" lon="2.05997">
        <ele>440.42</ele>
        <time>2021-08-16T11:48:12Z</time>
      </trkpt>
      <trkpt lat="44.979" lon="2.05992">
        <ele>440.42</ele>
        <time>2021-08-16T11:48:13Z</time>
      </trkpt>
      <trkpt lat="44.97907" lon="2.05956">
        <ele>440.42</ele>
        <time>2021-08-16T11:48:20Z</time>
      </trkpt>
      <trkpt lat="44.97909" lon="2.05926">
        <ele>440.42</ele>
        <time>2021-08-16T11:48:27Z</time>
      </trkpt>
      <trkpt lat="44.97913" lon="2.05902">
        <ele>440.42</ele>
        <time>2021-08-16T11:48:33Z</time>
      </trkpt>
      <trkpt lat="44.97919" lon="2.05874">
        <ele>440.42</ele>
        <time>2021-08-16T11:48:40Z</time>
      </trkpt>
      <trkpt lat="44.9792" lon="2.05863">
        <ele>440.42</ele>
        <time>2021-08-16T11:48:42Z</time>
      </trkpt>
      <trkpt lat="44.9792" lon="2.05858">
        <ele>440.42</ele>
        <time>2021-08-16T11:48:43Z</time>
      </trkpt>
      <trkpt lat="44.97919" lon="2.05854">
        <ele>440.42</ele>
        <time>2021-08-16T11:48:44Z</time>
      </trkpt>
      <trkpt lat="44.97918" lon="2.0585">
        <ele>440.42</ele>
        <time>2021-08-16T11:48:45Z</time>
      </trkpt>
      <trkpt lat="44.97916" lon="2.05846">
        <ele>440.42</ele>
        <time>2021-08-16T11:48:46Z</time>
      </trkpt>
      <trkpt lat="44.97913" lon="2.05843">
        <ele>440.42</ele>
        <time>2021-08-16T11:48:47Z</time>
      </trkpt>
      <trkpt lat="44.97899" lon="2.05823">
        <ele>439.94</ele>
        <time>2021-08-16T11:48:53Z</time>
      </trkpt>
      <trkpt lat="44.97894" lon="2.05815">
        <ele>439.94</ele>
        <time>2021-08-16T11:48:57Z</time>
      </trkpt>
      <trkpt lat="44.97891" lon="2.05805">
        <ele>441.38</ele>
        <time>2021-08-16T11:49:00Z</time>
      </trkpt>
      <trkpt lat="44.9789" lon="2.05797">
        <ele>441.38</ele>
        <time>2021-08-16T11:49:02Z</time>
      </trkpt>
      <trkpt lat="44.9789" lon="2.05793">
        <ele>441.38</ele>
        <time>2021-08-16T11:49:03Z</time>
      </trkpt>
      <trkpt lat="44.9789" lon="2.05789">
        <ele>441.38</ele>
        <time>2021-08-16T11:49:04Z</time>
      </trkpt>
      <trkpt lat="44.9789" lon="2.05785">
        <ele>441.38</ele>
        <time>2021-08-16T11:49:05Z</time>
      </trkpt>
      <trkpt lat="44.9789" lon="2.0578">
        <ele>441.38</ele>
        <time>2021-08-16T11:49:06Z</time>
      </trkpt>
      <trkpt lat="44.97889" lon="2.05775">
        <ele>441.38</ele>
        <time>2021-08-16T11:49:07Z</time>
      </trkpt>
      <trkpt lat="44.97889" lon="2.05771">
        <ele>441.38</ele>
        <time>2021-08-16T11:49:08Z</time>
      </trkpt>
      <trkpt lat="44.97889" lon="2.05767">
        <ele>441.38</ele>
        <time>2021-08-16T11:49:09Z</time>
      </trkpt>
      <trkpt lat="44.97889" lon="2.05763">
        <ele>441.38</ele>
        <time>2021-08-16T11:49:10Z</time>
      </trkpt>
      <trkpt lat="44.97888" lon="2.05759">
        <ele>441.38</ele>
        <time>2021-08-16T11:49:11Z</time>
      </trkpt>
      <trkpt lat="44.97887" lon="2.05757">
        <ele>441.38</ele>
        <time>2021-08-16T11:49:12Z</time>
      </trkpt>
      <trkpt lat="44.97879" lon="2.05744">
        <ele>441.38</ele>
        <time>2021-08-16T11:49:19Z</time>
      </trkpt>
      <trkpt lat="44.97871" lon="2.05725">
        <ele>441.38</ele>
        <time>2021-08-16T11:49:25Z</time>
      </trkpt>
      <trkpt lat="44.9787" lon="2.05708">
        <ele>441.38</ele>
        <time>2021-08-16T11:49:30Z</time>
      </trkpt>
      <trkpt lat="44.9787" lon="2.05699">
        <ele>440.9</ele>
        <time>2021-08-16T11:49:35Z</time>
      </trkpt>
      <trkpt lat="44.9787" lon="2.05698">
        <ele>440.9</ele>
        <time>2021-08-16T11:49:36Z</time>
      </trkpt>
      <trkpt lat="44.9787" lon="2.05694">
        <ele>440.9</ele>
        <time>2021-08-16T11:49:38Z</time>
      </trkpt>
      <trkpt lat="44.97869" lon="2.05692">
        <ele>440.9</ele>
        <time>2021-08-16T11:49:39Z</time>
      </trkpt>
      <trkpt lat="44.97867" lon="2.0569">
        <ele>440.9</ele>
        <time>2021-08-16T11:49:40Z</time>
      </trkpt>
      <trkpt lat="44.97852" lon="2.05675">
        <ele>440.9</ele>
        <time>2021-08-16T11:49:47Z</time>
      </trkpt>
      <trkpt lat="44.97834" lon="2.05673">
        <ele>440.9</ele>
        <time>2021-08-16T11:49:53Z</time>
      </trkpt>
      <trkpt lat="44.97813" lon="2.05655">
        <ele>440.9</ele>
        <time>2021-08-16T11:50:01Z</time>
      </trkpt>
      <trkpt lat="44.97799" lon="2.0564">
        <ele>440.9</ele>
        <time>2021-08-16T11:50:07Z</time>
      </trkpt>
      <trkpt lat="44.97782" lon="2.05619">
        <ele>440.9</ele>
        <time>2021-08-16T11:50:14Z</time>
      </trkpt>
      <trkpt lat="44.97772" lon="2.05605">
        <ele>440.42</ele>
        <time>2021-08-16T11:50:19Z</time>
      </trkpt>
      <trkpt lat="44.97754" lon="2.05585">
        <ele>440.42</ele>
        <time>2021-08-16T11:50:26Z</time>
      </trkpt>
      <trkpt lat="44.97744" lon="2.0556">
        <ele>440.42</ele>
        <time>2021-08-16T11:50:31Z</time>
      </trkpt>
      <trkpt lat="44.9773" lon="2.05518">
        <ele>440.42</ele>
        <time>2021-08-16T11:50:40Z</time>
      </trkpt>
      <trkpt lat="44.97716" lon="2.05491">
        <ele>439.94</ele>
        <time>2021-08-16T11:50:48Z</time>
      </trkpt>
      <trkpt lat="44.97705" lon="2.05477">
        <ele>439.94</ele>
        <time>2021-08-16T11:50:53Z</time>
      </trkpt>
      <trkpt lat="44.97687" lon="2.05462">
        <ele>439.94</ele>
        <time>2021-08-16T11:51:00Z</time>
      </trkpt>
      <trkpt lat="44.97684" lon="2.05459">
        <ele>439.94</ele>
        <time>2021-08-16T11:51:01Z</time>
      </trkpt>
      <trkpt lat="44.97681" lon="2.05456">
        <ele>439.94</ele>
        <time>2021-08-16T11:51:02Z</time>
      </trkpt>
      <trkpt lat="44.9768" lon="2.05453">
        <ele>439.94</ele>
        <time>2021-08-16T11:51:03Z</time>
      </trkpt>
      <trkpt lat="44.97678" lon="2.0545">
        <ele>439.94</ele>
        <time>2021-08-16T11:51:04Z</time>
      </trkpt>
      <trkpt lat="44.97677" lon="2.05447">
        <ele>439.46</ele>
        <time>2021-08-16T11:51:05Z</time>
      </trkpt>
      <trkpt lat="44.97677" lon="2.05444">
        <ele>439.46</ele>
        <time>2021-08-16T11:51:06Z</time>
      </trkpt>
      <trkpt lat="44.97678" lon="2.05441">
        <ele>439.46</ele>
        <time>2021-08-16T11:51:07Z</time>
      </trkpt>
      <trkpt lat="44.97679" lon="2.05438">
        <ele>439.46</ele>
        <time>2021-08-16T11:51:08Z</time>
      </trkpt>
      <trkpt lat="44.9768" lon="2.05436">
        <ele>439.46</ele>
        <time>2021-08-16T11:51:09Z</time>
      </trkpt>
      <trkpt lat="44.97682" lon="2.05434">
        <ele>439.46</ele>
        <time>2021-08-16T11:51:10Z</time>
      </trkpt>
      <trkpt lat="44.97694" lon="2.05417">
        <ele>439.46</ele>
        <time>2021-08-16T11:51:17Z</time>
      </trkpt>
      <trkpt lat="44.97703" lon="2.05406">
        <ele>439.46</ele>
        <time>2021-08-16T11:51:22Z</time>
      </trkpt>
      <trkpt lat="44.97705" lon="2.05406">
        <ele>439.46</ele>
        <time>2021-08-16T11:51:23Z</time>
      </trkpt>
      <trkpt lat="44.97717" lon="2.05408">
        <ele>439.46</ele>
        <time>2021-08-16T11:51:28Z</time>
      </trkpt>
      <trkpt lat="44.97732" lon="2.05405">
        <ele>438.98</ele>
        <time>2021-08-16T11:51:33Z</time>
      </trkpt>
      <trkpt lat="44.9775" lon="2.05395">
        <ele>438.98</ele>
        <time>2021-08-16T11:51:40Z</time>
      </trkpt>
      <trkpt lat="44.97766" lon="2.05393">
        <ele>438.98</ele>
        <time>2021-08-16T11:51:45Z</time>
      </trkpt>
      <trkpt lat="44.97768" lon="2.05394">
        <ele>438.98</ele>
        <time>2021-08-16T11:51:46Z</time>
      </trkpt>
      <trkpt lat="44.97779" lon="2.05396">
        <ele>438.98</ele>
        <time>2021-08-16T11:51:50Z</time>
      </trkpt>
      <trkpt lat="44.97782" lon="2.05393">
        <ele>438.98</ele>
        <time>2021-08-16T11:51:51Z</time>
      </trkpt>
      <trkpt lat="44.97785" lon="2.0539">
        <ele>438.98</ele>
        <time>2021-08-16T11:51:52Z</time>
      </trkpt>
      <trkpt lat="44.97787" lon="2.05386">
        <ele>438.98</ele>
        <time>2021-08-16T11:51:53Z</time>
      </trkpt>
      <trkpt lat="44.97789" lon="2.05382">
        <ele>437.54</ele>
        <time>2021-08-16T11:51:54Z</time>
      </trkpt>
      <trkpt lat="44.97792" lon="2.05378">
        <ele>437.54</ele>
        <time>2021-08-16T11:51:55Z</time>
      </trkpt>
      <trkpt lat="44.97808" lon="2.05363">
        <ele>437.54</ele>
        <time>2021-08-16T11:52:01Z</time>
      </trkpt>
      <trkpt lat="44.97829" lon="2.05339">
        <ele>437.06</ele>
        <time>2021-08-16T11:52:08Z</time>
      </trkpt>
      <trkpt lat="44.97843" lon="2.05319">
        <ele>437.06</ele>
        <time>2021-08-16T11:52:14Z</time>
      </trkpt>
      <trkpt lat="44.9786" lon="2.05309">
        <ele>437.06</ele>
        <time>2021-08-16T11:52:20Z</time>
      </trkpt>
      <trkpt lat="44.97876" lon="2.05295">
        <ele>437.06</ele>
        <time>2021-08-16T11:52:26Z</time>
      </trkpt>
      <trkpt lat="44.97892" lon="2.05272">
        <ele>436.58</ele>
        <time>2021-08-16T11:52:33Z</time>
      </trkpt>
      <trkpt lat="44.97898" lon="2.05249">
        <ele>436.58</ele>
        <time>2021-08-16T11:52:38Z</time>
      </trkpt>
      <trkpt lat="44.97909" lon="2.05227">
        <ele>436.58</ele>
        <time>2021-08-16T11:52:43Z</time>
      </trkpt>
      <trkpt lat="44.9792" lon="2.05203">
        <ele>436.58</ele>
        <time>2021-08-16T11:52:49Z</time>
      </trkpt>
      <trkpt lat="44.97925" lon="2.05183">
        <ele>436.58</ele>
        <time>2021-08-16T11:52:54Z</time>
      </trkpt>
      <trkpt lat="44.97932" lon="2.0516">
        <ele>436.58</ele>
        <time>2021-08-16T11:53:00Z</time>
      </trkpt>
      <trkpt lat="44.97935" lon="2.05159">
        <ele>436.58</ele>
        <time>2021-08-16T11:53:01Z</time>
      </trkpt>
      <trkpt lat="44.97937" lon="2.05158">
        <ele>436.58</ele>
        <time>2021-08-16T11:53:02Z</time>
      </trkpt>
      <trkpt lat="44.9794" lon="2.05157">
        <ele>436.58</ele>
        <time>2021-08-16T11:53:03Z</time>
      </trkpt>
      <trkpt lat="44.97943" lon="2.05156">
        <ele>436.58</ele>
        <time>2021-08-16T11:53:04Z</time>
      </trkpt>
      <trkpt lat="44.97946" lon="2.05154">
        <ele>436.58</ele>
        <time>2021-08-16T11:53:05Z</time>
      </trkpt>
      <trkpt lat="44.97949" lon="2.05151">
        <ele>436.58</ele>
        <time>2021-08-16T11:53:06Z</time>
      </trkpt>
      <trkpt lat="44.97951" lon="2.05148">
        <ele>436.58</ele>
        <time>2021-08-16T11:53:07Z</time>
      </trkpt>
      <trkpt lat="44.97954" lon="2.05145">
        <ele>436.58</ele>
        <time>2021-08-16T11:53:08Z</time>
      </trkpt>
      <trkpt lat="44.97956" lon="2.05142">
        <ele>436.58</ele>
        <time>2021-08-16T11:53:09Z</time>
      </trkpt>
      <trkpt lat="44.97957" lon="2.05139">
        <ele>436.58</ele>
        <time>2021-08-16T11:53:10Z</time>
      </trkpt>
      <trkpt lat="44.97959" lon="2.05136">
        <ele>436.58</ele>
        <time>2021-08-16T11:53:11Z</time>
      </trkpt>
      <trkpt lat="44.97962" lon="2.05132">
        <ele>436.58</ele>
        <time>2021-08-16T11:53:12Z</time>
      </trkpt>
      <trkpt lat="44.97975" lon="2.05106">
        <ele>436.58</ele>
        <time>2021-08-16T11:53:19Z</time>
      </trkpt>
      <trkpt lat="44.97988" lon="2.05089">
        <ele>436.58</ele>
        <time>2021-08-16T11:53:25Z</time>
      </trkpt>
      <trkpt lat="44.98013" lon="2.05069">
        <ele>436.58</ele>
        <time>2021-08-16T11:53:33Z</time>
      </trkpt>
      <trkpt lat="44.98031" lon="2.05041">
        <ele>436.58</ele>
        <time>2021-08-16T11:53:40Z</time>
      </trkpt>
      <trkpt lat="44.9804" lon="2.05019">
        <ele>436.1</ele>
        <time>2021-08-16T11:53:45Z</time>
      </trkpt>
      <trkpt lat="44.9805" lon="2.05007">
        <ele>436.1</ele>
        <time>2021-08-16T11:53:50Z</time>
      </trkpt>
      <trkpt lat="44.98053" lon="2.05006">
        <ele>436.1</ele>
        <time>2021-08-16T11:53:51Z</time>
      </trkpt>
      <trkpt lat="44.98056" lon="2.05006">
        <ele>436.1</ele>
        <time>2021-08-16T11:53:52Z</time>
      </trkpt>
      <trkpt lat="44.98059" lon="2.05006">
        <ele>436.1</ele>
        <time>2021-08-16T11:53:53Z</time>
      </trkpt>
      <trkpt lat="44.98071" lon="2.04999">
        <ele>436.1</ele>
        <time>2021-08-16T11:53:58Z</time>
      </trkpt>
      <trkpt lat="44.98077" lon="2.04985">
        <ele>436.1</ele>
        <time>2021-08-16T11:54:03Z</time>
      </trkpt>
      <trkpt lat="44.98086" lon="2.04966">
        <ele>436.1</ele>
        <time>2021-08-16T11:54:08Z</time>
      </trkpt>
      <trkpt lat="44.98105" lon="2.04942">
        <ele>436.1</ele>
        <time>2021-08-16T11:54:15Z</time>
      </trkpt>
      <trkpt lat="44.98126" lon="2.04917">
        <ele>436.1</ele>
        <time>2021-08-16T11:54:22Z</time>
      </trkpt>
      <trkpt lat="44.9815" lon="2.04903">
        <ele>436.1</ele>
        <time>2021-08-16T11:54:29Z</time>
      </trkpt>
      <trkpt lat="44.98175" lon="2.04883">
        <ele>436.1</ele>
        <time>2021-08-16T11:54:37Z</time>
      </trkpt>
      <trkpt lat="44.98205" lon="2.04865">
        <ele>436.1</ele>
        <time>2021-08-16T11:54:47Z</time>
      </trkpt>
      <trkpt lat="44.98232" lon="2.04853">
        <ele>436.58</ele>
        <time>2021-08-16T11:54:55Z</time>
      </trkpt>
      <trkpt lat="44.98254" lon="2.04835">
        <ele>436.58</ele>
        <time>2021-08-16T11:55:01Z</time>
      </trkpt>
      <trkpt lat="44.98258" lon="2.04833">
        <ele>436.58</ele>
        <time>2021-08-16T11:55:02Z</time>
      </trkpt>
      <trkpt lat="44.98261" lon="2.04832">
        <ele>436.58</ele>
        <time>2021-08-16T11:55:03Z</time>
      </trkpt>
      <trkpt lat="44.98266" lon="2.04831">
        <ele>436.58</ele>
        <time>2021-08-16T11:55:04Z</time>
      </trkpt>
      <trkpt lat="44.9827" lon="2.04831">
        <ele>436.58</ele>
        <time>2021-08-16T11:55:05Z</time>
      </trkpt>
      <trkpt lat="44.98289" lon="2.04826">
        <ele>436.58</ele>
        <time>2021-08-16T11:55:10Z</time>
      </trkpt>
      <trkpt lat="44.98295" lon="2.04818">
        <ele>436.58</ele>
        <time>2021-08-16T11:55:12Z</time>
      </trkpt>
      <trkpt lat="44.98298" lon="2.04812">
        <ele>436.58</ele>
        <time>2021-08-16T11:55:13Z</time>
      </trkpt>
      <trkpt lat="44.98311" lon="2.04796">
        <ele>436.58</ele>
        <time>2021-08-16T11:55:18Z</time>
      </trkpt>
      <trkpt lat="44.98326" lon="2.0478">
        <ele>436.58</ele>
        <time>2021-08-16T11:55:23Z</time>
      </trkpt>
      <trkpt lat="44.98332" lon="2.04774">
        <ele>436.58</ele>
        <time>2021-08-16T11:55:25Z</time>
      </trkpt>
      <trkpt lat="44.98335" lon="2.04773">
        <ele>436.58</ele>
        <time>2021-08-16T11:55:26Z</time>
      </trkpt>
      <trkpt lat="44.98355" lon="2.04767">
        <ele>438.02</ele>
        <time>2021-08-16T11:55:33Z</time>
      </trkpt>
      <trkpt lat="44.98357" lon="2.04767">
        <ele>438.02</ele>
        <time>2021-08-16T11:55:34Z</time>
      </trkpt>
      <trkpt lat="44.98365" lon="2.04763">
        <ele>438.02</ele>
        <time>2021-08-16T11:55:41Z</time>
      </trkpt>
      <trkpt lat="44.98377" lon="2.04768">
        <ele>438.02</ele>
        <time>2021-08-16T11:55:46Z</time>
      </trkpt>
      <trkpt lat="44.98382" lon="2.04769">
        <ele>438.02</ele>
        <time>2021-08-16T11:55:48Z</time>
      </trkpt>
      <trkpt lat="44.98384" lon="2.04769">
        <ele>438.02</ele>
        <time>2021-08-16T11:55:49Z</time>
      </trkpt>
      <trkpt lat="44.98387" lon="2.0477">
        <ele>438.02</ele>
        <time>2021-08-16T11:55:50Z</time>
      </trkpt>
      <trkpt lat="44.9839" lon="2.04769">
        <ele>438.02</ele>
        <time>2021-08-16T11:55:51Z</time>
      </trkpt>
      <trkpt lat="44.98392" lon="2.0477">
        <ele>438.02</ele>
        <time>2021-08-16T11:55:52Z</time>
      </trkpt>
      <trkpt lat="44.98394" lon="2.0477">
        <ele>438.02</ele>
        <time>2021-08-16T11:55:53Z</time>
      </trkpt>
      <trkpt lat="44.98396" lon="2.0477">
        <ele>438.02</ele>
        <time>2021-08-16T11:55:54Z</time>
      </trkpt>
      <trkpt lat="44.98398" lon="2.04769">
        <ele>438.02</ele>
        <time>2021-08-16T11:55:55Z</time>
      </trkpt>
      <trkpt lat="44.98405" lon="2.04765">
        <ele>438.02</ele>
        <time>2021-08-16T11:55:58Z</time>
      </trkpt>
      <trkpt lat="44.98406" lon="2.04763">
        <ele>438.02</ele>
        <time>2021-08-16T11:55:59Z</time>
      </trkpt>
      <trkpt lat="44.98407" lon="2.04756">
        <ele>438.02</ele>
        <time>2021-08-16T11:56:01Z</time>
      </trkpt>
      <trkpt lat="44.98408" lon="2.04754">
        <ele>438.02</ele>
        <time>2021-08-16T11:56:02Z</time>
      </trkpt>
      <trkpt lat="44.9841" lon="2.04752">
        <ele>438.02</ele>
        <time>2021-08-16T11:56:03Z</time>
      </trkpt>
      <trkpt lat="44.98412" lon="2.04751">
        <ele>438.02</ele>
        <time>2021-08-16T11:56:04Z</time>
      </trkpt>
      <trkpt lat="44.98413" lon="2.0475">
        <ele>438.02</ele>
        <time>2021-08-16T11:56:05Z</time>
      </trkpt>
      <trkpt lat="44.98415" lon="2.04748">
        <ele>438.02</ele>
        <time>2021-08-16T11:56:06Z</time>
      </trkpt>
      <trkpt lat="44.98416" lon="2.04745">
        <ele>438.02</ele>
        <time>2021-08-16T11:56:07Z</time>
      </trkpt>
      <trkpt lat="44.98417" lon="2.04743">
        <ele>438.02</ele>
        <time>2021-08-16T11:56:08Z</time>
      </trkpt>
      <trkpt lat="44.98419" lon="2.0474">
        <ele>438.02</ele>
        <time>2021-08-16T11:56:09Z</time>
      </trkpt>
      <trkpt lat="44.9842" lon="2.04737">
        <ele>438.02</ele>
        <time>2021-08-16T11:56:10Z</time>
      </trkpt>
      <trkpt lat="44.98421" lon="2.04733">
        <ele>438.02</ele>
        <time>2021-08-16T11:56:11Z</time>
      </trkpt>
      <trkpt lat="44.98422" lon="2.0473">
        <ele>438.02</ele>
        <time>2021-08-16T11:56:12Z</time>
      </trkpt>
      <trkpt lat="44.98428" lon="2.04709">
        <ele>438.5</ele>
        <time>2021-08-16T11:56:17Z</time>
      </trkpt>
      <trkpt lat="44.9843" lon="2.04707">
        <ele>438.5</ele>
        <time>2021-08-16T11:56:18Z</time>
      </trkpt>
      <trkpt lat="44.98431" lon="2.04705">
        <ele>438.5</ele>
        <time>2021-08-16T11:56:19Z</time>
      </trkpt>
      <trkpt lat="44.98433" lon="2.04703">
        <ele>438.5</ele>
        <time>2021-08-16T11:56:20Z</time>
      </trkpt>
      <trkpt lat="44.98434" lon="2.04701">
        <ele>438.5</ele>
        <time>2021-08-16T11:56:21Z</time>
      </trkpt>
      <trkpt lat="44.98434" lon="2.04698">
        <ele>438.5</ele>
        <time>2021-08-16T11:56:22Z</time>
      </trkpt>
      <trkpt lat="44.98434" lon="2.04696">
        <ele>438.5</ele>
        <time>2021-08-16T11:56:23Z</time>
      </trkpt>
      <trkpt lat="44.98435" lon="2.04692">
        <ele>438.5</ele>
        <time>2021-08-16T11:56:24Z</time>
      </trkpt>
      <trkpt lat="44.98435" lon="2.04689">
        <ele>438.5</ele>
        <time>2021-08-16T11:56:25Z</time>
      </trkpt>
      <trkpt lat="44.98437" lon="2.04687">
        <ele>438.5</ele>
        <time>2021-08-16T11:56:26Z</time>
      </trkpt>
      <trkpt lat="44.98439" lon="2.04683">
        <ele>438.5</ele>
        <time>2021-08-16T11:56:27Z</time>
      </trkpt>
      <trkpt lat="44.98441" lon="2.0468">
        <ele>438.5</ele>
        <time>2021-08-16T11:56:28Z</time>
      </trkpt>
      <trkpt lat="44.98443" lon="2.04677">
        <ele>438.5</ele>
        <time>2021-08-16T11:56:29Z</time>
      </trkpt>
      <trkpt lat="44.98445" lon="2.04673">
        <ele>438.5</ele>
        <time>2021-08-16T11:56:30Z</time>
      </trkpt>
      <trkpt lat="44.98457" lon="2.04654">
        <ele>438.5</ele>
        <time>2021-08-16T11:56:36Z</time>
      </trkpt>
      <trkpt lat="44.98461" lon="2.04649">
        <ele>438.5</ele>
        <time>2021-08-16T11:56:38Z</time>
      </trkpt>
      <trkpt lat="44.98462" lon="2.04647">
        <ele>438.5</ele>
        <time>2021-08-16T11:56:39Z</time>
      </trkpt>
      <trkpt lat="44.98468" lon="2.04643">
        <ele>438.5</ele>
        <time>2021-08-16T11:56:48Z</time>
      </trkpt>
      <trkpt lat="44.98474" lon="2.04639">
        <ele>438.5</ele>
        <time>2021-08-16T11:57:05Z</time>
      </trkpt>
      <trkpt lat="44.98478" lon="2.04637">
        <ele>438.5</ele>
        <time>2021-08-16T11:57:13Z</time>
      </trkpt>
      <trkpt lat="44.98491" lon="2.04634">
        <ele>438.5</ele>
        <time>2021-08-16T11:57:19Z</time>
      </trkpt>
      <trkpt lat="44.98493" lon="2.04631">
        <ele>438.5</ele>
        <time>2021-08-16T11:57:20Z</time>
      </trkpt>
      <trkpt lat="44.98495" lon="2.04626">
        <ele>438.5</ele>
        <time>2021-08-16T11:57:21Z</time>
      </trkpt>
      <trkpt lat="44.98496" lon="2.0462">
        <ele>438.5</ele>
        <time>2021-08-16T11:57:22Z</time>
      </trkpt>
      <trkpt lat="44.98496" lon="2.04615">
        <ele>437.54</ele>
        <time>2021-08-16T11:57:23Z</time>
      </trkpt>
      <trkpt lat="44.98498" lon="2.04597">
        <ele>437.54</ele>
        <time>2021-08-16T11:57:28Z</time>
      </trkpt>
      <trkpt lat="44.98508" lon="2.0458">
        <ele>437.54</ele>
        <time>2021-08-16T11:57:35Z</time>
      </trkpt>
      <trkpt lat="44.98519" lon="2.04569">
        <ele>437.54</ele>
        <time>2021-08-16T11:57:40Z</time>
      </trkpt>
      <trkpt lat="44.98535" lon="2.04543">
        <ele>437.54</ele>
        <time>2021-08-16T11:57:47Z</time>
      </trkpt>
      <trkpt lat="44.98549" lon="2.0452">
        <ele>437.54</ele>
        <time>2021-08-16T11:57:53Z</time>
      </trkpt>
      <trkpt lat="44.98565" lon="2.04493">
        <ele>437.06</ele>
        <time>2021-08-16T11:58:01Z</time>
      </trkpt>
      <trkpt lat="44.98577" lon="2.04477">
        <ele>436.58</ele>
        <time>2021-08-16T11:58:07Z</time>
      </trkpt>
      <trkpt lat="44.98579" lon="2.04475">
        <ele>436.58</ele>
        <time>2021-08-16T11:58:08Z</time>
      </trkpt>
      <trkpt lat="44.98581" lon="2.04473">
        <ele>437.54</ele>
        <time>2021-08-16T11:58:09Z</time>
      </trkpt>
      <trkpt lat="44.98583" lon="2.0447">
        <ele>437.54</ele>
        <time>2021-08-16T11:58:10Z</time>
      </trkpt>
      <trkpt lat="44.98585" lon="2.04467">
        <ele>437.54</ele>
        <time>2021-08-16T11:58:11Z</time>
      </trkpt>
      <trkpt lat="44.98587" lon="2.04464">
        <ele>437.54</ele>
        <time>2021-08-16T11:58:12Z</time>
      </trkpt>
      <trkpt lat="44.98588" lon="2.04462">
        <ele>437.54</ele>
        <time>2021-08-16T11:58:13Z</time>
      </trkpt>
      <trkpt lat="44.9859" lon="2.04461">
        <ele>437.54</ele>
        <time>2021-08-16T11:58:14Z</time>
      </trkpt>
      <trkpt lat="44.98592" lon="2.04459">
        <ele>437.54</ele>
        <time>2021-08-16T11:58:15Z</time>
      </trkpt>
      <trkpt lat="44.98607" lon="2.04445">
        <ele>437.54</ele>
        <time>2021-08-16T11:58:22Z</time>
      </trkpt>
      <trkpt lat="44.98621" lon="2.04429">
        <ele>438.02</ele>
        <time>2021-08-16T11:58:29Z</time>
      </trkpt>
      <trkpt lat="44.98633" lon="2.04411">
        <ele>438.5</ele>
        <time>2021-08-16T11:58:35Z</time>
      </trkpt>
      <trkpt lat="44.98634" lon="2.0439">
        <ele>438.5</ele>
        <time>2021-08-16T11:58:40Z</time>
      </trkpt>
      <trkpt lat="44.98633" lon="2.04385">
        <ele>438.5</ele>
        <time>2021-08-16T11:58:42Z</time>
      </trkpt>
      <trkpt lat="44.98631" lon="2.04383">
        <ele>438.5</ele>
        <time>2021-08-16T11:58:43Z</time>
      </trkpt>
      <trkpt lat="44.9863" lon="2.04383">
        <ele>438.5</ele>
        <time>2021-08-16T11:58:44Z</time>
      </trkpt>
      <trkpt lat="44.98627" lon="2.04383">
        <ele>438.5</ele>
        <time>2021-08-16T11:58:45Z</time>
      </trkpt>
      <trkpt lat="44.98625" lon="2.04384">
        <ele>438.5</ele>
        <time>2021-08-16T11:58:46Z</time>
      </trkpt>
      <trkpt lat="44.98622" lon="2.04385">
        <ele>438.5</ele>
        <time>2021-08-16T11:58:47Z</time>
      </trkpt>
      <trkpt lat="44.98608" lon="2.04391">
        <ele>438.5</ele>
        <time>2021-08-16T11:58:52Z</time>
      </trkpt>
      <trkpt lat="44.98586" lon="2.04396">
        <ele>438.5</ele>
        <time>2021-08-16T11:58:59Z</time>
      </trkpt>
      <trkpt lat="44.98564" lon="2.04394">
        <ele>438.5</ele>
        <time>2021-08-16T11:59:06Z</time>
      </trkpt>
      <trkpt lat="44.98545" lon="2.04398">
        <ele>438.5</ele>
        <time>2021-08-16T11:59:12Z</time>
      </trkpt>
      <trkpt lat="44.98534" lon="2.04403">
        <ele>438.5</ele>
        <time>2021-08-16T11:59:16Z</time>
      </trkpt>
      <trkpt lat="44.98531" lon="2.04401">
        <ele>438.5</ele>
        <time>2021-08-16T11:59:17Z</time>
      </trkpt>
      <trkpt lat="44.98529" lon="2.044">
        <ele>438.5</ele>
        <time>2021-08-16T11:59:18Z</time>
      </trkpt>
      <trkpt lat="44.98527" lon="2.04397">
        <ele>438.02</ele>
        <time>2021-08-16T11:59:19Z</time>
      </trkpt>
      <trkpt lat="44.98524" lon="2.04394">
        <ele>438.02</ele>
        <time>2021-08-16T11:59:20Z</time>
      </trkpt>
      <trkpt lat="44.98506" lon="2.04377">
        <ele>437.06</ele>
        <time>2021-08-16T11:59:27Z</time>
      </trkpt>
      <trkpt lat="44.98487" lon="2.04361">
        <ele>437.06</ele>
        <time>2021-08-16T11:59:34Z</time>
      </trkpt>
      <trkpt lat="44.98473" lon="2.04331">
        <ele>437.06</ele>
        <time>2021-08-16T11:59:41Z</time>
      </trkpt>
      <trkpt lat="44.9846" lon="2.04301">
        <ele>436.58</ele>
        <time>2021-08-16T11:59:48Z</time>
      </trkpt>
      <trkpt lat="44.98453" lon="2.04287">
        <ele>436.58</ele>
        <time>2021-08-16T11:59:51Z</time>
      </trkpt>
      <trkpt lat="44.98452" lon="2.04281">
        <ele>436.58</ele>
        <time>2021-08-16T11:59:52Z</time>
      </trkpt>
      <trkpt lat="44.98445" lon="2.04251">
        <ele>436.58</ele>
        <time>2021-08-16T11:59:58Z</time>
      </trkpt>
      <trkpt lat="44.98432" lon="2.04234">
        <ele>436.58</ele>
        <time>2021-08-16T12:00:03Z</time>
      </trkpt>
      <trkpt lat="44.98423" lon="2.04212">
        <ele>436.58</ele>
        <time>2021-08-16T12:00:08Z</time>
      </trkpt>
      <trkpt lat="44.98419" lon="2.04183">
        <ele>436.58</ele>
        <time>2021-08-16T12:00:14Z</time>
      </trkpt>
      <trkpt lat="44.98425" lon="2.04153">
        <ele>436.1</ele>
        <time>2021-08-16T12:00:20Z</time>
      </trkpt>
      <trkpt lat="44.98422" lon="2.04127">
        <ele>436.1</ele>
        <time>2021-08-16T12:00:25Z</time>
      </trkpt>
      <trkpt lat="44.9842" lon="2.04124">
        <ele>436.1</ele>
        <time>2021-08-16T12:00:26Z</time>
      </trkpt>
      <trkpt lat="44.98418" lon="2.04122">
        <ele>436.1</ele>
        <time>2021-08-16T12:00:27Z</time>
      </trkpt>
      <trkpt lat="44.98415" lon="2.0412">
        <ele>436.1</ele>
        <time>2021-08-16T12:00:28Z</time>
      </trkpt>
      <trkpt lat="44.98413" lon="2.04119">
        <ele>436.1</ele>
        <time>2021-08-16T12:00:29Z</time>
      </trkpt>
      <trkpt lat="44.9841" lon="2.04117">
        <ele>436.1</ele>
        <time>2021-08-16T12:00:30Z</time>
      </trkpt>
      <trkpt lat="44.98408" lon="2.04116">
        <ele>436.1</ele>
        <time>2021-08-16T12:00:31Z</time>
      </trkpt>
      <trkpt lat="44.98406" lon="2.04113">
        <ele>436.1</ele>
        <time>2021-08-16T12:00:32Z</time>
      </trkpt>
      <trkpt lat="44.98404" lon="2.04109">
        <ele>436.1</ele>
        <time>2021-08-16T12:00:33Z</time>
      </trkpt>
      <trkpt lat="44.98402" lon="2.04104">
        <ele>436.1</ele>
        <time>2021-08-16T12:00:34Z</time>
      </trkpt>
      <trkpt lat="44.984" lon="2.04099">
        <ele>436.1</ele>
        <time>2021-08-16T12:00:35Z</time>
      </trkpt>
      <trkpt lat="44.98383" lon="2.04077">
        <ele>435.61</ele>
        <time>2021-08-16T12:00:41Z</time>
      </trkpt>
      <trkpt lat="44.98365" lon="2.04052">
        <ele>435.61</ele>
        <time>2021-08-16T12:00:47Z</time>
      </trkpt>
      <trkpt lat="44.9836" lon="2.0402">
        <ele>435.61</ele>
        <time>2021-08-16T12:00:53Z</time>
      </trkpt>
      <trkpt lat="44.98369" lon="2.03989">
        <ele>435.61</ele>
        <time>2021-08-16T12:00:59Z</time>
      </trkpt>
      <trkpt lat="44.98383" lon="2.0396">
        <ele>435.13</ele>
        <time>2021-08-16T12:01:06Z</time>
      </trkpt>
      <trkpt lat="44.98398" lon="2.03941">
        <ele>435.13</ele>
        <time>2021-08-16T12:01:12Z</time>
      </trkpt>
      <trkpt lat="44.98418" lon="2.03918">
        <ele>435.13</ele>
        <time>2021-08-16T12:01:19Z</time>
      </trkpt>
      <trkpt lat="44.98437" lon="2.03885">
        <ele>435.13</ele>
        <time>2021-08-16T12:01:27Z</time>
      </trkpt>
      <trkpt lat="44.98445" lon="2.03868">
        <ele>435.13</ele>
        <time>2021-08-16T12:01:32Z</time>
      </trkpt>
      <trkpt lat="44.9845" lon="2.03842">
        <ele>435.13</ele>
        <time>2021-08-16T12:01:37Z</time>
      </trkpt>
      <trkpt lat="44.98446" lon="2.03804">
        <ele>434.65</ele>
        <time>2021-08-16T12:01:44Z</time>
      </trkpt>
      <trkpt lat="44.98434" lon="2.03795">
        <ele>434.65</ele>
        <time>2021-08-16T12:01:48Z</time>
      </trkpt>
      <trkpt lat="44.98415" lon="2.03786">
        <ele>434.65</ele>
        <time>2021-08-16T12:01:54Z</time>
      </trkpt>
      <trkpt lat="44.98395" lon="2.03781">
        <ele>434.65</ele>
        <time>2021-08-16T12:02:00Z</time>
      </trkpt>
      <trkpt lat="44.98372" lon="2.03764">
        <ele>434.17</ele>
        <time>2021-08-16T12:02:07Z</time>
      </trkpt>
      <trkpt lat="44.98366" lon="2.0374">
        <ele>434.17</ele>
        <time>2021-08-16T12:02:12Z</time>
      </trkpt>
      <trkpt lat="44.98364" lon="2.03698">
        <ele>434.17</ele>
        <time>2021-08-16T12:02:19Z</time>
      </trkpt>
      <trkpt lat="44.98368" lon="2.03663">
        <ele>434.17</ele>
        <time>2021-08-16T12:02:25Z</time>
      </trkpt>
      <trkpt lat="44.98369" lon="2.03657">
        <ele>434.17</ele>
        <time>2021-08-16T12:02:26Z</time>
      </trkpt>
      <trkpt lat="44.9837" lon="2.0365">
        <ele>434.17</ele>
        <time>2021-08-16T12:02:27Z</time>
      </trkpt>
      <trkpt lat="44.98382" lon="2.03608">
        <ele>433.69</ele>
        <time>2021-08-16T12:02:35Z</time>
      </trkpt>
      <trkpt lat="44.9839" lon="2.03586">
        <ele>433.69</ele>
        <time>2021-08-16T12:02:40Z</time>
      </trkpt>
      <trkpt lat="44.98393" lon="2.03584">
        <ele>433.69</ele>
        <time>2021-08-16T12:02:41Z</time>
      </trkpt>
      <trkpt lat="44.98396" lon="2.03582">
        <ele>433.69</ele>
        <time>2021-08-16T12:02:42Z</time>
      </trkpt>
      <trkpt lat="44.98398" lon="2.0358">
        <ele>433.69</ele>
        <time>2021-08-16T12:02:43Z</time>
      </trkpt>
      <trkpt lat="44.984" lon="2.03578">
        <ele>433.69</ele>
        <time>2021-08-16T12:02:48Z</time>
      </trkpt>
      <trkpt lat="44.98401" lon="2.03574">
        <ele>433.69</ele>
        <time>2021-08-16T12:03:07Z</time>
      </trkpt>
      <trkpt lat="44.984" lon="2.03575">
        <ele>433.21</ele>
        <time>2021-08-16T12:03:30Z</time>
      </trkpt>
      <trkpt lat="44.98404" lon="2.03569">
        <ele>433.21</ele>
        <time>2021-08-16T12:03:38Z</time>
      </trkpt>
      <trkpt lat="44.98405" lon="2.03566">
        <ele>433.21</ele>
        <time>2021-08-16T12:03:39Z</time>
      </trkpt>
      <trkpt lat="44.98407" lon="2.03564">
        <ele>433.21</ele>
        <time>2021-08-16T12:03:40Z</time>
      </trkpt>
      <trkpt lat="44.98408" lon="2.03561">
        <ele>433.21</ele>
        <time>2021-08-16T12:03:41Z</time>
      </trkpt>
      <trkpt lat="44.9841" lon="2.03557">
        <ele>433.21</ele>
        <time>2021-08-16T12:03:42Z</time>
      </trkpt>
      <trkpt lat="44.98411" lon="2.03553">
        <ele>433.21</ele>
        <time>2021-08-16T12:03:43Z</time>
      </trkpt>
      <trkpt lat="44.98416" lon="2.03529">
        <ele>433.21</ele>
        <time>2021-08-16T12:03:48Z</time>
      </trkpt>
      <trkpt lat="44.98431" lon="2.03511">
        <ele>433.21</ele>
        <time>2021-08-16T12:03:54Z</time>
      </trkpt>
      <trkpt lat="44.98446" lon="2.03494">
        <ele>434.17</ele>
        <time>2021-08-16T12:04:01Z</time>
      </trkpt>
      <trkpt lat="44.98455" lon="2.03477">
        <ele>434.17</ele>
        <time>2021-08-16T12:04:07Z</time>
      </trkpt>
      <trkpt lat="44.98458" lon="2.03438">
        <ele>434.17</ele>
        <time>2021-08-16T12:04:16Z</time>
      </trkpt>
      <trkpt lat="44.98457" lon="2.03426">
        <ele>432.25</ele>
        <time>2021-08-16T12:04:18Z</time>
      </trkpt>
      <trkpt lat="44.98457" lon="2.03419">
        <ele>431.77</ele>
        <time>2021-08-16T12:04:19Z</time>
      </trkpt>
      <trkpt lat="44.98458" lon="2.03411">
        <ele>430.81</ele>
        <time>2021-08-16T12:04:20Z</time>
      </trkpt>
      <trkpt lat="44.98461" lon="2.03404">
        <ele>430.33</ele>
        <time>2021-08-16T12:04:21Z</time>
      </trkpt>
      <trkpt lat="44.98465" lon="2.03396">
        <ele>430.33</ele>
        <time>2021-08-16T12:04:22Z</time>
      </trkpt>
      <trkpt lat="44.9847" lon="2.03388">
        <ele>429.37</ele>
        <time>2021-08-16T12:04:23Z</time>
      </trkpt>
      <trkpt lat="44.98475" lon="2.0338">
        <ele>428.4</ele>
        <time>2021-08-16T12:04:24Z</time>
      </trkpt>
      <trkpt lat="44.98491" lon="2.03352">
        <ele>424.56</ele>
        <time>2021-08-16T12:04:27Z</time>
      </trkpt>
      <trkpt lat="44.98507" lon="2.03319">
        <ele>421.19</ele>
        <time>2021-08-16T12:04:30Z</time>
      </trkpt>
      <trkpt lat="44.98526" lon="2.03287">
        <ele>418.31</ele>
        <time>2021-08-16T12:04:33Z</time>
      </trkpt>
      <trkpt lat="44.98549" lon="2.03258">
        <ele>414.95</ele>
        <time>2021-08-16T12:04:36Z</time>
      </trkpt>
      <trkpt lat="44.98574" lon="2.03229">
        <ele>412.06</ele>
        <time>2021-08-16T12:04:39Z</time>
      </trkpt>
      <trkpt lat="44.98598" lon="2.03198">
        <ele>408.7</ele>
        <time>2021-08-16T12:04:42Z</time>
      </trkpt>
      <trkpt lat="44.98631" lon="2.03157">
        <ele>404.85</ele>
        <time>2021-08-16T12:04:46Z</time>
      </trkpt>
      <trkpt lat="44.98664" lon="2.03118">
        <ele>401.97</ele>
        <time>2021-08-16T12:04:50Z</time>
      </trkpt>
      <trkpt lat="44.98672" lon="2.0311">
        <ele>401.97</ele>
        <time>2021-08-16T12:04:51Z</time>
      </trkpt>
      <trkpt lat="44.98733" lon="2.03063">
        <ele>399.57</ele>
        <time>2021-08-16T12:04:58Z</time>
      </trkpt>
      <trkpt lat="44.98757" lon="2.03043">
        <ele>398.12</ele>
        <time>2021-08-16T12:05:01Z</time>
      </trkpt>
      <trkpt lat="44.98773" lon="2.03033">
        <ele>396.68</ele>
        <time>2021-08-16T12:05:03Z</time>
      </trkpt>
      <trkpt lat="44.9878" lon="2.03025">
        <ele>395.72</ele>
        <time>2021-08-16T12:05:04Z</time>
      </trkpt>
      <trkpt lat="44.98803" lon="2.02996">
        <ele>392.36</ele>
        <time>2021-08-16T12:05:07Z</time>
      </trkpt>
      <trkpt lat="44.98824" lon="2.02969">
        <ele>389.47</ele>
        <time>2021-08-16T12:05:10Z</time>
      </trkpt>
      <trkpt lat="44.98849" lon="2.02936">
        <ele>385.15</ele>
        <time>2021-08-16T12:05:14Z</time>
      </trkpt>
      <trkpt lat="44.98868" lon="2.02911">
        <ele>383.22</ele>
        <time>2021-08-16T12:05:18Z</time>
      </trkpt>
      <trkpt lat="44.98871" lon="2.02905">
        <ele>382.26</ele>
        <time>2021-08-16T12:05:19Z</time>
      </trkpt>
      <trkpt lat="44.98871" lon="2.02899">
        <ele>382.26</ele>
        <time>2021-08-16T12:05:20Z</time>
      </trkpt>
      <trkpt lat="44.98869" lon="2.02894">
        <ele>381.78</ele>
        <time>2021-08-16T12:05:21Z</time>
      </trkpt>
      <trkpt lat="44.98865" lon="2.02893">
        <ele>381.3</ele>
        <time>2021-08-16T12:05:22Z</time>
      </trkpt>
      <trkpt lat="44.98861" lon="2.02894">
        <ele>380.34</ele>
        <time>2021-08-16T12:05:23Z</time>
      </trkpt>
      <trkpt lat="44.98858" lon="2.02898">
        <ele>379.86</ele>
        <time>2021-08-16T12:05:24Z</time>
      </trkpt>
      <trkpt lat="44.98854" lon="2.02904">
        <ele>379.38</ele>
        <time>2021-08-16T12:05:25Z</time>
      </trkpt>
      <trkpt lat="44.98847" lon="2.02916">
        <ele>377.94</ele>
        <time>2021-08-16T12:05:27Z</time>
      </trkpt>
      <trkpt lat="44.98842" lon="2.02921">
        <ele>377.45</ele>
        <time>2021-08-16T12:05:28Z</time>
      </trkpt>
      <trkpt lat="44.98838" lon="2.02925">
        <ele>376.97</ele>
        <time>2021-08-16T12:05:29Z</time>
      </trkpt>
      <trkpt lat="44.98833" lon="2.02929">
        <ele>376.01</ele>
        <time>2021-08-16T12:05:30Z</time>
      </trkpt>
      <trkpt lat="44.98828" lon="2.02932">
        <ele>375.05</ele>
        <time>2021-08-16T12:05:31Z</time>
      </trkpt>
      <trkpt lat="44.98822" lon="2.02935">
        <ele>374.57</ele>
        <time>2021-08-16T12:05:32Z</time>
      </trkpt>
      <trkpt lat="44.98816" lon="2.02936">
        <ele>373.61</ele>
        <time>2021-08-16T12:05:33Z</time>
      </trkpt>
      <trkpt lat="44.98811" lon="2.02936">
        <ele>373.13</ele>
        <time>2021-08-16T12:05:34Z</time>
      </trkpt>
      <trkpt lat="44.98805" lon="2.02936">
        <ele>372.17</ele>
        <time>2021-08-16T12:05:35Z</time>
      </trkpt>
      <trkpt lat="44.98799" lon="2.02935">
        <ele>371.69</ele>
        <time>2021-08-16T12:05:36Z</time>
      </trkpt>
      <trkpt lat="44.98793" lon="2.02933">
        <ele>371.21</ele>
        <time>2021-08-16T12:05:37Z</time>
      </trkpt>
      <trkpt lat="44.98783" lon="2.0293">
        <ele>369.28</ele>
        <time>2021-08-16T12:05:39Z</time>
      </trkpt>
      <trkpt lat="44.98778" lon="2.02931">
        <ele>369.28</ele>
        <time>2021-08-16T12:05:40Z</time>
      </trkpt>
      <trkpt lat="44.98761" lon="2.02929">
        <ele>369.28</ele>
        <time>2021-08-16T12:05:45Z</time>
      </trkpt>
      <trkpt lat="44.98749" lon="2.02923">
        <ele>368.32</ele>
        <time>2021-08-16T12:05:49Z</time>
      </trkpt>
      <trkpt lat="44.98746" lon="2.02921">
        <ele>368.32</ele>
        <time>2021-08-16T12:05:50Z</time>
      </trkpt>
      <trkpt lat="44.98744" lon="2.02919">
        <ele>368.32</ele>
        <time>2021-08-16T12:05:51Z</time>
      </trkpt>
      <trkpt lat="44.98742" lon="2.02918">
        <ele>368.32</ele>
        <time>2021-08-16T12:05:52Z</time>
      </trkpt>
      <trkpt lat="44.9874" lon="2.02917">
        <ele>369.76</ele>
        <time>2021-08-16T12:05:53Z</time>
      </trkpt>
      <trkpt lat="44.98738" lon="2.02917">
        <ele>369.76</ele>
        <time>2021-08-16T12:05:54Z</time>
      </trkpt>
      <trkpt lat="44.98737" lon="2.02917">
        <ele>369.76</ele>
        <time>2021-08-16T12:05:55Z</time>
      </trkpt>
      <trkpt lat="44.98726" lon="2.02919">
        <ele>370.24</ele>
        <time>2021-08-16T12:06:01Z</time>
      </trkpt>
      <trkpt lat="44.98724" lon="2.0292">
        <ele>370.24</ele>
        <time>2021-08-16T12:06:02Z</time>
      </trkpt>
      <trkpt lat="44.98722" lon="2.02921">
        <ele>370.24</ele>
        <time>2021-08-16T12:06:03Z</time>
      </trkpt>
      <trkpt lat="44.98711" lon="2.02925">
        <ele>370.73</ele>
        <time>2021-08-16T12:06:10Z</time>
      </trkpt>
      <trkpt lat="44.98697" lon="2.02931">
        <ele>371.69</ele>
        <time>2021-08-16T12:06:18Z</time>
      </trkpt>
      <trkpt lat="44.98685" lon="2.02935">
        <ele>372.65</ele>
        <time>2021-08-16T12:06:25Z</time>
      </trkpt>
      <trkpt lat="44.98669" lon="2.02941">
        <ele>373.13</ele>
        <time>2021-08-16T12:06:34Z</time>
      </trkpt>
      <trkpt lat="44.9866" lon="2.02944">
        <ele>373.61</ele>
        <time>2021-08-16T12:06:40Z</time>
      </trkpt>
      <trkpt lat="44.98659" lon="2.02944">
        <ele>374.09</ele>
        <time>2021-08-16T12:06:41Z</time>
      </trkpt>
      <trkpt lat="44.98658" lon="2.02944">
        <ele>374.09</ele>
        <time>2021-08-16T12:06:42Z</time>
      </trkpt>
      <trkpt lat="44.98656" lon="2.02944">
        <ele>374.09</ele>
        <time>2021-08-16T12:06:43Z</time>
      </trkpt>
      <trkpt lat="44.98655" lon="2.02945">
        <ele>374.09</ele>
        <time>2021-08-16T12:06:44Z</time>
      </trkpt>
      <trkpt lat="44.98654" lon="2.02945">
        <ele>374.57</ele>
        <time>2021-08-16T12:06:45Z</time>
      </trkpt>
      <trkpt lat="44.98653" lon="2.02945">
        <ele>374.57</ele>
        <time>2021-08-16T12:06:46Z</time>
      </trkpt>
      <trkpt lat="44.98651" lon="2.02946">
        <ele>374.57</ele>
        <time>2021-08-16T12:06:47Z</time>
      </trkpt>
      <trkpt lat="44.9865" lon="2.02946">
        <ele>374.57</ele>
        <time>2021-08-16T12:06:48Z</time>
      </trkpt>
      <trkpt lat="44.98636" lon="2.02949">
        <ele>376.01</ele>
        <time>2021-08-16T12:06:57Z</time>
      </trkpt>
      <trkpt lat="44.9863" lon="2.02949">
        <ele>376.01</ele>
        <time>2021-08-16T12:07:01Z</time>
      </trkpt>
      <trkpt lat="44.98628" lon="2.0295">
        <ele>376.49</ele>
        <time>2021-08-16T12:07:02Z</time>
      </trkpt>
      <trkpt lat="44.98626" lon="2.02951">
        <ele>376.49</ele>
        <time>2021-08-16T12:07:03Z</time>
      </trkpt>
      <trkpt lat="44.98625" lon="2.02952">
        <ele>376.49</ele>
        <time>2021-08-16T12:07:04Z</time>
      </trkpt>
      <trkpt lat="44.98623" lon="2.02953">
        <ele>376.49</ele>
        <time>2021-08-16T12:07:05Z</time>
      </trkpt>
      <trkpt lat="44.98621" lon="2.02953">
        <ele>376.49</ele>
        <time>2021-08-16T12:07:06Z</time>
      </trkpt>
      <trkpt lat="44.9862" lon="2.02954">
        <ele>376.49</ele>
        <time>2021-08-16T12:07:07Z</time>
      </trkpt>
      <trkpt lat="44.98618" lon="2.02955">
        <ele>376.97</ele>
        <time>2021-08-16T12:07:08Z</time>
      </trkpt>
      <trkpt lat="44.98617" lon="2.02954">
        <ele>376.97</ele>
        <time>2021-08-16T12:07:09Z</time>
      </trkpt>
      <trkpt lat="44.98615" lon="2.02954">
        <ele>376.97</ele>
        <time>2021-08-16T12:07:10Z</time>
      </trkpt>
      <trkpt lat="44.98613" lon="2.02955">
        <ele>376.97</ele>
        <time>2021-08-16T12:07:11Z</time>
      </trkpt>
      <trkpt lat="44.98597" lon="2.02958">
        <ele>378.42</ele>
        <time>2021-08-16T12:07:20Z</time>
      </trkpt>
      <trkpt lat="44.98583" lon="2.02964">
        <ele>378.9</ele>
        <time>2021-08-16T12:07:29Z</time>
      </trkpt>
      <trkpt lat="44.98569" lon="2.02967">
        <ele>380.34</ele>
        <time>2021-08-16T12:07:38Z</time>
      </trkpt>
      <trkpt lat="44.98553" lon="2.02971">
        <ele>381.3</ele>
        <time>2021-08-16T12:07:47Z</time>
      </trkpt>
      <trkpt lat="44.98539" lon="2.02974">
        <ele>382.26</ele>
        <time>2021-08-16T12:07:55Z</time>
      </trkpt>
      <trkpt lat="44.98525" lon="2.02977">
        <ele>382.74</ele>
        <time>2021-08-16T12:08:03Z</time>
      </trkpt>
      <trkpt lat="44.98522" lon="2.02978">
        <ele>383.22</ele>
        <time>2021-08-16T12:08:05Z</time>
      </trkpt>
      <trkpt lat="44.9852" lon="2.02979">
        <ele>383.22</ele>
        <time>2021-08-16T12:08:06Z</time>
      </trkpt>
      <trkpt lat="44.98519" lon="2.0298">
        <ele>383.22</ele>
        <time>2021-08-16T12:08:07Z</time>
      </trkpt>
      <trkpt lat="44.98517" lon="2.02981">
        <ele>383.22</ele>
        <time>2021-08-16T12:08:08Z</time>
      </trkpt>
      <trkpt lat="44.98515" lon="2.02982">
        <ele>384.18</ele>
        <time>2021-08-16T12:08:09Z</time>
      </trkpt>
      <trkpt lat="44.98504" lon="2.02988">
        <ele>384.66</ele>
        <time>2021-08-16T12:08:16Z</time>
      </trkpt>
      <trkpt lat="44.9849" lon="2.02993">
        <ele>385.63</ele>
        <time>2021-08-16T12:08:24Z</time>
      </trkpt>
      <trkpt lat="44.98487" lon="2.02995">
        <ele>386.11</ele>
        <time>2021-08-16T12:08:26Z</time>
      </trkpt>
      <trkpt lat="44.98485" lon="2.02997">
        <ele>386.11</ele>
        <time>2021-08-16T12:08:27Z</time>
      </trkpt>
      <trkpt lat="44.98484" lon="2.02998">
        <ele>386.11</ele>
        <time>2021-08-16T12:08:28Z</time>
      </trkpt>
      <trkpt lat="44.98482" lon="2.02998">
        <ele>386.11</ele>
        <time>2021-08-16T12:08:29Z</time>
      </trkpt>
      <trkpt lat="44.9848" lon="2.02999">
        <ele>386.59</ele>
        <time>2021-08-16T12:08:30Z</time>
      </trkpt>
      <trkpt lat="44.98479" lon="2.03">
        <ele>386.59</ele>
        <time>2021-08-16T12:08:31Z</time>
      </trkpt>
      <trkpt lat="44.98466" lon="2.03006">
        <ele>388.03</ele>
        <time>2021-08-16T12:08:39Z</time>
      </trkpt>
      <trkpt lat="44.98453" lon="2.03011">
        <ele>388.51</ele>
        <time>2021-08-16T12:08:46Z</time>
      </trkpt>
      <trkpt lat="44.9844" lon="2.03015">
        <ele>389.47</ele>
        <time>2021-08-16T12:08:54Z</time>
      </trkpt>
      <trkpt lat="44.98425" lon="2.0301">
        <ele>390.43</ele>
        <time>2021-08-16T12:09:02Z</time>
      </trkpt>
      <trkpt lat="44.98421" lon="2.03006">
        <ele>391.39</ele>
        <time>2021-08-16T12:09:04Z</time>
      </trkpt>
      <trkpt lat="44.98419" lon="2.03004">
        <ele>391.39</ele>
        <time>2021-08-16T12:09:05Z</time>
      </trkpt>
      <trkpt lat="44.98408" lon="2.02995">
        <ele>391.87</ele>
        <time>2021-08-16T12:09:10Z</time>
      </trkpt>
      <trkpt lat="44.98406" lon="2.02994">
        <ele>391.87</ele>
        <time>2021-08-16T12:09:11Z</time>
      </trkpt>
      <trkpt lat="44.98405" lon="2.02992">
        <ele>392.36</ele>
        <time>2021-08-16T12:09:12Z</time>
      </trkpt>
      <trkpt lat="44.98404" lon="2.02991">
        <ele>392.36</ele>
        <time>2021-08-16T12:09:13Z</time>
      </trkpt>
      <trkpt lat="44.98402" lon="2.02987">
        <ele>392.36</ele>
        <time>2021-08-16T12:09:15Z</time>
      </trkpt>
      <trkpt lat="44.98389" lon="2.02971">
        <ele>393.8</ele>
        <time>2021-08-16T12:09:24Z</time>
      </trkpt>
      <trkpt lat="44.98377" lon="2.02964">
        <ele>395.24</ele>
        <time>2021-08-16T12:09:32Z</time>
      </trkpt>
      <trkpt lat="44.98371" lon="2.02965">
        <ele>395.24</ele>
        <time>2021-08-16T12:09:40Z</time>
      </trkpt>
      <trkpt lat="44.98367" lon="2.02964">
        <ele>395.24</ele>
        <time>2021-08-16T12:09:53Z</time>
      </trkpt>
      <trkpt lat="44.98366" lon="2.02964">
        <ele>395.24</ele>
        <time>2021-08-16T12:10:04Z</time>
      </trkpt>
      <trkpt lat="44.98365" lon="2.02963">
        <ele>394.76</ele>
        <time>2021-08-16T12:10:14Z</time>
      </trkpt>
      <trkpt lat="44.98361" lon="2.02962">
        <ele>394.76</ele>
        <time>2021-08-16T12:10:18Z</time>
      </trkpt>
      <trkpt lat="44.98352" lon="2.02958">
        <ele>395.72</ele>
        <time>2021-08-16T12:10:25Z</time>
      </trkpt>
      <trkpt lat="44.9835" lon="2.02956">
        <ele>395.72</ele>
        <time>2021-08-16T12:10:27Z</time>
      </trkpt>
      <trkpt lat="44.98344" lon="2.02954">
        <ele>396.2</ele>
        <time>2021-08-16T12:10:31Z</time>
      </trkpt>
      <trkpt lat="44.9833" lon="2.02946">
        <ele>397.64</ele>
        <time>2021-08-16T12:10:40Z</time>
      </trkpt>
      <trkpt lat="44.98312" lon="2.02942">
        <ele>398.6</ele>
        <time>2021-08-16T12:10:49Z</time>
      </trkpt>
      <trkpt lat="44.98311" lon="2.02941">
        <ele>399.08</ele>
        <time>2021-08-16T12:10:50Z</time>
      </trkpt>
      <trkpt lat="44.98305" lon="2.02935">
        <ele>399.57</ele>
        <time>2021-08-16T12:10:54Z</time>
      </trkpt>
      <trkpt lat="44.98291" lon="2.02917">
        <ele>400.53</ele>
        <time>2021-08-16T12:11:03Z</time>
      </trkpt>
      <trkpt lat="44.9828" lon="2.02891">
        <ele>402.45</ele>
        <time>2021-08-16T12:11:14Z</time>
      </trkpt>
      <trkpt lat="44.98276" lon="2.02873">
        <ele>403.41</ele>
        <time>2021-08-16T12:11:21Z</time>
      </trkpt>
      <trkpt lat="44.9827" lon="2.02854">
        <ele>403.89</ele>
        <time>2021-08-16T12:11:29Z</time>
      </trkpt>
      <trkpt lat="44.98266" lon="2.02836">
        <ele>404.85</ele>
        <time>2021-08-16T12:11:37Z</time>
      </trkpt>
      <trkpt lat="44.98265" lon="2.02818">
        <ele>406.29</ele>
        <time>2021-08-16T12:11:46Z</time>
      </trkpt>
      <trkpt lat="44.98266" lon="2.02816">
        <ele>406.29</ele>
        <time>2021-08-16T12:11:47Z</time>
      </trkpt>
      <trkpt lat="44.98272" lon="2.02799">
        <ele>407.26</ele>
        <time>2021-08-16T12:11:55Z</time>
      </trkpt>
      <trkpt lat="44.98274" lon="2.02795">
        <ele>407.74</ele>
        <time>2021-08-16T12:11:57Z</time>
      </trkpt>
      <trkpt lat="44.98279" lon="2.0278">
        <ele>408.22</ele>
        <time>2021-08-16T12:12:04Z</time>
      </trkpt>
      <trkpt lat="44.98287" lon="2.02763">
        <ele>409.18</ele>
        <time>2021-08-16T12:12:11Z</time>
      </trkpt>
      <trkpt lat="44.9829" lon="2.02758">
        <ele>409.66</ele>
        <time>2021-08-16T12:12:14Z</time>
      </trkpt>
      <trkpt lat="44.98302" lon="2.02746">
        <ele>411.1</ele>
        <time>2021-08-16T12:12:23Z</time>
      </trkpt>
      <trkpt lat="44.9831" lon="2.02737">
        <ele>411.58</ele>
        <time>2021-08-16T12:12:30Z</time>
      </trkpt>
      <trkpt lat="44.98315" lon="2.02727">
        <ele>412.54</ele>
        <time>2021-08-16T12:12:35Z</time>
      </trkpt>
      <trkpt lat="44.98318" lon="2.02707">
        <ele>413.98</ele>
        <time>2021-08-16T12:12:44Z</time>
      </trkpt>
      <trkpt lat="44.98316" lon="2.02689">
        <ele>414.95</ele>
        <time>2021-08-16T12:12:52Z</time>
      </trkpt>
      <trkpt lat="44.98316" lon="2.02675">
        <ele>415.91</ele>
        <time>2021-08-16T12:12:58Z</time>
      </trkpt>
      <trkpt lat="44.98314" lon="2.02659">
        <ele>416.39</ele>
        <time>2021-08-16T12:13:05Z</time>
      </trkpt>
      <trkpt lat="44.98314" lon="2.0264">
        <ele>417.35</ele>
        <time>2021-08-16T12:13:13Z</time>
      </trkpt>
      <trkpt lat="44.98316" lon="2.02618">
        <ele>418.79</ele>
        <time>2021-08-16T12:13:21Z</time>
      </trkpt>
      <trkpt lat="44.98317" lon="2.0261">
        <ele>418.79</ele>
        <time>2021-08-16T12:13:24Z</time>
      </trkpt>
      <trkpt lat="44.9832" lon="2.02599">
        <ele>419.27</ele>
        <time>2021-08-16T12:13:28Z</time>
      </trkpt>
      <trkpt lat="44.98322" lon="2.02595">
        <ele>420.23</ele>
        <time>2021-08-16T12:13:31Z</time>
      </trkpt>
      <trkpt lat="44.98326" lon="2.02589">
        <ele>420.71</ele>
        <time>2021-08-16T12:13:35Z</time>
      </trkpt>
      <trkpt lat="44.98331" lon="2.02568">
        <ele>422.16</ele>
        <time>2021-08-16T12:13:45Z</time>
      </trkpt>
      <trkpt lat="44.98336" lon="2.02555">
        <ele>424.08</ele>
        <time>2021-08-16T12:13:54Z</time>
      </trkpt>
      <trkpt lat="44.98341" lon="2.0254">
        <ele>426</ele>
        <time>2021-08-16T12:14:04Z</time>
      </trkpt>
      <trkpt lat="44.98342" lon="2.02538">
        <ele>426</ele>
        <time>2021-08-16T12:14:05Z</time>
      </trkpt>
      <trkpt lat="44.98344" lon="2.02514">
        <ele>428.4</ele>
        <time>2021-08-16T12:14:16Z</time>
      </trkpt>
      <trkpt lat="44.98342" lon="2.02491">
        <ele>429.37</ele>
        <time>2021-08-16T12:14:25Z</time>
      </trkpt>
      <trkpt lat="44.98339" lon="2.02467">
        <ele>429.85</ele>
        <time>2021-08-16T12:14:34Z</time>
      </trkpt>
      <trkpt lat="44.98338" lon="2.02445">
        <ele>430.33</ele>
        <time>2021-08-16T12:14:42Z</time>
      </trkpt>
      <trkpt lat="44.98338" lon="2.02426">
        <ele>431.29</ele>
        <time>2021-08-16T12:14:49Z</time>
      </trkpt>
      <trkpt lat="44.9834" lon="2.02405">
        <ele>433.21</ele>
        <time>2021-08-16T12:14:57Z</time>
      </trkpt>
      <trkpt lat="44.98342" lon="2.02394">
        <ele>434.17</ele>
        <time>2021-08-16T12:15:02Z</time>
      </trkpt>
      <trkpt lat="44.98343" lon="2.0239">
        <ele>434.65</ele>
        <time>2021-08-16T12:15:04Z</time>
      </trkpt>
      <trkpt lat="44.98346" lon="2.02369">
        <ele>436.1</ele>
        <time>2021-08-16T12:15:12Z</time>
      </trkpt>
      <trkpt lat="44.98349" lon="2.02345">
        <ele>437.06</ele>
        <time>2021-08-16T12:15:20Z</time>
      </trkpt>
      <trkpt lat="44.98355" lon="2.02328">
        <ele>438.5</ele>
        <time>2021-08-16T12:15:28Z</time>
      </trkpt>
      <trkpt lat="44.98361" lon="2.02314">
        <ele>439.94</ele>
        <time>2021-08-16T12:15:36Z</time>
      </trkpt>
      <trkpt lat="44.98374" lon="2.02298">
        <ele>441.86</ele>
        <time>2021-08-16T12:15:47Z</time>
      </trkpt>
      <trkpt lat="44.98386" lon="2.02279">
        <ele>443.31</ele>
        <time>2021-08-16T12:15:56Z</time>
      </trkpt>
      <trkpt lat="44.98395" lon="2.02263">
        <ele>443.79</ele>
        <time>2021-08-16T12:16:02Z</time>
      </trkpt>
      <trkpt lat="44.98404" lon="2.0224">
        <ele>445.23</ele>
        <time>2021-08-16T12:16:10Z</time>
      </trkpt>
      <trkpt lat="44.98413" lon="2.02222">
        <ele>445.23</ele>
        <time>2021-08-16T12:16:16Z</time>
      </trkpt>
      <trkpt lat="44.9842" lon="2.02202">
        <ele>445.71</ele>
        <time>2021-08-16T12:16:23Z</time>
      </trkpt>
      <trkpt lat="44.98431" lon="2.02178">
        <ele>446.19</ele>
        <time>2021-08-16T12:16:31Z</time>
      </trkpt>
      <trkpt lat="44.98435" lon="2.02165">
        <ele>446.19</ele>
        <time>2021-08-16T12:16:35Z</time>
      </trkpt>
      <trkpt lat="44.98435" lon="2.0216">
        <ele>446.67</ele>
        <time>2021-08-16T12:16:36Z</time>
      </trkpt>
      <trkpt lat="44.98436" lon="2.02155">
        <ele>446.67</ele>
        <time>2021-08-16T12:16:37Z</time>
      </trkpt>
      <trkpt lat="44.98435" lon="2.02151">
        <ele>446.67</ele>
        <time>2021-08-16T12:16:38Z</time>
      </trkpt>
      <trkpt lat="44.98435" lon="2.02148">
        <ele>446.67</ele>
        <time>2021-08-16T12:16:39Z</time>
      </trkpt>
      <trkpt lat="44.98433" lon="2.02146">
        <ele>446.67</ele>
        <time>2021-08-16T12:16:40Z</time>
      </trkpt>
      <trkpt lat="44.98431" lon="2.02146">
        <ele>446.67</ele>
        <time>2021-08-16T12:16:41Z</time>
      </trkpt>
      <trkpt lat="44.9843" lon="2.02146">
        <ele>446.67</ele>
        <time>2021-08-16T12:16:42Z</time>
      </trkpt>
      <trkpt lat="44.98428" lon="2.02146">
        <ele>446.67</ele>
        <time>2021-08-16T12:16:43Z</time>
      </trkpt>
      <trkpt lat="44.98426" lon="2.02148">
        <ele>446.67</ele>
        <time>2021-08-16T12:16:44Z</time>
      </trkpt>
      <trkpt lat="44.98424" lon="2.02149">
        <ele>446.67</ele>
        <time>2021-08-16T12:16:45Z</time>
      </trkpt>
      <trkpt lat="44.98413" lon="2.02158">
        <ele>447.15</ele>
        <time>2021-08-16T12:16:53Z</time>
      </trkpt>
      <trkpt lat="44.98403" lon="2.02165">
        <ele>448.59</ele>
        <time>2021-08-16T12:16:59Z</time>
      </trkpt>
      <trkpt lat="44.984" lon="2.02165">
        <ele>449.55</ele>
        <time>2021-08-16T12:17:03Z</time>
      </trkpt>
      <trkpt lat="44.98402" lon="2.02165">
        <ele>450.03</ele>
        <time>2021-08-16T12:17:08Z</time>
      </trkpt>
      <trkpt lat="44.98397" lon="2.02169">
        <ele>451.48</ele>
        <time>2021-08-16T12:17:16Z</time>
      </trkpt>
      <trkpt lat="44.98391" lon="2.02172">
        <ele>452.44</ele>
        <time>2021-08-16T12:17:23Z</time>
      </trkpt>
      <trkpt lat="44.9839" lon="2.02173">
        <ele>452.92</ele>
        <time>2021-08-16T12:17:24Z</time>
      </trkpt>
      <trkpt lat="44.98378" lon="2.02177">
        <ele>453.88</ele>
        <time>2021-08-16T12:17:33Z</time>
      </trkpt>
      <trkpt lat="44.98364" lon="2.0218">
        <ele>454.84</ele>
        <time>2021-08-16T12:17:42Z</time>
      </trkpt>
      <trkpt lat="44.98348" lon="2.02178">
        <ele>455.32</ele>
        <time>2021-08-16T12:17:50Z</time>
      </trkpt>
      <trkpt lat="44.98332" lon="2.02173">
        <ele>456.28</ele>
        <time>2021-08-16T12:17:58Z</time>
      </trkpt>
      <trkpt lat="44.98319" lon="2.02167">
        <ele>456.76</ele>
        <time>2021-08-16T12:18:04Z</time>
      </trkpt>
      <trkpt lat="44.98302" lon="2.02163">
        <ele>457.24</ele>
        <time>2021-08-16T12:18:11Z</time>
      </trkpt>
      <trkpt lat="44.98287" lon="2.02165">
        <ele>457.24</ele>
        <time>2021-08-16T12:18:18Z</time>
      </trkpt>
      <trkpt lat="44.98284" lon="2.02169">
        <ele>455.8</ele>
        <time>2021-08-16T12:18:19Z</time>
      </trkpt>
      <trkpt lat="44.9828" lon="2.02173">
        <ele>455.8</ele>
        <time>2021-08-16T12:18:20Z</time>
      </trkpt>
      <trkpt lat="44.98265" lon="2.02196">
        <ele>455.32</ele>
        <time>2021-08-16T12:18:26Z</time>
      </trkpt>
      <trkpt lat="44.98253" lon="2.02198">
        <ele>458.21</ele>
        <time>2021-08-16T12:18:33Z</time>
      </trkpt>
      <trkpt lat="44.98241" lon="2.02198">
        <ele>460.13</ele>
        <time>2021-08-16T12:18:40Z</time>
      </trkpt>
      <trkpt lat="44.98232" lon="2.02196">
        <ele>461.09</ele>
        <time>2021-08-16T12:18:44Z</time>
      </trkpt>
      <trkpt lat="44.98231" lon="2.02195">
        <ele>461.09</ele>
        <time>2021-08-16T12:18:45Z</time>
      </trkpt>
      <trkpt lat="44.98228" lon="2.02195">
        <ele>461.09</ele>
        <time>2021-08-16T12:18:46Z</time>
      </trkpt>
      <trkpt lat="44.98223" lon="2.02188">
        <ele>462.05</ele>
        <time>2021-08-16T12:18:51Z</time>
      </trkpt>
      <trkpt lat="44.98223" lon="2.02187">
        <ele>462.53</ele>
        <time>2021-08-16T12:18:56Z</time>
      </trkpt>
      <trkpt lat="44.98227" lon="2.02184">
        <ele>463.97</ele>
        <time>2021-08-16T12:19:05Z</time>
      </trkpt>
      <trkpt lat="44.9823" lon="2.02181">
        <ele>465.42</ele>
        <time>2021-08-16T12:19:14Z</time>
      </trkpt>
      <trkpt lat="44.98234" lon="2.02174">
        <ele>466.38</ele>
        <time>2021-08-16T12:19:24Z</time>
      </trkpt>
      <trkpt lat="44.98236" lon="2.02166">
        <ele>468.3</ele>
        <time>2021-08-16T12:19:33Z</time>
      </trkpt>
      <trkpt lat="44.98238" lon="2.02154">
        <ele>469.74</ele>
        <time>2021-08-16T12:19:43Z</time>
      </trkpt>
      <trkpt lat="44.98239" lon="2.02146">
        <ele>471.18</ele>
        <time>2021-08-16T12:19:51Z</time>
      </trkpt>
      <trkpt lat="44.9824" lon="2.02137">
        <ele>472.14</ele>
        <time>2021-08-16T12:19:59Z</time>
      </trkpt>
      <trkpt lat="44.98239" lon="2.02131">
        <ele>472.63</ele>
        <time>2021-08-16T12:20:06Z</time>
      </trkpt>
      <trkpt lat="44.98239" lon="2.02129">
        <ele>472.63</ele>
        <time>2021-08-16T12:20:08Z</time>
      </trkpt>
      <trkpt lat="44.98237" lon="2.02111">
        <ele>473.59</ele>
        <time>2021-08-16T12:20:17Z</time>
      </trkpt>
      <trkpt lat="44.98239" lon="2.02094">
        <ele>474.55</ele>
        <time>2021-08-16T12:20:26Z</time>
      </trkpt>
      <trkpt lat="44.98242" lon="2.02086">
        <ele>475.51</ele>
        <time>2021-08-16T12:20:33Z</time>
      </trkpt>
      <trkpt lat="44.98245" lon="2.02076">
        <ele>476.95</ele>
        <time>2021-08-16T12:20:41Z</time>
      </trkpt>
      <trkpt lat="44.98245" lon="2.02065">
        <ele>477.91</ele>
        <time>2021-08-16T12:20:49Z</time>
      </trkpt>
      <trkpt lat="44.98244" lon="2.02063">
        <ele>477.91</ele>
        <time>2021-08-16T12:20:52Z</time>
      </trkpt>
      <trkpt lat="44.98235" lon="2.02051">
        <ele>478.39</ele>
        <time>2021-08-16T12:21:00Z</time>
      </trkpt>
      <trkpt lat="44.98213" lon="2.02029">
        <ele>479.84</ele>
        <time>2021-08-16T12:21:10Z</time>
      </trkpt>
      <trkpt lat="44.98208" lon="2.0201">
        <ele>480.32</ele>
        <time>2021-08-16T12:21:17Z</time>
      </trkpt>
      <trkpt lat="44.98206" lon="2.01978">
        <ele>481.28</ele>
        <time>2021-08-16T12:21:26Z</time>
      </trkpt>
      <trkpt lat="44.98205" lon="2.01945">
        <ele>481.76</ele>
        <time>2021-08-16T12:21:36Z</time>
      </trkpt>
      <trkpt lat="44.98211" lon="2.01916">
        <ele>483.2</ele>
        <time>2021-08-16T12:21:47Z</time>
      </trkpt>
      <trkpt lat="44.98218" lon="2.01893">
        <ele>484.64</ele>
        <time>2021-08-16T12:21:57Z</time>
      </trkpt>
      <trkpt lat="44.9822" lon="2.01871">
        <ele>485.6</ele>
        <time>2021-08-16T12:22:05Z</time>
      </trkpt>
      <trkpt lat="44.98213" lon="2.01847">
        <ele>485.6</ele>
        <time>2021-08-16T12:22:12Z</time>
      </trkpt>
      <trkpt lat="44.98198" lon="2.01815">
        <ele>485.6</ele>
        <time>2021-08-16T12:22:21Z</time>
      </trkpt>
      <trkpt lat="44.9818" lon="2.01788">
        <ele>486.08</ele>
        <time>2021-08-16T12:22:30Z</time>
      </trkpt>
      <trkpt lat="44.98178" lon="2.01764">
        <ele>486.56</ele>
        <time>2021-08-16T12:22:36Z</time>
      </trkpt>
      <trkpt lat="44.98183" lon="2.01731">
        <ele>486.56</ele>
        <time>2021-08-16T12:22:43Z</time>
      </trkpt>
      <trkpt lat="44.98188" lon="2.01691">
        <ele>486.56</ele>
        <time>2021-08-16T12:22:51Z</time>
      </trkpt>
      <trkpt lat="44.98178" lon="2.01664">
        <ele>486.56</ele>
        <time>2021-08-16T12:22:57Z</time>
      </trkpt>
      <trkpt lat="44.98163" lon="2.01639">
        <ele>487.05</ele>
        <time>2021-08-16T12:23:04Z</time>
      </trkpt>
      <trkpt lat="44.98146" lon="2.01615">
        <ele>487.53</ele>
        <time>2021-08-16T12:23:11Z</time>
      </trkpt>
      <trkpt lat="44.98122" lon="2.01594">
        <ele>487.53</ele>
        <time>2021-08-16T12:23:19Z</time>
      </trkpt>
      <trkpt lat="44.98115" lon="2.0157">
        <ele>488.49</ele>
        <time>2021-08-16T12:23:25Z</time>
      </trkpt>
      <trkpt lat="44.98119" lon="2.01549">
        <ele>489.93</ele>
        <time>2021-08-16T12:23:32Z</time>
      </trkpt>
      <trkpt lat="44.98121" lon="2.01525">
        <ele>489.93</ele>
        <time>2021-08-16T12:23:38Z</time>
      </trkpt>
      <trkpt lat="44.98119" lon="2.01489">
        <ele>487.53</ele>
        <time>2021-08-16T12:23:45Z</time>
      </trkpt>
      <trkpt lat="44.98117" lon="2.01482">
        <ele>486.56</ele>
        <time>2021-08-16T12:23:46Z</time>
      </trkpt>
      <trkpt lat="44.98115" lon="2.01475">
        <ele>485.6</ele>
        <time>2021-08-16T12:23:47Z</time>
      </trkpt>
      <trkpt lat="44.98111" lon="2.01468">
        <ele>485.6</ele>
        <time>2021-08-16T12:23:48Z</time>
      </trkpt>
      <trkpt lat="44.98107" lon="2.01462">
        <ele>485.12</ele>
        <time>2021-08-16T12:23:49Z</time>
      </trkpt>
      <trkpt lat="44.98102" lon="2.01458">
        <ele>485.12</ele>
        <time>2021-08-16T12:23:50Z</time>
      </trkpt>
      <trkpt lat="44.98098" lon="2.01454">
        <ele>485.12</ele>
        <time>2021-08-16T12:23:51Z</time>
      </trkpt>
      <trkpt lat="44.98094" lon="2.01449">
        <ele>485.12</ele>
        <time>2021-08-16T12:23:52Z</time>
      </trkpt>
      <trkpt lat="44.98092" lon="2.01445">
        <ele>486.08</ele>
        <time>2021-08-16T12:23:53Z</time>
      </trkpt>
      <trkpt lat="44.98088" lon="2.01432">
        <ele>487.05</ele>
        <time>2021-08-16T12:23:57Z</time>
      </trkpt>
      <trkpt lat="44.98093" lon="2.01408">
        <ele>488.01</ele>
        <time>2021-08-16T12:24:04Z</time>
      </trkpt>
      <trkpt lat="44.98105" lon="2.01377">
        <ele>488.49</ele>
        <time>2021-08-16T12:24:12Z</time>
      </trkpt>
      <trkpt lat="44.98116" lon="2.01347">
        <ele>488.49</ele>
        <time>2021-08-16T12:24:18Z</time>
      </trkpt>
      <trkpt lat="44.98119" lon="2.01341">
        <ele>486.56</ele>
        <time>2021-08-16T12:24:19Z</time>
      </trkpt>
      <trkpt lat="44.98122" lon="2.01334">
        <ele>486.56</ele>
        <time>2021-08-16T12:24:20Z</time>
      </trkpt>
      <trkpt lat="44.98126" lon="2.01327">
        <ele>485.6</ele>
        <time>2021-08-16T12:24:21Z</time>
      </trkpt>
      <trkpt lat="44.98131" lon="2.01321">
        <ele>485.6</ele>
        <time>2021-08-16T12:24:22Z</time>
      </trkpt>
      <trkpt lat="44.98135" lon="2.01316">
        <ele>485.6</ele>
        <time>2021-08-16T12:24:23Z</time>
      </trkpt>
      <trkpt lat="44.98138" lon="2.01312">
        <ele>485.6</ele>
        <time>2021-08-16T12:24:24Z</time>
      </trkpt>
      <trkpt lat="44.98155" lon="2.01297">
        <ele>486.56</ele>
        <time>2021-08-16T12:24:30Z</time>
      </trkpt>
      <trkpt lat="44.98173" lon="2.01281">
        <ele>488.01</ele>
        <time>2021-08-16T12:24:38Z</time>
      </trkpt>
      <trkpt lat="44.98186" lon="2.01266">
        <ele>488.49</ele>
        <time>2021-08-16T12:24:45Z</time>
      </trkpt>
      <trkpt lat="44.98198" lon="2.01248">
        <ele>488.97</ele>
        <time>2021-08-16T12:24:53Z</time>
      </trkpt>
      <trkpt lat="44.98207" lon="2.01227">
        <ele>489.45</ele>
        <time>2021-08-16T12:25:01Z</time>
      </trkpt>
      <trkpt lat="44.98207" lon="2.01223">
        <ele>489.45</ele>
        <time>2021-08-16T12:25:02Z</time>
      </trkpt>
      <trkpt lat="44.98206" lon="2.01219">
        <ele>489.45</ele>
        <time>2021-08-16T12:25:03Z</time>
      </trkpt>
      <trkpt lat="44.98205" lon="2.01215">
        <ele>489.45</ele>
        <time>2021-08-16T12:25:04Z</time>
      </trkpt>
      <trkpt lat="44.98196" lon="2.01206">
        <ele>490.41</ele>
        <time>2021-08-16T12:25:12Z</time>
      </trkpt>
      <trkpt lat="44.98192" lon="2.01201">
        <ele>491.85</ele>
        <time>2021-08-16T12:25:22Z</time>
      </trkpt>
      <trkpt lat="44.98189" lon="2.012">
        <ele>491.85</ele>
        <time>2021-08-16T12:25:28Z</time>
      </trkpt>
      <trkpt lat="44.98187" lon="2.01199">
        <ele>492.33</ele>
        <time>2021-08-16T12:25:30Z</time>
      </trkpt>
      <trkpt lat="44.9818" lon="2.012">
        <ele>493.77</ele>
        <time>2021-08-16T12:25:38Z</time>
      </trkpt>
      <trkpt lat="44.9817" lon="2.01199">
        <ele>494.74</ele>
        <time>2021-08-16T12:25:48Z</time>
      </trkpt>
      <trkpt lat="44.98163" lon="2.01195">
        <ele>496.66</ele>
        <time>2021-08-16T12:25:57Z</time>
      </trkpt>
      <trkpt lat="44.98158" lon="2.01191">
        <ele>497.62</ele>
        <time>2021-08-16T12:26:04Z</time>
      </trkpt>
      <trkpt lat="44.98153" lon="2.0119">
        <ele>499.06</ele>
        <time>2021-08-16T12:26:12Z</time>
      </trkpt>
      <trkpt lat="44.98146" lon="2.01182">
        <ele>500.02</ele>
        <time>2021-08-16T12:26:21Z</time>
      </trkpt>
      <trkpt lat="44.98141" lon="2.01173">
        <ele>501.46</ele>
        <time>2021-08-16T12:26:31Z</time>
      </trkpt>
      <trkpt lat="44.98138" lon="2.01163">
        <ele>502.43</ele>
        <time>2021-08-16T12:26:39Z</time>
      </trkpt>
      <trkpt lat="44.98137" lon="2.01155">
        <ele>502.43</ele>
        <time>2021-08-16T12:26:48Z</time>
      </trkpt>
      <trkpt lat="44.98135" lon="2.01149">
        <ele>502.91</ele>
        <time>2021-08-16T12:26:54Z</time>
      </trkpt>
      <trkpt lat="44.98133" lon="2.01139">
        <ele>504.35</ele>
        <time>2021-08-16T12:27:01Z</time>
      </trkpt>
      <trkpt lat="44.98128" lon="2.01126">
        <ele>505.79</ele>
        <time>2021-08-16T12:27:10Z</time>
      </trkpt>
      <trkpt lat="44.98122" lon="2.01111">
        <ele>507.71</ele>
        <time>2021-08-16T12:27:19Z</time>
      </trkpt>
      <trkpt lat="44.9812" lon="2.01108">
        <ele>508.19</ele>
        <time>2021-08-16T12:27:21Z</time>
      </trkpt>
      <trkpt lat="44.98113" lon="2.0109">
        <ele>509.64</ele>
        <time>2021-08-16T12:27:32Z</time>
      </trkpt>
      <trkpt lat="44.98108" lon="2.01076">
        <ele>511.56</ele>
        <time>2021-08-16T12:27:42Z</time>
      </trkpt>
      <trkpt lat="44.98105" lon="2.01066">
        <ele>513</ele>
        <time>2021-08-16T12:27:50Z</time>
      </trkpt>
      <trkpt lat="44.98102" lon="2.01056">
        <ele>514.44</ele>
        <time>2021-08-16T12:27:59Z</time>
      </trkpt>
      <trkpt lat="44.981" lon="2.01046">
        <ele>515.88</ele>
        <time>2021-08-16T12:28:07Z</time>
      </trkpt>
      <trkpt lat="44.98098" lon="2.01037">
        <ele>516.85</ele>
        <time>2021-08-16T12:28:16Z</time>
      </trkpt>
      <trkpt lat="44.98097" lon="2.01025">
        <ele>518.29</ele>
        <time>2021-08-16T12:28:24Z</time>
      </trkpt>
      <trkpt lat="44.98095" lon="2.01014">
        <ele>519.73</ele>
        <time>2021-08-16T12:28:32Z</time>
      </trkpt>
      <trkpt lat="44.98094" lon="2.00999">
        <ele>521.17</ele>
        <time>2021-08-16T12:28:42Z</time>
      </trkpt>
      <trkpt lat="44.98092" lon="2.0099">
        <ele>522.13</ele>
        <time>2021-08-16T12:28:51Z</time>
      </trkpt>
      <trkpt lat="44.98092" lon="2.00968">
        <ele>523.58</ele>
        <time>2021-08-16T12:29:02Z</time>
      </trkpt>
      <trkpt lat="44.9809" lon="2.0095">
        <ele>525.5</ele>
        <time>2021-08-16T12:29:12Z</time>
      </trkpt>
      <trkpt lat="44.98089" lon="2.0094">
        <ele>526.94</ele>
        <time>2021-08-16T12:29:19Z</time>
      </trkpt>
      <trkpt lat="44.9809" lon="2.00935">
        <ele>527.42</ele>
        <time>2021-08-16T12:29:22Z</time>
      </trkpt>
      <trkpt lat="44.9809" lon="2.00918">
        <ele>528.86</ele>
        <time>2021-08-16T12:29:31Z</time>
      </trkpt>
      <trkpt lat="44.98093" lon="2.00908">
        <ele>529.82</ele>
        <time>2021-08-16T12:29:36Z</time>
      </trkpt>
      <trkpt lat="44.98098" lon="2.00904">
        <ele>530.3</ele>
        <time>2021-08-16T12:29:40Z</time>
      </trkpt>
      <trkpt lat="44.98109" lon="2.00901">
        <ele>532.23</ele>
        <time>2021-08-16T12:29:49Z</time>
      </trkpt>
      <trkpt lat="44.98114" lon="2.00897">
        <ele>533.19</ele>
        <time>2021-08-16T12:29:55Z</time>
      </trkpt>
      <trkpt lat="44.9812" lon="2.00897">
        <ele>534.15</ele>
        <time>2021-08-16T12:30:01Z</time>
      </trkpt>
      <trkpt lat="44.9813" lon="2.00899">
        <ele>535.59</ele>
        <time>2021-08-16T12:30:10Z</time>
      </trkpt>
      <trkpt lat="44.98143" lon="2.00905">
        <ele>537.03</ele>
        <time>2021-08-16T12:30:21Z</time>
      </trkpt>
      <trkpt lat="44.98155" lon="2.00907">
        <ele>538.48</ele>
        <time>2021-08-16T12:30:30Z</time>
      </trkpt>
      <trkpt lat="44.98165" lon="2.00909">
        <ele>539.44</ele>
        <time>2021-08-16T12:30:38Z</time>
      </trkpt>
      <trkpt lat="44.98178" lon="2.00912">
        <ele>539.92</ele>
        <time>2021-08-16T12:30:47Z</time>
      </trkpt>
      <trkpt lat="44.98195" lon="2.00911">
        <ele>541.84</ele>
        <time>2021-08-16T12:30:57Z</time>
      </trkpt>
      <trkpt lat="44.98202" lon="2.00908">
        <ele>542.32</ele>
        <time>2021-08-16T12:31:03Z</time>
      </trkpt>
      <trkpt lat="44.98204" lon="2.009">
        <ele>543.28</ele>
        <time>2021-08-16T12:31:08Z</time>
      </trkpt>
      <trkpt lat="44.98203" lon="2.00884">
        <ele>543.76</ele>
        <time>2021-08-16T12:31:17Z</time>
      </trkpt>
      <trkpt lat="44.98198" lon="2.00872">
        <ele>545.2</ele>
        <time>2021-08-16T12:31:25Z</time>
      </trkpt>
      <trkpt lat="44.98189" lon="2.00857">
        <ele>546.65</ele>
        <time>2021-08-16T12:31:34Z</time>
      </trkpt>
      <trkpt lat="44.98184" lon="2.00838">
        <ele>548.09</ele>
        <time>2021-08-16T12:31:42Z</time>
      </trkpt>
      <trkpt lat="44.98183" lon="2.00822">
        <ele>549.53</ele>
        <time>2021-08-16T12:31:50Z</time>
      </trkpt>
      <trkpt lat="44.98181" lon="2.00803">
        <ele>551.45</ele>
        <time>2021-08-16T12:31:59Z</time>
      </trkpt>
      <trkpt lat="44.98181" lon="2.0078">
        <ele>552.9</ele>
        <time>2021-08-16T12:32:08Z</time>
      </trkpt>
      <trkpt lat="44.98185" lon="2.00766">
        <ele>554.34</ele>
        <time>2021-08-16T12:32:15Z</time>
      </trkpt>
      <trkpt lat="44.98191" lon="2.00759">
        <ele>555.3</ele>
        <time>2021-08-16T12:32:21Z</time>
      </trkpt>
      <trkpt lat="44.98199" lon="2.00755">
        <ele>556.74</ele>
        <time>2021-08-16T12:32:28Z</time>
      </trkpt>
      <trkpt lat="44.98209" lon="2.00747">
        <ele>557.7</ele>
        <time>2021-08-16T12:32:37Z</time>
      </trkpt>
      <trkpt lat="44.98215" lon="2.00744">
        <ele>558.66</ele>
        <time>2021-08-16T12:32:42Z</time>
      </trkpt>
      <trkpt lat="44.98227" lon="2.00746">
        <ele>560.11</ele>
        <time>2021-08-16T12:32:51Z</time>
      </trkpt>
      <trkpt lat="44.98232" lon="2.00746">
        <ele>560.59</ele>
        <time>2021-08-16T12:32:55Z</time>
      </trkpt>
      <trkpt lat="44.98236" lon="2.00746">
        <ele>560.59</ele>
        <time>2021-08-16T12:32:57Z</time>
      </trkpt>
      <trkpt lat="44.98242" lon="2.00745">
        <ele>561.07</ele>
        <time>2021-08-16T12:33:01Z</time>
      </trkpt>
      <trkpt lat="44.98258" lon="2.00745">
        <ele>562.03</ele>
        <time>2021-08-16T12:33:10Z</time>
      </trkpt>
      <trkpt lat="44.98275" lon="2.00742">
        <ele>562.99</ele>
        <time>2021-08-16T12:33:18Z</time>
      </trkpt>
      <trkpt lat="44.98291" lon="2.00735">
        <ele>563.47</ele>
        <time>2021-08-16T12:33:25Z</time>
      </trkpt>
      <trkpt lat="44.98303" lon="2.00716">
        <ele>564.43</ele>
        <time>2021-08-16T12:33:32Z</time>
      </trkpt>
      <trkpt lat="44.98312" lon="2.00696">
        <ele>564.91</ele>
        <time>2021-08-16T12:33:38Z</time>
      </trkpt>
      <trkpt lat="44.98324" lon="2.00673">
        <ele>565.87</ele>
        <time>2021-08-16T12:33:45Z</time>
      </trkpt>
      <trkpt lat="44.98336" lon="2.00654">
        <ele>566.35</ele>
        <time>2021-08-16T12:33:51Z</time>
      </trkpt>
      <trkpt lat="44.98349" lon="2.00634">
        <ele>566.35</ele>
        <time>2021-08-16T12:33:57Z</time>
      </trkpt>
      <trkpt lat="44.98361" lon="2.00609">
        <ele>563.47</ele>
        <time>2021-08-16T12:34:03Z</time>
      </trkpt>
      <trkpt lat="44.98375" lon="2.00577">
        <ele>562.51</ele>
        <time>2021-08-16T12:34:07Z</time>
      </trkpt>
      <trkpt lat="44.98404" lon="2.0053">
        <ele>562.51</ele>
        <time>2021-08-16T12:34:13Z</time>
      </trkpt>
      <trkpt lat="44.98423" lon="2.005">
        <ele>563.95</ele>
        <time>2021-08-16T12:34:20Z</time>
      </trkpt>
      <trkpt lat="44.9843" lon="2.00459">
        <ele>565.87</ele>
        <time>2021-08-16T12:34:27Z</time>
      </trkpt>
      <trkpt lat="44.98424" lon="2.00423">
        <ele>566.83</ele>
        <time>2021-08-16T12:34:34Z</time>
      </trkpt>
      <trkpt lat="44.98407" lon="2.00379">
        <ele>565.39</ele>
        <time>2021-08-16T12:34:43Z</time>
      </trkpt>
      <trkpt lat="44.98406" lon="2.00373">
        <ele>564.91</ele>
        <time>2021-08-16T12:34:44Z</time>
      </trkpt>
      <trkpt lat="44.98405" lon="2.00366">
        <ele>564.43</ele>
        <time>2021-08-16T12:34:45Z</time>
      </trkpt>
      <trkpt lat="44.98404" lon="2.0036">
        <ele>563.95</ele>
        <time>2021-08-16T12:34:46Z</time>
      </trkpt>
      <trkpt lat="44.98405" lon="2.00354">
        <ele>563.95</ele>
        <time>2021-08-16T12:34:47Z</time>
      </trkpt>
      <trkpt lat="44.98405" lon="2.00348">
        <ele>563.95</ele>
        <time>2021-08-16T12:34:48Z</time>
      </trkpt>
      <trkpt lat="44.98407" lon="2.00341">
        <ele>563.47</ele>
        <time>2021-08-16T12:34:49Z</time>
      </trkpt>
      <trkpt lat="44.98409" lon="2.00335">
        <ele>563.47</ele>
        <time>2021-08-16T12:34:50Z</time>
      </trkpt>
      <trkpt lat="44.98412" lon="2.00329">
        <ele>562.99</ele>
        <time>2021-08-16T12:34:51Z</time>
      </trkpt>
      <trkpt lat="44.98415" lon="2.00323">
        <ele>562.99</ele>
        <time>2021-08-16T12:34:52Z</time>
      </trkpt>
      <trkpt lat="44.9842" lon="2.00318">
        <ele>562.03</ele>
        <time>2021-08-16T12:34:53Z</time>
      </trkpt>
      <trkpt lat="44.98426" lon="2.00315">
        <ele>562.03</ele>
        <time>2021-08-16T12:34:54Z</time>
      </trkpt>
      <trkpt lat="44.98432" lon="2.00312">
        <ele>560.59</ele>
        <time>2021-08-16T12:34:55Z</time>
      </trkpt>
      <trkpt lat="44.98438" lon="2.0031">
        <ele>560.11</ele>
        <time>2021-08-16T12:34:56Z</time>
      </trkpt>
      <trkpt lat="44.98444" lon="2.00309">
        <ele>559.62</ele>
        <time>2021-08-16T12:34:57Z</time>
      </trkpt>
      <trkpt lat="44.98452" lon="2.00309">
        <ele>559.14</ele>
        <time>2021-08-16T12:34:58Z</time>
      </trkpt>
      <trkpt lat="44.98478" lon="2.00305">
        <ele>559.14</ele>
        <time>2021-08-16T12:35:02Z</time>
      </trkpt>
      <trkpt lat="44.98483" lon="2.00301">
        <ele>560.59</ele>
        <time>2021-08-16T12:35:03Z</time>
      </trkpt>
      <trkpt lat="44.98486" lon="2.00297">
        <ele>561.07</ele>
        <time>2021-08-16T12:35:04Z</time>
      </trkpt>
      <trkpt lat="44.98496" lon="2.0028">
        <ele>562.99</ele>
        <time>2021-08-16T12:35:10Z</time>
      </trkpt>
      <trkpt lat="44.98506" lon="2.00251">
        <ele>562.51</ele>
        <time>2021-08-16T12:35:17Z</time>
      </trkpt>
      <trkpt lat="44.98513" lon="2.00235">
        <ele>562.51</ele>
        <time>2021-08-16T12:35:20Z</time>
      </trkpt>
      <trkpt lat="44.98542" lon="2.00204">
        <ele>562.51</ele>
        <time>2021-08-16T12:35:28Z</time>
      </trkpt>
      <trkpt lat="44.9855" lon="2.0018">
        <ele>562.51</ele>
        <time>2021-08-16T12:35:34Z</time>
      </trkpt>
      <trkpt lat="44.98553" lon="2.0016">
        <ele>562.51</ele>
        <time>2021-08-16T12:35:39Z</time>
      </trkpt>
      <trkpt lat="44.98555" lon="2.00131">
        <ele>563.95</ele>
        <time>2021-08-16T12:35:48Z</time>
      </trkpt>
      <trkpt lat="44.98556" lon="2.00115">
        <ele>565.39</ele>
        <time>2021-08-16T12:35:58Z</time>
      </trkpt>
      <trkpt lat="44.98555" lon="2.00105">
        <ele>566.35</ele>
        <time>2021-08-16T12:36:06Z</time>
      </trkpt>
      <trkpt lat="44.98557" lon="2.001">
        <ele>566.35</ele>
        <time>2021-08-16T12:36:22Z</time>
      </trkpt>
      <trkpt lat="44.98556" lon="2.00097">
        <ele>566.35</ele>
        <time>2021-08-16T12:36:48Z</time>
      </trkpt>
      <trkpt lat="44.98555" lon="2.00095">
        <ele>566.35</ele>
        <time>2021-08-16T12:37:03Z</time>
      </trkpt>
      <trkpt lat="44.98554" lon="2.00088">
        <ele>567.32</ele>
        <time>2021-08-16T12:37:10Z</time>
      </trkpt>
      <trkpt lat="44.98553" lon="2.00078">
        <ele>568.76</ele>
        <time>2021-08-16T12:37:19Z</time>
      </trkpt>
      <trkpt lat="44.98553" lon="2.00072">
        <ele>568.76</ele>
        <time>2021-08-16T12:37:26Z</time>
      </trkpt>
      <trkpt lat="44.98552" lon="2.00057">
        <ele>569.24</ele>
        <time>2021-08-16T12:37:33Z</time>
      </trkpt>
      <trkpt lat="44.98548" lon="2.00033">
        <ele>570.68</ele>
        <time>2021-08-16T12:37:41Z</time>
      </trkpt>
      <trkpt lat="44.98545" lon="2.00014">
        <ele>571.16</ele>
        <time>2021-08-16T12:37:48Z</time>
      </trkpt>
      <trkpt lat="44.98543" lon="1.9999">
        <ele>572.12</ele>
        <time>2021-08-16T12:37:55Z</time>
      </trkpt>
      <trkpt lat="44.98544" lon="1.99969">
        <ele>570.68</ele>
        <time>2021-08-16T12:37:59Z</time>
      </trkpt>
      <trkpt lat="44.98544" lon="1.99962">
        <ele>570.2</ele>
        <time>2021-08-16T12:38:00Z</time>
      </trkpt>
      <trkpt lat="44.98543" lon="1.99956">
        <ele>569.72</ele>
        <time>2021-08-16T12:38:01Z</time>
      </trkpt>
      <trkpt lat="44.98544" lon="1.9994">
        <ele>568.76</ele>
        <time>2021-08-16T12:38:03Z</time>
      </trkpt>
      <trkpt lat="44.98555" lon="1.99895">
        <ele>565.39</ele>
        <time>2021-08-16T12:38:08Z</time>
      </trkpt>
      <trkpt lat="44.98573" lon="1.99842">
        <ele>562.51</ele>
        <time>2021-08-16T12:38:13Z</time>
      </trkpt>
      <trkpt lat="44.9859" lon="1.99759">
        <ele>559.14</ele>
        <time>2021-08-16T12:38:20Z</time>
      </trkpt>
      <trkpt lat="44.98594" lon="1.99723">
        <ele>558.66</ele>
        <time>2021-08-16T12:38:23Z</time>
      </trkpt>
      <trkpt lat="44.98593" lon="1.99711">
        <ele>558.18</ele>
        <time>2021-08-16T12:38:24Z</time>
      </trkpt>
      <trkpt lat="44.98592" lon="1.997">
        <ele>557.7</ele>
        <time>2021-08-16T12:38:25Z</time>
      </trkpt>
      <trkpt lat="44.98588" lon="1.99688">
        <ele>557.22</ele>
        <time>2021-08-16T12:38:26Z</time>
      </trkpt>
      <trkpt lat="44.98584" lon="1.99678">
        <ele>556.26</ele>
        <time>2021-08-16T12:38:27Z</time>
      </trkpt>
      <trkpt lat="44.98579" lon="1.99667">
        <ele>555.78</ele>
        <time>2021-08-16T12:38:28Z</time>
      </trkpt>
      <trkpt lat="44.98572" lon="1.99644">
        <ele>555.3</ele>
        <time>2021-08-16T12:38:30Z</time>
      </trkpt>
      <trkpt lat="44.9857" lon="1.99633">
        <ele>555.3</ele>
        <time>2021-08-16T12:38:31Z</time>
      </trkpt>
      <trkpt lat="44.98568" lon="1.99622">
        <ele>555.3</ele>
        <time>2021-08-16T12:38:32Z</time>
      </trkpt>
      <trkpt lat="44.98567" lon="1.99609">
        <ele>554.34</ele>
        <time>2021-08-16T12:38:33Z</time>
      </trkpt>
      <trkpt lat="44.98567" lon="1.99599">
        <ele>554.34</ele>
        <time>2021-08-16T12:38:34Z</time>
      </trkpt>
      <trkpt lat="44.98568" lon="1.99588">
        <ele>554.34</ele>
        <time>2021-08-16T12:38:35Z</time>
      </trkpt>
      <trkpt lat="44.98577" lon="1.99527">
        <ele>553.38</ele>
        <time>2021-08-16T12:38:41Z</time>
      </trkpt>
      <trkpt lat="44.9858" lon="1.99507">
        <ele>553.38</ele>
        <time>2021-08-16T12:38:43Z</time>
      </trkpt>
      <trkpt lat="44.98582" lon="1.995">
        <ele>553.38</ele>
        <time>2021-08-16T12:38:44Z</time>
      </trkpt>
      <trkpt lat="44.98585" lon="1.99493">
        <ele>553.38</ele>
        <time>2021-08-16T12:38:45Z</time>
      </trkpt>
      <trkpt lat="44.98589" lon="1.99485">
        <ele>553.38</ele>
        <time>2021-08-16T12:38:46Z</time>
      </trkpt>
      <trkpt lat="44.98593" lon="1.99479">
        <ele>553.38</ele>
        <time>2021-08-16T12:38:47Z</time>
      </trkpt>
      <trkpt lat="44.98597" lon="1.99472">
        <ele>553.38</ele>
        <time>2021-08-16T12:38:48Z</time>
      </trkpt>
      <trkpt lat="44.98621" lon="1.99436">
        <ele>552.9</ele>
        <time>2021-08-16T12:38:54Z</time>
      </trkpt>
      <trkpt lat="44.98623" lon="1.99429">
        <ele>553.38</ele>
        <time>2021-08-16T12:38:55Z</time>
      </trkpt>
      <trkpt lat="44.98625" lon="1.99421">
        <ele>553.38</ele>
        <time>2021-08-16T12:38:56Z</time>
      </trkpt>
      <trkpt lat="44.98626" lon="1.99413">
        <ele>553.38</ele>
        <time>2021-08-16T12:38:57Z</time>
      </trkpt>
      <trkpt lat="44.98625" lon="1.99406">
        <ele>553.38</ele>
        <time>2021-08-16T12:38:58Z</time>
      </trkpt>
      <trkpt lat="44.98623" lon="1.99399">
        <ele>553.38</ele>
        <time>2021-08-16T12:38:59Z</time>
      </trkpt>
      <trkpt lat="44.98621" lon="1.99393">
        <ele>552.9</ele>
        <time>2021-08-16T12:39:00Z</time>
      </trkpt>
      <trkpt lat="44.98619" lon="1.99388">
        <ele>552.9</ele>
        <time>2021-08-16T12:39:01Z</time>
      </trkpt>
      <trkpt lat="44.98617" lon="1.99383">
        <ele>552.9</ele>
        <time>2021-08-16T12:39:02Z</time>
      </trkpt>
      <trkpt lat="44.98611" lon="1.99373">
        <ele>554.34</ele>
        <time>2021-08-16T12:39:05Z</time>
      </trkpt>
      <trkpt lat="44.98604" lon="1.99359">
        <ele>555.3</ele>
        <time>2021-08-16T12:39:11Z</time>
      </trkpt>
      <trkpt lat="44.98597" lon="1.99345">
        <ele>557.22</ele>
        <time>2021-08-16T12:39:19Z</time>
      </trkpt>
      <trkpt lat="44.98586" lon="1.99327">
        <ele>558.66</ele>
        <time>2021-08-16T12:39:27Z</time>
      </trkpt>
      <trkpt lat="44.98576" lon="1.99306">
        <ele>560.11</ele>
        <time>2021-08-16T12:39:36Z</time>
      </trkpt>
      <trkpt lat="44.98567" lon="1.99294">
        <ele>562.03</ele>
        <time>2021-08-16T12:39:43Z</time>
      </trkpt>
      <trkpt lat="44.98558" lon="1.99276">
        <ele>562.99</ele>
        <time>2021-08-16T12:39:51Z</time>
      </trkpt>
      <trkpt lat="44.98556" lon="1.99272">
        <ele>562.99</ele>
        <time>2021-08-16T12:39:52Z</time>
      </trkpt>
      <trkpt lat="44.98555" lon="1.99268">
        <ele>563.47</ele>
        <time>2021-08-16T12:39:53Z</time>
      </trkpt>
      <trkpt lat="44.98551" lon="1.99248">
        <ele>563.47</ele>
        <time>2021-08-16T12:39:59Z</time>
      </trkpt>
      <trkpt lat="44.9855" lon="1.9922">
        <ele>563.47</ele>
        <time>2021-08-16T12:40:05Z</time>
      </trkpt>
      <trkpt lat="44.98549" lon="1.99207">
        <ele>562.03</ele>
        <time>2021-08-16T12:40:07Z</time>
      </trkpt>
      <trkpt lat="44.98549" lon="1.99199">
        <ele>562.03</ele>
        <time>2021-08-16T12:40:08Z</time>
      </trkpt>
      <trkpt lat="44.98545" lon="1.99174">
        <ele>560.11</ele>
        <time>2021-08-16T12:40:13Z</time>
      </trkpt>
      <trkpt lat="44.98542" lon="1.99171">
        <ele>559.62</ele>
        <time>2021-08-16T12:40:14Z</time>
      </trkpt>
      <trkpt lat="44.98539" lon="1.99169">
        <ele>559.62</ele>
        <time>2021-08-16T12:40:15Z</time>
      </trkpt>
      <trkpt lat="44.98536" lon="1.99167">
        <ele>559.62</ele>
        <time>2021-08-16T12:40:16Z</time>
      </trkpt>
      <trkpt lat="44.98531" lon="1.99164">
        <ele>558.66</ele>
        <time>2021-08-16T12:40:17Z</time>
      </trkpt>
      <trkpt lat="44.98527" lon="1.9916">
        <ele>558.66</ele>
        <time>2021-08-16T12:40:18Z</time>
      </trkpt>
      <trkpt lat="44.9849" lon="1.99137">
        <ele>556.26</ele>
        <time>2021-08-16T12:40:25Z</time>
      </trkpt>
      <trkpt lat="44.98461" lon="1.99128">
        <ele>554.34</ele>
        <time>2021-08-16T12:40:29Z</time>
      </trkpt>
      <trkpt lat="44.98416" lon="1.99112">
        <ele>551.45</ele>
        <time>2021-08-16T12:40:35Z</time>
      </trkpt>
      <trkpt lat="44.98397" lon="1.99105">
        <ele>551.45</ele>
        <time>2021-08-16T12:40:38Z</time>
      </trkpt>
      <trkpt lat="44.98393" lon="1.99101">
        <ele>551.45</ele>
        <time>2021-08-16T12:40:39Z</time>
      </trkpt>
      <trkpt lat="44.98389" lon="1.99097">
        <ele>550.97</ele>
        <time>2021-08-16T12:40:40Z</time>
      </trkpt>
      <trkpt lat="44.98387" lon="1.99092">
        <ele>550.97</ele>
        <time>2021-08-16T12:40:41Z</time>
      </trkpt>
      <trkpt lat="44.98384" lon="1.99086">
        <ele>550.01</ele>
        <time>2021-08-16T12:40:42Z</time>
      </trkpt>
      <trkpt lat="44.98382" lon="1.99081">
        <ele>550.01</ele>
        <time>2021-08-16T12:40:43Z</time>
      </trkpt>
      <trkpt lat="44.9838" lon="1.99076">
        <ele>550.01</ele>
        <time>2021-08-16T12:40:44Z</time>
      </trkpt>
      <trkpt lat="44.9836" lon="1.99037">
        <ele>550.01</ele>
        <time>2021-08-16T12:40:52Z</time>
      </trkpt>
      <trkpt lat="44.98341" lon="1.99013">
        <ele>549.05</ele>
        <time>2021-08-16T12:40:59Z</time>
      </trkpt>
      <trkpt lat="44.98338" lon="1.99014">
        <ele>549.05</ele>
        <time>2021-08-16T12:41:00Z</time>
      </trkpt>
      <trkpt lat="44.98337" lon="1.99015">
        <ele>549.05</ele>
        <time>2021-08-16T12:41:01Z</time>
      </trkpt>
      <trkpt lat="44.98335" lon="1.99016">
        <ele>549.05</ele>
        <time>2021-08-16T12:41:02Z</time>
      </trkpt>
      <trkpt lat="44.98334" lon="1.99017">
        <ele>549.05</ele>
        <time>2021-08-16T12:41:03Z</time>
      </trkpt>
      <trkpt lat="44.98334" lon="1.99019">
        <ele>549.05</ele>
        <time>2021-08-16T12:41:09Z</time>
      </trkpt>
      <trkpt lat="44.98333" lon="1.9902">
        <ele>549.05</ele>
        <time>2021-08-16T12:41:25Z</time>
      </trkpt>
      <trkpt lat="44.98332" lon="1.99019">
        <ele>549.05</ele>
        <time>2021-08-16T12:41:27Z</time>
      </trkpt>
      <trkpt lat="44.98331" lon="1.99017">
        <ele>549.05</ele>
        <time>2021-08-16T12:41:28Z</time>
      </trkpt>
      <trkpt lat="44.98325" lon="1.99002">
        <ele>548.57</ele>
        <time>2021-08-16T12:41:33Z</time>
      </trkpt>
      <trkpt lat="44.98318" lon="1.98982">
        <ele>548.09</ele>
        <time>2021-08-16T12:41:38Z</time>
      </trkpt>
      <trkpt lat="44.98302" lon="1.98947">
        <ele>545.2</ele>
        <time>2021-08-16T12:41:44Z</time>
      </trkpt>
      <trkpt lat="44.98299" lon="1.98941">
        <ele>545.2</ele>
        <time>2021-08-16T12:41:45Z</time>
      </trkpt>
      <trkpt lat="44.98286" lon="1.98915">
        <ele>543.76</ele>
        <time>2021-08-16T12:41:51Z</time>
      </trkpt>
      <trkpt lat="44.98284" lon="1.98909">
        <ele>543.28</ele>
        <time>2021-08-16T12:41:56Z</time>
      </trkpt>
      <trkpt lat="44.98283" lon="1.9891">
        <ele>543.28</ele>
        <time>2021-08-16T12:42:00Z</time>
      </trkpt>
      <trkpt lat="44.98287" lon="1.98912">
        <ele>543.28</ele>
        <time>2021-08-16T12:42:07Z</time>
      </trkpt>
      <trkpt lat="44.98286" lon="1.98913">
        <ele>543.28</ele>
        <time>2021-08-16T12:42:11Z</time>
      </trkpt>
      <trkpt lat="44.98281" lon="1.98911">
        <ele>542.8</ele>
        <time>2021-08-16T12:42:14Z</time>
      </trkpt>
      <trkpt lat="44.98279" lon="1.98909">
        <ele>542.8</ele>
        <time>2021-08-16T12:42:15Z</time>
      </trkpt>
      <trkpt lat="44.98279" lon="1.98907">
        <ele>542.8</ele>
        <time>2021-08-16T12:42:16Z</time>
      </trkpt>
      <trkpt lat="44.98279" lon="1.98905">
        <ele>542.8</ele>
        <time>2021-08-16T12:42:17Z</time>
      </trkpt>
      <trkpt lat="44.9828" lon="1.98906">
        <ele>542.8</ele>
        <time>2021-08-16T12:42:18Z</time>
      </trkpt>
      <trkpt lat="44.98281" lon="1.98907">
        <ele>542.8</ele>
        <time>2021-08-16T12:42:19Z</time>
      </trkpt>
      <trkpt lat="44.98282" lon="1.98908">
        <ele>542.8</ele>
        <time>2021-08-16T12:42:20Z</time>
      </trkpt>
      <trkpt lat="44.98283" lon="1.9891">
        <ele>542.8</ele>
        <time>2021-08-16T12:42:21Z</time>
      </trkpt>
      <trkpt lat="44.98283" lon="1.98911">
        <ele>542.8</ele>
        <time>2021-08-16T12:42:22Z</time>
      </trkpt>
      <trkpt lat="44.98285" lon="1.98913">
        <ele>542.8</ele>
        <time>2021-08-16T12:42:23Z</time>
      </trkpt>
      <trkpt lat="44.98291" lon="1.98924">
        <ele>542.8</ele>
        <time>2021-08-16T12:42:28Z</time>
      </trkpt>
      <trkpt lat="44.98294" lon="1.98934">
        <ele>544.24</ele>
        <time>2021-08-16T12:42:31Z</time>
      </trkpt>
      <trkpt lat="44.98302" lon="1.98949">
        <ele>545.69</ele>
        <time>2021-08-16T12:42:37Z</time>
      </trkpt>
      <trkpt lat="44.98304" lon="1.9895">
        <ele>545.69</ele>
        <time>2021-08-16T12:42:38Z</time>
      </trkpt>
      <trkpt lat="44.98307" lon="1.9895">
        <ele>545.69</ele>
        <time>2021-08-16T12:42:40Z</time>
      </trkpt>
      <trkpt lat="44.98308" lon="1.98947">
        <ele>545.69</ele>
        <time>2021-08-16T12:42:41Z</time>
      </trkpt>
      <trkpt lat="44.98309" lon="1.98943">
        <ele>545.69</ele>
        <time>2021-08-16T12:42:42Z</time>
      </trkpt>
      <trkpt lat="44.98309" lon="1.98937">
        <ele>544.24</ele>
        <time>2021-08-16T12:42:43Z</time>
      </trkpt>
      <trkpt lat="44.98309" lon="1.9893">
        <ele>543.76</ele>
        <time>2021-08-16T12:42:44Z</time>
      </trkpt>
      <trkpt lat="44.98309" lon="1.98923">
        <ele>542.8</ele>
        <time>2021-08-16T12:42:45Z</time>
      </trkpt>
      <trkpt lat="44.9831" lon="1.98915">
        <ele>542.32</ele>
        <time>2021-08-16T12:42:46Z</time>
      </trkpt>
      <trkpt lat="44.98311" lon="1.98882">
        <ele>538.96</ele>
        <time>2021-08-16T12:42:50Z</time>
      </trkpt>
      <trkpt lat="44.98314" lon="1.98838">
        <ele>535.59</ele>
        <time>2021-08-16T12:42:55Z</time>
      </trkpt>
      <trkpt lat="44.98316" lon="1.98802">
        <ele>533.19</ele>
        <time>2021-08-16T12:42:59Z</time>
      </trkpt>
      <trkpt lat="44.98317" lon="1.98773">
        <ele>530.3</ele>
        <time>2021-08-16T12:43:02Z</time>
      </trkpt>
      <trkpt lat="44.98316" lon="1.98763">
        <ele>529.82</ele>
        <time>2021-08-16T12:43:03Z</time>
      </trkpt>
      <trkpt lat="44.98312" lon="1.98732">
        <ele>527.9</ele>
        <time>2021-08-16T12:43:08Z</time>
      </trkpt>
      <trkpt lat="44.98309" lon="1.98721">
        <ele>526.94</ele>
        <time>2021-08-16T12:43:13Z</time>
      </trkpt>
      <trkpt lat="44.98309" lon="1.98717">
        <ele>526.94</ele>
        <time>2021-08-16T12:43:14Z</time>
      </trkpt>
      <trkpt lat="44.9831" lon="1.98714">
        <ele>526.46</ele>
        <time>2021-08-16T12:43:15Z</time>
      </trkpt>
      <trkpt lat="44.98312" lon="1.98712">
        <ele>526.46</ele>
        <time>2021-08-16T12:43:16Z</time>
      </trkpt>
      <trkpt lat="44.98314" lon="1.98712">
        <ele>526.46</ele>
        <time>2021-08-16T12:43:17Z</time>
      </trkpt>
      <trkpt lat="44.98316" lon="1.98712">
        <ele>526.46</ele>
        <time>2021-08-16T12:43:18Z</time>
      </trkpt>
      <trkpt lat="44.98318" lon="1.98713">
        <ele>526.46</ele>
        <time>2021-08-16T12:43:19Z</time>
      </trkpt>
      <trkpt lat="44.9832" lon="1.98714">
        <ele>526.46</ele>
        <time>2021-08-16T12:43:20Z</time>
      </trkpt>
      <trkpt lat="44.98321" lon="1.98716">
        <ele>526.46</ele>
        <time>2021-08-16T12:43:21Z</time>
      </trkpt>
      <trkpt lat="44.98321" lon="1.98718">
        <ele>526.46</ele>
        <time>2021-08-16T12:43:22Z</time>
      </trkpt>
      <trkpt lat="44.98322" lon="1.9872">
        <ele>526.46</ele>
        <time>2021-08-16T12:43:23Z</time>
      </trkpt>
      <trkpt lat="44.98321" lon="1.98722">
        <ele>526.46</ele>
        <time>2021-08-16T12:43:29Z</time>
      </trkpt>
      <trkpt lat="44.9832" lon="1.9872">
        <ele>526.46</ele>
        <time>2021-08-16T12:43:39Z</time>
      </trkpt>
      <trkpt lat="44.98318" lon="1.98718">
        <ele>526.46</ele>
        <time>2021-08-16T12:43:56Z</time>
      </trkpt>
      <trkpt lat="44.98318" lon="1.98717">
        <ele>526.46</ele>
        <time>2021-08-16T12:44:10Z</time>
      </trkpt>
      <trkpt lat="44.98317" lon="1.98717">
        <ele>525.98</ele>
        <time>2021-08-16T12:44:22Z</time>
      </trkpt>
      <trkpt lat="44.98317" lon="1.98716">
        <ele>525.98</ele>
        <time>2021-08-16T12:44:34Z</time>
      </trkpt>
      <trkpt lat="44.98318" lon="1.98715">
        <ele>525.98</ele>
        <time>2021-08-16T12:44:48Z</time>
      </trkpt>
      <trkpt lat="44.98318" lon="1.98715">
        <ele>525.98</ele>
        <time>2021-08-16T12:45:02Z</time>
      </trkpt>
      <trkpt lat="44.98317" lon="1.98715">
        <ele>526.94</ele>
        <time>2021-08-16T12:45:11Z</time>
      </trkpt>
      <trkpt lat="44.98316" lon="1.98715">
        <ele>526.94</ele>
        <time>2021-08-16T12:45:14Z</time>
      </trkpt>
      <trkpt lat="44.98314" lon="1.98715">
        <ele>526.94</ele>
        <time>2021-08-16T12:45:18Z</time>
      </trkpt>
      <trkpt lat="44.98316" lon="1.98714">
        <ele>526.94</ele>
        <time>2021-08-16T12:45:32Z</time>
      </trkpt>
      <trkpt lat="44.98316" lon="1.98714">
        <ele>526.94</ele>
        <time>2021-08-16T12:45:47Z</time>
      </trkpt>
      <trkpt lat="44.98317" lon="1.98714">
        <ele>526.94</ele>
        <time>2021-08-16T12:45:59Z</time>
      </trkpt>
      <trkpt lat="44.98317" lon="1.98715">
        <ele>526.94</ele>
        <time>2021-08-16T12:46:15Z</time>
      </trkpt>
      <trkpt lat="44.98317" lon="1.98717">
        <ele>526.94</ele>
        <time>2021-08-16T12:46:32Z</time>
      </trkpt>
      <trkpt lat="44.98317" lon="1.98716">
        <ele>526.94</ele>
        <time>2021-08-16T12:46:46Z</time>
      </trkpt>
      <trkpt lat="44.98317" lon="1.98716">
        <ele>526.94</ele>
        <time>2021-08-16T12:46:56Z</time>
      </trkpt>
      <trkpt lat="44.98318" lon="1.98716">
        <ele>526.94</ele>
        <time>2021-08-16T12:47:07Z</time>
      </trkpt>
      <trkpt lat="44.98319" lon="1.98716">
        <ele>526.46</ele>
        <time>2021-08-16T12:47:15Z</time>
      </trkpt>
      <trkpt lat="44.98321" lon="1.98718">
        <ele>526.46</ele>
        <time>2021-08-16T12:47:26Z</time>
      </trkpt>
      <trkpt lat="44.98322" lon="1.98718">
        <ele>526.46</ele>
        <time>2021-08-16T12:47:27Z</time>
      </trkpt>
      <trkpt lat="44.98323" lon="1.98716">
        <ele>526.46</ele>
        <time>2021-08-16T12:47:33Z</time>
      </trkpt>
      <trkpt lat="44.98323" lon="1.98714">
        <ele>526.46</ele>
        <time>2021-08-16T12:47:34Z</time>
      </trkpt>
      <trkpt lat="44.98322" lon="1.98712">
        <ele>526.46</ele>
        <time>2021-08-16T12:47:35Z</time>
      </trkpt>
      <trkpt lat="44.98321" lon="1.98711">
        <ele>526.46</ele>
        <time>2021-08-16T12:47:36Z</time>
      </trkpt>
      <trkpt lat="44.98318" lon="1.98709">
        <ele>526.46</ele>
        <time>2021-08-16T12:47:37Z</time>
      </trkpt>
      <trkpt lat="44.98316" lon="1.98708">
        <ele>526.46</ele>
        <time>2021-08-16T12:47:38Z</time>
      </trkpt>
      <trkpt lat="44.98313" lon="1.98707">
        <ele>526.46</ele>
        <time>2021-08-16T12:47:39Z</time>
      </trkpt>
      <trkpt lat="44.9831" lon="1.98708">
        <ele>526.46</ele>
        <time>2021-08-16T12:47:40Z</time>
      </trkpt>
      <trkpt lat="44.98305" lon="1.98706">
        <ele>526.46</ele>
        <time>2021-08-16T12:47:42Z</time>
      </trkpt>
      <trkpt lat="44.98303" lon="1.98704">
        <ele>526.46</ele>
        <time>2021-08-16T12:47:43Z</time>
      </trkpt>
      <trkpt lat="44.98301" lon="1.98699">
        <ele>526.46</ele>
        <time>2021-08-16T12:47:44Z</time>
      </trkpt>
      <trkpt lat="44.98299" lon="1.98666">
        <ele>525.02</ele>
        <time>2021-08-16T12:47:51Z</time>
      </trkpt>
      <trkpt lat="44.98298" lon="1.98633">
        <ele>525.02</ele>
        <time>2021-08-16T12:47:59Z</time>
      </trkpt>
      <trkpt lat="44.98297" lon="1.98609">
        <ele>526.46</ele>
        <time>2021-08-16T12:48:07Z</time>
      </trkpt>
      <trkpt lat="44.98297" lon="1.98599">
        <ele>527.42</ele>
        <time>2021-08-16T12:48:11Z</time>
      </trkpt>
      <trkpt lat="44.98297" lon="1.98596">
        <ele>527.42</ele>
        <time>2021-08-16T12:48:12Z</time>
      </trkpt>
      <trkpt lat="44.98297" lon="1.98593">
        <ele>527.42</ele>
        <time>2021-08-16T12:48:13Z</time>
      </trkpt>
      <trkpt lat="44.98296" lon="1.98591">
        <ele>527.9</ele>
        <time>2021-08-16T12:48:14Z</time>
      </trkpt>
      <trkpt lat="44.98296" lon="1.98589">
        <ele>527.9</ele>
        <time>2021-08-16T12:48:15Z</time>
      </trkpt>
      <trkpt lat="44.98296" lon="1.98586">
        <ele>527.9</ele>
        <time>2021-08-16T12:48:16Z</time>
      </trkpt>
      <trkpt lat="44.98296" lon="1.98584">
        <ele>528.38</ele>
        <time>2021-08-16T12:48:17Z</time>
      </trkpt>
      <trkpt lat="44.98297" lon="1.98582">
        <ele>528.38</ele>
        <time>2021-08-16T12:48:18Z</time>
      </trkpt>
      <trkpt lat="44.98297" lon="1.9858">
        <ele>528.38</ele>
        <time>2021-08-16T12:48:19Z</time>
      </trkpt>
      <trkpt lat="44.98297" lon="1.98577">
        <ele>528.38</ele>
        <time>2021-08-16T12:48:20Z</time>
      </trkpt>
      <trkpt lat="44.98295" lon="1.98554">
        <ele>529.82</ele>
        <time>2021-08-16T12:48:30Z</time>
      </trkpt>
      <trkpt lat="44.98294" lon="1.98531">
        <ele>530.79</ele>
        <time>2021-08-16T12:48:40Z</time>
      </trkpt>
      <trkpt lat="44.98293" lon="1.98508">
        <ele>532.23</ele>
        <time>2021-08-16T12:48:50Z</time>
      </trkpt>
      <trkpt lat="44.98293" lon="1.98487">
        <ele>533.19</ele>
        <time>2021-08-16T12:48:59Z</time>
      </trkpt>
      <trkpt lat="44.98292" lon="1.98465">
        <ele>534.15</ele>
        <time>2021-08-16T12:49:08Z</time>
      </trkpt>
      <trkpt lat="44.98292" lon="1.98439">
        <ele>535.11</ele>
        <time>2021-08-16T12:49:17Z</time>
      </trkpt>
      <trkpt lat="44.98292" lon="1.98413">
        <ele>535.59</ele>
        <time>2021-08-16T12:49:25Z</time>
      </trkpt>
      <trkpt lat="44.98292" lon="1.98389">
        <ele>536.07</ele>
        <time>2021-08-16T12:49:33Z</time>
      </trkpt>
      <trkpt lat="44.98295" lon="1.9836">
        <ele>535.59</ele>
        <time>2021-08-16T12:49:42Z</time>
      </trkpt>
      <trkpt lat="44.98295" lon="1.98357">
        <ele>535.59</ele>
        <time>2021-08-16T12:49:43Z</time>
      </trkpt>
      <trkpt lat="44.98295" lon="1.98354">
        <ele>535.59</ele>
        <time>2021-08-16T12:49:44Z</time>
      </trkpt>
      <trkpt lat="44.98296" lon="1.98339">
        <ele>535.59</ele>
        <time>2021-08-16T12:49:48Z</time>
      </trkpt>
      <trkpt lat="44.98296" lon="1.98335">
        <ele>535.59</ele>
        <time>2021-08-16T12:49:49Z</time>
      </trkpt>
      <trkpt lat="44.98297" lon="1.98331">
        <ele>535.59</ele>
        <time>2021-08-16T12:49:50Z</time>
      </trkpt>
      <trkpt lat="44.98297" lon="1.98328">
        <ele>535.59</ele>
        <time>2021-08-16T12:49:51Z</time>
      </trkpt>
      <trkpt lat="44.98298" lon="1.98325">
        <ele>535.59</ele>
        <time>2021-08-16T12:49:52Z</time>
      </trkpt>
      <trkpt lat="44.98299" lon="1.98321">
        <ele>535.59</ele>
        <time>2021-08-16T12:49:53Z</time>
      </trkpt>
      <trkpt lat="44.98304" lon="1.9829">
        <ele>535.59</ele>
        <time>2021-08-16T12:50:00Z</time>
      </trkpt>
      <trkpt lat="44.98309" lon="1.98265">
        <ele>534.15</ele>
        <time>2021-08-16T12:50:05Z</time>
      </trkpt>
      <trkpt lat="44.9831" lon="1.98225">
        <ele>533.67</ele>
        <time>2021-08-16T12:50:12Z</time>
      </trkpt>
      <trkpt lat="44.98299" lon="1.98162">
        <ele>530.3</ele>
        <time>2021-08-16T12:50:19Z</time>
      </trkpt>
      <trkpt lat="44.98297" lon="1.98153">
        <ele>530.3</ele>
        <time>2021-08-16T12:50:20Z</time>
      </trkpt>
      <trkpt lat="44.98291" lon="1.98133">
        <ele>529.82</ele>
        <time>2021-08-16T12:50:22Z</time>
      </trkpt>
      <trkpt lat="44.98287" lon="1.98125">
        <ele>529.82</ele>
        <time>2021-08-16T12:50:23Z</time>
      </trkpt>
      <trkpt lat="44.98283" lon="1.98119">
        <ele>529.82</ele>
        <time>2021-08-16T12:50:24Z</time>
      </trkpt>
      <trkpt lat="44.98278" lon="1.98114">
        <ele>530.79</ele>
        <time>2021-08-16T12:50:25Z</time>
      </trkpt>
      <trkpt lat="44.98274" lon="1.9811">
        <ele>531.27</ele>
        <time>2021-08-16T12:50:26Z</time>
      </trkpt>
      <trkpt lat="44.98269" lon="1.98107">
        <ele>531.75</ele>
        <time>2021-08-16T12:50:27Z</time>
      </trkpt>
      <trkpt lat="44.98265" lon="1.98105">
        <ele>532.71</ele>
        <time>2021-08-16T12:50:28Z</time>
      </trkpt>
      <trkpt lat="44.98249" lon="1.981">
        <ele>534.15</ele>
        <time>2021-08-16T12:50:34Z</time>
      </trkpt>
      <trkpt lat="44.98227" lon="1.98099">
        <ele>535.59</ele>
        <time>2021-08-16T12:50:44Z</time>
      </trkpt>
      <trkpt lat="44.98206" lon="1.98098">
        <ele>537.03</ele>
        <time>2021-08-16T12:50:52Z</time>
      </trkpt>
      <trkpt lat="44.98183" lon="1.98096">
        <ele>538.48</ele>
        <time>2021-08-16T12:51:01Z</time>
      </trkpt>
      <trkpt lat="44.98166" lon="1.98093">
        <ele>539.44</ele>
        <time>2021-08-16T12:51:09Z</time>
      </trkpt>
      <trkpt lat="44.98149" lon="1.98081">
        <ele>540.88</ele>
        <time>2021-08-16T12:51:19Z</time>
      </trkpt>
      <trkpt lat="44.9814" lon="1.98067">
        <ele>541.84</ele>
        <time>2021-08-16T12:51:26Z</time>
      </trkpt>
      <trkpt lat="44.98134" lon="1.98044">
        <ele>542.8</ele>
        <time>2021-08-16T12:51:35Z</time>
      </trkpt>
      <trkpt lat="44.98127" lon="1.98008">
        <ele>544.24</ele>
        <time>2021-08-16T12:51:47Z</time>
      </trkpt>
      <trkpt lat="44.98122" lon="1.9797">
        <ele>545.69</ele>
        <time>2021-08-16T12:51:59Z</time>
      </trkpt>
      <trkpt lat="44.98116" lon="1.9794">
        <ele>546.17</ele>
        <time>2021-08-16T12:52:08Z</time>
      </trkpt>
      <trkpt lat="44.98114" lon="1.97916">
        <ele>546.17</ele>
        <time>2021-08-16T12:52:14Z</time>
      </trkpt>
      <trkpt lat="44.98109" lon="1.97893">
        <ele>547.13</ele>
        <time>2021-08-16T12:52:21Z</time>
      </trkpt>
      <trkpt lat="44.98105" lon="1.97859">
        <ele>547.61</ele>
        <time>2021-08-16T12:52:30Z</time>
      </trkpt>
      <trkpt lat="44.981" lon="1.97826">
        <ele>548.09</ele>
        <time>2021-08-16T12:52:39Z</time>
      </trkpt>
      <trkpt lat="44.98095" lon="1.97799">
        <ele>548.57</ele>
        <time>2021-08-16T12:52:47Z</time>
      </trkpt>
      <trkpt lat="44.98091" lon="1.97775">
        <ele>549.53</ele>
        <time>2021-08-16T12:52:55Z</time>
      </trkpt>
      <trkpt lat="44.98083" lon="1.97751">
        <ele>550.97</ele>
        <time>2021-08-16T12:53:03Z</time>
      </trkpt>
      <trkpt lat="44.98072" lon="1.97732">
        <ele>551.45</ele>
        <time>2021-08-16T12:53:10Z</time>
      </trkpt>
      <trkpt lat="44.98056" lon="1.97721">
        <ele>552.9</ele>
        <time>2021-08-16T12:53:17Z</time>
      </trkpt>
      <trkpt lat="44.98034" lon="1.97708">
        <ele>554.34</ele>
        <time>2021-08-16T12:53:26Z</time>
      </trkpt>
      <trkpt lat="44.98012" lon="1.97697">
        <ele>555.78</ele>
        <time>2021-08-16T12:53:36Z</time>
      </trkpt>
      <trkpt lat="44.97988" lon="1.97686">
        <ele>558.18</ele>
        <time>2021-08-16T12:53:46Z</time>
      </trkpt>
      <trkpt lat="44.97968" lon="1.97671">
        <ele>558.66</ele>
        <time>2021-08-16T12:53:55Z</time>
      </trkpt>
      <trkpt lat="44.97945" lon="1.9765">
        <ele>559.14</ele>
        <time>2021-08-16T12:54:03Z</time>
      </trkpt>
      <trkpt lat="44.97926" lon="1.97633">
        <ele>558.18</ele>
        <time>2021-08-16T12:54:08Z</time>
      </trkpt>
      <trkpt lat="44.97878" lon="1.97589">
        <ele>556.26</ele>
        <time>2021-08-16T12:54:19Z</time>
      </trkpt>
      <trkpt lat="44.97837" lon="1.97553">
        <ele>555.78</ele>
        <time>2021-08-16T12:54:28Z</time>
      </trkpt>
      <trkpt lat="44.97801" lon="1.97518">
        <ele>555.78</ele>
        <time>2021-08-16T12:54:37Z</time>
      </trkpt>
      <trkpt lat="44.97768" lon="1.97488">
        <ele>556.74</ele>
        <time>2021-08-16T12:54:45Z</time>
      </trkpt>
      <trkpt lat="44.97747" lon="1.97468">
        <ele>556.74</ele>
        <time>2021-08-16T12:54:50Z</time>
      </trkpt>
      <trkpt lat="44.97743" lon="1.97464">
        <ele>556.74</ele>
        <time>2021-08-16T12:54:51Z</time>
      </trkpt>
      <trkpt lat="44.97703" lon="1.97424">
        <ele>558.18</ele>
        <time>2021-08-16T12:55:01Z</time>
      </trkpt>
      <trkpt lat="44.97699" lon="1.97419">
        <ele>558.18</ele>
        <time>2021-08-16T12:55:02Z</time>
      </trkpt>
      <trkpt lat="44.97696" lon="1.97414">
        <ele>558.18</ele>
        <time>2021-08-16T12:55:03Z</time>
      </trkpt>
      <trkpt lat="44.97688" lon="1.97397">
        <ele>558.18</ele>
        <time>2021-08-16T12:55:06Z</time>
      </trkpt>
      <trkpt lat="44.97686" lon="1.97392">
        <ele>558.18</ele>
        <time>2021-08-16T12:55:07Z</time>
      </trkpt>
      <trkpt lat="44.9768" lon="1.97368">
        <ele>557.7</ele>
        <time>2021-08-16T12:55:11Z</time>
      </trkpt>
      <trkpt lat="44.97674" lon="1.97322">
        <ele>557.7</ele>
        <time>2021-08-16T12:55:18Z</time>
      </trkpt>
      <trkpt lat="44.9767" lon="1.97291">
        <ele>556.74</ele>
        <time>2021-08-16T12:55:22Z</time>
      </trkpt>
      <trkpt lat="44.97658" lon="1.97212">
        <ele>554.34</ele>
        <time>2021-08-16T12:55:31Z</time>
      </trkpt>
      <trkpt lat="44.97651" lon="1.97156">
        <ele>554.34</ele>
        <time>2021-08-16T12:55:38Z</time>
      </trkpt>
      <trkpt lat="44.97641" lon="1.97098">
        <ele>554.34</ele>
        <time>2021-08-16T12:55:46Z</time>
      </trkpt>
      <trkpt lat="44.97635" lon="1.97034">
        <ele>555.3</ele>
        <time>2021-08-16T12:55:55Z</time>
      </trkpt>
      <trkpt lat="44.97639" lon="1.96977">
        <ele>555.78</ele>
        <time>2021-08-16T12:56:04Z</time>
      </trkpt>
      <trkpt lat="44.9764" lon="1.96963">
        <ele>555.78</ele>
        <time>2021-08-16T12:56:06Z</time>
      </trkpt>
      <trkpt lat="44.97647" lon="1.96895">
        <ele>554.82</ele>
        <time>2021-08-16T12:56:15Z</time>
      </trkpt>
      <trkpt lat="44.97648" lon="1.96887">
        <ele>554.34</ele>
        <time>2021-08-16T12:56:16Z</time>
      </trkpt>
      <trkpt lat="44.97655" lon="1.96817">
        <ele>553.38</ele>
        <time>2021-08-16T12:56:25Z</time>
      </trkpt>
      <trkpt lat="44.97656" lon="1.9681">
        <ele>553.38</ele>
        <time>2021-08-16T12:56:26Z</time>
      </trkpt>
      <trkpt lat="44.97664" lon="1.96737">
        <ele>552.41</ele>
        <time>2021-08-16T12:56:35Z</time>
      </trkpt>
      <trkpt lat="44.97671" lon="1.96666">
        <ele>551.45</ele>
        <time>2021-08-16T12:56:43Z</time>
      </trkpt>
      <trkpt lat="44.97671" lon="1.96639">
        <ele>550.97</ele>
        <time>2021-08-16T12:56:46Z</time>
      </trkpt>
      <trkpt lat="44.97669" lon="1.9663">
        <ele>550.97</ele>
        <time>2021-08-16T12:56:47Z</time>
      </trkpt>
      <trkpt lat="44.97667" lon="1.96623">
        <ele>550.97</ele>
        <time>2021-08-16T12:56:48Z</time>
      </trkpt>
      <trkpt lat="44.9765" lon="1.96583">
        <ele>550.97</ele>
        <time>2021-08-16T12:56:55Z</time>
      </trkpt>
      <trkpt lat="44.97641" lon="1.96563">
        <ele>552.41</ele>
        <time>2021-08-16T12:56:59Z</time>
      </trkpt>
      <trkpt lat="44.97622" lon="1.96518">
        <ele>552.9</ele>
        <time>2021-08-16T12:57:08Z</time>
      </trkpt>
      <trkpt lat="44.97609" lon="1.96489">
        <ele>554.34</ele>
        <time>2021-08-16T12:57:16Z</time>
      </trkpt>
      <trkpt lat="44.97598" lon="1.96465">
        <ele>556.26</ele>
        <time>2021-08-16T12:57:24Z</time>
      </trkpt>
      <trkpt lat="44.97581" lon="1.96429">
        <ele>557.7</ele>
        <time>2021-08-16T12:57:34Z</time>
      </trkpt>
      <trkpt lat="44.97557" lon="1.96374">
        <ele>558.18</ele>
        <time>2021-08-16T12:57:46Z</time>
      </trkpt>
      <trkpt lat="44.97546" lon="1.96335">
        <ele>557.22</ele>
        <time>2021-08-16T12:57:52Z</time>
      </trkpt>
      <trkpt lat="44.97543" lon="1.96321">
        <ele>557.22</ele>
        <time>2021-08-16T12:57:54Z</time>
      </trkpt>
      <trkpt lat="44.97533" lon="1.96256">
        <ele>554.82</ele>
        <time>2021-08-16T12:58:03Z</time>
      </trkpt>
      <trkpt lat="44.97523" lon="1.96197">
        <ele>553.38</ele>
        <time>2021-08-16T12:58:10Z</time>
      </trkpt>
      <trkpt lat="44.97509" lon="1.96115">
        <ele>551.45</ele>
        <time>2021-08-16T12:58:19Z</time>
      </trkpt>
      <trkpt lat="44.97493" lon="1.96056">
        <ele>550.97</ele>
        <time>2021-08-16T12:58:26Z</time>
      </trkpt>
      <trkpt lat="44.97477" lon="1.96028">
        <ele>550.97</ele>
        <time>2021-08-16T12:58:30Z</time>
      </trkpt>
      <trkpt lat="44.9743" lon="1.95977">
        <ele>550.97</ele>
        <time>2021-08-16T12:58:40Z</time>
      </trkpt>
      <trkpt lat="44.97425" lon="1.95972">
        <ele>550.97</ele>
        <time>2021-08-16T12:58:41Z</time>
      </trkpt>
      <trkpt lat="44.97371" lon="1.95924">
        <ele>550.97</ele>
        <time>2021-08-16T12:58:52Z</time>
      </trkpt>
      <trkpt lat="44.97323" lon="1.95881">
        <ele>550.49</ele>
        <time>2021-08-16T12:59:01Z</time>
      </trkpt>
      <trkpt lat="44.97272" lon="1.9584">
        <ele>549.53</ele>
        <time>2021-08-16T12:59:10Z</time>
      </trkpt>
      <trkpt lat="44.97214" lon="1.95813">
        <ele>548.57</ele>
        <time>2021-08-16T12:59:19Z</time>
      </trkpt>
      <trkpt lat="44.97142" lon="1.9578">
        <ele>547.61</ele>
        <time>2021-08-16T12:59:31Z</time>
      </trkpt>
      <trkpt lat="44.97103" lon="1.95761">
        <ele>547.61</ele>
        <time>2021-08-16T12:59:38Z</time>
      </trkpt>
      <trkpt lat="44.97087" lon="1.95754">
        <ele>547.13</ele>
        <time>2021-08-16T12:59:41Z</time>
      </trkpt>
      <trkpt lat="44.97072" lon="1.95746">
        <ele>546.65</ele>
        <time>2021-08-16T12:59:44Z</time>
      </trkpt>
      <trkpt lat="44.97028" lon="1.95724">
        <ele>544.72</ele>
        <time>2021-08-16T12:59:52Z</time>
      </trkpt>
      <trkpt lat="44.97023" lon="1.9572">
        <ele>543.76</ele>
        <time>2021-08-16T12:59:53Z</time>
      </trkpt>
      <trkpt lat="44.96976" lon="1.95688">
        <ele>541.36</ele>
        <time>2021-08-16T13:00:00Z</time>
      </trkpt>
      <trkpt lat="44.96939" lon="1.95655">
        <ele>538.48</ele>
        <time>2021-08-16T13:00:05Z</time>
      </trkpt>
      <trkpt lat="44.96932" lon="1.95646">
        <ele>537.99</ele>
        <time>2021-08-16T13:00:06Z</time>
      </trkpt>
      <trkpt lat="44.96926" lon="1.95636">
        <ele>537.51</ele>
        <time>2021-08-16T13:00:07Z</time>
      </trkpt>
      <trkpt lat="44.96922" lon="1.95625">
        <ele>537.51</ele>
        <time>2021-08-16T13:00:08Z</time>
      </trkpt>
      <trkpt lat="44.96918" lon="1.95612">
        <ele>537.03</ele>
        <time>2021-08-16T13:00:09Z</time>
      </trkpt>
      <trkpt lat="44.96917" lon="1.956">
        <ele>536.55</ele>
        <time>2021-08-16T13:00:10Z</time>
      </trkpt>
      <trkpt lat="44.96917" lon="1.95586">
        <ele>536.07</ele>
        <time>2021-08-16T13:00:11Z</time>
      </trkpt>
      <trkpt lat="44.96918" lon="1.95573">
        <ele>536.07</ele>
        <time>2021-08-16T13:00:12Z</time>
      </trkpt>
      <trkpt lat="44.96921" lon="1.9556">
        <ele>535.11</ele>
        <time>2021-08-16T13:00:13Z</time>
      </trkpt>
      <trkpt lat="44.96923" lon="1.95548">
        <ele>534.63</ele>
        <time>2021-08-16T13:00:14Z</time>
      </trkpt>
      <trkpt lat="44.96933" lon="1.95511">
        <ele>533.19</ele>
        <time>2021-08-16T13:00:17Z</time>
      </trkpt>
      <trkpt lat="44.96945" lon="1.95476">
        <ele>531.75</ele>
        <time>2021-08-16T13:00:20Z</time>
      </trkpt>
      <trkpt lat="44.96956" lon="1.95455">
        <ele>530.79</ele>
        <time>2021-08-16T13:00:22Z</time>
      </trkpt>
      <trkpt lat="44.96996" lon="1.95401">
        <ele>527.9</ele>
        <time>2021-08-16T13:00:28Z</time>
      </trkpt>
      <trkpt lat="44.97007" lon="1.95381">
        <ele>526.94</ele>
        <time>2021-08-16T13:00:30Z</time>
      </trkpt>
      <trkpt lat="44.9701" lon="1.95369">
        <ele>526.46</ele>
        <time>2021-08-16T13:00:31Z</time>
      </trkpt>
      <trkpt lat="44.97013" lon="1.95356">
        <ele>525.5</ele>
        <time>2021-08-16T13:00:32Z</time>
      </trkpt>
      <trkpt lat="44.97014" lon="1.95344">
        <ele>525.5</ele>
        <time>2021-08-16T13:00:33Z</time>
      </trkpt>
      <trkpt lat="44.97015" lon="1.95331">
        <ele>524.54</ele>
        <time>2021-08-16T13:00:34Z</time>
      </trkpt>
      <trkpt lat="44.97022" lon="1.9525">
        <ele>521.65</ele>
        <time>2021-08-16T13:00:40Z</time>
      </trkpt>
      <trkpt lat="44.97022" lon="1.95182">
        <ele>518.29</ele>
        <time>2021-08-16T13:00:45Z</time>
      </trkpt>
      <trkpt lat="44.97023" lon="1.95155">
        <ele>516.85</ele>
        <time>2021-08-16T13:00:47Z</time>
      </trkpt>
      <trkpt lat="44.97025" lon="1.95141">
        <ele>516.85</ele>
        <time>2021-08-16T13:00:48Z</time>
      </trkpt>
      <trkpt lat="44.97027" lon="1.95127">
        <ele>515.88</ele>
        <time>2021-08-16T13:00:49Z</time>
      </trkpt>
      <trkpt lat="44.9703" lon="1.95113">
        <ele>514.92</ele>
        <time>2021-08-16T13:00:50Z</time>
      </trkpt>
      <trkpt lat="44.97034" lon="1.95102">
        <ele>514.92</ele>
        <time>2021-08-16T13:00:51Z</time>
      </trkpt>
      <trkpt lat="44.9704" lon="1.95089">
        <ele>513.96</ele>
        <time>2021-08-16T13:00:52Z</time>
      </trkpt>
      <trkpt lat="44.97046" lon="1.95075">
        <ele>513.48</ele>
        <time>2021-08-16T13:00:53Z</time>
      </trkpt>
      <trkpt lat="44.97081" lon="1.95007">
        <ele>510.12</ele>
        <time>2021-08-16T13:00:59Z</time>
      </trkpt>
      <trkpt lat="44.97101" lon="1.94953">
        <ele>506.75</ele>
        <time>2021-08-16T13:01:03Z</time>
      </trkpt>
      <trkpt lat="44.97115" lon="1.9491">
        <ele>503.39</ele>
        <time>2021-08-16T13:01:06Z</time>
      </trkpt>
      <trkpt lat="44.97128" lon="1.94883">
        <ele>501.95</ele>
        <time>2021-08-16T13:01:08Z</time>
      </trkpt>
      <trkpt lat="44.97136" lon="1.94872">
        <ele>500.98</ele>
        <time>2021-08-16T13:01:09Z</time>
      </trkpt>
      <trkpt lat="44.97144" lon="1.94863">
        <ele>500.5</ele>
        <time>2021-08-16T13:01:10Z</time>
      </trkpt>
      <trkpt lat="44.97164" lon="1.94847">
        <ele>498.58</ele>
        <time>2021-08-16T13:01:12Z</time>
      </trkpt>
      <trkpt lat="44.97174" lon="1.9484">
        <ele>498.1</ele>
        <time>2021-08-16T13:01:13Z</time>
      </trkpt>
      <trkpt lat="44.97183" lon="1.94832">
        <ele>497.62</ele>
        <time>2021-08-16T13:01:14Z</time>
      </trkpt>
      <trkpt lat="44.97192" lon="1.94823">
        <ele>496.66</ele>
        <time>2021-08-16T13:01:15Z</time>
      </trkpt>
      <trkpt lat="44.97201" lon="1.94813">
        <ele>496.18</ele>
        <time>2021-08-16T13:01:16Z</time>
      </trkpt>
      <trkpt lat="44.97208" lon="1.94801">
        <ele>494.74</ele>
        <time>2021-08-16T13:01:17Z</time>
      </trkpt>
      <trkpt lat="44.97214" lon="1.94788">
        <ele>494.26</ele>
        <time>2021-08-16T13:01:18Z</time>
      </trkpt>
      <trkpt lat="44.97219" lon="1.94773">
        <ele>493.29</ele>
        <time>2021-08-16T13:01:19Z</time>
      </trkpt>
      <trkpt lat="44.97223" lon="1.94759">
        <ele>492.33</ele>
        <time>2021-08-16T13:01:20Z</time>
      </trkpt>
      <trkpt lat="44.97227" lon="1.94743">
        <ele>490.89</ele>
        <time>2021-08-16T13:01:21Z</time>
      </trkpt>
      <trkpt lat="44.9723" lon="1.94728">
        <ele>491.37</ele>
        <time>2021-08-16T13:01:22Z</time>
      </trkpt>
      <trkpt lat="44.97241" lon="1.94664">
        <ele>488.01</ele>
        <time>2021-08-16T13:01:26Z</time>
      </trkpt>
      <trkpt lat="44.97252" lon="1.94599">
        <ele>484.64</ele>
        <time>2021-08-16T13:01:30Z</time>
      </trkpt>
      <trkpt lat="44.97263" lon="1.94531">
        <ele>481.28</ele>
        <time>2021-08-16T13:01:34Z</time>
      </trkpt>
      <trkpt lat="44.97274" lon="1.94465">
        <ele>477.91</ele>
        <time>2021-08-16T13:01:38Z</time>
      </trkpt>
      <trkpt lat="44.9728" lon="1.94412">
        <ele>475.03</ele>
        <time>2021-08-16T13:01:41Z</time>
      </trkpt>
      <trkpt lat="44.97284" lon="1.94342">
        <ele>471.66</ele>
        <time>2021-08-16T13:01:45Z</time>
      </trkpt>
      <trkpt lat="44.97286" lon="1.94275">
        <ele>467.82</ele>
        <time>2021-08-16T13:01:49Z</time>
      </trkpt>
      <trkpt lat="44.97284" lon="1.9426">
        <ele>467.34</ele>
        <time>2021-08-16T13:01:50Z</time>
      </trkpt>
      <trkpt lat="44.97279" lon="1.94245">
        <ele>465.9</ele>
        <time>2021-08-16T13:01:51Z</time>
      </trkpt>
      <trkpt lat="44.97273" lon="1.94232">
        <ele>464.93</ele>
        <time>2021-08-16T13:01:52Z</time>
      </trkpt>
      <trkpt lat="44.97266" lon="1.94218">
        <ele>463.49</ele>
        <time>2021-08-16T13:01:53Z</time>
      </trkpt>
      <trkpt lat="44.97258" lon="1.94206">
        <ele>462.53</ele>
        <time>2021-08-16T13:01:54Z</time>
      </trkpt>
      <trkpt lat="44.97249" lon="1.94197">
        <ele>461.57</ele>
        <time>2021-08-16T13:01:55Z</time>
      </trkpt>
      <trkpt lat="44.97238" lon="1.94186">
        <ele>460.61</ele>
        <time>2021-08-16T13:01:56Z</time>
      </trkpt>
      <trkpt lat="44.97209" lon="1.94161">
        <ele>457.24</ele>
        <time>2021-08-16T13:01:59Z</time>
      </trkpt>
      <trkpt lat="44.97169" lon="1.94125">
        <ele>453.4</ele>
        <time>2021-08-16T13:02:03Z</time>
      </trkpt>
      <trkpt lat="44.97154" lon="1.94109">
        <ele>451.48</ele>
        <time>2021-08-16T13:02:05Z</time>
      </trkpt>
      <trkpt lat="44.97148" lon="1.941">
        <ele>451</ele>
        <time>2021-08-16T13:02:06Z</time>
      </trkpt>
      <trkpt lat="44.97145" lon="1.94092">
        <ele>450.52</ele>
        <time>2021-08-16T13:02:07Z</time>
      </trkpt>
      <trkpt lat="44.97142" lon="1.94083">
        <ele>450.03</ele>
        <time>2021-08-16T13:02:08Z</time>
      </trkpt>
      <trkpt lat="44.9714" lon="1.94073">
        <ele>449.07</ele>
        <time>2021-08-16T13:02:09Z</time>
      </trkpt>
      <trkpt lat="44.9714" lon="1.94064">
        <ele>448.59</ele>
        <time>2021-08-16T13:02:10Z</time>
      </trkpt>
      <trkpt lat="44.97138" lon="1.94042">
        <ele>447.63</ele>
        <time>2021-08-16T13:02:12Z</time>
      </trkpt>
      <trkpt lat="44.97136" lon="1.94033">
        <ele>447.63</ele>
        <time>2021-08-16T13:02:13Z</time>
      </trkpt>
      <trkpt lat="44.97133" lon="1.94024">
        <ele>447.63</ele>
        <time>2021-08-16T13:02:14Z</time>
      </trkpt>
      <trkpt lat="44.9713" lon="1.94015">
        <ele>447.15</ele>
        <time>2021-08-16T13:02:15Z</time>
      </trkpt>
      <trkpt lat="44.97126" lon="1.94005">
        <ele>447.15</ele>
        <time>2021-08-16T13:02:16Z</time>
      </trkpt>
      <trkpt lat="44.97122" lon="1.93998">
        <ele>447.15</ele>
        <time>2021-08-16T13:02:17Z</time>
      </trkpt>
      <trkpt lat="44.97099" lon="1.93961">
        <ele>445.71</ele>
        <time>2021-08-16T13:02:22Z</time>
      </trkpt>
      <trkpt lat="44.97062" lon="1.93906">
        <ele>443.79</ele>
        <time>2021-08-16T13:02:29Z</time>
      </trkpt>
      <trkpt lat="44.97055" lon="1.939">
        <ele>442.82</ele>
        <time>2021-08-16T13:02:30Z</time>
      </trkpt>
      <trkpt lat="44.97048" lon="1.93896">
        <ele>442.82</ele>
        <time>2021-08-16T13:02:31Z</time>
      </trkpt>
      <trkpt lat="44.97039" lon="1.93894">
        <ele>442.34</ele>
        <time>2021-08-16T13:02:32Z</time>
      </trkpt>
      <trkpt lat="44.9703" lon="1.93895">
        <ele>442.34</ele>
        <time>2021-08-16T13:02:33Z</time>
      </trkpt>
      <trkpt lat="44.97022" lon="1.93897">
        <ele>441.86</ele>
        <time>2021-08-16T13:02:34Z</time>
      </trkpt>
      <trkpt lat="44.96969" lon="1.93901">
        <ele>439.94</ele>
        <time>2021-08-16T13:02:40Z</time>
      </trkpt>
      <trkpt lat="44.96952" lon="1.93897">
        <ele>438.98</ele>
        <time>2021-08-16T13:02:42Z</time>
      </trkpt>
      <trkpt lat="44.96945" lon="1.93894">
        <ele>438.98</ele>
        <time>2021-08-16T13:02:43Z</time>
      </trkpt>
      <trkpt lat="44.96929" lon="1.93888">
        <ele>438.98</ele>
        <time>2021-08-16T13:02:45Z</time>
      </trkpt>
      <trkpt lat="44.9692" lon="1.93888">
        <ele>438.5</ele>
        <time>2021-08-16T13:02:46Z</time>
      </trkpt>
      <trkpt lat="44.96914" lon="1.93893">
        <ele>438.5</ele>
        <time>2021-08-16T13:02:47Z</time>
      </trkpt>
      <trkpt lat="44.96909" lon="1.93901">
        <ele>437.54</ele>
        <time>2021-08-16T13:02:48Z</time>
      </trkpt>
      <trkpt lat="44.96904" lon="1.93911">
        <ele>437.54</ele>
        <time>2021-08-16T13:02:49Z</time>
      </trkpt>
      <trkpt lat="44.96901" lon="1.93921">
        <ele>437.06</ele>
        <time>2021-08-16T13:02:50Z</time>
      </trkpt>
      <trkpt lat="44.96897" lon="1.93931">
        <ele>437.06</ele>
        <time>2021-08-16T13:02:51Z</time>
      </trkpt>
      <trkpt lat="44.96893" lon="1.93942">
        <ele>436.1</ele>
        <time>2021-08-16T13:02:52Z</time>
      </trkpt>
      <trkpt lat="44.96887" lon="1.9395">
        <ele>435.61</ele>
        <time>2021-08-16T13:02:53Z</time>
      </trkpt>
      <trkpt lat="44.96881" lon="1.93957">
        <ele>435.13</ele>
        <time>2021-08-16T13:02:54Z</time>
      </trkpt>
      <trkpt lat="44.96875" lon="1.93963">
        <ele>435.13</ele>
        <time>2021-08-16T13:02:55Z</time>
      </trkpt>
      <trkpt lat="44.96867" lon="1.9397">
        <ele>434.65</ele>
        <time>2021-08-16T13:02:56Z</time>
      </trkpt>
      <trkpt lat="44.96838" lon="1.93992">
        <ele>433.21</ele>
        <time>2021-08-16T13:03:00Z</time>
      </trkpt>
      <trkpt lat="44.96822" lon="1.94002">
        <ele>432.25</ele>
        <time>2021-08-16T13:03:02Z</time>
      </trkpt>
      <trkpt lat="44.96813" lon="1.94005">
        <ele>431.77</ele>
        <time>2021-08-16T13:03:03Z</time>
      </trkpt>
      <trkpt lat="44.96805" lon="1.94008">
        <ele>431.77</ele>
        <time>2021-08-16T13:03:04Z</time>
      </trkpt>
      <trkpt lat="44.96736" lon="1.9402">
        <ele>429.37</ele>
        <time>2021-08-16T13:03:12Z</time>
      </trkpt>
      <trkpt lat="44.96681" lon="1.94015">
        <ele>427.44</ele>
        <time>2021-08-16T13:03:18Z</time>
      </trkpt>
      <trkpt lat="44.96645" lon="1.94014">
        <ele>426</ele>
        <time>2021-08-16T13:03:22Z</time>
      </trkpt>
      <trkpt lat="44.96579" lon="1.94023">
        <ele>423.6</ele>
        <time>2021-08-16T13:03:29Z</time>
      </trkpt>
      <trkpt lat="44.96505" lon="1.94015">
        <ele>420.23</ele>
        <time>2021-08-16T13:03:37Z</time>
      </trkpt>
      <trkpt lat="44.96432" lon="1.93998">
        <ele>417.83</ele>
        <time>2021-08-16T13:03:45Z</time>
      </trkpt>
      <trkpt lat="44.96424" lon="1.93993">
        <ele>417.83</ele>
        <time>2021-08-16T13:03:46Z</time>
      </trkpt>
      <trkpt lat="44.96416" lon="1.93986">
        <ele>416.87</ele>
        <time>2021-08-16T13:03:47Z</time>
      </trkpt>
      <trkpt lat="44.96409" lon="1.93978">
        <ele>416.39</ele>
        <time>2021-08-16T13:03:48Z</time>
      </trkpt>
      <trkpt lat="44.96403" lon="1.93967">
        <ele>416.39</ele>
        <time>2021-08-16T13:03:49Z</time>
      </trkpt>
      <trkpt lat="44.96399" lon="1.93956">
        <ele>415.91</ele>
        <time>2021-08-16T13:03:50Z</time>
      </trkpt>
      <trkpt lat="44.96396" lon="1.93945">
        <ele>415.43</ele>
        <time>2021-08-16T13:03:51Z</time>
      </trkpt>
      <trkpt lat="44.96388" lon="1.93923">
        <ele>414.95</ele>
        <time>2021-08-16T13:03:53Z</time>
      </trkpt>
      <trkpt lat="44.96383" lon="1.93914">
        <ele>414.47</ele>
        <time>2021-08-16T13:03:54Z</time>
      </trkpt>
      <trkpt lat="44.96355" lon="1.93857">
        <ele>412.54</ele>
        <time>2021-08-16T13:04:00Z</time>
      </trkpt>
      <trkpt lat="44.96352" lon="1.93847">
        <ele>412.54</ele>
        <time>2021-08-16T13:04:01Z</time>
      </trkpt>
      <trkpt lat="44.96352" lon="1.93836">
        <ele>411.58</ele>
        <time>2021-08-16T13:04:02Z</time>
      </trkpt>
      <trkpt lat="44.96354" lon="1.93824">
        <ele>411.58</ele>
        <time>2021-08-16T13:04:03Z</time>
      </trkpt>
      <trkpt lat="44.96358" lon="1.93815">
        <ele>411.1</ele>
        <time>2021-08-16T13:04:04Z</time>
      </trkpt>
      <trkpt lat="44.96363" lon="1.93806">
        <ele>411.1</ele>
        <time>2021-08-16T13:04:05Z</time>
      </trkpt>
      <trkpt lat="44.9637" lon="1.93799">
        <ele>410.62</ele>
        <time>2021-08-16T13:04:06Z</time>
      </trkpt>
      <trkpt lat="44.96376" lon="1.93793">
        <ele>410.62</ele>
        <time>2021-08-16T13:04:07Z</time>
      </trkpt>
      <trkpt lat="44.96383" lon="1.93786">
        <ele>410.14</ele>
        <time>2021-08-16T13:04:08Z</time>
      </trkpt>
      <trkpt lat="44.96389" lon="1.93779">
        <ele>409.66</ele>
        <time>2021-08-16T13:04:09Z</time>
      </trkpt>
      <trkpt lat="44.96395" lon="1.9377">
        <ele>409.66</ele>
        <time>2021-08-16T13:04:10Z</time>
      </trkpt>
      <trkpt lat="44.964" lon="1.93761">
        <ele>409.18</ele>
        <time>2021-08-16T13:04:11Z</time>
      </trkpt>
      <trkpt lat="44.96405" lon="1.93751">
        <ele>409.18</ele>
        <time>2021-08-16T13:04:12Z</time>
      </trkpt>
      <trkpt lat="44.96443" lon="1.93685">
        <ele>406.77</ele>
        <time>2021-08-16T13:04:19Z</time>
      </trkpt>
      <trkpt lat="44.96461" lon="1.93655">
        <ele>405.33</ele>
        <time>2021-08-16T13:04:22Z</time>
      </trkpt>
      <trkpt lat="44.96501" lon="1.93585">
        <ele>403.41</ele>
        <time>2021-08-16T13:04:29Z</time>
      </trkpt>
      <trkpt lat="44.96506" lon="1.93573">
        <ele>402.93</ele>
        <time>2021-08-16T13:04:30Z</time>
      </trkpt>
      <trkpt lat="44.96507" lon="1.93562">
        <ele>402.45</ele>
        <time>2021-08-16T13:04:31Z</time>
      </trkpt>
      <trkpt lat="44.96505" lon="1.9355">
        <ele>401.49</ele>
        <time>2021-08-16T13:04:32Z</time>
      </trkpt>
      <trkpt lat="44.965" lon="1.93541">
        <ele>401.49</ele>
        <time>2021-08-16T13:04:33Z</time>
      </trkpt>
      <trkpt lat="44.96491" lon="1.93536">
        <ele>401.01</ele>
        <time>2021-08-16T13:04:34Z</time>
      </trkpt>
      <trkpt lat="44.96483" lon="1.93535">
        <ele>401.01</ele>
        <time>2021-08-16T13:04:35Z</time>
      </trkpt>
      <trkpt lat="44.96474" lon="1.93537">
        <ele>401.01</ele>
        <time>2021-08-16T13:04:36Z</time>
      </trkpt>
      <trkpt lat="44.96465" lon="1.9354">
        <ele>400.05</ele>
        <time>2021-08-16T13:04:37Z</time>
      </trkpt>
      <trkpt lat="44.9643" lon="1.93548">
        <ele>398.12</ele>
        <time>2021-08-16T13:04:41Z</time>
      </trkpt>
      <trkpt lat="44.96356" lon="1.93561">
        <ele>395.72</ele>
        <time>2021-08-16T13:04:49Z</time>
      </trkpt>
      <trkpt lat="44.9629" lon="1.93575">
        <ele>393.32</ele>
        <time>2021-08-16T13:04:56Z</time>
      </trkpt>
      <trkpt lat="44.96207" lon="1.93602">
        <ele>390.43</ele>
        <time>2021-08-16T13:05:05Z</time>
      </trkpt>
      <trkpt lat="44.96189" lon="1.93608">
        <ele>389.47</ele>
        <time>2021-08-16T13:05:07Z</time>
      </trkpt>
      <trkpt lat="44.9618" lon="1.93608">
        <ele>388.99</ele>
        <time>2021-08-16T13:05:08Z</time>
      </trkpt>
      <trkpt lat="44.96171" lon="1.93605">
        <ele>388.51</ele>
        <time>2021-08-16T13:05:09Z</time>
      </trkpt>
      <trkpt lat="44.96164" lon="1.936">
        <ele>388.51</ele>
        <time>2021-08-16T13:05:10Z</time>
      </trkpt>
      <trkpt lat="44.96157" lon="1.93594">
        <ele>388.51</ele>
        <time>2021-08-16T13:05:11Z</time>
      </trkpt>
      <trkpt lat="44.96151" lon="1.93587">
        <ele>388.51</ele>
        <time>2021-08-16T13:05:12Z</time>
      </trkpt>
      <trkpt lat="44.96144" lon="1.93582">
        <ele>388.51</ele>
        <time>2021-08-16T13:05:13Z</time>
      </trkpt>
      <trkpt lat="44.96137" lon="1.93579">
        <ele>388.03</ele>
        <time>2021-08-16T13:05:14Z</time>
      </trkpt>
      <trkpt lat="44.96131" lon="1.93581">
        <ele>387.55</ele>
        <time>2021-08-16T13:05:15Z</time>
      </trkpt>
      <trkpt lat="44.96124" lon="1.93586">
        <ele>387.55</ele>
        <time>2021-08-16T13:05:16Z</time>
      </trkpt>
      <trkpt lat="44.96118" lon="1.93594">
        <ele>387.07</ele>
        <time>2021-08-16T13:05:17Z</time>
      </trkpt>
      <trkpt lat="44.96114" lon="1.93603">
        <ele>386.59</ele>
        <time>2021-08-16T13:05:18Z</time>
      </trkpt>
      <trkpt lat="44.96109" lon="1.93613">
        <ele>386.11</ele>
        <time>2021-08-16T13:05:19Z</time>
      </trkpt>
      <trkpt lat="44.96074" lon="1.93676">
        <ele>383.22</ele>
        <time>2021-08-16T13:05:26Z</time>
      </trkpt>
      <trkpt lat="44.96059" lon="1.93703">
        <ele>382.26</ele>
        <time>2021-08-16T13:05:29Z</time>
      </trkpt>
      <trkpt lat="44.96053" lon="1.9371">
        <ele>381.78</ele>
        <time>2021-08-16T13:05:30Z</time>
      </trkpt>
      <trkpt lat="44.96046" lon="1.93716">
        <ele>381.78</ele>
        <time>2021-08-16T13:05:31Z</time>
      </trkpt>
      <trkpt lat="44.9604" lon="1.9372">
        <ele>381.78</ele>
        <time>2021-08-16T13:05:32Z</time>
      </trkpt>
      <trkpt lat="44.96035" lon="1.93721">
        <ele>381.78</ele>
        <time>2021-08-16T13:05:33Z</time>
      </trkpt>
      <trkpt lat="44.96033" lon="1.93721">
        <ele>381.78</ele>
        <time>2021-08-16T13:05:34Z</time>
      </trkpt>
      <trkpt lat="44.96032" lon="1.9372">
        <ele>381.78</ele>
        <time>2021-08-16T13:05:40Z</time>
      </trkpt>
      <trkpt lat="44.96033" lon="1.93721">
        <ele>381.78</ele>
        <time>2021-08-16T13:05:59Z</time>
      </trkpt>
      <trkpt lat="44.96031" lon="1.93722">
        <ele>381.78</ele>
        <time>2021-08-16T13:06:06Z</time>
      </trkpt>
      <trkpt lat="44.96029" lon="1.93723">
        <ele>381.78</ele>
        <time>2021-08-16T13:06:07Z</time>
      </trkpt>
      <trkpt lat="44.96027" lon="1.93724">
        <ele>381.78</ele>
        <time>2021-08-16T13:06:08Z</time>
      </trkpt>
      <trkpt lat="44.96007" lon="1.93729">
        <ele>380.82</ele>
        <time>2021-08-16T13:06:14Z</time>
      </trkpt>
      <trkpt lat="44.96003" lon="1.93728">
        <ele>380.82</ele>
        <time>2021-08-16T13:06:15Z</time>
      </trkpt>
      <trkpt lat="44.95999" lon="1.93727">
        <ele>380.34</ele>
        <time>2021-08-16T13:06:16Z</time>
      </trkpt>
      <trkpt lat="44.95993" lon="1.93724">
        <ele>379.86</ele>
        <time>2021-08-16T13:06:17Z</time>
      </trkpt>
      <trkpt lat="44.95988" lon="1.93721">
        <ele>379.86</ele>
        <time>2021-08-16T13:06:18Z</time>
      </trkpt>
      <trkpt lat="44.95983" lon="1.93717">
        <ele>379.86</ele>
        <time>2021-08-16T13:06:19Z</time>
      </trkpt>
      <trkpt lat="44.95979" lon="1.93713">
        <ele>379.38</ele>
        <time>2021-08-16T13:06:20Z</time>
      </trkpt>
      <trkpt lat="44.95974" lon="1.93708">
        <ele>378.9</ele>
        <time>2021-08-16T13:06:21Z</time>
      </trkpt>
      <trkpt lat="44.95968" lon="1.93703">
        <ele>378.42</ele>
        <time>2021-08-16T13:06:22Z</time>
      </trkpt>
      <trkpt lat="44.95964" lon="1.93699">
        <ele>378.42</ele>
        <time>2021-08-16T13:06:23Z</time>
      </trkpt>
      <trkpt lat="44.95919" lon="1.93659">
        <ele>376.49</ele>
        <time>2021-08-16T13:06:31Z</time>
      </trkpt>
      <trkpt lat="44.95871" lon="1.93635">
        <ele>374.09</ele>
        <time>2021-08-16T13:06:38Z</time>
      </trkpt>
      <trkpt lat="44.9585" lon="1.93621">
        <ele>372.65</ele>
        <time>2021-08-16T13:06:41Z</time>
      </trkpt>
      <trkpt lat="44.95844" lon="1.93615">
        <ele>372.65</ele>
        <time>2021-08-16T13:06:42Z</time>
      </trkpt>
      <trkpt lat="44.95802" lon="1.9356">
        <ele>370.73</ele>
        <time>2021-08-16T13:06:49Z</time>
      </trkpt>
      <trkpt lat="44.95768" lon="1.93496">
        <ele>367.84</ele>
        <time>2021-08-16T13:06:56Z</time>
      </trkpt>
      <trkpt lat="44.95726" lon="1.93424">
        <ele>365.44</ele>
        <time>2021-08-16T13:07:04Z</time>
      </trkpt>
      <trkpt lat="44.95718" lon="1.93417">
        <ele>365.44</ele>
        <time>2021-08-16T13:07:05Z</time>
      </trkpt>
      <trkpt lat="44.9571" lon="1.93412">
        <ele>364.48</ele>
        <time>2021-08-16T13:07:06Z</time>
      </trkpt>
      <trkpt lat="44.95702" lon="1.93407">
        <ele>364</ele>
        <time>2021-08-16T13:07:07Z</time>
      </trkpt>
      <trkpt lat="44.95693" lon="1.93403">
        <ele>364</ele>
        <time>2021-08-16T13:07:08Z</time>
      </trkpt>
      <trkpt lat="44.95661" lon="1.93385">
        <ele>362.55</ele>
        <time>2021-08-16T13:07:12Z</time>
      </trkpt>
      <trkpt lat="44.95656" lon="1.93379">
        <ele>362.55</ele>
        <time>2021-08-16T13:07:13Z</time>
      </trkpt>
      <trkpt lat="44.95651" lon="1.93369">
        <ele>362.07</ele>
        <time>2021-08-16T13:07:14Z</time>
      </trkpt>
      <trkpt lat="44.95647" lon="1.9336">
        <ele>361.59</ele>
        <time>2021-08-16T13:07:15Z</time>
      </trkpt>
      <trkpt lat="44.95645" lon="1.93351">
        <ele>361.59</ele>
        <time>2021-08-16T13:07:16Z</time>
      </trkpt>
      <trkpt lat="44.95644" lon="1.93341">
        <ele>361.11</ele>
        <time>2021-08-16T13:07:17Z</time>
      </trkpt>
      <trkpt lat="44.95644" lon="1.93328">
        <ele>361.11</ele>
        <time>2021-08-16T13:07:18Z</time>
      </trkpt>
      <trkpt lat="44.95645" lon="1.93319">
        <ele>361.11</ele>
        <time>2021-08-16T13:07:19Z</time>
      </trkpt>
      <trkpt lat="44.95647" lon="1.93308">
        <ele>360.15</ele>
        <time>2021-08-16T13:07:20Z</time>
      </trkpt>
      <trkpt lat="44.9565" lon="1.93299">
        <ele>360.15</ele>
        <time>2021-08-16T13:07:21Z</time>
      </trkpt>
      <trkpt lat="44.95653" lon="1.9329">
        <ele>359.67</ele>
        <time>2021-08-16T13:07:22Z</time>
      </trkpt>
      <trkpt lat="44.95658" lon="1.93282">
        <ele>359.67</ele>
        <time>2021-08-16T13:07:23Z</time>
      </trkpt>
      <trkpt lat="44.95663" lon="1.93275">
        <ele>359.67</ele>
        <time>2021-08-16T13:07:24Z</time>
      </trkpt>
      <trkpt lat="44.95669" lon="1.93268">
        <ele>359.19</ele>
        <time>2021-08-16T13:07:25Z</time>
      </trkpt>
      <trkpt lat="44.95675" lon="1.93262">
        <ele>358.71</ele>
        <time>2021-08-16T13:07:26Z</time>
      </trkpt>
      <trkpt lat="44.95681" lon="1.93256">
        <ele>358.71</ele>
        <time>2021-08-16T13:07:27Z</time>
      </trkpt>
      <trkpt lat="44.9573" lon="1.93207">
        <ele>356.31</ele>
        <time>2021-08-16T13:07:35Z</time>
      </trkpt>
      <trkpt lat="44.95779" lon="1.93145">
        <ele>354.38</ele>
        <time>2021-08-16T13:07:43Z</time>
      </trkpt>
      <trkpt lat="44.95784" lon="1.93137">
        <ele>353.9</ele>
        <time>2021-08-16T13:07:44Z</time>
      </trkpt>
      <trkpt lat="44.9579" lon="1.93129">
        <ele>353.42</ele>
        <time>2021-08-16T13:07:45Z</time>
      </trkpt>
      <trkpt lat="44.95793" lon="1.93118">
        <ele>352.94</ele>
        <time>2021-08-16T13:07:46Z</time>
      </trkpt>
      <trkpt lat="44.95793" lon="1.93107">
        <ele>352.94</ele>
        <time>2021-08-16T13:07:47Z</time>
      </trkpt>
      <trkpt lat="44.95791" lon="1.93098">
        <ele>352.46</ele>
        <time>2021-08-16T13:07:48Z</time>
      </trkpt>
      <trkpt lat="44.95785" lon="1.93089">
        <ele>352.46</ele>
        <time>2021-08-16T13:07:49Z</time>
      </trkpt>
      <trkpt lat="44.95779" lon="1.93083">
        <ele>351.98</ele>
        <time>2021-08-16T13:07:50Z</time>
      </trkpt>
      <trkpt lat="44.95771" lon="1.93078">
        <ele>351.98</ele>
        <time>2021-08-16T13:07:51Z</time>
      </trkpt>
      <trkpt lat="44.95764" lon="1.93074">
        <ele>351.02</ele>
        <time>2021-08-16T13:07:52Z</time>
      </trkpt>
      <trkpt lat="44.95691" lon="1.93031">
        <ele>348.13</ele>
        <time>2021-08-16T13:08:01Z</time>
      </trkpt>
      <trkpt lat="44.95642" lon="1.93004">
        <ele>345.73</ele>
        <time>2021-08-16T13:08:07Z</time>
      </trkpt>
      <trkpt lat="44.95617" lon="1.92993">
        <ele>344.29</ele>
        <time>2021-08-16T13:08:10Z</time>
      </trkpt>
      <trkpt lat="44.95583" lon="1.92984">
        <ele>343.81</ele>
        <time>2021-08-16T13:08:14Z</time>
      </trkpt>
      <trkpt lat="44.95574" lon="1.92978">
        <ele>343.81</ele>
        <time>2021-08-16T13:08:15Z</time>
      </trkpt>
      <trkpt lat="44.95567" lon="1.92972">
        <ele>342.85</ele>
        <time>2021-08-16T13:08:16Z</time>
      </trkpt>
      <trkpt lat="44.95553" lon="1.9296">
        <ele>342.85</ele>
        <time>2021-08-16T13:08:18Z</time>
      </trkpt>
      <trkpt lat="44.95543" lon="1.92958">
        <ele>342.37</ele>
        <time>2021-08-16T13:08:19Z</time>
      </trkpt>
      <trkpt lat="44.95535" lon="1.92958">
        <ele>341.89</ele>
        <time>2021-08-16T13:08:20Z</time>
      </trkpt>
      <trkpt lat="44.95527" lon="1.92961">
        <ele>341.89</ele>
        <time>2021-08-16T13:08:21Z</time>
      </trkpt>
      <trkpt lat="44.95518" lon="1.92964">
        <ele>340.92</ele>
        <time>2021-08-16T13:08:22Z</time>
      </trkpt>
      <trkpt lat="44.9551" lon="1.92965">
        <ele>340.44</ele>
        <time>2021-08-16T13:08:23Z</time>
      </trkpt>
      <trkpt lat="44.95502" lon="1.92966">
        <ele>340.44</ele>
        <time>2021-08-16T13:08:24Z</time>
      </trkpt>
      <trkpt lat="44.95493" lon="1.92966">
        <ele>339.48</ele>
        <time>2021-08-16T13:08:25Z</time>
      </trkpt>
      <trkpt lat="44.95474" lon="1.92964">
        <ele>338.52</ele>
        <time>2021-08-16T13:08:27Z</time>
      </trkpt>
      <trkpt lat="44.95458" lon="1.92959">
        <ele>338.04</ele>
        <time>2021-08-16T13:08:29Z</time>
      </trkpt>
      <trkpt lat="44.9545" lon="1.92955">
        <ele>337.08</ele>
        <time>2021-08-16T13:08:30Z</time>
      </trkpt>
      <trkpt lat="44.95443" lon="1.9295">
        <ele>337.08</ele>
        <time>2021-08-16T13:08:31Z</time>
      </trkpt>
      <trkpt lat="44.95435" lon="1.92944">
        <ele>337.08</ele>
        <time>2021-08-16T13:08:32Z</time>
      </trkpt>
      <trkpt lat="44.95429" lon="1.92937">
        <ele>337.08</ele>
        <time>2021-08-16T13:08:33Z</time>
      </trkpt>
      <trkpt lat="44.95422" lon="1.92927">
        <ele>336.6</ele>
        <time>2021-08-16T13:08:34Z</time>
      </trkpt>
      <trkpt lat="44.95417" lon="1.92918">
        <ele>336.6</ele>
        <time>2021-08-16T13:08:35Z</time>
      </trkpt>
      <trkpt lat="44.95413" lon="1.92908">
        <ele>336.12</ele>
        <time>2021-08-16T13:08:36Z</time>
      </trkpt>
      <trkpt lat="44.95403" lon="1.9289">
        <ele>335.64</ele>
        <time>2021-08-16T13:08:38Z</time>
      </trkpt>
      <trkpt lat="44.95398" lon="1.92882">
        <ele>335.64</ele>
        <time>2021-08-16T13:08:39Z</time>
      </trkpt>
      <trkpt lat="44.95393" lon="1.92875">
        <ele>334.68</ele>
        <time>2021-08-16T13:08:40Z</time>
      </trkpt>
      <trkpt lat="44.95386" lon="1.92869">
        <ele>334.68</ele>
        <time>2021-08-16T13:08:41Z</time>
      </trkpt>
      <trkpt lat="44.95379" lon="1.92864">
        <ele>334.2</ele>
        <time>2021-08-16T13:08:42Z</time>
      </trkpt>
      <trkpt lat="44.95372" lon="1.9286">
        <ele>334.2</ele>
        <time>2021-08-16T13:08:43Z</time>
      </trkpt>
      <trkpt lat="44.95322" lon="1.92819">
        <ele>331.31</ele>
        <time>2021-08-16T13:08:50Z</time>
      </trkpt>
      <trkpt lat="44.95273" lon="1.92769">
        <ele>329.39</ele>
        <time>2021-08-16T13:08:57Z</time>
      </trkpt>
      <trkpt lat="44.95267" lon="1.9276">
        <ele>328.91</ele>
        <time>2021-08-16T13:08:58Z</time>
      </trkpt>
      <trkpt lat="44.95263" lon="1.9275">
        <ele>328.91</ele>
        <time>2021-08-16T13:08:59Z</time>
      </trkpt>
      <trkpt lat="44.9526" lon="1.92738">
        <ele>328.43</ele>
        <time>2021-08-16T13:09:00Z</time>
      </trkpt>
      <trkpt lat="44.95254" lon="1.92717">
        <ele>327.95</ele>
        <time>2021-08-16T13:09:02Z</time>
      </trkpt>
      <trkpt lat="44.95249" lon="1.92709">
        <ele>326.99</ele>
        <time>2021-08-16T13:09:03Z</time>
      </trkpt>
      <trkpt lat="44.95243" lon="1.92703">
        <ele>326.99</ele>
        <time>2021-08-16T13:09:04Z</time>
      </trkpt>
      <trkpt lat="44.95235" lon="1.92699">
        <ele>326.5</ele>
        <time>2021-08-16T13:09:05Z</time>
      </trkpt>
      <trkpt lat="44.95228" lon="1.92696">
        <ele>326.02</ele>
        <time>2021-08-16T13:09:06Z</time>
      </trkpt>
      <trkpt lat="44.95212" lon="1.92689">
        <ele>325.54</ele>
        <time>2021-08-16T13:09:08Z</time>
      </trkpt>
      <trkpt lat="44.95205" lon="1.92684">
        <ele>325.06</ele>
        <time>2021-08-16T13:09:09Z</time>
      </trkpt>
      <trkpt lat="44.95191" lon="1.92672">
        <ele>325.06</ele>
        <time>2021-08-16T13:09:11Z</time>
      </trkpt>
      <trkpt lat="44.95185" lon="1.92664">
        <ele>324.1</ele>
        <time>2021-08-16T13:09:12Z</time>
      </trkpt>
      <trkpt lat="44.95179" lon="1.92654">
        <ele>324.1</ele>
        <time>2021-08-16T13:09:13Z</time>
      </trkpt>
      <trkpt lat="44.95175" lon="1.92644">
        <ele>323.62</ele>
        <time>2021-08-16T13:09:14Z</time>
      </trkpt>
      <trkpt lat="44.95172" lon="1.92633">
        <ele>323.62</ele>
        <time>2021-08-16T13:09:15Z</time>
      </trkpt>
      <trkpt lat="44.9517" lon="1.92621">
        <ele>323.14</ele>
        <time>2021-08-16T13:09:16Z</time>
      </trkpt>
      <trkpt lat="44.95168" lon="1.92609">
        <ele>323.14</ele>
        <time>2021-08-16T13:09:17Z</time>
      </trkpt>
      <trkpt lat="44.95161" lon="1.92554">
        <ele>322.18</ele>
        <time>2021-08-16T13:09:22Z</time>
      </trkpt>
      <trkpt lat="44.95157" lon="1.92546">
        <ele>321.22</ele>
        <time>2021-08-16T13:09:23Z</time>
      </trkpt>
      <trkpt lat="44.95151" lon="1.9254">
        <ele>321.22</ele>
        <time>2021-08-16T13:09:24Z</time>
      </trkpt>
      <trkpt lat="44.95145" lon="1.92536">
        <ele>321.22</ele>
        <time>2021-08-16T13:09:25Z</time>
      </trkpt>
      <trkpt lat="44.95137" lon="1.92534">
        <ele>321.22</ele>
        <time>2021-08-16T13:09:26Z</time>
      </trkpt>
      <trkpt lat="44.9513" lon="1.92532">
        <ele>320.26</ele>
        <time>2021-08-16T13:09:27Z</time>
      </trkpt>
      <trkpt lat="44.95122" lon="1.92529">
        <ele>320.26</ele>
        <time>2021-08-16T13:09:28Z</time>
      </trkpt>
      <trkpt lat="44.95116" lon="1.92525">
        <ele>319.78</ele>
        <time>2021-08-16T13:09:29Z</time>
      </trkpt>
      <trkpt lat="44.95109" lon="1.9252">
        <ele>319.78</ele>
        <time>2021-08-16T13:09:30Z</time>
      </trkpt>
      <trkpt lat="44.95103" lon="1.92516">
        <ele>319.78</ele>
        <time>2021-08-16T13:09:31Z</time>
      </trkpt>
      <trkpt lat="44.95096" lon="1.92513">
        <ele>319.3</ele>
        <time>2021-08-16T13:09:32Z</time>
      </trkpt>
      <trkpt lat="44.95089" lon="1.92514">
        <ele>318.81</ele>
        <time>2021-08-16T13:09:33Z</time>
      </trkpt>
      <trkpt lat="44.95082" lon="1.92517">
        <ele>318.81</ele>
        <time>2021-08-16T13:09:34Z</time>
      </trkpt>
      <trkpt lat="44.95074" lon="1.92522">
        <ele>318.81</ele>
        <time>2021-08-16T13:09:35Z</time>
      </trkpt>
      <trkpt lat="44.95069" lon="1.92527">
        <ele>317.85</ele>
        <time>2021-08-16T13:09:36Z</time>
      </trkpt>
      <trkpt lat="44.95063" lon="1.92533">
        <ele>317.85</ele>
        <time>2021-08-16T13:09:37Z</time>
      </trkpt>
      <trkpt lat="44.9504" lon="1.92557">
        <ele>316.41</ele>
        <time>2021-08-16T13:09:41Z</time>
      </trkpt>
      <trkpt lat="44.95032" lon="1.92563">
        <ele>316.41</ele>
        <time>2021-08-16T13:09:42Z</time>
      </trkpt>
      <trkpt lat="44.95026" lon="1.92566">
        <ele>315.93</ele>
        <time>2021-08-16T13:09:43Z</time>
      </trkpt>
      <trkpt lat="44.9501" lon="1.9257">
        <ele>315.45</ele>
        <time>2021-08-16T13:09:45Z</time>
      </trkpt>
      <trkpt lat="44.95002" lon="1.92571">
        <ele>314.97</ele>
        <time>2021-08-16T13:09:46Z</time>
      </trkpt>
      <trkpt lat="44.94994" lon="1.92571">
        <ele>314.97</ele>
        <time>2021-08-16T13:09:47Z</time>
      </trkpt>
      <trkpt lat="44.94987" lon="1.92569">
        <ele>314.49</ele>
        <time>2021-08-16T13:09:48Z</time>
      </trkpt>
      <trkpt lat="44.9498" lon="1.92566">
        <ele>314.49</ele>
        <time>2021-08-16T13:09:49Z</time>
      </trkpt>
      <trkpt lat="44.94972" lon="1.9256">
        <ele>314.01</ele>
        <time>2021-08-16T13:09:50Z</time>
      </trkpt>
      <trkpt lat="44.94967" lon="1.92555">
        <ele>313.53</ele>
        <time>2021-08-16T13:09:51Z</time>
      </trkpt>
      <trkpt lat="44.94961" lon="1.92547">
        <ele>313.53</ele>
        <time>2021-08-16T13:09:52Z</time>
      </trkpt>
      <trkpt lat="44.94956" lon="1.9254">
        <ele>313.53</ele>
        <time>2021-08-16T13:09:53Z</time>
      </trkpt>
      <trkpt lat="44.94928" lon="1.92495">
        <ele>312.09</ele>
        <time>2021-08-16T13:09:59Z</time>
      </trkpt>
      <trkpt lat="44.94922" lon="1.9249">
        <ele>312.09</ele>
        <time>2021-08-16T13:10:00Z</time>
      </trkpt>
      <trkpt lat="44.94917" lon="1.92487">
        <ele>311.12</ele>
        <time>2021-08-16T13:10:01Z</time>
      </trkpt>
      <trkpt lat="44.94912" lon="1.92486">
        <ele>311.12</ele>
        <time>2021-08-16T13:10:02Z</time>
      </trkpt>
      <trkpt lat="44.94906" lon="1.92487">
        <ele>311.12</ele>
        <time>2021-08-16T13:10:03Z</time>
      </trkpt>
      <trkpt lat="44.94901" lon="1.92489">
        <ele>310.64</ele>
        <time>2021-08-16T13:10:04Z</time>
      </trkpt>
      <trkpt lat="44.94896" lon="1.92494">
        <ele>310.64</ele>
        <time>2021-08-16T13:10:05Z</time>
      </trkpt>
      <trkpt lat="44.94891" lon="1.92499">
        <ele>310.64</ele>
        <time>2021-08-16T13:10:06Z</time>
      </trkpt>
      <trkpt lat="44.94887" lon="1.92504">
        <ele>310.64</ele>
        <time>2021-08-16T13:10:07Z</time>
      </trkpt>
      <trkpt lat="44.94883" lon="1.92508">
        <ele>310.64</ele>
        <time>2021-08-16T13:10:08Z</time>
      </trkpt>
      <trkpt lat="44.94878" lon="1.92513">
        <ele>309.68</ele>
        <time>2021-08-16T13:10:09Z</time>
      </trkpt>
      <trkpt lat="44.94873" lon="1.92516">
        <ele>309.68</ele>
        <time>2021-08-16T13:10:10Z</time>
      </trkpt>
      <trkpt lat="44.94866" lon="1.92519">
        <ele>309.2</ele>
        <time>2021-08-16T13:10:11Z</time>
      </trkpt>
      <trkpt lat="44.9486" lon="1.92521">
        <ele>309.2</ele>
        <time>2021-08-16T13:10:12Z</time>
      </trkpt>
      <trkpt lat="44.94854" lon="1.92523">
        <ele>309.2</ele>
        <time>2021-08-16T13:10:13Z</time>
      </trkpt>
      <trkpt lat="44.94828" lon="1.9253">
        <ele>307.76</ele>
        <time>2021-08-16T13:10:17Z</time>
      </trkpt>
      <trkpt lat="44.94822" lon="1.92529">
        <ele>307.28</ele>
        <time>2021-08-16T13:10:18Z</time>
      </trkpt>
      <trkpt lat="44.94815" lon="1.92527">
        <ele>307.28</ele>
        <time>2021-08-16T13:10:19Z</time>
      </trkpt>
      <trkpt lat="44.94793" lon="1.92523">
        <ele>306.8</ele>
        <time>2021-08-16T13:10:22Z</time>
      </trkpt>
      <trkpt lat="44.94786" lon="1.92523">
        <ele>305.84</ele>
        <time>2021-08-16T13:10:23Z</time>
      </trkpt>
      <trkpt lat="44.94779" lon="1.92525">
        <ele>305.84</ele>
        <time>2021-08-16T13:10:24Z</time>
      </trkpt>
      <trkpt lat="44.94772" lon="1.92529">
        <ele>305.36</ele>
        <time>2021-08-16T13:10:25Z</time>
      </trkpt>
      <trkpt lat="44.94765" lon="1.92533">
        <ele>304.88</ele>
        <time>2021-08-16T13:10:26Z</time>
      </trkpt>
      <trkpt lat="44.94759" lon="1.92539">
        <ele>304.39</ele>
        <time>2021-08-16T13:10:27Z</time>
      </trkpt>
      <trkpt lat="44.94752" lon="1.92545">
        <ele>304.39</ele>
        <time>2021-08-16T13:10:28Z</time>
      </trkpt>
      <trkpt lat="44.94746" lon="1.92552">
        <ele>304.39</ele>
        <time>2021-08-16T13:10:29Z</time>
      </trkpt>
      <trkpt lat="44.94741" lon="1.9256">
        <ele>303.91</ele>
        <time>2021-08-16T13:10:30Z</time>
      </trkpt>
      <trkpt lat="44.94736" lon="1.92568">
        <ele>303.43</ele>
        <time>2021-08-16T13:10:31Z</time>
      </trkpt>
      <trkpt lat="44.94731" lon="1.92576">
        <ele>303.43</ele>
        <time>2021-08-16T13:10:32Z</time>
      </trkpt>
      <trkpt lat="44.94722" lon="1.9259">
        <ele>302.95</ele>
        <time>2021-08-16T13:10:34Z</time>
      </trkpt>
      <trkpt lat="44.94716" lon="1.92595">
        <ele>302.47</ele>
        <time>2021-08-16T13:10:35Z</time>
      </trkpt>
      <trkpt lat="44.9471" lon="1.92599">
        <ele>301.99</ele>
        <time>2021-08-16T13:10:36Z</time>
      </trkpt>
      <trkpt lat="44.94704" lon="1.92602">
        <ele>301.99</ele>
        <time>2021-08-16T13:10:37Z</time>
      </trkpt>
      <trkpt lat="44.94697" lon="1.92605">
        <ele>301.51</ele>
        <time>2021-08-16T13:10:38Z</time>
      </trkpt>
      <trkpt lat="44.94627" lon="1.92625">
        <ele>298.63</ele>
        <time>2021-08-16T13:10:48Z</time>
      </trkpt>
      <trkpt lat="44.94614" lon="1.92628">
        <ele>298.15</ele>
        <time>2021-08-16T13:10:50Z</time>
      </trkpt>
      <trkpt lat="44.94607" lon="1.92627">
        <ele>298.15</ele>
        <time>2021-08-16T13:10:51Z</time>
      </trkpt>
      <trkpt lat="44.94601" lon="1.92625">
        <ele>297.67</ele>
        <time>2021-08-16T13:10:52Z</time>
      </trkpt>
      <trkpt lat="44.94595" lon="1.92622">
        <ele>297.67</ele>
        <time>2021-08-16T13:10:53Z</time>
      </trkpt>
      <trkpt lat="44.9459" lon="1.92617">
        <ele>297.67</ele>
        <time>2021-08-16T13:10:54Z</time>
      </trkpt>
      <trkpt lat="44.94586" lon="1.92612">
        <ele>297.18</ele>
        <time>2021-08-16T13:10:55Z</time>
      </trkpt>
      <trkpt lat="44.94582" lon="1.92605">
        <ele>296.7</ele>
        <time>2021-08-16T13:10:56Z</time>
      </trkpt>
      <trkpt lat="44.94578" lon="1.92597">
        <ele>296.7</ele>
        <time>2021-08-16T13:10:57Z</time>
      </trkpt>
      <trkpt lat="44.94571" lon="1.92582">
        <ele>295.74</ele>
        <time>2021-08-16T13:10:59Z</time>
      </trkpt>
      <trkpt lat="44.94567" lon="1.92575">
        <ele>295.74</ele>
        <time>2021-08-16T13:11:00Z</time>
      </trkpt>
      <trkpt lat="44.94557" lon="1.92563">
        <ele>295.26</ele>
        <time>2021-08-16T13:11:02Z</time>
      </trkpt>
      <trkpt lat="44.94521" lon="1.92531">
        <ele>293.82</ele>
        <time>2021-08-16T13:11:08Z</time>
      </trkpt>
      <trkpt lat="44.94515" lon="1.92525">
        <ele>292.86</ele>
        <time>2021-08-16T13:11:09Z</time>
      </trkpt>
      <trkpt lat="44.94512" lon="1.92518">
        <ele>292.86</ele>
        <time>2021-08-16T13:11:10Z</time>
      </trkpt>
      <trkpt lat="44.94507" lon="1.92509">
        <ele>292.38</ele>
        <time>2021-08-16T13:11:11Z</time>
      </trkpt>
      <trkpt lat="44.94503" lon="1.92502">
        <ele>292.38</ele>
        <time>2021-08-16T13:11:12Z</time>
      </trkpt>
      <trkpt lat="44.945" lon="1.92492">
        <ele>292.38</ele>
        <time>2021-08-16T13:11:13Z</time>
      </trkpt>
      <trkpt lat="44.94497" lon="1.92481">
        <ele>291.42</ele>
        <time>2021-08-16T13:11:14Z</time>
      </trkpt>
      <trkpt lat="44.94495" lon="1.92473">
        <ele>290.94</ele>
        <time>2021-08-16T13:11:15Z</time>
      </trkpt>
      <trkpt lat="44.94493" lon="1.92461">
        <ele>290.94</ele>
        <time>2021-08-16T13:11:16Z</time>
      </trkpt>
      <trkpt lat="44.94493" lon="1.92453">
        <ele>290.94</ele>
        <time>2021-08-16T13:11:17Z</time>
      </trkpt>
      <trkpt lat="44.94493" lon="1.92441">
        <ele>290.46</ele>
        <time>2021-08-16T13:11:18Z</time>
      </trkpt>
      <trkpt lat="44.94493" lon="1.9243">
        <ele>289.97</ele>
        <time>2021-08-16T13:11:19Z</time>
      </trkpt>
      <trkpt lat="44.94494" lon="1.92422">
        <ele>289.49</ele>
        <time>2021-08-16T13:11:20Z</time>
      </trkpt>
      <trkpt lat="44.94495" lon="1.92411">
        <ele>289.49</ele>
        <time>2021-08-16T13:11:21Z</time>
      </trkpt>
      <trkpt lat="44.94497" lon="1.924">
        <ele>289.49</ele>
        <time>2021-08-16T13:11:22Z</time>
      </trkpt>
      <trkpt lat="44.94499" lon="1.92392">
        <ele>289.01</ele>
        <time>2021-08-16T13:11:23Z</time>
      </trkpt>
      <trkpt lat="44.94525" lon="1.9231">
        <ele>286.61</ele>
        <time>2021-08-16T13:11:32Z</time>
      </trkpt>
      <trkpt lat="44.94555" lon="1.92244">
        <ele>283.73</ele>
        <time>2021-08-16T13:11:40Z</time>
      </trkpt>
      <trkpt lat="44.9456" lon="1.92237">
        <ele>283.73</ele>
        <time>2021-08-16T13:11:41Z</time>
      </trkpt>
      <trkpt lat="44.94566" lon="1.92231">
        <ele>283.25</ele>
        <time>2021-08-16T13:11:42Z</time>
      </trkpt>
      <trkpt lat="44.94597" lon="1.92204">
        <ele>282.28</ele>
        <time>2021-08-16T13:11:47Z</time>
      </trkpt>
      <trkpt lat="44.94602" lon="1.92197">
        <ele>282.28</ele>
        <time>2021-08-16T13:11:48Z</time>
      </trkpt>
      <trkpt lat="44.94606" lon="1.92189">
        <ele>281.8</ele>
        <time>2021-08-16T13:11:49Z</time>
      </trkpt>
      <trkpt lat="44.94608" lon="1.9218">
        <ele>281.8</ele>
        <time>2021-08-16T13:11:50Z</time>
      </trkpt>
      <trkpt lat="44.94609" lon="1.9217">
        <ele>281.8</ele>
        <time>2021-08-16T13:11:51Z</time>
      </trkpt>
      <trkpt lat="44.94608" lon="1.9216">
        <ele>280.84</ele>
        <time>2021-08-16T13:11:52Z</time>
      </trkpt>
      <trkpt lat="44.94606" lon="1.92151">
        <ele>280.84</ele>
        <time>2021-08-16T13:11:53Z</time>
      </trkpt>
      <trkpt lat="44.94603" lon="1.92142">
        <ele>279.88</ele>
        <time>2021-08-16T13:11:54Z</time>
      </trkpt>
      <trkpt lat="44.946" lon="1.92133">
        <ele>279.88</ele>
        <time>2021-08-16T13:11:55Z</time>
      </trkpt>
      <trkpt lat="44.94588" lon="1.92075">
        <ele>277.48</ele>
        <time>2021-08-16T13:12:01Z</time>
      </trkpt>
      <trkpt lat="44.94587" lon="1.92064">
        <ele>277.48</ele>
        <time>2021-08-16T13:12:02Z</time>
      </trkpt>
      <trkpt lat="44.94588" lon="1.92054">
        <ele>277</ele>
        <time>2021-08-16T13:12:03Z</time>
      </trkpt>
      <trkpt lat="44.9459" lon="1.92045">
        <ele>277</ele>
        <time>2021-08-16T13:12:04Z</time>
      </trkpt>
      <trkpt lat="44.94593" lon="1.92035">
        <ele>276.52</ele>
        <time>2021-08-16T13:12:05Z</time>
      </trkpt>
      <trkpt lat="44.94597" lon="1.92026">
        <ele>276.04</ele>
        <time>2021-08-16T13:12:06Z</time>
      </trkpt>
      <trkpt lat="44.94602" lon="1.92019">
        <ele>275.56</ele>
        <time>2021-08-16T13:12:07Z</time>
      </trkpt>
      <trkpt lat="44.94608" lon="1.92013">
        <ele>275.56</ele>
        <time>2021-08-16T13:12:08Z</time>
      </trkpt>
      <trkpt lat="44.94615" lon="1.92007">
        <ele>275.07</ele>
        <time>2021-08-16T13:12:09Z</time>
      </trkpt>
      <trkpt lat="44.94621" lon="1.92004">
        <ele>275.07</ele>
        <time>2021-08-16T13:12:10Z</time>
      </trkpt>
      <trkpt lat="44.94628" lon="1.92001">
        <ele>275.07</ele>
        <time>2021-08-16T13:12:11Z</time>
      </trkpt>
      <trkpt lat="44.94682" lon="1.91976">
        <ele>273.15</ele>
        <time>2021-08-16T13:12:19Z</time>
      </trkpt>
      <trkpt lat="44.947" lon="1.91962">
        <ele>271.71</ele>
        <time>2021-08-16T13:12:22Z</time>
      </trkpt>
      <trkpt lat="44.94706" lon="1.91955">
        <ele>271.71</ele>
        <time>2021-08-16T13:12:23Z</time>
      </trkpt>
      <trkpt lat="44.94711" lon="1.91947">
        <ele>271.23</ele>
        <time>2021-08-16T13:12:24Z</time>
      </trkpt>
      <trkpt lat="44.94715" lon="1.91937">
        <ele>271.23</ele>
        <time>2021-08-16T13:12:25Z</time>
      </trkpt>
      <trkpt lat="44.94717" lon="1.91927">
        <ele>270.27</ele>
        <time>2021-08-16T13:12:26Z</time>
      </trkpt>
      <trkpt lat="44.94718" lon="1.91916">
        <ele>270.27</ele>
        <time>2021-08-16T13:12:27Z</time>
      </trkpt>
      <trkpt lat="44.94718" lon="1.91905">
        <ele>269.79</ele>
        <time>2021-08-16T13:12:28Z</time>
      </trkpt>
      <trkpt lat="44.94716" lon="1.91893">
        <ele>269.79</ele>
        <time>2021-08-16T13:12:29Z</time>
      </trkpt>
      <trkpt lat="44.94714" lon="1.91884">
        <ele>269.31</ele>
        <time>2021-08-16T13:12:30Z</time>
      </trkpt>
      <trkpt lat="44.9471" lon="1.91874">
        <ele>269.31</ele>
        <time>2021-08-16T13:12:31Z</time>
      </trkpt>
      <trkpt lat="44.94706" lon="1.91866">
        <ele>268.83</ele>
        <time>2021-08-16T13:12:32Z</time>
      </trkpt>
      <trkpt lat="44.947" lon="1.91857">
        <ele>268.35</ele>
        <time>2021-08-16T13:12:33Z</time>
      </trkpt>
      <trkpt lat="44.94695" lon="1.91851">
        <ele>268.35</ele>
        <time>2021-08-16T13:12:34Z</time>
      </trkpt>
      <trkpt lat="44.94688" lon="1.91843">
        <ele>267.86</ele>
        <time>2021-08-16T13:12:35Z</time>
      </trkpt>
      <trkpt lat="44.94639" lon="1.91782">
        <ele>264.5</ele>
        <time>2021-08-16T13:12:43Z</time>
      </trkpt>
      <trkpt lat="44.94634" lon="1.91772">
        <ele>264.5</ele>
        <time>2021-08-16T13:12:44Z</time>
      </trkpt>
      <trkpt lat="44.94631" lon="1.91761">
        <ele>264.02</ele>
        <time>2021-08-16T13:12:45Z</time>
      </trkpt>
      <trkpt lat="44.94628" lon="1.9175">
        <ele>264.02</ele>
        <time>2021-08-16T13:12:46Z</time>
      </trkpt>
      <trkpt lat="44.94627" lon="1.91738">
        <ele>263.54</ele>
        <time>2021-08-16T13:12:47Z</time>
      </trkpt>
      <trkpt lat="44.94626" lon="1.91727">
        <ele>263.54</ele>
        <time>2021-08-16T13:12:48Z</time>
      </trkpt>
      <trkpt lat="44.94626" lon="1.91716">
        <ele>263.54</ele>
        <time>2021-08-16T13:12:49Z</time>
      </trkpt>
      <trkpt lat="44.94627" lon="1.91704">
        <ele>262.58</ele>
        <time>2021-08-16T13:12:50Z</time>
      </trkpt>
      <trkpt lat="44.94629" lon="1.91624">
        <ele>260.17</ele>
        <time>2021-08-16T13:12:57Z</time>
      </trkpt>
      <trkpt lat="44.94633" lon="1.91601">
        <ele>259.69</ele>
        <time>2021-08-16T13:12:59Z</time>
      </trkpt>
      <trkpt lat="44.94635" lon="1.9159">
        <ele>258.73</ele>
        <time>2021-08-16T13:13:00Z</time>
      </trkpt>
      <trkpt lat="44.94639" lon="1.91579">
        <ele>258.25</ele>
        <time>2021-08-16T13:13:01Z</time>
      </trkpt>
      <trkpt lat="44.94643" lon="1.91569">
        <ele>257.29</ele>
        <time>2021-08-16T13:13:02Z</time>
      </trkpt>
      <trkpt lat="44.94648" lon="1.91559">
        <ele>257.29</ele>
        <time>2021-08-16T13:13:03Z</time>
      </trkpt>
      <trkpt lat="44.94654" lon="1.9155">
        <ele>257.29</ele>
        <time>2021-08-16T13:13:04Z</time>
      </trkpt>
      <trkpt lat="44.94659" lon="1.91543">
        <ele>256.81</ele>
        <time>2021-08-16T13:13:05Z</time>
      </trkpt>
      <trkpt lat="44.94701" lon="1.9149">
        <ele>253.93</ele>
        <time>2021-08-16T13:13:12Z</time>
      </trkpt>
      <trkpt lat="44.94708" lon="1.91485">
        <ele>253.93</ele>
        <time>2021-08-16T13:13:13Z</time>
      </trkpt>
      <trkpt lat="44.94715" lon="1.9148">
        <ele>253.93</ele>
        <time>2021-08-16T13:13:14Z</time>
      </trkpt>
      <trkpt lat="44.94723" lon="1.91477">
        <ele>253.93</ele>
        <time>2021-08-16T13:13:15Z</time>
      </trkpt>
      <trkpt lat="44.9473" lon="1.91475">
        <ele>252.96</ele>
        <time>2021-08-16T13:13:16Z</time>
      </trkpt>
      <trkpt lat="44.94738" lon="1.91475">
        <ele>252.48</ele>
        <time>2021-08-16T13:13:17Z</time>
      </trkpt>
      <trkpt lat="44.94746" lon="1.91476">
        <ele>252.48</ele>
        <time>2021-08-16T13:13:18Z</time>
      </trkpt>
      <trkpt lat="44.94755" lon="1.91479">
        <ele>252.48</ele>
        <time>2021-08-16T13:13:19Z</time>
      </trkpt>
      <trkpt lat="44.94761" lon="1.91483">
        <ele>252</ele>
        <time>2021-08-16T13:13:20Z</time>
      </trkpt>
      <trkpt lat="44.9477" lon="1.91489">
        <ele>251.04</ele>
        <time>2021-08-16T13:13:21Z</time>
      </trkpt>
      <trkpt lat="44.94777" lon="1.91496">
        <ele>251.04</ele>
        <time>2021-08-16T13:13:22Z</time>
      </trkpt>
      <trkpt lat="44.94783" lon="1.91503">
        <ele>251.04</ele>
        <time>2021-08-16T13:13:23Z</time>
      </trkpt>
      <trkpt lat="44.94788" lon="1.91511">
        <ele>250.56</ele>
        <time>2021-08-16T13:13:24Z</time>
      </trkpt>
      <trkpt lat="44.94794" lon="1.91519">
        <ele>250.56</ele>
        <time>2021-08-16T13:13:25Z</time>
      </trkpt>
      <trkpt lat="44.94816" lon="1.9155">
        <ele>249.6</ele>
        <time>2021-08-16T13:13:29Z</time>
      </trkpt>
      <trkpt lat="44.94823" lon="1.91556">
        <ele>249.12</ele>
        <time>2021-08-16T13:13:30Z</time>
      </trkpt>
      <trkpt lat="44.94829" lon="1.91561">
        <ele>249.12</ele>
        <time>2021-08-16T13:13:31Z</time>
      </trkpt>
      <trkpt lat="44.94836" lon="1.91564">
        <ele>248.64</ele>
        <time>2021-08-16T13:13:32Z</time>
      </trkpt>
      <trkpt lat="44.94844" lon="1.91567">
        <ele>248.64</ele>
        <time>2021-08-16T13:13:33Z</time>
      </trkpt>
      <trkpt lat="44.94851" lon="1.91568">
        <ele>248.16</ele>
        <time>2021-08-16T13:13:34Z</time>
      </trkpt>
      <trkpt lat="44.94859" lon="1.91569">
        <ele>247.68</ele>
        <time>2021-08-16T13:13:35Z</time>
      </trkpt>
      <trkpt lat="44.94867" lon="1.91569">
        <ele>247.2</ele>
        <time>2021-08-16T13:13:36Z</time>
      </trkpt>
      <trkpt lat="44.94934" lon="1.91571">
        <ele>243.83</ele>
        <time>2021-08-16T13:13:44Z</time>
      </trkpt>
      <trkpt lat="44.94951" lon="1.9157">
        <ele>243.35</ele>
        <time>2021-08-16T13:13:46Z</time>
      </trkpt>
      <trkpt lat="44.94959" lon="1.91568">
        <ele>242.87</ele>
        <time>2021-08-16T13:13:47Z</time>
      </trkpt>
      <trkpt lat="44.94968" lon="1.91562">
        <ele>242.39</ele>
        <time>2021-08-16T13:13:48Z</time>
      </trkpt>
      <trkpt lat="44.94974" lon="1.91557">
        <ele>241.91</ele>
        <time>2021-08-16T13:13:49Z</time>
      </trkpt>
      <trkpt lat="44.9498" lon="1.91547">
        <ele>241.91</ele>
        <time>2021-08-16T13:13:50Z</time>
      </trkpt>
      <trkpt lat="44.94983" lon="1.91538">
        <ele>241.43</ele>
        <time>2021-08-16T13:13:51Z</time>
      </trkpt>
      <trkpt lat="44.94985" lon="1.91526">
        <ele>241.43</ele>
        <time>2021-08-16T13:13:52Z</time>
      </trkpt>
      <trkpt lat="44.94985" lon="1.91517">
        <ele>240.95</ele>
        <time>2021-08-16T13:13:53Z</time>
      </trkpt>
      <trkpt lat="44.94982" lon="1.91504">
        <ele>240.47</ele>
        <time>2021-08-16T13:13:54Z</time>
      </trkpt>
      <trkpt lat="44.94979" lon="1.91496">
        <ele>239.99</ele>
        <time>2021-08-16T13:13:55Z</time>
      </trkpt>
      <trkpt lat="44.94975" lon="1.91486">
        <ele>239.99</ele>
        <time>2021-08-16T13:13:56Z</time>
      </trkpt>
      <trkpt lat="44.9497" lon="1.9148">
        <ele>239.51</ele>
        <time>2021-08-16T13:13:57Z</time>
      </trkpt>
      <trkpt lat="44.94964" lon="1.91472">
        <ele>239.02</ele>
        <time>2021-08-16T13:13:58Z</time>
      </trkpt>
      <trkpt lat="44.94917" lon="1.91403">
        <ele>236.14</ele>
        <time>2021-08-16T13:14:06Z</time>
      </trkpt>
      <trkpt lat="44.94901" lon="1.91372">
        <ele>234.7</ele>
        <time>2021-08-16T13:14:09Z</time>
      </trkpt>
      <trkpt lat="44.94869" lon="1.91295">
        <ele>232.3</ele>
        <time>2021-08-16T13:14:16Z</time>
      </trkpt>
      <trkpt lat="44.94852" lon="1.91238">
        <ele>230.37</ele>
        <time>2021-08-16T13:14:21Z</time>
      </trkpt>
      <trkpt lat="44.94845" lon="1.91165">
        <ele>227.97</ele>
        <time>2021-08-16T13:14:27Z</time>
      </trkpt>
      <trkpt lat="44.94846" lon="1.91141">
        <ele>227.49</ele>
        <time>2021-08-16T13:14:29Z</time>
      </trkpt>
      <trkpt lat="44.94852" lon="1.91093">
        <ele>226.05</ele>
        <time>2021-08-16T13:14:33Z</time>
      </trkpt>
      <trkpt lat="44.94854" lon="1.91082">
        <ele>225.57</ele>
        <time>2021-08-16T13:14:34Z</time>
      </trkpt>
      <trkpt lat="44.9487" lon="1.91017">
        <ele>224.61</ele>
        <time>2021-08-16T13:14:40Z</time>
      </trkpt>
      <trkpt lat="44.94872" lon="1.91011">
        <ele>224.61</ele>
        <time>2021-08-16T13:14:41Z</time>
      </trkpt>
      <trkpt lat="44.94874" lon="1.91005">
        <ele>224.61</ele>
        <time>2021-08-16T13:14:42Z</time>
      </trkpt>
      <trkpt lat="44.94877" lon="1.91">
        <ele>224.61</ele>
        <time>2021-08-16T13:14:43Z</time>
      </trkpt>
      <trkpt lat="44.9488" lon="1.90994">
        <ele>224.61</ele>
        <time>2021-08-16T13:14:45Z</time>
      </trkpt>
      <trkpt lat="44.9488" lon="1.90991">
        <ele>224.61</ele>
        <time>2021-08-16T13:14:51Z</time>
      </trkpt>
      <trkpt lat="44.94881" lon="1.9099">
        <ele>224.61</ele>
        <time>2021-08-16T13:15:07Z</time>
      </trkpt>
      <trkpt lat="44.94883" lon="1.90987">
        <ele>224.61</ele>
        <time>2021-08-16T13:15:23Z</time>
      </trkpt>
      <trkpt lat="44.94885" lon="1.90981">
        <ele>224.61</ele>
        <time>2021-08-16T13:15:38Z</time>
      </trkpt>
      <trkpt lat="44.94884" lon="1.9098">
        <ele>224.61</ele>
        <time>2021-08-16T13:15:39Z</time>
      </trkpt>
      <trkpt lat="44.94881" lon="1.9098">
        <ele>224.61</ele>
        <time>2021-08-16T13:15:40Z</time>
      </trkpt>
      <trkpt lat="44.9488" lon="1.9098">
        <ele>224.61</ele>
        <time>2021-08-16T13:15:41Z</time>
      </trkpt>
      <trkpt lat="44.94877" lon="1.90977">
        <ele>224.61</ele>
        <time>2021-08-16T13:15:42Z</time>
      </trkpt>
      <trkpt lat="44.94875" lon="1.9097">
        <ele>223.64</ele>
        <time>2021-08-16T13:15:44Z</time>
      </trkpt>
      <trkpt lat="44.94875" lon="1.90964">
        <ele>223.64</ele>
        <time>2021-08-16T13:15:45Z</time>
      </trkpt>
      <trkpt lat="44.94874" lon="1.90958">
        <ele>223.64</ele>
        <time>2021-08-16T13:15:46Z</time>
      </trkpt>
      <trkpt lat="44.94874" lon="1.90951">
        <ele>222.68</ele>
        <time>2021-08-16T13:15:47Z</time>
      </trkpt>
      <trkpt lat="44.94874" lon="1.90944">
        <ele>222.68</ele>
        <time>2021-08-16T13:15:48Z</time>
      </trkpt>
      <trkpt lat="44.94873" lon="1.9093">
        <ele>222.2</ele>
        <time>2021-08-16T13:15:50Z</time>
      </trkpt>
      <trkpt lat="44.94872" lon="1.90923">
        <ele>222.2</ele>
        <time>2021-08-16T13:15:51Z</time>
      </trkpt>
      <trkpt lat="44.94871" lon="1.90915">
        <ele>222.2</ele>
        <time>2021-08-16T13:15:52Z</time>
      </trkpt>
      <trkpt lat="44.94871" lon="1.90908">
        <ele>221.24</ele>
        <time>2021-08-16T13:15:53Z</time>
      </trkpt>
      <trkpt lat="44.94871" lon="1.909">
        <ele>221.24</ele>
        <time>2021-08-16T13:15:54Z</time>
      </trkpt>
      <trkpt lat="44.94869" lon="1.90828">
        <ele>218.36</ele>
        <time>2021-08-16T13:16:02Z</time>
      </trkpt>
      <trkpt lat="44.94867" lon="1.90753">
        <ele>216.43</ele>
        <time>2021-08-16T13:16:09Z</time>
      </trkpt>
      <trkpt lat="44.94863" lon="1.90657">
        <ele>214.03</ele>
        <time>2021-08-16T13:16:17Z</time>
      </trkpt>
      <trkpt lat="44.94864" lon="1.90551">
        <ele>211.15</ele>
        <time>2021-08-16T13:16:25Z</time>
      </trkpt>
      <trkpt lat="44.94867" lon="1.90539">
        <ele>210.67</ele>
        <time>2021-08-16T13:16:26Z</time>
      </trkpt>
      <trkpt lat="44.94871" lon="1.90526">
        <ele>210.19</ele>
        <time>2021-08-16T13:16:27Z</time>
      </trkpt>
      <trkpt lat="44.94877" lon="1.90514">
        <ele>210.19</ele>
        <time>2021-08-16T13:16:28Z</time>
      </trkpt>
      <trkpt lat="44.94882" lon="1.90504">
        <ele>209.22</ele>
        <time>2021-08-16T13:16:29Z</time>
      </trkpt>
      <trkpt lat="44.94889" lon="1.90495">
        <ele>208.74</ele>
        <time>2021-08-16T13:16:30Z</time>
      </trkpt>
      <trkpt lat="44.94897" lon="1.90486">
        <ele>208.74</ele>
        <time>2021-08-16T13:16:31Z</time>
      </trkpt>
      <trkpt lat="44.94904" lon="1.90478">
        <ele>207.78</ele>
        <time>2021-08-16T13:16:32Z</time>
      </trkpt>
      <trkpt lat="44.94912" lon="1.90472">
        <ele>207.3</ele>
        <time>2021-08-16T13:16:33Z</time>
      </trkpt>
      <trkpt lat="44.94921" lon="1.90467">
        <ele>206.82</ele>
        <time>2021-08-16T13:16:34Z</time>
      </trkpt>
      <trkpt lat="44.9493" lon="1.90463">
        <ele>206.34</ele>
        <time>2021-08-16T13:16:35Z</time>
      </trkpt>
      <trkpt lat="44.94939" lon="1.9046">
        <ele>206.34</ele>
        <time>2021-08-16T13:16:36Z</time>
      </trkpt>
      <trkpt lat="44.94964" lon="1.90456">
        <ele>204.9</ele>
        <time>2021-08-16T13:16:39Z</time>
      </trkpt>
      <trkpt lat="44.95051" lon="1.90444">
        <ele>201.53</ele>
        <time>2021-08-16T13:16:49Z</time>
      </trkpt>
      <trkpt lat="44.9513" lon="1.90431">
        <ele>198.65</ele>
        <time>2021-08-16T13:16:58Z</time>
      </trkpt>
      <trkpt lat="44.95139" lon="1.90427">
        <ele>197.69</ele>
        <time>2021-08-16T13:16:59Z</time>
      </trkpt>
      <trkpt lat="44.95148" lon="1.90421">
        <ele>197.69</ele>
        <time>2021-08-16T13:17:00Z</time>
      </trkpt>
      <trkpt lat="44.95155" lon="1.90415">
        <ele>197.21</ele>
        <time>2021-08-16T13:17:01Z</time>
      </trkpt>
      <trkpt lat="44.95163" lon="1.90408">
        <ele>196.73</ele>
        <time>2021-08-16T13:17:02Z</time>
      </trkpt>
      <trkpt lat="44.9517" lon="1.90399">
        <ele>196.73</ele>
        <time>2021-08-16T13:17:03Z</time>
      </trkpt>
      <trkpt lat="44.95176" lon="1.90389">
        <ele>196.73</ele>
        <time>2021-08-16T13:17:04Z</time>
      </trkpt>
      <trkpt lat="44.95182" lon="1.90379">
        <ele>196.25</ele>
        <time>2021-08-16T13:17:05Z</time>
      </trkpt>
      <trkpt lat="44.95188" lon="1.90368">
        <ele>195.77</ele>
        <time>2021-08-16T13:17:06Z</time>
      </trkpt>
      <trkpt lat="44.95229" lon="1.90311">
        <ele>192.88</ele>
        <time>2021-08-16T13:17:12Z</time>
      </trkpt>
      <trkpt lat="44.95267" lon="1.90271">
        <ele>190.96</ele>
        <time>2021-08-16T13:17:17Z</time>
      </trkpt>
      <trkpt lat="44.95273" lon="1.90261">
        <ele>190</ele>
        <time>2021-08-16T13:17:18Z</time>
      </trkpt>
      <trkpt lat="44.95278" lon="1.9025">
        <ele>189.52</ele>
        <time>2021-08-16T13:17:19Z</time>
      </trkpt>
      <trkpt lat="44.95282" lon="1.90238">
        <ele>189.04</ele>
        <time>2021-08-16T13:17:20Z</time>
      </trkpt>
      <trkpt lat="44.95284" lon="1.90225">
        <ele>188.56</ele>
        <time>2021-08-16T13:17:21Z</time>
      </trkpt>
      <trkpt lat="44.95284" lon="1.90214">
        <ele>188.56</ele>
        <time>2021-08-16T13:17:22Z</time>
      </trkpt>
      <trkpt lat="44.95283" lon="1.902">
        <ele>187.59</ele>
        <time>2021-08-16T13:17:23Z</time>
      </trkpt>
      <trkpt lat="44.9528" lon="1.9019">
        <ele>187.59</ele>
        <time>2021-08-16T13:17:24Z</time>
      </trkpt>
      <trkpt lat="44.95276" lon="1.90178">
        <ele>186.63</ele>
        <time>2021-08-16T13:17:25Z</time>
      </trkpt>
      <trkpt lat="44.9527" lon="1.90168">
        <ele>186.63</ele>
        <time>2021-08-16T13:17:26Z</time>
      </trkpt>
      <trkpt lat="44.95265" lon="1.90159">
        <ele>186.15</ele>
        <time>2021-08-16T13:17:27Z</time>
      </trkpt>
      <trkpt lat="44.95254" lon="1.90139">
        <ele>185.67</ele>
        <time>2021-08-16T13:17:29Z</time>
      </trkpt>
      <trkpt lat="44.9525" lon="1.90127">
        <ele>184.71</ele>
        <time>2021-08-16T13:17:30Z</time>
      </trkpt>
      <trkpt lat="44.95248" lon="1.90113">
        <ele>184.23</ele>
        <time>2021-08-16T13:17:31Z</time>
      </trkpt>
      <trkpt lat="44.95247" lon="1.90102">
        <ele>184.23</ele>
        <time>2021-08-16T13:17:32Z</time>
      </trkpt>
      <trkpt lat="44.95247" lon="1.90089">
        <ele>183.27</ele>
        <time>2021-08-16T13:17:33Z</time>
      </trkpt>
      <trkpt lat="44.95249" lon="1.90076">
        <ele>182.79</ele>
        <time>2021-08-16T13:17:34Z</time>
      </trkpt>
      <trkpt lat="44.95252" lon="1.90064">
        <ele>182.79</ele>
        <time>2021-08-16T13:17:35Z</time>
      </trkpt>
      <trkpt lat="44.95255" lon="1.90053">
        <ele>182.79</ele>
        <time>2021-08-16T13:17:36Z</time>
      </trkpt>
      <trkpt lat="44.95281" lon="1.89979">
        <ele>180.87</ele>
        <time>2021-08-16T13:17:43Z</time>
      </trkpt>
      <trkpt lat="44.95317" lon="1.89889">
        <ele>178.94</ele>
        <time>2021-08-16T13:17:52Z</time>
      </trkpt>
      <trkpt lat="44.95348" lon="1.89794">
        <ele>176.06</ele>
        <time>2021-08-16T13:18:01Z</time>
      </trkpt>
      <trkpt lat="44.95362" lon="1.89748">
        <ele>174.14</ele>
        <time>2021-08-16T13:18:05Z</time>
      </trkpt>
      <trkpt lat="44.95365" lon="1.89725">
        <ele>172.69</ele>
        <time>2021-08-16T13:18:07Z</time>
      </trkpt>
      <trkpt lat="44.95365" lon="1.89713">
        <ele>172.21</ele>
        <time>2021-08-16T13:18:08Z</time>
      </trkpt>
      <trkpt lat="44.95366" lon="1.897">
        <ele>172.21</ele>
        <time>2021-08-16T13:18:09Z</time>
      </trkpt>
      <trkpt lat="44.95365" lon="1.89688">
        <ele>171.73</ele>
        <time>2021-08-16T13:18:10Z</time>
      </trkpt>
      <trkpt lat="44.95363" lon="1.89675">
        <ele>171.25</ele>
        <time>2021-08-16T13:18:11Z</time>
      </trkpt>
      <trkpt lat="44.9536" lon="1.89663">
        <ele>170.29</ele>
        <time>2021-08-16T13:18:12Z</time>
      </trkpt>
      <trkpt lat="44.95357" lon="1.89652">
        <ele>169.81</ele>
        <time>2021-08-16T13:18:13Z</time>
      </trkpt>
      <trkpt lat="44.95352" lon="1.8964">
        <ele>169.81</ele>
        <time>2021-08-16T13:18:14Z</time>
      </trkpt>
      <trkpt lat="44.95346" lon="1.89628">
        <ele>168.85</ele>
        <time>2021-08-16T13:18:15Z</time>
      </trkpt>
      <trkpt lat="44.95341" lon="1.89619">
        <ele>168.37</ele>
        <time>2021-08-16T13:18:16Z</time>
      </trkpt>
      <trkpt lat="44.95334" lon="1.89611">
        <ele>167.89</ele>
        <time>2021-08-16T13:18:17Z</time>
      </trkpt>
      <trkpt lat="44.95326" lon="1.89602">
        <ele>167.41</ele>
        <time>2021-08-16T13:18:18Z</time>
      </trkpt>
      <trkpt lat="44.9532" lon="1.89596">
        <ele>166.93</ele>
        <time>2021-08-16T13:18:19Z</time>
      </trkpt>
      <trkpt lat="44.95311" lon="1.89589">
        <ele>166.93</ele>
        <time>2021-08-16T13:18:20Z</time>
      </trkpt>
      <trkpt lat="44.95302" lon="1.89584">
        <ele>167.41</ele>
        <time>2021-08-16T13:18:21Z</time>
      </trkpt>
      <trkpt lat="44.9528" lon="1.89572">
        <ele>167.41</ele>
        <time>2021-08-16T13:18:24Z</time>
      </trkpt>
      <trkpt lat="44.95274" lon="1.89568">
        <ele>166.93</ele>
        <time>2021-08-16T13:18:25Z</time>
      </trkpt>
      <trkpt lat="44.95268" lon="1.89561">
        <ele>166.93</ele>
        <time>2021-08-16T13:18:26Z</time>
      </trkpt>
      <trkpt lat="44.95262" lon="1.89554">
        <ele>166.93</ele>
        <time>2021-08-16T13:18:27Z</time>
      </trkpt>
      <trkpt lat="44.95258" lon="1.89549">
        <ele>166.93</ele>
        <time>2021-08-16T13:18:28Z</time>
      </trkpt>
      <trkpt lat="44.95253" lon="1.89542">
        <ele>166.93</ele>
        <time>2021-08-16T13:18:29Z</time>
      </trkpt>
      <trkpt lat="44.95248" lon="1.89534">
        <ele>166.93</ele>
        <time>2021-08-16T13:18:30Z</time>
      </trkpt>
      <trkpt lat="44.95245" lon="1.89526">
        <ele>166.93</ele>
        <time>2021-08-16T13:18:31Z</time>
      </trkpt>
      <trkpt lat="44.95242" lon="1.89519">
        <ele>166.93</ele>
        <time>2021-08-16T13:18:32Z</time>
      </trkpt>
      <trkpt lat="44.95221" lon="1.89467">
        <ele>166.93</ele>
        <time>2021-08-16T13:18:39Z</time>
      </trkpt>
      <trkpt lat="44.95216" lon="1.89455">
        <ele>166.93</ele>
        <time>2021-08-16T13:18:41Z</time>
      </trkpt>
      <trkpt lat="44.95212" lon="1.89444">
        <ele>167.89</ele>
        <time>2021-08-16T13:18:43Z</time>
      </trkpt>
      <trkpt lat="44.95211" lon="1.89439">
        <ele>167.89</ele>
        <time>2021-08-16T13:18:44Z</time>
      </trkpt>
      <trkpt lat="44.95209" lon="1.89433">
        <ele>167.89</ele>
        <time>2021-08-16T13:18:45Z</time>
      </trkpt>
      <trkpt lat="44.95195" lon="1.89389">
        <ele>168.37</ele>
        <time>2021-08-16T13:18:54Z</time>
      </trkpt>
      <trkpt lat="44.95193" lon="1.89384">
        <ele>168.37</ele>
        <time>2021-08-16T13:18:55Z</time>
      </trkpt>
      <trkpt lat="44.95192" lon="1.89378">
        <ele>168.37</ele>
        <time>2021-08-16T13:18:56Z</time>
      </trkpt>
      <trkpt lat="44.9519" lon="1.89372">
        <ele>168.37</ele>
        <time>2021-08-16T13:18:57Z</time>
      </trkpt>
      <trkpt lat="44.95183" lon="1.8931">
        <ele>168.37</ele>
        <time>2021-08-16T13:19:06Z</time>
      </trkpt>
      <trkpt lat="44.95183" lon="1.89272">
        <ele>168.37</ele>
        <time>2021-08-16T13:19:11Z</time>
      </trkpt>
      <trkpt lat="44.95188" lon="1.89202">
        <ele>166.93</ele>
        <time>2021-08-16T13:19:21Z</time>
      </trkpt>
      <trkpt lat="44.95188" lon="1.89195">
        <ele>166.93</ele>
        <time>2021-08-16T13:19:22Z</time>
      </trkpt>
      <trkpt lat="44.95189" lon="1.89187">
        <ele>166.93</ele>
        <time>2021-08-16T13:19:23Z</time>
      </trkpt>
      <trkpt lat="44.95196" lon="1.89119">
        <ele>166.93</ele>
        <time>2021-08-16T13:19:32Z</time>
      </trkpt>
      <trkpt lat="44.95197" lon="1.89112">
        <ele>166.93</ele>
        <time>2021-08-16T13:19:33Z</time>
      </trkpt>
      <trkpt lat="44.95197" lon="1.89072">
        <ele>166.45</ele>
        <time>2021-08-16T13:19:38Z</time>
      </trkpt>
      <trkpt lat="44.95197" lon="1.89065">
        <ele>166.45</ele>
        <time>2021-08-16T13:19:39Z</time>
      </trkpt>
      <trkpt lat="44.95194" lon="1.89009">
        <ele>165.48</ele>
        <time>2021-08-16T13:19:46Z</time>
      </trkpt>
      <trkpt lat="44.95193" lon="1.89002">
        <ele>165.48</ele>
        <time>2021-08-16T13:19:47Z</time>
      </trkpt>
      <trkpt lat="44.9519" lon="1.88969">
        <ele>165.48</ele>
        <time>2021-08-16T13:19:52Z</time>
      </trkpt>
      <trkpt lat="44.95191" lon="1.88967">
        <ele>165.48</ele>
        <time>2021-08-16T13:19:53Z</time>
      </trkpt>
      <trkpt lat="44.95193" lon="1.88967">
        <ele>165.48</ele>
        <time>2021-08-16T13:19:54Z</time>
      </trkpt>
      <trkpt lat="44.95197" lon="1.88967">
        <ele>165.48</ele>
        <time>2021-08-16T13:20:01Z</time>
      </trkpt>
      <trkpt lat="44.95197" lon="1.88965">
        <ele>165.48</ele>
        <time>2021-08-16T13:20:17Z</time>
      </trkpt>
      <trkpt lat="44.95197" lon="1.88965">
        <ele>165</ele>
        <time>2021-08-16T13:20:40Z</time>
      </trkpt>
      <trkpt lat="44.95197" lon="1.88966">
        <ele>165</ele>
        <time>2021-08-16T13:20:57Z</time>
      </trkpt>
      <trkpt lat="44.95197" lon="1.88966">
        <ele>165</ele>
        <time>2021-08-16T13:21:11Z</time>
      </trkpt>
      <trkpt lat="44.95198" lon="1.88967">
        <ele>165</ele>
        <time>2021-08-16T13:21:23Z</time>
      </trkpt>
      <trkpt lat="44.95199" lon="1.88967">
        <ele>165</ele>
        <time>2021-08-16T13:21:44Z</time>
      </trkpt>
      <trkpt lat="44.95197" lon="1.88967">
        <ele>164.52</ele>
        <time>2021-08-16T13:22:03Z</time>
      </trkpt>
      <trkpt lat="44.95197" lon="1.88967">
        <ele>164.52</ele>
        <time>2021-08-16T13:22:14Z</time>
      </trkpt>
      <trkpt lat="44.95197" lon="1.88966">
        <ele>164.52</ele>
        <time>2021-08-16T13:22:33Z</time>
      </trkpt>
      <trkpt lat="44.95197" lon="1.88965">
        <ele>164.52</ele>
        <time>2021-08-16T13:22:52Z</time>
      </trkpt>
      <trkpt lat="44.95197" lon="1.88966">
        <ele>164.52</ele>
        <time>2021-08-16T13:23:11Z</time>
      </trkpt>
      <trkpt lat="44.95196" lon="1.88966">
        <ele>164.52</ele>
        <time>2021-08-16T13:23:19Z</time>
      </trkpt>
      <trkpt lat="44.95194" lon="1.88967">
        <ele>164.52</ele>
        <time>2021-08-16T13:23:21Z</time>
      </trkpt>
      <trkpt lat="44.95194" lon="1.88967">
        <ele>164.52</ele>
        <time>2021-08-16T13:23:27Z</time>
      </trkpt>
      <trkpt lat="44.95193" lon="1.88965">
        <ele>164.52</ele>
        <time>2021-08-16T13:23:41Z</time>
      </trkpt>
      <trkpt lat="44.9519" lon="1.88962">
        <ele>164.52</ele>
        <time>2021-08-16T13:23:47Z</time>
      </trkpt>
      <trkpt lat="44.95183" lon="1.88946">
        <ele>164.52</ele>
        <time>2021-08-16T13:23:52Z</time>
      </trkpt>
      <trkpt lat="44.95175" lon="1.88924">
        <ele>164.52</ele>
        <time>2021-08-16T13:23:57Z</time>
      </trkpt>
      <trkpt lat="44.95156" lon="1.88874">
        <ele>163.56</ele>
        <time>2021-08-16T13:24:06Z</time>
      </trkpt>
      <trkpt lat="44.95154" lon="1.88868">
        <ele>163.56</ele>
        <time>2021-08-16T13:24:07Z</time>
      </trkpt>
      <trkpt lat="44.95132" lon="1.88821">
        <ele>163.56</ele>
        <time>2021-08-16T13:24:16Z</time>
      </trkpt>
      <trkpt lat="44.9513" lon="1.88817">
        <ele>163.56</ele>
        <time>2021-08-16T13:24:17Z</time>
      </trkpt>
      <trkpt lat="44.95114" lon="1.88781">
        <ele>163.08</ele>
        <time>2021-08-16T13:24:24Z</time>
      </trkpt>
      <trkpt lat="44.95097" lon="1.88742">
        <ele>163.08</ele>
        <time>2021-08-16T13:24:31Z</time>
      </trkpt>
      <trkpt lat="44.95077" lon="1.88697">
        <ele>162.6</ele>
        <time>2021-08-16T13:24:38Z</time>
      </trkpt>
      <trkpt lat="44.95066" lon="1.88674">
        <ele>162.6</ele>
        <time>2021-08-16T13:24:42Z</time>
      </trkpt>
      <trkpt lat="44.9506" lon="1.88661">
        <ele>162.12</ele>
        <time>2021-08-16T13:24:44Z</time>
      </trkpt>
      <trkpt lat="44.95028" lon="1.88589">
        <ele>162.12</ele>
        <time>2021-08-16T13:24:55Z</time>
      </trkpt>
      <trkpt lat="44.95003" lon="1.8853">
        <ele>161.64</ele>
        <time>2021-08-16T13:25:04Z</time>
      </trkpt>
      <trkpt lat="44.94974" lon="1.88464">
        <ele>161.16</ele>
        <time>2021-08-16T13:25:14Z</time>
      </trkpt>
      <trkpt lat="44.94939" lon="1.88383">
        <ele>161.16</ele>
        <time>2021-08-16T13:25:26Z</time>
      </trkpt>
      <trkpt lat="44.94916" lon="1.88329">
        <ele>161.16</ele>
        <time>2021-08-16T13:25:34Z</time>
      </trkpt>
      <trkpt lat="44.94886" lon="1.88262">
        <ele>161.16</ele>
        <time>2021-08-16T13:25:44Z</time>
      </trkpt>
      <trkpt lat="44.9486" lon="1.88202">
        <ele>160.68</ele>
        <time>2021-08-16T13:25:53Z</time>
      </trkpt>
      <trkpt lat="44.94836" lon="1.88149">
        <ele>160.68</ele>
        <time>2021-08-16T13:26:01Z</time>
      </trkpt>
      <trkpt lat="44.94811" lon="1.88094">
        <ele>160.2</ele>
        <time>2021-08-16T13:26:09Z</time>
      </trkpt>
      <trkpt lat="44.94784" lon="1.88034">
        <ele>160.2</ele>
        <time>2021-08-16T13:26:18Z</time>
      </trkpt>
      <trkpt lat="44.94752" lon="1.87958">
        <ele>159.72</ele>
        <time>2021-08-16T13:26:29Z</time>
      </trkpt>
      <trkpt lat="44.94727" lon="1.87906">
        <ele>159.72</ele>
        <time>2021-08-16T13:26:37Z</time>
      </trkpt>
      <trkpt lat="44.94693" lon="1.8784">
        <ele>159.24</ele>
        <time>2021-08-16T13:26:47Z</time>
      </trkpt>
      <trkpt lat="44.94649" lon="1.87773">
        <ele>159.24</ele>
        <time>2021-08-16T13:26:58Z</time>
      </trkpt>
      <trkpt lat="44.9462" lon="1.87724">
        <ele>158.75</ele>
        <time>2021-08-16T13:27:06Z</time>
      </trkpt>
      <trkpt lat="44.94592" lon="1.87673">
        <ele>158.75</ele>
        <time>2021-08-16T13:27:14Z</time>
      </trkpt>
      <trkpt lat="44.94559" lon="1.87609">
        <ele>158.27</ele>
        <time>2021-08-16T13:27:24Z</time>
      </trkpt>
      <trkpt lat="44.94538" lon="1.87568">
        <ele>158.27</ele>
        <time>2021-08-16T13:27:31Z</time>
      </trkpt>
      <trkpt lat="44.94534" lon="1.87564">
        <ele>158.27</ele>
        <time>2021-08-16T13:27:32Z</time>
      </trkpt>
      <trkpt lat="44.94531" lon="1.87558">
        <ele>158.27</ele>
        <time>2021-08-16T13:27:33Z</time>
      </trkpt>
      <trkpt lat="44.94528" lon="1.87553">
        <ele>158.27</ele>
        <time>2021-08-16T13:27:34Z</time>
      </trkpt>
      <trkpt lat="44.94525" lon="1.87548">
        <ele>158.27</ele>
        <time>2021-08-16T13:27:35Z</time>
      </trkpt>
      <trkpt lat="44.94509" lon="1.87521">
        <ele>158.27</ele>
        <time>2021-08-16T13:27:40Z</time>
      </trkpt>
      <trkpt lat="44.94503" lon="1.87512">
        <ele>158.27</ele>
        <time>2021-08-16T13:27:42Z</time>
      </trkpt>
      <trkpt lat="44.94499" lon="1.87508">
        <ele>158.27</ele>
        <time>2021-08-16T13:27:43Z</time>
      </trkpt>
      <trkpt lat="44.94496" lon="1.87503">
        <ele>158.27</ele>
        <time>2021-08-16T13:27:44Z</time>
      </trkpt>
      <trkpt lat="44.94489" lon="1.87494">
        <ele>158.27</ele>
        <time>2021-08-16T13:27:46Z</time>
      </trkpt>
      <trkpt lat="44.9447" lon="1.87473">
        <ele>158.27</ele>
        <time>2021-08-16T13:27:51Z</time>
      </trkpt>
      <trkpt lat="44.94465" lon="1.87468">
        <ele>158.27</ele>
        <time>2021-08-16T13:27:52Z</time>
      </trkpt>
      <trkpt lat="44.94428" lon="1.87439">
        <ele>157.79</ele>
        <time>2021-08-16T13:28:00Z</time>
      </trkpt>
      <trkpt lat="44.94393" lon="1.8741">
        <ele>157.79</ele>
        <time>2021-08-16T13:28:08Z</time>
      </trkpt>
      <trkpt lat="44.94384" lon="1.87402">
        <ele>157.79</ele>
        <time>2021-08-16T13:28:10Z</time>
      </trkpt>
      <trkpt lat="44.94357" lon="1.8737">
        <ele>157.79</ele>
        <time>2021-08-16T13:28:17Z</time>
      </trkpt>
      <trkpt lat="44.94354" lon="1.87365">
        <ele>157.79</ele>
        <time>2021-08-16T13:28:18Z</time>
      </trkpt>
      <trkpt lat="44.94338" lon="1.8734">
        <ele>159.24</ele>
        <time>2021-08-16T13:28:23Z</time>
      </trkpt>
      <trkpt lat="44.94336" lon="1.87334">
        <ele>159.24</ele>
        <time>2021-08-16T13:28:24Z</time>
      </trkpt>
      <trkpt lat="44.94313" lon="1.87288">
        <ele>159.24</ele>
        <time>2021-08-16T13:28:33Z</time>
      </trkpt>
      <trkpt lat="44.9431" lon="1.87284">
        <ele>159.72</ele>
        <time>2021-08-16T13:28:34Z</time>
      </trkpt>
      <trkpt lat="44.94307" lon="1.8728">
        <ele>159.72</ele>
        <time>2021-08-16T13:28:35Z</time>
      </trkpt>
      <trkpt lat="44.9428" lon="1.8725">
        <ele>160.68</ele>
        <time>2021-08-16T13:28:44Z</time>
      </trkpt>
      <trkpt lat="44.94257" lon="1.87238">
        <ele>161.16</ele>
        <time>2021-08-16T13:28:51Z</time>
      </trkpt>
      <trkpt lat="44.94252" lon="1.87244">
        <ele>161.16</ele>
        <time>2021-08-16T13:28:53Z</time>
      </trkpt>
      <trkpt lat="44.94249" lon="1.87249">
        <ele>161.16</ele>
        <time>2021-08-16T13:28:54Z</time>
      </trkpt>
      <trkpt lat="44.94232" lon="1.87302">
        <ele>161.16</ele>
        <time>2021-08-16T13:29:04Z</time>
      </trkpt>
      <trkpt lat="44.94217" lon="1.87353">
        <ele>160.68</ele>
        <time>2021-08-16T13:29:13Z</time>
      </trkpt>
      <trkpt lat="44.94196" lon="1.8742">
        <ele>160.68</ele>
        <time>2021-08-16T13:29:24Z</time>
      </trkpt>
      <trkpt lat="44.94191" lon="1.87437">
        <ele>160.68</ele>
        <time>2021-08-16T13:29:27Z</time>
      </trkpt>
      <trkpt lat="44.94184" lon="1.87454">
        <ele>160.68</ele>
        <time>2021-08-16T13:29:30Z</time>
      </trkpt>
      <trkpt lat="44.9418" lon="1.8746">
        <ele>160.68</ele>
        <time>2021-08-16T13:29:31Z</time>
      </trkpt>
      <trkpt lat="44.94153" lon="1.87497">
        <ele>160.68</ele>
        <time>2021-08-16T13:29:38Z</time>
      </trkpt>
      <trkpt lat="44.94111" lon="1.87554">
        <ele>159.72</ele>
        <time>2021-08-16T13:29:49Z</time>
      </trkpt>
      <trkpt lat="44.9408" lon="1.87597">
        <ele>160.68</ele>
        <time>2021-08-16T13:29:59Z</time>
      </trkpt>
      <trkpt lat="44.94065" lon="1.87618">
        <ele>162.12</ele>
        <time>2021-08-16T13:30:06Z</time>
      </trkpt>
      <trkpt lat="44.94049" lon="1.87641">
        <ele>163.08</ele>
        <time>2021-08-16T13:30:15Z</time>
      </trkpt>
      <trkpt lat="44.94034" lon="1.87658">
        <ele>164.52</ele>
        <time>2021-08-16T13:30:23Z</time>
      </trkpt>
      <trkpt lat="44.94019" lon="1.87679">
        <ele>165.96</ele>
        <time>2021-08-16T13:30:33Z</time>
      </trkpt>
      <trkpt lat="44.94003" lon="1.87693">
        <ele>166.45</ele>
        <time>2021-08-16T13:30:42Z</time>
      </trkpt>
      <trkpt lat="44.93998" lon="1.87692">
        <ele>166.93</ele>
        <time>2021-08-16T13:30:45Z</time>
      </trkpt>
      <trkpt lat="44.93997" lon="1.87694">
        <ele>166.45</ele>
        <time>2021-08-16T13:30:46Z</time>
      </trkpt>
      <trkpt lat="44.93997" lon="1.87697">
        <ele>166.45</ele>
        <time>2021-08-16T13:30:47Z</time>
      </trkpt>
      <trkpt lat="44.93997" lon="1.877">
        <ele>166.45</ele>
        <time>2021-08-16T13:30:48Z</time>
      </trkpt>
      <trkpt lat="44.93998" lon="1.87702">
        <ele>166.45</ele>
        <time>2021-08-16T13:30:49Z</time>
      </trkpt>
      <trkpt lat="44.94001" lon="1.8772">
        <ele>166.93</ele>
        <time>2021-08-16T13:30:55Z</time>
      </trkpt>
      <trkpt lat="44.93993" lon="1.87739">
        <ele>167.41</ele>
        <time>2021-08-16T13:31:02Z</time>
      </trkpt>
      <trkpt lat="44.93981" lon="1.87752">
        <ele>168.37</ele>
        <time>2021-08-16T13:31:09Z</time>
      </trkpt>
      <trkpt lat="44.93965" lon="1.87763">
        <ele>169.33</ele>
        <time>2021-08-16T13:31:17Z</time>
      </trkpt>
      <trkpt lat="44.93947" lon="1.87762">
        <ele>169.81</ele>
        <time>2021-08-16T13:31:25Z</time>
      </trkpt>
      <trkpt lat="44.93941" lon="1.87769">
        <ele>170.29</ele>
        <time>2021-08-16T13:31:30Z</time>
      </trkpt>
      <trkpt lat="44.93941" lon="1.8777">
        <ele>170.29</ele>
        <time>2021-08-16T13:31:31Z</time>
      </trkpt>
      <trkpt lat="44.93939" lon="1.87769">
        <ele>170.29</ele>
        <time>2021-08-16T13:31:34Z</time>
      </trkpt>
      <trkpt lat="44.93941" lon="1.87766">
        <ele>170.29</ele>
        <time>2021-08-16T13:31:36Z</time>
      </trkpt>
      <trkpt lat="44.93942" lon="1.87763">
        <ele>170.29</ele>
        <time>2021-08-16T13:31:37Z</time>
      </trkpt>
      <trkpt lat="44.93942" lon="1.87761">
        <ele>170.29</ele>
        <time>2021-08-16T13:31:38Z</time>
      </trkpt>
      <trkpt lat="44.93942" lon="1.87759">
        <ele>170.29</ele>
        <time>2021-08-16T13:31:39Z</time>
      </trkpt>
      <trkpt lat="44.93941" lon="1.87757">
        <ele>170.29</ele>
        <time>2021-08-16T13:31:40Z</time>
      </trkpt>
      <trkpt lat="44.93939" lon="1.87755">
        <ele>168.85</ele>
        <time>2021-08-16T13:31:41Z</time>
      </trkpt>
      <trkpt lat="44.93936" lon="1.87754">
        <ele>168.85</ele>
        <time>2021-08-16T13:31:42Z</time>
      </trkpt>
      <trkpt lat="44.93927" lon="1.87743">
        <ele>167.41</ele>
        <time>2021-08-16T13:31:48Z</time>
      </trkpt>
      <trkpt lat="44.93926" lon="1.87742">
        <ele>167.41</ele>
        <time>2021-08-16T13:31:49Z</time>
      </trkpt>
      <trkpt lat="44.93925" lon="1.87742">
        <ele>166.93</ele>
        <time>2021-08-16T13:31:50Z</time>
      </trkpt>
      <trkpt lat="44.93922" lon="1.87742">
        <ele>166.45</ele>
        <time>2021-08-16T13:31:51Z</time>
      </trkpt>
      <trkpt lat="44.9392" lon="1.87743">
        <ele>166.45</ele>
        <time>2021-08-16T13:31:52Z</time>
      </trkpt>
      <trkpt lat="44.93918" lon="1.87745">
        <ele>166.45</ele>
        <time>2021-08-16T13:31:53Z</time>
      </trkpt>
      <trkpt lat="44.93915" lon="1.87746">
        <ele>166.45</ele>
        <time>2021-08-16T13:31:54Z</time>
      </trkpt>
      <trkpt lat="44.93893" lon="1.87766">
        <ele>165.96</ele>
        <time>2021-08-16T13:32:02Z</time>
      </trkpt>
      <trkpt lat="44.93872" lon="1.87785">
        <ele>165.96</ele>
        <time>2021-08-16T13:32:10Z</time>
      </trkpt>
      <trkpt lat="44.9385" lon="1.87811">
        <ele>165.96</ele>
        <time>2021-08-16T13:32:18Z</time>
      </trkpt>
      <trkpt lat="44.93839" lon="1.87844">
        <ele>165.96</ele>
        <time>2021-08-16T13:32:25Z</time>
      </trkpt>
      <trkpt lat="44.93827" lon="1.87898">
        <ele>165.96</ele>
        <time>2021-08-16T13:32:35Z</time>
      </trkpt>
      <trkpt lat="44.93823" lon="1.87914">
        <ele>165.96</ele>
        <time>2021-08-16T13:32:38Z</time>
      </trkpt>
      <trkpt lat="44.93819" lon="1.87925">
        <ele>165.96</ele>
        <time>2021-08-16T13:32:40Z</time>
      </trkpt>
      <trkpt lat="44.93817" lon="1.87929">
        <ele>165.96</ele>
        <time>2021-08-16T13:32:41Z</time>
      </trkpt>
      <trkpt lat="44.93813" lon="1.87933">
        <ele>165.96</ele>
        <time>2021-08-16T13:32:42Z</time>
      </trkpt>
      <trkpt lat="44.9381" lon="1.87937">
        <ele>165.96</ele>
        <time>2021-08-16T13:32:43Z</time>
      </trkpt>
      <trkpt lat="44.93807" lon="1.87941">
        <ele>165.96</ele>
        <time>2021-08-16T13:32:44Z</time>
      </trkpt>
      <trkpt lat="44.93803" lon="1.87945">
        <ele>165.96</ele>
        <time>2021-08-16T13:32:45Z</time>
      </trkpt>
      <trkpt lat="44.93799" lon="1.87949">
        <ele>165.96</ele>
        <time>2021-08-16T13:32:46Z</time>
      </trkpt>
      <trkpt lat="44.93771" lon="1.87977">
        <ele>165.96</ele>
        <time>2021-08-16T13:32:54Z</time>
      </trkpt>
      <trkpt lat="44.93754" lon="1.88013">
        <ele>165.96</ele>
        <time>2021-08-16T13:33:02Z</time>
      </trkpt>
      <trkpt lat="44.9374" lon="1.88044">
        <ele>165.96</ele>
        <time>2021-08-16T13:33:08Z</time>
      </trkpt>
      <trkpt lat="44.93737" lon="1.88049">
        <ele>165.96</ele>
        <time>2021-08-16T13:33:09Z</time>
      </trkpt>
      <trkpt lat="44.93726" lon="1.88067">
        <ele>165.96</ele>
        <time>2021-08-16T13:33:13Z</time>
      </trkpt>
      <trkpt lat="44.93724" lon="1.88071">
        <ele>165.96</ele>
        <time>2021-08-16T13:33:14Z</time>
      </trkpt>
      <trkpt lat="44.93711" lon="1.88089">
        <ele>165.48</ele>
        <time>2021-08-16T13:33:18Z</time>
      </trkpt>
      <trkpt lat="44.93708" lon="1.88093">
        <ele>165.48</ele>
        <time>2021-08-16T13:33:19Z</time>
      </trkpt>
      <trkpt lat="44.93704" lon="1.88097">
        <ele>165.48</ele>
        <time>2021-08-16T13:33:20Z</time>
      </trkpt>
      <trkpt lat="44.93699" lon="1.881">
        <ele>165.48</ele>
        <time>2021-08-16T13:33:21Z</time>
      </trkpt>
      <trkpt lat="44.93695" lon="1.88103">
        <ele>165.48</ele>
        <time>2021-08-16T13:33:22Z</time>
      </trkpt>
      <trkpt lat="44.93689" lon="1.88104">
        <ele>165.48</ele>
        <time>2021-08-16T13:33:23Z</time>
      </trkpt>
      <trkpt lat="44.93686" lon="1.88104">
        <ele>165.48</ele>
        <time>2021-08-16T13:33:24Z</time>
      </trkpt>
      <trkpt lat="44.9368" lon="1.88102">
        <ele>165.48</ele>
        <time>2021-08-16T13:33:25Z</time>
      </trkpt>
      <trkpt lat="44.93676" lon="1.88101">
        <ele>165</ele>
        <time>2021-08-16T13:33:26Z</time>
      </trkpt>
      <trkpt lat="44.9367" lon="1.881">
        <ele>164.52</ele>
        <time>2021-08-16T13:33:27Z</time>
      </trkpt>
      <trkpt lat="44.93665" lon="1.88098">
        <ele>164.52</ele>
        <time>2021-08-16T13:33:28Z</time>
      </trkpt>
      <trkpt lat="44.93659" lon="1.88095">
        <ele>163.56</ele>
        <time>2021-08-16T13:33:29Z</time>
      </trkpt>
      <trkpt lat="44.93653" lon="1.88092">
        <ele>163.08</ele>
        <time>2021-08-16T13:33:30Z</time>
      </trkpt>
      <trkpt lat="44.93648" lon="1.88087">
        <ele>163.08</ele>
        <time>2021-08-16T13:33:31Z</time>
      </trkpt>
      <trkpt lat="44.93644" lon="1.88082">
        <ele>162.6</ele>
        <time>2021-08-16T13:33:32Z</time>
      </trkpt>
      <trkpt lat="44.93641" lon="1.88076">
        <ele>162.12</ele>
        <time>2021-08-16T13:33:33Z</time>
      </trkpt>
      <trkpt lat="44.9364" lon="1.88069">
        <ele>162.12</ele>
        <time>2021-08-16T13:33:34Z</time>
      </trkpt>
      <trkpt lat="44.9364" lon="1.88061">
        <ele>161.64</ele>
        <time>2021-08-16T13:33:35Z</time>
      </trkpt>
      <trkpt lat="44.93643" lon="1.88055">
        <ele>161.64</ele>
        <time>2021-08-16T13:33:36Z</time>
      </trkpt>
      <trkpt lat="44.93646" lon="1.88049">
        <ele>161.64</ele>
        <time>2021-08-16T13:33:37Z</time>
      </trkpt>
      <trkpt lat="44.9365" lon="1.88043">
        <ele>161.64</ele>
        <time>2021-08-16T13:33:38Z</time>
      </trkpt>
      <trkpt lat="44.93674" lon="1.88001">
        <ele>160.68</ele>
        <time>2021-08-16T13:33:46Z</time>
      </trkpt>
      <trkpt lat="44.93673" lon="1.87999">
        <ele>160.68</ele>
        <time>2021-08-16T13:33:47Z</time>
      </trkpt>
      <trkpt lat="44.93669" lon="1.88006">
        <ele>160.68</ele>
        <time>2021-08-16T13:33:51Z</time>
      </trkpt>
      <trkpt lat="44.93656" lon="1.88032">
        <ele>160.68</ele>
        <time>2021-08-16T13:33:58Z</time>
      </trkpt>
      <trkpt lat="44.93639" lon="1.88063">
        <ele>161.64</ele>
        <time>2021-08-16T13:34:04Z</time>
      </trkpt>
      <trkpt lat="44.93639" lon="1.88067">
        <ele>162.12</ele>
        <time>2021-08-16T13:34:05Z</time>
      </trkpt>
      <trkpt lat="44.93639" lon="1.88073">
        <ele>161.64</ele>
        <time>2021-08-16T13:34:06Z</time>
      </trkpt>
      <trkpt lat="44.93641" lon="1.88078">
        <ele>161.64</ele>
        <time>2021-08-16T13:34:07Z</time>
      </trkpt>
      <trkpt lat="44.93643" lon="1.88082">
        <ele>161.64</ele>
        <time>2021-08-16T13:34:08Z</time>
      </trkpt>
      <trkpt lat="44.93646" lon="1.88087">
        <ele>162.12</ele>
        <time>2021-08-16T13:34:09Z</time>
      </trkpt>
      <trkpt lat="44.93649" lon="1.8809">
        <ele>162.6</ele>
        <time>2021-08-16T13:34:10Z</time>
      </trkpt>
      <trkpt lat="44.93652" lon="1.88092">
        <ele>162.6</ele>
        <time>2021-08-16T13:34:11Z</time>
      </trkpt>
      <trkpt lat="44.93655" lon="1.88094">
        <ele>163.08</ele>
        <time>2021-08-16T13:34:12Z</time>
      </trkpt>
      <trkpt lat="44.93668" lon="1.88099">
        <ele>164.04</ele>
        <time>2021-08-16T13:34:18Z</time>
      </trkpt>
      <trkpt lat="44.93676" lon="1.88103">
        <ele>164.52</ele>
        <time>2021-08-16T13:34:22Z</time>
      </trkpt>
      <trkpt lat="44.93674" lon="1.8811">
        <ele>165</ele>
        <time>2021-08-16T13:34:26Z</time>
      </trkpt>
      <trkpt lat="44.93672" lon="1.8811">
        <ele>165</ele>
        <time>2021-08-16T13:34:27Z</time>
      </trkpt>
      <trkpt lat="44.93671" lon="1.8811">
        <ele>165</ele>
        <time>2021-08-16T13:34:28Z</time>
      </trkpt>
      <trkpt lat="44.93668" lon="1.88109">
        <ele>165</ele>
        <time>2021-08-16T13:34:29Z</time>
      </trkpt>
      <trkpt lat="44.93665" lon="1.88108">
        <ele>165</ele>
        <time>2021-08-16T13:34:30Z</time>
      </trkpt>
      <trkpt lat="44.93662" lon="1.88107">
        <ele>165</ele>
        <time>2021-08-16T13:34:31Z</time>
      </trkpt>
      <trkpt lat="44.93655" lon="1.88104">
        <ele>165</ele>
        <time>2021-08-16T13:34:33Z</time>
      </trkpt>
      <trkpt lat="44.93637" lon="1.88089">
        <ele>165</ele>
        <time>2021-08-16T13:34:38Z</time>
      </trkpt>
      <trkpt lat="44.93617" lon="1.8806">
        <ele>165</ele>
        <time>2021-08-16T13:34:46Z</time>
      </trkpt>
      <trkpt lat="44.93611" lon="1.88041">
        <ele>165.96</ele>
        <time>2021-08-16T13:34:52Z</time>
      </trkpt>
      <trkpt lat="44.93608" lon="1.88021">
        <ele>167.41</ele>
        <time>2021-08-16T13:35:00Z</time>
      </trkpt>
      <trkpt lat="44.93605" lon="1.87996">
        <ele>168.37</ele>
        <time>2021-08-16T13:35:09Z</time>
      </trkpt>
      <trkpt lat="44.93602" lon="1.87974">
        <ele>169.33</ele>
        <time>2021-08-16T13:35:17Z</time>
      </trkpt>
      <trkpt lat="44.93599" lon="1.87957">
        <ele>170.77</ele>
        <time>2021-08-16T13:35:24Z</time>
      </trkpt>
      <trkpt lat="44.93594" lon="1.87934">
        <ele>171.73</ele>
        <time>2021-08-16T13:35:32Z</time>
      </trkpt>
      <trkpt lat="44.93586" lon="1.87907">
        <ele>173.17</ele>
        <time>2021-08-16T13:35:42Z</time>
      </trkpt>
      <trkpt lat="44.93579" lon="1.8789">
        <ele>174.14</ele>
        <time>2021-08-16T13:35:49Z</time>
      </trkpt>
      <trkpt lat="44.93568" lon="1.87869">
        <ele>175.1</ele>
        <time>2021-08-16T13:35:58Z</time>
      </trkpt>
      <trkpt lat="44.93552" lon="1.87853">
        <ele>176.06</ele>
        <time>2021-08-16T13:36:06Z</time>
      </trkpt>
      <trkpt lat="44.93537" lon="1.8784">
        <ele>177.02</ele>
        <time>2021-08-16T13:36:14Z</time>
      </trkpt>
      <trkpt lat="44.93522" lon="1.87832">
        <ele>178.46</ele>
        <time>2021-08-16T13:36:23Z</time>
      </trkpt>
      <trkpt lat="44.93519" lon="1.8783">
        <ele>178.94</ele>
        <time>2021-08-16T13:36:31Z</time>
      </trkpt>
      <trkpt lat="44.93517" lon="1.8783">
        <ele>178.94</ele>
        <time>2021-08-16T13:36:52Z</time>
      </trkpt>
      <trkpt lat="44.93519" lon="1.87834">
        <ele>178.94</ele>
        <time>2021-08-16T13:37:11Z</time>
      </trkpt>
      <trkpt lat="44.93518" lon="1.87837">
        <ele>179.42</ele>
        <time>2021-08-16T13:37:29Z</time>
      </trkpt>
      <trkpt lat="44.93517" lon="1.87831">
        <ele>179.42</ele>
        <time>2021-08-16T13:37:46Z</time>
      </trkpt>
      <trkpt lat="44.93517" lon="1.87828">
        <ele>179.42</ele>
        <time>2021-08-16T13:38:10Z</time>
      </trkpt>
      <trkpt lat="44.93517" lon="1.87826">
        <ele>179.42</ele>
        <time>2021-08-16T13:38:35Z</time>
      </trkpt>
      <trkpt lat="44.93513" lon="1.87829">
        <ele>179.42</ele>
        <time>2021-08-16T13:39:00Z</time>
      </trkpt>
      <trkpt lat="44.93514" lon="1.87829">
        <ele>179.42</ele>
        <time>2021-08-16T13:39:19Z</time>
      </trkpt>
      <trkpt lat="44.93514" lon="1.87829">
        <ele>179.42</ele>
        <time>2021-08-16T13:39:30Z</time>
      </trkpt>
      <trkpt lat="44.93514" lon="1.8783">
        <ele>179.42</ele>
        <time>2021-08-16T13:39:38Z</time>
      </trkpt>
      <trkpt lat="44.93512" lon="1.8783">
        <ele>179.9</ele>
        <time>2021-08-16T13:39:58Z</time>
      </trkpt>
      <trkpt lat="44.93513" lon="1.87828">
        <ele>179.9</ele>
        <time>2021-08-16T13:40:16Z</time>
      </trkpt>
      <trkpt lat="44.93515" lon="1.87822">
        <ele>179.9</ele>
        <time>2021-08-16T13:40:39Z</time>
      </trkpt>
      <trkpt lat="44.93517" lon="1.87825">
        <ele>179.9</ele>
        <time>2021-08-16T13:41:03Z</time>
      </trkpt>
      <trkpt lat="44.93518" lon="1.87832">
        <ele>179.9</ele>
        <time>2021-08-16T13:41:28Z</time>
      </trkpt>
      <trkpt lat="44.93516" lon="1.87834">
        <ele>180.38</ele>
        <time>2021-08-16T13:41:57Z</time>
      </trkpt>
      <trkpt lat="44.93517" lon="1.87834">
        <ele>180.38</ele>
        <time>2021-08-16T13:42:24Z</time>
      </trkpt>
      <trkpt lat="44.93519" lon="1.87834">
        <ele>179.9</ele>
        <time>2021-08-16T13:42:49Z</time>
      </trkpt>
      <trkpt lat="44.9352" lon="1.87832">
        <ele>179.9</ele>
        <time>2021-08-16T13:43:08Z</time>
      </trkpt>
      <trkpt lat="44.93517" lon="1.8783">
        <ele>179.9</ele>
        <time>2021-08-16T13:43:27Z</time>
      </trkpt>
      <trkpt lat="44.93516" lon="1.8783">
        <ele>179.9</ele>
        <time>2021-08-16T13:43:53Z</time>
      </trkpt>
      <trkpt lat="44.93518" lon="1.87829">
        <ele>179.9</ele>
        <time>2021-08-16T13:44:16Z</time>
      </trkpt>
      <trkpt lat="44.9352" lon="1.87828">
        <ele>179.9</ele>
        <time>2021-08-16T13:44:41Z</time>
      </trkpt>
      <trkpt lat="44.9352" lon="1.87828">
        <ele>179.9</ele>
        <time>2021-08-16T13:44:50Z</time>
      </trkpt>
      <trkpt lat="44.93519" lon="1.87828">
        <ele>179.9</ele>
        <time>2021-08-16T13:45:03Z</time>
      </trkpt>
      <trkpt lat="44.93519" lon="1.8783">
        <ele>179.42</ele>
        <time>2021-08-16T13:45:27Z</time>
      </trkpt>
      <trkpt lat="44.93518" lon="1.8783">
        <ele>179.42</ele>
        <time>2021-08-16T13:45:51Z</time>
      </trkpt>
      <trkpt lat="44.93518" lon="1.87831">
        <ele>179.42</ele>
        <time>2021-08-16T13:46:11Z</time>
      </trkpt>
      <trkpt lat="44.93516" lon="1.87832">
        <ele>179.42</ele>
        <time>2021-08-16T13:46:37Z</time>
      </trkpt>
      <trkpt lat="44.93516" lon="1.87833">
        <ele>179.42</ele>
        <time>2021-08-16T13:46:59Z</time>
      </trkpt>
      <trkpt lat="44.93515" lon="1.8783">
        <ele>179.42</ele>
        <time>2021-08-16T13:47:20Z</time>
      </trkpt>
      <trkpt lat="44.93517" lon="1.87827">
        <ele>179.42</ele>
        <time>2021-08-16T13:47:39Z</time>
      </trkpt>
      <trkpt lat="44.93515" lon="1.87831">
        <ele>179.42</ele>
        <time>2021-08-16T13:48:01Z</time>
      </trkpt>
      <trkpt lat="44.93516" lon="1.87829">
        <ele>178.94</ele>
        <time>2021-08-16T13:48:19Z</time>
      </trkpt>
      <trkpt lat="44.93516" lon="1.87827">
        <ele>178.94</ele>
        <time>2021-08-16T13:48:37Z</time>
      </trkpt>
      <trkpt lat="44.93517" lon="1.87829">
        <ele>179.42</ele>
        <time>2021-08-16T13:48:58Z</time>
      </trkpt>
      <trkpt lat="44.93517" lon="1.87828">
        <ele>179.42</ele>
        <time>2021-08-16T13:49:16Z</time>
      </trkpt>
      <trkpt lat="44.93515" lon="1.87826">
        <ele>179.42</ele>
        <time>2021-08-16T13:49:23Z</time>
      </trkpt>
      <trkpt lat="44.93519" lon="1.87833">
        <ele>179.42</ele>
        <time>2021-08-16T13:49:40Z</time>
      </trkpt>
      <trkpt lat="44.9352" lon="1.87831">
        <ele>179.42</ele>
        <time>2021-08-16T13:49:57Z</time>
      </trkpt>
      <trkpt lat="44.93523" lon="1.87836">
        <ele>179.42</ele>
        <time>2021-08-16T13:50:14Z</time>
      </trkpt>
      <trkpt lat="44.93518" lon="1.87833">
        <ele>179.42</ele>
        <time>2021-08-16T13:50:35Z</time>
      </trkpt>
      <trkpt lat="44.93514" lon="1.87835">
        <ele>179.42</ele>
        <time>2021-08-16T13:50:43Z</time>
      </trkpt>
      <trkpt lat="44.93506" lon="1.87836">
        <ele>179.42</ele>
        <time>2021-08-16T13:50:49Z</time>
      </trkpt>
      <trkpt lat="44.93493" lon="1.87839">
        <ele>180.38</ele>
        <time>2021-08-16T13:50:56Z</time>
      </trkpt>
      <trkpt lat="44.93491" lon="1.8784">
        <ele>180.38</ele>
        <time>2021-08-16T13:50:57Z</time>
      </trkpt>
      <trkpt lat="44.9349" lon="1.87841">
        <ele>180.87</ele>
        <time>2021-08-16T13:50:58Z</time>
      </trkpt>
      <trkpt lat="44.93488" lon="1.87842">
        <ele>180.87</ele>
        <time>2021-08-16T13:50:59Z</time>
      </trkpt>
      <trkpt lat="44.93486" lon="1.87843">
        <ele>180.87</ele>
        <time>2021-08-16T13:51:00Z</time>
      </trkpt>
      <trkpt lat="44.93485" lon="1.87844">
        <ele>181.35</ele>
        <time>2021-08-16T13:51:01Z</time>
      </trkpt>
      <trkpt lat="44.93471" lon="1.87851">
        <ele>182.31</ele>
        <time>2021-08-16T13:51:09Z</time>
      </trkpt>
      <trkpt lat="44.93459" lon="1.87858">
        <ele>183.27</ele>
        <time>2021-08-16T13:51:18Z</time>
      </trkpt>
      <trkpt lat="44.93454" lon="1.8786">
        <ele>183.75</ele>
        <time>2021-08-16T13:51:22Z</time>
      </trkpt>
      <trkpt lat="44.93454" lon="1.87862">
        <ele>183.75</ele>
        <time>2021-08-16T13:51:23Z</time>
      </trkpt>
      <trkpt lat="44.93452" lon="1.87862">
        <ele>183.75</ele>
        <time>2021-08-16T13:51:24Z</time>
      </trkpt>
      <trkpt lat="44.93451" lon="1.87863">
        <ele>183.75</ele>
        <time>2021-08-16T13:51:25Z</time>
      </trkpt>
      <trkpt lat="44.9345" lon="1.87863">
        <ele>184.23</ele>
        <time>2021-08-16T13:51:26Z</time>
      </trkpt>
      <trkpt lat="44.93448" lon="1.87863">
        <ele>184.23</ele>
        <time>2021-08-16T13:51:27Z</time>
      </trkpt>
      <trkpt lat="44.93447" lon="1.87863">
        <ele>184.23</ele>
        <time>2021-08-16T13:51:28Z</time>
      </trkpt>
      <trkpt lat="44.93445" lon="1.87863">
        <ele>184.23</ele>
        <time>2021-08-16T13:51:29Z</time>
      </trkpt>
      <trkpt lat="44.9344" lon="1.87861">
        <ele>184.71</ele>
        <time>2021-08-16T13:51:32Z</time>
      </trkpt>
      <trkpt lat="44.93439" lon="1.8786">
        <ele>184.71</ele>
        <time>2021-08-16T13:51:33Z</time>
      </trkpt>
      <trkpt lat="44.93438" lon="1.87859">
        <ele>184.71</ele>
        <time>2021-08-16T13:51:34Z</time>
      </trkpt>
      <trkpt lat="44.93436" lon="1.87857">
        <ele>184.71</ele>
        <time>2021-08-16T13:51:35Z</time>
      </trkpt>
      <trkpt lat="44.93435" lon="1.87856">
        <ele>185.19</ele>
        <time>2021-08-16T13:51:36Z</time>
      </trkpt>
      <trkpt lat="44.93434" lon="1.87854">
        <ele>185.19</ele>
        <time>2021-08-16T13:51:37Z</time>
      </trkpt>
      <trkpt lat="44.93433" lon="1.87852">
        <ele>185.19</ele>
        <time>2021-08-16T13:51:38Z</time>
      </trkpt>
      <trkpt lat="44.93432" lon="1.8785">
        <ele>185.19</ele>
        <time>2021-08-16T13:51:39Z</time>
      </trkpt>
      <trkpt lat="44.93428" lon="1.8783">
        <ele>187.11</ele>
        <time>2021-08-16T13:51:48Z</time>
      </trkpt>
      <trkpt lat="44.93427" lon="1.87808">
        <ele>187.59</ele>
        <time>2021-08-16T13:51:56Z</time>
      </trkpt>
      <trkpt lat="44.93428" lon="1.87786">
        <ele>188.56</ele>
        <time>2021-08-16T13:52:05Z</time>
      </trkpt>
      <trkpt lat="44.93423" lon="1.87761">
        <ele>189.52</ele>
        <time>2021-08-16T13:52:15Z</time>
      </trkpt>
      <trkpt lat="44.93414" lon="1.87744">
        <ele>190.96</ele>
        <time>2021-08-16T13:52:24Z</time>
      </trkpt>
      <trkpt lat="44.93403" lon="1.87725">
        <ele>191.92</ele>
        <time>2021-08-16T13:52:34Z</time>
      </trkpt>
      <trkpt lat="44.9339" lon="1.87708">
        <ele>193.36</ele>
        <time>2021-08-16T13:52:45Z</time>
      </trkpt>
      <trkpt lat="44.93374" lon="1.87699">
        <ele>194.32</ele>
        <time>2021-08-16T13:52:55Z</time>
      </trkpt>
      <trkpt lat="44.93362" lon="1.87695">
        <ele>195.28</ele>
        <time>2021-08-16T13:53:02Z</time>
      </trkpt>
      <trkpt lat="44.9335" lon="1.87691">
        <ele>196.25</ele>
        <time>2021-08-16T13:53:09Z</time>
      </trkpt>
      <trkpt lat="44.93333" lon="1.87686">
        <ele>197.21</ele>
        <time>2021-08-16T13:53:19Z</time>
      </trkpt>
      <trkpt lat="44.93314" lon="1.87681">
        <ele>198.17</ele>
        <time>2021-08-16T13:53:29Z</time>
      </trkpt>
      <trkpt lat="44.93297" lon="1.87678">
        <ele>199.61</ele>
        <time>2021-08-16T13:53:38Z</time>
      </trkpt>
      <trkpt lat="44.93284" lon="1.87676">
        <ele>200.09</ele>
        <time>2021-08-16T13:53:45Z</time>
      </trkpt>
      <trkpt lat="44.93269" lon="1.87674">
        <ele>201.05</ele>
        <time>2021-08-16T13:53:52Z</time>
      </trkpt>
      <trkpt lat="44.9325" lon="1.87671">
        <ele>202.49</ele>
        <time>2021-08-16T13:54:02Z</time>
      </trkpt>
      <trkpt lat="44.93231" lon="1.87669">
        <ele>203.94</ele>
        <time>2021-08-16T13:54:12Z</time>
      </trkpt>
      <trkpt lat="44.93225" lon="1.87668">
        <ele>204.42</ele>
        <time>2021-08-16T13:54:15Z</time>
      </trkpt>
      <trkpt lat="44.93224" lon="1.87666">
        <ele>204.42</ele>
        <time>2021-08-16T13:54:16Z</time>
      </trkpt>
      <trkpt lat="44.93222" lon="1.87665">
        <ele>204.42</ele>
        <time>2021-08-16T13:54:17Z</time>
      </trkpt>
      <trkpt lat="44.9322" lon="1.87665">
        <ele>204.42</ele>
        <time>2021-08-16T13:54:18Z</time>
      </trkpt>
      <trkpt lat="44.93218" lon="1.87664">
        <ele>204.42</ele>
        <time>2021-08-16T13:54:19Z</time>
      </trkpt>
      <trkpt lat="44.93217" lon="1.87664">
        <ele>204.9</ele>
        <time>2021-08-16T13:54:20Z</time>
      </trkpt>
      <trkpt lat="44.93215" lon="1.87664">
        <ele>204.9</ele>
        <time>2021-08-16T13:54:21Z</time>
      </trkpt>
      <trkpt lat="44.93213" lon="1.87664">
        <ele>204.9</ele>
        <time>2021-08-16T13:54:22Z</time>
      </trkpt>
      <trkpt lat="44.93211" lon="1.87663">
        <ele>204.9</ele>
        <time>2021-08-16T13:54:23Z</time>
      </trkpt>
      <trkpt lat="44.93209" lon="1.87662">
        <ele>205.38</ele>
        <time>2021-08-16T13:54:24Z</time>
      </trkpt>
      <trkpt lat="44.93192" lon="1.87648">
        <ele>206.82</ele>
        <time>2021-08-16T13:54:34Z</time>
      </trkpt>
      <trkpt lat="44.93178" lon="1.87639">
        <ele>207.78</ele>
        <time>2021-08-16T13:54:42Z</time>
      </trkpt>
      <trkpt lat="44.9316" lon="1.87633">
        <ele>209.22</ele>
        <time>2021-08-16T13:54:50Z</time>
      </trkpt>
      <trkpt lat="44.93136" lon="1.87636">
        <ele>210.67</ele>
        <time>2021-08-16T13:55:00Z</time>
      </trkpt>
      <trkpt lat="44.93118" lon="1.87646">
        <ele>212.11</ele>
        <time>2021-08-16T13:55:09Z</time>
      </trkpt>
      <trkpt lat="44.93101" lon="1.8766">
        <ele>213.55</ele>
        <time>2021-08-16T13:55:19Z</time>
      </trkpt>
      <trkpt lat="44.93087" lon="1.87671">
        <ele>214.99</ele>
        <time>2021-08-16T13:55:27Z</time>
      </trkpt>
      <trkpt lat="44.93072" lon="1.87685">
        <ele>216.43</ele>
        <time>2021-08-16T13:55:36Z</time>
      </trkpt>
      <trkpt lat="44.93058" lon="1.87697">
        <ele>217.4</ele>
        <time>2021-08-16T13:55:44Z</time>
      </trkpt>
      <trkpt lat="44.93039" lon="1.87716">
        <ele>219.8</ele>
        <time>2021-08-16T13:55:55Z</time>
      </trkpt>
      <trkpt lat="44.93023" lon="1.8773">
        <ele>221.24</ele>
        <time>2021-08-16T13:56:04Z</time>
      </trkpt>
      <trkpt lat="44.93006" lon="1.87742">
        <ele>222.2</ele>
        <time>2021-08-16T13:56:14Z</time>
      </trkpt>
      <trkpt lat="44.92989" lon="1.87746">
        <ele>223.64</ele>
        <time>2021-08-16T13:56:22Z</time>
      </trkpt>
      <trkpt lat="44.92977" lon="1.87736">
        <ele>225.09</ele>
        <time>2021-08-16T13:56:29Z</time>
      </trkpt>
      <trkpt lat="44.92969" lon="1.87716">
        <ele>226.05</ele>
        <time>2021-08-16T13:56:36Z</time>
      </trkpt>
      <trkpt lat="44.92962" lon="1.87694">
        <ele>227.97</ele>
        <time>2021-08-16T13:56:45Z</time>
      </trkpt>
      <trkpt lat="44.92955" lon="1.87672">
        <ele>229.41</ele>
        <time>2021-08-16T13:56:54Z</time>
      </trkpt>
      <trkpt lat="44.92942" lon="1.87663">
        <ele>230.85</ele>
        <time>2021-08-16T13:57:02Z</time>
      </trkpt>
      <trkpt lat="44.92919" lon="1.8767">
        <ele>232.3</ele>
        <time>2021-08-16T13:57:13Z</time>
      </trkpt>
      <trkpt lat="44.92903" lon="1.8768">
        <ele>233.26</ele>
        <time>2021-08-16T13:57:23Z</time>
      </trkpt>
      <trkpt lat="44.92901" lon="1.87681">
        <ele>233.74</ele>
        <time>2021-08-16T13:57:24Z</time>
      </trkpt>
      <trkpt lat="44.92886" lon="1.87691">
        <ele>234.7</ele>
        <time>2021-08-16T13:57:33Z</time>
      </trkpt>
      <trkpt lat="44.9287" lon="1.87706">
        <ele>236.14</ele>
        <time>2021-08-16T13:57:42Z</time>
      </trkpt>
      <trkpt lat="44.92859" lon="1.87724">
        <ele>237.1</ele>
        <time>2021-08-16T13:57:51Z</time>
      </trkpt>
      <trkpt lat="44.92854" lon="1.87745">
        <ele>239.02</ele>
        <time>2021-08-16T13:57:59Z</time>
      </trkpt>
      <trkpt lat="44.92855" lon="1.87773">
        <ele>239.51</ele>
        <time>2021-08-16T13:58:09Z</time>
      </trkpt>
      <trkpt lat="44.92852" lon="1.87796">
        <ele>241.43</ele>
        <time>2021-08-16T13:58:18Z</time>
      </trkpt>
      <trkpt lat="44.92845" lon="1.87819">
        <ele>242.39</ele>
        <time>2021-08-16T13:58:27Z</time>
      </trkpt>
      <trkpt lat="44.92835" lon="1.87831">
        <ele>242.87</ele>
        <time>2021-08-16T13:58:33Z</time>
      </trkpt>
      <trkpt lat="44.9282" lon="1.8784">
        <ele>244.79</ele>
        <time>2021-08-16T13:58:42Z</time>
      </trkpt>
      <trkpt lat="44.92803" lon="1.87847">
        <ele>245.75</ele>
        <time>2021-08-16T13:58:52Z</time>
      </trkpt>
      <trkpt lat="44.92801" lon="1.87848">
        <ele>245.75</ele>
        <time>2021-08-16T13:58:53Z</time>
      </trkpt>
      <trkpt lat="44.92799" lon="1.8785">
        <ele>246.23</ele>
        <time>2021-08-16T13:58:54Z</time>
      </trkpt>
      <trkpt lat="44.92797" lon="1.8785">
        <ele>246.23</ele>
        <time>2021-08-16T13:58:55Z</time>
      </trkpt>
      <trkpt lat="44.92796" lon="1.87851">
        <ele>246.23</ele>
        <time>2021-08-16T13:58:56Z</time>
      </trkpt>
      <trkpt lat="44.92794" lon="1.87853">
        <ele>246.72</ele>
        <time>2021-08-16T13:58:57Z</time>
      </trkpt>
      <trkpt lat="44.92793" lon="1.87854">
        <ele>246.72</ele>
        <time>2021-08-16T13:58:58Z</time>
      </trkpt>
      <trkpt lat="44.92779" lon="1.87867">
        <ele>247.2</ele>
        <time>2021-08-16T13:59:07Z</time>
      </trkpt>
      <trkpt lat="44.92763" lon="1.87884">
        <ele>249.12</ele>
        <time>2021-08-16T13:59:17Z</time>
      </trkpt>
      <trkpt lat="44.92754" lon="1.87895">
        <ele>249.6</ele>
        <time>2021-08-16T13:59:22Z</time>
      </trkpt>
      <trkpt lat="44.92742" lon="1.87917">
        <ele>251.04</ele>
        <time>2021-08-16T13:59:32Z</time>
      </trkpt>
      <trkpt lat="44.9273" lon="1.8793">
        <ele>251.52</ele>
        <time>2021-08-16T13:59:40Z</time>
      </trkpt>
      <trkpt lat="44.92719" lon="1.87934">
        <ele>252.48</ele>
        <time>2021-08-16T13:59:46Z</time>
      </trkpt>
      <trkpt lat="44.92717" lon="1.87933">
        <ele>252.96</ele>
        <time>2021-08-16T13:59:47Z</time>
      </trkpt>
      <trkpt lat="44.92716" lon="1.87933">
        <ele>252.96</ele>
        <time>2021-08-16T13:59:48Z</time>
      </trkpt>
      <trkpt lat="44.92698" lon="1.87934">
        <ele>254.41</ele>
        <time>2021-08-16T13:59:57Z</time>
      </trkpt>
      <trkpt lat="44.92683" lon="1.87939">
        <ele>254.89</ele>
        <time>2021-08-16T14:00:05Z</time>
      </trkpt>
      <trkpt lat="44.92659" lon="1.87944">
        <ele>256.81</ele>
        <time>2021-08-16T14:00:17Z</time>
      </trkpt>
      <trkpt lat="44.92642" lon="1.87947">
        <ele>257.77</ele>
        <time>2021-08-16T14:00:26Z</time>
      </trkpt>
      <trkpt lat="44.9262" lon="1.8795">
        <ele>259.21</ele>
        <time>2021-08-16T14:00:35Z</time>
      </trkpt>
      <trkpt lat="44.92603" lon="1.87949">
        <ele>260.65</ele>
        <time>2021-08-16T14:00:43Z</time>
      </trkpt>
      <trkpt lat="44.92587" lon="1.87936">
        <ele>261.62</ele>
        <time>2021-08-16T14:00:51Z</time>
      </trkpt>
      <trkpt lat="44.92578" lon="1.87918">
        <ele>263.06</ele>
        <time>2021-08-16T14:00:59Z</time>
      </trkpt>
      <trkpt lat="44.92568" lon="1.87894">
        <ele>264.02</ele>
        <time>2021-08-16T14:01:08Z</time>
      </trkpt>
      <trkpt lat="44.92557" lon="1.87872">
        <ele>265.46</ele>
        <time>2021-08-16T14:01:17Z</time>
      </trkpt>
      <trkpt lat="44.92545" lon="1.87833">
        <ele>266.9</ele>
        <time>2021-08-16T14:01:31Z</time>
      </trkpt>
      <trkpt lat="44.92535" lon="1.87809">
        <ele>268.35</ele>
        <time>2021-08-16T14:01:40Z</time>
      </trkpt>
      <trkpt lat="44.92524" lon="1.87785">
        <ele>270.27</ele>
        <time>2021-08-16T14:01:50Z</time>
      </trkpt>
      <trkpt lat="44.92505" lon="1.87772">
        <ele>271.71</ele>
        <time>2021-08-16T14:02:00Z</time>
      </trkpt>
      <trkpt lat="44.92485" lon="1.8777">
        <ele>273.15</ele>
        <time>2021-08-16T14:02:09Z</time>
      </trkpt>
      <trkpt lat="44.92466" lon="1.87773">
        <ele>274.11</ele>
        <time>2021-08-16T14:02:17Z</time>
      </trkpt>
      <trkpt lat="44.92448" lon="1.87786">
        <ele>274.59</ele>
        <time>2021-08-16T14:02:24Z</time>
      </trkpt>
      <trkpt lat="44.92427" lon="1.87806">
        <ele>274.11</ele>
        <time>2021-08-16T14:02:32Z</time>
      </trkpt>
      <trkpt lat="44.92415" lon="1.87818">
        <ele>274.11</ele>
        <time>2021-08-16T14:02:36Z</time>
      </trkpt>
      <trkpt lat="44.92408" lon="1.87825">
        <ele>272.67</ele>
        <time>2021-08-16T14:02:38Z</time>
      </trkpt>
      <trkpt lat="44.92397" lon="1.87837">
        <ele>272.19</ele>
        <time>2021-08-16T14:02:41Z</time>
      </trkpt>
      <trkpt lat="44.92374" lon="1.8786">
        <ele>271.71</ele>
        <time>2021-08-16T14:02:47Z</time>
      </trkpt>
      <trkpt lat="44.92343" lon="1.87893">
        <ele>270.75</ele>
        <time>2021-08-16T14:02:55Z</time>
      </trkpt>
      <trkpt lat="44.92308" lon="1.87925">
        <ele>270.27</ele>
        <time>2021-08-16T14:03:04Z</time>
      </trkpt>
      <trkpt lat="44.92305" lon="1.87927">
        <ele>270.27</ele>
        <time>2021-08-16T14:03:05Z</time>
      </trkpt>
      <trkpt lat="44.92282" lon="1.87929">
        <ele>269.79</ele>
        <time>2021-08-16T14:03:11Z</time>
      </trkpt>
      <trkpt lat="44.92258" lon="1.87931">
        <ele>269.31</ele>
        <time>2021-08-16T14:03:17Z</time>
      </trkpt>
      <trkpt lat="44.92245" lon="1.87928">
        <ele>269.31</ele>
        <time>2021-08-16T14:03:20Z</time>
      </trkpt>
      <trkpt lat="44.92225" lon="1.87921">
        <ele>267.86</ele>
        <time>2021-08-16T14:03:25Z</time>
      </trkpt>
      <trkpt lat="44.92221" lon="1.87919">
        <ele>267.86</ele>
        <time>2021-08-16T14:03:26Z</time>
      </trkpt>
      <trkpt lat="44.92191" lon="1.87913">
        <ele>266.42</ele>
        <time>2021-08-16T14:03:34Z</time>
      </trkpt>
      <trkpt lat="44.92184" lon="1.87912">
        <ele>265.46</ele>
        <time>2021-08-16T14:03:40Z</time>
      </trkpt>
      <trkpt lat="44.92183" lon="1.87909">
        <ele>265.46</ele>
        <time>2021-08-16T14:03:48Z</time>
      </trkpt>
      <trkpt lat="44.92183" lon="1.87906">
        <ele>265.46</ele>
        <time>2021-08-16T14:03:49Z</time>
      </trkpt>
      <trkpt lat="44.92186" lon="1.87897">
        <ele>264.5</ele>
        <time>2021-08-16T14:03:53Z</time>
      </trkpt>
      <trkpt lat="44.92187" lon="1.87896">
        <ele>264.5</ele>
        <time>2021-08-16T14:03:54Z</time>
      </trkpt>
      <trkpt lat="44.92188" lon="1.87895">
        <ele>264.02</ele>
        <time>2021-08-16T14:03:55Z</time>
      </trkpt>
      <trkpt lat="44.92189" lon="1.87895">
        <ele>264.02</ele>
        <time>2021-08-16T14:03:56Z</time>
      </trkpt>
      <trkpt lat="44.92191" lon="1.87895">
        <ele>264.02</ele>
        <time>2021-08-16T14:04:02Z</time>
      </trkpt>
      <trkpt lat="44.92192" lon="1.87889">
        <ele>264.02</ele>
        <time>2021-08-16T14:04:16Z</time>
      </trkpt>
      <trkpt lat="44.92191" lon="1.87887">
        <ele>264.02</ele>
        <time>2021-08-16T14:04:20Z</time>
      </trkpt>
      <trkpt lat="44.9219" lon="1.87885">
        <ele>264.02</ele>
        <time>2021-08-16T14:04:21Z</time>
      </trkpt>
      <trkpt lat="44.92187" lon="1.87881">
        <ele>264.02</ele>
        <time>2021-08-16T14:04:29Z</time>
      </trkpt>
      <trkpt lat="44.92185" lon="1.8788">
        <ele>264.02</ele>
        <time>2021-08-16T14:04:43Z</time>
      </trkpt>
      <trkpt lat="44.92184" lon="1.8788">
        <ele>264.02</ele>
        <time>2021-08-16T14:04:59Z</time>
      </trkpt>
      <trkpt lat="44.92185" lon="1.87881">
        <ele>264.02</ele>
        <time>2021-08-16T14:05:14Z</time>
      </trkpt>
      <trkpt lat="44.92185" lon="1.87882">
        <ele>264.02</ele>
        <time>2021-08-16T14:05:24Z</time>
      </trkpt>
      <trkpt lat="44.92185" lon="1.87883">
        <ele>264.02</ele>
        <time>2021-08-16T14:05:25Z</time>
      </trkpt>
      <trkpt lat="44.92182" lon="1.87891">
        <ele>264.02</ele>
        <time>2021-08-16T14:05:31Z</time>
      </trkpt>
      <trkpt lat="44.9218" lon="1.87897">
        <ele>264.02</ele>
        <time>2021-08-16T14:05:34Z</time>
      </trkpt>
      <trkpt lat="44.9218" lon="1.87899">
        <ele>264.02</ele>
        <time>2021-08-16T14:05:35Z</time>
      </trkpt>
      <trkpt lat="44.92179" lon="1.87908">
        <ele>265.46</ele>
        <time>2021-08-16T14:05:43Z</time>
      </trkpt>
      <trkpt lat="44.92178" lon="1.87908">
        <ele>265.46</ele>
        <time>2021-08-16T14:05:44Z</time>
      </trkpt>
      <trkpt lat="44.92177" lon="1.87909">
        <ele>265.46</ele>
        <time>2021-08-16T14:05:45Z</time>
      </trkpt>
      <trkpt lat="44.92175" lon="1.87909">
        <ele>265.46</ele>
        <time>2021-08-16T14:05:46Z</time>
      </trkpt>
      <trkpt lat="44.92173" lon="1.8791">
        <ele>265.46</ele>
        <time>2021-08-16T14:05:47Z</time>
      </trkpt>
      <trkpt lat="44.92171" lon="1.8791">
        <ele>265.46</ele>
        <time>2021-08-16T14:05:48Z</time>
      </trkpt>
      <trkpt lat="44.92169" lon="1.8791">
        <ele>265.46</ele>
        <time>2021-08-16T14:05:49Z</time>
      </trkpt>
      <trkpt lat="44.92166" lon="1.87911">
        <ele>265.46</ele>
        <time>2021-08-16T14:05:50Z</time>
      </trkpt>
      <trkpt lat="44.92144" lon="1.87918">
        <ele>264.98</ele>
        <time>2021-08-16T14:05:58Z</time>
      </trkpt>
      <trkpt lat="44.92128" lon="1.87925">
        <ele>264.02</ele>
        <time>2021-08-16T14:06:03Z</time>
      </trkpt>
      <trkpt lat="44.92097" lon="1.87934">
        <ele>263.54</ele>
        <time>2021-08-16T14:06:12Z</time>
      </trkpt>
      <trkpt lat="44.92066" lon="1.87935">
        <ele>262.58</ele>
        <time>2021-08-16T14:06:20Z</time>
      </trkpt>
      <trkpt lat="44.92024" lon="1.87934">
        <ele>261.14</ele>
        <time>2021-08-16T14:06:28Z</time>
      </trkpt>
      <trkpt lat="44.91967" lon="1.87929">
        <ele>259.69</ele>
        <time>2021-08-16T14:06:37Z</time>
      </trkpt>
      <trkpt lat="44.9194" lon="1.8793">
        <ele>258.73</ele>
        <time>2021-08-16T14:06:41Z</time>
      </trkpt>
      <trkpt lat="44.9188" lon="1.87944">
        <ele>257.77</ele>
        <time>2021-08-16T14:06:50Z</time>
      </trkpt>
      <trkpt lat="44.91868" lon="1.87949">
        <ele>257.77</ele>
        <time>2021-08-16T14:06:52Z</time>
      </trkpt>
      <trkpt lat="44.91861" lon="1.87953">
        <ele>257.77</ele>
        <time>2021-08-16T14:06:53Z</time>
      </trkpt>
      <trkpt lat="44.91856" lon="1.87958">
        <ele>257.29</ele>
        <time>2021-08-16T14:06:54Z</time>
      </trkpt>
      <trkpt lat="44.91851" lon="1.87963">
        <ele>257.29</ele>
        <time>2021-08-16T14:06:55Z</time>
      </trkpt>
      <trkpt lat="44.91846" lon="1.87969">
        <ele>257.29</ele>
        <time>2021-08-16T14:06:56Z</time>
      </trkpt>
      <trkpt lat="44.91828" lon="1.87987">
        <ele>255.85</ele>
        <time>2021-08-16T14:06:59Z</time>
      </trkpt>
      <trkpt lat="44.91819" lon="1.87993">
        <ele>254.41</ele>
        <time>2021-08-16T14:07:00Z</time>
      </trkpt>
      <trkpt lat="44.91813" lon="1.87997">
        <ele>253.93</ele>
        <time>2021-08-16T14:07:01Z</time>
      </trkpt>
      <trkpt lat="44.91804" lon="1.88001">
        <ele>252.96</ele>
        <time>2021-08-16T14:07:02Z</time>
      </trkpt>
      <trkpt lat="44.91795" lon="1.88005">
        <ele>252.48</ele>
        <time>2021-08-16T14:07:03Z</time>
      </trkpt>
      <trkpt lat="44.91766" lon="1.88017">
        <ele>249.12</ele>
        <time>2021-08-16T14:07:06Z</time>
      </trkpt>
      <trkpt lat="44.91737" lon="1.88035">
        <ele>245.75</ele>
        <time>2021-08-16T14:07:09Z</time>
      </trkpt>
      <trkpt lat="44.91706" lon="1.88059">
        <ele>241.91</ele>
        <time>2021-08-16T14:07:12Z</time>
      </trkpt>
      <trkpt lat="44.91675" lon="1.88087">
        <ele>237.58</ele>
        <time>2021-08-16T14:07:15Z</time>
      </trkpt>
      <trkpt lat="44.91643" lon="1.88114">
        <ele>234.7</ele>
        <time>2021-08-16T14:07:18Z</time>
      </trkpt>
      <trkpt lat="44.91597" lon="1.8814">
        <ele>231.33</ele>
        <time>2021-08-16T14:07:22Z</time>
      </trkpt>
      <trkpt lat="44.91562" lon="1.88157">
        <ele>227.97</ele>
        <time>2021-08-16T14:07:25Z</time>
      </trkpt>
      <trkpt lat="44.91525" lon="1.88175">
        <ele>224.12</ele>
        <time>2021-08-16T14:07:28Z</time>
      </trkpt>
      <trkpt lat="44.91491" lon="1.88191">
        <ele>220.28</ele>
        <time>2021-08-16T14:07:31Z</time>
      </trkpt>
      <trkpt lat="44.91455" lon="1.88202">
        <ele>216.43</ele>
        <time>2021-08-16T14:07:34Z</time>
      </trkpt>
      <trkpt lat="44.91442" lon="1.88202">
        <ele>215.47</ele>
        <time>2021-08-16T14:07:35Z</time>
      </trkpt>
      <trkpt lat="44.91407" lon="1.88198">
        <ele>212.11</ele>
        <time>2021-08-16T14:07:38Z</time>
      </trkpt>
      <trkpt lat="44.91396" lon="1.88193">
        <ele>210.67</ele>
        <time>2021-08-16T14:07:39Z</time>
      </trkpt>
      <trkpt lat="44.91386" lon="1.88186">
        <ele>209.7</ele>
        <time>2021-08-16T14:07:40Z</time>
      </trkpt>
      <trkpt lat="44.91377" lon="1.88176">
        <ele>208.74</ele>
        <time>2021-08-16T14:07:41Z</time>
      </trkpt>
      <trkpt lat="44.91368" lon="1.88166">
        <ele>207.78</ele>
        <time>2021-08-16T14:07:42Z</time>
      </trkpt>
      <trkpt lat="44.91358" lon="1.88153">
        <ele>206.82</ele>
        <time>2021-08-16T14:07:43Z</time>
      </trkpt>
      <trkpt lat="44.91333" lon="1.88115">
        <ele>202.98</ele>
        <time>2021-08-16T14:07:46Z</time>
      </trkpt>
      <trkpt lat="44.91309" lon="1.88072">
        <ele>199.13</ele>
        <time>2021-08-16T14:07:49Z</time>
      </trkpt>
      <trkpt lat="44.91286" lon="1.88027">
        <ele>194.8</ele>
        <time>2021-08-16T14:07:52Z</time>
      </trkpt>
      <trkpt lat="44.91263" lon="1.87981">
        <ele>190.96</ele>
        <time>2021-08-16T14:07:55Z</time>
      </trkpt>
      <trkpt lat="44.91251" lon="1.87952">
        <ele>188.56</ele>
        <time>2021-08-16T14:07:57Z</time>
      </trkpt>
      <trkpt lat="44.91247" lon="1.87939">
        <ele>187.59</ele>
        <time>2021-08-16T14:07:58Z</time>
      </trkpt>
      <trkpt lat="44.91246" lon="1.87928">
        <ele>186.63</ele>
        <time>2021-08-16T14:07:59Z</time>
      </trkpt>
      <trkpt lat="44.91245" lon="1.87918">
        <ele>186.15</ele>
        <time>2021-08-16T14:08:00Z</time>
      </trkpt>
      <trkpt lat="44.91243" lon="1.87912">
        <ele>186.15</ele>
        <time>2021-08-16T14:08:01Z</time>
      </trkpt>
      <trkpt lat="44.91238" lon="1.8791">
        <ele>185.67</ele>
        <time>2021-08-16T14:08:02Z</time>
      </trkpt>
      <trkpt lat="44.91235" lon="1.87913">
        <ele>185.19</ele>
        <time>2021-08-16T14:08:03Z</time>
      </trkpt>
      <trkpt lat="44.91233" lon="1.8792">
        <ele>184.71</ele>
        <time>2021-08-16T14:08:04Z</time>
      </trkpt>
      <trkpt lat="44.91234" lon="1.8793">
        <ele>184.23</ele>
        <time>2021-08-16T14:08:05Z</time>
      </trkpt>
      <trkpt lat="44.91235" lon="1.87939">
        <ele>183.27</ele>
        <time>2021-08-16T14:08:06Z</time>
      </trkpt>
      <trkpt lat="44.91245" lon="1.87983">
        <ele>179.9</ele>
        <time>2021-08-16T14:08:10Z</time>
      </trkpt>
      <trkpt lat="44.91258" lon="1.88035">
        <ele>176.06</ele>
        <time>2021-08-16T14:08:14Z</time>
      </trkpt>
      <trkpt lat="44.91264" lon="1.88064">
        <ele>174.62</ele>
        <time>2021-08-16T14:08:17Z</time>
      </trkpt>
      <trkpt lat="44.91264" lon="1.88072">
        <ele>173.66</ele>
        <time>2021-08-16T14:08:18Z</time>
      </trkpt>
      <trkpt lat="44.91262" lon="1.8808">
        <ele>172.69</ele>
        <time>2021-08-16T14:08:19Z</time>
      </trkpt>
      <trkpt lat="44.91258" lon="1.88083">
        <ele>171.73</ele>
        <time>2021-08-16T14:08:20Z</time>
      </trkpt>
      <trkpt lat="44.91251" lon="1.88083">
        <ele>170.77</ele>
        <time>2021-08-16T14:08:21Z</time>
      </trkpt>
      <trkpt lat="44.91244" lon="1.8808">
        <ele>170.29</ele>
        <time>2021-08-16T14:08:22Z</time>
      </trkpt>
      <trkpt lat="44.91238" lon="1.88077">
        <ele>169.81</ele>
        <time>2021-08-16T14:08:23Z</time>
      </trkpt>
      <trkpt lat="44.91231" lon="1.88074">
        <ele>168.85</ele>
        <time>2021-08-16T14:08:24Z</time>
      </trkpt>
      <trkpt lat="44.91222" lon="1.88074">
        <ele>169.33</ele>
        <time>2021-08-16T14:08:25Z</time>
      </trkpt>
      <trkpt lat="44.91216" lon="1.88076">
        <ele>168.85</ele>
        <time>2021-08-16T14:08:26Z</time>
      </trkpt>
      <trkpt lat="44.91208" lon="1.8808">
        <ele>169.33</ele>
        <time>2021-08-16T14:08:27Z</time>
      </trkpt>
      <trkpt lat="44.91201" lon="1.88084">
        <ele>168.85</ele>
        <time>2021-08-16T14:08:28Z</time>
      </trkpt>
      <trkpt lat="44.91195" lon="1.88087">
        <ele>168.85</ele>
        <time>2021-08-16T14:08:29Z</time>
      </trkpt>
      <trkpt lat="44.91147" lon="1.88118">
        <ele>169.33</ele>
        <time>2021-08-16T14:08:38Z</time>
      </trkpt>
      <trkpt lat="44.9112" lon="1.88136">
        <ele>170.77</ele>
        <time>2021-08-16T14:08:45Z</time>
      </trkpt>
      <trkpt lat="44.91098" lon="1.88149">
        <ele>170.77</ele>
        <time>2021-08-16T14:08:51Z</time>
      </trkpt>
      <trkpt lat="44.9108" lon="1.8816">
        <ele>170.77</ele>
        <time>2021-08-16T14:08:55Z</time>
      </trkpt>
      <trkpt lat="44.91076" lon="1.8816">
        <ele>170.77</ele>
        <time>2021-08-16T14:08:56Z</time>
      </trkpt>
      <trkpt lat="44.91071" lon="1.88159">
        <ele>170.77</ele>
        <time>2021-08-16T14:08:57Z</time>
      </trkpt>
      <trkpt lat="44.91067" lon="1.88156">
        <ele>170.77</ele>
        <time>2021-08-16T14:08:58Z</time>
      </trkpt>
      <trkpt lat="44.91064" lon="1.88151">
        <ele>169.81</ele>
        <time>2021-08-16T14:08:59Z</time>
      </trkpt>
      <trkpt lat="44.9106" lon="1.88145">
        <ele>169.81</ele>
        <time>2021-08-16T14:09:00Z</time>
      </trkpt>
      <trkpt lat="44.91045" lon="1.88126">
        <ele>169.33</ele>
        <time>2021-08-16T14:09:04Z</time>
      </trkpt>
      <trkpt lat="44.91041" lon="1.88122">
        <ele>168.85</ele>
        <time>2021-08-16T14:09:05Z</time>
      </trkpt>
      <trkpt lat="44.91036" lon="1.8812">
        <ele>168.85</ele>
        <time>2021-08-16T14:09:06Z</time>
      </trkpt>
      <trkpt lat="44.91031" lon="1.88118">
        <ele>168.85</ele>
        <time>2021-08-16T14:09:07Z</time>
      </trkpt>
      <trkpt lat="44.91025" lon="1.88118">
        <ele>168.85</ele>
        <time>2021-08-16T14:09:08Z</time>
      </trkpt>
      <trkpt lat="44.91018" lon="1.8812">
        <ele>168.85</ele>
        <time>2021-08-16T14:09:09Z</time>
      </trkpt>
      <trkpt lat="44.91014" lon="1.88122">
        <ele>168.85</ele>
        <time>2021-08-16T14:09:10Z</time>
      </trkpt>
      <trkpt lat="44.9101" lon="1.88125">
        <ele>168.85</ele>
        <time>2021-08-16T14:09:11Z</time>
      </trkpt>
      <trkpt lat="44.91005" lon="1.88128">
        <ele>168.85</ele>
        <time>2021-08-16T14:09:12Z</time>
      </trkpt>
      <trkpt lat="44.90975" lon="1.88156">
        <ele>168.85</ele>
        <time>2021-08-16T14:09:19Z</time>
      </trkpt>
      <trkpt lat="44.90971" lon="1.88158">
        <ele>168.85</ele>
        <time>2021-08-16T14:09:20Z</time>
      </trkpt>
      <trkpt lat="44.90966" lon="1.8816">
        <ele>168.85</ele>
        <time>2021-08-16T14:09:21Z</time>
      </trkpt>
      <trkpt lat="44.90962" lon="1.88162">
        <ele>168.85</ele>
        <time>2021-08-16T14:09:22Z</time>
      </trkpt>
      <trkpt lat="44.90959" lon="1.88162">
        <ele>168.85</ele>
        <time>2021-08-16T14:09:23Z</time>
      </trkpt>
      <trkpt lat="44.90951" lon="1.88169">
        <ele>168.85</ele>
        <time>2021-08-16T14:09:26Z</time>
      </trkpt>
      <trkpt lat="44.9095" lon="1.88171">
        <ele>168.85</ele>
        <time>2021-08-16T14:09:27Z</time>
      </trkpt>
      <trkpt lat="44.90948" lon="1.88176">
        <ele>170.29</ele>
        <time>2021-08-16T14:09:29Z</time>
      </trkpt>
      <trkpt lat="44.9094" lon="1.88197">
        <ele>171.73</ele>
        <time>2021-08-16T14:09:39Z</time>
      </trkpt>
      <trkpt lat="44.9093" lon="1.88213">
        <ele>172.69</ele>
        <time>2021-08-16T14:09:48Z</time>
      </trkpt>
      <trkpt lat="44.90917" lon="1.88222">
        <ele>174.62</ele>
        <time>2021-08-16T14:09:57Z</time>
      </trkpt>
      <trkpt lat="44.90901" lon="1.88227">
        <ele>176.06</ele>
        <time>2021-08-16T14:10:07Z</time>
      </trkpt>
      <trkpt lat="44.90892" lon="1.88218">
        <ele>176.06</ele>
        <time>2021-08-16T14:10:14Z</time>
      </trkpt>
      <trkpt lat="44.90886" lon="1.88191">
        <ele>175.1</ele>
        <time>2021-08-16T14:10:20Z</time>
      </trkpt>
      <trkpt lat="44.90885" lon="1.88186">
        <ele>175.1</ele>
        <time>2021-08-16T14:10:21Z</time>
      </trkpt>
      <trkpt lat="44.90885" lon="1.88159">
        <ele>173.66</ele>
        <time>2021-08-16T14:10:25Z</time>
      </trkpt>
      <trkpt lat="44.90886" lon="1.88153">
        <ele>173.17</ele>
        <time>2021-08-16T14:10:26Z</time>
      </trkpt>
      <trkpt lat="44.90888" lon="1.88147">
        <ele>173.17</ele>
        <time>2021-08-16T14:10:27Z</time>
      </trkpt>
      <trkpt lat="44.90897" lon="1.88117">
        <ele>171.73</ele>
        <time>2021-08-16T14:10:32Z</time>
      </trkpt>
      <trkpt lat="44.909" lon="1.88105">
        <ele>171.25</ele>
        <time>2021-08-16T14:10:34Z</time>
      </trkpt>
      <trkpt lat="44.90902" lon="1.88098">
        <ele>170.77</ele>
        <time>2021-08-16T14:10:35Z</time>
      </trkpt>
      <trkpt lat="44.90903" lon="1.88092">
        <ele>170.77</ele>
        <time>2021-08-16T14:10:36Z</time>
      </trkpt>
      <trkpt lat="44.90902" lon="1.88085">
        <ele>170.29</ele>
        <time>2021-08-16T14:10:37Z</time>
      </trkpt>
      <trkpt lat="44.90901" lon="1.88079">
        <ele>170.29</ele>
        <time>2021-08-16T14:10:38Z</time>
      </trkpt>
      <trkpt lat="44.90899" lon="1.88071">
        <ele>170.29</ele>
        <time>2021-08-16T14:10:39Z</time>
      </trkpt>
      <trkpt lat="44.90896" lon="1.8805">
        <ele>169.81</ele>
        <time>2021-08-16T14:10:42Z</time>
      </trkpt>
      <trkpt lat="44.90881" lon="1.87974">
        <ele>169.33</ele>
        <time>2021-08-16T14:10:53Z</time>
      </trkpt>
      <trkpt lat="44.90871" lon="1.87917">
        <ele>168.37</ele>
        <time>2021-08-16T14:11:01Z</time>
      </trkpt>
      <trkpt lat="44.90857" lon="1.87847">
        <ele>167.41</ele>
        <time>2021-08-16T14:11:11Z</time>
      </trkpt>
      <trkpt lat="44.90847" lon="1.87797">
        <ele>167.41</ele>
        <time>2021-08-16T14:11:18Z</time>
      </trkpt>
      <trkpt lat="44.90833" lon="1.87726">
        <ele>167.41</ele>
        <time>2021-08-16T14:11:28Z</time>
      </trkpt>
      <trkpt lat="44.9082" lon="1.8766">
        <ele>166.93</ele>
        <time>2021-08-16T14:11:37Z</time>
      </trkpt>
      <trkpt lat="44.90798" lon="1.87596">
        <ele>166.93</ele>
        <time>2021-08-16T14:11:47Z</time>
      </trkpt>
      <trkpt lat="44.90765" lon="1.87536">
        <ele>165.96</ele>
        <time>2021-08-16T14:11:57Z</time>
      </trkpt>
      <trkpt lat="44.90761" lon="1.87532">
        <ele>165.96</ele>
        <time>2021-08-16T14:11:58Z</time>
      </trkpt>
      <trkpt lat="44.90751" lon="1.87515">
        <ele>165.96</ele>
        <time>2021-08-16T14:12:03Z</time>
      </trkpt>
      <trkpt lat="44.90738" lon="1.87506">
        <ele>165.96</ele>
        <time>2021-08-16T14:12:09Z</time>
      </trkpt>
      <trkpt lat="44.90717" lon="1.87487">
        <ele>165.48</ele>
        <time>2021-08-16T14:12:15Z</time>
      </trkpt>
      <trkpt lat="44.90684" lon="1.87446">
        <ele>165</ele>
        <time>2021-08-16T14:12:24Z</time>
      </trkpt>
      <trkpt lat="44.90671" lon="1.87423">
        <ele>165</ele>
        <time>2021-08-16T14:12:28Z</time>
      </trkpt>
      <trkpt lat="44.90669" lon="1.87416">
        <ele>165</ele>
        <time>2021-08-16T14:12:29Z</time>
      </trkpt>
      <trkpt lat="44.90662" lon="1.87397">
        <ele>165</ele>
        <time>2021-08-16T14:12:32Z</time>
      </trkpt>
      <trkpt lat="44.9066" lon="1.8739">
        <ele>164.52</ele>
        <time>2021-08-16T14:12:33Z</time>
      </trkpt>
      <trkpt lat="44.90648" lon="1.87331">
        <ele>164.04</ele>
        <time>2021-08-16T14:12:41Z</time>
      </trkpt>
      <trkpt lat="44.90636" lon="1.87263">
        <ele>163.56</ele>
        <time>2021-08-16T14:12:50Z</time>
      </trkpt>
      <trkpt lat="44.90627" lon="1.87205">
        <ele>163.08</ele>
        <time>2021-08-16T14:12:58Z</time>
      </trkpt>
      <trkpt lat="44.90614" lon="1.87133">
        <ele>163.08</ele>
        <time>2021-08-16T14:13:08Z</time>
      </trkpt>
      <trkpt lat="44.90605" lon="1.8708">
        <ele>162.6</ele>
        <time>2021-08-16T14:13:16Z</time>
      </trkpt>
      <trkpt lat="44.90605" lon="1.87074">
        <ele>162.6</ele>
        <time>2021-08-16T14:13:17Z</time>
      </trkpt>
      <trkpt lat="44.90595" lon="1.87021">
        <ele>164.04</ele>
        <time>2021-08-16T14:13:26Z</time>
      </trkpt>
      <trkpt lat="44.90576" lon="1.86986">
        <ele>164.52</ele>
        <time>2021-08-16T14:13:34Z</time>
      </trkpt>
      <trkpt lat="44.90555" lon="1.86961">
        <ele>165.48</ele>
        <time>2021-08-16T14:13:43Z</time>
      </trkpt>
      <trkpt lat="44.90538" lon="1.86944">
        <ele>166.93</ele>
        <time>2021-08-16T14:13:50Z</time>
      </trkpt>
      <trkpt lat="44.90519" lon="1.86921">
        <ele>167.89</ele>
        <time>2021-08-16T14:13:58Z</time>
      </trkpt>
      <trkpt lat="44.905" lon="1.86901">
        <ele>168.85</ele>
        <time>2021-08-16T14:14:06Z</time>
      </trkpt>
      <trkpt lat="44.90485" lon="1.86884">
        <ele>169.81</ele>
        <time>2021-08-16T14:14:13Z</time>
      </trkpt>
      <trkpt lat="44.9047" lon="1.86864">
        <ele>170.77</ele>
        <time>2021-08-16T14:14:21Z</time>
      </trkpt>
      <trkpt lat="44.90455" lon="1.86841">
        <ele>171.73</ele>
        <time>2021-08-16T14:14:30Z</time>
      </trkpt>
      <trkpt lat="44.90442" lon="1.86811">
        <ele>173.17</ele>
        <time>2021-08-16T14:14:40Z</time>
      </trkpt>
      <trkpt lat="44.90433" lon="1.86781">
        <ele>174.14</ele>
        <time>2021-08-16T14:14:50Z</time>
      </trkpt>
      <trkpt lat="44.90425" lon="1.86747">
        <ele>175.58</ele>
        <time>2021-08-16T14:15:01Z</time>
      </trkpt>
      <trkpt lat="44.90419" lon="1.86716">
        <ele>177.02</ele>
        <time>2021-08-16T14:15:11Z</time>
      </trkpt>
      <trkpt lat="44.90411" lon="1.86682">
        <ele>178.46</ele>
        <time>2021-08-16T14:15:22Z</time>
      </trkpt>
      <trkpt lat="44.904" lon="1.86653">
        <ele>179.9</ele>
        <time>2021-08-16T14:15:32Z</time>
      </trkpt>
      <trkpt lat="44.90385" lon="1.86631">
        <ele>180.87</ele>
        <time>2021-08-16T14:15:41Z</time>
      </trkpt>
      <trkpt lat="44.90358" lon="1.86607">
        <ele>182.79</ele>
        <time>2021-08-16T14:15:54Z</time>
      </trkpt>
      <trkpt lat="44.90337" lon="1.86591">
        <ele>183.75</ele>
        <time>2021-08-16T14:16:03Z</time>
      </trkpt>
      <trkpt lat="44.90314" lon="1.86566">
        <ele>183.75</ele>
        <time>2021-08-16T14:16:12Z</time>
      </trkpt>
      <trkpt lat="44.90291" lon="1.86528">
        <ele>184.23</ele>
        <time>2021-08-16T14:16:23Z</time>
      </trkpt>
      <trkpt lat="44.90275" lon="1.86493">
        <ele>184.71</ele>
        <time>2021-08-16T14:16:32Z</time>
      </trkpt>
      <trkpt lat="44.90264" lon="1.86468">
        <ele>185.67</ele>
        <time>2021-08-16T14:16:39Z</time>
      </trkpt>
      <trkpt lat="44.90255" lon="1.86463">
        <ele>185.67</ele>
        <time>2021-08-16T14:16:42Z</time>
      </trkpt>
      <trkpt lat="44.90252" lon="1.86464">
        <ele>185.67</ele>
        <time>2021-08-16T14:16:43Z</time>
      </trkpt>
      <trkpt lat="44.90239" lon="1.86475">
        <ele>187.59</ele>
        <time>2021-08-16T14:16:50Z</time>
      </trkpt>
      <trkpt lat="44.90224" lon="1.8649">
        <ele>188.08</ele>
        <time>2021-08-16T14:16:58Z</time>
      </trkpt>
      <trkpt lat="44.90203" lon="1.86513">
        <ele>189.04</ele>
        <time>2021-08-16T14:17:07Z</time>
      </trkpt>
      <trkpt lat="44.9018" lon="1.86537">
        <ele>189.52</ele>
        <time>2021-08-16T14:17:16Z</time>
      </trkpt>
      <trkpt lat="44.90158" lon="1.86562">
        <ele>190.48</ele>
        <time>2021-08-16T14:17:25Z</time>
      </trkpt>
      <trkpt lat="44.90144" lon="1.86579">
        <ele>190.96</ele>
        <time>2021-08-16T14:17:31Z</time>
      </trkpt>
      <trkpt lat="44.90124" lon="1.866">
        <ele>191.92</ele>
        <time>2021-08-16T14:17:40Z</time>
      </trkpt>
      <trkpt lat="44.90121" lon="1.86601">
        <ele>191.92</ele>
        <time>2021-08-16T14:17:41Z</time>
      </trkpt>
      <trkpt lat="44.90118" lon="1.866">
        <ele>191.92</ele>
        <time>2021-08-16T14:17:42Z</time>
      </trkpt>
      <trkpt lat="44.9009" lon="1.86588">
        <ele>190.96</ele>
        <time>2021-08-16T14:17:49Z</time>
      </trkpt>
      <trkpt lat="44.90083" lon="1.86585">
        <ele>190.96</ele>
        <time>2021-08-16T14:17:51Z</time>
      </trkpt>
      <trkpt lat="44.90036" lon="1.86584">
        <ele>190.96</ele>
        <time>2021-08-16T14:18:01Z</time>
      </trkpt>
      <trkpt lat="44.89997" lon="1.86586">
        <ele>190.96</ele>
        <time>2021-08-16T14:18:09Z</time>
      </trkpt>
      <trkpt lat="44.8996" lon="1.86595">
        <ele>191.92</ele>
        <time>2021-08-16T14:18:19Z</time>
      </trkpt>
      <trkpt lat="44.89941" lon="1.86602">
        <ele>193.36</ele>
        <time>2021-08-16T14:18:27Z</time>
      </trkpt>
      <trkpt lat="44.89919" lon="1.86611">
        <ele>194.8</ele>
        <time>2021-08-16T14:18:38Z</time>
      </trkpt>
      <trkpt lat="44.89897" lon="1.86616">
        <ele>195.77</ele>
        <time>2021-08-16T14:18:47Z</time>
      </trkpt>
      <trkpt lat="44.89876" lon="1.86611">
        <ele>195.77</ele>
        <time>2021-08-16T14:18:55Z</time>
      </trkpt>
      <trkpt lat="44.89862" lon="1.86608">
        <ele>194.32</ele>
        <time>2021-08-16T14:18:59Z</time>
      </trkpt>
      <trkpt lat="44.8984" lon="1.86607">
        <ele>193.84</ele>
        <time>2021-08-16T14:19:06Z</time>
      </trkpt>
      <trkpt lat="44.89818" lon="1.86606">
        <ele>193.36</ele>
        <time>2021-08-16T14:19:12Z</time>
      </trkpt>
      <trkpt lat="44.89794" lon="1.8661">
        <ele>193.36</ele>
        <time>2021-08-16T14:19:18Z</time>
      </trkpt>
      <trkpt lat="44.8979" lon="1.8661">
        <ele>193.36</ele>
        <time>2021-08-16T14:19:19Z</time>
      </trkpt>
      <trkpt lat="44.8976" lon="1.86609">
        <ele>192.4</ele>
        <time>2021-08-16T14:19:26Z</time>
      </trkpt>
      <trkpt lat="44.89756" lon="1.86609">
        <ele>192.4</ele>
        <time>2021-08-16T14:19:27Z</time>
      </trkpt>
      <trkpt lat="44.89714" lon="1.86608">
        <ele>190</ele>
        <time>2021-08-16T14:19:37Z</time>
      </trkpt>
      <trkpt lat="44.89697" lon="1.86602">
        <ele>190.48</ele>
        <time>2021-08-16T14:19:43Z</time>
      </trkpt>
      <trkpt lat="44.8969" lon="1.86599">
        <ele>191.44</ele>
        <time>2021-08-16T14:19:46Z</time>
      </trkpt>
      <trkpt lat="44.89668" lon="1.86583">
        <ele>191.92</ele>
        <time>2021-08-16T14:19:54Z</time>
      </trkpt>
      <trkpt lat="44.8965" lon="1.86565">
        <ele>193.36</ele>
        <time>2021-08-16T14:20:02Z</time>
      </trkpt>
      <trkpt lat="44.89635" lon="1.86554">
        <ele>194.32</ele>
        <time>2021-08-16T14:20:09Z</time>
      </trkpt>
      <trkpt lat="44.8962" lon="1.86541">
        <ele>195.28</ele>
        <time>2021-08-16T14:20:18Z</time>
      </trkpt>
      <trkpt lat="44.89619" lon="1.86541">
        <ele>195.28</ele>
        <time>2021-08-16T14:20:19Z</time>
      </trkpt>
      <trkpt lat="44.89598" lon="1.8653">
        <ele>196.73</ele>
        <time>2021-08-16T14:20:33Z</time>
      </trkpt>
      <trkpt lat="44.89588" lon="1.86526">
        <ele>198.65</ele>
        <time>2021-08-16T14:20:41Z</time>
      </trkpt>
      <trkpt lat="44.89587" lon="1.86525">
        <ele>198.65</ele>
        <time>2021-08-16T14:20:42Z</time>
      </trkpt>
      <trkpt lat="44.89586" lon="1.86525">
        <ele>198.65</ele>
        <time>2021-08-16T14:20:43Z</time>
      </trkpt>
      <trkpt lat="44.89585" lon="1.86524">
        <ele>199.13</ele>
        <time>2021-08-16T14:20:44Z</time>
      </trkpt>
      <trkpt lat="44.89583" lon="1.86524">
        <ele>199.13</ele>
        <time>2021-08-16T14:20:45Z</time>
      </trkpt>
      <trkpt lat="44.89582" lon="1.86524">
        <ele>199.13</ele>
        <time>2021-08-16T14:20:46Z</time>
      </trkpt>
      <trkpt lat="44.89581" lon="1.86524">
        <ele>199.13</ele>
        <time>2021-08-16T14:20:47Z</time>
      </trkpt>
      <trkpt lat="44.89579" lon="1.86524">
        <ele>199.61</ele>
        <time>2021-08-16T14:20:48Z</time>
      </trkpt>
      <trkpt lat="44.89578" lon="1.86523">
        <ele>199.61</ele>
        <time>2021-08-16T14:20:49Z</time>
      </trkpt>
      <trkpt lat="44.89577" lon="1.86523">
        <ele>199.61</ele>
        <time>2021-08-16T14:20:50Z</time>
      </trkpt>
      <trkpt lat="44.89572" lon="1.86523">
        <ele>200.09</ele>
        <time>2021-08-16T14:20:54Z</time>
      </trkpt>
      <trkpt lat="44.8957" lon="1.86523">
        <ele>200.57</ele>
        <time>2021-08-16T14:20:55Z</time>
      </trkpt>
      <trkpt lat="44.89569" lon="1.86523">
        <ele>200.57</ele>
        <time>2021-08-16T14:20:56Z</time>
      </trkpt>
      <trkpt lat="44.89568" lon="1.86522">
        <ele>200.57</ele>
        <time>2021-08-16T14:20:57Z</time>
      </trkpt>
      <trkpt lat="44.89566" lon="1.86522">
        <ele>200.57</ele>
        <time>2021-08-16T14:20:58Z</time>
      </trkpt>
      <trkpt lat="44.89565" lon="1.86522">
        <ele>200.57</ele>
        <time>2021-08-16T14:20:59Z</time>
      </trkpt>
      <trkpt lat="44.89563" lon="1.86522">
        <ele>201.05</ele>
        <time>2021-08-16T14:21:00Z</time>
      </trkpt>
      <trkpt lat="44.89562" lon="1.86522">
        <ele>201.05</ele>
        <time>2021-08-16T14:21:01Z</time>
      </trkpt>
      <trkpt lat="44.89551" lon="1.86521">
        <ele>201.53</ele>
        <time>2021-08-16T14:21:08Z</time>
      </trkpt>
      <trkpt lat="44.89535" lon="1.86521">
        <ele>202.01</ele>
        <time>2021-08-16T14:21:15Z</time>
      </trkpt>
      <trkpt lat="44.89512" lon="1.8652">
        <ele>202.98</ele>
        <time>2021-08-16T14:21:24Z</time>
      </trkpt>
      <trkpt lat="44.89487" lon="1.86524">
        <ele>203.46</ele>
        <time>2021-08-16T14:21:33Z</time>
      </trkpt>
      <trkpt lat="44.8947" lon="1.86523">
        <ele>203.46</ele>
        <time>2021-08-16T14:21:40Z</time>
      </trkpt>
      <trkpt lat="44.89454" lon="1.86525">
        <ele>203.46</ele>
        <time>2021-08-16T14:21:47Z</time>
      </trkpt>
      <trkpt lat="44.89429" lon="1.86527">
        <ele>203.46</ele>
        <time>2021-08-16T14:21:55Z</time>
      </trkpt>
      <trkpt lat="44.89407" lon="1.8653">
        <ele>203.46</ele>
        <time>2021-08-16T14:22:02Z</time>
      </trkpt>
      <trkpt lat="44.89399" lon="1.86529">
        <ele>202.01</ele>
        <time>2021-08-16T14:22:04Z</time>
      </trkpt>
      <trkpt lat="44.89366" lon="1.86523">
        <ele>201.05</ele>
        <time>2021-08-16T14:22:13Z</time>
      </trkpt>
      <trkpt lat="44.89344" lon="1.86515">
        <ele>201.05</ele>
        <time>2021-08-16T14:22:21Z</time>
      </trkpt>
      <trkpt lat="44.89322" lon="1.86509">
        <ele>201.05</ele>
        <time>2021-08-16T14:22:28Z</time>
      </trkpt>
      <trkpt lat="44.893" lon="1.86497">
        <ele>202.49</ele>
        <time>2021-08-16T14:22:36Z</time>
      </trkpt>
      <trkpt lat="44.89288" lon="1.86493">
        <ele>203.46</ele>
        <time>2021-08-16T14:22:42Z</time>
      </trkpt>
      <trkpt lat="44.89275" lon="1.8649">
        <ele>204.9</ele>
        <time>2021-08-16T14:22:51Z</time>
      </trkpt>
      <trkpt lat="44.89265" lon="1.86488">
        <ele>205.86</ele>
        <time>2021-08-16T14:23:00Z</time>
      </trkpt>
      <trkpt lat="44.89254" lon="1.86487">
        <ele>206.82</ele>
        <time>2021-08-16T14:23:10Z</time>
      </trkpt>
      <trkpt lat="44.89252" lon="1.86487">
        <ele>207.3</ele>
        <time>2021-08-16T14:23:16Z</time>
      </trkpt>
      <trkpt lat="44.8925" lon="1.86486">
        <ele>207.3</ele>
        <time>2021-08-16T14:23:18Z</time>
      </trkpt>
      <trkpt lat="44.89248" lon="1.86486">
        <ele>207.3</ele>
        <time>2021-08-16T14:23:19Z</time>
      </trkpt>
      <trkpt lat="44.8923" lon="1.86486">
        <ele>207.78</ele>
        <time>2021-08-16T14:23:27Z</time>
      </trkpt>
      <trkpt lat="44.89208" lon="1.86486">
        <ele>208.26</ele>
        <time>2021-08-16T14:23:36Z</time>
      </trkpt>
      <trkpt lat="44.89185" lon="1.86487">
        <ele>208.74</ele>
        <time>2021-08-16T14:23:45Z</time>
      </trkpt>
      <trkpt lat="44.89164" lon="1.86489">
        <ele>209.7</ele>
        <time>2021-08-16T14:23:53Z</time>
      </trkpt>
      <trkpt lat="44.89146" lon="1.86494">
        <ele>210.67</ele>
        <time>2021-08-16T14:24:02Z</time>
      </trkpt>
      <trkpt lat="44.89147" lon="1.86495">
        <ele>211.15</ele>
        <time>2021-08-16T14:24:08Z</time>
      </trkpt>
      <trkpt lat="44.89148" lon="1.86495">
        <ele>211.15</ele>
        <time>2021-08-16T14:24:13Z</time>
      </trkpt>
      <trkpt lat="44.89148" lon="1.86495">
        <ele>211.15</ele>
        <time>2021-08-16T14:24:16Z</time>
      </trkpt>
      <trkpt lat="44.89145" lon="1.86497">
        <ele>211.15</ele>
        <time>2021-08-16T14:24:19Z</time>
      </trkpt>
      <trkpt lat="44.89143" lon="1.86497">
        <ele>211.15</ele>
        <time>2021-08-16T14:24:20Z</time>
      </trkpt>
      <trkpt lat="44.89142" lon="1.86497">
        <ele>211.15</ele>
        <time>2021-08-16T14:24:21Z</time>
      </trkpt>
      <trkpt lat="44.89122" lon="1.86502">
        <ele>212.11</ele>
        <time>2021-08-16T14:24:31Z</time>
      </trkpt>
      <trkpt lat="44.89103" lon="1.86505">
        <ele>213.55</ele>
        <time>2021-08-16T14:24:40Z</time>
      </trkpt>
      <trkpt lat="44.89083" lon="1.86507">
        <ele>214.51</ele>
        <time>2021-08-16T14:24:49Z</time>
      </trkpt>
      <trkpt lat="44.89069" lon="1.86506">
        <ele>214.51</ele>
        <time>2021-08-16T14:24:55Z</time>
      </trkpt>
      <trkpt lat="44.89058" lon="1.86506">
        <ele>214.51</ele>
        <time>2021-08-16T14:24:59Z</time>
      </trkpt>
      <trkpt lat="44.89056" lon="1.86506">
        <ele>214.51</ele>
        <time>2021-08-16T14:25:00Z</time>
      </trkpt>
      <trkpt lat="44.89054" lon="1.86506">
        <ele>214.51</ele>
        <time>2021-08-16T14:25:01Z</time>
      </trkpt>
      <trkpt lat="44.89052" lon="1.86505">
        <ele>214.51</ele>
        <time>2021-08-16T14:25:02Z</time>
      </trkpt>
      <trkpt lat="44.89049" lon="1.86505">
        <ele>214.51</ele>
        <time>2021-08-16T14:25:03Z</time>
      </trkpt>
      <trkpt lat="44.89027" lon="1.86507">
        <ele>214.99</ele>
        <time>2021-08-16T14:25:12Z</time>
      </trkpt>
      <trkpt lat="44.89013" lon="1.8651">
        <ele>214.99</ele>
        <time>2021-08-16T14:25:18Z</time>
      </trkpt>
      <trkpt lat="44.88991" lon="1.86512">
        <ele>214.99</ele>
        <time>2021-08-16T14:25:26Z</time>
      </trkpt>
      <trkpt lat="44.8898" lon="1.86516">
        <ele>215.47</ele>
        <time>2021-08-16T14:25:32Z</time>
      </trkpt>
      <trkpt lat="44.8898" lon="1.86518">
        <ele>215.47</ele>
        <time>2021-08-16T14:25:33Z</time>
      </trkpt>
      <trkpt lat="44.88979" lon="1.8652">
        <ele>215.47</ele>
        <time>2021-08-16T14:25:34Z</time>
      </trkpt>
      <trkpt lat="44.88979" lon="1.86523">
        <ele>215.95</ele>
        <time>2021-08-16T14:25:35Z</time>
      </trkpt>
      <trkpt lat="44.88979" lon="1.8654">
        <ele>216.91</ele>
        <time>2021-08-16T14:25:40Z</time>
      </trkpt>
      <trkpt lat="44.88977" lon="1.86543">
        <ele>216.91</ele>
        <time>2021-08-16T14:25:41Z</time>
      </trkpt>
      <trkpt lat="44.88975" lon="1.86543">
        <ele>216.91</ele>
        <time>2021-08-16T14:25:42Z</time>
      </trkpt>
      <trkpt lat="44.88972" lon="1.86542">
        <ele>216.91</ele>
        <time>2021-08-16T14:25:43Z</time>
      </trkpt>
      <trkpt lat="44.88969" lon="1.8654">
        <ele>216.91</ele>
        <time>2021-08-16T14:25:44Z</time>
      </trkpt>
      <trkpt lat="44.88965" lon="1.86537">
        <ele>216.91</ele>
        <time>2021-08-16T14:25:45Z</time>
      </trkpt>
      <trkpt lat="44.88951" lon="1.86527">
        <ele>214.99</ele>
        <time>2021-08-16T14:25:48Z</time>
      </trkpt>
      <trkpt lat="44.88946" lon="1.86524">
        <ele>214.51</ele>
        <time>2021-08-16T14:25:49Z</time>
      </trkpt>
      <trkpt lat="44.88935" lon="1.86518">
        <ele>213.55</ele>
        <time>2021-08-16T14:25:51Z</time>
      </trkpt>
      <trkpt lat="44.88921" lon="1.86508">
        <ele>211.63</ele>
        <time>2021-08-16T14:25:54Z</time>
      </trkpt>
      <trkpt lat="44.88918" lon="1.86504">
        <ele>211.63</ele>
        <time>2021-08-16T14:25:55Z</time>
      </trkpt>
      <trkpt lat="44.88915" lon="1.86499">
        <ele>211.63</ele>
        <time>2021-08-16T14:25:56Z</time>
      </trkpt>
      <trkpt lat="44.88914" lon="1.86496">
        <ele>211.63</ele>
        <time>2021-08-16T14:25:57Z</time>
      </trkpt>
      <trkpt lat="44.88914" lon="1.86494">
        <ele>211.63</ele>
        <time>2021-08-16T14:25:58Z</time>
      </trkpt>
      <trkpt lat="44.88914" lon="1.86492">
        <ele>211.63</ele>
        <time>2021-08-16T14:25:59Z</time>
      </trkpt>
      <trkpt lat="44.88915" lon="1.8649">
        <ele>211.63</ele>
        <time>2021-08-16T14:26:00Z</time>
      </trkpt>
      <trkpt lat="44.88915" lon="1.86488">
        <ele>211.63</ele>
        <time>2021-08-16T14:26:01Z</time>
      </trkpt>
      <trkpt lat="44.88911" lon="1.86468">
        <ele>211.63</ele>
        <time>2021-08-16T14:26:06Z</time>
      </trkpt>
      <trkpt lat="44.88905" lon="1.8646">
        <ele>211.63</ele>
        <time>2021-08-16T14:26:08Z</time>
      </trkpt>
      <trkpt lat="44.88901" lon="1.86458">
        <ele>211.63</ele>
        <time>2021-08-16T14:26:09Z</time>
      </trkpt>
      <trkpt lat="44.88897" lon="1.86458">
        <ele>211.63</ele>
        <time>2021-08-16T14:26:10Z</time>
      </trkpt>
      <trkpt lat="44.88893" lon="1.86461">
        <ele>211.63</ele>
        <time>2021-08-16T14:26:11Z</time>
      </trkpt>
      <trkpt lat="44.88889" lon="1.86464">
        <ele>211.15</ele>
        <time>2021-08-16T14:26:12Z</time>
      </trkpt>
      <trkpt lat="44.88885" lon="1.86468">
        <ele>211.15</ele>
        <time>2021-08-16T14:26:13Z</time>
      </trkpt>
      <trkpt lat="44.88881" lon="1.86471">
        <ele>211.15</ele>
        <time>2021-08-16T14:26:14Z</time>
      </trkpt>
      <trkpt lat="44.88877" lon="1.86473">
        <ele>210.67</ele>
        <time>2021-08-16T14:26:15Z</time>
      </trkpt>
      <trkpt lat="44.88873" lon="1.86474">
        <ele>210.67</ele>
        <time>2021-08-16T14:26:16Z</time>
      </trkpt>
      <trkpt lat="44.88869" lon="1.86475">
        <ele>210.67</ele>
        <time>2021-08-16T14:26:17Z</time>
      </trkpt>
      <trkpt lat="44.88867" lon="1.86475">
        <ele>210.19</ele>
        <time>2021-08-16T14:26:18Z</time>
      </trkpt>
      <trkpt lat="44.88865" lon="1.86474">
        <ele>210.19</ele>
        <time>2021-08-16T14:26:19Z</time>
      </trkpt>
      <trkpt lat="44.88865" lon="1.86475">
        <ele>210.19</ele>
        <time>2021-08-16T14:26:25Z</time>
      </trkpt>
      <trkpt lat="44.88864" lon="1.86476">
        <ele>210.19</ele>
        <time>2021-08-16T14:26:32Z</time>
      </trkpt>
      <trkpt lat="44.88863" lon="1.86479">
        <ele>210.19</ele>
        <time>2021-08-16T14:26:33Z</time>
      </trkpt>
      <trkpt lat="44.88863" lon="1.86482">
        <ele>210.19</ele>
        <time>2021-08-16T14:26:34Z</time>
      </trkpt>
      <trkpt lat="44.88865" lon="1.86485">
        <ele>210.19</ele>
        <time>2021-08-16T14:26:35Z</time>
      </trkpt>
      <trkpt lat="44.88867" lon="1.86487">
        <ele>210.19</ele>
        <time>2021-08-16T14:26:36Z</time>
      </trkpt>
      <trkpt lat="44.8887" lon="1.86487">
        <ele>210.19</ele>
        <time>2021-08-16T14:26:37Z</time>
      </trkpt>
      <trkpt lat="44.88873" lon="1.86487">
        <ele>210.19</ele>
        <time>2021-08-16T14:26:38Z</time>
      </trkpt>
      <trkpt lat="44.88875" lon="1.86486">
        <ele>210.19</ele>
        <time>2021-08-16T14:26:39Z</time>
      </trkpt>
      <trkpt lat="44.88879" lon="1.86486">
        <ele>210.19</ele>
        <time>2021-08-16T14:26:40Z</time>
      </trkpt>
      <trkpt lat="44.88881" lon="1.86486">
        <ele>210.19</ele>
        <time>2021-08-16T14:26:41Z</time>
      </trkpt>
      <trkpt lat="44.88905" lon="1.86488">
        <ele>210.19</ele>
        <time>2021-08-16T14:26:48Z</time>
      </trkpt>
      <trkpt lat="44.88918" lon="1.86471">
        <ele>211.15</ele>
        <time>2021-08-16T14:26:53Z</time>
      </trkpt>
      <trkpt lat="44.88943" lon="1.86437">
        <ele>211.15</ele>
        <time>2021-08-16T14:27:02Z</time>
      </trkpt>
      <trkpt lat="44.88969" lon="1.864">
        <ele>210.19</ele>
        <time>2021-08-16T14:27:11Z</time>
      </trkpt>
      <trkpt lat="44.88972" lon="1.86396">
        <ele>210.19</ele>
        <time>2021-08-16T14:27:12Z</time>
      </trkpt>
      <trkpt lat="44.89007" lon="1.86358">
        <ele>207.78</ele>
        <time>2021-08-16T14:27:21Z</time>
      </trkpt>
      <trkpt lat="44.89038" lon="1.86334">
        <ele>205.86</ele>
        <time>2021-08-16T14:27:28Z</time>
      </trkpt>
      <trkpt lat="44.89054" lon="1.86328">
        <ele>204.9</ele>
        <time>2021-08-16T14:27:34Z</time>
      </trkpt>
      <trkpt lat="44.89058" lon="1.86327">
        <ele>204.9</ele>
        <time>2021-08-16T14:27:36Z</time>
      </trkpt>
      <trkpt lat="44.8906" lon="1.86327">
        <ele>204.9</ele>
        <time>2021-08-16T14:27:37Z</time>
      </trkpt>
      <trkpt lat="44.89061" lon="1.86328">
        <ele>204.9</ele>
        <time>2021-08-16T14:27:38Z</time>
      </trkpt>
      <trkpt lat="44.89062" lon="1.86328">
        <ele>204.9</ele>
        <time>2021-08-16T14:27:39Z</time>
      </trkpt>
      <trkpt lat="44.89063" lon="1.86327">
        <ele>204.9</ele>
        <time>2021-08-16T14:27:40Z</time>
      </trkpt>
      <trkpt lat="44.89063" lon="1.86319">
        <ele>203.94</ele>
        <time>2021-08-16T14:27:45Z</time>
      </trkpt>
      <trkpt lat="44.89063" lon="1.86319">
        <ele>203.94</ele>
        <time>2021-08-16T14:28:01Z</time>
      </trkpt>
      <trkpt lat="44.89062" lon="1.86317">
        <ele>203.94</ele>
        <time>2021-08-16T14:28:11Z</time>
      </trkpt>
      <trkpt lat="44.89059" lon="1.86315">
        <ele>203.94</ele>
        <time>2021-08-16T14:28:13Z</time>
      </trkpt>
      <trkpt lat="44.89057" lon="1.86315">
        <ele>203.94</ele>
        <time>2021-08-16T14:28:14Z</time>
      </trkpt>
      <trkpt lat="44.89054" lon="1.86316">
        <ele>203.94</ele>
        <time>2021-08-16T14:28:15Z</time>
      </trkpt>
      <trkpt lat="44.89052" lon="1.86317">
        <ele>203.94</ele>
        <time>2021-08-16T14:28:16Z</time>
      </trkpt>
      <trkpt lat="44.89034" lon="1.8633">
        <ele>205.86</ele>
        <time>2021-08-16T14:28:24Z</time>
      </trkpt>
      <trkpt lat="44.89025" lon="1.86335">
        <ele>206.34</ele>
        <time>2021-08-16T14:28:28Z</time>
      </trkpt>
      <trkpt lat="44.8902" lon="1.86326">
        <ele>206.82</ele>
        <time>2021-08-16T14:28:32Z</time>
      </trkpt>
      <trkpt lat="44.89018" lon="1.86312">
        <ele>205.86</ele>
        <time>2021-08-16T14:28:35Z</time>
      </trkpt>
      <trkpt lat="44.89009" lon="1.86272">
        <ele>205.38</ele>
        <time>2021-08-16T14:28:44Z</time>
      </trkpt>
      <trkpt lat="44.88999" lon="1.86261">
        <ele>205.38</ele>
        <time>2021-08-16T14:28:50Z</time>
      </trkpt>
      <trkpt lat="44.88995" lon="1.86256">
        <ele>206.34</ele>
        <time>2021-08-16T14:28:57Z</time>
      </trkpt>
      <trkpt lat="44.8899" lon="1.86258">
        <ele>206.82</ele>
        <time>2021-08-16T14:29:03Z</time>
      </trkpt>
      <trkpt lat="44.88989" lon="1.86257">
        <ele>206.82</ele>
        <time>2021-08-16T14:29:09Z</time>
      </trkpt>
      <trkpt lat="44.8899" lon="1.86272">
        <ele>207.3</ele>
        <time>2021-08-16T14:29:16Z</time>
      </trkpt>
      <trkpt lat="44.88989" lon="1.86275">
        <ele>207.3</ele>
        <time>2021-08-16T14:29:17Z</time>
      </trkpt>
      <trkpt lat="44.88988" lon="1.86279">
        <ele>207.3</ele>
        <time>2021-08-16T14:29:18Z</time>
      </trkpt>
      <trkpt lat="44.8898" lon="1.86312">
        <ele>208.26</ele>
        <time>2021-08-16T14:29:28Z</time>
      </trkpt>
      <trkpt lat="44.88973" lon="1.86344">
        <ele>209.22</ele>
        <time>2021-08-16T14:29:37Z</time>
      </trkpt>
      <trkpt lat="44.88964" lon="1.86368">
        <ele>210.19</ele>
        <time>2021-08-16T14:29:45Z</time>
      </trkpt>
      <trkpt lat="44.88958" lon="1.86372">
        <ele>210.67</ele>
        <time>2021-08-16T14:29:48Z</time>
      </trkpt>
      <trkpt lat="44.88955" lon="1.86372">
        <ele>210.67</ele>
        <time>2021-08-16T14:29:49Z</time>
      </trkpt>
      <trkpt lat="44.88953" lon="1.8637">
        <ele>210.67</ele>
        <time>2021-08-16T14:29:50Z</time>
      </trkpt>
      <trkpt lat="44.88952" lon="1.86367">
        <ele>210.67</ele>
        <time>2021-08-16T14:29:51Z</time>
      </trkpt>
      <trkpt lat="44.88951" lon="1.86364">
        <ele>210.67</ele>
        <time>2021-08-16T14:29:52Z</time>
      </trkpt>
      <trkpt lat="44.88936" lon="1.86336">
        <ele>211.15</ele>
        <time>2021-08-16T14:30:01Z</time>
      </trkpt>
      <trkpt lat="44.8892" lon="1.86304">
        <ele>211.15</ele>
        <time>2021-08-16T14:30:10Z</time>
      </trkpt>
      <trkpt lat="44.88917" lon="1.86279">
        <ele>212.11</ele>
        <time>2021-08-16T14:30:17Z</time>
      </trkpt>
      <trkpt lat="44.88926" lon="1.86249">
        <ele>213.55</ele>
        <time>2021-08-16T14:30:27Z</time>
      </trkpt>
      <trkpt lat="44.88934" lon="1.8622">
        <ele>214.51</ele>
        <time>2021-08-16T14:30:36Z</time>
      </trkpt>
      <trkpt lat="44.88939" lon="1.86202">
        <ele>215.47</ele>
        <time>2021-08-16T14:30:43Z</time>
      </trkpt>
      <trkpt lat="44.88944" lon="1.86182">
        <ele>216.91</ele>
        <time>2021-08-16T14:30:52Z</time>
      </trkpt>
      <trkpt lat="44.88954" lon="1.86157">
        <ele>218.84</ele>
        <time>2021-08-16T14:31:04Z</time>
      </trkpt>
      <trkpt lat="44.88957" lon="1.8614">
        <ele>219.8</ele>
        <time>2021-08-16T14:31:12Z</time>
      </trkpt>
      <trkpt lat="44.88956" lon="1.86134">
        <ele>220.28</ele>
        <time>2021-08-16T14:31:15Z</time>
      </trkpt>
      <trkpt lat="44.88956" lon="1.86132">
        <ele>220.28</ele>
        <time>2021-08-16T14:31:16Z</time>
      </trkpt>
      <trkpt lat="44.88955" lon="1.8613">
        <ele>220.28</ele>
        <time>2021-08-16T14:31:17Z</time>
      </trkpt>
      <trkpt lat="44.88955" lon="1.86128">
        <ele>220.76</ele>
        <time>2021-08-16T14:31:18Z</time>
      </trkpt>
      <trkpt lat="44.88954" lon="1.86127">
        <ele>220.76</ele>
        <time>2021-08-16T14:31:19Z</time>
      </trkpt>
      <trkpt lat="44.88952" lon="1.86126">
        <ele>221.24</ele>
        <time>2021-08-16T14:31:20Z</time>
      </trkpt>
      <trkpt lat="44.88951" lon="1.86125">
        <ele>220.76</ele>
        <time>2021-08-16T14:31:21Z</time>
      </trkpt>
      <trkpt lat="44.88949" lon="1.86125">
        <ele>221.24</ele>
        <time>2021-08-16T14:31:22Z</time>
      </trkpt>
      <trkpt lat="44.88942" lon="1.86124">
        <ele>222.2</ele>
        <time>2021-08-16T14:31:27Z</time>
      </trkpt>
      <trkpt lat="44.8894" lon="1.86125">
        <ele>222.2</ele>
        <time>2021-08-16T14:31:28Z</time>
      </trkpt>
      <trkpt lat="44.88939" lon="1.86126">
        <ele>222.2</ele>
        <time>2021-08-16T14:31:29Z</time>
      </trkpt>
      <trkpt lat="44.88937" lon="1.86127">
        <ele>222.2</ele>
        <time>2021-08-16T14:31:30Z</time>
      </trkpt>
      <trkpt lat="44.88936" lon="1.86127">
        <ele>222.2</ele>
        <time>2021-08-16T14:31:31Z</time>
      </trkpt>
      <trkpt lat="44.88924" lon="1.86138">
        <ele>223.64</ele>
        <time>2021-08-16T14:31:39Z</time>
      </trkpt>
      <trkpt lat="44.88921" lon="1.86141">
        <ele>224.12</ele>
        <time>2021-08-16T14:31:41Z</time>
      </trkpt>
      <trkpt lat="44.88919" lon="1.86143">
        <ele>224.12</ele>
        <time>2021-08-16T14:31:42Z</time>
      </trkpt>
      <trkpt lat="44.88918" lon="1.86144">
        <ele>224.12</ele>
        <time>2021-08-16T14:31:43Z</time>
      </trkpt>
      <trkpt lat="44.88916" lon="1.86146">
        <ele>224.61</ele>
        <time>2021-08-16T14:31:44Z</time>
      </trkpt>
      <trkpt lat="44.88915" lon="1.86147">
        <ele>224.61</ele>
        <time>2021-08-16T14:31:45Z</time>
      </trkpt>
      <trkpt lat="44.88913" lon="1.86148">
        <ele>224.61</ele>
        <time>2021-08-16T14:31:46Z</time>
      </trkpt>
      <trkpt lat="44.88912" lon="1.8615">
        <ele>224.61</ele>
        <time>2021-08-16T14:31:47Z</time>
      </trkpt>
      <trkpt lat="44.88896" lon="1.86164">
        <ele>226.05</ele>
        <time>2021-08-16T14:31:57Z</time>
      </trkpt>
      <trkpt lat="44.88879" lon="1.86175">
        <ele>227.49</ele>
        <time>2021-08-16T14:32:06Z</time>
      </trkpt>
      <trkpt lat="44.88863" lon="1.86182">
        <ele>228.45</ele>
        <time>2021-08-16T14:32:14Z</time>
      </trkpt>
      <trkpt lat="44.88844" lon="1.86185">
        <ele>229.41</ele>
        <time>2021-08-16T14:32:23Z</time>
      </trkpt>
      <trkpt lat="44.88825" lon="1.86178">
        <ele>230.37</ele>
        <time>2021-08-16T14:32:32Z</time>
      </trkpt>
      <trkpt lat="44.88806" lon="1.86153">
        <ele>230.85</ele>
        <time>2021-08-16T14:32:43Z</time>
      </trkpt>
      <trkpt lat="44.88793" lon="1.8613">
        <ele>231.81</ele>
        <time>2021-08-16T14:32:52Z</time>
      </trkpt>
      <trkpt lat="44.88771" lon="1.86114">
        <ele>232.3</ele>
        <time>2021-08-16T14:33:01Z</time>
      </trkpt>
      <trkpt lat="44.88745" lon="1.86116">
        <ele>232.3</ele>
        <time>2021-08-16T14:33:08Z</time>
      </trkpt>
      <trkpt lat="44.88723" lon="1.86117">
        <ele>232.3</ele>
        <time>2021-08-16T14:33:15Z</time>
      </trkpt>
      <trkpt lat="44.88693" lon="1.86106">
        <ele>233.74</ele>
        <time>2021-08-16T14:33:23Z</time>
      </trkpt>
      <trkpt lat="44.88658" lon="1.86093">
        <ele>233.74</ele>
        <time>2021-08-16T14:33:32Z</time>
      </trkpt>
      <trkpt lat="44.88637" lon="1.86084">
        <ele>235.66</ele>
        <time>2021-08-16T14:33:39Z</time>
      </trkpt>
      <trkpt lat="44.88635" lon="1.86083">
        <ele>235.66</ele>
        <time>2021-08-16T14:33:40Z</time>
      </trkpt>
      <trkpt lat="44.88633" lon="1.86083">
        <ele>235.66</ele>
        <time>2021-08-16T14:33:41Z</time>
      </trkpt>
      <trkpt lat="44.88632" lon="1.86082">
        <ele>235.66</ele>
        <time>2021-08-16T14:33:42Z</time>
      </trkpt>
      <trkpt lat="44.88631" lon="1.86082">
        <ele>235.66</ele>
        <time>2021-08-16T14:33:43Z</time>
      </trkpt>
      <trkpt lat="44.88629" lon="1.86081">
        <ele>235.66</ele>
        <time>2021-08-16T14:33:44Z</time>
      </trkpt>
      <trkpt lat="44.88616" lon="1.86076">
        <ele>236.62</ele>
        <time>2021-08-16T14:33:51Z</time>
      </trkpt>
      <trkpt lat="44.88598" lon="1.86069">
        <ele>238.54</ele>
        <time>2021-08-16T14:34:00Z</time>
      </trkpt>
      <trkpt lat="44.88579" lon="1.86066">
        <ele>239.02</ele>
        <time>2021-08-16T14:34:08Z</time>
      </trkpt>
      <trkpt lat="44.88559" lon="1.86061">
        <ele>239.99</ele>
        <time>2021-08-16T14:34:16Z</time>
      </trkpt>
      <trkpt lat="44.88532" lon="1.86059">
        <ele>240.95</ele>
        <time>2021-08-16T14:34:26Z</time>
      </trkpt>
      <trkpt lat="44.88503" lon="1.86055">
        <ele>242.87</ele>
        <time>2021-08-16T14:34:38Z</time>
      </trkpt>
      <trkpt lat="44.8849" lon="1.86049">
        <ele>244.31</ele>
        <time>2021-08-16T14:34:46Z</time>
      </trkpt>
      <trkpt lat="44.88472" lon="1.86048">
        <ele>246.72</ele>
        <time>2021-08-16T14:34:57Z</time>
      </trkpt>
      <trkpt lat="44.88459" lon="1.86048">
        <ele>248.16</ele>
        <time>2021-08-16T14:35:05Z</time>
      </trkpt>
      <trkpt lat="44.88445" lon="1.86041">
        <ele>250.08</ele>
        <time>2021-08-16T14:35:14Z</time>
      </trkpt>
      <trkpt lat="44.8843" lon="1.86029">
        <ele>251.04</ele>
        <time>2021-08-16T14:35:24Z</time>
      </trkpt>
      <trkpt lat="44.88412" lon="1.86016">
        <ele>252.96</ele>
        <time>2021-08-16T14:35:35Z</time>
      </trkpt>
      <trkpt lat="44.88396" lon="1.86004">
        <ele>254.41</ele>
        <time>2021-08-16T14:35:46Z</time>
      </trkpt>
      <trkpt lat="44.88388" lon="1.85985">
        <ele>256.33</ele>
        <time>2021-08-16T14:35:55Z</time>
      </trkpt>
      <trkpt lat="44.88383" lon="1.85961">
        <ele>257.77</ele>
        <time>2021-08-16T14:36:05Z</time>
      </trkpt>
      <trkpt lat="44.88377" lon="1.85942">
        <ele>259.21</ele>
        <time>2021-08-16T14:36:14Z</time>
      </trkpt>
      <trkpt lat="44.8837" lon="1.85921">
        <ele>260.17</ele>
        <time>2021-08-16T14:36:23Z</time>
      </trkpt>
      <trkpt lat="44.88358" lon="1.85901">
        <ele>261.14</ele>
        <time>2021-08-16T14:36:32Z</time>
      </trkpt>
      <trkpt lat="44.88342" lon="1.85887">
        <ele>262.58</ele>
        <time>2021-08-16T14:36:40Z</time>
      </trkpt>
      <trkpt lat="44.88321" lon="1.85877">
        <ele>263.06</ele>
        <time>2021-08-16T14:36:49Z</time>
      </trkpt>
      <trkpt lat="44.88294" lon="1.85874">
        <ele>263.06</ele>
        <time>2021-08-16T14:36:58Z</time>
      </trkpt>
      <trkpt lat="44.88266" lon="1.85876">
        <ele>263.06</ele>
        <time>2021-08-16T14:37:07Z</time>
      </trkpt>
      <trkpt lat="44.88237" lon="1.85874">
        <ele>263.06</ele>
        <time>2021-08-16T14:37:15Z</time>
      </trkpt>
      <trkpt lat="44.88211" lon="1.85877">
        <ele>263.06</ele>
        <time>2021-08-16T14:37:22Z</time>
      </trkpt>
      <trkpt lat="44.88174" lon="1.85882">
        <ele>264.5</ele>
        <time>2021-08-16T14:37:32Z</time>
      </trkpt>
      <trkpt lat="44.88138" lon="1.85886">
        <ele>265.46</ele>
        <time>2021-08-16T14:37:42Z</time>
      </trkpt>
      <trkpt lat="44.88114" lon="1.85881">
        <ele>266.9</ele>
        <time>2021-08-16T14:37:49Z</time>
      </trkpt>
      <trkpt lat="44.88105" lon="1.85858">
        <ele>268.35</ele>
        <time>2021-08-16T14:37:55Z</time>
      </trkpt>
      <trkpt lat="44.881" lon="1.8584">
        <ele>267.86</ele>
        <time>2021-08-16T14:38:00Z</time>
      </trkpt>
      <trkpt lat="44.88102" lon="1.85837">
        <ele>267.86</ele>
        <time>2021-08-16T14:38:01Z</time>
      </trkpt>
      <trkpt lat="44.88104" lon="1.85834">
        <ele>267.86</ele>
        <time>2021-08-16T14:38:02Z</time>
      </trkpt>
      <trkpt lat="44.88106" lon="1.85833">
        <ele>268.35</ele>
        <time>2021-08-16T14:38:03Z</time>
      </trkpt>
      <trkpt lat="44.88109" lon="1.85832">
        <ele>268.35</ele>
        <time>2021-08-16T14:38:04Z</time>
      </trkpt>
      <trkpt lat="44.88113" lon="1.85831">
        <ele>268.35</ele>
        <time>2021-08-16T14:38:05Z</time>
      </trkpt>
      <trkpt lat="44.88117" lon="1.8583">
        <ele>268.35</ele>
        <time>2021-08-16T14:38:06Z</time>
      </trkpt>
      <trkpt lat="44.88149" lon="1.8582">
        <ele>268.35</ele>
        <time>2021-08-16T14:38:14Z</time>
      </trkpt>
      <trkpt lat="44.88183" lon="1.85802">
        <ele>268.35</ele>
        <time>2021-08-16T14:38:22Z</time>
      </trkpt>
      <trkpt lat="44.88217" lon="1.8578">
        <ele>268.83</ele>
        <time>2021-08-16T14:38:31Z</time>
      </trkpt>
      <trkpt lat="44.88238" lon="1.85766">
        <ele>270.75</ele>
        <time>2021-08-16T14:38:38Z</time>
      </trkpt>
      <trkpt lat="44.8825" lon="1.85755">
        <ele>271.23</ele>
        <time>2021-08-16T14:38:44Z</time>
      </trkpt>
      <trkpt lat="44.88269" lon="1.85739">
        <ele>272.67</ele>
        <time>2021-08-16T14:38:53Z</time>
      </trkpt>
      <trkpt lat="44.8829" lon="1.85721">
        <ele>274.11</ele>
        <time>2021-08-16T14:39:03Z</time>
      </trkpt>
      <trkpt lat="44.88304" lon="1.85712">
        <ele>275.56</ele>
        <time>2021-08-16T14:39:09Z</time>
      </trkpt>
      <trkpt lat="44.8832" lon="1.857">
        <ele>276.52</ele>
        <time>2021-08-16T14:39:17Z</time>
      </trkpt>
      <trkpt lat="44.88339" lon="1.85687">
        <ele>277.96</ele>
        <time>2021-08-16T14:39:27Z</time>
      </trkpt>
      <trkpt lat="44.88354" lon="1.85675">
        <ele>279.4</ele>
        <time>2021-08-16T14:39:36Z</time>
      </trkpt>
      <trkpt lat="44.8837" lon="1.85664">
        <ele>280.84</ele>
        <time>2021-08-16T14:39:45Z</time>
      </trkpt>
      <trkpt lat="44.88383" lon="1.85656">
        <ele>281.8</ele>
        <time>2021-08-16T14:39:52Z</time>
      </trkpt>
      <trkpt lat="44.88404" lon="1.85642">
        <ele>283.25</ele>
        <time>2021-08-16T14:40:02Z</time>
      </trkpt>
      <trkpt lat="44.88431" lon="1.85627">
        <ele>283.73</ele>
        <time>2021-08-16T14:40:12Z</time>
      </trkpt>
      <trkpt lat="44.88456" lon="1.85612">
        <ele>284.21</ele>
        <time>2021-08-16T14:40:20Z</time>
      </trkpt>
      <trkpt lat="44.88493" lon="1.85584">
        <ele>281.32</ele>
        <time>2021-08-16T14:40:30Z</time>
      </trkpt>
      <trkpt lat="44.88517" lon="1.85557">
        <ele>279.4</ele>
        <time>2021-08-16T14:40:35Z</time>
      </trkpt>
      <trkpt lat="44.88521" lon="1.85549">
        <ele>278.92</ele>
        <time>2021-08-16T14:40:36Z</time>
      </trkpt>
      <trkpt lat="44.88547" lon="1.85497">
        <ele>276.04</ele>
        <time>2021-08-16T14:40:42Z</time>
      </trkpt>
      <trkpt lat="44.88549" lon="1.85486">
        <ele>275.56</ele>
        <time>2021-08-16T14:40:43Z</time>
      </trkpt>
      <trkpt lat="44.8855" lon="1.85474">
        <ele>275.56</ele>
        <time>2021-08-16T14:40:44Z</time>
      </trkpt>
      <trkpt lat="44.88549" lon="1.85463">
        <ele>275.07</ele>
        <time>2021-08-16T14:40:45Z</time>
      </trkpt>
      <trkpt lat="44.88548" lon="1.85451">
        <ele>274.59</ele>
        <time>2021-08-16T14:40:46Z</time>
      </trkpt>
      <trkpt lat="44.88546" lon="1.85417">
        <ele>273.63</ele>
        <time>2021-08-16T14:40:49Z</time>
      </trkpt>
      <trkpt lat="44.88546" lon="1.85406">
        <ele>273.63</ele>
        <time>2021-08-16T14:40:50Z</time>
      </trkpt>
      <trkpt lat="44.88546" lon="1.85395">
        <ele>273.63</ele>
        <time>2021-08-16T14:40:51Z</time>
      </trkpt>
      <trkpt lat="44.88559" lon="1.85333">
        <ele>272.19</ele>
        <time>2021-08-16T14:40:57Z</time>
      </trkpt>
      <trkpt lat="44.88581" lon="1.85267">
        <ele>271.23</ele>
        <time>2021-08-16T14:41:04Z</time>
      </trkpt>
      <trkpt lat="44.88586" lon="1.85258">
        <ele>271.23</ele>
        <time>2021-08-16T14:41:05Z</time>
      </trkpt>
      <trkpt lat="44.88622" lon="1.85203">
        <ele>269.79</ele>
        <time>2021-08-16T14:41:12Z</time>
      </trkpt>
      <trkpt lat="44.88654" lon="1.85162">
        <ele>269.79</ele>
        <time>2021-08-16T14:41:18Z</time>
      </trkpt>
      <trkpt lat="44.88659" lon="1.85157">
        <ele>269.79</ele>
        <time>2021-08-16T14:41:19Z</time>
      </trkpt>
      <trkpt lat="44.88702" lon="1.8513">
        <ele>271.23</ele>
        <time>2021-08-16T14:41:27Z</time>
      </trkpt>
      <trkpt lat="44.88729" lon="1.85113">
        <ele>271.71</ele>
        <time>2021-08-16T14:41:33Z</time>
      </trkpt>
      <trkpt lat="44.88733" lon="1.85111">
        <ele>271.71</ele>
        <time>2021-08-16T14:41:34Z</time>
      </trkpt>
      <trkpt lat="44.88774" lon="1.85091">
        <ele>272.19</ele>
        <time>2021-08-16T14:41:43Z</time>
      </trkpt>
      <trkpt lat="44.88815" lon="1.85072">
        <ele>272.19</ele>
        <time>2021-08-16T14:41:51Z</time>
      </trkpt>
      <trkpt lat="44.88881" lon="1.85048">
        <ele>270.27</ele>
        <time>2021-08-16T14:42:02Z</time>
      </trkpt>
      <trkpt lat="44.88946" lon="1.85024">
        <ele>269.31</ele>
        <time>2021-08-16T14:42:12Z</time>
      </trkpt>
      <trkpt lat="44.89007" lon="1.85005">
        <ele>267.86</ele>
        <time>2021-08-16T14:42:21Z</time>
      </trkpt>
      <trkpt lat="44.8907" lon="1.84989">
        <ele>267.38</ele>
        <time>2021-08-16T14:42:30Z</time>
      </trkpt>
      <trkpt lat="44.89109" lon="1.84985">
        <ele>267.38</ele>
        <time>2021-08-16T14:42:36Z</time>
      </trkpt>
      <trkpt lat="44.89148" lon="1.84982">
        <ele>267.38</ele>
        <time>2021-08-16T14:42:43Z</time>
      </trkpt>
      <trkpt lat="44.89183" lon="1.84971">
        <ele>266.42</ele>
        <time>2021-08-16T14:42:50Z</time>
      </trkpt>
      <trkpt lat="44.89189" lon="1.84968">
        <ele>266.42</ele>
        <time>2021-08-16T14:42:51Z</time>
      </trkpt>
      <trkpt lat="44.89194" lon="1.84964">
        <ele>265.94</ele>
        <time>2021-08-16T14:42:52Z</time>
      </trkpt>
      <trkpt lat="44.89232" lon="1.8493">
        <ele>265.46</ele>
        <time>2021-08-16T14:43:00Z</time>
      </trkpt>
      <trkpt lat="44.89272" lon="1.84892">
        <ele>264.98</ele>
        <time>2021-08-16T14:43:09Z</time>
      </trkpt>
      <trkpt lat="44.89302" lon="1.84855">
        <ele>264.02</ele>
        <time>2021-08-16T14:43:17Z</time>
      </trkpt>
      <trkpt lat="44.89332" lon="1.84815">
        <ele>263.06</ele>
        <time>2021-08-16T14:43:24Z</time>
      </trkpt>
      <trkpt lat="44.89357" lon="1.84791">
        <ele>262.58</ele>
        <time>2021-08-16T14:43:29Z</time>
      </trkpt>
      <trkpt lat="44.89401" lon="1.84766">
        <ele>262.58</ele>
        <time>2021-08-16T14:43:37Z</time>
      </trkpt>
      <trkpt lat="44.89449" lon="1.84732">
        <ele>262.58</ele>
        <time>2021-08-16T14:43:46Z</time>
      </trkpt>
      <trkpt lat="44.89494" lon="1.84699">
        <ele>262.58</ele>
        <time>2021-08-16T14:43:55Z</time>
      </trkpt>
      <trkpt lat="44.89533" lon="1.8467">
        <ele>262.1</ele>
        <time>2021-08-16T14:44:03Z</time>
      </trkpt>
      <trkpt lat="44.89586" lon="1.84643">
        <ele>261.62</ele>
        <time>2021-08-16T14:44:13Z</time>
      </trkpt>
      <trkpt lat="44.89591" lon="1.8464">
        <ele>261.62</ele>
        <time>2021-08-16T14:44:14Z</time>
      </trkpt>
      <trkpt lat="44.89596" lon="1.84635">
        <ele>261.62</ele>
        <time>2021-08-16T14:44:15Z</time>
      </trkpt>
      <trkpt lat="44.89599" lon="1.8463">
        <ele>261.62</ele>
        <time>2021-08-16T14:44:16Z</time>
      </trkpt>
      <trkpt lat="44.89626" lon="1.84579">
        <ele>261.14</ele>
        <time>2021-08-16T14:44:24Z</time>
      </trkpt>
      <trkpt lat="44.89651" lon="1.8453">
        <ele>259.21</ele>
        <time>2021-08-16T14:44:31Z</time>
      </trkpt>
      <trkpt lat="44.89685" lon="1.84478">
        <ele>257.29</ele>
        <time>2021-08-16T14:44:38Z</time>
      </trkpt>
      <trkpt lat="44.89713" lon="1.84443">
        <ele>256.33</ele>
        <time>2021-08-16T14:44:43Z</time>
      </trkpt>
      <trkpt lat="44.89738" lon="1.84403">
        <ele>255.37</ele>
        <time>2021-08-16T14:44:48Z</time>
      </trkpt>
      <trkpt lat="44.89754" lon="1.84348">
        <ele>253.93</ele>
        <time>2021-08-16T14:44:54Z</time>
      </trkpt>
      <trkpt lat="44.89756" lon="1.84338">
        <ele>253.93</ele>
        <time>2021-08-16T14:44:55Z</time>
      </trkpt>
      <trkpt lat="44.89759" lon="1.84329">
        <ele>253.93</ele>
        <time>2021-08-16T14:44:56Z</time>
      </trkpt>
      <trkpt lat="44.89762" lon="1.8432">
        <ele>253.44</ele>
        <time>2021-08-16T14:44:57Z</time>
      </trkpt>
      <trkpt lat="44.8979" lon="1.84269">
        <ele>253.93</ele>
        <time>2021-08-16T14:45:04Z</time>
      </trkpt>
      <trkpt lat="44.89827" lon="1.84223">
        <ele>253.44</ele>
        <time>2021-08-16T14:45:12Z</time>
      </trkpt>
      <trkpt lat="44.8986" lon="1.8418">
        <ele>251.52</ele>
        <time>2021-08-16T14:45:20Z</time>
      </trkpt>
      <trkpt lat="44.89894" lon="1.8413">
        <ele>250.56</ele>
        <time>2021-08-16T14:45:28Z</time>
      </trkpt>
      <trkpt lat="44.89916" lon="1.84097">
        <ele>250.08</ele>
        <time>2021-08-16T14:45:33Z</time>
      </trkpt>
      <trkpt lat="44.89919" lon="1.84089">
        <ele>250.08</ele>
        <time>2021-08-16T14:45:34Z</time>
      </trkpt>
      <trkpt lat="44.89922" lon="1.84081">
        <ele>249.6</ele>
        <time>2021-08-16T14:45:35Z</time>
      </trkpt>
      <trkpt lat="44.89928" lon="1.84057">
        <ele>249.6</ele>
        <time>2021-08-16T14:45:38Z</time>
      </trkpt>
      <trkpt lat="44.89931" lon="1.84">
        <ele>249.6</ele>
        <time>2021-08-16T14:45:45Z</time>
      </trkpt>
      <trkpt lat="44.89927" lon="1.83942">
        <ele>250.08</ele>
        <time>2021-08-16T14:45:53Z</time>
      </trkpt>
      <trkpt lat="44.89921" lon="1.83898">
        <ele>248.64</ele>
        <time>2021-08-16T14:45:59Z</time>
      </trkpt>
      <trkpt lat="44.89915" lon="1.83873">
        <ele>248.16</ele>
        <time>2021-08-16T14:46:02Z</time>
      </trkpt>
      <trkpt lat="44.89912" lon="1.83865">
        <ele>247.2</ele>
        <time>2021-08-16T14:46:03Z</time>
      </trkpt>
      <trkpt lat="44.89901" lon="1.8384">
        <ele>246.23</ele>
        <time>2021-08-16T14:46:06Z</time>
      </trkpt>
      <trkpt lat="44.89896" lon="1.83833">
        <ele>245.75</ele>
        <time>2021-08-16T14:46:07Z</time>
      </trkpt>
      <trkpt lat="44.89891" lon="1.83827">
        <ele>245.75</ele>
        <time>2021-08-16T14:46:08Z</time>
      </trkpt>
      <trkpt lat="44.89835" lon="1.83765">
        <ele>244.79</ele>
        <time>2021-08-16T14:46:18Z</time>
      </trkpt>
      <trkpt lat="44.89797" lon="1.8371">
        <ele>244.31</ele>
        <time>2021-08-16T14:46:26Z</time>
      </trkpt>
      <trkpt lat="44.89795" lon="1.83704">
        <ele>244.31</ele>
        <time>2021-08-16T14:46:27Z</time>
      </trkpt>
      <trkpt lat="44.89772" lon="1.83641">
        <ele>244.31</ele>
        <time>2021-08-16T14:46:35Z</time>
      </trkpt>
      <trkpt lat="44.8975" lon="1.83575">
        <ele>244.31</ele>
        <time>2021-08-16T14:46:44Z</time>
      </trkpt>
      <trkpt lat="44.89733" lon="1.83539">
        <ele>244.31</ele>
        <time>2021-08-16T14:46:50Z</time>
      </trkpt>
      <trkpt lat="44.8973" lon="1.83532">
        <ele>243.83</ele>
        <time>2021-08-16T14:46:51Z</time>
      </trkpt>
      <trkpt lat="44.89727" lon="1.83526">
        <ele>245.27</ele>
        <time>2021-08-16T14:46:52Z</time>
      </trkpt>
      <trkpt lat="44.89724" lon="1.83521">
        <ele>245.27</ele>
        <time>2021-08-16T14:46:53Z</time>
      </trkpt>
      <trkpt lat="44.89721" lon="1.83515">
        <ele>245.27</ele>
        <time>2021-08-16T14:46:54Z</time>
      </trkpt>
      <trkpt lat="44.89695" lon="1.83462">
        <ele>245.27</ele>
        <time>2021-08-16T14:47:03Z</time>
      </trkpt>
      <trkpt lat="44.89681" lon="1.83424">
        <ele>245.27</ele>
        <time>2021-08-16T14:47:09Z</time>
      </trkpt>
      <trkpt lat="44.89679" lon="1.83416">
        <ele>245.27</ele>
        <time>2021-08-16T14:47:10Z</time>
      </trkpt>
      <trkpt lat="44.89678" lon="1.83409">
        <ele>245.27</ele>
        <time>2021-08-16T14:47:11Z</time>
      </trkpt>
      <trkpt lat="44.89679" lon="1.83359">
        <ele>245.27</ele>
        <time>2021-08-16T14:47:18Z</time>
      </trkpt>
      <trkpt lat="44.89691" lon="1.83312">
        <ele>245.27</ele>
        <time>2021-08-16T14:47:25Z</time>
      </trkpt>
      <trkpt lat="44.89716" lon="1.83265">
        <ele>242.87</ele>
        <time>2021-08-16T14:47:32Z</time>
      </trkpt>
      <trkpt lat="44.89748" lon="1.83225">
        <ele>239.51</ele>
        <time>2021-08-16T14:47:38Z</time>
      </trkpt>
      <trkpt lat="44.8978" lon="1.83186">
        <ele>236.14</ele>
        <time>2021-08-16T14:47:43Z</time>
      </trkpt>
      <trkpt lat="44.89819" lon="1.83141">
        <ele>232.3</ele>
        <time>2021-08-16T14:47:48Z</time>
      </trkpt>
      <trkpt lat="44.89853" lon="1.83103">
        <ele>229.41</ele>
        <time>2021-08-16T14:47:52Z</time>
      </trkpt>
      <trkpt lat="44.89869" lon="1.83083">
        <ele>228.45</ele>
        <time>2021-08-16T14:47:54Z</time>
      </trkpt>
      <trkpt lat="44.89903" lon="1.83042">
        <ele>225.57</ele>
        <time>2021-08-16T14:47:58Z</time>
      </trkpt>
      <trkpt lat="44.89909" lon="1.8303">
        <ele>225.09</ele>
        <time>2021-08-16T14:47:59Z</time>
      </trkpt>
      <trkpt lat="44.89913" lon="1.83018">
        <ele>224.12</ele>
        <time>2021-08-16T14:48:00Z</time>
      </trkpt>
      <trkpt lat="44.89917" lon="1.83004">
        <ele>224.12</ele>
        <time>2021-08-16T14:48:01Z</time>
      </trkpt>
      <trkpt lat="44.89919" lon="1.82989">
        <ele>223.16</ele>
        <time>2021-08-16T14:48:02Z</time>
      </trkpt>
      <trkpt lat="44.89919" lon="1.82976">
        <ele>222.2</ele>
        <time>2021-08-16T14:48:03Z</time>
      </trkpt>
      <trkpt lat="44.89918" lon="1.82962">
        <ele>221.72</ele>
        <time>2021-08-16T14:48:04Z</time>
      </trkpt>
      <trkpt lat="44.89915" lon="1.82908">
        <ele>218.84</ele>
        <time>2021-08-16T14:48:08Z</time>
      </trkpt>
      <trkpt lat="44.8992" lon="1.82869">
        <ele>216.43</ele>
        <time>2021-08-16T14:48:11Z</time>
      </trkpt>
      <trkpt lat="44.89929" lon="1.82834">
        <ele>215.47</ele>
        <time>2021-08-16T14:48:14Z</time>
      </trkpt>
      <trkpt lat="44.89945" lon="1.82796">
        <ele>213.07</ele>
        <time>2021-08-16T14:48:18Z</time>
      </trkpt>
      <trkpt lat="44.89948" lon="1.82786">
        <ele>211.63</ele>
        <time>2021-08-16T14:48:19Z</time>
      </trkpt>
      <trkpt lat="44.8995" lon="1.82777">
        <ele>211.15</ele>
        <time>2021-08-16T14:48:20Z</time>
      </trkpt>
      <trkpt lat="44.89951" lon="1.82768">
        <ele>211.15</ele>
        <time>2021-08-16T14:48:21Z</time>
      </trkpt>
      <trkpt lat="44.89951" lon="1.82761">
        <ele>210.67</ele>
        <time>2021-08-16T14:48:22Z</time>
      </trkpt>
      <trkpt lat="44.89951" lon="1.82755">
        <ele>210.67</ele>
        <time>2021-08-16T14:48:23Z</time>
      </trkpt>
      <trkpt lat="44.89949" lon="1.82748">
        <ele>209.7</ele>
        <time>2021-08-16T14:48:24Z</time>
      </trkpt>
      <trkpt lat="44.89946" lon="1.82743">
        <ele>209.7</ele>
        <time>2021-08-16T14:48:25Z</time>
      </trkpt>
      <trkpt lat="44.89941" lon="1.82739">
        <ele>209.22</ele>
        <time>2021-08-16T14:48:26Z</time>
      </trkpt>
      <trkpt lat="44.89936" lon="1.82735">
        <ele>208.26</ele>
        <time>2021-08-16T14:48:27Z</time>
      </trkpt>
      <trkpt lat="44.89929" lon="1.82731">
        <ele>207.3</ele>
        <time>2021-08-16T14:48:28Z</time>
      </trkpt>
      <trkpt lat="44.89923" lon="1.82727">
        <ele>206.82</ele>
        <time>2021-08-16T14:48:29Z</time>
      </trkpt>
      <trkpt lat="44.89882" lon="1.82706">
        <ele>203.46</ele>
        <time>2021-08-16T14:48:34Z</time>
      </trkpt>
      <trkpt lat="44.89855" lon="1.82689">
        <ele>200.57</ele>
        <time>2021-08-16T14:48:37Z</time>
      </trkpt>
      <trkpt lat="44.89807" lon="1.82645">
        <ele>199.13</ele>
        <time>2021-08-16T14:48:43Z</time>
      </trkpt>
      <trkpt lat="44.89801" lon="1.82636">
        <ele>199.13</ele>
        <time>2021-08-16T14:48:44Z</time>
      </trkpt>
      <trkpt lat="44.89796" lon="1.82629">
        <ele>199.13</ele>
        <time>2021-08-16T14:48:45Z</time>
      </trkpt>
      <trkpt lat="44.89768" lon="1.82561">
        <ele>195.77</ele>
        <time>2021-08-16T14:48:51Z</time>
      </trkpt>
      <trkpt lat="44.89763" lon="1.82536">
        <ele>195.28</ele>
        <time>2021-08-16T14:48:53Z</time>
      </trkpt>
      <trkpt lat="44.89758" lon="1.82482">
        <ele>191.44</ele>
        <time>2021-08-16T14:48:57Z</time>
      </trkpt>
      <trkpt lat="44.89759" lon="1.82452">
        <ele>189.04</ele>
        <time>2021-08-16T14:48:59Z</time>
      </trkpt>
      <trkpt lat="44.89761" lon="1.82437">
        <ele>188.56</ele>
        <time>2021-08-16T14:49:00Z</time>
      </trkpt>
      <trkpt lat="44.8978" lon="1.82366">
        <ele>185.67</ele>
        <time>2021-08-16T14:49:05Z</time>
      </trkpt>
      <trkpt lat="44.89806" lon="1.82285">
        <ele>181.83</ele>
        <time>2021-08-16T14:49:11Z</time>
      </trkpt>
      <trkpt lat="44.89812" lon="1.82271">
        <ele>181.83</ele>
        <time>2021-08-16T14:49:12Z</time>
      </trkpt>
      <trkpt lat="44.89817" lon="1.82258">
        <ele>180.87</ele>
        <time>2021-08-16T14:49:13Z</time>
      </trkpt>
      <trkpt lat="44.89851" lon="1.82186">
        <ele>177.5</ele>
        <time>2021-08-16T14:49:19Z</time>
      </trkpt>
      <trkpt lat="44.8988" lon="1.82126">
        <ele>173.66</ele>
        <time>2021-08-16T14:49:24Z</time>
      </trkpt>
      <trkpt lat="44.89891" lon="1.82101">
        <ele>173.17</ele>
        <time>2021-08-16T14:49:26Z</time>
      </trkpt>
      <trkpt lat="44.89911" lon="1.82044">
        <ele>169.33</ele>
        <time>2021-08-16T14:49:30Z</time>
      </trkpt>
      <trkpt lat="44.89917" lon="1.82016">
        <ele>167.89</ele>
        <time>2021-08-16T14:49:32Z</time>
      </trkpt>
      <trkpt lat="44.89918" lon="1.82002">
        <ele>166.93</ele>
        <time>2021-08-16T14:49:33Z</time>
      </trkpt>
      <trkpt lat="44.89917" lon="1.81986">
        <ele>165.96</ele>
        <time>2021-08-16T14:49:34Z</time>
      </trkpt>
      <trkpt lat="44.89915" lon="1.81974">
        <ele>165</ele>
        <time>2021-08-16T14:49:35Z</time>
      </trkpt>
      <trkpt lat="44.89911" lon="1.81961">
        <ele>164.52</ele>
        <time>2021-08-16T14:49:36Z</time>
      </trkpt>
      <trkpt lat="44.89905" lon="1.81947">
        <ele>163.56</ele>
        <time>2021-08-16T14:49:37Z</time>
      </trkpt>
      <trkpt lat="44.899" lon="1.81936">
        <ele>163.08</ele>
        <time>2021-08-16T14:49:38Z</time>
      </trkpt>
      <trkpt lat="44.89895" lon="1.81923">
        <ele>162.12</ele>
        <time>2021-08-16T14:49:39Z</time>
      </trkpt>
      <trkpt lat="44.89886" lon="1.81897">
        <ele>161.16</ele>
        <time>2021-08-16T14:49:41Z</time>
      </trkpt>
      <trkpt lat="44.89884" lon="1.81883">
        <ele>161.16</ele>
        <time>2021-08-16T14:49:42Z</time>
      </trkpt>
      <trkpt lat="44.89882" lon="1.81868">
        <ele>160.2</ele>
        <time>2021-08-16T14:49:43Z</time>
      </trkpt>
      <trkpt lat="44.8988" lon="1.81852">
        <ele>159.24</ele>
        <time>2021-08-16T14:49:44Z</time>
      </trkpt>
      <trkpt lat="44.8988" lon="1.81839">
        <ele>158.75</ele>
        <time>2021-08-16T14:49:45Z</time>
      </trkpt>
      <trkpt lat="44.8988" lon="1.81824">
        <ele>158.27</ele>
        <time>2021-08-16T14:49:46Z</time>
      </trkpt>
      <trkpt lat="44.8988" lon="1.8178">
        <ele>156.35</ele>
        <time>2021-08-16T14:49:49Z</time>
      </trkpt>
      <trkpt lat="44.89879" lon="1.81749">
        <ele>154.91</ele>
        <time>2021-08-16T14:49:51Z</time>
      </trkpt>
      <trkpt lat="44.89877" lon="1.81735">
        <ele>154.91</ele>
        <time>2021-08-16T14:49:52Z</time>
      </trkpt>
      <trkpt lat="44.89873" lon="1.8172">
        <ele>153.47</ele>
        <time>2021-08-16T14:49:53Z</time>
      </trkpt>
      <trkpt lat="44.89869" lon="1.81706">
        <ele>152.99</ele>
        <time>2021-08-16T14:49:54Z</time>
      </trkpt>
      <trkpt lat="44.89864" lon="1.81694">
        <ele>152.51</ele>
        <time>2021-08-16T14:49:55Z</time>
      </trkpt>
      <trkpt lat="44.89857" lon="1.8168">
        <ele>152.03</ele>
        <time>2021-08-16T14:49:56Z</time>
      </trkpt>
      <trkpt lat="44.89852" lon="1.81669">
        <ele>151.54</ele>
        <time>2021-08-16T14:49:57Z</time>
      </trkpt>
      <trkpt lat="44.8981" lon="1.8158">
        <ele>150.1</ele>
        <time>2021-08-16T14:50:05Z</time>
      </trkpt>
      <trkpt lat="44.8978" lon="1.81517">
        <ele>149.14</ele>
        <time>2021-08-16T14:50:12Z</time>
      </trkpt>
      <trkpt lat="44.89771" lon="1.81498">
        <ele>149.14</ele>
        <time>2021-08-16T14:50:15Z</time>
      </trkpt>
      <trkpt lat="44.89769" lon="1.81491">
        <ele>149.14</ele>
        <time>2021-08-16T14:50:16Z</time>
      </trkpt>
      <trkpt lat="44.89768" lon="1.81483">
        <ele>149.14</ele>
        <time>2021-08-16T14:50:17Z</time>
      </trkpt>
      <trkpt lat="44.89765" lon="1.81457">
        <ele>149.14</ele>
        <time>2021-08-16T14:50:21Z</time>
      </trkpt>
      <trkpt lat="44.89765" lon="1.8145">
        <ele>149.14</ele>
        <time>2021-08-16T14:50:22Z</time>
      </trkpt>
      <trkpt lat="44.89766" lon="1.81443">
        <ele>148.66</ele>
        <time>2021-08-16T14:50:23Z</time>
      </trkpt>
      <trkpt lat="44.89768" lon="1.81437">
        <ele>148.66</ele>
        <time>2021-08-16T14:50:24Z</time>
      </trkpt>
      <trkpt lat="44.8977" lon="1.81432">
        <ele>148.66</ele>
        <time>2021-08-16T14:50:25Z</time>
      </trkpt>
      <trkpt lat="44.89773" lon="1.81427">
        <ele>148.66</ele>
        <time>2021-08-16T14:50:26Z</time>
      </trkpt>
      <trkpt lat="44.89776" lon="1.81423">
        <ele>148.66</ele>
        <time>2021-08-16T14:50:27Z</time>
      </trkpt>
      <trkpt lat="44.8978" lon="1.8142">
        <ele>148.66</ele>
        <time>2021-08-16T14:50:28Z</time>
      </trkpt>
      <trkpt lat="44.89784" lon="1.81416">
        <ele>147.7</ele>
        <time>2021-08-16T14:50:29Z</time>
      </trkpt>
      <trkpt lat="44.8982" lon="1.8139">
        <ele>144.82</ele>
        <time>2021-08-16T14:50:36Z</time>
      </trkpt>
      <trkpt lat="44.89848" lon="1.8137">
        <ele>142.89</ele>
        <time>2021-08-16T14:50:40Z</time>
      </trkpt>
      <trkpt lat="44.89854" lon="1.81365">
        <ele>141.93</ele>
        <time>2021-08-16T14:50:41Z</time>
      </trkpt>
      <trkpt lat="44.89859" lon="1.81359">
        <ele>141.93</ele>
        <time>2021-08-16T14:50:42Z</time>
      </trkpt>
      <trkpt lat="44.89864" lon="1.81352">
        <ele>141.45</ele>
        <time>2021-08-16T14:50:43Z</time>
      </trkpt>
      <trkpt lat="44.89868" lon="1.81344">
        <ele>141.45</ele>
        <time>2021-08-16T14:50:44Z</time>
      </trkpt>
      <trkpt lat="44.89871" lon="1.81336">
        <ele>140.49</ele>
        <time>2021-08-16T14:50:45Z</time>
      </trkpt>
      <trkpt lat="44.89895" lon="1.81284">
        <ele>139.05</ele>
        <time>2021-08-16T14:50:52Z</time>
      </trkpt>
      <trkpt lat="44.899" lon="1.81273">
        <ele>139.05</ele>
        <time>2021-08-16T14:50:54Z</time>
      </trkpt>
      <trkpt lat="44.89911" lon="1.81254">
        <ele>139.05</ele>
        <time>2021-08-16T14:50:59Z</time>
      </trkpt>
      <trkpt lat="44.89909" lon="1.8125">
        <ele>139.05</ele>
        <time>2021-08-16T14:51:00Z</time>
      </trkpt>
      <trkpt lat="44.89906" lon="1.81249">
        <ele>139.05</ele>
        <time>2021-08-16T14:51:01Z</time>
      </trkpt>
      <trkpt lat="44.89904" lon="1.81249">
        <ele>139.05</ele>
        <time>2021-08-16T14:51:02Z</time>
      </trkpt>
      <trkpt lat="44.89902" lon="1.81248">
        <ele>139.05</ele>
        <time>2021-08-16T14:51:03Z</time>
      </trkpt>
      <trkpt lat="44.899" lon="1.81248">
        <ele>139.05</ele>
        <time>2021-08-16T14:51:04Z</time>
      </trkpt>
      <trkpt lat="44.89897" lon="1.81248">
        <ele>139.05</ele>
        <time>2021-08-16T14:51:05Z</time>
      </trkpt>
      <trkpt lat="44.89895" lon="1.81249">
        <ele>139.05</ele>
        <time>2021-08-16T14:51:06Z</time>
      </trkpt>
      <trkpt lat="44.89893" lon="1.8125">
        <ele>139.05</ele>
        <time>2021-08-16T14:51:07Z</time>
      </trkpt>
      <trkpt lat="44.8989" lon="1.8125">
        <ele>139.05</ele>
        <time>2021-08-16T14:51:08Z</time>
      </trkpt>
      <trkpt lat="44.89887" lon="1.8125">
        <ele>139.05</ele>
        <time>2021-08-16T14:51:09Z</time>
      </trkpt>
      <trkpt lat="44.89884" lon="1.81249">
        <ele>139.05</ele>
        <time>2021-08-16T14:51:10Z</time>
      </trkpt>
      <trkpt lat="44.89864" lon="1.81241">
        <ele>139.05</ele>
        <time>2021-08-16T14:51:16Z</time>
      </trkpt>
      <trkpt lat="44.89834" lon="1.81221">
        <ele>138.57</ele>
        <time>2021-08-16T14:51:24Z</time>
      </trkpt>
      <trkpt lat="44.89827" lon="1.81215">
        <ele>138.57</ele>
        <time>2021-08-16T14:51:26Z</time>
      </trkpt>
      <trkpt lat="44.89788" lon="1.81188">
        <ele>138.57</ele>
        <time>2021-08-16T14:51:36Z</time>
      </trkpt>
      <trkpt lat="44.89761" lon="1.81169">
        <ele>138.57</ele>
        <time>2021-08-16T14:51:43Z</time>
      </trkpt>
      <trkpt lat="44.89745" lon="1.81157">
        <ele>138.57</ele>
        <time>2021-08-16T14:51:47Z</time>
      </trkpt>
      <trkpt lat="44.89741" lon="1.81155">
        <ele>138.57</ele>
        <time>2021-08-16T14:51:48Z</time>
      </trkpt>
      <trkpt lat="44.8972" lon="1.81138">
        <ele>138.57</ele>
        <time>2021-08-16T14:51:53Z</time>
      </trkpt>
      <trkpt lat="44.89668" lon="1.81085">
        <ele>138.57</ele>
        <time>2021-08-16T14:52:06Z</time>
      </trkpt>
      <trkpt lat="44.89631" lon="1.81047">
        <ele>138.57</ele>
        <time>2021-08-16T14:52:15Z</time>
      </trkpt>
      <trkpt lat="44.89623" lon="1.81039">
        <ele>138.57</ele>
        <time>2021-08-16T14:52:17Z</time>
      </trkpt>
      <trkpt lat="44.8962" lon="1.81036">
        <ele>138.57</ele>
        <time>2021-08-16T14:52:18Z</time>
      </trkpt>
      <trkpt lat="44.89616" lon="1.81032">
        <ele>138.57</ele>
        <time>2021-08-16T14:52:19Z</time>
      </trkpt>
      <trkpt lat="44.89604" lon="1.81022">
        <ele>138.57</ele>
        <time>2021-08-16T14:52:22Z</time>
      </trkpt>
      <trkpt lat="44.89601" lon="1.81017">
        <ele>138.57</ele>
        <time>2021-08-16T14:52:23Z</time>
      </trkpt>
      <trkpt lat="44.89555" lon="1.80972">
        <ele>138.57</ele>
        <time>2021-08-16T14:52:34Z</time>
      </trkpt>
      <trkpt lat="44.89503" lon="1.8093">
        <ele>138.09</ele>
        <time>2021-08-16T14:52:45Z</time>
      </trkpt>
      <trkpt lat="44.89443" lon="1.80895">
        <ele>138.09</ele>
        <time>2021-08-16T14:52:57Z</time>
      </trkpt>
      <trkpt lat="44.8942" lon="1.80883">
        <ele>137.61</ele>
        <time>2021-08-16T14:53:02Z</time>
      </trkpt>
      <trkpt lat="44.8936" lon="1.80842">
        <ele>137.13</ele>
        <time>2021-08-16T14:53:14Z</time>
      </trkpt>
      <trkpt lat="44.89315" lon="1.80809">
        <ele>137.13</ele>
        <time>2021-08-16T14:53:23Z</time>
      </trkpt>
      <trkpt lat="44.89272" lon="1.80771">
        <ele>136.64</ele>
        <time>2021-08-16T14:53:32Z</time>
      </trkpt>
      <trkpt lat="44.89238" lon="1.80737">
        <ele>136.64</ele>
        <time>2021-08-16T14:53:40Z</time>
      </trkpt>
      <trkpt lat="44.89192" lon="1.80687">
        <ele>136.64</ele>
        <time>2021-08-16T14:53:52Z</time>
      </trkpt>
      <trkpt lat="44.89177" lon="1.80668">
        <ele>136.64</ele>
        <time>2021-08-16T14:53:56Z</time>
      </trkpt>
      <trkpt lat="44.89151" lon="1.80623">
        <ele>136.16</ele>
        <time>2021-08-16T14:54:04Z</time>
      </trkpt>
      <trkpt lat="44.89147" lon="1.80617">
        <ele>136.16</ele>
        <time>2021-08-16T14:54:05Z</time>
      </trkpt>
      <trkpt lat="44.89143" lon="1.80612">
        <ele>136.16</ele>
        <time>2021-08-16T14:54:06Z</time>
      </trkpt>
      <trkpt lat="44.89127" lon="1.80596">
        <ele>136.16</ele>
        <time>2021-08-16T14:54:10Z</time>
      </trkpt>
      <trkpt lat="44.89122" lon="1.80592">
        <ele>136.16</ele>
        <time>2021-08-16T14:54:11Z</time>
      </trkpt>
      <trkpt lat="44.89084" lon="1.80566">
        <ele>136.16</ele>
        <time>2021-08-16T14:54:20Z</time>
      </trkpt>
      <trkpt lat="44.8908" lon="1.80565">
        <ele>136.16</ele>
        <time>2021-08-16T14:54:21Z</time>
      </trkpt>
      <trkpt lat="44.89047" lon="1.80554">
        <ele>138.09</ele>
        <time>2021-08-16T14:54:29Z</time>
      </trkpt>
      <trkpt lat="44.89021" lon="1.80543">
        <ele>138.57</ele>
        <time>2021-08-16T14:54:37Z</time>
      </trkpt>
      <trkpt lat="44.89008" lon="1.80555">
        <ele>139.05</ele>
        <time>2021-08-16T14:54:42Z</time>
      </trkpt>
      <trkpt lat="44.8899" lon="1.8059">
        <ele>139.05</ele>
        <time>2021-08-16T14:54:50Z</time>
      </trkpt>
      <trkpt lat="44.88987" lon="1.80595">
        <ele>139.05</ele>
        <time>2021-08-16T14:54:51Z</time>
      </trkpt>
      <trkpt lat="44.88983" lon="1.80599">
        <ele>139.05</ele>
        <time>2021-08-16T14:54:52Z</time>
      </trkpt>
      <trkpt lat="44.88952" lon="1.8064">
        <ele>139.53</ele>
        <time>2021-08-16T14:55:02Z</time>
      </trkpt>
      <trkpt lat="44.88948" lon="1.80642">
        <ele>139.05</ele>
        <time>2021-08-16T14:55:03Z</time>
      </trkpt>
      <trkpt lat="44.88943" lon="1.80644">
        <ele>139.05</ele>
        <time>2021-08-16T14:55:04Z</time>
      </trkpt>
      <trkpt lat="44.88938" lon="1.80644">
        <ele>139.05</ele>
        <time>2021-08-16T14:55:05Z</time>
      </trkpt>
      <trkpt lat="44.88934" lon="1.80642">
        <ele>139.05</ele>
        <time>2021-08-16T14:55:06Z</time>
      </trkpt>
      <trkpt lat="44.8893" lon="1.8064">
        <ele>139.05</ele>
        <time>2021-08-16T14:55:07Z</time>
      </trkpt>
      <trkpt lat="44.88926" lon="1.80637">
        <ele>139.05</ele>
        <time>2021-08-16T14:55:08Z</time>
      </trkpt>
      <trkpt lat="44.88906" lon="1.80634">
        <ele>140.49</ele>
        <time>2021-08-16T14:55:14Z</time>
      </trkpt>
      <trkpt lat="44.88889" lon="1.80647">
        <ele>140.97</ele>
        <time>2021-08-16T14:55:21Z</time>
      </trkpt>
      <trkpt lat="44.88877" lon="1.80656">
        <ele>142.41</ele>
        <time>2021-08-16T14:55:29Z</time>
      </trkpt>
      <trkpt lat="44.88877" lon="1.80657">
        <ele>142.41</ele>
        <time>2021-08-16T14:55:31Z</time>
      </trkpt>
      <trkpt lat="44.88876" lon="1.80658">
        <ele>142.41</ele>
        <time>2021-08-16T14:55:37Z</time>
      </trkpt>
      <trkpt lat="44.88874" lon="1.80659">
        <ele>142.41</ele>
        <time>2021-08-16T14:55:54Z</time>
      </trkpt>
      <trkpt lat="44.88874" lon="1.80658">
        <ele>142.41</ele>
        <time>2021-08-16T14:56:07Z</time>
      </trkpt>
      <trkpt lat="44.88874" lon="1.80657">
        <ele>142.41</ele>
        <time>2021-08-16T14:56:14Z</time>
      </trkpt>
      <trkpt lat="44.88874" lon="1.80654">
        <ele>142.41</ele>
        <time>2021-08-16T14:56:34Z</time>
      </trkpt>
      <trkpt lat="44.88873" lon="1.80651">
        <ele>142.41</ele>
        <time>2021-08-16T14:56:52Z</time>
      </trkpt>
      <trkpt lat="44.88873" lon="1.80652">
        <ele>142.41</ele>
        <time>2021-08-16T14:57:13Z</time>
      </trkpt>
      <trkpt lat="44.88875" lon="1.80653">
        <ele>141.93</ele>
        <time>2021-08-16T14:57:35Z</time>
      </trkpt>
      <trkpt lat="44.88874" lon="1.80654">
        <ele>141.93</ele>
        <time>2021-08-16T14:57:55Z</time>
      </trkpt>
      <trkpt lat="44.88875" lon="1.80654">
        <ele>141.93</ele>
        <time>2021-08-16T14:58:13Z</time>
      </trkpt>
      <trkpt lat="44.88875" lon="1.80654">
        <ele>141.93</ele>
        <time>2021-08-16T14:58:27Z</time>
      </trkpt>
      <trkpt lat="44.88874" lon="1.80653">
        <ele>141.93</ele>
        <time>2021-08-16T14:58:47Z</time>
      </trkpt>
      <trkpt lat="44.88873" lon="1.80651">
        <ele>141.93</ele>
        <time>2021-08-16T14:59:04Z</time>
      </trkpt>
      <trkpt lat="44.88873" lon="1.80652">
        <ele>141.93</ele>
        <time>2021-08-16T14:59:14Z</time>
      </trkpt>
      <trkpt lat="44.88872" lon="1.80653">
        <ele>141.45</ele>
        <time>2021-08-16T14:59:32Z</time>
      </trkpt>
      <trkpt lat="44.88873" lon="1.8065">
        <ele>141.45</ele>
        <time>2021-08-16T14:59:54Z</time>
      </trkpt>
      <trkpt lat="44.88874" lon="1.80652">
        <ele>141.45</ele>
        <time>2021-08-16T15:00:18Z</time>
      </trkpt>
      <trkpt lat="44.88875" lon="1.80653">
        <ele>141.45</ele>
        <time>2021-08-16T15:00:43Z</time>
      </trkpt>
      <trkpt lat="44.88875" lon="1.80651">
        <ele>140.97</ele>
        <time>2021-08-16T15:01:06Z</time>
      </trkpt>
      <trkpt lat="44.88874" lon="1.80654">
        <ele>140.97</ele>
        <time>2021-08-16T15:01:30Z</time>
      </trkpt>
      <trkpt lat="44.88876" lon="1.80652">
        <ele>140.97</ele>
        <time>2021-08-16T15:01:51Z</time>
      </trkpt>
      <trkpt lat="44.88874" lon="1.80651">
        <ele>140.49</ele>
        <time>2021-08-16T15:02:16Z</time>
      </trkpt>
      <trkpt lat="44.88873" lon="1.80652">
        <ele>140.49</ele>
        <time>2021-08-16T15:02:37Z</time>
      </trkpt>
      <trkpt lat="44.88872" lon="1.80654">
        <ele>140.49</ele>
        <time>2021-08-16T15:02:57Z</time>
      </trkpt>
      <trkpt lat="44.88873" lon="1.80654">
        <ele>140.49</ele>
        <time>2021-08-16T15:03:19Z</time>
      </trkpt>
      <trkpt lat="44.88872" lon="1.80652">
        <ele>140.49</ele>
        <time>2021-08-16T15:03:41Z</time>
      </trkpt>
      <trkpt lat="44.88872" lon="1.80654">
        <ele>140.01</ele>
        <time>2021-08-16T15:03:57Z</time>
      </trkpt>
      <trkpt lat="44.88871" lon="1.80654">
        <ele>140.01</ele>
        <time>2021-08-16T15:04:05Z</time>
      </trkpt>
      <trkpt lat="44.88871" lon="1.80653">
        <ele>140.01</ele>
        <time>2021-08-16T15:04:21Z</time>
      </trkpt>
      <trkpt lat="44.8887" lon="1.8065">
        <ele>140.01</ele>
        <time>2021-08-16T15:04:36Z</time>
      </trkpt>
      <trkpt lat="44.88872" lon="1.80651">
        <ele>140.01</ele>
        <time>2021-08-16T15:04:57Z</time>
      </trkpt>
      <trkpt lat="44.88875" lon="1.80654">
        <ele>140.01</ele>
        <time>2021-08-16T15:05:13Z</time>
      </trkpt>
      <trkpt lat="44.88876" lon="1.80655">
        <ele>139.53</ele>
        <time>2021-08-16T15:05:25Z</time>
      </trkpt>
      <trkpt lat="44.88875" lon="1.80655">
        <ele>139.53</ele>
        <time>2021-08-16T15:05:33Z</time>
      </trkpt>
      <trkpt lat="44.88875" lon="1.80657">
        <ele>139.53</ele>
        <time>2021-08-16T15:05:35Z</time>
      </trkpt>
      <trkpt lat="44.88875" lon="1.80658">
        <ele>139.53</ele>
        <time>2021-08-16T15:05:36Z</time>
      </trkpt>
      <trkpt lat="44.88874" lon="1.8066">
        <ele>139.53</ele>
        <time>2021-08-16T15:05:37Z</time>
      </trkpt>
      <trkpt lat="44.88863" lon="1.80672">
        <ele>140.01</ele>
        <time>2021-08-16T15:05:44Z</time>
      </trkpt>
      <trkpt lat="44.88841" lon="1.80691">
        <ele>141.93</ele>
        <time>2021-08-16T15:05:55Z</time>
      </trkpt>
      <trkpt lat="44.88826" lon="1.80702">
        <ele>142.89</ele>
        <time>2021-08-16T15:06:02Z</time>
      </trkpt>
      <trkpt lat="44.88814" lon="1.80712">
        <ele>143.85</ele>
        <time>2021-08-16T15:06:09Z</time>
      </trkpt>
      <trkpt lat="44.88797" lon="1.80721">
        <ele>144.82</ele>
        <time>2021-08-16T15:06:17Z</time>
      </trkpt>
      <trkpt lat="44.88775" lon="1.80725">
        <ele>145.78</ele>
        <time>2021-08-16T15:06:26Z</time>
      </trkpt>
      <trkpt lat="44.88754" lon="1.80722">
        <ele>147.22</ele>
        <time>2021-08-16T15:06:34Z</time>
      </trkpt>
      <trkpt lat="44.8873" lon="1.80707">
        <ele>148.18</ele>
        <time>2021-08-16T15:06:44Z</time>
      </trkpt>
      <trkpt lat="44.88712" lon="1.80689">
        <ele>149.14</ele>
        <time>2021-08-16T15:06:53Z</time>
      </trkpt>
      <trkpt lat="44.88695" lon="1.80667">
        <ele>150.58</ele>
        <time>2021-08-16T15:07:03Z</time>
      </trkpt>
      <trkpt lat="44.88682" lon="1.80644">
        <ele>151.54</ele>
        <time>2021-08-16T15:07:12Z</time>
      </trkpt>
      <trkpt lat="44.88676" lon="1.80617">
        <ele>152.99</ele>
        <time>2021-08-16T15:07:21Z</time>
      </trkpt>
      <trkpt lat="44.88676" lon="1.80588">
        <ele>153.95</ele>
        <time>2021-08-16T15:07:30Z</time>
      </trkpt>
      <trkpt lat="44.88675" lon="1.80573">
        <ele>154.91</ele>
        <time>2021-08-16T15:07:35Z</time>
      </trkpt>
      <trkpt lat="44.88674" lon="1.80573">
        <ele>154.91</ele>
        <time>2021-08-16T15:07:36Z</time>
      </trkpt>
      <trkpt lat="44.88671" lon="1.80574">
        <ele>154.91</ele>
        <time>2021-08-16T15:07:37Z</time>
      </trkpt>
      <trkpt lat="44.88669" lon="1.80576">
        <ele>154.91</ele>
        <time>2021-08-16T15:07:38Z</time>
      </trkpt>
      <trkpt lat="44.88667" lon="1.80579">
        <ele>154.43</ele>
        <time>2021-08-16T15:07:39Z</time>
      </trkpt>
      <trkpt lat="44.88661" lon="1.80588">
        <ele>153.47</ele>
        <time>2021-08-16T15:07:41Z</time>
      </trkpt>
      <trkpt lat="44.88658" lon="1.80593">
        <ele>153.47</ele>
        <time>2021-08-16T15:07:42Z</time>
      </trkpt>
      <trkpt lat="44.88654" lon="1.80599">
        <ele>152.99</ele>
        <time>2021-08-16T15:07:43Z</time>
      </trkpt>
      <trkpt lat="44.88651" lon="1.80605">
        <ele>152.99</ele>
        <time>2021-08-16T15:07:44Z</time>
      </trkpt>
      <trkpt lat="44.88648" lon="1.80611">
        <ele>152.03</ele>
        <time>2021-08-16T15:07:45Z</time>
      </trkpt>
      <trkpt lat="44.88641" lon="1.80625">
        <ele>151.54</ele>
        <time>2021-08-16T15:07:47Z</time>
      </trkpt>
      <trkpt lat="44.88628" lon="1.8066">
        <ele>148.18</ele>
        <time>2021-08-16T15:07:51Z</time>
      </trkpt>
      <trkpt lat="44.88615" lon="1.8069">
        <ele>145.3</ele>
        <time>2021-08-16T15:07:54Z</time>
      </trkpt>
      <trkpt lat="44.88595" lon="1.80736">
        <ele>141.93</ele>
        <time>2021-08-16T15:07:58Z</time>
      </trkpt>
      <trkpt lat="44.8857" lon="1.80793">
        <ele>141.93</ele>
        <time>2021-08-16T15:08:04Z</time>
      </trkpt>
      <trkpt lat="44.88564" lon="1.80807">
        <ele>143.37</ele>
        <time>2021-08-16T15:08:06Z</time>
      </trkpt>
      <trkpt lat="44.88561" lon="1.80813">
        <ele>143.85</ele>
        <time>2021-08-16T15:08:07Z</time>
      </trkpt>
      <trkpt lat="44.88558" lon="1.80817">
        <ele>144.34</ele>
        <time>2021-08-16T15:08:08Z</time>
      </trkpt>
      <trkpt lat="44.88556" lon="1.80822">
        <ele>144.34</ele>
        <time>2021-08-16T15:08:09Z</time>
      </trkpt>
      <trkpt lat="44.88548" lon="1.80841">
        <ele>145.78</ele>
        <time>2021-08-16T15:08:15Z</time>
      </trkpt>
      <trkpt lat="44.88539" lon="1.80862">
        <ele>147.22</ele>
        <time>2021-08-16T15:08:22Z</time>
      </trkpt>
      <trkpt lat="44.88526" lon="1.80888">
        <ele>147.7</ele>
        <time>2021-08-16T15:08:31Z</time>
      </trkpt>
      <trkpt lat="44.88527" lon="1.8089">
        <ele>148.18</ele>
        <time>2021-08-16T15:08:36Z</time>
      </trkpt>
      <trkpt lat="44.88525" lon="1.80889">
        <ele>148.18</ele>
        <time>2021-08-16T15:08:55Z</time>
      </trkpt>
      <trkpt lat="44.88527" lon="1.80889">
        <ele>148.18</ele>
        <time>2021-08-16T15:09:01Z</time>
      </trkpt>
      <trkpt lat="44.88526" lon="1.80888">
        <ele>148.18</ele>
        <time>2021-08-16T15:09:08Z</time>
      </trkpt>
      <trkpt lat="44.88525" lon="1.8089">
        <ele>148.66</ele>
        <time>2021-08-16T15:09:21Z</time>
      </trkpt>
      <trkpt lat="44.88525" lon="1.80892">
        <ele>148.66</ele>
        <time>2021-08-16T15:09:23Z</time>
      </trkpt>
      <trkpt lat="44.88525" lon="1.80894">
        <ele>148.66</ele>
        <time>2021-08-16T15:09:24Z</time>
      </trkpt>
      <trkpt lat="44.88525" lon="1.80897">
        <ele>148.66</ele>
        <time>2021-08-16T15:09:25Z</time>
      </trkpt>
      <trkpt lat="44.88524" lon="1.80922">
        <ele>149.62</ele>
        <time>2021-08-16T15:09:33Z</time>
      </trkpt>
      <trkpt lat="44.8852" lon="1.80955">
        <ele>150.58</ele>
        <time>2021-08-16T15:09:41Z</time>
      </trkpt>
      <trkpt lat="44.88514" lon="1.80995">
        <ele>150.58</ele>
        <time>2021-08-16T15:09:49Z</time>
      </trkpt>
      <trkpt lat="44.88502" lon="1.81049">
        <ele>150.1</ele>
        <time>2021-08-16T15:09:58Z</time>
      </trkpt>
      <trkpt lat="44.88495" lon="1.81077">
        <ele>148.66</ele>
        <time>2021-08-16T15:10:02Z</time>
      </trkpt>
      <trkpt lat="44.88478" lon="1.81141">
        <ele>147.22</ele>
        <time>2021-08-16T15:10:11Z</time>
      </trkpt>
      <trkpt lat="44.88459" lon="1.81215">
        <ele>146.26</ele>
        <time>2021-08-16T15:10:21Z</time>
      </trkpt>
      <trkpt lat="44.88438" lon="1.81294">
        <ele>146.26</ele>
        <time>2021-08-16T15:10:32Z</time>
      </trkpt>
      <trkpt lat="44.88423" lon="1.81336">
        <ele>145.78</ele>
        <time>2021-08-16T15:10:38Z</time>
      </trkpt>
      <trkpt lat="44.8842" lon="1.81343">
        <ele>145.78</ele>
        <time>2021-08-16T15:10:39Z</time>
      </trkpt>
      <trkpt lat="44.88417" lon="1.8135">
        <ele>145.78</ele>
        <time>2021-08-16T15:10:40Z</time>
      </trkpt>
      <trkpt lat="44.8841" lon="1.81363">
        <ele>145.78</ele>
        <time>2021-08-16T15:10:42Z</time>
      </trkpt>
      <trkpt lat="44.88398" lon="1.81386">
        <ele>145.78</ele>
        <time>2021-08-16T15:10:46Z</time>
      </trkpt>
      <trkpt lat="44.88388" lon="1.81402">
        <ele>145.78</ele>
        <time>2021-08-16T15:10:49Z</time>
      </trkpt>
      <trkpt lat="44.88384" lon="1.81407">
        <ele>145.78</ele>
        <time>2021-08-16T15:10:50Z</time>
      </trkpt>
      <trkpt lat="44.8836" lon="1.81444">
        <ele>145.78</ele>
        <time>2021-08-16T15:10:57Z</time>
      </trkpt>
      <trkpt lat="44.88331" lon="1.81492">
        <ele>145.78</ele>
        <time>2021-08-16T15:11:06Z</time>
      </trkpt>
      <trkpt lat="44.88307" lon="1.81528">
        <ele>145.78</ele>
        <time>2021-08-16T15:11:13Z</time>
      </trkpt>
      <trkpt lat="44.88287" lon="1.8156">
        <ele>145.78</ele>
        <time>2021-08-16T15:11:20Z</time>
      </trkpt>
      <trkpt lat="44.88273" lon="1.8158">
        <ele>145.78</ele>
        <time>2021-08-16T15:11:24Z</time>
      </trkpt>
      <trkpt lat="44.88243" lon="1.81632">
        <ele>145.3</ele>
        <time>2021-08-16T15:11:33Z</time>
      </trkpt>
      <trkpt lat="44.8823" lon="1.81653">
        <ele>145.3</ele>
        <time>2021-08-16T15:11:37Z</time>
      </trkpt>
      <trkpt lat="44.88222" lon="1.81668">
        <ele>145.3</ele>
        <time>2021-08-16T15:11:40Z</time>
      </trkpt>
      <trkpt lat="44.88207" lon="1.81691">
        <ele>145.3</ele>
        <time>2021-08-16T15:11:46Z</time>
      </trkpt>
      <trkpt lat="44.88205" lon="1.81691">
        <ele>145.3</ele>
        <time>2021-08-16T15:11:47Z</time>
      </trkpt>
      <trkpt lat="44.88202" lon="1.81687">
        <ele>146.74</ele>
        <time>2021-08-16T15:11:49Z</time>
      </trkpt>
      <trkpt lat="44.88201" lon="1.81687">
        <ele>147.22</ele>
        <time>2021-08-16T15:11:53Z</time>
      </trkpt>
      <trkpt lat="44.88201" lon="1.81689">
        <ele>147.22</ele>
        <time>2021-08-16T15:11:55Z</time>
      </trkpt>
      <trkpt lat="44.88205" lon="1.81694">
        <ele>147.22</ele>
        <time>2021-08-16T15:12:00Z</time>
      </trkpt>
      <trkpt lat="44.88204" lon="1.81699">
        <ele>147.22</ele>
        <time>2021-08-16T15:12:03Z</time>
      </trkpt>
      <trkpt lat="44.882" lon="1.81705">
        <ele>147.22</ele>
        <time>2021-08-16T15:12:11Z</time>
      </trkpt>
      <trkpt lat="44.88192" lon="1.81719">
        <ele>147.22</ele>
        <time>2021-08-16T15:12:18Z</time>
      </trkpt>
      <trkpt lat="44.88183" lon="1.81736">
        <ele>147.22</ele>
        <time>2021-08-16T15:12:24Z</time>
      </trkpt>
      <trkpt lat="44.8818" lon="1.81737">
        <ele>147.22</ele>
        <time>2021-08-16T15:12:25Z</time>
      </trkpt>
      <trkpt lat="44.88178" lon="1.81735">
        <ele>147.22</ele>
        <time>2021-08-16T15:12:26Z</time>
      </trkpt>
      <trkpt lat="44.88176" lon="1.81733">
        <ele>147.22</ele>
        <time>2021-08-16T15:12:27Z</time>
      </trkpt>
      <trkpt lat="44.88174" lon="1.81729">
        <ele>147.22</ele>
        <time>2021-08-16T15:12:28Z</time>
      </trkpt>
      <trkpt lat="44.88172" lon="1.81726">
        <ele>147.22</ele>
        <time>2021-08-16T15:12:29Z</time>
      </trkpt>
      <trkpt lat="44.88171" lon="1.81723">
        <ele>147.22</ele>
        <time>2021-08-16T15:12:30Z</time>
      </trkpt>
      <trkpt lat="44.8816" lon="1.81699">
        <ele>148.18</ele>
        <time>2021-08-16T15:12:38Z</time>
      </trkpt>
      <trkpt lat="44.88146" lon="1.81668">
        <ele>149.62</ele>
        <time>2021-08-16T15:12:49Z</time>
      </trkpt>
      <trkpt lat="44.88136" lon="1.81644">
        <ele>150.58</ele>
        <time>2021-08-16T15:12:58Z</time>
      </trkpt>
      <trkpt lat="44.88124" lon="1.81619">
        <ele>152.03</ele>
        <time>2021-08-16T15:13:09Z</time>
      </trkpt>
      <trkpt lat="44.88114" lon="1.81597">
        <ele>152.99</ele>
        <time>2021-08-16T15:13:18Z</time>
      </trkpt>
      <trkpt lat="44.88104" lon="1.81575">
        <ele>153.95</ele>
        <time>2021-08-16T15:13:28Z</time>
      </trkpt>
      <trkpt lat="44.88095" lon="1.81556">
        <ele>155.39</ele>
        <time>2021-08-16T15:13:38Z</time>
      </trkpt>
      <trkpt lat="44.88087" lon="1.81535">
        <ele>156.35</ele>
        <time>2021-08-16T15:13:48Z</time>
      </trkpt>
      <trkpt lat="44.88078" lon="1.81516">
        <ele>157.79</ele>
        <time>2021-08-16T15:13:58Z</time>
      </trkpt>
      <trkpt lat="44.88077" lon="1.81512">
        <ele>157.79</ele>
        <time>2021-08-16T15:14:00Z</time>
      </trkpt>
      <trkpt lat="44.88077" lon="1.8151">
        <ele>158.27</ele>
        <time>2021-08-16T15:14:01Z</time>
      </trkpt>
      <trkpt lat="44.88076" lon="1.81506">
        <ele>158.27</ele>
        <time>2021-08-16T15:14:03Z</time>
      </trkpt>
      <trkpt lat="44.88075" lon="1.81505">
        <ele>158.75</ele>
        <time>2021-08-16T15:14:04Z</time>
      </trkpt>
      <trkpt lat="44.88066" lon="1.81492">
        <ele>159.72</ele>
        <time>2021-08-16T15:14:12Z</time>
      </trkpt>
      <trkpt lat="44.88052" lon="1.81481">
        <ele>160.68</ele>
        <time>2021-08-16T15:14:22Z</time>
      </trkpt>
      <trkpt lat="44.88037" lon="1.81472">
        <ele>162.12</ele>
        <time>2021-08-16T15:14:32Z</time>
      </trkpt>
      <trkpt lat="44.88021" lon="1.81471">
        <ele>163.56</ele>
        <time>2021-08-16T15:14:43Z</time>
      </trkpt>
      <trkpt lat="44.88011" lon="1.81468">
        <ele>165</ele>
        <time>2021-08-16T15:14:50Z</time>
      </trkpt>
      <trkpt lat="44.8801" lon="1.81465">
        <ele>165.48</ele>
        <time>2021-08-16T15:14:52Z</time>
      </trkpt>
      <trkpt lat="44.88008" lon="1.81461">
        <ele>165.96</ele>
        <time>2021-08-16T15:14:57Z</time>
      </trkpt>
      <trkpt lat="44.88003" lon="1.81451">
        <ele>167.89</ele>
        <time>2021-08-16T15:15:08Z</time>
      </trkpt>
      <trkpt lat="44.87999" lon="1.81441">
        <ele>168.85</ele>
        <time>2021-08-16T15:15:17Z</time>
      </trkpt>
      <trkpt lat="44.87994" lon="1.81431">
        <ele>170.29</ele>
        <time>2021-08-16T15:15:28Z</time>
      </trkpt>
      <trkpt lat="44.87988" lon="1.8142">
        <ele>172.21</ele>
        <time>2021-08-16T15:15:39Z</time>
      </trkpt>
      <trkpt lat="44.87983" lon="1.8141">
        <ele>174.14</ele>
        <time>2021-08-16T15:15:49Z</time>
      </trkpt>
      <trkpt lat="44.87979" lon="1.81401">
        <ele>175.58</ele>
        <time>2021-08-16T15:15:59Z</time>
      </trkpt>
      <trkpt lat="44.87978" lon="1.814">
        <ele>175.58</ele>
        <time>2021-08-16T15:16:00Z</time>
      </trkpt>
      <trkpt lat="44.87974" lon="1.81391">
        <ele>177.02</ele>
        <time>2021-08-16T15:16:09Z</time>
      </trkpt>
      <trkpt lat="44.87969" lon="1.8138">
        <ele>178.94</ele>
        <time>2021-08-16T15:16:21Z</time>
      </trkpt>
      <trkpt lat="44.87963" lon="1.81369">
        <ele>180.38</ele>
        <time>2021-08-16T15:16:32Z</time>
      </trkpt>
      <trkpt lat="44.87958" lon="1.81359">
        <ele>181.83</ele>
        <time>2021-08-16T15:16:43Z</time>
      </trkpt>
      <trkpt lat="44.87954" lon="1.8135">
        <ele>183.27</ele>
        <time>2021-08-16T15:16:53Z</time>
      </trkpt>
      <trkpt lat="44.87948" lon="1.81339">
        <ele>184.23</ele>
        <time>2021-08-16T15:17:02Z</time>
      </trkpt>
      <trkpt lat="44.87943" lon="1.8133">
        <ele>186.15</ele>
        <time>2021-08-16T15:17:11Z</time>
      </trkpt>
      <trkpt lat="44.87937" lon="1.81319">
        <ele>187.59</ele>
        <time>2021-08-16T15:17:22Z</time>
      </trkpt>
      <trkpt lat="44.87931" lon="1.81315">
        <ele>189.04</ele>
        <time>2021-08-16T15:17:32Z</time>
      </trkpt>
      <trkpt lat="44.87927" lon="1.81318">
        <ele>190</ele>
        <time>2021-08-16T15:17:41Z</time>
      </trkpt>
      <trkpt lat="44.87923" lon="1.81326">
        <ele>191.44</ele>
        <time>2021-08-16T15:17:51Z</time>
      </trkpt>
      <trkpt lat="44.8792" lon="1.81337">
        <ele>192.88</ele>
        <time>2021-08-16T15:18:01Z</time>
      </trkpt>
      <trkpt lat="44.87914" lon="1.81344">
        <ele>194.32</ele>
        <time>2021-08-16T15:18:11Z</time>
      </trkpt>
      <trkpt lat="44.87913" lon="1.81339">
        <ele>195.77</ele>
        <time>2021-08-16T15:18:20Z</time>
      </trkpt>
      <trkpt lat="44.87913" lon="1.81331">
        <ele>197.21</ele>
        <time>2021-08-16T15:18:29Z</time>
      </trkpt>
      <trkpt lat="44.87912" lon="1.81325">
        <ele>198.17</ele>
        <time>2021-08-16T15:18:35Z</time>
      </trkpt>
      <trkpt lat="44.8791" lon="1.81317">
        <ele>199.61</ele>
        <time>2021-08-16T15:18:42Z</time>
      </trkpt>
      <trkpt lat="44.87909" lon="1.8131">
        <ele>200.57</ele>
        <time>2021-08-16T15:18:50Z</time>
      </trkpt>
      <trkpt lat="44.87907" lon="1.81303">
        <ele>202.01</ele>
        <time>2021-08-16T15:18:58Z</time>
      </trkpt>
      <trkpt lat="44.87905" lon="1.8129">
        <ele>203.46</ele>
        <time>2021-08-16T15:19:09Z</time>
      </trkpt>
      <trkpt lat="44.87903" lon="1.81282">
        <ele>204.9</ele>
        <time>2021-08-16T15:19:16Z</time>
      </trkpt>
      <trkpt lat="44.87901" lon="1.81271">
        <ele>206.34</ele>
        <time>2021-08-16T15:19:25Z</time>
      </trkpt>
      <trkpt lat="44.879" lon="1.81262">
        <ele>207.3</ele>
        <time>2021-08-16T15:19:33Z</time>
      </trkpt>
      <trkpt lat="44.87896" lon="1.81249">
        <ele>209.22</ele>
        <time>2021-08-16T15:19:43Z</time>
      </trkpt>
      <trkpt lat="44.87895" lon="1.81241">
        <ele>209.7</ele>
        <time>2021-08-16T15:19:50Z</time>
      </trkpt>
      <trkpt lat="44.87895" lon="1.8123">
        <ele>211.15</ele>
        <time>2021-08-16T15:19:59Z</time>
      </trkpt>
      <trkpt lat="44.87893" lon="1.81221">
        <ele>212.59</ele>
        <time>2021-08-16T15:20:07Z</time>
      </trkpt>
      <trkpt lat="44.87891" lon="1.81209">
        <ele>214.51</ele>
        <time>2021-08-16T15:20:17Z</time>
      </trkpt>
      <trkpt lat="44.87891" lon="1.81197">
        <ele>215.95</ele>
        <time>2021-08-16T15:20:27Z</time>
      </trkpt>
      <trkpt lat="44.8789" lon="1.81186">
        <ele>217.4</ele>
        <time>2021-08-16T15:20:36Z</time>
      </trkpt>
      <trkpt lat="44.87891" lon="1.81178">
        <ele>218.84</ele>
        <time>2021-08-16T15:20:44Z</time>
      </trkpt>
      <trkpt lat="44.8789" lon="1.81169">
        <ele>219.32</ele>
        <time>2021-08-16T15:20:52Z</time>
      </trkpt>
      <trkpt lat="44.87889" lon="1.81158">
        <ele>221.24</ele>
        <time>2021-08-16T15:21:03Z</time>
      </trkpt>
      <trkpt lat="44.87884" lon="1.81147">
        <ele>223.16</ele>
        <time>2021-08-16T15:21:12Z</time>
      </trkpt>
      <trkpt lat="44.87884" lon="1.8114">
        <ele>224.12</ele>
        <time>2021-08-16T15:21:20Z</time>
      </trkpt>
      <trkpt lat="44.87883" lon="1.81135">
        <ele>224.61</ele>
        <time>2021-08-16T15:21:33Z</time>
      </trkpt>
      <trkpt lat="44.87881" lon="1.81121">
        <ele>226.05</ele>
        <time>2021-08-16T15:21:41Z</time>
      </trkpt>
      <trkpt lat="44.87882" lon="1.81119">
        <ele>226.05</ele>
        <time>2021-08-16T15:21:42Z</time>
      </trkpt>
      <trkpt lat="44.87882" lon="1.81116">
        <ele>226.05</ele>
        <time>2021-08-16T15:21:44Z</time>
      </trkpt>
      <trkpt lat="44.87883" lon="1.81112">
        <ele>226.53</ele>
        <time>2021-08-16T15:21:46Z</time>
      </trkpt>
      <trkpt lat="44.87881" lon="1.811">
        <ele>227.97</ele>
        <time>2021-08-16T15:21:55Z</time>
      </trkpt>
      <trkpt lat="44.8788" lon="1.81088">
        <ele>229.41</ele>
        <time>2021-08-16T15:22:05Z</time>
      </trkpt>
      <trkpt lat="44.87879" lon="1.81074">
        <ele>231.81</ele>
        <time>2021-08-16T15:22:17Z</time>
      </trkpt>
      <trkpt lat="44.87879" lon="1.81059">
        <ele>233.26</ele>
        <time>2021-08-16T15:22:29Z</time>
      </trkpt>
      <trkpt lat="44.87875" lon="1.81044">
        <ele>234.7</ele>
        <time>2021-08-16T15:22:39Z</time>
      </trkpt>
      <trkpt lat="44.8787" lon="1.81037">
        <ele>236.14</ele>
        <time>2021-08-16T15:22:47Z</time>
      </trkpt>
      <trkpt lat="44.87858" lon="1.81032">
        <ele>237.58</ele>
        <time>2021-08-16T15:22:58Z</time>
      </trkpt>
      <trkpt lat="44.87844" lon="1.8103">
        <ele>239.02</ele>
        <time>2021-08-16T15:23:09Z</time>
      </trkpt>
      <trkpt lat="44.87839" lon="1.81029">
        <ele>239.99</ele>
        <time>2021-08-16T15:23:17Z</time>
      </trkpt>
      <trkpt lat="44.87834" lon="1.81029">
        <ele>239.99</ele>
        <time>2021-08-16T15:23:22Z</time>
      </trkpt>
      <trkpt lat="44.87821" lon="1.81026">
        <ele>241.43</ele>
        <time>2021-08-16T15:23:30Z</time>
      </trkpt>
      <trkpt lat="44.87811" lon="1.81018">
        <ele>242.39</ele>
        <time>2021-08-16T15:23:38Z</time>
      </trkpt>
      <trkpt lat="44.878" lon="1.8101">
        <ele>243.35</ele>
        <time>2021-08-16T15:23:47Z</time>
      </trkpt>
      <trkpt lat="44.87795" lon="1.81005">
        <ele>243.83</ele>
        <time>2021-08-16T15:23:51Z</time>
      </trkpt>
      <trkpt lat="44.87793" lon="1.81004">
        <ele>243.83</ele>
        <time>2021-08-16T15:23:53Z</time>
      </trkpt>
      <trkpt lat="44.87792" lon="1.81004">
        <ele>243.83</ele>
        <time>2021-08-16T15:23:54Z</time>
      </trkpt>
      <trkpt lat="44.8779" lon="1.81004">
        <ele>244.31</ele>
        <time>2021-08-16T15:23:55Z</time>
      </trkpt>
      <trkpt lat="44.87789" lon="1.81003">
        <ele>244.31</ele>
        <time>2021-08-16T15:23:56Z</time>
      </trkpt>
      <trkpt lat="44.87788" lon="1.81002">
        <ele>244.31</ele>
        <time>2021-08-16T15:23:57Z</time>
      </trkpt>
      <trkpt lat="44.87788" lon="1.81">
        <ele>244.79</ele>
        <time>2021-08-16T15:23:58Z</time>
      </trkpt>
      <trkpt lat="44.87787" lon="1.80999">
        <ele>244.79</ele>
        <time>2021-08-16T15:23:59Z</time>
      </trkpt>
      <trkpt lat="44.87786" lon="1.80998">
        <ele>245.27</ele>
        <time>2021-08-16T15:24:00Z</time>
      </trkpt>
      <trkpt lat="44.87785" lon="1.80997">
        <ele>245.27</ele>
        <time>2021-08-16T15:24:01Z</time>
      </trkpt>
      <trkpt lat="44.87775" lon="1.80988">
        <ele>246.23</ele>
        <time>2021-08-16T15:24:10Z</time>
      </trkpt>
      <trkpt lat="44.87769" lon="1.80983">
        <ele>246.72</ele>
        <time>2021-08-16T15:24:15Z</time>
      </trkpt>
      <trkpt lat="44.87759" lon="1.80972">
        <ele>247.68</ele>
        <time>2021-08-16T15:24:23Z</time>
      </trkpt>
      <trkpt lat="44.87741" lon="1.80959">
        <ele>249.12</ele>
        <time>2021-08-16T15:24:34Z</time>
      </trkpt>
      <trkpt lat="44.87725" lon="1.80953">
        <ele>250.08</ele>
        <time>2021-08-16T15:24:42Z</time>
      </trkpt>
      <trkpt lat="44.87702" lon="1.80949">
        <ele>251.52</ele>
        <time>2021-08-16T15:24:52Z</time>
      </trkpt>
      <trkpt lat="44.87678" lon="1.80945">
        <ele>252</ele>
        <time>2021-08-16T15:25:01Z</time>
      </trkpt>
      <trkpt lat="44.87654" lon="1.80942">
        <ele>252.48</ele>
        <time>2021-08-16T15:25:09Z</time>
      </trkpt>
      <trkpt lat="44.87623" lon="1.80938">
        <ele>253.44</ele>
        <time>2021-08-16T15:25:20Z</time>
      </trkpt>
      <trkpt lat="44.87608" lon="1.80935">
        <ele>253.93</ele>
        <time>2021-08-16T15:25:28Z</time>
      </trkpt>
      <trkpt lat="44.87594" lon="1.8093">
        <ele>253.93</ele>
        <time>2021-08-16T15:25:34Z</time>
      </trkpt>
      <trkpt lat="44.87592" lon="1.80927">
        <ele>253.93</ele>
        <time>2021-08-16T15:25:35Z</time>
      </trkpt>
      <trkpt lat="44.8759" lon="1.80923">
        <ele>253.93</ele>
        <time>2021-08-16T15:25:36Z</time>
      </trkpt>
      <trkpt lat="44.87589" lon="1.80919">
        <ele>253.93</ele>
        <time>2021-08-16T15:25:37Z</time>
      </trkpt>
      <trkpt lat="44.87588" lon="1.80915">
        <ele>253.93</ele>
        <time>2021-08-16T15:25:38Z</time>
      </trkpt>
      <trkpt lat="44.87586" lon="1.8091">
        <ele>253.93</ele>
        <time>2021-08-16T15:25:39Z</time>
      </trkpt>
      <trkpt lat="44.87568" lon="1.80877">
        <ele>253.93</ele>
        <time>2021-08-16T15:25:47Z</time>
      </trkpt>
      <trkpt lat="44.87559" lon="1.80847">
        <ele>253.93</ele>
        <time>2021-08-16T15:25:53Z</time>
      </trkpt>
      <trkpt lat="44.87557" lon="1.80797">
        <ele>254.41</ele>
        <time>2021-08-16T15:26:02Z</time>
      </trkpt>
      <trkpt lat="44.87556" lon="1.80768">
        <ele>254.89</ele>
        <time>2021-08-16T15:26:08Z</time>
      </trkpt>
      <trkpt lat="44.87548" lon="1.8075">
        <ele>255.85</ele>
        <time>2021-08-16T15:26:14Z</time>
      </trkpt>
      <trkpt lat="44.87541" lon="1.80734">
        <ele>257.29</ele>
        <time>2021-08-16T15:26:21Z</time>
      </trkpt>
      <trkpt lat="44.87534" lon="1.80714">
        <ele>258.25</ele>
        <time>2021-08-16T15:26:29Z</time>
      </trkpt>
      <trkpt lat="44.87532" lon="1.80696">
        <ele>260.17</ele>
        <time>2021-08-16T15:26:37Z</time>
      </trkpt>
      <trkpt lat="44.87531" lon="1.8067">
        <ele>260.65</ele>
        <time>2021-08-16T15:26:46Z</time>
      </trkpt>
      <trkpt lat="44.87527" lon="1.80645">
        <ele>262.58</ele>
        <time>2021-08-16T15:26:56Z</time>
      </trkpt>
      <trkpt lat="44.87523" lon="1.80638">
        <ele>263.54</ele>
        <time>2021-08-16T15:27:03Z</time>
      </trkpt>
      <trkpt lat="44.87519" lon="1.8063">
        <ele>264.5</ele>
        <time>2021-08-16T15:27:12Z</time>
      </trkpt>
      <trkpt lat="44.87512" lon="1.80621">
        <ele>266.42</ele>
        <time>2021-08-16T15:27:23Z</time>
      </trkpt>
      <trkpt lat="44.87506" lon="1.80616">
        <ele>267.38</ele>
        <time>2021-08-16T15:27:32Z</time>
      </trkpt>
      <trkpt lat="44.87501" lon="1.80611">
        <ele>268.83</ele>
        <time>2021-08-16T15:27:40Z</time>
      </trkpt>
      <trkpt lat="44.87493" lon="1.80604">
        <ele>270.27</ele>
        <time>2021-08-16T15:27:51Z</time>
      </trkpt>
      <trkpt lat="44.87488" lon="1.806">
        <ele>271.23</ele>
        <time>2021-08-16T15:27:58Z</time>
      </trkpt>
      <trkpt lat="44.87482" lon="1.80595">
        <ele>272.67</ele>
        <time>2021-08-16T15:28:07Z</time>
      </trkpt>
      <trkpt lat="44.87477" lon="1.80588">
        <ele>274.11</ele>
        <time>2021-08-16T15:28:16Z</time>
      </trkpt>
      <trkpt lat="44.87469" lon="1.80581">
        <ele>275.56</ele>
        <time>2021-08-16T15:28:27Z</time>
      </trkpt>
      <trkpt lat="44.87465" lon="1.80576">
        <ele>276.52</ele>
        <time>2021-08-16T15:28:34Z</time>
      </trkpt>
      <trkpt lat="44.87459" lon="1.80568">
        <ele>277.96</ele>
        <time>2021-08-16T15:28:43Z</time>
      </trkpt>
      <trkpt lat="44.87455" lon="1.80563">
        <ele>278.92</ele>
        <time>2021-08-16T15:28:50Z</time>
      </trkpt>
      <trkpt lat="44.87451" lon="1.80556">
        <ele>279.88</ele>
        <time>2021-08-16T15:28:57Z</time>
      </trkpt>
      <trkpt lat="44.87447" lon="1.8055">
        <ele>280.84</ele>
        <time>2021-08-16T15:29:05Z</time>
      </trkpt>
      <trkpt lat="44.87441" lon="1.80542">
        <ele>282.77</ele>
        <time>2021-08-16T15:29:14Z</time>
      </trkpt>
      <trkpt lat="44.87438" lon="1.80534">
        <ele>283.73</ele>
        <time>2021-08-16T15:29:22Z</time>
      </trkpt>
      <trkpt lat="44.87433" lon="1.80524">
        <ele>284.69</ele>
        <time>2021-08-16T15:29:30Z</time>
      </trkpt>
      <trkpt lat="44.87429" lon="1.80514">
        <ele>285.65</ele>
        <time>2021-08-16T15:29:39Z</time>
      </trkpt>
      <trkpt lat="44.87425" lon="1.80507">
        <ele>286.13</ele>
        <time>2021-08-16T15:29:46Z</time>
      </trkpt>
      <trkpt lat="44.87418" lon="1.80495">
        <ele>287.09</ele>
        <time>2021-08-16T15:29:53Z</time>
      </trkpt>
      <trkpt lat="44.87417" lon="1.80494">
        <ele>287.09</ele>
        <time>2021-08-16T15:29:54Z</time>
      </trkpt>
      <trkpt lat="44.87416" lon="1.80493">
        <ele>287.09</ele>
        <time>2021-08-16T15:29:55Z</time>
      </trkpt>
      <trkpt lat="44.87415" lon="1.80491">
        <ele>287.57</ele>
        <time>2021-08-16T15:29:56Z</time>
      </trkpt>
      <trkpt lat="44.87414" lon="1.8049">
        <ele>287.57</ele>
        <time>2021-08-16T15:29:57Z</time>
      </trkpt>
      <trkpt lat="44.87413" lon="1.80488">
        <ele>287.57</ele>
        <time>2021-08-16T15:29:58Z</time>
      </trkpt>
      <trkpt lat="44.87412" lon="1.80487">
        <ele>287.57</ele>
        <time>2021-08-16T15:29:59Z</time>
      </trkpt>
      <trkpt lat="44.87402" lon="1.80475">
        <ele>288.53</ele>
        <time>2021-08-16T15:30:08Z</time>
      </trkpt>
      <trkpt lat="44.87387" lon="1.80464">
        <ele>289.97</ele>
        <time>2021-08-16T15:30:18Z</time>
      </trkpt>
      <trkpt lat="44.87376" lon="1.80458">
        <ele>291.9</ele>
        <time>2021-08-16T15:30:27Z</time>
      </trkpt>
      <trkpt lat="44.87366" lon="1.80453">
        <ele>293.34</ele>
        <time>2021-08-16T15:30:35Z</time>
      </trkpt>
      <trkpt lat="44.8736" lon="1.80452">
        <ele>294.78</ele>
        <time>2021-08-16T15:30:42Z</time>
      </trkpt>
      <trkpt lat="44.87353" lon="1.80449">
        <ele>295.74</ele>
        <time>2021-08-16T15:30:50Z</time>
      </trkpt>
      <trkpt lat="44.87342" lon="1.80443">
        <ele>297.18</ele>
        <time>2021-08-16T15:31:00Z</time>
      </trkpt>
      <trkpt lat="44.87334" lon="1.80435">
        <ele>298.63</ele>
        <time>2021-08-16T15:31:11Z</time>
      </trkpt>
      <trkpt lat="44.87328" lon="1.80429">
        <ele>299.59</ele>
        <time>2021-08-16T15:31:18Z</time>
      </trkpt>
      <trkpt lat="44.87324" lon="1.80425">
        <ele>300.07</ele>
        <time>2021-08-16T15:31:25Z</time>
      </trkpt>
      <trkpt lat="44.87323" lon="1.80423">
        <ele>300.07</ele>
        <time>2021-08-16T15:31:27Z</time>
      </trkpt>
      <trkpt lat="44.87322" lon="1.80421">
        <ele>300.55</ele>
        <time>2021-08-16T15:31:28Z</time>
      </trkpt>
      <trkpt lat="44.8732" lon="1.80419">
        <ele>300.55</ele>
        <time>2021-08-16T15:31:29Z</time>
      </trkpt>
      <trkpt lat="44.87319" lon="1.80418">
        <ele>300.55</ele>
        <time>2021-08-16T15:31:30Z</time>
      </trkpt>
      <trkpt lat="44.87318" lon="1.80416">
        <ele>301.03</ele>
        <time>2021-08-16T15:31:31Z</time>
      </trkpt>
      <trkpt lat="44.87317" lon="1.80415">
        <ele>301.03</ele>
        <time>2021-08-16T15:31:32Z</time>
      </trkpt>
      <trkpt lat="44.87316" lon="1.80412">
        <ele>301.03</ele>
        <time>2021-08-16T15:31:33Z</time>
      </trkpt>
      <trkpt lat="44.87315" lon="1.8041">
        <ele>301.03</ele>
        <time>2021-08-16T15:31:34Z</time>
      </trkpt>
      <trkpt lat="44.87314" lon="1.80408">
        <ele>301.03</ele>
        <time>2021-08-16T15:31:35Z</time>
      </trkpt>
      <trkpt lat="44.87312" lon="1.80406">
        <ele>301.51</ele>
        <time>2021-08-16T15:31:36Z</time>
      </trkpt>
      <trkpt lat="44.87311" lon="1.80405">
        <ele>301.51</ele>
        <time>2021-08-16T15:31:37Z</time>
      </trkpt>
      <trkpt lat="44.8731" lon="1.80403">
        <ele>301.51</ele>
        <time>2021-08-16T15:31:38Z</time>
      </trkpt>
      <trkpt lat="44.87308" lon="1.80401">
        <ele>301.51</ele>
        <time>2021-08-16T15:31:39Z</time>
      </trkpt>
      <trkpt lat="44.87295" lon="1.80385">
        <ele>303.43</ele>
        <time>2021-08-16T15:31:49Z</time>
      </trkpt>
      <trkpt lat="44.87282" lon="1.80375">
        <ele>304.88</ele>
        <time>2021-08-16T15:31:59Z</time>
      </trkpt>
      <trkpt lat="44.87269" lon="1.80366">
        <ele>306.32</ele>
        <time>2021-08-16T15:32:08Z</time>
      </trkpt>
      <trkpt lat="44.87258" lon="1.8036">
        <ele>307.28</ele>
        <time>2021-08-16T15:32:16Z</time>
      </trkpt>
      <trkpt lat="44.87246" lon="1.80352">
        <ele>309.2</ele>
        <time>2021-08-16T15:32:25Z</time>
      </trkpt>
      <trkpt lat="44.87239" lon="1.80349">
        <ele>309.68</ele>
        <time>2021-08-16T15:32:29Z</time>
      </trkpt>
      <trkpt lat="44.87237" lon="1.80349">
        <ele>309.68</ele>
        <time>2021-08-16T15:32:30Z</time>
      </trkpt>
      <trkpt lat="44.87236" lon="1.80348">
        <ele>310.16</ele>
        <time>2021-08-16T15:32:31Z</time>
      </trkpt>
      <trkpt lat="44.87235" lon="1.80347">
        <ele>310.16</ele>
        <time>2021-08-16T15:32:32Z</time>
      </trkpt>
      <trkpt lat="44.87225" lon="1.80342">
        <ele>312.57</ele>
        <time>2021-08-16T15:32:41Z</time>
      </trkpt>
      <trkpt lat="44.87222" lon="1.80341">
        <ele>312.57</ele>
        <time>2021-08-16T15:32:43Z</time>
      </trkpt>
      <trkpt lat="44.8722" lon="1.80341">
        <ele>313.05</ele>
        <time>2021-08-16T15:32:45Z</time>
      </trkpt>
      <trkpt lat="44.87219" lon="1.80341">
        <ele>313.05</ele>
        <time>2021-08-16T15:32:46Z</time>
      </trkpt>
      <trkpt lat="44.87217" lon="1.8034">
        <ele>313.05</ele>
        <time>2021-08-16T15:32:47Z</time>
      </trkpt>
      <trkpt lat="44.87212" lon="1.80337">
        <ele>314.49</ele>
        <time>2021-08-16T15:32:52Z</time>
      </trkpt>
      <trkpt lat="44.87211" lon="1.80338">
        <ele>314.49</ele>
        <time>2021-08-16T15:32:53Z</time>
      </trkpt>
      <trkpt lat="44.87202" lon="1.80341">
        <ele>316.41</ele>
        <time>2021-08-16T15:33:01Z</time>
      </trkpt>
      <trkpt lat="44.87199" lon="1.80345">
        <ele>317.37</ele>
        <time>2021-08-16T15:33:05Z</time>
      </trkpt>
      <trkpt lat="44.87198" lon="1.80347">
        <ele>317.37</ele>
        <time>2021-08-16T15:33:06Z</time>
      </trkpt>
      <trkpt lat="44.87198" lon="1.80348">
        <ele>317.85</ele>
        <time>2021-08-16T15:33:07Z</time>
      </trkpt>
      <trkpt lat="44.87197" lon="1.8035">
        <ele>317.85</ele>
        <time>2021-08-16T15:33:09Z</time>
      </trkpt>
      <trkpt lat="44.87193" lon="1.8036">
        <ele>319.3</ele>
        <time>2021-08-16T15:33:16Z</time>
      </trkpt>
      <trkpt lat="44.87193" lon="1.80361">
        <ele>319.3</ele>
        <time>2021-08-16T15:33:17Z</time>
      </trkpt>
      <trkpt lat="44.87192" lon="1.80363">
        <ele>319.78</ele>
        <time>2021-08-16T15:33:18Z</time>
      </trkpt>
      <trkpt lat="44.87192" lon="1.80364">
        <ele>319.78</ele>
        <time>2021-08-16T15:33:19Z</time>
      </trkpt>
      <trkpt lat="44.87191" lon="1.80366">
        <ele>319.78</ele>
        <time>2021-08-16T15:33:20Z</time>
      </trkpt>
      <trkpt lat="44.87188" lon="1.80379">
        <ele>321.7</ele>
        <time>2021-08-16T15:33:29Z</time>
      </trkpt>
      <trkpt lat="44.87185" lon="1.80386">
        <ele>322.66</ele>
        <time>2021-08-16T15:33:34Z</time>
      </trkpt>
      <trkpt lat="44.87179" lon="1.80394">
        <ele>324.58</ele>
        <time>2021-08-16T15:33:41Z</time>
      </trkpt>
      <trkpt lat="44.87168" lon="1.80402">
        <ele>326.5</ele>
        <time>2021-08-16T15:33:50Z</time>
      </trkpt>
      <trkpt lat="44.87163" lon="1.80408">
        <ele>327.47</ele>
        <time>2021-08-16T15:33:56Z</time>
      </trkpt>
      <trkpt lat="44.8716" lon="1.80411">
        <ele>327.47</ele>
        <time>2021-08-16T15:33:58Z</time>
      </trkpt>
      <trkpt lat="44.87157" lon="1.80413">
        <ele>327.47</ele>
        <time>2021-08-16T15:34:00Z</time>
      </trkpt>
      <trkpt lat="44.87155" lon="1.80414">
        <ele>327.95</ele>
        <time>2021-08-16T15:34:01Z</time>
      </trkpt>
      <trkpt lat="44.87154" lon="1.80416">
        <ele>327.47</ele>
        <time>2021-08-16T15:34:02Z</time>
      </trkpt>
      <trkpt lat="44.87153" lon="1.80417">
        <ele>327.95</ele>
        <time>2021-08-16T15:34:03Z</time>
      </trkpt>
      <trkpt lat="44.87152" lon="1.80419">
        <ele>327.95</ele>
        <time>2021-08-16T15:34:04Z</time>
      </trkpt>
      <trkpt lat="44.8715" lon="1.8042">
        <ele>328.43</ele>
        <time>2021-08-16T15:34:05Z</time>
      </trkpt>
      <trkpt lat="44.87149" lon="1.8042">
        <ele>328.43</ele>
        <time>2021-08-16T15:34:06Z</time>
      </trkpt>
      <trkpt lat="44.87148" lon="1.80421">
        <ele>328.43</ele>
        <time>2021-08-16T15:34:07Z</time>
      </trkpt>
      <trkpt lat="44.87146" lon="1.80421">
        <ele>328.43</ele>
        <time>2021-08-16T15:34:08Z</time>
      </trkpt>
      <trkpt lat="44.87145" lon="1.80422">
        <ele>328.43</ele>
        <time>2021-08-16T15:34:09Z</time>
      </trkpt>
      <trkpt lat="44.87139" lon="1.80429">
        <ele>328.91</ele>
        <time>2021-08-16T15:34:15Z</time>
      </trkpt>
      <trkpt lat="44.87139" lon="1.80434">
        <ele>328.91</ele>
        <time>2021-08-16T15:34:20Z</time>
      </trkpt>
      <trkpt lat="44.87139" lon="1.80435">
        <ele>329.39</ele>
        <time>2021-08-16T15:34:28Z</time>
      </trkpt>
      <trkpt lat="44.87139" lon="1.80436">
        <ele>329.39</ele>
        <time>2021-08-16T15:34:36Z</time>
      </trkpt>
      <trkpt lat="44.87138" lon="1.80431">
        <ele>329.39</ele>
        <time>2021-08-16T15:34:55Z</time>
      </trkpt>
      <trkpt lat="44.87139" lon="1.80424">
        <ele>329.39</ele>
        <time>2021-08-16T15:35:11Z</time>
      </trkpt>
      <trkpt lat="44.87141" lon="1.80421">
        <ele>329.39</ele>
        <time>2021-08-16T15:35:27Z</time>
      </trkpt>
      <trkpt lat="44.87143" lon="1.8042">
        <ele>329.39</ele>
        <time>2021-08-16T15:35:42Z</time>
      </trkpt>
      <trkpt lat="44.87144" lon="1.80423">
        <ele>329.39</ele>
        <time>2021-08-16T15:35:55Z</time>
      </trkpt>
      <trkpt lat="44.87143" lon="1.80424">
        <ele>329.87</ele>
        <time>2021-08-16T15:36:06Z</time>
      </trkpt>
      <trkpt lat="44.87142" lon="1.80422">
        <ele>329.87</ele>
        <time>2021-08-16T15:36:22Z</time>
      </trkpt>
      <trkpt lat="44.87141" lon="1.80425">
        <ele>329.87</ele>
        <time>2021-08-16T15:36:40Z</time>
      </trkpt>
      <trkpt lat="44.87141" lon="1.80426">
        <ele>329.87</ele>
        <time>2021-08-16T15:36:53Z</time>
      </trkpt>
      <trkpt lat="44.87139" lon="1.80425">
        <ele>329.87</ele>
        <time>2021-08-16T15:37:10Z</time>
      </trkpt>
      <trkpt lat="44.87139" lon="1.80428">
        <ele>329.87</ele>
        <time>2021-08-16T15:37:24Z</time>
      </trkpt>
      <trkpt lat="44.87139" lon="1.80428">
        <ele>329.87</ele>
        <time>2021-08-16T15:37:39Z</time>
      </trkpt>
      <trkpt lat="44.8714" lon="1.80427">
        <ele>330.35</ele>
        <time>2021-08-16T15:37:52Z</time>
      </trkpt>
      <trkpt lat="44.8714" lon="1.80427">
        <ele>330.35</ele>
        <time>2021-08-16T15:38:07Z</time>
      </trkpt>
      <trkpt lat="44.8714" lon="1.80424">
        <ele>330.35</ele>
        <time>2021-08-16T15:38:27Z</time>
      </trkpt>
      <trkpt lat="44.8714" lon="1.80425">
        <ele>330.35</ele>
        <time>2021-08-16T15:38:43Z</time>
      </trkpt>
      <trkpt lat="44.8714" lon="1.80426">
        <ele>330.35</ele>
        <time>2021-08-16T15:38:50Z</time>
      </trkpt>
      <trkpt lat="44.8714" lon="1.80425">
        <ele>330.35</ele>
        <time>2021-08-16T15:38:56Z</time>
      </trkpt>
      <trkpt lat="44.87139" lon="1.80426">
        <ele>330.35</ele>
        <time>2021-08-16T15:39:09Z</time>
      </trkpt>
      <trkpt lat="44.87139" lon="1.80425">
        <ele>330.83</ele>
        <time>2021-08-16T15:39:24Z</time>
      </trkpt>
      <trkpt lat="44.87139" lon="1.80423">
        <ele>330.83</ele>
        <time>2021-08-16T15:39:44Z</time>
      </trkpt>
      <trkpt lat="44.87139" lon="1.80422">
        <ele>330.83</ele>
        <time>2021-08-16T15:39:56Z</time>
      </trkpt>
      <trkpt lat="44.87138" lon="1.80423">
        <ele>330.83</ele>
        <time>2021-08-16T15:40:10Z</time>
      </trkpt>
      <trkpt lat="44.87139" lon="1.80423">
        <ele>330.83</ele>
        <time>2021-08-16T15:40:25Z</time>
      </trkpt>
      <trkpt lat="44.87138" lon="1.80424">
        <ele>330.83</ele>
        <time>2021-08-16T15:40:42Z</time>
      </trkpt>
      <trkpt lat="44.87138" lon="1.80422">
        <ele>331.31</ele>
        <time>2021-08-16T15:40:57Z</time>
      </trkpt>
      <trkpt lat="44.87138" lon="1.80422">
        <ele>331.31</ele>
        <time>2021-08-16T15:41:13Z</time>
      </trkpt>
      <trkpt lat="44.87138" lon="1.80422">
        <ele>331.31</ele>
        <time>2021-08-16T15:41:26Z</time>
      </trkpt>
      <trkpt lat="44.87137" lon="1.80421">
        <ele>331.31</ele>
        <time>2021-08-16T15:41:44Z</time>
      </trkpt>
      <trkpt lat="44.87137" lon="1.80421">
        <ele>331.79</ele>
        <time>2021-08-16T15:42:01Z</time>
      </trkpt>
      <trkpt lat="44.87136" lon="1.80421">
        <ele>332.27</ele>
        <time>2021-08-16T15:42:14Z</time>
      </trkpt>
      <trkpt lat="44.87137" lon="1.80425">
        <ele>332.27</ele>
        <time>2021-08-16T15:42:30Z</time>
      </trkpt>
      <trkpt lat="44.87139" lon="1.80425">
        <ele>332.27</ele>
        <time>2021-08-16T15:42:45Z</time>
      </trkpt>
      <trkpt lat="44.87139" lon="1.80426">
        <ele>332.27</ele>
        <time>2021-08-16T15:43:01Z</time>
      </trkpt>
      <trkpt lat="44.87138" lon="1.80426">
        <ele>332.27</ele>
        <time>2021-08-16T15:43:15Z</time>
      </trkpt>
      <trkpt lat="44.87138" lon="1.80426">
        <ele>332.27</ele>
        <time>2021-08-16T15:43:28Z</time>
      </trkpt>
      <trkpt lat="44.87138" lon="1.80425">
        <ele>332.75</ele>
        <time>2021-08-16T15:43:41Z</time>
      </trkpt>
      <trkpt lat="44.87138" lon="1.80424">
        <ele>332.75</ele>
        <time>2021-08-16T15:43:56Z</time>
      </trkpt>
      <trkpt lat="44.87137" lon="1.80424">
        <ele>332.75</ele>
        <time>2021-08-16T15:44:06Z</time>
      </trkpt>
      <trkpt lat="44.87137" lon="1.80425">
        <ele>332.75</ele>
        <time>2021-08-16T15:44:13Z</time>
      </trkpt>
      <trkpt lat="44.87136" lon="1.80425">
        <ele>332.75</ele>
        <time>2021-08-16T15:44:27Z</time>
      </trkpt>
      <trkpt lat="44.87137" lon="1.80426">
        <ele>333.23</ele>
        <time>2021-08-16T15:44:41Z</time>
      </trkpt>
      <trkpt lat="44.87138" lon="1.80426">
        <ele>333.23</ele>
        <time>2021-08-16T15:44:53Z</time>
      </trkpt>
      <trkpt lat="44.87139" lon="1.80426">
        <ele>333.23</ele>
        <time>2021-08-16T15:45:08Z</time>
      </trkpt>
      <trkpt lat="44.87138" lon="1.80426">
        <ele>333.23</ele>
        <time>2021-08-16T15:45:20Z</time>
      </trkpt>
      <trkpt lat="44.87138" lon="1.80427">
        <ele>333.23</ele>
        <time>2021-08-16T15:45:30Z</time>
      </trkpt>
      <trkpt lat="44.87137" lon="1.80426">
        <ele>333.71</ele>
        <time>2021-08-16T15:45:45Z</time>
      </trkpt>
      <trkpt lat="44.87136" lon="1.80424">
        <ele>333.71</ele>
        <time>2021-08-16T15:45:58Z</time>
      </trkpt>
      <trkpt lat="44.87137" lon="1.80426">
        <ele>333.71</ele>
        <time>2021-08-16T15:46:08Z</time>
      </trkpt>
      <trkpt lat="44.87136" lon="1.80427">
        <ele>333.71</ele>
        <time>2021-08-16T15:46:19Z</time>
      </trkpt>
      <trkpt lat="44.87137" lon="1.80428">
        <ele>333.71</ele>
        <time>2021-08-16T15:46:32Z</time>
      </trkpt>
      <trkpt lat="44.87138" lon="1.8043">
        <ele>333.71</ele>
        <time>2021-08-16T15:46:43Z</time>
      </trkpt>
      <trkpt lat="44.8714" lon="1.80434">
        <ele>333.71</ele>
        <time>2021-08-16T15:47:02Z</time>
      </trkpt>
      <trkpt lat="44.87141" lon="1.80437">
        <ele>334.2</ele>
        <time>2021-08-16T15:47:16Z</time>
      </trkpt>
      <trkpt lat="44.87141" lon="1.80435">
        <ele>334.2</ele>
        <time>2021-08-16T15:47:29Z</time>
      </trkpt>
      <trkpt lat="44.8714" lon="1.8043">
        <ele>334.2</ele>
        <time>2021-08-16T15:47:40Z</time>
      </trkpt>
      <trkpt lat="44.8714" lon="1.8043">
        <ele>334.2</ele>
        <time>2021-08-16T15:47:55Z</time>
      </trkpt>
      <trkpt lat="44.87141" lon="1.80431">
        <ele>334.2</ele>
        <time>2021-08-16T15:48:06Z</time>
      </trkpt>
      <trkpt lat="44.8714" lon="1.80431">
        <ele>334.2</ele>
        <time>2021-08-16T15:48:18Z</time>
      </trkpt>
      <trkpt lat="44.8714" lon="1.8043">
        <ele>334.2</ele>
        <time>2021-08-16T15:48:28Z</time>
      </trkpt>
      <trkpt lat="44.87141" lon="1.80431">
        <ele>334.68</ele>
        <time>2021-08-16T15:48:37Z</time>
      </trkpt>
      <trkpt lat="44.8714" lon="1.80432">
        <ele>334.68</ele>
        <time>2021-08-16T15:48:48Z</time>
      </trkpt>
      <trkpt lat="44.8714" lon="1.80433">
        <ele>334.68</ele>
        <time>2021-08-16T15:48:57Z</time>
      </trkpt>
      <trkpt lat="44.87139" lon="1.80435">
        <ele>334.68</ele>
        <time>2021-08-16T15:49:12Z</time>
      </trkpt>
      <trkpt lat="44.87139" lon="1.80436">
        <ele>334.68</ele>
        <time>2021-08-16T15:49:29Z</time>
      </trkpt>
      <trkpt lat="44.8714" lon="1.80436">
        <ele>334.68</ele>
        <time>2021-08-16T15:49:45Z</time>
      </trkpt>
      <trkpt lat="44.8714" lon="1.80435">
        <ele>334.68</ele>
        <time>2021-08-16T15:49:55Z</time>
      </trkpt>
      <trkpt lat="44.8714" lon="1.80433">
        <ele>335.16</ele>
        <time>2021-08-16T15:50:11Z</time>
      </trkpt>
      <trkpt lat="44.8714" lon="1.80432">
        <ele>335.16</ele>
        <time>2021-08-16T15:50:25Z</time>
      </trkpt>
      <trkpt lat="44.87139" lon="1.8043">
        <ele>335.16</ele>
        <time>2021-08-16T15:50:38Z</time>
      </trkpt>
      <trkpt lat="44.87139" lon="1.80429">
        <ele>335.16</ele>
        <time>2021-08-16T15:50:48Z</time>
      </trkpt>
      <trkpt lat="44.87139" lon="1.8043">
        <ele>335.64</ele>
        <time>2021-08-16T15:51:04Z</time>
      </trkpt>
      <trkpt lat="44.8714" lon="1.80431">
        <ele>335.64</ele>
        <time>2021-08-16T15:51:16Z</time>
      </trkpt>
      <trkpt lat="44.87141" lon="1.80435">
        <ele>335.64</ele>
        <time>2021-08-16T15:51:29Z</time>
      </trkpt>
      <trkpt lat="44.87142" lon="1.80436">
        <ele>336.12</ele>
        <time>2021-08-16T15:51:40Z</time>
      </trkpt>
      <trkpt lat="44.87142" lon="1.80435">
        <ele>336.12</ele>
        <time>2021-08-16T15:51:52Z</time>
      </trkpt>
      <trkpt lat="44.87141" lon="1.80433">
        <ele>336.12</ele>
        <time>2021-08-16T15:52:06Z</time>
      </trkpt>
      <trkpt lat="44.87141" lon="1.80433">
        <ele>336.6</ele>
        <time>2021-08-16T15:52:19Z</time>
      </trkpt>
      <trkpt lat="44.87141" lon="1.80433">
        <ele>336.6</ele>
        <time>2021-08-16T15:52:31Z</time>
      </trkpt>
      <trkpt lat="44.87138" lon="1.80429">
        <ele>336.6</ele>
        <time>2021-08-16T15:52:46Z</time>
      </trkpt>
      <trkpt lat="44.87137" lon="1.80429">
        <ele>336.6</ele>
        <time>2021-08-16T15:52:59Z</time>
      </trkpt>
      <trkpt lat="44.87138" lon="1.8043">
        <ele>337.08</ele>
        <time>2021-08-16T15:53:13Z</time>
      </trkpt>
      <trkpt lat="44.87138" lon="1.80431">
        <ele>337.08</ele>
        <time>2021-08-16T15:53:28Z</time>
      </trkpt>
      <trkpt lat="44.87139" lon="1.80433">
        <ele>337.08</ele>
        <time>2021-08-16T15:53:40Z</time>
      </trkpt>
      <trkpt lat="44.87138" lon="1.80436">
        <ele>337.56</ele>
        <time>2021-08-16T15:53:59Z</time>
      </trkpt>
      <trkpt lat="44.87136" lon="1.80431">
        <ele>337.56</ele>
        <time>2021-08-16T15:54:16Z</time>
      </trkpt>
      <trkpt lat="44.87136" lon="1.8043">
        <ele>337.56</ele>
        <time>2021-08-16T15:54:34Z</time>
      </trkpt>
      <trkpt lat="44.87135" lon="1.80431">
        <ele>338.04</ele>
        <time>2021-08-16T15:54:49Z</time>
      </trkpt>
      <trkpt lat="44.87137" lon="1.8043">
        <ele>338.04</ele>
        <time>2021-08-16T15:55:01Z</time>
      </trkpt>
      <trkpt lat="44.87137" lon="1.80433">
        <ele>338.04</ele>
        <time>2021-08-16T15:55:16Z</time>
      </trkpt>
      <trkpt lat="44.87138" lon="1.80436">
        <ele>338.04</ele>
        <time>2021-08-16T15:55:32Z</time>
      </trkpt>
      <trkpt lat="44.87137" lon="1.80436">
        <ele>338.04</ele>
        <time>2021-08-16T15:55:44Z</time>
      </trkpt>
      <trkpt lat="44.87137" lon="1.80436">
        <ele>338.52</ele>
        <time>2021-08-16T15:56:00Z</time>
      </trkpt>
      <trkpt lat="44.87137" lon="1.80435">
        <ele>338.52</ele>
        <time>2021-08-16T15:56:14Z</time>
      </trkpt>
      <trkpt lat="44.87136" lon="1.80433">
        <ele>338.52</ele>
        <time>2021-08-16T15:56:25Z</time>
      </trkpt>
      <trkpt lat="44.87138" lon="1.80433">
        <ele>338.52</ele>
        <time>2021-08-16T15:56:38Z</time>
      </trkpt>
      <trkpt lat="44.87135" lon="1.80436">
        <ele>338.52</ele>
        <time>2021-08-16T15:56:54Z</time>
      </trkpt>
      <trkpt lat="44.87137" lon="1.80439">
        <ele>338.52</ele>
        <time>2021-08-16T15:57:13Z</time>
      </trkpt>
      <trkpt lat="44.87138" lon="1.8044">
        <ele>338.52</ele>
        <time>2021-08-16T15:57:28Z</time>
      </trkpt>
      <trkpt lat="44.87138" lon="1.8044">
        <ele>338.52</ele>
        <time>2021-08-16T15:57:39Z</time>
      </trkpt>
      <trkpt lat="44.87138" lon="1.80436">
        <ele>338.52</ele>
        <time>2021-08-16T15:57:52Z</time>
      </trkpt>
      <trkpt lat="44.87139" lon="1.80436">
        <ele>338.52</ele>
        <time>2021-08-16T15:58:04Z</time>
      </trkpt>
      <trkpt lat="44.87139" lon="1.80436">
        <ele>338.52</ele>
        <time>2021-08-16T15:58:14Z</time>
      </trkpt>
      <trkpt lat="44.87138" lon="1.80432">
        <ele>338.52</ele>
        <time>2021-08-16T15:58:26Z</time>
      </trkpt>
      <trkpt lat="44.87137" lon="1.80431">
        <ele>338.52</ele>
        <time>2021-08-16T15:58:37Z</time>
      </trkpt>
      <trkpt lat="44.87139" lon="1.80433">
        <ele>338.52</ele>
        <time>2021-08-16T15:58:50Z</time>
      </trkpt>
      <trkpt lat="44.87141" lon="1.80433">
        <ele>338.52</ele>
        <time>2021-08-16T15:59:02Z</time>
      </trkpt>
      <trkpt lat="44.87141" lon="1.80433">
        <ele>338.52</ele>
        <time>2021-08-16T15:59:14Z</time>
      </trkpt>
      <trkpt lat="44.8714" lon="1.80432">
        <ele>338.52</ele>
        <time>2021-08-16T15:59:22Z</time>
      </trkpt>
      <trkpt lat="44.87139" lon="1.80432">
        <ele>338.52</ele>
        <time>2021-08-16T15:59:28Z</time>
      </trkpt>
      <trkpt lat="44.87138" lon="1.80431">
        <ele>338.52</ele>
        <time>2021-08-16T15:59:30Z</time>
      </trkpt>
      <trkpt lat="44.87137" lon="1.80429">
        <ele>338.52</ele>
        <time>2021-08-16T15:59:31Z</time>
      </trkpt>
      <trkpt lat="44.87137" lon="1.80427">
        <ele>338.52</ele>
        <time>2021-08-16T15:59:32Z</time>
      </trkpt>
      <trkpt lat="44.87139" lon="1.80425">
        <ele>338.52</ele>
        <time>2021-08-16T15:59:33Z</time>
      </trkpt>
      <trkpt lat="44.8714" lon="1.80424">
        <ele>338.52</ele>
        <time>2021-08-16T15:59:34Z</time>
      </trkpt>
      <trkpt lat="44.87141" lon="1.80424">
        <ele>338.52</ele>
        <time>2021-08-16T15:59:35Z</time>
      </trkpt>
      <trkpt lat="44.87143" lon="1.80425">
        <ele>338.52</ele>
        <time>2021-08-16T15:59:36Z</time>
      </trkpt>
      <trkpt lat="44.87145" lon="1.80426">
        <ele>338.52</ele>
        <time>2021-08-16T15:59:37Z</time>
      </trkpt>
      <trkpt lat="44.87147" lon="1.80428">
        <ele>338.52</ele>
        <time>2021-08-16T15:59:38Z</time>
      </trkpt>
      <trkpt lat="44.87147" lon="1.80429">
        <ele>338.52</ele>
        <time>2021-08-16T15:59:39Z</time>
      </trkpt>
      <trkpt lat="44.87148" lon="1.8043">
        <ele>338.52</ele>
        <time>2021-08-16T15:59:40Z</time>
      </trkpt>
      <trkpt lat="44.87149" lon="1.80431">
        <ele>338.52</ele>
        <time>2021-08-16T15:59:41Z</time>
      </trkpt>
      <trkpt lat="44.87151" lon="1.80435">
        <ele>338.52</ele>
        <time>2021-08-16T15:59:45Z</time>
      </trkpt>
      <trkpt lat="44.87151" lon="1.80437">
        <ele>338.52</ele>
        <time>2021-08-16T15:59:46Z</time>
      </trkpt>
      <trkpt lat="44.87151" lon="1.80438">
        <ele>338.52</ele>
        <time>2021-08-16T15:59:47Z</time>
      </trkpt>
      <trkpt lat="44.87152" lon="1.8044">
        <ele>338.52</ele>
        <time>2021-08-16T15:59:48Z</time>
      </trkpt>
      <trkpt lat="44.87155" lon="1.80441">
        <ele>338.52</ele>
        <time>2021-08-16T15:59:53Z</time>
      </trkpt>
      <trkpt lat="44.87153" lon="1.80439">
        <ele>338.52</ele>
        <time>2021-08-16T15:59:58Z</time>
      </trkpt>
      <trkpt lat="44.87152" lon="1.80437">
        <ele>338.52</ele>
        <time>2021-08-16T15:59:59Z</time>
      </trkpt>
      <trkpt lat="44.87151" lon="1.80435">
        <ele>338.52</ele>
        <time>2021-08-16T16:00:00Z</time>
      </trkpt>
      <trkpt lat="44.87151" lon="1.80431">
        <ele>338.52</ele>
        <time>2021-08-16T16:00:01Z</time>
      </trkpt>
      <trkpt lat="44.87152" lon="1.80428">
        <ele>337.56</ele>
        <time>2021-08-16T16:00:02Z</time>
      </trkpt>
      <trkpt lat="44.87154" lon="1.80425">
        <ele>337.56</ele>
        <time>2021-08-16T16:00:03Z</time>
      </trkpt>
      <trkpt lat="44.87157" lon="1.80423">
        <ele>336.6</ele>
        <time>2021-08-16T16:00:04Z</time>
      </trkpt>
      <trkpt lat="44.8716" lon="1.80422">
        <ele>336.6</ele>
        <time>2021-08-16T16:00:05Z</time>
      </trkpt>
      <trkpt lat="44.87162" lon="1.80421">
        <ele>336.6</ele>
        <time>2021-08-16T16:00:06Z</time>
      </trkpt>
      <trkpt lat="44.87166" lon="1.80422">
        <ele>336.6</ele>
        <time>2021-08-16T16:00:07Z</time>
      </trkpt>
      <trkpt lat="44.87168" lon="1.80422">
        <ele>336.6</ele>
        <time>2021-08-16T16:00:08Z</time>
      </trkpt>
      <trkpt lat="44.87171" lon="1.80423">
        <ele>336.6</ele>
        <time>2021-08-16T16:00:09Z</time>
      </trkpt>
      <trkpt lat="44.87179" lon="1.80426">
        <ele>336.6</ele>
        <time>2021-08-16T16:00:12Z</time>
      </trkpt>
      <trkpt lat="44.87183" lon="1.80427">
        <ele>336.6</ele>
        <time>2021-08-16T16:00:13Z</time>
      </trkpt>
      <trkpt lat="44.87185" lon="1.80427">
        <ele>336.6</ele>
        <time>2021-08-16T16:00:14Z</time>
      </trkpt>
      <trkpt lat="44.87202" lon="1.80425">
        <ele>336.12</ele>
        <time>2021-08-16T16:00:20Z</time>
      </trkpt>
      <trkpt lat="44.87204" lon="1.80426">
        <ele>336.12</ele>
        <time>2021-08-16T16:00:21Z</time>
      </trkpt>
      <trkpt lat="44.87206" lon="1.80425">
        <ele>335.64</ele>
        <time>2021-08-16T16:00:22Z</time>
      </trkpt>
      <trkpt lat="44.87207" lon="1.80424">
        <ele>335.64</ele>
        <time>2021-08-16T16:00:23Z</time>
      </trkpt>
      <trkpt lat="44.87207" lon="1.80422">
        <ele>335.64</ele>
        <time>2021-08-16T16:00:24Z</time>
      </trkpt>
      <trkpt lat="44.87206" lon="1.8042">
        <ele>335.64</ele>
        <time>2021-08-16T16:00:25Z</time>
      </trkpt>
      <trkpt lat="44.87205" lon="1.8042">
        <ele>335.64</ele>
        <time>2021-08-16T16:00:26Z</time>
      </trkpt>
      <trkpt lat="44.87203" lon="1.8042">
        <ele>335.64</ele>
        <time>2021-08-16T16:00:27Z</time>
      </trkpt>
      <trkpt lat="44.87201" lon="1.8042">
        <ele>335.64</ele>
        <time>2021-08-16T16:00:28Z</time>
      </trkpt>
      <trkpt lat="44.872" lon="1.8042">
        <ele>335.64</ele>
        <time>2021-08-16T16:00:29Z</time>
      </trkpt>
      <trkpt lat="44.87198" lon="1.8042">
        <ele>335.64</ele>
        <time>2021-08-16T16:00:30Z</time>
      </trkpt>
      <trkpt lat="44.87197" lon="1.8042">
        <ele>335.64</ele>
        <time>2021-08-16T16:00:31Z</time>
      </trkpt>
      <trkpt lat="44.87191" lon="1.80421">
        <ele>335.64</ele>
        <time>2021-08-16T16:00:35Z</time>
      </trkpt>
      <trkpt lat="44.8719" lon="1.80421">
        <ele>335.64</ele>
        <time>2021-08-16T16:00:36Z</time>
      </trkpt>
      <trkpt lat="44.87188" lon="1.8042">
        <ele>335.64</ele>
        <time>2021-08-16T16:00:37Z</time>
      </trkpt>
      <trkpt lat="44.87187" lon="1.80419">
        <ele>335.64</ele>
        <time>2021-08-16T16:00:38Z</time>
      </trkpt>
      <trkpt lat="44.87185" lon="1.80418">
        <ele>335.64</ele>
        <time>2021-08-16T16:00:39Z</time>
      </trkpt>
      <trkpt lat="44.87182" lon="1.80417">
        <ele>335.64</ele>
        <time>2021-08-16T16:00:41Z</time>
      </trkpt>
      <trkpt lat="44.8718" lon="1.80418">
        <ele>335.64</ele>
        <time>2021-08-16T16:00:42Z</time>
      </trkpt>
      <trkpt lat="44.87177" lon="1.80418">
        <ele>335.64</ele>
        <time>2021-08-16T16:00:43Z</time>
      </trkpt>
      <trkpt lat="44.87156" lon="1.80412">
        <ele>335.64</ele>
        <time>2021-08-16T16:00:52Z</time>
      </trkpt>
      <trkpt lat="44.87139" lon="1.80396">
        <ele>335.64</ele>
        <time>2021-08-16T16:00:58Z</time>
      </trkpt>
      <trkpt lat="44.87123" lon="1.80374">
        <ele>335.64</ele>
        <time>2021-08-16T16:01:05Z</time>
      </trkpt>
      <trkpt lat="44.87113" lon="1.80358">
        <ele>335.64</ele>
        <time>2021-08-16T16:01:10Z</time>
      </trkpt>
      <trkpt lat="44.87109" lon="1.80348">
        <ele>335.64</ele>
        <time>2021-08-16T16:01:13Z</time>
      </trkpt>
      <trkpt lat="44.8711" lon="1.80346">
        <ele>335.64</ele>
        <time>2021-08-16T16:01:14Z</time>
      </trkpt>
      <trkpt lat="44.87112" lon="1.80344">
        <ele>335.64</ele>
        <time>2021-08-16T16:01:15Z</time>
      </trkpt>
      <trkpt lat="44.87119" lon="1.80338">
        <ele>335.64</ele>
        <time>2021-08-16T16:01:20Z</time>
      </trkpt>
      <trkpt lat="44.87119" lon="1.80338">
        <ele>337.08</ele>
        <time>2021-08-16T16:01:25Z</time>
      </trkpt>
      <trkpt lat="44.87117" lon="1.80337">
        <ele>337.08</ele>
        <time>2021-08-16T16:01:36Z</time>
      </trkpt>
      <trkpt lat="44.87115" lon="1.80337">
        <ele>337.08</ele>
        <time>2021-08-16T16:01:43Z</time>
      </trkpt>
      <trkpt lat="44.87114" lon="1.80338">
        <ele>337.08</ele>
        <time>2021-08-16T16:01:46Z</time>
      </trkpt>
      <trkpt lat="44.87113" lon="1.8034">
        <ele>337.08</ele>
        <time>2021-08-16T16:01:47Z</time>
      </trkpt>
      <trkpt lat="44.87112" lon="1.80342">
        <ele>337.08</ele>
        <time>2021-08-16T16:01:48Z</time>
      </trkpt>
      <trkpt lat="44.87111" lon="1.80343">
        <ele>337.08</ele>
        <time>2021-08-16T16:01:49Z</time>
      </trkpt>
      <trkpt lat="44.8711" lon="1.80344">
        <ele>337.08</ele>
        <time>2021-08-16T16:01:50Z</time>
      </trkpt>
      <trkpt lat="44.87108" lon="1.80346">
        <ele>336.6</ele>
        <time>2021-08-16T16:01:51Z</time>
      </trkpt>
      <trkpt lat="44.87106" lon="1.80347">
        <ele>336.6</ele>
        <time>2021-08-16T16:01:52Z</time>
      </trkpt>
      <trkpt lat="44.87104" lon="1.80347">
        <ele>336.6</ele>
        <time>2021-08-16T16:01:53Z</time>
      </trkpt>
      <trkpt lat="44.87101" lon="1.80345">
        <ele>336.6</ele>
        <time>2021-08-16T16:01:54Z</time>
      </trkpt>
      <trkpt lat="44.87099" lon="1.80343">
        <ele>336.6</ele>
        <time>2021-08-16T16:01:55Z</time>
      </trkpt>
      <trkpt lat="44.87098" lon="1.80339">
        <ele>336.6</ele>
        <time>2021-08-16T16:01:56Z</time>
      </trkpt>
      <trkpt lat="44.87096" lon="1.80336">
        <ele>336.6</ele>
        <time>2021-08-16T16:01:57Z</time>
      </trkpt>
      <trkpt lat="44.87093" lon="1.80333">
        <ele>336.6</ele>
        <time>2021-08-16T16:01:58Z</time>
      </trkpt>
      <trkpt lat="44.87082" lon="1.80315">
        <ele>337.56</ele>
        <time>2021-08-16T16:02:04Z</time>
      </trkpt>
      <trkpt lat="44.87066" lon="1.80297">
        <ele>339</ele>
        <time>2021-08-16T16:02:13Z</time>
      </trkpt>
      <trkpt lat="44.87053" lon="1.80285">
        <ele>340.44</ele>
        <time>2021-08-16T16:02:21Z</time>
      </trkpt>
      <trkpt lat="44.87037" lon="1.80274">
        <ele>341.41</ele>
        <time>2021-08-16T16:02:31Z</time>
      </trkpt>
      <trkpt lat="44.87021" lon="1.80259">
        <ele>343.81</ele>
        <time>2021-08-16T16:02:41Z</time>
      </trkpt>
      <trkpt lat="44.87005" lon="1.80238">
        <ele>345.73</ele>
        <time>2021-08-16T16:02:52Z</time>
      </trkpt>
      <trkpt lat="44.86997" lon="1.80216">
        <ele>346.21</ele>
        <time>2021-08-16T16:03:01Z</time>
      </trkpt>
      <trkpt lat="44.86998" lon="1.80194">
        <ele>347.17</ele>
        <time>2021-08-16T16:03:09Z</time>
      </trkpt>
      <trkpt lat="44.87001" lon="1.80168">
        <ele>348.62</ele>
        <time>2021-08-16T16:03:18Z</time>
      </trkpt>
      <trkpt lat="44.87003" lon="1.80138">
        <ele>349.1</ele>
        <time>2021-08-16T16:03:26Z</time>
      </trkpt>
      <trkpt lat="44.87002" lon="1.80094">
        <ele>349.58</ele>
        <time>2021-08-16T16:03:36Z</time>
      </trkpt>
      <trkpt lat="44.87" lon="1.80051">
        <ele>350.54</ele>
        <time>2021-08-16T16:03:46Z</time>
      </trkpt>
      <trkpt lat="44.86993" lon="1.8001">
        <ele>351.98</ele>
        <time>2021-08-16T16:03:56Z</time>
      </trkpt>
      <trkpt lat="44.86978" lon="1.79968">
        <ele>352.46</ele>
        <time>2021-08-16T16:04:07Z</time>
      </trkpt>
      <trkpt lat="44.86965" lon="1.79939">
        <ele>354.38</ele>
        <time>2021-08-16T16:04:16Z</time>
      </trkpt>
      <trkpt lat="44.86946" lon="1.79907">
        <ele>356.79</ele>
        <time>2021-08-16T16:04:27Z</time>
      </trkpt>
      <trkpt lat="44.8693" lon="1.79883">
        <ele>358.23</ele>
        <time>2021-08-16T16:04:36Z</time>
      </trkpt>
      <trkpt lat="44.86915" lon="1.79864">
        <ele>359.19</ele>
        <time>2021-08-16T16:04:45Z</time>
      </trkpt>
      <trkpt lat="44.86896" lon="1.79841">
        <ele>359.67</ele>
        <time>2021-08-16T16:04:54Z</time>
      </trkpt>
      <trkpt lat="44.86872" lon="1.79816">
        <ele>359.19</ele>
        <time>2021-08-16T16:05:02Z</time>
      </trkpt>
      <trkpt lat="44.8686" lon="1.79807">
        <ele>359.19</ele>
        <time>2021-08-16T16:05:05Z</time>
      </trkpt>
      <trkpt lat="44.86856" lon="1.79805">
        <ele>359.19</ele>
        <time>2021-08-16T16:05:06Z</time>
      </trkpt>
      <trkpt lat="44.86838" lon="1.79792">
        <ele>358.23</ele>
        <time>2021-08-16T16:05:10Z</time>
      </trkpt>
      <trkpt lat="44.86833" lon="1.79789">
        <ele>358.23</ele>
        <time>2021-08-16T16:05:11Z</time>
      </trkpt>
      <trkpt lat="44.86799" lon="1.79756">
        <ele>358.23</ele>
        <time>2021-08-16T16:05:20Z</time>
      </trkpt>
      <trkpt lat="44.86783" lon="1.79743">
        <ele>358.23</ele>
        <time>2021-08-16T16:05:24Z</time>
      </trkpt>
      <trkpt lat="44.8678" lon="1.7974">
        <ele>358.23</ele>
        <time>2021-08-16T16:05:25Z</time>
      </trkpt>
      <trkpt lat="44.86778" lon="1.79737">
        <ele>358.23</ele>
        <time>2021-08-16T16:05:26Z</time>
      </trkpt>
      <trkpt lat="44.86777" lon="1.79733">
        <ele>358.23</ele>
        <time>2021-08-16T16:05:27Z</time>
      </trkpt>
      <trkpt lat="44.86777" lon="1.7973">
        <ele>358.23</ele>
        <time>2021-08-16T16:05:28Z</time>
      </trkpt>
      <trkpt lat="44.86777" lon="1.79726">
        <ele>358.23</ele>
        <time>2021-08-16T16:05:29Z</time>
      </trkpt>
      <trkpt lat="44.86776" lon="1.79722">
        <ele>358.23</ele>
        <time>2021-08-16T16:05:30Z</time>
      </trkpt>
      <trkpt lat="44.86775" lon="1.79718">
        <ele>358.23</ele>
        <time>2021-08-16T16:05:31Z</time>
      </trkpt>
      <trkpt lat="44.86774" lon="1.79715">
        <ele>358.23</ele>
        <time>2021-08-16T16:05:32Z</time>
      </trkpt>
      <trkpt lat="44.86771" lon="1.79711">
        <ele>358.23</ele>
        <time>2021-08-16T16:05:33Z</time>
      </trkpt>
      <trkpt lat="44.86749" lon="1.79675">
        <ele>358.23</ele>
        <time>2021-08-16T16:05:40Z</time>
      </trkpt>
      <trkpt lat="44.86714" lon="1.79622">
        <ele>358.23</ele>
        <time>2021-08-16T16:05:50Z</time>
      </trkpt>
      <trkpt lat="44.86683" lon="1.79582">
        <ele>357.75</ele>
        <time>2021-08-16T16:05:58Z</time>
      </trkpt>
      <trkpt lat="44.86665" lon="1.79558">
        <ele>357.75</ele>
        <time>2021-08-16T16:06:03Z</time>
      </trkpt>
      <trkpt lat="44.86661" lon="1.79554">
        <ele>357.75</ele>
        <time>2021-08-16T16:06:04Z</time>
      </trkpt>
      <trkpt lat="44.86657" lon="1.79551">
        <ele>357.75</ele>
        <time>2021-08-16T16:06:05Z</time>
      </trkpt>
      <trkpt lat="44.86652" lon="1.79547">
        <ele>357.75</ele>
        <time>2021-08-16T16:06:06Z</time>
      </trkpt>
      <trkpt lat="44.86648" lon="1.79544">
        <ele>357.75</ele>
        <time>2021-08-16T16:06:07Z</time>
      </trkpt>
      <trkpt lat="44.86643" lon="1.79541">
        <ele>357.75</ele>
        <time>2021-08-16T16:06:08Z</time>
      </trkpt>
      <trkpt lat="44.86637" lon="1.79538">
        <ele>357.75</ele>
        <time>2021-08-16T16:06:09Z</time>
      </trkpt>
      <trkpt lat="44.86588" lon="1.79516">
        <ele>356.31</ele>
        <time>2021-08-16T16:06:18Z</time>
      </trkpt>
      <trkpt lat="44.86543" lon="1.79493">
        <ele>356.31</ele>
        <time>2021-08-16T16:06:27Z</time>
      </trkpt>
      <trkpt lat="44.86499" lon="1.79472">
        <ele>356.31</ele>
        <time>2021-08-16T16:06:36Z</time>
      </trkpt>
      <trkpt lat="44.86458" lon="1.79442">
        <ele>355.34</ele>
        <time>2021-08-16T16:06:45Z</time>
      </trkpt>
      <trkpt lat="44.86438" lon="1.79429">
        <ele>354.38</ele>
        <time>2021-08-16T16:06:49Z</time>
      </trkpt>
      <trkpt lat="44.86431" lon="1.79427">
        <ele>353.9</ele>
        <time>2021-08-16T16:06:50Z</time>
      </trkpt>
      <trkpt lat="44.86425" lon="1.79426">
        <ele>353.9</ele>
        <time>2021-08-16T16:06:51Z</time>
      </trkpt>
      <trkpt lat="44.86418" lon="1.79426">
        <ele>352.94</ele>
        <time>2021-08-16T16:06:52Z</time>
      </trkpt>
      <trkpt lat="44.86412" lon="1.79427">
        <ele>352.94</ele>
        <time>2021-08-16T16:06:53Z</time>
      </trkpt>
      <trkpt lat="44.86404" lon="1.79429">
        <ele>352.46</ele>
        <time>2021-08-16T16:06:54Z</time>
      </trkpt>
      <trkpt lat="44.86397" lon="1.7943">
        <ele>352.46</ele>
        <time>2021-08-16T16:06:55Z</time>
      </trkpt>
      <trkpt lat="44.8639" lon="1.7943">
        <ele>351.5</ele>
        <time>2021-08-16T16:06:56Z</time>
      </trkpt>
      <trkpt lat="44.86383" lon="1.79428">
        <ele>351.02</ele>
        <time>2021-08-16T16:06:57Z</time>
      </trkpt>
      <trkpt lat="44.86376" lon="1.79425">
        <ele>351.02</ele>
        <time>2021-08-16T16:06:58Z</time>
      </trkpt>
      <trkpt lat="44.86369" lon="1.7942">
        <ele>350.54</ele>
        <time>2021-08-16T16:06:59Z</time>
      </trkpt>
      <trkpt lat="44.86362" lon="1.79416">
        <ele>350.54</ele>
        <time>2021-08-16T16:07:00Z</time>
      </trkpt>
      <trkpt lat="44.86356" lon="1.79412">
        <ele>350.54</ele>
        <time>2021-08-16T16:07:01Z</time>
      </trkpt>
      <trkpt lat="44.8635" lon="1.79409">
        <ele>350.54</ele>
        <time>2021-08-16T16:07:02Z</time>
      </trkpt>
      <trkpt lat="44.86344" lon="1.79407">
        <ele>351.5</ele>
        <time>2021-08-16T16:07:03Z</time>
      </trkpt>
      <trkpt lat="44.86339" lon="1.79406">
        <ele>352.46</ele>
        <time>2021-08-16T16:07:04Z</time>
      </trkpt>
      <trkpt lat="44.86336" lon="1.79406">
        <ele>353.42</ele>
        <time>2021-08-16T16:07:05Z</time>
      </trkpt>
      <trkpt lat="44.86334" lon="1.79406">
        <ele>353.9</ele>
        <time>2021-08-16T16:07:06Z</time>
      </trkpt>
      <trkpt lat="44.86332" lon="1.79407">
        <ele>354.38</ele>
        <time>2021-08-16T16:07:07Z</time>
      </trkpt>
      <trkpt lat="44.8632" lon="1.7941">
        <ele>356.31</ele>
        <time>2021-08-16T16:07:15Z</time>
      </trkpt>
      <trkpt lat="44.86299" lon="1.79417">
        <ele>358.23</ele>
        <time>2021-08-16T16:07:24Z</time>
      </trkpt>
      <trkpt lat="44.86272" lon="1.79421">
        <ele>358.71</ele>
        <time>2021-08-16T16:07:33Z</time>
      </trkpt>
      <trkpt lat="44.86245" lon="1.79416">
        <ele>358.71</ele>
        <time>2021-08-16T16:07:41Z</time>
      </trkpt>
      <trkpt lat="44.86217" lon="1.79406">
        <ele>359.67</ele>
        <time>2021-08-16T16:07:50Z</time>
      </trkpt>
      <trkpt lat="44.862" lon="1.79402">
        <ele>361.59</ele>
        <time>2021-08-16T16:08:00Z</time>
      </trkpt>
      <trkpt lat="44.86194" lon="1.794">
        <ele>362.07</ele>
        <time>2021-08-16T16:08:03Z</time>
      </trkpt>
      <trkpt lat="44.86193" lon="1.794">
        <ele>362.07</ele>
        <time>2021-08-16T16:08:04Z</time>
      </trkpt>
      <trkpt lat="44.86192" lon="1.794">
        <ele>362.07</ele>
        <time>2021-08-16T16:08:05Z</time>
      </trkpt>
      <trkpt lat="44.8619" lon="1.79399">
        <ele>363.04</ele>
        <time>2021-08-16T16:08:06Z</time>
      </trkpt>
      <trkpt lat="44.86189" lon="1.79398">
        <ele>363.04</ele>
        <time>2021-08-16T16:08:07Z</time>
      </trkpt>
      <trkpt lat="44.86188" lon="1.79397">
        <ele>363.04</ele>
        <time>2021-08-16T16:08:08Z</time>
      </trkpt>
      <trkpt lat="44.86186" lon="1.79397">
        <ele>363.04</ele>
        <time>2021-08-16T16:08:09Z</time>
      </trkpt>
      <trkpt lat="44.86184" lon="1.79397">
        <ele>363.52</ele>
        <time>2021-08-16T16:08:10Z</time>
      </trkpt>
      <trkpt lat="44.86183" lon="1.79396">
        <ele>363.52</ele>
        <time>2021-08-16T16:08:11Z</time>
      </trkpt>
      <trkpt lat="44.86181" lon="1.79395">
        <ele>364</ele>
        <time>2021-08-16T16:08:12Z</time>
      </trkpt>
      <trkpt lat="44.8618" lon="1.79394">
        <ele>364</ele>
        <time>2021-08-16T16:08:13Z</time>
      </trkpt>
      <trkpt lat="44.86178" lon="1.79393">
        <ele>364.48</ele>
        <time>2021-08-16T16:08:14Z</time>
      </trkpt>
      <trkpt lat="44.86169" lon="1.79389">
        <ele>365.92</ele>
        <time>2021-08-16T16:08:20Z</time>
      </trkpt>
      <trkpt lat="44.86168" lon="1.79388">
        <ele>365.92</ele>
        <time>2021-08-16T16:08:21Z</time>
      </trkpt>
      <trkpt lat="44.86167" lon="1.79387">
        <ele>365.92</ele>
        <time>2021-08-16T16:08:22Z</time>
      </trkpt>
      <trkpt lat="44.86165" lon="1.79385">
        <ele>366.4</ele>
        <time>2021-08-16T16:08:23Z</time>
      </trkpt>
      <trkpt lat="44.86164" lon="1.79384">
        <ele>366.4</ele>
        <time>2021-08-16T16:08:24Z</time>
      </trkpt>
      <trkpt lat="44.86163" lon="1.79382">
        <ele>366.4</ele>
        <time>2021-08-16T16:08:25Z</time>
      </trkpt>
      <trkpt lat="44.86162" lon="1.79381">
        <ele>366.4</ele>
        <time>2021-08-16T16:08:26Z</time>
      </trkpt>
      <trkpt lat="44.8616" lon="1.7938">
        <ele>366.88</ele>
        <time>2021-08-16T16:08:27Z</time>
      </trkpt>
      <trkpt lat="44.86145" lon="1.79356">
        <ele>368.32</ele>
        <time>2021-08-16T16:08:39Z</time>
      </trkpt>
      <trkpt lat="44.86138" lon="1.79337">
        <ele>369.76</ele>
        <time>2021-08-16T16:08:47Z</time>
      </trkpt>
      <trkpt lat="44.86132" lon="1.7932">
        <ele>371.21</ele>
        <time>2021-08-16T16:08:55Z</time>
      </trkpt>
      <trkpt lat="44.86126" lon="1.79304">
        <ele>372.17</ele>
        <time>2021-08-16T16:09:03Z</time>
      </trkpt>
      <trkpt lat="44.86114" lon="1.79288">
        <ele>373.61</ele>
        <time>2021-08-16T16:09:13Z</time>
      </trkpt>
      <trkpt lat="44.86099" lon="1.79273">
        <ele>374.57</ele>
        <time>2021-08-16T16:09:22Z</time>
      </trkpt>
      <trkpt lat="44.86076" lon="1.79256">
        <ele>374.57</ele>
        <time>2021-08-16T16:09:30Z</time>
      </trkpt>
      <trkpt lat="44.86048" lon="1.79237">
        <ele>375.05</ele>
        <time>2021-08-16T16:09:39Z</time>
      </trkpt>
      <trkpt lat="44.86025" lon="1.79226">
        <ele>376.01</ele>
        <time>2021-08-16T16:09:46Z</time>
      </trkpt>
      <trkpt lat="44.86003" lon="1.79222">
        <ele>376.97</ele>
        <time>2021-08-16T16:09:53Z</time>
      </trkpt>
      <trkpt lat="44.85979" lon="1.79219">
        <ele>378.9</ele>
        <time>2021-08-16T16:10:01Z</time>
      </trkpt>
      <trkpt lat="44.85958" lon="1.79214">
        <ele>379.38</ele>
        <time>2021-08-16T16:10:08Z</time>
      </trkpt>
      <trkpt lat="44.85923" lon="1.79209">
        <ele>380.34</ele>
        <time>2021-08-16T16:10:19Z</time>
      </trkpt>
      <trkpt lat="44.85893" lon="1.79204">
        <ele>380.34</ele>
        <time>2021-08-16T16:10:28Z</time>
      </trkpt>
      <trkpt lat="44.85866" lon="1.79199">
        <ele>381.3</ele>
        <time>2021-08-16T16:10:36Z</time>
      </trkpt>
      <trkpt lat="44.85839" lon="1.79189">
        <ele>382.26</ele>
        <time>2021-08-16T16:10:44Z</time>
      </trkpt>
      <trkpt lat="44.85824" lon="1.79178">
        <ele>383.7</ele>
        <time>2021-08-16T16:10:52Z</time>
      </trkpt>
      <trkpt lat="44.85803" lon="1.79166">
        <ele>386.11</ele>
        <time>2021-08-16T16:11:01Z</time>
      </trkpt>
      <trkpt lat="44.85782" lon="1.79154">
        <ele>387.07</ele>
        <time>2021-08-16T16:11:10Z</time>
      </trkpt>
      <trkpt lat="44.85779" lon="1.79151">
        <ele>387.55</ele>
        <time>2021-08-16T16:11:16Z</time>
      </trkpt>
      <trkpt lat="44.85779" lon="1.7915">
        <ele>387.55</ele>
        <time>2021-08-16T16:11:26Z</time>
      </trkpt>
      <trkpt lat="44.85764" lon="1.79142">
        <ele>387.55</ele>
        <time>2021-08-16T16:11:32Z</time>
      </trkpt>
      <trkpt lat="44.85731" lon="1.79119">
        <ele>387.55</ele>
        <time>2021-08-16T16:11:41Z</time>
      </trkpt>
      <trkpt lat="44.85695" lon="1.79094">
        <ele>387.55</ele>
        <time>2021-08-16T16:11:50Z</time>
      </trkpt>
      <trkpt lat="44.85672" lon="1.7908">
        <ele>388.99</ele>
        <time>2021-08-16T16:11:57Z</time>
      </trkpt>
      <trkpt lat="44.85655" lon="1.79071">
        <ele>390.43</ele>
        <time>2021-08-16T16:12:05Z</time>
      </trkpt>
      <trkpt lat="44.85641" lon="1.79065">
        <ele>392.84</ele>
        <time>2021-08-16T16:12:13Z</time>
      </trkpt>
      <trkpt lat="44.85622" lon="1.79055">
        <ele>393.8</ele>
        <time>2021-08-16T16:12:21Z</time>
      </trkpt>
      <trkpt lat="44.85598" lon="1.79043">
        <ele>394.28</ele>
        <time>2021-08-16T16:12:29Z</time>
      </trkpt>
      <trkpt lat="44.85585" lon="1.79039">
        <ele>394.28</ele>
        <time>2021-08-16T16:12:32Z</time>
      </trkpt>
      <trkpt lat="44.85581" lon="1.79037">
        <ele>392.84</ele>
        <time>2021-08-16T16:12:33Z</time>
      </trkpt>
      <trkpt lat="44.85577" lon="1.79033">
        <ele>392.36</ele>
        <time>2021-08-16T16:12:34Z</time>
      </trkpt>
      <trkpt lat="44.85573" lon="1.79029">
        <ele>391.39</ele>
        <time>2021-08-16T16:12:35Z</time>
      </trkpt>
      <trkpt lat="44.85569" lon="1.79024">
        <ele>391.39</ele>
        <time>2021-08-16T16:12:36Z</time>
      </trkpt>
      <trkpt lat="44.85544" lon="1.78992">
        <ele>388.03</ele>
        <time>2021-08-16T16:12:41Z</time>
      </trkpt>
      <trkpt lat="44.85526" lon="1.78966">
        <ele>383.7</ele>
        <time>2021-08-16T16:12:44Z</time>
      </trkpt>
      <trkpt lat="44.85496" lon="1.78921">
        <ele>379.38</ele>
        <time>2021-08-16T16:12:48Z</time>
      </trkpt>
      <trkpt lat="44.85489" lon="1.78911">
        <ele>377.94</ele>
        <time>2021-08-16T16:12:49Z</time>
      </trkpt>
      <trkpt lat="44.85479" lon="1.789">
        <ele>376.01</ele>
        <time>2021-08-16T16:12:50Z</time>
      </trkpt>
      <trkpt lat="44.8547" lon="1.78891">
        <ele>375.05</ele>
        <time>2021-08-16T16:12:51Z</time>
      </trkpt>
      <trkpt lat="44.85461" lon="1.7888">
        <ele>375.05</ele>
        <time>2021-08-16T16:12:52Z</time>
      </trkpt>
      <trkpt lat="44.85453" lon="1.7887">
        <ele>374.57</ele>
        <time>2021-08-16T16:12:53Z</time>
      </trkpt>
      <trkpt lat="44.85438" lon="1.78853">
        <ele>377.45</ele>
        <time>2021-08-16T16:12:55Z</time>
      </trkpt>
      <trkpt lat="44.85429" lon="1.78847">
        <ele>377.45</ele>
        <time>2021-08-16T16:12:56Z</time>
      </trkpt>
      <trkpt lat="44.85423" lon="1.78844">
        <ele>377.94</ele>
        <time>2021-08-16T16:12:57Z</time>
      </trkpt>
      <trkpt lat="44.85415" lon="1.78842">
        <ele>377.94</ele>
        <time>2021-08-16T16:12:58Z</time>
      </trkpt>
      <trkpt lat="44.85408" lon="1.7884">
        <ele>377.94</ele>
        <time>2021-08-16T16:12:59Z</time>
      </trkpt>
      <trkpt lat="44.85401" lon="1.7884">
        <ele>377.94</ele>
        <time>2021-08-16T16:13:00Z</time>
      </trkpt>
      <trkpt lat="44.85395" lon="1.7884">
        <ele>377.94</ele>
        <time>2021-08-16T16:13:01Z</time>
      </trkpt>
      <trkpt lat="44.85381" lon="1.78838">
        <ele>377.94</ele>
        <time>2021-08-16T16:13:03Z</time>
      </trkpt>
      <trkpt lat="44.85377" lon="1.78836">
        <ele>377.94</ele>
        <time>2021-08-16T16:13:04Z</time>
      </trkpt>
      <trkpt lat="44.85371" lon="1.78831">
        <ele>377.94</ele>
        <time>2021-08-16T16:13:05Z</time>
      </trkpt>
      <trkpt lat="44.85367" lon="1.78825">
        <ele>377.94</ele>
        <time>2021-08-16T16:13:06Z</time>
      </trkpt>
      <trkpt lat="44.85362" lon="1.78817">
        <ele>377.94</ele>
        <time>2021-08-16T16:13:07Z</time>
      </trkpt>
      <trkpt lat="44.85359" lon="1.78809">
        <ele>377.94</ele>
        <time>2021-08-16T16:13:08Z</time>
      </trkpt>
      <trkpt lat="44.85356" lon="1.78799">
        <ele>377.94</ele>
        <time>2021-08-16T16:13:09Z</time>
      </trkpt>
      <trkpt lat="44.85352" lon="1.78783">
        <ele>376.49</ele>
        <time>2021-08-16T16:13:11Z</time>
      </trkpt>
      <trkpt lat="44.85347" lon="1.78767">
        <ele>379.86</ele>
        <time>2021-08-16T16:13:15Z</time>
      </trkpt>
      <trkpt lat="44.85343" lon="1.78758">
        <ele>381.3</ele>
        <time>2021-08-16T16:13:22Z</time>
      </trkpt>
      <trkpt lat="44.85338" lon="1.78742">
        <ele>383.22</ele>
        <time>2021-08-16T16:13:32Z</time>
      </trkpt>
      <trkpt lat="44.85334" lon="1.7873">
        <ele>384.66</ele>
        <time>2021-08-16T16:13:39Z</time>
      </trkpt>
      <trkpt lat="44.85333" lon="1.78725">
        <ele>384.66</ele>
        <time>2021-08-16T16:13:42Z</time>
      </trkpt>
      <trkpt lat="44.85332" lon="1.78722">
        <ele>385.63</ele>
        <time>2021-08-16T16:13:44Z</time>
      </trkpt>
      <trkpt lat="44.85332" lon="1.78721">
        <ele>385.63</ele>
        <time>2021-08-16T16:13:45Z</time>
      </trkpt>
      <trkpt lat="44.8533" lon="1.7871">
        <ele>386.59</ele>
        <time>2021-08-16T16:13:52Z</time>
      </trkpt>
      <trkpt lat="44.85328" lon="1.78706">
        <ele>387.55</ele>
        <time>2021-08-16T16:13:55Z</time>
      </trkpt>
      <trkpt lat="44.85327" lon="1.78704">
        <ele>387.55</ele>
        <time>2021-08-16T16:13:56Z</time>
      </trkpt>
      <trkpt lat="44.85327" lon="1.78703">
        <ele>387.55</ele>
        <time>2021-08-16T16:13:57Z</time>
      </trkpt>
      <trkpt lat="44.85326" lon="1.78701">
        <ele>387.55</ele>
        <time>2021-08-16T16:13:58Z</time>
      </trkpt>
      <trkpt lat="44.85325" lon="1.78699">
        <ele>388.03</ele>
        <time>2021-08-16T16:13:59Z</time>
      </trkpt>
      <trkpt lat="44.85325" lon="1.78697">
        <ele>388.03</ele>
        <time>2021-08-16T16:14:00Z</time>
      </trkpt>
      <trkpt lat="44.85318" lon="1.78683">
        <ele>389.47</ele>
        <time>2021-08-16T16:14:10Z</time>
      </trkpt>
      <trkpt lat="44.85317" lon="1.78682">
        <ele>389.95</ele>
        <time>2021-08-16T16:14:11Z</time>
      </trkpt>
      <trkpt lat="44.85316" lon="1.78681">
        <ele>389.95</ele>
        <time>2021-08-16T16:14:12Z</time>
      </trkpt>
      <trkpt lat="44.85303" lon="1.78674">
        <ele>391.39</ele>
        <time>2021-08-16T16:14:22Z</time>
      </trkpt>
      <trkpt lat="44.85287" lon="1.78675">
        <ele>392.84</ele>
        <time>2021-08-16T16:14:31Z</time>
      </trkpt>
      <trkpt lat="44.85265" lon="1.78674">
        <ele>393.8</ele>
        <time>2021-08-16T16:14:41Z</time>
      </trkpt>
      <trkpt lat="44.85249" lon="1.78662">
        <ele>395.24</ele>
        <time>2021-08-16T16:14:50Z</time>
      </trkpt>
      <trkpt lat="44.85234" lon="1.78647">
        <ele>396.2</ele>
        <time>2021-08-16T16:14:58Z</time>
      </trkpt>
      <trkpt lat="44.85232" lon="1.78644">
        <ele>396.2</ele>
        <time>2021-08-16T16:14:59Z</time>
      </trkpt>
      <trkpt lat="44.85231" lon="1.78642">
        <ele>396.2</ele>
        <time>2021-08-16T16:15:00Z</time>
      </trkpt>
      <trkpt lat="44.85229" lon="1.7864">
        <ele>396.2</ele>
        <time>2021-08-16T16:15:01Z</time>
      </trkpt>
      <trkpt lat="44.85213" lon="1.78627">
        <ele>396.68</ele>
        <time>2021-08-16T16:15:08Z</time>
      </trkpt>
      <trkpt lat="44.85211" lon="1.78624">
        <ele>396.68</ele>
        <time>2021-08-16T16:15:09Z</time>
      </trkpt>
      <trkpt lat="44.85211" lon="1.7862">
        <ele>396.68</ele>
        <time>2021-08-16T16:15:10Z</time>
      </trkpt>
      <trkpt lat="44.85211" lon="1.78616">
        <ele>396.68</ele>
        <time>2021-08-16T16:15:11Z</time>
      </trkpt>
      <trkpt lat="44.85212" lon="1.78612">
        <ele>396.68</ele>
        <time>2021-08-16T16:15:12Z</time>
      </trkpt>
      <trkpt lat="44.85213" lon="1.78607">
        <ele>396.68</ele>
        <time>2021-08-16T16:15:13Z</time>
      </trkpt>
      <trkpt lat="44.85215" lon="1.78604">
        <ele>396.68</ele>
        <time>2021-08-16T16:15:14Z</time>
      </trkpt>
      <trkpt lat="44.85217" lon="1.786">
        <ele>396.68</ele>
        <time>2021-08-16T16:15:15Z</time>
      </trkpt>
      <trkpt lat="44.85234" lon="1.78577">
        <ele>395.72</ele>
        <time>2021-08-16T16:15:21Z</time>
      </trkpt>
      <trkpt lat="44.85264" lon="1.78552">
        <ele>393.32</ele>
        <time>2021-08-16T16:15:28Z</time>
      </trkpt>
      <trkpt lat="44.8529" lon="1.7853">
        <ele>392.36</ele>
        <time>2021-08-16T16:15:33Z</time>
      </trkpt>
      <trkpt lat="44.85319" lon="1.78499">
        <ele>389.95</ele>
        <time>2021-08-16T16:15:38Z</time>
      </trkpt>
      <trkpt lat="44.85323" lon="1.78491">
        <ele>389.95</ele>
        <time>2021-08-16T16:15:39Z</time>
      </trkpt>
      <trkpt lat="44.85326" lon="1.78482">
        <ele>388.99</ele>
        <time>2021-08-16T16:15:40Z</time>
      </trkpt>
      <trkpt lat="44.85328" lon="1.78471">
        <ele>388.99</ele>
        <time>2021-08-16T16:15:41Z</time>
      </trkpt>
      <trkpt lat="44.8533" lon="1.78461">
        <ele>388.03</ele>
        <time>2021-08-16T16:15:42Z</time>
      </trkpt>
      <trkpt lat="44.85331" lon="1.7845">
        <ele>388.03</ele>
        <time>2021-08-16T16:15:43Z</time>
      </trkpt>
      <trkpt lat="44.85332" lon="1.7844">
        <ele>387.55</ele>
        <time>2021-08-16T16:15:44Z</time>
      </trkpt>
      <trkpt lat="44.8533" lon="1.78355">
        <ele>385.63</ele>
        <time>2021-08-16T16:15:52Z</time>
      </trkpt>
      <trkpt lat="44.8533" lon="1.78327">
        <ele>384.66</ele>
        <time>2021-08-16T16:15:55Z</time>
      </trkpt>
      <trkpt lat="44.85328" lon="1.7832">
        <ele>384.66</ele>
        <time>2021-08-16T16:15:56Z</time>
      </trkpt>
      <trkpt lat="44.85326" lon="1.78314">
        <ele>384.66</ele>
        <time>2021-08-16T16:15:57Z</time>
      </trkpt>
      <trkpt lat="44.85317" lon="1.78298">
        <ele>384.66</ele>
        <time>2021-08-16T16:16:00Z</time>
      </trkpt>
      <trkpt lat="44.8529" lon="1.78257">
        <ele>386.11</ele>
        <time>2021-08-16T16:16:10Z</time>
      </trkpt>
      <trkpt lat="44.85278" lon="1.78232">
        <ele>388.03</ele>
        <time>2021-08-16T16:16:17Z</time>
      </trkpt>
      <trkpt lat="44.85271" lon="1.78209">
        <ele>388.51</ele>
        <time>2021-08-16T16:16:24Z</time>
      </trkpt>
      <trkpt lat="44.8526" lon="1.78177">
        <ele>390.91</ele>
        <time>2021-08-16T16:16:35Z</time>
      </trkpt>
      <trkpt lat="44.85246" lon="1.78156">
        <ele>392.36</ele>
        <time>2021-08-16T16:16:45Z</time>
      </trkpt>
      <trkpt lat="44.85227" lon="1.78145">
        <ele>393.8</ele>
        <time>2021-08-16T16:16:55Z</time>
      </trkpt>
      <trkpt lat="44.8521" lon="1.78142">
        <ele>394.76</ele>
        <time>2021-08-16T16:17:03Z</time>
      </trkpt>
      <trkpt lat="44.8519" lon="1.78146">
        <ele>396.2</ele>
        <time>2021-08-16T16:17:12Z</time>
      </trkpt>
      <trkpt lat="44.85171" lon="1.7816">
        <ele>397.16</ele>
        <time>2021-08-16T16:17:22Z</time>
      </trkpt>
      <trkpt lat="44.85152" lon="1.78175">
        <ele>398.6</ele>
        <time>2021-08-16T16:17:32Z</time>
      </trkpt>
      <trkpt lat="44.85127" lon="1.78189">
        <ele>400.05</ele>
        <time>2021-08-16T16:17:43Z</time>
      </trkpt>
      <trkpt lat="44.85104" lon="1.782">
        <ele>401.49</ele>
        <time>2021-08-16T16:17:52Z</time>
      </trkpt>
      <trkpt lat="44.85077" lon="1.78216">
        <ele>402.45</ele>
        <time>2021-08-16T16:18:01Z</time>
      </trkpt>
      <trkpt lat="44.85059" lon="1.78238">
        <ele>403.89</ele>
        <time>2021-08-16T16:18:09Z</time>
      </trkpt>
      <trkpt lat="44.85045" lon="1.78239">
        <ele>404.85</ele>
        <time>2021-08-16T16:18:16Z</time>
      </trkpt>
      <trkpt lat="44.85032" lon="1.78219">
        <ele>406.29</ele>
        <time>2021-08-16T16:18:25Z</time>
      </trkpt>
      <trkpt lat="44.8503" lon="1.78194">
        <ele>406.77</ele>
        <time>2021-08-16T16:18:31Z</time>
      </trkpt>
      <trkpt lat="44.85036" lon="1.78162">
        <ele>406.77</ele>
        <time>2021-08-16T16:18:37Z</time>
      </trkpt>
      <trkpt lat="44.85043" lon="1.78111">
        <ele>407.74</ele>
        <time>2021-08-16T16:18:47Z</time>
      </trkpt>
      <trkpt lat="44.85051" lon="1.7806">
        <ele>408.7</ele>
        <time>2021-08-16T16:18:58Z</time>
      </trkpt>
      <trkpt lat="44.85056" lon="1.7803">
        <ele>409.18</ele>
        <time>2021-08-16T16:19:04Z</time>
      </trkpt>
      <trkpt lat="44.85067" lon="1.77978">
        <ele>409.66</ele>
        <time>2021-08-16T16:19:14Z</time>
      </trkpt>
      <trkpt lat="44.85072" lon="1.7796">
        <ele>409.66</ele>
        <time>2021-08-16T16:19:17Z</time>
      </trkpt>
      <trkpt lat="44.85074" lon="1.77955">
        <ele>409.66</ele>
        <time>2021-08-16T16:19:18Z</time>
      </trkpt>
      <trkpt lat="44.85076" lon="1.77948">
        <ele>409.66</ele>
        <time>2021-08-16T16:19:19Z</time>
      </trkpt>
      <trkpt lat="44.85091" lon="1.77878">
        <ele>407.74</ele>
        <time>2021-08-16T16:19:29Z</time>
      </trkpt>
      <trkpt lat="44.85107" lon="1.77796">
        <ele>406.77</ele>
        <time>2021-08-16T16:19:40Z</time>
      </trkpt>
      <trkpt lat="44.85119" lon="1.77746">
        <ele>406.29</ele>
        <time>2021-08-16T16:19:47Z</time>
      </trkpt>
      <trkpt lat="44.85135" lon="1.77688">
        <ele>404.37</ele>
        <time>2021-08-16T16:19:55Z</time>
      </trkpt>
      <trkpt lat="44.85138" lon="1.7768">
        <ele>403.89</ele>
        <time>2021-08-16T16:19:56Z</time>
      </trkpt>
      <trkpt lat="44.85155" lon="1.7764">
        <ele>401.97</ele>
        <time>2021-08-16T16:20:01Z</time>
      </trkpt>
      <trkpt lat="44.85162" lon="1.77623">
        <ele>400.53</ele>
        <time>2021-08-16T16:20:03Z</time>
      </trkpt>
      <trkpt lat="44.85167" lon="1.77615">
        <ele>400.53</ele>
        <time>2021-08-16T16:20:04Z</time>
      </trkpt>
      <trkpt lat="44.85196" lon="1.77562">
        <ele>400.05</ele>
        <time>2021-08-16T16:20:11Z</time>
      </trkpt>
      <trkpt lat="44.8521" lon="1.77524">
        <ele>400.53</ele>
        <time>2021-08-16T16:20:17Z</time>
      </trkpt>
      <trkpt lat="44.85221" lon="1.77456">
        <ele>401.49</ele>
        <time>2021-08-16T16:20:27Z</time>
      </trkpt>
      <trkpt lat="44.85222" lon="1.7745">
        <ele>401.49</ele>
        <time>2021-08-16T16:20:28Z</time>
      </trkpt>
      <trkpt lat="44.85224" lon="1.77439">
        <ele>401.49</ele>
        <time>2021-08-16T16:20:30Z</time>
      </trkpt>
      <trkpt lat="44.85237" lon="1.774">
        <ele>401.97</ele>
        <time>2021-08-16T16:20:37Z</time>
      </trkpt>
      <trkpt lat="44.85257" lon="1.77349">
        <ele>401.97</ele>
        <time>2021-08-16T16:20:46Z</time>
      </trkpt>
      <trkpt lat="44.85281" lon="1.77307">
        <ele>402.45</ele>
        <time>2021-08-16T16:20:54Z</time>
      </trkpt>
      <trkpt lat="44.85308" lon="1.77258">
        <ele>402.45</ele>
        <time>2021-08-16T16:21:03Z</time>
      </trkpt>
      <trkpt lat="44.85334" lon="1.77209">
        <ele>400.05</ele>
        <time>2021-08-16T16:21:11Z</time>
      </trkpt>
      <trkpt lat="44.85343" lon="1.77185">
        <ele>400.53</ele>
        <time>2021-08-16T16:21:15Z</time>
      </trkpt>
      <trkpt lat="44.85345" lon="1.77179">
        <ele>400.53</ele>
        <time>2021-08-16T16:21:16Z</time>
      </trkpt>
      <trkpt lat="44.85346" lon="1.77172">
        <ele>400.53</ele>
        <time>2021-08-16T16:21:17Z</time>
      </trkpt>
      <trkpt lat="44.85347" lon="1.77165">
        <ele>400.53</ele>
        <time>2021-08-16T16:21:18Z</time>
      </trkpt>
      <trkpt lat="44.85348" lon="1.77158">
        <ele>400.53</ele>
        <time>2021-08-16T16:21:19Z</time>
      </trkpt>
      <trkpt lat="44.85348" lon="1.77152">
        <ele>400.53</ele>
        <time>2021-08-16T16:21:20Z</time>
      </trkpt>
      <trkpt lat="44.85351" lon="1.77102">
        <ele>401.49</ele>
        <time>2021-08-16T16:21:28Z</time>
      </trkpt>
      <trkpt lat="44.85356" lon="1.77039">
        <ele>401.49</ele>
        <time>2021-08-16T16:21:37Z</time>
      </trkpt>
      <trkpt lat="44.85358" lon="1.76997">
        <ele>400.05</ele>
        <time>2021-08-16T16:21:43Z</time>
      </trkpt>
      <trkpt lat="44.85359" lon="1.7699">
        <ele>400.05</ele>
        <time>2021-08-16T16:21:44Z</time>
      </trkpt>
      <trkpt lat="44.8536" lon="1.76982">
        <ele>400.05</ele>
        <time>2021-08-16T16:21:45Z</time>
      </trkpt>
      <trkpt lat="44.85376" lon="1.76888">
        <ele>398.6</ele>
        <time>2021-08-16T16:21:57Z</time>
      </trkpt>
      <trkpt lat="44.8538" lon="1.76829">
        <ele>398.12</ele>
        <time>2021-08-16T16:22:04Z</time>
      </trkpt>
      <trkpt lat="44.85382" lon="1.76806">
        <ele>398.12</ele>
        <time>2021-08-16T16:22:07Z</time>
      </trkpt>
      <trkpt lat="44.85383" lon="1.76798">
        <ele>398.12</ele>
        <time>2021-08-16T16:22:08Z</time>
      </trkpt>
      <trkpt lat="44.85383" lon="1.76791">
        <ele>398.12</ele>
        <time>2021-08-16T16:22:09Z</time>
      </trkpt>
      <trkpt lat="44.85384" lon="1.76776">
        <ele>398.12</ele>
        <time>2021-08-16T16:22:11Z</time>
      </trkpt>
      <trkpt lat="44.85385" lon="1.76762">
        <ele>398.12</ele>
        <time>2021-08-16T16:22:13Z</time>
      </trkpt>
      <trkpt lat="44.8539" lon="1.76726">
        <ele>398.12</ele>
        <time>2021-08-16T16:22:18Z</time>
      </trkpt>
      <trkpt lat="44.85403" lon="1.76656">
        <ele>397.64</ele>
        <time>2021-08-16T16:22:27Z</time>
      </trkpt>
      <trkpt lat="44.85408" lon="1.76625">
        <ele>397.64</ele>
        <time>2021-08-16T16:22:31Z</time>
      </trkpt>
      <trkpt lat="44.85411" lon="1.76602">
        <ele>397.64</ele>
        <time>2021-08-16T16:22:34Z</time>
      </trkpt>
      <trkpt lat="44.85413" lon="1.76579">
        <ele>397.64</ele>
        <time>2021-08-16T16:22:37Z</time>
      </trkpt>
      <trkpt lat="44.85419" lon="1.76545">
        <ele>397.64</ele>
        <time>2021-08-16T16:22:42Z</time>
      </trkpt>
      <trkpt lat="44.8542" lon="1.76538">
        <ele>397.64</ele>
        <time>2021-08-16T16:22:43Z</time>
      </trkpt>
      <trkpt lat="44.85419" lon="1.76531">
        <ele>397.64</ele>
        <time>2021-08-16T16:22:44Z</time>
      </trkpt>
      <trkpt lat="44.85418" lon="1.76524">
        <ele>397.64</ele>
        <time>2021-08-16T16:22:45Z</time>
      </trkpt>
      <trkpt lat="44.85415" lon="1.7652">
        <ele>397.64</ele>
        <time>2021-08-16T16:22:46Z</time>
      </trkpt>
      <trkpt lat="44.85412" lon="1.76515">
        <ele>396.2</ele>
        <time>2021-08-16T16:22:47Z</time>
      </trkpt>
      <trkpt lat="44.85409" lon="1.7651">
        <ele>396.2</ele>
        <time>2021-08-16T16:22:48Z</time>
      </trkpt>
      <trkpt lat="44.854" lon="1.76494">
        <ele>394.28</ele>
        <time>2021-08-16T16:22:51Z</time>
      </trkpt>
      <trkpt lat="44.85397" lon="1.76487">
        <ele>393.8</ele>
        <time>2021-08-16T16:22:52Z</time>
      </trkpt>
      <trkpt lat="44.85384" lon="1.76466">
        <ele>390.43</ele>
        <time>2021-08-16T16:22:55Z</time>
      </trkpt>
      <trkpt lat="44.85364" lon="1.76434">
        <ele>387.55</ele>
        <time>2021-08-16T16:22:59Z</time>
      </trkpt>
      <trkpt lat="44.85347" lon="1.76412">
        <ele>384.18</ele>
        <time>2021-08-16T16:23:03Z</time>
      </trkpt>
      <trkpt lat="44.85341" lon="1.76399">
        <ele>382.74</ele>
        <time>2021-08-16T16:23:06Z</time>
      </trkpt>
      <trkpt lat="44.85334" lon="1.76371">
        <ele>379.38</ele>
        <time>2021-08-16T16:23:10Z</time>
      </trkpt>
      <trkpt lat="44.85323" lon="1.76323">
        <ele>376.01</ele>
        <time>2021-08-16T16:23:15Z</time>
      </trkpt>
      <trkpt lat="44.8532" lon="1.76314">
        <ele>376.01</ele>
        <time>2021-08-16T16:23:16Z</time>
      </trkpt>
      <trkpt lat="44.85314" lon="1.76297">
        <ele>374.57</ele>
        <time>2021-08-16T16:23:18Z</time>
      </trkpt>
      <trkpt lat="44.85303" lon="1.76272">
        <ele>371.69</ele>
        <time>2021-08-16T16:23:21Z</time>
      </trkpt>
      <trkpt lat="44.85291" lon="1.76247">
        <ele>370.73</ele>
        <time>2021-08-16T16:23:24Z</time>
      </trkpt>
      <trkpt lat="44.85286" lon="1.7624">
        <ele>369.76</ele>
        <time>2021-08-16T16:23:25Z</time>
      </trkpt>
      <trkpt lat="44.85277" lon="1.76225">
        <ele>369.28</ele>
        <time>2021-08-16T16:23:27Z</time>
      </trkpt>
      <trkpt lat="44.85266" lon="1.76203">
        <ele>368.32</ele>
        <time>2021-08-16T16:23:30Z</time>
      </trkpt>
      <trkpt lat="44.85263" lon="1.76195">
        <ele>368.32</ele>
        <time>2021-08-16T16:23:31Z</time>
      </trkpt>
      <trkpt lat="44.85261" lon="1.76188">
        <ele>368.32</ele>
        <time>2021-08-16T16:23:32Z</time>
      </trkpt>
      <trkpt lat="44.85258" lon="1.76181">
        <ele>368.32</ele>
        <time>2021-08-16T16:23:33Z</time>
      </trkpt>
      <trkpt lat="44.85256" lon="1.76175">
        <ele>368.32</ele>
        <time>2021-08-16T16:23:34Z</time>
      </trkpt>
      <trkpt lat="44.85242" lon="1.76149">
        <ele>370.24</ele>
        <time>2021-08-16T16:23:40Z</time>
      </trkpt>
      <trkpt lat="44.8522" lon="1.76122">
        <ele>370.73</ele>
        <time>2021-08-16T16:23:49Z</time>
      </trkpt>
      <trkpt lat="44.85205" lon="1.76103">
        <ele>372.17</ele>
        <time>2021-08-16T16:23:57Z</time>
      </trkpt>
      <trkpt lat="44.85193" lon="1.76088">
        <ele>373.13</ele>
        <time>2021-08-16T16:24:04Z</time>
      </trkpt>
      <trkpt lat="44.85171" lon="1.76064">
        <ele>374.09</ele>
        <time>2021-08-16T16:24:13Z</time>
      </trkpt>
      <trkpt lat="44.85142" lon="1.76032">
        <ele>374.09</ele>
        <time>2021-08-16T16:24:23Z</time>
      </trkpt>
      <trkpt lat="44.85122" lon="1.76003">
        <ele>372.65</ele>
        <time>2021-08-16T16:24:29Z</time>
      </trkpt>
      <trkpt lat="44.85105" lon="1.75976">
        <ele>370.73</ele>
        <time>2021-08-16T16:24:33Z</time>
      </trkpt>
      <trkpt lat="44.85076" lon="1.75937">
        <ele>370.24</ele>
        <time>2021-08-16T16:24:40Z</time>
      </trkpt>
      <trkpt lat="44.85072" lon="1.75932">
        <ele>370.24</ele>
        <time>2021-08-16T16:24:41Z</time>
      </trkpt>
      <trkpt lat="44.85065" lon="1.7592">
        <ele>371.21</ele>
        <time>2021-08-16T16:24:44Z</time>
      </trkpt>
      <trkpt lat="44.85054" lon="1.75903">
        <ele>372.65</ele>
        <time>2021-08-16T16:24:51Z</time>
      </trkpt>
      <trkpt lat="44.85037" lon="1.7588">
        <ele>374.09</ele>
        <time>2021-08-16T16:25:00Z</time>
      </trkpt>
      <trkpt lat="44.85035" lon="1.75879">
        <ele>374.09</ele>
        <time>2021-08-16T16:25:01Z</time>
      </trkpt>
      <trkpt lat="44.85033" lon="1.75876">
        <ele>374.09</ele>
        <time>2021-08-16T16:25:02Z</time>
      </trkpt>
      <trkpt lat="44.85031" lon="1.75872">
        <ele>374.09</ele>
        <time>2021-08-16T16:25:03Z</time>
      </trkpt>
      <trkpt lat="44.85029" lon="1.75869">
        <ele>374.57</ele>
        <time>2021-08-16T16:25:04Z</time>
      </trkpt>
      <trkpt lat="44.85027" lon="1.75865">
        <ele>374.57</ele>
        <time>2021-08-16T16:25:05Z</time>
      </trkpt>
      <trkpt lat="44.85017" lon="1.75849">
        <ele>374.57</ele>
        <time>2021-08-16T16:25:10Z</time>
      </trkpt>
      <trkpt lat="44.85007" lon="1.75829">
        <ele>374.57</ele>
        <time>2021-08-16T16:25:14Z</time>
      </trkpt>
      <trkpt lat="44.85005" lon="1.75824">
        <ele>374.57</ele>
        <time>2021-08-16T16:25:15Z</time>
      </trkpt>
      <trkpt lat="44.85001" lon="1.75812">
        <ele>373.13</ele>
        <time>2021-08-16T16:25:17Z</time>
      </trkpt>
      <trkpt lat="44.84995" lon="1.75793">
        <ele>372.17</ele>
        <time>2021-08-16T16:25:20Z</time>
      </trkpt>
      <trkpt lat="44.84974" lon="1.75742">
        <ele>370.73</ele>
        <time>2021-08-16T16:25:28Z</time>
      </trkpt>
      <trkpt lat="44.84947" lon="1.75697">
        <ele>367.36</ele>
        <time>2021-08-16T16:25:34Z</time>
      </trkpt>
      <trkpt lat="44.84924" lon="1.75667">
        <ele>365.44</ele>
        <time>2021-08-16T16:25:38Z</time>
      </trkpt>
      <trkpt lat="44.84918" lon="1.75661">
        <ele>365.44</ele>
        <time>2021-08-16T16:25:39Z</time>
      </trkpt>
      <trkpt lat="44.84912" lon="1.75657">
        <ele>364.48</ele>
        <time>2021-08-16T16:25:40Z</time>
      </trkpt>
      <trkpt lat="44.84906" lon="1.75653">
        <ele>364.48</ele>
        <time>2021-08-16T16:25:41Z</time>
      </trkpt>
      <trkpt lat="44.849" lon="1.75651">
        <ele>363.52</ele>
        <time>2021-08-16T16:25:42Z</time>
      </trkpt>
      <trkpt lat="44.84895" lon="1.75651">
        <ele>363.04</ele>
        <time>2021-08-16T16:25:43Z</time>
      </trkpt>
      <trkpt lat="44.8489" lon="1.75652">
        <ele>363.04</ele>
        <time>2021-08-16T16:25:44Z</time>
      </trkpt>
      <trkpt lat="44.84886" lon="1.75655">
        <ele>362.55</ele>
        <time>2021-08-16T16:25:45Z</time>
      </trkpt>
      <trkpt lat="44.84883" lon="1.7566">
        <ele>363.04</ele>
        <time>2021-08-16T16:25:46Z</time>
      </trkpt>
      <trkpt lat="44.84882" lon="1.75666">
        <ele>363.04</ele>
        <time>2021-08-16T16:25:47Z</time>
      </trkpt>
      <trkpt lat="44.8488" lon="1.7567">
        <ele>363.04</ele>
        <time>2021-08-16T16:25:48Z</time>
      </trkpt>
      <trkpt lat="44.84876" lon="1.75674">
        <ele>363.04</ele>
        <time>2021-08-16T16:25:49Z</time>
      </trkpt>
      <trkpt lat="44.84873" lon="1.75677">
        <ele>363.04</ele>
        <time>2021-08-16T16:25:50Z</time>
      </trkpt>
      <trkpt lat="44.84868" lon="1.75678">
        <ele>362.07</ele>
        <time>2021-08-16T16:25:51Z</time>
      </trkpt>
      <trkpt lat="44.84863" lon="1.75678">
        <ele>362.07</ele>
        <time>2021-08-16T16:25:52Z</time>
      </trkpt>
      <trkpt lat="44.84859" lon="1.75677">
        <ele>362.07</ele>
        <time>2021-08-16T16:25:53Z</time>
      </trkpt>
      <trkpt lat="44.84853" lon="1.75675">
        <ele>361.11</ele>
        <time>2021-08-16T16:25:54Z</time>
      </trkpt>
      <trkpt lat="44.84826" lon="1.75663">
        <ele>358.23</ele>
        <time>2021-08-16T16:25:58Z</time>
      </trkpt>
      <trkpt lat="44.84819" lon="1.75659">
        <ele>358.23</ele>
        <time>2021-08-16T16:25:59Z</time>
      </trkpt>
      <trkpt lat="44.84811" lon="1.75653">
        <ele>357.75</ele>
        <time>2021-08-16T16:26:00Z</time>
      </trkpt>
      <trkpt lat="44.84756" lon="1.756">
        <ele>355.34</ele>
        <time>2021-08-16T16:26:08Z</time>
      </trkpt>
      <trkpt lat="44.84714" lon="1.75558">
        <ele>354.86</ele>
        <time>2021-08-16T16:26:15Z</time>
      </trkpt>
      <trkpt lat="44.84661" lon="1.7553">
        <ele>354.38</ele>
        <time>2021-08-16T16:26:23Z</time>
      </trkpt>
      <trkpt lat="44.84605" lon="1.755">
        <ele>354.38</ele>
        <time>2021-08-16T16:26:32Z</time>
      </trkpt>
      <trkpt lat="44.84552" lon="1.75478">
        <ele>354.38</ele>
        <time>2021-08-16T16:26:41Z</time>
      </trkpt>
      <trkpt lat="44.84518" lon="1.75469">
        <ele>355.83</ele>
        <time>2021-08-16T16:26:48Z</time>
      </trkpt>
      <trkpt lat="44.84493" lon="1.75467">
        <ele>357.75</ele>
        <time>2021-08-16T16:26:56Z</time>
      </trkpt>
      <trkpt lat="44.84469" lon="1.75466">
        <ele>358.71</ele>
        <time>2021-08-16T16:27:05Z</time>
      </trkpt>
      <trkpt lat="44.84429" lon="1.75466">
        <ele>359.67</ele>
        <time>2021-08-16T16:27:17Z</time>
      </trkpt>
      <trkpt lat="44.84406" lon="1.75464">
        <ele>360.63</ele>
        <time>2021-08-16T16:27:24Z</time>
      </trkpt>
      <trkpt lat="44.84374" lon="1.75453">
        <ele>360.63</ele>
        <time>2021-08-16T16:27:33Z</time>
      </trkpt>
      <trkpt lat="44.84344" lon="1.75442">
        <ele>360.63</ele>
        <time>2021-08-16T16:27:41Z</time>
      </trkpt>
      <trkpt lat="44.8434" lon="1.75442">
        <ele>360.63</ele>
        <time>2021-08-16T16:27:42Z</time>
      </trkpt>
      <trkpt lat="44.84335" lon="1.75443">
        <ele>360.63</ele>
        <time>2021-08-16T16:27:43Z</time>
      </trkpt>
      <trkpt lat="44.84331" lon="1.75445">
        <ele>360.63</ele>
        <time>2021-08-16T16:27:44Z</time>
      </trkpt>
      <trkpt lat="44.84327" lon="1.75448">
        <ele>360.63</ele>
        <time>2021-08-16T16:27:45Z</time>
      </trkpt>
      <trkpt lat="44.84317" lon="1.75455">
        <ele>360.63</ele>
        <time>2021-08-16T16:27:47Z</time>
      </trkpt>
      <trkpt lat="44.84313" lon="1.7546">
        <ele>360.63</ele>
        <time>2021-08-16T16:27:48Z</time>
      </trkpt>
      <trkpt lat="44.84284" lon="1.7549">
        <ele>360.63</ele>
        <time>2021-08-16T16:27:55Z</time>
      </trkpt>
      <trkpt lat="44.84279" lon="1.75492">
        <ele>360.63</ele>
        <time>2021-08-16T16:27:56Z</time>
      </trkpt>
      <trkpt lat="44.84274" lon="1.75492">
        <ele>360.63</ele>
        <time>2021-08-16T16:27:57Z</time>
      </trkpt>
      <trkpt lat="44.84269" lon="1.75491">
        <ele>360.63</ele>
        <time>2021-08-16T16:27:58Z</time>
      </trkpt>
      <trkpt lat="44.84265" lon="1.75488">
        <ele>360.63</ele>
        <time>2021-08-16T16:27:59Z</time>
      </trkpt>
      <trkpt lat="44.8426" lon="1.75485">
        <ele>360.63</ele>
        <time>2021-08-16T16:28:00Z</time>
      </trkpt>
      <trkpt lat="44.84238" lon="1.75473">
        <ele>360.63</ele>
        <time>2021-08-16T16:28:05Z</time>
      </trkpt>
      <trkpt lat="44.84234" lon="1.75472">
        <ele>360.63</ele>
        <time>2021-08-16T16:28:06Z</time>
      </trkpt>
      <trkpt lat="44.8423" lon="1.75472">
        <ele>360.63</ele>
        <time>2021-08-16T16:28:07Z</time>
      </trkpt>
      <trkpt lat="44.84225" lon="1.75472">
        <ele>360.63</ele>
        <time>2021-08-16T16:28:08Z</time>
      </trkpt>
      <trkpt lat="44.84221" lon="1.75474">
        <ele>361.11</ele>
        <time>2021-08-16T16:28:09Z</time>
      </trkpt>
      <trkpt lat="44.84217" lon="1.75475">
        <ele>361.11</ele>
        <time>2021-08-16T16:28:10Z</time>
      </trkpt>
      <trkpt lat="44.84183" lon="1.75481">
        <ele>361.59</ele>
        <time>2021-08-16T16:28:18Z</time>
      </trkpt>
      <trkpt lat="44.84162" lon="1.75474">
        <ele>361.59</ele>
        <time>2021-08-16T16:28:24Z</time>
      </trkpt>
      <trkpt lat="44.8416" lon="1.75468">
        <ele>361.59</ele>
        <time>2021-08-16T16:28:25Z</time>
      </trkpt>
      <trkpt lat="44.84159" lon="1.75464">
        <ele>361.59</ele>
        <time>2021-08-16T16:28:26Z</time>
      </trkpt>
      <trkpt lat="44.84159" lon="1.75458">
        <ele>361.59</ele>
        <time>2021-08-16T16:28:27Z</time>
      </trkpt>
      <trkpt lat="44.84159" lon="1.75453">
        <ele>362.07</ele>
        <time>2021-08-16T16:28:28Z</time>
      </trkpt>
      <trkpt lat="44.8416" lon="1.75448">
        <ele>362.07</ele>
        <time>2021-08-16T16:28:29Z</time>
      </trkpt>
      <trkpt lat="44.8416" lon="1.75443">
        <ele>362.07</ele>
        <time>2021-08-16T16:28:30Z</time>
      </trkpt>
      <trkpt lat="44.8416" lon="1.75411">
        <ele>363.04</ele>
        <time>2021-08-16T16:28:37Z</time>
      </trkpt>
      <trkpt lat="44.84161" lon="1.75377">
        <ele>364.48</ele>
        <time>2021-08-16T16:28:46Z</time>
      </trkpt>
      <trkpt lat="44.84164" lon="1.75346">
        <ele>365.92</ele>
        <time>2021-08-16T16:28:54Z</time>
      </trkpt>
      <trkpt lat="44.84176" lon="1.7531">
        <ele>366.88</ele>
        <time>2021-08-16T16:29:04Z</time>
      </trkpt>
      <trkpt lat="44.84197" lon="1.75291">
        <ele>367.36</ele>
        <time>2021-08-16T16:29:11Z</time>
      </trkpt>
      <trkpt lat="44.84201" lon="1.75289">
        <ele>367.36</ele>
        <time>2021-08-16T16:29:12Z</time>
      </trkpt>
      <trkpt lat="44.84208" lon="1.75282">
        <ele>367.36</ele>
        <time>2021-08-16T16:29:14Z</time>
      </trkpt>
      <trkpt lat="44.84211" lon="1.75278">
        <ele>367.36</ele>
        <time>2021-08-16T16:29:15Z</time>
      </trkpt>
      <trkpt lat="44.84213" lon="1.75272">
        <ele>367.36</ele>
        <time>2021-08-16T16:29:16Z</time>
      </trkpt>
      <trkpt lat="44.84213" lon="1.75266">
        <ele>367.36</ele>
        <time>2021-08-16T16:29:17Z</time>
      </trkpt>
      <trkpt lat="44.84211" lon="1.7526">
        <ele>367.36</ele>
        <time>2021-08-16T16:29:18Z</time>
      </trkpt>
      <trkpt lat="44.84209" lon="1.75256">
        <ele>367.36</ele>
        <time>2021-08-16T16:29:19Z</time>
      </trkpt>
      <trkpt lat="44.84206" lon="1.75252">
        <ele>367.36</ele>
        <time>2021-08-16T16:29:20Z</time>
      </trkpt>
      <trkpt lat="44.84202" lon="1.75247">
        <ele>367.36</ele>
        <time>2021-08-16T16:29:21Z</time>
      </trkpt>
      <trkpt lat="44.84198" lon="1.75243">
        <ele>367.36</ele>
        <time>2021-08-16T16:29:22Z</time>
      </trkpt>
      <trkpt lat="44.84195" lon="1.75237">
        <ele>365.92</ele>
        <time>2021-08-16T16:29:23Z</time>
      </trkpt>
      <trkpt lat="44.84192" lon="1.75231">
        <ele>365.92</ele>
        <time>2021-08-16T16:29:24Z</time>
      </trkpt>
      <trkpt lat="44.84189" lon="1.75225">
        <ele>365.92</ele>
        <time>2021-08-16T16:29:25Z</time>
      </trkpt>
      <trkpt lat="44.84186" lon="1.75218">
        <ele>365.44</ele>
        <time>2021-08-16T16:29:26Z</time>
      </trkpt>
      <trkpt lat="44.8417" lon="1.75183">
        <ele>364.48</ele>
        <time>2021-08-16T16:29:31Z</time>
      </trkpt>
      <trkpt lat="44.8417" lon="1.75176">
        <ele>364.48</ele>
        <time>2021-08-16T16:29:32Z</time>
      </trkpt>
      <trkpt lat="44.84171" lon="1.75168">
        <ele>364.48</ele>
        <time>2021-08-16T16:29:33Z</time>
      </trkpt>
      <trkpt lat="44.84174" lon="1.75161">
        <ele>364.48</ele>
        <time>2021-08-16T16:29:34Z</time>
      </trkpt>
      <trkpt lat="44.84177" lon="1.75156">
        <ele>364.48</ele>
        <time>2021-08-16T16:29:35Z</time>
      </trkpt>
      <trkpt lat="44.84202" lon="1.75114">
        <ele>364.48</ele>
        <time>2021-08-16T16:29:42Z</time>
      </trkpt>
      <trkpt lat="44.84229" lon="1.75072">
        <ele>364</ele>
        <time>2021-08-16T16:29:48Z</time>
      </trkpt>
      <trkpt lat="44.84268" lon="1.7502">
        <ele>364</ele>
        <time>2021-08-16T16:29:56Z</time>
      </trkpt>
      <trkpt lat="44.84272" lon="1.75014">
        <ele>364</ele>
        <time>2021-08-16T16:29:57Z</time>
      </trkpt>
      <trkpt lat="44.84276" lon="1.75007">
        <ele>364</ele>
        <time>2021-08-16T16:29:58Z</time>
      </trkpt>
      <trkpt lat="44.843" lon="1.74944">
        <ele>363.04</ele>
        <time>2021-08-16T16:30:06Z</time>
      </trkpt>
      <trkpt lat="44.84312" lon="1.74872">
        <ele>361.59</ele>
        <time>2021-08-16T16:30:14Z</time>
      </trkpt>
      <trkpt lat="44.84326" lon="1.74807">
        <ele>360.63</ele>
        <time>2021-08-16T16:30:21Z</time>
      </trkpt>
      <trkpt lat="44.84361" lon="1.74727">
        <ele>359.67</ele>
        <time>2021-08-16T16:30:31Z</time>
      </trkpt>
      <trkpt lat="44.84396" lon="1.74632">
        <ele>359.19</ele>
        <time>2021-08-16T16:30:43Z</time>
      </trkpt>
      <trkpt lat="44.84407" lon="1.74603">
        <ele>360.63</ele>
        <time>2021-08-16T16:30:47Z</time>
      </trkpt>
      <trkpt lat="44.84433" lon="1.7454">
        <ele>360.63</ele>
        <time>2021-08-16T16:30:57Z</time>
      </trkpt>
      <trkpt lat="44.84459" lon="1.74482">
        <ele>360.63</ele>
        <time>2021-08-16T16:31:07Z</time>
      </trkpt>
      <trkpt lat="44.84472" lon="1.7444">
        <ele>362.55</ele>
        <time>2021-08-16T16:31:15Z</time>
      </trkpt>
      <trkpt lat="44.84482" lon="1.74396">
        <ele>363.04</ele>
        <time>2021-08-16T16:31:24Z</time>
      </trkpt>
      <trkpt lat="44.84485" lon="1.74354">
        <ele>363.52</ele>
        <time>2021-08-16T16:31:33Z</time>
      </trkpt>
      <trkpt lat="44.84486" lon="1.74316">
        <ele>365.44</ele>
        <time>2021-08-16T16:31:43Z</time>
      </trkpt>
      <trkpt lat="44.8449" lon="1.7428">
        <ele>366.88</ele>
        <time>2021-08-16T16:31:54Z</time>
      </trkpt>
      <trkpt lat="44.84495" lon="1.74245">
        <ele>368.32</ele>
        <time>2021-08-16T16:32:05Z</time>
      </trkpt>
      <trkpt lat="44.84502" lon="1.74207">
        <ele>368.8</ele>
        <time>2021-08-16T16:32:15Z</time>
      </trkpt>
      <trkpt lat="44.84509" lon="1.7417">
        <ele>369.76</ele>
        <time>2021-08-16T16:32:24Z</time>
      </trkpt>
      <trkpt lat="44.84511" lon="1.74143">
        <ele>367.84</ele>
        <time>2021-08-16T16:32:30Z</time>
      </trkpt>
      <trkpt lat="44.8451" lon="1.74138">
        <ele>366.88</ele>
        <time>2021-08-16T16:32:31Z</time>
      </trkpt>
      <trkpt lat="44.84507" lon="1.74135">
        <ele>366.88</ele>
        <time>2021-08-16T16:32:32Z</time>
      </trkpt>
      <trkpt lat="44.84504" lon="1.74134">
        <ele>366.88</ele>
        <time>2021-08-16T16:32:33Z</time>
      </trkpt>
      <trkpt lat="44.84502" lon="1.74133">
        <ele>366.88</ele>
        <time>2021-08-16T16:32:34Z</time>
      </trkpt>
      <trkpt lat="44.84481" lon="1.74127">
        <ele>366.88</ele>
        <time>2021-08-16T16:32:41Z</time>
      </trkpt>
      <trkpt lat="44.84444" lon="1.74125">
        <ele>366.88</ele>
        <time>2021-08-16T16:32:50Z</time>
      </trkpt>
      <trkpt lat="44.84403" lon="1.74117">
        <ele>366.88</ele>
        <time>2021-08-16T16:33:00Z</time>
      </trkpt>
      <trkpt lat="44.84378" lon="1.74108">
        <ele>369.76</ele>
        <time>2021-08-16T16:33:09Z</time>
      </trkpt>
      <trkpt lat="44.84356" lon="1.74104">
        <ele>370.73</ele>
        <time>2021-08-16T16:33:18Z</time>
      </trkpt>
      <trkpt lat="44.84336" lon="1.74104">
        <ele>371.69</ele>
        <time>2021-08-16T16:33:27Z</time>
      </trkpt>
      <trkpt lat="44.84314" lon="1.741">
        <ele>373.13</ele>
        <time>2021-08-16T16:33:38Z</time>
      </trkpt>
      <trkpt lat="44.84293" lon="1.74097">
        <ele>374.57</ele>
        <time>2021-08-16T16:33:48Z</time>
      </trkpt>
      <trkpt lat="44.84282" lon="1.74096">
        <ele>376.01</ele>
        <time>2021-08-16T16:33:56Z</time>
      </trkpt>
      <trkpt lat="44.84272" lon="1.74093">
        <ele>376.97</ele>
        <time>2021-08-16T16:34:05Z</time>
      </trkpt>
      <trkpt lat="44.84261" lon="1.74091">
        <ele>378.9</ele>
        <time>2021-08-16T16:34:16Z</time>
      </trkpt>
      <trkpt lat="44.84251" lon="1.74089">
        <ele>380.82</ele>
        <time>2021-08-16T16:34:27Z</time>
      </trkpt>
      <trkpt lat="44.84241" lon="1.74086">
        <ele>382.74</ele>
        <time>2021-08-16T16:34:38Z</time>
      </trkpt>
      <trkpt lat="44.84228" lon="1.74082">
        <ele>384.66</ele>
        <time>2021-08-16T16:34:51Z</time>
      </trkpt>
      <trkpt lat="44.84218" lon="1.74077">
        <ele>386.11</ele>
        <time>2021-08-16T16:35:00Z</time>
      </trkpt>
      <trkpt lat="44.84216" lon="1.74075">
        <ele>386.59</ele>
        <time>2021-08-16T16:35:03Z</time>
      </trkpt>
      <trkpt lat="44.84208" lon="1.74069">
        <ele>388.03</ele>
        <time>2021-08-16T16:35:13Z</time>
      </trkpt>
      <trkpt lat="44.842" lon="1.74062">
        <ele>389.95</ele>
        <time>2021-08-16T16:35:25Z</time>
      </trkpt>
      <trkpt lat="44.84194" lon="1.74059">
        <ele>391.87</ele>
        <time>2021-08-16T16:35:33Z</time>
      </trkpt>
      <trkpt lat="44.84184" lon="1.74055">
        <ele>393.8</ele>
        <time>2021-08-16T16:35:46Z</time>
      </trkpt>
      <trkpt lat="44.84176" lon="1.74056">
        <ele>395.24</ele>
        <time>2021-08-16T16:35:56Z</time>
      </trkpt>
      <trkpt lat="44.84173" lon="1.74057">
        <ele>395.72</ele>
        <time>2021-08-16T16:35:59Z</time>
      </trkpt>
      <trkpt lat="44.84163" lon="1.7406">
        <ele>397.64</ele>
        <time>2021-08-16T16:36:10Z</time>
      </trkpt>
      <trkpt lat="44.84155" lon="1.7406">
        <ele>399.08</ele>
        <time>2021-08-16T16:36:19Z</time>
      </trkpt>
      <trkpt lat="44.84147" lon="1.74058">
        <ele>400.53</ele>
        <time>2021-08-16T16:36:29Z</time>
      </trkpt>
      <trkpt lat="44.84139" lon="1.74054">
        <ele>401.49</ele>
        <time>2021-08-16T16:36:38Z</time>
      </trkpt>
      <trkpt lat="44.84131" lon="1.7405">
        <ele>403.41</ele>
        <time>2021-08-16T16:36:48Z</time>
      </trkpt>
      <trkpt lat="44.84123" lon="1.74046">
        <ele>404.85</ele>
        <time>2021-08-16T16:36:58Z</time>
      </trkpt>
      <trkpt lat="44.84117" lon="1.7404">
        <ele>406.29</ele>
        <time>2021-08-16T16:37:07Z</time>
      </trkpt>
      <trkpt lat="44.84109" lon="1.74032">
        <ele>408.7</ele>
        <time>2021-08-16T16:37:19Z</time>
      </trkpt>
      <trkpt lat="44.84104" lon="1.74023">
        <ele>410.62</ele>
        <time>2021-08-16T16:37:29Z</time>
      </trkpt>
      <trkpt lat="44.84099" lon="1.74014">
        <ele>412.06</ele>
        <time>2021-08-16T16:37:40Z</time>
      </trkpt>
      <trkpt lat="44.84094" lon="1.74006">
        <ele>413.02</ele>
        <time>2021-08-16T16:37:48Z</time>
      </trkpt>
      <trkpt lat="44.84093" lon="1.74005">
        <ele>413.5</ele>
        <time>2021-08-16T16:37:49Z</time>
      </trkpt>
      <trkpt lat="44.8409" lon="1.74">
        <ele>413.98</ele>
        <time>2021-08-16T16:37:56Z</time>
      </trkpt>
      <trkpt lat="44.84081" lon="1.73991">
        <ele>414.47</ele>
        <time>2021-08-16T16:38:03Z</time>
      </trkpt>
      <trkpt lat="44.84064" lon="1.73976">
        <ele>415.43</ele>
        <time>2021-08-16T16:38:13Z</time>
      </trkpt>
      <trkpt lat="44.84048" lon="1.73961">
        <ele>417.35</ele>
        <time>2021-08-16T16:38:23Z</time>
      </trkpt>
      <trkpt lat="44.84032" lon="1.73945">
        <ele>418.31</ele>
        <time>2021-08-16T16:38:33Z</time>
      </trkpt>
      <trkpt lat="44.84015" lon="1.73927">
        <ele>420.23</ele>
        <time>2021-08-16T16:38:44Z</time>
      </trkpt>
      <trkpt lat="44.84005" lon="1.73913">
        <ele>421.68</ele>
        <time>2021-08-16T16:38:51Z</time>
      </trkpt>
      <trkpt lat="44.84004" lon="1.7391">
        <ele>421.68</ele>
        <time>2021-08-16T16:38:52Z</time>
      </trkpt>
      <trkpt lat="44.84003" lon="1.73909">
        <ele>421.68</ele>
        <time>2021-08-16T16:38:53Z</time>
      </trkpt>
      <trkpt lat="44.84001" lon="1.73907">
        <ele>422.16</ele>
        <time>2021-08-16T16:38:54Z</time>
      </trkpt>
      <trkpt lat="44.84" lon="1.73904">
        <ele>422.16</ele>
        <time>2021-08-16T16:38:55Z</time>
      </trkpt>
      <trkpt lat="44.83986" lon="1.7388">
        <ele>422.64</ele>
        <time>2021-08-16T16:39:06Z</time>
      </trkpt>
      <trkpt lat="44.83973" lon="1.73858">
        <ele>423.12</ele>
        <time>2021-08-16T16:39:15Z</time>
      </trkpt>
      <trkpt lat="44.83957" lon="1.73842">
        <ele>424.56</ele>
        <time>2021-08-16T16:39:24Z</time>
      </trkpt>
      <trkpt lat="44.83942" lon="1.73833">
        <ele>426.48</ele>
        <time>2021-08-16T16:39:34Z</time>
      </trkpt>
      <trkpt lat="44.83935" lon="1.73829">
        <ele>427.44</ele>
        <time>2021-08-16T16:39:41Z</time>
      </trkpt>
      <trkpt lat="44.83923" lon="1.73821">
        <ele>428.89</ele>
        <time>2021-08-16T16:39:51Z</time>
      </trkpt>
      <trkpt lat="44.83905" lon="1.73816">
        <ele>429.85</ele>
        <time>2021-08-16T16:40:00Z</time>
      </trkpt>
      <trkpt lat="44.83892" lon="1.73815">
        <ele>430.33</ele>
        <time>2021-08-16T16:40:06Z</time>
      </trkpt>
      <trkpt lat="44.83875" lon="1.73811">
        <ele>431.29</ele>
        <time>2021-08-16T16:40:14Z</time>
      </trkpt>
      <trkpt lat="44.83866" lon="1.73794">
        <ele>432.25</ele>
        <time>2021-08-16T16:40:20Z</time>
      </trkpt>
      <trkpt lat="44.83858" lon="1.73766">
        <ele>432.25</ele>
        <time>2021-08-16T16:40:28Z</time>
      </trkpt>
      <trkpt lat="44.83852" lon="1.73749">
        <ele>430.33</ele>
        <time>2021-08-16T16:40:31Z</time>
      </trkpt>
      <trkpt lat="44.83848" lon="1.73743">
        <ele>429.37</ele>
        <time>2021-08-16T16:40:32Z</time>
      </trkpt>
      <trkpt lat="44.83844" lon="1.73737">
        <ele>428.89</ele>
        <time>2021-08-16T16:40:33Z</time>
      </trkpt>
      <trkpt lat="44.8384" lon="1.73731">
        <ele>428.4</ele>
        <time>2021-08-16T16:40:34Z</time>
      </trkpt>
      <trkpt lat="44.83836" lon="1.73724">
        <ele>427.92</ele>
        <time>2021-08-16T16:40:35Z</time>
      </trkpt>
      <trkpt lat="44.83832" lon="1.73716">
        <ele>426.96</ele>
        <time>2021-08-16T16:40:36Z</time>
      </trkpt>
      <trkpt lat="44.8383" lon="1.73709">
        <ele>426.96</ele>
        <time>2021-08-16T16:40:37Z</time>
      </trkpt>
      <trkpt lat="44.83829" lon="1.73702">
        <ele>426</ele>
        <time>2021-08-16T16:40:38Z</time>
      </trkpt>
      <trkpt lat="44.83828" lon="1.73697">
        <ele>425.52</ele>
        <time>2021-08-16T16:40:39Z</time>
      </trkpt>
      <trkpt lat="44.83827" lon="1.73693">
        <ele>425.04</ele>
        <time>2021-08-16T16:40:40Z</time>
      </trkpt>
      <trkpt lat="44.83824" lon="1.73691">
        <ele>424.56</ele>
        <time>2021-08-16T16:40:41Z</time>
      </trkpt>
      <trkpt lat="44.8382" lon="1.7369">
        <ele>423.6</ele>
        <time>2021-08-16T16:40:42Z</time>
      </trkpt>
      <trkpt lat="44.83817" lon="1.7369">
        <ele>423.6</ele>
        <time>2021-08-16T16:40:43Z</time>
      </trkpt>
      <trkpt lat="44.83812" lon="1.73691">
        <ele>423.6</ele>
        <time>2021-08-16T16:40:44Z</time>
      </trkpt>
      <trkpt lat="44.83807" lon="1.73692">
        <ele>423.12</ele>
        <time>2021-08-16T16:40:45Z</time>
      </trkpt>
      <trkpt lat="44.83801" lon="1.73693">
        <ele>422.64</ele>
        <time>2021-08-16T16:40:46Z</time>
      </trkpt>
      <trkpt lat="44.83758" lon="1.73705">
        <ele>420.71</ele>
        <time>2021-08-16T16:40:53Z</time>
      </trkpt>
      <trkpt lat="44.83705" lon="1.73718">
        <ele>419.75</ele>
        <time>2021-08-16T16:41:01Z</time>
      </trkpt>
      <trkpt lat="44.83671" lon="1.73725">
        <ele>419.75</ele>
        <time>2021-08-16T16:41:07Z</time>
      </trkpt>
      <trkpt lat="44.83662" lon="1.73724">
        <ele>421.19</ele>
        <time>2021-08-16T16:41:09Z</time>
      </trkpt>
      <trkpt lat="44.83643" lon="1.73718">
        <ele>421.68</ele>
        <time>2021-08-16T16:41:14Z</time>
      </trkpt>
      <trkpt lat="44.83623" lon="1.73712">
        <ele>420.23</ele>
        <time>2021-08-16T16:41:18Z</time>
      </trkpt>
      <trkpt lat="44.8358" lon="1.73696">
        <ele>417.83</ele>
        <time>2021-08-16T16:41:25Z</time>
      </trkpt>
      <trkpt lat="44.83567" lon="1.73689">
        <ele>416.87</ele>
        <time>2021-08-16T16:41:27Z</time>
      </trkpt>
      <trkpt lat="44.83562" lon="1.73684">
        <ele>416.39</ele>
        <time>2021-08-16T16:41:28Z</time>
      </trkpt>
      <trkpt lat="44.83557" lon="1.73676">
        <ele>415.43</ele>
        <time>2021-08-16T16:41:29Z</time>
      </trkpt>
      <trkpt lat="44.83554" lon="1.73669">
        <ele>414.95</ele>
        <time>2021-08-16T16:41:30Z</time>
      </trkpt>
      <trkpt lat="44.8355" lon="1.73659">
        <ele>413.98</ele>
        <time>2021-08-16T16:41:31Z</time>
      </trkpt>
      <trkpt lat="44.83548" lon="1.7365">
        <ele>413.02</ele>
        <time>2021-08-16T16:41:32Z</time>
      </trkpt>
      <trkpt lat="44.83547" lon="1.73639">
        <ele>412.54</ele>
        <time>2021-08-16T16:41:33Z</time>
      </trkpt>
      <trkpt lat="44.83537" lon="1.73581">
        <ele>409.18</ele>
        <time>2021-08-16T16:41:38Z</time>
      </trkpt>
      <trkpt lat="44.83534" lon="1.7356">
        <ele>407.74</ele>
        <time>2021-08-16T16:41:40Z</time>
      </trkpt>
      <trkpt lat="44.83534" lon="1.7355">
        <ele>407.26</ele>
        <time>2021-08-16T16:41:41Z</time>
      </trkpt>
      <trkpt lat="44.83534" lon="1.73539">
        <ele>406.77</ele>
        <time>2021-08-16T16:41:42Z</time>
      </trkpt>
      <trkpt lat="44.83532" lon="1.7353">
        <ele>405.81</ele>
        <time>2021-08-16T16:41:43Z</time>
      </trkpt>
      <trkpt lat="44.83528" lon="1.73521">
        <ele>405.81</ele>
        <time>2021-08-16T16:41:44Z</time>
      </trkpt>
      <trkpt lat="44.83524" lon="1.73514">
        <ele>404.85</ele>
        <time>2021-08-16T16:41:45Z</time>
      </trkpt>
      <trkpt lat="44.83518" lon="1.73506">
        <ele>404.37</ele>
        <time>2021-08-16T16:41:46Z</time>
      </trkpt>
      <trkpt lat="44.83488" lon="1.73467">
        <ele>401.01</ele>
        <time>2021-08-16T16:41:51Z</time>
      </trkpt>
      <trkpt lat="44.83478" lon="1.73449">
        <ele>399.57</ele>
        <time>2021-08-16T16:41:53Z</time>
      </trkpt>
      <trkpt lat="44.83475" lon="1.73439">
        <ele>399.08</ele>
        <time>2021-08-16T16:41:54Z</time>
      </trkpt>
      <trkpt lat="44.83473" lon="1.73427">
        <ele>397.64</ele>
        <time>2021-08-16T16:41:55Z</time>
      </trkpt>
      <trkpt lat="44.83473" lon="1.73414">
        <ele>396.68</ele>
        <time>2021-08-16T16:41:56Z</time>
      </trkpt>
      <trkpt lat="44.83473" lon="1.73401">
        <ele>395.24</ele>
        <time>2021-08-16T16:41:57Z</time>
      </trkpt>
      <trkpt lat="44.83475" lon="1.73387">
        <ele>393.8</ele>
        <time>2021-08-16T16:41:58Z</time>
      </trkpt>
      <trkpt lat="44.83478" lon="1.73374">
        <ele>392.84</ele>
        <time>2021-08-16T16:41:59Z</time>
      </trkpt>
      <trkpt lat="44.83483" lon="1.73361">
        <ele>391.87</ele>
        <time>2021-08-16T16:42:00Z</time>
      </trkpt>
      <trkpt lat="44.83488" lon="1.73349">
        <ele>390.91</ele>
        <time>2021-08-16T16:42:01Z</time>
      </trkpt>
      <trkpt lat="44.835" lon="1.73326">
        <ele>388.99</ele>
        <time>2021-08-16T16:42:03Z</time>
      </trkpt>
      <trkpt lat="44.83506" lon="1.73317">
        <ele>388.03</ele>
        <time>2021-08-16T16:42:04Z</time>
      </trkpt>
      <trkpt lat="44.83514" lon="1.73307">
        <ele>387.07</ele>
        <time>2021-08-16T16:42:05Z</time>
      </trkpt>
      <trkpt lat="44.83522" lon="1.73301">
        <ele>386.59</ele>
        <time>2021-08-16T16:42:06Z</time>
      </trkpt>
      <trkpt lat="44.83531" lon="1.73294">
        <ele>385.63</ele>
        <time>2021-08-16T16:42:07Z</time>
      </trkpt>
      <trkpt lat="44.83541" lon="1.73288">
        <ele>384.66</ele>
        <time>2021-08-16T16:42:08Z</time>
      </trkpt>
      <trkpt lat="44.83582" lon="1.73261">
        <ele>380.34</ele>
        <time>2021-08-16T16:42:12Z</time>
      </trkpt>
      <trkpt lat="44.83609" lon="1.73238">
        <ele>377.45</ele>
        <time>2021-08-16T16:42:15Z</time>
      </trkpt>
      <trkpt lat="44.83616" lon="1.7323">
        <ele>377.94</ele>
        <time>2021-08-16T16:42:16Z</time>
      </trkpt>
      <trkpt lat="44.83656" lon="1.73188">
        <ele>375.05</ele>
        <time>2021-08-16T16:42:22Z</time>
      </trkpt>
      <trkpt lat="44.83678" lon="1.73167">
        <ele>371.69</ele>
        <time>2021-08-16T16:42:25Z</time>
      </trkpt>
      <trkpt lat="44.83699" lon="1.73146">
        <ele>368.32</ele>
        <time>2021-08-16T16:42:28Z</time>
      </trkpt>
      <trkpt lat="44.83704" lon="1.7314">
        <ele>367.36</ele>
        <time>2021-08-16T16:42:29Z</time>
      </trkpt>
      <trkpt lat="44.8371" lon="1.73132">
        <ele>366.4</ele>
        <time>2021-08-16T16:42:30Z</time>
      </trkpt>
      <trkpt lat="44.83714" lon="1.73124">
        <ele>365.44</ele>
        <time>2021-08-16T16:42:31Z</time>
      </trkpt>
      <trkpt lat="44.83719" lon="1.73113">
        <ele>363.52</ele>
        <time>2021-08-16T16:42:32Z</time>
      </trkpt>
      <trkpt lat="44.83723" lon="1.73101">
        <ele>362.55</ele>
        <time>2021-08-16T16:42:33Z</time>
      </trkpt>
      <trkpt lat="44.83736" lon="1.73062">
        <ele>359.19</ele>
        <time>2021-08-16T16:42:36Z</time>
      </trkpt>
      <trkpt lat="44.83755" lon="1.73004">
        <ele>355.34</ele>
        <time>2021-08-16T16:42:40Z</time>
      </trkpt>
      <trkpt lat="44.83762" lon="1.72977">
        <ele>354.38</ele>
        <time>2021-08-16T16:42:42Z</time>
      </trkpt>
      <trkpt lat="44.83765" lon="1.72962">
        <ele>354.38</ele>
        <time>2021-08-16T16:42:43Z</time>
      </trkpt>
      <trkpt lat="44.83766" lon="1.72947">
        <ele>354.38</ele>
        <time>2021-08-16T16:42:44Z</time>
      </trkpt>
      <trkpt lat="44.83766" lon="1.72935">
        <ele>353.42</ele>
        <time>2021-08-16T16:42:45Z</time>
      </trkpt>
      <trkpt lat="44.83762" lon="1.72877">
        <ele>354.38</ele>
        <time>2021-08-16T16:42:50Z</time>
      </trkpt>
      <trkpt lat="44.83762" lon="1.72816">
        <ele>352.94</ele>
        <time>2021-08-16T16:42:56Z</time>
      </trkpt>
      <trkpt lat="44.83763" lon="1.72795">
        <ele>352.46</ele>
        <time>2021-08-16T16:42:58Z</time>
      </trkpt>
      <trkpt lat="44.83762" lon="1.7273">
        <ele>349.58</ele>
        <time>2021-08-16T16:43:04Z</time>
      </trkpt>
      <trkpt lat="44.8376" lon="1.72719">
        <ele>349.58</ele>
        <time>2021-08-16T16:43:05Z</time>
      </trkpt>
      <trkpt lat="44.83753" lon="1.72686">
        <ele>346.21</ele>
        <time>2021-08-16T16:43:08Z</time>
      </trkpt>
      <trkpt lat="44.83744" lon="1.72649">
        <ele>342.85</ele>
        <time>2021-08-16T16:43:11Z</time>
      </trkpt>
      <trkpt lat="44.83736" lon="1.72622">
        <ele>339.96</ele>
        <time>2021-08-16T16:43:13Z</time>
      </trkpt>
      <trkpt lat="44.83721" lon="1.72572">
        <ele>335.64</ele>
        <time>2021-08-16T16:43:17Z</time>
      </trkpt>
      <trkpt lat="44.83712" lon="1.72543">
        <ele>334.2</ele>
        <time>2021-08-16T16:43:21Z</time>
      </trkpt>
      <trkpt lat="44.83705" lon="1.72531">
        <ele>333.23</ele>
        <time>2021-08-16T16:43:24Z</time>
      </trkpt>
      <trkpt lat="44.83702" lon="1.72527">
        <ele>333.23</ele>
        <time>2021-08-16T16:43:25Z</time>
      </trkpt>
      <trkpt lat="44.83698" lon="1.72523">
        <ele>332.27</ele>
        <time>2021-08-16T16:43:26Z</time>
      </trkpt>
      <trkpt lat="44.83691" lon="1.72514">
        <ele>331.79</ele>
        <time>2021-08-16T16:43:30Z</time>
      </trkpt>
      <trkpt lat="44.8369" lon="1.72512">
        <ele>332.27</ele>
        <time>2021-08-16T16:43:41Z</time>
      </trkpt>
      <trkpt lat="44.8369" lon="1.72509">
        <ele>332.27</ele>
        <time>2021-08-16T16:43:51Z</time>
      </trkpt>
      <trkpt lat="44.8369" lon="1.72506">
        <ele>332.27</ele>
        <time>2021-08-16T16:44:15Z</time>
      </trkpt>
      <trkpt lat="44.83689" lon="1.72509">
        <ele>332.27</ele>
        <time>2021-08-16T16:44:35Z</time>
      </trkpt>
      <trkpt lat="44.8369" lon="1.72511">
        <ele>332.27</ele>
        <time>2021-08-16T16:44:37Z</time>
      </trkpt>
      <trkpt lat="44.83696" lon="1.72515">
        <ele>332.27</ele>
        <time>2021-08-16T16:44:44Z</time>
      </trkpt>
      <trkpt lat="44.83701" lon="1.7252">
        <ele>332.27</ele>
        <time>2021-08-16T16:44:51Z</time>
      </trkpt>
      <trkpt lat="44.83705" lon="1.72526">
        <ele>333.71</ele>
        <time>2021-08-16T16:44:58Z</time>
      </trkpt>
      <trkpt lat="44.83709" lon="1.72528">
        <ele>334.2</ele>
        <time>2021-08-16T16:45:03Z</time>
      </trkpt>
      <trkpt lat="44.8371" lon="1.72528">
        <ele>334.2</ele>
        <time>2021-08-16T16:45:04Z</time>
      </trkpt>
      <trkpt lat="44.83712" lon="1.72525">
        <ele>334.2</ele>
        <time>2021-08-16T16:45:10Z</time>
      </trkpt>
      <trkpt lat="44.83712" lon="1.72524">
        <ele>334.2</ele>
        <time>2021-08-16T16:45:11Z</time>
      </trkpt>
      <trkpt lat="44.83711" lon="1.72512">
        <ele>334.2</ele>
        <time>2021-08-16T16:45:16Z</time>
      </trkpt>
      <trkpt lat="44.83709" lon="1.72509">
        <ele>334.2</ele>
        <time>2021-08-16T16:45:17Z</time>
      </trkpt>
      <trkpt lat="44.83708" lon="1.72506">
        <ele>334.2</ele>
        <time>2021-08-16T16:45:18Z</time>
      </trkpt>
      <trkpt lat="44.83702" lon="1.72482">
        <ele>332.75</ele>
        <time>2021-08-16T16:45:23Z</time>
      </trkpt>
      <trkpt lat="44.83699" lon="1.72468">
        <ele>332.75</ele>
        <time>2021-08-16T16:45:28Z</time>
      </trkpt>
      <trkpt lat="44.83695" lon="1.72445">
        <ele>332.27</ele>
        <time>2021-08-16T16:45:34Z</time>
      </trkpt>
      <trkpt lat="44.8369" lon="1.72408">
        <ele>330.83</ele>
        <time>2021-08-16T16:45:41Z</time>
      </trkpt>
      <trkpt lat="44.83686" lon="1.72372">
        <ele>330.35</ele>
        <time>2021-08-16T16:45:49Z</time>
      </trkpt>
      <trkpt lat="44.83681" lon="1.7235">
        <ele>329.39</ele>
        <time>2021-08-16T16:45:56Z</time>
      </trkpt>
      <trkpt lat="44.83675" lon="1.72335">
        <ele>328.91</ele>
        <time>2021-08-16T16:46:02Z</time>
      </trkpt>
      <trkpt lat="44.83675" lon="1.7233">
        <ele>328.91</ele>
        <time>2021-08-16T16:46:04Z</time>
      </trkpt>
      <trkpt lat="44.83678" lon="1.72316">
        <ele>328.91</ele>
        <time>2021-08-16T16:46:11Z</time>
      </trkpt>
      <trkpt lat="44.83679" lon="1.72315">
        <ele>328.91</ele>
        <time>2021-08-16T16:46:12Z</time>
      </trkpt>
      <trkpt lat="44.83681" lon="1.7231">
        <ele>328.91</ele>
        <time>2021-08-16T16:46:14Z</time>
      </trkpt>
      <trkpt lat="44.83681" lon="1.72307">
        <ele>328.91</ele>
        <time>2021-08-16T16:46:15Z</time>
      </trkpt>
      <trkpt lat="44.83682" lon="1.72303">
        <ele>328.91</ele>
        <time>2021-08-16T16:46:16Z</time>
      </trkpt>
      <trkpt lat="44.83682" lon="1.72301">
        <ele>328.91</ele>
        <time>2021-08-16T16:46:17Z</time>
      </trkpt>
      <trkpt lat="44.83681" lon="1.72296">
        <ele>328.91</ele>
        <time>2021-08-16T16:46:18Z</time>
      </trkpt>
      <trkpt lat="44.83681" lon="1.72292">
        <ele>328.91</ele>
        <time>2021-08-16T16:46:19Z</time>
      </trkpt>
      <trkpt lat="44.83681" lon="1.72288">
        <ele>328.91</ele>
        <time>2021-08-16T16:46:20Z</time>
      </trkpt>
      <trkpt lat="44.83681" lon="1.72284">
        <ele>330.35</ele>
        <time>2021-08-16T16:46:21Z</time>
      </trkpt>
      <trkpt lat="44.83681" lon="1.7228">
        <ele>330.35</ele>
        <time>2021-08-16T16:46:22Z</time>
      </trkpt>
      <trkpt lat="44.8368" lon="1.72276">
        <ele>330.35</ele>
        <time>2021-08-16T16:46:23Z</time>
      </trkpt>
      <trkpt lat="44.83681" lon="1.72248">
        <ele>330.35</ele>
        <time>2021-08-16T16:46:31Z</time>
      </trkpt>
      <trkpt lat="44.83683" lon="1.7222">
        <ele>330.83</ele>
        <time>2021-08-16T16:46:39Z</time>
      </trkpt>
      <trkpt lat="44.83681" lon="1.72193">
        <ele>331.31</ele>
        <time>2021-08-16T16:46:47Z</time>
      </trkpt>
      <trkpt lat="44.83676" lon="1.72165">
        <ele>331.31</ele>
        <time>2021-08-16T16:46:55Z</time>
      </trkpt>
      <trkpt lat="44.83668" lon="1.72142">
        <ele>331.31</ele>
        <time>2021-08-16T16:47:03Z</time>
      </trkpt>
      <trkpt lat="44.83657" lon="1.72126">
        <ele>331.31</ele>
        <time>2021-08-16T16:47:08Z</time>
      </trkpt>
      <trkpt lat="44.83643" lon="1.72103">
        <ele>331.79</ele>
        <time>2021-08-16T16:47:17Z</time>
      </trkpt>
      <trkpt lat="44.83628" lon="1.72085">
        <ele>332.75</ele>
        <time>2021-08-16T16:47:24Z</time>
      </trkpt>
      <trkpt lat="44.83616" lon="1.72071">
        <ele>332.75</ele>
        <time>2021-08-16T16:47:29Z</time>
      </trkpt>
      <trkpt lat="44.83592" lon="1.72046">
        <ele>332.75</ele>
        <time>2021-08-16T16:47:37Z</time>
      </trkpt>
      <trkpt lat="44.83576" lon="1.72031">
        <ele>332.75</ele>
        <time>2021-08-16T16:47:42Z</time>
      </trkpt>
      <trkpt lat="44.83556" lon="1.7201">
        <ele>331.31</ele>
        <time>2021-08-16T16:47:48Z</time>
      </trkpt>
      <trkpt lat="44.8353" lon="1.71971">
        <ele>330.83</ele>
        <time>2021-08-16T16:47:56Z</time>
      </trkpt>
      <trkpt lat="44.83523" lon="1.7196">
        <ele>329.39</ele>
        <time>2021-08-16T16:47:58Z</time>
      </trkpt>
      <trkpt lat="44.83515" lon="1.7195">
        <ele>328.43</ele>
        <time>2021-08-16T16:48:00Z</time>
      </trkpt>
      <trkpt lat="44.83499" lon="1.71937">
        <ele>327.95</ele>
        <time>2021-08-16T16:48:03Z</time>
      </trkpt>
      <trkpt lat="44.83495" lon="1.71933">
        <ele>327.95</ele>
        <time>2021-08-16T16:48:04Z</time>
      </trkpt>
      <trkpt lat="44.83492" lon="1.71931">
        <ele>327.95</ele>
        <time>2021-08-16T16:48:05Z</time>
      </trkpt>
      <trkpt lat="44.83469" lon="1.71911">
        <ele>327.95</ele>
        <time>2021-08-16T16:48:12Z</time>
      </trkpt>
      <trkpt lat="44.83456" lon="1.71887">
        <ele>326.99</ele>
        <time>2021-08-16T16:48:18Z</time>
      </trkpt>
      <trkpt lat="44.83452" lon="1.71881">
        <ele>326.99</ele>
        <time>2021-08-16T16:48:19Z</time>
      </trkpt>
      <trkpt lat="44.83434" lon="1.71851">
        <ele>325.54</ele>
        <time>2021-08-16T16:48:24Z</time>
      </trkpt>
      <trkpt lat="44.83407" lon="1.71804">
        <ele>323.62</ele>
        <time>2021-08-16T16:48:32Z</time>
      </trkpt>
      <trkpt lat="44.83397" lon="1.71782">
        <ele>321.7</ele>
        <time>2021-08-16T16:48:35Z</time>
      </trkpt>
      <trkpt lat="44.83379" lon="1.71748">
        <ele>317.85</ele>
        <time>2021-08-16T16:48:40Z</time>
      </trkpt>
      <trkpt lat="44.83374" lon="1.71742">
        <ele>317.85</ele>
        <time>2021-08-16T16:48:41Z</time>
      </trkpt>
      <trkpt lat="44.83369" lon="1.71737">
        <ele>316.89</ele>
        <time>2021-08-16T16:48:42Z</time>
      </trkpt>
      <trkpt lat="44.83363" lon="1.71733">
        <ele>315.93</ele>
        <time>2021-08-16T16:48:43Z</time>
      </trkpt>
      <trkpt lat="44.83345" lon="1.71723">
        <ele>314.01</ele>
        <time>2021-08-16T16:48:46Z</time>
      </trkpt>
      <trkpt lat="44.83339" lon="1.71721">
        <ele>314.01</ele>
        <time>2021-08-16T16:48:47Z</time>
      </trkpt>
      <trkpt lat="44.83322" lon="1.71712">
        <ele>312.09</ele>
        <time>2021-08-16T16:48:50Z</time>
      </trkpt>
      <trkpt lat="44.83317" lon="1.71709">
        <ele>312.09</ele>
        <time>2021-08-16T16:48:51Z</time>
      </trkpt>
      <trkpt lat="44.83314" lon="1.71705">
        <ele>312.09</ele>
        <time>2021-08-16T16:48:52Z</time>
      </trkpt>
      <trkpt lat="44.83312" lon="1.71702">
        <ele>312.09</ele>
        <time>2021-08-16T16:48:53Z</time>
      </trkpt>
      <trkpt lat="44.8331" lon="1.71701">
        <ele>312.09</ele>
        <time>2021-08-16T16:48:54Z</time>
      </trkpt>
      <trkpt lat="44.83308" lon="1.71697">
        <ele>313.53</ele>
        <time>2021-08-16T16:48:58Z</time>
      </trkpt>
      <trkpt lat="44.83303" lon="1.71685">
        <ele>314.97</ele>
        <time>2021-08-16T16:49:08Z</time>
      </trkpt>
      <trkpt lat="44.833" lon="1.7167">
        <ele>316.41</ele>
        <time>2021-08-16T16:49:18Z</time>
      </trkpt>
      <trkpt lat="44.833" lon="1.71668">
        <ele>316.41</ele>
        <time>2021-08-16T16:49:19Z</time>
      </trkpt>
      <trkpt lat="44.83299" lon="1.71659">
        <ele>316.89</ele>
        <time>2021-08-16T16:49:28Z</time>
      </trkpt>
      <trkpt lat="44.83299" lon="1.71646">
        <ele>317.37</ele>
        <time>2021-08-16T16:49:36Z</time>
      </trkpt>
      <trkpt lat="44.83298" lon="1.71625">
        <ele>318.33</ele>
        <time>2021-08-16T16:49:44Z</time>
      </trkpt>
      <trkpt lat="44.8329" lon="1.71598">
        <ele>319.78</ele>
        <time>2021-08-16T16:49:54Z</time>
      </trkpt>
      <trkpt lat="44.8328" lon="1.71577">
        <ele>319.78</ele>
        <time>2021-08-16T16:50:00Z</time>
      </trkpt>
      <trkpt lat="44.83262" lon="1.71533">
        <ele>319.78</ele>
        <time>2021-08-16T16:50:10Z</time>
      </trkpt>
      <trkpt lat="44.83246" lon="1.71506">
        <ele>320.26</ele>
        <time>2021-08-16T16:50:18Z</time>
      </trkpt>
      <trkpt lat="44.83232" lon="1.71485">
        <ele>321.22</ele>
        <time>2021-08-16T16:50:26Z</time>
      </trkpt>
      <trkpt lat="44.83221" lon="1.71473">
        <ele>322.18</ele>
        <time>2021-08-16T16:50:33Z</time>
      </trkpt>
      <trkpt lat="44.83208" lon="1.71464">
        <ele>323.62</ele>
        <time>2021-08-16T16:50:41Z</time>
      </trkpt>
      <trkpt lat="44.83201" lon="1.71457">
        <ele>324.58</ele>
        <time>2021-08-16T16:50:47Z</time>
      </trkpt>
      <trkpt lat="44.832" lon="1.71455">
        <ele>324.58</ele>
        <time>2021-08-16T16:50:48Z</time>
      </trkpt>
      <trkpt lat="44.832" lon="1.71453">
        <ele>324.58</ele>
        <time>2021-08-16T16:50:49Z</time>
      </trkpt>
      <trkpt lat="44.83199" lon="1.71451">
        <ele>324.58</ele>
        <time>2021-08-16T16:50:50Z</time>
      </trkpt>
      <trkpt lat="44.83198" lon="1.71449">
        <ele>324.58</ele>
        <time>2021-08-16T16:50:51Z</time>
      </trkpt>
      <trkpt lat="44.83197" lon="1.71446">
        <ele>324.58</ele>
        <time>2021-08-16T16:50:52Z</time>
      </trkpt>
      <trkpt lat="44.83197" lon="1.71443">
        <ele>324.58</ele>
        <time>2021-08-16T16:50:53Z</time>
      </trkpt>
      <trkpt lat="44.83198" lon="1.7144">
        <ele>324.58</ele>
        <time>2021-08-16T16:50:54Z</time>
      </trkpt>
      <trkpt lat="44.83198" lon="1.71436">
        <ele>324.58</ele>
        <time>2021-08-16T16:50:55Z</time>
      </trkpt>
      <trkpt lat="44.83205" lon="1.71404">
        <ele>322.66</ele>
        <time>2021-08-16T16:51:00Z</time>
      </trkpt>
      <trkpt lat="44.83206" lon="1.71396">
        <ele>322.66</ele>
        <time>2021-08-16T16:51:01Z</time>
      </trkpt>
      <trkpt lat="44.83207" lon="1.71388">
        <ele>321.7</ele>
        <time>2021-08-16T16:51:02Z</time>
      </trkpt>
      <trkpt lat="44.83207" lon="1.71379">
        <ele>321.7</ele>
        <time>2021-08-16T16:51:03Z</time>
      </trkpt>
      <trkpt lat="44.83207" lon="1.7137">
        <ele>321.22</ele>
        <time>2021-08-16T16:51:04Z</time>
      </trkpt>
      <trkpt lat="44.83209" lon="1.71321">
        <ele>317.37</ele>
        <time>2021-08-16T16:51:09Z</time>
      </trkpt>
      <trkpt lat="44.83215" lon="1.71258">
        <ele>314.97</ele>
        <time>2021-08-16T16:51:14Z</time>
      </trkpt>
      <trkpt lat="44.83218" lon="1.71182">
        <ele>312.09</ele>
        <time>2021-08-16T16:51:20Z</time>
      </trkpt>
      <trkpt lat="44.83221" lon="1.71158">
        <ele>311.12</ele>
        <time>2021-08-16T16:51:22Z</time>
      </trkpt>
      <trkpt lat="44.83221" lon="1.71146">
        <ele>310.64</ele>
        <time>2021-08-16T16:51:23Z</time>
      </trkpt>
      <trkpt lat="44.8322" lon="1.71136">
        <ele>310.64</ele>
        <time>2021-08-16T16:51:24Z</time>
      </trkpt>
      <trkpt lat="44.83218" lon="1.71118">
        <ele>310.64</ele>
        <time>2021-08-16T16:51:26Z</time>
      </trkpt>
      <trkpt lat="44.83218" lon="1.711">
        <ele>311.12</ele>
        <time>2021-08-16T16:51:28Z</time>
      </trkpt>
      <trkpt lat="44.8322" lon="1.71076">
        <ele>311.12</ele>
        <time>2021-08-16T16:51:31Z</time>
      </trkpt>
      <trkpt lat="44.83219" lon="1.71068">
        <ele>311.12</ele>
        <time>2021-08-16T16:51:32Z</time>
      </trkpt>
      <trkpt lat="44.83218" lon="1.71062">
        <ele>311.12</ele>
        <time>2021-08-16T16:51:33Z</time>
      </trkpt>
      <trkpt lat="44.83216" lon="1.71055">
        <ele>311.12</ele>
        <time>2021-08-16T16:51:34Z</time>
      </trkpt>
      <trkpt lat="44.83214" lon="1.7105">
        <ele>312.09</ele>
        <time>2021-08-16T16:51:35Z</time>
      </trkpt>
      <trkpt lat="44.83212" lon="1.71046">
        <ele>312.09</ele>
        <time>2021-08-16T16:51:36Z</time>
      </trkpt>
      <trkpt lat="44.8321" lon="1.71042">
        <ele>312.09</ele>
        <time>2021-08-16T16:51:37Z</time>
      </trkpt>
      <trkpt lat="44.83196" lon="1.71022">
        <ele>313.05</ele>
        <time>2021-08-16T16:51:44Z</time>
      </trkpt>
      <trkpt lat="44.83194" lon="1.71016">
        <ele>313.53</ele>
        <time>2021-08-16T16:51:48Z</time>
      </trkpt>
      <trkpt lat="44.83196" lon="1.71005">
        <ele>311.12</ele>
        <time>2021-08-16T16:51:52Z</time>
      </trkpt>
      <trkpt lat="44.83198" lon="1.70998">
        <ele>310.64</ele>
        <time>2021-08-16T16:51:53Z</time>
      </trkpt>
      <trkpt lat="44.83215" lon="1.70944">
        <ele>307.28</ele>
        <time>2021-08-16T16:51:59Z</time>
      </trkpt>
      <trkpt lat="44.83233" lon="1.70916">
        <ele>307.28</ele>
        <time>2021-08-16T16:52:03Z</time>
      </trkpt>
      <trkpt lat="44.83242" lon="1.70903">
        <ele>306.32</ele>
        <time>2021-08-16T16:52:05Z</time>
      </trkpt>
      <trkpt lat="44.83272" lon="1.7088">
        <ele>301.99</ele>
        <time>2021-08-16T16:52:10Z</time>
      </trkpt>
      <trkpt lat="44.83276" lon="1.70872">
        <ele>301.99</ele>
        <time>2021-08-16T16:52:11Z</time>
      </trkpt>
      <trkpt lat="44.83279" lon="1.70865">
        <ele>301.99</ele>
        <time>2021-08-16T16:52:12Z</time>
      </trkpt>
      <trkpt lat="44.8329" lon="1.7081">
        <ele>301.99</ele>
        <time>2021-08-16T16:52:19Z</time>
      </trkpt>
      <trkpt lat="44.83298" lon="1.70777">
        <ele>301.99</ele>
        <time>2021-08-16T16:52:25Z</time>
      </trkpt>
      <trkpt lat="44.83305" lon="1.70751">
        <ele>301.99</ele>
        <time>2021-08-16T16:52:30Z</time>
      </trkpt>
      <trkpt lat="44.83306" lon="1.7072">
        <ele>301.99</ele>
        <time>2021-08-16T16:52:35Z</time>
      </trkpt>
      <trkpt lat="44.83308" lon="1.70701">
        <ele>301.51</ele>
        <time>2021-08-16T16:52:38Z</time>
      </trkpt>
      <trkpt lat="44.83305" lon="1.70663">
        <ele>301.51</ele>
        <time>2021-08-16T16:52:45Z</time>
      </trkpt>
      <trkpt lat="44.83299" lon="1.70617">
        <ele>301.51</ele>
        <time>2021-08-16T16:52:54Z</time>
      </trkpt>
      <trkpt lat="44.83283" lon="1.70579">
        <ele>301.03</ele>
        <time>2021-08-16T16:53:02Z</time>
      </trkpt>
      <trkpt lat="44.83281" lon="1.70574">
        <ele>301.03</ele>
        <time>2021-08-16T16:53:03Z</time>
      </trkpt>
      <trkpt lat="44.83278" lon="1.7057">
        <ele>301.03</ele>
        <time>2021-08-16T16:53:04Z</time>
      </trkpt>
      <trkpt lat="44.8326" lon="1.70551">
        <ele>301.03</ele>
        <time>2021-08-16T16:53:11Z</time>
      </trkpt>
      <trkpt lat="44.83246" lon="1.70538">
        <ele>301.99</ele>
        <time>2021-08-16T16:53:18Z</time>
      </trkpt>
      <trkpt lat="44.83231" lon="1.70524">
        <ele>302.95</ele>
        <time>2021-08-16T16:53:26Z</time>
      </trkpt>
      <trkpt lat="44.83216" lon="1.70509">
        <ele>303.43</ele>
        <time>2021-08-16T16:53:34Z</time>
      </trkpt>
      <trkpt lat="44.83197" lon="1.7049">
        <ele>304.88</ele>
        <time>2021-08-16T16:53:43Z</time>
      </trkpt>
      <trkpt lat="44.83177" lon="1.7047">
        <ele>304.88</ele>
        <time>2021-08-16T16:53:53Z</time>
      </trkpt>
      <trkpt lat="44.83158" lon="1.70454">
        <ele>304.88</ele>
        <time>2021-08-16T16:54:01Z</time>
      </trkpt>
      <trkpt lat="44.83136" lon="1.70445">
        <ele>305.36</ele>
        <time>2021-08-16T16:54:09Z</time>
      </trkpt>
      <trkpt lat="44.83109" lon="1.70424">
        <ele>305.36</ele>
        <time>2021-08-16T16:54:19Z</time>
      </trkpt>
      <trkpt lat="44.83084" lon="1.70405">
        <ele>306.32</ele>
        <time>2021-08-16T16:54:29Z</time>
      </trkpt>
      <trkpt lat="44.83064" lon="1.70388">
        <ele>305.84</ele>
        <time>2021-08-16T16:54:37Z</time>
      </trkpt>
      <trkpt lat="44.83047" lon="1.70369">
        <ele>307.28</ele>
        <time>2021-08-16T16:54:46Z</time>
      </trkpt>
      <trkpt lat="44.83035" lon="1.70355">
        <ele>308.72</ele>
        <time>2021-08-16T16:54:54Z</time>
      </trkpt>
      <trkpt lat="44.83032" lon="1.70353">
        <ele>309.2</ele>
        <time>2021-08-16T16:54:56Z</time>
      </trkpt>
      <trkpt lat="44.8303" lon="1.70351">
        <ele>309.2</ele>
        <time>2021-08-16T16:54:57Z</time>
      </trkpt>
      <trkpt lat="44.83029" lon="1.70349">
        <ele>309.2</ele>
        <time>2021-08-16T16:54:58Z</time>
      </trkpt>
      <trkpt lat="44.83028" lon="1.70346">
        <ele>309.68</ele>
        <time>2021-08-16T16:54:59Z</time>
      </trkpt>
      <trkpt lat="44.83027" lon="1.70344">
        <ele>309.68</ele>
        <time>2021-08-16T16:55:00Z</time>
      </trkpt>
      <trkpt lat="44.83026" lon="1.70342">
        <ele>309.68</ele>
        <time>2021-08-16T16:55:01Z</time>
      </trkpt>
      <trkpt lat="44.83024" lon="1.7034">
        <ele>309.68</ele>
        <time>2021-08-16T16:55:02Z</time>
      </trkpt>
      <trkpt lat="44.83017" lon="1.70324">
        <ele>310.64</ele>
        <time>2021-08-16T16:55:10Z</time>
      </trkpt>
      <trkpt lat="44.83012" lon="1.70315">
        <ele>311.12</ele>
        <time>2021-08-16T16:55:14Z</time>
      </trkpt>
      <trkpt lat="44.83011" lon="1.70314">
        <ele>311.12</ele>
        <time>2021-08-16T16:55:15Z</time>
      </trkpt>
      <trkpt lat="44.82999" lon="1.70296">
        <ele>312.09</ele>
        <time>2021-08-16T16:55:23Z</time>
      </trkpt>
      <trkpt lat="44.8299" lon="1.70284">
        <ele>313.05</ele>
        <time>2021-08-16T16:55:30Z</time>
      </trkpt>
      <trkpt lat="44.82989" lon="1.70282">
        <ele>313.05</ele>
        <time>2021-08-16T16:55:31Z</time>
      </trkpt>
      <trkpt lat="44.82988" lon="1.70281">
        <ele>313.53</ele>
        <time>2021-08-16T16:55:32Z</time>
      </trkpt>
      <trkpt lat="44.82979" lon="1.70264">
        <ele>314.01</ele>
        <time>2021-08-16T16:55:41Z</time>
      </trkpt>
      <trkpt lat="44.82972" lon="1.70252">
        <ele>315.45</ele>
        <time>2021-08-16T16:55:49Z</time>
      </trkpt>
      <trkpt lat="44.82963" lon="1.7024">
        <ele>316.89</ele>
        <time>2021-08-16T16:55:57Z</time>
      </trkpt>
      <trkpt lat="44.82956" lon="1.70232">
        <ele>317.85</ele>
        <time>2021-08-16T16:56:05Z</time>
      </trkpt>
      <trkpt lat="44.82951" lon="1.70223">
        <ele>318.81</ele>
        <time>2021-08-16T16:56:12Z</time>
      </trkpt>
      <trkpt lat="44.82946" lon="1.70211">
        <ele>320.26</ele>
        <time>2021-08-16T16:56:21Z</time>
      </trkpt>
      <trkpt lat="44.82942" lon="1.70199">
        <ele>321.7</ele>
        <time>2021-08-16T16:56:30Z</time>
      </trkpt>
      <trkpt lat="44.82939" lon="1.70184">
        <ele>322.66</ele>
        <time>2021-08-16T16:56:39Z</time>
      </trkpt>
      <trkpt lat="44.82936" lon="1.70165">
        <ele>324.1</ele>
        <time>2021-08-16T16:56:49Z</time>
      </trkpt>
      <trkpt lat="44.82934" lon="1.70141">
        <ele>325.54</ele>
        <time>2021-08-16T16:56:59Z</time>
      </trkpt>
      <trkpt lat="44.82933" lon="1.70125">
        <ele>326.5</ele>
        <time>2021-08-16T16:57:08Z</time>
      </trkpt>
      <trkpt lat="44.82932" lon="1.70109">
        <ele>327.95</ele>
        <time>2021-08-16T16:57:18Z</time>
      </trkpt>
      <trkpt lat="44.82932" lon="1.70093">
        <ele>328.91</ele>
        <time>2021-08-16T16:57:27Z</time>
      </trkpt>
      <trkpt lat="44.8293" lon="1.70076">
        <ele>330.35</ele>
        <time>2021-08-16T16:57:36Z</time>
      </trkpt>
      <trkpt lat="44.8293" lon="1.70065">
        <ele>331.79</ele>
        <time>2021-08-16T16:57:45Z</time>
      </trkpt>
      <trkpt lat="44.82931" lon="1.70055">
        <ele>332.75</ele>
        <time>2021-08-16T16:57:53Z</time>
      </trkpt>
      <trkpt lat="44.82931" lon="1.70036">
        <ele>334.68</ele>
        <time>2021-08-16T16:58:03Z</time>
      </trkpt>
      <trkpt lat="44.8293" lon="1.70025">
        <ele>336.12</ele>
        <time>2021-08-16T16:58:11Z</time>
      </trkpt>
      <trkpt lat="44.82929" lon="1.70015">
        <ele>337.08</ele>
        <time>2021-08-16T16:58:18Z</time>
      </trkpt>
      <trkpt lat="44.82928" lon="1.70005">
        <ele>338.04</ele>
        <time>2021-08-16T16:58:25Z</time>
      </trkpt>
      <trkpt lat="44.82927" lon="1.69985">
        <ele>339.48</ele>
        <time>2021-08-16T16:58:34Z</time>
      </trkpt>
      <trkpt lat="44.82926" lon="1.69982">
        <ele>339.48</ele>
        <time>2021-08-16T16:58:36Z</time>
      </trkpt>
      <trkpt lat="44.82925" lon="1.69981">
        <ele>339.96</ele>
        <time>2021-08-16T16:58:37Z</time>
      </trkpt>
      <trkpt lat="44.8292" lon="1.6997">
        <ele>340.92</ele>
        <time>2021-08-16T16:58:45Z</time>
      </trkpt>
      <trkpt lat="44.82917" lon="1.69964">
        <ele>341.89</ele>
        <time>2021-08-16T16:58:53Z</time>
      </trkpt>
      <trkpt lat="44.82914" lon="1.69962">
        <ele>342.37</ele>
        <time>2021-08-16T16:59:00Z</time>
      </trkpt>
      <trkpt lat="44.8291" lon="1.6996">
        <ele>342.85</ele>
        <time>2021-08-16T16:59:14Z</time>
      </trkpt>
      <trkpt lat="44.82903" lon="1.69955">
        <ele>344.29</ele>
        <time>2021-08-16T16:59:22Z</time>
      </trkpt>
      <trkpt lat="44.829" lon="1.69948">
        <ele>345.73</ele>
        <time>2021-08-16T16:59:31Z</time>
      </trkpt>
      <trkpt lat="44.82902" lon="1.69934">
        <ele>348.13</ele>
        <time>2021-08-16T16:59:43Z</time>
      </trkpt>
      <trkpt lat="44.82903" lon="1.69926">
        <ele>349.1</ele>
        <time>2021-08-16T16:59:50Z</time>
      </trkpt>
      <trkpt lat="44.82903" lon="1.69924">
        <ele>349.1</ele>
        <time>2021-08-16T16:59:51Z</time>
      </trkpt>
      <trkpt lat="44.82902" lon="1.69906">
        <ele>350.54</ele>
        <time>2021-08-16T17:00:02Z</time>
      </trkpt>
      <trkpt lat="44.82902" lon="1.69893">
        <ele>351.5</ele>
        <time>2021-08-16T17:00:12Z</time>
      </trkpt>
      <trkpt lat="44.829" lon="1.69889">
        <ele>351.5</ele>
        <time>2021-08-16T17:00:17Z</time>
      </trkpt>
      <trkpt lat="44.82899" lon="1.69887">
        <ele>351.5</ele>
        <time>2021-08-16T17:00:18Z</time>
      </trkpt>
      <trkpt lat="44.82898" lon="1.69885">
        <ele>351.5</ele>
        <time>2021-08-16T17:00:19Z</time>
      </trkpt>
      <trkpt lat="44.82891" lon="1.69862">
        <ele>353.42</ele>
        <time>2021-08-16T17:00:29Z</time>
      </trkpt>
      <trkpt lat="44.82881" lon="1.6984">
        <ele>354.86</ele>
        <time>2021-08-16T17:00:39Z</time>
      </trkpt>
      <trkpt lat="44.82871" lon="1.69818">
        <ele>356.31</ele>
        <time>2021-08-16T17:00:49Z</time>
      </trkpt>
      <trkpt lat="44.82862" lon="1.69794">
        <ele>357.75</ele>
        <time>2021-08-16T17:00:59Z</time>
      </trkpt>
      <trkpt lat="44.82851" lon="1.69772">
        <ele>359.19</ele>
        <time>2021-08-16T17:01:10Z</time>
      </trkpt>
      <trkpt lat="44.82841" lon="1.69751">
        <ele>361.11</ele>
        <time>2021-08-16T17:01:20Z</time>
      </trkpt>
      <trkpt lat="44.82833" lon="1.6973">
        <ele>363.04</ele>
        <time>2021-08-16T17:01:31Z</time>
      </trkpt>
      <trkpt lat="44.82828" lon="1.69715">
        <ele>364.48</ele>
        <time>2021-08-16T17:01:40Z</time>
      </trkpt>
      <trkpt lat="44.82824" lon="1.69704">
        <ele>365.92</ele>
        <time>2021-08-16T17:01:47Z</time>
      </trkpt>
      <trkpt lat="44.82823" lon="1.69702">
        <ele>365.92</ele>
        <time>2021-08-16T17:01:48Z</time>
      </trkpt>
      <trkpt lat="44.82823" lon="1.69701">
        <ele>366.4</ele>
        <time>2021-08-16T17:01:49Z</time>
      </trkpt>
      <trkpt lat="44.82816" lon="1.69681">
        <ele>367.84</ele>
        <time>2021-08-16T17:02:01Z</time>
      </trkpt>
      <trkpt lat="44.8281" lon="1.69663">
        <ele>370.24</ele>
        <time>2021-08-16T17:02:12Z</time>
      </trkpt>
      <trkpt lat="44.82802" lon="1.6964">
        <ele>371.69</ele>
        <time>2021-08-16T17:02:23Z</time>
      </trkpt>
      <trkpt lat="44.82795" lon="1.69618">
        <ele>372.65</ele>
        <time>2021-08-16T17:02:32Z</time>
      </trkpt>
      <trkpt lat="44.82787" lon="1.69591">
        <ele>373.13</ele>
        <time>2021-08-16T17:02:42Z</time>
      </trkpt>
      <trkpt lat="44.82784" lon="1.69589">
        <ele>373.13</ele>
        <time>2021-08-16T17:02:43Z</time>
      </trkpt>
      <trkpt lat="44.82782" lon="1.69588">
        <ele>373.13</ele>
        <time>2021-08-16T17:02:44Z</time>
      </trkpt>
      <trkpt lat="44.82779" lon="1.69588">
        <ele>373.13</ele>
        <time>2021-08-16T17:02:45Z</time>
      </trkpt>
      <trkpt lat="44.82753" lon="1.69586">
        <ele>373.13</ele>
        <time>2021-08-16T17:02:53Z</time>
      </trkpt>
      <trkpt lat="44.82737" lon="1.69587">
        <ele>371.69</ele>
        <time>2021-08-16T17:02:57Z</time>
      </trkpt>
      <trkpt lat="44.8271" lon="1.69588">
        <ele>370.73</ele>
        <time>2021-08-16T17:03:03Z</time>
      </trkpt>
      <trkpt lat="44.82705" lon="1.69588">
        <ele>370.73</ele>
        <time>2021-08-16T17:03:04Z</time>
      </trkpt>
      <trkpt lat="44.82695" lon="1.69587">
        <ele>370.24</ele>
        <time>2021-08-16T17:03:06Z</time>
      </trkpt>
      <trkpt lat="44.82675" lon="1.69586">
        <ele>369.76</ele>
        <time>2021-08-16T17:03:10Z</time>
      </trkpt>
      <trkpt lat="44.82655" lon="1.69581">
        <ele>369.28</ele>
        <time>2021-08-16T17:03:14Z</time>
      </trkpt>
      <trkpt lat="44.82613" lon="1.69566">
        <ele>367.36</ele>
        <time>2021-08-16T17:03:22Z</time>
      </trkpt>
      <trkpt lat="44.82596" lon="1.69561">
        <ele>366.4</ele>
        <time>2021-08-16T17:03:25Z</time>
      </trkpt>
      <trkpt lat="44.82589" lon="1.69559">
        <ele>366.4</ele>
        <time>2021-08-16T17:03:26Z</time>
      </trkpt>
      <trkpt lat="44.82584" lon="1.69556">
        <ele>365.44</ele>
        <time>2021-08-16T17:03:27Z</time>
      </trkpt>
      <trkpt lat="44.82551" lon="1.69534">
        <ele>364</ele>
        <time>2021-08-16T17:03:35Z</time>
      </trkpt>
      <trkpt lat="44.8255" lon="1.6953">
        <ele>364</ele>
        <time>2021-08-16T17:03:36Z</time>
      </trkpt>
      <trkpt lat="44.82549" lon="1.69526">
        <ele>364</ele>
        <time>2021-08-16T17:03:37Z</time>
      </trkpt>
      <trkpt lat="44.82549" lon="1.69524">
        <ele>364</ele>
        <time>2021-08-16T17:03:38Z</time>
      </trkpt>
      <trkpt lat="44.82549" lon="1.69523">
        <ele>364</ele>
        <time>2021-08-16T17:03:44Z</time>
      </trkpt>
      <trkpt lat="44.82548" lon="1.69523">
        <ele>364</ele>
        <time>2021-08-16T17:04:02Z</time>
      </trkpt>
      <trkpt lat="44.82549" lon="1.69523">
        <ele>364</ele>
        <time>2021-08-16T17:04:19Z</time>
      </trkpt>
      <trkpt lat="44.82548" lon="1.69523">
        <ele>364</ele>
        <time>2021-08-16T17:04:36Z</time>
      </trkpt>
      <trkpt lat="44.82547" lon="1.69523">
        <ele>364</ele>
        <time>2021-08-16T17:04:49Z</time>
      </trkpt>
      <trkpt lat="44.82548" lon="1.69525">
        <ele>364</ele>
        <time>2021-08-16T17:04:53Z</time>
      </trkpt>
      <trkpt lat="44.82548" lon="1.69524">
        <ele>364</ele>
        <time>2021-08-16T17:05:09Z</time>
      </trkpt>
      <trkpt lat="44.82548" lon="1.69523">
        <ele>364</ele>
        <time>2021-08-16T17:05:21Z</time>
      </trkpt>
      <trkpt lat="44.82548" lon="1.69523">
        <ele>364</ele>
        <time>2021-08-16T17:05:36Z</time>
      </trkpt>
      <trkpt lat="44.82547" lon="1.69519">
        <ele>364</ele>
        <time>2021-08-16T17:05:49Z</time>
      </trkpt>
      <trkpt lat="44.82547" lon="1.69517">
        <ele>364</ele>
        <time>2021-08-16T17:05:50Z</time>
      </trkpt>
      <trkpt lat="44.82546" lon="1.69516">
        <ele>364</ele>
        <time>2021-08-16T17:05:51Z</time>
      </trkpt>
      <trkpt lat="44.82546" lon="1.69513">
        <ele>364</ele>
        <time>2021-08-16T17:05:52Z</time>
      </trkpt>
      <trkpt lat="44.82545" lon="1.6951">
        <ele>363.52</ele>
        <time>2021-08-16T17:05:53Z</time>
      </trkpt>
      <trkpt lat="44.82544" lon="1.69507">
        <ele>363.52</ele>
        <time>2021-08-16T17:05:54Z</time>
      </trkpt>
      <trkpt lat="44.82544" lon="1.69504">
        <ele>363.52</ele>
        <time>2021-08-16T17:05:55Z</time>
      </trkpt>
      <trkpt lat="44.82545" lon="1.695">
        <ele>363.04</ele>
        <time>2021-08-16T17:05:56Z</time>
      </trkpt>
      <trkpt lat="44.82549" lon="1.69463">
        <ele>363.04</ele>
        <time>2021-08-16T17:06:06Z</time>
      </trkpt>
      <trkpt lat="44.82557" lon="1.6943">
        <ele>362.55</ele>
        <time>2021-08-16T17:06:13Z</time>
      </trkpt>
      <trkpt lat="44.82558" lon="1.69424">
        <ele>362.55</ele>
        <time>2021-08-16T17:06:14Z</time>
      </trkpt>
      <trkpt lat="44.82559" lon="1.69418">
        <ele>362.07</ele>
        <time>2021-08-16T17:06:15Z</time>
      </trkpt>
      <trkpt lat="44.82561" lon="1.69412">
        <ele>362.07</ele>
        <time>2021-08-16T17:06:16Z</time>
      </trkpt>
      <trkpt lat="44.82562" lon="1.69405">
        <ele>361.59</ele>
        <time>2021-08-16T17:06:17Z</time>
      </trkpt>
      <trkpt lat="44.82563" lon="1.69399">
        <ele>361.59</ele>
        <time>2021-08-16T17:06:18Z</time>
      </trkpt>
      <trkpt lat="44.8258" lon="1.69335">
        <ele>360.15</ele>
        <time>2021-08-16T17:06:27Z</time>
      </trkpt>
      <trkpt lat="44.82594" lon="1.69269">
        <ele>359.67</ele>
        <time>2021-08-16T17:06:36Z</time>
      </trkpt>
      <trkpt lat="44.82608" lon="1.69203">
        <ele>359.19</ele>
        <time>2021-08-16T17:06:46Z</time>
      </trkpt>
      <trkpt lat="44.82617" lon="1.69137">
        <ele>358.71</ele>
        <time>2021-08-16T17:06:55Z</time>
      </trkpt>
      <trkpt lat="44.8262" lon="1.69058">
        <ele>357.75</ele>
        <time>2021-08-16T17:07:06Z</time>
      </trkpt>
      <trkpt lat="44.8262" lon="1.69002">
        <ele>357.75</ele>
        <time>2021-08-16T17:07:14Z</time>
      </trkpt>
      <trkpt lat="44.82618" lon="1.68963">
        <ele>357.75</ele>
        <time>2021-08-16T17:07:20Z</time>
      </trkpt>
      <trkpt lat="44.82617" lon="1.68961">
        <ele>357.75</ele>
        <time>2021-08-16T17:07:21Z</time>
      </trkpt>
      <trkpt lat="44.82615" lon="1.68963">
        <ele>357.75</ele>
        <time>2021-08-16T17:07:22Z</time>
      </trkpt>
      <trkpt lat="44.82615" lon="1.68965">
        <ele>357.75</ele>
        <time>2021-08-16T17:07:23Z</time>
      </trkpt>
      <trkpt lat="44.82615" lon="1.68968">
        <ele>357.75</ele>
        <time>2021-08-16T17:07:24Z</time>
      </trkpt>
      <trkpt lat="44.82615" lon="1.6897">
        <ele>357.75</ele>
        <time>2021-08-16T17:07:25Z</time>
      </trkpt>
      <trkpt lat="44.82615" lon="1.68973">
        <ele>357.75</ele>
        <time>2021-08-16T17:07:26Z</time>
      </trkpt>
      <trkpt lat="44.82616" lon="1.68977">
        <ele>357.75</ele>
        <time>2021-08-16T17:07:27Z</time>
      </trkpt>
      <trkpt lat="44.82616" lon="1.68981">
        <ele>357.75</ele>
        <time>2021-08-16T17:07:28Z</time>
      </trkpt>
      <trkpt lat="44.82617" lon="1.69009">
        <ele>359.19</ele>
        <time>2021-08-16T17:07:34Z</time>
      </trkpt>
      <trkpt lat="44.82615" lon="1.69025">
        <ele>359.67</ele>
        <time>2021-08-16T17:07:40Z</time>
      </trkpt>
      <trkpt lat="44.82618" lon="1.69027">
        <ele>359.67</ele>
        <time>2021-08-16T17:07:52Z</time>
      </trkpt>
      <trkpt lat="44.82618" lon="1.69032">
        <ele>359.67</ele>
        <time>2021-08-16T17:07:58Z</time>
      </trkpt>
      <trkpt lat="44.82618" lon="1.69031">
        <ele>359.19</ele>
        <time>2021-08-16T17:08:11Z</time>
      </trkpt>
      <trkpt lat="44.82618" lon="1.69031">
        <ele>359.19</ele>
        <time>2021-08-16T17:08:24Z</time>
      </trkpt>
      <trkpt lat="44.82619" lon="1.69031">
        <ele>359.19</ele>
        <time>2021-08-16T17:08:35Z</time>
      </trkpt>
      <trkpt lat="44.82619" lon="1.69032">
        <ele>359.19</ele>
        <time>2021-08-16T17:09:00Z</time>
      </trkpt>
      <trkpt lat="44.82618" lon="1.69032">
        <ele>359.19</ele>
        <time>2021-08-16T17:09:18Z</time>
      </trkpt>
      <trkpt lat="44.82618" lon="1.69032">
        <ele>359.19</ele>
        <time>2021-08-16T17:09:32Z</time>
      </trkpt>
      <trkpt lat="44.8262" lon="1.69031">
        <ele>359.19</ele>
        <time>2021-08-16T17:09:46Z</time>
      </trkpt>
      <trkpt lat="44.82624" lon="1.6903">
        <ele>359.19</ele>
        <time>2021-08-16T17:09:47Z</time>
      </trkpt>
      <trkpt lat="44.82626" lon="1.69031">
        <ele>359.19</ele>
        <time>2021-08-16T17:09:50Z</time>
      </trkpt>
      <trkpt lat="44.8263" lon="1.69032">
        <ele>359.19</ele>
        <time>2021-08-16T17:09:54Z</time>
      </trkpt>
      <trkpt lat="44.82627" lon="1.6903">
        <ele>359.19</ele>
        <time>2021-08-16T17:10:15Z</time>
      </trkpt>
      <trkpt lat="44.82626" lon="1.69031">
        <ele>359.19</ele>
        <time>2021-08-16T17:10:27Z</time>
      </trkpt>
      <trkpt lat="44.82627" lon="1.69032">
        <ele>358.71</ele>
        <time>2021-08-16T17:10:38Z</time>
      </trkpt>
      <trkpt lat="44.82625" lon="1.69031">
        <ele>358.71</ele>
        <time>2021-08-16T17:10:54Z</time>
      </trkpt>
      <trkpt lat="44.82622" lon="1.69032">
        <ele>358.71</ele>
        <time>2021-08-16T17:11:02Z</time>
      </trkpt>
      <trkpt lat="44.82623" lon="1.69033">
        <ele>358.71</ele>
        <time>2021-08-16T17:11:14Z</time>
      </trkpt>
      <trkpt lat="44.82621" lon="1.69033">
        <ele>358.71</ele>
        <time>2021-08-16T17:11:27Z</time>
      </trkpt>
      <trkpt lat="44.82622" lon="1.69034">
        <ele>358.23</ele>
        <time>2021-08-16T17:11:38Z</time>
      </trkpt>
      <trkpt lat="44.82621" lon="1.69035">
        <ele>358.71</ele>
        <time>2021-08-16T17:11:43Z</time>
      </trkpt>
      <trkpt lat="44.82621" lon="1.69034">
        <ele>358.23</ele>
        <time>2021-08-16T17:11:50Z</time>
      </trkpt>
      <trkpt lat="44.82621" lon="1.69036">
        <ele>358.23</ele>
        <time>2021-08-16T17:11:58Z</time>
      </trkpt>
      <trkpt lat="44.8262" lon="1.69034">
        <ele>358.23</ele>
        <time>2021-08-16T17:12:04Z</time>
      </trkpt>
      <trkpt lat="44.82619" lon="1.69023">
        <ele>358.23</ele>
        <time>2021-08-16T17:12:09Z</time>
      </trkpt>
      <trkpt lat="44.82618" lon="1.68984">
        <ele>356.79</ele>
        <time>2021-08-16T17:12:19Z</time>
      </trkpt>
      <trkpt lat="44.82614" lon="1.68936">
        <ele>355.34</ele>
        <time>2021-08-16T17:12:27Z</time>
      </trkpt>
      <trkpt lat="44.82611" lon="1.68903">
        <ele>354.38</ele>
        <time>2021-08-16T17:12:32Z</time>
      </trkpt>
      <trkpt lat="44.82608" lon="1.68856">
        <ele>350.54</ele>
        <time>2021-08-16T17:12:38Z</time>
      </trkpt>
      <trkpt lat="44.82607" lon="1.6884">
        <ele>350.06</ele>
        <time>2021-08-16T17:12:40Z</time>
      </trkpt>
      <trkpt lat="44.82612" lon="1.68796">
        <ele>347.65</ele>
        <time>2021-08-16T17:12:46Z</time>
      </trkpt>
      <trkpt lat="44.82614" lon="1.68788">
        <ele>347.17</ele>
        <time>2021-08-16T17:12:47Z</time>
      </trkpt>
      <trkpt lat="44.82628" lon="1.68744">
        <ele>343.81</ele>
        <time>2021-08-16T17:12:52Z</time>
      </trkpt>
      <trkpt lat="44.82641" lon="1.68701">
        <ele>340.44</ele>
        <time>2021-08-16T17:12:56Z</time>
      </trkpt>
      <trkpt lat="44.82656" lon="1.68651">
        <ele>337.08</ele>
        <time>2021-08-16T17:13:00Z</time>
      </trkpt>
      <trkpt lat="44.82671" lon="1.68597">
        <ele>333.71</ele>
        <time>2021-08-16T17:13:04Z</time>
      </trkpt>
      <trkpt lat="44.82673" lon="1.68584">
        <ele>332.75</ele>
        <time>2021-08-16T17:13:05Z</time>
      </trkpt>
      <trkpt lat="44.82674" lon="1.68565">
        <ele>331.79</ele>
        <time>2021-08-16T17:13:06Z</time>
      </trkpt>
      <trkpt lat="44.82673" lon="1.68553">
        <ele>331.31</ele>
        <time>2021-08-16T17:13:07Z</time>
      </trkpt>
      <trkpt lat="44.82672" lon="1.68534">
        <ele>330.35</ele>
        <time>2021-08-16T17:13:08Z</time>
      </trkpt>
      <trkpt lat="44.82669" lon="1.6852">
        <ele>328.91</ele>
        <time>2021-08-16T17:13:09Z</time>
      </trkpt>
      <trkpt lat="44.8266" lon="1.68471">
        <ele>325.54</ele>
        <time>2021-08-16T17:13:12Z</time>
      </trkpt>
      <trkpt lat="44.8265" lon="1.68419">
        <ele>321.7</ele>
        <time>2021-08-16T17:13:15Z</time>
      </trkpt>
      <trkpt lat="44.82637" lon="1.68348">
        <ele>318.33</ele>
        <time>2021-08-16T17:13:19Z</time>
      </trkpt>
      <trkpt lat="44.82629" lon="1.68312">
        <ele>316.89</ele>
        <time>2021-08-16T17:13:21Z</time>
      </trkpt>
      <trkpt lat="44.82605" lon="1.68233">
        <ele>315.93</ele>
        <time>2021-08-16T17:13:26Z</time>
      </trkpt>
      <trkpt lat="44.8259" lon="1.68158">
        <ele>315.45</ele>
        <time>2021-08-16T17:13:31Z</time>
      </trkpt>
      <trkpt lat="44.82585" lon="1.68108">
        <ele>315.93</ele>
        <time>2021-08-16T17:13:35Z</time>
      </trkpt>
      <trkpt lat="44.82584" lon="1.68099">
        <ele>315.45</ele>
        <time>2021-08-16T17:13:36Z</time>
      </trkpt>
      <trkpt lat="44.82583" lon="1.68091">
        <ele>315.45</ele>
        <time>2021-08-16T17:13:37Z</time>
      </trkpt>
      <trkpt lat="44.82583" lon="1.68084">
        <ele>315.45</ele>
        <time>2021-08-16T17:13:38Z</time>
      </trkpt>
      <trkpt lat="44.8258" lon="1.68054">
        <ele>315.45</ele>
        <time>2021-08-16T17:13:44Z</time>
      </trkpt>
      <trkpt lat="44.82577" lon="1.68049">
        <ele>315.45</ele>
        <time>2021-08-16T17:13:45Z</time>
      </trkpt>
      <trkpt lat="44.82575" lon="1.68046">
        <ele>315.45</ele>
        <time>2021-08-16T17:13:46Z</time>
      </trkpt>
      <trkpt lat="44.82573" lon="1.68042">
        <ele>315.45</ele>
        <time>2021-08-16T17:13:47Z</time>
      </trkpt>
      <trkpt lat="44.82572" lon="1.68039">
        <ele>315.45</ele>
        <time>2021-08-16T17:13:48Z</time>
      </trkpt>
      <trkpt lat="44.82571" lon="1.68036">
        <ele>315.45</ele>
        <time>2021-08-16T17:13:49Z</time>
      </trkpt>
      <trkpt lat="44.8257" lon="1.68034">
        <ele>316.89</ele>
        <time>2021-08-16T17:13:50Z</time>
      </trkpt>
      <trkpt lat="44.8257" lon="1.68032">
        <ele>316.89</ele>
        <time>2021-08-16T17:13:51Z</time>
      </trkpt>
      <trkpt lat="44.8257" lon="1.6803">
        <ele>317.37</ele>
        <time>2021-08-16T17:13:52Z</time>
      </trkpt>
      <trkpt lat="44.8257" lon="1.68028">
        <ele>317.37</ele>
        <time>2021-08-16T17:13:53Z</time>
      </trkpt>
      <trkpt lat="44.82569" lon="1.68026">
        <ele>317.37</ele>
        <time>2021-08-16T17:13:54Z</time>
      </trkpt>
      <trkpt lat="44.82569" lon="1.68025">
        <ele>317.85</ele>
        <time>2021-08-16T17:13:55Z</time>
      </trkpt>
      <trkpt lat="44.82569" lon="1.68023">
        <ele>317.85</ele>
        <time>2021-08-16T17:13:56Z</time>
      </trkpt>
      <trkpt lat="44.82566" lon="1.68013">
        <ele>318.81</ele>
        <time>2021-08-16T17:14:03Z</time>
      </trkpt>
      <trkpt lat="44.82562" lon="1.67998">
        <ele>320.26</ele>
        <time>2021-08-16T17:14:14Z</time>
      </trkpt>
      <trkpt lat="44.82558" lon="1.67989">
        <ele>321.22</ele>
        <time>2021-08-16T17:14:20Z</time>
      </trkpt>
      <trkpt lat="44.82557" lon="1.67988">
        <ele>321.7</ele>
        <time>2021-08-16T17:14:21Z</time>
      </trkpt>
      <trkpt lat="44.82552" lon="1.67983">
        <ele>322.18</ele>
        <time>2021-08-16T17:14:26Z</time>
      </trkpt>
      <trkpt lat="44.82551" lon="1.67982">
        <ele>323.14</ele>
        <time>2021-08-16T17:14:27Z</time>
      </trkpt>
      <trkpt lat="44.82546" lon="1.67973">
        <ele>323.14</ele>
        <time>2021-08-16T17:14:35Z</time>
      </trkpt>
      <trkpt lat="44.82545" lon="1.67971">
        <ele>322.66</ele>
        <time>2021-08-16T17:14:43Z</time>
      </trkpt>
      <trkpt lat="44.82544" lon="1.67967">
        <ele>322.66</ele>
        <time>2021-08-16T17:14:50Z</time>
      </trkpt>
      <trkpt lat="44.82544" lon="1.67965">
        <ele>322.66</ele>
        <time>2021-08-16T17:14:51Z</time>
      </trkpt>
      <trkpt lat="44.82543" lon="1.67963">
        <ele>322.66</ele>
        <time>2021-08-16T17:14:52Z</time>
      </trkpt>
      <trkpt lat="44.82542" lon="1.6796">
        <ele>322.66</ele>
        <time>2021-08-16T17:14:53Z</time>
      </trkpt>
      <trkpt lat="44.82542" lon="1.67958">
        <ele>322.66</ele>
        <time>2021-08-16T17:14:54Z</time>
      </trkpt>
      <trkpt lat="44.82541" lon="1.67955">
        <ele>322.66</ele>
        <time>2021-08-16T17:14:55Z</time>
      </trkpt>
      <trkpt lat="44.82541" lon="1.67952">
        <ele>322.66</ele>
        <time>2021-08-16T17:14:56Z</time>
      </trkpt>
      <trkpt lat="44.82541" lon="1.67948">
        <ele>322.66</ele>
        <time>2021-08-16T17:14:57Z</time>
      </trkpt>
      <trkpt lat="44.8254" lon="1.67924">
        <ele>322.66</ele>
        <time>2021-08-16T17:15:03Z</time>
      </trkpt>
      <trkpt lat="44.82542" lon="1.67885">
        <ele>321.22</ele>
        <time>2021-08-16T17:15:10Z</time>
      </trkpt>
      <trkpt lat="44.82543" lon="1.67834">
        <ele>318.33</ele>
        <time>2021-08-16T17:15:17Z</time>
      </trkpt>
      <trkpt lat="44.82543" lon="1.67827">
        <ele>318.33</ele>
        <time>2021-08-16T17:15:18Z</time>
      </trkpt>
      <trkpt lat="44.82542" lon="1.67805">
        <ele>316.89</ele>
        <time>2021-08-16T17:15:21Z</time>
      </trkpt>
      <trkpt lat="44.82541" lon="1.67797">
        <ele>316.89</ele>
        <time>2021-08-16T17:15:22Z</time>
      </trkpt>
      <trkpt lat="44.8254" lon="1.67793">
        <ele>316.41</ele>
        <time>2021-08-16T17:15:23Z</time>
      </trkpt>
      <trkpt lat="44.82539" lon="1.67788">
        <ele>316.41</ele>
        <time>2021-08-16T17:15:24Z</time>
      </trkpt>
      <trkpt lat="44.82538" lon="1.67784">
        <ele>315.93</ele>
        <time>2021-08-16T17:15:25Z</time>
      </trkpt>
      <trkpt lat="44.82538" lon="1.67782">
        <ele>315.93</ele>
        <time>2021-08-16T17:15:26Z</time>
      </trkpt>
      <trkpt lat="44.82537" lon="1.67781">
        <ele>315.93</ele>
        <time>2021-08-16T17:15:27Z</time>
      </trkpt>
      <trkpt lat="44.82536" lon="1.67782">
        <ele>315.93</ele>
        <time>2021-08-16T17:15:28Z</time>
      </trkpt>
      <trkpt lat="44.82535" lon="1.67784">
        <ele>315.93</ele>
        <time>2021-08-16T17:15:29Z</time>
      </trkpt>
      <trkpt lat="44.82536" lon="1.67786">
        <ele>315.93</ele>
        <time>2021-08-16T17:15:30Z</time>
      </trkpt>
      <trkpt lat="44.82537" lon="1.67788">
        <ele>315.93</ele>
        <time>2021-08-16T17:15:31Z</time>
      </trkpt>
      <trkpt lat="44.82538" lon="1.67789">
        <ele>315.93</ele>
        <time>2021-08-16T17:15:32Z</time>
      </trkpt>
      <trkpt lat="44.8254" lon="1.67799">
        <ele>315.93</ele>
        <time>2021-08-16T17:15:36Z</time>
      </trkpt>
      <trkpt lat="44.82539" lon="1.67801">
        <ele>315.93</ele>
        <time>2021-08-16T17:15:37Z</time>
      </trkpt>
      <trkpt lat="44.82538" lon="1.67802">
        <ele>315.93</ele>
        <time>2021-08-16T17:15:38Z</time>
      </trkpt>
      <trkpt lat="44.82537" lon="1.67802">
        <ele>315.93</ele>
        <time>2021-08-16T17:15:39Z</time>
      </trkpt>
      <trkpt lat="44.82535" lon="1.67803">
        <ele>315.93</ele>
        <time>2021-08-16T17:15:40Z</time>
      </trkpt>
      <trkpt lat="44.82533" lon="1.67803">
        <ele>315.93</ele>
        <time>2021-08-16T17:15:41Z</time>
      </trkpt>
      <trkpt lat="44.82531" lon="1.67804">
        <ele>315.93</ele>
        <time>2021-08-16T17:15:42Z</time>
      </trkpt>
      <trkpt lat="44.82528" lon="1.67805">
        <ele>315.93</ele>
        <time>2021-08-16T17:15:43Z</time>
      </trkpt>
      <trkpt lat="44.82526" lon="1.67806">
        <ele>315.93</ele>
        <time>2021-08-16T17:15:44Z</time>
      </trkpt>
      <trkpt lat="44.82503" lon="1.67812">
        <ele>315.93</ele>
        <time>2021-08-16T17:15:51Z</time>
      </trkpt>
      <trkpt lat="44.8249" lon="1.67811">
        <ele>314.97</ele>
        <time>2021-08-16T17:15:54Z</time>
      </trkpt>
      <trkpt lat="44.82486" lon="1.67811">
        <ele>314.97</ele>
        <time>2021-08-16T17:15:55Z</time>
      </trkpt>
      <trkpt lat="44.8245" lon="1.67822">
        <ele>314.01</ele>
        <time>2021-08-16T17:16:04Z</time>
      </trkpt>
      <trkpt lat="44.82429" lon="1.67838">
        <ele>313.53</ele>
        <time>2021-08-16T17:16:10Z</time>
      </trkpt>
      <trkpt lat="44.82406" lon="1.67842">
        <ele>313.53</ele>
        <time>2021-08-16T17:16:16Z</time>
      </trkpt>
      <trkpt lat="44.82386" lon="1.6785">
        <ele>314.97</ele>
        <time>2021-08-16T17:16:23Z</time>
      </trkpt>
      <trkpt lat="44.82371" lon="1.6786">
        <ele>316.41</ele>
        <time>2021-08-16T17:16:30Z</time>
      </trkpt>
      <trkpt lat="44.8236" lon="1.67867">
        <ele>317.37</ele>
        <time>2021-08-16T17:16:37Z</time>
      </trkpt>
      <trkpt lat="44.82355" lon="1.67871">
        <ele>317.85</ele>
        <time>2021-08-16T17:16:43Z</time>
      </trkpt>
      <trkpt lat="44.82346" lon="1.67876">
        <ele>319.3</ele>
        <time>2021-08-16T17:16:52Z</time>
      </trkpt>
      <trkpt lat="44.82339" lon="1.67879">
        <ele>320.26</ele>
        <time>2021-08-16T17:17:00Z</time>
      </trkpt>
      <trkpt lat="44.82329" lon="1.67882">
        <ele>321.7</ele>
        <time>2021-08-16T17:17:09Z</time>
      </trkpt>
      <trkpt lat="44.82318" lon="1.67888">
        <ele>323.14</ele>
        <time>2021-08-16T17:17:19Z</time>
      </trkpt>
      <trkpt lat="44.82306" lon="1.67892">
        <ele>324.1</ele>
        <time>2021-08-16T17:17:29Z</time>
      </trkpt>
      <trkpt lat="44.82305" lon="1.67893">
        <ele>325.06</ele>
        <time>2021-08-16T17:17:36Z</time>
      </trkpt>
      <trkpt lat="44.82297" lon="1.67896">
        <ele>325.06</ele>
        <time>2021-08-16T17:17:45Z</time>
      </trkpt>
      <trkpt lat="44.82296" lon="1.67897">
        <ele>325.06</ele>
        <time>2021-08-16T17:17:46Z</time>
      </trkpt>
      <trkpt lat="44.8229" lon="1.67899">
        <ele>325.54</ele>
        <time>2021-08-16T17:17:53Z</time>
      </trkpt>
      <trkpt lat="44.82286" lon="1.67901">
        <ele>325.54</ele>
        <time>2021-08-16T17:17:59Z</time>
      </trkpt>
      <trkpt lat="44.82272" lon="1.67908">
        <ele>326.02</ele>
        <time>2021-08-16T17:18:07Z</time>
      </trkpt>
      <trkpt lat="44.82249" lon="1.6791">
        <ele>326.99</ele>
        <time>2021-08-16T17:18:16Z</time>
      </trkpt>
      <trkpt lat="44.82223" lon="1.6791">
        <ele>326.99</ele>
        <time>2021-08-16T17:18:25Z</time>
      </trkpt>
      <trkpt lat="44.82204" lon="1.67911">
        <ele>327.47</ele>
        <time>2021-08-16T17:18:31Z</time>
      </trkpt>
      <trkpt lat="44.82177" lon="1.67913">
        <ele>327.47</ele>
        <time>2021-08-16T17:18:39Z</time>
      </trkpt>
      <trkpt lat="44.82146" lon="1.67916">
        <ele>328.43</ele>
        <time>2021-08-16T17:18:48Z</time>
      </trkpt>
      <trkpt lat="44.82123" lon="1.67911">
        <ele>329.39</ele>
        <time>2021-08-16T17:18:56Z</time>
      </trkpt>
      <trkpt lat="44.82109" lon="1.67904">
        <ele>329.87</ele>
        <time>2021-08-16T17:19:03Z</time>
      </trkpt>
      <trkpt lat="44.82097" lon="1.67901">
        <ele>330.83</ele>
        <time>2021-08-16T17:19:09Z</time>
      </trkpt>
      <trkpt lat="44.82086" lon="1.67904">
        <ele>332.27</ele>
        <time>2021-08-16T17:19:15Z</time>
      </trkpt>
      <trkpt lat="44.82073" lon="1.67896">
        <ele>332.75</ele>
        <time>2021-08-16T17:19:22Z</time>
      </trkpt>
      <trkpt lat="44.8206" lon="1.67884">
        <ele>333.23</ele>
        <time>2021-08-16T17:19:30Z</time>
      </trkpt>
      <trkpt lat="44.82059" lon="1.67882">
        <ele>333.71</ele>
        <time>2021-08-16T17:19:31Z</time>
      </trkpt>
      <trkpt lat="44.82057" lon="1.67881">
        <ele>333.71</ele>
        <time>2021-08-16T17:19:32Z</time>
      </trkpt>
      <trkpt lat="44.82056" lon="1.6788">
        <ele>333.71</ele>
        <time>2021-08-16T17:19:33Z</time>
      </trkpt>
      <trkpt lat="44.82054" lon="1.67878">
        <ele>333.71</ele>
        <time>2021-08-16T17:19:34Z</time>
      </trkpt>
      <trkpt lat="44.82052" lon="1.67876">
        <ele>334.2</ele>
        <time>2021-08-16T17:19:35Z</time>
      </trkpt>
      <trkpt lat="44.8205" lon="1.67874">
        <ele>334.2</ele>
        <time>2021-08-16T17:19:36Z</time>
      </trkpt>
      <trkpt lat="44.8204" lon="1.67866">
        <ele>335.16</ele>
        <time>2021-08-16T17:19:43Z</time>
      </trkpt>
      <trkpt lat="44.82033" lon="1.67857">
        <ele>336.12</ele>
        <time>2021-08-16T17:19:49Z</time>
      </trkpt>
      <trkpt lat="44.82024" lon="1.67849">
        <ele>337.56</ele>
        <time>2021-08-16T17:19:57Z</time>
      </trkpt>
      <trkpt lat="44.82016" lon="1.67843">
        <ele>339</ele>
        <time>2021-08-16T17:20:05Z</time>
      </trkpt>
      <trkpt lat="44.82009" lon="1.67834">
        <ele>339.48</ele>
        <time>2021-08-16T17:20:13Z</time>
      </trkpt>
      <trkpt lat="44.82001" lon="1.67826">
        <ele>340.92</ele>
        <time>2021-08-16T17:20:21Z</time>
      </trkpt>
      <trkpt lat="44.81994" lon="1.67819">
        <ele>341.89</ele>
        <time>2021-08-16T17:20:29Z</time>
      </trkpt>
      <trkpt lat="44.81986" lon="1.67812">
        <ele>342.85</ele>
        <time>2021-08-16T17:20:37Z</time>
      </trkpt>
      <trkpt lat="44.81979" lon="1.67807">
        <ele>343.81</ele>
        <time>2021-08-16T17:20:44Z</time>
      </trkpt>
      <trkpt lat="44.81969" lon="1.678">
        <ele>344.77</ele>
        <time>2021-08-16T17:20:53Z</time>
      </trkpt>
      <trkpt lat="44.81958" lon="1.67794">
        <ele>345.73</ele>
        <time>2021-08-16T17:21:01Z</time>
      </trkpt>
      <trkpt lat="44.81955" lon="1.67792">
        <ele>346.21</ele>
        <time>2021-08-16T17:21:09Z</time>
      </trkpt>
      <trkpt lat="44.81949" lon="1.67787">
        <ele>346.69</ele>
        <time>2021-08-16T17:21:18Z</time>
      </trkpt>
      <trkpt lat="44.81932" lon="1.67781">
        <ele>347.17</ele>
        <time>2021-08-16T17:21:26Z</time>
      </trkpt>
      <trkpt lat="44.81916" lon="1.67775">
        <ele>347.17</ele>
        <time>2021-08-16T17:21:33Z</time>
      </trkpt>
      <trkpt lat="44.81901" lon="1.67771">
        <ele>347.17</ele>
        <time>2021-08-16T17:21:39Z</time>
      </trkpt>
      <trkpt lat="44.81881" lon="1.67761">
        <ele>346.21</ele>
        <time>2021-08-16T17:21:48Z</time>
      </trkpt>
      <trkpt lat="44.81879" lon="1.6776">
        <ele>346.21</ele>
        <time>2021-08-16T17:21:49Z</time>
      </trkpt>
      <trkpt lat="44.81876" lon="1.67758">
        <ele>346.21</ele>
        <time>2021-08-16T17:21:50Z</time>
      </trkpt>
      <trkpt lat="44.81874" lon="1.67757">
        <ele>346.21</ele>
        <time>2021-08-16T17:21:51Z</time>
      </trkpt>
      <trkpt lat="44.81871" lon="1.67756">
        <ele>346.21</ele>
        <time>2021-08-16T17:21:52Z</time>
      </trkpt>
      <trkpt lat="44.81854" lon="1.67743">
        <ele>347.17</ele>
        <time>2021-08-16T17:21:59Z</time>
      </trkpt>
      <trkpt lat="44.81838" lon="1.67732">
        <ele>348.13</ele>
        <time>2021-08-16T17:22:05Z</time>
      </trkpt>
      <trkpt lat="44.81819" lon="1.67711">
        <ele>348.13</ele>
        <time>2021-08-16T17:22:12Z</time>
      </trkpt>
      <trkpt lat="44.81807" lon="1.67682">
        <ele>346.21</ele>
        <time>2021-08-16T17:22:18Z</time>
      </trkpt>
      <trkpt lat="44.81805" lon="1.67676">
        <ele>346.21</ele>
        <time>2021-08-16T17:22:19Z</time>
      </trkpt>
      <trkpt lat="44.81804" lon="1.67671">
        <ele>346.21</ele>
        <time>2021-08-16T17:22:20Z</time>
      </trkpt>
      <trkpt lat="44.81792" lon="1.67631">
        <ele>345.73</ele>
        <time>2021-08-16T17:22:27Z</time>
      </trkpt>
      <trkpt lat="44.8179" lon="1.67616">
        <ele>347.17</ele>
        <time>2021-08-16T17:22:32Z</time>
      </trkpt>
      <trkpt lat="44.81783" lon="1.67595">
        <ele>348.13</ele>
        <time>2021-08-16T17:22:40Z</time>
      </trkpt>
      <trkpt lat="44.81774" lon="1.67576">
        <ele>349.1</ele>
        <time>2021-08-16T17:22:47Z</time>
      </trkpt>
      <trkpt lat="44.81754" lon="1.67559">
        <ele>349.58</ele>
        <time>2021-08-16T17:22:55Z</time>
      </trkpt>
      <trkpt lat="44.81731" lon="1.6754">
        <ele>349.58</ele>
        <time>2021-08-16T17:23:03Z</time>
      </trkpt>
      <trkpt lat="44.8171" lon="1.67518">
        <ele>349.58</ele>
        <time>2021-08-16T17:23:09Z</time>
      </trkpt>
      <trkpt lat="44.81698" lon="1.67507">
        <ele>348.13</ele>
        <time>2021-08-16T17:23:12Z</time>
      </trkpt>
      <trkpt lat="44.81693" lon="1.67503">
        <ele>348.13</ele>
        <time>2021-08-16T17:23:13Z</time>
      </trkpt>
      <trkpt lat="44.81689" lon="1.675">
        <ele>347.65</ele>
        <time>2021-08-16T17:23:14Z</time>
      </trkpt>
      <trkpt lat="44.81684" lon="1.67498">
        <ele>347.65</ele>
        <time>2021-08-16T17:23:15Z</time>
      </trkpt>
      <trkpt lat="44.81679" lon="1.67496">
        <ele>347.17</ele>
        <time>2021-08-16T17:23:16Z</time>
      </trkpt>
      <trkpt lat="44.81674" lon="1.67496">
        <ele>347.17</ele>
        <time>2021-08-16T17:23:17Z</time>
      </trkpt>
      <trkpt lat="44.81668" lon="1.67495">
        <ele>346.69</ele>
        <time>2021-08-16T17:23:18Z</time>
      </trkpt>
      <trkpt lat="44.81628" lon="1.67491">
        <ele>344.29</ele>
        <time>2021-08-16T17:23:24Z</time>
      </trkpt>
      <trkpt lat="44.81602" lon="1.67483">
        <ele>342.37</ele>
        <time>2021-08-16T17:23:28Z</time>
      </trkpt>
      <trkpt lat="44.81595" lon="1.67479">
        <ele>341.89</ele>
        <time>2021-08-16T17:23:29Z</time>
      </trkpt>
      <trkpt lat="44.81589" lon="1.67473">
        <ele>341.89</ele>
        <time>2021-08-16T17:23:30Z</time>
      </trkpt>
      <trkpt lat="44.81584" lon="1.67467">
        <ele>340.92</ele>
        <time>2021-08-16T17:23:31Z</time>
      </trkpt>
      <trkpt lat="44.81578" lon="1.6746">
        <ele>340.92</ele>
        <time>2021-08-16T17:23:32Z</time>
      </trkpt>
      <trkpt lat="44.81573" lon="1.67452">
        <ele>340.92</ele>
        <time>2021-08-16T17:23:33Z</time>
      </trkpt>
      <trkpt lat="44.81569" lon="1.67445">
        <ele>340.92</ele>
        <time>2021-08-16T17:23:34Z</time>
      </trkpt>
      <trkpt lat="44.81538" lon="1.67409">
        <ele>337.56</ele>
        <time>2021-08-16T17:23:39Z</time>
      </trkpt>
      <trkpt lat="44.81515" lon="1.67377">
        <ele>334.68</ele>
        <time>2021-08-16T17:23:43Z</time>
      </trkpt>
      <trkpt lat="44.81492" lon="1.67329">
        <ele>333.23</ele>
        <time>2021-08-16T17:23:48Z</time>
      </trkpt>
      <trkpt lat="44.81487" lon="1.67322">
        <ele>332.75</ele>
        <time>2021-08-16T17:23:49Z</time>
      </trkpt>
      <trkpt lat="44.81481" lon="1.67316">
        <ele>332.27</ele>
        <time>2021-08-16T17:23:50Z</time>
      </trkpt>
      <trkpt lat="44.8146" lon="1.67293">
        <ele>329.87</ele>
        <time>2021-08-16T17:23:54Z</time>
      </trkpt>
      <trkpt lat="44.8145" lon="1.67276">
        <ele>329.39</ele>
        <time>2021-08-16T17:23:57Z</time>
      </trkpt>
      <trkpt lat="44.81446" lon="1.67273">
        <ele>328.43</ele>
        <time>2021-08-16T17:23:58Z</time>
      </trkpt>
      <trkpt lat="44.81442" lon="1.67269">
        <ele>327.95</ele>
        <time>2021-08-16T17:23:59Z</time>
      </trkpt>
      <trkpt lat="44.81438" lon="1.67264">
        <ele>327.47</ele>
        <time>2021-08-16T17:24:00Z</time>
      </trkpt>
      <trkpt lat="44.81434" lon="1.67257">
        <ele>327.47</ele>
        <time>2021-08-16T17:24:01Z</time>
      </trkpt>
      <trkpt lat="44.81431" lon="1.67251">
        <ele>326.99</ele>
        <time>2021-08-16T17:24:02Z</time>
      </trkpt>
      <trkpt lat="44.81427" lon="1.67243">
        <ele>326.5</ele>
        <time>2021-08-16T17:24:03Z</time>
      </trkpt>
      <trkpt lat="44.81424" lon="1.67236">
        <ele>326.5</ele>
        <time>2021-08-16T17:24:04Z</time>
      </trkpt>
      <trkpt lat="44.81395" lon="1.67174">
        <ele>324.58</ele>
        <time>2021-08-16T17:24:12Z</time>
      </trkpt>
      <trkpt lat="44.81389" lon="1.67164">
        <ele>324.58</ele>
        <time>2021-08-16T17:24:14Z</time>
      </trkpt>
      <trkpt lat="44.81384" lon="1.67161">
        <ele>323.62</ele>
        <time>2021-08-16T17:24:15Z</time>
      </trkpt>
      <trkpt lat="44.81378" lon="1.67157">
        <ele>322.66</ele>
        <time>2021-08-16T17:24:16Z</time>
      </trkpt>
      <trkpt lat="44.81373" lon="1.67153">
        <ele>321.7</ele>
        <time>2021-08-16T17:24:17Z</time>
      </trkpt>
      <trkpt lat="44.81367" lon="1.67148">
        <ele>320.74</ele>
        <time>2021-08-16T17:24:18Z</time>
      </trkpt>
      <trkpt lat="44.8136" lon="1.67142">
        <ele>319.3</ele>
        <time>2021-08-16T17:24:19Z</time>
      </trkpt>
      <trkpt lat="44.81329" lon="1.67116">
        <ele>315.93</ele>
        <time>2021-08-16T17:24:23Z</time>
      </trkpt>
      <trkpt lat="44.8132" lon="1.67109">
        <ele>315.93</ele>
        <time>2021-08-16T17:24:24Z</time>
      </trkpt>
      <trkpt lat="44.81303" lon="1.67098">
        <ele>314.01</ele>
        <time>2021-08-16T17:24:26Z</time>
      </trkpt>
      <trkpt lat="44.81295" lon="1.67095">
        <ele>313.05</ele>
        <time>2021-08-16T17:24:27Z</time>
      </trkpt>
      <trkpt lat="44.81286" lon="1.67092">
        <ele>313.05</ele>
        <time>2021-08-16T17:24:28Z</time>
      </trkpt>
      <trkpt lat="44.81268" lon="1.67088">
        <ele>312.57</ele>
        <time>2021-08-16T17:24:30Z</time>
      </trkpt>
      <trkpt lat="44.8126" lon="1.67088">
        <ele>312.57</ele>
        <time>2021-08-16T17:24:31Z</time>
      </trkpt>
      <trkpt lat="44.81251" lon="1.67088">
        <ele>312.57</ele>
        <time>2021-08-16T17:24:32Z</time>
      </trkpt>
      <trkpt lat="44.81243" lon="1.6709">
        <ele>312.57</ele>
        <time>2021-08-16T17:24:33Z</time>
      </trkpt>
      <trkpt lat="44.81235" lon="1.67092">
        <ele>312.57</ele>
        <time>2021-08-16T17:24:34Z</time>
      </trkpt>
      <trkpt lat="44.81228" lon="1.67095">
        <ele>313.05</ele>
        <time>2021-08-16T17:24:35Z</time>
      </trkpt>
      <trkpt lat="44.8122" lon="1.67099">
        <ele>313.05</ele>
        <time>2021-08-16T17:24:36Z</time>
      </trkpt>
      <trkpt lat="44.81185" lon="1.67117">
        <ele>314.97</ele>
        <time>2021-08-16T17:24:42Z</time>
      </trkpt>
      <trkpt lat="44.81155" lon="1.67134">
        <ele>315.45</ele>
        <time>2021-08-16T17:24:48Z</time>
      </trkpt>
      <trkpt lat="44.81147" lon="1.67138">
        <ele>315.45</ele>
        <time>2021-08-16T17:24:50Z</time>
      </trkpt>
      <trkpt lat="44.81118" lon="1.67142">
        <ele>314.01</ele>
        <time>2021-08-16T17:24:56Z</time>
      </trkpt>
      <trkpt lat="44.81107" lon="1.67144">
        <ele>313.53</ele>
        <time>2021-08-16T17:24:58Z</time>
      </trkpt>
      <trkpt lat="44.81085" lon="1.67154">
        <ele>313.05</ele>
        <time>2021-08-16T17:25:02Z</time>
      </trkpt>
      <trkpt lat="44.8108" lon="1.67154">
        <ele>313.05</ele>
        <time>2021-08-16T17:25:03Z</time>
      </trkpt>
      <trkpt lat="44.81075" lon="1.67152">
        <ele>312.09</ele>
        <time>2021-08-16T17:25:04Z</time>
      </trkpt>
      <trkpt lat="44.81071" lon="1.67146">
        <ele>311.6</ele>
        <time>2021-08-16T17:25:05Z</time>
      </trkpt>
      <trkpt lat="44.81069" lon="1.67139">
        <ele>311.6</ele>
        <time>2021-08-16T17:25:06Z</time>
      </trkpt>
      <trkpt lat="44.81068" lon="1.67132">
        <ele>311.6</ele>
        <time>2021-08-16T17:25:07Z</time>
      </trkpt>
      <trkpt lat="44.81068" lon="1.67124">
        <ele>311.12</ele>
        <time>2021-08-16T17:25:08Z</time>
      </trkpt>
      <trkpt lat="44.81068" lon="1.67117">
        <ele>311.6</ele>
        <time>2021-08-16T17:25:09Z</time>
      </trkpt>
      <trkpt lat="44.81066" lon="1.67095">
        <ele>311.12</ele>
        <time>2021-08-16T17:25:12Z</time>
      </trkpt>
      <trkpt lat="44.81064" lon="1.6708">
        <ele>311.12</ele>
        <time>2021-08-16T17:25:14Z</time>
      </trkpt>
      <trkpt lat="44.81062" lon="1.67073">
        <ele>310.64</ele>
        <time>2021-08-16T17:25:15Z</time>
      </trkpt>
      <trkpt lat="44.8106" lon="1.67066">
        <ele>310.64</ele>
        <time>2021-08-16T17:25:16Z</time>
      </trkpt>
      <trkpt lat="44.81055" lon="1.67059">
        <ele>309.68</ele>
        <time>2021-08-16T17:25:17Z</time>
      </trkpt>
      <trkpt lat="44.81052" lon="1.67056">
        <ele>309.68</ele>
        <time>2021-08-16T17:25:18Z</time>
      </trkpt>
      <trkpt lat="44.81046" lon="1.67053">
        <ele>309.2</ele>
        <time>2021-08-16T17:25:19Z</time>
      </trkpt>
      <trkpt lat="44.8104" lon="1.67052">
        <ele>309.2</ele>
        <time>2021-08-16T17:25:20Z</time>
      </trkpt>
      <trkpt lat="44.81033" lon="1.67051">
        <ele>308.72</ele>
        <time>2021-08-16T17:25:21Z</time>
      </trkpt>
      <trkpt lat="44.81021" lon="1.6705">
        <ele>308.24</ele>
        <time>2021-08-16T17:25:23Z</time>
      </trkpt>
      <trkpt lat="44.81015" lon="1.67047">
        <ele>308.24</ele>
        <time>2021-08-16T17:25:24Z</time>
      </trkpt>
      <trkpt lat="44.81009" lon="1.67044">
        <ele>307.76</ele>
        <time>2021-08-16T17:25:25Z</time>
      </trkpt>
      <trkpt lat="44.81004" lon="1.6704">
        <ele>307.76</ele>
        <time>2021-08-16T17:25:26Z</time>
      </trkpt>
      <trkpt lat="44.80998" lon="1.67035">
        <ele>307.28</ele>
        <time>2021-08-16T17:25:27Z</time>
      </trkpt>
      <trkpt lat="44.80972" lon="1.67009">
        <ele>306.32</ele>
        <time>2021-08-16T17:25:32Z</time>
      </trkpt>
      <trkpt lat="44.80948" lon="1.66976">
        <ele>305.84</ele>
        <time>2021-08-16T17:25:38Z</time>
      </trkpt>
      <trkpt lat="44.80943" lon="1.66972">
        <ele>305.84</ele>
        <time>2021-08-16T17:25:39Z</time>
      </trkpt>
      <trkpt lat="44.80938" lon="1.66969">
        <ele>305.84</ele>
        <time>2021-08-16T17:25:40Z</time>
      </trkpt>
      <trkpt lat="44.80934" lon="1.66966">
        <ele>305.84</ele>
        <time>2021-08-16T17:25:41Z</time>
      </trkpt>
      <trkpt lat="44.80929" lon="1.66964">
        <ele>305.84</ele>
        <time>2021-08-16T17:25:42Z</time>
      </trkpt>
      <trkpt lat="44.80912" lon="1.66954">
        <ele>305.36</ele>
        <time>2021-08-16T17:25:45Z</time>
      </trkpt>
      <trkpt lat="44.80906" lon="1.66951">
        <ele>304.88</ele>
        <time>2021-08-16T17:25:46Z</time>
      </trkpt>
      <trkpt lat="44.80884" lon="1.66938">
        <ele>303.91</ele>
        <time>2021-08-16T17:25:50Z</time>
      </trkpt>
      <trkpt lat="44.80878" lon="1.66937">
        <ele>303.43</ele>
        <time>2021-08-16T17:25:51Z</time>
      </trkpt>
      <trkpt lat="44.8087" lon="1.66938">
        <ele>302.95</ele>
        <time>2021-08-16T17:25:52Z</time>
      </trkpt>
      <trkpt lat="44.80826" lon="1.66941">
        <ele>301.03</ele>
        <time>2021-08-16T17:25:59Z</time>
      </trkpt>
      <trkpt lat="44.8082" lon="1.66939">
        <ele>300.07</ele>
        <time>2021-08-16T17:26:00Z</time>
      </trkpt>
      <trkpt lat="44.80813" lon="1.66936">
        <ele>299.59</ele>
        <time>2021-08-16T17:26:01Z</time>
      </trkpt>
      <trkpt lat="44.8081" lon="1.66932">
        <ele>299.11</ele>
        <time>2021-08-16T17:26:02Z</time>
      </trkpt>
      <trkpt lat="44.80806" lon="1.66925">
        <ele>299.11</ele>
        <time>2021-08-16T17:26:03Z</time>
      </trkpt>
      <trkpt lat="44.80802" lon="1.66917">
        <ele>298.63</ele>
        <time>2021-08-16T17:26:04Z</time>
      </trkpt>
      <trkpt lat="44.80799" lon="1.66911">
        <ele>298.63</ele>
        <time>2021-08-16T17:26:05Z</time>
      </trkpt>
      <trkpt lat="44.80795" lon="1.66904">
        <ele>298.63</ele>
        <time>2021-08-16T17:26:06Z</time>
      </trkpt>
      <trkpt lat="44.8079" lon="1.66898">
        <ele>298.63</ele>
        <time>2021-08-16T17:26:07Z</time>
      </trkpt>
      <trkpt lat="44.80784" lon="1.66892">
        <ele>298.63</ele>
        <time>2021-08-16T17:26:08Z</time>
      </trkpt>
      <trkpt lat="44.80772" lon="1.66884">
        <ele>297.67</ele>
        <time>2021-08-16T17:26:10Z</time>
      </trkpt>
      <trkpt lat="44.80766" lon="1.66881">
        <ele>297.18</ele>
        <time>2021-08-16T17:26:11Z</time>
      </trkpt>
      <trkpt lat="44.80738" lon="1.66872">
        <ele>295.74</ele>
        <time>2021-08-16T17:26:15Z</time>
      </trkpt>
      <trkpt lat="44.80726" lon="1.66866">
        <ele>295.26</ele>
        <time>2021-08-16T17:26:17Z</time>
      </trkpt>
      <trkpt lat="44.8072" lon="1.66861">
        <ele>295.26</ele>
        <time>2021-08-16T17:26:18Z</time>
      </trkpt>
      <trkpt lat="44.80716" lon="1.66855">
        <ele>295.26</ele>
        <time>2021-08-16T17:26:19Z</time>
      </trkpt>
      <trkpt lat="44.80714" lon="1.66847">
        <ele>295.26</ele>
        <time>2021-08-16T17:26:20Z</time>
      </trkpt>
      <trkpt lat="44.80712" lon="1.66839">
        <ele>294.78</ele>
        <time>2021-08-16T17:26:21Z</time>
      </trkpt>
      <trkpt lat="44.8071" lon="1.66831">
        <ele>294.78</ele>
        <time>2021-08-16T17:26:22Z</time>
      </trkpt>
      <trkpt lat="44.80696" lon="1.66753">
        <ele>292.38</ele>
        <time>2021-08-16T17:26:31Z</time>
      </trkpt>
      <trkpt lat="44.80681" lon="1.66686">
        <ele>291.42</ele>
        <time>2021-08-16T17:26:39Z</time>
      </trkpt>
      <trkpt lat="44.80673" lon="1.66652">
        <ele>291.42</ele>
        <time>2021-08-16T17:26:45Z</time>
      </trkpt>
      <trkpt lat="44.80672" lon="1.66649">
        <ele>292.38</ele>
        <time>2021-08-16T17:26:50Z</time>
      </trkpt>
      <trkpt lat="44.80669" lon="1.66641">
        <ele>292.38</ele>
        <time>2021-08-16T17:26:58Z</time>
      </trkpt>
      <trkpt lat="44.8066" lon="1.66618">
        <ele>292.38</ele>
        <time>2021-08-16T17:27:05Z</time>
      </trkpt>
      <trkpt lat="44.80642" lon="1.6658">
        <ele>293.34</ele>
        <time>2021-08-16T17:27:14Z</time>
      </trkpt>
      <trkpt lat="44.80626" lon="1.66545">
        <ele>293.82</ele>
        <time>2021-08-16T17:27:22Z</time>
      </trkpt>
      <trkpt lat="44.80611" lon="1.665">
        <ele>293.82</ele>
        <time>2021-08-16T17:27:31Z</time>
      </trkpt>
      <trkpt lat="44.80594" lon="1.66445">
        <ele>293.82</ele>
        <time>2021-08-16T17:27:40Z</time>
      </trkpt>
      <trkpt lat="44.80585" lon="1.66395">
        <ele>293.82</ele>
        <time>2021-08-16T17:27:48Z</time>
      </trkpt>
      <trkpt lat="44.80583" lon="1.66368">
        <ele>293.82</ele>
        <time>2021-08-16T17:27:52Z</time>
      </trkpt>
      <trkpt lat="44.80582" lon="1.66361">
        <ele>293.82</ele>
        <time>2021-08-16T17:27:53Z</time>
      </trkpt>
      <trkpt lat="44.80586" lon="1.66325">
        <ele>291.9</ele>
        <time>2021-08-16T17:27:59Z</time>
      </trkpt>
      <trkpt lat="44.80591" lon="1.66299">
        <ele>291.42</ele>
        <time>2021-08-16T17:28:03Z</time>
      </trkpt>
      <trkpt lat="44.80604" lon="1.66269">
        <ele>290.46</ele>
        <time>2021-08-16T17:28:08Z</time>
      </trkpt>
      <trkpt lat="44.80625" lon="1.66237">
        <ele>290.46</ele>
        <time>2021-08-16T17:28:15Z</time>
      </trkpt>
      <trkpt lat="44.80641" lon="1.66226">
        <ele>290.46</ele>
        <time>2021-08-16T17:28:19Z</time>
      </trkpt>
      <trkpt lat="44.8067" lon="1.66195">
        <ele>290.46</ele>
        <time>2021-08-16T17:28:27Z</time>
      </trkpt>
      <trkpt lat="44.80698" lon="1.66166">
        <ele>289.49</ele>
        <time>2021-08-16T17:28:35Z</time>
      </trkpt>
      <trkpt lat="44.80727" lon="1.66143">
        <ele>289.01</ele>
        <time>2021-08-16T17:28:43Z</time>
      </trkpt>
      <trkpt lat="44.80749" lon="1.66131">
        <ele>288.53</ele>
        <time>2021-08-16T17:28:49Z</time>
      </trkpt>
      <trkpt lat="44.80761" lon="1.66125">
        <ele>288.53</ele>
        <time>2021-08-16T17:28:52Z</time>
      </trkpt>
      <trkpt lat="44.80782" lon="1.66096">
        <ele>287.57</ele>
        <time>2021-08-16T17:28:58Z</time>
      </trkpt>
      <trkpt lat="44.80797" lon="1.66069">
        <ele>287.09</ele>
        <time>2021-08-16T17:29:03Z</time>
      </trkpt>
      <trkpt lat="44.8081" lon="1.66058">
        <ele>287.09</ele>
        <time>2021-08-16T17:29:06Z</time>
      </trkpt>
      <trkpt lat="44.8083" lon="1.66035">
        <ele>286.13</ele>
        <time>2021-08-16T17:29:11Z</time>
      </trkpt>
      <trkpt lat="44.80857" lon="1.66009">
        <ele>286.13</ele>
        <time>2021-08-16T17:29:17Z</time>
      </trkpt>
      <trkpt lat="44.80872" lon="1.65987">
        <ele>285.17</ele>
        <time>2021-08-16T17:29:22Z</time>
      </trkpt>
      <trkpt lat="44.80891" lon="1.65972">
        <ele>285.17</ele>
        <time>2021-08-16T17:29:27Z</time>
      </trkpt>
      <trkpt lat="44.80901" lon="1.65969">
        <ele>284.69</ele>
        <time>2021-08-16T17:29:29Z</time>
      </trkpt>
      <trkpt lat="44.80932" lon="1.65961">
        <ele>286.13</ele>
        <time>2021-08-16T17:29:36Z</time>
      </trkpt>
      <trkpt lat="44.8095" lon="1.65965">
        <ele>286.61</ele>
        <time>2021-08-16T17:29:41Z</time>
      </trkpt>
      <trkpt lat="44.80964" lon="1.65968">
        <ele>287.57</ele>
        <time>2021-08-16T17:29:46Z</time>
      </trkpt>
      <trkpt lat="44.8098" lon="1.65962">
        <ele>288.53</ele>
        <time>2021-08-16T17:29:53Z</time>
      </trkpt>
      <trkpt lat="44.80981" lon="1.65959">
        <ele>288.53</ele>
        <time>2021-08-16T17:29:54Z</time>
      </trkpt>
      <trkpt lat="44.80982" lon="1.65956">
        <ele>288.53</ele>
        <time>2021-08-16T17:29:55Z</time>
      </trkpt>
      <trkpt lat="44.80983" lon="1.65952">
        <ele>288.53</ele>
        <time>2021-08-16T17:29:56Z</time>
      </trkpt>
      <trkpt lat="44.80983" lon="1.65948">
        <ele>288.53</ele>
        <time>2021-08-16T17:29:57Z</time>
      </trkpt>
      <trkpt lat="44.80983" lon="1.65945">
        <ele>289.01</ele>
        <time>2021-08-16T17:29:58Z</time>
      </trkpt>
      <trkpt lat="44.80983" lon="1.65941">
        <ele>289.01</ele>
        <time>2021-08-16T17:29:59Z</time>
      </trkpt>
      <trkpt lat="44.80983" lon="1.65937">
        <ele>289.01</ele>
        <time>2021-08-16T17:30:00Z</time>
      </trkpt>
      <trkpt lat="44.80982" lon="1.65904">
        <ele>289.01</ele>
        <time>2021-08-16T17:30:06Z</time>
      </trkpt>
      <trkpt lat="44.80983" lon="1.6589">
        <ele>287.09</ele>
        <time>2021-08-16T17:30:08Z</time>
      </trkpt>
      <trkpt lat="44.80985" lon="1.65883">
        <ele>286.13</ele>
        <time>2021-08-16T17:30:09Z</time>
      </trkpt>
      <trkpt lat="44.80987" lon="1.65875">
        <ele>285.65</ele>
        <time>2021-08-16T17:30:10Z</time>
      </trkpt>
      <trkpt lat="44.80989" lon="1.65868">
        <ele>285.65</ele>
        <time>2021-08-16T17:30:11Z</time>
      </trkpt>
      <trkpt lat="44.81007" lon="1.65808">
        <ele>283.25</ele>
        <time>2021-08-16T17:30:18Z</time>
      </trkpt>
      <trkpt lat="44.81033" lon="1.65729">
        <ele>279.88</ele>
        <time>2021-08-16T17:30:26Z</time>
      </trkpt>
      <trkpt lat="44.81056" lon="1.65666">
        <ele>279.4</ele>
        <time>2021-08-16T17:30:33Z</time>
      </trkpt>
      <trkpt lat="44.81059" lon="1.65658">
        <ele>279.4</ele>
        <time>2021-08-16T17:30:34Z</time>
      </trkpt>
      <trkpt lat="44.81068" lon="1.65634">
        <ele>279.4</ele>
        <time>2021-08-16T17:30:37Z</time>
      </trkpt>
      <trkpt lat="44.81081" lon="1.65588">
        <ele>279.4</ele>
        <time>2021-08-16T17:30:43Z</time>
      </trkpt>
      <trkpt lat="44.81083" lon="1.65571">
        <ele>278.92</ele>
        <time>2021-08-16T17:30:45Z</time>
      </trkpt>
      <trkpt lat="44.81084" lon="1.65561">
        <ele>278.92</ele>
        <time>2021-08-16T17:30:46Z</time>
      </trkpt>
      <trkpt lat="44.81084" lon="1.65478">
        <ele>277.48</ele>
        <time>2021-08-16T17:30:55Z</time>
      </trkpt>
      <trkpt lat="44.81085" lon="1.65433">
        <ele>276.52</ele>
        <time>2021-08-16T17:31:00Z</time>
      </trkpt>
      <trkpt lat="44.81083" lon="1.65387">
        <ele>275.56</ele>
        <time>2021-08-16T17:31:05Z</time>
      </trkpt>
      <trkpt lat="44.81086" lon="1.65309">
        <ele>274.59</ele>
        <time>2021-08-16T17:31:13Z</time>
      </trkpt>
      <trkpt lat="44.81083" lon="1.65256">
        <ele>276.52</ele>
        <time>2021-08-16T17:31:20Z</time>
      </trkpt>
      <trkpt lat="44.81083" lon="1.65249">
        <ele>277</ele>
        <time>2021-08-16T17:31:21Z</time>
      </trkpt>
      <trkpt lat="44.81083" lon="1.65242">
        <ele>277</ele>
        <time>2021-08-16T17:31:22Z</time>
      </trkpt>
      <trkpt lat="44.8108" lon="1.6517">
        <ele>277</ele>
        <time>2021-08-16T17:31:32Z</time>
      </trkpt>
      <trkpt lat="44.81079" lon="1.65146">
        <ele>275.56</ele>
        <time>2021-08-16T17:31:35Z</time>
      </trkpt>
      <trkpt lat="44.81077" lon="1.65102">
        <ele>273.15</ele>
        <time>2021-08-16T17:31:40Z</time>
      </trkpt>
      <trkpt lat="44.81074" lon="1.65084">
        <ele>272.67</ele>
        <time>2021-08-16T17:31:42Z</time>
      </trkpt>
      <trkpt lat="44.81059" lon="1.65031">
        <ele>274.59</ele>
        <time>2021-08-16T17:31:49Z</time>
      </trkpt>
      <trkpt lat="44.81049" lon="1.64996">
        <ele>275.56</ele>
        <time>2021-08-16T17:31:56Z</time>
      </trkpt>
      <trkpt lat="44.81044" lon="1.6497">
        <ele>277.48</ele>
        <time>2021-08-16T17:32:03Z</time>
      </trkpt>
      <trkpt lat="44.81041" lon="1.64945">
        <ele>278.92</ele>
        <time>2021-08-16T17:32:10Z</time>
      </trkpt>
      <trkpt lat="44.81039" lon="1.64922">
        <ele>280.36</ele>
        <time>2021-08-16T17:32:18Z</time>
      </trkpt>
      <trkpt lat="44.81036" lon="1.64896">
        <ele>281.32</ele>
        <time>2021-08-16T17:32:27Z</time>
      </trkpt>
      <trkpt lat="44.81035" lon="1.6487">
        <ele>281.8</ele>
        <time>2021-08-16T17:32:36Z</time>
      </trkpt>
      <trkpt lat="44.8103" lon="1.64844">
        <ele>283.73</ele>
        <time>2021-08-16T17:32:45Z</time>
      </trkpt>
      <trkpt lat="44.8102" lon="1.64816">
        <ele>283.73</ele>
        <time>2021-08-16T17:32:53Z</time>
      </trkpt>
      <trkpt lat="44.81008" lon="1.64782">
        <ele>284.69</ele>
        <time>2021-08-16T17:33:02Z</time>
      </trkpt>
      <trkpt lat="44.80993" lon="1.64738">
        <ele>284.69</ele>
        <time>2021-08-16T17:33:11Z</time>
      </trkpt>
      <trkpt lat="44.80988" lon="1.64707">
        <ele>284.21</ele>
        <time>2021-08-16T17:33:16Z</time>
      </trkpt>
      <trkpt lat="44.80983" lon="1.64634">
        <ele>284.21</ele>
        <time>2021-08-16T17:33:27Z</time>
      </trkpt>
      <trkpt lat="44.8098" lon="1.64589">
        <ele>285.65</ele>
        <time>2021-08-16T17:33:35Z</time>
      </trkpt>
      <trkpt lat="44.80978" lon="1.64547">
        <ele>286.61</ele>
        <time>2021-08-16T17:33:43Z</time>
      </trkpt>
      <trkpt lat="44.80974" lon="1.64526">
        <ele>286.61</ele>
        <time>2021-08-16T17:33:47Z</time>
      </trkpt>
      <trkpt lat="44.80972" lon="1.64521">
        <ele>286.61</ele>
        <time>2021-08-16T17:33:48Z</time>
      </trkpt>
      <trkpt lat="44.80963" lon="1.64499">
        <ele>286.61</ele>
        <time>2021-08-16T17:33:52Z</time>
      </trkpt>
      <trkpt lat="44.80962" lon="1.64494">
        <ele>286.61</ele>
        <time>2021-08-16T17:33:53Z</time>
      </trkpt>
      <trkpt lat="44.80942" lon="1.64443">
        <ele>283.73</ele>
        <time>2021-08-16T17:34:01Z</time>
      </trkpt>
      <trkpt lat="44.80923" lon="1.64391">
        <ele>280.84</ele>
        <time>2021-08-16T17:34:07Z</time>
      </trkpt>
      <trkpt lat="44.8091" lon="1.64349">
        <ele>277</ele>
        <time>2021-08-16T17:34:11Z</time>
      </trkpt>
      <trkpt lat="44.80903" lon="1.64312">
        <ele>275.56</ele>
        <time>2021-08-16T17:34:14Z</time>
      </trkpt>
      <trkpt lat="44.80886" lon="1.64252">
        <ele>276.52</ele>
        <time>2021-08-16T17:34:20Z</time>
      </trkpt>
      <trkpt lat="44.80883" lon="1.64243">
        <ele>276.04</ele>
        <time>2021-08-16T17:34:21Z</time>
      </trkpt>
      <trkpt lat="44.80873" lon="1.64201">
        <ele>277</ele>
        <time>2021-08-16T17:34:27Z</time>
      </trkpt>
      <trkpt lat="44.80864" lon="1.64132">
        <ele>277.96</ele>
        <time>2021-08-16T17:34:37Z</time>
      </trkpt>
      <trkpt lat="44.8086" lon="1.64098">
        <ele>277.96</ele>
        <time>2021-08-16T17:34:42Z</time>
      </trkpt>
      <trkpt lat="44.80858" lon="1.64091">
        <ele>277.96</ele>
        <time>2021-08-16T17:34:43Z</time>
      </trkpt>
      <trkpt lat="44.80857" lon="1.64086">
        <ele>277.96</ele>
        <time>2021-08-16T17:34:44Z</time>
      </trkpt>
      <trkpt lat="44.80856" lon="1.64079">
        <ele>277.96</ele>
        <time>2021-08-16T17:34:45Z</time>
      </trkpt>
      <trkpt lat="44.80855" lon="1.64073">
        <ele>277.96</ele>
        <time>2021-08-16T17:34:46Z</time>
      </trkpt>
      <trkpt lat="44.80854" lon="1.64058">
        <ele>277.96</ele>
        <time>2021-08-16T17:34:48Z</time>
      </trkpt>
      <trkpt lat="44.80847" lon="1.6401">
        <ele>277.48</ele>
        <time>2021-08-16T17:34:54Z</time>
      </trkpt>
      <trkpt lat="44.80844" lon="1.64002">
        <ele>276.04</ele>
        <time>2021-08-16T17:34:55Z</time>
      </trkpt>
      <trkpt lat="44.80841" lon="1.63994">
        <ele>275.56</ele>
        <time>2021-08-16T17:34:56Z</time>
      </trkpt>
      <trkpt lat="44.80819" lon="1.63941">
        <ele>271.71</ele>
        <time>2021-08-16T17:35:02Z</time>
      </trkpt>
      <trkpt lat="44.80797" lon="1.63872">
        <ele>270.75</ele>
        <time>2021-08-16T17:35:09Z</time>
      </trkpt>
      <trkpt lat="44.80771" lon="1.63791">
        <ele>269.79</ele>
        <time>2021-08-16T17:35:18Z</time>
      </trkpt>
      <trkpt lat="44.80754" lon="1.63729">
        <ele>269.31</ele>
        <time>2021-08-16T17:35:25Z</time>
      </trkpt>
      <trkpt lat="44.80747" lon="1.63702">
        <ele>268.35</ele>
        <time>2021-08-16T17:35:28Z</time>
      </trkpt>
      <trkpt lat="44.80743" lon="1.63694">
        <ele>268.35</ele>
        <time>2021-08-16T17:35:29Z</time>
      </trkpt>
      <trkpt lat="44.80725" lon="1.63655">
        <ele>268.35</ele>
        <time>2021-08-16T17:35:34Z</time>
      </trkpt>
      <trkpt lat="44.80722" lon="1.63647">
        <ele>268.35</ele>
        <time>2021-08-16T17:35:35Z</time>
      </trkpt>
      <trkpt lat="44.80702" lon="1.63612">
        <ele>268.35</ele>
        <time>2021-08-16T17:35:40Z</time>
      </trkpt>
      <trkpt lat="44.80698" lon="1.63608">
        <ele>268.35</ele>
        <time>2021-08-16T17:35:41Z</time>
      </trkpt>
      <trkpt lat="44.80693" lon="1.63603">
        <ele>268.35</ele>
        <time>2021-08-16T17:35:42Z</time>
      </trkpt>
      <trkpt lat="44.80684" lon="1.63595">
        <ele>269.79</ele>
        <time>2021-08-16T17:35:44Z</time>
      </trkpt>
      <trkpt lat="44.80658" lon="1.6357">
        <ele>270.75</ele>
        <time>2021-08-16T17:35:51Z</time>
      </trkpt>
      <trkpt lat="44.80655" lon="1.63566">
        <ele>270.75</ele>
        <time>2021-08-16T17:35:52Z</time>
      </trkpt>
      <trkpt lat="44.80653" lon="1.6356">
        <ele>270.75</ele>
        <time>2021-08-16T17:35:53Z</time>
      </trkpt>
      <trkpt lat="44.80653" lon="1.63555">
        <ele>270.75</ele>
        <time>2021-08-16T17:35:54Z</time>
      </trkpt>
      <trkpt lat="44.80653" lon="1.63549">
        <ele>270.75</ele>
        <time>2021-08-16T17:35:55Z</time>
      </trkpt>
      <trkpt lat="44.80654" lon="1.63543">
        <ele>270.75</ele>
        <time>2021-08-16T17:35:56Z</time>
      </trkpt>
      <trkpt lat="44.80655" lon="1.63536">
        <ele>270.75</ele>
        <time>2021-08-16T17:35:57Z</time>
      </trkpt>
      <trkpt lat="44.80657" lon="1.6353">
        <ele>270.75</ele>
        <time>2021-08-16T17:35:58Z</time>
      </trkpt>
      <trkpt lat="44.80659" lon="1.63524">
        <ele>270.75</ele>
        <time>2021-08-16T17:35:59Z</time>
      </trkpt>
      <trkpt lat="44.8066" lon="1.63518">
        <ele>270.75</ele>
        <time>2021-08-16T17:36:00Z</time>
      </trkpt>
      <trkpt lat="44.80661" lon="1.63511">
        <ele>269.79</ele>
        <time>2021-08-16T17:36:01Z</time>
      </trkpt>
      <trkpt lat="44.80673" lon="1.63453">
        <ele>267.38</ele>
        <time>2021-08-16T17:36:09Z</time>
      </trkpt>
      <trkpt lat="44.80688" lon="1.63365">
        <ele>264.5</ele>
        <time>2021-08-16T17:36:19Z</time>
      </trkpt>
      <trkpt lat="44.8069" lon="1.63329">
        <ele>264.02</ele>
        <time>2021-08-16T17:36:23Z</time>
      </trkpt>
      <trkpt lat="44.80699" lon="1.6327">
        <ele>262.1</ele>
        <time>2021-08-16T17:36:30Z</time>
      </trkpt>
      <trkpt lat="44.80709" lon="1.63179">
        <ele>260.17</ele>
        <time>2021-08-16T17:36:40Z</time>
      </trkpt>
      <trkpt lat="44.80709" lon="1.63098">
        <ele>259.21</ele>
        <time>2021-08-16T17:36:49Z</time>
      </trkpt>
      <trkpt lat="44.80705" lon="1.63071">
        <ele>258.25</ele>
        <time>2021-08-16T17:36:52Z</time>
      </trkpt>
      <trkpt lat="44.80701" lon="1.63056">
        <ele>257.29</ele>
        <time>2021-08-16T17:36:54Z</time>
      </trkpt>
      <trkpt lat="44.80699" lon="1.63048">
        <ele>257.29</ele>
        <time>2021-08-16T17:36:55Z</time>
      </trkpt>
      <trkpt lat="44.80698" lon="1.6304">
        <ele>257.29</ele>
        <time>2021-08-16T17:36:56Z</time>
      </trkpt>
      <trkpt lat="44.80698" lon="1.6303">
        <ele>257.29</ele>
        <time>2021-08-16T17:36:57Z</time>
      </trkpt>
      <trkpt lat="44.80697" lon="1.63022">
        <ele>257.29</ele>
        <time>2021-08-16T17:36:58Z</time>
      </trkpt>
      <trkpt lat="44.80698" lon="1.63012">
        <ele>257.29</ele>
        <time>2021-08-16T17:36:59Z</time>
      </trkpt>
      <trkpt lat="44.80699" lon="1.63004">
        <ele>256.81</ele>
        <time>2021-08-16T17:37:00Z</time>
      </trkpt>
      <trkpt lat="44.80705" lon="1.62961">
        <ele>256.81</ele>
        <time>2021-08-16T17:37:06Z</time>
      </trkpt>
      <trkpt lat="44.80707" lon="1.62942">
        <ele>256.81</ele>
        <time>2021-08-16T17:37:11Z</time>
      </trkpt>
      <trkpt lat="44.80706" lon="1.6294">
        <ele>256.81</ele>
        <time>2021-08-16T17:37:12Z</time>
      </trkpt>
      <trkpt lat="44.80706" lon="1.62936">
        <ele>256.81</ele>
        <time>2021-08-16T17:37:13Z</time>
      </trkpt>
      <trkpt lat="44.80706" lon="1.62931">
        <ele>256.81</ele>
        <time>2021-08-16T17:37:14Z</time>
      </trkpt>
      <trkpt lat="44.80705" lon="1.62927">
        <ele>256.81</ele>
        <time>2021-08-16T17:37:15Z</time>
      </trkpt>
      <trkpt lat="44.80704" lon="1.62922">
        <ele>256.81</ele>
        <time>2021-08-16T17:37:16Z</time>
      </trkpt>
      <trkpt lat="44.80702" lon="1.62916">
        <ele>256.33</ele>
        <time>2021-08-16T17:37:17Z</time>
      </trkpt>
      <trkpt lat="44.80696" lon="1.629">
        <ele>256.33</ele>
        <time>2021-08-16T17:37:20Z</time>
      </trkpt>
      <trkpt lat="44.80692" lon="1.62888">
        <ele>255.85</ele>
        <time>2021-08-16T17:37:22Z</time>
      </trkpt>
      <trkpt lat="44.80674" lon="1.62845">
        <ele>255.85</ele>
        <time>2021-08-16T17:37:30Z</time>
      </trkpt>
      <trkpt lat="44.80677" lon="1.62824">
        <ele>255.85</ele>
        <time>2021-08-16T17:37:34Z</time>
      </trkpt>
      <trkpt lat="44.80683" lon="1.62817">
        <ele>255.85</ele>
        <time>2021-08-16T17:37:36Z</time>
      </trkpt>
      <trkpt lat="44.80692" lon="1.62793">
        <ele>255.85</ele>
        <time>2021-08-16T17:37:41Z</time>
      </trkpt>
      <trkpt lat="44.80703" lon="1.62778">
        <ele>255.85</ele>
        <time>2021-08-16T17:37:46Z</time>
      </trkpt>
      <trkpt lat="44.80703" lon="1.62775">
        <ele>255.85</ele>
        <time>2021-08-16T17:37:47Z</time>
      </trkpt>
      <trkpt lat="44.80702" lon="1.62773">
        <ele>256.81</ele>
        <time>2021-08-16T17:37:48Z</time>
      </trkpt>
      <trkpt lat="44.80701" lon="1.62771">
        <ele>256.81</ele>
        <time>2021-08-16T17:37:49Z</time>
      </trkpt>
      <trkpt lat="44.80702" lon="1.6277">
        <ele>256.81</ele>
        <time>2021-08-16T17:37:53Z</time>
      </trkpt>
      <trkpt lat="44.80703" lon="1.62769">
        <ele>256.81</ele>
        <time>2021-08-16T17:37:54Z</time>
      </trkpt>
      <trkpt lat="44.80704" lon="1.62769">
        <ele>256.81</ele>
        <time>2021-08-16T17:37:55Z</time>
      </trkpt>
      <trkpt lat="44.80705" lon="1.62771">
        <ele>256.81</ele>
        <time>2021-08-16T17:37:56Z</time>
      </trkpt>
      <trkpt lat="44.80706" lon="1.62774">
        <ele>256.81</ele>
        <time>2021-08-16T17:37:57Z</time>
      </trkpt>
      <trkpt lat="44.80707" lon="1.62777">
        <ele>256.81</ele>
        <time>2021-08-16T17:37:58Z</time>
      </trkpt>
      <trkpt lat="44.80704" lon="1.62794">
        <ele>256.81</ele>
        <time>2021-08-16T17:38:04Z</time>
      </trkpt>
      <trkpt lat="44.80704" lon="1.62799">
        <ele>256.81</ele>
        <time>2021-08-16T17:38:09Z</time>
      </trkpt>
      <trkpt lat="44.80706" lon="1.62798">
        <ele>256.81</ele>
        <time>2021-08-16T17:38:15Z</time>
      </trkpt>
      <trkpt lat="44.80709" lon="1.62805">
        <ele>256.81</ele>
        <time>2021-08-16T17:38:18Z</time>
      </trkpt>
      <trkpt lat="44.80707" lon="1.62809">
        <ele>255.85</ele>
        <time>2021-08-16T17:38:19Z</time>
      </trkpt>
      <trkpt lat="44.80705" lon="1.62811">
        <ele>255.85</ele>
        <time>2021-08-16T17:38:20Z</time>
      </trkpt>
      <trkpt lat="44.80703" lon="1.62813">
        <ele>255.85</ele>
        <time>2021-08-16T17:38:21Z</time>
      </trkpt>
      <trkpt lat="44.80697" lon="1.62815">
        <ele>255.85</ele>
        <time>2021-08-16T17:38:23Z</time>
      </trkpt>
      <trkpt lat="44.80694" lon="1.62816">
        <ele>255.85</ele>
        <time>2021-08-16T17:38:24Z</time>
      </trkpt>
      <trkpt lat="44.80679" lon="1.62822">
        <ele>255.85</ele>
        <time>2021-08-16T17:38:29Z</time>
      </trkpt>
      <trkpt lat="44.80673" lon="1.62828">
        <ele>255.85</ele>
        <time>2021-08-16T17:38:31Z</time>
      </trkpt>
      <trkpt lat="44.80657" lon="1.62841">
        <ele>255.85</ele>
        <time>2021-08-16T17:38:38Z</time>
      </trkpt>
      <trkpt lat="44.80655" lon="1.62842">
        <ele>255.85</ele>
        <time>2021-08-16T17:38:40Z</time>
      </trkpt>
      <trkpt lat="44.80649" lon="1.62832">
        <ele>255.37</ele>
        <time>2021-08-16T17:38:47Z</time>
      </trkpt>
      <trkpt lat="44.8065" lon="1.62837">
        <ele>255.37</ele>
        <time>2021-08-16T17:38:51Z</time>
      </trkpt>
      <trkpt lat="44.80654" lon="1.6284">
        <ele>255.37</ele>
        <time>2021-08-16T17:38:53Z</time>
      </trkpt>
      <trkpt lat="44.80664" lon="1.62839">
        <ele>255.37</ele>
        <time>2021-08-16T17:38:57Z</time>
      </trkpt>
      <trkpt lat="44.80682" lon="1.62817">
        <ele>255.37</ele>
        <time>2021-08-16T17:39:03Z</time>
      </trkpt>
      <trkpt lat="44.80691" lon="1.62795">
        <ele>255.37</ele>
        <time>2021-08-16T17:39:08Z</time>
      </trkpt>
      <trkpt lat="44.80694" lon="1.62792">
        <ele>255.37</ele>
        <time>2021-08-16T17:39:09Z</time>
      </trkpt>
      <trkpt lat="44.80703" lon="1.62778">
        <ele>256.33</ele>
        <time>2021-08-16T17:39:13Z</time>
      </trkpt>
      <trkpt lat="44.80702" lon="1.62774">
        <ele>256.33</ele>
        <time>2021-08-16T17:39:14Z</time>
      </trkpt>
      <trkpt lat="44.80701" lon="1.62771">
        <ele>256.33</ele>
        <time>2021-08-16T17:39:15Z</time>
      </trkpt>
      <trkpt lat="44.80701" lon="1.62768">
        <ele>256.33</ele>
        <time>2021-08-16T17:39:16Z</time>
      </trkpt>
      <trkpt lat="44.807" lon="1.62764">
        <ele>256.81</ele>
        <time>2021-08-16T17:39:17Z</time>
      </trkpt>
      <trkpt lat="44.80698" lon="1.6276">
        <ele>256.81</ele>
        <time>2021-08-16T17:39:18Z</time>
      </trkpt>
      <trkpt lat="44.80697" lon="1.62756">
        <ele>256.81</ele>
        <time>2021-08-16T17:39:19Z</time>
      </trkpt>
      <trkpt lat="44.80686" lon="1.62728">
        <ele>257.77</ele>
        <time>2021-08-16T17:39:26Z</time>
      </trkpt>
      <trkpt lat="44.80669" lon="1.62703">
        <ele>258.73</ele>
        <time>2021-08-16T17:39:34Z</time>
      </trkpt>
      <trkpt lat="44.80661" lon="1.62694">
        <ele>258.73</ele>
        <time>2021-08-16T17:39:37Z</time>
      </trkpt>
      <trkpt lat="44.80642" lon="1.62688">
        <ele>258.73</ele>
        <time>2021-08-16T17:39:43Z</time>
      </trkpt>
      <trkpt lat="44.80634" lon="1.62687">
        <ele>258.73</ele>
        <time>2021-08-16T17:39:49Z</time>
      </trkpt>
      <trkpt lat="44.80636" lon="1.62689">
        <ele>259.21</ele>
        <time>2021-08-16T17:39:55Z</time>
      </trkpt>
      <trkpt lat="44.80635" lon="1.62689">
        <ele>259.21</ele>
        <time>2021-08-16T17:40:04Z</time>
      </trkpt>
      <trkpt lat="44.80633" lon="1.62688">
        <ele>259.21</ele>
        <time>2021-08-16T17:40:22Z</time>
      </trkpt>
      <trkpt lat="44.80632" lon="1.62684">
        <ele>259.21</ele>
        <time>2021-08-16T17:40:41Z</time>
      </trkpt>
      <trkpt lat="44.80632" lon="1.62682">
        <ele>259.21</ele>
        <time>2021-08-16T17:41:02Z</time>
      </trkpt>
      <trkpt lat="44.80631" lon="1.6268">
        <ele>259.21</ele>
        <time>2021-08-16T17:41:16Z</time>
      </trkpt>
      <trkpt lat="44.80631" lon="1.62676">
        <ele>259.21</ele>
        <time>2021-08-16T17:41:38Z</time>
      </trkpt>
      <trkpt lat="44.80632" lon="1.62674">
        <ele>259.21</ele>
        <time>2021-08-16T17:41:58Z</time>
      </trkpt>
      <trkpt lat="44.80632" lon="1.62676">
        <ele>259.21</ele>
        <time>2021-08-16T17:42:10Z</time>
      </trkpt>
      <trkpt lat="44.80631" lon="1.62677">
        <ele>259.21</ele>
        <time>2021-08-16T17:42:26Z</time>
      </trkpt>
      <trkpt lat="44.80631" lon="1.62675">
        <ele>259.21</ele>
        <time>2021-08-16T17:42:47Z</time>
      </trkpt>
      <trkpt lat="44.8063" lon="1.62675">
        <ele>259.69</ele>
        <time>2021-08-16T17:43:07Z</time>
      </trkpt>
      <trkpt lat="44.8063" lon="1.62673">
        <ele>259.69</ele>
        <time>2021-08-16T17:43:20Z</time>
      </trkpt>
      <trkpt lat="44.80631" lon="1.62673">
        <ele>259.69</ele>
        <time>2021-08-16T17:43:22Z</time>
      </trkpt>
      <trkpt lat="44.80631" lon="1.62671">
        <ele>259.69</ele>
        <time>2021-08-16T17:43:30Z</time>
      </trkpt>
      <trkpt lat="44.8063" lon="1.62672">
        <ele>260.17</ele>
        <time>2021-08-16T17:43:32Z</time>
      </trkpt>
      <trkpt lat="44.80622" lon="1.62671">
        <ele>260.17</ele>
        <time>2021-08-16T17:43:37Z</time>
      </trkpt>
      <trkpt lat="44.80595" lon="1.62664">
        <ele>260.17</ele>
        <time>2021-08-16T17:43:46Z</time>
      </trkpt>
      <trkpt lat="44.80559" lon="1.62653">
        <ele>260.17</ele>
        <time>2021-08-16T17:43:55Z</time>
      </trkpt>
      <trkpt lat="44.80523" lon="1.62643">
        <ele>258.73</ele>
        <time>2021-08-16T17:44:04Z</time>
      </trkpt>
      <trkpt lat="44.80509" lon="1.62642">
        <ele>258.73</ele>
        <time>2021-08-16T17:44:09Z</time>
      </trkpt>
      <trkpt lat="44.80506" lon="1.6266">
        <ele>258.73</ele>
        <time>2021-08-16T17:44:14Z</time>
      </trkpt>
      <trkpt lat="44.80497" lon="1.62687">
        <ele>258.73</ele>
        <time>2021-08-16T17:44:20Z</time>
      </trkpt>
      <trkpt lat="44.80479" lon="1.62704">
        <ele>258.73</ele>
        <time>2021-08-16T17:44:27Z</time>
      </trkpt>
      <trkpt lat="44.80475" lon="1.62704">
        <ele>258.73</ele>
        <time>2021-08-16T17:44:29Z</time>
      </trkpt>
      <trkpt lat="44.80473" lon="1.62702">
        <ele>258.73</ele>
        <time>2021-08-16T17:44:30Z</time>
      </trkpt>
      <trkpt lat="44.80472" lon="1.62701">
        <ele>258.73</ele>
        <time>2021-08-16T17:44:31Z</time>
      </trkpt>
      <trkpt lat="44.80472" lon="1.62699">
        <ele>258.73</ele>
        <time>2021-08-16T17:44:32Z</time>
      </trkpt>
      <trkpt lat="44.80472" lon="1.62697">
        <ele>258.73</ele>
        <time>2021-08-16T17:44:33Z</time>
      </trkpt>
      <trkpt lat="44.80474" lon="1.62694">
        <ele>258.73</ele>
        <time>2021-08-16T17:44:34Z</time>
      </trkpt>
      <trkpt lat="44.80476" lon="1.62691">
        <ele>258.73</ele>
        <time>2021-08-16T17:44:35Z</time>
      </trkpt>
      <trkpt lat="44.80483" lon="1.62668">
        <ele>258.73</ele>
        <time>2021-08-16T17:44:40Z</time>
      </trkpt>
      <trkpt lat="44.80491" lon="1.62626">
        <ele>260.17</ele>
        <time>2021-08-16T17:44:48Z</time>
      </trkpt>
      <trkpt lat="44.80496" lon="1.62583">
        <ele>260.65</ele>
        <time>2021-08-16T17:44:56Z</time>
      </trkpt>
      <trkpt lat="44.80499" lon="1.62536">
        <ele>261.62</ele>
        <time>2021-08-16T17:45:06Z</time>
      </trkpt>
      <trkpt lat="44.80499" lon="1.62513">
        <ele>262.1</ele>
        <time>2021-08-16T17:45:11Z</time>
      </trkpt>
      <trkpt lat="44.805" lon="1.62509">
        <ele>262.58</ele>
        <time>2021-08-16T17:45:12Z</time>
      </trkpt>
      <trkpt lat="44.80499" lon="1.62504">
        <ele>262.58</ele>
        <time>2021-08-16T17:45:13Z</time>
      </trkpt>
      <trkpt lat="44.80491" lon="1.62439">
        <ele>263.06</ele>
        <time>2021-08-16T17:45:26Z</time>
      </trkpt>
      <trkpt lat="44.80484" lon="1.62391">
        <ele>263.54</ele>
        <time>2021-08-16T17:45:35Z</time>
      </trkpt>
      <trkpt lat="44.80476" lon="1.6234">
        <ele>264.02</ele>
        <time>2021-08-16T17:45:44Z</time>
      </trkpt>
      <trkpt lat="44.80467" lon="1.62275">
        <ele>264.02</ele>
        <time>2021-08-16T17:45:55Z</time>
      </trkpt>
      <trkpt lat="44.80456" lon="1.62211">
        <ele>264.98</ele>
        <time>2021-08-16T17:46:06Z</time>
      </trkpt>
      <trkpt lat="44.80453" lon="1.622">
        <ele>264.98</ele>
        <time>2021-08-16T17:46:08Z</time>
      </trkpt>
      <trkpt lat="44.80452" lon="1.62194">
        <ele>264.98</ele>
        <time>2021-08-16T17:46:09Z</time>
      </trkpt>
      <trkpt lat="44.80452" lon="1.62188">
        <ele>264.98</ele>
        <time>2021-08-16T17:46:10Z</time>
      </trkpt>
      <trkpt lat="44.80452" lon="1.62183">
        <ele>264.98</ele>
        <time>2021-08-16T17:46:11Z</time>
      </trkpt>
      <trkpt lat="44.80452" lon="1.62177">
        <ele>265.46</ele>
        <time>2021-08-16T17:46:12Z</time>
      </trkpt>
      <trkpt lat="44.80451" lon="1.62171">
        <ele>265.46</ele>
        <time>2021-08-16T17:46:13Z</time>
      </trkpt>
      <trkpt lat="44.80448" lon="1.62167">
        <ele>265.46</ele>
        <time>2021-08-16T17:46:14Z</time>
      </trkpt>
      <trkpt lat="44.80444" lon="1.62164">
        <ele>265.46</ele>
        <time>2021-08-16T17:46:15Z</time>
      </trkpt>
      <trkpt lat="44.8044" lon="1.62165">
        <ele>265.94</ele>
        <time>2021-08-16T17:46:16Z</time>
      </trkpt>
      <trkpt lat="44.80437" lon="1.62167">
        <ele>265.94</ele>
        <time>2021-08-16T17:46:17Z</time>
      </trkpt>
      <trkpt lat="44.80434" lon="1.62172">
        <ele>265.94</ele>
        <time>2021-08-16T17:46:18Z</time>
      </trkpt>
      <trkpt lat="44.80431" lon="1.62175">
        <ele>265.94</ele>
        <time>2021-08-16T17:46:19Z</time>
      </trkpt>
      <trkpt lat="44.80427" lon="1.62178">
        <ele>265.94</ele>
        <time>2021-08-16T17:46:20Z</time>
      </trkpt>
      <trkpt lat="44.80425" lon="1.62179">
        <ele>265.94</ele>
        <time>2021-08-16T17:46:21Z</time>
      </trkpt>
      <trkpt lat="44.80421" lon="1.6218">
        <ele>266.42</ele>
        <time>2021-08-16T17:46:22Z</time>
      </trkpt>
      <trkpt lat="44.80417" lon="1.62179">
        <ele>266.42</ele>
        <time>2021-08-16T17:46:23Z</time>
      </trkpt>
      <trkpt lat="44.80414" lon="1.62177">
        <ele>266.42</ele>
        <time>2021-08-16T17:46:24Z</time>
      </trkpt>
      <trkpt lat="44.8041" lon="1.62173">
        <ele>266.42</ele>
        <time>2021-08-16T17:46:25Z</time>
      </trkpt>
      <trkpt lat="44.80408" lon="1.6217">
        <ele>266.9</ele>
        <time>2021-08-16T17:46:26Z</time>
      </trkpt>
      <trkpt lat="44.80405" lon="1.62165">
        <ele>266.9</ele>
        <time>2021-08-16T17:46:27Z</time>
      </trkpt>
      <trkpt lat="44.8039" lon="1.62146">
        <ele>267.38</ele>
        <time>2021-08-16T17:46:33Z</time>
      </trkpt>
      <trkpt lat="44.80388" lon="1.62145">
        <ele>267.38</ele>
        <time>2021-08-16T17:46:34Z</time>
      </trkpt>
      <trkpt lat="44.80386" lon="1.62145">
        <ele>267.38</ele>
        <time>2021-08-16T17:46:35Z</time>
      </trkpt>
      <trkpt lat="44.80385" lon="1.62144">
        <ele>267.38</ele>
        <time>2021-08-16T17:46:36Z</time>
      </trkpt>
      <trkpt lat="44.80385" lon="1.62142">
        <ele>267.38</ele>
        <time>2021-08-16T17:46:37Z</time>
      </trkpt>
      <trkpt lat="44.80376" lon="1.62126">
        <ele>267.38</ele>
        <time>2021-08-16T17:46:42Z</time>
      </trkpt>
      <trkpt lat="44.80375" lon="1.62121">
        <ele>267.38</ele>
        <time>2021-08-16T17:46:43Z</time>
      </trkpt>
      <trkpt lat="44.80373" lon="1.62116">
        <ele>267.38</ele>
        <time>2021-08-16T17:46:44Z</time>
      </trkpt>
      <trkpt lat="44.80359" lon="1.62086">
        <ele>267.86</ele>
        <time>2021-08-16T17:46:51Z</time>
      </trkpt>
      <trkpt lat="44.80333" lon="1.62053">
        <ele>267.86</ele>
        <time>2021-08-16T17:47:01Z</time>
      </trkpt>
      <trkpt lat="44.80299" lon="1.62015">
        <ele>264.98</ele>
        <time>2021-08-16T17:47:10Z</time>
      </trkpt>
      <trkpt lat="44.80286" lon="1.62006">
        <ele>264.5</ele>
        <time>2021-08-16T17:47:13Z</time>
      </trkpt>
      <trkpt lat="44.80263" lon="1.61987">
        <ele>264.02</ele>
        <time>2021-08-16T17:47:20Z</time>
      </trkpt>
      <trkpt lat="44.8025" lon="1.61963">
        <ele>262.1</ele>
        <time>2021-08-16T17:47:26Z</time>
      </trkpt>
      <trkpt lat="44.80247" lon="1.61951">
        <ele>260.17</ele>
        <time>2021-08-16T17:47:29Z</time>
      </trkpt>
      <trkpt lat="44.80247" lon="1.61952">
        <ele>259.69</ele>
        <time>2021-08-16T17:47:34Z</time>
      </trkpt>
      <trkpt lat="44.80251" lon="1.61961">
        <ele>261.14</ele>
        <time>2021-08-16T17:47:40Z</time>
      </trkpt>
      <trkpt lat="44.80255" lon="1.61967">
        <ele>263.06</ele>
        <time>2021-08-16T17:47:45Z</time>
      </trkpt>
      <trkpt lat="44.80257" lon="1.61964">
        <ele>263.54</ele>
        <time>2021-08-16T17:47:51Z</time>
      </trkpt>
      <trkpt lat="44.80258" lon="1.61961">
        <ele>263.54</ele>
        <time>2021-08-16T17:47:53Z</time>
      </trkpt>
      <trkpt lat="44.80258" lon="1.61959">
        <ele>263.54</ele>
        <time>2021-08-16T17:47:54Z</time>
      </trkpt>
      <trkpt lat="44.80258" lon="1.61957">
        <ele>263.54</ele>
        <time>2021-08-16T17:47:55Z</time>
      </trkpt>
      <trkpt lat="44.80254" lon="1.61932">
        <ele>263.54</ele>
        <time>2021-08-16T17:48:01Z</time>
      </trkpt>
      <trkpt lat="44.80247" lon="1.6187">
        <ele>261.62</ele>
        <time>2021-08-16T17:48:12Z</time>
      </trkpt>
      <trkpt lat="44.80242" lon="1.61849">
        <ele>261.62</ele>
        <time>2021-08-16T17:48:16Z</time>
      </trkpt>
      <trkpt lat="44.8024" lon="1.61844">
        <ele>261.62</ele>
        <time>2021-08-16T17:48:17Z</time>
      </trkpt>
      <trkpt lat="44.80237" lon="1.61841">
        <ele>261.62</ele>
        <time>2021-08-16T17:48:18Z</time>
      </trkpt>
      <trkpt lat="44.80224" lon="1.61824">
        <ele>263.06</ele>
        <time>2021-08-16T17:48:23Z</time>
      </trkpt>
      <trkpt lat="44.80205" lon="1.618">
        <ele>264.5</ele>
        <time>2021-08-16T17:48:31Z</time>
      </trkpt>
      <trkpt lat="44.80194" lon="1.61768">
        <ele>266.42</ele>
        <time>2021-08-16T17:48:39Z</time>
      </trkpt>
      <trkpt lat="44.80183" lon="1.61735">
        <ele>266.42</ele>
        <time>2021-08-16T17:48:47Z</time>
      </trkpt>
      <trkpt lat="44.8016" lon="1.61702">
        <ele>266.42</ele>
        <time>2021-08-16T17:48:56Z</time>
      </trkpt>
      <trkpt lat="44.80124" lon="1.61663">
        <ele>264.98</ele>
        <time>2021-08-16T17:49:06Z</time>
      </trkpt>
      <trkpt lat="44.8012" lon="1.6166">
        <ele>264.98</ele>
        <time>2021-08-16T17:49:07Z</time>
      </trkpt>
      <trkpt lat="44.80114" lon="1.61658">
        <ele>264.98</ele>
        <time>2021-08-16T17:49:08Z</time>
      </trkpt>
      <trkpt lat="44.80109" lon="1.61658">
        <ele>264.98</ele>
        <time>2021-08-16T17:49:09Z</time>
      </trkpt>
      <trkpt lat="44.80104" lon="1.61658">
        <ele>264.5</ele>
        <time>2021-08-16T17:49:10Z</time>
      </trkpt>
      <trkpt lat="44.80099" lon="1.6166">
        <ele>264.5</ele>
        <time>2021-08-16T17:49:11Z</time>
      </trkpt>
      <trkpt lat="44.80094" lon="1.61661">
        <ele>264.5</ele>
        <time>2021-08-16T17:49:12Z</time>
      </trkpt>
      <trkpt lat="44.80091" lon="1.61661">
        <ele>264.02</ele>
        <time>2021-08-16T17:49:13Z</time>
      </trkpt>
      <trkpt lat="44.80087" lon="1.6166">
        <ele>264.02</ele>
        <time>2021-08-16T17:49:14Z</time>
      </trkpt>
      <trkpt lat="44.80082" lon="1.61659">
        <ele>263.54</ele>
        <time>2021-08-16T17:49:15Z</time>
      </trkpt>
      <trkpt lat="44.80077" lon="1.61659">
        <ele>263.06</ele>
        <time>2021-08-16T17:49:16Z</time>
      </trkpt>
      <trkpt lat="44.80072" lon="1.61659">
        <ele>263.06</ele>
        <time>2021-08-16T17:49:17Z</time>
      </trkpt>
      <trkpt lat="44.80031" lon="1.61661">
        <ele>262.1</ele>
        <time>2021-08-16T17:49:25Z</time>
      </trkpt>
      <trkpt lat="44.80002" lon="1.61661">
        <ele>261.14</ele>
        <time>2021-08-16T17:49:32Z</time>
      </trkpt>
      <trkpt lat="44.8" lon="1.61657">
        <ele>261.14</ele>
        <time>2021-08-16T17:49:33Z</time>
      </trkpt>
      <trkpt lat="44.79995" lon="1.61634">
        <ele>260.65</ele>
        <time>2021-08-16T17:49:38Z</time>
      </trkpt>
      <trkpt lat="44.79994" lon="1.61631">
        <ele>260.65</ele>
        <time>2021-08-16T17:49:39Z</time>
      </trkpt>
      <trkpt lat="44.79991" lon="1.6163">
        <ele>260.65</ele>
        <time>2021-08-16T17:49:40Z</time>
      </trkpt>
      <trkpt lat="44.79988" lon="1.61629">
        <ele>260.65</ele>
        <time>2021-08-16T17:49:41Z</time>
      </trkpt>
      <trkpt lat="44.79985" lon="1.61629">
        <ele>260.65</ele>
        <time>2021-08-16T17:49:42Z</time>
      </trkpt>
      <trkpt lat="44.79982" lon="1.61629">
        <ele>260.65</ele>
        <time>2021-08-16T17:49:43Z</time>
      </trkpt>
      <trkpt lat="44.79957" lon="1.61627">
        <ele>260.17</ele>
        <time>2021-08-16T17:49:50Z</time>
      </trkpt>
      <trkpt lat="44.79929" lon="1.61615">
        <ele>260.17</ele>
        <time>2021-08-16T17:49:58Z</time>
      </trkpt>
      <trkpt lat="44.7992" lon="1.61613">
        <ele>260.17</ele>
        <time>2021-08-16T17:50:00Z</time>
      </trkpt>
      <trkpt lat="44.79915" lon="1.61614">
        <ele>259.69</ele>
        <time>2021-08-16T17:50:01Z</time>
      </trkpt>
      <trkpt lat="44.79911" lon="1.61615">
        <ele>259.69</ele>
        <time>2021-08-16T17:50:02Z</time>
      </trkpt>
      <trkpt lat="44.79881" lon="1.61625">
        <ele>256.33</ele>
        <time>2021-08-16T17:50:08Z</time>
      </trkpt>
      <trkpt lat="44.79853" lon="1.61625">
        <ele>252.96</ele>
        <time>2021-08-16T17:50:13Z</time>
      </trkpt>
      <trkpt lat="44.79849" lon="1.61623">
        <ele>252.96</ele>
        <time>2021-08-16T17:50:14Z</time>
      </trkpt>
      <trkpt lat="44.79845" lon="1.61618">
        <ele>252.48</ele>
        <time>2021-08-16T17:50:15Z</time>
      </trkpt>
      <trkpt lat="44.79843" lon="1.61613">
        <ele>252.48</ele>
        <time>2021-08-16T17:50:16Z</time>
      </trkpt>
      <trkpt lat="44.79841" lon="1.61607">
        <ele>252</ele>
        <time>2021-08-16T17:50:17Z</time>
      </trkpt>
      <trkpt lat="44.79839" lon="1.61601">
        <ele>252.48</ele>
        <time>2021-08-16T17:50:18Z</time>
      </trkpt>
      <trkpt lat="44.79835" lon="1.61591">
        <ele>252</ele>
        <time>2021-08-16T17:50:20Z</time>
      </trkpt>
      <trkpt lat="44.79819" lon="1.6156">
        <ele>250.08</ele>
        <time>2021-08-16T17:50:26Z</time>
      </trkpt>
      <trkpt lat="44.79817" lon="1.61552">
        <ele>250.08</ele>
        <time>2021-08-16T17:50:27Z</time>
      </trkpt>
      <trkpt lat="44.79815" lon="1.61545">
        <ele>250.08</ele>
        <time>2021-08-16T17:50:28Z</time>
      </trkpt>
      <trkpt lat="44.79815" lon="1.61535">
        <ele>249.6</ele>
        <time>2021-08-16T17:50:29Z</time>
      </trkpt>
      <trkpt lat="44.79815" lon="1.61528">
        <ele>249.6</ele>
        <time>2021-08-16T17:50:30Z</time>
      </trkpt>
      <trkpt lat="44.79816" lon="1.61522">
        <ele>249.6</ele>
        <time>2021-08-16T17:50:31Z</time>
      </trkpt>
      <trkpt lat="44.79816" lon="1.61516">
        <ele>249.6</ele>
        <time>2021-08-16T17:50:32Z</time>
      </trkpt>
      <trkpt lat="44.79817" lon="1.61505">
        <ele>249.6</ele>
        <time>2021-08-16T17:50:36Z</time>
      </trkpt>
      <trkpt lat="44.79816" lon="1.61508">
        <ele>249.6</ele>
        <time>2021-08-16T17:50:41Z</time>
      </trkpt>
      <trkpt lat="44.79817" lon="1.61511">
        <ele>249.6</ele>
        <time>2021-08-16T17:50:42Z</time>
      </trkpt>
      <trkpt lat="44.79817" lon="1.61512">
        <ele>249.6</ele>
        <time>2021-08-16T17:50:43Z</time>
      </trkpt>
      <trkpt lat="44.79818" lon="1.61516">
        <ele>249.6</ele>
        <time>2021-08-16T17:50:45Z</time>
      </trkpt>
      <trkpt lat="44.79818" lon="1.61519">
        <ele>249.6</ele>
        <time>2021-08-16T17:50:46Z</time>
      </trkpt>
      <trkpt lat="44.79817" lon="1.6152">
        <ele>249.6</ele>
        <time>2021-08-16T17:50:47Z</time>
      </trkpt>
      <trkpt lat="44.79815" lon="1.6152">
        <ele>249.6</ele>
        <time>2021-08-16T17:50:48Z</time>
      </trkpt>
      <trkpt lat="44.79814" lon="1.61519">
        <ele>249.6</ele>
        <time>2021-08-16T17:50:49Z</time>
      </trkpt>
      <trkpt lat="44.79814" lon="1.61517">
        <ele>249.6</ele>
        <time>2021-08-16T17:50:50Z</time>
      </trkpt>
      <trkpt lat="44.79814" lon="1.61514">
        <ele>249.12</ele>
        <time>2021-08-16T17:50:51Z</time>
      </trkpt>
      <trkpt lat="44.79813" lon="1.61508">
        <ele>248.64</ele>
        <time>2021-08-16T17:50:54Z</time>
      </trkpt>
      <trkpt lat="44.79811" lon="1.61507">
        <ele>248.16</ele>
        <time>2021-08-16T17:50:56Z</time>
      </trkpt>
      <trkpt lat="44.79808" lon="1.61506">
        <ele>246.72</ele>
        <time>2021-08-16T17:50:58Z</time>
      </trkpt>
      <trkpt lat="44.79807" lon="1.61506">
        <ele>246.72</ele>
        <time>2021-08-16T17:50:59Z</time>
      </trkpt>
      <trkpt lat="44.79806" lon="1.61505">
        <ele>246.23</ele>
        <time>2021-08-16T17:51:00Z</time>
      </trkpt>
      <trkpt lat="44.79804" lon="1.61503">
        <ele>245.27</ele>
        <time>2021-08-16T17:51:01Z</time>
      </trkpt>
      <trkpt lat="44.79796" lon="1.61492">
        <ele>243.35</ele>
        <time>2021-08-16T17:51:04Z</time>
      </trkpt>
      <trkpt lat="44.79793" lon="1.61488">
        <ele>242.39</ele>
        <time>2021-08-16T17:51:05Z</time>
      </trkpt>
      <trkpt lat="44.7979" lon="1.61482">
        <ele>241.91</ele>
        <time>2021-08-16T17:51:06Z</time>
      </trkpt>
      <trkpt lat="44.79787" lon="1.61476">
        <ele>241.43</ele>
        <time>2021-08-16T17:51:07Z</time>
      </trkpt>
      <trkpt lat="44.79784" lon="1.61471">
        <ele>240.95</ele>
        <time>2021-08-16T17:51:08Z</time>
      </trkpt>
      <trkpt lat="44.79781" lon="1.61467">
        <ele>240.47</ele>
        <time>2021-08-16T17:51:09Z</time>
      </trkpt>
      <trkpt lat="44.79779" lon="1.61462">
        <ele>239.99</ele>
        <time>2021-08-16T17:51:10Z</time>
      </trkpt>
      <trkpt lat="44.79776" lon="1.61459">
        <ele>239.02</ele>
        <time>2021-08-16T17:51:11Z</time>
      </trkpt>
      <trkpt lat="44.79774" lon="1.61455">
        <ele>239.02</ele>
        <time>2021-08-16T17:51:12Z</time>
      </trkpt>
      <trkpt lat="44.79767" lon="1.6144">
        <ele>237.1</ele>
        <time>2021-08-16T17:51:18Z</time>
      </trkpt>
      <trkpt lat="44.79766" lon="1.61439">
        <ele>237.1</ele>
        <time>2021-08-16T17:51:19Z</time>
      </trkpt>
      <trkpt lat="44.79765" lon="1.61437">
        <ele>237.1</ele>
        <time>2021-08-16T17:51:20Z</time>
      </trkpt>
      <trkpt lat="44.79764" lon="1.61435">
        <ele>237.1</ele>
        <time>2021-08-16T17:51:21Z</time>
      </trkpt>
      <trkpt lat="44.79763" lon="1.61433">
        <ele>237.1</ele>
        <time>2021-08-16T17:51:22Z</time>
      </trkpt>
      <trkpt lat="44.79762" lon="1.61431">
        <ele>236.62</ele>
        <time>2021-08-16T17:51:23Z</time>
      </trkpt>
      <trkpt lat="44.79755" lon="1.61424">
        <ele>235.18</ele>
        <time>2021-08-16T17:51:27Z</time>
      </trkpt>
      <trkpt lat="44.79753" lon="1.61425">
        <ele>234.7</ele>
        <time>2021-08-16T17:51:28Z</time>
      </trkpt>
      <trkpt lat="44.79753" lon="1.61428">
        <ele>234.22</ele>
        <time>2021-08-16T17:51:29Z</time>
      </trkpt>
      <trkpt lat="44.79753" lon="1.6143">
        <ele>233.74</ele>
        <time>2021-08-16T17:51:30Z</time>
      </trkpt>
      <trkpt lat="44.79753" lon="1.61432">
        <ele>233.74</ele>
        <time>2021-08-16T17:51:31Z</time>
      </trkpt>
      <trkpt lat="44.79754" lon="1.61434">
        <ele>233.26</ele>
        <time>2021-08-16T17:51:32Z</time>
      </trkpt>
      <trkpt lat="44.79755" lon="1.61436">
        <ele>233.26</ele>
        <time>2021-08-16T17:51:33Z</time>
      </trkpt>
      <trkpt lat="44.79755" lon="1.61437">
        <ele>232.3</ele>
        <time>2021-08-16T17:51:34Z</time>
      </trkpt>
      <trkpt lat="44.79756" lon="1.61439">
        <ele>231.81</ele>
        <time>2021-08-16T17:51:35Z</time>
      </trkpt>
      <trkpt lat="44.79756" lon="1.61441">
        <ele>231.81</ele>
        <time>2021-08-16T17:51:36Z</time>
      </trkpt>
      <trkpt lat="44.79756" lon="1.61443">
        <ele>231.33</ele>
        <time>2021-08-16T17:51:37Z</time>
      </trkpt>
      <trkpt lat="44.79756" lon="1.61444">
        <ele>230.37</ele>
        <time>2021-08-16T17:51:38Z</time>
      </trkpt>
      <trkpt lat="44.79757" lon="1.61446">
        <ele>230.37</ele>
        <time>2021-08-16T17:51:39Z</time>
      </trkpt>
      <trkpt lat="44.79757" lon="1.61448">
        <ele>229.41</ele>
        <time>2021-08-16T17:51:40Z</time>
      </trkpt>
      <trkpt lat="44.79758" lon="1.6145">
        <ele>229.41</ele>
        <time>2021-08-16T17:51:41Z</time>
      </trkpt>
      <trkpt lat="44.79758" lon="1.61452">
        <ele>228.93</ele>
        <time>2021-08-16T17:51:42Z</time>
      </trkpt>
      <trkpt lat="44.79757" lon="1.61468">
        <ele>225.57</ele>
        <time>2021-08-16T17:51:49Z</time>
      </trkpt>
      <trkpt lat="44.79758" lon="1.61472">
        <ele>225.57</ele>
        <time>2021-08-16T17:51:50Z</time>
      </trkpt>
      <trkpt lat="44.79759" lon="1.61495">
        <ele>222.2</ele>
        <time>2021-08-16T17:51:56Z</time>
      </trkpt>
      <trkpt lat="44.7976" lon="1.61505">
        <ele>221.24</ele>
        <time>2021-08-16T17:51:59Z</time>
      </trkpt>
      <trkpt lat="44.79761" lon="1.61507">
        <ele>221.24</ele>
        <time>2021-08-16T17:52:00Z</time>
      </trkpt>
      <trkpt lat="44.79762" lon="1.61509">
        <ele>220.76</ele>
        <time>2021-08-16T17:52:01Z</time>
      </trkpt>
      <trkpt lat="44.79764" lon="1.61511">
        <ele>220.28</ele>
        <time>2021-08-16T17:52:02Z</time>
      </trkpt>
      <trkpt lat="44.79765" lon="1.61513">
        <ele>220.28</ele>
        <time>2021-08-16T17:52:03Z</time>
      </trkpt>
      <trkpt lat="44.79766" lon="1.61515">
        <ele>219.8</ele>
        <time>2021-08-16T17:52:04Z</time>
      </trkpt>
      <trkpt lat="44.79768" lon="1.61516">
        <ele>218.84</ele>
        <time>2021-08-16T17:52:05Z</time>
      </trkpt>
      <trkpt lat="44.7977" lon="1.61517">
        <ele>218.36</ele>
        <time>2021-08-16T17:52:06Z</time>
      </trkpt>
      <trkpt lat="44.79772" lon="1.61518">
        <ele>217.88</ele>
        <time>2021-08-16T17:52:07Z</time>
      </trkpt>
      <trkpt lat="44.79774" lon="1.6152">
        <ele>217.4</ele>
        <time>2021-08-16T17:52:08Z</time>
      </trkpt>
      <trkpt lat="44.79775" lon="1.61521">
        <ele>216.91</ele>
        <time>2021-08-16T17:52:09Z</time>
      </trkpt>
      <trkpt lat="44.79777" lon="1.61525">
        <ele>215.47</ele>
        <time>2021-08-16T17:52:12Z</time>
      </trkpt>
      <trkpt lat="44.79777" lon="1.61527">
        <ele>214.99</ele>
        <time>2021-08-16T17:52:13Z</time>
      </trkpt>
      <trkpt lat="44.79775" lon="1.61526">
        <ele>214.51</ele>
        <time>2021-08-16T17:52:16Z</time>
      </trkpt>
      <trkpt lat="44.79774" lon="1.61525">
        <ele>214.51</ele>
        <time>2021-08-16T17:52:17Z</time>
      </trkpt>
      <trkpt lat="44.79772" lon="1.61524">
        <ele>213.55</ele>
        <time>2021-08-16T17:52:18Z</time>
      </trkpt>
      <trkpt lat="44.7977" lon="1.61524">
        <ele>213.55</ele>
        <time>2021-08-16T17:52:19Z</time>
      </trkpt>
      <trkpt lat="44.79768" lon="1.61525">
        <ele>212.59</ele>
        <time>2021-08-16T17:52:20Z</time>
      </trkpt>
      <trkpt lat="44.79766" lon="1.61526">
        <ele>212.11</ele>
        <time>2021-08-16T17:52:21Z</time>
      </trkpt>
      <trkpt lat="44.79764" lon="1.61527">
        <ele>212.11</ele>
        <time>2021-08-16T17:52:22Z</time>
      </trkpt>
      <trkpt lat="44.79761" lon="1.61528">
        <ele>211.15</ele>
        <time>2021-08-16T17:52:24Z</time>
      </trkpt>
      <trkpt lat="44.79761" lon="1.61529">
        <ele>210.67</ele>
        <time>2021-08-16T17:52:26Z</time>
      </trkpt>
      <trkpt lat="44.79764" lon="1.61531">
        <ele>210.19</ele>
        <time>2021-08-16T17:52:29Z</time>
      </trkpt>
      <trkpt lat="44.79768" lon="1.61532">
        <ele>208.74</ele>
        <time>2021-08-16T17:52:31Z</time>
      </trkpt>
      <trkpt lat="44.79769" lon="1.61533">
        <ele>208.74</ele>
        <time>2021-08-16T17:52:32Z</time>
      </trkpt>
      <trkpt lat="44.7977" lon="1.61534">
        <ele>208.26</ele>
        <time>2021-08-16T17:52:33Z</time>
      </trkpt>
      <trkpt lat="44.7977" lon="1.61539">
        <ele>206.82</ele>
        <time>2021-08-16T17:52:36Z</time>
      </trkpt>
      <trkpt lat="44.79771" lon="1.61543">
        <ele>205.86</ele>
        <time>2021-08-16T17:52:38Z</time>
      </trkpt>
      <trkpt lat="44.79771" lon="1.61545">
        <ele>207.3</ele>
        <time>2021-08-16T17:52:39Z</time>
      </trkpt>
      <trkpt lat="44.79771" lon="1.61547">
        <ele>204.9</ele>
        <time>2021-08-16T17:52:40Z</time>
      </trkpt>
      <trkpt lat="44.79769" lon="1.61556">
        <ele>203.94</ele>
        <time>2021-08-16T17:52:44Z</time>
      </trkpt>
      <trkpt lat="44.7977" lon="1.61559">
        <ele>203.46</ele>
        <time>2021-08-16T17:52:45Z</time>
      </trkpt>
      <trkpt lat="44.7977" lon="1.61561">
        <ele>202.98</ele>
        <time>2021-08-16T17:52:46Z</time>
      </trkpt>
      <trkpt lat="44.79769" lon="1.61563">
        <ele>202.01</ele>
        <time>2021-08-16T17:52:51Z</time>
      </trkpt>
      <trkpt lat="44.79767" lon="1.61557">
        <ele>201.53</ele>
        <time>2021-08-16T17:52:54Z</time>
      </trkpt>
      <trkpt lat="44.79764" lon="1.61554">
        <ele>199.13</ele>
        <time>2021-08-16T17:52:58Z</time>
      </trkpt>
      <trkpt lat="44.79764" lon="1.61556">
        <ele>199.13</ele>
        <time>2021-08-16T17:53:00Z</time>
      </trkpt>
      <trkpt lat="44.79766" lon="1.61564">
        <ele>197.69</ele>
        <time>2021-08-16T17:53:03Z</time>
      </trkpt>
      <trkpt lat="44.79768" lon="1.6157">
        <ele>197.69</ele>
        <time>2021-08-16T17:53:04Z</time>
      </trkpt>
      <trkpt lat="44.79769" lon="1.61575">
        <ele>196.73</ele>
        <time>2021-08-16T17:53:05Z</time>
      </trkpt>
      <trkpt lat="44.79783" lon="1.6161">
        <ele>194.32</ele>
        <time>2021-08-16T17:53:13Z</time>
      </trkpt>
      <trkpt lat="44.79784" lon="1.61616">
        <ele>193.36</ele>
        <time>2021-08-16T17:53:15Z</time>
      </trkpt>
      <trkpt lat="44.79784" lon="1.61618">
        <ele>191.92</ele>
        <time>2021-08-16T17:53:16Z</time>
      </trkpt>
      <trkpt lat="44.79785" lon="1.61625">
        <ele>190.96</ele>
        <time>2021-08-16T17:53:18Z</time>
      </trkpt>
      <trkpt lat="44.79789" lon="1.61631">
        <ele>190.96</ele>
        <time>2021-08-16T17:53:21Z</time>
      </trkpt>
      <trkpt lat="44.79792" lon="1.61635">
        <ele>190.96</ele>
        <time>2021-08-16T17:53:22Z</time>
      </trkpt>
      <trkpt lat="44.79797" lon="1.61638">
        <ele>190.96</ele>
        <time>2021-08-16T17:53:27Z</time>
      </trkpt>
      <trkpt lat="44.798" lon="1.61634">
        <ele>192.4</ele>
        <time>2021-08-16T17:53:38Z</time>
      </trkpt>
      <trkpt lat="44.79805" lon="1.61632">
        <ele>192.4</ele>
        <time>2021-08-16T17:53:46Z</time>
      </trkpt>
      <trkpt lat="44.79808" lon="1.61632">
        <ele>192.88</ele>
        <time>2021-08-16T17:53:47Z</time>
      </trkpt>
      <trkpt lat="44.79809" lon="1.61633">
        <ele>192.88</ele>
        <time>2021-08-16T17:53:49Z</time>
      </trkpt>
      <trkpt lat="44.79809" lon="1.61635">
        <ele>192.88</ele>
        <time>2021-08-16T17:53:51Z</time>
      </trkpt>
      <trkpt lat="44.7981" lon="1.61636">
        <ele>192.88</ele>
        <time>2021-08-16T17:53:52Z</time>
      </trkpt>
      <trkpt lat="44.7981" lon="1.61638">
        <ele>193.36</ele>
        <time>2021-08-16T17:53:53Z</time>
      </trkpt>
      <trkpt lat="44.79814" lon="1.61644">
        <ele>193.84</ele>
        <time>2021-08-16T17:53:57Z</time>
      </trkpt>
      <trkpt lat="44.79818" lon="1.61646">
        <ele>194.32</ele>
        <time>2021-08-16T17:54:01Z</time>
      </trkpt>
      <trkpt lat="44.79819" lon="1.61647">
        <ele>194.8</ele>
        <time>2021-08-16T17:54:02Z</time>
      </trkpt>
      <trkpt lat="44.7982" lon="1.61648">
        <ele>194.8</ele>
        <time>2021-08-16T17:54:03Z</time>
      </trkpt>
      <trkpt lat="44.79821" lon="1.6165">
        <ele>194.8</ele>
        <time>2021-08-16T17:54:04Z</time>
      </trkpt>
      <trkpt lat="44.79822" lon="1.61651">
        <ele>194.8</ele>
        <time>2021-08-16T17:54:05Z</time>
      </trkpt>
      <trkpt lat="44.79826" lon="1.61666">
        <ele>195.77</ele>
        <time>2021-08-16T17:54:13Z</time>
      </trkpt>
      <trkpt lat="44.79831" lon="1.61675">
        <ele>196.25</ele>
        <time>2021-08-16T17:54:20Z</time>
      </trkpt>
      <trkpt lat="44.79838" lon="1.61684">
        <ele>196.73</ele>
        <time>2021-08-16T17:54:26Z</time>
      </trkpt>
      <trkpt lat="44.79839" lon="1.61686">
        <ele>196.73</ele>
        <time>2021-08-16T17:54:32Z</time>
      </trkpt>
      <trkpt lat="44.79837" lon="1.61686">
        <ele>197.21</ele>
        <time>2021-08-16T17:54:38Z</time>
      </trkpt>
      <trkpt lat="44.79836" lon="1.61685">
        <ele>197.21</ele>
        <time>2021-08-16T17:54:48Z</time>
      </trkpt>
      <trkpt lat="44.79836" lon="1.61686">
        <ele>197.21</ele>
        <time>2021-08-16T17:55:03Z</time>
      </trkpt>
      <trkpt lat="44.7984" lon="1.61687">
        <ele>197.21</ele>
        <time>2021-08-16T17:55:20Z</time>
      </trkpt>
      <trkpt lat="44.7984" lon="1.61685">
        <ele>197.21</ele>
        <time>2021-08-16T17:55:30Z</time>
      </trkpt>
      <trkpt lat="44.79839" lon="1.61686">
        <ele>197.21</ele>
        <time>2021-08-16T17:55:39Z</time>
      </trkpt>
      <trkpt lat="44.79841" lon="1.61685">
        <ele>165.96</ele>
        <time>2021-08-16T17:56:36Z</time>
      </trkpt>
      <trkpt lat="44.798" lon="1.61648">
        <ele>165.48</ele>
        <time>2021-08-16T17:56:42Z</time>
      </trkpt>
      <trkpt lat="44.79784" lon="1.61636">
        <ele>162.12</ele>
        <time>2021-08-16T17:56:47Z</time>
      </trkpt>
      <trkpt lat="44.79775" lon="1.61631">
        <ele>160.68</ele>
        <time>2021-08-16T17:56:49Z</time>
      </trkpt>
      <trkpt lat="44.79771" lon="1.61629">
        <ele>160.68</ele>
        <time>2021-08-16T17:56:50Z</time>
      </trkpt>
      <trkpt lat="44.79768" lon="1.61625">
        <ele>160.68</ele>
        <time>2021-08-16T17:56:51Z</time>
      </trkpt>
      <trkpt lat="44.79761" lon="1.61613">
        <ele>160.68</ele>
        <time>2021-08-16T17:56:56Z</time>
      </trkpt>
      <trkpt lat="44.79762" lon="1.61612">
        <ele>161.16</ele>
        <time>2021-08-16T17:57:01Z</time>
      </trkpt>
      <trkpt lat="44.79771" lon="1.61621">
        <ele>163.08</ele>
        <time>2021-08-16T17:57:15Z</time>
      </trkpt>
      <trkpt lat="44.79772" lon="1.61615">
        <ele>166.45</ele>
        <time>2021-08-16T17:57:21Z</time>
      </trkpt>
      <trkpt lat="44.79774" lon="1.61612">
        <ele>169.33</ele>
        <time>2021-08-16T17:57:28Z</time>
      </trkpt>
      <trkpt lat="44.79771" lon="1.61612">
        <ele>172.69</ele>
        <time>2021-08-16T17:57:38Z</time>
      </trkpt>
      <trkpt lat="44.79772" lon="1.61612">
        <ele>176.06</ele>
        <time>2021-08-16T17:57:46Z</time>
      </trkpt>
      <trkpt lat="44.79777" lon="1.6161">
        <ele>178.94</ele>
        <time>2021-08-16T17:58:01Z</time>
      </trkpt>
      <trkpt lat="44.79777" lon="1.61608">
        <ele>181.35</ele>
        <time>2021-08-16T17:58:26Z</time>
      </trkpt>
      <trkpt lat="44.7978" lon="1.61607">
        <ele>181.35</ele>
        <time>2021-08-16T17:58:41Z</time>
      </trkpt>
      <trkpt lat="44.79776" lon="1.61607">
        <ele>181.35</ele>
        <time>2021-08-16T17:59:03Z</time>
      </trkpt>
      <trkpt lat="44.79774" lon="1.61609">
        <ele>181.35</ele>
        <time>2021-08-16T17:59:18Z</time>
      </trkpt>
      <trkpt lat="44.79773" lon="1.61604">
        <ele>181.35</ele>
        <time>2021-08-16T17:59:23Z</time>
      </trkpt>
      <trkpt lat="44.79773" lon="1.61602">
        <ele>181.35</ele>
        <time>2021-08-16T17:59:24Z</time>
      </trkpt>
      <trkpt lat="44.79772" lon="1.616">
        <ele>181.35</ele>
        <time>2021-08-16T17:59:25Z</time>
      </trkpt>
      <trkpt lat="44.79771" lon="1.61598">
        <ele>181.35</ele>
        <time>2021-08-16T17:59:26Z</time>
      </trkpt>
      <trkpt lat="44.7977" lon="1.61595">
        <ele>181.35</ele>
        <time>2021-08-16T17:59:27Z</time>
      </trkpt>
      <trkpt lat="44.7976" lon="1.61576">
        <ele>181.35</ele>
        <time>2021-08-16T17:59:33Z</time>
      </trkpt>
      <trkpt lat="44.79751" lon="1.61563">
        <ele>179.9</ele>
        <time>2021-08-16T17:59:37Z</time>
      </trkpt>
      <trkpt lat="44.79743" lon="1.61555">
        <ele>178.94</ele>
        <time>2021-08-16T17:59:39Z</time>
      </trkpt>
      <trkpt lat="44.79739" lon="1.6155">
        <ele>178.46</ele>
        <time>2021-08-16T17:59:40Z</time>
      </trkpt>
      <trkpt lat="44.7973" lon="1.61537">
        <ele>176.54</ele>
        <time>2021-08-16T17:59:42Z</time>
      </trkpt>
      <trkpt lat="44.79725" lon="1.61528">
        <ele>174.62</ele>
        <time>2021-08-16T17:59:43Z</time>
      </trkpt>
      <trkpt lat="44.79713" lon="1.61501">
        <ele>173.17</ele>
        <time>2021-08-16T17:59:46Z</time>
      </trkpt>
      <trkpt lat="44.79683" lon="1.61433">
        <ele>170.77</ele>
        <time>2021-08-16T17:59:53Z</time>
      </trkpt>
      <trkpt lat="44.7968" lon="1.61424">
        <ele>169.81</ele>
        <time>2021-08-16T17:59:54Z</time>
      </trkpt>
      <trkpt lat="44.79676" lon="1.6141">
        <ele>169.33</ele>
        <time>2021-08-16T17:59:56Z</time>
      </trkpt>
      <trkpt lat="44.79676" lon="1.61404">
        <ele>169.33</ele>
        <time>2021-08-16T17:59:57Z</time>
      </trkpt>
      <trkpt lat="44.79676" lon="1.614">
        <ele>168.85</ele>
        <time>2021-08-16T17:59:58Z</time>
      </trkpt>
      <trkpt lat="44.79677" lon="1.61396">
        <ele>168.85</ele>
        <time>2021-08-16T17:59:59Z</time>
      </trkpt>
      <trkpt lat="44.79678" lon="1.61392">
        <ele>168.85</ele>
        <time>2021-08-16T18:00:00Z</time>
      </trkpt>
      <trkpt lat="44.79677" lon="1.61388">
        <ele>168.85</ele>
        <time>2021-08-16T18:00:01Z</time>
      </trkpt>
      <trkpt lat="44.79677" lon="1.61385">
        <ele>168.37</ele>
        <time>2021-08-16T18:00:02Z</time>
      </trkpt>
      <trkpt lat="44.79677" lon="1.61382">
        <ele>168.37</ele>
        <time>2021-08-16T18:00:03Z</time>
      </trkpt>
      <trkpt lat="44.79678" lon="1.61379">
        <ele>168.37</ele>
        <time>2021-08-16T18:00:04Z</time>
      </trkpt>
      <trkpt lat="44.79679" lon="1.61376">
        <ele>168.37</ele>
        <time>2021-08-16T18:00:05Z</time>
      </trkpt>
      <trkpt lat="44.79679" lon="1.61372">
        <ele>168.37</ele>
        <time>2021-08-16T18:00:06Z</time>
      </trkpt>
      <trkpt lat="44.79683" lon="1.61354">
        <ele>167.41</ele>
        <time>2021-08-16T18:00:11Z</time>
      </trkpt>
      <trkpt lat="44.79684" lon="1.61353">
        <ele>167.41</ele>
        <time>2021-08-16T18:00:12Z</time>
      </trkpt>
      <trkpt lat="44.79685" lon="1.61354">
        <ele>167.41</ele>
        <time>2021-08-16T18:00:13Z</time>
      </trkpt>
      <trkpt lat="44.79686" lon="1.61357">
        <ele>167.41</ele>
        <time>2021-08-16T18:00:15Z</time>
      </trkpt>
      <trkpt lat="44.7968" lon="1.6138">
        <ele>167.41</ele>
        <time>2021-08-16T18:00:23Z</time>
      </trkpt>
      <trkpt lat="44.79678" lon="1.61396">
        <ele>168.85</ele>
        <time>2021-08-16T18:00:28Z</time>
      </trkpt>
      <trkpt lat="44.79682" lon="1.61418">
        <ele>170.77</ele>
        <time>2021-08-16T18:00:36Z</time>
      </trkpt>
      <trkpt lat="44.79681" lon="1.61431">
        <ele>170.77</ele>
        <time>2021-08-16T18:00:42Z</time>
      </trkpt>
      <trkpt lat="44.79682" lon="1.61437">
        <ele>168.85</ele>
        <time>2021-08-16T18:00:44Z</time>
      </trkpt>
      <trkpt lat="44.79685" lon="1.6145">
        <ele>166.45</ele>
        <time>2021-08-16T18:00:47Z</time>
      </trkpt>
      <trkpt lat="44.79687" lon="1.61454">
        <ele>166.45</ele>
        <time>2021-08-16T18:00:48Z</time>
      </trkpt>
      <trkpt lat="44.79693" lon="1.61474">
        <ele>164.52</ele>
        <time>2021-08-16T18:00:52Z</time>
      </trkpt>
      <trkpt lat="44.79695" lon="1.61484">
        <ele>163.08</ele>
        <time>2021-08-16T18:00:54Z</time>
      </trkpt>
      <trkpt lat="44.79696" lon="1.6149">
        <ele>161.64</ele>
        <time>2021-08-16T18:00:55Z</time>
      </trkpt>
      <trkpt lat="44.79697" lon="1.61496">
        <ele>160.68</ele>
        <time>2021-08-16T18:00:56Z</time>
      </trkpt>
      <trkpt lat="44.79699" lon="1.61501">
        <ele>159.24</ele>
        <time>2021-08-16T18:00:57Z</time>
      </trkpt>
      <trkpt lat="44.797" lon="1.61507">
        <ele>158.27</ele>
        <time>2021-08-16T18:00:58Z</time>
      </trkpt>
      <trkpt lat="44.79704" lon="1.61527">
        <ele>154.91</ele>
        <time>2021-08-16T18:01:02Z</time>
      </trkpt>
      <trkpt lat="44.79708" lon="1.61547">
        <ele>152.51</ele>
        <time>2021-08-16T18:01:06Z</time>
      </trkpt>
      <trkpt lat="44.79717" lon="1.61573">
        <ele>149.62</ele>
        <time>2021-08-16T18:01:11Z</time>
      </trkpt>
      <trkpt lat="44.79726" lon="1.616">
        <ele>146.26</ele>
        <time>2021-08-16T18:01:17Z</time>
      </trkpt>
      <trkpt lat="44.79732" lon="1.61616">
        <ele>142.41</ele>
        <time>2021-08-16T18:01:21Z</time>
      </trkpt>
      <trkpt lat="44.79733" lon="1.61618">
        <ele>142.41</ele>
        <time>2021-08-16T18:01:22Z</time>
      </trkpt>
      <trkpt lat="44.79733" lon="1.61622">
        <ele>141.93</ele>
        <time>2021-08-16T18:01:29Z</time>
      </trkpt>
      <trkpt lat="44.79737" lon="1.61631">
        <ele>140.97</ele>
        <time>2021-08-16T18:01:35Z</time>
      </trkpt>
      <trkpt lat="44.79737" lon="1.61634">
        <ele>140.97</ele>
        <time>2021-08-16T18:01:36Z</time>
      </trkpt>
      <trkpt lat="44.79737" lon="1.61636">
        <ele>140.49</ele>
        <time>2021-08-16T18:01:37Z</time>
      </trkpt>
      <trkpt lat="44.79734" lon="1.61637">
        <ele>140.49</ele>
        <time>2021-08-16T18:01:38Z</time>
      </trkpt>
      <trkpt lat="44.79732" lon="1.61635">
        <ele>139.53</ele>
        <time>2021-08-16T18:01:39Z</time>
      </trkpt>
      <trkpt lat="44.7973" lon="1.61633">
        <ele>139.53</ele>
        <time>2021-08-16T18:01:40Z</time>
      </trkpt>
      <trkpt lat="44.79727" lon="1.61631">
        <ele>139.05</ele>
        <time>2021-08-16T18:01:41Z</time>
      </trkpt>
      <trkpt lat="44.79709" lon="1.61619">
        <ele>135.2</ele>
        <time>2021-08-16T18:01:47Z</time>
      </trkpt>
      <trkpt lat="44.79696" lon="1.61613">
        <ele>133.28</ele>
        <time>2021-08-16T18:01:52Z</time>
      </trkpt>
      <trkpt lat="44.79695" lon="1.61613">
        <ele>132.8</ele>
        <time>2021-08-16T18:01:53Z</time>
      </trkpt>
      <trkpt lat="44.79693" lon="1.61614">
        <ele>132.32</ele>
        <time>2021-08-16T18:01:54Z</time>
      </trkpt>
      <trkpt lat="44.79692" lon="1.61615">
        <ele>132.32</ele>
        <time>2021-08-16T18:01:55Z</time>
      </trkpt>
      <trkpt lat="44.79691" lon="1.61617">
        <ele>131.84</ele>
        <time>2021-08-16T18:01:56Z</time>
      </trkpt>
      <trkpt lat="44.7969" lon="1.6162">
        <ele>131.84</ele>
        <time>2021-08-16T18:01:57Z</time>
      </trkpt>
      <trkpt lat="44.79689" lon="1.61622">
        <ele>131.84</ele>
        <time>2021-08-16T18:01:58Z</time>
      </trkpt>
      <trkpt lat="44.79688" lon="1.61624">
        <ele>131.36</ele>
        <time>2021-08-16T18:01:59Z</time>
      </trkpt>
      <trkpt lat="44.79685" lon="1.61626">
        <ele>131.36</ele>
        <time>2021-08-16T18:02:00Z</time>
      </trkpt>
      <trkpt lat="44.79677" lon="1.61631">
        <ele>129.43</ele>
        <time>2021-08-16T18:02:02Z</time>
      </trkpt>
      <trkpt lat="44.79672" lon="1.61632">
        <ele>129.43</ele>
        <time>2021-08-16T18:02:03Z</time>
      </trkpt>
      <trkpt lat="44.79662" lon="1.61634">
        <ele>129.43</ele>
        <time>2021-08-16T18:02:05Z</time>
      </trkpt>
      <trkpt lat="44.79658" lon="1.61636">
        <ele>129.43</ele>
        <time>2021-08-16T18:02:06Z</time>
      </trkpt>
      <trkpt lat="44.79655" lon="1.61638">
        <ele>129.43</ele>
        <time>2021-08-16T18:02:07Z</time>
      </trkpt>
      <trkpt lat="44.79649" lon="1.6164">
        <ele>129.43</ele>
        <time>2021-08-16T18:02:09Z</time>
      </trkpt>
      <trkpt lat="44.79646" lon="1.61639">
        <ele>129.43</ele>
        <time>2021-08-16T18:02:10Z</time>
      </trkpt>
      <trkpt lat="44.79644" lon="1.61637">
        <ele>129.43</ele>
        <time>2021-08-16T18:02:11Z</time>
      </trkpt>
      <trkpt lat="44.79625" lon="1.61618">
        <ele>130.88</ele>
        <time>2021-08-16T18:02:20Z</time>
      </trkpt>
      <trkpt lat="44.79613" lon="1.61605">
        <ele>131.84</ele>
        <time>2021-08-16T18:02:29Z</time>
      </trkpt>
      <trkpt lat="44.79602" lon="1.61594">
        <ele>132.8</ele>
        <time>2021-08-16T18:02:37Z</time>
      </trkpt>
      <trkpt lat="44.79601" lon="1.61593">
        <ele>132.8</ele>
        <time>2021-08-16T18:02:38Z</time>
      </trkpt>
      <trkpt lat="44.796" lon="1.6159">
        <ele>133.28</ele>
        <time>2021-08-16T18:02:44Z</time>
      </trkpt>
      <trkpt lat="44.79597" lon="1.61585">
        <ele>133.76</ele>
        <time>2021-08-16T18:02:53Z</time>
      </trkpt>
      <trkpt lat="44.79591" lon="1.61575">
        <ele>134.72</ele>
        <time>2021-08-16T18:03:03Z</time>
      </trkpt>
      <trkpt lat="44.79586" lon="1.61565">
        <ele>135.68</ele>
        <time>2021-08-16T18:03:13Z</time>
      </trkpt>
      <trkpt lat="44.79582" lon="1.6156">
        <ele>136.64</ele>
        <time>2021-08-16T18:03:22Z</time>
      </trkpt>
      <trkpt lat="44.79581" lon="1.6156">
        <ele>137.13</ele>
        <time>2021-08-16T18:03:37Z</time>
      </trkpt>
      <trkpt lat="44.79578" lon="1.61561">
        <ele>137.13</ele>
        <time>2021-08-16T18:03:58Z</time>
      </trkpt>
      <trkpt lat="44.79577" lon="1.61561">
        <ele>137.13</ele>
        <time>2021-08-16T18:04:20Z</time>
      </trkpt>
      <trkpt lat="44.79578" lon="1.61562">
        <ele>137.13</ele>
        <time>2021-08-16T18:04:34Z</time>
      </trkpt>
      <trkpt lat="44.79578" lon="1.61563">
        <ele>137.13</ele>
        <time>2021-08-16T18:04:36Z</time>
      </trkpt>
      <trkpt lat="44.79578" lon="1.61562">
        <ele>137.13</ele>
        <time>2021-08-16T18:04:42Z</time>
      </trkpt>
      <trkpt lat="44.79579" lon="1.6156">
        <ele>137.13</ele>
        <time>2021-08-16T18:05:04Z</time>
      </trkpt>
      <trkpt lat="44.7958" lon="1.6156">
        <ele>137.61</ele>
        <time>2021-08-16T18:05:29Z</time>
      </trkpt>
      <trkpt lat="44.7958" lon="1.61559">
        <ele>137.61</ele>
        <time>2021-08-16T18:05:45Z</time>
      </trkpt>
      <trkpt lat="44.79582" lon="1.61556">
        <ele>137.61</ele>
        <time>2021-08-16T18:06:01Z</time>
      </trkpt>
      <trkpt lat="44.79581" lon="1.61555">
        <ele>137.61</ele>
        <time>2021-08-16T18:06:17Z</time>
      </trkpt>
      <trkpt lat="44.7958" lon="1.61555">
        <ele>137.61</ele>
        <time>2021-08-16T18:06:33Z</time>
      </trkpt>
      <trkpt lat="44.7958" lon="1.61557">
        <ele>137.61</ele>
        <time>2021-08-16T18:06:50Z</time>
      </trkpt>
      <trkpt lat="44.79577" lon="1.61557">
        <ele>137.61</ele>
        <time>2021-08-16T18:07:11Z</time>
      </trkpt>
      <trkpt lat="44.7958" lon="1.61555">
        <ele>137.61</ele>
        <time>2021-08-16T18:07:42Z</time>
      </trkpt>
      <trkpt lat="44.7958" lon="1.61555">
        <ele>137.61</ele>
        <time>2021-08-16T18:08:11Z</time>
      </trkpt>
      <trkpt lat="44.79579" lon="1.61556">
        <ele>137.61</ele>
        <time>2021-08-16T18:08:27Z</time>
      </trkpt>
      <trkpt lat="44.79578" lon="1.61557">
        <ele>137.61</ele>
        <time>2021-08-16T18:08:44Z</time>
      </trkpt>
      <trkpt lat="44.79578" lon="1.61557">
        <ele>137.61</ele>
        <time>2021-08-16T18:09:04Z</time>
      </trkpt>
      <trkpt lat="44.79577" lon="1.61557">
        <ele>137.61</ele>
        <time>2021-08-16T18:09:19Z</time>
      </trkpt>
      <trkpt lat="44.79577" lon="1.61558">
        <ele>138.09</ele>
        <time>2021-08-16T18:09:34Z</time>
      </trkpt>
      <trkpt lat="44.79577" lon="1.61559">
        <ele>138.09</ele>
        <time>2021-08-16T18:09:40Z</time>
      </trkpt>
      <trkpt lat="44.79578" lon="1.61559">
        <ele>138.09</ele>
        <time>2021-08-16T18:10:04Z</time>
      </trkpt>
      <trkpt lat="44.79576" lon="1.61561">
        <ele>138.09</ele>
        <time>2021-08-16T18:10:25Z</time>
      </trkpt>
      <trkpt lat="44.7958" lon="1.6156">
        <ele>138.09</ele>
        <time>2021-08-16T18:10:48Z</time>
      </trkpt>
      <trkpt lat="44.79584" lon="1.6156">
        <ele>138.09</ele>
        <time>2021-08-16T18:11:07Z</time>
      </trkpt>
      <trkpt lat="44.79585" lon="1.6156">
        <ele>138.09</ele>
        <time>2021-08-16T18:11:26Z</time>
      </trkpt>
      <trkpt lat="44.79584" lon="1.61559">
        <ele>138.57</ele>
        <time>2021-08-16T18:11:48Z</time>
      </trkpt>
      <trkpt lat="44.79582" lon="1.6156">
        <ele>138.57</ele>
        <time>2021-08-16T18:12:09Z</time>
      </trkpt>
      <trkpt lat="44.79581" lon="1.6156">
        <ele>138.57</ele>
        <time>2021-08-16T18:12:28Z</time>
      </trkpt>
      <trkpt lat="44.79581" lon="1.61561">
        <ele>138.57</ele>
        <time>2021-08-16T18:12:52Z</time>
      </trkpt>
      <trkpt lat="44.79583" lon="1.61563">
        <ele>139.05</ele>
        <time>2021-08-16T18:13:18Z</time>
      </trkpt>
      <trkpt lat="44.79583" lon="1.61563">
        <ele>139.05</ele>
        <time>2021-08-16T18:13:35Z</time>
      </trkpt>
      <trkpt lat="44.79582" lon="1.61563">
        <ele>138.09</ele>
        <time>2021-08-16T18:13:57Z</time>
      </trkpt>
      <trkpt lat="44.79581" lon="1.61562">
        <ele>138.09</ele>
        <time>2021-08-16T18:14:14Z</time>
      </trkpt>
      <trkpt lat="44.7958" lon="1.61562">
        <ele>138.09</ele>
        <time>2021-08-16T18:14:28Z</time>
      </trkpt>
      <trkpt lat="44.7958" lon="1.61564">
        <ele>138.57</ele>
        <time>2021-08-16T18:14:45Z</time>
      </trkpt>
      <trkpt lat="44.79578" lon="1.61564">
        <ele>138.57</ele>
        <time>2021-08-16T18:15:11Z</time>
      </trkpt>
      <trkpt lat="44.79579" lon="1.61565">
        <ele>138.57</ele>
        <time>2021-08-16T18:15:32Z</time>
      </trkpt>
      <trkpt lat="44.7958" lon="1.61562">
        <ele>139.05</ele>
        <time>2021-08-16T18:15:50Z</time>
      </trkpt>
      <trkpt lat="44.7958" lon="1.61561">
        <ele>139.05</ele>
        <time>2021-08-16T18:16:00Z</time>
      </trkpt>
      <trkpt lat="44.79578" lon="1.6156">
        <ele>139.05</ele>
        <time>2021-08-16T18:16:21Z</time>
      </trkpt>
      <trkpt lat="44.79579" lon="1.6156">
        <ele>139.05</ele>
        <time>2021-08-16T18:16:37Z</time>
      </trkpt>
      <trkpt lat="44.79581" lon="1.61559">
        <ele>139.53</ele>
        <time>2021-08-16T18:16:53Z</time>
      </trkpt>
      <trkpt lat="44.79582" lon="1.61558">
        <ele>139.53</ele>
        <time>2021-08-16T18:17:17Z</time>
      </trkpt>
      <trkpt lat="44.79582" lon="1.61557">
        <ele>139.53</ele>
        <time>2021-08-16T18:17:36Z</time>
      </trkpt>
      <trkpt lat="44.79582" lon="1.61559">
        <ele>139.53</ele>
        <time>2021-08-16T18:17:53Z</time>
      </trkpt>
      <trkpt lat="44.79585" lon="1.61559">
        <ele>139.53</ele>
        <time>2021-08-16T18:18:11Z</time>
      </trkpt>
      <trkpt lat="44.79586" lon="1.61558">
        <ele>139.53</ele>
        <time>2021-08-16T18:18:27Z</time>
      </trkpt>
      <trkpt lat="44.79584" lon="1.61558">
        <ele>139.53</ele>
        <time>2021-08-16T18:18:52Z</time>
      </trkpt>
      <trkpt lat="44.79584" lon="1.61557">
        <ele>139.53</ele>
        <time>2021-08-16T18:19:09Z</time>
      </trkpt>
      <trkpt lat="44.79585" lon="1.61558">
        <ele>139.53</ele>
        <time>2021-08-16T18:19:21Z</time>
      </trkpt>
      <trkpt lat="44.79585" lon="1.6156">
        <ele>140.01</ele>
        <time>2021-08-16T18:19:37Z</time>
      </trkpt>
      <trkpt lat="44.79585" lon="1.61558">
        <ele>140.01</ele>
        <time>2021-08-16T18:20:00Z</time>
      </trkpt>
      <trkpt lat="44.79584" lon="1.61557">
        <ele>140.01</ele>
        <time>2021-08-16T18:20:16Z</time>
      </trkpt>
      <trkpt lat="44.79581" lon="1.61557">
        <ele>140.01</ele>
        <time>2021-08-16T18:20:35Z</time>
      </trkpt>
      <trkpt lat="44.79579" lon="1.61559">
        <ele>140.01</ele>
        <time>2021-08-16T18:20:57Z</time>
      </trkpt>
      <trkpt lat="44.79577" lon="1.61561">
        <ele>140.49</ele>
        <time>2021-08-16T18:21:18Z</time>
      </trkpt>
      <trkpt lat="44.79577" lon="1.61562">
        <ele>140.49</ele>
        <time>2021-08-16T18:21:39Z</time>
      </trkpt>
      <trkpt lat="44.79579" lon="1.61561">
        <ele>140.49</ele>
        <time>2021-08-16T18:22:02Z</time>
      </trkpt>
      <trkpt lat="44.7958" lon="1.61561">
        <ele>140.49</ele>
        <time>2021-08-16T18:22:22Z</time>
      </trkpt>
      <trkpt lat="44.79581" lon="1.61561">
        <ele>140.49</ele>
        <time>2021-08-16T18:22:43Z</time>
      </trkpt>
      <trkpt lat="44.79581" lon="1.6156">
        <ele>140.97</ele>
        <time>2021-08-16T18:23:04Z</time>
      </trkpt>
      <trkpt lat="44.79582" lon="1.61561">
        <ele>140.49</ele>
        <time>2021-08-16T18:23:27Z</time>
      </trkpt>
      <trkpt lat="44.79583" lon="1.61564">
        <ele>140.49</ele>
        <time>2021-08-16T18:23:44Z</time>
      </trkpt>
      <trkpt lat="44.79586" lon="1.61565">
        <ele>140.49</ele>
        <time>2021-08-16T18:23:56Z</time>
      </trkpt>
      <trkpt lat="44.79585" lon="1.61564">
        <ele>140.97</ele>
        <time>2021-08-16T18:24:15Z</time>
      </trkpt>
      <trkpt lat="44.79585" lon="1.61563">
        <ele>140.97</ele>
        <time>2021-08-16T18:24:30Z</time>
      </trkpt>
      <trkpt lat="44.79581" lon="1.61562">
        <ele>140.97</ele>
        <time>2021-08-16T18:24:43Z</time>
      </trkpt>
      <trkpt lat="44.79582" lon="1.61563">
        <ele>140.97</ele>
        <time>2021-08-16T18:24:55Z</time>
      </trkpt>
      <trkpt lat="44.79582" lon="1.61563">
        <ele>140.97</ele>
        <time>2021-08-16T18:25:11Z</time>
      </trkpt>
      <trkpt lat="44.79584" lon="1.61564">
        <ele>140.97</ele>
        <time>2021-08-16T18:25:32Z</time>
      </trkpt>
      <trkpt lat="44.79586" lon="1.61561">
        <ele>140.97</ele>
        <time>2021-08-16T18:25:54Z</time>
      </trkpt>
      <trkpt lat="44.79584" lon="1.61562">
        <ele>141.45</ele>
        <time>2021-08-16T18:26:15Z</time>
      </trkpt>
      <trkpt lat="44.79583" lon="1.61562">
        <ele>141.45</ele>
        <time>2021-08-16T18:26:33Z</time>
      </trkpt>
      <trkpt lat="44.79582" lon="1.6156">
        <ele>141.45</ele>
        <time>2021-08-16T18:26:48Z</time>
      </trkpt>
      <trkpt lat="44.7958" lon="1.6156">
        <ele>141.45</ele>
        <time>2021-08-16T18:27:06Z</time>
      </trkpt>
      <trkpt lat="44.79578" lon="1.61562">
        <ele>141.45</ele>
        <time>2021-08-16T18:27:30Z</time>
      </trkpt>
      <trkpt lat="44.79578" lon="1.61564">
        <ele>141.45</ele>
        <time>2021-08-16T18:27:50Z</time>
      </trkpt>
      <trkpt lat="44.79576" lon="1.61564">
        <ele>141.45</ele>
        <time>2021-08-16T18:28:05Z</time>
      </trkpt>
      <trkpt lat="44.79579" lon="1.61563">
        <ele>141.45</ele>
        <time>2021-08-16T18:28:21Z</time>
      </trkpt>
      <trkpt lat="44.79579" lon="1.61564">
        <ele>141.45</ele>
        <time>2021-08-16T18:28:43Z</time>
      </trkpt>
      <trkpt lat="44.79581" lon="1.61564">
        <ele>141.45</ele>
        <time>2021-08-16T18:29:00Z</time>
      </trkpt>
      <trkpt lat="44.79581" lon="1.61562">
        <ele>141.93</ele>
        <time>2021-08-16T18:29:17Z</time>
      </trkpt>
      <trkpt lat="44.79582" lon="1.61563">
        <ele>141.93</ele>
        <time>2021-08-16T18:29:39Z</time>
      </trkpt>
      <trkpt lat="44.79584" lon="1.61562">
        <ele>141.93</ele>
        <time>2021-08-16T18:29:56Z</time>
      </trkpt>
      <trkpt lat="44.79581" lon="1.61561">
        <ele>141.93</ele>
        <time>2021-08-16T18:30:20Z</time>
      </trkpt>
      <trkpt lat="44.79582" lon="1.6156">
        <ele>141.93</ele>
        <time>2021-08-16T18:30:38Z</time>
      </trkpt>
      <trkpt lat="44.79585" lon="1.61559">
        <ele>142.41</ele>
        <time>2021-08-16T18:30:51Z</time>
      </trkpt>
      <trkpt lat="44.79585" lon="1.6156">
        <ele>142.41</ele>
        <time>2021-08-16T18:31:09Z</time>
      </trkpt>
      <trkpt lat="44.79581" lon="1.6156">
        <ele>142.41</ele>
        <time>2021-08-16T18:31:26Z</time>
      </trkpt>
      <trkpt lat="44.79581" lon="1.61559">
        <ele>142.41</ele>
        <time>2021-08-16T18:31:44Z</time>
      </trkpt>
      <trkpt lat="44.7958" lon="1.61559">
        <ele>142.41</ele>
        <time>2021-08-16T18:32:00Z</time>
      </trkpt>
      <trkpt lat="44.79579" lon="1.61558">
        <ele>142.41</ele>
        <time>2021-08-16T18:32:17Z</time>
      </trkpt>
      <trkpt lat="44.7958" lon="1.61556">
        <ele>142.41</ele>
        <time>2021-08-16T18:32:35Z</time>
      </trkpt>
      <trkpt lat="44.79582" lon="1.61557">
        <ele>142.41</ele>
        <time>2021-08-16T18:32:53Z</time>
      </trkpt>
      <trkpt lat="44.79582" lon="1.61558">
        <ele>142.41</ele>
        <time>2021-08-16T18:33:11Z</time>
      </trkpt>
      <trkpt lat="44.79582" lon="1.6156">
        <ele>142.41</ele>
        <time>2021-08-16T18:33:27Z</time>
      </trkpt>
      <trkpt lat="44.79581" lon="1.61562">
        <ele>142.41</ele>
        <time>2021-08-16T18:33:43Z</time>
      </trkpt>
      <trkpt lat="44.79581" lon="1.61562">
        <ele>142.89</ele>
        <time>2021-08-16T18:34:09Z</time>
      </trkpt>
      <trkpt lat="44.79582" lon="1.61561">
        <ele>142.89</ele>
        <time>2021-08-16T18:34:22Z</time>
      </trkpt>
      <trkpt lat="44.79583" lon="1.61559">
        <ele>142.89</ele>
        <time>2021-08-16T18:34:35Z</time>
      </trkpt>
      <trkpt lat="44.79582" lon="1.61559">
        <ele>142.89</ele>
        <time>2021-08-16T18:34:49Z</time>
      </trkpt>
      <trkpt lat="44.79582" lon="1.6156">
        <ele>142.89</ele>
        <time>2021-08-16T18:35:05Z</time>
      </trkpt>
      <trkpt lat="44.79581" lon="1.61559">
        <ele>142.89</ele>
        <time>2021-08-16T18:35:27Z</time>
      </trkpt>
      <trkpt lat="44.79582" lon="1.61558">
        <ele>142.89</ele>
        <time>2021-08-16T18:35:42Z</time>
      </trkpt>
      <trkpt lat="44.79582" lon="1.61558">
        <ele>142.89</ele>
        <time>2021-08-16T18:35:57Z</time>
      </trkpt>
      <trkpt lat="44.7958" lon="1.61559">
        <ele>142.89</ele>
        <time>2021-08-16T18:36:16Z</time>
      </trkpt>
      <trkpt lat="44.79579" lon="1.6156">
        <ele>142.89</ele>
        <time>2021-08-16T18:36:33Z</time>
      </trkpt>
      <trkpt lat="44.7958" lon="1.61559">
        <ele>142.89</ele>
        <time>2021-08-16T18:36:51Z</time>
      </trkpt>
      <trkpt lat="44.79582" lon="1.61559">
        <ele>142.89</ele>
        <time>2021-08-16T18:37:09Z</time>
      </trkpt>
      <trkpt lat="44.79582" lon="1.6156">
        <ele>142.89</ele>
        <time>2021-08-16T18:37:32Z</time>
      </trkpt>
      <trkpt lat="44.79582" lon="1.6156">
        <ele>142.89</ele>
        <time>2021-08-16T18:37:50Z</time>
      </trkpt>
      <trkpt lat="44.79583" lon="1.6156">
        <ele>142.89</ele>
        <time>2021-08-16T18:38:06Z</time>
      </trkpt>
      <trkpt lat="44.79583" lon="1.61559">
        <ele>142.89</ele>
        <time>2021-08-16T18:38:23Z</time>
      </trkpt>
      <trkpt lat="44.79583" lon="1.61557">
        <ele>142.89</ele>
        <time>2021-08-16T18:38:39Z</time>
      </trkpt>
      <trkpt lat="44.79582" lon="1.61556">
        <ele>143.37</ele>
        <time>2021-08-16T18:38:55Z</time>
      </trkpt>
      <trkpt lat="44.79583" lon="1.61558">
        <ele>143.37</ele>
        <time>2021-08-16T18:39:08Z</time>
      </trkpt>
      <trkpt lat="44.79583" lon="1.61558">
        <ele>143.37</ele>
        <time>2021-08-16T18:39:16Z</time>
      </trkpt>
      <trkpt lat="44.79585" lon="1.61558">
        <ele>142.89</ele>
        <time>2021-08-16T18:39:31Z</time>
      </trkpt>
      <trkpt lat="44.79584" lon="1.61558">
        <ele>142.89</ele>
        <time>2021-08-16T18:39:43Z</time>
      </trkpt>
      <trkpt lat="44.79586" lon="1.61558">
        <ele>142.89</ele>
        <time>2021-08-16T18:39:57Z</time>
      </trkpt>
      <trkpt lat="44.79587" lon="1.61559">
        <ele>142.89</ele>
        <time>2021-08-16T18:40:12Z</time>
      </trkpt>
      <trkpt lat="44.79588" lon="1.61559">
        <ele>142.89</ele>
        <time>2021-08-16T18:40:31Z</time>
      </trkpt>
      <trkpt lat="44.79586" lon="1.61561">
        <ele>142.89</ele>
        <time>2021-08-16T18:40:50Z</time>
      </trkpt>
      <trkpt lat="44.79589" lon="1.61564">
        <ele>142.89</ele>
        <time>2021-08-16T18:41:11Z</time>
      </trkpt>
      <trkpt lat="44.79586" lon="1.61563">
        <ele>143.37</ele>
        <time>2021-08-16T18:41:30Z</time>
      </trkpt>
      <trkpt lat="44.79584" lon="1.61562">
        <ele>143.37</ele>
        <time>2021-08-16T18:41:49Z</time>
      </trkpt>
      <trkpt lat="44.79582" lon="1.61561">
        <ele>143.37</ele>
        <time>2021-08-16T18:42:03Z</time>
      </trkpt>
      <trkpt lat="44.79579" lon="1.61559">
        <ele>143.37</ele>
        <time>2021-08-16T18:42:16Z</time>
      </trkpt>
      <trkpt lat="44.7958" lon="1.61557">
        <ele>143.37</ele>
        <time>2021-08-16T18:42:31Z</time>
      </trkpt>
      <trkpt lat="44.79581" lon="1.61557">
        <ele>143.37</ele>
        <time>2021-08-16T18:42:47Z</time>
      </trkpt>
      <trkpt lat="44.79581" lon="1.61557">
        <ele>143.37</ele>
        <time>2021-08-16T18:42:59Z</time>
      </trkpt>
      <trkpt lat="44.79583" lon="1.61556">
        <ele>143.37</ele>
        <time>2021-08-16T18:43:19Z</time>
      </trkpt>
      <trkpt lat="44.79584" lon="1.61557">
        <ele>143.37</ele>
        <time>2021-08-16T18:43:42Z</time>
      </trkpt>
      <trkpt lat="44.79583" lon="1.61559">
        <ele>143.37</ele>
        <time>2021-08-16T18:44:00Z</time>
      </trkpt>
      <trkpt lat="44.79582" lon="1.61561">
        <ele>143.37</ele>
        <time>2021-08-16T18:44:18Z</time>
      </trkpt>
      <trkpt lat="44.79583" lon="1.61562">
        <ele>143.37</ele>
        <time>2021-08-16T18:44:35Z</time>
      </trkpt>
      <trkpt lat="44.79584" lon="1.61563">
        <ele>143.37</ele>
        <time>2021-08-16T18:44:50Z</time>
      </trkpt>
      <trkpt lat="44.79582" lon="1.61562">
        <ele>143.37</ele>
        <time>2021-08-16T18:45:14Z</time>
      </trkpt>
      <trkpt lat="44.7958" lon="1.61559">
        <ele>143.37</ele>
        <time>2021-08-16T18:45:38Z</time>
      </trkpt>
      <trkpt lat="44.7958" lon="1.6156">
        <ele>143.37</ele>
        <time>2021-08-16T18:45:57Z</time>
      </trkpt>
      <trkpt lat="44.79582" lon="1.61556">
        <ele>143.37</ele>
        <time>2021-08-16T18:46:21Z</time>
      </trkpt>
      <trkpt lat="44.79584" lon="1.61556">
        <ele>143.85</ele>
        <time>2021-08-16T18:46:44Z</time>
      </trkpt>
      <trkpt lat="44.79583" lon="1.61555">
        <ele>143.85</ele>
        <time>2021-08-16T18:47:00Z</time>
      </trkpt>
      <trkpt lat="44.79583" lon="1.61554">
        <ele>143.85</ele>
        <time>2021-08-16T18:47:18Z</time>
      </trkpt>
      <trkpt lat="44.79584" lon="1.61555">
        <ele>143.85</ele>
        <time>2021-08-16T18:47:32Z</time>
      </trkpt>
      <trkpt lat="44.79585" lon="1.61556">
        <ele>143.85</ele>
        <time>2021-08-16T18:47:44Z</time>
      </trkpt>
      <trkpt lat="44.79584" lon="1.61554">
        <ele>143.85</ele>
        <time>2021-08-16T18:48:01Z</time>
      </trkpt>
      <trkpt lat="44.79582" lon="1.61555">
        <ele>144.34</ele>
        <time>2021-08-16T18:48:20Z</time>
      </trkpt>
      <trkpt lat="44.79585" lon="1.61554">
        <ele>144.34</ele>
        <time>2021-08-16T18:48:34Z</time>
      </trkpt>
      <trkpt lat="44.79583" lon="1.6156">
        <ele>144.34</ele>
        <time>2021-08-16T18:48:54Z</time>
      </trkpt>
      <trkpt lat="44.79583" lon="1.61564">
        <ele>144.34</ele>
        <time>2021-08-16T18:49:09Z</time>
      </trkpt>
      <trkpt lat="44.79583" lon="1.61562">
        <ele>144.82</ele>
        <time>2021-08-16T18:49:29Z</time>
      </trkpt>
      <trkpt lat="44.79583" lon="1.61562">
        <ele>144.82</ele>
        <time>2021-08-16T18:49:48Z</time>
      </trkpt>
      <trkpt lat="44.79583" lon="1.6156">
        <ele>144.82</ele>
        <time>2021-08-16T18:50:02Z</time>
      </trkpt>
      <trkpt lat="44.79584" lon="1.61559">
        <ele>144.82</ele>
        <time>2021-08-16T18:50:19Z</time>
      </trkpt>
      <trkpt lat="44.79586" lon="1.6156">
        <ele>145.3</ele>
        <time>2021-08-16T18:50:38Z</time>
      </trkpt>
      <trkpt lat="44.79586" lon="1.61561">
        <ele>145.3</ele>
        <time>2021-08-16T18:50:52Z</time>
      </trkpt>
      <trkpt lat="44.79586" lon="1.61559">
        <ele>145.3</ele>
        <time>2021-08-16T18:51:13Z</time>
      </trkpt>
      <trkpt lat="44.79584" lon="1.61559">
        <ele>144.82</ele>
        <time>2021-08-16T18:51:29Z</time>
      </trkpt>
      <trkpt lat="44.79586" lon="1.61557">
        <ele>145.3</ele>
        <time>2021-08-16T18:51:47Z</time>
      </trkpt>
      <trkpt lat="44.79586" lon="1.61555">
        <ele>145.3</ele>
        <time>2021-08-16T18:52:02Z</time>
      </trkpt>
      <trkpt lat="44.79586" lon="1.61556">
        <ele>145.3</ele>
        <time>2021-08-16T18:52:19Z</time>
      </trkpt>
      <trkpt lat="44.79586" lon="1.61557">
        <ele>145.3</ele>
        <time>2021-08-16T18:52:38Z</time>
      </trkpt>
      <trkpt lat="44.79589" lon="1.61557">
        <ele>145.3</ele>
        <time>2021-08-16T18:52:57Z</time>
      </trkpt>
      <trkpt lat="44.79589" lon="1.61557">
        <ele>145.78</ele>
        <time>2021-08-16T18:53:12Z</time>
      </trkpt>
      <trkpt lat="44.79588" lon="1.61556">
        <ele>145.78</ele>
        <time>2021-08-16T18:53:32Z</time>
      </trkpt>
      <trkpt lat="44.79588" lon="1.61555">
        <ele>145.78</ele>
        <time>2021-08-16T18:53:50Z</time>
      </trkpt>
      <trkpt lat="44.79584" lon="1.61558">
        <ele>145.78</ele>
        <time>2021-08-16T18:54:06Z</time>
      </trkpt>
      <trkpt lat="44.79583" lon="1.61559">
        <ele>145.78</ele>
        <time>2021-08-16T18:54:19Z</time>
      </trkpt>
      <trkpt lat="44.79582" lon="1.61559">
        <ele>146.26</ele>
        <time>2021-08-16T18:54:37Z</time>
      </trkpt>
      <trkpt lat="44.79581" lon="1.61556">
        <ele>146.26</ele>
        <time>2021-08-16T18:54:57Z</time>
      </trkpt>
      <trkpt lat="44.79578" lon="1.61555">
        <ele>146.26</ele>
        <time>2021-08-16T18:55:13Z</time>
      </trkpt>
      <trkpt lat="44.79576" lon="1.61556">
        <ele>145.78</ele>
        <time>2021-08-16T18:55:34Z</time>
      </trkpt>
      <trkpt lat="44.79573" lon="1.61557">
        <ele>145.78</ele>
        <time>2021-08-16T18:55:55Z</time>
      </trkpt>
      <trkpt lat="44.79572" lon="1.61559">
        <ele>145.78</ele>
        <time>2021-08-16T18:56:12Z</time>
      </trkpt>
      <trkpt lat="44.79571" lon="1.61559">
        <ele>145.78</ele>
        <time>2021-08-16T18:56:29Z</time>
      </trkpt>
      <trkpt lat="44.79573" lon="1.61557">
        <ele>145.3</ele>
        <time>2021-08-16T18:56:49Z</time>
      </trkpt>
      <trkpt lat="44.79575" lon="1.61557">
        <ele>145.3</ele>
        <time>2021-08-16T18:57:00Z</time>
      </trkpt>
      <trkpt lat="44.79576" lon="1.61557">
        <ele>145.3</ele>
        <time>2021-08-16T18:57:19Z</time>
      </trkpt>
      <trkpt lat="44.79578" lon="1.61557">
        <ele>145.3</ele>
        <time>2021-08-16T18:57:39Z</time>
      </trkpt>
      <trkpt lat="44.79578" lon="1.61557">
        <ele>145.3</ele>
        <time>2021-08-16T18:57:55Z</time>
      </trkpt>
      <trkpt lat="44.79576" lon="1.61558">
        <ele>144.82</ele>
        <time>2021-08-16T18:58:08Z</time>
      </trkpt>
      <trkpt lat="44.79576" lon="1.61558">
        <ele>144.34</ele>
        <time>2021-08-16T18:58:24Z</time>
      </trkpt>
      <trkpt lat="44.79576" lon="1.61556">
        <ele>144.34</ele>
        <time>2021-08-16T18:58:35Z</time>
      </trkpt>
      <trkpt lat="44.79577" lon="1.61555">
        <ele>144.34</ele>
        <time>2021-08-16T18:58:51Z</time>
      </trkpt>
      <trkpt lat="44.79578" lon="1.61555">
        <ele>144.34</ele>
        <time>2021-08-16T18:59:07Z</time>
      </trkpt>
      <trkpt lat="44.79581" lon="1.61556">
        <ele>144.34</ele>
        <time>2021-08-16T18:59:25Z</time>
      </trkpt>
      <trkpt lat="44.79582" lon="1.61555">
        <ele>144.34</ele>
        <time>2021-08-16T18:59:35Z</time>
      </trkpt>
      <trkpt lat="44.79582" lon="1.61555">
        <ele>144.34</ele>
        <time>2021-08-16T18:59:47Z</time>
      </trkpt>
      <trkpt lat="44.79582" lon="1.61557">
        <ele>144.34</ele>
        <time>2021-08-16T19:00:03Z</time>
      </trkpt>
      <trkpt lat="44.79583" lon="1.61558">
        <ele>143.85</ele>
        <time>2021-08-16T19:00:23Z</time>
      </trkpt>
      <trkpt lat="44.79582" lon="1.61557">
        <ele>143.85</ele>
        <time>2021-08-16T19:00:42Z</time>
      </trkpt>
      <trkpt lat="44.79581" lon="1.61556">
        <ele>143.85</ele>
        <time>2021-08-16T19:01:04Z</time>
      </trkpt>
      <trkpt lat="44.79582" lon="1.61555">
        <ele>143.85</ele>
        <time>2021-08-16T19:01:14Z</time>
      </trkpt>
      <trkpt lat="44.7958" lon="1.61551">
        <ele>143.85</ele>
        <time>2021-08-16T19:01:22Z</time>
      </trkpt>
      <trkpt lat="44.7958" lon="1.61553">
        <ele>143.85</ele>
        <time>2021-08-16T19:01:29Z</time>
      </trkpt>
      <trkpt lat="44.79581" lon="1.61553">
        <ele>143.85</ele>
        <time>2021-08-16T19:01:35Z</time>
      </trkpt>
      <trkpt lat="44.79578" lon="1.61549">
        <ele>143.85</ele>
        <time>2021-08-16T19:01:42Z</time>
      </trkpt>
      <trkpt lat="44.79573" lon="1.61544">
        <ele>145.78</ele>
        <time>2021-08-16T19:01:51Z</time>
      </trkpt>
      <trkpt lat="44.79567" lon="1.61538">
        <ele>147.22</ele>
        <time>2021-08-16T19:02:02Z</time>
      </trkpt>
      <trkpt lat="44.79563" lon="1.61534">
        <ele>148.18</ele>
        <time>2021-08-16T19:02:10Z</time>
      </trkpt>
      <trkpt lat="44.79557" lon="1.61526">
        <ele>149.62</ele>
        <time>2021-08-16T19:02:21Z</time>
      </trkpt>
      <trkpt lat="44.79553" lon="1.6152">
        <ele>150.58</ele>
        <time>2021-08-16T19:02:30Z</time>
      </trkpt>
      <trkpt lat="44.79547" lon="1.61513">
        <ele>152.03</ele>
        <time>2021-08-16T19:02:42Z</time>
      </trkpt>
      <trkpt lat="44.79543" lon="1.61508">
        <ele>152.99</ele>
        <time>2021-08-16T19:02:50Z</time>
      </trkpt>
      <trkpt lat="44.79539" lon="1.61502">
        <ele>154.43</ele>
        <time>2021-08-16T19:02:58Z</time>
      </trkpt>
      <trkpt lat="44.79536" lon="1.61498">
        <ele>154.91</ele>
        <time>2021-08-16T19:03:06Z</time>
      </trkpt>
      <trkpt lat="44.79535" lon="1.61494">
        <ele>155.39</ele>
        <time>2021-08-16T19:03:13Z</time>
      </trkpt>
      <trkpt lat="44.79533" lon="1.61491">
        <ele>155.87</ele>
        <time>2021-08-16T19:03:20Z</time>
      </trkpt>
      <trkpt lat="44.79526" lon="1.61483">
        <ele>157.79</ele>
        <time>2021-08-16T19:03:31Z</time>
      </trkpt>
      <trkpt lat="44.7952" lon="1.61475">
        <ele>159.24</ele>
        <time>2021-08-16T19:03:41Z</time>
      </trkpt>
      <trkpt lat="44.79516" lon="1.6147">
        <ele>160.68</ele>
        <time>2021-08-16T19:03:50Z</time>
      </trkpt>
      <trkpt lat="44.79512" lon="1.61465">
        <ele>161.64</ele>
        <time>2021-08-16T19:03:59Z</time>
      </trkpt>
      <trkpt lat="44.79507" lon="1.61458">
        <ele>163.08</ele>
        <time>2021-08-16T19:04:09Z</time>
      </trkpt>
      <trkpt lat="44.79503" lon="1.61451">
        <ele>164.04</ele>
        <time>2021-08-16T19:04:18Z</time>
      </trkpt>
      <trkpt lat="44.79498" lon="1.6145">
        <ele>165.48</ele>
        <time>2021-08-16T19:04:28Z</time>
      </trkpt>
      <trkpt lat="44.79497" lon="1.61455">
        <ele>166.93</ele>
        <time>2021-08-16T19:04:37Z</time>
      </trkpt>
      <trkpt lat="44.79498" lon="1.61462">
        <ele>167.89</ele>
        <time>2021-08-16T19:04:46Z</time>
      </trkpt>
      <trkpt lat="44.795" lon="1.61471">
        <ele>168.85</ele>
        <time>2021-08-16T19:04:55Z</time>
      </trkpt>
      <trkpt lat="44.79499" lon="1.61477">
        <ele>170.29</ele>
        <time>2021-08-16T19:05:01Z</time>
      </trkpt>
      <trkpt lat="44.795" lon="1.61485">
        <ele>170.77</ele>
        <time>2021-08-16T19:05:09Z</time>
      </trkpt>
      <trkpt lat="44.79501" lon="1.61495">
        <ele>172.21</ele>
        <time>2021-08-16T19:05:19Z</time>
      </trkpt>
      <trkpt lat="44.79502" lon="1.61504">
        <ele>173.66</ele>
        <time>2021-08-16T19:05:29Z</time>
      </trkpt>
      <trkpt lat="44.79503" lon="1.6151">
        <ele>174.14</ele>
        <time>2021-08-16T19:05:36Z</time>
      </trkpt>
      <trkpt lat="44.79502" lon="1.61516">
        <ele>175.58</ele>
        <time>2021-08-16T19:05:44Z</time>
      </trkpt>
      <trkpt lat="44.795" lon="1.61525">
        <ele>176.06</ele>
        <time>2021-08-16T19:05:53Z</time>
      </trkpt>
      <trkpt lat="44.79496" lon="1.61525">
        <ele>177.5</ele>
        <time>2021-08-16T19:06:02Z</time>
      </trkpt>
      <trkpt lat="44.79492" lon="1.61519">
        <ele>177.98</ele>
        <time>2021-08-16T19:06:10Z</time>
      </trkpt>
      <trkpt lat="44.79489" lon="1.61511">
        <ele>179.42</ele>
        <time>2021-08-16T19:06:20Z</time>
      </trkpt>
      <trkpt lat="44.79487" lon="1.61504">
        <ele>180.38</ele>
        <time>2021-08-16T19:06:27Z</time>
      </trkpt>
      <trkpt lat="44.79482" lon="1.61496">
        <ele>181.35</ele>
        <time>2021-08-16T19:06:37Z</time>
      </trkpt>
      <trkpt lat="44.79479" lon="1.61489">
        <ele>182.31</ele>
        <time>2021-08-16T19:06:45Z</time>
      </trkpt>
      <trkpt lat="44.79477" lon="1.61483">
        <ele>183.27</ele>
        <time>2021-08-16T19:06:52Z</time>
      </trkpt>
      <trkpt lat="44.79474" lon="1.61473">
        <ele>184.71</ele>
        <time>2021-08-16T19:07:03Z</time>
      </trkpt>
      <trkpt lat="44.79472" lon="1.61464">
        <ele>185.67</ele>
        <time>2021-08-16T19:07:12Z</time>
      </trkpt>
      <trkpt lat="44.79475" lon="1.6146">
        <ele>185.67</ele>
        <time>2021-08-16T19:07:13Z</time>
      </trkpt>
      <trkpt lat="44.79475" lon="1.61457">
        <ele>186.15</ele>
        <time>2021-08-16T19:07:16Z</time>
      </trkpt>
      <trkpt lat="44.7947" lon="1.61454">
        <ele>187.11</ele>
        <time>2021-08-16T19:07:23Z</time>
      </trkpt>
      <trkpt lat="44.79465" lon="1.61446">
        <ele>189.04</ele>
        <time>2021-08-16T19:07:34Z</time>
      </trkpt>
      <trkpt lat="44.79461" lon="1.61437">
        <ele>190.48</ele>
        <time>2021-08-16T19:07:44Z</time>
      </trkpt>
      <trkpt lat="44.79459" lon="1.61431">
        <ele>190.96</ele>
        <time>2021-08-16T19:07:50Z</time>
      </trkpt>
      <trkpt lat="44.79458" lon="1.61422">
        <ele>191.92</ele>
        <time>2021-08-16T19:07:58Z</time>
      </trkpt>
      <trkpt lat="44.79457" lon="1.61413">
        <ele>193.36</ele>
        <time>2021-08-16T19:08:09Z</time>
      </trkpt>
      <trkpt lat="44.79456" lon="1.61411">
        <ele>193.36</ele>
        <time>2021-08-16T19:08:20Z</time>
      </trkpt>
      <trkpt lat="44.79455" lon="1.61409">
        <ele>193.36</ele>
        <time>2021-08-16T19:08:31Z</time>
      </trkpt>
      <trkpt lat="44.79456" lon="1.61406">
        <ele>193.36</ele>
        <time>2021-08-16T19:08:40Z</time>
      </trkpt>
      <trkpt lat="44.79455" lon="1.61401">
        <ele>193.36</ele>
        <time>2021-08-16T19:08:47Z</time>
      </trkpt>
      <trkpt lat="44.79455" lon="1.61389">
        <ele>192.88</ele>
        <time>2021-08-16T19:08:54Z</time>
      </trkpt>
      <trkpt lat="44.79455" lon="1.61374">
        <ele>192.88</ele>
        <time>2021-08-16T19:09:00Z</time>
      </trkpt>
      <trkpt lat="44.79454" lon="1.61372">
        <ele>192.88</ele>
        <time>2021-08-16T19:09:01Z</time>
      </trkpt>
      <trkpt lat="44.79453" lon="1.6137">
        <ele>192.88</ele>
        <time>2021-08-16T19:09:02Z</time>
      </trkpt>
      <trkpt lat="44.79452" lon="1.61367">
        <ele>193.84</ele>
        <time>2021-08-16T19:09:03Z</time>
      </trkpt>
      <trkpt lat="44.79451" lon="1.61364">
        <ele>193.84</ele>
        <time>2021-08-16T19:09:04Z</time>
      </trkpt>
      <trkpt lat="44.7945" lon="1.61361">
        <ele>193.84</ele>
        <time>2021-08-16T19:09:05Z</time>
      </trkpt>
      <trkpt lat="44.7945" lon="1.61358">
        <ele>193.84</ele>
        <time>2021-08-16T19:09:06Z</time>
      </trkpt>
      <trkpt lat="44.7945" lon="1.61355">
        <ele>193.84</ele>
        <time>2021-08-16T19:09:07Z</time>
      </trkpt>
      <trkpt lat="44.7945" lon="1.61352">
        <ele>193.84</ele>
        <time>2021-08-16T19:09:08Z</time>
      </trkpt>
      <trkpt lat="44.7945" lon="1.61349">
        <ele>193.84</ele>
        <time>2021-08-16T19:09:09Z</time>
      </trkpt>
      <trkpt lat="44.79451" lon="1.61345">
        <ele>193.84</ele>
        <time>2021-08-16T19:09:10Z</time>
      </trkpt>
      <trkpt lat="44.79457" lon="1.61324">
        <ele>192.88</ele>
        <time>2021-08-16T19:09:16Z</time>
      </trkpt>
      <trkpt lat="44.7947" lon="1.61297">
        <ele>191.92</ele>
        <time>2021-08-16T19:09:23Z</time>
      </trkpt>
      <trkpt lat="44.79475" lon="1.61287">
        <ele>190.48</ele>
        <time>2021-08-16T19:09:26Z</time>
      </trkpt>
      <trkpt lat="44.79486" lon="1.61272">
        <ele>190.96</ele>
        <time>2021-08-16T19:09:32Z</time>
      </trkpt>
      <trkpt lat="44.79502" lon="1.61251">
        <ele>190.96</ele>
        <time>2021-08-16T19:09:39Z</time>
      </trkpt>
      <trkpt lat="44.79507" lon="1.61242">
        <ele>192.4</ele>
        <time>2021-08-16T19:09:42Z</time>
      </trkpt>
      <trkpt lat="44.79514" lon="1.61223">
        <ele>192.88</ele>
        <time>2021-08-16T19:09:49Z</time>
      </trkpt>
      <trkpt lat="44.79525" lon="1.6121">
        <ele>194.32</ele>
        <time>2021-08-16T19:09:57Z</time>
      </trkpt>
      <trkpt lat="44.79538" lon="1.61203">
        <ele>196.25</ele>
        <time>2021-08-16T19:10:05Z</time>
      </trkpt>
      <trkpt lat="44.79546" lon="1.6119">
        <ele>197.69</ele>
        <time>2021-08-16T19:10:13Z</time>
      </trkpt>
      <trkpt lat="44.79548" lon="1.61184">
        <ele>198.17</ele>
        <time>2021-08-16T19:10:17Z</time>
      </trkpt>
      <trkpt lat="44.79548" lon="1.61183">
        <ele>197.69</ele>
        <time>2021-08-16T19:10:18Z</time>
      </trkpt>
      <trkpt lat="44.79552" lon="1.61175">
        <ele>199.13</ele>
        <time>2021-08-16T19:10:25Z</time>
      </trkpt>
      <trkpt lat="44.79556" lon="1.61162">
        <ele>201.05</ele>
        <time>2021-08-16T19:10:37Z</time>
      </trkpt>
      <trkpt lat="44.79557" lon="1.61152">
        <ele>202.49</ele>
        <time>2021-08-16T19:10:46Z</time>
      </trkpt>
      <trkpt lat="44.79559" lon="1.61143">
        <ele>203.46</ele>
        <time>2021-08-16T19:10:56Z</time>
      </trkpt>
      <trkpt lat="44.79558" lon="1.61134">
        <ele>204.9</ele>
        <time>2021-08-16T19:11:05Z</time>
      </trkpt>
      <trkpt lat="44.79558" lon="1.61127">
        <ele>205.86</ele>
        <time>2021-08-16T19:11:13Z</time>
      </trkpt>
      <trkpt lat="44.79557" lon="1.61121">
        <ele>207.3</ele>
        <time>2021-08-16T19:11:20Z</time>
      </trkpt>
      <trkpt lat="44.79555" lon="1.61112">
        <ele>208.74</ele>
        <time>2021-08-16T19:11:30Z</time>
      </trkpt>
      <trkpt lat="44.79554" lon="1.61106">
        <ele>209.22</ele>
        <time>2021-08-16T19:11:37Z</time>
      </trkpt>
      <trkpt lat="44.79553" lon="1.611">
        <ele>210.67</ele>
        <time>2021-08-16T19:11:45Z</time>
      </trkpt>
      <trkpt lat="44.79552" lon="1.61093">
        <ele>212.11</ele>
        <time>2021-08-16T19:11:53Z</time>
      </trkpt>
      <trkpt lat="44.79548" lon="1.61091">
        <ele>212.11</ele>
        <time>2021-08-16T19:11:58Z</time>
      </trkpt>
      <trkpt lat="44.79547" lon="1.61091">
        <ele>212.11</ele>
        <time>2021-08-16T19:11:59Z</time>
      </trkpt>
      <trkpt lat="44.79546" lon="1.61092">
        <ele>213.07</ele>
        <time>2021-08-16T19:12:04Z</time>
      </trkpt>
      <trkpt lat="44.79549" lon="1.61092">
        <ele>213.07</ele>
        <time>2021-08-16T19:12:13Z</time>
      </trkpt>
      <trkpt lat="44.79545" lon="1.61096">
        <ele>214.03</ele>
        <time>2021-08-16T19:12:22Z</time>
      </trkpt>
      <trkpt lat="44.79539" lon="1.61101">
        <ele>215.47</ele>
        <time>2021-08-16T19:12:33Z</time>
      </trkpt>
      <trkpt lat="44.79534" lon="1.61103">
        <ele>216.43</ele>
        <time>2021-08-16T19:12:43Z</time>
      </trkpt>
      <trkpt lat="44.79529" lon="1.61106">
        <ele>217.88</ele>
        <time>2021-08-16T19:12:52Z</time>
      </trkpt>
      <trkpt lat="44.79523" lon="1.61109">
        <ele>219.8</ele>
        <time>2021-08-16T19:13:03Z</time>
      </trkpt>
      <trkpt lat="44.79515" lon="1.61109">
        <ele>220.28</ele>
        <time>2021-08-16T19:13:12Z</time>
      </trkpt>
      <trkpt lat="44.79514" lon="1.61109">
        <ele>220.28</ele>
        <time>2021-08-16T19:13:13Z</time>
      </trkpt>
      <trkpt lat="44.79507" lon="1.61111">
        <ele>221.72</ele>
        <time>2021-08-16T19:13:21Z</time>
      </trkpt>
      <trkpt lat="44.79501" lon="1.61112">
        <ele>222.2</ele>
        <time>2021-08-16T19:13:30Z</time>
      </trkpt>
      <trkpt lat="44.79497" lon="1.61114">
        <ele>223.16</ele>
        <time>2021-08-16T19:13:42Z</time>
      </trkpt>
      <trkpt lat="44.79493" lon="1.61115">
        <ele>223.64</ele>
        <time>2021-08-16T19:13:52Z</time>
      </trkpt>
      <trkpt lat="44.79486" lon="1.61116">
        <ele>225.09</ele>
        <time>2021-08-16T19:14:02Z</time>
      </trkpt>
      <trkpt lat="44.79479" lon="1.61117">
        <ele>226.53</ele>
        <time>2021-08-16T19:14:12Z</time>
      </trkpt>
      <trkpt lat="44.79472" lon="1.61116">
        <ele>227.01</ele>
        <time>2021-08-16T19:14:23Z</time>
      </trkpt>
      <trkpt lat="44.79465" lon="1.61111">
        <ele>228.45</ele>
        <time>2021-08-16T19:14:33Z</time>
      </trkpt>
      <trkpt lat="44.79459" lon="1.61109">
        <ele>229.89</ele>
        <time>2021-08-16T19:14:43Z</time>
      </trkpt>
      <trkpt lat="44.79453" lon="1.61106">
        <ele>230.85</ele>
        <time>2021-08-16T19:14:52Z</time>
      </trkpt>
      <trkpt lat="44.79447" lon="1.61103">
        <ele>231.81</ele>
        <time>2021-08-16T19:15:02Z</time>
      </trkpt>
      <trkpt lat="44.79441" lon="1.61101">
        <ele>233.74</ele>
        <time>2021-08-16T19:15:12Z</time>
      </trkpt>
      <trkpt lat="44.79435" lon="1.61098">
        <ele>234.7</ele>
        <time>2021-08-16T19:15:20Z</time>
      </trkpt>
      <trkpt lat="44.7943" lon="1.61096">
        <ele>236.62</ele>
        <time>2021-08-16T19:15:29Z</time>
      </trkpt>
      <trkpt lat="44.79424" lon="1.61093">
        <ele>237.1</ele>
        <time>2021-08-16T19:15:38Z</time>
      </trkpt>
      <trkpt lat="44.79418" lon="1.61092">
        <ele>238.54</ele>
        <time>2021-08-16T19:15:49Z</time>
      </trkpt>
      <trkpt lat="44.79413" lon="1.61092">
        <ele>239.99</ele>
        <time>2021-08-16T19:15:58Z</time>
      </trkpt>
      <trkpt lat="44.79405" lon="1.61094">
        <ele>241.91</ele>
        <time>2021-08-16T19:16:11Z</time>
      </trkpt>
      <trkpt lat="44.79399" lon="1.61096">
        <ele>242.87</ele>
        <time>2021-08-16T19:16:20Z</time>
      </trkpt>
      <trkpt lat="44.79393" lon="1.61097">
        <ele>243.83</ele>
        <time>2021-08-16T19:16:28Z</time>
      </trkpt>
      <trkpt lat="44.79388" lon="1.61097">
        <ele>244.79</ele>
        <time>2021-08-16T19:16:36Z</time>
      </trkpt>
      <trkpt lat="44.79383" lon="1.611">
        <ele>245.75</ele>
        <time>2021-08-16T19:16:46Z</time>
      </trkpt>
      <trkpt lat="44.79377" lon="1.61102">
        <ele>247.2</ele>
        <time>2021-08-16T19:16:55Z</time>
      </trkpt>
      <trkpt lat="44.79376" lon="1.61102">
        <ele>247.2</ele>
        <time>2021-08-16T19:17:00Z</time>
      </trkpt>
      <trkpt lat="44.79374" lon="1.61103">
        <ele>248.64</ele>
        <time>2021-08-16T19:17:05Z</time>
      </trkpt>
      <trkpt lat="44.79367" lon="1.61109">
        <ele>249.6</ele>
        <time>2021-08-16T19:17:16Z</time>
      </trkpt>
      <trkpt lat="44.79359" lon="1.61112">
        <ele>251.04</ele>
        <time>2021-08-16T19:17:25Z</time>
      </trkpt>
      <trkpt lat="44.79351" lon="1.61114">
        <ele>251.52</ele>
        <time>2021-08-16T19:17:34Z</time>
      </trkpt>
      <trkpt lat="44.79346" lon="1.61116">
        <ele>252.48</ele>
        <time>2021-08-16T19:17:41Z</time>
      </trkpt>
      <trkpt lat="44.79338" lon="1.61118">
        <ele>253.44</ele>
        <time>2021-08-16T19:17:51Z</time>
      </trkpt>
      <trkpt lat="44.7933" lon="1.61119">
        <ele>254.89</ele>
        <time>2021-08-16T19:18:01Z</time>
      </trkpt>
      <trkpt lat="44.79321" lon="1.6112">
        <ele>255.85</ele>
        <time>2021-08-16T19:18:11Z</time>
      </trkpt>
      <trkpt lat="44.79318" lon="1.61118">
        <ele>255.85</ele>
        <time>2021-08-16T19:18:18Z</time>
      </trkpt>
      <trkpt lat="44.79315" lon="1.61117">
        <ele>255.85</ele>
        <time>2021-08-16T19:18:39Z</time>
      </trkpt>
      <trkpt lat="44.79314" lon="1.61118">
        <ele>255.85</ele>
        <time>2021-08-16T19:18:53Z</time>
      </trkpt>
      <trkpt lat="44.79313" lon="1.6112">
        <ele>255.85</ele>
        <time>2021-08-16T19:19:03Z</time>
      </trkpt>
      <trkpt lat="44.79307" lon="1.6112">
        <ele>256.33</ele>
        <time>2021-08-16T19:19:10Z</time>
      </trkpt>
      <trkpt lat="44.79301" lon="1.61117">
        <ele>256.81</ele>
        <time>2021-08-16T19:19:19Z</time>
      </trkpt>
      <trkpt lat="44.79299" lon="1.61116">
        <ele>257.29</ele>
        <time>2021-08-16T19:19:25Z</time>
      </trkpt>
      <trkpt lat="44.79297" lon="1.61116">
        <ele>257.29</ele>
        <time>2021-08-16T19:19:28Z</time>
      </trkpt>
      <trkpt lat="44.79295" lon="1.61115">
        <ele>257.77</ele>
        <time>2021-08-16T19:19:30Z</time>
      </trkpt>
      <trkpt lat="44.79279" lon="1.61109">
        <ele>259.21</ele>
        <time>2021-08-16T19:19:42Z</time>
      </trkpt>
      <trkpt lat="44.79271" lon="1.61106">
        <ele>259.69</ele>
        <time>2021-08-16T19:19:49Z</time>
      </trkpt>
      <trkpt lat="44.79268" lon="1.61106">
        <ele>259.69</ele>
        <time>2021-08-16T19:19:56Z</time>
      </trkpt>
      <trkpt lat="44.79252" lon="1.61103">
        <ele>260.65</ele>
        <time>2021-08-16T19:20:05Z</time>
      </trkpt>
      <trkpt lat="44.79235" lon="1.61097">
        <ele>261.14</ele>
        <time>2021-08-16T19:20:13Z</time>
      </trkpt>
      <trkpt lat="44.79222" lon="1.61094">
        <ele>261.14</ele>
        <time>2021-08-16T19:20:19Z</time>
      </trkpt>
      <trkpt lat="44.79195" lon="1.61087">
        <ele>261.14</ele>
        <time>2021-08-16T19:20:29Z</time>
      </trkpt>
      <trkpt lat="44.79176" lon="1.61081">
        <ele>261.62</ele>
        <time>2021-08-16T19:20:36Z</time>
      </trkpt>
      <trkpt lat="44.79151" lon="1.61072">
        <ele>261.62</ele>
        <time>2021-08-16T19:20:44Z</time>
      </trkpt>
      <trkpt lat="44.7911" lon="1.61058">
        <ele>260.17</ele>
        <time>2021-08-16T19:20:55Z</time>
      </trkpt>
      <trkpt lat="44.79066" lon="1.61041">
        <ele>259.21</ele>
        <time>2021-08-16T19:21:06Z</time>
      </trkpt>
      <trkpt lat="44.79057" lon="1.61036">
        <ele>258.73</ele>
        <time>2021-08-16T19:21:08Z</time>
      </trkpt>
      <trkpt lat="44.79013" lon="1.6101">
        <ele>257.77</ele>
        <time>2021-08-16T19:21:18Z</time>
      </trkpt>
      <trkpt lat="44.79005" lon="1.61005">
        <ele>257.29</ele>
        <time>2021-08-16T19:21:20Z</time>
      </trkpt>
      <trkpt lat="44.78971" lon="1.60977">
        <ele>256.81</ele>
        <time>2021-08-16T19:21:29Z</time>
      </trkpt>
      <trkpt lat="44.78959" lon="1.6097">
        <ele>256.81</ele>
        <time>2021-08-16T19:21:32Z</time>
      </trkpt>
      <trkpt lat="44.78956" lon="1.60966">
        <ele>256.81</ele>
        <time>2021-08-16T19:21:33Z</time>
      </trkpt>
      <trkpt lat="44.78955" lon="1.60962">
        <ele>256.81</ele>
        <time>2021-08-16T19:21:34Z</time>
      </trkpt>
      <trkpt lat="44.78955" lon="1.60956">
        <ele>256.81</ele>
        <time>2021-08-16T19:21:35Z</time>
      </trkpt>
      <trkpt lat="44.78955" lon="1.60951">
        <ele>256.81</ele>
        <time>2021-08-16T19:21:36Z</time>
      </trkpt>
      <trkpt lat="44.78956" lon="1.60945">
        <ele>256.81</ele>
        <time>2021-08-16T19:21:40Z</time>
      </trkpt>
      <trkpt lat="44.78954" lon="1.60946">
        <ele>256.81</ele>
        <time>2021-08-16T19:21:46Z</time>
      </trkpt>
      <trkpt lat="44.78954" lon="1.60947">
        <ele>256.81</ele>
        <time>2021-08-16T19:21:47Z</time>
      </trkpt>
      <trkpt lat="44.78953" lon="1.6095">
        <ele>256.81</ele>
        <time>2021-08-16T19:21:48Z</time>
      </trkpt>
      <trkpt lat="44.78953" lon="1.60951">
        <ele>256.81</ele>
        <time>2021-08-16T19:21:49Z</time>
      </trkpt>
      <trkpt lat="44.78953" lon="1.60954">
        <ele>256.81</ele>
        <time>2021-08-16T19:21:50Z</time>
      </trkpt>
      <trkpt lat="44.7895" lon="1.60963">
        <ele>256.81</ele>
        <time>2021-08-16T19:21:53Z</time>
      </trkpt>
      <trkpt lat="44.78948" lon="1.60964">
        <ele>256.81</ele>
        <time>2021-08-16T19:21:54Z</time>
      </trkpt>
      <trkpt lat="44.78946" lon="1.60965">
        <ele>256.81</ele>
        <time>2021-08-16T19:21:55Z</time>
      </trkpt>
      <trkpt lat="44.78943" lon="1.60966">
        <ele>256.81</ele>
        <time>2021-08-16T19:21:56Z</time>
      </trkpt>
      <trkpt lat="44.7894" lon="1.60966">
        <ele>256.81</ele>
        <time>2021-08-16T19:21:57Z</time>
      </trkpt>
      <trkpt lat="44.78937" lon="1.60965">
        <ele>256.81</ele>
        <time>2021-08-16T19:21:58Z</time>
      </trkpt>
      <trkpt lat="44.7893" lon="1.60963">
        <ele>256.81</ele>
        <time>2021-08-16T19:22:00Z</time>
      </trkpt>
      <trkpt lat="44.78925" lon="1.60963">
        <ele>256.81</ele>
        <time>2021-08-16T19:22:01Z</time>
      </trkpt>
      <trkpt lat="44.78922" lon="1.60962">
        <ele>256.81</ele>
        <time>2021-08-16T19:22:02Z</time>
      </trkpt>
      <trkpt lat="44.78897" lon="1.60948">
        <ele>256.81</ele>
        <time>2021-08-16T19:22:10Z</time>
      </trkpt>
      <trkpt lat="44.78871" lon="1.60934">
        <ele>256.81</ele>
        <time>2021-08-16T19:22:18Z</time>
      </trkpt>
      <trkpt lat="44.78837" lon="1.60904">
        <ele>256.33</ele>
        <time>2021-08-16T19:22:29Z</time>
      </trkpt>
      <trkpt lat="44.78816" lon="1.60885">
        <ele>255.37</ele>
        <time>2021-08-16T19:22:36Z</time>
      </trkpt>
      <trkpt lat="44.78804" lon="1.60885">
        <ele>254.89</ele>
        <time>2021-08-16T19:22:41Z</time>
      </trkpt>
      <trkpt lat="44.78801" lon="1.60886">
        <ele>254.89</ele>
        <time>2021-08-16T19:22:43Z</time>
      </trkpt>
      <trkpt lat="44.78801" lon="1.60884">
        <ele>254.89</ele>
        <time>2021-08-16T19:22:44Z</time>
      </trkpt>
      <trkpt lat="44.78802" lon="1.60881">
        <ele>254.89</ele>
        <time>2021-08-16T19:22:45Z</time>
      </trkpt>
      <trkpt lat="44.78809" lon="1.60859">
        <ele>254.41</ele>
        <time>2021-08-16T19:22:50Z</time>
      </trkpt>
      <trkpt lat="44.78811" lon="1.60849">
        <ele>253.44</ele>
        <time>2021-08-16T19:22:52Z</time>
      </trkpt>
      <trkpt lat="44.78811" lon="1.60843">
        <ele>253.44</ele>
        <time>2021-08-16T19:22:53Z</time>
      </trkpt>
      <trkpt lat="44.78809" lon="1.60838">
        <ele>253.44</ele>
        <time>2021-08-16T19:22:54Z</time>
      </trkpt>
      <trkpt lat="44.78806" lon="1.60833">
        <ele>252.96</ele>
        <time>2021-08-16T19:22:55Z</time>
      </trkpt>
      <trkpt lat="44.78803" lon="1.60831">
        <ele>252.48</ele>
        <time>2021-08-16T19:22:56Z</time>
      </trkpt>
      <trkpt lat="44.78799" lon="1.6083">
        <ele>252.48</ele>
        <time>2021-08-16T19:22:57Z</time>
      </trkpt>
      <trkpt lat="44.78795" lon="1.6083">
        <ele>252.48</ele>
        <time>2021-08-16T19:22:58Z</time>
      </trkpt>
      <trkpt lat="44.78747" lon="1.60825">
        <ele>252</ele>
        <time>2021-08-16T19:23:10Z</time>
      </trkpt>
      <trkpt lat="44.78711" lon="1.60822">
        <ele>251.04</ele>
        <time>2021-08-16T19:23:18Z</time>
      </trkpt>
      <trkpt lat="44.78669" lon="1.60818">
        <ele>249.12</ele>
        <time>2021-08-16T19:23:26Z</time>
      </trkpt>
      <trkpt lat="44.78616" lon="1.60813">
        <ele>247.68</ele>
        <time>2021-08-16T19:23:35Z</time>
      </trkpt>
      <trkpt lat="44.78611" lon="1.60813">
        <ele>247.68</ele>
        <time>2021-08-16T19:23:36Z</time>
      </trkpt>
      <trkpt lat="44.78606" lon="1.60815">
        <ele>247.68</ele>
        <time>2021-08-16T19:23:37Z</time>
      </trkpt>
      <trkpt lat="44.78601" lon="1.60816">
        <ele>247.68</ele>
        <time>2021-08-16T19:23:38Z</time>
      </trkpt>
      <trkpt lat="44.78597" lon="1.60819">
        <ele>247.68</ele>
        <time>2021-08-16T19:23:39Z</time>
      </trkpt>
      <trkpt lat="44.78592" lon="1.60822">
        <ele>247.68</ele>
        <time>2021-08-16T19:23:40Z</time>
      </trkpt>
      <trkpt lat="44.78589" lon="1.60826">
        <ele>247.68</ele>
        <time>2021-08-16T19:23:41Z</time>
      </trkpt>
      <trkpt lat="44.78586" lon="1.60831">
        <ele>247.68</ele>
        <time>2021-08-16T19:23:42Z</time>
      </trkpt>
      <trkpt lat="44.78583" lon="1.60836">
        <ele>247.68</ele>
        <time>2021-08-16T19:23:43Z</time>
      </trkpt>
      <trkpt lat="44.78581" lon="1.60842">
        <ele>248.64</ele>
        <time>2021-08-16T19:23:44Z</time>
      </trkpt>
      <trkpt lat="44.78579" lon="1.60847">
        <ele>248.64</ele>
        <time>2021-08-16T19:23:45Z</time>
      </trkpt>
      <trkpt lat="44.78562" lon="1.60898">
        <ele>249.12</ele>
        <time>2021-08-16T19:23:54Z</time>
      </trkpt>
      <trkpt lat="44.78538" lon="1.60955">
        <ele>246.72</ele>
        <time>2021-08-16T19:24:03Z</time>
      </trkpt>
      <trkpt lat="44.78506" lon="1.61019">
        <ele>244.31</ele>
        <time>2021-08-16T19:24:11Z</time>
      </trkpt>
      <trkpt lat="44.78471" lon="1.61071">
        <ele>241.91</ele>
        <time>2021-08-16T19:24:18Z</time>
      </trkpt>
      <trkpt lat="44.78428" lon="1.61116">
        <ele>238.54</ele>
        <time>2021-08-16T19:24:26Z</time>
      </trkpt>
      <trkpt lat="44.78418" lon="1.61128">
        <ele>238.06</ele>
        <time>2021-08-16T19:24:28Z</time>
      </trkpt>
      <trkpt lat="44.78414" lon="1.61135">
        <ele>238.06</ele>
        <time>2021-08-16T19:24:29Z</time>
      </trkpt>
      <trkpt lat="44.78412" lon="1.61143">
        <ele>237.58</ele>
        <time>2021-08-16T19:24:30Z</time>
      </trkpt>
      <trkpt lat="44.78411" lon="1.61152">
        <ele>237.1</ele>
        <time>2021-08-16T19:24:31Z</time>
      </trkpt>
      <trkpt lat="44.78411" lon="1.6116">
        <ele>236.14</ele>
        <time>2021-08-16T19:24:32Z</time>
      </trkpt>
      <trkpt lat="44.78414" lon="1.61169">
        <ele>235.66</ele>
        <time>2021-08-16T19:24:33Z</time>
      </trkpt>
      <trkpt lat="44.78417" lon="1.61177">
        <ele>235.18</ele>
        <time>2021-08-16T19:24:34Z</time>
      </trkpt>
      <trkpt lat="44.78422" lon="1.61184">
        <ele>234.7</ele>
        <time>2021-08-16T19:24:35Z</time>
      </trkpt>
      <trkpt lat="44.78428" lon="1.6119">
        <ele>233.74</ele>
        <time>2021-08-16T19:24:36Z</time>
      </trkpt>
      <trkpt lat="44.78435" lon="1.61196">
        <ele>233.26</ele>
        <time>2021-08-16T19:24:37Z</time>
      </trkpt>
      <trkpt lat="44.78481" lon="1.61245">
        <ele>229.89</ele>
        <time>2021-08-16T19:24:45Z</time>
      </trkpt>
      <trkpt lat="44.78508" lon="1.6131">
        <ele>226.53</ele>
        <time>2021-08-16T19:24:52Z</time>
      </trkpt>
      <trkpt lat="44.78517" lon="1.61359">
        <ele>224.12</ele>
        <time>2021-08-16T19:24:57Z</time>
      </trkpt>
      <trkpt lat="44.78516" lon="1.61375">
        <ele>223.16</ele>
        <time>2021-08-16T19:24:59Z</time>
      </trkpt>
      <trkpt lat="44.78513" lon="1.61385">
        <ele>223.16</ele>
        <time>2021-08-16T19:25:00Z</time>
      </trkpt>
      <trkpt lat="44.78508" lon="1.61391">
        <ele>221.72</ele>
        <time>2021-08-16T19:25:01Z</time>
      </trkpt>
      <trkpt lat="44.78503" lon="1.61393">
        <ele>222.2</ele>
        <time>2021-08-16T19:25:02Z</time>
      </trkpt>
      <trkpt lat="44.78496" lon="1.61393">
        <ele>221.24</ele>
        <time>2021-08-16T19:25:03Z</time>
      </trkpt>
      <trkpt lat="44.78488" lon="1.6139">
        <ele>220.76</ele>
        <time>2021-08-16T19:25:04Z</time>
      </trkpt>
      <trkpt lat="44.78482" lon="1.61387">
        <ele>220.28</ele>
        <time>2021-08-16T19:25:05Z</time>
      </trkpt>
      <trkpt lat="44.78435" lon="1.61376">
        <ele>217.4</ele>
        <time>2021-08-16T19:25:11Z</time>
      </trkpt>
      <trkpt lat="44.78388" lon="1.61382">
        <ele>214.03</ele>
        <time>2021-08-16T19:25:16Z</time>
      </trkpt>
      <trkpt lat="44.78341" lon="1.61393">
        <ele>210.67</ele>
        <time>2021-08-16T19:25:21Z</time>
      </trkpt>
      <trkpt lat="44.78313" lon="1.6141">
        <ele>208.26</ele>
        <time>2021-08-16T19:25:24Z</time>
      </trkpt>
      <trkpt lat="44.78305" lon="1.6142">
        <ele>207.3</ele>
        <time>2021-08-16T19:25:25Z</time>
      </trkpt>
      <trkpt lat="44.78301" lon="1.61429">
        <ele>206.82</ele>
        <time>2021-08-16T19:25:26Z</time>
      </trkpt>
      <trkpt lat="44.78295" lon="1.6144">
        <ele>205.86</ele>
        <time>2021-08-16T19:25:27Z</time>
      </trkpt>
      <trkpt lat="44.7829" lon="1.61454">
        <ele>205.38</ele>
        <time>2021-08-16T19:25:28Z</time>
      </trkpt>
      <trkpt lat="44.78287" lon="1.61465">
        <ele>204.9</ele>
        <time>2021-08-16T19:25:29Z</time>
      </trkpt>
      <trkpt lat="44.78284" lon="1.6148">
        <ele>203.94</ele>
        <time>2021-08-16T19:25:30Z</time>
      </trkpt>
      <trkpt lat="44.78282" lon="1.61492">
        <ele>203.46</ele>
        <time>2021-08-16T19:25:31Z</time>
      </trkpt>
      <trkpt lat="44.78275" lon="1.61547">
        <ele>200.09</ele>
        <time>2021-08-16T19:25:35Z</time>
      </trkpt>
      <trkpt lat="44.78272" lon="1.61561">
        <ele>200.09</ele>
        <time>2021-08-16T19:25:36Z</time>
      </trkpt>
      <trkpt lat="44.78262" lon="1.61601">
        <ele>197.21</ele>
        <time>2021-08-16T19:25:39Z</time>
      </trkpt>
      <trkpt lat="44.78257" lon="1.61612">
        <ele>197.21</ele>
        <time>2021-08-16T19:25:40Z</time>
      </trkpt>
      <trkpt lat="44.78252" lon="1.61622">
        <ele>196.25</ele>
        <time>2021-08-16T19:25:41Z</time>
      </trkpt>
      <trkpt lat="44.78244" lon="1.61633">
        <ele>195.77</ele>
        <time>2021-08-16T19:25:42Z</time>
      </trkpt>
      <trkpt lat="44.78239" lon="1.61639">
        <ele>194.8</ele>
        <time>2021-08-16T19:25:43Z</time>
      </trkpt>
      <trkpt lat="44.7823" lon="1.61648">
        <ele>194.32</ele>
        <time>2021-08-16T19:25:44Z</time>
      </trkpt>
      <trkpt lat="44.78224" lon="1.61655">
        <ele>193.36</ele>
        <time>2021-08-16T19:25:45Z</time>
      </trkpt>
      <trkpt lat="44.78194" lon="1.61675">
        <ele>190.96</ele>
        <time>2021-08-16T19:25:49Z</time>
      </trkpt>
      <trkpt lat="44.78179" lon="1.61683">
        <ele>189.52</ele>
        <time>2021-08-16T19:25:51Z</time>
      </trkpt>
      <trkpt lat="44.78174" lon="1.61687">
        <ele>190</ele>
        <time>2021-08-16T19:25:52Z</time>
      </trkpt>
      <trkpt lat="44.78168" lon="1.61694">
        <ele>188.56</ele>
        <time>2021-08-16T19:25:53Z</time>
      </trkpt>
      <trkpt lat="44.78164" lon="1.617">
        <ele>188.56</ele>
        <time>2021-08-16T19:25:54Z</time>
      </trkpt>
      <trkpt lat="44.78159" lon="1.61707">
        <ele>187.59</ele>
        <time>2021-08-16T19:25:55Z</time>
      </trkpt>
      <trkpt lat="44.78156" lon="1.61714">
        <ele>187.11</ele>
        <time>2021-08-16T19:25:56Z</time>
      </trkpt>
      <trkpt lat="44.78142" lon="1.61735">
        <ele>185.67</ele>
        <time>2021-08-16T19:26:00Z</time>
      </trkpt>
      <trkpt lat="44.78138" lon="1.61739">
        <ele>185.67</ele>
        <time>2021-08-16T19:26:01Z</time>
      </trkpt>
      <trkpt lat="44.78136" lon="1.61741">
        <ele>185.19</ele>
        <time>2021-08-16T19:26:02Z</time>
      </trkpt>
      <trkpt lat="44.78133" lon="1.61743">
        <ele>185.19</ele>
        <time>2021-08-16T19:26:03Z</time>
      </trkpt>
      <trkpt lat="44.7813" lon="1.61742">
        <ele>184.71</ele>
        <time>2021-08-16T19:26:04Z</time>
      </trkpt>
      <trkpt lat="44.78129" lon="1.61738">
        <ele>184.23</ele>
        <time>2021-08-16T19:26:05Z</time>
      </trkpt>
      <trkpt lat="44.78129" lon="1.61735">
        <ele>184.23</ele>
        <time>2021-08-16T19:26:06Z</time>
      </trkpt>
      <trkpt lat="44.78129" lon="1.61732">
        <ele>183.75</ele>
        <time>2021-08-16T19:26:07Z</time>
      </trkpt>
      <trkpt lat="44.78129" lon="1.61728">
        <ele>182.79</ele>
        <time>2021-08-16T19:26:08Z</time>
      </trkpt>
      <trkpt lat="44.7813" lon="1.61723">
        <ele>181.83</ele>
        <time>2021-08-16T19:26:09Z</time>
      </trkpt>
      <trkpt lat="44.78137" lon="1.61708">
        <ele>180.87</ele>
        <time>2021-08-16T19:26:13Z</time>
      </trkpt>
      <trkpt lat="44.7814" lon="1.617">
        <ele>179.42</ele>
        <time>2021-08-16T19:26:15Z</time>
      </trkpt>
      <trkpt lat="44.78142" lon="1.61696">
        <ele>178.94</ele>
        <time>2021-08-16T19:26:17Z</time>
      </trkpt>
      <trkpt lat="44.78144" lon="1.61695">
        <ele>177.98</ele>
        <time>2021-08-16T19:26:18Z</time>
      </trkpt>
      <trkpt lat="44.78144" lon="1.61694">
        <ele>178.46</ele>
        <time>2021-08-16T19:26:24Z</time>
      </trkpt>
      <trkpt lat="44.78144" lon="1.61691">
        <ele>178.46</ele>
        <time>2021-08-16T19:26:38Z</time>
      </trkpt>
      <trkpt lat="44.78143" lon="1.6169">
        <ele>178.46</ele>
        <time>2021-08-16T19:26:47Z</time>
      </trkpt>
      <trkpt lat="44.78141" lon="1.61694">
        <ele>178.46</ele>
        <time>2021-08-16T19:26:55Z</time>
      </trkpt>
      <trkpt lat="44.7814" lon="1.61695">
        <ele>179.9</ele>
        <time>2021-08-16T19:26:59Z</time>
      </trkpt>
      <trkpt lat="44.78138" lon="1.61695">
        <ele>179.9</ele>
        <time>2021-08-16T19:27:01Z</time>
      </trkpt>
      <trkpt lat="44.78136" lon="1.61692">
        <ele>179.9</ele>
        <time>2021-08-16T19:27:05Z</time>
      </trkpt>
      <trkpt lat="44.78134" lon="1.61688">
        <ele>179.9</ele>
        <time>2021-08-16T19:27:12Z</time>
      </trkpt>
      <trkpt lat="44.7813" lon="1.61683">
        <ele>180.38</ele>
        <time>2021-08-16T19:27:20Z</time>
      </trkpt>
      <trkpt lat="44.78127" lon="1.61679">
        <ele>180.87</ele>
        <time>2021-08-16T19:27:24Z</time>
      </trkpt>
      <trkpt lat="44.78118" lon="1.61673">
        <ele>182.31</ele>
        <time>2021-08-16T19:27:31Z</time>
      </trkpt>
      <trkpt lat="44.78108" lon="1.61664">
        <ele>183.27</ele>
        <time>2021-08-16T19:27:38Z</time>
      </trkpt>
      <trkpt lat="44.78101" lon="1.61658">
        <ele>183.75</ele>
        <time>2021-08-16T19:27:43Z</time>
      </trkpt>
      <trkpt lat="44.78099" lon="1.61656">
        <ele>184.23</ele>
        <time>2021-08-16T19:27:44Z</time>
      </trkpt>
      <trkpt lat="44.78098" lon="1.61656">
        <ele>184.23</ele>
        <time>2021-08-16T19:27:45Z</time>
      </trkpt>
      <trkpt lat="44.78096" lon="1.61655">
        <ele>184.23</ele>
        <time>2021-08-16T19:27:46Z</time>
      </trkpt>
      <trkpt lat="44.78095" lon="1.61653">
        <ele>184.23</ele>
        <time>2021-08-16T19:27:47Z</time>
      </trkpt>
      <trkpt lat="44.78092" lon="1.61651">
        <ele>184.71</ele>
        <time>2021-08-16T19:27:49Z</time>
      </trkpt>
      <trkpt lat="44.78091" lon="1.6165">
        <ele>184.71</ele>
        <time>2021-08-16T19:27:50Z</time>
      </trkpt>
      <trkpt lat="44.7809" lon="1.61649">
        <ele>184.71</ele>
        <time>2021-08-16T19:27:51Z</time>
      </trkpt>
      <trkpt lat="44.7808" lon="1.6164">
        <ele>186.15</ele>
        <time>2021-08-16T19:27:59Z</time>
      </trkpt>
      <trkpt lat="44.78073" lon="1.61632">
        <ele>187.11</ele>
        <time>2021-08-16T19:28:07Z</time>
      </trkpt>
      <trkpt lat="44.78065" lon="1.61625">
        <ele>187.59</ele>
        <time>2021-08-16T19:28:15Z</time>
      </trkpt>
      <trkpt lat="44.78064" lon="1.61623">
        <ele>187.59</ele>
        <time>2021-08-16T19:28:16Z</time>
      </trkpt>
      <trkpt lat="44.78063" lon="1.61622">
        <ele>187.59</ele>
        <time>2021-08-16T19:28:17Z</time>
      </trkpt>
      <trkpt lat="44.78058" lon="1.61617">
        <ele>188.08</ele>
        <time>2021-08-16T19:28:22Z</time>
      </trkpt>
      <trkpt lat="44.78047" lon="1.61607">
        <ele>189.52</ele>
        <time>2021-08-16T19:28:31Z</time>
      </trkpt>
      <trkpt lat="44.78046" lon="1.61605">
        <ele>189.52</ele>
        <time>2021-08-16T19:28:32Z</time>
      </trkpt>
      <trkpt lat="44.78045" lon="1.61604">
        <ele>189.52</ele>
        <time>2021-08-16T19:28:33Z</time>
      </trkpt>
      <trkpt lat="44.78044" lon="1.61603">
        <ele>189.52</ele>
        <time>2021-08-16T19:28:34Z</time>
      </trkpt>
      <trkpt lat="44.78042" lon="1.61601">
        <ele>189.52</ele>
        <time>2021-08-16T19:28:35Z</time>
      </trkpt>
      <trkpt lat="44.78042" lon="1.616">
        <ele>189.52</ele>
        <time>2021-08-16T19:28:36Z</time>
      </trkpt>
      <trkpt lat="44.78041" lon="1.61599">
        <ele>189.52</ele>
        <time>2021-08-16T19:28:37Z</time>
      </trkpt>
      <trkpt lat="44.7804" lon="1.61597">
        <ele>190</ele>
        <time>2021-08-16T19:28:38Z</time>
      </trkpt>
      <trkpt lat="44.78038" lon="1.61596">
        <ele>190</ele>
        <time>2021-08-16T19:28:39Z</time>
      </trkpt>
      <trkpt lat="44.78037" lon="1.61595">
        <ele>190</ele>
        <time>2021-08-16T19:28:40Z</time>
      </trkpt>
      <trkpt lat="44.78029" lon="1.61585">
        <ele>190.96</ele>
        <time>2021-08-16T19:28:48Z</time>
      </trkpt>
      <trkpt lat="44.78019" lon="1.61572">
        <ele>191.92</ele>
        <time>2021-08-16T19:28:57Z</time>
      </trkpt>
      <trkpt lat="44.78013" lon="1.61561">
        <ele>191.92</ele>
        <time>2021-08-16T19:29:05Z</time>
      </trkpt>
      <trkpt lat="44.78008" lon="1.61546">
        <ele>193.36</ele>
        <time>2021-08-16T19:29:14Z</time>
      </trkpt>
      <trkpt lat="44.78007" lon="1.61538">
        <ele>193.84</ele>
        <time>2021-08-16T19:29:19Z</time>
      </trkpt>
      <trkpt lat="44.78007" lon="1.61536">
        <ele>193.84</ele>
        <time>2021-08-16T19:29:20Z</time>
      </trkpt>
      <trkpt lat="44.78007" lon="1.61534">
        <ele>193.84</ele>
        <time>2021-08-16T19:29:21Z</time>
      </trkpt>
      <trkpt lat="44.78006" lon="1.61518">
        <ele>194.8</ele>
        <time>2021-08-16T19:29:29Z</time>
      </trkpt>
      <trkpt lat="44.78006" lon="1.61515">
        <ele>194.8</ele>
        <time>2021-08-16T19:29:30Z</time>
      </trkpt>
      <trkpt lat="44.78007" lon="1.61497">
        <ele>195.77</ele>
        <time>2021-08-16T19:29:39Z</time>
      </trkpt>
      <trkpt lat="44.78006" lon="1.61493">
        <ele>195.77</ele>
        <time>2021-08-16T19:29:41Z</time>
      </trkpt>
      <trkpt lat="44.78006" lon="1.61492">
        <ele>196.25</ele>
        <time>2021-08-16T19:29:42Z</time>
      </trkpt>
      <trkpt lat="44.78006" lon="1.6149">
        <ele>196.25</ele>
        <time>2021-08-16T19:29:43Z</time>
      </trkpt>
      <trkpt lat="44.78005" lon="1.61488">
        <ele>196.25</ele>
        <time>2021-08-16T19:29:44Z</time>
      </trkpt>
      <trkpt lat="44.78005" lon="1.61487">
        <ele>196.25</ele>
        <time>2021-08-16T19:29:45Z</time>
      </trkpt>
      <trkpt lat="44.78004" lon="1.61485">
        <ele>196.73</ele>
        <time>2021-08-16T19:29:46Z</time>
      </trkpt>
      <trkpt lat="44.78004" lon="1.61483">
        <ele>196.73</ele>
        <time>2021-08-16T19:29:47Z</time>
      </trkpt>
      <trkpt lat="44.78004" lon="1.6148">
        <ele>196.73</ele>
        <time>2021-08-16T19:29:48Z</time>
      </trkpt>
      <trkpt lat="44.78004" lon="1.61479">
        <ele>196.73</ele>
        <time>2021-08-16T19:29:49Z</time>
      </trkpt>
      <trkpt lat="44.78003" lon="1.61477">
        <ele>196.73</ele>
        <time>2021-08-16T19:29:50Z</time>
      </trkpt>
      <trkpt lat="44.78003" lon="1.61475">
        <ele>197.21</ele>
        <time>2021-08-16T19:29:51Z</time>
      </trkpt>
      <trkpt lat="44.78" lon="1.61455">
        <ele>198.17</ele>
        <time>2021-08-16T19:30:01Z</time>
      </trkpt>
      <trkpt lat="44.77997" lon="1.61443">
        <ele>199.13</ele>
        <time>2021-08-16T19:30:09Z</time>
      </trkpt>
      <trkpt lat="44.77991" lon="1.61432">
        <ele>200.57</ele>
        <time>2021-08-16T19:30:20Z</time>
      </trkpt>
      <trkpt lat="44.7799" lon="1.61431">
        <ele>200.57</ele>
        <time>2021-08-16T19:30:21Z</time>
      </trkpt>
      <trkpt lat="44.77982" lon="1.61427">
        <ele>202.01</ele>
        <time>2021-08-16T19:30:29Z</time>
      </trkpt>
      <trkpt lat="44.7798" lon="1.61426">
        <ele>202.01</ele>
        <time>2021-08-16T19:30:30Z</time>
      </trkpt>
      <trkpt lat="44.77979" lon="1.61426">
        <ele>202.01</ele>
        <time>2021-08-16T19:30:31Z</time>
      </trkpt>
      <trkpt lat="44.77969" lon="1.61424">
        <ele>202.49</ele>
        <time>2021-08-16T19:30:40Z</time>
      </trkpt>
      <trkpt lat="44.77966" lon="1.61423">
        <ele>202.98</ele>
        <time>2021-08-16T19:30:47Z</time>
      </trkpt>
      <trkpt lat="44.77961" lon="1.61423">
        <ele>203.46</ele>
        <time>2021-08-16T19:30:51Z</time>
      </trkpt>
      <trkpt lat="44.77958" lon="1.61422">
        <ele>203.46</ele>
        <time>2021-08-16T19:30:54Z</time>
      </trkpt>
      <trkpt lat="44.77946" lon="1.61422">
        <ele>204.9</ele>
        <time>2021-08-16T19:31:02Z</time>
      </trkpt>
      <trkpt lat="44.77943" lon="1.61422">
        <ele>204.9</ele>
        <time>2021-08-16T19:31:04Z</time>
      </trkpt>
      <trkpt lat="44.77942" lon="1.61422">
        <ele>204.9</ele>
        <time>2021-08-16T19:31:05Z</time>
      </trkpt>
      <trkpt lat="44.7794" lon="1.61422">
        <ele>204.9</ele>
        <time>2021-08-16T19:31:06Z</time>
      </trkpt>
      <trkpt lat="44.77939" lon="1.61422">
        <ele>204.9</ele>
        <time>2021-08-16T19:31:07Z</time>
      </trkpt>
      <trkpt lat="44.77937" lon="1.61422">
        <ele>205.38</ele>
        <time>2021-08-16T19:31:08Z</time>
      </trkpt>
      <trkpt lat="44.77936" lon="1.61422">
        <ele>205.38</ele>
        <time>2021-08-16T19:31:09Z</time>
      </trkpt>
      <trkpt lat="44.77934" lon="1.61422">
        <ele>205.38</ele>
        <time>2021-08-16T19:31:10Z</time>
      </trkpt>
      <trkpt lat="44.77933" lon="1.61422">
        <ele>205.86</ele>
        <time>2021-08-16T19:31:11Z</time>
      </trkpt>
      <trkpt lat="44.77931" lon="1.61422">
        <ele>205.86</ele>
        <time>2021-08-16T19:31:12Z</time>
      </trkpt>
      <trkpt lat="44.77922" lon="1.61422">
        <ele>206.34</ele>
        <time>2021-08-16T19:31:18Z</time>
      </trkpt>
      <trkpt lat="44.7792" lon="1.61422">
        <ele>206.34</ele>
        <time>2021-08-16T19:31:19Z</time>
      </trkpt>
      <trkpt lat="44.77918" lon="1.61421">
        <ele>206.34</ele>
        <time>2021-08-16T19:31:20Z</time>
      </trkpt>
      <trkpt lat="44.77917" lon="1.61421">
        <ele>206.34</ele>
        <time>2021-08-16T19:31:21Z</time>
      </trkpt>
      <trkpt lat="44.77915" lon="1.61421">
        <ele>206.82</ele>
        <time>2021-08-16T19:31:22Z</time>
      </trkpt>
      <trkpt lat="44.77913" lon="1.61421">
        <ele>206.82</ele>
        <time>2021-08-16T19:31:23Z</time>
      </trkpt>
      <trkpt lat="44.77911" lon="1.61421">
        <ele>206.82</ele>
        <time>2021-08-16T19:31:24Z</time>
      </trkpt>
      <trkpt lat="44.7791" lon="1.6142">
        <ele>207.3</ele>
        <time>2021-08-16T19:31:25Z</time>
      </trkpt>
      <trkpt lat="44.77898" lon="1.61419">
        <ele>208.26</ele>
        <time>2021-08-16T19:31:34Z</time>
      </trkpt>
      <trkpt lat="44.77892" lon="1.61419">
        <ele>209.22</ele>
        <time>2021-08-16T19:31:40Z</time>
      </trkpt>
      <trkpt lat="44.77886" lon="1.6142">
        <ele>210.19</ele>
        <time>2021-08-16T19:31:49Z</time>
      </trkpt>
      <trkpt lat="44.7788" lon="1.6142">
        <ele>211.63</ele>
        <time>2021-08-16T19:31:56Z</time>
      </trkpt>
      <trkpt lat="44.77876" lon="1.61421">
        <ele>212.11</ele>
        <time>2021-08-16T19:32:02Z</time>
      </trkpt>
      <trkpt lat="44.77869" lon="1.61424">
        <ele>213.55</ele>
        <time>2021-08-16T19:32:11Z</time>
      </trkpt>
      <trkpt lat="44.77862" lon="1.61428">
        <ele>213.55</ele>
        <time>2021-08-16T19:32:16Z</time>
      </trkpt>
      <trkpt lat="44.77858" lon="1.61431">
        <ele>214.03</ele>
        <time>2021-08-16T19:32:22Z</time>
      </trkpt>
      <trkpt lat="44.77853" lon="1.61433">
        <ele>214.51</ele>
        <time>2021-08-16T19:32:26Z</time>
      </trkpt>
      <trkpt lat="44.77852" lon="1.61434">
        <ele>214.51</ele>
        <time>2021-08-16T19:32:27Z</time>
      </trkpt>
      <trkpt lat="44.7785" lon="1.61435">
        <ele>214.51</ele>
        <time>2021-08-16T19:32:28Z</time>
      </trkpt>
      <trkpt lat="44.77849" lon="1.61436">
        <ele>214.51</ele>
        <time>2021-08-16T19:32:29Z</time>
      </trkpt>
      <trkpt lat="44.77848" lon="1.61437">
        <ele>214.51</ele>
        <time>2021-08-16T19:32:30Z</time>
      </trkpt>
      <trkpt lat="44.77847" lon="1.61438">
        <ele>214.51</ele>
        <time>2021-08-16T19:32:31Z</time>
      </trkpt>
      <trkpt lat="44.77845" lon="1.61439">
        <ele>214.99</ele>
        <time>2021-08-16T19:32:32Z</time>
      </trkpt>
      <trkpt lat="44.77844" lon="1.61439">
        <ele>214.99</ele>
        <time>2021-08-16T19:32:33Z</time>
      </trkpt>
      <trkpt lat="44.77833" lon="1.61447">
        <ele>215.95</ele>
        <time>2021-08-16T19:32:41Z</time>
      </trkpt>
      <trkpt lat="44.77831" lon="1.61448">
        <ele>215.95</ele>
        <time>2021-08-16T19:32:42Z</time>
      </trkpt>
      <trkpt lat="44.7783" lon="1.61449">
        <ele>215.95</ele>
        <time>2021-08-16T19:32:43Z</time>
      </trkpt>
      <trkpt lat="44.77829" lon="1.6145">
        <ele>215.95</ele>
        <time>2021-08-16T19:32:44Z</time>
      </trkpt>
      <trkpt lat="44.77827" lon="1.61451">
        <ele>215.95</ele>
        <time>2021-08-16T19:32:45Z</time>
      </trkpt>
      <trkpt lat="44.77826" lon="1.61452">
        <ele>215.95</ele>
        <time>2021-08-16T19:32:46Z</time>
      </trkpt>
      <trkpt lat="44.77825" lon="1.61454">
        <ele>215.95</ele>
        <time>2021-08-16T19:32:47Z</time>
      </trkpt>
      <trkpt lat="44.77815" lon="1.61458">
        <ele>217.4</ele>
        <time>2021-08-16T19:32:54Z</time>
      </trkpt>
      <trkpt lat="44.77814" lon="1.61458">
        <ele>217.4</ele>
        <time>2021-08-16T19:32:55Z</time>
      </trkpt>
      <trkpt lat="44.77812" lon="1.61458">
        <ele>217.88</ele>
        <time>2021-08-16T19:32:56Z</time>
      </trkpt>
      <trkpt lat="44.77803" lon="1.61458">
        <ele>218.36</ele>
        <time>2021-08-16T19:33:04Z</time>
      </trkpt>
      <trkpt lat="44.77795" lon="1.61457">
        <ele>219.8</ele>
        <time>2021-08-16T19:33:12Z</time>
      </trkpt>
      <trkpt lat="44.77787" lon="1.61455">
        <ele>220.28</ele>
        <time>2021-08-16T19:33:21Z</time>
      </trkpt>
      <trkpt lat="44.77781" lon="1.61451">
        <ele>221.24</ele>
        <time>2021-08-16T19:33:29Z</time>
      </trkpt>
      <trkpt lat="44.77773" lon="1.61444">
        <ele>222.68</ele>
        <time>2021-08-16T19:33:39Z</time>
      </trkpt>
      <trkpt lat="44.77764" lon="1.61437">
        <ele>223.64</ele>
        <time>2021-08-16T19:33:49Z</time>
      </trkpt>
      <trkpt lat="44.77755" lon="1.61428">
        <ele>224.61</ele>
        <time>2021-08-16T19:34:00Z</time>
      </trkpt>
      <trkpt lat="44.77752" lon="1.61426">
        <ele>225.09</ele>
        <time>2021-08-16T19:34:04Z</time>
      </trkpt>
      <trkpt lat="44.77747" lon="1.6142">
        <ele>226.05</ele>
        <time>2021-08-16T19:34:13Z</time>
      </trkpt>
      <trkpt lat="44.7774" lon="1.61413">
        <ele>227.49</ele>
        <time>2021-08-16T19:34:22Z</time>
      </trkpt>
      <trkpt lat="44.77734" lon="1.61407">
        <ele>228.93</ele>
        <time>2021-08-16T19:34:32Z</time>
      </trkpt>
      <trkpt lat="44.7773" lon="1.61402">
        <ele>229.89</ele>
        <time>2021-08-16T19:34:40Z</time>
      </trkpt>
      <trkpt lat="44.77726" lon="1.61394">
        <ele>230.85</ele>
        <time>2021-08-16T19:34:49Z</time>
      </trkpt>
      <trkpt lat="44.77722" lon="1.61388">
        <ele>231.81</ele>
        <time>2021-08-16T19:34:58Z</time>
      </trkpt>
      <trkpt lat="44.77719" lon="1.61379">
        <ele>233.26</ele>
        <time>2021-08-16T19:35:07Z</time>
      </trkpt>
      <trkpt lat="44.77716" lon="1.61368">
        <ele>234.22</ele>
        <time>2021-08-16T19:35:17Z</time>
      </trkpt>
      <trkpt lat="44.77714" lon="1.61359">
        <ele>235.18</ele>
        <time>2021-08-16T19:35:26Z</time>
      </trkpt>
      <trkpt lat="44.77712" lon="1.61351">
        <ele>236.62</ele>
        <time>2021-08-16T19:35:35Z</time>
      </trkpt>
      <trkpt lat="44.77709" lon="1.61341">
        <ele>237.58</ele>
        <time>2021-08-16T19:35:44Z</time>
      </trkpt>
      <trkpt lat="44.77707" lon="1.61331">
        <ele>238.54</ele>
        <time>2021-08-16T19:35:53Z</time>
      </trkpt>
      <trkpt lat="44.77704" lon="1.61324">
        <ele>239.51</ele>
        <time>2021-08-16T19:36:01Z</time>
      </trkpt>
      <trkpt lat="44.77698" lon="1.61316">
        <ele>239.99</ele>
        <time>2021-08-16T19:36:10Z</time>
      </trkpt>
      <trkpt lat="44.77695" lon="1.61311">
        <ele>240.95</ele>
        <time>2021-08-16T19:36:17Z</time>
      </trkpt>
      <trkpt lat="44.7769" lon="1.61305">
        <ele>241.91</ele>
        <time>2021-08-16T19:36:23Z</time>
      </trkpt>
      <trkpt lat="44.77684" lon="1.61299">
        <ele>242.87</ele>
        <time>2021-08-16T19:36:30Z</time>
      </trkpt>
      <trkpt lat="44.77677" lon="1.61292">
        <ele>243.35</ele>
        <time>2021-08-16T19:36:37Z</time>
      </trkpt>
      <trkpt lat="44.77671" lon="1.61285">
        <ele>244.79</ele>
        <time>2021-08-16T19:36:44Z</time>
      </trkpt>
      <trkpt lat="44.77667" lon="1.61281">
        <ele>245.27</ele>
        <time>2021-08-16T19:36:50Z</time>
      </trkpt>
      <trkpt lat="44.77661" lon="1.61276">
        <ele>246.23</ele>
        <time>2021-08-16T19:36:59Z</time>
      </trkpt>
      <trkpt lat="44.77651" lon="1.6127">
        <ele>247.68</ele>
        <time>2021-08-16T19:37:09Z</time>
      </trkpt>
      <trkpt lat="44.77642" lon="1.61266">
        <ele>249.12</ele>
        <time>2021-08-16T19:37:20Z</time>
      </trkpt>
      <trkpt lat="44.77634" lon="1.61262">
        <ele>250.08</ele>
        <time>2021-08-16T19:37:31Z</time>
      </trkpt>
      <trkpt lat="44.77626" lon="1.61262">
        <ele>251.04</ele>
        <time>2021-08-16T19:37:40Z</time>
      </trkpt>
      <trkpt lat="44.77621" lon="1.61265">
        <ele>252.48</ele>
        <time>2021-08-16T19:37:48Z</time>
      </trkpt>
      <trkpt lat="44.77615" lon="1.61267">
        <ele>253.44</ele>
        <time>2021-08-16T19:37:55Z</time>
      </trkpt>
      <trkpt lat="44.77605" lon="1.61266">
        <ele>254.89</ele>
        <time>2021-08-16T19:38:05Z</time>
      </trkpt>
      <trkpt lat="44.77599" lon="1.61267">
        <ele>255.37</ele>
        <time>2021-08-16T19:38:12Z</time>
      </trkpt>
      <trkpt lat="44.7759" lon="1.61274">
        <ele>256.33</ele>
        <time>2021-08-16T19:38:21Z</time>
      </trkpt>
      <trkpt lat="44.77589" lon="1.61274">
        <ele>256.33</ele>
        <time>2021-08-16T19:38:22Z</time>
      </trkpt>
      <trkpt lat="44.77583" lon="1.61273">
        <ele>256.81</ele>
        <time>2021-08-16T19:38:29Z</time>
      </trkpt>
      <trkpt lat="44.7758" lon="1.61274">
        <ele>256.81</ele>
        <time>2021-08-16T19:38:35Z</time>
      </trkpt>
      <trkpt lat="44.77567" lon="1.61272">
        <ele>257.77</ele>
        <time>2021-08-16T19:38:44Z</time>
      </trkpt>
      <trkpt lat="44.7755" lon="1.61274">
        <ele>259.21</ele>
        <time>2021-08-16T19:38:54Z</time>
      </trkpt>
      <trkpt lat="44.77531" lon="1.61277">
        <ele>260.17</ele>
        <time>2021-08-16T19:39:05Z</time>
      </trkpt>
      <trkpt lat="44.77516" lon="1.61281">
        <ele>261.14</ele>
        <time>2021-08-16T19:39:14Z</time>
      </trkpt>
      <trkpt lat="44.77514" lon="1.61281">
        <ele>261.14</ele>
        <time>2021-08-16T19:39:15Z</time>
      </trkpt>
      <trkpt lat="44.77512" lon="1.61281">
        <ele>261.14</ele>
        <time>2021-08-16T19:39:16Z</time>
      </trkpt>
      <trkpt lat="44.77493" lon="1.61287">
        <ele>262.58</ele>
        <time>2021-08-16T19:39:28Z</time>
      </trkpt>
      <trkpt lat="44.77486" lon="1.6129">
        <ele>263.06</ele>
        <time>2021-08-16T19:39:33Z</time>
      </trkpt>
      <trkpt lat="44.77484" lon="1.61291">
        <ele>263.06</ele>
        <time>2021-08-16T19:39:34Z</time>
      </trkpt>
      <trkpt lat="44.7747" lon="1.61299">
        <ele>264.02</ele>
        <time>2021-08-16T19:39:44Z</time>
      </trkpt>
      <trkpt lat="44.77451" lon="1.61307">
        <ele>264.98</ele>
        <time>2021-08-16T19:39:54Z</time>
      </trkpt>
      <trkpt lat="44.77437" lon="1.61311">
        <ele>265.46</ele>
        <time>2021-08-16T19:40:02Z</time>
      </trkpt>
      <trkpt lat="44.77435" lon="1.61312">
        <ele>265.46</ele>
        <time>2021-08-16T19:40:03Z</time>
      </trkpt>
      <trkpt lat="44.77433" lon="1.61312">
        <ele>265.46</ele>
        <time>2021-08-16T19:40:04Z</time>
      </trkpt>
      <trkpt lat="44.77431" lon="1.61312">
        <ele>265.46</ele>
        <time>2021-08-16T19:40:05Z</time>
      </trkpt>
      <trkpt lat="44.77429" lon="1.61313">
        <ele>265.94</ele>
        <time>2021-08-16T19:40:06Z</time>
      </trkpt>
      <trkpt lat="44.77427" lon="1.61313">
        <ele>265.94</ele>
        <time>2021-08-16T19:40:07Z</time>
      </trkpt>
      <trkpt lat="44.77425" lon="1.61313">
        <ele>265.94</ele>
        <time>2021-08-16T19:40:08Z</time>
      </trkpt>
      <trkpt lat="44.77402" lon="1.61317">
        <ele>266.42</ele>
        <time>2021-08-16T19:40:19Z</time>
      </trkpt>
      <trkpt lat="44.77372" lon="1.6132">
        <ele>267.38</ele>
        <time>2021-08-16T19:40:32Z</time>
      </trkpt>
      <trkpt lat="44.77354" lon="1.61321">
        <ele>268.35</ele>
        <time>2021-08-16T19:40:40Z</time>
      </trkpt>
      <trkpt lat="44.77332" lon="1.61319">
        <ele>268.83</ele>
        <time>2021-08-16T19:40:49Z</time>
      </trkpt>
      <trkpt lat="44.77317" lon="1.61316">
        <ele>268.83</ele>
        <time>2021-08-16T19:40:55Z</time>
      </trkpt>
      <trkpt lat="44.77295" lon="1.6131">
        <ele>269.31</ele>
        <time>2021-08-16T19:41:03Z</time>
      </trkpt>
      <trkpt lat="44.77272" lon="1.61303">
        <ele>269.79</ele>
        <time>2021-08-16T19:41:11Z</time>
      </trkpt>
      <trkpt lat="44.77247" lon="1.61297">
        <ele>269.79</ele>
        <time>2021-08-16T19:41:19Z</time>
      </trkpt>
      <trkpt lat="44.7722" lon="1.6129">
        <ele>270.27</ele>
        <time>2021-08-16T19:41:28Z</time>
      </trkpt>
      <trkpt lat="44.77189" lon="1.61281">
        <ele>270.75</ele>
        <time>2021-08-16T19:41:38Z</time>
      </trkpt>
      <trkpt lat="44.77163" lon="1.61271">
        <ele>271.71</ele>
        <time>2021-08-16T19:41:48Z</time>
      </trkpt>
      <trkpt lat="44.77147" lon="1.61264">
        <ele>272.19</ele>
        <time>2021-08-16T19:41:54Z</time>
      </trkpt>
      <trkpt lat="44.77134" lon="1.61255">
        <ele>272.67</ele>
        <time>2021-08-16T19:42:01Z</time>
      </trkpt>
      <trkpt lat="44.77121" lon="1.61245">
        <ele>274.11</ele>
        <time>2021-08-16T19:42:09Z</time>
      </trkpt>
      <trkpt lat="44.77098" lon="1.61241">
        <ele>275.07</ele>
        <time>2021-08-16T19:42:20Z</time>
      </trkpt>
      <trkpt lat="44.77078" lon="1.61241">
        <ele>276.52</ele>
        <time>2021-08-16T19:42:30Z</time>
      </trkpt>
      <trkpt lat="44.77063" lon="1.6124">
        <ele>277.48</ele>
        <time>2021-08-16T19:42:36Z</time>
      </trkpt>
      <trkpt lat="44.77046" lon="1.61237">
        <ele>277.96</ele>
        <time>2021-08-16T19:42:44Z</time>
      </trkpt>
      <trkpt lat="44.77028" lon="1.61235">
        <ele>278.92</ele>
        <time>2021-08-16T19:42:53Z</time>
      </trkpt>
      <trkpt lat="44.77005" lon="1.61231">
        <ele>278.92</ele>
        <time>2021-08-16T19:43:03Z</time>
      </trkpt>
      <trkpt lat="44.76985" lon="1.6123">
        <ele>279.88</ele>
        <time>2021-08-16T19:43:12Z</time>
      </trkpt>
      <trkpt lat="44.76961" lon="1.6123">
        <ele>280.84</ele>
        <time>2021-08-16T19:43:22Z</time>
      </trkpt>
      <trkpt lat="44.76939" lon="1.6123">
        <ele>281.8</ele>
        <time>2021-08-16T19:43:31Z</time>
      </trkpt>
      <trkpt lat="44.76912" lon="1.61232">
        <ele>282.28</ele>
        <time>2021-08-16T19:43:42Z</time>
      </trkpt>
      <trkpt lat="44.76887" lon="1.61234">
        <ele>283.73</ele>
        <time>2021-08-16T19:43:52Z</time>
      </trkpt>
      <trkpt lat="44.76867" lon="1.61236">
        <ele>283.73</ele>
        <time>2021-08-16T19:44:00Z</time>
      </trkpt>
      <trkpt lat="44.76844" lon="1.6124">
        <ele>283.73</ele>
        <time>2021-08-16T19:44:08Z</time>
      </trkpt>
      <trkpt lat="44.76822" lon="1.61231">
        <ele>283.73</ele>
        <time>2021-08-16T19:44:15Z</time>
      </trkpt>
      <trkpt lat="44.76787" lon="1.6122">
        <ele>281.32</ele>
        <time>2021-08-16T19:44:24Z</time>
      </trkpt>
      <trkpt lat="44.76739" lon="1.61211">
        <ele>279.4</ele>
        <time>2021-08-16T19:44:34Z</time>
      </trkpt>
      <trkpt lat="44.76705" lon="1.6119">
        <ele>278.92</ele>
        <time>2021-08-16T19:44:41Z</time>
      </trkpt>
      <trkpt lat="44.76684" lon="1.61171">
        <ele>281.32</ele>
        <time>2021-08-16T19:44:48Z</time>
      </trkpt>
      <trkpt lat="44.76665" lon="1.61156">
        <ele>282.28</ele>
        <time>2021-08-16T19:44:56Z</time>
      </trkpt>
      <trkpt lat="44.76648" lon="1.61142">
        <ele>282.77</ele>
        <time>2021-08-16T19:45:03Z</time>
      </trkpt>
      <trkpt lat="44.76627" lon="1.61116">
        <ele>282.77</ele>
        <time>2021-08-16T19:45:11Z</time>
      </trkpt>
      <trkpt lat="44.76611" lon="1.61096">
        <ele>283.25</ele>
        <time>2021-08-16T19:45:18Z</time>
      </trkpt>
      <trkpt lat="44.76579" lon="1.61061">
        <ele>283.25</ele>
        <time>2021-08-16T19:45:30Z</time>
      </trkpt>
      <trkpt lat="44.7656" lon="1.61034">
        <ele>283.25</ele>
        <time>2021-08-16T19:45:38Z</time>
      </trkpt>
      <trkpt lat="44.76535" lon="1.61019">
        <ele>284.21</ele>
        <time>2021-08-16T19:45:46Z</time>
      </trkpt>
      <trkpt lat="44.76501" lon="1.61014">
        <ele>284.21</ele>
        <time>2021-08-16T19:45:55Z</time>
      </trkpt>
      <trkpt lat="44.76481" lon="1.61006">
        <ele>284.21</ele>
        <time>2021-08-16T19:46:01Z</time>
      </trkpt>
      <trkpt lat="44.76479" lon="1.61003">
        <ele>284.21</ele>
        <time>2021-08-16T19:46:02Z</time>
      </trkpt>
      <trkpt lat="44.7648" lon="1.61001">
        <ele>284.21</ele>
        <time>2021-08-16T19:46:03Z</time>
      </trkpt>
      <trkpt lat="44.76479" lon="1.60998">
        <ele>284.21</ele>
        <time>2021-08-16T19:46:04Z</time>
      </trkpt>
      <trkpt lat="44.76478" lon="1.60997">
        <ele>284.21</ele>
        <time>2021-08-16T19:46:05Z</time>
      </trkpt>
      <trkpt lat="44.76477" lon="1.60999">
        <ele>284.21</ele>
        <time>2021-08-16T19:46:06Z</time>
      </trkpt>
      <trkpt lat="44.76477" lon="1.61">
        <ele>284.21</ele>
        <time>2021-08-16T19:46:07Z</time>
      </trkpt>
      <trkpt lat="44.76477" lon="1.61003">
        <ele>284.21</ele>
        <time>2021-08-16T19:46:08Z</time>
      </trkpt>
      <trkpt lat="44.76477" lon="1.61005">
        <ele>284.21</ele>
        <time>2021-08-16T19:46:09Z</time>
      </trkpt>
      <trkpt lat="44.76476" lon="1.61007">
        <ele>284.21</ele>
        <time>2021-08-16T19:46:10Z</time>
      </trkpt>
      <trkpt lat="44.76474" lon="1.61009">
        <ele>284.21</ele>
        <time>2021-08-16T19:46:11Z</time>
      </trkpt>
      <trkpt lat="44.76472" lon="1.6101">
        <ele>284.21</ele>
        <time>2021-08-16T19:46:12Z</time>
      </trkpt>
      <trkpt lat="44.7647" lon="1.6101">
        <ele>284.21</ele>
        <time>2021-08-16T19:46:13Z</time>
      </trkpt>
      <trkpt lat="44.76467" lon="1.6101">
        <ele>284.21</ele>
        <time>2021-08-16T19:46:14Z</time>
      </trkpt>
      <trkpt lat="44.76445" lon="1.61002">
        <ele>285.17</ele>
        <time>2021-08-16T19:46:23Z</time>
      </trkpt>
      <trkpt lat="44.76419" lon="1.60985">
        <ele>285.17</ele>
        <time>2021-08-16T19:46:33Z</time>
      </trkpt>
      <trkpt lat="44.76402" lon="1.60969">
        <ele>286.13</ele>
        <time>2021-08-16T19:46:40Z</time>
      </trkpt>
      <trkpt lat="44.7638" lon="1.60947">
        <ele>286.13</ele>
        <time>2021-08-16T19:46:48Z</time>
      </trkpt>
      <trkpt lat="44.76378" lon="1.60943">
        <ele>286.13</ele>
        <time>2021-08-16T19:46:49Z</time>
      </trkpt>
      <trkpt lat="44.76351" lon="1.60911">
        <ele>285.65</ele>
        <time>2021-08-16T19:46:58Z</time>
      </trkpt>
      <trkpt lat="44.76322" lon="1.60874">
        <ele>284.69</ele>
        <time>2021-08-16T19:47:07Z</time>
      </trkpt>
      <trkpt lat="44.76297" lon="1.60835">
        <ele>284.21</ele>
        <time>2021-08-16T19:47:15Z</time>
      </trkpt>
      <trkpt lat="44.76282" lon="1.60809">
        <ele>285.65</ele>
        <time>2021-08-16T19:47:22Z</time>
      </trkpt>
      <trkpt lat="44.76263" lon="1.60792">
        <ele>286.61</ele>
        <time>2021-08-16T19:47:29Z</time>
      </trkpt>
      <trkpt lat="44.7626" lon="1.60775">
        <ele>287.09</ele>
        <time>2021-08-16T19:47:34Z</time>
      </trkpt>
      <trkpt lat="44.76267" lon="1.60739">
        <ele>285.65</ele>
        <time>2021-08-16T19:47:41Z</time>
      </trkpt>
      <trkpt lat="44.76272" lon="1.60709">
        <ele>284.69</ele>
        <time>2021-08-16T19:47:46Z</time>
      </trkpt>
      <trkpt lat="44.76273" lon="1.60679">
        <ele>283.25</ele>
        <time>2021-08-16T19:47:50Z</time>
      </trkpt>
      <trkpt lat="44.76272" lon="1.60671">
        <ele>283.25</ele>
        <time>2021-08-16T19:47:51Z</time>
      </trkpt>
      <trkpt lat="44.76271" lon="1.60664">
        <ele>283.25</ele>
        <time>2021-08-16T19:47:52Z</time>
      </trkpt>
      <trkpt lat="44.76251" lon="1.60588">
        <ele>281.32</ele>
        <time>2021-08-16T19:48:02Z</time>
      </trkpt>
      <trkpt lat="44.76243" lon="1.60562">
        <ele>279.88</ele>
        <time>2021-08-16T19:48:05Z</time>
      </trkpt>
      <trkpt lat="44.76227" lon="1.60513">
        <ele>277</ele>
        <time>2021-08-16T19:48:10Z</time>
      </trkpt>
      <trkpt lat="44.76223" lon="1.60505">
        <ele>277</ele>
        <time>2021-08-16T19:48:11Z</time>
      </trkpt>
      <trkpt lat="44.76206" lon="1.60461">
        <ele>274.11</ele>
        <time>2021-08-16T19:48:16Z</time>
      </trkpt>
      <trkpt lat="44.76205" lon="1.60454">
        <ele>274.11</ele>
        <time>2021-08-16T19:48:17Z</time>
      </trkpt>
      <trkpt lat="44.76206" lon="1.60446">
        <ele>273.63</ele>
        <time>2021-08-16T19:48:18Z</time>
      </trkpt>
      <trkpt lat="44.7621" lon="1.60432">
        <ele>273.63</ele>
        <time>2021-08-16T19:48:20Z</time>
      </trkpt>
      <trkpt lat="44.76218" lon="1.60413">
        <ele>273.63</ele>
        <time>2021-08-16T19:48:23Z</time>
      </trkpt>
      <trkpt lat="44.76221" lon="1.60408">
        <ele>273.63</ele>
        <time>2021-08-16T19:48:24Z</time>
      </trkpt>
      <trkpt lat="44.76225" lon="1.60402">
        <ele>273.63</ele>
        <time>2021-08-16T19:48:25Z</time>
      </trkpt>
      <trkpt lat="44.76265" lon="1.60354">
        <ele>271.71</ele>
        <time>2021-08-16T19:48:35Z</time>
      </trkpt>
      <trkpt lat="44.76301" lon="1.60323">
        <ele>270.75</ele>
        <time>2021-08-16T19:48:43Z</time>
      </trkpt>
      <trkpt lat="44.76329" lon="1.60294">
        <ele>268.35</ele>
        <time>2021-08-16T19:48:49Z</time>
      </trkpt>
      <trkpt lat="44.76349" lon="1.60263">
        <ele>265.46</ele>
        <time>2021-08-16T19:48:53Z</time>
      </trkpt>
      <trkpt lat="44.76355" lon="1.60257">
        <ele>264.98</ele>
        <time>2021-08-16T19:48:54Z</time>
      </trkpt>
      <trkpt lat="44.76361" lon="1.60251">
        <ele>264.98</ele>
        <time>2021-08-16T19:48:55Z</time>
      </trkpt>
      <trkpt lat="44.76367" lon="1.60247">
        <ele>264.02</ele>
        <time>2021-08-16T19:48:56Z</time>
      </trkpt>
      <trkpt lat="44.76373" lon="1.60245">
        <ele>263.06</ele>
        <time>2021-08-16T19:48:57Z</time>
      </trkpt>
      <trkpt lat="44.7638" lon="1.60243">
        <ele>262.58</ele>
        <time>2021-08-16T19:48:58Z</time>
      </trkpt>
      <trkpt lat="44.76385" lon="1.60242">
        <ele>261.62</ele>
        <time>2021-08-16T19:48:59Z</time>
      </trkpt>
      <trkpt lat="44.76396" lon="1.60238">
        <ele>260.17</ele>
        <time>2021-08-16T19:49:01Z</time>
      </trkpt>
      <trkpt lat="44.764" lon="1.60234">
        <ele>259.69</ele>
        <time>2021-08-16T19:49:02Z</time>
      </trkpt>
      <trkpt lat="44.76402" lon="1.60227">
        <ele>258.73</ele>
        <time>2021-08-16T19:49:03Z</time>
      </trkpt>
      <trkpt lat="44.76403" lon="1.6022">
        <ele>257.77</ele>
        <time>2021-08-16T19:49:04Z</time>
      </trkpt>
      <trkpt lat="44.76401" lon="1.60211">
        <ele>256.81</ele>
        <time>2021-08-16T19:49:05Z</time>
      </trkpt>
      <trkpt lat="44.76399" lon="1.60202">
        <ele>255.85</ele>
        <time>2021-08-16T19:49:06Z</time>
      </trkpt>
      <trkpt lat="44.76396" lon="1.60192">
        <ele>255.37</ele>
        <time>2021-08-16T19:49:07Z</time>
      </trkpt>
      <trkpt lat="44.76392" lon="1.60183">
        <ele>254.41</ele>
        <time>2021-08-16T19:49:08Z</time>
      </trkpt>
      <trkpt lat="44.76387" lon="1.60174">
        <ele>252.96</ele>
        <time>2021-08-16T19:49:09Z</time>
      </trkpt>
      <trkpt lat="44.76382" lon="1.60165">
        <ele>252</ele>
        <time>2021-08-16T19:49:10Z</time>
      </trkpt>
      <trkpt lat="44.7637" lon="1.60148">
        <ele>250.56</ele>
        <time>2021-08-16T19:49:12Z</time>
      </trkpt>
      <trkpt lat="44.76364" lon="1.60141">
        <ele>249.6</ele>
        <time>2021-08-16T19:49:13Z</time>
      </trkpt>
      <trkpt lat="44.76344" lon="1.60126">
        <ele>247.2</ele>
        <time>2021-08-16T19:49:16Z</time>
      </trkpt>
      <trkpt lat="44.76338" lon="1.60123">
        <ele>246.23</ele>
        <time>2021-08-16T19:49:17Z</time>
      </trkpt>
      <trkpt lat="44.7633" lon="1.60122">
        <ele>245.27</ele>
        <time>2021-08-16T19:49:18Z</time>
      </trkpt>
      <trkpt lat="44.76323" lon="1.60122">
        <ele>244.31</ele>
        <time>2021-08-16T19:49:19Z</time>
      </trkpt>
      <trkpt lat="44.76314" lon="1.60123">
        <ele>242.87</ele>
        <time>2021-08-16T19:49:20Z</time>
      </trkpt>
      <trkpt lat="44.76287" lon="1.60128">
        <ele>239.02</ele>
        <time>2021-08-16T19:49:23Z</time>
      </trkpt>
      <trkpt lat="44.76256" lon="1.60134">
        <ele>234.22</ele>
        <time>2021-08-16T19:49:26Z</time>
      </trkpt>
      <trkpt lat="44.76236" lon="1.60137">
        <ele>230.85</ele>
        <time>2021-08-16T19:49:28Z</time>
      </trkpt>
      <trkpt lat="44.76206" lon="1.60134">
        <ele>227.49</ele>
        <time>2021-08-16T19:49:31Z</time>
      </trkpt>
      <trkpt lat="44.7618" lon="1.60126">
        <ele>224.12</ele>
        <time>2021-08-16T19:49:34Z</time>
      </trkpt>
      <trkpt lat="44.76172" lon="1.60123">
        <ele>223.16</ele>
        <time>2021-08-16T19:49:35Z</time>
      </trkpt>
      <trkpt lat="44.76165" lon="1.60119">
        <ele>221.72</ele>
        <time>2021-08-16T19:49:36Z</time>
      </trkpt>
      <trkpt lat="44.76159" lon="1.60112">
        <ele>221.24</ele>
        <time>2021-08-16T19:49:37Z</time>
      </trkpt>
      <trkpt lat="44.76154" lon="1.60106">
        <ele>220.28</ele>
        <time>2021-08-16T19:49:38Z</time>
      </trkpt>
      <trkpt lat="44.76148" lon="1.60098">
        <ele>219.32</ele>
        <time>2021-08-16T19:49:39Z</time>
      </trkpt>
      <trkpt lat="44.76123" lon="1.6006">
        <ele>215.95</ele>
        <time>2021-08-16T19:49:43Z</time>
      </trkpt>
      <trkpt lat="44.76098" lon="1.60015">
        <ele>212.59</ele>
        <time>2021-08-16T19:49:48Z</time>
      </trkpt>
      <trkpt lat="44.76093" lon="1.6">
        <ele>211.63</ele>
        <time>2021-08-16T19:49:50Z</time>
      </trkpt>
      <trkpt lat="44.76088" lon="1.59962">
        <ele>209.7</ele>
        <time>2021-08-16T19:49:54Z</time>
      </trkpt>
      <trkpt lat="44.76088" lon="1.59952">
        <ele>208.74</ele>
        <time>2021-08-16T19:49:55Z</time>
      </trkpt>
      <trkpt lat="44.76089" lon="1.59942">
        <ele>208.74</ele>
        <time>2021-08-16T19:49:56Z</time>
      </trkpt>
      <trkpt lat="44.76094" lon="1.59899">
        <ele>204.9</ele>
        <time>2021-08-16T19:50:00Z</time>
      </trkpt>
      <trkpt lat="44.76094" lon="1.59887">
        <ele>203.46</ele>
        <time>2021-08-16T19:50:01Z</time>
      </trkpt>
      <trkpt lat="44.76094" lon="1.59877">
        <ele>202.49</ele>
        <time>2021-08-16T19:50:02Z</time>
      </trkpt>
      <trkpt lat="44.76092" lon="1.59865">
        <ele>202.01</ele>
        <time>2021-08-16T19:50:03Z</time>
      </trkpt>
      <trkpt lat="44.76087" lon="1.59828">
        <ele>197.69</ele>
        <time>2021-08-16T19:50:06Z</time>
      </trkpt>
      <trkpt lat="44.76082" lon="1.59794">
        <ele>195.28</ele>
        <time>2021-08-16T19:50:09Z</time>
      </trkpt>
      <trkpt lat="44.76082" lon="1.59784">
        <ele>195.28</ele>
        <time>2021-08-16T19:50:10Z</time>
      </trkpt>
      <trkpt lat="44.76084" lon="1.59776">
        <ele>194.32</ele>
        <time>2021-08-16T19:50:11Z</time>
      </trkpt>
      <trkpt lat="44.76092" lon="1.59736">
        <ele>191.44</ele>
        <time>2021-08-16T19:50:15Z</time>
      </trkpt>
      <trkpt lat="44.76097" lon="1.59708">
        <ele>188.56</ele>
        <time>2021-08-16T19:50:18Z</time>
      </trkpt>
      <trkpt lat="44.76098" lon="1.597">
        <ele>187.59</ele>
        <time>2021-08-16T19:50:19Z</time>
      </trkpt>
      <trkpt lat="44.76097" lon="1.59694">
        <ele>186.63</ele>
        <time>2021-08-16T19:50:20Z</time>
      </trkpt>
      <trkpt lat="44.76095" lon="1.59689">
        <ele>185.67</ele>
        <time>2021-08-16T19:50:21Z</time>
      </trkpt>
      <trkpt lat="44.76091" lon="1.59684">
        <ele>185.67</ele>
        <time>2021-08-16T19:50:22Z</time>
      </trkpt>
      <trkpt lat="44.76086" lon="1.59681">
        <ele>184.71</ele>
        <time>2021-08-16T19:50:23Z</time>
      </trkpt>
      <trkpt lat="44.76081" lon="1.59677">
        <ele>184.23</ele>
        <time>2021-08-16T19:50:24Z</time>
      </trkpt>
      <trkpt lat="44.76076" lon="1.59672">
        <ele>184.23</ele>
        <time>2021-08-16T19:50:25Z</time>
      </trkpt>
      <trkpt lat="44.76061" lon="1.59658">
        <ele>183.27</ele>
        <time>2021-08-16T19:50:28Z</time>
      </trkpt>
      <trkpt lat="44.76057" lon="1.59654">
        <ele>183.27</ele>
        <time>2021-08-16T19:50:29Z</time>
      </trkpt>
      <trkpt lat="44.76053" lon="1.59651">
        <ele>183.27</ele>
        <time>2021-08-16T19:50:30Z</time>
      </trkpt>
      <trkpt lat="44.76049" lon="1.5965">
        <ele>183.27</ele>
        <time>2021-08-16T19:50:31Z</time>
      </trkpt>
      <trkpt lat="44.76045" lon="1.59653">
        <ele>183.27</ele>
        <time>2021-08-16T19:50:32Z</time>
      </trkpt>
      <trkpt lat="44.76042" lon="1.59657">
        <ele>183.27</ele>
        <time>2021-08-16T19:50:33Z</time>
      </trkpt>
      <trkpt lat="44.7604" lon="1.59662">
        <ele>183.27</ele>
        <time>2021-08-16T19:50:34Z</time>
      </trkpt>
      <trkpt lat="44.76038" lon="1.59666">
        <ele>183.27</ele>
        <time>2021-08-16T19:50:35Z</time>
      </trkpt>
      <trkpt lat="44.76036" lon="1.59671">
        <ele>183.27</ele>
        <time>2021-08-16T19:50:36Z</time>
      </trkpt>
      <trkpt lat="44.76025" lon="1.59695">
        <ele>183.27</ele>
        <time>2021-08-16T19:50:41Z</time>
      </trkpt>
      <trkpt lat="44.76002" lon="1.59736">
        <ele>183.27</ele>
        <time>2021-08-16T19:50:50Z</time>
      </trkpt>
      <trkpt lat="44.75996" lon="1.59744">
        <ele>183.27</ele>
        <time>2021-08-16T19:50:52Z</time>
      </trkpt>
      <trkpt lat="44.75972" lon="1.59773">
        <ele>183.27</ele>
        <time>2021-08-16T19:51:00Z</time>
      </trkpt>
      <trkpt lat="44.75956" lon="1.598">
        <ele>184.71</ele>
        <time>2021-08-16T19:51:07Z</time>
      </trkpt>
      <trkpt lat="44.7593" lon="1.59847">
        <ele>185.67</ele>
        <time>2021-08-16T19:51:19Z</time>
      </trkpt>
      <trkpt lat="44.75915" lon="1.59877">
        <ele>185.67</ele>
        <time>2021-08-16T19:51:27Z</time>
      </trkpt>
      <trkpt lat="44.75901" lon="1.59909">
        <ele>186.15</ele>
        <time>2021-08-16T19:51:35Z</time>
      </trkpt>
      <trkpt lat="44.75887" lon="1.59947">
        <ele>186.63</ele>
        <time>2021-08-16T19:51:44Z</time>
      </trkpt>
      <trkpt lat="44.75876" lon="1.59978">
        <ele>186.63</ele>
        <time>2021-08-16T19:51:51Z</time>
      </trkpt>
      <trkpt lat="44.75868" lon="1.59999">
        <ele>187.11</ele>
        <time>2021-08-16T19:51:56Z</time>
      </trkpt>
      <trkpt lat="44.7586" lon="1.60031">
        <ele>187.11</ele>
        <time>2021-08-16T19:52:03Z</time>
      </trkpt>
      <trkpt lat="44.75856" lon="1.60074">
        <ele>187.59</ele>
        <time>2021-08-16T19:52:12Z</time>
      </trkpt>
      <trkpt lat="44.75857" lon="1.60117">
        <ele>188.08</ele>
        <time>2021-08-16T19:52:21Z</time>
      </trkpt>
      <trkpt lat="44.75858" lon="1.60167">
        <ele>188.56</ele>
        <time>2021-08-16T19:52:32Z</time>
      </trkpt>
      <trkpt lat="44.75856" lon="1.602">
        <ele>189.04</ele>
        <time>2021-08-16T19:52:39Z</time>
      </trkpt>
      <trkpt lat="44.75854" lon="1.60239">
        <ele>189.52</ele>
        <time>2021-08-16T19:52:48Z</time>
      </trkpt>
      <trkpt lat="44.75848" lon="1.60281">
        <ele>190</ele>
        <time>2021-08-16T19:52:58Z</time>
      </trkpt>
      <trkpt lat="44.75833" lon="1.60318">
        <ele>190</ele>
        <time>2021-08-16T19:53:07Z</time>
      </trkpt>
      <trkpt lat="44.75807" lon="1.60352">
        <ele>190</ele>
        <time>2021-08-16T19:53:17Z</time>
      </trkpt>
      <trkpt lat="44.75781" lon="1.60374">
        <ele>190.48</ele>
        <time>2021-08-16T19:53:26Z</time>
      </trkpt>
      <trkpt lat="44.75749" lon="1.60389">
        <ele>190.96</ele>
        <time>2021-08-16T19:53:36Z</time>
      </trkpt>
      <trkpt lat="44.75721" lon="1.60395">
        <ele>191.44</ele>
        <time>2021-08-16T19:53:44Z</time>
      </trkpt>
      <trkpt lat="44.75683" lon="1.60402">
        <ele>191.44</ele>
        <time>2021-08-16T19:53:54Z</time>
      </trkpt>
      <trkpt lat="44.75649" lon="1.60407">
        <ele>191.44</ele>
        <time>2021-08-16T19:54:03Z</time>
      </trkpt>
      <trkpt lat="44.75616" lon="1.60413">
        <ele>192.88</ele>
        <time>2021-08-16T19:54:12Z</time>
      </trkpt>
      <trkpt lat="44.75584" lon="1.60423">
        <ele>193.84</ele>
        <time>2021-08-16T19:54:22Z</time>
      </trkpt>
      <trkpt lat="44.75563" lon="1.60431">
        <ele>194.32</ele>
        <time>2021-08-16T19:54:30Z</time>
      </trkpt>
      <trkpt lat="44.75551" lon="1.60424">
        <ele>194.8</ele>
        <time>2021-08-16T19:54:35Z</time>
      </trkpt>
      <trkpt lat="44.7555" lon="1.6042">
        <ele>194.8</ele>
        <time>2021-08-16T19:54:36Z</time>
      </trkpt>
      <trkpt lat="44.7555" lon="1.60415">
        <ele>194.8</ele>
        <time>2021-08-16T19:54:37Z</time>
      </trkpt>
      <trkpt lat="44.7555" lon="1.6041">
        <ele>194.8</ele>
        <time>2021-08-16T19:54:38Z</time>
      </trkpt>
      <trkpt lat="44.7555" lon="1.60406">
        <ele>194.8</ele>
        <time>2021-08-16T19:54:39Z</time>
      </trkpt>
      <trkpt lat="44.75551" lon="1.60403">
        <ele>194.8</ele>
        <time>2021-08-16T19:54:40Z</time>
      </trkpt>
      <trkpt lat="44.75551" lon="1.60399">
        <ele>194.8</ele>
        <time>2021-08-16T19:54:41Z</time>
      </trkpt>
      <trkpt lat="44.75553" lon="1.60372">
        <ele>194.8</ele>
        <time>2021-08-16T19:54:47Z</time>
      </trkpt>
      <trkpt lat="44.75543" lon="1.60342">
        <ele>193.84</ele>
        <time>2021-08-16T19:54:53Z</time>
      </trkpt>
      <trkpt lat="44.75528" lon="1.60313">
        <ele>193.84</ele>
        <time>2021-08-16T19:55:00Z</time>
      </trkpt>
      <trkpt lat="44.75528" lon="1.60295">
        <ele>193.84</ele>
        <time>2021-08-16T19:55:04Z</time>
      </trkpt>
      <trkpt lat="44.7553" lon="1.60291">
        <ele>193.84</ele>
        <time>2021-08-16T19:55:05Z</time>
      </trkpt>
      <trkpt lat="44.75532" lon="1.60288">
        <ele>193.84</ele>
        <time>2021-08-16T19:55:06Z</time>
      </trkpt>
      <trkpt lat="44.75534" lon="1.60285">
        <ele>193.84</ele>
        <time>2021-08-16T19:55:07Z</time>
      </trkpt>
      <trkpt lat="44.75537" lon="1.60282">
        <ele>193.84</ele>
        <time>2021-08-16T19:55:08Z</time>
      </trkpt>
      <trkpt lat="44.75539" lon="1.60279">
        <ele>193.84</ele>
        <time>2021-08-16T19:55:09Z</time>
      </trkpt>
      <trkpt lat="44.75542" lon="1.60275">
        <ele>193.84</ele>
        <time>2021-08-16T19:55:10Z</time>
      </trkpt>
      <trkpt lat="44.75544" lon="1.60271">
        <ele>193.84</ele>
        <time>2021-08-16T19:55:11Z</time>
      </trkpt>
      <trkpt lat="44.75546" lon="1.60267">
        <ele>193.84</ele>
        <time>2021-08-16T19:55:12Z</time>
      </trkpt>
      <trkpt lat="44.75548" lon="1.60262">
        <ele>193.84</ele>
        <time>2021-08-16T19:55:13Z</time>
      </trkpt>
      <trkpt lat="44.75549" lon="1.60257">
        <ele>193.84</ele>
        <time>2021-08-16T19:55:14Z</time>
      </trkpt>
      <trkpt lat="44.7555" lon="1.60252">
        <ele>193.84</ele>
        <time>2021-08-16T19:55:15Z</time>
      </trkpt>
      <trkpt lat="44.7555" lon="1.60247">
        <ele>193.84</ele>
        <time>2021-08-16T19:55:16Z</time>
      </trkpt>
      <trkpt lat="44.75545" lon="1.60223">
        <ele>193.84</ele>
        <time>2021-08-16T19:55:21Z</time>
      </trkpt>
      <trkpt lat="44.75525" lon="1.60197">
        <ele>193.84</ele>
        <time>2021-08-16T19:55:28Z</time>
      </trkpt>
      <trkpt lat="44.75502" lon="1.60169">
        <ele>195.28</ele>
        <time>2021-08-16T19:55:37Z</time>
      </trkpt>
      <trkpt lat="44.75499" lon="1.60166">
        <ele>195.28</ele>
        <time>2021-08-16T19:55:38Z</time>
      </trkpt>
      <trkpt lat="44.75483" lon="1.60145">
        <ele>197.21</ele>
        <time>2021-08-16T19:55:47Z</time>
      </trkpt>
      <trkpt lat="44.75475" lon="1.60132">
        <ele>198.17</ele>
        <time>2021-08-16T19:55:56Z</time>
      </trkpt>
      <trkpt lat="44.75474" lon="1.6013">
        <ele>198.17</ele>
        <time>2021-08-16T19:55:57Z</time>
      </trkpt>
      <trkpt lat="44.75474" lon="1.60129">
        <ele>198.65</ele>
        <time>2021-08-16T19:55:58Z</time>
      </trkpt>
      <trkpt lat="44.75469" lon="1.6012">
        <ele>199.13</ele>
        <time>2021-08-16T19:56:06Z</time>
      </trkpt>
      <trkpt lat="44.75465" lon="1.60112">
        <ele>200.09</ele>
        <time>2021-08-16T19:56:12Z</time>
      </trkpt>
      <trkpt lat="44.75464" lon="1.60111">
        <ele>200.09</ele>
        <time>2021-08-16T19:56:13Z</time>
      </trkpt>
      <trkpt lat="44.75461" lon="1.60104">
        <ele>200.57</ele>
        <time>2021-08-16T19:56:20Z</time>
      </trkpt>
      <trkpt lat="44.75456" lon="1.60094">
        <ele>201.05</ele>
        <time>2021-08-16T19:56:28Z</time>
      </trkpt>
      <trkpt lat="44.75449" lon="1.60083">
        <ele>202.98</ele>
        <time>2021-08-16T19:56:38Z</time>
      </trkpt>
      <trkpt lat="44.75442" lon="1.60074">
        <ele>203.46</ele>
        <time>2021-08-16T19:56:46Z</time>
      </trkpt>
      <trkpt lat="44.75439" lon="1.60065">
        <ele>204.42</ele>
        <time>2021-08-16T19:56:53Z</time>
      </trkpt>
      <trkpt lat="44.75433" lon="1.60054">
        <ele>205.86</ele>
        <time>2021-08-16T19:57:04Z</time>
      </trkpt>
      <trkpt lat="44.75427" lon="1.60042">
        <ele>207.3</ele>
        <time>2021-08-16T19:57:15Z</time>
      </trkpt>
      <trkpt lat="44.75422" lon="1.60031">
        <ele>208.74</ele>
        <time>2021-08-16T19:57:26Z</time>
      </trkpt>
      <trkpt lat="44.75418" lon="1.60021">
        <ele>210.19</ele>
        <time>2021-08-16T19:57:36Z</time>
      </trkpt>
      <trkpt lat="44.75415" lon="1.60011">
        <ele>211.63</ele>
        <time>2021-08-16T19:57:47Z</time>
      </trkpt>
      <trkpt lat="44.75411" lon="1.60001">
        <ele>213.07</ele>
        <time>2021-08-16T19:57:56Z</time>
      </trkpt>
      <trkpt lat="44.75408" lon="1.5999">
        <ele>214.03</ele>
        <time>2021-08-16T19:58:05Z</time>
      </trkpt>
      <trkpt lat="44.75405" lon="1.5998">
        <ele>214.99</ele>
        <time>2021-08-16T19:58:15Z</time>
      </trkpt>
      <trkpt lat="44.75402" lon="1.5997">
        <ele>215.47</ele>
        <time>2021-08-16T19:58:23Z</time>
      </trkpt>
      <trkpt lat="44.75397" lon="1.59962">
        <ele>216.91</ele>
        <time>2021-08-16T19:58:35Z</time>
      </trkpt>
      <trkpt lat="44.75392" lon="1.59954">
        <ele>218.36</ele>
        <time>2021-08-16T19:58:44Z</time>
      </trkpt>
      <trkpt lat="44.75387" lon="1.59943">
        <ele>219.8</ele>
        <time>2021-08-16T19:58:55Z</time>
      </trkpt>
      <trkpt lat="44.75383" lon="1.59934">
        <ele>221.24</ele>
        <time>2021-08-16T19:59:06Z</time>
      </trkpt>
      <trkpt lat="44.7538" lon="1.59928">
        <ele>222.2</ele>
        <time>2021-08-16T19:59:14Z</time>
      </trkpt>
      <trkpt lat="44.75375" lon="1.59918">
        <ele>223.64</ele>
        <time>2021-08-16T19:59:25Z</time>
      </trkpt>
      <trkpt lat="44.75369" lon="1.59911">
        <ele>225.09</ele>
        <time>2021-08-16T19:59:34Z</time>
      </trkpt>
      <trkpt lat="44.75363" lon="1.59903">
        <ele>226.53</ele>
        <time>2021-08-16T19:59:44Z</time>
      </trkpt>
      <trkpt lat="44.75355" lon="1.59896">
        <ele>227.49</ele>
        <time>2021-08-16T19:59:54Z</time>
      </trkpt>
      <trkpt lat="44.75348" lon="1.59881">
        <ele>227.97</ele>
        <time>2021-08-16T20:00:04Z</time>
      </trkpt>
      <trkpt lat="44.75344" lon="1.59862">
        <ele>228.93</ele>
        <time>2021-08-16T20:00:16Z</time>
      </trkpt>
      <trkpt lat="44.75343" lon="1.59846">
        <ele>230.85</ele>
        <time>2021-08-16T20:00:27Z</time>
      </trkpt>
      <trkpt lat="44.7534" lon="1.59831">
        <ele>231.33</ele>
        <time>2021-08-16T20:00:38Z</time>
      </trkpt>
      <trkpt lat="44.75338" lon="1.5982">
        <ele>233.26</ele>
        <time>2021-08-16T20:00:48Z</time>
      </trkpt>
      <trkpt lat="44.75335" lon="1.59812">
        <ele>233.74</ele>
        <time>2021-08-16T20:00:56Z</time>
      </trkpt>
      <trkpt lat="44.75333" lon="1.59803">
        <ele>235.18</ele>
        <time>2021-08-16T20:01:06Z</time>
      </trkpt>
      <trkpt lat="44.7533" lon="1.59794">
        <ele>236.14</ele>
        <time>2021-08-16T20:01:16Z</time>
      </trkpt>
      <trkpt lat="44.75326" lon="1.59787">
        <ele>237.58</ele>
        <time>2021-08-16T20:01:24Z</time>
      </trkpt>
      <trkpt lat="44.75322" lon="1.59776">
        <ele>238.54</ele>
        <time>2021-08-16T20:01:35Z</time>
      </trkpt>
      <trkpt lat="44.75317" lon="1.59767">
        <ele>239.51</ele>
        <time>2021-08-16T20:01:44Z</time>
      </trkpt>
      <trkpt lat="44.75313" lon="1.59758">
        <ele>240.95</ele>
        <time>2021-08-16T20:01:54Z</time>
      </trkpt>
      <trkpt lat="44.75308" lon="1.5975">
        <ele>242.39</ele>
        <time>2021-08-16T20:02:04Z</time>
      </trkpt>
      <trkpt lat="44.75306" lon="1.59745">
        <ele>242.87</ele>
        <time>2021-08-16T20:02:09Z</time>
      </trkpt>
      <trkpt lat="44.75305" lon="1.59741">
        <ele>243.35</ele>
        <time>2021-08-16T20:02:14Z</time>
      </trkpt>
      <trkpt lat="44.75301" lon="1.5973">
        <ele>244.79</ele>
        <time>2021-08-16T20:02:24Z</time>
      </trkpt>
      <trkpt lat="44.75299" lon="1.59721">
        <ele>245.75</ele>
        <time>2021-08-16T20:02:32Z</time>
      </trkpt>
      <trkpt lat="44.75296" lon="1.59714">
        <ele>246.72</ele>
        <time>2021-08-16T20:02:40Z</time>
      </trkpt>
      <trkpt lat="44.75291" lon="1.59707">
        <ele>247.68</ele>
        <time>2021-08-16T20:02:48Z</time>
      </trkpt>
      <trkpt lat="44.7529" lon="1.59704">
        <ele>248.16</ele>
        <time>2021-08-16T20:02:51Z</time>
      </trkpt>
      <trkpt lat="44.75289" lon="1.59701">
        <ele>248.16</ele>
        <time>2021-08-16T20:02:59Z</time>
      </trkpt>
      <trkpt lat="44.75287" lon="1.59696">
        <ele>248.16</ele>
        <time>2021-08-16T20:03:07Z</time>
      </trkpt>
      <trkpt lat="44.75282" lon="1.59689">
        <ele>249.12</ele>
        <time>2021-08-16T20:03:16Z</time>
      </trkpt>
      <trkpt lat="44.75276" lon="1.59678">
        <ele>251.04</ele>
        <time>2021-08-16T20:03:26Z</time>
      </trkpt>
      <trkpt lat="44.75269" lon="1.59667">
        <ele>252.48</ele>
        <time>2021-08-16T20:03:37Z</time>
      </trkpt>
      <trkpt lat="44.75264" lon="1.59659">
        <ele>252.96</ele>
        <time>2021-08-16T20:03:46Z</time>
      </trkpt>
      <trkpt lat="44.75257" lon="1.59649">
        <ele>254.41</ele>
        <time>2021-08-16T20:03:57Z</time>
      </trkpt>
      <trkpt lat="44.75251" lon="1.59642">
        <ele>255.37</ele>
        <time>2021-08-16T20:04:06Z</time>
      </trkpt>
      <trkpt lat="44.75245" lon="1.59636">
        <ele>256.33</ele>
        <time>2021-08-16T20:04:16Z</time>
      </trkpt>
      <trkpt lat="44.75238" lon="1.5963">
        <ele>257.29</ele>
        <time>2021-08-16T20:04:26Z</time>
      </trkpt>
      <trkpt lat="44.75231" lon="1.59625">
        <ele>258.25</ele>
        <time>2021-08-16T20:04:35Z</time>
      </trkpt>
      <trkpt lat="44.75223" lon="1.59618">
        <ele>259.69</ele>
        <time>2021-08-16T20:04:46Z</time>
      </trkpt>
      <trkpt lat="44.75217" lon="1.59613">
        <ele>260.65</ele>
        <time>2021-08-16T20:04:55Z</time>
      </trkpt>
      <trkpt lat="44.75208" lon="1.59604">
        <ele>262.1</ele>
        <time>2021-08-16T20:05:07Z</time>
      </trkpt>
      <trkpt lat="44.75202" lon="1.59599">
        <ele>263.06</ele>
        <time>2021-08-16T20:05:15Z</time>
      </trkpt>
      <trkpt lat="44.75197" lon="1.59593">
        <ele>264.02</ele>
        <time>2021-08-16T20:05:22Z</time>
      </trkpt>
      <trkpt lat="44.75189" lon="1.59586">
        <ele>264.98</ele>
        <time>2021-08-16T20:05:32Z</time>
      </trkpt>
      <trkpt lat="44.75183" lon="1.5958">
        <ele>265.94</ele>
        <time>2021-08-16T20:05:41Z</time>
      </trkpt>
      <trkpt lat="44.75176" lon="1.59573">
        <ele>266.9</ele>
        <time>2021-08-16T20:05:51Z</time>
      </trkpt>
      <trkpt lat="44.75169" lon="1.59568">
        <ele>267.86</ele>
        <time>2021-08-16T20:06:01Z</time>
      </trkpt>
      <trkpt lat="44.75164" lon="1.59561">
        <ele>269.31</ele>
        <time>2021-08-16T20:06:11Z</time>
      </trkpt>
      <trkpt lat="44.7516" lon="1.5955">
        <ele>270.27</ele>
        <time>2021-08-16T20:06:22Z</time>
      </trkpt>
      <trkpt lat="44.75157" lon="1.59539">
        <ele>271.71</ele>
        <time>2021-08-16T20:06:33Z</time>
      </trkpt>
      <trkpt lat="44.75153" lon="1.59531">
        <ele>272.67</ele>
        <time>2021-08-16T20:06:42Z</time>
      </trkpt>
      <trkpt lat="44.7515" lon="1.59524">
        <ele>273.63</ele>
        <time>2021-08-16T20:06:48Z</time>
      </trkpt>
      <trkpt lat="44.75146" lon="1.59513">
        <ele>274.59</ele>
        <time>2021-08-16T20:06:57Z</time>
      </trkpt>
      <trkpt lat="44.75141" lon="1.59503">
        <ele>275.07</ele>
        <time>2021-08-16T20:07:06Z</time>
      </trkpt>
      <trkpt lat="44.75136" lon="1.59495">
        <ele>276.04</ele>
        <time>2021-08-16T20:07:15Z</time>
      </trkpt>
      <trkpt lat="44.75135" lon="1.59493">
        <ele>276.04</ele>
        <time>2021-08-16T20:07:17Z</time>
      </trkpt>
      <trkpt lat="44.75129" lon="1.59485">
        <ele>277</ele>
        <time>2021-08-16T20:07:25Z</time>
      </trkpt>
      <trkpt lat="44.75122" lon="1.59476">
        <ele>278.44</ele>
        <time>2021-08-16T20:07:35Z</time>
      </trkpt>
      <trkpt lat="44.75117" lon="1.59468">
        <ele>278.92</ele>
        <time>2021-08-16T20:07:43Z</time>
      </trkpt>
      <trkpt lat="44.75111" lon="1.5946">
        <ele>280.36</ele>
        <time>2021-08-16T20:07:52Z</time>
      </trkpt>
      <trkpt lat="44.75104" lon="1.5945">
        <ele>281.32</ele>
        <time>2021-08-16T20:08:04Z</time>
      </trkpt>
      <trkpt lat="44.75096" lon="1.59441">
        <ele>282.28</ele>
        <time>2021-08-16T20:08:15Z</time>
      </trkpt>
      <trkpt lat="44.75089" lon="1.59435">
        <ele>283.25</ele>
        <time>2021-08-16T20:08:25Z</time>
      </trkpt>
      <trkpt lat="44.75082" lon="1.59428">
        <ele>284.21</ele>
        <time>2021-08-16T20:08:35Z</time>
      </trkpt>
      <trkpt lat="44.75077" lon="1.59423">
        <ele>285.17</ele>
        <time>2021-08-16T20:08:43Z</time>
      </trkpt>
      <trkpt lat="44.75072" lon="1.59418">
        <ele>286.13</ele>
        <time>2021-08-16T20:08:52Z</time>
      </trkpt>
      <trkpt lat="44.75066" lon="1.59407">
        <ele>287.57</ele>
        <time>2021-08-16T20:09:01Z</time>
      </trkpt>
      <trkpt lat="44.75063" lon="1.59397">
        <ele>288.53</ele>
        <time>2021-08-16T20:09:11Z</time>
      </trkpt>
      <trkpt lat="44.75058" lon="1.59386">
        <ele>289.49</ele>
        <time>2021-08-16T20:09:21Z</time>
      </trkpt>
      <trkpt lat="44.75055" lon="1.59373">
        <ele>290.94</ele>
        <time>2021-08-16T20:09:32Z</time>
      </trkpt>
      <trkpt lat="44.75051" lon="1.59362">
        <ele>292.38</ele>
        <time>2021-08-16T20:09:42Z</time>
      </trkpt>
      <trkpt lat="44.75041" lon="1.59355">
        <ele>293.82</ele>
        <time>2021-08-16T20:09:55Z</time>
      </trkpt>
      <trkpt lat="44.75033" lon="1.59351">
        <ele>295.26</ele>
        <time>2021-08-16T20:10:05Z</time>
      </trkpt>
      <trkpt lat="44.75024" lon="1.59348">
        <ele>296.22</ele>
        <time>2021-08-16T20:10:15Z</time>
      </trkpt>
      <trkpt lat="44.75015" lon="1.59344">
        <ele>297.18</ele>
        <time>2021-08-16T20:10:25Z</time>
      </trkpt>
      <trkpt lat="44.75006" lon="1.5934">
        <ele>298.15</ele>
        <time>2021-08-16T20:10:35Z</time>
      </trkpt>
      <trkpt lat="44.74997" lon="1.59336">
        <ele>299.11</ele>
        <time>2021-08-16T20:10:46Z</time>
      </trkpt>
      <trkpt lat="44.74989" lon="1.59334">
        <ele>300.07</ele>
        <time>2021-08-16T20:10:54Z</time>
      </trkpt>
      <trkpt lat="44.74976" lon="1.5933">
        <ele>301.03</ele>
        <time>2021-08-16T20:11:07Z</time>
      </trkpt>
      <trkpt lat="44.74968" lon="1.59327">
        <ele>301.51</ele>
        <time>2021-08-16T20:11:17Z</time>
      </trkpt>
      <trkpt lat="44.74964" lon="1.59326">
        <ele>301.51</ele>
        <time>2021-08-16T20:11:26Z</time>
      </trkpt>
      <trkpt lat="44.74961" lon="1.59325">
        <ele>301.99</ele>
        <time>2021-08-16T20:11:28Z</time>
      </trkpt>
      <trkpt lat="44.7496" lon="1.59325">
        <ele>301.99</ele>
        <time>2021-08-16T20:11:29Z</time>
      </trkpt>
      <trkpt lat="44.74958" lon="1.59324">
        <ele>301.99</ele>
        <time>2021-08-16T20:11:30Z</time>
      </trkpt>
      <trkpt lat="44.74946" lon="1.59318">
        <ele>303.43</ele>
        <time>2021-08-16T20:11:38Z</time>
      </trkpt>
      <trkpt lat="44.7494" lon="1.59316">
        <ele>303.91</ele>
        <time>2021-08-16T20:11:42Z</time>
      </trkpt>
      <trkpt lat="44.74938" lon="1.59317">
        <ele>303.91</ele>
        <time>2021-08-16T20:11:43Z</time>
      </trkpt>
      <trkpt lat="44.74937" lon="1.59316">
        <ele>303.91</ele>
        <time>2021-08-16T20:11:44Z</time>
      </trkpt>
      <trkpt lat="44.74922" lon="1.5931">
        <ele>304.88</ele>
        <time>2021-08-16T20:11:53Z</time>
      </trkpt>
      <trkpt lat="44.74908" lon="1.59303">
        <ele>305.84</ele>
        <time>2021-08-16T20:12:02Z</time>
      </trkpt>
      <trkpt lat="44.74894" lon="1.59295">
        <ele>306.32</ele>
        <time>2021-08-16T20:12:12Z</time>
      </trkpt>
      <trkpt lat="44.74883" lon="1.59289">
        <ele>307.28</ele>
        <time>2021-08-16T20:12:20Z</time>
      </trkpt>
      <trkpt lat="44.74868" lon="1.59281">
        <ele>308.72</ele>
        <time>2021-08-16T20:12:31Z</time>
      </trkpt>
      <trkpt lat="44.74854" lon="1.59273">
        <ele>310.16</ele>
        <time>2021-08-16T20:12:40Z</time>
      </trkpt>
      <trkpt lat="44.74843" lon="1.59266">
        <ele>311.12</ele>
        <time>2021-08-16T20:12:49Z</time>
      </trkpt>
      <trkpt lat="44.74829" lon="1.59257">
        <ele>312.57</ele>
        <time>2021-08-16T20:13:00Z</time>
      </trkpt>
      <trkpt lat="44.74817" lon="1.59251">
        <ele>313.05</ele>
        <time>2021-08-16T20:13:09Z</time>
      </trkpt>
      <trkpt lat="44.74804" lon="1.59242">
        <ele>314.01</ele>
        <time>2021-08-16T20:13:19Z</time>
      </trkpt>
      <trkpt lat="44.74803" lon="1.59241">
        <ele>314.49</ele>
        <time>2021-08-16T20:13:20Z</time>
      </trkpt>
      <trkpt lat="44.74802" lon="1.5924">
        <ele>314.49</ele>
        <time>2021-08-16T20:13:21Z</time>
      </trkpt>
      <trkpt lat="44.748" lon="1.59238">
        <ele>314.49</ele>
        <time>2021-08-16T20:13:22Z</time>
      </trkpt>
      <trkpt lat="44.74799" lon="1.59237">
        <ele>314.49</ele>
        <time>2021-08-16T20:13:23Z</time>
      </trkpt>
      <trkpt lat="44.74797" lon="1.59236">
        <ele>314.49</ele>
        <time>2021-08-16T20:13:24Z</time>
      </trkpt>
      <trkpt lat="44.74796" lon="1.59235">
        <ele>314.49</ele>
        <time>2021-08-16T20:13:25Z</time>
      </trkpt>
      <trkpt lat="44.74792" lon="1.59232">
        <ele>314.49</ele>
        <time>2021-08-16T20:13:28Z</time>
      </trkpt>
      <trkpt lat="44.74791" lon="1.5923">
        <ele>314.49</ele>
        <time>2021-08-16T20:13:29Z</time>
      </trkpt>
      <trkpt lat="44.74789" lon="1.59229">
        <ele>314.97</ele>
        <time>2021-08-16T20:13:30Z</time>
      </trkpt>
      <trkpt lat="44.74788" lon="1.59228">
        <ele>314.97</ele>
        <time>2021-08-16T20:13:31Z</time>
      </trkpt>
      <trkpt lat="44.74786" lon="1.59226">
        <ele>315.45</ele>
        <time>2021-08-16T20:13:32Z</time>
      </trkpt>
      <trkpt lat="44.74785" lon="1.59225">
        <ele>315.45</ele>
        <time>2021-08-16T20:13:33Z</time>
      </trkpt>
      <trkpt lat="44.74783" lon="1.59224">
        <ele>315.45</ele>
        <time>2021-08-16T20:13:34Z</time>
      </trkpt>
      <trkpt lat="44.74781" lon="1.59223">
        <ele>315.45</ele>
        <time>2021-08-16T20:13:35Z</time>
      </trkpt>
      <trkpt lat="44.7478" lon="1.59222">
        <ele>315.45</ele>
        <time>2021-08-16T20:13:36Z</time>
      </trkpt>
      <trkpt lat="44.74778" lon="1.5922">
        <ele>315.45</ele>
        <time>2021-08-16T20:13:37Z</time>
      </trkpt>
      <trkpt lat="44.74762" lon="1.59201">
        <ele>315.93</ele>
        <time>2021-08-16T20:13:47Z</time>
      </trkpt>
      <trkpt lat="44.74744" lon="1.59178">
        <ele>316.89</ele>
        <time>2021-08-16T20:13:58Z</time>
      </trkpt>
      <trkpt lat="44.74728" lon="1.5916">
        <ele>316.89</ele>
        <time>2021-08-16T20:14:06Z</time>
      </trkpt>
      <trkpt lat="44.7471" lon="1.59128">
        <ele>315.93</ele>
        <time>2021-08-16T20:14:15Z</time>
      </trkpt>
      <trkpt lat="44.74696" lon="1.59103">
        <ele>315.45</ele>
        <time>2021-08-16T20:14:22Z</time>
      </trkpt>
      <trkpt lat="44.74674" lon="1.59065">
        <ele>313.53</ele>
        <time>2021-08-16T20:14:31Z</time>
      </trkpt>
      <trkpt lat="44.74666" lon="1.59049">
        <ele>313.05</ele>
        <time>2021-08-16T20:14:34Z</time>
      </trkpt>
      <trkpt lat="44.74661" lon="1.59037">
        <ele>311.6</ele>
        <time>2021-08-16T20:14:36Z</time>
      </trkpt>
      <trkpt lat="44.7464" lon="1.58987">
        <ele>309.2</ele>
        <time>2021-08-16T20:14:43Z</time>
      </trkpt>
      <trkpt lat="44.74632" lon="1.58972">
        <ele>308.24</ele>
        <time>2021-08-16T20:14:45Z</time>
      </trkpt>
      <trkpt lat="44.74623" lon="1.58957">
        <ele>306.32</ele>
        <time>2021-08-16T20:14:47Z</time>
      </trkpt>
      <trkpt lat="44.74613" lon="1.58943">
        <ele>305.84</ele>
        <time>2021-08-16T20:14:49Z</time>
      </trkpt>
      <trkpt lat="44.74608" lon="1.58937">
        <ele>305.84</ele>
        <time>2021-08-16T20:14:50Z</time>
      </trkpt>
      <trkpt lat="44.74596" lon="1.5893">
        <ele>305.84</ele>
        <time>2021-08-16T20:14:52Z</time>
      </trkpt>
      <trkpt lat="44.74591" lon="1.58928">
        <ele>305.84</ele>
        <time>2021-08-16T20:14:53Z</time>
      </trkpt>
      <trkpt lat="44.74574" lon="1.58923">
        <ele>307.76</ele>
        <time>2021-08-16T20:14:58Z</time>
      </trkpt>
      <trkpt lat="44.74555" lon="1.58919">
        <ele>309.68</ele>
        <time>2021-08-16T20:15:05Z</time>
      </trkpt>
      <trkpt lat="44.74532" lon="1.58916">
        <ele>310.64</ele>
        <time>2021-08-16T20:15:14Z</time>
      </trkpt>
      <trkpt lat="44.7451" lon="1.58914">
        <ele>310.64</ele>
        <time>2021-08-16T20:15:22Z</time>
      </trkpt>
      <trkpt lat="44.74486" lon="1.58908">
        <ele>311.6</ele>
        <time>2021-08-16T20:15:31Z</time>
      </trkpt>
      <trkpt lat="44.74454" lon="1.58897">
        <ele>311.6</ele>
        <time>2021-08-16T20:15:42Z</time>
      </trkpt>
      <trkpt lat="44.74428" lon="1.58887">
        <ele>309.68</ele>
        <time>2021-08-16T20:15:49Z</time>
      </trkpt>
      <trkpt lat="44.74423" lon="1.58885">
        <ele>309.2</ele>
        <time>2021-08-16T20:15:50Z</time>
      </trkpt>
      <trkpt lat="44.74415" lon="1.58883">
        <ele>308.72</ele>
        <time>2021-08-16T20:15:52Z</time>
      </trkpt>
      <trkpt lat="44.7441" lon="1.58881">
        <ele>308.72</ele>
        <time>2021-08-16T20:15:53Z</time>
      </trkpt>
      <trkpt lat="44.74375" lon="1.58865">
        <ele>305.36</ele>
        <time>2021-08-16T20:16:00Z</time>
      </trkpt>
      <trkpt lat="44.7437" lon="1.58862">
        <ele>304.88</ele>
        <time>2021-08-16T20:16:01Z</time>
      </trkpt>
      <trkpt lat="44.74339" lon="1.58846">
        <ele>301.03</ele>
        <time>2021-08-16T20:16:06Z</time>
      </trkpt>
      <trkpt lat="44.74309" lon="1.5883">
        <ele>298.15</ele>
        <time>2021-08-16T20:16:10Z</time>
      </trkpt>
      <trkpt lat="44.74272" lon="1.58807">
        <ele>294.3</ele>
        <time>2021-08-16T20:16:15Z</time>
      </trkpt>
      <trkpt lat="44.74231" lon="1.58782">
        <ele>290.94</ele>
        <time>2021-08-16T20:16:20Z</time>
      </trkpt>
      <trkpt lat="44.74183" lon="1.58745">
        <ele>289.49</ele>
        <time>2021-08-16T20:16:26Z</time>
      </trkpt>
      <trkpt lat="44.74171" lon="1.58735">
        <ele>289.01</ele>
        <time>2021-08-16T20:16:28Z</time>
      </trkpt>
      <trkpt lat="44.74166" lon="1.58733">
        <ele>289.01</ele>
        <time>2021-08-16T20:16:29Z</time>
      </trkpt>
      <trkpt lat="44.74149" lon="1.58728">
        <ele>289.01</ele>
        <time>2021-08-16T20:16:32Z</time>
      </trkpt>
      <trkpt lat="44.74144" lon="1.58727">
        <ele>289.01</ele>
        <time>2021-08-16T20:16:33Z</time>
      </trkpt>
      <trkpt lat="44.74139" lon="1.58726">
        <ele>288.53</ele>
        <time>2021-08-16T20:16:34Z</time>
      </trkpt>
      <trkpt lat="44.74134" lon="1.58724">
        <ele>289.01</ele>
        <time>2021-08-16T20:16:35Z</time>
      </trkpt>
      <trkpt lat="44.7413" lon="1.58723">
        <ele>289.01</ele>
        <time>2021-08-16T20:16:36Z</time>
      </trkpt>
      <trkpt lat="44.74108" lon="1.58718">
        <ele>289.01</ele>
        <time>2021-08-16T20:16:42Z</time>
      </trkpt>
      <trkpt lat="44.74102" lon="1.58717">
        <ele>289.97</ele>
        <time>2021-08-16T20:16:44Z</time>
      </trkpt>
      <trkpt lat="44.7408" lon="1.58709">
        <ele>291.42</ele>
        <time>2021-08-16T20:16:53Z</time>
      </trkpt>
      <trkpt lat="44.74066" lon="1.58705">
        <ele>292.38</ele>
        <time>2021-08-16T20:17:00Z</time>
      </trkpt>
      <trkpt lat="44.74052" lon="1.58702">
        <ele>294.3</ele>
        <time>2021-08-16T20:17:08Z</time>
      </trkpt>
      <trkpt lat="44.7404" lon="1.58703">
        <ele>294.78</ele>
        <time>2021-08-16T20:17:16Z</time>
      </trkpt>
      <trkpt lat="44.74026" lon="1.58708">
        <ele>296.22</ele>
        <time>2021-08-16T20:17:26Z</time>
      </trkpt>
      <trkpt lat="44.74009" lon="1.58718">
        <ele>297.67</ele>
        <time>2021-08-16T20:17:37Z</time>
      </trkpt>
      <trkpt lat="44.73994" lon="1.58729">
        <ele>299.11</ele>
        <time>2021-08-16T20:17:47Z</time>
      </trkpt>
      <trkpt lat="44.73981" lon="1.58739">
        <ele>300.07</ele>
        <time>2021-08-16T20:17:56Z</time>
      </trkpt>
      <trkpt lat="44.73962" lon="1.58749">
        <ele>301.99</ele>
        <time>2021-08-16T20:18:07Z</time>
      </trkpt>
      <trkpt lat="44.73949" lon="1.58753">
        <ele>302.47</ele>
        <time>2021-08-16T20:18:15Z</time>
      </trkpt>
      <trkpt lat="44.73938" lon="1.58752">
        <ele>303.43</ele>
        <time>2021-08-16T20:18:22Z</time>
      </trkpt>
      <trkpt lat="44.73923" lon="1.5875">
        <ele>304.39</ele>
        <time>2021-08-16T20:18:31Z</time>
      </trkpt>
      <trkpt lat="44.7391" lon="1.58748">
        <ele>305.36</ele>
        <time>2021-08-16T20:18:40Z</time>
      </trkpt>
      <trkpt lat="44.73897" lon="1.58746">
        <ele>306.32</ele>
        <time>2021-08-16T20:18:48Z</time>
      </trkpt>
      <trkpt lat="44.73883" lon="1.58744">
        <ele>307.28</ele>
        <time>2021-08-16T20:18:56Z</time>
      </trkpt>
      <trkpt lat="44.73881" lon="1.58743">
        <ele>307.28</ele>
        <time>2021-08-16T20:18:57Z</time>
      </trkpt>
      <trkpt lat="44.73879" lon="1.58743">
        <ele>307.28</ele>
        <time>2021-08-16T20:18:58Z</time>
      </trkpt>
      <trkpt lat="44.73866" lon="1.58743">
        <ele>308.72</ele>
        <time>2021-08-16T20:19:06Z</time>
      </trkpt>
      <trkpt lat="44.73864" lon="1.58744">
        <ele>308.72</ele>
        <time>2021-08-16T20:19:07Z</time>
      </trkpt>
      <trkpt lat="44.73863" lon="1.58744">
        <ele>308.72</ele>
        <time>2021-08-16T20:19:08Z</time>
      </trkpt>
      <trkpt lat="44.73861" lon="1.58745">
        <ele>308.72</ele>
        <time>2021-08-16T20:19:09Z</time>
      </trkpt>
      <trkpt lat="44.7386" lon="1.58745">
        <ele>308.72</ele>
        <time>2021-08-16T20:19:10Z</time>
      </trkpt>
      <trkpt lat="44.73858" lon="1.58746">
        <ele>308.72</ele>
        <time>2021-08-16T20:19:11Z</time>
      </trkpt>
      <trkpt lat="44.73844" lon="1.58753">
        <ele>309.68</ele>
        <time>2021-08-16T20:19:18Z</time>
      </trkpt>
      <trkpt lat="44.73828" lon="1.58763">
        <ele>310.64</ele>
        <time>2021-08-16T20:19:27Z</time>
      </trkpt>
      <trkpt lat="44.73817" lon="1.58769">
        <ele>312.09</ele>
        <time>2021-08-16T20:19:34Z</time>
      </trkpt>
      <trkpt lat="44.73798" lon="1.58778">
        <ele>312.57</ele>
        <time>2021-08-16T20:19:45Z</time>
      </trkpt>
      <trkpt lat="44.73779" lon="1.58786">
        <ele>314.01</ele>
        <time>2021-08-16T20:19:55Z</time>
      </trkpt>
      <trkpt lat="44.73762" lon="1.58794">
        <ele>314.49</ele>
        <time>2021-08-16T20:20:04Z</time>
      </trkpt>
      <trkpt lat="44.73745" lon="1.58802">
        <ele>314.49</ele>
        <time>2021-08-16T20:20:12Z</time>
      </trkpt>
      <trkpt lat="44.73732" lon="1.58808">
        <ele>314.97</ele>
        <time>2021-08-16T20:20:19Z</time>
      </trkpt>
      <trkpt lat="44.73708" lon="1.58821">
        <ele>315.45</ele>
        <time>2021-08-16T20:20:29Z</time>
      </trkpt>
      <trkpt lat="44.7369" lon="1.58836">
        <ele>315.45</ele>
        <time>2021-08-16T20:20:38Z</time>
      </trkpt>
      <trkpt lat="44.73672" lon="1.58852">
        <ele>315.93</ele>
        <time>2021-08-16T20:20:46Z</time>
      </trkpt>
      <trkpt lat="44.73653" lon="1.58873">
        <ele>315.93</ele>
        <time>2021-08-16T20:20:55Z</time>
      </trkpt>
      <trkpt lat="44.73633" lon="1.58896">
        <ele>315.93</ele>
        <time>2021-08-16T20:21:05Z</time>
      </trkpt>
      <trkpt lat="44.73616" lon="1.58914">
        <ele>315.93</ele>
        <time>2021-08-16T20:21:12Z</time>
      </trkpt>
      <trkpt lat="44.73596" lon="1.58932">
        <ele>315.93</ele>
        <time>2021-08-16T20:21:19Z</time>
      </trkpt>
      <trkpt lat="44.73563" lon="1.58963">
        <ele>314.97</ele>
        <time>2021-08-16T20:21:29Z</time>
      </trkpt>
      <trkpt lat="44.73536" lon="1.58994">
        <ele>313.05</ele>
        <time>2021-08-16T20:21:36Z</time>
      </trkpt>
      <trkpt lat="44.73515" lon="1.59031">
        <ele>312.09</ele>
        <time>2021-08-16T20:21:42Z</time>
      </trkpt>
      <trkpt lat="44.73512" lon="1.59038">
        <ele>312.09</ele>
        <time>2021-08-16T20:21:43Z</time>
      </trkpt>
      <trkpt lat="44.73491" lon="1.59086">
        <ele>312.09</ele>
        <time>2021-08-16T20:21:51Z</time>
      </trkpt>
      <trkpt lat="44.7346" lon="1.59133">
        <ele>310.64</ele>
        <time>2021-08-16T20:22:00Z</time>
      </trkpt>
      <trkpt lat="44.73418" lon="1.59181">
        <ele>309.2</ele>
        <time>2021-08-16T20:22:10Z</time>
      </trkpt>
      <trkpt lat="44.73385" lon="1.5922">
        <ele>308.72</ele>
        <time>2021-08-16T20:22:18Z</time>
      </trkpt>
      <trkpt lat="44.73348" lon="1.59257">
        <ele>305.36</ele>
        <time>2021-08-16T20:22:25Z</time>
      </trkpt>
      <trkpt lat="44.73301" lon="1.59304">
        <ele>302.95</ele>
        <time>2021-08-16T20:22:34Z</time>
      </trkpt>
      <trkpt lat="44.73255" lon="1.5936">
        <ele>300.07</ele>
        <time>2021-08-16T20:22:43Z</time>
      </trkpt>
      <trkpt lat="44.73235" lon="1.59393">
        <ele>298.63</ele>
        <time>2021-08-16T20:22:47Z</time>
      </trkpt>
      <trkpt lat="44.7323" lon="1.59401">
        <ele>298.63</ele>
        <time>2021-08-16T20:22:48Z</time>
      </trkpt>
      <trkpt lat="44.7319" lon="1.59471">
        <ele>295.74</ele>
        <time>2021-08-16T20:22:56Z</time>
      </trkpt>
      <trkpt lat="44.7317" lon="1.59499">
        <ele>293.82</ele>
        <time>2021-08-16T20:23:01Z</time>
      </trkpt>
      <trkpt lat="44.73156" lon="1.59519">
        <ele>292.86</ele>
        <time>2021-08-16T20:23:07Z</time>
      </trkpt>
      <trkpt lat="44.73153" lon="1.59523">
        <ele>292.86</ele>
        <time>2021-08-16T20:23:10Z</time>
      </trkpt>
      <trkpt lat="44.73151" lon="1.59522">
        <ele>292.38</ele>
        <time>2021-08-16T20:23:11Z</time>
      </trkpt>
      <trkpt lat="44.7315" lon="1.5952">
        <ele>292.38</ele>
        <time>2021-08-16T20:23:12Z</time>
      </trkpt>
      <trkpt lat="44.73151" lon="1.59517">
        <ele>291.9</ele>
        <time>2021-08-16T20:23:13Z</time>
      </trkpt>
      <trkpt lat="44.73151" lon="1.59513">
        <ele>291.9</ele>
        <time>2021-08-16T20:23:14Z</time>
      </trkpt>
      <trkpt lat="44.73151" lon="1.59509">
        <ele>291.42</ele>
        <time>2021-08-16T20:23:15Z</time>
      </trkpt>
      <trkpt lat="44.7315" lon="1.59505">
        <ele>290.94</ele>
        <time>2021-08-16T20:23:16Z</time>
      </trkpt>
      <trkpt lat="44.7315" lon="1.59501">
        <ele>290.94</ele>
        <time>2021-08-16T20:23:17Z</time>
      </trkpt>
      <trkpt lat="44.73148" lon="1.59498">
        <ele>290.46</ele>
        <time>2021-08-16T20:23:18Z</time>
      </trkpt>
      <trkpt lat="44.73143" lon="1.59472">
        <ele>290.46</ele>
        <time>2021-08-16T20:23:25Z</time>
      </trkpt>
      <trkpt lat="44.73148" lon="1.59452">
        <ele>290.46</ele>
        <time>2021-08-16T20:23:31Z</time>
      </trkpt>
      <trkpt lat="44.7315" lon="1.59428">
        <ele>291.9</ele>
        <time>2021-08-16T20:23:38Z</time>
      </trkpt>
      <trkpt lat="44.73151" lon="1.59399">
        <ele>291.9</ele>
        <time>2021-08-16T20:23:46Z</time>
      </trkpt>
      <trkpt lat="44.73153" lon="1.59376">
        <ele>291.9</ele>
        <time>2021-08-16T20:23:53Z</time>
      </trkpt>
      <trkpt lat="44.73158" lon="1.59347">
        <ele>291.9</ele>
        <time>2021-08-16T20:24:01Z</time>
      </trkpt>
      <trkpt lat="44.73165" lon="1.59319">
        <ele>290.46</ele>
        <time>2021-08-16T20:24:07Z</time>
      </trkpt>
      <trkpt lat="44.73168" lon="1.59289">
        <ele>290.46</ele>
        <time>2021-08-16T20:24:14Z</time>
      </trkpt>
      <trkpt lat="44.73171" lon="1.59257">
        <ele>291.9</ele>
        <time>2021-08-16T20:24:21Z</time>
      </trkpt>
      <trkpt lat="44.73171" lon="1.59253">
        <ele>291.9</ele>
        <time>2021-08-16T20:24:22Z</time>
      </trkpt>
      <trkpt lat="44.73173" lon="1.59234">
        <ele>293.82</ele>
        <time>2021-08-16T20:24:28Z</time>
      </trkpt>
      <trkpt lat="44.73173" lon="1.59212">
        <ele>295.26</ele>
        <time>2021-08-16T20:24:36Z</time>
      </trkpt>
      <trkpt lat="44.73177" lon="1.59191">
        <ele>295.74</ele>
        <time>2021-08-16T20:24:44Z</time>
      </trkpt>
      <trkpt lat="44.73189" lon="1.59164">
        <ele>295.74</ele>
        <time>2021-08-16T20:24:53Z</time>
      </trkpt>
      <trkpt lat="44.73205" lon="1.5913">
        <ele>295.74</ele>
        <time>2021-08-16T20:25:03Z</time>
      </trkpt>
      <trkpt lat="44.73217" lon="1.591">
        <ele>294.3</ele>
        <time>2021-08-16T20:25:11Z</time>
      </trkpt>
      <trkpt lat="44.73222" lon="1.59071">
        <ele>293.82</ele>
        <time>2021-08-16T20:25:19Z</time>
      </trkpt>
      <trkpt lat="44.73225" lon="1.59048">
        <ele>293.34</ele>
        <time>2021-08-16T20:25:25Z</time>
      </trkpt>
      <trkpt lat="44.73222" lon="1.59024">
        <ele>292.86</ele>
        <time>2021-08-16T20:25:32Z</time>
      </trkpt>
      <trkpt lat="44.73222" lon="1.59022">
        <ele>292.86</ele>
        <time>2021-08-16T20:25:40Z</time>
      </trkpt>
      <trkpt lat="44.73222" lon="1.59016">
        <ele>292.86</ele>
        <time>2021-08-16T20:25:48Z</time>
      </trkpt>
      <trkpt lat="44.73221" lon="1.59015">
        <ele>292.86</ele>
        <time>2021-08-16T20:25:54Z</time>
      </trkpt>
      <trkpt lat="44.73219" lon="1.59014">
        <ele>292.86</ele>
        <time>2021-08-16T20:26:12Z</time>
      </trkpt>
      <trkpt lat="44.73218" lon="1.59014">
        <ele>292.86</ele>
        <time>2021-08-16T20:26:13Z</time>
      </trkpt>
      <trkpt lat="44.73217" lon="1.59014">
        <ele>292.86</ele>
        <time>2021-08-16T20:26:14Z</time>
      </trkpt>
      <trkpt lat="44.73214" lon="1.59015">
        <ele>292.86</ele>
        <time>2021-08-16T20:26:20Z</time>
      </trkpt>
      <trkpt lat="44.73209" lon="1.59016">
        <ele>292.86</ele>
        <time>2021-08-16T20:26:25Z</time>
      </trkpt>
      <trkpt lat="44.73203" lon="1.59018">
        <ele>293.82</ele>
        <time>2021-08-16T20:26:29Z</time>
      </trkpt>
      <trkpt lat="44.732" lon="1.59018">
        <ele>293.82</ele>
        <time>2021-08-16T20:26:30Z</time>
      </trkpt>
      <trkpt lat="44.73188" lon="1.59023">
        <ele>295.26</ele>
        <time>2021-08-16T20:26:37Z</time>
      </trkpt>
      <trkpt lat="44.73177" lon="1.5903">
        <ele>295.74</ele>
        <time>2021-08-16T20:26:44Z</time>
      </trkpt>
      <trkpt lat="44.7316" lon="1.5904">
        <ele>296.7</ele>
        <time>2021-08-16T20:26:55Z</time>
      </trkpt>
      <trkpt lat="44.73145" lon="1.59048">
        <ele>298.15</ele>
        <time>2021-08-16T20:27:05Z</time>
      </trkpt>
      <trkpt lat="44.73136" lon="1.59054">
        <ele>299.11</ele>
        <time>2021-08-16T20:27:12Z</time>
      </trkpt>
      <trkpt lat="44.73134" lon="1.59054">
        <ele>299.11</ele>
        <time>2021-08-16T20:27:13Z</time>
      </trkpt>
      <trkpt lat="44.73119" lon="1.59061">
        <ele>299.59</ele>
        <time>2021-08-16T20:27:23Z</time>
      </trkpt>
      <trkpt lat="44.73102" lon="1.59067">
        <ele>301.03</ele>
        <time>2021-08-16T20:27:33Z</time>
      </trkpt>
      <trkpt lat="44.73085" lon="1.59075">
        <ele>301.99</ele>
        <time>2021-08-16T20:27:43Z</time>
      </trkpt>
      <trkpt lat="44.73068" lon="1.59081">
        <ele>303.43</ele>
        <time>2021-08-16T20:27:53Z</time>
      </trkpt>
      <trkpt lat="44.73053" lon="1.59088">
        <ele>304.88</ele>
        <time>2021-08-16T20:28:03Z</time>
      </trkpt>
      <trkpt lat="44.73046" lon="1.59091">
        <ele>305.36</ele>
        <time>2021-08-16T20:28:08Z</time>
      </trkpt>
      <trkpt lat="44.73045" lon="1.59092">
        <ele>305.36</ele>
        <time>2021-08-16T20:28:09Z</time>
      </trkpt>
      <trkpt lat="44.73044" lon="1.59093">
        <ele>305.84</ele>
        <time>2021-08-16T20:28:10Z</time>
      </trkpt>
      <trkpt lat="44.73042" lon="1.59093">
        <ele>305.84</ele>
        <time>2021-08-16T20:28:11Z</time>
      </trkpt>
      <trkpt lat="44.73041" lon="1.59094">
        <ele>305.84</ele>
        <time>2021-08-16T20:28:12Z</time>
      </trkpt>
      <trkpt lat="44.7304" lon="1.59095">
        <ele>305.84</ele>
        <time>2021-08-16T20:28:13Z</time>
      </trkpt>
      <trkpt lat="44.73031" lon="1.591">
        <ele>307.28</ele>
        <time>2021-08-16T20:28:21Z</time>
      </trkpt>
      <trkpt lat="44.73024" lon="1.59103">
        <ele>308.24</ele>
        <time>2021-08-16T20:28:28Z</time>
      </trkpt>
      <trkpt lat="44.73016" lon="1.59107">
        <ele>309.68</ele>
        <time>2021-08-16T20:28:37Z</time>
      </trkpt>
      <trkpt lat="44.73008" lon="1.59109">
        <ele>310.64</ele>
        <time>2021-08-16T20:28:46Z</time>
      </trkpt>
      <trkpt lat="44.72999" lon="1.59112">
        <ele>311.6</ele>
        <time>2021-08-16T20:28:56Z</time>
      </trkpt>
      <trkpt lat="44.7299" lon="1.59115">
        <ele>313.05</ele>
        <time>2021-08-16T20:29:06Z</time>
      </trkpt>
      <trkpt lat="44.72983" lon="1.59118">
        <ele>314.01</ele>
        <time>2021-08-16T20:29:16Z</time>
      </trkpt>
      <trkpt lat="44.72975" lon="1.59121">
        <ele>315.45</ele>
        <time>2021-08-16T20:29:26Z</time>
      </trkpt>
      <trkpt lat="44.72969" lon="1.59123">
        <ele>316.41</ele>
        <time>2021-08-16T20:29:33Z</time>
      </trkpt>
      <trkpt lat="44.7296" lon="1.59127">
        <ele>317.37</ele>
        <time>2021-08-16T20:29:43Z</time>
      </trkpt>
      <trkpt lat="44.72956" lon="1.59128">
        <ele>317.85</ele>
        <time>2021-08-16T20:29:47Z</time>
      </trkpt>
      <trkpt lat="44.72948" lon="1.59133">
        <ele>318.81</ele>
        <time>2021-08-16T20:29:56Z</time>
      </trkpt>
      <trkpt lat="44.72946" lon="1.59134">
        <ele>319.3</ele>
        <time>2021-08-16T20:30:03Z</time>
      </trkpt>
      <trkpt lat="44.72945" lon="1.59135">
        <ele>319.3</ele>
        <time>2021-08-16T20:30:05Z</time>
      </trkpt>
      <trkpt lat="44.72943" lon="1.59135">
        <ele>319.3</ele>
        <time>2021-08-16T20:30:06Z</time>
      </trkpt>
      <trkpt lat="44.72942" lon="1.59135">
        <ele>319.78</ele>
        <time>2021-08-16T20:30:07Z</time>
      </trkpt>
      <trkpt lat="44.72932" lon="1.5914">
        <ele>320.74</ele>
        <time>2021-08-16T20:30:16Z</time>
      </trkpt>
      <trkpt lat="44.72926" lon="1.59143">
        <ele>321.22</ele>
        <time>2021-08-16T20:30:21Z</time>
      </trkpt>
      <trkpt lat="44.72917" lon="1.59149">
        <ele>322.66</ele>
        <time>2021-08-16T20:30:29Z</time>
      </trkpt>
      <trkpt lat="44.72914" lon="1.59151">
        <ele>323.14</ele>
        <time>2021-08-16T20:30:32Z</time>
      </trkpt>
      <trkpt lat="44.72913" lon="1.59152">
        <ele>323.14</ele>
        <time>2021-08-16T20:30:33Z</time>
      </trkpt>
      <trkpt lat="44.72911" lon="1.59152">
        <ele>323.62</ele>
        <time>2021-08-16T20:30:34Z</time>
      </trkpt>
      <trkpt lat="44.7291" lon="1.59153">
        <ele>323.62</ele>
        <time>2021-08-16T20:30:35Z</time>
      </trkpt>
      <trkpt lat="44.72909" lon="1.59153">
        <ele>323.62</ele>
        <time>2021-08-16T20:30:36Z</time>
      </trkpt>
      <trkpt lat="44.729" lon="1.59158">
        <ele>324.58</ele>
        <time>2021-08-16T20:30:44Z</time>
      </trkpt>
      <trkpt lat="44.72899" lon="1.59159">
        <ele>324.58</ele>
        <time>2021-08-16T20:30:45Z</time>
      </trkpt>
      <trkpt lat="44.72898" lon="1.5916">
        <ele>324.58</ele>
        <time>2021-08-16T20:30:46Z</time>
      </trkpt>
      <trkpt lat="44.72896" lon="1.5916">
        <ele>325.06</ele>
        <time>2021-08-16T20:30:47Z</time>
      </trkpt>
      <trkpt lat="44.72895" lon="1.59161">
        <ele>325.06</ele>
        <time>2021-08-16T20:30:48Z</time>
      </trkpt>
      <trkpt lat="44.72894" lon="1.59161">
        <ele>325.54</ele>
        <time>2021-08-16T20:30:49Z</time>
      </trkpt>
      <trkpt lat="44.72893" lon="1.59161">
        <ele>325.54</ele>
        <time>2021-08-16T20:30:50Z</time>
      </trkpt>
      <trkpt lat="44.72891" lon="1.59162">
        <ele>325.54</ele>
        <time>2021-08-16T20:30:51Z</time>
      </trkpt>
      <trkpt lat="44.7289" lon="1.59162">
        <ele>325.54</ele>
        <time>2021-08-16T20:30:52Z</time>
      </trkpt>
      <trkpt lat="44.7288" lon="1.59166">
        <ele>326.99</ele>
        <time>2021-08-16T20:31:00Z</time>
      </trkpt>
      <trkpt lat="44.7287" lon="1.59169">
        <ele>327.47</ele>
        <time>2021-08-16T20:31:08Z</time>
      </trkpt>
      <trkpt lat="44.72862" lon="1.59172">
        <ele>328.43</ele>
        <time>2021-08-16T20:31:15Z</time>
      </trkpt>
      <trkpt lat="44.7285" lon="1.59175">
        <ele>328.91</ele>
        <time>2021-08-16T20:31:24Z</time>
      </trkpt>
      <trkpt lat="44.72844" lon="1.59174">
        <ele>329.87</ele>
        <time>2021-08-16T20:31:31Z</time>
      </trkpt>
      <trkpt lat="44.72842" lon="1.59174">
        <ele>330.35</ele>
        <time>2021-08-16T20:31:32Z</time>
      </trkpt>
      <trkpt lat="44.72841" lon="1.59173">
        <ele>330.35</ele>
        <time>2021-08-16T20:31:33Z</time>
      </trkpt>
      <trkpt lat="44.72839" lon="1.59171">
        <ele>330.83</ele>
        <time>2021-08-16T20:31:35Z</time>
      </trkpt>
      <trkpt lat="44.72837" lon="1.59168">
        <ele>330.83</ele>
        <time>2021-08-16T20:31:37Z</time>
      </trkpt>
      <trkpt lat="44.72832" lon="1.59165">
        <ele>331.31</ele>
        <time>2021-08-16T20:31:40Z</time>
      </trkpt>
      <trkpt lat="44.72828" lon="1.59162">
        <ele>331.79</ele>
        <time>2021-08-16T20:31:47Z</time>
      </trkpt>
      <trkpt lat="44.72827" lon="1.59163">
        <ele>331.79</ele>
        <time>2021-08-16T20:31:57Z</time>
      </trkpt>
      <trkpt lat="44.72823" lon="1.5916">
        <ele>332.27</ele>
        <time>2021-08-16T20:32:08Z</time>
      </trkpt>
      <trkpt lat="44.72815" lon="1.59152">
        <ele>333.71</ele>
        <time>2021-08-16T20:32:18Z</time>
      </trkpt>
      <trkpt lat="44.72806" lon="1.59143">
        <ele>334.68</ele>
        <time>2021-08-16T20:32:29Z</time>
      </trkpt>
      <trkpt lat="44.72797" lon="1.59135">
        <ele>335.64</ele>
        <time>2021-08-16T20:32:39Z</time>
      </trkpt>
      <trkpt lat="44.72788" lon="1.59126">
        <ele>337.08</ele>
        <time>2021-08-16T20:32:51Z</time>
      </trkpt>
      <trkpt lat="44.72781" lon="1.59116">
        <ele>338.52</ele>
        <time>2021-08-16T20:33:01Z</time>
      </trkpt>
      <trkpt lat="44.72775" lon="1.59107">
        <ele>339.48</ele>
        <time>2021-08-16T20:33:12Z</time>
      </trkpt>
      <trkpt lat="44.72772" lon="1.59102">
        <ele>339.96</ele>
        <time>2021-08-16T20:33:21Z</time>
      </trkpt>
      <trkpt lat="44.72765" lon="1.59094">
        <ele>340.44</ele>
        <time>2021-08-16T20:33:28Z</time>
      </trkpt>
      <trkpt lat="44.72758" lon="1.59084">
        <ele>341.41</ele>
        <time>2021-08-16T20:33:36Z</time>
      </trkpt>
      <trkpt lat="44.72747" lon="1.59076">
        <ele>342.85</ele>
        <time>2021-08-16T20:33:45Z</time>
      </trkpt>
      <trkpt lat="44.72739" lon="1.59073">
        <ele>343.81</ele>
        <time>2021-08-16T20:33:51Z</time>
      </trkpt>
      <trkpt lat="44.72738" lon="1.59073">
        <ele>343.81</ele>
        <time>2021-08-16T20:33:52Z</time>
      </trkpt>
      <trkpt lat="44.72737" lon="1.59072">
        <ele>343.81</ele>
        <time>2021-08-16T20:33:53Z</time>
      </trkpt>
      <trkpt lat="44.72736" lon="1.59072">
        <ele>343.81</ele>
        <time>2021-08-16T20:33:54Z</time>
      </trkpt>
      <trkpt lat="44.72735" lon="1.59072">
        <ele>343.81</ele>
        <time>2021-08-16T20:33:55Z</time>
      </trkpt>
      <trkpt lat="44.72729" lon="1.59072">
        <ele>344.77</ele>
        <time>2021-08-16T20:34:00Z</time>
      </trkpt>
      <trkpt lat="44.72722" lon="1.59068">
        <ele>345.73</ele>
        <time>2021-08-16T20:34:06Z</time>
      </trkpt>
      <trkpt lat="44.72721" lon="1.59067">
        <ele>345.73</ele>
        <time>2021-08-16T20:34:07Z</time>
      </trkpt>
      <trkpt lat="44.72716" lon="1.59065">
        <ele>346.69</ele>
        <time>2021-08-16T20:34:13Z</time>
      </trkpt>
      <trkpt lat="44.72716" lon="1.59064">
        <ele>346.69</ele>
        <time>2021-08-16T20:34:33Z</time>
      </trkpt>
      <trkpt lat="44.72712" lon="1.59062">
        <ele>346.69</ele>
        <time>2021-08-16T20:34:38Z</time>
      </trkpt>
      <trkpt lat="44.72701" lon="1.59058">
        <ele>348.62</ele>
        <time>2021-08-16T20:34:49Z</time>
      </trkpt>
      <trkpt lat="44.72692" lon="1.59055">
        <ele>350.06</ele>
        <time>2021-08-16T20:34:59Z</time>
      </trkpt>
      <trkpt lat="44.72685" lon="1.59055">
        <ele>350.54</ele>
        <time>2021-08-16T20:35:07Z</time>
      </trkpt>
      <trkpt lat="44.72676" lon="1.59053">
        <ele>351.5</ele>
        <time>2021-08-16T20:35:17Z</time>
      </trkpt>
      <trkpt lat="44.72667" lon="1.59052">
        <ele>353.42</ele>
        <time>2021-08-16T20:35:27Z</time>
      </trkpt>
      <trkpt lat="44.72661" lon="1.59051">
        <ele>353.9</ele>
        <time>2021-08-16T20:35:34Z</time>
      </trkpt>
      <trkpt lat="44.72652" lon="1.59049">
        <ele>354.86</ele>
        <time>2021-08-16T20:35:44Z</time>
      </trkpt>
      <trkpt lat="44.72648" lon="1.59049">
        <ele>354.86</ele>
        <time>2021-08-16T20:35:51Z</time>
      </trkpt>
      <trkpt lat="44.72637" lon="1.59052">
        <ele>355.83</ele>
        <time>2021-08-16T20:35:58Z</time>
      </trkpt>
      <trkpt lat="44.7262" lon="1.59055">
        <ele>356.79</ele>
        <time>2021-08-16T20:36:09Z</time>
      </trkpt>
      <trkpt lat="44.72604" lon="1.59055">
        <ele>358.23</ele>
        <time>2021-08-16T20:36:19Z</time>
      </trkpt>
      <trkpt lat="44.72587" lon="1.59053">
        <ele>359.19</ele>
        <time>2021-08-16T20:36:29Z</time>
      </trkpt>
      <trkpt lat="44.72574" lon="1.59052">
        <ele>359.67</ele>
        <time>2021-08-16T20:36:36Z</time>
      </trkpt>
      <trkpt lat="44.72558" lon="1.59047">
        <ele>360.15</ele>
        <time>2021-08-16T20:36:44Z</time>
      </trkpt>
      <trkpt lat="44.7254" lon="1.59042">
        <ele>360.63</ele>
        <time>2021-08-16T20:36:53Z</time>
      </trkpt>
      <trkpt lat="44.72519" lon="1.59035">
        <ele>361.59</ele>
        <time>2021-08-16T20:37:02Z</time>
      </trkpt>
      <trkpt lat="44.72499" lon="1.5903">
        <ele>362.07</ele>
        <time>2021-08-16T20:37:11Z</time>
      </trkpt>
      <trkpt lat="44.72476" lon="1.59026">
        <ele>362.07</ele>
        <time>2021-08-16T20:37:20Z</time>
      </trkpt>
      <trkpt lat="44.72451" lon="1.59031">
        <ele>362.07</ele>
        <time>2021-08-16T20:37:28Z</time>
      </trkpt>
      <trkpt lat="44.72423" lon="1.59036">
        <ele>362.07</ele>
        <time>2021-08-16T20:37:37Z</time>
      </trkpt>
      <trkpt lat="44.72404" lon="1.5904">
        <ele>362.07</ele>
        <time>2021-08-16T20:37:44Z</time>
      </trkpt>
      <trkpt lat="44.72395" lon="1.59041">
        <ele>362.07</ele>
        <time>2021-08-16T20:37:50Z</time>
      </trkpt>
      <trkpt lat="44.72395" lon="1.59041">
        <ele>362.07</ele>
        <time>2021-08-16T20:37:57Z</time>
      </trkpt>
      <trkpt lat="44.72396" lon="1.59043">
        <ele>362.55</ele>
        <time>2021-08-16T20:38:09Z</time>
      </trkpt>
      <trkpt lat="44.72394" lon="1.59045">
        <ele>362.55</ele>
        <time>2021-08-16T20:38:24Z</time>
      </trkpt>
      <trkpt lat="44.72393" lon="1.59045">
        <ele>362.55</ele>
        <time>2021-08-16T20:38:35Z</time>
      </trkpt>
      <trkpt lat="44.72391" lon="1.59044">
        <ele>363.04</ele>
        <time>2021-08-16T20:38:43Z</time>
      </trkpt>
      <trkpt lat="44.72388" lon="1.59042">
        <ele>363.04</ele>
        <time>2021-08-16T20:38:48Z</time>
      </trkpt>
      <trkpt lat="44.72383" lon="1.59038">
        <ele>363.04</ele>
        <time>2021-08-16T20:38:54Z</time>
      </trkpt>
      <trkpt lat="44.72372" lon="1.59028">
        <ele>363.04</ele>
        <time>2021-08-16T20:39:00Z</time>
      </trkpt>
      <trkpt lat="44.72358" lon="1.59012">
        <ele>363.52</ele>
        <time>2021-08-16T20:39:07Z</time>
      </trkpt>
      <trkpt lat="44.72334" lon="1.58989">
        <ele>361.59</ele>
        <time>2021-08-16T20:39:15Z</time>
      </trkpt>
      <trkpt lat="44.72305" lon="1.58958">
        <ele>359.19</ele>
        <time>2021-08-16T20:39:22Z</time>
      </trkpt>
      <trkpt lat="44.72278" lon="1.58927">
        <ele>359.19</ele>
        <time>2021-08-16T20:39:29Z</time>
      </trkpt>
      <trkpt lat="44.72277" lon="1.58922">
        <ele>359.19</ele>
        <time>2021-08-16T20:39:30Z</time>
      </trkpt>
      <trkpt lat="44.72277" lon="1.58917">
        <ele>358.71</ele>
        <time>2021-08-16T20:39:31Z</time>
      </trkpt>
      <trkpt lat="44.72278" lon="1.58913">
        <ele>359.19</ele>
        <time>2021-08-16T20:39:32Z</time>
      </trkpt>
      <trkpt lat="44.72279" lon="1.58909">
        <ele>359.19</ele>
        <time>2021-08-16T20:39:33Z</time>
      </trkpt>
      <trkpt lat="44.72296" lon="1.58872">
        <ele>358.23</ele>
        <time>2021-08-16T20:39:41Z</time>
      </trkpt>
      <trkpt lat="44.72321" lon="1.58813">
        <ele>356.79</ele>
        <time>2021-08-16T20:39:51Z</time>
      </trkpt>
      <trkpt lat="44.72327" lon="1.58795">
        <ele>356.79</ele>
        <time>2021-08-16T20:39:55Z</time>
      </trkpt>
      <trkpt lat="44.72326" lon="1.58793">
        <ele>355.83</ele>
        <time>2021-08-16T20:39:56Z</time>
      </trkpt>
      <trkpt lat="44.72325" lon="1.58791">
        <ele>355.83</ele>
        <time>2021-08-16T20:39:57Z</time>
      </trkpt>
      <trkpt lat="44.72311" lon="1.58786">
        <ele>354.86</ele>
        <time>2021-08-16T20:40:02Z</time>
      </trkpt>
      <trkpt lat="44.72284" lon="1.58776">
        <ele>352.46</ele>
        <time>2021-08-16T20:40:08Z</time>
      </trkpt>
      <trkpt lat="44.72263" lon="1.58767">
        <ele>349.1</ele>
        <time>2021-08-16T20:40:12Z</time>
      </trkpt>
      <trkpt lat="44.72257" lon="1.58765">
        <ele>349.1</ele>
        <time>2021-08-16T20:40:13Z</time>
      </trkpt>
      <trkpt lat="44.72249" lon="1.58761">
        <ele>348.13</ele>
        <time>2021-08-16T20:40:15Z</time>
      </trkpt>
      <trkpt lat="44.72234" lon="1.58755">
        <ele>345.25</ele>
        <time>2021-08-16T20:40:19Z</time>
      </trkpt>
      <trkpt lat="44.72229" lon="1.58754">
        <ele>344.29</ele>
        <time>2021-08-16T20:40:20Z</time>
      </trkpt>
      <trkpt lat="44.72209" lon="1.58749">
        <ele>339.96</ele>
        <time>2021-08-16T20:40:24Z</time>
      </trkpt>
      <trkpt lat="44.72195" lon="1.58746">
        <ele>337.08</ele>
        <time>2021-08-16T20:40:27Z</time>
      </trkpt>
      <trkpt lat="44.72186" lon="1.58746">
        <ele>335.64</ele>
        <time>2021-08-16T20:40:29Z</time>
      </trkpt>
      <trkpt lat="44.72177" lon="1.58743">
        <ele>333.71</ele>
        <time>2021-08-16T20:40:31Z</time>
      </trkpt>
      <trkpt lat="44.72172" lon="1.58743">
        <ele>332.75</ele>
        <time>2021-08-16T20:40:32Z</time>
      </trkpt>
      <trkpt lat="44.7216" lon="1.58743">
        <ele>330.83</ele>
        <time>2021-08-16T20:40:34Z</time>
      </trkpt>
      <trkpt lat="44.72144" lon="1.58743">
        <ele>327.95</ele>
        <time>2021-08-16T20:40:37Z</time>
      </trkpt>
      <trkpt lat="44.72139" lon="1.58741">
        <ele>327.95</ele>
        <time>2021-08-16T20:40:38Z</time>
      </trkpt>
      <trkpt lat="44.72134" lon="1.5874">
        <ele>327.47</ele>
        <time>2021-08-16T20:40:39Z</time>
      </trkpt>
      <trkpt lat="44.72131" lon="1.58738">
        <ele>326.99</ele>
        <time>2021-08-16T20:40:40Z</time>
      </trkpt>
      <trkpt lat="44.72128" lon="1.58737">
        <ele>326.5</ele>
        <time>2021-08-16T20:40:41Z</time>
      </trkpt>
      <trkpt lat="44.72127" lon="1.58734">
        <ele>326.5</ele>
        <time>2021-08-16T20:40:42Z</time>
      </trkpt>
      <trkpt lat="44.72126" lon="1.58732">
        <ele>326.5</ele>
        <time>2021-08-16T20:40:43Z</time>
      </trkpt>
      <trkpt lat="44.7212" lon="1.5871">
        <ele>324.58</ele>
        <time>2021-08-16T20:40:47Z</time>
      </trkpt>
      <trkpt lat="44.72119" lon="1.58703">
        <ele>324.1</ele>
        <time>2021-08-16T20:40:48Z</time>
      </trkpt>
      <trkpt lat="44.72109" lon="1.58654">
        <ele>320.74</ele>
        <time>2021-08-16T20:40:54Z</time>
      </trkpt>
      <trkpt lat="44.72104" lon="1.5862">
        <ele>319.78</ele>
        <time>2021-08-16T20:40:58Z</time>
      </trkpt>
      <trkpt lat="44.72102" lon="1.58613">
        <ele>319.3</ele>
        <time>2021-08-16T20:40:59Z</time>
      </trkpt>
      <trkpt lat="44.72099" lon="1.58608">
        <ele>319.3</ele>
        <time>2021-08-16T20:41:00Z</time>
      </trkpt>
      <trkpt lat="44.72097" lon="1.58603">
        <ele>318.81</ele>
        <time>2021-08-16T20:41:01Z</time>
      </trkpt>
      <trkpt lat="44.72094" lon="1.58597">
        <ele>318.81</ele>
        <time>2021-08-16T20:41:02Z</time>
      </trkpt>
      <trkpt lat="44.72092" lon="1.58592">
        <ele>317.85</ele>
        <time>2021-08-16T20:41:03Z</time>
      </trkpt>
      <trkpt lat="44.72088" lon="1.58586">
        <ele>317.85</ele>
        <time>2021-08-16T20:41:04Z</time>
      </trkpt>
      <trkpt lat="44.72077" lon="1.58572">
        <ele>316.89</ele>
        <time>2021-08-16T20:41:07Z</time>
      </trkpt>
      <trkpt lat="44.72067" lon="1.58563">
        <ele>315.93</ele>
        <time>2021-08-16T20:41:09Z</time>
      </trkpt>
      <trkpt lat="44.72062" lon="1.5856">
        <ele>315.45</ele>
        <time>2021-08-16T20:41:10Z</time>
      </trkpt>
      <trkpt lat="44.72056" lon="1.58557">
        <ele>314.97</ele>
        <time>2021-08-16T20:41:11Z</time>
      </trkpt>
      <trkpt lat="44.7205" lon="1.58554">
        <ele>314.49</ele>
        <time>2021-08-16T20:41:12Z</time>
      </trkpt>
      <trkpt lat="44.72044" lon="1.5855">
        <ele>314.49</ele>
        <time>2021-08-16T20:41:13Z</time>
      </trkpt>
      <trkpt lat="44.72039" lon="1.58545">
        <ele>314.01</ele>
        <time>2021-08-16T20:41:14Z</time>
      </trkpt>
      <trkpt lat="44.72034" lon="1.58539">
        <ele>313.53</ele>
        <time>2021-08-16T20:41:15Z</time>
      </trkpt>
      <trkpt lat="44.7203" lon="1.58532">
        <ele>313.05</ele>
        <time>2021-08-16T20:41:16Z</time>
      </trkpt>
      <trkpt lat="44.72022" lon="1.58518">
        <ele>312.57</ele>
        <time>2021-08-16T20:41:18Z</time>
      </trkpt>
      <trkpt lat="44.71991" lon="1.58454">
        <ele>309.2</ele>
        <time>2021-08-16T20:41:26Z</time>
      </trkpt>
      <trkpt lat="44.71983" lon="1.58438">
        <ele>308.72</ele>
        <time>2021-08-16T20:41:28Z</time>
      </trkpt>
      <trkpt lat="44.71957" lon="1.58376">
        <ele>306.32</ele>
        <time>2021-08-16T20:41:35Z</time>
      </trkpt>
      <trkpt lat="44.71938" lon="1.58344">
        <ele>304.88</ele>
        <time>2021-08-16T20:41:39Z</time>
      </trkpt>
      <trkpt lat="44.71919" lon="1.5831">
        <ele>302.95</ele>
        <time>2021-08-16T20:41:43Z</time>
      </trkpt>
      <trkpt lat="44.71879" lon="1.58256">
        <ele>300.55</ele>
        <time>2021-08-16T20:41:50Z</time>
      </trkpt>
      <trkpt lat="44.71853" lon="1.58231">
        <ele>298.63</ele>
        <time>2021-08-16T20:41:54Z</time>
      </trkpt>
      <trkpt lat="44.7184" lon="1.58218">
        <ele>298.15</ele>
        <time>2021-08-16T20:41:56Z</time>
      </trkpt>
      <trkpt lat="44.71824" lon="1.58197">
        <ele>297.18</ele>
        <time>2021-08-16T20:41:59Z</time>
      </trkpt>
      <trkpt lat="44.71821" lon="1.5819">
        <ele>297.18</ele>
        <time>2021-08-16T20:42:00Z</time>
      </trkpt>
      <trkpt lat="44.71815" lon="1.58162">
        <ele>296.22</ele>
        <time>2021-08-16T20:42:05Z</time>
      </trkpt>
      <trkpt lat="44.71814" lon="1.58145">
        <ele>295.74</ele>
        <time>2021-08-16T20:42:11Z</time>
      </trkpt>
      <trkpt lat="44.71813" lon="1.58144">
        <ele>295.74</ele>
        <time>2021-08-16T20:42:23Z</time>
      </trkpt>
      <trkpt lat="44.71814" lon="1.58134">
        <ele>295.26</ele>
        <time>2021-08-16T20:42:31Z</time>
      </trkpt>
      <trkpt lat="44.71816" lon="1.58109">
        <ele>294.78</ele>
        <time>2021-08-16T20:42:37Z</time>
      </trkpt>
      <trkpt lat="44.71815" lon="1.58076">
        <ele>294.3</ele>
        <time>2021-08-16T20:42:43Z</time>
      </trkpt>
      <trkpt lat="44.71813" lon="1.58063">
        <ele>293.34</ele>
        <time>2021-08-16T20:42:45Z</time>
      </trkpt>
      <trkpt lat="44.71812" lon="1.58055">
        <ele>292.38</ele>
        <time>2021-08-16T20:42:46Z</time>
      </trkpt>
      <trkpt lat="44.71813" lon="1.58047">
        <ele>291.9</ele>
        <time>2021-08-16T20:42:47Z</time>
      </trkpt>
      <trkpt lat="44.71814" lon="1.58037">
        <ele>290.94</ele>
        <time>2021-08-16T20:42:48Z</time>
      </trkpt>
      <trkpt lat="44.71814" lon="1.5803">
        <ele>290.46</ele>
        <time>2021-08-16T20:42:49Z</time>
      </trkpt>
      <trkpt lat="44.71816" lon="1.58022">
        <ele>290.46</ele>
        <time>2021-08-16T20:42:50Z</time>
      </trkpt>
      <trkpt lat="44.71819" lon="1.58014">
        <ele>289.49</ele>
        <time>2021-08-16T20:42:51Z</time>
      </trkpt>
      <trkpt lat="44.71823" lon="1.58006">
        <ele>289.97</ele>
        <time>2021-08-16T20:42:52Z</time>
      </trkpt>
      <trkpt lat="44.71847" lon="1.57969">
        <ele>288.53</ele>
        <time>2021-08-16T20:42:58Z</time>
      </trkpt>
      <trkpt lat="44.71864" lon="1.57933">
        <ele>288.05</ele>
        <time>2021-08-16T20:43:03Z</time>
      </trkpt>
      <trkpt lat="44.71865" lon="1.57926">
        <ele>288.05</ele>
        <time>2021-08-16T20:43:04Z</time>
      </trkpt>
      <trkpt lat="44.71867" lon="1.5792">
        <ele>288.05</ele>
        <time>2021-08-16T20:43:05Z</time>
      </trkpt>
      <trkpt lat="44.71868" lon="1.57915">
        <ele>288.05</ele>
        <time>2021-08-16T20:43:06Z</time>
      </trkpt>
      <trkpt lat="44.71868" lon="1.5791">
        <ele>288.05</ele>
        <time>2021-08-16T20:43:07Z</time>
      </trkpt>
      <trkpt lat="44.71868" lon="1.57907">
        <ele>289.49</ele>
        <time>2021-08-16T20:43:08Z</time>
      </trkpt>
      <trkpt lat="44.71868" lon="1.57904">
        <ele>289.49</ele>
        <time>2021-08-16T20:43:09Z</time>
      </trkpt>
      <trkpt lat="44.71868" lon="1.57884">
        <ele>290.46</ele>
        <time>2021-08-16T20:43:17Z</time>
      </trkpt>
      <trkpt lat="44.71869" lon="1.57881">
        <ele>290.46</ele>
        <time>2021-08-16T20:43:18Z</time>
      </trkpt>
      <trkpt lat="44.71866" lon="1.57865">
        <ele>291.9</ele>
        <time>2021-08-16T20:43:26Z</time>
      </trkpt>
      <trkpt lat="44.71863" lon="1.57857">
        <ele>292.86</ele>
        <time>2021-08-16T20:43:33Z</time>
      </trkpt>
      <trkpt lat="44.71857" lon="1.57851">
        <ele>294.3</ele>
        <time>2021-08-16T20:43:43Z</time>
      </trkpt>
      <trkpt lat="44.71854" lon="1.57848">
        <ele>294.3</ele>
        <time>2021-08-16T20:43:47Z</time>
      </trkpt>
      <trkpt lat="44.71847" lon="1.57845">
        <ele>295.26</ele>
        <time>2021-08-16T20:43:54Z</time>
      </trkpt>
      <trkpt lat="44.71844" lon="1.57843">
        <ele>295.26</ele>
        <time>2021-08-16T20:44:01Z</time>
      </trkpt>
      <trkpt lat="44.71834" lon="1.57836">
        <ele>295.26</ele>
        <time>2021-08-16T20:44:08Z</time>
      </trkpt>
      <trkpt lat="44.71829" lon="1.57826">
        <ele>295.74</ele>
        <time>2021-08-16T20:44:14Z</time>
      </trkpt>
      <trkpt lat="44.71826" lon="1.5782">
        <ele>296.7</ele>
        <time>2021-08-16T20:44:20Z</time>
      </trkpt>
      <trkpt lat="44.71821" lon="1.57813">
        <ele>297.67</ele>
        <time>2021-08-16T20:44:29Z</time>
      </trkpt>
      <trkpt lat="44.71815" lon="1.57806">
        <ele>299.11</ele>
        <time>2021-08-16T20:44:39Z</time>
      </trkpt>
      <trkpt lat="44.71811" lon="1.57798">
        <ele>300.55</ele>
        <time>2021-08-16T20:44:48Z</time>
      </trkpt>
      <trkpt lat="44.7181" lon="1.57785">
        <ele>301.51</ele>
        <time>2021-08-16T20:44:57Z</time>
      </trkpt>
      <trkpt lat="44.71812" lon="1.5777">
        <ele>302.95</ele>
        <time>2021-08-16T20:45:07Z</time>
      </trkpt>
      <trkpt lat="44.71815" lon="1.57758">
        <ele>304.39</ele>
        <time>2021-08-16T20:45:16Z</time>
      </trkpt>
      <trkpt lat="44.71818" lon="1.57746">
        <ele>305.36</ele>
        <time>2021-08-16T20:45:25Z</time>
      </trkpt>
      <trkpt lat="44.71822" lon="1.57735">
        <ele>305.84</ele>
        <time>2021-08-16T20:45:34Z</time>
      </trkpt>
      <trkpt lat="44.71825" lon="1.57722">
        <ele>306.8</ele>
        <time>2021-08-16T20:45:43Z</time>
      </trkpt>
      <trkpt lat="44.71828" lon="1.57714">
        <ele>307.28</ele>
        <time>2021-08-16T20:45:51Z</time>
      </trkpt>
      <trkpt lat="44.7183" lon="1.57709">
        <ele>307.28</ele>
        <time>2021-08-16T20:45:55Z</time>
      </trkpt>
      <trkpt lat="44.71831" lon="1.57708">
        <ele>307.28</ele>
        <time>2021-08-16T20:45:56Z</time>
      </trkpt>
      <trkpt lat="44.71832" lon="1.57706">
        <ele>307.28</ele>
        <time>2021-08-16T20:45:57Z</time>
      </trkpt>
      <trkpt lat="44.71834" lon="1.577">
        <ele>308.24</ele>
        <time>2021-08-16T20:46:01Z</time>
      </trkpt>
      <trkpt lat="44.71834" lon="1.57698">
        <ele>308.24</ele>
        <time>2021-08-16T20:46:02Z</time>
      </trkpt>
      <trkpt lat="44.71835" lon="1.57696">
        <ele>308.24</ele>
        <time>2021-08-16T20:46:03Z</time>
      </trkpt>
      <trkpt lat="44.71836" lon="1.57693">
        <ele>308.24</ele>
        <time>2021-08-16T20:46:04Z</time>
      </trkpt>
      <trkpt lat="44.71836" lon="1.57691">
        <ele>308.24</ele>
        <time>2021-08-16T20:46:05Z</time>
      </trkpt>
      <trkpt lat="44.71837" lon="1.57689">
        <ele>308.24</ele>
        <time>2021-08-16T20:46:06Z</time>
      </trkpt>
      <trkpt lat="44.71837" lon="1.57686">
        <ele>308.72</ele>
        <time>2021-08-16T20:46:07Z</time>
      </trkpt>
      <trkpt lat="44.71838" lon="1.57684">
        <ele>308.72</ele>
        <time>2021-08-16T20:46:08Z</time>
      </trkpt>
      <trkpt lat="44.71838" lon="1.57682">
        <ele>308.72</ele>
        <time>2021-08-16T20:46:09Z</time>
      </trkpt>
      <trkpt lat="44.71838" lon="1.5768">
        <ele>309.2</ele>
        <time>2021-08-16T20:46:10Z</time>
      </trkpt>
      <trkpt lat="44.71838" lon="1.57677">
        <ele>309.2</ele>
        <time>2021-08-16T20:46:11Z</time>
      </trkpt>
      <trkpt lat="44.71838" lon="1.57674">
        <ele>309.2</ele>
        <time>2021-08-16T20:46:12Z</time>
      </trkpt>
      <trkpt lat="44.71837" lon="1.57656">
        <ele>310.16</ele>
        <time>2021-08-16T20:46:19Z</time>
      </trkpt>
      <trkpt lat="44.71837" lon="1.57654">
        <ele>310.16</ele>
        <time>2021-08-16T20:46:20Z</time>
      </trkpt>
      <trkpt lat="44.71832" lon="1.57637">
        <ele>310.64</ele>
        <time>2021-08-16T20:46:28Z</time>
      </trkpt>
      <trkpt lat="44.7183" lon="1.57632">
        <ele>311.12</ele>
        <time>2021-08-16T20:46:31Z</time>
      </trkpt>
      <trkpt lat="44.71829" lon="1.57629">
        <ele>311.6</ele>
        <time>2021-08-16T20:46:32Z</time>
      </trkpt>
      <trkpt lat="44.71829" lon="1.57627">
        <ele>311.6</ele>
        <time>2021-08-16T20:46:33Z</time>
      </trkpt>
      <trkpt lat="44.71828" lon="1.57625">
        <ele>311.6</ele>
        <time>2021-08-16T20:46:34Z</time>
      </trkpt>
      <trkpt lat="44.71827" lon="1.57622">
        <ele>311.6</ele>
        <time>2021-08-16T20:46:35Z</time>
      </trkpt>
      <trkpt lat="44.71827" lon="1.57619">
        <ele>311.6</ele>
        <time>2021-08-16T20:46:36Z</time>
      </trkpt>
      <trkpt lat="44.71826" lon="1.57616">
        <ele>311.6</ele>
        <time>2021-08-16T20:46:37Z</time>
      </trkpt>
      <trkpt lat="44.71825" lon="1.57613">
        <ele>311.6</ele>
        <time>2021-08-16T20:46:38Z</time>
      </trkpt>
      <trkpt lat="44.71824" lon="1.5761">
        <ele>311.6</ele>
        <time>2021-08-16T20:46:39Z</time>
      </trkpt>
      <trkpt lat="44.71816" lon="1.57586">
        <ele>311.6</ele>
        <time>2021-08-16T20:46:47Z</time>
      </trkpt>
      <trkpt lat="44.71797" lon="1.5755">
        <ele>311.6</ele>
        <time>2021-08-16T20:46:57Z</time>
      </trkpt>
      <trkpt lat="44.71777" lon="1.57523">
        <ele>311.6</ele>
        <time>2021-08-16T20:47:05Z</time>
      </trkpt>
      <trkpt lat="44.71763" lon="1.5751">
        <ele>308.72</ele>
        <time>2021-08-16T20:47:09Z</time>
      </trkpt>
      <trkpt lat="44.71746" lon="1.57495">
        <ele>305.84</ele>
        <time>2021-08-16T20:47:13Z</time>
      </trkpt>
      <trkpt lat="44.71742" lon="1.57491">
        <ele>305.84</ele>
        <time>2021-08-16T20:47:14Z</time>
      </trkpt>
      <trkpt lat="44.71739" lon="1.57486">
        <ele>304.88</ele>
        <time>2021-08-16T20:47:15Z</time>
      </trkpt>
      <trkpt lat="44.71737" lon="1.5748">
        <ele>304.39</ele>
        <time>2021-08-16T20:47:16Z</time>
      </trkpt>
      <trkpt lat="44.71736" lon="1.57474">
        <ele>303.91</ele>
        <time>2021-08-16T20:47:17Z</time>
      </trkpt>
      <trkpt lat="44.71736" lon="1.5747">
        <ele>303.91</ele>
        <time>2021-08-16T20:47:18Z</time>
      </trkpt>
      <trkpt lat="44.71737" lon="1.57465">
        <ele>302.95</ele>
        <time>2021-08-16T20:47:19Z</time>
      </trkpt>
      <trkpt lat="44.71738" lon="1.57462">
        <ele>302.95</ele>
        <time>2021-08-16T20:47:20Z</time>
      </trkpt>
      <trkpt lat="44.71738" lon="1.57459">
        <ele>302.47</ele>
        <time>2021-08-16T20:47:21Z</time>
      </trkpt>
      <trkpt lat="44.71739" lon="1.57456">
        <ele>302.47</ele>
        <time>2021-08-16T20:47:22Z</time>
      </trkpt>
      <trkpt lat="44.71744" lon="1.57444">
        <ele>301.51</ele>
        <time>2021-08-16T20:47:25Z</time>
      </trkpt>
      <trkpt lat="44.71747" lon="1.57442">
        <ele>301.03</ele>
        <time>2021-08-16T20:47:26Z</time>
      </trkpt>
      <trkpt lat="44.71765" lon="1.5743">
        <ele>301.03</ele>
        <time>2021-08-16T20:47:33Z</time>
      </trkpt>
      <trkpt lat="44.71772" lon="1.57424">
        <ele>302.95</ele>
        <time>2021-08-16T20:47:39Z</time>
      </trkpt>
      <trkpt lat="44.7178" lon="1.57415">
        <ele>303.43</ele>
        <time>2021-08-16T20:47:45Z</time>
      </trkpt>
      <trkpt lat="44.71787" lon="1.57403">
        <ele>304.88</ele>
        <time>2021-08-16T20:47:54Z</time>
      </trkpt>
      <trkpt lat="44.71787" lon="1.57402">
        <ele>305.36</ele>
        <time>2021-08-16T20:47:55Z</time>
      </trkpt>
      <trkpt lat="44.71788" lon="1.5739">
        <ele>305.84</ele>
        <time>2021-08-16T20:48:02Z</time>
      </trkpt>
      <trkpt lat="44.71789" lon="1.57388">
        <ele>306.32</ele>
        <time>2021-08-16T20:48:03Z</time>
      </trkpt>
      <trkpt lat="44.7179" lon="1.57386">
        <ele>306.32</ele>
        <time>2021-08-16T20:48:04Z</time>
      </trkpt>
      <trkpt lat="44.71792" lon="1.57381">
        <ele>306.8</ele>
        <time>2021-08-16T20:48:07Z</time>
      </trkpt>
      <trkpt lat="44.71793" lon="1.57379">
        <ele>306.8</ele>
        <time>2021-08-16T20:48:08Z</time>
      </trkpt>
      <trkpt lat="44.71796" lon="1.57376">
        <ele>307.28</ele>
        <time>2021-08-16T20:48:11Z</time>
      </trkpt>
      <trkpt lat="44.71804" lon="1.57367">
        <ele>308.72</ele>
        <time>2021-08-16T20:48:20Z</time>
      </trkpt>
      <trkpt lat="44.71815" lon="1.57357">
        <ele>309.2</ele>
        <time>2021-08-16T20:48:28Z</time>
      </trkpt>
      <trkpt lat="44.71832" lon="1.57345">
        <ele>309.2</ele>
        <time>2021-08-16T20:48:35Z</time>
      </trkpt>
      <trkpt lat="44.71835" lon="1.57339">
        <ele>309.2</ele>
        <time>2021-08-16T20:48:37Z</time>
      </trkpt>
      <trkpt lat="44.71835" lon="1.57337">
        <ele>309.2</ele>
        <time>2021-08-16T20:48:38Z</time>
      </trkpt>
      <trkpt lat="44.71836" lon="1.57334">
        <ele>309.2</ele>
        <time>2021-08-16T20:48:39Z</time>
      </trkpt>
      <trkpt lat="44.71836" lon="1.57332">
        <ele>309.2</ele>
        <time>2021-08-16T20:48:40Z</time>
      </trkpt>
      <trkpt lat="44.71836" lon="1.5733">
        <ele>309.2</ele>
        <time>2021-08-16T20:48:41Z</time>
      </trkpt>
      <trkpt lat="44.71836" lon="1.57328">
        <ele>309.2</ele>
        <time>2021-08-16T20:48:42Z</time>
      </trkpt>
      <trkpt lat="44.71836" lon="1.57326">
        <ele>309.2</ele>
        <time>2021-08-16T20:48:43Z</time>
      </trkpt>
      <trkpt lat="44.71835" lon="1.57324">
        <ele>309.2</ele>
        <time>2021-08-16T20:48:44Z</time>
      </trkpt>
      <trkpt lat="44.71835" lon="1.57322">
        <ele>309.2</ele>
        <time>2021-08-16T20:48:45Z</time>
      </trkpt>
      <trkpt lat="44.71835" lon="1.57315">
        <ele>310.16</ele>
        <time>2021-08-16T20:48:49Z</time>
      </trkpt>
      <trkpt lat="44.71835" lon="1.57313">
        <ele>310.16</ele>
        <time>2021-08-16T20:48:50Z</time>
      </trkpt>
      <trkpt lat="44.71835" lon="1.57311">
        <ele>310.16</ele>
        <time>2021-08-16T20:48:51Z</time>
      </trkpt>
      <trkpt lat="44.71834" lon="1.57309">
        <ele>310.16</ele>
        <time>2021-08-16T20:48:52Z</time>
      </trkpt>
      <trkpt lat="44.71834" lon="1.57306">
        <ele>310.64</ele>
        <time>2021-08-16T20:48:53Z</time>
      </trkpt>
      <trkpt lat="44.71833" lon="1.57287">
        <ele>311.6</ele>
        <time>2021-08-16T20:49:02Z</time>
      </trkpt>
      <trkpt lat="44.71833" lon="1.57274">
        <ele>312.57</ele>
        <time>2021-08-16T20:49:08Z</time>
      </trkpt>
      <trkpt lat="44.71833" lon="1.57271">
        <ele>312.57</ele>
        <time>2021-08-16T20:49:09Z</time>
      </trkpt>
      <trkpt lat="44.71833" lon="1.57269">
        <ele>312.57</ele>
        <time>2021-08-16T20:49:10Z</time>
      </trkpt>
      <trkpt lat="44.71832" lon="1.57251">
        <ele>313.53</ele>
        <time>2021-08-16T20:49:19Z</time>
      </trkpt>
      <trkpt lat="44.71831" lon="1.57249">
        <ele>313.53</ele>
        <time>2021-08-16T20:49:20Z</time>
      </trkpt>
      <trkpt lat="44.71831" lon="1.57248">
        <ele>314.01</ele>
        <time>2021-08-16T20:49:26Z</time>
      </trkpt>
      <trkpt lat="44.71828" lon="1.57239">
        <ele>314.49</ele>
        <time>2021-08-16T20:49:33Z</time>
      </trkpt>
      <trkpt lat="44.71828" lon="1.57238">
        <ele>314.49</ele>
        <time>2021-08-16T20:49:34Z</time>
      </trkpt>
      <trkpt lat="44.71827" lon="1.57236">
        <ele>314.49</ele>
        <time>2021-08-16T20:49:35Z</time>
      </trkpt>
      <trkpt lat="44.71826" lon="1.57234">
        <ele>314.97</ele>
        <time>2021-08-16T20:49:36Z</time>
      </trkpt>
      <trkpt lat="44.71825" lon="1.57232">
        <ele>314.97</ele>
        <time>2021-08-16T20:49:37Z</time>
      </trkpt>
      <trkpt lat="44.71824" lon="1.57231">
        <ele>314.97</ele>
        <time>2021-08-16T20:49:38Z</time>
      </trkpt>
      <trkpt lat="44.71823" lon="1.5723">
        <ele>315.45</ele>
        <time>2021-08-16T20:49:39Z</time>
      </trkpt>
      <trkpt lat="44.71821" lon="1.57229">
        <ele>315.45</ele>
        <time>2021-08-16T20:49:40Z</time>
      </trkpt>
      <trkpt lat="44.7182" lon="1.57228">
        <ele>315.45</ele>
        <time>2021-08-16T20:49:41Z</time>
      </trkpt>
      <trkpt lat="44.71819" lon="1.57227">
        <ele>315.45</ele>
        <time>2021-08-16T20:49:42Z</time>
      </trkpt>
      <trkpt lat="44.7181" lon="1.57215">
        <ele>316.89</ele>
        <time>2021-08-16T20:49:51Z</time>
      </trkpt>
      <trkpt lat="44.71808" lon="1.57214">
        <ele>316.89</ele>
        <time>2021-08-16T20:49:52Z</time>
      </trkpt>
      <trkpt lat="44.71807" lon="1.57213">
        <ele>316.89</ele>
        <time>2021-08-16T20:49:53Z</time>
      </trkpt>
      <trkpt lat="44.71806" lon="1.57212">
        <ele>317.37</ele>
        <time>2021-08-16T20:49:54Z</time>
      </trkpt>
      <trkpt lat="44.71805" lon="1.57211">
        <ele>317.85</ele>
        <time>2021-08-16T20:49:55Z</time>
      </trkpt>
      <trkpt lat="44.71804" lon="1.57209">
        <ele>317.85</ele>
        <time>2021-08-16T20:49:56Z</time>
      </trkpt>
      <trkpt lat="44.71803" lon="1.57208">
        <ele>318.33</ele>
        <time>2021-08-16T20:49:57Z</time>
      </trkpt>
      <trkpt lat="44.71793" lon="1.57198">
        <ele>319.3</ele>
        <time>2021-08-16T20:50:06Z</time>
      </trkpt>
      <trkpt lat="44.71778" lon="1.57183">
        <ele>321.22</ele>
        <time>2021-08-16T20:50:19Z</time>
      </trkpt>
      <trkpt lat="44.71764" lon="1.5717">
        <ele>321.7</ele>
        <time>2021-08-16T20:50:30Z</time>
      </trkpt>
      <trkpt lat="44.71753" lon="1.57159">
        <ele>323.62</ele>
        <time>2021-08-16T20:50:40Z</time>
      </trkpt>
      <trkpt lat="44.71741" lon="1.57143">
        <ele>324.58</ele>
        <time>2021-08-16T20:50:51Z</time>
      </trkpt>
      <trkpt lat="44.71732" lon="1.57127">
        <ele>325.54</ele>
        <time>2021-08-16T20:51:00Z</time>
      </trkpt>
      <trkpt lat="44.71724" lon="1.57111">
        <ele>326.5</ele>
        <time>2021-08-16T20:51:09Z</time>
      </trkpt>
      <trkpt lat="44.71714" lon="1.57095">
        <ele>327.47</ele>
        <time>2021-08-16T20:51:18Z</time>
      </trkpt>
      <trkpt lat="44.71704" lon="1.57079">
        <ele>328.43</ele>
        <time>2021-08-16T20:51:26Z</time>
      </trkpt>
      <trkpt lat="44.71691" lon="1.57057">
        <ele>329.39</ele>
        <time>2021-08-16T20:51:35Z</time>
      </trkpt>
      <trkpt lat="44.71674" lon="1.57029">
        <ele>329.87</ele>
        <time>2021-08-16T20:51:44Z</time>
      </trkpt>
      <trkpt lat="44.71663" lon="1.57011">
        <ele>330.83</ele>
        <time>2021-08-16T20:51:52Z</time>
      </trkpt>
      <trkpt lat="44.7166" lon="1.57006">
        <ele>331.31</ele>
        <time>2021-08-16T20:51:55Z</time>
      </trkpt>
      <trkpt lat="44.7166" lon="1.57004">
        <ele>331.31</ele>
        <time>2021-08-16T20:51:56Z</time>
      </trkpt>
      <trkpt lat="44.71659" lon="1.57003">
        <ele>331.31</ele>
        <time>2021-08-16T20:51:57Z</time>
      </trkpt>
      <trkpt lat="44.71658" lon="1.57002">
        <ele>331.79</ele>
        <time>2021-08-16T20:51:58Z</time>
      </trkpt>
      <trkpt lat="44.71657" lon="1.57">
        <ele>331.79</ele>
        <time>2021-08-16T20:51:59Z</time>
      </trkpt>
      <trkpt lat="44.71657" lon="1.56999">
        <ele>331.79</ele>
        <time>2021-08-16T20:52:00Z</time>
      </trkpt>
      <trkpt lat="44.71656" lon="1.56997">
        <ele>331.79</ele>
        <time>2021-08-16T20:52:01Z</time>
      </trkpt>
      <trkpt lat="44.71655" lon="1.56996">
        <ele>332.27</ele>
        <time>2021-08-16T20:52:02Z</time>
      </trkpt>
      <trkpt lat="44.71655" lon="1.56995">
        <ele>332.27</ele>
        <time>2021-08-16T20:52:03Z</time>
      </trkpt>
      <trkpt lat="44.71654" lon="1.56994">
        <ele>332.75</ele>
        <time>2021-08-16T20:52:04Z</time>
      </trkpt>
      <trkpt lat="44.71653" lon="1.56992">
        <ele>332.75</ele>
        <time>2021-08-16T20:52:05Z</time>
      </trkpt>
      <trkpt lat="44.71653" lon="1.56991">
        <ele>332.75</ele>
        <time>2021-08-16T20:52:06Z</time>
      </trkpt>
      <trkpt lat="44.71652" lon="1.56989">
        <ele>333.23</ele>
        <time>2021-08-16T20:52:07Z</time>
      </trkpt>
      <trkpt lat="44.71652" lon="1.56988">
        <ele>333.23</ele>
        <time>2021-08-16T20:52:08Z</time>
      </trkpt>
      <trkpt lat="44.71651" lon="1.56986">
        <ele>333.23</ele>
        <time>2021-08-16T20:52:09Z</time>
      </trkpt>
      <trkpt lat="44.71651" lon="1.56984">
        <ele>333.23</ele>
        <time>2021-08-16T20:52:10Z</time>
      </trkpt>
      <trkpt lat="44.71651" lon="1.56982">
        <ele>333.71</ele>
        <time>2021-08-16T20:52:11Z</time>
      </trkpt>
      <trkpt lat="44.7165" lon="1.5698">
        <ele>333.71</ele>
        <time>2021-08-16T20:52:12Z</time>
      </trkpt>
      <trkpt lat="44.7165" lon="1.56979">
        <ele>333.71</ele>
        <time>2021-08-16T20:52:13Z</time>
      </trkpt>
      <trkpt lat="44.71649" lon="1.56977">
        <ele>333.71</ele>
        <time>2021-08-16T20:52:14Z</time>
      </trkpt>
      <trkpt lat="44.71645" lon="1.56958">
        <ele>335.16</ele>
        <time>2021-08-16T20:52:24Z</time>
      </trkpt>
      <trkpt lat="44.71637" lon="1.56941">
        <ele>335.64</ele>
        <time>2021-08-16T20:52:33Z</time>
      </trkpt>
      <trkpt lat="44.71621" lon="1.56919">
        <ele>336.12</ele>
        <time>2021-08-16T20:52:43Z</time>
      </trkpt>
      <trkpt lat="44.71607" lon="1.56913">
        <ele>337.08</ele>
        <time>2021-08-16T20:52:49Z</time>
      </trkpt>
      <trkpt lat="44.71606" lon="1.56914">
        <ele>337.08</ele>
        <time>2021-08-16T20:52:50Z</time>
      </trkpt>
      <trkpt lat="44.71605" lon="1.56916">
        <ele>337.08</ele>
        <time>2021-08-16T20:52:51Z</time>
      </trkpt>
      <trkpt lat="44.71593" lon="1.56929">
        <ele>338.52</ele>
        <time>2021-08-16T20:53:00Z</time>
      </trkpt>
      <trkpt lat="44.71585" lon="1.56938">
        <ele>339.48</ele>
        <time>2021-08-16T20:53:07Z</time>
      </trkpt>
      <trkpt lat="44.71574" lon="1.56951">
        <ele>341.41</ele>
        <time>2021-08-16T20:53:17Z</time>
      </trkpt>
      <trkpt lat="44.71563" lon="1.56963">
        <ele>342.37</ele>
        <time>2021-08-16T20:53:26Z</time>
      </trkpt>
      <trkpt lat="44.71552" lon="1.56976">
        <ele>343.33</ele>
        <time>2021-08-16T20:53:36Z</time>
      </trkpt>
      <trkpt lat="44.71551" lon="1.56978">
        <ele>343.33</ele>
        <time>2021-08-16T20:53:37Z</time>
      </trkpt>
      <trkpt lat="44.71546" lon="1.56996">
        <ele>344.77</ele>
        <time>2021-08-16T20:53:47Z</time>
      </trkpt>
      <trkpt lat="44.7154" lon="1.57016">
        <ele>346.21</ele>
        <time>2021-08-16T20:53:57Z</time>
      </trkpt>
      <trkpt lat="44.71537" lon="1.57021">
        <ele>346.69</ele>
        <time>2021-08-16T20:54:00Z</time>
      </trkpt>
      <trkpt lat="44.71535" lon="1.57023">
        <ele>346.69</ele>
        <time>2021-08-16T20:54:01Z</time>
      </trkpt>
      <trkpt lat="44.71529" lon="1.57029">
        <ele>346.69</ele>
        <time>2021-08-16T20:54:06Z</time>
      </trkpt>
      <trkpt lat="44.71527" lon="1.5703">
        <ele>347.65</ele>
        <time>2021-08-16T20:54:07Z</time>
      </trkpt>
      <trkpt lat="44.71526" lon="1.57031">
        <ele>347.65</ele>
        <time>2021-08-16T20:54:08Z</time>
      </trkpt>
      <trkpt lat="44.71524" lon="1.57031">
        <ele>347.65</ele>
        <time>2021-08-16T20:54:09Z</time>
      </trkpt>
      <trkpt lat="44.71523" lon="1.57032">
        <ele>347.65</ele>
        <time>2021-08-16T20:54:10Z</time>
      </trkpt>
      <trkpt lat="44.71522" lon="1.57032">
        <ele>348.13</ele>
        <time>2021-08-16T20:54:11Z</time>
      </trkpt>
      <trkpt lat="44.7152" lon="1.57033">
        <ele>348.13</ele>
        <time>2021-08-16T20:54:12Z</time>
      </trkpt>
      <trkpt lat="44.71519" lon="1.57034">
        <ele>348.13</ele>
        <time>2021-08-16T20:54:13Z</time>
      </trkpt>
      <trkpt lat="44.71518" lon="1.57036">
        <ele>348.13</ele>
        <time>2021-08-16T20:54:14Z</time>
      </trkpt>
      <trkpt lat="44.71514" lon="1.57038">
        <ele>348.62</ele>
        <time>2021-08-16T20:54:17Z</time>
      </trkpt>
      <trkpt lat="44.71512" lon="1.57039">
        <ele>348.62</ele>
        <time>2021-08-16T20:54:18Z</time>
      </trkpt>
      <trkpt lat="44.71498" lon="1.57048">
        <ele>350.06</ele>
        <time>2021-08-16T20:54:28Z</time>
      </trkpt>
      <trkpt lat="44.71484" lon="1.5706">
        <ele>351.5</ele>
        <time>2021-08-16T20:54:38Z</time>
      </trkpt>
      <trkpt lat="44.71473" lon="1.57072">
        <ele>352.46</ele>
        <time>2021-08-16T20:54:47Z</time>
      </trkpt>
      <trkpt lat="44.71472" lon="1.57073">
        <ele>352.46</ele>
        <time>2021-08-16T20:54:48Z</time>
      </trkpt>
      <trkpt lat="44.7147" lon="1.57075">
        <ele>352.46</ele>
        <time>2021-08-16T20:54:49Z</time>
      </trkpt>
      <trkpt lat="44.71469" lon="1.57076">
        <ele>352.46</ele>
        <time>2021-08-16T20:54:50Z</time>
      </trkpt>
      <trkpt lat="44.71468" lon="1.57077">
        <ele>352.46</ele>
        <time>2021-08-16T20:54:51Z</time>
      </trkpt>
      <trkpt lat="44.71467" lon="1.57079">
        <ele>352.46</ele>
        <time>2021-08-16T20:54:52Z</time>
      </trkpt>
      <trkpt lat="44.71466" lon="1.57081">
        <ele>353.42</ele>
        <time>2021-08-16T20:54:53Z</time>
      </trkpt>
      <trkpt lat="44.71464" lon="1.57082">
        <ele>353.42</ele>
        <time>2021-08-16T20:54:54Z</time>
      </trkpt>
      <trkpt lat="44.71463" lon="1.57084">
        <ele>353.42</ele>
        <time>2021-08-16T20:54:55Z</time>
      </trkpt>
      <trkpt lat="44.71462" lon="1.57086">
        <ele>353.9</ele>
        <time>2021-08-16T20:54:56Z</time>
      </trkpt>
      <trkpt lat="44.7146" lon="1.57087">
        <ele>353.9</ele>
        <time>2021-08-16T20:54:57Z</time>
      </trkpt>
      <trkpt lat="44.71459" lon="1.57088">
        <ele>354.38</ele>
        <time>2021-08-16T20:54:58Z</time>
      </trkpt>
      <trkpt lat="44.7145" lon="1.57101">
        <ele>354.86</ele>
        <time>2021-08-16T20:55:06Z</time>
      </trkpt>
      <trkpt lat="44.71437" lon="1.57117">
        <ele>355.34</ele>
        <time>2021-08-16T20:55:15Z</time>
      </trkpt>
      <trkpt lat="44.71424" lon="1.57134">
        <ele>356.31</ele>
        <time>2021-08-16T20:55:24Z</time>
      </trkpt>
      <trkpt lat="44.71408" lon="1.57152">
        <ele>356.79</ele>
        <time>2021-08-16T20:55:33Z</time>
      </trkpt>
      <trkpt lat="44.71393" lon="1.57168">
        <ele>357.27</ele>
        <time>2021-08-16T20:55:41Z</time>
      </trkpt>
      <trkpt lat="44.71376" lon="1.57187">
        <ele>358.23</ele>
        <time>2021-08-16T20:55:49Z</time>
      </trkpt>
      <trkpt lat="44.71362" lon="1.57203">
        <ele>358.71</ele>
        <time>2021-08-16T20:55:56Z</time>
      </trkpt>
      <trkpt lat="44.71346" lon="1.57225">
        <ele>359.19</ele>
        <time>2021-08-16T20:56:04Z</time>
      </trkpt>
      <trkpt lat="44.71321" lon="1.57265">
        <ele>359.19</ele>
        <time>2021-08-16T20:56:15Z</time>
      </trkpt>
      <trkpt lat="44.71311" lon="1.57293">
        <ele>359.19</ele>
        <time>2021-08-16T20:56:21Z</time>
      </trkpt>
      <trkpt lat="44.71304" lon="1.57323">
        <ele>359.19</ele>
        <time>2021-08-16T20:56:27Z</time>
      </trkpt>
      <trkpt lat="44.71294" lon="1.57363">
        <ele>357.75</ele>
        <time>2021-08-16T20:56:34Z</time>
      </trkpt>
      <trkpt lat="44.71287" lon="1.57401">
        <ele>357.75</ele>
        <time>2021-08-16T20:56:42Z</time>
      </trkpt>
      <trkpt lat="44.71276" lon="1.57418">
        <ele>357.75</ele>
        <time>2021-08-16T20:56:47Z</time>
      </trkpt>
      <trkpt lat="44.71275" lon="1.57419">
        <ele>357.75</ele>
        <time>2021-08-16T20:56:48Z</time>
      </trkpt>
      <trkpt lat="44.71273" lon="1.5742">
        <ele>357.75</ele>
        <time>2021-08-16T20:56:53Z</time>
      </trkpt>
      <trkpt lat="44.71274" lon="1.57421">
        <ele>357.75</ele>
        <time>2021-08-16T20:57:06Z</time>
      </trkpt>
      <trkpt lat="44.71273" lon="1.5742">
        <ele>357.75</ele>
        <time>2021-08-16T20:57:26Z</time>
      </trkpt>
      <trkpt lat="44.71273" lon="1.57422">
        <ele>357.75</ele>
        <time>2021-08-16T20:57:49Z</time>
      </trkpt>
      <trkpt lat="44.71272" lon="1.57423">
        <ele>357.75</ele>
        <time>2021-08-16T20:57:50Z</time>
      </trkpt>
      <trkpt lat="44.71268" lon="1.57427">
        <ele>357.75</ele>
        <time>2021-08-16T20:57:53Z</time>
      </trkpt>
      <trkpt lat="44.71253" lon="1.5744">
        <ele>356.79</ele>
        <time>2021-08-16T20:57:59Z</time>
      </trkpt>
      <trkpt lat="44.71233" lon="1.57448">
        <ele>356.31</ele>
        <time>2021-08-16T20:58:05Z</time>
      </trkpt>
      <trkpt lat="44.71228" lon="1.57447">
        <ele>355.34</ele>
        <time>2021-08-16T20:58:06Z</time>
      </trkpt>
      <trkpt lat="44.71223" lon="1.57446">
        <ele>354.86</ele>
        <time>2021-08-16T20:58:07Z</time>
      </trkpt>
      <trkpt lat="44.71217" lon="1.57443">
        <ele>354.38</ele>
        <time>2021-08-16T20:58:08Z</time>
      </trkpt>
      <trkpt lat="44.71211" lon="1.57439">
        <ele>353.9</ele>
        <time>2021-08-16T20:58:09Z</time>
      </trkpt>
      <trkpt lat="44.71205" lon="1.57434">
        <ele>352.94</ele>
        <time>2021-08-16T20:58:10Z</time>
      </trkpt>
      <trkpt lat="44.71199" lon="1.57429">
        <ele>352.94</ele>
        <time>2021-08-16T20:58:11Z</time>
      </trkpt>
      <trkpt lat="44.71186" lon="1.57417">
        <ele>351.5</ele>
        <time>2021-08-16T20:58:13Z</time>
      </trkpt>
      <trkpt lat="44.7113" lon="1.57372">
        <ele>350.54</ele>
        <time>2021-08-16T20:58:22Z</time>
      </trkpt>
      <trkpt lat="44.71083" lon="1.57341">
        <ele>349.1</ele>
        <time>2021-08-16T20:58:30Z</time>
      </trkpt>
      <trkpt lat="44.71064" lon="1.57327">
        <ele>347.17</ele>
        <time>2021-08-16T20:58:33Z</time>
      </trkpt>
      <trkpt lat="44.71015" lon="1.5729">
        <ele>344.29</ele>
        <time>2021-08-16T20:58:40Z</time>
      </trkpt>
      <trkpt lat="44.70958" lon="1.57237">
        <ele>342.37</ele>
        <time>2021-08-16T20:58:49Z</time>
      </trkpt>
      <trkpt lat="44.70941" lon="1.57205">
        <ele>342.37</ele>
        <time>2021-08-16T20:58:54Z</time>
      </trkpt>
      <trkpt lat="44.70931" lon="1.57169">
        <ele>342.37</ele>
        <time>2021-08-16T20:59:00Z</time>
      </trkpt>
      <trkpt lat="44.70918" lon="1.57099">
        <ele>341.41</ele>
        <time>2021-08-16T20:59:10Z</time>
      </trkpt>
      <trkpt lat="44.70907" lon="1.57059">
        <ele>339.48</ele>
        <time>2021-08-16T20:59:15Z</time>
      </trkpt>
      <trkpt lat="44.70885" lon="1.56979">
        <ele>339</ele>
        <time>2021-08-16T20:59:24Z</time>
      </trkpt>
      <trkpt lat="44.70884" lon="1.56971">
        <ele>339</ele>
        <time>2021-08-16T20:59:25Z</time>
      </trkpt>
      <trkpt lat="44.70883" lon="1.56963">
        <ele>339.96</ele>
        <time>2021-08-16T20:59:26Z</time>
      </trkpt>
      <trkpt lat="44.70882" lon="1.56955">
        <ele>340.44</ele>
        <time>2021-08-16T20:59:27Z</time>
      </trkpt>
      <trkpt lat="44.70881" lon="1.56948">
        <ele>340.44</ele>
        <time>2021-08-16T20:59:28Z</time>
      </trkpt>
      <trkpt lat="44.70881" lon="1.56941">
        <ele>340.44</ele>
        <time>2021-08-16T20:59:29Z</time>
      </trkpt>
      <trkpt lat="44.70879" lon="1.5692">
        <ele>342.85</ele>
        <time>2021-08-16T20:59:34Z</time>
      </trkpt>
      <trkpt lat="44.70878" lon="1.56903">
        <ele>343.33</ele>
        <time>2021-08-16T20:59:40Z</time>
      </trkpt>
      <trkpt lat="44.70876" lon="1.56877">
        <ele>344.29</ele>
        <time>2021-08-16T20:59:49Z</time>
      </trkpt>
      <trkpt lat="44.70874" lon="1.56855">
        <ele>345.73</ele>
        <time>2021-08-16T20:59:58Z</time>
      </trkpt>
      <trkpt lat="44.70874" lon="1.56853">
        <ele>346.21</ele>
        <time>2021-08-16T20:59:59Z</time>
      </trkpt>
      <trkpt lat="44.70874" lon="1.5685">
        <ele>346.21</ele>
        <time>2021-08-16T21:00:00Z</time>
      </trkpt>
      <trkpt lat="44.70872" lon="1.56826">
        <ele>347.17</ele>
        <time>2021-08-16T21:00:11Z</time>
      </trkpt>
      <trkpt lat="44.70871" lon="1.56811">
        <ele>348.13</ele>
        <time>2021-08-16T21:00:18Z</time>
      </trkpt>
      <trkpt lat="44.70868" lon="1.56784">
        <ele>349.1</ele>
        <time>2021-08-16T21:00:30Z</time>
      </trkpt>
      <trkpt lat="44.70868" lon="1.56761">
        <ele>350.06</ele>
        <time>2021-08-16T21:00:39Z</time>
      </trkpt>
      <trkpt lat="44.70867" lon="1.56741">
        <ele>350.54</ele>
        <time>2021-08-16T21:00:46Z</time>
      </trkpt>
      <trkpt lat="44.70865" lon="1.56718">
        <ele>351.5</ele>
        <time>2021-08-16T21:00:54Z</time>
      </trkpt>
      <trkpt lat="44.70859" lon="1.56693">
        <ele>351.98</ele>
        <time>2021-08-16T21:01:03Z</time>
      </trkpt>
      <trkpt lat="44.70848" lon="1.56669">
        <ele>351.98</ele>
        <time>2021-08-16T21:01:12Z</time>
      </trkpt>
      <trkpt lat="44.70837" lon="1.5665">
        <ele>352.94</ele>
        <time>2021-08-16T21:01:20Z</time>
      </trkpt>
      <trkpt lat="44.70826" lon="1.56629">
        <ele>353.42</ele>
        <time>2021-08-16T21:01:28Z</time>
      </trkpt>
      <trkpt lat="44.70812" lon="1.56602">
        <ele>353.42</ele>
        <time>2021-08-16T21:01:37Z</time>
      </trkpt>
      <trkpt lat="44.70799" lon="1.56576">
        <ele>355.83</ele>
        <time>2021-08-16T21:01:46Z</time>
      </trkpt>
      <trkpt lat="44.70792" lon="1.56561">
        <ele>355.83</ele>
        <time>2021-08-16T21:01:52Z</time>
      </trkpt>
      <trkpt lat="44.70786" lon="1.56544">
        <ele>356.79</ele>
        <time>2021-08-16T21:01:59Z</time>
      </trkpt>
      <trkpt lat="44.70779" lon="1.56516">
        <ele>357.75</ele>
        <time>2021-08-16T21:02:09Z</time>
      </trkpt>
      <trkpt lat="44.70774" lon="1.56486">
        <ele>357.75</ele>
        <time>2021-08-16T21:02:18Z</time>
      </trkpt>
      <trkpt lat="44.7077" lon="1.56462">
        <ele>358.23</ele>
        <time>2021-08-16T21:02:26Z</time>
      </trkpt>
      <trkpt lat="44.70766" lon="1.56442">
        <ele>359.67</ele>
        <time>2021-08-16T21:02:35Z</time>
      </trkpt>
      <trkpt lat="44.70761" lon="1.56427">
        <ele>360.63</ele>
        <time>2021-08-16T21:02:44Z</time>
      </trkpt>
      <trkpt lat="44.70755" lon="1.56411">
        <ele>361.11</ele>
        <time>2021-08-16T21:02:54Z</time>
      </trkpt>
      <trkpt lat="44.70748" lon="1.56397">
        <ele>362.55</ele>
        <time>2021-08-16T21:03:03Z</time>
      </trkpt>
      <trkpt lat="44.70747" lon="1.56395">
        <ele>362.55</ele>
        <time>2021-08-16T21:03:04Z</time>
      </trkpt>
      <trkpt lat="44.70747" lon="1.56394">
        <ele>362.55</ele>
        <time>2021-08-16T21:03:05Z</time>
      </trkpt>
      <trkpt lat="44.70746" lon="1.56392">
        <ele>363.04</ele>
        <time>2021-08-16T21:03:06Z</time>
      </trkpt>
      <trkpt lat="44.70745" lon="1.5639">
        <ele>363.04</ele>
        <time>2021-08-16T21:03:07Z</time>
      </trkpt>
      <trkpt lat="44.70744" lon="1.56389">
        <ele>363.04</ele>
        <time>2021-08-16T21:03:08Z</time>
      </trkpt>
      <trkpt lat="44.70743" lon="1.56388">
        <ele>363.04</ele>
        <time>2021-08-16T21:03:09Z</time>
      </trkpt>
      <trkpt lat="44.70735" lon="1.56375">
        <ele>364.96</ele>
        <time>2021-08-16T21:03:18Z</time>
      </trkpt>
      <trkpt lat="44.70725" lon="1.56363">
        <ele>366.4</ele>
        <time>2021-08-16T21:03:29Z</time>
      </trkpt>
      <trkpt lat="44.70719" lon="1.56359">
        <ele>367.36</ele>
        <time>2021-08-16T21:03:34Z</time>
      </trkpt>
      <trkpt lat="44.70719" lon="1.56358">
        <ele>367.36</ele>
        <time>2021-08-16T21:03:35Z</time>
      </trkpt>
      <trkpt lat="44.70718" lon="1.56356">
        <ele>367.36</ele>
        <time>2021-08-16T21:03:36Z</time>
      </trkpt>
      <trkpt lat="44.70717" lon="1.56355">
        <ele>367.36</ele>
        <time>2021-08-16T21:03:37Z</time>
      </trkpt>
      <trkpt lat="44.70716" lon="1.56354">
        <ele>367.36</ele>
        <time>2021-08-16T21:03:38Z</time>
      </trkpt>
      <trkpt lat="44.70715" lon="1.56353">
        <ele>367.84</ele>
        <time>2021-08-16T21:03:39Z</time>
      </trkpt>
      <trkpt lat="44.70714" lon="1.56352">
        <ele>367.84</ele>
        <time>2021-08-16T21:03:40Z</time>
      </trkpt>
      <trkpt lat="44.70713" lon="1.56351">
        <ele>367.84</ele>
        <time>2021-08-16T21:03:41Z</time>
      </trkpt>
      <trkpt lat="44.70712" lon="1.5635">
        <ele>368.32</ele>
        <time>2021-08-16T21:03:42Z</time>
      </trkpt>
      <trkpt lat="44.70705" lon="1.56343">
        <ele>368.8</ele>
        <time>2021-08-16T21:03:49Z</time>
      </trkpt>
      <trkpt lat="44.70698" lon="1.56335">
        <ele>370.73</ele>
        <time>2021-08-16T21:03:56Z</time>
      </trkpt>
      <trkpt lat="44.70688" lon="1.56326">
        <ele>371.21</ele>
        <time>2021-08-16T21:04:04Z</time>
      </trkpt>
      <trkpt lat="44.70677" lon="1.56313">
        <ele>372.17</ele>
        <time>2021-08-16T21:04:12Z</time>
      </trkpt>
      <trkpt lat="44.70665" lon="1.56306">
        <ele>372.65</ele>
        <time>2021-08-16T21:04:19Z</time>
      </trkpt>
      <trkpt lat="44.70643" lon="1.56295">
        <ele>373.13</ele>
        <time>2021-08-16T21:04:28Z</time>
      </trkpt>
      <trkpt lat="44.70623" lon="1.56288">
        <ele>373.13</ele>
        <time>2021-08-16T21:04:35Z</time>
      </trkpt>
      <trkpt lat="44.70606" lon="1.56281">
        <ele>373.13</ele>
        <time>2021-08-16T21:04:41Z</time>
      </trkpt>
      <trkpt lat="44.70574" lon="1.56271">
        <ele>373.13</ele>
        <time>2021-08-16T21:04:50Z</time>
      </trkpt>
      <trkpt lat="44.70546" lon="1.56256">
        <ele>371.69</ele>
        <time>2021-08-16T21:04:59Z</time>
      </trkpt>
      <trkpt lat="44.70515" lon="1.56228">
        <ele>370.73</ele>
        <time>2021-08-16T21:05:08Z</time>
      </trkpt>
      <trkpt lat="44.70509" lon="1.56224">
        <ele>370.24</ele>
        <time>2021-08-16T21:05:11Z</time>
      </trkpt>
      <trkpt lat="44.70507" lon="1.56225">
        <ele>370.24</ele>
        <time>2021-08-16T21:05:12Z</time>
      </trkpt>
      <trkpt lat="44.70507" lon="1.56227">
        <ele>370.24</ele>
        <time>2021-08-16T21:05:13Z</time>
      </trkpt>
      <trkpt lat="44.70506" lon="1.56229">
        <ele>370.24</ele>
        <time>2021-08-16T21:05:14Z</time>
      </trkpt>
      <trkpt lat="44.70505" lon="1.56232">
        <ele>370.24</ele>
        <time>2021-08-16T21:05:15Z</time>
      </trkpt>
      <trkpt lat="44.70503" lon="1.56235">
        <ele>370.24</ele>
        <time>2021-08-16T21:05:16Z</time>
      </trkpt>
      <trkpt lat="44.70502" lon="1.56238">
        <ele>370.24</ele>
        <time>2021-08-16T21:05:17Z</time>
      </trkpt>
      <trkpt lat="44.70489" lon="1.56253">
        <ele>372.17</ele>
        <time>2021-08-16T21:05:24Z</time>
      </trkpt>
      <trkpt lat="44.70472" lon="1.56247">
        <ele>372.17</ele>
        <time>2021-08-16T21:05:30Z</time>
      </trkpt>
      <trkpt lat="44.70449" lon="1.56231">
        <ele>372.17</ele>
        <time>2021-08-16T21:05:38Z</time>
      </trkpt>
      <trkpt lat="44.70424" lon="1.56221">
        <ele>372.17</ele>
        <time>2021-08-16T21:05:45Z</time>
      </trkpt>
      <trkpt lat="44.70414" lon="1.56219">
        <ele>370.73</ele>
        <time>2021-08-16T21:05:47Z</time>
      </trkpt>
      <trkpt lat="44.70376" lon="1.56215">
        <ele>369.76</ele>
        <time>2021-08-16T21:05:55Z</time>
      </trkpt>
      <trkpt lat="44.70371" lon="1.56215">
        <ele>369.76</ele>
        <time>2021-08-16T21:05:56Z</time>
      </trkpt>
      <trkpt lat="44.70324" lon="1.56227">
        <ele>368.32</ele>
        <time>2021-08-16T21:06:05Z</time>
      </trkpt>
      <trkpt lat="44.70291" lon="1.56227">
        <ele>367.36</ele>
        <time>2021-08-16T21:06:11Z</time>
      </trkpt>
      <trkpt lat="44.70285" lon="1.56225">
        <ele>366.88</ele>
        <time>2021-08-16T21:06:12Z</time>
      </trkpt>
      <trkpt lat="44.7028" lon="1.56222">
        <ele>366.88</ele>
        <time>2021-08-16T21:06:13Z</time>
      </trkpt>
      <trkpt lat="44.70276" lon="1.56219">
        <ele>366.88</ele>
        <time>2021-08-16T21:06:14Z</time>
      </trkpt>
      <trkpt lat="44.70272" lon="1.56216">
        <ele>366.4</ele>
        <time>2021-08-16T21:06:15Z</time>
      </trkpt>
      <trkpt lat="44.70268" lon="1.56213">
        <ele>366.4</ele>
        <time>2021-08-16T21:06:16Z</time>
      </trkpt>
      <trkpt lat="44.70264" lon="1.5621">
        <ele>366.4</ele>
        <time>2021-08-16T21:06:17Z</time>
      </trkpt>
      <trkpt lat="44.7026" lon="1.56208">
        <ele>365.92</ele>
        <time>2021-08-16T21:06:18Z</time>
      </trkpt>
      <trkpt lat="44.70255" lon="1.56206">
        <ele>364.96</ele>
        <time>2021-08-16T21:06:19Z</time>
      </trkpt>
      <trkpt lat="44.70246" lon="1.56203">
        <ele>364.96</ele>
        <time>2021-08-16T21:06:21Z</time>
      </trkpt>
      <trkpt lat="44.70242" lon="1.56202">
        <ele>364.48</ele>
        <time>2021-08-16T21:06:22Z</time>
      </trkpt>
      <trkpt lat="44.70219" lon="1.56199">
        <ele>363.52</ele>
        <time>2021-08-16T21:06:28Z</time>
      </trkpt>
      <trkpt lat="44.70213" lon="1.562">
        <ele>363.52</ele>
        <time>2021-08-16T21:06:32Z</time>
      </trkpt>
      <trkpt lat="44.70211" lon="1.56201">
        <ele>363.52</ele>
        <time>2021-08-16T21:06:33Z</time>
      </trkpt>
      <trkpt lat="44.7021" lon="1.56203">
        <ele>363.52</ele>
        <time>2021-08-16T21:06:34Z</time>
      </trkpt>
      <trkpt lat="44.70199" lon="1.56225">
        <ele>363.04</ele>
        <time>2021-08-16T21:06:41Z</time>
      </trkpt>
      <trkpt lat="44.70194" lon="1.56239">
        <ele>362.55</ele>
        <time>2021-08-16T21:06:44Z</time>
      </trkpt>
      <trkpt lat="44.70187" lon="1.56258">
        <ele>361.11</ele>
        <time>2021-08-16T21:06:47Z</time>
      </trkpt>
      <trkpt lat="44.70172" lon="1.56304">
        <ele>359.67</ele>
        <time>2021-08-16T21:06:53Z</time>
      </trkpt>
      <trkpt lat="44.7017" lon="1.56313">
        <ele>359.19</ele>
        <time>2021-08-16T21:06:54Z</time>
      </trkpt>
      <trkpt lat="44.70145" lon="1.56388">
        <ele>358.23</ele>
        <time>2021-08-16T21:07:04Z</time>
      </trkpt>
      <trkpt lat="44.70128" lon="1.56424">
        <ele>358.23</ele>
        <time>2021-08-16T21:07:10Z</time>
      </trkpt>
      <trkpt lat="44.70124" lon="1.56428">
        <ele>358.23</ele>
        <time>2021-08-16T21:07:11Z</time>
      </trkpt>
      <trkpt lat="44.7012" lon="1.5643">
        <ele>358.23</ele>
        <time>2021-08-16T21:07:12Z</time>
      </trkpt>
      <trkpt lat="44.70116" lon="1.56432">
        <ele>358.23</ele>
        <time>2021-08-16T21:07:13Z</time>
      </trkpt>
      <trkpt lat="44.70111" lon="1.56433">
        <ele>358.23</ele>
        <time>2021-08-16T21:07:14Z</time>
      </trkpt>
      <trkpt lat="44.70065" lon="1.56436">
        <ele>355.83</ele>
        <time>2021-08-16T21:07:23Z</time>
      </trkpt>
      <trkpt lat="44.7006" lon="1.56437">
        <ele>355.83</ele>
        <time>2021-08-16T21:07:24Z</time>
      </trkpt>
      <trkpt lat="44.70014" lon="1.56438">
        <ele>352.46</ele>
        <time>2021-08-16T21:07:31Z</time>
      </trkpt>
      <trkpt lat="44.6999" lon="1.56436">
        <ele>350.54</ele>
        <time>2021-08-16T21:07:34Z</time>
      </trkpt>
      <trkpt lat="44.69924" lon="1.56425">
        <ele>347.65</ele>
        <time>2021-08-16T21:07:42Z</time>
      </trkpt>
      <trkpt lat="44.69863" lon="1.56409">
        <ele>346.21</ele>
        <time>2021-08-16T21:07:50Z</time>
      </trkpt>
      <trkpt lat="44.69844" lon="1.56399">
        <ele>344.29</ele>
        <time>2021-08-16T21:07:53Z</time>
      </trkpt>
      <trkpt lat="44.69818" lon="1.56388">
        <ele>342.85</ele>
        <time>2021-08-16T21:07:57Z</time>
      </trkpt>
      <trkpt lat="44.69804" lon="1.56385">
        <ele>341.89</ele>
        <time>2021-08-16T21:07:59Z</time>
      </trkpt>
      <trkpt lat="44.69745" lon="1.56377">
        <ele>339</ele>
        <time>2021-08-16T21:08:07Z</time>
      </trkpt>
      <trkpt lat="44.69713" lon="1.56372">
        <ele>338.04</ele>
        <time>2021-08-16T21:08:12Z</time>
      </trkpt>
      <trkpt lat="44.69695" lon="1.56367">
        <ele>336.6</ele>
        <time>2021-08-16T21:08:15Z</time>
      </trkpt>
      <trkpt lat="44.69675" lon="1.56355">
        <ele>335.16</ele>
        <time>2021-08-16T21:08:19Z</time>
      </trkpt>
      <trkpt lat="44.69671" lon="1.56351">
        <ele>334.2</ele>
        <time>2021-08-16T21:08:20Z</time>
      </trkpt>
      <trkpt lat="44.69667" lon="1.56346">
        <ele>334.2</ele>
        <time>2021-08-16T21:08:21Z</time>
      </trkpt>
      <trkpt lat="44.6966" lon="1.56339">
        <ele>333.23</ele>
        <time>2021-08-16T21:08:23Z</time>
      </trkpt>
      <trkpt lat="44.69648" lon="1.5633">
        <ele>332.27</ele>
        <time>2021-08-16T21:08:26Z</time>
      </trkpt>
      <trkpt lat="44.69643" lon="1.56326">
        <ele>332.27</ele>
        <time>2021-08-16T21:08:27Z</time>
      </trkpt>
      <trkpt lat="44.69639" lon="1.56322">
        <ele>331.31</ele>
        <time>2021-08-16T21:08:28Z</time>
      </trkpt>
      <trkpt lat="44.69599" lon="1.56292">
        <ele>327.95</ele>
        <time>2021-08-16T21:08:36Z</time>
      </trkpt>
      <trkpt lat="44.69589" lon="1.56285">
        <ele>327.47</ele>
        <time>2021-08-16T21:08:38Z</time>
      </trkpt>
      <trkpt lat="44.69583" lon="1.56282">
        <ele>326.99</ele>
        <time>2021-08-16T21:08:39Z</time>
      </trkpt>
      <trkpt lat="44.69577" lon="1.56278">
        <ele>326.99</ele>
        <time>2021-08-16T21:08:40Z</time>
      </trkpt>
      <trkpt lat="44.69555" lon="1.56265">
        <ele>324.58</ele>
        <time>2021-08-16T21:08:45Z</time>
      </trkpt>
      <trkpt lat="44.69539" lon="1.56264">
        <ele>321.7</ele>
        <time>2021-08-16T21:08:50Z</time>
      </trkpt>
      <trkpt lat="44.69522" lon="1.56272">
        <ele>318.33</ele>
        <time>2021-08-16T21:08:55Z</time>
      </trkpt>
      <trkpt lat="44.69517" lon="1.56273">
        <ele>317.37</ele>
        <time>2021-08-16T21:08:57Z</time>
      </trkpt>
      <trkpt lat="44.69515" lon="1.56273">
        <ele>316.41</ele>
        <time>2021-08-16T21:08:58Z</time>
      </trkpt>
      <trkpt lat="44.69512" lon="1.56273">
        <ele>315.93</ele>
        <time>2021-08-16T21:08:59Z</time>
      </trkpt>
      <trkpt lat="44.6951" lon="1.56273">
        <ele>315.45</ele>
        <time>2021-08-16T21:09:00Z</time>
      </trkpt>
      <trkpt lat="44.69508" lon="1.56274">
        <ele>314.97</ele>
        <time>2021-08-16T21:09:01Z</time>
      </trkpt>
      <trkpt lat="44.69497" lon="1.5628">
        <ele>311.6</ele>
        <time>2021-08-16T21:09:06Z</time>
      </trkpt>
      <trkpt lat="44.69492" lon="1.56283">
        <ele>309.68</ele>
        <time>2021-08-16T21:09:09Z</time>
      </trkpt>
      <trkpt lat="44.6949" lon="1.56283">
        <ele>309.2</ele>
        <time>2021-08-16T21:09:10Z</time>
      </trkpt>
      <trkpt lat="44.69488" lon="1.56283">
        <ele>308.72</ele>
        <time>2021-08-16T21:09:11Z</time>
      </trkpt>
      <trkpt lat="44.69486" lon="1.56281">
        <ele>307.76</ele>
        <time>2021-08-16T21:09:12Z</time>
      </trkpt>
      <trkpt lat="44.69484" lon="1.56281">
        <ele>307.28</ele>
        <time>2021-08-16T21:09:13Z</time>
      </trkpt>
      <trkpt lat="44.69482" lon="1.5628">
        <ele>307.28</ele>
        <time>2021-08-16T21:09:14Z</time>
      </trkpt>
      <trkpt lat="44.69472" lon="1.56272">
        <ele>304.39</ele>
        <time>2021-08-16T21:09:21Z</time>
      </trkpt>
      <trkpt lat="44.69461" lon="1.5626">
        <ele>301.03</ele>
        <time>2021-08-16T21:09:28Z</time>
      </trkpt>
      <trkpt lat="44.69449" lon="1.56252">
        <ele>299.11</ele>
        <time>2021-08-16T21:09:34Z</time>
      </trkpt>
      <trkpt lat="44.69446" lon="1.56253">
        <ele>298.63</ele>
        <time>2021-08-16T21:09:35Z</time>
      </trkpt>
      <trkpt lat="44.69443" lon="1.56256">
        <ele>298.15</ele>
        <time>2021-08-16T21:09:36Z</time>
      </trkpt>
      <trkpt lat="44.69442" lon="1.56259">
        <ele>298.15</ele>
        <time>2021-08-16T21:09:37Z</time>
      </trkpt>
      <trkpt lat="44.6944" lon="1.56263">
        <ele>298.15</ele>
        <time>2021-08-16T21:09:38Z</time>
      </trkpt>
      <trkpt lat="44.69421" lon="1.56293">
        <ele>297.18</ele>
        <time>2021-08-16T21:09:45Z</time>
      </trkpt>
      <trkpt lat="44.69418" lon="1.56297">
        <ele>297.18</ele>
        <time>2021-08-16T21:09:46Z</time>
      </trkpt>
      <trkpt lat="44.69393" lon="1.56326">
        <ele>296.7</ele>
        <time>2021-08-16T21:09:54Z</time>
      </trkpt>
      <trkpt lat="44.69375" lon="1.56343">
        <ele>296.7</ele>
        <time>2021-08-16T21:10:02Z</time>
      </trkpt>
      <trkpt lat="44.69357" lon="1.56352">
        <ele>298.15</ele>
        <time>2021-08-16T21:10:11Z</time>
      </trkpt>
      <trkpt lat="44.69338" lon="1.56361">
        <ele>299.11</ele>
        <time>2021-08-16T21:10:21Z</time>
      </trkpt>
      <trkpt lat="44.69322" lon="1.56369">
        <ele>299.59</ele>
        <time>2021-08-16T21:10:29Z</time>
      </trkpt>
      <trkpt lat="44.69307" lon="1.56378">
        <ele>300.07</ele>
        <time>2021-08-16T21:10:37Z</time>
      </trkpt>
      <trkpt lat="44.693" lon="1.56381">
        <ele>300.55</ele>
        <time>2021-08-16T21:10:41Z</time>
      </trkpt>
      <trkpt lat="44.69299" lon="1.56383">
        <ele>300.55</ele>
        <time>2021-08-16T21:10:42Z</time>
      </trkpt>
      <trkpt lat="44.69297" lon="1.56384">
        <ele>300.55</ele>
        <time>2021-08-16T21:10:43Z</time>
      </trkpt>
      <trkpt lat="44.69279" lon="1.56396">
        <ele>301.51</ele>
        <time>2021-08-16T21:10:55Z</time>
      </trkpt>
      <trkpt lat="44.69261" lon="1.56407">
        <ele>301.99</ele>
        <time>2021-08-16T21:11:06Z</time>
      </trkpt>
      <trkpt lat="44.69252" lon="1.56414">
        <ele>302.47</ele>
        <time>2021-08-16T21:11:12Z</time>
      </trkpt>
      <trkpt lat="44.69251" lon="1.56414">
        <ele>302.47</ele>
        <time>2021-08-16T21:11:13Z</time>
      </trkpt>
      <trkpt lat="44.6925" lon="1.56415">
        <ele>302.47</ele>
        <time>2021-08-16T21:11:14Z</time>
      </trkpt>
      <trkpt lat="44.69247" lon="1.56416">
        <ele>302.47</ele>
        <time>2021-08-16T21:11:20Z</time>
      </trkpt>
      <trkpt lat="44.69248" lon="1.56417">
        <ele>302.95</ele>
        <time>2021-08-16T21:11:39Z</time>
      </trkpt>
      <trkpt lat="44.69248" lon="1.56417">
        <ele>302.95</ele>
        <time>2021-08-16T21:11:55Z</time>
      </trkpt>
      <trkpt lat="44.69247" lon="1.56418">
        <ele>302.95</ele>
        <time>2021-08-16T21:12:14Z</time>
      </trkpt>
      <trkpt lat="44.69241" lon="1.56422">
        <ele>302.95</ele>
        <time>2021-08-16T21:12:20Z</time>
      </trkpt>
      <trkpt lat="44.6923" lon="1.56431">
        <ele>303.43</ele>
        <time>2021-08-16T21:12:29Z</time>
      </trkpt>
      <trkpt lat="44.69217" lon="1.56443">
        <ele>303.43</ele>
        <time>2021-08-16T21:12:37Z</time>
      </trkpt>
      <trkpt lat="44.69197" lon="1.56458">
        <ele>303.91</ele>
        <time>2021-08-16T21:12:47Z</time>
      </trkpt>
      <trkpt lat="44.69175" lon="1.56476">
        <ele>304.39</ele>
        <time>2021-08-16T21:12:58Z</time>
      </trkpt>
      <trkpt lat="44.69152" lon="1.56494">
        <ele>304.88</ele>
        <time>2021-08-16T21:13:08Z</time>
      </trkpt>
      <trkpt lat="44.69132" lon="1.56509">
        <ele>304.88</ele>
        <time>2021-08-16T21:13:17Z</time>
      </trkpt>
      <trkpt lat="44.69118" lon="1.56507">
        <ele>304.88</ele>
        <time>2021-08-16T21:13:23Z</time>
      </trkpt>
      <trkpt lat="44.69101" lon="1.56487">
        <ele>303.91</ele>
        <time>2021-08-16T21:13:29Z</time>
      </trkpt>
      <trkpt lat="44.69099" lon="1.56482">
        <ele>303.91</ele>
        <time>2021-08-16T21:13:30Z</time>
      </trkpt>
      <trkpt lat="44.69089" lon="1.56459">
        <ele>302.95</ele>
        <time>2021-08-16T21:13:34Z</time>
      </trkpt>
      <trkpt lat="44.69088" lon="1.56454">
        <ele>302.95</ele>
        <time>2021-08-16T21:13:35Z</time>
      </trkpt>
      <trkpt lat="44.69075" lon="1.564">
        <ele>302.47</ele>
        <time>2021-08-16T21:13:44Z</time>
      </trkpt>
      <trkpt lat="44.69068" lon="1.56369">
        <ele>303.91</ele>
        <time>2021-08-16T21:13:51Z</time>
      </trkpt>
      <trkpt lat="44.69052" lon="1.56358">
        <ele>304.88</ele>
        <time>2021-08-16T21:13:59Z</time>
      </trkpt>
      <trkpt lat="44.69049" lon="1.56357">
        <ele>305.36</ele>
        <time>2021-08-16T21:14:01Z</time>
      </trkpt>
      <trkpt lat="44.69047" lon="1.56357">
        <ele>305.36</ele>
        <time>2021-08-16T21:14:02Z</time>
      </trkpt>
      <trkpt lat="44.69033" lon="1.56356">
        <ele>306.32</ele>
        <time>2021-08-16T21:14:11Z</time>
      </trkpt>
      <trkpt lat="44.69031" lon="1.56357">
        <ele>306.32</ele>
        <time>2021-08-16T21:14:13Z</time>
      </trkpt>
      <trkpt lat="44.6903" lon="1.56358">
        <ele>306.32</ele>
        <time>2021-08-16T21:14:14Z</time>
      </trkpt>
      <trkpt lat="44.69028" lon="1.5636">
        <ele>305.84</ele>
        <time>2021-08-16T21:14:19Z</time>
      </trkpt>
      <trkpt lat="44.6903" lon="1.56358">
        <ele>306.32</ele>
        <time>2021-08-16T21:14:34Z</time>
      </trkpt>
      <trkpt lat="44.69035" lon="1.56358">
        <ele>306.32</ele>
        <time>2021-08-16T21:14:36Z</time>
      </trkpt>
      <trkpt lat="44.69044" lon="1.56359">
        <ele>304.88</ele>
        <time>2021-08-16T21:14:39Z</time>
      </trkpt>
      <trkpt lat="44.69052" lon="1.5636">
        <ele>304.39</ele>
        <time>2021-08-16T21:14:41Z</time>
      </trkpt>
      <trkpt lat="44.69056" lon="1.56362">
        <ele>304.39</ele>
        <time>2021-08-16T21:14:42Z</time>
      </trkpt>
      <trkpt lat="44.6906" lon="1.56366">
        <ele>303.91</ele>
        <time>2021-08-16T21:14:43Z</time>
      </trkpt>
      <trkpt lat="44.69063" lon="1.56369">
        <ele>303.91</ele>
        <time>2021-08-16T21:14:44Z</time>
      </trkpt>
      <trkpt lat="44.69065" lon="1.56373">
        <ele>303.91</ele>
        <time>2021-08-16T21:14:45Z</time>
      </trkpt>
      <trkpt lat="44.69067" lon="1.56378">
        <ele>303.43</ele>
        <time>2021-08-16T21:14:46Z</time>
      </trkpt>
      <trkpt lat="44.69069" lon="1.56384">
        <ele>303.43</ele>
        <time>2021-08-16T21:14:47Z</time>
      </trkpt>
      <trkpt lat="44.69068" lon="1.56387">
        <ele>303.43</ele>
        <time>2021-08-16T21:14:48Z</time>
      </trkpt>
      <trkpt lat="44.69066" lon="1.5639">
        <ele>302.95</ele>
        <time>2021-08-16T21:14:49Z</time>
      </trkpt>
      <trkpt lat="44.69064" lon="1.56391">
        <ele>303.43</ele>
        <time>2021-08-16T21:14:50Z</time>
      </trkpt>
      <trkpt lat="44.6906" lon="1.56392">
        <ele>302.47</ele>
        <time>2021-08-16T21:14:51Z</time>
      </trkpt>
      <trkpt lat="44.69056" lon="1.56393">
        <ele>302.47</ele>
        <time>2021-08-16T21:14:52Z</time>
      </trkpt>
      <trkpt lat="44.69025" lon="1.56396">
        <ele>301.99</ele>
        <time>2021-08-16T21:15:01Z</time>
      </trkpt>
      <trkpt lat="44.69009" lon="1.56395">
        <ele>301.99</ele>
        <time>2021-08-16T21:15:08Z</time>
      </trkpt>
      <trkpt lat="44.68999" lon="1.56394">
        <ele>302.95</ele>
        <time>2021-08-16T21:15:13Z</time>
      </trkpt>
      <trkpt lat="44.68997" lon="1.56393">
        <ele>302.95</ele>
        <time>2021-08-16T21:15:14Z</time>
      </trkpt>
      <trkpt lat="44.68996" lon="1.56393">
        <ele>302.95</ele>
        <time>2021-08-16T21:15:15Z</time>
      </trkpt>
      <trkpt lat="44.68994" lon="1.56394">
        <ele>302.95</ele>
        <time>2021-08-16T21:15:16Z</time>
      </trkpt>
      <trkpt lat="44.68991" lon="1.56394">
        <ele>302.95</ele>
        <time>2021-08-16T21:15:17Z</time>
      </trkpt>
      <trkpt lat="44.68989" lon="1.56393">
        <ele>302.95</ele>
        <time>2021-08-16T21:15:18Z</time>
      </trkpt>
      <trkpt lat="44.68987" lon="1.56393">
        <ele>302.95</ele>
        <time>2021-08-16T21:15:19Z</time>
      </trkpt>
      <trkpt lat="44.68985" lon="1.56393">
        <ele>302.95</ele>
        <time>2021-08-16T21:15:20Z</time>
      </trkpt>
      <trkpt lat="44.68965" lon="1.56393">
        <ele>303.91</ele>
        <time>2021-08-16T21:15:28Z</time>
      </trkpt>
      <trkpt lat="44.68944" lon="1.56395">
        <ele>304.39</ele>
        <time>2021-08-16T21:15:36Z</time>
      </trkpt>
      <trkpt lat="44.68919" lon="1.56397">
        <ele>304.88</ele>
        <time>2021-08-16T21:15:45Z</time>
      </trkpt>
      <trkpt lat="44.68891" lon="1.56399">
        <ele>304.88</ele>
        <time>2021-08-16T21:15:55Z</time>
      </trkpt>
      <trkpt lat="44.68871" lon="1.56394">
        <ele>305.36</ele>
        <time>2021-08-16T21:16:03Z</time>
      </trkpt>
      <trkpt lat="44.68859" lon="1.5639">
        <ele>305.84</ele>
        <time>2021-08-16T21:16:10Z</time>
      </trkpt>
      <trkpt lat="44.68846" lon="1.56386">
        <ele>306.32</ele>
        <time>2021-08-16T21:16:15Z</time>
      </trkpt>
      <trkpt lat="44.6883" lon="1.56379">
        <ele>306.8</ele>
        <time>2021-08-16T21:16:23Z</time>
      </trkpt>
      <trkpt lat="44.68815" lon="1.5637">
        <ele>307.76</ele>
        <time>2021-08-16T21:16:30Z</time>
      </trkpt>
      <trkpt lat="44.68804" lon="1.56361">
        <ele>308.72</ele>
        <time>2021-08-16T21:16:38Z</time>
      </trkpt>
      <trkpt lat="44.68797" lon="1.56356">
        <ele>309.68</ele>
        <time>2021-08-16T21:16:48Z</time>
      </trkpt>
      <trkpt lat="44.68789" lon="1.56349">
        <ele>311.12</ele>
        <time>2021-08-16T21:16:57Z</time>
      </trkpt>
      <trkpt lat="44.6878" lon="1.56338">
        <ele>312.57</ele>
        <time>2021-08-16T21:17:08Z</time>
      </trkpt>
      <trkpt lat="44.68775" lon="1.56331">
        <ele>313.53</ele>
        <time>2021-08-16T21:17:16Z</time>
      </trkpt>
      <trkpt lat="44.68768" lon="1.5632">
        <ele>314.97</ele>
        <time>2021-08-16T21:17:27Z</time>
      </trkpt>
      <trkpt lat="44.68764" lon="1.56312">
        <ele>316.41</ele>
        <time>2021-08-16T21:17:38Z</time>
      </trkpt>
      <trkpt lat="44.68765" lon="1.5631">
        <ele>316.41</ele>
        <time>2021-08-16T21:17:52Z</time>
      </trkpt>
      <trkpt lat="44.68762" lon="1.56305">
        <ele>316.89</ele>
        <time>2021-08-16T21:18:03Z</time>
      </trkpt>
      <trkpt lat="44.68757" lon="1.56297">
        <ele>317.85</ele>
        <time>2021-08-16T21:18:12Z</time>
      </trkpt>
      <trkpt lat="44.68752" lon="1.56289">
        <ele>318.81</ele>
        <time>2021-08-16T21:18:21Z</time>
      </trkpt>
      <trkpt lat="44.68746" lon="1.56282">
        <ele>319.78</ele>
        <time>2021-08-16T21:18:30Z</time>
      </trkpt>
      <trkpt lat="44.68741" lon="1.56274">
        <ele>320.26</ele>
        <time>2021-08-16T21:18:39Z</time>
      </trkpt>
      <trkpt lat="44.68733" lon="1.56263">
        <ele>321.7</ele>
        <time>2021-08-16T21:18:51Z</time>
      </trkpt>
      <trkpt lat="44.68728" lon="1.56255">
        <ele>322.66</ele>
        <time>2021-08-16T21:18:59Z</time>
      </trkpt>
      <trkpt lat="44.68725" lon="1.5625">
        <ele>323.62</ele>
        <time>2021-08-16T21:19:08Z</time>
      </trkpt>
      <trkpt lat="44.6872" lon="1.56241">
        <ele>325.06</ele>
        <time>2021-08-16T21:19:18Z</time>
      </trkpt>
      <trkpt lat="44.68716" lon="1.5623">
        <ele>326.02</ele>
        <time>2021-08-16T21:19:30Z</time>
      </trkpt>
      <trkpt lat="44.68718" lon="1.56221">
        <ele>327.47</ele>
        <time>2021-08-16T21:19:39Z</time>
      </trkpt>
      <trkpt lat="44.68723" lon="1.56217">
        <ele>327.95</ele>
        <time>2021-08-16T21:19:46Z</time>
      </trkpt>
      <trkpt lat="44.68732" lon="1.56211">
        <ele>329.87</ele>
        <time>2021-08-16T21:19:57Z</time>
      </trkpt>
      <trkpt lat="44.68735" lon="1.5621">
        <ele>329.87</ele>
        <time>2021-08-16T21:20:07Z</time>
      </trkpt>
      <trkpt lat="44.68737" lon="1.5621">
        <ele>329.87</ele>
        <time>2021-08-16T21:20:23Z</time>
      </trkpt>
      <trkpt lat="44.68744" lon="1.562">
        <ele>330.83</ele>
        <time>2021-08-16T21:20:33Z</time>
      </trkpt>
      <trkpt lat="44.6875" lon="1.56188">
        <ele>331.31</ele>
        <time>2021-08-16T21:20:42Z</time>
      </trkpt>
      <trkpt lat="44.68751" lon="1.56182">
        <ele>332.27</ele>
        <time>2021-08-16T21:20:46Z</time>
      </trkpt>
      <trkpt lat="44.68751" lon="1.56181">
        <ele>332.27</ele>
        <time>2021-08-16T21:20:47Z</time>
      </trkpt>
      <trkpt lat="44.68752" lon="1.56179">
        <ele>332.75</ele>
        <time>2021-08-16T21:20:48Z</time>
      </trkpt>
      <trkpt lat="44.68753" lon="1.56175">
        <ele>332.75</ele>
        <time>2021-08-16T21:20:54Z</time>
      </trkpt>
      <trkpt lat="44.68756" lon="1.5616">
        <ele>333.23</ele>
        <time>2021-08-16T21:21:03Z</time>
      </trkpt>
      <trkpt lat="44.68757" lon="1.56156">
        <ele>333.23</ele>
        <time>2021-08-16T21:21:05Z</time>
      </trkpt>
      <trkpt lat="44.6876" lon="1.56153">
        <ele>333.71</ele>
        <time>2021-08-16T21:21:09Z</time>
      </trkpt>
      <trkpt lat="44.68761" lon="1.5615">
        <ele>333.71</ele>
        <time>2021-08-16T21:21:10Z</time>
      </trkpt>
      <trkpt lat="44.68761" lon="1.56149">
        <ele>333.71</ele>
        <time>2021-08-16T21:21:11Z</time>
      </trkpt>
      <trkpt lat="44.68763" lon="1.56143">
        <ele>334.2</ele>
        <time>2021-08-16T21:21:19Z</time>
      </trkpt>
      <trkpt lat="44.68762" lon="1.56146">
        <ele>334.2</ele>
        <time>2021-08-16T21:21:20Z</time>
      </trkpt>
      <trkpt lat="44.68759" lon="1.56154">
        <ele>334.2</ele>
        <time>2021-08-16T21:21:27Z</time>
      </trkpt>
      <trkpt lat="44.68758" lon="1.56153">
        <ele>334.2</ele>
        <time>2021-08-16T21:21:41Z</time>
      </trkpt>
      <trkpt lat="44.68755" lon="1.56162">
        <ele>334.2</ele>
        <time>2021-08-16T21:21:46Z</time>
      </trkpt>
      <trkpt lat="44.68751" lon="1.56179">
        <ele>333.23</ele>
        <time>2021-08-16T21:21:52Z</time>
      </trkpt>
      <trkpt lat="44.68744" lon="1.56204">
        <ele>330.83</ele>
        <time>2021-08-16T21:22:00Z</time>
      </trkpt>
      <trkpt lat="44.6874" lon="1.56207">
        <ele>330.83</ele>
        <time>2021-08-16T21:22:02Z</time>
      </trkpt>
      <trkpt lat="44.68738" lon="1.56206">
        <ele>329.87</ele>
        <time>2021-08-16T21:22:03Z</time>
      </trkpt>
      <trkpt lat="44.68736" lon="1.56204">
        <ele>329.87</ele>
        <time>2021-08-16T21:22:04Z</time>
      </trkpt>
      <trkpt lat="44.68734" lon="1.56202">
        <ele>329.87</ele>
        <time>2021-08-16T21:22:05Z</time>
      </trkpt>
      <trkpt lat="44.68733" lon="1.56201">
        <ele>329.87</ele>
        <time>2021-08-16T21:22:06Z</time>
      </trkpt>
      <trkpt lat="44.68732" lon="1.56199">
        <ele>329.87</ele>
        <time>2021-08-16T21:22:07Z</time>
      </trkpt>
      <trkpt lat="44.68731" lon="1.56198">
        <ele>329.87</ele>
        <time>2021-08-16T21:22:08Z</time>
      </trkpt>
      <trkpt lat="44.68729" lon="1.56196">
        <ele>329.87</ele>
        <time>2021-08-16T21:22:09Z</time>
      </trkpt>
      <trkpt lat="44.68728" lon="1.56194">
        <ele>329.87</ele>
        <time>2021-08-16T21:22:10Z</time>
      </trkpt>
      <trkpt lat="44.68726" lon="1.56193">
        <ele>329.87</ele>
        <time>2021-08-16T21:22:11Z</time>
      </trkpt>
      <trkpt lat="44.68725" lon="1.56192">
        <ele>329.87</ele>
        <time>2021-08-16T21:22:12Z</time>
      </trkpt>
      <trkpt lat="44.68718" lon="1.56186">
        <ele>330.35</ele>
        <time>2021-08-16T21:22:18Z</time>
      </trkpt>
      <trkpt lat="44.68715" lon="1.56185">
        <ele>330.35</ele>
        <time>2021-08-16T21:22:25Z</time>
      </trkpt>
      <trkpt lat="44.68708" lon="1.56181">
        <ele>330.35</ele>
        <time>2021-08-16T21:22:31Z</time>
      </trkpt>
      <trkpt lat="44.6869" lon="1.56169">
        <ele>330.35</ele>
        <time>2021-08-16T21:22:40Z</time>
      </trkpt>
      <trkpt lat="44.6868" lon="1.56162">
        <ele>330.35</ele>
        <time>2021-08-16T21:22:47Z</time>
      </trkpt>
      <trkpt lat="44.68667" lon="1.56152">
        <ele>330.35</ele>
        <time>2021-08-16T21:22:55Z</time>
      </trkpt>
      <trkpt lat="44.68664" lon="1.56149">
        <ele>330.35</ele>
        <time>2021-08-16T21:22:57Z</time>
      </trkpt>
      <trkpt lat="44.68664" lon="1.56146">
        <ele>330.35</ele>
        <time>2021-08-16T21:22:58Z</time>
      </trkpt>
      <trkpt lat="44.68669" lon="1.56139">
        <ele>330.35</ele>
        <time>2021-08-16T21:23:04Z</time>
      </trkpt>
      <trkpt lat="44.6867" lon="1.5614">
        <ele>330.35</ele>
        <time>2021-08-16T21:23:05Z</time>
      </trkpt>
      <trkpt lat="44.68679" lon="1.56136">
        <ele>330.35</ele>
        <time>2021-08-16T21:23:12Z</time>
      </trkpt>
      <trkpt lat="44.68687" lon="1.56143">
        <ele>331.31</ele>
        <time>2021-08-16T21:23:18Z</time>
      </trkpt>
      <trkpt lat="44.68692" lon="1.56133">
        <ele>331.31</ele>
        <time>2021-08-16T21:23:24Z</time>
      </trkpt>
      <trkpt lat="44.68693" lon="1.5613">
        <ele>331.31</ele>
        <time>2021-08-16T21:23:25Z</time>
      </trkpt>
      <trkpt lat="44.68693" lon="1.56127">
        <ele>331.31</ele>
        <time>2021-08-16T21:23:26Z</time>
      </trkpt>
      <trkpt lat="44.68694" lon="1.56125">
        <ele>331.31</ele>
        <time>2021-08-16T21:23:27Z</time>
      </trkpt>
      <trkpt lat="44.68695" lon="1.56114">
        <ele>331.31</ele>
        <time>2021-08-16T21:23:32Z</time>
      </trkpt>
      <trkpt lat="44.68693" lon="1.56112">
        <ele>331.31</ele>
        <time>2021-08-16T21:23:33Z</time>
      </trkpt>
      <trkpt lat="44.68691" lon="1.56111">
        <ele>331.31</ele>
        <time>2021-08-16T21:23:34Z</time>
      </trkpt>
      <trkpt lat="44.68689" lon="1.56111">
        <ele>331.31</ele>
        <time>2021-08-16T21:23:35Z</time>
      </trkpt>
      <trkpt lat="44.68687" lon="1.5611">
        <ele>331.31</ele>
        <time>2021-08-16T21:23:36Z</time>
      </trkpt>
      <trkpt lat="44.68685" lon="1.56109">
        <ele>331.31</ele>
        <time>2021-08-16T21:23:37Z</time>
      </trkpt>
      <trkpt lat="44.68676" lon="1.56105">
        <ele>331.31</ele>
        <time>2021-08-16T21:23:42Z</time>
      </trkpt>
      <trkpt lat="44.68674" lon="1.56104">
        <ele>331.31</ele>
        <time>2021-08-16T21:23:43Z</time>
      </trkpt>
      <trkpt lat="44.68672" lon="1.56104">
        <ele>331.31</ele>
        <time>2021-08-16T21:23:44Z</time>
      </trkpt>
      <trkpt lat="44.68671" lon="1.56105">
        <ele>331.31</ele>
        <time>2021-08-16T21:23:45Z</time>
      </trkpt>
      <trkpt lat="44.6867" lon="1.56107">
        <ele>331.31</ele>
        <time>2021-08-16T21:23:46Z</time>
      </trkpt>
      <trkpt lat="44.68667" lon="1.56114">
        <ele>331.31</ele>
        <time>2021-08-16T21:23:49Z</time>
      </trkpt>
      <trkpt lat="44.68668" lon="1.56127">
        <ele>331.31</ele>
        <time>2021-08-16T21:23:55Z</time>
      </trkpt>
      <trkpt lat="44.68664" lon="1.56142">
        <ele>331.31</ele>
        <time>2021-08-16T21:24:04Z</time>
      </trkpt>
      <trkpt lat="44.68663" lon="1.56142">
        <ele>331.31</ele>
        <time>2021-08-16T21:24:17Z</time>
      </trkpt>
      <trkpt lat="44.68663" lon="1.56145">
        <ele>331.31</ele>
        <time>2021-08-16T21:24:25Z</time>
      </trkpt>
      <trkpt lat="44.68667" lon="1.56148">
        <ele>331.31</ele>
        <time>2021-08-16T21:24:29Z</time>
      </trkpt>
      <trkpt lat="44.6867" lon="1.56148">
        <ele>331.31</ele>
        <time>2021-08-16T21:24:30Z</time>
      </trkpt>
      <trkpt lat="44.68671" lon="1.56147">
        <ele>331.31</ele>
        <time>2021-08-16T21:24:31Z</time>
      </trkpt>
      <trkpt lat="44.68673" lon="1.56147">
        <ele>331.31</ele>
        <time>2021-08-16T21:24:32Z</time>
      </trkpt>
      <trkpt lat="44.68674" lon="1.56145">
        <ele>331.31</ele>
        <time>2021-08-16T21:24:38Z</time>
      </trkpt>
      <trkpt lat="44.68677" lon="1.56143">
        <ele>331.31</ele>
        <time>2021-08-16T21:24:59Z</time>
      </trkpt>
      <trkpt lat="44.68676" lon="1.56143">
        <ele>331.31</ele>
        <time>2021-08-16T21:25:16Z</time>
      </trkpt>
      <trkpt lat="44.68676" lon="1.56142">
        <ele>331.31</ele>
        <time>2021-08-16T21:25:30Z</time>
      </trkpt>
      <trkpt lat="44.68674" lon="1.56141">
        <ele>331.79</ele>
        <time>2021-08-16T21:25:43Z</time>
      </trkpt>
      <trkpt lat="44.68673" lon="1.56141">
        <ele>331.79</ele>
        <time>2021-08-16T21:25:52Z</time>
      </trkpt>
      <trkpt lat="44.68671" lon="1.56141">
        <ele>331.79</ele>
        <time>2021-08-16T21:26:08Z</time>
      </trkpt>
      <trkpt lat="44.68671" lon="1.5614">
        <ele>331.79</ele>
        <time>2021-08-16T21:26:16Z</time>
      </trkpt>
      <trkpt lat="44.68669" lon="1.56139">
        <ele>332.27</ele>
        <time>2021-08-16T21:26:30Z</time>
      </trkpt>
      <trkpt lat="44.68669" lon="1.56137">
        <ele>332.27</ele>
        <time>2021-08-16T21:26:51Z</time>
      </trkpt>
      <trkpt lat="44.68669" lon="1.56138">
        <ele>332.27</ele>
        <time>2021-08-16T21:27:05Z</time>
      </trkpt>
      <trkpt lat="44.68667" lon="1.5614">
        <ele>332.75</ele>
        <time>2021-08-16T21:27:20Z</time>
      </trkpt>
      <trkpt lat="44.68666" lon="1.5614">
        <ele>332.75</ele>
        <time>2021-08-16T21:27:30Z</time>
      </trkpt>
      <trkpt lat="44.68666" lon="1.56139">
        <ele>332.75</ele>
        <time>2021-08-16T21:27:39Z</time>
      </trkpt>
      <trkpt lat="44.68665" lon="1.56138">
        <ele>333.23</ele>
        <time>2021-08-16T21:27:49Z</time>
      </trkpt>
      <trkpt lat="44.68665" lon="1.56137">
        <ele>333.23</ele>
        <time>2021-08-16T21:28:08Z</time>
      </trkpt>
      <trkpt lat="44.68664" lon="1.56138">
        <ele>333.71</ele>
        <time>2021-08-16T21:28:24Z</time>
      </trkpt>
      <trkpt lat="44.68664" lon="1.56138">
        <ele>333.71</ele>
        <time>2021-08-16T21:28:34Z</time>
      </trkpt>
      <trkpt lat="44.68664" lon="1.56139">
        <ele>334.2</ele>
        <time>2021-08-16T21:28:46Z</time>
      </trkpt>
      <trkpt lat="44.68665" lon="1.56139">
        <ele>334.2</ele>
        <time>2021-08-16T21:29:00Z</time>
      </trkpt>
      <trkpt lat="44.68664" lon="1.56138">
        <ele>334.68</ele>
        <time>2021-08-16T21:29:19Z</time>
      </trkpt>
      <trkpt lat="44.68664" lon="1.56137">
        <ele>334.68</ele>
        <time>2021-08-16T21:29:30Z</time>
      </trkpt>
      <trkpt lat="44.68665" lon="1.56137">
        <ele>334.68</ele>
        <time>2021-08-16T21:29:48Z</time>
      </trkpt>
      <trkpt lat="44.68666" lon="1.56139">
        <ele>335.16</ele>
        <time>2021-08-16T21:30:04Z</time>
      </trkpt>
      <trkpt lat="44.68666" lon="1.5614">
        <ele>335.16</ele>
        <time>2021-08-16T21:30:17Z</time>
      </trkpt>
      <trkpt lat="44.68666" lon="1.56144">
        <ele>335.16</ele>
        <time>2021-08-16T21:30:25Z</time>
      </trkpt>
      <trkpt lat="44.68668" lon="1.56145">
        <ele>335.16</ele>
        <time>2021-08-16T21:30:40Z</time>
      </trkpt>
      <trkpt lat="44.68669" lon="1.56146">
        <ele>335.16</ele>
        <time>2021-08-16T21:30:51Z</time>
      </trkpt>
      <trkpt lat="44.68671" lon="1.56147">
        <ele>335.64</ele>
        <time>2021-08-16T21:30:58Z</time>
      </trkpt>
      <trkpt lat="44.68671" lon="1.56145">
        <ele>335.64</ele>
        <time>2021-08-16T21:31:07Z</time>
      </trkpt>
      <trkpt lat="44.68672" lon="1.56142">
        <ele>335.64</ele>
        <time>2021-08-16T21:31:17Z</time>
      </trkpt>
      <trkpt lat="44.68673" lon="1.5614">
        <ele>335.64</ele>
        <time>2021-08-16T21:31:19Z</time>
      </trkpt>
      <trkpt lat="44.68673" lon="1.56138">
        <ele>335.64</ele>
        <time>2021-08-16T21:31:20Z</time>
      </trkpt>
      <trkpt lat="44.68672" lon="1.56136">
        <ele>335.64</ele>
        <time>2021-08-16T21:31:21Z</time>
      </trkpt>
      <trkpt lat="44.68671" lon="1.56137">
        <ele>335.64</ele>
        <time>2021-08-16T21:31:22Z</time>
      </trkpt>
      <trkpt lat="44.6867" lon="1.56138">
        <ele>335.64</ele>
        <time>2021-08-16T21:31:23Z</time>
      </trkpt>
      <trkpt lat="44.6867" lon="1.5614">
        <ele>335.64</ele>
        <time>2021-08-16T21:31:24Z</time>
      </trkpt>
      <trkpt lat="44.68669" lon="1.56142">
        <ele>335.64</ele>
        <time>2021-08-16T21:31:25Z</time>
      </trkpt>
      <trkpt lat="44.68669" lon="1.56144">
        <ele>335.64</ele>
        <time>2021-08-16T21:31:26Z</time>
      </trkpt>
      <trkpt lat="44.68668" lon="1.56146">
        <ele>335.64</ele>
        <time>2021-08-16T21:31:27Z</time>
      </trkpt>
      <trkpt lat="44.68668" lon="1.56149">
        <ele>335.64</ele>
        <time>2021-08-16T21:31:28Z</time>
      </trkpt>
      <trkpt lat="44.68667" lon="1.56151">
        <ele>335.64</ele>
        <time>2021-08-16T21:31:29Z</time>
      </trkpt>
      <trkpt lat="44.68668" lon="1.56154">
        <ele>335.64</ele>
        <time>2021-08-16T21:31:30Z</time>
      </trkpt>
      <trkpt lat="44.68669" lon="1.56155">
        <ele>335.64</ele>
        <time>2021-08-16T21:31:31Z</time>
      </trkpt>
      <trkpt lat="44.6867" lon="1.56154">
        <ele>335.64</ele>
        <time>2021-08-16T21:31:32Z</time>
      </trkpt>
      <trkpt lat="44.6867" lon="1.56153">
        <ele>335.64</ele>
        <time>2021-08-16T21:31:33Z</time>
      </trkpt>
      <trkpt lat="44.68671" lon="1.56151">
        <ele>335.64</ele>
        <time>2021-08-16T21:31:34Z</time>
      </trkpt>
      <trkpt lat="44.68671" lon="1.56149">
        <ele>335.64</ele>
        <time>2021-08-16T21:31:39Z</time>
      </trkpt>
      <trkpt lat="44.68673" lon="1.56149">
        <ele>335.64</ele>
        <time>2021-08-16T21:31:59Z</time>
      </trkpt>
      <trkpt lat="44.68672" lon="1.5615">
        <ele>335.64</ele>
        <time>2021-08-16T21:32:09Z</time>
      </trkpt>
      <trkpt lat="44.6867" lon="1.56151">
        <ele>335.16</ele>
        <time>2021-08-16T21:32:34Z</time>
      </trkpt>
      <trkpt lat="44.68672" lon="1.5615">
        <ele>335.16</ele>
        <time>2021-08-16T21:32:48Z</time>
      </trkpt>
      <trkpt lat="44.68671" lon="1.56151">
        <ele>335.16</ele>
        <time>2021-08-16T21:33:03Z</time>
      </trkpt>
      <trkpt lat="44.68671" lon="1.56151">
        <ele>335.16</ele>
        <time>2021-08-16T21:33:16Z</time>
      </trkpt>
      <trkpt lat="44.68672" lon="1.56149">
        <ele>335.16</ele>
        <time>2021-08-16T21:33:33Z</time>
      </trkpt>
      <trkpt lat="44.68673" lon="1.56149">
        <ele>335.16</ele>
        <time>2021-08-16T21:33:55Z</time>
      </trkpt>
      <trkpt lat="44.68673" lon="1.56148">
        <ele>335.16</ele>
        <time>2021-08-16T21:34:16Z</time>
      </trkpt>
      <trkpt lat="44.68672" lon="1.56148">
        <ele>335.16</ele>
        <time>2021-08-16T21:34:34Z</time>
      </trkpt>
      <trkpt lat="44.68673" lon="1.56148">
        <ele>335.16</ele>
        <time>2021-08-16T21:34:50Z</time>
      </trkpt>
      <trkpt lat="44.68672" lon="1.56148">
        <ele>335.16</ele>
        <time>2021-08-16T21:35:09Z</time>
      </trkpt>
      <trkpt lat="44.68672" lon="1.56147">
        <ele>335.16</ele>
        <time>2021-08-16T21:35:21Z</time>
      </trkpt>
      <trkpt lat="44.68671" lon="1.56145">
        <ele>335.16</ele>
        <time>2021-08-16T21:35:27Z</time>
      </trkpt>
      <trkpt lat="44.68671" lon="1.56139">
        <ele>335.16</ele>
        <time>2021-08-16T21:35:32Z</time>
      </trkpt>
      <trkpt lat="44.68677" lon="1.56128">
        <ele>335.16</ele>
        <time>2021-08-16T21:35:37Z</time>
      </trkpt>
      <trkpt lat="44.68677" lon="1.56128">
        <ele>335.16</ele>
        <time>2021-08-16T21:35:38Z</time>
      </trkpt>
      <trkpt lat="44.68677" lon="1.56131">
        <ele>335.16</ele>
        <time>2021-08-16T21:35:40Z</time>
      </trkpt>
      <trkpt lat="44.68675" lon="1.56126">
        <ele>335.16</ele>
        <time>2021-08-16T21:35:46Z</time>
      </trkpt>
      <trkpt lat="44.68676" lon="1.5612">
        <ele>335.16</ele>
        <time>2021-08-16T21:35:48Z</time>
      </trkpt>
      <trkpt lat="44.68676" lon="1.56113">
        <ele>335.16</ele>
        <time>2021-08-16T21:35:50Z</time>
      </trkpt>
      <trkpt lat="44.68675" lon="1.56109">
        <ele>335.16</ele>
        <time>2021-08-16T21:35:51Z</time>
      </trkpt>
      <trkpt lat="44.68674" lon="1.56106">
        <ele>335.16</ele>
        <time>2021-08-16T21:35:52Z</time>
      </trkpt>
      <trkpt lat="44.68661" lon="1.56095">
        <ele>335.16</ele>
        <time>2021-08-16T21:35:57Z</time>
      </trkpt>
      <trkpt lat="44.6864" lon="1.56086">
        <ele>335.16</ele>
        <time>2021-08-16T21:36:04Z</time>
      </trkpt>
      <trkpt lat="44.68639" lon="1.56085">
        <ele>335.16</ele>
        <time>2021-08-16T21:36:05Z</time>
      </trkpt>
      <trkpt lat="44.68638" lon="1.56082">
        <ele>335.16</ele>
        <time>2021-08-16T21:36:06Z</time>
      </trkpt>
      <trkpt lat="44.68638" lon="1.5608">
        <ele>335.16</ele>
        <time>2021-08-16T21:36:07Z</time>
      </trkpt>
      <trkpt lat="44.68639" lon="1.56077">
        <ele>335.16</ele>
        <time>2021-08-16T21:36:08Z</time>
      </trkpt>
      <trkpt lat="44.68639" lon="1.56075">
        <ele>335.16</ele>
        <time>2021-08-16T21:36:09Z</time>
      </trkpt>
      <trkpt lat="44.68637" lon="1.56073">
        <ele>335.16</ele>
        <time>2021-08-16T21:36:10Z</time>
      </trkpt>
      <trkpt lat="44.68635" lon="1.56071">
        <ele>335.16</ele>
        <time>2021-08-16T21:36:11Z</time>
      </trkpt>
      <trkpt lat="44.68632" lon="1.5607">
        <ele>335.16</ele>
        <time>2021-08-16T21:36:12Z</time>
      </trkpt>
      <trkpt lat="44.68619" lon="1.5606">
        <ele>335.16</ele>
        <time>2021-08-16T21:36:17Z</time>
      </trkpt>
      <trkpt lat="44.68618" lon="1.56058">
        <ele>335.16</ele>
        <time>2021-08-16T21:36:18Z</time>
      </trkpt>
      <trkpt lat="44.68617" lon="1.56056">
        <ele>335.16</ele>
        <time>2021-08-16T21:36:19Z</time>
      </trkpt>
      <trkpt lat="44.68616" lon="1.56053">
        <ele>335.16</ele>
        <time>2021-08-16T21:36:20Z</time>
      </trkpt>
      <trkpt lat="44.68615" lon="1.56051">
        <ele>335.64</ele>
        <time>2021-08-16T21:36:21Z</time>
      </trkpt>
      <trkpt lat="44.68614" lon="1.56043">
        <ele>335.64</ele>
        <time>2021-08-16T21:36:24Z</time>
      </trkpt>
      <trkpt lat="44.6861" lon="1.56033">
        <ele>335.64</ele>
        <time>2021-08-16T21:36:28Z</time>
      </trkpt>
      <trkpt lat="44.68608" lon="1.56031">
        <ele>335.64</ele>
        <time>2021-08-16T21:36:29Z</time>
      </trkpt>
      <trkpt lat="44.68608" lon="1.56029">
        <ele>335.64</ele>
        <time>2021-08-16T21:36:30Z</time>
      </trkpt>
      <trkpt lat="44.68607" lon="1.56027">
        <ele>335.64</ele>
        <time>2021-08-16T21:36:31Z</time>
      </trkpt>
      <trkpt lat="44.68606" lon="1.56025">
        <ele>335.64</ele>
        <time>2021-08-16T21:36:32Z</time>
      </trkpt>
      <trkpt lat="44.68604" lon="1.56024">
        <ele>335.64</ele>
        <time>2021-08-16T21:36:33Z</time>
      </trkpt>
      <trkpt lat="44.68603" lon="1.56025">
        <ele>335.64</ele>
        <time>2021-08-16T21:36:34Z</time>
      </trkpt>
      <trkpt lat="44.68602" lon="1.56027">
        <ele>335.64</ele>
        <time>2021-08-16T21:36:35Z</time>
      </trkpt>
      <trkpt lat="44.686" lon="1.56032">
        <ele>335.64</ele>
        <time>2021-08-16T21:36:37Z</time>
      </trkpt>
    </trkseg>
  </trk>
  <trk>
    <name><![CDATA[11 FD]]></name>
    <trkseg>
      <trkpt lat="44.68645" lon="1.56088">
        <ele>331.31</ele>
        <time>2021-08-17T04:37:25Z</time>
      </trkpt>
      <trkpt lat="44.68654" lon="1.5615">
        <ele>332.27</ele>
        <time>2021-08-17T04:37:55Z</time>
      </trkpt>
      <trkpt lat="44.68665" lon="1.56149">
        <ele>332.27</ele>
        <time>2021-08-17T04:39:16Z</time>
      </trkpt>
      <trkpt lat="44.68667" lon="1.56149">
        <ele>331.31</ele>
        <time>2021-08-17T04:39:24Z</time>
      </trkpt>
      <trkpt lat="44.68666" lon="1.56151">
        <ele>331.31</ele>
        <time>2021-08-17T04:39:41Z</time>
      </trkpt>
      <trkpt lat="44.68666" lon="1.5615">
        <ele>331.31</ele>
        <time>2021-08-17T04:39:54Z</time>
      </trkpt>
      <trkpt lat="44.68665" lon="1.56149">
        <ele>331.31</ele>
        <time>2021-08-17T04:40:08Z</time>
      </trkpt>
      <trkpt lat="44.68655" lon="1.56153">
        <ele>331.31</ele>
        <time>2021-08-17T04:40:16Z</time>
      </trkpt>
      <trkpt lat="44.68653" lon="1.56152">
        <ele>331.31</ele>
        <time>2021-08-17T04:40:17Z</time>
      </trkpt>
      <trkpt lat="44.68651" lon="1.56151">
        <ele>331.31</ele>
        <time>2021-08-17T04:40:18Z</time>
      </trkpt>
      <trkpt lat="44.68649" lon="1.5615">
        <ele>331.31</ele>
        <time>2021-08-17T04:40:19Z</time>
      </trkpt>
      <trkpt lat="44.68647" lon="1.56149">
        <ele>331.31</ele>
        <time>2021-08-17T04:40:20Z</time>
      </trkpt>
      <trkpt lat="44.68626" lon="1.56137">
        <ele>331.31</ele>
        <time>2021-08-17T04:40:29Z</time>
      </trkpt>
      <trkpt lat="44.68623" lon="1.56137">
        <ele>331.31</ele>
        <time>2021-08-17T04:40:31Z</time>
      </trkpt>
      <trkpt lat="44.68621" lon="1.56139">
        <ele>331.31</ele>
        <time>2021-08-17T04:40:32Z</time>
      </trkpt>
      <trkpt lat="44.68621" lon="1.5614">
        <ele>331.31</ele>
        <time>2021-08-17T04:40:33Z</time>
      </trkpt>
      <trkpt lat="44.6862" lon="1.56143">
        <ele>331.31</ele>
        <time>2021-08-17T04:40:34Z</time>
      </trkpt>
      <trkpt lat="44.68619" lon="1.56146">
        <ele>331.31</ele>
        <time>2021-08-17T04:40:35Z</time>
      </trkpt>
      <trkpt lat="44.68616" lon="1.56167">
        <ele>331.31</ele>
        <time>2021-08-17T04:40:42Z</time>
      </trkpt>
      <trkpt lat="44.68612" lon="1.56192">
        <ele>328.43</ele>
        <time>2021-08-17T04:40:48Z</time>
      </trkpt>
      <trkpt lat="44.68607" lon="1.56207">
        <ele>324.1</ele>
        <time>2021-08-17T04:40:51Z</time>
      </trkpt>
      <trkpt lat="44.68605" lon="1.56212">
        <ele>323.14</ele>
        <time>2021-08-17T04:40:52Z</time>
      </trkpt>
      <trkpt lat="44.68602" lon="1.56224">
        <ele>320.74</ele>
        <time>2021-08-17T04:40:54Z</time>
      </trkpt>
      <trkpt lat="44.686" lon="1.5623">
        <ele>319.3</ele>
        <time>2021-08-17T04:40:55Z</time>
      </trkpt>
      <trkpt lat="44.686" lon="1.56235">
        <ele>318.33</ele>
        <time>2021-08-17T04:40:56Z</time>
      </trkpt>
      <trkpt lat="44.68599" lon="1.56241">
        <ele>317.85</ele>
        <time>2021-08-17T04:40:57Z</time>
      </trkpt>
      <trkpt lat="44.68599" lon="1.56246">
        <ele>316.89</ele>
        <time>2021-08-17T04:40:58Z</time>
      </trkpt>
      <trkpt lat="44.68598" lon="1.56251">
        <ele>316.41</ele>
        <time>2021-08-17T04:40:59Z</time>
      </trkpt>
      <trkpt lat="44.68598" lon="1.56255">
        <ele>315.45</ele>
        <time>2021-08-17T04:41:00Z</time>
      </trkpt>
      <trkpt lat="44.68598" lon="1.56259">
        <ele>314.97</ele>
        <time>2021-08-17T04:41:01Z</time>
      </trkpt>
      <trkpt lat="44.68599" lon="1.56263">
        <ele>314.01</ele>
        <time>2021-08-17T04:41:02Z</time>
      </trkpt>
      <trkpt lat="44.68599" lon="1.56268">
        <ele>313.53</ele>
        <time>2021-08-17T04:41:03Z</time>
      </trkpt>
      <trkpt lat="44.68598" lon="1.56275">
        <ele>313.53</ele>
        <time>2021-08-17T04:41:04Z</time>
      </trkpt>
      <trkpt lat="44.68596" lon="1.56278">
        <ele>312.57</ele>
        <time>2021-08-17T04:41:05Z</time>
      </trkpt>
      <trkpt lat="44.68593" lon="1.56282">
        <ele>313.05</ele>
        <time>2021-08-17T04:41:06Z</time>
      </trkpt>
      <trkpt lat="44.68567" lon="1.5631">
        <ele>311.6</ele>
        <time>2021-08-17T04:41:13Z</time>
      </trkpt>
      <trkpt lat="44.68553" lon="1.56322">
        <ele>312.09</ele>
        <time>2021-08-17T04:41:18Z</time>
      </trkpt>
      <trkpt lat="44.68541" lon="1.56336">
        <ele>312.09</ele>
        <time>2021-08-17T04:41:24Z</time>
      </trkpt>
      <trkpt lat="44.68521" lon="1.56352">
        <ele>313.05</ele>
        <time>2021-08-17T04:41:34Z</time>
      </trkpt>
      <trkpt lat="44.68498" lon="1.56367">
        <ele>315.45</ele>
        <time>2021-08-17T04:41:46Z</time>
      </trkpt>
      <trkpt lat="44.68474" lon="1.5638">
        <ele>316.89</ele>
        <time>2021-08-17T04:41:57Z</time>
      </trkpt>
      <trkpt lat="44.6845" lon="1.56392">
        <ele>316.89</ele>
        <time>2021-08-17T04:42:07Z</time>
      </trkpt>
      <trkpt lat="44.6842" lon="1.56409">
        <ele>318.33</ele>
        <time>2021-08-17T04:42:20Z</time>
      </trkpt>
      <trkpt lat="44.68402" lon="1.56419">
        <ele>319.3</ele>
        <time>2021-08-17T04:42:28Z</time>
      </trkpt>
      <trkpt lat="44.68385" lon="1.56427">
        <ele>319.3</ele>
        <time>2021-08-17T04:42:36Z</time>
      </trkpt>
      <trkpt lat="44.68357" lon="1.56437">
        <ele>319.78</ele>
        <time>2021-08-17T04:42:46Z</time>
      </trkpt>
      <trkpt lat="44.68327" lon="1.56448">
        <ele>320.74</ele>
        <time>2021-08-17T04:42:58Z</time>
      </trkpt>
      <trkpt lat="44.68307" lon="1.56454">
        <ele>321.7</ele>
        <time>2021-08-17T04:43:06Z</time>
      </trkpt>
      <trkpt lat="44.68297" lon="1.56474">
        <ele>321.7</ele>
        <time>2021-08-17T04:43:12Z</time>
      </trkpt>
      <trkpt lat="44.68295" lon="1.5651">
        <ele>321.7</ele>
        <time>2021-08-17T04:43:20Z</time>
      </trkpt>
      <trkpt lat="44.68289" lon="1.5653">
        <ele>323.14</ele>
        <time>2021-08-17T04:43:27Z</time>
      </trkpt>
      <trkpt lat="44.6828" lon="1.56541">
        <ele>324.1</ele>
        <time>2021-08-17T04:43:37Z</time>
      </trkpt>
      <trkpt lat="44.68271" lon="1.56547">
        <ele>325.06</ele>
        <time>2021-08-17T04:43:45Z</time>
      </trkpt>
      <trkpt lat="44.6826" lon="1.56556">
        <ele>326.99</ele>
        <time>2021-08-17T04:43:56Z</time>
      </trkpt>
      <trkpt lat="44.68254" lon="1.5656">
        <ele>327.95</ele>
        <time>2021-08-17T04:44:03Z</time>
      </trkpt>
      <trkpt lat="44.68246" lon="1.56567">
        <ele>329.39</ele>
        <time>2021-08-17T04:44:14Z</time>
      </trkpt>
      <trkpt lat="44.6824" lon="1.56577">
        <ele>331.31</ele>
        <time>2021-08-17T04:44:25Z</time>
      </trkpt>
      <trkpt lat="44.68234" lon="1.56585">
        <ele>332.75</ele>
        <time>2021-08-17T04:44:34Z</time>
      </trkpt>
      <trkpt lat="44.6823" lon="1.56592">
        <ele>334.2</ele>
        <time>2021-08-17T04:44:43Z</time>
      </trkpt>
      <trkpt lat="44.68226" lon="1.56598">
        <ele>335.64</ele>
        <time>2021-08-17T04:44:52Z</time>
      </trkpt>
      <trkpt lat="44.68221" lon="1.56605">
        <ele>336.6</ele>
        <time>2021-08-17T04:45:01Z</time>
      </trkpt>
      <trkpt lat="44.68218" lon="1.56615">
        <ele>338.04</ele>
        <time>2021-08-17T04:45:10Z</time>
      </trkpt>
      <trkpt lat="44.68215" lon="1.56622">
        <ele>339.48</ele>
        <time>2021-08-17T04:45:19Z</time>
      </trkpt>
      <trkpt lat="44.68213" lon="1.56633">
        <ele>340.92</ele>
        <time>2021-08-17T04:45:29Z</time>
      </trkpt>
      <trkpt lat="44.68211" lon="1.56641">
        <ele>342.37</ele>
        <time>2021-08-17T04:45:37Z</time>
      </trkpt>
      <trkpt lat="44.68211" lon="1.56656">
        <ele>344.29</ele>
        <time>2021-08-17T04:45:49Z</time>
      </trkpt>
      <trkpt lat="44.6821" lon="1.56671">
        <ele>345.73</ele>
        <time>2021-08-17T04:45:59Z</time>
      </trkpt>
      <trkpt lat="44.68208" lon="1.56675">
        <ele>346.21</ele>
        <time>2021-08-17T04:46:05Z</time>
      </trkpt>
      <trkpt lat="44.68207" lon="1.5668">
        <ele>346.69</ele>
        <time>2021-08-17T04:46:11Z</time>
      </trkpt>
      <trkpt lat="44.68205" lon="1.56695">
        <ele>348.62</ele>
        <time>2021-08-17T04:46:22Z</time>
      </trkpt>
      <trkpt lat="44.68201" lon="1.56708">
        <ele>350.06</ele>
        <time>2021-08-17T04:46:31Z</time>
      </trkpt>
      <trkpt lat="44.68201" lon="1.5671">
        <ele>350.06</ele>
        <time>2021-08-17T04:46:32Z</time>
      </trkpt>
      <trkpt lat="44.68197" lon="1.56717">
        <ele>351.02</ele>
        <time>2021-08-17T04:46:37Z</time>
      </trkpt>
      <trkpt lat="44.68196" lon="1.56718">
        <ele>351.5</ele>
        <time>2021-08-17T04:46:38Z</time>
      </trkpt>
      <trkpt lat="44.6819" lon="1.56731">
        <ele>352.94</ele>
        <time>2021-08-17T04:46:48Z</time>
      </trkpt>
      <trkpt lat="44.68189" lon="1.56732">
        <ele>352.94</ele>
        <time>2021-08-17T04:46:49Z</time>
      </trkpt>
      <trkpt lat="44.68187" lon="1.56732">
        <ele>352.94</ele>
        <time>2021-08-17T04:46:50Z</time>
      </trkpt>
      <trkpt lat="44.68187" lon="1.56734">
        <ele>353.42</ele>
        <time>2021-08-17T04:46:51Z</time>
      </trkpt>
      <trkpt lat="44.68186" lon="1.56735">
        <ele>353.42</ele>
        <time>2021-08-17T04:46:52Z</time>
      </trkpt>
      <trkpt lat="44.68185" lon="1.56737">
        <ele>353.42</ele>
        <time>2021-08-17T04:46:53Z</time>
      </trkpt>
      <trkpt lat="44.68185" lon="1.56739">
        <ele>353.42</ele>
        <time>2021-08-17T04:46:54Z</time>
      </trkpt>
      <trkpt lat="44.68184" lon="1.56741">
        <ele>353.9</ele>
        <time>2021-08-17T04:46:56Z</time>
      </trkpt>
      <trkpt lat="44.68183" lon="1.56742">
        <ele>353.9</ele>
        <time>2021-08-17T04:46:57Z</time>
      </trkpt>
      <trkpt lat="44.68182" lon="1.56744">
        <ele>354.38</ele>
        <time>2021-08-17T04:46:58Z</time>
      </trkpt>
      <trkpt lat="44.68181" lon="1.56745">
        <ele>354.38</ele>
        <time>2021-08-17T04:46:59Z</time>
      </trkpt>
      <trkpt lat="44.6818" lon="1.56747">
        <ele>354.86</ele>
        <time>2021-08-17T04:47:00Z</time>
      </trkpt>
      <trkpt lat="44.68177" lon="1.56754">
        <ele>355.34</ele>
        <time>2021-08-17T04:47:05Z</time>
      </trkpt>
      <trkpt lat="44.68176" lon="1.56755">
        <ele>355.34</ele>
        <time>2021-08-17T04:47:06Z</time>
      </trkpt>
      <trkpt lat="44.68176" lon="1.56757">
        <ele>355.83</ele>
        <time>2021-08-17T04:47:07Z</time>
      </trkpt>
      <trkpt lat="44.68175" lon="1.56758">
        <ele>355.83</ele>
        <time>2021-08-17T04:47:08Z</time>
      </trkpt>
      <trkpt lat="44.68174" lon="1.5676">
        <ele>356.31</ele>
        <time>2021-08-17T04:47:09Z</time>
      </trkpt>
      <trkpt lat="44.68173" lon="1.56762">
        <ele>356.31</ele>
        <time>2021-08-17T04:47:10Z</time>
      </trkpt>
      <trkpt lat="44.68172" lon="1.56764">
        <ele>356.31</ele>
        <time>2021-08-17T04:47:11Z</time>
      </trkpt>
      <trkpt lat="44.68172" lon="1.56765">
        <ele>356.31</ele>
        <time>2021-08-17T04:47:12Z</time>
      </trkpt>
      <trkpt lat="44.68171" lon="1.56767">
        <ele>356.79</ele>
        <time>2021-08-17T04:47:13Z</time>
      </trkpt>
      <trkpt lat="44.68163" lon="1.56785">
        <ele>358.71</ele>
        <time>2021-08-17T04:47:23Z</time>
      </trkpt>
      <trkpt lat="44.68154" lon="1.56801">
        <ele>359.67</ele>
        <time>2021-08-17T04:47:32Z</time>
      </trkpt>
      <trkpt lat="44.68146" lon="1.56817">
        <ele>361.11</ele>
        <time>2021-08-17T04:47:41Z</time>
      </trkpt>
      <trkpt lat="44.68138" lon="1.5683">
        <ele>362.55</ele>
        <time>2021-08-17T04:47:49Z</time>
      </trkpt>
      <trkpt lat="44.68129" lon="1.56844">
        <ele>363.52</ele>
        <time>2021-08-17T04:47:58Z</time>
      </trkpt>
      <trkpt lat="44.68119" lon="1.5686">
        <ele>364.96</ele>
        <time>2021-08-17T04:48:07Z</time>
      </trkpt>
      <trkpt lat="44.68108" lon="1.56876">
        <ele>366.4</ele>
        <time>2021-08-17T04:48:16Z</time>
      </trkpt>
      <trkpt lat="44.68096" lon="1.56897">
        <ele>367.36</ele>
        <time>2021-08-17T04:48:25Z</time>
      </trkpt>
      <trkpt lat="44.6808" lon="1.56922">
        <ele>368.32</ele>
        <time>2021-08-17T04:48:35Z</time>
      </trkpt>
      <trkpt lat="44.68058" lon="1.56949">
        <ele>368.8</ele>
        <time>2021-08-17T04:48:45Z</time>
      </trkpt>
      <trkpt lat="44.68035" lon="1.56952">
        <ele>369.76</ele>
        <time>2021-08-17T04:48:52Z</time>
      </trkpt>
      <trkpt lat="44.6801" lon="1.56946">
        <ele>370.24</ele>
        <time>2021-08-17T04:49:00Z</time>
      </trkpt>
      <trkpt lat="44.67987" lon="1.5694">
        <ele>371.69</ele>
        <time>2021-08-17T04:49:09Z</time>
      </trkpt>
      <trkpt lat="44.67962" lon="1.56933">
        <ele>372.65</ele>
        <time>2021-08-17T04:49:19Z</time>
      </trkpt>
      <trkpt lat="44.67936" lon="1.56926">
        <ele>373.61</ele>
        <time>2021-08-17T04:49:29Z</time>
      </trkpt>
      <trkpt lat="44.67905" lon="1.5692">
        <ele>374.57</ele>
        <time>2021-08-17T04:49:41Z</time>
      </trkpt>
      <trkpt lat="44.67876" lon="1.56916">
        <ele>375.53</ele>
        <time>2021-08-17T04:49:52Z</time>
      </trkpt>
      <trkpt lat="44.67854" lon="1.56912">
        <ele>377.45</ele>
        <time>2021-08-17T04:50:01Z</time>
      </trkpt>
      <trkpt lat="44.67837" lon="1.5691">
        <ele>378.42</ele>
        <time>2021-08-17T04:50:08Z</time>
      </trkpt>
      <trkpt lat="44.67813" lon="1.56909">
        <ele>379.38</ele>
        <time>2021-08-17T04:50:17Z</time>
      </trkpt>
      <trkpt lat="44.67785" lon="1.56911">
        <ele>379.86</ele>
        <time>2021-08-17T04:50:26Z</time>
      </trkpt>
      <trkpt lat="44.6776" lon="1.56917">
        <ele>379.86</ele>
        <time>2021-08-17T04:50:34Z</time>
      </trkpt>
      <trkpt lat="44.6773" lon="1.56925">
        <ele>380.82</ele>
        <time>2021-08-17T04:50:43Z</time>
      </trkpt>
      <trkpt lat="44.67692" lon="1.56936">
        <ele>382.26</ele>
        <time>2021-08-17T04:50:56Z</time>
      </trkpt>
      <trkpt lat="44.67669" lon="1.56951">
        <ele>383.22</ele>
        <time>2021-08-17T04:51:04Z</time>
      </trkpt>
      <trkpt lat="44.67643" lon="1.56972">
        <ele>383.22</ele>
        <time>2021-08-17T04:51:12Z</time>
      </trkpt>
      <trkpt lat="44.67614" lon="1.56996">
        <ele>383.22</ele>
        <time>2021-08-17T04:51:20Z</time>
      </trkpt>
      <trkpt lat="44.6758" lon="1.5701">
        <ele>383.7</ele>
        <time>2021-08-17T04:51:29Z</time>
      </trkpt>
      <trkpt lat="44.6755" lon="1.57025">
        <ele>384.18</ele>
        <time>2021-08-17T04:51:37Z</time>
      </trkpt>
      <trkpt lat="44.67546" lon="1.57028">
        <ele>384.18</ele>
        <time>2021-08-17T04:51:38Z</time>
      </trkpt>
      <trkpt lat="44.67526" lon="1.57049">
        <ele>384.18</ele>
        <time>2021-08-17T04:51:44Z</time>
      </trkpt>
      <trkpt lat="44.67507" lon="1.57079">
        <ele>384.18</ele>
        <time>2021-08-17T04:51:51Z</time>
      </trkpt>
      <trkpt lat="44.67505" lon="1.57084">
        <ele>384.18</ele>
        <time>2021-08-17T04:51:52Z</time>
      </trkpt>
      <trkpt lat="44.67481" lon="1.57142">
        <ele>384.66</ele>
        <time>2021-08-17T04:52:03Z</time>
      </trkpt>
      <trkpt lat="44.67456" lon="1.57196">
        <ele>385.63</ele>
        <time>2021-08-17T04:52:14Z</time>
      </trkpt>
      <trkpt lat="44.67438" lon="1.57224">
        <ele>386.59</ele>
        <time>2021-08-17T04:52:22Z</time>
      </trkpt>
      <trkpt lat="44.67414" lon="1.57239">
        <ele>388.51</ele>
        <time>2021-08-17T04:52:30Z</time>
      </trkpt>
      <trkpt lat="44.67389" lon="1.57247">
        <ele>389.95</ele>
        <time>2021-08-17T04:52:39Z</time>
      </trkpt>
      <trkpt lat="44.67362" lon="1.57254">
        <ele>391.39</ele>
        <time>2021-08-17T04:52:49Z</time>
      </trkpt>
      <trkpt lat="44.67338" lon="1.5726">
        <ele>392.84</ele>
        <time>2021-08-17T04:52:59Z</time>
      </trkpt>
      <trkpt lat="44.67338" lon="1.57261">
        <ele>392.84</ele>
        <time>2021-08-17T04:53:06Z</time>
      </trkpt>
      <trkpt lat="44.67338" lon="1.5726">
        <ele>392.84</ele>
        <time>2021-08-17T04:53:22Z</time>
      </trkpt>
      <trkpt lat="44.67338" lon="1.5726">
        <ele>392.84</ele>
        <time>2021-08-17T04:53:38Z</time>
      </trkpt>
      <trkpt lat="44.67337" lon="1.57261">
        <ele>392.84</ele>
        <time>2021-08-17T04:53:40Z</time>
      </trkpt>
      <trkpt lat="44.67336" lon="1.57262">
        <ele>392.84</ele>
        <time>2021-08-17T04:53:41Z</time>
      </trkpt>
      <trkpt lat="44.67334" lon="1.57262">
        <ele>392.84</ele>
        <time>2021-08-17T04:53:42Z</time>
      </trkpt>
      <trkpt lat="44.67332" lon="1.57263">
        <ele>392.84</ele>
        <time>2021-08-17T04:53:43Z</time>
      </trkpt>
      <trkpt lat="44.6733" lon="1.57263">
        <ele>392.84</ele>
        <time>2021-08-17T04:53:44Z</time>
      </trkpt>
      <trkpt lat="44.67328" lon="1.57264">
        <ele>393.32</ele>
        <time>2021-08-17T04:53:45Z</time>
      </trkpt>
      <trkpt lat="44.67306" lon="1.57271">
        <ele>393.8</ele>
        <time>2021-08-17T04:53:53Z</time>
      </trkpt>
      <trkpt lat="44.67278" lon="1.57281">
        <ele>395.24</ele>
        <time>2021-08-17T04:54:03Z</time>
      </trkpt>
      <trkpt lat="44.67247" lon="1.57292">
        <ele>396.2</ele>
        <time>2021-08-17T04:54:14Z</time>
      </trkpt>
      <trkpt lat="44.67219" lon="1.57301">
        <ele>397.64</ele>
        <time>2021-08-17T04:54:24Z</time>
      </trkpt>
      <trkpt lat="44.67193" lon="1.57324">
        <ele>399.57</ele>
        <time>2021-08-17T04:54:35Z</time>
      </trkpt>
      <trkpt lat="44.67173" lon="1.57344">
        <ele>401.49</ele>
        <time>2021-08-17T04:54:45Z</time>
      </trkpt>
      <trkpt lat="44.6715" lon="1.57367">
        <ele>402.93</ele>
        <time>2021-08-17T04:54:56Z</time>
      </trkpt>
      <trkpt lat="44.67127" lon="1.57389">
        <ele>404.37</ele>
        <time>2021-08-17T04:55:07Z</time>
      </trkpt>
      <trkpt lat="44.67107" lon="1.57405">
        <ele>405.81</ele>
        <time>2021-08-17T04:55:16Z</time>
      </trkpt>
      <trkpt lat="44.67086" lon="1.57413">
        <ele>407.26</ele>
        <time>2021-08-17T04:55:25Z</time>
      </trkpt>
      <trkpt lat="44.67062" lon="1.57407">
        <ele>407.26</ele>
        <time>2021-08-17T04:55:33Z</time>
      </trkpt>
      <trkpt lat="44.67021" lon="1.5739">
        <ele>407.74</ele>
        <time>2021-08-17T04:55:46Z</time>
      </trkpt>
      <trkpt lat="44.66985" lon="1.57374">
        <ele>408.7</ele>
        <time>2021-08-17T04:55:58Z</time>
      </trkpt>
      <trkpt lat="44.6697" lon="1.57368">
        <ele>410.14</ele>
        <time>2021-08-17T04:56:04Z</time>
      </trkpt>
      <trkpt lat="44.66948" lon="1.57358">
        <ele>411.58</ele>
        <time>2021-08-17T04:56:13Z</time>
      </trkpt>
      <trkpt lat="44.66922" lon="1.57342">
        <ele>413.98</ele>
        <time>2021-08-17T04:56:24Z</time>
      </trkpt>
      <trkpt lat="44.66899" lon="1.57327">
        <ele>414.47</ele>
        <time>2021-08-17T04:56:34Z</time>
      </trkpt>
      <trkpt lat="44.66885" lon="1.57335">
        <ele>414.95</ele>
        <time>2021-08-17T04:56:40Z</time>
      </trkpt>
      <trkpt lat="44.66864" lon="1.57347">
        <ele>414.95</ele>
        <time>2021-08-17T04:56:46Z</time>
      </trkpt>
      <trkpt lat="44.66842" lon="1.57351">
        <ele>414.95</ele>
        <time>2021-08-17T04:56:52Z</time>
      </trkpt>
      <trkpt lat="44.6683" lon="1.57349">
        <ele>413.5</ele>
        <time>2021-08-17T04:56:55Z</time>
      </trkpt>
      <trkpt lat="44.6679" lon="1.57341">
        <ele>410.62</ele>
        <time>2021-08-17T04:57:02Z</time>
      </trkpt>
      <trkpt lat="44.66748" lon="1.57344">
        <ele>407.74</ele>
        <time>2021-08-17T04:57:08Z</time>
      </trkpt>
      <trkpt lat="44.6668" lon="1.57363">
        <ele>405.81</ele>
        <time>2021-08-17T04:57:17Z</time>
      </trkpt>
      <trkpt lat="44.66666" lon="1.57371">
        <ele>407.26</ele>
        <time>2021-08-17T04:57:20Z</time>
      </trkpt>
      <trkpt lat="44.66647" lon="1.57382">
        <ele>409.66</ele>
        <time>2021-08-17T04:57:26Z</time>
      </trkpt>
      <trkpt lat="44.66624" lon="1.57393">
        <ele>411.58</ele>
        <time>2021-08-17T04:57:34Z</time>
      </trkpt>
      <trkpt lat="44.66598" lon="1.57407">
        <ele>412.06</ele>
        <time>2021-08-17T04:57:43Z</time>
      </trkpt>
      <trkpt lat="44.66591" lon="1.57412">
        <ele>412.06</ele>
        <time>2021-08-17T04:57:45Z</time>
      </trkpt>
      <trkpt lat="44.66587" lon="1.57415">
        <ele>412.06</ele>
        <time>2021-08-17T04:57:46Z</time>
      </trkpt>
      <trkpt lat="44.66579" lon="1.57421">
        <ele>411.58</ele>
        <time>2021-08-17T04:57:48Z</time>
      </trkpt>
      <trkpt lat="44.6657" lon="1.57425">
        <ele>410.62</ele>
        <time>2021-08-17T04:57:50Z</time>
      </trkpt>
      <trkpt lat="44.66565" lon="1.57427">
        <ele>410.62</ele>
        <time>2021-08-17T04:57:51Z</time>
      </trkpt>
      <trkpt lat="44.66539" lon="1.57432">
        <ele>407.74</ele>
        <time>2021-08-17T04:57:56Z</time>
      </trkpt>
      <trkpt lat="44.66502" lon="1.57435">
        <ele>405.33</ele>
        <time>2021-08-17T04:58:02Z</time>
      </trkpt>
      <trkpt lat="44.66461" lon="1.57435">
        <ele>403.41</ele>
        <time>2021-08-17T04:58:09Z</time>
      </trkpt>
      <trkpt lat="44.66455" lon="1.57437">
        <ele>402.45</ele>
        <time>2021-08-17T04:58:10Z</time>
      </trkpt>
      <trkpt lat="44.66449" lon="1.5744">
        <ele>401.97</ele>
        <time>2021-08-17T04:58:11Z</time>
      </trkpt>
      <trkpt lat="44.66426" lon="1.57455">
        <ele>398.6</ele>
        <time>2021-08-17T04:58:15Z</time>
      </trkpt>
      <trkpt lat="44.66407" lon="1.57469">
        <ele>396.2</ele>
        <time>2021-08-17T04:58:18Z</time>
      </trkpt>
      <trkpt lat="44.66383" lon="1.57483">
        <ele>394.28</ele>
        <time>2021-08-17T04:58:22Z</time>
      </trkpt>
      <trkpt lat="44.66376" lon="1.57485">
        <ele>393.8</ele>
        <time>2021-08-17T04:58:23Z</time>
      </trkpt>
      <trkpt lat="44.66358" lon="1.57487">
        <ele>392.36</ele>
        <time>2021-08-17T04:58:26Z</time>
      </trkpt>
      <trkpt lat="44.66323" lon="1.57484">
        <ele>388.99</ele>
        <time>2021-08-17T04:58:32Z</time>
      </trkpt>
      <trkpt lat="44.66289" lon="1.57487">
        <ele>385.63</ele>
        <time>2021-08-17T04:58:37Z</time>
      </trkpt>
      <trkpt lat="44.66276" lon="1.5749">
        <ele>383.7</ele>
        <time>2021-08-17T04:58:39Z</time>
      </trkpt>
      <trkpt lat="44.66244" lon="1.57502">
        <ele>380.82</ele>
        <time>2021-08-17T04:58:44Z</time>
      </trkpt>
      <trkpt lat="44.66238" lon="1.57507">
        <ele>380.34</ele>
        <time>2021-08-17T04:58:45Z</time>
      </trkpt>
      <trkpt lat="44.66234" lon="1.57514">
        <ele>379.38</ele>
        <time>2021-08-17T04:58:46Z</time>
      </trkpt>
      <trkpt lat="44.6623" lon="1.57522">
        <ele>378.9</ele>
        <time>2021-08-17T04:58:47Z</time>
      </trkpt>
      <trkpt lat="44.66226" lon="1.5753">
        <ele>378.9</ele>
        <time>2021-08-17T04:58:48Z</time>
      </trkpt>
      <trkpt lat="44.6621" lon="1.57572">
        <ele>378.42</ele>
        <time>2021-08-17T04:58:54Z</time>
      </trkpt>
      <trkpt lat="44.66203" lon="1.57594">
        <ele>379.86</ele>
        <time>2021-08-17T04:59:00Z</time>
      </trkpt>
      <trkpt lat="44.662" lon="1.57609">
        <ele>381.3</ele>
        <time>2021-08-17T04:59:09Z</time>
      </trkpt>
      <trkpt lat="44.66196" lon="1.57624">
        <ele>382.74</ele>
        <time>2021-08-17T04:59:17Z</time>
      </trkpt>
      <trkpt lat="44.66195" lon="1.57626">
        <ele>383.22</ele>
        <time>2021-08-17T04:59:18Z</time>
      </trkpt>
      <trkpt lat="44.66193" lon="1.57628">
        <ele>383.22</ele>
        <time>2021-08-17T04:59:20Z</time>
      </trkpt>
      <trkpt lat="44.66179" lon="1.57623">
        <ele>383.22</ele>
        <time>2021-08-17T04:59:27Z</time>
      </trkpt>
      <trkpt lat="44.66163" lon="1.57606">
        <ele>383.22</ele>
        <time>2021-08-17T04:59:35Z</time>
      </trkpt>
      <trkpt lat="44.66146" lon="1.57588">
        <ele>383.22</ele>
        <time>2021-08-17T04:59:44Z</time>
      </trkpt>
      <trkpt lat="44.66128" lon="1.5757">
        <ele>383.22</ele>
        <time>2021-08-17T04:59:52Z</time>
      </trkpt>
      <trkpt lat="44.66108" lon="1.57548">
        <ele>383.22</ele>
        <time>2021-08-17T05:00:00Z</time>
      </trkpt>
      <trkpt lat="44.6609" lon="1.57528">
        <ele>383.22</ele>
        <time>2021-08-17T05:00:07Z</time>
      </trkpt>
      <trkpt lat="44.66069" lon="1.5751">
        <ele>383.7</ele>
        <time>2021-08-17T05:00:15Z</time>
      </trkpt>
      <trkpt lat="44.66056" lon="1.57499">
        <ele>385.15</ele>
        <time>2021-08-17T05:00:22Z</time>
      </trkpt>
      <trkpt lat="44.6604" lon="1.57487">
        <ele>385.63</ele>
        <time>2021-08-17T05:00:29Z</time>
      </trkpt>
      <trkpt lat="44.66024" lon="1.57474">
        <ele>386.11</ele>
        <time>2021-08-17T05:00:36Z</time>
      </trkpt>
      <trkpt lat="44.66005" lon="1.57468">
        <ele>386.11</ele>
        <time>2021-08-17T05:00:42Z</time>
      </trkpt>
      <trkpt lat="44.65989" lon="1.5748">
        <ele>387.55</ele>
        <time>2021-08-17T05:00:49Z</time>
      </trkpt>
      <trkpt lat="44.65979" lon="1.5749">
        <ele>387.55</ele>
        <time>2021-08-17T05:00:54Z</time>
      </trkpt>
      <trkpt lat="44.65978" lon="1.57491">
        <ele>387.55</ele>
        <time>2021-08-17T05:00:55Z</time>
      </trkpt>
      <trkpt lat="44.65975" lon="1.57494">
        <ele>388.03</ele>
        <time>2021-08-17T05:00:56Z</time>
      </trkpt>
      <trkpt lat="44.65973" lon="1.57495">
        <ele>388.03</ele>
        <time>2021-08-17T05:00:57Z</time>
      </trkpt>
      <trkpt lat="44.65971" lon="1.57498">
        <ele>388.03</ele>
        <time>2021-08-17T05:00:58Z</time>
      </trkpt>
      <trkpt lat="44.65969" lon="1.575">
        <ele>388.51</ele>
        <time>2021-08-17T05:00:59Z</time>
      </trkpt>
      <trkpt lat="44.65967" lon="1.57503">
        <ele>388.51</ele>
        <time>2021-08-17T05:01:00Z</time>
      </trkpt>
      <trkpt lat="44.65949" lon="1.57527">
        <ele>389.47</ele>
        <time>2021-08-17T05:01:10Z</time>
      </trkpt>
      <trkpt lat="44.65937" lon="1.57545">
        <ele>390.91</ele>
        <time>2021-08-17T05:01:19Z</time>
      </trkpt>
      <trkpt lat="44.65935" lon="1.57546">
        <ele>390.91</ele>
        <time>2021-08-17T05:01:20Z</time>
      </trkpt>
      <trkpt lat="44.65933" lon="1.57547">
        <ele>390.91</ele>
        <time>2021-08-17T05:01:21Z</time>
      </trkpt>
      <trkpt lat="44.65932" lon="1.57548">
        <ele>390.91</ele>
        <time>2021-08-17T05:01:22Z</time>
      </trkpt>
      <trkpt lat="44.6593" lon="1.57547">
        <ele>390.91</ele>
        <time>2021-08-17T05:01:23Z</time>
      </trkpt>
      <trkpt lat="44.65928" lon="1.57545">
        <ele>390.91</ele>
        <time>2021-08-17T05:01:24Z</time>
      </trkpt>
      <trkpt lat="44.65927" lon="1.57542">
        <ele>390.91</ele>
        <time>2021-08-17T05:01:25Z</time>
      </trkpt>
      <trkpt lat="44.65926" lon="1.57539">
        <ele>390.91</ele>
        <time>2021-08-17T05:01:26Z</time>
      </trkpt>
      <trkpt lat="44.65926" lon="1.57536">
        <ele>390.91</ele>
        <time>2021-08-17T05:01:27Z</time>
      </trkpt>
      <trkpt lat="44.65925" lon="1.57532">
        <ele>390.91</ele>
        <time>2021-08-17T05:01:28Z</time>
      </trkpt>
      <trkpt lat="44.65924" lon="1.57527">
        <ele>390.91</ele>
        <time>2021-08-17T05:01:29Z</time>
      </trkpt>
      <trkpt lat="44.65923" lon="1.57522">
        <ele>389.95</ele>
        <time>2021-08-17T05:01:30Z</time>
      </trkpt>
      <trkpt lat="44.65923" lon="1.57517">
        <ele>389.95</ele>
        <time>2021-08-17T05:01:31Z</time>
      </trkpt>
      <trkpt lat="44.65918" lon="1.57488">
        <ele>388.99</ele>
        <time>2021-08-17T05:01:37Z</time>
      </trkpt>
      <trkpt lat="44.65911" lon="1.57448">
        <ele>387.55</ele>
        <time>2021-08-17T05:01:44Z</time>
      </trkpt>
      <trkpt lat="44.65901" lon="1.57387">
        <ele>387.07</ele>
        <time>2021-08-17T05:01:54Z</time>
      </trkpt>
      <trkpt lat="44.65899" lon="1.57382">
        <ele>386.59</ele>
        <time>2021-08-17T05:01:55Z</time>
      </trkpt>
      <trkpt lat="44.65897" lon="1.57376">
        <ele>386.59</ele>
        <time>2021-08-17T05:01:56Z</time>
      </trkpt>
      <trkpt lat="44.65894" lon="1.57371">
        <ele>386.11</ele>
        <time>2021-08-17T05:01:57Z</time>
      </trkpt>
      <trkpt lat="44.65892" lon="1.57366">
        <ele>386.11</ele>
        <time>2021-08-17T05:01:58Z</time>
      </trkpt>
      <trkpt lat="44.65888" lon="1.5736">
        <ele>386.11</ele>
        <time>2021-08-17T05:01:59Z</time>
      </trkpt>
      <trkpt lat="44.65886" lon="1.57357">
        <ele>386.11</ele>
        <time>2021-08-17T05:02:00Z</time>
      </trkpt>
      <trkpt lat="44.65879" lon="1.57348">
        <ele>387.07</ele>
        <time>2021-08-17T05:02:03Z</time>
      </trkpt>
      <trkpt lat="44.65868" lon="1.57332">
        <ele>389.47</ele>
        <time>2021-08-17T05:02:11Z</time>
      </trkpt>
      <trkpt lat="44.65855" lon="1.57314">
        <ele>390.43</ele>
        <time>2021-08-17T05:02:19Z</time>
      </trkpt>
      <trkpt lat="44.65838" lon="1.57289">
        <ele>390.91</ele>
        <time>2021-08-17T05:02:28Z</time>
      </trkpt>
      <trkpt lat="44.65819" lon="1.57264">
        <ele>391.39</ele>
        <time>2021-08-17T05:02:37Z</time>
      </trkpt>
      <trkpt lat="44.65801" lon="1.5724">
        <ele>391.87</ele>
        <time>2021-08-17T05:02:46Z</time>
      </trkpt>
      <trkpt lat="44.65785" lon="1.57214">
        <ele>393.32</ele>
        <time>2021-08-17T05:02:56Z</time>
      </trkpt>
      <trkpt lat="44.65769" lon="1.57194">
        <ele>393.8</ele>
        <time>2021-08-17T05:03:04Z</time>
      </trkpt>
      <trkpt lat="44.65742" lon="1.5717">
        <ele>394.28</ele>
        <time>2021-08-17T05:03:15Z</time>
      </trkpt>
      <trkpt lat="44.65717" lon="1.57152">
        <ele>395.72</ele>
        <time>2021-08-17T05:03:25Z</time>
      </trkpt>
      <trkpt lat="44.65695" lon="1.57139">
        <ele>396.2</ele>
        <time>2021-08-17T05:03:33Z</time>
      </trkpt>
      <trkpt lat="44.65672" lon="1.5712">
        <ele>397.16</ele>
        <time>2021-08-17T05:03:42Z</time>
      </trkpt>
      <trkpt lat="44.65654" lon="1.57098">
        <ele>397.64</ele>
        <time>2021-08-17T05:03:50Z</time>
      </trkpt>
      <trkpt lat="44.65635" lon="1.57075">
        <ele>398.12</ele>
        <time>2021-08-17T05:03:58Z</time>
      </trkpt>
      <trkpt lat="44.65611" lon="1.57056">
        <ele>398.6</ele>
        <time>2021-08-17T05:04:07Z</time>
      </trkpt>
      <trkpt lat="44.65586" lon="1.57052">
        <ele>398.6</ele>
        <time>2021-08-17T05:04:15Z</time>
      </trkpt>
      <trkpt lat="44.65561" lon="1.5706">
        <ele>398.6</ele>
        <time>2021-08-17T05:04:23Z</time>
      </trkpt>
      <trkpt lat="44.65526" lon="1.57073">
        <ele>399.08</ele>
        <time>2021-08-17T05:04:34Z</time>
      </trkpt>
      <trkpt lat="44.65499" lon="1.5708">
        <ele>399.08</ele>
        <time>2021-08-17T05:04:43Z</time>
      </trkpt>
      <trkpt lat="44.65486" lon="1.57076">
        <ele>400.05</ele>
        <time>2021-08-17T05:04:48Z</time>
      </trkpt>
      <trkpt lat="44.65473" lon="1.57059">
        <ele>401.49</ele>
        <time>2021-08-17T05:04:57Z</time>
      </trkpt>
      <trkpt lat="44.65464" lon="1.57038">
        <ele>402.93</ele>
        <time>2021-08-17T05:05:07Z</time>
      </trkpt>
      <trkpt lat="44.65458" lon="1.57018">
        <ele>404.37</ele>
        <time>2021-08-17T05:05:16Z</time>
      </trkpt>
      <trkpt lat="44.6545" lon="1.56999">
        <ele>405.81</ele>
        <time>2021-08-17T05:05:25Z</time>
      </trkpt>
      <trkpt lat="44.65441" lon="1.56981">
        <ele>406.77</ele>
        <time>2021-08-17T05:05:34Z</time>
      </trkpt>
      <trkpt lat="44.65429" lon="1.56967">
        <ele>407.26</ele>
        <time>2021-08-17T05:05:43Z</time>
      </trkpt>
      <trkpt lat="44.65419" lon="1.56955">
        <ele>408.22</ele>
        <time>2021-08-17T05:05:51Z</time>
      </trkpt>
      <trkpt lat="44.6541" lon="1.56945">
        <ele>409.18</ele>
        <time>2021-08-17T05:05:58Z</time>
      </trkpt>
      <trkpt lat="44.65399" lon="1.5693">
        <ele>411.1</ele>
        <time>2021-08-17T05:06:06Z</time>
      </trkpt>
      <trkpt lat="44.65388" lon="1.56913">
        <ele>412.54</ele>
        <time>2021-08-17T05:06:15Z</time>
      </trkpt>
      <trkpt lat="44.6538" lon="1.56896">
        <ele>413.02</ele>
        <time>2021-08-17T05:06:23Z</time>
      </trkpt>
      <trkpt lat="44.65372" lon="1.56874">
        <ele>414.47</ele>
        <time>2021-08-17T05:06:32Z</time>
      </trkpt>
      <trkpt lat="44.65361" lon="1.56855">
        <ele>415.43</ele>
        <time>2021-08-17T05:06:41Z</time>
      </trkpt>
      <trkpt lat="44.65343" lon="1.56844">
        <ele>416.39</ele>
        <time>2021-08-17T05:06:50Z</time>
      </trkpt>
      <trkpt lat="44.65316" lon="1.56836">
        <ele>416.39</ele>
        <time>2021-08-17T05:06:58Z</time>
      </trkpt>
      <trkpt lat="44.65276" lon="1.56828">
        <ele>415.43</ele>
        <time>2021-08-17T05:07:08Z</time>
      </trkpt>
      <trkpt lat="44.65245" lon="1.56825">
        <ele>415.43</ele>
        <time>2021-08-17T05:07:15Z</time>
      </trkpt>
      <trkpt lat="44.65227" lon="1.56826">
        <ele>416.39</ele>
        <time>2021-08-17T05:07:20Z</time>
      </trkpt>
      <trkpt lat="44.65207" lon="1.56826">
        <ele>417.83</ele>
        <time>2021-08-17T05:07:29Z</time>
      </trkpt>
      <trkpt lat="44.65188" lon="1.56822">
        <ele>419.27</ele>
        <time>2021-08-17T05:07:39Z</time>
      </trkpt>
      <trkpt lat="44.6517" lon="1.56813">
        <ele>420.23</ele>
        <time>2021-08-17T05:07:49Z</time>
      </trkpt>
      <trkpt lat="44.65149" lon="1.56799">
        <ele>421.68</ele>
        <time>2021-08-17T05:08:00Z</time>
      </trkpt>
      <trkpt lat="44.65136" lon="1.56791">
        <ele>422.64</ele>
        <time>2021-08-17T05:08:07Z</time>
      </trkpt>
      <trkpt lat="44.65116" lon="1.56782">
        <ele>424.08</ele>
        <time>2021-08-17T05:08:16Z</time>
      </trkpt>
      <trkpt lat="44.65094" lon="1.56776">
        <ele>425.52</ele>
        <time>2021-08-17T05:08:26Z</time>
      </trkpt>
      <trkpt lat="44.65077" lon="1.5677">
        <ele>426.96</ele>
        <time>2021-08-17T05:08:35Z</time>
      </trkpt>
      <trkpt lat="44.65062" lon="1.5676">
        <ele>428.4</ele>
        <time>2021-08-17T05:08:44Z</time>
      </trkpt>
      <trkpt lat="44.65058" lon="1.56759">
        <ele>428.4</ele>
        <time>2021-08-17T05:08:46Z</time>
      </trkpt>
      <trkpt lat="44.65046" lon="1.56756">
        <ele>429.85</ele>
        <time>2021-08-17T05:08:56Z</time>
      </trkpt>
      <trkpt lat="44.65045" lon="1.56756">
        <ele>430.33</ele>
        <time>2021-08-17T05:08:57Z</time>
      </trkpt>
      <trkpt lat="44.65044" lon="1.56756">
        <ele>430.33</ele>
        <time>2021-08-17T05:08:58Z</time>
      </trkpt>
      <trkpt lat="44.65042" lon="1.56755">
        <ele>430.33</ele>
        <time>2021-08-17T05:08:59Z</time>
      </trkpt>
      <trkpt lat="44.65041" lon="1.56755">
        <ele>430.33</ele>
        <time>2021-08-17T05:09:00Z</time>
      </trkpt>
      <trkpt lat="44.6504" lon="1.56755">
        <ele>430.81</ele>
        <time>2021-08-17T05:09:01Z</time>
      </trkpt>
      <trkpt lat="44.65028" lon="1.56753">
        <ele>432.25</ele>
        <time>2021-08-17T05:09:11Z</time>
      </trkpt>
      <trkpt lat="44.65027" lon="1.56753">
        <ele>432.25</ele>
        <time>2021-08-17T05:09:12Z</time>
      </trkpt>
      <trkpt lat="44.65014" lon="1.56749">
        <ele>434.17</ele>
        <time>2021-08-17T05:09:23Z</time>
      </trkpt>
      <trkpt lat="44.65008" lon="1.56746">
        <ele>435.13</ele>
        <time>2021-08-17T05:09:28Z</time>
      </trkpt>
      <trkpt lat="44.65007" lon="1.56746">
        <ele>435.61</ele>
        <time>2021-08-17T05:09:29Z</time>
      </trkpt>
      <trkpt lat="44.64995" lon="1.56743">
        <ele>437.06</ele>
        <time>2021-08-17T05:09:39Z</time>
      </trkpt>
      <trkpt lat="44.64986" lon="1.56742">
        <ele>438.5</ele>
        <time>2021-08-17T05:09:46Z</time>
      </trkpt>
      <trkpt lat="44.64978" lon="1.56742">
        <ele>439.46</ele>
        <time>2021-08-17T05:09:53Z</time>
      </trkpt>
      <trkpt lat="44.64968" lon="1.56742">
        <ele>439.94</ele>
        <time>2021-08-17T05:10:00Z</time>
      </trkpt>
      <trkpt lat="44.64954" lon="1.56738">
        <ele>440.9</ele>
        <time>2021-08-17T05:10:08Z</time>
      </trkpt>
      <trkpt lat="44.64951" lon="1.56739">
        <ele>441.38</ele>
        <time>2021-08-17T05:10:10Z</time>
      </trkpt>
      <trkpt lat="44.6495" lon="1.56741">
        <ele>441.38</ele>
        <time>2021-08-17T05:10:11Z</time>
      </trkpt>
      <trkpt lat="44.64949" lon="1.56743">
        <ele>441.38</ele>
        <time>2021-08-17T05:10:12Z</time>
      </trkpt>
      <trkpt lat="44.64948" lon="1.56745">
        <ele>441.38</ele>
        <time>2021-08-17T05:10:13Z</time>
      </trkpt>
      <trkpt lat="44.64946" lon="1.56746">
        <ele>441.38</ele>
        <time>2021-08-17T05:10:14Z</time>
      </trkpt>
      <trkpt lat="44.64945" lon="1.56748">
        <ele>441.38</ele>
        <time>2021-08-17T05:10:15Z</time>
      </trkpt>
      <trkpt lat="44.64943" lon="1.56749">
        <ele>441.38</ele>
        <time>2021-08-17T05:10:16Z</time>
      </trkpt>
      <trkpt lat="44.64941" lon="1.5675">
        <ele>441.86</ele>
        <time>2021-08-17T05:10:17Z</time>
      </trkpt>
      <trkpt lat="44.6494" lon="1.56751">
        <ele>441.86</ele>
        <time>2021-08-17T05:10:18Z</time>
      </trkpt>
      <trkpt lat="44.64938" lon="1.56752">
        <ele>441.86</ele>
        <time>2021-08-17T05:10:19Z</time>
      </trkpt>
      <trkpt lat="44.64936" lon="1.56753">
        <ele>441.86</ele>
        <time>2021-08-17T05:10:20Z</time>
      </trkpt>
      <trkpt lat="44.64923" lon="1.56761">
        <ele>442.82</ele>
        <time>2021-08-17T05:10:27Z</time>
      </trkpt>
      <trkpt lat="44.64908" lon="1.5677">
        <ele>443.79</ele>
        <time>2021-08-17T05:10:35Z</time>
      </trkpt>
      <trkpt lat="44.64888" lon="1.56782">
        <ele>445.23</ele>
        <time>2021-08-17T05:10:45Z</time>
      </trkpt>
      <trkpt lat="44.64872" lon="1.56796">
        <ele>446.19</ele>
        <time>2021-08-17T05:10:52Z</time>
      </trkpt>
      <trkpt lat="44.6487" lon="1.56798">
        <ele>446.19</ele>
        <time>2021-08-17T05:10:53Z</time>
      </trkpt>
      <trkpt lat="44.64868" lon="1.56799">
        <ele>446.19</ele>
        <time>2021-08-17T05:10:54Z</time>
      </trkpt>
      <trkpt lat="44.64852" lon="1.56806">
        <ele>447.15</ele>
        <time>2021-08-17T05:11:01Z</time>
      </trkpt>
      <trkpt lat="44.64841" lon="1.56817">
        <ele>447.15</ele>
        <time>2021-08-17T05:11:08Z</time>
      </trkpt>
      <trkpt lat="44.64839" lon="1.56817">
        <ele>447.15</ele>
        <time>2021-08-17T05:11:09Z</time>
      </trkpt>
      <trkpt lat="44.64838" lon="1.56816">
        <ele>447.15</ele>
        <time>2021-08-17T05:11:10Z</time>
      </trkpt>
      <trkpt lat="44.64838" lon="1.56815">
        <ele>447.15</ele>
        <time>2021-08-17T05:11:11Z</time>
      </trkpt>
      <trkpt lat="44.64837" lon="1.56812">
        <ele>447.15</ele>
        <time>2021-08-17T05:11:13Z</time>
      </trkpt>
      <trkpt lat="44.64836" lon="1.5681">
        <ele>447.15</ele>
        <time>2021-08-17T05:11:14Z</time>
      </trkpt>
      <trkpt lat="44.64834" lon="1.5681">
        <ele>446.67</ele>
        <time>2021-08-17T05:11:15Z</time>
      </trkpt>
      <trkpt lat="44.64818" lon="1.56808">
        <ele>446.67</ele>
        <time>2021-08-17T05:11:22Z</time>
      </trkpt>
      <trkpt lat="44.64803" lon="1.56803">
        <ele>446.67</ele>
        <time>2021-08-17T05:11:29Z</time>
      </trkpt>
      <trkpt lat="44.6479" lon="1.56795">
        <ele>446.67</ele>
        <time>2021-08-17T05:11:35Z</time>
      </trkpt>
      <trkpt lat="44.64789" lon="1.56796">
        <ele>446.67</ele>
        <time>2021-08-17T05:11:36Z</time>
      </trkpt>
      <trkpt lat="44.64787" lon="1.56796">
        <ele>446.67</ele>
        <time>2021-08-17T05:11:37Z</time>
      </trkpt>
      <trkpt lat="44.64785" lon="1.56797">
        <ele>446.67</ele>
        <time>2021-08-17T05:11:38Z</time>
      </trkpt>
      <trkpt lat="44.64783" lon="1.56799">
        <ele>446.67</ele>
        <time>2021-08-17T05:11:39Z</time>
      </trkpt>
      <trkpt lat="44.6478" lon="1.56801">
        <ele>446.67</ele>
        <time>2021-08-17T05:11:40Z</time>
      </trkpt>
      <trkpt lat="44.64778" lon="1.56803">
        <ele>446.67</ele>
        <time>2021-08-17T05:11:41Z</time>
      </trkpt>
      <trkpt lat="44.64776" lon="1.56805">
        <ele>446.67</ele>
        <time>2021-08-17T05:11:42Z</time>
      </trkpt>
      <trkpt lat="44.64755" lon="1.56828">
        <ele>446.67</ele>
        <time>2021-08-17T05:11:50Z</time>
      </trkpt>
      <trkpt lat="44.64745" lon="1.56836">
        <ele>446.67</ele>
        <time>2021-08-17T05:11:56Z</time>
      </trkpt>
      <trkpt lat="44.64747" lon="1.5683">
        <ele>446.67</ele>
        <time>2021-08-17T05:12:01Z</time>
      </trkpt>
      <trkpt lat="44.64758" lon="1.56818">
        <ele>446.67</ele>
        <time>2021-08-17T05:12:08Z</time>
      </trkpt>
      <trkpt lat="44.64762" lon="1.56815">
        <ele>446.67</ele>
        <time>2021-08-17T05:12:10Z</time>
      </trkpt>
      <trkpt lat="44.64767" lon="1.56812">
        <ele>446.67</ele>
        <time>2021-08-17T05:12:12Z</time>
      </trkpt>
      <trkpt lat="44.6477" lon="1.56811">
        <ele>446.67</ele>
        <time>2021-08-17T05:12:13Z</time>
      </trkpt>
      <trkpt lat="44.6479" lon="1.56808">
        <ele>446.67</ele>
        <time>2021-08-17T05:12:20Z</time>
      </trkpt>
      <trkpt lat="44.64809" lon="1.56812">
        <ele>446.67</ele>
        <time>2021-08-17T05:12:27Z</time>
      </trkpt>
      <trkpt lat="44.64821" lon="1.56812">
        <ele>447.15</ele>
        <time>2021-08-17T05:12:35Z</time>
      </trkpt>
      <trkpt lat="44.64823" lon="1.56812">
        <ele>447.15</ele>
        <time>2021-08-17T05:12:42Z</time>
      </trkpt>
      <trkpt lat="44.64824" lon="1.56811">
        <ele>447.15</ele>
        <time>2021-08-17T05:12:54Z</time>
      </trkpt>
      <trkpt lat="44.64824" lon="1.5681">
        <ele>447.15</ele>
        <time>2021-08-17T05:13:05Z</time>
      </trkpt>
      <trkpt lat="44.64823" lon="1.56812">
        <ele>447.15</ele>
        <time>2021-08-17T05:13:15Z</time>
      </trkpt>
      <trkpt lat="44.64823" lon="1.5681">
        <ele>447.15</ele>
        <time>2021-08-17T05:13:30Z</time>
      </trkpt>
      <trkpt lat="44.64825" lon="1.56809">
        <ele>447.15</ele>
        <time>2021-08-17T05:13:48Z</time>
      </trkpt>
      <trkpt lat="44.64826" lon="1.56808">
        <ele>447.15</ele>
        <time>2021-08-17T05:13:55Z</time>
      </trkpt>
      <trkpt lat="44.64827" lon="1.56811">
        <ele>447.15</ele>
        <time>2021-08-17T05:14:05Z</time>
      </trkpt>
      <trkpt lat="44.64827" lon="1.56816">
        <ele>447.15</ele>
        <time>2021-08-17T05:14:21Z</time>
      </trkpt>
      <trkpt lat="44.64827" lon="1.56823">
        <ele>447.15</ele>
        <time>2021-08-17T05:14:41Z</time>
      </trkpt>
      <trkpt lat="44.64829" lon="1.56824">
        <ele>447.15</ele>
        <time>2021-08-17T05:14:59Z</time>
      </trkpt>
      <trkpt lat="44.6483" lon="1.56826">
        <ele>447.15</ele>
        <time>2021-08-17T05:15:14Z</time>
      </trkpt>
      <trkpt lat="44.64828" lon="1.56827">
        <ele>447.15</ele>
        <time>2021-08-17T05:15:35Z</time>
      </trkpt>
      <trkpt lat="44.64827" lon="1.56829">
        <ele>447.63</ele>
        <time>2021-08-17T05:15:51Z</time>
      </trkpt>
      <trkpt lat="44.64827" lon="1.5683">
        <ele>447.63</ele>
        <time>2021-08-17T05:15:58Z</time>
      </trkpt>
      <trkpt lat="44.64828" lon="1.5683">
        <ele>447.63</ele>
        <time>2021-08-17T05:16:13Z</time>
      </trkpt>
      <trkpt lat="44.64827" lon="1.56831">
        <ele>447.63</ele>
        <time>2021-08-17T05:16:35Z</time>
      </trkpt>
      <trkpt lat="44.64829" lon="1.56834">
        <ele>448.11</ele>
        <time>2021-08-17T05:16:52Z</time>
      </trkpt>
      <trkpt lat="44.64828" lon="1.56835">
        <ele>448.11</ele>
        <time>2021-08-17T05:17:17Z</time>
      </trkpt>
      <trkpt lat="44.64827" lon="1.56834">
        <ele>448.59</ele>
        <time>2021-08-17T05:17:34Z</time>
      </trkpt>
      <trkpt lat="44.64826" lon="1.56832">
        <ele>448.59</ele>
        <time>2021-08-17T05:17:47Z</time>
      </trkpt>
      <trkpt lat="44.64829" lon="1.56834">
        <ele>448.59</ele>
        <time>2021-08-17T05:18:02Z</time>
      </trkpt>
      <trkpt lat="44.64831" lon="1.56837">
        <ele>449.07</ele>
        <time>2021-08-17T05:18:20Z</time>
      </trkpt>
      <trkpt lat="44.64829" lon="1.56841">
        <ele>449.07</ele>
        <time>2021-08-17T05:18:45Z</time>
      </trkpt>
      <trkpt lat="44.64826" lon="1.56841">
        <ele>449.55</ele>
        <time>2021-08-17T05:19:09Z</time>
      </trkpt>
      <trkpt lat="44.64831" lon="1.56843">
        <ele>449.55</ele>
        <time>2021-08-17T05:19:31Z</time>
      </trkpt>
      <trkpt lat="44.6483" lon="1.5684">
        <ele>450.03</ele>
        <time>2021-08-17T05:19:48Z</time>
      </trkpt>
      <trkpt lat="44.64831" lon="1.56844">
        <ele>450.03</ele>
        <time>2021-08-17T05:20:01Z</time>
      </trkpt>
      <trkpt lat="44.64829" lon="1.56846">
        <ele>450.52</ele>
        <time>2021-08-17T05:20:21Z</time>
      </trkpt>
      <trkpt lat="44.64827" lon="1.56842">
        <ele>451</ele>
        <time>2021-08-17T05:20:46Z</time>
      </trkpt>
      <trkpt lat="44.64829" lon="1.56841">
        <ele>451</ele>
        <time>2021-08-17T05:21:00Z</time>
      </trkpt>
      <trkpt lat="44.64828" lon="1.5684">
        <ele>451</ele>
        <time>2021-08-17T05:21:18Z</time>
      </trkpt>
      <trkpt lat="44.64825" lon="1.56841">
        <ele>451.48</ele>
        <time>2021-08-17T05:21:37Z</time>
      </trkpt>
      <trkpt lat="44.64827" lon="1.5684">
        <ele>451.48</ele>
        <time>2021-08-17T05:22:02Z</time>
      </trkpt>
      <trkpt lat="44.64827" lon="1.56842">
        <ele>451.96</ele>
        <time>2021-08-17T05:22:19Z</time>
      </trkpt>
      <trkpt lat="44.64826" lon="1.56841">
        <ele>451.96</ele>
        <time>2021-08-17T05:22:36Z</time>
      </trkpt>
      <trkpt lat="44.64824" lon="1.56841">
        <ele>452.44</ele>
        <time>2021-08-17T05:22:52Z</time>
      </trkpt>
      <trkpt lat="44.64827" lon="1.56842">
        <ele>452.44</ele>
        <time>2021-08-17T05:23:15Z</time>
      </trkpt>
      <trkpt lat="44.64828" lon="1.56842">
        <ele>452.92</ele>
        <time>2021-08-17T05:23:34Z</time>
      </trkpt>
      <trkpt lat="44.64827" lon="1.56843">
        <ele>452.92</ele>
        <time>2021-08-17T05:23:50Z</time>
      </trkpt>
      <trkpt lat="44.64825" lon="1.56843">
        <ele>452.92</ele>
        <time>2021-08-17T05:24:11Z</time>
      </trkpt>
      <trkpt lat="44.64825" lon="1.56839">
        <ele>453.4</ele>
        <time>2021-08-17T05:24:33Z</time>
      </trkpt>
      <trkpt lat="44.64826" lon="1.56837">
        <ele>453.4</ele>
        <time>2021-08-17T05:24:51Z</time>
      </trkpt>
      <trkpt lat="44.64825" lon="1.56838">
        <ele>453.88</ele>
        <time>2021-08-17T05:25:11Z</time>
      </trkpt>
      <trkpt lat="44.64825" lon="1.56836">
        <ele>453.88</ele>
        <time>2021-08-17T05:25:32Z</time>
      </trkpt>
      <trkpt lat="44.64825" lon="1.56836">
        <ele>454.36</ele>
        <time>2021-08-17T05:25:50Z</time>
      </trkpt>
      <trkpt lat="44.64827" lon="1.56835">
        <ele>454.36</ele>
        <time>2021-08-17T05:25:58Z</time>
      </trkpt>
      <trkpt lat="44.64829" lon="1.56836">
        <ele>454.36</ele>
        <time>2021-08-17T05:26:13Z</time>
      </trkpt>
      <trkpt lat="44.64827" lon="1.56838">
        <ele>454.36</ele>
        <time>2021-08-17T05:26:30Z</time>
      </trkpt>
      <trkpt lat="44.64827" lon="1.5684">
        <ele>453.88</ele>
        <time>2021-08-17T05:26:49Z</time>
      </trkpt>
      <trkpt lat="44.64828" lon="1.56836">
        <ele>453.88</ele>
        <time>2021-08-17T05:27:11Z</time>
      </trkpt>
      <trkpt lat="44.64824" lon="1.56835">
        <ele>453.88</ele>
        <time>2021-08-17T05:27:19Z</time>
      </trkpt>
      <trkpt lat="44.64812" lon="1.56825">
        <ele>453.88</ele>
        <time>2021-08-17T05:27:29Z</time>
      </trkpt>
      <trkpt lat="44.64811" lon="1.56826">
        <ele>453.88</ele>
        <time>2021-08-17T05:27:30Z</time>
      </trkpt>
      <trkpt lat="44.64804" lon="1.56826">
        <ele>454.36</ele>
        <time>2021-08-17T05:27:36Z</time>
      </trkpt>
      <trkpt lat="44.64792" lon="1.56826">
        <ele>454.36</ele>
        <time>2021-08-17T05:27:46Z</time>
      </trkpt>
      <trkpt lat="44.6478" lon="1.56826">
        <ele>454.36</ele>
        <time>2021-08-17T05:27:57Z</time>
      </trkpt>
      <trkpt lat="44.6477" lon="1.56831">
        <ele>454.36</ele>
        <time>2021-08-17T05:28:06Z</time>
      </trkpt>
      <trkpt lat="44.6476" lon="1.56833">
        <ele>454.36</ele>
        <time>2021-08-17T05:28:14Z</time>
      </trkpt>
      <trkpt lat="44.64753" lon="1.56833">
        <ele>454.36</ele>
        <time>2021-08-17T05:28:22Z</time>
      </trkpt>
      <trkpt lat="44.64751" lon="1.56834">
        <ele>454.36</ele>
        <time>2021-08-17T05:28:29Z</time>
      </trkpt>
      <trkpt lat="44.64747" lon="1.56836">
        <ele>454.36</ele>
        <time>2021-08-17T05:28:47Z</time>
      </trkpt>
      <trkpt lat="44.64747" lon="1.56834">
        <ele>454.36</ele>
        <time>2021-08-17T05:29:03Z</time>
      </trkpt>
      <trkpt lat="44.64749" lon="1.56832">
        <ele>454.36</ele>
        <time>2021-08-17T05:29:22Z</time>
      </trkpt>
      <trkpt lat="44.64749" lon="1.56834">
        <ele>453.88</ele>
        <time>2021-08-17T05:29:38Z</time>
      </trkpt>
      <trkpt lat="44.64747" lon="1.56833">
        <ele>453.88</ele>
        <time>2021-08-17T05:29:58Z</time>
      </trkpt>
      <trkpt lat="44.64747" lon="1.56833">
        <ele>453.88</ele>
        <time>2021-08-17T05:30:16Z</time>
      </trkpt>
      <trkpt lat="44.64746" lon="1.5683">
        <ele>453.88</ele>
        <time>2021-08-17T05:30:32Z</time>
      </trkpt>
      <trkpt lat="44.64748" lon="1.56828">
        <ele>453.4</ele>
        <time>2021-08-17T05:30:48Z</time>
      </trkpt>
      <trkpt lat="44.6475" lon="1.5683">
        <ele>453.4</ele>
        <time>2021-08-17T05:30:55Z</time>
      </trkpt>
      <trkpt lat="44.6475" lon="1.5683">
        <ele>453.4</ele>
        <time>2021-08-17T05:30:57Z</time>
      </trkpt>
      <trkpt lat="44.64752" lon="1.56834">
        <ele>453.4</ele>
        <time>2021-08-17T05:31:03Z</time>
      </trkpt>
      <trkpt lat="44.6475" lon="1.56836">
        <ele>453.4</ele>
        <time>2021-08-17T05:31:14Z</time>
      </trkpt>
      <trkpt lat="44.64749" lon="1.56835">
        <ele>453.4</ele>
        <time>2021-08-17T05:31:35Z</time>
      </trkpt>
      <trkpt lat="44.64748" lon="1.56834">
        <ele>453.4</ele>
        <time>2021-08-17T05:31:47Z</time>
      </trkpt>
      <trkpt lat="44.64747" lon="1.56832">
        <ele>453.4</ele>
        <time>2021-08-17T05:32:03Z</time>
      </trkpt>
      <trkpt lat="44.64748" lon="1.56829">
        <ele>452.92</ele>
        <time>2021-08-17T05:32:27Z</time>
      </trkpt>
      <trkpt lat="44.64749" lon="1.56828">
        <ele>452.44</ele>
        <time>2021-08-17T05:32:42Z</time>
      </trkpt>
      <trkpt lat="44.64748" lon="1.56827">
        <ele>452.44</ele>
        <time>2021-08-17T05:32:58Z</time>
      </trkpt>
      <trkpt lat="44.64748" lon="1.56828">
        <ele>452.44</ele>
        <time>2021-08-17T05:33:12Z</time>
      </trkpt>
      <trkpt lat="44.64748" lon="1.56827">
        <ele>452.44</ele>
        <time>2021-08-17T05:33:27Z</time>
      </trkpt>
      <trkpt lat="44.64748" lon="1.56827">
        <ele>452.44</ele>
        <time>2021-08-17T05:33:45Z</time>
      </trkpt>
      <trkpt lat="44.64749" lon="1.56829">
        <ele>452.44</ele>
        <time>2021-08-17T05:34:04Z</time>
      </trkpt>
      <trkpt lat="44.64749" lon="1.56828">
        <ele>452.44</ele>
        <time>2021-08-17T05:34:27Z</time>
      </trkpt>
      <trkpt lat="44.64749" lon="1.56826">
        <ele>452.44</ele>
        <time>2021-08-17T05:34:44Z</time>
      </trkpt>
      <trkpt lat="44.64748" lon="1.56827">
        <ele>452.44</ele>
        <time>2021-08-17T05:35:03Z</time>
      </trkpt>
      <trkpt lat="44.64747" lon="1.56832">
        <ele>452.44</ele>
        <time>2021-08-17T05:35:20Z</time>
      </trkpt>
      <trkpt lat="44.64747" lon="1.56834">
        <ele>451.96</ele>
        <time>2021-08-17T05:35:37Z</time>
      </trkpt>
      <trkpt lat="44.64748" lon="1.56835">
        <ele>451.96</ele>
        <time>2021-08-17T05:35:52Z</time>
      </trkpt>
      <trkpt lat="44.64748" lon="1.56833">
        <ele>451.96</ele>
        <time>2021-08-17T05:36:03Z</time>
      </trkpt>
      <trkpt lat="44.64747" lon="1.56832">
        <ele>451.96</ele>
        <time>2021-08-17T05:36:18Z</time>
      </trkpt>
      <trkpt lat="44.64746" lon="1.56832">
        <ele>451.96</ele>
        <time>2021-08-17T05:36:30Z</time>
      </trkpt>
      <trkpt lat="44.64746" lon="1.56834">
        <ele>451.96</ele>
        <time>2021-08-17T05:36:43Z</time>
      </trkpt>
      <trkpt lat="44.64747" lon="1.56834">
        <ele>451.96</ele>
        <time>2021-08-17T05:37:02Z</time>
      </trkpt>
      <trkpt lat="44.64749" lon="1.56832">
        <ele>451.96</ele>
        <time>2021-08-17T05:37:19Z</time>
      </trkpt>
      <trkpt lat="44.64749" lon="1.56829">
        <ele>451.48</ele>
        <time>2021-08-17T05:37:41Z</time>
      </trkpt>
      <trkpt lat="44.64747" lon="1.56832">
        <ele>451.48</ele>
        <time>2021-08-17T05:38:01Z</time>
      </trkpt>
      <trkpt lat="44.64746" lon="1.56833">
        <ele>451.48</ele>
        <time>2021-08-17T05:38:13Z</time>
      </trkpt>
      <trkpt lat="44.64747" lon="1.56837">
        <ele>451.48</ele>
        <time>2021-08-17T05:38:27Z</time>
      </trkpt>
      <trkpt lat="44.64748" lon="1.56836">
        <ele>451.48</ele>
        <time>2021-08-17T05:38:44Z</time>
      </trkpt>
      <trkpt lat="44.64748" lon="1.56835">
        <ele>451.48</ele>
        <time>2021-08-17T05:38:59Z</time>
      </trkpt>
      <trkpt lat="44.64747" lon="1.56831">
        <ele>451.48</ele>
        <time>2021-08-17T05:39:16Z</time>
      </trkpt>
      <trkpt lat="44.64745" lon="1.56829">
        <ele>451</ele>
        <time>2021-08-17T05:39:31Z</time>
      </trkpt>
      <trkpt lat="44.64745" lon="1.56828">
        <ele>451</ele>
        <time>2021-08-17T05:39:45Z</time>
      </trkpt>
      <trkpt lat="44.64744" lon="1.56828">
        <ele>451</ele>
        <time>2021-08-17T05:39:58Z</time>
      </trkpt>
      <trkpt lat="44.64744" lon="1.56832">
        <ele>451</ele>
        <time>2021-08-17T05:40:15Z</time>
      </trkpt>
      <trkpt lat="44.64746" lon="1.56834">
        <ele>451</ele>
        <time>2021-08-17T05:40:32Z</time>
      </trkpt>
      <trkpt lat="44.64748" lon="1.56833">
        <ele>451</ele>
        <time>2021-08-17T05:40:45Z</time>
      </trkpt>
      <trkpt lat="44.64749" lon="1.56834">
        <ele>451</ele>
        <time>2021-08-17T05:40:53Z</time>
      </trkpt>
      <trkpt lat="44.6475" lon="1.56833">
        <ele>451</ele>
        <time>2021-08-17T05:41:01Z</time>
      </trkpt>
      <trkpt lat="44.64749" lon="1.56835">
        <ele>451</ele>
        <time>2021-08-17T05:41:18Z</time>
      </trkpt>
      <trkpt lat="44.64747" lon="1.56835">
        <ele>451</ele>
        <time>2021-08-17T05:41:41Z</time>
      </trkpt>
      <trkpt lat="44.64746" lon="1.56831">
        <ele>451</ele>
        <time>2021-08-17T05:41:59Z</time>
      </trkpt>
      <trkpt lat="44.64747" lon="1.56828">
        <ele>451</ele>
        <time>2021-08-17T05:42:14Z</time>
      </trkpt>
      <trkpt lat="44.64747" lon="1.56826">
        <ele>451</ele>
        <time>2021-08-17T05:42:26Z</time>
      </trkpt>
      <trkpt lat="44.64748" lon="1.56827">
        <ele>450.52</ele>
        <time>2021-08-17T05:42:39Z</time>
      </trkpt>
      <trkpt lat="44.64747" lon="1.56827">
        <ele>450.52</ele>
        <time>2021-08-17T05:42:50Z</time>
      </trkpt>
      <trkpt lat="44.64746" lon="1.56829">
        <ele>450.52</ele>
        <time>2021-08-17T05:43:04Z</time>
      </trkpt>
      <trkpt lat="44.64746" lon="1.56831">
        <ele>450.52</ele>
        <time>2021-08-17T05:43:19Z</time>
      </trkpt>
      <trkpt lat="44.64745" lon="1.56827">
        <ele>450.52</ele>
        <time>2021-08-17T05:43:33Z</time>
      </trkpt>
      <trkpt lat="44.64744" lon="1.56826">
        <ele>450.52</ele>
        <time>2021-08-17T05:43:50Z</time>
      </trkpt>
      <trkpt lat="44.64745" lon="1.56826">
        <ele>450.52</ele>
        <time>2021-08-17T05:44:05Z</time>
      </trkpt>
      <trkpt lat="44.64745" lon="1.56828">
        <ele>450.52</ele>
        <time>2021-08-17T05:44:19Z</time>
      </trkpt>
      <trkpt lat="44.64745" lon="1.56828">
        <ele>450.52</ele>
        <time>2021-08-17T05:44:36Z</time>
      </trkpt>
      <trkpt lat="44.64746" lon="1.56825">
        <ele>450.52</ele>
        <time>2021-08-17T05:44:51Z</time>
      </trkpt>
      <trkpt lat="44.64746" lon="1.56829">
        <ele>450.52</ele>
        <time>2021-08-17T05:45:05Z</time>
      </trkpt>
      <trkpt lat="44.64746" lon="1.56832">
        <ele>450.52</ele>
        <time>2021-08-17T05:45:22Z</time>
      </trkpt>
      <trkpt lat="44.64746" lon="1.56833">
        <ele>450.52</ele>
        <time>2021-08-17T05:45:36Z</time>
      </trkpt>
      <trkpt lat="44.64747" lon="1.56833">
        <ele>450.52</ele>
        <time>2021-08-17T05:45:48Z</time>
      </trkpt>
      <trkpt lat="44.64754" lon="1.56815">
        <ele>450.52</ele>
        <time>2021-08-17T05:45:58Z</time>
      </trkpt>
      <trkpt lat="44.64756" lon="1.56801">
        <ele>451.48</ele>
        <time>2021-08-17T05:46:07Z</time>
      </trkpt>
      <trkpt lat="44.64755" lon="1.568">
        <ele>451.48</ele>
        <time>2021-08-17T05:46:10Z</time>
      </trkpt>
      <trkpt lat="44.64746" lon="1.56792">
        <ele>451.96</ele>
        <time>2021-08-17T05:46:20Z</time>
      </trkpt>
      <trkpt lat="44.64745" lon="1.56791">
        <ele>451.96</ele>
        <time>2021-08-17T05:46:28Z</time>
      </trkpt>
      <trkpt lat="44.64744" lon="1.56793">
        <ele>451.96</ele>
        <time>2021-08-17T05:46:40Z</time>
      </trkpt>
      <trkpt lat="44.64738" lon="1.56796">
        <ele>451.96</ele>
        <time>2021-08-17T05:46:54Z</time>
      </trkpt>
      <trkpt lat="44.64736" lon="1.568">
        <ele>451.96</ele>
        <time>2021-08-17T05:47:07Z</time>
      </trkpt>
      <trkpt lat="44.64736" lon="1.56799">
        <ele>451.96</ele>
        <time>2021-08-17T05:47:25Z</time>
      </trkpt>
      <trkpt lat="44.64734" lon="1.56799">
        <ele>451.96</ele>
        <time>2021-08-17T05:47:50Z</time>
      </trkpt>
      <trkpt lat="44.64735" lon="1.56798">
        <ele>451.96</ele>
        <time>2021-08-17T05:48:08Z</time>
      </trkpt>
      <trkpt lat="44.64734" lon="1.56798">
        <ele>451.96</ele>
        <time>2021-08-17T05:48:26Z</time>
      </trkpt>
      <trkpt lat="44.64734" lon="1.568">
        <ele>451.96</ele>
        <time>2021-08-17T05:48:49Z</time>
      </trkpt>
      <trkpt lat="44.64734" lon="1.56802">
        <ele>451.96</ele>
        <time>2021-08-17T05:49:06Z</time>
      </trkpt>
      <trkpt lat="44.64733" lon="1.56799">
        <ele>451.96</ele>
        <time>2021-08-17T05:49:29Z</time>
      </trkpt>
      <trkpt lat="44.64735" lon="1.56797">
        <ele>451.96</ele>
        <time>2021-08-17T05:49:43Z</time>
      </trkpt>
      <trkpt lat="44.64733" lon="1.56797">
        <ele>452.44</ele>
        <time>2021-08-17T05:50:01Z</time>
      </trkpt>
      <trkpt lat="44.64733" lon="1.56796">
        <ele>452.44</ele>
        <time>2021-08-17T05:50:25Z</time>
      </trkpt>
      <trkpt lat="44.64734" lon="1.56795">
        <ele>452.44</ele>
        <time>2021-08-17T05:50:41Z</time>
      </trkpt>
      <trkpt lat="44.64733" lon="1.56797">
        <ele>452.44</ele>
        <time>2021-08-17T05:51:03Z</time>
      </trkpt>
      <trkpt lat="44.64731" lon="1.56801">
        <ele>452.44</ele>
        <time>2021-08-17T05:51:28Z</time>
      </trkpt>
      <trkpt lat="44.64731" lon="1.56804">
        <ele>452.44</ele>
        <time>2021-08-17T05:51:34Z</time>
      </trkpt>
      <trkpt lat="44.64731" lon="1.56804">
        <ele>452.44</ele>
        <time>2021-08-17T05:51:41Z</time>
      </trkpt>
      <trkpt lat="44.64732" lon="1.56801">
        <ele>452.44</ele>
        <time>2021-08-17T05:52:00Z</time>
      </trkpt>
      <trkpt lat="44.64733" lon="1.56801">
        <ele>452.92</ele>
        <time>2021-08-17T05:52:16Z</time>
      </trkpt>
      <trkpt lat="44.64734" lon="1.56802">
        <ele>452.92</ele>
        <time>2021-08-17T05:52:37Z</time>
      </trkpt>
      <trkpt lat="44.64734" lon="1.568">
        <ele>452.92</ele>
        <time>2021-08-17T05:52:59Z</time>
      </trkpt>
      <trkpt lat="44.64734" lon="1.56797">
        <ele>452.92</ele>
        <time>2021-08-17T05:53:21Z</time>
      </trkpt>
      <trkpt lat="44.64734" lon="1.56795">
        <ele>452.92</ele>
        <time>2021-08-17T05:53:44Z</time>
      </trkpt>
      <trkpt lat="44.64733" lon="1.56796">
        <ele>452.92</ele>
        <time>2021-08-17T05:54:07Z</time>
      </trkpt>
      <trkpt lat="44.64733" lon="1.56797">
        <ele>452.92</ele>
        <time>2021-08-17T05:54:30Z</time>
      </trkpt>
      <trkpt lat="44.64733" lon="1.56796">
        <ele>453.4</ele>
        <time>2021-08-17T05:54:55Z</time>
      </trkpt>
      <trkpt lat="44.64734" lon="1.56797">
        <ele>453.4</ele>
        <time>2021-08-17T05:55:16Z</time>
      </trkpt>
      <trkpt lat="44.64733" lon="1.56798">
        <ele>453.4</ele>
        <time>2021-08-17T05:55:33Z</time>
      </trkpt>
      <trkpt lat="44.64734" lon="1.56799">
        <ele>453.4</ele>
        <time>2021-08-17T05:55:47Z</time>
      </trkpt>
      <trkpt lat="44.64735" lon="1.568">
        <ele>453.4</ele>
        <time>2021-08-17T05:56:01Z</time>
      </trkpt>
      <trkpt lat="44.64735" lon="1.568">
        <ele>453.4</ele>
        <time>2021-08-17T05:56:22Z</time>
      </trkpt>
      <trkpt lat="44.64731" lon="1.56801">
        <ele>453.4</ele>
        <time>2021-08-17T05:56:44Z</time>
      </trkpt>
      <trkpt lat="44.64729" lon="1.56802">
        <ele>453.4</ele>
        <time>2021-08-17T05:57:12Z</time>
      </trkpt>
      <trkpt lat="44.64729" lon="1.56802">
        <ele>453.4</ele>
        <time>2021-08-17T05:57:39Z</time>
      </trkpt>
      <trkpt lat="44.64729" lon="1.56802">
        <ele>453.4</ele>
        <time>2021-08-17T05:57:47Z</time>
      </trkpt>
      <trkpt lat="44.6473" lon="1.56801">
        <ele>453.4</ele>
        <time>2021-08-17T05:57:55Z</time>
      </trkpt>
      <trkpt lat="44.6473" lon="1.56799">
        <ele>453.4</ele>
        <time>2021-08-17T05:58:17Z</time>
      </trkpt>
      <trkpt lat="44.64728" lon="1.56798">
        <ele>453.4</ele>
        <time>2021-08-17T05:58:36Z</time>
      </trkpt>
      <trkpt lat="44.64731" lon="1.56798">
        <ele>453.4</ele>
        <time>2021-08-17T05:58:54Z</time>
      </trkpt>
      <trkpt lat="44.64734" lon="1.56801">
        <ele>453.4</ele>
        <time>2021-08-17T05:59:15Z</time>
      </trkpt>
      <trkpt lat="44.64735" lon="1.56799">
        <ele>453.4</ele>
        <time>2021-08-17T05:59:34Z</time>
      </trkpt>
      <trkpt lat="44.64732" lon="1.56799">
        <ele>453.4</ele>
        <time>2021-08-17T05:59:53Z</time>
      </trkpt>
      <trkpt lat="44.64733" lon="1.56798">
        <ele>453.4</ele>
        <time>2021-08-17T06:00:09Z</time>
      </trkpt>
      <trkpt lat="44.64736" lon="1.56801">
        <ele>453.4</ele>
        <time>2021-08-17T06:00:15Z</time>
      </trkpt>
      <trkpt lat="44.6474" lon="1.56802">
        <ele>453.4</ele>
        <time>2021-08-17T06:00:22Z</time>
      </trkpt>
      <trkpt lat="44.64743" lon="1.56804">
        <ele>451.96</ele>
        <time>2021-08-17T06:00:30Z</time>
      </trkpt>
      <trkpt lat="44.64748" lon="1.56811">
        <ele>451.96</ele>
        <time>2021-08-17T06:00:35Z</time>
      </trkpt>
      <trkpt lat="44.64751" lon="1.56808">
        <ele>451.48</ele>
        <time>2021-08-17T06:00:40Z</time>
      </trkpt>
      <trkpt lat="44.64752" lon="1.56804">
        <ele>451.48</ele>
        <time>2021-08-17T06:00:54Z</time>
      </trkpt>
      <trkpt lat="44.64754" lon="1.568">
        <ele>451.48</ele>
        <time>2021-08-17T06:01:09Z</time>
      </trkpt>
      <trkpt lat="44.64758" lon="1.56807">
        <ele>451.48</ele>
        <time>2021-08-17T06:01:18Z</time>
      </trkpt>
      <trkpt lat="44.64762" lon="1.5681">
        <ele>451.48</ele>
        <time>2021-08-17T06:01:20Z</time>
      </trkpt>
      <trkpt lat="44.64764" lon="1.56811">
        <ele>451.48</ele>
        <time>2021-08-17T06:01:21Z</time>
      </trkpt>
      <trkpt lat="44.64767" lon="1.5681">
        <ele>451.48</ele>
        <time>2021-08-17T06:01:22Z</time>
      </trkpt>
      <trkpt lat="44.64769" lon="1.56809">
        <ele>451</ele>
        <time>2021-08-17T06:01:23Z</time>
      </trkpt>
      <trkpt lat="44.64772" lon="1.56807">
        <ele>451</ele>
        <time>2021-08-17T06:01:24Z</time>
      </trkpt>
      <trkpt lat="44.64774" lon="1.56805">
        <ele>451</ele>
        <time>2021-08-17T06:01:25Z</time>
      </trkpt>
      <trkpt lat="44.64777" lon="1.56803">
        <ele>451</ele>
        <time>2021-08-17T06:01:26Z</time>
      </trkpt>
      <trkpt lat="44.64779" lon="1.56801">
        <ele>451</ele>
        <time>2021-08-17T06:01:27Z</time>
      </trkpt>
      <trkpt lat="44.6478" lon="1.56798">
        <ele>451</ele>
        <time>2021-08-17T06:01:28Z</time>
      </trkpt>
      <trkpt lat="44.6478" lon="1.56796">
        <ele>451</ele>
        <time>2021-08-17T06:01:29Z</time>
      </trkpt>
      <trkpt lat="44.64778" lon="1.56792">
        <ele>451</ele>
        <time>2021-08-17T06:01:30Z</time>
      </trkpt>
      <trkpt lat="44.64776" lon="1.56789">
        <ele>451</ele>
        <time>2021-08-17T06:01:31Z</time>
      </trkpt>
      <trkpt lat="44.64774" lon="1.56787">
        <ele>451</ele>
        <time>2021-08-17T06:01:32Z</time>
      </trkpt>
      <trkpt lat="44.64771" lon="1.56784">
        <ele>451</ele>
        <time>2021-08-17T06:01:33Z</time>
      </trkpt>
      <trkpt lat="44.64752" lon="1.56771">
        <ele>451</ele>
        <time>2021-08-17T06:01:40Z</time>
      </trkpt>
      <trkpt lat="44.64728" lon="1.56758">
        <ele>451</ele>
        <time>2021-08-17T06:01:47Z</time>
      </trkpt>
      <trkpt lat="44.64715" lon="1.5675">
        <ele>450.52</ele>
        <time>2021-08-17T06:01:50Z</time>
      </trkpt>
      <trkpt lat="44.64677" lon="1.56722">
        <ele>448.11</ele>
        <time>2021-08-17T06:01:58Z</time>
      </trkpt>
      <trkpt lat="44.64631" lon="1.56681">
        <ele>445.23</ele>
        <time>2021-08-17T06:02:07Z</time>
      </trkpt>
      <trkpt lat="44.64585" lon="1.56657">
        <ele>443.31</ele>
        <time>2021-08-17T06:02:14Z</time>
      </trkpt>
      <trkpt lat="44.64544" lon="1.56636">
        <ele>441.86</ele>
        <time>2021-08-17T06:02:20Z</time>
      </trkpt>
      <trkpt lat="44.64497" lon="1.56591">
        <ele>440.9</ele>
        <time>2021-08-17T06:02:28Z</time>
      </trkpt>
      <trkpt lat="44.64462" lon="1.56557">
        <ele>440.42</ele>
        <time>2021-08-17T06:02:35Z</time>
      </trkpt>
      <trkpt lat="44.64427" lon="1.56528">
        <ele>439.94</ele>
        <time>2021-08-17T06:02:42Z</time>
      </trkpt>
      <trkpt lat="44.64376" lon="1.56491">
        <ele>437.06</ele>
        <time>2021-08-17T06:02:51Z</time>
      </trkpt>
      <trkpt lat="44.64347" lon="1.56464">
        <ele>437.06</ele>
        <time>2021-08-17T06:02:57Z</time>
      </trkpt>
      <trkpt lat="44.64342" lon="1.56461">
        <ele>437.06</ele>
        <time>2021-08-17T06:02:58Z</time>
      </trkpt>
      <trkpt lat="44.64337" lon="1.56459">
        <ele>437.06</ele>
        <time>2021-08-17T06:02:59Z</time>
      </trkpt>
      <trkpt lat="44.64322" lon="1.56452">
        <ele>436.58</ele>
        <time>2021-08-17T06:03:02Z</time>
      </trkpt>
      <trkpt lat="44.6428" lon="1.5642">
        <ele>435.13</ele>
        <time>2021-08-17T06:03:10Z</time>
      </trkpt>
      <trkpt lat="44.64218" lon="1.56376">
        <ele>432.73</ele>
        <time>2021-08-17T06:03:20Z</time>
      </trkpt>
      <trkpt lat="44.64155" lon="1.56332">
        <ele>431.29</ele>
        <time>2021-08-17T06:03:30Z</time>
      </trkpt>
      <trkpt lat="44.64097" lon="1.56293">
        <ele>430.33</ele>
        <time>2021-08-17T06:03:39Z</time>
      </trkpt>
      <trkpt lat="44.64038" lon="1.56251">
        <ele>427.92</ele>
        <time>2021-08-17T06:03:48Z</time>
      </trkpt>
      <trkpt lat="44.63982" lon="1.56211">
        <ele>426.48</ele>
        <time>2021-08-17T06:03:56Z</time>
      </trkpt>
      <trkpt lat="44.63901" lon="1.56154">
        <ele>423.6</ele>
        <time>2021-08-17T06:04:07Z</time>
      </trkpt>
      <trkpt lat="44.63856" lon="1.56123">
        <ele>423.6</ele>
        <time>2021-08-17T06:04:14Z</time>
      </trkpt>
      <trkpt lat="44.63814" lon="1.56092">
        <ele>420.23</ele>
        <time>2021-08-17T06:04:21Z</time>
      </trkpt>
      <trkpt lat="44.63809" lon="1.56087">
        <ele>420.23</ele>
        <time>2021-08-17T06:04:22Z</time>
      </trkpt>
      <trkpt lat="44.63805" lon="1.56082">
        <ele>419.75</ele>
        <time>2021-08-17T06:04:23Z</time>
      </trkpt>
      <trkpt lat="44.63781" lon="1.56052">
        <ele>420.71</ele>
        <time>2021-08-17T06:04:30Z</time>
      </trkpt>
      <trkpt lat="44.63771" lon="1.56025">
        <ele>420.71</ele>
        <time>2021-08-17T06:04:36Z</time>
      </trkpt>
      <trkpt lat="44.63767" lon="1.56013">
        <ele>420.71</ele>
        <time>2021-08-17T06:04:38Z</time>
      </trkpt>
      <trkpt lat="44.63765" lon="1.56008">
        <ele>419.27</ele>
        <time>2021-08-17T06:04:39Z</time>
      </trkpt>
      <trkpt lat="44.63762" lon="1.56003">
        <ele>419.27</ele>
        <time>2021-08-17T06:04:40Z</time>
      </trkpt>
      <trkpt lat="44.6374" lon="1.55969">
        <ele>416.39</ele>
        <time>2021-08-17T06:04:47Z</time>
      </trkpt>
      <trkpt lat="44.63724" lon="1.55947">
        <ele>413.5</ele>
        <time>2021-08-17T06:04:52Z</time>
      </trkpt>
      <trkpt lat="44.6371" lon="1.55926">
        <ele>410.62</ele>
        <time>2021-08-17T06:04:56Z</time>
      </trkpt>
      <trkpt lat="44.63696" lon="1.55903">
        <ele>408.22</ele>
        <time>2021-08-17T06:05:00Z</time>
      </trkpt>
      <trkpt lat="44.63674" lon="1.55873">
        <ele>405.81</ele>
        <time>2021-08-17T06:05:06Z</time>
      </trkpt>
      <trkpt lat="44.63671" lon="1.55868">
        <ele>404.37</ele>
        <time>2021-08-17T06:05:07Z</time>
      </trkpt>
      <trkpt lat="44.63668" lon="1.55863">
        <ele>404.37</ele>
        <time>2021-08-17T06:05:08Z</time>
      </trkpt>
      <trkpt lat="44.63665" lon="1.55857">
        <ele>403.41</ele>
        <time>2021-08-17T06:05:09Z</time>
      </trkpt>
      <trkpt lat="44.63661" lon="1.55852">
        <ele>403.41</ele>
        <time>2021-08-17T06:05:10Z</time>
      </trkpt>
      <trkpt lat="44.63656" lon="1.55846">
        <ele>402.93</ele>
        <time>2021-08-17T06:05:11Z</time>
      </trkpt>
      <trkpt lat="44.63651" lon="1.55841">
        <ele>402.45</ele>
        <time>2021-08-17T06:05:12Z</time>
      </trkpt>
      <trkpt lat="44.63645" lon="1.55836">
        <ele>401.97</ele>
        <time>2021-08-17T06:05:13Z</time>
      </trkpt>
      <trkpt lat="44.63617" lon="1.5581">
        <ele>401.01</ele>
        <time>2021-08-17T06:05:19Z</time>
      </trkpt>
      <trkpt lat="44.6361" lon="1.55799">
        <ele>399.57</ele>
        <time>2021-08-17T06:05:21Z</time>
      </trkpt>
      <trkpt lat="44.63602" lon="1.55779">
        <ele>397.16</ele>
        <time>2021-08-17T06:05:24Z</time>
      </trkpt>
      <trkpt lat="44.636" lon="1.55774">
        <ele>396.2</ele>
        <time>2021-08-17T06:05:25Z</time>
      </trkpt>
      <trkpt lat="44.63597" lon="1.55769">
        <ele>395.72</ele>
        <time>2021-08-17T06:05:26Z</time>
      </trkpt>
      <trkpt lat="44.63593" lon="1.55764">
        <ele>395.24</ele>
        <time>2021-08-17T06:05:27Z</time>
      </trkpt>
      <trkpt lat="44.63589" lon="1.5576">
        <ele>394.28</ele>
        <time>2021-08-17T06:05:28Z</time>
      </trkpt>
      <trkpt lat="44.63586" lon="1.55756">
        <ele>393.8</ele>
        <time>2021-08-17T06:05:29Z</time>
      </trkpt>
      <trkpt lat="44.63574" lon="1.55746">
        <ele>391.39</ele>
        <time>2021-08-17T06:05:32Z</time>
      </trkpt>
      <trkpt lat="44.6357" lon="1.55743">
        <ele>390.91</ele>
        <time>2021-08-17T06:05:33Z</time>
      </trkpt>
      <trkpt lat="44.63546" lon="1.5573">
        <ele>388.03</ele>
        <time>2021-08-17T06:05:39Z</time>
      </trkpt>
      <trkpt lat="44.63541" lon="1.55728">
        <ele>387.55</ele>
        <time>2021-08-17T06:05:40Z</time>
      </trkpt>
      <trkpt lat="44.63537" lon="1.55728">
        <ele>386.59</ele>
        <time>2021-08-17T06:05:41Z</time>
      </trkpt>
      <trkpt lat="44.63532" lon="1.55728">
        <ele>386.11</ele>
        <time>2021-08-17T06:05:42Z</time>
      </trkpt>
      <trkpt lat="44.63528" lon="1.55729">
        <ele>385.63</ele>
        <time>2021-08-17T06:05:43Z</time>
      </trkpt>
      <trkpt lat="44.63524" lon="1.55731">
        <ele>384.66</ele>
        <time>2021-08-17T06:05:44Z</time>
      </trkpt>
      <trkpt lat="44.6352" lon="1.55733">
        <ele>384.18</ele>
        <time>2021-08-17T06:05:45Z</time>
      </trkpt>
      <trkpt lat="44.63516" lon="1.55735">
        <ele>383.22</ele>
        <time>2021-08-17T06:05:46Z</time>
      </trkpt>
      <trkpt lat="44.63504" lon="1.55743">
        <ele>380.34</ele>
        <time>2021-08-17T06:05:50Z</time>
      </trkpt>
      <trkpt lat="44.63492" lon="1.55749">
        <ele>376.97</ele>
        <time>2021-08-17T06:05:54Z</time>
      </trkpt>
      <trkpt lat="44.63477" lon="1.55756">
        <ele>373.13</ele>
        <time>2021-08-17T06:05:59Z</time>
      </trkpt>
      <trkpt lat="44.63465" lon="1.55767">
        <ele>371.69</ele>
        <time>2021-08-17T06:06:03Z</time>
      </trkpt>
      <trkpt lat="44.63462" lon="1.55766">
        <ele>371.21</ele>
        <time>2021-08-17T06:06:04Z</time>
      </trkpt>
      <trkpt lat="44.6346" lon="1.55764">
        <ele>370.73</ele>
        <time>2021-08-17T06:06:05Z</time>
      </trkpt>
      <trkpt lat="44.63447" lon="1.55753">
        <ele>368.8</ele>
        <time>2021-08-17T06:06:10Z</time>
      </trkpt>
      <trkpt lat="44.63429" lon="1.55736">
        <ele>365.92</ele>
        <time>2021-08-17T06:06:15Z</time>
      </trkpt>
      <trkpt lat="44.63407" lon="1.55711">
        <ele>362.07</ele>
        <time>2021-08-17T06:06:22Z</time>
      </trkpt>
      <trkpt lat="44.63398" lon="1.55693">
        <ele>358.71</ele>
        <time>2021-08-17T06:06:26Z</time>
      </trkpt>
      <trkpt lat="44.63391" lon="1.55677">
        <ele>354.86</ele>
        <time>2021-08-17T06:06:30Z</time>
      </trkpt>
      <trkpt lat="44.63388" lon="1.55663">
        <ele>351.98</ele>
        <time>2021-08-17T06:06:34Z</time>
      </trkpt>
      <trkpt lat="44.63382" lon="1.55649">
        <ele>348.62</ele>
        <time>2021-08-17T06:06:38Z</time>
      </trkpt>
      <trkpt lat="44.63377" lon="1.55633">
        <ele>344.77</ele>
        <time>2021-08-17T06:06:42Z</time>
      </trkpt>
      <trkpt lat="44.63372" lon="1.55615">
        <ele>341.89</ele>
        <time>2021-08-17T06:06:46Z</time>
      </trkpt>
      <trkpt lat="44.63363" lon="1.556">
        <ele>338.52</ele>
        <time>2021-08-17T06:06:51Z</time>
      </trkpt>
      <trkpt lat="44.63359" lon="1.55598">
        <ele>338.04</ele>
        <time>2021-08-17T06:06:52Z</time>
      </trkpt>
      <trkpt lat="44.63345" lon="1.55593">
        <ele>337.56</ele>
        <time>2021-08-17T06:06:55Z</time>
      </trkpt>
      <trkpt lat="44.63336" lon="1.55587">
        <ele>337.08</ele>
        <time>2021-08-17T06:06:57Z</time>
      </trkpt>
      <trkpt lat="44.63333" lon="1.55584">
        <ele>337.08</ele>
        <time>2021-08-17T06:06:58Z</time>
      </trkpt>
      <trkpt lat="44.6331" lon="1.55562">
        <ele>335.64</ele>
        <time>2021-08-17T06:07:05Z</time>
      </trkpt>
      <trkpt lat="44.63295" lon="1.55545">
        <ele>335.64</ele>
        <time>2021-08-17T06:07:11Z</time>
      </trkpt>
      <trkpt lat="44.63281" lon="1.5553">
        <ele>334.68</ele>
        <time>2021-08-17T06:07:16Z</time>
      </trkpt>
      <trkpt lat="44.63272" lon="1.55519">
        <ele>333.71</ele>
        <time>2021-08-17T06:07:19Z</time>
      </trkpt>
      <trkpt lat="44.6325" lon="1.55502">
        <ele>332.27</ele>
        <time>2021-08-17T06:07:24Z</time>
      </trkpt>
      <trkpt lat="44.63244" lon="1.55497">
        <ele>331.31</ele>
        <time>2021-08-17T06:07:25Z</time>
      </trkpt>
      <trkpt lat="44.63204" lon="1.55467">
        <ele>330.35</ele>
        <time>2021-08-17T06:07:31Z</time>
      </trkpt>
      <trkpt lat="44.63199" lon="1.55461">
        <ele>329.87</ele>
        <time>2021-08-17T06:07:32Z</time>
      </trkpt>
      <trkpt lat="44.63195" lon="1.55456">
        <ele>329.87</ele>
        <time>2021-08-17T06:07:33Z</time>
      </trkpt>
      <trkpt lat="44.63191" lon="1.55451">
        <ele>328.91</ele>
        <time>2021-08-17T06:07:34Z</time>
      </trkpt>
      <trkpt lat="44.63186" lon="1.55445">
        <ele>328.43</ele>
        <time>2021-08-17T06:07:35Z</time>
      </trkpt>
      <trkpt lat="44.63152" lon="1.5541">
        <ele>326.02</ele>
        <time>2021-08-17T06:07:41Z</time>
      </trkpt>
      <trkpt lat="44.63108" lon="1.55388">
        <ele>325.54</ele>
        <time>2021-08-17T06:07:48Z</time>
      </trkpt>
      <trkpt lat="44.63079" lon="1.55371">
        <ele>324.1</ele>
        <time>2021-08-17T06:07:54Z</time>
      </trkpt>
      <trkpt lat="44.63041" lon="1.5534">
        <ele>320.74</ele>
        <time>2021-08-17T06:08:00Z</time>
      </trkpt>
      <trkpt lat="44.63028" lon="1.55329">
        <ele>319.78</ele>
        <time>2021-08-17T06:08:02Z</time>
      </trkpt>
      <trkpt lat="44.62994" lon="1.55306">
        <ele>317.85</ele>
        <time>2021-08-17T06:08:07Z</time>
      </trkpt>
      <trkpt lat="44.62987" lon="1.55304">
        <ele>317.85</ele>
        <time>2021-08-17T06:08:08Z</time>
      </trkpt>
      <trkpt lat="44.62937" lon="1.55291">
        <ele>316.89</ele>
        <time>2021-08-17T06:08:16Z</time>
      </trkpt>
      <trkpt lat="44.62926" lon="1.55288">
        <ele>316.89</ele>
        <time>2021-08-17T06:08:18Z</time>
      </trkpt>
      <trkpt lat="44.6292" lon="1.55287">
        <ele>316.41</ele>
        <time>2021-08-17T06:08:19Z</time>
      </trkpt>
      <trkpt lat="44.62914" lon="1.55286">
        <ele>316.89</ele>
        <time>2021-08-17T06:08:20Z</time>
      </trkpt>
      <trkpt lat="44.62898" lon="1.55284">
        <ele>315.45</ele>
        <time>2021-08-17T06:08:23Z</time>
      </trkpt>
      <trkpt lat="44.62857" lon="1.55266">
        <ele>313.53</ele>
        <time>2021-08-17T06:08:30Z</time>
      </trkpt>
      <trkpt lat="44.62815" lon="1.55246">
        <ele>312.09</ele>
        <time>2021-08-17T06:08:37Z</time>
      </trkpt>
      <trkpt lat="44.62808" lon="1.55244">
        <ele>311.12</ele>
        <time>2021-08-17T06:08:38Z</time>
      </trkpt>
      <trkpt lat="44.62795" lon="1.55242">
        <ele>311.6</ele>
        <time>2021-08-17T06:08:40Z</time>
      </trkpt>
      <trkpt lat="44.62783" lon="1.55242">
        <ele>311.12</ele>
        <time>2021-08-17T06:08:42Z</time>
      </trkpt>
      <trkpt lat="44.62777" lon="1.55243">
        <ele>311.12</ele>
        <time>2021-08-17T06:08:43Z</time>
      </trkpt>
      <trkpt lat="44.62758" lon="1.55245">
        <ele>311.12</ele>
        <time>2021-08-17T06:08:47Z</time>
      </trkpt>
      <trkpt lat="44.62735" lon="1.5525">
        <ele>310.64</ele>
        <time>2021-08-17T06:08:52Z</time>
      </trkpt>
      <trkpt lat="44.62703" lon="1.55259">
        <ele>309.2</ele>
        <time>2021-08-17T06:08:59Z</time>
      </trkpt>
      <trkpt lat="44.62674" lon="1.55269">
        <ele>307.76</ele>
        <time>2021-08-17T06:09:04Z</time>
      </trkpt>
      <trkpt lat="44.62644" lon="1.55287">
        <ele>307.76</ele>
        <time>2021-08-17T06:09:10Z</time>
      </trkpt>
      <trkpt lat="44.62636" lon="1.5529">
        <ele>308.72</ele>
        <time>2021-08-17T06:09:12Z</time>
      </trkpt>
      <trkpt lat="44.62625" lon="1.55288">
        <ele>309.2</ele>
        <time>2021-08-17T06:09:15Z</time>
      </trkpt>
      <trkpt lat="44.62616" lon="1.55283">
        <ele>308.24</ele>
        <time>2021-08-17T06:09:17Z</time>
      </trkpt>
      <trkpt lat="44.62592" lon="1.55267">
        <ele>305.84</ele>
        <time>2021-08-17T06:09:23Z</time>
      </trkpt>
      <trkpt lat="44.62577" lon="1.55259">
        <ele>304.88</ele>
        <time>2021-08-17T06:09:26Z</time>
      </trkpt>
      <trkpt lat="44.62536" lon="1.55242">
        <ele>302.95</ele>
        <time>2021-08-17T06:09:33Z</time>
      </trkpt>
      <trkpt lat="44.62499" lon="1.55228">
        <ele>300.55</ele>
        <time>2021-08-17T06:09:39Z</time>
      </trkpt>
      <trkpt lat="44.62453" lon="1.55223">
        <ele>298.63</ele>
        <time>2021-08-17T06:09:46Z</time>
      </trkpt>
      <trkpt lat="44.62413" lon="1.55217">
        <ele>297.67</ele>
        <time>2021-08-17T06:09:53Z</time>
      </trkpt>
      <trkpt lat="44.624" lon="1.55212">
        <ele>297.67</ele>
        <time>2021-08-17T06:09:56Z</time>
      </trkpt>
      <trkpt lat="44.62378" lon="1.55201">
        <ele>296.22</ele>
        <time>2021-08-17T06:10:00Z</time>
      </trkpt>
      <trkpt lat="44.62354" lon="1.55191">
        <ele>295.26</ele>
        <time>2021-08-17T06:10:04Z</time>
      </trkpt>
      <trkpt lat="44.6235" lon="1.5519">
        <ele>295.26</ele>
        <time>2021-08-17T06:10:05Z</time>
      </trkpt>
      <trkpt lat="44.62338" lon="1.55185">
        <ele>296.7</ele>
        <time>2021-08-17T06:10:08Z</time>
      </trkpt>
      <trkpt lat="44.62318" lon="1.55179">
        <ele>298.15</ele>
        <time>2021-08-17T06:10:16Z</time>
      </trkpt>
      <trkpt lat="44.62294" lon="1.55171">
        <ele>297.18</ele>
        <time>2021-08-17T06:10:22Z</time>
      </trkpt>
      <trkpt lat="44.62259" lon="1.55156">
        <ele>294.3</ele>
        <time>2021-08-17T06:10:28Z</time>
      </trkpt>
      <trkpt lat="44.62207" lon="1.55136">
        <ele>290.94</ele>
        <time>2021-08-17T06:10:35Z</time>
      </trkpt>
      <trkpt lat="44.62154" lon="1.55123">
        <ele>288.05</ele>
        <time>2021-08-17T06:10:42Z</time>
      </trkpt>
      <trkpt lat="44.62149" lon="1.55123">
        <ele>288.05</ele>
        <time>2021-08-17T06:10:43Z</time>
      </trkpt>
      <trkpt lat="44.62129" lon="1.5512">
        <ele>287.09</ele>
        <time>2021-08-17T06:10:48Z</time>
      </trkpt>
      <trkpt lat="44.62128" lon="1.55117">
        <ele>287.09</ele>
        <time>2021-08-17T06:10:49Z</time>
      </trkpt>
      <trkpt lat="44.62127" lon="1.55112">
        <ele>285.65</ele>
        <time>2021-08-17T06:10:50Z</time>
      </trkpt>
      <trkpt lat="44.62126" lon="1.55106">
        <ele>285.65</ele>
        <time>2021-08-17T06:10:51Z</time>
      </trkpt>
      <trkpt lat="44.62124" lon="1.551">
        <ele>285.17</ele>
        <time>2021-08-17T06:10:52Z</time>
      </trkpt>
      <trkpt lat="44.62122" lon="1.55094">
        <ele>285.17</ele>
        <time>2021-08-17T06:10:53Z</time>
      </trkpt>
      <trkpt lat="44.6212" lon="1.55089">
        <ele>285.17</ele>
        <time>2021-08-17T06:10:54Z</time>
      </trkpt>
      <trkpt lat="44.62118" lon="1.55086">
        <ele>285.17</ele>
        <time>2021-08-17T06:10:55Z</time>
      </trkpt>
      <trkpt lat="44.62116" lon="1.55085">
        <ele>285.17</ele>
        <time>2021-08-17T06:10:56Z</time>
      </trkpt>
      <trkpt lat="44.62112" lon="1.55085">
        <ele>285.17</ele>
        <time>2021-08-17T06:10:57Z</time>
      </trkpt>
      <trkpt lat="44.62109" lon="1.55085">
        <ele>285.17</ele>
        <time>2021-08-17T06:10:58Z</time>
      </trkpt>
      <trkpt lat="44.62106" lon="1.55085">
        <ele>285.17</ele>
        <time>2021-08-17T06:10:59Z</time>
      </trkpt>
      <trkpt lat="44.62102" lon="1.55085">
        <ele>285.17</ele>
        <time>2021-08-17T06:11:00Z</time>
      </trkpt>
      <trkpt lat="44.62099" lon="1.55084">
        <ele>285.17</ele>
        <time>2021-08-17T06:11:01Z</time>
      </trkpt>
      <trkpt lat="44.62096" lon="1.55084">
        <ele>285.17</ele>
        <time>2021-08-17T06:11:02Z</time>
      </trkpt>
      <trkpt lat="44.62093" lon="1.55083">
        <ele>285.17</ele>
        <time>2021-08-17T06:11:03Z</time>
      </trkpt>
      <trkpt lat="44.6209" lon="1.55084">
        <ele>285.17</ele>
        <time>2021-08-17T06:11:04Z</time>
      </trkpt>
      <trkpt lat="44.62087" lon="1.55085">
        <ele>285.17</ele>
        <time>2021-08-17T06:11:05Z</time>
      </trkpt>
      <trkpt lat="44.62083" lon="1.55086">
        <ele>285.17</ele>
        <time>2021-08-17T06:11:06Z</time>
      </trkpt>
      <trkpt lat="44.6208" lon="1.55087">
        <ele>284.69</ele>
        <time>2021-08-17T06:11:07Z</time>
      </trkpt>
      <trkpt lat="44.62076" lon="1.55087">
        <ele>284.69</ele>
        <time>2021-08-17T06:11:08Z</time>
      </trkpt>
      <trkpt lat="44.62052" lon="1.55085">
        <ele>284.69</ele>
        <time>2021-08-17T06:11:15Z</time>
      </trkpt>
      <trkpt lat="44.6203" lon="1.5507">
        <ele>281.8</ele>
        <time>2021-08-17T06:11:21Z</time>
      </trkpt>
      <trkpt lat="44.62026" lon="1.55066">
        <ele>280.84</ele>
        <time>2021-08-17T06:11:22Z</time>
      </trkpt>
      <trkpt lat="44.62022" lon="1.55063">
        <ele>280.36</ele>
        <time>2021-08-17T06:11:23Z</time>
      </trkpt>
      <trkpt lat="44.62013" lon="1.55054">
        <ele>279.88</ele>
        <time>2021-08-17T06:11:25Z</time>
      </trkpt>
      <trkpt lat="44.62009" lon="1.55049">
        <ele>279.4</ele>
        <time>2021-08-17T06:11:26Z</time>
      </trkpt>
      <trkpt lat="44.62002" lon="1.55038">
        <ele>279.4</ele>
        <time>2021-08-17T06:11:28Z</time>
      </trkpt>
      <trkpt lat="44.61984" lon="1.55004">
        <ele>279.4</ele>
        <time>2021-08-17T06:11:35Z</time>
      </trkpt>
      <trkpt lat="44.61967" lon="1.54977">
        <ele>279.4</ele>
        <time>2021-08-17T06:11:42Z</time>
      </trkpt>
      <trkpt lat="44.61945" lon="1.54938">
        <ele>279.4</ele>
        <time>2021-08-17T06:11:51Z</time>
      </trkpt>
      <trkpt lat="44.61925" lon="1.54909">
        <ele>278.92</ele>
        <time>2021-08-17T06:11:58Z</time>
      </trkpt>
      <trkpt lat="44.61894" lon="1.54869">
        <ele>277.48</ele>
        <time>2021-08-17T06:12:06Z</time>
      </trkpt>
      <trkpt lat="44.61892" lon="1.54862">
        <ele>277.48</ele>
        <time>2021-08-17T06:12:07Z</time>
      </trkpt>
      <trkpt lat="44.61891" lon="1.54855">
        <ele>276.52</ele>
        <time>2021-08-17T06:12:08Z</time>
      </trkpt>
      <trkpt lat="44.6189" lon="1.54848">
        <ele>276.52</ele>
        <time>2021-08-17T06:12:09Z</time>
      </trkpt>
      <trkpt lat="44.6189" lon="1.5484">
        <ele>275.56</ele>
        <time>2021-08-17T06:12:10Z</time>
      </trkpt>
      <trkpt lat="44.61889" lon="1.54834">
        <ele>275.07</ele>
        <time>2021-08-17T06:12:11Z</time>
      </trkpt>
      <trkpt lat="44.61886" lon="1.54829">
        <ele>274.59</ele>
        <time>2021-08-17T06:12:12Z</time>
      </trkpt>
      <trkpt lat="44.61883" lon="1.54824">
        <ele>274.59</ele>
        <time>2021-08-17T06:12:13Z</time>
      </trkpt>
      <trkpt lat="44.61879" lon="1.5482">
        <ele>274.11</ele>
        <time>2021-08-17T06:12:14Z</time>
      </trkpt>
      <trkpt lat="44.61876" lon="1.54817">
        <ele>274.11</ele>
        <time>2021-08-17T06:12:15Z</time>
      </trkpt>
      <trkpt lat="44.61872" lon="1.54815">
        <ele>274.59</ele>
        <time>2021-08-17T06:12:16Z</time>
      </trkpt>
      <trkpt lat="44.61869" lon="1.54814">
        <ele>274.59</ele>
        <time>2021-08-17T06:12:17Z</time>
      </trkpt>
      <trkpt lat="44.61849" lon="1.54812">
        <ele>275.56</ele>
        <time>2021-08-17T06:12:23Z</time>
      </trkpt>
      <trkpt lat="44.61832" lon="1.54812">
        <ele>277</ele>
        <time>2021-08-17T06:12:30Z</time>
      </trkpt>
      <trkpt lat="44.61818" lon="1.54816">
        <ele>278.44</ele>
        <time>2021-08-17T06:12:39Z</time>
      </trkpt>
      <trkpt lat="44.61803" lon="1.5481">
        <ele>279.88</ele>
        <time>2021-08-17T06:12:48Z</time>
      </trkpt>
      <trkpt lat="44.61789" lon="1.54794">
        <ele>280.36</ele>
        <time>2021-08-17T06:12:57Z</time>
      </trkpt>
      <trkpt lat="44.61778" lon="1.54763">
        <ele>280.84</ele>
        <time>2021-08-17T06:13:06Z</time>
      </trkpt>
      <trkpt lat="44.61763" lon="1.54716">
        <ele>278.44</ele>
        <time>2021-08-17T06:13:15Z</time>
      </trkpt>
      <trkpt lat="44.61759" lon="1.54701">
        <ele>277.48</ele>
        <time>2021-08-17T06:13:17Z</time>
      </trkpt>
      <trkpt lat="44.61742" lon="1.54649">
        <ele>274.59</ele>
        <time>2021-08-17T06:13:23Z</time>
      </trkpt>
      <trkpt lat="44.61731" lon="1.54618">
        <ele>272.67</ele>
        <time>2021-08-17T06:13:26Z</time>
      </trkpt>
      <trkpt lat="44.6171" lon="1.54565">
        <ele>271.71</ele>
        <time>2021-08-17T06:13:32Z</time>
      </trkpt>
      <trkpt lat="44.61706" lon="1.54558">
        <ele>271.71</ele>
        <time>2021-08-17T06:13:33Z</time>
      </trkpt>
      <trkpt lat="44.61696" lon="1.54543">
        <ele>270.27</ele>
        <time>2021-08-17T06:13:35Z</time>
      </trkpt>
      <trkpt lat="44.61693" lon="1.54534">
        <ele>270.27</ele>
        <time>2021-08-17T06:13:36Z</time>
      </trkpt>
      <trkpt lat="44.61667" lon="1.54475">
        <ele>269.31</ele>
        <time>2021-08-17T06:13:43Z</time>
      </trkpt>
      <trkpt lat="44.61647" lon="1.54437">
        <ele>269.31</ele>
        <time>2021-08-17T06:13:49Z</time>
      </trkpt>
      <trkpt lat="44.61623" lon="1.54401">
        <ele>268.83</ele>
        <time>2021-08-17T06:13:57Z</time>
      </trkpt>
      <trkpt lat="44.61613" lon="1.54389">
        <ele>268.83</ele>
        <time>2021-08-17T06:14:00Z</time>
      </trkpt>
      <trkpt lat="44.61582" lon="1.54362">
        <ele>270.27</ele>
        <time>2021-08-17T06:14:09Z</time>
      </trkpt>
      <trkpt lat="44.6158" lon="1.5436">
        <ele>270.27</ele>
        <time>2021-08-17T06:14:10Z</time>
      </trkpt>
      <trkpt lat="44.61561" lon="1.5435">
        <ele>271.23</ele>
        <time>2021-08-17T06:14:17Z</time>
      </trkpt>
      <trkpt lat="44.61556" lon="1.5435">
        <ele>271.23</ele>
        <time>2021-08-17T06:14:18Z</time>
      </trkpt>
      <trkpt lat="44.61552" lon="1.54351">
        <ele>271.23</ele>
        <time>2021-08-17T06:14:19Z</time>
      </trkpt>
      <trkpt lat="44.61545" lon="1.54353">
        <ele>270.27</ele>
        <time>2021-08-17T06:14:21Z</time>
      </trkpt>
      <trkpt lat="44.61512" lon="1.54349">
        <ele>269.79</ele>
        <time>2021-08-17T06:14:29Z</time>
      </trkpt>
      <trkpt lat="44.61479" lon="1.54335">
        <ele>268.35</ele>
        <time>2021-08-17T06:14:37Z</time>
      </trkpt>
      <trkpt lat="44.61455" lon="1.5433">
        <ele>269.79</ele>
        <time>2021-08-17T06:14:43Z</time>
      </trkpt>
      <trkpt lat="44.61442" lon="1.5433">
        <ele>267.86</ele>
        <time>2021-08-17T06:14:46Z</time>
      </trkpt>
      <trkpt lat="44.61398" lon="1.5434">
        <ele>266.42</ele>
        <time>2021-08-17T06:14:53Z</time>
      </trkpt>
      <trkpt lat="44.61337" lon="1.54356">
        <ele>264.5</ele>
        <time>2021-08-17T06:15:03Z</time>
      </trkpt>
      <trkpt lat="44.61298" lon="1.54358">
        <ele>264.5</ele>
        <time>2021-08-17T06:15:10Z</time>
      </trkpt>
      <trkpt lat="44.61294" lon="1.54356">
        <ele>264.5</ele>
        <time>2021-08-17T06:15:11Z</time>
      </trkpt>
      <trkpt lat="44.61291" lon="1.54354">
        <ele>264.5</ele>
        <time>2021-08-17T06:15:12Z</time>
      </trkpt>
      <trkpt lat="44.61287" lon="1.5435">
        <ele>264.02</ele>
        <time>2021-08-17T06:15:13Z</time>
      </trkpt>
      <trkpt lat="44.61284" lon="1.54347">
        <ele>264.5</ele>
        <time>2021-08-17T06:15:14Z</time>
      </trkpt>
      <trkpt lat="44.6128" lon="1.54343">
        <ele>264.5</ele>
        <time>2021-08-17T06:15:15Z</time>
      </trkpt>
      <trkpt lat="44.61253" lon="1.54307">
        <ele>263.06</ele>
        <time>2021-08-17T06:15:22Z</time>
      </trkpt>
      <trkpt lat="44.61236" lon="1.54292">
        <ele>263.06</ele>
        <time>2021-08-17T06:15:26Z</time>
      </trkpt>
      <trkpt lat="44.61218" lon="1.54282">
        <ele>264.98</ele>
        <time>2021-08-17T06:15:32Z</time>
      </trkpt>
      <trkpt lat="44.61206" lon="1.5428">
        <ele>266.9</ele>
        <time>2021-08-17T06:15:41Z</time>
      </trkpt>
      <trkpt lat="44.61197" lon="1.54283">
        <ele>268.35</ele>
        <time>2021-08-17T06:15:49Z</time>
      </trkpt>
      <trkpt lat="44.61189" lon="1.54289">
        <ele>269.31</ele>
        <time>2021-08-17T06:15:57Z</time>
      </trkpt>
      <trkpt lat="44.61185" lon="1.54293">
        <ele>270.75</ele>
        <time>2021-08-17T06:16:04Z</time>
      </trkpt>
      <trkpt lat="44.61179" lon="1.543">
        <ele>271.71</ele>
        <time>2021-08-17T06:16:13Z</time>
      </trkpt>
      <trkpt lat="44.61176" lon="1.54304">
        <ele>273.15</ele>
        <time>2021-08-17T06:16:19Z</time>
      </trkpt>
      <trkpt lat="44.61171" lon="1.54311">
        <ele>274.59</ele>
        <time>2021-08-17T06:16:27Z</time>
      </trkpt>
      <trkpt lat="44.6117" lon="1.54313">
        <ele>275.07</ele>
        <time>2021-08-17T06:16:31Z</time>
      </trkpt>
      <trkpt lat="44.61161" lon="1.54322">
        <ele>277</ele>
        <time>2021-08-17T06:16:41Z</time>
      </trkpt>
      <trkpt lat="44.61155" lon="1.54329">
        <ele>277.96</ele>
        <time>2021-08-17T06:16:49Z</time>
      </trkpt>
      <trkpt lat="44.61149" lon="1.54336">
        <ele>279.4</ele>
        <time>2021-08-17T06:16:57Z</time>
      </trkpt>
      <trkpt lat="44.61141" lon="1.54344">
        <ele>281.32</ele>
        <time>2021-08-17T06:17:07Z</time>
      </trkpt>
      <trkpt lat="44.61134" lon="1.5435">
        <ele>282.77</ele>
        <time>2021-08-17T06:17:15Z</time>
      </trkpt>
      <trkpt lat="44.61127" lon="1.54357">
        <ele>284.21</ele>
        <time>2021-08-17T06:17:24Z</time>
      </trkpt>
      <trkpt lat="44.61116" lon="1.54364">
        <ele>286.61</ele>
        <time>2021-08-17T06:17:35Z</time>
      </trkpt>
      <trkpt lat="44.61109" lon="1.54367">
        <ele>288.05</ele>
        <time>2021-08-17T06:17:43Z</time>
      </trkpt>
      <trkpt lat="44.61099" lon="1.54371">
        <ele>289.49</ele>
        <time>2021-08-17T06:17:54Z</time>
      </trkpt>
      <trkpt lat="44.61092" lon="1.54374">
        <ele>290.94</ele>
        <time>2021-08-17T06:18:01Z</time>
      </trkpt>
      <trkpt lat="44.61083" lon="1.54378">
        <ele>292.86</ele>
        <time>2021-08-17T06:18:11Z</time>
      </trkpt>
      <trkpt lat="44.61075" lon="1.54383">
        <ele>294.3</ele>
        <time>2021-08-17T06:18:20Z</time>
      </trkpt>
      <trkpt lat="44.61067" lon="1.54387">
        <ele>295.26</ele>
        <time>2021-08-17T06:18:28Z</time>
      </trkpt>
      <trkpt lat="44.61058" lon="1.5439">
        <ele>296.7</ele>
        <time>2021-08-17T06:18:37Z</time>
      </trkpt>
      <trkpt lat="44.61047" lon="1.54395">
        <ele>298.63</ele>
        <time>2021-08-17T06:18:48Z</time>
      </trkpt>
      <trkpt lat="44.61037" lon="1.54399">
        <ele>300.55</ele>
        <time>2021-08-17T06:18:58Z</time>
      </trkpt>
      <trkpt lat="44.6103" lon="1.54401">
        <ele>301.99</ele>
        <time>2021-08-17T06:19:06Z</time>
      </trkpt>
      <trkpt lat="44.61017" lon="1.54407">
        <ele>303.91</ele>
        <time>2021-08-17T06:19:18Z</time>
      </trkpt>
      <trkpt lat="44.61008" lon="1.54409">
        <ele>305.36</ele>
        <time>2021-08-17T06:19:28Z</time>
      </trkpt>
      <trkpt lat="44.60998" lon="1.5441">
        <ele>307.28</ele>
        <time>2021-08-17T06:19:38Z</time>
      </trkpt>
      <trkpt lat="44.60991" lon="1.54412">
        <ele>308.24</ele>
        <time>2021-08-17T06:19:46Z</time>
      </trkpt>
      <trkpt lat="44.60984" lon="1.54413">
        <ele>309.68</ele>
        <time>2021-08-17T06:19:54Z</time>
      </trkpt>
      <trkpt lat="44.60975" lon="1.54414">
        <ele>311.6</ele>
        <time>2021-08-17T06:20:04Z</time>
      </trkpt>
      <trkpt lat="44.60966" lon="1.54417">
        <ele>312.57</ele>
        <time>2021-08-17T06:20:14Z</time>
      </trkpt>
      <trkpt lat="44.60954" lon="1.54421">
        <ele>314.01</ele>
        <time>2021-08-17T06:20:25Z</time>
      </trkpt>
      <trkpt lat="44.60943" lon="1.54424">
        <ele>315.45</ele>
        <time>2021-08-17T06:20:34Z</time>
      </trkpt>
      <trkpt lat="44.60937" lon="1.54427">
        <ele>316.41</ele>
        <time>2021-08-17T06:20:44Z</time>
      </trkpt>
      <trkpt lat="44.60936" lon="1.54427">
        <ele>316.41</ele>
        <time>2021-08-17T06:20:57Z</time>
      </trkpt>
      <trkpt lat="44.60937" lon="1.54427">
        <ele>316.41</ele>
        <time>2021-08-17T06:21:15Z</time>
      </trkpt>
      <trkpt lat="44.60937" lon="1.54426">
        <ele>316.41</ele>
        <time>2021-08-17T06:21:27Z</time>
      </trkpt>
      <trkpt lat="44.60936" lon="1.54427">
        <ele>316.41</ele>
        <time>2021-08-17T06:21:39Z</time>
      </trkpt>
      <trkpt lat="44.60936" lon="1.54426">
        <ele>316.41</ele>
        <time>2021-08-17T06:21:54Z</time>
      </trkpt>
      <trkpt lat="44.60936" lon="1.54428">
        <ele>316.41</ele>
        <time>2021-08-17T06:22:12Z</time>
      </trkpt>
      <trkpt lat="44.60934" lon="1.54429">
        <ele>316.89</ele>
        <time>2021-08-17T06:22:22Z</time>
      </trkpt>
      <trkpt lat="44.60933" lon="1.54429">
        <ele>316.89</ele>
        <time>2021-08-17T06:22:23Z</time>
      </trkpt>
      <trkpt lat="44.60932" lon="1.5443">
        <ele>317.37</ele>
        <time>2021-08-17T06:22:24Z</time>
      </trkpt>
      <trkpt lat="44.6093" lon="1.54431">
        <ele>317.37</ele>
        <time>2021-08-17T06:22:25Z</time>
      </trkpt>
      <trkpt lat="44.60929" lon="1.54431">
        <ele>317.37</ele>
        <time>2021-08-17T06:22:26Z</time>
      </trkpt>
      <trkpt lat="44.60925" lon="1.54434">
        <ele>318.33</ele>
        <time>2021-08-17T06:22:30Z</time>
      </trkpt>
      <trkpt lat="44.60924" lon="1.54434">
        <ele>318.33</ele>
        <time>2021-08-17T06:22:31Z</time>
      </trkpt>
      <trkpt lat="44.6091" lon="1.54438">
        <ele>320.26</ele>
        <time>2021-08-17T06:22:41Z</time>
      </trkpt>
      <trkpt lat="44.60902" lon="1.54441">
        <ele>321.7</ele>
        <time>2021-08-17T06:22:48Z</time>
      </trkpt>
      <trkpt lat="44.60894" lon="1.54441">
        <ele>322.66</ele>
        <time>2021-08-17T06:22:54Z</time>
      </trkpt>
      <trkpt lat="44.60893" lon="1.54442">
        <ele>323.62</ele>
        <time>2021-08-17T06:22:55Z</time>
      </trkpt>
      <trkpt lat="44.60891" lon="1.54442">
        <ele>323.62</ele>
        <time>2021-08-17T06:22:56Z</time>
      </trkpt>
      <trkpt lat="44.6089" lon="1.54442">
        <ele>323.62</ele>
        <time>2021-08-17T06:22:57Z</time>
      </trkpt>
      <trkpt lat="44.60888" lon="1.54442">
        <ele>323.62</ele>
        <time>2021-08-17T06:22:58Z</time>
      </trkpt>
      <trkpt lat="44.60887" lon="1.54441">
        <ele>323.62</ele>
        <time>2021-08-17T06:22:59Z</time>
      </trkpt>
      <trkpt lat="44.60886" lon="1.54441">
        <ele>324.1</ele>
        <time>2021-08-17T06:23:00Z</time>
      </trkpt>
      <trkpt lat="44.60884" lon="1.54441">
        <ele>324.1</ele>
        <time>2021-08-17T06:23:01Z</time>
      </trkpt>
      <trkpt lat="44.60883" lon="1.54441">
        <ele>324.1</ele>
        <time>2021-08-17T06:23:02Z</time>
      </trkpt>
      <trkpt lat="44.60882" lon="1.54442">
        <ele>324.58</ele>
        <time>2021-08-17T06:23:03Z</time>
      </trkpt>
      <trkpt lat="44.6088" lon="1.54442">
        <ele>324.58</ele>
        <time>2021-08-17T06:23:04Z</time>
      </trkpt>
      <trkpt lat="44.60879" lon="1.54442">
        <ele>324.58</ele>
        <time>2021-08-17T06:23:05Z</time>
      </trkpt>
      <trkpt lat="44.60878" lon="1.54441">
        <ele>325.06</ele>
        <time>2021-08-17T06:23:06Z</time>
      </trkpt>
      <trkpt lat="44.60877" lon="1.54441">
        <ele>325.06</ele>
        <time>2021-08-17T06:23:07Z</time>
      </trkpt>
      <trkpt lat="44.60875" lon="1.54441">
        <ele>325.06</ele>
        <time>2021-08-17T06:23:08Z</time>
      </trkpt>
      <trkpt lat="44.60874" lon="1.54441">
        <ele>325.54</ele>
        <time>2021-08-17T06:23:09Z</time>
      </trkpt>
      <trkpt lat="44.60862" lon="1.54437">
        <ele>326.99</ele>
        <time>2021-08-17T06:23:19Z</time>
      </trkpt>
      <trkpt lat="44.60851" lon="1.54433">
        <ele>328.91</ele>
        <time>2021-08-17T06:23:28Z</time>
      </trkpt>
      <trkpt lat="44.6085" lon="1.54432">
        <ele>328.91</ele>
        <time>2021-08-17T06:23:29Z</time>
      </trkpt>
      <trkpt lat="44.60849" lon="1.54432">
        <ele>328.91</ele>
        <time>2021-08-17T06:23:30Z</time>
      </trkpt>
      <trkpt lat="44.60848" lon="1.54431">
        <ele>329.39</ele>
        <time>2021-08-17T06:23:31Z</time>
      </trkpt>
      <trkpt lat="44.60847" lon="1.54431">
        <ele>329.39</ele>
        <time>2021-08-17T06:23:32Z</time>
      </trkpt>
      <trkpt lat="44.60846" lon="1.5443">
        <ele>329.39</ele>
        <time>2021-08-17T06:23:33Z</time>
      </trkpt>
      <trkpt lat="44.60844" lon="1.54429">
        <ele>329.39</ele>
        <time>2021-08-17T06:23:34Z</time>
      </trkpt>
      <trkpt lat="44.60843" lon="1.54428">
        <ele>329.87</ele>
        <time>2021-08-17T06:23:35Z</time>
      </trkpt>
      <trkpt lat="44.60842" lon="1.54427">
        <ele>329.87</ele>
        <time>2021-08-17T06:23:36Z</time>
      </trkpt>
      <trkpt lat="44.60831" lon="1.54419">
        <ele>331.31</ele>
        <time>2021-08-17T06:23:44Z</time>
      </trkpt>
      <trkpt lat="44.60817" lon="1.54406">
        <ele>333.23</ele>
        <time>2021-08-17T06:23:55Z</time>
      </trkpt>
      <trkpt lat="44.60803" lon="1.54392">
        <ele>335.16</ele>
        <time>2021-08-17T06:24:05Z</time>
      </trkpt>
      <trkpt lat="44.60793" lon="1.54381">
        <ele>336.6</ele>
        <time>2021-08-17T06:24:13Z</time>
      </trkpt>
      <trkpt lat="44.60783" lon="1.54362">
        <ele>338.52</ele>
        <time>2021-08-17T06:24:23Z</time>
      </trkpt>
      <trkpt lat="44.60779" lon="1.54342">
        <ele>340.44</ele>
        <time>2021-08-17T06:24:32Z</time>
      </trkpt>
      <trkpt lat="44.60778" lon="1.5432">
        <ele>342.37</ele>
        <time>2021-08-17T06:24:42Z</time>
      </trkpt>
      <trkpt lat="44.60781" lon="1.54294">
        <ele>343.81</ele>
        <time>2021-08-17T06:24:53Z</time>
      </trkpt>
      <trkpt lat="44.60786" lon="1.54266">
        <ele>345.25</ele>
        <time>2021-08-17T06:25:04Z</time>
      </trkpt>
      <trkpt lat="44.60793" lon="1.54245">
        <ele>347.17</ele>
        <time>2021-08-17T06:25:14Z</time>
      </trkpt>
      <trkpt lat="44.60795" lon="1.5424">
        <ele>348.13</ele>
        <time>2021-08-17T06:25:17Z</time>
      </trkpt>
      <trkpt lat="44.60796" lon="1.54238">
        <ele>348.13</ele>
        <time>2021-08-17T06:25:18Z</time>
      </trkpt>
      <trkpt lat="44.60796" lon="1.54236">
        <ele>348.62</ele>
        <time>2021-08-17T06:25:19Z</time>
      </trkpt>
      <trkpt lat="44.60801" lon="1.54214">
        <ele>350.54</ele>
        <time>2021-08-17T06:25:30Z</time>
      </trkpt>
      <trkpt lat="44.60799" lon="1.54193">
        <ele>351.02</ele>
        <time>2021-08-17T06:25:38Z</time>
      </trkpt>
      <trkpt lat="44.6079" lon="1.54161">
        <ele>351.5</ele>
        <time>2021-08-17T06:25:47Z</time>
      </trkpt>
      <trkpt lat="44.60781" lon="1.54133">
        <ele>352.46</ele>
        <time>2021-08-17T06:25:55Z</time>
      </trkpt>
      <trkpt lat="44.60773" lon="1.54111">
        <ele>353.9</ele>
        <time>2021-08-17T06:26:04Z</time>
      </trkpt>
      <trkpt lat="44.60764" lon="1.54093">
        <ele>355.34</ele>
        <time>2021-08-17T06:26:14Z</time>
      </trkpt>
      <trkpt lat="44.60757" lon="1.54077">
        <ele>356.31</ele>
        <time>2021-08-17T06:26:23Z</time>
      </trkpt>
      <trkpt lat="44.60753" lon="1.54069">
        <ele>357.27</ele>
        <time>2021-08-17T06:26:29Z</time>
      </trkpt>
      <trkpt lat="44.60747" lon="1.5405">
        <ele>358.71</ele>
        <time>2021-08-17T06:26:39Z</time>
      </trkpt>
      <trkpt lat="44.60744" lon="1.54038">
        <ele>360.15</ele>
        <time>2021-08-17T06:26:48Z</time>
      </trkpt>
      <trkpt lat="44.60739" lon="1.54023">
        <ele>361.59</ele>
        <time>2021-08-17T06:26:59Z</time>
      </trkpt>
      <trkpt lat="44.60737" lon="1.5401">
        <ele>363.04</ele>
        <time>2021-08-17T06:27:08Z</time>
      </trkpt>
      <trkpt lat="44.60735" lon="1.53993">
        <ele>364.48</ele>
        <time>2021-08-17T06:27:19Z</time>
      </trkpt>
      <trkpt lat="44.60735" lon="1.53974">
        <ele>366.4</ele>
        <time>2021-08-17T06:27:31Z</time>
      </trkpt>
      <trkpt lat="44.60735" lon="1.53963">
        <ele>366.88</ele>
        <time>2021-08-17T06:27:37Z</time>
      </trkpt>
      <trkpt lat="44.60736" lon="1.53961">
        <ele>366.88</ele>
        <time>2021-08-17T06:27:44Z</time>
      </trkpt>
      <trkpt lat="44.60736" lon="1.53958">
        <ele>366.88</ele>
        <time>2021-08-17T06:27:53Z</time>
      </trkpt>
      <trkpt lat="44.60736" lon="1.53956">
        <ele>366.88</ele>
        <time>2021-08-17T06:27:54Z</time>
      </trkpt>
      <trkpt lat="44.60736" lon="1.53953">
        <ele>367.36</ele>
        <time>2021-08-17T06:27:55Z</time>
      </trkpt>
      <trkpt lat="44.60736" lon="1.5395">
        <ele>367.36</ele>
        <time>2021-08-17T06:27:56Z</time>
      </trkpt>
      <trkpt lat="44.60736" lon="1.53948">
        <ele>367.36</ele>
        <time>2021-08-17T06:27:57Z</time>
      </trkpt>
      <trkpt lat="44.60739" lon="1.53926">
        <ele>368.8</ele>
        <time>2021-08-17T06:28:05Z</time>
      </trkpt>
      <trkpt lat="44.60743" lon="1.53907">
        <ele>369.76</ele>
        <time>2021-08-17T06:28:13Z</time>
      </trkpt>
      <trkpt lat="44.60744" lon="1.53883">
        <ele>371.69</ele>
        <time>2021-08-17T06:28:22Z</time>
      </trkpt>
      <trkpt lat="44.60744" lon="1.53841">
        <ele>372.17</ele>
        <time>2021-08-17T06:28:34Z</time>
      </trkpt>
      <trkpt lat="44.60742" lon="1.53816">
        <ele>372.17</ele>
        <time>2021-08-17T06:28:40Z</time>
      </trkpt>
      <trkpt lat="44.6073" lon="1.53788">
        <ele>372.17</ele>
        <time>2021-08-17T06:28:48Z</time>
      </trkpt>
      <trkpt lat="44.60712" lon="1.53763">
        <ele>372.17</ele>
        <time>2021-08-17T06:28:55Z</time>
      </trkpt>
      <trkpt lat="44.60704" lon="1.53748">
        <ele>373.13</ele>
        <time>2021-08-17T06:29:01Z</time>
      </trkpt>
      <trkpt lat="44.60694" lon="1.53736">
        <ele>374.57</ele>
        <time>2021-08-17T06:29:10Z</time>
      </trkpt>
      <trkpt lat="44.60683" lon="1.53722">
        <ele>376.01</ele>
        <time>2021-08-17T06:29:19Z</time>
      </trkpt>
      <trkpt lat="44.60673" lon="1.53713">
        <ele>377.45</ele>
        <time>2021-08-17T06:29:27Z</time>
      </trkpt>
      <trkpt lat="44.60663" lon="1.53705">
        <ele>378.9</ele>
        <time>2021-08-17T06:29:34Z</time>
      </trkpt>
      <trkpt lat="44.60652" lon="1.53692">
        <ele>381.3</ele>
        <time>2021-08-17T06:29:42Z</time>
      </trkpt>
      <trkpt lat="44.60639" lon="1.53676">
        <ele>383.22</ele>
        <time>2021-08-17T06:29:51Z</time>
      </trkpt>
      <trkpt lat="44.60623" lon="1.53657">
        <ele>383.7</ele>
        <time>2021-08-17T06:30:00Z</time>
      </trkpt>
      <trkpt lat="44.60604" lon="1.53636">
        <ele>384.66</ele>
        <time>2021-08-17T06:30:09Z</time>
      </trkpt>
      <trkpt lat="44.60585" lon="1.53619">
        <ele>384.66</ele>
        <time>2021-08-17T06:30:16Z</time>
      </trkpt>
      <trkpt lat="44.6056" lon="1.536">
        <ele>384.66</ele>
        <time>2021-08-17T06:30:24Z</time>
      </trkpt>
      <trkpt lat="44.60539" lon="1.53583">
        <ele>384.66</ele>
        <time>2021-08-17T06:30:30Z</time>
      </trkpt>
      <trkpt lat="44.60511" lon="1.5356">
        <ele>384.66</ele>
        <time>2021-08-17T06:30:38Z</time>
      </trkpt>
      <trkpt lat="44.60489" lon="1.53539">
        <ele>384.66</ele>
        <time>2021-08-17T06:30:44Z</time>
      </trkpt>
      <trkpt lat="44.60463" lon="1.53511">
        <ele>384.66</ele>
        <time>2021-08-17T06:30:51Z</time>
      </trkpt>
      <trkpt lat="44.60431" lon="1.53474">
        <ele>383.7</ele>
        <time>2021-08-17T06:31:00Z</time>
      </trkpt>
      <trkpt lat="44.60423" lon="1.53466">
        <ele>383.7</ele>
        <time>2021-08-17T06:31:02Z</time>
      </trkpt>
      <trkpt lat="44.60419" lon="1.53464">
        <ele>383.7</ele>
        <time>2021-08-17T06:31:03Z</time>
      </trkpt>
      <trkpt lat="44.60415" lon="1.53461">
        <ele>383.22</ele>
        <time>2021-08-17T06:31:04Z</time>
      </trkpt>
      <trkpt lat="44.60382" lon="1.53427">
        <ele>380.34</ele>
        <time>2021-08-17T06:31:11Z</time>
      </trkpt>
      <trkpt lat="44.60351" lon="1.53392">
        <ele>380.34</ele>
        <time>2021-08-17T06:31:18Z</time>
      </trkpt>
      <trkpt lat="44.60327" lon="1.5337">
        <ele>379.86</ele>
        <time>2021-08-17T06:31:24Z</time>
      </trkpt>
      <trkpt lat="44.60309" lon="1.53352">
        <ele>379.86</ele>
        <time>2021-08-17T06:31:28Z</time>
      </trkpt>
      <trkpt lat="44.60273" lon="1.53312">
        <ele>378.42</ele>
        <time>2021-08-17T06:31:36Z</time>
      </trkpt>
      <trkpt lat="44.60257" lon="1.53294">
        <ele>378.9</ele>
        <time>2021-08-17T06:31:40Z</time>
      </trkpt>
      <trkpt lat="44.60228" lon="1.53251">
        <ele>377.45</ele>
        <time>2021-08-17T06:31:48Z</time>
      </trkpt>
      <trkpt lat="44.60197" lon="1.53204">
        <ele>375.05</ele>
        <time>2021-08-17T06:31:55Z</time>
      </trkpt>
      <trkpt lat="44.60171" lon="1.53163">
        <ele>375.05</ele>
        <time>2021-08-17T06:32:01Z</time>
      </trkpt>
      <trkpt lat="44.60166" lon="1.53157">
        <ele>375.05</ele>
        <time>2021-08-17T06:32:02Z</time>
      </trkpt>
      <trkpt lat="44.60146" lon="1.53133">
        <ele>375.05</ele>
        <time>2021-08-17T06:32:07Z</time>
      </trkpt>
      <trkpt lat="44.60118" lon="1.53089">
        <ele>375.05</ele>
        <time>2021-08-17T06:32:15Z</time>
      </trkpt>
      <trkpt lat="44.60115" lon="1.53085">
        <ele>376.49</ele>
        <time>2021-08-17T06:32:16Z</time>
      </trkpt>
      <trkpt lat="44.60112" lon="1.5308">
        <ele>376.97</ele>
        <time>2021-08-17T06:32:17Z</time>
      </trkpt>
      <trkpt lat="44.60093" lon="1.53054">
        <ele>377.94</ele>
        <time>2021-08-17T06:32:24Z</time>
      </trkpt>
      <trkpt lat="44.60072" lon="1.53029">
        <ele>379.86</ele>
        <time>2021-08-17T06:32:33Z</time>
      </trkpt>
      <trkpt lat="44.60056" lon="1.53009">
        <ele>382.26</ele>
        <time>2021-08-17T06:32:43Z</time>
      </trkpt>
      <trkpt lat="44.60042" lon="1.5299">
        <ele>383.7</ele>
        <time>2021-08-17T06:32:51Z</time>
      </trkpt>
      <trkpt lat="44.60021" lon="1.52964">
        <ele>384.66</ele>
        <time>2021-08-17T06:33:02Z</time>
      </trkpt>
      <trkpt lat="44.6002" lon="1.52962">
        <ele>384.18</ele>
        <time>2021-08-17T06:33:06Z</time>
      </trkpt>
      <trkpt lat="44.60017" lon="1.5296">
        <ele>384.66</ele>
        <time>2021-08-17T06:33:18Z</time>
      </trkpt>
      <trkpt lat="44.60015" lon="1.52955">
        <ele>384.66</ele>
        <time>2021-08-17T06:33:26Z</time>
      </trkpt>
      <trkpt lat="44.60013" lon="1.52953">
        <ele>384.66</ele>
        <time>2021-08-17T06:33:34Z</time>
      </trkpt>
      <trkpt lat="44.60013" lon="1.52954">
        <ele>384.66</ele>
        <time>2021-08-17T06:33:43Z</time>
      </trkpt>
      <trkpt lat="44.60013" lon="1.52955">
        <ele>384.66</ele>
        <time>2021-08-17T06:34:11Z</time>
      </trkpt>
      <trkpt lat="44.60013" lon="1.52956">
        <ele>384.66</ele>
        <time>2021-08-17T06:34:34Z</time>
      </trkpt>
      <trkpt lat="44.60013" lon="1.52955">
        <ele>384.66</ele>
        <time>2021-08-17T06:34:51Z</time>
      </trkpt>
      <trkpt lat="44.60013" lon="1.52958">
        <ele>384.66</ele>
        <time>2021-08-17T06:35:14Z</time>
      </trkpt>
      <trkpt lat="44.60014" lon="1.52956">
        <ele>384.66</ele>
        <time>2021-08-17T06:35:32Z</time>
      </trkpt>
      <trkpt lat="44.60014" lon="1.52955">
        <ele>384.66</ele>
        <time>2021-08-17T06:35:51Z</time>
      </trkpt>
      <trkpt lat="44.60014" lon="1.52956">
        <ele>384.66</ele>
        <time>2021-08-17T06:36:06Z</time>
      </trkpt>
      <trkpt lat="44.60014" lon="1.52956">
        <ele>385.15</ele>
        <time>2021-08-17T06:36:23Z</time>
      </trkpt>
      <trkpt lat="44.60014" lon="1.52955">
        <ele>385.15</ele>
        <time>2021-08-17T06:36:33Z</time>
      </trkpt>
      <trkpt lat="44.60013" lon="1.52954">
        <ele>385.15</ele>
        <time>2021-08-17T06:36:50Z</time>
      </trkpt>
      <trkpt lat="44.60011" lon="1.52952">
        <ele>385.15</ele>
        <time>2021-08-17T06:36:55Z</time>
      </trkpt>
      <trkpt lat="44.6001" lon="1.52951">
        <ele>385.15</ele>
        <time>2021-08-17T06:36:56Z</time>
      </trkpt>
      <trkpt lat="44.60009" lon="1.5295">
        <ele>385.15</ele>
        <time>2021-08-17T06:36:57Z</time>
      </trkpt>
      <trkpt lat="44.60008" lon="1.52948">
        <ele>385.15</ele>
        <time>2021-08-17T06:36:58Z</time>
      </trkpt>
      <trkpt lat="44.60006" lon="1.52946">
        <ele>385.15</ele>
        <time>2021-08-17T06:36:59Z</time>
      </trkpt>
      <trkpt lat="44.60004" lon="1.52944">
        <ele>385.15</ele>
        <time>2021-08-17T06:37:00Z</time>
      </trkpt>
      <trkpt lat="44.60003" lon="1.52941">
        <ele>385.15</ele>
        <time>2021-08-17T06:37:01Z</time>
      </trkpt>
      <trkpt lat="44.60001" lon="1.52939">
        <ele>385.15</ele>
        <time>2021-08-17T06:37:02Z</time>
      </trkpt>
      <trkpt lat="44.59982" lon="1.52916">
        <ele>385.15</ele>
        <time>2021-08-17T06:37:09Z</time>
      </trkpt>
      <trkpt lat="44.59966" lon="1.52894">
        <ele>383.7</ele>
        <time>2021-08-17T06:37:14Z</time>
      </trkpt>
      <trkpt lat="44.59932" lon="1.52861">
        <ele>382.74</ele>
        <time>2021-08-17T06:37:22Z</time>
      </trkpt>
      <trkpt lat="44.59928" lon="1.52856">
        <ele>381.78</ele>
        <time>2021-08-17T06:37:23Z</time>
      </trkpt>
      <trkpt lat="44.59918" lon="1.52845">
        <ele>380.82</ele>
        <time>2021-08-17T06:37:25Z</time>
      </trkpt>
      <trkpt lat="44.59914" lon="1.5284">
        <ele>380.34</ele>
        <time>2021-08-17T06:37:26Z</time>
      </trkpt>
      <trkpt lat="44.5991" lon="1.52834">
        <ele>379.86</ele>
        <time>2021-08-17T06:37:27Z</time>
      </trkpt>
      <trkpt lat="44.59902" lon="1.52822">
        <ele>379.86</ele>
        <time>2021-08-17T06:37:29Z</time>
      </trkpt>
      <trkpt lat="44.59896" lon="1.52811">
        <ele>378.9</ele>
        <time>2021-08-17T06:37:31Z</time>
      </trkpt>
      <trkpt lat="44.59893" lon="1.52806">
        <ele>378.9</ele>
        <time>2021-08-17T06:37:32Z</time>
      </trkpt>
      <trkpt lat="44.59887" lon="1.52797">
        <ele>377.94</ele>
        <time>2021-08-17T06:37:34Z</time>
      </trkpt>
      <trkpt lat="44.59862" lon="1.52757">
        <ele>375.05</ele>
        <time>2021-08-17T06:37:40Z</time>
      </trkpt>
      <trkpt lat="44.59816" lon="1.52693">
        <ele>373.13</ele>
        <time>2021-08-17T06:37:49Z</time>
      </trkpt>
      <trkpt lat="44.59778" lon="1.52647">
        <ele>374.57</ele>
        <time>2021-08-17T06:37:57Z</time>
      </trkpt>
      <trkpt lat="44.59761" lon="1.52624">
        <ele>376.01</ele>
        <time>2021-08-17T06:38:03Z</time>
      </trkpt>
      <trkpt lat="44.59748" lon="1.52606">
        <ele>376.97</ele>
        <time>2021-08-17T06:38:09Z</time>
      </trkpt>
      <trkpt lat="44.59731" lon="1.52586">
        <ele>378.42</ele>
        <time>2021-08-17T06:38:18Z</time>
      </trkpt>
      <trkpt lat="44.59716" lon="1.52564">
        <ele>379.38</ele>
        <time>2021-08-17T06:38:26Z</time>
      </trkpt>
      <trkpt lat="44.59706" lon="1.52547">
        <ele>379.86</ele>
        <time>2021-08-17T06:38:32Z</time>
      </trkpt>
      <trkpt lat="44.59693" lon="1.5253">
        <ele>379.86</ele>
        <time>2021-08-17T06:38:38Z</time>
      </trkpt>
      <trkpt lat="44.59678" lon="1.52516">
        <ele>380.82</ele>
        <time>2021-08-17T06:38:45Z</time>
      </trkpt>
      <trkpt lat="44.59667" lon="1.5251">
        <ele>381.78</ele>
        <time>2021-08-17T06:38:51Z</time>
      </trkpt>
      <trkpt lat="44.59653" lon="1.52504">
        <ele>382.74</ele>
        <time>2021-08-17T06:38:59Z</time>
      </trkpt>
      <trkpt lat="44.59639" lon="1.525">
        <ele>384.66</ele>
        <time>2021-08-17T06:39:08Z</time>
      </trkpt>
      <trkpt lat="44.59631" lon="1.52499">
        <ele>385.15</ele>
        <time>2021-08-17T06:39:13Z</time>
      </trkpt>
      <trkpt lat="44.5963" lon="1.52499">
        <ele>385.63</ele>
        <time>2021-08-17T06:39:14Z</time>
      </trkpt>
      <trkpt lat="44.59615" lon="1.52497">
        <ele>388.03</ele>
        <time>2021-08-17T06:39:25Z</time>
      </trkpt>
      <trkpt lat="44.59606" lon="1.52495">
        <ele>388.99</ele>
        <time>2021-08-17T06:39:31Z</time>
      </trkpt>
      <trkpt lat="44.59605" lon="1.52495">
        <ele>388.99</ele>
        <time>2021-08-17T06:39:32Z</time>
      </trkpt>
      <trkpt lat="44.59603" lon="1.52495">
        <ele>389.47</ele>
        <time>2021-08-17T06:39:33Z</time>
      </trkpt>
      <trkpt lat="44.59595" lon="1.52492">
        <ele>390.43</ele>
        <time>2021-08-17T06:39:41Z</time>
      </trkpt>
      <trkpt lat="44.59585" lon="1.52486">
        <ele>392.36</ele>
        <time>2021-08-17T06:39:50Z</time>
      </trkpt>
      <trkpt lat="44.59582" lon="1.52487">
        <ele>392.36</ele>
        <time>2021-08-17T06:39:58Z</time>
      </trkpt>
      <trkpt lat="44.59578" lon="1.52483">
        <ele>393.32</ele>
        <time>2021-08-17T06:40:10Z</time>
      </trkpt>
      <trkpt lat="44.59567" lon="1.52472">
        <ele>394.76</ele>
        <time>2021-08-17T06:40:21Z</time>
      </trkpt>
      <trkpt lat="44.59556" lon="1.52463">
        <ele>396.2</ele>
        <time>2021-08-17T06:40:31Z</time>
      </trkpt>
      <trkpt lat="44.59546" lon="1.52455">
        <ele>398.12</ele>
        <time>2021-08-17T06:40:41Z</time>
      </trkpt>
      <trkpt lat="44.59538" lon="1.52448">
        <ele>399.57</ele>
        <time>2021-08-17T06:40:50Z</time>
      </trkpt>
      <trkpt lat="44.59529" lon="1.52443">
        <ele>401.49</ele>
        <time>2021-08-17T06:40:58Z</time>
      </trkpt>
      <trkpt lat="44.59526" lon="1.52443">
        <ele>401.49</ele>
        <time>2021-08-17T06:41:04Z</time>
      </trkpt>
      <trkpt lat="44.59522" lon="1.52442">
        <ele>401.49</ele>
        <time>2021-08-17T06:41:09Z</time>
      </trkpt>
      <trkpt lat="44.59521" lon="1.52442">
        <ele>401.97</ele>
        <time>2021-08-17T06:41:10Z</time>
      </trkpt>
      <trkpt lat="44.59519" lon="1.52442">
        <ele>401.97</ele>
        <time>2021-08-17T06:41:11Z</time>
      </trkpt>
      <trkpt lat="44.59518" lon="1.52441">
        <ele>402.45</ele>
        <time>2021-08-17T06:41:12Z</time>
      </trkpt>
      <trkpt lat="44.59517" lon="1.5244">
        <ele>402.45</ele>
        <time>2021-08-17T06:41:13Z</time>
      </trkpt>
      <trkpt lat="44.59505" lon="1.52434">
        <ele>403.89</ele>
        <time>2021-08-17T06:41:21Z</time>
      </trkpt>
      <trkpt lat="44.59493" lon="1.52424">
        <ele>404.85</ele>
        <time>2021-08-17T06:41:29Z</time>
      </trkpt>
      <trkpt lat="44.59477" lon="1.52404">
        <ele>405.81</ele>
        <time>2021-08-17T06:41:37Z</time>
      </trkpt>
      <trkpt lat="44.59469" lon="1.52384">
        <ele>405.81</ele>
        <time>2021-08-17T06:41:43Z</time>
      </trkpt>
      <trkpt lat="44.5945" lon="1.52352">
        <ele>406.29</ele>
        <time>2021-08-17T06:41:52Z</time>
      </trkpt>
      <trkpt lat="44.59425" lon="1.5233">
        <ele>406.77</ele>
        <time>2021-08-17T06:42:00Z</time>
      </trkpt>
      <trkpt lat="44.59397" lon="1.52337">
        <ele>406.77</ele>
        <time>2021-08-17T06:42:08Z</time>
      </trkpt>
      <trkpt lat="44.59364" lon="1.52348">
        <ele>408.22</ele>
        <time>2021-08-17T06:42:18Z</time>
      </trkpt>
      <trkpt lat="44.5934" lon="1.52361">
        <ele>409.66</ele>
        <time>2021-08-17T06:42:26Z</time>
      </trkpt>
      <trkpt lat="44.59322" lon="1.52371">
        <ele>411.1</ele>
        <time>2021-08-17T06:42:33Z</time>
      </trkpt>
      <trkpt lat="44.59297" lon="1.52385">
        <ele>411.1</ele>
        <time>2021-08-17T06:42:41Z</time>
      </trkpt>
      <trkpt lat="44.59264" lon="1.52423">
        <ele>410.14</ele>
        <time>2021-08-17T06:42:50Z</time>
      </trkpt>
      <trkpt lat="44.59223" lon="1.52461">
        <ele>410.14</ele>
        <time>2021-08-17T06:43:00Z</time>
      </trkpt>
      <trkpt lat="44.59215" lon="1.52466">
        <ele>411.58</ele>
        <time>2021-08-17T06:43:02Z</time>
      </trkpt>
      <trkpt lat="44.59174" lon="1.52492">
        <ele>413.5</ele>
        <time>2021-08-17T06:43:13Z</time>
      </trkpt>
      <trkpt lat="44.59137" lon="1.52512">
        <ele>415.43</ele>
        <time>2021-08-17T06:43:23Z</time>
      </trkpt>
      <trkpt lat="44.59111" lon="1.52523">
        <ele>416.39</ele>
        <time>2021-08-17T06:43:31Z</time>
      </trkpt>
      <trkpt lat="44.59078" lon="1.52532">
        <ele>418.79</ele>
        <time>2021-08-17T06:43:41Z</time>
      </trkpt>
      <trkpt lat="44.5905" lon="1.52539">
        <ele>419.75</ele>
        <time>2021-08-17T06:43:50Z</time>
      </trkpt>
      <trkpt lat="44.59014" lon="1.52547">
        <ele>419.27</ele>
        <time>2021-08-17T06:43:59Z</time>
      </trkpt>
      <trkpt lat="44.59009" lon="1.52548">
        <ele>419.27</ele>
        <time>2021-08-17T06:44:00Z</time>
      </trkpt>
      <trkpt lat="44.59004" lon="1.52549">
        <ele>419.27</ele>
        <time>2021-08-17T06:44:01Z</time>
      </trkpt>
      <trkpt lat="44.58999" lon="1.5255">
        <ele>417.83</ele>
        <time>2021-08-17T06:44:02Z</time>
      </trkpt>
      <trkpt lat="44.58994" lon="1.52551">
        <ele>417.83</ele>
        <time>2021-08-17T06:44:03Z</time>
      </trkpt>
      <trkpt lat="44.58949" lon="1.52566">
        <ele>414.95</ele>
        <time>2021-08-17T06:44:10Z</time>
      </trkpt>
      <trkpt lat="44.58929" lon="1.52579">
        <ele>413.98</ele>
        <time>2021-08-17T06:44:13Z</time>
      </trkpt>
      <trkpt lat="44.58922" lon="1.52585">
        <ele>413.98</ele>
        <time>2021-08-17T06:44:14Z</time>
      </trkpt>
      <trkpt lat="44.58917" lon="1.52592">
        <ele>413.98</ele>
        <time>2021-08-17T06:44:15Z</time>
      </trkpt>
      <trkpt lat="44.58902" lon="1.52615">
        <ele>413.5</ele>
        <time>2021-08-17T06:44:18Z</time>
      </trkpt>
      <trkpt lat="44.58897" lon="1.5262">
        <ele>413.5</ele>
        <time>2021-08-17T06:44:19Z</time>
      </trkpt>
      <trkpt lat="44.58868" lon="1.52654">
        <ele>410.62</ele>
        <time>2021-08-17T06:44:25Z</time>
      </trkpt>
      <trkpt lat="44.58849" lon="1.52676">
        <ele>407.26</ele>
        <time>2021-08-17T06:44:28Z</time>
      </trkpt>
      <trkpt lat="44.58836" lon="1.52692">
        <ele>405.81</ele>
        <time>2021-08-17T06:44:30Z</time>
      </trkpt>
      <trkpt lat="44.58829" lon="1.52699">
        <ele>405.81</ele>
        <time>2021-08-17T06:44:31Z</time>
      </trkpt>
      <trkpt lat="44.58821" lon="1.52703">
        <ele>405.33</ele>
        <time>2021-08-17T06:44:32Z</time>
      </trkpt>
      <trkpt lat="44.58813" lon="1.52706">
        <ele>404.85</ele>
        <time>2021-08-17T06:44:33Z</time>
      </trkpt>
      <trkpt lat="44.58806" lon="1.52708">
        <ele>404.37</ele>
        <time>2021-08-17T06:44:34Z</time>
      </trkpt>
      <trkpt lat="44.58798" lon="1.52708">
        <ele>404.85</ele>
        <time>2021-08-17T06:44:35Z</time>
      </trkpt>
      <trkpt lat="44.58791" lon="1.52708">
        <ele>404.37</ele>
        <time>2021-08-17T06:44:36Z</time>
      </trkpt>
      <trkpt lat="44.58748" lon="1.52708">
        <ele>404.37</ele>
        <time>2021-08-17T06:44:43Z</time>
      </trkpt>
      <trkpt lat="44.58743" lon="1.5271">
        <ele>404.37</ele>
        <time>2021-08-17T06:44:44Z</time>
      </trkpt>
      <trkpt lat="44.58733" lon="1.52713">
        <ele>404.85</ele>
        <time>2021-08-17T06:44:46Z</time>
      </trkpt>
      <trkpt lat="44.58729" lon="1.52715">
        <ele>404.85</ele>
        <time>2021-08-17T06:44:47Z</time>
      </trkpt>
      <trkpt lat="44.58724" lon="1.52717">
        <ele>404.85</ele>
        <time>2021-08-17T06:44:48Z</time>
      </trkpt>
      <trkpt lat="44.5872" lon="1.52719">
        <ele>404.85</ele>
        <time>2021-08-17T06:44:49Z</time>
      </trkpt>
      <trkpt lat="44.58717" lon="1.52721">
        <ele>404.85</ele>
        <time>2021-08-17T06:44:50Z</time>
      </trkpt>
      <trkpt lat="44.587" lon="1.52737">
        <ele>403.89</ele>
        <time>2021-08-17T06:44:55Z</time>
      </trkpt>
      <trkpt lat="44.58695" lon="1.5274">
        <ele>403.89</ele>
        <time>2021-08-17T06:44:56Z</time>
      </trkpt>
      <trkpt lat="44.5869" lon="1.5274">
        <ele>403.89</ele>
        <time>2021-08-17T06:44:57Z</time>
      </trkpt>
      <trkpt lat="44.58686" lon="1.5274">
        <ele>403.89</ele>
        <time>2021-08-17T06:44:58Z</time>
      </trkpt>
      <trkpt lat="44.58683" lon="1.5274">
        <ele>403.89</ele>
        <time>2021-08-17T06:44:59Z</time>
      </trkpt>
      <trkpt lat="44.5868" lon="1.52739">
        <ele>404.85</ele>
        <time>2021-08-17T06:45:00Z</time>
      </trkpt>
      <trkpt lat="44.58677" lon="1.52738">
        <ele>404.85</ele>
        <time>2021-08-17T06:45:01Z</time>
      </trkpt>
      <trkpt lat="44.58654" lon="1.52734">
        <ele>405.33</ele>
        <time>2021-08-17T06:45:08Z</time>
      </trkpt>
      <trkpt lat="44.58621" lon="1.52728">
        <ele>406.29</ele>
        <time>2021-08-17T06:45:17Z</time>
      </trkpt>
      <trkpt lat="44.58602" lon="1.5273">
        <ele>406.29</ele>
        <time>2021-08-17T06:45:22Z</time>
      </trkpt>
      <trkpt lat="44.58594" lon="1.52734">
        <ele>404.85</ele>
        <time>2021-08-17T06:45:24Z</time>
      </trkpt>
      <trkpt lat="44.58555" lon="1.52756">
        <ele>403.89</ele>
        <time>2021-08-17T06:45:32Z</time>
      </trkpt>
      <trkpt lat="44.58539" lon="1.52768">
        <ele>403.89</ele>
        <time>2021-08-17T06:45:37Z</time>
      </trkpt>
      <trkpt lat="44.5852" lon="1.52784">
        <ele>401.01</ele>
        <time>2021-08-17T06:45:41Z</time>
      </trkpt>
      <trkpt lat="44.58506" lon="1.52803">
        <ele>398.6</ele>
        <time>2021-08-17T06:45:44Z</time>
      </trkpt>
      <trkpt lat="44.58486" lon="1.52825">
        <ele>396.2</ele>
        <time>2021-08-17T06:45:48Z</time>
      </trkpt>
      <trkpt lat="44.58471" lon="1.52841">
        <ele>394.28</ele>
        <time>2021-08-17T06:45:51Z</time>
      </trkpt>
      <trkpt lat="44.58466" lon="1.52845">
        <ele>393.8</ele>
        <time>2021-08-17T06:45:52Z</time>
      </trkpt>
      <trkpt lat="44.58448" lon="1.52857">
        <ele>392.84</ele>
        <time>2021-08-17T06:45:55Z</time>
      </trkpt>
      <trkpt lat="44.58413" lon="1.52877">
        <ele>388.99</ele>
        <time>2021-08-17T06:46:00Z</time>
      </trkpt>
      <trkpt lat="44.58405" lon="1.52881">
        <ele>389.47</ele>
        <time>2021-08-17T06:46:01Z</time>
      </trkpt>
      <trkpt lat="44.58399" lon="1.52885">
        <ele>389.47</ele>
        <time>2021-08-17T06:46:02Z</time>
      </trkpt>
      <trkpt lat="44.58393" lon="1.52891">
        <ele>388.51</ele>
        <time>2021-08-17T06:46:03Z</time>
      </trkpt>
      <trkpt lat="44.58388" lon="1.52896">
        <ele>388.51</ele>
        <time>2021-08-17T06:46:04Z</time>
      </trkpt>
      <trkpt lat="44.58362" lon="1.52932">
        <ele>387.55</ele>
        <time>2021-08-17T06:46:11Z</time>
      </trkpt>
      <trkpt lat="44.58339" lon="1.52954">
        <ele>387.07</ele>
        <time>2021-08-17T06:46:18Z</time>
      </trkpt>
      <trkpt lat="44.58324" lon="1.52966">
        <ele>386.59</ele>
        <time>2021-08-17T06:46:23Z</time>
      </trkpt>
      <trkpt lat="44.58301" lon="1.52979">
        <ele>386.59</ele>
        <time>2021-08-17T06:46:30Z</time>
      </trkpt>
      <trkpt lat="44.58276" lon="1.52993">
        <ele>386.59</ele>
        <time>2021-08-17T06:46:37Z</time>
      </trkpt>
      <trkpt lat="44.58271" lon="1.52995">
        <ele>386.59</ele>
        <time>2021-08-17T06:46:38Z</time>
      </trkpt>
      <trkpt lat="44.58237" lon="1.53007">
        <ele>386.59</ele>
        <time>2021-08-17T06:46:46Z</time>
      </trkpt>
      <trkpt lat="44.58205" lon="1.53019">
        <ele>386.11</ele>
        <time>2021-08-17T06:46:53Z</time>
      </trkpt>
      <trkpt lat="44.58177" lon="1.53026">
        <ele>387.07</ele>
        <time>2021-08-17T06:47:00Z</time>
      </trkpt>
      <trkpt lat="44.58155" lon="1.53036">
        <ele>388.03</ele>
        <time>2021-08-17T06:47:07Z</time>
      </trkpt>
      <trkpt lat="44.58132" lon="1.53051">
        <ele>387.07</ele>
        <time>2021-08-17T06:47:12Z</time>
      </trkpt>
      <trkpt lat="44.58123" lon="1.53058">
        <ele>386.11</ele>
        <time>2021-08-17T06:47:14Z</time>
      </trkpt>
      <trkpt lat="44.58095" lon="1.53071">
        <ele>384.18</ele>
        <time>2021-08-17T06:47:19Z</time>
      </trkpt>
      <trkpt lat="44.5809" lon="1.53075">
        <ele>383.22</ele>
        <time>2021-08-17T06:47:20Z</time>
      </trkpt>
      <trkpt lat="44.58084" lon="1.5308">
        <ele>383.22</ele>
        <time>2021-08-17T06:47:21Z</time>
      </trkpt>
      <trkpt lat="44.5805" lon="1.53118">
        <ele>381.78</ele>
        <time>2021-08-17T06:47:28Z</time>
      </trkpt>
      <trkpt lat="44.58009" lon="1.53171">
        <ele>380.34</ele>
        <time>2021-08-17T06:47:37Z</time>
      </trkpt>
      <trkpt lat="44.57986" lon="1.53194">
        <ele>378.9</ele>
        <time>2021-08-17T06:47:41Z</time>
      </trkpt>
      <trkpt lat="44.57973" lon="1.53201">
        <ele>378.42</ele>
        <time>2021-08-17T06:47:43Z</time>
      </trkpt>
      <trkpt lat="44.57966" lon="1.53202">
        <ele>378.42</ele>
        <time>2021-08-17T06:47:44Z</time>
      </trkpt>
      <trkpt lat="44.57922" lon="1.53204">
        <ele>377.45</ele>
        <time>2021-08-17T06:47:51Z</time>
      </trkpt>
      <trkpt lat="44.57917" lon="1.53207">
        <ele>377.45</ele>
        <time>2021-08-17T06:47:52Z</time>
      </trkpt>
      <trkpt lat="44.57911" lon="1.53211">
        <ele>376.97</ele>
        <time>2021-08-17T06:47:53Z</time>
      </trkpt>
      <trkpt lat="44.57906" lon="1.53216">
        <ele>376.97</ele>
        <time>2021-08-17T06:47:54Z</time>
      </trkpt>
      <trkpt lat="44.57902" lon="1.53221">
        <ele>376.49</ele>
        <time>2021-08-17T06:47:55Z</time>
      </trkpt>
      <trkpt lat="44.57897" lon="1.53226">
        <ele>376.49</ele>
        <time>2021-08-17T06:47:56Z</time>
      </trkpt>
      <trkpt lat="44.57878" lon="1.53249">
        <ele>376.01</ele>
        <time>2021-08-17T06:48:00Z</time>
      </trkpt>
      <trkpt lat="44.57874" lon="1.53254">
        <ele>375.05</ele>
        <time>2021-08-17T06:48:01Z</time>
      </trkpt>
      <trkpt lat="44.57843" lon="1.53283">
        <ele>373.13</ele>
        <time>2021-08-17T06:48:06Z</time>
      </trkpt>
      <trkpt lat="44.57802" lon="1.5333">
        <ele>369.76</ele>
        <time>2021-08-17T06:48:13Z</time>
      </trkpt>
      <trkpt lat="44.57791" lon="1.53343">
        <ele>368.8</ele>
        <time>2021-08-17T06:48:15Z</time>
      </trkpt>
      <trkpt lat="44.57734" lon="1.53388">
        <ele>367.84</ele>
        <time>2021-08-17T06:48:25Z</time>
      </trkpt>
      <trkpt lat="44.57722" lon="1.53394">
        <ele>368.32</ele>
        <time>2021-08-17T06:48:27Z</time>
      </trkpt>
      <trkpt lat="44.57715" lon="1.53396">
        <ele>368.32</ele>
        <time>2021-08-17T06:48:28Z</time>
      </trkpt>
      <trkpt lat="44.57709" lon="1.53397">
        <ele>368.32</ele>
        <time>2021-08-17T06:48:29Z</time>
      </trkpt>
      <trkpt lat="44.57703" lon="1.53397">
        <ele>368.32</ele>
        <time>2021-08-17T06:48:30Z</time>
      </trkpt>
      <trkpt lat="44.57697" lon="1.53396">
        <ele>368.32</ele>
        <time>2021-08-17T06:48:31Z</time>
      </trkpt>
      <trkpt lat="44.57691" lon="1.53395">
        <ele>368.32</ele>
        <time>2021-08-17T06:48:32Z</time>
      </trkpt>
      <trkpt lat="44.57686" lon="1.53392">
        <ele>368.32</ele>
        <time>2021-08-17T06:48:33Z</time>
      </trkpt>
      <trkpt lat="44.57637" lon="1.53355">
        <ele>368.32</ele>
        <time>2021-08-17T06:48:43Z</time>
      </trkpt>
      <trkpt lat="44.57605" lon="1.53316">
        <ele>369.28</ele>
        <time>2021-08-17T06:48:51Z</time>
      </trkpt>
      <trkpt lat="44.57583" lon="1.5329">
        <ele>371.21</ele>
        <time>2021-08-17T06:48:58Z</time>
      </trkpt>
      <trkpt lat="44.57565" lon="1.53279">
        <ele>372.65</ele>
        <time>2021-08-17T06:49:06Z</time>
      </trkpt>
      <trkpt lat="44.57547" lon="1.53275">
        <ele>374.09</ele>
        <time>2021-08-17T06:49:15Z</time>
      </trkpt>
      <trkpt lat="44.57531" lon="1.53277">
        <ele>375.53</ele>
        <time>2021-08-17T06:49:23Z</time>
      </trkpt>
      <trkpt lat="44.57501" lon="1.53278">
        <ele>377.94</ele>
        <time>2021-08-17T06:49:36Z</time>
      </trkpt>
      <trkpt lat="44.57476" lon="1.53279">
        <ele>378.42</ele>
        <time>2021-08-17T06:49:46Z</time>
      </trkpt>
      <trkpt lat="44.57454" lon="1.53278">
        <ele>378.9</ele>
        <time>2021-08-17T06:49:53Z</time>
      </trkpt>
      <trkpt lat="44.5742" lon="1.53272">
        <ele>378.9</ele>
        <time>2021-08-17T06:50:02Z</time>
      </trkpt>
      <trkpt lat="44.57377" lon="1.53259">
        <ele>378.9</ele>
        <time>2021-08-17T06:50:12Z</time>
      </trkpt>
      <trkpt lat="44.57338" lon="1.5325">
        <ele>376.49</ele>
        <time>2021-08-17T06:50:19Z</time>
      </trkpt>
      <trkpt lat="44.57301" lon="1.5324">
        <ele>372.65</ele>
        <time>2021-08-17T06:50:24Z</time>
      </trkpt>
      <trkpt lat="44.57258" lon="1.53217">
        <ele>368.8</ele>
        <time>2021-08-17T06:50:29Z</time>
      </trkpt>
      <trkpt lat="44.57217" lon="1.53203">
        <ele>364.96</ele>
        <time>2021-08-17T06:50:33Z</time>
      </trkpt>
      <trkpt lat="44.57206" lon="1.53203">
        <ele>364.48</ele>
        <time>2021-08-17T06:50:34Z</time>
      </trkpt>
      <trkpt lat="44.57195" lon="1.53203">
        <ele>363.52</ele>
        <time>2021-08-17T06:50:35Z</time>
      </trkpt>
      <trkpt lat="44.57183" lon="1.53205">
        <ele>362.55</ele>
        <time>2021-08-17T06:50:36Z</time>
      </trkpt>
      <trkpt lat="44.57161" lon="1.53212">
        <ele>361.11</ele>
        <time>2021-08-17T06:50:38Z</time>
      </trkpt>
      <trkpt lat="44.57138" lon="1.53215">
        <ele>359.67</ele>
        <time>2021-08-17T06:50:40Z</time>
      </trkpt>
      <trkpt lat="44.57126" lon="1.53215">
        <ele>359.67</ele>
        <time>2021-08-17T06:50:41Z</time>
      </trkpt>
      <trkpt lat="44.57078" lon="1.53206">
        <ele>362.07</ele>
        <time>2021-08-17T06:50:46Z</time>
      </trkpt>
      <trkpt lat="44.57043" lon="1.53207">
        <ele>364.96</ele>
        <time>2021-08-17T06:50:51Z</time>
      </trkpt>
      <trkpt lat="44.57037" lon="1.53208">
        <ele>365.44</ele>
        <time>2021-08-17T06:50:52Z</time>
      </trkpt>
      <trkpt lat="44.57015" lon="1.5321">
        <ele>367.84</ele>
        <time>2021-08-17T06:50:58Z</time>
      </trkpt>
      <trkpt lat="44.56991" lon="1.5321">
        <ele>369.28</ele>
        <time>2021-08-17T06:51:07Z</time>
      </trkpt>
      <trkpt lat="44.56973" lon="1.53208">
        <ele>370.24</ele>
        <time>2021-08-17T06:51:14Z</time>
      </trkpt>
      <trkpt lat="44.56949" lon="1.53205">
        <ele>372.17</ele>
        <time>2021-08-17T06:51:24Z</time>
      </trkpt>
      <trkpt lat="44.5693" lon="1.53204">
        <ele>373.61</ele>
        <time>2021-08-17T06:51:31Z</time>
      </trkpt>
      <trkpt lat="44.56906" lon="1.53202">
        <ele>375.05</ele>
        <time>2021-08-17T06:51:40Z</time>
      </trkpt>
      <trkpt lat="44.56885" lon="1.53205">
        <ele>376.49</ele>
        <time>2021-08-17T06:51:49Z</time>
      </trkpt>
      <trkpt lat="44.56878" lon="1.53205">
        <ele>376.97</ele>
        <time>2021-08-17T06:51:52Z</time>
      </trkpt>
      <trkpt lat="44.56877" lon="1.53203">
        <ele>377.45</ele>
        <time>2021-08-17T06:51:53Z</time>
      </trkpt>
      <trkpt lat="44.56875" lon="1.53201">
        <ele>376.97</ele>
        <time>2021-08-17T06:51:54Z</time>
      </trkpt>
      <trkpt lat="44.56874" lon="1.53198">
        <ele>376.97</ele>
        <time>2021-08-17T06:51:55Z</time>
      </trkpt>
      <trkpt lat="44.56875" lon="1.53196">
        <ele>377.45</ele>
        <time>2021-08-17T06:51:56Z</time>
      </trkpt>
      <trkpt lat="44.56875" lon="1.53192">
        <ele>376.97</ele>
        <time>2021-08-17T06:51:57Z</time>
      </trkpt>
      <trkpt lat="44.56878" lon="1.53165">
        <ele>375.53</ele>
        <time>2021-08-17T06:52:02Z</time>
      </trkpt>
      <trkpt lat="44.56885" lon="1.53116">
        <ele>372.65</ele>
        <time>2021-08-17T06:52:08Z</time>
      </trkpt>
      <trkpt lat="44.56892" lon="1.53088">
        <ele>371.21</ele>
        <time>2021-08-17T06:52:11Z</time>
      </trkpt>
      <trkpt lat="44.56895" lon="1.53078">
        <ele>370.73</ele>
        <time>2021-08-17T06:52:12Z</time>
      </trkpt>
      <trkpt lat="44.56899" lon="1.53069">
        <ele>369.76</ele>
        <time>2021-08-17T06:52:13Z</time>
      </trkpt>
      <trkpt lat="44.56927" lon="1.53023">
        <ele>366.4</ele>
        <time>2021-08-17T06:52:18Z</time>
      </trkpt>
      <trkpt lat="44.56958" lon="1.52975">
        <ele>362.55</ele>
        <time>2021-08-17T06:52:23Z</time>
      </trkpt>
      <trkpt lat="44.56965" lon="1.52968">
        <ele>362.07</ele>
        <time>2021-08-17T06:52:24Z</time>
      </trkpt>
      <trkpt lat="44.56973" lon="1.5296">
        <ele>362.07</ele>
        <time>2021-08-17T06:52:25Z</time>
      </trkpt>
      <trkpt lat="44.57017" lon="1.52915">
        <ele>358.23</ele>
        <time>2021-08-17T06:52:31Z</time>
      </trkpt>
      <trkpt lat="44.57023" lon="1.52904">
        <ele>357.27</ele>
        <time>2021-08-17T06:52:32Z</time>
      </trkpt>
      <trkpt lat="44.57029" lon="1.52893">
        <ele>356.79</ele>
        <time>2021-08-17T06:52:33Z</time>
      </trkpt>
      <trkpt lat="44.57034" lon="1.52881">
        <ele>355.83</ele>
        <time>2021-08-17T06:52:34Z</time>
      </trkpt>
      <trkpt lat="44.57039" lon="1.52869">
        <ele>354.86</ele>
        <time>2021-08-17T06:52:35Z</time>
      </trkpt>
      <trkpt lat="44.57058" lon="1.52815">
        <ele>351.02</ele>
        <time>2021-08-17T06:52:39Z</time>
      </trkpt>
      <trkpt lat="44.57068" lon="1.52787">
        <ele>350.06</ele>
        <time>2021-08-17T06:52:41Z</time>
      </trkpt>
      <trkpt lat="44.57087" lon="1.52727">
        <ele>346.21</ele>
        <time>2021-08-17T06:52:45Z</time>
      </trkpt>
      <trkpt lat="44.57096" lon="1.52678">
        <ele>343.33</ele>
        <time>2021-08-17T06:52:48Z</time>
      </trkpt>
      <trkpt lat="44.57104" lon="1.52636">
        <ele>340.44</ele>
        <time>2021-08-17T06:52:51Z</time>
      </trkpt>
      <trkpt lat="44.57109" lon="1.52624">
        <ele>340.44</ele>
        <time>2021-08-17T06:52:52Z</time>
      </trkpt>
      <trkpt lat="44.57115" lon="1.52614">
        <ele>339.48</ele>
        <time>2021-08-17T06:52:53Z</time>
      </trkpt>
      <trkpt lat="44.57124" lon="1.52603">
        <ele>338.52</ele>
        <time>2021-08-17T06:52:54Z</time>
      </trkpt>
      <trkpt lat="44.57131" lon="1.52596">
        <ele>337.56</ele>
        <time>2021-08-17T06:52:55Z</time>
      </trkpt>
      <trkpt lat="44.57139" lon="1.52589">
        <ele>337.08</ele>
        <time>2021-08-17T06:52:56Z</time>
      </trkpt>
      <trkpt lat="44.57149" lon="1.52581">
        <ele>336.12</ele>
        <time>2021-08-17T06:52:57Z</time>
      </trkpt>
      <trkpt lat="44.57186" lon="1.52556">
        <ele>332.27</ele>
        <time>2021-08-17T06:53:01Z</time>
      </trkpt>
      <trkpt lat="44.57206" lon="1.52542">
        <ele>331.31</ele>
        <time>2021-08-17T06:53:03Z</time>
      </trkpt>
      <trkpt lat="44.57235" lon="1.52516">
        <ele>327.95</ele>
        <time>2021-08-17T06:53:06Z</time>
      </trkpt>
      <trkpt lat="44.57272" lon="1.52479">
        <ele>324.1</ele>
        <time>2021-08-17T06:53:10Z</time>
      </trkpt>
      <trkpt lat="44.57281" lon="1.52473">
        <ele>323.14</ele>
        <time>2021-08-17T06:53:11Z</time>
      </trkpt>
      <trkpt lat="44.57291" lon="1.52469">
        <ele>322.66</ele>
        <time>2021-08-17T06:53:12Z</time>
      </trkpt>
      <trkpt lat="44.573" lon="1.52467">
        <ele>322.18</ele>
        <time>2021-08-17T06:53:13Z</time>
      </trkpt>
      <trkpt lat="44.5731" lon="1.52468">
        <ele>321.7</ele>
        <time>2021-08-17T06:53:14Z</time>
      </trkpt>
      <trkpt lat="44.57319" lon="1.5247">
        <ele>321.22</ele>
        <time>2021-08-17T06:53:15Z</time>
      </trkpt>
      <trkpt lat="44.57328" lon="1.52474">
        <ele>321.22</ele>
        <time>2021-08-17T06:53:16Z</time>
      </trkpt>
      <trkpt lat="44.57337" lon="1.52479">
        <ele>320.26</ele>
        <time>2021-08-17T06:53:17Z</time>
      </trkpt>
      <trkpt lat="44.57346" lon="1.52485">
        <ele>319.3</ele>
        <time>2021-08-17T06:53:18Z</time>
      </trkpt>
      <trkpt lat="44.57355" lon="1.52492">
        <ele>318.33</ele>
        <time>2021-08-17T06:53:19Z</time>
      </trkpt>
      <trkpt lat="44.57362" lon="1.525">
        <ele>317.85</ele>
        <time>2021-08-17T06:53:20Z</time>
      </trkpt>
      <trkpt lat="44.57368" lon="1.52509">
        <ele>316.89</ele>
        <time>2021-08-17T06:53:21Z</time>
      </trkpt>
      <trkpt lat="44.57371" lon="1.5252">
        <ele>316.41</ele>
        <time>2021-08-17T06:53:22Z</time>
      </trkpt>
      <trkpt lat="44.57373" lon="1.52532">
        <ele>315.45</ele>
        <time>2021-08-17T06:53:23Z</time>
      </trkpt>
      <trkpt lat="44.57373" lon="1.52545">
        <ele>314.97</ele>
        <time>2021-08-17T06:53:24Z</time>
      </trkpt>
      <trkpt lat="44.57373" lon="1.52559">
        <ele>314.01</ele>
        <time>2021-08-17T06:53:25Z</time>
      </trkpt>
      <trkpt lat="44.57372" lon="1.52572">
        <ele>313.53</ele>
        <time>2021-08-17T06:53:26Z</time>
      </trkpt>
      <trkpt lat="44.57371" lon="1.52629">
        <ele>310.16</ele>
        <time>2021-08-17T06:53:30Z</time>
      </trkpt>
      <trkpt lat="44.57374" lon="1.52686">
        <ele>307.76</ele>
        <time>2021-08-17T06:53:34Z</time>
      </trkpt>
      <trkpt lat="44.57376" lon="1.52698">
        <ele>306.8</ele>
        <time>2021-08-17T06:53:35Z</time>
      </trkpt>
      <trkpt lat="44.57379" lon="1.52709">
        <ele>305.84</ele>
        <time>2021-08-17T06:53:36Z</time>
      </trkpt>
      <trkpt lat="44.57384" lon="1.52717">
        <ele>305.36</ele>
        <time>2021-08-17T06:53:37Z</time>
      </trkpt>
      <trkpt lat="44.57391" lon="1.52723">
        <ele>304.88</ele>
        <time>2021-08-17T06:53:38Z</time>
      </trkpt>
      <trkpt lat="44.57398" lon="1.52728">
        <ele>304.88</ele>
        <time>2021-08-17T06:53:39Z</time>
      </trkpt>
      <trkpt lat="44.57405" lon="1.52732">
        <ele>303.91</ele>
        <time>2021-08-17T06:53:40Z</time>
      </trkpt>
      <trkpt lat="44.57412" lon="1.52734">
        <ele>303.43</ele>
        <time>2021-08-17T06:53:41Z</time>
      </trkpt>
      <trkpt lat="44.57419" lon="1.52733">
        <ele>302.47</ele>
        <time>2021-08-17T06:53:42Z</time>
      </trkpt>
      <trkpt lat="44.57426" lon="1.5273">
        <ele>301.99</ele>
        <time>2021-08-17T06:53:43Z</time>
      </trkpt>
      <trkpt lat="44.57431" lon="1.52724">
        <ele>301.03</ele>
        <time>2021-08-17T06:53:44Z</time>
      </trkpt>
      <trkpt lat="44.57434" lon="1.52715">
        <ele>300.55</ele>
        <time>2021-08-17T06:53:45Z</time>
      </trkpt>
      <trkpt lat="44.57434" lon="1.52705">
        <ele>299.59</ele>
        <time>2021-08-17T06:53:46Z</time>
      </trkpt>
      <trkpt lat="44.57434" lon="1.52695">
        <ele>300.07</ele>
        <time>2021-08-17T06:53:47Z</time>
      </trkpt>
      <trkpt lat="44.57433" lon="1.52684">
        <ele>298.63</ele>
        <time>2021-08-17T06:53:48Z</time>
      </trkpt>
      <trkpt lat="44.5743" lon="1.52648">
        <ele>296.22</ele>
        <time>2021-08-17T06:53:51Z</time>
      </trkpt>
      <trkpt lat="44.57431" lon="1.52634">
        <ele>294.78</ele>
        <time>2021-08-17T06:53:52Z</time>
      </trkpt>
      <trkpt lat="44.57432" lon="1.52621">
        <ele>293.82</ele>
        <time>2021-08-17T06:53:53Z</time>
      </trkpt>
      <trkpt lat="44.57436" lon="1.52594">
        <ele>290.94</ele>
        <time>2021-08-17T06:53:55Z</time>
      </trkpt>
      <trkpt lat="44.57439" lon="1.52582">
        <ele>289.97</ele>
        <time>2021-08-17T06:53:56Z</time>
      </trkpt>
      <trkpt lat="44.57442" lon="1.52572">
        <ele>288.53</ele>
        <time>2021-08-17T06:53:57Z</time>
      </trkpt>
      <trkpt lat="44.57449" lon="1.52553">
        <ele>287.09</ele>
        <time>2021-08-17T06:53:59Z</time>
      </trkpt>
      <trkpt lat="44.5745" lon="1.52544">
        <ele>286.61</ele>
        <time>2021-08-17T06:54:00Z</time>
      </trkpt>
      <trkpt lat="44.5745" lon="1.52534">
        <ele>285.17</ele>
        <time>2021-08-17T06:54:01Z</time>
      </trkpt>
      <trkpt lat="44.57447" lon="1.52524">
        <ele>284.21</ele>
        <time>2021-08-17T06:54:02Z</time>
      </trkpt>
      <trkpt lat="44.57445" lon="1.52515">
        <ele>282.77</ele>
        <time>2021-08-17T06:54:03Z</time>
      </trkpt>
      <trkpt lat="44.57442" lon="1.52504">
        <ele>281.8</ele>
        <time>2021-08-17T06:54:04Z</time>
      </trkpt>
      <trkpt lat="44.57442" lon="1.52494">
        <ele>281.32</ele>
        <time>2021-08-17T06:54:05Z</time>
      </trkpt>
      <trkpt lat="44.57443" lon="1.52483">
        <ele>281.32</ele>
        <time>2021-08-17T06:54:06Z</time>
      </trkpt>
      <trkpt lat="44.57447" lon="1.52461">
        <ele>279.4</ele>
        <time>2021-08-17T06:54:08Z</time>
      </trkpt>
      <trkpt lat="44.57447" lon="1.52453">
        <ele>279.4</ele>
        <time>2021-08-17T06:54:09Z</time>
      </trkpt>
      <trkpt lat="44.57444" lon="1.52444">
        <ele>278.92</ele>
        <time>2021-08-17T06:54:10Z</time>
      </trkpt>
      <trkpt lat="44.57439" lon="1.52436">
        <ele>278.44</ele>
        <time>2021-08-17T06:54:11Z</time>
      </trkpt>
      <trkpt lat="44.57433" lon="1.52429">
        <ele>277.48</ele>
        <time>2021-08-17T06:54:12Z</time>
      </trkpt>
      <trkpt lat="44.57399" lon="1.52395">
        <ele>274.11</ele>
        <time>2021-08-17T06:54:17Z</time>
      </trkpt>
      <trkpt lat="44.57393" lon="1.52388">
        <ele>273.15</ele>
        <time>2021-08-17T06:54:18Z</time>
      </trkpt>
      <trkpt lat="44.57355" lon="1.52344">
        <ele>270.27</ele>
        <time>2021-08-17T06:54:23Z</time>
      </trkpt>
      <trkpt lat="44.57304" lon="1.52301">
        <ele>267.38</ele>
        <time>2021-08-17T06:54:29Z</time>
      </trkpt>
      <trkpt lat="44.57286" lon="1.52292">
        <ele>266.42</ele>
        <time>2021-08-17T06:54:31Z</time>
      </trkpt>
      <trkpt lat="44.57274" lon="1.52288">
        <ele>265.94</ele>
        <time>2021-08-17T06:54:32Z</time>
      </trkpt>
      <trkpt lat="44.57267" lon="1.52287">
        <ele>265.46</ele>
        <time>2021-08-17T06:54:33Z</time>
      </trkpt>
      <trkpt lat="44.57256" lon="1.52288">
        <ele>265.46</ele>
        <time>2021-08-17T06:54:34Z</time>
      </trkpt>
      <trkpt lat="44.57248" lon="1.5229">
        <ele>264.98</ele>
        <time>2021-08-17T06:54:35Z</time>
      </trkpt>
      <trkpt lat="44.57237" lon="1.52293">
        <ele>264.98</ele>
        <time>2021-08-17T06:54:36Z</time>
      </trkpt>
      <trkpt lat="44.57186" lon="1.52306">
        <ele>264.02</ele>
        <time>2021-08-17T06:54:42Z</time>
      </trkpt>
      <trkpt lat="44.57181" lon="1.52309">
        <ele>264.02</ele>
        <time>2021-08-17T06:54:43Z</time>
      </trkpt>
      <trkpt lat="44.57175" lon="1.52314">
        <ele>264.98</ele>
        <time>2021-08-17T06:54:44Z</time>
      </trkpt>
      <trkpt lat="44.57142" lon="1.52352">
        <ele>265.46</ele>
        <time>2021-08-17T06:54:51Z</time>
      </trkpt>
      <trkpt lat="44.57126" lon="1.52364">
        <ele>265.46</ele>
        <time>2021-08-17T06:54:54Z</time>
      </trkpt>
      <trkpt lat="44.57121" lon="1.52367">
        <ele>265.46</ele>
        <time>2021-08-17T06:54:55Z</time>
      </trkpt>
      <trkpt lat="44.5711" lon="1.52372">
        <ele>265.46</ele>
        <time>2021-08-17T06:54:57Z</time>
      </trkpt>
      <trkpt lat="44.57104" lon="1.52374">
        <ele>265.46</ele>
        <time>2021-08-17T06:54:58Z</time>
      </trkpt>
      <trkpt lat="44.57098" lon="1.52375">
        <ele>265.46</ele>
        <time>2021-08-17T06:54:59Z</time>
      </trkpt>
      <trkpt lat="44.57046" lon="1.52382">
        <ele>264.02</ele>
        <time>2021-08-17T06:55:08Z</time>
      </trkpt>
      <trkpt lat="44.57019" lon="1.52383">
        <ele>263.06</ele>
        <time>2021-08-17T06:55:12Z</time>
      </trkpt>
      <trkpt lat="44.56998" lon="1.52379">
        <ele>262.1</ele>
        <time>2021-08-17T06:55:15Z</time>
      </trkpt>
      <trkpt lat="44.5699" lon="1.52377">
        <ele>261.62</ele>
        <time>2021-08-17T06:55:16Z</time>
      </trkpt>
      <trkpt lat="44.56983" lon="1.52374">
        <ele>261.62</ele>
        <time>2021-08-17T06:55:17Z</time>
      </trkpt>
      <trkpt lat="44.56976" lon="1.52372">
        <ele>261.14</ele>
        <time>2021-08-17T06:55:18Z</time>
      </trkpt>
      <trkpt lat="44.56968" lon="1.52371">
        <ele>261.14</ele>
        <time>2021-08-17T06:55:19Z</time>
      </trkpt>
      <trkpt lat="44.56962" lon="1.52371">
        <ele>260.65</ele>
        <time>2021-08-17T06:55:20Z</time>
      </trkpt>
      <trkpt lat="44.56954" lon="1.52371">
        <ele>260.17</ele>
        <time>2021-08-17T06:55:21Z</time>
      </trkpt>
      <trkpt lat="44.56947" lon="1.52372">
        <ele>259.69</ele>
        <time>2021-08-17T06:55:22Z</time>
      </trkpt>
      <trkpt lat="44.56896" lon="1.52371">
        <ele>258.73</ele>
        <time>2021-08-17T06:55:29Z</time>
      </trkpt>
      <trkpt lat="44.5689" lon="1.52373">
        <ele>258.73</ele>
        <time>2021-08-17T06:55:30Z</time>
      </trkpt>
      <trkpt lat="44.56886" lon="1.52374">
        <ele>258.73</ele>
        <time>2021-08-17T06:55:31Z</time>
      </trkpt>
      <trkpt lat="44.56873" lon="1.52378">
        <ele>257.77</ele>
        <time>2021-08-17T06:55:33Z</time>
      </trkpt>
      <trkpt lat="44.56867" lon="1.52379">
        <ele>256.81</ele>
        <time>2021-08-17T06:55:34Z</time>
      </trkpt>
      <trkpt lat="44.56854" lon="1.52383">
        <ele>256.33</ele>
        <time>2021-08-17T06:55:36Z</time>
      </trkpt>
      <trkpt lat="44.56827" lon="1.52392">
        <ele>254.89</ele>
        <time>2021-08-17T06:55:40Z</time>
      </trkpt>
      <trkpt lat="44.5682" lon="1.52393">
        <ele>254.41</ele>
        <time>2021-08-17T06:55:41Z</time>
      </trkpt>
      <trkpt lat="44.56813" lon="1.52393">
        <ele>254.89</ele>
        <time>2021-08-17T06:55:42Z</time>
      </trkpt>
      <trkpt lat="44.5677" lon="1.52396">
        <ele>252.96</ele>
        <time>2021-08-17T06:55:49Z</time>
      </trkpt>
      <trkpt lat="44.56764" lon="1.52397">
        <ele>253.44</ele>
        <time>2021-08-17T06:55:50Z</time>
      </trkpt>
      <trkpt lat="44.56758" lon="1.52398">
        <ele>252.48</ele>
        <time>2021-08-17T06:55:51Z</time>
      </trkpt>
      <trkpt lat="44.56738" lon="1.52398">
        <ele>252</ele>
        <time>2021-08-17T06:55:54Z</time>
      </trkpt>
      <trkpt lat="44.56732" lon="1.52397">
        <ele>252</ele>
        <time>2021-08-17T06:55:55Z</time>
      </trkpt>
      <trkpt lat="44.56726" lon="1.52396">
        <ele>252</ele>
        <time>2021-08-17T06:55:56Z</time>
      </trkpt>
      <trkpt lat="44.56721" lon="1.52396">
        <ele>252</ele>
        <time>2021-08-17T06:55:57Z</time>
      </trkpt>
      <trkpt lat="44.56716" lon="1.52396">
        <ele>252</ele>
        <time>2021-08-17T06:55:58Z</time>
      </trkpt>
      <trkpt lat="44.56711" lon="1.52397">
        <ele>252</ele>
        <time>2021-08-17T06:55:59Z</time>
      </trkpt>
      <trkpt lat="44.56678" lon="1.52405">
        <ele>252</ele>
        <time>2021-08-17T06:56:06Z</time>
      </trkpt>
      <trkpt lat="44.56641" lon="1.52405">
        <ele>250.56</ele>
        <time>2021-08-17T06:56:12Z</time>
      </trkpt>
      <trkpt lat="44.56632" lon="1.52403">
        <ele>250.56</ele>
        <time>2021-08-17T06:56:14Z</time>
      </trkpt>
      <trkpt lat="44.56627" lon="1.52403">
        <ele>250.56</ele>
        <time>2021-08-17T06:56:15Z</time>
      </trkpt>
      <trkpt lat="44.56622" lon="1.52402">
        <ele>250.56</ele>
        <time>2021-08-17T06:56:16Z</time>
      </trkpt>
      <trkpt lat="44.56618" lon="1.52401">
        <ele>250.56</ele>
        <time>2021-08-17T06:56:17Z</time>
      </trkpt>
      <trkpt lat="44.56613" lon="1.524">
        <ele>250.56</ele>
        <time>2021-08-17T06:56:18Z</time>
      </trkpt>
      <trkpt lat="44.56568" lon="1.52395">
        <ele>250.56</ele>
        <time>2021-08-17T06:56:28Z</time>
      </trkpt>
      <trkpt lat="44.56547" lon="1.52394">
        <ele>249.6</ele>
        <time>2021-08-17T06:56:32Z</time>
      </trkpt>
      <trkpt lat="44.56541" lon="1.52392">
        <ele>249.6</ele>
        <time>2021-08-17T06:56:33Z</time>
      </trkpt>
      <trkpt lat="44.565" lon="1.52378">
        <ele>249.6</ele>
        <time>2021-08-17T06:56:41Z</time>
      </trkpt>
      <trkpt lat="44.56467" lon="1.52368">
        <ele>249.12</ele>
        <time>2021-08-17T06:56:47Z</time>
      </trkpt>
      <trkpt lat="44.56436" lon="1.52362">
        <ele>248.64</ele>
        <time>2021-08-17T06:56:53Z</time>
      </trkpt>
      <trkpt lat="44.56413" lon="1.52362">
        <ele>248.64</ele>
        <time>2021-08-17T06:56:59Z</time>
      </trkpt>
      <trkpt lat="44.56378" lon="1.52361">
        <ele>247.2</ele>
        <time>2021-08-17T06:57:07Z</time>
      </trkpt>
      <trkpt lat="44.56372" lon="1.52362">
        <ele>246.72</ele>
        <time>2021-08-17T06:57:08Z</time>
      </trkpt>
      <trkpt lat="44.56366" lon="1.52363">
        <ele>246.23</ele>
        <time>2021-08-17T06:57:09Z</time>
      </trkpt>
      <trkpt lat="44.5632" lon="1.52374">
        <ele>245.75</ele>
        <time>2021-08-17T06:57:17Z</time>
      </trkpt>
      <trkpt lat="44.56315" lon="1.52375">
        <ele>245.75</ele>
        <time>2021-08-17T06:57:18Z</time>
      </trkpt>
      <trkpt lat="44.56291" lon="1.52379">
        <ele>245.27</ele>
        <time>2021-08-17T06:57:24Z</time>
      </trkpt>
      <trkpt lat="44.5626" lon="1.52384">
        <ele>243.83</ele>
        <time>2021-08-17T06:57:30Z</time>
      </trkpt>
      <trkpt lat="44.56236" lon="1.52387">
        <ele>241.91</ele>
        <time>2021-08-17T06:57:34Z</time>
      </trkpt>
      <trkpt lat="44.56197" lon="1.52384">
        <ele>241.43</ele>
        <time>2021-08-17T06:57:41Z</time>
      </trkpt>
      <trkpt lat="44.56157" lon="1.52374">
        <ele>239.99</ele>
        <time>2021-08-17T06:57:48Z</time>
      </trkpt>
      <trkpt lat="44.56123" lon="1.52369">
        <ele>241.43</ele>
        <time>2021-08-17T06:57:54Z</time>
      </trkpt>
      <trkpt lat="44.561" lon="1.52365">
        <ele>238.54</ele>
        <time>2021-08-17T06:57:58Z</time>
      </trkpt>
      <trkpt lat="44.56093" lon="1.52363">
        <ele>238.54</ele>
        <time>2021-08-17T06:57:59Z</time>
      </trkpt>
      <trkpt lat="44.56066" lon="1.52355">
        <ele>239.99</ele>
        <time>2021-08-17T06:58:04Z</time>
      </trkpt>
      <trkpt lat="44.56062" lon="1.52355">
        <ele>239.99</ele>
        <time>2021-08-17T06:58:05Z</time>
      </trkpt>
      <trkpt lat="44.56035" lon="1.52355">
        <ele>238.06</ele>
        <time>2021-08-17T06:58:11Z</time>
      </trkpt>
      <trkpt lat="44.56029" lon="1.52357">
        <ele>237.1</ele>
        <time>2021-08-17T06:58:12Z</time>
      </trkpt>
      <trkpt lat="44.56023" lon="1.5236">
        <ele>237.1</ele>
        <time>2021-08-17T06:58:13Z</time>
      </trkpt>
      <trkpt lat="44.56016" lon="1.52364">
        <ele>237.1</ele>
        <time>2021-08-17T06:58:14Z</time>
      </trkpt>
      <trkpt lat="44.56011" lon="1.52371">
        <ele>236.62</ele>
        <time>2021-08-17T06:58:15Z</time>
      </trkpt>
      <trkpt lat="44.56006" lon="1.52377">
        <ele>236.62</ele>
        <time>2021-08-17T06:58:16Z</time>
      </trkpt>
      <trkpt lat="44.55994" lon="1.52389">
        <ele>235.66</ele>
        <time>2021-08-17T06:58:18Z</time>
      </trkpt>
      <trkpt lat="44.55988" lon="1.52394">
        <ele>235.18</ele>
        <time>2021-08-17T06:58:19Z</time>
      </trkpt>
      <trkpt lat="44.55983" lon="1.52399">
        <ele>235.18</ele>
        <time>2021-08-17T06:58:20Z</time>
      </trkpt>
      <trkpt lat="44.55978" lon="1.52401">
        <ele>234.7</ele>
        <time>2021-08-17T06:58:21Z</time>
      </trkpt>
      <trkpt lat="44.55974" lon="1.52402">
        <ele>234.7</ele>
        <time>2021-08-17T06:58:22Z</time>
      </trkpt>
      <trkpt lat="44.5597" lon="1.52401">
        <ele>234.7</ele>
        <time>2021-08-17T06:58:23Z</time>
      </trkpt>
      <trkpt lat="44.55967" lon="1.524">
        <ele>234.7</ele>
        <time>2021-08-17T06:58:24Z</time>
      </trkpt>
      <trkpt lat="44.5596" lon="1.52396">
        <ele>234.7</ele>
        <time>2021-08-17T06:58:29Z</time>
      </trkpt>
      <trkpt lat="44.55957" lon="1.52395">
        <ele>236.14</ele>
        <time>2021-08-17T06:58:34Z</time>
      </trkpt>
      <trkpt lat="44.55957" lon="1.52396">
        <ele>236.14</ele>
        <time>2021-08-17T06:58:36Z</time>
      </trkpt>
      <trkpt lat="44.55961" lon="1.52399">
        <ele>236.14</ele>
        <time>2021-08-17T06:58:39Z</time>
      </trkpt>
      <trkpt lat="44.55963" lon="1.52399">
        <ele>236.14</ele>
        <time>2021-08-17T06:58:40Z</time>
      </trkpt>
      <trkpt lat="44.55965" lon="1.524">
        <ele>236.14</ele>
        <time>2021-08-17T06:58:41Z</time>
      </trkpt>
      <trkpt lat="44.55967" lon="1.52401">
        <ele>236.14</ele>
        <time>2021-08-17T06:58:42Z</time>
      </trkpt>
      <trkpt lat="44.55968" lon="1.52404">
        <ele>236.14</ele>
        <time>2021-08-17T06:58:43Z</time>
      </trkpt>
      <trkpt lat="44.55968" lon="1.52407">
        <ele>234.7</ele>
        <time>2021-08-17T06:58:44Z</time>
      </trkpt>
      <trkpt lat="44.55967" lon="1.5241">
        <ele>234.7</ele>
        <time>2021-08-17T06:58:45Z</time>
      </trkpt>
      <trkpt lat="44.55965" lon="1.52412">
        <ele>234.7</ele>
        <time>2021-08-17T06:58:46Z</time>
      </trkpt>
      <trkpt lat="44.55964" lon="1.52415">
        <ele>234.7</ele>
        <time>2021-08-17T06:58:47Z</time>
      </trkpt>
      <trkpt lat="44.55963" lon="1.52419">
        <ele>234.7</ele>
        <time>2021-08-17T06:58:48Z</time>
      </trkpt>
      <trkpt lat="44.55962" lon="1.52422">
        <ele>234.7</ele>
        <time>2021-08-17T06:58:49Z</time>
      </trkpt>
      <trkpt lat="44.55961" lon="1.52424">
        <ele>234.7</ele>
        <time>2021-08-17T06:58:50Z</time>
      </trkpt>
      <trkpt lat="44.55959" lon="1.52425">
        <ele>235.66</ele>
        <time>2021-08-17T06:58:51Z</time>
      </trkpt>
      <trkpt lat="44.55957" lon="1.52426">
        <ele>235.66</ele>
        <time>2021-08-17T06:58:52Z</time>
      </trkpt>
      <trkpt lat="44.55955" lon="1.52426">
        <ele>235.66</ele>
        <time>2021-08-17T06:58:53Z</time>
      </trkpt>
      <trkpt lat="44.55942" lon="1.52432">
        <ele>236.62</ele>
        <time>2021-08-17T06:58:58Z</time>
      </trkpt>
      <trkpt lat="44.55931" lon="1.52439">
        <ele>236.62</ele>
        <time>2021-08-17T06:59:01Z</time>
      </trkpt>
      <trkpt lat="44.55922" lon="1.52442">
        <ele>234.7</ele>
        <time>2021-08-17T06:59:03Z</time>
      </trkpt>
      <trkpt lat="44.55917" lon="1.52442">
        <ele>234.22</ele>
        <time>2021-08-17T06:59:04Z</time>
      </trkpt>
      <trkpt lat="44.55912" lon="1.52443">
        <ele>234.22</ele>
        <time>2021-08-17T06:59:05Z</time>
      </trkpt>
      <trkpt lat="44.55907" lon="1.52442">
        <ele>234.22</ele>
        <time>2021-08-17T06:59:06Z</time>
      </trkpt>
      <trkpt lat="44.55902" lon="1.52441">
        <ele>233.74</ele>
        <time>2021-08-17T06:59:07Z</time>
      </trkpt>
      <trkpt lat="44.55897" lon="1.52439">
        <ele>233.74</ele>
        <time>2021-08-17T06:59:08Z</time>
      </trkpt>
      <trkpt lat="44.55892" lon="1.52437">
        <ele>233.74</ele>
        <time>2021-08-17T06:59:09Z</time>
      </trkpt>
      <trkpt lat="44.55865" lon="1.52418">
        <ele>234.7</ele>
        <time>2021-08-17T06:59:16Z</time>
      </trkpt>
      <trkpt lat="44.55861" lon="1.52415">
        <ele>234.7</ele>
        <time>2021-08-17T06:59:17Z</time>
      </trkpt>
      <trkpt lat="44.55851" lon="1.52409">
        <ele>232.78</ele>
        <time>2021-08-17T06:59:19Z</time>
      </trkpt>
      <trkpt lat="44.55846" lon="1.52405">
        <ele>232.3</ele>
        <time>2021-08-17T06:59:20Z</time>
      </trkpt>
      <trkpt lat="44.55841" lon="1.524">
        <ele>231.33</ele>
        <time>2021-08-17T06:59:21Z</time>
      </trkpt>
      <trkpt lat="44.55836" lon="1.52394">
        <ele>231.33</ele>
        <time>2021-08-17T06:59:22Z</time>
      </trkpt>
      <trkpt lat="44.55831" lon="1.52387">
        <ele>230.85</ele>
        <time>2021-08-17T06:59:23Z</time>
      </trkpt>
      <trkpt lat="44.55827" lon="1.52379">
        <ele>230.37</ele>
        <time>2021-08-17T06:59:24Z</time>
      </trkpt>
      <trkpt lat="44.55823" lon="1.52372">
        <ele>230.37</ele>
        <time>2021-08-17T06:59:25Z</time>
      </trkpt>
      <trkpt lat="44.55796" lon="1.52324">
        <ele>228.93</ele>
        <time>2021-08-17T06:59:31Z</time>
      </trkpt>
      <trkpt lat="44.55789" lon="1.52307">
        <ele>228.93</ele>
        <time>2021-08-17T06:59:33Z</time>
      </trkpt>
      <trkpt lat="44.55782" lon="1.52278">
        <ele>228.45</ele>
        <time>2021-08-17T06:59:36Z</time>
      </trkpt>
      <trkpt lat="44.55781" lon="1.52269">
        <ele>228.45</ele>
        <time>2021-08-17T06:59:37Z</time>
      </trkpt>
      <trkpt lat="44.5578" lon="1.5226">
        <ele>228.45</ele>
        <time>2021-08-17T06:59:38Z</time>
      </trkpt>
      <trkpt lat="44.5578" lon="1.52252">
        <ele>228.45</ele>
        <time>2021-08-17T06:59:39Z</time>
      </trkpt>
      <trkpt lat="44.55778" lon="1.52244">
        <ele>228.45</ele>
        <time>2021-08-17T06:59:40Z</time>
      </trkpt>
      <trkpt lat="44.55776" lon="1.52239">
        <ele>228.45</ele>
        <time>2021-08-17T06:59:41Z</time>
      </trkpt>
      <trkpt lat="44.55773" lon="1.52235">
        <ele>229.41</ele>
        <time>2021-08-17T06:59:42Z</time>
      </trkpt>
      <trkpt lat="44.5577" lon="1.52231">
        <ele>229.89</ele>
        <time>2021-08-17T06:59:43Z</time>
      </trkpt>
      <trkpt lat="44.55755" lon="1.52214">
        <ele>229.89</ele>
        <time>2021-08-17T06:59:47Z</time>
      </trkpt>
      <trkpt lat="44.55737" lon="1.52198">
        <ele>228.45</ele>
        <time>2021-08-17T06:59:51Z</time>
      </trkpt>
      <trkpt lat="44.55725" lon="1.52192">
        <ele>227.49</ele>
        <time>2021-08-17T06:59:53Z</time>
      </trkpt>
      <trkpt lat="44.55711" lon="1.52187">
        <ele>227.01</ele>
        <time>2021-08-17T06:59:55Z</time>
      </trkpt>
      <trkpt lat="44.55657" lon="1.52174">
        <ele>226.05</ele>
        <time>2021-08-17T07:00:04Z</time>
      </trkpt>
      <trkpt lat="44.55646" lon="1.52172">
        <ele>226.05</ele>
        <time>2021-08-17T07:00:06Z</time>
      </trkpt>
      <trkpt lat="44.5561" lon="1.52164">
        <ele>225.09</ele>
        <time>2021-08-17T07:00:13Z</time>
      </trkpt>
      <trkpt lat="44.55574" lon="1.52149">
        <ele>224.12</ele>
        <time>2021-08-17T07:00:20Z</time>
      </trkpt>
      <trkpt lat="44.55568" lon="1.52148">
        <ele>224.12</ele>
        <time>2021-08-17T07:00:21Z</time>
      </trkpt>
      <trkpt lat="44.55561" lon="1.52148">
        <ele>224.12</ele>
        <time>2021-08-17T07:00:22Z</time>
      </trkpt>
      <trkpt lat="44.55555" lon="1.52149">
        <ele>224.12</ele>
        <time>2021-08-17T07:00:23Z</time>
      </trkpt>
      <trkpt lat="44.55549" lon="1.5215">
        <ele>224.12</ele>
        <time>2021-08-17T07:00:24Z</time>
      </trkpt>
      <trkpt lat="44.55543" lon="1.52153">
        <ele>223.64</ele>
        <time>2021-08-17T07:00:25Z</time>
      </trkpt>
      <trkpt lat="44.55537" lon="1.52156">
        <ele>223.64</ele>
        <time>2021-08-17T07:00:26Z</time>
      </trkpt>
      <trkpt lat="44.55531" lon="1.5216">
        <ele>223.64</ele>
        <time>2021-08-17T07:00:27Z</time>
      </trkpt>
      <trkpt lat="44.55494" lon="1.52191">
        <ele>223.16</ele>
        <time>2021-08-17T07:00:34Z</time>
      </trkpt>
      <trkpt lat="44.55461" lon="1.52224">
        <ele>222.2</ele>
        <time>2021-08-17T07:00:41Z</time>
      </trkpt>
      <trkpt lat="44.55421" lon="1.52252">
        <ele>221.24</ele>
        <time>2021-08-17T07:00:48Z</time>
      </trkpt>
      <trkpt lat="44.55379" lon="1.52272">
        <ele>220.76</ele>
        <time>2021-08-17T07:00:55Z</time>
      </trkpt>
      <trkpt lat="44.55368" lon="1.52276">
        <ele>220.76</ele>
        <time>2021-08-17T07:00:57Z</time>
      </trkpt>
      <trkpt lat="44.55363" lon="1.52277">
        <ele>220.76</ele>
        <time>2021-08-17T07:00:58Z</time>
      </trkpt>
      <trkpt lat="44.55326" lon="1.52292">
        <ele>218.84</ele>
        <time>2021-08-17T07:01:04Z</time>
      </trkpt>
      <trkpt lat="44.55298" lon="1.52303">
        <ele>217.88</ele>
        <time>2021-08-17T07:01:08Z</time>
      </trkpt>
      <trkpt lat="44.55291" lon="1.52307">
        <ele>217.88</ele>
        <time>2021-08-17T07:01:09Z</time>
      </trkpt>
      <trkpt lat="44.55249" lon="1.52333">
        <ele>217.4</ele>
        <time>2021-08-17T07:01:16Z</time>
      </trkpt>
      <trkpt lat="44.55243" lon="1.52335">
        <ele>217.4</ele>
        <time>2021-08-17T07:01:17Z</time>
      </trkpt>
      <trkpt lat="44.55236" lon="1.52336">
        <ele>216.91</ele>
        <time>2021-08-17T07:01:18Z</time>
      </trkpt>
      <trkpt lat="44.55212" lon="1.52339">
        <ele>216.91</ele>
        <time>2021-08-17T07:01:22Z</time>
      </trkpt>
      <trkpt lat="44.55196" lon="1.52344">
        <ele>218.36</ele>
        <time>2021-08-17T07:01:25Z</time>
      </trkpt>
      <trkpt lat="44.55184" lon="1.52348">
        <ele>216.91</ele>
        <time>2021-08-17T07:01:27Z</time>
      </trkpt>
      <trkpt lat="44.55169" lon="1.52353">
        <ele>215.47</ele>
        <time>2021-08-17T07:01:29Z</time>
      </trkpt>
      <trkpt lat="44.55129" lon="1.52359">
        <ele>215.47</ele>
        <time>2021-08-17T07:01:35Z</time>
      </trkpt>
      <trkpt lat="44.55117" lon="1.52358">
        <ele>215.47</ele>
        <time>2021-08-17T07:01:37Z</time>
      </trkpt>
      <trkpt lat="44.5511" lon="1.52357">
        <ele>214.99</ele>
        <time>2021-08-17T07:01:38Z</time>
      </trkpt>
      <trkpt lat="44.55104" lon="1.52354">
        <ele>214.51</ele>
        <time>2021-08-17T07:01:39Z</time>
      </trkpt>
      <trkpt lat="44.55098" lon="1.52351">
        <ele>214.03</ele>
        <time>2021-08-17T07:01:40Z</time>
      </trkpt>
      <trkpt lat="44.55093" lon="1.52348">
        <ele>214.03</ele>
        <time>2021-08-17T07:01:41Z</time>
      </trkpt>
      <trkpt lat="44.55088" lon="1.52346">
        <ele>214.03</ele>
        <time>2021-08-17T07:01:42Z</time>
      </trkpt>
      <trkpt lat="44.55047" lon="1.52332">
        <ele>213.55</ele>
        <time>2021-08-17T07:01:49Z</time>
      </trkpt>
      <trkpt lat="44.55035" lon="1.52327">
        <ele>213.07</ele>
        <time>2021-08-17T07:01:51Z</time>
      </trkpt>
      <trkpt lat="44.5503" lon="1.52324">
        <ele>213.07</ele>
        <time>2021-08-17T07:01:52Z</time>
      </trkpt>
      <trkpt lat="44.55026" lon="1.5232">
        <ele>213.07</ele>
        <time>2021-08-17T07:01:53Z</time>
      </trkpt>
      <trkpt lat="44.55022" lon="1.52315">
        <ele>212.59</ele>
        <time>2021-08-17T07:01:54Z</time>
      </trkpt>
      <trkpt lat="44.55018" lon="1.52311">
        <ele>212.59</ele>
        <time>2021-08-17T07:01:55Z</time>
      </trkpt>
      <trkpt lat="44.55013" lon="1.52308">
        <ele>212.11</ele>
        <time>2021-08-17T07:01:56Z</time>
      </trkpt>
      <trkpt lat="44.55008" lon="1.52305">
        <ele>212.11</ele>
        <time>2021-08-17T07:01:57Z</time>
      </trkpt>
      <trkpt lat="44.55003" lon="1.52302">
        <ele>212.11</ele>
        <time>2021-08-17T07:01:58Z</time>
      </trkpt>
      <trkpt lat="44.54968" lon="1.52291">
        <ele>212.11</ele>
        <time>2021-08-17T07:02:05Z</time>
      </trkpt>
      <trkpt lat="44.54952" lon="1.52288">
        <ele>212.11</ele>
        <time>2021-08-17T07:02:08Z</time>
      </trkpt>
      <trkpt lat="44.54936" lon="1.52288">
        <ele>212.11</ele>
        <time>2021-08-17T07:02:11Z</time>
      </trkpt>
      <trkpt lat="44.54901" lon="1.523">
        <ele>212.11</ele>
        <time>2021-08-17T07:02:18Z</time>
      </trkpt>
      <trkpt lat="44.54875" lon="1.52312">
        <ele>211.63</ele>
        <time>2021-08-17T07:02:23Z</time>
      </trkpt>
      <trkpt lat="44.54869" lon="1.52315">
        <ele>211.63</ele>
        <time>2021-08-17T07:02:24Z</time>
      </trkpt>
      <trkpt lat="44.54822" lon="1.52335">
        <ele>209.7</ele>
        <time>2021-08-17T07:02:32Z</time>
      </trkpt>
      <trkpt lat="44.54771" lon="1.52349">
        <ele>208.26</ele>
        <time>2021-08-17T07:02:40Z</time>
      </trkpt>
      <trkpt lat="44.54726" lon="1.52345">
        <ele>207.78</ele>
        <time>2021-08-17T07:02:47Z</time>
      </trkpt>
      <trkpt lat="44.5469" lon="1.52342">
        <ele>206.34</ele>
        <time>2021-08-17T07:02:53Z</time>
      </trkpt>
      <trkpt lat="44.54652" lon="1.52338">
        <ele>205.86</ele>
        <time>2021-08-17T07:02:59Z</time>
      </trkpt>
      <trkpt lat="44.54608" lon="1.52323">
        <ele>205.38</ele>
        <time>2021-08-17T07:03:07Z</time>
      </trkpt>
      <trkpt lat="44.54588" lon="1.52311">
        <ele>205.38</ele>
        <time>2021-08-17T07:03:11Z</time>
      </trkpt>
      <trkpt lat="44.54558" lon="1.52294">
        <ele>204.9</ele>
        <time>2021-08-17T07:03:17Z</time>
      </trkpt>
      <trkpt lat="44.54553" lon="1.52292">
        <ele>204.42</ele>
        <time>2021-08-17T07:03:18Z</time>
      </trkpt>
      <trkpt lat="44.54548" lon="1.52289">
        <ele>203.94</ele>
        <time>2021-08-17T07:03:19Z</time>
      </trkpt>
      <trkpt lat="44.54542" lon="1.52287">
        <ele>203.46</ele>
        <time>2021-08-17T07:03:20Z</time>
      </trkpt>
      <trkpt lat="44.54529" lon="1.52282">
        <ele>202.98</ele>
        <time>2021-08-17T07:03:22Z</time>
      </trkpt>
      <trkpt lat="44.54523" lon="1.52282">
        <ele>202.49</ele>
        <time>2021-08-17T07:03:23Z</time>
      </trkpt>
      <trkpt lat="44.54518" lon="1.52283">
        <ele>202.49</ele>
        <time>2021-08-17T07:03:24Z</time>
      </trkpt>
      <trkpt lat="44.54512" lon="1.52285">
        <ele>202.01</ele>
        <time>2021-08-17T07:03:25Z</time>
      </trkpt>
      <trkpt lat="44.54507" lon="1.52287">
        <ele>202.49</ele>
        <time>2021-08-17T07:03:26Z</time>
      </trkpt>
      <trkpt lat="44.54503" lon="1.52289">
        <ele>201.53</ele>
        <time>2021-08-17T07:03:27Z</time>
      </trkpt>
      <trkpt lat="44.54496" lon="1.52291">
        <ele>201.53</ele>
        <time>2021-08-17T07:03:30Z</time>
      </trkpt>
      <trkpt lat="44.54494" lon="1.52292">
        <ele>201.53</ele>
        <time>2021-08-17T07:03:31Z</time>
      </trkpt>
      <trkpt lat="44.54493" lon="1.52295">
        <ele>201.53</ele>
        <time>2021-08-17T07:03:32Z</time>
      </trkpt>
      <trkpt lat="44.54492" lon="1.52298">
        <ele>201.53</ele>
        <time>2021-08-17T07:03:33Z</time>
      </trkpt>
      <trkpt lat="44.54492" lon="1.52301">
        <ele>201.53</ele>
        <time>2021-08-17T07:03:34Z</time>
      </trkpt>
      <trkpt lat="44.54491" lon="1.52304">
        <ele>201.53</ele>
        <time>2021-08-17T07:03:35Z</time>
      </trkpt>
      <trkpt lat="44.5449" lon="1.52308">
        <ele>201.53</ele>
        <time>2021-08-17T07:03:36Z</time>
      </trkpt>
      <trkpt lat="44.54488" lon="1.52339">
        <ele>201.53</ele>
        <time>2021-08-17T07:03:42Z</time>
      </trkpt>
      <trkpt lat="44.54488" lon="1.52375">
        <ele>201.53</ele>
        <time>2021-08-17T07:03:48Z</time>
      </trkpt>
      <trkpt lat="44.54487" lon="1.52381">
        <ele>201.53</ele>
        <time>2021-08-17T07:03:49Z</time>
      </trkpt>
      <trkpt lat="44.54487" lon="1.52388">
        <ele>202.01</ele>
        <time>2021-08-17T07:03:50Z</time>
      </trkpt>
      <trkpt lat="44.54485" lon="1.52395">
        <ele>202.01</ele>
        <time>2021-08-17T07:03:51Z</time>
      </trkpt>
      <trkpt lat="44.54484" lon="1.52401">
        <ele>201.53</ele>
        <time>2021-08-17T07:03:52Z</time>
      </trkpt>
      <trkpt lat="44.54482" lon="1.52408">
        <ele>201.53</ele>
        <time>2021-08-17T07:03:53Z</time>
      </trkpt>
      <trkpt lat="44.5448" lon="1.52415">
        <ele>202.01</ele>
        <time>2021-08-17T07:03:54Z</time>
      </trkpt>
      <trkpt lat="44.54467" lon="1.5246">
        <ele>201.53</ele>
        <time>2021-08-17T07:04:01Z</time>
      </trkpt>
      <trkpt lat="44.54462" lon="1.52472">
        <ele>201.53</ele>
        <time>2021-08-17T07:04:03Z</time>
      </trkpt>
      <trkpt lat="44.54459" lon="1.52478">
        <ele>201.53</ele>
        <time>2021-08-17T07:04:04Z</time>
      </trkpt>
      <trkpt lat="44.54446" lon="1.52506">
        <ele>201.53</ele>
        <time>2021-08-17T07:04:09Z</time>
      </trkpt>
      <trkpt lat="44.54444" lon="1.52512">
        <ele>201.53</ele>
        <time>2021-08-17T07:04:10Z</time>
      </trkpt>
      <trkpt lat="44.54433" lon="1.52533">
        <ele>201.53</ele>
        <time>2021-08-17T07:04:14Z</time>
      </trkpt>
      <trkpt lat="44.5443" lon="1.52539">
        <ele>201.53</ele>
        <time>2021-08-17T07:04:15Z</time>
      </trkpt>
      <trkpt lat="44.54419" lon="1.52569">
        <ele>201.53</ele>
        <time>2021-08-17T07:04:20Z</time>
      </trkpt>
      <trkpt lat="44.54417" lon="1.52575">
        <ele>202.98</ele>
        <time>2021-08-17T07:04:21Z</time>
      </trkpt>
      <trkpt lat="44.54416" lon="1.52581">
        <ele>202.98</ele>
        <time>2021-08-17T07:04:22Z</time>
      </trkpt>
      <trkpt lat="44.54414" lon="1.5261">
        <ele>203.46</ele>
        <time>2021-08-17T07:04:27Z</time>
      </trkpt>
      <trkpt lat="44.54406" lon="1.52643">
        <ele>202.01</ele>
        <time>2021-08-17T07:04:32Z</time>
      </trkpt>
      <trkpt lat="44.54404" lon="1.52649">
        <ele>202.01</ele>
        <time>2021-08-17T07:04:33Z</time>
      </trkpt>
      <trkpt lat="44.54396" lon="1.52672">
        <ele>202.01</ele>
        <time>2021-08-17T07:04:37Z</time>
      </trkpt>
      <trkpt lat="44.54388" lon="1.52723">
        <ele>199.61</ele>
        <time>2021-08-17T07:04:44Z</time>
      </trkpt>
      <trkpt lat="44.54387" lon="1.52731">
        <ele>199.61</ele>
        <time>2021-08-17T07:04:45Z</time>
      </trkpt>
      <trkpt lat="44.54388" lon="1.5274">
        <ele>198.65</ele>
        <time>2021-08-17T07:04:46Z</time>
      </trkpt>
      <trkpt lat="44.5439" lon="1.52757">
        <ele>198.65</ele>
        <time>2021-08-17T07:04:48Z</time>
      </trkpt>
      <trkpt lat="44.54393" lon="1.52797">
        <ele>198.65</ele>
        <time>2021-08-17T07:04:54Z</time>
      </trkpt>
      <trkpt lat="44.54394" lon="1.52808">
        <ele>199.61</ele>
        <time>2021-08-17T07:04:56Z</time>
      </trkpt>
      <trkpt lat="44.54397" lon="1.52829">
        <ele>200.09</ele>
        <time>2021-08-17T07:05:00Z</time>
      </trkpt>
      <trkpt lat="44.54397" lon="1.52836">
        <ele>200.09</ele>
        <time>2021-08-17T07:05:01Z</time>
      </trkpt>
      <trkpt lat="44.54396" lon="1.52842">
        <ele>201.05</ele>
        <time>2021-08-17T07:05:02Z</time>
      </trkpt>
      <trkpt lat="44.54396" lon="1.52848">
        <ele>201.05</ele>
        <time>2021-08-17T07:05:03Z</time>
      </trkpt>
      <trkpt lat="44.54395" lon="1.52854">
        <ele>201.05</ele>
        <time>2021-08-17T07:05:04Z</time>
      </trkpt>
      <trkpt lat="44.54393" lon="1.52861">
        <ele>201.05</ele>
        <time>2021-08-17T07:05:05Z</time>
      </trkpt>
      <trkpt lat="44.54391" lon="1.52867">
        <ele>201.05</ele>
        <time>2021-08-17T07:05:06Z</time>
      </trkpt>
      <trkpt lat="44.54389" lon="1.52873">
        <ele>201.05</ele>
        <time>2021-08-17T07:05:07Z</time>
      </trkpt>
      <trkpt lat="44.54386" lon="1.52879">
        <ele>201.05</ele>
        <time>2021-08-17T07:05:08Z</time>
      </trkpt>
      <trkpt lat="44.54383" lon="1.52883">
        <ele>201.05</ele>
        <time>2021-08-17T07:05:09Z</time>
      </trkpt>
      <trkpt lat="44.5438" lon="1.52888">
        <ele>201.05</ele>
        <time>2021-08-17T07:05:10Z</time>
      </trkpt>
      <trkpt lat="44.54377" lon="1.52893">
        <ele>200.57</ele>
        <time>2021-08-17T07:05:11Z</time>
      </trkpt>
      <trkpt lat="44.54375" lon="1.52898">
        <ele>200.57</ele>
        <time>2021-08-17T07:05:12Z</time>
      </trkpt>
      <trkpt lat="44.54373" lon="1.52903">
        <ele>200.57</ele>
        <time>2021-08-17T07:05:13Z</time>
      </trkpt>
      <trkpt lat="44.54371" lon="1.52908">
        <ele>200.57</ele>
        <time>2021-08-17T07:05:14Z</time>
      </trkpt>
      <trkpt lat="44.54368" lon="1.52912">
        <ele>200.57</ele>
        <time>2021-08-17T07:05:15Z</time>
      </trkpt>
      <trkpt lat="44.54365" lon="1.52915">
        <ele>199.61</ele>
        <time>2021-08-17T07:05:16Z</time>
      </trkpt>
      <trkpt lat="44.5436" lon="1.52916">
        <ele>199.61</ele>
        <time>2021-08-17T07:05:17Z</time>
      </trkpt>
      <trkpt lat="44.54356" lon="1.52916">
        <ele>199.61</ele>
        <time>2021-08-17T07:05:18Z</time>
      </trkpt>
      <trkpt lat="44.54353" lon="1.52916">
        <ele>199.61</ele>
        <time>2021-08-17T07:05:19Z</time>
      </trkpt>
      <trkpt lat="44.54332" lon="1.52911">
        <ele>199.13</ele>
        <time>2021-08-17T07:05:24Z</time>
      </trkpt>
      <trkpt lat="44.54328" lon="1.52909">
        <ele>199.13</ele>
        <time>2021-08-17T07:05:25Z</time>
      </trkpt>
      <trkpt lat="44.54324" lon="1.52906">
        <ele>199.13</ele>
        <time>2021-08-17T07:05:26Z</time>
      </trkpt>
      <trkpt lat="44.54317" lon="1.52901">
        <ele>199.13</ele>
        <time>2021-08-17T07:05:28Z</time>
      </trkpt>
      <trkpt lat="44.54313" lon="1.52901">
        <ele>199.13</ele>
        <time>2021-08-17T07:05:29Z</time>
      </trkpt>
      <trkpt lat="44.54311" lon="1.52903">
        <ele>199.13</ele>
        <time>2021-08-17T07:05:30Z</time>
      </trkpt>
      <trkpt lat="44.54309" lon="1.52906">
        <ele>199.13</ele>
        <time>2021-08-17T07:05:31Z</time>
      </trkpt>
      <trkpt lat="44.54307" lon="1.5291">
        <ele>199.13</ele>
        <time>2021-08-17T07:05:32Z</time>
      </trkpt>
      <trkpt lat="44.54302" lon="1.52916">
        <ele>198.65</ele>
        <time>2021-08-17T07:05:34Z</time>
      </trkpt>
      <trkpt lat="44.54299" lon="1.52916">
        <ele>198.65</ele>
        <time>2021-08-17T07:05:35Z</time>
      </trkpt>
      <trkpt lat="44.54295" lon="1.52916">
        <ele>198.65</ele>
        <time>2021-08-17T07:05:36Z</time>
      </trkpt>
      <trkpt lat="44.54287" lon="1.52915">
        <ele>198.65</ele>
        <time>2021-08-17T07:05:38Z</time>
      </trkpt>
      <trkpt lat="44.54263" lon="1.52905">
        <ele>198.65</ele>
        <time>2021-08-17T07:05:45Z</time>
      </trkpt>
      <trkpt lat="44.54244" lon="1.52896">
        <ele>201.05</ele>
        <time>2021-08-17T07:05:52Z</time>
      </trkpt>
      <trkpt lat="44.54242" lon="1.52895">
        <ele>201.05</ele>
        <time>2021-08-17T07:05:53Z</time>
      </trkpt>
      <trkpt lat="44.54241" lon="1.52893">
        <ele>201.05</ele>
        <time>2021-08-17T07:05:54Z</time>
      </trkpt>
      <trkpt lat="44.54239" lon="1.52892">
        <ele>201.05</ele>
        <time>2021-08-17T07:05:55Z</time>
      </trkpt>
      <trkpt lat="44.54237" lon="1.52891">
        <ele>201.05</ele>
        <time>2021-08-17T07:05:56Z</time>
      </trkpt>
      <trkpt lat="44.54235" lon="1.52889">
        <ele>201.53</ele>
        <time>2021-08-17T07:05:57Z</time>
      </trkpt>
      <trkpt lat="44.54217" lon="1.52879">
        <ele>202.98</ele>
        <time>2021-08-17T07:06:06Z</time>
      </trkpt>
      <trkpt lat="44.54206" lon="1.5287">
        <ele>203.46</ele>
        <time>2021-08-17T07:06:11Z</time>
      </trkpt>
      <trkpt lat="44.54192" lon="1.52859">
        <ele>203.94</ele>
        <time>2021-08-17T07:06:18Z</time>
      </trkpt>
      <trkpt lat="44.54174" lon="1.52848">
        <ele>204.9</ele>
        <time>2021-08-17T07:06:27Z</time>
      </trkpt>
      <trkpt lat="44.5416" lon="1.5284">
        <ele>205.38</ele>
        <time>2021-08-17T07:06:34Z</time>
      </trkpt>
      <trkpt lat="44.54129" lon="1.5283">
        <ele>205.86</ele>
        <time>2021-08-17T07:06:44Z</time>
      </trkpt>
      <trkpt lat="44.5411" lon="1.52825">
        <ele>205.86</ele>
        <time>2021-08-17T07:06:51Z</time>
      </trkpt>
      <trkpt lat="44.54094" lon="1.5282">
        <ele>207.3</ele>
        <time>2021-08-17T07:06:59Z</time>
      </trkpt>
      <trkpt lat="44.54071" lon="1.52812">
        <ele>208.74</ele>
        <time>2021-08-17T07:07:10Z</time>
      </trkpt>
      <trkpt lat="44.54053" lon="1.52798">
        <ele>209.22</ele>
        <time>2021-08-17T07:07:19Z</time>
      </trkpt>
      <trkpt lat="44.54034" lon="1.52782">
        <ele>210.67</ele>
        <time>2021-08-17T07:07:29Z</time>
      </trkpt>
      <trkpt lat="44.54021" lon="1.52774">
        <ele>211.15</ele>
        <time>2021-08-17T07:07:36Z</time>
      </trkpt>
      <trkpt lat="44.54009" lon="1.52768">
        <ele>212.11</ele>
        <time>2021-08-17T07:07:43Z</time>
      </trkpt>
      <trkpt lat="44.53996" lon="1.52761">
        <ele>212.59</ele>
        <time>2021-08-17T07:07:49Z</time>
      </trkpt>
      <trkpt lat="44.53983" lon="1.52754">
        <ele>213.07</ele>
        <time>2021-08-17T07:07:56Z</time>
      </trkpt>
      <trkpt lat="44.53972" lon="1.52749">
        <ele>214.03</ele>
        <time>2021-08-17T07:08:02Z</time>
      </trkpt>
      <trkpt lat="44.53956" lon="1.52742">
        <ele>214.51</ele>
        <time>2021-08-17T07:08:10Z</time>
      </trkpt>
      <trkpt lat="44.5394" lon="1.52743">
        <ele>215.47</ele>
        <time>2021-08-17T07:08:18Z</time>
      </trkpt>
      <trkpt lat="44.53926" lon="1.52748">
        <ele>216.43</ele>
        <time>2021-08-17T07:08:25Z</time>
      </trkpt>
      <trkpt lat="44.53921" lon="1.52751">
        <ele>216.91</ele>
        <time>2021-08-17T07:08:28Z</time>
      </trkpt>
      <trkpt lat="44.53907" lon="1.52773">
        <ele>217.88</ele>
        <time>2021-08-17T07:08:38Z</time>
      </trkpt>
      <trkpt lat="44.53896" lon="1.52789">
        <ele>217.88</ele>
        <time>2021-08-17T07:08:45Z</time>
      </trkpt>
      <trkpt lat="44.53881" lon="1.52803">
        <ele>219.8</ele>
        <time>2021-08-17T07:08:53Z</time>
      </trkpt>
      <trkpt lat="44.53863" lon="1.52819">
        <ele>221.24</ele>
        <time>2021-08-17T07:09:02Z</time>
      </trkpt>
      <trkpt lat="44.53849" lon="1.5283">
        <ele>221.72</ele>
        <time>2021-08-17T07:09:09Z</time>
      </trkpt>
      <trkpt lat="44.53838" lon="1.52842">
        <ele>223.64</ele>
        <time>2021-08-17T07:09:16Z</time>
      </trkpt>
      <trkpt lat="44.53824" lon="1.52855">
        <ele>224.61</ele>
        <time>2021-08-17T07:09:23Z</time>
      </trkpt>
      <trkpt lat="44.53814" lon="1.52865">
        <ele>225.57</ele>
        <time>2021-08-17T07:09:31Z</time>
      </trkpt>
      <trkpt lat="44.53805" lon="1.52875">
        <ele>226.53</ele>
        <time>2021-08-17T07:09:40Z</time>
      </trkpt>
      <trkpt lat="44.53795" lon="1.52882">
        <ele>228.45</ele>
        <time>2021-08-17T07:09:49Z</time>
      </trkpt>
      <trkpt lat="44.53786" lon="1.5289">
        <ele>229.41</ele>
        <time>2021-08-17T07:10:00Z</time>
      </trkpt>
      <trkpt lat="44.53781" lon="1.52892">
        <ele>229.41</ele>
        <time>2021-08-17T07:10:07Z</time>
      </trkpt>
      <trkpt lat="44.5377" lon="1.52897">
        <ele>229.89</ele>
        <time>2021-08-17T07:10:14Z</time>
      </trkpt>
      <trkpt lat="44.5376" lon="1.529">
        <ele>231.33</ele>
        <time>2021-08-17T07:10:20Z</time>
      </trkpt>
      <trkpt lat="44.53758" lon="1.52901">
        <ele>231.33</ele>
        <time>2021-08-17T07:10:21Z</time>
      </trkpt>
      <trkpt lat="44.53756" lon="1.52902">
        <ele>231.33</ele>
        <time>2021-08-17T07:10:22Z</time>
      </trkpt>
      <trkpt lat="44.53755" lon="1.52903">
        <ele>231.33</ele>
        <time>2021-08-17T07:10:23Z</time>
      </trkpt>
      <trkpt lat="44.53753" lon="1.52903">
        <ele>231.33</ele>
        <time>2021-08-17T07:10:24Z</time>
      </trkpt>
      <trkpt lat="44.53751" lon="1.52904">
        <ele>231.81</ele>
        <time>2021-08-17T07:10:25Z</time>
      </trkpt>
      <trkpt lat="44.53749" lon="1.52904">
        <ele>231.81</ele>
        <time>2021-08-17T07:10:26Z</time>
      </trkpt>
      <trkpt lat="44.53748" lon="1.52904">
        <ele>231.81</ele>
        <time>2021-08-17T07:10:27Z</time>
      </trkpt>
      <trkpt lat="44.53741" lon="1.52906">
        <ele>232.3</ele>
        <time>2021-08-17T07:10:31Z</time>
      </trkpt>
      <trkpt lat="44.53739" lon="1.52905">
        <ele>232.3</ele>
        <time>2021-08-17T07:10:32Z</time>
      </trkpt>
      <trkpt lat="44.53727" lon="1.52907">
        <ele>233.26</ele>
        <time>2021-08-17T07:10:39Z</time>
      </trkpt>
      <trkpt lat="44.53726" lon="1.52908">
        <ele>233.26</ele>
        <time>2021-08-17T07:10:40Z</time>
      </trkpt>
      <trkpt lat="44.53712" lon="1.52909">
        <ele>234.22</ele>
        <time>2021-08-17T07:10:47Z</time>
      </trkpt>
      <trkpt lat="44.53702" lon="1.52911">
        <ele>235.18</ele>
        <time>2021-08-17T07:10:54Z</time>
      </trkpt>
      <trkpt lat="44.53692" lon="1.52907">
        <ele>236.14</ele>
        <time>2021-08-17T07:11:03Z</time>
      </trkpt>
      <trkpt lat="44.5369" lon="1.52903">
        <ele>236.14</ele>
        <time>2021-08-17T07:11:06Z</time>
      </trkpt>
      <trkpt lat="44.53684" lon="1.52896">
        <ele>237.1</ele>
        <time>2021-08-17T07:11:14Z</time>
      </trkpt>
      <trkpt lat="44.53678" lon="1.52888">
        <ele>237.58</ele>
        <time>2021-08-17T07:11:23Z</time>
      </trkpt>
      <trkpt lat="44.53671" lon="1.52879">
        <ele>238.06</ele>
        <time>2021-08-17T07:11:30Z</time>
      </trkpt>
      <trkpt lat="44.53665" lon="1.52872">
        <ele>239.02</ele>
        <time>2021-08-17T07:11:38Z</time>
      </trkpt>
      <trkpt lat="44.53659" lon="1.52863">
        <ele>239.99</ele>
        <time>2021-08-17T07:11:46Z</time>
      </trkpt>
      <trkpt lat="44.53658" lon="1.52862">
        <ele>240.47</ele>
        <time>2021-08-17T07:12:01Z</time>
      </trkpt>
      <trkpt lat="44.53654" lon="1.52854">
        <ele>240.95</ele>
        <time>2021-08-17T07:12:09Z</time>
      </trkpt>
      <trkpt lat="44.5365" lon="1.52845">
        <ele>241.91</ele>
        <time>2021-08-17T07:12:18Z</time>
      </trkpt>
      <trkpt lat="44.53646" lon="1.52838">
        <ele>243.35</ele>
        <time>2021-08-17T07:12:26Z</time>
      </trkpt>
      <trkpt lat="44.53642" lon="1.52831">
        <ele>244.31</ele>
        <time>2021-08-17T07:12:33Z</time>
      </trkpt>
      <trkpt lat="44.53637" lon="1.52819">
        <ele>244.79</ele>
        <time>2021-08-17T07:12:42Z</time>
      </trkpt>
      <trkpt lat="44.53636" lon="1.52818">
        <ele>244.79</ele>
        <time>2021-08-17T07:12:43Z</time>
      </trkpt>
      <trkpt lat="44.5363" lon="1.52811">
        <ele>245.75</ele>
        <time>2021-08-17T07:12:53Z</time>
      </trkpt>
      <trkpt lat="44.53622" lon="1.52801">
        <ele>246.72</ele>
        <time>2021-08-17T07:13:01Z</time>
      </trkpt>
      <trkpt lat="44.53611" lon="1.52792">
        <ele>247.2</ele>
        <time>2021-08-17T07:13:08Z</time>
      </trkpt>
      <trkpt lat="44.53602" lon="1.52783">
        <ele>248.64</ele>
        <time>2021-08-17T07:13:14Z</time>
      </trkpt>
      <trkpt lat="44.53597" lon="1.52779">
        <ele>250.08</ele>
        <time>2021-08-17T07:13:20Z</time>
      </trkpt>
      <trkpt lat="44.53589" lon="1.52769">
        <ele>250.56</ele>
        <time>2021-08-17T07:13:30Z</time>
      </trkpt>
      <trkpt lat="44.53579" lon="1.52758">
        <ele>252</ele>
        <time>2021-08-17T07:13:41Z</time>
      </trkpt>
      <trkpt lat="44.53571" lon="1.5275">
        <ele>252.96</ele>
        <time>2021-08-17T07:13:49Z</time>
      </trkpt>
      <trkpt lat="44.53561" lon="1.52741">
        <ele>254.89</ele>
        <time>2021-08-17T07:14:00Z</time>
      </trkpt>
      <trkpt lat="44.53555" lon="1.52736">
        <ele>254.89</ele>
        <time>2021-08-17T07:14:10Z</time>
      </trkpt>
      <trkpt lat="44.53543" lon="1.52733">
        <ele>255.37</ele>
        <time>2021-08-17T07:14:17Z</time>
      </trkpt>
      <trkpt lat="44.53529" lon="1.52727">
        <ele>255.37</ele>
        <time>2021-08-17T07:14:24Z</time>
      </trkpt>
      <trkpt lat="44.53517" lon="1.52717">
        <ele>256.81</ele>
        <time>2021-08-17T07:14:33Z</time>
      </trkpt>
      <trkpt lat="44.53511" lon="1.52711">
        <ele>257.29</ele>
        <time>2021-08-17T07:14:38Z</time>
      </trkpt>
      <trkpt lat="44.53498" lon="1.52697">
        <ele>258.73</ele>
        <time>2021-08-17T07:14:49Z</time>
      </trkpt>
      <trkpt lat="44.53487" lon="1.52689">
        <ele>259.69</ele>
        <time>2021-08-17T07:14:57Z</time>
      </trkpt>
      <trkpt lat="44.53476" lon="1.52676">
        <ele>261.14</ele>
        <time>2021-08-17T07:15:07Z</time>
      </trkpt>
      <trkpt lat="44.53473" lon="1.52674">
        <ele>261.62</ele>
        <time>2021-08-17T07:15:09Z</time>
      </trkpt>
      <trkpt lat="44.53465" lon="1.52659">
        <ele>263.06</ele>
        <time>2021-08-17T07:15:18Z</time>
      </trkpt>
      <trkpt lat="44.53461" lon="1.52652">
        <ele>264.02</ele>
        <time>2021-08-17T07:15:22Z</time>
      </trkpt>
      <trkpt lat="44.53456" lon="1.5264">
        <ele>265.94</ele>
        <time>2021-08-17T07:15:31Z</time>
      </trkpt>
      <trkpt lat="44.53445" lon="1.52626">
        <ele>267.86</ele>
        <time>2021-08-17T07:15:42Z</time>
      </trkpt>
      <trkpt lat="44.5344" lon="1.52616">
        <ele>268.83</ele>
        <time>2021-08-17T07:15:50Z</time>
      </trkpt>
      <trkpt lat="44.53434" lon="1.52606">
        <ele>269.31</ele>
        <time>2021-08-17T07:15:59Z</time>
      </trkpt>
      <trkpt lat="44.53435" lon="1.52605">
        <ele>269.31</ele>
        <time>2021-08-17T07:16:05Z</time>
      </trkpt>
      <trkpt lat="44.53439" lon="1.52602">
        <ele>269.31</ele>
        <time>2021-08-17T07:16:11Z</time>
      </trkpt>
      <trkpt lat="44.53438" lon="1.52603">
        <ele>269.31</ele>
        <time>2021-08-17T07:16:17Z</time>
      </trkpt>
      <trkpt lat="44.53433" lon="1.52601">
        <ele>269.31</ele>
        <time>2021-08-17T07:16:31Z</time>
      </trkpt>
      <trkpt lat="44.53425" lon="1.52588">
        <ele>270.27</ele>
        <time>2021-08-17T07:16:40Z</time>
      </trkpt>
      <trkpt lat="44.5342" lon="1.52577">
        <ele>271.23</ele>
        <time>2021-08-17T07:16:47Z</time>
      </trkpt>
      <trkpt lat="44.53414" lon="1.52565">
        <ele>273.15</ele>
        <time>2021-08-17T07:16:55Z</time>
      </trkpt>
      <trkpt lat="44.5341" lon="1.52553">
        <ele>274.11</ele>
        <time>2021-08-17T07:17:02Z</time>
      </trkpt>
      <trkpt lat="44.53405" lon="1.52542">
        <ele>276.04</ele>
        <time>2021-08-17T07:17:09Z</time>
      </trkpt>
      <trkpt lat="44.53399" lon="1.52531">
        <ele>277.48</ele>
        <time>2021-08-17T07:17:17Z</time>
      </trkpt>
      <trkpt lat="44.53392" lon="1.52522">
        <ele>277.96</ele>
        <time>2021-08-17T07:17:25Z</time>
      </trkpt>
      <trkpt lat="44.53391" lon="1.52521">
        <ele>278.44</ele>
        <time>2021-08-17T07:17:26Z</time>
      </trkpt>
      <trkpt lat="44.53388" lon="1.52514">
        <ele>278.92</ele>
        <time>2021-08-17T07:17:33Z</time>
      </trkpt>
      <trkpt lat="44.53383" lon="1.52506">
        <ele>279.88</ele>
        <time>2021-08-17T07:17:41Z</time>
      </trkpt>
      <trkpt lat="44.53379" lon="1.52499">
        <ele>282.28</ele>
        <time>2021-08-17T07:17:51Z</time>
      </trkpt>
      <trkpt lat="44.53375" lon="1.52489">
        <ele>284.21</ele>
        <time>2021-08-17T07:18:02Z</time>
      </trkpt>
      <trkpt lat="44.53373" lon="1.52481">
        <ele>286.13</ele>
        <time>2021-08-17T07:18:12Z</time>
      </trkpt>
      <trkpt lat="44.53369" lon="1.52473">
        <ele>288.05</ele>
        <time>2021-08-17T07:18:23Z</time>
      </trkpt>
      <trkpt lat="44.53365" lon="1.52465">
        <ele>289.97</ele>
        <time>2021-08-17T07:18:35Z</time>
      </trkpt>
      <trkpt lat="44.53359" lon="1.52458">
        <ele>291.9</ele>
        <time>2021-08-17T07:18:46Z</time>
      </trkpt>
      <trkpt lat="44.53355" lon="1.52455">
        <ele>293.34</ele>
        <time>2021-08-17T07:18:54Z</time>
      </trkpt>
      <trkpt lat="44.53348" lon="1.5245">
        <ele>294.78</ele>
        <time>2021-08-17T07:19:04Z</time>
      </trkpt>
      <trkpt lat="44.53341" lon="1.52444">
        <ele>296.22</ele>
        <time>2021-08-17T07:19:14Z</time>
      </trkpt>
      <trkpt lat="44.53333" lon="1.52444">
        <ele>298.63</ele>
        <time>2021-08-17T07:19:25Z</time>
      </trkpt>
      <trkpt lat="44.53334" lon="1.52449">
        <ele>299.59</ele>
        <time>2021-08-17T07:19:32Z</time>
      </trkpt>
      <trkpt lat="44.53335" lon="1.52454">
        <ele>300.55</ele>
        <time>2021-08-17T07:19:41Z</time>
      </trkpt>
      <trkpt lat="44.53335" lon="1.52456">
        <ele>300.55</ele>
        <time>2021-08-17T07:19:43Z</time>
      </trkpt>
      <trkpt lat="44.53338" lon="1.52472">
        <ele>301.51</ele>
        <time>2021-08-17T07:19:52Z</time>
      </trkpt>
      <trkpt lat="44.5334" lon="1.52489">
        <ele>302.95</ele>
        <time>2021-08-17T07:20:00Z</time>
      </trkpt>
      <trkpt lat="44.5334" lon="1.52496">
        <ele>303.43</ele>
        <time>2021-08-17T07:20:04Z</time>
      </trkpt>
      <trkpt lat="44.5334" lon="1.52507">
        <ele>304.39</ele>
        <time>2021-08-17T07:20:10Z</time>
      </trkpt>
      <trkpt lat="44.5334" lon="1.52522">
        <ele>305.84</ele>
        <time>2021-08-17T07:20:19Z</time>
      </trkpt>
      <trkpt lat="44.53339" lon="1.52526">
        <ele>306.32</ele>
        <time>2021-08-17T07:20:25Z</time>
      </trkpt>
      <trkpt lat="44.53338" lon="1.52535">
        <ele>307.28</ele>
        <time>2021-08-17T07:20:33Z</time>
      </trkpt>
      <trkpt lat="44.53336" lon="1.52543">
        <ele>308.24</ele>
        <time>2021-08-17T07:20:42Z</time>
      </trkpt>
      <trkpt lat="44.53335" lon="1.52549">
        <ele>308.72</ele>
        <time>2021-08-17T07:20:51Z</time>
      </trkpt>
      <trkpt lat="44.53332" lon="1.52549">
        <ele>310.64</ele>
        <time>2021-08-17T07:20:59Z</time>
      </trkpt>
      <trkpt lat="44.53332" lon="1.52549">
        <ele>311.12</ele>
        <time>2021-08-17T07:21:00Z</time>
      </trkpt>
      <trkpt lat="44.53328" lon="1.52549">
        <ele>311.6</ele>
        <time>2021-08-17T07:21:07Z</time>
      </trkpt>
      <trkpt lat="44.53325" lon="1.52549">
        <ele>313.53</ele>
        <time>2021-08-17T07:21:15Z</time>
      </trkpt>
      <trkpt lat="44.53321" lon="1.52548">
        <ele>314.97</ele>
        <time>2021-08-17T07:21:25Z</time>
      </trkpt>
      <trkpt lat="44.53319" lon="1.52548">
        <ele>314.97</ele>
        <time>2021-08-17T07:21:35Z</time>
      </trkpt>
      <trkpt lat="44.53318" lon="1.52547">
        <ele>315.93</ele>
        <time>2021-08-17T07:21:45Z</time>
      </trkpt>
      <trkpt lat="44.53314" lon="1.52548">
        <ele>317.37</ele>
        <time>2021-08-17T07:21:53Z</time>
      </trkpt>
      <trkpt lat="44.53308" lon="1.52549">
        <ele>318.81</ele>
        <time>2021-08-17T07:22:03Z</time>
      </trkpt>
      <trkpt lat="44.53305" lon="1.5255">
        <ele>320.26</ele>
        <time>2021-08-17T07:22:10Z</time>
      </trkpt>
      <trkpt lat="44.53297" lon="1.52549">
        <ele>322.18</ele>
        <time>2021-08-17T07:22:22Z</time>
      </trkpt>
      <trkpt lat="44.53293" lon="1.52549">
        <ele>323.14</ele>
        <time>2021-08-17T07:22:30Z</time>
      </trkpt>
      <trkpt lat="44.53287" lon="1.5255">
        <ele>325.06</ele>
        <time>2021-08-17T07:22:41Z</time>
      </trkpt>
      <trkpt lat="44.53281" lon="1.5255">
        <ele>326.02</ele>
        <time>2021-08-17T07:22:50Z</time>
      </trkpt>
      <trkpt lat="44.53274" lon="1.52551">
        <ele>327.47</ele>
        <time>2021-08-17T07:22:59Z</time>
      </trkpt>
      <trkpt lat="44.53266" lon="1.52554">
        <ele>328.91</ele>
        <time>2021-08-17T07:23:10Z</time>
      </trkpt>
      <trkpt lat="44.53258" lon="1.52556">
        <ele>329.87</ele>
        <time>2021-08-17T07:23:19Z</time>
      </trkpt>
      <trkpt lat="44.5325" lon="1.52557">
        <ele>331.31</ele>
        <time>2021-08-17T07:23:28Z</time>
      </trkpt>
      <trkpt lat="44.53245" lon="1.52557">
        <ele>331.31</ele>
        <time>2021-08-17T07:23:36Z</time>
      </trkpt>
      <trkpt lat="44.53243" lon="1.52557">
        <ele>331.31</ele>
        <time>2021-08-17T07:23:39Z</time>
      </trkpt>
      <trkpt lat="44.53227" lon="1.52558">
        <ele>332.27</ele>
        <time>2021-08-17T07:23:48Z</time>
      </trkpt>
      <trkpt lat="44.53212" lon="1.52556">
        <ele>332.27</ele>
        <time>2021-08-17T07:23:55Z</time>
      </trkpt>
      <trkpt lat="44.53198" lon="1.52543">
        <ele>333.23</ele>
        <time>2021-08-17T07:24:02Z</time>
      </trkpt>
      <trkpt lat="44.53179" lon="1.52523">
        <ele>334.68</ele>
        <time>2021-08-17T07:24:13Z</time>
      </trkpt>
      <trkpt lat="44.53161" lon="1.52502">
        <ele>335.16</ele>
        <time>2021-08-17T07:24:22Z</time>
      </trkpt>
      <trkpt lat="44.5313" lon="1.52473">
        <ele>335.64</ele>
        <time>2021-08-17T07:24:33Z</time>
      </trkpt>
      <trkpt lat="44.53109" lon="1.52452">
        <ele>337.08</ele>
        <time>2021-08-17T07:24:41Z</time>
      </trkpt>
      <trkpt lat="44.53091" lon="1.52434">
        <ele>339</ele>
        <time>2021-08-17T07:24:50Z</time>
      </trkpt>
      <trkpt lat="44.53075" lon="1.5242">
        <ele>340.44</ele>
        <time>2021-08-17T07:24:58Z</time>
      </trkpt>
      <trkpt lat="44.53056" lon="1.52403">
        <ele>342.37</ele>
        <time>2021-08-17T07:25:07Z</time>
      </trkpt>
      <trkpt lat="44.53039" lon="1.5239">
        <ele>343.33</ele>
        <time>2021-08-17T07:25:15Z</time>
      </trkpt>
      <trkpt lat="44.53015" lon="1.52373">
        <ele>343.81</ele>
        <time>2021-08-17T07:25:24Z</time>
      </trkpt>
      <trkpt lat="44.52988" lon="1.52354">
        <ele>344.77</ele>
        <time>2021-08-17T07:25:34Z</time>
      </trkpt>
      <trkpt lat="44.52969" lon="1.52339">
        <ele>344.77</ele>
        <time>2021-08-17T07:25:42Z</time>
      </trkpt>
      <trkpt lat="44.52968" lon="1.52337">
        <ele>344.77</ele>
        <time>2021-08-17T07:25:43Z</time>
      </trkpt>
      <trkpt lat="44.52967" lon="1.52335">
        <ele>344.77</ele>
        <time>2021-08-17T07:25:44Z</time>
      </trkpt>
      <trkpt lat="44.52967" lon="1.52333">
        <ele>344.77</ele>
        <time>2021-08-17T07:25:45Z</time>
      </trkpt>
      <trkpt lat="44.52966" lon="1.5233">
        <ele>344.77</ele>
        <time>2021-08-17T07:25:46Z</time>
      </trkpt>
      <trkpt lat="44.52965" lon="1.52328">
        <ele>344.29</ele>
        <time>2021-08-17T07:25:47Z</time>
      </trkpt>
      <trkpt lat="44.52963" lon="1.52326">
        <ele>344.77</ele>
        <time>2021-08-17T07:25:48Z</time>
      </trkpt>
      <trkpt lat="44.52961" lon="1.52325">
        <ele>344.77</ele>
        <time>2021-08-17T07:25:49Z</time>
      </trkpt>
      <trkpt lat="44.5296" lon="1.52324">
        <ele>344.77</ele>
        <time>2021-08-17T07:25:50Z</time>
      </trkpt>
      <trkpt lat="44.52959" lon="1.5232">
        <ele>344.77</ele>
        <time>2021-08-17T07:25:51Z</time>
      </trkpt>
      <trkpt lat="44.52959" lon="1.52317">
        <ele>344.77</ele>
        <time>2021-08-17T07:25:52Z</time>
      </trkpt>
      <trkpt lat="44.5296" lon="1.52313">
        <ele>344.29</ele>
        <time>2021-08-17T07:25:53Z</time>
      </trkpt>
      <trkpt lat="44.52959" lon="1.523">
        <ele>343.33</ele>
        <time>2021-08-17T07:25:56Z</time>
      </trkpt>
      <trkpt lat="44.52958" lon="1.52263">
        <ele>342.37</ele>
        <time>2021-08-17T07:26:03Z</time>
      </trkpt>
      <trkpt lat="44.52957" lon="1.52243">
        <ele>342.37</ele>
        <time>2021-08-17T07:26:06Z</time>
      </trkpt>
      <trkpt lat="44.52958" lon="1.52178">
        <ele>340.44</ele>
        <time>2021-08-17T07:26:14Z</time>
      </trkpt>
      <trkpt lat="44.52952" lon="1.52093">
        <ele>340.44</ele>
        <time>2021-08-17T07:26:24Z</time>
      </trkpt>
      <trkpt lat="44.52942" lon="1.52025">
        <ele>340.44</ele>
        <time>2021-08-17T07:26:33Z</time>
      </trkpt>
      <trkpt lat="44.52933" lon="1.51986">
        <ele>341.41</ele>
        <time>2021-08-17T07:26:39Z</time>
      </trkpt>
      <trkpt lat="44.52927" lon="1.51954">
        <ele>343.33</ele>
        <time>2021-08-17T07:26:46Z</time>
      </trkpt>
      <trkpt lat="44.52927" lon="1.51934">
        <ele>344.29</ele>
        <time>2021-08-17T07:26:53Z</time>
      </trkpt>
      <trkpt lat="44.52931" lon="1.51913">
        <ele>345.73</ele>
        <time>2021-08-17T07:27:01Z</time>
      </trkpt>
      <trkpt lat="44.52935" lon="1.51886">
        <ele>347.65</ele>
        <time>2021-08-17T07:27:10Z</time>
      </trkpt>
      <trkpt lat="44.52936" lon="1.51864">
        <ele>350.06</ele>
        <time>2021-08-17T07:27:18Z</time>
      </trkpt>
      <trkpt lat="44.52936" lon="1.51841">
        <ele>351.5</ele>
        <time>2021-08-17T07:27:26Z</time>
      </trkpt>
      <trkpt lat="44.52931" lon="1.51819">
        <ele>351.5</ele>
        <time>2021-08-17T07:27:33Z</time>
      </trkpt>
      <trkpt lat="44.52928" lon="1.51818">
        <ele>351.98</ele>
        <time>2021-08-17T07:27:34Z</time>
      </trkpt>
      <trkpt lat="44.52926" lon="1.51817">
        <ele>351.5</ele>
        <time>2021-08-17T07:27:35Z</time>
      </trkpt>
      <trkpt lat="44.52923" lon="1.51817">
        <ele>351.5</ele>
        <time>2021-08-17T07:27:36Z</time>
      </trkpt>
      <trkpt lat="44.5292" lon="1.51816">
        <ele>351.5</ele>
        <time>2021-08-17T07:27:37Z</time>
      </trkpt>
      <trkpt lat="44.52898" lon="1.51812">
        <ele>351.5</ele>
        <time>2021-08-17T07:27:43Z</time>
      </trkpt>
      <trkpt lat="44.52873" lon="1.51808">
        <ele>351.5</ele>
        <time>2021-08-17T07:27:49Z</time>
      </trkpt>
      <trkpt lat="44.52869" lon="1.51805">
        <ele>351.5</ele>
        <time>2021-08-17T07:27:50Z</time>
      </trkpt>
      <trkpt lat="44.52868" lon="1.518">
        <ele>351.5</ele>
        <time>2021-08-17T07:27:51Z</time>
      </trkpt>
      <trkpt lat="44.52869" lon="1.51793">
        <ele>351.5</ele>
        <time>2021-08-17T07:27:52Z</time>
      </trkpt>
      <trkpt lat="44.52871" lon="1.51791">
        <ele>351.5</ele>
        <time>2021-08-17T07:27:53Z</time>
      </trkpt>
      <trkpt lat="44.52873" lon="1.51786">
        <ele>351.5</ele>
        <time>2021-08-17T07:27:54Z</time>
      </trkpt>
      <trkpt lat="44.52876" lon="1.51781">
        <ele>351.5</ele>
        <time>2021-08-17T07:27:55Z</time>
      </trkpt>
      <trkpt lat="44.52877" lon="1.51776">
        <ele>351.5</ele>
        <time>2021-08-17T07:27:56Z</time>
      </trkpt>
      <trkpt lat="44.52879" lon="1.51771">
        <ele>351.5</ele>
        <time>2021-08-17T07:27:57Z</time>
      </trkpt>
      <trkpt lat="44.52897" lon="1.51725">
        <ele>351.98</ele>
        <time>2021-08-17T07:28:06Z</time>
      </trkpt>
      <trkpt lat="44.52906" lon="1.51702">
        <ele>353.42</ele>
        <time>2021-08-17T07:28:12Z</time>
      </trkpt>
      <trkpt lat="44.52905" lon="1.51698">
        <ele>353.42</ele>
        <time>2021-08-17T07:28:13Z</time>
      </trkpt>
      <trkpt lat="44.52904" lon="1.51693">
        <ele>353.42</ele>
        <time>2021-08-17T07:28:14Z</time>
      </trkpt>
      <trkpt lat="44.52887" lon="1.51656">
        <ele>354.86</ele>
        <time>2021-08-17T07:28:23Z</time>
      </trkpt>
      <trkpt lat="44.52868" lon="1.51621">
        <ele>356.79</ele>
        <time>2021-08-17T07:28:32Z</time>
      </trkpt>
      <trkpt lat="44.52846" lon="1.51585">
        <ele>356.79</ele>
        <time>2021-08-17T07:28:41Z</time>
      </trkpt>
      <trkpt lat="44.52834" lon="1.51562">
        <ele>356.31</ele>
        <time>2021-08-17T07:28:47Z</time>
      </trkpt>
      <trkpt lat="44.52835" lon="1.51559">
        <ele>356.31</ele>
        <time>2021-08-17T07:28:48Z</time>
      </trkpt>
      <trkpt lat="44.52836" lon="1.51557">
        <ele>356.31</ele>
        <time>2021-08-17T07:28:49Z</time>
      </trkpt>
      <trkpt lat="44.5284" lon="1.51553">
        <ele>356.79</ele>
        <time>2021-08-17T07:28:55Z</time>
      </trkpt>
      <trkpt lat="44.52838" lon="1.51551">
        <ele>356.79</ele>
        <time>2021-08-17T07:29:04Z</time>
      </trkpt>
      <trkpt lat="44.52837" lon="1.51551">
        <ele>356.79</ele>
        <time>2021-08-17T07:29:27Z</time>
      </trkpt>
      <trkpt lat="44.52838" lon="1.51554">
        <ele>356.79</ele>
        <time>2021-08-17T07:29:52Z</time>
      </trkpt>
      <trkpt lat="44.52838" lon="1.51549">
        <ele>356.79</ele>
        <time>2021-08-17T07:30:18Z</time>
      </trkpt>
      <trkpt lat="44.52837" lon="1.51546">
        <ele>356.79</ele>
        <time>2021-08-17T07:30:37Z</time>
      </trkpt>
      <trkpt lat="44.52837" lon="1.51545">
        <ele>356.79</ele>
        <time>2021-08-17T07:31:01Z</time>
      </trkpt>
      <trkpt lat="44.52835" lon="1.51546">
        <ele>356.79</ele>
        <time>2021-08-17T07:31:17Z</time>
      </trkpt>
      <trkpt lat="44.52838" lon="1.51549">
        <ele>356.79</ele>
        <time>2021-08-17T07:31:45Z</time>
      </trkpt>
      <trkpt lat="44.52838" lon="1.5155">
        <ele>356.79</ele>
        <time>2021-08-17T07:32:09Z</time>
      </trkpt>
      <trkpt lat="44.52839" lon="1.51551">
        <ele>356.31</ele>
        <time>2021-08-17T07:32:34Z</time>
      </trkpt>
      <trkpt lat="44.52838" lon="1.51549">
        <ele>356.31</ele>
        <time>2021-08-17T07:33:00Z</time>
      </trkpt>
      <trkpt lat="44.52837" lon="1.51547">
        <ele>356.31</ele>
        <time>2021-08-17T07:33:26Z</time>
      </trkpt>
      <trkpt lat="44.52837" lon="1.51547">
        <ele>356.31</ele>
        <time>2021-08-17T07:33:46Z</time>
      </trkpt>
      <trkpt lat="44.52838" lon="1.5155">
        <ele>356.31</ele>
        <time>2021-08-17T07:34:06Z</time>
      </trkpt>
      <trkpt lat="44.52834" lon="1.51549">
        <ele>356.31</ele>
        <time>2021-08-17T07:34:29Z</time>
      </trkpt>
      <trkpt lat="44.52834" lon="1.51549">
        <ele>356.31</ele>
        <time>2021-08-17T07:34:46Z</time>
      </trkpt>
      <trkpt lat="44.52837" lon="1.51549">
        <ele>356.31</ele>
        <time>2021-08-17T07:35:13Z</time>
      </trkpt>
      <trkpt lat="44.52838" lon="1.51548">
        <ele>356.79</ele>
        <time>2021-08-17T07:35:34Z</time>
      </trkpt>
      <trkpt lat="44.52839" lon="1.51547">
        <ele>356.79</ele>
        <time>2021-08-17T07:35:42Z</time>
      </trkpt>
      <trkpt lat="44.52839" lon="1.51546">
        <ele>356.79</ele>
        <time>2021-08-17T07:35:52Z</time>
      </trkpt>
      <trkpt lat="44.52839" lon="1.51544">
        <ele>356.79</ele>
        <time>2021-08-17T07:35:54Z</time>
      </trkpt>
      <trkpt lat="44.52836" lon="1.51535">
        <ele>356.79</ele>
        <time>2021-08-17T07:35:58Z</time>
      </trkpt>
      <trkpt lat="44.52834" lon="1.51535">
        <ele>356.79</ele>
        <time>2021-08-17T07:35:59Z</time>
      </trkpt>
      <trkpt lat="44.52827" lon="1.51533">
        <ele>356.31</ele>
        <time>2021-08-17T07:36:02Z</time>
      </trkpt>
      <trkpt lat="44.52823" lon="1.51532">
        <ele>355.34</ele>
        <time>2021-08-17T07:36:03Z</time>
      </trkpt>
      <trkpt lat="44.52822" lon="1.51529">
        <ele>355.34</ele>
        <time>2021-08-17T07:36:04Z</time>
      </trkpt>
      <trkpt lat="44.52821" lon="1.51526">
        <ele>355.34</ele>
        <time>2021-08-17T07:36:05Z</time>
      </trkpt>
      <trkpt lat="44.52821" lon="1.51521">
        <ele>354.86</ele>
        <time>2021-08-17T07:36:06Z</time>
      </trkpt>
      <trkpt lat="44.52811" lon="1.51478">
        <ele>353.42</ele>
        <time>2021-08-17T07:36:13Z</time>
      </trkpt>
      <trkpt lat="44.5281" lon="1.51474">
        <ele>353.42</ele>
        <time>2021-08-17T07:36:14Z</time>
      </trkpt>
      <trkpt lat="44.52809" lon="1.51471">
        <ele>353.42</ele>
        <time>2021-08-17T07:36:15Z</time>
      </trkpt>
      <trkpt lat="44.52807" lon="1.51464">
        <ele>352.94</ele>
        <time>2021-08-17T07:36:18Z</time>
      </trkpt>
      <trkpt lat="44.52806" lon="1.51469">
        <ele>352.94</ele>
        <time>2021-08-17T07:36:21Z</time>
      </trkpt>
      <trkpt lat="44.52812" lon="1.51488">
        <ele>352.94</ele>
        <time>2021-08-17T07:36:28Z</time>
      </trkpt>
      <trkpt lat="44.52814" lon="1.51496">
        <ele>354.38</ele>
        <time>2021-08-17T07:36:31Z</time>
      </trkpt>
      <trkpt lat="44.52813" lon="1.51498">
        <ele>354.38</ele>
        <time>2021-08-17T07:36:32Z</time>
      </trkpt>
      <trkpt lat="44.52812" lon="1.515">
        <ele>354.38</ele>
        <time>2021-08-17T07:36:33Z</time>
      </trkpt>
      <trkpt lat="44.528" lon="1.51512">
        <ele>353.9</ele>
        <time>2021-08-17T07:36:40Z</time>
      </trkpt>
      <trkpt lat="44.52795" lon="1.51518">
        <ele>352.94</ele>
        <time>2021-08-17T07:36:42Z</time>
      </trkpt>
      <trkpt lat="44.52781" lon="1.51522">
        <ele>351.5</ele>
        <time>2021-08-17T07:36:46Z</time>
      </trkpt>
      <trkpt lat="44.52776" lon="1.51523">
        <ele>350.54</ele>
        <time>2021-08-17T07:36:47Z</time>
      </trkpt>
      <trkpt lat="44.52772" lon="1.51525">
        <ele>350.06</ele>
        <time>2021-08-17T07:36:48Z</time>
      </trkpt>
      <trkpt lat="44.52767" lon="1.51528">
        <ele>349.58</ele>
        <time>2021-08-17T07:36:49Z</time>
      </trkpt>
      <trkpt lat="44.52763" lon="1.5153">
        <ele>348.62</ele>
        <time>2021-08-17T07:36:50Z</time>
      </trkpt>
      <trkpt lat="44.52744" lon="1.51538">
        <ele>346.21</ele>
        <time>2021-08-17T07:36:55Z</time>
      </trkpt>
      <trkpt lat="44.52728" lon="1.51551">
        <ele>342.85</ele>
        <time>2021-08-17T07:37:00Z</time>
      </trkpt>
      <trkpt lat="44.52709" lon="1.51555">
        <ele>339</ele>
        <time>2021-08-17T07:37:06Z</time>
      </trkpt>
      <trkpt lat="44.527" lon="1.51556">
        <ele>337.56</ele>
        <time>2021-08-17T07:37:08Z</time>
      </trkpt>
      <trkpt lat="44.52685" lon="1.51559">
        <ele>334.68</ele>
        <time>2021-08-17T07:37:12Z</time>
      </trkpt>
      <trkpt lat="44.52672" lon="1.51565">
        <ele>331.79</ele>
        <time>2021-08-17T07:37:16Z</time>
      </trkpt>
      <trkpt lat="44.52659" lon="1.51571">
        <ele>328.43</ele>
        <time>2021-08-17T07:37:21Z</time>
      </trkpt>
      <trkpt lat="44.52646" lon="1.51577">
        <ele>325.06</ele>
        <time>2021-08-17T07:37:26Z</time>
      </trkpt>
      <trkpt lat="44.52634" lon="1.51576">
        <ele>321.7</ele>
        <time>2021-08-17T07:37:31Z</time>
      </trkpt>
      <trkpt lat="44.5263" lon="1.51572">
        <ele>321.22</ele>
        <time>2021-08-17T07:37:33Z</time>
      </trkpt>
      <trkpt lat="44.52624" lon="1.51566">
        <ele>318.33</ele>
        <time>2021-08-17T07:37:37Z</time>
      </trkpt>
      <trkpt lat="44.52623" lon="1.51563">
        <ele>317.37</ele>
        <time>2021-08-17T07:37:38Z</time>
      </trkpt>
      <trkpt lat="44.52622" lon="1.5156">
        <ele>316.89</ele>
        <time>2021-08-17T07:37:39Z</time>
      </trkpt>
      <trkpt lat="44.52622" lon="1.51558">
        <ele>316.41</ele>
        <time>2021-08-17T07:37:40Z</time>
      </trkpt>
      <trkpt lat="44.52622" lon="1.51554">
        <ele>315.93</ele>
        <time>2021-08-17T07:37:41Z</time>
      </trkpt>
      <trkpt lat="44.52621" lon="1.5155">
        <ele>315.45</ele>
        <time>2021-08-17T07:37:42Z</time>
      </trkpt>
      <trkpt lat="44.52621" lon="1.51536">
        <ele>313.53</ele>
        <time>2021-08-17T07:37:46Z</time>
      </trkpt>
      <trkpt lat="44.52622" lon="1.51532">
        <ele>313.53</ele>
        <time>2021-08-17T07:37:47Z</time>
      </trkpt>
      <trkpt lat="44.52622" lon="1.51528">
        <ele>313.05</ele>
        <time>2021-08-17T07:37:48Z</time>
      </trkpt>
      <trkpt lat="44.52623" lon="1.51524">
        <ele>312.09</ele>
        <time>2021-08-17T07:37:49Z</time>
      </trkpt>
      <trkpt lat="44.52624" lon="1.5152">
        <ele>311.6</ele>
        <time>2021-08-17T07:37:50Z</time>
      </trkpt>
      <trkpt lat="44.52625" lon="1.51516">
        <ele>311.12</ele>
        <time>2021-08-17T07:37:51Z</time>
      </trkpt>
      <trkpt lat="44.52626" lon="1.51512">
        <ele>310.16</ele>
        <time>2021-08-17T07:37:52Z</time>
      </trkpt>
      <trkpt lat="44.52627" lon="1.51509">
        <ele>310.16</ele>
        <time>2021-08-17T07:37:53Z</time>
      </trkpt>
      <trkpt lat="44.52628" lon="1.51505">
        <ele>309.68</ele>
        <time>2021-08-17T07:37:54Z</time>
      </trkpt>
      <trkpt lat="44.52635" lon="1.51486">
        <ele>306.8</ele>
        <time>2021-08-17T07:37:59Z</time>
      </trkpt>
      <trkpt lat="44.52641" lon="1.51468">
        <ele>303.91</ele>
        <time>2021-08-17T07:38:04Z</time>
      </trkpt>
      <trkpt lat="44.5264" lon="1.51463">
        <ele>303.43</ele>
        <time>2021-08-17T07:38:05Z</time>
      </trkpt>
      <trkpt lat="44.52638" lon="1.5146">
        <ele>302.95</ele>
        <time>2021-08-17T07:38:06Z</time>
      </trkpt>
      <trkpt lat="44.52635" lon="1.51457">
        <ele>301.99</ele>
        <time>2021-08-17T07:38:07Z</time>
      </trkpt>
      <trkpt lat="44.52632" lon="1.51455">
        <ele>301.51</ele>
        <time>2021-08-17T07:38:08Z</time>
      </trkpt>
      <trkpt lat="44.52629" lon="1.51455">
        <ele>301.03</ele>
        <time>2021-08-17T07:38:09Z</time>
      </trkpt>
      <trkpt lat="44.52625" lon="1.51455">
        <ele>300.07</ele>
        <time>2021-08-17T07:38:10Z</time>
      </trkpt>
      <trkpt lat="44.52611" lon="1.51458">
        <ele>296.22</ele>
        <time>2021-08-17T07:38:14Z</time>
      </trkpt>
      <trkpt lat="44.52606" lon="1.51458">
        <ele>295.26</ele>
        <time>2021-08-17T07:38:15Z</time>
      </trkpt>
      <trkpt lat="44.52602" lon="1.5146">
        <ele>294.3</ele>
        <time>2021-08-17T07:38:16Z</time>
      </trkpt>
      <trkpt lat="44.52598" lon="1.51463">
        <ele>292.86</ele>
        <time>2021-08-17T07:38:17Z</time>
      </trkpt>
      <trkpt lat="44.52593" lon="1.51465">
        <ele>292.86</ele>
        <time>2021-08-17T07:38:18Z</time>
      </trkpt>
      <trkpt lat="44.52589" lon="1.51466">
        <ele>291.9</ele>
        <time>2021-08-17T07:38:19Z</time>
      </trkpt>
      <trkpt lat="44.52585" lon="1.51468">
        <ele>291.42</ele>
        <time>2021-08-17T07:38:20Z</time>
      </trkpt>
      <trkpt lat="44.52582" lon="1.51471">
        <ele>289.97</ele>
        <time>2021-08-17T07:38:21Z</time>
      </trkpt>
      <trkpt lat="44.52564" lon="1.5149">
        <ele>286.13</ele>
        <time>2021-08-17T07:38:26Z</time>
      </trkpt>
      <trkpt lat="44.52562" lon="1.51494">
        <ele>284.69</ele>
        <time>2021-08-17T07:38:27Z</time>
      </trkpt>
      <trkpt lat="44.5256" lon="1.51498">
        <ele>284.21</ele>
        <time>2021-08-17T07:38:28Z</time>
      </trkpt>
      <trkpt lat="44.52546" lon="1.51517">
        <ele>280.84</ele>
        <time>2021-08-17T07:38:33Z</time>
      </trkpt>
      <trkpt lat="44.52531" lon="1.51527">
        <ele>278.44</ele>
        <time>2021-08-17T07:38:38Z</time>
      </trkpt>
      <trkpt lat="44.52518" lon="1.51541">
        <ele>275.07</ele>
        <time>2021-08-17T07:38:42Z</time>
      </trkpt>
      <trkpt lat="44.52514" lon="1.51543">
        <ele>274.11</ele>
        <time>2021-08-17T07:38:43Z</time>
      </trkpt>
      <trkpt lat="44.52511" lon="1.51546">
        <ele>274.11</ele>
        <time>2021-08-17T07:38:44Z</time>
      </trkpt>
      <trkpt lat="44.52508" lon="1.51549">
        <ele>273.63</ele>
        <time>2021-08-17T07:38:45Z</time>
      </trkpt>
      <trkpt lat="44.52506" lon="1.51553">
        <ele>273.15</ele>
        <time>2021-08-17T07:38:46Z</time>
      </trkpt>
      <trkpt lat="44.52504" lon="1.51555">
        <ele>273.15</ele>
        <time>2021-08-17T07:38:47Z</time>
      </trkpt>
      <trkpt lat="44.52502" lon="1.51556">
        <ele>272.67</ele>
        <time>2021-08-17T07:38:48Z</time>
      </trkpt>
      <trkpt lat="44.525" lon="1.51555">
        <ele>272.19</ele>
        <time>2021-08-17T07:38:49Z</time>
      </trkpt>
      <trkpt lat="44.52497" lon="1.51555">
        <ele>272.19</ele>
        <time>2021-08-17T07:38:50Z</time>
      </trkpt>
      <trkpt lat="44.52494" lon="1.51554">
        <ele>271.71</ele>
        <time>2021-08-17T07:38:51Z</time>
      </trkpt>
      <trkpt lat="44.52491" lon="1.51554">
        <ele>271.71</ele>
        <time>2021-08-17T07:38:52Z</time>
      </trkpt>
      <trkpt lat="44.52486" lon="1.51554">
        <ele>270.75</ele>
        <time>2021-08-17T07:38:53Z</time>
      </trkpt>
      <trkpt lat="44.52481" lon="1.51553">
        <ele>270.75</ele>
        <time>2021-08-17T07:38:54Z</time>
      </trkpt>
      <trkpt lat="44.52459" lon="1.5155">
        <ele>268.35</ele>
        <time>2021-08-17T07:38:58Z</time>
      </trkpt>
      <trkpt lat="44.5244" lon="1.51548">
        <ele>267.38</ele>
        <time>2021-08-17T07:39:01Z</time>
      </trkpt>
      <trkpt lat="44.52414" lon="1.51549">
        <ele>266.42</ele>
        <time>2021-08-17T07:39:05Z</time>
      </trkpt>
      <trkpt lat="44.52408" lon="1.51549">
        <ele>266.42</ele>
        <time>2021-08-17T07:39:06Z</time>
      </trkpt>
      <trkpt lat="44.52402" lon="1.51548">
        <ele>266.42</ele>
        <time>2021-08-17T07:39:07Z</time>
      </trkpt>
      <trkpt lat="44.52396" lon="1.51548">
        <ele>264.98</ele>
        <time>2021-08-17T07:39:08Z</time>
      </trkpt>
      <trkpt lat="44.5239" lon="1.5155">
        <ele>264.02</ele>
        <time>2021-08-17T07:39:09Z</time>
      </trkpt>
      <trkpt lat="44.52383" lon="1.51552">
        <ele>263.06</ele>
        <time>2021-08-17T07:39:10Z</time>
      </trkpt>
      <trkpt lat="44.52356" lon="1.51561">
        <ele>260.65</ele>
        <time>2021-08-17T07:39:14Z</time>
      </trkpt>
      <trkpt lat="44.5235" lon="1.51565">
        <ele>259.69</ele>
        <time>2021-08-17T07:39:15Z</time>
      </trkpt>
      <trkpt lat="44.52344" lon="1.51571">
        <ele>258.73</ele>
        <time>2021-08-17T07:39:16Z</time>
      </trkpt>
      <trkpt lat="44.52339" lon="1.51577">
        <ele>259.21</ele>
        <time>2021-08-17T07:39:17Z</time>
      </trkpt>
      <trkpt lat="44.52322" lon="1.51595">
        <ele>257.29</ele>
        <time>2021-08-17T07:39:20Z</time>
      </trkpt>
      <trkpt lat="44.52288" lon="1.51627">
        <ele>254.41</ele>
        <time>2021-08-17T07:39:26Z</time>
      </trkpt>
      <trkpt lat="44.52282" lon="1.51632">
        <ele>253.93</ele>
        <time>2021-08-17T07:39:27Z</time>
      </trkpt>
      <trkpt lat="44.52277" lon="1.51638">
        <ele>253.93</ele>
        <time>2021-08-17T07:39:28Z</time>
      </trkpt>
      <trkpt lat="44.52252" lon="1.51671">
        <ele>252</ele>
        <time>2021-08-17T07:39:34Z</time>
      </trkpt>
      <trkpt lat="44.52247" lon="1.51674">
        <ele>252</ele>
        <time>2021-08-17T07:39:35Z</time>
      </trkpt>
      <trkpt lat="44.52236" lon="1.51681">
        <ele>252</ele>
        <time>2021-08-17T07:39:37Z</time>
      </trkpt>
      <trkpt lat="44.52212" lon="1.51692">
        <ele>251.52</ele>
        <time>2021-08-17T07:39:42Z</time>
      </trkpt>
      <trkpt lat="44.52207" lon="1.51695">
        <ele>251.52</ele>
        <time>2021-08-17T07:39:43Z</time>
      </trkpt>
      <trkpt lat="44.5218" lon="1.51712">
        <ele>252.48</ele>
        <time>2021-08-17T07:39:50Z</time>
      </trkpt>
      <trkpt lat="44.52178" lon="1.51714">
        <ele>252.48</ele>
        <time>2021-08-17T07:39:51Z</time>
      </trkpt>
      <trkpt lat="44.52162" lon="1.51723">
        <ele>254.41</ele>
        <time>2021-08-17T07:39:59Z</time>
      </trkpt>
      <trkpt lat="44.52143" lon="1.51722">
        <ele>252</ele>
        <time>2021-08-17T07:40:05Z</time>
      </trkpt>
      <trkpt lat="44.52118" lon="1.51725">
        <ele>249.6</ele>
        <time>2021-08-17T07:40:10Z</time>
      </trkpt>
      <trkpt lat="44.5211" lon="1.51727">
        <ele>248.16</ele>
        <time>2021-08-17T07:40:12Z</time>
      </trkpt>
      <trkpt lat="44.52105" lon="1.51728">
        <ele>247.2</ele>
        <time>2021-08-17T07:40:13Z</time>
      </trkpt>
      <trkpt lat="44.52101" lon="1.51729">
        <ele>246.72</ele>
        <time>2021-08-17T07:40:14Z</time>
      </trkpt>
      <trkpt lat="44.52096" lon="1.51731">
        <ele>245.75</ele>
        <time>2021-08-17T07:40:15Z</time>
      </trkpt>
      <trkpt lat="44.5209" lon="1.51735">
        <ele>244.79</ele>
        <time>2021-08-17T07:40:16Z</time>
      </trkpt>
      <trkpt lat="44.52051" lon="1.51757">
        <ele>241.43</ele>
        <time>2021-08-17T07:40:22Z</time>
      </trkpt>
      <trkpt lat="44.52044" lon="1.51762">
        <ele>241.43</ele>
        <time>2021-08-17T07:40:23Z</time>
      </trkpt>
      <trkpt lat="44.51997" lon="1.518">
        <ele>239.51</ele>
        <time>2021-08-17T07:40:30Z</time>
      </trkpt>
      <trkpt lat="44.5195" lon="1.51823">
        <ele>237.1</ele>
        <time>2021-08-17T07:40:37Z</time>
      </trkpt>
      <trkpt lat="44.51921" lon="1.51833">
        <ele>236.62</ele>
        <time>2021-08-17T07:40:41Z</time>
      </trkpt>
      <trkpt lat="44.51915" lon="1.51831">
        <ele>235.66</ele>
        <time>2021-08-17T07:40:42Z</time>
      </trkpt>
      <trkpt lat="44.51885" lon="1.51822">
        <ele>232.78</ele>
        <time>2021-08-17T07:40:46Z</time>
      </trkpt>
      <trkpt lat="44.51837" lon="1.51817">
        <ele>230.37</ele>
        <time>2021-08-17T07:40:52Z</time>
      </trkpt>
      <trkpt lat="44.51796" lon="1.51818">
        <ele>227.97</ele>
        <time>2021-08-17T07:40:58Z</time>
      </trkpt>
      <trkpt lat="44.51789" lon="1.5182">
        <ele>227.01</ele>
        <time>2021-08-17T07:40:59Z</time>
      </trkpt>
      <trkpt lat="44.51784" lon="1.51823">
        <ele>227.01</ele>
        <time>2021-08-17T07:41:00Z</time>
      </trkpt>
      <trkpt lat="44.51779" lon="1.51827">
        <ele>226.05</ele>
        <time>2021-08-17T07:41:01Z</time>
      </trkpt>
      <trkpt lat="44.51774" lon="1.51832">
        <ele>226.05</ele>
        <time>2021-08-17T07:41:02Z</time>
      </trkpt>
      <trkpt lat="44.51768" lon="1.51837">
        <ele>226.05</ele>
        <time>2021-08-17T07:41:03Z</time>
      </trkpt>
      <trkpt lat="44.5173" lon="1.51869">
        <ele>224.12</ele>
        <time>2021-08-17T07:41:10Z</time>
      </trkpt>
      <trkpt lat="44.517" lon="1.51897">
        <ele>223.16</ele>
        <time>2021-08-17T07:41:16Z</time>
      </trkpt>
      <trkpt lat="44.51697" lon="1.51901">
        <ele>223.16</ele>
        <time>2021-08-17T07:41:17Z</time>
      </trkpt>
      <trkpt lat="44.51693" lon="1.51907">
        <ele>223.16</ele>
        <time>2021-08-17T07:41:18Z</time>
      </trkpt>
      <trkpt lat="44.5169" lon="1.51912">
        <ele>222.68</ele>
        <time>2021-08-17T07:41:19Z</time>
      </trkpt>
      <trkpt lat="44.51688" lon="1.51914">
        <ele>222.68</ele>
        <time>2021-08-17T07:41:20Z</time>
      </trkpt>
      <trkpt lat="44.51687" lon="1.51915">
        <ele>222.68</ele>
        <time>2021-08-17T07:41:26Z</time>
      </trkpt>
      <trkpt lat="44.51686" lon="1.51915">
        <ele>222.68</ele>
        <time>2021-08-17T07:41:28Z</time>
      </trkpt>
      <trkpt lat="44.51684" lon="1.51914">
        <ele>222.68</ele>
        <time>2021-08-17T07:41:29Z</time>
      </trkpt>
      <trkpt lat="44.51671" lon="1.51907">
        <ele>222.2</ele>
        <time>2021-08-17T07:41:35Z</time>
      </trkpt>
      <trkpt lat="44.51669" lon="1.51906">
        <ele>222.2</ele>
        <time>2021-08-17T07:41:36Z</time>
      </trkpt>
      <trkpt lat="44.51668" lon="1.51906">
        <ele>222.2</ele>
        <time>2021-08-17T07:41:37Z</time>
      </trkpt>
      <trkpt lat="44.51666" lon="1.51906">
        <ele>222.2</ele>
        <time>2021-08-17T07:41:38Z</time>
      </trkpt>
      <trkpt lat="44.51665" lon="1.51907">
        <ele>222.2</ele>
        <time>2021-08-17T07:41:39Z</time>
      </trkpt>
      <trkpt lat="44.51663" lon="1.51908">
        <ele>222.2</ele>
        <time>2021-08-17T07:41:40Z</time>
      </trkpt>
      <trkpt lat="44.51661" lon="1.51909">
        <ele>222.2</ele>
        <time>2021-08-17T07:41:41Z</time>
      </trkpt>
      <trkpt lat="44.51646" lon="1.51918">
        <ele>222.2</ele>
        <time>2021-08-17T07:41:48Z</time>
      </trkpt>
      <trkpt lat="44.51622" lon="1.51931">
        <ele>222.2</ele>
        <time>2021-08-17T07:41:56Z</time>
      </trkpt>
      <trkpt lat="44.51606" lon="1.51946">
        <ele>222.2</ele>
        <time>2021-08-17T07:42:02Z</time>
      </trkpt>
      <trkpt lat="44.51589" lon="1.51956">
        <ele>221.72</ele>
        <time>2021-08-17T07:42:06Z</time>
      </trkpt>
      <trkpt lat="44.51585" lon="1.51957">
        <ele>221.24</ele>
        <time>2021-08-17T07:42:07Z</time>
      </trkpt>
      <trkpt lat="44.51575" lon="1.5196">
        <ele>220.28</ele>
        <time>2021-08-17T07:42:09Z</time>
      </trkpt>
      <trkpt lat="44.51548" lon="1.5196">
        <ele>220.28</ele>
        <time>2021-08-17T07:42:15Z</time>
      </trkpt>
      <trkpt lat="44.51524" lon="1.5196">
        <ele>220.28</ele>
        <time>2021-08-17T07:42:22Z</time>
      </trkpt>
      <trkpt lat="44.51495" lon="1.51965">
        <ele>219.8</ele>
        <time>2021-08-17T07:42:29Z</time>
      </trkpt>
      <trkpt lat="44.5149" lon="1.51967">
        <ele>219.32</ele>
        <time>2021-08-17T07:42:30Z</time>
      </trkpt>
      <trkpt lat="44.51485" lon="1.51969">
        <ele>218.84</ele>
        <time>2021-08-17T07:42:31Z</time>
      </trkpt>
      <trkpt lat="44.5148" lon="1.51972">
        <ele>217.88</ele>
        <time>2021-08-17T07:42:32Z</time>
      </trkpt>
      <trkpt lat="44.51476" lon="1.51975">
        <ele>216.91</ele>
        <time>2021-08-17T07:42:33Z</time>
      </trkpt>
      <trkpt lat="44.51474" lon="1.51979">
        <ele>216.43</ele>
        <time>2021-08-17T07:42:34Z</time>
      </trkpt>
      <trkpt lat="44.51472" lon="1.51981">
        <ele>216.43</ele>
        <time>2021-08-17T07:42:35Z</time>
      </trkpt>
      <trkpt lat="44.51471" lon="1.51983">
        <ele>216.43</ele>
        <time>2021-08-17T07:42:36Z</time>
      </trkpt>
      <trkpt lat="44.51466" lon="1.51985">
        <ele>216.43</ele>
        <time>2021-08-17T07:42:40Z</time>
      </trkpt>
      <trkpt lat="44.51464" lon="1.51986">
        <ele>216.43</ele>
        <time>2021-08-17T07:42:41Z</time>
      </trkpt>
      <trkpt lat="44.51462" lon="1.51986">
        <ele>216.43</ele>
        <time>2021-08-17T07:42:42Z</time>
      </trkpt>
      <trkpt lat="44.5146" lon="1.51986">
        <ele>216.43</ele>
        <time>2021-08-17T07:42:43Z</time>
      </trkpt>
      <trkpt lat="44.51458" lon="1.51986">
        <ele>217.4</ele>
        <time>2021-08-17T07:42:44Z</time>
      </trkpt>
      <trkpt lat="44.51452" lon="1.51985">
        <ele>217.4</ele>
        <time>2021-08-17T07:42:46Z</time>
      </trkpt>
      <trkpt lat="44.5145" lon="1.51985">
        <ele>217.4</ele>
        <time>2021-08-17T07:42:47Z</time>
      </trkpt>
      <trkpt lat="44.51437" lon="1.51984">
        <ele>218.36</ele>
        <time>2021-08-17T07:42:54Z</time>
      </trkpt>
      <trkpt lat="44.51424" lon="1.51982">
        <ele>219.32</ele>
        <time>2021-08-17T07:43:01Z</time>
      </trkpt>
      <trkpt lat="44.51411" lon="1.51977">
        <ele>217.4</ele>
        <time>2021-08-17T07:43:05Z</time>
      </trkpt>
      <trkpt lat="44.51391" lon="1.51966">
        <ele>216.91</ele>
        <time>2021-08-17T07:43:11Z</time>
      </trkpt>
      <trkpt lat="44.51369" lon="1.51955">
        <ele>216.43</ele>
        <time>2021-08-17T07:43:18Z</time>
      </trkpt>
      <trkpt lat="44.5134" lon="1.5194">
        <ele>214.51</ele>
        <time>2021-08-17T07:43:25Z</time>
      </trkpt>
      <trkpt lat="44.51325" lon="1.51941">
        <ele>215.95</ele>
        <time>2021-08-17T07:43:30Z</time>
      </trkpt>
      <trkpt lat="44.51306" lon="1.51944">
        <ele>214.51</ele>
        <time>2021-08-17T07:43:36Z</time>
      </trkpt>
      <trkpt lat="44.51275" lon="1.51952">
        <ele>213.55</ele>
        <time>2021-08-17T07:43:43Z</time>
      </trkpt>
      <trkpt lat="44.51247" lon="1.51955">
        <ele>213.55</ele>
        <time>2021-08-17T07:43:50Z</time>
      </trkpt>
      <trkpt lat="44.51215" lon="1.51956">
        <ele>212.11</ele>
        <time>2021-08-17T07:43:58Z</time>
      </trkpt>
      <trkpt lat="44.51196" lon="1.51946">
        <ele>212.11</ele>
        <time>2021-08-17T07:44:03Z</time>
      </trkpt>
      <trkpt lat="44.51166" lon="1.51927">
        <ele>211.63</ele>
        <time>2021-08-17T07:44:11Z</time>
      </trkpt>
      <trkpt lat="44.5114" lon="1.51913">
        <ele>211.63</ele>
        <time>2021-08-17T07:44:18Z</time>
      </trkpt>
      <trkpt lat="44.51114" lon="1.51901">
        <ele>210.67</ele>
        <time>2021-08-17T07:44:23Z</time>
      </trkpt>
      <trkpt lat="44.511" lon="1.51889">
        <ele>211.63</ele>
        <time>2021-08-17T07:44:27Z</time>
      </trkpt>
      <trkpt lat="44.5109" lon="1.51883">
        <ele>213.55</ele>
        <time>2021-08-17T07:44:33Z</time>
      </trkpt>
      <trkpt lat="44.51078" lon="1.51872">
        <ele>213.55</ele>
        <time>2021-08-17T07:44:39Z</time>
      </trkpt>
      <trkpt lat="44.51071" lon="1.51868">
        <ele>213.55</ele>
        <time>2021-08-17T07:44:41Z</time>
      </trkpt>
      <trkpt lat="44.51069" lon="1.51865">
        <ele>213.55</ele>
        <time>2021-08-17T07:44:42Z</time>
      </trkpt>
      <trkpt lat="44.51066" lon="1.51862">
        <ele>213.55</ele>
        <time>2021-08-17T07:44:43Z</time>
      </trkpt>
      <trkpt lat="44.51063" lon="1.51859">
        <ele>213.55</ele>
        <time>2021-08-17T07:44:44Z</time>
      </trkpt>
      <trkpt lat="44.5106" lon="1.51855">
        <ele>211.63</ele>
        <time>2021-08-17T07:44:45Z</time>
      </trkpt>
      <trkpt lat="44.51057" lon="1.51851">
        <ele>211.63</ele>
        <time>2021-08-17T07:44:46Z</time>
      </trkpt>
      <trkpt lat="44.51048" lon="1.51842">
        <ele>211.63</ele>
        <time>2021-08-17T07:44:50Z</time>
      </trkpt>
      <trkpt lat="44.51038" lon="1.51833">
        <ele>210.67</ele>
        <time>2021-08-17T07:44:53Z</time>
      </trkpt>
      <trkpt lat="44.51019" lon="1.51815">
        <ele>210.67</ele>
        <time>2021-08-17T07:44:59Z</time>
      </trkpt>
      <trkpt lat="44.51009" lon="1.51809">
        <ele>210.67</ele>
        <time>2021-08-17T07:45:04Z</time>
      </trkpt>
      <trkpt lat="44.51008" lon="1.51807">
        <ele>210.67</ele>
        <time>2021-08-17T07:45:05Z</time>
      </trkpt>
      <trkpt lat="44.51007" lon="1.51805">
        <ele>210.67</ele>
        <time>2021-08-17T07:45:06Z</time>
      </trkpt>
      <trkpt lat="44.51005" lon="1.51803">
        <ele>210.67</ele>
        <time>2021-08-17T07:45:07Z</time>
      </trkpt>
      <trkpt lat="44.50995" lon="1.51795">
        <ele>210.67</ele>
        <time>2021-08-17T07:45:11Z</time>
      </trkpt>
      <trkpt lat="44.50993" lon="1.51793">
        <ele>210.67</ele>
        <time>2021-08-17T07:45:12Z</time>
      </trkpt>
      <trkpt lat="44.50971" lon="1.51775">
        <ele>210.19</ele>
        <time>2021-08-17T07:45:19Z</time>
      </trkpt>
      <trkpt lat="44.50945" lon="1.51761">
        <ele>207.78</ele>
        <time>2021-08-17T07:45:25Z</time>
      </trkpt>
      <trkpt lat="44.50941" lon="1.51757">
        <ele>207.78</ele>
        <time>2021-08-17T07:45:26Z</time>
      </trkpt>
      <trkpt lat="44.50938" lon="1.51753">
        <ele>207.78</ele>
        <time>2021-08-17T07:45:27Z</time>
      </trkpt>
      <trkpt lat="44.50934" lon="1.51749">
        <ele>207.3</ele>
        <time>2021-08-17T07:45:28Z</time>
      </trkpt>
      <trkpt lat="44.50931" lon="1.51745">
        <ele>206.82</ele>
        <time>2021-08-17T07:45:29Z</time>
      </trkpt>
      <trkpt lat="44.50928" lon="1.51742">
        <ele>206.82</ele>
        <time>2021-08-17T07:45:30Z</time>
      </trkpt>
      <trkpt lat="44.50915" lon="1.51725">
        <ele>207.3</ele>
        <time>2021-08-17T07:45:35Z</time>
      </trkpt>
      <trkpt lat="44.509" lon="1.51707">
        <ele>207.3</ele>
        <time>2021-08-17T07:45:41Z</time>
      </trkpt>
      <trkpt lat="44.50892" lon="1.51695">
        <ele>207.3</ele>
        <time>2021-08-17T07:45:45Z</time>
      </trkpt>
      <trkpt lat="44.50889" lon="1.51692">
        <ele>207.3</ele>
        <time>2021-08-17T07:45:46Z</time>
      </trkpt>
      <trkpt lat="44.50885" lon="1.51688">
        <ele>206.82</ele>
        <time>2021-08-17T07:45:47Z</time>
      </trkpt>
      <trkpt lat="44.50882" lon="1.51684">
        <ele>206.34</ele>
        <time>2021-08-17T07:45:48Z</time>
      </trkpt>
      <trkpt lat="44.50879" lon="1.5168">
        <ele>206.34</ele>
        <time>2021-08-17T07:45:49Z</time>
      </trkpt>
      <trkpt lat="44.50876" lon="1.51676">
        <ele>206.34</ele>
        <time>2021-08-17T07:45:50Z</time>
      </trkpt>
      <trkpt lat="44.50865" lon="1.51657">
        <ele>205.86</ele>
        <time>2021-08-17T07:45:55Z</time>
      </trkpt>
      <trkpt lat="44.50861" lon="1.51646">
        <ele>205.86</ele>
        <time>2021-08-17T07:45:59Z</time>
      </trkpt>
      <trkpt lat="44.50859" lon="1.51643">
        <ele>205.86</ele>
        <time>2021-08-17T07:46:00Z</time>
      </trkpt>
      <trkpt lat="44.50857" lon="1.5164">
        <ele>205.86</ele>
        <time>2021-08-17T07:46:01Z</time>
      </trkpt>
      <trkpt lat="44.50854" lon="1.51637">
        <ele>205.86</ele>
        <time>2021-08-17T07:46:02Z</time>
      </trkpt>
      <trkpt lat="44.50852" lon="1.51635">
        <ele>205.86</ele>
        <time>2021-08-17T07:46:03Z</time>
      </trkpt>
      <trkpt lat="44.50831" lon="1.51609">
        <ele>207.3</ele>
        <time>2021-08-17T07:46:10Z</time>
      </trkpt>
      <trkpt lat="44.50818" lon="1.51598">
        <ele>208.26</ele>
        <time>2021-08-17T07:46:17Z</time>
      </trkpt>
      <trkpt lat="44.50813" lon="1.51598">
        <ele>208.26</ele>
        <time>2021-08-17T07:46:19Z</time>
      </trkpt>
      <trkpt lat="44.50785" lon="1.51595">
        <ele>203.94</ele>
        <time>2021-08-17T07:46:24Z</time>
      </trkpt>
      <trkpt lat="44.50773" lon="1.51591">
        <ele>203.94</ele>
        <time>2021-08-17T07:46:28Z</time>
      </trkpt>
      <trkpt lat="44.50765" lon="1.51587">
        <ele>203.94</ele>
        <time>2021-08-17T07:46:35Z</time>
      </trkpt>
      <trkpt lat="44.50746" lon="1.51575">
        <ele>204.42</ele>
        <time>2021-08-17T07:46:42Z</time>
      </trkpt>
      <trkpt lat="44.50728" lon="1.51559">
        <ele>205.38</ele>
        <time>2021-08-17T07:46:48Z</time>
      </trkpt>
      <trkpt lat="44.50725" lon="1.51556">
        <ele>205.38</ele>
        <time>2021-08-17T07:46:49Z</time>
      </trkpt>
      <trkpt lat="44.50704" lon="1.51534">
        <ele>202.98</ele>
        <time>2021-08-17T07:46:55Z</time>
      </trkpt>
      <trkpt lat="44.50696" lon="1.51525">
        <ele>202.01</ele>
        <time>2021-08-17T07:46:57Z</time>
      </trkpt>
      <trkpt lat="44.50692" lon="1.5152">
        <ele>202.01</ele>
        <time>2021-08-17T07:46:58Z</time>
      </trkpt>
      <trkpt lat="44.50687" lon="1.51515">
        <ele>202.01</ele>
        <time>2021-08-17T07:46:59Z</time>
      </trkpt>
      <trkpt lat="44.50684" lon="1.5151">
        <ele>202.01</ele>
        <time>2021-08-17T07:47:00Z</time>
      </trkpt>
      <trkpt lat="44.50681" lon="1.51504">
        <ele>202.01</ele>
        <time>2021-08-17T07:47:01Z</time>
      </trkpt>
      <trkpt lat="44.50676" lon="1.51493">
        <ele>202.01</ele>
        <time>2021-08-17T07:47:03Z</time>
      </trkpt>
      <trkpt lat="44.50674" lon="1.51487">
        <ele>202.01</ele>
        <time>2021-08-17T07:47:04Z</time>
      </trkpt>
      <trkpt lat="44.50659" lon="1.51444">
        <ele>202.01</ele>
        <time>2021-08-17T07:47:12Z</time>
      </trkpt>
      <trkpt lat="44.50655" lon="1.51426">
        <ele>202.01</ele>
        <time>2021-08-17T07:47:17Z</time>
      </trkpt>
      <trkpt lat="44.50655" lon="1.51423">
        <ele>202.01</ele>
        <time>2021-08-17T07:47:18Z</time>
      </trkpt>
      <trkpt lat="44.50654" lon="1.51418">
        <ele>202.98</ele>
        <time>2021-08-17T07:47:19Z</time>
      </trkpt>
      <trkpt lat="44.50653" lon="1.51413">
        <ele>203.46</ele>
        <time>2021-08-17T07:47:20Z</time>
      </trkpt>
      <trkpt lat="44.50651" lon="1.51407">
        <ele>203.46</ele>
        <time>2021-08-17T07:47:21Z</time>
      </trkpt>
      <trkpt lat="44.50649" lon="1.51401">
        <ele>203.46</ele>
        <time>2021-08-17T07:47:22Z</time>
      </trkpt>
      <trkpt lat="44.50647" lon="1.51395">
        <ele>203.46</ele>
        <time>2021-08-17T07:47:23Z</time>
      </trkpt>
      <trkpt lat="44.50646" lon="1.51389">
        <ele>203.46</ele>
        <time>2021-08-17T07:47:24Z</time>
      </trkpt>
      <trkpt lat="44.50635" lon="1.51355">
        <ele>203.46</ele>
        <time>2021-08-17T07:47:31Z</time>
      </trkpt>
      <trkpt lat="44.50629" lon="1.51338">
        <ele>201.53</ele>
        <time>2021-08-17T07:47:34Z</time>
      </trkpt>
      <trkpt lat="44.50626" lon="1.51331">
        <ele>201.53</ele>
        <time>2021-08-17T07:47:35Z</time>
      </trkpt>
      <trkpt lat="44.50624" lon="1.51325">
        <ele>201.05</ele>
        <time>2021-08-17T07:47:36Z</time>
      </trkpt>
      <trkpt lat="44.50617" lon="1.51298">
        <ele>200.57</ele>
        <time>2021-08-17T07:47:40Z</time>
      </trkpt>
      <trkpt lat="44.50614" lon="1.51284">
        <ele>200.09</ele>
        <time>2021-08-17T07:47:42Z</time>
      </trkpt>
      <trkpt lat="44.50613" lon="1.5127">
        <ele>200.09</ele>
        <time>2021-08-17T07:47:44Z</time>
      </trkpt>
      <trkpt lat="44.50611" lon="1.51263">
        <ele>199.13</ele>
        <time>2021-08-17T07:47:45Z</time>
      </trkpt>
      <trkpt lat="44.50608" lon="1.51257">
        <ele>199.13</ele>
        <time>2021-08-17T07:47:46Z</time>
      </trkpt>
      <trkpt lat="44.50605" lon="1.51252">
        <ele>199.13</ele>
        <time>2021-08-17T07:47:47Z</time>
      </trkpt>
      <trkpt lat="44.50601" lon="1.51247">
        <ele>199.13</ele>
        <time>2021-08-17T07:47:48Z</time>
      </trkpt>
      <trkpt lat="44.50597" lon="1.51244">
        <ele>199.13</ele>
        <time>2021-08-17T07:47:49Z</time>
      </trkpt>
      <trkpt lat="44.50593" lon="1.51241">
        <ele>199.13</ele>
        <time>2021-08-17T07:47:50Z</time>
      </trkpt>
      <trkpt lat="44.50589" lon="1.51239">
        <ele>199.13</ele>
        <time>2021-08-17T07:47:51Z</time>
      </trkpt>
      <trkpt lat="44.50585" lon="1.51237">
        <ele>199.13</ele>
        <time>2021-08-17T07:47:52Z</time>
      </trkpt>
      <trkpt lat="44.50582" lon="1.51236">
        <ele>199.13</ele>
        <time>2021-08-17T07:47:53Z</time>
      </trkpt>
      <trkpt lat="44.50578" lon="1.51234">
        <ele>199.13</ele>
        <time>2021-08-17T07:47:54Z</time>
      </trkpt>
      <trkpt lat="44.50575" lon="1.51232">
        <ele>199.13</ele>
        <time>2021-08-17T07:47:55Z</time>
      </trkpt>
      <trkpt lat="44.50572" lon="1.51229">
        <ele>199.13</ele>
        <time>2021-08-17T07:47:56Z</time>
      </trkpt>
      <trkpt lat="44.50557" lon="1.51216">
        <ele>199.13</ele>
        <time>2021-08-17T07:48:03Z</time>
      </trkpt>
      <trkpt lat="44.50547" lon="1.51209">
        <ele>201.05</ele>
        <time>2021-08-17T07:48:10Z</time>
      </trkpt>
      <trkpt lat="44.50546" lon="1.51207">
        <ele>201.05</ele>
        <time>2021-08-17T07:48:25Z</time>
      </trkpt>
      <trkpt lat="44.50548" lon="1.51207">
        <ele>201.05</ele>
        <time>2021-08-17T07:48:31Z</time>
      </trkpt>
      <trkpt lat="44.50548" lon="1.51201">
        <ele>179.42</ele>
        <time>2021-08-17T07:48:51Z</time>
      </trkpt>
      <trkpt lat="44.50548" lon="1.51198">
        <ele>178.94</ele>
        <time>2021-08-17T07:49:07Z</time>
      </trkpt>
      <trkpt lat="44.5055" lon="1.51199">
        <ele>180.87</ele>
        <time>2021-08-17T07:49:20Z</time>
      </trkpt>
      <trkpt lat="44.5055" lon="1.51197">
        <ele>184.23</ele>
        <time>2021-08-17T07:49:29Z</time>
      </trkpt>
      <trkpt lat="44.50547" lon="1.51198">
        <ele>187.11</ele>
        <time>2021-08-17T07:49:45Z</time>
      </trkpt>
      <trkpt lat="44.50547" lon="1.512">
        <ele>187.59</ele>
        <time>2021-08-17T07:49:55Z</time>
      </trkpt>
      <trkpt lat="44.50551" lon="1.51207">
        <ele>187.59</ele>
        <time>2021-08-17T07:49:58Z</time>
      </trkpt>
      <trkpt lat="44.50551" lon="1.5121">
        <ele>187.59</ele>
        <time>2021-08-17T07:49:59Z</time>
      </trkpt>
      <trkpt lat="44.50549" lon="1.51211">
        <ele>187.59</ele>
        <time>2021-08-17T07:50:00Z</time>
      </trkpt>
      <trkpt lat="44.50547" lon="1.51211">
        <ele>186.63</ele>
        <time>2021-08-17T07:50:01Z</time>
      </trkpt>
      <trkpt lat="44.50545" lon="1.5121">
        <ele>186.63</ele>
        <time>2021-08-17T07:50:02Z</time>
      </trkpt>
      <trkpt lat="44.50542" lon="1.51209">
        <ele>186.63</ele>
        <time>2021-08-17T07:50:03Z</time>
      </trkpt>
      <trkpt lat="44.50521" lon="1.51203">
        <ele>185.67</ele>
        <time>2021-08-17T07:50:10Z</time>
      </trkpt>
      <trkpt lat="44.50484" lon="1.51193">
        <ele>184.71</ele>
        <time>2021-08-17T07:50:18Z</time>
      </trkpt>
      <trkpt lat="44.50475" lon="1.51189">
        <ele>184.71</ele>
        <time>2021-08-17T07:50:20Z</time>
      </trkpt>
      <trkpt lat="44.50464" lon="1.5118">
        <ele>184.71</ele>
        <time>2021-08-17T07:50:23Z</time>
      </trkpt>
      <trkpt lat="44.50461" lon="1.51176">
        <ele>184.71</ele>
        <time>2021-08-17T07:50:24Z</time>
      </trkpt>
      <trkpt lat="44.50458" lon="1.51172">
        <ele>184.71</ele>
        <time>2021-08-17T07:50:25Z</time>
      </trkpt>
      <trkpt lat="44.50455" lon="1.51169">
        <ele>184.71</ele>
        <time>2021-08-17T07:50:26Z</time>
      </trkpt>
      <trkpt lat="44.50452" lon="1.51165">
        <ele>184.71</ele>
        <time>2021-08-17T07:50:27Z</time>
      </trkpt>
      <trkpt lat="44.5043" lon="1.51144">
        <ele>184.71</ele>
        <time>2021-08-17T07:50:33Z</time>
      </trkpt>
      <trkpt lat="44.50388" lon="1.51118">
        <ele>184.23</ele>
        <time>2021-08-17T07:50:42Z</time>
      </trkpt>
      <trkpt lat="44.50355" lon="1.51096">
        <ele>184.23</ele>
        <time>2021-08-17T07:50:50Z</time>
      </trkpt>
      <trkpt lat="44.5035" lon="1.51093">
        <ele>185.67</ele>
        <time>2021-08-17T07:50:52Z</time>
      </trkpt>
      <trkpt lat="44.50332" lon="1.5108">
        <ele>186.63</ele>
        <time>2021-08-17T07:51:00Z</time>
      </trkpt>
      <trkpt lat="44.50318" lon="1.51063">
        <ele>185.67</ele>
        <time>2021-08-17T07:51:05Z</time>
      </trkpt>
      <trkpt lat="44.50311" lon="1.51052">
        <ele>187.11</ele>
        <time>2021-08-17T07:51:11Z</time>
      </trkpt>
      <trkpt lat="44.5031" lon="1.51051">
        <ele>187.11</ele>
        <time>2021-08-17T07:51:12Z</time>
      </trkpt>
      <trkpt lat="44.50309" lon="1.5105">
        <ele>187.11</ele>
        <time>2021-08-17T07:51:13Z</time>
      </trkpt>
      <trkpt lat="44.50307" lon="1.51049">
        <ele>187.59</ele>
        <time>2021-08-17T07:51:14Z</time>
      </trkpt>
      <trkpt lat="44.50305" lon="1.51048">
        <ele>188.08</ele>
        <time>2021-08-17T07:51:15Z</time>
      </trkpt>
      <trkpt lat="44.50303" lon="1.51047">
        <ele>188.08</ele>
        <time>2021-08-17T07:51:16Z</time>
      </trkpt>
      <trkpt lat="44.503" lon="1.51048">
        <ele>188.08</ele>
        <time>2021-08-17T07:51:17Z</time>
      </trkpt>
      <trkpt lat="44.50298" lon="1.51049">
        <ele>188.08</ele>
        <time>2021-08-17T07:51:18Z</time>
      </trkpt>
      <trkpt lat="44.50295" lon="1.51051">
        <ele>188.08</ele>
        <time>2021-08-17T07:51:19Z</time>
      </trkpt>
      <trkpt lat="44.50293" lon="1.51053">
        <ele>188.08</ele>
        <time>2021-08-17T07:51:20Z</time>
      </trkpt>
      <trkpt lat="44.50272" lon="1.51077">
        <ele>185.67</ele>
        <time>2021-08-17T07:51:26Z</time>
      </trkpt>
      <trkpt lat="44.50264" lon="1.51089">
        <ele>184.71</ele>
        <time>2021-08-17T07:51:28Z</time>
      </trkpt>
      <trkpt lat="44.50257" lon="1.51102">
        <ele>183.75</ele>
        <time>2021-08-17T07:51:30Z</time>
      </trkpt>
      <trkpt lat="44.50253" lon="1.51108">
        <ele>183.27</ele>
        <time>2021-08-17T07:51:31Z</time>
      </trkpt>
      <trkpt lat="44.50248" lon="1.51112">
        <ele>183.27</ele>
        <time>2021-08-17T07:51:32Z</time>
      </trkpt>
      <trkpt lat="44.50244" lon="1.51113">
        <ele>183.27</ele>
        <time>2021-08-17T07:51:33Z</time>
      </trkpt>
      <trkpt lat="44.50239" lon="1.51114">
        <ele>182.79</ele>
        <time>2021-08-17T07:51:34Z</time>
      </trkpt>
      <trkpt lat="44.50234" lon="1.51113">
        <ele>182.79</ele>
        <time>2021-08-17T07:51:35Z</time>
      </trkpt>
      <trkpt lat="44.50224" lon="1.51113">
        <ele>181.35</ele>
        <time>2021-08-17T07:51:37Z</time>
      </trkpt>
      <trkpt lat="44.50218" lon="1.51113">
        <ele>180.38</ele>
        <time>2021-08-17T07:51:38Z</time>
      </trkpt>
      <trkpt lat="44.50208" lon="1.51114">
        <ele>179.9</ele>
        <time>2021-08-17T07:51:40Z</time>
      </trkpt>
      <trkpt lat="44.50204" lon="1.51118">
        <ele>178.94</ele>
        <time>2021-08-17T07:51:41Z</time>
      </trkpt>
      <trkpt lat="44.50202" lon="1.51125">
        <ele>178.46</ele>
        <time>2021-08-17T07:51:42Z</time>
      </trkpt>
      <trkpt lat="44.50201" lon="1.51132">
        <ele>177.98</ele>
        <time>2021-08-17T07:51:43Z</time>
      </trkpt>
      <trkpt lat="44.50199" lon="1.51139">
        <ele>177.98</ele>
        <time>2021-08-17T07:51:44Z</time>
      </trkpt>
      <trkpt lat="44.50194" lon="1.5117">
        <ele>177.98</ele>
        <time>2021-08-17T07:51:50Z</time>
      </trkpt>
      <trkpt lat="44.50193" lon="1.51184">
        <ele>179.42</ele>
        <time>2021-08-17T07:51:56Z</time>
      </trkpt>
      <trkpt lat="44.50193" lon="1.51186">
        <ele>179.42</ele>
        <time>2021-08-17T07:51:57Z</time>
      </trkpt>
      <trkpt lat="44.5019" lon="1.51191">
        <ele>180.38</ele>
        <time>2021-08-17T07:52:02Z</time>
      </trkpt>
      <trkpt lat="44.50189" lon="1.51191">
        <ele>180.38</ele>
        <time>2021-08-17T07:52:03Z</time>
      </trkpt>
      <trkpt lat="44.50175" lon="1.51187">
        <ele>180.38</ele>
        <time>2021-08-17T07:52:08Z</time>
      </trkpt>
      <trkpt lat="44.50171" lon="1.51186">
        <ele>178.94</ele>
        <time>2021-08-17T07:52:09Z</time>
      </trkpt>
      <trkpt lat="44.50165" lon="1.51186">
        <ele>178.94</ele>
        <time>2021-08-17T07:52:10Z</time>
      </trkpt>
      <trkpt lat="44.5016" lon="1.51186">
        <ele>178.94</ele>
        <time>2021-08-17T07:52:11Z</time>
      </trkpt>
      <trkpt lat="44.50155" lon="1.51187">
        <ele>178.94</ele>
        <time>2021-08-17T07:52:12Z</time>
      </trkpt>
      <trkpt lat="44.5015" lon="1.51189">
        <ele>178.46</ele>
        <time>2021-08-17T07:52:13Z</time>
      </trkpt>
      <trkpt lat="44.50145" lon="1.51192">
        <ele>178.46</ele>
        <time>2021-08-17T07:52:14Z</time>
      </trkpt>
      <trkpt lat="44.50139" lon="1.51195">
        <ele>177.5</ele>
        <time>2021-08-17T07:52:15Z</time>
      </trkpt>
      <trkpt lat="44.501" lon="1.51221">
        <ele>177.5</ele>
        <time>2021-08-17T07:52:22Z</time>
      </trkpt>
      <trkpt lat="44.50061" lon="1.51254">
        <ele>177.02</ele>
        <time>2021-08-17T07:52:30Z</time>
      </trkpt>
      <trkpt lat="44.50051" lon="1.51262">
        <ele>176.54</ele>
        <time>2021-08-17T07:52:32Z</time>
      </trkpt>
      <trkpt lat="44.50046" lon="1.51265">
        <ele>176.54</ele>
        <time>2021-08-17T07:52:33Z</time>
      </trkpt>
      <trkpt lat="44.50003" lon="1.51296">
        <ele>176.06</ele>
        <time>2021-08-17T07:52:42Z</time>
      </trkpt>
      <trkpt lat="44.49988" lon="1.51307">
        <ele>176.06</ele>
        <time>2021-08-17T07:52:45Z</time>
      </trkpt>
      <trkpt lat="44.49976" lon="1.51319">
        <ele>176.06</ele>
        <time>2021-08-17T07:52:48Z</time>
      </trkpt>
      <trkpt lat="44.49972" lon="1.51323">
        <ele>176.06</ele>
        <time>2021-08-17T07:52:49Z</time>
      </trkpt>
      <trkpt lat="44.49943" lon="1.5134">
        <ele>176.06</ele>
        <time>2021-08-17T07:52:56Z</time>
      </trkpt>
      <trkpt lat="44.49911" lon="1.51349">
        <ele>174.62</ele>
        <time>2021-08-17T07:53:02Z</time>
      </trkpt>
      <trkpt lat="44.499" lon="1.5135">
        <ele>174.62</ele>
        <time>2021-08-17T07:53:04Z</time>
      </trkpt>
      <trkpt lat="44.49894" lon="1.51349">
        <ele>173.66</ele>
        <time>2021-08-17T07:53:05Z</time>
      </trkpt>
      <trkpt lat="44.49889" lon="1.51347">
        <ele>173.66</ele>
        <time>2021-08-17T07:53:06Z</time>
      </trkpt>
      <trkpt lat="44.49884" lon="1.51345">
        <ele>172.69</ele>
        <time>2021-08-17T07:53:07Z</time>
      </trkpt>
      <trkpt lat="44.49878" lon="1.51344">
        <ele>172.69</ele>
        <time>2021-08-17T07:53:08Z</time>
      </trkpt>
      <trkpt lat="44.49873" lon="1.51344">
        <ele>172.69</ele>
        <time>2021-08-17T07:53:09Z</time>
      </trkpt>
      <trkpt lat="44.49868" lon="1.51346">
        <ele>172.69</ele>
        <time>2021-08-17T07:53:10Z</time>
      </trkpt>
      <trkpt lat="44.49864" lon="1.51349">
        <ele>172.69</ele>
        <time>2021-08-17T07:53:11Z</time>
      </trkpt>
      <trkpt lat="44.4986" lon="1.51352">
        <ele>172.69</ele>
        <time>2021-08-17T07:53:12Z</time>
      </trkpt>
      <trkpt lat="44.49856" lon="1.51355">
        <ele>172.69</ele>
        <time>2021-08-17T07:53:13Z</time>
      </trkpt>
      <trkpt lat="44.49853" lon="1.51358">
        <ele>172.69</ele>
        <time>2021-08-17T07:53:14Z</time>
      </trkpt>
      <trkpt lat="44.4985" lon="1.51361">
        <ele>172.69</ele>
        <time>2021-08-17T07:53:15Z</time>
      </trkpt>
      <trkpt lat="44.49828" lon="1.51376">
        <ele>174.62</ele>
        <time>2021-08-17T07:53:23Z</time>
      </trkpt>
      <trkpt lat="44.49813" lon="1.51384">
        <ele>174.62</ele>
        <time>2021-08-17T07:53:27Z</time>
      </trkpt>
      <trkpt lat="44.49803" lon="1.51388">
        <ele>173.66</ele>
        <time>2021-08-17T07:53:29Z</time>
      </trkpt>
      <trkpt lat="44.49783" lon="1.51394">
        <ele>173.66</ele>
        <time>2021-08-17T07:53:33Z</time>
      </trkpt>
      <trkpt lat="44.49752" lon="1.51403">
        <ele>172.21</ele>
        <time>2021-08-17T07:53:39Z</time>
      </trkpt>
      <trkpt lat="44.4974" lon="1.51403">
        <ele>171.73</ele>
        <time>2021-08-17T07:53:41Z</time>
      </trkpt>
      <trkpt lat="44.497" lon="1.51395">
        <ele>170.77</ele>
        <time>2021-08-17T07:53:48Z</time>
      </trkpt>
      <trkpt lat="44.4968" lon="1.51394">
        <ele>169.81</ele>
        <time>2021-08-17T07:53:52Z</time>
      </trkpt>
      <trkpt lat="44.49676" lon="1.51396">
        <ele>170.29</ele>
        <time>2021-08-17T07:53:53Z</time>
      </trkpt>
      <trkpt lat="44.49672" lon="1.51397">
        <ele>170.29</ele>
        <time>2021-08-17T07:53:54Z</time>
      </trkpt>
      <trkpt lat="44.49667" lon="1.51398">
        <ele>170.29</ele>
        <time>2021-08-17T07:53:55Z</time>
      </trkpt>
      <trkpt lat="44.49663" lon="1.514">
        <ele>170.29</ele>
        <time>2021-08-17T07:53:56Z</time>
      </trkpt>
      <trkpt lat="44.49659" lon="1.51402">
        <ele>170.29</ele>
        <time>2021-08-17T07:53:57Z</time>
      </trkpt>
      <trkpt lat="44.49645" lon="1.5141">
        <ele>170.29</ele>
        <time>2021-08-17T07:54:00Z</time>
      </trkpt>
      <trkpt lat="44.49618" lon="1.51431">
        <ele>169.33</ele>
        <time>2021-08-17T07:54:06Z</time>
      </trkpt>
      <trkpt lat="44.49608" lon="1.5144">
        <ele>169.33</ele>
        <time>2021-08-17T07:54:08Z</time>
      </trkpt>
      <trkpt lat="44.49581" lon="1.51454">
        <ele>168.37</ele>
        <time>2021-08-17T07:54:13Z</time>
      </trkpt>
      <trkpt lat="44.49547" lon="1.5146">
        <ele>167.89</ele>
        <time>2021-08-17T07:54:19Z</time>
      </trkpt>
      <trkpt lat="44.49518" lon="1.51467">
        <ele>167.89</ele>
        <time>2021-08-17T07:54:25Z</time>
      </trkpt>
      <trkpt lat="44.49509" lon="1.51473">
        <ele>168.85</ele>
        <time>2021-08-17T07:54:28Z</time>
      </trkpt>
      <trkpt lat="44.49496" lon="1.51484">
        <ele>170.77</ele>
        <time>2021-08-17T07:54:35Z</time>
      </trkpt>
      <trkpt lat="44.49487" lon="1.51486">
        <ele>171.25</ele>
        <time>2021-08-17T07:54:40Z</time>
      </trkpt>
      <trkpt lat="44.49485" lon="1.51485">
        <ele>171.25</ele>
        <time>2021-08-17T07:54:41Z</time>
      </trkpt>
      <trkpt lat="44.49476" lon="1.51478">
        <ele>169.81</ele>
        <time>2021-08-17T07:54:44Z</time>
      </trkpt>
      <trkpt lat="44.49472" lon="1.51477">
        <ele>169.33</ele>
        <time>2021-08-17T07:54:45Z</time>
      </trkpt>
      <trkpt lat="44.49452" lon="1.51478">
        <ele>166.93</ele>
        <time>2021-08-17T07:54:49Z</time>
      </trkpt>
      <trkpt lat="44.49408" lon="1.51486">
        <ele>165</ele>
        <time>2021-08-17T07:54:56Z</time>
      </trkpt>
      <trkpt lat="44.4937" lon="1.51477">
        <ele>165</ele>
        <time>2021-08-17T07:55:03Z</time>
      </trkpt>
      <trkpt lat="44.49361" lon="1.51474">
        <ele>165.48</ele>
        <time>2021-08-17T07:55:05Z</time>
      </trkpt>
      <trkpt lat="44.4933" lon="1.51454">
        <ele>165</ele>
        <time>2021-08-17T07:55:11Z</time>
      </trkpt>
      <trkpt lat="44.49301" lon="1.51433">
        <ele>164.04</ele>
        <time>2021-08-17T07:55:17Z</time>
      </trkpt>
      <trkpt lat="44.4929" lon="1.51424">
        <ele>163.08</ele>
        <time>2021-08-17T07:55:19Z</time>
      </trkpt>
      <trkpt lat="44.4927" lon="1.51403">
        <ele>161.64</ele>
        <time>2021-08-17T07:55:23Z</time>
      </trkpt>
      <trkpt lat="44.49264" lon="1.51399">
        <ele>161.64</ele>
        <time>2021-08-17T07:55:24Z</time>
      </trkpt>
      <trkpt lat="44.49257" lon="1.51398">
        <ele>161.64</ele>
        <time>2021-08-17T07:55:25Z</time>
      </trkpt>
      <trkpt lat="44.49252" lon="1.51398">
        <ele>161.64</ele>
        <time>2021-08-17T07:55:26Z</time>
      </trkpt>
      <trkpt lat="44.49247" lon="1.51398">
        <ele>161.64</ele>
        <time>2021-08-17T07:55:27Z</time>
      </trkpt>
      <trkpt lat="44.49228" lon="1.51403">
        <ele>163.08</ele>
        <time>2021-08-17T07:55:31Z</time>
      </trkpt>
      <trkpt lat="44.49192" lon="1.51408">
        <ele>161.64</ele>
        <time>2021-08-17T07:55:38Z</time>
      </trkpt>
      <trkpt lat="44.49169" lon="1.5141">
        <ele>161.64</ele>
        <time>2021-08-17T07:55:43Z</time>
      </trkpt>
      <trkpt lat="44.49165" lon="1.51411">
        <ele>163.56</ele>
        <time>2021-08-17T07:55:44Z</time>
      </trkpt>
      <trkpt lat="44.49161" lon="1.51411">
        <ele>163.56</ele>
        <time>2021-08-17T07:55:45Z</time>
      </trkpt>
      <trkpt lat="44.49145" lon="1.51411">
        <ele>164.04</ele>
        <time>2021-08-17T07:55:50Z</time>
      </trkpt>
      <trkpt lat="44.49137" lon="1.51412">
        <ele>162.6</ele>
        <time>2021-08-17T07:55:52Z</time>
      </trkpt>
      <trkpt lat="44.49133" lon="1.51411">
        <ele>162.6</ele>
        <time>2021-08-17T07:55:53Z</time>
      </trkpt>
      <trkpt lat="44.491" lon="1.51407">
        <ele>160.2</ele>
        <time>2021-08-17T07:55:59Z</time>
      </trkpt>
      <trkpt lat="44.49094" lon="1.51407">
        <ele>159.72</ele>
        <time>2021-08-17T07:56:00Z</time>
      </trkpt>
      <trkpt lat="44.49058" lon="1.51395">
        <ele>158.75</ele>
        <time>2021-08-17T07:56:06Z</time>
      </trkpt>
      <trkpt lat="44.49053" lon="1.51392">
        <ele>158.75</ele>
        <time>2021-08-17T07:56:07Z</time>
      </trkpt>
      <trkpt lat="44.49047" lon="1.51388">
        <ele>158.75</ele>
        <time>2021-08-17T07:56:08Z</time>
      </trkpt>
      <trkpt lat="44.49042" lon="1.51384">
        <ele>158.27</ele>
        <time>2021-08-17T07:56:09Z</time>
      </trkpt>
      <trkpt lat="44.49038" lon="1.51379">
        <ele>158.27</ele>
        <time>2021-08-17T07:56:10Z</time>
      </trkpt>
      <trkpt lat="44.49024" lon="1.51364">
        <ele>157.31</ele>
        <time>2021-08-17T07:56:13Z</time>
      </trkpt>
      <trkpt lat="44.48999" lon="1.51328">
        <ele>156.35</ele>
        <time>2021-08-17T07:56:19Z</time>
      </trkpt>
      <trkpt lat="44.48991" lon="1.51318">
        <ele>156.83</ele>
        <time>2021-08-17T07:56:21Z</time>
      </trkpt>
      <trkpt lat="44.48986" lon="1.51314">
        <ele>156.83</ele>
        <time>2021-08-17T07:56:22Z</time>
      </trkpt>
      <trkpt lat="44.48981" lon="1.51311">
        <ele>156.83</ele>
        <time>2021-08-17T07:56:23Z</time>
      </trkpt>
      <trkpt lat="44.48972" lon="1.51306">
        <ele>156.35</ele>
        <time>2021-08-17T07:56:25Z</time>
      </trkpt>
      <trkpt lat="44.48968" lon="1.51304">
        <ele>156.35</ele>
        <time>2021-08-17T07:56:26Z</time>
      </trkpt>
      <trkpt lat="44.48952" lon="1.51302">
        <ele>156.35</ele>
        <time>2021-08-17T07:56:29Z</time>
      </trkpt>
      <trkpt lat="44.48907" lon="1.51309">
        <ele>155.87</ele>
        <time>2021-08-17T07:56:37Z</time>
      </trkpt>
      <trkpt lat="44.48864" lon="1.51317">
        <ele>154.91</ele>
        <time>2021-08-17T07:56:44Z</time>
      </trkpt>
      <trkpt lat="44.48821" lon="1.51326">
        <ele>154.91</ele>
        <time>2021-08-17T07:56:52Z</time>
      </trkpt>
      <trkpt lat="44.48816" lon="1.51327">
        <ele>154.91</ele>
        <time>2021-08-17T07:56:53Z</time>
      </trkpt>
      <trkpt lat="44.48783" lon="1.5133">
        <ele>153.95</ele>
        <time>2021-08-17T07:56:59Z</time>
      </trkpt>
      <trkpt lat="44.4877" lon="1.51332">
        <ele>153.47</ele>
        <time>2021-08-17T07:57:01Z</time>
      </trkpt>
      <trkpt lat="44.48765" lon="1.51334">
        <ele>153.47</ele>
        <time>2021-08-17T07:57:02Z</time>
      </trkpt>
      <trkpt lat="44.4876" lon="1.51336">
        <ele>153.47</ele>
        <time>2021-08-17T07:57:03Z</time>
      </trkpt>
      <trkpt lat="44.48755" lon="1.51339">
        <ele>153.47</ele>
        <time>2021-08-17T07:57:04Z</time>
      </trkpt>
      <trkpt lat="44.4875" lon="1.51341">
        <ele>152.99</ele>
        <time>2021-08-17T07:57:05Z</time>
      </trkpt>
      <trkpt lat="44.48745" lon="1.51342">
        <ele>152.99</ele>
        <time>2021-08-17T07:57:06Z</time>
      </trkpt>
      <trkpt lat="44.48741" lon="1.51345">
        <ele>152.99</ele>
        <time>2021-08-17T07:57:07Z</time>
      </trkpt>
      <trkpt lat="44.48714" lon="1.51355">
        <ele>152.51</ele>
        <time>2021-08-17T07:57:12Z</time>
      </trkpt>
      <trkpt lat="44.48708" lon="1.51355">
        <ele>151.54</ele>
        <time>2021-08-17T07:57:13Z</time>
      </trkpt>
      <trkpt lat="44.48683" lon="1.51359">
        <ele>150.1</ele>
        <time>2021-08-17T07:57:17Z</time>
      </trkpt>
      <trkpt lat="44.48677" lon="1.51363">
        <ele>150.1</ele>
        <time>2021-08-17T07:57:18Z</time>
      </trkpt>
      <trkpt lat="44.48672" lon="1.51367">
        <ele>150.1</ele>
        <time>2021-08-17T07:57:19Z</time>
      </trkpt>
      <trkpt lat="44.48668" lon="1.51372">
        <ele>150.1</ele>
        <time>2021-08-17T07:57:20Z</time>
      </trkpt>
      <trkpt lat="44.48664" lon="1.51376">
        <ele>150.1</ele>
        <time>2021-08-17T07:57:21Z</time>
      </trkpt>
      <trkpt lat="44.4866" lon="1.51381">
        <ele>150.1</ele>
        <time>2021-08-17T07:57:22Z</time>
      </trkpt>
      <trkpt lat="44.48657" lon="1.51386">
        <ele>150.1</ele>
        <time>2021-08-17T07:57:23Z</time>
      </trkpt>
      <trkpt lat="44.48654" lon="1.51391">
        <ele>151.54</ele>
        <time>2021-08-17T07:57:24Z</time>
      </trkpt>
      <trkpt lat="44.48651" lon="1.51395">
        <ele>151.54</ele>
        <time>2021-08-17T07:57:25Z</time>
      </trkpt>
      <trkpt lat="44.48625" lon="1.51422">
        <ele>152.03</ele>
        <time>2021-08-17T07:57:33Z</time>
      </trkpt>
      <trkpt lat="44.48617" lon="1.51431">
        <ele>152.03</ele>
        <time>2021-08-17T07:57:35Z</time>
      </trkpt>
      <trkpt lat="44.48613" lon="1.51435">
        <ele>152.03</ele>
        <time>2021-08-17T07:57:36Z</time>
      </trkpt>
      <trkpt lat="44.48592" lon="1.51459">
        <ele>150.1</ele>
        <time>2021-08-17T07:57:41Z</time>
      </trkpt>
      <trkpt lat="44.48582" lon="1.51466">
        <ele>150.1</ele>
        <time>2021-08-17T07:57:43Z</time>
      </trkpt>
      <trkpt lat="44.48558" lon="1.51479">
        <ele>150.1</ele>
        <time>2021-08-17T07:57:48Z</time>
      </trkpt>
      <trkpt lat="44.48527" lon="1.51499">
        <ele>148.66</ele>
        <time>2021-08-17T07:57:55Z</time>
      </trkpt>
      <trkpt lat="44.48502" lon="1.51513">
        <ele>149.14</ele>
        <time>2021-08-17T07:58:01Z</time>
      </trkpt>
      <trkpt lat="44.48494" lon="1.51517">
        <ele>149.14</ele>
        <time>2021-08-17T07:58:03Z</time>
      </trkpt>
      <trkpt lat="44.48478" lon="1.51528">
        <ele>148.18</ele>
        <time>2021-08-17T07:58:06Z</time>
      </trkpt>
      <trkpt lat="44.48456" lon="1.51547">
        <ele>146.74</ele>
        <time>2021-08-17T07:58:10Z</time>
      </trkpt>
      <trkpt lat="44.48446" lon="1.51556">
        <ele>146.74</ele>
        <time>2021-08-17T07:58:12Z</time>
      </trkpt>
      <trkpt lat="44.4844" lon="1.51558">
        <ele>146.74</ele>
        <time>2021-08-17T07:58:13Z</time>
      </trkpt>
      <trkpt lat="44.48429" lon="1.5156">
        <ele>145.3</ele>
        <time>2021-08-17T07:58:15Z</time>
      </trkpt>
      <trkpt lat="44.48416" lon="1.51559">
        <ele>144.82</ele>
        <time>2021-08-17T07:58:17Z</time>
      </trkpt>
      <trkpt lat="44.48404" lon="1.51562">
        <ele>144.82</ele>
        <time>2021-08-17T07:58:19Z</time>
      </trkpt>
      <trkpt lat="44.484" lon="1.51566">
        <ele>144.82</ele>
        <time>2021-08-17T07:58:20Z</time>
      </trkpt>
      <trkpt lat="44.48397" lon="1.51571">
        <ele>144.82</ele>
        <time>2021-08-17T07:58:21Z</time>
      </trkpt>
      <trkpt lat="44.48396" lon="1.51577">
        <ele>143.85</ele>
        <time>2021-08-17T07:58:22Z</time>
      </trkpt>
      <trkpt lat="44.48397" lon="1.51583">
        <ele>144.34</ele>
        <time>2021-08-17T07:58:23Z</time>
      </trkpt>
      <trkpt lat="44.48398" lon="1.51589">
        <ele>144.34</ele>
        <time>2021-08-17T07:58:24Z</time>
      </trkpt>
      <trkpt lat="44.48399" lon="1.51594">
        <ele>144.34</ele>
        <time>2021-08-17T07:58:25Z</time>
      </trkpt>
      <trkpt lat="44.484" lon="1.51598">
        <ele>144.34</ele>
        <time>2021-08-17T07:58:26Z</time>
      </trkpt>
      <trkpt lat="44.48402" lon="1.51601">
        <ele>144.34</ele>
        <time>2021-08-17T07:58:27Z</time>
      </trkpt>
      <trkpt lat="44.48404" lon="1.51603">
        <ele>144.34</ele>
        <time>2021-08-17T07:58:28Z</time>
      </trkpt>
      <trkpt lat="44.48406" lon="1.51606">
        <ele>144.34</ele>
        <time>2021-08-17T07:58:29Z</time>
      </trkpt>
      <trkpt lat="44.48409" lon="1.51608">
        <ele>144.34</ele>
        <time>2021-08-17T07:58:30Z</time>
      </trkpt>
      <trkpt lat="44.48416" lon="1.51619">
        <ele>145.3</ele>
        <time>2021-08-17T07:58:33Z</time>
      </trkpt>
      <trkpt lat="44.48416" lon="1.51636">
        <ele>145.3</ele>
        <time>2021-08-17T07:58:36Z</time>
      </trkpt>
      <trkpt lat="44.48413" lon="1.51647">
        <ele>145.3</ele>
        <time>2021-08-17T07:58:38Z</time>
      </trkpt>
      <trkpt lat="44.484" lon="1.5168">
        <ele>145.3</ele>
        <time>2021-08-17T07:58:44Z</time>
      </trkpt>
      <trkpt lat="44.48398" lon="1.51686">
        <ele>145.3</ele>
        <time>2021-08-17T07:58:45Z</time>
      </trkpt>
      <trkpt lat="44.48386" lon="1.5172">
        <ele>142.89</ele>
        <time>2021-08-17T07:58:50Z</time>
      </trkpt>
      <trkpt lat="44.48384" lon="1.51725">
        <ele>142.89</ele>
        <time>2021-08-17T07:58:51Z</time>
      </trkpt>
      <trkpt lat="44.48374" lon="1.51756">
        <ele>144.34</ele>
        <time>2021-08-17T07:58:57Z</time>
      </trkpt>
      <trkpt lat="44.4836" lon="1.51794">
        <ele>144.34</ele>
        <time>2021-08-17T07:59:04Z</time>
      </trkpt>
      <trkpt lat="44.48341" lon="1.51833">
        <ele>145.3</ele>
        <time>2021-08-17T07:59:12Z</time>
      </trkpt>
      <trkpt lat="44.48332" lon="1.5185">
        <ele>145.3</ele>
        <time>2021-08-17T07:59:16Z</time>
      </trkpt>
      <trkpt lat="44.48305" lon="1.51883">
        <ele>143.37</ele>
        <time>2021-08-17T07:59:23Z</time>
      </trkpt>
      <trkpt lat="44.48292" lon="1.51899">
        <ele>141.93</ele>
        <time>2021-08-17T07:59:26Z</time>
      </trkpt>
      <trkpt lat="44.48287" lon="1.51904">
        <ele>141.93</ele>
        <time>2021-08-17T07:59:27Z</time>
      </trkpt>
      <trkpt lat="44.48261" lon="1.51923">
        <ele>141.93</ele>
        <time>2021-08-17T07:59:33Z</time>
      </trkpt>
      <trkpt lat="44.48248" lon="1.51929">
        <ele>144.34</ele>
        <time>2021-08-17T07:59:39Z</time>
      </trkpt>
      <trkpt lat="44.48229" lon="1.51939">
        <ele>144.34</ele>
        <time>2021-08-17T07:59:45Z</time>
      </trkpt>
      <trkpt lat="44.48211" lon="1.51953">
        <ele>141.45</ele>
        <time>2021-08-17T07:59:49Z</time>
      </trkpt>
      <trkpt lat="44.48205" lon="1.51956">
        <ele>140.49</ele>
        <time>2021-08-17T07:59:50Z</time>
      </trkpt>
      <trkpt lat="44.48198" lon="1.51957">
        <ele>140.49</ele>
        <time>2021-08-17T07:59:51Z</time>
      </trkpt>
      <trkpt lat="44.4819" lon="1.51959">
        <ele>139.53</ele>
        <time>2021-08-17T07:59:52Z</time>
      </trkpt>
      <trkpt lat="44.48176" lon="1.51961">
        <ele>139.05</ele>
        <time>2021-08-17T07:59:54Z</time>
      </trkpt>
      <trkpt lat="44.48164" lon="1.51968">
        <ele>139.05</ele>
        <time>2021-08-17T07:59:56Z</time>
      </trkpt>
      <trkpt lat="44.48159" lon="1.51975">
        <ele>139.05</ele>
        <time>2021-08-17T07:59:57Z</time>
      </trkpt>
      <trkpt lat="44.48156" lon="1.51982">
        <ele>139.05</ele>
        <time>2021-08-17T07:59:58Z</time>
      </trkpt>
      <trkpt lat="44.48154" lon="1.51989">
        <ele>139.05</ele>
        <time>2021-08-17T07:59:59Z</time>
      </trkpt>
      <trkpt lat="44.48152" lon="1.51996">
        <ele>139.05</ele>
        <time>2021-08-17T08:00:00Z</time>
      </trkpt>
      <trkpt lat="44.48151" lon="1.52001">
        <ele>139.05</ele>
        <time>2021-08-17T08:00:01Z</time>
      </trkpt>
      <trkpt lat="44.48149" lon="1.52011">
        <ele>140.49</ele>
        <time>2021-08-17T08:00:03Z</time>
      </trkpt>
      <trkpt lat="44.48136" lon="1.52049">
        <ele>140.97</ele>
        <time>2021-08-17T08:00:12Z</time>
      </trkpt>
      <trkpt lat="44.48117" lon="1.52098">
        <ele>140.97</ele>
        <time>2021-08-17T08:00:23Z</time>
      </trkpt>
      <trkpt lat="44.48108" lon="1.52129">
        <ele>141.93</ele>
        <time>2021-08-17T08:00:31Z</time>
      </trkpt>
      <trkpt lat="44.48108" lon="1.52159">
        <ele>142.41</ele>
        <time>2021-08-17T08:00:38Z</time>
      </trkpt>
      <trkpt lat="44.4812" lon="1.52199">
        <ele>142.41</ele>
        <time>2021-08-17T08:00:47Z</time>
      </trkpt>
      <trkpt lat="44.48128" lon="1.52215">
        <ele>143.37</ele>
        <time>2021-08-17T08:00:54Z</time>
      </trkpt>
      <trkpt lat="44.48129" lon="1.52219">
        <ele>143.85</ele>
        <time>2021-08-17T08:00:56Z</time>
      </trkpt>
      <trkpt lat="44.4813" lon="1.52221">
        <ele>143.85</ele>
        <time>2021-08-17T08:00:57Z</time>
      </trkpt>
      <trkpt lat="44.48131" lon="1.52223">
        <ele>144.34</ele>
        <time>2021-08-17T08:00:58Z</time>
      </trkpt>
      <trkpt lat="44.48132" lon="1.52225">
        <ele>144.34</ele>
        <time>2021-08-17T08:00:59Z</time>
      </trkpt>
      <trkpt lat="44.48133" lon="1.52227">
        <ele>144.34</ele>
        <time>2021-08-17T08:01:00Z</time>
      </trkpt>
      <trkpt lat="44.48134" lon="1.5223">
        <ele>144.34</ele>
        <time>2021-08-17T08:01:01Z</time>
      </trkpt>
      <trkpt lat="44.48139" lon="1.52244">
        <ele>145.3</ele>
        <time>2021-08-17T08:01:07Z</time>
      </trkpt>
      <trkpt lat="44.48145" lon="1.52265">
        <ele>146.74</ele>
        <time>2021-08-17T08:01:15Z</time>
      </trkpt>
      <trkpt lat="44.48149" lon="1.5229">
        <ele>147.7</ele>
        <time>2021-08-17T08:01:25Z</time>
      </trkpt>
      <trkpt lat="44.48148" lon="1.52313">
        <ele>149.14</ele>
        <time>2021-08-17T08:01:35Z</time>
      </trkpt>
      <trkpt lat="44.48145" lon="1.52324">
        <ele>150.1</ele>
        <time>2021-08-17T08:01:41Z</time>
      </trkpt>
      <trkpt lat="44.48144" lon="1.52333">
        <ele>151.06</ele>
        <time>2021-08-17T08:01:47Z</time>
      </trkpt>
      <trkpt lat="44.48145" lon="1.52349">
        <ele>152.03</ele>
        <time>2021-08-17T08:01:56Z</time>
      </trkpt>
      <trkpt lat="44.48144" lon="1.52359">
        <ele>152.99</ele>
        <time>2021-08-17T08:02:03Z</time>
      </trkpt>
      <trkpt lat="44.48145" lon="1.52361">
        <ele>153.47</ele>
        <time>2021-08-17T08:02:05Z</time>
      </trkpt>
      <trkpt lat="44.48145" lon="1.52367">
        <ele>153.95</ele>
        <time>2021-08-17T08:02:09Z</time>
      </trkpt>
      <trkpt lat="44.48145" lon="1.52377">
        <ele>155.39</ele>
        <time>2021-08-17T08:02:17Z</time>
      </trkpt>
      <trkpt lat="44.48145" lon="1.52386">
        <ele>156.35</ele>
        <time>2021-08-17T08:02:23Z</time>
      </trkpt>
      <trkpt lat="44.48145" lon="1.52387">
        <ele>156.35</ele>
        <time>2021-08-17T08:02:24Z</time>
      </trkpt>
      <trkpt lat="44.48145" lon="1.52389">
        <ele>156.35</ele>
        <time>2021-08-17T08:02:25Z</time>
      </trkpt>
      <trkpt lat="44.48145" lon="1.52391">
        <ele>156.35</ele>
        <time>2021-08-17T08:02:26Z</time>
      </trkpt>
      <trkpt lat="44.48145" lon="1.52392">
        <ele>156.83</ele>
        <time>2021-08-17T08:02:27Z</time>
      </trkpt>
      <trkpt lat="44.48145" lon="1.52395">
        <ele>156.83</ele>
        <time>2021-08-17T08:02:33Z</time>
      </trkpt>
      <trkpt lat="44.48145" lon="1.5241">
        <ele>157.31</ele>
        <time>2021-08-17T08:02:41Z</time>
      </trkpt>
      <trkpt lat="44.48143" lon="1.52427">
        <ele>159.24</ele>
        <time>2021-08-17T08:02:49Z</time>
      </trkpt>
      <trkpt lat="44.48143" lon="1.52445">
        <ele>160.2</ele>
        <time>2021-08-17T08:02:58Z</time>
      </trkpt>
      <trkpt lat="44.48143" lon="1.5246">
        <ele>161.16</ele>
        <time>2021-08-17T08:03:06Z</time>
      </trkpt>
      <trkpt lat="44.48144" lon="1.52479">
        <ele>162.6</ele>
        <time>2021-08-17T08:03:15Z</time>
      </trkpt>
      <trkpt lat="44.48144" lon="1.52499">
        <ele>164.04</ele>
        <time>2021-08-17T08:03:24Z</time>
      </trkpt>
      <trkpt lat="44.48145" lon="1.52501">
        <ele>164.04</ele>
        <time>2021-08-17T08:03:25Z</time>
      </trkpt>
      <trkpt lat="44.48145" lon="1.52503">
        <ele>164.04</ele>
        <time>2021-08-17T08:03:26Z</time>
      </trkpt>
      <trkpt lat="44.48146" lon="1.52527">
        <ele>165.48</ele>
        <time>2021-08-17T08:03:37Z</time>
      </trkpt>
      <trkpt lat="44.48146" lon="1.52531">
        <ele>165.96</ele>
        <time>2021-08-17T08:03:39Z</time>
      </trkpt>
      <trkpt lat="44.48146" lon="1.52533">
        <ele>165.96</ele>
        <time>2021-08-17T08:03:40Z</time>
      </trkpt>
      <trkpt lat="44.48149" lon="1.52551">
        <ele>166.45</ele>
        <time>2021-08-17T08:03:48Z</time>
      </trkpt>
      <trkpt lat="44.4815" lon="1.52567">
        <ele>167.41</ele>
        <time>2021-08-17T08:03:56Z</time>
      </trkpt>
      <trkpt lat="44.48151" lon="1.52589">
        <ele>169.33</ele>
        <time>2021-08-17T08:04:06Z</time>
      </trkpt>
      <trkpt lat="44.4815" lon="1.52608">
        <ele>170.77</ele>
        <time>2021-08-17T08:04:14Z</time>
      </trkpt>
      <trkpt lat="44.48146" lon="1.52631">
        <ele>171.73</ele>
        <time>2021-08-17T08:04:23Z</time>
      </trkpt>
      <trkpt lat="44.48144" lon="1.5265">
        <ele>172.69</ele>
        <time>2021-08-17T08:04:30Z</time>
      </trkpt>
      <trkpt lat="44.48144" lon="1.52652">
        <ele>172.69</ele>
        <time>2021-08-17T08:04:31Z</time>
      </trkpt>
      <trkpt lat="44.48144" lon="1.52654">
        <ele>173.17</ele>
        <time>2021-08-17T08:04:32Z</time>
      </trkpt>
      <trkpt lat="44.48143" lon="1.52657">
        <ele>173.17</ele>
        <time>2021-08-17T08:04:33Z</time>
      </trkpt>
      <trkpt lat="44.48143" lon="1.52659">
        <ele>173.17</ele>
        <time>2021-08-17T08:04:34Z</time>
      </trkpt>
      <trkpt lat="44.48142" lon="1.52661">
        <ele>173.17</ele>
        <time>2021-08-17T08:04:35Z</time>
      </trkpt>
      <trkpt lat="44.48142" lon="1.52663">
        <ele>173.17</ele>
        <time>2021-08-17T08:04:36Z</time>
      </trkpt>
      <trkpt lat="44.4814" lon="1.5268">
        <ele>174.14</ele>
        <time>2021-08-17T08:04:44Z</time>
      </trkpt>
      <trkpt lat="44.48138" lon="1.527">
        <ele>176.06</ele>
        <time>2021-08-17T08:04:54Z</time>
      </trkpt>
      <trkpt lat="44.48137" lon="1.52719">
        <ele>177.5</ele>
        <time>2021-08-17T08:05:03Z</time>
      </trkpt>
      <trkpt lat="44.48136" lon="1.52731">
        <ele>178.46</ele>
        <time>2021-08-17T08:05:10Z</time>
      </trkpt>
      <trkpt lat="44.48136" lon="1.52744">
        <ele>179.42</ele>
        <time>2021-08-17T08:05:18Z</time>
      </trkpt>
      <trkpt lat="44.48138" lon="1.5275">
        <ele>179.9</ele>
        <time>2021-08-17T08:05:22Z</time>
      </trkpt>
      <trkpt lat="44.48138" lon="1.52757">
        <ele>180.38</ele>
        <time>2021-08-17T08:05:26Z</time>
      </trkpt>
      <trkpt lat="44.4814" lon="1.52771">
        <ele>181.83</ele>
        <time>2021-08-17T08:05:34Z</time>
      </trkpt>
      <trkpt lat="44.48141" lon="1.52774">
        <ele>181.83</ele>
        <time>2021-08-17T08:05:36Z</time>
      </trkpt>
      <trkpt lat="44.48142" lon="1.52776">
        <ele>182.31</ele>
        <time>2021-08-17T08:05:37Z</time>
      </trkpt>
      <trkpt lat="44.48144" lon="1.52778">
        <ele>182.31</ele>
        <time>2021-08-17T08:05:39Z</time>
      </trkpt>
      <trkpt lat="44.48144" lon="1.5278">
        <ele>182.79</ele>
        <time>2021-08-17T08:05:40Z</time>
      </trkpt>
      <trkpt lat="44.48145" lon="1.52782">
        <ele>182.79</ele>
        <time>2021-08-17T08:05:41Z</time>
      </trkpt>
      <trkpt lat="44.48146" lon="1.52784">
        <ele>182.79</ele>
        <time>2021-08-17T08:05:42Z</time>
      </trkpt>
      <trkpt lat="44.48146" lon="1.52786">
        <ele>182.79</ele>
        <time>2021-08-17T08:05:43Z</time>
      </trkpt>
      <trkpt lat="44.48147" lon="1.52789">
        <ele>183.27</ele>
        <time>2021-08-17T08:05:44Z</time>
      </trkpt>
      <trkpt lat="44.48147" lon="1.52791">
        <ele>183.27</ele>
        <time>2021-08-17T08:05:45Z</time>
      </trkpt>
      <trkpt lat="44.48148" lon="1.52793">
        <ele>183.27</ele>
        <time>2021-08-17T08:05:46Z</time>
      </trkpt>
      <trkpt lat="44.48156" lon="1.52805">
        <ele>184.71</ele>
        <time>2021-08-17T08:05:56Z</time>
      </trkpt>
      <trkpt lat="44.48167" lon="1.52818">
        <ele>186.15</ele>
        <time>2021-08-17T08:06:06Z</time>
      </trkpt>
      <trkpt lat="44.48174" lon="1.52828">
        <ele>187.59</ele>
        <time>2021-08-17T08:06:13Z</time>
      </trkpt>
      <trkpt lat="44.48175" lon="1.52829">
        <ele>187.59</ele>
        <time>2021-08-17T08:06:14Z</time>
      </trkpt>
      <trkpt lat="44.48176" lon="1.5283">
        <ele>187.59</ele>
        <time>2021-08-17T08:06:15Z</time>
      </trkpt>
      <trkpt lat="44.48178" lon="1.52833">
        <ele>188.08</ele>
        <time>2021-08-17T08:06:17Z</time>
      </trkpt>
      <trkpt lat="44.48183" lon="1.5284">
        <ele>189.52</ele>
        <time>2021-08-17T08:06:22Z</time>
      </trkpt>
      <trkpt lat="44.48183" lon="1.52842">
        <ele>189.52</ele>
        <time>2021-08-17T08:06:23Z</time>
      </trkpt>
      <trkpt lat="44.48184" lon="1.52843">
        <ele>189.52</ele>
        <time>2021-08-17T08:06:24Z</time>
      </trkpt>
      <trkpt lat="44.4819" lon="1.52857">
        <ele>190.96</ele>
        <time>2021-08-17T08:06:32Z</time>
      </trkpt>
      <trkpt lat="44.48199" lon="1.52864">
        <ele>192.4</ele>
        <time>2021-08-17T08:06:40Z</time>
      </trkpt>
      <trkpt lat="44.482" lon="1.52862">
        <ele>192.4</ele>
        <time>2021-08-17T08:06:42Z</time>
      </trkpt>
      <trkpt lat="44.48201" lon="1.52861">
        <ele>192.88</ele>
        <time>2021-08-17T08:06:43Z</time>
      </trkpt>
      <trkpt lat="44.48201" lon="1.5286">
        <ele>192.88</ele>
        <time>2021-08-17T08:06:44Z</time>
      </trkpt>
      <trkpt lat="44.48201" lon="1.52858">
        <ele>193.36</ele>
        <time>2021-08-17T08:06:45Z</time>
      </trkpt>
      <trkpt lat="44.48202" lon="1.52857">
        <ele>193.36</ele>
        <time>2021-08-17T08:06:46Z</time>
      </trkpt>
      <trkpt lat="44.48202" lon="1.52854">
        <ele>193.36</ele>
        <time>2021-08-17T08:06:48Z</time>
      </trkpt>
      <trkpt lat="44.48202" lon="1.52852">
        <ele>193.36</ele>
        <time>2021-08-17T08:06:49Z</time>
      </trkpt>
      <trkpt lat="44.48202" lon="1.52851">
        <ele>193.84</ele>
        <time>2021-08-17T08:06:50Z</time>
      </trkpt>
      <trkpt lat="44.48201" lon="1.52849">
        <ele>193.84</ele>
        <time>2021-08-17T08:06:51Z</time>
      </trkpt>
      <trkpt lat="44.48201" lon="1.52848">
        <ele>193.84</ele>
        <time>2021-08-17T08:06:52Z</time>
      </trkpt>
      <trkpt lat="44.48201" lon="1.52846">
        <ele>193.84</ele>
        <time>2021-08-17T08:06:53Z</time>
      </trkpt>
      <trkpt lat="44.48198" lon="1.52829">
        <ele>195.28</ele>
        <time>2021-08-17T08:07:02Z</time>
      </trkpt>
      <trkpt lat="44.48201" lon="1.52813">
        <ele>196.73</ele>
        <time>2021-08-17T08:07:10Z</time>
      </trkpt>
      <trkpt lat="44.48202" lon="1.52804">
        <ele>197.21</ele>
        <time>2021-08-17T08:07:17Z</time>
      </trkpt>
      <trkpt lat="44.48208" lon="1.5279">
        <ele>199.13</ele>
        <time>2021-08-17T08:07:29Z</time>
      </trkpt>
      <trkpt lat="44.48213" lon="1.52779">
        <ele>200.09</ele>
        <time>2021-08-17T08:07:38Z</time>
      </trkpt>
      <trkpt lat="44.48218" lon="1.52768">
        <ele>201.53</ele>
        <time>2021-08-17T08:07:49Z</time>
      </trkpt>
      <trkpt lat="44.48223" lon="1.52758">
        <ele>202.98</ele>
        <time>2021-08-17T08:07:59Z</time>
      </trkpt>
      <trkpt lat="44.48229" lon="1.5276">
        <ele>203.94</ele>
        <time>2021-08-17T08:08:06Z</time>
      </trkpt>
      <trkpt lat="44.48231" lon="1.52763">
        <ele>204.42</ele>
        <time>2021-08-17T08:08:09Z</time>
      </trkpt>
      <trkpt lat="44.48231" lon="1.52765">
        <ele>204.42</ele>
        <time>2021-08-17T08:08:10Z</time>
      </trkpt>
      <trkpt lat="44.48233" lon="1.52774">
        <ele>205.38</ele>
        <time>2021-08-17T08:08:18Z</time>
      </trkpt>
      <trkpt lat="44.48235" lon="1.52783">
        <ele>206.82</ele>
        <time>2021-08-17T08:08:27Z</time>
      </trkpt>
      <trkpt lat="44.48242" lon="1.52793">
        <ele>208.26</ele>
        <time>2021-08-17T08:08:38Z</time>
      </trkpt>
      <trkpt lat="44.48247" lon="1.52801">
        <ele>209.7</ele>
        <time>2021-08-17T08:08:48Z</time>
      </trkpt>
      <trkpt lat="44.48252" lon="1.52806">
        <ele>210.67</ele>
        <time>2021-08-17T08:08:57Z</time>
      </trkpt>
      <trkpt lat="44.48258" lon="1.5281">
        <ele>212.11</ele>
        <time>2021-08-17T08:09:07Z</time>
      </trkpt>
      <trkpt lat="44.48264" lon="1.52816">
        <ele>213.07</ele>
        <time>2021-08-17T08:09:18Z</time>
      </trkpt>
      <trkpt lat="44.48264" lon="1.52817">
        <ele>213.07</ele>
        <time>2021-08-17T08:09:27Z</time>
      </trkpt>
      <trkpt lat="44.48265" lon="1.52818">
        <ele>213.07</ele>
        <time>2021-08-17T08:09:45Z</time>
      </trkpt>
      <trkpt lat="44.48266" lon="1.52818">
        <ele>213.07</ele>
        <time>2021-08-17T08:10:01Z</time>
      </trkpt>
      <trkpt lat="44.48265" lon="1.52817">
        <ele>213.55</ele>
        <time>2021-08-17T08:10:15Z</time>
      </trkpt>
      <trkpt lat="44.48264" lon="1.52817">
        <ele>213.55</ele>
        <time>2021-08-17T08:10:28Z</time>
      </trkpt>
      <trkpt lat="44.48266" lon="1.5282">
        <ele>213.55</ele>
        <time>2021-08-17T08:10:40Z</time>
      </trkpt>
      <trkpt lat="44.48265" lon="1.52819">
        <ele>213.55</ele>
        <time>2021-08-17T08:10:48Z</time>
      </trkpt>
      <trkpt lat="44.48267" lon="1.52818">
        <ele>213.55</ele>
        <time>2021-08-17T08:11:07Z</time>
      </trkpt>
      <trkpt lat="44.48267" lon="1.52819">
        <ele>213.55</ele>
        <time>2021-08-17T08:11:23Z</time>
      </trkpt>
      <trkpt lat="44.48266" lon="1.52817">
        <ele>213.55</ele>
        <time>2021-08-17T08:11:38Z</time>
      </trkpt>
      <trkpt lat="44.48266" lon="1.52817">
        <ele>213.55</ele>
        <time>2021-08-17T08:11:54Z</time>
      </trkpt>
      <trkpt lat="44.48271" lon="1.52818">
        <ele>214.51</ele>
        <time>2021-08-17T08:12:01Z</time>
      </trkpt>
      <trkpt lat="44.48276" lon="1.52821">
        <ele>215.47</ele>
        <time>2021-08-17T08:12:09Z</time>
      </trkpt>
      <trkpt lat="44.48284" lon="1.52824">
        <ele>216.43</ele>
        <time>2021-08-17T08:12:18Z</time>
      </trkpt>
      <trkpt lat="44.48285" lon="1.52825">
        <ele>216.91</ele>
        <time>2021-08-17T08:12:20Z</time>
      </trkpt>
      <trkpt lat="44.48294" lon="1.52829">
        <ele>218.36</ele>
        <time>2021-08-17T08:12:30Z</time>
      </trkpt>
      <trkpt lat="44.48302" lon="1.52831">
        <ele>219.8</ele>
        <time>2021-08-17T08:12:41Z</time>
      </trkpt>
      <trkpt lat="44.48312" lon="1.52834">
        <ele>221.24</ele>
        <time>2021-08-17T08:12:52Z</time>
      </trkpt>
      <trkpt lat="44.48319" lon="1.52839">
        <ele>223.16</ele>
        <time>2021-08-17T08:13:02Z</time>
      </trkpt>
      <trkpt lat="44.48327" lon="1.52839">
        <ele>224.61</ele>
        <time>2021-08-17T08:13:11Z</time>
      </trkpt>
      <trkpt lat="44.48327" lon="1.52838">
        <ele>224.61</ele>
        <time>2021-08-17T08:13:12Z</time>
      </trkpt>
      <trkpt lat="44.4833" lon="1.52829">
        <ele>225.57</ele>
        <time>2021-08-17T08:13:22Z</time>
      </trkpt>
      <trkpt lat="44.48331" lon="1.52827">
        <ele>226.05</ele>
        <time>2021-08-17T08:13:27Z</time>
      </trkpt>
      <trkpt lat="44.48332" lon="1.52825">
        <ele>226.05</ele>
        <time>2021-08-17T08:13:28Z</time>
      </trkpt>
      <trkpt lat="44.48332" lon="1.52823">
        <ele>226.05</ele>
        <time>2021-08-17T08:13:29Z</time>
      </trkpt>
      <trkpt lat="44.48332" lon="1.52821">
        <ele>226.05</ele>
        <time>2021-08-17T08:13:30Z</time>
      </trkpt>
      <trkpt lat="44.48332" lon="1.52819">
        <ele>226.53</ele>
        <time>2021-08-17T08:13:31Z</time>
      </trkpt>
      <trkpt lat="44.48333" lon="1.52817">
        <ele>226.53</ele>
        <time>2021-08-17T08:13:32Z</time>
      </trkpt>
      <trkpt lat="44.48334" lon="1.52815">
        <ele>226.53</ele>
        <time>2021-08-17T08:13:33Z</time>
      </trkpt>
      <trkpt lat="44.48335" lon="1.52813">
        <ele>226.53</ele>
        <time>2021-08-17T08:13:34Z</time>
      </trkpt>
      <trkpt lat="44.48336" lon="1.52811">
        <ele>227.01</ele>
        <time>2021-08-17T08:13:35Z</time>
      </trkpt>
      <trkpt lat="44.48338" lon="1.5281">
        <ele>227.01</ele>
        <time>2021-08-17T08:13:36Z</time>
      </trkpt>
      <trkpt lat="44.48343" lon="1.52808">
        <ele>227.97</ele>
        <time>2021-08-17T08:13:40Z</time>
      </trkpt>
      <trkpt lat="44.48344" lon="1.52808">
        <ele>227.97</ele>
        <time>2021-08-17T08:13:41Z</time>
      </trkpt>
      <trkpt lat="44.48345" lon="1.52809">
        <ele>227.97</ele>
        <time>2021-08-17T08:13:42Z</time>
      </trkpt>
      <trkpt lat="44.48347" lon="1.52809">
        <ele>227.97</ele>
        <time>2021-08-17T08:13:43Z</time>
      </trkpt>
      <trkpt lat="44.48348" lon="1.5281">
        <ele>227.97</ele>
        <time>2021-08-17T08:13:44Z</time>
      </trkpt>
      <trkpt lat="44.48349" lon="1.5281">
        <ele>228.45</ele>
        <time>2021-08-17T08:13:45Z</time>
      </trkpt>
      <trkpt lat="44.4835" lon="1.5281">
        <ele>228.45</ele>
        <time>2021-08-17T08:13:46Z</time>
      </trkpt>
      <trkpt lat="44.48352" lon="1.52809">
        <ele>228.45</ele>
        <time>2021-08-17T08:13:47Z</time>
      </trkpt>
      <trkpt lat="44.48353" lon="1.52809">
        <ele>228.45</ele>
        <time>2021-08-17T08:13:48Z</time>
      </trkpt>
      <trkpt lat="44.48355" lon="1.52809">
        <ele>229.41</ele>
        <time>2021-08-17T08:13:49Z</time>
      </trkpt>
      <trkpt lat="44.48356" lon="1.52809">
        <ele>229.41</ele>
        <time>2021-08-17T08:13:50Z</time>
      </trkpt>
      <trkpt lat="44.48369" lon="1.5281">
        <ele>230.85</ele>
        <time>2021-08-17T08:14:01Z</time>
      </trkpt>
      <trkpt lat="44.48371" lon="1.5281">
        <ele>230.85</ele>
        <time>2021-08-17T08:14:02Z</time>
      </trkpt>
      <trkpt lat="44.48372" lon="1.5281">
        <ele>231.33</ele>
        <time>2021-08-17T08:14:03Z</time>
      </trkpt>
      <trkpt lat="44.48373" lon="1.5281">
        <ele>231.33</ele>
        <time>2021-08-17T08:14:04Z</time>
      </trkpt>
      <trkpt lat="44.48374" lon="1.52811">
        <ele>231.33</ele>
        <time>2021-08-17T08:14:05Z</time>
      </trkpt>
      <trkpt lat="44.48375" lon="1.52811">
        <ele>231.81</ele>
        <time>2021-08-17T08:14:06Z</time>
      </trkpt>
      <trkpt lat="44.48377" lon="1.52811">
        <ele>231.81</ele>
        <time>2021-08-17T08:14:07Z</time>
      </trkpt>
      <trkpt lat="44.48378" lon="1.52811">
        <ele>231.81</ele>
        <time>2021-08-17T08:14:08Z</time>
      </trkpt>
      <trkpt lat="44.48379" lon="1.52811">
        <ele>232.3</ele>
        <time>2021-08-17T08:14:09Z</time>
      </trkpt>
      <trkpt lat="44.4838" lon="1.52811">
        <ele>232.3</ele>
        <time>2021-08-17T08:14:10Z</time>
      </trkpt>
      <trkpt lat="44.48382" lon="1.52811">
        <ele>232.3</ele>
        <time>2021-08-17T08:14:11Z</time>
      </trkpt>
      <trkpt lat="44.48392" lon="1.52811">
        <ele>233.74</ele>
        <time>2021-08-17T08:14:20Z</time>
      </trkpt>
      <trkpt lat="44.484" lon="1.52814">
        <ele>235.18</ele>
        <time>2021-08-17T08:14:28Z</time>
      </trkpt>
      <trkpt lat="44.48401" lon="1.52815">
        <ele>235.18</ele>
        <time>2021-08-17T08:14:29Z</time>
      </trkpt>
      <trkpt lat="44.48405" lon="1.52819">
        <ele>235.66</ele>
        <time>2021-08-17T08:14:35Z</time>
      </trkpt>
      <trkpt lat="44.48412" lon="1.52827">
        <ele>237.58</ele>
        <time>2021-08-17T08:14:46Z</time>
      </trkpt>
      <trkpt lat="44.48419" lon="1.52836">
        <ele>239.02</ele>
        <time>2021-08-17T08:14:56Z</time>
      </trkpt>
      <trkpt lat="44.48428" lon="1.52846">
        <ele>240.47</ele>
        <time>2021-08-17T08:15:07Z</time>
      </trkpt>
      <trkpt lat="44.48435" lon="1.52856">
        <ele>241.91</ele>
        <time>2021-08-17T08:15:17Z</time>
      </trkpt>
      <trkpt lat="44.48435" lon="1.52857">
        <ele>242.39</ele>
        <time>2021-08-17T08:15:18Z</time>
      </trkpt>
      <trkpt lat="44.48436" lon="1.52858">
        <ele>242.39</ele>
        <time>2021-08-17T08:15:19Z</time>
      </trkpt>
      <trkpt lat="44.48436" lon="1.5286">
        <ele>242.39</ele>
        <time>2021-08-17T08:15:20Z</time>
      </trkpt>
      <trkpt lat="44.48437" lon="1.5287">
        <ele>243.35</ele>
        <time>2021-08-17T08:15:28Z</time>
      </trkpt>
      <trkpt lat="44.48436" lon="1.52879">
        <ele>244.31</ele>
        <time>2021-08-17T08:15:36Z</time>
      </trkpt>
      <trkpt lat="44.48433" lon="1.52882">
        <ele>244.31</ele>
        <time>2021-08-17T08:15:40Z</time>
      </trkpt>
      <trkpt lat="44.48431" lon="1.52885">
        <ele>244.31</ele>
        <time>2021-08-17T08:15:41Z</time>
      </trkpt>
      <trkpt lat="44.4843" lon="1.52886">
        <ele>244.79</ele>
        <time>2021-08-17T08:15:42Z</time>
      </trkpt>
      <trkpt lat="44.48429" lon="1.52888">
        <ele>244.79</ele>
        <time>2021-08-17T08:15:43Z</time>
      </trkpt>
      <trkpt lat="44.48429" lon="1.5289">
        <ele>244.79</ele>
        <time>2021-08-17T08:15:44Z</time>
      </trkpt>
      <trkpt lat="44.4842" lon="1.52918">
        <ele>245.27</ele>
        <time>2021-08-17T08:15:53Z</time>
      </trkpt>
      <trkpt lat="44.48417" lon="1.5295">
        <ele>246.23</ele>
        <time>2021-08-17T08:16:01Z</time>
      </trkpt>
      <trkpt lat="44.4841" lon="1.52977">
        <ele>246.72</ele>
        <time>2021-08-17T08:16:09Z</time>
      </trkpt>
      <trkpt lat="44.48404" lon="1.53">
        <ele>247.68</ele>
        <time>2021-08-17T08:16:17Z</time>
      </trkpt>
      <trkpt lat="44.48398" lon="1.53026">
        <ele>249.12</ele>
        <time>2021-08-17T08:16:27Z</time>
      </trkpt>
      <trkpt lat="44.48396" lon="1.53032">
        <ele>250.08</ele>
        <time>2021-08-17T08:16:30Z</time>
      </trkpt>
      <trkpt lat="44.48396" lon="1.53034">
        <ele>250.08</ele>
        <time>2021-08-17T08:16:31Z</time>
      </trkpt>
      <trkpt lat="44.48396" lon="1.53036">
        <ele>250.08</ele>
        <time>2021-08-17T08:16:32Z</time>
      </trkpt>
      <trkpt lat="44.48396" lon="1.53038">
        <ele>250.08</ele>
        <time>2021-08-17T08:16:33Z</time>
      </trkpt>
      <trkpt lat="44.48396" lon="1.5304">
        <ele>250.08</ele>
        <time>2021-08-17T08:16:34Z</time>
      </trkpt>
      <trkpt lat="44.48394" lon="1.53062">
        <ele>252</ele>
        <time>2021-08-17T08:16:44Z</time>
      </trkpt>
      <trkpt lat="44.48393" lon="1.53086">
        <ele>253.44</ele>
        <time>2021-08-17T08:16:55Z</time>
      </trkpt>
      <trkpt lat="44.4839" lon="1.53107">
        <ele>253.93</ele>
        <time>2021-08-17T08:17:03Z</time>
      </trkpt>
      <trkpt lat="44.48388" lon="1.53129">
        <ele>255.37</ele>
        <time>2021-08-17T08:17:12Z</time>
      </trkpt>
      <trkpt lat="44.48386" lon="1.53139">
        <ele>255.85</ele>
        <time>2021-08-17T08:17:16Z</time>
      </trkpt>
      <trkpt lat="44.48386" lon="1.53141">
        <ele>255.85</ele>
        <time>2021-08-17T08:17:17Z</time>
      </trkpt>
      <trkpt lat="44.48385" lon="1.53144">
        <ele>256.81</ele>
        <time>2021-08-17T08:17:18Z</time>
      </trkpt>
      <trkpt lat="44.48371" lon="1.53169">
        <ele>256.33</ele>
        <time>2021-08-17T08:17:26Z</time>
      </trkpt>
      <trkpt lat="44.48354" lon="1.53205">
        <ele>256.33</ele>
        <time>2021-08-17T08:17:34Z</time>
      </trkpt>
      <trkpt lat="44.4834" lon="1.53233">
        <ele>254.89</ele>
        <time>2021-08-17T08:17:40Z</time>
      </trkpt>
      <trkpt lat="44.48336" lon="1.53238">
        <ele>253.93</ele>
        <time>2021-08-17T08:17:41Z</time>
      </trkpt>
      <trkpt lat="44.48322" lon="1.53256">
        <ele>252.96</ele>
        <time>2021-08-17T08:17:45Z</time>
      </trkpt>
      <trkpt lat="44.48319" lon="1.53261">
        <ele>252</ele>
        <time>2021-08-17T08:17:46Z</time>
      </trkpt>
      <trkpt lat="44.48313" lon="1.53276">
        <ele>251.52</ele>
        <time>2021-08-17T08:17:49Z</time>
      </trkpt>
      <trkpt lat="44.48313" lon="1.53281">
        <ele>251.52</ele>
        <time>2021-08-17T08:17:50Z</time>
      </trkpt>
      <trkpt lat="44.48314" lon="1.53284">
        <ele>251.52</ele>
        <time>2021-08-17T08:17:51Z</time>
      </trkpt>
      <trkpt lat="44.48315" lon="1.53287">
        <ele>251.52</ele>
        <time>2021-08-17T08:17:52Z</time>
      </trkpt>
      <trkpt lat="44.48317" lon="1.5329">
        <ele>251.52</ele>
        <time>2021-08-17T08:17:53Z</time>
      </trkpt>
      <trkpt lat="44.48318" lon="1.53292">
        <ele>251.52</ele>
        <time>2021-08-17T08:17:54Z</time>
      </trkpt>
      <trkpt lat="44.48319" lon="1.53294">
        <ele>251.52</ele>
        <time>2021-08-17T08:17:55Z</time>
      </trkpt>
      <trkpt lat="44.4832" lon="1.53296">
        <ele>251.52</ele>
        <time>2021-08-17T08:17:56Z</time>
      </trkpt>
      <trkpt lat="44.48321" lon="1.53297">
        <ele>251.52</ele>
        <time>2021-08-17T08:17:57Z</time>
      </trkpt>
      <trkpt lat="44.48326" lon="1.53301">
        <ele>252.96</ele>
        <time>2021-08-17T08:18:00Z</time>
      </trkpt>
      <trkpt lat="44.48337" lon="1.53312">
        <ele>254.41</ele>
        <time>2021-08-17T08:18:09Z</time>
      </trkpt>
      <trkpt lat="44.48342" lon="1.53316">
        <ele>255.37</ele>
        <time>2021-08-17T08:18:16Z</time>
      </trkpt>
      <trkpt lat="44.4835" lon="1.53324">
        <ele>256.81</ele>
        <time>2021-08-17T08:18:26Z</time>
      </trkpt>
      <trkpt lat="44.48356" lon="1.5333">
        <ele>257.77</ele>
        <time>2021-08-17T08:18:34Z</time>
      </trkpt>
      <trkpt lat="44.48361" lon="1.53333">
        <ele>258.25</ele>
        <time>2021-08-17T08:18:41Z</time>
      </trkpt>
      <trkpt lat="44.48367" lon="1.53338">
        <ele>259.21</ele>
        <time>2021-08-17T08:18:47Z</time>
      </trkpt>
      <trkpt lat="44.48376" lon="1.53347">
        <ele>260.65</ele>
        <time>2021-08-17T08:18:55Z</time>
      </trkpt>
      <trkpt lat="44.48383" lon="1.53353">
        <ele>261.14</ele>
        <time>2021-08-17T08:19:01Z</time>
      </trkpt>
      <trkpt lat="44.48384" lon="1.53354">
        <ele>261.14</ele>
        <time>2021-08-17T08:19:02Z</time>
      </trkpt>
      <trkpt lat="44.48385" lon="1.53355">
        <ele>261.62</ele>
        <time>2021-08-17T08:19:03Z</time>
      </trkpt>
      <trkpt lat="44.48386" lon="1.53356">
        <ele>261.62</ele>
        <time>2021-08-17T08:19:04Z</time>
      </trkpt>
      <trkpt lat="44.48387" lon="1.53356">
        <ele>261.62</ele>
        <time>2021-08-17T08:19:05Z</time>
      </trkpt>
      <trkpt lat="44.48388" lon="1.53357">
        <ele>262.1</ele>
        <time>2021-08-17T08:19:06Z</time>
      </trkpt>
      <trkpt lat="44.4839" lon="1.53358">
        <ele>262.1</ele>
        <time>2021-08-17T08:19:07Z</time>
      </trkpt>
      <trkpt lat="44.48391" lon="1.53359">
        <ele>262.58</ele>
        <time>2021-08-17T08:19:08Z</time>
      </trkpt>
      <trkpt lat="44.48392" lon="1.5336">
        <ele>262.58</ele>
        <time>2021-08-17T08:19:09Z</time>
      </trkpt>
      <trkpt lat="44.48402" lon="1.53367">
        <ele>263.54</ele>
        <time>2021-08-17T08:19:18Z</time>
      </trkpt>
      <trkpt lat="44.48405" lon="1.53369">
        <ele>264.02</ele>
        <time>2021-08-17T08:19:20Z</time>
      </trkpt>
      <trkpt lat="44.48406" lon="1.5337">
        <ele>264.02</ele>
        <time>2021-08-17T08:19:21Z</time>
      </trkpt>
      <trkpt lat="44.48407" lon="1.53371">
        <ele>264.5</ele>
        <time>2021-08-17T08:19:22Z</time>
      </trkpt>
      <trkpt lat="44.48409" lon="1.53373">
        <ele>264.5</ele>
        <time>2021-08-17T08:19:24Z</time>
      </trkpt>
      <trkpt lat="44.4841" lon="1.53374">
        <ele>264.98</ele>
        <time>2021-08-17T08:19:25Z</time>
      </trkpt>
      <trkpt lat="44.48411" lon="1.53375">
        <ele>264.98</ele>
        <time>2021-08-17T08:19:26Z</time>
      </trkpt>
      <trkpt lat="44.48412" lon="1.53376">
        <ele>264.98</ele>
        <time>2021-08-17T08:19:27Z</time>
      </trkpt>
      <trkpt lat="44.48414" lon="1.53376">
        <ele>265.46</ele>
        <time>2021-08-17T08:19:28Z</time>
      </trkpt>
      <trkpt lat="44.48416" lon="1.53379">
        <ele>265.46</ele>
        <time>2021-08-17T08:19:30Z</time>
      </trkpt>
      <trkpt lat="44.48417" lon="1.5338">
        <ele>265.46</ele>
        <time>2021-08-17T08:19:31Z</time>
      </trkpt>
      <trkpt lat="44.48428" lon="1.5339">
        <ele>267.38</ele>
        <time>2021-08-17T08:19:42Z</time>
      </trkpt>
      <trkpt lat="44.48437" lon="1.53398">
        <ele>269.31</ele>
        <time>2021-08-17T08:19:50Z</time>
      </trkpt>
      <trkpt lat="44.48447" lon="1.53408">
        <ele>270.75</ele>
        <time>2021-08-17T08:19:59Z</time>
      </trkpt>
      <trkpt lat="44.48448" lon="1.53408">
        <ele>270.75</ele>
        <time>2021-08-17T08:20:00Z</time>
      </trkpt>
      <trkpt lat="44.48449" lon="1.53409">
        <ele>270.75</ele>
        <time>2021-08-17T08:20:01Z</time>
      </trkpt>
      <trkpt lat="44.4845" lon="1.5341">
        <ele>271.23</ele>
        <time>2021-08-17T08:20:02Z</time>
      </trkpt>
      <trkpt lat="44.48452" lon="1.53411">
        <ele>271.23</ele>
        <time>2021-08-17T08:20:03Z</time>
      </trkpt>
      <trkpt lat="44.48453" lon="1.53412">
        <ele>271.71</ele>
        <time>2021-08-17T08:20:04Z</time>
      </trkpt>
      <trkpt lat="44.48454" lon="1.53413">
        <ele>271.71</ele>
        <time>2021-08-17T08:20:05Z</time>
      </trkpt>
      <trkpt lat="44.48455" lon="1.53415">
        <ele>271.71</ele>
        <time>2021-08-17T08:20:06Z</time>
      </trkpt>
      <trkpt lat="44.48456" lon="1.53416">
        <ele>272.19</ele>
        <time>2021-08-17T08:20:07Z</time>
      </trkpt>
      <trkpt lat="44.48457" lon="1.53417">
        <ele>272.19</ele>
        <time>2021-08-17T08:20:08Z</time>
      </trkpt>
      <trkpt lat="44.48458" lon="1.53418">
        <ele>272.19</ele>
        <time>2021-08-17T08:20:09Z</time>
      </trkpt>
      <trkpt lat="44.48459" lon="1.53419">
        <ele>272.67</ele>
        <time>2021-08-17T08:20:10Z</time>
      </trkpt>
      <trkpt lat="44.48467" lon="1.5343">
        <ele>273.63</ele>
        <time>2021-08-17T08:20:18Z</time>
      </trkpt>
      <trkpt lat="44.48478" lon="1.53444">
        <ele>275.07</ele>
        <time>2021-08-17T08:20:28Z</time>
      </trkpt>
      <trkpt lat="44.48482" lon="1.5345">
        <ele>275.56</ele>
        <time>2021-08-17T08:20:31Z</time>
      </trkpt>
      <trkpt lat="44.48483" lon="1.53452">
        <ele>275.56</ele>
        <time>2021-08-17T08:20:32Z</time>
      </trkpt>
      <trkpt lat="44.48485" lon="1.53454">
        <ele>275.56</ele>
        <time>2021-08-17T08:20:33Z</time>
      </trkpt>
      <trkpt lat="44.48486" lon="1.53455">
        <ele>276.04</ele>
        <time>2021-08-17T08:20:34Z</time>
      </trkpt>
      <trkpt lat="44.48487" lon="1.53456">
        <ele>276.04</ele>
        <time>2021-08-17T08:20:35Z</time>
      </trkpt>
      <trkpt lat="44.48489" lon="1.53457">
        <ele>276.52</ele>
        <time>2021-08-17T08:20:36Z</time>
      </trkpt>
      <trkpt lat="44.4849" lon="1.53458">
        <ele>276.52</ele>
        <time>2021-08-17T08:20:37Z</time>
      </trkpt>
      <trkpt lat="44.48491" lon="1.53459">
        <ele>277</ele>
        <time>2021-08-17T08:20:38Z</time>
      </trkpt>
      <trkpt lat="44.48492" lon="1.5346">
        <ele>277</ele>
        <time>2021-08-17T08:20:39Z</time>
      </trkpt>
      <trkpt lat="44.48505" lon="1.53469">
        <ele>277.96</ele>
        <time>2021-08-17T08:20:49Z</time>
      </trkpt>
      <trkpt lat="44.48517" lon="1.53481">
        <ele>279.4</ele>
        <time>2021-08-17T08:20:57Z</time>
      </trkpt>
      <trkpt lat="44.48532" lon="1.53497">
        <ele>280.36</ele>
        <time>2021-08-17T08:21:06Z</time>
      </trkpt>
      <trkpt lat="44.48535" lon="1.53504">
        <ele>280.36</ele>
        <time>2021-08-17T08:21:09Z</time>
      </trkpt>
      <trkpt lat="44.48532" lon="1.53526">
        <ele>278.92</ele>
        <time>2021-08-17T08:21:15Z</time>
      </trkpt>
      <trkpt lat="44.4853" lon="1.53532">
        <ele>278.92</ele>
        <time>2021-08-17T08:21:16Z</time>
      </trkpt>
      <trkpt lat="44.48527" lon="1.53544">
        <ele>278.44</ele>
        <time>2021-08-17T08:21:18Z</time>
      </trkpt>
      <trkpt lat="44.48527" lon="1.5355">
        <ele>277.48</ele>
        <time>2021-08-17T08:21:19Z</time>
      </trkpt>
      <trkpt lat="44.48527" lon="1.53557">
        <ele>277</ele>
        <time>2021-08-17T08:21:20Z</time>
      </trkpt>
      <trkpt lat="44.48528" lon="1.53564">
        <ele>277</ele>
        <time>2021-08-17T08:21:21Z</time>
      </trkpt>
      <trkpt lat="44.4853" lon="1.53572">
        <ele>276.52</ele>
        <time>2021-08-17T08:21:22Z</time>
      </trkpt>
      <trkpt lat="44.48532" lon="1.5358">
        <ele>276.04</ele>
        <time>2021-08-17T08:21:23Z</time>
      </trkpt>
      <trkpt lat="44.48534" lon="1.53588">
        <ele>275.07</ele>
        <time>2021-08-17T08:21:24Z</time>
      </trkpt>
      <trkpt lat="44.48542" lon="1.53616">
        <ele>273.63</ele>
        <time>2021-08-17T08:21:27Z</time>
      </trkpt>
      <trkpt lat="44.48557" lon="1.53678">
        <ele>272.67</ele>
        <time>2021-08-17T08:21:34Z</time>
      </trkpt>
      <trkpt lat="44.4856" lon="1.53685">
        <ele>272.67</ele>
        <time>2021-08-17T08:21:35Z</time>
      </trkpt>
      <trkpt lat="44.48562" lon="1.53692">
        <ele>272.67</ele>
        <time>2021-08-17T08:21:36Z</time>
      </trkpt>
      <trkpt lat="44.48568" lon="1.53702">
        <ele>272.67</ele>
        <time>2021-08-17T08:21:38Z</time>
      </trkpt>
      <trkpt lat="44.48571" lon="1.53706">
        <ele>273.63</ele>
        <time>2021-08-17T08:21:39Z</time>
      </trkpt>
      <trkpt lat="44.48573" lon="1.5371">
        <ele>274.11</ele>
        <time>2021-08-17T08:21:40Z</time>
      </trkpt>
      <trkpt lat="44.48586" lon="1.53724">
        <ele>275.07</ele>
        <time>2021-08-17T08:21:46Z</time>
      </trkpt>
      <trkpt lat="44.48603" lon="1.53721">
        <ele>275.07</ele>
        <time>2021-08-17T08:21:51Z</time>
      </trkpt>
      <trkpt lat="44.48613" lon="1.53721">
        <ele>275.07</ele>
        <time>2021-08-17T08:21:54Z</time>
      </trkpt>
      <trkpt lat="44.48616" lon="1.53723">
        <ele>275.07</ele>
        <time>2021-08-17T08:21:55Z</time>
      </trkpt>
      <trkpt lat="44.48619" lon="1.53727">
        <ele>275.07</ele>
        <time>2021-08-17T08:21:56Z</time>
      </trkpt>
      <trkpt lat="44.48621" lon="1.53731">
        <ele>275.07</ele>
        <time>2021-08-17T08:21:57Z</time>
      </trkpt>
      <trkpt lat="44.48623" lon="1.53736">
        <ele>275.07</ele>
        <time>2021-08-17T08:21:58Z</time>
      </trkpt>
      <trkpt lat="44.48636" lon="1.53792">
        <ele>275.07</ele>
        <time>2021-08-17T08:22:07Z</time>
      </trkpt>
      <trkpt lat="44.48646" lon="1.53826">
        <ele>273.63</ele>
        <time>2021-08-17T08:22:12Z</time>
      </trkpt>
      <trkpt lat="44.48664" lon="1.53866">
        <ele>273.63</ele>
        <time>2021-08-17T08:22:18Z</time>
      </trkpt>
      <trkpt lat="44.48693" lon="1.53909">
        <ele>273.15</ele>
        <time>2021-08-17T08:22:26Z</time>
      </trkpt>
      <trkpt lat="44.48698" lon="1.5392">
        <ele>273.15</ele>
        <time>2021-08-17T08:22:28Z</time>
      </trkpt>
      <trkpt lat="44.48703" lon="1.53932">
        <ele>273.15</ele>
        <time>2021-08-17T08:22:30Z</time>
      </trkpt>
      <trkpt lat="44.48703" lon="1.53939">
        <ele>273.15</ele>
        <time>2021-08-17T08:22:31Z</time>
      </trkpt>
      <trkpt lat="44.48702" lon="1.53946">
        <ele>273.15</ele>
        <time>2021-08-17T08:22:32Z</time>
      </trkpt>
      <trkpt lat="44.48699" lon="1.53952">
        <ele>272.67</ele>
        <time>2021-08-17T08:22:33Z</time>
      </trkpt>
      <trkpt lat="44.48696" lon="1.53957">
        <ele>272.67</ele>
        <time>2021-08-17T08:22:34Z</time>
      </trkpt>
      <trkpt lat="44.48693" lon="1.53962">
        <ele>272.67</ele>
        <time>2021-08-17T08:22:35Z</time>
      </trkpt>
      <trkpt lat="44.48689" lon="1.53967">
        <ele>272.19</ele>
        <time>2021-08-17T08:22:36Z</time>
      </trkpt>
      <trkpt lat="44.48657" lon="1.54012">
        <ele>270.75</ele>
        <time>2021-08-17T08:22:44Z</time>
      </trkpt>
      <trkpt lat="44.48646" lon="1.54032">
        <ele>270.27</ele>
        <time>2021-08-17T08:22:47Z</time>
      </trkpt>
      <trkpt lat="44.48644" lon="1.54039">
        <ele>270.27</ele>
        <time>2021-08-17T08:22:48Z</time>
      </trkpt>
      <trkpt lat="44.48619" lon="1.54109">
        <ele>269.31</ele>
        <time>2021-08-17T08:22:58Z</time>
      </trkpt>
      <trkpt lat="44.48596" lon="1.54159">
        <ele>266.42</ele>
        <time>2021-08-17T08:23:04Z</time>
      </trkpt>
      <trkpt lat="44.48591" lon="1.54166">
        <ele>266.42</ele>
        <time>2021-08-17T08:23:05Z</time>
      </trkpt>
      <trkpt lat="44.48586" lon="1.54173">
        <ele>265.46</ele>
        <time>2021-08-17T08:23:06Z</time>
      </trkpt>
      <trkpt lat="44.48565" lon="1.54194">
        <ele>264.02</ele>
        <time>2021-08-17T08:23:10Z</time>
      </trkpt>
      <trkpt lat="44.48561" lon="1.54198">
        <ele>263.54</ele>
        <time>2021-08-17T08:23:11Z</time>
      </trkpt>
      <trkpt lat="44.48558" lon="1.54202">
        <ele>263.54</ele>
        <time>2021-08-17T08:23:12Z</time>
      </trkpt>
      <trkpt lat="44.48556" lon="1.54207">
        <ele>262.58</ele>
        <time>2021-08-17T08:23:13Z</time>
      </trkpt>
      <trkpt lat="44.48557" lon="1.54213">
        <ele>261.62</ele>
        <time>2021-08-17T08:23:14Z</time>
      </trkpt>
      <trkpt lat="44.48558" lon="1.5422">
        <ele>260.17</ele>
        <time>2021-08-17T08:23:15Z</time>
      </trkpt>
      <trkpt lat="44.4856" lon="1.54228">
        <ele>259.21</ele>
        <time>2021-08-17T08:23:16Z</time>
      </trkpt>
      <trkpt lat="44.48568" lon="1.54259">
        <ele>254.41</ele>
        <time>2021-08-17T08:23:19Z</time>
      </trkpt>
      <trkpt lat="44.48574" lon="1.54281">
        <ele>251.52</ele>
        <time>2021-08-17T08:23:21Z</time>
      </trkpt>
      <trkpt lat="44.48583" lon="1.54315">
        <ele>246.72</ele>
        <time>2021-08-17T08:23:24Z</time>
      </trkpt>
      <trkpt lat="44.48589" lon="1.54341">
        <ele>243.35</ele>
        <time>2021-08-17T08:23:26Z</time>
      </trkpt>
      <trkpt lat="44.48597" lon="1.54376">
        <ele>239.02</ele>
        <time>2021-08-17T08:23:29Z</time>
      </trkpt>
      <trkpt lat="44.48606" lon="1.54411">
        <ele>235.66</ele>
        <time>2021-08-17T08:23:32Z</time>
      </trkpt>
      <trkpt lat="44.48608" lon="1.54421">
        <ele>234.7</ele>
        <time>2021-08-17T08:23:33Z</time>
      </trkpt>
      <trkpt lat="44.48609" lon="1.54431">
        <ele>233.74</ele>
        <time>2021-08-17T08:23:34Z</time>
      </trkpt>
      <trkpt lat="44.48609" lon="1.54441">
        <ele>233.26</ele>
        <time>2021-08-17T08:23:35Z</time>
      </trkpt>
      <trkpt lat="44.48605" lon="1.54466">
        <ele>231.33</ele>
        <time>2021-08-17T08:23:38Z</time>
      </trkpt>
      <trkpt lat="44.48602" lon="1.54474">
        <ele>230.37</ele>
        <time>2021-08-17T08:23:39Z</time>
      </trkpt>
      <trkpt lat="44.48591" lon="1.54499">
        <ele>228.45</ele>
        <time>2021-08-17T08:23:42Z</time>
      </trkpt>
      <trkpt lat="44.48588" lon="1.54509">
        <ele>227.01</ele>
        <time>2021-08-17T08:23:43Z</time>
      </trkpt>
      <trkpt lat="44.48577" lon="1.54551">
        <ele>223.16</ele>
        <time>2021-08-17T08:23:47Z</time>
      </trkpt>
      <trkpt lat="44.48573" lon="1.54568">
        <ele>221.24</ele>
        <time>2021-08-17T08:23:49Z</time>
      </trkpt>
      <trkpt lat="44.48572" lon="1.54575">
        <ele>220.28</ele>
        <time>2021-08-17T08:23:50Z</time>
      </trkpt>
      <trkpt lat="44.48572" lon="1.54582">
        <ele>219.8</ele>
        <time>2021-08-17T08:23:51Z</time>
      </trkpt>
      <trkpt lat="44.48574" lon="1.54589">
        <ele>218.84</ele>
        <time>2021-08-17T08:23:52Z</time>
      </trkpt>
      <trkpt lat="44.48576" lon="1.54593">
        <ele>217.88</ele>
        <time>2021-08-17T08:23:53Z</time>
      </trkpt>
      <trkpt lat="44.48579" lon="1.54597">
        <ele>217.4</ele>
        <time>2021-08-17T08:23:54Z</time>
      </trkpt>
      <trkpt lat="44.48583" lon="1.54601">
        <ele>216.43</ele>
        <time>2021-08-17T08:23:55Z</time>
      </trkpt>
      <trkpt lat="44.48588" lon="1.54605">
        <ele>215.95</ele>
        <time>2021-08-17T08:23:56Z</time>
      </trkpt>
      <trkpt lat="44.48597" lon="1.54615">
        <ele>214.51</ele>
        <time>2021-08-17T08:23:58Z</time>
      </trkpt>
      <trkpt lat="44.486" lon="1.54622">
        <ele>214.51</ele>
        <time>2021-08-17T08:23:59Z</time>
      </trkpt>
      <trkpt lat="44.48603" lon="1.54629">
        <ele>213.55</ele>
        <time>2021-08-17T08:24:00Z</time>
      </trkpt>
      <trkpt lat="44.48606" lon="1.54637">
        <ele>213.55</ele>
        <time>2021-08-17T08:24:01Z</time>
      </trkpt>
      <trkpt lat="44.48608" lon="1.54645">
        <ele>213.55</ele>
        <time>2021-08-17T08:24:02Z</time>
      </trkpt>
      <trkpt lat="44.48609" lon="1.54653">
        <ele>213.55</ele>
        <time>2021-08-17T08:24:03Z</time>
      </trkpt>
      <trkpt lat="44.48608" lon="1.54661">
        <ele>213.55</ele>
        <time>2021-08-17T08:24:04Z</time>
      </trkpt>
      <trkpt lat="44.48607" lon="1.54667">
        <ele>213.07</ele>
        <time>2021-08-17T08:24:05Z</time>
      </trkpt>
      <trkpt lat="44.48604" lon="1.54672">
        <ele>213.07</ele>
        <time>2021-08-17T08:24:06Z</time>
      </trkpt>
      <trkpt lat="44.48601" lon="1.54678">
        <ele>213.07</ele>
        <time>2021-08-17T08:24:07Z</time>
      </trkpt>
      <trkpt lat="44.48589" lon="1.54694">
        <ele>213.07</ele>
        <time>2021-08-17T08:24:12Z</time>
      </trkpt>
      <trkpt lat="44.48578" lon="1.54707">
        <ele>213.55</ele>
        <time>2021-08-17T08:24:19Z</time>
      </trkpt>
      <trkpt lat="44.48566" lon="1.54724">
        <ele>214.51</ele>
        <time>2021-08-17T08:24:25Z</time>
      </trkpt>
      <trkpt lat="44.48552" lon="1.54744">
        <ele>214.99</ele>
        <time>2021-08-17T08:24:32Z</time>
      </trkpt>
      <trkpt lat="44.48545" lon="1.54756">
        <ele>216.43</ele>
        <time>2021-08-17T08:24:37Z</time>
      </trkpt>
      <trkpt lat="44.48544" lon="1.54757">
        <ele>216.43</ele>
        <time>2021-08-17T08:24:49Z</time>
      </trkpt>
      <trkpt lat="44.48544" lon="1.5476">
        <ele>216.43</ele>
        <time>2021-08-17T08:25:00Z</time>
      </trkpt>
      <trkpt lat="44.48541" lon="1.54764">
        <ele>216.43</ele>
        <time>2021-08-17T08:25:13Z</time>
      </trkpt>
      <trkpt lat="44.48527" lon="1.54781">
        <ele>214.99</ele>
        <time>2021-08-17T08:25:18Z</time>
      </trkpt>
      <trkpt lat="44.4852" lon="1.54791">
        <ele>214.51</ele>
        <time>2021-08-17T08:25:20Z</time>
      </trkpt>
      <trkpt lat="44.48512" lon="1.54802">
        <ele>213.55</ele>
        <time>2021-08-17T08:25:22Z</time>
      </trkpt>
      <trkpt lat="44.48499" lon="1.54821">
        <ele>212.59</ele>
        <time>2021-08-17T08:25:25Z</time>
      </trkpt>
      <trkpt lat="44.48478" lon="1.54863">
        <ele>211.63</ele>
        <time>2021-08-17T08:25:31Z</time>
      </trkpt>
      <trkpt lat="44.48472" lon="1.54876">
        <ele>210.67</ele>
        <time>2021-08-17T08:25:33Z</time>
      </trkpt>
      <trkpt lat="44.48458" lon="1.54917">
        <ele>209.22</ele>
        <time>2021-08-17T08:25:38Z</time>
      </trkpt>
      <trkpt lat="44.48456" lon="1.54925">
        <ele>209.22</ele>
        <time>2021-08-17T08:25:39Z</time>
      </trkpt>
      <trkpt lat="44.48455" lon="1.54934">
        <ele>208.26</ele>
        <time>2021-08-17T08:25:40Z</time>
      </trkpt>
      <trkpt lat="44.48454" lon="1.54943">
        <ele>208.26</ele>
        <time>2021-08-17T08:25:41Z</time>
      </trkpt>
      <trkpt lat="44.48454" lon="1.54953">
        <ele>207.3</ele>
        <time>2021-08-17T08:25:42Z</time>
      </trkpt>
      <trkpt lat="44.48455" lon="1.54962">
        <ele>207.78</ele>
        <time>2021-08-17T08:25:43Z</time>
      </trkpt>
      <trkpt lat="44.48455" lon="1.5497">
        <ele>207.3</ele>
        <time>2021-08-17T08:25:44Z</time>
      </trkpt>
      <trkpt lat="44.48454" lon="1.54978">
        <ele>207.3</ele>
        <time>2021-08-17T08:25:45Z</time>
      </trkpt>
      <trkpt lat="44.48454" lon="1.54983">
        <ele>206.34</ele>
        <time>2021-08-17T08:25:46Z</time>
      </trkpt>
      <trkpt lat="44.48452" lon="1.54988">
        <ele>205.38</ele>
        <time>2021-08-17T08:25:47Z</time>
      </trkpt>
      <trkpt lat="44.48451" lon="1.54994">
        <ele>204.9</ele>
        <time>2021-08-17T08:25:48Z</time>
      </trkpt>
      <trkpt lat="44.48451" lon="1.54999">
        <ele>203.94</ele>
        <time>2021-08-17T08:25:49Z</time>
      </trkpt>
      <trkpt lat="44.4845" lon="1.55019">
        <ele>201.53</ele>
        <time>2021-08-17T08:25:54Z</time>
      </trkpt>
      <trkpt lat="44.48452" lon="1.55022">
        <ele>201.05</ele>
        <time>2021-08-17T08:25:55Z</time>
      </trkpt>
      <trkpt lat="44.48456" lon="1.55024">
        <ele>200.09</ele>
        <time>2021-08-17T08:25:56Z</time>
      </trkpt>
      <trkpt lat="44.4846" lon="1.55027">
        <ele>199.13</ele>
        <time>2021-08-17T08:25:57Z</time>
      </trkpt>
      <trkpt lat="44.48465" lon="1.5503">
        <ele>198.17</ele>
        <time>2021-08-17T08:25:58Z</time>
      </trkpt>
      <trkpt lat="44.48479" lon="1.55037">
        <ele>194.8</ele>
        <time>2021-08-17T08:26:02Z</time>
      </trkpt>
      <trkpt lat="44.48499" lon="1.55039">
        <ele>190.96</ele>
        <time>2021-08-17T08:26:07Z</time>
      </trkpt>
      <trkpt lat="44.48503" lon="1.5504">
        <ele>190.48</ele>
        <time>2021-08-17T08:26:08Z</time>
      </trkpt>
      <trkpt lat="44.48523" lon="1.55049">
        <ele>186.63</ele>
        <time>2021-08-17T08:26:12Z</time>
      </trkpt>
      <trkpt lat="44.48543" lon="1.55058">
        <ele>184.71</ele>
        <time>2021-08-17T08:26:15Z</time>
      </trkpt>
      <trkpt lat="44.48556" lon="1.55068">
        <ele>183.75</ele>
        <time>2021-08-17T08:26:19Z</time>
      </trkpt>
      <trkpt lat="44.48555" lon="1.55069">
        <ele>183.75</ele>
        <time>2021-08-17T08:26:20Z</time>
      </trkpt>
      <trkpt lat="44.48553" lon="1.55068">
        <ele>183.27</ele>
        <time>2021-08-17T08:26:21Z</time>
      </trkpt>
      <trkpt lat="44.4855" lon="1.55067">
        <ele>183.27</ele>
        <time>2021-08-17T08:26:22Z</time>
      </trkpt>
      <trkpt lat="44.48543" lon="1.55065">
        <ele>181.83</ele>
        <time>2021-08-17T08:26:24Z</time>
      </trkpt>
      <trkpt lat="44.48526" lon="1.55068">
        <ele>178.46</ele>
        <time>2021-08-17T08:26:30Z</time>
      </trkpt>
      <trkpt lat="44.48527" lon="1.5507">
        <ele>178.46</ele>
        <time>2021-08-17T08:26:31Z</time>
      </trkpt>
      <trkpt lat="44.48529" lon="1.55072">
        <ele>177.98</ele>
        <time>2021-08-17T08:26:32Z</time>
      </trkpt>
      <trkpt lat="44.48532" lon="1.55073">
        <ele>177.5</ele>
        <time>2021-08-17T08:26:33Z</time>
      </trkpt>
      <trkpt lat="44.48534" lon="1.55076">
        <ele>177.5</ele>
        <time>2021-08-17T08:26:34Z</time>
      </trkpt>
      <trkpt lat="44.48537" lon="1.55079">
        <ele>176.54</ele>
        <time>2021-08-17T08:26:35Z</time>
      </trkpt>
      <trkpt lat="44.48539" lon="1.55081">
        <ele>176.06</ele>
        <time>2021-08-17T08:26:36Z</time>
      </trkpt>
      <trkpt lat="44.4855" lon="1.55096">
        <ele>172.69</ele>
        <time>2021-08-17T08:26:41Z</time>
      </trkpt>
      <trkpt lat="44.48563" lon="1.55115">
        <ele>169.33</ele>
        <time>2021-08-17T08:26:46Z</time>
      </trkpt>
      <trkpt lat="44.48576" lon="1.55134">
        <ele>165.96</ele>
        <time>2021-08-17T08:26:49Z</time>
      </trkpt>
      <trkpt lat="44.48579" lon="1.55139">
        <ele>165.96</ele>
        <time>2021-08-17T08:26:50Z</time>
      </trkpt>
      <trkpt lat="44.48583" lon="1.55146">
        <ele>164.52</ele>
        <time>2021-08-17T08:26:52Z</time>
      </trkpt>
      <trkpt lat="44.48583" lon="1.55149">
        <ele>164.52</ele>
        <time>2021-08-17T08:26:53Z</time>
      </trkpt>
      <trkpt lat="44.48581" lon="1.55149">
        <ele>163.56</ele>
        <time>2021-08-17T08:26:54Z</time>
      </trkpt>
      <trkpt lat="44.48577" lon="1.55147">
        <ele>162.6</ele>
        <time>2021-08-17T08:26:55Z</time>
      </trkpt>
      <trkpt lat="44.48572" lon="1.55145">
        <ele>161.64</ele>
        <time>2021-08-17T08:26:56Z</time>
      </trkpt>
      <trkpt lat="44.48562" lon="1.55139">
        <ele>158.75</ele>
        <time>2021-08-17T08:26:58Z</time>
      </trkpt>
      <trkpt lat="44.48555" lon="1.55138">
        <ele>157.31</ele>
        <time>2021-08-17T08:26:59Z</time>
      </trkpt>
      <trkpt lat="44.48547" lon="1.55137">
        <ele>155.39</ele>
        <time>2021-08-17T08:27:00Z</time>
      </trkpt>
      <trkpt lat="44.48533" lon="1.55136">
        <ele>152.51</ele>
        <time>2021-08-17T08:27:02Z</time>
      </trkpt>
      <trkpt lat="44.48519" lon="1.55138">
        <ele>149.62</ele>
        <time>2021-08-17T08:27:05Z</time>
      </trkpt>
      <trkpt lat="44.48514" lon="1.55139">
        <ele>148.18</ele>
        <time>2021-08-17T08:27:06Z</time>
      </trkpt>
      <trkpt lat="44.48497" lon="1.55137">
        <ele>144.34</ele>
        <time>2021-08-17T08:27:09Z</time>
      </trkpt>
      <trkpt lat="44.48492" lon="1.55136">
        <ele>142.89</ele>
        <time>2021-08-17T08:27:10Z</time>
      </trkpt>
      <trkpt lat="44.48487" lon="1.55135">
        <ele>141.45</ele>
        <time>2021-08-17T08:27:11Z</time>
      </trkpt>
      <trkpt lat="44.48483" lon="1.55135">
        <ele>140.97</ele>
        <time>2021-08-17T08:27:12Z</time>
      </trkpt>
      <trkpt lat="44.4848" lon="1.55136">
        <ele>140.01</ele>
        <time>2021-08-17T08:27:13Z</time>
      </trkpt>
      <trkpt lat="44.48478" lon="1.55138">
        <ele>140.49</ele>
        <time>2021-08-17T08:27:14Z</time>
      </trkpt>
      <trkpt lat="44.48476" lon="1.55141">
        <ele>140.49</ele>
        <time>2021-08-17T08:27:15Z</time>
      </trkpt>
      <trkpt lat="44.48477" lon="1.55144">
        <ele>139.53</ele>
        <time>2021-08-17T08:27:16Z</time>
      </trkpt>
      <trkpt lat="44.4848" lon="1.55147">
        <ele>139.53</ele>
        <time>2021-08-17T08:27:17Z</time>
      </trkpt>
      <trkpt lat="44.48484" lon="1.55149">
        <ele>139.05</ele>
        <time>2021-08-17T08:27:18Z</time>
      </trkpt>
      <trkpt lat="44.48511" lon="1.55166">
        <ele>136.64</ele>
        <time>2021-08-17T08:27:24Z</time>
      </trkpt>
      <trkpt lat="44.4852" lon="1.55174">
        <ele>135.68</ele>
        <time>2021-08-17T08:27:26Z</time>
      </trkpt>
      <trkpt lat="44.48534" lon="1.55187">
        <ele>134.24</ele>
        <time>2021-08-17T08:27:31Z</time>
      </trkpt>
      <trkpt lat="44.48542" lon="1.55193">
        <ele>134.24</ele>
        <time>2021-08-17T08:27:38Z</time>
      </trkpt>
      <trkpt lat="44.48543" lon="1.55197">
        <ele>134.72</ele>
        <time>2021-08-17T08:27:42Z</time>
      </trkpt>
      <trkpt lat="44.48542" lon="1.55198">
        <ele>134.72</ele>
        <time>2021-08-17T08:27:43Z</time>
      </trkpt>
      <trkpt lat="44.48541" lon="1.55197">
        <ele>134.72</ele>
        <time>2021-08-17T08:27:44Z</time>
      </trkpt>
      <trkpt lat="44.48539" lon="1.55196">
        <ele>134.72</ele>
        <time>2021-08-17T08:27:45Z</time>
      </trkpt>
      <trkpt lat="44.48538" lon="1.55196">
        <ele>134.72</ele>
        <time>2021-08-17T08:27:46Z</time>
      </trkpt>
      <trkpt lat="44.48535" lon="1.55195">
        <ele>134.72</ele>
        <time>2021-08-17T08:27:47Z</time>
      </trkpt>
      <trkpt lat="44.48533" lon="1.55195">
        <ele>134.72</ele>
        <time>2021-08-17T08:27:48Z</time>
      </trkpt>
      <trkpt lat="44.48516" lon="1.55182">
        <ele>134.72</ele>
        <time>2021-08-17T08:27:54Z</time>
      </trkpt>
      <trkpt lat="44.48509" lon="1.55177">
        <ele>134.72</ele>
        <time>2021-08-17T08:27:56Z</time>
      </trkpt>
      <trkpt lat="44.48505" lon="1.55174">
        <ele>134.72</ele>
        <time>2021-08-17T08:27:57Z</time>
      </trkpt>
      <trkpt lat="44.48488" lon="1.55162">
        <ele>133.76</ele>
        <time>2021-08-17T08:28:01Z</time>
      </trkpt>
      <trkpt lat="44.48483" lon="1.55159">
        <ele>133.76</ele>
        <time>2021-08-17T08:28:02Z</time>
      </trkpt>
      <trkpt lat="44.48462" lon="1.55153">
        <ele>133.76</ele>
        <time>2021-08-17T08:28:06Z</time>
      </trkpt>
      <trkpt lat="44.48457" lon="1.55152">
        <ele>133.28</ele>
        <time>2021-08-17T08:28:07Z</time>
      </trkpt>
      <trkpt lat="44.48414" lon="1.55147">
        <ele>132.32</ele>
        <time>2021-08-17T08:28:15Z</time>
      </trkpt>
      <trkpt lat="44.48378" lon="1.55146">
        <ele>133.76</ele>
        <time>2021-08-17T08:28:22Z</time>
      </trkpt>
      <trkpt lat="44.48359" lon="1.55149">
        <ele>135.2</ele>
        <time>2021-08-17T08:28:28Z</time>
      </trkpt>
      <trkpt lat="44.4834" lon="1.55155">
        <ele>136.16</ele>
        <time>2021-08-17T08:28:35Z</time>
      </trkpt>
      <trkpt lat="44.48323" lon="1.55163">
        <ele>136.64</ele>
        <time>2021-08-17T08:28:41Z</time>
      </trkpt>
      <trkpt lat="44.48321" lon="1.55166">
        <ele>136.64</ele>
        <time>2021-08-17T08:28:42Z</time>
      </trkpt>
      <trkpt lat="44.4832" lon="1.5517">
        <ele>137.13</ele>
        <time>2021-08-17T08:28:43Z</time>
      </trkpt>
      <trkpt lat="44.48303" lon="1.55208">
        <ele>137.13</ele>
        <time>2021-08-17T08:28:52Z</time>
      </trkpt>
      <trkpt lat="44.48289" lon="1.55234">
        <ele>136.16</ele>
        <time>2021-08-17T08:28:57Z</time>
      </trkpt>
      <trkpt lat="44.4826" lon="1.55289">
        <ele>134.24</ele>
        <time>2021-08-17T08:29:06Z</time>
      </trkpt>
      <trkpt lat="44.48229" lon="1.55347">
        <ele>132.32</ele>
        <time>2021-08-17T08:29:14Z</time>
      </trkpt>
      <trkpt lat="44.48202" lon="1.55397">
        <ele>133.76</ele>
        <time>2021-08-17T08:29:21Z</time>
      </trkpt>
      <trkpt lat="44.48199" lon="1.55403">
        <ele>133.76</ele>
        <time>2021-08-17T08:29:22Z</time>
      </trkpt>
      <trkpt lat="44.48193" lon="1.55413">
        <ele>134.24</ele>
        <time>2021-08-17T08:29:24Z</time>
      </trkpt>
      <trkpt lat="44.48191" lon="1.55417">
        <ele>134.72</ele>
        <time>2021-08-17T08:29:25Z</time>
      </trkpt>
      <trkpt lat="44.48189" lon="1.55421">
        <ele>134.72</ele>
        <time>2021-08-17T08:29:26Z</time>
      </trkpt>
      <trkpt lat="44.48176" lon="1.55443">
        <ele>136.64</ele>
        <time>2021-08-17T08:29:33Z</time>
      </trkpt>
      <trkpt lat="44.48158" lon="1.55478">
        <ele>138.09</ele>
        <time>2021-08-17T08:29:45Z</time>
      </trkpt>
      <trkpt lat="44.48147" lon="1.55499">
        <ele>139.53</ele>
        <time>2021-08-17T08:29:53Z</time>
      </trkpt>
      <trkpt lat="44.4813" lon="1.55519">
        <ele>140.01</ele>
        <time>2021-08-17T08:30:02Z</time>
      </trkpt>
      <trkpt lat="44.48112" lon="1.55519">
        <ele>141.93</ele>
        <time>2021-08-17T08:30:10Z</time>
      </trkpt>
      <trkpt lat="44.48111" lon="1.55517">
        <ele>141.93</ele>
        <time>2021-08-17T08:30:11Z</time>
      </trkpt>
      <trkpt lat="44.48109" lon="1.55515">
        <ele>141.93</ele>
        <time>2021-08-17T08:30:12Z</time>
      </trkpt>
      <trkpt lat="44.4809" lon="1.55495">
        <ele>142.41</ele>
        <time>2021-08-17T08:30:21Z</time>
      </trkpt>
      <trkpt lat="44.48072" lon="1.55487">
        <ele>142.89</ele>
        <time>2021-08-17T08:30:27Z</time>
      </trkpt>
      <trkpt lat="44.48045" lon="1.55483">
        <ele>143.37</ele>
        <time>2021-08-17T08:30:35Z</time>
      </trkpt>
      <trkpt lat="44.48021" lon="1.55487">
        <ele>143.85</ele>
        <time>2021-08-17T08:30:43Z</time>
      </trkpt>
      <trkpt lat="44.47995" lon="1.55501">
        <ele>145.78</ele>
        <time>2021-08-17T08:30:53Z</time>
      </trkpt>
      <trkpt lat="44.47978" lon="1.55513">
        <ele>146.74</ele>
        <time>2021-08-17T08:31:03Z</time>
      </trkpt>
      <trkpt lat="44.47964" lon="1.55527">
        <ele>148.18</ele>
        <time>2021-08-17T08:31:13Z</time>
      </trkpt>
      <trkpt lat="44.47955" lon="1.5554">
        <ele>149.14</ele>
        <time>2021-08-17T08:31:21Z</time>
      </trkpt>
      <trkpt lat="44.47947" lon="1.55553">
        <ele>150.58</ele>
        <time>2021-08-17T08:31:29Z</time>
      </trkpt>
      <trkpt lat="44.47934" lon="1.55572">
        <ele>152.03</ele>
        <time>2021-08-17T08:31:40Z</time>
      </trkpt>
      <trkpt lat="44.47924" lon="1.55591">
        <ele>153.47</ele>
        <time>2021-08-17T08:31:50Z</time>
      </trkpt>
      <trkpt lat="44.4791" lon="1.5561">
        <ele>153.47</ele>
        <time>2021-08-17T08:31:58Z</time>
      </trkpt>
      <trkpt lat="44.47885" lon="1.55622">
        <ele>153.47</ele>
        <time>2021-08-17T08:32:05Z</time>
      </trkpt>
      <trkpt lat="44.47856" lon="1.55624">
        <ele>153.95</ele>
        <time>2021-08-17T08:32:12Z</time>
      </trkpt>
      <trkpt lat="44.47816" lon="1.55639">
        <ele>155.87</ele>
        <time>2021-08-17T08:32:22Z</time>
      </trkpt>
      <trkpt lat="44.47788" lon="1.55651">
        <ele>156.83</ele>
        <time>2021-08-17T08:32:30Z</time>
      </trkpt>
      <trkpt lat="44.47777" lon="1.55656">
        <ele>156.83</ele>
        <time>2021-08-17T08:32:33Z</time>
      </trkpt>
      <trkpt lat="44.47773" lon="1.55658">
        <ele>156.35</ele>
        <time>2021-08-17T08:32:34Z</time>
      </trkpt>
      <trkpt lat="44.47768" lon="1.55661">
        <ele>156.35</ele>
        <time>2021-08-17T08:32:35Z</time>
      </trkpt>
      <trkpt lat="44.4776" lon="1.55668">
        <ele>155.39</ele>
        <time>2021-08-17T08:32:37Z</time>
      </trkpt>
      <trkpt lat="44.47755" lon="1.55673">
        <ele>154.43</ele>
        <time>2021-08-17T08:32:38Z</time>
      </trkpt>
      <trkpt lat="44.47739" lon="1.55691">
        <ele>152.99</ele>
        <time>2021-08-17T08:32:41Z</time>
      </trkpt>
      <trkpt lat="44.47735" lon="1.55696">
        <ele>152.99</ele>
        <time>2021-08-17T08:32:42Z</time>
      </trkpt>
      <trkpt lat="44.47732" lon="1.55703">
        <ele>152.99</ele>
        <time>2021-08-17T08:32:43Z</time>
      </trkpt>
      <trkpt lat="44.47731" lon="1.5571">
        <ele>152.51</ele>
        <time>2021-08-17T08:32:44Z</time>
      </trkpt>
      <trkpt lat="44.4773" lon="1.55717">
        <ele>152.51</ele>
        <time>2021-08-17T08:32:45Z</time>
      </trkpt>
      <trkpt lat="44.4773" lon="1.55723">
        <ele>152.51</ele>
        <time>2021-08-17T08:32:46Z</time>
      </trkpt>
      <trkpt lat="44.4773" lon="1.55728">
        <ele>152.51</ele>
        <time>2021-08-17T08:32:47Z</time>
      </trkpt>
      <trkpt lat="44.47728" lon="1.5577">
        <ele>153.95</ele>
        <time>2021-08-17T08:32:55Z</time>
      </trkpt>
      <trkpt lat="44.47724" lon="1.55822">
        <ele>153.95</ele>
        <time>2021-08-17T08:33:04Z</time>
      </trkpt>
      <trkpt lat="44.47722" lon="1.55834">
        <ele>153.95</ele>
        <time>2021-08-17T08:33:06Z</time>
      </trkpt>
      <trkpt lat="44.47719" lon="1.55838">
        <ele>152.51</ele>
        <time>2021-08-17T08:33:07Z</time>
      </trkpt>
      <trkpt lat="44.47715" lon="1.55843">
        <ele>152.51</ele>
        <time>2021-08-17T08:33:08Z</time>
      </trkpt>
      <trkpt lat="44.47712" lon="1.55844">
        <ele>152.51</ele>
        <time>2021-08-17T08:33:09Z</time>
      </trkpt>
      <trkpt lat="44.47709" lon="1.55845">
        <ele>152.51</ele>
        <time>2021-08-17T08:33:10Z</time>
      </trkpt>
      <trkpt lat="44.47706" lon="1.55846">
        <ele>152.51</ele>
        <time>2021-08-17T08:33:11Z</time>
      </trkpt>
      <trkpt lat="44.47704" lon="1.55846">
        <ele>152.51</ele>
        <time>2021-08-17T08:33:12Z</time>
      </trkpt>
      <trkpt lat="44.47702" lon="1.55846">
        <ele>153.95</ele>
        <time>2021-08-17T08:33:13Z</time>
      </trkpt>
      <trkpt lat="44.47701" lon="1.55845">
        <ele>153.95</ele>
        <time>2021-08-17T08:33:14Z</time>
      </trkpt>
      <trkpt lat="44.477" lon="1.55845">
        <ele>154.43</ele>
        <time>2021-08-17T08:33:15Z</time>
      </trkpt>
      <trkpt lat="44.47699" lon="1.55844">
        <ele>154.43</ele>
        <time>2021-08-17T08:33:16Z</time>
      </trkpt>
      <trkpt lat="44.47687" lon="1.55841">
        <ele>155.87</ele>
        <time>2021-08-17T08:33:23Z</time>
      </trkpt>
      <trkpt lat="44.47681" lon="1.55839">
        <ele>156.83</ele>
        <time>2021-08-17T08:33:28Z</time>
      </trkpt>
      <trkpt lat="44.47674" lon="1.55835">
        <ele>157.79</ele>
        <time>2021-08-17T08:33:37Z</time>
      </trkpt>
      <trkpt lat="44.47667" lon="1.55834">
        <ele>158.75</ele>
        <time>2021-08-17T08:33:45Z</time>
      </trkpt>
      <trkpt lat="44.47661" lon="1.55832">
        <ele>160.2</ele>
        <time>2021-08-17T08:33:54Z</time>
      </trkpt>
      <trkpt lat="44.47657" lon="1.55828">
        <ele>161.16</ele>
        <time>2021-08-17T08:34:01Z</time>
      </trkpt>
      <trkpt lat="44.47653" lon="1.55822">
        <ele>162.6</ele>
        <time>2021-08-17T08:34:10Z</time>
      </trkpt>
      <trkpt lat="44.47648" lon="1.55818">
        <ele>163.08</ele>
        <time>2021-08-17T08:34:17Z</time>
      </trkpt>
      <trkpt lat="44.47643" lon="1.55813">
        <ele>163.56</ele>
        <time>2021-08-17T08:34:24Z</time>
      </trkpt>
      <trkpt lat="44.47637" lon="1.55807">
        <ele>165</ele>
        <time>2021-08-17T08:34:33Z</time>
      </trkpt>
      <trkpt lat="44.47632" lon="1.558">
        <ele>166.45</ele>
        <time>2021-08-17T08:34:41Z</time>
      </trkpt>
      <trkpt lat="44.4763" lon="1.55798">
        <ele>166.93</ele>
        <time>2021-08-17T08:34:44Z</time>
      </trkpt>
      <trkpt lat="44.47626" lon="1.55794">
        <ele>167.41</ele>
        <time>2021-08-17T08:34:51Z</time>
      </trkpt>
      <trkpt lat="44.47623" lon="1.55787">
        <ele>168.85</ele>
        <time>2021-08-17T08:35:00Z</time>
      </trkpt>
      <trkpt lat="44.4762" lon="1.5578">
        <ele>169.81</ele>
        <time>2021-08-17T08:35:08Z</time>
      </trkpt>
      <trkpt lat="44.47616" lon="1.55774">
        <ele>170.77</ele>
        <time>2021-08-17T08:35:16Z</time>
      </trkpt>
      <trkpt lat="44.47613" lon="1.55767">
        <ele>171.73</ele>
        <time>2021-08-17T08:35:24Z</time>
      </trkpt>
      <trkpt lat="44.4761" lon="1.55756">
        <ele>172.69</ele>
        <time>2021-08-17T08:35:34Z</time>
      </trkpt>
      <trkpt lat="44.47606" lon="1.55747">
        <ele>174.62</ele>
        <time>2021-08-17T08:35:44Z</time>
      </trkpt>
      <trkpt lat="44.47602" lon="1.5574">
        <ele>175.58</ele>
        <time>2021-08-17T08:35:52Z</time>
      </trkpt>
      <trkpt lat="44.47597" lon="1.55731">
        <ele>176.54</ele>
        <time>2021-08-17T08:36:01Z</time>
      </trkpt>
      <trkpt lat="44.47593" lon="1.55722">
        <ele>177.98</ele>
        <time>2021-08-17T08:36:11Z</time>
      </trkpt>
      <trkpt lat="44.4759" lon="1.55715">
        <ele>178.46</ele>
        <time>2021-08-17T08:36:18Z</time>
      </trkpt>
      <trkpt lat="44.47588" lon="1.55706">
        <ele>179.9</ele>
        <time>2021-08-17T08:36:26Z</time>
      </trkpt>
      <trkpt lat="44.47584" lon="1.55696">
        <ele>180.87</ele>
        <time>2021-08-17T08:36:36Z</time>
      </trkpt>
      <trkpt lat="44.4758" lon="1.55688">
        <ele>181.83</ele>
        <time>2021-08-17T08:36:45Z</time>
      </trkpt>
      <trkpt lat="44.47575" lon="1.55679">
        <ele>182.79</ele>
        <time>2021-08-17T08:36:53Z</time>
      </trkpt>
      <trkpt lat="44.47571" lon="1.55671">
        <ele>183.27</ele>
        <time>2021-08-17T08:37:00Z</time>
      </trkpt>
      <trkpt lat="44.47567" lon="1.55662">
        <ele>184.71</ele>
        <time>2021-08-17T08:37:09Z</time>
      </trkpt>
      <trkpt lat="44.47565" lon="1.55651">
        <ele>185.67</ele>
        <time>2021-08-17T08:37:17Z</time>
      </trkpt>
      <trkpt lat="44.47562" lon="1.55642">
        <ele>187.11</ele>
        <time>2021-08-17T08:37:26Z</time>
      </trkpt>
      <trkpt lat="44.47557" lon="1.55635">
        <ele>188.08</ele>
        <time>2021-08-17T08:37:34Z</time>
      </trkpt>
      <trkpt lat="44.47555" lon="1.55635">
        <ele>188.56</ele>
        <time>2021-08-17T08:37:36Z</time>
      </trkpt>
      <trkpt lat="44.47554" lon="1.55635">
        <ele>188.56</ele>
        <time>2021-08-17T08:37:37Z</time>
      </trkpt>
      <trkpt lat="44.47553" lon="1.55638">
        <ele>189.04</ele>
        <time>2021-08-17T08:37:43Z</time>
      </trkpt>
      <trkpt lat="44.47553" lon="1.5564">
        <ele>189.52</ele>
        <time>2021-08-17T08:37:51Z</time>
      </trkpt>
      <trkpt lat="44.47553" lon="1.55642">
        <ele>189.52</ele>
        <time>2021-08-17T08:37:53Z</time>
      </trkpt>
      <trkpt lat="44.47554" lon="1.55659">
        <ele>189.52</ele>
        <time>2021-08-17T08:38:00Z</time>
      </trkpt>
      <trkpt lat="44.47556" lon="1.55675">
        <ele>190.48</ele>
        <time>2021-08-17T08:38:06Z</time>
      </trkpt>
      <trkpt lat="44.47559" lon="1.55691">
        <ele>191.44</ele>
        <time>2021-08-17T08:38:13Z</time>
      </trkpt>
      <trkpt lat="44.4756" lon="1.55706">
        <ele>192.4</ele>
        <time>2021-08-17T08:38:20Z</time>
      </trkpt>
      <trkpt lat="44.47558" lon="1.55715">
        <ele>193.84</ele>
        <time>2021-08-17T08:38:25Z</time>
      </trkpt>
      <trkpt lat="44.47557" lon="1.55716">
        <ele>193.84</ele>
        <time>2021-08-17T08:38:26Z</time>
      </trkpt>
      <trkpt lat="44.47555" lon="1.55716">
        <ele>194.32</ele>
        <time>2021-08-17T08:38:27Z</time>
      </trkpt>
      <trkpt lat="44.47554" lon="1.55716">
        <ele>194.8</ele>
        <time>2021-08-17T08:38:28Z</time>
      </trkpt>
      <trkpt lat="44.47553" lon="1.55716">
        <ele>195.28</ele>
        <time>2021-08-17T08:38:33Z</time>
      </trkpt>
      <trkpt lat="44.47553" lon="1.55715">
        <ele>195.28</ele>
        <time>2021-08-17T08:38:40Z</time>
      </trkpt>
      <trkpt lat="44.47551" lon="1.55708">
        <ele>196.25</ele>
        <time>2021-08-17T08:38:48Z</time>
      </trkpt>
      <trkpt lat="44.47548" lon="1.55701">
        <ele>196.73</ele>
        <time>2021-08-17T08:38:56Z</time>
      </trkpt>
      <trkpt lat="44.47544" lon="1.55688">
        <ele>198.17</ele>
        <time>2021-08-17T08:39:07Z</time>
      </trkpt>
      <trkpt lat="44.4754" lon="1.55681">
        <ele>199.13</ele>
        <time>2021-08-17T08:39:16Z</time>
      </trkpt>
      <trkpt lat="44.47537" lon="1.55675">
        <ele>199.61</ele>
        <time>2021-08-17T08:39:28Z</time>
      </trkpt>
      <trkpt lat="44.47534" lon="1.55671">
        <ele>200.09</ele>
        <time>2021-08-17T08:39:34Z</time>
      </trkpt>
      <trkpt lat="44.4753" lon="1.55661">
        <ele>201.05</ele>
        <time>2021-08-17T08:39:43Z</time>
      </trkpt>
      <trkpt lat="44.47527" lon="1.55651">
        <ele>202.49</ele>
        <time>2021-08-17T08:39:53Z</time>
      </trkpt>
      <trkpt lat="44.47523" lon="1.55641">
        <ele>203.46</ele>
        <time>2021-08-17T08:40:02Z</time>
      </trkpt>
      <trkpt lat="44.47522" lon="1.55637">
        <ele>203.46</ele>
        <time>2021-08-17T08:40:10Z</time>
      </trkpt>
      <trkpt lat="44.47518" lon="1.55627">
        <ele>204.42</ele>
        <time>2021-08-17T08:40:19Z</time>
      </trkpt>
      <trkpt lat="44.47515" lon="1.55621">
        <ele>205.38</ele>
        <time>2021-08-17T08:40:26Z</time>
      </trkpt>
      <trkpt lat="44.47513" lon="1.55622">
        <ele>205.86</ele>
        <time>2021-08-17T08:40:27Z</time>
      </trkpt>
      <trkpt lat="44.47511" lon="1.55621">
        <ele>206.34</ele>
        <time>2021-08-17T08:40:28Z</time>
      </trkpt>
      <trkpt lat="44.47509" lon="1.55614">
        <ele>206.82</ele>
        <time>2021-08-17T08:40:34Z</time>
      </trkpt>
      <trkpt lat="44.47505" lon="1.55602">
        <ele>207.78</ele>
        <time>2021-08-17T08:40:44Z</time>
      </trkpt>
      <trkpt lat="44.47502" lon="1.55592">
        <ele>208.74</ele>
        <time>2021-08-17T08:40:53Z</time>
      </trkpt>
      <trkpt lat="44.47502" lon="1.5559">
        <ele>208.74</ele>
        <time>2021-08-17T08:40:55Z</time>
      </trkpt>
      <trkpt lat="44.475" lon="1.55577">
        <ele>209.7</ele>
        <time>2021-08-17T08:41:04Z</time>
      </trkpt>
      <trkpt lat="44.47497" lon="1.55565">
        <ele>210.67</ele>
        <time>2021-08-17T08:41:13Z</time>
      </trkpt>
      <trkpt lat="44.47494" lon="1.5555">
        <ele>212.59</ele>
        <time>2021-08-17T08:41:24Z</time>
      </trkpt>
      <trkpt lat="44.47491" lon="1.55539">
        <ele>213.07</ele>
        <time>2021-08-17T08:41:31Z</time>
      </trkpt>
      <trkpt lat="44.47488" lon="1.55526">
        <ele>213.55</ele>
        <time>2021-08-17T08:41:40Z</time>
      </trkpt>
      <trkpt lat="44.47485" lon="1.55516">
        <ele>214.51</ele>
        <time>2021-08-17T08:41:48Z</time>
      </trkpt>
      <trkpt lat="44.47483" lon="1.55506">
        <ele>215.47</ele>
        <time>2021-08-17T08:41:57Z</time>
      </trkpt>
      <trkpt lat="44.47479" lon="1.55498">
        <ele>216.43</ele>
        <time>2021-08-17T08:42:05Z</time>
      </trkpt>
      <trkpt lat="44.47475" lon="1.5549">
        <ele>217.88</ele>
        <time>2021-08-17T08:42:13Z</time>
      </trkpt>
      <trkpt lat="44.4747" lon="1.5548">
        <ele>218.84</ele>
        <time>2021-08-17T08:42:24Z</time>
      </trkpt>
      <trkpt lat="44.47469" lon="1.55479">
        <ele>218.84</ele>
        <time>2021-08-17T08:42:25Z</time>
      </trkpt>
      <trkpt lat="44.47465" lon="1.55473">
        <ele>219.8</ele>
        <time>2021-08-17T08:42:32Z</time>
      </trkpt>
      <trkpt lat="44.47456" lon="1.55467">
        <ele>221.24</ele>
        <time>2021-08-17T08:42:43Z</time>
      </trkpt>
      <trkpt lat="44.47449" lon="1.55465">
        <ele>222.2</ele>
        <time>2021-08-17T08:42:51Z</time>
      </trkpt>
      <trkpt lat="44.47445" lon="1.55465">
        <ele>222.68</ele>
        <time>2021-08-17T08:42:58Z</time>
      </trkpt>
      <trkpt lat="44.47439" lon="1.55465">
        <ele>223.16</ele>
        <time>2021-08-17T08:43:06Z</time>
      </trkpt>
      <trkpt lat="44.4743" lon="1.55466">
        <ele>224.12</ele>
        <time>2021-08-17T08:43:15Z</time>
      </trkpt>
      <trkpt lat="44.4742" lon="1.55469">
        <ele>225.57</ele>
        <time>2021-08-17T08:43:25Z</time>
      </trkpt>
      <trkpt lat="44.47413" lon="1.55476">
        <ele>226.53</ele>
        <time>2021-08-17T08:43:34Z</time>
      </trkpt>
      <trkpt lat="44.47409" lon="1.55483">
        <ele>228.45</ele>
        <time>2021-08-17T08:43:44Z</time>
      </trkpt>
      <trkpt lat="44.47408" lon="1.55484">
        <ele>228.93</ele>
        <time>2021-08-17T08:43:50Z</time>
      </trkpt>
      <trkpt lat="44.47403" lon="1.5549">
        <ele>230.37</ele>
        <time>2021-08-17T08:43:59Z</time>
      </trkpt>
      <trkpt lat="44.47397" lon="1.55496">
        <ele>231.33</ele>
        <time>2021-08-17T08:44:08Z</time>
      </trkpt>
      <trkpt lat="44.47394" lon="1.55506">
        <ele>232.78</ele>
        <time>2021-08-17T08:44:17Z</time>
      </trkpt>
      <trkpt lat="44.47387" lon="1.55511">
        <ele>233.74</ele>
        <time>2021-08-17T08:44:25Z</time>
      </trkpt>
      <trkpt lat="44.47383" lon="1.55517">
        <ele>234.7</ele>
        <time>2021-08-17T08:44:33Z</time>
      </trkpt>
      <trkpt lat="44.47377" lon="1.55524">
        <ele>235.66</ele>
        <time>2021-08-17T08:44:42Z</time>
      </trkpt>
      <trkpt lat="44.4737" lon="1.55532">
        <ele>237.1</ele>
        <time>2021-08-17T08:44:52Z</time>
      </trkpt>
      <trkpt lat="44.47364" lon="1.55541">
        <ele>238.54</ele>
        <time>2021-08-17T08:45:02Z</time>
      </trkpt>
      <trkpt lat="44.4736" lon="1.55548">
        <ele>239.99</ele>
        <time>2021-08-17T08:45:11Z</time>
      </trkpt>
      <trkpt lat="44.47355" lon="1.55555">
        <ele>240.95</ele>
        <time>2021-08-17T08:45:20Z</time>
      </trkpt>
      <trkpt lat="44.4735" lon="1.55563">
        <ele>241.91</ele>
        <time>2021-08-17T08:45:28Z</time>
      </trkpt>
      <trkpt lat="44.47342" lon="1.55572">
        <ele>243.83</ele>
        <time>2021-08-17T08:45:39Z</time>
      </trkpt>
      <trkpt lat="44.47333" lon="1.55583">
        <ele>244.79</ele>
        <time>2021-08-17T08:45:50Z</time>
      </trkpt>
      <trkpt lat="44.47326" lon="1.55594">
        <ele>246.23</ele>
        <time>2021-08-17T08:46:00Z</time>
      </trkpt>
      <trkpt lat="44.47323" lon="1.55604">
        <ele>247.68</ele>
        <time>2021-08-17T08:46:09Z</time>
      </trkpt>
      <trkpt lat="44.47323" lon="1.55617">
        <ele>249.6</ele>
        <time>2021-08-17T08:46:20Z</time>
      </trkpt>
      <trkpt lat="44.47324" lon="1.55624">
        <ele>250.08</ele>
        <time>2021-08-17T08:46:25Z</time>
      </trkpt>
      <trkpt lat="44.47326" lon="1.5564">
        <ele>251.52</ele>
        <time>2021-08-17T08:46:36Z</time>
      </trkpt>
      <trkpt lat="44.47331" lon="1.55654">
        <ele>252.48</ele>
        <time>2021-08-17T08:46:47Z</time>
      </trkpt>
      <trkpt lat="44.47333" lon="1.5566">
        <ele>252.48</ele>
        <time>2021-08-17T08:46:54Z</time>
      </trkpt>
      <trkpt lat="44.47345" lon="1.55672">
        <ele>252.96</ele>
        <time>2021-08-17T08:47:01Z</time>
      </trkpt>
      <trkpt lat="44.47362" lon="1.55688">
        <ele>251.52</ele>
        <time>2021-08-17T08:47:07Z</time>
      </trkpt>
      <trkpt lat="44.47363" lon="1.55691">
        <ele>251.52</ele>
        <time>2021-08-17T08:47:08Z</time>
      </trkpt>
      <trkpt lat="44.47363" lon="1.55695">
        <ele>251.52</ele>
        <time>2021-08-17T08:47:09Z</time>
      </trkpt>
      <trkpt lat="44.47362" lon="1.55698">
        <ele>251.52</ele>
        <time>2021-08-17T08:47:10Z</time>
      </trkpt>
      <trkpt lat="44.47361" lon="1.55701">
        <ele>251.52</ele>
        <time>2021-08-17T08:47:11Z</time>
      </trkpt>
      <trkpt lat="44.47361" lon="1.55704">
        <ele>251.52</ele>
        <time>2021-08-17T08:47:12Z</time>
      </trkpt>
      <trkpt lat="44.4736" lon="1.55708">
        <ele>251.52</ele>
        <time>2021-08-17T08:47:13Z</time>
      </trkpt>
      <trkpt lat="44.4736" lon="1.55713">
        <ele>251.52</ele>
        <time>2021-08-17T08:47:14Z</time>
      </trkpt>
      <trkpt lat="44.47355" lon="1.55734">
        <ele>252.96</ele>
        <time>2021-08-17T08:47:20Z</time>
      </trkpt>
      <trkpt lat="44.47354" lon="1.55738">
        <ele>252.96</ele>
        <time>2021-08-17T08:47:24Z</time>
      </trkpt>
      <trkpt lat="44.47354" lon="1.55739">
        <ele>253.44</ele>
        <time>2021-08-17T08:47:30Z</time>
      </trkpt>
      <trkpt lat="44.47353" lon="1.55741">
        <ele>253.44</ele>
        <time>2021-08-17T08:47:33Z</time>
      </trkpt>
      <trkpt lat="44.47351" lon="1.55748">
        <ele>253.44</ele>
        <time>2021-08-17T08:47:40Z</time>
      </trkpt>
      <trkpt lat="44.4735" lon="1.5575">
        <ele>253.44</ele>
        <time>2021-08-17T08:47:41Z</time>
      </trkpt>
      <trkpt lat="44.4735" lon="1.55758">
        <ele>253.44</ele>
        <time>2021-08-17T08:47:47Z</time>
      </trkpt>
      <trkpt lat="44.47345" lon="1.55763">
        <ele>253.44</ele>
        <time>2021-08-17T08:47:55Z</time>
      </trkpt>
      <trkpt lat="44.4734" lon="1.5576">
        <ele>255.85</ele>
        <time>2021-08-17T08:48:05Z</time>
      </trkpt>
      <trkpt lat="44.47337" lon="1.55759">
        <ele>256.81</ele>
        <time>2021-08-17T08:48:12Z</time>
      </trkpt>
      <trkpt lat="44.47333" lon="1.55758">
        <ele>257.77</ele>
        <time>2021-08-17T08:48:18Z</time>
      </trkpt>
      <trkpt lat="44.47329" lon="1.55757">
        <ele>257.77</ele>
        <time>2021-08-17T08:48:23Z</time>
      </trkpt>
      <trkpt lat="44.47327" lon="1.55756">
        <ele>258.73</ele>
        <time>2021-08-17T08:48:29Z</time>
      </trkpt>
      <trkpt lat="44.47322" lon="1.55755">
        <ele>259.69</ele>
        <time>2021-08-17T08:48:36Z</time>
      </trkpt>
      <trkpt lat="44.47319" lon="1.55754">
        <ele>260.17</ele>
        <time>2021-08-17T08:48:39Z</time>
      </trkpt>
      <trkpt lat="44.47312" lon="1.5575">
        <ele>261.14</ele>
        <time>2021-08-17T08:48:48Z</time>
      </trkpt>
      <trkpt lat="44.4731" lon="1.55749">
        <ele>261.14</ele>
        <time>2021-08-17T08:48:50Z</time>
      </trkpt>
      <trkpt lat="44.47309" lon="1.55748">
        <ele>261.14</ele>
        <time>2021-08-17T08:48:51Z</time>
      </trkpt>
      <trkpt lat="44.473" lon="1.55744">
        <ele>262.1</ele>
        <time>2021-08-17T08:49:00Z</time>
      </trkpt>
      <trkpt lat="44.47293" lon="1.55746">
        <ele>262.58</ele>
        <time>2021-08-17T08:49:07Z</time>
      </trkpt>
      <trkpt lat="44.47292" lon="1.55747">
        <ele>263.06</ele>
        <time>2021-08-17T08:49:08Z</time>
      </trkpt>
      <trkpt lat="44.47292" lon="1.55749">
        <ele>263.06</ele>
        <time>2021-08-17T08:49:09Z</time>
      </trkpt>
      <trkpt lat="44.47291" lon="1.5575">
        <ele>263.06</ele>
        <time>2021-08-17T08:49:10Z</time>
      </trkpt>
      <trkpt lat="44.4729" lon="1.55751">
        <ele>263.06</ele>
        <time>2021-08-17T08:49:11Z</time>
      </trkpt>
      <trkpt lat="44.47289" lon="1.55752">
        <ele>263.06</ele>
        <time>2021-08-17T08:49:12Z</time>
      </trkpt>
      <trkpt lat="44.47288" lon="1.55753">
        <ele>263.06</ele>
        <time>2021-08-17T08:49:13Z</time>
      </trkpt>
      <trkpt lat="44.47287" lon="1.55754">
        <ele>263.06</ele>
        <time>2021-08-17T08:49:14Z</time>
      </trkpt>
      <trkpt lat="44.47286" lon="1.55755">
        <ele>263.54</ele>
        <time>2021-08-17T08:49:15Z</time>
      </trkpt>
      <trkpt lat="44.47283" lon="1.55755">
        <ele>263.54</ele>
        <time>2021-08-17T08:49:17Z</time>
      </trkpt>
      <trkpt lat="44.47282" lon="1.55755">
        <ele>263.54</ele>
        <time>2021-08-17T08:49:18Z</time>
      </trkpt>
      <trkpt lat="44.47281" lon="1.55755">
        <ele>263.54</ele>
        <time>2021-08-17T08:49:19Z</time>
      </trkpt>
      <trkpt lat="44.47273" lon="1.55756">
        <ele>264.02</ele>
        <time>2021-08-17T08:49:27Z</time>
      </trkpt>
      <trkpt lat="44.4727" lon="1.55755">
        <ele>264.02</ele>
        <time>2021-08-17T08:49:33Z</time>
      </trkpt>
      <trkpt lat="44.47269" lon="1.55756">
        <ele>264.02</ele>
        <time>2021-08-17T08:49:34Z</time>
      </trkpt>
      <trkpt lat="44.47268" lon="1.55757">
        <ele>264.02</ele>
        <time>2021-08-17T08:49:35Z</time>
      </trkpt>
      <trkpt lat="44.47252" lon="1.55763">
        <ele>264.02</ele>
        <time>2021-08-17T08:49:41Z</time>
      </trkpt>
      <trkpt lat="44.47224" lon="1.55785">
        <ele>264.98</ele>
        <time>2021-08-17T08:49:51Z</time>
      </trkpt>
      <trkpt lat="44.47219" lon="1.55788">
        <ele>264.98</ele>
        <time>2021-08-17T08:49:53Z</time>
      </trkpt>
      <trkpt lat="44.47217" lon="1.55787">
        <ele>264.98</ele>
        <time>2021-08-17T08:49:54Z</time>
      </trkpt>
      <trkpt lat="44.47214" lon="1.55786">
        <ele>264.98</ele>
        <time>2021-08-17T08:49:55Z</time>
      </trkpt>
      <trkpt lat="44.47211" lon="1.55787">
        <ele>264.98</ele>
        <time>2021-08-17T08:49:56Z</time>
      </trkpt>
      <trkpt lat="44.47208" lon="1.55787">
        <ele>264.98</ele>
        <time>2021-08-17T08:49:57Z</time>
      </trkpt>
      <trkpt lat="44.47205" lon="1.55786">
        <ele>263.54</ele>
        <time>2021-08-17T08:49:58Z</time>
      </trkpt>
      <trkpt lat="44.47202" lon="1.55783">
        <ele>263.54</ele>
        <time>2021-08-17T08:49:59Z</time>
      </trkpt>
      <trkpt lat="44.472" lon="1.5578">
        <ele>262.58</ele>
        <time>2021-08-17T08:50:00Z</time>
      </trkpt>
      <trkpt lat="44.47196" lon="1.55776">
        <ele>262.1</ele>
        <time>2021-08-17T08:50:01Z</time>
      </trkpt>
      <trkpt lat="44.47192" lon="1.55773">
        <ele>261.14</ele>
        <time>2021-08-17T08:50:02Z</time>
      </trkpt>
      <trkpt lat="44.47187" lon="1.55772">
        <ele>260.65</ele>
        <time>2021-08-17T08:50:03Z</time>
      </trkpt>
      <trkpt lat="44.47182" lon="1.55772">
        <ele>259.69</ele>
        <time>2021-08-17T08:50:04Z</time>
      </trkpt>
      <trkpt lat="44.47177" lon="1.55773">
        <ele>259.21</ele>
        <time>2021-08-17T08:50:05Z</time>
      </trkpt>
      <trkpt lat="44.47173" lon="1.55776">
        <ele>259.69</ele>
        <time>2021-08-17T08:50:06Z</time>
      </trkpt>
      <trkpt lat="44.47171" lon="1.55779">
        <ele>259.21</ele>
        <time>2021-08-17T08:50:07Z</time>
      </trkpt>
      <trkpt lat="44.47167" lon="1.55781">
        <ele>259.21</ele>
        <time>2021-08-17T08:50:08Z</time>
      </trkpt>
      <trkpt lat="44.47164" lon="1.55782">
        <ele>259.21</ele>
        <time>2021-08-17T08:50:09Z</time>
      </trkpt>
      <trkpt lat="44.47162" lon="1.55783">
        <ele>259.21</ele>
        <time>2021-08-17T08:50:10Z</time>
      </trkpt>
      <trkpt lat="44.4716" lon="1.55784">
        <ele>260.65</ele>
        <time>2021-08-17T08:50:14Z</time>
      </trkpt>
      <trkpt lat="44.4716" lon="1.55784">
        <ele>260.65</ele>
        <time>2021-08-17T08:50:23Z</time>
      </trkpt>
      <trkpt lat="44.47155" lon="1.55786">
        <ele>261.62</ele>
        <time>2021-08-17T08:50:30Z</time>
      </trkpt>
      <trkpt lat="44.4715" lon="1.55789">
        <ele>262.58</ele>
        <time>2021-08-17T08:50:38Z</time>
      </trkpt>
      <trkpt lat="44.47145" lon="1.5579">
        <ele>264.02</ele>
        <time>2021-08-17T08:50:45Z</time>
      </trkpt>
      <trkpt lat="44.47138" lon="1.55793">
        <ele>265.46</ele>
        <time>2021-08-17T08:50:54Z</time>
      </trkpt>
      <trkpt lat="44.47136" lon="1.55794">
        <ele>266.42</ele>
        <time>2021-08-17T08:51:01Z</time>
      </trkpt>
      <trkpt lat="44.47131" lon="1.55796">
        <ele>267.38</ele>
        <time>2021-08-17T08:51:10Z</time>
      </trkpt>
      <trkpt lat="44.47128" lon="1.55798">
        <ele>268.83</ele>
        <time>2021-08-17T08:51:19Z</time>
      </trkpt>
      <trkpt lat="44.47124" lon="1.55802">
        <ele>270.75</ele>
        <time>2021-08-17T08:51:30Z</time>
      </trkpt>
      <trkpt lat="44.47121" lon="1.55805">
        <ele>271.71</ele>
        <time>2021-08-17T08:51:38Z</time>
      </trkpt>
      <trkpt lat="44.47115" lon="1.55807">
        <ele>273.15</ele>
        <time>2021-08-17T08:51:48Z</time>
      </trkpt>
      <trkpt lat="44.4711" lon="1.55808">
        <ele>274.59</ele>
        <time>2021-08-17T08:51:58Z</time>
      </trkpt>
      <trkpt lat="44.47106" lon="1.5581">
        <ele>275.56</ele>
        <time>2021-08-17T08:52:07Z</time>
      </trkpt>
      <trkpt lat="44.47101" lon="1.55814">
        <ele>277</ele>
        <time>2021-08-17T08:52:16Z</time>
      </trkpt>
      <trkpt lat="44.47095" lon="1.55816">
        <ele>278.44</ele>
        <time>2021-08-17T08:52:24Z</time>
      </trkpt>
      <trkpt lat="44.4709" lon="1.55819">
        <ele>279.88</ele>
        <time>2021-08-17T08:52:32Z</time>
      </trkpt>
      <trkpt lat="44.47084" lon="1.55824">
        <ele>280.84</ele>
        <time>2021-08-17T08:52:41Z</time>
      </trkpt>
      <trkpt lat="44.47074" lon="1.55829">
        <ele>282.77</ele>
        <time>2021-08-17T08:52:53Z</time>
      </trkpt>
      <trkpt lat="44.47072" lon="1.55831">
        <ele>282.77</ele>
        <time>2021-08-17T08:53:01Z</time>
      </trkpt>
      <trkpt lat="44.47071" lon="1.55831">
        <ele>282.77</ele>
        <time>2021-08-17T08:53:12Z</time>
      </trkpt>
      <trkpt lat="44.47069" lon="1.55831">
        <ele>283.25</ele>
        <time>2021-08-17T08:53:19Z</time>
      </trkpt>
      <trkpt lat="44.47067" lon="1.55832">
        <ele>283.25</ele>
        <time>2021-08-17T08:53:26Z</time>
      </trkpt>
      <trkpt lat="44.47066" lon="1.55833">
        <ele>283.25</ele>
        <time>2021-08-17T08:53:35Z</time>
      </trkpt>
      <trkpt lat="44.47063" lon="1.55835">
        <ele>283.73</ele>
        <time>2021-08-17T08:53:43Z</time>
      </trkpt>
      <trkpt lat="44.47055" lon="1.5584">
        <ele>284.69</ele>
        <time>2021-08-17T08:53:50Z</time>
      </trkpt>
      <trkpt lat="44.47053" lon="1.5584">
        <ele>284.69</ele>
        <time>2021-08-17T08:53:51Z</time>
      </trkpt>
      <trkpt lat="44.47052" lon="1.55841">
        <ele>284.69</ele>
        <time>2021-08-17T08:53:52Z</time>
      </trkpt>
      <trkpt lat="44.47046" lon="1.55845">
        <ele>285.65</ele>
        <time>2021-08-17T08:53:57Z</time>
      </trkpt>
      <trkpt lat="44.47044" lon="1.55846">
        <ele>286.13</ele>
        <time>2021-08-17T08:53:59Z</time>
      </trkpt>
      <trkpt lat="44.47034" lon="1.55853">
        <ele>287.57</ele>
        <time>2021-08-17T08:54:07Z</time>
      </trkpt>
      <trkpt lat="44.47025" lon="1.55862">
        <ele>288.53</ele>
        <time>2021-08-17T08:54:14Z</time>
      </trkpt>
      <trkpt lat="44.47012" lon="1.55868">
        <ele>288.53</ele>
        <time>2021-08-17T08:54:22Z</time>
      </trkpt>
      <trkpt lat="44.47006" lon="1.55869">
        <ele>289.01</ele>
        <time>2021-08-17T08:54:25Z</time>
      </trkpt>
      <trkpt lat="44.47004" lon="1.5587">
        <ele>289.01</ele>
        <time>2021-08-17T08:54:26Z</time>
      </trkpt>
      <trkpt lat="44.46984" lon="1.55876">
        <ele>290.46</ele>
        <time>2021-08-17T08:54:36Z</time>
      </trkpt>
      <trkpt lat="44.4697" lon="1.55879">
        <ele>291.42</ele>
        <time>2021-08-17T08:54:44Z</time>
      </trkpt>
      <trkpt lat="44.46953" lon="1.55888">
        <ele>291.9</ele>
        <time>2021-08-17T08:54:53Z</time>
      </trkpt>
      <trkpt lat="44.4694" lon="1.55897">
        <ele>293.34</ele>
        <time>2021-08-17T08:54:59Z</time>
      </trkpt>
      <trkpt lat="44.46926" lon="1.55902">
        <ele>294.3</ele>
        <time>2021-08-17T08:55:06Z</time>
      </trkpt>
      <trkpt lat="44.46913" lon="1.55907">
        <ele>295.74</ele>
        <time>2021-08-17T08:55:14Z</time>
      </trkpt>
      <trkpt lat="44.46901" lon="1.55913">
        <ele>296.22</ele>
        <time>2021-08-17T08:55:22Z</time>
      </trkpt>
      <trkpt lat="44.46889" lon="1.5592">
        <ele>297.18</ele>
        <time>2021-08-17T08:55:30Z</time>
      </trkpt>
      <trkpt lat="44.46878" lon="1.55925">
        <ele>298.15</ele>
        <time>2021-08-17T08:55:38Z</time>
      </trkpt>
      <trkpt lat="44.46866" lon="1.55932">
        <ele>299.59</ele>
        <time>2021-08-17T08:55:46Z</time>
      </trkpt>
      <trkpt lat="44.46856" lon="1.55941">
        <ele>300.55</ele>
        <time>2021-08-17T08:55:54Z</time>
      </trkpt>
      <trkpt lat="44.46844" lon="1.55948">
        <ele>301.99</ele>
        <time>2021-08-17T08:56:03Z</time>
      </trkpt>
      <trkpt lat="44.46831" lon="1.55953">
        <ele>303.43</ele>
        <time>2021-08-17T08:56:12Z</time>
      </trkpt>
      <trkpt lat="44.4682" lon="1.55957">
        <ele>304.39</ele>
        <time>2021-08-17T08:56:19Z</time>
      </trkpt>
      <trkpt lat="44.46807" lon="1.55968">
        <ele>305.36</ele>
        <time>2021-08-17T08:56:28Z</time>
      </trkpt>
      <trkpt lat="44.46797" lon="1.55973">
        <ele>306.32</ele>
        <time>2021-08-17T08:56:35Z</time>
      </trkpt>
      <trkpt lat="44.46784" lon="1.55981">
        <ele>307.28</ele>
        <time>2021-08-17T08:56:43Z</time>
      </trkpt>
      <trkpt lat="44.46769" lon="1.55993">
        <ele>307.76</ele>
        <time>2021-08-17T08:56:50Z</time>
      </trkpt>
      <trkpt lat="44.46748" lon="1.5601">
        <ele>307.76</ele>
        <time>2021-08-17T08:56:58Z</time>
      </trkpt>
      <trkpt lat="44.46727" lon="1.56026">
        <ele>308.24</ele>
        <time>2021-08-17T08:57:06Z</time>
      </trkpt>
      <trkpt lat="44.46718" lon="1.56034">
        <ele>308.72</ele>
        <time>2021-08-17T08:57:11Z</time>
      </trkpt>
      <trkpt lat="44.46699" lon="1.56052">
        <ele>308.72</ele>
        <time>2021-08-17T08:57:19Z</time>
      </trkpt>
      <trkpt lat="44.46681" lon="1.56068">
        <ele>310.16</ele>
        <time>2021-08-17T08:57:27Z</time>
      </trkpt>
      <trkpt lat="44.4667" lon="1.56086">
        <ele>311.12</ele>
        <time>2021-08-17T08:57:34Z</time>
      </trkpt>
      <trkpt lat="44.46662" lon="1.56101">
        <ele>312.09</ele>
        <time>2021-08-17T08:57:41Z</time>
      </trkpt>
      <trkpt lat="44.46651" lon="1.56118">
        <ele>313.05</ele>
        <time>2021-08-17T08:57:49Z</time>
      </trkpt>
      <trkpt lat="44.46638" lon="1.56137">
        <ele>314.01</ele>
        <time>2021-08-17T08:57:58Z</time>
      </trkpt>
      <trkpt lat="44.46629" lon="1.56155">
        <ele>314.97</ele>
        <time>2021-08-17T08:58:06Z</time>
      </trkpt>
      <trkpt lat="44.46619" lon="1.56174">
        <ele>315.45</ele>
        <time>2021-08-17T08:58:13Z</time>
      </trkpt>
      <trkpt lat="44.46603" lon="1.5619">
        <ele>316.41</ele>
        <time>2021-08-17T08:58:21Z</time>
      </trkpt>
      <trkpt lat="44.46584" lon="1.56212">
        <ele>318.33</ele>
        <time>2021-08-17T08:58:31Z</time>
      </trkpt>
      <trkpt lat="44.46566" lon="1.56234">
        <ele>318.33</ele>
        <time>2021-08-17T08:58:39Z</time>
      </trkpt>
      <trkpt lat="44.46564" lon="1.56237">
        <ele>318.33</ele>
        <time>2021-08-17T08:58:43Z</time>
      </trkpt>
      <trkpt lat="44.46563" lon="1.56237">
        <ele>318.33</ele>
        <time>2021-08-17T08:58:58Z</time>
      </trkpt>
      <trkpt lat="44.46563" lon="1.56238">
        <ele>318.33</ele>
        <time>2021-08-17T08:59:07Z</time>
      </trkpt>
      <trkpt lat="44.46562" lon="1.56238">
        <ele>318.33</ele>
        <time>2021-08-17T08:59:23Z</time>
      </trkpt>
      <trkpt lat="44.46562" lon="1.56238">
        <ele>318.33</ele>
        <time>2021-08-17T08:59:33Z</time>
      </trkpt>
      <trkpt lat="44.46562" lon="1.56238">
        <ele>318.33</ele>
        <time>2021-08-17T08:59:45Z</time>
      </trkpt>
      <trkpt lat="44.4656" lon="1.56237">
        <ele>318.33</ele>
        <time>2021-08-17T08:59:53Z</time>
      </trkpt>
      <trkpt lat="44.46558" lon="1.56237">
        <ele>318.33</ele>
        <time>2021-08-17T09:00:02Z</time>
      </trkpt>
      <trkpt lat="44.46557" lon="1.56238">
        <ele>318.33</ele>
        <time>2021-08-17T09:00:21Z</time>
      </trkpt>
      <trkpt lat="44.46555" lon="1.56238">
        <ele>318.33</ele>
        <time>2021-08-17T09:00:38Z</time>
      </trkpt>
      <trkpt lat="44.46556" lon="1.56239">
        <ele>318.33</ele>
        <time>2021-08-17T09:00:47Z</time>
      </trkpt>
      <trkpt lat="44.46558" lon="1.5624">
        <ele>318.33</ele>
        <time>2021-08-17T09:01:04Z</time>
      </trkpt>
      <trkpt lat="44.46557" lon="1.56241">
        <ele>318.33</ele>
        <time>2021-08-17T09:01:12Z</time>
      </trkpt>
      <trkpt lat="44.46553" lon="1.56241">
        <ele>318.33</ele>
        <time>2021-08-17T09:01:14Z</time>
      </trkpt>
      <trkpt lat="44.46552" lon="1.5624">
        <ele>318.33</ele>
        <time>2021-08-17T09:01:15Z</time>
      </trkpt>
      <trkpt lat="44.46545" lon="1.56235">
        <ele>317.37</ele>
        <time>2021-08-17T09:01:18Z</time>
      </trkpt>
      <trkpt lat="44.46542" lon="1.56235">
        <ele>316.41</ele>
        <time>2021-08-17T09:01:19Z</time>
      </trkpt>
      <trkpt lat="44.46538" lon="1.56236">
        <ele>316.41</ele>
        <time>2021-08-17T09:01:20Z</time>
      </trkpt>
      <trkpt lat="44.46535" lon="1.56238">
        <ele>316.41</ele>
        <time>2021-08-17T09:01:21Z</time>
      </trkpt>
      <trkpt lat="44.46531" lon="1.56241">
        <ele>315.93</ele>
        <time>2021-08-17T09:01:22Z</time>
      </trkpt>
      <trkpt lat="44.46528" lon="1.56246">
        <ele>315.93</ele>
        <time>2021-08-17T09:01:23Z</time>
      </trkpt>
      <trkpt lat="44.46525" lon="1.5625">
        <ele>315.93</ele>
        <time>2021-08-17T09:01:24Z</time>
      </trkpt>
      <trkpt lat="44.46515" lon="1.56265">
        <ele>314.49</ele>
        <time>2021-08-17T09:01:29Z</time>
      </trkpt>
      <trkpt lat="44.46515" lon="1.56264">
        <ele>314.49</ele>
        <time>2021-08-17T09:01:43Z</time>
      </trkpt>
      <trkpt lat="44.46511" lon="1.56268">
        <ele>314.49</ele>
        <time>2021-08-17T09:01:54Z</time>
      </trkpt>
      <trkpt lat="44.46494" lon="1.56271">
        <ele>312.09</ele>
        <time>2021-08-17T09:01:59Z</time>
      </trkpt>
      <trkpt lat="44.46489" lon="1.56273">
        <ele>311.12</ele>
        <time>2021-08-17T09:02:00Z</time>
      </trkpt>
      <trkpt lat="44.46481" lon="1.5628">
        <ele>310.16</ele>
        <time>2021-08-17T09:02:02Z</time>
      </trkpt>
      <trkpt lat="44.46477" lon="1.56284">
        <ele>309.68</ele>
        <time>2021-08-17T09:02:03Z</time>
      </trkpt>
      <trkpt lat="44.46474" lon="1.56289">
        <ele>308.72</ele>
        <time>2021-08-17T09:02:04Z</time>
      </trkpt>
      <trkpt lat="44.46467" lon="1.563">
        <ele>307.28</ele>
        <time>2021-08-17T09:02:06Z</time>
      </trkpt>
      <trkpt lat="44.46464" lon="1.56307">
        <ele>306.8</ele>
        <time>2021-08-17T09:02:07Z</time>
      </trkpt>
      <trkpt lat="44.46462" lon="1.56315">
        <ele>305.84</ele>
        <time>2021-08-17T09:02:08Z</time>
      </trkpt>
      <trkpt lat="44.46458" lon="1.56333">
        <ele>304.39</ele>
        <time>2021-08-17T09:02:10Z</time>
      </trkpt>
      <trkpt lat="44.46455" lon="1.56341">
        <ele>303.91</ele>
        <time>2021-08-17T09:02:11Z</time>
      </trkpt>
      <trkpt lat="44.46451" lon="1.56349">
        <ele>302.47</ele>
        <time>2021-08-17T09:02:12Z</time>
      </trkpt>
      <trkpt lat="44.46446" lon="1.56357">
        <ele>301.99</ele>
        <time>2021-08-17T09:02:13Z</time>
      </trkpt>
      <trkpt lat="44.46439" lon="1.56365">
        <ele>301.03</ele>
        <time>2021-08-17T09:02:14Z</time>
      </trkpt>
      <trkpt lat="44.46433" lon="1.56373">
        <ele>300.07</ele>
        <time>2021-08-17T09:02:15Z</time>
      </trkpt>
      <trkpt lat="44.46404" lon="1.56403">
        <ele>296.22</ele>
        <time>2021-08-17T09:02:19Z</time>
      </trkpt>
      <trkpt lat="44.46389" lon="1.56419">
        <ele>295.26</ele>
        <time>2021-08-17T09:02:21Z</time>
      </trkpt>
      <trkpt lat="44.46337" lon="1.56477">
        <ele>292.86</ele>
        <time>2021-08-17T09:02:28Z</time>
      </trkpt>
      <trkpt lat="44.46305" lon="1.5651">
        <ele>292.86</ele>
        <time>2021-08-17T09:02:33Z</time>
      </trkpt>
      <trkpt lat="44.463" lon="1.56515">
        <ele>292.86</ele>
        <time>2021-08-17T09:02:34Z</time>
      </trkpt>
      <trkpt lat="44.46294" lon="1.56518">
        <ele>292.86</ele>
        <time>2021-08-17T09:02:35Z</time>
      </trkpt>
      <trkpt lat="44.46274" lon="1.56529">
        <ele>294.3</ele>
        <time>2021-08-17T09:02:39Z</time>
      </trkpt>
      <trkpt lat="44.4627" lon="1.56532">
        <ele>294.3</ele>
        <time>2021-08-17T09:02:40Z</time>
      </trkpt>
      <trkpt lat="44.46244" lon="1.56552">
        <ele>295.74</ele>
        <time>2021-08-17T09:02:48Z</time>
      </trkpt>
      <trkpt lat="44.46208" lon="1.56583">
        <ele>295.26</ele>
        <time>2021-08-17T09:02:58Z</time>
      </trkpt>
      <trkpt lat="44.4619" lon="1.56602">
        <ele>296.22</ele>
        <time>2021-08-17T09:03:04Z</time>
      </trkpt>
      <trkpt lat="44.4619" lon="1.56606">
        <ele>296.22</ele>
        <time>2021-08-17T09:03:05Z</time>
      </trkpt>
      <trkpt lat="44.46192" lon="1.56609">
        <ele>296.22</ele>
        <time>2021-08-17T09:03:06Z</time>
      </trkpt>
      <trkpt lat="44.46194" lon="1.56611">
        <ele>296.22</ele>
        <time>2021-08-17T09:03:07Z</time>
      </trkpt>
      <trkpt lat="44.46196" lon="1.56613">
        <ele>296.22</ele>
        <time>2021-08-17T09:03:08Z</time>
      </trkpt>
      <trkpt lat="44.46199" lon="1.56616">
        <ele>296.22</ele>
        <time>2021-08-17T09:03:09Z</time>
      </trkpt>
      <trkpt lat="44.46208" lon="1.56626">
        <ele>296.22</ele>
        <time>2021-08-17T09:03:12Z</time>
      </trkpt>
      <trkpt lat="44.46211" lon="1.5663">
        <ele>295.74</ele>
        <time>2021-08-17T09:03:13Z</time>
      </trkpt>
      <trkpt lat="44.46213" lon="1.56636">
        <ele>296.22</ele>
        <time>2021-08-17T09:03:14Z</time>
      </trkpt>
      <trkpt lat="44.46215" lon="1.56642">
        <ele>294.78</ele>
        <time>2021-08-17T09:03:15Z</time>
      </trkpt>
      <trkpt lat="44.46214" lon="1.5665">
        <ele>294.3</ele>
        <time>2021-08-17T09:03:16Z</time>
      </trkpt>
      <trkpt lat="44.46211" lon="1.56657">
        <ele>293.34</ele>
        <time>2021-08-17T09:03:17Z</time>
      </trkpt>
      <trkpt lat="44.46207" lon="1.56664">
        <ele>292.86</ele>
        <time>2021-08-17T09:03:18Z</time>
      </trkpt>
      <trkpt lat="44.46201" lon="1.5667">
        <ele>292.38</ele>
        <time>2021-08-17T09:03:19Z</time>
      </trkpt>
      <trkpt lat="44.4619" lon="1.56682">
        <ele>291.42</ele>
        <time>2021-08-17T09:03:21Z</time>
      </trkpt>
      <trkpt lat="44.46163" lon="1.5671">
        <ele>289.01</ele>
        <time>2021-08-17T09:03:25Z</time>
      </trkpt>
      <trkpt lat="44.46157" lon="1.5672">
        <ele>288.53</ele>
        <time>2021-08-17T09:03:26Z</time>
      </trkpt>
      <trkpt lat="44.46151" lon="1.56731">
        <ele>287.09</ele>
        <time>2021-08-17T09:03:27Z</time>
      </trkpt>
      <trkpt lat="44.46146" lon="1.56742">
        <ele>286.61</ele>
        <time>2021-08-17T09:03:28Z</time>
      </trkpt>
      <trkpt lat="44.46141" lon="1.56754">
        <ele>285.17</ele>
        <time>2021-08-17T09:03:29Z</time>
      </trkpt>
      <trkpt lat="44.4612" lon="1.56806">
        <ele>281.8</ele>
        <time>2021-08-17T09:03:33Z</time>
      </trkpt>
      <trkpt lat="44.46116" lon="1.5682">
        <ele>280.84</ele>
        <time>2021-08-17T09:03:34Z</time>
      </trkpt>
      <trkpt lat="44.46113" lon="1.56835">
        <ele>279.88</ele>
        <time>2021-08-17T09:03:35Z</time>
      </trkpt>
      <trkpt lat="44.46111" lon="1.56851">
        <ele>278.92</ele>
        <time>2021-08-17T09:03:36Z</time>
      </trkpt>
      <trkpt lat="44.46106" lon="1.56913">
        <ele>276.52</ele>
        <time>2021-08-17T09:03:40Z</time>
      </trkpt>
      <trkpt lat="44.46104" lon="1.56945">
        <ele>275.56</ele>
        <time>2021-08-17T09:03:43Z</time>
      </trkpt>
      <trkpt lat="44.46106" lon="1.56953">
        <ele>275.07</ele>
        <time>2021-08-17T09:03:44Z</time>
      </trkpt>
      <trkpt lat="44.46108" lon="1.56959">
        <ele>274.59</ele>
        <time>2021-08-17T09:03:45Z</time>
      </trkpt>
      <trkpt lat="44.4611" lon="1.56964">
        <ele>274.59</ele>
        <time>2021-08-17T09:03:46Z</time>
      </trkpt>
      <trkpt lat="44.46114" lon="1.56969">
        <ele>273.63</ele>
        <time>2021-08-17T09:03:47Z</time>
      </trkpt>
      <trkpt lat="44.46117" lon="1.56974">
        <ele>273.63</ele>
        <time>2021-08-17T09:03:48Z</time>
      </trkpt>
      <trkpt lat="44.46122" lon="1.56978">
        <ele>273.15</ele>
        <time>2021-08-17T09:03:49Z</time>
      </trkpt>
      <trkpt lat="44.46127" lon="1.56984">
        <ele>272.19</ele>
        <time>2021-08-17T09:03:50Z</time>
      </trkpt>
      <trkpt lat="44.4615" lon="1.5701">
        <ele>270.27</ele>
        <time>2021-08-17T09:03:54Z</time>
      </trkpt>
      <trkpt lat="44.46161" lon="1.57025">
        <ele>268.83</ele>
        <time>2021-08-17T09:03:56Z</time>
      </trkpt>
      <trkpt lat="44.46165" lon="1.57033">
        <ele>268.83</ele>
        <time>2021-08-17T09:03:57Z</time>
      </trkpt>
      <trkpt lat="44.46169" lon="1.57042">
        <ele>268.83</ele>
        <time>2021-08-17T09:03:58Z</time>
      </trkpt>
      <trkpt lat="44.462" lon="1.57109">
        <ele>267.86</ele>
        <time>2021-08-17T09:04:06Z</time>
      </trkpt>
      <trkpt lat="44.46207" lon="1.57124">
        <ele>267.86</ele>
        <time>2021-08-17T09:04:08Z</time>
      </trkpt>
      <trkpt lat="44.46216" lon="1.57151">
        <ele>267.86</ele>
        <time>2021-08-17T09:04:12Z</time>
      </trkpt>
      <trkpt lat="44.46231" lon="1.57179">
        <ele>267.86</ele>
        <time>2021-08-17T09:04:18Z</time>
      </trkpt>
      <trkpt lat="44.46239" lon="1.57195">
        <ele>268.83</ele>
        <time>2021-08-17T09:04:22Z</time>
      </trkpt>
      <trkpt lat="44.46257" lon="1.5722">
        <ele>270.27</ele>
        <time>2021-08-17T09:04:30Z</time>
      </trkpt>
      <trkpt lat="44.46275" lon="1.57238">
        <ele>271.23</ele>
        <time>2021-08-17T09:04:40Z</time>
      </trkpt>
      <trkpt lat="44.46288" lon="1.57252">
        <ele>272.19</ele>
        <time>2021-08-17T09:04:48Z</time>
      </trkpt>
      <trkpt lat="44.463" lon="1.57266">
        <ele>273.15</ele>
        <time>2021-08-17T09:04:56Z</time>
      </trkpt>
      <trkpt lat="44.46312" lon="1.57281">
        <ele>274.59</ele>
        <time>2021-08-17T09:05:04Z</time>
      </trkpt>
      <trkpt lat="44.46322" lon="1.57296">
        <ele>275.56</ele>
        <time>2021-08-17T09:05:12Z</time>
      </trkpt>
      <trkpt lat="44.46333" lon="1.57311">
        <ele>277</ele>
        <time>2021-08-17T09:05:20Z</time>
      </trkpt>
      <trkpt lat="44.46337" lon="1.57316">
        <ele>277</ele>
        <time>2021-08-17T09:05:23Z</time>
      </trkpt>
      <trkpt lat="44.46346" lon="1.57333">
        <ele>278.44</ele>
        <time>2021-08-17T09:05:32Z</time>
      </trkpt>
      <trkpt lat="44.4636" lon="1.57351">
        <ele>279.88</ele>
        <time>2021-08-17T09:05:43Z</time>
      </trkpt>
      <trkpt lat="44.46366" lon="1.5736">
        <ele>280.36</ele>
        <time>2021-08-17T09:05:48Z</time>
      </trkpt>
      <trkpt lat="44.46376" lon="1.57374">
        <ele>281.8</ele>
        <time>2021-08-17T09:05:57Z</time>
      </trkpt>
      <trkpt lat="44.46385" lon="1.57384">
        <ele>282.28</ele>
        <time>2021-08-17T09:06:04Z</time>
      </trkpt>
      <trkpt lat="44.46399" lon="1.57402">
        <ele>283.25</ele>
        <time>2021-08-17T09:06:12Z</time>
      </trkpt>
      <trkpt lat="44.46409" lon="1.57421">
        <ele>284.69</ele>
        <time>2021-08-17T09:06:20Z</time>
      </trkpt>
      <trkpt lat="44.46419" lon="1.57437">
        <ele>285.17</ele>
        <time>2021-08-17T09:06:27Z</time>
      </trkpt>
      <trkpt lat="44.46438" lon="1.57456">
        <ele>285.65</ele>
        <time>2021-08-17T09:06:35Z</time>
      </trkpt>
      <trkpt lat="44.46459" lon="1.5747">
        <ele>285.65</ele>
        <time>2021-08-17T09:06:42Z</time>
      </trkpt>
      <trkpt lat="44.46474" lon="1.57481">
        <ele>286.61</ele>
        <time>2021-08-17T09:06:49Z</time>
      </trkpt>
      <trkpt lat="44.4649" lon="1.57492">
        <ele>287.57</ele>
        <time>2021-08-17T09:06:57Z</time>
      </trkpt>
      <trkpt lat="44.46508" lon="1.5751">
        <ele>288.05</ele>
        <time>2021-08-17T09:07:05Z</time>
      </trkpt>
      <trkpt lat="44.46529" lon="1.5753">
        <ele>288.53</ele>
        <time>2021-08-17T09:07:13Z</time>
      </trkpt>
      <trkpt lat="44.46551" lon="1.57555">
        <ele>289.01</ele>
        <time>2021-08-17T09:07:22Z</time>
      </trkpt>
      <trkpt lat="44.46569" lon="1.5758">
        <ele>289.01</ele>
        <time>2021-08-17T09:07:29Z</time>
      </trkpt>
      <trkpt lat="44.46587" lon="1.57594">
        <ele>289.49</ele>
        <time>2021-08-17T09:07:35Z</time>
      </trkpt>
      <trkpt lat="44.46607" lon="1.57616">
        <ele>289.49</ele>
        <time>2021-08-17T09:07:42Z</time>
      </trkpt>
      <trkpt lat="44.46622" lon="1.57649">
        <ele>289.49</ele>
        <time>2021-08-17T09:07:49Z</time>
      </trkpt>
      <trkpt lat="44.46623" lon="1.57656">
        <ele>289.49</ele>
        <time>2021-08-17T09:07:51Z</time>
      </trkpt>
      <trkpt lat="44.46625" lon="1.57655">
        <ele>289.49</ele>
        <time>2021-08-17T09:07:55Z</time>
      </trkpt>
      <trkpt lat="44.46625" lon="1.57652">
        <ele>289.49</ele>
        <time>2021-08-17T09:07:56Z</time>
      </trkpt>
      <trkpt lat="44.46626" lon="1.5765">
        <ele>289.49</ele>
        <time>2021-08-17T09:07:57Z</time>
      </trkpt>
      <trkpt lat="44.46627" lon="1.57648">
        <ele>289.49</ele>
        <time>2021-08-17T09:07:58Z</time>
      </trkpt>
      <trkpt lat="44.46629" lon="1.57646">
        <ele>289.49</ele>
        <time>2021-08-17T09:07:59Z</time>
      </trkpt>
      <trkpt lat="44.46631" lon="1.57646">
        <ele>289.49</ele>
        <time>2021-08-17T09:08:00Z</time>
      </trkpt>
      <trkpt lat="44.46634" lon="1.57645">
        <ele>289.49</ele>
        <time>2021-08-17T09:08:01Z</time>
      </trkpt>
      <trkpt lat="44.4665" lon="1.57645">
        <ele>289.49</ele>
        <time>2021-08-17T09:08:07Z</time>
      </trkpt>
      <trkpt lat="44.46662" lon="1.57651">
        <ele>287.09</ele>
        <time>2021-08-17T09:08:12Z</time>
      </trkpt>
      <trkpt lat="44.46676" lon="1.57661">
        <ele>285.65</ele>
        <time>2021-08-17T09:08:17Z</time>
      </trkpt>
      <trkpt lat="44.46677" lon="1.57664">
        <ele>285.17</ele>
        <time>2021-08-17T09:08:18Z</time>
      </trkpt>
      <trkpt lat="44.46678" lon="1.57667">
        <ele>285.17</ele>
        <time>2021-08-17T09:08:19Z</time>
      </trkpt>
      <trkpt lat="44.46678" lon="1.5767">
        <ele>285.17</ele>
        <time>2021-08-17T09:08:20Z</time>
      </trkpt>
      <trkpt lat="44.46678" lon="1.57673">
        <ele>285.17</ele>
        <time>2021-08-17T09:08:21Z</time>
      </trkpt>
      <trkpt lat="44.4668" lon="1.57674">
        <ele>284.69</ele>
        <time>2021-08-17T09:08:22Z</time>
      </trkpt>
      <trkpt lat="44.46687" lon="1.5769">
        <ele>282.77</ele>
        <time>2021-08-17T09:08:28Z</time>
      </trkpt>
      <trkpt lat="44.46697" lon="1.57704">
        <ele>280.84</ele>
        <time>2021-08-17T09:08:33Z</time>
      </trkpt>
      <trkpt lat="44.46709" lon="1.57713">
        <ele>278.44</ele>
        <time>2021-08-17T09:08:39Z</time>
      </trkpt>
      <trkpt lat="44.46728" lon="1.57721">
        <ele>275.07</ele>
        <time>2021-08-17T09:08:45Z</time>
      </trkpt>
      <trkpt lat="44.46741" lon="1.57725">
        <ele>272.67</ele>
        <time>2021-08-17T09:08:49Z</time>
      </trkpt>
      <trkpt lat="44.46754" lon="1.57732">
        <ele>269.79</ele>
        <time>2021-08-17T09:08:55Z</time>
      </trkpt>
      <trkpt lat="44.46756" lon="1.57733">
        <ele>269.31</ele>
        <time>2021-08-17T09:08:56Z</time>
      </trkpt>
      <trkpt lat="44.46758" lon="1.57735">
        <ele>268.35</ele>
        <time>2021-08-17T09:08:57Z</time>
      </trkpt>
      <trkpt lat="44.46759" lon="1.57735">
        <ele>268.35</ele>
        <time>2021-08-17T09:08:58Z</time>
      </trkpt>
      <trkpt lat="44.46761" lon="1.57736">
        <ele>267.86</ele>
        <time>2021-08-17T09:08:59Z</time>
      </trkpt>
      <trkpt lat="44.46763" lon="1.57737">
        <ele>266.9</ele>
        <time>2021-08-17T09:09:00Z</time>
      </trkpt>
      <trkpt lat="44.46765" lon="1.57739">
        <ele>266.42</ele>
        <time>2021-08-17T09:09:01Z</time>
      </trkpt>
      <trkpt lat="44.46767" lon="1.57741">
        <ele>265.94</ele>
        <time>2021-08-17T09:09:02Z</time>
      </trkpt>
      <trkpt lat="44.46769" lon="1.57744">
        <ele>265.94</ele>
        <time>2021-08-17T09:09:03Z</time>
      </trkpt>
      <trkpt lat="44.46775" lon="1.57755">
        <ele>262.58</ele>
        <time>2021-08-17T09:09:08Z</time>
      </trkpt>
      <trkpt lat="44.46777" lon="1.57756">
        <ele>262.1</ele>
        <time>2021-08-17T09:09:09Z</time>
      </trkpt>
      <trkpt lat="44.46779" lon="1.57758">
        <ele>262.1</ele>
        <time>2021-08-17T09:09:10Z</time>
      </trkpt>
      <trkpt lat="44.4678" lon="1.57761">
        <ele>261.14</ele>
        <time>2021-08-17T09:09:11Z</time>
      </trkpt>
      <trkpt lat="44.46782" lon="1.57763">
        <ele>260.17</ele>
        <time>2021-08-17T09:09:12Z</time>
      </trkpt>
      <trkpt lat="44.46793" lon="1.57776">
        <ele>256.81</ele>
        <time>2021-08-17T09:09:17Z</time>
      </trkpt>
      <trkpt lat="44.46801" lon="1.57794">
        <ele>253.93</ele>
        <time>2021-08-17T09:09:23Z</time>
      </trkpt>
      <trkpt lat="44.46812" lon="1.57811">
        <ele>251.04</ele>
        <time>2021-08-17T09:09:28Z</time>
      </trkpt>
      <trkpt lat="44.46824" lon="1.57827">
        <ele>247.68</ele>
        <time>2021-08-17T09:09:32Z</time>
      </trkpt>
      <trkpt lat="44.46834" lon="1.5785">
        <ele>243.83</ele>
        <time>2021-08-17T09:09:37Z</time>
      </trkpt>
      <trkpt lat="44.46841" lon="1.57865">
        <ele>241.91</ele>
        <time>2021-08-17T09:09:40Z</time>
      </trkpt>
      <trkpt lat="44.46844" lon="1.5787">
        <ele>240.95</ele>
        <time>2021-08-17T09:09:41Z</time>
      </trkpt>
      <trkpt lat="44.46848" lon="1.57874">
        <ele>240.47</ele>
        <time>2021-08-17T09:09:42Z</time>
      </trkpt>
      <trkpt lat="44.46854" lon="1.57877">
        <ele>239.99</ele>
        <time>2021-08-17T09:09:43Z</time>
      </trkpt>
      <trkpt lat="44.4686" lon="1.5788">
        <ele>239.02</ele>
        <time>2021-08-17T09:09:44Z</time>
      </trkpt>
      <trkpt lat="44.46866" lon="1.57882">
        <ele>238.54</ele>
        <time>2021-08-17T09:09:45Z</time>
      </trkpt>
      <trkpt lat="44.46886" lon="1.57889">
        <ele>236.14</ele>
        <time>2021-08-17T09:09:48Z</time>
      </trkpt>
      <trkpt lat="44.46908" lon="1.57894">
        <ele>232.3</ele>
        <time>2021-08-17T09:09:51Z</time>
      </trkpt>
      <trkpt lat="44.46934" lon="1.579">
        <ele>227.97</ele>
        <time>2021-08-17T09:09:54Z</time>
      </trkpt>
      <trkpt lat="44.46942" lon="1.57901">
        <ele>227.01</ele>
        <time>2021-08-17T09:09:55Z</time>
      </trkpt>
      <trkpt lat="44.46951" lon="1.579">
        <ele>226.05</ele>
        <time>2021-08-17T09:09:56Z</time>
      </trkpt>
      <trkpt lat="44.46956" lon="1.57899">
        <ele>225.09</ele>
        <time>2021-08-17T09:09:57Z</time>
      </trkpt>
      <trkpt lat="44.46961" lon="1.57896">
        <ele>225.57</ele>
        <time>2021-08-17T09:09:58Z</time>
      </trkpt>
      <trkpt lat="44.46964" lon="1.57893">
        <ele>224.12</ele>
        <time>2021-08-17T09:09:59Z</time>
      </trkpt>
      <trkpt lat="44.46966" lon="1.57891">
        <ele>224.12</ele>
        <time>2021-08-17T09:10:00Z</time>
      </trkpt>
      <trkpt lat="44.46968" lon="1.5789">
        <ele>224.12</ele>
        <time>2021-08-17T09:10:01Z</time>
      </trkpt>
      <trkpt lat="44.46968" lon="1.57889">
        <ele>224.12</ele>
        <time>2021-08-17T09:10:02Z</time>
      </trkpt>
      <trkpt lat="44.46969" lon="1.57888">
        <ele>223.64</ele>
        <time>2021-08-17T09:10:03Z</time>
      </trkpt>
      <trkpt lat="44.46967" lon="1.57888">
        <ele>223.64</ele>
        <time>2021-08-17T09:10:07Z</time>
      </trkpt>
      <trkpt lat="44.46966" lon="1.57889">
        <ele>224.12</ele>
        <time>2021-08-17T09:10:08Z</time>
      </trkpt>
      <trkpt lat="44.46963" lon="1.57892">
        <ele>224.12</ele>
        <time>2021-08-17T09:10:10Z</time>
      </trkpt>
      <trkpt lat="44.46966" lon="1.57897">
        <ele>224.12</ele>
        <time>2021-08-17T09:10:13Z</time>
      </trkpt>
      <trkpt lat="44.46967" lon="1.57897">
        <ele>224.12</ele>
        <time>2021-08-17T09:10:14Z</time>
      </trkpt>
      <trkpt lat="44.46984" lon="1.57898">
        <ele>220.76</ele>
        <time>2021-08-17T09:10:20Z</time>
      </trkpt>
      <trkpt lat="44.47001" lon="1.57905">
        <ele>216.91</ele>
        <time>2021-08-17T09:10:25Z</time>
      </trkpt>
      <trkpt lat="44.47016" lon="1.57914">
        <ele>213.55</ele>
        <time>2021-08-17T09:10:30Z</time>
      </trkpt>
      <trkpt lat="44.47019" lon="1.57915">
        <ele>213.07</ele>
        <time>2021-08-17T09:10:31Z</time>
      </trkpt>
      <trkpt lat="44.4703" lon="1.57914">
        <ele>211.15</ele>
        <time>2021-08-17T09:10:34Z</time>
      </trkpt>
      <trkpt lat="44.47034" lon="1.57914">
        <ele>210.19</ele>
        <time>2021-08-17T09:10:35Z</time>
      </trkpt>
      <trkpt lat="44.47039" lon="1.57913">
        <ele>209.22</ele>
        <time>2021-08-17T09:10:36Z</time>
      </trkpt>
      <trkpt lat="44.47043" lon="1.57912">
        <ele>208.26</ele>
        <time>2021-08-17T09:10:37Z</time>
      </trkpt>
      <trkpt lat="44.47047" lon="1.5791">
        <ele>207.3</ele>
        <time>2021-08-17T09:10:38Z</time>
      </trkpt>
      <trkpt lat="44.4705" lon="1.57907">
        <ele>207.3</ele>
        <time>2021-08-17T09:10:39Z</time>
      </trkpt>
      <trkpt lat="44.47053" lon="1.57903">
        <ele>206.34</ele>
        <time>2021-08-17T09:10:40Z</time>
      </trkpt>
      <trkpt lat="44.47056" lon="1.57898">
        <ele>205.38</ele>
        <time>2021-08-17T09:10:41Z</time>
      </trkpt>
      <trkpt lat="44.47059" lon="1.57896">
        <ele>204.9</ele>
        <time>2021-08-17T09:10:42Z</time>
      </trkpt>
      <trkpt lat="44.47063" lon="1.57897">
        <ele>203.94</ele>
        <time>2021-08-17T09:10:43Z</time>
      </trkpt>
      <trkpt lat="44.47067" lon="1.57901">
        <ele>202.98</ele>
        <time>2021-08-17T09:10:44Z</time>
      </trkpt>
      <trkpt lat="44.4707" lon="1.57907">
        <ele>202.49</ele>
        <time>2021-08-17T09:10:45Z</time>
      </trkpt>
      <trkpt lat="44.47074" lon="1.57915">
        <ele>201.53</ele>
        <time>2021-08-17T09:10:46Z</time>
      </trkpt>
      <trkpt lat="44.47077" lon="1.57923">
        <ele>200.57</ele>
        <time>2021-08-17T09:10:47Z</time>
      </trkpt>
      <trkpt lat="44.47089" lon="1.57948">
        <ele>197.69</ele>
        <time>2021-08-17T09:10:50Z</time>
      </trkpt>
      <trkpt lat="44.47092" lon="1.57955">
        <ele>196.73</ele>
        <time>2021-08-17T09:10:51Z</time>
      </trkpt>
      <trkpt lat="44.47094" lon="1.57959">
        <ele>196.25</ele>
        <time>2021-08-17T09:10:52Z</time>
      </trkpt>
      <trkpt lat="44.47098" lon="1.57961">
        <ele>195.77</ele>
        <time>2021-08-17T09:10:53Z</time>
      </trkpt>
      <trkpt lat="44.47102" lon="1.57958">
        <ele>194.32</ele>
        <time>2021-08-17T09:10:54Z</time>
      </trkpt>
      <trkpt lat="44.47106" lon="1.57953">
        <ele>193.36</ele>
        <time>2021-08-17T09:10:55Z</time>
      </trkpt>
      <trkpt lat="44.47109" lon="1.57945">
        <ele>192.88</ele>
        <time>2021-08-17T09:10:56Z</time>
      </trkpt>
      <trkpt lat="44.47111" lon="1.57936">
        <ele>191.92</ele>
        <time>2021-08-17T09:10:57Z</time>
      </trkpt>
      <trkpt lat="44.47113" lon="1.57927">
        <ele>190.96</ele>
        <time>2021-08-17T09:10:58Z</time>
      </trkpt>
      <trkpt lat="44.47119" lon="1.579">
        <ele>189.52</ele>
        <time>2021-08-17T09:11:01Z</time>
      </trkpt>
      <trkpt lat="44.47123" lon="1.57886">
        <ele>187.59</ele>
        <time>2021-08-17T09:11:03Z</time>
      </trkpt>
      <trkpt lat="44.47127" lon="1.57876">
        <ele>185.67</ele>
        <time>2021-08-17T09:11:05Z</time>
      </trkpt>
      <trkpt lat="44.4713" lon="1.57874">
        <ele>185.19</ele>
        <time>2021-08-17T09:11:06Z</time>
      </trkpt>
      <trkpt lat="44.47133" lon="1.57876">
        <ele>184.71</ele>
        <time>2021-08-17T09:11:07Z</time>
      </trkpt>
      <trkpt lat="44.47137" lon="1.57879">
        <ele>183.75</ele>
        <time>2021-08-17T09:11:08Z</time>
      </trkpt>
      <trkpt lat="44.4714" lon="1.57884">
        <ele>183.27</ele>
        <time>2021-08-17T09:11:09Z</time>
      </trkpt>
      <trkpt lat="44.47143" lon="1.5789">
        <ele>182.31</ele>
        <time>2021-08-17T09:11:10Z</time>
      </trkpt>
      <trkpt lat="44.47156" lon="1.57911">
        <ele>179.42</ele>
        <time>2021-08-17T09:11:14Z</time>
      </trkpt>
      <trkpt lat="44.47162" lon="1.57917">
        <ele>177.98</ele>
        <time>2021-08-17T09:11:16Z</time>
      </trkpt>
      <trkpt lat="44.47165" lon="1.57916">
        <ele>177.5</ele>
        <time>2021-08-17T09:11:17Z</time>
      </trkpt>
      <trkpt lat="44.47169" lon="1.57912">
        <ele>176.54</ele>
        <time>2021-08-17T09:11:18Z</time>
      </trkpt>
      <trkpt lat="44.47173" lon="1.57906">
        <ele>175.58</ele>
        <time>2021-08-17T09:11:19Z</time>
      </trkpt>
      <trkpt lat="44.47177" lon="1.57898">
        <ele>174.14</ele>
        <time>2021-08-17T09:11:20Z</time>
      </trkpt>
      <trkpt lat="44.47186" lon="1.57883">
        <ele>170.77</ele>
        <time>2021-08-17T09:11:22Z</time>
      </trkpt>
      <trkpt lat="44.47192" lon="1.57876">
        <ele>170.29</ele>
        <time>2021-08-17T09:11:23Z</time>
      </trkpt>
      <trkpt lat="44.472" lon="1.57871">
        <ele>169.33</ele>
        <time>2021-08-17T09:11:24Z</time>
      </trkpt>
      <trkpt lat="44.47223" lon="1.57853">
        <ele>165.96</ele>
        <time>2021-08-17T09:11:27Z</time>
      </trkpt>
      <trkpt lat="44.47238" lon="1.57838">
        <ele>165</ele>
        <time>2021-08-17T09:11:29Z</time>
      </trkpt>
      <trkpt lat="44.47244" lon="1.57833">
        <ele>164.04</ele>
        <time>2021-08-17T09:11:30Z</time>
      </trkpt>
      <trkpt lat="44.47251" lon="1.57829">
        <ele>165</ele>
        <time>2021-08-17T09:11:31Z</time>
      </trkpt>
      <trkpt lat="44.47256" lon="1.5783">
        <ele>165</ele>
        <time>2021-08-17T09:11:32Z</time>
      </trkpt>
      <trkpt lat="44.4726" lon="1.57834">
        <ele>165</ele>
        <time>2021-08-17T09:11:33Z</time>
      </trkpt>
      <trkpt lat="44.47264" lon="1.5784">
        <ele>164.52</ele>
        <time>2021-08-17T09:11:34Z</time>
      </trkpt>
      <trkpt lat="44.47266" lon="1.57846">
        <ele>164.52</ele>
        <time>2021-08-17T09:11:35Z</time>
      </trkpt>
      <trkpt lat="44.47268" lon="1.57852">
        <ele>164.04</ele>
        <time>2021-08-17T09:11:36Z</time>
      </trkpt>
      <trkpt lat="44.4727" lon="1.57859">
        <ele>164.04</ele>
        <time>2021-08-17T09:11:37Z</time>
      </trkpt>
      <trkpt lat="44.4727" lon="1.57866">
        <ele>163.08</ele>
        <time>2021-08-17T09:11:38Z</time>
      </trkpt>
      <trkpt lat="44.47269" lon="1.57872">
        <ele>163.08</ele>
        <time>2021-08-17T09:11:39Z</time>
      </trkpt>
      <trkpt lat="44.47266" lon="1.57879">
        <ele>163.08</ele>
        <time>2021-08-17T09:11:40Z</time>
      </trkpt>
      <trkpt lat="44.47261" lon="1.57885">
        <ele>162.12</ele>
        <time>2021-08-17T09:11:41Z</time>
      </trkpt>
      <trkpt lat="44.47257" lon="1.57891">
        <ele>161.64</ele>
        <time>2021-08-17T09:11:42Z</time>
      </trkpt>
      <trkpt lat="44.47251" lon="1.57897">
        <ele>161.16</ele>
        <time>2021-08-17T09:11:43Z</time>
      </trkpt>
      <trkpt lat="44.47245" lon="1.57903">
        <ele>160.68</ele>
        <time>2021-08-17T09:11:44Z</time>
      </trkpt>
      <trkpt lat="44.47211" lon="1.57933">
        <ele>157.31</ele>
        <time>2021-08-17T09:11:49Z</time>
      </trkpt>
      <trkpt lat="44.4718" lon="1.57966">
        <ele>153.95</ele>
        <time>2021-08-17T09:11:53Z</time>
      </trkpt>
      <trkpt lat="44.47154" lon="1.57996">
        <ele>150.1</ele>
        <time>2021-08-17T09:11:56Z</time>
      </trkpt>
      <trkpt lat="44.47119" lon="1.5804">
        <ele>145.78</ele>
        <time>2021-08-17T09:12:00Z</time>
      </trkpt>
      <trkpt lat="44.47104" lon="1.58064">
        <ele>144.34</ele>
        <time>2021-08-17T09:12:02Z</time>
      </trkpt>
      <trkpt lat="44.47098" lon="1.58076">
        <ele>144.34</ele>
        <time>2021-08-17T09:12:03Z</time>
      </trkpt>
      <trkpt lat="44.47093" lon="1.58085">
        <ele>144.34</ele>
        <time>2021-08-17T09:12:04Z</time>
      </trkpt>
      <trkpt lat="44.47087" lon="1.58092">
        <ele>143.37</ele>
        <time>2021-08-17T09:12:05Z</time>
      </trkpt>
      <trkpt lat="44.4708" lon="1.58097">
        <ele>143.85</ele>
        <time>2021-08-17T09:12:06Z</time>
      </trkpt>
      <trkpt lat="44.47066" lon="1.58106">
        <ele>141.93</ele>
        <time>2021-08-17T09:12:08Z</time>
      </trkpt>
      <trkpt lat="44.47058" lon="1.58112">
        <ele>140.49</ele>
        <time>2021-08-17T09:12:09Z</time>
      </trkpt>
      <trkpt lat="44.47026" lon="1.58147">
        <ele>136.64</ele>
        <time>2021-08-17T09:12:13Z</time>
      </trkpt>
      <trkpt lat="44.47002" lon="1.58179">
        <ele>133.76</ele>
        <time>2021-08-17T09:12:16Z</time>
      </trkpt>
      <trkpt lat="44.46988" lon="1.58202">
        <ele>132.8</ele>
        <time>2021-08-17T09:12:18Z</time>
      </trkpt>
      <trkpt lat="44.46973" lon="1.58221">
        <ele>132.8</ele>
        <time>2021-08-17T09:12:20Z</time>
      </trkpt>
      <trkpt lat="44.46966" lon="1.58227">
        <ele>132.8</ele>
        <time>2021-08-17T09:12:21Z</time>
      </trkpt>
      <trkpt lat="44.46958" lon="1.58233">
        <ele>132.8</ele>
        <time>2021-08-17T09:12:22Z</time>
      </trkpt>
      <trkpt lat="44.4695" lon="1.58237">
        <ele>132.8</ele>
        <time>2021-08-17T09:12:23Z</time>
      </trkpt>
      <trkpt lat="44.46942" lon="1.58241">
        <ele>132.8</ele>
        <time>2021-08-17T09:12:24Z</time>
      </trkpt>
      <trkpt lat="44.46935" lon="1.58245">
        <ele>134.24</ele>
        <time>2021-08-17T09:12:25Z</time>
      </trkpt>
      <trkpt lat="44.46904" lon="1.58265">
        <ele>135.2</ele>
        <time>2021-08-17T09:12:30Z</time>
      </trkpt>
      <trkpt lat="44.46868" lon="1.58298">
        <ele>135.68</ele>
        <time>2021-08-17T09:12:38Z</time>
      </trkpt>
      <trkpt lat="44.46833" lon="1.58343">
        <ele>135.68</ele>
        <time>2021-08-17T09:12:46Z</time>
      </trkpt>
      <trkpt lat="44.46813" lon="1.58381">
        <ele>135.68</ele>
        <time>2021-08-17T09:12:52Z</time>
      </trkpt>
      <trkpt lat="44.46805" lon="1.58396">
        <ele>137.61</ele>
        <time>2021-08-17T09:12:57Z</time>
      </trkpt>
      <trkpt lat="44.468" lon="1.58412">
        <ele>138.57</ele>
        <time>2021-08-17T09:13:03Z</time>
      </trkpt>
      <trkpt lat="44.46801" lon="1.58415">
        <ele>138.57</ele>
        <time>2021-08-17T09:13:04Z</time>
      </trkpt>
      <trkpt lat="44.46803" lon="1.58419">
        <ele>138.57</ele>
        <time>2021-08-17T09:13:05Z</time>
      </trkpt>
      <trkpt lat="44.46806" lon="1.58422">
        <ele>137.13</ele>
        <time>2021-08-17T09:13:06Z</time>
      </trkpt>
      <trkpt lat="44.4681" lon="1.58426">
        <ele>136.64</ele>
        <time>2021-08-17T09:13:07Z</time>
      </trkpt>
      <trkpt lat="44.46814" lon="1.5843">
        <ele>136.16</ele>
        <time>2021-08-17T09:13:08Z</time>
      </trkpt>
      <trkpt lat="44.46817" lon="1.58435">
        <ele>136.16</ele>
        <time>2021-08-17T09:13:09Z</time>
      </trkpt>
      <trkpt lat="44.46821" lon="1.58442">
        <ele>134.72</ele>
        <time>2021-08-17T09:13:10Z</time>
      </trkpt>
      <trkpt lat="44.46822" lon="1.58449">
        <ele>134.72</ele>
        <time>2021-08-17T09:13:11Z</time>
      </trkpt>
      <trkpt lat="44.46823" lon="1.58456">
        <ele>134.24</ele>
        <time>2021-08-17T09:13:12Z</time>
      </trkpt>
      <trkpt lat="44.46821" lon="1.58463">
        <ele>133.76</ele>
        <time>2021-08-17T09:13:13Z</time>
      </trkpt>
      <trkpt lat="44.46818" lon="1.5847">
        <ele>133.28</ele>
        <time>2021-08-17T09:13:14Z</time>
      </trkpt>
      <trkpt lat="44.46814" lon="1.58476">
        <ele>132.8</ele>
        <time>2021-08-17T09:13:15Z</time>
      </trkpt>
      <trkpt lat="44.4681" lon="1.58483">
        <ele>132.8</ele>
        <time>2021-08-17T09:13:16Z</time>
      </trkpt>
      <trkpt lat="44.46806" lon="1.5849">
        <ele>132.32</ele>
        <time>2021-08-17T09:13:17Z</time>
      </trkpt>
      <trkpt lat="44.46772" lon="1.5854">
        <ele>131.36</ele>
        <time>2021-08-17T09:13:25Z</time>
      </trkpt>
      <trkpt lat="44.46746" lon="1.58573">
        <ele>131.84</ele>
        <time>2021-08-17T09:13:33Z</time>
      </trkpt>
      <trkpt lat="44.46715" lon="1.58607">
        <ele>131.84</ele>
        <time>2021-08-17T09:13:42Z</time>
      </trkpt>
      <trkpt lat="44.46686" lon="1.58641">
        <ele>131.84</ele>
        <time>2021-08-17T09:13:50Z</time>
      </trkpt>
      <trkpt lat="44.46676" lon="1.58653">
        <ele>131.84</ele>
        <time>2021-08-17T09:13:53Z</time>
      </trkpt>
      <trkpt lat="44.46673" lon="1.58657">
        <ele>131.84</ele>
        <time>2021-08-17T09:13:54Z</time>
      </trkpt>
      <trkpt lat="44.46636" lon="1.5871">
        <ele>131.84</ele>
        <time>2021-08-17T09:14:05Z</time>
      </trkpt>
      <trkpt lat="44.46619" lon="1.58735">
        <ele>131.84</ele>
        <time>2021-08-17T09:14:10Z</time>
      </trkpt>
      <trkpt lat="44.46586" lon="1.58788">
        <ele>131.84</ele>
        <time>2021-08-17T09:14:20Z</time>
      </trkpt>
      <trkpt lat="44.46552" lon="1.58839">
        <ele>131.84</ele>
        <time>2021-08-17T09:14:30Z</time>
      </trkpt>
      <trkpt lat="44.46543" lon="1.58853">
        <ele>131.84</ele>
        <time>2021-08-17T09:14:35Z</time>
      </trkpt>
      <trkpt lat="44.46542" lon="1.58855">
        <ele>133.28</ele>
        <time>2021-08-17T09:14:40Z</time>
      </trkpt>
      <trkpt lat="44.46542" lon="1.58855">
        <ele>133.28</ele>
        <time>2021-08-17T09:15:05Z</time>
      </trkpt>
      <trkpt lat="44.4654" lon="1.58856">
        <ele>133.28</ele>
        <time>2021-08-17T09:15:09Z</time>
      </trkpt>
      <trkpt lat="44.46539" lon="1.58856">
        <ele>133.28</ele>
        <time>2021-08-17T09:15:10Z</time>
      </trkpt>
      <trkpt lat="44.46539" lon="1.58858">
        <ele>133.76</ele>
        <time>2021-08-17T09:15:17Z</time>
      </trkpt>
      <trkpt lat="44.46538" lon="1.58862">
        <ele>133.76</ele>
        <time>2021-08-17T09:15:34Z</time>
      </trkpt>
      <trkpt lat="44.46539" lon="1.58861">
        <ele>133.76</ele>
        <time>2021-08-17T09:15:44Z</time>
      </trkpt>
      <trkpt lat="44.4654" lon="1.58862">
        <ele>133.76</ele>
        <time>2021-08-17T09:16:05Z</time>
      </trkpt>
      <trkpt lat="44.4654" lon="1.5886">
        <ele>133.76</ele>
        <time>2021-08-17T09:16:22Z</time>
      </trkpt>
      <trkpt lat="44.46538" lon="1.58862">
        <ele>133.76</ele>
        <time>2021-08-17T09:16:33Z</time>
      </trkpt>
      <trkpt lat="44.46537" lon="1.58864">
        <ele>133.76</ele>
        <time>2021-08-17T09:16:34Z</time>
      </trkpt>
      <trkpt lat="44.46528" lon="1.58881">
        <ele>133.28</ele>
        <time>2021-08-17T09:16:41Z</time>
      </trkpt>
      <trkpt lat="44.46507" lon="1.58919">
        <ele>133.28</ele>
        <time>2021-08-17T09:16:49Z</time>
      </trkpt>
      <trkpt lat="44.46481" lon="1.58975">
        <ele>133.28</ele>
        <time>2021-08-17T09:17:00Z</time>
      </trkpt>
      <trkpt lat="44.46451" lon="1.59032">
        <ele>133.28</ele>
        <time>2021-08-17T09:17:11Z</time>
      </trkpt>
      <trkpt lat="44.46435" lon="1.5906">
        <ele>134.24</ele>
        <time>2021-08-17T09:17:18Z</time>
      </trkpt>
      <trkpt lat="44.46431" lon="1.59074">
        <ele>134.72</ele>
        <time>2021-08-17T09:17:25Z</time>
      </trkpt>
      <trkpt lat="44.46429" lon="1.59078">
        <ele>134.72</ele>
        <time>2021-08-17T09:17:27Z</time>
      </trkpt>
      <trkpt lat="44.46427" lon="1.5908">
        <ele>135.2</ele>
        <time>2021-08-17T09:17:28Z</time>
      </trkpt>
      <trkpt lat="44.46426" lon="1.59082">
        <ele>135.2</ele>
        <time>2021-08-17T09:17:29Z</time>
      </trkpt>
      <trkpt lat="44.46425" lon="1.59084">
        <ele>135.68</ele>
        <time>2021-08-17T09:17:30Z</time>
      </trkpt>
      <trkpt lat="44.46424" lon="1.59085">
        <ele>135.68</ele>
        <time>2021-08-17T09:17:31Z</time>
      </trkpt>
      <trkpt lat="44.4642" lon="1.59094">
        <ele>136.64</ele>
        <time>2021-08-17T09:17:37Z</time>
      </trkpt>
      <trkpt lat="44.46408" lon="1.59104">
        <ele>138.09</ele>
        <time>2021-08-17T09:17:47Z</time>
      </trkpt>
      <trkpt lat="44.46404" lon="1.59107">
        <ele>138.57</ele>
        <time>2021-08-17T09:17:53Z</time>
      </trkpt>
      <trkpt lat="44.46396" lon="1.59111">
        <ele>140.49</ele>
        <time>2021-08-17T09:18:03Z</time>
      </trkpt>
      <trkpt lat="44.46389" lon="1.59111">
        <ele>141.45</ele>
        <time>2021-08-17T09:18:11Z</time>
      </trkpt>
      <trkpt lat="44.46381" lon="1.59113">
        <ele>142.89</ele>
        <time>2021-08-17T09:18:19Z</time>
      </trkpt>
      <trkpt lat="44.46371" lon="1.59112">
        <ele>144.34</ele>
        <time>2021-08-17T09:18:28Z</time>
      </trkpt>
      <trkpt lat="44.46366" lon="1.59111">
        <ele>144.82</ele>
        <time>2021-08-17T09:18:36Z</time>
      </trkpt>
      <trkpt lat="44.46355" lon="1.59109">
        <ele>145.78</ele>
        <time>2021-08-17T09:18:45Z</time>
      </trkpt>
      <trkpt lat="44.46347" lon="1.59107">
        <ele>146.74</ele>
        <time>2021-08-17T09:18:52Z</time>
      </trkpt>
      <trkpt lat="44.46336" lon="1.59106">
        <ele>147.7</ele>
        <time>2021-08-17T09:19:00Z</time>
      </trkpt>
      <trkpt lat="44.46322" lon="1.59101">
        <ele>149.14</ele>
        <time>2021-08-17T09:19:09Z</time>
      </trkpt>
      <trkpt lat="44.46314" lon="1.59098">
        <ele>150.1</ele>
        <time>2021-08-17T09:19:17Z</time>
      </trkpt>
      <trkpt lat="44.4631" lon="1.59093">
        <ele>151.54</ele>
        <time>2021-08-17T09:19:25Z</time>
      </trkpt>
      <trkpt lat="44.46309" lon="1.59091">
        <ele>151.54</ele>
        <time>2021-08-17T09:19:27Z</time>
      </trkpt>
      <trkpt lat="44.46308" lon="1.5909">
        <ele>152.03</ele>
        <time>2021-08-17T09:19:28Z</time>
      </trkpt>
      <trkpt lat="44.46307" lon="1.59089">
        <ele>152.03</ele>
        <time>2021-08-17T09:19:29Z</time>
      </trkpt>
      <trkpt lat="44.46296" lon="1.59076">
        <ele>153.47</ele>
        <time>2021-08-17T09:19:40Z</time>
      </trkpt>
      <trkpt lat="44.4629" lon="1.59071">
        <ele>153.47</ele>
        <time>2021-08-17T09:19:48Z</time>
      </trkpt>
      <trkpt lat="44.46286" lon="1.59068">
        <ele>154.43</ele>
        <time>2021-08-17T09:19:52Z</time>
      </trkpt>
      <trkpt lat="44.46284" lon="1.59067">
        <ele>154.43</ele>
        <time>2021-08-17T09:19:53Z</time>
      </trkpt>
      <trkpt lat="44.46283" lon="1.59066">
        <ele>154.43</ele>
        <time>2021-08-17T09:19:54Z</time>
      </trkpt>
      <trkpt lat="44.46278" lon="1.59065">
        <ele>154.91</ele>
        <time>2021-08-17T09:19:57Z</time>
      </trkpt>
      <trkpt lat="44.46275" lon="1.59066">
        <ele>155.39</ele>
        <time>2021-08-17T09:19:58Z</time>
      </trkpt>
      <trkpt lat="44.46273" lon="1.59066">
        <ele>155.39</ele>
        <time>2021-08-17T09:19:59Z</time>
      </trkpt>
      <trkpt lat="44.46267" lon="1.59063">
        <ele>155.87</ele>
        <time>2021-08-17T09:20:03Z</time>
      </trkpt>
      <trkpt lat="44.46264" lon="1.59061">
        <ele>155.87</ele>
        <time>2021-08-17T09:20:05Z</time>
      </trkpt>
      <trkpt lat="44.46262" lon="1.59061">
        <ele>156.35</ele>
        <time>2021-08-17T09:20:06Z</time>
      </trkpt>
      <trkpt lat="44.4626" lon="1.5906">
        <ele>156.35</ele>
        <time>2021-08-17T09:20:07Z</time>
      </trkpt>
      <trkpt lat="44.46258" lon="1.5906">
        <ele>156.35</ele>
        <time>2021-08-17T09:20:08Z</time>
      </trkpt>
      <trkpt lat="44.46257" lon="1.5906">
        <ele>156.83</ele>
        <time>2021-08-17T09:20:09Z</time>
      </trkpt>
      <trkpt lat="44.46255" lon="1.59059">
        <ele>156.83</ele>
        <time>2021-08-17T09:20:10Z</time>
      </trkpt>
      <trkpt lat="44.46253" lon="1.59059">
        <ele>156.83</ele>
        <time>2021-08-17T09:20:11Z</time>
      </trkpt>
      <trkpt lat="44.46252" lon="1.59058">
        <ele>156.83</ele>
        <time>2021-08-17T09:20:12Z</time>
      </trkpt>
      <trkpt lat="44.4625" lon="1.59058">
        <ele>156.83</ele>
        <time>2021-08-17T09:20:13Z</time>
      </trkpt>
      <trkpt lat="44.46248" lon="1.59058">
        <ele>157.31</ele>
        <time>2021-08-17T09:20:14Z</time>
      </trkpt>
      <trkpt lat="44.46236" lon="1.59058">
        <ele>158.27</ele>
        <time>2021-08-17T09:20:22Z</time>
      </trkpt>
      <trkpt lat="44.46225" lon="1.59058">
        <ele>158.75</ele>
        <time>2021-08-17T09:20:29Z</time>
      </trkpt>
      <trkpt lat="44.46221" lon="1.5906">
        <ele>158.75</ele>
        <time>2021-08-17T09:20:32Z</time>
      </trkpt>
      <trkpt lat="44.4622" lon="1.59062">
        <ele>159.24</ele>
        <time>2021-08-17T09:20:33Z</time>
      </trkpt>
      <trkpt lat="44.4622" lon="1.59065">
        <ele>159.72</ele>
        <time>2021-08-17T09:20:34Z</time>
      </trkpt>
      <trkpt lat="44.46221" lon="1.59066">
        <ele>159.72</ele>
        <time>2021-08-17T09:20:35Z</time>
      </trkpt>
      <trkpt lat="44.46221" lon="1.59068">
        <ele>159.72</ele>
        <time>2021-08-17T09:20:36Z</time>
      </trkpt>
      <trkpt lat="44.46222" lon="1.59069">
        <ele>159.72</ele>
        <time>2021-08-17T09:20:37Z</time>
      </trkpt>
      <trkpt lat="44.46224" lon="1.5907">
        <ele>160.2</ele>
        <time>2021-08-17T09:20:38Z</time>
      </trkpt>
      <trkpt lat="44.46235" lon="1.59077">
        <ele>161.64</ele>
        <time>2021-08-17T09:20:47Z</time>
      </trkpt>
      <trkpt lat="44.46248" lon="1.59084">
        <ele>162.12</ele>
        <time>2021-08-17T09:20:56Z</time>
      </trkpt>
      <trkpt lat="44.46252" lon="1.59086">
        <ele>162.12</ele>
        <time>2021-08-17T09:20:58Z</time>
      </trkpt>
      <trkpt lat="44.46253" lon="1.59086">
        <ele>162.6</ele>
        <time>2021-08-17T09:20:59Z</time>
      </trkpt>
      <trkpt lat="44.46255" lon="1.59087">
        <ele>162.6</ele>
        <time>2021-08-17T09:21:00Z</time>
      </trkpt>
      <trkpt lat="44.46256" lon="1.59088">
        <ele>163.08</ele>
        <time>2021-08-17T09:21:01Z</time>
      </trkpt>
      <trkpt lat="44.46258" lon="1.59089">
        <ele>163.08</ele>
        <time>2021-08-17T09:21:02Z</time>
      </trkpt>
      <trkpt lat="44.46262" lon="1.59094">
        <ele>163.56</ele>
        <time>2021-08-17T09:21:06Z</time>
      </trkpt>
      <trkpt lat="44.46262" lon="1.59096">
        <ele>164.04</ele>
        <time>2021-08-17T09:21:07Z</time>
      </trkpt>
      <trkpt lat="44.4626" lon="1.59097">
        <ele>164.04</ele>
        <time>2021-08-17T09:21:08Z</time>
      </trkpt>
      <trkpt lat="44.46259" lon="1.59097">
        <ele>164.04</ele>
        <time>2021-08-17T09:21:09Z</time>
      </trkpt>
      <trkpt lat="44.46258" lon="1.59097">
        <ele>164.04</ele>
        <time>2021-08-17T09:21:10Z</time>
      </trkpt>
      <trkpt lat="44.46256" lon="1.59097">
        <ele>164.52</ele>
        <time>2021-08-17T09:21:11Z</time>
      </trkpt>
      <trkpt lat="44.46254" lon="1.59097">
        <ele>164.52</ele>
        <time>2021-08-17T09:21:12Z</time>
      </trkpt>
      <trkpt lat="44.46253" lon="1.59097">
        <ele>164.52</ele>
        <time>2021-08-17T09:21:13Z</time>
      </trkpt>
      <trkpt lat="44.46235" lon="1.591">
        <ele>165.48</ele>
        <time>2021-08-17T09:21:24Z</time>
      </trkpt>
      <trkpt lat="44.46229" lon="1.59102">
        <ele>166.45</ele>
        <time>2021-08-17T09:21:31Z</time>
      </trkpt>
      <trkpt lat="44.46222" lon="1.59102">
        <ele>167.89</ele>
        <time>2021-08-17T09:21:42Z</time>
      </trkpt>
      <trkpt lat="44.46218" lon="1.59103">
        <ele>169.33</ele>
        <time>2021-08-17T09:21:49Z</time>
      </trkpt>
      <trkpt lat="44.46214" lon="1.59104">
        <ele>169.81</ele>
        <time>2021-08-17T09:21:57Z</time>
      </trkpt>
      <trkpt lat="44.46208" lon="1.59105">
        <ele>171.25</ele>
        <time>2021-08-17T09:22:03Z</time>
      </trkpt>
      <trkpt lat="44.462" lon="1.59106">
        <ele>172.21</ele>
        <time>2021-08-17T09:22:12Z</time>
      </trkpt>
      <trkpt lat="44.46193" lon="1.59108">
        <ele>173.66</ele>
        <time>2021-08-17T09:22:21Z</time>
      </trkpt>
      <trkpt lat="44.46186" lon="1.59109">
        <ele>174.62</ele>
        <time>2021-08-17T09:22:29Z</time>
      </trkpt>
      <trkpt lat="44.46178" lon="1.59111">
        <ele>176.06</ele>
        <time>2021-08-17T09:22:39Z</time>
      </trkpt>
      <trkpt lat="44.4617" lon="1.59112">
        <ele>177.02</ele>
        <time>2021-08-17T09:22:48Z</time>
      </trkpt>
      <trkpt lat="44.46162" lon="1.59113">
        <ele>177.98</ele>
        <time>2021-08-17T09:22:57Z</time>
      </trkpt>
      <trkpt lat="44.46155" lon="1.59115">
        <ele>178.94</ele>
        <time>2021-08-17T09:23:05Z</time>
      </trkpt>
      <trkpt lat="44.46147" lon="1.59119">
        <ele>179.9</ele>
        <time>2021-08-17T09:23:14Z</time>
      </trkpt>
      <trkpt lat="44.46138" lon="1.59122">
        <ele>181.83</ele>
        <time>2021-08-17T09:23:24Z</time>
      </trkpt>
      <trkpt lat="44.46131" lon="1.59125">
        <ele>182.31</ele>
        <time>2021-08-17T09:23:32Z</time>
      </trkpt>
      <trkpt lat="44.46123" lon="1.59128">
        <ele>183.75</ele>
        <time>2021-08-17T09:23:42Z</time>
      </trkpt>
      <trkpt lat="44.46117" lon="1.59129">
        <ele>185.19</ele>
        <time>2021-08-17T09:23:50Z</time>
      </trkpt>
      <trkpt lat="44.46111" lon="1.59131">
        <ele>186.15</ele>
        <time>2021-08-17T09:23:59Z</time>
      </trkpt>
      <trkpt lat="44.46105" lon="1.59132">
        <ele>187.11</ele>
        <time>2021-08-17T09:24:07Z</time>
      </trkpt>
      <trkpt lat="44.46099" lon="1.59134">
        <ele>188.56</ele>
        <time>2021-08-17T09:24:16Z</time>
      </trkpt>
      <trkpt lat="44.46094" lon="1.59136">
        <ele>189.52</ele>
        <time>2021-08-17T09:24:24Z</time>
      </trkpt>
      <trkpt lat="44.4609" lon="1.59138">
        <ele>190.96</ele>
        <time>2021-08-17T09:24:32Z</time>
      </trkpt>
      <trkpt lat="44.46084" lon="1.5914">
        <ele>191.92</ele>
        <time>2021-08-17T09:24:41Z</time>
      </trkpt>
      <trkpt lat="44.4608" lon="1.59141">
        <ele>192.88</ele>
        <time>2021-08-17T09:24:48Z</time>
      </trkpt>
      <trkpt lat="44.46075" lon="1.59143">
        <ele>194.32</ele>
        <time>2021-08-17T09:24:57Z</time>
      </trkpt>
      <trkpt lat="44.46071" lon="1.59146">
        <ele>195.28</ele>
        <time>2021-08-17T09:25:04Z</time>
      </trkpt>
      <trkpt lat="44.46066" lon="1.5915">
        <ele>196.73</ele>
        <time>2021-08-17T09:25:12Z</time>
      </trkpt>
      <trkpt lat="44.46061" lon="1.59151">
        <ele>198.17</ele>
        <time>2021-08-17T09:25:22Z</time>
      </trkpt>
      <trkpt lat="44.46057" lon="1.59153">
        <ele>199.13</ele>
        <time>2021-08-17T09:25:29Z</time>
      </trkpt>
      <trkpt lat="44.46053" lon="1.59157">
        <ele>200.09</ele>
        <time>2021-08-17T09:25:37Z</time>
      </trkpt>
      <trkpt lat="44.46049" lon="1.59159">
        <ele>201.53</ele>
        <time>2021-08-17T09:25:46Z</time>
      </trkpt>
      <trkpt lat="44.46044" lon="1.59162">
        <ele>202.49</ele>
        <time>2021-08-17T09:25:54Z</time>
      </trkpt>
      <trkpt lat="44.46037" lon="1.59166">
        <ele>204.42</ele>
        <time>2021-08-17T09:26:03Z</time>
      </trkpt>
      <trkpt lat="44.4603" lon="1.59167">
        <ele>204.9</ele>
        <time>2021-08-17T09:26:12Z</time>
      </trkpt>
      <trkpt lat="44.46024" lon="1.59169">
        <ele>206.34</ele>
        <time>2021-08-17T09:26:20Z</time>
      </trkpt>
      <trkpt lat="44.46019" lon="1.59173">
        <ele>207.3</ele>
        <time>2021-08-17T09:26:29Z</time>
      </trkpt>
      <trkpt lat="44.46014" lon="1.59176">
        <ele>208.74</ele>
        <time>2021-08-17T09:26:37Z</time>
      </trkpt>
      <trkpt lat="44.46006" lon="1.5918">
        <ele>209.7</ele>
        <time>2021-08-17T09:26:46Z</time>
      </trkpt>
      <trkpt lat="44.46" lon="1.59183">
        <ele>211.63</ele>
        <time>2021-08-17T09:26:56Z</time>
      </trkpt>
      <trkpt lat="44.45994" lon="1.59186">
        <ele>212.59</ele>
        <time>2021-08-17T09:27:06Z</time>
      </trkpt>
      <trkpt lat="44.4599" lon="1.59187">
        <ele>213.55</ele>
        <time>2021-08-17T09:27:14Z</time>
      </trkpt>
      <trkpt lat="44.45984" lon="1.59192">
        <ele>215.47</ele>
        <time>2021-08-17T09:27:24Z</time>
      </trkpt>
      <trkpt lat="44.45978" lon="1.59196">
        <ele>216.43</ele>
        <time>2021-08-17T09:27:33Z</time>
      </trkpt>
      <trkpt lat="44.45972" lon="1.59201">
        <ele>217.88</ele>
        <time>2021-08-17T09:27:42Z</time>
      </trkpt>
      <trkpt lat="44.45966" lon="1.59206">
        <ele>219.32</ele>
        <time>2021-08-17T09:27:50Z</time>
      </trkpt>
      <trkpt lat="44.4596" lon="1.5921">
        <ele>220.28</ele>
        <time>2021-08-17T09:27:59Z</time>
      </trkpt>
      <trkpt lat="44.45954" lon="1.59216">
        <ele>221.24</ele>
        <time>2021-08-17T09:28:08Z</time>
      </trkpt>
      <trkpt lat="44.45951" lon="1.59219">
        <ele>222.2</ele>
        <time>2021-08-17T09:28:15Z</time>
      </trkpt>
      <trkpt lat="44.45945" lon="1.59224">
        <ele>223.64</ele>
        <time>2021-08-17T09:28:24Z</time>
      </trkpt>
      <trkpt lat="44.4594" lon="1.5923">
        <ele>225.57</ele>
        <time>2021-08-17T09:28:34Z</time>
      </trkpt>
      <trkpt lat="44.45935" lon="1.59237">
        <ele>226.53</ele>
        <time>2021-08-17T09:28:44Z</time>
      </trkpt>
      <trkpt lat="44.4593" lon="1.59243">
        <ele>228.45</ele>
        <time>2021-08-17T09:28:53Z</time>
      </trkpt>
      <trkpt lat="44.45926" lon="1.59244">
        <ele>228.93</ele>
        <time>2021-08-17T09:29:01Z</time>
      </trkpt>
      <trkpt lat="44.45922" lon="1.59248">
        <ele>228.93</ele>
        <time>2021-08-17T09:29:09Z</time>
      </trkpt>
      <trkpt lat="44.45921" lon="1.59248">
        <ele>228.93</ele>
        <time>2021-08-17T09:29:10Z</time>
      </trkpt>
      <trkpt lat="44.45918" lon="1.59251">
        <ele>229.41</ele>
        <time>2021-08-17T09:29:13Z</time>
      </trkpt>
      <trkpt lat="44.4591" lon="1.59257">
        <ele>230.85</ele>
        <time>2021-08-17T09:29:21Z</time>
      </trkpt>
      <trkpt lat="44.45901" lon="1.59264">
        <ele>232.3</ele>
        <time>2021-08-17T09:29:29Z</time>
      </trkpt>
      <trkpt lat="44.459" lon="1.59265">
        <ele>232.78</ele>
        <time>2021-08-17T09:29:30Z</time>
      </trkpt>
      <trkpt lat="44.45895" lon="1.59269">
        <ele>233.74</ele>
        <time>2021-08-17T09:29:36Z</time>
      </trkpt>
      <trkpt lat="44.45893" lon="1.5927">
        <ele>233.74</ele>
        <time>2021-08-17T09:29:37Z</time>
      </trkpt>
      <trkpt lat="44.45885" lon="1.59276">
        <ele>234.7</ele>
        <time>2021-08-17T09:29:44Z</time>
      </trkpt>
      <trkpt lat="44.45874" lon="1.59282">
        <ele>235.18</ele>
        <time>2021-08-17T09:29:52Z</time>
      </trkpt>
      <trkpt lat="44.45872" lon="1.59282">
        <ele>235.18</ele>
        <time>2021-08-17T09:29:53Z</time>
      </trkpt>
      <trkpt lat="44.4587" lon="1.59283">
        <ele>235.18</ele>
        <time>2021-08-17T09:29:54Z</time>
      </trkpt>
      <trkpt lat="44.45869" lon="1.59284">
        <ele>235.66</ele>
        <time>2021-08-17T09:29:55Z</time>
      </trkpt>
      <trkpt lat="44.45868" lon="1.59285">
        <ele>235.66</ele>
        <time>2021-08-17T09:29:56Z</time>
      </trkpt>
      <trkpt lat="44.45867" lon="1.59286">
        <ele>235.66</ele>
        <time>2021-08-17T09:29:57Z</time>
      </trkpt>
      <trkpt lat="44.45866" lon="1.59286">
        <ele>235.66</ele>
        <time>2021-08-17T09:29:58Z</time>
      </trkpt>
      <trkpt lat="44.45865" lon="1.59286">
        <ele>236.14</ele>
        <time>2021-08-17T09:29:59Z</time>
      </trkpt>
      <trkpt lat="44.45865" lon="1.59287">
        <ele>236.14</ele>
        <time>2021-08-17T09:30:00Z</time>
      </trkpt>
      <trkpt lat="44.45864" lon="1.59288">
        <ele>236.14</ele>
        <time>2021-08-17T09:30:01Z</time>
      </trkpt>
      <trkpt lat="44.45855" lon="1.59294">
        <ele>237.58</ele>
        <time>2021-08-17T09:30:09Z</time>
      </trkpt>
      <trkpt lat="44.45854" lon="1.59295">
        <ele>237.58</ele>
        <time>2021-08-17T09:30:10Z</time>
      </trkpt>
      <trkpt lat="44.45853" lon="1.59295">
        <ele>238.06</ele>
        <time>2021-08-17T09:30:11Z</time>
      </trkpt>
      <trkpt lat="44.45852" lon="1.59296">
        <ele>238.06</ele>
        <time>2021-08-17T09:30:12Z</time>
      </trkpt>
      <trkpt lat="44.4585" lon="1.59297">
        <ele>238.06</ele>
        <time>2021-08-17T09:30:13Z</time>
      </trkpt>
      <trkpt lat="44.45849" lon="1.59298">
        <ele>238.54</ele>
        <time>2021-08-17T09:30:14Z</time>
      </trkpt>
      <trkpt lat="44.4584" lon="1.59307">
        <ele>239.99</ele>
        <time>2021-08-17T09:30:23Z</time>
      </trkpt>
      <trkpt lat="44.45834" lon="1.59318">
        <ele>240.95</ele>
        <time>2021-08-17T09:30:31Z</time>
      </trkpt>
      <trkpt lat="44.45829" lon="1.59327">
        <ele>242.87</ele>
        <time>2021-08-17T09:30:39Z</time>
      </trkpt>
      <trkpt lat="44.45828" lon="1.59328">
        <ele>242.87</ele>
        <time>2021-08-17T09:30:40Z</time>
      </trkpt>
      <trkpt lat="44.45822" lon="1.59337">
        <ele>244.31</ele>
        <time>2021-08-17T09:30:48Z</time>
      </trkpt>
      <trkpt lat="44.45814" lon="1.59348">
        <ele>245.75</ele>
        <time>2021-08-17T09:30:57Z</time>
      </trkpt>
      <trkpt lat="44.45806" lon="1.59359">
        <ele>246.72</ele>
        <time>2021-08-17T09:31:06Z</time>
      </trkpt>
      <trkpt lat="44.45805" lon="1.5936">
        <ele>246.72</ele>
        <time>2021-08-17T09:31:07Z</time>
      </trkpt>
      <trkpt lat="44.45804" lon="1.59361">
        <ele>247.2</ele>
        <time>2021-08-17T09:31:08Z</time>
      </trkpt>
      <trkpt lat="44.45803" lon="1.59362">
        <ele>247.2</ele>
        <time>2021-08-17T09:31:09Z</time>
      </trkpt>
      <trkpt lat="44.45802" lon="1.59363">
        <ele>247.2</ele>
        <time>2021-08-17T09:31:10Z</time>
      </trkpt>
      <trkpt lat="44.45796" lon="1.59371">
        <ele>248.64</ele>
        <time>2021-08-17T09:31:18Z</time>
      </trkpt>
      <trkpt lat="44.4579" lon="1.59378">
        <ele>249.6</ele>
        <time>2021-08-17T09:31:24Z</time>
      </trkpt>
      <trkpt lat="44.45789" lon="1.59379">
        <ele>249.6</ele>
        <time>2021-08-17T09:31:25Z</time>
      </trkpt>
      <trkpt lat="44.45788" lon="1.5938">
        <ele>249.6</ele>
        <time>2021-08-17T09:31:26Z</time>
      </trkpt>
      <trkpt lat="44.45778" lon="1.59391">
        <ele>251.52</ele>
        <time>2021-08-17T09:31:37Z</time>
      </trkpt>
      <trkpt lat="44.45771" lon="1.59395">
        <ele>252.48</ele>
        <time>2021-08-17T09:31:42Z</time>
      </trkpt>
      <trkpt lat="44.4577" lon="1.59397">
        <ele>252.48</ele>
        <time>2021-08-17T09:31:43Z</time>
      </trkpt>
      <trkpt lat="44.45763" lon="1.59405">
        <ele>253.93</ele>
        <time>2021-08-17T09:31:51Z</time>
      </trkpt>
      <trkpt lat="44.45761" lon="1.59407">
        <ele>253.93</ele>
        <time>2021-08-17T09:31:53Z</time>
      </trkpt>
      <trkpt lat="44.45753" lon="1.59415">
        <ele>254.89</ele>
        <time>2021-08-17T09:32:01Z</time>
      </trkpt>
      <trkpt lat="44.45744" lon="1.59425">
        <ele>255.85</ele>
        <time>2021-08-17T09:32:10Z</time>
      </trkpt>
      <trkpt lat="44.45738" lon="1.59431">
        <ele>257.29</ele>
        <time>2021-08-17T09:32:17Z</time>
      </trkpt>
      <trkpt lat="44.45733" lon="1.59436">
        <ele>258.25</ele>
        <time>2021-08-17T09:32:24Z</time>
      </trkpt>
      <trkpt lat="44.45729" lon="1.59441">
        <ele>259.21</ele>
        <time>2021-08-17T09:32:31Z</time>
      </trkpt>
      <trkpt lat="44.45723" lon="1.59448">
        <ele>260.17</ele>
        <time>2021-08-17T09:32:40Z</time>
      </trkpt>
      <trkpt lat="44.45716" lon="1.59456">
        <ele>261.62</ele>
        <time>2021-08-17T09:32:50Z</time>
      </trkpt>
      <trkpt lat="44.4571" lon="1.59462">
        <ele>262.58</ele>
        <time>2021-08-17T09:32:59Z</time>
      </trkpt>
      <trkpt lat="44.45704" lon="1.59468">
        <ele>264.02</ele>
        <time>2021-08-17T09:33:08Z</time>
      </trkpt>
      <trkpt lat="44.45696" lon="1.59476">
        <ele>264.98</ele>
        <time>2021-08-17T09:33:18Z</time>
      </trkpt>
      <trkpt lat="44.45691" lon="1.59483">
        <ele>266.42</ele>
        <time>2021-08-17T09:33:28Z</time>
      </trkpt>
      <trkpt lat="44.45687" lon="1.59487">
        <ele>267.38</ele>
        <time>2021-08-17T09:33:35Z</time>
      </trkpt>
      <trkpt lat="44.45682" lon="1.59493">
        <ele>268.83</ele>
        <time>2021-08-17T09:33:42Z</time>
      </trkpt>
      <trkpt lat="44.45675" lon="1.59503">
        <ele>269.31</ele>
        <time>2021-08-17T09:33:52Z</time>
      </trkpt>
      <trkpt lat="44.4567" lon="1.5951">
        <ele>270.75</ele>
        <time>2021-08-17T09:34:00Z</time>
      </trkpt>
      <trkpt lat="44.45665" lon="1.59516">
        <ele>271.71</ele>
        <time>2021-08-17T09:34:08Z</time>
      </trkpt>
      <trkpt lat="44.4566" lon="1.59522">
        <ele>272.67</ele>
        <time>2021-08-17T09:34:17Z</time>
      </trkpt>
      <trkpt lat="44.45656" lon="1.59527">
        <ele>273.15</ele>
        <time>2021-08-17T09:34:25Z</time>
      </trkpt>
      <trkpt lat="44.45653" lon="1.5953">
        <ele>274.11</ele>
        <time>2021-08-17T09:34:33Z</time>
      </trkpt>
      <trkpt lat="44.45649" lon="1.59535">
        <ele>274.59</ele>
        <time>2021-08-17T09:34:37Z</time>
      </trkpt>
      <trkpt lat="44.45648" lon="1.59536">
        <ele>275.07</ele>
        <time>2021-08-17T09:34:38Z</time>
      </trkpt>
      <trkpt lat="44.45647" lon="1.59537">
        <ele>275.07</ele>
        <time>2021-08-17T09:34:39Z</time>
      </trkpt>
      <trkpt lat="44.45646" lon="1.59538">
        <ele>275.07</ele>
        <time>2021-08-17T09:34:40Z</time>
      </trkpt>
      <trkpt lat="44.45645" lon="1.59539">
        <ele>275.07</ele>
        <time>2021-08-17T09:34:41Z</time>
      </trkpt>
      <trkpt lat="44.45638" lon="1.59549">
        <ele>276.04</ele>
        <time>2021-08-17T09:34:48Z</time>
      </trkpt>
      <trkpt lat="44.45637" lon="1.59551">
        <ele>277</ele>
        <time>2021-08-17T09:34:49Z</time>
      </trkpt>
      <trkpt lat="44.45636" lon="1.59552">
        <ele>277</ele>
        <time>2021-08-17T09:34:50Z</time>
      </trkpt>
      <trkpt lat="44.45627" lon="1.59566">
        <ele>278.92</ele>
        <time>2021-08-17T09:34:59Z</time>
      </trkpt>
      <trkpt lat="44.45624" lon="1.59572">
        <ele>278.92</ele>
        <time>2021-08-17T09:35:03Z</time>
      </trkpt>
      <trkpt lat="44.45623" lon="1.59573">
        <ele>279.4</ele>
        <time>2021-08-17T09:35:04Z</time>
      </trkpt>
      <trkpt lat="44.45623" lon="1.59575">
        <ele>279.4</ele>
        <time>2021-08-17T09:35:05Z</time>
      </trkpt>
      <trkpt lat="44.45616" lon="1.5959">
        <ele>280.84</ele>
        <time>2021-08-17T09:35:14Z</time>
      </trkpt>
      <trkpt lat="44.45615" lon="1.59592">
        <ele>281.32</ele>
        <time>2021-08-17T09:35:15Z</time>
      </trkpt>
      <trkpt lat="44.45614" lon="1.59593">
        <ele>281.32</ele>
        <time>2021-08-17T09:35:16Z</time>
      </trkpt>
      <trkpt lat="44.45613" lon="1.59595">
        <ele>281.32</ele>
        <time>2021-08-17T09:35:17Z</time>
      </trkpt>
      <trkpt lat="44.45612" lon="1.59597">
        <ele>281.32</ele>
        <time>2021-08-17T09:35:18Z</time>
      </trkpt>
      <trkpt lat="44.45611" lon="1.59599">
        <ele>281.8</ele>
        <time>2021-08-17T09:35:19Z</time>
      </trkpt>
      <trkpt lat="44.45598" lon="1.59623">
        <ele>282.77</ele>
        <time>2021-08-17T09:35:28Z</time>
      </trkpt>
      <trkpt lat="44.45586" lon="1.59656">
        <ele>284.21</ele>
        <time>2021-08-17T09:35:38Z</time>
      </trkpt>
      <trkpt lat="44.45571" lon="1.59695">
        <ele>284.69</ele>
        <time>2021-08-17T09:35:48Z</time>
      </trkpt>
      <trkpt lat="44.45556" lon="1.59731">
        <ele>285.65</ele>
        <time>2021-08-17T09:35:57Z</time>
      </trkpt>
      <trkpt lat="44.45532" lon="1.59763">
        <ele>285.65</ele>
        <time>2021-08-17T09:36:06Z</time>
      </trkpt>
      <trkpt lat="44.45522" lon="1.59772">
        <ele>286.13</ele>
        <time>2021-08-17T09:36:09Z</time>
      </trkpt>
      <trkpt lat="44.45497" lon="1.59803">
        <ele>287.57</ele>
        <time>2021-08-17T09:36:18Z</time>
      </trkpt>
      <trkpt lat="44.45489" lon="1.59818">
        <ele>288.53</ele>
        <time>2021-08-17T09:36:24Z</time>
      </trkpt>
      <trkpt lat="44.45479" lon="1.59841">
        <ele>290.46</ele>
        <time>2021-08-17T09:36:34Z</time>
      </trkpt>
      <trkpt lat="44.4547" lon="1.59859">
        <ele>291.9</ele>
        <time>2021-08-17T09:36:42Z</time>
      </trkpt>
      <trkpt lat="44.45456" lon="1.59875">
        <ele>292.86</ele>
        <time>2021-08-17T09:36:50Z</time>
      </trkpt>
      <trkpt lat="44.45435" lon="1.59887">
        <ele>292.86</ele>
        <time>2021-08-17T09:36:57Z</time>
      </trkpt>
      <trkpt lat="44.45408" lon="1.59905">
        <ele>292.86</ele>
        <time>2021-08-17T09:37:04Z</time>
      </trkpt>
      <trkpt lat="44.45386" lon="1.59928">
        <ele>292.86</ele>
        <time>2021-08-17T09:37:11Z</time>
      </trkpt>
      <trkpt lat="44.45379" lon="1.59937">
        <ele>292.86</ele>
        <time>2021-08-17T09:37:13Z</time>
      </trkpt>
      <trkpt lat="44.4537" lon="1.59951">
        <ele>292.86</ele>
        <time>2021-08-17T09:37:16Z</time>
      </trkpt>
      <trkpt lat="44.45365" lon="1.59961">
        <ele>292.86</ele>
        <time>2021-08-17T09:37:18Z</time>
      </trkpt>
      <trkpt lat="44.45363" lon="1.59966">
        <ele>292.86</ele>
        <time>2021-08-17T09:37:19Z</time>
      </trkpt>
      <trkpt lat="44.45352" lon="1.60005">
        <ele>292.86</ele>
        <time>2021-08-17T09:37:27Z</time>
      </trkpt>
      <trkpt lat="44.45336" lon="1.60039">
        <ele>292.86</ele>
        <time>2021-08-17T09:37:34Z</time>
      </trkpt>
      <trkpt lat="44.45323" lon="1.60066">
        <ele>292.86</ele>
        <time>2021-08-17T09:37:39Z</time>
      </trkpt>
      <trkpt lat="44.45307" lon="1.6011">
        <ele>292.86</ele>
        <time>2021-08-17T09:37:46Z</time>
      </trkpt>
      <trkpt lat="44.45305" lon="1.60116">
        <ele>292.86</ele>
        <time>2021-08-17T09:37:47Z</time>
      </trkpt>
      <trkpt lat="44.45303" lon="1.60123">
        <ele>292.86</ele>
        <time>2021-08-17T09:37:48Z</time>
      </trkpt>
      <trkpt lat="44.45302" lon="1.6013">
        <ele>292.86</ele>
        <time>2021-08-17T09:37:49Z</time>
      </trkpt>
      <trkpt lat="44.45301" lon="1.60137">
        <ele>292.86</ele>
        <time>2021-08-17T09:37:50Z</time>
      </trkpt>
      <trkpt lat="44.453" lon="1.60152">
        <ele>291.9</ele>
        <time>2021-08-17T09:37:52Z</time>
      </trkpt>
      <trkpt lat="44.45299" lon="1.6016">
        <ele>291.9</ele>
        <time>2021-08-17T09:37:53Z</time>
      </trkpt>
      <trkpt lat="44.45297" lon="1.60169">
        <ele>290.94</ele>
        <time>2021-08-17T09:37:54Z</time>
      </trkpt>
      <trkpt lat="44.45283" lon="1.60206">
        <ele>286.61</ele>
        <time>2021-08-17T09:37:58Z</time>
      </trkpt>
      <trkpt lat="44.45263" lon="1.60243">
        <ele>283.73</ele>
        <time>2021-08-17T09:38:02Z</time>
      </trkpt>
      <trkpt lat="44.45231" lon="1.60294">
        <ele>280.84</ele>
        <time>2021-08-17T09:38:08Z</time>
      </trkpt>
      <trkpt lat="44.45227" lon="1.60303">
        <ele>279.88</ele>
        <time>2021-08-17T09:38:09Z</time>
      </trkpt>
      <trkpt lat="44.4522" lon="1.60323">
        <ele>278.44</ele>
        <time>2021-08-17T09:38:11Z</time>
      </trkpt>
      <trkpt lat="44.45216" lon="1.60331">
        <ele>278.44</ele>
        <time>2021-08-17T09:38:12Z</time>
      </trkpt>
      <trkpt lat="44.45213" lon="1.60337">
        <ele>279.88</ele>
        <time>2021-08-17T09:38:13Z</time>
      </trkpt>
      <trkpt lat="44.45211" lon="1.60343">
        <ele>280.84</ele>
        <time>2021-08-17T09:38:14Z</time>
      </trkpt>
      <trkpt lat="44.45209" lon="1.60349">
        <ele>280.36</ele>
        <time>2021-08-17T09:38:15Z</time>
      </trkpt>
      <trkpt lat="44.45208" lon="1.60356">
        <ele>280.84</ele>
        <time>2021-08-17T09:38:16Z</time>
      </trkpt>
      <trkpt lat="44.45206" lon="1.60362">
        <ele>280.84</ele>
        <time>2021-08-17T09:38:17Z</time>
      </trkpt>
      <trkpt lat="44.45195" lon="1.60398">
        <ele>281.32</ele>
        <time>2021-08-17T09:38:24Z</time>
      </trkpt>
      <trkpt lat="44.45186" lon="1.60417">
        <ele>281.8</ele>
        <time>2021-08-17T09:38:28Z</time>
      </trkpt>
      <trkpt lat="44.4517" lon="1.60448">
        <ele>281.8</ele>
        <time>2021-08-17T09:38:35Z</time>
      </trkpt>
      <trkpt lat="44.45169" lon="1.60462">
        <ele>282.28</ele>
        <time>2021-08-17T09:38:38Z</time>
      </trkpt>
      <trkpt lat="44.45172" lon="1.60476">
        <ele>283.73</ele>
        <time>2021-08-17T09:38:45Z</time>
      </trkpt>
      <trkpt lat="44.45173" lon="1.60477">
        <ele>283.73</ele>
        <time>2021-08-17T09:38:46Z</time>
      </trkpt>
      <trkpt lat="44.45173" lon="1.60479">
        <ele>283.73</ele>
        <time>2021-08-17T09:38:53Z</time>
      </trkpt>
      <trkpt lat="44.45175" lon="1.60485">
        <ele>284.21</ele>
        <time>2021-08-17T09:39:04Z</time>
      </trkpt>
      <trkpt lat="44.45175" lon="1.60493">
        <ele>285.17</ele>
        <time>2021-08-17T09:39:11Z</time>
      </trkpt>
      <trkpt lat="44.45176" lon="1.60496">
        <ele>286.13</ele>
        <time>2021-08-17T09:39:13Z</time>
      </trkpt>
      <trkpt lat="44.45178" lon="1.60508">
        <ele>286.61</ele>
        <time>2021-08-17T09:39:22Z</time>
      </trkpt>
      <trkpt lat="44.45179" lon="1.60517">
        <ele>287.57</ele>
        <time>2021-08-17T09:39:30Z</time>
      </trkpt>
      <trkpt lat="44.45177" lon="1.60528">
        <ele>289.01</ele>
        <time>2021-08-17T09:39:40Z</time>
      </trkpt>
      <trkpt lat="44.45177" lon="1.60539">
        <ele>290.94</ele>
        <time>2021-08-17T09:39:51Z</time>
      </trkpt>
      <trkpt lat="44.45176" lon="1.60546">
        <ele>291.42</ele>
        <time>2021-08-17T09:39:57Z</time>
      </trkpt>
      <trkpt lat="44.45178" lon="1.6055">
        <ele>291.9</ele>
        <time>2021-08-17T09:40:01Z</time>
      </trkpt>
      <trkpt lat="44.45176" lon="1.60559">
        <ele>293.34</ele>
        <time>2021-08-17T09:40:09Z</time>
      </trkpt>
      <trkpt lat="44.45175" lon="1.60572">
        <ele>294.78</ele>
        <time>2021-08-17T09:40:20Z</time>
      </trkpt>
      <trkpt lat="44.45174" lon="1.60585">
        <ele>296.22</ele>
        <time>2021-08-17T09:40:31Z</time>
      </trkpt>
      <trkpt lat="44.45172" lon="1.6059">
        <ele>296.22</ele>
        <time>2021-08-17T09:40:37Z</time>
      </trkpt>
      <trkpt lat="44.45172" lon="1.60592">
        <ele>296.22</ele>
        <time>2021-08-17T09:40:38Z</time>
      </trkpt>
      <trkpt lat="44.45172" lon="1.60594">
        <ele>296.7</ele>
        <time>2021-08-17T09:40:39Z</time>
      </trkpt>
      <trkpt lat="44.45172" lon="1.60596">
        <ele>296.7</ele>
        <time>2021-08-17T09:40:40Z</time>
      </trkpt>
      <trkpt lat="44.45172" lon="1.60598">
        <ele>296.7</ele>
        <time>2021-08-17T09:40:41Z</time>
      </trkpt>
      <trkpt lat="44.4517" lon="1.60615">
        <ele>298.15</ele>
        <time>2021-08-17T09:40:49Z</time>
      </trkpt>
      <trkpt lat="44.45169" lon="1.60626">
        <ele>299.11</ele>
        <time>2021-08-17T09:40:57Z</time>
      </trkpt>
      <trkpt lat="44.45167" lon="1.60637">
        <ele>300.55</ele>
        <time>2021-08-17T09:41:09Z</time>
      </trkpt>
      <trkpt lat="44.45164" lon="1.60645">
        <ele>301.51</ele>
        <time>2021-08-17T09:41:19Z</time>
      </trkpt>
      <trkpt lat="44.45162" lon="1.60652">
        <ele>303.43</ele>
        <time>2021-08-17T09:41:27Z</time>
      </trkpt>
      <trkpt lat="44.45159" lon="1.6066">
        <ele>304.88</ele>
        <time>2021-08-17T09:41:38Z</time>
      </trkpt>
      <trkpt lat="44.45159" lon="1.6067">
        <ele>306.8</ele>
        <time>2021-08-17T09:41:48Z</time>
      </trkpt>
      <trkpt lat="44.4516" lon="1.60677">
        <ele>307.76</ele>
        <time>2021-08-17T09:41:57Z</time>
      </trkpt>
      <trkpt lat="44.45165" lon="1.60683">
        <ele>308.72</ele>
        <time>2021-08-17T09:42:06Z</time>
      </trkpt>
      <trkpt lat="44.45166" lon="1.6069">
        <ele>310.16</ele>
        <time>2021-08-17T09:42:14Z</time>
      </trkpt>
      <trkpt lat="44.45166" lon="1.60699">
        <ele>311.12</ele>
        <time>2021-08-17T09:42:24Z</time>
      </trkpt>
      <trkpt lat="44.45165" lon="1.6071">
        <ele>313.05</ele>
        <time>2021-08-17T09:42:36Z</time>
      </trkpt>
      <trkpt lat="44.45166" lon="1.6072">
        <ele>314.97</ele>
        <time>2021-08-17T09:42:46Z</time>
      </trkpt>
      <trkpt lat="44.45165" lon="1.6073">
        <ele>315.93</ele>
        <time>2021-08-17T09:42:55Z</time>
      </trkpt>
      <trkpt lat="44.45163" lon="1.60738">
        <ele>316.89</ele>
        <time>2021-08-17T09:43:03Z</time>
      </trkpt>
      <trkpt lat="44.45163" lon="1.60748">
        <ele>318.33</ele>
        <time>2021-08-17T09:43:12Z</time>
      </trkpt>
      <trkpt lat="44.45164" lon="1.6076">
        <ele>319.3</ele>
        <time>2021-08-17T09:43:21Z</time>
      </trkpt>
      <trkpt lat="44.45165" lon="1.60768">
        <ele>320.26</ele>
        <time>2021-08-17T09:43:30Z</time>
      </trkpt>
      <trkpt lat="44.45165" lon="1.60773">
        <ele>320.74</ele>
        <time>2021-08-17T09:43:37Z</time>
      </trkpt>
      <trkpt lat="44.45165" lon="1.60775">
        <ele>320.74</ele>
        <time>2021-08-17T09:43:38Z</time>
      </trkpt>
      <trkpt lat="44.45163" lon="1.60787">
        <ele>322.18</ele>
        <time>2021-08-17T09:43:47Z</time>
      </trkpt>
      <trkpt lat="44.45161" lon="1.60794">
        <ele>323.14</ele>
        <time>2021-08-17T09:43:54Z</time>
      </trkpt>
      <trkpt lat="44.4516" lon="1.60805">
        <ele>324.1</ele>
        <time>2021-08-17T09:44:03Z</time>
      </trkpt>
      <trkpt lat="44.4516" lon="1.60817">
        <ele>326.02</ele>
        <time>2021-08-17T09:44:12Z</time>
      </trkpt>
      <trkpt lat="44.45159" lon="1.60826">
        <ele>326.5</ele>
        <time>2021-08-17T09:44:21Z</time>
      </trkpt>
      <trkpt lat="44.45159" lon="1.6083">
        <ele>326.99</ele>
        <time>2021-08-17T09:44:30Z</time>
      </trkpt>
      <trkpt lat="44.45158" lon="1.60838">
        <ele>327.47</ele>
        <time>2021-08-17T09:44:35Z</time>
      </trkpt>
      <trkpt lat="44.45157" lon="1.6084">
        <ele>327.47</ele>
        <time>2021-08-17T09:44:36Z</time>
      </trkpt>
      <trkpt lat="44.45157" lon="1.60842">
        <ele>328.43</ele>
        <time>2021-08-17T09:44:37Z</time>
      </trkpt>
      <trkpt lat="44.45157" lon="1.60843">
        <ele>328.43</ele>
        <time>2021-08-17T09:44:38Z</time>
      </trkpt>
      <trkpt lat="44.45156" lon="1.60845">
        <ele>328.43</ele>
        <time>2021-08-17T09:44:39Z</time>
      </trkpt>
      <trkpt lat="44.45154" lon="1.60858">
        <ele>329.87</ele>
        <time>2021-08-17T09:44:48Z</time>
      </trkpt>
      <trkpt lat="44.45153" lon="1.60863">
        <ele>330.83</ele>
        <time>2021-08-17T09:44:51Z</time>
      </trkpt>
      <trkpt lat="44.45153" lon="1.60865">
        <ele>330.83</ele>
        <time>2021-08-17T09:44:52Z</time>
      </trkpt>
      <trkpt lat="44.45153" lon="1.60867">
        <ele>330.83</ele>
        <time>2021-08-17T09:44:53Z</time>
      </trkpt>
      <trkpt lat="44.45152" lon="1.60869">
        <ele>331.31</ele>
        <time>2021-08-17T09:44:54Z</time>
      </trkpt>
      <trkpt lat="44.45152" lon="1.60871">
        <ele>331.31</ele>
        <time>2021-08-17T09:44:55Z</time>
      </trkpt>
      <trkpt lat="44.4515" lon="1.60876">
        <ele>332.27</ele>
        <time>2021-08-17T09:45:01Z</time>
      </trkpt>
      <trkpt lat="44.4515" lon="1.60879">
        <ele>332.75</ele>
        <time>2021-08-17T09:45:08Z</time>
      </trkpt>
      <trkpt lat="44.45149" lon="1.60881">
        <ele>332.75</ele>
        <time>2021-08-17T09:45:24Z</time>
      </trkpt>
      <trkpt lat="44.45147" lon="1.60888">
        <ele>333.71</ele>
        <time>2021-08-17T09:45:32Z</time>
      </trkpt>
      <trkpt lat="44.45143" lon="1.60898">
        <ele>335.64</ele>
        <time>2021-08-17T09:45:42Z</time>
      </trkpt>
      <trkpt lat="44.4514" lon="1.60905">
        <ele>337.08</ele>
        <time>2021-08-17T09:45:51Z</time>
      </trkpt>
      <trkpt lat="44.45138" lon="1.60914">
        <ele>338.04</ele>
        <time>2021-08-17T09:46:01Z</time>
      </trkpt>
      <trkpt lat="44.45136" lon="1.60921">
        <ele>339</ele>
        <time>2021-08-17T09:46:10Z</time>
      </trkpt>
      <trkpt lat="44.45134" lon="1.60927">
        <ele>339.96</ele>
        <time>2021-08-17T09:46:17Z</time>
      </trkpt>
      <trkpt lat="44.45132" lon="1.60933">
        <ele>340.92</ele>
        <time>2021-08-17T09:46:24Z</time>
      </trkpt>
      <trkpt lat="44.4513" lon="1.6094">
        <ele>342.37</ele>
        <time>2021-08-17T09:46:33Z</time>
      </trkpt>
      <trkpt lat="44.45127" lon="1.60949">
        <ele>343.81</ele>
        <time>2021-08-17T09:46:43Z</time>
      </trkpt>
      <trkpt lat="44.45125" lon="1.60956">
        <ele>344.77</ele>
        <time>2021-08-17T09:46:51Z</time>
      </trkpt>
      <trkpt lat="44.45122" lon="1.60963">
        <ele>346.21</ele>
        <time>2021-08-17T09:46:59Z</time>
      </trkpt>
      <trkpt lat="44.45118" lon="1.60972">
        <ele>347.17</ele>
        <time>2021-08-17T09:47:07Z</time>
      </trkpt>
      <trkpt lat="44.45116" lon="1.60975">
        <ele>347.65</ele>
        <time>2021-08-17T09:47:16Z</time>
      </trkpt>
      <trkpt lat="44.45113" lon="1.60982">
        <ele>348.62</ele>
        <time>2021-08-17T09:47:23Z</time>
      </trkpt>
      <trkpt lat="44.4511" lon="1.60986">
        <ele>349.58</ele>
        <time>2021-08-17T09:47:26Z</time>
      </trkpt>
      <trkpt lat="44.45107" lon="1.60992">
        <ele>349.58</ele>
        <time>2021-08-17T09:47:30Z</time>
      </trkpt>
      <trkpt lat="44.45106" lon="1.60993">
        <ele>349.58</ele>
        <time>2021-08-17T09:47:31Z</time>
      </trkpt>
      <trkpt lat="44.45105" lon="1.60995">
        <ele>349.58</ele>
        <time>2021-08-17T09:47:32Z</time>
      </trkpt>
      <trkpt lat="44.45101" lon="1.61">
        <ele>350.54</ele>
        <time>2021-08-17T09:47:36Z</time>
      </trkpt>
      <trkpt lat="44.451" lon="1.61002">
        <ele>350.54</ele>
        <time>2021-08-17T09:47:37Z</time>
      </trkpt>
      <trkpt lat="44.45099" lon="1.61004">
        <ele>350.54</ele>
        <time>2021-08-17T09:47:38Z</time>
      </trkpt>
      <trkpt lat="44.45097" lon="1.61005">
        <ele>350.54</ele>
        <time>2021-08-17T09:47:39Z</time>
      </trkpt>
      <trkpt lat="44.45096" lon="1.61007">
        <ele>351.02</ele>
        <time>2021-08-17T09:47:40Z</time>
      </trkpt>
      <trkpt lat="44.45095" lon="1.61009">
        <ele>351.02</ele>
        <time>2021-08-17T09:47:41Z</time>
      </trkpt>
      <trkpt lat="44.45093" lon="1.6101">
        <ele>351.02</ele>
        <time>2021-08-17T09:47:42Z</time>
      </trkpt>
      <trkpt lat="44.45092" lon="1.61012">
        <ele>351.02</ele>
        <time>2021-08-17T09:47:43Z</time>
      </trkpt>
      <trkpt lat="44.45091" lon="1.61015">
        <ele>351.5</ele>
        <time>2021-08-17T09:47:44Z</time>
      </trkpt>
      <trkpt lat="44.45073" lon="1.61032">
        <ele>351.5</ele>
        <time>2021-08-17T09:47:54Z</time>
      </trkpt>
      <trkpt lat="44.45055" lon="1.61049">
        <ele>351.5</ele>
        <time>2021-08-17T09:48:02Z</time>
      </trkpt>
      <trkpt lat="44.45053" lon="1.6105">
        <ele>351.5</ele>
        <time>2021-08-17T09:48:03Z</time>
      </trkpt>
      <trkpt lat="44.45052" lon="1.61049">
        <ele>351.5</ele>
        <time>2021-08-17T09:48:04Z</time>
      </trkpt>
      <trkpt lat="44.45051" lon="1.61049">
        <ele>351.5</ele>
        <time>2021-08-17T09:48:09Z</time>
      </trkpt>
      <trkpt lat="44.45052" lon="1.6105">
        <ele>351.5</ele>
        <time>2021-08-17T09:48:15Z</time>
      </trkpt>
      <trkpt lat="44.45053" lon="1.61051">
        <ele>350.54</ele>
        <time>2021-08-17T09:48:20Z</time>
      </trkpt>
      <trkpt lat="44.45053" lon="1.61053">
        <ele>350.54</ele>
        <time>2021-08-17T09:48:21Z</time>
      </trkpt>
      <trkpt lat="44.45051" lon="1.61055">
        <ele>350.06</ele>
        <time>2021-08-17T09:48:22Z</time>
      </trkpt>
      <trkpt lat="44.4505" lon="1.61058">
        <ele>349.58</ele>
        <time>2021-08-17T09:48:23Z</time>
      </trkpt>
      <trkpt lat="44.45044" lon="1.61065">
        <ele>348.62</ele>
        <time>2021-08-17T09:48:25Z</time>
      </trkpt>
      <trkpt lat="44.45041" lon="1.61065">
        <ele>348.62</ele>
        <time>2021-08-17T09:48:26Z</time>
      </trkpt>
      <trkpt lat="44.45038" lon="1.61063">
        <ele>348.62</ele>
        <time>2021-08-17T09:48:27Z</time>
      </trkpt>
      <trkpt lat="44.45019" lon="1.61053">
        <ele>348.62</ele>
        <time>2021-08-17T09:48:34Z</time>
      </trkpt>
      <trkpt lat="44.44987" lon="1.61041">
        <ele>348.62</ele>
        <time>2021-08-17T09:48:42Z</time>
      </trkpt>
      <trkpt lat="44.44983" lon="1.6104">
        <ele>348.62</ele>
        <time>2021-08-17T09:48:43Z</time>
      </trkpt>
      <trkpt lat="44.44978" lon="1.61039">
        <ele>348.62</ele>
        <time>2021-08-17T09:48:44Z</time>
      </trkpt>
      <trkpt lat="44.44975" lon="1.61037">
        <ele>348.62</ele>
        <time>2021-08-17T09:48:45Z</time>
      </trkpt>
      <trkpt lat="44.44935" lon="1.61022">
        <ele>348.62</ele>
        <time>2021-08-17T09:48:54Z</time>
      </trkpt>
      <trkpt lat="44.44912" lon="1.61013">
        <ele>349.58</ele>
        <time>2021-08-17T09:48:59Z</time>
      </trkpt>
      <trkpt lat="44.44872" lon="1.60993">
        <ele>350.06</ele>
        <time>2021-08-17T09:49:08Z</time>
      </trkpt>
      <trkpt lat="44.44855" lon="1.60981">
        <ele>350.06</ele>
        <time>2021-08-17T09:49:12Z</time>
      </trkpt>
      <trkpt lat="44.44815" lon="1.60947">
        <ele>351.02</ele>
        <time>2021-08-17T09:49:22Z</time>
      </trkpt>
      <trkpt lat="44.44811" lon="1.60944">
        <ele>351.02</ele>
        <time>2021-08-17T09:49:23Z</time>
      </trkpt>
      <trkpt lat="44.44807" lon="1.60941">
        <ele>351.02</ele>
        <time>2021-08-17T09:49:24Z</time>
      </trkpt>
      <trkpt lat="44.44761" lon="1.60915">
        <ele>351.5</ele>
        <time>2021-08-17T09:49:34Z</time>
      </trkpt>
      <trkpt lat="44.4471" lon="1.60891">
        <ele>352.46</ele>
        <time>2021-08-17T09:49:45Z</time>
      </trkpt>
      <trkpt lat="44.44673" lon="1.60872">
        <ele>352.94</ele>
        <time>2021-08-17T09:49:53Z</time>
      </trkpt>
      <trkpt lat="44.44668" lon="1.6087">
        <ele>352.94</ele>
        <time>2021-08-17T09:49:54Z</time>
      </trkpt>
      <trkpt lat="44.4463" lon="1.60846">
        <ele>353.42</ele>
        <time>2021-08-17T09:50:03Z</time>
      </trkpt>
      <trkpt lat="44.44614" lon="1.60833">
        <ele>353.9</ele>
        <time>2021-08-17T09:50:07Z</time>
      </trkpt>
      <trkpt lat="44.4461" lon="1.60831">
        <ele>353.9</ele>
        <time>2021-08-17T09:50:08Z</time>
      </trkpt>
      <trkpt lat="44.44606" lon="1.60832">
        <ele>353.9</ele>
        <time>2021-08-17T09:50:09Z</time>
      </trkpt>
      <trkpt lat="44.44603" lon="1.60835">
        <ele>353.9</ele>
        <time>2021-08-17T09:50:10Z</time>
      </trkpt>
      <trkpt lat="44.44601" lon="1.60841">
        <ele>353.9</ele>
        <time>2021-08-17T09:50:11Z</time>
      </trkpt>
      <trkpt lat="44.44602" lon="1.60847">
        <ele>353.9</ele>
        <time>2021-08-17T09:50:12Z</time>
      </trkpt>
      <trkpt lat="44.44604" lon="1.60853">
        <ele>353.9</ele>
        <time>2021-08-17T09:50:13Z</time>
      </trkpt>
      <trkpt lat="44.44608" lon="1.60858">
        <ele>352.46</ele>
        <time>2021-08-17T09:50:14Z</time>
      </trkpt>
      <trkpt lat="44.44612" lon="1.60862">
        <ele>351.98</ele>
        <time>2021-08-17T09:50:15Z</time>
      </trkpt>
      <trkpt lat="44.44656" lon="1.60901">
        <ele>349.58</ele>
        <time>2021-08-17T09:50:24Z</time>
      </trkpt>
      <trkpt lat="44.44681" lon="1.60923">
        <ele>346.69</ele>
        <time>2021-08-17T09:50:28Z</time>
      </trkpt>
      <trkpt lat="44.44705" lon="1.60944">
        <ele>343.33</ele>
        <time>2021-08-17T09:50:31Z</time>
      </trkpt>
      <trkpt lat="44.44733" lon="1.60967">
        <ele>339.48</ele>
        <time>2021-08-17T09:50:34Z</time>
      </trkpt>
      <trkpt lat="44.44752" lon="1.60986">
        <ele>336.12</ele>
        <time>2021-08-17T09:50:36Z</time>
      </trkpt>
      <trkpt lat="44.4478" lon="1.61019">
        <ele>331.79</ele>
        <time>2021-08-17T09:50:39Z</time>
      </trkpt>
      <trkpt lat="44.44789" lon="1.61032">
        <ele>329.87</ele>
        <time>2021-08-17T09:50:40Z</time>
      </trkpt>
      <trkpt lat="44.44795" lon="1.61045">
        <ele>328.91</ele>
        <time>2021-08-17T09:50:41Z</time>
      </trkpt>
      <trkpt lat="44.44806" lon="1.61071">
        <ele>326.02</ele>
        <time>2021-08-17T09:50:43Z</time>
      </trkpt>
      <trkpt lat="44.44813" lon="1.61082">
        <ele>325.54</ele>
        <time>2021-08-17T09:50:44Z</time>
      </trkpt>
      <trkpt lat="44.44821" lon="1.61091">
        <ele>324.1</ele>
        <time>2021-08-17T09:50:45Z</time>
      </trkpt>
      <trkpt lat="44.4483" lon="1.61099">
        <ele>323.14</ele>
        <time>2021-08-17T09:50:46Z</time>
      </trkpt>
      <trkpt lat="44.4484" lon="1.61106">
        <ele>322.18</ele>
        <time>2021-08-17T09:50:47Z</time>
      </trkpt>
      <trkpt lat="44.44859" lon="1.61124">
        <ele>319.78</ele>
        <time>2021-08-17T09:50:49Z</time>
      </trkpt>
      <trkpt lat="44.44868" lon="1.61136">
        <ele>318.33</ele>
        <time>2021-08-17T09:50:50Z</time>
      </trkpt>
      <trkpt lat="44.44875" lon="1.6115">
        <ele>316.89</ele>
        <time>2021-08-17T09:50:51Z</time>
      </trkpt>
      <trkpt lat="44.44882" lon="1.61165">
        <ele>315.93</ele>
        <time>2021-08-17T09:50:52Z</time>
      </trkpt>
      <trkpt lat="44.44888" lon="1.6118">
        <ele>314.49</ele>
        <time>2021-08-17T09:50:53Z</time>
      </trkpt>
      <trkpt lat="44.44905" lon="1.61221">
        <ele>310.64</ele>
        <time>2021-08-17T09:50:56Z</time>
      </trkpt>
      <trkpt lat="44.44914" lon="1.61248">
        <ele>308.72</ele>
        <time>2021-08-17T09:50:58Z</time>
      </trkpt>
      <trkpt lat="44.44915" lon="1.6126">
        <ele>307.76</ele>
        <time>2021-08-17T09:50:59Z</time>
      </trkpt>
      <trkpt lat="44.44914" lon="1.61273">
        <ele>307.28</ele>
        <time>2021-08-17T09:51:00Z</time>
      </trkpt>
      <trkpt lat="44.44913" lon="1.61283">
        <ele>305.84</ele>
        <time>2021-08-17T09:51:01Z</time>
      </trkpt>
      <trkpt lat="44.44912" lon="1.61294">
        <ele>305.84</ele>
        <time>2021-08-17T09:51:02Z</time>
      </trkpt>
      <trkpt lat="44.44913" lon="1.61304">
        <ele>304.88</ele>
        <time>2021-08-17T09:51:03Z</time>
      </trkpt>
      <trkpt lat="44.44916" lon="1.61314">
        <ele>304.88</ele>
        <time>2021-08-17T09:51:04Z</time>
      </trkpt>
      <trkpt lat="44.44919" lon="1.61323">
        <ele>304.39</ele>
        <time>2021-08-17T09:51:05Z</time>
      </trkpt>
      <trkpt lat="44.44921" lon="1.61332">
        <ele>304.39</ele>
        <time>2021-08-17T09:51:06Z</time>
      </trkpt>
      <trkpt lat="44.44923" lon="1.61343">
        <ele>303.43</ele>
        <time>2021-08-17T09:51:07Z</time>
      </trkpt>
      <trkpt lat="44.44926" lon="1.61373">
        <ele>301.99</ele>
        <time>2021-08-17T09:51:10Z</time>
      </trkpt>
      <trkpt lat="44.44924" lon="1.61383">
        <ele>302.95</ele>
        <time>2021-08-17T09:51:11Z</time>
      </trkpt>
      <trkpt lat="44.44922" lon="1.61392">
        <ele>301.99</ele>
        <time>2021-08-17T09:51:12Z</time>
      </trkpt>
      <trkpt lat="44.44918" lon="1.61401">
        <ele>301.03</ele>
        <time>2021-08-17T09:51:13Z</time>
      </trkpt>
      <trkpt lat="44.44914" lon="1.61409">
        <ele>300.07</ele>
        <time>2021-08-17T09:51:14Z</time>
      </trkpt>
      <trkpt lat="44.44911" lon="1.61419">
        <ele>299.59</ele>
        <time>2021-08-17T09:51:15Z</time>
      </trkpt>
      <trkpt lat="44.4491" lon="1.6143">
        <ele>298.15</ele>
        <time>2021-08-17T09:51:16Z</time>
      </trkpt>
      <trkpt lat="44.44909" lon="1.61441">
        <ele>298.15</ele>
        <time>2021-08-17T09:51:17Z</time>
      </trkpt>
      <trkpt lat="44.44909" lon="1.61453">
        <ele>296.7</ele>
        <time>2021-08-17T09:51:18Z</time>
      </trkpt>
      <trkpt lat="44.44908" lon="1.61466">
        <ele>295.74</ele>
        <time>2021-08-17T09:51:19Z</time>
      </trkpt>
      <trkpt lat="44.44905" lon="1.61479">
        <ele>294.3</ele>
        <time>2021-08-17T09:51:20Z</time>
      </trkpt>
      <trkpt lat="44.44899" lon="1.61492">
        <ele>293.34</ele>
        <time>2021-08-17T09:51:21Z</time>
      </trkpt>
      <trkpt lat="44.44892" lon="1.61503">
        <ele>292.86</ele>
        <time>2021-08-17T09:51:22Z</time>
      </trkpt>
      <trkpt lat="44.44885" lon="1.61514">
        <ele>291.9</ele>
        <time>2021-08-17T09:51:23Z</time>
      </trkpt>
      <trkpt lat="44.44877" lon="1.61524">
        <ele>291.42</ele>
        <time>2021-08-17T09:51:24Z</time>
      </trkpt>
      <trkpt lat="44.4487" lon="1.61536">
        <ele>290.46</ele>
        <time>2021-08-17T09:51:25Z</time>
      </trkpt>
      <trkpt lat="44.44863" lon="1.61547">
        <ele>289.97</ele>
        <time>2021-08-17T09:51:26Z</time>
      </trkpt>
      <trkpt lat="44.44852" lon="1.61573">
        <ele>288.05</ele>
        <time>2021-08-17T09:51:28Z</time>
      </trkpt>
      <trkpt lat="44.44847" lon="1.61587">
        <ele>288.05</ele>
        <time>2021-08-17T09:51:29Z</time>
      </trkpt>
      <trkpt lat="44.44844" lon="1.61601">
        <ele>288.05</ele>
        <time>2021-08-17T09:51:30Z</time>
      </trkpt>
      <trkpt lat="44.44842" lon="1.61614">
        <ele>288.05</ele>
        <time>2021-08-17T09:51:31Z</time>
      </trkpt>
      <trkpt lat="44.44841" lon="1.61628">
        <ele>288.05</ele>
        <time>2021-08-17T09:51:32Z</time>
      </trkpt>
      <trkpt lat="44.44837" lon="1.61687">
        <ele>291.9</ele>
        <time>2021-08-17T09:51:37Z</time>
      </trkpt>
      <trkpt lat="44.44835" lon="1.61695">
        <ele>292.38</ele>
        <time>2021-08-17T09:51:38Z</time>
      </trkpt>
      <trkpt lat="44.44832" lon="1.61702">
        <ele>293.34</ele>
        <time>2021-08-17T09:51:39Z</time>
      </trkpt>
      <trkpt lat="44.4483" lon="1.61708">
        <ele>293.34</ele>
        <time>2021-08-17T09:51:40Z</time>
      </trkpt>
      <trkpt lat="44.44827" lon="1.61713">
        <ele>294.3</ele>
        <time>2021-08-17T09:51:41Z</time>
      </trkpt>
      <trkpt lat="44.44824" lon="1.61718">
        <ele>294.3</ele>
        <time>2021-08-17T09:51:42Z</time>
      </trkpt>
      <trkpt lat="44.4482" lon="1.61721">
        <ele>294.78</ele>
        <time>2021-08-17T09:51:43Z</time>
      </trkpt>
      <trkpt lat="44.44816" lon="1.61724">
        <ele>294.78</ele>
        <time>2021-08-17T09:51:44Z</time>
      </trkpt>
      <trkpt lat="44.44811" lon="1.61726">
        <ele>294.78</ele>
        <time>2021-08-17T09:51:45Z</time>
      </trkpt>
      <trkpt lat="44.44807" lon="1.61727">
        <ele>294.78</ele>
        <time>2021-08-17T09:51:46Z</time>
      </trkpt>
      <trkpt lat="44.44802" lon="1.61727">
        <ele>294.78</ele>
        <time>2021-08-17T09:51:47Z</time>
      </trkpt>
      <trkpt lat="44.44797" lon="1.61726">
        <ele>294.78</ele>
        <time>2021-08-17T09:51:48Z</time>
      </trkpt>
      <trkpt lat="44.44792" lon="1.61726">
        <ele>294.78</ele>
        <time>2021-08-17T09:51:49Z</time>
      </trkpt>
      <trkpt lat="44.44746" lon="1.61727">
        <ele>294.3</ele>
        <time>2021-08-17T09:51:57Z</time>
      </trkpt>
      <trkpt lat="44.44722" lon="1.61737">
        <ele>292.86</ele>
        <time>2021-08-17T09:52:01Z</time>
      </trkpt>
      <trkpt lat="44.44669" lon="1.61765">
        <ele>289.49</ele>
        <time>2021-08-17T09:52:09Z</time>
      </trkpt>
      <trkpt lat="44.4463" lon="1.61799">
        <ele>286.13</ele>
        <time>2021-08-17T09:52:15Z</time>
      </trkpt>
      <trkpt lat="44.4461" lon="1.6182">
        <ele>282.77</ele>
        <time>2021-08-17T09:52:20Z</time>
      </trkpt>
      <trkpt lat="44.44594" lon="1.61825">
        <ele>280.36</ele>
        <time>2021-08-17T09:52:24Z</time>
      </trkpt>
      <trkpt lat="44.44588" lon="1.61824">
        <ele>278.92</ele>
        <time>2021-08-17T09:52:25Z</time>
      </trkpt>
      <trkpt lat="44.44581" lon="1.61823">
        <ele>278.92</ele>
        <time>2021-08-17T09:52:26Z</time>
      </trkpt>
      <trkpt lat="44.44536" lon="1.61815">
        <ele>277.48</ele>
        <time>2021-08-17T09:52:33Z</time>
      </trkpt>
      <trkpt lat="44.44531" lon="1.61814">
        <ele>277.48</ele>
        <time>2021-08-17T09:52:34Z</time>
      </trkpt>
      <trkpt lat="44.44489" lon="1.61797">
        <ele>278.92</ele>
        <time>2021-08-17T09:52:42Z</time>
      </trkpt>
      <trkpt lat="44.44485" lon="1.61795">
        <ele>278.92</ele>
        <time>2021-08-17T09:52:43Z</time>
      </trkpt>
      <trkpt lat="44.4446" lon="1.61785">
        <ele>279.88</ele>
        <time>2021-08-17T09:52:49Z</time>
      </trkpt>
      <trkpt lat="44.44457" lon="1.61784">
        <ele>279.88</ele>
        <time>2021-08-17T09:52:50Z</time>
      </trkpt>
      <trkpt lat="44.44454" lon="1.61783">
        <ele>280.36</ele>
        <time>2021-08-17T09:52:51Z</time>
      </trkpt>
      <trkpt lat="44.44451" lon="1.61783">
        <ele>280.36</ele>
        <time>2021-08-17T09:52:52Z</time>
      </trkpt>
      <trkpt lat="44.44447" lon="1.61783">
        <ele>280.36</ele>
        <time>2021-08-17T09:52:53Z</time>
      </trkpt>
      <trkpt lat="44.44444" lon="1.61783">
        <ele>280.84</ele>
        <time>2021-08-17T09:52:54Z</time>
      </trkpt>
      <trkpt lat="44.44441" lon="1.61783">
        <ele>280.84</ele>
        <time>2021-08-17T09:52:55Z</time>
      </trkpt>
      <trkpt lat="44.44438" lon="1.61782">
        <ele>280.84</ele>
        <time>2021-08-17T09:52:56Z</time>
      </trkpt>
      <trkpt lat="44.44436" lon="1.61783">
        <ele>281.32</ele>
        <time>2021-08-17T09:52:57Z</time>
      </trkpt>
      <trkpt lat="44.44423" lon="1.61781">
        <ele>281.8</ele>
        <time>2021-08-17T09:53:04Z</time>
      </trkpt>
      <trkpt lat="44.44406" lon="1.61779">
        <ele>283.73</ele>
        <time>2021-08-17T09:53:12Z</time>
      </trkpt>
      <trkpt lat="44.44389" lon="1.61778">
        <ele>283.73</ele>
        <time>2021-08-17T09:53:19Z</time>
      </trkpt>
      <trkpt lat="44.4437" lon="1.61776">
        <ele>284.21</ele>
        <time>2021-08-17T09:53:25Z</time>
      </trkpt>
      <trkpt lat="44.44348" lon="1.61773">
        <ele>284.21</ele>
        <time>2021-08-17T09:53:32Z</time>
      </trkpt>
      <trkpt lat="44.44322" lon="1.61773">
        <ele>282.77</ele>
        <time>2021-08-17T09:53:39Z</time>
      </trkpt>
      <trkpt lat="44.44317" lon="1.61774">
        <ele>282.77</ele>
        <time>2021-08-17T09:53:40Z</time>
      </trkpt>
      <trkpt lat="44.44292" lon="1.61778">
        <ele>279.88</ele>
        <time>2021-08-17T09:53:44Z</time>
      </trkpt>
      <trkpt lat="44.44261" lon="1.6179">
        <ele>276.52</ele>
        <time>2021-08-17T09:53:48Z</time>
      </trkpt>
      <trkpt lat="44.44247" lon="1.61799">
        <ele>276.52</ele>
        <time>2021-08-17T09:53:50Z</time>
      </trkpt>
      <trkpt lat="44.44242" lon="1.61805">
        <ele>276.52</ele>
        <time>2021-08-17T09:53:51Z</time>
      </trkpt>
      <trkpt lat="44.44238" lon="1.61812">
        <ele>276.52</ele>
        <time>2021-08-17T09:53:52Z</time>
      </trkpt>
      <trkpt lat="44.44235" lon="1.6182">
        <ele>276.52</ele>
        <time>2021-08-17T09:53:53Z</time>
      </trkpt>
      <trkpt lat="44.44231" lon="1.61828">
        <ele>275.56</ele>
        <time>2021-08-17T09:53:54Z</time>
      </trkpt>
      <trkpt lat="44.44226" lon="1.61834">
        <ele>275.56</ele>
        <time>2021-08-17T09:53:55Z</time>
      </trkpt>
      <trkpt lat="44.4422" lon="1.6184">
        <ele>274.59</ele>
        <time>2021-08-17T09:53:56Z</time>
      </trkpt>
      <trkpt lat="44.44212" lon="1.61846">
        <ele>273.63</ele>
        <time>2021-08-17T09:53:57Z</time>
      </trkpt>
      <trkpt lat="44.44199" lon="1.61858">
        <ele>273.15</ele>
        <time>2021-08-17T09:53:59Z</time>
      </trkpt>
      <trkpt lat="44.44193" lon="1.61867">
        <ele>273.15</ele>
        <time>2021-08-17T09:54:00Z</time>
      </trkpt>
      <trkpt lat="44.44182" lon="1.61882">
        <ele>272.67</ele>
        <time>2021-08-17T09:54:02Z</time>
      </trkpt>
      <trkpt lat="44.44146" lon="1.61925">
        <ele>272.67</ele>
        <time>2021-08-17T09:54:09Z</time>
      </trkpt>
      <trkpt lat="44.44133" lon="1.61951">
        <ele>272.67</ele>
        <time>2021-08-17T09:54:13Z</time>
      </trkpt>
      <trkpt lat="44.44125" lon="1.61981">
        <ele>272.67</ele>
        <time>2021-08-17T09:54:17Z</time>
      </trkpt>
      <trkpt lat="44.44122" lon="1.61988">
        <ele>273.63</ele>
        <time>2021-08-17T09:54:18Z</time>
      </trkpt>
      <trkpt lat="44.44118" lon="1.61994">
        <ele>273.63</ele>
        <time>2021-08-17T09:54:19Z</time>
      </trkpt>
      <trkpt lat="44.44079" lon="1.62051">
        <ele>273.63</ele>
        <time>2021-08-17T09:54:29Z</time>
      </trkpt>
      <trkpt lat="44.44053" lon="1.62085">
        <ele>273.63</ele>
        <time>2021-08-17T09:54:36Z</time>
      </trkpt>
      <trkpt lat="44.4405" lon="1.62091">
        <ele>273.63</ele>
        <time>2021-08-17T09:54:37Z</time>
      </trkpt>
      <trkpt lat="44.44033" lon="1.62128">
        <ele>273.63</ele>
        <time>2021-08-17T09:54:44Z</time>
      </trkpt>
      <trkpt lat="44.4403" lon="1.62132">
        <ele>273.63</ele>
        <time>2021-08-17T09:54:45Z</time>
      </trkpt>
      <trkpt lat="44.44025" lon="1.62135">
        <ele>273.63</ele>
        <time>2021-08-17T09:54:46Z</time>
      </trkpt>
      <trkpt lat="44.4402" lon="1.62138">
        <ele>273.63</ele>
        <time>2021-08-17T09:54:47Z</time>
      </trkpt>
      <trkpt lat="44.44016" lon="1.62141">
        <ele>273.63</ele>
        <time>2021-08-17T09:54:48Z</time>
      </trkpt>
      <trkpt lat="44.44011" lon="1.62145">
        <ele>273.63</ele>
        <time>2021-08-17T09:54:49Z</time>
      </trkpt>
      <trkpt lat="44.44006" lon="1.62148">
        <ele>273.63</ele>
        <time>2021-08-17T09:54:50Z</time>
      </trkpt>
      <trkpt lat="44.43967" lon="1.62173">
        <ele>272.19</ele>
        <time>2021-08-17T09:54:57Z</time>
      </trkpt>
      <trkpt lat="44.43962" lon="1.62175">
        <ele>272.19</ele>
        <time>2021-08-17T09:54:58Z</time>
      </trkpt>
      <trkpt lat="44.43955" lon="1.62177">
        <ele>272.19</ele>
        <time>2021-08-17T09:54:59Z</time>
      </trkpt>
      <trkpt lat="44.43948" lon="1.62177">
        <ele>272.19</ele>
        <time>2021-08-17T09:55:00Z</time>
      </trkpt>
      <trkpt lat="44.43912" lon="1.62177">
        <ele>271.71</ele>
        <time>2021-08-17T09:55:06Z</time>
      </trkpt>
      <trkpt lat="44.43908" lon="1.62176">
        <ele>271.71</ele>
        <time>2021-08-17T09:55:07Z</time>
      </trkpt>
      <trkpt lat="44.43906" lon="1.62172">
        <ele>271.71</ele>
        <time>2021-08-17T09:55:08Z</time>
      </trkpt>
      <trkpt lat="44.4391" lon="1.62159">
        <ele>271.71</ele>
        <time>2021-08-17T09:55:13Z</time>
      </trkpt>
      <trkpt lat="44.43912" lon="1.62156">
        <ele>272.67</ele>
        <time>2021-08-17T09:55:15Z</time>
      </trkpt>
      <trkpt lat="44.43913" lon="1.62154">
        <ele>272.67</ele>
        <time>2021-08-17T09:55:22Z</time>
      </trkpt>
      <trkpt lat="44.43912" lon="1.62154">
        <ele>273.15</ele>
        <time>2021-08-17T09:55:33Z</time>
      </trkpt>
      <trkpt lat="44.43911" lon="1.62155">
        <ele>273.15</ele>
        <time>2021-08-17T09:55:35Z</time>
      </trkpt>
      <trkpt lat="44.43908" lon="1.62159">
        <ele>273.15</ele>
        <time>2021-08-17T09:55:37Z</time>
      </trkpt>
      <trkpt lat="44.43901" lon="1.62176">
        <ele>272.19</ele>
        <time>2021-08-17T09:55:41Z</time>
      </trkpt>
      <trkpt lat="44.43899" lon="1.62179">
        <ele>271.71</ele>
        <time>2021-08-17T09:55:42Z</time>
      </trkpt>
      <trkpt lat="44.43895" lon="1.62181">
        <ele>271.71</ele>
        <time>2021-08-17T09:55:43Z</time>
      </trkpt>
      <trkpt lat="44.43892" lon="1.62184">
        <ele>271.71</ele>
        <time>2021-08-17T09:55:44Z</time>
      </trkpt>
      <trkpt lat="44.43889" lon="1.62188">
        <ele>271.71</ele>
        <time>2021-08-17T09:55:45Z</time>
      </trkpt>
      <trkpt lat="44.43872" lon="1.62211">
        <ele>271.23</ele>
        <time>2021-08-17T09:55:50Z</time>
      </trkpt>
      <trkpt lat="44.43869" lon="1.62217">
        <ele>271.23</ele>
        <time>2021-08-17T09:55:51Z</time>
      </trkpt>
      <trkpt lat="44.43852" lon="1.62254">
        <ele>271.23</ele>
        <time>2021-08-17T09:55:57Z</time>
      </trkpt>
      <trkpt lat="44.43848" lon="1.62267">
        <ele>271.23</ele>
        <time>2021-08-17T09:55:59Z</time>
      </trkpt>
      <trkpt lat="44.43841" lon="1.62293">
        <ele>271.23</ele>
        <time>2021-08-17T09:56:03Z</time>
      </trkpt>
      <trkpt lat="44.43839" lon="1.62298">
        <ele>271.23</ele>
        <time>2021-08-17T09:56:04Z</time>
      </trkpt>
      <trkpt lat="44.43836" lon="1.62303">
        <ele>271.23</ele>
        <time>2021-08-17T09:56:05Z</time>
      </trkpt>
      <trkpt lat="44.43833" lon="1.62308">
        <ele>271.23</ele>
        <time>2021-08-17T09:56:06Z</time>
      </trkpt>
      <trkpt lat="44.4383" lon="1.62311">
        <ele>271.23</ele>
        <time>2021-08-17T09:56:07Z</time>
      </trkpt>
      <trkpt lat="44.43827" lon="1.62314">
        <ele>272.67</ele>
        <time>2021-08-17T09:56:08Z</time>
      </trkpt>
      <trkpt lat="44.43823" lon="1.62316">
        <ele>272.67</ele>
        <time>2021-08-17T09:56:09Z</time>
      </trkpt>
      <trkpt lat="44.4382" lon="1.62315">
        <ele>272.67</ele>
        <time>2021-08-17T09:56:10Z</time>
      </trkpt>
      <trkpt lat="44.43815" lon="1.62312">
        <ele>272.67</ele>
        <time>2021-08-17T09:56:11Z</time>
      </trkpt>
      <trkpt lat="44.43812" lon="1.62309">
        <ele>271.23</ele>
        <time>2021-08-17T09:56:12Z</time>
      </trkpt>
      <trkpt lat="44.43809" lon="1.62304">
        <ele>271.23</ele>
        <time>2021-08-17T09:56:13Z</time>
      </trkpt>
      <trkpt lat="44.43807" lon="1.62298">
        <ele>271.23</ele>
        <time>2021-08-17T09:56:14Z</time>
      </trkpt>
      <trkpt lat="44.43804" lon="1.62293">
        <ele>270.75</ele>
        <time>2021-08-17T09:56:15Z</time>
      </trkpt>
      <trkpt lat="44.43801" lon="1.62287">
        <ele>270.27</ele>
        <time>2021-08-17T09:56:16Z</time>
      </trkpt>
      <trkpt lat="44.43798" lon="1.62281">
        <ele>270.27</ele>
        <time>2021-08-17T09:56:17Z</time>
      </trkpt>
      <trkpt lat="44.4379" lon="1.62263">
        <ele>270.27</ele>
        <time>2021-08-17T09:56:20Z</time>
      </trkpt>
      <trkpt lat="44.43786" lon="1.62259">
        <ele>269.79</ele>
        <time>2021-08-17T09:56:21Z</time>
      </trkpt>
      <trkpt lat="44.43781" lon="1.62254">
        <ele>269.31</ele>
        <time>2021-08-17T09:56:22Z</time>
      </trkpt>
      <trkpt lat="44.43777" lon="1.62251">
        <ele>269.31</ele>
        <time>2021-08-17T09:56:23Z</time>
      </trkpt>
      <trkpt lat="44.4377" lon="1.62247">
        <ele>269.31</ele>
        <time>2021-08-17T09:56:24Z</time>
      </trkpt>
      <trkpt lat="44.43739" lon="1.62225">
        <ele>269.31</ele>
        <time>2021-08-17T09:56:31Z</time>
      </trkpt>
      <trkpt lat="44.43724" lon="1.62217">
        <ele>271.23</ele>
        <time>2021-08-17T09:56:36Z</time>
      </trkpt>
      <trkpt lat="44.43721" lon="1.62219">
        <ele>271.23</ele>
        <time>2021-08-17T09:56:37Z</time>
      </trkpt>
      <trkpt lat="44.43718" lon="1.62222">
        <ele>271.23</ele>
        <time>2021-08-17T09:56:38Z</time>
      </trkpt>
      <trkpt lat="44.43715" lon="1.62227">
        <ele>271.23</ele>
        <time>2021-08-17T09:56:39Z</time>
      </trkpt>
      <trkpt lat="44.43712" lon="1.62232">
        <ele>269.79</ele>
        <time>2021-08-17T09:56:40Z</time>
      </trkpt>
      <trkpt lat="44.43708" lon="1.62238">
        <ele>269.31</ele>
        <time>2021-08-17T09:56:41Z</time>
      </trkpt>
      <trkpt lat="44.43675" lon="1.62284">
        <ele>267.38</ele>
        <time>2021-08-17T09:56:48Z</time>
      </trkpt>
      <trkpt lat="44.4367" lon="1.6229">
        <ele>267.38</ele>
        <time>2021-08-17T09:56:49Z</time>
      </trkpt>
      <trkpt lat="44.43639" lon="1.62315">
        <ele>266.9</ele>
        <time>2021-08-17T09:56:55Z</time>
      </trkpt>
      <trkpt lat="44.43599" lon="1.62353">
        <ele>266.9</ele>
        <time>2021-08-17T09:57:03Z</time>
      </trkpt>
      <trkpt lat="44.43595" lon="1.62358">
        <ele>266.9</ele>
        <time>2021-08-17T09:57:04Z</time>
      </trkpt>
      <trkpt lat="44.43592" lon="1.62364">
        <ele>266.9</ele>
        <time>2021-08-17T09:57:05Z</time>
      </trkpt>
      <trkpt lat="44.43589" lon="1.62369">
        <ele>266.9</ele>
        <time>2021-08-17T09:57:06Z</time>
      </trkpt>
      <trkpt lat="44.43587" lon="1.62375">
        <ele>266.9</ele>
        <time>2021-08-17T09:57:07Z</time>
      </trkpt>
      <trkpt lat="44.43582" lon="1.62387">
        <ele>266.9</ele>
        <time>2021-08-17T09:57:09Z</time>
      </trkpt>
      <trkpt lat="44.43581" lon="1.62393">
        <ele>266.9</ele>
        <time>2021-08-17T09:57:10Z</time>
      </trkpt>
      <trkpt lat="44.43577" lon="1.62422">
        <ele>266.9</ele>
        <time>2021-08-17T09:57:14Z</time>
      </trkpt>
      <trkpt lat="44.4358" lon="1.62483">
        <ele>266.9</ele>
        <time>2021-08-17T09:57:22Z</time>
      </trkpt>
      <trkpt lat="44.43586" lon="1.62534">
        <ele>266.42</ele>
        <time>2021-08-17T09:57:29Z</time>
      </trkpt>
      <trkpt lat="44.43585" lon="1.62541">
        <ele>266.42</ele>
        <time>2021-08-17T09:57:30Z</time>
      </trkpt>
      <trkpt lat="44.43579" lon="1.62579">
        <ele>267.38</ele>
        <time>2021-08-17T09:57:37Z</time>
      </trkpt>
      <trkpt lat="44.43558" lon="1.62616">
        <ele>267.38</ele>
        <time>2021-08-17T09:57:44Z</time>
      </trkpt>
      <trkpt lat="44.43523" lon="1.62666">
        <ele>264.98</ele>
        <time>2021-08-17T09:57:52Z</time>
      </trkpt>
      <trkpt lat="44.43495" lon="1.62698">
        <ele>264.98</ele>
        <time>2021-08-17T09:57:58Z</time>
      </trkpt>
      <trkpt lat="44.4346" lon="1.62739">
        <ele>263.54</ele>
        <time>2021-08-17T09:58:06Z</time>
      </trkpt>
      <trkpt lat="44.43439" lon="1.62764">
        <ele>264.02</ele>
        <time>2021-08-17T09:58:13Z</time>
      </trkpt>
      <trkpt lat="44.43427" lon="1.62791">
        <ele>264.02</ele>
        <time>2021-08-17T09:58:19Z</time>
      </trkpt>
      <trkpt lat="44.43419" lon="1.62806">
        <ele>265.94</ele>
        <time>2021-08-17T09:58:25Z</time>
      </trkpt>
      <trkpt lat="44.43409" lon="1.6282">
        <ele>266.9</ele>
        <time>2021-08-17T09:58:33Z</time>
      </trkpt>
      <trkpt lat="44.43402" lon="1.62831">
        <ele>268.83</ele>
        <time>2021-08-17T09:58:40Z</time>
      </trkpt>
      <trkpt lat="44.43402" lon="1.62833">
        <ele>269.31</ele>
        <time>2021-08-17T09:58:41Z</time>
      </trkpt>
      <trkpt lat="44.43402" lon="1.62835">
        <ele>269.31</ele>
        <time>2021-08-17T09:58:42Z</time>
      </trkpt>
      <trkpt lat="44.43404" lon="1.62836">
        <ele>269.31</ele>
        <time>2021-08-17T09:58:43Z</time>
      </trkpt>
      <trkpt lat="44.43406" lon="1.62837">
        <ele>269.31</ele>
        <time>2021-08-17T09:58:44Z</time>
      </trkpt>
      <trkpt lat="44.43407" lon="1.62838">
        <ele>269.31</ele>
        <time>2021-08-17T09:58:45Z</time>
      </trkpt>
      <trkpt lat="44.43409" lon="1.6284">
        <ele>269.31</ele>
        <time>2021-08-17T09:58:46Z</time>
      </trkpt>
      <trkpt lat="44.43429" lon="1.62857">
        <ele>270.27</ele>
        <time>2021-08-17T09:58:55Z</time>
      </trkpt>
      <trkpt lat="44.43454" lon="1.62878">
        <ele>271.23</ele>
        <time>2021-08-17T09:59:04Z</time>
      </trkpt>
      <trkpt lat="44.43476" lon="1.62901">
        <ele>271.23</ele>
        <time>2021-08-17T09:59:11Z</time>
      </trkpt>
      <trkpt lat="44.43497" lon="1.62937">
        <ele>271.23</ele>
        <time>2021-08-17T09:59:19Z</time>
      </trkpt>
      <trkpt lat="44.43504" lon="1.62952">
        <ele>272.67</ele>
        <time>2021-08-17T09:59:25Z</time>
      </trkpt>
      <trkpt lat="44.43505" lon="1.62974">
        <ele>274.11</ele>
        <time>2021-08-17T09:59:35Z</time>
      </trkpt>
      <trkpt lat="44.43503" lon="1.62988">
        <ele>275.07</ele>
        <time>2021-08-17T09:59:42Z</time>
      </trkpt>
      <trkpt lat="44.43502" lon="1.63001">
        <ele>276.04</ele>
        <time>2021-08-17T09:59:48Z</time>
      </trkpt>
      <trkpt lat="44.43502" lon="1.63003">
        <ele>276.04</ele>
        <time>2021-08-17T09:59:49Z</time>
      </trkpt>
      <trkpt lat="44.43502" lon="1.63008">
        <ele>277</ele>
        <time>2021-08-17T09:59:53Z</time>
      </trkpt>
      <trkpt lat="44.43501" lon="1.6301">
        <ele>277.48</ele>
        <time>2021-08-17T09:59:54Z</time>
      </trkpt>
      <trkpt lat="44.435" lon="1.63012">
        <ele>277.48</ele>
        <time>2021-08-17T09:59:55Z</time>
      </trkpt>
      <trkpt lat="44.43496" lon="1.63034">
        <ele>278.92</ele>
        <time>2021-08-17T10:00:05Z</time>
      </trkpt>
      <trkpt lat="44.43491" lon="1.6306">
        <ele>279.4</ele>
        <time>2021-08-17T10:00:12Z</time>
      </trkpt>
      <trkpt lat="44.43485" lon="1.63074">
        <ele>278.92</ele>
        <time>2021-08-17T10:00:15Z</time>
      </trkpt>
      <trkpt lat="44.43483" lon="1.63079">
        <ele>278.92</ele>
        <time>2021-08-17T10:00:16Z</time>
      </trkpt>
      <trkpt lat="44.43475" lon="1.6309">
        <ele>277.96</ele>
        <time>2021-08-17T10:00:18Z</time>
      </trkpt>
      <trkpt lat="44.43469" lon="1.63099">
        <ele>277.48</ele>
        <time>2021-08-17T10:00:20Z</time>
      </trkpt>
      <trkpt lat="44.43466" lon="1.63106">
        <ele>277.48</ele>
        <time>2021-08-17T10:00:21Z</time>
      </trkpt>
      <trkpt lat="44.43464" lon="1.63111">
        <ele>277.48</ele>
        <time>2021-08-17T10:00:22Z</time>
      </trkpt>
      <trkpt lat="44.43464" lon="1.63118">
        <ele>277.48</ele>
        <time>2021-08-17T10:00:23Z</time>
      </trkpt>
      <trkpt lat="44.43464" lon="1.63123">
        <ele>277.48</ele>
        <time>2021-08-17T10:00:24Z</time>
      </trkpt>
      <trkpt lat="44.43464" lon="1.63128">
        <ele>277.48</ele>
        <time>2021-08-17T10:00:25Z</time>
      </trkpt>
      <trkpt lat="44.43467" lon="1.63144">
        <ele>278.92</ele>
        <time>2021-08-17T10:00:29Z</time>
      </trkpt>
      <trkpt lat="44.43474" lon="1.63166">
        <ele>280.36</ele>
        <time>2021-08-17T10:00:37Z</time>
      </trkpt>
      <trkpt lat="44.43482" lon="1.6319">
        <ele>281.8</ele>
        <time>2021-08-17T10:00:46Z</time>
      </trkpt>
      <trkpt lat="44.43489" lon="1.63209">
        <ele>283.25</ele>
        <time>2021-08-17T10:00:54Z</time>
      </trkpt>
      <trkpt lat="44.43501" lon="1.63235">
        <ele>283.73</ele>
        <time>2021-08-17T10:01:04Z</time>
      </trkpt>
      <trkpt lat="44.43517" lon="1.63257">
        <ele>281.32</ele>
        <time>2021-08-17T10:01:09Z</time>
      </trkpt>
      <trkpt lat="44.43521" lon="1.63263">
        <ele>280.84</ele>
        <time>2021-08-17T10:01:10Z</time>
      </trkpt>
      <trkpt lat="44.43525" lon="1.6327">
        <ele>280.84</ele>
        <time>2021-08-17T10:01:11Z</time>
      </trkpt>
      <trkpt lat="44.43528" lon="1.63277">
        <ele>280.36</ele>
        <time>2021-08-17T10:01:12Z</time>
      </trkpt>
      <trkpt lat="44.4353" lon="1.63284">
        <ele>280.36</ele>
        <time>2021-08-17T10:01:13Z</time>
      </trkpt>
      <trkpt lat="44.43531" lon="1.63291">
        <ele>280.36</ele>
        <time>2021-08-17T10:01:14Z</time>
      </trkpt>
      <trkpt lat="44.43531" lon="1.63297">
        <ele>281.32</ele>
        <time>2021-08-17T10:01:15Z</time>
      </trkpt>
      <trkpt lat="44.4353" lon="1.63301">
        <ele>281.32</ele>
        <time>2021-08-17T10:01:16Z</time>
      </trkpt>
      <trkpt lat="44.4353" lon="1.63305">
        <ele>282.28</ele>
        <time>2021-08-17T10:01:17Z</time>
      </trkpt>
      <trkpt lat="44.43529" lon="1.63307">
        <ele>282.28</ele>
        <time>2021-08-17T10:01:18Z</time>
      </trkpt>
      <trkpt lat="44.43527" lon="1.63314">
        <ele>283.25</ele>
        <time>2021-08-17T10:01:22Z</time>
      </trkpt>
      <trkpt lat="44.43522" lon="1.63326">
        <ele>284.69</ele>
        <time>2021-08-17T10:01:30Z</time>
      </trkpt>
      <trkpt lat="44.43519" lon="1.63329">
        <ele>285.17</ele>
        <time>2021-08-17T10:01:33Z</time>
      </trkpt>
      <trkpt lat="44.43513" lon="1.63331">
        <ele>286.13</ele>
        <time>2021-08-17T10:01:37Z</time>
      </trkpt>
      <trkpt lat="44.43512" lon="1.63338">
        <ele>286.61</ele>
        <time>2021-08-17T10:01:43Z</time>
      </trkpt>
      <trkpt lat="44.43507" lon="1.63352">
        <ele>287.57</ele>
        <time>2021-08-17T10:01:52Z</time>
      </trkpt>
      <trkpt lat="44.43501" lon="1.63365">
        <ele>289.49</ele>
        <time>2021-08-17T10:02:02Z</time>
      </trkpt>
      <trkpt lat="44.43497" lon="1.63373">
        <ele>289.97</ele>
        <time>2021-08-17T10:02:08Z</time>
      </trkpt>
      <trkpt lat="44.43496" lon="1.63374">
        <ele>290.46</ele>
        <time>2021-08-17T10:02:09Z</time>
      </trkpt>
      <trkpt lat="44.43496" lon="1.63375">
        <ele>290.46</ele>
        <time>2021-08-17T10:02:10Z</time>
      </trkpt>
      <trkpt lat="44.43493" lon="1.63387">
        <ele>291.42</ele>
        <time>2021-08-17T10:02:18Z</time>
      </trkpt>
      <trkpt lat="44.43492" lon="1.63403">
        <ele>292.86</ele>
        <time>2021-08-17T10:02:28Z</time>
      </trkpt>
      <trkpt lat="44.43491" lon="1.63407">
        <ele>292.86</ele>
        <time>2021-08-17T10:02:35Z</time>
      </trkpt>
      <trkpt lat="44.43492" lon="1.63419">
        <ele>293.82</ele>
        <time>2021-08-17T10:02:43Z</time>
      </trkpt>
      <trkpt lat="44.43494" lon="1.63434">
        <ele>295.26</ele>
        <time>2021-08-17T10:02:52Z</time>
      </trkpt>
      <trkpt lat="44.43496" lon="1.63449">
        <ele>296.7</ele>
        <time>2021-08-17T10:03:01Z</time>
      </trkpt>
      <trkpt lat="44.43499" lon="1.63465">
        <ele>298.63</ele>
        <time>2021-08-17T10:03:10Z</time>
      </trkpt>
      <trkpt lat="44.43503" lon="1.6348">
        <ele>299.59</ele>
        <time>2021-08-17T10:03:19Z</time>
      </trkpt>
      <trkpt lat="44.43504" lon="1.63481">
        <ele>300.07</ele>
        <time>2021-08-17T10:03:20Z</time>
      </trkpt>
      <trkpt lat="44.43505" lon="1.63482">
        <ele>300.07</ele>
        <time>2021-08-17T10:03:21Z</time>
      </trkpt>
      <trkpt lat="44.43509" lon="1.63485">
        <ele>300.55</ele>
        <time>2021-08-17T10:03:25Z</time>
      </trkpt>
      <trkpt lat="44.4351" lon="1.63486">
        <ele>301.51</ele>
        <time>2021-08-17T10:03:26Z</time>
      </trkpt>
      <trkpt lat="44.43511" lon="1.63486">
        <ele>301.51</ele>
        <time>2021-08-17T10:03:27Z</time>
      </trkpt>
      <trkpt lat="44.43512" lon="1.63486">
        <ele>301.51</ele>
        <time>2021-08-17T10:03:28Z</time>
      </trkpt>
      <trkpt lat="44.43514" lon="1.63486">
        <ele>301.99</ele>
        <time>2021-08-17T10:03:29Z</time>
      </trkpt>
      <trkpt lat="44.43515" lon="1.63486">
        <ele>301.99</ele>
        <time>2021-08-17T10:03:30Z</time>
      </trkpt>
      <trkpt lat="44.43516" lon="1.63486">
        <ele>302.47</ele>
        <time>2021-08-17T10:03:31Z</time>
      </trkpt>
      <trkpt lat="44.43517" lon="1.63486">
        <ele>302.47</ele>
        <time>2021-08-17T10:03:32Z</time>
      </trkpt>
      <trkpt lat="44.43518" lon="1.63485">
        <ele>302.47</ele>
        <time>2021-08-17T10:03:33Z</time>
      </trkpt>
      <trkpt lat="44.43519" lon="1.63484">
        <ele>302.95</ele>
        <time>2021-08-17T10:03:34Z</time>
      </trkpt>
      <trkpt lat="44.4352" lon="1.63482">
        <ele>302.95</ele>
        <time>2021-08-17T10:03:35Z</time>
      </trkpt>
      <trkpt lat="44.43526" lon="1.63464">
        <ele>304.88</ele>
        <time>2021-08-17T10:03:46Z</time>
      </trkpt>
      <trkpt lat="44.43532" lon="1.6345">
        <ele>305.36</ele>
        <time>2021-08-17T10:03:55Z</time>
      </trkpt>
      <trkpt lat="44.43539" lon="1.6344">
        <ele>306.8</ele>
        <time>2021-08-17T10:04:03Z</time>
      </trkpt>
      <trkpt lat="44.43546" lon="1.63432">
        <ele>307.76</ele>
        <time>2021-08-17T10:04:10Z</time>
      </trkpt>
      <trkpt lat="44.43548" lon="1.63432">
        <ele>307.76</ele>
        <time>2021-08-17T10:04:11Z</time>
      </trkpt>
      <trkpt lat="44.43549" lon="1.63433">
        <ele>308.24</ele>
        <time>2021-08-17T10:04:12Z</time>
      </trkpt>
      <trkpt lat="44.43562" lon="1.63435">
        <ele>309.68</ele>
        <time>2021-08-17T10:04:21Z</time>
      </trkpt>
      <trkpt lat="44.43564" lon="1.63438">
        <ele>310.16</ele>
        <time>2021-08-17T10:04:23Z</time>
      </trkpt>
      <trkpt lat="44.43571" lon="1.63449">
        <ele>312.09</ele>
        <time>2021-08-17T10:04:32Z</time>
      </trkpt>
      <trkpt lat="44.43576" lon="1.63462">
        <ele>313.53</ele>
        <time>2021-08-17T10:04:40Z</time>
      </trkpt>
      <trkpt lat="44.43577" lon="1.63466">
        <ele>314.01</ele>
        <time>2021-08-17T10:04:42Z</time>
      </trkpt>
      <trkpt lat="44.43578" lon="1.63468">
        <ele>314.01</ele>
        <time>2021-08-17T10:04:43Z</time>
      </trkpt>
      <trkpt lat="44.43579" lon="1.63472">
        <ele>314.49</ele>
        <time>2021-08-17T10:04:45Z</time>
      </trkpt>
      <trkpt lat="44.43579" lon="1.63474">
        <ele>314.49</ele>
        <time>2021-08-17T10:04:46Z</time>
      </trkpt>
      <trkpt lat="44.4358" lon="1.63477">
        <ele>314.49</ele>
        <time>2021-08-17T10:04:47Z</time>
      </trkpt>
      <trkpt lat="44.43587" lon="1.63496">
        <ele>315.93</ele>
        <time>2021-08-17T10:04:56Z</time>
      </trkpt>
      <trkpt lat="44.43596" lon="1.63518">
        <ele>316.89</ele>
        <time>2021-08-17T10:05:05Z</time>
      </trkpt>
      <trkpt lat="44.4361" lon="1.63532">
        <ele>317.37</ele>
        <time>2021-08-17T10:05:12Z</time>
      </trkpt>
      <trkpt lat="44.43624" lon="1.63559">
        <ele>317.37</ele>
        <time>2021-08-17T10:05:20Z</time>
      </trkpt>
      <trkpt lat="44.43622" lon="1.63585">
        <ele>317.85</ele>
        <time>2021-08-17T10:05:27Z</time>
      </trkpt>
      <trkpt lat="44.43618" lon="1.63613">
        <ele>318.33</ele>
        <time>2021-08-17T10:05:35Z</time>
      </trkpt>
      <trkpt lat="44.43621" lon="1.63639">
        <ele>320.26</ele>
        <time>2021-08-17T10:05:43Z</time>
      </trkpt>
      <trkpt lat="44.43627" lon="1.63664">
        <ele>322.18</ele>
        <time>2021-08-17T10:05:52Z</time>
      </trkpt>
      <trkpt lat="44.43626" lon="1.63689">
        <ele>323.14</ele>
        <time>2021-08-17T10:06:00Z</time>
      </trkpt>
      <trkpt lat="44.4362" lon="1.63704">
        <ele>323.14</ele>
        <time>2021-08-17T10:06:05Z</time>
      </trkpt>
      <trkpt lat="44.43618" lon="1.63705">
        <ele>323.14</ele>
        <time>2021-08-17T10:06:06Z</time>
      </trkpt>
      <trkpt lat="44.43616" lon="1.63707">
        <ele>323.14</ele>
        <time>2021-08-17T10:06:07Z</time>
      </trkpt>
      <trkpt lat="44.43599" lon="1.63718">
        <ele>324.1</ele>
        <time>2021-08-17T10:06:15Z</time>
      </trkpt>
      <trkpt lat="44.43579" lon="1.63731">
        <ele>324.58</ele>
        <time>2021-08-17T10:06:23Z</time>
      </trkpt>
      <trkpt lat="44.43565" lon="1.63755">
        <ele>326.5</ele>
        <time>2021-08-17T10:06:32Z</time>
      </trkpt>
      <trkpt lat="44.43559" lon="1.63783">
        <ele>327.95</ele>
        <time>2021-08-17T10:06:41Z</time>
      </trkpt>
      <trkpt lat="44.43545" lon="1.63813">
        <ele>329.39</ele>
        <time>2021-08-17T10:06:51Z</time>
      </trkpt>
      <trkpt lat="44.43536" lon="1.63837">
        <ele>329.39</ele>
        <time>2021-08-17T10:06:58Z</time>
      </trkpt>
      <trkpt lat="44.43535" lon="1.63843">
        <ele>329.39</ele>
        <time>2021-08-17T10:06:59Z</time>
      </trkpt>
      <trkpt lat="44.43535" lon="1.63849">
        <ele>328.43</ele>
        <time>2021-08-17T10:07:00Z</time>
      </trkpt>
      <trkpt lat="44.43536" lon="1.63856">
        <ele>328.43</ele>
        <time>2021-08-17T10:07:01Z</time>
      </trkpt>
      <trkpt lat="44.43545" lon="1.63919">
        <ele>326.5</ele>
        <time>2021-08-17T10:07:09Z</time>
      </trkpt>
      <trkpt lat="44.43546" lon="1.63946">
        <ele>328.43</ele>
        <time>2021-08-17T10:07:14Z</time>
      </trkpt>
      <trkpt lat="44.43539" lon="1.63976">
        <ele>328.91</ele>
        <time>2021-08-17T10:07:21Z</time>
      </trkpt>
      <trkpt lat="44.43522" lon="1.64011">
        <ele>331.79</ele>
        <time>2021-08-17T10:07:30Z</time>
      </trkpt>
      <trkpt lat="44.43512" lon="1.64047">
        <ele>333.23</ele>
        <time>2021-08-17T10:07:39Z</time>
      </trkpt>
      <trkpt lat="44.43518" lon="1.64078">
        <ele>333.23</ele>
        <time>2021-08-17T10:07:45Z</time>
      </trkpt>
      <trkpt lat="44.43519" lon="1.64084">
        <ele>332.75</ele>
        <time>2021-08-17T10:07:46Z</time>
      </trkpt>
      <trkpt lat="44.43521" lon="1.6409">
        <ele>332.75</ele>
        <time>2021-08-17T10:07:47Z</time>
      </trkpt>
      <trkpt lat="44.43522" lon="1.64103">
        <ele>332.75</ele>
        <time>2021-08-17T10:07:49Z</time>
      </trkpt>
      <trkpt lat="44.43523" lon="1.64108">
        <ele>332.75</ele>
        <time>2021-08-17T10:07:50Z</time>
      </trkpt>
      <trkpt lat="44.43522" lon="1.64114">
        <ele>332.75</ele>
        <time>2021-08-17T10:07:51Z</time>
      </trkpt>
      <trkpt lat="44.43521" lon="1.64121">
        <ele>332.75</ele>
        <time>2021-08-17T10:07:52Z</time>
      </trkpt>
      <trkpt lat="44.4352" lon="1.64126">
        <ele>332.75</ele>
        <time>2021-08-17T10:07:53Z</time>
      </trkpt>
      <trkpt lat="44.43518" lon="1.64131">
        <ele>332.75</ele>
        <time>2021-08-17T10:07:54Z</time>
      </trkpt>
      <trkpt lat="44.43515" lon="1.64136">
        <ele>332.75</ele>
        <time>2021-08-17T10:07:55Z</time>
      </trkpt>
      <trkpt lat="44.43512" lon="1.64141">
        <ele>332.75</ele>
        <time>2021-08-17T10:07:56Z</time>
      </trkpt>
      <trkpt lat="44.43509" lon="1.64144">
        <ele>332.75</ele>
        <time>2021-08-17T10:07:57Z</time>
      </trkpt>
      <trkpt lat="44.43506" lon="1.64148">
        <ele>332.75</ele>
        <time>2021-08-17T10:07:58Z</time>
      </trkpt>
      <trkpt lat="44.43502" lon="1.64151">
        <ele>332.75</ele>
        <time>2021-08-17T10:07:59Z</time>
      </trkpt>
      <trkpt lat="44.43499" lon="1.64153">
        <ele>332.75</ele>
        <time>2021-08-17T10:08:00Z</time>
      </trkpt>
      <trkpt lat="44.43478" lon="1.64159">
        <ele>334.2</ele>
        <time>2021-08-17T10:08:07Z</time>
      </trkpt>
      <trkpt lat="44.43461" lon="1.64166">
        <ele>335.64</ele>
        <time>2021-08-17T10:08:15Z</time>
      </trkpt>
      <trkpt lat="44.43445" lon="1.64175">
        <ele>336.6</ele>
        <time>2021-08-17T10:08:23Z</time>
      </trkpt>
      <trkpt lat="44.43421" lon="1.64182">
        <ele>337.56</ele>
        <time>2021-08-17T10:08:33Z</time>
      </trkpt>
      <trkpt lat="44.43403" lon="1.64184">
        <ele>339</ele>
        <time>2021-08-17T10:08:42Z</time>
      </trkpt>
      <trkpt lat="44.43385" lon="1.64181">
        <ele>339.96</ele>
        <time>2021-08-17T10:08:50Z</time>
      </trkpt>
      <trkpt lat="44.43368" lon="1.64177">
        <ele>340.44</ele>
        <time>2021-08-17T10:08:57Z</time>
      </trkpt>
      <trkpt lat="44.43343" lon="1.64172">
        <ele>340.92</ele>
        <time>2021-08-17T10:09:06Z</time>
      </trkpt>
      <trkpt lat="44.43309" lon="1.64164">
        <ele>342.37</ele>
        <time>2021-08-17T10:09:16Z</time>
      </trkpt>
      <trkpt lat="44.43286" lon="1.64158">
        <ele>343.33</ele>
        <time>2021-08-17T10:09:23Z</time>
      </trkpt>
      <trkpt lat="44.43263" lon="1.6415">
        <ele>344.77</ele>
        <time>2021-08-17T10:09:31Z</time>
      </trkpt>
      <trkpt lat="44.43244" lon="1.64144">
        <ele>345.25</ele>
        <time>2021-08-17T10:09:38Z</time>
      </trkpt>
      <trkpt lat="44.4322" lon="1.64142">
        <ele>346.21</ele>
        <time>2021-08-17T10:09:45Z</time>
      </trkpt>
      <trkpt lat="44.43197" lon="1.64151">
        <ele>346.21</ele>
        <time>2021-08-17T10:09:52Z</time>
      </trkpt>
      <trkpt lat="44.43165" lon="1.64179">
        <ele>346.21</ele>
        <time>2021-08-17T10:10:00Z</time>
      </trkpt>
      <trkpt lat="44.43144" lon="1.64198">
        <ele>346.21</ele>
        <time>2021-08-17T10:10:05Z</time>
      </trkpt>
      <trkpt lat="44.43109" lon="1.64223">
        <ele>346.21</ele>
        <time>2021-08-17T10:10:13Z</time>
      </trkpt>
      <trkpt lat="44.43104" lon="1.64225">
        <ele>346.21</ele>
        <time>2021-08-17T10:10:14Z</time>
      </trkpt>
      <trkpt lat="44.43098" lon="1.64227">
        <ele>346.21</ele>
        <time>2021-08-17T10:10:15Z</time>
      </trkpt>
      <trkpt lat="44.43094" lon="1.64228">
        <ele>346.21</ele>
        <time>2021-08-17T10:10:16Z</time>
      </trkpt>
      <trkpt lat="44.43087" lon="1.64228">
        <ele>346.21</ele>
        <time>2021-08-17T10:10:17Z</time>
      </trkpt>
      <trkpt lat="44.43083" lon="1.64228">
        <ele>346.21</ele>
        <time>2021-08-17T10:10:18Z</time>
      </trkpt>
      <trkpt lat="44.43053" lon="1.64225">
        <ele>346.69</ele>
        <time>2021-08-17T10:10:25Z</time>
      </trkpt>
      <trkpt lat="44.43022" lon="1.64222">
        <ele>348.13</ele>
        <time>2021-08-17T10:10:34Z</time>
      </trkpt>
      <trkpt lat="44.43" lon="1.64224">
        <ele>350.06</ele>
        <time>2021-08-17T10:10:42Z</time>
      </trkpt>
      <trkpt lat="44.42983" lon="1.64232">
        <ele>351.5</ele>
        <time>2021-08-17T10:10:51Z</time>
      </trkpt>
      <trkpt lat="44.42968" lon="1.64243">
        <ele>352.46</ele>
        <time>2021-08-17T10:10:59Z</time>
      </trkpt>
      <trkpt lat="44.42951" lon="1.64258">
        <ele>353.9</ele>
        <time>2021-08-17T10:11:08Z</time>
      </trkpt>
      <trkpt lat="44.42933" lon="1.64271">
        <ele>355.34</ele>
        <time>2021-08-17T10:11:18Z</time>
      </trkpt>
      <trkpt lat="44.42917" lon="1.64281">
        <ele>357.27</ele>
        <time>2021-08-17T10:11:27Z</time>
      </trkpt>
      <trkpt lat="44.42896" lon="1.64299">
        <ele>358.71</ele>
        <time>2021-08-17T10:11:39Z</time>
      </trkpt>
      <trkpt lat="44.42886" lon="1.64317">
        <ele>359.19</ele>
        <time>2021-08-17T10:11:47Z</time>
      </trkpt>
      <trkpt lat="44.42877" lon="1.64342">
        <ele>361.11</ele>
        <time>2021-08-17T10:11:57Z</time>
      </trkpt>
      <trkpt lat="44.4287" lon="1.64362">
        <ele>362.07</ele>
        <time>2021-08-17T10:12:04Z</time>
      </trkpt>
      <trkpt lat="44.42866" lon="1.64386">
        <ele>363.52</ele>
        <time>2021-08-17T10:12:12Z</time>
      </trkpt>
      <trkpt lat="44.42862" lon="1.64409">
        <ele>364</ele>
        <time>2021-08-17T10:12:19Z</time>
      </trkpt>
      <trkpt lat="44.42861" lon="1.64435">
        <ele>364.48</ele>
        <time>2021-08-17T10:12:26Z</time>
      </trkpt>
      <trkpt lat="44.42861" lon="1.64459">
        <ele>364.48</ele>
        <time>2021-08-17T10:12:32Z</time>
      </trkpt>
      <trkpt lat="44.42859" lon="1.64462">
        <ele>364.48</ele>
        <time>2021-08-17T10:12:33Z</time>
      </trkpt>
      <trkpt lat="44.42856" lon="1.64464">
        <ele>364.48</ele>
        <time>2021-08-17T10:12:34Z</time>
      </trkpt>
      <trkpt lat="44.42853" lon="1.64464">
        <ele>364.48</ele>
        <time>2021-08-17T10:12:35Z</time>
      </trkpt>
      <trkpt lat="44.4285" lon="1.64464">
        <ele>364.96</ele>
        <time>2021-08-17T10:12:36Z</time>
      </trkpt>
      <trkpt lat="44.42847" lon="1.64463">
        <ele>364.96</ele>
        <time>2021-08-17T10:12:37Z</time>
      </trkpt>
      <trkpt lat="44.42844" lon="1.64462">
        <ele>364.96</ele>
        <time>2021-08-17T10:12:38Z</time>
      </trkpt>
      <trkpt lat="44.42842" lon="1.6446">
        <ele>364.96</ele>
        <time>2021-08-17T10:12:39Z</time>
      </trkpt>
      <trkpt lat="44.42839" lon="1.64458">
        <ele>365.44</ele>
        <time>2021-08-17T10:12:40Z</time>
      </trkpt>
      <trkpt lat="44.42826" lon="1.64448">
        <ele>366.4</ele>
        <time>2021-08-17T10:12:47Z</time>
      </trkpt>
      <trkpt lat="44.42808" lon="1.6444">
        <ele>367.36</ele>
        <time>2021-08-17T10:12:55Z</time>
      </trkpt>
      <trkpt lat="44.42784" lon="1.64434">
        <ele>367.36</ele>
        <time>2021-08-17T10:13:02Z</time>
      </trkpt>
      <trkpt lat="44.42748" lon="1.64429">
        <ele>365.44</ele>
        <time>2021-08-17T10:13:11Z</time>
      </trkpt>
      <trkpt lat="44.42743" lon="1.64428">
        <ele>365.44</ele>
        <time>2021-08-17T10:13:12Z</time>
      </trkpt>
      <trkpt lat="44.42729" lon="1.64426">
        <ele>364.48</ele>
        <time>2021-08-17T10:13:15Z</time>
      </trkpt>
      <trkpt lat="44.42723" lon="1.64424">
        <ele>364.48</ele>
        <time>2021-08-17T10:13:16Z</time>
      </trkpt>
      <trkpt lat="44.42718" lon="1.64421">
        <ele>364.48</ele>
        <time>2021-08-17T10:13:17Z</time>
      </trkpt>
      <trkpt lat="44.42702" lon="1.64412">
        <ele>363.04</ele>
        <time>2021-08-17T10:13:20Z</time>
      </trkpt>
      <trkpt lat="44.42696" lon="1.6441">
        <ele>363.04</ele>
        <time>2021-08-17T10:13:21Z</time>
      </trkpt>
      <trkpt lat="44.42677" lon="1.64406">
        <ele>361.59</ele>
        <time>2021-08-17T10:13:24Z</time>
      </trkpt>
      <trkpt lat="44.42663" lon="1.64403">
        <ele>360.63</ele>
        <time>2021-08-17T10:13:26Z</time>
      </trkpt>
      <trkpt lat="44.42623" lon="1.64396">
        <ele>357.27</ele>
        <time>2021-08-17T10:13:31Z</time>
      </trkpt>
      <trkpt lat="44.42605" lon="1.64387">
        <ele>355.83</ele>
        <time>2021-08-17T10:13:34Z</time>
      </trkpt>
      <trkpt lat="44.42601" lon="1.64384">
        <ele>355.34</ele>
        <time>2021-08-17T10:13:35Z</time>
      </trkpt>
      <trkpt lat="44.42599" lon="1.64379">
        <ele>355.34</ele>
        <time>2021-08-17T10:13:36Z</time>
      </trkpt>
      <trkpt lat="44.42599" lon="1.64373">
        <ele>354.38</ele>
        <time>2021-08-17T10:13:37Z</time>
      </trkpt>
      <trkpt lat="44.426" lon="1.64366">
        <ele>354.38</ele>
        <time>2021-08-17T10:13:38Z</time>
      </trkpt>
      <trkpt lat="44.42601" lon="1.6436">
        <ele>353.42</ele>
        <time>2021-08-17T10:13:39Z</time>
      </trkpt>
      <trkpt lat="44.42603" lon="1.64352">
        <ele>352.46</ele>
        <time>2021-08-17T10:13:40Z</time>
      </trkpt>
      <trkpt lat="44.42605" lon="1.64345">
        <ele>352.46</ele>
        <time>2021-08-17T10:13:41Z</time>
      </trkpt>
      <trkpt lat="44.42617" lon="1.64313">
        <ele>350.06</ele>
        <time>2021-08-17T10:13:45Z</time>
      </trkpt>
      <trkpt lat="44.42625" lon="1.64289">
        <ele>348.13</ele>
        <time>2021-08-17T10:13:48Z</time>
      </trkpt>
      <trkpt lat="44.42627" lon="1.64282">
        <ele>347.17</ele>
        <time>2021-08-17T10:13:49Z</time>
      </trkpt>
      <trkpt lat="44.42628" lon="1.64276">
        <ele>347.17</ele>
        <time>2021-08-17T10:13:50Z</time>
      </trkpt>
      <trkpt lat="44.42628" lon="1.6427">
        <ele>346.21</ele>
        <time>2021-08-17T10:13:51Z</time>
      </trkpt>
      <trkpt lat="44.42625" lon="1.64265">
        <ele>345.25</ele>
        <time>2021-08-17T10:13:52Z</time>
      </trkpt>
      <trkpt lat="44.42621" lon="1.64263">
        <ele>344.77</ele>
        <time>2021-08-17T10:13:53Z</time>
      </trkpt>
      <trkpt lat="44.42616" lon="1.64262">
        <ele>344.29</ele>
        <time>2021-08-17T10:13:54Z</time>
      </trkpt>
      <trkpt lat="44.42609" lon="1.64263">
        <ele>343.33</ele>
        <time>2021-08-17T10:13:55Z</time>
      </trkpt>
      <trkpt lat="44.42602" lon="1.64263">
        <ele>341.89</ele>
        <time>2021-08-17T10:13:56Z</time>
      </trkpt>
      <trkpt lat="44.42595" lon="1.64262">
        <ele>340.92</ele>
        <time>2021-08-17T10:13:57Z</time>
      </trkpt>
      <trkpt lat="44.42588" lon="1.64263">
        <ele>340.44</ele>
        <time>2021-08-17T10:13:58Z</time>
      </trkpt>
      <trkpt lat="44.4258" lon="1.64264">
        <ele>339</ele>
        <time>2021-08-17T10:13:59Z</time>
      </trkpt>
      <trkpt lat="44.42564" lon="1.64266">
        <ele>337.08</ele>
        <time>2021-08-17T10:14:01Z</time>
      </trkpt>
      <trkpt lat="44.42557" lon="1.64269">
        <ele>337.08</ele>
        <time>2021-08-17T10:14:02Z</time>
      </trkpt>
      <trkpt lat="44.4255" lon="1.64273">
        <ele>336.12</ele>
        <time>2021-08-17T10:14:03Z</time>
      </trkpt>
      <trkpt lat="44.42537" lon="1.64281">
        <ele>336.12</ele>
        <time>2021-08-17T10:14:05Z</time>
      </trkpt>
      <trkpt lat="44.4253" lon="1.64284">
        <ele>335.64</ele>
        <time>2021-08-17T10:14:06Z</time>
      </trkpt>
      <trkpt lat="44.42504" lon="1.64292">
        <ele>332.27</ele>
        <time>2021-08-17T10:14:10Z</time>
      </trkpt>
      <trkpt lat="44.4247" lon="1.6431">
        <ele>329.39</ele>
        <time>2021-08-17T10:14:15Z</time>
      </trkpt>
      <trkpt lat="44.42444" lon="1.64318">
        <ele>326.02</ele>
        <time>2021-08-17T10:14:18Z</time>
      </trkpt>
      <trkpt lat="44.42409" lon="1.64335">
        <ele>323.62</ele>
        <time>2021-08-17T10:14:22Z</time>
      </trkpt>
      <trkpt lat="44.42401" lon="1.64336">
        <ele>323.62</ele>
        <time>2021-08-17T10:14:23Z</time>
      </trkpt>
      <trkpt lat="44.42395" lon="1.64336">
        <ele>323.62</ele>
        <time>2021-08-17T10:14:24Z</time>
      </trkpt>
      <trkpt lat="44.42389" lon="1.64336">
        <ele>322.66</ele>
        <time>2021-08-17T10:14:25Z</time>
      </trkpt>
      <trkpt lat="44.42383" lon="1.64338">
        <ele>322.66</ele>
        <time>2021-08-17T10:14:26Z</time>
      </trkpt>
      <trkpt lat="44.42377" lon="1.64341">
        <ele>321.7</ele>
        <time>2021-08-17T10:14:27Z</time>
      </trkpt>
      <trkpt lat="44.42371" lon="1.64344">
        <ele>321.7</ele>
        <time>2021-08-17T10:14:28Z</time>
      </trkpt>
      <trkpt lat="44.42354" lon="1.64356">
        <ele>320.26</ele>
        <time>2021-08-17T10:14:31Z</time>
      </trkpt>
      <trkpt lat="44.4235" lon="1.6436">
        <ele>319.78</ele>
        <time>2021-08-17T10:14:32Z</time>
      </trkpt>
      <trkpt lat="44.42345" lon="1.64365">
        <ele>319.3</ele>
        <time>2021-08-17T10:14:33Z</time>
      </trkpt>
      <trkpt lat="44.42332" lon="1.64376">
        <ele>317.37</ele>
        <time>2021-08-17T10:14:37Z</time>
      </trkpt>
      <trkpt lat="44.42328" lon="1.64364">
        <ele>316.89</ele>
        <time>2021-08-17T10:14:41Z</time>
      </trkpt>
      <trkpt lat="44.4233" lon="1.64341">
        <ele>315.45</ele>
        <time>2021-08-17T10:14:45Z</time>
      </trkpt>
      <trkpt lat="44.42327" lon="1.64323">
        <ele>314.01</ele>
        <time>2021-08-17T10:14:48Z</time>
      </trkpt>
      <trkpt lat="44.42325" lon="1.64319">
        <ele>313.53</ele>
        <time>2021-08-17T10:14:49Z</time>
      </trkpt>
      <trkpt lat="44.4232" lon="1.64316">
        <ele>312.57</ele>
        <time>2021-08-17T10:14:50Z</time>
      </trkpt>
      <trkpt lat="44.42314" lon="1.64316">
        <ele>312.09</ele>
        <time>2021-08-17T10:14:51Z</time>
      </trkpt>
      <trkpt lat="44.42309" lon="1.64318">
        <ele>311.6</ele>
        <time>2021-08-17T10:14:52Z</time>
      </trkpt>
      <trkpt lat="44.42303" lon="1.6432">
        <ele>311.6</ele>
        <time>2021-08-17T10:14:53Z</time>
      </trkpt>
      <trkpt lat="44.42297" lon="1.64322">
        <ele>310.64</ele>
        <time>2021-08-17T10:14:54Z</time>
      </trkpt>
      <trkpt lat="44.42272" lon="1.64334">
        <ele>309.68</ele>
        <time>2021-08-17T10:14:58Z</time>
      </trkpt>
      <trkpt lat="44.42265" lon="1.64335">
        <ele>309.2</ele>
        <time>2021-08-17T10:14:59Z</time>
      </trkpt>
      <trkpt lat="44.42258" lon="1.64336">
        <ele>309.2</ele>
        <time>2021-08-17T10:15:00Z</time>
      </trkpt>
      <trkpt lat="44.4222" lon="1.64338">
        <ele>305.84</ele>
        <time>2021-08-17T10:15:05Z</time>
      </trkpt>
      <trkpt lat="44.42175" lon="1.64341">
        <ele>301.99</ele>
        <time>2021-08-17T10:15:10Z</time>
      </trkpt>
      <trkpt lat="44.42166" lon="1.64339">
        <ele>301.51</ele>
        <time>2021-08-17T10:15:11Z</time>
      </trkpt>
      <trkpt lat="44.42156" lon="1.64337">
        <ele>301.51</ele>
        <time>2021-08-17T10:15:12Z</time>
      </trkpt>
      <trkpt lat="44.42092" lon="1.64333">
        <ele>298.63</ele>
        <time>2021-08-17T10:15:19Z</time>
      </trkpt>
      <trkpt lat="44.4203" lon="1.64328">
        <ele>295.26</ele>
        <time>2021-08-17T10:15:26Z</time>
      </trkpt>
      <trkpt lat="44.41967" lon="1.6432">
        <ele>293.34</ele>
        <time>2021-08-17T10:15:33Z</time>
      </trkpt>
      <trkpt lat="44.41961" lon="1.6432">
        <ele>292.86</ele>
        <time>2021-08-17T10:15:34Z</time>
      </trkpt>
      <trkpt lat="44.41952" lon="1.64322">
        <ele>292.38</ele>
        <time>2021-08-17T10:15:35Z</time>
      </trkpt>
      <trkpt lat="44.41887" lon="1.64343">
        <ele>289.01</ele>
        <time>2021-08-17T10:15:43Z</time>
      </trkpt>
      <trkpt lat="44.41871" lon="1.64344">
        <ele>288.05</ele>
        <time>2021-08-17T10:15:45Z</time>
      </trkpt>
      <trkpt lat="44.41863" lon="1.64344">
        <ele>287.09</ele>
        <time>2021-08-17T10:15:46Z</time>
      </trkpt>
      <trkpt lat="44.41841" lon="1.64337">
        <ele>285.65</ele>
        <time>2021-08-17T10:15:49Z</time>
      </trkpt>
      <trkpt lat="44.41812" lon="1.64315">
        <ele>283.25</ele>
        <time>2021-08-17T10:15:53Z</time>
      </trkpt>
      <trkpt lat="44.41804" lon="1.64311">
        <ele>282.77</ele>
        <time>2021-08-17T10:15:54Z</time>
      </trkpt>
      <trkpt lat="44.41796" lon="1.64308">
        <ele>282.77</ele>
        <time>2021-08-17T10:15:55Z</time>
      </trkpt>
      <trkpt lat="44.41751" lon="1.64296">
        <ele>281.32</ele>
        <time>2021-08-17T10:16:01Z</time>
      </trkpt>
      <trkpt lat="44.41744" lon="1.64297">
        <ele>281.8</ele>
        <time>2021-08-17T10:16:02Z</time>
      </trkpt>
      <trkpt lat="44.41737" lon="1.64298">
        <ele>281.8</ele>
        <time>2021-08-17T10:16:03Z</time>
      </trkpt>
      <trkpt lat="44.41724" lon="1.64301">
        <ele>281.32</ele>
        <time>2021-08-17T10:16:05Z</time>
      </trkpt>
      <trkpt lat="44.41717" lon="1.64301">
        <ele>281.32</ele>
        <time>2021-08-17T10:16:06Z</time>
      </trkpt>
      <trkpt lat="44.41706" lon="1.64299">
        <ele>281.32</ele>
        <time>2021-08-17T10:16:08Z</time>
      </trkpt>
      <trkpt lat="44.417" lon="1.64298">
        <ele>281.32</ele>
        <time>2021-08-17T10:16:09Z</time>
      </trkpt>
      <trkpt lat="44.41677" lon="1.64296">
        <ele>282.77</ele>
        <time>2021-08-17T10:16:15Z</time>
      </trkpt>
      <trkpt lat="44.41674" lon="1.64296">
        <ele>282.77</ele>
        <time>2021-08-17T10:16:16Z</time>
      </trkpt>
      <trkpt lat="44.41664" lon="1.64297">
        <ele>283.25</ele>
        <time>2021-08-17T10:16:21Z</time>
      </trkpt>
      <trkpt lat="44.41648" lon="1.64298">
        <ele>284.69</ele>
        <time>2021-08-17T10:16:29Z</time>
      </trkpt>
      <trkpt lat="44.41628" lon="1.643">
        <ele>286.13</ele>
        <time>2021-08-17T10:16:38Z</time>
      </trkpt>
      <trkpt lat="44.41601" lon="1.64305">
        <ele>286.61</ele>
        <time>2021-08-17T10:16:49Z</time>
      </trkpt>
      <trkpt lat="44.41582" lon="1.64309">
        <ele>287.57</ele>
        <time>2021-08-17T10:16:57Z</time>
      </trkpt>
      <trkpt lat="44.41561" lon="1.64317">
        <ele>288.53</ele>
        <time>2021-08-17T10:17:06Z</time>
      </trkpt>
      <trkpt lat="44.41539" lon="1.64327">
        <ele>289.49</ele>
        <time>2021-08-17T10:17:14Z</time>
      </trkpt>
      <trkpt lat="44.41522" lon="1.64335">
        <ele>290.94</ele>
        <time>2021-08-17T10:17:22Z</time>
      </trkpt>
      <trkpt lat="44.41504" lon="1.64342">
        <ele>291.42</ele>
        <time>2021-08-17T10:17:29Z</time>
      </trkpt>
      <trkpt lat="44.41475" lon="1.64347">
        <ele>291.42</ele>
        <time>2021-08-17T10:17:38Z</time>
      </trkpt>
      <trkpt lat="44.41456" lon="1.64352">
        <ele>292.38</ele>
        <time>2021-08-17T10:17:44Z</time>
      </trkpt>
      <trkpt lat="44.41428" lon="1.64368">
        <ele>292.86</ele>
        <time>2021-08-17T10:17:52Z</time>
      </trkpt>
      <trkpt lat="44.41407" lon="1.64378">
        <ele>292.86</ele>
        <time>2021-08-17T10:17:57Z</time>
      </trkpt>
      <trkpt lat="44.4139" lon="1.64383">
        <ele>292.86</ele>
        <time>2021-08-17T10:18:01Z</time>
      </trkpt>
      <trkpt lat="44.41371" lon="1.64385">
        <ele>291.42</ele>
        <time>2021-08-17T10:18:05Z</time>
      </trkpt>
      <trkpt lat="44.41336" lon="1.64378">
        <ele>289.01</ele>
        <time>2021-08-17T10:18:11Z</time>
      </trkpt>
      <trkpt lat="44.41322" lon="1.64374">
        <ele>288.53</ele>
        <time>2021-08-17T10:18:13Z</time>
      </trkpt>
      <trkpt lat="44.41315" lon="1.64373">
        <ele>287.57</ele>
        <time>2021-08-17T10:18:14Z</time>
      </trkpt>
      <trkpt lat="44.41275" lon="1.64372">
        <ele>284.69</ele>
        <time>2021-08-17T10:18:19Z</time>
      </trkpt>
      <trkpt lat="44.4124" lon="1.64371">
        <ele>281.32</ele>
        <time>2021-08-17T10:18:23Z</time>
      </trkpt>
      <trkpt lat="44.41202" lon="1.64375">
        <ele>277.96</ele>
        <time>2021-08-17T10:18:27Z</time>
      </trkpt>
      <trkpt lat="44.41184" lon="1.64379">
        <ele>277</ele>
        <time>2021-08-17T10:18:29Z</time>
      </trkpt>
      <trkpt lat="44.41175" lon="1.64379">
        <ele>277.96</ele>
        <time>2021-08-17T10:18:30Z</time>
      </trkpt>
      <trkpt lat="44.41167" lon="1.64377">
        <ele>277.96</ele>
        <time>2021-08-17T10:18:31Z</time>
      </trkpt>
      <trkpt lat="44.41144" lon="1.64371">
        <ele>280.36</ele>
        <time>2021-08-17T10:18:35Z</time>
      </trkpt>
      <trkpt lat="44.41139" lon="1.64369">
        <ele>280.84</ele>
        <time>2021-08-17T10:18:37Z</time>
      </trkpt>
      <trkpt lat="44.41127" lon="1.64368">
        <ele>282.28</ele>
        <time>2021-08-17T10:18:43Z</time>
      </trkpt>
      <trkpt lat="44.41125" lon="1.64367">
        <ele>282.28</ele>
        <time>2021-08-17T10:18:44Z</time>
      </trkpt>
      <trkpt lat="44.41123" lon="1.64367">
        <ele>282.28</ele>
        <time>2021-08-17T10:18:45Z</time>
      </trkpt>
      <trkpt lat="44.41099" lon="1.64365">
        <ele>284.21</ele>
        <time>2021-08-17T10:18:56Z</time>
      </trkpt>
      <trkpt lat="44.4108" lon="1.64363">
        <ele>285.17</ele>
        <time>2021-08-17T10:19:04Z</time>
      </trkpt>
      <trkpt lat="44.41049" lon="1.64358">
        <ele>286.13</ele>
        <time>2021-08-17T10:19:14Z</time>
      </trkpt>
      <trkpt lat="44.41031" lon="1.64356">
        <ele>284.21</ele>
        <time>2021-08-17T10:19:18Z</time>
      </trkpt>
      <trkpt lat="44.4098" lon="1.64346">
        <ele>283.73</ele>
        <time>2021-08-17T10:19:28Z</time>
      </trkpt>
      <trkpt lat="44.4097" lon="1.64343">
        <ele>283.25</ele>
        <time>2021-08-17T10:19:30Z</time>
      </trkpt>
      <trkpt lat="44.40949" lon="1.64339">
        <ele>282.77</ele>
        <time>2021-08-17T10:19:34Z</time>
      </trkpt>
      <trkpt lat="44.40921" lon="1.6434">
        <ele>281.8</ele>
        <time>2021-08-17T10:19:39Z</time>
      </trkpt>
      <trkpt lat="44.40869" lon="1.64349">
        <ele>279.4</ele>
        <time>2021-08-17T10:19:47Z</time>
      </trkpt>
      <trkpt lat="44.40862" lon="1.64349">
        <ele>279.4</ele>
        <time>2021-08-17T10:19:48Z</time>
      </trkpt>
      <trkpt lat="44.40856" lon="1.64347">
        <ele>278.92</ele>
        <time>2021-08-17T10:19:49Z</time>
      </trkpt>
      <trkpt lat="44.4085" lon="1.64344">
        <ele>278.92</ele>
        <time>2021-08-17T10:19:50Z</time>
      </trkpt>
      <trkpt lat="44.40844" lon="1.64341">
        <ele>278.92</ele>
        <time>2021-08-17T10:19:51Z</time>
      </trkpt>
      <trkpt lat="44.40839" lon="1.64337">
        <ele>278.92</ele>
        <time>2021-08-17T10:19:52Z</time>
      </trkpt>
      <trkpt lat="44.40818" lon="1.64322">
        <ele>281.8</ele>
        <time>2021-08-17T10:19:58Z</time>
      </trkpt>
      <trkpt lat="44.40804" lon="1.64315">
        <ele>283.25</ele>
        <time>2021-08-17T10:20:05Z</time>
      </trkpt>
      <trkpt lat="44.40786" lon="1.64301">
        <ele>285.17</ele>
        <time>2021-08-17T10:20:15Z</time>
      </trkpt>
      <trkpt lat="44.40768" lon="1.64286">
        <ele>286.61</ele>
        <time>2021-08-17T10:20:25Z</time>
      </trkpt>
      <trkpt lat="44.40745" lon="1.64269">
        <ele>288.05</ele>
        <time>2021-08-17T10:20:37Z</time>
      </trkpt>
      <trkpt lat="44.4073" lon="1.64255">
        <ele>288.53</ele>
        <time>2021-08-17T10:20:44Z</time>
      </trkpt>
      <trkpt lat="44.40712" lon="1.64231">
        <ele>288.53</ele>
        <time>2021-08-17T10:20:51Z</time>
      </trkpt>
      <trkpt lat="44.40697" lon="1.64211">
        <ele>287.09</ele>
        <time>2021-08-17T10:20:56Z</time>
      </trkpt>
      <trkpt lat="44.40689" lon="1.64204">
        <ele>286.61</ele>
        <time>2021-08-17T10:20:58Z</time>
      </trkpt>
      <trkpt lat="44.40675" lon="1.64191">
        <ele>285.65</ele>
        <time>2021-08-17T10:21:01Z</time>
      </trkpt>
      <trkpt lat="44.40671" lon="1.64186">
        <ele>285.65</ele>
        <time>2021-08-17T10:21:02Z</time>
      </trkpt>
      <trkpt lat="44.40639" lon="1.64151">
        <ele>281.8</ele>
        <time>2021-08-17T10:21:08Z</time>
      </trkpt>
      <trkpt lat="44.40598" lon="1.6412">
        <ele>278.92</ele>
        <time>2021-08-17T10:21:14Z</time>
      </trkpt>
      <trkpt lat="44.40561" lon="1.64107">
        <ele>276.52</ele>
        <time>2021-08-17T10:21:19Z</time>
      </trkpt>
      <trkpt lat="44.40555" lon="1.64106">
        <ele>276.52</ele>
        <time>2021-08-17T10:21:20Z</time>
      </trkpt>
      <trkpt lat="44.40549" lon="1.64107">
        <ele>276.04</ele>
        <time>2021-08-17T10:21:21Z</time>
      </trkpt>
      <trkpt lat="44.40542" lon="1.64108">
        <ele>276.52</ele>
        <time>2021-08-17T10:21:22Z</time>
      </trkpt>
      <trkpt lat="44.40538" lon="1.64111">
        <ele>276.52</ele>
        <time>2021-08-17T10:21:23Z</time>
      </trkpt>
      <trkpt lat="44.40533" lon="1.64114">
        <ele>276.52</ele>
        <time>2021-08-17T10:21:24Z</time>
      </trkpt>
      <trkpt lat="44.40529" lon="1.64118">
        <ele>276.52</ele>
        <time>2021-08-17T10:21:25Z</time>
      </trkpt>
      <trkpt lat="44.40524" lon="1.64123">
        <ele>276.52</ele>
        <time>2021-08-17T10:21:26Z</time>
      </trkpt>
      <trkpt lat="44.4052" lon="1.64128">
        <ele>276.52</ele>
        <time>2021-08-17T10:21:27Z</time>
      </trkpt>
      <trkpt lat="44.40506" lon="1.64143">
        <ele>276.04</ele>
        <time>2021-08-17T10:21:30Z</time>
      </trkpt>
      <trkpt lat="44.40502" lon="1.64149">
        <ele>276.04</ele>
        <time>2021-08-17T10:21:31Z</time>
      </trkpt>
      <trkpt lat="44.40484" lon="1.64184">
        <ele>275.56</ele>
        <time>2021-08-17T10:21:36Z</time>
      </trkpt>
      <trkpt lat="44.40482" lon="1.64194">
        <ele>275.56</ele>
        <time>2021-08-17T10:21:37Z</time>
      </trkpt>
      <trkpt lat="44.40476" lon="1.64229">
        <ele>277</ele>
        <time>2021-08-17T10:21:42Z</time>
      </trkpt>
      <trkpt lat="44.40475" lon="1.64235">
        <ele>277</ele>
        <time>2021-08-17T10:21:43Z</time>
      </trkpt>
      <trkpt lat="44.40472" lon="1.64242">
        <ele>277</ele>
        <time>2021-08-17T10:21:44Z</time>
      </trkpt>
      <trkpt lat="44.40469" lon="1.64248">
        <ele>277</ele>
        <time>2021-08-17T10:21:45Z</time>
      </trkpt>
      <trkpt lat="44.40466" lon="1.64255">
        <ele>277</ele>
        <time>2021-08-17T10:21:46Z</time>
      </trkpt>
      <trkpt lat="44.40463" lon="1.64261">
        <ele>277</ele>
        <time>2021-08-17T10:21:47Z</time>
      </trkpt>
      <trkpt lat="44.40443" lon="1.64293">
        <ele>277.96</ele>
        <time>2021-08-17T10:21:53Z</time>
      </trkpt>
      <trkpt lat="44.40434" lon="1.64303">
        <ele>278.92</ele>
        <time>2021-08-17T10:21:56Z</time>
      </trkpt>
      <trkpt lat="44.40431" lon="1.64303">
        <ele>278.92</ele>
        <time>2021-08-17T10:21:57Z</time>
      </trkpt>
      <trkpt lat="44.40428" lon="1.64302">
        <ele>278.92</ele>
        <time>2021-08-17T10:21:58Z</time>
      </trkpt>
      <trkpt lat="44.40425" lon="1.64299">
        <ele>278.92</ele>
        <time>2021-08-17T10:21:59Z</time>
      </trkpt>
      <trkpt lat="44.40421" lon="1.64296">
        <ele>278.92</ele>
        <time>2021-08-17T10:22:00Z</time>
      </trkpt>
      <trkpt lat="44.40419" lon="1.64293">
        <ele>278.92</ele>
        <time>2021-08-17T10:22:01Z</time>
      </trkpt>
      <trkpt lat="44.40417" lon="1.6429">
        <ele>278.92</ele>
        <time>2021-08-17T10:22:02Z</time>
      </trkpt>
      <trkpt lat="44.40415" lon="1.64289">
        <ele>278.92</ele>
        <time>2021-08-17T10:22:03Z</time>
      </trkpt>
      <trkpt lat="44.40417" lon="1.64293">
        <ele>278.92</ele>
        <time>2021-08-17T10:22:07Z</time>
      </trkpt>
      <trkpt lat="44.40419" lon="1.64293">
        <ele>278.92</ele>
        <time>2021-08-17T10:22:08Z</time>
      </trkpt>
      <trkpt lat="44.40421" lon="1.64294">
        <ele>278.92</ele>
        <time>2021-08-17T10:22:09Z</time>
      </trkpt>
      <trkpt lat="44.40423" lon="1.64296">
        <ele>278.92</ele>
        <time>2021-08-17T10:22:10Z</time>
      </trkpt>
      <trkpt lat="44.40425" lon="1.64298">
        <ele>278.92</ele>
        <time>2021-08-17T10:22:11Z</time>
      </trkpt>
      <trkpt lat="44.40437" lon="1.64318">
        <ele>279.4</ele>
        <time>2021-08-17T10:22:17Z</time>
      </trkpt>
      <trkpt lat="44.40442" lon="1.64348">
        <ele>280.36</ele>
        <time>2021-08-17T10:22:25Z</time>
      </trkpt>
      <trkpt lat="44.40435" lon="1.64372">
        <ele>281.8</ele>
        <time>2021-08-17T10:22:33Z</time>
      </trkpt>
      <trkpt lat="44.40421" lon="1.6439">
        <ele>282.28</ele>
        <time>2021-08-17T10:22:41Z</time>
      </trkpt>
      <trkpt lat="44.40401" lon="1.64399">
        <ele>282.77</ele>
        <time>2021-08-17T10:22:48Z</time>
      </trkpt>
      <trkpt lat="44.40386" lon="1.64421">
        <ele>282.77</ele>
        <time>2021-08-17T10:22:54Z</time>
      </trkpt>
      <trkpt lat="44.40376" lon="1.64448">
        <ele>281.32</ele>
        <time>2021-08-17T10:23:00Z</time>
      </trkpt>
      <trkpt lat="44.40372" lon="1.6445">
        <ele>280.84</ele>
        <time>2021-08-17T10:23:01Z</time>
      </trkpt>
      <trkpt lat="44.40368" lon="1.64449">
        <ele>279.88</ele>
        <time>2021-08-17T10:23:02Z</time>
      </trkpt>
      <trkpt lat="44.40363" lon="1.64449">
        <ele>279.4</ele>
        <time>2021-08-17T10:23:03Z</time>
      </trkpt>
      <trkpt lat="44.40357" lon="1.64448">
        <ele>277.96</ele>
        <time>2021-08-17T10:23:04Z</time>
      </trkpt>
      <trkpt lat="44.4035" lon="1.64449">
        <ele>277</ele>
        <time>2021-08-17T10:23:05Z</time>
      </trkpt>
      <trkpt lat="44.40342" lon="1.64451">
        <ele>275.56</ele>
        <time>2021-08-17T10:23:06Z</time>
      </trkpt>
      <trkpt lat="44.40333" lon="1.64454">
        <ele>274.11</ele>
        <time>2021-08-17T10:23:07Z</time>
      </trkpt>
      <trkpt lat="44.40314" lon="1.64458">
        <ele>272.19</ele>
        <time>2021-08-17T10:23:09Z</time>
      </trkpt>
      <trkpt lat="44.40305" lon="1.64457">
        <ele>271.23</ele>
        <time>2021-08-17T10:23:10Z</time>
      </trkpt>
      <trkpt lat="44.40295" lon="1.64455">
        <ele>270.27</ele>
        <time>2021-08-17T10:23:11Z</time>
      </trkpt>
      <trkpt lat="44.40286" lon="1.64452">
        <ele>270.27</ele>
        <time>2021-08-17T10:23:12Z</time>
      </trkpt>
      <trkpt lat="44.40277" lon="1.64449">
        <ele>270.27</ele>
        <time>2021-08-17T10:23:13Z</time>
      </trkpt>
      <trkpt lat="44.40251" lon="1.64435">
        <ele>273.15</ele>
        <time>2021-08-17T10:23:17Z</time>
      </trkpt>
      <trkpt lat="44.40247" lon="1.64434">
        <ele>273.63</ele>
        <time>2021-08-17T10:23:18Z</time>
      </trkpt>
      <trkpt lat="44.40244" lon="1.64434">
        <ele>274.11</ele>
        <time>2021-08-17T10:23:19Z</time>
      </trkpt>
      <trkpt lat="44.40242" lon="1.64434">
        <ele>274.59</ele>
        <time>2021-08-17T10:23:20Z</time>
      </trkpt>
      <trkpt lat="44.4024" lon="1.64435">
        <ele>275.07</ele>
        <time>2021-08-17T10:23:21Z</time>
      </trkpt>
      <trkpt lat="44.40239" lon="1.64436">
        <ele>275.56</ele>
        <time>2021-08-17T10:23:22Z</time>
      </trkpt>
      <trkpt lat="44.40238" lon="1.64436">
        <ele>275.56</ele>
        <time>2021-08-17T10:23:23Z</time>
      </trkpt>
      <trkpt lat="44.40236" lon="1.64437">
        <ele>275.56</ele>
        <time>2021-08-17T10:23:24Z</time>
      </trkpt>
      <trkpt lat="44.40235" lon="1.64437">
        <ele>276.04</ele>
        <time>2021-08-17T10:23:25Z</time>
      </trkpt>
      <trkpt lat="44.40234" lon="1.64438">
        <ele>276.04</ele>
        <time>2021-08-17T10:23:26Z</time>
      </trkpt>
      <trkpt lat="44.40233" lon="1.64438">
        <ele>276.04</ele>
        <time>2021-08-17T10:23:27Z</time>
      </trkpt>
      <trkpt lat="44.40231" lon="1.64438">
        <ele>276.04</ele>
        <time>2021-08-17T10:23:28Z</time>
      </trkpt>
      <trkpt lat="44.4023" lon="1.64438">
        <ele>276.04</ele>
        <time>2021-08-17T10:23:29Z</time>
      </trkpt>
      <trkpt lat="44.4022" lon="1.64437">
        <ele>277.96</ele>
        <time>2021-08-17T10:23:37Z</time>
      </trkpt>
      <trkpt lat="44.40218" lon="1.64434">
        <ele>278.44</ele>
        <time>2021-08-17T10:23:39Z</time>
      </trkpt>
      <trkpt lat="44.40217" lon="1.64433">
        <ele>278.92</ele>
        <time>2021-08-17T10:23:40Z</time>
      </trkpt>
      <trkpt lat="44.40217" lon="1.64431">
        <ele>278.92</ele>
        <time>2021-08-17T10:23:41Z</time>
      </trkpt>
      <trkpt lat="44.40217" lon="1.64429">
        <ele>278.92</ele>
        <time>2021-08-17T10:23:42Z</time>
      </trkpt>
      <trkpt lat="44.40217" lon="1.64427">
        <ele>279.4</ele>
        <time>2021-08-17T10:23:43Z</time>
      </trkpt>
      <trkpt lat="44.40217" lon="1.64425">
        <ele>279.4</ele>
        <time>2021-08-17T10:23:44Z</time>
      </trkpt>
      <trkpt lat="44.40217" lon="1.64409">
        <ele>280.84</ele>
        <time>2021-08-17T10:23:51Z</time>
      </trkpt>
      <trkpt lat="44.40212" lon="1.64389">
        <ele>281.8</ele>
        <time>2021-08-17T10:24:00Z</time>
      </trkpt>
      <trkpt lat="44.40202" lon="1.64363">
        <ele>282.28</ele>
        <time>2021-08-17T10:24:09Z</time>
      </trkpt>
      <trkpt lat="44.40197" lon="1.64358">
        <ele>282.28</ele>
        <time>2021-08-17T10:24:12Z</time>
      </trkpt>
      <trkpt lat="44.40188" lon="1.64358">
        <ele>282.28</ele>
        <time>2021-08-17T10:24:16Z</time>
      </trkpt>
      <trkpt lat="44.40185" lon="1.64361">
        <ele>282.28</ele>
        <time>2021-08-17T10:24:17Z</time>
      </trkpt>
      <trkpt lat="44.40163" lon="1.64389">
        <ele>282.77</ele>
        <time>2021-08-17T10:24:26Z</time>
      </trkpt>
      <trkpt lat="44.4015" lon="1.64411">
        <ele>283.25</ele>
        <time>2021-08-17T10:24:32Z</time>
      </trkpt>
      <trkpt lat="44.40143" lon="1.64432">
        <ele>283.25</ele>
        <time>2021-08-17T10:24:38Z</time>
      </trkpt>
      <trkpt lat="44.40138" lon="1.64444">
        <ele>283.25</ele>
        <time>2021-08-17T10:24:42Z</time>
      </trkpt>
      <trkpt lat="44.40138" lon="1.64447">
        <ele>283.25</ele>
        <time>2021-08-17T10:24:43Z</time>
      </trkpt>
      <trkpt lat="44.40138" lon="1.6445">
        <ele>283.25</ele>
        <time>2021-08-17T10:24:44Z</time>
      </trkpt>
      <trkpt lat="44.40137" lon="1.64452">
        <ele>283.25</ele>
        <time>2021-08-17T10:24:45Z</time>
      </trkpt>
      <trkpt lat="44.40136" lon="1.64454">
        <ele>283.25</ele>
        <time>2021-08-17T10:24:46Z</time>
      </trkpt>
      <trkpt lat="44.40134" lon="1.64456">
        <ele>283.25</ele>
        <time>2021-08-17T10:24:47Z</time>
      </trkpt>
      <trkpt lat="44.40133" lon="1.64459">
        <ele>283.25</ele>
        <time>2021-08-17T10:24:48Z</time>
      </trkpt>
      <trkpt lat="44.40131" lon="1.64463">
        <ele>283.25</ele>
        <time>2021-08-17T10:24:49Z</time>
      </trkpt>
      <trkpt lat="44.40131" lon="1.64466">
        <ele>283.25</ele>
        <time>2021-08-17T10:24:50Z</time>
      </trkpt>
      <trkpt lat="44.4012" lon="1.64494">
        <ele>283.25</ele>
        <time>2021-08-17T10:24:58Z</time>
      </trkpt>
      <trkpt lat="44.40106" lon="1.64527">
        <ele>283.73</ele>
        <time>2021-08-17T10:25:07Z</time>
      </trkpt>
      <trkpt lat="44.40089" lon="1.64551">
        <ele>284.21</ele>
        <time>2021-08-17T10:25:15Z</time>
      </trkpt>
      <trkpt lat="44.40076" lon="1.64574">
        <ele>284.21</ele>
        <time>2021-08-17T10:25:23Z</time>
      </trkpt>
      <trkpt lat="44.40072" lon="1.64575">
        <ele>284.69</ele>
        <time>2021-08-17T10:25:29Z</time>
      </trkpt>
      <trkpt lat="44.4007" lon="1.64575">
        <ele>284.69</ele>
        <time>2021-08-17T10:25:42Z</time>
      </trkpt>
      <trkpt lat="44.40069" lon="1.64577">
        <ele>284.69</ele>
        <time>2021-08-17T10:25:49Z</time>
      </trkpt>
      <trkpt lat="44.40069" lon="1.64577">
        <ele>284.69</ele>
        <time>2021-08-17T10:26:05Z</time>
      </trkpt>
      <trkpt lat="44.40068" lon="1.64578">
        <ele>284.69</ele>
        <time>2021-08-17T10:26:20Z</time>
      </trkpt>
      <trkpt lat="44.40068" lon="1.64578">
        <ele>284.69</ele>
        <time>2021-08-17T10:26:32Z</time>
      </trkpt>
      <trkpt lat="44.40067" lon="1.64581">
        <ele>284.21</ele>
        <time>2021-08-17T10:26:48Z</time>
      </trkpt>
      <trkpt lat="44.40067" lon="1.6458">
        <ele>284.21</ele>
        <time>2021-08-17T10:26:57Z</time>
      </trkpt>
      <trkpt lat="44.40068" lon="1.6458">
        <ele>284.21</ele>
        <time>2021-08-17T10:26:58Z</time>
      </trkpt>
      <trkpt lat="44.40074" lon="1.64581">
        <ele>284.21</ele>
        <time>2021-08-17T10:27:07Z</time>
      </trkpt>
      <trkpt lat="44.40078" lon="1.64585">
        <ele>284.69</ele>
        <time>2021-08-17T10:27:16Z</time>
      </trkpt>
      <trkpt lat="44.40083" lon="1.64594">
        <ele>285.17</ele>
        <time>2021-08-17T10:27:24Z</time>
      </trkpt>
      <trkpt lat="44.4009" lon="1.64604">
        <ele>285.65</ele>
        <time>2021-08-17T10:27:32Z</time>
      </trkpt>
      <trkpt lat="44.40094" lon="1.64608">
        <ele>285.65</ele>
        <time>2021-08-17T10:27:40Z</time>
      </trkpt>
      <trkpt lat="44.40094" lon="1.64608">
        <ele>286.13</ele>
        <time>2021-08-17T10:27:54Z</time>
      </trkpt>
      <trkpt lat="44.40097" lon="1.64608">
        <ele>285.65</ele>
        <time>2021-08-17T10:28:09Z</time>
      </trkpt>
      <trkpt lat="44.40095" lon="1.6461">
        <ele>285.65</ele>
        <time>2021-08-17T10:28:26Z</time>
      </trkpt>
      <trkpt lat="44.40094" lon="1.6461">
        <ele>285.65</ele>
        <time>2021-08-17T10:28:44Z</time>
      </trkpt>
      <trkpt lat="44.40094" lon="1.64607">
        <ele>285.65</ele>
        <time>2021-08-17T10:29:01Z</time>
      </trkpt>
      <trkpt lat="44.40094" lon="1.64607">
        <ele>285.65</ele>
        <time>2021-08-17T10:29:25Z</time>
      </trkpt>
      <trkpt lat="44.40094" lon="1.64608">
        <ele>285.65</ele>
        <time>2021-08-17T10:29:35Z</time>
      </trkpt>
      <trkpt lat="44.40096" lon="1.64609">
        <ele>285.17</ele>
        <time>2021-08-17T10:29:57Z</time>
      </trkpt>
      <trkpt lat="44.40096" lon="1.64611">
        <ele>285.17</ele>
        <time>2021-08-17T10:30:18Z</time>
      </trkpt>
      <trkpt lat="44.40094" lon="1.64613">
        <ele>285.17</ele>
        <time>2021-08-17T10:30:42Z</time>
      </trkpt>
      <trkpt lat="44.40094" lon="1.64612">
        <ele>285.17</ele>
        <time>2021-08-17T10:31:10Z</time>
      </trkpt>
      <trkpt lat="44.40092" lon="1.6461">
        <ele>284.69</ele>
        <time>2021-08-17T10:31:39Z</time>
      </trkpt>
      <trkpt lat="44.40093" lon="1.64607">
        <ele>284.69</ele>
        <time>2021-08-17T10:32:08Z</time>
      </trkpt>
      <trkpt lat="44.40095" lon="1.64608">
        <ele>284.69</ele>
        <time>2021-08-17T10:32:29Z</time>
      </trkpt>
      <trkpt lat="44.40095" lon="1.64608">
        <ele>284.69</ele>
        <time>2021-08-17T10:32:55Z</time>
      </trkpt>
      <trkpt lat="44.40096" lon="1.64608">
        <ele>284.21</ele>
        <time>2021-08-17T10:33:23Z</time>
      </trkpt>
      <trkpt lat="44.40096" lon="1.64608">
        <ele>284.21</ele>
        <time>2021-08-17T10:33:51Z</time>
      </trkpt>
      <trkpt lat="44.40092" lon="1.64612">
        <ele>284.21</ele>
        <time>2021-08-17T10:34:14Z</time>
      </trkpt>
      <trkpt lat="44.40092" lon="1.64611">
        <ele>284.21</ele>
        <time>2021-08-17T10:34:28Z</time>
      </trkpt>
      <trkpt lat="44.40092" lon="1.64611">
        <ele>284.21</ele>
        <time>2021-08-17T10:34:34Z</time>
      </trkpt>
      <trkpt lat="44.40094" lon="1.64608">
        <ele>283.73</ele>
        <time>2021-08-17T10:34:59Z</time>
      </trkpt>
      <trkpt lat="44.40093" lon="1.64609">
        <ele>283.73</ele>
        <time>2021-08-17T10:35:24Z</time>
      </trkpt>
      <trkpt lat="44.40093" lon="1.64609">
        <ele>283.73</ele>
        <time>2021-08-17T10:35:49Z</time>
      </trkpt>
      <trkpt lat="44.40092" lon="1.6461">
        <ele>283.73</ele>
        <time>2021-08-17T10:36:07Z</time>
      </trkpt>
      <trkpt lat="44.40093" lon="1.64611">
        <ele>283.25</ele>
        <time>2021-08-17T10:36:35Z</time>
      </trkpt>
      <trkpt lat="44.40094" lon="1.64607">
        <ele>283.25</ele>
        <time>2021-08-17T10:37:04Z</time>
      </trkpt>
      <trkpt lat="44.40091" lon="1.64613">
        <ele>283.25</ele>
        <time>2021-08-17T10:37:32Z</time>
      </trkpt>
      <trkpt lat="44.40092" lon="1.64612">
        <ele>282.77</ele>
        <time>2021-08-17T10:37:59Z</time>
      </trkpt>
      <trkpt lat="44.40094" lon="1.64611">
        <ele>282.77</ele>
        <time>2021-08-17T10:38:21Z</time>
      </trkpt>
      <trkpt lat="44.40095" lon="1.64605">
        <ele>282.77</ele>
        <time>2021-08-17T10:38:45Z</time>
      </trkpt>
      <trkpt lat="44.40094" lon="1.64607">
        <ele>282.77</ele>
        <time>2021-08-17T10:39:12Z</time>
      </trkpt>
      <trkpt lat="44.40093" lon="1.64609">
        <ele>282.77</ele>
        <time>2021-08-17T10:39:25Z</time>
      </trkpt>
      <trkpt lat="44.40092" lon="1.64609">
        <ele>282.77</ele>
        <time>2021-08-17T10:39:28Z</time>
      </trkpt>
      <trkpt lat="44.40093" lon="1.6461">
        <ele>282.28</ele>
        <time>2021-08-17T10:39:35Z</time>
      </trkpt>
      <trkpt lat="44.40092" lon="1.64611">
        <ele>282.28</ele>
        <time>2021-08-17T10:40:02Z</time>
      </trkpt>
      <trkpt lat="44.40091" lon="1.64609">
        <ele>282.28</ele>
        <time>2021-08-17T10:40:19Z</time>
      </trkpt>
      <trkpt lat="44.40092" lon="1.64611">
        <ele>282.28</ele>
        <time>2021-08-17T10:40:41Z</time>
      </trkpt>
      <trkpt lat="44.40093" lon="1.6461">
        <ele>282.28</ele>
        <time>2021-08-17T10:40:58Z</time>
      </trkpt>
      <trkpt lat="44.40092" lon="1.64612">
        <ele>282.28</ele>
        <time>2021-08-17T10:41:20Z</time>
      </trkpt>
      <trkpt lat="44.40093" lon="1.64611">
        <ele>282.28</ele>
        <time>2021-08-17T10:41:32Z</time>
      </trkpt>
      <trkpt lat="44.40092" lon="1.64609">
        <ele>282.28</ele>
        <time>2021-08-17T10:41:44Z</time>
      </trkpt>
      <trkpt lat="44.40092" lon="1.6461">
        <ele>282.28</ele>
        <time>2021-08-17T10:41:57Z</time>
      </trkpt>
      <trkpt lat="44.40094" lon="1.64607">
        <ele>281.8</ele>
        <time>2021-08-17T10:42:12Z</time>
      </trkpt>
      <trkpt lat="44.40097" lon="1.64605">
        <ele>281.8</ele>
        <time>2021-08-17T10:42:22Z</time>
      </trkpt>
      <trkpt lat="44.40097" lon="1.64604">
        <ele>281.8</ele>
        <time>2021-08-17T10:42:39Z</time>
      </trkpt>
      <trkpt lat="44.40094" lon="1.64607">
        <ele>281.8</ele>
        <time>2021-08-17T10:42:55Z</time>
      </trkpt>
      <trkpt lat="44.40091" lon="1.64609">
        <ele>282.28</ele>
        <time>2021-08-17T10:43:09Z</time>
      </trkpt>
      <trkpt lat="44.40093" lon="1.64611">
        <ele>281.8</ele>
        <time>2021-08-17T10:43:23Z</time>
      </trkpt>
      <trkpt lat="44.40094" lon="1.6461">
        <ele>281.8</ele>
        <time>2021-08-17T10:43:42Z</time>
      </trkpt>
      <trkpt lat="44.40094" lon="1.6461">
        <ele>281.8</ele>
        <time>2021-08-17T10:43:53Z</time>
      </trkpt>
      <trkpt lat="44.40093" lon="1.64609">
        <ele>281.8</ele>
        <time>2021-08-17T10:44:03Z</time>
      </trkpt>
      <trkpt lat="44.40094" lon="1.64607">
        <ele>281.8</ele>
        <time>2021-08-17T10:44:18Z</time>
      </trkpt>
      <trkpt lat="44.40094" lon="1.64608">
        <ele>281.8</ele>
        <time>2021-08-17T10:44:28Z</time>
      </trkpt>
      <trkpt lat="44.40091" lon="1.64611">
        <ele>281.8</ele>
        <time>2021-08-17T10:44:36Z</time>
      </trkpt>
      <trkpt lat="44.40089" lon="1.6461">
        <ele>281.8</ele>
        <time>2021-08-17T10:44:46Z</time>
      </trkpt>
      <trkpt lat="44.4009" lon="1.6461">
        <ele>281.8</ele>
        <time>2021-08-17T10:44:58Z</time>
      </trkpt>
      <trkpt lat="44.4009" lon="1.64611">
        <ele>281.32</ele>
        <time>2021-08-17T10:45:11Z</time>
      </trkpt>
      <trkpt lat="44.40091" lon="1.64611">
        <ele>281.32</ele>
        <time>2021-08-17T10:45:25Z</time>
      </trkpt>
      <trkpt lat="44.40091" lon="1.64611">
        <ele>281.32</ele>
        <time>2021-08-17T10:45:40Z</time>
      </trkpt>
      <trkpt lat="44.40089" lon="1.64609">
        <ele>281.32</ele>
        <time>2021-08-17T10:45:57Z</time>
      </trkpt>
      <trkpt lat="44.40089" lon="1.64608">
        <ele>281.32</ele>
        <time>2021-08-17T10:46:08Z</time>
      </trkpt>
      <trkpt lat="44.40088" lon="1.64611">
        <ele>281.32</ele>
        <time>2021-08-17T10:46:27Z</time>
      </trkpt>
      <trkpt lat="44.40087" lon="1.64615">
        <ele>281.32</ele>
        <time>2021-08-17T10:46:45Z</time>
      </trkpt>
      <trkpt lat="44.40092" lon="1.64615">
        <ele>281.32</ele>
        <time>2021-08-17T10:47:05Z</time>
      </trkpt>
      <trkpt lat="44.40096" lon="1.6461">
        <ele>281.32</ele>
        <time>2021-08-17T10:47:24Z</time>
      </trkpt>
      <trkpt lat="44.40097" lon="1.6461">
        <ele>281.32</ele>
        <time>2021-08-17T10:47:43Z</time>
      </trkpt>
      <trkpt lat="44.40098" lon="1.64611">
        <ele>281.32</ele>
        <time>2021-08-17T10:47:59Z</time>
      </trkpt>
      <trkpt lat="44.40096" lon="1.64612">
        <ele>281.8</ele>
        <time>2021-08-17T10:48:24Z</time>
      </trkpt>
      <trkpt lat="44.40096" lon="1.64611">
        <ele>281.8</ele>
        <time>2021-08-17T10:48:46Z</time>
      </trkpt>
      <trkpt lat="44.40096" lon="1.64612">
        <ele>281.8</ele>
        <time>2021-08-17T10:49:06Z</time>
      </trkpt>
      <trkpt lat="44.40094" lon="1.64608">
        <ele>281.8</ele>
        <time>2021-08-17T10:49:12Z</time>
      </trkpt>
      <trkpt lat="44.40094" lon="1.64606">
        <ele>281.8</ele>
        <time>2021-08-17T10:49:25Z</time>
      </trkpt>
      <trkpt lat="44.40094" lon="1.64604">
        <ele>281.8</ele>
        <time>2021-08-17T10:49:41Z</time>
      </trkpt>
      <trkpt lat="44.40096" lon="1.64607">
        <ele>281.8</ele>
        <time>2021-08-17T10:49:47Z</time>
      </trkpt>
      <trkpt lat="44.40094" lon="1.64606">
        <ele>281.8</ele>
        <time>2021-08-17T10:49:58Z</time>
      </trkpt>
      <trkpt lat="44.40094" lon="1.64605">
        <ele>281.8</ele>
        <time>2021-08-17T10:50:01Z</time>
      </trkpt>
      <trkpt lat="44.40093" lon="1.64603">
        <ele>281.8</ele>
        <time>2021-08-17T10:50:02Z</time>
      </trkpt>
      <trkpt lat="44.40092" lon="1.64602">
        <ele>281.8</ele>
        <time>2021-08-17T10:50:03Z</time>
      </trkpt>
      <trkpt lat="44.4009" lon="1.64602">
        <ele>281.8</ele>
        <time>2021-08-17T10:50:04Z</time>
      </trkpt>
      <trkpt lat="44.40089" lon="1.64603">
        <ele>281.8</ele>
        <time>2021-08-17T10:50:05Z</time>
      </trkpt>
      <trkpt lat="44.40088" lon="1.64605">
        <ele>281.8</ele>
        <time>2021-08-17T10:50:06Z</time>
      </trkpt>
      <trkpt lat="44.40086" lon="1.64608">
        <ele>281.8</ele>
        <time>2021-08-17T10:50:07Z</time>
      </trkpt>
      <trkpt lat="44.40084" lon="1.64611">
        <ele>281.8</ele>
        <time>2021-08-17T10:50:08Z</time>
      </trkpt>
      <trkpt lat="44.40082" lon="1.64612">
        <ele>281.8</ele>
        <time>2021-08-17T10:50:09Z</time>
      </trkpt>
      <trkpt lat="44.40079" lon="1.64613">
        <ele>281.8</ele>
        <time>2021-08-17T10:50:10Z</time>
      </trkpt>
      <trkpt lat="44.40076" lon="1.64613">
        <ele>281.8</ele>
        <time>2021-08-17T10:50:11Z</time>
      </trkpt>
      <trkpt lat="44.40074" lon="1.64613">
        <ele>281.8</ele>
        <time>2021-08-17T10:50:12Z</time>
      </trkpt>
      <trkpt lat="44.40069" lon="1.64614">
        <ele>281.8</ele>
        <time>2021-08-17T10:50:14Z</time>
      </trkpt>
      <trkpt lat="44.40065" lon="1.64616">
        <ele>281.8</ele>
        <time>2021-08-17T10:50:19Z</time>
      </trkpt>
      <trkpt lat="44.40063" lon="1.64616">
        <ele>281.8</ele>
        <time>2021-08-17T10:50:20Z</time>
      </trkpt>
      <trkpt lat="44.40061" lon="1.64618">
        <ele>281.8</ele>
        <time>2021-08-17T10:50:21Z</time>
      </trkpt>
      <trkpt lat="44.40053" lon="1.64635">
        <ele>281.8</ele>
        <time>2021-08-17T10:50:28Z</time>
      </trkpt>
      <trkpt lat="44.40048" lon="1.64656">
        <ele>281.8</ele>
        <time>2021-08-17T10:50:34Z</time>
      </trkpt>
      <trkpt lat="44.40039" lon="1.64688">
        <ele>282.28</ele>
        <time>2021-08-17T10:50:42Z</time>
      </trkpt>
      <trkpt lat="44.40028" lon="1.64717">
        <ele>282.28</ele>
        <time>2021-08-17T10:50:49Z</time>
      </trkpt>
      <trkpt lat="44.40013" lon="1.6475">
        <ele>281.8</ele>
        <time>2021-08-17T10:50:57Z</time>
      </trkpt>
      <trkpt lat="44.39989" lon="1.64792">
        <ele>281.8</ele>
        <time>2021-08-17T10:51:06Z</time>
      </trkpt>
      <trkpt lat="44.3998" lon="1.64809">
        <ele>280.84</ele>
        <time>2021-08-17T10:51:09Z</time>
      </trkpt>
      <trkpt lat="44.39958" lon="1.64861">
        <ele>279.88</ele>
        <time>2021-08-17T10:51:18Z</time>
      </trkpt>
      <trkpt lat="44.39955" lon="1.64867">
        <ele>279.88</ele>
        <time>2021-08-17T10:51:19Z</time>
      </trkpt>
      <trkpt lat="44.39951" lon="1.64873">
        <ele>279.88</ele>
        <time>2021-08-17T10:51:20Z</time>
      </trkpt>
      <trkpt lat="44.39948" lon="1.64877">
        <ele>279.88</ele>
        <time>2021-08-17T10:51:21Z</time>
      </trkpt>
      <trkpt lat="44.39943" lon="1.64881">
        <ele>279.4</ele>
        <time>2021-08-17T10:51:22Z</time>
      </trkpt>
      <trkpt lat="44.39939" lon="1.64886">
        <ele>279.4</ele>
        <time>2021-08-17T10:51:23Z</time>
      </trkpt>
      <trkpt lat="44.39913" lon="1.64916">
        <ele>278.44</ele>
        <time>2021-08-17T10:51:29Z</time>
      </trkpt>
      <trkpt lat="44.39897" lon="1.64927">
        <ele>277.48</ele>
        <time>2021-08-17T10:51:32Z</time>
      </trkpt>
      <trkpt lat="44.39843" lon="1.64942">
        <ele>276.04</ele>
        <time>2021-08-17T10:51:40Z</time>
      </trkpt>
      <trkpt lat="44.39838" lon="1.64942">
        <ele>275.56</ele>
        <time>2021-08-17T10:51:41Z</time>
      </trkpt>
      <trkpt lat="44.3978" lon="1.6493">
        <ele>272.19</ele>
        <time>2021-08-17T10:51:49Z</time>
      </trkpt>
      <trkpt lat="44.39774" lon="1.64926">
        <ele>272.19</ele>
        <time>2021-08-17T10:51:50Z</time>
      </trkpt>
      <trkpt lat="44.39726" lon="1.64893">
        <ele>269.79</ele>
        <time>2021-08-17T10:51:58Z</time>
      </trkpt>
      <trkpt lat="44.39668" lon="1.64864">
        <ele>266.9</ele>
        <time>2021-08-17T10:52:06Z</time>
      </trkpt>
      <trkpt lat="44.39639" lon="1.6485">
        <ele>264.98</ele>
        <time>2021-08-17T10:52:10Z</time>
      </trkpt>
      <trkpt lat="44.39577" lon="1.64813">
        <ele>262.1</ele>
        <time>2021-08-17T10:52:18Z</time>
      </trkpt>
      <trkpt lat="44.39526" lon="1.6477">
        <ele>259.69</ele>
        <time>2021-08-17T10:52:25Z</time>
      </trkpt>
      <trkpt lat="44.3947" lon="1.64715">
        <ele>257.29</ele>
        <time>2021-08-17T10:52:33Z</time>
      </trkpt>
      <trkpt lat="44.39416" lon="1.64661">
        <ele>254.41</ele>
        <time>2021-08-17T10:52:41Z</time>
      </trkpt>
      <trkpt lat="44.39402" lon="1.6465">
        <ele>253.93</ele>
        <time>2021-08-17T10:52:43Z</time>
      </trkpt>
      <trkpt lat="44.39394" lon="1.64646">
        <ele>253.93</ele>
        <time>2021-08-17T10:52:44Z</time>
      </trkpt>
      <trkpt lat="44.39386" lon="1.64644">
        <ele>252.96</ele>
        <time>2021-08-17T10:52:45Z</time>
      </trkpt>
      <trkpt lat="44.39355" lon="1.64635">
        <ele>251.04</ele>
        <time>2021-08-17T10:52:49Z</time>
      </trkpt>
      <trkpt lat="44.3931" lon="1.64622">
        <ele>250.08</ele>
        <time>2021-08-17T10:52:55Z</time>
      </trkpt>
      <trkpt lat="44.39253" lon="1.64621">
        <ele>248.16</ele>
        <time>2021-08-17T10:53:03Z</time>
      </trkpt>
      <trkpt lat="44.39205" lon="1.64624">
        <ele>248.64</ele>
        <time>2021-08-17T10:53:11Z</time>
      </trkpt>
      <trkpt lat="44.39196" lon="1.64626">
        <ele>249.6</ele>
        <time>2021-08-17T10:53:13Z</time>
      </trkpt>
      <trkpt lat="44.39191" lon="1.64627">
        <ele>249.6</ele>
        <time>2021-08-17T10:53:14Z</time>
      </trkpt>
      <trkpt lat="44.39161" lon="1.6463">
        <ele>251.04</ele>
        <time>2021-08-17T10:53:22Z</time>
      </trkpt>
      <trkpt lat="44.39127" lon="1.64629">
        <ele>251.52</ele>
        <time>2021-08-17T10:53:32Z</time>
      </trkpt>
      <trkpt lat="44.39098" lon="1.64629">
        <ele>252</ele>
        <time>2021-08-17T10:53:41Z</time>
      </trkpt>
      <trkpt lat="44.39069" lon="1.64628">
        <ele>252.48</ele>
        <time>2021-08-17T10:53:50Z</time>
      </trkpt>
      <trkpt lat="44.39029" lon="1.64628">
        <ele>253.44</ele>
        <time>2021-08-17T10:54:02Z</time>
      </trkpt>
      <trkpt lat="44.39007" lon="1.64625">
        <ele>253.44</ele>
        <time>2021-08-17T10:54:09Z</time>
      </trkpt>
      <trkpt lat="44.38974" lon="1.64619">
        <ele>254.41</ele>
        <time>2021-08-17T10:54:19Z</time>
      </trkpt>
      <trkpt lat="44.38953" lon="1.64613">
        <ele>254.41</ele>
        <time>2021-08-17T10:54:26Z</time>
      </trkpt>
      <trkpt lat="44.38927" lon="1.64606">
        <ele>254.89</ele>
        <time>2021-08-17T10:54:34Z</time>
      </trkpt>
      <trkpt lat="44.38906" lon="1.64601">
        <ele>254.89</ele>
        <time>2021-08-17T10:54:40Z</time>
      </trkpt>
      <trkpt lat="44.3887" lon="1.64585">
        <ele>255.85</ele>
        <time>2021-08-17T10:54:51Z</time>
      </trkpt>
      <trkpt lat="44.38847" lon="1.64576">
        <ele>256.33</ele>
        <time>2021-08-17T10:54:59Z</time>
      </trkpt>
      <trkpt lat="44.38814" lon="1.64568">
        <ele>256.81</ele>
        <time>2021-08-17T10:55:09Z</time>
      </trkpt>
      <trkpt lat="44.38788" lon="1.64564">
        <ele>256.81</ele>
        <time>2021-08-17T10:55:16Z</time>
      </trkpt>
      <trkpt lat="44.38768" lon="1.64563">
        <ele>256.81</ele>
        <time>2021-08-17T10:55:21Z</time>
      </trkpt>
      <trkpt lat="44.38741" lon="1.64571">
        <ele>257.77</ele>
        <time>2021-08-17T10:55:28Z</time>
      </trkpt>
      <trkpt lat="44.38707" lon="1.64585">
        <ele>258.25</ele>
        <time>2021-08-17T10:55:38Z</time>
      </trkpt>
      <trkpt lat="44.38685" lon="1.64601">
        <ele>259.21</ele>
        <time>2021-08-17T10:55:46Z</time>
      </trkpt>
      <trkpt lat="44.38671" lon="1.64609">
        <ele>260.17</ele>
        <time>2021-08-17T10:55:52Z</time>
      </trkpt>
      <trkpt lat="44.38654" lon="1.64616">
        <ele>261.14</ele>
        <time>2021-08-17T10:56:02Z</time>
      </trkpt>
      <trkpt lat="44.38633" lon="1.64629">
        <ele>262.1</ele>
        <time>2021-08-17T10:56:13Z</time>
      </trkpt>
      <trkpt lat="44.38618" lon="1.64639">
        <ele>262.58</ele>
        <time>2021-08-17T10:56:20Z</time>
      </trkpt>
      <trkpt lat="44.38602" lon="1.64651">
        <ele>263.54</ele>
        <time>2021-08-17T10:56:28Z</time>
      </trkpt>
      <trkpt lat="44.38583" lon="1.64663">
        <ele>264.02</ele>
        <time>2021-08-17T10:56:36Z</time>
      </trkpt>
      <trkpt lat="44.38564" lon="1.64675">
        <ele>264.98</ele>
        <time>2021-08-17T10:56:43Z</time>
      </trkpt>
      <trkpt lat="44.38546" lon="1.64689">
        <ele>265.46</ele>
        <time>2021-08-17T10:56:51Z</time>
      </trkpt>
      <trkpt lat="44.38529" lon="1.64702">
        <ele>265.94</ele>
        <time>2021-08-17T10:56:58Z</time>
      </trkpt>
      <trkpt lat="44.3851" lon="1.64712">
        <ele>266.9</ele>
        <time>2021-08-17T10:57:05Z</time>
      </trkpt>
      <trkpt lat="44.38487" lon="1.64727">
        <ele>266.9</ele>
        <time>2021-08-17T10:57:13Z</time>
      </trkpt>
      <trkpt lat="44.38457" lon="1.64745">
        <ele>267.38</ele>
        <time>2021-08-17T10:57:23Z</time>
      </trkpt>
      <trkpt lat="44.38429" lon="1.64758">
        <ele>267.38</ele>
        <time>2021-08-17T10:57:31Z</time>
      </trkpt>
      <trkpt lat="44.38395" lon="1.64765">
        <ele>267.38</ele>
        <time>2021-08-17T10:57:40Z</time>
      </trkpt>
      <trkpt lat="44.38367" lon="1.6478">
        <ele>268.35</ele>
        <time>2021-08-17T10:57:49Z</time>
      </trkpt>
      <trkpt lat="44.38347" lon="1.64791">
        <ele>269.31</ele>
        <time>2021-08-17T10:57:58Z</time>
      </trkpt>
      <trkpt lat="44.38331" lon="1.648">
        <ele>270.27</ele>
        <time>2021-08-17T10:58:06Z</time>
      </trkpt>
      <trkpt lat="44.3831" lon="1.64808">
        <ele>271.71</ele>
        <time>2021-08-17T10:58:15Z</time>
      </trkpt>
      <trkpt lat="44.38291" lon="1.64813">
        <ele>273.15</ele>
        <time>2021-08-17T10:58:23Z</time>
      </trkpt>
      <trkpt lat="44.38267" lon="1.6482">
        <ele>273.15</ele>
        <time>2021-08-17T10:58:32Z</time>
      </trkpt>
      <trkpt lat="44.38242" lon="1.64827">
        <ele>274.59</ele>
        <time>2021-08-17T10:58:41Z</time>
      </trkpt>
      <trkpt lat="44.38221" lon="1.64836">
        <ele>275.07</ele>
        <time>2021-08-17T10:58:49Z</time>
      </trkpt>
      <trkpt lat="44.38202" lon="1.64845">
        <ele>275.56</ele>
        <time>2021-08-17T10:58:56Z</time>
      </trkpt>
      <trkpt lat="44.38181" lon="1.64858">
        <ele>276.52</ele>
        <time>2021-08-17T10:59:04Z</time>
      </trkpt>
      <trkpt lat="44.3817" lon="1.64868">
        <ele>277</ele>
        <time>2021-08-17T10:59:09Z</time>
      </trkpt>
      <trkpt lat="44.38146" lon="1.64891">
        <ele>277.48</ele>
        <time>2021-08-17T10:59:18Z</time>
      </trkpt>
      <trkpt lat="44.38116" lon="1.64909">
        <ele>278.44</ele>
        <time>2021-08-17T10:59:29Z</time>
      </trkpt>
      <trkpt lat="44.38085" lon="1.6492">
        <ele>279.4</ele>
        <time>2021-08-17T10:59:40Z</time>
      </trkpt>
      <trkpt lat="44.38064" lon="1.64925">
        <ele>279.88</ele>
        <time>2021-08-17T10:59:48Z</time>
      </trkpt>
      <trkpt lat="44.38035" lon="1.64932">
        <ele>280.84</ele>
        <time>2021-08-17T10:59:58Z</time>
      </trkpt>
      <trkpt lat="44.38018" lon="1.64933">
        <ele>281.8</ele>
        <time>2021-08-17T11:00:06Z</time>
      </trkpt>
      <trkpt lat="44.38008" lon="1.64932">
        <ele>282.28</ele>
        <time>2021-08-17T11:00:12Z</time>
      </trkpt>
      <trkpt lat="44.37993" lon="1.64932">
        <ele>283.73</ele>
        <time>2021-08-17T11:00:21Z</time>
      </trkpt>
      <trkpt lat="44.37978" lon="1.64926">
        <ele>284.69</ele>
        <time>2021-08-17T11:00:30Z</time>
      </trkpt>
      <trkpt lat="44.37966" lon="1.64919">
        <ele>285.65</ele>
        <time>2021-08-17T11:00:38Z</time>
      </trkpt>
      <trkpt lat="44.37951" lon="1.64914">
        <ele>287.57</ele>
        <time>2021-08-17T11:00:47Z</time>
      </trkpt>
      <trkpt lat="44.37938" lon="1.64909">
        <ele>288.53</ele>
        <time>2021-08-17T11:00:55Z</time>
      </trkpt>
      <trkpt lat="44.37927" lon="1.64903">
        <ele>288.53</ele>
        <time>2021-08-17T11:01:02Z</time>
      </trkpt>
      <trkpt lat="44.37912" lon="1.64896">
        <ele>289.97</ele>
        <time>2021-08-17T11:01:10Z</time>
      </trkpt>
      <trkpt lat="44.37899" lon="1.64891">
        <ele>290.94</ele>
        <time>2021-08-17T11:01:17Z</time>
      </trkpt>
      <trkpt lat="44.37884" lon="1.64885">
        <ele>291.42</ele>
        <time>2021-08-17T11:01:26Z</time>
      </trkpt>
      <trkpt lat="44.37869" lon="1.6488">
        <ele>292.38</ele>
        <time>2021-08-17T11:01:34Z</time>
      </trkpt>
      <trkpt lat="44.37848" lon="1.64878">
        <ele>293.82</ele>
        <time>2021-08-17T11:01:45Z</time>
      </trkpt>
      <trkpt lat="44.37831" lon="1.64884">
        <ele>294.78</ele>
        <time>2021-08-17T11:01:53Z</time>
      </trkpt>
      <trkpt lat="44.37813" lon="1.6489">
        <ele>295.26</ele>
        <time>2021-08-17T11:02:01Z</time>
      </trkpt>
      <trkpt lat="44.37783" lon="1.64887">
        <ele>296.22</ele>
        <time>2021-08-17T11:02:11Z</time>
      </trkpt>
      <trkpt lat="44.37756" lon="1.64891">
        <ele>296.7</ele>
        <time>2021-08-17T11:02:19Z</time>
      </trkpt>
      <trkpt lat="44.37726" lon="1.64893">
        <ele>296.7</ele>
        <time>2021-08-17T11:02:27Z</time>
      </trkpt>
      <trkpt lat="44.37701" lon="1.64897">
        <ele>296.7</ele>
        <time>2021-08-17T11:02:33Z</time>
      </trkpt>
      <trkpt lat="44.3767" lon="1.64899">
        <ele>297.18</ele>
        <time>2021-08-17T11:02:41Z</time>
      </trkpt>
      <trkpt lat="44.37634" lon="1.649">
        <ele>298.15</ele>
        <time>2021-08-17T11:02:50Z</time>
      </trkpt>
      <trkpt lat="44.37601" lon="1.64898">
        <ele>298.63</ele>
        <time>2021-08-17T11:02:59Z</time>
      </trkpt>
      <trkpt lat="44.3758" lon="1.64896">
        <ele>298.63</ele>
        <time>2021-08-17T11:03:06Z</time>
      </trkpt>
      <trkpt lat="44.37555" lon="1.64898">
        <ele>298.63</ele>
        <time>2021-08-17T11:03:13Z</time>
      </trkpt>
      <trkpt lat="44.37534" lon="1.64898">
        <ele>298.63</ele>
        <time>2021-08-17T11:03:19Z</time>
      </trkpt>
      <trkpt lat="44.3751" lon="1.64891">
        <ele>298.63</ele>
        <time>2021-08-17T11:03:26Z</time>
      </trkpt>
      <trkpt lat="44.37489" lon="1.64885">
        <ele>297.67</ele>
        <time>2021-08-17T11:03:32Z</time>
      </trkpt>
      <trkpt lat="44.37459" lon="1.64874">
        <ele>297.18</ele>
        <time>2021-08-17T11:03:40Z</time>
      </trkpt>
      <trkpt lat="44.37448" lon="1.64869">
        <ele>296.7</ele>
        <time>2021-08-17T11:03:43Z</time>
      </trkpt>
      <trkpt lat="44.37408" lon="1.64851">
        <ele>294.3</ele>
        <time>2021-08-17T11:03:52Z</time>
      </trkpt>
      <trkpt lat="44.37403" lon="1.64851">
        <ele>294.3</ele>
        <time>2021-08-17T11:03:53Z</time>
      </trkpt>
      <trkpt lat="44.37398" lon="1.64851">
        <ele>294.3</ele>
        <time>2021-08-17T11:03:54Z</time>
      </trkpt>
      <trkpt lat="44.37346" lon="1.64854">
        <ele>292.86</ele>
        <time>2021-08-17T11:04:04Z</time>
      </trkpt>
      <trkpt lat="44.37308" lon="1.64851">
        <ele>290.46</ele>
        <time>2021-08-17T11:04:10Z</time>
      </trkpt>
      <trkpt lat="44.37265" lon="1.64831">
        <ele>289.49</ele>
        <time>2021-08-17T11:04:17Z</time>
      </trkpt>
      <trkpt lat="44.37214" lon="1.6481">
        <ele>287.57</ele>
        <time>2021-08-17T11:04:26Z</time>
      </trkpt>
      <trkpt lat="44.37189" lon="1.648">
        <ele>286.13</ele>
        <time>2021-08-17T11:04:30Z</time>
      </trkpt>
      <trkpt lat="44.37156" lon="1.64782">
        <ele>286.13</ele>
        <time>2021-08-17T11:04:37Z</time>
      </trkpt>
      <trkpt lat="44.37142" lon="1.64776">
        <ele>286.13</ele>
        <time>2021-08-17T11:04:42Z</time>
      </trkpt>
      <trkpt lat="44.37106" lon="1.64763">
        <ele>286.13</ele>
        <time>2021-08-17T11:04:50Z</time>
      </trkpt>
      <trkpt lat="44.37091" lon="1.64759">
        <ele>285.65</ele>
        <time>2021-08-17T11:04:53Z</time>
      </trkpt>
      <trkpt lat="44.37086" lon="1.64757">
        <ele>285.65</ele>
        <time>2021-08-17T11:04:54Z</time>
      </trkpt>
      <trkpt lat="44.37055" lon="1.64744">
        <ele>283.25</ele>
        <time>2021-08-17T11:04:59Z</time>
      </trkpt>
      <trkpt lat="44.37025" lon="1.64734">
        <ele>279.88</ele>
        <time>2021-08-17T11:05:03Z</time>
      </trkpt>
      <trkpt lat="44.36985" lon="1.64711">
        <ele>278.92</ele>
        <time>2021-08-17T11:05:09Z</time>
      </trkpt>
      <trkpt lat="44.36958" lon="1.64685">
        <ele>276.04</ele>
        <time>2021-08-17T11:05:15Z</time>
      </trkpt>
      <trkpt lat="44.36952" lon="1.64682">
        <ele>275.07</ele>
        <time>2021-08-17T11:05:16Z</time>
      </trkpt>
      <trkpt lat="44.36947" lon="1.64679">
        <ele>274.59</ele>
        <time>2021-08-17T11:05:17Z</time>
      </trkpt>
      <trkpt lat="44.36936" lon="1.64675">
        <ele>273.63</ele>
        <time>2021-08-17T11:05:19Z</time>
      </trkpt>
      <trkpt lat="44.36915" lon="1.64673">
        <ele>269.79</ele>
        <time>2021-08-17T11:05:23Z</time>
      </trkpt>
      <trkpt lat="44.36909" lon="1.64674">
        <ele>268.83</ele>
        <time>2021-08-17T11:05:24Z</time>
      </trkpt>
      <trkpt lat="44.36902" lon="1.64676">
        <ele>268.35</ele>
        <time>2021-08-17T11:05:25Z</time>
      </trkpt>
      <trkpt lat="44.36889" lon="1.64683">
        <ele>266.9</ele>
        <time>2021-08-17T11:05:27Z</time>
      </trkpt>
      <trkpt lat="44.36882" lon="1.64688">
        <ele>266.9</ele>
        <time>2021-08-17T11:05:28Z</time>
      </trkpt>
      <trkpt lat="44.36863" lon="1.647">
        <ele>264.98</ele>
        <time>2021-08-17T11:05:31Z</time>
      </trkpt>
      <trkpt lat="44.36855" lon="1.64703">
        <ele>264.98</ele>
        <time>2021-08-17T11:05:32Z</time>
      </trkpt>
      <trkpt lat="44.36849" lon="1.64704">
        <ele>265.94</ele>
        <time>2021-08-17T11:05:33Z</time>
      </trkpt>
      <trkpt lat="44.36842" lon="1.64705">
        <ele>265.94</ele>
        <time>2021-08-17T11:05:34Z</time>
      </trkpt>
      <trkpt lat="44.36836" lon="1.64704">
        <ele>265.94</ele>
        <time>2021-08-17T11:05:35Z</time>
      </trkpt>
      <trkpt lat="44.36822" lon="1.64701">
        <ele>267.38</ele>
        <time>2021-08-17T11:05:39Z</time>
      </trkpt>
      <trkpt lat="44.36817" lon="1.64699">
        <ele>268.83</ele>
        <time>2021-08-17T11:05:45Z</time>
      </trkpt>
      <trkpt lat="44.36811" lon="1.64701">
        <ele>269.31</ele>
        <time>2021-08-17T11:05:55Z</time>
      </trkpt>
      <trkpt lat="44.3681" lon="1.64704">
        <ele>269.31</ele>
        <time>2021-08-17T11:05:58Z</time>
      </trkpt>
      <trkpt lat="44.36809" lon="1.64705">
        <ele>269.79</ele>
        <time>2021-08-17T11:05:59Z</time>
      </trkpt>
      <trkpt lat="44.36808" lon="1.64706">
        <ele>269.79</ele>
        <time>2021-08-17T11:06:00Z</time>
      </trkpt>
      <trkpt lat="44.36807" lon="1.64708">
        <ele>269.79</ele>
        <time>2021-08-17T11:06:01Z</time>
      </trkpt>
      <trkpt lat="44.36805" lon="1.6471">
        <ele>270.27</ele>
        <time>2021-08-17T11:06:03Z</time>
      </trkpt>
      <trkpt lat="44.36804" lon="1.64711">
        <ele>270.27</ele>
        <time>2021-08-17T11:06:04Z</time>
      </trkpt>
      <trkpt lat="44.36803" lon="1.64712">
        <ele>270.75</ele>
        <time>2021-08-17T11:06:05Z</time>
      </trkpt>
      <trkpt lat="44.36802" lon="1.64714">
        <ele>270.75</ele>
        <time>2021-08-17T11:06:06Z</time>
      </trkpt>
      <trkpt lat="44.368" lon="1.64715">
        <ele>270.75</ele>
        <time>2021-08-17T11:06:07Z</time>
      </trkpt>
      <trkpt lat="44.36799" lon="1.64715">
        <ele>270.75</ele>
        <time>2021-08-17T11:06:08Z</time>
      </trkpt>
      <trkpt lat="44.36797" lon="1.64716">
        <ele>270.75</ele>
        <time>2021-08-17T11:06:09Z</time>
      </trkpt>
      <trkpt lat="44.36795" lon="1.64716">
        <ele>271.23</ele>
        <time>2021-08-17T11:06:10Z</time>
      </trkpt>
      <trkpt lat="44.36777" lon="1.6472">
        <ele>272.19</ele>
        <time>2021-08-17T11:06:19Z</time>
      </trkpt>
      <trkpt lat="44.36759" lon="1.64726">
        <ele>273.63</ele>
        <time>2021-08-17T11:06:27Z</time>
      </trkpt>
      <trkpt lat="44.36744" lon="1.64723">
        <ele>274.11</ele>
        <time>2021-08-17T11:06:34Z</time>
      </trkpt>
      <trkpt lat="44.36731" lon="1.64716">
        <ele>275.07</ele>
        <time>2021-08-17T11:06:41Z</time>
      </trkpt>
      <trkpt lat="44.36714" lon="1.64704">
        <ele>276.04</ele>
        <time>2021-08-17T11:06:50Z</time>
      </trkpt>
      <trkpt lat="44.36698" lon="1.64692">
        <ele>277</ele>
        <time>2021-08-17T11:06:59Z</time>
      </trkpt>
      <trkpt lat="44.3668" lon="1.64682">
        <ele>278.44</ele>
        <time>2021-08-17T11:07:08Z</time>
      </trkpt>
      <trkpt lat="44.36662" lon="1.64669">
        <ele>279.4</ele>
        <time>2021-08-17T11:07:17Z</time>
      </trkpt>
      <trkpt lat="44.36643" lon="1.64654">
        <ele>280.36</ele>
        <time>2021-08-17T11:07:27Z</time>
      </trkpt>
      <trkpt lat="44.3663" lon="1.6464">
        <ele>281.32</ele>
        <time>2021-08-17T11:07:35Z</time>
      </trkpt>
      <trkpt lat="44.36617" lon="1.64625">
        <ele>281.8</ele>
        <time>2021-08-17T11:07:43Z</time>
      </trkpt>
      <trkpt lat="44.36606" lon="1.64611">
        <ele>282.77</ele>
        <time>2021-08-17T11:07:50Z</time>
      </trkpt>
      <trkpt lat="44.3659" lon="1.64591">
        <ele>283.73</ele>
        <time>2021-08-17T11:07:59Z</time>
      </trkpt>
      <trkpt lat="44.36581" lon="1.64574">
        <ele>284.69</ele>
        <time>2021-08-17T11:08:06Z</time>
      </trkpt>
      <trkpt lat="44.3656" lon="1.64551">
        <ele>284.69</ele>
        <time>2021-08-17T11:08:14Z</time>
      </trkpt>
      <trkpt lat="44.36533" lon="1.64529">
        <ele>284.69</ele>
        <time>2021-08-17T11:08:23Z</time>
      </trkpt>
      <trkpt lat="44.3651" lon="1.6451">
        <ele>285.65</ele>
        <time>2021-08-17T11:08:30Z</time>
      </trkpt>
      <trkpt lat="44.36487" lon="1.64481">
        <ele>285.65</ele>
        <time>2021-08-17T11:08:38Z</time>
      </trkpt>
      <trkpt lat="44.36455" lon="1.64452">
        <ele>285.65</ele>
        <time>2021-08-17T11:08:46Z</time>
      </trkpt>
      <trkpt lat="44.36445" lon="1.64445">
        <ele>284.69</ele>
        <time>2021-08-17T11:08:48Z</time>
      </trkpt>
      <trkpt lat="44.36431" lon="1.64435">
        <ele>284.21</ele>
        <time>2021-08-17T11:08:51Z</time>
      </trkpt>
      <trkpt lat="44.36428" lon="1.64432">
        <ele>283.73</ele>
        <time>2021-08-17T11:08:52Z</time>
      </trkpt>
      <trkpt lat="44.36425" lon="1.6443">
        <ele>283.73</ele>
        <time>2021-08-17T11:08:53Z</time>
      </trkpt>
      <trkpt lat="44.36423" lon="1.64429">
        <ele>283.73</ele>
        <time>2021-08-17T11:08:54Z</time>
      </trkpt>
      <trkpt lat="44.36422" lon="1.64427">
        <ele>283.73</ele>
        <time>2021-08-17T11:08:55Z</time>
      </trkpt>
      <trkpt lat="44.36408" lon="1.6441">
        <ele>283.25</ele>
        <time>2021-08-17T11:09:00Z</time>
      </trkpt>
      <trkpt lat="44.36404" lon="1.64406">
        <ele>282.28</ele>
        <time>2021-08-17T11:09:01Z</time>
      </trkpt>
      <trkpt lat="44.364" lon="1.64401">
        <ele>282.28</ele>
        <time>2021-08-17T11:09:02Z</time>
      </trkpt>
      <trkpt lat="44.36389" lon="1.64386">
        <ele>281.32</ele>
        <time>2021-08-17T11:09:05Z</time>
      </trkpt>
      <trkpt lat="44.36349" lon="1.64333">
        <ele>279.4</ele>
        <time>2021-08-17T11:09:14Z</time>
      </trkpt>
      <trkpt lat="44.3631" lon="1.64306">
        <ele>276.52</ele>
        <time>2021-08-17T11:09:21Z</time>
      </trkpt>
      <trkpt lat="44.36293" lon="1.643">
        <ele>275.07</ele>
        <time>2021-08-17T11:09:24Z</time>
      </trkpt>
      <trkpt lat="44.36289" lon="1.64296">
        <ele>275.07</ele>
        <time>2021-08-17T11:09:25Z</time>
      </trkpt>
      <trkpt lat="44.36287" lon="1.64293">
        <ele>274.59</ele>
        <time>2021-08-17T11:09:26Z</time>
      </trkpt>
      <trkpt lat="44.36284" lon="1.64289">
        <ele>274.11</ele>
        <time>2021-08-17T11:09:27Z</time>
      </trkpt>
      <trkpt lat="44.3628" lon="1.64287">
        <ele>273.15</ele>
        <time>2021-08-17T11:09:28Z</time>
      </trkpt>
      <trkpt lat="44.36275" lon="1.64284">
        <ele>273.15</ele>
        <time>2021-08-17T11:09:29Z</time>
      </trkpt>
      <trkpt lat="44.36271" lon="1.64284">
        <ele>273.15</ele>
        <time>2021-08-17T11:09:30Z</time>
      </trkpt>
      <trkpt lat="44.36267" lon="1.64285">
        <ele>273.15</ele>
        <time>2021-08-17T11:09:31Z</time>
      </trkpt>
      <trkpt lat="44.36242" lon="1.64297">
        <ele>273.15</ele>
        <time>2021-08-17T11:09:38Z</time>
      </trkpt>
      <trkpt lat="44.36209" lon="1.6431">
        <ele>273.63</ele>
        <time>2021-08-17T11:09:48Z</time>
      </trkpt>
      <trkpt lat="44.36188" lon="1.64321">
        <ele>274.59</ele>
        <time>2021-08-17T11:09:54Z</time>
      </trkpt>
      <trkpt lat="44.36184" lon="1.64323">
        <ele>274.59</ele>
        <time>2021-08-17T11:09:55Z</time>
      </trkpt>
      <trkpt lat="44.36158" lon="1.64341">
        <ele>275.07</ele>
        <time>2021-08-17T11:10:03Z</time>
      </trkpt>
      <trkpt lat="44.36125" lon="1.64359">
        <ele>275.56</ele>
        <time>2021-08-17T11:10:12Z</time>
      </trkpt>
      <trkpt lat="44.36105" lon="1.64367">
        <ele>275.56</ele>
        <time>2021-08-17T11:10:17Z</time>
      </trkpt>
      <trkpt lat="44.361" lon="1.64369">
        <ele>275.56</ele>
        <time>2021-08-17T11:10:18Z</time>
      </trkpt>
      <trkpt lat="44.36096" lon="1.64369">
        <ele>275.56</ele>
        <time>2021-08-17T11:10:19Z</time>
      </trkpt>
      <trkpt lat="44.3607" lon="1.64364">
        <ele>276.52</ele>
        <time>2021-08-17T11:10:26Z</time>
      </trkpt>
      <trkpt lat="44.36047" lon="1.64358">
        <ele>277.96</ele>
        <time>2021-08-17T11:10:34Z</time>
      </trkpt>
      <trkpt lat="44.36029" lon="1.64356">
        <ele>278.92</ele>
        <time>2021-08-17T11:10:41Z</time>
      </trkpt>
      <trkpt lat="44.36006" lon="1.64357">
        <ele>278.92</ele>
        <time>2021-08-17T11:10:49Z</time>
      </trkpt>
      <trkpt lat="44.35974" lon="1.64356">
        <ele>278.92</ele>
        <time>2021-08-17T11:10:57Z</time>
      </trkpt>
      <trkpt lat="44.35942" lon="1.64355">
        <ele>276.04</ele>
        <time>2021-08-17T11:11:03Z</time>
      </trkpt>
      <trkpt lat="44.35935" lon="1.64357">
        <ele>276.04</ele>
        <time>2021-08-17T11:11:04Z</time>
      </trkpt>
      <trkpt lat="44.35903" lon="1.6437">
        <ele>275.56</ele>
        <time>2021-08-17T11:11:09Z</time>
      </trkpt>
      <trkpt lat="44.35876" lon="1.64377">
        <ele>275.56</ele>
        <time>2021-08-17T11:11:14Z</time>
      </trkpt>
      <trkpt lat="44.35871" lon="1.64378">
        <ele>275.56</ele>
        <time>2021-08-17T11:11:15Z</time>
      </trkpt>
      <trkpt lat="44.35866" lon="1.64378">
        <ele>275.56</ele>
        <time>2021-08-17T11:11:16Z</time>
      </trkpt>
      <trkpt lat="44.35862" lon="1.64378">
        <ele>275.56</ele>
        <time>2021-08-17T11:11:17Z</time>
      </trkpt>
      <trkpt lat="44.35858" lon="1.64378">
        <ele>275.56</ele>
        <time>2021-08-17T11:11:18Z</time>
      </trkpt>
      <trkpt lat="44.35836" lon="1.64375">
        <ele>275.56</ele>
        <time>2021-08-17T11:11:24Z</time>
      </trkpt>
      <trkpt lat="44.35799" lon="1.6437">
        <ele>275.56</ele>
        <time>2021-08-17T11:11:34Z</time>
      </trkpt>
      <trkpt lat="44.35766" lon="1.64369">
        <ele>276.52</ele>
        <time>2021-08-17T11:11:43Z</time>
      </trkpt>
      <trkpt lat="44.35737" lon="1.6437">
        <ele>276.52</ele>
        <time>2021-08-17T11:11:51Z</time>
      </trkpt>
      <trkpt lat="44.35709" lon="1.64372">
        <ele>277</ele>
        <time>2021-08-17T11:11:58Z</time>
      </trkpt>
      <trkpt lat="44.35705" lon="1.64373">
        <ele>277</ele>
        <time>2021-08-17T11:11:59Z</time>
      </trkpt>
      <trkpt lat="44.35701" lon="1.64374">
        <ele>277</ele>
        <time>2021-08-17T11:12:00Z</time>
      </trkpt>
      <trkpt lat="44.35696" lon="1.64375">
        <ele>277</ele>
        <time>2021-08-17T11:12:01Z</time>
      </trkpt>
      <trkpt lat="44.35692" lon="1.64376">
        <ele>277</ele>
        <time>2021-08-17T11:12:02Z</time>
      </trkpt>
      <trkpt lat="44.35688" lon="1.64378">
        <ele>277</ele>
        <time>2021-08-17T11:12:03Z</time>
      </trkpt>
      <trkpt lat="44.35684" lon="1.6438">
        <ele>277</ele>
        <time>2021-08-17T11:12:04Z</time>
      </trkpt>
      <trkpt lat="44.35654" lon="1.64396">
        <ele>277</ele>
        <time>2021-08-17T11:12:12Z</time>
      </trkpt>
      <trkpt lat="44.35637" lon="1.64425">
        <ele>277.48</ele>
        <time>2021-08-17T11:12:19Z</time>
      </trkpt>
      <trkpt lat="44.35621" lon="1.64448">
        <ele>277.48</ele>
        <time>2021-08-17T11:12:25Z</time>
      </trkpt>
      <trkpt lat="44.35594" lon="1.64484">
        <ele>277.96</ele>
        <time>2021-08-17T11:12:35Z</time>
      </trkpt>
      <trkpt lat="44.35569" lon="1.64503">
        <ele>278.44</ele>
        <time>2021-08-17T11:12:43Z</time>
      </trkpt>
      <trkpt lat="44.35544" lon="1.64519">
        <ele>279.4</ele>
        <time>2021-08-17T11:12:51Z</time>
      </trkpt>
      <trkpt lat="44.35513" lon="1.64537">
        <ele>279.88</ele>
        <time>2021-08-17T11:13:01Z</time>
      </trkpt>
      <trkpt lat="44.35489" lon="1.64548">
        <ele>280.36</ele>
        <time>2021-08-17T11:13:08Z</time>
      </trkpt>
      <trkpt lat="44.35465" lon="1.64557">
        <ele>280.84</ele>
        <time>2021-08-17T11:13:15Z</time>
      </trkpt>
      <trkpt lat="44.3544" lon="1.64582">
        <ele>281.32</ele>
        <time>2021-08-17T11:13:23Z</time>
      </trkpt>
      <trkpt lat="44.35418" lon="1.64605">
        <ele>281.32</ele>
        <time>2021-08-17T11:13:30Z</time>
      </trkpt>
      <trkpt lat="44.35395" lon="1.64631">
        <ele>282.28</ele>
        <time>2021-08-17T11:13:38Z</time>
      </trkpt>
      <trkpt lat="44.35366" lon="1.64654">
        <ele>282.77</ele>
        <time>2021-08-17T11:13:47Z</time>
      </trkpt>
      <trkpt lat="44.3534" lon="1.64672">
        <ele>282.77</ele>
        <time>2021-08-17T11:13:55Z</time>
      </trkpt>
      <trkpt lat="44.35319" lon="1.64686">
        <ele>283.25</ele>
        <time>2021-08-17T11:14:02Z</time>
      </trkpt>
      <trkpt lat="44.35294" lon="1.64713">
        <ele>283.73</ele>
        <time>2021-08-17T11:14:11Z</time>
      </trkpt>
      <trkpt lat="44.35278" lon="1.64733">
        <ele>284.21</ele>
        <time>2021-08-17T11:14:17Z</time>
      </trkpt>
      <trkpt lat="44.3526" lon="1.64761">
        <ele>284.69</ele>
        <time>2021-08-17T11:14:25Z</time>
      </trkpt>
      <trkpt lat="44.35249" lon="1.64777">
        <ele>285.17</ele>
        <time>2021-08-17T11:14:30Z</time>
      </trkpt>
      <trkpt lat="44.35237" lon="1.64795">
        <ele>285.65</ele>
        <time>2021-08-17T11:14:36Z</time>
      </trkpt>
      <trkpt lat="44.35219" lon="1.64828">
        <ele>286.13</ele>
        <time>2021-08-17T11:14:44Z</time>
      </trkpt>
      <trkpt lat="44.35213" lon="1.64857">
        <ele>286.61</ele>
        <time>2021-08-17T11:14:51Z</time>
      </trkpt>
      <trkpt lat="44.35214" lon="1.64873">
        <ele>287.57</ele>
        <time>2021-08-17T11:14:56Z</time>
      </trkpt>
      <trkpt lat="44.35212" lon="1.64875">
        <ele>288.05</ele>
        <time>2021-08-17T11:14:57Z</time>
      </trkpt>
      <trkpt lat="44.35194" lon="1.64897">
        <ele>288.53</ele>
        <time>2021-08-17T11:15:07Z</time>
      </trkpt>
      <trkpt lat="44.35177" lon="1.64901">
        <ele>288.53</ele>
        <time>2021-08-17T11:15:13Z</time>
      </trkpt>
      <trkpt lat="44.35169" lon="1.64909">
        <ele>289.01</ele>
        <time>2021-08-17T11:15:18Z</time>
      </trkpt>
      <trkpt lat="44.35164" lon="1.64916">
        <ele>289.49</ele>
        <time>2021-08-17T11:15:22Z</time>
      </trkpt>
      <trkpt lat="44.35163" lon="1.64917">
        <ele>289.49</ele>
        <time>2021-08-17T11:15:23Z</time>
      </trkpt>
      <trkpt lat="44.35153" lon="1.64932">
        <ele>289.97</ele>
        <time>2021-08-17T11:15:31Z</time>
      </trkpt>
      <trkpt lat="44.35137" lon="1.64946">
        <ele>291.9</ele>
        <time>2021-08-17T11:15:40Z</time>
      </trkpt>
      <trkpt lat="44.35126" lon="1.6495">
        <ele>292.86</ele>
        <time>2021-08-17T11:15:48Z</time>
      </trkpt>
      <trkpt lat="44.35109" lon="1.64953">
        <ele>293.82</ele>
        <time>2021-08-17T11:15:58Z</time>
      </trkpt>
      <trkpt lat="44.35093" lon="1.64959">
        <ele>294.78</ele>
        <time>2021-08-17T11:16:07Z</time>
      </trkpt>
      <trkpt lat="44.35088" lon="1.64963">
        <ele>294.78</ele>
        <time>2021-08-17T11:16:10Z</time>
      </trkpt>
      <trkpt lat="44.35085" lon="1.64984">
        <ele>295.26</ele>
        <time>2021-08-17T11:16:17Z</time>
      </trkpt>
      <trkpt lat="44.3508" lon="1.65005">
        <ele>295.74</ele>
        <time>2021-08-17T11:16:23Z</time>
      </trkpt>
      <trkpt lat="44.35072" lon="1.65034">
        <ele>295.74</ele>
        <time>2021-08-17T11:16:30Z</time>
      </trkpt>
      <trkpt lat="44.35065" lon="1.65064">
        <ele>296.22</ele>
        <time>2021-08-17T11:16:37Z</time>
      </trkpt>
      <trkpt lat="44.35057" lon="1.651">
        <ele>296.7</ele>
        <time>2021-08-17T11:16:45Z</time>
      </trkpt>
      <trkpt lat="44.35049" lon="1.65134">
        <ele>297.18</ele>
        <time>2021-08-17T11:16:54Z</time>
      </trkpt>
      <trkpt lat="44.35044" lon="1.65155">
        <ele>298.63</ele>
        <time>2021-08-17T11:17:01Z</time>
      </trkpt>
      <trkpt lat="44.35041" lon="1.65173">
        <ele>299.11</ele>
        <time>2021-08-17T11:17:08Z</time>
      </trkpt>
      <trkpt lat="44.35038" lon="1.65191">
        <ele>299.59</ele>
        <time>2021-08-17T11:17:15Z</time>
      </trkpt>
      <trkpt lat="44.35034" lon="1.65213">
        <ele>301.03</ele>
        <time>2021-08-17T11:17:23Z</time>
      </trkpt>
      <trkpt lat="44.35031" lon="1.65235">
        <ele>301.03</ele>
        <time>2021-08-17T11:17:30Z</time>
      </trkpt>
      <trkpt lat="44.35029" lon="1.65256">
        <ele>301.51</ele>
        <time>2021-08-17T11:17:36Z</time>
      </trkpt>
      <trkpt lat="44.35028" lon="1.65283">
        <ele>302.47</ele>
        <time>2021-08-17T11:17:44Z</time>
      </trkpt>
      <trkpt lat="44.35027" lon="1.65322">
        <ele>303.43</ele>
        <time>2021-08-17T11:17:54Z</time>
      </trkpt>
      <trkpt lat="44.35026" lon="1.6535">
        <ele>304.39</ele>
        <time>2021-08-17T11:18:02Z</time>
      </trkpt>
      <trkpt lat="44.35022" lon="1.65375">
        <ele>305.36</ele>
        <time>2021-08-17T11:18:09Z</time>
      </trkpt>
      <trkpt lat="44.35021" lon="1.65401">
        <ele>305.84</ele>
        <time>2021-08-17T11:18:16Z</time>
      </trkpt>
      <trkpt lat="44.35024" lon="1.65433">
        <ele>306.8</ele>
        <time>2021-08-17T11:18:25Z</time>
      </trkpt>
      <trkpt lat="44.35023" lon="1.65457">
        <ele>307.28</ele>
        <time>2021-08-17T11:18:31Z</time>
      </trkpt>
      <trkpt lat="44.35023" lon="1.65496">
        <ele>307.28</ele>
        <time>2021-08-17T11:18:39Z</time>
      </trkpt>
      <trkpt lat="44.35021" lon="1.65531">
        <ele>308.24</ele>
        <time>2021-08-17T11:18:47Z</time>
      </trkpt>
      <trkpt lat="44.35015" lon="1.65567">
        <ele>308.72</ele>
        <time>2021-08-17T11:18:56Z</time>
      </trkpt>
      <trkpt lat="44.3501" lon="1.65599">
        <ele>309.68</ele>
        <time>2021-08-17T11:19:03Z</time>
      </trkpt>
      <trkpt lat="44.35002" lon="1.6563">
        <ele>310.16</ele>
        <time>2021-08-17T11:19:10Z</time>
      </trkpt>
      <trkpt lat="44.34995" lon="1.65664">
        <ele>311.12</ele>
        <time>2021-08-17T11:19:18Z</time>
      </trkpt>
      <trkpt lat="44.34988" lon="1.65697">
        <ele>311.6</ele>
        <time>2021-08-17T11:19:26Z</time>
      </trkpt>
      <trkpt lat="44.34981" lon="1.65734">
        <ele>312.09</ele>
        <time>2021-08-17T11:19:34Z</time>
      </trkpt>
      <trkpt lat="44.3498" lon="1.65739">
        <ele>312.09</ele>
        <time>2021-08-17T11:19:35Z</time>
      </trkpt>
      <trkpt lat="44.34973" lon="1.65771">
        <ele>312.57</ele>
        <time>2021-08-17T11:19:42Z</time>
      </trkpt>
      <trkpt lat="44.34965" lon="1.65811">
        <ele>313.05</ele>
        <time>2021-08-17T11:19:51Z</time>
      </trkpt>
      <trkpt lat="44.3496" lon="1.65841">
        <ele>314.01</ele>
        <time>2021-08-17T11:19:58Z</time>
      </trkpt>
      <trkpt lat="44.3496" lon="1.65875">
        <ele>314.01</ele>
        <time>2021-08-17T11:20:05Z</time>
      </trkpt>
      <trkpt lat="44.34961" lon="1.65878">
        <ele>314.01</ele>
        <time>2021-08-17T11:20:06Z</time>
      </trkpt>
      <trkpt lat="44.34964" lon="1.65879">
        <ele>314.01</ele>
        <time>2021-08-17T11:20:07Z</time>
      </trkpt>
      <trkpt lat="44.34967" lon="1.65881">
        <ele>314.01</ele>
        <time>2021-08-17T11:20:08Z</time>
      </trkpt>
      <trkpt lat="44.3497" lon="1.65884">
        <ele>314.01</ele>
        <time>2021-08-17T11:20:09Z</time>
      </trkpt>
      <trkpt lat="44.34973" lon="1.65885">
        <ele>314.01</ele>
        <time>2021-08-17T11:20:10Z</time>
      </trkpt>
      <trkpt lat="44.35003" lon="1.65899">
        <ele>314.01</ele>
        <time>2021-08-17T11:20:18Z</time>
      </trkpt>
      <trkpt lat="44.35022" lon="1.65908">
        <ele>313.05</ele>
        <time>2021-08-17T11:20:22Z</time>
      </trkpt>
      <trkpt lat="44.35026" lon="1.65911">
        <ele>313.05</ele>
        <time>2021-08-17T11:20:23Z</time>
      </trkpt>
      <trkpt lat="44.35063" lon="1.6593">
        <ele>312.57</ele>
        <time>2021-08-17T11:20:31Z</time>
      </trkpt>
      <trkpt lat="44.35081" lon="1.65938">
        <ele>311.6</ele>
        <time>2021-08-17T11:20:35Z</time>
      </trkpt>
      <trkpt lat="44.35085" lon="1.65941">
        <ele>311.6</ele>
        <time>2021-08-17T11:20:36Z</time>
      </trkpt>
      <trkpt lat="44.35089" lon="1.65943">
        <ele>311.6</ele>
        <time>2021-08-17T11:20:37Z</time>
      </trkpt>
      <trkpt lat="44.35098" lon="1.65946">
        <ele>310.64</ele>
        <time>2021-08-17T11:20:39Z</time>
      </trkpt>
      <trkpt lat="44.35116" lon="1.65951">
        <ele>310.16</ele>
        <time>2021-08-17T11:20:43Z</time>
      </trkpt>
      <trkpt lat="44.35144" lon="1.65966">
        <ele>310.64</ele>
        <time>2021-08-17T11:20:50Z</time>
      </trkpt>
      <trkpt lat="44.35169" lon="1.65976">
        <ele>310.16</ele>
        <time>2021-08-17T11:20:56Z</time>
      </trkpt>
      <trkpt lat="44.35187" lon="1.65983">
        <ele>310.16</ele>
        <time>2021-08-17T11:21:00Z</time>
      </trkpt>
      <trkpt lat="44.35193" lon="1.65984">
        <ele>310.16</ele>
        <time>2021-08-17T11:21:01Z</time>
      </trkpt>
      <trkpt lat="44.35203" lon="1.65987">
        <ele>310.16</ele>
        <time>2021-08-17T11:21:03Z</time>
      </trkpt>
      <trkpt lat="44.35253" lon="1.66009">
        <ele>310.16</ele>
        <time>2021-08-17T11:21:13Z</time>
      </trkpt>
      <trkpt lat="44.3529" lon="1.66025">
        <ele>309.68</ele>
        <time>2021-08-17T11:21:21Z</time>
      </trkpt>
      <trkpt lat="44.35299" lon="1.66029">
        <ele>309.2</ele>
        <time>2021-08-17T11:21:23Z</time>
      </trkpt>
      <trkpt lat="44.35303" lon="1.66031">
        <ele>309.2</ele>
        <time>2021-08-17T11:21:24Z</time>
      </trkpt>
      <trkpt lat="44.35307" lon="1.66035">
        <ele>309.2</ele>
        <time>2021-08-17T11:21:25Z</time>
      </trkpt>
      <trkpt lat="44.35308" lon="1.66039">
        <ele>308.72</ele>
        <time>2021-08-17T11:21:26Z</time>
      </trkpt>
      <trkpt lat="44.35308" lon="1.66045">
        <ele>308.72</ele>
        <time>2021-08-17T11:21:27Z</time>
      </trkpt>
      <trkpt lat="44.35307" lon="1.6605">
        <ele>308.72</ele>
        <time>2021-08-17T11:21:28Z</time>
      </trkpt>
      <trkpt lat="44.35306" lon="1.66055">
        <ele>308.72</ele>
        <time>2021-08-17T11:21:29Z</time>
      </trkpt>
      <trkpt lat="44.35298" lon="1.66115">
        <ele>307.28</ele>
        <time>2021-08-17T11:21:39Z</time>
      </trkpt>
      <trkpt lat="44.35298" lon="1.66122">
        <ele>307.28</ele>
        <time>2021-08-17T11:21:40Z</time>
      </trkpt>
      <trkpt lat="44.35291" lon="1.66182">
        <ele>306.8</ele>
        <time>2021-08-17T11:21:49Z</time>
      </trkpt>
      <trkpt lat="44.35286" lon="1.66216">
        <ele>305.36</ele>
        <time>2021-08-17T11:21:55Z</time>
      </trkpt>
      <trkpt lat="44.35286" lon="1.66216">
        <ele>305.36</ele>
        <time>2021-08-17T11:22:00Z</time>
      </trkpt>
      <trkpt lat="44.35284" lon="1.66215">
        <ele>304.88</ele>
        <time>2021-08-17T11:22:08Z</time>
      </trkpt>
      <trkpt lat="44.35284" lon="1.66213">
        <ele>304.88</ele>
        <time>2021-08-17T11:22:34Z</time>
      </trkpt>
      <trkpt lat="44.35282" lon="1.66212">
        <ele>304.88</ele>
        <time>2021-08-17T11:22:58Z</time>
      </trkpt>
      <trkpt lat="44.35281" lon="1.66212">
        <ele>304.88</ele>
        <time>2021-08-17T11:23:18Z</time>
      </trkpt>
      <trkpt lat="44.35281" lon="1.66212">
        <ele>304.88</ele>
        <time>2021-08-17T11:23:36Z</time>
      </trkpt>
      <trkpt lat="44.35283" lon="1.66213">
        <ele>304.88</ele>
        <time>2021-08-17T11:23:59Z</time>
      </trkpt>
      <trkpt lat="44.35283" lon="1.66213">
        <ele>304.88</ele>
        <time>2021-08-17T11:24:22Z</time>
      </trkpt>
      <trkpt lat="44.35283" lon="1.66211">
        <ele>304.88</ele>
        <time>2021-08-17T11:24:39Z</time>
      </trkpt>
      <trkpt lat="44.35283" lon="1.66213">
        <ele>304.88</ele>
        <time>2021-08-17T11:25:01Z</time>
      </trkpt>
      <trkpt lat="44.35283" lon="1.66215">
        <ele>304.88</ele>
        <time>2021-08-17T11:25:21Z</time>
      </trkpt>
      <trkpt lat="44.35283" lon="1.66213">
        <ele>304.88</ele>
        <time>2021-08-17T11:25:40Z</time>
      </trkpt>
      <trkpt lat="44.35281" lon="1.66212">
        <ele>304.88</ele>
        <time>2021-08-17T11:25:58Z</time>
      </trkpt>
      <trkpt lat="44.3528" lon="1.66211">
        <ele>304.88</ele>
        <time>2021-08-17T11:26:17Z</time>
      </trkpt>
      <trkpt lat="44.3528" lon="1.66211">
        <ele>304.88</ele>
        <time>2021-08-17T11:26:30Z</time>
      </trkpt>
      <trkpt lat="44.35281" lon="1.66211">
        <ele>304.88</ele>
        <time>2021-08-17T11:26:45Z</time>
      </trkpt>
      <trkpt lat="44.35283" lon="1.66213">
        <ele>304.88</ele>
        <time>2021-08-17T11:27:03Z</time>
      </trkpt>
      <trkpt lat="44.35284" lon="1.66214">
        <ele>304.88</ele>
        <time>2021-08-17T11:27:21Z</time>
      </trkpt>
      <trkpt lat="44.35283" lon="1.66214">
        <ele>304.88</ele>
        <time>2021-08-17T11:27:36Z</time>
      </trkpt>
      <trkpt lat="44.35283" lon="1.66214">
        <ele>304.88</ele>
        <time>2021-08-17T11:27:59Z</time>
      </trkpt>
      <trkpt lat="44.35283" lon="1.66213">
        <ele>304.88</ele>
        <time>2021-08-17T11:28:15Z</time>
      </trkpt>
      <trkpt lat="44.35283" lon="1.66213">
        <ele>304.88</ele>
        <time>2021-08-17T11:28:35Z</time>
      </trkpt>
      <trkpt lat="44.35284" lon="1.66214">
        <ele>304.88</ele>
        <time>2021-08-17T11:28:51Z</time>
      </trkpt>
      <trkpt lat="44.35283" lon="1.66212">
        <ele>304.88</ele>
        <time>2021-08-17T11:29:13Z</time>
      </trkpt>
      <trkpt lat="44.35284" lon="1.66212">
        <ele>304.88</ele>
        <time>2021-08-17T11:29:27Z</time>
      </trkpt>
      <trkpt lat="44.35282" lon="1.66212">
        <ele>304.88</ele>
        <time>2021-08-17T11:29:34Z</time>
      </trkpt>
      <trkpt lat="44.35283" lon="1.66213">
        <ele>304.88</ele>
        <time>2021-08-17T11:29:55Z</time>
      </trkpt>
      <trkpt lat="44.35283" lon="1.66213">
        <ele>304.88</ele>
        <time>2021-08-17T11:30:13Z</time>
      </trkpt>
      <trkpt lat="44.35284" lon="1.66214">
        <ele>304.88</ele>
        <time>2021-08-17T11:30:31Z</time>
      </trkpt>
      <trkpt lat="44.35284" lon="1.66215">
        <ele>304.88</ele>
        <time>2021-08-17T11:30:50Z</time>
      </trkpt>
      <trkpt lat="44.35284" lon="1.66215">
        <ele>305.84</ele>
        <time>2021-08-17T11:31:06Z</time>
      </trkpt>
      <trkpt lat="44.35282" lon="1.66213">
        <ele>305.84</ele>
        <time>2021-08-17T11:31:25Z</time>
      </trkpt>
      <trkpt lat="44.35282" lon="1.66213">
        <ele>305.84</ele>
        <time>2021-08-17T11:31:48Z</time>
      </trkpt>
      <trkpt lat="44.35281" lon="1.66211">
        <ele>305.84</ele>
        <time>2021-08-17T11:32:10Z</time>
      </trkpt>
      <trkpt lat="44.35281" lon="1.6621">
        <ele>305.84</ele>
        <time>2021-08-17T11:32:29Z</time>
      </trkpt>
      <trkpt lat="44.35281" lon="1.66211">
        <ele>305.84</ele>
        <time>2021-08-17T11:32:45Z</time>
      </trkpt>
      <trkpt lat="44.35281" lon="1.66212">
        <ele>305.84</ele>
        <time>2021-08-17T11:33:06Z</time>
      </trkpt>
      <trkpt lat="44.35281" lon="1.66212">
        <ele>305.36</ele>
        <time>2021-08-17T11:33:24Z</time>
      </trkpt>
      <trkpt lat="44.35282" lon="1.66212">
        <ele>305.36</ele>
        <time>2021-08-17T11:33:41Z</time>
      </trkpt>
      <trkpt lat="44.35283" lon="1.66212">
        <ele>306.32</ele>
        <time>2021-08-17T11:34:00Z</time>
      </trkpt>
      <trkpt lat="44.35281" lon="1.66218">
        <ele>306.32</ele>
        <time>2021-08-17T11:34:06Z</time>
      </trkpt>
      <trkpt lat="44.35281" lon="1.6622">
        <ele>306.32</ele>
        <time>2021-08-17T11:34:09Z</time>
      </trkpt>
      <trkpt lat="44.35278" lon="1.66221">
        <ele>306.32</ele>
        <time>2021-08-17T11:34:12Z</time>
      </trkpt>
      <trkpt lat="44.35276" lon="1.66221">
        <ele>306.32</ele>
        <time>2021-08-17T11:34:13Z</time>
      </trkpt>
      <trkpt lat="44.35274" lon="1.66221">
        <ele>306.32</ele>
        <time>2021-08-17T11:34:14Z</time>
      </trkpt>
      <trkpt lat="44.35253" lon="1.66227">
        <ele>306.8</ele>
        <time>2021-08-17T11:34:22Z</time>
      </trkpt>
      <trkpt lat="44.35234" lon="1.66233">
        <ele>306.8</ele>
        <time>2021-08-17T11:34:28Z</time>
      </trkpt>
      <trkpt lat="44.35208" lon="1.66242">
        <ele>306.8</ele>
        <time>2021-08-17T11:34:35Z</time>
      </trkpt>
      <trkpt lat="44.35181" lon="1.66253">
        <ele>307.28</ele>
        <time>2021-08-17T11:34:43Z</time>
      </trkpt>
      <trkpt lat="44.35159" lon="1.66263">
        <ele>308.24</ele>
        <time>2021-08-17T11:34:51Z</time>
      </trkpt>
      <trkpt lat="44.35142" lon="1.66269">
        <ele>309.2</ele>
        <time>2021-08-17T11:34:58Z</time>
      </trkpt>
      <trkpt lat="44.3514" lon="1.66271">
        <ele>309.2</ele>
        <time>2021-08-17T11:34:59Z</time>
      </trkpt>
      <trkpt lat="44.35139" lon="1.66274">
        <ele>309.2</ele>
        <time>2021-08-17T11:35:00Z</time>
      </trkpt>
      <trkpt lat="44.35138" lon="1.66276">
        <ele>309.2</ele>
        <time>2021-08-17T11:35:01Z</time>
      </trkpt>
      <trkpt lat="44.35137" lon="1.66279">
        <ele>309.2</ele>
        <time>2021-08-17T11:35:02Z</time>
      </trkpt>
      <trkpt lat="44.35136" lon="1.66311">
        <ele>309.2</ele>
        <time>2021-08-17T11:35:10Z</time>
      </trkpt>
      <trkpt lat="44.35137" lon="1.66344">
        <ele>309.68</ele>
        <time>2021-08-17T11:35:19Z</time>
      </trkpt>
      <trkpt lat="44.35139" lon="1.66374">
        <ele>310.16</ele>
        <time>2021-08-17T11:35:27Z</time>
      </trkpt>
      <trkpt lat="44.35134" lon="1.66405">
        <ele>310.64</ele>
        <time>2021-08-17T11:35:35Z</time>
      </trkpt>
      <trkpt lat="44.35129" lon="1.66432">
        <ele>312.09</ele>
        <time>2021-08-17T11:35:43Z</time>
      </trkpt>
      <trkpt lat="44.35124" lon="1.66451">
        <ele>312.57</ele>
        <time>2021-08-17T11:35:49Z</time>
      </trkpt>
      <trkpt lat="44.35124" lon="1.66454">
        <ele>312.57</ele>
        <time>2021-08-17T11:35:50Z</time>
      </trkpt>
      <trkpt lat="44.35123" lon="1.66457">
        <ele>313.05</ele>
        <time>2021-08-17T11:35:51Z</time>
      </trkpt>
      <trkpt lat="44.35113" lon="1.66486">
        <ele>313.05</ele>
        <time>2021-08-17T11:35:59Z</time>
      </trkpt>
      <trkpt lat="44.35104" lon="1.66511">
        <ele>313.53</ele>
        <time>2021-08-17T11:36:06Z</time>
      </trkpt>
      <trkpt lat="44.35093" lon="1.66536">
        <ele>313.53</ele>
        <time>2021-08-17T11:36:13Z</time>
      </trkpt>
      <trkpt lat="44.35082" lon="1.66559">
        <ele>314.49</ele>
        <time>2021-08-17T11:36:20Z</time>
      </trkpt>
      <trkpt lat="44.35069" lon="1.66583">
        <ele>314.49</ele>
        <time>2021-08-17T11:36:27Z</time>
      </trkpt>
      <trkpt lat="44.35061" lon="1.66619">
        <ele>314.97</ele>
        <time>2021-08-17T11:36:35Z</time>
      </trkpt>
      <trkpt lat="44.35064" lon="1.66667">
        <ele>315.93</ele>
        <time>2021-08-17T11:36:45Z</time>
      </trkpt>
      <trkpt lat="44.35068" lon="1.66709">
        <ele>316.89</ele>
        <time>2021-08-17T11:36:54Z</time>
      </trkpt>
      <trkpt lat="44.35062" lon="1.66746">
        <ele>317.37</ele>
        <time>2021-08-17T11:37:02Z</time>
      </trkpt>
      <trkpt lat="44.35054" lon="1.66784">
        <ele>317.37</ele>
        <time>2021-08-17T11:37:10Z</time>
      </trkpt>
      <trkpt lat="44.35051" lon="1.66825">
        <ele>317.85</ele>
        <time>2021-08-17T11:37:18Z</time>
      </trkpt>
      <trkpt lat="44.35053" lon="1.66829">
        <ele>317.85</ele>
        <time>2021-08-17T11:37:19Z</time>
      </trkpt>
      <trkpt lat="44.35056" lon="1.66831">
        <ele>318.33</ele>
        <time>2021-08-17T11:37:20Z</time>
      </trkpt>
      <trkpt lat="44.35075" lon="1.66845">
        <ele>318.33</ele>
        <time>2021-08-17T11:37:26Z</time>
      </trkpt>
      <trkpt lat="44.35077" lon="1.6685">
        <ele>318.33</ele>
        <time>2021-08-17T11:37:27Z</time>
      </trkpt>
      <trkpt lat="44.35077" lon="1.66855">
        <ele>318.81</ele>
        <time>2021-08-17T11:37:28Z</time>
      </trkpt>
      <trkpt lat="44.35077" lon="1.66859">
        <ele>318.81</ele>
        <time>2021-08-17T11:37:29Z</time>
      </trkpt>
      <trkpt lat="44.35077" lon="1.66864">
        <ele>318.81</ele>
        <time>2021-08-17T11:37:30Z</time>
      </trkpt>
      <trkpt lat="44.35076" lon="1.66869">
        <ele>318.81</ele>
        <time>2021-08-17T11:37:31Z</time>
      </trkpt>
      <trkpt lat="44.35075" lon="1.66874">
        <ele>318.81</ele>
        <time>2021-08-17T11:37:32Z</time>
      </trkpt>
      <trkpt lat="44.35073" lon="1.66878">
        <ele>318.81</ele>
        <time>2021-08-17T11:37:33Z</time>
      </trkpt>
      <trkpt lat="44.35066" lon="1.66919">
        <ele>319.3</ele>
        <time>2021-08-17T11:37:41Z</time>
      </trkpt>
      <trkpt lat="44.35059" lon="1.66954">
        <ele>319.3</ele>
        <time>2021-08-17T11:37:47Z</time>
      </trkpt>
      <trkpt lat="44.35054" lon="1.66976">
        <ele>317.37</ele>
        <time>2021-08-17T11:37:50Z</time>
      </trkpt>
      <trkpt lat="44.35039" lon="1.67031">
        <ele>318.81</ele>
        <time>2021-08-17T11:37:59Z</time>
      </trkpt>
      <trkpt lat="44.35031" lon="1.67058">
        <ele>319.3</ele>
        <time>2021-08-17T11:38:05Z</time>
      </trkpt>
      <trkpt lat="44.35018" lon="1.67093">
        <ele>320.74</ele>
        <time>2021-08-17T11:38:15Z</time>
      </trkpt>
      <trkpt lat="44.35006" lon="1.67116">
        <ele>321.22</ele>
        <time>2021-08-17T11:38:22Z</time>
      </trkpt>
      <trkpt lat="44.34998" lon="1.6714">
        <ele>321.7</ele>
        <time>2021-08-17T11:38:29Z</time>
      </trkpt>
      <trkpt lat="44.3499" lon="1.67168">
        <ele>322.18</ele>
        <time>2021-08-17T11:38:36Z</time>
      </trkpt>
      <trkpt lat="44.3498" lon="1.67198">
        <ele>323.14</ele>
        <time>2021-08-17T11:38:43Z</time>
      </trkpt>
      <trkpt lat="44.34965" lon="1.6724">
        <ele>323.62</ele>
        <time>2021-08-17T11:38:53Z</time>
      </trkpt>
      <trkpt lat="44.34953" lon="1.67276">
        <ele>323.62</ele>
        <time>2021-08-17T11:39:01Z</time>
      </trkpt>
      <trkpt lat="44.34939" lon="1.67283">
        <ele>323.62</ele>
        <time>2021-08-17T11:39:05Z</time>
      </trkpt>
      <trkpt lat="44.34903" lon="1.67263">
        <ele>323.62</ele>
        <time>2021-08-17T11:39:14Z</time>
      </trkpt>
      <trkpt lat="44.34863" lon="1.67247">
        <ele>322.66</ele>
        <time>2021-08-17T11:39:22Z</time>
      </trkpt>
      <trkpt lat="44.3484" lon="1.67241">
        <ele>321.7</ele>
        <time>2021-08-17T11:39:26Z</time>
      </trkpt>
      <trkpt lat="44.34811" lon="1.67234">
        <ele>321.7</ele>
        <time>2021-08-17T11:39:31Z</time>
      </trkpt>
      <trkpt lat="44.34805" lon="1.67234">
        <ele>321.7</ele>
        <time>2021-08-17T11:39:32Z</time>
      </trkpt>
      <trkpt lat="44.34799" lon="1.67237">
        <ele>321.7</ele>
        <time>2021-08-17T11:39:33Z</time>
      </trkpt>
      <trkpt lat="44.34795" lon="1.67239">
        <ele>321.7</ele>
        <time>2021-08-17T11:39:34Z</time>
      </trkpt>
      <trkpt lat="44.3479" lon="1.67243">
        <ele>321.7</ele>
        <time>2021-08-17T11:39:35Z</time>
      </trkpt>
      <trkpt lat="44.34786" lon="1.67247">
        <ele>321.7</ele>
        <time>2021-08-17T11:39:36Z</time>
      </trkpt>
      <trkpt lat="44.34773" lon="1.6726">
        <ele>321.7</ele>
        <time>2021-08-17T11:39:39Z</time>
      </trkpt>
      <trkpt lat="44.34769" lon="1.67263">
        <ele>321.7</ele>
        <time>2021-08-17T11:39:40Z</time>
      </trkpt>
      <trkpt lat="44.34764" lon="1.67265">
        <ele>321.7</ele>
        <time>2021-08-17T11:39:41Z</time>
      </trkpt>
      <trkpt lat="44.34749" lon="1.6727">
        <ele>321.7</ele>
        <time>2021-08-17T11:39:44Z</time>
      </trkpt>
      <trkpt lat="44.3473" lon="1.67274">
        <ele>321.7</ele>
        <time>2021-08-17T11:39:48Z</time>
      </trkpt>
      <trkpt lat="44.34719" lon="1.67274">
        <ele>321.7</ele>
        <time>2021-08-17T11:39:50Z</time>
      </trkpt>
      <trkpt lat="44.34714" lon="1.67272">
        <ele>320.74</ele>
        <time>2021-08-17T11:39:51Z</time>
      </trkpt>
      <trkpt lat="44.34709" lon="1.67269">
        <ele>320.74</ele>
        <time>2021-08-17T11:39:52Z</time>
      </trkpt>
      <trkpt lat="44.34695" lon="1.6726">
        <ele>321.22</ele>
        <time>2021-08-17T11:39:55Z</time>
      </trkpt>
      <trkpt lat="44.34689" lon="1.67256">
        <ele>321.22</ele>
        <time>2021-08-17T11:39:56Z</time>
      </trkpt>
      <trkpt lat="44.34678" lon="1.67251">
        <ele>320.74</ele>
        <time>2021-08-17T11:39:58Z</time>
      </trkpt>
      <trkpt lat="44.34633" lon="1.67233">
        <ele>320.74</ele>
        <time>2021-08-17T11:40:07Z</time>
      </trkpt>
      <trkpt lat="44.34587" lon="1.67211">
        <ele>320.26</ele>
        <time>2021-08-17T11:40:17Z</time>
      </trkpt>
      <trkpt lat="44.34552" lon="1.67192">
        <ele>321.7</ele>
        <time>2021-08-17T11:40:26Z</time>
      </trkpt>
      <trkpt lat="44.3452" lon="1.67183">
        <ele>322.18</ele>
        <time>2021-08-17T11:40:34Z</time>
      </trkpt>
      <trkpt lat="44.34486" lon="1.67177">
        <ele>323.14</ele>
        <time>2021-08-17T11:40:43Z</time>
      </trkpt>
      <trkpt lat="44.3445" lon="1.6717">
        <ele>323.14</ele>
        <time>2021-08-17T11:40:52Z</time>
      </trkpt>
      <trkpt lat="44.34433" lon="1.67166">
        <ele>323.14</ele>
        <time>2021-08-17T11:40:56Z</time>
      </trkpt>
      <trkpt lat="44.34429" lon="1.67166">
        <ele>323.14</ele>
        <time>2021-08-17T11:40:57Z</time>
      </trkpt>
      <trkpt lat="44.34424" lon="1.67165">
        <ele>323.14</ele>
        <time>2021-08-17T11:40:58Z</time>
      </trkpt>
      <trkpt lat="44.34387" lon="1.67156">
        <ele>323.14</ele>
        <time>2021-08-17T11:41:06Z</time>
      </trkpt>
      <trkpt lat="44.34343" lon="1.67146">
        <ele>323.14</ele>
        <time>2021-08-17T11:41:15Z</time>
      </trkpt>
      <trkpt lat="44.343" lon="1.67135">
        <ele>323.62</ele>
        <time>2021-08-17T11:41:24Z</time>
      </trkpt>
      <trkpt lat="44.34284" lon="1.67125">
        <ele>324.1</ele>
        <time>2021-08-17T11:41:28Z</time>
      </trkpt>
      <trkpt lat="44.34271" lon="1.67109">
        <ele>324.1</ele>
        <time>2021-08-17T11:41:32Z</time>
      </trkpt>
      <trkpt lat="44.34269" lon="1.67104">
        <ele>324.1</ele>
        <time>2021-08-17T11:41:33Z</time>
      </trkpt>
      <trkpt lat="44.34256" lon="1.67085">
        <ele>324.1</ele>
        <time>2021-08-17T11:41:37Z</time>
      </trkpt>
      <trkpt lat="44.34248" lon="1.67076">
        <ele>324.1</ele>
        <time>2021-08-17T11:41:39Z</time>
      </trkpt>
      <trkpt lat="44.34244" lon="1.67073">
        <ele>324.1</ele>
        <time>2021-08-17T11:41:40Z</time>
      </trkpt>
      <trkpt lat="44.34236" lon="1.67066">
        <ele>324.1</ele>
        <time>2021-08-17T11:41:42Z</time>
      </trkpt>
      <trkpt lat="44.34214" lon="1.6705">
        <ele>324.1</ele>
        <time>2021-08-17T11:41:47Z</time>
      </trkpt>
      <trkpt lat="44.3421" lon="1.67048">
        <ele>324.1</ele>
        <time>2021-08-17T11:41:48Z</time>
      </trkpt>
      <trkpt lat="44.34205" lon="1.67047">
        <ele>324.1</ele>
        <time>2021-08-17T11:41:49Z</time>
      </trkpt>
      <trkpt lat="44.34196" lon="1.67045">
        <ele>324.1</ele>
        <time>2021-08-17T11:41:51Z</time>
      </trkpt>
      <trkpt lat="44.34191" lon="1.67046">
        <ele>324.1</ele>
        <time>2021-08-17T11:41:52Z</time>
      </trkpt>
      <trkpt lat="44.34182" lon="1.67047">
        <ele>324.1</ele>
        <time>2021-08-17T11:41:54Z</time>
      </trkpt>
      <trkpt lat="44.34178" lon="1.6705">
        <ele>324.1</ele>
        <time>2021-08-17T11:41:55Z</time>
      </trkpt>
      <trkpt lat="44.34174" lon="1.67054">
        <ele>324.1</ele>
        <time>2021-08-17T11:41:56Z</time>
      </trkpt>
      <trkpt lat="44.34171" lon="1.67059">
        <ele>324.1</ele>
        <time>2021-08-17T11:41:57Z</time>
      </trkpt>
      <trkpt lat="44.34169" lon="1.67063">
        <ele>324.1</ele>
        <time>2021-08-17T11:41:58Z</time>
      </trkpt>
      <trkpt lat="44.34167" lon="1.67069">
        <ele>324.1</ele>
        <time>2021-08-17T11:41:59Z</time>
      </trkpt>
      <trkpt lat="44.34163" lon="1.6708">
        <ele>324.1</ele>
        <time>2021-08-17T11:42:01Z</time>
      </trkpt>
      <trkpt lat="44.34154" lon="1.67104">
        <ele>324.1</ele>
        <time>2021-08-17T11:42:05Z</time>
      </trkpt>
      <trkpt lat="44.34153" lon="1.67111">
        <ele>324.1</ele>
        <time>2021-08-17T11:42:06Z</time>
      </trkpt>
      <trkpt lat="44.34147" lon="1.67148">
        <ele>324.1</ele>
        <time>2021-08-17T11:42:11Z</time>
      </trkpt>
      <trkpt lat="44.34146" lon="1.67155">
        <ele>324.1</ele>
        <time>2021-08-17T11:42:12Z</time>
      </trkpt>
      <trkpt lat="44.34145" lon="1.67161">
        <ele>324.1</ele>
        <time>2021-08-17T11:42:13Z</time>
      </trkpt>
      <trkpt lat="44.34139" lon="1.67216">
        <ele>324.1</ele>
        <time>2021-08-17T11:42:21Z</time>
      </trkpt>
      <trkpt lat="44.34139" lon="1.67223">
        <ele>324.1</ele>
        <time>2021-08-17T11:42:22Z</time>
      </trkpt>
      <trkpt lat="44.34138" lon="1.67231">
        <ele>324.1</ele>
        <time>2021-08-17T11:42:23Z</time>
      </trkpt>
      <trkpt lat="44.34138" lon="1.67238">
        <ele>324.1</ele>
        <time>2021-08-17T11:42:24Z</time>
      </trkpt>
      <trkpt lat="44.34137" lon="1.67253">
        <ele>324.1</ele>
        <time>2021-08-17T11:42:26Z</time>
      </trkpt>
      <trkpt lat="44.34128" lon="1.67311">
        <ele>322.66</ele>
        <time>2021-08-17T11:42:34Z</time>
      </trkpt>
      <trkpt lat="44.34127" lon="1.67318">
        <ele>322.66</ele>
        <time>2021-08-17T11:42:35Z</time>
      </trkpt>
      <trkpt lat="44.34126" lon="1.67325">
        <ele>322.66</ele>
        <time>2021-08-17T11:42:36Z</time>
      </trkpt>
      <trkpt lat="44.34122" lon="1.67344">
        <ele>322.66</ele>
        <time>2021-08-17T11:42:39Z</time>
      </trkpt>
      <trkpt lat="44.34121" lon="1.67357">
        <ele>322.66</ele>
        <time>2021-08-17T11:42:41Z</time>
      </trkpt>
      <trkpt lat="44.34114" lon="1.67399">
        <ele>322.66</ele>
        <time>2021-08-17T11:42:48Z</time>
      </trkpt>
      <trkpt lat="44.34108" lon="1.67454">
        <ele>322.18</ele>
        <time>2021-08-17T11:42:56Z</time>
      </trkpt>
      <trkpt lat="44.34104" lon="1.67486">
        <ele>322.18</ele>
        <time>2021-08-17T11:43:00Z</time>
      </trkpt>
      <trkpt lat="44.34103" lon="1.67494">
        <ele>322.18</ele>
        <time>2021-08-17T11:43:01Z</time>
      </trkpt>
      <trkpt lat="44.34098" lon="1.67538">
        <ele>322.18</ele>
        <time>2021-08-17T11:43:07Z</time>
      </trkpt>
      <trkpt lat="44.34097" lon="1.67545">
        <ele>322.18</ele>
        <time>2021-08-17T11:43:08Z</time>
      </trkpt>
      <trkpt lat="44.34089" lon="1.67606">
        <ele>322.18</ele>
        <time>2021-08-17T11:43:17Z</time>
      </trkpt>
      <trkpt lat="44.34082" lon="1.67673">
        <ele>322.18</ele>
        <time>2021-08-17T11:43:27Z</time>
      </trkpt>
      <trkpt lat="44.34077" lon="1.67728">
        <ele>322.18</ele>
        <time>2021-08-17T11:43:35Z</time>
      </trkpt>
      <trkpt lat="44.34069" lon="1.67801">
        <ele>320.74</ele>
        <time>2021-08-17T11:43:44Z</time>
      </trkpt>
      <trkpt lat="44.34062" lon="1.67868">
        <ele>319.3</ele>
        <time>2021-08-17T11:43:52Z</time>
      </trkpt>
      <trkpt lat="44.34055" lon="1.67937">
        <ele>316.41</ele>
        <time>2021-08-17T11:44:00Z</time>
      </trkpt>
      <trkpt lat="44.34048" lon="1.68019">
        <ele>313.53</ele>
        <time>2021-08-17T11:44:08Z</time>
      </trkpt>
      <trkpt lat="44.34038" lon="1.681">
        <ele>311.12</ele>
        <time>2021-08-17T11:44:15Z</time>
      </trkpt>
      <trkpt lat="44.3403" lon="1.6819">
        <ele>308.72</ele>
        <time>2021-08-17T11:44:23Z</time>
      </trkpt>
      <trkpt lat="44.3403" lon="1.68235">
        <ele>306.8</ele>
        <time>2021-08-17T11:44:27Z</time>
      </trkpt>
      <trkpt lat="44.34033" lon="1.68318">
        <ele>303.91</ele>
        <time>2021-08-17T11:44:34Z</time>
      </trkpt>
      <trkpt lat="44.34035" lon="1.68393">
        <ele>300.55</ele>
        <time>2021-08-17T11:44:41Z</time>
      </trkpt>
      <trkpt lat="44.34037" lon="1.68415">
        <ele>299.11</ele>
        <time>2021-08-17T11:44:43Z</time>
      </trkpt>
      <trkpt lat="44.34043" lon="1.68495">
        <ele>296.22</ele>
        <time>2021-08-17T11:44:50Z</time>
      </trkpt>
      <trkpt lat="44.34049" lon="1.68583">
        <ele>295.26</ele>
        <time>2021-08-17T11:44:58Z</time>
      </trkpt>
      <trkpt lat="44.34049" lon="1.68593">
        <ele>295.26</ele>
        <time>2021-08-17T11:44:59Z</time>
      </trkpt>
      <trkpt lat="44.34048" lon="1.68602">
        <ele>295.26</ele>
        <time>2021-08-17T11:45:00Z</time>
      </trkpt>
      <trkpt lat="44.34047" lon="1.68609">
        <ele>295.26</ele>
        <time>2021-08-17T11:45:01Z</time>
      </trkpt>
      <trkpt lat="44.34045" lon="1.68615">
        <ele>296.7</ele>
        <time>2021-08-17T11:45:02Z</time>
      </trkpt>
      <trkpt lat="44.34043" lon="1.68621">
        <ele>296.7</ele>
        <time>2021-08-17T11:45:03Z</time>
      </trkpt>
      <trkpt lat="44.34038" lon="1.68634">
        <ele>298.15</ele>
        <time>2021-08-17T11:45:08Z</time>
      </trkpt>
      <trkpt lat="44.34033" lon="1.68648">
        <ele>299.11</ele>
        <time>2021-08-17T11:45:16Z</time>
      </trkpt>
      <trkpt lat="44.34033" lon="1.68657">
        <ele>299.59</ele>
        <time>2021-08-17T11:45:21Z</time>
      </trkpt>
      <trkpt lat="44.34033" lon="1.68658">
        <ele>299.59</ele>
        <time>2021-08-17T11:45:22Z</time>
      </trkpt>
      <trkpt lat="44.34033" lon="1.6866">
        <ele>300.55</ele>
        <time>2021-08-17T11:45:23Z</time>
      </trkpt>
      <trkpt lat="44.34033" lon="1.68662">
        <ele>300.55</ele>
        <time>2021-08-17T11:45:24Z</time>
      </trkpt>
      <trkpt lat="44.34032" lon="1.68664">
        <ele>300.55</ele>
        <time>2021-08-17T11:45:25Z</time>
      </trkpt>
      <trkpt lat="44.34032" lon="1.68665">
        <ele>301.03</ele>
        <time>2021-08-17T11:45:26Z</time>
      </trkpt>
      <trkpt lat="44.34031" lon="1.68667">
        <ele>301.03</ele>
        <time>2021-08-17T11:45:27Z</time>
      </trkpt>
      <trkpt lat="44.34031" lon="1.68669">
        <ele>301.03</ele>
        <time>2021-08-17T11:45:28Z</time>
      </trkpt>
      <trkpt lat="44.34031" lon="1.68671">
        <ele>301.03</ele>
        <time>2021-08-17T11:45:29Z</time>
      </trkpt>
      <trkpt lat="44.34031" lon="1.68672">
        <ele>301.03</ele>
        <time>2021-08-17T11:45:30Z</time>
      </trkpt>
      <trkpt lat="44.34031" lon="1.68674">
        <ele>301.03</ele>
        <time>2021-08-17T11:45:31Z</time>
      </trkpt>
      <trkpt lat="44.34031" lon="1.68676">
        <ele>301.51</ele>
        <time>2021-08-17T11:45:32Z</time>
      </trkpt>
      <trkpt lat="44.34031" lon="1.68677">
        <ele>301.51</ele>
        <time>2021-08-17T11:45:33Z</time>
      </trkpt>
      <trkpt lat="44.34031" lon="1.68679">
        <ele>301.51</ele>
        <time>2021-08-17T11:45:34Z</time>
      </trkpt>
      <trkpt lat="44.34031" lon="1.68681">
        <ele>301.51</ele>
        <time>2021-08-17T11:45:35Z</time>
      </trkpt>
      <trkpt lat="44.34031" lon="1.68682">
        <ele>302.47</ele>
        <time>2021-08-17T11:45:36Z</time>
      </trkpt>
      <trkpt lat="44.34032" lon="1.68684">
        <ele>302.47</ele>
        <time>2021-08-17T11:45:37Z</time>
      </trkpt>
      <trkpt lat="44.34033" lon="1.68686">
        <ele>302.47</ele>
        <time>2021-08-17T11:45:38Z</time>
      </trkpt>
      <trkpt lat="44.34033" lon="1.68687">
        <ele>302.95</ele>
        <time>2021-08-17T11:45:39Z</time>
      </trkpt>
      <trkpt lat="44.34033" lon="1.6869">
        <ele>302.95</ele>
        <time>2021-08-17T11:45:40Z</time>
      </trkpt>
      <trkpt lat="44.34033" lon="1.68692">
        <ele>302.95</ele>
        <time>2021-08-17T11:45:41Z</time>
      </trkpt>
      <trkpt lat="44.34033" lon="1.68694">
        <ele>302.95</ele>
        <time>2021-08-17T11:45:42Z</time>
      </trkpt>
      <trkpt lat="44.34033" lon="1.68696">
        <ele>302.95</ele>
        <time>2021-08-17T11:45:43Z</time>
      </trkpt>
      <trkpt lat="44.34034" lon="1.68698">
        <ele>302.95</ele>
        <time>2021-08-17T11:45:44Z</time>
      </trkpt>
      <trkpt lat="44.34034" lon="1.687">
        <ele>302.95</ele>
        <time>2021-08-17T11:45:45Z</time>
      </trkpt>
      <trkpt lat="44.34035" lon="1.68701">
        <ele>302.95</ele>
        <time>2021-08-17T11:45:46Z</time>
      </trkpt>
      <trkpt lat="44.34036" lon="1.68703">
        <ele>303.43</ele>
        <time>2021-08-17T11:45:47Z</time>
      </trkpt>
      <trkpt lat="44.34037" lon="1.68704">
        <ele>303.43</ele>
        <time>2021-08-17T11:45:48Z</time>
      </trkpt>
      <trkpt lat="44.34043" lon="1.68716">
        <ele>304.88</ele>
        <time>2021-08-17T11:45:56Z</time>
      </trkpt>
      <trkpt lat="44.34043" lon="1.68718">
        <ele>304.88</ele>
        <time>2021-08-17T11:45:57Z</time>
      </trkpt>
      <trkpt lat="44.34044" lon="1.68719">
        <ele>304.88</ele>
        <time>2021-08-17T11:45:58Z</time>
      </trkpt>
      <trkpt lat="44.34045" lon="1.68721">
        <ele>305.36</ele>
        <time>2021-08-17T11:45:59Z</time>
      </trkpt>
      <trkpt lat="44.34046" lon="1.68723">
        <ele>305.36</ele>
        <time>2021-08-17T11:46:00Z</time>
      </trkpt>
      <trkpt lat="44.34046" lon="1.68724">
        <ele>305.36</ele>
        <time>2021-08-17T11:46:01Z</time>
      </trkpt>
      <trkpt lat="44.34047" lon="1.68726">
        <ele>305.84</ele>
        <time>2021-08-17T11:46:02Z</time>
      </trkpt>
      <trkpt lat="44.34048" lon="1.68728">
        <ele>305.84</ele>
        <time>2021-08-17T11:46:03Z</time>
      </trkpt>
      <trkpt lat="44.34049" lon="1.68729">
        <ele>305.84</ele>
        <time>2021-08-17T11:46:04Z</time>
      </trkpt>
      <trkpt lat="44.34058" lon="1.68747">
        <ele>306.8</ele>
        <time>2021-08-17T11:46:14Z</time>
      </trkpt>
      <trkpt lat="44.34069" lon="1.68768">
        <ele>308.24</ele>
        <time>2021-08-17T11:46:24Z</time>
      </trkpt>
      <trkpt lat="44.34078" lon="1.6879">
        <ele>308.72</ele>
        <time>2021-08-17T11:46:33Z</time>
      </trkpt>
      <trkpt lat="44.34095" lon="1.68825">
        <ele>309.2</ele>
        <time>2021-08-17T11:46:44Z</time>
      </trkpt>
      <trkpt lat="44.34109" lon="1.68854">
        <ele>309.2</ele>
        <time>2021-08-17T11:46:51Z</time>
      </trkpt>
      <trkpt lat="44.3413" lon="1.68895">
        <ele>307.28</ele>
        <time>2021-08-17T11:46:58Z</time>
      </trkpt>
      <trkpt lat="44.34149" lon="1.68939">
        <ele>306.8</ele>
        <time>2021-08-17T11:47:05Z</time>
      </trkpt>
      <trkpt lat="44.34177" lon="1.68993">
        <ele>303.91</ele>
        <time>2021-08-17T11:47:13Z</time>
      </trkpt>
      <trkpt lat="44.34203" lon="1.6905">
        <ele>302.95</ele>
        <time>2021-08-17T11:47:21Z</time>
      </trkpt>
      <trkpt lat="44.34213" lon="1.69073">
        <ele>304.88</ele>
        <time>2021-08-17T11:47:25Z</time>
      </trkpt>
      <trkpt lat="44.34234" lon="1.69115">
        <ele>303.43</ele>
        <time>2021-08-17T11:47:32Z</time>
      </trkpt>
      <trkpt lat="44.34238" lon="1.69122">
        <ele>303.43</ele>
        <time>2021-08-17T11:47:33Z</time>
      </trkpt>
      <trkpt lat="44.34266" lon="1.69169">
        <ele>300.07</ele>
        <time>2021-08-17T11:47:39Z</time>
      </trkpt>
      <trkpt lat="44.34308" lon="1.69241">
        <ele>298.63</ele>
        <time>2021-08-17T11:47:48Z</time>
      </trkpt>
      <trkpt lat="44.34327" lon="1.69279">
        <ele>298.63</ele>
        <time>2021-08-17T11:47:53Z</time>
      </trkpt>
      <trkpt lat="44.3435" lon="1.6933">
        <ele>298.63</ele>
        <time>2021-08-17T11:48:00Z</time>
      </trkpt>
      <trkpt lat="44.34372" lon="1.69376">
        <ele>298.63</ele>
        <time>2021-08-17T11:48:08Z</time>
      </trkpt>
      <trkpt lat="44.34376" lon="1.69385">
        <ele>300.07</ele>
        <time>2021-08-17T11:48:10Z</time>
      </trkpt>
      <trkpt lat="44.34389" lon="1.69414">
        <ele>301.51</ele>
        <time>2021-08-17T11:48:18Z</time>
      </trkpt>
      <trkpt lat="44.34396" lon="1.69427">
        <ele>302.47</ele>
        <time>2021-08-17T11:48:24Z</time>
      </trkpt>
      <trkpt lat="44.34396" lon="1.6943">
        <ele>301.99</ele>
        <time>2021-08-17T11:48:25Z</time>
      </trkpt>
      <trkpt lat="44.34406" lon="1.69451">
        <ele>303.43</ele>
        <time>2021-08-17T11:48:34Z</time>
      </trkpt>
      <trkpt lat="44.34419" lon="1.69478">
        <ele>304.39</ele>
        <time>2021-08-17T11:48:45Z</time>
      </trkpt>
      <trkpt lat="44.34432" lon="1.69507">
        <ele>304.88</ele>
        <time>2021-08-17T11:48:55Z</time>
      </trkpt>
      <trkpt lat="44.34449" lon="1.69543">
        <ele>305.84</ele>
        <time>2021-08-17T11:49:06Z</time>
      </trkpt>
      <trkpt lat="44.34461" lon="1.69565">
        <ele>306.32</ele>
        <time>2021-08-17T11:49:14Z</time>
      </trkpt>
      <trkpt lat="44.3447" lon="1.69583">
        <ele>307.28</ele>
        <time>2021-08-17T11:49:21Z</time>
      </trkpt>
      <trkpt lat="44.34479" lon="1.69596">
        <ele>308.24</ele>
        <time>2021-08-17T11:49:27Z</time>
      </trkpt>
      <trkpt lat="44.3449" lon="1.69613">
        <ele>309.68</ele>
        <time>2021-08-17T11:49:36Z</time>
      </trkpt>
      <trkpt lat="44.34504" lon="1.69636">
        <ele>310.64</ele>
        <time>2021-08-17T11:49:47Z</time>
      </trkpt>
      <trkpt lat="44.34515" lon="1.69659">
        <ele>311.6</ele>
        <time>2021-08-17T11:49:56Z</time>
      </trkpt>
      <trkpt lat="44.34526" lon="1.69681">
        <ele>312.57</ele>
        <time>2021-08-17T11:50:05Z</time>
      </trkpt>
      <trkpt lat="44.34537" lon="1.69701">
        <ele>313.05</ele>
        <time>2021-08-17T11:50:14Z</time>
      </trkpt>
      <trkpt lat="44.34547" lon="1.69723">
        <ele>314.01</ele>
        <time>2021-08-17T11:50:23Z</time>
      </trkpt>
      <trkpt lat="44.3456" lon="1.69747">
        <ele>315.45</ele>
        <time>2021-08-17T11:50:33Z</time>
      </trkpt>
      <trkpt lat="44.34574" lon="1.69778">
        <ele>316.41</ele>
        <time>2021-08-17T11:50:43Z</time>
      </trkpt>
      <trkpt lat="44.3459" lon="1.69808">
        <ele>317.37</ele>
        <time>2021-08-17T11:50:52Z</time>
      </trkpt>
      <trkpt lat="44.3461" lon="1.69844">
        <ele>318.33</ele>
        <time>2021-08-17T11:51:03Z</time>
      </trkpt>
      <trkpt lat="44.34627" lon="1.69878">
        <ele>319.3</ele>
        <time>2021-08-17T11:51:13Z</time>
      </trkpt>
      <trkpt lat="44.34646" lon="1.69918">
        <ele>320.26</ele>
        <time>2021-08-17T11:51:25Z</time>
      </trkpt>
      <trkpt lat="44.34654" lon="1.69934">
        <ele>321.22</ele>
        <time>2021-08-17T11:51:31Z</time>
      </trkpt>
      <trkpt lat="44.34665" lon="1.69957">
        <ele>322.18</ele>
        <time>2021-08-17T11:51:39Z</time>
      </trkpt>
      <trkpt lat="44.34676" lon="1.69986">
        <ele>324.1</ele>
        <time>2021-08-17T11:51:48Z</time>
      </trkpt>
      <trkpt lat="44.34682" lon="1.70004">
        <ele>324.58</ele>
        <time>2021-08-17T11:51:55Z</time>
      </trkpt>
      <trkpt lat="44.34682" lon="1.70007">
        <ele>324.58</ele>
        <time>2021-08-17T11:51:56Z</time>
      </trkpt>
      <trkpt lat="44.34684" lon="1.70033">
        <ele>325.06</ele>
        <time>2021-08-17T11:52:03Z</time>
      </trkpt>
      <trkpt lat="44.34686" lon="1.70069">
        <ele>326.02</ele>
        <time>2021-08-17T11:52:11Z</time>
      </trkpt>
      <trkpt lat="44.34686" lon="1.70102">
        <ele>326.02</ele>
        <time>2021-08-17T11:52:18Z</time>
      </trkpt>
      <trkpt lat="44.34683" lon="1.70134">
        <ele>326.5</ele>
        <time>2021-08-17T11:52:25Z</time>
      </trkpt>
      <trkpt lat="44.34678" lon="1.70165">
        <ele>327.47</ele>
        <time>2021-08-17T11:52:32Z</time>
      </trkpt>
      <trkpt lat="44.34673" lon="1.70196">
        <ele>327.95</ele>
        <time>2021-08-17T11:52:39Z</time>
      </trkpt>
      <trkpt lat="44.34666" lon="1.70226">
        <ele>328.91</ele>
        <time>2021-08-17T11:52:46Z</time>
      </trkpt>
      <trkpt lat="44.34657" lon="1.70255">
        <ele>330.35</ele>
        <time>2021-08-17T11:52:54Z</time>
      </trkpt>
      <trkpt lat="44.34649" lon="1.70283">
        <ele>330.83</ele>
        <time>2021-08-17T11:53:02Z</time>
      </trkpt>
      <trkpt lat="44.34636" lon="1.70329">
        <ele>331.31</ele>
        <time>2021-08-17T11:53:11Z</time>
      </trkpt>
      <trkpt lat="44.34627" lon="1.70369">
        <ele>331.79</ele>
        <time>2021-08-17T11:53:20Z</time>
      </trkpt>
      <trkpt lat="44.34621" lon="1.70401">
        <ele>332.27</ele>
        <time>2021-08-17T11:53:27Z</time>
      </trkpt>
      <trkpt lat="44.34614" lon="1.70437">
        <ele>333.23</ele>
        <time>2021-08-17T11:53:35Z</time>
      </trkpt>
      <trkpt lat="44.34605" lon="1.7048">
        <ele>335.16</ele>
        <time>2021-08-17T11:53:45Z</time>
      </trkpt>
      <trkpt lat="44.34599" lon="1.70515">
        <ele>335.16</ele>
        <time>2021-08-17T11:53:52Z</time>
      </trkpt>
      <trkpt lat="44.34592" lon="1.70545">
        <ele>335.16</ele>
        <time>2021-08-17T11:53:57Z</time>
      </trkpt>
      <trkpt lat="44.34587" lon="1.70567">
        <ele>335.16</ele>
        <time>2021-08-17T11:54:00Z</time>
      </trkpt>
      <trkpt lat="44.34585" lon="1.70582">
        <ele>335.16</ele>
        <time>2021-08-17T11:54:02Z</time>
      </trkpt>
      <trkpt lat="44.34571" lon="1.70626">
        <ele>335.16</ele>
        <time>2021-08-17T11:54:09Z</time>
      </trkpt>
      <trkpt lat="44.34569" lon="1.70632">
        <ele>335.16</ele>
        <time>2021-08-17T11:54:10Z</time>
      </trkpt>
      <trkpt lat="44.34566" lon="1.70644">
        <ele>334.2</ele>
        <time>2021-08-17T11:54:12Z</time>
      </trkpt>
      <trkpt lat="44.34563" lon="1.70658">
        <ele>333.71</ele>
        <time>2021-08-17T11:54:14Z</time>
      </trkpt>
      <trkpt lat="44.34561" lon="1.70665">
        <ele>333.71</ele>
        <time>2021-08-17T11:54:15Z</time>
      </trkpt>
      <trkpt lat="44.3456" lon="1.70672">
        <ele>333.71</ele>
        <time>2021-08-17T11:54:16Z</time>
      </trkpt>
      <trkpt lat="44.3455" lon="1.70736">
        <ele>330.83</ele>
        <time>2021-08-17T11:54:24Z</time>
      </trkpt>
      <trkpt lat="44.3455" lon="1.70744">
        <ele>330.83</ele>
        <time>2021-08-17T11:54:25Z</time>
      </trkpt>
      <trkpt lat="44.34549" lon="1.70752">
        <ele>329.87</ele>
        <time>2021-08-17T11:54:26Z</time>
      </trkpt>
      <trkpt lat="44.34547" lon="1.70761">
        <ele>329.39</ele>
        <time>2021-08-17T11:54:27Z</time>
      </trkpt>
      <trkpt lat="44.34543" lon="1.7077">
        <ele>327.95</ele>
        <time>2021-08-17T11:54:28Z</time>
      </trkpt>
      <trkpt lat="44.3453" lon="1.70814">
        <ele>325.06</ele>
        <time>2021-08-17T11:54:32Z</time>
      </trkpt>
      <trkpt lat="44.34528" lon="1.70826">
        <ele>324.1</ele>
        <time>2021-08-17T11:54:33Z</time>
      </trkpt>
      <trkpt lat="44.34525" lon="1.70904">
        <ele>320.26</ele>
        <time>2021-08-17T11:54:39Z</time>
      </trkpt>
      <trkpt lat="44.34524" lon="1.70917">
        <ele>320.26</ele>
        <time>2021-08-17T11:54:40Z</time>
      </trkpt>
      <trkpt lat="44.34522" lon="1.70993">
        <ele>317.37</ele>
        <time>2021-08-17T11:54:46Z</time>
      </trkpt>
      <trkpt lat="44.34524" lon="1.71062">
        <ele>316.41</ele>
        <time>2021-08-17T11:54:52Z</time>
      </trkpt>
      <trkpt lat="44.34525" lon="1.71071">
        <ele>316.41</ele>
        <time>2021-08-17T11:54:53Z</time>
      </trkpt>
      <trkpt lat="44.34527" lon="1.7108">
        <ele>316.41</ele>
        <time>2021-08-17T11:54:54Z</time>
      </trkpt>
      <trkpt lat="44.3453" lon="1.71087">
        <ele>317.85</ele>
        <time>2021-08-17T11:54:55Z</time>
      </trkpt>
      <trkpt lat="44.34532" lon="1.71093">
        <ele>317.85</ele>
        <time>2021-08-17T11:54:56Z</time>
      </trkpt>
      <trkpt lat="44.34535" lon="1.71098">
        <ele>318.33</ele>
        <time>2021-08-17T11:54:57Z</time>
      </trkpt>
      <trkpt lat="44.34544" lon="1.71112">
        <ele>319.3</ele>
        <time>2021-08-17T11:55:02Z</time>
      </trkpt>
      <trkpt lat="44.34555" lon="1.7113">
        <ele>321.7</ele>
        <time>2021-08-17T11:55:13Z</time>
      </trkpt>
      <trkpt lat="44.34557" lon="1.71134">
        <ele>322.18</ele>
        <time>2021-08-17T11:55:16Z</time>
      </trkpt>
      <trkpt lat="44.34559" lon="1.71135">
        <ele>322.18</ele>
        <time>2021-08-17T11:55:17Z</time>
      </trkpt>
      <trkpt lat="44.3456" lon="1.71137">
        <ele>322.18</ele>
        <time>2021-08-17T11:55:18Z</time>
      </trkpt>
      <trkpt lat="44.34561" lon="1.71139">
        <ele>322.18</ele>
        <time>2021-08-17T11:55:19Z</time>
      </trkpt>
      <trkpt lat="44.34562" lon="1.7114">
        <ele>322.18</ele>
        <time>2021-08-17T11:55:20Z</time>
      </trkpt>
      <trkpt lat="44.34563" lon="1.71142">
        <ele>322.18</ele>
        <time>2021-08-17T11:55:21Z</time>
      </trkpt>
      <trkpt lat="44.3457" lon="1.71154">
        <ele>323.62</ele>
        <time>2021-08-17T11:55:30Z</time>
      </trkpt>
      <trkpt lat="44.3457" lon="1.71155">
        <ele>324.1</ele>
        <time>2021-08-17T11:55:31Z</time>
      </trkpt>
      <trkpt lat="44.3457" lon="1.71157">
        <ele>324.1</ele>
        <time>2021-08-17T11:55:32Z</time>
      </trkpt>
      <trkpt lat="44.3457" lon="1.71159">
        <ele>324.1</ele>
        <time>2021-08-17T11:55:33Z</time>
      </trkpt>
      <trkpt lat="44.3457" lon="1.71161">
        <ele>324.1</ele>
        <time>2021-08-17T11:55:34Z</time>
      </trkpt>
      <trkpt lat="44.3457" lon="1.71162">
        <ele>325.06</ele>
        <time>2021-08-17T11:55:35Z</time>
      </trkpt>
      <trkpt lat="44.34569" lon="1.71164">
        <ele>325.06</ele>
        <time>2021-08-17T11:55:36Z</time>
      </trkpt>
      <trkpt lat="44.34569" lon="1.71166">
        <ele>325.54</ele>
        <time>2021-08-17T11:55:37Z</time>
      </trkpt>
      <trkpt lat="44.34568" lon="1.71167">
        <ele>325.54</ele>
        <time>2021-08-17T11:55:38Z</time>
      </trkpt>
      <trkpt lat="44.34568" lon="1.71169">
        <ele>325.06</ele>
        <time>2021-08-17T11:55:39Z</time>
      </trkpt>
      <trkpt lat="44.34567" lon="1.7117">
        <ele>325.54</ele>
        <time>2021-08-17T11:55:40Z</time>
      </trkpt>
      <trkpt lat="44.34566" lon="1.71172">
        <ele>325.54</ele>
        <time>2021-08-17T11:55:41Z</time>
      </trkpt>
      <trkpt lat="44.34565" lon="1.71173">
        <ele>325.54</ele>
        <time>2021-08-17T11:55:42Z</time>
      </trkpt>
      <trkpt lat="44.34564" lon="1.71174">
        <ele>326.02</ele>
        <time>2021-08-17T11:55:43Z</time>
      </trkpt>
      <trkpt lat="44.34563" lon="1.71175">
        <ele>326.02</ele>
        <time>2021-08-17T11:55:44Z</time>
      </trkpt>
      <trkpt lat="44.34561" lon="1.71177">
        <ele>326.02</ele>
        <time>2021-08-17T11:55:45Z</time>
      </trkpt>
      <trkpt lat="44.3456" lon="1.71178">
        <ele>326.02</ele>
        <time>2021-08-17T11:55:46Z</time>
      </trkpt>
      <trkpt lat="44.34559" lon="1.71179">
        <ele>326.5</ele>
        <time>2021-08-17T11:55:47Z</time>
      </trkpt>
      <trkpt lat="44.34558" lon="1.7118">
        <ele>326.5</ele>
        <time>2021-08-17T11:55:48Z</time>
      </trkpt>
      <trkpt lat="44.34556" lon="1.71182">
        <ele>326.5</ele>
        <time>2021-08-17T11:55:49Z</time>
      </trkpt>
      <trkpt lat="44.34544" lon="1.71201">
        <ele>327.95</ele>
        <time>2021-08-17T11:55:59Z</time>
      </trkpt>
      <trkpt lat="44.34537" lon="1.71224">
        <ele>329.39</ele>
        <time>2021-08-17T11:56:09Z</time>
      </trkpt>
      <trkpt lat="44.3453" lon="1.71253">
        <ele>330.83</ele>
        <time>2021-08-17T11:56:20Z</time>
      </trkpt>
      <trkpt lat="44.34526" lon="1.71279">
        <ele>331.31</ele>
        <time>2021-08-17T11:56:29Z</time>
      </trkpt>
      <trkpt lat="44.34524" lon="1.71308">
        <ele>332.75</ele>
        <time>2021-08-17T11:56:39Z</time>
      </trkpt>
      <trkpt lat="44.34523" lon="1.71335">
        <ele>333.71</ele>
        <time>2021-08-17T11:56:47Z</time>
      </trkpt>
      <trkpt lat="44.34523" lon="1.71369">
        <ele>334.68</ele>
        <time>2021-08-17T11:56:56Z</time>
      </trkpt>
      <trkpt lat="44.34522" lon="1.71405">
        <ele>336.12</ele>
        <time>2021-08-17T11:57:07Z</time>
      </trkpt>
      <trkpt lat="44.34521" lon="1.71432">
        <ele>337.08</ele>
        <time>2021-08-17T11:57:15Z</time>
      </trkpt>
      <trkpt lat="44.34521" lon="1.71465">
        <ele>338.04</ele>
        <time>2021-08-17T11:57:24Z</time>
      </trkpt>
      <trkpt lat="44.34521" lon="1.71496">
        <ele>339</ele>
        <time>2021-08-17T11:57:33Z</time>
      </trkpt>
      <trkpt lat="44.34525" lon="1.71527">
        <ele>339.96</ele>
        <time>2021-08-17T11:57:42Z</time>
      </trkpt>
      <trkpt lat="44.34527" lon="1.71559">
        <ele>340.44</ele>
        <time>2021-08-17T11:57:51Z</time>
      </trkpt>
      <trkpt lat="44.34526" lon="1.71589">
        <ele>340.92</ele>
        <time>2021-08-17T11:57:59Z</time>
      </trkpt>
      <trkpt lat="44.34524" lon="1.71625">
        <ele>340.92</ele>
        <time>2021-08-17T11:58:08Z</time>
      </trkpt>
      <trkpt lat="44.3452" lon="1.71669">
        <ele>341.41</ele>
        <time>2021-08-17T11:58:16Z</time>
      </trkpt>
      <trkpt lat="44.34515" lon="1.71705">
        <ele>342.37</ele>
        <time>2021-08-17T11:58:24Z</time>
      </trkpt>
      <trkpt lat="44.3451" lon="1.71746">
        <ele>343.33</ele>
        <time>2021-08-17T11:58:33Z</time>
      </trkpt>
      <trkpt lat="44.34508" lon="1.71787">
        <ele>344.29</ele>
        <time>2021-08-17T11:58:42Z</time>
      </trkpt>
      <trkpt lat="44.34506" lon="1.71832">
        <ele>344.77</ele>
        <time>2021-08-17T11:58:52Z</time>
      </trkpt>
      <trkpt lat="44.34503" lon="1.71872">
        <ele>345.73</ele>
        <time>2021-08-17T11:59:01Z</time>
      </trkpt>
      <trkpt lat="44.345" lon="1.71919">
        <ele>346.21</ele>
        <time>2021-08-17T11:59:10Z</time>
      </trkpt>
      <trkpt lat="44.34497" lon="1.71963">
        <ele>346.69</ele>
        <time>2021-08-17T11:59:18Z</time>
      </trkpt>
      <trkpt lat="44.34493" lon="1.72025">
        <ele>347.65</ele>
        <time>2021-08-17T11:59:29Z</time>
      </trkpt>
      <trkpt lat="44.3449" lon="1.72059">
        <ele>348.13</ele>
        <time>2021-08-17T11:59:36Z</time>
      </trkpt>
      <trkpt lat="44.34488" lon="1.72093">
        <ele>349.1</ele>
        <time>2021-08-17T11:59:43Z</time>
      </trkpt>
      <trkpt lat="44.34486" lon="1.72132">
        <ele>350.06</ele>
        <time>2021-08-17T11:59:51Z</time>
      </trkpt>
      <trkpt lat="44.34484" lon="1.72165">
        <ele>351.02</ele>
        <time>2021-08-17T11:59:59Z</time>
      </trkpt>
      <trkpt lat="44.3448" lon="1.72202">
        <ele>351.98</ele>
        <time>2021-08-17T12:00:08Z</time>
      </trkpt>
      <trkpt lat="44.34478" lon="1.72226">
        <ele>352.46</ele>
        <time>2021-08-17T12:00:14Z</time>
      </trkpt>
      <trkpt lat="44.34474" lon="1.72264">
        <ele>353.9</ele>
        <time>2021-08-17T12:00:24Z</time>
      </trkpt>
      <trkpt lat="44.34471" lon="1.72296">
        <ele>354.86</ele>
        <time>2021-08-17T12:00:32Z</time>
      </trkpt>
      <trkpt lat="44.34468" lon="1.72327">
        <ele>355.83</ele>
        <time>2021-08-17T12:00:40Z</time>
      </trkpt>
      <trkpt lat="44.34464" lon="1.72361">
        <ele>357.27</ele>
        <time>2021-08-17T12:00:48Z</time>
      </trkpt>
      <trkpt lat="44.3446" lon="1.72385">
        <ele>357.75</ele>
        <time>2021-08-17T12:00:54Z</time>
      </trkpt>
      <trkpt lat="44.34455" lon="1.7242">
        <ele>358.23</ele>
        <time>2021-08-17T12:01:02Z</time>
      </trkpt>
      <trkpt lat="44.3445" lon="1.72453">
        <ele>359.19</ele>
        <time>2021-08-17T12:01:09Z</time>
      </trkpt>
      <trkpt lat="44.34446" lon="1.72492">
        <ele>359.67</ele>
        <time>2021-08-17T12:01:17Z</time>
      </trkpt>
      <trkpt lat="44.34446" lon="1.72525">
        <ele>360.63</ele>
        <time>2021-08-17T12:01:24Z</time>
      </trkpt>
      <trkpt lat="44.34446" lon="1.72561">
        <ele>361.11</ele>
        <time>2021-08-17T12:01:32Z</time>
      </trkpt>
      <trkpt lat="44.34449" lon="1.72598">
        <ele>362.07</ele>
        <time>2021-08-17T12:01:39Z</time>
      </trkpt>
      <trkpt lat="44.3445" lon="1.72646">
        <ele>362.07</ele>
        <time>2021-08-17T12:01:47Z</time>
      </trkpt>
      <trkpt lat="44.34451" lon="1.72694">
        <ele>362.07</ele>
        <time>2021-08-17T12:01:55Z</time>
      </trkpt>
      <trkpt lat="44.34451" lon="1.727">
        <ele>362.07</ele>
        <time>2021-08-17T12:01:56Z</time>
      </trkpt>
      <trkpt lat="44.3445" lon="1.72752">
        <ele>362.55</ele>
        <time>2021-08-17T12:02:05Z</time>
      </trkpt>
      <trkpt lat="44.3445" lon="1.72797">
        <ele>363.04</ele>
        <time>2021-08-17T12:02:13Z</time>
      </trkpt>
      <trkpt lat="44.34448" lon="1.72833">
        <ele>364.48</ele>
        <time>2021-08-17T12:02:20Z</time>
      </trkpt>
      <trkpt lat="44.34445" lon="1.72864">
        <ele>364.96</ele>
        <time>2021-08-17T12:02:27Z</time>
      </trkpt>
      <trkpt lat="44.34444" lon="1.72889">
        <ele>365.44</ele>
        <time>2021-08-17T12:02:33Z</time>
      </trkpt>
      <trkpt lat="44.34443" lon="1.72919">
        <ele>366.88</ele>
        <time>2021-08-17T12:02:41Z</time>
      </trkpt>
      <trkpt lat="44.34441" lon="1.72937">
        <ele>367.36</ele>
        <time>2021-08-17T12:02:47Z</time>
      </trkpt>
      <trkpt lat="44.34439" lon="1.7296">
        <ele>368.8</ele>
        <time>2021-08-17T12:02:54Z</time>
      </trkpt>
      <trkpt lat="44.34434" lon="1.72983">
        <ele>369.28</ele>
        <time>2021-08-17T12:03:01Z</time>
      </trkpt>
      <trkpt lat="44.34431" lon="1.7301">
        <ele>370.24</ele>
        <time>2021-08-17T12:03:09Z</time>
      </trkpt>
      <trkpt lat="44.34428" lon="1.73034">
        <ele>371.69</ele>
        <time>2021-08-17T12:03:16Z</time>
      </trkpt>
      <trkpt lat="44.34424" lon="1.73061">
        <ele>372.65</ele>
        <time>2021-08-17T12:03:24Z</time>
      </trkpt>
      <trkpt lat="44.34421" lon="1.73085">
        <ele>374.09</ele>
        <time>2021-08-17T12:03:31Z</time>
      </trkpt>
      <trkpt lat="44.34417" lon="1.73117">
        <ele>375.05</ele>
        <time>2021-08-17T12:03:40Z</time>
      </trkpt>
      <trkpt lat="44.34412" lon="1.73142">
        <ele>375.53</ele>
        <time>2021-08-17T12:03:48Z</time>
      </trkpt>
      <trkpt lat="44.34408" lon="1.73169">
        <ele>376.49</ele>
        <time>2021-08-17T12:03:55Z</time>
      </trkpt>
      <trkpt lat="44.34401" lon="1.73207">
        <ele>376.49</ele>
        <time>2021-08-17T12:04:03Z</time>
      </trkpt>
      <trkpt lat="44.34396" lon="1.73237">
        <ele>376.97</ele>
        <time>2021-08-17T12:04:09Z</time>
      </trkpt>
      <trkpt lat="44.34393" lon="1.73276">
        <ele>377.45</ele>
        <time>2021-08-17T12:04:16Z</time>
      </trkpt>
      <trkpt lat="44.34387" lon="1.73327">
        <ele>377.45</ele>
        <time>2021-08-17T12:04:25Z</time>
      </trkpt>
      <trkpt lat="44.34384" lon="1.73364">
        <ele>374.57</ele>
        <time>2021-08-17T12:04:30Z</time>
      </trkpt>
      <trkpt lat="44.34383" lon="1.73423">
        <ele>371.21</ele>
        <time>2021-08-17T12:04:36Z</time>
      </trkpt>
      <trkpt lat="44.34383" lon="1.73443">
        <ele>370.73</ele>
        <time>2021-08-17T12:04:38Z</time>
      </trkpt>
      <trkpt lat="44.34374" lon="1.7352">
        <ele>369.76</ele>
        <time>2021-08-17T12:04:46Z</time>
      </trkpt>
      <trkpt lat="44.34364" lon="1.73559">
        <ele>367.36</ele>
        <time>2021-08-17T12:04:50Z</time>
      </trkpt>
      <trkpt lat="44.34345" lon="1.73631">
        <ele>365.92</ele>
        <time>2021-08-17T12:04:57Z</time>
      </trkpt>
      <trkpt lat="44.34328" lon="1.73686">
        <ele>365.92</ele>
        <time>2021-08-17T12:05:04Z</time>
      </trkpt>
      <trkpt lat="44.34314" lon="1.73728">
        <ele>367.36</ele>
        <time>2021-08-17T12:05:11Z</time>
      </trkpt>
      <trkpt lat="44.34302" lon="1.73766">
        <ele>367.84</ele>
        <time>2021-08-17T12:05:18Z</time>
      </trkpt>
      <trkpt lat="44.34301" lon="1.73771">
        <ele>367.84</ele>
        <time>2021-08-17T12:05:19Z</time>
      </trkpt>
      <trkpt lat="44.343" lon="1.73777">
        <ele>368.32</ele>
        <time>2021-08-17T12:05:20Z</time>
      </trkpt>
      <trkpt lat="44.34288" lon="1.7382">
        <ele>368.32</ele>
        <time>2021-08-17T12:05:27Z</time>
      </trkpt>
      <trkpt lat="44.34273" lon="1.73867">
        <ele>368.32</ele>
        <time>2021-08-17T12:05:35Z</time>
      </trkpt>
      <trkpt lat="44.34263" lon="1.73898">
        <ele>368.32</ele>
        <time>2021-08-17T12:05:40Z</time>
      </trkpt>
      <trkpt lat="44.34254" lon="1.73941">
        <ele>369.28</ele>
        <time>2021-08-17T12:05:47Z</time>
      </trkpt>
      <trkpt lat="44.34254" lon="1.73996">
        <ele>369.76</ele>
        <time>2021-08-17T12:05:56Z</time>
      </trkpt>
      <trkpt lat="44.34267" lon="1.74047">
        <ele>370.24</ele>
        <time>2021-08-17T12:06:05Z</time>
      </trkpt>
      <trkpt lat="44.34277" lon="1.74081">
        <ele>370.73</ele>
        <time>2021-08-17T12:06:11Z</time>
      </trkpt>
      <trkpt lat="44.34279" lon="1.74087">
        <ele>371.21</ele>
        <time>2021-08-17T12:06:12Z</time>
      </trkpt>
      <trkpt lat="44.34294" lon="1.74138">
        <ele>372.17</ele>
        <time>2021-08-17T12:06:21Z</time>
      </trkpt>
      <trkpt lat="44.34307" lon="1.74185">
        <ele>372.65</ele>
        <time>2021-08-17T12:06:29Z</time>
      </trkpt>
      <trkpt lat="44.34315" lon="1.7424">
        <ele>373.13</ele>
        <time>2021-08-17T12:06:38Z</time>
      </trkpt>
      <trkpt lat="44.3432" lon="1.74296">
        <ele>374.09</ele>
        <time>2021-08-17T12:06:47Z</time>
      </trkpt>
      <trkpt lat="44.3432" lon="1.74366">
        <ele>374.57</ele>
        <time>2021-08-17T12:06:58Z</time>
      </trkpt>
      <trkpt lat="44.34311" lon="1.74412">
        <ele>375.05</ele>
        <time>2021-08-17T12:07:06Z</time>
      </trkpt>
      <trkpt lat="44.343" lon="1.74447">
        <ele>376.01</ele>
        <time>2021-08-17T12:07:12Z</time>
      </trkpt>
      <trkpt lat="44.34284" lon="1.74497">
        <ele>376.97</ele>
        <time>2021-08-17T12:07:21Z</time>
      </trkpt>
      <trkpt lat="44.34268" lon="1.74539">
        <ele>377.45</ele>
        <time>2021-08-17T12:07:29Z</time>
      </trkpt>
      <trkpt lat="44.34265" lon="1.74544">
        <ele>377.45</ele>
        <time>2021-08-17T12:07:30Z</time>
      </trkpt>
      <trkpt lat="44.34253" lon="1.74562">
        <ele>377.94</ele>
        <time>2021-08-17T12:07:34Z</time>
      </trkpt>
      <trkpt lat="44.3425" lon="1.74566">
        <ele>377.94</ele>
        <time>2021-08-17T12:07:35Z</time>
      </trkpt>
      <trkpt lat="44.34241" lon="1.74573">
        <ele>378.42</ele>
        <time>2021-08-17T12:07:37Z</time>
      </trkpt>
      <trkpt lat="44.34238" lon="1.74576">
        <ele>378.42</ele>
        <time>2021-08-17T12:07:38Z</time>
      </trkpt>
      <trkpt lat="44.34228" lon="1.74585">
        <ele>378.42</ele>
        <time>2021-08-17T12:07:41Z</time>
      </trkpt>
      <trkpt lat="44.34224" lon="1.74587">
        <ele>378.9</ele>
        <time>2021-08-17T12:07:42Z</time>
      </trkpt>
      <trkpt lat="44.3419" lon="1.74608">
        <ele>379.38</ele>
        <time>2021-08-17T12:07:51Z</time>
      </trkpt>
      <trkpt lat="44.34164" lon="1.74625">
        <ele>379.86</ele>
        <time>2021-08-17T12:07:58Z</time>
      </trkpt>
      <trkpt lat="44.34152" lon="1.74637">
        <ele>379.86</ele>
        <time>2021-08-17T12:08:01Z</time>
      </trkpt>
      <trkpt lat="44.34144" lon="1.74647">
        <ele>379.86</ele>
        <time>2021-08-17T12:08:04Z</time>
      </trkpt>
      <trkpt lat="44.34138" lon="1.74655">
        <ele>379.86</ele>
        <time>2021-08-17T12:08:05Z</time>
      </trkpt>
      <trkpt lat="44.34137" lon="1.74658">
        <ele>379.86</ele>
        <time>2021-08-17T12:08:06Z</time>
      </trkpt>
      <trkpt lat="44.34111" lon="1.74705">
        <ele>380.82</ele>
        <time>2021-08-17T12:08:16Z</time>
      </trkpt>
      <trkpt lat="44.34108" lon="1.74711">
        <ele>381.3</ele>
        <time>2021-08-17T12:08:17Z</time>
      </trkpt>
      <trkpt lat="44.34084" lon="1.74756">
        <ele>382.26</ele>
        <time>2021-08-17T12:08:26Z</time>
      </trkpt>
      <trkpt lat="44.34073" lon="1.74781">
        <ele>382.26</ele>
        <time>2021-08-17T12:08:32Z</time>
      </trkpt>
      <trkpt lat="44.34068" lon="1.74798">
        <ele>381.3</ele>
        <time>2021-08-17T12:08:36Z</time>
      </trkpt>
      <trkpt lat="44.34067" lon="1.74806">
        <ele>380.82</ele>
        <time>2021-08-17T12:08:37Z</time>
      </trkpt>
      <trkpt lat="44.34061" lon="1.74823">
        <ele>380.82</ele>
        <time>2021-08-17T12:08:40Z</time>
      </trkpt>
      <trkpt lat="44.34058" lon="1.74827">
        <ele>380.82</ele>
        <time>2021-08-17T12:08:41Z</time>
      </trkpt>
      <trkpt lat="44.34044" lon="1.74862">
        <ele>380.82</ele>
        <time>2021-08-17T12:08:48Z</time>
      </trkpt>
      <trkpt lat="44.34033" lon="1.74889">
        <ele>380.82</ele>
        <time>2021-08-17T12:08:55Z</time>
      </trkpt>
      <trkpt lat="44.34028" lon="1.74921">
        <ele>380.82</ele>
        <time>2021-08-17T12:09:01Z</time>
      </trkpt>
      <trkpt lat="44.34016" lon="1.74979">
        <ele>380.82</ele>
        <time>2021-08-17T12:09:11Z</time>
      </trkpt>
      <trkpt lat="44.34014" lon="1.74993">
        <ele>382.26</ele>
        <time>2021-08-17T12:09:14Z</time>
      </trkpt>
      <trkpt lat="44.34011" lon="1.75014">
        <ele>383.22</ele>
        <time>2021-08-17T12:09:21Z</time>
      </trkpt>
      <trkpt lat="44.3401" lon="1.75022">
        <ele>383.7</ele>
        <time>2021-08-17T12:09:24Z</time>
      </trkpt>
      <trkpt lat="44.3401" lon="1.75027">
        <ele>383.7</ele>
        <time>2021-08-17T12:09:25Z</time>
      </trkpt>
      <trkpt lat="44.3401" lon="1.75033">
        <ele>384.18</ele>
        <time>2021-08-17T12:09:27Z</time>
      </trkpt>
      <trkpt lat="44.34009" lon="1.75038">
        <ele>384.18</ele>
        <time>2021-08-17T12:09:29Z</time>
      </trkpt>
      <trkpt lat="44.34009" lon="1.7504">
        <ele>384.18</ele>
        <time>2021-08-17T12:09:30Z</time>
      </trkpt>
      <trkpt lat="44.34008" lon="1.75043">
        <ele>384.18</ele>
        <time>2021-08-17T12:09:31Z</time>
      </trkpt>
      <trkpt lat="44.34008" lon="1.75045">
        <ele>384.66</ele>
        <time>2021-08-17T12:09:32Z</time>
      </trkpt>
      <trkpt lat="44.34008" lon="1.75048">
        <ele>384.66</ele>
        <time>2021-08-17T12:09:33Z</time>
      </trkpt>
      <trkpt lat="44.34007" lon="1.7505">
        <ele>384.66</ele>
        <time>2021-08-17T12:09:34Z</time>
      </trkpt>
      <trkpt lat="44.34007" lon="1.75052">
        <ele>384.66</ele>
        <time>2021-08-17T12:09:35Z</time>
      </trkpt>
      <trkpt lat="44.34007" lon="1.75055">
        <ele>385.15</ele>
        <time>2021-08-17T12:09:36Z</time>
      </trkpt>
      <trkpt lat="44.34007" lon="1.75057">
        <ele>385.15</ele>
        <time>2021-08-17T12:09:37Z</time>
      </trkpt>
      <trkpt lat="44.34007" lon="1.7506">
        <ele>385.15</ele>
        <time>2021-08-17T12:09:38Z</time>
      </trkpt>
      <trkpt lat="44.34007" lon="1.75062">
        <ele>385.15</ele>
        <time>2021-08-17T12:09:39Z</time>
      </trkpt>
      <trkpt lat="44.34007" lon="1.75065">
        <ele>385.63</ele>
        <time>2021-08-17T12:09:40Z</time>
      </trkpt>
      <trkpt lat="44.34005" lon="1.75078">
        <ele>386.59</ele>
        <time>2021-08-17T12:09:46Z</time>
      </trkpt>
      <trkpt lat="44.34004" lon="1.75098">
        <ele>387.55</ele>
        <time>2021-08-17T12:09:53Z</time>
      </trkpt>
      <trkpt lat="44.34006" lon="1.751">
        <ele>387.55</ele>
        <time>2021-08-17T12:09:54Z</time>
      </trkpt>
      <trkpt lat="44.34016" lon="1.75132">
        <ele>388.03</ele>
        <time>2021-08-17T12:10:03Z</time>
      </trkpt>
      <trkpt lat="44.34022" lon="1.7518">
        <ele>388.51</ele>
        <time>2021-08-17T12:10:14Z</time>
      </trkpt>
      <trkpt lat="44.3402" lon="1.75217">
        <ele>388.51</ele>
        <time>2021-08-17T12:10:21Z</time>
      </trkpt>
      <trkpt lat="44.34016" lon="1.75252">
        <ele>388.51</ele>
        <time>2021-08-17T12:10:28Z</time>
      </trkpt>
      <trkpt lat="44.34012" lon="1.75287">
        <ele>388.51</ele>
        <time>2021-08-17T12:10:35Z</time>
      </trkpt>
      <trkpt lat="44.34013" lon="1.75338">
        <ele>387.55</ele>
        <time>2021-08-17T12:10:42Z</time>
      </trkpt>
      <trkpt lat="44.34014" lon="1.7542">
        <ele>387.55</ele>
        <time>2021-08-17T12:10:54Z</time>
      </trkpt>
      <trkpt lat="44.34014" lon="1.75471">
        <ele>387.55</ele>
        <time>2021-08-17T12:11:02Z</time>
      </trkpt>
      <trkpt lat="44.34013" lon="1.75484">
        <ele>388.99</ele>
        <time>2021-08-17T12:11:04Z</time>
      </trkpt>
      <trkpt lat="44.34011" lon="1.75533">
        <ele>390.43</ele>
        <time>2021-08-17T12:11:13Z</time>
      </trkpt>
      <trkpt lat="44.34012" lon="1.75567">
        <ele>391.39</ele>
        <time>2021-08-17T12:11:21Z</time>
      </trkpt>
      <trkpt lat="44.34014" lon="1.75605">
        <ele>392.36</ele>
        <time>2021-08-17T12:11:30Z</time>
      </trkpt>
      <trkpt lat="44.34015" lon="1.75642">
        <ele>392.36</ele>
        <time>2021-08-17T12:11:39Z</time>
      </trkpt>
      <trkpt lat="44.34016" lon="1.75685">
        <ele>393.8</ele>
        <time>2021-08-17T12:11:49Z</time>
      </trkpt>
      <trkpt lat="44.34015" lon="1.75726">
        <ele>394.28</ele>
        <time>2021-08-17T12:11:59Z</time>
      </trkpt>
      <trkpt lat="44.34015" lon="1.75765">
        <ele>395.24</ele>
        <time>2021-08-17T12:12:08Z</time>
      </trkpt>
      <trkpt lat="44.34015" lon="1.75791">
        <ele>396.68</ele>
        <time>2021-08-17T12:12:15Z</time>
      </trkpt>
      <trkpt lat="44.34014" lon="1.75823">
        <ele>397.16</ele>
        <time>2021-08-17T12:12:22Z</time>
      </trkpt>
      <trkpt lat="44.34014" lon="1.75845">
        <ele>397.64</ele>
        <time>2021-08-17T12:12:28Z</time>
      </trkpt>
      <trkpt lat="44.34015" lon="1.75878">
        <ele>396.2</ele>
        <time>2021-08-17T12:12:34Z</time>
      </trkpt>
      <trkpt lat="44.34015" lon="1.75924">
        <ele>394.76</ele>
        <time>2021-08-17T12:12:41Z</time>
      </trkpt>
      <trkpt lat="44.34014" lon="1.7593">
        <ele>394.76</ele>
        <time>2021-08-17T12:12:42Z</time>
      </trkpt>
      <trkpt lat="44.34013" lon="1.75937">
        <ele>394.76</ele>
        <time>2021-08-17T12:12:43Z</time>
      </trkpt>
      <trkpt lat="44.34012" lon="1.75944">
        <ele>394.76</ele>
        <time>2021-08-17T12:12:44Z</time>
      </trkpt>
      <trkpt lat="44.3401" lon="1.7595">
        <ele>394.76</ele>
        <time>2021-08-17T12:12:45Z</time>
      </trkpt>
      <trkpt lat="44.34007" lon="1.75955">
        <ele>394.76</ele>
        <time>2021-08-17T12:12:46Z</time>
      </trkpt>
      <trkpt lat="44.34005" lon="1.7596">
        <ele>394.76</ele>
        <time>2021-08-17T12:12:47Z</time>
      </trkpt>
      <trkpt lat="44.33989" lon="1.75988">
        <ele>394.76</ele>
        <time>2021-08-17T12:12:54Z</time>
      </trkpt>
      <trkpt lat="44.33974" lon="1.76013">
        <ele>394.76</ele>
        <time>2021-08-17T12:13:00Z</time>
      </trkpt>
      <trkpt lat="44.33966" lon="1.76027">
        <ele>394.76</ele>
        <time>2021-08-17T12:13:03Z</time>
      </trkpt>
      <trkpt lat="44.33964" lon="1.76032">
        <ele>394.76</ele>
        <time>2021-08-17T12:13:04Z</time>
      </trkpt>
      <trkpt lat="44.33962" lon="1.76037">
        <ele>394.76</ele>
        <time>2021-08-17T12:13:05Z</time>
      </trkpt>
      <trkpt lat="44.33945" lon="1.76075">
        <ele>396.2</ele>
        <time>2021-08-17T12:13:13Z</time>
      </trkpt>
      <trkpt lat="44.33943" lon="1.7608">
        <ele>396.2</ele>
        <time>2021-08-17T12:13:14Z</time>
      </trkpt>
      <trkpt lat="44.33932" lon="1.76111">
        <ele>396.68</ele>
        <time>2021-08-17T12:13:21Z</time>
      </trkpt>
      <trkpt lat="44.33915" lon="1.76145">
        <ele>397.16</ele>
        <time>2021-08-17T12:13:29Z</time>
      </trkpt>
      <trkpt lat="44.33911" lon="1.76147">
        <ele>397.16</ele>
        <time>2021-08-17T12:13:30Z</time>
      </trkpt>
      <trkpt lat="44.33908" lon="1.76148">
        <ele>396.68</ele>
        <time>2021-08-17T12:13:31Z</time>
      </trkpt>
      <trkpt lat="44.33904" lon="1.76148">
        <ele>396.68</ele>
        <time>2021-08-17T12:13:32Z</time>
      </trkpt>
      <trkpt lat="44.33872" lon="1.76141">
        <ele>393.8</ele>
        <time>2021-08-17T12:13:38Z</time>
      </trkpt>
      <trkpt lat="44.33831" lon="1.76132">
        <ele>390.43</ele>
        <time>2021-08-17T12:13:44Z</time>
      </trkpt>
      <trkpt lat="44.33772" lon="1.7612">
        <ele>387.07</ele>
        <time>2021-08-17T12:13:51Z</time>
      </trkpt>
      <trkpt lat="44.33763" lon="1.76119">
        <ele>387.07</ele>
        <time>2021-08-17T12:13:52Z</time>
      </trkpt>
      <trkpt lat="44.33713" lon="1.76117">
        <ele>386.59</ele>
        <time>2021-08-17T12:13:58Z</time>
      </trkpt>
      <trkpt lat="44.33681" lon="1.76113">
        <ele>385.63</ele>
        <time>2021-08-17T12:14:02Z</time>
      </trkpt>
      <trkpt lat="44.3366" lon="1.76111">
        <ele>385.15</ele>
        <time>2021-08-17T12:14:05Z</time>
      </trkpt>
      <trkpt lat="44.33655" lon="1.76114">
        <ele>384.66</ele>
        <time>2021-08-17T12:14:06Z</time>
      </trkpt>
      <trkpt lat="44.33651" lon="1.7612">
        <ele>384.66</ele>
        <time>2021-08-17T12:14:07Z</time>
      </trkpt>
      <trkpt lat="44.33625" lon="1.76158">
        <ele>383.7</ele>
        <time>2021-08-17T12:14:13Z</time>
      </trkpt>
      <trkpt lat="44.3362" lon="1.7616">
        <ele>383.7</ele>
        <time>2021-08-17T12:14:14Z</time>
      </trkpt>
      <trkpt lat="44.33615" lon="1.76159">
        <ele>382.74</ele>
        <time>2021-08-17T12:14:15Z</time>
      </trkpt>
      <trkpt lat="44.3361" lon="1.76155">
        <ele>382.26</ele>
        <time>2021-08-17T12:14:16Z</time>
      </trkpt>
      <trkpt lat="44.33606" lon="1.7615">
        <ele>382.26</ele>
        <time>2021-08-17T12:14:17Z</time>
      </trkpt>
      <trkpt lat="44.33601" lon="1.76143">
        <ele>380.82</ele>
        <time>2021-08-17T12:14:18Z</time>
      </trkpt>
      <trkpt lat="44.33591" lon="1.76129">
        <ele>379.38</ele>
        <time>2021-08-17T12:14:20Z</time>
      </trkpt>
      <trkpt lat="44.33585" lon="1.76122">
        <ele>378.9</ele>
        <time>2021-08-17T12:14:21Z</time>
      </trkpt>
      <trkpt lat="44.33579" lon="1.76116">
        <ele>377.45</ele>
        <time>2021-08-17T12:14:22Z</time>
      </trkpt>
      <trkpt lat="44.33573" lon="1.76109">
        <ele>376.49</ele>
        <time>2021-08-17T12:14:23Z</time>
      </trkpt>
      <trkpt lat="44.33566" lon="1.76104">
        <ele>375.53</ele>
        <time>2021-08-17T12:14:24Z</time>
      </trkpt>
      <trkpt lat="44.33531" lon="1.76079">
        <ele>372.65</ele>
        <time>2021-08-17T12:14:28Z</time>
      </trkpt>
      <trkpt lat="44.33506" lon="1.76063">
        <ele>371.69</ele>
        <time>2021-08-17T12:14:31Z</time>
      </trkpt>
      <trkpt lat="44.335" lon="1.76061">
        <ele>371.21</ele>
        <time>2021-08-17T12:14:32Z</time>
      </trkpt>
      <trkpt lat="44.33493" lon="1.76061">
        <ele>370.73</ele>
        <time>2021-08-17T12:14:33Z</time>
      </trkpt>
      <trkpt lat="44.33486" lon="1.76061">
        <ele>369.76</ele>
        <time>2021-08-17T12:14:34Z</time>
      </trkpt>
      <trkpt lat="44.33481" lon="1.76062">
        <ele>369.76</ele>
        <time>2021-08-17T12:14:35Z</time>
      </trkpt>
      <trkpt lat="44.33463" lon="1.76063">
        <ele>368.8</ele>
        <time>2021-08-17T12:14:39Z</time>
      </trkpt>
      <trkpt lat="44.33458" lon="1.76061">
        <ele>368.32</ele>
        <time>2021-08-17T12:14:40Z</time>
      </trkpt>
      <trkpt lat="44.33453" lon="1.76057">
        <ele>368.32</ele>
        <time>2021-08-17T12:14:41Z</time>
      </trkpt>
      <trkpt lat="44.33405" lon="1.76022">
        <ele>367.84</ele>
        <time>2021-08-17T12:14:50Z</time>
      </trkpt>
      <trkpt lat="44.33367" lon="1.76003">
        <ele>367.84</ele>
        <time>2021-08-17T12:14:57Z</time>
      </trkpt>
      <trkpt lat="44.33361" lon="1.76003">
        <ele>367.84</ele>
        <time>2021-08-17T12:14:58Z</time>
      </trkpt>
      <trkpt lat="44.33356" lon="1.76003">
        <ele>367.84</ele>
        <time>2021-08-17T12:14:59Z</time>
      </trkpt>
      <trkpt lat="44.33335" lon="1.76008">
        <ele>367.84</ele>
        <time>2021-08-17T12:15:03Z</time>
      </trkpt>
      <trkpt lat="44.33324" lon="1.76016">
        <ele>369.28</ele>
        <time>2021-08-17T12:15:06Z</time>
      </trkpt>
      <trkpt lat="44.33312" lon="1.76026">
        <ele>370.24</ele>
        <time>2021-08-17T12:15:11Z</time>
      </trkpt>
      <trkpt lat="44.3331" lon="1.76027">
        <ele>370.73</ele>
        <time>2021-08-17T12:15:12Z</time>
      </trkpt>
      <trkpt lat="44.33307" lon="1.76028">
        <ele>370.73</ele>
        <time>2021-08-17T12:15:13Z</time>
      </trkpt>
      <trkpt lat="44.33305" lon="1.7603">
        <ele>371.21</ele>
        <time>2021-08-17T12:15:14Z</time>
      </trkpt>
      <trkpt lat="44.33303" lon="1.76031">
        <ele>371.21</ele>
        <time>2021-08-17T12:15:15Z</time>
      </trkpt>
      <trkpt lat="44.33282" lon="1.76044">
        <ele>371.69</ele>
        <time>2021-08-17T12:15:23Z</time>
      </trkpt>
      <trkpt lat="44.33267" lon="1.76061">
        <ele>371.69</ele>
        <time>2021-08-17T12:15:28Z</time>
      </trkpt>
      <trkpt lat="44.33243" lon="1.76104">
        <ele>371.69</ele>
        <time>2021-08-17T12:15:36Z</time>
      </trkpt>
      <trkpt lat="44.33225" lon="1.7614">
        <ele>370.24</ele>
        <time>2021-08-17T12:15:42Z</time>
      </trkpt>
      <trkpt lat="44.33222" lon="1.76147">
        <ele>370.24</ele>
        <time>2021-08-17T12:15:43Z</time>
      </trkpt>
      <trkpt lat="44.3322" lon="1.76154">
        <ele>370.24</ele>
        <time>2021-08-17T12:15:44Z</time>
      </trkpt>
      <trkpt lat="44.33219" lon="1.76161">
        <ele>370.24</ele>
        <time>2021-08-17T12:15:45Z</time>
      </trkpt>
      <trkpt lat="44.33218" lon="1.76168">
        <ele>370.24</ele>
        <time>2021-08-17T12:15:46Z</time>
      </trkpt>
      <trkpt lat="44.33217" lon="1.76175">
        <ele>370.24</ele>
        <time>2021-08-17T12:15:47Z</time>
      </trkpt>
      <trkpt lat="44.33216" lon="1.76181">
        <ele>370.24</ele>
        <time>2021-08-17T12:15:48Z</time>
      </trkpt>
      <trkpt lat="44.33215" lon="1.76187">
        <ele>370.24</ele>
        <time>2021-08-17T12:15:49Z</time>
      </trkpt>
      <trkpt lat="44.33209" lon="1.76214">
        <ele>370.24</ele>
        <time>2021-08-17T12:15:54Z</time>
      </trkpt>
      <trkpt lat="44.33206" lon="1.76215">
        <ele>370.24</ele>
        <time>2021-08-17T12:15:55Z</time>
      </trkpt>
      <trkpt lat="44.33202" lon="1.76215">
        <ele>370.24</ele>
        <time>2021-08-17T12:15:56Z</time>
      </trkpt>
      <trkpt lat="44.33198" lon="1.76215">
        <ele>370.24</ele>
        <time>2021-08-17T12:15:57Z</time>
      </trkpt>
      <trkpt lat="44.33194" lon="1.76215">
        <ele>370.24</ele>
        <time>2021-08-17T12:15:58Z</time>
      </trkpt>
      <trkpt lat="44.33163" lon="1.76219">
        <ele>367.36</ele>
        <time>2021-08-17T12:16:04Z</time>
      </trkpt>
      <trkpt lat="44.33157" lon="1.76221">
        <ele>366.4</ele>
        <time>2021-08-17T12:16:05Z</time>
      </trkpt>
      <trkpt lat="44.33152" lon="1.76224">
        <ele>366.4</ele>
        <time>2021-08-17T12:16:06Z</time>
      </trkpt>
      <trkpt lat="44.33147" lon="1.76229">
        <ele>364.96</ele>
        <time>2021-08-17T12:16:07Z</time>
      </trkpt>
      <trkpt lat="44.33142" lon="1.76235">
        <ele>364</ele>
        <time>2021-08-17T12:16:08Z</time>
      </trkpt>
      <trkpt lat="44.33137" lon="1.76241">
        <ele>363.04</ele>
        <time>2021-08-17T12:16:09Z</time>
      </trkpt>
      <trkpt lat="44.33131" lon="1.76251">
        <ele>362.55</ele>
        <time>2021-08-17T12:16:10Z</time>
      </trkpt>
      <trkpt lat="44.33113" lon="1.7628">
        <ele>358.23</ele>
        <time>2021-08-17T12:16:13Z</time>
      </trkpt>
      <trkpt lat="44.33099" lon="1.76311">
        <ele>356.79</ele>
        <time>2021-08-17T12:16:16Z</time>
      </trkpt>
      <trkpt lat="44.33095" lon="1.76321">
        <ele>356.79</ele>
        <time>2021-08-17T12:16:17Z</time>
      </trkpt>
      <trkpt lat="44.33093" lon="1.76331">
        <ele>356.79</ele>
        <time>2021-08-17T12:16:18Z</time>
      </trkpt>
      <trkpt lat="44.33093" lon="1.76341">
        <ele>356.79</ele>
        <time>2021-08-17T12:16:19Z</time>
      </trkpt>
      <trkpt lat="44.33093" lon="1.76369">
        <ele>359.19</ele>
        <time>2021-08-17T12:16:23Z</time>
      </trkpt>
      <trkpt lat="44.33091" lon="1.76378">
        <ele>360.63</ele>
        <time>2021-08-17T12:16:26Z</time>
      </trkpt>
      <trkpt lat="44.33089" lon="1.76392">
        <ele>362.07</ele>
        <time>2021-08-17T12:16:34Z</time>
      </trkpt>
      <trkpt lat="44.33085" lon="1.76404">
        <ele>364</ele>
        <time>2021-08-17T12:16:43Z</time>
      </trkpt>
      <trkpt lat="44.33079" lon="1.76416">
        <ele>364.96</ele>
        <time>2021-08-17T12:16:51Z</time>
      </trkpt>
      <trkpt lat="44.33076" lon="1.76425">
        <ele>365.44</ele>
        <time>2021-08-17T12:16:57Z</time>
      </trkpt>
      <trkpt lat="44.33071" lon="1.76436">
        <ele>366.88</ele>
        <time>2021-08-17T12:17:04Z</time>
      </trkpt>
      <trkpt lat="44.33067" lon="1.76448">
        <ele>367.84</ele>
        <time>2021-08-17T12:17:10Z</time>
      </trkpt>
      <trkpt lat="44.33066" lon="1.7645">
        <ele>367.84</ele>
        <time>2021-08-17T12:17:11Z</time>
      </trkpt>
      <trkpt lat="44.33065" lon="1.76452">
        <ele>367.84</ele>
        <time>2021-08-17T12:17:12Z</time>
      </trkpt>
      <trkpt lat="44.33057" lon="1.76477">
        <ele>368.32</ele>
        <time>2021-08-17T12:17:19Z</time>
      </trkpt>
      <trkpt lat="44.33046" lon="1.76508">
        <ele>368.32</ele>
        <time>2021-08-17T12:17:25Z</time>
      </trkpt>
      <trkpt lat="44.33039" lon="1.76516">
        <ele>368.32</ele>
        <time>2021-08-17T12:17:27Z</time>
      </trkpt>
      <trkpt lat="44.33007" lon="1.76548">
        <ele>368.32</ele>
        <time>2021-08-17T12:17:36Z</time>
      </trkpt>
      <trkpt lat="44.32972" lon="1.76581">
        <ele>369.28</ele>
        <time>2021-08-17T12:17:46Z</time>
      </trkpt>
      <trkpt lat="44.32955" lon="1.76608">
        <ele>370.24</ele>
        <time>2021-08-17T12:17:53Z</time>
      </trkpt>
      <trkpt lat="44.32938" lon="1.76635">
        <ele>372.65</ele>
        <time>2021-08-17T12:18:02Z</time>
      </trkpt>
      <trkpt lat="44.32928" lon="1.76651">
        <ele>373.61</ele>
        <time>2021-08-17T12:18:10Z</time>
      </trkpt>
      <trkpt lat="44.32919" lon="1.76664">
        <ele>374.09</ele>
        <time>2021-08-17T12:18:17Z</time>
      </trkpt>
      <trkpt lat="44.329" lon="1.76685">
        <ele>374.57</ele>
        <time>2021-08-17T12:18:25Z</time>
      </trkpt>
      <trkpt lat="44.32883" lon="1.76709">
        <ele>375.05</ele>
        <time>2021-08-17T12:18:33Z</time>
      </trkpt>
      <trkpt lat="44.32864" lon="1.76731">
        <ele>375.05</ele>
        <time>2021-08-17T12:18:40Z</time>
      </trkpt>
      <trkpt lat="44.32838" lon="1.76767">
        <ele>373.13</ele>
        <time>2021-08-17T12:18:47Z</time>
      </trkpt>
      <trkpt lat="44.32834" lon="1.76772">
        <ele>373.13</ele>
        <time>2021-08-17T12:18:48Z</time>
      </trkpt>
      <trkpt lat="44.32831" lon="1.76777">
        <ele>373.13</ele>
        <time>2021-08-17T12:18:49Z</time>
      </trkpt>
      <trkpt lat="44.32813" lon="1.76803">
        <ele>372.65</ele>
        <time>2021-08-17T12:18:54Z</time>
      </trkpt>
      <trkpt lat="44.32806" lon="1.76813">
        <ele>372.17</ele>
        <time>2021-08-17T12:18:56Z</time>
      </trkpt>
      <trkpt lat="44.32774" lon="1.76843">
        <ele>371.21</ele>
        <time>2021-08-17T12:19:04Z</time>
      </trkpt>
      <trkpt lat="44.32736" lon="1.7687">
        <ele>368.8</ele>
        <time>2021-08-17T12:19:11Z</time>
      </trkpt>
      <trkpt lat="44.32685" lon="1.76901">
        <ele>366.88</ele>
        <time>2021-08-17T12:19:20Z</time>
      </trkpt>
      <trkpt lat="44.32679" lon="1.76903">
        <ele>367.36</ele>
        <time>2021-08-17T12:19:21Z</time>
      </trkpt>
      <trkpt lat="44.32655" lon="1.76909">
        <ele>366.88</ele>
        <time>2021-08-17T12:19:25Z</time>
      </trkpt>
      <trkpt lat="44.3265" lon="1.76912">
        <ele>366.4</ele>
        <time>2021-08-17T12:19:26Z</time>
      </trkpt>
      <trkpt lat="44.32629" lon="1.76922">
        <ele>366.4</ele>
        <time>2021-08-17T12:19:30Z</time>
      </trkpt>
      <trkpt lat="44.32599" lon="1.7694">
        <ele>364.48</ele>
        <time>2021-08-17T12:19:36Z</time>
      </trkpt>
      <trkpt lat="44.3259" lon="1.76945">
        <ele>364.48</ele>
        <time>2021-08-17T12:19:38Z</time>
      </trkpt>
      <trkpt lat="44.32555" lon="1.76963">
        <ele>364</ele>
        <time>2021-08-17T12:19:45Z</time>
      </trkpt>
      <trkpt lat="44.32542" lon="1.76971">
        <ele>363.52</ele>
        <time>2021-08-17T12:19:48Z</time>
      </trkpt>
      <trkpt lat="44.32534" lon="1.76978">
        <ele>363.52</ele>
        <time>2021-08-17T12:19:50Z</time>
      </trkpt>
      <trkpt lat="44.32506" lon="1.77002">
        <ele>362.55</ele>
        <time>2021-08-17T12:19:56Z</time>
      </trkpt>
      <trkpt lat="44.32457" lon="1.77034">
        <ele>360.15</ele>
        <time>2021-08-17T12:20:04Z</time>
      </trkpt>
      <trkpt lat="44.32441" lon="1.77041">
        <ele>359.67</ele>
        <time>2021-08-17T12:20:06Z</time>
      </trkpt>
      <trkpt lat="44.32432" lon="1.77043">
        <ele>359.19</ele>
        <time>2021-08-17T12:20:07Z</time>
      </trkpt>
      <trkpt lat="44.32392" lon="1.77053">
        <ele>356.31</ele>
        <time>2021-08-17T12:20:12Z</time>
      </trkpt>
      <trkpt lat="44.32368" lon="1.77064">
        <ele>355.34</ele>
        <time>2021-08-17T12:20:15Z</time>
      </trkpt>
      <trkpt lat="44.32361" lon="1.77068">
        <ele>355.34</ele>
        <time>2021-08-17T12:20:16Z</time>
      </trkpt>
      <trkpt lat="44.32343" lon="1.77083">
        <ele>356.79</ele>
        <time>2021-08-17T12:20:19Z</time>
      </trkpt>
      <trkpt lat="44.32338" lon="1.77088">
        <ele>357.27</ele>
        <time>2021-08-17T12:20:20Z</time>
      </trkpt>
      <trkpt lat="44.32303" lon="1.7712">
        <ele>355.83</ele>
        <time>2021-08-17T12:20:27Z</time>
      </trkpt>
      <trkpt lat="44.3228" lon="1.7714">
        <ele>352.94</ele>
        <time>2021-08-17T12:20:31Z</time>
      </trkpt>
      <trkpt lat="44.3225" lon="1.77167">
        <ele>349.1</ele>
        <time>2021-08-17T12:20:35Z</time>
      </trkpt>
      <trkpt lat="44.32228" lon="1.7719">
        <ele>347.65</ele>
        <time>2021-08-17T12:20:38Z</time>
      </trkpt>
      <trkpt lat="44.32191" lon="1.77237">
        <ele>346.21</ele>
        <time>2021-08-17T12:20:44Z</time>
      </trkpt>
      <trkpt lat="44.3216" lon="1.77269">
        <ele>346.69</ele>
        <time>2021-08-17T12:20:50Z</time>
      </trkpt>
      <trkpt lat="44.32138" lon="1.77288">
        <ele>347.65</ele>
        <time>2021-08-17T12:20:56Z</time>
      </trkpt>
      <trkpt lat="44.32121" lon="1.77306">
        <ele>348.13</ele>
        <time>2021-08-17T12:21:03Z</time>
      </trkpt>
      <trkpt lat="44.32112" lon="1.77316">
        <ele>349.1</ele>
        <time>2021-08-17T12:21:08Z</time>
      </trkpt>
      <trkpt lat="44.32107" lon="1.77324">
        <ele>350.06</ele>
        <time>2021-08-17T12:21:13Z</time>
      </trkpt>
      <trkpt lat="44.32104" lon="1.77327">
        <ele>350.06</ele>
        <time>2021-08-17T12:21:16Z</time>
      </trkpt>
      <trkpt lat="44.32103" lon="1.77328">
        <ele>350.06</ele>
        <time>2021-08-17T12:21:17Z</time>
      </trkpt>
      <trkpt lat="44.32102" lon="1.77329">
        <ele>350.06</ele>
        <time>2021-08-17T12:21:18Z</time>
      </trkpt>
      <trkpt lat="44.32096" lon="1.7734">
        <ele>351.02</ele>
        <time>2021-08-17T12:21:24Z</time>
      </trkpt>
      <trkpt lat="44.32094" lon="1.77342">
        <ele>351.02</ele>
        <time>2021-08-17T12:21:25Z</time>
      </trkpt>
      <trkpt lat="44.32093" lon="1.77344">
        <ele>351.02</ele>
        <time>2021-08-17T12:21:26Z</time>
      </trkpt>
      <trkpt lat="44.32091" lon="1.77345">
        <ele>351.02</ele>
        <time>2021-08-17T12:21:27Z</time>
      </trkpt>
      <trkpt lat="44.3209" lon="1.77347">
        <ele>351.02</ele>
        <time>2021-08-17T12:21:28Z</time>
      </trkpt>
      <trkpt lat="44.32089" lon="1.77349">
        <ele>351.02</ele>
        <time>2021-08-17T12:21:29Z</time>
      </trkpt>
      <trkpt lat="44.32075" lon="1.77366">
        <ele>351.98</ele>
        <time>2021-08-17T12:21:37Z</time>
      </trkpt>
      <trkpt lat="44.32065" lon="1.7738">
        <ele>352.46</ele>
        <time>2021-08-17T12:21:44Z</time>
      </trkpt>
      <trkpt lat="44.3206" lon="1.7739">
        <ele>352.94</ele>
        <time>2021-08-17T12:21:50Z</time>
      </trkpt>
      <trkpt lat="44.32049" lon="1.77404">
        <ele>353.42</ele>
        <time>2021-08-17T12:21:57Z</time>
      </trkpt>
      <trkpt lat="44.3204" lon="1.77416">
        <ele>354.86</ele>
        <time>2021-08-17T12:22:04Z</time>
      </trkpt>
      <trkpt lat="44.32031" lon="1.77429">
        <ele>355.34</ele>
        <time>2021-08-17T12:22:12Z</time>
      </trkpt>
      <trkpt lat="44.32022" lon="1.77442">
        <ele>356.31</ele>
        <time>2021-08-17T12:22:19Z</time>
      </trkpt>
      <trkpt lat="44.3201" lon="1.77461">
        <ele>356.31</ele>
        <time>2021-08-17T12:22:26Z</time>
      </trkpt>
      <trkpt lat="44.31998" lon="1.77482">
        <ele>356.31</ele>
        <time>2021-08-17T12:22:32Z</time>
      </trkpt>
      <trkpt lat="44.31989" lon="1.77497">
        <ele>354.86</ele>
        <time>2021-08-17T12:22:35Z</time>
      </trkpt>
      <trkpt lat="44.31985" lon="1.77503">
        <ele>354.38</ele>
        <time>2021-08-17T12:22:36Z</time>
      </trkpt>
      <trkpt lat="44.31974" lon="1.77514">
        <ele>353.42</ele>
        <time>2021-08-17T12:22:38Z</time>
      </trkpt>
      <trkpt lat="44.31969" lon="1.77519">
        <ele>352.46</ele>
        <time>2021-08-17T12:22:39Z</time>
      </trkpt>
      <trkpt lat="44.31938" lon="1.77553">
        <ele>349.58</ele>
        <time>2021-08-17T12:22:44Z</time>
      </trkpt>
      <trkpt lat="44.31934" lon="1.77558">
        <ele>349.58</ele>
        <time>2021-08-17T12:22:45Z</time>
      </trkpt>
      <trkpt lat="44.31922" lon="1.77569">
        <ele>347.65</ele>
        <time>2021-08-17T12:22:48Z</time>
      </trkpt>
      <trkpt lat="44.31906" lon="1.77576">
        <ele>345.73</ele>
        <time>2021-08-17T12:22:51Z</time>
      </trkpt>
      <trkpt lat="44.31895" lon="1.77578">
        <ele>345.73</ele>
        <time>2021-08-17T12:22:53Z</time>
      </trkpt>
      <trkpt lat="44.31885" lon="1.77582">
        <ele>345.73</ele>
        <time>2021-08-17T12:22:55Z</time>
      </trkpt>
      <trkpt lat="44.31881" lon="1.77584">
        <ele>345.73</ele>
        <time>2021-08-17T12:22:56Z</time>
      </trkpt>
      <trkpt lat="44.31873" lon="1.77587">
        <ele>347.17</ele>
        <time>2021-08-17T12:22:59Z</time>
      </trkpt>
      <trkpt lat="44.31861" lon="1.77592">
        <ele>348.13</ele>
        <time>2021-08-17T12:23:06Z</time>
      </trkpt>
      <trkpt lat="44.31846" lon="1.77593">
        <ele>349.1</ele>
        <time>2021-08-17T12:23:15Z</time>
      </trkpt>
      <trkpt lat="44.31837" lon="1.77591">
        <ele>350.54</ele>
        <time>2021-08-17T12:23:21Z</time>
      </trkpt>
      <trkpt lat="44.31825" lon="1.77583">
        <ele>351.98</ele>
        <time>2021-08-17T12:23:29Z</time>
      </trkpt>
      <trkpt lat="44.31817" lon="1.77576">
        <ele>352.46</ele>
        <time>2021-08-17T12:23:34Z</time>
      </trkpt>
      <trkpt lat="44.31815" lon="1.77576">
        <ele>352.46</ele>
        <time>2021-08-17T12:23:35Z</time>
      </trkpt>
      <trkpt lat="44.31813" lon="1.77575">
        <ele>352.46</ele>
        <time>2021-08-17T12:23:36Z</time>
      </trkpt>
      <trkpt lat="44.3181" lon="1.77574">
        <ele>352.46</ele>
        <time>2021-08-17T12:23:37Z</time>
      </trkpt>
      <trkpt lat="44.31808" lon="1.77574">
        <ele>352.46</ele>
        <time>2021-08-17T12:23:38Z</time>
      </trkpt>
      <trkpt lat="44.31805" lon="1.77575">
        <ele>352.46</ele>
        <time>2021-08-17T12:23:39Z</time>
      </trkpt>
      <trkpt lat="44.31802" lon="1.77576">
        <ele>352.46</ele>
        <time>2021-08-17T12:23:40Z</time>
      </trkpt>
      <trkpt lat="44.31799" lon="1.77578">
        <ele>352.46</ele>
        <time>2021-08-17T12:23:41Z</time>
      </trkpt>
      <trkpt lat="44.31793" lon="1.77584">
        <ele>351.5</ele>
        <time>2021-08-17T12:23:43Z</time>
      </trkpt>
      <trkpt lat="44.31788" lon="1.77588">
        <ele>351.02</ele>
        <time>2021-08-17T12:23:44Z</time>
      </trkpt>
      <trkpt lat="44.31783" lon="1.77591">
        <ele>350.54</ele>
        <time>2021-08-17T12:23:45Z</time>
      </trkpt>
      <trkpt lat="44.31759" lon="1.77606">
        <ele>347.17</ele>
        <time>2021-08-17T12:23:49Z</time>
      </trkpt>
      <trkpt lat="44.31737" lon="1.77622">
        <ele>343.81</ele>
        <time>2021-08-17T12:23:52Z</time>
      </trkpt>
      <trkpt lat="44.3172" lon="1.77633">
        <ele>342.37</ele>
        <time>2021-08-17T12:23:54Z</time>
      </trkpt>
      <trkpt lat="44.31695" lon="1.77653">
        <ele>344.29</ele>
        <time>2021-08-17T12:23:58Z</time>
      </trkpt>
      <trkpt lat="44.31661" lon="1.7768">
        <ele>344.77</ele>
        <time>2021-08-17T12:24:05Z</time>
      </trkpt>
      <trkpt lat="44.31632" lon="1.77704">
        <ele>344.77</ele>
        <time>2021-08-17T12:24:12Z</time>
      </trkpt>
      <trkpt lat="44.31608" lon="1.77725">
        <ele>343.81</ele>
        <time>2021-08-17T12:24:19Z</time>
      </trkpt>
      <trkpt lat="44.31605" lon="1.7773">
        <ele>343.81</ele>
        <time>2021-08-17T12:24:20Z</time>
      </trkpt>
      <trkpt lat="44.31578" lon="1.77775">
        <ele>343.81</ele>
        <time>2021-08-17T12:24:27Z</time>
      </trkpt>
      <trkpt lat="44.31564" lon="1.77804">
        <ele>345.25</ele>
        <time>2021-08-17T12:24:33Z</time>
      </trkpt>
      <trkpt lat="44.3155" lon="1.77837">
        <ele>346.69</ele>
        <time>2021-08-17T12:24:41Z</time>
      </trkpt>
      <trkpt lat="44.31542" lon="1.77865">
        <ele>346.69</ele>
        <time>2021-08-17T12:24:49Z</time>
      </trkpt>
      <trkpt lat="44.31541" lon="1.7789">
        <ele>346.69</ele>
        <time>2021-08-17T12:24:54Z</time>
      </trkpt>
      <trkpt lat="44.31526" lon="1.77908">
        <ele>346.69</ele>
        <time>2021-08-17T12:24:59Z</time>
      </trkpt>
      <trkpt lat="44.31523" lon="1.7791">
        <ele>346.69</ele>
        <time>2021-08-17T12:25:00Z</time>
      </trkpt>
      <trkpt lat="44.31519" lon="1.77911">
        <ele>346.69</ele>
        <time>2021-08-17T12:25:01Z</time>
      </trkpt>
      <trkpt lat="44.31501" lon="1.77922">
        <ele>347.17</ele>
        <time>2021-08-17T12:25:07Z</time>
      </trkpt>
      <trkpt lat="44.31481" lon="1.7794">
        <ele>345.25</ele>
        <time>2021-08-17T12:25:13Z</time>
      </trkpt>
      <trkpt lat="44.3145" lon="1.77961">
        <ele>343.81</ele>
        <time>2021-08-17T12:25:20Z</time>
      </trkpt>
      <trkpt lat="44.31421" lon="1.77984">
        <ele>344.29</ele>
        <time>2021-08-17T12:25:27Z</time>
      </trkpt>
      <trkpt lat="44.314" lon="1.77999">
        <ele>344.29</ele>
        <time>2021-08-17T12:25:33Z</time>
      </trkpt>
      <trkpt lat="44.31395" lon="1.78003">
        <ele>344.29</ele>
        <time>2021-08-17T12:25:34Z</time>
      </trkpt>
      <trkpt lat="44.31391" lon="1.78006">
        <ele>344.29</ele>
        <time>2021-08-17T12:25:35Z</time>
      </trkpt>
      <trkpt lat="44.31379" lon="1.78013">
        <ele>344.29</ele>
        <time>2021-08-17T12:25:38Z</time>
      </trkpt>
      <trkpt lat="44.31358" lon="1.78022">
        <ele>345.73</ele>
        <time>2021-08-17T12:25:42Z</time>
      </trkpt>
      <trkpt lat="44.31336" lon="1.78035">
        <ele>345.73</ele>
        <time>2021-08-17T12:25:49Z</time>
      </trkpt>
      <trkpt lat="44.31323" lon="1.78051">
        <ele>345.73</ele>
        <time>2021-08-17T12:25:53Z</time>
      </trkpt>
      <trkpt lat="44.31308" lon="1.78072">
        <ele>344.29</ele>
        <time>2021-08-17T12:25:57Z</time>
      </trkpt>
      <trkpt lat="44.31286" lon="1.78093">
        <ele>342.85</ele>
        <time>2021-08-17T12:26:02Z</time>
      </trkpt>
      <trkpt lat="44.31282" lon="1.78098">
        <ele>342.85</ele>
        <time>2021-08-17T12:26:03Z</time>
      </trkpt>
      <trkpt lat="44.31263" lon="1.78116">
        <ele>341.89</ele>
        <time>2021-08-17T12:26:07Z</time>
      </trkpt>
      <trkpt lat="44.31257" lon="1.78121">
        <ele>341.89</ele>
        <time>2021-08-17T12:26:08Z</time>
      </trkpt>
      <trkpt lat="44.31252" lon="1.78125">
        <ele>341.89</ele>
        <time>2021-08-17T12:26:09Z</time>
      </trkpt>
      <trkpt lat="44.31248" lon="1.78129">
        <ele>341.89</ele>
        <time>2021-08-17T12:26:10Z</time>
      </trkpt>
      <trkpt lat="44.31244" lon="1.78133">
        <ele>341.89</ele>
        <time>2021-08-17T12:26:11Z</time>
      </trkpt>
      <trkpt lat="44.31239" lon="1.78136">
        <ele>341.89</ele>
        <time>2021-08-17T12:26:12Z</time>
      </trkpt>
      <trkpt lat="44.31215" lon="1.78151">
        <ele>341.89</ele>
        <time>2021-08-17T12:26:18Z</time>
      </trkpt>
      <trkpt lat="44.31195" lon="1.78155">
        <ele>340.44</ele>
        <time>2021-08-17T12:26:22Z</time>
      </trkpt>
      <trkpt lat="44.31189" lon="1.78157">
        <ele>340.44</ele>
        <time>2021-08-17T12:26:23Z</time>
      </trkpt>
      <trkpt lat="44.31184" lon="1.78158">
        <ele>340.44</ele>
        <time>2021-08-17T12:26:24Z</time>
      </trkpt>
      <trkpt lat="44.31178" lon="1.78159">
        <ele>340.44</ele>
        <time>2021-08-17T12:26:25Z</time>
      </trkpt>
      <trkpt lat="44.31172" lon="1.78161">
        <ele>339.48</ele>
        <time>2021-08-17T12:26:26Z</time>
      </trkpt>
      <trkpt lat="44.31167" lon="1.78165">
        <ele>339.48</ele>
        <time>2021-08-17T12:26:27Z</time>
      </trkpt>
      <trkpt lat="44.31163" lon="1.7817">
        <ele>339.48</ele>
        <time>2021-08-17T12:26:28Z</time>
      </trkpt>
      <trkpt lat="44.3116" lon="1.78175">
        <ele>339.48</ele>
        <time>2021-08-17T12:26:29Z</time>
      </trkpt>
      <trkpt lat="44.31158" lon="1.78181">
        <ele>339.48</ele>
        <time>2021-08-17T12:26:30Z</time>
      </trkpt>
      <trkpt lat="44.31156" lon="1.78186">
        <ele>339.48</ele>
        <time>2021-08-17T12:26:31Z</time>
      </trkpt>
      <trkpt lat="44.31155" lon="1.78191">
        <ele>339.48</ele>
        <time>2021-08-17T12:26:32Z</time>
      </trkpt>
      <trkpt lat="44.31154" lon="1.78196">
        <ele>339.48</ele>
        <time>2021-08-17T12:26:33Z</time>
      </trkpt>
      <trkpt lat="44.31152" lon="1.78201">
        <ele>339.48</ele>
        <time>2021-08-17T12:26:34Z</time>
      </trkpt>
      <trkpt lat="44.3115" lon="1.78206">
        <ele>339.48</ele>
        <time>2021-08-17T12:26:35Z</time>
      </trkpt>
      <trkpt lat="44.31148" lon="1.78211">
        <ele>339.48</ele>
        <time>2021-08-17T12:26:36Z</time>
      </trkpt>
      <trkpt lat="44.31145" lon="1.78216">
        <ele>339.48</ele>
        <time>2021-08-17T12:26:37Z</time>
      </trkpt>
      <trkpt lat="44.31144" lon="1.78222">
        <ele>339.48</ele>
        <time>2021-08-17T12:26:38Z</time>
      </trkpt>
      <trkpt lat="44.31131" lon="1.78254">
        <ele>338.52</ele>
        <time>2021-08-17T12:26:43Z</time>
      </trkpt>
      <trkpt lat="44.31127" lon="1.78261">
        <ele>338.52</ele>
        <time>2021-08-17T12:26:44Z</time>
      </trkpt>
      <trkpt lat="44.31124" lon="1.78266">
        <ele>338.04</ele>
        <time>2021-08-17T12:26:45Z</time>
      </trkpt>
      <trkpt lat="44.3112" lon="1.7827">
        <ele>338.04</ele>
        <time>2021-08-17T12:26:46Z</time>
      </trkpt>
      <trkpt lat="44.31115" lon="1.78274">
        <ele>338.04</ele>
        <time>2021-08-17T12:26:47Z</time>
      </trkpt>
      <trkpt lat="44.31111" lon="1.78277">
        <ele>337.56</ele>
        <time>2021-08-17T12:26:48Z</time>
      </trkpt>
      <trkpt lat="44.31106" lon="1.78279">
        <ele>337.56</ele>
        <time>2021-08-17T12:26:49Z</time>
      </trkpt>
      <trkpt lat="44.31101" lon="1.78282">
        <ele>337.08</ele>
        <time>2021-08-17T12:26:50Z</time>
      </trkpt>
      <trkpt lat="44.31097" lon="1.78285">
        <ele>336.6</ele>
        <time>2021-08-17T12:26:51Z</time>
      </trkpt>
      <trkpt lat="44.31072" lon="1.78298">
        <ele>335.64</ele>
        <time>2021-08-17T12:26:56Z</time>
      </trkpt>
      <trkpt lat="44.31067" lon="1.783">
        <ele>335.64</ele>
        <time>2021-08-17T12:26:57Z</time>
      </trkpt>
      <trkpt lat="44.31045" lon="1.78305">
        <ele>337.08</ele>
        <time>2021-08-17T12:27:03Z</time>
      </trkpt>
      <trkpt lat="44.31026" lon="1.78309">
        <ele>337.08</ele>
        <time>2021-08-17T12:27:08Z</time>
      </trkpt>
      <trkpt lat="44.31017" lon="1.78308">
        <ele>337.08</ele>
        <time>2021-08-17T12:27:10Z</time>
      </trkpt>
      <trkpt lat="44.31013" lon="1.78307">
        <ele>337.08</ele>
        <time>2021-08-17T12:27:11Z</time>
      </trkpt>
      <trkpt lat="44.31009" lon="1.78305">
        <ele>337.08</ele>
        <time>2021-08-17T12:27:12Z</time>
      </trkpt>
      <trkpt lat="44.31004" lon="1.78305">
        <ele>337.08</ele>
        <time>2021-08-17T12:27:13Z</time>
      </trkpt>
      <trkpt lat="44.31" lon="1.78306">
        <ele>337.08</ele>
        <time>2021-08-17T12:27:14Z</time>
      </trkpt>
      <trkpt lat="44.30995" lon="1.78307">
        <ele>335.64</ele>
        <time>2021-08-17T12:27:15Z</time>
      </trkpt>
      <trkpt lat="44.30991" lon="1.78307">
        <ele>335.64</ele>
        <time>2021-08-17T12:27:16Z</time>
      </trkpt>
      <trkpt lat="44.30987" lon="1.78307">
        <ele>335.64</ele>
        <time>2021-08-17T12:27:17Z</time>
      </trkpt>
      <trkpt lat="44.30983" lon="1.78307">
        <ele>334.68</ele>
        <time>2021-08-17T12:27:18Z</time>
      </trkpt>
      <trkpt lat="44.30978" lon="1.78306">
        <ele>334.2</ele>
        <time>2021-08-17T12:27:19Z</time>
      </trkpt>
      <trkpt lat="44.30974" lon="1.78303">
        <ele>333.23</ele>
        <time>2021-08-17T12:27:20Z</time>
      </trkpt>
      <trkpt lat="44.30969" lon="1.78299">
        <ele>332.75</ele>
        <time>2021-08-17T12:27:21Z</time>
      </trkpt>
      <trkpt lat="44.30965" lon="1.78295">
        <ele>331.31</ele>
        <time>2021-08-17T12:27:22Z</time>
      </trkpt>
      <trkpt lat="44.30959" lon="1.78288">
        <ele>330.83</ele>
        <time>2021-08-17T12:27:23Z</time>
      </trkpt>
      <trkpt lat="44.30948" lon="1.78274">
        <ele>329.87</ele>
        <time>2021-08-17T12:27:25Z</time>
      </trkpt>
      <trkpt lat="44.30943" lon="1.78269">
        <ele>328.91</ele>
        <time>2021-08-17T12:27:26Z</time>
      </trkpt>
      <trkpt lat="44.30937" lon="1.78266">
        <ele>328.91</ele>
        <time>2021-08-17T12:27:27Z</time>
      </trkpt>
      <trkpt lat="44.30933" lon="1.78267">
        <ele>328.43</ele>
        <time>2021-08-17T12:27:28Z</time>
      </trkpt>
      <trkpt lat="44.30927" lon="1.78269">
        <ele>327.95</ele>
        <time>2021-08-17T12:27:29Z</time>
      </trkpt>
      <trkpt lat="44.30922" lon="1.7827">
        <ele>327.95</ele>
        <time>2021-08-17T12:27:30Z</time>
      </trkpt>
      <trkpt lat="44.30898" lon="1.78277">
        <ele>329.87</ele>
        <time>2021-08-17T12:27:36Z</time>
      </trkpt>
      <trkpt lat="44.30897" lon="1.78277">
        <ele>329.87</ele>
        <time>2021-08-17T12:27:37Z</time>
      </trkpt>
      <trkpt lat="44.30884" lon="1.78277">
        <ele>330.35</ele>
        <time>2021-08-17T12:27:45Z</time>
      </trkpt>
      <trkpt lat="44.30865" lon="1.78277">
        <ele>332.27</ele>
        <time>2021-08-17T12:27:56Z</time>
      </trkpt>
      <trkpt lat="44.3085" lon="1.78281">
        <ele>333.71</ele>
        <time>2021-08-17T12:28:05Z</time>
      </trkpt>
      <trkpt lat="44.30839" lon="1.78289">
        <ele>334.68</ele>
        <time>2021-08-17T12:28:13Z</time>
      </trkpt>
      <trkpt lat="44.30823" lon="1.78304">
        <ele>336.12</ele>
        <time>2021-08-17T12:28:24Z</time>
      </trkpt>
      <trkpt lat="44.30808" lon="1.78321">
        <ele>336.6</ele>
        <time>2021-08-17T12:28:33Z</time>
      </trkpt>
      <trkpt lat="44.30789" lon="1.78346">
        <ele>337.56</ele>
        <time>2021-08-17T12:28:43Z</time>
      </trkpt>
      <trkpt lat="44.3077" lon="1.78374">
        <ele>337.56</ele>
        <time>2021-08-17T12:28:50Z</time>
      </trkpt>
      <trkpt lat="44.30737" lon="1.78422">
        <ele>336.12</ele>
        <time>2021-08-17T12:29:01Z</time>
      </trkpt>
      <trkpt lat="44.30734" lon="1.78426">
        <ele>336.12</ele>
        <time>2021-08-17T12:29:02Z</time>
      </trkpt>
      <trkpt lat="44.30731" lon="1.7843">
        <ele>336.12</ele>
        <time>2021-08-17T12:29:03Z</time>
      </trkpt>
      <trkpt lat="44.30729" lon="1.78435">
        <ele>336.12</ele>
        <time>2021-08-17T12:29:04Z</time>
      </trkpt>
      <trkpt lat="44.30717" lon="1.78468">
        <ele>336.12</ele>
        <time>2021-08-17T12:29:11Z</time>
      </trkpt>
      <trkpt lat="44.30715" lon="1.78473">
        <ele>336.12</ele>
        <time>2021-08-17T12:29:12Z</time>
      </trkpt>
      <trkpt lat="44.30713" lon="1.78478">
        <ele>336.12</ele>
        <time>2021-08-17T12:29:13Z</time>
      </trkpt>
      <trkpt lat="44.30701" lon="1.78505">
        <ele>336.12</ele>
        <time>2021-08-17T12:29:19Z</time>
      </trkpt>
      <trkpt lat="44.30687" lon="1.78537">
        <ele>337.56</ele>
        <time>2021-08-17T12:29:27Z</time>
      </trkpt>
      <trkpt lat="44.30673" lon="1.78558">
        <ele>338.52</ele>
        <time>2021-08-17T12:29:35Z</time>
      </trkpt>
      <trkpt lat="44.30659" lon="1.78576">
        <ele>339.96</ele>
        <time>2021-08-17T12:29:43Z</time>
      </trkpt>
      <trkpt lat="44.3064" lon="1.78601">
        <ele>340.44</ele>
        <time>2021-08-17T12:29:53Z</time>
      </trkpt>
      <trkpt lat="44.30616" lon="1.78617">
        <ele>339</ele>
        <time>2021-08-17T12:30:00Z</time>
      </trkpt>
      <trkpt lat="44.30611" lon="1.7862">
        <ele>339</ele>
        <time>2021-08-17T12:30:01Z</time>
      </trkpt>
      <trkpt lat="44.30589" lon="1.78638">
        <ele>339</ele>
        <time>2021-08-17T12:30:08Z</time>
      </trkpt>
      <trkpt lat="44.30569" lon="1.78653">
        <ele>339</ele>
        <time>2021-08-17T12:30:17Z</time>
      </trkpt>
      <trkpt lat="44.30555" lon="1.78667">
        <ele>339.96</ele>
        <time>2021-08-17T12:30:24Z</time>
      </trkpt>
      <trkpt lat="44.30544" lon="1.78679">
        <ele>340.92</ele>
        <time>2021-08-17T12:30:30Z</time>
      </trkpt>
      <trkpt lat="44.30538" lon="1.787">
        <ele>341.89</ele>
        <time>2021-08-17T12:30:37Z</time>
      </trkpt>
      <trkpt lat="44.30534" lon="1.78727">
        <ele>343.33</ele>
        <time>2021-08-17T12:30:46Z</time>
      </trkpt>
      <trkpt lat="44.30533" lon="1.78752">
        <ele>343.81</ele>
        <time>2021-08-17T12:30:53Z</time>
      </trkpt>
      <trkpt lat="44.30529" lon="1.78788">
        <ele>345.25</ele>
        <time>2021-08-17T12:31:03Z</time>
      </trkpt>
      <trkpt lat="44.30527" lon="1.78817">
        <ele>345.73</ele>
        <time>2021-08-17T12:31:10Z</time>
      </trkpt>
      <trkpt lat="44.30522" lon="1.7886">
        <ele>346.21</ele>
        <time>2021-08-17T12:31:19Z</time>
      </trkpt>
      <trkpt lat="44.30517" lon="1.78908">
        <ele>344.77</ele>
        <time>2021-08-17T12:31:28Z</time>
      </trkpt>
      <trkpt lat="44.30516" lon="1.78915">
        <ele>344.77</ele>
        <time>2021-08-17T12:31:29Z</time>
      </trkpt>
      <trkpt lat="44.30515" lon="1.78921">
        <ele>344.77</ele>
        <time>2021-08-17T12:31:30Z</time>
      </trkpt>
      <trkpt lat="44.30515" lon="1.78928">
        <ele>344.29</ele>
        <time>2021-08-17T12:31:31Z</time>
      </trkpt>
      <trkpt lat="44.30516" lon="1.78935">
        <ele>344.29</ele>
        <time>2021-08-17T12:31:32Z</time>
      </trkpt>
      <trkpt lat="44.30518" lon="1.78941">
        <ele>343.33</ele>
        <time>2021-08-17T12:31:33Z</time>
      </trkpt>
      <trkpt lat="44.3052" lon="1.78955">
        <ele>342.85</ele>
        <time>2021-08-17T12:31:35Z</time>
      </trkpt>
      <trkpt lat="44.3052" lon="1.78962">
        <ele>341.89</ele>
        <time>2021-08-17T12:31:36Z</time>
      </trkpt>
      <trkpt lat="44.30518" lon="1.78969">
        <ele>341.41</ele>
        <time>2021-08-17T12:31:37Z</time>
      </trkpt>
      <trkpt lat="44.30516" lon="1.78975">
        <ele>340.44</ele>
        <time>2021-08-17T12:31:38Z</time>
      </trkpt>
      <trkpt lat="44.30512" lon="1.78981">
        <ele>339.48</ele>
        <time>2021-08-17T12:31:39Z</time>
      </trkpt>
      <trkpt lat="44.30509" lon="1.78987">
        <ele>339</ele>
        <time>2021-08-17T12:31:40Z</time>
      </trkpt>
      <trkpt lat="44.30504" lon="1.78992">
        <ele>338.52</ele>
        <time>2021-08-17T12:31:41Z</time>
      </trkpt>
      <trkpt lat="44.30483" lon="1.79012">
        <ele>335.16</ele>
        <time>2021-08-17T12:31:45Z</time>
      </trkpt>
      <trkpt lat="44.30479" lon="1.79019">
        <ele>334.68</ele>
        <time>2021-08-17T12:31:46Z</time>
      </trkpt>
      <trkpt lat="44.30475" lon="1.79028">
        <ele>334.68</ele>
        <time>2021-08-17T12:31:47Z</time>
      </trkpt>
      <trkpt lat="44.30471" lon="1.79036">
        <ele>334.2</ele>
        <time>2021-08-17T12:31:48Z</time>
      </trkpt>
      <trkpt lat="44.30468" lon="1.79043">
        <ele>334.2</ele>
        <time>2021-08-17T12:31:49Z</time>
      </trkpt>
      <trkpt lat="44.30464" lon="1.79051">
        <ele>334.2</ele>
        <time>2021-08-17T12:31:50Z</time>
      </trkpt>
      <trkpt lat="44.30462" lon="1.79061">
        <ele>334.2</ele>
        <time>2021-08-17T12:31:51Z</time>
      </trkpt>
      <trkpt lat="44.30462" lon="1.79069">
        <ele>334.2</ele>
        <time>2021-08-17T12:31:52Z</time>
      </trkpt>
      <trkpt lat="44.30463" lon="1.79076">
        <ele>334.2</ele>
        <time>2021-08-17T12:31:53Z</time>
      </trkpt>
      <trkpt lat="44.30463" lon="1.79079">
        <ele>336.12</ele>
        <time>2021-08-17T12:31:54Z</time>
      </trkpt>
      <trkpt lat="44.30464" lon="1.79084">
        <ele>336.12</ele>
        <time>2021-08-17T12:31:55Z</time>
      </trkpt>
      <trkpt lat="44.30464" lon="1.79089">
        <ele>337.08</ele>
        <time>2021-08-17T12:31:57Z</time>
      </trkpt>
      <trkpt lat="44.30464" lon="1.79092">
        <ele>337.08</ele>
        <time>2021-08-17T12:31:58Z</time>
      </trkpt>
      <trkpt lat="44.30465" lon="1.79093">
        <ele>337.08</ele>
        <time>2021-08-17T12:31:59Z</time>
      </trkpt>
      <trkpt lat="44.30466" lon="1.79092">
        <ele>337.08</ele>
        <time>2021-08-17T12:32:00Z</time>
      </trkpt>
      <trkpt lat="44.30466" lon="1.7909">
        <ele>337.08</ele>
        <time>2021-08-17T12:32:01Z</time>
      </trkpt>
      <trkpt lat="44.30465" lon="1.79086">
        <ele>337.08</ele>
        <time>2021-08-17T12:32:02Z</time>
      </trkpt>
      <trkpt lat="44.30463" lon="1.79084">
        <ele>337.08</ele>
        <time>2021-08-17T12:32:03Z</time>
      </trkpt>
      <trkpt lat="44.30461" lon="1.79083">
        <ele>337.08</ele>
        <time>2021-08-17T12:32:04Z</time>
      </trkpt>
      <trkpt lat="44.3046" lon="1.79083">
        <ele>337.08</ele>
        <time>2021-08-17T12:32:08Z</time>
      </trkpt>
      <trkpt lat="44.30461" lon="1.79085">
        <ele>337.08</ele>
        <time>2021-08-17T12:32:27Z</time>
      </trkpt>
      <trkpt lat="44.30461" lon="1.79087">
        <ele>337.08</ele>
        <time>2021-08-17T12:32:49Z</time>
      </trkpt>
      <trkpt lat="44.30459" lon="1.79087">
        <ele>337.08</ele>
        <time>2021-08-17T12:33:11Z</time>
      </trkpt>
      <trkpt lat="44.3046" lon="1.79087">
        <ele>337.08</ele>
        <time>2021-08-17T12:33:41Z</time>
      </trkpt>
      <trkpt lat="44.30461" lon="1.79087">
        <ele>336.6</ele>
        <time>2021-08-17T12:34:02Z</time>
      </trkpt>
      <trkpt lat="44.30463" lon="1.79088">
        <ele>336.6</ele>
        <time>2021-08-17T12:34:09Z</time>
      </trkpt>
      <trkpt lat="44.30464" lon="1.79089">
        <ele>336.6</ele>
        <time>2021-08-17T12:34:10Z</time>
      </trkpt>
      <trkpt lat="44.30465" lon="1.79091">
        <ele>336.6</ele>
        <time>2021-08-17T12:34:11Z</time>
      </trkpt>
      <trkpt lat="44.30466" lon="1.79093">
        <ele>336.6</ele>
        <time>2021-08-17T12:34:12Z</time>
      </trkpt>
      <trkpt lat="44.30466" lon="1.79095">
        <ele>336.6</ele>
        <time>2021-08-17T12:34:13Z</time>
      </trkpt>
      <trkpt lat="44.30466" lon="1.79097">
        <ele>337.08</ele>
        <time>2021-08-17T12:34:14Z</time>
      </trkpt>
      <trkpt lat="44.30467" lon="1.79099">
        <ele>337.08</ele>
        <time>2021-08-17T12:34:15Z</time>
      </trkpt>
      <trkpt lat="44.3047" lon="1.79121">
        <ele>339</ele>
        <time>2021-08-17T12:34:24Z</time>
      </trkpt>
      <trkpt lat="44.30469" lon="1.7914">
        <ele>340.44</ele>
        <time>2021-08-17T12:34:33Z</time>
      </trkpt>
      <trkpt lat="44.30459" lon="1.79147">
        <ele>341.41</ele>
        <time>2021-08-17T12:34:40Z</time>
      </trkpt>
      <trkpt lat="44.30445" lon="1.79149">
        <ele>342.37</ele>
        <time>2021-08-17T12:34:49Z</time>
      </trkpt>
      <trkpt lat="44.30431" lon="1.79152">
        <ele>343.33</ele>
        <time>2021-08-17T12:34:57Z</time>
      </trkpt>
      <trkpt lat="44.30417" lon="1.79157">
        <ele>344.77</ele>
        <time>2021-08-17T12:35:05Z</time>
      </trkpt>
      <trkpt lat="44.30403" lon="1.79164">
        <ele>345.73</ele>
        <time>2021-08-17T12:35:13Z</time>
      </trkpt>
      <trkpt lat="44.30386" lon="1.79176">
        <ele>347.17</ele>
        <time>2021-08-17T12:35:22Z</time>
      </trkpt>
      <trkpt lat="44.30368" lon="1.79184">
        <ele>347.17</ele>
        <time>2021-08-17T12:35:30Z</time>
      </trkpt>
      <trkpt lat="44.30347" lon="1.79198">
        <ele>347.65</ele>
        <time>2021-08-17T12:35:38Z</time>
      </trkpt>
      <trkpt lat="44.30326" lon="1.79227">
        <ele>348.13</ele>
        <time>2021-08-17T12:35:47Z</time>
      </trkpt>
      <trkpt lat="44.3032" lon="1.79252">
        <ele>349.1</ele>
        <time>2021-08-17T12:35:54Z</time>
      </trkpt>
      <trkpt lat="44.30317" lon="1.79253">
        <ele>349.1</ele>
        <time>2021-08-17T12:35:55Z</time>
      </trkpt>
      <trkpt lat="44.30313" lon="1.79253">
        <ele>349.1</ele>
        <time>2021-08-17T12:35:56Z</time>
      </trkpt>
      <trkpt lat="44.30311" lon="1.79252">
        <ele>349.1</ele>
        <time>2021-08-17T12:35:57Z</time>
      </trkpt>
      <trkpt lat="44.30308" lon="1.79252">
        <ele>349.1</ele>
        <time>2021-08-17T12:35:58Z</time>
      </trkpt>
      <trkpt lat="44.30304" lon="1.79251">
        <ele>349.1</ele>
        <time>2021-08-17T12:35:59Z</time>
      </trkpt>
      <trkpt lat="44.30301" lon="1.79251">
        <ele>349.1</ele>
        <time>2021-08-17T12:36:00Z</time>
      </trkpt>
      <trkpt lat="44.30297" lon="1.79251">
        <ele>349.1</ele>
        <time>2021-08-17T12:36:01Z</time>
      </trkpt>
      <trkpt lat="44.30272" lon="1.79247">
        <ele>349.1</ele>
        <time>2021-08-17T12:36:08Z</time>
      </trkpt>
      <trkpt lat="44.30267" lon="1.79248">
        <ele>347.65</ele>
        <time>2021-08-17T12:36:09Z</time>
      </trkpt>
      <trkpt lat="44.30263" lon="1.79249">
        <ele>347.65</ele>
        <time>2021-08-17T12:36:10Z</time>
      </trkpt>
      <trkpt lat="44.30249" lon="1.79255">
        <ele>347.65</ele>
        <time>2021-08-17T12:36:13Z</time>
      </trkpt>
      <trkpt lat="44.30219" lon="1.79274">
        <ele>346.69</ele>
        <time>2021-08-17T12:36:20Z</time>
      </trkpt>
      <trkpt lat="44.30216" lon="1.79273">
        <ele>346.69</ele>
        <time>2021-08-17T12:36:21Z</time>
      </trkpt>
      <trkpt lat="44.30216" lon="1.79271">
        <ele>346.21</ele>
        <time>2021-08-17T12:36:22Z</time>
      </trkpt>
      <trkpt lat="44.30219" lon="1.79265">
        <ele>346.21</ele>
        <time>2021-08-17T12:36:25Z</time>
      </trkpt>
      <trkpt lat="44.30222" lon="1.79263">
        <ele>346.21</ele>
        <time>2021-08-17T12:36:26Z</time>
      </trkpt>
      <trkpt lat="44.30233" lon="1.79246">
        <ele>346.21</ele>
        <time>2021-08-17T12:36:32Z</time>
      </trkpt>
      <trkpt lat="44.30235" lon="1.79209">
        <ele>346.21</ele>
        <time>2021-08-17T12:36:39Z</time>
      </trkpt>
      <trkpt lat="44.30236" lon="1.79191">
        <ele>345.25</ele>
        <time>2021-08-17T12:36:42Z</time>
      </trkpt>
      <trkpt lat="44.30238" lon="1.79179">
        <ele>344.77</ele>
        <time>2021-08-17T12:36:44Z</time>
      </trkpt>
      <trkpt lat="44.30237" lon="1.79162">
        <ele>344.29</ele>
        <time>2021-08-17T12:36:47Z</time>
      </trkpt>
      <trkpt lat="44.30234" lon="1.7916">
        <ele>343.81</ele>
        <time>2021-08-17T12:36:48Z</time>
      </trkpt>
      <trkpt lat="44.30232" lon="1.79161">
        <ele>343.33</ele>
        <time>2021-08-17T12:36:49Z</time>
      </trkpt>
      <trkpt lat="44.30229" lon="1.79164">
        <ele>343.33</ele>
        <time>2021-08-17T12:36:50Z</time>
      </trkpt>
      <trkpt lat="44.30227" lon="1.79167">
        <ele>343.33</ele>
        <time>2021-08-17T12:36:51Z</time>
      </trkpt>
      <trkpt lat="44.30207" lon="1.79191">
        <ele>342.37</ele>
        <time>2021-08-17T12:36:58Z</time>
      </trkpt>
      <trkpt lat="44.30207" lon="1.79192">
        <ele>341.89</ele>
        <time>2021-08-17T12:37:03Z</time>
      </trkpt>
      <trkpt lat="44.30207" lon="1.79192">
        <ele>341.89</ele>
        <time>2021-08-17T12:37:15Z</time>
      </trkpt>
      <trkpt lat="44.30207" lon="1.79191">
        <ele>341.89</ele>
        <time>2021-08-17T12:37:31Z</time>
      </trkpt>
      <trkpt lat="44.30207" lon="1.79191">
        <ele>341.89</ele>
        <time>2021-08-17T12:37:39Z</time>
      </trkpt>
      <trkpt lat="44.30206" lon="1.7919">
        <ele>341.89</ele>
        <time>2021-08-17T12:37:44Z</time>
      </trkpt>
      <trkpt lat="44.30208" lon="1.7919">
        <ele>341.89</ele>
        <time>2021-08-17T12:37:50Z</time>
      </trkpt>
      <trkpt lat="44.30209" lon="1.79188">
        <ele>341.89</ele>
        <time>2021-08-17T12:37:51Z</time>
      </trkpt>
      <trkpt lat="44.3021" lon="1.79187">
        <ele>341.89</ele>
        <time>2021-08-17T12:37:52Z</time>
      </trkpt>
      <trkpt lat="44.30211" lon="1.79186">
        <ele>341.89</ele>
        <time>2021-08-17T12:37:53Z</time>
      </trkpt>
      <trkpt lat="44.30213" lon="1.79184">
        <ele>341.89</ele>
        <time>2021-08-17T12:37:54Z</time>
      </trkpt>
      <trkpt lat="44.30226" lon="1.79167">
        <ele>341.89</ele>
        <time>2021-08-17T12:38:02Z</time>
      </trkpt>
      <trkpt lat="44.30236" lon="1.79162">
        <ele>341.89</ele>
        <time>2021-08-17T12:38:06Z</time>
      </trkpt>
      <trkpt lat="44.30238" lon="1.79164">
        <ele>343.33</ele>
        <time>2021-08-17T12:38:07Z</time>
      </trkpt>
      <trkpt lat="44.30239" lon="1.79167">
        <ele>343.33</ele>
        <time>2021-08-17T12:38:08Z</time>
      </trkpt>
      <trkpt lat="44.30239" lon="1.7917">
        <ele>343.81</ele>
        <time>2021-08-17T12:38:09Z</time>
      </trkpt>
      <trkpt lat="44.30238" lon="1.79174">
        <ele>343.81</ele>
        <time>2021-08-17T12:38:10Z</time>
      </trkpt>
      <trkpt lat="44.30238" lon="1.79177">
        <ele>343.81</ele>
        <time>2021-08-17T12:38:11Z</time>
      </trkpt>
      <trkpt lat="44.30237" lon="1.7918">
        <ele>344.29</ele>
        <time>2021-08-17T12:38:12Z</time>
      </trkpt>
      <trkpt lat="44.30236" lon="1.79183">
        <ele>344.29</ele>
        <time>2021-08-17T12:38:13Z</time>
      </trkpt>
      <trkpt lat="44.30236" lon="1.79186">
        <ele>344.29</ele>
        <time>2021-08-17T12:38:14Z</time>
      </trkpt>
      <trkpt lat="44.30236" lon="1.79209">
        <ele>344.77</ele>
        <time>2021-08-17T12:38:21Z</time>
      </trkpt>
      <trkpt lat="44.30235" lon="1.7924">
        <ele>345.73</ele>
        <time>2021-08-17T12:38:30Z</time>
      </trkpt>
      <trkpt lat="44.30227" lon="1.79267">
        <ele>346.21</ele>
        <time>2021-08-17T12:38:38Z</time>
      </trkpt>
      <trkpt lat="44.3021" lon="1.7928">
        <ele>346.21</ele>
        <time>2021-08-17T12:38:45Z</time>
      </trkpt>
      <trkpt lat="44.30207" lon="1.79283">
        <ele>346.21</ele>
        <time>2021-08-17T12:38:47Z</time>
      </trkpt>
      <trkpt lat="44.30206" lon="1.79284">
        <ele>346.21</ele>
        <time>2021-08-17T12:38:48Z</time>
      </trkpt>
      <trkpt lat="44.30205" lon="1.79283">
        <ele>346.21</ele>
        <time>2021-08-17T12:38:49Z</time>
      </trkpt>
      <trkpt lat="44.30203" lon="1.79283">
        <ele>346.21</ele>
        <time>2021-08-17T12:38:50Z</time>
      </trkpt>
      <trkpt lat="44.30203" lon="1.79281">
        <ele>346.21</ele>
        <time>2021-08-17T12:38:51Z</time>
      </trkpt>
      <trkpt lat="44.30201" lon="1.7927">
        <ele>346.21</ele>
        <time>2021-08-17T12:38:57Z</time>
      </trkpt>
      <trkpt lat="44.30197" lon="1.79263">
        <ele>344.77</ele>
        <time>2021-08-17T12:39:00Z</time>
      </trkpt>
      <trkpt lat="44.30187" lon="1.79264">
        <ele>344.77</ele>
        <time>2021-08-17T12:39:04Z</time>
      </trkpt>
      <trkpt lat="44.30181" lon="1.79263">
        <ele>344.29</ele>
        <time>2021-08-17T12:39:06Z</time>
      </trkpt>
      <trkpt lat="44.30171" lon="1.7925">
        <ele>342.37</ele>
        <time>2021-08-17T12:39:10Z</time>
      </trkpt>
      <trkpt lat="44.3016" lon="1.79227">
        <ele>339</ele>
        <time>2021-08-17T12:39:15Z</time>
      </trkpt>
      <trkpt lat="44.30151" lon="1.79213">
        <ele>336.12</ele>
        <time>2021-08-17T12:39:22Z</time>
      </trkpt>
      <trkpt lat="44.3015" lon="1.79213">
        <ele>335.64</ele>
        <time>2021-08-17T12:39:23Z</time>
      </trkpt>
      <trkpt lat="44.30143" lon="1.79218">
        <ele>332.75</ele>
        <time>2021-08-17T12:39:30Z</time>
      </trkpt>
      <trkpt lat="44.3014" lon="1.79219">
        <ele>332.27</ele>
        <time>2021-08-17T12:39:33Z</time>
      </trkpt>
      <trkpt lat="44.30137" lon="1.79218">
        <ele>330.83</ele>
        <time>2021-08-17T12:39:35Z</time>
      </trkpt>
      <trkpt lat="44.30135" lon="1.7922">
        <ele>330.35</ele>
        <time>2021-08-17T12:39:37Z</time>
      </trkpt>
      <trkpt lat="44.30123" lon="1.79232">
        <ele>326.99</ele>
        <time>2021-08-17T12:39:44Z</time>
      </trkpt>
      <trkpt lat="44.30121" lon="1.79233">
        <ele>326.99</ele>
        <time>2021-08-17T12:39:45Z</time>
      </trkpt>
      <trkpt lat="44.30107" lon="1.79244">
        <ele>323.62</ele>
        <time>2021-08-17T12:39:50Z</time>
      </trkpt>
      <trkpt lat="44.30104" lon="1.79245">
        <ele>323.62</ele>
        <time>2021-08-17T12:39:51Z</time>
      </trkpt>
      <trkpt lat="44.3009" lon="1.79255">
        <ele>320.74</ele>
        <time>2021-08-17T12:39:56Z</time>
      </trkpt>
      <trkpt lat="44.3008" lon="1.79262">
        <ele>318.81</ele>
        <time>2021-08-17T12:40:01Z</time>
      </trkpt>
      <trkpt lat="44.30078" lon="1.79263">
        <ele>318.33</ele>
        <time>2021-08-17T12:40:02Z</time>
      </trkpt>
      <trkpt lat="44.30076" lon="1.79264">
        <ele>318.33</ele>
        <time>2021-08-17T12:40:03Z</time>
      </trkpt>
      <trkpt lat="44.30074" lon="1.79265">
        <ele>317.37</ele>
        <time>2021-08-17T12:40:04Z</time>
      </trkpt>
      <trkpt lat="44.30071" lon="1.79266">
        <ele>316.89</ele>
        <time>2021-08-17T12:40:05Z</time>
      </trkpt>
      <trkpt lat="44.30069" lon="1.79267">
        <ele>316.41</ele>
        <time>2021-08-17T12:40:06Z</time>
      </trkpt>
      <trkpt lat="44.30061" lon="1.79269">
        <ele>315.45</ele>
        <time>2021-08-17T12:40:08Z</time>
      </trkpt>
      <trkpt lat="44.30037" lon="1.79284">
        <ele>314.49</ele>
        <time>2021-08-17T12:40:14Z</time>
      </trkpt>
      <trkpt lat="44.29997" lon="1.7931">
        <ele>311.6</ele>
        <time>2021-08-17T12:40:22Z</time>
      </trkpt>
      <trkpt lat="44.29992" lon="1.79315">
        <ele>311.6</ele>
        <time>2021-08-17T12:40:23Z</time>
      </trkpt>
      <trkpt lat="44.29987" lon="1.79322">
        <ele>311.6</ele>
        <time>2021-08-17T12:40:24Z</time>
      </trkpt>
      <trkpt lat="44.29971" lon="1.79345">
        <ele>311.12</ele>
        <time>2021-08-17T12:40:27Z</time>
      </trkpt>
      <trkpt lat="44.29959" lon="1.79358">
        <ele>310.64</ele>
        <time>2021-08-17T12:40:29Z</time>
      </trkpt>
      <trkpt lat="44.29952" lon="1.79363">
        <ele>310.16</ele>
        <time>2021-08-17T12:40:30Z</time>
      </trkpt>
      <trkpt lat="44.29946" lon="1.79368">
        <ele>310.16</ele>
        <time>2021-08-17T12:40:31Z</time>
      </trkpt>
      <trkpt lat="44.29915" lon="1.79384">
        <ele>309.2</ele>
        <time>2021-08-17T12:40:36Z</time>
      </trkpt>
      <trkpt lat="44.29905" lon="1.79391">
        <ele>309.2</ele>
        <time>2021-08-17T12:40:39Z</time>
      </trkpt>
      <trkpt lat="44.299" lon="1.79401">
        <ele>307.28</ele>
        <time>2021-08-17T12:40:41Z</time>
      </trkpt>
      <trkpt lat="44.29897" lon="1.79414">
        <ele>306.32</ele>
        <time>2021-08-17T12:40:43Z</time>
      </trkpt>
      <trkpt lat="44.29894" lon="1.79417">
        <ele>307.76</ele>
        <time>2021-08-17T12:40:44Z</time>
      </trkpt>
      <trkpt lat="44.29892" lon="1.79419">
        <ele>307.76</ele>
        <time>2021-08-17T12:40:45Z</time>
      </trkpt>
      <trkpt lat="44.29877" lon="1.7943">
        <ele>308.24</ele>
        <time>2021-08-17T12:40:51Z</time>
      </trkpt>
      <trkpt lat="44.29869" lon="1.79438">
        <ele>309.2</ele>
        <time>2021-08-17T12:40:56Z</time>
      </trkpt>
      <trkpt lat="44.29868" lon="1.7944">
        <ele>309.2</ele>
        <time>2021-08-17T12:40:57Z</time>
      </trkpt>
      <trkpt lat="44.29866" lon="1.79441">
        <ele>309.68</ele>
        <time>2021-08-17T12:40:58Z</time>
      </trkpt>
      <trkpt lat="44.29864" lon="1.79443">
        <ele>309.68</ele>
        <time>2021-08-17T12:40:59Z</time>
      </trkpt>
      <trkpt lat="44.29863" lon="1.79444">
        <ele>309.68</ele>
        <time>2021-08-17T12:41:00Z</time>
      </trkpt>
      <trkpt lat="44.29861" lon="1.79446">
        <ele>310.16</ele>
        <time>2021-08-17T12:41:01Z</time>
      </trkpt>
      <trkpt lat="44.2985" lon="1.79456">
        <ele>311.12</ele>
        <time>2021-08-17T12:41:09Z</time>
      </trkpt>
      <trkpt lat="44.29844" lon="1.79461">
        <ele>311.6</ele>
        <time>2021-08-17T12:41:13Z</time>
      </trkpt>
      <trkpt lat="44.29843" lon="1.79463">
        <ele>311.6</ele>
        <time>2021-08-17T12:41:14Z</time>
      </trkpt>
      <trkpt lat="44.29841" lon="1.79464">
        <ele>312.09</ele>
        <time>2021-08-17T12:41:15Z</time>
      </trkpt>
      <trkpt lat="44.2984" lon="1.79466">
        <ele>312.09</ele>
        <time>2021-08-17T12:41:16Z</time>
      </trkpt>
      <trkpt lat="44.29838" lon="1.79468">
        <ele>312.57</ele>
        <time>2021-08-17T12:41:17Z</time>
      </trkpt>
      <trkpt lat="44.29828" lon="1.79476">
        <ele>313.05</ele>
        <time>2021-08-17T12:41:24Z</time>
      </trkpt>
      <trkpt lat="44.2982" lon="1.79483">
        <ele>314.49</ele>
        <time>2021-08-17T12:41:34Z</time>
      </trkpt>
      <trkpt lat="44.29816" lon="1.79484">
        <ele>314.49</ele>
        <time>2021-08-17T12:41:37Z</time>
      </trkpt>
      <trkpt lat="44.29808" lon="1.79488">
        <ele>315.45</ele>
        <time>2021-08-17T12:41:45Z</time>
      </trkpt>
      <trkpt lat="44.298" lon="1.79491">
        <ele>316.41</ele>
        <time>2021-08-17T12:41:53Z</time>
      </trkpt>
      <trkpt lat="44.29797" lon="1.79492">
        <ele>316.89</ele>
        <time>2021-08-17T12:41:56Z</time>
      </trkpt>
      <trkpt lat="44.29784" lon="1.79497">
        <ele>317.37</ele>
        <time>2021-08-17T12:42:06Z</time>
      </trkpt>
      <trkpt lat="44.29774" lon="1.79502">
        <ele>317.85</ele>
        <time>2021-08-17T12:42:16Z</time>
      </trkpt>
      <trkpt lat="44.29763" lon="1.79505">
        <ele>319.3</ele>
        <time>2021-08-17T12:42:26Z</time>
      </trkpt>
      <trkpt lat="44.29754" lon="1.79513">
        <ele>320.74</ele>
        <time>2021-08-17T12:42:35Z</time>
      </trkpt>
      <trkpt lat="44.29748" lon="1.79519">
        <ele>321.7</ele>
        <time>2021-08-17T12:42:43Z</time>
      </trkpt>
      <trkpt lat="44.29746" lon="1.79527">
        <ele>322.66</ele>
        <time>2021-08-17T12:42:50Z</time>
      </trkpt>
      <trkpt lat="44.29746" lon="1.79531">
        <ele>323.14</ele>
        <time>2021-08-17T12:42:58Z</time>
      </trkpt>
      <trkpt lat="44.29746" lon="1.79537">
        <ele>323.62</ele>
        <time>2021-08-17T12:43:09Z</time>
      </trkpt>
      <trkpt lat="44.29749" lon="1.79546">
        <ele>324.58</ele>
        <time>2021-08-17T12:43:18Z</time>
      </trkpt>
      <trkpt lat="44.29749" lon="1.79547">
        <ele>325.06</ele>
        <time>2021-08-17T12:43:25Z</time>
      </trkpt>
      <trkpt lat="44.29749" lon="1.79549">
        <ele>325.06</ele>
        <time>2021-08-17T12:43:42Z</time>
      </trkpt>
      <trkpt lat="44.29747" lon="1.79546">
        <ele>325.54</ele>
        <time>2021-08-17T12:43:58Z</time>
      </trkpt>
      <trkpt lat="44.29746" lon="1.79546">
        <ele>325.54</ele>
        <time>2021-08-17T12:44:09Z</time>
      </trkpt>
      <trkpt lat="44.29747" lon="1.79547">
        <ele>325.54</ele>
        <time>2021-08-17T12:44:10Z</time>
      </trkpt>
      <trkpt lat="44.29748" lon="1.79546">
        <ele>325.54</ele>
        <time>2021-08-17T12:44:16Z</time>
      </trkpt>
      <trkpt lat="44.29749" lon="1.79549">
        <ele>325.54</ele>
        <time>2021-08-17T12:44:32Z</time>
      </trkpt>
      <trkpt lat="44.29756" lon="1.79562">
        <ele>326.5</ele>
        <time>2021-08-17T12:44:41Z</time>
      </trkpt>
      <trkpt lat="44.29762" lon="1.79574">
        <ele>327.47</ele>
        <time>2021-08-17T12:44:49Z</time>
      </trkpt>
      <trkpt lat="44.29765" lon="1.79589">
        <ele>328.43</ele>
        <time>2021-08-17T12:44:58Z</time>
      </trkpt>
      <trkpt lat="44.29765" lon="1.79594">
        <ele>328.43</ele>
        <time>2021-08-17T12:45:05Z</time>
      </trkpt>
      <trkpt lat="44.29767" lon="1.79606">
        <ele>328.91</ele>
        <time>2021-08-17T12:45:12Z</time>
      </trkpt>
      <trkpt lat="44.29769" lon="1.79615">
        <ele>329.87</ele>
        <time>2021-08-17T12:45:17Z</time>
      </trkpt>
      <trkpt lat="44.29773" lon="1.79632">
        <ele>330.83</ele>
        <time>2021-08-17T12:45:25Z</time>
      </trkpt>
      <trkpt lat="44.29777" lon="1.79647">
        <ele>331.79</ele>
        <time>2021-08-17T12:45:33Z</time>
      </trkpt>
      <trkpt lat="44.2978" lon="1.79664">
        <ele>333.71</ele>
        <time>2021-08-17T12:45:41Z</time>
      </trkpt>
      <trkpt lat="44.2978" lon="1.79682">
        <ele>333.71</ele>
        <time>2021-08-17T12:45:48Z</time>
      </trkpt>
      <trkpt lat="44.29781" lon="1.79704">
        <ele>334.68</ele>
        <time>2021-08-17T12:45:56Z</time>
      </trkpt>
      <trkpt lat="44.2978" lon="1.7973">
        <ele>335.16</ele>
        <time>2021-08-17T12:46:04Z</time>
      </trkpt>
      <trkpt lat="44.29779" lon="1.79763">
        <ele>335.64</ele>
        <time>2021-08-17T12:46:12Z</time>
      </trkpt>
      <trkpt lat="44.29777" lon="1.79794">
        <ele>336.12</ele>
        <time>2021-08-17T12:46:19Z</time>
      </trkpt>
      <trkpt lat="44.29779" lon="1.79823">
        <ele>337.08</ele>
        <time>2021-08-17T12:46:26Z</time>
      </trkpt>
      <trkpt lat="44.29783" lon="1.79854">
        <ele>337.08</ele>
        <time>2021-08-17T12:46:33Z</time>
      </trkpt>
      <trkpt lat="44.29785" lon="1.79891">
        <ele>337.56</ele>
        <time>2021-08-17T12:46:41Z</time>
      </trkpt>
      <trkpt lat="44.29787" lon="1.79922">
        <ele>338.04</ele>
        <time>2021-08-17T12:46:47Z</time>
      </trkpt>
      <trkpt lat="44.29773" lon="1.79945">
        <ele>336.6</ele>
        <time>2021-08-17T12:46:53Z</time>
      </trkpt>
      <trkpt lat="44.29755" lon="1.79969">
        <ele>336.6</ele>
        <time>2021-08-17T12:47:00Z</time>
      </trkpt>
      <trkpt lat="44.29725" lon="1.8001">
        <ele>336.6</ele>
        <time>2021-08-17T12:47:12Z</time>
      </trkpt>
      <trkpt lat="44.29706" lon="1.80033">
        <ele>338.04</ele>
        <time>2021-08-17T12:47:20Z</time>
      </trkpt>
      <trkpt lat="44.29693" lon="1.80049">
        <ele>339.48</ele>
        <time>2021-08-17T12:47:27Z</time>
      </trkpt>
      <trkpt lat="44.29687" lon="1.80058">
        <ele>339.96</ele>
        <time>2021-08-17T12:47:31Z</time>
      </trkpt>
      <trkpt lat="44.29685" lon="1.8006">
        <ele>339.96</ele>
        <time>2021-08-17T12:47:32Z</time>
      </trkpt>
      <trkpt lat="44.29684" lon="1.80062">
        <ele>340.44</ele>
        <time>2021-08-17T12:47:33Z</time>
      </trkpt>
      <trkpt lat="44.2967" lon="1.80079">
        <ele>340.44</ele>
        <time>2021-08-17T12:47:40Z</time>
      </trkpt>
      <trkpt lat="44.29653" lon="1.80093">
        <ele>341.41</ele>
        <time>2021-08-17T12:47:47Z</time>
      </trkpt>
      <trkpt lat="44.29629" lon="1.80113">
        <ele>341.41</ele>
        <time>2021-08-17T12:47:55Z</time>
      </trkpt>
      <trkpt lat="44.2961" lon="1.80139">
        <ele>341.41</ele>
        <time>2021-08-17T12:48:02Z</time>
      </trkpt>
      <trkpt lat="44.29598" lon="1.80159">
        <ele>339.96</ele>
        <time>2021-08-17T12:48:06Z</time>
      </trkpt>
      <trkpt lat="44.29578" lon="1.80198">
        <ele>339</ele>
        <time>2021-08-17T12:48:14Z</time>
      </trkpt>
      <trkpt lat="44.29558" lon="1.8022">
        <ele>339</ele>
        <time>2021-08-17T12:48:21Z</time>
      </trkpt>
      <trkpt lat="44.29539" lon="1.80227">
        <ele>340.44</ele>
        <time>2021-08-17T12:48:28Z</time>
      </trkpt>
      <trkpt lat="44.29524" lon="1.80242">
        <ele>341.41</ele>
        <time>2021-08-17T12:48:35Z</time>
      </trkpt>
      <trkpt lat="44.29514" lon="1.80256">
        <ele>342.37</ele>
        <time>2021-08-17T12:48:42Z</time>
      </trkpt>
      <trkpt lat="44.29508" lon="1.80259">
        <ele>342.85</ele>
        <time>2021-08-17T12:48:45Z</time>
      </trkpt>
      <trkpt lat="44.29507" lon="1.80258">
        <ele>343.33</ele>
        <time>2021-08-17T12:48:46Z</time>
      </trkpt>
      <trkpt lat="44.29492" lon="1.80243">
        <ele>343.33</ele>
        <time>2021-08-17T12:48:53Z</time>
      </trkpt>
      <trkpt lat="44.29474" lon="1.80227">
        <ele>343.81</ele>
        <time>2021-08-17T12:49:01Z</time>
      </trkpt>
      <trkpt lat="44.29465" lon="1.80219">
        <ele>343.81</ele>
        <time>2021-08-17T12:49:05Z</time>
      </trkpt>
      <trkpt lat="44.29444" lon="1.80209">
        <ele>342.85</ele>
        <time>2021-08-17T12:49:10Z</time>
      </trkpt>
      <trkpt lat="44.29416" lon="1.80192">
        <ele>340.44</ele>
        <time>2021-08-17T12:49:16Z</time>
      </trkpt>
      <trkpt lat="44.29411" lon="1.80189">
        <ele>340.44</ele>
        <time>2021-08-17T12:49:17Z</time>
      </trkpt>
      <trkpt lat="44.29405" lon="1.80186">
        <ele>339.48</ele>
        <time>2021-08-17T12:49:18Z</time>
      </trkpt>
      <trkpt lat="44.29399" lon="1.80184">
        <ele>339</ele>
        <time>2021-08-17T12:49:19Z</time>
      </trkpt>
      <trkpt lat="44.29392" lon="1.80183">
        <ele>338.52</ele>
        <time>2021-08-17T12:49:20Z</time>
      </trkpt>
      <trkpt lat="44.29377" lon="1.8018">
        <ele>337.56</ele>
        <time>2021-08-17T12:49:22Z</time>
      </trkpt>
      <trkpt lat="44.29332" lon="1.80167">
        <ele>334.68</ele>
        <time>2021-08-17T12:49:28Z</time>
      </trkpt>
      <trkpt lat="44.29319" lon="1.8016">
        <ele>333.71</ele>
        <time>2021-08-17T12:49:30Z</time>
      </trkpt>
      <trkpt lat="44.29313" lon="1.80156">
        <ele>333.71</ele>
        <time>2021-08-17T12:49:31Z</time>
      </trkpt>
      <trkpt lat="44.29298" lon="1.80142">
        <ele>335.64</ele>
        <time>2021-08-17T12:49:34Z</time>
      </trkpt>
      <trkpt lat="44.29278" lon="1.80124">
        <ele>336.12</ele>
        <time>2021-08-17T12:49:40Z</time>
      </trkpt>
      <trkpt lat="44.29269" lon="1.80109">
        <ele>336.12</ele>
        <time>2021-08-17T12:49:44Z</time>
      </trkpt>
      <trkpt lat="44.29266" lon="1.80105">
        <ele>336.12</ele>
        <time>2021-08-17T12:49:45Z</time>
      </trkpt>
      <trkpt lat="44.29262" lon="1.80101">
        <ele>336.12</ele>
        <time>2021-08-17T12:49:46Z</time>
      </trkpt>
      <trkpt lat="44.29258" lon="1.80098">
        <ele>336.12</ele>
        <time>2021-08-17T12:49:47Z</time>
      </trkpt>
      <trkpt lat="44.29254" lon="1.80097">
        <ele>336.12</ele>
        <time>2021-08-17T12:49:48Z</time>
      </trkpt>
      <trkpt lat="44.2925" lon="1.80096">
        <ele>336.12</ele>
        <time>2021-08-17T12:49:49Z</time>
      </trkpt>
      <trkpt lat="44.29245" lon="1.80095">
        <ele>336.12</ele>
        <time>2021-08-17T12:49:50Z</time>
      </trkpt>
      <trkpt lat="44.29241" lon="1.80095">
        <ele>336.12</ele>
        <time>2021-08-17T12:49:51Z</time>
      </trkpt>
      <trkpt lat="44.29237" lon="1.80096">
        <ele>336.12</ele>
        <time>2021-08-17T12:49:52Z</time>
      </trkpt>
      <trkpt lat="44.29233" lon="1.80097">
        <ele>336.6</ele>
        <time>2021-08-17T12:49:53Z</time>
      </trkpt>
      <trkpt lat="44.29224" lon="1.80098">
        <ele>337.08</ele>
        <time>2021-08-17T12:49:56Z</time>
      </trkpt>
      <trkpt lat="44.29222" lon="1.80097">
        <ele>338.04</ele>
        <time>2021-08-17T12:49:57Z</time>
      </trkpt>
      <trkpt lat="44.2922" lon="1.80096">
        <ele>338.04</ele>
        <time>2021-08-17T12:49:58Z</time>
      </trkpt>
      <trkpt lat="44.29217" lon="1.80096">
        <ele>338.04</ele>
        <time>2021-08-17T12:49:59Z</time>
      </trkpt>
      <trkpt lat="44.29214" lon="1.80095">
        <ele>338.04</ele>
        <time>2021-08-17T12:50:00Z</time>
      </trkpt>
      <trkpt lat="44.29207" lon="1.80097">
        <ele>338.04</ele>
        <time>2021-08-17T12:50:02Z</time>
      </trkpt>
      <trkpt lat="44.29203" lon="1.80099">
        <ele>338.04</ele>
        <time>2021-08-17T12:50:03Z</time>
      </trkpt>
      <trkpt lat="44.292" lon="1.80101">
        <ele>338.52</ele>
        <time>2021-08-17T12:50:04Z</time>
      </trkpt>
      <trkpt lat="44.29198" lon="1.80102">
        <ele>338.52</ele>
        <time>2021-08-17T12:50:05Z</time>
      </trkpt>
      <trkpt lat="44.29195" lon="1.80102">
        <ele>339</ele>
        <time>2021-08-17T12:50:06Z</time>
      </trkpt>
      <trkpt lat="44.29192" lon="1.80102">
        <ele>339</ele>
        <time>2021-08-17T12:50:07Z</time>
      </trkpt>
      <trkpt lat="44.2919" lon="1.80103">
        <ele>339.48</ele>
        <time>2021-08-17T12:50:08Z</time>
      </trkpt>
      <trkpt lat="44.29168" lon="1.80102">
        <ele>339.96</ele>
        <time>2021-08-17T12:50:15Z</time>
      </trkpt>
      <trkpt lat="44.29144" lon="1.80108">
        <ele>339.96</ele>
        <time>2021-08-17T12:50:22Z</time>
      </trkpt>
      <trkpt lat="44.29129" lon="1.80114">
        <ele>339.96</ele>
        <time>2021-08-17T12:50:26Z</time>
      </trkpt>
      <trkpt lat="44.2912" lon="1.8012">
        <ele>338.52</ele>
        <time>2021-08-17T12:50:28Z</time>
      </trkpt>
      <trkpt lat="44.29086" lon="1.80152">
        <ele>335.16</ele>
        <time>2021-08-17T12:50:35Z</time>
      </trkpt>
      <trkpt lat="44.2905" lon="1.80197">
        <ele>334.68</ele>
        <time>2021-08-17T12:50:42Z</time>
      </trkpt>
      <trkpt lat="44.29025" lon="1.80237">
        <ele>335.16</ele>
        <time>2021-08-17T12:50:49Z</time>
      </trkpt>
      <trkpt lat="44.29015" lon="1.80254">
        <ele>336.12</ele>
        <time>2021-08-17T12:50:53Z</time>
      </trkpt>
      <trkpt lat="44.29003" lon="1.80273">
        <ele>338.04</ele>
        <time>2021-08-17T12:51:00Z</time>
      </trkpt>
      <trkpt lat="44.28993" lon="1.80287">
        <ele>339</ele>
        <time>2021-08-17T12:51:08Z</time>
      </trkpt>
      <trkpt lat="44.2898" lon="1.80302">
        <ele>340.92</ele>
        <time>2021-08-17T12:51:17Z</time>
      </trkpt>
      <trkpt lat="44.28967" lon="1.80317">
        <ele>341.89</ele>
        <time>2021-08-17T12:51:25Z</time>
      </trkpt>
      <trkpt lat="44.28951" lon="1.80333">
        <ele>342.85</ele>
        <time>2021-08-17T12:51:33Z</time>
      </trkpt>
      <trkpt lat="44.28933" lon="1.80354">
        <ele>343.81</ele>
        <time>2021-08-17T12:51:42Z</time>
      </trkpt>
      <trkpt lat="44.28929" lon="1.80355">
        <ele>344.29</ele>
        <time>2021-08-17T12:51:44Z</time>
      </trkpt>
      <trkpt lat="44.28927" lon="1.80354">
        <ele>344.29</ele>
        <time>2021-08-17T12:51:45Z</time>
      </trkpt>
      <trkpt lat="44.28926" lon="1.80352">
        <ele>344.29</ele>
        <time>2021-08-17T12:51:46Z</time>
      </trkpt>
      <trkpt lat="44.28918" lon="1.80329">
        <ele>342.85</ele>
        <time>2021-08-17T12:51:51Z</time>
      </trkpt>
      <trkpt lat="44.28902" lon="1.80279">
        <ele>341.41</ele>
        <time>2021-08-17T12:51:58Z</time>
      </trkpt>
      <trkpt lat="44.2889" lon="1.80247">
        <ele>340.44</ele>
        <time>2021-08-17T12:52:02Z</time>
      </trkpt>
      <trkpt lat="44.28879" lon="1.80226">
        <ele>339.96</ele>
        <time>2021-08-17T12:52:05Z</time>
      </trkpt>
      <trkpt lat="44.28876" lon="1.80218">
        <ele>339.96</ele>
        <time>2021-08-17T12:52:06Z</time>
      </trkpt>
      <trkpt lat="44.28874" lon="1.8021">
        <ele>339.96</ele>
        <time>2021-08-17T12:52:07Z</time>
      </trkpt>
      <trkpt lat="44.28872" lon="1.80202">
        <ele>339.96</ele>
        <time>2021-08-17T12:52:08Z</time>
      </trkpt>
      <trkpt lat="44.28871" lon="1.80194">
        <ele>339.96</ele>
        <time>2021-08-17T12:52:09Z</time>
      </trkpt>
      <trkpt lat="44.28855" lon="1.80136">
        <ele>338.52</ele>
        <time>2021-08-17T12:52:16Z</time>
      </trkpt>
      <trkpt lat="44.28851" lon="1.80119">
        <ele>338.04</ele>
        <time>2021-08-17T12:52:18Z</time>
      </trkpt>
      <trkpt lat="44.2885" lon="1.80109">
        <ele>338.04</ele>
        <time>2021-08-17T12:52:19Z</time>
      </trkpt>
      <trkpt lat="44.2885" lon="1.80101">
        <ele>337.56</ele>
        <time>2021-08-17T12:52:20Z</time>
      </trkpt>
      <trkpt lat="44.28851" lon="1.80092">
        <ele>337.08</ele>
        <time>2021-08-17T12:52:21Z</time>
      </trkpt>
      <trkpt lat="44.28852" lon="1.80081">
        <ele>337.08</ele>
        <time>2021-08-17T12:52:22Z</time>
      </trkpt>
      <trkpt lat="44.28857" lon="1.80035">
        <ele>333.71</ele>
        <time>2021-08-17T12:52:27Z</time>
      </trkpt>
      <trkpt lat="44.28859" lon="1.80029">
        <ele>333.71</ele>
        <time>2021-08-17T12:52:28Z</time>
      </trkpt>
      <trkpt lat="44.28862" lon="1.80024">
        <ele>333.23</ele>
        <time>2021-08-17T12:52:29Z</time>
      </trkpt>
      <trkpt lat="44.28865" lon="1.80021">
        <ele>332.75</ele>
        <time>2021-08-17T12:52:30Z</time>
      </trkpt>
      <trkpt lat="44.28869" lon="1.80018">
        <ele>332.27</ele>
        <time>2021-08-17T12:52:31Z</time>
      </trkpt>
      <trkpt lat="44.28873" lon="1.80017">
        <ele>331.31</ele>
        <time>2021-08-17T12:52:32Z</time>
      </trkpt>
      <trkpt lat="44.28876" lon="1.80015">
        <ele>330.35</ele>
        <time>2021-08-17T12:52:33Z</time>
      </trkpt>
      <trkpt lat="44.28879" lon="1.80012">
        <ele>329.39</ele>
        <time>2021-08-17T12:52:34Z</time>
      </trkpt>
      <trkpt lat="44.28883" lon="1.80009">
        <ele>328.43</ele>
        <time>2021-08-17T12:52:35Z</time>
      </trkpt>
      <trkpt lat="44.28892" lon="1.79999">
        <ele>325.54</ele>
        <time>2021-08-17T12:52:38Z</time>
      </trkpt>
      <trkpt lat="44.28899" lon="1.79989">
        <ele>322.66</ele>
        <time>2021-08-17T12:52:42Z</time>
      </trkpt>
      <trkpt lat="44.289" lon="1.79987">
        <ele>322.66</ele>
        <time>2021-08-17T12:52:43Z</time>
      </trkpt>
      <trkpt lat="44.28897" lon="1.79984">
        <ele>321.22</ele>
        <time>2021-08-17T12:52:46Z</time>
      </trkpt>
      <trkpt lat="44.28894" lon="1.79983">
        <ele>320.26</ele>
        <time>2021-08-17T12:52:47Z</time>
      </trkpt>
      <trkpt lat="44.28891" lon="1.79982">
        <ele>319.78</ele>
        <time>2021-08-17T12:52:48Z</time>
      </trkpt>
      <trkpt lat="44.28888" lon="1.79982">
        <ele>318.33</ele>
        <time>2021-08-17T12:52:49Z</time>
      </trkpt>
      <trkpt lat="44.28884" lon="1.79981">
        <ele>317.85</ele>
        <time>2021-08-17T12:52:50Z</time>
      </trkpt>
      <trkpt lat="44.2888" lon="1.7998">
        <ele>316.89</ele>
        <time>2021-08-17T12:52:51Z</time>
      </trkpt>
      <trkpt lat="44.28877" lon="1.79979">
        <ele>316.41</ele>
        <time>2021-08-17T12:52:52Z</time>
      </trkpt>
      <trkpt lat="44.28875" lon="1.79979">
        <ele>315.93</ele>
        <time>2021-08-17T12:52:53Z</time>
      </trkpt>
      <trkpt lat="44.28872" lon="1.79978">
        <ele>315.93</ele>
        <time>2021-08-17T12:52:54Z</time>
      </trkpt>
      <trkpt lat="44.2887" lon="1.79977">
        <ele>314.97</ele>
        <time>2021-08-17T12:52:55Z</time>
      </trkpt>
      <trkpt lat="44.2887" lon="1.79976">
        <ele>314.49</ele>
        <time>2021-08-17T12:52:56Z</time>
      </trkpt>
      <trkpt lat="44.28872" lon="1.79972">
        <ele>313.53</ele>
        <time>2021-08-17T12:53:02Z</time>
      </trkpt>
      <trkpt lat="44.28874" lon="1.79971">
        <ele>312.57</ele>
        <time>2021-08-17T12:53:03Z</time>
      </trkpt>
      <trkpt lat="44.28876" lon="1.79969">
        <ele>312.57</ele>
        <time>2021-08-17T12:53:04Z</time>
      </trkpt>
      <trkpt lat="44.28877" lon="1.79967">
        <ele>311.6</ele>
        <time>2021-08-17T12:53:05Z</time>
      </trkpt>
      <trkpt lat="44.28878" lon="1.79965">
        <ele>311.12</ele>
        <time>2021-08-17T12:53:06Z</time>
      </trkpt>
      <trkpt lat="44.2888" lon="1.79964">
        <ele>310.64</ele>
        <time>2021-08-17T12:53:07Z</time>
      </trkpt>
      <trkpt lat="44.28881" lon="1.79963">
        <ele>310.64</ele>
        <time>2021-08-17T12:53:08Z</time>
      </trkpt>
      <trkpt lat="44.28882" lon="1.79961">
        <ele>310.16</ele>
        <time>2021-08-17T12:53:09Z</time>
      </trkpt>
      <trkpt lat="44.28883" lon="1.79959">
        <ele>309.68</ele>
        <time>2021-08-17T12:53:10Z</time>
      </trkpt>
      <trkpt lat="44.28892" lon="1.79949">
        <ele>306.32</ele>
        <time>2021-08-17T12:53:14Z</time>
      </trkpt>
      <trkpt lat="44.28897" lon="1.79942">
        <ele>303.91</ele>
        <time>2021-08-17T12:53:16Z</time>
      </trkpt>
      <trkpt lat="44.28902" lon="1.79935">
        <ele>301.99</ele>
        <time>2021-08-17T12:53:18Z</time>
      </trkpt>
      <trkpt lat="44.28909" lon="1.79923">
        <ele>298.63</ele>
        <time>2021-08-17T12:53:23Z</time>
      </trkpt>
      <trkpt lat="44.28908" lon="1.7992">
        <ele>297.67</ele>
        <time>2021-08-17T12:53:25Z</time>
      </trkpt>
      <trkpt lat="44.28906" lon="1.79919">
        <ele>296.22</ele>
        <time>2021-08-17T12:53:26Z</time>
      </trkpt>
      <trkpt lat="44.28904" lon="1.79918">
        <ele>295.26</ele>
        <time>2021-08-17T12:53:27Z</time>
      </trkpt>
      <trkpt lat="44.28902" lon="1.79916">
        <ele>294.78</ele>
        <time>2021-08-17T12:53:28Z</time>
      </trkpt>
      <trkpt lat="44.289" lon="1.79915">
        <ele>293.82</ele>
        <time>2021-08-17T12:53:29Z</time>
      </trkpt>
      <trkpt lat="44.28898" lon="1.79914">
        <ele>293.34</ele>
        <time>2021-08-17T12:53:30Z</time>
      </trkpt>
      <trkpt lat="44.28897" lon="1.79912">
        <ele>292.86</ele>
        <time>2021-08-17T12:53:31Z</time>
      </trkpt>
      <trkpt lat="44.28896" lon="1.7991">
        <ele>292.86</ele>
        <time>2021-08-17T12:53:32Z</time>
      </trkpt>
      <trkpt lat="44.28895" lon="1.79908">
        <ele>291.9</ele>
        <time>2021-08-17T12:53:33Z</time>
      </trkpt>
      <trkpt lat="44.28894" lon="1.79899">
        <ele>290.46</ele>
        <time>2021-08-17T12:53:36Z</time>
      </trkpt>
      <trkpt lat="44.28892" lon="1.79889">
        <ele>287.57</ele>
        <time>2021-08-17T12:53:40Z</time>
      </trkpt>
      <trkpt lat="44.28891" lon="1.79887">
        <ele>286.61</ele>
        <time>2021-08-17T12:53:41Z</time>
      </trkpt>
      <trkpt lat="44.28889" lon="1.79885">
        <ele>286.13</ele>
        <time>2021-08-17T12:53:42Z</time>
      </trkpt>
      <trkpt lat="44.28887" lon="1.79882">
        <ele>285.17</ele>
        <time>2021-08-17T12:53:43Z</time>
      </trkpt>
      <trkpt lat="44.28886" lon="1.79879">
        <ele>284.69</ele>
        <time>2021-08-17T12:53:44Z</time>
      </trkpt>
      <trkpt lat="44.28885" lon="1.79876">
        <ele>283.73</ele>
        <time>2021-08-17T12:53:45Z</time>
      </trkpt>
      <trkpt lat="44.28883" lon="1.79873">
        <ele>282.77</ele>
        <time>2021-08-17T12:53:46Z</time>
      </trkpt>
      <trkpt lat="44.28882" lon="1.7987">
        <ele>282.28</ele>
        <time>2021-08-17T12:53:47Z</time>
      </trkpt>
      <trkpt lat="44.28879" lon="1.79867">
        <ele>281.32</ele>
        <time>2021-08-17T12:53:48Z</time>
      </trkpt>
      <trkpt lat="44.28876" lon="1.79865">
        <ele>280.36</ele>
        <time>2021-08-17T12:53:49Z</time>
      </trkpt>
      <trkpt lat="44.28874" lon="1.79864">
        <ele>279.88</ele>
        <time>2021-08-17T12:53:50Z</time>
      </trkpt>
      <trkpt lat="44.28872" lon="1.79862">
        <ele>278.44</ele>
        <time>2021-08-17T12:53:51Z</time>
      </trkpt>
      <trkpt lat="44.2887" lon="1.79859">
        <ele>277.96</ele>
        <time>2021-08-17T12:53:52Z</time>
      </trkpt>
      <trkpt lat="44.28868" lon="1.79856">
        <ele>276.52</ele>
        <time>2021-08-17T12:53:53Z</time>
      </trkpt>
      <trkpt lat="44.2886" lon="1.79844">
        <ele>273.15</ele>
        <time>2021-08-17T12:53:57Z</time>
      </trkpt>
      <trkpt lat="44.28853" lon="1.79831">
        <ele>269.31</ele>
        <time>2021-08-17T12:54:01Z</time>
      </trkpt>
      <trkpt lat="44.28845" lon="1.79817">
        <ele>266.42</ele>
        <time>2021-08-17T12:54:05Z</time>
      </trkpt>
      <trkpt lat="44.28841" lon="1.79806">
        <ele>264.98</ele>
        <time>2021-08-17T12:54:07Z</time>
      </trkpt>
      <trkpt lat="44.28839" lon="1.79799">
        <ele>264.02</ele>
        <time>2021-08-17T12:54:08Z</time>
      </trkpt>
      <trkpt lat="44.28838" lon="1.79794">
        <ele>263.54</ele>
        <time>2021-08-17T12:54:09Z</time>
      </trkpt>
      <trkpt lat="44.28836" lon="1.79787">
        <ele>262.58</ele>
        <time>2021-08-17T12:54:10Z</time>
      </trkpt>
      <trkpt lat="44.28835" lon="1.79782">
        <ele>262.1</ele>
        <time>2021-08-17T12:54:11Z</time>
      </trkpt>
      <trkpt lat="44.28831" lon="1.79758">
        <ele>258.25</ele>
        <time>2021-08-17T12:54:16Z</time>
      </trkpt>
      <trkpt lat="44.2883" lon="1.79742">
        <ele>255.85</ele>
        <time>2021-08-17T12:54:19Z</time>
      </trkpt>
      <trkpt lat="44.28828" lon="1.79738">
        <ele>254.89</ele>
        <time>2021-08-17T12:54:20Z</time>
      </trkpt>
      <trkpt lat="44.28825" lon="1.79737">
        <ele>253.93</ele>
        <time>2021-08-17T12:54:21Z</time>
      </trkpt>
      <trkpt lat="44.2882" lon="1.79737">
        <ele>252.96</ele>
        <time>2021-08-17T12:54:22Z</time>
      </trkpt>
      <trkpt lat="44.28814" lon="1.79738">
        <ele>252</ele>
        <time>2021-08-17T12:54:23Z</time>
      </trkpt>
      <trkpt lat="44.28808" lon="1.79739">
        <ele>251.52</ele>
        <time>2021-08-17T12:54:24Z</time>
      </trkpt>
      <trkpt lat="44.28802" lon="1.7974">
        <ele>250.56</ele>
        <time>2021-08-17T12:54:25Z</time>
      </trkpt>
      <trkpt lat="44.28795" lon="1.79742">
        <ele>250.56</ele>
        <time>2021-08-17T12:54:26Z</time>
      </trkpt>
      <trkpt lat="44.28766" lon="1.79749">
        <ele>250.56</ele>
        <time>2021-08-17T12:54:31Z</time>
      </trkpt>
      <trkpt lat="44.28761" lon="1.7975">
        <ele>250.56</ele>
        <time>2021-08-17T12:54:32Z</time>
      </trkpt>
      <trkpt lat="44.28756" lon="1.79752">
        <ele>250.56</ele>
        <time>2021-08-17T12:54:33Z</time>
      </trkpt>
      <trkpt lat="44.28735" lon="1.7976">
        <ele>250.56</ele>
        <time>2021-08-17T12:54:38Z</time>
      </trkpt>
      <trkpt lat="44.28734" lon="1.79759">
        <ele>250.56</ele>
        <time>2021-08-17T12:54:39Z</time>
      </trkpt>
      <trkpt lat="44.28721" lon="1.79738">
        <ele>250.56</ele>
        <time>2021-08-17T12:54:46Z</time>
      </trkpt>
      <trkpt lat="44.28718" lon="1.79734">
        <ele>250.08</ele>
        <time>2021-08-17T12:54:47Z</time>
      </trkpt>
      <trkpt lat="44.28716" lon="1.79729">
        <ele>250.08</ele>
        <time>2021-08-17T12:54:48Z</time>
      </trkpt>
      <trkpt lat="44.28716" lon="1.79725">
        <ele>250.08</ele>
        <time>2021-08-17T12:54:49Z</time>
      </trkpt>
      <trkpt lat="44.28716" lon="1.79721">
        <ele>250.08</ele>
        <time>2021-08-17T12:54:50Z</time>
      </trkpt>
      <trkpt lat="44.28717" lon="1.79719">
        <ele>250.08</ele>
        <time>2021-08-17T12:54:51Z</time>
      </trkpt>
      <trkpt lat="44.28718" lon="1.79718">
        <ele>251.04</ele>
        <time>2021-08-17T12:54:52Z</time>
      </trkpt>
      <trkpt lat="44.28719" lon="1.79716">
        <ele>251.04</ele>
        <time>2021-08-17T12:54:53Z</time>
      </trkpt>
      <trkpt lat="44.2872" lon="1.79712">
        <ele>252</ele>
        <time>2021-08-17T12:54:56Z</time>
      </trkpt>
      <trkpt lat="44.28721" lon="1.79711">
        <ele>252.48</ele>
        <time>2021-08-17T12:54:57Z</time>
      </trkpt>
      <trkpt lat="44.28722" lon="1.79711">
        <ele>252.48</ele>
        <time>2021-08-17T12:54:58Z</time>
      </trkpt>
      <trkpt lat="44.28733" lon="1.79702">
        <ele>254.41</ele>
        <time>2021-08-17T12:55:08Z</time>
      </trkpt>
      <trkpt lat="44.28734" lon="1.79701">
        <ele>254.89</ele>
        <time>2021-08-17T12:55:09Z</time>
      </trkpt>
      <trkpt lat="44.28734" lon="1.79699">
        <ele>254.89</ele>
        <time>2021-08-17T12:55:10Z</time>
      </trkpt>
      <trkpt lat="44.28734" lon="1.79698">
        <ele>255.37</ele>
        <time>2021-08-17T12:55:11Z</time>
      </trkpt>
      <trkpt lat="44.28734" lon="1.79697">
        <ele>255.37</ele>
        <time>2021-08-17T12:55:12Z</time>
      </trkpt>
      <trkpt lat="44.28733" lon="1.79695">
        <ele>255.85</ele>
        <time>2021-08-17T12:55:13Z</time>
      </trkpt>
      <trkpt lat="44.28732" lon="1.79695">
        <ele>255.85</ele>
        <time>2021-08-17T12:55:14Z</time>
      </trkpt>
      <trkpt lat="44.28731" lon="1.79694">
        <ele>255.85</ele>
        <time>2021-08-17T12:55:15Z</time>
      </trkpt>
      <trkpt lat="44.28729" lon="1.79695">
        <ele>256.33</ele>
        <time>2021-08-17T12:55:16Z</time>
      </trkpt>
      <trkpt lat="44.28728" lon="1.79695">
        <ele>256.33</ele>
        <time>2021-08-17T12:55:17Z</time>
      </trkpt>
      <trkpt lat="44.28725" lon="1.79696">
        <ele>256.33</ele>
        <time>2021-08-17T12:55:18Z</time>
      </trkpt>
      <trkpt lat="44.28724" lon="1.79696">
        <ele>256.33</ele>
        <time>2021-08-17T12:55:19Z</time>
      </trkpt>
      <trkpt lat="44.28722" lon="1.79697">
        <ele>256.33</ele>
        <time>2021-08-17T12:55:20Z</time>
      </trkpt>
      <trkpt lat="44.2872" lon="1.79698">
        <ele>256.33</ele>
        <time>2021-08-17T12:55:21Z</time>
      </trkpt>
      <trkpt lat="44.28699" lon="1.79699">
        <ele>256.33</ele>
        <time>2021-08-17T12:55:28Z</time>
      </trkpt>
      <trkpt lat="44.28683" lon="1.79696">
        <ele>256.33</ele>
        <time>2021-08-17T12:55:33Z</time>
      </trkpt>
      <trkpt lat="44.28678" lon="1.79694">
        <ele>255.85</ele>
        <time>2021-08-17T12:55:34Z</time>
      </trkpt>
      <trkpt lat="44.28668" lon="1.7969">
        <ele>254.41</ele>
        <time>2021-08-17T12:55:36Z</time>
      </trkpt>
      <trkpt lat="44.28651" lon="1.79686">
        <ele>253.93</ele>
        <time>2021-08-17T12:55:39Z</time>
      </trkpt>
      <trkpt lat="44.28618" lon="1.79689">
        <ele>253.93</ele>
        <time>2021-08-17T12:55:46Z</time>
      </trkpt>
      <trkpt lat="44.28585" lon="1.79686">
        <ele>252.96</ele>
        <time>2021-08-17T12:55:54Z</time>
      </trkpt>
      <trkpt lat="44.2858" lon="1.79686">
        <ele>252.96</ele>
        <time>2021-08-17T12:55:55Z</time>
      </trkpt>
      <trkpt lat="44.28565" lon="1.79687">
        <ele>252.48</ele>
        <time>2021-08-17T12:55:58Z</time>
      </trkpt>
      <trkpt lat="44.28538" lon="1.79693">
        <ele>252.48</ele>
        <time>2021-08-17T12:56:04Z</time>
      </trkpt>
      <trkpt lat="44.28533" lon="1.79695">
        <ele>252.48</ele>
        <time>2021-08-17T12:56:05Z</time>
      </trkpt>
      <trkpt lat="44.28529" lon="1.79698">
        <ele>251.52</ele>
        <time>2021-08-17T12:56:06Z</time>
      </trkpt>
      <trkpt lat="44.28524" lon="1.79701">
        <ele>251.52</ele>
        <time>2021-08-17T12:56:07Z</time>
      </trkpt>
      <trkpt lat="44.28519" lon="1.79706">
        <ele>251.04</ele>
        <time>2021-08-17T12:56:08Z</time>
      </trkpt>
      <trkpt lat="44.28478" lon="1.79742">
        <ele>250.08</ele>
        <time>2021-08-17T12:56:15Z</time>
      </trkpt>
      <trkpt lat="44.28473" lon="1.79748">
        <ele>250.08</ele>
        <time>2021-08-17T12:56:16Z</time>
      </trkpt>
      <trkpt lat="44.28448" lon="1.79783">
        <ele>251.52</ele>
        <time>2021-08-17T12:56:22Z</time>
      </trkpt>
      <trkpt lat="44.28445" lon="1.79789">
        <ele>251.52</ele>
        <time>2021-08-17T12:56:23Z</time>
      </trkpt>
      <trkpt lat="44.28434" lon="1.79808">
        <ele>251.52</ele>
        <time>2021-08-17T12:56:26Z</time>
      </trkpt>
      <trkpt lat="44.28429" lon="1.79814">
        <ele>250.08</ele>
        <time>2021-08-17T12:56:27Z</time>
      </trkpt>
      <trkpt lat="44.28424" lon="1.79819">
        <ele>250.08</ele>
        <time>2021-08-17T12:56:28Z</time>
      </trkpt>
      <trkpt lat="44.28398" lon="1.79841">
        <ele>246.72</ele>
        <time>2021-08-17T12:56:32Z</time>
      </trkpt>
      <trkpt lat="44.28377" lon="1.79852">
        <ele>245.27</ele>
        <time>2021-08-17T12:56:34Z</time>
      </trkpt>
      <trkpt lat="44.28326" lon="1.79876">
        <ele>246.72</ele>
        <time>2021-08-17T12:56:40Z</time>
      </trkpt>
      <trkpt lat="44.28286" lon="1.79892">
        <ele>247.68</ele>
        <time>2021-08-17T12:56:47Z</time>
      </trkpt>
      <trkpt lat="44.2828" lon="1.79893">
        <ele>247.68</ele>
        <time>2021-08-17T12:56:48Z</time>
      </trkpt>
      <trkpt lat="44.28274" lon="1.79893">
        <ele>247.68</ele>
        <time>2021-08-17T12:56:49Z</time>
      </trkpt>
      <trkpt lat="44.28229" lon="1.79892">
        <ele>246.23</ele>
        <time>2021-08-17T12:56:56Z</time>
      </trkpt>
      <trkpt lat="44.28164" lon="1.7989">
        <ele>244.31</ele>
        <time>2021-08-17T12:57:05Z</time>
      </trkpt>
      <trkpt lat="44.28157" lon="1.79891">
        <ele>244.31</ele>
        <time>2021-08-17T12:57:06Z</time>
      </trkpt>
      <trkpt lat="44.28103" lon="1.79904">
        <ele>242.87</ele>
        <time>2021-08-17T12:57:13Z</time>
      </trkpt>
      <trkpt lat="44.28053" lon="1.79901">
        <ele>242.87</ele>
        <time>2021-08-17T12:57:20Z</time>
      </trkpt>
      <trkpt lat="44.28002" lon="1.79889">
        <ele>242.87</ele>
        <time>2021-08-17T12:57:28Z</time>
      </trkpt>
      <trkpt lat="44.27954" lon="1.79889">
        <ele>242.87</ele>
        <time>2021-08-17T12:57:36Z</time>
      </trkpt>
      <trkpt lat="44.27909" lon="1.79888">
        <ele>242.87</ele>
        <time>2021-08-17T12:57:43Z</time>
      </trkpt>
      <trkpt lat="44.2788" lon="1.79873">
        <ele>242.39</ele>
        <time>2021-08-17T12:57:48Z</time>
      </trkpt>
      <trkpt lat="44.2787" lon="1.79864">
        <ele>242.39</ele>
        <time>2021-08-17T12:57:50Z</time>
      </trkpt>
      <trkpt lat="44.27835" lon="1.79821">
        <ele>242.39</ele>
        <time>2021-08-17T12:57:58Z</time>
      </trkpt>
      <trkpt lat="44.27825" lon="1.79806">
        <ele>243.83</ele>
        <time>2021-08-17T12:58:01Z</time>
      </trkpt>
      <trkpt lat="44.27813" lon="1.79788">
        <ele>244.31</ele>
        <time>2021-08-17T12:58:05Z</time>
      </trkpt>
      <trkpt lat="44.27808" lon="1.7978">
        <ele>244.79</ele>
        <time>2021-08-17T12:58:07Z</time>
      </trkpt>
      <trkpt lat="44.27791" lon="1.79755">
        <ele>245.27</ele>
        <time>2021-08-17T12:58:14Z</time>
      </trkpt>
      <trkpt lat="44.27768" lon="1.79732">
        <ele>245.27</ele>
        <time>2021-08-17T12:58:22Z</time>
      </trkpt>
      <trkpt lat="44.27742" lon="1.79711">
        <ele>245.75</ele>
        <time>2021-08-17T12:58:30Z</time>
      </trkpt>
      <trkpt lat="44.27712" lon="1.79695">
        <ele>246.23</ele>
        <time>2021-08-17T12:58:38Z</time>
      </trkpt>
      <trkpt lat="44.27677" lon="1.79683">
        <ele>246.72</ele>
        <time>2021-08-17T12:58:46Z</time>
      </trkpt>
      <trkpt lat="44.27642" lon="1.79672">
        <ele>246.72</ele>
        <time>2021-08-17T12:58:54Z</time>
      </trkpt>
      <trkpt lat="44.27595" lon="1.79658">
        <ele>245.75</ele>
        <time>2021-08-17T12:59:03Z</time>
      </trkpt>
      <trkpt lat="44.27554" lon="1.79641">
        <ele>243.83</ele>
        <time>2021-08-17T12:59:10Z</time>
      </trkpt>
      <trkpt lat="44.27507" lon="1.79605">
        <ele>241.91</ele>
        <time>2021-08-17T12:59:18Z</time>
      </trkpt>
      <trkpt lat="44.2744" lon="1.79549">
        <ele>239.99</ele>
        <time>2021-08-17T12:59:29Z</time>
      </trkpt>
      <trkpt lat="44.27393" lon="1.79513">
        <ele>237.58</ele>
        <time>2021-08-17T12:59:36Z</time>
      </trkpt>
      <trkpt lat="44.27355" lon="1.79485">
        <ele>236.14</ele>
        <time>2021-08-17T12:59:41Z</time>
      </trkpt>
      <trkpt lat="44.27338" lon="1.79477">
        <ele>235.18</ele>
        <time>2021-08-17T12:59:43Z</time>
      </trkpt>
      <trkpt lat="44.27329" lon="1.79475">
        <ele>235.18</ele>
        <time>2021-08-17T12:59:44Z</time>
      </trkpt>
      <trkpt lat="44.27277" lon="1.79462">
        <ele>234.7</ele>
        <time>2021-08-17T12:59:50Z</time>
      </trkpt>
      <trkpt lat="44.27255" lon="1.79446">
        <ele>234.7</ele>
        <time>2021-08-17T12:59:53Z</time>
      </trkpt>
      <trkpt lat="44.27249" lon="1.7944">
        <ele>234.7</ele>
        <time>2021-08-17T12:59:54Z</time>
      </trkpt>
      <trkpt lat="44.27243" lon="1.79432">
        <ele>234.7</ele>
        <time>2021-08-17T12:59:55Z</time>
      </trkpt>
      <trkpt lat="44.27232" lon="1.79416">
        <ele>234.7</ele>
        <time>2021-08-17T12:59:57Z</time>
      </trkpt>
      <trkpt lat="44.27201" lon="1.7936">
        <ele>234.7</ele>
        <time>2021-08-17T13:00:04Z</time>
      </trkpt>
      <trkpt lat="44.27167" lon="1.79299">
        <ele>234.7</ele>
        <time>2021-08-17T13:00:12Z</time>
      </trkpt>
      <trkpt lat="44.27134" lon="1.79253">
        <ele>234.7</ele>
        <time>2021-08-17T13:00:19Z</time>
      </trkpt>
      <trkpt lat="44.27124" lon="1.79241">
        <ele>234.7</ele>
        <time>2021-08-17T13:00:21Z</time>
      </trkpt>
      <trkpt lat="44.27096" lon="1.79205">
        <ele>236.14</ele>
        <time>2021-08-17T13:00:27Z</time>
      </trkpt>
      <trkpt lat="44.27064" lon="1.79177">
        <ele>236.14</ele>
        <time>2021-08-17T13:00:34Z</time>
      </trkpt>
      <trkpt lat="44.27018" lon="1.79153">
        <ele>235.18</ele>
        <time>2021-08-17T13:00:42Z</time>
      </trkpt>
      <trkpt lat="44.26971" lon="1.79132">
        <ele>232.3</ele>
        <time>2021-08-17T13:00:49Z</time>
      </trkpt>
      <trkpt lat="44.26938" lon="1.79101">
        <ele>230.37</ele>
        <time>2021-08-17T13:00:54Z</time>
      </trkpt>
      <trkpt lat="44.26886" lon="1.79043">
        <ele>228.93</ele>
        <time>2021-08-17T13:01:02Z</time>
      </trkpt>
      <trkpt lat="44.26856" lon="1.79012">
        <ele>228.93</ele>
        <time>2021-08-17T13:01:07Z</time>
      </trkpt>
      <trkpt lat="44.26822" lon="1.78986">
        <ele>228.93</ele>
        <time>2021-08-17T13:01:13Z</time>
      </trkpt>
      <trkpt lat="44.26817" lon="1.78982">
        <ele>228.93</ele>
        <time>2021-08-17T13:01:14Z</time>
      </trkpt>
      <trkpt lat="44.26814" lon="1.78978">
        <ele>228.93</ele>
        <time>2021-08-17T13:01:15Z</time>
      </trkpt>
      <trkpt lat="44.26812" lon="1.78973">
        <ele>228.93</ele>
        <time>2021-08-17T13:01:16Z</time>
      </trkpt>
      <trkpt lat="44.26812" lon="1.78967">
        <ele>228.93</ele>
        <time>2021-08-17T13:01:17Z</time>
      </trkpt>
      <trkpt lat="44.26814" lon="1.7896">
        <ele>228.93</ele>
        <time>2021-08-17T13:01:18Z</time>
      </trkpt>
      <trkpt lat="44.26815" lon="1.78958">
        <ele>228.93</ele>
        <time>2021-08-17T13:01:19Z</time>
      </trkpt>
      <trkpt lat="44.2682" lon="1.78947">
        <ele>230.37</ele>
        <time>2021-08-17T13:01:22Z</time>
      </trkpt>
      <trkpt lat="44.26826" lon="1.78931">
        <ele>231.33</ele>
        <time>2021-08-17T13:01:30Z</time>
      </trkpt>
      <trkpt lat="44.26827" lon="1.78928">
        <ele>231.81</ele>
        <time>2021-08-17T13:01:32Z</time>
      </trkpt>
      <trkpt lat="44.26829" lon="1.78926">
        <ele>231.81</ele>
        <time>2021-08-17T13:01:33Z</time>
      </trkpt>
      <trkpt lat="44.2683" lon="1.78924">
        <ele>232.3</ele>
        <time>2021-08-17T13:01:35Z</time>
      </trkpt>
      <trkpt lat="44.2683" lon="1.78922">
        <ele>232.3</ele>
        <time>2021-08-17T13:01:36Z</time>
      </trkpt>
      <trkpt lat="44.26836" lon="1.78909">
        <ele>233.26</ele>
        <time>2021-08-17T13:01:43Z</time>
      </trkpt>
      <trkpt lat="44.26843" lon="1.78898">
        <ele>234.22</ele>
        <time>2021-08-17T13:01:51Z</time>
      </trkpt>
      <trkpt lat="44.26847" lon="1.78896">
        <ele>235.18</ele>
        <time>2021-08-17T13:01:54Z</time>
      </trkpt>
      <trkpt lat="44.26857" lon="1.78891">
        <ele>236.62</ele>
        <time>2021-08-17T13:02:03Z</time>
      </trkpt>
      <trkpt lat="44.26869" lon="1.7889">
        <ele>237.58</ele>
        <time>2021-08-17T13:02:12Z</time>
      </trkpt>
      <trkpt lat="44.26876" lon="1.78893">
        <ele>238.54</ele>
        <time>2021-08-17T13:02:18Z</time>
      </trkpt>
      <trkpt lat="44.26884" lon="1.78896">
        <ele>239.51</ele>
        <time>2021-08-17T13:02:26Z</time>
      </trkpt>
      <trkpt lat="44.2689" lon="1.78899">
        <ele>239.99</ele>
        <time>2021-08-17T13:02:32Z</time>
      </trkpt>
      <trkpt lat="44.26898" lon="1.78904">
        <ele>240.95</ele>
        <time>2021-08-17T13:02:39Z</time>
      </trkpt>
      <trkpt lat="44.26908" lon="1.7891">
        <ele>241.91</ele>
        <time>2021-08-17T13:02:47Z</time>
      </trkpt>
      <trkpt lat="44.26913" lon="1.78913">
        <ele>242.39</ele>
        <time>2021-08-17T13:02:52Z</time>
      </trkpt>
      <trkpt lat="44.26925" lon="1.78914">
        <ele>243.83</ele>
        <time>2021-08-17T13:03:00Z</time>
      </trkpt>
      <trkpt lat="44.26934" lon="1.78908">
        <ele>245.27</ele>
        <time>2021-08-17T13:03:08Z</time>
      </trkpt>
      <trkpt lat="44.26935" lon="1.78906">
        <ele>245.27</ele>
        <time>2021-08-17T13:03:09Z</time>
      </trkpt>
      <trkpt lat="44.26936" lon="1.78905">
        <ele>245.27</ele>
        <time>2021-08-17T13:03:10Z</time>
      </trkpt>
      <trkpt lat="44.26936" lon="1.78903">
        <ele>245.27</ele>
        <time>2021-08-17T13:03:11Z</time>
      </trkpt>
      <trkpt lat="44.26937" lon="1.78901">
        <ele>245.75</ele>
        <time>2021-08-17T13:03:12Z</time>
      </trkpt>
      <trkpt lat="44.26938" lon="1.789">
        <ele>245.75</ele>
        <time>2021-08-17T13:03:13Z</time>
      </trkpt>
      <trkpt lat="44.26938" lon="1.78898">
        <ele>245.75</ele>
        <time>2021-08-17T13:03:14Z</time>
      </trkpt>
      <trkpt lat="44.26938" lon="1.78897">
        <ele>245.75</ele>
        <time>2021-08-17T13:03:15Z</time>
      </trkpt>
      <trkpt lat="44.26939" lon="1.78895">
        <ele>246.23</ele>
        <time>2021-08-17T13:03:16Z</time>
      </trkpt>
      <trkpt lat="44.26936" lon="1.78877">
        <ele>247.2</ele>
        <time>2021-08-17T13:03:25Z</time>
      </trkpt>
      <trkpt lat="44.26935" lon="1.78875">
        <ele>247.2</ele>
        <time>2021-08-17T13:03:26Z</time>
      </trkpt>
      <trkpt lat="44.26929" lon="1.78863">
        <ele>248.16</ele>
        <time>2021-08-17T13:03:34Z</time>
      </trkpt>
      <trkpt lat="44.2693" lon="1.78864">
        <ele>247.68</ele>
        <time>2021-08-17T13:03:41Z</time>
      </trkpt>
      <trkpt lat="44.26931" lon="1.78864">
        <ele>248.16</ele>
        <time>2021-08-17T13:03:53Z</time>
      </trkpt>
      <trkpt lat="44.2693" lon="1.78866">
        <ele>248.16</ele>
        <time>2021-08-17T13:04:07Z</time>
      </trkpt>
      <trkpt lat="44.26933" lon="1.78862">
        <ele>248.16</ele>
        <time>2021-08-17T13:04:21Z</time>
      </trkpt>
      <trkpt lat="44.26931" lon="1.78864">
        <ele>248.16</ele>
        <time>2021-08-17T13:04:35Z</time>
      </trkpt>
      <trkpt lat="44.26926" lon="1.78854">
        <ele>248.64</ele>
        <time>2021-08-17T13:04:41Z</time>
      </trkpt>
      <trkpt lat="44.26916" lon="1.78838">
        <ele>250.08</ele>
        <time>2021-08-17T13:04:51Z</time>
      </trkpt>
      <trkpt lat="44.26907" lon="1.78819">
        <ele>251.52</ele>
        <time>2021-08-17T13:05:00Z</time>
      </trkpt>
      <trkpt lat="44.26897" lon="1.78801">
        <ele>252.48</ele>
        <time>2021-08-17T13:05:10Z</time>
      </trkpt>
      <trkpt lat="44.26886" lon="1.78782">
        <ele>254.41</ele>
        <time>2021-08-17T13:05:21Z</time>
      </trkpt>
      <trkpt lat="44.26877" lon="1.78768">
        <ele>255.85</ele>
        <time>2021-08-17T13:05:31Z</time>
      </trkpt>
      <trkpt lat="44.26868" lon="1.78757">
        <ele>256.81</ele>
        <time>2021-08-17T13:05:39Z</time>
      </trkpt>
      <trkpt lat="44.26859" lon="1.78743">
        <ele>258.25</ele>
        <time>2021-08-17T13:05:49Z</time>
      </trkpt>
      <trkpt lat="44.26851" lon="1.78731">
        <ele>259.21</ele>
        <time>2021-08-17T13:05:58Z</time>
      </trkpt>
      <trkpt lat="44.26843" lon="1.78722">
        <ele>260.65</ele>
        <time>2021-08-17T13:06:06Z</time>
      </trkpt>
      <trkpt lat="44.26837" lon="1.78713">
        <ele>261.62</ele>
        <time>2021-08-17T13:06:13Z</time>
      </trkpt>
      <trkpt lat="44.26827" lon="1.78703">
        <ele>262.58</ele>
        <time>2021-08-17T13:06:22Z</time>
      </trkpt>
      <trkpt lat="44.26822" lon="1.78697">
        <ele>263.06</ele>
        <time>2021-08-17T13:06:27Z</time>
      </trkpt>
      <trkpt lat="44.26821" lon="1.78696">
        <ele>263.06</ele>
        <time>2021-08-17T13:06:28Z</time>
      </trkpt>
      <trkpt lat="44.2682" lon="1.78695">
        <ele>263.54</ele>
        <time>2021-08-17T13:06:29Z</time>
      </trkpt>
      <trkpt lat="44.26818" lon="1.78693">
        <ele>263.54</ele>
        <time>2021-08-17T13:06:30Z</time>
      </trkpt>
      <trkpt lat="44.26817" lon="1.78692">
        <ele>264.02</ele>
        <time>2021-08-17T13:06:31Z</time>
      </trkpt>
      <trkpt lat="44.26815" lon="1.78691">
        <ele>264.02</ele>
        <time>2021-08-17T13:06:32Z</time>
      </trkpt>
      <trkpt lat="44.26804" lon="1.78682">
        <ele>265.46</ele>
        <time>2021-08-17T13:06:41Z</time>
      </trkpt>
      <trkpt lat="44.26792" lon="1.78675">
        <ele>266.42</ele>
        <time>2021-08-17T13:06:51Z</time>
      </trkpt>
      <trkpt lat="44.26791" lon="1.78675">
        <ele>266.42</ele>
        <time>2021-08-17T13:06:52Z</time>
      </trkpt>
      <trkpt lat="44.26789" lon="1.78674">
        <ele>266.9</ele>
        <time>2021-08-17T13:06:53Z</time>
      </trkpt>
      <trkpt lat="44.26783" lon="1.78671">
        <ele>267.38</ele>
        <time>2021-08-17T13:06:58Z</time>
      </trkpt>
      <trkpt lat="44.26782" lon="1.78671">
        <ele>267.86</ele>
        <time>2021-08-17T13:06:59Z</time>
      </trkpt>
      <trkpt lat="44.26772" lon="1.78665">
        <ele>268.83</ele>
        <time>2021-08-17T13:07:08Z</time>
      </trkpt>
      <trkpt lat="44.26764" lon="1.78661">
        <ele>269.79</ele>
        <time>2021-08-17T13:07:13Z</time>
      </trkpt>
      <trkpt lat="44.26763" lon="1.78659">
        <ele>269.79</ele>
        <time>2021-08-17T13:07:14Z</time>
      </trkpt>
      <trkpt lat="44.26761" lon="1.78658">
        <ele>269.79</ele>
        <time>2021-08-17T13:07:15Z</time>
      </trkpt>
      <trkpt lat="44.2676" lon="1.78658">
        <ele>270.27</ele>
        <time>2021-08-17T13:07:16Z</time>
      </trkpt>
      <trkpt lat="44.26758" lon="1.78657">
        <ele>270.27</ele>
        <time>2021-08-17T13:07:17Z</time>
      </trkpt>
      <trkpt lat="44.26757" lon="1.78657">
        <ele>270.75</ele>
        <time>2021-08-17T13:07:18Z</time>
      </trkpt>
      <trkpt lat="44.26755" lon="1.78655">
        <ele>270.75</ele>
        <time>2021-08-17T13:07:19Z</time>
      </trkpt>
      <trkpt lat="44.26753" lon="1.78654">
        <ele>270.75</ele>
        <time>2021-08-17T13:07:20Z</time>
      </trkpt>
      <trkpt lat="44.26751" lon="1.78653">
        <ele>270.75</ele>
        <time>2021-08-17T13:07:21Z</time>
      </trkpt>
      <trkpt lat="44.2675" lon="1.78653">
        <ele>270.75</ele>
        <time>2021-08-17T13:07:22Z</time>
      </trkpt>
      <trkpt lat="44.26748" lon="1.78652">
        <ele>270.75</ele>
        <time>2021-08-17T13:07:23Z</time>
      </trkpt>
      <trkpt lat="44.26746" lon="1.78651">
        <ele>271.71</ele>
        <time>2021-08-17T13:07:24Z</time>
      </trkpt>
      <trkpt lat="44.26734" lon="1.78645">
        <ele>272.67</ele>
        <time>2021-08-17T13:07:31Z</time>
      </trkpt>
      <trkpt lat="44.26726" lon="1.7864">
        <ele>273.15</ele>
        <time>2021-08-17T13:07:36Z</time>
      </trkpt>
      <trkpt lat="44.26724" lon="1.7864">
        <ele>273.63</ele>
        <time>2021-08-17T13:07:37Z</time>
      </trkpt>
      <trkpt lat="44.26715" lon="1.78634">
        <ele>274.59</ele>
        <time>2021-08-17T13:07:43Z</time>
      </trkpt>
      <trkpt lat="44.26713" lon="1.78634">
        <ele>274.59</ele>
        <time>2021-08-17T13:07:44Z</time>
      </trkpt>
      <trkpt lat="44.26702" lon="1.78628">
        <ele>275.56</ele>
        <time>2021-08-17T13:07:51Z</time>
      </trkpt>
      <trkpt lat="44.26702" lon="1.78627">
        <ele>276.04</ele>
        <time>2021-08-17T13:07:52Z</time>
      </trkpt>
      <trkpt lat="44.267" lon="1.78626">
        <ele>276.04</ele>
        <time>2021-08-17T13:07:53Z</time>
      </trkpt>
      <trkpt lat="44.26699" lon="1.78626">
        <ele>276.52</ele>
        <time>2021-08-17T13:07:54Z</time>
      </trkpt>
      <trkpt lat="44.26698" lon="1.78625">
        <ele>276.52</ele>
        <time>2021-08-17T13:07:55Z</time>
      </trkpt>
      <trkpt lat="44.26697" lon="1.78624">
        <ele>276.52</ele>
        <time>2021-08-17T13:07:56Z</time>
      </trkpt>
      <trkpt lat="44.26696" lon="1.78623">
        <ele>276.52</ele>
        <time>2021-08-17T13:07:57Z</time>
      </trkpt>
      <trkpt lat="44.26687" lon="1.78617">
        <ele>277.48</ele>
        <time>2021-08-17T13:08:04Z</time>
      </trkpt>
      <trkpt lat="44.26677" lon="1.78605">
        <ele>278.92</ele>
        <time>2021-08-17T13:08:13Z</time>
      </trkpt>
      <trkpt lat="44.26669" lon="1.78596">
        <ele>279.4</ele>
        <time>2021-08-17T13:08:21Z</time>
      </trkpt>
      <trkpt lat="44.26659" lon="1.78585">
        <ele>280.84</ele>
        <time>2021-08-17T13:08:30Z</time>
      </trkpt>
      <trkpt lat="44.26645" lon="1.78576">
        <ele>282.28</ele>
        <time>2021-08-17T13:08:39Z</time>
      </trkpt>
      <trkpt lat="44.26629" lon="1.78571">
        <ele>283.25</ele>
        <time>2021-08-17T13:08:49Z</time>
      </trkpt>
      <trkpt lat="44.26614" lon="1.7857">
        <ele>284.69</ele>
        <time>2021-08-17T13:08:58Z</time>
      </trkpt>
      <trkpt lat="44.26609" lon="1.7857">
        <ele>285.17</ele>
        <time>2021-08-17T13:09:01Z</time>
      </trkpt>
      <trkpt lat="44.26594" lon="1.78569">
        <ele>285.65</ele>
        <time>2021-08-17T13:09:09Z</time>
      </trkpt>
      <trkpt lat="44.26584" lon="1.78557">
        <ele>287.57</ele>
        <time>2021-08-17T13:09:17Z</time>
      </trkpt>
      <trkpt lat="44.26588" lon="1.78545">
        <ele>289.97</ele>
        <time>2021-08-17T13:09:24Z</time>
      </trkpt>
      <trkpt lat="44.26602" lon="1.78544">
        <ele>290.94</ele>
        <time>2021-08-17T13:09:33Z</time>
      </trkpt>
      <trkpt lat="44.26609" lon="1.78545">
        <ele>291.9</ele>
        <time>2021-08-17T13:09:38Z</time>
      </trkpt>
      <trkpt lat="44.2661" lon="1.78545">
        <ele>291.9</ele>
        <time>2021-08-17T13:09:39Z</time>
      </trkpt>
      <trkpt lat="44.26612" lon="1.78546">
        <ele>292.38</ele>
        <time>2021-08-17T13:09:40Z</time>
      </trkpt>
      <trkpt lat="44.26617" lon="1.78546">
        <ele>292.86</ele>
        <time>2021-08-17T13:09:43Z</time>
      </trkpt>
      <trkpt lat="44.26618" lon="1.78546">
        <ele>292.86</ele>
        <time>2021-08-17T13:09:44Z</time>
      </trkpt>
      <trkpt lat="44.26619" lon="1.78546">
        <ele>292.86</ele>
        <time>2021-08-17T13:09:45Z</time>
      </trkpt>
      <trkpt lat="44.26634" lon="1.78546">
        <ele>294.78</ele>
        <time>2021-08-17T13:09:54Z</time>
      </trkpt>
      <trkpt lat="44.26647" lon="1.78544">
        <ele>296.22</ele>
        <time>2021-08-17T13:10:04Z</time>
      </trkpt>
      <trkpt lat="44.26659" lon="1.78544">
        <ele>298.15</ele>
        <time>2021-08-17T13:10:13Z</time>
      </trkpt>
      <trkpt lat="44.26671" lon="1.78546">
        <ele>299.59</ele>
        <time>2021-08-17T13:10:23Z</time>
      </trkpt>
      <trkpt lat="44.26673" lon="1.78546">
        <ele>299.59</ele>
        <time>2021-08-17T13:10:24Z</time>
      </trkpt>
      <trkpt lat="44.26674" lon="1.78547">
        <ele>299.59</ele>
        <time>2021-08-17T13:10:25Z</time>
      </trkpt>
      <trkpt lat="44.26675" lon="1.78548">
        <ele>299.59</ele>
        <time>2021-08-17T13:10:26Z</time>
      </trkpt>
      <trkpt lat="44.26675" lon="1.78549">
        <ele>300.07</ele>
        <time>2021-08-17T13:10:27Z</time>
      </trkpt>
      <trkpt lat="44.26676" lon="1.7855">
        <ele>300.07</ele>
        <time>2021-08-17T13:10:28Z</time>
      </trkpt>
      <trkpt lat="44.26677" lon="1.78551">
        <ele>300.55</ele>
        <time>2021-08-17T13:10:29Z</time>
      </trkpt>
      <trkpt lat="44.26678" lon="1.78552">
        <ele>300.55</ele>
        <time>2021-08-17T13:10:30Z</time>
      </trkpt>
      <trkpt lat="44.26689" lon="1.78561">
        <ele>301.51</ele>
        <time>2021-08-17T13:10:40Z</time>
      </trkpt>
      <trkpt lat="44.26699" lon="1.78569">
        <ele>302.95</ele>
        <time>2021-08-17T13:10:49Z</time>
      </trkpt>
      <trkpt lat="44.26709" lon="1.78573">
        <ele>304.88</ele>
        <time>2021-08-17T13:10:57Z</time>
      </trkpt>
      <trkpt lat="44.26722" lon="1.78576">
        <ele>306.32</ele>
        <time>2021-08-17T13:11:05Z</time>
      </trkpt>
      <trkpt lat="44.26732" lon="1.78574">
        <ele>307.28</ele>
        <time>2021-08-17T13:11:11Z</time>
      </trkpt>
      <trkpt lat="44.26744" lon="1.78571">
        <ele>308.72</ele>
        <time>2021-08-17T13:11:20Z</time>
      </trkpt>
      <trkpt lat="44.26756" lon="1.78569">
        <ele>310.16</ele>
        <time>2021-08-17T13:11:29Z</time>
      </trkpt>
      <trkpt lat="44.26768" lon="1.78568">
        <ele>311.12</ele>
        <time>2021-08-17T13:11:38Z</time>
      </trkpt>
      <trkpt lat="44.2677" lon="1.78568">
        <ele>311.6</ele>
        <time>2021-08-17T13:11:40Z</time>
      </trkpt>
      <trkpt lat="44.26774" lon="1.78571">
        <ele>312.09</ele>
        <time>2021-08-17T13:11:43Z</time>
      </trkpt>
      <trkpt lat="44.26775" lon="1.78571">
        <ele>312.09</ele>
        <time>2021-08-17T13:11:44Z</time>
      </trkpt>
      <trkpt lat="44.26782" lon="1.7857">
        <ele>313.05</ele>
        <time>2021-08-17T13:11:50Z</time>
      </trkpt>
      <trkpt lat="44.26783" lon="1.78571">
        <ele>313.53</ele>
        <time>2021-08-17T13:11:51Z</time>
      </trkpt>
      <trkpt lat="44.26785" lon="1.78571">
        <ele>313.53</ele>
        <time>2021-08-17T13:11:52Z</time>
      </trkpt>
      <trkpt lat="44.26786" lon="1.78571">
        <ele>313.53</ele>
        <time>2021-08-17T13:11:53Z</time>
      </trkpt>
      <trkpt lat="44.26787" lon="1.78571">
        <ele>314.01</ele>
        <time>2021-08-17T13:11:54Z</time>
      </trkpt>
      <trkpt lat="44.26789" lon="1.78571">
        <ele>314.01</ele>
        <time>2021-08-17T13:11:55Z</time>
      </trkpt>
      <trkpt lat="44.2679" lon="1.78572">
        <ele>314.01</ele>
        <time>2021-08-17T13:11:56Z</time>
      </trkpt>
      <trkpt lat="44.26791" lon="1.78572">
        <ele>314.01</ele>
        <time>2021-08-17T13:11:57Z</time>
      </trkpt>
      <trkpt lat="44.26798" lon="1.78574">
        <ele>315.45</ele>
        <time>2021-08-17T13:12:02Z</time>
      </trkpt>
      <trkpt lat="44.26799" lon="1.78575">
        <ele>315.45</ele>
        <time>2021-08-17T13:12:03Z</time>
      </trkpt>
      <trkpt lat="44.26801" lon="1.78575">
        <ele>315.45</ele>
        <time>2021-08-17T13:12:04Z</time>
      </trkpt>
      <trkpt lat="44.26802" lon="1.78575">
        <ele>315.93</ele>
        <time>2021-08-17T13:12:05Z</time>
      </trkpt>
      <trkpt lat="44.26804" lon="1.78574">
        <ele>315.93</ele>
        <time>2021-08-17T13:12:06Z</time>
      </trkpt>
      <trkpt lat="44.26805" lon="1.78574">
        <ele>315.93</ele>
        <time>2021-08-17T13:12:07Z</time>
      </trkpt>
      <trkpt lat="44.26807" lon="1.78573">
        <ele>315.93</ele>
        <time>2021-08-17T13:12:08Z</time>
      </trkpt>
      <trkpt lat="44.26808" lon="1.78572">
        <ele>316.41</ele>
        <time>2021-08-17T13:12:09Z</time>
      </trkpt>
      <trkpt lat="44.2681" lon="1.78571">
        <ele>316.41</ele>
        <time>2021-08-17T13:12:10Z</time>
      </trkpt>
      <trkpt lat="44.26811" lon="1.78569">
        <ele>316.41</ele>
        <time>2021-08-17T13:12:11Z</time>
      </trkpt>
      <trkpt lat="44.26813" lon="1.78568">
        <ele>316.41</ele>
        <time>2021-08-17T13:12:12Z</time>
      </trkpt>
      <trkpt lat="44.26814" lon="1.78566">
        <ele>316.41</ele>
        <time>2021-08-17T13:12:13Z</time>
      </trkpt>
      <trkpt lat="44.26822" lon="1.78547">
        <ele>316.89</ele>
        <time>2021-08-17T13:12:20Z</time>
      </trkpt>
      <trkpt lat="44.26832" lon="1.78524">
        <ele>317.37</ele>
        <time>2021-08-17T13:12:28Z</time>
      </trkpt>
      <trkpt lat="44.26838" lon="1.7851">
        <ele>318.33</ele>
        <time>2021-08-17T13:12:35Z</time>
      </trkpt>
      <trkpt lat="44.26838" lon="1.78507">
        <ele>318.33</ele>
        <time>2021-08-17T13:12:36Z</time>
      </trkpt>
      <trkpt lat="44.26837" lon="1.78503">
        <ele>318.33</ele>
        <time>2021-08-17T13:12:37Z</time>
      </trkpt>
      <trkpt lat="44.26836" lon="1.785">
        <ele>318.33</ele>
        <time>2021-08-17T13:12:38Z</time>
      </trkpt>
      <trkpt lat="44.26822" lon="1.78485">
        <ele>318.33</ele>
        <time>2021-08-17T13:12:45Z</time>
      </trkpt>
      <trkpt lat="44.26803" lon="1.78463">
        <ele>318.33</ele>
        <time>2021-08-17T13:12:52Z</time>
      </trkpt>
      <trkpt lat="44.2678" lon="1.78434">
        <ele>318.33</ele>
        <time>2021-08-17T13:13:01Z</time>
      </trkpt>
      <trkpt lat="44.2676" lon="1.78405">
        <ele>319.3</ele>
        <time>2021-08-17T13:13:09Z</time>
      </trkpt>
      <trkpt lat="44.26741" lon="1.78385">
        <ele>319.78</ele>
        <time>2021-08-17T13:13:16Z</time>
      </trkpt>
      <trkpt lat="44.26738" lon="1.78385">
        <ele>319.78</ele>
        <time>2021-08-17T13:13:17Z</time>
      </trkpt>
      <trkpt lat="44.26735" lon="1.78387">
        <ele>319.78</ele>
        <time>2021-08-17T13:13:18Z</time>
      </trkpt>
      <trkpt lat="44.26733" lon="1.7839">
        <ele>319.78</ele>
        <time>2021-08-17T13:13:19Z</time>
      </trkpt>
      <trkpt lat="44.26732" lon="1.78393">
        <ele>319.78</ele>
        <time>2021-08-17T13:13:20Z</time>
      </trkpt>
      <trkpt lat="44.2673" lon="1.78397">
        <ele>319.78</ele>
        <time>2021-08-17T13:13:21Z</time>
      </trkpt>
      <trkpt lat="44.26722" lon="1.78429">
        <ele>319.78</ele>
        <time>2021-08-17T13:13:28Z</time>
      </trkpt>
      <trkpt lat="44.26719" lon="1.78441">
        <ele>318.33</ele>
        <time>2021-08-17T13:13:30Z</time>
      </trkpt>
      <trkpt lat="44.26717" lon="1.78448">
        <ele>318.33</ele>
        <time>2021-08-17T13:13:31Z</time>
      </trkpt>
      <trkpt lat="44.26713" lon="1.78461">
        <ele>318.33</ele>
        <time>2021-08-17T13:13:33Z</time>
      </trkpt>
      <trkpt lat="44.2671" lon="1.78468">
        <ele>317.85</ele>
        <time>2021-08-17T13:13:34Z</time>
      </trkpt>
      <trkpt lat="44.26707" lon="1.78473">
        <ele>317.85</ele>
        <time>2021-08-17T13:13:35Z</time>
      </trkpt>
      <trkpt lat="44.26704" lon="1.78477">
        <ele>317.37</ele>
        <time>2021-08-17T13:13:36Z</time>
      </trkpt>
      <trkpt lat="44.267" lon="1.78479">
        <ele>317.37</ele>
        <time>2021-08-17T13:13:37Z</time>
      </trkpt>
      <trkpt lat="44.26695" lon="1.7848">
        <ele>317.37</ele>
        <time>2021-08-17T13:13:38Z</time>
      </trkpt>
      <trkpt lat="44.2669" lon="1.7848">
        <ele>317.37</ele>
        <time>2021-08-17T13:13:39Z</time>
      </trkpt>
      <trkpt lat="44.26685" lon="1.7848">
        <ele>317.37</ele>
        <time>2021-08-17T13:13:40Z</time>
      </trkpt>
      <trkpt lat="44.26681" lon="1.78478">
        <ele>317.37</ele>
        <time>2021-08-17T13:13:41Z</time>
      </trkpt>
      <trkpt lat="44.26677" lon="1.78475">
        <ele>317.37</ele>
        <time>2021-08-17T13:13:42Z</time>
      </trkpt>
      <trkpt lat="44.26674" lon="1.78472">
        <ele>317.37</ele>
        <time>2021-08-17T13:13:43Z</time>
      </trkpt>
      <trkpt lat="44.26672" lon="1.78469">
        <ele>317.37</ele>
        <time>2021-08-17T13:13:44Z</time>
      </trkpt>
      <trkpt lat="44.26671" lon="1.78465">
        <ele>317.37</ele>
        <time>2021-08-17T13:13:45Z</time>
      </trkpt>
      <trkpt lat="44.26669" lon="1.78462">
        <ele>317.37</ele>
        <time>2021-08-17T13:13:46Z</time>
      </trkpt>
      <trkpt lat="44.26664" lon="1.78447">
        <ele>317.37</ele>
        <time>2021-08-17T13:13:51Z</time>
      </trkpt>
      <trkpt lat="44.26664" lon="1.7844">
        <ele>318.81</ele>
        <time>2021-08-17T13:13:54Z</time>
      </trkpt>
      <trkpt lat="44.26664" lon="1.78438">
        <ele>318.81</ele>
        <time>2021-08-17T13:13:56Z</time>
      </trkpt>
      <trkpt lat="44.26664" lon="1.78436">
        <ele>318.81</ele>
        <time>2021-08-17T13:13:57Z</time>
      </trkpt>
      <trkpt lat="44.26662" lon="1.78437">
        <ele>318.33</ele>
        <time>2021-08-17T13:13:58Z</time>
      </trkpt>
      <trkpt lat="44.26661" lon="1.78438">
        <ele>318.33</ele>
        <time>2021-08-17T13:13:59Z</time>
      </trkpt>
      <trkpt lat="44.26658" lon="1.7844">
        <ele>318.33</ele>
        <time>2021-08-17T13:14:00Z</time>
      </trkpt>
      <trkpt lat="44.26656" lon="1.78441">
        <ele>318.33</ele>
        <time>2021-08-17T13:14:01Z</time>
      </trkpt>
      <trkpt lat="44.26642" lon="1.78441">
        <ele>318.81</ele>
        <time>2021-08-17T13:14:07Z</time>
      </trkpt>
      <trkpt lat="44.2661" lon="1.78434">
        <ele>319.3</ele>
        <time>2021-08-17T13:14:17Z</time>
      </trkpt>
      <trkpt lat="44.26596" lon="1.78431">
        <ele>320.26</ele>
        <time>2021-08-17T13:14:24Z</time>
      </trkpt>
      <trkpt lat="44.26579" lon="1.78424">
        <ele>321.7</ele>
        <time>2021-08-17T13:14:33Z</time>
      </trkpt>
      <trkpt lat="44.26564" lon="1.78417">
        <ele>322.66</ele>
        <time>2021-08-17T13:14:41Z</time>
      </trkpt>
      <trkpt lat="44.26545" lon="1.7841">
        <ele>322.66</ele>
        <time>2021-08-17T13:14:48Z</time>
      </trkpt>
      <trkpt lat="44.26521" lon="1.78413">
        <ele>321.22</ele>
        <time>2021-08-17T13:14:54Z</time>
      </trkpt>
      <trkpt lat="44.26495" lon="1.78407">
        <ele>320.74</ele>
        <time>2021-08-17T13:15:01Z</time>
      </trkpt>
      <trkpt lat="44.26486" lon="1.78403">
        <ele>320.26</ele>
        <time>2021-08-17T13:15:03Z</time>
      </trkpt>
      <trkpt lat="44.26459" lon="1.78387">
        <ele>320.26</ele>
        <time>2021-08-17T13:15:10Z</time>
      </trkpt>
      <trkpt lat="44.26443" lon="1.78369">
        <ele>321.7</ele>
        <time>2021-08-17T13:15:16Z</time>
      </trkpt>
      <trkpt lat="44.26434" lon="1.78357">
        <ele>322.18</ele>
        <time>2021-08-17T13:15:19Z</time>
      </trkpt>
      <trkpt lat="44.26427" lon="1.78349">
        <ele>322.18</ele>
        <time>2021-08-17T13:15:21Z</time>
      </trkpt>
      <trkpt lat="44.26396" lon="1.78325">
        <ele>320.26</ele>
        <time>2021-08-17T13:15:28Z</time>
      </trkpt>
      <trkpt lat="44.2637" lon="1.78306">
        <ele>319.3</ele>
        <time>2021-08-17T13:15:33Z</time>
      </trkpt>
      <trkpt lat="44.26346" lon="1.78289">
        <ele>317.37</ele>
        <time>2021-08-17T13:15:38Z</time>
      </trkpt>
      <trkpt lat="44.26342" lon="1.78285">
        <ele>316.89</ele>
        <time>2021-08-17T13:15:41Z</time>
      </trkpt>
      <trkpt lat="44.26342" lon="1.78284">
        <ele>316.89</ele>
        <time>2021-08-17T13:15:42Z</time>
      </trkpt>
      <trkpt lat="44.26345" lon="1.78285">
        <ele>316.89</ele>
        <time>2021-08-17T13:15:46Z</time>
      </trkpt>
      <trkpt lat="44.26352" lon="1.78292">
        <ele>316.89</ele>
        <time>2021-08-17T13:15:52Z</time>
      </trkpt>
      <trkpt lat="44.26359" lon="1.78298">
        <ele>318.33</ele>
        <time>2021-08-17T13:15:56Z</time>
      </trkpt>
      <trkpt lat="44.26364" lon="1.78302">
        <ele>318.33</ele>
        <time>2021-08-17T13:15:59Z</time>
      </trkpt>
      <trkpt lat="44.26363" lon="1.78305">
        <ele>318.81</ele>
        <time>2021-08-17T13:16:00Z</time>
      </trkpt>
      <trkpt lat="44.26362" lon="1.78306">
        <ele>318.81</ele>
        <time>2021-08-17T13:16:01Z</time>
      </trkpt>
      <trkpt lat="44.26359" lon="1.78306">
        <ele>318.81</ele>
        <time>2021-08-17T13:16:02Z</time>
      </trkpt>
      <trkpt lat="44.26357" lon="1.78305">
        <ele>316.89</ele>
        <time>2021-08-17T13:16:03Z</time>
      </trkpt>
      <trkpt lat="44.26354" lon="1.78303">
        <ele>316.89</ele>
        <time>2021-08-17T13:16:04Z</time>
      </trkpt>
      <trkpt lat="44.26337" lon="1.78289">
        <ele>314.97</ele>
        <time>2021-08-17T13:16:10Z</time>
      </trkpt>
      <trkpt lat="44.26323" lon="1.78279">
        <ele>313.05</ele>
        <time>2021-08-17T13:16:16Z</time>
      </trkpt>
      <trkpt lat="44.26324" lon="1.7828">
        <ele>313.05</ele>
        <time>2021-08-17T13:16:24Z</time>
      </trkpt>
      <trkpt lat="44.26323" lon="1.78283">
        <ele>313.05</ele>
        <time>2021-08-17T13:16:45Z</time>
      </trkpt>
      <trkpt lat="44.26322" lon="1.78283">
        <ele>313.05</ele>
        <time>2021-08-17T13:17:06Z</time>
      </trkpt>
      <trkpt lat="44.26322" lon="1.78283">
        <ele>313.05</ele>
        <time>2021-08-17T13:17:28Z</time>
      </trkpt>
      <trkpt lat="44.26321" lon="1.78281">
        <ele>313.05</ele>
        <time>2021-08-17T13:17:49Z</time>
      </trkpt>
      <trkpt lat="44.26321" lon="1.78282">
        <ele>313.05</ele>
        <time>2021-08-17T13:18:04Z</time>
      </trkpt>
      <trkpt lat="44.26321" lon="1.78284">
        <ele>313.05</ele>
        <time>2021-08-17T13:18:17Z</time>
      </trkpt>
      <trkpt lat="44.26319" lon="1.78279">
        <ele>313.05</ele>
        <time>2021-08-17T13:18:37Z</time>
      </trkpt>
      <trkpt lat="44.26317" lon="1.78274">
        <ele>312.57</ele>
        <time>2021-08-17T13:18:42Z</time>
      </trkpt>
      <trkpt lat="44.26311" lon="1.7827">
        <ele>311.6</ele>
        <time>2021-08-17T13:18:48Z</time>
      </trkpt>
      <trkpt lat="44.26296" lon="1.7826">
        <ele>310.16</ele>
        <time>2021-08-17T13:18:53Z</time>
      </trkpt>
      <trkpt lat="44.26296" lon="1.78261">
        <ele>310.16</ele>
        <time>2021-08-17T13:19:00Z</time>
      </trkpt>
      <trkpt lat="44.26293" lon="1.7826">
        <ele>309.68</ele>
        <time>2021-08-17T13:19:01Z</time>
      </trkpt>
      <trkpt lat="44.2629" lon="1.78259">
        <ele>308.72</ele>
        <time>2021-08-17T13:19:02Z</time>
      </trkpt>
      <trkpt lat="44.26287" lon="1.78257">
        <ele>308.72</ele>
        <time>2021-08-17T13:19:03Z</time>
      </trkpt>
      <trkpt lat="44.26262" lon="1.78248">
        <ele>306.32</ele>
        <time>2021-08-17T13:19:09Z</time>
      </trkpt>
      <trkpt lat="44.26239" lon="1.78242">
        <ele>303.43</ele>
        <time>2021-08-17T13:19:15Z</time>
      </trkpt>
      <trkpt lat="44.26223" lon="1.78242">
        <ele>300.07</ele>
        <time>2021-08-17T13:19:19Z</time>
      </trkpt>
      <trkpt lat="44.26203" lon="1.78237">
        <ele>297.67</ele>
        <time>2021-08-17T13:19:24Z</time>
      </trkpt>
      <trkpt lat="44.262" lon="1.78234">
        <ele>297.18</ele>
        <time>2021-08-17T13:19:25Z</time>
      </trkpt>
      <trkpt lat="44.26196" lon="1.7823">
        <ele>296.7</ele>
        <time>2021-08-17T13:19:26Z</time>
      </trkpt>
      <trkpt lat="44.26193" lon="1.78225">
        <ele>296.22</ele>
        <time>2021-08-17T13:19:27Z</time>
      </trkpt>
      <trkpt lat="44.2619" lon="1.7822">
        <ele>295.74</ele>
        <time>2021-08-17T13:19:28Z</time>
      </trkpt>
      <trkpt lat="44.26187" lon="1.78214">
        <ele>295.74</ele>
        <time>2021-08-17T13:19:29Z</time>
      </trkpt>
      <trkpt lat="44.26185" lon="1.78208">
        <ele>294.78</ele>
        <time>2021-08-17T13:19:30Z</time>
      </trkpt>
      <trkpt lat="44.26183" lon="1.78201">
        <ele>293.82</ele>
        <time>2021-08-17T13:19:31Z</time>
      </trkpt>
      <trkpt lat="44.26178" lon="1.78183">
        <ele>291.9</ele>
        <time>2021-08-17T13:19:34Z</time>
      </trkpt>
      <trkpt lat="44.26176" lon="1.78176">
        <ele>291.9</ele>
        <time>2021-08-17T13:19:35Z</time>
      </trkpt>
      <trkpt lat="44.26175" lon="1.78169">
        <ele>291.42</ele>
        <time>2021-08-17T13:19:36Z</time>
      </trkpt>
      <trkpt lat="44.26174" lon="1.78149">
        <ele>289.97</ele>
        <time>2021-08-17T13:19:39Z</time>
      </trkpt>
      <trkpt lat="44.26174" lon="1.78143">
        <ele>289.97</ele>
        <time>2021-08-17T13:19:40Z</time>
      </trkpt>
      <trkpt lat="44.26175" lon="1.78137">
        <ele>289.01</ele>
        <time>2021-08-17T13:19:41Z</time>
      </trkpt>
      <trkpt lat="44.2618" lon="1.78108">
        <ele>286.13</ele>
        <time>2021-08-17T13:19:47Z</time>
      </trkpt>
      <trkpt lat="44.26184" lon="1.7809">
        <ele>282.77</ele>
        <time>2021-08-17T13:19:51Z</time>
      </trkpt>
      <trkpt lat="44.26189" lon="1.78071">
        <ele>279.4</ele>
        <time>2021-08-17T13:19:55Z</time>
      </trkpt>
      <trkpt lat="44.26193" lon="1.78057">
        <ele>277.96</ele>
        <time>2021-08-17T13:19:58Z</time>
      </trkpt>
      <trkpt lat="44.26196" lon="1.78037">
        <ele>274.59</ele>
        <time>2021-08-17T13:20:02Z</time>
      </trkpt>
      <trkpt lat="44.26199" lon="1.78015">
        <ele>272.19</ele>
        <time>2021-08-17T13:20:06Z</time>
      </trkpt>
      <trkpt lat="44.26203" lon="1.77996">
        <ele>269.31</ele>
        <time>2021-08-17T13:20:10Z</time>
      </trkpt>
      <trkpt lat="44.26209" lon="1.77976">
        <ele>265.46</ele>
        <time>2021-08-17T13:20:15Z</time>
      </trkpt>
      <trkpt lat="44.26212" lon="1.77972">
        <ele>265.46</ele>
        <time>2021-08-17T13:20:16Z</time>
      </trkpt>
      <trkpt lat="44.2623" lon="1.77951">
        <ele>263.06</ele>
        <time>2021-08-17T13:20:23Z</time>
      </trkpt>
      <trkpt lat="44.26233" lon="1.77932">
        <ele>259.69</ele>
        <time>2021-08-17T13:20:28Z</time>
      </trkpt>
      <trkpt lat="44.26232" lon="1.77929">
        <ele>259.21</ele>
        <time>2021-08-17T13:20:29Z</time>
      </trkpt>
      <trkpt lat="44.26231" lon="1.77927">
        <ele>259.21</ele>
        <time>2021-08-17T13:20:30Z</time>
      </trkpt>
      <trkpt lat="44.2623" lon="1.77926">
        <ele>258.73</ele>
        <time>2021-08-17T13:20:31Z</time>
      </trkpt>
      <trkpt lat="44.26228" lon="1.77926">
        <ele>258.25</ele>
        <time>2021-08-17T13:20:32Z</time>
      </trkpt>
      <trkpt lat="44.26226" lon="1.77927">
        <ele>257.29</ele>
        <time>2021-08-17T13:20:33Z</time>
      </trkpt>
      <trkpt lat="44.2621" lon="1.77931">
        <ele>254.41</ele>
        <time>2021-08-17T13:20:38Z</time>
      </trkpt>
      <trkpt lat="44.26192" lon="1.77935">
        <ele>251.52</ele>
        <time>2021-08-17T13:20:42Z</time>
      </trkpt>
      <trkpt lat="44.26169" lon="1.77941">
        <ele>249.12</ele>
        <time>2021-08-17T13:20:49Z</time>
      </trkpt>
      <trkpt lat="44.26169" lon="1.77943">
        <ele>249.12</ele>
        <time>2021-08-17T13:20:57Z</time>
      </trkpt>
      <trkpt lat="44.2617" lon="1.77943">
        <ele>248.64</ele>
        <time>2021-08-17T13:21:10Z</time>
      </trkpt>
      <trkpt lat="44.26164" lon="1.77944">
        <ele>247.68</ele>
        <time>2021-08-17T13:21:20Z</time>
      </trkpt>
      <trkpt lat="44.26149" lon="1.77952">
        <ele>246.23</ele>
        <time>2021-08-17T13:21:26Z</time>
      </trkpt>
      <trkpt lat="44.2613" lon="1.77965">
        <ele>243.35</ele>
        <time>2021-08-17T13:21:32Z</time>
      </trkpt>
      <trkpt lat="44.26106" lon="1.77979">
        <ele>239.99</ele>
        <time>2021-08-17T13:21:38Z</time>
      </trkpt>
      <trkpt lat="44.26098" lon="1.77983">
        <ele>239.02</ele>
        <time>2021-08-17T13:21:40Z</time>
      </trkpt>
      <trkpt lat="44.26093" lon="1.77985">
        <ele>238.06</ele>
        <time>2021-08-17T13:21:41Z</time>
      </trkpt>
      <trkpt lat="44.26062" lon="1.77995">
        <ele>235.66</ele>
        <time>2021-08-17T13:21:48Z</time>
      </trkpt>
      <trkpt lat="44.26031" lon="1.77995">
        <ele>234.7</ele>
        <time>2021-08-17T13:21:55Z</time>
      </trkpt>
      <trkpt lat="44.26012" lon="1.77989">
        <ele>236.14</ele>
        <time>2021-08-17T13:22:02Z</time>
      </trkpt>
      <trkpt lat="44.2601" lon="1.77988">
        <ele>236.14</ele>
        <time>2021-08-17T13:22:03Z</time>
      </trkpt>
      <trkpt lat="44.25989" lon="1.77986">
        <ele>236.62</ele>
        <time>2021-08-17T13:22:12Z</time>
      </trkpt>
      <trkpt lat="44.25984" lon="1.77985">
        <ele>236.62</ele>
        <time>2021-08-17T13:22:13Z</time>
      </trkpt>
      <trkpt lat="44.2598" lon="1.77983">
        <ele>236.62</ele>
        <time>2021-08-17T13:22:14Z</time>
      </trkpt>
      <trkpt lat="44.25975" lon="1.7798">
        <ele>234.7</ele>
        <time>2021-08-17T13:22:15Z</time>
      </trkpt>
      <trkpt lat="44.2597" lon="1.77976">
        <ele>234.7</ele>
        <time>2021-08-17T13:22:16Z</time>
      </trkpt>
      <trkpt lat="44.25966" lon="1.77972">
        <ele>234.22</ele>
        <time>2021-08-17T13:22:17Z</time>
      </trkpt>
      <trkpt lat="44.25957" lon="1.77963">
        <ele>234.22</ele>
        <time>2021-08-17T13:22:19Z</time>
      </trkpt>
      <trkpt lat="44.2595" lon="1.77952">
        <ele>234.22</ele>
        <time>2021-08-17T13:22:21Z</time>
      </trkpt>
      <trkpt lat="44.25943" lon="1.77943">
        <ele>234.22</ele>
        <time>2021-08-17T13:22:23Z</time>
      </trkpt>
      <trkpt lat="44.2594" lon="1.77939">
        <ele>233.74</ele>
        <time>2021-08-17T13:22:24Z</time>
      </trkpt>
      <trkpt lat="44.25932" lon="1.7793">
        <ele>233.74</ele>
        <time>2021-08-17T13:22:26Z</time>
      </trkpt>
      <trkpt lat="44.25928" lon="1.77927">
        <ele>233.26</ele>
        <time>2021-08-17T13:22:27Z</time>
      </trkpt>
      <trkpt lat="44.25922" lon="1.77924">
        <ele>233.26</ele>
        <time>2021-08-17T13:22:28Z</time>
      </trkpt>
      <trkpt lat="44.25917" lon="1.77923">
        <ele>232.3</ele>
        <time>2021-08-17T13:22:29Z</time>
      </trkpt>
      <trkpt lat="44.25911" lon="1.77922">
        <ele>231.33</ele>
        <time>2021-08-17T13:22:30Z</time>
      </trkpt>
      <trkpt lat="44.25905" lon="1.77919">
        <ele>230.85</ele>
        <time>2021-08-17T13:22:31Z</time>
      </trkpt>
      <trkpt lat="44.259" lon="1.77916">
        <ele>230.37</ele>
        <time>2021-08-17T13:22:32Z</time>
      </trkpt>
      <trkpt lat="44.25893" lon="1.77909">
        <ele>230.37</ele>
        <time>2021-08-17T13:22:33Z</time>
      </trkpt>
      <trkpt lat="44.2589" lon="1.77905">
        <ele>230.37</ele>
        <time>2021-08-17T13:22:34Z</time>
      </trkpt>
      <trkpt lat="44.25887" lon="1.77898">
        <ele>230.37</ele>
        <time>2021-08-17T13:22:35Z</time>
      </trkpt>
      <trkpt lat="44.25884" lon="1.77893">
        <ele>230.37</ele>
        <time>2021-08-17T13:22:36Z</time>
      </trkpt>
      <trkpt lat="44.25875" lon="1.77871">
        <ele>231.81</ele>
        <time>2021-08-17T13:22:41Z</time>
      </trkpt>
      <trkpt lat="44.25875" lon="1.77866">
        <ele>232.3</ele>
        <time>2021-08-17T13:22:43Z</time>
      </trkpt>
      <trkpt lat="44.25871" lon="1.77858">
        <ele>232.78</ele>
        <time>2021-08-17T13:22:49Z</time>
      </trkpt>
      <trkpt lat="44.25868" lon="1.7785">
        <ele>233.74</ele>
        <time>2021-08-17T13:22:57Z</time>
      </trkpt>
      <trkpt lat="44.25865" lon="1.77837">
        <ele>235.18</ele>
        <time>2021-08-17T13:23:06Z</time>
      </trkpt>
      <trkpt lat="44.25865" lon="1.7783">
        <ele>235.66</ele>
        <time>2021-08-17T13:23:14Z</time>
      </trkpt>
      <trkpt lat="44.25863" lon="1.77823">
        <ele>236.62</ele>
        <time>2021-08-17T13:23:22Z</time>
      </trkpt>
      <trkpt lat="44.25859" lon="1.77812">
        <ele>238.06</ele>
        <time>2021-08-17T13:23:32Z</time>
      </trkpt>
      <trkpt lat="44.25857" lon="1.77805">
        <ele>239.02</ele>
        <time>2021-08-17T13:23:40Z</time>
      </trkpt>
      <trkpt lat="44.25851" lon="1.77797">
        <ele>239.51</ele>
        <time>2021-08-17T13:23:48Z</time>
      </trkpt>
      <trkpt lat="44.25849" lon="1.77791">
        <ele>239.99</ele>
        <time>2021-08-17T13:23:51Z</time>
      </trkpt>
      <trkpt lat="44.25847" lon="1.7779">
        <ele>240.47</ele>
        <time>2021-08-17T13:23:52Z</time>
      </trkpt>
      <trkpt lat="44.25847" lon="1.77786">
        <ele>240.47</ele>
        <time>2021-08-17T13:23:59Z</time>
      </trkpt>
      <trkpt lat="44.25845" lon="1.77783">
        <ele>240.47</ele>
        <time>2021-08-17T13:24:02Z</time>
      </trkpt>
      <trkpt lat="44.25843" lon="1.77781">
        <ele>240.47</ele>
        <time>2021-08-17T13:24:03Z</time>
      </trkpt>
      <trkpt lat="44.25843" lon="1.7778">
        <ele>240.47</ele>
        <time>2021-08-17T13:24:04Z</time>
      </trkpt>
      <trkpt lat="44.25842" lon="1.77778">
        <ele>240.47</ele>
        <time>2021-08-17T13:24:05Z</time>
      </trkpt>
      <trkpt lat="44.25841" lon="1.77776">
        <ele>240.47</ele>
        <time>2021-08-17T13:24:06Z</time>
      </trkpt>
      <trkpt lat="44.25831" lon="1.77762">
        <ele>241.43</ele>
        <time>2021-08-17T13:24:13Z</time>
      </trkpt>
      <trkpt lat="44.25821" lon="1.77747">
        <ele>241.91</ele>
        <time>2021-08-17T13:24:20Z</time>
      </trkpt>
      <trkpt lat="44.25813" lon="1.77735">
        <ele>242.39</ele>
        <time>2021-08-17T13:24:27Z</time>
      </trkpt>
      <trkpt lat="44.25807" lon="1.77726">
        <ele>243.35</ele>
        <time>2021-08-17T13:24:32Z</time>
      </trkpt>
      <trkpt lat="44.25807" lon="1.77725">
        <ele>243.35</ele>
        <time>2021-08-17T13:24:33Z</time>
      </trkpt>
      <trkpt lat="44.25805" lon="1.77723">
        <ele>243.35</ele>
        <time>2021-08-17T13:24:34Z</time>
      </trkpt>
      <trkpt lat="44.25797" lon="1.77712">
        <ele>244.31</ele>
        <time>2021-08-17T13:24:41Z</time>
      </trkpt>
      <trkpt lat="44.25788" lon="1.77703">
        <ele>244.79</ele>
        <time>2021-08-17T13:24:47Z</time>
      </trkpt>
      <trkpt lat="44.25779" lon="1.77688">
        <ele>244.79</ele>
        <time>2021-08-17T13:24:54Z</time>
      </trkpt>
      <trkpt lat="44.25768" lon="1.7767">
        <ele>245.27</ele>
        <time>2021-08-17T13:25:02Z</time>
      </trkpt>
      <trkpt lat="44.25764" lon="1.77663">
        <ele>245.75</ele>
        <time>2021-08-17T13:25:10Z</time>
      </trkpt>
      <trkpt lat="44.25762" lon="1.77654">
        <ele>246.72</ele>
        <time>2021-08-17T13:25:19Z</time>
      </trkpt>
      <trkpt lat="44.25758" lon="1.77648">
        <ele>246.72</ele>
        <time>2021-08-17T13:25:27Z</time>
      </trkpt>
      <trkpt lat="44.25757" lon="1.77645">
        <ele>246.72</ele>
        <time>2021-08-17T13:25:29Z</time>
      </trkpt>
      <trkpt lat="44.25753" lon="1.77638">
        <ele>246.72</ele>
        <time>2021-08-17T13:25:33Z</time>
      </trkpt>
      <trkpt lat="44.25752" lon="1.77637">
        <ele>247.2</ele>
        <time>2021-08-17T13:25:34Z</time>
      </trkpt>
      <trkpt lat="44.2575" lon="1.77635">
        <ele>247.2</ele>
        <time>2021-08-17T13:25:35Z</time>
      </trkpt>
      <trkpt lat="44.25749" lon="1.77634">
        <ele>247.2</ele>
        <time>2021-08-17T13:25:36Z</time>
      </trkpt>
      <trkpt lat="44.25748" lon="1.77632">
        <ele>247.2</ele>
        <time>2021-08-17T13:25:37Z</time>
      </trkpt>
      <trkpt lat="44.2574" lon="1.77621">
        <ele>249.12</ele>
        <time>2021-08-17T13:25:45Z</time>
      </trkpt>
      <trkpt lat="44.25736" lon="1.77611">
        <ele>249.6</ele>
        <time>2021-08-17T13:25:52Z</time>
      </trkpt>
      <trkpt lat="44.25733" lon="1.77603">
        <ele>251.04</ele>
        <time>2021-08-17T13:26:01Z</time>
      </trkpt>
      <trkpt lat="44.25732" lon="1.77597">
        <ele>252</ele>
        <time>2021-08-17T13:26:07Z</time>
      </trkpt>
      <trkpt lat="44.25728" lon="1.77587">
        <ele>253.44</ele>
        <time>2021-08-17T13:26:17Z</time>
      </trkpt>
      <trkpt lat="44.25725" lon="1.77584">
        <ele>254.41</ele>
        <time>2021-08-17T13:26:24Z</time>
      </trkpt>
      <trkpt lat="44.25723" lon="1.7758">
        <ele>255.85</ele>
        <time>2021-08-17T13:26:33Z</time>
      </trkpt>
      <trkpt lat="44.25717" lon="1.77569">
        <ele>256.81</ele>
        <time>2021-08-17T13:26:43Z</time>
      </trkpt>
      <trkpt lat="44.25715" lon="1.77568">
        <ele>256.81</ele>
        <time>2021-08-17T13:26:44Z</time>
      </trkpt>
      <trkpt lat="44.25711" lon="1.77561">
        <ele>257.29</ele>
        <time>2021-08-17T13:26:52Z</time>
      </trkpt>
      <trkpt lat="44.25707" lon="1.77555">
        <ele>257.77</ele>
        <time>2021-08-17T13:26:58Z</time>
      </trkpt>
      <trkpt lat="44.25698" lon="1.77549">
        <ele>258.73</ele>
        <time>2021-08-17T13:27:05Z</time>
      </trkpt>
      <trkpt lat="44.2569" lon="1.7755">
        <ele>260.17</ele>
        <time>2021-08-17T13:27:13Z</time>
      </trkpt>
      <trkpt lat="44.25689" lon="1.7755">
        <ele>260.65</ele>
        <time>2021-08-17T13:27:14Z</time>
      </trkpt>
      <trkpt lat="44.25688" lon="1.77551">
        <ele>260.65</ele>
        <time>2021-08-17T13:27:15Z</time>
      </trkpt>
      <trkpt lat="44.25686" lon="1.77552">
        <ele>260.65</ele>
        <time>2021-08-17T13:27:16Z</time>
      </trkpt>
      <trkpt lat="44.25685" lon="1.77552">
        <ele>260.65</ele>
        <time>2021-08-17T13:27:17Z</time>
      </trkpt>
      <trkpt lat="44.25683" lon="1.77554">
        <ele>260.65</ele>
        <time>2021-08-17T13:27:18Z</time>
      </trkpt>
      <trkpt lat="44.25682" lon="1.77554">
        <ele>260.65</ele>
        <time>2021-08-17T13:27:19Z</time>
      </trkpt>
      <trkpt lat="44.2568" lon="1.77555">
        <ele>260.65</ele>
        <time>2021-08-17T13:27:20Z</time>
      </trkpt>
      <trkpt lat="44.25666" lon="1.77565">
        <ele>261.62</ele>
        <time>2021-08-17T13:27:27Z</time>
      </trkpt>
      <trkpt lat="44.25655" lon="1.77575">
        <ele>263.06</ele>
        <time>2021-08-17T13:27:34Z</time>
      </trkpt>
      <trkpt lat="44.25636" lon="1.77585">
        <ele>263.54</ele>
        <time>2021-08-17T13:27:43Z</time>
      </trkpt>
      <trkpt lat="44.2562" lon="1.77591">
        <ele>264.02</ele>
        <time>2021-08-17T13:27:50Z</time>
      </trkpt>
      <trkpt lat="44.25601" lon="1.77596">
        <ele>264.98</ele>
        <time>2021-08-17T13:27:57Z</time>
      </trkpt>
      <trkpt lat="44.25576" lon="1.77596">
        <ele>264.98</ele>
        <time>2021-08-17T13:28:04Z</time>
      </trkpt>
      <trkpt lat="44.25555" lon="1.77595">
        <ele>265.94</ele>
        <time>2021-08-17T13:28:11Z</time>
      </trkpt>
      <trkpt lat="44.25537" lon="1.77587">
        <ele>265.94</ele>
        <time>2021-08-17T13:28:17Z</time>
      </trkpt>
      <trkpt lat="44.25524" lon="1.77577">
        <ele>263.06</ele>
        <time>2021-08-17T13:28:20Z</time>
      </trkpt>
      <trkpt lat="44.2552" lon="1.77572">
        <ele>262.58</ele>
        <time>2021-08-17T13:28:21Z</time>
      </trkpt>
      <trkpt lat="44.25516" lon="1.77568">
        <ele>262.1</ele>
        <time>2021-08-17T13:28:22Z</time>
      </trkpt>
      <trkpt lat="44.25507" lon="1.77559">
        <ele>262.1</ele>
        <time>2021-08-17T13:28:24Z</time>
      </trkpt>
      <trkpt lat="44.25502" lon="1.77556">
        <ele>262.1</ele>
        <time>2021-08-17T13:28:25Z</time>
      </trkpt>
      <trkpt lat="44.25498" lon="1.77553">
        <ele>262.1</ele>
        <time>2021-08-17T13:28:26Z</time>
      </trkpt>
      <trkpt lat="44.25493" lon="1.77551">
        <ele>262.1</ele>
        <time>2021-08-17T13:28:27Z</time>
      </trkpt>
      <trkpt lat="44.25489" lon="1.7755">
        <ele>262.1</ele>
        <time>2021-08-17T13:28:28Z</time>
      </trkpt>
      <trkpt lat="44.25485" lon="1.77549">
        <ele>262.1</ele>
        <time>2021-08-17T13:28:29Z</time>
      </trkpt>
      <trkpt lat="44.25479" lon="1.77546">
        <ele>263.54</ele>
        <time>2021-08-17T13:28:31Z</time>
      </trkpt>
      <trkpt lat="44.25462" lon="1.77541">
        <ele>264.98</ele>
        <time>2021-08-17T13:28:38Z</time>
      </trkpt>
      <trkpt lat="44.25445" lon="1.77539">
        <ele>265.46</ele>
        <time>2021-08-17T13:28:44Z</time>
      </trkpt>
      <trkpt lat="44.25425" lon="1.77544">
        <ele>265.94</ele>
        <time>2021-08-17T13:28:51Z</time>
      </trkpt>
      <trkpt lat="44.254" lon="1.77544">
        <ele>265.94</ele>
        <time>2021-08-17T13:28:58Z</time>
      </trkpt>
      <trkpt lat="44.25363" lon="1.77542">
        <ele>266.9</ele>
        <time>2021-08-17T13:29:08Z</time>
      </trkpt>
      <trkpt lat="44.25344" lon="1.77536">
        <ele>265.94</ele>
        <time>2021-08-17T13:29:14Z</time>
      </trkpt>
      <trkpt lat="44.25343" lon="1.77532">
        <ele>265.94</ele>
        <time>2021-08-17T13:29:15Z</time>
      </trkpt>
      <trkpt lat="44.25343" lon="1.77528">
        <ele>265.94</ele>
        <time>2021-08-17T13:29:16Z</time>
      </trkpt>
      <trkpt lat="44.25343" lon="1.77524">
        <ele>265.94</ele>
        <time>2021-08-17T13:29:17Z</time>
      </trkpt>
      <trkpt lat="44.25343" lon="1.77521">
        <ele>267.38</ele>
        <time>2021-08-17T13:29:18Z</time>
      </trkpt>
      <trkpt lat="44.25343" lon="1.77518">
        <ele>267.38</ele>
        <time>2021-08-17T13:29:19Z</time>
      </trkpt>
      <trkpt lat="44.2534" lon="1.775">
        <ele>266.9</ele>
        <time>2021-08-17T13:29:25Z</time>
      </trkpt>
      <trkpt lat="44.25336" lon="1.77487">
        <ele>268.35</ele>
        <time>2021-08-17T13:29:30Z</time>
      </trkpt>
      <trkpt lat="44.25333" lon="1.77466">
        <ele>269.79</ele>
        <time>2021-08-17T13:29:38Z</time>
      </trkpt>
      <trkpt lat="44.25334" lon="1.77444">
        <ele>271.23</ele>
        <time>2021-08-17T13:29:46Z</time>
      </trkpt>
      <trkpt lat="44.25339" lon="1.77415">
        <ele>271.71</ele>
        <time>2021-08-17T13:29:54Z</time>
      </trkpt>
      <trkpt lat="44.25344" lon="1.77386">
        <ele>271.71</ele>
        <time>2021-08-17T13:30:01Z</time>
      </trkpt>
      <trkpt lat="44.25338" lon="1.77364">
        <ele>272.19</ele>
        <time>2021-08-17T13:30:07Z</time>
      </trkpt>
      <trkpt lat="44.2532" lon="1.7735">
        <ele>272.19</ele>
        <time>2021-08-17T13:30:14Z</time>
      </trkpt>
      <trkpt lat="44.25296" lon="1.77329">
        <ele>272.19</ele>
        <time>2021-08-17T13:30:22Z</time>
      </trkpt>
      <trkpt lat="44.25268" lon="1.77303">
        <ele>269.31</ele>
        <time>2021-08-17T13:30:28Z</time>
      </trkpt>
      <trkpt lat="44.2525" lon="1.77288">
        <ele>267.86</ele>
        <time>2021-08-17T13:30:31Z</time>
      </trkpt>
      <trkpt lat="44.25207" lon="1.77256">
        <ele>264.5</ele>
        <time>2021-08-17T13:30:37Z</time>
      </trkpt>
      <trkpt lat="44.25182" lon="1.77238">
        <ele>261.62</ele>
        <time>2021-08-17T13:30:40Z</time>
      </trkpt>
      <trkpt lat="44.25133" lon="1.77198">
        <ele>259.21</ele>
        <time>2021-08-17T13:30:46Z</time>
      </trkpt>
      <trkpt lat="44.25125" lon="1.77194">
        <ele>258.73</ele>
        <time>2021-08-17T13:30:47Z</time>
      </trkpt>
      <trkpt lat="44.25116" lon="1.77191">
        <ele>258.73</ele>
        <time>2021-08-17T13:30:48Z</time>
      </trkpt>
      <trkpt lat="44.25107" lon="1.77191">
        <ele>257.29</ele>
        <time>2021-08-17T13:30:49Z</time>
      </trkpt>
      <trkpt lat="44.25098" lon="1.77193">
        <ele>257.29</ele>
        <time>2021-08-17T13:30:50Z</time>
      </trkpt>
      <trkpt lat="44.25089" lon="1.77195">
        <ele>256.33</ele>
        <time>2021-08-17T13:30:51Z</time>
      </trkpt>
      <trkpt lat="44.2508" lon="1.77199">
        <ele>255.37</ele>
        <time>2021-08-17T13:30:52Z</time>
      </trkpt>
      <trkpt lat="44.25062" lon="1.77206">
        <ele>254.41</ele>
        <time>2021-08-17T13:30:54Z</time>
      </trkpt>
      <trkpt lat="44.25007" lon="1.77229">
        <ele>253.93</ele>
        <time>2021-08-17T13:31:01Z</time>
      </trkpt>
      <trkpt lat="44.24971" lon="1.77245">
        <ele>253.93</ele>
        <time>2021-08-17T13:31:07Z</time>
      </trkpt>
      <trkpt lat="44.24966" lon="1.77247">
        <ele>253.93</ele>
        <time>2021-08-17T13:31:08Z</time>
      </trkpt>
      <trkpt lat="44.24961" lon="1.77247">
        <ele>253.93</ele>
        <time>2021-08-17T13:31:09Z</time>
      </trkpt>
      <trkpt lat="44.24958" lon="1.77242">
        <ele>253.93</ele>
        <time>2021-08-17T13:31:10Z</time>
      </trkpt>
      <trkpt lat="44.24958" lon="1.77238">
        <ele>254.89</ele>
        <time>2021-08-17T13:31:11Z</time>
      </trkpt>
      <trkpt lat="44.24959" lon="1.77234">
        <ele>254.89</ele>
        <time>2021-08-17T13:31:12Z</time>
      </trkpt>
      <trkpt lat="44.2496" lon="1.7723">
        <ele>255.37</ele>
        <time>2021-08-17T13:31:13Z</time>
      </trkpt>
      <trkpt lat="44.2497" lon="1.77196">
        <ele>255.37</ele>
        <time>2021-08-17T13:31:20Z</time>
      </trkpt>
      <trkpt lat="44.24973" lon="1.77177">
        <ele>254.41</ele>
        <time>2021-08-17T13:31:23Z</time>
      </trkpt>
      <trkpt lat="44.24976" lon="1.77162">
        <ele>254.41</ele>
        <time>2021-08-17T13:31:25Z</time>
      </trkpt>
      <trkpt lat="44.24976" lon="1.77157">
        <ele>254.41</ele>
        <time>2021-08-17T13:31:26Z</time>
      </trkpt>
      <trkpt lat="44.24976" lon="1.7715">
        <ele>254.41</ele>
        <time>2021-08-17T13:31:27Z</time>
      </trkpt>
      <trkpt lat="44.24975" lon="1.77143">
        <ele>254.41</ele>
        <time>2021-08-17T13:31:28Z</time>
      </trkpt>
      <trkpt lat="44.24974" lon="1.77138">
        <ele>254.41</ele>
        <time>2021-08-17T13:31:29Z</time>
      </trkpt>
      <trkpt lat="44.24972" lon="1.77132">
        <ele>254.41</ele>
        <time>2021-08-17T13:31:30Z</time>
      </trkpt>
      <trkpt lat="44.2497" lon="1.77127">
        <ele>254.41</ele>
        <time>2021-08-17T13:31:31Z</time>
      </trkpt>
      <trkpt lat="44.24967" lon="1.77116">
        <ele>254.41</ele>
        <time>2021-08-17T13:31:33Z</time>
      </trkpt>
      <trkpt lat="44.24965" lon="1.77111">
        <ele>254.41</ele>
        <time>2021-08-17T13:31:34Z</time>
      </trkpt>
      <trkpt lat="44.24963" lon="1.77106">
        <ele>254.41</ele>
        <time>2021-08-17T13:31:35Z</time>
      </trkpt>
      <trkpt lat="44.24961" lon="1.77101">
        <ele>254.41</ele>
        <time>2021-08-17T13:31:36Z</time>
      </trkpt>
      <trkpt lat="44.2496" lon="1.77096">
        <ele>254.41</ele>
        <time>2021-08-17T13:31:37Z</time>
      </trkpt>
      <trkpt lat="44.24959" lon="1.77091">
        <ele>254.41</ele>
        <time>2021-08-17T13:31:38Z</time>
      </trkpt>
      <trkpt lat="44.24958" lon="1.77086">
        <ele>254.41</ele>
        <time>2021-08-17T13:31:39Z</time>
      </trkpt>
      <trkpt lat="44.24957" lon="1.7708">
        <ele>254.41</ele>
        <time>2021-08-17T13:31:40Z</time>
      </trkpt>
      <trkpt lat="44.24956" lon="1.77073">
        <ele>254.41</ele>
        <time>2021-08-17T13:31:41Z</time>
      </trkpt>
      <trkpt lat="44.24954" lon="1.77055">
        <ele>254.41</ele>
        <time>2021-08-17T13:31:44Z</time>
      </trkpt>
      <trkpt lat="44.24955" lon="1.77048">
        <ele>254.41</ele>
        <time>2021-08-17T13:31:45Z</time>
      </trkpt>
      <trkpt lat="44.24957" lon="1.77029">
        <ele>254.41</ele>
        <time>2021-08-17T13:31:48Z</time>
      </trkpt>
      <trkpt lat="44.24958" lon="1.77023">
        <ele>254.41</ele>
        <time>2021-08-17T13:31:49Z</time>
      </trkpt>
      <trkpt lat="44.2496" lon="1.77">
        <ele>254.41</ele>
        <time>2021-08-17T13:31:53Z</time>
      </trkpt>
      <trkpt lat="44.2496" lon="1.76994">
        <ele>254.41</ele>
        <time>2021-08-17T13:31:54Z</time>
      </trkpt>
      <trkpt lat="44.2496" lon="1.76987">
        <ele>254.41</ele>
        <time>2021-08-17T13:31:55Z</time>
      </trkpt>
      <trkpt lat="44.24961" lon="1.76976">
        <ele>254.41</ele>
        <time>2021-08-17T13:31:57Z</time>
      </trkpt>
      <trkpt lat="44.24962" lon="1.7697">
        <ele>254.41</ele>
        <time>2021-08-17T13:31:58Z</time>
      </trkpt>
      <trkpt lat="44.24963" lon="1.76965">
        <ele>254.41</ele>
        <time>2021-08-17T13:31:59Z</time>
      </trkpt>
      <trkpt lat="44.24972" lon="1.76939">
        <ele>253.93</ele>
        <time>2021-08-17T13:32:05Z</time>
      </trkpt>
      <trkpt lat="44.24979" lon="1.769">
        <ele>253.93</ele>
        <time>2021-08-17T13:32:12Z</time>
      </trkpt>
      <trkpt lat="44.24986" lon="1.76859">
        <ele>253.93</ele>
        <time>2021-08-17T13:32:19Z</time>
      </trkpt>
      <trkpt lat="44.24996" lon="1.76819">
        <ele>253.93</ele>
        <time>2021-08-17T13:32:26Z</time>
      </trkpt>
      <trkpt lat="44.25005" lon="1.7679">
        <ele>253.93</ele>
        <time>2021-08-17T13:32:32Z</time>
      </trkpt>
      <trkpt lat="44.25018" lon="1.7675">
        <ele>253.93</ele>
        <time>2021-08-17T13:32:40Z</time>
      </trkpt>
      <trkpt lat="44.25034" lon="1.7672">
        <ele>253.93</ele>
        <time>2021-08-17T13:32:46Z</time>
      </trkpt>
      <trkpt lat="44.2505" lon="1.76714">
        <ele>255.37</ele>
        <time>2021-08-17T13:32:51Z</time>
      </trkpt>
      <trkpt lat="44.25056" lon="1.76718">
        <ele>255.37</ele>
        <time>2021-08-17T13:32:55Z</time>
      </trkpt>
      <trkpt lat="44.25058" lon="1.76719">
        <ele>255.85</ele>
        <time>2021-08-17T13:32:56Z</time>
      </trkpt>
      <trkpt lat="44.2506" lon="1.76719">
        <ele>255.85</ele>
        <time>2021-08-17T13:32:57Z</time>
      </trkpt>
      <trkpt lat="44.25071" lon="1.76716">
        <ele>256.33</ele>
        <time>2021-08-17T13:33:02Z</time>
      </trkpt>
      <trkpt lat="44.25073" lon="1.76713">
        <ele>256.33</ele>
        <time>2021-08-17T13:33:03Z</time>
      </trkpt>
      <trkpt lat="44.25074" lon="1.7671">
        <ele>256.33</ele>
        <time>2021-08-17T13:33:04Z</time>
      </trkpt>
      <trkpt lat="44.25088" lon="1.76681">
        <ele>257.29</ele>
        <time>2021-08-17T13:33:12Z</time>
      </trkpt>
      <trkpt lat="44.25099" lon="1.76652">
        <ele>257.77</ele>
        <time>2021-08-17T13:33:20Z</time>
      </trkpt>
      <trkpt lat="44.2511" lon="1.76621">
        <ele>258.25</ele>
        <time>2021-08-17T13:33:28Z</time>
      </trkpt>
      <trkpt lat="44.25119" lon="1.76593">
        <ele>259.21</ele>
        <time>2021-08-17T13:33:36Z</time>
      </trkpt>
      <trkpt lat="44.25119" lon="1.76589">
        <ele>259.21</ele>
        <time>2021-08-17T13:33:37Z</time>
      </trkpt>
      <trkpt lat="44.25119" lon="1.76585">
        <ele>259.21</ele>
        <time>2021-08-17T13:33:38Z</time>
      </trkpt>
      <trkpt lat="44.25118" lon="1.76582">
        <ele>259.21</ele>
        <time>2021-08-17T13:33:39Z</time>
      </trkpt>
      <trkpt lat="44.25116" lon="1.76579">
        <ele>259.21</ele>
        <time>2021-08-17T13:33:40Z</time>
      </trkpt>
      <trkpt lat="44.25114" lon="1.76577">
        <ele>259.21</ele>
        <time>2021-08-17T13:33:41Z</time>
      </trkpt>
      <trkpt lat="44.25112" lon="1.76575">
        <ele>259.69</ele>
        <time>2021-08-17T13:33:42Z</time>
      </trkpt>
      <trkpt lat="44.25108" lon="1.76573">
        <ele>259.69</ele>
        <time>2021-08-17T13:33:43Z</time>
      </trkpt>
      <trkpt lat="44.25104" lon="1.76571">
        <ele>259.69</ele>
        <time>2021-08-17T13:33:44Z</time>
      </trkpt>
      <trkpt lat="44.25101" lon="1.76569">
        <ele>259.69</ele>
        <time>2021-08-17T13:33:45Z</time>
      </trkpt>
      <trkpt lat="44.25091" lon="1.76571">
        <ele>260.17</ele>
        <time>2021-08-17T13:33:50Z</time>
      </trkpt>
      <trkpt lat="44.25086" lon="1.76574">
        <ele>260.65</ele>
        <time>2021-08-17T13:33:55Z</time>
      </trkpt>
      <trkpt lat="44.25079" lon="1.7658">
        <ele>261.62</ele>
        <time>2021-08-17T13:34:04Z</time>
      </trkpt>
      <trkpt lat="44.25067" lon="1.7659">
        <ele>262.58</ele>
        <time>2021-08-17T13:34:13Z</time>
      </trkpt>
      <trkpt lat="44.25054" lon="1.76602">
        <ele>263.54</ele>
        <time>2021-08-17T13:34:21Z</time>
      </trkpt>
      <trkpt lat="44.25048" lon="1.76607">
        <ele>263.54</ele>
        <time>2021-08-17T13:34:25Z</time>
      </trkpt>
      <trkpt lat="44.25047" lon="1.76608">
        <ele>263.54</ele>
        <time>2021-08-17T13:34:26Z</time>
      </trkpt>
      <trkpt lat="44.25046" lon="1.76609">
        <ele>264.02</ele>
        <time>2021-08-17T13:34:27Z</time>
      </trkpt>
      <trkpt lat="44.25044" lon="1.7661">
        <ele>264.02</ele>
        <time>2021-08-17T13:34:28Z</time>
      </trkpt>
      <trkpt lat="44.25043" lon="1.76611">
        <ele>264.02</ele>
        <time>2021-08-17T13:34:29Z</time>
      </trkpt>
      <trkpt lat="44.25044" lon="1.76612">
        <ele>264.5</ele>
        <time>2021-08-17T13:34:35Z</time>
      </trkpt>
      <trkpt lat="44.25042" lon="1.76613">
        <ele>264.98</ele>
        <time>2021-08-17T13:34:50Z</time>
      </trkpt>
      <trkpt lat="44.25039" lon="1.76616">
        <ele>265.94</ele>
        <time>2021-08-17T13:34:59Z</time>
      </trkpt>
      <trkpt lat="44.25035" lon="1.76619">
        <ele>266.9</ele>
        <time>2021-08-17T13:35:07Z</time>
      </trkpt>
      <trkpt lat="44.25031" lon="1.7662">
        <ele>268.35</ele>
        <time>2021-08-17T13:35:15Z</time>
      </trkpt>
      <trkpt lat="44.25025" lon="1.76624">
        <ele>269.31</ele>
        <time>2021-08-17T13:35:23Z</time>
      </trkpt>
      <trkpt lat="44.25019" lon="1.7663">
        <ele>270.27</ele>
        <time>2021-08-17T13:35:31Z</time>
      </trkpt>
      <trkpt lat="44.25012" lon="1.76635">
        <ele>271.23</ele>
        <time>2021-08-17T13:35:40Z</time>
      </trkpt>
      <trkpt lat="44.25011" lon="1.76638">
        <ele>271.71</ele>
        <time>2021-08-17T13:35:47Z</time>
      </trkpt>
      <trkpt lat="44.25008" lon="1.76641">
        <ele>273.15</ele>
        <time>2021-08-17T13:35:55Z</time>
      </trkpt>
      <trkpt lat="44.25002" lon="1.76643">
        <ele>273.63</ele>
        <time>2021-08-17T13:36:04Z</time>
      </trkpt>
      <trkpt lat="44.24998" lon="1.76646">
        <ele>275.07</ele>
        <time>2021-08-17T13:36:12Z</time>
      </trkpt>
      <trkpt lat="44.24996" lon="1.76649">
        <ele>276.04</ele>
        <time>2021-08-17T13:36:19Z</time>
      </trkpt>
      <trkpt lat="44.24991" lon="1.76652">
        <ele>277.48</ele>
        <time>2021-08-17T13:36:27Z</time>
      </trkpt>
      <trkpt lat="44.24987" lon="1.76656">
        <ele>278.92</ele>
        <time>2021-08-17T13:36:36Z</time>
      </trkpt>
      <trkpt lat="44.24984" lon="1.7666">
        <ele>279.88</ele>
        <time>2021-08-17T13:36:44Z</time>
      </trkpt>
      <trkpt lat="44.24982" lon="1.76664">
        <ele>281.8</ele>
        <time>2021-08-17T13:36:53Z</time>
      </trkpt>
      <trkpt lat="44.24977" lon="1.76668">
        <ele>282.77</ele>
        <time>2021-08-17T13:37:03Z</time>
      </trkpt>
      <trkpt lat="44.24974" lon="1.7667">
        <ele>283.73</ele>
        <time>2021-08-17T13:37:09Z</time>
      </trkpt>
      <trkpt lat="44.2497" lon="1.76674">
        <ele>285.17</ele>
        <time>2021-08-17T13:37:17Z</time>
      </trkpt>
      <trkpt lat="44.24965" lon="1.76677">
        <ele>286.61</ele>
        <time>2021-08-17T13:37:26Z</time>
      </trkpt>
      <trkpt lat="44.24961" lon="1.76681">
        <ele>288.05</ele>
        <time>2021-08-17T13:37:35Z</time>
      </trkpt>
      <trkpt lat="44.24958" lon="1.76685">
        <ele>289.01</ele>
        <time>2021-08-17T13:37:43Z</time>
      </trkpt>
      <trkpt lat="44.24956" lon="1.76688">
        <ele>290.46</ele>
        <time>2021-08-17T13:37:52Z</time>
      </trkpt>
      <trkpt lat="44.24949" lon="1.76691">
        <ele>291.42</ele>
        <time>2021-08-17T13:38:00Z</time>
      </trkpt>
      <trkpt lat="44.24944" lon="1.76694">
        <ele>292.38</ele>
        <time>2021-08-17T13:38:08Z</time>
      </trkpt>
      <trkpt lat="44.24938" lon="1.767">
        <ele>293.82</ele>
        <time>2021-08-17T13:38:16Z</time>
      </trkpt>
      <trkpt lat="44.24932" lon="1.76707">
        <ele>295.26</ele>
        <time>2021-08-17T13:38:26Z</time>
      </trkpt>
      <trkpt lat="44.24929" lon="1.76712">
        <ele>296.7</ele>
        <time>2021-08-17T13:38:34Z</time>
      </trkpt>
      <trkpt lat="44.24924" lon="1.76718">
        <ele>298.15</ele>
        <time>2021-08-17T13:38:43Z</time>
      </trkpt>
      <trkpt lat="44.2492" lon="1.76727">
        <ele>299.59</ele>
        <time>2021-08-17T13:38:54Z</time>
      </trkpt>
      <trkpt lat="44.24916" lon="1.76735">
        <ele>301.03</ele>
        <time>2021-08-17T13:39:04Z</time>
      </trkpt>
      <trkpt lat="44.24912" lon="1.76742">
        <ele>302.47</ele>
        <time>2021-08-17T13:39:12Z</time>
      </trkpt>
      <trkpt lat="44.24908" lon="1.76751">
        <ele>303.91</ele>
        <time>2021-08-17T13:39:22Z</time>
      </trkpt>
      <trkpt lat="44.24904" lon="1.76757">
        <ele>304.88</ele>
        <time>2021-08-17T13:39:29Z</time>
      </trkpt>
      <trkpt lat="44.24897" lon="1.76768">
        <ele>306.32</ele>
        <time>2021-08-17T13:39:39Z</time>
      </trkpt>
      <trkpt lat="44.24891" lon="1.76779">
        <ele>307.76</ele>
        <time>2021-08-17T13:39:50Z</time>
      </trkpt>
      <trkpt lat="44.24884" lon="1.76791">
        <ele>309.2</ele>
        <time>2021-08-17T13:40:00Z</time>
      </trkpt>
      <trkpt lat="44.24883" lon="1.76793">
        <ele>309.2</ele>
        <time>2021-08-17T13:40:08Z</time>
      </trkpt>
      <trkpt lat="44.24882" lon="1.76803">
        <ele>309.2</ele>
        <time>2021-08-17T13:40:16Z</time>
      </trkpt>
      <trkpt lat="44.24878" lon="1.76824">
        <ele>309.2</ele>
        <time>2021-08-17T13:40:23Z</time>
      </trkpt>
      <trkpt lat="44.24877" lon="1.76835">
        <ele>309.2</ele>
        <time>2021-08-17T13:40:27Z</time>
      </trkpt>
      <trkpt lat="44.24876" lon="1.76838">
        <ele>309.2</ele>
        <time>2021-08-17T13:40:28Z</time>
      </trkpt>
      <trkpt lat="44.24876" lon="1.76841">
        <ele>309.68</ele>
        <time>2021-08-17T13:40:29Z</time>
      </trkpt>
      <trkpt lat="44.24869" lon="1.76866">
        <ele>309.68</ele>
        <time>2021-08-17T13:40:37Z</time>
      </trkpt>
      <trkpt lat="44.24854" lon="1.76888">
        <ele>309.68</ele>
        <time>2021-08-17T13:40:44Z</time>
      </trkpt>
      <trkpt lat="44.24836" lon="1.76905">
        <ele>310.16</ele>
        <time>2021-08-17T13:40:52Z</time>
      </trkpt>
      <trkpt lat="44.24815" lon="1.76921">
        <ele>311.12</ele>
        <time>2021-08-17T13:41:00Z</time>
      </trkpt>
      <trkpt lat="44.24793" lon="1.76932">
        <ele>312.09</ele>
        <time>2021-08-17T13:41:09Z</time>
      </trkpt>
      <trkpt lat="44.24777" lon="1.76936">
        <ele>313.05</ele>
        <time>2021-08-17T13:41:17Z</time>
      </trkpt>
      <trkpt lat="44.24761" lon="1.76942">
        <ele>314.49</ele>
        <time>2021-08-17T13:41:25Z</time>
      </trkpt>
      <trkpt lat="44.24742" lon="1.76953">
        <ele>315.45</ele>
        <time>2021-08-17T13:41:35Z</time>
      </trkpt>
      <trkpt lat="44.24724" lon="1.76963">
        <ele>317.37</ele>
        <time>2021-08-17T13:41:45Z</time>
      </trkpt>
      <trkpt lat="44.24702" lon="1.76976">
        <ele>318.33</ele>
        <time>2021-08-17T13:41:56Z</time>
      </trkpt>
      <trkpt lat="44.2468" lon="1.76989">
        <ele>318.33</ele>
        <time>2021-08-17T13:42:04Z</time>
      </trkpt>
      <trkpt lat="44.24654" lon="1.77002">
        <ele>318.33</ele>
        <time>2021-08-17T13:42:12Z</time>
      </trkpt>
      <trkpt lat="44.24619" lon="1.77022">
        <ele>318.33</ele>
        <time>2021-08-17T13:42:21Z</time>
      </trkpt>
      <trkpt lat="44.24597" lon="1.77033">
        <ele>316.41</ele>
        <time>2021-08-17T13:42:26Z</time>
      </trkpt>
      <trkpt lat="44.24592" lon="1.77034">
        <ele>316.41</ele>
        <time>2021-08-17T13:42:27Z</time>
      </trkpt>
      <trkpt lat="44.24539" lon="1.77048">
        <ele>313.53</ele>
        <time>2021-08-17T13:42:36Z</time>
      </trkpt>
      <trkpt lat="44.24483" lon="1.7706">
        <ele>312.57</ele>
        <time>2021-08-17T13:42:45Z</time>
      </trkpt>
      <trkpt lat="44.24472" lon="1.77064">
        <ele>312.57</ele>
        <time>2021-08-17T13:42:47Z</time>
      </trkpt>
      <trkpt lat="44.24467" lon="1.77065">
        <ele>312.57</ele>
        <time>2021-08-17T13:42:48Z</time>
      </trkpt>
      <trkpt lat="44.24463" lon="1.77067">
        <ele>312.57</ele>
        <time>2021-08-17T13:42:49Z</time>
      </trkpt>
      <trkpt lat="44.24451" lon="1.77072">
        <ele>314.01</ele>
        <time>2021-08-17T13:42:53Z</time>
      </trkpt>
      <trkpt lat="44.24438" lon="1.77079">
        <ele>314.97</ele>
        <time>2021-08-17T13:43:00Z</time>
      </trkpt>
      <trkpt lat="44.24422" lon="1.77084">
        <ele>316.41</ele>
        <time>2021-08-17T13:43:08Z</time>
      </trkpt>
      <trkpt lat="44.24405" lon="1.77088">
        <ele>316.89</ele>
        <time>2021-08-17T13:43:15Z</time>
      </trkpt>
      <trkpt lat="44.24378" lon="1.77085">
        <ele>315.93</ele>
        <time>2021-08-17T13:43:23Z</time>
      </trkpt>
      <trkpt lat="44.24368" lon="1.77083">
        <ele>315.45</ele>
        <time>2021-08-17T13:43:25Z</time>
      </trkpt>
      <trkpt lat="44.24362" lon="1.77082">
        <ele>315.45</ele>
        <time>2021-08-17T13:43:26Z</time>
      </trkpt>
      <trkpt lat="44.24332" lon="1.77076">
        <ele>314.97</ele>
        <time>2021-08-17T13:43:33Z</time>
      </trkpt>
      <trkpt lat="44.24308" lon="1.77086">
        <ele>315.93</ele>
        <time>2021-08-17T13:43:40Z</time>
      </trkpt>
      <trkpt lat="44.2429" lon="1.77091">
        <ele>317.37</ele>
        <time>2021-08-17T13:43:48Z</time>
      </trkpt>
      <trkpt lat="44.24273" lon="1.77096">
        <ele>319.78</ele>
        <time>2021-08-17T13:43:57Z</time>
      </trkpt>
      <trkpt lat="44.24256" lon="1.77101">
        <ele>320.26</ele>
        <time>2021-08-17T13:44:05Z</time>
      </trkpt>
      <trkpt lat="44.24241" lon="1.77105">
        <ele>320.74</ele>
        <time>2021-08-17T13:44:11Z</time>
      </trkpt>
      <trkpt lat="44.24219" lon="1.77108">
        <ele>320.74</ele>
        <time>2021-08-17T13:44:19Z</time>
      </trkpt>
      <trkpt lat="44.24193" lon="1.77108">
        <ele>319.78</ele>
        <time>2021-08-17T13:44:27Z</time>
      </trkpt>
      <trkpt lat="44.24169" lon="1.7711">
        <ele>318.81</ele>
        <time>2021-08-17T13:44:32Z</time>
      </trkpt>
      <trkpt lat="44.24145" lon="1.77119">
        <ele>318.81</ele>
        <time>2021-08-17T13:44:37Z</time>
      </trkpt>
      <trkpt lat="44.24122" lon="1.77136">
        <ele>318.81</ele>
        <time>2021-08-17T13:44:42Z</time>
      </trkpt>
      <trkpt lat="44.24071" lon="1.77154">
        <ele>317.37</ele>
        <time>2021-08-17T13:44:51Z</time>
      </trkpt>
      <trkpt lat="44.24034" lon="1.77159">
        <ele>314.49</ele>
        <time>2021-08-17T13:44:56Z</time>
      </trkpt>
      <trkpt lat="44.24026" lon="1.77158">
        <ele>314.01</ele>
        <time>2021-08-17T13:44:57Z</time>
      </trkpt>
      <trkpt lat="44.24002" lon="1.77153">
        <ele>313.05</ele>
        <time>2021-08-17T13:45:00Z</time>
      </trkpt>
      <trkpt lat="44.23972" lon="1.77151">
        <ele>312.57</ele>
        <time>2021-08-17T13:45:04Z</time>
      </trkpt>
      <trkpt lat="44.23944" lon="1.77145">
        <ele>312.09</ele>
        <time>2021-08-17T13:45:08Z</time>
      </trkpt>
      <trkpt lat="44.23938" lon="1.77143">
        <ele>312.09</ele>
        <time>2021-08-17T13:45:09Z</time>
      </trkpt>
      <trkpt lat="44.23896" lon="1.7713">
        <ele>313.53</ele>
        <time>2021-08-17T13:45:17Z</time>
      </trkpt>
      <trkpt lat="44.23892" lon="1.7713">
        <ele>313.53</ele>
        <time>2021-08-17T13:45:18Z</time>
      </trkpt>
      <trkpt lat="44.23876" lon="1.7713">
        <ele>313.53</ele>
        <time>2021-08-17T13:45:21Z</time>
      </trkpt>
      <trkpt lat="44.23864" lon="1.77134">
        <ele>313.53</ele>
        <time>2021-08-17T13:45:23Z</time>
      </trkpt>
      <trkpt lat="44.23854" lon="1.77139">
        <ele>313.53</ele>
        <time>2021-08-17T13:45:25Z</time>
      </trkpt>
      <trkpt lat="44.23848" lon="1.77141">
        <ele>313.53</ele>
        <time>2021-08-17T13:45:26Z</time>
      </trkpt>
      <trkpt lat="44.23832" lon="1.77147">
        <ele>311.6</ele>
        <time>2021-08-17T13:45:29Z</time>
      </trkpt>
      <trkpt lat="44.23827" lon="1.77146">
        <ele>311.12</ele>
        <time>2021-08-17T13:45:30Z</time>
      </trkpt>
      <trkpt lat="44.23823" lon="1.77143">
        <ele>310.64</ele>
        <time>2021-08-17T13:45:31Z</time>
      </trkpt>
      <trkpt lat="44.2382" lon="1.7714">
        <ele>310.64</ele>
        <time>2021-08-17T13:45:32Z</time>
      </trkpt>
      <trkpt lat="44.23817" lon="1.77135">
        <ele>309.68</ele>
        <time>2021-08-17T13:45:33Z</time>
      </trkpt>
      <trkpt lat="44.23812" lon="1.77125">
        <ele>308.72</ele>
        <time>2021-08-17T13:45:35Z</time>
      </trkpt>
      <trkpt lat="44.23809" lon="1.7712">
        <ele>308.24</ele>
        <time>2021-08-17T13:45:36Z</time>
      </trkpt>
      <trkpt lat="44.23799" lon="1.77094">
        <ele>304.88</ele>
        <time>2021-08-17T13:45:42Z</time>
      </trkpt>
      <trkpt lat="44.23792" lon="1.77078">
        <ele>302.47</ele>
        <time>2021-08-17T13:45:47Z</time>
      </trkpt>
      <trkpt lat="44.23784" lon="1.77066">
        <ele>299.11</ele>
        <time>2021-08-17T13:45:51Z</time>
      </trkpt>
      <trkpt lat="44.23776" lon="1.77051">
        <ele>296.22</ele>
        <time>2021-08-17T13:45:56Z</time>
      </trkpt>
      <trkpt lat="44.23765" lon="1.77031">
        <ele>292.38</ele>
        <time>2021-08-17T13:46:02Z</time>
      </trkpt>
      <trkpt lat="44.23761" lon="1.77018">
        <ele>290.46</ele>
        <time>2021-08-17T13:46:06Z</time>
      </trkpt>
      <trkpt lat="44.23755" lon="1.77003">
        <ele>287.57</ele>
        <time>2021-08-17T13:46:11Z</time>
      </trkpt>
      <trkpt lat="44.23752" lon="1.76997">
        <ele>286.13</ele>
        <time>2021-08-17T13:46:13Z</time>
      </trkpt>
      <trkpt lat="44.23752" lon="1.76994">
        <ele>285.65</ele>
        <time>2021-08-17T13:46:14Z</time>
      </trkpt>
      <trkpt lat="44.2375" lon="1.76991">
        <ele>285.17</ele>
        <time>2021-08-17T13:46:15Z</time>
      </trkpt>
      <trkpt lat="44.23746" lon="1.76974">
        <ele>282.77</ele>
        <time>2021-08-17T13:46:19Z</time>
      </trkpt>
      <trkpt lat="44.23747" lon="1.76961">
        <ele>280.36</ele>
        <time>2021-08-17T13:46:24Z</time>
      </trkpt>
      <trkpt lat="44.23746" lon="1.76959">
        <ele>279.88</ele>
        <time>2021-08-17T13:46:25Z</time>
      </trkpt>
      <trkpt lat="44.23745" lon="1.76958">
        <ele>279.4</ele>
        <time>2021-08-17T13:46:26Z</time>
      </trkpt>
      <trkpt lat="44.23744" lon="1.76958">
        <ele>278.92</ele>
        <time>2021-08-17T13:46:27Z</time>
      </trkpt>
      <trkpt lat="44.23742" lon="1.76957">
        <ele>278.92</ele>
        <time>2021-08-17T13:46:28Z</time>
      </trkpt>
      <trkpt lat="44.23741" lon="1.76957">
        <ele>277.96</ele>
        <time>2021-08-17T13:46:29Z</time>
      </trkpt>
      <trkpt lat="44.23739" lon="1.76957">
        <ele>277</ele>
        <time>2021-08-17T13:46:30Z</time>
      </trkpt>
      <trkpt lat="44.23738" lon="1.76957">
        <ele>277</ele>
        <time>2021-08-17T13:46:31Z</time>
      </trkpt>
      <trkpt lat="44.23735" lon="1.76958">
        <ele>276.04</ele>
        <time>2021-08-17T13:46:33Z</time>
      </trkpt>
      <trkpt lat="44.23734" lon="1.76958">
        <ele>275.56</ele>
        <time>2021-08-17T13:46:34Z</time>
      </trkpt>
      <trkpt lat="44.23733" lon="1.76958">
        <ele>276.04</ele>
        <time>2021-08-17T13:46:35Z</time>
      </trkpt>
      <trkpt lat="44.23733" lon="1.76955">
        <ele>275.56</ele>
        <time>2021-08-17T13:46:36Z</time>
      </trkpt>
      <trkpt lat="44.23733" lon="1.76951">
        <ele>275.07</ele>
        <time>2021-08-17T13:46:37Z</time>
      </trkpt>
      <trkpt lat="44.23734" lon="1.76947">
        <ele>274.59</ele>
        <time>2021-08-17T13:46:38Z</time>
      </trkpt>
      <trkpt lat="44.23736" lon="1.76942">
        <ele>274.11</ele>
        <time>2021-08-17T13:46:39Z</time>
      </trkpt>
      <trkpt lat="44.23743" lon="1.76915">
        <ele>270.27</ele>
        <time>2021-08-17T13:46:45Z</time>
      </trkpt>
      <trkpt lat="44.23743" lon="1.76912">
        <ele>270.27</ele>
        <time>2021-08-17T13:46:46Z</time>
      </trkpt>
      <trkpt lat="44.23741" lon="1.76908">
        <ele>269.79</ele>
        <time>2021-08-17T13:46:47Z</time>
      </trkpt>
      <trkpt lat="44.23739" lon="1.76906">
        <ele>268.83</ele>
        <time>2021-08-17T13:46:48Z</time>
      </trkpt>
      <trkpt lat="44.23735" lon="1.76906">
        <ele>267.86</ele>
        <time>2021-08-17T13:46:49Z</time>
      </trkpt>
      <trkpt lat="44.23732" lon="1.76909">
        <ele>266.9</ele>
        <time>2021-08-17T13:46:50Z</time>
      </trkpt>
      <trkpt lat="44.23729" lon="1.76913">
        <ele>266.42</ele>
        <time>2021-08-17T13:46:51Z</time>
      </trkpt>
      <trkpt lat="44.23728" lon="1.76917">
        <ele>265.94</ele>
        <time>2021-08-17T13:46:52Z</time>
      </trkpt>
      <trkpt lat="44.23726" lon="1.76921">
        <ele>265.46</ele>
        <time>2021-08-17T13:46:53Z</time>
      </trkpt>
      <trkpt lat="44.23723" lon="1.76925">
        <ele>264.98</ele>
        <time>2021-08-17T13:46:54Z</time>
      </trkpt>
      <trkpt lat="44.23719" lon="1.76929">
        <ele>264.02</ele>
        <time>2021-08-17T13:46:55Z</time>
      </trkpt>
      <trkpt lat="44.23694" lon="1.76959">
        <ele>261.62</ele>
        <time>2021-08-17T13:47:01Z</time>
      </trkpt>
      <trkpt lat="44.23688" lon="1.76975">
        <ele>260.17</ele>
        <time>2021-08-17T13:47:05Z</time>
      </trkpt>
      <trkpt lat="44.23686" lon="1.76976">
        <ele>260.17</ele>
        <time>2021-08-17T13:47:06Z</time>
      </trkpt>
      <trkpt lat="44.23685" lon="1.76973">
        <ele>259.21</ele>
        <time>2021-08-17T13:47:07Z</time>
      </trkpt>
      <trkpt lat="44.23684" lon="1.76969">
        <ele>258.25</ele>
        <time>2021-08-17T13:47:08Z</time>
      </trkpt>
      <trkpt lat="44.23683" lon="1.76964">
        <ele>257.77</ele>
        <time>2021-08-17T13:47:09Z</time>
      </trkpt>
      <trkpt lat="44.23683" lon="1.76959">
        <ele>257.77</ele>
        <time>2021-08-17T13:47:10Z</time>
      </trkpt>
      <trkpt lat="44.23683" lon="1.76953">
        <ele>256.33</ele>
        <time>2021-08-17T13:47:11Z</time>
      </trkpt>
      <trkpt lat="44.2368" lon="1.76924">
        <ele>253.44</ele>
        <time>2021-08-17T13:47:17Z</time>
      </trkpt>
      <trkpt lat="44.23678" lon="1.76911">
        <ele>252</ele>
        <time>2021-08-17T13:47:20Z</time>
      </trkpt>
      <trkpt lat="44.23671" lon="1.769">
        <ele>251.04</ele>
        <time>2021-08-17T13:47:26Z</time>
      </trkpt>
      <trkpt lat="44.23669" lon="1.769">
        <ele>251.52</ele>
        <time>2021-08-17T13:47:35Z</time>
      </trkpt>
      <trkpt lat="44.23668" lon="1.769">
        <ele>251.52</ele>
        <time>2021-08-17T13:47:36Z</time>
      </trkpt>
      <trkpt lat="44.23667" lon="1.76902">
        <ele>251.52</ele>
        <time>2021-08-17T13:47:37Z</time>
      </trkpt>
      <trkpt lat="44.23666" lon="1.76904">
        <ele>251.52</ele>
        <time>2021-08-17T13:47:38Z</time>
      </trkpt>
      <trkpt lat="44.23666" lon="1.76906">
        <ele>251.52</ele>
        <time>2021-08-17T13:47:39Z</time>
      </trkpt>
      <trkpt lat="44.23665" lon="1.76911">
        <ele>251.04</ele>
        <time>2021-08-17T13:47:40Z</time>
      </trkpt>
      <trkpt lat="44.23664" lon="1.76914">
        <ele>251.04</ele>
        <time>2021-08-17T13:47:41Z</time>
      </trkpt>
      <trkpt lat="44.23658" lon="1.76955">
        <ele>248.16</ele>
        <time>2021-08-17T13:47:49Z</time>
      </trkpt>
      <trkpt lat="44.23655" lon="1.76994">
        <ele>246.23</ele>
        <time>2021-08-17T13:47:56Z</time>
      </trkpt>
      <trkpt lat="44.23654" lon="1.77011">
        <ele>245.27</ele>
        <time>2021-08-17T13:47:59Z</time>
      </trkpt>
      <trkpt lat="44.23656" lon="1.7703">
        <ele>244.79</ele>
        <time>2021-08-17T13:48:04Z</time>
      </trkpt>
      <trkpt lat="44.23654" lon="1.77051">
        <ele>243.83</ele>
        <time>2021-08-17T13:48:11Z</time>
      </trkpt>
      <trkpt lat="44.23655" lon="1.77057">
        <ele>243.35</ele>
        <time>2021-08-17T13:48:13Z</time>
      </trkpt>
      <trkpt lat="44.2366" lon="1.77062">
        <ele>242.87</ele>
        <time>2021-08-17T13:48:18Z</time>
      </trkpt>
      <trkpt lat="44.23661" lon="1.77061">
        <ele>242.87</ele>
        <time>2021-08-17T13:48:24Z</time>
      </trkpt>
      <trkpt lat="44.23659" lon="1.77064">
        <ele>242.87</ele>
        <time>2021-08-17T13:48:32Z</time>
      </trkpt>
      <trkpt lat="44.23659" lon="1.77063">
        <ele>242.87</ele>
        <time>2021-08-17T13:48:36Z</time>
      </trkpt>
      <trkpt lat="44.23659" lon="1.77062">
        <ele>242.87</ele>
        <time>2021-08-17T13:48:42Z</time>
      </trkpt>
      <trkpt lat="44.23658" lon="1.77065">
        <ele>242.87</ele>
        <time>2021-08-17T13:48:47Z</time>
      </trkpt>
      <trkpt lat="44.23658" lon="1.77067">
        <ele>242.87</ele>
        <time>2021-08-17T13:48:54Z</time>
      </trkpt>
      <trkpt lat="44.23659" lon="1.77068">
        <ele>242.87</ele>
        <time>2021-08-17T13:49:03Z</time>
      </trkpt>
      <trkpt lat="44.23659" lon="1.77069">
        <ele>242.87</ele>
        <time>2021-08-17T13:49:18Z</time>
      </trkpt>
      <trkpt lat="44.23658" lon="1.77073">
        <ele>242.87</ele>
        <time>2021-08-17T13:49:31Z</time>
      </trkpt>
      <trkpt lat="44.23657" lon="1.77075">
        <ele>242.87</ele>
        <time>2021-08-17T13:49:44Z</time>
      </trkpt>
      <trkpt lat="44.23657" lon="1.77074">
        <ele>242.87</ele>
        <time>2021-08-17T13:50:00Z</time>
      </trkpt>
      <trkpt lat="44.23658" lon="1.77074">
        <ele>242.87</ele>
        <time>2021-08-17T13:50:12Z</time>
      </trkpt>
      <trkpt lat="44.23658" lon="1.77074">
        <ele>242.87</ele>
        <time>2021-08-17T13:50:23Z</time>
      </trkpt>
      <trkpt lat="44.2366" lon="1.77073">
        <ele>242.87</ele>
        <time>2021-08-17T13:50:37Z</time>
      </trkpt>
      <trkpt lat="44.2366" lon="1.77071">
        <ele>242.87</ele>
        <time>2021-08-17T13:50:48Z</time>
      </trkpt>
      <trkpt lat="44.23661" lon="1.7707">
        <ele>242.87</ele>
        <time>2021-08-17T13:50:55Z</time>
      </trkpt>
      <trkpt lat="44.23661" lon="1.77069">
        <ele>242.39</ele>
        <time>2021-08-17T13:51:07Z</time>
      </trkpt>
      <trkpt lat="44.23661" lon="1.7707">
        <ele>242.39</ele>
        <time>2021-08-17T13:51:20Z</time>
      </trkpt>
      <trkpt lat="44.23661" lon="1.7707">
        <ele>242.39</ele>
        <time>2021-08-17T13:51:35Z</time>
      </trkpt>
      <trkpt lat="44.23662" lon="1.77071">
        <ele>242.39</ele>
        <time>2021-08-17T13:51:47Z</time>
      </trkpt>
      <trkpt lat="44.23662" lon="1.77071">
        <ele>242.39</ele>
        <time>2021-08-17T13:51:58Z</time>
      </trkpt>
      <trkpt lat="44.23662" lon="1.7707">
        <ele>242.39</ele>
        <time>2021-08-17T13:52:11Z</time>
      </trkpt>
      <trkpt lat="44.23661" lon="1.7707">
        <ele>242.39</ele>
        <time>2021-08-17T13:52:26Z</time>
      </trkpt>
      <trkpt lat="44.23659" lon="1.7707">
        <ele>242.39</ele>
        <time>2021-08-17T13:52:38Z</time>
      </trkpt>
      <trkpt lat="44.23659" lon="1.77071">
        <ele>242.39</ele>
        <time>2021-08-17T13:52:51Z</time>
      </trkpt>
      <trkpt lat="44.2366" lon="1.77071">
        <ele>242.39</ele>
        <time>2021-08-17T13:53:04Z</time>
      </trkpt>
      <trkpt lat="44.23661" lon="1.7707">
        <ele>241.91</ele>
        <time>2021-08-17T13:53:12Z</time>
      </trkpt>
      <trkpt lat="44.23662" lon="1.77069">
        <ele>241.91</ele>
        <time>2021-08-17T13:53:22Z</time>
      </trkpt>
      <trkpt lat="44.23661" lon="1.77068">
        <ele>241.91</ele>
        <time>2021-08-17T13:53:33Z</time>
      </trkpt>
      <trkpt lat="44.23658" lon="1.77067">
        <ele>241.91</ele>
        <time>2021-08-17T13:53:34Z</time>
      </trkpt>
      <trkpt lat="44.23655" lon="1.77066">
        <ele>241.91</ele>
        <time>2021-08-17T13:53:35Z</time>
      </trkpt>
      <trkpt lat="44.23654" lon="1.77067">
        <ele>241.91</ele>
        <time>2021-08-17T13:53:39Z</time>
      </trkpt>
      <trkpt lat="44.23653" lon="1.77069">
        <ele>241.91</ele>
        <time>2021-08-17T13:53:40Z</time>
      </trkpt>
      <trkpt lat="44.23655" lon="1.77069">
        <ele>241.91</ele>
        <time>2021-08-17T13:53:45Z</time>
      </trkpt>
      <trkpt lat="44.23664" lon="1.7707">
        <ele>241.91</ele>
        <time>2021-08-17T13:54:01Z</time>
      </trkpt>
      <trkpt lat="44.23666" lon="1.77069">
        <ele>241.91</ele>
        <time>2021-08-17T13:54:10Z</time>
      </trkpt>
      <trkpt lat="44.23668" lon="1.7707">
        <ele>241.43</ele>
        <time>2021-08-17T13:54:22Z</time>
      </trkpt>
      <trkpt lat="44.23669" lon="1.77069">
        <ele>241.43</ele>
        <time>2021-08-17T13:54:34Z</time>
      </trkpt>
      <trkpt lat="44.2367" lon="1.77068">
        <ele>241.43</ele>
        <time>2021-08-17T13:54:44Z</time>
      </trkpt>
      <trkpt lat="44.23671" lon="1.77067">
        <ele>241.43</ele>
        <time>2021-08-17T13:54:54Z</time>
      </trkpt>
      <trkpt lat="44.23673" lon="1.77066">
        <ele>241.43</ele>
        <time>2021-08-17T13:55:09Z</time>
      </trkpt>
      <trkpt lat="44.23672" lon="1.77066">
        <ele>241.43</ele>
        <time>2021-08-17T13:55:17Z</time>
      </trkpt>
      <trkpt lat="44.23673" lon="1.77066">
        <ele>241.43</ele>
        <time>2021-08-17T13:55:25Z</time>
      </trkpt>
      <trkpt lat="44.23671" lon="1.77067">
        <ele>240.95</ele>
        <time>2021-08-17T13:55:43Z</time>
      </trkpt>
      <trkpt lat="44.23669" lon="1.77069">
        <ele>240.95</ele>
        <time>2021-08-17T13:55:56Z</time>
      </trkpt>
      <trkpt lat="44.23666" lon="1.77069">
        <ele>240.95</ele>
        <time>2021-08-17T13:56:07Z</time>
      </trkpt>
      <trkpt lat="44.23664" lon="1.77069">
        <ele>240.95</ele>
        <time>2021-08-17T13:56:19Z</time>
      </trkpt>
      <trkpt lat="44.23662" lon="1.7707">
        <ele>240.95</ele>
        <time>2021-08-17T13:56:34Z</time>
      </trkpt>
      <trkpt lat="44.23662" lon="1.77069">
        <ele>240.95</ele>
        <time>2021-08-17T13:56:42Z</time>
      </trkpt>
      <trkpt lat="44.23661" lon="1.77069">
        <ele>240.47</ele>
        <time>2021-08-17T13:56:50Z</time>
      </trkpt>
      <trkpt lat="44.23659" lon="1.77069">
        <ele>240.47</ele>
        <time>2021-08-17T13:57:03Z</time>
      </trkpt>
      <trkpt lat="44.23657" lon="1.7707">
        <ele>240.47</ele>
        <time>2021-08-17T13:57:12Z</time>
      </trkpt>
      <trkpt lat="44.23659" lon="1.77071">
        <ele>240.47</ele>
        <time>2021-08-17T13:57:18Z</time>
      </trkpt>
      <trkpt lat="44.23655" lon="1.77071">
        <ele>240.47</ele>
        <time>2021-08-17T13:57:27Z</time>
      </trkpt>
      <trkpt lat="44.23649" lon="1.77071">
        <ele>240.47</ele>
        <time>2021-08-17T13:57:38Z</time>
      </trkpt>
      <trkpt lat="44.23647" lon="1.7707">
        <ele>240.47</ele>
        <time>2021-08-17T13:57:45Z</time>
      </trkpt>
      <trkpt lat="44.23644" lon="1.7707">
        <ele>240.47</ele>
        <time>2021-08-17T13:57:54Z</time>
      </trkpt>
      <trkpt lat="44.23643" lon="1.7707">
        <ele>240.47</ele>
        <time>2021-08-17T13:58:01Z</time>
      </trkpt>
      <trkpt lat="44.23639" lon="1.77069">
        <ele>240.47</ele>
        <time>2021-08-17T13:58:10Z</time>
      </trkpt>
      <trkpt lat="44.23639" lon="1.77068">
        <ele>240.47</ele>
        <time>2021-08-17T13:58:19Z</time>
      </trkpt>
      <trkpt lat="44.2364" lon="1.77068">
        <ele>240.47</ele>
        <time>2021-08-17T13:58:32Z</time>
      </trkpt>
      <trkpt lat="44.23641" lon="1.77067">
        <ele>240.47</ele>
        <time>2021-08-17T13:58:40Z</time>
      </trkpt>
      <trkpt lat="44.23643" lon="1.77068">
        <ele>240.47</ele>
        <time>2021-08-17T13:58:49Z</time>
      </trkpt>
      <trkpt lat="44.23645" lon="1.77069">
        <ele>241.43</ele>
        <time>2021-08-17T13:58:57Z</time>
      </trkpt>
      <trkpt lat="44.23645" lon="1.77069">
        <ele>241.43</ele>
        <time>2021-08-17T13:59:05Z</time>
      </trkpt>
      <trkpt lat="44.23649" lon="1.77071">
        <ele>241.43</ele>
        <time>2021-08-17T13:59:17Z</time>
      </trkpt>
      <trkpt lat="44.23649" lon="1.77071">
        <ele>241.43</ele>
        <time>2021-08-17T13:59:27Z</time>
      </trkpt>
      <trkpt lat="44.23648" lon="1.7707">
        <ele>241.43</ele>
        <time>2021-08-17T13:59:37Z</time>
      </trkpt>
      <trkpt lat="44.23646" lon="1.7707">
        <ele>241.43</ele>
        <time>2021-08-17T13:59:45Z</time>
      </trkpt>
      <trkpt lat="44.23643" lon="1.7707">
        <ele>241.43</ele>
        <time>2021-08-17T13:59:55Z</time>
      </trkpt>
      <trkpt lat="44.23644" lon="1.7707">
        <ele>241.43</ele>
        <time>2021-08-17T14:00:04Z</time>
      </trkpt>
      <trkpt lat="44.23644" lon="1.7707">
        <ele>241.43</ele>
        <time>2021-08-17T14:00:12Z</time>
      </trkpt>
      <trkpt lat="44.23646" lon="1.7707">
        <ele>241.43</ele>
        <time>2021-08-17T14:00:20Z</time>
      </trkpt>
      <trkpt lat="44.23648" lon="1.7707">
        <ele>241.43</ele>
        <time>2021-08-17T14:00:26Z</time>
      </trkpt>
      <trkpt lat="44.23651" lon="1.77071">
        <ele>241.43</ele>
        <time>2021-08-17T14:00:41Z</time>
      </trkpt>
      <trkpt lat="44.23654" lon="1.77068">
        <ele>241.43</ele>
        <time>2021-08-17T14:00:58Z</time>
      </trkpt>
      <trkpt lat="44.23653" lon="1.77069">
        <ele>241.43</ele>
        <time>2021-08-17T14:01:08Z</time>
      </trkpt>
      <trkpt lat="44.23654" lon="1.7707">
        <ele>241.43</ele>
        <time>2021-08-17T14:01:17Z</time>
      </trkpt>
      <trkpt lat="44.23655" lon="1.77071">
        <ele>241.43</ele>
        <time>2021-08-17T14:01:25Z</time>
      </trkpt>
      <trkpt lat="44.23654" lon="1.77072">
        <ele>241.43</ele>
        <time>2021-08-17T14:01:32Z</time>
      </trkpt>
      <trkpt lat="44.23653" lon="1.77071">
        <ele>241.43</ele>
        <time>2021-08-17T14:01:39Z</time>
      </trkpt>
      <trkpt lat="44.23652" lon="1.77069">
        <ele>241.43</ele>
        <time>2021-08-17T14:01:48Z</time>
      </trkpt>
      <trkpt lat="44.23652" lon="1.77067">
        <ele>241.43</ele>
        <time>2021-08-17T14:01:59Z</time>
      </trkpt>
      <trkpt lat="44.23649" lon="1.77064">
        <ele>241.43</ele>
        <time>2021-08-17T14:02:13Z</time>
      </trkpt>
      <trkpt lat="44.2365" lon="1.77064">
        <ele>241.43</ele>
        <time>2021-08-17T14:02:24Z</time>
      </trkpt>
      <trkpt lat="44.23651" lon="1.77065">
        <ele>241.43</ele>
        <time>2021-08-17T14:02:31Z</time>
      </trkpt>
      <trkpt lat="44.23649" lon="1.77065">
        <ele>241.43</ele>
        <time>2021-08-17T14:02:39Z</time>
      </trkpt>
      <trkpt lat="44.23649" lon="1.77066">
        <ele>241.43</ele>
        <time>2021-08-17T14:02:44Z</time>
      </trkpt>
      <trkpt lat="44.23649" lon="1.77066">
        <ele>241.43</ele>
        <time>2021-08-17T14:02:53Z</time>
      </trkpt>
      <trkpt lat="44.2365" lon="1.77065">
        <ele>241.43</ele>
        <time>2021-08-17T14:03:01Z</time>
      </trkpt>
      <trkpt lat="44.23651" lon="1.77064">
        <ele>241.43</ele>
        <time>2021-08-17T14:03:13Z</time>
      </trkpt>
      <trkpt lat="44.2365" lon="1.77063">
        <ele>241.43</ele>
        <time>2021-08-17T14:03:23Z</time>
      </trkpt>
      <trkpt lat="44.23647" lon="1.77061">
        <ele>241.91</ele>
        <time>2021-08-17T14:03:33Z</time>
      </trkpt>
      <trkpt lat="44.23647" lon="1.77061">
        <ele>241.91</ele>
        <time>2021-08-17T14:03:42Z</time>
      </trkpt>
      <trkpt lat="44.23652" lon="1.77066">
        <ele>241.91</ele>
        <time>2021-08-17T14:03:58Z</time>
      </trkpt>
      <trkpt lat="44.23655" lon="1.77069">
        <ele>241.91</ele>
        <time>2021-08-17T14:04:11Z</time>
      </trkpt>
      <trkpt lat="44.23655" lon="1.77071">
        <ele>241.91</ele>
        <time>2021-08-17T14:04:27Z</time>
      </trkpt>
      <trkpt lat="44.23656" lon="1.77071">
        <ele>241.91</ele>
        <time>2021-08-17T14:04:43Z</time>
      </trkpt>
      <trkpt lat="44.23657" lon="1.7707">
        <ele>241.91</ele>
        <time>2021-08-17T14:04:53Z</time>
      </trkpt>
      <trkpt lat="44.23655" lon="1.77069">
        <ele>241.91</ele>
        <time>2021-08-17T14:05:03Z</time>
      </trkpt>
      <trkpt lat="44.23654" lon="1.7707">
        <ele>241.91</ele>
        <time>2021-08-17T14:05:14Z</time>
      </trkpt>
      <trkpt lat="44.23652" lon="1.77071">
        <ele>242.39</ele>
        <time>2021-08-17T14:05:27Z</time>
      </trkpt>
      <trkpt lat="44.23651" lon="1.77071">
        <ele>242.39</ele>
        <time>2021-08-17T14:05:42Z</time>
      </trkpt>
      <trkpt lat="44.23651" lon="1.77071">
        <ele>242.39</ele>
        <time>2021-08-17T14:05:52Z</time>
      </trkpt>
      <trkpt lat="44.2365" lon="1.77071">
        <ele>242.39</ele>
        <time>2021-08-17T14:06:03Z</time>
      </trkpt>
      <trkpt lat="44.23652" lon="1.77071">
        <ele>241.43</ele>
        <time>2021-08-17T14:06:13Z</time>
      </trkpt>
      <trkpt lat="44.23653" lon="1.77071">
        <ele>241.43</ele>
        <time>2021-08-17T14:06:22Z</time>
      </trkpt>
      <trkpt lat="44.23652" lon="1.77072">
        <ele>241.43</ele>
        <time>2021-08-17T14:06:35Z</time>
      </trkpt>
      <trkpt lat="44.23651" lon="1.77072">
        <ele>241.43</ele>
        <time>2021-08-17T14:06:49Z</time>
      </trkpt>
      <trkpt lat="44.23648" lon="1.77074">
        <ele>241.43</ele>
        <time>2021-08-17T14:07:05Z</time>
      </trkpt>
      <trkpt lat="44.23647" lon="1.77077">
        <ele>241.43</ele>
        <time>2021-08-17T14:07:20Z</time>
      </trkpt>
      <trkpt lat="44.23646" lon="1.77077">
        <ele>241.43</ele>
        <time>2021-08-17T14:07:35Z</time>
      </trkpt>
      <trkpt lat="44.23645" lon="1.77078">
        <ele>241.43</ele>
        <time>2021-08-17T14:07:46Z</time>
      </trkpt>
      <trkpt lat="44.23648" lon="1.77075">
        <ele>241.91</ele>
        <time>2021-08-17T14:08:05Z</time>
      </trkpt>
      <trkpt lat="44.2365" lon="1.77074">
        <ele>241.91</ele>
        <time>2021-08-17T14:08:18Z</time>
      </trkpt>
      <trkpt lat="44.23654" lon="1.7707">
        <ele>241.91</ele>
        <time>2021-08-17T14:08:35Z</time>
      </trkpt>
      <trkpt lat="44.23655" lon="1.77069">
        <ele>241.91</ele>
        <time>2021-08-17T14:08:52Z</time>
      </trkpt>
      <trkpt lat="44.23655" lon="1.7707">
        <ele>241.91</ele>
        <time>2021-08-17T14:09:14Z</time>
      </trkpt>
      <trkpt lat="44.23654" lon="1.77071">
        <ele>242.87</ele>
        <time>2021-08-17T14:09:33Z</time>
      </trkpt>
      <trkpt lat="44.23652" lon="1.77069">
        <ele>242.87</ele>
        <time>2021-08-17T14:09:47Z</time>
      </trkpt>
      <trkpt lat="44.23652" lon="1.77066">
        <ele>242.87</ele>
        <time>2021-08-17T14:10:01Z</time>
      </trkpt>
      <trkpt lat="44.23652" lon="1.77065">
        <ele>242.87</ele>
        <time>2021-08-17T14:10:02Z</time>
      </trkpt>
      <trkpt lat="44.23656" lon="1.7706">
        <ele>242.87</ele>
        <time>2021-08-17T14:10:10Z</time>
      </trkpt>
      <trkpt lat="44.23652" lon="1.77061">
        <ele>243.35</ele>
        <time>2021-08-17T14:10:14Z</time>
      </trkpt>
      <trkpt lat="44.23645" lon="1.77064">
        <ele>243.35</ele>
        <time>2021-08-17T14:10:22Z</time>
      </trkpt>
      <trkpt lat="44.23644" lon="1.77062">
        <ele>242.39</ele>
        <time>2021-08-17T14:10:24Z</time>
      </trkpt>
      <trkpt lat="44.23647" lon="1.77039">
        <ele>242.39</ele>
        <time>2021-08-17T14:10:36Z</time>
      </trkpt>
      <trkpt lat="44.23648" lon="1.77029">
        <ele>243.35</ele>
        <time>2021-08-17T14:10:41Z</time>
      </trkpt>
      <trkpt lat="44.2365" lon="1.77023">
        <ele>243.35</ele>
        <time>2021-08-17T14:10:45Z</time>
      </trkpt>
      <trkpt lat="44.23651" lon="1.77012">
        <ele>244.31</ele>
        <time>2021-08-17T14:10:53Z</time>
      </trkpt>
      <trkpt lat="44.23649" lon="1.7701">
        <ele>244.79</ele>
        <time>2021-08-17T14:11:05Z</time>
      </trkpt>
      <trkpt lat="44.23646" lon="1.7701">
        <ele>244.79</ele>
        <time>2021-08-17T14:11:26Z</time>
      </trkpt>
      <trkpt lat="44.23647" lon="1.7701">
        <ele>244.79</ele>
        <time>2021-08-17T14:11:50Z</time>
      </trkpt>
      <trkpt lat="44.23646" lon="1.7701">
        <ele>244.79</ele>
        <time>2021-08-17T14:12:17Z</time>
      </trkpt>
      <trkpt lat="44.23646" lon="1.77012">
        <ele>244.31</ele>
        <time>2021-08-17T14:12:41Z</time>
      </trkpt>
      <trkpt lat="44.23648" lon="1.7701">
        <ele>244.31</ele>
        <time>2021-08-17T14:13:01Z</time>
      </trkpt>
      <trkpt lat="44.2365" lon="1.77008">
        <ele>244.31</ele>
        <time>2021-08-17T14:13:25Z</time>
      </trkpt>
      <trkpt lat="44.23648" lon="1.77008">
        <ele>244.31</ele>
        <time>2021-08-17T14:13:44Z</time>
      </trkpt>
      <trkpt lat="44.23647" lon="1.77008">
        <ele>244.31</ele>
        <time>2021-08-17T14:13:59Z</time>
      </trkpt>
      <trkpt lat="44.23645" lon="1.7701">
        <ele>244.31</ele>
        <time>2021-08-17T14:14:22Z</time>
      </trkpt>
      <trkpt lat="44.23645" lon="1.77013">
        <ele>244.31</ele>
        <time>2021-08-17T14:14:46Z</time>
      </trkpt>
      <trkpt lat="44.23646" lon="1.77013">
        <ele>244.31</ele>
        <time>2021-08-17T14:15:06Z</time>
      </trkpt>
      <trkpt lat="44.23647" lon="1.77012">
        <ele>244.31</ele>
        <time>2021-08-17T14:15:23Z</time>
      </trkpt>
      <trkpt lat="44.23646" lon="1.77011">
        <ele>244.31</ele>
        <time>2021-08-17T14:15:42Z</time>
      </trkpt>
      <trkpt lat="44.23646" lon="1.77011">
        <ele>244.31</ele>
        <time>2021-08-17T14:15:55Z</time>
      </trkpt>
      <trkpt lat="44.23647" lon="1.77009">
        <ele>244.31</ele>
        <time>2021-08-17T14:16:01Z</time>
      </trkpt>
      <trkpt lat="44.23647" lon="1.77012">
        <ele>244.31</ele>
        <time>2021-08-17T14:16:26Z</time>
      </trkpt>
      <trkpt lat="44.23648" lon="1.77011">
        <ele>244.31</ele>
        <time>2021-08-17T14:16:35Z</time>
      </trkpt>
      <trkpt lat="44.23649" lon="1.7701">
        <ele>244.31</ele>
        <time>2021-08-17T14:16:57Z</time>
      </trkpt>
      <trkpt lat="44.23647" lon="1.7701">
        <ele>244.31</ele>
        <time>2021-08-17T14:17:13Z</time>
      </trkpt>
      <trkpt lat="44.23647" lon="1.77006">
        <ele>244.31</ele>
        <time>2021-08-17T14:17:28Z</time>
      </trkpt>
      <trkpt lat="44.23653" lon="1.77005">
        <ele>244.31</ele>
        <time>2021-08-17T14:17:41Z</time>
      </trkpt>
      <trkpt lat="44.23652" lon="1.77002">
        <ele>244.31</ele>
        <time>2021-08-17T14:17:47Z</time>
      </trkpt>
      <trkpt lat="44.23651" lon="1.76999">
        <ele>244.31</ele>
        <time>2021-08-17T14:17:49Z</time>
      </trkpt>
      <trkpt lat="44.23652" lon="1.76993">
        <ele>244.31</ele>
        <time>2021-08-17T14:17:52Z</time>
      </trkpt>
      <trkpt lat="44.23653" lon="1.76992">
        <ele>244.31</ele>
        <time>2021-08-17T14:17:53Z</time>
      </trkpt>
      <trkpt lat="44.23654" lon="1.76993">
        <ele>245.27</ele>
        <time>2021-08-17T14:17:54Z</time>
      </trkpt>
      <trkpt lat="44.23655" lon="1.76994">
        <ele>245.27</ele>
        <time>2021-08-17T14:17:55Z</time>
      </trkpt>
      <trkpt lat="44.23656" lon="1.76996">
        <ele>245.27</ele>
        <time>2021-08-17T14:17:56Z</time>
      </trkpt>
      <trkpt lat="44.23657" lon="1.77">
        <ele>245.27</ele>
        <time>2021-08-17T14:17:58Z</time>
      </trkpt>
      <trkpt lat="44.23657" lon="1.77005">
        <ele>245.75</ele>
        <time>2021-08-17T14:17:59Z</time>
      </trkpt>
      <trkpt lat="44.23657" lon="1.77012">
        <ele>245.75</ele>
        <time>2021-08-17T14:18:00Z</time>
      </trkpt>
      <trkpt lat="44.23656" lon="1.77018">
        <ele>245.75</ele>
        <time>2021-08-17T14:18:01Z</time>
      </trkpt>
      <trkpt lat="44.23656" lon="1.77025">
        <ele>245.75</ele>
        <time>2021-08-17T14:18:02Z</time>
      </trkpt>
      <trkpt lat="44.23656" lon="1.77048">
        <ele>244.31</ele>
        <time>2021-08-17T14:18:05Z</time>
      </trkpt>
      <trkpt lat="44.23654" lon="1.77078">
        <ele>242.87</ele>
        <time>2021-08-17T14:18:09Z</time>
      </trkpt>
      <trkpt lat="44.23653" lon="1.77083">
        <ele>242.39</ele>
        <time>2021-08-17T14:18:10Z</time>
      </trkpt>
      <trkpt lat="44.23652" lon="1.77086">
        <ele>242.39</ele>
        <time>2021-08-17T14:18:14Z</time>
      </trkpt>
      <trkpt lat="44.23652" lon="1.77086">
        <ele>242.39</ele>
        <time>2021-08-17T14:18:18Z</time>
      </trkpt>
      <trkpt lat="44.23653" lon="1.77088">
        <ele>242.39</ele>
        <time>2021-08-17T14:18:19Z</time>
      </trkpt>
      <trkpt lat="44.23655" lon="1.77089">
        <ele>242.39</ele>
        <time>2021-08-17T14:18:20Z</time>
      </trkpt>
      <trkpt lat="44.23656" lon="1.77087">
        <ele>242.39</ele>
        <time>2021-08-17T14:18:21Z</time>
      </trkpt>
      <trkpt lat="44.23656" lon="1.77084">
        <ele>241.91</ele>
        <time>2021-08-17T14:18:22Z</time>
      </trkpt>
      <trkpt lat="44.23656" lon="1.77082">
        <ele>241.91</ele>
        <time>2021-08-17T14:18:23Z</time>
      </trkpt>
      <trkpt lat="44.23656" lon="1.7708">
        <ele>241.91</ele>
        <time>2021-08-17T14:18:24Z</time>
      </trkpt>
      <trkpt lat="44.23655" lon="1.77078">
        <ele>241.91</ele>
        <time>2021-08-17T14:18:25Z</time>
      </trkpt>
      <trkpt lat="44.23655" lon="1.77075">
        <ele>241.91</ele>
        <time>2021-08-17T14:18:26Z</time>
      </trkpt>
      <trkpt lat="44.23656" lon="1.77047">
        <ele>243.35</ele>
        <time>2021-08-17T14:18:35Z</time>
      </trkpt>
      <trkpt lat="44.23656" lon="1.7701">
        <ele>245.27</ele>
        <time>2021-08-17T14:18:46Z</time>
      </trkpt>
      <trkpt lat="44.23654" lon="1.76989">
        <ele>246.23</ele>
        <time>2021-08-17T14:18:54Z</time>
      </trkpt>
      <trkpt lat="44.23653" lon="1.76988">
        <ele>246.72</ele>
        <time>2021-08-17T14:18:55Z</time>
      </trkpt>
      <trkpt lat="44.23651" lon="1.76987">
        <ele>246.72</ele>
        <time>2021-08-17T14:18:56Z</time>
      </trkpt>
      <trkpt lat="44.2365" lon="1.76986">
        <ele>246.72</ele>
        <time>2021-08-17T14:18:57Z</time>
      </trkpt>
      <trkpt lat="44.23648" lon="1.76986">
        <ele>246.72</ele>
        <time>2021-08-17T14:18:58Z</time>
      </trkpt>
      <trkpt lat="44.23646" lon="1.76987">
        <ele>245.27</ele>
        <time>2021-08-17T14:18:59Z</time>
      </trkpt>
      <trkpt lat="44.23628" lon="1.76986">
        <ele>243.35</ele>
        <time>2021-08-17T14:19:06Z</time>
      </trkpt>
      <trkpt lat="44.23615" lon="1.76985">
        <ele>240.95</ele>
        <time>2021-08-17T14:19:12Z</time>
      </trkpt>
      <trkpt lat="44.236" lon="1.7699">
        <ele>239.99</ele>
        <time>2021-08-17T14:19:17Z</time>
      </trkpt>
      <trkpt lat="44.23597" lon="1.76992">
        <ele>240.47</ele>
        <time>2021-08-17T14:19:18Z</time>
      </trkpt>
      <trkpt lat="44.23594" lon="1.76994">
        <ele>240.47</ele>
        <time>2021-08-17T14:19:19Z</time>
      </trkpt>
      <trkpt lat="44.23592" lon="1.76995">
        <ele>240.47</ele>
        <time>2021-08-17T14:19:20Z</time>
      </trkpt>
      <trkpt lat="44.2359" lon="1.76996">
        <ele>240.47</ele>
        <time>2021-08-17T14:19:21Z</time>
      </trkpt>
      <trkpt lat="44.23586" lon="1.77001">
        <ele>241.43</ele>
        <time>2021-08-17T14:19:27Z</time>
      </trkpt>
      <trkpt lat="44.23585" lon="1.77004">
        <ele>241.91</ele>
        <time>2021-08-17T14:19:28Z</time>
      </trkpt>
      <trkpt lat="44.23585" lon="1.77007">
        <ele>241.91</ele>
        <time>2021-08-17T14:19:29Z</time>
      </trkpt>
      <trkpt lat="44.23582" lon="1.77023">
        <ele>242.87</ele>
        <time>2021-08-17T14:19:37Z</time>
      </trkpt>
      <trkpt lat="44.2358" lon="1.77042">
        <ele>245.27</ele>
        <time>2021-08-17T14:19:46Z</time>
      </trkpt>
      <trkpt lat="44.23576" lon="1.77049">
        <ele>245.27</ele>
        <time>2021-08-17T14:19:50Z</time>
      </trkpt>
      <trkpt lat="44.23565" lon="1.77056">
        <ele>246.72</ele>
        <time>2021-08-17T14:19:58Z</time>
      </trkpt>
      <trkpt lat="44.23556" lon="1.77062">
        <ele>248.64</ele>
        <time>2021-08-17T14:20:07Z</time>
      </trkpt>
      <trkpt lat="44.23555" lon="1.77057">
        <ele>250.08</ele>
        <time>2021-08-17T14:20:14Z</time>
      </trkpt>
      <trkpt lat="44.23555" lon="1.77057">
        <ele>250.08</ele>
        <time>2021-08-17T14:20:15Z</time>
      </trkpt>
      <trkpt lat="44.23554" lon="1.77055">
        <ele>250.08</ele>
        <time>2021-08-17T14:20:16Z</time>
      </trkpt>
      <trkpt lat="44.23554" lon="1.77053">
        <ele>250.08</ele>
        <time>2021-08-17T14:20:17Z</time>
      </trkpt>
      <trkpt lat="44.23552" lon="1.77044">
        <ele>251.04</ele>
        <time>2021-08-17T14:20:22Z</time>
      </trkpt>
      <trkpt lat="44.23553" lon="1.77039">
        <ele>251.04</ele>
        <time>2021-08-17T14:20:25Z</time>
      </trkpt>
      <trkpt lat="44.23552" lon="1.77036">
        <ele>251.04</ele>
        <time>2021-08-17T14:20:26Z</time>
      </trkpt>
      <trkpt lat="44.23553" lon="1.77011">
        <ele>251.04</ele>
        <time>2021-08-17T14:20:34Z</time>
      </trkpt>
      <trkpt lat="44.23548" lon="1.76982">
        <ele>250.08</ele>
        <time>2021-08-17T14:20:43Z</time>
      </trkpt>
      <trkpt lat="44.23547" lon="1.76979">
        <ele>250.08</ele>
        <time>2021-08-17T14:20:44Z</time>
      </trkpt>
      <trkpt lat="44.23539" lon="1.76969">
        <ele>248.64</ele>
        <time>2021-08-17T14:20:48Z</time>
      </trkpt>
      <trkpt lat="44.23536" lon="1.76969">
        <ele>248.16</ele>
        <time>2021-08-17T14:20:49Z</time>
      </trkpt>
      <trkpt lat="44.23534" lon="1.76971">
        <ele>248.16</ele>
        <time>2021-08-17T14:20:50Z</time>
      </trkpt>
      <trkpt lat="44.23532" lon="1.76973">
        <ele>247.68</ele>
        <time>2021-08-17T14:20:51Z</time>
      </trkpt>
      <trkpt lat="44.23529" lon="1.76974">
        <ele>247.68</ele>
        <time>2021-08-17T14:20:52Z</time>
      </trkpt>
      <trkpt lat="44.23528" lon="1.76976">
        <ele>247.68</ele>
        <time>2021-08-17T14:20:53Z</time>
      </trkpt>
      <trkpt lat="44.23514" lon="1.76997">
        <ele>248.16</ele>
        <time>2021-08-17T14:21:01Z</time>
      </trkpt>
      <trkpt lat="44.23495" lon="1.77028">
        <ele>247.68</ele>
        <time>2021-08-17T14:21:09Z</time>
      </trkpt>
      <trkpt lat="44.23484" lon="1.7703">
        <ele>245.27</ele>
        <time>2021-08-17T14:21:12Z</time>
      </trkpt>
      <trkpt lat="44.2348" lon="1.77034">
        <ele>244.79</ele>
        <time>2021-08-17T14:21:13Z</time>
      </trkpt>
      <trkpt lat="44.23476" lon="1.7704">
        <ele>243.83</ele>
        <time>2021-08-17T14:21:14Z</time>
      </trkpt>
      <trkpt lat="44.23473" lon="1.77048">
        <ele>242.87</ele>
        <time>2021-08-17T14:21:15Z</time>
      </trkpt>
      <trkpt lat="44.2347" lon="1.77054">
        <ele>242.39</ele>
        <time>2021-08-17T14:21:16Z</time>
      </trkpt>
      <trkpt lat="44.23464" lon="1.77076">
        <ele>239.99</ele>
        <time>2021-08-17T14:21:19Z</time>
      </trkpt>
      <trkpt lat="44.23463" lon="1.77084">
        <ele>239.02</ele>
        <time>2021-08-17T14:21:20Z</time>
      </trkpt>
      <trkpt lat="44.23463" lon="1.77093">
        <ele>237.58</ele>
        <time>2021-08-17T14:21:21Z</time>
      </trkpt>
      <trkpt lat="44.23463" lon="1.77101">
        <ele>237.1</ele>
        <time>2021-08-17T14:21:22Z</time>
      </trkpt>
      <trkpt lat="44.23463" lon="1.77111">
        <ele>236.62</ele>
        <time>2021-08-17T14:21:23Z</time>
      </trkpt>
      <trkpt lat="44.23464" lon="1.77146">
        <ele>232.78</ele>
        <time>2021-08-17T14:21:27Z</time>
      </trkpt>
      <trkpt lat="44.23465" lon="1.77177">
        <ele>229.41</ele>
        <time>2021-08-17T14:21:31Z</time>
      </trkpt>
      <trkpt lat="44.23468" lon="1.77196">
        <ele>227.97</ele>
        <time>2021-08-17T14:21:34Z</time>
      </trkpt>
      <trkpt lat="44.2347" lon="1.77204">
        <ele>227.01</ele>
        <time>2021-08-17T14:21:35Z</time>
      </trkpt>
      <trkpt lat="44.23474" lon="1.77233">
        <ele>225.09</ele>
        <time>2021-08-17T14:21:39Z</time>
      </trkpt>
      <trkpt lat="44.23477" lon="1.77245">
        <ele>223.16</ele>
        <time>2021-08-17T14:21:41Z</time>
      </trkpt>
      <trkpt lat="44.23479" lon="1.77258">
        <ele>221.72</ele>
        <time>2021-08-17T14:21:44Z</time>
      </trkpt>
      <trkpt lat="44.23477" lon="1.77261">
        <ele>221.72</ele>
        <time>2021-08-17T14:21:45Z</time>
      </trkpt>
      <trkpt lat="44.23475" lon="1.77261">
        <ele>221.24</ele>
        <time>2021-08-17T14:21:46Z</time>
      </trkpt>
      <trkpt lat="44.23472" lon="1.77259">
        <ele>220.76</ele>
        <time>2021-08-17T14:21:47Z</time>
      </trkpt>
      <trkpt lat="44.2347" lon="1.77257">
        <ele>221.24</ele>
        <time>2021-08-17T14:21:48Z</time>
      </trkpt>
      <trkpt lat="44.23468" lon="1.77253">
        <ele>221.24</ele>
        <time>2021-08-17T14:21:49Z</time>
      </trkpt>
      <trkpt lat="44.23466" lon="1.77248">
        <ele>220.76</ele>
        <time>2021-08-17T14:21:50Z</time>
      </trkpt>
      <trkpt lat="44.23464" lon="1.77243">
        <ele>220.28</ele>
        <time>2021-08-17T14:21:51Z</time>
      </trkpt>
      <trkpt lat="44.23463" lon="1.77239">
        <ele>220.28</ele>
        <time>2021-08-17T14:21:52Z</time>
      </trkpt>
      <trkpt lat="44.23448" lon="1.77194">
        <ele>218.36</ele>
        <time>2021-08-17T14:21:59Z</time>
      </trkpt>
      <trkpt lat="44.2343" lon="1.77151">
        <ele>217.4</ele>
        <time>2021-08-17T14:22:06Z</time>
      </trkpt>
      <trkpt lat="44.23424" lon="1.77141">
        <ele>216.43</ele>
        <time>2021-08-17T14:22:08Z</time>
      </trkpt>
      <trkpt lat="44.2342" lon="1.77138">
        <ele>216.43</ele>
        <time>2021-08-17T14:22:09Z</time>
      </trkpt>
      <trkpt lat="44.23417" lon="1.77134">
        <ele>215.95</ele>
        <time>2021-08-17T14:22:10Z</time>
      </trkpt>
      <trkpt lat="44.23415" lon="1.77131">
        <ele>215.95</ele>
        <time>2021-08-17T14:22:11Z</time>
      </trkpt>
      <trkpt lat="44.23413" lon="1.77129">
        <ele>215.95</ele>
        <time>2021-08-17T14:22:12Z</time>
      </trkpt>
      <trkpt lat="44.23408" lon="1.7712">
        <ele>215.95</ele>
        <time>2021-08-17T14:22:15Z</time>
      </trkpt>
      <trkpt lat="44.23405" lon="1.77106">
        <ele>214.51</ele>
        <time>2021-08-17T14:22:19Z</time>
      </trkpt>
      <trkpt lat="44.23406" lon="1.77103">
        <ele>214.51</ele>
        <time>2021-08-17T14:22:23Z</time>
      </trkpt>
      <trkpt lat="44.23405" lon="1.77102">
        <ele>215.95</ele>
        <time>2021-08-17T14:22:29Z</time>
      </trkpt>
      <trkpt lat="44.23402" lon="1.77099">
        <ele>215.95</ele>
        <time>2021-08-17T14:22:46Z</time>
      </trkpt>
      <trkpt lat="44.23399" lon="1.77098">
        <ele>215.95</ele>
        <time>2021-08-17T14:23:00Z</time>
      </trkpt>
      <trkpt lat="44.23399" lon="1.77098">
        <ele>215.95</ele>
        <time>2021-08-17T14:23:16Z</time>
      </trkpt>
      <trkpt lat="44.23401" lon="1.77098">
        <ele>215.95</ele>
        <time>2021-08-17T14:23:29Z</time>
      </trkpt>
      <trkpt lat="44.23401" lon="1.771">
        <ele>215.95</ele>
        <time>2021-08-17T14:23:39Z</time>
      </trkpt>
      <trkpt lat="44.23401" lon="1.77102">
        <ele>215.95</ele>
        <time>2021-08-17T14:23:40Z</time>
      </trkpt>
      <trkpt lat="44.234" lon="1.77104">
        <ele>215.95</ele>
        <time>2021-08-17T14:23:41Z</time>
      </trkpt>
      <trkpt lat="44.234" lon="1.77106">
        <ele>215.95</ele>
        <time>2021-08-17T14:23:42Z</time>
      </trkpt>
      <trkpt lat="44.234" lon="1.7711">
        <ele>215.95</ele>
        <time>2021-08-17T14:23:47Z</time>
      </trkpt>
      <trkpt lat="44.23399" lon="1.77116">
        <ele>215.95</ele>
        <time>2021-08-17T14:23:51Z</time>
      </trkpt>
      <trkpt lat="44.23397" lon="1.77118">
        <ele>215.95</ele>
        <time>2021-08-17T14:23:53Z</time>
      </trkpt>
      <trkpt lat="44.23396" lon="1.77119">
        <ele>215.95</ele>
        <time>2021-08-17T14:23:54Z</time>
      </trkpt>
      <trkpt lat="44.23395" lon="1.77121">
        <ele>215.95</ele>
        <time>2021-08-17T14:23:55Z</time>
      </trkpt>
      <trkpt lat="44.23393" lon="1.77121">
        <ele>215.95</ele>
        <time>2021-08-17T14:23:56Z</time>
      </trkpt>
      <trkpt lat="44.23391" lon="1.77122">
        <ele>215.95</ele>
        <time>2021-08-17T14:23:57Z</time>
      </trkpt>
      <trkpt lat="44.23369" lon="1.7713">
        <ele>215.95</ele>
        <time>2021-08-17T14:24:04Z</time>
      </trkpt>
      <trkpt lat="44.23359" lon="1.77142">
        <ele>215.95</ele>
        <time>2021-08-17T14:24:07Z</time>
      </trkpt>
      <trkpt lat="44.23353" lon="1.77152">
        <ele>215.95</ele>
        <time>2021-08-17T14:24:09Z</time>
      </trkpt>
      <trkpt lat="44.23351" lon="1.77158">
        <ele>214.51</ele>
        <time>2021-08-17T14:24:10Z</time>
      </trkpt>
      <trkpt lat="44.23349" lon="1.77164">
        <ele>214.51</ele>
        <time>2021-08-17T14:24:11Z</time>
      </trkpt>
      <trkpt lat="44.23347" lon="1.77172">
        <ele>214.51</ele>
        <time>2021-08-17T14:24:12Z</time>
      </trkpt>
      <trkpt lat="44.23345" lon="1.77179">
        <ele>214.03</ele>
        <time>2021-08-17T14:24:13Z</time>
      </trkpt>
      <trkpt lat="44.23344" lon="1.77186">
        <ele>214.03</ele>
        <time>2021-08-17T14:24:14Z</time>
      </trkpt>
      <trkpt lat="44.23343" lon="1.77193">
        <ele>214.03</ele>
        <time>2021-08-17T14:24:15Z</time>
      </trkpt>
      <trkpt lat="44.23343" lon="1.77201">
        <ele>213.55</ele>
        <time>2021-08-17T14:24:16Z</time>
      </trkpt>
      <trkpt lat="44.2334" lon="1.77264">
        <ele>212.11</ele>
        <time>2021-08-17T14:24:23Z</time>
      </trkpt>
      <trkpt lat="44.23334" lon="1.77325">
        <ele>211.63</ele>
        <time>2021-08-17T14:24:30Z</time>
      </trkpt>
      <trkpt lat="44.23325" lon="1.77376">
        <ele>210.67</ele>
        <time>2021-08-17T14:24:36Z</time>
      </trkpt>
      <trkpt lat="44.23322" lon="1.77393">
        <ele>210.19</ele>
        <time>2021-08-17T14:24:38Z</time>
      </trkpt>
      <trkpt lat="44.2332" lon="1.77401">
        <ele>210.19</ele>
        <time>2021-08-17T14:24:39Z</time>
      </trkpt>
      <trkpt lat="44.23314" lon="1.77446">
        <ele>208.26</ele>
        <time>2021-08-17T14:24:44Z</time>
      </trkpt>
      <trkpt lat="44.23311" lon="1.77455">
        <ele>208.26</ele>
        <time>2021-08-17T14:24:45Z</time>
      </trkpt>
      <trkpt lat="44.23309" lon="1.77465">
        <ele>208.26</ele>
        <time>2021-08-17T14:24:46Z</time>
      </trkpt>
      <trkpt lat="44.23297" lon="1.77518">
        <ele>207.3</ele>
        <time>2021-08-17T14:24:52Z</time>
      </trkpt>
      <trkpt lat="44.23295" lon="1.77524">
        <ele>207.3</ele>
        <time>2021-08-17T14:24:53Z</time>
      </trkpt>
      <trkpt lat="44.23293" lon="1.77529">
        <ele>207.3</ele>
        <time>2021-08-17T14:24:54Z</time>
      </trkpt>
      <trkpt lat="44.23288" lon="1.77537">
        <ele>208.74</ele>
        <time>2021-08-17T14:24:58Z</time>
      </trkpt>
      <trkpt lat="44.23284" lon="1.77543">
        <ele>210.19</ele>
        <time>2021-08-17T14:25:05Z</time>
      </trkpt>
      <trkpt lat="44.2328" lon="1.77549">
        <ele>211.63</ele>
        <time>2021-08-17T14:25:14Z</time>
      </trkpt>
      <trkpt lat="44.23275" lon="1.77557">
        <ele>212.59</ele>
        <time>2021-08-17T14:25:23Z</time>
      </trkpt>
      <trkpt lat="44.23268" lon="1.77566">
        <ele>214.51</ele>
        <time>2021-08-17T14:25:33Z</time>
      </trkpt>
      <trkpt lat="44.23261" lon="1.77575">
        <ele>215.95</ele>
        <time>2021-08-17T14:25:43Z</time>
      </trkpt>
      <trkpt lat="44.23257" lon="1.77583">
        <ele>217.4</ele>
        <time>2021-08-17T14:25:51Z</time>
      </trkpt>
      <trkpt lat="44.23254" lon="1.77591">
        <ele>217.88</ele>
        <time>2021-08-17T14:25:58Z</time>
      </trkpt>
      <trkpt lat="44.23249" lon="1.77602">
        <ele>218.84</ele>
        <time>2021-08-17T14:26:06Z</time>
      </trkpt>
      <trkpt lat="44.23243" lon="1.77608">
        <ele>220.76</ele>
        <time>2021-08-17T14:26:16Z</time>
      </trkpt>
      <trkpt lat="44.23234" lon="1.77615">
        <ele>222.2</ele>
        <time>2021-08-17T14:26:25Z</time>
      </trkpt>
      <trkpt lat="44.23227" lon="1.77619">
        <ele>223.16</ele>
        <time>2021-08-17T14:26:34Z</time>
      </trkpt>
      <trkpt lat="44.23218" lon="1.77623">
        <ele>224.12</ele>
        <time>2021-08-17T14:26:44Z</time>
      </trkpt>
      <trkpt lat="44.23212" lon="1.77627">
        <ele>224.61</ele>
        <time>2021-08-17T14:26:50Z</time>
      </trkpt>
      <trkpt lat="44.23207" lon="1.77629">
        <ele>226.05</ele>
        <time>2021-08-17T14:26:58Z</time>
      </trkpt>
      <trkpt lat="44.23203" lon="1.77631">
        <ele>226.05</ele>
        <time>2021-08-17T14:27:06Z</time>
      </trkpt>
      <trkpt lat="44.23203" lon="1.77631">
        <ele>225.57</ele>
        <time>2021-08-17T14:27:16Z</time>
      </trkpt>
      <trkpt lat="44.23202" lon="1.7763">
        <ele>225.57</ele>
        <time>2021-08-17T14:27:25Z</time>
      </trkpt>
      <trkpt lat="44.23202" lon="1.77632">
        <ele>225.57</ele>
        <time>2021-08-17T14:27:40Z</time>
      </trkpt>
      <trkpt lat="44.23195" lon="1.77636">
        <ele>227.01</ele>
        <time>2021-08-17T14:27:47Z</time>
      </trkpt>
      <trkpt lat="44.23187" lon="1.77645">
        <ele>227.49</ele>
        <time>2021-08-17T14:27:55Z</time>
      </trkpt>
      <trkpt lat="44.23182" lon="1.77652">
        <ele>228.45</ele>
        <time>2021-08-17T14:28:02Z</time>
      </trkpt>
      <trkpt lat="44.23179" lon="1.77658">
        <ele>228.93</ele>
        <time>2021-08-17T14:28:10Z</time>
      </trkpt>
      <trkpt lat="44.23172" lon="1.7767">
        <ele>229.41</ele>
        <time>2021-08-17T14:28:16Z</time>
      </trkpt>
      <trkpt lat="44.23165" lon="1.77686">
        <ele>230.85</ele>
        <time>2021-08-17T14:28:24Z</time>
      </trkpt>
      <trkpt lat="44.23156" lon="1.77701">
        <ele>230.85</ele>
        <time>2021-08-17T14:28:31Z</time>
      </trkpt>
      <trkpt lat="44.23146" lon="1.77719">
        <ele>231.33</ele>
        <time>2021-08-17T14:28:39Z</time>
      </trkpt>
      <trkpt lat="44.23135" lon="1.77735">
        <ele>231.33</ele>
        <time>2021-08-17T14:28:46Z</time>
      </trkpt>
      <trkpt lat="44.2312" lon="1.77756">
        <ele>229.89</ele>
        <time>2021-08-17T14:28:53Z</time>
      </trkpt>
      <trkpt lat="44.23111" lon="1.7777">
        <ele>228.45</ele>
        <time>2021-08-17T14:28:56Z</time>
      </trkpt>
      <trkpt lat="44.23092" lon="1.7778">
        <ele>228.45</ele>
        <time>2021-08-17T14:29:01Z</time>
      </trkpt>
      <trkpt lat="44.23085" lon="1.77784">
        <ele>229.89</ele>
        <time>2021-08-17T14:29:04Z</time>
      </trkpt>
      <trkpt lat="44.23072" lon="1.77788">
        <ele>232.3</ele>
        <time>2021-08-17T14:29:12Z</time>
      </trkpt>
      <trkpt lat="44.23068" lon="1.7779">
        <ele>232.3</ele>
        <time>2021-08-17T14:29:15Z</time>
      </trkpt>
      <trkpt lat="44.2305" lon="1.77794">
        <ele>232.3</ele>
        <time>2021-08-17T14:29:24Z</time>
      </trkpt>
      <trkpt lat="44.23032" lon="1.77789">
        <ele>232.3</ele>
        <time>2021-08-17T14:29:31Z</time>
      </trkpt>
      <trkpt lat="44.23015" lon="1.77787">
        <ele>232.3</ele>
        <time>2021-08-17T14:29:36Z</time>
      </trkpt>
      <trkpt lat="44.22989" lon="1.77786">
        <ele>230.37</ele>
        <time>2021-08-17T14:29:43Z</time>
      </trkpt>
      <trkpt lat="44.22975" lon="1.77786">
        <ele>228.93</ele>
        <time>2021-08-17T14:29:46Z</time>
      </trkpt>
      <trkpt lat="44.2297" lon="1.77785">
        <ele>228.93</ele>
        <time>2021-08-17T14:29:47Z</time>
      </trkpt>
      <trkpt lat="44.22964" lon="1.77784">
        <ele>228.93</ele>
        <time>2021-08-17T14:29:48Z</time>
      </trkpt>
      <trkpt lat="44.22949" lon="1.7778">
        <ele>228.45</ele>
        <time>2021-08-17T14:29:51Z</time>
      </trkpt>
      <trkpt lat="44.22944" lon="1.7778">
        <ele>228.45</ele>
        <time>2021-08-17T14:29:52Z</time>
      </trkpt>
      <trkpt lat="44.2294" lon="1.7778">
        <ele>228.45</ele>
        <time>2021-08-17T14:29:53Z</time>
      </trkpt>
      <trkpt lat="44.22936" lon="1.77778">
        <ele>228.45</ele>
        <time>2021-08-17T14:29:54Z</time>
      </trkpt>
      <trkpt lat="44.22932" lon="1.77777">
        <ele>228.45</ele>
        <time>2021-08-17T14:29:55Z</time>
      </trkpt>
      <trkpt lat="44.22911" lon="1.77769">
        <ele>228.45</ele>
        <time>2021-08-17T14:30:01Z</time>
      </trkpt>
      <trkpt lat="44.22894" lon="1.77757">
        <ele>229.89</ele>
        <time>2021-08-17T14:30:07Z</time>
      </trkpt>
      <trkpt lat="44.22873" lon="1.77751">
        <ele>228.45</ele>
        <time>2021-08-17T14:30:13Z</time>
      </trkpt>
      <trkpt lat="44.22871" lon="1.77752">
        <ele>228.45</ele>
        <time>2021-08-17T14:30:14Z</time>
      </trkpt>
      <trkpt lat="44.2286" lon="1.77758">
        <ele>226.05</ele>
        <time>2021-08-17T14:30:21Z</time>
      </trkpt>
      <trkpt lat="44.22848" lon="1.77762">
        <ele>225.57</ele>
        <time>2021-08-17T14:30:26Z</time>
      </trkpt>
      <trkpt lat="44.2284" lon="1.77758">
        <ele>225.09</ele>
        <time>2021-08-17T14:30:29Z</time>
      </trkpt>
      <trkpt lat="44.22838" lon="1.77755">
        <ele>225.09</ele>
        <time>2021-08-17T14:30:30Z</time>
      </trkpt>
      <trkpt lat="44.22836" lon="1.77751">
        <ele>225.57</ele>
        <time>2021-08-17T14:30:31Z</time>
      </trkpt>
      <trkpt lat="44.22834" lon="1.77747">
        <ele>225.57</ele>
        <time>2021-08-17T14:30:32Z</time>
      </trkpt>
      <trkpt lat="44.22832" lon="1.77743">
        <ele>226.53</ele>
        <time>2021-08-17T14:30:33Z</time>
      </trkpt>
      <trkpt lat="44.2283" lon="1.7774">
        <ele>227.01</ele>
        <time>2021-08-17T14:30:34Z</time>
      </trkpt>
      <trkpt lat="44.22827" lon="1.77739">
        <ele>227.01</ele>
        <time>2021-08-17T14:30:35Z</time>
      </trkpt>
      <trkpt lat="44.22825" lon="1.77738">
        <ele>227.97</ele>
        <time>2021-08-17T14:30:36Z</time>
      </trkpt>
      <trkpt lat="44.22816" lon="1.77729">
        <ele>229.41</ele>
        <time>2021-08-17T14:30:44Z</time>
      </trkpt>
      <trkpt lat="44.22811" lon="1.77719">
        <ele>230.85</ele>
        <time>2021-08-17T14:30:54Z</time>
      </trkpt>
      <trkpt lat="44.22804" lon="1.77712">
        <ele>231.81</ele>
        <time>2021-08-17T14:31:02Z</time>
      </trkpt>
      <trkpt lat="44.22798" lon="1.777">
        <ele>233.26</ele>
        <time>2021-08-17T14:31:13Z</time>
      </trkpt>
      <trkpt lat="44.22792" lon="1.77693">
        <ele>234.7</ele>
        <time>2021-08-17T14:31:20Z</time>
      </trkpt>
      <trkpt lat="44.22791" lon="1.77692">
        <ele>234.7</ele>
        <time>2021-08-17T14:31:21Z</time>
      </trkpt>
      <trkpt lat="44.22786" lon="1.77686">
        <ele>235.18</ele>
        <time>2021-08-17T14:31:29Z</time>
      </trkpt>
      <trkpt lat="44.22774" lon="1.77684">
        <ele>235.18</ele>
        <time>2021-08-17T14:31:36Z</time>
      </trkpt>
      <trkpt lat="44.22756" lon="1.77682">
        <ele>233.26</ele>
        <time>2021-08-17T14:31:42Z</time>
      </trkpt>
      <trkpt lat="44.22745" lon="1.77674">
        <ele>232.78</ele>
        <time>2021-08-17T14:31:45Z</time>
      </trkpt>
      <trkpt lat="44.22742" lon="1.7767">
        <ele>232.78</ele>
        <time>2021-08-17T14:31:46Z</time>
      </trkpt>
      <trkpt lat="44.22739" lon="1.77666">
        <ele>232.3</ele>
        <time>2021-08-17T14:31:47Z</time>
      </trkpt>
      <trkpt lat="44.22732" lon="1.77657">
        <ele>232.3</ele>
        <time>2021-08-17T14:31:49Z</time>
      </trkpt>
      <trkpt lat="44.22713" lon="1.77633">
        <ele>232.3</ele>
        <time>2021-08-17T14:31:56Z</time>
      </trkpt>
      <trkpt lat="44.22691" lon="1.77608">
        <ele>233.26</ele>
        <time>2021-08-17T14:32:04Z</time>
      </trkpt>
      <trkpt lat="44.22682" lon="1.77593">
        <ele>235.18</ele>
        <time>2021-08-17T14:32:10Z</time>
      </trkpt>
      <trkpt lat="44.2267" lon="1.77579">
        <ele>236.62</ele>
        <time>2021-08-17T14:32:18Z</time>
      </trkpt>
      <trkpt lat="44.22664" lon="1.77572">
        <ele>237.58</ele>
        <time>2021-08-17T14:32:27Z</time>
      </trkpt>
      <trkpt lat="44.22659" lon="1.77565">
        <ele>239.02</ele>
        <time>2021-08-17T14:32:36Z</time>
      </trkpt>
      <trkpt lat="44.22653" lon="1.77558">
        <ele>239.99</ele>
        <time>2021-08-17T14:32:45Z</time>
      </trkpt>
      <trkpt lat="44.2265" lon="1.77551">
        <ele>241.43</ele>
        <time>2021-08-17T14:32:52Z</time>
      </trkpt>
      <trkpt lat="44.22646" lon="1.77544">
        <ele>242.39</ele>
        <time>2021-08-17T14:33:00Z</time>
      </trkpt>
      <trkpt lat="44.22642" lon="1.77531">
        <ele>244.79</ele>
        <time>2021-08-17T14:33:11Z</time>
      </trkpt>
      <trkpt lat="44.2264" lon="1.77524">
        <ele>245.27</ele>
        <time>2021-08-17T14:33:20Z</time>
      </trkpt>
      <trkpt lat="44.22638" lon="1.7752">
        <ele>245.27</ele>
        <time>2021-08-17T14:33:23Z</time>
      </trkpt>
      <trkpt lat="44.22638" lon="1.77518">
        <ele>245.75</ele>
        <time>2021-08-17T14:33:24Z</time>
      </trkpt>
      <trkpt lat="44.22637" lon="1.77516">
        <ele>246.23</ele>
        <time>2021-08-17T14:33:25Z</time>
      </trkpt>
      <trkpt lat="44.22637" lon="1.77514">
        <ele>246.23</ele>
        <time>2021-08-17T14:33:26Z</time>
      </trkpt>
      <trkpt lat="44.22637" lon="1.77512">
        <ele>246.72</ele>
        <time>2021-08-17T14:33:27Z</time>
      </trkpt>
      <trkpt lat="44.22636" lon="1.775">
        <ele>248.16</ele>
        <time>2021-08-17T14:33:35Z</time>
      </trkpt>
      <trkpt lat="44.22632" lon="1.77488">
        <ele>249.12</ele>
        <time>2021-08-17T14:33:42Z</time>
      </trkpt>
      <trkpt lat="44.22627" lon="1.77475">
        <ele>249.6</ele>
        <time>2021-08-17T14:33:48Z</time>
      </trkpt>
      <trkpt lat="44.22615" lon="1.77455">
        <ele>251.04</ele>
        <time>2021-08-17T14:33:57Z</time>
      </trkpt>
      <trkpt lat="44.22613" lon="1.77447">
        <ele>251.52</ele>
        <time>2021-08-17T14:34:03Z</time>
      </trkpt>
      <trkpt lat="44.22611" lon="1.77441">
        <ele>252.48</ele>
        <time>2021-08-17T14:34:14Z</time>
      </trkpt>
      <trkpt lat="44.2261" lon="1.77435">
        <ele>253.93</ele>
        <time>2021-08-17T14:34:24Z</time>
      </trkpt>
      <trkpt lat="44.2261" lon="1.77428">
        <ele>255.37</ele>
        <time>2021-08-17T14:34:33Z</time>
      </trkpt>
      <trkpt lat="44.2261" lon="1.77419">
        <ele>257.29</ele>
        <time>2021-08-17T14:34:42Z</time>
      </trkpt>
      <trkpt lat="44.22609" lon="1.77412">
        <ele>258.73</ele>
        <time>2021-08-17T14:34:51Z</time>
      </trkpt>
      <trkpt lat="44.22609" lon="1.77404">
        <ele>260.17</ele>
        <time>2021-08-17T14:35:02Z</time>
      </trkpt>
      <trkpt lat="44.22605" lon="1.77393">
        <ele>261.14</ele>
        <time>2021-08-17T14:35:11Z</time>
      </trkpt>
      <trkpt lat="44.22602" lon="1.77383">
        <ele>262.58</ele>
        <time>2021-08-17T14:35:20Z</time>
      </trkpt>
      <trkpt lat="44.22599" lon="1.77375">
        <ele>264.02</ele>
        <time>2021-08-17T14:35:29Z</time>
      </trkpt>
      <trkpt lat="44.22599" lon="1.77365">
        <ele>266.42</ele>
        <time>2021-08-17T14:35:39Z</time>
      </trkpt>
      <trkpt lat="44.22598" lon="1.77357">
        <ele>266.9</ele>
        <time>2021-08-17T14:35:45Z</time>
      </trkpt>
      <trkpt lat="44.22599" lon="1.77355">
        <ele>267.38</ele>
        <time>2021-08-17T14:35:46Z</time>
      </trkpt>
      <trkpt lat="44.22598" lon="1.77349">
        <ele>268.35</ele>
        <time>2021-08-17T14:35:52Z</time>
      </trkpt>
      <trkpt lat="44.22596" lon="1.77343">
        <ele>269.31</ele>
        <time>2021-08-17T14:36:00Z</time>
      </trkpt>
      <trkpt lat="44.22595" lon="1.77339">
        <ele>270.27</ele>
        <time>2021-08-17T14:36:06Z</time>
      </trkpt>
      <trkpt lat="44.22595" lon="1.77333">
        <ele>271.71</ele>
        <time>2021-08-17T14:36:14Z</time>
      </trkpt>
      <trkpt lat="44.22594" lon="1.77329">
        <ele>271.71</ele>
        <time>2021-08-17T14:36:21Z</time>
      </trkpt>
      <trkpt lat="44.22594" lon="1.77328">
        <ele>271.71</ele>
        <time>2021-08-17T14:36:22Z</time>
      </trkpt>
      <trkpt lat="44.22593" lon="1.77326">
        <ele>271.71</ele>
        <time>2021-08-17T14:36:23Z</time>
      </trkpt>
      <trkpt lat="44.22593" lon="1.77324">
        <ele>271.71</ele>
        <time>2021-08-17T14:36:24Z</time>
      </trkpt>
      <trkpt lat="44.22592" lon="1.77322">
        <ele>271.71</ele>
        <time>2021-08-17T14:36:25Z</time>
      </trkpt>
      <trkpt lat="44.22591" lon="1.7732">
        <ele>271.71</ele>
        <time>2021-08-17T14:36:26Z</time>
      </trkpt>
      <trkpt lat="44.22591" lon="1.77318">
        <ele>271.71</ele>
        <time>2021-08-17T14:36:27Z</time>
      </trkpt>
      <trkpt lat="44.22584" lon="1.77301">
        <ele>271.71</ele>
        <time>2021-08-17T14:36:34Z</time>
      </trkpt>
      <trkpt lat="44.22578" lon="1.77279">
        <ele>270.27</ele>
        <time>2021-08-17T14:36:40Z</time>
      </trkpt>
      <trkpt lat="44.22575" lon="1.77257">
        <ele>270.27</ele>
        <time>2021-08-17T14:36:47Z</time>
      </trkpt>
      <trkpt lat="44.2257" lon="1.77225">
        <ele>269.79</ele>
        <time>2021-08-17T14:36:55Z</time>
      </trkpt>
      <trkpt lat="44.22569" lon="1.77197">
        <ele>269.79</ele>
        <time>2021-08-17T14:37:00Z</time>
      </trkpt>
      <trkpt lat="44.22567" lon="1.77162">
        <ele>271.23</ele>
        <time>2021-08-17T14:37:07Z</time>
      </trkpt>
      <trkpt lat="44.22563" lon="1.77136">
        <ele>271.71</ele>
        <time>2021-08-17T14:37:13Z</time>
      </trkpt>
      <trkpt lat="44.22558" lon="1.771">
        <ele>271.71</ele>
        <time>2021-08-17T14:37:20Z</time>
      </trkpt>
      <trkpt lat="44.22558" lon="1.77074">
        <ele>272.19</ele>
        <time>2021-08-17T14:37:27Z</time>
      </trkpt>
      <trkpt lat="44.22559" lon="1.77063">
        <ele>274.11</ele>
        <time>2021-08-17T14:37:33Z</time>
      </trkpt>
      <trkpt lat="44.22558" lon="1.77047">
        <ele>274.59</ele>
        <time>2021-08-17T14:37:41Z</time>
      </trkpt>
      <trkpt lat="44.2256" lon="1.77031">
        <ele>275.56</ele>
        <time>2021-08-17T14:37:49Z</time>
      </trkpt>
      <trkpt lat="44.22562" lon="1.7702">
        <ele>277.48</ele>
        <time>2021-08-17T14:37:56Z</time>
      </trkpt>
      <trkpt lat="44.22562" lon="1.76998">
        <ele>279.4</ele>
        <time>2021-08-17T14:38:05Z</time>
      </trkpt>
      <trkpt lat="44.22565" lon="1.76975">
        <ele>280.36</ele>
        <time>2021-08-17T14:38:14Z</time>
      </trkpt>
      <trkpt lat="44.22567" lon="1.76957">
        <ele>281.8</ele>
        <time>2021-08-17T14:38:23Z</time>
      </trkpt>
      <trkpt lat="44.22569" lon="1.76943">
        <ele>282.28</ele>
        <time>2021-08-17T14:38:28Z</time>
      </trkpt>
      <trkpt lat="44.2257" lon="1.76941">
        <ele>282.28</ele>
        <time>2021-08-17T14:38:29Z</time>
      </trkpt>
      <trkpt lat="44.22569" lon="1.76929">
        <ele>282.28</ele>
        <time>2021-08-17T14:38:32Z</time>
      </trkpt>
      <trkpt lat="44.22567" lon="1.76925">
        <ele>282.28</ele>
        <time>2021-08-17T14:38:33Z</time>
      </trkpt>
      <trkpt lat="44.22565" lon="1.76913">
        <ele>279.4</ele>
        <time>2021-08-17T14:38:35Z</time>
      </trkpt>
      <trkpt lat="44.22564" lon="1.76897">
        <ele>278.92</ele>
        <time>2021-08-17T14:38:37Z</time>
      </trkpt>
      <trkpt lat="44.22565" lon="1.76888">
        <ele>278.44</ele>
        <time>2021-08-17T14:38:38Z</time>
      </trkpt>
      <trkpt lat="44.22566" lon="1.76881">
        <ele>278.44</ele>
        <time>2021-08-17T14:38:39Z</time>
      </trkpt>
      <trkpt lat="44.22567" lon="1.76874">
        <ele>278.44</ele>
        <time>2021-08-17T14:38:40Z</time>
      </trkpt>
      <trkpt lat="44.22569" lon="1.76869">
        <ele>278.44</ele>
        <time>2021-08-17T14:38:41Z</time>
      </trkpt>
      <trkpt lat="44.2257" lon="1.76865">
        <ele>279.4</ele>
        <time>2021-08-17T14:38:42Z</time>
      </trkpt>
      <trkpt lat="44.22571" lon="1.76862">
        <ele>279.4</ele>
        <time>2021-08-17T14:38:43Z</time>
      </trkpt>
      <trkpt lat="44.22574" lon="1.76851">
        <ele>281.32</ele>
        <time>2021-08-17T14:38:49Z</time>
      </trkpt>
      <trkpt lat="44.22574" lon="1.76847">
        <ele>281.32</ele>
        <time>2021-08-17T14:38:51Z</time>
      </trkpt>
      <trkpt lat="44.22575" lon="1.76845">
        <ele>281.8</ele>
        <time>2021-08-17T14:38:52Z</time>
      </trkpt>
      <trkpt lat="44.22575" lon="1.76843">
        <ele>281.8</ele>
        <time>2021-08-17T14:38:53Z</time>
      </trkpt>
      <trkpt lat="44.22576" lon="1.76841">
        <ele>282.28</ele>
        <time>2021-08-17T14:38:54Z</time>
      </trkpt>
      <trkpt lat="44.2258" lon="1.76826">
        <ele>284.21</ele>
        <time>2021-08-17T14:39:02Z</time>
      </trkpt>
      <trkpt lat="44.2258" lon="1.76823">
        <ele>284.21</ele>
        <time>2021-08-17T14:39:03Z</time>
      </trkpt>
      <trkpt lat="44.22579" lon="1.76822">
        <ele>284.21</ele>
        <time>2021-08-17T14:39:04Z</time>
      </trkpt>
      <trkpt lat="44.22574" lon="1.76818">
        <ele>284.69</ele>
        <time>2021-08-17T14:39:08Z</time>
      </trkpt>
      <trkpt lat="44.22573" lon="1.76819">
        <ele>284.69</ele>
        <time>2021-08-17T14:39:09Z</time>
      </trkpt>
      <trkpt lat="44.22572" lon="1.76821">
        <ele>284.21</ele>
        <time>2021-08-17T14:39:10Z</time>
      </trkpt>
      <trkpt lat="44.22562" lon="1.76832">
        <ele>283.25</ele>
        <time>2021-08-17T14:39:14Z</time>
      </trkpt>
      <trkpt lat="44.22547" lon="1.76846">
        <ele>282.77</ele>
        <time>2021-08-17T14:39:20Z</time>
      </trkpt>
      <trkpt lat="44.22544" lon="1.76849">
        <ele>284.21</ele>
        <time>2021-08-17T14:39:22Z</time>
      </trkpt>
      <trkpt lat="44.22537" lon="1.76857">
        <ele>285.17</ele>
        <time>2021-08-17T14:39:27Z</time>
      </trkpt>
      <trkpt lat="44.22535" lon="1.76858">
        <ele>285.17</ele>
        <time>2021-08-17T14:39:28Z</time>
      </trkpt>
      <trkpt lat="44.22534" lon="1.76859">
        <ele>285.65</ele>
        <time>2021-08-17T14:39:29Z</time>
      </trkpt>
      <trkpt lat="44.22532" lon="1.7686">
        <ele>285.65</ele>
        <time>2021-08-17T14:39:30Z</time>
      </trkpt>
      <trkpt lat="44.22531" lon="1.76862">
        <ele>286.13</ele>
        <time>2021-08-17T14:39:31Z</time>
      </trkpt>
      <trkpt lat="44.22526" lon="1.76868">
        <ele>287.09</ele>
        <time>2021-08-17T14:39:37Z</time>
      </trkpt>
      <trkpt lat="44.2252" lon="1.76877">
        <ele>288.53</ele>
        <time>2021-08-17T14:39:45Z</time>
      </trkpt>
      <trkpt lat="44.2251" lon="1.76886">
        <ele>289.97</ele>
        <time>2021-08-17T14:39:53Z</time>
      </trkpt>
      <trkpt lat="44.22502" lon="1.76894">
        <ele>291.42</ele>
        <time>2021-08-17T14:40:00Z</time>
      </trkpt>
      <trkpt lat="44.22496" lon="1.769">
        <ele>291.9</ele>
        <time>2021-08-17T14:40:05Z</time>
      </trkpt>
      <trkpt lat="44.22482" lon="1.76911">
        <ele>292.38</ele>
        <time>2021-08-17T14:40:15Z</time>
      </trkpt>
      <trkpt lat="44.22473" lon="1.76924">
        <ele>293.82</ele>
        <time>2021-08-17T14:40:22Z</time>
      </trkpt>
      <trkpt lat="44.22469" lon="1.76933">
        <ele>294.3</ele>
        <time>2021-08-17T14:40:28Z</time>
      </trkpt>
      <trkpt lat="44.22461" lon="1.76941">
        <ele>295.26</ele>
        <time>2021-08-17T14:40:37Z</time>
      </trkpt>
      <trkpt lat="44.22456" lon="1.76947">
        <ele>296.7</ele>
        <time>2021-08-17T14:40:44Z</time>
      </trkpt>
      <trkpt lat="44.22453" lon="1.76951">
        <ele>297.18</ele>
        <time>2021-08-17T14:40:51Z</time>
      </trkpt>
      <trkpt lat="44.22446" lon="1.76958">
        <ele>299.11</ele>
        <time>2021-08-17T14:41:01Z</time>
      </trkpt>
      <trkpt lat="44.22439" lon="1.76965">
        <ele>300.07</ele>
        <time>2021-08-17T14:41:10Z</time>
      </trkpt>
      <trkpt lat="44.22436" lon="1.76966">
        <ele>300.55</ele>
        <time>2021-08-17T14:41:19Z</time>
      </trkpt>
      <trkpt lat="44.22434" lon="1.76966">
        <ele>300.55</ele>
        <time>2021-08-17T14:41:32Z</time>
      </trkpt>
      <trkpt lat="44.22434" lon="1.76967">
        <ele>300.55</ele>
        <time>2021-08-17T14:41:46Z</time>
      </trkpt>
      <trkpt lat="44.22434" lon="1.76968">
        <ele>300.55</ele>
        <time>2021-08-17T14:42:00Z</time>
      </trkpt>
      <trkpt lat="44.22431" lon="1.7697">
        <ele>300.55</ele>
        <time>2021-08-17T14:42:20Z</time>
      </trkpt>
      <trkpt lat="44.22431" lon="1.7697">
        <ele>300.55</ele>
        <time>2021-08-17T14:42:41Z</time>
      </trkpt>
      <trkpt lat="44.22429" lon="1.76973">
        <ele>300.55</ele>
        <time>2021-08-17T14:42:50Z</time>
      </trkpt>
      <trkpt lat="44.22427" lon="1.76974">
        <ele>301.03</ele>
        <time>2021-08-17T14:42:56Z</time>
      </trkpt>
      <trkpt lat="44.22425" lon="1.76977">
        <ele>301.51</ele>
        <time>2021-08-17T14:43:00Z</time>
      </trkpt>
      <trkpt lat="44.22416" lon="1.76984">
        <ele>303.43</ele>
        <time>2021-08-17T14:43:09Z</time>
      </trkpt>
      <trkpt lat="44.22409" lon="1.7699">
        <ele>304.88</ele>
        <time>2021-08-17T14:43:16Z</time>
      </trkpt>
      <trkpt lat="44.22398" lon="1.76997">
        <ele>305.84</ele>
        <time>2021-08-17T14:43:24Z</time>
      </trkpt>
      <trkpt lat="44.22388" lon="1.77001">
        <ele>306.8</ele>
        <time>2021-08-17T14:43:31Z</time>
      </trkpt>
      <trkpt lat="44.22379" lon="1.77005">
        <ele>307.76</ele>
        <time>2021-08-17T14:43:37Z</time>
      </trkpt>
      <trkpt lat="44.22375" lon="1.77007">
        <ele>307.76</ele>
        <time>2021-08-17T14:43:39Z</time>
      </trkpt>
      <trkpt lat="44.22373" lon="1.77008">
        <ele>307.76</ele>
        <time>2021-08-17T14:43:40Z</time>
      </trkpt>
      <trkpt lat="44.22371" lon="1.77009">
        <ele>307.76</ele>
        <time>2021-08-17T14:43:41Z</time>
      </trkpt>
      <trkpt lat="44.2237" lon="1.77009">
        <ele>308.72</ele>
        <time>2021-08-17T14:43:42Z</time>
      </trkpt>
      <trkpt lat="44.22369" lon="1.7701">
        <ele>308.72</ele>
        <time>2021-08-17T14:43:43Z</time>
      </trkpt>
      <trkpt lat="44.22367" lon="1.77011">
        <ele>308.72</ele>
        <time>2021-08-17T14:43:44Z</time>
      </trkpt>
      <trkpt lat="44.22365" lon="1.77012">
        <ele>308.72</ele>
        <time>2021-08-17T14:43:45Z</time>
      </trkpt>
      <trkpt lat="44.22364" lon="1.77012">
        <ele>308.72</ele>
        <time>2021-08-17T14:43:46Z</time>
      </trkpt>
      <trkpt lat="44.22362" lon="1.77013">
        <ele>308.72</ele>
        <time>2021-08-17T14:43:47Z</time>
      </trkpt>
      <trkpt lat="44.22361" lon="1.77014">
        <ele>309.68</ele>
        <time>2021-08-17T14:43:48Z</time>
      </trkpt>
      <trkpt lat="44.22359" lon="1.77014">
        <ele>309.68</ele>
        <time>2021-08-17T14:43:49Z</time>
      </trkpt>
      <trkpt lat="44.22358" lon="1.77015">
        <ele>309.68</ele>
        <time>2021-08-17T14:43:50Z</time>
      </trkpt>
      <trkpt lat="44.22356" lon="1.77015">
        <ele>310.16</ele>
        <time>2021-08-17T14:43:51Z</time>
      </trkpt>
      <trkpt lat="44.22354" lon="1.77016">
        <ele>310.16</ele>
        <time>2021-08-17T14:43:52Z</time>
      </trkpt>
      <trkpt lat="44.22343" lon="1.7702">
        <ele>311.12</ele>
        <time>2021-08-17T14:44:00Z</time>
      </trkpt>
      <trkpt lat="44.22335" lon="1.77022">
        <ele>312.09</ele>
        <time>2021-08-17T14:44:05Z</time>
      </trkpt>
      <trkpt lat="44.22334" lon="1.77022">
        <ele>312.09</ele>
        <time>2021-08-17T14:44:06Z</time>
      </trkpt>
      <trkpt lat="44.22332" lon="1.77023">
        <ele>312.09</ele>
        <time>2021-08-17T14:44:07Z</time>
      </trkpt>
      <trkpt lat="44.22318" lon="1.77031">
        <ele>313.05</ele>
        <time>2021-08-17T14:44:15Z</time>
      </trkpt>
      <trkpt lat="44.22307" lon="1.77039">
        <ele>313.53</ele>
        <time>2021-08-17T14:44:21Z</time>
      </trkpt>
      <trkpt lat="44.22295" lon="1.77052">
        <ele>314.01</ele>
        <time>2021-08-17T14:44:28Z</time>
      </trkpt>
      <trkpt lat="44.22279" lon="1.7707">
        <ele>314.49</ele>
        <time>2021-08-17T14:44:37Z</time>
      </trkpt>
      <trkpt lat="44.22267" lon="1.77085">
        <ele>314.97</ele>
        <time>2021-08-17T14:44:44Z</time>
      </trkpt>
      <trkpt lat="44.22253" lon="1.77096">
        <ele>315.93</ele>
        <time>2021-08-17T14:44:50Z</time>
      </trkpt>
      <trkpt lat="44.22239" lon="1.7711">
        <ele>316.41</ele>
        <time>2021-08-17T14:44:57Z</time>
      </trkpt>
      <trkpt lat="44.22224" lon="1.77132">
        <ele>316.41</ele>
        <time>2021-08-17T14:45:04Z</time>
      </trkpt>
      <trkpt lat="44.22207" lon="1.77156">
        <ele>316.41</ele>
        <time>2021-08-17T14:45:10Z</time>
      </trkpt>
      <trkpt lat="44.222" lon="1.77165">
        <ele>315.45</ele>
        <time>2021-08-17T14:45:12Z</time>
      </trkpt>
      <trkpt lat="44.22185" lon="1.77186">
        <ele>314.01</ele>
        <time>2021-08-17T14:45:16Z</time>
      </trkpt>
      <trkpt lat="44.22175" lon="1.77204">
        <ele>312.57</ele>
        <time>2021-08-17T14:45:19Z</time>
      </trkpt>
      <trkpt lat="44.22163" lon="1.77222">
        <ele>310.16</ele>
        <time>2021-08-17T14:45:22Z</time>
      </trkpt>
      <trkpt lat="44.22159" lon="1.77226">
        <ele>309.68</ele>
        <time>2021-08-17T14:45:23Z</time>
      </trkpt>
      <trkpt lat="44.22155" lon="1.7723">
        <ele>308.72</ele>
        <time>2021-08-17T14:45:24Z</time>
      </trkpt>
      <trkpt lat="44.22149" lon="1.77234">
        <ele>307.28</ele>
        <time>2021-08-17T14:45:25Z</time>
      </trkpt>
      <trkpt lat="44.22145" lon="1.77238">
        <ele>306.32</ele>
        <time>2021-08-17T14:45:26Z</time>
      </trkpt>
      <trkpt lat="44.22133" lon="1.77246">
        <ele>304.88</ele>
        <time>2021-08-17T14:45:28Z</time>
      </trkpt>
      <trkpt lat="44.22096" lon="1.77263">
        <ele>306.32</ele>
        <time>2021-08-17T14:45:34Z</time>
      </trkpt>
      <trkpt lat="44.22092" lon="1.77264">
        <ele>306.32</ele>
        <time>2021-08-17T14:45:35Z</time>
      </trkpt>
      <trkpt lat="44.22081" lon="1.77269">
        <ele>307.76</ele>
        <time>2021-08-17T14:45:38Z</time>
      </trkpt>
      <trkpt lat="44.22065" lon="1.77264">
        <ele>307.76</ele>
        <time>2021-08-17T14:45:43Z</time>
      </trkpt>
      <trkpt lat="44.2205" lon="1.77254">
        <ele>308.24</ele>
        <time>2021-08-17T14:45:48Z</time>
      </trkpt>
      <trkpt lat="44.22033" lon="1.77256">
        <ele>309.2</ele>
        <time>2021-08-17T14:45:54Z</time>
      </trkpt>
      <trkpt lat="44.22014" lon="1.77259">
        <ele>309.2</ele>
        <time>2021-08-17T14:46:01Z</time>
      </trkpt>
      <trkpt lat="44.22012" lon="1.77258">
        <ele>309.2</ele>
        <time>2021-08-17T14:46:02Z</time>
      </trkpt>
      <trkpt lat="44.2201" lon="1.77255">
        <ele>309.2</ele>
        <time>2021-08-17T14:46:03Z</time>
      </trkpt>
      <trkpt lat="44.22009" lon="1.77249">
        <ele>309.68</ele>
        <time>2021-08-17T14:46:05Z</time>
      </trkpt>
      <trkpt lat="44.22009" lon="1.77246">
        <ele>309.68</ele>
        <time>2021-08-17T14:46:06Z</time>
      </trkpt>
      <trkpt lat="44.22009" lon="1.77243">
        <ele>310.16</ele>
        <time>2021-08-17T14:46:07Z</time>
      </trkpt>
      <trkpt lat="44.22016" lon="1.77225">
        <ele>311.12</ele>
        <time>2021-08-17T14:46:13Z</time>
      </trkpt>
      <trkpt lat="44.22027" lon="1.77201">
        <ele>312.09</ele>
        <time>2021-08-17T14:46:21Z</time>
      </trkpt>
      <trkpt lat="44.22029" lon="1.77192">
        <ele>312.09</ele>
        <time>2021-08-17T14:46:24Z</time>
      </trkpt>
      <trkpt lat="44.22027" lon="1.77188">
        <ele>312.09</ele>
        <time>2021-08-17T14:46:25Z</time>
      </trkpt>
      <trkpt lat="44.22026" lon="1.77185">
        <ele>312.09</ele>
        <time>2021-08-17T14:46:26Z</time>
      </trkpt>
      <trkpt lat="44.22025" lon="1.77181">
        <ele>312.09</ele>
        <time>2021-08-17T14:46:27Z</time>
      </trkpt>
      <trkpt lat="44.22023" lon="1.77178">
        <ele>312.09</ele>
        <time>2021-08-17T14:46:28Z</time>
      </trkpt>
      <trkpt lat="44.22008" lon="1.77153">
        <ele>312.09</ele>
        <time>2021-08-17T14:46:34Z</time>
      </trkpt>
      <trkpt lat="44.22005" lon="1.7715">
        <ele>312.09</ele>
        <time>2021-08-17T14:46:35Z</time>
      </trkpt>
      <trkpt lat="44.22" lon="1.77146">
        <ele>312.09</ele>
        <time>2021-08-17T14:46:36Z</time>
      </trkpt>
      <trkpt lat="44.21996" lon="1.77144">
        <ele>312.09</ele>
        <time>2021-08-17T14:46:37Z</time>
      </trkpt>
      <trkpt lat="44.2199" lon="1.77142">
        <ele>310.64</ele>
        <time>2021-08-17T14:46:38Z</time>
      </trkpt>
      <trkpt lat="44.21985" lon="1.7714">
        <ele>310.16</ele>
        <time>2021-08-17T14:46:39Z</time>
      </trkpt>
      <trkpt lat="44.21958" lon="1.77124">
        <ele>310.16</ele>
        <time>2021-08-17T14:46:44Z</time>
      </trkpt>
      <trkpt lat="44.21954" lon="1.7712">
        <ele>310.16</ele>
        <time>2021-08-17T14:46:45Z</time>
      </trkpt>
      <trkpt lat="44.2195" lon="1.77113">
        <ele>310.16</ele>
        <time>2021-08-17T14:46:46Z</time>
      </trkpt>
      <trkpt lat="44.21925" lon="1.77069">
        <ele>311.6</ele>
        <time>2021-08-17T14:46:54Z</time>
      </trkpt>
      <trkpt lat="44.21909" lon="1.77045">
        <ele>313.53</ele>
        <time>2021-08-17T14:47:01Z</time>
      </trkpt>
      <trkpt lat="44.21897" lon="1.77025">
        <ele>314.49</ele>
        <time>2021-08-17T14:47:08Z</time>
      </trkpt>
      <trkpt lat="44.21883" lon="1.76999">
        <ele>316.89</ele>
        <time>2021-08-17T14:47:16Z</time>
      </trkpt>
      <trkpt lat="44.21869" lon="1.76969">
        <ele>318.33</ele>
        <time>2021-08-17T14:47:27Z</time>
      </trkpt>
      <trkpt lat="44.21861" lon="1.76949">
        <ele>318.81</ele>
        <time>2021-08-17T14:47:36Z</time>
      </trkpt>
      <trkpt lat="44.21847" lon="1.7692">
        <ele>320.74</ele>
        <time>2021-08-17T14:47:47Z</time>
      </trkpt>
      <trkpt lat="44.21835" lon="1.76904">
        <ele>321.7</ele>
        <time>2021-08-17T14:47:57Z</time>
      </trkpt>
      <trkpt lat="44.21835" lon="1.76904">
        <ele>322.18</ele>
        <time>2021-08-17T14:48:05Z</time>
      </trkpt>
      <trkpt lat="44.21833" lon="1.76904">
        <ele>322.18</ele>
        <time>2021-08-17T14:48:07Z</time>
      </trkpt>
      <trkpt lat="44.21831" lon="1.76903">
        <ele>322.18</ele>
        <time>2021-08-17T14:48:08Z</time>
      </trkpt>
      <trkpt lat="44.21811" lon="1.76893">
        <ele>323.62</ele>
        <time>2021-08-17T14:48:18Z</time>
      </trkpt>
      <trkpt lat="44.21796" lon="1.76886">
        <ele>324.58</ele>
        <time>2021-08-17T14:48:26Z</time>
      </trkpt>
      <trkpt lat="44.21778" lon="1.76881">
        <ele>326.5</ele>
        <time>2021-08-17T14:48:34Z</time>
      </trkpt>
      <trkpt lat="44.21754" lon="1.76878">
        <ele>327.95</ele>
        <time>2021-08-17T14:48:44Z</time>
      </trkpt>
      <trkpt lat="44.21733" lon="1.76874">
        <ele>328.43</ele>
        <time>2021-08-17T14:48:51Z</time>
      </trkpt>
      <trkpt lat="44.21709" lon="1.76867">
        <ele>328.43</ele>
        <time>2021-08-17T14:48:58Z</time>
      </trkpt>
      <trkpt lat="44.21696" lon="1.76858">
        <ele>328.43</ele>
        <time>2021-08-17T14:49:04Z</time>
      </trkpt>
      <trkpt lat="44.21679" lon="1.76843">
        <ele>328.43</ele>
        <time>2021-08-17T14:49:11Z</time>
      </trkpt>
      <trkpt lat="44.21661" lon="1.76831">
        <ele>326.5</ele>
        <time>2021-08-17T14:49:17Z</time>
      </trkpt>
      <trkpt lat="44.21646" lon="1.76815">
        <ele>326.5</ele>
        <time>2021-08-17T14:49:22Z</time>
      </trkpt>
      <trkpt lat="44.21616" lon="1.76784">
        <ele>325.06</ele>
        <time>2021-08-17T14:49:29Z</time>
      </trkpt>
      <trkpt lat="44.21597" lon="1.76764">
        <ele>324.1</ele>
        <time>2021-08-17T14:49:33Z</time>
      </trkpt>
      <trkpt lat="44.21593" lon="1.76758">
        <ele>323.62</ele>
        <time>2021-08-17T14:49:34Z</time>
      </trkpt>
      <trkpt lat="44.21561" lon="1.76702">
        <ele>320.74</ele>
        <time>2021-08-17T14:49:42Z</time>
      </trkpt>
      <trkpt lat="44.21532" lon="1.76648">
        <ele>318.33</ele>
        <time>2021-08-17T14:49:49Z</time>
      </trkpt>
      <trkpt lat="44.21507" lon="1.766">
        <ele>316.89</ele>
        <time>2021-08-17T14:49:55Z</time>
      </trkpt>
      <trkpt lat="44.21493" lon="1.76564">
        <ele>314.97</ele>
        <time>2021-08-17T14:49:59Z</time>
      </trkpt>
      <trkpt lat="44.21489" lon="1.76556">
        <ele>314.49</ele>
        <time>2021-08-17T14:50:00Z</time>
      </trkpt>
      <trkpt lat="44.21485" lon="1.76548">
        <ele>314.01</ele>
        <time>2021-08-17T14:50:01Z</time>
      </trkpt>
      <trkpt lat="44.21483" lon="1.7654">
        <ele>314.01</ele>
        <time>2021-08-17T14:50:02Z</time>
      </trkpt>
      <trkpt lat="44.21481" lon="1.76531">
        <ele>313.05</ele>
        <time>2021-08-17T14:50:03Z</time>
      </trkpt>
      <trkpt lat="44.21481" lon="1.76522">
        <ele>313.05</ele>
        <time>2021-08-17T14:50:04Z</time>
      </trkpt>
      <trkpt lat="44.21479" lon="1.76513">
        <ele>312.09</ele>
        <time>2021-08-17T14:50:05Z</time>
      </trkpt>
      <trkpt lat="44.21476" lon="1.76504">
        <ele>311.12</ele>
        <time>2021-08-17T14:50:06Z</time>
      </trkpt>
      <trkpt lat="44.21473" lon="1.76496">
        <ele>311.6</ele>
        <time>2021-08-17T14:50:07Z</time>
      </trkpt>
      <trkpt lat="44.21471" lon="1.76487">
        <ele>311.12</ele>
        <time>2021-08-17T14:50:08Z</time>
      </trkpt>
      <trkpt lat="44.2147" lon="1.76478">
        <ele>311.12</ele>
        <time>2021-08-17T14:50:09Z</time>
      </trkpt>
      <trkpt lat="44.2147" lon="1.7647">
        <ele>311.12</ele>
        <time>2021-08-17T14:50:10Z</time>
      </trkpt>
      <trkpt lat="44.21469" lon="1.76462">
        <ele>311.12</ele>
        <time>2021-08-17T14:50:11Z</time>
      </trkpt>
      <trkpt lat="44.21469" lon="1.76455">
        <ele>311.6</ele>
        <time>2021-08-17T14:50:12Z</time>
      </trkpt>
      <trkpt lat="44.21468" lon="1.76436">
        <ele>314.01</ele>
        <time>2021-08-17T14:50:17Z</time>
      </trkpt>
      <trkpt lat="44.21463" lon="1.76412">
        <ele>314.49</ele>
        <time>2021-08-17T14:50:25Z</time>
      </trkpt>
      <trkpt lat="44.21456" lon="1.7638">
        <ele>315.45</ele>
        <time>2021-08-17T14:50:34Z</time>
      </trkpt>
      <trkpt lat="44.21447" lon="1.76337">
        <ele>315.93</ele>
        <time>2021-08-17T14:50:43Z</time>
      </trkpt>
      <trkpt lat="44.21442" lon="1.76319">
        <ele>315.93</ele>
        <time>2021-08-17T14:50:46Z</time>
      </trkpt>
      <trkpt lat="44.21436" lon="1.76299">
        <ele>314.97</ele>
        <time>2021-08-17T14:50:49Z</time>
      </trkpt>
      <trkpt lat="44.21434" lon="1.76292">
        <ele>314.97</ele>
        <time>2021-08-17T14:50:50Z</time>
      </trkpt>
      <trkpt lat="44.21424" lon="1.76227">
        <ele>314.01</ele>
        <time>2021-08-17T14:50:58Z</time>
      </trkpt>
      <trkpt lat="44.21414" lon="1.76138">
        <ele>311.6</ele>
        <time>2021-08-17T14:51:08Z</time>
      </trkpt>
      <trkpt lat="44.21415" lon="1.76128">
        <ele>311.6</ele>
        <time>2021-08-17T14:51:09Z</time>
      </trkpt>
      <trkpt lat="44.21424" lon="1.76051">
        <ele>309.2</ele>
        <time>2021-08-17T14:51:18Z</time>
      </trkpt>
      <trkpt lat="44.21424" lon="1.76043">
        <ele>309.2</ele>
        <time>2021-08-17T14:51:19Z</time>
      </trkpt>
      <trkpt lat="44.21419" lon="1.75996">
        <ele>306.8</ele>
        <time>2021-08-17T14:51:24Z</time>
      </trkpt>
      <trkpt lat="44.21417" lon="1.75986">
        <ele>305.84</ele>
        <time>2021-08-17T14:51:25Z</time>
      </trkpt>
      <trkpt lat="44.21411" lon="1.75967">
        <ele>304.88</ele>
        <time>2021-08-17T14:51:27Z</time>
      </trkpt>
      <trkpt lat="44.21409" lon="1.75958">
        <ele>303.91</ele>
        <time>2021-08-17T14:51:28Z</time>
      </trkpt>
      <trkpt lat="44.21409" lon="1.75949">
        <ele>303.43</ele>
        <time>2021-08-17T14:51:29Z</time>
      </trkpt>
      <trkpt lat="44.21409" lon="1.75939">
        <ele>303.43</ele>
        <time>2021-08-17T14:51:30Z</time>
      </trkpt>
      <trkpt lat="44.21414" lon="1.75896">
        <ele>301.99</ele>
        <time>2021-08-17T14:51:35Z</time>
      </trkpt>
      <trkpt lat="44.21413" lon="1.75889">
        <ele>301.51</ele>
        <time>2021-08-17T14:51:36Z</time>
      </trkpt>
      <trkpt lat="44.2141" lon="1.75883">
        <ele>301.51</ele>
        <time>2021-08-17T14:51:37Z</time>
      </trkpt>
      <trkpt lat="44.21406" lon="1.7588">
        <ele>301.51</ele>
        <time>2021-08-17T14:51:38Z</time>
      </trkpt>
      <trkpt lat="44.21403" lon="1.75878">
        <ele>301.51</ele>
        <time>2021-08-17T14:51:39Z</time>
      </trkpt>
      <trkpt lat="44.214" lon="1.75877">
        <ele>301.51</ele>
        <time>2021-08-17T14:51:40Z</time>
      </trkpt>
      <trkpt lat="44.21396" lon="1.75875">
        <ele>301.51</ele>
        <time>2021-08-17T14:51:41Z</time>
      </trkpt>
      <trkpt lat="44.21393" lon="1.75873">
        <ele>301.51</ele>
        <time>2021-08-17T14:51:42Z</time>
      </trkpt>
      <trkpt lat="44.21389" lon="1.75871">
        <ele>301.51</ele>
        <time>2021-08-17T14:51:43Z</time>
      </trkpt>
      <trkpt lat="44.21384" lon="1.75869">
        <ele>301.51</ele>
        <time>2021-08-17T14:51:44Z</time>
      </trkpt>
      <trkpt lat="44.21344" lon="1.7586">
        <ele>302.95</ele>
        <time>2021-08-17T14:51:52Z</time>
      </trkpt>
      <trkpt lat="44.21339" lon="1.7586">
        <ele>302.95</ele>
        <time>2021-08-17T14:51:53Z</time>
      </trkpt>
      <trkpt lat="44.21301" lon="1.75857">
        <ele>304.39</ele>
        <time>2021-08-17T14:52:02Z</time>
      </trkpt>
      <trkpt lat="44.21268" lon="1.75859">
        <ele>305.36</ele>
        <time>2021-08-17T14:52:11Z</time>
      </trkpt>
      <trkpt lat="44.21245" lon="1.75863">
        <ele>305.84</ele>
        <time>2021-08-17T14:52:18Z</time>
      </trkpt>
      <trkpt lat="44.21206" lon="1.75869">
        <ele>307.28</ele>
        <time>2021-08-17T14:52:29Z</time>
      </trkpt>
      <trkpt lat="44.21164" lon="1.7587">
        <ele>307.76</ele>
        <time>2021-08-17T14:52:40Z</time>
      </trkpt>
      <trkpt lat="44.21132" lon="1.75856">
        <ele>308.24</ele>
        <time>2021-08-17T14:52:49Z</time>
      </trkpt>
      <trkpt lat="44.21097" lon="1.75837">
        <ele>309.2</ele>
        <time>2021-08-17T14:52:59Z</time>
      </trkpt>
      <trkpt lat="44.21072" lon="1.75817">
        <ele>310.16</ele>
        <time>2021-08-17T14:53:07Z</time>
      </trkpt>
      <trkpt lat="44.2105" lon="1.75782">
        <ele>310.16</ele>
        <time>2021-08-17T14:53:15Z</time>
      </trkpt>
      <trkpt lat="44.21036" lon="1.7576">
        <ele>308.24</ele>
        <time>2021-08-17T14:53:19Z</time>
      </trkpt>
      <trkpt lat="44.20999" lon="1.75729">
        <ele>306.32</ele>
        <time>2021-08-17T14:53:26Z</time>
      </trkpt>
      <trkpt lat="44.20954" lon="1.75695">
        <ele>304.88</ele>
        <time>2021-08-17T14:53:34Z</time>
      </trkpt>
      <trkpt lat="44.20949" lon="1.75691">
        <ele>304.88</ele>
        <time>2021-08-17T14:53:35Z</time>
      </trkpt>
      <trkpt lat="44.20944" lon="1.75687">
        <ele>304.88</ele>
        <time>2021-08-17T14:53:36Z</time>
      </trkpt>
      <trkpt lat="44.2094" lon="1.75683">
        <ele>304.88</ele>
        <time>2021-08-17T14:53:37Z</time>
      </trkpt>
      <trkpt lat="44.20931" lon="1.75676">
        <ele>304.88</ele>
        <time>2021-08-17T14:53:39Z</time>
      </trkpt>
      <trkpt lat="44.20922" lon="1.75671">
        <ele>304.88</ele>
        <time>2021-08-17T14:53:41Z</time>
      </trkpt>
      <trkpt lat="44.20919" lon="1.75668">
        <ele>304.88</ele>
        <time>2021-08-17T14:53:42Z</time>
      </trkpt>
      <trkpt lat="44.20899" lon="1.75655">
        <ele>304.88</ele>
        <time>2021-08-17T14:53:47Z</time>
      </trkpt>
      <trkpt lat="44.20855" lon="1.75629">
        <ele>304.88</ele>
        <time>2021-08-17T14:53:56Z</time>
      </trkpt>
      <trkpt lat="44.20812" lon="1.75625">
        <ele>304.88</ele>
        <time>2021-08-17T14:54:04Z</time>
      </trkpt>
      <trkpt lat="44.20787" lon="1.75631">
        <ele>305.84</ele>
        <time>2021-08-17T14:54:09Z</time>
      </trkpt>
      <trkpt lat="44.20756" lon="1.7563">
        <ele>308.24</ele>
        <time>2021-08-17T14:54:17Z</time>
      </trkpt>
      <trkpt lat="44.20726" lon="1.75629">
        <ele>309.2</ele>
        <time>2021-08-17T14:54:27Z</time>
      </trkpt>
      <trkpt lat="44.20704" lon="1.75619">
        <ele>310.64</ele>
        <time>2021-08-17T14:54:35Z</time>
      </trkpt>
      <trkpt lat="44.20675" lon="1.75607">
        <ele>311.6</ele>
        <time>2021-08-17T14:54:45Z</time>
      </trkpt>
      <trkpt lat="44.20648" lon="1.75598">
        <ele>313.05</ele>
        <time>2021-08-17T14:54:54Z</time>
      </trkpt>
      <trkpt lat="44.20612" lon="1.75583">
        <ele>314.49</ele>
        <time>2021-08-17T14:55:06Z</time>
      </trkpt>
      <trkpt lat="44.20585" lon="1.75573">
        <ele>315.45</ele>
        <time>2021-08-17T14:55:15Z</time>
      </trkpt>
      <trkpt lat="44.20553" lon="1.75561">
        <ele>315.45</ele>
        <time>2021-08-17T14:55:23Z</time>
      </trkpt>
      <trkpt lat="44.20534" lon="1.75549">
        <ele>314.01</ele>
        <time>2021-08-17T14:55:27Z</time>
      </trkpt>
      <trkpt lat="44.2053" lon="1.75546">
        <ele>314.01</ele>
        <time>2021-08-17T14:55:28Z</time>
      </trkpt>
      <trkpt lat="44.20483" lon="1.75507">
        <ele>311.6</ele>
        <time>2021-08-17T14:55:38Z</time>
      </trkpt>
      <trkpt lat="44.20454" lon="1.75487">
        <ele>311.12</ele>
        <time>2021-08-17T14:55:44Z</time>
      </trkpt>
      <trkpt lat="44.20413" lon="1.75457">
        <ele>309.68</ele>
        <time>2021-08-17T14:55:52Z</time>
      </trkpt>
      <trkpt lat="44.20375" lon="1.75439">
        <ele>309.2</ele>
        <time>2021-08-17T14:56:00Z</time>
      </trkpt>
      <trkpt lat="44.20343" lon="1.75422">
        <ele>309.2</ele>
        <time>2021-08-17T14:56:08Z</time>
      </trkpt>
      <trkpt lat="44.20306" lon="1.75404">
        <ele>309.2</ele>
        <time>2021-08-17T14:56:15Z</time>
      </trkpt>
      <trkpt lat="44.20291" lon="1.75396">
        <ele>309.2</ele>
        <time>2021-08-17T14:56:18Z</time>
      </trkpt>
      <trkpt lat="44.20286" lon="1.75394">
        <ele>309.2</ele>
        <time>2021-08-17T14:56:19Z</time>
      </trkpt>
      <trkpt lat="44.20242" lon="1.75369">
        <ele>309.2</ele>
        <time>2021-08-17T14:56:28Z</time>
      </trkpt>
      <trkpt lat="44.20231" lon="1.75364">
        <ele>309.2</ele>
        <time>2021-08-17T14:56:30Z</time>
      </trkpt>
      <trkpt lat="44.20198" lon="1.75347">
        <ele>308.72</ele>
        <time>2021-08-17T14:56:36Z</time>
      </trkpt>
      <trkpt lat="44.20192" lon="1.75345">
        <ele>308.72</ele>
        <time>2021-08-17T14:56:37Z</time>
      </trkpt>
      <trkpt lat="44.20147" lon="1.75328">
        <ele>308.72</ele>
        <time>2021-08-17T14:56:45Z</time>
      </trkpt>
      <trkpt lat="44.2011" lon="1.75312">
        <ele>308.72</ele>
        <time>2021-08-17T14:56:52Z</time>
      </trkpt>
      <trkpt lat="44.20073" lon="1.75293">
        <ele>308.72</ele>
        <time>2021-08-17T14:56:59Z</time>
      </trkpt>
      <trkpt lat="44.20029" lon="1.75274">
        <ele>306.8</ele>
        <time>2021-08-17T14:57:06Z</time>
      </trkpt>
      <trkpt lat="44.19983" lon="1.75261">
        <ele>304.39</ele>
        <time>2021-08-17T14:57:12Z</time>
      </trkpt>
      <trkpt lat="44.19974" lon="1.75258">
        <ele>303.43</ele>
        <time>2021-08-17T14:57:13Z</time>
      </trkpt>
      <trkpt lat="44.19966" lon="1.75255">
        <ele>302.95</ele>
        <time>2021-08-17T14:57:14Z</time>
      </trkpt>
      <trkpt lat="44.19951" lon="1.75248">
        <ele>301.51</ele>
        <time>2021-08-17T14:57:16Z</time>
      </trkpt>
      <trkpt lat="44.19942" lon="1.75246">
        <ele>300.55</ele>
        <time>2021-08-17T14:57:17Z</time>
      </trkpt>
      <trkpt lat="44.19934" lon="1.75246">
        <ele>300.55</ele>
        <time>2021-08-17T14:57:18Z</time>
      </trkpt>
      <trkpt lat="44.19875" lon="1.75254">
        <ele>298.63</ele>
        <time>2021-08-17T14:57:25Z</time>
      </trkpt>
      <trkpt lat="44.19844" lon="1.75257">
        <ele>300.07</ele>
        <time>2021-08-17T14:57:30Z</time>
      </trkpt>
      <trkpt lat="44.19815" lon="1.75259">
        <ele>302.95</ele>
        <time>2021-08-17T14:57:37Z</time>
      </trkpt>
      <trkpt lat="44.19793" lon="1.7526">
        <ele>304.39</ele>
        <time>2021-08-17T14:57:45Z</time>
      </trkpt>
      <trkpt lat="44.19768" lon="1.7526">
        <ele>305.84</ele>
        <time>2021-08-17T14:57:54Z</time>
      </trkpt>
      <trkpt lat="44.19744" lon="1.75259">
        <ele>306.8</ele>
        <time>2021-08-17T14:58:03Z</time>
      </trkpt>
      <trkpt lat="44.19718" lon="1.75261">
        <ele>307.76</ele>
        <time>2021-08-17T14:58:13Z</time>
      </trkpt>
      <trkpt lat="44.19694" lon="1.75262">
        <ele>308.72</ele>
        <time>2021-08-17T14:58:22Z</time>
      </trkpt>
      <trkpt lat="44.19665" lon="1.75264">
        <ele>310.16</ele>
        <time>2021-08-17T14:58:32Z</time>
      </trkpt>
      <trkpt lat="44.19628" lon="1.75265">
        <ele>310.16</ele>
        <time>2021-08-17T14:58:43Z</time>
      </trkpt>
      <trkpt lat="44.19617" lon="1.75261">
        <ele>310.16</ele>
        <time>2021-08-17T14:58:46Z</time>
      </trkpt>
      <trkpt lat="44.19615" lon="1.75258">
        <ele>310.16</ele>
        <time>2021-08-17T14:58:47Z</time>
      </trkpt>
      <trkpt lat="44.19613" lon="1.75254">
        <ele>310.16</ele>
        <time>2021-08-17T14:58:48Z</time>
      </trkpt>
      <trkpt lat="44.19612" lon="1.7525">
        <ele>310.16</ele>
        <time>2021-08-17T14:58:49Z</time>
      </trkpt>
      <trkpt lat="44.19612" lon="1.75246">
        <ele>310.16</ele>
        <time>2021-08-17T14:58:50Z</time>
      </trkpt>
      <trkpt lat="44.19611" lon="1.75242">
        <ele>310.16</ele>
        <time>2021-08-17T14:58:51Z</time>
      </trkpt>
      <trkpt lat="44.19606" lon="1.75223">
        <ele>310.16</ele>
        <time>2021-08-17T14:58:55Z</time>
      </trkpt>
      <trkpt lat="44.19604" lon="1.75218">
        <ele>310.16</ele>
        <time>2021-08-17T14:58:56Z</time>
      </trkpt>
      <trkpt lat="44.19601" lon="1.75213">
        <ele>310.16</ele>
        <time>2021-08-17T14:58:57Z</time>
      </trkpt>
      <trkpt lat="44.19597" lon="1.7521">
        <ele>310.16</ele>
        <time>2021-08-17T14:58:58Z</time>
      </trkpt>
      <trkpt lat="44.19593" lon="1.75207">
        <ele>310.16</ele>
        <time>2021-08-17T14:58:59Z</time>
      </trkpt>
      <trkpt lat="44.19589" lon="1.75204">
        <ele>310.16</ele>
        <time>2021-08-17T14:59:00Z</time>
      </trkpt>
      <trkpt lat="44.19585" lon="1.75201">
        <ele>308.72</ele>
        <time>2021-08-17T14:59:01Z</time>
      </trkpt>
      <trkpt lat="44.19581" lon="1.75198">
        <ele>308.72</ele>
        <time>2021-08-17T14:59:02Z</time>
      </trkpt>
      <trkpt lat="44.19577" lon="1.75194">
        <ele>308.24</ele>
        <time>2021-08-17T14:59:03Z</time>
      </trkpt>
      <trkpt lat="44.1957" lon="1.75184">
        <ele>308.24</ele>
        <time>2021-08-17T14:59:05Z</time>
      </trkpt>
      <trkpt lat="44.19568" lon="1.75179">
        <ele>308.24</ele>
        <time>2021-08-17T14:59:06Z</time>
      </trkpt>
      <trkpt lat="44.19566" lon="1.75173">
        <ele>307.28</ele>
        <time>2021-08-17T14:59:07Z</time>
      </trkpt>
      <trkpt lat="44.19564" lon="1.75167">
        <ele>307.28</ele>
        <time>2021-08-17T14:59:08Z</time>
      </trkpt>
      <trkpt lat="44.19563" lon="1.7516">
        <ele>306.8</ele>
        <time>2021-08-17T14:59:09Z</time>
      </trkpt>
      <trkpt lat="44.19561" lon="1.75138">
        <ele>304.88</ele>
        <time>2021-08-17T14:59:12Z</time>
      </trkpt>
      <trkpt lat="44.19559" lon="1.75132">
        <ele>304.39</ele>
        <time>2021-08-17T14:59:13Z</time>
      </trkpt>
      <trkpt lat="44.19556" lon="1.75126">
        <ele>303.91</ele>
        <time>2021-08-17T14:59:14Z</time>
      </trkpt>
      <trkpt lat="44.19549" lon="1.75114">
        <ele>303.43</ele>
        <time>2021-08-17T14:59:16Z</time>
      </trkpt>
      <trkpt lat="44.19546" lon="1.75108">
        <ele>302.47</ele>
        <time>2021-08-17T14:59:17Z</time>
      </trkpt>
      <trkpt lat="44.19543" lon="1.75101">
        <ele>301.99</ele>
        <time>2021-08-17T14:59:18Z</time>
      </trkpt>
      <trkpt lat="44.19541" lon="1.75093">
        <ele>301.51</ele>
        <time>2021-08-17T14:59:19Z</time>
      </trkpt>
      <trkpt lat="44.1954" lon="1.75085">
        <ele>301.51</ele>
        <time>2021-08-17T14:59:20Z</time>
      </trkpt>
      <trkpt lat="44.19536" lon="1.75061">
        <ele>299.59</ele>
        <time>2021-08-17T14:59:23Z</time>
      </trkpt>
      <trkpt lat="44.19532" lon="1.75035">
        <ele>297.67</ele>
        <time>2021-08-17T14:59:27Z</time>
      </trkpt>
      <trkpt lat="44.19529" lon="1.75025">
        <ele>296.7</ele>
        <time>2021-08-17T14:59:29Z</time>
      </trkpt>
      <trkpt lat="44.19525" lon="1.75003">
        <ele>294.3</ele>
        <time>2021-08-17T14:59:33Z</time>
      </trkpt>
      <trkpt lat="44.19518" lon="1.74983">
        <ele>291.42</ele>
        <time>2021-08-17T14:59:37Z</time>
      </trkpt>
      <trkpt lat="44.19515" lon="1.74979">
        <ele>290.46</ele>
        <time>2021-08-17T14:59:38Z</time>
      </trkpt>
      <trkpt lat="44.19509" lon="1.7497">
        <ele>289.49</ele>
        <time>2021-08-17T14:59:40Z</time>
      </trkpt>
      <trkpt lat="44.19501" lon="1.74949">
        <ele>285.65</ele>
        <time>2021-08-17T14:59:44Z</time>
      </trkpt>
      <trkpt lat="44.19495" lon="1.7493">
        <ele>282.28</ele>
        <time>2021-08-17T14:59:47Z</time>
      </trkpt>
      <trkpt lat="44.19492" lon="1.74915">
        <ele>280.84</ele>
        <time>2021-08-17T14:59:50Z</time>
      </trkpt>
      <trkpt lat="44.19488" lon="1.7489">
        <ele>277.96</ele>
        <time>2021-08-17T14:59:55Z</time>
      </trkpt>
      <trkpt lat="44.19487" lon="1.74884">
        <ele>277.48</ele>
        <time>2021-08-17T14:59:57Z</time>
      </trkpt>
      <trkpt lat="44.19488" lon="1.74881">
        <ele>277</ele>
        <time>2021-08-17T14:59:58Z</time>
      </trkpt>
      <trkpt lat="44.19488" lon="1.74879">
        <ele>276.52</ele>
        <time>2021-08-17T14:59:59Z</time>
      </trkpt>
      <trkpt lat="44.19487" lon="1.74876">
        <ele>276.04</ele>
        <time>2021-08-17T15:00:00Z</time>
      </trkpt>
      <trkpt lat="44.19487" lon="1.74874">
        <ele>275.56</ele>
        <time>2021-08-17T15:00:01Z</time>
      </trkpt>
      <trkpt lat="44.19487" lon="1.74871">
        <ele>275.07</ele>
        <time>2021-08-17T15:00:02Z</time>
      </trkpt>
      <trkpt lat="44.19484" lon="1.74858">
        <ele>272.67</ele>
        <time>2021-08-17T15:00:07Z</time>
      </trkpt>
      <trkpt lat="44.19484" lon="1.74854">
        <ele>272.67</ele>
        <time>2021-08-17T15:00:09Z</time>
      </trkpt>
      <trkpt lat="44.19484" lon="1.74851">
        <ele>272.19</ele>
        <time>2021-08-17T15:00:10Z</time>
      </trkpt>
      <trkpt lat="44.19484" lon="1.74848">
        <ele>271.71</ele>
        <time>2021-08-17T15:00:11Z</time>
      </trkpt>
      <trkpt lat="44.19484" lon="1.74845">
        <ele>271.23</ele>
        <time>2021-08-17T15:00:12Z</time>
      </trkpt>
      <trkpt lat="44.19483" lon="1.74841">
        <ele>270.27</ele>
        <time>2021-08-17T15:00:13Z</time>
      </trkpt>
      <trkpt lat="44.19483" lon="1.74838">
        <ele>270.27</ele>
        <time>2021-08-17T15:00:14Z</time>
      </trkpt>
      <trkpt lat="44.19482" lon="1.74833">
        <ele>268.83</ele>
        <time>2021-08-17T15:00:16Z</time>
      </trkpt>
      <trkpt lat="44.19481" lon="1.74831">
        <ele>268.83</ele>
        <time>2021-08-17T15:00:17Z</time>
      </trkpt>
      <trkpt lat="44.19477" lon="1.74812">
        <ele>265.46</ele>
        <time>2021-08-17T15:00:23Z</time>
      </trkpt>
      <trkpt lat="44.19475" lon="1.74803">
        <ele>264.5</ele>
        <time>2021-08-17T15:00:26Z</time>
      </trkpt>
      <trkpt lat="44.19473" lon="1.74794">
        <ele>263.06</ele>
        <time>2021-08-17T15:00:30Z</time>
      </trkpt>
      <trkpt lat="44.19472" lon="1.74792">
        <ele>262.1</ele>
        <time>2021-08-17T15:00:31Z</time>
      </trkpt>
      <trkpt lat="44.19472" lon="1.7479">
        <ele>262.1</ele>
        <time>2021-08-17T15:00:32Z</time>
      </trkpt>
      <trkpt lat="44.19471" lon="1.74787">
        <ele>261.62</ele>
        <time>2021-08-17T15:00:33Z</time>
      </trkpt>
      <trkpt lat="44.19471" lon="1.74784">
        <ele>261.14</ele>
        <time>2021-08-17T15:00:34Z</time>
      </trkpt>
      <trkpt lat="44.19471" lon="1.74781">
        <ele>260.65</ele>
        <time>2021-08-17T15:00:35Z</time>
      </trkpt>
      <trkpt lat="44.1947" lon="1.74778">
        <ele>259.69</ele>
        <time>2021-08-17T15:00:36Z</time>
      </trkpt>
      <trkpt lat="44.1947" lon="1.74774">
        <ele>259.21</ele>
        <time>2021-08-17T15:00:37Z</time>
      </trkpt>
      <trkpt lat="44.1947" lon="1.74771">
        <ele>259.21</ele>
        <time>2021-08-17T15:00:38Z</time>
      </trkpt>
      <trkpt lat="44.19469" lon="1.74768">
        <ele>258.25</ele>
        <time>2021-08-17T15:00:39Z</time>
      </trkpt>
      <trkpt lat="44.19469" lon="1.74764">
        <ele>258.25</ele>
        <time>2021-08-17T15:00:40Z</time>
      </trkpt>
      <trkpt lat="44.19469" lon="1.74761">
        <ele>257.77</ele>
        <time>2021-08-17T15:00:41Z</time>
      </trkpt>
      <trkpt lat="44.19469" lon="1.74754">
        <ele>257.29</ele>
        <time>2021-08-17T15:00:44Z</time>
      </trkpt>
      <trkpt lat="44.19469" lon="1.74752">
        <ele>256.33</ele>
        <time>2021-08-17T15:00:45Z</time>
      </trkpt>
      <trkpt lat="44.19469" lon="1.74748">
        <ele>255.85</ele>
        <time>2021-08-17T15:00:46Z</time>
      </trkpt>
      <trkpt lat="44.19469" lon="1.74744">
        <ele>255.85</ele>
        <time>2021-08-17T15:00:47Z</time>
      </trkpt>
      <trkpt lat="44.1947" lon="1.7474">
        <ele>254.89</ele>
        <time>2021-08-17T15:00:48Z</time>
      </trkpt>
      <trkpt lat="44.1947" lon="1.74736">
        <ele>254.41</ele>
        <time>2021-08-17T15:00:49Z</time>
      </trkpt>
      <trkpt lat="44.19471" lon="1.74731">
        <ele>253.93</ele>
        <time>2021-08-17T15:00:50Z</time>
      </trkpt>
      <trkpt lat="44.19471" lon="1.74728">
        <ele>253.44</ele>
        <time>2021-08-17T15:00:51Z</time>
      </trkpt>
      <trkpt lat="44.19473" lon="1.7471">
        <ele>252</ele>
        <time>2021-08-17T15:00:54Z</time>
      </trkpt>
      <trkpt lat="44.19473" lon="1.74705">
        <ele>251.04</ele>
        <time>2021-08-17T15:00:55Z</time>
      </trkpt>
      <trkpt lat="44.19476" lon="1.74689">
        <ele>249.6</ele>
        <time>2021-08-17T15:00:59Z</time>
      </trkpt>
      <trkpt lat="44.19484" lon="1.7466">
        <ele>246.72</ele>
        <time>2021-08-17T15:01:05Z</time>
      </trkpt>
      <trkpt lat="44.19488" lon="1.74652">
        <ele>245.27</ele>
        <time>2021-08-17T15:01:07Z</time>
      </trkpt>
      <trkpt lat="44.19495" lon="1.7462">
        <ele>242.39</ele>
        <time>2021-08-17T15:01:12Z</time>
      </trkpt>
      <trkpt lat="44.19498" lon="1.74613">
        <ele>241.91</ele>
        <time>2021-08-17T15:01:13Z</time>
      </trkpt>
      <trkpt lat="44.19501" lon="1.74607">
        <ele>241.91</ele>
        <time>2021-08-17T15:01:14Z</time>
      </trkpt>
      <trkpt lat="44.19504" lon="1.74601">
        <ele>240.95</ele>
        <time>2021-08-17T15:01:15Z</time>
      </trkpt>
      <trkpt lat="44.19507" lon="1.74594">
        <ele>240.47</ele>
        <time>2021-08-17T15:01:16Z</time>
      </trkpt>
      <trkpt lat="44.1951" lon="1.74588">
        <ele>239.99</ele>
        <time>2021-08-17T15:01:17Z</time>
      </trkpt>
      <trkpt lat="44.19524" lon="1.74556">
        <ele>237.1</ele>
        <time>2021-08-17T15:01:22Z</time>
      </trkpt>
      <trkpt lat="44.19532" lon="1.74532">
        <ele>234.7</ele>
        <time>2021-08-17T15:01:27Z</time>
      </trkpt>
      <trkpt lat="44.19544" lon="1.74506">
        <ele>231.81</ele>
        <time>2021-08-17T15:01:33Z</time>
      </trkpt>
      <trkpt lat="44.19545" lon="1.74501">
        <ele>230.85</ele>
        <time>2021-08-17T15:01:34Z</time>
      </trkpt>
      <trkpt lat="44.19546" lon="1.74497">
        <ele>230.37</ele>
        <time>2021-08-17T15:01:35Z</time>
      </trkpt>
      <trkpt lat="44.19548" lon="1.74492">
        <ele>229.89</ele>
        <time>2021-08-17T15:01:36Z</time>
      </trkpt>
      <trkpt lat="44.19551" lon="1.74487">
        <ele>229.41</ele>
        <time>2021-08-17T15:01:37Z</time>
      </trkpt>
      <trkpt lat="44.19553" lon="1.74483">
        <ele>228.93</ele>
        <time>2021-08-17T15:01:38Z</time>
      </trkpt>
      <trkpt lat="44.19556" lon="1.74478">
        <ele>227.97</ele>
        <time>2021-08-17T15:01:39Z</time>
      </trkpt>
      <trkpt lat="44.19563" lon="1.7446">
        <ele>225.57</ele>
        <time>2021-08-17T15:01:44Z</time>
      </trkpt>
      <trkpt lat="44.19571" lon="1.74442">
        <ele>223.16</ele>
        <time>2021-08-17T15:01:50Z</time>
      </trkpt>
      <trkpt lat="44.19577" lon="1.74422">
        <ele>220.76</ele>
        <time>2021-08-17T15:01:55Z</time>
      </trkpt>
      <trkpt lat="44.19584" lon="1.7439">
        <ele>218.84</ele>
        <time>2021-08-17T15:02:01Z</time>
      </trkpt>
      <trkpt lat="44.19586" lon="1.74365">
        <ele>217.88</ele>
        <time>2021-08-17T15:02:05Z</time>
      </trkpt>
      <trkpt lat="44.19586" lon="1.74357">
        <ele>217.4</ele>
        <time>2021-08-17T15:02:06Z</time>
      </trkpt>
      <trkpt lat="44.19586" lon="1.74344">
        <ele>216.43</ele>
        <time>2021-08-17T15:02:08Z</time>
      </trkpt>
      <trkpt lat="44.19585" lon="1.74318">
        <ele>213.55</ele>
        <time>2021-08-17T15:02:13Z</time>
      </trkpt>
      <trkpt lat="44.19583" lon="1.74306">
        <ele>212.11</ele>
        <time>2021-08-17T15:02:15Z</time>
      </trkpt>
      <trkpt lat="44.19582" lon="1.74276">
        <ele>209.22</ele>
        <time>2021-08-17T15:02:21Z</time>
      </trkpt>
      <trkpt lat="44.19577" lon="1.7425">
        <ele>206.34</ele>
        <time>2021-08-17T15:02:26Z</time>
      </trkpt>
      <trkpt lat="44.19574" lon="1.74245">
        <ele>205.86</ele>
        <time>2021-08-17T15:02:27Z</time>
      </trkpt>
      <trkpt lat="44.19568" lon="1.74219">
        <ele>203.46</ele>
        <time>2021-08-17T15:02:33Z</time>
      </trkpt>
      <trkpt lat="44.19566" lon="1.74201">
        <ele>201.05</ele>
        <time>2021-08-17T15:02:38Z</time>
      </trkpt>
      <trkpt lat="44.19565" lon="1.74198">
        <ele>201.05</ele>
        <time>2021-08-17T15:02:39Z</time>
      </trkpt>
      <trkpt lat="44.1956" lon="1.74179">
        <ele>198.17</ele>
        <time>2021-08-17T15:02:45Z</time>
      </trkpt>
      <trkpt lat="44.1956" lon="1.74176">
        <ele>198.17</ele>
        <time>2021-08-17T15:02:46Z</time>
      </trkpt>
      <trkpt lat="44.19561" lon="1.74171">
        <ele>198.17</ele>
        <time>2021-08-17T15:02:47Z</time>
      </trkpt>
      <trkpt lat="44.19561" lon="1.74167">
        <ele>198.17</ele>
        <time>2021-08-17T15:02:48Z</time>
      </trkpt>
      <trkpt lat="44.19562" lon="1.7416">
        <ele>197.21</ele>
        <time>2021-08-17T15:02:49Z</time>
      </trkpt>
      <trkpt lat="44.19561" lon="1.74156">
        <ele>197.69</ele>
        <time>2021-08-17T15:02:50Z</time>
      </trkpt>
      <trkpt lat="44.19554" lon="1.74134">
        <ele>197.21</ele>
        <time>2021-08-17T15:02:54Z</time>
      </trkpt>
      <trkpt lat="44.1955" lon="1.74131">
        <ele>196.25</ele>
        <time>2021-08-17T15:02:55Z</time>
      </trkpt>
      <trkpt lat="44.19547" lon="1.74129">
        <ele>196.25</ele>
        <time>2021-08-17T15:02:56Z</time>
      </trkpt>
      <trkpt lat="44.19543" lon="1.74126">
        <ele>195.77</ele>
        <time>2021-08-17T15:02:57Z</time>
      </trkpt>
      <trkpt lat="44.19539" lon="1.74124">
        <ele>195.77</ele>
        <time>2021-08-17T15:02:58Z</time>
      </trkpt>
      <trkpt lat="44.19535" lon="1.74123">
        <ele>195.28</ele>
        <time>2021-08-17T15:02:59Z</time>
      </trkpt>
      <trkpt lat="44.19519" lon="1.74124">
        <ele>194.32</ele>
        <time>2021-08-17T15:03:03Z</time>
      </trkpt>
      <trkpt lat="44.19502" lon="1.74129">
        <ele>193.36</ele>
        <time>2021-08-17T15:03:07Z</time>
      </trkpt>
      <trkpt lat="44.19497" lon="1.74132">
        <ele>192.88</ele>
        <time>2021-08-17T15:03:08Z</time>
      </trkpt>
      <trkpt lat="44.19482" lon="1.74146">
        <ele>192.88</ele>
        <time>2021-08-17T15:03:13Z</time>
      </trkpt>
      <trkpt lat="44.19478" lon="1.74149">
        <ele>192.4</ele>
        <time>2021-08-17T15:03:15Z</time>
      </trkpt>
      <trkpt lat="44.19476" lon="1.74149">
        <ele>192.4</ele>
        <time>2021-08-17T15:03:16Z</time>
      </trkpt>
      <trkpt lat="44.19471" lon="1.74151">
        <ele>192.4</ele>
        <time>2021-08-17T15:03:20Z</time>
      </trkpt>
      <trkpt lat="44.19469" lon="1.74153">
        <ele>191.92</ele>
        <time>2021-08-17T15:03:21Z</time>
      </trkpt>
      <trkpt lat="44.19468" lon="1.74154">
        <ele>191.92</ele>
        <time>2021-08-17T15:03:22Z</time>
      </trkpt>
      <trkpt lat="44.19466" lon="1.74154">
        <ele>191.92</ele>
        <time>2021-08-17T15:03:23Z</time>
      </trkpt>
      <trkpt lat="44.19465" lon="1.74155">
        <ele>191.92</ele>
        <time>2021-08-17T15:03:24Z</time>
      </trkpt>
      <trkpt lat="44.19462" lon="1.74157">
        <ele>191.92</ele>
        <time>2021-08-17T15:03:26Z</time>
      </trkpt>
      <trkpt lat="44.1946" lon="1.74157">
        <ele>191.92</ele>
        <time>2021-08-17T15:03:27Z</time>
      </trkpt>
      <trkpt lat="44.19458" lon="1.74158">
        <ele>191.92</ele>
        <time>2021-08-17T15:03:28Z</time>
      </trkpt>
      <trkpt lat="44.19456" lon="1.74159">
        <ele>191.92</ele>
        <time>2021-08-17T15:03:29Z</time>
      </trkpt>
      <trkpt lat="44.19453" lon="1.7416">
        <ele>191.92</ele>
        <time>2021-08-17T15:03:30Z</time>
      </trkpt>
      <trkpt lat="44.19451" lon="1.74161">
        <ele>191.92</ele>
        <time>2021-08-17T15:03:31Z</time>
      </trkpt>
      <trkpt lat="44.19432" lon="1.74169">
        <ele>190.96</ele>
        <time>2021-08-17T15:03:39Z</time>
      </trkpt>
      <trkpt lat="44.19419" lon="1.74177">
        <ele>190.48</ele>
        <time>2021-08-17T15:03:46Z</time>
      </trkpt>
      <trkpt lat="44.19407" lon="1.74186">
        <ele>190</ele>
        <time>2021-08-17T15:03:52Z</time>
      </trkpt>
      <trkpt lat="44.19394" lon="1.74197">
        <ele>190</ele>
        <time>2021-08-17T15:03:58Z</time>
      </trkpt>
      <trkpt lat="44.1938" lon="1.74209">
        <ele>189.52</ele>
        <time>2021-08-17T15:04:05Z</time>
      </trkpt>
      <trkpt lat="44.19369" lon="1.74215">
        <ele>189.04</ele>
        <time>2021-08-17T15:04:11Z</time>
      </trkpt>
      <trkpt lat="44.19353" lon="1.74222">
        <ele>188.56</ele>
        <time>2021-08-17T15:04:18Z</time>
      </trkpt>
      <trkpt lat="44.19349" lon="1.74224">
        <ele>188.56</ele>
        <time>2021-08-17T15:04:20Z</time>
      </trkpt>
      <trkpt lat="44.19346" lon="1.74225">
        <ele>188.56</ele>
        <time>2021-08-17T15:04:21Z</time>
      </trkpt>
      <trkpt lat="44.19342" lon="1.74226">
        <ele>188.56</ele>
        <time>2021-08-17T15:04:22Z</time>
      </trkpt>
      <trkpt lat="44.19322" lon="1.74226">
        <ele>188.08</ele>
        <time>2021-08-17T15:04:29Z</time>
      </trkpt>
      <trkpt lat="44.19308" lon="1.74214">
        <ele>187.59</ele>
        <time>2021-08-17T15:04:35Z</time>
      </trkpt>
      <trkpt lat="44.19306" lon="1.74211">
        <ele>187.59</ele>
        <time>2021-08-17T15:04:36Z</time>
      </trkpt>
      <trkpt lat="44.19305" lon="1.74208">
        <ele>187.59</ele>
        <time>2021-08-17T15:04:37Z</time>
      </trkpt>
      <trkpt lat="44.19304" lon="1.74205">
        <ele>187.59</ele>
        <time>2021-08-17T15:04:38Z</time>
      </trkpt>
      <trkpt lat="44.19302" lon="1.74197">
        <ele>187.59</ele>
        <time>2021-08-17T15:04:41Z</time>
      </trkpt>
      <trkpt lat="44.193" lon="1.74193">
        <ele>187.11</ele>
        <time>2021-08-17T15:04:43Z</time>
      </trkpt>
      <trkpt lat="44.19297" lon="1.74177">
        <ele>187.11</ele>
        <time>2021-08-17T15:04:50Z</time>
      </trkpt>
      <trkpt lat="44.19291" lon="1.74153">
        <ele>187.11</ele>
        <time>2021-08-17T15:04:58Z</time>
      </trkpt>
      <trkpt lat="44.1929" lon="1.74149">
        <ele>187.11</ele>
        <time>2021-08-17T15:04:59Z</time>
      </trkpt>
      <trkpt lat="44.1929" lon="1.74146">
        <ele>187.11</ele>
        <time>2021-08-17T15:05:00Z</time>
      </trkpt>
      <trkpt lat="44.19286" lon="1.74125">
        <ele>186.63</ele>
        <time>2021-08-17T15:05:06Z</time>
      </trkpt>
      <trkpt lat="44.1928" lon="1.74095">
        <ele>186.15</ele>
        <time>2021-08-17T15:05:13Z</time>
      </trkpt>
      <trkpt lat="44.19268" lon="1.74068">
        <ele>185.19</ele>
        <time>2021-08-17T15:05:20Z</time>
      </trkpt>
      <trkpt lat="44.19251" lon="1.74036">
        <ele>185.19</ele>
        <time>2021-08-17T15:05:27Z</time>
      </trkpt>
      <trkpt lat="44.19251" lon="1.74031">
        <ele>185.19</ele>
        <time>2021-08-17T15:05:28Z</time>
      </trkpt>
      <trkpt lat="44.19246" lon="1.74009">
        <ele>184.71</ele>
        <time>2021-08-17T15:05:33Z</time>
      </trkpt>
      <trkpt lat="44.19238" lon="1.73981">
        <ele>184.71</ele>
        <time>2021-08-17T15:05:39Z</time>
      </trkpt>
      <trkpt lat="44.19225" lon="1.73961">
        <ele>184.23</ele>
        <time>2021-08-17T15:05:43Z</time>
      </trkpt>
      <trkpt lat="44.19218" lon="1.73954">
        <ele>184.23</ele>
        <time>2021-08-17T15:05:45Z</time>
      </trkpt>
      <trkpt lat="44.19209" lon="1.73947">
        <ele>183.75</ele>
        <time>2021-08-17T15:05:47Z</time>
      </trkpt>
      <trkpt lat="44.19205" lon="1.73943">
        <ele>183.75</ele>
        <time>2021-08-17T15:05:48Z</time>
      </trkpt>
      <trkpt lat="44.19202" lon="1.73938">
        <ele>183.27</ele>
        <time>2021-08-17T15:05:49Z</time>
      </trkpt>
      <trkpt lat="44.19196" lon="1.73927">
        <ele>183.27</ele>
        <time>2021-08-17T15:05:51Z</time>
      </trkpt>
      <trkpt lat="44.19193" lon="1.73923">
        <ele>183.27</ele>
        <time>2021-08-17T15:05:52Z</time>
      </trkpt>
      <trkpt lat="44.1919" lon="1.73919">
        <ele>183.27</ele>
        <time>2021-08-17T15:05:53Z</time>
      </trkpt>
      <trkpt lat="44.19187" lon="1.73917">
        <ele>183.27</ele>
        <time>2021-08-17T15:05:54Z</time>
      </trkpt>
      <trkpt lat="44.19184" lon="1.73917">
        <ele>183.27</ele>
        <time>2021-08-17T15:05:55Z</time>
      </trkpt>
      <trkpt lat="44.19181" lon="1.73917">
        <ele>183.27</ele>
        <time>2021-08-17T15:05:56Z</time>
      </trkpt>
      <trkpt lat="44.19178" lon="1.73917">
        <ele>183.27</ele>
        <time>2021-08-17T15:05:57Z</time>
      </trkpt>
      <trkpt lat="44.19174" lon="1.73917">
        <ele>183.27</ele>
        <time>2021-08-17T15:05:58Z</time>
      </trkpt>
      <trkpt lat="44.19171" lon="1.73917">
        <ele>183.27</ele>
        <time>2021-08-17T15:05:59Z</time>
      </trkpt>
      <trkpt lat="44.19168" lon="1.73917">
        <ele>183.27</ele>
        <time>2021-08-17T15:06:00Z</time>
      </trkpt>
      <trkpt lat="44.19165" lon="1.73918">
        <ele>183.27</ele>
        <time>2021-08-17T15:06:01Z</time>
      </trkpt>
      <trkpt lat="44.19163" lon="1.73919">
        <ele>183.27</ele>
        <time>2021-08-17T15:06:02Z</time>
      </trkpt>
      <trkpt lat="44.1916" lon="1.73921">
        <ele>183.27</ele>
        <time>2021-08-17T15:06:03Z</time>
      </trkpt>
      <trkpt lat="44.19159" lon="1.73923">
        <ele>182.79</ele>
        <time>2021-08-17T15:06:04Z</time>
      </trkpt>
      <trkpt lat="44.19157" lon="1.73924">
        <ele>182.79</ele>
        <time>2021-08-17T15:06:05Z</time>
      </trkpt>
      <trkpt lat="44.19156" lon="1.73924">
        <ele>182.79</ele>
        <time>2021-08-17T15:06:06Z</time>
      </trkpt>
      <trkpt lat="44.19148" lon="1.73924">
        <ele>182.79</ele>
        <time>2021-08-17T15:06:10Z</time>
      </trkpt>
      <trkpt lat="44.19135" lon="1.73929">
        <ele>182.31</ele>
        <time>2021-08-17T15:06:16Z</time>
      </trkpt>
      <trkpt lat="44.19122" lon="1.73933">
        <ele>182.31</ele>
        <time>2021-08-17T15:06:23Z</time>
      </trkpt>
      <trkpt lat="44.19118" lon="1.73934">
        <ele>181.83</ele>
        <time>2021-08-17T15:06:25Z</time>
      </trkpt>
      <trkpt lat="44.19116" lon="1.73935">
        <ele>181.83</ele>
        <time>2021-08-17T15:06:26Z</time>
      </trkpt>
      <trkpt lat="44.19113" lon="1.73935">
        <ele>181.83</ele>
        <time>2021-08-17T15:06:27Z</time>
      </trkpt>
      <trkpt lat="44.19111" lon="1.73936">
        <ele>181.83</ele>
        <time>2021-08-17T15:06:28Z</time>
      </trkpt>
      <trkpt lat="44.19108" lon="1.73936">
        <ele>181.83</ele>
        <time>2021-08-17T15:06:29Z</time>
      </trkpt>
      <trkpt lat="44.19105" lon="1.73936">
        <ele>181.83</ele>
        <time>2021-08-17T15:06:30Z</time>
      </trkpt>
      <trkpt lat="44.19084" lon="1.73936">
        <ele>181.35</ele>
        <time>2021-08-17T15:06:37Z</time>
      </trkpt>
      <trkpt lat="44.19067" lon="1.73937">
        <ele>181.35</ele>
        <time>2021-08-17T15:06:42Z</time>
      </trkpt>
      <trkpt lat="44.19042" lon="1.73936">
        <ele>180.87</ele>
        <time>2021-08-17T15:06:48Z</time>
      </trkpt>
      <trkpt lat="44.19009" lon="1.7393">
        <ele>180.38</ele>
        <time>2021-08-17T15:06:56Z</time>
      </trkpt>
      <trkpt lat="44.18981" lon="1.73918">
        <ele>180.38</ele>
        <time>2021-08-17T15:07:02Z</time>
      </trkpt>
      <trkpt lat="44.18947" lon="1.73913">
        <ele>180.38</ele>
        <time>2021-08-17T15:07:10Z</time>
      </trkpt>
      <trkpt lat="44.18924" lon="1.73916">
        <ele>180.38</ele>
        <time>2021-08-17T15:07:16Z</time>
      </trkpt>
      <trkpt lat="44.18919" lon="1.73917">
        <ele>180.38</ele>
        <time>2021-08-17T15:07:17Z</time>
      </trkpt>
      <trkpt lat="44.18888" lon="1.73913">
        <ele>180.38</ele>
        <time>2021-08-17T15:07:24Z</time>
      </trkpt>
      <trkpt lat="44.18879" lon="1.7391">
        <ele>179.42</ele>
        <time>2021-08-17T15:07:26Z</time>
      </trkpt>
      <trkpt lat="44.18873" lon="1.73907">
        <ele>178.46</ele>
        <time>2021-08-17T15:07:27Z</time>
      </trkpt>
      <trkpt lat="44.18868" lon="1.73905">
        <ele>178.46</ele>
        <time>2021-08-17T15:07:28Z</time>
      </trkpt>
      <trkpt lat="44.18864" lon="1.73905">
        <ele>177.98</ele>
        <time>2021-08-17T15:07:29Z</time>
      </trkpt>
      <trkpt lat="44.18861" lon="1.73904">
        <ele>177.98</ele>
        <time>2021-08-17T15:07:30Z</time>
      </trkpt>
      <trkpt lat="44.18859" lon="1.73905">
        <ele>177.98</ele>
        <time>2021-08-17T15:07:31Z</time>
      </trkpt>
      <trkpt lat="44.18858" lon="1.73905">
        <ele>177.5</ele>
        <time>2021-08-17T15:07:32Z</time>
      </trkpt>
      <trkpt lat="44.18856" lon="1.73906">
        <ele>177.5</ele>
        <time>2021-08-17T15:07:33Z</time>
      </trkpt>
      <trkpt lat="44.18854" lon="1.73908">
        <ele>177.5</ele>
        <time>2021-08-17T15:07:34Z</time>
      </trkpt>
      <trkpt lat="44.18853" lon="1.73909">
        <ele>177.5</ele>
        <time>2021-08-17T15:07:35Z</time>
      </trkpt>
      <trkpt lat="44.18851" lon="1.73911">
        <ele>177.5</ele>
        <time>2021-08-17T15:07:36Z</time>
      </trkpt>
      <trkpt lat="44.18848" lon="1.73913">
        <ele>177.5</ele>
        <time>2021-08-17T15:07:37Z</time>
      </trkpt>
      <trkpt lat="44.18846" lon="1.73915">
        <ele>177.5</ele>
        <time>2021-08-17T15:07:38Z</time>
      </trkpt>
      <trkpt lat="44.18844" lon="1.73918">
        <ele>177.5</ele>
        <time>2021-08-17T15:07:39Z</time>
      </trkpt>
      <trkpt lat="44.18843" lon="1.7392">
        <ele>177.5</ele>
        <time>2021-08-17T15:07:40Z</time>
      </trkpt>
      <trkpt lat="44.18841" lon="1.73923">
        <ele>177.02</ele>
        <time>2021-08-17T15:07:41Z</time>
      </trkpt>
      <trkpt lat="44.18829" lon="1.73944">
        <ele>176.54</ele>
        <time>2021-08-17T15:07:46Z</time>
      </trkpt>
      <trkpt lat="44.18825" lon="1.73949">
        <ele>176.54</ele>
        <time>2021-08-17T15:07:47Z</time>
      </trkpt>
      <trkpt lat="44.18822" lon="1.73955">
        <ele>176.54</ele>
        <time>2021-08-17T15:07:48Z</time>
      </trkpt>
      <trkpt lat="44.18812" lon="1.73969">
        <ele>176.54</ele>
        <time>2021-08-17T15:07:51Z</time>
      </trkpt>
      <trkpt lat="44.18787" lon="1.73981">
        <ele>176.06</ele>
        <time>2021-08-17T15:07:57Z</time>
      </trkpt>
      <trkpt lat="44.18775" lon="1.73982">
        <ele>176.06</ele>
        <time>2021-08-17T15:07:59Z</time>
      </trkpt>
      <trkpt lat="44.18769" lon="1.73983">
        <ele>176.06</ele>
        <time>2021-08-17T15:08:00Z</time>
      </trkpt>
      <trkpt lat="44.18763" lon="1.73983">
        <ele>175.58</ele>
        <time>2021-08-17T15:08:01Z</time>
      </trkpt>
      <trkpt lat="44.18758" lon="1.73985">
        <ele>175.58</ele>
        <time>2021-08-17T15:08:02Z</time>
      </trkpt>
      <trkpt lat="44.18753" lon="1.73985">
        <ele>175.58</ele>
        <time>2021-08-17T15:08:03Z</time>
      </trkpt>
      <trkpt lat="44.18748" lon="1.73986">
        <ele>175.58</ele>
        <time>2021-08-17T15:08:04Z</time>
      </trkpt>
      <trkpt lat="44.18742" lon="1.73987">
        <ele>175.1</ele>
        <time>2021-08-17T15:08:05Z</time>
      </trkpt>
      <trkpt lat="44.18731" lon="1.73987">
        <ele>175.1</ele>
        <time>2021-08-17T15:08:07Z</time>
      </trkpt>
      <trkpt lat="44.18725" lon="1.73988">
        <ele>175.1</ele>
        <time>2021-08-17T15:08:08Z</time>
      </trkpt>
      <trkpt lat="44.18719" lon="1.73989">
        <ele>175.1</ele>
        <time>2021-08-17T15:08:09Z</time>
      </trkpt>
      <trkpt lat="44.18714" lon="1.73991">
        <ele>175.1</ele>
        <time>2021-08-17T15:08:10Z</time>
      </trkpt>
      <trkpt lat="44.18709" lon="1.73993">
        <ele>175.1</ele>
        <time>2021-08-17T15:08:11Z</time>
      </trkpt>
      <trkpt lat="44.18691" lon="1.74004">
        <ele>174.62</ele>
        <time>2021-08-17T15:08:16Z</time>
      </trkpt>
      <trkpt lat="44.18684" lon="1.74013">
        <ele>174.62</ele>
        <time>2021-08-17T15:08:18Z</time>
      </trkpt>
      <trkpt lat="44.1868" lon="1.74016">
        <ele>174.62</ele>
        <time>2021-08-17T15:08:19Z</time>
      </trkpt>
      <trkpt lat="44.18675" lon="1.74019">
        <ele>174.62</ele>
        <time>2021-08-17T15:08:20Z</time>
      </trkpt>
      <trkpt lat="44.18671" lon="1.74022">
        <ele>174.62</ele>
        <time>2021-08-17T15:08:21Z</time>
      </trkpt>
      <trkpt lat="44.18666" lon="1.74024">
        <ele>175.1</ele>
        <time>2021-08-17T15:08:22Z</time>
      </trkpt>
      <trkpt lat="44.18654" lon="1.74028">
        <ele>176.06</ele>
        <time>2021-08-17T15:08:25Z</time>
      </trkpt>
      <trkpt lat="44.18633" lon="1.74035">
        <ele>176.54</ele>
        <time>2021-08-17T15:08:32Z</time>
      </trkpt>
      <trkpt lat="44.18617" lon="1.74038">
        <ele>177.98</ele>
        <time>2021-08-17T15:08:39Z</time>
      </trkpt>
      <trkpt lat="44.18599" lon="1.74038">
        <ele>178.46</ele>
        <time>2021-08-17T15:08:46Z</time>
      </trkpt>
      <trkpt lat="44.18579" lon="1.74038">
        <ele>178.46</ele>
        <time>2021-08-17T15:08:52Z</time>
      </trkpt>
      <trkpt lat="44.18556" lon="1.74036">
        <ele>178.46</ele>
        <time>2021-08-17T15:08:58Z</time>
      </trkpt>
      <trkpt lat="44.18521" lon="1.74027">
        <ele>176.06</ele>
        <time>2021-08-17T15:09:05Z</time>
      </trkpt>
      <trkpt lat="44.18511" lon="1.74026">
        <ele>174.62</ele>
        <time>2021-08-17T15:09:07Z</time>
      </trkpt>
      <trkpt lat="44.18492" lon="1.74026">
        <ele>174.14</ele>
        <time>2021-08-17T15:09:11Z</time>
      </trkpt>
      <trkpt lat="44.18485" lon="1.74025">
        <ele>174.14</ele>
        <time>2021-08-17T15:09:12Z</time>
      </trkpt>
      <trkpt lat="44.18443" lon="1.74031">
        <ele>173.66</ele>
        <time>2021-08-17T15:09:17Z</time>
      </trkpt>
      <trkpt lat="44.18394" lon="1.74054">
        <ele>173.17</ele>
        <time>2021-08-17T15:09:23Z</time>
      </trkpt>
      <trkpt lat="44.18338" lon="1.74073">
        <ele>173.66</ele>
        <time>2021-08-17T15:09:30Z</time>
      </trkpt>
      <trkpt lat="44.18313" lon="1.74079">
        <ele>173.66</ele>
        <time>2021-08-17T15:09:34Z</time>
      </trkpt>
      <trkpt lat="44.18292" lon="1.74087">
        <ele>173.66</ele>
        <time>2021-08-17T15:09:38Z</time>
      </trkpt>
      <trkpt lat="44.18289" lon="1.74092">
        <ele>173.66</ele>
        <time>2021-08-17T15:09:39Z</time>
      </trkpt>
      <trkpt lat="44.18287" lon="1.74098">
        <ele>173.66</ele>
        <time>2021-08-17T15:09:40Z</time>
      </trkpt>
      <trkpt lat="44.18287" lon="1.74105">
        <ele>173.66</ele>
        <time>2021-08-17T15:09:41Z</time>
      </trkpt>
      <trkpt lat="44.18287" lon="1.74112">
        <ele>173.66</ele>
        <time>2021-08-17T15:09:42Z</time>
      </trkpt>
      <trkpt lat="44.18288" lon="1.74128">
        <ele>173.66</ele>
        <time>2021-08-17T15:09:44Z</time>
      </trkpt>
      <trkpt lat="44.18287" lon="1.74135">
        <ele>172.69</ele>
        <time>2021-08-17T15:09:45Z</time>
      </trkpt>
      <trkpt lat="44.18286" lon="1.74143">
        <ele>172.69</ele>
        <time>2021-08-17T15:09:46Z</time>
      </trkpt>
      <trkpt lat="44.18283" lon="1.7415">
        <ele>172.69</ele>
        <time>2021-08-17T15:09:47Z</time>
      </trkpt>
      <trkpt lat="44.18279" lon="1.74157">
        <ele>172.69</ele>
        <time>2021-08-17T15:09:48Z</time>
      </trkpt>
      <trkpt lat="44.18274" lon="1.74165">
        <ele>172.69</ele>
        <time>2021-08-17T15:09:49Z</time>
      </trkpt>
      <trkpt lat="44.1827" lon="1.74171">
        <ele>172.69</ele>
        <time>2021-08-17T15:09:50Z</time>
      </trkpt>
      <trkpt lat="44.18265" lon="1.74177">
        <ele>172.69</ele>
        <time>2021-08-17T15:09:51Z</time>
      </trkpt>
      <trkpt lat="44.18244" lon="1.74224">
        <ele>172.21</ele>
        <time>2021-08-17T15:09:57Z</time>
      </trkpt>
      <trkpt lat="44.18228" lon="1.74285">
        <ele>172.21</ele>
        <time>2021-08-17T15:10:04Z</time>
      </trkpt>
      <trkpt lat="44.18216" lon="1.74331">
        <ele>172.69</ele>
        <time>2021-08-17T15:10:10Z</time>
      </trkpt>
      <trkpt lat="44.18213" lon="1.74338">
        <ele>172.21</ele>
        <time>2021-08-17T15:10:11Z</time>
      </trkpt>
      <trkpt lat="44.18205" lon="1.7436">
        <ele>172.21</ele>
        <time>2021-08-17T15:10:14Z</time>
      </trkpt>
      <trkpt lat="44.182" lon="1.74374">
        <ele>172.21</ele>
        <time>2021-08-17T15:10:16Z</time>
      </trkpt>
      <trkpt lat="44.18173" lon="1.74435">
        <ele>172.21</ele>
        <time>2021-08-17T15:10:24Z</time>
      </trkpt>
      <trkpt lat="44.18162" lon="1.74456">
        <ele>172.21</ele>
        <time>2021-08-17T15:10:27Z</time>
      </trkpt>
      <trkpt lat="44.18147" lon="1.74487">
        <ele>173.66</ele>
        <time>2021-08-17T15:10:32Z</time>
      </trkpt>
      <trkpt lat="44.18145" lon="1.74493">
        <ele>173.66</ele>
        <time>2021-08-17T15:10:33Z</time>
      </trkpt>
      <trkpt lat="44.18143" lon="1.745">
        <ele>173.66</ele>
        <time>2021-08-17T15:10:34Z</time>
      </trkpt>
      <trkpt lat="44.18139" lon="1.74507">
        <ele>173.66</ele>
        <time>2021-08-17T15:10:35Z</time>
      </trkpt>
      <trkpt lat="44.18128" lon="1.74526">
        <ele>173.66</ele>
        <time>2021-08-17T15:10:38Z</time>
      </trkpt>
      <trkpt lat="44.1812" lon="1.74539">
        <ele>173.66</ele>
        <time>2021-08-17T15:10:40Z</time>
      </trkpt>
      <trkpt lat="44.18085" lon="1.74586">
        <ele>173.66</ele>
        <time>2021-08-17T15:10:48Z</time>
      </trkpt>
      <trkpt lat="44.1808" lon="1.7459">
        <ele>173.66</ele>
        <time>2021-08-17T15:10:49Z</time>
      </trkpt>
      <trkpt lat="44.18075" lon="1.74594">
        <ele>173.66</ele>
        <time>2021-08-17T15:10:50Z</time>
      </trkpt>
      <trkpt lat="44.18034" lon="1.74619">
        <ele>173.66</ele>
        <time>2021-08-17T15:10:58Z</time>
      </trkpt>
      <trkpt lat="44.18006" lon="1.74636">
        <ele>172.69</ele>
        <time>2021-08-17T15:11:03Z</time>
      </trkpt>
      <trkpt lat="44.17989" lon="1.74647">
        <ele>172.21</ele>
        <time>2021-08-17T15:11:06Z</time>
      </trkpt>
      <trkpt lat="44.17984" lon="1.74652">
        <ele>172.21</ele>
        <time>2021-08-17T15:11:07Z</time>
      </trkpt>
      <trkpt lat="44.17979" lon="1.74658">
        <ele>171.73</ele>
        <time>2021-08-17T15:11:08Z</time>
      </trkpt>
      <trkpt lat="44.17975" lon="1.74666">
        <ele>171.25</ele>
        <time>2021-08-17T15:11:09Z</time>
      </trkpt>
      <trkpt lat="44.17971" lon="1.74675">
        <ele>170.29</ele>
        <time>2021-08-17T15:11:10Z</time>
      </trkpt>
      <trkpt lat="44.17966" lon="1.74685">
        <ele>169.81</ele>
        <time>2021-08-17T15:11:11Z</time>
      </trkpt>
      <trkpt lat="44.17957" lon="1.74703">
        <ele>168.85</ele>
        <time>2021-08-17T15:11:13Z</time>
      </trkpt>
      <trkpt lat="44.17926" lon="1.74747">
        <ele>168.85</ele>
        <time>2021-08-17T15:11:19Z</time>
      </trkpt>
      <trkpt lat="44.17897" lon="1.74786">
        <ele>168.85</ele>
        <time>2021-08-17T15:11:25Z</time>
      </trkpt>
      <trkpt lat="44.17863" lon="1.74841">
        <ele>168.85</ele>
        <time>2021-08-17T15:11:33Z</time>
      </trkpt>
      <trkpt lat="44.1782" lon="1.74907">
        <ele>167.89</ele>
        <time>2021-08-17T15:11:43Z</time>
      </trkpt>
      <trkpt lat="44.17795" lon="1.74937">
        <ele>166.93</ele>
        <time>2021-08-17T15:11:48Z</time>
      </trkpt>
      <trkpt lat="44.17789" lon="1.74941">
        <ele>166.93</ele>
        <time>2021-08-17T15:11:49Z</time>
      </trkpt>
      <trkpt lat="44.17766" lon="1.74959">
        <ele>165</ele>
        <time>2021-08-17T15:11:53Z</time>
      </trkpt>
      <trkpt lat="44.17761" lon="1.74965">
        <ele>165</ele>
        <time>2021-08-17T15:11:54Z</time>
      </trkpt>
      <trkpt lat="44.17756" lon="1.74971">
        <ele>164.52</ele>
        <time>2021-08-17T15:11:55Z</time>
      </trkpt>
      <trkpt lat="44.17752" lon="1.74978">
        <ele>164.04</ele>
        <time>2021-08-17T15:11:56Z</time>
      </trkpt>
      <trkpt lat="44.17748" lon="1.74985">
        <ele>163.56</ele>
        <time>2021-08-17T15:11:57Z</time>
      </trkpt>
      <trkpt lat="44.17744" lon="1.74991">
        <ele>163.56</ele>
        <time>2021-08-17T15:11:58Z</time>
      </trkpt>
      <trkpt lat="44.17732" lon="1.75011">
        <ele>161.64</ele>
        <time>2021-08-17T15:12:03Z</time>
      </trkpt>
      <trkpt lat="44.17731" lon="1.75013">
        <ele>161.64</ele>
        <time>2021-08-17T15:12:04Z</time>
      </trkpt>
      <trkpt lat="44.17732" lon="1.75016">
        <ele>161.16</ele>
        <time>2021-08-17T15:12:05Z</time>
      </trkpt>
      <trkpt lat="44.17734" lon="1.75018">
        <ele>161.16</ele>
        <time>2021-08-17T15:12:06Z</time>
      </trkpt>
      <trkpt lat="44.17735" lon="1.7502">
        <ele>161.16</ele>
        <time>2021-08-17T15:12:07Z</time>
      </trkpt>
      <trkpt lat="44.17738" lon="1.75022">
        <ele>161.16</ele>
        <time>2021-08-17T15:12:08Z</time>
      </trkpt>
      <trkpt lat="44.17756" lon="1.75036">
        <ele>161.16</ele>
        <time>2021-08-17T15:12:14Z</time>
      </trkpt>
      <trkpt lat="44.17791" lon="1.75061">
        <ele>161.16</ele>
        <time>2021-08-17T15:12:23Z</time>
      </trkpt>
      <trkpt lat="44.17794" lon="1.75064">
        <ele>161.16</ele>
        <time>2021-08-17T15:12:24Z</time>
      </trkpt>
      <trkpt lat="44.17823" lon="1.75082">
        <ele>162.6</ele>
        <time>2021-08-17T15:12:32Z</time>
      </trkpt>
      <trkpt lat="44.17853" lon="1.75098">
        <ele>163.56</ele>
        <time>2021-08-17T15:12:41Z</time>
      </trkpt>
      <trkpt lat="44.17876" lon="1.751">
        <ele>164.52</ele>
        <time>2021-08-17T15:12:48Z</time>
      </trkpt>
      <trkpt lat="44.17899" lon="1.75105">
        <ele>165</ele>
        <time>2021-08-17T15:12:56Z</time>
      </trkpt>
      <trkpt lat="44.17908" lon="1.75107">
        <ele>165</ele>
        <time>2021-08-17T15:12:58Z</time>
      </trkpt>
      <trkpt lat="44.17912" lon="1.75107">
        <ele>163.08</ele>
        <time>2021-08-17T15:12:59Z</time>
      </trkpt>
      <trkpt lat="44.17918" lon="1.75109">
        <ele>163.08</ele>
        <time>2021-08-17T15:13:00Z</time>
      </trkpt>
      <trkpt lat="44.17922" lon="1.75112">
        <ele>162.6</ele>
        <time>2021-08-17T15:13:01Z</time>
      </trkpt>
      <trkpt lat="44.17926" lon="1.75117">
        <ele>162.12</ele>
        <time>2021-08-17T15:13:02Z</time>
      </trkpt>
      <trkpt lat="44.17929" lon="1.75124">
        <ele>161.64</ele>
        <time>2021-08-17T15:13:03Z</time>
      </trkpt>
      <trkpt lat="44.17933" lon="1.75133">
        <ele>159.72</ele>
        <time>2021-08-17T15:13:04Z</time>
      </trkpt>
      <trkpt lat="44.17937" lon="1.75141">
        <ele>159.24</ele>
        <time>2021-08-17T15:13:05Z</time>
      </trkpt>
      <trkpt lat="44.17946" lon="1.75163">
        <ele>156.35</ele>
        <time>2021-08-17T15:13:07Z</time>
      </trkpt>
      <trkpt lat="44.17963" lon="1.75209">
        <ele>152.99</ele>
        <time>2021-08-17T15:13:11Z</time>
      </trkpt>
      <trkpt lat="44.17968" lon="1.7522">
        <ele>152.99</ele>
        <time>2021-08-17T15:13:12Z</time>
      </trkpt>
      <trkpt lat="44.17984" lon="1.75262">
        <ele>152.99</ele>
        <time>2021-08-17T15:13:16Z</time>
      </trkpt>
      <trkpt lat="44.17985" lon="1.75271">
        <ele>152.99</ele>
        <time>2021-08-17T15:13:17Z</time>
      </trkpt>
      <trkpt lat="44.17986" lon="1.75281">
        <ele>152.99</ele>
        <time>2021-08-17T15:13:18Z</time>
      </trkpt>
      <trkpt lat="44.17987" lon="1.75289">
        <ele>152.99</ele>
        <time>2021-08-17T15:13:19Z</time>
      </trkpt>
      <trkpt lat="44.17989" lon="1.75298">
        <ele>152.99</ele>
        <time>2021-08-17T15:13:20Z</time>
      </trkpt>
      <trkpt lat="44.1799" lon="1.75306">
        <ele>152.99</ele>
        <time>2021-08-17T15:13:21Z</time>
      </trkpt>
      <trkpt lat="44.17995" lon="1.7533">
        <ele>154.43</ele>
        <time>2021-08-17T15:13:24Z</time>
      </trkpt>
      <trkpt lat="44.18002" lon="1.75373">
        <ele>154.91</ele>
        <time>2021-08-17T15:13:30Z</time>
      </trkpt>
      <trkpt lat="44.18019" lon="1.75439">
        <ele>155.87</ele>
        <time>2021-08-17T15:13:40Z</time>
      </trkpt>
      <trkpt lat="44.18019" lon="1.75445">
        <ele>155.87</ele>
        <time>2021-08-17T15:13:41Z</time>
      </trkpt>
      <trkpt lat="44.1802" lon="1.75458">
        <ele>155.87</ele>
        <time>2021-08-17T15:13:43Z</time>
      </trkpt>
      <trkpt lat="44.18015" lon="1.75506">
        <ele>157.31</ele>
        <time>2021-08-17T15:13:52Z</time>
      </trkpt>
      <trkpt lat="44.18008" lon="1.75545">
        <ele>158.27</ele>
        <time>2021-08-17T15:14:01Z</time>
      </trkpt>
      <trkpt lat="44.18002" lon="1.75582">
        <ele>159.72</ele>
        <time>2021-08-17T15:14:10Z</time>
      </trkpt>
      <trkpt lat="44.17998" lon="1.75587">
        <ele>159.72</ele>
        <time>2021-08-17T15:14:12Z</time>
      </trkpt>
      <trkpt lat="44.17995" lon="1.75588">
        <ele>159.72</ele>
        <time>2021-08-17T15:14:13Z</time>
      </trkpt>
      <trkpt lat="44.17992" lon="1.75588">
        <ele>159.72</ele>
        <time>2021-08-17T15:14:14Z</time>
      </trkpt>
      <trkpt lat="44.17989" lon="1.75588">
        <ele>159.72</ele>
        <time>2021-08-17T15:14:15Z</time>
      </trkpt>
      <trkpt lat="44.17987" lon="1.75587">
        <ele>159.72</ele>
        <time>2021-08-17T15:14:16Z</time>
      </trkpt>
      <trkpt lat="44.17984" lon="1.75586">
        <ele>159.72</ele>
        <time>2021-08-17T15:14:17Z</time>
      </trkpt>
      <trkpt lat="44.17982" lon="1.75584">
        <ele>160.68</ele>
        <time>2021-08-17T15:14:18Z</time>
      </trkpt>
      <trkpt lat="44.17979" lon="1.75582">
        <ele>160.68</ele>
        <time>2021-08-17T15:14:19Z</time>
      </trkpt>
      <trkpt lat="44.17977" lon="1.7558">
        <ele>160.68</ele>
        <time>2021-08-17T15:14:20Z</time>
      </trkpt>
      <trkpt lat="44.17975" lon="1.75578">
        <ele>160.68</ele>
        <time>2021-08-17T15:14:21Z</time>
      </trkpt>
      <trkpt lat="44.17962" lon="1.75566">
        <ele>161.64</ele>
        <time>2021-08-17T15:14:29Z</time>
      </trkpt>
      <trkpt lat="44.1795" lon="1.75555">
        <ele>163.56</ele>
        <time>2021-08-17T15:14:38Z</time>
      </trkpt>
      <trkpt lat="44.17942" lon="1.75546">
        <ele>165.48</ele>
        <time>2021-08-17T15:14:47Z</time>
      </trkpt>
      <trkpt lat="44.17941" lon="1.75544">
        <ele>165.96</ele>
        <time>2021-08-17T15:14:49Z</time>
      </trkpt>
      <trkpt lat="44.1794" lon="1.75543">
        <ele>165.96</ele>
        <time>2021-08-17T15:14:50Z</time>
      </trkpt>
      <trkpt lat="44.17938" lon="1.75541">
        <ele>166.45</ele>
        <time>2021-08-17T15:14:52Z</time>
      </trkpt>
      <trkpt lat="44.17937" lon="1.7554">
        <ele>166.45</ele>
        <time>2021-08-17T15:14:53Z</time>
      </trkpt>
      <trkpt lat="44.17936" lon="1.75539">
        <ele>166.93</ele>
        <time>2021-08-17T15:14:54Z</time>
      </trkpt>
      <trkpt lat="44.17935" lon="1.75539">
        <ele>166.93</ele>
        <time>2021-08-17T15:14:55Z</time>
      </trkpt>
      <trkpt lat="44.17934" lon="1.75538">
        <ele>167.41</ele>
        <time>2021-08-17T15:14:56Z</time>
      </trkpt>
      <trkpt lat="44.17933" lon="1.75537">
        <ele>167.41</ele>
        <time>2021-08-17T15:14:57Z</time>
      </trkpt>
      <trkpt lat="44.17931" lon="1.75536">
        <ele>167.41</ele>
        <time>2021-08-17T15:14:58Z</time>
      </trkpt>
      <trkpt lat="44.1793" lon="1.75535">
        <ele>167.89</ele>
        <time>2021-08-17T15:14:59Z</time>
      </trkpt>
      <trkpt lat="44.17929" lon="1.75533">
        <ele>167.89</ele>
        <time>2021-08-17T15:15:00Z</time>
      </trkpt>
      <trkpt lat="44.17928" lon="1.75532">
        <ele>167.89</ele>
        <time>2021-08-17T15:15:01Z</time>
      </trkpt>
      <trkpt lat="44.17927" lon="1.75531">
        <ele>167.89</ele>
        <time>2021-08-17T15:15:02Z</time>
      </trkpt>
      <trkpt lat="44.17926" lon="1.7553">
        <ele>167.89</ele>
        <time>2021-08-17T15:15:03Z</time>
      </trkpt>
      <trkpt lat="44.17924" lon="1.75528">
        <ele>167.89</ele>
        <time>2021-08-17T15:15:04Z</time>
      </trkpt>
      <trkpt lat="44.17923" lon="1.75525">
        <ele>167.89</ele>
        <time>2021-08-17T15:15:05Z</time>
      </trkpt>
      <trkpt lat="44.17921" lon="1.75523">
        <ele>167.89</ele>
        <time>2021-08-17T15:15:06Z</time>
      </trkpt>
      <trkpt lat="44.17919" lon="1.75521">
        <ele>167.89</ele>
        <time>2021-08-17T15:15:07Z</time>
      </trkpt>
      <trkpt lat="44.17906" lon="1.75507">
        <ele>167.89</ele>
        <time>2021-08-17T15:15:13Z</time>
      </trkpt>
      <trkpt lat="44.17893" lon="1.75494">
        <ele>167.89</ele>
        <time>2021-08-17T15:15:20Z</time>
      </trkpt>
      <trkpt lat="44.17874" lon="1.75468">
        <ele>167.89</ele>
        <time>2021-08-17T15:15:27Z</time>
      </trkpt>
      <trkpt lat="44.17856" lon="1.75431">
        <ele>167.89</ele>
        <time>2021-08-17T15:15:35Z</time>
      </trkpt>
      <trkpt lat="44.17838" lon="1.75398">
        <ele>168.85</ele>
        <time>2021-08-17T15:15:43Z</time>
      </trkpt>
      <trkpt lat="44.17831" lon="1.7539">
        <ele>168.85</ele>
        <time>2021-08-17T15:15:45Z</time>
      </trkpt>
      <trkpt lat="44.17799" lon="1.75352">
        <ele>168.85</ele>
        <time>2021-08-17T15:15:56Z</time>
      </trkpt>
      <trkpt lat="44.17766" lon="1.75316">
        <ele>169.33</ele>
        <time>2021-08-17T15:16:06Z</time>
      </trkpt>
      <trkpt lat="44.17763" lon="1.75311">
        <ele>169.81</ele>
        <time>2021-08-17T15:16:07Z</time>
      </trkpt>
      <trkpt lat="44.17741" lon="1.75271">
        <ele>169.81</ele>
        <time>2021-08-17T15:16:15Z</time>
      </trkpt>
      <trkpt lat="44.17724" lon="1.75246">
        <ele>170.29</ele>
        <time>2021-08-17T15:16:22Z</time>
      </trkpt>
      <trkpt lat="44.17702" lon="1.75229">
        <ele>171.25</ele>
        <time>2021-08-17T15:16:29Z</time>
      </trkpt>
      <trkpt lat="44.17671" lon="1.75212">
        <ele>171.73</ele>
        <time>2021-08-17T15:16:38Z</time>
      </trkpt>
      <trkpt lat="44.17642" lon="1.752">
        <ele>172.21</ele>
        <time>2021-08-17T15:16:46Z</time>
      </trkpt>
      <trkpt lat="44.17609" lon="1.75191">
        <ele>172.21</ele>
        <time>2021-08-17T15:16:55Z</time>
      </trkpt>
      <trkpt lat="44.1759" lon="1.75187">
        <ele>172.69</ele>
        <time>2021-08-17T15:17:00Z</time>
      </trkpt>
      <trkpt lat="44.17573" lon="1.7518">
        <ele>172.69</ele>
        <time>2021-08-17T15:17:04Z</time>
      </trkpt>
      <trkpt lat="44.17531" lon="1.75174">
        <ele>172.69</ele>
        <time>2021-08-17T15:17:12Z</time>
      </trkpt>
      <trkpt lat="44.17525" lon="1.75174">
        <ele>172.69</ele>
        <time>2021-08-17T15:17:13Z</time>
      </trkpt>
      <trkpt lat="44.1752" lon="1.75175">
        <ele>172.69</ele>
        <time>2021-08-17T15:17:14Z</time>
      </trkpt>
      <trkpt lat="44.17472" lon="1.75182">
        <ele>170.77</ele>
        <time>2021-08-17T15:17:22Z</time>
      </trkpt>
      <trkpt lat="44.1746" lon="1.75181">
        <ele>170.77</ele>
        <time>2021-08-17T15:17:24Z</time>
      </trkpt>
      <trkpt lat="44.17454" lon="1.75179">
        <ele>170.29</ele>
        <time>2021-08-17T15:17:25Z</time>
      </trkpt>
      <trkpt lat="44.17405" lon="1.75157">
        <ele>169.81</ele>
        <time>2021-08-17T15:17:33Z</time>
      </trkpt>
      <trkpt lat="44.17321" lon="1.75129">
        <ele>167.89</ele>
        <time>2021-08-17T15:17:46Z</time>
      </trkpt>
      <trkpt lat="44.17272" lon="1.75107">
        <ele>166.45</ele>
        <time>2021-08-17T15:17:54Z</time>
      </trkpt>
      <trkpt lat="44.17259" lon="1.75103">
        <ele>166.45</ele>
        <time>2021-08-17T15:17:56Z</time>
      </trkpt>
      <trkpt lat="44.17253" lon="1.75102">
        <ele>166.45</ele>
        <time>2021-08-17T15:17:57Z</time>
      </trkpt>
      <trkpt lat="44.17247" lon="1.75103">
        <ele>166.45</ele>
        <time>2021-08-17T15:17:58Z</time>
      </trkpt>
      <trkpt lat="44.17188" lon="1.75112">
        <ele>165.48</ele>
        <time>2021-08-17T15:18:08Z</time>
      </trkpt>
      <trkpt lat="44.17166" lon="1.75116">
        <ele>165.48</ele>
        <time>2021-08-17T15:18:12Z</time>
      </trkpt>
      <trkpt lat="44.1716" lon="1.75115">
        <ele>165.48</ele>
        <time>2021-08-17T15:18:13Z</time>
      </trkpt>
      <trkpt lat="44.17125" lon="1.75113">
        <ele>165.96</ele>
        <time>2021-08-17T15:18:20Z</time>
      </trkpt>
      <trkpt lat="44.17101" lon="1.7511">
        <ele>167.89</ele>
        <time>2021-08-17T15:18:27Z</time>
      </trkpt>
      <trkpt lat="44.17079" lon="1.75109">
        <ele>168.37</ele>
        <time>2021-08-17T15:18:34Z</time>
      </trkpt>
      <trkpt lat="44.1705" lon="1.75105">
        <ele>168.85</ele>
        <time>2021-08-17T15:18:42Z</time>
      </trkpt>
      <trkpt lat="44.17022" lon="1.75095">
        <ele>167.41</ele>
        <time>2021-08-17T15:18:48Z</time>
      </trkpt>
      <trkpt lat="44.16977" lon="1.75078">
        <ele>165.96</ele>
        <time>2021-08-17T15:18:56Z</time>
      </trkpt>
      <trkpt lat="44.16927" lon="1.7507">
        <ele>165</ele>
        <time>2021-08-17T15:19:04Z</time>
      </trkpt>
      <trkpt lat="44.16896" lon="1.75069">
        <ele>162.6</ele>
        <time>2021-08-17T15:19:09Z</time>
      </trkpt>
      <trkpt lat="44.16855" lon="1.75078">
        <ele>161.16</ele>
        <time>2021-08-17T15:19:15Z</time>
      </trkpt>
      <trkpt lat="44.16809" lon="1.75094">
        <ele>157.79</ele>
        <time>2021-08-17T15:19:21Z</time>
      </trkpt>
      <trkpt lat="44.16802" lon="1.75096">
        <ele>157.31</ele>
        <time>2021-08-17T15:19:22Z</time>
      </trkpt>
      <trkpt lat="44.1678" lon="1.75105">
        <ele>155.39</ele>
        <time>2021-08-17T15:19:27Z</time>
      </trkpt>
      <trkpt lat="44.16769" lon="1.7511">
        <ele>154.91</ele>
        <time>2021-08-17T15:19:30Z</time>
      </trkpt>
      <trkpt lat="44.16766" lon="1.75114">
        <ele>154.43</ele>
        <time>2021-08-17T15:19:31Z</time>
      </trkpt>
      <trkpt lat="44.16764" lon="1.75119">
        <ele>154.43</ele>
        <time>2021-08-17T15:19:32Z</time>
      </trkpt>
      <trkpt lat="44.16762" lon="1.75124">
        <ele>154.43</ele>
        <time>2021-08-17T15:19:33Z</time>
      </trkpt>
      <trkpt lat="44.16761" lon="1.75127">
        <ele>154.43</ele>
        <time>2021-08-17T15:19:34Z</time>
      </trkpt>
      <trkpt lat="44.16761" lon="1.7513">
        <ele>154.43</ele>
        <time>2021-08-17T15:19:35Z</time>
      </trkpt>
      <trkpt lat="44.16761" lon="1.75131">
        <ele>155.39</ele>
        <time>2021-08-17T15:19:36Z</time>
      </trkpt>
      <trkpt lat="44.1676" lon="1.75132">
        <ele>155.39</ele>
        <time>2021-08-17T15:19:37Z</time>
      </trkpt>
      <trkpt lat="44.16758" lon="1.75138">
        <ele>156.83</ele>
        <time>2021-08-17T15:19:41Z</time>
      </trkpt>
      <trkpt lat="44.16755" lon="1.75149">
        <ele>158.27</ele>
        <time>2021-08-17T15:19:49Z</time>
      </trkpt>
      <trkpt lat="44.16755" lon="1.75157">
        <ele>158.75</ele>
        <time>2021-08-17T15:19:55Z</time>
      </trkpt>
      <trkpt lat="44.16755" lon="1.75158">
        <ele>159.24</ele>
        <time>2021-08-17T15:19:56Z</time>
      </trkpt>
      <trkpt lat="44.16752" lon="1.75169">
        <ele>160.68</ele>
        <time>2021-08-17T15:20:03Z</time>
      </trkpt>
      <trkpt lat="44.16744" lon="1.75181">
        <ele>160.68</ele>
        <time>2021-08-17T15:20:12Z</time>
      </trkpt>
      <trkpt lat="44.16736" lon="1.75191">
        <ele>161.64</ele>
        <time>2021-08-17T15:20:19Z</time>
      </trkpt>
      <trkpt lat="44.16729" lon="1.75199">
        <ele>162.6</ele>
        <time>2021-08-17T15:20:26Z</time>
      </trkpt>
      <trkpt lat="44.16727" lon="1.75201">
        <ele>163.08</ele>
        <time>2021-08-17T15:20:31Z</time>
      </trkpt>
      <trkpt lat="44.16722" lon="1.75206">
        <ele>163.56</ele>
        <time>2021-08-17T15:20:37Z</time>
      </trkpt>
      <trkpt lat="44.16716" lon="1.75211">
        <ele>165.48</ele>
        <time>2021-08-17T15:20:46Z</time>
      </trkpt>
      <trkpt lat="44.16712" lon="1.75214">
        <ele>166.45</ele>
        <time>2021-08-17T15:20:55Z</time>
      </trkpt>
      <trkpt lat="44.16707" lon="1.75219">
        <ele>167.89</ele>
        <time>2021-08-17T15:21:03Z</time>
      </trkpt>
      <trkpt lat="44.16703" lon="1.75224">
        <ele>169.33</ele>
        <time>2021-08-17T15:21:12Z</time>
      </trkpt>
      <trkpt lat="44.16699" lon="1.75228">
        <ele>169.81</ele>
        <time>2021-08-17T15:21:22Z</time>
      </trkpt>
      <trkpt lat="44.16693" lon="1.75233">
        <ele>171.25</ele>
        <time>2021-08-17T15:21:31Z</time>
      </trkpt>
      <trkpt lat="44.16686" lon="1.75238">
        <ele>172.21</ele>
        <time>2021-08-17T15:21:40Z</time>
      </trkpt>
      <trkpt lat="44.16684" lon="1.75239">
        <ele>172.21</ele>
        <time>2021-08-17T15:21:44Z</time>
      </trkpt>
      <trkpt lat="44.16683" lon="1.7524">
        <ele>172.21</ele>
        <time>2021-08-17T15:21:45Z</time>
      </trkpt>
      <trkpt lat="44.16682" lon="1.75242">
        <ele>172.21</ele>
        <time>2021-08-17T15:21:46Z</time>
      </trkpt>
      <trkpt lat="44.16672" lon="1.75254">
        <ele>173.66</ele>
        <time>2021-08-17T15:21:54Z</time>
      </trkpt>
      <trkpt lat="44.16663" lon="1.75267">
        <ele>174.62</ele>
        <time>2021-08-17T15:22:02Z</time>
      </trkpt>
      <trkpt lat="44.16652" lon="1.75285">
        <ele>174.62</ele>
        <time>2021-08-17T15:22:09Z</time>
      </trkpt>
      <trkpt lat="44.16644" lon="1.75304">
        <ele>175.58</ele>
        <time>2021-08-17T15:22:16Z</time>
      </trkpt>
      <trkpt lat="44.16631" lon="1.75319">
        <ele>175.58</ele>
        <time>2021-08-17T15:22:23Z</time>
      </trkpt>
      <trkpt lat="44.16625" lon="1.75325">
        <ele>174.14</ele>
        <time>2021-08-17T15:22:25Z</time>
      </trkpt>
      <trkpt lat="44.16623" lon="1.75331">
        <ele>173.66</ele>
        <time>2021-08-17T15:22:26Z</time>
      </trkpt>
      <trkpt lat="44.16618" lon="1.75343">
        <ele>173.17</ele>
        <time>2021-08-17T15:22:28Z</time>
      </trkpt>
      <trkpt lat="44.16615" lon="1.75347">
        <ele>173.66</ele>
        <time>2021-08-17T15:22:29Z</time>
      </trkpt>
      <trkpt lat="44.16613" lon="1.75351">
        <ele>173.66</ele>
        <time>2021-08-17T15:22:30Z</time>
      </trkpt>
      <trkpt lat="44.16611" lon="1.75354">
        <ele>173.66</ele>
        <time>2021-08-17T15:22:31Z</time>
      </trkpt>
      <trkpt lat="44.1661" lon="1.75356">
        <ele>173.66</ele>
        <time>2021-08-17T15:22:32Z</time>
      </trkpt>
      <trkpt lat="44.16604" lon="1.75362">
        <ele>174.62</ele>
        <time>2021-08-17T15:22:35Z</time>
      </trkpt>
      <trkpt lat="44.16582" lon="1.75373">
        <ele>174.62</ele>
        <time>2021-08-17T15:22:41Z</time>
      </trkpt>
      <trkpt lat="44.16569" lon="1.75379">
        <ele>174.62</ele>
        <time>2021-08-17T15:22:44Z</time>
      </trkpt>
      <trkpt lat="44.16566" lon="1.75382">
        <ele>174.62</ele>
        <time>2021-08-17T15:22:45Z</time>
      </trkpt>
      <trkpt lat="44.16553" lon="1.75391">
        <ele>177.02</ele>
        <time>2021-08-17T15:22:50Z</time>
      </trkpt>
      <trkpt lat="44.16532" lon="1.75401">
        <ele>177.02</ele>
        <time>2021-08-17T15:22:56Z</time>
      </trkpt>
      <trkpt lat="44.1653" lon="1.75401">
        <ele>177.02</ele>
        <time>2021-08-17T15:22:57Z</time>
      </trkpt>
      <trkpt lat="44.16527" lon="1.754">
        <ele>177.02</ele>
        <time>2021-08-17T15:22:58Z</time>
      </trkpt>
      <trkpt lat="44.16523" lon="1.75401">
        <ele>177.02</ele>
        <time>2021-08-17T15:22:59Z</time>
      </trkpt>
      <trkpt lat="44.16519" lon="1.75402">
        <ele>175.58</ele>
        <time>2021-08-17T15:23:00Z</time>
      </trkpt>
      <trkpt lat="44.16516" lon="1.75403">
        <ele>175.58</ele>
        <time>2021-08-17T15:23:01Z</time>
      </trkpt>
      <trkpt lat="44.16514" lon="1.75405">
        <ele>176.54</ele>
        <time>2021-08-17T15:23:05Z</time>
      </trkpt>
      <trkpt lat="44.16511" lon="1.75405">
        <ele>177.02</ele>
        <time>2021-08-17T15:23:14Z</time>
      </trkpt>
      <trkpt lat="44.1651" lon="1.75405">
        <ele>177.02</ele>
        <time>2021-08-17T15:23:15Z</time>
      </trkpt>
      <trkpt lat="44.165" lon="1.75404">
        <ele>177.5</ele>
        <time>2021-08-17T15:23:20Z</time>
      </trkpt>
      <trkpt lat="44.16497" lon="1.75403">
        <ele>177.5</ele>
        <time>2021-08-17T15:23:21Z</time>
      </trkpt>
      <trkpt lat="44.16482" lon="1.75405">
        <ele>178.94</ele>
        <time>2021-08-17T15:23:28Z</time>
      </trkpt>
      <trkpt lat="44.16463" lon="1.75411">
        <ele>179.42</ele>
        <time>2021-08-17T15:23:36Z</time>
      </trkpt>
      <trkpt lat="44.16462" lon="1.75413">
        <ele>179.9</ele>
        <time>2021-08-17T15:23:41Z</time>
      </trkpt>
      <trkpt lat="44.16456" lon="1.75416">
        <ele>179.9</ele>
        <time>2021-08-17T15:23:48Z</time>
      </trkpt>
      <trkpt lat="44.16444" lon="1.7543">
        <ele>178.94</ele>
        <time>2021-08-17T15:23:54Z</time>
      </trkpt>
      <trkpt lat="44.16435" lon="1.75443">
        <ele>178.94</ele>
        <time>2021-08-17T15:23:59Z</time>
      </trkpt>
      <trkpt lat="44.16421" lon="1.75459">
        <ele>178.94</ele>
        <time>2021-08-17T15:24:05Z</time>
      </trkpt>
      <trkpt lat="44.16402" lon="1.75481">
        <ele>178.46</ele>
        <time>2021-08-17T15:24:12Z</time>
      </trkpt>
      <trkpt lat="44.16387" lon="1.755">
        <ele>178.46</ele>
        <time>2021-08-17T15:24:18Z</time>
      </trkpt>
      <trkpt lat="44.16374" lon="1.7551">
        <ele>178.46</ele>
        <time>2021-08-17T15:24:23Z</time>
      </trkpt>
      <trkpt lat="44.16356" lon="1.75536">
        <ele>177.98</ele>
        <time>2021-08-17T15:24:29Z</time>
      </trkpt>
      <trkpt lat="44.16349" lon="1.75552">
        <ele>177.98</ele>
        <time>2021-08-17T15:24:34Z</time>
      </trkpt>
      <trkpt lat="44.16342" lon="1.75573">
        <ele>176.54</ele>
        <time>2021-08-17T15:24:39Z</time>
      </trkpt>
      <trkpt lat="44.16341" lon="1.75579">
        <ele>176.54</ele>
        <time>2021-08-17T15:24:40Z</time>
      </trkpt>
      <trkpt lat="44.16339" lon="1.75585">
        <ele>176.54</ele>
        <time>2021-08-17T15:24:41Z</time>
      </trkpt>
      <trkpt lat="44.16337" lon="1.7559">
        <ele>176.54</ele>
        <time>2021-08-17T15:24:42Z</time>
      </trkpt>
      <trkpt lat="44.16336" lon="1.75596">
        <ele>176.54</ele>
        <time>2021-08-17T15:24:43Z</time>
      </trkpt>
      <trkpt lat="44.16334" lon="1.75601">
        <ele>176.54</ele>
        <time>2021-08-17T15:24:44Z</time>
      </trkpt>
      <trkpt lat="44.16331" lon="1.75607">
        <ele>175.58</ele>
        <time>2021-08-17T15:24:45Z</time>
      </trkpt>
      <trkpt lat="44.16325" lon="1.75624">
        <ele>173.66</ele>
        <time>2021-08-17T15:24:48Z</time>
      </trkpt>
      <trkpt lat="44.16315" lon="1.7564">
        <ele>170.29</ele>
        <time>2021-08-17T15:24:52Z</time>
      </trkpt>
      <trkpt lat="44.16313" lon="1.75642">
        <ele>169.33</ele>
        <time>2021-08-17T15:24:53Z</time>
      </trkpt>
      <trkpt lat="44.1631" lon="1.75643">
        <ele>168.85</ele>
        <time>2021-08-17T15:24:54Z</time>
      </trkpt>
      <trkpt lat="44.16308" lon="1.75642">
        <ele>167.89</ele>
        <time>2021-08-17T15:24:55Z</time>
      </trkpt>
      <trkpt lat="44.16307" lon="1.7564">
        <ele>167.41</ele>
        <time>2021-08-17T15:24:56Z</time>
      </trkpt>
      <trkpt lat="44.16306" lon="1.75639">
        <ele>166.93</ele>
        <time>2021-08-17T15:24:57Z</time>
      </trkpt>
      <trkpt lat="44.16304" lon="1.75639">
        <ele>165.96</ele>
        <time>2021-08-17T15:24:58Z</time>
      </trkpt>
      <trkpt lat="44.16301" lon="1.75639">
        <ele>165.96</ele>
        <time>2021-08-17T15:24:59Z</time>
      </trkpt>
      <trkpt lat="44.16298" lon="1.75638">
        <ele>165.48</ele>
        <time>2021-08-17T15:25:00Z</time>
      </trkpt>
      <trkpt lat="44.16294" lon="1.75638">
        <ele>164.52</ele>
        <time>2021-08-17T15:25:01Z</time>
      </trkpt>
      <trkpt lat="44.1629" lon="1.75638">
        <ele>164.04</ele>
        <time>2021-08-17T15:25:02Z</time>
      </trkpt>
      <trkpt lat="44.16287" lon="1.75639">
        <ele>163.56</ele>
        <time>2021-08-17T15:25:03Z</time>
      </trkpt>
      <trkpt lat="44.16268" lon="1.75648">
        <ele>161.16</ele>
        <time>2021-08-17T15:25:09Z</time>
      </trkpt>
      <trkpt lat="44.16255" lon="1.75654">
        <ele>158.75</ele>
        <time>2021-08-17T15:25:14Z</time>
      </trkpt>
      <trkpt lat="44.16238" lon="1.75662">
        <ele>156.83</ele>
        <time>2021-08-17T15:25:21Z</time>
      </trkpt>
      <trkpt lat="44.16235" lon="1.75664">
        <ele>156.83</ele>
        <time>2021-08-17T15:25:22Z</time>
      </trkpt>
      <trkpt lat="44.1622" lon="1.75683">
        <ele>155.87</ele>
        <time>2021-08-17T15:25:28Z</time>
      </trkpt>
      <trkpt lat="44.16217" lon="1.75688">
        <ele>155.87</ele>
        <time>2021-08-17T15:25:29Z</time>
      </trkpt>
      <trkpt lat="44.16202" lon="1.75718">
        <ele>157.31</ele>
        <time>2021-08-17T15:25:35Z</time>
      </trkpt>
      <trkpt lat="44.16188" lon="1.75737">
        <ele>155.39</ele>
        <time>2021-08-17T15:25:40Z</time>
      </trkpt>
      <trkpt lat="44.16183" lon="1.75741">
        <ele>155.39</ele>
        <time>2021-08-17T15:25:41Z</time>
      </trkpt>
      <trkpt lat="44.16171" lon="1.75756">
        <ele>153.95</ele>
        <time>2021-08-17T15:25:44Z</time>
      </trkpt>
      <trkpt lat="44.16166" lon="1.75761">
        <ele>153.47</ele>
        <time>2021-08-17T15:25:45Z</time>
      </trkpt>
      <trkpt lat="44.16161" lon="1.75766">
        <ele>153.47</ele>
        <time>2021-08-17T15:25:46Z</time>
      </trkpt>
      <trkpt lat="44.16157" lon="1.75772">
        <ele>153.47</ele>
        <time>2021-08-17T15:25:47Z</time>
      </trkpt>
      <trkpt lat="44.16153" lon="1.75777">
        <ele>153.47</ele>
        <time>2021-08-17T15:25:48Z</time>
      </trkpt>
      <trkpt lat="44.16149" lon="1.75782">
        <ele>153.47</ele>
        <time>2021-08-17T15:25:49Z</time>
      </trkpt>
      <trkpt lat="44.16146" lon="1.75786">
        <ele>153.47</ele>
        <time>2021-08-17T15:25:50Z</time>
      </trkpt>
      <trkpt lat="44.16141" lon="1.7579">
        <ele>153.47</ele>
        <time>2021-08-17T15:25:51Z</time>
      </trkpt>
      <trkpt lat="44.16124" lon="1.75808">
        <ele>152.51</ele>
        <time>2021-08-17T15:25:55Z</time>
      </trkpt>
      <trkpt lat="44.1612" lon="1.75815">
        <ele>152.51</ele>
        <time>2021-08-17T15:25:56Z</time>
      </trkpt>
      <trkpt lat="44.16117" lon="1.75821">
        <ele>151.54</ele>
        <time>2021-08-17T15:25:57Z</time>
      </trkpt>
      <trkpt lat="44.1611" lon="1.75835">
        <ele>151.06</ele>
        <time>2021-08-17T15:25:59Z</time>
      </trkpt>
      <trkpt lat="44.16097" lon="1.75854">
        <ele>150.58</ele>
        <time>2021-08-17T15:26:02Z</time>
      </trkpt>
      <trkpt lat="44.16093" lon="1.75858">
        <ele>150.58</ele>
        <time>2021-08-17T15:26:03Z</time>
      </trkpt>
      <trkpt lat="44.16083" lon="1.75867">
        <ele>149.14</ele>
        <time>2021-08-17T15:26:05Z</time>
      </trkpt>
      <trkpt lat="44.16078" lon="1.75875">
        <ele>148.66</ele>
        <time>2021-08-17T15:26:06Z</time>
      </trkpt>
      <trkpt lat="44.16069" lon="1.7589">
        <ele>148.18</ele>
        <time>2021-08-17T15:26:08Z</time>
      </trkpt>
      <trkpt lat="44.16064" lon="1.75896">
        <ele>148.18</ele>
        <time>2021-08-17T15:26:09Z</time>
      </trkpt>
      <trkpt lat="44.16058" lon="1.75899">
        <ele>148.18</ele>
        <time>2021-08-17T15:26:10Z</time>
      </trkpt>
      <trkpt lat="44.16052" lon="1.759">
        <ele>148.18</ele>
        <time>2021-08-17T15:26:11Z</time>
      </trkpt>
      <trkpt lat="44.16046" lon="1.75901">
        <ele>148.18</ele>
        <time>2021-08-17T15:26:12Z</time>
      </trkpt>
      <trkpt lat="44.1604" lon="1.75902">
        <ele>148.18</ele>
        <time>2021-08-17T15:26:13Z</time>
      </trkpt>
      <trkpt lat="44.16035" lon="1.75902">
        <ele>148.18</ele>
        <time>2021-08-17T15:26:14Z</time>
      </trkpt>
      <trkpt lat="44.16031" lon="1.75902">
        <ele>148.18</ele>
        <time>2021-08-17T15:26:15Z</time>
      </trkpt>
      <trkpt lat="44.16026" lon="1.75901">
        <ele>149.62</ele>
        <time>2021-08-17T15:26:16Z</time>
      </trkpt>
      <trkpt lat="44.16022" lon="1.759">
        <ele>149.62</ele>
        <time>2021-08-17T15:26:17Z</time>
      </trkpt>
      <trkpt lat="44.15991" lon="1.75893">
        <ele>151.54</ele>
        <time>2021-08-17T15:26:26Z</time>
      </trkpt>
      <trkpt lat="44.15964" lon="1.75888">
        <ele>151.54</ele>
        <time>2021-08-17T15:26:34Z</time>
      </trkpt>
      <trkpt lat="44.15944" lon="1.75881">
        <ele>152.51</ele>
        <time>2021-08-17T15:26:40Z</time>
      </trkpt>
      <trkpt lat="44.15911" lon="1.7587">
        <ele>152.51</ele>
        <time>2021-08-17T15:26:49Z</time>
      </trkpt>
      <trkpt lat="44.1587" lon="1.75855">
        <ele>151.06</ele>
        <time>2021-08-17T15:26:57Z</time>
      </trkpt>
      <trkpt lat="44.15855" lon="1.75854">
        <ele>151.06</ele>
        <time>2021-08-17T15:27:00Z</time>
      </trkpt>
      <trkpt lat="44.15851" lon="1.75854">
        <ele>151.06</ele>
        <time>2021-08-17T15:27:01Z</time>
      </trkpt>
      <trkpt lat="44.15847" lon="1.75855">
        <ele>151.06</ele>
        <time>2021-08-17T15:27:02Z</time>
      </trkpt>
      <trkpt lat="44.15803" lon="1.75864">
        <ele>150.58</ele>
        <time>2021-08-17T15:27:12Z</time>
      </trkpt>
      <trkpt lat="44.15798" lon="1.75865">
        <ele>150.58</ele>
        <time>2021-08-17T15:27:13Z</time>
      </trkpt>
      <trkpt lat="44.15771" lon="1.75869">
        <ele>149.62</ele>
        <time>2021-08-17T15:27:18Z</time>
      </trkpt>
      <trkpt lat="44.15766" lon="1.75869">
        <ele>149.62</ele>
        <time>2021-08-17T15:27:19Z</time>
      </trkpt>
      <trkpt lat="44.15761" lon="1.75869">
        <ele>149.62</ele>
        <time>2021-08-17T15:27:20Z</time>
      </trkpt>
      <trkpt lat="44.15739" lon="1.75873">
        <ele>149.62</ele>
        <time>2021-08-17T15:27:27Z</time>
      </trkpt>
      <trkpt lat="44.15712" lon="1.75881">
        <ele>149.14</ele>
        <time>2021-08-17T15:27:33Z</time>
      </trkpt>
      <trkpt lat="44.15698" lon="1.75886">
        <ele>148.18</ele>
        <time>2021-08-17T15:27:36Z</time>
      </trkpt>
      <trkpt lat="44.15693" lon="1.75885">
        <ele>148.18</ele>
        <time>2021-08-17T15:27:37Z</time>
      </trkpt>
      <trkpt lat="44.15688" lon="1.75882">
        <ele>147.7</ele>
        <time>2021-08-17T15:27:38Z</time>
      </trkpt>
      <trkpt lat="44.15641" lon="1.75845">
        <ele>145.3</ele>
        <time>2021-08-17T15:27:47Z</time>
      </trkpt>
      <trkpt lat="44.15629" lon="1.75835">
        <ele>144.82</ele>
        <time>2021-08-17T15:27:49Z</time>
      </trkpt>
      <trkpt lat="44.15589" lon="1.75814">
        <ele>143.37</ele>
        <time>2021-08-17T15:27:55Z</time>
      </trkpt>
      <trkpt lat="44.15533" lon="1.75798">
        <ele>141.93</ele>
        <time>2021-08-17T15:28:03Z</time>
      </trkpt>
      <trkpt lat="44.15475" lon="1.75776">
        <ele>140.97</ele>
        <time>2021-08-17T15:28:12Z</time>
      </trkpt>
      <trkpt lat="44.15454" lon="1.75765">
        <ele>140.49</ele>
        <time>2021-08-17T15:28:16Z</time>
      </trkpt>
      <trkpt lat="44.15449" lon="1.75762">
        <ele>140.49</ele>
        <time>2021-08-17T15:28:17Z</time>
      </trkpt>
      <trkpt lat="44.15422" lon="1.75749">
        <ele>140.01</ele>
        <time>2021-08-17T15:28:22Z</time>
      </trkpt>
      <trkpt lat="44.15415" lon="1.75747">
        <ele>139.53</ele>
        <time>2021-08-17T15:28:23Z</time>
      </trkpt>
      <trkpt lat="44.15366" lon="1.75723">
        <ele>139.53</ele>
        <time>2021-08-17T15:28:32Z</time>
      </trkpt>
      <trkpt lat="44.15356" lon="1.75717">
        <ele>139.53</ele>
        <time>2021-08-17T15:28:34Z</time>
      </trkpt>
      <trkpt lat="44.15323" lon="1.75703">
        <ele>139.53</ele>
        <time>2021-08-17T15:28:42Z</time>
      </trkpt>
      <trkpt lat="44.15308" lon="1.75698">
        <ele>141.45</ele>
        <time>2021-08-17T15:28:48Z</time>
      </trkpt>
      <trkpt lat="44.15293" lon="1.75703">
        <ele>141.45</ele>
        <time>2021-08-17T15:28:54Z</time>
      </trkpt>
      <trkpt lat="44.15291" lon="1.75707">
        <ele>141.45</ele>
        <time>2021-08-17T15:28:55Z</time>
      </trkpt>
      <trkpt lat="44.1528" lon="1.75727">
        <ele>142.89</ele>
        <time>2021-08-17T15:29:02Z</time>
      </trkpt>
      <trkpt lat="44.15269" lon="1.75742">
        <ele>143.85</ele>
        <time>2021-08-17T15:29:09Z</time>
      </trkpt>
      <trkpt lat="44.15268" lon="1.75742">
        <ele>143.85</ele>
        <time>2021-08-17T15:29:10Z</time>
      </trkpt>
      <trkpt lat="44.15276" lon="1.75731">
        <ele>143.85</ele>
        <time>2021-08-17T15:29:17Z</time>
      </trkpt>
      <trkpt lat="44.1528" lon="1.75728">
        <ele>143.85</ele>
        <time>2021-08-17T15:29:25Z</time>
      </trkpt>
      <trkpt lat="44.15285" lon="1.75725">
        <ele>143.85</ele>
        <time>2021-08-17T15:29:29Z</time>
      </trkpt>
      <trkpt lat="44.15286" lon="1.75724">
        <ele>142.41</ele>
        <time>2021-08-17T15:29:31Z</time>
      </trkpt>
      <trkpt lat="44.15287" lon="1.75723">
        <ele>142.41</ele>
        <time>2021-08-17T15:29:33Z</time>
      </trkpt>
      <trkpt lat="44.15288" lon="1.75722">
        <ele>142.41</ele>
        <time>2021-08-17T15:29:34Z</time>
      </trkpt>
      <trkpt lat="44.15289" lon="1.75721">
        <ele>142.41</ele>
        <time>2021-08-17T15:29:35Z</time>
      </trkpt>
      <trkpt lat="44.15291" lon="1.75718">
        <ele>142.41</ele>
        <time>2021-08-17T15:29:36Z</time>
      </trkpt>
      <trkpt lat="44.15293" lon="1.75715">
        <ele>142.41</ele>
        <time>2021-08-17T15:29:37Z</time>
      </trkpt>
      <trkpt lat="44.15295" lon="1.75711">
        <ele>141.93</ele>
        <time>2021-08-17T15:29:38Z</time>
      </trkpt>
      <trkpt lat="44.15296" lon="1.75706">
        <ele>141.93</ele>
        <time>2021-08-17T15:29:39Z</time>
      </trkpt>
      <trkpt lat="44.15295" lon="1.75701">
        <ele>141.45</ele>
        <time>2021-08-17T15:29:40Z</time>
      </trkpt>
      <trkpt lat="44.15294" lon="1.75697">
        <ele>141.45</ele>
        <time>2021-08-17T15:29:41Z</time>
      </trkpt>
      <trkpt lat="44.15293" lon="1.75694">
        <ele>141.45</ele>
        <time>2021-08-17T15:29:42Z</time>
      </trkpt>
      <trkpt lat="44.15292" lon="1.75691">
        <ele>140.97</ele>
        <time>2021-08-17T15:29:43Z</time>
      </trkpt>
      <trkpt lat="44.15285" lon="1.75683">
        <ele>140.97</ele>
        <time>2021-08-17T15:29:49Z</time>
      </trkpt>
      <trkpt lat="44.15267" lon="1.75677">
        <ele>140.97</ele>
        <time>2021-08-17T15:29:57Z</time>
      </trkpt>
      <trkpt lat="44.15246" lon="1.75669">
        <ele>140.49</ele>
        <time>2021-08-17T15:30:05Z</time>
      </trkpt>
      <trkpt lat="44.15236" lon="1.75665">
        <ele>140.01</ele>
        <time>2021-08-17T15:30:14Z</time>
      </trkpt>
      <trkpt lat="44.15219" lon="1.75661">
        <ele>140.01</ele>
        <time>2021-08-17T15:30:24Z</time>
      </trkpt>
      <trkpt lat="44.15214" lon="1.75658">
        <ele>140.01</ele>
        <time>2021-08-17T15:30:28Z</time>
      </trkpt>
      <trkpt lat="44.15212" lon="1.75658">
        <ele>140.01</ele>
        <time>2021-08-17T15:30:29Z</time>
      </trkpt>
      <trkpt lat="44.15209" lon="1.75658">
        <ele>140.01</ele>
        <time>2021-08-17T15:30:30Z</time>
      </trkpt>
      <trkpt lat="44.15207" lon="1.75659">
        <ele>140.01</ele>
        <time>2021-08-17T15:30:31Z</time>
      </trkpt>
      <trkpt lat="44.15205" lon="1.75659">
        <ele>140.01</ele>
        <time>2021-08-17T15:30:32Z</time>
      </trkpt>
      <trkpt lat="44.15189" lon="1.75661">
        <ele>140.49</ele>
        <time>2021-08-17T15:30:41Z</time>
      </trkpt>
      <trkpt lat="44.15183" lon="1.75665">
        <ele>141.45</ele>
        <time>2021-08-17T15:30:48Z</time>
      </trkpt>
      <trkpt lat="44.15178" lon="1.7567">
        <ele>141.93</ele>
        <time>2021-08-17T15:30:56Z</time>
      </trkpt>
      <trkpt lat="44.15175" lon="1.75672">
        <ele>142.41</ele>
        <time>2021-08-17T15:31:06Z</time>
      </trkpt>
      <trkpt lat="44.15171" lon="1.75676">
        <ele>143.37</ele>
        <time>2021-08-17T15:31:14Z</time>
      </trkpt>
      <trkpt lat="44.15163" lon="1.75678">
        <ele>143.37</ele>
        <time>2021-08-17T15:31:20Z</time>
      </trkpt>
      <trkpt lat="44.15148" lon="1.75676">
        <ele>143.37</ele>
        <time>2021-08-17T15:31:27Z</time>
      </trkpt>
      <trkpt lat="44.15132" lon="1.75675">
        <ele>143.37</ele>
        <time>2021-08-17T15:31:34Z</time>
      </trkpt>
      <trkpt lat="44.15122" lon="1.7567">
        <ele>143.37</ele>
        <time>2021-08-17T15:31:38Z</time>
      </trkpt>
      <trkpt lat="44.15121" lon="1.7567">
        <ele>143.37</ele>
        <time>2021-08-17T15:31:44Z</time>
      </trkpt>
      <trkpt lat="44.15123" lon="1.75669">
        <ele>143.37</ele>
        <time>2021-08-17T15:31:46Z</time>
      </trkpt>
      <trkpt lat="44.15123" lon="1.75668">
        <ele>143.37</ele>
        <time>2021-08-17T15:31:47Z</time>
      </trkpt>
      <trkpt lat="44.15123" lon="1.75665">
        <ele>143.37</ele>
        <time>2021-08-17T15:31:48Z</time>
      </trkpt>
      <trkpt lat="44.15125" lon="1.75654">
        <ele>141.93</ele>
        <time>2021-08-17T15:31:51Z</time>
      </trkpt>
      <trkpt lat="44.15126" lon="1.7565">
        <ele>141.45</ele>
        <time>2021-08-17T15:31:53Z</time>
      </trkpt>
      <trkpt lat="44.15126" lon="1.75648">
        <ele>141.45</ele>
        <time>2021-08-17T15:31:54Z</time>
      </trkpt>
      <trkpt lat="44.15127" lon="1.75646">
        <ele>140.49</ele>
        <time>2021-08-17T15:31:55Z</time>
      </trkpt>
      <trkpt lat="44.15135" lon="1.75618">
        <ele>138.57</ele>
        <time>2021-08-17T15:32:02Z</time>
      </trkpt>
      <trkpt lat="44.15141" lon="1.75594">
        <ele>137.13</ele>
        <time>2021-08-17T15:32:06Z</time>
      </trkpt>
      <trkpt lat="44.15144" lon="1.75588">
        <ele>136.16</ele>
        <time>2021-08-17T15:32:07Z</time>
      </trkpt>
      <trkpt lat="44.15145" lon="1.75582">
        <ele>136.16</ele>
        <time>2021-08-17T15:32:08Z</time>
      </trkpt>
      <trkpt lat="44.15145" lon="1.75577">
        <ele>136.16</ele>
        <time>2021-08-17T15:32:09Z</time>
      </trkpt>
      <trkpt lat="44.15144" lon="1.7557">
        <ele>135.68</ele>
        <time>2021-08-17T15:32:10Z</time>
      </trkpt>
      <trkpt lat="44.15143" lon="1.75545">
        <ele>135.68</ele>
        <time>2021-08-17T15:32:14Z</time>
      </trkpt>
      <trkpt lat="44.15142" lon="1.75539">
        <ele>135.68</ele>
        <time>2021-08-17T15:32:15Z</time>
      </trkpt>
      <trkpt lat="44.15121" lon="1.7552">
        <ele>135.68</ele>
        <time>2021-08-17T15:32:22Z</time>
      </trkpt>
      <trkpt lat="44.15109" lon="1.75493">
        <ele>135.2</ele>
        <time>2021-08-17T15:32:29Z</time>
      </trkpt>
      <trkpt lat="44.15099" lon="1.75485">
        <ele>135.2</ele>
        <time>2021-08-17T15:32:33Z</time>
      </trkpt>
      <trkpt lat="44.15097" lon="1.75485">
        <ele>135.2</ele>
        <time>2021-08-17T15:32:34Z</time>
      </trkpt>
      <trkpt lat="44.15094" lon="1.75485">
        <ele>135.2</ele>
        <time>2021-08-17T15:32:35Z</time>
      </trkpt>
      <trkpt lat="44.15091" lon="1.75484">
        <ele>135.2</ele>
        <time>2021-08-17T15:32:36Z</time>
      </trkpt>
      <trkpt lat="44.15088" lon="1.75484">
        <ele>135.2</ele>
        <time>2021-08-17T15:32:37Z</time>
      </trkpt>
      <trkpt lat="44.15084" lon="1.75485">
        <ele>134.72</ele>
        <time>2021-08-17T15:32:38Z</time>
      </trkpt>
      <trkpt lat="44.15081" lon="1.75485">
        <ele>134.72</ele>
        <time>2021-08-17T15:32:39Z</time>
      </trkpt>
      <trkpt lat="44.15066" lon="1.75487">
        <ele>136.16</ele>
        <time>2021-08-17T15:32:44Z</time>
      </trkpt>
      <trkpt lat="44.15063" lon="1.75487">
        <ele>136.16</ele>
        <time>2021-08-17T15:32:50Z</time>
      </trkpt>
      <trkpt lat="44.15062" lon="1.75489">
        <ele>136.16</ele>
        <time>2021-08-17T15:32:51Z</time>
      </trkpt>
      <trkpt lat="44.15061" lon="1.75492">
        <ele>136.16</ele>
        <time>2021-08-17T15:32:52Z</time>
      </trkpt>
      <trkpt lat="44.1506" lon="1.75496">
        <ele>136.64</ele>
        <time>2021-08-17T15:32:53Z</time>
      </trkpt>
      <trkpt lat="44.15059" lon="1.75498">
        <ele>136.64</ele>
        <time>2021-08-17T15:32:54Z</time>
      </trkpt>
      <trkpt lat="44.15048" lon="1.75519">
        <ele>137.13</ele>
        <time>2021-08-17T15:33:01Z</time>
      </trkpt>
      <trkpt lat="44.15034" lon="1.75527">
        <ele>137.61</ele>
        <time>2021-08-17T15:33:06Z</time>
      </trkpt>
      <trkpt lat="44.15006" lon="1.75515">
        <ele>138.57</ele>
        <time>2021-08-17T15:33:14Z</time>
      </trkpt>
      <trkpt lat="44.1496" lon="1.75494">
        <ele>139.53</ele>
        <time>2021-08-17T15:33:28Z</time>
      </trkpt>
      <trkpt lat="44.14953" lon="1.75495">
        <ele>139.53</ele>
        <time>2021-08-17T15:33:30Z</time>
      </trkpt>
      <trkpt lat="44.14951" lon="1.75498">
        <ele>139.53</ele>
        <time>2021-08-17T15:33:31Z</time>
      </trkpt>
      <trkpt lat="44.14951" lon="1.75504">
        <ele>139.53</ele>
        <time>2021-08-17T15:33:32Z</time>
      </trkpt>
      <trkpt lat="44.1495" lon="1.75517">
        <ele>138.57</ele>
        <time>2021-08-17T15:33:35Z</time>
      </trkpt>
      <trkpt lat="44.14947" lon="1.75552">
        <ele>136.64</ele>
        <time>2021-08-17T15:33:42Z</time>
      </trkpt>
      <trkpt lat="44.14947" lon="1.75565">
        <ele>136.16</ele>
        <time>2021-08-17T15:33:44Z</time>
      </trkpt>
      <trkpt lat="44.14946" lon="1.75572">
        <ele>135.68</ele>
        <time>2021-08-17T15:33:45Z</time>
      </trkpt>
      <trkpt lat="44.14944" lon="1.75579">
        <ele>135.2</ele>
        <time>2021-08-17T15:33:46Z</time>
      </trkpt>
      <trkpt lat="44.14942" lon="1.75587">
        <ele>135.2</ele>
        <time>2021-08-17T15:33:47Z</time>
      </trkpt>
      <trkpt lat="44.14939" lon="1.75596">
        <ele>135.2</ele>
        <time>2021-08-17T15:33:48Z</time>
      </trkpt>
      <trkpt lat="44.14936" lon="1.75604">
        <ele>134.72</ele>
        <time>2021-08-17T15:33:49Z</time>
      </trkpt>
      <trkpt lat="44.14908" lon="1.75664">
        <ele>134.72</ele>
        <time>2021-08-17T15:33:57Z</time>
      </trkpt>
      <trkpt lat="44.14877" lon="1.75731">
        <ele>134.72</ele>
        <time>2021-08-17T15:34:06Z</time>
      </trkpt>
      <trkpt lat="44.14864" lon="1.75761">
        <ele>134.72</ele>
        <time>2021-08-17T15:34:10Z</time>
      </trkpt>
      <trkpt lat="44.1486" lon="1.75777">
        <ele>134.72</ele>
        <time>2021-08-17T15:34:12Z</time>
      </trkpt>
      <trkpt lat="44.14835" lon="1.75828">
        <ele>134.72</ele>
        <time>2021-08-17T15:34:19Z</time>
      </trkpt>
      <trkpt lat="44.14824" lon="1.75852">
        <ele>134.72</ele>
        <time>2021-08-17T15:34:23Z</time>
      </trkpt>
      <trkpt lat="44.14821" lon="1.75858">
        <ele>134.72</ele>
        <time>2021-08-17T15:34:24Z</time>
      </trkpt>
      <trkpt lat="44.14819" lon="1.75864">
        <ele>134.72</ele>
        <time>2021-08-17T15:34:25Z</time>
      </trkpt>
      <trkpt lat="44.14808" lon="1.75886">
        <ele>136.64</ele>
        <time>2021-08-17T15:34:29Z</time>
      </trkpt>
      <trkpt lat="44.14794" lon="1.75919">
        <ele>137.61</ele>
        <time>2021-08-17T15:34:36Z</time>
      </trkpt>
      <trkpt lat="44.14787" lon="1.7597">
        <ele>137.61</ele>
        <time>2021-08-17T15:34:44Z</time>
      </trkpt>
      <trkpt lat="44.14784" lon="1.76025">
        <ele>137.61</ele>
        <time>2021-08-17T15:34:52Z</time>
      </trkpt>
      <trkpt lat="44.14781" lon="1.76063">
        <ele>137.61</ele>
        <time>2021-08-17T15:34:57Z</time>
      </trkpt>
      <trkpt lat="44.14779" lon="1.7607">
        <ele>137.61</ele>
        <time>2021-08-17T15:34:58Z</time>
      </trkpt>
      <trkpt lat="44.14772" lon="1.76121">
        <ele>136.64</ele>
        <time>2021-08-17T15:35:05Z</time>
      </trkpt>
      <trkpt lat="44.14768" lon="1.76176">
        <ele>135.68</ele>
        <time>2021-08-17T15:35:12Z</time>
      </trkpt>
      <trkpt lat="44.14765" lon="1.76234">
        <ele>135.68</ele>
        <time>2021-08-17T15:35:20Z</time>
      </trkpt>
      <trkpt lat="44.14766" lon="1.76267">
        <ele>135.68</ele>
        <time>2021-08-17T15:35:24Z</time>
      </trkpt>
      <trkpt lat="44.14767" lon="1.76278">
        <ele>135.2</ele>
        <time>2021-08-17T15:35:25Z</time>
      </trkpt>
      <trkpt lat="44.14776" lon="1.76321">
        <ele>135.2</ele>
        <time>2021-08-17T15:35:29Z</time>
      </trkpt>
      <trkpt lat="44.1478" lon="1.7633">
        <ele>135.2</ele>
        <time>2021-08-17T15:35:30Z</time>
      </trkpt>
      <trkpt lat="44.14783" lon="1.76339">
        <ele>135.2</ele>
        <time>2021-08-17T15:35:31Z</time>
      </trkpt>
      <trkpt lat="44.14822" lon="1.76411">
        <ele>134.72</ele>
        <time>2021-08-17T15:35:40Z</time>
      </trkpt>
      <trkpt lat="44.14858" lon="1.76467">
        <ele>134.24</ele>
        <time>2021-08-17T15:35:48Z</time>
      </trkpt>
      <trkpt lat="44.14895" lon="1.76528">
        <ele>134.24</ele>
        <time>2021-08-17T15:35:57Z</time>
      </trkpt>
      <trkpt lat="44.14935" lon="1.766">
        <ele>134.24</ele>
        <time>2021-08-17T15:36:08Z</time>
      </trkpt>
      <trkpt lat="44.14949" lon="1.76631">
        <ele>135.68</ele>
        <time>2021-08-17T15:36:13Z</time>
      </trkpt>
      <trkpt lat="44.14974" lon="1.76694">
        <ele>135.68</ele>
        <time>2021-08-17T15:36:23Z</time>
      </trkpt>
      <trkpt lat="44.14993" lon="1.76743">
        <ele>136.64</ele>
        <time>2021-08-17T15:36:31Z</time>
      </trkpt>
      <trkpt lat="44.14995" lon="1.76749">
        <ele>136.64</ele>
        <time>2021-08-17T15:36:32Z</time>
      </trkpt>
      <trkpt lat="44.14999" lon="1.76761">
        <ele>136.64</ele>
        <time>2021-08-17T15:36:34Z</time>
      </trkpt>
      <trkpt lat="44.15016" lon="1.76807">
        <ele>137.13</ele>
        <time>2021-08-17T15:36:42Z</time>
      </trkpt>
      <trkpt lat="44.15024" lon="1.76829">
        <ele>137.13</ele>
        <time>2021-08-17T15:36:46Z</time>
      </trkpt>
      <trkpt lat="44.15026" lon="1.76834">
        <ele>137.13</ele>
        <time>2021-08-17T15:36:47Z</time>
      </trkpt>
      <trkpt lat="44.15047" lon="1.7688">
        <ele>137.61</ele>
        <time>2021-08-17T15:36:55Z</time>
      </trkpt>
      <trkpt lat="44.15076" lon="1.76936">
        <ele>137.61</ele>
        <time>2021-08-17T15:37:05Z</time>
      </trkpt>
      <trkpt lat="44.15097" lon="1.76977">
        <ele>137.61</ele>
        <time>2021-08-17T15:37:12Z</time>
      </trkpt>
      <trkpt lat="44.15108" lon="1.77009">
        <ele>137.61</ele>
        <time>2021-08-17T15:37:17Z</time>
      </trkpt>
      <trkpt lat="44.15109" lon="1.77017">
        <ele>137.61</ele>
        <time>2021-08-17T15:37:18Z</time>
      </trkpt>
      <trkpt lat="44.15125" lon="1.77094">
        <ele>138.09</ele>
        <time>2021-08-17T15:37:29Z</time>
      </trkpt>
      <trkpt lat="44.15135" lon="1.77151">
        <ele>139.05</ele>
        <time>2021-08-17T15:37:38Z</time>
      </trkpt>
      <trkpt lat="44.15134" lon="1.77156">
        <ele>139.05</ele>
        <time>2021-08-17T15:37:39Z</time>
      </trkpt>
      <trkpt lat="44.15132" lon="1.77161">
        <ele>139.05</ele>
        <time>2021-08-17T15:37:40Z</time>
      </trkpt>
      <trkpt lat="44.15129" lon="1.77164">
        <ele>139.05</ele>
        <time>2021-08-17T15:37:41Z</time>
      </trkpt>
      <trkpt lat="44.15126" lon="1.77166">
        <ele>139.05</ele>
        <time>2021-08-17T15:37:42Z</time>
      </trkpt>
      <trkpt lat="44.15124" lon="1.77167">
        <ele>139.53</ele>
        <time>2021-08-17T15:37:43Z</time>
      </trkpt>
      <trkpt lat="44.15122" lon="1.77169">
        <ele>140.49</ele>
        <time>2021-08-17T15:37:44Z</time>
      </trkpt>
      <trkpt lat="44.1512" lon="1.7717">
        <ele>140.97</ele>
        <time>2021-08-17T15:37:45Z</time>
      </trkpt>
      <trkpt lat="44.15118" lon="1.7717">
        <ele>140.97</ele>
        <time>2021-08-17T15:37:46Z</time>
      </trkpt>
      <trkpt lat="44.15116" lon="1.77171">
        <ele>140.97</ele>
        <time>2021-08-17T15:37:47Z</time>
      </trkpt>
      <trkpt lat="44.15114" lon="1.77171">
        <ele>141.45</ele>
        <time>2021-08-17T15:37:48Z</time>
      </trkpt>
      <trkpt lat="44.15112" lon="1.77171">
        <ele>141.45</ele>
        <time>2021-08-17T15:37:49Z</time>
      </trkpt>
      <trkpt lat="44.1511" lon="1.77169">
        <ele>141.45</ele>
        <time>2021-08-17T15:37:50Z</time>
      </trkpt>
      <trkpt lat="44.15108" lon="1.77166">
        <ele>141.45</ele>
        <time>2021-08-17T15:37:51Z</time>
      </trkpt>
      <trkpt lat="44.15106" lon="1.77163">
        <ele>141.45</ele>
        <time>2021-08-17T15:37:52Z</time>
      </trkpt>
      <trkpt lat="44.15104" lon="1.77159">
        <ele>141.45</ele>
        <time>2021-08-17T15:37:53Z</time>
      </trkpt>
      <trkpt lat="44.15085" lon="1.77121">
        <ele>140.01</ele>
        <time>2021-08-17T15:38:01Z</time>
      </trkpt>
      <trkpt lat="44.1506" lon="1.77073">
        <ele>140.01</ele>
        <time>2021-08-17T15:38:11Z</time>
      </trkpt>
      <trkpt lat="44.15036" lon="1.77026">
        <ele>140.01</ele>
        <time>2021-08-17T15:38:20Z</time>
      </trkpt>
      <trkpt lat="44.15005" lon="1.76965">
        <ele>140.01</ele>
        <time>2021-08-17T15:38:31Z</time>
      </trkpt>
      <trkpt lat="44.14981" lon="1.76918">
        <ele>140.01</ele>
        <time>2021-08-17T15:38:40Z</time>
      </trkpt>
      <trkpt lat="44.14979" lon="1.76913">
        <ele>140.01</ele>
        <time>2021-08-17T15:38:41Z</time>
      </trkpt>
      <trkpt lat="44.14976" lon="1.76908">
        <ele>140.01</ele>
        <time>2021-08-17T15:38:42Z</time>
      </trkpt>
      <trkpt lat="44.14972" lon="1.76906">
        <ele>140.01</ele>
        <time>2021-08-17T15:38:43Z</time>
      </trkpt>
      <trkpt lat="44.14967" lon="1.76913">
        <ele>140.01</ele>
        <time>2021-08-17T15:38:45Z</time>
      </trkpt>
      <trkpt lat="44.14967" lon="1.76918">
        <ele>140.01</ele>
        <time>2021-08-17T15:38:46Z</time>
      </trkpt>
      <trkpt lat="44.14969" lon="1.76924">
        <ele>140.01</ele>
        <time>2021-08-17T15:38:47Z</time>
      </trkpt>
      <trkpt lat="44.14971" lon="1.7693">
        <ele>140.01</ele>
        <time>2021-08-17T15:38:48Z</time>
      </trkpt>
      <trkpt lat="44.14972" lon="1.76936">
        <ele>140.01</ele>
        <time>2021-08-17T15:38:49Z</time>
      </trkpt>
      <trkpt lat="44.1498" lon="1.76982">
        <ele>140.01</ele>
        <time>2021-08-17T15:38:57Z</time>
      </trkpt>
      <trkpt lat="44.1498" lon="1.76994">
        <ele>140.01</ele>
        <time>2021-08-17T15:38:59Z</time>
      </trkpt>
      <trkpt lat="44.1498" lon="1.77028">
        <ele>141.45</ele>
        <time>2021-08-17T15:39:06Z</time>
      </trkpt>
      <trkpt lat="44.1498" lon="1.77058">
        <ele>143.37</ele>
        <time>2021-08-17T15:39:16Z</time>
      </trkpt>
      <trkpt lat="44.14969" lon="1.77075">
        <ele>144.82</ele>
        <time>2021-08-17T15:39:25Z</time>
      </trkpt>
      <trkpt lat="44.14959" lon="1.77093">
        <ele>146.26</ele>
        <time>2021-08-17T15:39:34Z</time>
      </trkpt>
      <trkpt lat="44.14949" lon="1.77111">
        <ele>147.22</ele>
        <time>2021-08-17T15:39:43Z</time>
      </trkpt>
      <trkpt lat="44.14946" lon="1.77117">
        <ele>147.7</ele>
        <time>2021-08-17T15:39:46Z</time>
      </trkpt>
      <trkpt lat="44.14944" lon="1.77119">
        <ele>147.7</ele>
        <time>2021-08-17T15:39:47Z</time>
      </trkpt>
      <trkpt lat="44.14931" lon="1.77141">
        <ele>148.66</ele>
        <time>2021-08-17T15:39:57Z</time>
      </trkpt>
      <trkpt lat="44.14921" lon="1.77158">
        <ele>150.58</ele>
        <time>2021-08-17T15:40:06Z</time>
      </trkpt>
      <trkpt lat="44.14908" lon="1.77177">
        <ele>151.06</ele>
        <time>2021-08-17T15:40:16Z</time>
      </trkpt>
      <trkpt lat="44.14896" lon="1.7719">
        <ele>152.03</ele>
        <time>2021-08-17T15:40:24Z</time>
      </trkpt>
      <trkpt lat="44.14884" lon="1.77202">
        <ele>153.95</ele>
        <time>2021-08-17T15:40:33Z</time>
      </trkpt>
      <trkpt lat="44.14873" lon="1.77215">
        <ele>154.43</ele>
        <time>2021-08-17T15:40:42Z</time>
      </trkpt>
      <trkpt lat="44.14865" lon="1.77228">
        <ele>155.39</ele>
        <time>2021-08-17T15:40:50Z</time>
      </trkpt>
      <trkpt lat="44.14857" lon="1.77245">
        <ele>156.83</ele>
        <time>2021-08-17T15:41:00Z</time>
      </trkpt>
      <trkpt lat="44.14851" lon="1.77261">
        <ele>157.79</ele>
        <time>2021-08-17T15:41:09Z</time>
      </trkpt>
      <trkpt lat="44.14848" lon="1.77271">
        <ele>158.75</ele>
        <time>2021-08-17T15:41:17Z</time>
      </trkpt>
      <trkpt lat="44.14846" lon="1.77271">
        <ele>159.24</ele>
        <time>2021-08-17T15:41:34Z</time>
      </trkpt>
      <trkpt lat="44.14846" lon="1.77276">
        <ele>159.24</ele>
        <time>2021-08-17T15:41:41Z</time>
      </trkpt>
      <trkpt lat="44.14845" lon="1.77278">
        <ele>159.72</ele>
        <time>2021-08-17T15:41:42Z</time>
      </trkpt>
      <trkpt lat="44.14845" lon="1.7728">
        <ele>159.72</ele>
        <time>2021-08-17T15:41:43Z</time>
      </trkpt>
      <trkpt lat="44.14845" lon="1.77282">
        <ele>159.72</ele>
        <time>2021-08-17T15:41:44Z</time>
      </trkpt>
      <trkpt lat="44.14844" lon="1.77284">
        <ele>159.72</ele>
        <time>2021-08-17T15:41:45Z</time>
      </trkpt>
      <trkpt lat="44.14844" lon="1.77285">
        <ele>160.2</ele>
        <time>2021-08-17T15:41:46Z</time>
      </trkpt>
      <trkpt lat="44.14844" lon="1.77287">
        <ele>160.2</ele>
        <time>2021-08-17T15:41:47Z</time>
      </trkpt>
      <trkpt lat="44.14843" lon="1.77289">
        <ele>160.2</ele>
        <time>2021-08-17T15:41:48Z</time>
      </trkpt>
      <trkpt lat="44.14843" lon="1.77291">
        <ele>160.68</ele>
        <time>2021-08-17T15:41:49Z</time>
      </trkpt>
      <trkpt lat="44.14843" lon="1.77292">
        <ele>160.68</ele>
        <time>2021-08-17T15:41:50Z</time>
      </trkpt>
      <trkpt lat="44.14843" lon="1.77294">
        <ele>160.68</ele>
        <time>2021-08-17T15:41:51Z</time>
      </trkpt>
      <trkpt lat="44.14843" lon="1.77296">
        <ele>161.16</ele>
        <time>2021-08-17T15:41:52Z</time>
      </trkpt>
      <trkpt lat="44.14841" lon="1.77309">
        <ele>162.12</ele>
        <time>2021-08-17T15:41:59Z</time>
      </trkpt>
      <trkpt lat="44.14841" lon="1.7731">
        <ele>162.12</ele>
        <time>2021-08-17T15:42:00Z</time>
      </trkpt>
      <trkpt lat="44.14841" lon="1.77312">
        <ele>162.6</ele>
        <time>2021-08-17T15:42:01Z</time>
      </trkpt>
      <trkpt lat="44.1484" lon="1.77314">
        <ele>162.6</ele>
        <time>2021-08-17T15:42:02Z</time>
      </trkpt>
      <trkpt lat="44.1484" lon="1.77315">
        <ele>162.6</ele>
        <time>2021-08-17T15:42:03Z</time>
      </trkpt>
      <trkpt lat="44.1484" lon="1.77316">
        <ele>163.08</ele>
        <time>2021-08-17T15:42:04Z</time>
      </trkpt>
      <trkpt lat="44.14839" lon="1.77318">
        <ele>163.08</ele>
        <time>2021-08-17T15:42:05Z</time>
      </trkpt>
      <trkpt lat="44.14839" lon="1.7732">
        <ele>163.08</ele>
        <time>2021-08-17T15:42:06Z</time>
      </trkpt>
      <trkpt lat="44.14839" lon="1.77322">
        <ele>163.56</ele>
        <time>2021-08-17T15:42:07Z</time>
      </trkpt>
      <trkpt lat="44.14835" lon="1.77334">
        <ele>164.52</ele>
        <time>2021-08-17T15:42:16Z</time>
      </trkpt>
      <trkpt lat="44.14832" lon="1.77339">
        <ele>165</ele>
        <time>2021-08-17T15:42:20Z</time>
      </trkpt>
      <trkpt lat="44.14831" lon="1.7734">
        <ele>165</ele>
        <time>2021-08-17T15:42:21Z</time>
      </trkpt>
      <trkpt lat="44.14831" lon="1.77342">
        <ele>165.48</ele>
        <time>2021-08-17T15:42:22Z</time>
      </trkpt>
      <trkpt lat="44.14828" lon="1.7735">
        <ele>166.45</ele>
        <time>2021-08-17T15:42:28Z</time>
      </trkpt>
      <trkpt lat="44.14825" lon="1.77359">
        <ele>167.41</ele>
        <time>2021-08-17T15:42:34Z</time>
      </trkpt>
      <trkpt lat="44.14822" lon="1.77368">
        <ele>168.37</ele>
        <time>2021-08-17T15:42:41Z</time>
      </trkpt>
      <trkpt lat="44.14821" lon="1.77369">
        <ele>168.37</ele>
        <time>2021-08-17T15:42:42Z</time>
      </trkpt>
      <trkpt lat="44.14819" lon="1.7737">
        <ele>168.37</ele>
        <time>2021-08-17T15:42:43Z</time>
      </trkpt>
      <trkpt lat="44.1481" lon="1.77381">
        <ele>169.33</ele>
        <time>2021-08-17T15:42:51Z</time>
      </trkpt>
      <trkpt lat="44.14809" lon="1.77381">
        <ele>169.81</ele>
        <time>2021-08-17T15:42:52Z</time>
      </trkpt>
      <trkpt lat="44.14799" lon="1.77386">
        <ele>171.25</ele>
        <time>2021-08-17T15:43:00Z</time>
      </trkpt>
      <trkpt lat="44.14799" lon="1.77386">
        <ele>171.25</ele>
        <time>2021-08-17T15:43:07Z</time>
      </trkpt>
      <trkpt lat="44.14802" lon="1.77386">
        <ele>171.25</ele>
        <time>2021-08-17T15:43:15Z</time>
      </trkpt>
      <trkpt lat="44.14802" lon="1.77391">
        <ele>169.81</ele>
        <time>2021-08-17T15:43:22Z</time>
      </trkpt>
      <trkpt lat="44.14801" lon="1.77394">
        <ele>169.81</ele>
        <time>2021-08-17T15:43:24Z</time>
      </trkpt>
      <trkpt lat="44.148" lon="1.77396">
        <ele>169.81</ele>
        <time>2021-08-17T15:43:25Z</time>
      </trkpt>
      <trkpt lat="44.14799" lon="1.77398">
        <ele>169.81</ele>
        <time>2021-08-17T15:43:26Z</time>
      </trkpt>
      <trkpt lat="44.14798" lon="1.774">
        <ele>169.33</ele>
        <time>2021-08-17T15:43:27Z</time>
      </trkpt>
      <trkpt lat="44.14798" lon="1.77402">
        <ele>169.33</ele>
        <time>2021-08-17T15:43:28Z</time>
      </trkpt>
      <trkpt lat="44.14796" lon="1.77408">
        <ele>169.33</ele>
        <time>2021-08-17T15:43:32Z</time>
      </trkpt>
      <trkpt lat="44.14795" lon="1.77409">
        <ele>169.33</ele>
        <time>2021-08-17T15:43:33Z</time>
      </trkpt>
      <trkpt lat="44.14794" lon="1.77409">
        <ele>169.33</ele>
        <time>2021-08-17T15:43:34Z</time>
      </trkpt>
      <trkpt lat="44.14792" lon="1.7741">
        <ele>169.33</ele>
        <time>2021-08-17T15:43:35Z</time>
      </trkpt>
      <trkpt lat="44.14791" lon="1.77411">
        <ele>169.33</ele>
        <time>2021-08-17T15:43:36Z</time>
      </trkpt>
      <trkpt lat="44.14783" lon="1.77417">
        <ele>169.33</ele>
        <time>2021-08-17T15:43:44Z</time>
      </trkpt>
      <trkpt lat="44.1478" lon="1.77422">
        <ele>170.77</ele>
        <time>2021-08-17T15:43:48Z</time>
      </trkpt>
      <trkpt lat="44.14776" lon="1.77434">
        <ele>170.77</ele>
        <time>2021-08-17T15:43:54Z</time>
      </trkpt>
      <trkpt lat="44.14776" lon="1.77452">
        <ele>170.77</ele>
        <time>2021-08-17T15:44:02Z</time>
      </trkpt>
      <trkpt lat="44.14777" lon="1.77457">
        <ele>169.33</ele>
        <time>2021-08-17T15:44:04Z</time>
      </trkpt>
      <trkpt lat="44.14781" lon="1.77473">
        <ele>169.33</ele>
        <time>2021-08-17T15:44:09Z</time>
      </trkpt>
      <trkpt lat="44.14787" lon="1.77489">
        <ele>169.33</ele>
        <time>2021-08-17T15:44:16Z</time>
      </trkpt>
      <trkpt lat="44.14793" lon="1.77502">
        <ele>169.81</ele>
        <time>2021-08-17T15:44:24Z</time>
      </trkpt>
      <trkpt lat="44.14799" lon="1.77515">
        <ele>171.25</ele>
        <time>2021-08-17T15:44:33Z</time>
      </trkpt>
      <trkpt lat="44.14803" lon="1.77525">
        <ele>172.69</ele>
        <time>2021-08-17T15:44:40Z</time>
      </trkpt>
      <trkpt lat="44.14804" lon="1.77536">
        <ele>174.14</ele>
        <time>2021-08-17T15:44:45Z</time>
      </trkpt>
      <trkpt lat="44.14802" lon="1.77547">
        <ele>175.58</ele>
        <time>2021-08-17T15:44:53Z</time>
      </trkpt>
      <trkpt lat="44.14795" lon="1.77558">
        <ele>176.54</ele>
        <time>2021-08-17T15:45:01Z</time>
      </trkpt>
      <trkpt lat="44.14786" lon="1.7757">
        <ele>177.98</ele>
        <time>2021-08-17T15:45:10Z</time>
      </trkpt>
      <trkpt lat="44.14785" lon="1.77575">
        <ele>178.46</ele>
        <time>2021-08-17T15:45:13Z</time>
      </trkpt>
      <trkpt lat="44.14784" lon="1.77577">
        <ele>178.46</ele>
        <time>2021-08-17T15:45:14Z</time>
      </trkpt>
      <trkpt lat="44.14784" lon="1.77589">
        <ele>178.94</ele>
        <time>2021-08-17T15:45:21Z</time>
      </trkpt>
      <trkpt lat="44.14782" lon="1.77611">
        <ele>179.42</ele>
        <time>2021-08-17T15:45:30Z</time>
      </trkpt>
      <trkpt lat="44.1478" lon="1.77614">
        <ele>179.42</ele>
        <time>2021-08-17T15:45:32Z</time>
      </trkpt>
      <trkpt lat="44.1477" lon="1.77622">
        <ele>181.35</ele>
        <time>2021-08-17T15:45:41Z</time>
      </trkpt>
      <trkpt lat="44.14764" lon="1.77627">
        <ele>182.31</ele>
        <time>2021-08-17T15:45:47Z</time>
      </trkpt>
      <trkpt lat="44.1476" lon="1.77631">
        <ele>182.79</ele>
        <time>2021-08-17T15:45:53Z</time>
      </trkpt>
      <trkpt lat="44.14757" lon="1.77632">
        <ele>182.79</ele>
        <time>2021-08-17T15:46:03Z</time>
      </trkpt>
      <trkpt lat="44.1475" lon="1.77638">
        <ele>184.23</ele>
        <time>2021-08-17T15:46:12Z</time>
      </trkpt>
      <trkpt lat="44.14744" lon="1.77647">
        <ele>186.15</ele>
        <time>2021-08-17T15:46:22Z</time>
      </trkpt>
      <trkpt lat="44.1474" lon="1.77654">
        <ele>187.59</ele>
        <time>2021-08-17T15:46:30Z</time>
      </trkpt>
      <trkpt lat="44.14739" lon="1.77662">
        <ele>189.04</ele>
        <time>2021-08-17T15:46:39Z</time>
      </trkpt>
      <trkpt lat="44.14737" lon="1.7767">
        <ele>189.52</ele>
        <time>2021-08-17T15:46:48Z</time>
      </trkpt>
      <trkpt lat="44.14736" lon="1.77677">
        <ele>190.96</ele>
        <time>2021-08-17T15:46:56Z</time>
      </trkpt>
      <trkpt lat="44.14735" lon="1.77678">
        <ele>190.96</ele>
        <time>2021-08-17T15:46:58Z</time>
      </trkpt>
      <trkpt lat="44.14734" lon="1.77677">
        <ele>190.96</ele>
        <time>2021-08-17T15:46:59Z</time>
      </trkpt>
      <trkpt lat="44.14734" lon="1.77676">
        <ele>190.96</ele>
        <time>2021-08-17T15:47:00Z</time>
      </trkpt>
      <trkpt lat="44.14733" lon="1.77675">
        <ele>190.96</ele>
        <time>2021-08-17T15:47:01Z</time>
      </trkpt>
      <trkpt lat="44.14729" lon="1.77675">
        <ele>191.44</ele>
        <time>2021-08-17T15:47:05Z</time>
      </trkpt>
      <trkpt lat="44.14724" lon="1.7768">
        <ele>192.88</ele>
        <time>2021-08-17T15:47:13Z</time>
      </trkpt>
      <trkpt lat="44.14721" lon="1.77682">
        <ele>194.32</ele>
        <time>2021-08-17T15:47:20Z</time>
      </trkpt>
      <trkpt lat="44.14717" lon="1.77685">
        <ele>195.28</ele>
        <time>2021-08-17T15:47:29Z</time>
      </trkpt>
      <trkpt lat="44.14712" lon="1.7769">
        <ele>196.73</ele>
        <time>2021-08-17T15:47:37Z</time>
      </trkpt>
      <trkpt lat="44.14706" lon="1.77692">
        <ele>198.17</ele>
        <time>2021-08-17T15:47:45Z</time>
      </trkpt>
      <trkpt lat="44.14702" lon="1.77696">
        <ele>199.13</ele>
        <time>2021-08-17T15:47:54Z</time>
      </trkpt>
      <trkpt lat="44.14697" lon="1.77696">
        <ele>200.57</ele>
        <time>2021-08-17T15:48:03Z</time>
      </trkpt>
      <trkpt lat="44.14693" lon="1.777">
        <ele>202.01</ele>
        <time>2021-08-17T15:48:12Z</time>
      </trkpt>
      <trkpt lat="44.14689" lon="1.77703">
        <ele>203.94</ele>
        <time>2021-08-17T15:48:22Z</time>
      </trkpt>
      <trkpt lat="44.14686" lon="1.77705">
        <ele>204.9</ele>
        <time>2021-08-17T15:48:30Z</time>
      </trkpt>
      <trkpt lat="44.14683" lon="1.7771">
        <ele>206.82</ele>
        <time>2021-08-17T15:48:40Z</time>
      </trkpt>
      <trkpt lat="44.14682" lon="1.77713">
        <ele>208.74</ele>
        <time>2021-08-17T15:48:49Z</time>
      </trkpt>
      <trkpt lat="44.1468" lon="1.77716">
        <ele>210.67</ele>
        <time>2021-08-17T15:49:00Z</time>
      </trkpt>
      <trkpt lat="44.14681" lon="1.77722">
        <ele>211.63</ele>
        <time>2021-08-17T15:49:08Z</time>
      </trkpt>
      <trkpt lat="44.14684" lon="1.77729">
        <ele>212.59</ele>
        <time>2021-08-17T15:49:17Z</time>
      </trkpt>
      <trkpt lat="44.14689" lon="1.77735">
        <ele>214.03</ele>
        <time>2021-08-17T15:49:26Z</time>
      </trkpt>
      <trkpt lat="44.14694" lon="1.77744">
        <ele>215.47</ele>
        <time>2021-08-17T15:49:35Z</time>
      </trkpt>
      <trkpt lat="44.14698" lon="1.77755">
        <ele>216.43</ele>
        <time>2021-08-17T15:49:44Z</time>
      </trkpt>
      <trkpt lat="44.14702" lon="1.77767">
        <ele>217.88</ele>
        <time>2021-08-17T15:49:53Z</time>
      </trkpt>
      <trkpt lat="44.14703" lon="1.77775">
        <ele>219.8</ele>
        <time>2021-08-17T15:50:01Z</time>
      </trkpt>
      <trkpt lat="44.14704" lon="1.77783">
        <ele>220.76</ele>
        <time>2021-08-17T15:50:09Z</time>
      </trkpt>
      <trkpt lat="44.14704" lon="1.77784">
        <ele>220.76</ele>
        <time>2021-08-17T15:50:10Z</time>
      </trkpt>
      <trkpt lat="44.14704" lon="1.77786">
        <ele>221.72</ele>
        <time>2021-08-17T15:50:16Z</time>
      </trkpt>
      <trkpt lat="44.14702" lon="1.77793">
        <ele>222.68</ele>
        <time>2021-08-17T15:50:22Z</time>
      </trkpt>
      <trkpt lat="44.14701" lon="1.77804">
        <ele>225.09</ele>
        <time>2021-08-17T15:50:32Z</time>
      </trkpt>
      <trkpt lat="44.147" lon="1.7781">
        <ele>226.53</ele>
        <time>2021-08-17T15:50:42Z</time>
      </trkpt>
      <trkpt lat="44.14699" lon="1.77811">
        <ele>227.49</ele>
        <time>2021-08-17T15:50:50Z</time>
      </trkpt>
      <trkpt lat="44.147" lon="1.77816">
        <ele>228.45</ele>
        <time>2021-08-17T15:50:58Z</time>
      </trkpt>
      <trkpt lat="44.14701" lon="1.77825">
        <ele>229.89</ele>
        <time>2021-08-17T15:51:07Z</time>
      </trkpt>
      <trkpt lat="44.14701" lon="1.77836">
        <ele>231.33</ele>
        <time>2021-08-17T15:51:16Z</time>
      </trkpt>
      <trkpt lat="44.14702" lon="1.77849">
        <ele>232.78</ele>
        <time>2021-08-17T15:51:25Z</time>
      </trkpt>
      <trkpt lat="44.14702" lon="1.77858">
        <ele>233.74</ele>
        <time>2021-08-17T15:51:32Z</time>
      </trkpt>
      <trkpt lat="44.14701" lon="1.77867">
        <ele>235.18</ele>
        <time>2021-08-17T15:51:41Z</time>
      </trkpt>
      <trkpt lat="44.147" lon="1.77877">
        <ele>237.1</ele>
        <time>2021-08-17T15:51:50Z</time>
      </trkpt>
      <trkpt lat="44.14699" lon="1.77885">
        <ele>238.54</ele>
        <time>2021-08-17T15:52:00Z</time>
      </trkpt>
      <trkpt lat="44.14699" lon="1.77895">
        <ele>239.99</ele>
        <time>2021-08-17T15:52:08Z</time>
      </trkpt>
      <trkpt lat="44.14697" lon="1.77907">
        <ele>241.43</ele>
        <time>2021-08-17T15:52:17Z</time>
      </trkpt>
      <trkpt lat="44.14695" lon="1.77916">
        <ele>242.39</ele>
        <time>2021-08-17T15:52:25Z</time>
      </trkpt>
      <trkpt lat="44.14693" lon="1.77922">
        <ele>243.83</ele>
        <time>2021-08-17T15:52:32Z</time>
      </trkpt>
      <trkpt lat="44.1469" lon="1.7793">
        <ele>245.27</ele>
        <time>2021-08-17T15:52:40Z</time>
      </trkpt>
      <trkpt lat="44.14688" lon="1.77939">
        <ele>246.23</ele>
        <time>2021-08-17T15:52:49Z</time>
      </trkpt>
      <trkpt lat="44.14685" lon="1.77948">
        <ele>247.68</ele>
        <time>2021-08-17T15:52:57Z</time>
      </trkpt>
      <trkpt lat="44.14685" lon="1.77959">
        <ele>249.12</ele>
        <time>2021-08-17T15:53:05Z</time>
      </trkpt>
      <trkpt lat="44.14684" lon="1.77968">
        <ele>250.56</ele>
        <time>2021-08-17T15:53:13Z</time>
      </trkpt>
      <trkpt lat="44.14682" lon="1.77977">
        <ele>251.52</ele>
        <time>2021-08-17T15:53:21Z</time>
      </trkpt>
      <trkpt lat="44.14681" lon="1.77986">
        <ele>252.96</ele>
        <time>2021-08-17T15:53:29Z</time>
      </trkpt>
      <trkpt lat="44.14681" lon="1.77988">
        <ele>252.96</ele>
        <time>2021-08-17T15:53:30Z</time>
      </trkpt>
      <trkpt lat="44.14679" lon="1.77995">
        <ele>253.93</ele>
        <time>2021-08-17T15:53:37Z</time>
      </trkpt>
      <trkpt lat="44.14677" lon="1.78004">
        <ele>255.37</ele>
        <time>2021-08-17T15:53:45Z</time>
      </trkpt>
      <trkpt lat="44.14677" lon="1.78014">
        <ele>255.85</ele>
        <time>2021-08-17T15:53:54Z</time>
      </trkpt>
      <trkpt lat="44.14674" lon="1.78025">
        <ele>256.33</ele>
        <time>2021-08-17T15:54:01Z</time>
      </trkpt>
      <trkpt lat="44.14673" lon="1.78044">
        <ele>256.81</ele>
        <time>2021-08-17T15:54:09Z</time>
      </trkpt>
      <trkpt lat="44.14672" lon="1.78049">
        <ele>256.81</ele>
        <time>2021-08-17T15:54:11Z</time>
      </trkpt>
      <trkpt lat="44.14672" lon="1.78051">
        <ele>256.81</ele>
        <time>2021-08-17T15:54:12Z</time>
      </trkpt>
      <trkpt lat="44.14672" lon="1.78054">
        <ele>257.29</ele>
        <time>2021-08-17T15:54:13Z</time>
      </trkpt>
      <trkpt lat="44.14672" lon="1.78061">
        <ele>257.77</ele>
        <time>2021-08-17T15:54:16Z</time>
      </trkpt>
      <trkpt lat="44.14671" lon="1.78062">
        <ele>258.25</ele>
        <time>2021-08-17T15:54:17Z</time>
      </trkpt>
      <trkpt lat="44.14671" lon="1.78064">
        <ele>258.25</ele>
        <time>2021-08-17T15:54:18Z</time>
      </trkpt>
      <trkpt lat="44.14671" lon="1.78066">
        <ele>258.25</ele>
        <time>2021-08-17T15:54:19Z</time>
      </trkpt>
      <trkpt lat="44.14669" lon="1.78076">
        <ele>258.25</ele>
        <time>2021-08-17T15:54:25Z</time>
      </trkpt>
      <trkpt lat="44.14668" lon="1.78079">
        <ele>258.73</ele>
        <time>2021-08-17T15:54:26Z</time>
      </trkpt>
      <trkpt lat="44.14664" lon="1.78095">
        <ele>258.73</ele>
        <time>2021-08-17T15:54:32Z</time>
      </trkpt>
      <trkpt lat="44.14661" lon="1.78102">
        <ele>257.29</ele>
        <time>2021-08-17T15:54:34Z</time>
      </trkpt>
      <trkpt lat="44.1465" lon="1.78122">
        <ele>256.81</ele>
        <time>2021-08-17T15:54:41Z</time>
      </trkpt>
      <trkpt lat="44.14643" lon="1.78127">
        <ele>256.81</ele>
        <time>2021-08-17T15:54:47Z</time>
      </trkpt>
      <trkpt lat="44.14633" lon="1.78135">
        <ele>258.25</ele>
        <time>2021-08-17T15:54:54Z</time>
      </trkpt>
      <trkpt lat="44.1463" lon="1.78139">
        <ele>258.25</ele>
        <time>2021-08-17T15:55:10Z</time>
      </trkpt>
      <trkpt lat="44.14629" lon="1.78141">
        <ele>258.25</ele>
        <time>2021-08-17T15:55:28Z</time>
      </trkpt>
      <trkpt lat="44.14626" lon="1.78141">
        <ele>258.25</ele>
        <time>2021-08-17T15:55:37Z</time>
      </trkpt>
      <trkpt lat="44.14625" lon="1.78143">
        <ele>258.73</ele>
        <time>2021-08-17T15:55:49Z</time>
      </trkpt>
      <trkpt lat="44.14622" lon="1.78148">
        <ele>259.69</ele>
        <time>2021-08-17T15:55:56Z</time>
      </trkpt>
      <trkpt lat="44.14618" lon="1.78152">
        <ele>259.69</ele>
        <time>2021-08-17T15:56:04Z</time>
      </trkpt>
      <trkpt lat="44.14615" lon="1.78154">
        <ele>259.69</ele>
        <time>2021-08-17T15:56:06Z</time>
      </trkpt>
      <trkpt lat="44.14614" lon="1.78155">
        <ele>259.69</ele>
        <time>2021-08-17T15:56:07Z</time>
      </trkpt>
      <trkpt lat="44.14602" lon="1.78166">
        <ele>260.17</ele>
        <time>2021-08-17T15:56:15Z</time>
      </trkpt>
      <trkpt lat="44.14595" lon="1.78175">
        <ele>260.65</ele>
        <time>2021-08-17T15:56:22Z</time>
      </trkpt>
      <trkpt lat="44.1459" lon="1.78181">
        <ele>261.14</ele>
        <time>2021-08-17T15:56:26Z</time>
      </trkpt>
      <trkpt lat="44.14589" lon="1.78187">
        <ele>259.69</ele>
        <time>2021-08-17T15:56:29Z</time>
      </trkpt>
      <trkpt lat="44.14577" lon="1.78201">
        <ele>259.21</ele>
        <time>2021-08-17T15:56:34Z</time>
      </trkpt>
      <trkpt lat="44.14558" lon="1.7822">
        <ele>258.73</ele>
        <time>2021-08-17T15:56:41Z</time>
      </trkpt>
      <trkpt lat="44.14547" lon="1.78231">
        <ele>258.25</ele>
        <time>2021-08-17T15:56:46Z</time>
      </trkpt>
      <trkpt lat="44.14531" lon="1.7825">
        <ele>257.77</ele>
        <time>2021-08-17T15:56:52Z</time>
      </trkpt>
      <trkpt lat="44.14511" lon="1.78269">
        <ele>257.29</ele>
        <time>2021-08-17T15:56:58Z</time>
      </trkpt>
      <trkpt lat="44.14503" lon="1.78275">
        <ele>257.29</ele>
        <time>2021-08-17T15:57:01Z</time>
      </trkpt>
      <trkpt lat="44.14501" lon="1.78277">
        <ele>257.29</ele>
        <time>2021-08-17T15:57:02Z</time>
      </trkpt>
      <trkpt lat="44.145" lon="1.78279">
        <ele>257.29</ele>
        <time>2021-08-17T15:57:03Z</time>
      </trkpt>
      <trkpt lat="44.14496" lon="1.78286">
        <ele>257.29</ele>
        <time>2021-08-17T15:57:07Z</time>
      </trkpt>
      <trkpt lat="44.14492" lon="1.78298">
        <ele>258.25</ele>
        <time>2021-08-17T15:57:11Z</time>
      </trkpt>
      <trkpt lat="44.1449" lon="1.78299">
        <ele>258.25</ele>
        <time>2021-08-17T15:57:12Z</time>
      </trkpt>
      <trkpt lat="44.14478" lon="1.78309">
        <ele>258.73</ele>
        <time>2021-08-17T15:57:15Z</time>
      </trkpt>
      <trkpt lat="44.14462" lon="1.78328">
        <ele>258.73</ele>
        <time>2021-08-17T15:57:22Z</time>
      </trkpt>
      <trkpt lat="44.14442" lon="1.7834">
        <ele>259.21</ele>
        <time>2021-08-17T15:57:28Z</time>
      </trkpt>
      <trkpt lat="44.14439" lon="1.78343">
        <ele>259.21</ele>
        <time>2021-08-17T15:57:29Z</time>
      </trkpt>
      <trkpt lat="44.14425" lon="1.78359">
        <ele>259.21</ele>
        <time>2021-08-17T15:57:36Z</time>
      </trkpt>
      <trkpt lat="44.14415" lon="1.78371">
        <ele>259.21</ele>
        <time>2021-08-17T15:57:41Z</time>
      </trkpt>
      <trkpt lat="44.14408" lon="1.78378">
        <ele>260.17</ele>
        <time>2021-08-17T15:57:45Z</time>
      </trkpt>
      <trkpt lat="44.14407" lon="1.7838">
        <ele>260.17</ele>
        <time>2021-08-17T15:57:46Z</time>
      </trkpt>
      <trkpt lat="44.144" lon="1.78392">
        <ele>262.1</ele>
        <time>2021-08-17T15:57:52Z</time>
      </trkpt>
      <trkpt lat="44.14395" lon="1.78398">
        <ele>263.54</ele>
        <time>2021-08-17T15:57:55Z</time>
      </trkpt>
      <trkpt lat="44.14386" lon="1.7841">
        <ele>264.5</ele>
        <time>2021-08-17T15:58:00Z</time>
      </trkpt>
      <trkpt lat="44.14373" lon="1.78421">
        <ele>264.98</ele>
        <time>2021-08-17T15:58:05Z</time>
      </trkpt>
      <trkpt lat="44.14372" lon="1.78424">
        <ele>264.98</ele>
        <time>2021-08-17T15:58:06Z</time>
      </trkpt>
      <trkpt lat="44.1437" lon="1.78426">
        <ele>264.98</ele>
        <time>2021-08-17T15:58:07Z</time>
      </trkpt>
      <trkpt lat="44.14366" lon="1.78431">
        <ele>265.46</ele>
        <time>2021-08-17T15:58:10Z</time>
      </trkpt>
      <trkpt lat="44.14363" lon="1.7844">
        <ele>264.02</ele>
        <time>2021-08-17T15:58:13Z</time>
      </trkpt>
      <trkpt lat="44.14362" lon="1.78443">
        <ele>264.02</ele>
        <time>2021-08-17T15:58:14Z</time>
      </trkpt>
      <trkpt lat="44.14354" lon="1.78454">
        <ele>264.02</ele>
        <time>2021-08-17T15:58:20Z</time>
      </trkpt>
      <trkpt lat="44.14342" lon="1.78469">
        <ele>265.46</ele>
        <time>2021-08-17T15:58:27Z</time>
      </trkpt>
      <trkpt lat="44.14329" lon="1.78488">
        <ele>266.42</ele>
        <time>2021-08-17T15:58:36Z</time>
      </trkpt>
      <trkpt lat="44.14328" lon="1.7849">
        <ele>266.9</ele>
        <time>2021-08-17T15:58:37Z</time>
      </trkpt>
      <trkpt lat="44.14327" lon="1.78493">
        <ele>266.9</ele>
        <time>2021-08-17T15:58:39Z</time>
      </trkpt>
      <trkpt lat="44.14319" lon="1.78506">
        <ele>267.38</ele>
        <time>2021-08-17T15:58:47Z</time>
      </trkpt>
      <trkpt lat="44.14315" lon="1.78511">
        <ele>267.38</ele>
        <time>2021-08-17T15:58:48Z</time>
      </trkpt>
      <trkpt lat="44.14311" lon="1.78515">
        <ele>267.86</ele>
        <time>2021-08-17T15:58:49Z</time>
      </trkpt>
      <trkpt lat="44.14309" lon="1.78518">
        <ele>268.35</ele>
        <time>2021-08-17T15:58:50Z</time>
      </trkpt>
      <trkpt lat="44.14295" lon="1.78536">
        <ele>269.79</ele>
        <time>2021-08-17T15:58:58Z</time>
      </trkpt>
      <trkpt lat="44.14294" lon="1.78538">
        <ele>269.79</ele>
        <time>2021-08-17T15:58:59Z</time>
      </trkpt>
      <trkpt lat="44.14292" lon="1.78539">
        <ele>269.79</ele>
        <time>2021-08-17T15:59:00Z</time>
      </trkpt>
      <trkpt lat="44.14291" lon="1.78541">
        <ele>269.79</ele>
        <time>2021-08-17T15:59:01Z</time>
      </trkpt>
      <trkpt lat="44.1429" lon="1.78543">
        <ele>270.27</ele>
        <time>2021-08-17T15:59:02Z</time>
      </trkpt>
      <trkpt lat="44.14289" lon="1.78545">
        <ele>270.27</ele>
        <time>2021-08-17T15:59:03Z</time>
      </trkpt>
      <trkpt lat="44.14289" lon="1.78546">
        <ele>270.27</ele>
        <time>2021-08-17T15:59:04Z</time>
      </trkpt>
      <trkpt lat="44.14279" lon="1.7856">
        <ele>271.71</ele>
        <time>2021-08-17T15:59:11Z</time>
      </trkpt>
      <trkpt lat="44.14274" lon="1.78568">
        <ele>272.19</ele>
        <time>2021-08-17T15:59:15Z</time>
      </trkpt>
      <trkpt lat="44.14272" lon="1.7857">
        <ele>272.19</ele>
        <time>2021-08-17T15:59:16Z</time>
      </trkpt>
      <trkpt lat="44.1427" lon="1.78573">
        <ele>272.19</ele>
        <time>2021-08-17T15:59:17Z</time>
      </trkpt>
      <trkpt lat="44.14269" lon="1.78576">
        <ele>272.19</ele>
        <time>2021-08-17T15:59:18Z</time>
      </trkpt>
      <trkpt lat="44.14267" lon="1.78579">
        <ele>272.19</ele>
        <time>2021-08-17T15:59:19Z</time>
      </trkpt>
      <trkpt lat="44.14266" lon="1.78582">
        <ele>272.19</ele>
        <time>2021-08-17T15:59:20Z</time>
      </trkpt>
      <trkpt lat="44.14265" lon="1.78584">
        <ele>272.19</ele>
        <time>2021-08-17T15:59:21Z</time>
      </trkpt>
      <trkpt lat="44.14263" lon="1.78586">
        <ele>272.19</ele>
        <time>2021-08-17T15:59:22Z</time>
      </trkpt>
      <trkpt lat="44.14262" lon="1.78588">
        <ele>272.67</ele>
        <time>2021-08-17T15:59:23Z</time>
      </trkpt>
      <trkpt lat="44.1426" lon="1.7859">
        <ele>273.15</ele>
        <time>2021-08-17T15:59:24Z</time>
      </trkpt>
      <trkpt lat="44.14259" lon="1.78593">
        <ele>273.15</ele>
        <time>2021-08-17T15:59:25Z</time>
      </trkpt>
      <trkpt lat="44.14257" lon="1.78596">
        <ele>273.15</ele>
        <time>2021-08-17T15:59:26Z</time>
      </trkpt>
      <trkpt lat="44.14249" lon="1.78611">
        <ele>273.63</ele>
        <time>2021-08-17T15:59:32Z</time>
      </trkpt>
      <trkpt lat="44.14238" lon="1.78629">
        <ele>274.59</ele>
        <time>2021-08-17T15:59:39Z</time>
      </trkpt>
      <trkpt lat="44.14229" lon="1.78643">
        <ele>275.07</ele>
        <time>2021-08-17T15:59:46Z</time>
      </trkpt>
      <trkpt lat="44.14226" lon="1.78652">
        <ele>275.07</ele>
        <time>2021-08-17T15:59:51Z</time>
      </trkpt>
      <trkpt lat="44.14216" lon="1.78666">
        <ele>273.63</ele>
        <time>2021-08-17T16:00:00Z</time>
      </trkpt>
      <trkpt lat="44.14216" lon="1.78668">
        <ele>272.67</ele>
        <time>2021-08-17T16:00:01Z</time>
      </trkpt>
      <trkpt lat="44.14214" lon="1.78672">
        <ele>272.67</ele>
        <time>2021-08-17T16:00:07Z</time>
      </trkpt>
      <trkpt lat="44.14214" lon="1.78674">
        <ele>272.67</ele>
        <time>2021-08-17T16:00:09Z</time>
      </trkpt>
      <trkpt lat="44.14214" lon="1.78676">
        <ele>272.19</ele>
        <time>2021-08-17T16:00:10Z</time>
      </trkpt>
      <trkpt lat="44.14214" lon="1.78678">
        <ele>271.71</ele>
        <time>2021-08-17T16:00:11Z</time>
      </trkpt>
      <trkpt lat="44.14213" lon="1.7868">
        <ele>271.71</ele>
        <time>2021-08-17T16:00:12Z</time>
      </trkpt>
      <trkpt lat="44.14212" lon="1.78682">
        <ele>272.19</ele>
        <time>2021-08-17T16:00:13Z</time>
      </trkpt>
      <trkpt lat="44.1421" lon="1.78686">
        <ele>272.19</ele>
        <time>2021-08-17T16:00:15Z</time>
      </trkpt>
      <trkpt lat="44.14208" lon="1.78689">
        <ele>272.19</ele>
        <time>2021-08-17T16:00:16Z</time>
      </trkpt>
      <trkpt lat="44.14205" lon="1.78691">
        <ele>272.19</ele>
        <time>2021-08-17T16:00:17Z</time>
      </trkpt>
      <trkpt lat="44.14203" lon="1.78693">
        <ele>272.19</ele>
        <time>2021-08-17T16:00:18Z</time>
      </trkpt>
      <trkpt lat="44.142" lon="1.78696">
        <ele>272.19</ele>
        <time>2021-08-17T16:00:19Z</time>
      </trkpt>
      <trkpt lat="44.14198" lon="1.787">
        <ele>272.19</ele>
        <time>2021-08-17T16:00:20Z</time>
      </trkpt>
      <trkpt lat="44.14196" lon="1.78703">
        <ele>273.15</ele>
        <time>2021-08-17T16:00:21Z</time>
      </trkpt>
      <trkpt lat="44.14194" lon="1.78705">
        <ele>273.15</ele>
        <time>2021-08-17T16:00:22Z</time>
      </trkpt>
      <trkpt lat="44.14183" lon="1.78721">
        <ele>273.63</ele>
        <time>2021-08-17T16:00:28Z</time>
      </trkpt>
      <trkpt lat="44.14171" lon="1.78738">
        <ele>274.11</ele>
        <time>2021-08-17T16:00:36Z</time>
      </trkpt>
      <trkpt lat="44.14164" lon="1.78753">
        <ele>275.07</ele>
        <time>2021-08-17T16:00:45Z</time>
      </trkpt>
      <trkpt lat="44.14151" lon="1.78769">
        <ele>276.04</ele>
        <time>2021-08-17T16:00:52Z</time>
      </trkpt>
      <trkpt lat="44.14141" lon="1.78781">
        <ele>277</ele>
        <time>2021-08-17T16:01:00Z</time>
      </trkpt>
      <trkpt lat="44.14138" lon="1.78785">
        <ele>277.96</ele>
        <time>2021-08-17T16:01:05Z</time>
      </trkpt>
      <trkpt lat="44.14128" lon="1.788">
        <ele>278.44</ele>
        <time>2021-08-17T16:01:13Z</time>
      </trkpt>
      <trkpt lat="44.14126" lon="1.78804">
        <ele>278.92</ele>
        <time>2021-08-17T16:01:14Z</time>
      </trkpt>
      <trkpt lat="44.14115" lon="1.7882">
        <ele>279.88</ele>
        <time>2021-08-17T16:01:21Z</time>
      </trkpt>
      <trkpt lat="44.14112" lon="1.78825">
        <ele>280.36</ele>
        <time>2021-08-17T16:01:23Z</time>
      </trkpt>
      <trkpt lat="44.14091" lon="1.78848">
        <ele>280.84</ele>
        <time>2021-08-17T16:01:31Z</time>
      </trkpt>
      <trkpt lat="44.14079" lon="1.78863">
        <ele>281.8</ele>
        <time>2021-08-17T16:01:38Z</time>
      </trkpt>
      <trkpt lat="44.14078" lon="1.78864">
        <ele>282.28</ele>
        <time>2021-08-17T16:01:39Z</time>
      </trkpt>
      <trkpt lat="44.14077" lon="1.78866">
        <ele>282.28</ele>
        <time>2021-08-17T16:01:40Z</time>
      </trkpt>
      <trkpt lat="44.14071" lon="1.78873">
        <ele>283.25</ele>
        <time>2021-08-17T16:01:46Z</time>
      </trkpt>
      <trkpt lat="44.14065" lon="1.78882">
        <ele>284.69</ele>
        <time>2021-08-17T16:01:54Z</time>
      </trkpt>
      <trkpt lat="44.14059" lon="1.78891">
        <ele>285.65</ele>
        <time>2021-08-17T16:02:02Z</time>
      </trkpt>
      <trkpt lat="44.1406" lon="1.78895">
        <ele>286.13</ele>
        <time>2021-08-17T16:02:14Z</time>
      </trkpt>
      <trkpt lat="44.14055" lon="1.789">
        <ele>286.61</ele>
        <time>2021-08-17T16:02:28Z</time>
      </trkpt>
      <trkpt lat="44.1405" lon="1.78903">
        <ele>287.57</ele>
        <time>2021-08-17T16:02:34Z</time>
      </trkpt>
      <trkpt lat="44.14045" lon="1.78911">
        <ele>289.01</ele>
        <time>2021-08-17T16:02:43Z</time>
      </trkpt>
      <trkpt lat="44.14043" lon="1.78915">
        <ele>290.46</ele>
        <time>2021-08-17T16:02:51Z</time>
      </trkpt>
      <trkpt lat="44.1404" lon="1.7892">
        <ele>290.46</ele>
        <time>2021-08-17T16:02:57Z</time>
      </trkpt>
      <trkpt lat="44.14035" lon="1.78928">
        <ele>290.94</ele>
        <time>2021-08-17T16:03:03Z</time>
      </trkpt>
      <trkpt lat="44.14034" lon="1.7893">
        <ele>290.94</ele>
        <time>2021-08-17T16:03:04Z</time>
      </trkpt>
      <trkpt lat="44.14025" lon="1.78942">
        <ele>291.9</ele>
        <time>2021-08-17T16:03:11Z</time>
      </trkpt>
      <trkpt lat="44.14022" lon="1.78954">
        <ele>291.9</ele>
        <time>2021-08-17T16:03:18Z</time>
      </trkpt>
      <trkpt lat="44.1402" lon="1.78959">
        <ele>292.38</ele>
        <time>2021-08-17T16:03:22Z</time>
      </trkpt>
      <trkpt lat="44.14018" lon="1.78964">
        <ele>293.34</ele>
        <time>2021-08-17T16:03:25Z</time>
      </trkpt>
      <trkpt lat="44.14017" lon="1.78965">
        <ele>293.34</ele>
        <time>2021-08-17T16:03:26Z</time>
      </trkpt>
      <trkpt lat="44.14016" lon="1.78967">
        <ele>293.34</ele>
        <time>2021-08-17T16:03:27Z</time>
      </trkpt>
      <trkpt lat="44.14016" lon="1.78969">
        <ele>293.34</ele>
        <time>2021-08-17T16:03:28Z</time>
      </trkpt>
      <trkpt lat="44.14012" lon="1.78974">
        <ele>294.3</ele>
        <time>2021-08-17T16:03:32Z</time>
      </trkpt>
      <trkpt lat="44.14008" lon="1.7898">
        <ele>295.26</ele>
        <time>2021-08-17T16:03:38Z</time>
      </trkpt>
      <trkpt lat="44.14007" lon="1.78981">
        <ele>295.74</ele>
        <time>2021-08-17T16:03:39Z</time>
      </trkpt>
      <trkpt lat="44.13998" lon="1.78991">
        <ele>296.7</ele>
        <time>2021-08-17T16:03:46Z</time>
      </trkpt>
      <trkpt lat="44.13991" lon="1.78998">
        <ele>297.67</ele>
        <time>2021-08-17T16:03:52Z</time>
      </trkpt>
      <trkpt lat="44.13988" lon="1.79004">
        <ele>299.11</ele>
        <time>2021-08-17T16:03:56Z</time>
      </trkpt>
      <trkpt lat="44.13987" lon="1.79007">
        <ele>299.11</ele>
        <time>2021-08-17T16:03:58Z</time>
      </trkpt>
      <trkpt lat="44.13986" lon="1.7901">
        <ele>299.11</ele>
        <time>2021-08-17T16:03:59Z</time>
      </trkpt>
      <trkpt lat="44.13985" lon="1.79013">
        <ele>299.11</ele>
        <time>2021-08-17T16:04:00Z</time>
      </trkpt>
      <trkpt lat="44.13979" lon="1.7903">
        <ele>299.11</ele>
        <time>2021-08-17T16:04:06Z</time>
      </trkpt>
      <trkpt lat="44.13977" lon="1.79032">
        <ele>299.11</ele>
        <time>2021-08-17T16:04:07Z</time>
      </trkpt>
      <trkpt lat="44.13976" lon="1.79034">
        <ele>299.11</ele>
        <time>2021-08-17T16:04:08Z</time>
      </trkpt>
      <trkpt lat="44.13974" lon="1.79037">
        <ele>299.11</ele>
        <time>2021-08-17T16:04:09Z</time>
      </trkpt>
      <trkpt lat="44.13964" lon="1.79049">
        <ele>300.07</ele>
        <time>2021-08-17T16:04:16Z</time>
      </trkpt>
      <trkpt lat="44.13957" lon="1.79055">
        <ele>301.99</ele>
        <time>2021-08-17T16:04:22Z</time>
      </trkpt>
      <trkpt lat="44.1395" lon="1.79061">
        <ele>303.43</ele>
        <time>2021-08-17T16:04:29Z</time>
      </trkpt>
      <trkpt lat="44.13937" lon="1.7907">
        <ele>305.36</ele>
        <time>2021-08-17T16:04:37Z</time>
      </trkpt>
      <trkpt lat="44.13933" lon="1.7907">
        <ele>305.36</ele>
        <time>2021-08-17T16:04:39Z</time>
      </trkpt>
      <trkpt lat="44.13931" lon="1.7907">
        <ele>305.36</ele>
        <time>2021-08-17T16:04:40Z</time>
      </trkpt>
      <trkpt lat="44.13929" lon="1.79069">
        <ele>305.36</ele>
        <time>2021-08-17T16:04:41Z</time>
      </trkpt>
      <trkpt lat="44.13927" lon="1.79068">
        <ele>305.36</ele>
        <time>2021-08-17T16:04:42Z</time>
      </trkpt>
      <trkpt lat="44.13924" lon="1.79067">
        <ele>305.36</ele>
        <time>2021-08-17T16:04:43Z</time>
      </trkpt>
      <trkpt lat="44.13922" lon="1.79066">
        <ele>305.36</ele>
        <time>2021-08-17T16:04:44Z</time>
      </trkpt>
      <trkpt lat="44.13907" lon="1.79069">
        <ele>304.88</ele>
        <time>2021-08-17T16:04:50Z</time>
      </trkpt>
      <trkpt lat="44.13898" lon="1.79076">
        <ele>304.88</ele>
        <time>2021-08-17T16:04:56Z</time>
      </trkpt>
      <trkpt lat="44.13885" lon="1.79087">
        <ele>306.8</ele>
        <time>2021-08-17T16:05:02Z</time>
      </trkpt>
      <trkpt lat="44.13871" lon="1.79101">
        <ele>307.76</ele>
        <time>2021-08-17T16:05:09Z</time>
      </trkpt>
      <trkpt lat="44.13868" lon="1.79105">
        <ele>307.76</ele>
        <time>2021-08-17T16:05:11Z</time>
      </trkpt>
      <trkpt lat="44.13866" lon="1.79107">
        <ele>307.76</ele>
        <time>2021-08-17T16:05:12Z</time>
      </trkpt>
      <trkpt lat="44.13864" lon="1.7911">
        <ele>307.76</ele>
        <time>2021-08-17T16:05:13Z</time>
      </trkpt>
      <trkpt lat="44.13852" lon="1.79122">
        <ele>307.76</ele>
        <time>2021-08-17T16:05:17Z</time>
      </trkpt>
      <trkpt lat="44.1384" lon="1.79136">
        <ele>307.76</ele>
        <time>2021-08-17T16:05:24Z</time>
      </trkpt>
      <trkpt lat="44.13823" lon="1.7915">
        <ele>309.68</ele>
        <time>2021-08-17T16:05:31Z</time>
      </trkpt>
      <trkpt lat="44.13799" lon="1.79166">
        <ele>311.6</ele>
        <time>2021-08-17T16:05:40Z</time>
      </trkpt>
      <trkpt lat="44.13779" lon="1.7918">
        <ele>313.53</ele>
        <time>2021-08-17T16:05:50Z</time>
      </trkpt>
      <trkpt lat="44.13769" lon="1.79184">
        <ele>314.49</ele>
        <time>2021-08-17T16:05:57Z</time>
      </trkpt>
      <trkpt lat="44.1376" lon="1.79191">
        <ele>316.41</ele>
        <time>2021-08-17T16:06:05Z</time>
      </trkpt>
      <trkpt lat="44.13752" lon="1.79198">
        <ele>317.37</ele>
        <time>2021-08-17T16:06:13Z</time>
      </trkpt>
      <trkpt lat="44.13746" lon="1.79204">
        <ele>317.85</ele>
        <time>2021-08-17T16:06:20Z</time>
      </trkpt>
      <trkpt lat="44.13743" lon="1.79207">
        <ele>317.85</ele>
        <time>2021-08-17T16:06:30Z</time>
      </trkpt>
      <trkpt lat="44.13737" lon="1.79211">
        <ele>318.81</ele>
        <time>2021-08-17T16:06:36Z</time>
      </trkpt>
      <trkpt lat="44.13724" lon="1.7922">
        <ele>319.78</ele>
        <time>2021-08-17T16:06:44Z</time>
      </trkpt>
      <trkpt lat="44.13712" lon="1.79227">
        <ele>321.22</ele>
        <time>2021-08-17T16:06:52Z</time>
      </trkpt>
      <trkpt lat="44.13695" lon="1.79228">
        <ele>322.66</ele>
        <time>2021-08-17T16:07:01Z</time>
      </trkpt>
      <trkpt lat="44.13693" lon="1.79227">
        <ele>323.14</ele>
        <time>2021-08-17T16:07:02Z</time>
      </trkpt>
      <trkpt lat="44.13682" lon="1.79223">
        <ele>324.1</ele>
        <time>2021-08-17T16:07:09Z</time>
      </trkpt>
      <trkpt lat="44.13677" lon="1.79222">
        <ele>324.1</ele>
        <time>2021-08-17T16:07:11Z</time>
      </trkpt>
      <trkpt lat="44.13662" lon="1.7922">
        <ele>325.06</ele>
        <time>2021-08-17T16:07:17Z</time>
      </trkpt>
      <trkpt lat="44.1365" lon="1.79218">
        <ele>326.02</ele>
        <time>2021-08-17T16:07:23Z</time>
      </trkpt>
      <trkpt lat="44.13635" lon="1.79215">
        <ele>326.99</ele>
        <time>2021-08-17T16:07:31Z</time>
      </trkpt>
      <trkpt lat="44.13633" lon="1.79214">
        <ele>326.99</ele>
        <time>2021-08-17T16:07:32Z</time>
      </trkpt>
      <trkpt lat="44.13625" lon="1.79216">
        <ele>327.95</ele>
        <time>2021-08-17T16:07:36Z</time>
      </trkpt>
      <trkpt lat="44.13622" lon="1.79219">
        <ele>327.95</ele>
        <time>2021-08-17T16:07:38Z</time>
      </trkpt>
      <trkpt lat="44.13612" lon="1.79233">
        <ele>328.91</ele>
        <time>2021-08-17T16:07:45Z</time>
      </trkpt>
      <trkpt lat="44.13601" lon="1.79253">
        <ele>329.87</ele>
        <time>2021-08-17T16:07:53Z</time>
      </trkpt>
      <trkpt lat="44.13593" lon="1.79277">
        <ele>329.87</ele>
        <time>2021-08-17T16:08:00Z</time>
      </trkpt>
      <trkpt lat="44.13584" lon="1.79303">
        <ele>330.35</ele>
        <time>2021-08-17T16:08:08Z</time>
      </trkpt>
      <trkpt lat="44.13574" lon="1.79324">
        <ele>331.31</ele>
        <time>2021-08-17T16:08:15Z</time>
      </trkpt>
      <trkpt lat="44.13565" lon="1.79341">
        <ele>332.75</ele>
        <time>2021-08-17T16:08:23Z</time>
      </trkpt>
      <trkpt lat="44.13564" lon="1.79343">
        <ele>332.75</ele>
        <time>2021-08-17T16:08:24Z</time>
      </trkpt>
      <trkpt lat="44.13564" lon="1.79345">
        <ele>332.75</ele>
        <time>2021-08-17T16:08:25Z</time>
      </trkpt>
      <trkpt lat="44.13563" lon="1.79347">
        <ele>332.75</ele>
        <time>2021-08-17T16:08:26Z</time>
      </trkpt>
      <trkpt lat="44.13562" lon="1.7935">
        <ele>332.75</ele>
        <time>2021-08-17T16:08:27Z</time>
      </trkpt>
      <trkpt lat="44.13553" lon="1.79365">
        <ele>333.23</ele>
        <time>2021-08-17T16:08:33Z</time>
      </trkpt>
      <trkpt lat="44.1354" lon="1.79385">
        <ele>334.68</ele>
        <time>2021-08-17T16:08:41Z</time>
      </trkpt>
      <trkpt lat="44.13538" lon="1.79386">
        <ele>334.68</ele>
        <time>2021-08-17T16:08:42Z</time>
      </trkpt>
      <trkpt lat="44.13536" lon="1.79385">
        <ele>334.68</ele>
        <time>2021-08-17T16:08:43Z</time>
      </trkpt>
      <trkpt lat="44.13534" lon="1.79383">
        <ele>334.68</ele>
        <time>2021-08-17T16:08:44Z</time>
      </trkpt>
      <trkpt lat="44.13533" lon="1.7938">
        <ele>335.16</ele>
        <time>2021-08-17T16:08:45Z</time>
      </trkpt>
      <trkpt lat="44.13532" lon="1.79377">
        <ele>335.16</ele>
        <time>2021-08-17T16:08:46Z</time>
      </trkpt>
      <trkpt lat="44.13527" lon="1.79358">
        <ele>335.64</ele>
        <time>2021-08-17T16:08:52Z</time>
      </trkpt>
      <trkpt lat="44.13518" lon="1.79326">
        <ele>336.12</ele>
        <time>2021-08-17T16:09:00Z</time>
      </trkpt>
      <trkpt lat="44.13506" lon="1.79298">
        <ele>336.6</ele>
        <time>2021-08-17T16:09:07Z</time>
      </trkpt>
      <trkpt lat="44.13506" lon="1.79294">
        <ele>337.08</ele>
        <time>2021-08-17T16:09:08Z</time>
      </trkpt>
      <trkpt lat="44.13508" lon="1.79289">
        <ele>337.08</ele>
        <time>2021-08-17T16:09:09Z</time>
      </trkpt>
      <trkpt lat="44.13525" lon="1.79258">
        <ele>337.08</ele>
        <time>2021-08-17T16:09:16Z</time>
      </trkpt>
      <trkpt lat="44.13532" lon="1.79241">
        <ele>335.64</ele>
        <time>2021-08-17T16:09:19Z</time>
      </trkpt>
      <trkpt lat="44.13551" lon="1.79197">
        <ele>335.64</ele>
        <time>2021-08-17T16:09:27Z</time>
      </trkpt>
      <trkpt lat="44.13576" lon="1.79143">
        <ele>335.64</ele>
        <time>2021-08-17T16:09:37Z</time>
      </trkpt>
      <trkpt lat="44.1359" lon="1.79107">
        <ele>337.08</ele>
        <time>2021-08-17T16:09:44Z</time>
      </trkpt>
      <trkpt lat="44.13606" lon="1.79072">
        <ele>338.52</ele>
        <time>2021-08-17T16:09:52Z</time>
      </trkpt>
      <trkpt lat="44.13617" lon="1.79048">
        <ele>339.96</ele>
        <time>2021-08-17T16:10:00Z</time>
      </trkpt>
      <trkpt lat="44.13625" lon="1.79025">
        <ele>341.89</ele>
        <time>2021-08-17T16:10:08Z</time>
      </trkpt>
      <trkpt lat="44.13636" lon="1.79">
        <ele>343.33</ele>
        <time>2021-08-17T16:10:18Z</time>
      </trkpt>
      <trkpt lat="44.13646" lon="1.78977">
        <ele>344.29</ele>
        <time>2021-08-17T16:10:27Z</time>
      </trkpt>
      <trkpt lat="44.13658" lon="1.78952">
        <ele>345.73</ele>
        <time>2021-08-17T16:10:37Z</time>
      </trkpt>
      <trkpt lat="44.13673" lon="1.7892">
        <ele>347.17</ele>
        <time>2021-08-17T16:10:49Z</time>
      </trkpt>
      <trkpt lat="44.13687" lon="1.78896">
        <ele>348.62</ele>
        <time>2021-08-17T16:10:59Z</time>
      </trkpt>
      <trkpt lat="44.13696" lon="1.7888">
        <ele>350.06</ele>
        <time>2021-08-17T16:11:06Z</time>
      </trkpt>
      <trkpt lat="44.13709" lon="1.7886">
        <ele>351.5</ele>
        <time>2021-08-17T16:11:14Z</time>
      </trkpt>
      <trkpt lat="44.13725" lon="1.78837">
        <ele>351.98</ele>
        <time>2021-08-17T16:11:23Z</time>
      </trkpt>
      <trkpt lat="44.13736" lon="1.78812">
        <ele>352.94</ele>
        <time>2021-08-17T16:11:31Z</time>
      </trkpt>
      <trkpt lat="44.1373" lon="1.78796">
        <ele>353.9</ele>
        <time>2021-08-17T16:11:36Z</time>
      </trkpt>
      <trkpt lat="44.13719" lon="1.78785">
        <ele>354.86</ele>
        <time>2021-08-17T16:11:42Z</time>
      </trkpt>
      <trkpt lat="44.13702" lon="1.78788">
        <ele>354.86</ele>
        <time>2021-08-17T16:11:48Z</time>
      </trkpt>
      <trkpt lat="44.13676" lon="1.78802">
        <ele>354.86</ele>
        <time>2021-08-17T16:11:55Z</time>
      </trkpt>
      <trkpt lat="44.13657" lon="1.78814">
        <ele>354.86</ele>
        <time>2021-08-17T16:12:01Z</time>
      </trkpt>
      <trkpt lat="44.1364" lon="1.78824">
        <ele>354.86</ele>
        <time>2021-08-17T16:12:06Z</time>
      </trkpt>
      <trkpt lat="44.13637" lon="1.78825">
        <ele>354.86</ele>
        <time>2021-08-17T16:12:07Z</time>
      </trkpt>
      <trkpt lat="44.13635" lon="1.78826">
        <ele>354.86</ele>
        <time>2021-08-17T16:12:08Z</time>
      </trkpt>
      <trkpt lat="44.13631" lon="1.78828">
        <ele>354.86</ele>
        <time>2021-08-17T16:12:09Z</time>
      </trkpt>
      <trkpt lat="44.13627" lon="1.78829">
        <ele>354.86</ele>
        <time>2021-08-17T16:12:10Z</time>
      </trkpt>
      <trkpt lat="44.13623" lon="1.78831">
        <ele>354.86</ele>
        <time>2021-08-17T16:12:11Z</time>
      </trkpt>
      <trkpt lat="44.13619" lon="1.78832">
        <ele>354.86</ele>
        <time>2021-08-17T16:12:12Z</time>
      </trkpt>
      <trkpt lat="44.1361" lon="1.78835">
        <ele>354.86</ele>
        <time>2021-08-17T16:12:14Z</time>
      </trkpt>
      <trkpt lat="44.13606" lon="1.78837">
        <ele>354.86</ele>
        <time>2021-08-17T16:12:15Z</time>
      </trkpt>
      <trkpt lat="44.13581" lon="1.78846">
        <ele>353.9</ele>
        <time>2021-08-17T16:12:21Z</time>
      </trkpt>
      <trkpt lat="44.13577" lon="1.78849">
        <ele>353.9</ele>
        <time>2021-08-17T16:12:23Z</time>
      </trkpt>
      <trkpt lat="44.13575" lon="1.78849">
        <ele>353.9</ele>
        <time>2021-08-17T16:12:24Z</time>
      </trkpt>
      <trkpt lat="44.13572" lon="1.78851">
        <ele>353.9</ele>
        <time>2021-08-17T16:12:31Z</time>
      </trkpt>
      <trkpt lat="44.13567" lon="1.78854">
        <ele>353.9</ele>
        <time>2021-08-17T16:12:38Z</time>
      </trkpt>
      <trkpt lat="44.13563" lon="1.78856">
        <ele>353.42</ele>
        <time>2021-08-17T16:12:40Z</time>
      </trkpt>
      <trkpt lat="44.13561" lon="1.78857">
        <ele>352.94</ele>
        <time>2021-08-17T16:12:41Z</time>
      </trkpt>
      <trkpt lat="44.13558" lon="1.78857">
        <ele>352.94</ele>
        <time>2021-08-17T16:12:42Z</time>
      </trkpt>
      <trkpt lat="44.13532" lon="1.78868">
        <ele>351.5</ele>
        <time>2021-08-17T16:12:49Z</time>
      </trkpt>
      <trkpt lat="44.1351" lon="1.78876">
        <ele>350.54</ele>
        <time>2021-08-17T16:12:54Z</time>
      </trkpt>
      <trkpt lat="44.13506" lon="1.78877">
        <ele>350.54</ele>
        <time>2021-08-17T16:12:55Z</time>
      </trkpt>
      <trkpt lat="44.13502" lon="1.78878">
        <ele>350.06</ele>
        <time>2021-08-17T16:12:56Z</time>
      </trkpt>
      <trkpt lat="44.13488" lon="1.78882">
        <ele>349.58</ele>
        <time>2021-08-17T16:12:59Z</time>
      </trkpt>
      <trkpt lat="44.13466" lon="1.78892">
        <ele>349.1</ele>
        <time>2021-08-17T16:13:04Z</time>
      </trkpt>
      <trkpt lat="44.13433" lon="1.78914">
        <ele>347.17</ele>
        <time>2021-08-17T16:13:11Z</time>
      </trkpt>
      <trkpt lat="44.13428" lon="1.78918">
        <ele>347.17</ele>
        <time>2021-08-17T16:13:12Z</time>
      </trkpt>
      <trkpt lat="44.13423" lon="1.78921">
        <ele>346.21</ele>
        <time>2021-08-17T16:13:13Z</time>
      </trkpt>
      <trkpt lat="44.13418" lon="1.78924">
        <ele>346.21</ele>
        <time>2021-08-17T16:13:14Z</time>
      </trkpt>
      <trkpt lat="44.13403" lon="1.78939">
        <ele>345.73</ele>
        <time>2021-08-17T16:13:17Z</time>
      </trkpt>
      <trkpt lat="44.134" lon="1.78944">
        <ele>345.73</ele>
        <time>2021-08-17T16:13:18Z</time>
      </trkpt>
      <trkpt lat="44.13397" lon="1.78949">
        <ele>344.77</ele>
        <time>2021-08-17T16:13:19Z</time>
      </trkpt>
      <trkpt lat="44.13393" lon="1.78953">
        <ele>344.29</ele>
        <time>2021-08-17T16:13:20Z</time>
      </trkpt>
      <trkpt lat="44.13388" lon="1.78956">
        <ele>343.81</ele>
        <time>2021-08-17T16:13:21Z</time>
      </trkpt>
      <trkpt lat="44.13362" lon="1.78976">
        <ele>341.41</ele>
        <time>2021-08-17T16:13:26Z</time>
      </trkpt>
      <trkpt lat="44.13357" lon="1.78981">
        <ele>341.41</ele>
        <time>2021-08-17T16:13:27Z</time>
      </trkpt>
      <trkpt lat="44.13351" lon="1.78986">
        <ele>341.41</ele>
        <time>2021-08-17T16:13:28Z</time>
      </trkpt>
      <trkpt lat="44.1332" lon="1.79012">
        <ele>339.48</ele>
        <time>2021-08-17T16:13:34Z</time>
      </trkpt>
      <trkpt lat="44.13313" lon="1.79021">
        <ele>339.48</ele>
        <time>2021-08-17T16:13:36Z</time>
      </trkpt>
      <trkpt lat="44.13309" lon="1.79021">
        <ele>339.48</ele>
        <time>2021-08-17T16:13:37Z</time>
      </trkpt>
      <trkpt lat="44.13305" lon="1.7902">
        <ele>339.48</ele>
        <time>2021-08-17T16:13:38Z</time>
      </trkpt>
      <trkpt lat="44.13301" lon="1.7902">
        <ele>339.48</ele>
        <time>2021-08-17T16:13:39Z</time>
      </trkpt>
      <trkpt lat="44.13297" lon="1.79022">
        <ele>339.48</ele>
        <time>2021-08-17T16:13:40Z</time>
      </trkpt>
      <trkpt lat="44.13292" lon="1.79025">
        <ele>339.48</ele>
        <time>2021-08-17T16:13:41Z</time>
      </trkpt>
      <trkpt lat="44.13287" lon="1.79029">
        <ele>339</ele>
        <time>2021-08-17T16:13:42Z</time>
      </trkpt>
      <trkpt lat="44.13278" lon="1.79036">
        <ele>338.04</ele>
        <time>2021-08-17T16:13:44Z</time>
      </trkpt>
      <trkpt lat="44.13273" lon="1.7904">
        <ele>338.04</ele>
        <time>2021-08-17T16:13:45Z</time>
      </trkpt>
      <trkpt lat="44.13268" lon="1.79044">
        <ele>337.56</ele>
        <time>2021-08-17T16:13:46Z</time>
      </trkpt>
      <trkpt lat="44.13233" lon="1.79077">
        <ele>337.08</ele>
        <time>2021-08-17T16:13:54Z</time>
      </trkpt>
      <trkpt lat="44.13197" lon="1.79114">
        <ele>335.64</ele>
        <time>2021-08-17T16:14:03Z</time>
      </trkpt>
      <trkpt lat="44.13169" lon="1.79143">
        <ele>334.68</ele>
        <time>2021-08-17T16:14:09Z</time>
      </trkpt>
      <trkpt lat="44.13166" lon="1.79147">
        <ele>334.68</ele>
        <time>2021-08-17T16:14:10Z</time>
      </trkpt>
      <trkpt lat="44.13164" lon="1.79149">
        <ele>334.68</ele>
        <time>2021-08-17T16:14:11Z</time>
      </trkpt>
      <trkpt lat="44.1316" lon="1.79155">
        <ele>334.68</ele>
        <time>2021-08-17T16:14:17Z</time>
      </trkpt>
      <trkpt lat="44.13156" lon="1.79157">
        <ele>334.68</ele>
        <time>2021-08-17T16:14:20Z</time>
      </trkpt>
      <trkpt lat="44.13154" lon="1.79158">
        <ele>334.2</ele>
        <time>2021-08-17T16:14:21Z</time>
      </trkpt>
      <trkpt lat="44.13151" lon="1.79158">
        <ele>334.2</ele>
        <time>2021-08-17T16:14:22Z</time>
      </trkpt>
      <trkpt lat="44.13148" lon="1.79156">
        <ele>334.2</ele>
        <time>2021-08-17T16:14:23Z</time>
      </trkpt>
      <trkpt lat="44.13145" lon="1.79153">
        <ele>334.2</ele>
        <time>2021-08-17T16:14:24Z</time>
      </trkpt>
      <trkpt lat="44.13142" lon="1.7915">
        <ele>333.71</ele>
        <time>2021-08-17T16:14:25Z</time>
      </trkpt>
      <trkpt lat="44.13138" lon="1.79146">
        <ele>333.23</ele>
        <time>2021-08-17T16:14:26Z</time>
      </trkpt>
      <trkpt lat="44.13104" lon="1.79102">
        <ele>331.79</ele>
        <time>2021-08-17T16:14:34Z</time>
      </trkpt>
      <trkpt lat="44.13072" lon="1.79054">
        <ele>330.35</ele>
        <time>2021-08-17T16:14:41Z</time>
      </trkpt>
      <trkpt lat="44.13039" lon="1.79003">
        <ele>330.35</ele>
        <time>2021-08-17T16:14:49Z</time>
      </trkpt>
      <trkpt lat="44.13009" lon="1.78955">
        <ele>330.35</ele>
        <time>2021-08-17T16:14:57Z</time>
      </trkpt>
      <trkpt lat="44.13005" lon="1.7895">
        <ele>330.35</ele>
        <time>2021-08-17T16:14:58Z</time>
      </trkpt>
      <trkpt lat="44.13001" lon="1.78945">
        <ele>330.35</ele>
        <time>2021-08-17T16:14:59Z</time>
      </trkpt>
      <trkpt lat="44.1299" lon="1.7893">
        <ele>330.35</ele>
        <time>2021-08-17T16:15:02Z</time>
      </trkpt>
      <trkpt lat="44.12986" lon="1.78925">
        <ele>330.35</ele>
        <time>2021-08-17T16:15:03Z</time>
      </trkpt>
      <trkpt lat="44.12982" lon="1.78919">
        <ele>330.35</ele>
        <time>2021-08-17T16:15:04Z</time>
      </trkpt>
      <trkpt lat="44.12955" lon="1.78863">
        <ele>330.35</ele>
        <time>2021-08-17T16:15:13Z</time>
      </trkpt>
      <trkpt lat="44.12952" lon="1.78857">
        <ele>330.35</ele>
        <time>2021-08-17T16:15:14Z</time>
      </trkpt>
      <trkpt lat="44.1295" lon="1.7885">
        <ele>330.35</ele>
        <time>2021-08-17T16:15:15Z</time>
      </trkpt>
      <trkpt lat="44.12947" lon="1.78837">
        <ele>331.31</ele>
        <time>2021-08-17T16:15:17Z</time>
      </trkpt>
      <trkpt lat="44.12946" lon="1.7883">
        <ele>331.31</ele>
        <time>2021-08-17T16:15:18Z</time>
      </trkpt>
      <trkpt lat="44.12942" lon="1.78785">
        <ele>332.27</ele>
        <time>2021-08-17T16:15:26Z</time>
      </trkpt>
      <trkpt lat="44.12936" lon="1.7873">
        <ele>332.75</ele>
        <time>2021-08-17T16:15:36Z</time>
      </trkpt>
      <trkpt lat="44.12925" lon="1.78674">
        <ele>333.23</ele>
        <time>2021-08-17T16:15:46Z</time>
      </trkpt>
      <trkpt lat="44.12915" lon="1.78645">
        <ele>333.23</ele>
        <time>2021-08-17T16:15:53Z</time>
      </trkpt>
      <trkpt lat="44.12904" lon="1.78641">
        <ele>333.23</ele>
        <time>2021-08-17T16:15:56Z</time>
      </trkpt>
      <trkpt lat="44.12899" lon="1.7864">
        <ele>333.23</ele>
        <time>2021-08-17T16:15:57Z</time>
      </trkpt>
      <trkpt lat="44.12865" lon="1.7864">
        <ele>331.79</ele>
        <time>2021-08-17T16:16:03Z</time>
      </trkpt>
      <trkpt lat="44.12804" lon="1.78639">
        <ele>330.83</ele>
        <time>2021-08-17T16:16:12Z</time>
      </trkpt>
      <trkpt lat="44.12742" lon="1.78639">
        <ele>329.87</ele>
        <time>2021-08-17T16:16:21Z</time>
      </trkpt>
      <trkpt lat="44.1269" lon="1.7864">
        <ele>331.31</ele>
        <time>2021-08-17T16:16:30Z</time>
      </trkpt>
      <trkpt lat="44.12653" lon="1.78639">
        <ele>332.27</ele>
        <time>2021-08-17T16:16:38Z</time>
      </trkpt>
      <trkpt lat="44.12618" lon="1.78638">
        <ele>333.71</ele>
        <time>2021-08-17T16:16:47Z</time>
      </trkpt>
      <trkpt lat="44.12579" lon="1.78639">
        <ele>334.68</ele>
        <time>2021-08-17T16:16:57Z</time>
      </trkpt>
      <trkpt lat="44.12546" lon="1.78639">
        <ele>334.68</ele>
        <time>2021-08-17T16:17:05Z</time>
      </trkpt>
      <trkpt lat="44.125" lon="1.78639">
        <ele>336.12</ele>
        <time>2021-08-17T16:17:16Z</time>
      </trkpt>
      <trkpt lat="44.12466" lon="1.78639">
        <ele>336.6</ele>
        <time>2021-08-17T16:17:25Z</time>
      </trkpt>
      <trkpt lat="44.12443" lon="1.78634">
        <ele>337.08</ele>
        <time>2021-08-17T16:17:32Z</time>
      </trkpt>
      <trkpt lat="44.12442" lon="1.7863">
        <ele>337.08</ele>
        <time>2021-08-17T16:17:33Z</time>
      </trkpt>
      <trkpt lat="44.12442" lon="1.78626">
        <ele>337.08</ele>
        <time>2021-08-17T16:17:34Z</time>
      </trkpt>
      <trkpt lat="44.12442" lon="1.78623">
        <ele>337.08</ele>
        <time>2021-08-17T16:17:35Z</time>
      </trkpt>
      <trkpt lat="44.12442" lon="1.78618">
        <ele>337.56</ele>
        <time>2021-08-17T16:17:36Z</time>
      </trkpt>
      <trkpt lat="44.12443" lon="1.78613">
        <ele>337.56</ele>
        <time>2021-08-17T16:17:37Z</time>
      </trkpt>
      <trkpt lat="44.12447" lon="1.78579">
        <ele>338.04</ele>
        <time>2021-08-17T16:17:44Z</time>
      </trkpt>
      <trkpt lat="44.12456" lon="1.78542">
        <ele>338.52</ele>
        <time>2021-08-17T16:17:52Z</time>
      </trkpt>
      <trkpt lat="44.12465" lon="1.78502">
        <ele>338.52</ele>
        <time>2021-08-17T16:18:00Z</time>
      </trkpt>
      <trkpt lat="44.12469" lon="1.78453">
        <ele>339.48</ele>
        <time>2021-08-17T16:18:10Z</time>
      </trkpt>
      <trkpt lat="44.12466" lon="1.78435">
        <ele>339.48</ele>
        <time>2021-08-17T16:18:14Z</time>
      </trkpt>
      <trkpt lat="44.12464" lon="1.78432">
        <ele>339.48</ele>
        <time>2021-08-17T16:18:15Z</time>
      </trkpt>
      <trkpt lat="44.12461" lon="1.78429">
        <ele>339.48</ele>
        <time>2021-08-17T16:18:16Z</time>
      </trkpt>
      <trkpt lat="44.12444" lon="1.78414">
        <ele>338.04</ele>
        <time>2021-08-17T16:18:21Z</time>
      </trkpt>
      <trkpt lat="44.12413" lon="1.78381">
        <ele>337.08</ele>
        <time>2021-08-17T16:18:30Z</time>
      </trkpt>
      <trkpt lat="44.12387" lon="1.78352">
        <ele>336.12</ele>
        <time>2021-08-17T16:18:37Z</time>
      </trkpt>
      <trkpt lat="44.12362" lon="1.7832">
        <ele>335.16</ele>
        <time>2021-08-17T16:18:43Z</time>
      </trkpt>
      <trkpt lat="44.12351" lon="1.78304">
        <ele>334.68</ele>
        <time>2021-08-17T16:18:46Z</time>
      </trkpt>
      <trkpt lat="44.12341" lon="1.78286">
        <ele>334.68</ele>
        <time>2021-08-17T16:18:49Z</time>
      </trkpt>
      <trkpt lat="44.12337" lon="1.78281">
        <ele>334.68</ele>
        <time>2021-08-17T16:18:50Z</time>
      </trkpt>
      <trkpt lat="44.12333" lon="1.78277">
        <ele>334.68</ele>
        <time>2021-08-17T16:18:51Z</time>
      </trkpt>
      <trkpt lat="44.12328" lon="1.78274">
        <ele>334.68</ele>
        <time>2021-08-17T16:18:52Z</time>
      </trkpt>
      <trkpt lat="44.12324" lon="1.78271">
        <ele>334.68</ele>
        <time>2021-08-17T16:18:53Z</time>
      </trkpt>
      <trkpt lat="44.1232" lon="1.78267">
        <ele>334.68</ele>
        <time>2021-08-17T16:18:54Z</time>
      </trkpt>
      <trkpt lat="44.12316" lon="1.78263">
        <ele>334.68</ele>
        <time>2021-08-17T16:18:55Z</time>
      </trkpt>
      <trkpt lat="44.1229" lon="1.78234">
        <ele>334.2</ele>
        <time>2021-08-17T16:19:02Z</time>
      </trkpt>
      <trkpt lat="44.12268" lon="1.78216">
        <ele>333.71</ele>
        <time>2021-08-17T16:19:07Z</time>
      </trkpt>
      <trkpt lat="44.12244" lon="1.78204">
        <ele>333.71</ele>
        <time>2021-08-17T16:19:12Z</time>
      </trkpt>
      <trkpt lat="44.12239" lon="1.78203">
        <ele>333.71</ele>
        <time>2021-08-17T16:19:13Z</time>
      </trkpt>
      <trkpt lat="44.12234" lon="1.78202">
        <ele>333.71</ele>
        <time>2021-08-17T16:19:14Z</time>
      </trkpt>
      <trkpt lat="44.1221" lon="1.78197">
        <ele>334.68</ele>
        <time>2021-08-17T16:19:20Z</time>
      </trkpt>
      <trkpt lat="44.12192" lon="1.78192">
        <ele>336.12</ele>
        <time>2021-08-17T16:19:26Z</time>
      </trkpt>
      <trkpt lat="44.12178" lon="1.78184">
        <ele>337.08</ele>
        <time>2021-08-17T16:19:33Z</time>
      </trkpt>
      <trkpt lat="44.12163" lon="1.78175">
        <ele>338.04</ele>
        <time>2021-08-17T16:19:40Z</time>
      </trkpt>
      <trkpt lat="44.12144" lon="1.78163">
        <ele>339</ele>
        <time>2021-08-17T16:19:48Z</time>
      </trkpt>
      <trkpt lat="44.12124" lon="1.7815">
        <ele>339.48</ele>
        <time>2021-08-17T16:19:55Z</time>
      </trkpt>
      <trkpt lat="44.1211" lon="1.78138">
        <ele>339.48</ele>
        <time>2021-08-17T16:20:00Z</time>
      </trkpt>
      <trkpt lat="44.12091" lon="1.78124">
        <ele>339.48</ele>
        <time>2021-08-17T16:20:05Z</time>
      </trkpt>
      <trkpt lat="44.12087" lon="1.78121">
        <ele>338.04</ele>
        <time>2021-08-17T16:20:06Z</time>
      </trkpt>
      <trkpt lat="44.12083" lon="1.78117">
        <ele>338.04</ele>
        <time>2021-08-17T16:20:07Z</time>
      </trkpt>
      <trkpt lat="44.12079" lon="1.78113">
        <ele>338.04</ele>
        <time>2021-08-17T16:20:08Z</time>
      </trkpt>
      <trkpt lat="44.12075" lon="1.78109">
        <ele>337.56</ele>
        <time>2021-08-17T16:20:09Z</time>
      </trkpt>
      <trkpt lat="44.12044" lon="1.78075">
        <ele>335.16</ele>
        <time>2021-08-17T16:20:17Z</time>
      </trkpt>
      <trkpt lat="44.12014" lon="1.78033">
        <ele>334.68</ele>
        <time>2021-08-17T16:20:25Z</time>
      </trkpt>
      <trkpt lat="44.11978" lon="1.77979">
        <ele>332.27</ele>
        <time>2021-08-17T16:20:33Z</time>
      </trkpt>
      <trkpt lat="44.11944" lon="1.77935">
        <ele>331.31</ele>
        <time>2021-08-17T16:20:39Z</time>
      </trkpt>
      <trkpt lat="44.11938" lon="1.77929">
        <ele>331.31</ele>
        <time>2021-08-17T16:20:40Z</time>
      </trkpt>
      <trkpt lat="44.11932" lon="1.77922">
        <ele>331.31</ele>
        <time>2021-08-17T16:20:41Z</time>
      </trkpt>
      <trkpt lat="44.11928" lon="1.77915">
        <ele>331.31</ele>
        <time>2021-08-17T16:20:42Z</time>
      </trkpt>
      <trkpt lat="44.11923" lon="1.77908">
        <ele>331.31</ele>
        <time>2021-08-17T16:20:43Z</time>
      </trkpt>
      <trkpt lat="44.11918" lon="1.77901">
        <ele>331.31</ele>
        <time>2021-08-17T16:20:44Z</time>
      </trkpt>
      <trkpt lat="44.11903" lon="1.77885">
        <ele>331.31</ele>
        <time>2021-08-17T16:20:47Z</time>
      </trkpt>
      <trkpt lat="44.11892" lon="1.77876">
        <ele>331.31</ele>
        <time>2021-08-17T16:20:49Z</time>
      </trkpt>
      <trkpt lat="44.11887" lon="1.77871">
        <ele>331.31</ele>
        <time>2021-08-17T16:20:50Z</time>
      </trkpt>
      <trkpt lat="44.11862" lon="1.77851">
        <ele>331.31</ele>
        <time>2021-08-17T16:20:55Z</time>
      </trkpt>
      <trkpt lat="44.11856" lon="1.77849">
        <ele>331.31</ele>
        <time>2021-08-17T16:20:56Z</time>
      </trkpt>
      <trkpt lat="44.11851" lon="1.77847">
        <ele>331.31</ele>
        <time>2021-08-17T16:20:57Z</time>
      </trkpt>
      <trkpt lat="44.11808" lon="1.77829">
        <ele>331.31</ele>
        <time>2021-08-17T16:21:05Z</time>
      </trkpt>
      <trkpt lat="44.11772" lon="1.77804">
        <ele>333.23</ele>
        <time>2021-08-17T16:21:13Z</time>
      </trkpt>
      <trkpt lat="44.1175" lon="1.77791">
        <ele>333.23</ele>
        <time>2021-08-17T16:21:18Z</time>
      </trkpt>
      <trkpt lat="44.11747" lon="1.77787">
        <ele>333.23</ele>
        <time>2021-08-17T16:21:19Z</time>
      </trkpt>
      <trkpt lat="44.11746" lon="1.77783">
        <ele>333.23</ele>
        <time>2021-08-17T16:21:20Z</time>
      </trkpt>
      <trkpt lat="44.11745" lon="1.77777">
        <ele>332.75</ele>
        <time>2021-08-17T16:21:21Z</time>
      </trkpt>
      <trkpt lat="44.11743" lon="1.77773">
        <ele>333.23</ele>
        <time>2021-08-17T16:21:22Z</time>
      </trkpt>
      <trkpt lat="44.11741" lon="1.77771">
        <ele>333.23</ele>
        <time>2021-08-17T16:21:23Z</time>
      </trkpt>
      <trkpt lat="44.11738" lon="1.77768">
        <ele>333.23</ele>
        <time>2021-08-17T16:21:24Z</time>
      </trkpt>
      <trkpt lat="44.11736" lon="1.77767">
        <ele>332.75</ele>
        <time>2021-08-17T16:21:25Z</time>
      </trkpt>
      <trkpt lat="44.11726" lon="1.77761">
        <ele>332.75</ele>
        <time>2021-08-17T16:21:31Z</time>
      </trkpt>
      <trkpt lat="44.11725" lon="1.7776">
        <ele>332.75</ele>
        <time>2021-08-17T16:21:44Z</time>
      </trkpt>
      <trkpt lat="44.11725" lon="1.7776">
        <ele>332.75</ele>
        <time>2021-08-17T16:22:08Z</time>
      </trkpt>
      <trkpt lat="44.11724" lon="1.7776">
        <ele>332.75</ele>
        <time>2021-08-17T16:22:24Z</time>
      </trkpt>
      <trkpt lat="44.11719" lon="1.77757">
        <ele>332.75</ele>
        <time>2021-08-17T16:22:34Z</time>
      </trkpt>
      <trkpt lat="44.11703" lon="1.77752">
        <ele>333.71</ele>
        <time>2021-08-17T16:22:41Z</time>
      </trkpt>
      <trkpt lat="44.11684" lon="1.77743">
        <ele>334.68</ele>
        <time>2021-08-17T16:22:48Z</time>
      </trkpt>
      <trkpt lat="44.11662" lon="1.77732">
        <ele>335.64</ele>
        <time>2021-08-17T16:22:56Z</time>
      </trkpt>
      <trkpt lat="44.11648" lon="1.77721">
        <ele>335.64</ele>
        <time>2021-08-17T16:23:01Z</time>
      </trkpt>
      <trkpt lat="44.11639" lon="1.77711">
        <ele>334.2</ele>
        <time>2021-08-17T16:23:04Z</time>
      </trkpt>
      <trkpt lat="44.11625" lon="1.77686">
        <ele>333.23</ele>
        <time>2021-08-17T16:23:10Z</time>
      </trkpt>
      <trkpt lat="44.11621" lon="1.77677">
        <ele>333.23</ele>
        <time>2021-08-17T16:23:12Z</time>
      </trkpt>
      <trkpt lat="44.11617" lon="1.77665">
        <ele>332.27</ele>
        <time>2021-08-17T16:23:14Z</time>
      </trkpt>
      <trkpt lat="44.11614" lon="1.7766">
        <ele>331.79</ele>
        <time>2021-08-17T16:23:15Z</time>
      </trkpt>
      <trkpt lat="44.11611" lon="1.77654">
        <ele>331.31</ele>
        <time>2021-08-17T16:23:16Z</time>
      </trkpt>
      <trkpt lat="44.11609" lon="1.77648">
        <ele>331.31</ele>
        <time>2021-08-17T16:23:17Z</time>
      </trkpt>
      <trkpt lat="44.11608" lon="1.77641">
        <ele>330.83</ele>
        <time>2021-08-17T16:23:18Z</time>
      </trkpt>
      <trkpt lat="44.11607" lon="1.77633">
        <ele>329.87</ele>
        <time>2021-08-17T16:23:19Z</time>
      </trkpt>
      <trkpt lat="44.11606" lon="1.77626">
        <ele>329.87</ele>
        <time>2021-08-17T16:23:20Z</time>
      </trkpt>
      <trkpt lat="44.11605" lon="1.77618">
        <ele>329.39</ele>
        <time>2021-08-17T16:23:21Z</time>
      </trkpt>
      <trkpt lat="44.11605" lon="1.7761">
        <ele>328.91</ele>
        <time>2021-08-17T16:23:22Z</time>
      </trkpt>
      <trkpt lat="44.11605" lon="1.77585">
        <ele>327.47</ele>
        <time>2021-08-17T16:23:25Z</time>
      </trkpt>
      <trkpt lat="44.11602" lon="1.77554">
        <ele>326.5</ele>
        <time>2021-08-17T16:23:29Z</time>
      </trkpt>
      <trkpt lat="44.11602" lon="1.77546">
        <ele>326.02</ele>
        <time>2021-08-17T16:23:30Z</time>
      </trkpt>
      <trkpt lat="44.11603" lon="1.7754">
        <ele>326.02</ele>
        <time>2021-08-17T16:23:31Z</time>
      </trkpt>
      <trkpt lat="44.11606" lon="1.77534">
        <ele>326.02</ele>
        <time>2021-08-17T16:23:32Z</time>
      </trkpt>
      <trkpt lat="44.11608" lon="1.77528">
        <ele>326.02</ele>
        <time>2021-08-17T16:23:33Z</time>
      </trkpt>
      <trkpt lat="44.11609" lon="1.77522">
        <ele>326.02</ele>
        <time>2021-08-17T16:23:34Z</time>
      </trkpt>
      <trkpt lat="44.1161" lon="1.77516">
        <ele>326.02</ele>
        <time>2021-08-17T16:23:35Z</time>
      </trkpt>
      <trkpt lat="44.1161" lon="1.7751">
        <ele>325.06</ele>
        <time>2021-08-17T16:23:36Z</time>
      </trkpt>
      <trkpt lat="44.1161" lon="1.77504">
        <ele>325.06</ele>
        <time>2021-08-17T16:23:37Z</time>
      </trkpt>
      <trkpt lat="44.1161" lon="1.77499">
        <ele>325.06</ele>
        <time>2021-08-17T16:23:38Z</time>
      </trkpt>
      <trkpt lat="44.11604" lon="1.77475">
        <ele>325.06</ele>
        <time>2021-08-17T16:23:43Z</time>
      </trkpt>
      <trkpt lat="44.11603" lon="1.77469">
        <ele>325.06</ele>
        <time>2021-08-17T16:23:44Z</time>
      </trkpt>
      <trkpt lat="44.11602" lon="1.77456">
        <ele>325.06</ele>
        <time>2021-08-17T16:23:46Z</time>
      </trkpt>
      <trkpt lat="44.116" lon="1.7745">
        <ele>325.06</ele>
        <time>2021-08-17T16:23:47Z</time>
      </trkpt>
      <trkpt lat="44.11597" lon="1.77445">
        <ele>325.06</ele>
        <time>2021-08-17T16:23:48Z</time>
      </trkpt>
      <trkpt lat="44.11587" lon="1.77428">
        <ele>324.58</ele>
        <time>2021-08-17T16:23:51Z</time>
      </trkpt>
      <trkpt lat="44.11584" lon="1.77422">
        <ele>324.58</ele>
        <time>2021-08-17T16:23:52Z</time>
      </trkpt>
      <trkpt lat="44.11582" lon="1.77415">
        <ele>324.58</ele>
        <time>2021-08-17T16:23:53Z</time>
      </trkpt>
      <trkpt lat="44.11579" lon="1.77409">
        <ele>324.58</ele>
        <time>2021-08-17T16:23:54Z</time>
      </trkpt>
      <trkpt lat="44.11577" lon="1.77403">
        <ele>324.58</ele>
        <time>2021-08-17T16:23:55Z</time>
      </trkpt>
      <trkpt lat="44.11573" lon="1.77391">
        <ele>324.58</ele>
        <time>2021-08-17T16:23:57Z</time>
      </trkpt>
      <trkpt lat="44.11572" lon="1.77385">
        <ele>324.58</ele>
        <time>2021-08-17T16:23:58Z</time>
      </trkpt>
      <trkpt lat="44.11576" lon="1.77371">
        <ele>326.02</ele>
        <time>2021-08-17T16:24:01Z</time>
      </trkpt>
      <trkpt lat="44.11575" lon="1.77368">
        <ele>326.5</ele>
        <time>2021-08-17T16:24:02Z</time>
      </trkpt>
      <trkpt lat="44.11574" lon="1.77366">
        <ele>326.5</ele>
        <time>2021-08-17T16:24:03Z</time>
      </trkpt>
      <trkpt lat="44.11573" lon="1.77364">
        <ele>326.5</ele>
        <time>2021-08-17T16:24:04Z</time>
      </trkpt>
      <trkpt lat="44.11572" lon="1.77362">
        <ele>326.5</ele>
        <time>2021-08-17T16:24:05Z</time>
      </trkpt>
      <trkpt lat="44.11571" lon="1.77359">
        <ele>326.5</ele>
        <time>2021-08-17T16:24:06Z</time>
      </trkpt>
      <trkpt lat="44.11569" lon="1.77356">
        <ele>326.5</ele>
        <time>2021-08-17T16:24:07Z</time>
      </trkpt>
      <trkpt lat="44.11566" lon="1.77353">
        <ele>326.5</ele>
        <time>2021-08-17T16:24:08Z</time>
      </trkpt>
      <trkpt lat="44.11548" lon="1.77336">
        <ele>326.5</ele>
        <time>2021-08-17T16:24:15Z</time>
      </trkpt>
      <trkpt lat="44.11534" lon="1.77329">
        <ele>325.06</ele>
        <time>2021-08-17T16:24:20Z</time>
      </trkpt>
      <trkpt lat="44.1153" lon="1.77328">
        <ele>325.06</ele>
        <time>2021-08-17T16:24:21Z</time>
      </trkpt>
      <trkpt lat="44.1151" lon="1.77322">
        <ele>324.1</ele>
        <time>2021-08-17T16:24:27Z</time>
      </trkpt>
      <trkpt lat="44.11506" lon="1.7732">
        <ele>323.62</ele>
        <time>2021-08-17T16:24:28Z</time>
      </trkpt>
      <trkpt lat="44.11492" lon="1.77318">
        <ele>322.66</ele>
        <time>2021-08-17T16:24:31Z</time>
      </trkpt>
      <trkpt lat="44.11488" lon="1.77317">
        <ele>322.66</ele>
        <time>2021-08-17T16:24:32Z</time>
      </trkpt>
      <trkpt lat="44.11483" lon="1.77315">
        <ele>322.18</ele>
        <time>2021-08-17T16:24:33Z</time>
      </trkpt>
      <trkpt lat="44.11475" lon="1.77313">
        <ele>322.18</ele>
        <time>2021-08-17T16:24:35Z</time>
      </trkpt>
      <trkpt lat="44.11462" lon="1.77307">
        <ele>321.22</ele>
        <time>2021-08-17T16:24:38Z</time>
      </trkpt>
      <trkpt lat="44.11458" lon="1.77305">
        <ele>321.7</ele>
        <time>2021-08-17T16:24:39Z</time>
      </trkpt>
      <trkpt lat="44.11454" lon="1.77303">
        <ele>321.7</ele>
        <time>2021-08-17T16:24:40Z</time>
      </trkpt>
      <trkpt lat="44.1145" lon="1.77302">
        <ele>321.7</ele>
        <time>2021-08-17T16:24:41Z</time>
      </trkpt>
      <trkpt lat="44.11447" lon="1.773">
        <ele>321.22</ele>
        <time>2021-08-17T16:24:42Z</time>
      </trkpt>
      <trkpt lat="44.11443" lon="1.77299">
        <ele>321.22</ele>
        <time>2021-08-17T16:24:43Z</time>
      </trkpt>
      <trkpt lat="44.1144" lon="1.77298">
        <ele>321.22</ele>
        <time>2021-08-17T16:24:44Z</time>
      </trkpt>
      <trkpt lat="44.11438" lon="1.77296">
        <ele>321.22</ele>
        <time>2021-08-17T16:24:45Z</time>
      </trkpt>
      <trkpt lat="44.11423" lon="1.77289">
        <ele>321.22</ele>
        <time>2021-08-17T16:24:50Z</time>
      </trkpt>
      <trkpt lat="44.114" lon="1.77278">
        <ele>321.22</ele>
        <time>2021-08-17T16:24:57Z</time>
      </trkpt>
      <trkpt lat="44.11377" lon="1.77268">
        <ele>322.18</ele>
        <time>2021-08-17T16:25:04Z</time>
      </trkpt>
      <trkpt lat="44.11374" lon="1.77266">
        <ele>322.18</ele>
        <time>2021-08-17T16:25:05Z</time>
      </trkpt>
      <trkpt lat="44.1137" lon="1.77263">
        <ele>322.18</ele>
        <time>2021-08-17T16:25:06Z</time>
      </trkpt>
      <trkpt lat="44.11365" lon="1.77262">
        <ele>322.18</ele>
        <time>2021-08-17T16:25:07Z</time>
      </trkpt>
      <trkpt lat="44.11356" lon="1.7726">
        <ele>322.18</ele>
        <time>2021-08-17T16:25:09Z</time>
      </trkpt>
      <trkpt lat="44.11352" lon="1.77258">
        <ele>322.18</ele>
        <time>2021-08-17T16:25:10Z</time>
      </trkpt>
      <trkpt lat="44.11348" lon="1.77256">
        <ele>322.18</ele>
        <time>2021-08-17T16:25:11Z</time>
      </trkpt>
      <trkpt lat="44.11344" lon="1.77254">
        <ele>322.18</ele>
        <time>2021-08-17T16:25:12Z</time>
      </trkpt>
      <trkpt lat="44.1134" lon="1.77253">
        <ele>322.18</ele>
        <time>2021-08-17T16:25:13Z</time>
      </trkpt>
      <trkpt lat="44.11336" lon="1.77251">
        <ele>322.18</ele>
        <time>2021-08-17T16:25:14Z</time>
      </trkpt>
      <trkpt lat="44.11332" lon="1.7725">
        <ele>321.22</ele>
        <time>2021-08-17T16:25:15Z</time>
      </trkpt>
      <trkpt lat="44.11327" lon="1.77248">
        <ele>321.22</ele>
        <time>2021-08-17T16:25:16Z</time>
      </trkpt>
      <trkpt lat="44.11307" lon="1.77243">
        <ele>319.3</ele>
        <time>2021-08-17T16:25:21Z</time>
      </trkpt>
      <trkpt lat="44.11305" lon="1.77242">
        <ele>319.3</ele>
        <time>2021-08-17T16:25:22Z</time>
      </trkpt>
      <trkpt lat="44.11305" lon="1.77241">
        <ele>319.3</ele>
        <time>2021-08-17T16:25:27Z</time>
      </trkpt>
      <trkpt lat="44.11306" lon="1.77242">
        <ele>319.3</ele>
        <time>2021-08-17T16:25:33Z</time>
      </trkpt>
      <trkpt lat="44.11306" lon="1.77237">
        <ele>319.3</ele>
        <time>2021-08-17T16:25:39Z</time>
      </trkpt>
      <trkpt lat="44.11305" lon="1.77239">
        <ele>319.3</ele>
        <time>2021-08-17T16:25:47Z</time>
      </trkpt>
      <trkpt lat="44.11305" lon="1.77237">
        <ele>319.3</ele>
        <time>2021-08-17T16:25:50Z</time>
      </trkpt>
      <trkpt lat="44.11305" lon="1.77236">
        <ele>319.3</ele>
        <time>2021-08-17T16:25:51Z</time>
      </trkpt>
      <trkpt lat="44.11306" lon="1.77234">
        <ele>319.3</ele>
        <time>2021-08-17T16:25:52Z</time>
      </trkpt>
      <trkpt lat="44.11306" lon="1.77233">
        <ele>319.3</ele>
        <time>2021-08-17T16:25:53Z</time>
      </trkpt>
      <trkpt lat="44.11306" lon="1.77231">
        <ele>319.3</ele>
        <time>2021-08-17T16:25:54Z</time>
      </trkpt>
      <trkpt lat="44.11305" lon="1.77228">
        <ele>319.3</ele>
        <time>2021-08-17T16:25:55Z</time>
      </trkpt>
      <trkpt lat="44.11305" lon="1.77225">
        <ele>319.3</ele>
        <time>2021-08-17T16:25:56Z</time>
      </trkpt>
      <trkpt lat="44.11304" lon="1.7722">
        <ele>319.3</ele>
        <time>2021-08-17T16:25:57Z</time>
      </trkpt>
      <trkpt lat="44.11304" lon="1.77216">
        <ele>319.3</ele>
        <time>2021-08-17T16:25:58Z</time>
      </trkpt>
      <trkpt lat="44.11298" lon="1.77185">
        <ele>318.33</ele>
        <time>2021-08-17T16:26:05Z</time>
      </trkpt>
      <trkpt lat="44.11292" lon="1.77151">
        <ele>317.37</ele>
        <time>2021-08-17T16:26:11Z</time>
      </trkpt>
      <trkpt lat="44.11275" lon="1.77098">
        <ele>314.97</ele>
        <time>2021-08-17T16:26:18Z</time>
      </trkpt>
      <trkpt lat="44.11257" lon="1.77055">
        <ele>313.05</ele>
        <time>2021-08-17T16:26:23Z</time>
      </trkpt>
      <trkpt lat="44.11247" lon="1.77026">
        <ele>312.57</ele>
        <time>2021-08-17T16:26:26Z</time>
      </trkpt>
      <trkpt lat="44.1124" lon="1.77008">
        <ele>312.57</ele>
        <time>2021-08-17T16:26:28Z</time>
      </trkpt>
      <trkpt lat="44.11238" lon="1.76999">
        <ele>312.57</ele>
        <time>2021-08-17T16:26:29Z</time>
      </trkpt>
      <trkpt lat="44.11237" lon="1.76989">
        <ele>312.57</ele>
        <time>2021-08-17T16:26:30Z</time>
      </trkpt>
      <trkpt lat="44.11238" lon="1.76981">
        <ele>312.57</ele>
        <time>2021-08-17T16:26:31Z</time>
      </trkpt>
      <trkpt lat="44.11239" lon="1.76973">
        <ele>312.09</ele>
        <time>2021-08-17T16:26:32Z</time>
      </trkpt>
      <trkpt lat="44.1124" lon="1.76966">
        <ele>312.57</ele>
        <time>2021-08-17T16:26:33Z</time>
      </trkpt>
      <trkpt lat="44.11241" lon="1.76959">
        <ele>312.57</ele>
        <time>2021-08-17T16:26:34Z</time>
      </trkpt>
      <trkpt lat="44.11241" lon="1.76947">
        <ele>313.53</ele>
        <time>2021-08-17T16:26:36Z</time>
      </trkpt>
      <trkpt lat="44.1124" lon="1.7694">
        <ele>314.01</ele>
        <time>2021-08-17T16:26:37Z</time>
      </trkpt>
      <trkpt lat="44.11237" lon="1.76936">
        <ele>314.01</ele>
        <time>2021-08-17T16:26:38Z</time>
      </trkpt>
      <trkpt lat="44.11219" lon="1.76912">
        <ele>314.97</ele>
        <time>2021-08-17T16:26:44Z</time>
      </trkpt>
      <trkpt lat="44.11212" lon="1.76897">
        <ele>315.45</ele>
        <time>2021-08-17T16:26:47Z</time>
      </trkpt>
      <trkpt lat="44.11211" lon="1.76891">
        <ele>315.45</ele>
        <time>2021-08-17T16:26:48Z</time>
      </trkpt>
      <trkpt lat="44.11203" lon="1.76854">
        <ele>314.97</ele>
        <time>2021-08-17T16:26:55Z</time>
      </trkpt>
      <trkpt lat="44.11186" lon="1.76816">
        <ele>314.97</ele>
        <time>2021-08-17T16:27:03Z</time>
      </trkpt>
      <trkpt lat="44.1118" lon="1.76804">
        <ele>313.53</ele>
        <time>2021-08-17T16:27:05Z</time>
      </trkpt>
      <trkpt lat="44.11151" lon="1.76739">
        <ele>310.16</ele>
        <time>2021-08-17T16:27:14Z</time>
      </trkpt>
      <trkpt lat="44.11141" lon="1.76714">
        <ele>309.68</ele>
        <time>2021-08-17T16:27:17Z</time>
      </trkpt>
      <trkpt lat="44.11137" lon="1.76707">
        <ele>309.68</ele>
        <time>2021-08-17T16:27:18Z</time>
      </trkpt>
      <trkpt lat="44.11132" lon="1.767">
        <ele>308.72</ele>
        <time>2021-08-17T16:27:19Z</time>
      </trkpt>
      <trkpt lat="44.11126" lon="1.76694">
        <ele>307.76</ele>
        <time>2021-08-17T16:27:20Z</time>
      </trkpt>
      <trkpt lat="44.1112" lon="1.76688">
        <ele>306.8</ele>
        <time>2021-08-17T16:27:21Z</time>
      </trkpt>
      <trkpt lat="44.11115" lon="1.76685">
        <ele>306.8</ele>
        <time>2021-08-17T16:27:22Z</time>
      </trkpt>
      <trkpt lat="44.11111" lon="1.76685">
        <ele>306.8</ele>
        <time>2021-08-17T16:27:23Z</time>
      </trkpt>
      <trkpt lat="44.11107" lon="1.76687">
        <ele>306.8</ele>
        <time>2021-08-17T16:27:24Z</time>
      </trkpt>
      <trkpt lat="44.11104" lon="1.76689">
        <ele>306.8</ele>
        <time>2021-08-17T16:27:25Z</time>
      </trkpt>
      <trkpt lat="44.11102" lon="1.7669">
        <ele>306.8</ele>
        <time>2021-08-17T16:27:26Z</time>
      </trkpt>
      <trkpt lat="44.11101" lon="1.7669">
        <ele>305.84</ele>
        <time>2021-08-17T16:27:31Z</time>
      </trkpt>
      <trkpt lat="44.111" lon="1.76688">
        <ele>306.32</ele>
        <time>2021-08-17T16:27:37Z</time>
      </trkpt>
      <trkpt lat="44.11099" lon="1.76688">
        <ele>306.32</ele>
        <time>2021-08-17T16:27:41Z</time>
      </trkpt>
      <trkpt lat="44.11097" lon="1.76687">
        <ele>306.32</ele>
        <time>2021-08-17T16:27:42Z</time>
      </trkpt>
      <trkpt lat="44.11095" lon="1.76686">
        <ele>305.84</ele>
        <time>2021-08-17T16:27:43Z</time>
      </trkpt>
      <trkpt lat="44.11093" lon="1.76686">
        <ele>305.84</ele>
        <time>2021-08-17T16:27:44Z</time>
      </trkpt>
      <trkpt lat="44.1109" lon="1.76688">
        <ele>305.36</ele>
        <time>2021-08-17T16:27:45Z</time>
      </trkpt>
      <trkpt lat="44.11088" lon="1.76691">
        <ele>305.36</ele>
        <time>2021-08-17T16:27:46Z</time>
      </trkpt>
      <trkpt lat="44.11067" lon="1.7671">
        <ele>304.88</ele>
        <time>2021-08-17T16:27:52Z</time>
      </trkpt>
      <trkpt lat="44.11062" lon="1.76713">
        <ele>304.39</ele>
        <time>2021-08-17T16:27:53Z</time>
      </trkpt>
      <trkpt lat="44.11057" lon="1.76716">
        <ele>304.39</ele>
        <time>2021-08-17T16:27:54Z</time>
      </trkpt>
      <trkpt lat="44.11015" lon="1.76732">
        <ele>304.39</ele>
        <time>2021-08-17T16:28:03Z</time>
      </trkpt>
      <trkpt lat="44.10998" lon="1.76739">
        <ele>305.84</ele>
        <time>2021-08-17T16:28:07Z</time>
      </trkpt>
      <trkpt lat="44.10966" lon="1.7675">
        <ele>306.32</ele>
        <time>2021-08-17T16:28:15Z</time>
      </trkpt>
      <trkpt lat="44.10929" lon="1.76762">
        <ele>306.32</ele>
        <time>2021-08-17T16:28:23Z</time>
      </trkpt>
      <trkpt lat="44.10893" lon="1.76775">
        <ele>306.8</ele>
        <time>2021-08-17T16:28:32Z</time>
      </trkpt>
      <trkpt lat="44.10868" lon="1.76788">
        <ele>307.76</ele>
        <time>2021-08-17T16:28:39Z</time>
      </trkpt>
      <trkpt lat="44.10843" lon="1.76801">
        <ele>308.72</ele>
        <time>2021-08-17T16:28:47Z</time>
      </trkpt>
      <trkpt lat="44.10814" lon="1.76816">
        <ele>310.16</ele>
        <time>2021-08-17T16:28:57Z</time>
      </trkpt>
      <trkpt lat="44.10785" lon="1.76826">
        <ele>311.12</ele>
        <time>2021-08-17T16:29:06Z</time>
      </trkpt>
      <trkpt lat="44.10761" lon="1.76836">
        <ele>312.09</ele>
        <time>2021-08-17T16:29:14Z</time>
      </trkpt>
      <trkpt lat="44.10734" lon="1.76849">
        <ele>312.57</ele>
        <time>2021-08-17T16:29:24Z</time>
      </trkpt>
      <trkpt lat="44.10707" lon="1.76866">
        <ele>314.01</ele>
        <time>2021-08-17T16:29:35Z</time>
      </trkpt>
      <trkpt lat="44.10693" lon="1.76877">
        <ele>314.97</ele>
        <time>2021-08-17T16:29:42Z</time>
      </trkpt>
      <trkpt lat="44.10677" lon="1.76893">
        <ele>316.41</ele>
        <time>2021-08-17T16:29:50Z</time>
      </trkpt>
      <trkpt lat="44.10661" lon="1.76914">
        <ele>317.37</ele>
        <time>2021-08-17T16:29:58Z</time>
      </trkpt>
      <trkpt lat="44.10647" lon="1.7693">
        <ele>317.85</ele>
        <time>2021-08-17T16:30:04Z</time>
      </trkpt>
      <trkpt lat="44.10625" lon="1.76946">
        <ele>318.33</ele>
        <time>2021-08-17T16:30:12Z</time>
      </trkpt>
      <trkpt lat="44.10603" lon="1.76962">
        <ele>319.3</ele>
        <time>2021-08-17T16:30:20Z</time>
      </trkpt>
      <trkpt lat="44.10582" lon="1.7698">
        <ele>319.3</ele>
        <time>2021-08-17T16:30:27Z</time>
      </trkpt>
      <trkpt lat="44.10561" lon="1.76997">
        <ele>320.26</ele>
        <time>2021-08-17T16:30:35Z</time>
      </trkpt>
      <trkpt lat="44.10547" lon="1.77009">
        <ele>320.74</ele>
        <time>2021-08-17T16:30:40Z</time>
      </trkpt>
      <trkpt lat="44.10529" lon="1.7702">
        <ele>322.18</ele>
        <time>2021-08-17T16:30:47Z</time>
      </trkpt>
      <trkpt lat="44.10505" lon="1.7703">
        <ele>322.66</ele>
        <time>2021-08-17T16:30:54Z</time>
      </trkpt>
      <trkpt lat="44.1049" lon="1.77043">
        <ele>322.66</ele>
        <time>2021-08-17T16:30:59Z</time>
      </trkpt>
      <trkpt lat="44.10469" lon="1.77061">
        <ele>323.14</ele>
        <time>2021-08-17T16:31:06Z</time>
      </trkpt>
      <trkpt lat="44.10449" lon="1.77079">
        <ele>323.62</ele>
        <time>2021-08-17T16:31:13Z</time>
      </trkpt>
      <trkpt lat="44.10429" lon="1.77103">
        <ele>323.62</ele>
        <time>2021-08-17T16:31:20Z</time>
      </trkpt>
      <trkpt lat="44.10402" lon="1.77141">
        <ele>324.1</ele>
        <time>2021-08-17T16:31:30Z</time>
      </trkpt>
      <trkpt lat="44.10382" lon="1.77177">
        <ele>324.58</ele>
        <time>2021-08-17T16:31:39Z</time>
      </trkpt>
      <trkpt lat="44.10366" lon="1.77205">
        <ele>325.06</ele>
        <time>2021-08-17T16:31:46Z</time>
      </trkpt>
      <trkpt lat="44.10354" lon="1.77228">
        <ele>325.54</ele>
        <time>2021-08-17T16:31:53Z</time>
      </trkpt>
      <trkpt lat="44.10341" lon="1.7725">
        <ele>326.02</ele>
        <time>2021-08-17T16:31:59Z</time>
      </trkpt>
      <trkpt lat="44.10333" lon="1.77278">
        <ele>326.02</ele>
        <time>2021-08-17T16:32:04Z</time>
      </trkpt>
      <trkpt lat="44.10332" lon="1.77321">
        <ele>326.02</ele>
        <time>2021-08-17T16:32:10Z</time>
      </trkpt>
      <trkpt lat="44.10344" lon="1.77362">
        <ele>326.99</ele>
        <time>2021-08-17T16:32:18Z</time>
      </trkpt>
      <trkpt lat="44.10353" lon="1.77385">
        <ele>327.95</ele>
        <time>2021-08-17T16:32:25Z</time>
      </trkpt>
      <trkpt lat="44.10365" lon="1.77405">
        <ele>329.39</ele>
        <time>2021-08-17T16:32:33Z</time>
      </trkpt>
      <trkpt lat="44.10373" lon="1.77421">
        <ele>329.87</ele>
        <time>2021-08-17T16:32:39Z</time>
      </trkpt>
      <trkpt lat="44.10385" lon="1.77447">
        <ele>330.83</ele>
        <time>2021-08-17T16:32:47Z</time>
      </trkpt>
      <trkpt lat="44.10393" lon="1.77472">
        <ele>332.27</ele>
        <time>2021-08-17T16:32:55Z</time>
      </trkpt>
      <trkpt lat="44.10395" lon="1.77495">
        <ele>333.71</ele>
        <time>2021-08-17T16:33:03Z</time>
      </trkpt>
      <trkpt lat="44.10396" lon="1.77525">
        <ele>334.68</ele>
        <time>2021-08-17T16:33:13Z</time>
      </trkpt>
      <trkpt lat="44.10394" lon="1.77552">
        <ele>336.12</ele>
        <time>2021-08-17T16:33:21Z</time>
      </trkpt>
      <trkpt lat="44.10387" lon="1.77575">
        <ele>336.6</ele>
        <time>2021-08-17T16:33:28Z</time>
      </trkpt>
      <trkpt lat="44.10374" lon="1.77599">
        <ele>337.08</ele>
        <time>2021-08-17T16:33:35Z</time>
      </trkpt>
      <trkpt lat="44.10361" lon="1.77624">
        <ele>338.04</ele>
        <time>2021-08-17T16:33:41Z</time>
      </trkpt>
      <trkpt lat="44.10341" lon="1.77659">
        <ele>336.6</ele>
        <time>2021-08-17T16:33:49Z</time>
      </trkpt>
      <trkpt lat="44.10336" lon="1.7767">
        <ele>336.12</ele>
        <time>2021-08-17T16:33:51Z</time>
      </trkpt>
      <trkpt lat="44.10324" lon="1.7771">
        <ele>335.64</ele>
        <time>2021-08-17T16:33:58Z</time>
      </trkpt>
      <trkpt lat="44.10318" lon="1.77758">
        <ele>335.64</ele>
        <time>2021-08-17T16:34:06Z</time>
      </trkpt>
      <trkpt lat="44.10316" lon="1.7778">
        <ele>337.08</ele>
        <time>2021-08-17T16:34:10Z</time>
      </trkpt>
      <trkpt lat="44.10312" lon="1.77815">
        <ele>338.04</ele>
        <time>2021-08-17T16:34:17Z</time>
      </trkpt>
      <trkpt lat="44.10309" lon="1.77844">
        <ele>339</ele>
        <time>2021-08-17T16:34:24Z</time>
      </trkpt>
      <trkpt lat="44.10307" lon="1.77873">
        <ele>340.44</ele>
        <time>2021-08-17T16:34:31Z</time>
      </trkpt>
      <trkpt lat="44.10303" lon="1.77911">
        <ele>341.41</ele>
        <time>2021-08-17T16:34:40Z</time>
      </trkpt>
      <trkpt lat="44.10298" lon="1.7794">
        <ele>342.37</ele>
        <time>2021-08-17T16:34:47Z</time>
      </trkpt>
      <trkpt lat="44.10289" lon="1.77969">
        <ele>343.33</ele>
        <time>2021-08-17T16:34:54Z</time>
      </trkpt>
      <trkpt lat="44.1028" lon="1.77997">
        <ele>342.85</ele>
        <time>2021-08-17T16:35:00Z</time>
      </trkpt>
      <trkpt lat="44.10272" lon="1.78013">
        <ele>342.85</ele>
        <time>2021-08-17T16:35:03Z</time>
      </trkpt>
      <trkpt lat="44.10269" lon="1.78017">
        <ele>342.85</ele>
        <time>2021-08-17T16:35:04Z</time>
      </trkpt>
      <trkpt lat="44.10251" lon="1.78044">
        <ele>341.41</ele>
        <time>2021-08-17T16:35:09Z</time>
      </trkpt>
      <trkpt lat="44.10248" lon="1.78051">
        <ele>340.92</ele>
        <time>2021-08-17T16:35:10Z</time>
      </trkpt>
      <trkpt lat="44.10246" lon="1.78058">
        <ele>340.92</ele>
        <time>2021-08-17T16:35:11Z</time>
      </trkpt>
      <trkpt lat="44.10244" lon="1.7807">
        <ele>339.48</ele>
        <time>2021-08-17T16:35:13Z</time>
      </trkpt>
      <trkpt lat="44.10243" lon="1.78081">
        <ele>339</ele>
        <time>2021-08-17T16:35:15Z</time>
      </trkpt>
      <trkpt lat="44.10241" lon="1.78084">
        <ele>338.04</ele>
        <time>2021-08-17T16:35:16Z</time>
      </trkpt>
      <trkpt lat="44.10238" lon="1.78087">
        <ele>338.04</ele>
        <time>2021-08-17T16:35:17Z</time>
      </trkpt>
      <trkpt lat="44.10236" lon="1.78087">
        <ele>337.56</ele>
        <time>2021-08-17T16:35:18Z</time>
      </trkpt>
      <trkpt lat="44.10233" lon="1.78085">
        <ele>337.56</ele>
        <time>2021-08-17T16:35:19Z</time>
      </trkpt>
      <trkpt lat="44.10231" lon="1.78083">
        <ele>337.56</ele>
        <time>2021-08-17T16:35:20Z</time>
      </trkpt>
      <trkpt lat="44.1023" lon="1.78081">
        <ele>337.56</ele>
        <time>2021-08-17T16:35:21Z</time>
      </trkpt>
      <trkpt lat="44.10212" lon="1.78055">
        <ele>337.08</ele>
        <time>2021-08-17T16:35:28Z</time>
      </trkpt>
      <trkpt lat="44.10183" lon="1.78018">
        <ele>336.12</ele>
        <time>2021-08-17T16:35:35Z</time>
      </trkpt>
      <trkpt lat="44.10153" lon="1.77967">
        <ele>335.16</ele>
        <time>2021-08-17T16:35:42Z</time>
      </trkpt>
      <trkpt lat="44.10118" lon="1.77903">
        <ele>332.75</ele>
        <time>2021-08-17T16:35:50Z</time>
      </trkpt>
      <trkpt lat="44.10076" lon="1.77833">
        <ele>332.27</ele>
        <time>2021-08-17T16:35:59Z</time>
      </trkpt>
      <trkpt lat="44.10043" lon="1.77762">
        <ele>330.83</ele>
        <time>2021-08-17T16:36:07Z</time>
      </trkpt>
      <trkpt lat="44.10007" lon="1.77707">
        <ele>329.39</ele>
        <time>2021-08-17T16:36:14Z</time>
      </trkpt>
      <trkpt lat="44.09989" lon="1.77674">
        <ele>328.43</ele>
        <time>2021-08-17T16:36:18Z</time>
      </trkpt>
      <trkpt lat="44.09962" lon="1.77607">
        <ele>326.99</ele>
        <time>2021-08-17T16:36:26Z</time>
      </trkpt>
      <trkpt lat="44.09953" lon="1.77584">
        <ele>326.99</ele>
        <time>2021-08-17T16:36:29Z</time>
      </trkpt>
      <trkpt lat="44.09941" lon="1.7753">
        <ele>326.99</ele>
        <time>2021-08-17T16:36:36Z</time>
      </trkpt>
      <trkpt lat="44.09925" lon="1.7746">
        <ele>325.06</ele>
        <time>2021-08-17T16:36:44Z</time>
      </trkpt>
      <trkpt lat="44.09915" lon="1.77417">
        <ele>323.62</ele>
        <time>2021-08-17T16:36:48Z</time>
      </trkpt>
      <trkpt lat="44.09911" lon="1.77407">
        <ele>323.62</ele>
        <time>2021-08-17T16:36:49Z</time>
      </trkpt>
      <trkpt lat="44.09907" lon="1.77398">
        <ele>323.14</ele>
        <time>2021-08-17T16:36:50Z</time>
      </trkpt>
      <trkpt lat="44.09902" lon="1.7739">
        <ele>323.14</ele>
        <time>2021-08-17T16:36:51Z</time>
      </trkpt>
      <trkpt lat="44.09896" lon="1.77383">
        <ele>323.14</ele>
        <time>2021-08-17T16:36:52Z</time>
      </trkpt>
      <trkpt lat="44.09891" lon="1.77376">
        <ele>323.14</ele>
        <time>2021-08-17T16:36:53Z</time>
      </trkpt>
      <trkpt lat="44.09885" lon="1.7737">
        <ele>323.14</ele>
        <time>2021-08-17T16:36:54Z</time>
      </trkpt>
      <trkpt lat="44.09843" lon="1.77332">
        <ele>323.14</ele>
        <time>2021-08-17T16:37:01Z</time>
      </trkpt>
      <trkpt lat="44.09828" lon="1.7732">
        <ele>324.58</ele>
        <time>2021-08-17T16:37:04Z</time>
      </trkpt>
      <trkpt lat="44.09814" lon="1.7731">
        <ele>324.58</ele>
        <time>2021-08-17T16:37:07Z</time>
      </trkpt>
      <trkpt lat="44.0981" lon="1.77305">
        <ele>324.58</ele>
        <time>2021-08-17T16:37:08Z</time>
      </trkpt>
      <trkpt lat="44.09783" lon="1.77266">
        <ele>324.58</ele>
        <time>2021-08-17T16:37:15Z</time>
      </trkpt>
      <trkpt lat="44.09774" lon="1.77246">
        <ele>323.14</ele>
        <time>2021-08-17T16:37:18Z</time>
      </trkpt>
      <trkpt lat="44.0975" lon="1.77193">
        <ele>323.14</ele>
        <time>2021-08-17T16:37:26Z</time>
      </trkpt>
      <trkpt lat="44.09746" lon="1.7719">
        <ele>323.14</ele>
        <time>2021-08-17T16:37:27Z</time>
      </trkpt>
      <trkpt lat="44.09741" lon="1.7719">
        <ele>323.14</ele>
        <time>2021-08-17T16:37:28Z</time>
      </trkpt>
      <trkpt lat="44.09736" lon="1.77193">
        <ele>321.7</ele>
        <time>2021-08-17T16:37:29Z</time>
      </trkpt>
      <trkpt lat="44.09732" lon="1.77198">
        <ele>321.22</ele>
        <time>2021-08-17T16:37:30Z</time>
      </trkpt>
      <trkpt lat="44.09727" lon="1.77203">
        <ele>320.74</ele>
        <time>2021-08-17T16:37:31Z</time>
      </trkpt>
      <trkpt lat="44.09711" lon="1.77219">
        <ele>317.85</ele>
        <time>2021-08-17T16:37:34Z</time>
      </trkpt>
      <trkpt lat="44.09704" lon="1.77223">
        <ele>317.37</ele>
        <time>2021-08-17T16:37:35Z</time>
      </trkpt>
      <trkpt lat="44.09698" lon="1.77225">
        <ele>316.41</ele>
        <time>2021-08-17T16:37:36Z</time>
      </trkpt>
      <trkpt lat="44.09694" lon="1.77227">
        <ele>315.93</ele>
        <time>2021-08-17T16:37:37Z</time>
      </trkpt>
      <trkpt lat="44.0969" lon="1.7723">
        <ele>315.45</ele>
        <time>2021-08-17T16:37:38Z</time>
      </trkpt>
      <trkpt lat="44.09689" lon="1.77234">
        <ele>314.97</ele>
        <time>2021-08-17T16:37:39Z</time>
      </trkpt>
      <trkpt lat="44.09691" lon="1.77238">
        <ele>314.01</ele>
        <time>2021-08-17T16:37:40Z</time>
      </trkpt>
      <trkpt lat="44.09696" lon="1.77242">
        <ele>313.53</ele>
        <time>2021-08-17T16:37:41Z</time>
      </trkpt>
      <trkpt lat="44.09701" lon="1.77245">
        <ele>312.57</ele>
        <time>2021-08-17T16:37:42Z</time>
      </trkpt>
      <trkpt lat="44.09706" lon="1.77249">
        <ele>312.57</ele>
        <time>2021-08-17T16:37:43Z</time>
      </trkpt>
      <trkpt lat="44.09712" lon="1.77255">
        <ele>311.12</ele>
        <time>2021-08-17T16:37:44Z</time>
      </trkpt>
      <trkpt lat="44.09717" lon="1.77263">
        <ele>310.64</ele>
        <time>2021-08-17T16:37:45Z</time>
      </trkpt>
      <trkpt lat="44.09722" lon="1.77272">
        <ele>309.68</ele>
        <time>2021-08-17T16:37:46Z</time>
      </trkpt>
      <trkpt lat="44.09726" lon="1.77281">
        <ele>308.72</ele>
        <time>2021-08-17T16:37:47Z</time>
      </trkpt>
      <trkpt lat="44.0973" lon="1.77291">
        <ele>308.24</ele>
        <time>2021-08-17T16:37:48Z</time>
      </trkpt>
      <trkpt lat="44.09733" lon="1.77302">
        <ele>307.28</ele>
        <time>2021-08-17T16:37:49Z</time>
      </trkpt>
      <trkpt lat="44.09735" lon="1.77314">
        <ele>305.84</ele>
        <time>2021-08-17T16:37:50Z</time>
      </trkpt>
      <trkpt lat="44.09737" lon="1.77325">
        <ele>304.88</ele>
        <time>2021-08-17T16:37:51Z</time>
      </trkpt>
      <trkpt lat="44.09738" lon="1.77336">
        <ele>303.91</ele>
        <time>2021-08-17T16:37:52Z</time>
      </trkpt>
      <trkpt lat="44.09744" lon="1.77368">
        <ele>300.55</ele>
        <time>2021-08-17T16:37:55Z</time>
      </trkpt>
      <trkpt lat="44.09748" lon="1.77378">
        <ele>299.11</ele>
        <time>2021-08-17T16:37:56Z</time>
      </trkpt>
      <trkpt lat="44.09753" lon="1.77388">
        <ele>298.15</ele>
        <time>2021-08-17T16:37:57Z</time>
      </trkpt>
      <trkpt lat="44.09759" lon="1.77397">
        <ele>296.7</ele>
        <time>2021-08-17T16:37:58Z</time>
      </trkpt>
      <trkpt lat="44.09766" lon="1.77406">
        <ele>295.26</ele>
        <time>2021-08-17T16:37:59Z</time>
      </trkpt>
      <trkpt lat="44.09775" lon="1.77415">
        <ele>293.82</ele>
        <time>2021-08-17T16:38:00Z</time>
      </trkpt>
      <trkpt lat="44.09783" lon="1.77422">
        <ele>292.86</ele>
        <time>2021-08-17T16:38:01Z</time>
      </trkpt>
      <trkpt lat="44.0979" lon="1.77428">
        <ele>292.86</ele>
        <time>2021-08-17T16:38:02Z</time>
      </trkpt>
      <trkpt lat="44.09797" lon="1.77435">
        <ele>291.9</ele>
        <time>2021-08-17T16:38:03Z</time>
      </trkpt>
      <trkpt lat="44.09803" lon="1.77443">
        <ele>290.94</ele>
        <time>2021-08-17T16:38:04Z</time>
      </trkpt>
      <trkpt lat="44.09806" lon="1.77452">
        <ele>290.46</ele>
        <time>2021-08-17T16:38:05Z</time>
      </trkpt>
      <trkpt lat="44.09808" lon="1.77461">
        <ele>289.49</ele>
        <time>2021-08-17T16:38:06Z</time>
      </trkpt>
      <trkpt lat="44.09808" lon="1.77472">
        <ele>288.05</ele>
        <time>2021-08-17T16:38:07Z</time>
      </trkpt>
      <trkpt lat="44.09806" lon="1.77483">
        <ele>286.61</ele>
        <time>2021-08-17T16:38:08Z</time>
      </trkpt>
      <trkpt lat="44.09803" lon="1.77495">
        <ele>284.69</ele>
        <time>2021-08-17T16:38:09Z</time>
      </trkpt>
      <trkpt lat="44.09791" lon="1.77536">
        <ele>280.36</ele>
        <time>2021-08-17T16:38:12Z</time>
      </trkpt>
      <trkpt lat="44.09781" lon="1.77565">
        <ele>277</ele>
        <time>2021-08-17T16:38:14Z</time>
      </trkpt>
      <trkpt lat="44.09765" lon="1.776">
        <ele>273.63</ele>
        <time>2021-08-17T16:38:17Z</time>
      </trkpt>
      <trkpt lat="44.0976" lon="1.77609">
        <ele>272.67</ele>
        <time>2021-08-17T16:38:18Z</time>
      </trkpt>
      <trkpt lat="44.09755" lon="1.77614">
        <ele>271.71</ele>
        <time>2021-08-17T16:38:19Z</time>
      </trkpt>
      <trkpt lat="44.09748" lon="1.77617">
        <ele>270.27</ele>
        <time>2021-08-17T16:38:20Z</time>
      </trkpt>
      <trkpt lat="44.09741" lon="1.77615">
        <ele>269.31</ele>
        <time>2021-08-17T16:38:21Z</time>
      </trkpt>
      <trkpt lat="44.09735" lon="1.77609">
        <ele>268.35</ele>
        <time>2021-08-17T16:38:22Z</time>
      </trkpt>
      <trkpt lat="44.09727" lon="1.77602">
        <ele>266.9</ele>
        <time>2021-08-17T16:38:23Z</time>
      </trkpt>
      <trkpt lat="44.0972" lon="1.77594">
        <ele>265.94</ele>
        <time>2021-08-17T16:38:24Z</time>
      </trkpt>
      <trkpt lat="44.09703" lon="1.77576">
        <ele>262.58</ele>
        <time>2021-08-17T16:38:26Z</time>
      </trkpt>
      <trkpt lat="44.09676" lon="1.77546">
        <ele>257.77</ele>
        <time>2021-08-17T16:38:29Z</time>
      </trkpt>
      <trkpt lat="44.09646" lon="1.77515">
        <ele>254.41</ele>
        <time>2021-08-17T16:38:32Z</time>
      </trkpt>
      <trkpt lat="44.09616" lon="1.7748">
        <ele>252.48</ele>
        <time>2021-08-17T16:38:35Z</time>
      </trkpt>
      <trkpt lat="44.09588" lon="1.7743">
        <ele>251.52</ele>
        <time>2021-08-17T16:38:39Z</time>
      </trkpt>
      <trkpt lat="44.09567" lon="1.77371">
        <ele>254.89</ele>
        <time>2021-08-17T16:38:44Z</time>
      </trkpt>
      <trkpt lat="44.09552" lon="1.7733">
        <ele>256.33</ele>
        <time>2021-08-17T16:38:49Z</time>
      </trkpt>
      <trkpt lat="44.09543" lon="1.77317">
        <ele>256.33</ele>
        <time>2021-08-17T16:38:51Z</time>
      </trkpt>
      <trkpt lat="44.09538" lon="1.77313">
        <ele>254.89</ele>
        <time>2021-08-17T16:38:52Z</time>
      </trkpt>
      <trkpt lat="44.0953" lon="1.7731">
        <ele>253.93</ele>
        <time>2021-08-17T16:38:53Z</time>
      </trkpt>
      <trkpt lat="44.09523" lon="1.7731">
        <ele>253.44</ele>
        <time>2021-08-17T16:38:54Z</time>
      </trkpt>
      <trkpt lat="44.09516" lon="1.77313">
        <ele>252.48</ele>
        <time>2021-08-17T16:38:55Z</time>
      </trkpt>
      <trkpt lat="44.09509" lon="1.77319">
        <ele>251.52</ele>
        <time>2021-08-17T16:38:56Z</time>
      </trkpt>
      <trkpt lat="44.09503" lon="1.77328">
        <ele>249.6</ele>
        <time>2021-08-17T16:38:57Z</time>
      </trkpt>
      <trkpt lat="44.09498" lon="1.77338">
        <ele>248.16</ele>
        <time>2021-08-17T16:38:58Z</time>
      </trkpt>
      <trkpt lat="44.09494" lon="1.7735">
        <ele>246.72</ele>
        <time>2021-08-17T16:38:59Z</time>
      </trkpt>
      <trkpt lat="44.09489" lon="1.77364">
        <ele>245.27</ele>
        <time>2021-08-17T16:39:00Z</time>
      </trkpt>
      <trkpt lat="44.09479" lon="1.77393">
        <ele>241.43</ele>
        <time>2021-08-17T16:39:02Z</time>
      </trkpt>
      <trkpt lat="44.09468" lon="1.7742">
        <ele>239.02</ele>
        <time>2021-08-17T16:39:04Z</time>
      </trkpt>
      <trkpt lat="44.09461" lon="1.77432">
        <ele>239.02</ele>
        <time>2021-08-17T16:39:05Z</time>
      </trkpt>
      <trkpt lat="44.09455" lon="1.7744">
        <ele>239.02</ele>
        <time>2021-08-17T16:39:06Z</time>
      </trkpt>
      <trkpt lat="44.09449" lon="1.77443">
        <ele>240.95</ele>
        <time>2021-08-17T16:39:07Z</time>
      </trkpt>
      <trkpt lat="44.09444" lon="1.77443">
        <ele>241.91</ele>
        <time>2021-08-17T16:39:08Z</time>
      </trkpt>
      <trkpt lat="44.0944" lon="1.77439">
        <ele>241.43</ele>
        <time>2021-08-17T16:39:09Z</time>
      </trkpt>
      <trkpt lat="44.09438" lon="1.77434">
        <ele>241.43</ele>
        <time>2021-08-17T16:39:10Z</time>
      </trkpt>
      <trkpt lat="44.09437" lon="1.7743">
        <ele>242.39</ele>
        <time>2021-08-17T16:39:11Z</time>
      </trkpt>
      <trkpt lat="44.09433" lon="1.77414">
        <ele>242.39</ele>
        <time>2021-08-17T16:39:14Z</time>
      </trkpt>
      <trkpt lat="44.09432" lon="1.77408">
        <ele>242.39</ele>
        <time>2021-08-17T16:39:15Z</time>
      </trkpt>
      <trkpt lat="44.0943" lon="1.77402">
        <ele>242.39</ele>
        <time>2021-08-17T16:39:16Z</time>
      </trkpt>
      <trkpt lat="44.09429" lon="1.77395">
        <ele>242.39</ele>
        <time>2021-08-17T16:39:17Z</time>
      </trkpt>
      <trkpt lat="44.09428" lon="1.77389">
        <ele>242.39</ele>
        <time>2021-08-17T16:39:18Z</time>
      </trkpt>
      <trkpt lat="44.09423" lon="1.77335">
        <ele>240.95</ele>
        <time>2021-08-17T16:39:25Z</time>
      </trkpt>
      <trkpt lat="44.0942" lon="1.77306">
        <ele>239.99</ele>
        <time>2021-08-17T16:39:28Z</time>
      </trkpt>
      <trkpt lat="44.09416" lon="1.77264">
        <ele>239.51</ele>
        <time>2021-08-17T16:39:33Z</time>
      </trkpt>
      <trkpt lat="44.09414" lon="1.77242">
        <ele>239.51</ele>
        <time>2021-08-17T16:39:36Z</time>
      </trkpt>
      <trkpt lat="44.09402" lon="1.77193">
        <ele>240.95</ele>
        <time>2021-08-17T16:39:44Z</time>
      </trkpt>
      <trkpt lat="44.09377" lon="1.77136">
        <ele>240.95</ele>
        <time>2021-08-17T16:39:53Z</time>
      </trkpt>
      <trkpt lat="44.09374" lon="1.77128">
        <ele>240.95</ele>
        <time>2021-08-17T16:39:54Z</time>
      </trkpt>
      <trkpt lat="44.09369" lon="1.77114">
        <ele>240.95</ele>
        <time>2021-08-17T16:39:56Z</time>
      </trkpt>
      <trkpt lat="44.09358" lon="1.77073">
        <ele>239.51</ele>
        <time>2021-08-17T16:40:01Z</time>
      </trkpt>
      <trkpt lat="44.09333" lon="1.77011">
        <ele>238.06</ele>
        <time>2021-08-17T16:40:08Z</time>
      </trkpt>
      <trkpt lat="44.09329" lon="1.77002">
        <ele>238.06</ele>
        <time>2021-08-17T16:40:09Z</time>
      </trkpt>
      <trkpt lat="44.09324" lon="1.76995">
        <ele>238.06</ele>
        <time>2021-08-17T16:40:10Z</time>
      </trkpt>
      <trkpt lat="44.09318" lon="1.76988">
        <ele>238.06</ele>
        <time>2021-08-17T16:40:11Z</time>
      </trkpt>
      <trkpt lat="44.09312" lon="1.76982">
        <ele>237.1</ele>
        <time>2021-08-17T16:40:12Z</time>
      </trkpt>
      <trkpt lat="44.09305" lon="1.76978">
        <ele>237.1</ele>
        <time>2021-08-17T16:40:13Z</time>
      </trkpt>
      <trkpt lat="44.09298" lon="1.76975">
        <ele>236.62</ele>
        <time>2021-08-17T16:40:14Z</time>
      </trkpt>
      <trkpt lat="44.0929" lon="1.76972">
        <ele>236.62</ele>
        <time>2021-08-17T16:40:15Z</time>
      </trkpt>
      <trkpt lat="44.09252" lon="1.76953">
        <ele>235.66</ele>
        <time>2021-08-17T16:40:20Z</time>
      </trkpt>
      <trkpt lat="44.09246" lon="1.76947">
        <ele>235.66</ele>
        <time>2021-08-17T16:40:21Z</time>
      </trkpt>
      <trkpt lat="44.0924" lon="1.76939">
        <ele>235.66</ele>
        <time>2021-08-17T16:40:22Z</time>
      </trkpt>
      <trkpt lat="44.09212" lon="1.76896">
        <ele>234.22</ele>
        <time>2021-08-17T16:40:27Z</time>
      </trkpt>
      <trkpt lat="44.0917" lon="1.76843">
        <ele>232.78</ele>
        <time>2021-08-17T16:40:34Z</time>
      </trkpt>
      <trkpt lat="44.09129" lon="1.76806">
        <ele>232.3</ele>
        <time>2021-08-17T16:40:40Z</time>
      </trkpt>
      <trkpt lat="44.09073" lon="1.76758">
        <ele>230.85</ele>
        <time>2021-08-17T16:40:48Z</time>
      </trkpt>
      <trkpt lat="44.09066" lon="1.76751">
        <ele>230.37</ele>
        <time>2021-08-17T16:40:49Z</time>
      </trkpt>
      <trkpt lat="44.09061" lon="1.76742">
        <ele>230.37</ele>
        <time>2021-08-17T16:40:50Z</time>
      </trkpt>
      <trkpt lat="44.09056" lon="1.76733">
        <ele>229.89</ele>
        <time>2021-08-17T16:40:51Z</time>
      </trkpt>
      <trkpt lat="44.09053" lon="1.76722">
        <ele>229.89</ele>
        <time>2021-08-17T16:40:52Z</time>
      </trkpt>
      <trkpt lat="44.0905" lon="1.76712">
        <ele>229.41</ele>
        <time>2021-08-17T16:40:53Z</time>
      </trkpt>
      <trkpt lat="44.09045" lon="1.7669">
        <ele>229.41</ele>
        <time>2021-08-17T16:40:55Z</time>
      </trkpt>
      <trkpt lat="44.0904" lon="1.76679">
        <ele>228.45</ele>
        <time>2021-08-17T16:40:56Z</time>
      </trkpt>
      <trkpt lat="44.09036" lon="1.7667">
        <ele>228.45</ele>
        <time>2021-08-17T16:40:57Z</time>
      </trkpt>
      <trkpt lat="44.09031" lon="1.76661">
        <ele>228.45</ele>
        <time>2021-08-17T16:40:58Z</time>
      </trkpt>
      <trkpt lat="44.09025" lon="1.76652">
        <ele>227.49</ele>
        <time>2021-08-17T16:40:59Z</time>
      </trkpt>
      <trkpt lat="44.08983" lon="1.7657">
        <ele>225.09</ele>
        <time>2021-08-17T16:41:07Z</time>
      </trkpt>
      <trkpt lat="44.08978" lon="1.76561">
        <ele>225.09</ele>
        <time>2021-08-17T16:41:08Z</time>
      </trkpt>
      <trkpt lat="44.08971" lon="1.76552">
        <ele>224.61</ele>
        <time>2021-08-17T16:41:09Z</time>
      </trkpt>
      <trkpt lat="44.08958" lon="1.76536">
        <ele>223.64</ele>
        <time>2021-08-17T16:41:11Z</time>
      </trkpt>
      <trkpt lat="44.08913" lon="1.76473">
        <ele>221.24</ele>
        <time>2021-08-17T16:41:18Z</time>
      </trkpt>
      <trkpt lat="44.08878" lon="1.76399">
        <ele>219.32</ele>
        <time>2021-08-17T16:41:25Z</time>
      </trkpt>
      <trkpt lat="44.08823" lon="1.763">
        <ele>216.43</ele>
        <time>2021-08-17T16:41:35Z</time>
      </trkpt>
      <trkpt lat="44.0878" lon="1.76236">
        <ele>214.51</ele>
        <time>2021-08-17T16:41:42Z</time>
      </trkpt>
      <trkpt lat="44.08742" lon="1.76191">
        <ele>213.55</ele>
        <time>2021-08-17T16:41:48Z</time>
      </trkpt>
      <trkpt lat="44.08699" lon="1.7613">
        <ele>210.67</ele>
        <time>2021-08-17T16:41:55Z</time>
      </trkpt>
      <trkpt lat="44.08662" lon="1.76068">
        <ele>207.3</ele>
        <time>2021-08-17T16:42:01Z</time>
      </trkpt>
      <trkpt lat="44.08645" lon="1.76031">
        <ele>205.38</ele>
        <time>2021-08-17T16:42:04Z</time>
      </trkpt>
      <trkpt lat="44.08625" lon="1.75978">
        <ele>203.46</ele>
        <time>2021-08-17T16:42:08Z</time>
      </trkpt>
      <trkpt lat="44.08608" lon="1.75941">
        <ele>202.01</ele>
        <time>2021-08-17T16:42:11Z</time>
      </trkpt>
      <trkpt lat="44.08603" lon="1.75928">
        <ele>200.57</ele>
        <time>2021-08-17T16:42:12Z</time>
      </trkpt>
      <trkpt lat="44.086" lon="1.75914">
        <ele>200.09</ele>
        <time>2021-08-17T16:42:13Z</time>
      </trkpt>
      <trkpt lat="44.08599" lon="1.75898">
        <ele>199.13</ele>
        <time>2021-08-17T16:42:14Z</time>
      </trkpt>
      <trkpt lat="44.08597" lon="1.75884">
        <ele>198.65</ele>
        <time>2021-08-17T16:42:15Z</time>
      </trkpt>
      <trkpt lat="44.08591" lon="1.75842">
        <ele>196.73</ele>
        <time>2021-08-17T16:42:18Z</time>
      </trkpt>
      <trkpt lat="44.08579" lon="1.75801">
        <ele>195.28</ele>
        <time>2021-08-17T16:42:21Z</time>
      </trkpt>
      <trkpt lat="44.08567" lon="1.75761">
        <ele>192.4</ele>
        <time>2021-08-17T16:42:24Z</time>
      </trkpt>
      <trkpt lat="44.08563" lon="1.75748">
        <ele>192.4</ele>
        <time>2021-08-17T16:42:25Z</time>
      </trkpt>
      <trkpt lat="44.08546" lon="1.75694">
        <ele>190.48</ele>
        <time>2021-08-17T16:42:29Z</time>
      </trkpt>
      <trkpt lat="44.08536" lon="1.75653">
        <ele>188.56</ele>
        <time>2021-08-17T16:42:32Z</time>
      </trkpt>
      <trkpt lat="44.08534" lon="1.75639">
        <ele>188.08</ele>
        <time>2021-08-17T16:42:33Z</time>
      </trkpt>
      <trkpt lat="44.08533" lon="1.75624">
        <ele>187.59</ele>
        <time>2021-08-17T16:42:34Z</time>
      </trkpt>
      <trkpt lat="44.08534" lon="1.75609">
        <ele>187.11</ele>
        <time>2021-08-17T16:42:35Z</time>
      </trkpt>
      <trkpt lat="44.08536" lon="1.75596">
        <ele>186.15</ele>
        <time>2021-08-17T16:42:36Z</time>
      </trkpt>
      <trkpt lat="44.08538" lon="1.75582">
        <ele>186.15</ele>
        <time>2021-08-17T16:42:37Z</time>
      </trkpt>
      <trkpt lat="44.08553" lon="1.7548">
        <ele>183.27</ele>
        <time>2021-08-17T16:42:45Z</time>
      </trkpt>
      <trkpt lat="44.08558" lon="1.7543">
        <ele>181.83</ele>
        <time>2021-08-17T16:42:49Z</time>
      </trkpt>
      <trkpt lat="44.08557" lon="1.75417">
        <ele>181.35</ele>
        <time>2021-08-17T16:42:50Z</time>
      </trkpt>
      <trkpt lat="44.08554" lon="1.75392">
        <ele>180.87</ele>
        <time>2021-08-17T16:42:52Z</time>
      </trkpt>
      <trkpt lat="44.08553" lon="1.75366">
        <ele>179.42</ele>
        <time>2021-08-17T16:42:54Z</time>
      </trkpt>
      <trkpt lat="44.08553" lon="1.75354">
        <ele>178.94</ele>
        <time>2021-08-17T16:42:55Z</time>
      </trkpt>
      <trkpt lat="44.08555" lon="1.75341">
        <ele>177.98</ele>
        <time>2021-08-17T16:42:56Z</time>
      </trkpt>
      <trkpt lat="44.08558" lon="1.75328">
        <ele>177.98</ele>
        <time>2021-08-17T16:42:57Z</time>
      </trkpt>
      <trkpt lat="44.08561" lon="1.75316">
        <ele>176.54</ele>
        <time>2021-08-17T16:42:58Z</time>
      </trkpt>
      <trkpt lat="44.08576" lon="1.75268">
        <ele>175.58</ele>
        <time>2021-08-17T16:43:02Z</time>
      </trkpt>
      <trkpt lat="44.08609" lon="1.75163">
        <ele>173.17</ele>
        <time>2021-08-17T16:43:11Z</time>
      </trkpt>
      <trkpt lat="44.08613" lon="1.75152">
        <ele>172.69</ele>
        <time>2021-08-17T16:43:12Z</time>
      </trkpt>
      <trkpt lat="44.08619" lon="1.75143">
        <ele>172.21</ele>
        <time>2021-08-17T16:43:13Z</time>
      </trkpt>
      <trkpt lat="44.08626" lon="1.75134">
        <ele>171.25</ele>
        <time>2021-08-17T16:43:14Z</time>
      </trkpt>
      <trkpt lat="44.08633" lon="1.75125">
        <ele>170.29</ele>
        <time>2021-08-17T16:43:15Z</time>
      </trkpt>
      <trkpt lat="44.0864" lon="1.75117">
        <ele>170.29</ele>
        <time>2021-08-17T16:43:16Z</time>
      </trkpt>
      <trkpt lat="44.08646" lon="1.75106">
        <ele>169.33</ele>
        <time>2021-08-17T16:43:17Z</time>
      </trkpt>
      <trkpt lat="44.08651" lon="1.75094">
        <ele>168.37</ele>
        <time>2021-08-17T16:43:18Z</time>
      </trkpt>
      <trkpt lat="44.08654" lon="1.75079">
        <ele>167.89</ele>
        <time>2021-08-17T16:43:19Z</time>
      </trkpt>
      <trkpt lat="44.08656" lon="1.75065">
        <ele>166.45</ele>
        <time>2021-08-17T16:43:20Z</time>
      </trkpt>
      <trkpt lat="44.08667" lon="1.75006">
        <ele>163.56</ele>
        <time>2021-08-17T16:43:24Z</time>
      </trkpt>
      <trkpt lat="44.08671" lon="1.74979">
        <ele>162.6</ele>
        <time>2021-08-17T16:43:26Z</time>
      </trkpt>
      <trkpt lat="44.08673" lon="1.74944">
        <ele>160.68</ele>
        <time>2021-08-17T16:43:29Z</time>
      </trkpt>
      <trkpt lat="44.08674" lon="1.74935">
        <ele>160.68</ele>
        <time>2021-08-17T16:43:30Z</time>
      </trkpt>
      <trkpt lat="44.08675" lon="1.7493">
        <ele>160.68</ele>
        <time>2021-08-17T16:43:31Z</time>
      </trkpt>
      <trkpt lat="44.08675" lon="1.74927">
        <ele>160.68</ele>
        <time>2021-08-17T16:43:32Z</time>
      </trkpt>
      <trkpt lat="44.08674" lon="1.74925">
        <ele>160.68</ele>
        <time>2021-08-17T16:43:34Z</time>
      </trkpt>
      <trkpt lat="44.08673" lon="1.74935">
        <ele>161.16</ele>
        <time>2021-08-17T16:43:39Z</time>
      </trkpt>
      <trkpt lat="44.08673" lon="1.74937">
        <ele>161.16</ele>
        <time>2021-08-17T16:43:40Z</time>
      </trkpt>
      <trkpt lat="44.08673" lon="1.74956">
        <ele>161.16</ele>
        <time>2021-08-17T16:43:47Z</time>
      </trkpt>
      <trkpt lat="44.08672" lon="1.74958">
        <ele>161.16</ele>
        <time>2021-08-17T16:43:48Z</time>
      </trkpt>
      <trkpt lat="44.08671" lon="1.7496">
        <ele>161.16</ele>
        <time>2021-08-17T16:43:49Z</time>
      </trkpt>
      <trkpt lat="44.08669" lon="1.74962">
        <ele>161.16</ele>
        <time>2021-08-17T16:43:50Z</time>
      </trkpt>
      <trkpt lat="44.08668" lon="1.74963">
        <ele>161.16</ele>
        <time>2021-08-17T16:43:51Z</time>
      </trkpt>
      <trkpt lat="44.0866" lon="1.74975">
        <ele>159.24</ele>
        <time>2021-08-17T16:43:55Z</time>
      </trkpt>
      <trkpt lat="44.08658" lon="1.74974">
        <ele>158.75</ele>
        <time>2021-08-17T16:43:56Z</time>
      </trkpt>
      <trkpt lat="44.08657" lon="1.74973">
        <ele>158.27</ele>
        <time>2021-08-17T16:43:57Z</time>
      </trkpt>
      <trkpt lat="44.08653" lon="1.74962">
        <ele>156.35</ele>
        <time>2021-08-17T16:44:00Z</time>
      </trkpt>
      <trkpt lat="44.08653" lon="1.74957">
        <ele>155.39</ele>
        <time>2021-08-17T16:44:01Z</time>
      </trkpt>
      <trkpt lat="44.08653" lon="1.74952">
        <ele>154.91</ele>
        <time>2021-08-17T16:44:02Z</time>
      </trkpt>
      <trkpt lat="44.08651" lon="1.7494">
        <ele>152.99</ele>
        <time>2021-08-17T16:44:05Z</time>
      </trkpt>
      <trkpt lat="44.08647" lon="1.74937">
        <ele>152.03</ele>
        <time>2021-08-17T16:44:06Z</time>
      </trkpt>
      <trkpt lat="44.08644" lon="1.74935">
        <ele>151.54</ele>
        <time>2021-08-17T16:44:07Z</time>
      </trkpt>
      <trkpt lat="44.0864" lon="1.74934">
        <ele>151.54</ele>
        <time>2021-08-17T16:44:08Z</time>
      </trkpt>
      <trkpt lat="44.08636" lon="1.74933">
        <ele>151.54</ele>
        <time>2021-08-17T16:44:09Z</time>
      </trkpt>
      <trkpt lat="44.08627" lon="1.74929">
        <ele>153.47</ele>
        <time>2021-08-17T16:44:14Z</time>
      </trkpt>
      <trkpt lat="44.08622" lon="1.74928">
        <ele>154.91</ele>
        <time>2021-08-17T16:44:20Z</time>
      </trkpt>
      <trkpt lat="44.08617" lon="1.74927">
        <ele>156.35</ele>
        <time>2021-08-17T16:44:27Z</time>
      </trkpt>
      <trkpt lat="44.08612" lon="1.74926">
        <ele>157.31</ele>
        <time>2021-08-17T16:44:36Z</time>
      </trkpt>
      <trkpt lat="44.08603" lon="1.74925">
        <ele>158.27</ele>
        <time>2021-08-17T16:44:45Z</time>
      </trkpt>
      <trkpt lat="44.08596" lon="1.74922">
        <ele>159.24</ele>
        <time>2021-08-17T16:44:52Z</time>
      </trkpt>
      <trkpt lat="44.08592" lon="1.7492">
        <ele>160.68</ele>
        <time>2021-08-17T16:45:00Z</time>
      </trkpt>
      <trkpt lat="44.08594" lon="1.7492">
        <ele>161.16</ele>
        <time>2021-08-17T16:45:15Z</time>
      </trkpt>
      <trkpt lat="44.08594" lon="1.74915">
        <ele>160.68</ele>
        <time>2021-08-17T16:45:29Z</time>
      </trkpt>
      <trkpt lat="44.08589" lon="1.74917">
        <ele>161.64</ele>
        <time>2021-08-17T16:45:38Z</time>
      </trkpt>
      <trkpt lat="44.08584" lon="1.74916">
        <ele>163.08</ele>
        <time>2021-08-17T16:45:47Z</time>
      </trkpt>
      <trkpt lat="44.08577" lon="1.74916">
        <ele>164.52</ele>
        <time>2021-08-17T16:45:56Z</time>
      </trkpt>
      <trkpt lat="44.0857" lon="1.74912">
        <ele>165</ele>
        <time>2021-08-17T16:46:03Z</time>
      </trkpt>
      <trkpt lat="44.08567" lon="1.74904">
        <ele>166.45</ele>
        <time>2021-08-17T16:46:10Z</time>
      </trkpt>
      <trkpt lat="44.08565" lon="1.74897">
        <ele>166.45</ele>
        <time>2021-08-17T16:46:17Z</time>
      </trkpt>
      <trkpt lat="44.08564" lon="1.74889">
        <ele>166.93</ele>
        <time>2021-08-17T16:46:21Z</time>
      </trkpt>
      <trkpt lat="44.08564" lon="1.74886">
        <ele>166.93</ele>
        <time>2021-08-17T16:46:22Z</time>
      </trkpt>
      <trkpt lat="44.08563" lon="1.74872">
        <ele>167.89</ele>
        <time>2021-08-17T16:46:28Z</time>
      </trkpt>
      <trkpt lat="44.08559" lon="1.74852">
        <ele>167.89</ele>
        <time>2021-08-17T16:46:34Z</time>
      </trkpt>
      <trkpt lat="44.08557" lon="1.74841">
        <ele>168.85</ele>
        <time>2021-08-17T16:46:40Z</time>
      </trkpt>
      <trkpt lat="44.08554" lon="1.74827">
        <ele>170.29</ele>
        <time>2021-08-17T16:46:48Z</time>
      </trkpt>
      <trkpt lat="44.08552" lon="1.74819">
        <ele>170.77</ele>
        <time>2021-08-17T16:46:54Z</time>
      </trkpt>
      <trkpt lat="44.08548" lon="1.74813">
        <ele>171.73</ele>
        <time>2021-08-17T16:47:01Z</time>
      </trkpt>
      <trkpt lat="44.08545" lon="1.74806">
        <ele>173.17</ele>
        <time>2021-08-17T16:47:09Z</time>
      </trkpt>
      <trkpt lat="44.08541" lon="1.74799">
        <ele>173.66</ele>
        <time>2021-08-17T16:47:17Z</time>
      </trkpt>
      <trkpt lat="44.08538" lon="1.74793">
        <ele>175.58</ele>
        <time>2021-08-17T16:47:24Z</time>
      </trkpt>
      <trkpt lat="44.08535" lon="1.74786">
        <ele>177.02</ele>
        <time>2021-08-17T16:47:32Z</time>
      </trkpt>
      <trkpt lat="44.08531" lon="1.74779">
        <ele>178.46</ele>
        <time>2021-08-17T16:47:40Z</time>
      </trkpt>
      <trkpt lat="44.08528" lon="1.74777">
        <ele>178.94</ele>
        <time>2021-08-17T16:47:48Z</time>
      </trkpt>
      <trkpt lat="44.08525" lon="1.74772">
        <ele>180.87</ele>
        <time>2021-08-17T16:47:56Z</time>
      </trkpt>
      <trkpt lat="44.08521" lon="1.74765">
        <ele>182.31</ele>
        <time>2021-08-17T16:48:06Z</time>
      </trkpt>
      <trkpt lat="44.08518" lon="1.74756">
        <ele>184.23</ele>
        <time>2021-08-17T16:48:15Z</time>
      </trkpt>
      <trkpt lat="44.08515" lon="1.74745">
        <ele>186.63</ele>
        <time>2021-08-17T16:48:26Z</time>
      </trkpt>
      <trkpt lat="44.08511" lon="1.74741">
        <ele>188.08</ele>
        <time>2021-08-17T16:48:34Z</time>
      </trkpt>
      <trkpt lat="44.08507" lon="1.74733">
        <ele>189.04</ele>
        <time>2021-08-17T16:48:42Z</time>
      </trkpt>
      <trkpt lat="44.08504" lon="1.74717">
        <ele>190.48</ele>
        <time>2021-08-17T16:48:52Z</time>
      </trkpt>
      <trkpt lat="44.08503" lon="1.74705">
        <ele>191.44</ele>
        <time>2021-08-17T16:49:00Z</time>
      </trkpt>
      <trkpt lat="44.08503" lon="1.74698">
        <ele>191.92</ele>
        <time>2021-08-17T16:49:07Z</time>
      </trkpt>
      <trkpt lat="44.08503" lon="1.74697">
        <ele>191.92</ele>
        <time>2021-08-17T16:49:08Z</time>
      </trkpt>
      <trkpt lat="44.08503" lon="1.74695">
        <ele>191.92</ele>
        <time>2021-08-17T16:49:09Z</time>
      </trkpt>
      <trkpt lat="44.08504" lon="1.7469">
        <ele>191.92</ele>
        <time>2021-08-17T16:49:12Z</time>
      </trkpt>
      <trkpt lat="44.08504" lon="1.74689">
        <ele>192.88</ele>
        <time>2021-08-17T16:49:13Z</time>
      </trkpt>
      <trkpt lat="44.08505" lon="1.74687">
        <ele>192.88</ele>
        <time>2021-08-17T16:49:14Z</time>
      </trkpt>
      <trkpt lat="44.08505" lon="1.74685">
        <ele>193.36</ele>
        <time>2021-08-17T16:49:15Z</time>
      </trkpt>
      <trkpt lat="44.08505" lon="1.74683">
        <ele>193.36</ele>
        <time>2021-08-17T16:49:16Z</time>
      </trkpt>
      <trkpt lat="44.08506" lon="1.74681">
        <ele>193.36</ele>
        <time>2021-08-17T16:49:17Z</time>
      </trkpt>
      <trkpt lat="44.08506" lon="1.74679">
        <ele>193.36</ele>
        <time>2021-08-17T16:49:18Z</time>
      </trkpt>
      <trkpt lat="44.08507" lon="1.74676">
        <ele>193.36</ele>
        <time>2021-08-17T16:49:19Z</time>
      </trkpt>
      <trkpt lat="44.08507" lon="1.74674">
        <ele>193.36</ele>
        <time>2021-08-17T16:49:20Z</time>
      </trkpt>
      <trkpt lat="44.08507" lon="1.74672">
        <ele>193.36</ele>
        <time>2021-08-17T16:49:21Z</time>
      </trkpt>
      <trkpt lat="44.08508" lon="1.7467">
        <ele>193.36</ele>
        <time>2021-08-17T16:49:22Z</time>
      </trkpt>
      <trkpt lat="44.08506" lon="1.74654">
        <ele>194.8</ele>
        <time>2021-08-17T16:49:29Z</time>
      </trkpt>
      <trkpt lat="44.08503" lon="1.74634">
        <ele>195.77</ele>
        <time>2021-08-17T16:49:38Z</time>
      </trkpt>
      <trkpt lat="44.08497" lon="1.74618">
        <ele>196.73</ele>
        <time>2021-08-17T16:49:45Z</time>
      </trkpt>
      <trkpt lat="44.08487" lon="1.74598">
        <ele>197.21</ele>
        <time>2021-08-17T16:49:51Z</time>
      </trkpt>
      <trkpt lat="44.08476" lon="1.74582">
        <ele>198.17</ele>
        <time>2021-08-17T16:49:58Z</time>
      </trkpt>
      <trkpt lat="44.08476" lon="1.74579">
        <ele>198.17</ele>
        <time>2021-08-17T16:49:59Z</time>
      </trkpt>
      <trkpt lat="44.08477" lon="1.74577">
        <ele>198.65</ele>
        <time>2021-08-17T16:50:00Z</time>
      </trkpt>
      <trkpt lat="44.08481" lon="1.74556">
        <ele>200.09</ele>
        <time>2021-08-17T16:50:07Z</time>
      </trkpt>
      <trkpt lat="44.0848" lon="1.74546">
        <ele>201.05</ele>
        <time>2021-08-17T16:50:12Z</time>
      </trkpt>
      <trkpt lat="44.0847" lon="1.74532">
        <ele>201.05</ele>
        <time>2021-08-17T16:50:20Z</time>
      </trkpt>
      <trkpt lat="44.08459" lon="1.74526">
        <ele>197.69</ele>
        <time>2021-08-17T16:50:26Z</time>
      </trkpt>
      <trkpt lat="44.08456" lon="1.74526">
        <ele>197.69</ele>
        <time>2021-08-17T16:50:27Z</time>
      </trkpt>
      <trkpt lat="44.08448" lon="1.74517">
        <ele>200.57</ele>
        <time>2021-08-17T16:50:31Z</time>
      </trkpt>
      <trkpt lat="44.08436" lon="1.74489">
        <ele>198.65</ele>
        <time>2021-08-17T16:50:37Z</time>
      </trkpt>
      <trkpt lat="44.08433" lon="1.74483">
        <ele>197.69</ele>
        <time>2021-08-17T16:50:38Z</time>
      </trkpt>
      <trkpt lat="44.0843" lon="1.74479">
        <ele>197.69</ele>
        <time>2021-08-17T16:50:39Z</time>
      </trkpt>
      <trkpt lat="44.08426" lon="1.74474">
        <ele>197.21</ele>
        <time>2021-08-17T16:50:40Z</time>
      </trkpt>
      <trkpt lat="44.08418" lon="1.74468">
        <ele>196.25</ele>
        <time>2021-08-17T16:50:42Z</time>
      </trkpt>
      <trkpt lat="44.08414" lon="1.74465">
        <ele>195.77</ele>
        <time>2021-08-17T16:50:43Z</time>
      </trkpt>
      <trkpt lat="44.0841" lon="1.74461">
        <ele>195.77</ele>
        <time>2021-08-17T16:50:44Z</time>
      </trkpt>
      <trkpt lat="44.0839" lon="1.74435">
        <ele>193.84</ele>
        <time>2021-08-17T16:50:51Z</time>
      </trkpt>
      <trkpt lat="44.0838" lon="1.74423">
        <ele>192.4</ele>
        <time>2021-08-17T16:50:54Z</time>
      </trkpt>
      <trkpt lat="44.08372" lon="1.74415">
        <ele>190.48</ele>
        <time>2021-08-17T16:50:56Z</time>
      </trkpt>
      <trkpt lat="44.08367" lon="1.74412">
        <ele>190</ele>
        <time>2021-08-17T16:50:57Z</time>
      </trkpt>
      <trkpt lat="44.08362" lon="1.74411">
        <ele>190</ele>
        <time>2021-08-17T16:50:58Z</time>
      </trkpt>
      <trkpt lat="44.0833" lon="1.74406">
        <ele>187.11</ele>
        <time>2021-08-17T16:51:03Z</time>
      </trkpt>
      <trkpt lat="44.08284" lon="1.74405">
        <ele>186.15</ele>
        <time>2021-08-17T16:51:10Z</time>
      </trkpt>
      <trkpt lat="44.08259" lon="1.74405">
        <ele>188.08</ele>
        <time>2021-08-17T16:51:16Z</time>
      </trkpt>
      <trkpt lat="44.08244" lon="1.74406">
        <ele>189.52</ele>
        <time>2021-08-17T16:51:23Z</time>
      </trkpt>
      <trkpt lat="44.08223" lon="1.74408">
        <ele>190.48</ele>
        <time>2021-08-17T16:51:31Z</time>
      </trkpt>
      <trkpt lat="44.08203" lon="1.74409">
        <ele>191.44</ele>
        <time>2021-08-17T16:51:40Z</time>
      </trkpt>
      <trkpt lat="44.08185" lon="1.7441">
        <ele>192.88</ele>
        <time>2021-08-17T16:51:48Z</time>
      </trkpt>
      <trkpt lat="44.08166" lon="1.74409">
        <ele>194.8</ele>
        <time>2021-08-17T16:51:57Z</time>
      </trkpt>
      <trkpt lat="44.08148" lon="1.74405">
        <ele>196.73</ele>
        <time>2021-08-17T16:52:05Z</time>
      </trkpt>
      <trkpt lat="44.08128" lon="1.74399">
        <ele>198.65</ele>
        <time>2021-08-17T16:52:15Z</time>
      </trkpt>
      <trkpt lat="44.08107" lon="1.74392">
        <ele>199.61</ele>
        <time>2021-08-17T16:52:25Z</time>
      </trkpt>
      <trkpt lat="44.08094" lon="1.74389">
        <ele>200.57</ele>
        <time>2021-08-17T16:52:32Z</time>
      </trkpt>
      <trkpt lat="44.08076" lon="1.74385">
        <ele>201.53</ele>
        <time>2021-08-17T16:52:41Z</time>
      </trkpt>
      <trkpt lat="44.08055" lon="1.74384">
        <ele>202.49</ele>
        <time>2021-08-17T16:52:51Z</time>
      </trkpt>
      <trkpt lat="44.08032" lon="1.74387">
        <ele>204.9</ele>
        <time>2021-08-17T16:53:02Z</time>
      </trkpt>
      <trkpt lat="44.08005" lon="1.74391">
        <ele>205.86</ele>
        <time>2021-08-17T16:53:15Z</time>
      </trkpt>
      <trkpt lat="44.07982" lon="1.74394">
        <ele>207.78</ele>
        <time>2021-08-17T16:53:26Z</time>
      </trkpt>
      <trkpt lat="44.07958" lon="1.74395">
        <ele>208.74</ele>
        <time>2021-08-17T16:53:37Z</time>
      </trkpt>
      <trkpt lat="44.07942" lon="1.74397">
        <ele>209.7</ele>
        <time>2021-08-17T16:53:44Z</time>
      </trkpt>
      <trkpt lat="44.07923" lon="1.74399">
        <ele>209.7</ele>
        <time>2021-08-17T16:53:51Z</time>
      </trkpt>
      <trkpt lat="44.07894" lon="1.74403">
        <ele>209.7</ele>
        <time>2021-08-17T16:53:59Z</time>
      </trkpt>
      <trkpt lat="44.07867" lon="1.74415">
        <ele>210.19</ele>
        <time>2021-08-17T16:54:07Z</time>
      </trkpt>
      <trkpt lat="44.07848" lon="1.7443">
        <ele>211.63</ele>
        <time>2021-08-17T16:54:14Z</time>
      </trkpt>
      <trkpt lat="44.07834" lon="1.74448">
        <ele>212.11</ele>
        <time>2021-08-17T16:54:22Z</time>
      </trkpt>
      <trkpt lat="44.07816" lon="1.74465">
        <ele>213.07</ele>
        <time>2021-08-17T16:54:30Z</time>
      </trkpt>
      <trkpt lat="44.07798" lon="1.74473">
        <ele>214.03</ele>
        <time>2021-08-17T16:54:38Z</time>
      </trkpt>
      <trkpt lat="44.07779" lon="1.7448">
        <ele>214.99</ele>
        <time>2021-08-17T16:54:46Z</time>
      </trkpt>
      <trkpt lat="44.07755" lon="1.74489">
        <ele>215.95</ele>
        <time>2021-08-17T16:54:55Z</time>
      </trkpt>
      <trkpt lat="44.07734" lon="1.74496">
        <ele>217.4</ele>
        <time>2021-08-17T16:55:03Z</time>
      </trkpt>
      <trkpt lat="44.07714" lon="1.74498">
        <ele>218.36</ele>
        <time>2021-08-17T16:55:09Z</time>
      </trkpt>
      <trkpt lat="44.07693" lon="1.74498">
        <ele>218.84</ele>
        <time>2021-08-17T16:55:16Z</time>
      </trkpt>
      <trkpt lat="44.07663" lon="1.74505">
        <ele>218.84</ele>
        <time>2021-08-17T16:55:26Z</time>
      </trkpt>
      <trkpt lat="44.07659" lon="1.74506">
        <ele>218.84</ele>
        <time>2021-08-17T16:55:28Z</time>
      </trkpt>
      <trkpt lat="44.07657" lon="1.74504">
        <ele>218.84</ele>
        <time>2021-08-17T16:55:30Z</time>
      </trkpt>
      <trkpt lat="44.07657" lon="1.74502">
        <ele>218.84</ele>
        <time>2021-08-17T16:55:31Z</time>
      </trkpt>
      <trkpt lat="44.07658" lon="1.74496">
        <ele>216.43</ele>
        <time>2021-08-17T16:55:33Z</time>
      </trkpt>
      <trkpt lat="44.07659" lon="1.74493">
        <ele>216.43</ele>
        <time>2021-08-17T16:55:34Z</time>
      </trkpt>
      <trkpt lat="44.07659" lon="1.7449">
        <ele>215.95</ele>
        <time>2021-08-17T16:55:35Z</time>
      </trkpt>
      <trkpt lat="44.07659" lon="1.74487">
        <ele>215.47</ele>
        <time>2021-08-17T16:55:36Z</time>
      </trkpt>
      <trkpt lat="44.07658" lon="1.74485">
        <ele>215.47</ele>
        <time>2021-08-17T16:55:37Z</time>
      </trkpt>
      <trkpt lat="44.07658" lon="1.74482">
        <ele>215.47</ele>
        <time>2021-08-17T16:55:38Z</time>
      </trkpt>
      <trkpt lat="44.07655" lon="1.74475">
        <ele>214.99</ele>
        <time>2021-08-17T16:55:44Z</time>
      </trkpt>
      <trkpt lat="44.07656" lon="1.74478">
        <ele>214.99</ele>
        <time>2021-08-17T16:55:47Z</time>
      </trkpt>
      <trkpt lat="44.07656" lon="1.74484">
        <ele>216.43</ele>
        <time>2021-08-17T16:55:54Z</time>
      </trkpt>
      <trkpt lat="44.07654" lon="1.74491">
        <ele>216.91</ele>
        <time>2021-08-17T16:56:01Z</time>
      </trkpt>
      <trkpt lat="44.07652" lon="1.74491">
        <ele>217.4</ele>
        <time>2021-08-17T16:56:02Z</time>
      </trkpt>
      <trkpt lat="44.0765" lon="1.7449">
        <ele>215.47</ele>
        <time>2021-08-17T16:56:03Z</time>
      </trkpt>
      <trkpt lat="44.07647" lon="1.7449">
        <ele>214.99</ele>
        <time>2021-08-17T16:56:04Z</time>
      </trkpt>
      <trkpt lat="44.07644" lon="1.74491">
        <ele>214.51</ele>
        <time>2021-08-17T16:56:05Z</time>
      </trkpt>
      <trkpt lat="44.0764" lon="1.74493">
        <ele>213.55</ele>
        <time>2021-08-17T16:56:06Z</time>
      </trkpt>
      <trkpt lat="44.07636" lon="1.74494">
        <ele>212.59</ele>
        <time>2021-08-17T16:56:07Z</time>
      </trkpt>
      <trkpt lat="44.07632" lon="1.74496">
        <ele>212.59</ele>
        <time>2021-08-17T16:56:08Z</time>
      </trkpt>
      <trkpt lat="44.07622" lon="1.74505">
        <ele>210.67</ele>
        <time>2021-08-17T16:56:11Z</time>
      </trkpt>
      <trkpt lat="44.07618" lon="1.74509">
        <ele>209.7</ele>
        <time>2021-08-17T16:56:12Z</time>
      </trkpt>
      <trkpt lat="44.0761" lon="1.74519">
        <ele>207.78</ele>
        <time>2021-08-17T16:56:14Z</time>
      </trkpt>
      <trkpt lat="44.07607" lon="1.74524">
        <ele>206.82</ele>
        <time>2021-08-17T16:56:15Z</time>
      </trkpt>
      <trkpt lat="44.07605" lon="1.74528">
        <ele>206.82</ele>
        <time>2021-08-17T16:56:16Z</time>
      </trkpt>
      <trkpt lat="44.07589" lon="1.74549">
        <ele>204.42</ele>
        <time>2021-08-17T16:56:22Z</time>
      </trkpt>
      <trkpt lat="44.07578" lon="1.7457">
        <ele>202.01</ele>
        <time>2021-08-17T16:56:29Z</time>
      </trkpt>
      <trkpt lat="44.0757" lon="1.74592">
        <ele>199.13</ele>
        <time>2021-08-17T16:56:37Z</time>
      </trkpt>
      <trkpt lat="44.07563" lon="1.74612">
        <ele>196.73</ele>
        <time>2021-08-17T16:56:43Z</time>
      </trkpt>
      <trkpt lat="44.07555" lon="1.74634">
        <ele>194.32</ele>
        <time>2021-08-17T16:56:49Z</time>
      </trkpt>
      <trkpt lat="44.07544" lon="1.74655">
        <ele>191.92</ele>
        <time>2021-08-17T16:56:54Z</time>
      </trkpt>
      <trkpt lat="44.07542" lon="1.7466">
        <ele>191.44</ele>
        <time>2021-08-17T16:56:55Z</time>
      </trkpt>
      <trkpt lat="44.0754" lon="1.74666">
        <ele>190.96</ele>
        <time>2021-08-17T16:56:56Z</time>
      </trkpt>
      <trkpt lat="44.07524" lon="1.74693">
        <ele>188.56</ele>
        <time>2021-08-17T16:57:02Z</time>
      </trkpt>
      <trkpt lat="44.07504" lon="1.74707">
        <ele>184.71</ele>
        <time>2021-08-17T16:57:07Z</time>
      </trkpt>
      <trkpt lat="44.07499" lon="1.74711">
        <ele>183.75</ele>
        <time>2021-08-17T16:57:08Z</time>
      </trkpt>
      <trkpt lat="44.07482" lon="1.74723">
        <ele>180.38</ele>
        <time>2021-08-17T16:57:11Z</time>
      </trkpt>
      <trkpt lat="44.07471" lon="1.74728">
        <ele>179.42</ele>
        <time>2021-08-17T16:57:13Z</time>
      </trkpt>
      <trkpt lat="44.07466" lon="1.74728">
        <ele>178.94</ele>
        <time>2021-08-17T16:57:14Z</time>
      </trkpt>
      <trkpt lat="44.07449" lon="1.74731">
        <ele>177.98</ele>
        <time>2021-08-17T16:57:18Z</time>
      </trkpt>
      <trkpt lat="44.07448" lon="1.74727">
        <ele>177.02</ele>
        <time>2021-08-17T16:57:19Z</time>
      </trkpt>
      <trkpt lat="44.07448" lon="1.74723">
        <ele>177.02</ele>
        <time>2021-08-17T16:57:20Z</time>
      </trkpt>
      <trkpt lat="44.07448" lon="1.74719">
        <ele>177.02</ele>
        <time>2021-08-17T16:57:21Z</time>
      </trkpt>
      <trkpt lat="44.07448" lon="1.74713">
        <ele>177.02</ele>
        <time>2021-08-17T16:57:22Z</time>
      </trkpt>
      <trkpt lat="44.07449" lon="1.74708">
        <ele>177.02</ele>
        <time>2021-08-17T16:57:23Z</time>
      </trkpt>
      <trkpt lat="44.07449" lon="1.74701">
        <ele>176.54</ele>
        <time>2021-08-17T16:57:24Z</time>
      </trkpt>
      <trkpt lat="44.07455" lon="1.74669">
        <ele>174.62</ele>
        <time>2021-08-17T16:57:28Z</time>
      </trkpt>
      <trkpt lat="44.07472" lon="1.74623">
        <ele>171.73</ele>
        <time>2021-08-17T16:57:33Z</time>
      </trkpt>
      <trkpt lat="44.07494" lon="1.74584">
        <ele>168.37</ele>
        <time>2021-08-17T16:57:37Z</time>
      </trkpt>
      <trkpt lat="44.07519" lon="1.74524">
        <ele>165</ele>
        <time>2021-08-17T16:57:42Z</time>
      </trkpt>
      <trkpt lat="44.07532" lon="1.74465">
        <ele>161.16</ele>
        <time>2021-08-17T16:57:46Z</time>
      </trkpt>
      <trkpt lat="44.07545" lon="1.74406">
        <ele>156.83</ele>
        <time>2021-08-17T16:57:50Z</time>
      </trkpt>
      <trkpt lat="44.0755" lon="1.74375">
        <ele>155.87</ele>
        <time>2021-08-17T16:57:52Z</time>
      </trkpt>
      <trkpt lat="44.07559" lon="1.74298">
        <ele>153.47</ele>
        <time>2021-08-17T16:57:58Z</time>
      </trkpt>
      <trkpt lat="44.07561" lon="1.74269">
        <ele>152.51</ele>
        <time>2021-08-17T16:58:01Z</time>
      </trkpt>
      <trkpt lat="44.07559" lon="1.74261">
        <ele>151.54</ele>
        <time>2021-08-17T16:58:02Z</time>
      </trkpt>
      <trkpt lat="44.07553" lon="1.74255">
        <ele>151.06</ele>
        <time>2021-08-17T16:58:03Z</time>
      </trkpt>
      <trkpt lat="44.07548" lon="1.74251">
        <ele>151.06</ele>
        <time>2021-08-17T16:58:04Z</time>
      </trkpt>
      <trkpt lat="44.07542" lon="1.74248">
        <ele>151.06</ele>
        <time>2021-08-17T16:58:05Z</time>
      </trkpt>
      <trkpt lat="44.07535" lon="1.74246">
        <ele>151.06</ele>
        <time>2021-08-17T16:58:06Z</time>
      </trkpt>
      <trkpt lat="44.07513" lon="1.74237">
        <ele>152.51</ele>
        <time>2021-08-17T16:58:10Z</time>
      </trkpt>
      <trkpt lat="44.07496" lon="1.74229">
        <ele>153.95</ele>
        <time>2021-08-17T16:58:15Z</time>
      </trkpt>
      <trkpt lat="44.07483" lon="1.74225">
        <ele>154.91</ele>
        <time>2021-08-17T16:58:22Z</time>
      </trkpt>
      <trkpt lat="44.07468" lon="1.74218">
        <ele>155.39</ele>
        <time>2021-08-17T16:58:31Z</time>
      </trkpt>
      <trkpt lat="44.07459" lon="1.74214">
        <ele>156.35</ele>
        <time>2021-08-17T16:58:37Z</time>
      </trkpt>
      <trkpt lat="44.07458" lon="1.74212">
        <ele>156.35</ele>
        <time>2021-08-17T16:58:38Z</time>
      </trkpt>
      <trkpt lat="44.07457" lon="1.74212">
        <ele>156.35</ele>
        <time>2021-08-17T16:58:39Z</time>
      </trkpt>
      <trkpt lat="44.07456" lon="1.74211">
        <ele>156.83</ele>
        <time>2021-08-17T16:58:40Z</time>
      </trkpt>
      <trkpt lat="44.07455" lon="1.7421">
        <ele>156.83</ele>
        <time>2021-08-17T16:58:41Z</time>
      </trkpt>
      <trkpt lat="44.07453" lon="1.74209">
        <ele>156.83</ele>
        <time>2021-08-17T16:58:42Z</time>
      </trkpt>
      <trkpt lat="44.07452" lon="1.74208">
        <ele>156.83</ele>
        <time>2021-08-17T16:58:43Z</time>
      </trkpt>
      <trkpt lat="44.0745" lon="1.74208">
        <ele>157.79</ele>
        <time>2021-08-17T16:58:44Z</time>
      </trkpt>
      <trkpt lat="44.07449" lon="1.74207">
        <ele>157.79</ele>
        <time>2021-08-17T16:58:45Z</time>
      </trkpt>
      <trkpt lat="44.07435" lon="1.74201">
        <ele>158.75</ele>
        <time>2021-08-17T16:58:53Z</time>
      </trkpt>
      <trkpt lat="44.07422" lon="1.74199">
        <ele>159.24</ele>
        <time>2021-08-17T16:59:01Z</time>
      </trkpt>
      <trkpt lat="44.07402" lon="1.74204">
        <ele>160.68</ele>
        <time>2021-08-17T16:59:12Z</time>
      </trkpt>
      <trkpt lat="44.0739" lon="1.7421">
        <ele>161.16</ele>
        <time>2021-08-17T16:59:18Z</time>
      </trkpt>
      <trkpt lat="44.07373" lon="1.74221">
        <ele>162.6</ele>
        <time>2021-08-17T16:59:27Z</time>
      </trkpt>
      <trkpt lat="44.0736" lon="1.74228">
        <ele>163.56</ele>
        <time>2021-08-17T16:59:34Z</time>
      </trkpt>
      <trkpt lat="44.07342" lon="1.74234">
        <ele>164.52</ele>
        <time>2021-08-17T16:59:43Z</time>
      </trkpt>
      <trkpt lat="44.07327" lon="1.74225">
        <ele>165.48</ele>
        <time>2021-08-17T16:59:51Z</time>
      </trkpt>
      <trkpt lat="44.07326" lon="1.74224">
        <ele>165.96</ele>
        <time>2021-08-17T16:59:52Z</time>
      </trkpt>
      <trkpt lat="44.07325" lon="1.74221">
        <ele>166.45</ele>
        <time>2021-08-17T16:59:53Z</time>
      </trkpt>
      <trkpt lat="44.07324" lon="1.74218">
        <ele>166.45</ele>
        <time>2021-08-17T16:59:54Z</time>
      </trkpt>
      <trkpt lat="44.07322" lon="1.74194">
        <ele>167.41</ele>
        <time>2021-08-17T17:00:02Z</time>
      </trkpt>
      <trkpt lat="44.07331" lon="1.7418">
        <ele>168.37</ele>
        <time>2021-08-17T17:00:09Z</time>
      </trkpt>
      <trkpt lat="44.07353" lon="1.74165">
        <ele>169.81</ele>
        <time>2021-08-17T17:00:20Z</time>
      </trkpt>
      <trkpt lat="44.07367" lon="1.74154">
        <ele>170.77</ele>
        <time>2021-08-17T17:00:27Z</time>
      </trkpt>
      <trkpt lat="44.07369" lon="1.74151">
        <ele>170.77</ele>
        <time>2021-08-17T17:00:28Z</time>
      </trkpt>
      <trkpt lat="44.0737" lon="1.74149">
        <ele>171.25</ele>
        <time>2021-08-17T17:00:29Z</time>
      </trkpt>
      <trkpt lat="44.07372" lon="1.74148">
        <ele>171.25</ele>
        <time>2021-08-17T17:00:30Z</time>
      </trkpt>
      <trkpt lat="44.07374" lon="1.74147">
        <ele>171.25</ele>
        <time>2021-08-17T17:00:31Z</time>
      </trkpt>
      <trkpt lat="44.07376" lon="1.74145">
        <ele>171.73</ele>
        <time>2021-08-17T17:00:32Z</time>
      </trkpt>
      <trkpt lat="44.07394" lon="1.74132">
        <ele>172.21</ele>
        <time>2021-08-17T17:00:41Z</time>
      </trkpt>
      <trkpt lat="44.07412" lon="1.74119">
        <ele>173.66</ele>
        <time>2021-08-17T17:00:50Z</time>
      </trkpt>
      <trkpt lat="44.07431" lon="1.74115">
        <ele>174.62</ele>
        <time>2021-08-17T17:00:59Z</time>
      </trkpt>
      <trkpt lat="44.0745" lon="1.74115">
        <ele>176.06</ele>
        <time>2021-08-17T17:01:08Z</time>
      </trkpt>
      <trkpt lat="44.07475" lon="1.7411">
        <ele>177.5</ele>
        <time>2021-08-17T17:01:17Z</time>
      </trkpt>
      <trkpt lat="44.07494" lon="1.74089">
        <ele>178.94</ele>
        <time>2021-08-17T17:01:27Z</time>
      </trkpt>
      <trkpt lat="44.07503" lon="1.74066">
        <ele>180.38</ele>
        <time>2021-08-17T17:01:35Z</time>
      </trkpt>
      <trkpt lat="44.07504" lon="1.7404">
        <ele>181.35</ele>
        <time>2021-08-17T17:01:43Z</time>
      </trkpt>
      <trkpt lat="44.07502" lon="1.74011">
        <ele>182.79</ele>
        <time>2021-08-17T17:01:52Z</time>
      </trkpt>
      <trkpt lat="44.07507" lon="1.73981">
        <ele>183.75</ele>
        <time>2021-08-17T17:02:01Z</time>
      </trkpt>
      <trkpt lat="44.07522" lon="1.73959">
        <ele>185.19</ele>
        <time>2021-08-17T17:02:10Z</time>
      </trkpt>
      <trkpt lat="44.07539" lon="1.73943">
        <ele>186.15</ele>
        <time>2021-08-17T17:02:18Z</time>
      </trkpt>
      <trkpt lat="44.07552" lon="1.73924">
        <ele>187.11</ele>
        <time>2021-08-17T17:02:25Z</time>
      </trkpt>
      <trkpt lat="44.07557" lon="1.73898">
        <ele>188.56</ele>
        <time>2021-08-17T17:02:33Z</time>
      </trkpt>
      <trkpt lat="44.07557" lon="1.73893">
        <ele>189.04</ele>
        <time>2021-08-17T17:02:35Z</time>
      </trkpt>
      <trkpt lat="44.07557" lon="1.7389">
        <ele>189.04</ele>
        <time>2021-08-17T17:02:36Z</time>
      </trkpt>
      <trkpt lat="44.07553" lon="1.7387">
        <ele>190.48</ele>
        <time>2021-08-17T17:02:44Z</time>
      </trkpt>
      <trkpt lat="44.07544" lon="1.73851">
        <ele>192.4</ele>
        <time>2021-08-17T17:02:52Z</time>
      </trkpt>
      <trkpt lat="44.07536" lon="1.7384">
        <ele>193.36</ele>
        <time>2021-08-17T17:03:00Z</time>
      </trkpt>
      <trkpt lat="44.07526" lon="1.73826">
        <ele>193.84</ele>
        <time>2021-08-17T17:03:09Z</time>
      </trkpt>
      <trkpt lat="44.07513" lon="1.73811">
        <ele>194.8</ele>
        <time>2021-08-17T17:03:19Z</time>
      </trkpt>
      <trkpt lat="44.07497" lon="1.73792">
        <ele>197.21</ele>
        <time>2021-08-17T17:03:31Z</time>
      </trkpt>
      <trkpt lat="44.07482" lon="1.73773">
        <ele>198.17</ele>
        <time>2021-08-17T17:03:41Z</time>
      </trkpt>
      <trkpt lat="44.07465" lon="1.73747">
        <ele>198.65</ele>
        <time>2021-08-17T17:03:50Z</time>
      </trkpt>
      <trkpt lat="44.0746" lon="1.73718">
        <ele>198.65</ele>
        <time>2021-08-17T17:03:57Z</time>
      </trkpt>
      <trkpt lat="44.07463" lon="1.73672">
        <ele>198.65</ele>
        <time>2021-08-17T17:04:07Z</time>
      </trkpt>
      <trkpt lat="44.07466" lon="1.73637">
        <ele>200.09</ele>
        <time>2021-08-17T17:04:14Z</time>
      </trkpt>
      <trkpt lat="44.07469" lon="1.7359">
        <ele>200.57</ele>
        <time>2021-08-17T17:04:24Z</time>
      </trkpt>
      <trkpt lat="44.07472" lon="1.73538">
        <ele>201.53</ele>
        <time>2021-08-17T17:04:35Z</time>
      </trkpt>
      <trkpt lat="44.07474" lon="1.73518">
        <ele>199.61</ele>
        <time>2021-08-17T17:04:39Z</time>
      </trkpt>
      <trkpt lat="44.07476" lon="1.73507">
        <ele>198.65</ele>
        <time>2021-08-17T17:04:41Z</time>
      </trkpt>
      <trkpt lat="44.07478" lon="1.73501">
        <ele>198.65</ele>
        <time>2021-08-17T17:04:42Z</time>
      </trkpt>
      <trkpt lat="44.0748" lon="1.73495">
        <ele>198.65</ele>
        <time>2021-08-17T17:04:43Z</time>
      </trkpt>
      <trkpt lat="44.07482" lon="1.73489">
        <ele>197.69</ele>
        <time>2021-08-17T17:04:44Z</time>
      </trkpt>
      <trkpt lat="44.07486" lon="1.73483">
        <ele>197.21</ele>
        <time>2021-08-17T17:04:45Z</time>
      </trkpt>
      <trkpt lat="44.0749" lon="1.73476">
        <ele>196.25</ele>
        <time>2021-08-17T17:04:46Z</time>
      </trkpt>
      <trkpt lat="44.07494" lon="1.7347">
        <ele>196.25</ele>
        <time>2021-08-17T17:04:47Z</time>
      </trkpt>
      <trkpt lat="44.07517" lon="1.73441">
        <ele>193.36</ele>
        <time>2021-08-17T17:04:52Z</time>
      </trkpt>
      <trkpt lat="44.07525" lon="1.73432">
        <ele>192.4</ele>
        <time>2021-08-17T17:04:54Z</time>
      </trkpt>
      <trkpt lat="44.07528" lon="1.73427">
        <ele>191.92</ele>
        <time>2021-08-17T17:04:55Z</time>
      </trkpt>
      <trkpt lat="44.07532" lon="1.73422">
        <ele>191.92</ele>
        <time>2021-08-17T17:04:56Z</time>
      </trkpt>
      <trkpt lat="44.07538" lon="1.73413">
        <ele>190.48</ele>
        <time>2021-08-17T17:04:58Z</time>
      </trkpt>
      <trkpt lat="44.07562" lon="1.73371">
        <ele>187.11</ele>
        <time>2021-08-17T17:05:07Z</time>
      </trkpt>
      <trkpt lat="44.07568" lon="1.73351">
        <ele>185.67</ele>
        <time>2021-08-17T17:05:13Z</time>
      </trkpt>
      <trkpt lat="44.07568" lon="1.73349">
        <ele>185.19</ele>
        <time>2021-08-17T17:05:14Z</time>
      </trkpt>
      <trkpt lat="44.07562" lon="1.73344">
        <ele>185.19</ele>
        <time>2021-08-17T17:05:18Z</time>
      </trkpt>
      <trkpt lat="44.07557" lon="1.73341">
        <ele>185.19</ele>
        <time>2021-08-17T17:05:21Z</time>
      </trkpt>
      <trkpt lat="44.07556" lon="1.73336">
        <ele>185.19</ele>
        <time>2021-08-17T17:05:27Z</time>
      </trkpt>
      <trkpt lat="44.07558" lon="1.73339">
        <ele>185.19</ele>
        <time>2021-08-17T17:05:35Z</time>
      </trkpt>
      <trkpt lat="44.07559" lon="1.7334">
        <ele>185.19</ele>
        <time>2021-08-17T17:05:36Z</time>
      </trkpt>
      <trkpt lat="44.07564" lon="1.73343">
        <ele>185.19</ele>
        <time>2021-08-17T17:05:40Z</time>
      </trkpt>
      <trkpt lat="44.07566" lon="1.73342">
        <ele>185.19</ele>
        <time>2021-08-17T17:05:41Z</time>
      </trkpt>
      <trkpt lat="44.07568" lon="1.73339">
        <ele>185.19</ele>
        <time>2021-08-17T17:05:42Z</time>
      </trkpt>
      <trkpt lat="44.07569" lon="1.73335">
        <ele>184.23</ele>
        <time>2021-08-17T17:05:43Z</time>
      </trkpt>
      <trkpt lat="44.0757" lon="1.73331">
        <ele>183.27</ele>
        <time>2021-08-17T17:05:44Z</time>
      </trkpt>
      <trkpt lat="44.07571" lon="1.73326">
        <ele>183.27</ele>
        <time>2021-08-17T17:05:45Z</time>
      </trkpt>
      <trkpt lat="44.07574" lon="1.7331">
        <ele>183.27</ele>
        <time>2021-08-17T17:05:50Z</time>
      </trkpt>
      <trkpt lat="44.07575" lon="1.73308">
        <ele>183.27</ele>
        <time>2021-08-17T17:05:51Z</time>
      </trkpt>
      <trkpt lat="44.07576" lon="1.73307">
        <ele>182.79</ele>
        <time>2021-08-17T17:05:52Z</time>
      </trkpt>
      <trkpt lat="44.07578" lon="1.73307">
        <ele>182.79</ele>
        <time>2021-08-17T17:05:53Z</time>
      </trkpt>
      <trkpt lat="44.0758" lon="1.73307">
        <ele>182.79</ele>
        <time>2021-08-17T17:05:54Z</time>
      </trkpt>
      <trkpt lat="44.0759" lon="1.73302">
        <ele>181.35</ele>
        <time>2021-08-17T17:05:59Z</time>
      </trkpt>
      <trkpt lat="44.0759" lon="1.73296">
        <ele>180.87</ele>
        <time>2021-08-17T17:06:01Z</time>
      </trkpt>
      <trkpt lat="44.07588" lon="1.73294">
        <ele>180.87</ele>
        <time>2021-08-17T17:06:02Z</time>
      </trkpt>
      <trkpt lat="44.07586" lon="1.73294">
        <ele>180.87</ele>
        <time>2021-08-17T17:06:03Z</time>
      </trkpt>
      <trkpt lat="44.07568" lon="1.73298">
        <ele>179.9</ele>
        <time>2021-08-17T17:06:09Z</time>
      </trkpt>
      <trkpt lat="44.07565" lon="1.73299">
        <ele>179.9</ele>
        <time>2021-08-17T17:06:11Z</time>
      </trkpt>
      <trkpt lat="44.07563" lon="1.73299">
        <ele>179.9</ele>
        <time>2021-08-17T17:06:12Z</time>
      </trkpt>
      <trkpt lat="44.07562" lon="1.733">
        <ele>179.9</ele>
        <time>2021-08-17T17:06:13Z</time>
      </trkpt>
      <trkpt lat="44.07563" lon="1.73302">
        <ele>179.9</ele>
        <time>2021-08-17T17:06:15Z</time>
      </trkpt>
      <trkpt lat="44.07565" lon="1.73302">
        <ele>179.9</ele>
        <time>2021-08-17T17:06:16Z</time>
      </trkpt>
      <trkpt lat="44.07566" lon="1.73302">
        <ele>179.9</ele>
        <time>2021-08-17T17:06:17Z</time>
      </trkpt>
      <trkpt lat="44.07567" lon="1.73301">
        <ele>179.9</ele>
        <time>2021-08-17T17:06:18Z</time>
      </trkpt>
      <trkpt lat="44.07569" lon="1.73299">
        <ele>179.9</ele>
        <time>2021-08-17T17:06:19Z</time>
      </trkpt>
      <trkpt lat="44.0757" lon="1.73297">
        <ele>179.9</ele>
        <time>2021-08-17T17:06:20Z</time>
      </trkpt>
      <trkpt lat="44.07571" lon="1.73294">
        <ele>179.9</ele>
        <time>2021-08-17T17:06:21Z</time>
      </trkpt>
      <trkpt lat="44.07572" lon="1.73291">
        <ele>179.9</ele>
        <time>2021-08-17T17:06:22Z</time>
      </trkpt>
      <trkpt lat="44.07574" lon="1.73286">
        <ele>179.9</ele>
        <time>2021-08-17T17:06:27Z</time>
      </trkpt>
      <trkpt lat="44.07575" lon="1.73285">
        <ele>179.9</ele>
        <time>2021-08-17T17:06:36Z</time>
      </trkpt>
      <trkpt lat="44.07574" lon="1.73281">
        <ele>179.9</ele>
        <time>2021-08-17T17:06:51Z</time>
      </trkpt>
      <trkpt lat="44.07574" lon="1.73283">
        <ele>179.9</ele>
        <time>2021-08-17T17:07:10Z</time>
      </trkpt>
      <trkpt lat="44.07575" lon="1.73282">
        <ele>179.9</ele>
        <time>2021-08-17T17:07:31Z</time>
      </trkpt>
      <trkpt lat="44.07575" lon="1.7328">
        <ele>180.87</ele>
        <time>2021-08-17T17:07:42Z</time>
      </trkpt>
      <trkpt lat="44.07576" lon="1.73283">
        <ele>180.87</ele>
        <time>2021-08-17T17:08:04Z</time>
      </trkpt>
      <trkpt lat="44.07576" lon="1.73283">
        <ele>179.42</ele>
        <time>2021-08-17T17:08:24Z</time>
      </trkpt>
      <trkpt lat="44.07578" lon="1.73283">
        <ele>179.42</ele>
        <time>2021-08-17T17:08:44Z</time>
      </trkpt>
      <trkpt lat="44.0758" lon="1.73282">
        <ele>179.42</ele>
        <time>2021-08-17T17:09:00Z</time>
      </trkpt>
      <trkpt lat="44.07578" lon="1.73285">
        <ele>179.42</ele>
        <time>2021-08-17T17:09:19Z</time>
      </trkpt>
      <trkpt lat="44.07579" lon="1.73286">
        <ele>179.42</ele>
        <time>2021-08-17T17:09:38Z</time>
      </trkpt>
      <trkpt lat="44.07578" lon="1.73283">
        <ele>179.42</ele>
        <time>2021-08-17T17:09:46Z</time>
      </trkpt>
      <trkpt lat="44.07577" lon="1.73282">
        <ele>179.42</ele>
        <time>2021-08-17T17:09:50Z</time>
      </trkpt>
      <trkpt lat="44.07577" lon="1.73282">
        <ele>179.42</ele>
        <time>2021-08-17T17:09:55Z</time>
      </trkpt>
      <trkpt lat="44.07575" lon="1.73288">
        <ele>179.42</ele>
        <time>2021-08-17T17:10:15Z</time>
      </trkpt>
      <trkpt lat="44.07576" lon="1.73284">
        <ele>178.94</ele>
        <time>2021-08-17T17:10:39Z</time>
      </trkpt>
      <trkpt lat="44.07579" lon="1.73285">
        <ele>178.94</ele>
        <time>2021-08-17T17:10:56Z</time>
      </trkpt>
      <trkpt lat="44.07578" lon="1.73282">
        <ele>178.94</ele>
        <time>2021-08-17T17:11:15Z</time>
      </trkpt>
      <trkpt lat="44.07574" lon="1.73282">
        <ele>178.94</ele>
        <time>2021-08-17T17:11:44Z</time>
      </trkpt>
      <trkpt lat="44.07574" lon="1.73285">
        <ele>178.94</ele>
        <time>2021-08-17T17:12:04Z</time>
      </trkpt>
      <trkpt lat="44.07575" lon="1.73283">
        <ele>178.94</ele>
        <time>2021-08-17T17:12:24Z</time>
      </trkpt>
      <trkpt lat="44.07575" lon="1.73285">
        <ele>179.9</ele>
        <time>2021-08-17T17:12:43Z</time>
      </trkpt>
      <trkpt lat="44.07576" lon="1.73286">
        <ele>179.9</ele>
        <time>2021-08-17T17:13:05Z</time>
      </trkpt>
      <trkpt lat="44.07575" lon="1.73285">
        <ele>179.9</ele>
        <time>2021-08-17T17:13:27Z</time>
      </trkpt>
      <trkpt lat="44.07574" lon="1.73284">
        <ele>179.9</ele>
        <time>2021-08-17T17:13:52Z</time>
      </trkpt>
      <trkpt lat="44.07575" lon="1.73284">
        <ele>179.9</ele>
        <time>2021-08-17T17:14:12Z</time>
      </trkpt>
      <trkpt lat="44.07575" lon="1.73287">
        <ele>179.9</ele>
        <time>2021-08-17T17:14:34Z</time>
      </trkpt>
      <trkpt lat="44.07576" lon="1.73286">
        <ele>179.42</ele>
        <time>2021-08-17T17:14:46Z</time>
      </trkpt>
      <trkpt lat="44.07578" lon="1.73286">
        <ele>179.42</ele>
        <time>2021-08-17T17:14:49Z</time>
      </trkpt>
      <trkpt lat="44.07576" lon="1.73286">
        <ele>179.42</ele>
        <time>2021-08-17T17:14:54Z</time>
      </trkpt>
      <trkpt lat="44.07577" lon="1.73283">
        <ele>179.42</ele>
        <time>2021-08-17T17:15:21Z</time>
      </trkpt>
      <trkpt lat="44.07577" lon="1.73286">
        <ele>179.42</ele>
        <time>2021-08-17T17:15:39Z</time>
      </trkpt>
      <trkpt lat="44.07576" lon="1.73284">
        <ele>179.42</ele>
        <time>2021-08-17T17:16:01Z</time>
      </trkpt>
      <trkpt lat="44.07574" lon="1.73287">
        <ele>179.42</ele>
        <time>2021-08-17T17:16:25Z</time>
      </trkpt>
      <trkpt lat="44.07575" lon="1.7329">
        <ele>179.42</ele>
        <time>2021-08-17T17:16:40Z</time>
      </trkpt>
      <trkpt lat="44.07574" lon="1.73287">
        <ele>179.42</ele>
        <time>2021-08-17T17:16:59Z</time>
      </trkpt>
      <trkpt lat="44.07577" lon="1.73286">
        <ele>179.42</ele>
        <time>2021-08-17T17:17:19Z</time>
      </trkpt>
      <trkpt lat="44.07577" lon="1.73284">
        <ele>179.42</ele>
        <time>2021-08-17T17:17:39Z</time>
      </trkpt>
      <trkpt lat="44.07576" lon="1.7329">
        <ele>179.42</ele>
        <time>2021-08-17T17:18:00Z</time>
      </trkpt>
      <trkpt lat="44.07577" lon="1.73287">
        <ele>179.42</ele>
        <time>2021-08-17T17:18:17Z</time>
      </trkpt>
      <trkpt lat="44.07578" lon="1.73286">
        <ele>179.42</ele>
        <time>2021-08-17T17:18:35Z</time>
      </trkpt>
      <trkpt lat="44.07577" lon="1.73283">
        <ele>179.42</ele>
        <time>2021-08-17T17:18:59Z</time>
      </trkpt>
      <trkpt lat="44.07576" lon="1.73286">
        <ele>179.42</ele>
        <time>2021-08-17T17:19:20Z</time>
      </trkpt>
      <trkpt lat="44.07576" lon="1.73287">
        <ele>179.42</ele>
        <time>2021-08-17T17:19:42Z</time>
      </trkpt>
      <trkpt lat="44.07575" lon="1.73287">
        <ele>179.42</ele>
        <time>2021-08-17T17:19:47Z</time>
      </trkpt>
      <trkpt lat="44.07575" lon="1.73284">
        <ele>179.42</ele>
        <time>2021-08-17T17:19:53Z</time>
      </trkpt>
      <trkpt lat="44.07575" lon="1.73283">
        <ele>179.42</ele>
        <time>2021-08-17T17:20:16Z</time>
      </trkpt>
      <trkpt lat="44.07574" lon="1.73283">
        <ele>179.42</ele>
        <time>2021-08-17T17:20:37Z</time>
      </trkpt>
      <trkpt lat="44.07575" lon="1.73284">
        <ele>179.42</ele>
        <time>2021-08-17T17:20:56Z</time>
      </trkpt>
      <trkpt lat="44.07573" lon="1.73284">
        <ele>179.42</ele>
        <time>2021-08-17T17:21:15Z</time>
      </trkpt>
      <trkpt lat="44.07577" lon="1.73282">
        <ele>179.42</ele>
        <time>2021-08-17T17:21:33Z</time>
      </trkpt>
      <trkpt lat="44.07579" lon="1.73287">
        <ele>179.42</ele>
        <time>2021-08-17T17:21:52Z</time>
      </trkpt>
      <trkpt lat="44.07578" lon="1.73286">
        <ele>179.42</ele>
        <time>2021-08-17T17:22:17Z</time>
      </trkpt>
      <trkpt lat="44.07577" lon="1.73289">
        <ele>179.42</ele>
        <time>2021-08-17T17:22:41Z</time>
      </trkpt>
      <trkpt lat="44.07578" lon="1.73288">
        <ele>179.42</ele>
        <time>2021-08-17T17:22:58Z</time>
      </trkpt>
      <trkpt lat="44.07574" lon="1.73288">
        <ele>179.42</ele>
        <time>2021-08-17T17:23:21Z</time>
      </trkpt>
      <trkpt lat="44.07574" lon="1.73286">
        <ele>179.42</ele>
        <time>2021-08-17T17:23:45Z</time>
      </trkpt>
      <trkpt lat="44.07575" lon="1.73288">
        <ele>179.42</ele>
        <time>2021-08-17T17:24:08Z</time>
      </trkpt>
      <trkpt lat="44.07576" lon="1.73287">
        <ele>179.42</ele>
        <time>2021-08-17T17:24:30Z</time>
      </trkpt>
      <trkpt lat="44.07576" lon="1.73287">
        <ele>178.94</ele>
        <time>2021-08-17T17:24:58Z</time>
      </trkpt>
      <trkpt lat="44.07576" lon="1.73281">
        <ele>178.94</ele>
        <time>2021-08-17T17:25:19Z</time>
      </trkpt>
      <trkpt lat="44.07575" lon="1.73281">
        <ele>178.94</ele>
        <time>2021-08-17T17:25:43Z</time>
      </trkpt>
      <trkpt lat="44.07577" lon="1.73284">
        <ele>178.94</ele>
        <time>2021-08-17T17:26:06Z</time>
      </trkpt>
      <trkpt lat="44.07575" lon="1.73286">
        <ele>178.94</ele>
        <time>2021-08-17T17:26:32Z</time>
      </trkpt>
      <trkpt lat="44.07577" lon="1.73284">
        <ele>178.94</ele>
        <time>2021-08-17T17:26:57Z</time>
      </trkpt>
      <trkpt lat="44.07576" lon="1.73286">
        <ele>178.94</ele>
        <time>2021-08-17T17:27:21Z</time>
      </trkpt>
      <trkpt lat="44.07572" lon="1.73288">
        <ele>178.94</ele>
        <time>2021-08-17T17:27:42Z</time>
      </trkpt>
      <trkpt lat="44.07575" lon="1.73283">
        <ele>178.94</ele>
        <time>2021-08-17T17:28:05Z</time>
      </trkpt>
      <trkpt lat="44.07579" lon="1.73283">
        <ele>178.94</ele>
        <time>2021-08-17T17:28:23Z</time>
      </trkpt>
      <trkpt lat="44.0758" lon="1.73283">
        <ele>178.94</ele>
        <time>2021-08-17T17:28:42Z</time>
      </trkpt>
      <trkpt lat="44.07576" lon="1.73284">
        <ele>178.94</ele>
        <time>2021-08-17T17:29:05Z</time>
      </trkpt>
      <trkpt lat="44.07576" lon="1.73288">
        <ele>178.94</ele>
        <time>2021-08-17T17:29:29Z</time>
      </trkpt>
      <trkpt lat="44.07575" lon="1.73288">
        <ele>178.94</ele>
        <time>2021-08-17T17:29:46Z</time>
      </trkpt>
      <trkpt lat="44.07575" lon="1.73282">
        <ele>178.94</ele>
        <time>2021-08-17T17:30:09Z</time>
      </trkpt>
      <trkpt lat="44.07576" lon="1.73283">
        <ele>178.46</ele>
        <time>2021-08-17T17:30:31Z</time>
      </trkpt>
      <trkpt lat="44.07575" lon="1.73285">
        <ele>178.46</ele>
        <time>2021-08-17T17:30:58Z</time>
      </trkpt>
      <trkpt lat="44.07574" lon="1.73285">
        <ele>178.94</ele>
        <time>2021-08-17T17:31:21Z</time>
      </trkpt>
      <trkpt lat="44.07576" lon="1.73285">
        <ele>178.94</ele>
        <time>2021-08-17T17:31:40Z</time>
      </trkpt>
      <trkpt lat="44.07578" lon="1.73281">
        <ele>178.94</ele>
        <time>2021-08-17T17:32:05Z</time>
      </trkpt>
      <trkpt lat="44.07576" lon="1.73286">
        <ele>177.98</ele>
        <time>2021-08-17T17:32:34Z</time>
      </trkpt>
      <trkpt lat="44.07575" lon="1.73286">
        <ele>177.98</ele>
        <time>2021-08-17T17:32:53Z</time>
      </trkpt>
      <trkpt lat="44.07575" lon="1.73285">
        <ele>177.5</ele>
        <time>2021-08-17T17:33:17Z</time>
      </trkpt>
      <trkpt lat="44.07577" lon="1.73283">
        <ele>177.5</ele>
        <time>2021-08-17T17:33:38Z</time>
      </trkpt>
      <trkpt lat="44.07577" lon="1.73284">
        <ele>177.5</ele>
        <time>2021-08-17T17:34:02Z</time>
      </trkpt>
      <trkpt lat="44.07578" lon="1.73285">
        <ele>177.5</ele>
        <time>2021-08-17T17:34:24Z</time>
      </trkpt>
      <trkpt lat="44.07575" lon="1.73284">
        <ele>177.5</ele>
        <time>2021-08-17T17:34:49Z</time>
      </trkpt>
      <trkpt lat="44.07575" lon="1.73286">
        <ele>177.5</ele>
        <time>2021-08-17T17:35:13Z</time>
      </trkpt>
      <trkpt lat="44.07574" lon="1.73285">
        <ele>177.5</ele>
        <time>2021-08-17T17:35:39Z</time>
      </trkpt>
      <trkpt lat="44.07576" lon="1.73287">
        <ele>177.02</ele>
        <time>2021-08-17T17:36:05Z</time>
      </trkpt>
      <trkpt lat="44.07575" lon="1.73283">
        <ele>177.02</ele>
        <time>2021-08-17T17:36:28Z</time>
      </trkpt>
      <trkpt lat="44.07576" lon="1.73287">
        <ele>177.02</ele>
        <time>2021-08-17T17:37:01Z</time>
      </trkpt>
      <trkpt lat="44.07575" lon="1.73285">
        <ele>176.54</ele>
        <time>2021-08-17T17:37:31Z</time>
      </trkpt>
      <trkpt lat="44.07576" lon="1.73287">
        <ele>176.54</ele>
        <time>2021-08-17T17:37:52Z</time>
      </trkpt>
      <trkpt lat="44.07574" lon="1.73284">
        <ele>176.54</ele>
        <time>2021-08-17T17:38:18Z</time>
      </trkpt>
      <trkpt lat="44.07575" lon="1.73283">
        <ele>176.54</ele>
        <time>2021-08-17T17:38:40Z</time>
      </trkpt>
      <trkpt lat="44.07577" lon="1.73283">
        <ele>176.54</ele>
        <time>2021-08-17T17:39:06Z</time>
      </trkpt>
      <trkpt lat="44.07577" lon="1.73284">
        <ele>176.54</ele>
        <time>2021-08-17T17:39:22Z</time>
      </trkpt>
      <trkpt lat="44.07575" lon="1.73283">
        <ele>176.54</ele>
        <time>2021-08-17T17:39:48Z</time>
      </trkpt>
      <trkpt lat="44.07573" lon="1.73283">
        <ele>176.54</ele>
        <time>2021-08-17T17:40:08Z</time>
      </trkpt>
      <trkpt lat="44.07577" lon="1.73284">
        <ele>176.54</ele>
        <time>2021-08-17T17:40:27Z</time>
      </trkpt>
      <trkpt lat="44.0758" lon="1.73285">
        <ele>176.54</ele>
        <time>2021-08-17T17:40:49Z</time>
      </trkpt>
      <trkpt lat="44.0758" lon="1.73286">
        <ele>176.54</ele>
        <time>2021-08-17T17:41:11Z</time>
      </trkpt>
      <trkpt lat="44.07578" lon="1.73285">
        <ele>176.54</ele>
        <time>2021-08-17T17:41:33Z</time>
      </trkpt>
      <trkpt lat="44.07575" lon="1.73286">
        <ele>176.54</ele>
        <time>2021-08-17T17:41:56Z</time>
      </trkpt>
      <trkpt lat="44.07575" lon="1.73285">
        <ele>176.54</ele>
        <time>2021-08-17T17:42:11Z</time>
      </trkpt>
      <trkpt lat="44.07575" lon="1.73284">
        <ele>176.54</ele>
        <time>2021-08-17T17:42:20Z</time>
      </trkpt>
      <trkpt lat="44.07576" lon="1.73284">
        <ele>176.54</ele>
        <time>2021-08-17T17:42:28Z</time>
      </trkpt>
      <trkpt lat="44.07577" lon="1.73283">
        <ele>176.54</ele>
        <time>2021-08-17T17:42:45Z</time>
      </trkpt>
      <trkpt lat="44.07578" lon="1.73283">
        <ele>176.54</ele>
        <time>2021-08-17T17:43:11Z</time>
      </trkpt>
      <trkpt lat="44.07577" lon="1.73284">
        <ele>176.54</ele>
        <time>2021-08-17T17:43:30Z</time>
      </trkpt>
      <trkpt lat="44.07576" lon="1.73286">
        <ele>176.54</ele>
        <time>2021-08-17T17:43:52Z</time>
      </trkpt>
      <trkpt lat="44.07576" lon="1.73287">
        <ele>176.54</ele>
        <time>2021-08-17T17:44:08Z</time>
      </trkpt>
      <trkpt lat="44.07577" lon="1.73287">
        <ele>176.54</ele>
        <time>2021-08-17T17:44:26Z</time>
      </trkpt>
      <trkpt lat="44.07575" lon="1.73288">
        <ele>176.54</ele>
        <time>2021-08-17T17:44:32Z</time>
      </trkpt>
      <trkpt lat="44.07569" lon="1.73297">
        <ele>176.54</ele>
        <time>2021-08-17T17:44:40Z</time>
      </trkpt>
      <trkpt lat="44.07561" lon="1.73307">
        <ele>176.54</ele>
        <time>2021-08-17T17:44:49Z</time>
      </trkpt>
      <trkpt lat="44.07559" lon="1.7331">
        <ele>176.54</ele>
        <time>2021-08-17T17:44:56Z</time>
      </trkpt>
      <trkpt lat="44.07553" lon="1.73318">
        <ele>177.5</ele>
        <time>2021-08-17T17:45:02Z</time>
      </trkpt>
      <trkpt lat="44.07552" lon="1.73319">
        <ele>177.5</ele>
        <time>2021-08-17T17:45:03Z</time>
      </trkpt>
      <trkpt lat="44.07552" lon="1.7332">
        <ele>177.98</ele>
        <time>2021-08-17T17:45:04Z</time>
      </trkpt>
      <trkpt lat="44.07551" lon="1.73322">
        <ele>177.98</ele>
        <time>2021-08-17T17:45:05Z</time>
      </trkpt>
      <trkpt lat="44.0755" lon="1.73323">
        <ele>177.98</ele>
        <time>2021-08-17T17:45:06Z</time>
      </trkpt>
      <trkpt lat="44.07549" lon="1.73325">
        <ele>178.46</ele>
        <time>2021-08-17T17:45:07Z</time>
      </trkpt>
      <trkpt lat="44.07548" lon="1.73326">
        <ele>178.46</ele>
        <time>2021-08-17T17:45:08Z</time>
      </trkpt>
      <trkpt lat="44.07548" lon="1.73329">
        <ele>178.46</ele>
        <time>2021-08-17T17:45:10Z</time>
      </trkpt>
      <trkpt lat="44.07548" lon="1.73331">
        <ele>178.94</ele>
        <time>2021-08-17T17:45:14Z</time>
      </trkpt>
      <trkpt lat="44.07545" lon="1.73331">
        <ele>178.94</ele>
        <time>2021-08-17T17:45:27Z</time>
      </trkpt>
      <trkpt lat="44.0754" lon="1.73331">
        <ele>178.94</ele>
        <time>2021-08-17T17:45:46Z</time>
      </trkpt>
      <trkpt lat="44.07537" lon="1.73328">
        <ele>178.94</ele>
        <time>2021-08-17T17:46:05Z</time>
      </trkpt>
      <trkpt lat="44.07536" lon="1.73323">
        <ele>178.94</ele>
        <time>2021-08-17T17:46:21Z</time>
      </trkpt>
      <trkpt lat="44.07535" lon="1.7332">
        <ele>178.94</ele>
        <time>2021-08-17T17:46:39Z</time>
      </trkpt>
      <trkpt lat="44.07536" lon="1.73321">
        <ele>178.94</ele>
        <time>2021-08-17T17:46:58Z</time>
      </trkpt>
      <trkpt lat="44.07536" lon="1.73322">
        <ele>178.94</ele>
        <time>2021-08-17T17:47:17Z</time>
      </trkpt>
      <trkpt lat="44.07535" lon="1.73322">
        <ele>178.94</ele>
        <time>2021-08-17T17:47:29Z</time>
      </trkpt>
      <trkpt lat="44.07536" lon="1.73322">
        <ele>178.94</ele>
        <time>2021-08-17T17:47:46Z</time>
      </trkpt>
      <trkpt lat="44.0754" lon="1.73324">
        <ele>178.94</ele>
        <time>2021-08-17T17:48:17Z</time>
      </trkpt>
      <trkpt lat="44.0754" lon="1.73319">
        <ele>178.94</ele>
        <time>2021-08-17T17:48:35Z</time>
      </trkpt>
      <trkpt lat="44.07539" lon="1.73321">
        <ele>178.94</ele>
        <time>2021-08-17T17:48:57Z</time>
      </trkpt>
      <trkpt lat="44.07538" lon="1.73326">
        <ele>178.94</ele>
        <time>2021-08-17T17:49:17Z</time>
      </trkpt>
      <trkpt lat="44.07537" lon="1.73326">
        <ele>178.94</ele>
        <time>2021-08-17T17:49:32Z</time>
      </trkpt>
      <trkpt lat="44.07538" lon="1.73327">
        <ele>178.94</ele>
        <time>2021-08-17T17:49:51Z</time>
      </trkpt>
      <trkpt lat="44.07539" lon="1.73322">
        <ele>178.94</ele>
        <time>2021-08-17T17:50:09Z</time>
      </trkpt>
      <trkpt lat="44.0754" lon="1.73324">
        <ele>178.94</ele>
        <time>2021-08-17T17:50:29Z</time>
      </trkpt>
      <trkpt lat="44.07538" lon="1.73329">
        <ele>178.94</ele>
        <time>2021-08-17T17:50:50Z</time>
      </trkpt>
      <trkpt lat="44.07538" lon="1.73323">
        <ele>178.94</ele>
        <time>2021-08-17T17:51:08Z</time>
      </trkpt>
      <trkpt lat="44.07539" lon="1.73323">
        <ele>178.94</ele>
        <time>2021-08-17T17:51:25Z</time>
      </trkpt>
      <trkpt lat="44.07537" lon="1.73328">
        <ele>178.94</ele>
        <time>2021-08-17T17:51:42Z</time>
      </trkpt>
      <trkpt lat="44.07536" lon="1.73329">
        <ele>178.94</ele>
        <time>2021-08-17T17:51:58Z</time>
      </trkpt>
      <trkpt lat="44.07536" lon="1.73329">
        <ele>178.94</ele>
        <time>2021-08-17T17:52:14Z</time>
      </trkpt>
      <trkpt lat="44.07535" lon="1.7333">
        <ele>178.94</ele>
        <time>2021-08-17T17:52:27Z</time>
      </trkpt>
      <trkpt lat="44.07535" lon="1.73328">
        <ele>178.46</ele>
        <time>2021-08-17T17:52:42Z</time>
      </trkpt>
      <trkpt lat="44.07533" lon="1.73327">
        <ele>178.46</ele>
        <time>2021-08-17T17:53:03Z</time>
      </trkpt>
      <trkpt lat="44.07536" lon="1.73331">
        <ele>178.46</ele>
        <time>2021-08-17T17:53:23Z</time>
      </trkpt>
      <trkpt lat="44.07536" lon="1.7333">
        <ele>178.46</ele>
        <time>2021-08-17T17:53:43Z</time>
      </trkpt>
      <trkpt lat="44.07536" lon="1.73327">
        <ele>178.46</ele>
        <time>2021-08-17T17:54:00Z</time>
      </trkpt>
      <trkpt lat="44.07536" lon="1.73326">
        <ele>178.46</ele>
        <time>2021-08-17T17:54:18Z</time>
      </trkpt>
      <trkpt lat="44.07534" lon="1.73324">
        <ele>178.46</ele>
        <time>2021-08-17T17:54:33Z</time>
      </trkpt>
      <trkpt lat="44.07534" lon="1.73324">
        <ele>178.46</ele>
        <time>2021-08-17T17:54:47Z</time>
      </trkpt>
      <trkpt lat="44.07536" lon="1.73323">
        <ele>178.46</ele>
        <time>2021-08-17T17:55:04Z</time>
      </trkpt>
      <trkpt lat="44.07535" lon="1.73323">
        <ele>178.94</ele>
        <time>2021-08-17T17:55:14Z</time>
      </trkpt>
      <trkpt lat="44.07533" lon="1.73323">
        <ele>178.94</ele>
        <time>2021-08-17T17:55:32Z</time>
      </trkpt>
      <trkpt lat="44.07531" lon="1.7332">
        <ele>178.94</ele>
        <time>2021-08-17T17:55:43Z</time>
      </trkpt>
      <trkpt lat="44.0753" lon="1.73322">
        <ele>178.94</ele>
        <time>2021-08-17T17:56:00Z</time>
      </trkpt>
      <trkpt lat="44.07533" lon="1.73322">
        <ele>178.94</ele>
        <time>2021-08-17T17:56:16Z</time>
      </trkpt>
      <trkpt lat="44.07534" lon="1.73319">
        <ele>178.94</ele>
        <time>2021-08-17T17:56:35Z</time>
      </trkpt>
      <trkpt lat="44.07534" lon="1.73315">
        <ele>178.94</ele>
        <time>2021-08-17T17:56:47Z</time>
      </trkpt>
      <trkpt lat="44.07537" lon="1.73321">
        <ele>178.94</ele>
        <time>2021-08-17T17:57:01Z</time>
      </trkpt>
      <trkpt lat="44.07533" lon="1.7332">
        <ele>178.94</ele>
        <time>2021-08-17T17:57:22Z</time>
      </trkpt>
      <trkpt lat="44.07534" lon="1.73319">
        <ele>178.94</ele>
        <time>2021-08-17T17:57:36Z</time>
      </trkpt>
      <trkpt lat="44.07534" lon="1.73319">
        <ele>178.94</ele>
        <time>2021-08-17T17:57:57Z</time>
      </trkpt>
      <trkpt lat="44.07533" lon="1.73315">
        <ele>178.94</ele>
        <time>2021-08-17T17:58:15Z</time>
      </trkpt>
      <trkpt lat="44.07532" lon="1.73318">
        <ele>178.94</ele>
        <time>2021-08-17T17:58:32Z</time>
      </trkpt>
      <trkpt lat="44.07531" lon="1.73318">
        <ele>178.94</ele>
        <time>2021-08-17T17:58:50Z</time>
      </trkpt>
      <trkpt lat="44.07531" lon="1.73318">
        <ele>178.94</ele>
        <time>2021-08-17T17:59:09Z</time>
      </trkpt>
      <trkpt lat="44.07537" lon="1.73325">
        <ele>178.94</ele>
        <time>2021-08-17T17:59:24Z</time>
      </trkpt>
      <trkpt lat="44.07533" lon="1.73322">
        <ele>178.94</ele>
        <time>2021-08-17T17:59:47Z</time>
      </trkpt>
      <trkpt lat="44.07532" lon="1.73325">
        <ele>178.94</ele>
        <time>2021-08-17T18:00:08Z</time>
      </trkpt>
      <trkpt lat="44.07532" lon="1.73322">
        <ele>178.94</ele>
        <time>2021-08-17T18:00:32Z</time>
      </trkpt>
      <trkpt lat="44.07537" lon="1.73321">
        <ele>178.94</ele>
        <time>2021-08-17T18:00:43Z</time>
      </trkpt>
      <trkpt lat="44.07539" lon="1.73321">
        <ele>178.94</ele>
        <time>2021-08-17T18:00:45Z</time>
      </trkpt>
      <trkpt lat="44.0754" lon="1.73321">
        <ele>178.94</ele>
        <time>2021-08-17T18:00:46Z</time>
      </trkpt>
      <trkpt lat="44.0754" lon="1.73324">
        <ele>178.94</ele>
        <time>2021-08-17T18:00:51Z</time>
      </trkpt>
      <trkpt lat="44.07544" lon="1.73324">
        <ele>177.98</ele>
        <time>2021-08-17T18:00:57Z</time>
      </trkpt>
      <trkpt lat="44.07545" lon="1.73322">
        <ele>177.98</ele>
        <time>2021-08-17T18:00:58Z</time>
      </trkpt>
      <trkpt lat="44.07555" lon="1.73304">
        <ele>175.58</ele>
        <time>2021-08-17T18:01:04Z</time>
      </trkpt>
      <trkpt lat="44.07558" lon="1.73301">
        <ele>175.58</ele>
        <time>2021-08-17T18:01:05Z</time>
      </trkpt>
      <trkpt lat="44.07561" lon="1.73299">
        <ele>175.58</ele>
        <time>2021-08-17T18:01:06Z</time>
      </trkpt>
      <trkpt lat="44.07564" lon="1.73298">
        <ele>175.58</ele>
        <time>2021-08-17T18:01:07Z</time>
      </trkpt>
      <trkpt lat="44.07567" lon="1.73298">
        <ele>175.58</ele>
        <time>2021-08-17T18:01:08Z</time>
      </trkpt>
      <trkpt lat="44.07583" lon="1.73295">
        <ele>176.06</ele>
        <time>2021-08-17T18:01:14Z</time>
      </trkpt>
      <trkpt lat="44.07586" lon="1.73295">
        <ele>176.06</ele>
        <time>2021-08-17T18:01:15Z</time>
      </trkpt>
      <trkpt lat="44.07588" lon="1.73294">
        <ele>176.06</ele>
        <time>2021-08-17T18:01:16Z</time>
      </trkpt>
      <trkpt lat="44.07591" lon="1.73293">
        <ele>176.06</ele>
        <time>2021-08-17T18:01:17Z</time>
      </trkpt>
      <trkpt lat="44.07593" lon="1.73291">
        <ele>176.06</ele>
        <time>2021-08-17T18:01:18Z</time>
      </trkpt>
      <trkpt lat="44.07595" lon="1.73288">
        <ele>176.06</ele>
        <time>2021-08-17T18:01:19Z</time>
      </trkpt>
      <trkpt lat="44.07598" lon="1.73284">
        <ele>176.06</ele>
        <time>2021-08-17T18:01:20Z</time>
      </trkpt>
      <trkpt lat="44.07619" lon="1.73238">
        <ele>174.14</ele>
        <time>2021-08-17T18:01:28Z</time>
      </trkpt>
      <trkpt lat="44.07634" lon="1.73209">
        <ele>172.21</ele>
        <time>2021-08-17T18:01:33Z</time>
      </trkpt>
      <trkpt lat="44.07638" lon="1.73204">
        <ele>172.21</ele>
        <time>2021-08-17T18:01:34Z</time>
      </trkpt>
      <trkpt lat="44.07642" lon="1.732">
        <ele>171.25</ele>
        <time>2021-08-17T18:01:35Z</time>
      </trkpt>
      <trkpt lat="44.07657" lon="1.73186">
        <ele>169.81</ele>
        <time>2021-08-17T18:01:39Z</time>
      </trkpt>
      <trkpt lat="44.07676" lon="1.73162">
        <ele>167.41</ele>
        <time>2021-08-17T18:01:46Z</time>
      </trkpt>
      <trkpt lat="44.07677" lon="1.73157">
        <ele>167.41</ele>
        <time>2021-08-17T18:01:47Z</time>
      </trkpt>
      <trkpt lat="44.07679" lon="1.73152">
        <ele>166.93</ele>
        <time>2021-08-17T18:01:48Z</time>
      </trkpt>
      <trkpt lat="44.07679" lon="1.73146">
        <ele>166.93</ele>
        <time>2021-08-17T18:01:49Z</time>
      </trkpt>
      <trkpt lat="44.0768" lon="1.7314">
        <ele>165.96</ele>
        <time>2021-08-17T18:01:50Z</time>
      </trkpt>
      <trkpt lat="44.0768" lon="1.73134">
        <ele>165.96</ele>
        <time>2021-08-17T18:01:51Z</time>
      </trkpt>
      <trkpt lat="44.0768" lon="1.73128">
        <ele>165.48</ele>
        <time>2021-08-17T18:01:52Z</time>
      </trkpt>
      <trkpt lat="44.07681" lon="1.73097">
        <ele>163.56</ele>
        <time>2021-08-17T18:01:58Z</time>
      </trkpt>
      <trkpt lat="44.07687" lon="1.73086">
        <ele>163.08</ele>
        <time>2021-08-17T18:02:03Z</time>
      </trkpt>
      <trkpt lat="44.07689" lon="1.73087">
        <ele>163.08</ele>
        <time>2021-08-17T18:02:04Z</time>
      </trkpt>
      <trkpt lat="44.07691" lon="1.73087">
        <ele>162.6</ele>
        <time>2021-08-17T18:02:05Z</time>
      </trkpt>
      <trkpt lat="44.07693" lon="1.73088">
        <ele>162.6</ele>
        <time>2021-08-17T18:02:06Z</time>
      </trkpt>
      <trkpt lat="44.07694" lon="1.73089">
        <ele>162.12</ele>
        <time>2021-08-17T18:02:07Z</time>
      </trkpt>
      <trkpt lat="44.07696" lon="1.73087">
        <ele>162.12</ele>
        <time>2021-08-17T18:02:08Z</time>
      </trkpt>
      <trkpt lat="44.07697" lon="1.73084">
        <ele>162.12</ele>
        <time>2021-08-17T18:02:09Z</time>
      </trkpt>
      <trkpt lat="44.07699" lon="1.73081">
        <ele>162.12</ele>
        <time>2021-08-17T18:02:10Z</time>
      </trkpt>
      <trkpt lat="44.077" lon="1.73078">
        <ele>162.12</ele>
        <time>2021-08-17T18:02:11Z</time>
      </trkpt>
      <trkpt lat="44.077" lon="1.73075">
        <ele>162.12</ele>
        <time>2021-08-17T18:02:12Z</time>
      </trkpt>
      <trkpt lat="44.07701" lon="1.73073">
        <ele>162.12</ele>
        <time>2021-08-17T18:02:13Z</time>
      </trkpt>
      <trkpt lat="44.07702" lon="1.7307">
        <ele>162.12</ele>
        <time>2021-08-17T18:02:14Z</time>
      </trkpt>
      <trkpt lat="44.07703" lon="1.73066">
        <ele>162.12</ele>
        <time>2021-08-17T18:02:15Z</time>
      </trkpt>
      <trkpt lat="44.07704" lon="1.73062">
        <ele>162.12</ele>
        <time>2021-08-17T18:02:16Z</time>
      </trkpt>
      <trkpt lat="44.07704" lon="1.73058">
        <ele>162.12</ele>
        <time>2021-08-17T18:02:17Z</time>
      </trkpt>
      <trkpt lat="44.07704" lon="1.73054">
        <ele>162.12</ele>
        <time>2021-08-17T18:02:18Z</time>
      </trkpt>
      <trkpt lat="44.07704" lon="1.73052">
        <ele>163.56</ele>
        <time>2021-08-17T18:02:19Z</time>
      </trkpt>
      <trkpt lat="44.07702" lon="1.73037">
        <ele>165</ele>
        <time>2021-08-17T18:02:26Z</time>
      </trkpt>
      <trkpt lat="44.07705" lon="1.73008">
        <ele>166.45</ele>
        <time>2021-08-17T18:02:37Z</time>
      </trkpt>
      <trkpt lat="44.07712" lon="1.72988">
        <ele>163.08</ele>
        <time>2021-08-17T18:02:43Z</time>
      </trkpt>
      <trkpt lat="44.07722" lon="1.7297">
        <ele>162.12</ele>
        <time>2021-08-17T18:02:48Z</time>
      </trkpt>
      <trkpt lat="44.07727" lon="1.72962">
        <ele>162.12</ele>
        <time>2021-08-17T18:02:53Z</time>
      </trkpt>
      <trkpt lat="44.07728" lon="1.72959">
        <ele>162.12</ele>
        <time>2021-08-17T18:02:55Z</time>
      </trkpt>
      <trkpt lat="44.07737" lon="1.72947">
        <ele>164.04</ele>
        <time>2021-08-17T18:03:04Z</time>
      </trkpt>
      <trkpt lat="44.07739" lon="1.72942">
        <ele>164.52</ele>
        <time>2021-08-17T18:03:07Z</time>
      </trkpt>
      <trkpt lat="44.0774" lon="1.72941">
        <ele>164.52</ele>
        <time>2021-08-17T18:03:08Z</time>
      </trkpt>
      <trkpt lat="44.07741" lon="1.72939">
        <ele>165</ele>
        <time>2021-08-17T18:03:09Z</time>
      </trkpt>
      <trkpt lat="44.07741" lon="1.72937">
        <ele>165</ele>
        <time>2021-08-17T18:03:10Z</time>
      </trkpt>
      <trkpt lat="44.07742" lon="1.72936">
        <ele>165</ele>
        <time>2021-08-17T18:03:11Z</time>
      </trkpt>
      <trkpt lat="44.07743" lon="1.72934">
        <ele>165.96</ele>
        <time>2021-08-17T18:03:12Z</time>
      </trkpt>
      <trkpt lat="44.07744" lon="1.72933">
        <ele>165.96</ele>
        <time>2021-08-17T18:03:13Z</time>
      </trkpt>
      <trkpt lat="44.07745" lon="1.72932">
        <ele>165.96</ele>
        <time>2021-08-17T18:03:14Z</time>
      </trkpt>
      <trkpt lat="44.0775" lon="1.72924">
        <ele>167.41</ele>
        <time>2021-08-17T18:03:22Z</time>
      </trkpt>
      <trkpt lat="44.07751" lon="1.72923">
        <ele>167.89</ele>
        <time>2021-08-17T18:03:24Z</time>
      </trkpt>
      <trkpt lat="44.07752" lon="1.72919">
        <ele>169.33</ele>
        <time>2021-08-17T18:03:31Z</time>
      </trkpt>
      <trkpt lat="44.07757" lon="1.72916">
        <ele>170.29</ele>
        <time>2021-08-17T18:03:38Z</time>
      </trkpt>
      <trkpt lat="44.07762" lon="1.72899">
        <ele>172.21</ele>
        <time>2021-08-17T18:03:47Z</time>
      </trkpt>
      <trkpt lat="44.0776" lon="1.72893">
        <ele>173.17</ele>
        <time>2021-08-17T18:03:51Z</time>
      </trkpt>
      <trkpt lat="44.0776" lon="1.72888">
        <ele>173.66</ele>
        <time>2021-08-17T18:03:54Z</time>
      </trkpt>
      <trkpt lat="44.0776" lon="1.72887">
        <ele>173.66</ele>
        <time>2021-08-17T18:03:55Z</time>
      </trkpt>
      <trkpt lat="44.0776" lon="1.72885">
        <ele>174.14</ele>
        <time>2021-08-17T18:03:56Z</time>
      </trkpt>
      <trkpt lat="44.07761" lon="1.72884">
        <ele>174.14</ele>
        <time>2021-08-17T18:03:57Z</time>
      </trkpt>
      <trkpt lat="44.07761" lon="1.72883">
        <ele>174.14</ele>
        <time>2021-08-17T18:03:58Z</time>
      </trkpt>
      <trkpt lat="44.07763" lon="1.72873">
        <ele>175.58</ele>
        <time>2021-08-17T18:04:05Z</time>
      </trkpt>
      <trkpt lat="44.07768" lon="1.72855">
        <ele>176.54</ele>
        <time>2021-08-17T18:04:15Z</time>
      </trkpt>
      <trkpt lat="44.07769" lon="1.7285">
        <ele>177.02</ele>
        <time>2021-08-17T18:04:24Z</time>
      </trkpt>
      <trkpt lat="44.0777" lon="1.72845">
        <ele>177.02</ele>
        <time>2021-08-17T18:04:27Z</time>
      </trkpt>
      <trkpt lat="44.0777" lon="1.7283">
        <ele>177.02</ele>
        <time>2021-08-17T18:04:33Z</time>
      </trkpt>
      <trkpt lat="44.07778" lon="1.72803">
        <ele>175.58</ele>
        <time>2021-08-17T18:04:41Z</time>
      </trkpt>
      <trkpt lat="44.07786" lon="1.72786">
        <ele>172.69</ele>
        <time>2021-08-17T18:04:46Z</time>
      </trkpt>
      <trkpt lat="44.07784" lon="1.72765">
        <ele>169.33</ele>
        <time>2021-08-17T18:04:51Z</time>
      </trkpt>
      <trkpt lat="44.07788" lon="1.72746">
        <ele>166.93</ele>
        <time>2021-08-17T18:04:56Z</time>
      </trkpt>
      <trkpt lat="44.0779" lon="1.72721">
        <ele>163.56</ele>
        <time>2021-08-17T18:05:01Z</time>
      </trkpt>
      <trkpt lat="44.07791" lon="1.72707">
        <ele>161.64</ele>
        <time>2021-08-17T18:05:03Z</time>
      </trkpt>
      <trkpt lat="44.07792" lon="1.72701">
        <ele>161.16</ele>
        <time>2021-08-17T18:05:04Z</time>
      </trkpt>
      <trkpt lat="44.07794" lon="1.72688">
        <ele>159.72</ele>
        <time>2021-08-17T18:05:07Z</time>
      </trkpt>
      <trkpt lat="44.07794" lon="1.72684">
        <ele>158.75</ele>
        <time>2021-08-17T18:05:08Z</time>
      </trkpt>
      <trkpt lat="44.07794" lon="1.72679">
        <ele>158.27</ele>
        <time>2021-08-17T18:05:09Z</time>
      </trkpt>
      <trkpt lat="44.07794" lon="1.72674">
        <ele>157.31</ele>
        <time>2021-08-17T18:05:10Z</time>
      </trkpt>
      <trkpt lat="44.07796" lon="1.72669">
        <ele>157.79</ele>
        <time>2021-08-17T18:05:11Z</time>
      </trkpt>
      <trkpt lat="44.07799" lon="1.72664">
        <ele>156.83</ele>
        <time>2021-08-17T18:05:12Z</time>
      </trkpt>
      <trkpt lat="44.07801" lon="1.7266">
        <ele>156.83</ele>
        <time>2021-08-17T18:05:13Z</time>
      </trkpt>
      <trkpt lat="44.07804" lon="1.72658">
        <ele>156.35</ele>
        <time>2021-08-17T18:05:14Z</time>
      </trkpt>
      <trkpt lat="44.07807" lon="1.72656">
        <ele>155.87</ele>
        <time>2021-08-17T18:05:15Z</time>
      </trkpt>
      <trkpt lat="44.07815" lon="1.72641">
        <ele>154.43</ele>
        <time>2021-08-17T18:05:19Z</time>
      </trkpt>
      <trkpt lat="44.07817" lon="1.72639">
        <ele>153.95</ele>
        <time>2021-08-17T18:05:20Z</time>
      </trkpt>
      <trkpt lat="44.0782" lon="1.72635">
        <ele>153.47</ele>
        <time>2021-08-17T18:05:21Z</time>
      </trkpt>
      <trkpt lat="44.07826" lon="1.72626">
        <ele>152.51</ele>
        <time>2021-08-17T18:05:23Z</time>
      </trkpt>
      <trkpt lat="44.07834" lon="1.72606">
        <ele>148.66</ele>
        <time>2021-08-17T18:05:27Z</time>
      </trkpt>
      <trkpt lat="44.07835" lon="1.72601">
        <ele>148.66</ele>
        <time>2021-08-17T18:05:28Z</time>
      </trkpt>
      <trkpt lat="44.07847" lon="1.72585">
        <ele>147.7</ele>
        <time>2021-08-17T18:05:33Z</time>
      </trkpt>
      <trkpt lat="44.07859" lon="1.72573">
        <ele>150.58</ele>
        <time>2021-08-17T18:05:41Z</time>
      </trkpt>
      <trkpt lat="44.07871" lon="1.72556">
        <ele>150.58</ele>
        <time>2021-08-17T18:05:48Z</time>
      </trkpt>
      <trkpt lat="44.07881" lon="1.72543">
        <ele>147.7</ele>
        <time>2021-08-17T18:05:52Z</time>
      </trkpt>
      <trkpt lat="44.07896" lon="1.72525">
        <ele>143.85</ele>
        <time>2021-08-17T18:05:58Z</time>
      </trkpt>
      <trkpt lat="44.07912" lon="1.72507">
        <ele>141.45</ele>
        <time>2021-08-17T18:06:05Z</time>
      </trkpt>
      <trkpt lat="44.07924" lon="1.72499">
        <ele>141.45</ele>
        <time>2021-08-17T18:06:10Z</time>
      </trkpt>
      <trkpt lat="44.07921" lon="1.72501">
        <ele>141.45</ele>
        <time>2021-08-17T18:06:17Z</time>
      </trkpt>
      <trkpt lat="44.0792" lon="1.72501">
        <ele>141.45</ele>
        <time>2021-08-17T18:06:19Z</time>
      </trkpt>
      <trkpt lat="44.07917" lon="1.72504">
        <ele>141.45</ele>
        <time>2021-08-17T18:06:25Z</time>
      </trkpt>
      <trkpt lat="44.07913" lon="1.72509">
        <ele>141.45</ele>
        <time>2021-08-17T18:06:32Z</time>
      </trkpt>
      <trkpt lat="44.0791" lon="1.72509">
        <ele>141.45</ele>
        <time>2021-08-17T18:06:38Z</time>
      </trkpt>
      <trkpt lat="44.07903" lon="1.72504">
        <ele>140.01</ele>
        <time>2021-08-17T18:06:46Z</time>
      </trkpt>
      <trkpt lat="44.07901" lon="1.72505">
        <ele>140.01</ele>
        <time>2021-08-17T18:06:48Z</time>
      </trkpt>
      <trkpt lat="44.07892" lon="1.72511">
        <ele>139.05</ele>
        <time>2021-08-17T18:06:54Z</time>
      </trkpt>
      <trkpt lat="44.07892" lon="1.72505">
        <ele>139.05</ele>
        <time>2021-08-17T18:06:56Z</time>
      </trkpt>
      <trkpt lat="44.07895" lon="1.72502">
        <ele>138.57</ele>
        <time>2021-08-17T18:06:57Z</time>
      </trkpt>
      <trkpt lat="44.07897" lon="1.72499">
        <ele>138.09</ele>
        <time>2021-08-17T18:06:58Z</time>
      </trkpt>
      <trkpt lat="44.07901" lon="1.72494">
        <ele>138.09</ele>
        <time>2021-08-17T18:06:59Z</time>
      </trkpt>
      <trkpt lat="44.07904" lon="1.7249">
        <ele>137.61</ele>
        <time>2021-08-17T18:07:00Z</time>
      </trkpt>
      <trkpt lat="44.07908" lon="1.72487">
        <ele>136.64</ele>
        <time>2021-08-17T18:07:01Z</time>
      </trkpt>
      <trkpt lat="44.07912" lon="1.72484">
        <ele>136.16</ele>
        <time>2021-08-17T18:07:02Z</time>
      </trkpt>
      <trkpt lat="44.07917" lon="1.72482">
        <ele>135.68</ele>
        <time>2021-08-17T18:07:03Z</time>
      </trkpt>
      <trkpt lat="44.07926" lon="1.72477">
        <ele>134.72</ele>
        <time>2021-08-17T18:07:05Z</time>
      </trkpt>
      <trkpt lat="44.07931" lon="1.72476">
        <ele>134.24</ele>
        <time>2021-08-17T18:07:06Z</time>
      </trkpt>
      <trkpt lat="44.07936" lon="1.72476">
        <ele>133.76</ele>
        <time>2021-08-17T18:07:07Z</time>
      </trkpt>
      <trkpt lat="44.07941" lon="1.72478">
        <ele>133.28</ele>
        <time>2021-08-17T18:07:08Z</time>
      </trkpt>
      <trkpt lat="44.07946" lon="1.72481">
        <ele>132.32</ele>
        <time>2021-08-17T18:07:09Z</time>
      </trkpt>
      <trkpt lat="44.07951" lon="1.72486">
        <ele>131.84</ele>
        <time>2021-08-17T18:07:10Z</time>
      </trkpt>
      <trkpt lat="44.07955" lon="1.72493">
        <ele>131.36</ele>
        <time>2021-08-17T18:07:11Z</time>
      </trkpt>
      <trkpt lat="44.07957" lon="1.725">
        <ele>130.4</ele>
        <time>2021-08-17T18:07:12Z</time>
      </trkpt>
      <trkpt lat="44.07959" lon="1.72508">
        <ele>129.92</ele>
        <time>2021-08-17T18:07:13Z</time>
      </trkpt>
      <trkpt lat="44.07961" lon="1.72516">
        <ele>129.43</ele>
        <time>2021-08-17T18:07:14Z</time>
      </trkpt>
      <trkpt lat="44.07962" lon="1.72525">
        <ele>128.95</ele>
        <time>2021-08-17T18:07:15Z</time>
      </trkpt>
      <trkpt lat="44.07963" lon="1.72533">
        <ele>128.47</ele>
        <time>2021-08-17T18:07:16Z</time>
      </trkpt>
      <trkpt lat="44.07964" lon="1.7255">
        <ele>127.51</ele>
        <time>2021-08-17T18:07:18Z</time>
      </trkpt>
      <trkpt lat="44.07965" lon="1.72558">
        <ele>126.55</ele>
        <time>2021-08-17T18:07:19Z</time>
      </trkpt>
      <trkpt lat="44.07963" lon="1.72584">
        <ele>124.63</ele>
        <time>2021-08-17T18:07:22Z</time>
      </trkpt>
      <trkpt lat="44.07962" lon="1.72598">
        <ele>124.15</ele>
        <time>2021-08-17T18:07:24Z</time>
      </trkpt>
      <trkpt lat="44.07954" lon="1.72638">
        <ele>121.26</ele>
        <time>2021-08-17T18:07:30Z</time>
      </trkpt>
      <trkpt lat="44.07954" lon="1.72644">
        <ele>121.26</ele>
        <time>2021-08-17T18:07:31Z</time>
      </trkpt>
      <trkpt lat="44.07955" lon="1.72649">
        <ele>120.78</ele>
        <time>2021-08-17T18:07:32Z</time>
      </trkpt>
      <trkpt lat="44.07955" lon="1.72654">
        <ele>120.3</ele>
        <time>2021-08-17T18:07:33Z</time>
      </trkpt>
      <trkpt lat="44.07956" lon="1.72659">
        <ele>120.3</ele>
        <time>2021-08-17T18:07:34Z</time>
      </trkpt>
      <trkpt lat="44.07958" lon="1.72663">
        <ele>119.34</ele>
        <time>2021-08-17T18:07:35Z</time>
      </trkpt>
      <trkpt lat="44.07959" lon="1.72666">
        <ele>119.34</ele>
        <time>2021-08-17T18:07:36Z</time>
      </trkpt>
      <trkpt lat="44.07961" lon="1.72669">
        <ele>118.86</ele>
        <time>2021-08-17T18:07:37Z</time>
      </trkpt>
      <trkpt lat="44.07983" lon="1.72682">
        <ele>118.86</ele>
        <time>2021-08-17T18:07:44Z</time>
      </trkpt>
      <trkpt lat="44.08006" lon="1.72695">
        <ele>118.86</ele>
        <time>2021-08-17T18:07:50Z</time>
      </trkpt>
      <trkpt lat="44.0801" lon="1.72698">
        <ele>118.86</ele>
        <time>2021-08-17T18:07:51Z</time>
      </trkpt>
      <trkpt lat="44.08056" lon="1.72727">
        <ele>118.38</ele>
        <time>2021-08-17T18:08:02Z</time>
      </trkpt>
      <trkpt lat="44.08088" lon="1.72747">
        <ele>118.38</ele>
        <time>2021-08-17T18:08:11Z</time>
      </trkpt>
      <trkpt lat="44.08101" lon="1.72756">
        <ele>119.82</ele>
        <time>2021-08-17T18:08:15Z</time>
      </trkpt>
      <trkpt lat="44.08125" lon="1.7277">
        <ele>121.26</ele>
        <time>2021-08-17T18:08:24Z</time>
      </trkpt>
      <trkpt lat="44.08146" lon="1.72783">
        <ele>122.71</ele>
        <time>2021-08-17T18:08:34Z</time>
      </trkpt>
      <trkpt lat="44.08162" lon="1.72792">
        <ele>123.67</ele>
        <time>2021-08-17T18:08:43Z</time>
      </trkpt>
      <trkpt lat="44.08178" lon="1.72803">
        <ele>125.11</ele>
        <time>2021-08-17T18:08:52Z</time>
      </trkpt>
      <trkpt lat="44.08193" lon="1.72813">
        <ele>126.07</ele>
        <time>2021-08-17T18:09:01Z</time>
      </trkpt>
      <trkpt lat="44.08209" lon="1.72829">
        <ele>127.03</ele>
        <time>2021-08-17T18:09:11Z</time>
      </trkpt>
      <trkpt lat="44.08224" lon="1.72852">
        <ele>128.47</ele>
        <time>2021-08-17T18:09:23Z</time>
      </trkpt>
      <trkpt lat="44.08239" lon="1.72878">
        <ele>130.88</ele>
        <time>2021-08-17T18:09:36Z</time>
      </trkpt>
      <trkpt lat="44.08251" lon="1.72896">
        <ele>131.36</ele>
        <time>2021-08-17T18:09:45Z</time>
      </trkpt>
      <trkpt lat="44.0826" lon="1.72913">
        <ele>132.8</ele>
        <time>2021-08-17T18:09:54Z</time>
      </trkpt>
      <trkpt lat="44.08266" lon="1.72926">
        <ele>133.28</ele>
        <time>2021-08-17T18:10:00Z</time>
      </trkpt>
      <trkpt lat="44.08268" lon="1.72933">
        <ele>134.24</ele>
        <time>2021-08-17T18:10:03Z</time>
      </trkpt>
      <trkpt lat="44.0827" lon="1.72935">
        <ele>134.24</ele>
        <time>2021-08-17T18:10:04Z</time>
      </trkpt>
      <trkpt lat="44.08271" lon="1.72937">
        <ele>134.24</ele>
        <time>2021-08-17T18:10:05Z</time>
      </trkpt>
      <trkpt lat="44.08273" lon="1.72939">
        <ele>134.24</ele>
        <time>2021-08-17T18:10:06Z</time>
      </trkpt>
      <trkpt lat="44.08275" lon="1.72939">
        <ele>134.24</ele>
        <time>2021-08-17T18:10:07Z</time>
      </trkpt>
      <trkpt lat="44.08283" lon="1.72951">
        <ele>135.2</ele>
        <time>2021-08-17T18:10:13Z</time>
      </trkpt>
      <trkpt lat="44.08293" lon="1.72969">
        <ele>136.16</ele>
        <time>2021-08-17T18:10:22Z</time>
      </trkpt>
      <trkpt lat="44.08306" lon="1.7299">
        <ele>137.13</ele>
        <time>2021-08-17T18:10:32Z</time>
      </trkpt>
      <trkpt lat="44.08316" lon="1.73008">
        <ele>138.57</ele>
        <time>2021-08-17T18:10:41Z</time>
      </trkpt>
      <trkpt lat="44.08325" lon="1.73024">
        <ele>140.01</ele>
        <time>2021-08-17T18:10:49Z</time>
      </trkpt>
      <trkpt lat="44.08337" lon="1.73042">
        <ele>140.49</ele>
        <time>2021-08-17T18:10:59Z</time>
      </trkpt>
      <trkpt lat="44.08339" lon="1.73047">
        <ele>140.49</ele>
        <time>2021-08-17T18:11:02Z</time>
      </trkpt>
      <trkpt lat="44.08341" lon="1.73048">
        <ele>140.49</ele>
        <time>2021-08-17T18:11:03Z</time>
      </trkpt>
      <trkpt lat="44.08342" lon="1.7305">
        <ele>140.97</ele>
        <time>2021-08-17T18:11:04Z</time>
      </trkpt>
      <trkpt lat="44.08352" lon="1.73072">
        <ele>141.45</ele>
        <time>2021-08-17T18:11:13Z</time>
      </trkpt>
      <trkpt lat="44.08363" lon="1.73093">
        <ele>142.89</ele>
        <time>2021-08-17T18:11:22Z</time>
      </trkpt>
      <trkpt lat="44.0837" lon="1.73108">
        <ele>143.37</ele>
        <time>2021-08-17T18:11:29Z</time>
      </trkpt>
      <trkpt lat="44.08379" lon="1.7313">
        <ele>143.85</ele>
        <time>2021-08-17T18:11:38Z</time>
      </trkpt>
      <trkpt lat="44.08388" lon="1.73152">
        <ele>144.82</ele>
        <time>2021-08-17T18:11:47Z</time>
      </trkpt>
      <trkpt lat="44.08397" lon="1.73177">
        <ele>145.78</ele>
        <time>2021-08-17T18:11:57Z</time>
      </trkpt>
      <trkpt lat="44.08411" lon="1.73196">
        <ele>147.22</ele>
        <time>2021-08-17T18:12:07Z</time>
      </trkpt>
      <trkpt lat="44.08416" lon="1.73201">
        <ele>147.22</ele>
        <time>2021-08-17T18:12:10Z</time>
      </trkpt>
      <trkpt lat="44.08425" lon="1.73216">
        <ele>148.66</ele>
        <time>2021-08-17T18:12:18Z</time>
      </trkpt>
      <trkpt lat="44.08437" lon="1.73233">
        <ele>149.62</ele>
        <time>2021-08-17T18:12:27Z</time>
      </trkpt>
      <trkpt lat="44.08446" lon="1.73248">
        <ele>150.58</ele>
        <time>2021-08-17T18:12:35Z</time>
      </trkpt>
      <trkpt lat="44.08453" lon="1.73264">
        <ele>151.54</ele>
        <time>2021-08-17T18:12:43Z</time>
      </trkpt>
      <trkpt lat="44.08461" lon="1.73281">
        <ele>152.51</ele>
        <time>2021-08-17T18:12:52Z</time>
      </trkpt>
      <trkpt lat="44.08471" lon="1.73293">
        <ele>153.47</ele>
        <time>2021-08-17T18:13:00Z</time>
      </trkpt>
      <trkpt lat="44.08479" lon="1.733">
        <ele>153.95</ele>
        <time>2021-08-17T18:13:06Z</time>
      </trkpt>
      <trkpt lat="44.0848" lon="1.73301">
        <ele>154.91</ele>
        <time>2021-08-17T18:13:07Z</time>
      </trkpt>
      <trkpt lat="44.08482" lon="1.73302">
        <ele>154.91</ele>
        <time>2021-08-17T18:13:08Z</time>
      </trkpt>
      <trkpt lat="44.08483" lon="1.73302">
        <ele>154.91</ele>
        <time>2021-08-17T18:13:09Z</time>
      </trkpt>
      <trkpt lat="44.08484" lon="1.73303">
        <ele>154.91</ele>
        <time>2021-08-17T18:13:10Z</time>
      </trkpt>
      <trkpt lat="44.08486" lon="1.73303">
        <ele>154.91</ele>
        <time>2021-08-17T18:13:11Z</time>
      </trkpt>
      <trkpt lat="44.08487" lon="1.73304">
        <ele>155.39</ele>
        <time>2021-08-17T18:13:12Z</time>
      </trkpt>
      <trkpt lat="44.085" lon="1.73307">
        <ele>157.31</ele>
        <time>2021-08-17T18:13:22Z</time>
      </trkpt>
      <trkpt lat="44.08501" lon="1.73306">
        <ele>157.31</ele>
        <time>2021-08-17T18:13:29Z</time>
      </trkpt>
      <trkpt lat="44.085" lon="1.73306">
        <ele>157.31</ele>
        <time>2021-08-17T18:13:35Z</time>
      </trkpt>
      <trkpt lat="44.08499" lon="1.73307">
        <ele>157.31</ele>
        <time>2021-08-17T18:13:36Z</time>
      </trkpt>
      <trkpt lat="44.08499" lon="1.73307">
        <ele>157.31</ele>
        <time>2021-08-17T18:13:39Z</time>
      </trkpt>
      <trkpt lat="44.08499" lon="1.73309">
        <ele>157.31</ele>
        <time>2021-08-17T18:13:50Z</time>
      </trkpt>
      <trkpt lat="44.08499" lon="1.73309">
        <ele>157.31</ele>
        <time>2021-08-17T18:13:57Z</time>
      </trkpt>
      <trkpt lat="44.08499" lon="1.73309">
        <ele>157.31</ele>
        <time>2021-08-17T18:14:04Z</time>
      </trkpt>
      <trkpt lat="44.08498" lon="1.73308">
        <ele>157.31</ele>
        <time>2021-08-17T18:14:26Z</time>
      </trkpt>
      <trkpt lat="44.08498" lon="1.73307">
        <ele>157.31</ele>
        <time>2021-08-17T18:14:51Z</time>
      </trkpt>
      <trkpt lat="44.085" lon="1.73307">
        <ele>156.35</ele>
        <time>2021-08-17T18:15:05Z</time>
      </trkpt>
      <trkpt lat="44.08501" lon="1.73308">
        <ele>156.35</ele>
        <time>2021-08-17T18:15:12Z</time>
      </trkpt>
      <trkpt lat="44.08502" lon="1.73308">
        <ele>156.35</ele>
        <time>2021-08-17T18:15:27Z</time>
      </trkpt>
      <trkpt lat="44.085" lon="1.73303">
        <ele>156.35</ele>
        <time>2021-08-17T18:15:41Z</time>
      </trkpt>
      <trkpt lat="44.08498" lon="1.73302">
        <ele>156.35</ele>
        <time>2021-08-17T18:16:06Z</time>
      </trkpt>
      <trkpt lat="44.085" lon="1.73304">
        <ele>156.35</ele>
        <time>2021-08-17T18:16:23Z</time>
      </trkpt>
      <trkpt lat="44.085" lon="1.73305">
        <ele>156.35</ele>
        <time>2021-08-17T18:16:37Z</time>
      </trkpt>
      <trkpt lat="44.08502" lon="1.73306">
        <ele>156.35</ele>
        <time>2021-08-17T18:16:58Z</time>
      </trkpt>
      <trkpt lat="44.08501" lon="1.73312">
        <ele>157.31</ele>
        <time>2021-08-17T18:17:19Z</time>
      </trkpt>
      <trkpt lat="44.08498" lon="1.7331">
        <ele>157.31</ele>
        <time>2021-08-17T18:17:37Z</time>
      </trkpt>
      <trkpt lat="44.08502" lon="1.73308">
        <ele>157.31</ele>
        <time>2021-08-17T18:17:51Z</time>
      </trkpt>
      <trkpt lat="44.08505" lon="1.73307">
        <ele>157.79</ele>
        <time>2021-08-17T18:17:59Z</time>
      </trkpt>
      <trkpt lat="44.08505" lon="1.73307">
        <ele>157.79</ele>
        <time>2021-08-17T18:18:00Z</time>
      </trkpt>
      <trkpt lat="44.08517" lon="1.73303">
        <ele>159.24</ele>
        <time>2021-08-17T18:18:09Z</time>
      </trkpt>
      <trkpt lat="44.08528" lon="1.733">
        <ele>160.68</ele>
        <time>2021-08-17T18:18:17Z</time>
      </trkpt>
      <trkpt lat="44.08538" lon="1.7329">
        <ele>162.6</ele>
        <time>2021-08-17T18:18:26Z</time>
      </trkpt>
      <trkpt lat="44.08545" lon="1.73283">
        <ele>163.08</ele>
        <time>2021-08-17T18:18:31Z</time>
      </trkpt>
      <trkpt lat="44.08556" lon="1.73269">
        <ele>164.52</ele>
        <time>2021-08-17T18:18:40Z</time>
      </trkpt>
      <trkpt lat="44.08558" lon="1.73268">
        <ele>164.52</ele>
        <time>2021-08-17T18:18:41Z</time>
      </trkpt>
      <trkpt lat="44.08571" lon="1.73249">
        <ele>165.96</ele>
        <time>2021-08-17T18:18:52Z</time>
      </trkpt>
      <trkpt lat="44.08582" lon="1.73232">
        <ele>166.93</ele>
        <time>2021-08-17T18:19:02Z</time>
      </trkpt>
      <trkpt lat="44.08596" lon="1.73209">
        <ele>168.37</ele>
        <time>2021-08-17T18:19:15Z</time>
      </trkpt>
      <trkpt lat="44.08608" lon="1.73189">
        <ele>169.81</ele>
        <time>2021-08-17T18:19:26Z</time>
      </trkpt>
      <trkpt lat="44.08615" lon="1.73168">
        <ele>172.21</ele>
        <time>2021-08-17T18:19:37Z</time>
      </trkpt>
      <trkpt lat="44.08618" lon="1.7315">
        <ele>173.66</ele>
        <time>2021-08-17T18:19:46Z</time>
      </trkpt>
      <trkpt lat="44.08617" lon="1.73133">
        <ele>175.58</ele>
        <time>2021-08-17T18:19:56Z</time>
      </trkpt>
      <trkpt lat="44.08616" lon="1.7312">
        <ele>176.54</ele>
        <time>2021-08-17T18:20:04Z</time>
      </trkpt>
      <trkpt lat="44.08613" lon="1.73108">
        <ele>178.46</ele>
        <time>2021-08-17T18:20:14Z</time>
      </trkpt>
      <trkpt lat="44.08611" lon="1.73101">
        <ele>179.42</ele>
        <time>2021-08-17T18:20:21Z</time>
      </trkpt>
      <trkpt lat="44.08607" lon="1.73092">
        <ele>180.87</ele>
        <time>2021-08-17T18:20:30Z</time>
      </trkpt>
      <trkpt lat="44.08603" lon="1.73083">
        <ele>182.31</ele>
        <time>2021-08-17T18:20:38Z</time>
      </trkpt>
      <trkpt lat="44.08599" lon="1.73074">
        <ele>183.75</ele>
        <time>2021-08-17T18:20:46Z</time>
      </trkpt>
      <trkpt lat="44.08593" lon="1.73063">
        <ele>185.67</ele>
        <time>2021-08-17T18:20:56Z</time>
      </trkpt>
      <trkpt lat="44.08589" lon="1.73052">
        <ele>186.63</ele>
        <time>2021-08-17T18:21:05Z</time>
      </trkpt>
      <trkpt lat="44.08584" lon="1.73042">
        <ele>188.08</ele>
        <time>2021-08-17T18:21:13Z</time>
      </trkpt>
      <trkpt lat="44.08579" lon="1.73031">
        <ele>190</ele>
        <time>2021-08-17T18:21:22Z</time>
      </trkpt>
      <trkpt lat="44.08573" lon="1.73021">
        <ele>190.48</ele>
        <time>2021-08-17T18:21:31Z</time>
      </trkpt>
      <trkpt lat="44.08568" lon="1.7301">
        <ele>191.92</ele>
        <time>2021-08-17T18:21:40Z</time>
      </trkpt>
      <trkpt lat="44.08565" lon="1.72999">
        <ele>193.36</ele>
        <time>2021-08-17T18:21:48Z</time>
      </trkpt>
      <trkpt lat="44.08564" lon="1.72993">
        <ele>193.84</ele>
        <time>2021-08-17T18:21:52Z</time>
      </trkpt>
      <trkpt lat="44.08556" lon="1.72978">
        <ele>196.25</ele>
        <time>2021-08-17T18:22:04Z</time>
      </trkpt>
      <trkpt lat="44.08551" lon="1.72968">
        <ele>197.69</ele>
        <time>2021-08-17T18:22:13Z</time>
      </trkpt>
      <trkpt lat="44.08544" lon="1.72953">
        <ele>199.61</ele>
        <time>2021-08-17T18:22:26Z</time>
      </trkpt>
      <trkpt lat="44.0854" lon="1.72943">
        <ele>200.57</ele>
        <time>2021-08-17T18:22:35Z</time>
      </trkpt>
      <trkpt lat="44.08538" lon="1.72939">
        <ele>201.05</ele>
        <time>2021-08-17T18:22:39Z</time>
      </trkpt>
      <trkpt lat="44.08529" lon="1.72922">
        <ele>202.98</ele>
        <time>2021-08-17T18:22:51Z</time>
      </trkpt>
      <trkpt lat="44.08526" lon="1.72918">
        <ele>203.46</ele>
        <time>2021-08-17T18:22:58Z</time>
      </trkpt>
      <trkpt lat="44.08519" lon="1.729">
        <ele>204.9</ele>
        <time>2021-08-17T18:23:08Z</time>
      </trkpt>
      <trkpt lat="44.08514" lon="1.72883">
        <ele>205.86</ele>
        <time>2021-08-17T18:23:17Z</time>
      </trkpt>
      <trkpt lat="44.0851" lon="1.72867">
        <ele>207.78</ele>
        <time>2021-08-17T18:23:25Z</time>
      </trkpt>
      <trkpt lat="44.08501" lon="1.72846">
        <ele>209.7</ele>
        <time>2021-08-17T18:23:36Z</time>
      </trkpt>
      <trkpt lat="44.08496" lon="1.72826">
        <ele>211.15</ele>
        <time>2021-08-17T18:23:46Z</time>
      </trkpt>
      <trkpt lat="44.0849" lon="1.72804">
        <ele>213.07</ele>
        <time>2021-08-17T18:23:57Z</time>
      </trkpt>
      <trkpt lat="44.08481" lon="1.72786">
        <ele>214.99</ele>
        <time>2021-08-17T18:24:07Z</time>
      </trkpt>
      <trkpt lat="44.08471" lon="1.7277">
        <ele>216.43</ele>
        <time>2021-08-17T18:24:17Z</time>
      </trkpt>
      <trkpt lat="44.08458" lon="1.72753">
        <ele>218.84</ele>
        <time>2021-08-17T18:24:28Z</time>
      </trkpt>
      <trkpt lat="44.08448" lon="1.72739">
        <ele>220.28</ele>
        <time>2021-08-17T18:24:37Z</time>
      </trkpt>
      <trkpt lat="44.08435" lon="1.72723">
        <ele>221.72</ele>
        <time>2021-08-17T18:24:47Z</time>
      </trkpt>
      <trkpt lat="44.08432" lon="1.72712">
        <ele>222.2</ele>
        <time>2021-08-17T18:24:52Z</time>
      </trkpt>
      <trkpt lat="44.08438" lon="1.727">
        <ele>223.16</ele>
        <time>2021-08-17T18:25:00Z</time>
      </trkpt>
      <trkpt lat="44.08439" lon="1.727">
        <ele>223.64</ele>
        <time>2021-08-17T18:25:01Z</time>
      </trkpt>
      <trkpt lat="44.08443" lon="1.72701">
        <ele>223.64</ele>
        <time>2021-08-17T18:25:03Z</time>
      </trkpt>
      <trkpt lat="44.08459" lon="1.72722">
        <ele>225.57</ele>
        <time>2021-08-17T18:25:15Z</time>
      </trkpt>
      <trkpt lat="44.08474" lon="1.72734">
        <ele>226.53</ele>
        <time>2021-08-17T18:25:24Z</time>
      </trkpt>
      <trkpt lat="44.08495" lon="1.72739">
        <ele>228.45</ele>
        <time>2021-08-17T18:25:35Z</time>
      </trkpt>
      <trkpt lat="44.08514" lon="1.72744">
        <ele>229.89</ele>
        <time>2021-08-17T18:25:46Z</time>
      </trkpt>
      <trkpt lat="44.08528" lon="1.72754">
        <ele>231.33</ele>
        <time>2021-08-17T18:25:54Z</time>
      </trkpt>
      <trkpt lat="44.08539" lon="1.72771">
        <ele>232.78</ele>
        <time>2021-08-17T18:26:02Z</time>
      </trkpt>
      <trkpt lat="44.08551" lon="1.72788">
        <ele>234.22</ele>
        <time>2021-08-17T18:26:11Z</time>
      </trkpt>
      <trkpt lat="44.08567" lon="1.72795">
        <ele>235.18</ele>
        <time>2021-08-17T18:26:19Z</time>
      </trkpt>
      <trkpt lat="44.08569" lon="1.72794">
        <ele>235.18</ele>
        <time>2021-08-17T18:26:20Z</time>
      </trkpt>
      <trkpt lat="44.0857" lon="1.72792">
        <ele>235.66</ele>
        <time>2021-08-17T18:26:21Z</time>
      </trkpt>
      <trkpt lat="44.08571" lon="1.7279">
        <ele>235.66</ele>
        <time>2021-08-17T18:26:22Z</time>
      </trkpt>
      <trkpt lat="44.08572" lon="1.72787">
        <ele>235.66</ele>
        <time>2021-08-17T18:26:23Z</time>
      </trkpt>
      <trkpt lat="44.08572" lon="1.72784">
        <ele>236.14</ele>
        <time>2021-08-17T18:26:24Z</time>
      </trkpt>
      <trkpt lat="44.08572" lon="1.72782">
        <ele>236.14</ele>
        <time>2021-08-17T18:26:25Z</time>
      </trkpt>
      <trkpt lat="44.08572" lon="1.72779">
        <ele>236.62</ele>
        <time>2021-08-17T18:26:26Z</time>
      </trkpt>
      <trkpt lat="44.08571" lon="1.72777">
        <ele>236.62</ele>
        <time>2021-08-17T18:26:27Z</time>
      </trkpt>
      <trkpt lat="44.0857" lon="1.72774">
        <ele>237.1</ele>
        <time>2021-08-17T18:26:28Z</time>
      </trkpt>
      <trkpt lat="44.08569" lon="1.72772">
        <ele>237.1</ele>
        <time>2021-08-17T18:26:29Z</time>
      </trkpt>
      <trkpt lat="44.08568" lon="1.7277">
        <ele>237.1</ele>
        <time>2021-08-17T18:26:30Z</time>
      </trkpt>
      <trkpt lat="44.08553" lon="1.72744">
        <ele>239.51</ele>
        <time>2021-08-17T18:26:42Z</time>
      </trkpt>
      <trkpt lat="44.08544" lon="1.72722">
        <ele>240.95</ele>
        <time>2021-08-17T18:26:52Z</time>
      </trkpt>
      <trkpt lat="44.08536" lon="1.72701">
        <ele>242.39</ele>
        <time>2021-08-17T18:27:02Z</time>
      </trkpt>
      <trkpt lat="44.08529" lon="1.72688">
        <ele>243.35</ele>
        <time>2021-08-17T18:27:10Z</time>
      </trkpt>
      <trkpt lat="44.08521" lon="1.72678">
        <ele>244.79</ele>
        <time>2021-08-17T18:27:17Z</time>
      </trkpt>
      <trkpt lat="44.0852" lon="1.72677">
        <ele>245.27</ele>
        <time>2021-08-17T18:27:18Z</time>
      </trkpt>
      <trkpt lat="44.08519" lon="1.72676">
        <ele>245.27</ele>
        <time>2021-08-17T18:27:19Z</time>
      </trkpt>
      <trkpt lat="44.08517" lon="1.72675">
        <ele>245.27</ele>
        <time>2021-08-17T18:27:20Z</time>
      </trkpt>
      <trkpt lat="44.08516" lon="1.72673">
        <ele>245.27</ele>
        <time>2021-08-17T18:27:21Z</time>
      </trkpt>
      <trkpt lat="44.08515" lon="1.72672">
        <ele>245.75</ele>
        <time>2021-08-17T18:27:22Z</time>
      </trkpt>
      <trkpt lat="44.08504" lon="1.72656">
        <ele>247.68</ele>
        <time>2021-08-17T18:27:32Z</time>
      </trkpt>
      <trkpt lat="44.08493" lon="1.72639">
        <ele>248.64</ele>
        <time>2021-08-17T18:27:42Z</time>
      </trkpt>
      <trkpt lat="44.08482" lon="1.72616">
        <ele>251.04</ele>
        <time>2021-08-17T18:27:52Z</time>
      </trkpt>
      <trkpt lat="44.08476" lon="1.72596">
        <ele>252.96</ele>
        <time>2021-08-17T18:28:00Z</time>
      </trkpt>
      <trkpt lat="44.08472" lon="1.72578">
        <ele>253.93</ele>
        <time>2021-08-17T18:28:08Z</time>
      </trkpt>
      <trkpt lat="44.08467" lon="1.72553">
        <ele>255.85</ele>
        <time>2021-08-17T18:28:20Z</time>
      </trkpt>
      <trkpt lat="44.08463" lon="1.72532">
        <ele>257.29</ele>
        <time>2021-08-17T18:28:30Z</time>
      </trkpt>
      <trkpt lat="44.08459" lon="1.72509">
        <ele>259.21</ele>
        <time>2021-08-17T18:28:41Z</time>
      </trkpt>
      <trkpt lat="44.08453" lon="1.72489">
        <ele>260.65</ele>
        <time>2021-08-17T18:28:51Z</time>
      </trkpt>
      <trkpt lat="44.08448" lon="1.72469">
        <ele>262.58</ele>
        <time>2021-08-17T18:29:01Z</time>
      </trkpt>
      <trkpt lat="44.08445" lon="1.72452">
        <ele>263.54</ele>
        <time>2021-08-17T18:29:09Z</time>
      </trkpt>
      <trkpt lat="44.08444" lon="1.72427">
        <ele>264.5</ele>
        <time>2021-08-17T18:29:20Z</time>
      </trkpt>
      <trkpt lat="44.08443" lon="1.72402">
        <ele>266.42</ele>
        <time>2021-08-17T18:29:30Z</time>
      </trkpt>
      <trkpt lat="44.08445" lon="1.72371">
        <ele>267.86</ele>
        <time>2021-08-17T18:29:42Z</time>
      </trkpt>
      <trkpt lat="44.08449" lon="1.72348">
        <ele>269.79</ele>
        <time>2021-08-17T18:29:52Z</time>
      </trkpt>
      <trkpt lat="44.08455" lon="1.7233">
        <ele>270.75</ele>
        <time>2021-08-17T18:30:00Z</time>
      </trkpt>
      <trkpt lat="44.08458" lon="1.72318">
        <ele>271.71</ele>
        <time>2021-08-17T18:30:05Z</time>
      </trkpt>
      <trkpt lat="44.08461" lon="1.72293">
        <ele>273.15</ele>
        <time>2021-08-17T18:30:15Z</time>
      </trkpt>
      <trkpt lat="44.08456" lon="1.72273">
        <ele>273.63</ele>
        <time>2021-08-17T18:30:23Z</time>
      </trkpt>
      <trkpt lat="44.08448" lon="1.72249">
        <ele>273.63</ele>
        <time>2021-08-17T18:30:30Z</time>
      </trkpt>
      <trkpt lat="44.08434" lon="1.72219">
        <ele>274.11</ele>
        <time>2021-08-17T18:30:38Z</time>
      </trkpt>
      <trkpt lat="44.0842" lon="1.72186">
        <ele>275.56</ele>
        <time>2021-08-17T18:30:47Z</time>
      </trkpt>
      <trkpt lat="44.08413" lon="1.72168">
        <ele>277</ele>
        <time>2021-08-17T18:30:54Z</time>
      </trkpt>
      <trkpt lat="44.08412" lon="1.72165">
        <ele>277</ele>
        <time>2021-08-17T18:30:56Z</time>
      </trkpt>
      <trkpt lat="44.08411" lon="1.72164">
        <ele>277.48</ele>
        <time>2021-08-17T18:30:57Z</time>
      </trkpt>
      <trkpt lat="44.08404" lon="1.72152">
        <ele>278.44</ele>
        <time>2021-08-17T18:31:04Z</time>
      </trkpt>
      <trkpt lat="44.08395" lon="1.72143">
        <ele>279.4</ele>
        <time>2021-08-17T18:31:11Z</time>
      </trkpt>
      <trkpt lat="44.08385" lon="1.72134">
        <ele>280.36</ele>
        <time>2021-08-17T18:31:18Z</time>
      </trkpt>
      <trkpt lat="44.08381" lon="1.72129">
        <ele>280.84</ele>
        <time>2021-08-17T18:31:22Z</time>
      </trkpt>
      <trkpt lat="44.08381" lon="1.72128">
        <ele>280.84</ele>
        <time>2021-08-17T18:31:23Z</time>
      </trkpt>
      <trkpt lat="44.0838" lon="1.72127">
        <ele>281.32</ele>
        <time>2021-08-17T18:31:24Z</time>
      </trkpt>
      <trkpt lat="44.08379" lon="1.72125">
        <ele>281.32</ele>
        <time>2021-08-17T18:31:25Z</time>
      </trkpt>
      <trkpt lat="44.08378" lon="1.72124">
        <ele>281.32</ele>
        <time>2021-08-17T18:31:26Z</time>
      </trkpt>
      <trkpt lat="44.08377" lon="1.72122">
        <ele>281.8</ele>
        <time>2021-08-17T18:31:27Z</time>
      </trkpt>
      <trkpt lat="44.08376" lon="1.72121">
        <ele>281.8</ele>
        <time>2021-08-17T18:31:28Z</time>
      </trkpt>
      <trkpt lat="44.08375" lon="1.72119">
        <ele>281.8</ele>
        <time>2021-08-17T18:31:29Z</time>
      </trkpt>
      <trkpt lat="44.08374" lon="1.72118">
        <ele>282.28</ele>
        <time>2021-08-17T18:31:30Z</time>
      </trkpt>
      <trkpt lat="44.08373" lon="1.72116">
        <ele>282.28</ele>
        <time>2021-08-17T18:31:31Z</time>
      </trkpt>
      <trkpt lat="44.08372" lon="1.72115">
        <ele>282.28</ele>
        <time>2021-08-17T18:31:32Z</time>
      </trkpt>
      <trkpt lat="44.08371" lon="1.72113">
        <ele>282.77</ele>
        <time>2021-08-17T18:31:33Z</time>
      </trkpt>
      <trkpt lat="44.0837" lon="1.72111">
        <ele>282.77</ele>
        <time>2021-08-17T18:31:34Z</time>
      </trkpt>
      <trkpt lat="44.08369" lon="1.72109">
        <ele>282.77</ele>
        <time>2021-08-17T18:31:35Z</time>
      </trkpt>
      <trkpt lat="44.08369" lon="1.72107">
        <ele>283.25</ele>
        <time>2021-08-17T18:31:36Z</time>
      </trkpt>
      <trkpt lat="44.08368" lon="1.72105">
        <ele>283.25</ele>
        <time>2021-08-17T18:31:37Z</time>
      </trkpt>
      <trkpt lat="44.08367" lon="1.72103">
        <ele>283.25</ele>
        <time>2021-08-17T18:31:38Z</time>
      </trkpt>
      <trkpt lat="44.08366" lon="1.72101">
        <ele>283.73</ele>
        <time>2021-08-17T18:31:39Z</time>
      </trkpt>
      <trkpt lat="44.08365" lon="1.72099">
        <ele>283.73</ele>
        <time>2021-08-17T18:31:40Z</time>
      </trkpt>
      <trkpt lat="44.08364" lon="1.72097">
        <ele>283.73</ele>
        <time>2021-08-17T18:31:41Z</time>
      </trkpt>
      <trkpt lat="44.08364" lon="1.72095">
        <ele>283.73</ele>
        <time>2021-08-17T18:31:42Z</time>
      </trkpt>
      <trkpt lat="44.08363" lon="1.72093">
        <ele>283.73</ele>
        <time>2021-08-17T18:31:43Z</time>
      </trkpt>
      <trkpt lat="44.08356" lon="1.72075">
        <ele>285.17</ele>
        <time>2021-08-17T18:31:51Z</time>
      </trkpt>
      <trkpt lat="44.08346" lon="1.72045">
        <ele>285.17</ele>
        <time>2021-08-17T18:32:00Z</time>
      </trkpt>
      <trkpt lat="44.08341" lon="1.72024">
        <ele>285.17</ele>
        <time>2021-08-17T18:32:07Z</time>
      </trkpt>
      <trkpt lat="44.08337" lon="1.72008">
        <ele>285.17</ele>
        <time>2021-08-17T18:32:12Z</time>
      </trkpt>
      <trkpt lat="44.08337" lon="1.72005">
        <ele>285.17</ele>
        <time>2021-08-17T18:32:13Z</time>
      </trkpt>
      <trkpt lat="44.08336" lon="1.72001">
        <ele>285.17</ele>
        <time>2021-08-17T18:32:14Z</time>
      </trkpt>
      <trkpt lat="44.08336" lon="1.71998">
        <ele>285.17</ele>
        <time>2021-08-17T18:32:15Z</time>
      </trkpt>
      <trkpt lat="44.08336" lon="1.71994">
        <ele>285.17</ele>
        <time>2021-08-17T18:32:16Z</time>
      </trkpt>
      <trkpt lat="44.08334" lon="1.71965">
        <ele>283.73</ele>
        <time>2021-08-17T18:32:23Z</time>
      </trkpt>
      <trkpt lat="44.08325" lon="1.71914">
        <ele>281.32</ele>
        <time>2021-08-17T18:32:32Z</time>
      </trkpt>
      <trkpt lat="44.08318" lon="1.71849">
        <ele>279.4</ele>
        <time>2021-08-17T18:32:41Z</time>
      </trkpt>
      <trkpt lat="44.08313" lon="1.71823">
        <ele>278.92</ele>
        <time>2021-08-17T18:32:46Z</time>
      </trkpt>
      <trkpt lat="44.0829" lon="1.71791">
        <ele>276.04</ele>
        <time>2021-08-17T18:32:52Z</time>
      </trkpt>
      <trkpt lat="44.08259" lon="1.71743">
        <ele>274.11</ele>
        <time>2021-08-17T18:32:59Z</time>
      </trkpt>
      <trkpt lat="44.08256" lon="1.71737">
        <ele>274.11</ele>
        <time>2021-08-17T18:33:00Z</time>
      </trkpt>
      <trkpt lat="44.08241" lon="1.71701">
        <ele>275.56</ele>
        <time>2021-08-17T18:33:07Z</time>
      </trkpt>
      <trkpt lat="44.08223" lon="1.71674">
        <ele>276.04</ele>
        <time>2021-08-17T18:33:15Z</time>
      </trkpt>
      <trkpt lat="44.08217" lon="1.71667">
        <ele>276.52</ele>
        <time>2021-08-17T18:33:18Z</time>
      </trkpt>
      <trkpt lat="44.08216" lon="1.71665">
        <ele>276.52</ele>
        <time>2021-08-17T18:33:19Z</time>
      </trkpt>
      <trkpt lat="44.08214" lon="1.71663">
        <ele>277</ele>
        <time>2021-08-17T18:33:20Z</time>
      </trkpt>
      <trkpt lat="44.08212" lon="1.71661">
        <ele>277</ele>
        <time>2021-08-17T18:33:21Z</time>
      </trkpt>
      <trkpt lat="44.0821" lon="1.71659">
        <ele>277</ele>
        <time>2021-08-17T18:33:22Z</time>
      </trkpt>
      <trkpt lat="44.08208" lon="1.71656">
        <ele>277</ele>
        <time>2021-08-17T18:33:23Z</time>
      </trkpt>
      <trkpt lat="44.08197" lon="1.71631">
        <ele>277.96</ele>
        <time>2021-08-17T18:33:30Z</time>
      </trkpt>
      <trkpt lat="44.0819" lon="1.716">
        <ele>278.92</ele>
        <time>2021-08-17T18:33:38Z</time>
      </trkpt>
      <trkpt lat="44.08186" lon="1.71579">
        <ele>279.4</ele>
        <time>2021-08-17T18:33:44Z</time>
      </trkpt>
      <trkpt lat="44.08187" lon="1.71557">
        <ele>279.4</ele>
        <time>2021-08-17T18:33:49Z</time>
      </trkpt>
      <trkpt lat="44.08189" lon="1.71521">
        <ele>279.4</ele>
        <time>2021-08-17T18:33:55Z</time>
      </trkpt>
      <trkpt lat="44.08194" lon="1.71475">
        <ele>279.88</ele>
        <time>2021-08-17T18:34:03Z</time>
      </trkpt>
      <trkpt lat="44.08199" lon="1.71444">
        <ele>279.88</ele>
        <time>2021-08-17T18:34:10Z</time>
      </trkpt>
      <trkpt lat="44.08202" lon="1.7142">
        <ele>280.36</ele>
        <time>2021-08-17T18:34:16Z</time>
      </trkpt>
      <trkpt lat="44.08204" lon="1.71399">
        <ele>280.36</ele>
        <time>2021-08-17T18:34:22Z</time>
      </trkpt>
      <trkpt lat="44.08206" lon="1.71388">
        <ele>280.36</ele>
        <time>2021-08-17T18:34:25Z</time>
      </trkpt>
      <trkpt lat="44.08207" lon="1.71385">
        <ele>280.36</ele>
        <time>2021-08-17T18:34:26Z</time>
      </trkpt>
      <trkpt lat="44.08207" lon="1.71382">
        <ele>280.36</ele>
        <time>2021-08-17T18:34:27Z</time>
      </trkpt>
      <trkpt lat="44.08216" lon="1.71347">
        <ele>280.36</ele>
        <time>2021-08-17T18:34:35Z</time>
      </trkpt>
      <trkpt lat="44.08223" lon="1.71324">
        <ele>280.84</ele>
        <time>2021-08-17T18:34:41Z</time>
      </trkpt>
      <trkpt lat="44.08224" lon="1.71316">
        <ele>280.84</ele>
        <time>2021-08-17T18:34:43Z</time>
      </trkpt>
      <trkpt lat="44.08224" lon="1.71313">
        <ele>280.36</ele>
        <time>2021-08-17T18:34:44Z</time>
      </trkpt>
      <trkpt lat="44.08225" lon="1.71282">
        <ele>280.84</ele>
        <time>2021-08-17T18:34:51Z</time>
      </trkpt>
      <trkpt lat="44.0823" lon="1.71249">
        <ele>281.32</ele>
        <time>2021-08-17T18:34:59Z</time>
      </trkpt>
      <trkpt lat="44.0823" lon="1.71247">
        <ele>281.32</ele>
        <time>2021-08-17T18:35:05Z</time>
      </trkpt>
      <trkpt lat="44.08232" lon="1.71234">
        <ele>281.32</ele>
        <time>2021-08-17T18:35:13Z</time>
      </trkpt>
      <trkpt lat="44.08233" lon="1.71233">
        <ele>281.32</ele>
        <time>2021-08-17T18:35:14Z</time>
      </trkpt>
      <trkpt lat="44.08237" lon="1.71218">
        <ele>281.32</ele>
        <time>2021-08-17T18:35:24Z</time>
      </trkpt>
      <trkpt lat="44.08238" lon="1.71217">
        <ele>281.32</ele>
        <time>2021-08-17T18:35:25Z</time>
      </trkpt>
      <trkpt lat="44.08238" lon="1.71215">
        <ele>281.32</ele>
        <time>2021-08-17T18:35:26Z</time>
      </trkpt>
      <trkpt lat="44.08238" lon="1.71214">
        <ele>281.32</ele>
        <time>2021-08-17T18:35:27Z</time>
      </trkpt>
      <trkpt lat="44.08239" lon="1.71206">
        <ele>281.32</ele>
        <time>2021-08-17T18:35:32Z</time>
      </trkpt>
      <trkpt lat="44.0824" lon="1.71204">
        <ele>281.32</ele>
        <time>2021-08-17T18:35:33Z</time>
      </trkpt>
      <trkpt lat="44.08241" lon="1.71203">
        <ele>282.77</ele>
        <time>2021-08-17T18:35:34Z</time>
      </trkpt>
      <trkpt lat="44.08242" lon="1.71198">
        <ele>282.77</ele>
        <time>2021-08-17T18:35:37Z</time>
      </trkpt>
      <trkpt lat="44.08243" lon="1.71193">
        <ele>282.77</ele>
        <time>2021-08-17T18:35:40Z</time>
      </trkpt>
      <trkpt lat="44.08246" lon="1.71181">
        <ele>283.25</ele>
        <time>2021-08-17T18:35:47Z</time>
      </trkpt>
      <trkpt lat="44.0825" lon="1.71167">
        <ele>283.73</ele>
        <time>2021-08-17T18:35:55Z</time>
      </trkpt>
      <trkpt lat="44.08254" lon="1.7115">
        <ele>284.21</ele>
        <time>2021-08-17T18:36:05Z</time>
      </trkpt>
      <trkpt lat="44.08255" lon="1.71144">
        <ele>286.13</ele>
        <time>2021-08-17T18:36:09Z</time>
      </trkpt>
      <trkpt lat="44.08256" lon="1.71131">
        <ele>285.17</ele>
        <time>2021-08-17T18:36:17Z</time>
      </trkpt>
      <trkpt lat="44.0826" lon="1.71125">
        <ele>285.17</ele>
        <time>2021-08-17T18:36:25Z</time>
      </trkpt>
      <trkpt lat="44.0826" lon="1.71122">
        <ele>285.17</ele>
        <time>2021-08-17T18:36:27Z</time>
      </trkpt>
      <trkpt lat="44.08264" lon="1.71108">
        <ele>285.17</ele>
        <time>2021-08-17T18:36:33Z</time>
      </trkpt>
      <trkpt lat="44.08265" lon="1.71105">
        <ele>286.13</ele>
        <time>2021-08-17T18:36:34Z</time>
      </trkpt>
      <trkpt lat="44.08265" lon="1.71103">
        <ele>286.13</ele>
        <time>2021-08-17T18:36:35Z</time>
      </trkpt>
      <trkpt lat="44.08272" lon="1.71079">
        <ele>287.57</ele>
        <time>2021-08-17T18:36:44Z</time>
      </trkpt>
      <trkpt lat="44.08277" lon="1.71061">
        <ele>289.01</ele>
        <time>2021-08-17T18:36:52Z</time>
      </trkpt>
      <trkpt lat="44.08281" lon="1.71042">
        <ele>290.46</ele>
        <time>2021-08-17T18:37:01Z</time>
      </trkpt>
      <trkpt lat="44.08283" lon="1.71037">
        <ele>290.94</ele>
        <time>2021-08-17T18:37:04Z</time>
      </trkpt>
      <trkpt lat="44.08284" lon="1.71035">
        <ele>290.94</ele>
        <time>2021-08-17T18:37:05Z</time>
      </trkpt>
      <trkpt lat="44.08284" lon="1.71033">
        <ele>290.94</ele>
        <time>2021-08-17T18:37:06Z</time>
      </trkpt>
      <trkpt lat="44.08285" lon="1.71031">
        <ele>290.94</ele>
        <time>2021-08-17T18:37:07Z</time>
      </trkpt>
      <trkpt lat="44.08286" lon="1.71029">
        <ele>291.42</ele>
        <time>2021-08-17T18:37:08Z</time>
      </trkpt>
      <trkpt lat="44.08286" lon="1.71027">
        <ele>291.42</ele>
        <time>2021-08-17T18:37:09Z</time>
      </trkpt>
      <trkpt lat="44.08286" lon="1.71025">
        <ele>291.42</ele>
        <time>2021-08-17T18:37:10Z</time>
      </trkpt>
      <trkpt lat="44.08286" lon="1.71023">
        <ele>291.42</ele>
        <time>2021-08-17T18:37:11Z</time>
      </trkpt>
      <trkpt lat="44.08287" lon="1.71021">
        <ele>291.9</ele>
        <time>2021-08-17T18:37:12Z</time>
      </trkpt>
      <trkpt lat="44.08289" lon="1.71009">
        <ele>292.86</ele>
        <time>2021-08-17T18:37:18Z</time>
      </trkpt>
      <trkpt lat="44.08292" lon="1.70998">
        <ele>294.3</ele>
        <time>2021-08-17T18:37:24Z</time>
      </trkpt>
      <trkpt lat="44.08297" lon="1.70986">
        <ele>294.78</ele>
        <time>2021-08-17T18:37:30Z</time>
      </trkpt>
      <trkpt lat="44.08298" lon="1.70979">
        <ele>295.26</ele>
        <time>2021-08-17T18:37:33Z</time>
      </trkpt>
      <trkpt lat="44.08303" lon="1.70961">
        <ele>296.7</ele>
        <time>2021-08-17T18:37:43Z</time>
      </trkpt>
      <trkpt lat="44.08309" lon="1.70944">
        <ele>298.15</ele>
        <time>2021-08-17T18:37:53Z</time>
      </trkpt>
      <trkpt lat="44.08312" lon="1.70926">
        <ele>299.59</ele>
        <time>2021-08-17T18:38:02Z</time>
      </trkpt>
      <trkpt lat="44.08315" lon="1.70909">
        <ele>300.07</ele>
        <time>2021-08-17T18:38:10Z</time>
      </trkpt>
      <trkpt lat="44.08316" lon="1.70892">
        <ele>301.03</ele>
        <time>2021-08-17T18:38:17Z</time>
      </trkpt>
      <trkpt lat="44.08322" lon="1.7087">
        <ele>301.03</ele>
        <time>2021-08-17T18:38:25Z</time>
      </trkpt>
      <trkpt lat="44.0833" lon="1.70848">
        <ele>301.03</ele>
        <time>2021-08-17T18:38:31Z</time>
      </trkpt>
      <trkpt lat="44.08344" lon="1.70823">
        <ele>301.51</ele>
        <time>2021-08-17T18:38:38Z</time>
      </trkpt>
      <trkpt lat="44.08359" lon="1.70796">
        <ele>301.51</ele>
        <time>2021-08-17T18:38:45Z</time>
      </trkpt>
      <trkpt lat="44.08372" lon="1.70762">
        <ele>301.51</ele>
        <time>2021-08-17T18:38:52Z</time>
      </trkpt>
      <trkpt lat="44.08381" lon="1.70722">
        <ele>301.99</ele>
        <time>2021-08-17T18:38:59Z</time>
      </trkpt>
      <trkpt lat="44.0838" lon="1.7071">
        <ele>301.99</ele>
        <time>2021-08-17T18:39:01Z</time>
      </trkpt>
      <trkpt lat="44.08379" lon="1.70684">
        <ele>301.99</ele>
        <time>2021-08-17T18:39:05Z</time>
      </trkpt>
      <trkpt lat="44.08379" lon="1.70678">
        <ele>301.99</ele>
        <time>2021-08-17T18:39:06Z</time>
      </trkpt>
      <trkpt lat="44.08378" lon="1.70672">
        <ele>301.99</ele>
        <time>2021-08-17T18:39:07Z</time>
      </trkpt>
      <trkpt lat="44.08373" lon="1.70648">
        <ele>301.99</ele>
        <time>2021-08-17T18:39:11Z</time>
      </trkpt>
      <trkpt lat="44.08372" lon="1.70616">
        <ele>302.47</ele>
        <time>2021-08-17T18:39:17Z</time>
      </trkpt>
      <trkpt lat="44.08373" lon="1.70583">
        <ele>302.95</ele>
        <time>2021-08-17T18:39:23Z</time>
      </trkpt>
      <trkpt lat="44.08372" lon="1.70577">
        <ele>302.95</ele>
        <time>2021-08-17T18:39:24Z</time>
      </trkpt>
      <trkpt lat="44.08372" lon="1.70571">
        <ele>302.95</ele>
        <time>2021-08-17T18:39:25Z</time>
      </trkpt>
      <trkpt lat="44.08372" lon="1.70565">
        <ele>302.95</ele>
        <time>2021-08-17T18:39:26Z</time>
      </trkpt>
      <trkpt lat="44.08373" lon="1.70558">
        <ele>302.95</ele>
        <time>2021-08-17T18:39:27Z</time>
      </trkpt>
      <trkpt lat="44.08373" lon="1.70552">
        <ele>302.95</ele>
        <time>2021-08-17T18:39:28Z</time>
      </trkpt>
      <trkpt lat="44.08373" lon="1.70546">
        <ele>302.95</ele>
        <time>2021-08-17T18:39:29Z</time>
      </trkpt>
      <trkpt lat="44.08373" lon="1.70541">
        <ele>302.95</ele>
        <time>2021-08-17T18:39:30Z</time>
      </trkpt>
      <trkpt lat="44.08373" lon="1.70535">
        <ele>302.95</ele>
        <time>2021-08-17T18:39:31Z</time>
      </trkpt>
      <trkpt lat="44.08372" lon="1.70529">
        <ele>302.95</ele>
        <time>2021-08-17T18:39:32Z</time>
      </trkpt>
      <trkpt lat="44.08373" lon="1.70508">
        <ele>301.51</ele>
        <time>2021-08-17T18:39:35Z</time>
      </trkpt>
      <trkpt lat="44.08374" lon="1.70501">
        <ele>301.51</ele>
        <time>2021-08-17T18:39:36Z</time>
      </trkpt>
      <trkpt lat="44.08376" lon="1.70494">
        <ele>301.03</ele>
        <time>2021-08-17T18:39:37Z</time>
      </trkpt>
      <trkpt lat="44.08376" lon="1.70487">
        <ele>300.55</ele>
        <time>2021-08-17T18:39:38Z</time>
      </trkpt>
      <trkpt lat="44.08377" lon="1.70479">
        <ele>300.55</ele>
        <time>2021-08-17T18:39:39Z</time>
      </trkpt>
      <trkpt lat="44.08377" lon="1.70471">
        <ele>300.55</ele>
        <time>2021-08-17T18:39:40Z</time>
      </trkpt>
      <trkpt lat="44.08377" lon="1.70464">
        <ele>300.55</ele>
        <time>2021-08-17T18:39:41Z</time>
      </trkpt>
      <trkpt lat="44.08377" lon="1.70457">
        <ele>300.07</ele>
        <time>2021-08-17T18:39:42Z</time>
      </trkpt>
      <trkpt lat="44.08379" lon="1.70417">
        <ele>298.63</ele>
        <time>2021-08-17T18:39:47Z</time>
      </trkpt>
      <trkpt lat="44.08379" lon="1.70386">
        <ele>296.7</ele>
        <time>2021-08-17T18:39:51Z</time>
      </trkpt>
      <trkpt lat="44.08379" lon="1.70361">
        <ele>295.26</ele>
        <time>2021-08-17T18:39:54Z</time>
      </trkpt>
      <trkpt lat="44.08377" lon="1.70337">
        <ele>293.34</ele>
        <time>2021-08-17T18:39:57Z</time>
      </trkpt>
      <trkpt lat="44.08378" lon="1.70327">
        <ele>292.86</ele>
        <time>2021-08-17T18:39:58Z</time>
      </trkpt>
      <trkpt lat="44.08379" lon="1.70311">
        <ele>291.42</ele>
        <time>2021-08-17T18:40:00Z</time>
      </trkpt>
      <trkpt lat="44.08383" lon="1.70264">
        <ele>288.05</ele>
        <time>2021-08-17T18:40:05Z</time>
      </trkpt>
      <trkpt lat="44.08383" lon="1.70255">
        <ele>288.05</ele>
        <time>2021-08-17T18:40:06Z</time>
      </trkpt>
      <trkpt lat="44.08384" lon="1.70248">
        <ele>287.09</ele>
        <time>2021-08-17T18:40:07Z</time>
      </trkpt>
      <trkpt lat="44.08385" lon="1.70241">
        <ele>287.09</ele>
        <time>2021-08-17T18:40:08Z</time>
      </trkpt>
      <trkpt lat="44.08386" lon="1.70233">
        <ele>286.61</ele>
        <time>2021-08-17T18:40:09Z</time>
      </trkpt>
      <trkpt lat="44.08386" lon="1.70226">
        <ele>285.17</ele>
        <time>2021-08-17T18:40:10Z</time>
      </trkpt>
      <trkpt lat="44.08387" lon="1.70218">
        <ele>285.17</ele>
        <time>2021-08-17T18:40:11Z</time>
      </trkpt>
      <trkpt lat="44.08387" lon="1.70197">
        <ele>283.25</ele>
        <time>2021-08-17T18:40:14Z</time>
      </trkpt>
      <trkpt lat="44.08386" lon="1.70185">
        <ele>281.8</ele>
        <time>2021-08-17T18:40:16Z</time>
      </trkpt>
      <trkpt lat="44.08386" lon="1.70173">
        <ele>280.36</ele>
        <time>2021-08-17T18:40:18Z</time>
      </trkpt>
      <trkpt lat="44.08385" lon="1.70166">
        <ele>279.4</ele>
        <time>2021-08-17T18:40:19Z</time>
      </trkpt>
      <trkpt lat="44.08384" lon="1.70154">
        <ele>277.96</ele>
        <time>2021-08-17T18:40:21Z</time>
      </trkpt>
      <trkpt lat="44.08383" lon="1.70147">
        <ele>277.48</ele>
        <time>2021-08-17T18:40:22Z</time>
      </trkpt>
      <trkpt lat="44.08381" lon="1.70141">
        <ele>276.52</ele>
        <time>2021-08-17T18:40:23Z</time>
      </trkpt>
      <trkpt lat="44.08379" lon="1.70133">
        <ele>275.07</ele>
        <time>2021-08-17T18:40:24Z</time>
      </trkpt>
      <trkpt lat="44.08378" lon="1.70126">
        <ele>274.11</ele>
        <time>2021-08-17T18:40:25Z</time>
      </trkpt>
      <trkpt lat="44.08377" lon="1.70119">
        <ele>273.63</ele>
        <time>2021-08-17T18:40:26Z</time>
      </trkpt>
      <trkpt lat="44.08375" lon="1.70113">
        <ele>273.15</ele>
        <time>2021-08-17T18:40:27Z</time>
      </trkpt>
      <trkpt lat="44.08372" lon="1.70096">
        <ele>272.19</ele>
        <time>2021-08-17T18:40:30Z</time>
      </trkpt>
      <trkpt lat="44.08372" lon="1.7009">
        <ele>270.75</ele>
        <time>2021-08-17T18:40:31Z</time>
      </trkpt>
      <trkpt lat="44.08366" lon="1.70057">
        <ele>268.35</ele>
        <time>2021-08-17T18:40:37Z</time>
      </trkpt>
      <trkpt lat="44.08364" lon="1.70051">
        <ele>267.86</ele>
        <time>2021-08-17T18:40:38Z</time>
      </trkpt>
      <trkpt lat="44.08362" lon="1.70045">
        <ele>266.9</ele>
        <time>2021-08-17T18:40:39Z</time>
      </trkpt>
      <trkpt lat="44.08354" lon="1.7002">
        <ele>264.5</ele>
        <time>2021-08-17T18:40:43Z</time>
      </trkpt>
      <trkpt lat="44.08351" lon="1.70015">
        <ele>263.54</ele>
        <time>2021-08-17T18:40:44Z</time>
      </trkpt>
      <trkpt lat="44.08344" lon="1.70004">
        <ele>262.1</ele>
        <time>2021-08-17T18:40:46Z</time>
      </trkpt>
      <trkpt lat="44.08342" lon="1.69997">
        <ele>262.1</ele>
        <time>2021-08-17T18:40:47Z</time>
      </trkpt>
      <trkpt lat="44.08341" lon="1.69991">
        <ele>261.62</ele>
        <time>2021-08-17T18:40:48Z</time>
      </trkpt>
      <trkpt lat="44.0834" lon="1.69984">
        <ele>260.65</ele>
        <time>2021-08-17T18:40:49Z</time>
      </trkpt>
      <trkpt lat="44.08339" lon="1.69977">
        <ele>260.17</ele>
        <time>2021-08-17T18:40:50Z</time>
      </trkpt>
      <trkpt lat="44.08338" lon="1.6997">
        <ele>259.69</ele>
        <time>2021-08-17T18:40:51Z</time>
      </trkpt>
      <trkpt lat="44.08338" lon="1.69963">
        <ele>259.21</ele>
        <time>2021-08-17T18:40:52Z</time>
      </trkpt>
      <trkpt lat="44.08335" lon="1.69938">
        <ele>256.81</ele>
        <time>2021-08-17T18:40:57Z</time>
      </trkpt>
      <trkpt lat="44.08335" lon="1.69932">
        <ele>256.33</ele>
        <time>2021-08-17T18:40:58Z</time>
      </trkpt>
      <trkpt lat="44.08335" lon="1.69926">
        <ele>255.85</ele>
        <time>2021-08-17T18:40:59Z</time>
      </trkpt>
      <trkpt lat="44.08334" lon="1.6992">
        <ele>254.89</ele>
        <time>2021-08-17T18:41:00Z</time>
      </trkpt>
      <trkpt lat="44.08332" lon="1.69915">
        <ele>254.89</ele>
        <time>2021-08-17T18:41:01Z</time>
      </trkpt>
      <trkpt lat="44.08332" lon="1.69909">
        <ele>253.93</ele>
        <time>2021-08-17T18:41:02Z</time>
      </trkpt>
      <trkpt lat="44.08332" lon="1.69902">
        <ele>252.96</ele>
        <time>2021-08-17T18:41:03Z</time>
      </trkpt>
      <trkpt lat="44.08333" lon="1.69895">
        <ele>252.48</ele>
        <time>2021-08-17T18:41:04Z</time>
      </trkpt>
      <trkpt lat="44.08335" lon="1.69889">
        <ele>252</ele>
        <time>2021-08-17T18:41:05Z</time>
      </trkpt>
      <trkpt lat="44.08337" lon="1.69881">
        <ele>251.52</ele>
        <time>2021-08-17T18:41:06Z</time>
      </trkpt>
      <trkpt lat="44.08338" lon="1.69874">
        <ele>251.52</ele>
        <time>2021-08-17T18:41:07Z</time>
      </trkpt>
      <trkpt lat="44.08339" lon="1.69866">
        <ele>252</ele>
        <time>2021-08-17T18:41:08Z</time>
      </trkpt>
      <trkpt lat="44.08342" lon="1.69826">
        <ele>252.96</ele>
        <time>2021-08-17T18:41:14Z</time>
      </trkpt>
      <trkpt lat="44.08341" lon="1.69822">
        <ele>252.96</ele>
        <time>2021-08-17T18:41:15Z</time>
      </trkpt>
      <trkpt lat="44.08339" lon="1.69819">
        <ele>253.44</ele>
        <time>2021-08-17T18:41:16Z</time>
      </trkpt>
      <trkpt lat="44.08338" lon="1.69816">
        <ele>253.44</ele>
        <time>2021-08-17T18:41:17Z</time>
      </trkpt>
      <trkpt lat="44.08338" lon="1.69814">
        <ele>253.93</ele>
        <time>2021-08-17T18:41:18Z</time>
      </trkpt>
      <trkpt lat="44.08338" lon="1.69811">
        <ele>253.93</ele>
        <time>2021-08-17T18:41:19Z</time>
      </trkpt>
      <trkpt lat="44.08337" lon="1.69809">
        <ele>254.41</ele>
        <time>2021-08-17T18:41:20Z</time>
      </trkpt>
      <trkpt lat="44.08337" lon="1.69807">
        <ele>254.41</ele>
        <time>2021-08-17T18:41:21Z</time>
      </trkpt>
      <trkpt lat="44.08336" lon="1.69805">
        <ele>254.89</ele>
        <time>2021-08-17T18:41:22Z</time>
      </trkpt>
      <trkpt lat="44.08335" lon="1.69802">
        <ele>254.89</ele>
        <time>2021-08-17T18:41:23Z</time>
      </trkpt>
      <trkpt lat="44.08334" lon="1.698">
        <ele>255.37</ele>
        <time>2021-08-17T18:41:24Z</time>
      </trkpt>
      <trkpt lat="44.08334" lon="1.69783">
        <ele>255.85</ele>
        <time>2021-08-17T18:41:30Z</time>
      </trkpt>
      <trkpt lat="44.0834" lon="1.69757">
        <ele>257.29</ele>
        <time>2021-08-17T18:41:39Z</time>
      </trkpt>
      <trkpt lat="44.08346" lon="1.69731">
        <ele>258.25</ele>
        <time>2021-08-17T18:41:48Z</time>
      </trkpt>
      <trkpt lat="44.08362" lon="1.69699">
        <ele>259.69</ele>
        <time>2021-08-17T18:42:00Z</time>
      </trkpt>
      <trkpt lat="44.08376" lon="1.69675">
        <ele>260.65</ele>
        <time>2021-08-17T18:42:07Z</time>
      </trkpt>
      <trkpt lat="44.08393" lon="1.69634">
        <ele>261.14</ele>
        <time>2021-08-17T18:42:18Z</time>
      </trkpt>
      <trkpt lat="44.08407" lon="1.69603">
        <ele>261.62</ele>
        <time>2021-08-17T18:42:26Z</time>
      </trkpt>
      <trkpt lat="44.08421" lon="1.69584">
        <ele>263.06</ele>
        <time>2021-08-17T18:42:34Z</time>
      </trkpt>
      <trkpt lat="44.0843" lon="1.6957">
        <ele>264.02</ele>
        <time>2021-08-17T18:42:43Z</time>
      </trkpt>
      <trkpt lat="44.08443" lon="1.69556">
        <ele>265.94</ele>
        <time>2021-08-17T18:42:53Z</time>
      </trkpt>
      <trkpt lat="44.08453" lon="1.69543">
        <ele>267.38</ele>
        <time>2021-08-17T18:43:02Z</time>
      </trkpt>
      <trkpt lat="44.08454" lon="1.69533">
        <ele>268.35</ele>
        <time>2021-08-17T18:43:06Z</time>
      </trkpt>
      <trkpt lat="44.08453" lon="1.69531">
        <ele>268.35</ele>
        <time>2021-08-17T18:43:07Z</time>
      </trkpt>
      <trkpt lat="44.08452" lon="1.69528">
        <ele>268.35</ele>
        <time>2021-08-17T18:43:08Z</time>
      </trkpt>
      <trkpt lat="44.0844" lon="1.69509">
        <ele>268.35</ele>
        <time>2021-08-17T18:43:15Z</time>
      </trkpt>
      <trkpt lat="44.08422" lon="1.6948">
        <ele>269.31</ele>
        <time>2021-08-17T18:43:25Z</time>
      </trkpt>
      <trkpt lat="44.08412" lon="1.69451">
        <ele>271.23</ele>
        <time>2021-08-17T18:43:35Z</time>
      </trkpt>
      <trkpt lat="44.084" lon="1.69423">
        <ele>273.15</ele>
        <time>2021-08-17T18:43:45Z</time>
      </trkpt>
      <trkpt lat="44.08387" lon="1.69398">
        <ele>274.59</ele>
        <time>2021-08-17T18:43:54Z</time>
      </trkpt>
      <trkpt lat="44.08372" lon="1.69376">
        <ele>275.56</ele>
        <time>2021-08-17T18:44:03Z</time>
      </trkpt>
      <trkpt lat="44.08368" lon="1.69354">
        <ele>276.52</ele>
        <time>2021-08-17T18:44:10Z</time>
      </trkpt>
      <trkpt lat="44.08372" lon="1.69317">
        <ele>276.52</ele>
        <time>2021-08-17T18:44:19Z</time>
      </trkpt>
      <trkpt lat="44.08378" lon="1.69272">
        <ele>276.52</ele>
        <time>2021-08-17T18:44:28Z</time>
      </trkpt>
      <trkpt lat="44.08385" lon="1.69226">
        <ele>275.07</ele>
        <time>2021-08-17T18:44:36Z</time>
      </trkpt>
      <trkpt lat="44.08387" lon="1.69214">
        <ele>274.59</ele>
        <time>2021-08-17T18:44:38Z</time>
      </trkpt>
      <trkpt lat="44.08396" lon="1.69172">
        <ele>273.63</ele>
        <time>2021-08-17T18:44:44Z</time>
      </trkpt>
      <trkpt lat="44.08398" lon="1.69141">
        <ele>272.67</ele>
        <time>2021-08-17T18:44:48Z</time>
      </trkpt>
      <trkpt lat="44.08396" lon="1.69098">
        <ele>271.23</ele>
        <time>2021-08-17T18:44:53Z</time>
      </trkpt>
      <trkpt lat="44.08398" lon="1.6907">
        <ele>270.27</ele>
        <time>2021-08-17T18:44:56Z</time>
      </trkpt>
      <trkpt lat="44.08401" lon="1.69062">
        <ele>270.27</ele>
        <time>2021-08-17T18:44:57Z</time>
      </trkpt>
      <trkpt lat="44.08404" lon="1.69054">
        <ele>270.27</ele>
        <time>2021-08-17T18:44:58Z</time>
      </trkpt>
      <trkpt lat="44.08414" lon="1.69014">
        <ele>270.27</ele>
        <time>2021-08-17T18:45:04Z</time>
      </trkpt>
      <trkpt lat="44.08416" lon="1.69005">
        <ele>271.71</ele>
        <time>2021-08-17T18:45:06Z</time>
      </trkpt>
      <trkpt lat="44.08419" lon="1.68986">
        <ele>272.19</ele>
        <time>2021-08-17T18:45:10Z</time>
      </trkpt>
      <trkpt lat="44.08417" lon="1.68983">
        <ele>272.19</ele>
        <time>2021-08-17T18:45:11Z</time>
      </trkpt>
      <trkpt lat="44.08415" lon="1.68981">
        <ele>272.19</ele>
        <time>2021-08-17T18:45:12Z</time>
      </trkpt>
      <trkpt lat="44.08412" lon="1.6898">
        <ele>272.19</ele>
        <time>2021-08-17T18:45:13Z</time>
      </trkpt>
      <trkpt lat="44.08409" lon="1.68977">
        <ele>272.19</ele>
        <time>2021-08-17T18:45:14Z</time>
      </trkpt>
      <trkpt lat="44.08407" lon="1.68975">
        <ele>272.19</ele>
        <time>2021-08-17T18:45:15Z</time>
      </trkpt>
      <trkpt lat="44.08404" lon="1.68972">
        <ele>272.19</ele>
        <time>2021-08-17T18:45:16Z</time>
      </trkpt>
      <trkpt lat="44.08382" lon="1.68954">
        <ele>270.27</ele>
        <time>2021-08-17T18:45:23Z</time>
      </trkpt>
      <trkpt lat="44.08371" lon="1.68946">
        <ele>270.27</ele>
        <time>2021-08-17T18:45:26Z</time>
      </trkpt>
      <trkpt lat="44.08344" lon="1.68933">
        <ele>269.79</ele>
        <time>2021-08-17T18:45:33Z</time>
      </trkpt>
      <trkpt lat="44.0834" lon="1.6893">
        <ele>269.31</ele>
        <time>2021-08-17T18:45:34Z</time>
      </trkpt>
      <trkpt lat="44.08336" lon="1.68928">
        <ele>269.31</ele>
        <time>2021-08-17T18:45:35Z</time>
      </trkpt>
      <trkpt lat="44.08313" lon="1.68916">
        <ele>268.83</ele>
        <time>2021-08-17T18:45:41Z</time>
      </trkpt>
      <trkpt lat="44.08294" lon="1.68903">
        <ele>268.83</ele>
        <time>2021-08-17T18:45:46Z</time>
      </trkpt>
      <trkpt lat="44.08289" lon="1.68902">
        <ele>268.83</ele>
        <time>2021-08-17T18:45:47Z</time>
      </trkpt>
      <trkpt lat="44.0828" lon="1.68898">
        <ele>268.83</ele>
        <time>2021-08-17T18:45:49Z</time>
      </trkpt>
      <trkpt lat="44.08275" lon="1.68896">
        <ele>268.83</ele>
        <time>2021-08-17T18:45:50Z</time>
      </trkpt>
      <trkpt lat="44.08245" lon="1.68873">
        <ele>268.35</ele>
        <time>2021-08-17T18:45:57Z</time>
      </trkpt>
      <trkpt lat="44.08221" lon="1.68861">
        <ele>268.35</ele>
        <time>2021-08-17T18:46:02Z</time>
      </trkpt>
      <trkpt lat="44.08209" lon="1.68853">
        <ele>268.35</ele>
        <time>2021-08-17T18:46:05Z</time>
      </trkpt>
      <trkpt lat="44.08205" lon="1.6885">
        <ele>269.79</ele>
        <time>2021-08-17T18:46:06Z</time>
      </trkpt>
      <trkpt lat="44.08202" lon="1.68847">
        <ele>270.27</ele>
        <time>2021-08-17T18:46:07Z</time>
      </trkpt>
      <trkpt lat="44.08186" lon="1.68839">
        <ele>271.23</ele>
        <time>2021-08-17T18:46:12Z</time>
      </trkpt>
      <trkpt lat="44.08158" lon="1.68825">
        <ele>271.23</ele>
        <time>2021-08-17T18:46:20Z</time>
      </trkpt>
      <trkpt lat="44.08154" lon="1.68823">
        <ele>271.23</ele>
        <time>2021-08-17T18:46:21Z</time>
      </trkpt>
      <trkpt lat="44.08131" lon="1.68812">
        <ele>271.23</ele>
        <time>2021-08-17T18:46:26Z</time>
      </trkpt>
      <trkpt lat="44.08096" lon="1.68797">
        <ele>271.23</ele>
        <time>2021-08-17T18:46:34Z</time>
      </trkpt>
      <trkpt lat="44.0807" lon="1.68793">
        <ele>269.79</ele>
        <time>2021-08-17T18:46:41Z</time>
      </trkpt>
      <trkpt lat="44.08046" lon="1.68786">
        <ele>269.31</ele>
        <time>2021-08-17T18:46:47Z</time>
      </trkpt>
      <trkpt lat="44.08018" lon="1.68772">
        <ele>268.35</ele>
        <time>2021-08-17T18:46:54Z</time>
      </trkpt>
      <trkpt lat="44.0801" lon="1.68768">
        <ele>267.86</ele>
        <time>2021-08-17T18:46:56Z</time>
      </trkpt>
      <trkpt lat="44.07996" lon="1.68759">
        <ele>266.42</ele>
        <time>2021-08-17T18:46:59Z</time>
      </trkpt>
      <trkpt lat="44.07959" lon="1.68736">
        <ele>266.42</ele>
        <time>2021-08-17T18:47:07Z</time>
      </trkpt>
      <trkpt lat="44.07939" lon="1.68725">
        <ele>266.42</ele>
        <time>2021-08-17T18:47:11Z</time>
      </trkpt>
      <trkpt lat="44.07935" lon="1.68721">
        <ele>266.42</ele>
        <time>2021-08-17T18:47:12Z</time>
      </trkpt>
      <trkpt lat="44.07909" lon="1.68694">
        <ele>264.98</ele>
        <time>2021-08-17T18:47:18Z</time>
      </trkpt>
      <trkpt lat="44.07874" lon="1.68656">
        <ele>264.02</ele>
        <time>2021-08-17T18:47:26Z</time>
      </trkpt>
      <trkpt lat="44.07869" lon="1.68651">
        <ele>263.54</ele>
        <time>2021-08-17T18:47:27Z</time>
      </trkpt>
      <trkpt lat="44.07864" lon="1.68646">
        <ele>263.54</ele>
        <time>2021-08-17T18:47:28Z</time>
      </trkpt>
      <trkpt lat="44.0786" lon="1.68641">
        <ele>263.06</ele>
        <time>2021-08-17T18:47:29Z</time>
      </trkpt>
      <trkpt lat="44.07825" lon="1.68618">
        <ele>262.1</ele>
        <time>2021-08-17T18:47:36Z</time>
      </trkpt>
      <trkpt lat="44.07793" lon="1.68604">
        <ele>261.62</ele>
        <time>2021-08-17T18:47:42Z</time>
      </trkpt>
      <trkpt lat="44.07782" lon="1.68598">
        <ele>260.65</ele>
        <time>2021-08-17T18:47:44Z</time>
      </trkpt>
      <trkpt lat="44.07776" lon="1.68595">
        <ele>260.65</ele>
        <time>2021-08-17T18:47:45Z</time>
      </trkpt>
      <trkpt lat="44.07771" lon="1.68592">
        <ele>260.65</ele>
        <time>2021-08-17T18:47:46Z</time>
      </trkpt>
      <trkpt lat="44.07754" lon="1.68582">
        <ele>259.21</ele>
        <time>2021-08-17T18:47:49Z</time>
      </trkpt>
      <trkpt lat="44.07748" lon="1.68577">
        <ele>259.21</ele>
        <time>2021-08-17T18:47:50Z</time>
      </trkpt>
      <trkpt lat="44.07744" lon="1.68573">
        <ele>258.25</ele>
        <time>2021-08-17T18:47:51Z</time>
      </trkpt>
      <trkpt lat="44.07703" lon="1.68528">
        <ele>256.81</ele>
        <time>2021-08-17T18:48:00Z</time>
      </trkpt>
      <trkpt lat="44.07698" lon="1.68525">
        <ele>256.33</ele>
        <time>2021-08-17T18:48:01Z</time>
      </trkpt>
      <trkpt lat="44.07692" lon="1.68522">
        <ele>256.33</ele>
        <time>2021-08-17T18:48:02Z</time>
      </trkpt>
      <trkpt lat="44.07686" lon="1.68518">
        <ele>255.85</ele>
        <time>2021-08-17T18:48:03Z</time>
      </trkpt>
      <trkpt lat="44.0768" lon="1.68512">
        <ele>254.89</ele>
        <time>2021-08-17T18:48:04Z</time>
      </trkpt>
      <trkpt lat="44.07675" lon="1.68508">
        <ele>254.89</ele>
        <time>2021-08-17T18:48:05Z</time>
      </trkpt>
      <trkpt lat="44.07639" lon="1.68481">
        <ele>254.89</ele>
        <time>2021-08-17T18:48:12Z</time>
      </trkpt>
      <trkpt lat="44.07612" lon="1.68458">
        <ele>254.41</ele>
        <time>2021-08-17T18:48:18Z</time>
      </trkpt>
      <trkpt lat="44.07574" lon="1.68416">
        <ele>253.44</ele>
        <time>2021-08-17T18:48:26Z</time>
      </trkpt>
      <trkpt lat="44.07545" lon="1.6839">
        <ele>252</ele>
        <time>2021-08-17T18:48:31Z</time>
      </trkpt>
      <trkpt lat="44.07511" lon="1.68354">
        <ele>249.12</ele>
        <time>2021-08-17T18:48:37Z</time>
      </trkpt>
      <trkpt lat="44.07505" lon="1.68348">
        <ele>249.12</ele>
        <time>2021-08-17T18:48:38Z</time>
      </trkpt>
      <trkpt lat="44.07487" lon="1.68326">
        <ele>247.68</ele>
        <time>2021-08-17T18:48:41Z</time>
      </trkpt>
      <trkpt lat="44.07447" lon="1.68258">
        <ele>246.23</ele>
        <time>2021-08-17T18:48:49Z</time>
      </trkpt>
      <trkpt lat="44.07421" lon="1.68213">
        <ele>245.75</ele>
        <time>2021-08-17T18:48:55Z</time>
      </trkpt>
      <trkpt lat="44.07408" lon="1.68188">
        <ele>245.75</ele>
        <time>2021-08-17T18:48:59Z</time>
      </trkpt>
      <trkpt lat="44.07404" lon="1.68183">
        <ele>245.75</ele>
        <time>2021-08-17T18:49:00Z</time>
      </trkpt>
      <trkpt lat="44.07401" lon="1.68178">
        <ele>245.75</ele>
        <time>2021-08-17T18:49:01Z</time>
      </trkpt>
      <trkpt lat="44.07398" lon="1.68173">
        <ele>245.75</ele>
        <time>2021-08-17T18:49:02Z</time>
      </trkpt>
      <trkpt lat="44.07394" lon="1.68168">
        <ele>245.75</ele>
        <time>2021-08-17T18:49:03Z</time>
      </trkpt>
      <trkpt lat="44.07378" lon="1.68143">
        <ele>245.75</ele>
        <time>2021-08-17T18:49:08Z</time>
      </trkpt>
      <trkpt lat="44.07375" lon="1.68138">
        <ele>245.75</ele>
        <time>2021-08-17T18:49:09Z</time>
      </trkpt>
      <trkpt lat="44.07372" lon="1.68132">
        <ele>245.75</ele>
        <time>2021-08-17T18:49:10Z</time>
      </trkpt>
      <trkpt lat="44.0737" lon="1.68125">
        <ele>245.75</ele>
        <time>2021-08-17T18:49:11Z</time>
      </trkpt>
      <trkpt lat="44.07368" lon="1.68119">
        <ele>247.2</ele>
        <time>2021-08-17T18:49:12Z</time>
      </trkpt>
      <trkpt lat="44.07365" lon="1.68115">
        <ele>247.2</ele>
        <time>2021-08-17T18:49:13Z</time>
      </trkpt>
      <trkpt lat="44.07362" lon="1.68112">
        <ele>247.2</ele>
        <time>2021-08-17T18:49:14Z</time>
      </trkpt>
      <trkpt lat="44.07359" lon="1.6811">
        <ele>247.2</ele>
        <time>2021-08-17T18:49:15Z</time>
      </trkpt>
      <trkpt lat="44.07355" lon="1.68107">
        <ele>247.2</ele>
        <time>2021-08-17T18:49:16Z</time>
      </trkpt>
      <trkpt lat="44.07352" lon="1.68103">
        <ele>247.2</ele>
        <time>2021-08-17T18:49:17Z</time>
      </trkpt>
      <trkpt lat="44.07348" lon="1.68098">
        <ele>247.2</ele>
        <time>2021-08-17T18:49:18Z</time>
      </trkpt>
      <trkpt lat="44.07345" lon="1.68094">
        <ele>247.2</ele>
        <time>2021-08-17T18:49:19Z</time>
      </trkpt>
      <trkpt lat="44.07341" lon="1.6809">
        <ele>247.2</ele>
        <time>2021-08-17T18:49:20Z</time>
      </trkpt>
      <trkpt lat="44.07319" lon="1.68066">
        <ele>246.72</ele>
        <time>2021-08-17T18:49:26Z</time>
      </trkpt>
      <trkpt lat="44.07315" lon="1.68064">
        <ele>246.72</ele>
        <time>2021-08-17T18:49:27Z</time>
      </trkpt>
      <trkpt lat="44.07312" lon="1.68063">
        <ele>246.72</ele>
        <time>2021-08-17T18:49:28Z</time>
      </trkpt>
      <trkpt lat="44.07303" lon="1.68061">
        <ele>244.79</ele>
        <time>2021-08-17T18:49:30Z</time>
      </trkpt>
      <trkpt lat="44.07298" lon="1.68057">
        <ele>244.79</ele>
        <time>2021-08-17T18:49:31Z</time>
      </trkpt>
      <trkpt lat="44.07295" lon="1.68053">
        <ele>244.79</ele>
        <time>2021-08-17T18:49:32Z</time>
      </trkpt>
      <trkpt lat="44.07292" lon="1.68049">
        <ele>244.79</ele>
        <time>2021-08-17T18:49:33Z</time>
      </trkpt>
      <trkpt lat="44.07289" lon="1.68045">
        <ele>244.79</ele>
        <time>2021-08-17T18:49:34Z</time>
      </trkpt>
      <trkpt lat="44.07287" lon="1.68041">
        <ele>244.79</ele>
        <time>2021-08-17T18:49:35Z</time>
      </trkpt>
      <trkpt lat="44.07268" lon="1.68017">
        <ele>244.79</ele>
        <time>2021-08-17T18:49:41Z</time>
      </trkpt>
      <trkpt lat="44.07264" lon="1.68013">
        <ele>244.79</ele>
        <time>2021-08-17T18:49:42Z</time>
      </trkpt>
      <trkpt lat="44.07262" lon="1.68008">
        <ele>244.79</ele>
        <time>2021-08-17T18:49:43Z</time>
      </trkpt>
      <trkpt lat="44.07259" lon="1.68003">
        <ele>244.79</ele>
        <time>2021-08-17T18:49:44Z</time>
      </trkpt>
      <trkpt lat="44.07257" lon="1.67998">
        <ele>244.79</ele>
        <time>2021-08-17T18:49:45Z</time>
      </trkpt>
      <trkpt lat="44.07254" lon="1.67994">
        <ele>246.23</ele>
        <time>2021-08-17T18:49:46Z</time>
      </trkpt>
      <trkpt lat="44.07251" lon="1.6799">
        <ele>246.23</ele>
        <time>2021-08-17T18:49:47Z</time>
      </trkpt>
      <trkpt lat="44.07249" lon="1.67986">
        <ele>246.23</ele>
        <time>2021-08-17T18:49:48Z</time>
      </trkpt>
      <trkpt lat="44.07245" lon="1.67983">
        <ele>246.23</ele>
        <time>2021-08-17T18:49:49Z</time>
      </trkpt>
      <trkpt lat="44.07242" lon="1.67979">
        <ele>246.23</ele>
        <time>2021-08-17T18:49:50Z</time>
      </trkpt>
      <trkpt lat="44.07239" lon="1.67977">
        <ele>246.23</ele>
        <time>2021-08-17T18:49:51Z</time>
      </trkpt>
      <trkpt lat="44.07236" lon="1.67974">
        <ele>246.23</ele>
        <time>2021-08-17T18:49:52Z</time>
      </trkpt>
      <trkpt lat="44.07232" lon="1.67971">
        <ele>246.23</ele>
        <time>2021-08-17T18:49:53Z</time>
      </trkpt>
      <trkpt lat="44.07228" lon="1.67968">
        <ele>244.79</ele>
        <time>2021-08-17T18:49:54Z</time>
      </trkpt>
      <trkpt lat="44.07224" lon="1.67965">
        <ele>244.31</ele>
        <time>2021-08-17T18:49:55Z</time>
      </trkpt>
      <trkpt lat="44.0722" lon="1.6796">
        <ele>244.31</ele>
        <time>2021-08-17T18:49:56Z</time>
      </trkpt>
      <trkpt lat="44.07217" lon="1.67956">
        <ele>244.31</ele>
        <time>2021-08-17T18:49:57Z</time>
      </trkpt>
      <trkpt lat="44.07194" lon="1.67927">
        <ele>244.31</ele>
        <time>2021-08-17T18:50:04Z</time>
      </trkpt>
      <trkpt lat="44.07165" lon="1.67909">
        <ele>243.35</ele>
        <time>2021-08-17T18:50:10Z</time>
      </trkpt>
      <trkpt lat="44.07143" lon="1.67893">
        <ele>242.39</ele>
        <time>2021-08-17T18:50:14Z</time>
      </trkpt>
      <trkpt lat="44.07139" lon="1.67888">
        <ele>242.39</ele>
        <time>2021-08-17T18:50:15Z</time>
      </trkpt>
      <trkpt lat="44.07138" lon="1.67881">
        <ele>242.39</ele>
        <time>2021-08-17T18:50:16Z</time>
      </trkpt>
      <trkpt lat="44.07138" lon="1.67877">
        <ele>242.39</ele>
        <time>2021-08-17T18:50:17Z</time>
      </trkpt>
      <trkpt lat="44.07139" lon="1.67874">
        <ele>243.83</ele>
        <time>2021-08-17T18:50:18Z</time>
      </trkpt>
      <trkpt lat="44.07139" lon="1.67871">
        <ele>243.83</ele>
        <time>2021-08-17T18:50:19Z</time>
      </trkpt>
      <trkpt lat="44.07139" lon="1.67867">
        <ele>243.83</ele>
        <time>2021-08-17T18:50:20Z</time>
      </trkpt>
      <trkpt lat="44.07139" lon="1.67863">
        <ele>243.83</ele>
        <time>2021-08-17T18:50:21Z</time>
      </trkpt>
      <trkpt lat="44.07137" lon="1.67859">
        <ele>243.83</ele>
        <time>2021-08-17T18:50:22Z</time>
      </trkpt>
      <trkpt lat="44.07135" lon="1.67854">
        <ele>243.83</ele>
        <time>2021-08-17T18:50:23Z</time>
      </trkpt>
      <trkpt lat="44.07129" lon="1.67845">
        <ele>243.83</ele>
        <time>2021-08-17T18:50:25Z</time>
      </trkpt>
      <trkpt lat="44.07126" lon="1.67841">
        <ele>243.83</ele>
        <time>2021-08-17T18:50:26Z</time>
      </trkpt>
      <trkpt lat="44.07118" lon="1.67833">
        <ele>243.83</ele>
        <time>2021-08-17T18:50:28Z</time>
      </trkpt>
      <trkpt lat="44.07108" lon="1.67821">
        <ele>242.39</ele>
        <time>2021-08-17T18:50:31Z</time>
      </trkpt>
      <trkpt lat="44.07105" lon="1.67816">
        <ele>242.39</ele>
        <time>2021-08-17T18:50:32Z</time>
      </trkpt>
      <trkpt lat="44.071" lon="1.67807">
        <ele>242.39</ele>
        <time>2021-08-17T18:50:34Z</time>
      </trkpt>
      <trkpt lat="44.07091" lon="1.6779">
        <ele>241.91</ele>
        <time>2021-08-17T18:50:37Z</time>
      </trkpt>
      <trkpt lat="44.07088" lon="1.67785">
        <ele>240.95</ele>
        <time>2021-08-17T18:50:38Z</time>
      </trkpt>
      <trkpt lat="44.0708" lon="1.67775">
        <ele>240.47</ele>
        <time>2021-08-17T18:50:40Z</time>
      </trkpt>
      <trkpt lat="44.07076" lon="1.67768">
        <ele>239.51</ele>
        <time>2021-08-17T18:50:41Z</time>
      </trkpt>
      <trkpt lat="44.07074" lon="1.6776">
        <ele>239.51</ele>
        <time>2021-08-17T18:50:42Z</time>
      </trkpt>
      <trkpt lat="44.07057" lon="1.67707">
        <ele>238.06</ele>
        <time>2021-08-17T18:50:49Z</time>
      </trkpt>
      <trkpt lat="44.07048" lon="1.67683">
        <ele>236.62</ele>
        <time>2021-08-17T18:50:52Z</time>
      </trkpt>
      <trkpt lat="44.07045" lon="1.67674">
        <ele>236.14</ele>
        <time>2021-08-17T18:50:53Z</time>
      </trkpt>
      <trkpt lat="44.07033" lon="1.67639">
        <ele>233.74</ele>
        <time>2021-08-17T18:50:57Z</time>
      </trkpt>
      <trkpt lat="44.0703" lon="1.67629">
        <ele>233.26</ele>
        <time>2021-08-17T18:50:58Z</time>
      </trkpt>
      <trkpt lat="44.07018" lon="1.67589">
        <ele>231.81</ele>
        <time>2021-08-17T18:51:02Z</time>
      </trkpt>
      <trkpt lat="44.07016" lon="1.67579">
        <ele>231.33</ele>
        <time>2021-08-17T18:51:03Z</time>
      </trkpt>
      <trkpt lat="44.07013" lon="1.6757">
        <ele>231.33</ele>
        <time>2021-08-17T18:51:04Z</time>
      </trkpt>
      <trkpt lat="44.07006" lon="1.67553">
        <ele>230.85</ele>
        <time>2021-08-17T18:51:06Z</time>
      </trkpt>
      <trkpt lat="44.06982" lon="1.675">
        <ele>227.49</ele>
        <time>2021-08-17T18:51:12Z</time>
      </trkpt>
      <trkpt lat="44.06979" lon="1.67492">
        <ele>227.49</ele>
        <time>2021-08-17T18:51:13Z</time>
      </trkpt>
      <trkpt lat="44.06976" lon="1.67484">
        <ele>227.49</ele>
        <time>2021-08-17T18:51:14Z</time>
      </trkpt>
      <trkpt lat="44.06966" lon="1.67464">
        <ele>226.05</ele>
        <time>2021-08-17T18:51:17Z</time>
      </trkpt>
      <trkpt lat="44.06962" lon="1.67458">
        <ele>225.09</ele>
        <time>2021-08-17T18:51:18Z</time>
      </trkpt>
      <trkpt lat="44.06951" lon="1.67444">
        <ele>224.12</ele>
        <time>2021-08-17T18:51:22Z</time>
      </trkpt>
      <trkpt lat="44.06945" lon="1.67431">
        <ele>221.72</ele>
        <time>2021-08-17T18:51:25Z</time>
      </trkpt>
      <trkpt lat="44.06944" lon="1.67425">
        <ele>221.24</ele>
        <time>2021-08-17T18:51:26Z</time>
      </trkpt>
      <trkpt lat="44.06944" lon="1.67419">
        <ele>221.24</ele>
        <time>2021-08-17T18:51:27Z</time>
      </trkpt>
      <trkpt lat="44.06943" lon="1.67414">
        <ele>221.24</ele>
        <time>2021-08-17T18:51:28Z</time>
      </trkpt>
      <trkpt lat="44.06941" lon="1.67408">
        <ele>221.24</ele>
        <time>2021-08-17T18:51:29Z</time>
      </trkpt>
      <trkpt lat="44.06939" lon="1.67403">
        <ele>220.76</ele>
        <time>2021-08-17T18:51:30Z</time>
      </trkpt>
      <trkpt lat="44.06925" lon="1.67365">
        <ele>220.76</ele>
        <time>2021-08-17T18:51:37Z</time>
      </trkpt>
      <trkpt lat="44.06921" lon="1.67354">
        <ele>222.2</ele>
        <time>2021-08-17T18:51:40Z</time>
      </trkpt>
      <trkpt lat="44.06907" lon="1.67325">
        <ele>223.16</ele>
        <time>2021-08-17T18:51:48Z</time>
      </trkpt>
      <trkpt lat="44.0689" lon="1.67288">
        <ele>221.72</ele>
        <time>2021-08-17T18:51:55Z</time>
      </trkpt>
      <trkpt lat="44.06879" lon="1.67267">
        <ele>221.72</ele>
        <time>2021-08-17T18:51:59Z</time>
      </trkpt>
      <trkpt lat="44.06864" lon="1.67251">
        <ele>221.72</ele>
        <time>2021-08-17T18:52:04Z</time>
      </trkpt>
      <trkpt lat="44.06857" lon="1.67246">
        <ele>221.24</ele>
        <time>2021-08-17T18:52:06Z</time>
      </trkpt>
      <trkpt lat="44.06832" lon="1.67219">
        <ele>220.76</ele>
        <time>2021-08-17T18:52:12Z</time>
      </trkpt>
      <trkpt lat="44.06792" lon="1.67183">
        <ele>217.88</ele>
        <time>2021-08-17T18:52:21Z</time>
      </trkpt>
      <trkpt lat="44.06785" lon="1.67179">
        <ele>217.4</ele>
        <time>2021-08-17T18:52:22Z</time>
      </trkpt>
      <trkpt lat="44.0678" lon="1.67175">
        <ele>216.43</ele>
        <time>2021-08-17T18:52:23Z</time>
      </trkpt>
      <trkpt lat="44.06773" lon="1.67171">
        <ele>215.95</ele>
        <time>2021-08-17T18:52:24Z</time>
      </trkpt>
      <trkpt lat="44.06766" lon="1.67168">
        <ele>215.47</ele>
        <time>2021-08-17T18:52:25Z</time>
      </trkpt>
      <trkpt lat="44.0676" lon="1.67165">
        <ele>215.47</ele>
        <time>2021-08-17T18:52:26Z</time>
      </trkpt>
      <trkpt lat="44.06719" lon="1.67149">
        <ele>213.55</ele>
        <time>2021-08-17T18:52:33Z</time>
      </trkpt>
      <trkpt lat="44.06715" lon="1.67148">
        <ele>212.59</ele>
        <time>2021-08-17T18:52:34Z</time>
      </trkpt>
      <trkpt lat="44.06696" lon="1.67128">
        <ele>212.59</ele>
        <time>2021-08-17T18:52:40Z</time>
      </trkpt>
      <trkpt lat="44.06688" lon="1.67117">
        <ele>210.67</ele>
        <time>2021-08-17T18:52:43Z</time>
      </trkpt>
      <trkpt lat="44.06685" lon="1.67114">
        <ele>210.67</ele>
        <time>2021-08-17T18:52:44Z</time>
      </trkpt>
      <trkpt lat="44.0668" lon="1.67111">
        <ele>210.67</ele>
        <time>2021-08-17T18:52:45Z</time>
      </trkpt>
      <trkpt lat="44.06676" lon="1.67109">
        <ele>209.7</ele>
        <time>2021-08-17T18:52:46Z</time>
      </trkpt>
      <trkpt lat="44.06673" lon="1.67106">
        <ele>209.7</ele>
        <time>2021-08-17T18:52:47Z</time>
      </trkpt>
      <trkpt lat="44.0666" lon="1.67101">
        <ele>207.78</ele>
        <time>2021-08-17T18:52:50Z</time>
      </trkpt>
      <trkpt lat="44.0664" lon="1.67092">
        <ele>204.42</ele>
        <time>2021-08-17T18:52:55Z</time>
      </trkpt>
      <trkpt lat="44.06623" lon="1.67084">
        <ele>200.57</ele>
        <time>2021-08-17T18:52:59Z</time>
      </trkpt>
      <trkpt lat="44.06619" lon="1.67081">
        <ele>200.09</ele>
        <time>2021-08-17T18:53:00Z</time>
      </trkpt>
      <trkpt lat="44.06616" lon="1.67076">
        <ele>199.13</ele>
        <time>2021-08-17T18:53:01Z</time>
      </trkpt>
      <trkpt lat="44.06606" lon="1.67062">
        <ele>196.73</ele>
        <time>2021-08-17T18:53:04Z</time>
      </trkpt>
      <trkpt lat="44.06592" lon="1.67048">
        <ele>193.36</ele>
        <time>2021-08-17T18:53:07Z</time>
      </trkpt>
      <trkpt lat="44.06569" lon="1.67024">
        <ele>190</ele>
        <time>2021-08-17T18:53:11Z</time>
      </trkpt>
      <trkpt lat="44.0656" lon="1.67013">
        <ele>189.04</ele>
        <time>2021-08-17T18:53:13Z</time>
      </trkpt>
      <trkpt lat="44.06555" lon="1.67009">
        <ele>188.08</ele>
        <time>2021-08-17T18:53:14Z</time>
      </trkpt>
      <trkpt lat="44.06545" lon="1.67003">
        <ele>187.59</ele>
        <time>2021-08-17T18:53:16Z</time>
      </trkpt>
      <trkpt lat="44.06525" lon="1.66991">
        <ele>184.71</ele>
        <time>2021-08-17T18:53:22Z</time>
      </trkpt>
      <trkpt lat="44.06502" lon="1.66983">
        <ele>181.35</ele>
        <time>2021-08-17T18:53:28Z</time>
      </trkpt>
      <trkpt lat="44.06495" lon="1.66981">
        <ele>180.87</ele>
        <time>2021-08-17T18:53:30Z</time>
      </trkpt>
      <trkpt lat="44.06477" lon="1.66976">
        <ele>177.98</ele>
        <time>2021-08-17T18:53:35Z</time>
      </trkpt>
      <trkpt lat="44.06468" lon="1.66969">
        <ele>175.58</ele>
        <time>2021-08-17T18:53:39Z</time>
      </trkpt>
      <trkpt lat="44.06465" lon="1.66968">
        <ele>175.58</ele>
        <time>2021-08-17T18:53:40Z</time>
      </trkpt>
      <trkpt lat="44.06445" lon="1.66959">
        <ele>172.21</ele>
        <time>2021-08-17T18:53:47Z</time>
      </trkpt>
      <trkpt lat="44.0644" lon="1.66959">
        <ele>171.73</ele>
        <time>2021-08-17T18:53:48Z</time>
      </trkpt>
      <trkpt lat="44.06404" lon="1.66965">
        <ele>170.29</ele>
        <time>2021-08-17T18:53:55Z</time>
      </trkpt>
      <trkpt lat="44.06382" lon="1.66971">
        <ele>166.93</ele>
        <time>2021-08-17T18:53:59Z</time>
      </trkpt>
      <trkpt lat="44.06348" lon="1.66983">
        <ele>163.08</ele>
        <time>2021-08-17T18:54:04Z</time>
      </trkpt>
      <trkpt lat="44.06341" lon="1.66985">
        <ele>162.6</ele>
        <time>2021-08-17T18:54:05Z</time>
      </trkpt>
      <trkpt lat="44.06335" lon="1.66987">
        <ele>162.12</ele>
        <time>2021-08-17T18:54:06Z</time>
      </trkpt>
      <trkpt lat="44.06329" lon="1.66989">
        <ele>162.12</ele>
        <time>2021-08-17T18:54:07Z</time>
      </trkpt>
      <trkpt lat="44.0632" lon="1.6699">
        <ele>161.64</ele>
        <time>2021-08-17T18:54:09Z</time>
      </trkpt>
      <trkpt lat="44.06316" lon="1.66989">
        <ele>161.16</ele>
        <time>2021-08-17T18:54:10Z</time>
      </trkpt>
      <trkpt lat="44.06312" lon="1.66985">
        <ele>160.68</ele>
        <time>2021-08-17T18:54:11Z</time>
      </trkpt>
      <trkpt lat="44.06308" lon="1.66982">
        <ele>160.2</ele>
        <time>2021-08-17T18:54:12Z</time>
      </trkpt>
      <trkpt lat="44.06303" lon="1.6698">
        <ele>159.72</ele>
        <time>2021-08-17T18:54:13Z</time>
      </trkpt>
      <trkpt lat="44.06298" lon="1.66979">
        <ele>159.72</ele>
        <time>2021-08-17T18:54:14Z</time>
      </trkpt>
      <trkpt lat="44.06292" lon="1.66978">
        <ele>159.24</ele>
        <time>2021-08-17T18:54:15Z</time>
      </trkpt>
      <trkpt lat="44.06261" lon="1.66976">
        <ele>159.72</ele>
        <time>2021-08-17T18:54:22Z</time>
      </trkpt>
      <trkpt lat="44.06251" lon="1.66971">
        <ele>160.68</ele>
        <time>2021-08-17T18:54:25Z</time>
      </trkpt>
      <trkpt lat="44.06244" lon="1.66966">
        <ele>162.12</ele>
        <time>2021-08-17T18:54:31Z</time>
      </trkpt>
      <trkpt lat="44.06239" lon="1.66961">
        <ele>163.08</ele>
        <time>2021-08-17T18:54:39Z</time>
      </trkpt>
      <trkpt lat="44.06234" lon="1.66955">
        <ele>164.04</ele>
        <time>2021-08-17T18:54:46Z</time>
      </trkpt>
      <trkpt lat="44.06225" lon="1.66947">
        <ele>165.48</ele>
        <time>2021-08-17T18:54:56Z</time>
      </trkpt>
      <trkpt lat="44.06221" lon="1.66945">
        <ele>165.96</ele>
        <time>2021-08-17T18:55:03Z</time>
      </trkpt>
      <trkpt lat="44.06217" lon="1.66942">
        <ele>165.96</ele>
        <time>2021-08-17T18:55:15Z</time>
      </trkpt>
      <trkpt lat="44.06204" lon="1.66936">
        <ele>166.93</ele>
        <time>2021-08-17T18:55:22Z</time>
      </trkpt>
      <trkpt lat="44.06186" lon="1.66932">
        <ele>167.89</ele>
        <time>2021-08-17T18:55:30Z</time>
      </trkpt>
      <trkpt lat="44.06173" lon="1.66933">
        <ele>169.33</ele>
        <time>2021-08-17T18:55:38Z</time>
      </trkpt>
      <trkpt lat="44.06161" lon="1.66937">
        <ele>170.29</ele>
        <time>2021-08-17T18:55:45Z</time>
      </trkpt>
      <trkpt lat="44.06146" lon="1.66943">
        <ele>170.77</ele>
        <time>2021-08-17T18:55:53Z</time>
      </trkpt>
      <trkpt lat="44.06143" lon="1.66945">
        <ele>170.77</ele>
        <time>2021-08-17T18:55:55Z</time>
      </trkpt>
      <trkpt lat="44.06141" lon="1.66946">
        <ele>171.25</ele>
        <time>2021-08-17T18:55:56Z</time>
      </trkpt>
      <trkpt lat="44.06139" lon="1.66947">
        <ele>171.25</ele>
        <time>2021-08-17T18:55:57Z</time>
      </trkpt>
      <trkpt lat="44.06136" lon="1.66948">
        <ele>171.25</ele>
        <time>2021-08-17T18:55:58Z</time>
      </trkpt>
      <trkpt lat="44.06134" lon="1.6695">
        <ele>171.25</ele>
        <time>2021-08-17T18:55:59Z</time>
      </trkpt>
      <trkpt lat="44.06131" lon="1.66951">
        <ele>171.25</ele>
        <time>2021-08-17T18:56:00Z</time>
      </trkpt>
      <trkpt lat="44.06129" lon="1.66952">
        <ele>171.25</ele>
        <time>2021-08-17T18:56:01Z</time>
      </trkpt>
      <trkpt lat="44.06126" lon="1.66953">
        <ele>169.81</ele>
        <time>2021-08-17T18:56:02Z</time>
      </trkpt>
      <trkpt lat="44.06123" lon="1.66953">
        <ele>169.81</ele>
        <time>2021-08-17T18:56:03Z</time>
      </trkpt>
      <trkpt lat="44.06113" lon="1.66954">
        <ele>168.37</ele>
        <time>2021-08-17T18:56:06Z</time>
      </trkpt>
      <trkpt lat="44.06087" lon="1.66945">
        <ele>167.41</ele>
        <time>2021-08-17T18:56:13Z</time>
      </trkpt>
      <trkpt lat="44.06077" lon="1.66928">
        <ele>166.45</ele>
        <time>2021-08-17T18:56:19Z</time>
      </trkpt>
      <trkpt lat="44.06069" lon="1.66918">
        <ele>163.08</ele>
        <time>2021-08-17T18:56:24Z</time>
      </trkpt>
      <trkpt lat="44.06066" lon="1.66917">
        <ele>163.08</ele>
        <time>2021-08-17T18:56:25Z</time>
      </trkpt>
      <trkpt lat="44.06064" lon="1.66917">
        <ele>162.6</ele>
        <time>2021-08-17T18:56:26Z</time>
      </trkpt>
      <trkpt lat="44.06047" lon="1.66919">
        <ele>160.68</ele>
        <time>2021-08-17T18:56:32Z</time>
      </trkpt>
      <trkpt lat="44.06035" lon="1.66922">
        <ele>158.75</ele>
        <time>2021-08-17T18:56:38Z</time>
      </trkpt>
      <trkpt lat="44.06028" lon="1.66923">
        <ele>157.79</ele>
        <time>2021-08-17T18:56:43Z</time>
      </trkpt>
      <trkpt lat="44.06016" lon="1.66926">
        <ele>155.87</ele>
        <time>2021-08-17T18:56:49Z</time>
      </trkpt>
      <trkpt lat="44.06001" lon="1.66927">
        <ele>153.47</ele>
        <time>2021-08-17T18:56:55Z</time>
      </trkpt>
      <trkpt lat="44.05987" lon="1.66931">
        <ele>151.06</ele>
        <time>2021-08-17T18:57:01Z</time>
      </trkpt>
      <trkpt lat="44.05984" lon="1.66932">
        <ele>151.06</ele>
        <time>2021-08-17T18:57:02Z</time>
      </trkpt>
      <trkpt lat="44.05976" lon="1.66939">
        <ele>149.62</ele>
        <time>2021-08-17T18:57:05Z</time>
      </trkpt>
      <trkpt lat="44.05964" lon="1.66944">
        <ele>147.7</ele>
        <time>2021-08-17T18:57:11Z</time>
      </trkpt>
      <trkpt lat="44.05953" lon="1.66944">
        <ele>145.78</ele>
        <time>2021-08-17T18:57:18Z</time>
      </trkpt>
      <trkpt lat="44.05944" lon="1.66938">
        <ele>141.93</ele>
        <time>2021-08-17T18:57:23Z</time>
      </trkpt>
      <trkpt lat="44.05939" lon="1.66937">
        <ele>141.45</ele>
        <time>2021-08-17T18:57:25Z</time>
      </trkpt>
      <trkpt lat="44.05926" lon="1.66933">
        <ele>138.09</ele>
        <time>2021-08-17T18:57:31Z</time>
      </trkpt>
      <trkpt lat="44.05911" lon="1.66928">
        <ele>135.2</ele>
        <time>2021-08-17T18:57:36Z</time>
      </trkpt>
      <trkpt lat="44.05887" lon="1.66924">
        <ele>131.36</ele>
        <time>2021-08-17T18:57:42Z</time>
      </trkpt>
      <trkpt lat="44.05868" lon="1.66919">
        <ele>128.95</ele>
        <time>2021-08-17T18:57:47Z</time>
      </trkpt>
      <trkpt lat="44.05843" lon="1.66913">
        <ele>126.07</ele>
        <time>2021-08-17T18:57:52Z</time>
      </trkpt>
      <trkpt lat="44.0582" lon="1.66912">
        <ele>123.67</ele>
        <time>2021-08-17T18:57:57Z</time>
      </trkpt>
      <trkpt lat="44.05796" lon="1.66913">
        <ele>121.74</ele>
        <time>2021-08-17T18:58:02Z</time>
      </trkpt>
      <trkpt lat="44.05793" lon="1.66912">
        <ele>121.74</ele>
        <time>2021-08-17T18:58:03Z</time>
      </trkpt>
      <trkpt lat="44.05775" lon="1.66909">
        <ele>118.38</ele>
        <time>2021-08-17T18:58:09Z</time>
      </trkpt>
      <trkpt lat="44.05766" lon="1.66907">
        <ele>116.94</ele>
        <time>2021-08-17T18:58:12Z</time>
      </trkpt>
      <trkpt lat="44.05756" lon="1.66905">
        <ele>115.5</ele>
        <time>2021-08-17T18:58:16Z</time>
      </trkpt>
      <trkpt lat="44.05755" lon="1.66906">
        <ele>115.5</ele>
        <time>2021-08-17T18:58:17Z</time>
      </trkpt>
      <trkpt lat="44.05755" lon="1.66908">
        <ele>115.5</ele>
        <time>2021-08-17T18:58:18Z</time>
      </trkpt>
      <trkpt lat="44.05754" lon="1.6691">
        <ele>115.5</ele>
        <time>2021-08-17T18:58:19Z</time>
      </trkpt>
      <trkpt lat="44.05753" lon="1.66912">
        <ele>115.5</ele>
        <time>2021-08-17T18:58:20Z</time>
      </trkpt>
      <trkpt lat="44.05752" lon="1.66915">
        <ele>115.5</ele>
        <time>2021-08-17T18:58:21Z</time>
      </trkpt>
      <trkpt lat="44.05751" lon="1.66917">
        <ele>115.5</ele>
        <time>2021-08-17T18:58:22Z</time>
      </trkpt>
      <trkpt lat="44.05749" lon="1.6692">
        <ele>114.53</ele>
        <time>2021-08-17T18:58:23Z</time>
      </trkpt>
      <trkpt lat="44.05747" lon="1.66923">
        <ele>115.01</ele>
        <time>2021-08-17T18:58:24Z</time>
      </trkpt>
      <trkpt lat="44.05728" lon="1.66947">
        <ele>112.61</ele>
        <time>2021-08-17T18:58:30Z</time>
      </trkpt>
      <trkpt lat="44.05723" lon="1.66951">
        <ele>112.61</ele>
        <time>2021-08-17T18:58:31Z</time>
      </trkpt>
      <trkpt lat="44.05718" lon="1.66953">
        <ele>112.13</ele>
        <time>2021-08-17T18:58:32Z</time>
      </trkpt>
      <trkpt lat="44.05706" lon="1.66957">
        <ele>112.13</ele>
        <time>2021-08-17T18:58:34Z</time>
      </trkpt>
      <trkpt lat="44.057" lon="1.66958">
        <ele>111.65</ele>
        <time>2021-08-17T18:58:35Z</time>
      </trkpt>
      <trkpt lat="44.05694" lon="1.66958">
        <ele>111.65</ele>
        <time>2021-08-17T18:58:36Z</time>
      </trkpt>
      <trkpt lat="44.05664" lon="1.6696">
        <ele>111.65</ele>
        <time>2021-08-17T18:58:43Z</time>
      </trkpt>
      <trkpt lat="44.0565" lon="1.66959">
        <ele>112.61</ele>
        <time>2021-08-17T18:58:47Z</time>
      </trkpt>
      <trkpt lat="44.05635" lon="1.66954">
        <ele>113.09</ele>
        <time>2021-08-17T18:58:54Z</time>
      </trkpt>
      <trkpt lat="44.05635" lon="1.66955">
        <ele>113.09</ele>
        <time>2021-08-17T18:59:04Z</time>
      </trkpt>
      <trkpt lat="44.05633" lon="1.66955">
        <ele>113.09</ele>
        <time>2021-08-17T18:59:12Z</time>
      </trkpt>
      <trkpt lat="44.05633" lon="1.66956">
        <ele>113.09</ele>
        <time>2021-08-17T18:59:13Z</time>
      </trkpt>
      <trkpt lat="44.05632" lon="1.66958">
        <ele>113.09</ele>
        <time>2021-08-17T18:59:14Z</time>
      </trkpt>
      <trkpt lat="44.05629" lon="1.66981">
        <ele>113.09</ele>
        <time>2021-08-17T18:59:21Z</time>
      </trkpt>
      <trkpt lat="44.05632" lon="1.67031">
        <ele>112.61</ele>
        <time>2021-08-17T18:59:32Z</time>
      </trkpt>
      <trkpt lat="44.05628" lon="1.67057">
        <ele>112.61</ele>
        <time>2021-08-17T18:59:37Z</time>
      </trkpt>
      <trkpt lat="44.05626" lon="1.67062">
        <ele>112.61</ele>
        <time>2021-08-17T18:59:38Z</time>
      </trkpt>
      <trkpt lat="44.05623" lon="1.67066">
        <ele>112.61</ele>
        <time>2021-08-17T18:59:39Z</time>
      </trkpt>
      <trkpt lat="44.0562" lon="1.6707">
        <ele>112.61</ele>
        <time>2021-08-17T18:59:40Z</time>
      </trkpt>
      <trkpt lat="44.05616" lon="1.67074">
        <ele>112.61</ele>
        <time>2021-08-17T18:59:41Z</time>
      </trkpt>
      <trkpt lat="44.05612" lon="1.67077">
        <ele>112.61</ele>
        <time>2021-08-17T18:59:42Z</time>
      </trkpt>
      <trkpt lat="44.05608" lon="1.67079">
        <ele>112.61</ele>
        <time>2021-08-17T18:59:43Z</time>
      </trkpt>
      <trkpt lat="44.05588" lon="1.67094">
        <ele>111.65</ele>
        <time>2021-08-17T18:59:47Z</time>
      </trkpt>
      <trkpt lat="44.0554" lon="1.67125">
        <ele>110.21</ele>
        <time>2021-08-17T18:59:56Z</time>
      </trkpt>
      <trkpt lat="44.05493" lon="1.6716">
        <ele>110.69</ele>
        <time>2021-08-17T19:00:05Z</time>
      </trkpt>
      <trkpt lat="44.05444" lon="1.67185">
        <ele>110.21</ele>
        <time>2021-08-17T19:00:14Z</time>
      </trkpt>
      <trkpt lat="44.05428" lon="1.67192">
        <ele>110.21</ele>
        <time>2021-08-17T19:00:17Z</time>
      </trkpt>
      <trkpt lat="44.05396" lon="1.67198">
        <ele>110.21</ele>
        <time>2021-08-17T19:00:23Z</time>
      </trkpt>
      <trkpt lat="44.05391" lon="1.67198">
        <ele>110.21</ele>
        <time>2021-08-17T19:00:24Z</time>
      </trkpt>
      <trkpt lat="44.05386" lon="1.67199">
        <ele>110.69</ele>
        <time>2021-08-17T19:00:25Z</time>
      </trkpt>
      <trkpt lat="44.05375" lon="1.67202">
        <ele>111.65</ele>
        <time>2021-08-17T19:00:27Z</time>
      </trkpt>
      <trkpt lat="44.05342" lon="1.67212">
        <ele>112.61</ele>
        <time>2021-08-17T19:00:34Z</time>
      </trkpt>
      <trkpt lat="44.05308" lon="1.6722">
        <ele>112.61</ele>
        <time>2021-08-17T19:00:42Z</time>
      </trkpt>
      <trkpt lat="44.05268" lon="1.6723">
        <ele>113.57</ele>
        <time>2021-08-17T19:00:51Z</time>
      </trkpt>
      <trkpt lat="44.05236" lon="1.67236">
        <ele>114.05</ele>
        <time>2021-08-17T19:00:58Z</time>
      </trkpt>
      <trkpt lat="44.05193" lon="1.67246">
        <ele>114.05</ele>
        <time>2021-08-17T19:01:08Z</time>
      </trkpt>
      <trkpt lat="44.05188" lon="1.67247">
        <ele>114.05</ele>
        <time>2021-08-17T19:01:09Z</time>
      </trkpt>
      <trkpt lat="44.05179" lon="1.67249">
        <ele>114.53</ele>
        <time>2021-08-17T19:01:11Z</time>
      </trkpt>
      <trkpt lat="44.05157" lon="1.67255">
        <ele>114.53</ele>
        <time>2021-08-17T19:01:16Z</time>
      </trkpt>
      <trkpt lat="44.05153" lon="1.67254">
        <ele>115.01</ele>
        <time>2021-08-17T19:01:17Z</time>
      </trkpt>
      <trkpt lat="44.05144" lon="1.67252">
        <ele>115.01</ele>
        <time>2021-08-17T19:01:19Z</time>
      </trkpt>
      <trkpt lat="44.05139" lon="1.67249">
        <ele>115.01</ele>
        <time>2021-08-17T19:01:20Z</time>
      </trkpt>
      <trkpt lat="44.05136" lon="1.67247">
        <ele>115.01</ele>
        <time>2021-08-17T19:01:21Z</time>
      </trkpt>
      <trkpt lat="44.05132" lon="1.67244">
        <ele>115.01</ele>
        <time>2021-08-17T19:01:22Z</time>
      </trkpt>
      <trkpt lat="44.05128" lon="1.67241">
        <ele>115.01</ele>
        <time>2021-08-17T19:01:23Z</time>
      </trkpt>
      <trkpt lat="44.05124" lon="1.67237">
        <ele>115.01</ele>
        <time>2021-08-17T19:01:24Z</time>
      </trkpt>
      <trkpt lat="44.0512" lon="1.67233">
        <ele>115.01</ele>
        <time>2021-08-17T19:01:25Z</time>
      </trkpt>
      <trkpt lat="44.05117" lon="1.67228">
        <ele>115.01</ele>
        <time>2021-08-17T19:01:26Z</time>
      </trkpt>
      <trkpt lat="44.05092" lon="1.67188">
        <ele>115.01</ele>
        <time>2021-08-17T19:01:34Z</time>
      </trkpt>
      <trkpt lat="44.05089" lon="1.67184">
        <ele>115.01</ele>
        <time>2021-08-17T19:01:35Z</time>
      </trkpt>
      <trkpt lat="44.05073" lon="1.67153">
        <ele>115.01</ele>
        <time>2021-08-17T19:01:42Z</time>
      </trkpt>
      <trkpt lat="44.0507" lon="1.67151">
        <ele>115.5</ele>
        <time>2021-08-17T19:01:43Z</time>
      </trkpt>
      <trkpt lat="44.05067" lon="1.67151">
        <ele>115.5</ele>
        <time>2021-08-17T19:01:44Z</time>
      </trkpt>
      <trkpt lat="44.05064" lon="1.67153">
        <ele>115.5</ele>
        <time>2021-08-17T19:01:45Z</time>
      </trkpt>
      <trkpt lat="44.05062" lon="1.67156">
        <ele>115.5</ele>
        <time>2021-08-17T19:01:46Z</time>
      </trkpt>
      <trkpt lat="44.05059" lon="1.6716">
        <ele>113.57</ele>
        <time>2021-08-17T19:01:47Z</time>
      </trkpt>
      <trkpt lat="44.05037" lon="1.67195">
        <ele>111.17</ele>
        <time>2021-08-17T19:01:52Z</time>
      </trkpt>
      <trkpt lat="44.05007" lon="1.67246">
        <ele>111.17</ele>
        <time>2021-08-17T19:02:00Z</time>
      </trkpt>
      <trkpt lat="44.04999" lon="1.67256">
        <ele>111.17</ele>
        <time>2021-08-17T19:02:02Z</time>
      </trkpt>
      <trkpt lat="44.04995" lon="1.6726">
        <ele>111.17</ele>
        <time>2021-08-17T19:02:03Z</time>
      </trkpt>
      <trkpt lat="44.04992" lon="1.67265">
        <ele>111.17</ele>
        <time>2021-08-17T19:02:04Z</time>
      </trkpt>
      <trkpt lat="44.04979" lon="1.67281">
        <ele>111.17</ele>
        <time>2021-08-17T19:02:07Z</time>
      </trkpt>
      <trkpt lat="44.0497" lon="1.67291">
        <ele>110.69</ele>
        <time>2021-08-17T19:02:09Z</time>
      </trkpt>
      <trkpt lat="44.04965" lon="1.67297">
        <ele>110.21</ele>
        <time>2021-08-17T19:02:10Z</time>
      </trkpt>
      <trkpt lat="44.04939" lon="1.6733">
        <ele>108.77</ele>
        <time>2021-08-17T19:02:15Z</time>
      </trkpt>
      <trkpt lat="44.04933" lon="1.67335">
        <ele>108.77</ele>
        <time>2021-08-17T19:02:16Z</time>
      </trkpt>
      <trkpt lat="44.04893" lon="1.67361">
        <ele>108.29</ele>
        <time>2021-08-17T19:02:23Z</time>
      </trkpt>
      <trkpt lat="44.04868" lon="1.67374">
        <ele>108.29</ele>
        <time>2021-08-17T19:02:28Z</time>
      </trkpt>
      <trkpt lat="44.04863" lon="1.67375">
        <ele>108.29</ele>
        <time>2021-08-17T19:02:29Z</time>
      </trkpt>
      <trkpt lat="44.04857" lon="1.67376">
        <ele>108.29</ele>
        <time>2021-08-17T19:02:30Z</time>
      </trkpt>
      <trkpt lat="44.04851" lon="1.67376">
        <ele>108.29</ele>
        <time>2021-08-17T19:02:31Z</time>
      </trkpt>
      <trkpt lat="44.04846" lon="1.67375">
        <ele>108.29</ele>
        <time>2021-08-17T19:02:32Z</time>
      </trkpt>
      <trkpt lat="44.04841" lon="1.67374">
        <ele>108.29</ele>
        <time>2021-08-17T19:02:33Z</time>
      </trkpt>
      <trkpt lat="44.04836" lon="1.67371">
        <ele>108.29</ele>
        <time>2021-08-17T19:02:34Z</time>
      </trkpt>
      <trkpt lat="44.04831" lon="1.67369">
        <ele>108.29</ele>
        <time>2021-08-17T19:02:35Z</time>
      </trkpt>
      <trkpt lat="44.04808" lon="1.67356">
        <ele>108.29</ele>
        <time>2021-08-17T19:02:40Z</time>
      </trkpt>
      <trkpt lat="44.04804" lon="1.67354">
        <ele>108.29</ele>
        <time>2021-08-17T19:02:41Z</time>
      </trkpt>
      <trkpt lat="44.04799" lon="1.67352">
        <ele>108.29</ele>
        <time>2021-08-17T19:02:42Z</time>
      </trkpt>
      <trkpt lat="44.04795" lon="1.6735">
        <ele>109.73</ele>
        <time>2021-08-17T19:02:43Z</time>
      </trkpt>
      <trkpt lat="44.04791" lon="1.67347">
        <ele>109.73</ele>
        <time>2021-08-17T19:02:44Z</time>
      </trkpt>
      <trkpt lat="44.04775" lon="1.67338">
        <ele>110.21</ele>
        <time>2021-08-17T19:02:48Z</time>
      </trkpt>
      <trkpt lat="44.04763" lon="1.6733">
        <ele>110.21</ele>
        <time>2021-08-17T19:02:51Z</time>
      </trkpt>
      <trkpt lat="44.0476" lon="1.67326">
        <ele>110.21</ele>
        <time>2021-08-17T19:02:52Z</time>
      </trkpt>
      <trkpt lat="44.04757" lon="1.67322">
        <ele>110.21</ele>
        <time>2021-08-17T19:02:53Z</time>
      </trkpt>
      <trkpt lat="44.04754" lon="1.67317">
        <ele>110.21</ele>
        <time>2021-08-17T19:02:54Z</time>
      </trkpt>
      <trkpt lat="44.04751" lon="1.67312">
        <ele>110.21</ele>
        <time>2021-08-17T19:02:55Z</time>
      </trkpt>
      <trkpt lat="44.04727" lon="1.67272">
        <ele>110.69</ele>
        <time>2021-08-17T19:03:03Z</time>
      </trkpt>
      <trkpt lat="44.04704" lon="1.67236">
        <ele>110.69</ele>
        <time>2021-08-17T19:03:11Z</time>
      </trkpt>
      <trkpt lat="44.0468" lon="1.67194">
        <ele>110.69</ele>
        <time>2021-08-17T19:03:19Z</time>
      </trkpt>
      <trkpt lat="44.04661" lon="1.67159">
        <ele>110.69</ele>
        <time>2021-08-17T19:03:26Z</time>
      </trkpt>
      <trkpt lat="44.04659" lon="1.67155">
        <ele>110.69</ele>
        <time>2021-08-17T19:03:27Z</time>
      </trkpt>
      <trkpt lat="44.04654" lon="1.67144">
        <ele>110.69</ele>
        <time>2021-08-17T19:03:29Z</time>
      </trkpt>
      <trkpt lat="44.04638" lon="1.67112">
        <ele>111.65</ele>
        <time>2021-08-17T19:03:36Z</time>
      </trkpt>
      <trkpt lat="44.04613" lon="1.67077">
        <ele>111.65</ele>
        <time>2021-08-17T19:03:44Z</time>
      </trkpt>
      <trkpt lat="44.0461" lon="1.67072">
        <ele>111.65</ele>
        <time>2021-08-17T19:03:45Z</time>
      </trkpt>
      <trkpt lat="44.04604" lon="1.67061">
        <ele>111.65</ele>
        <time>2021-08-17T19:03:47Z</time>
      </trkpt>
      <trkpt lat="44.04601" lon="1.67056">
        <ele>111.65</ele>
        <time>2021-08-17T19:03:48Z</time>
      </trkpt>
      <trkpt lat="44.04585" lon="1.67038">
        <ele>110.69</ele>
        <time>2021-08-17T19:03:52Z</time>
      </trkpt>
      <trkpt lat="44.04577" lon="1.6703">
        <ele>110.69</ele>
        <time>2021-08-17T19:03:54Z</time>
      </trkpt>
      <trkpt lat="44.04551" lon="1.67003">
        <ele>110.21</ele>
        <time>2021-08-17T19:04:01Z</time>
      </trkpt>
      <trkpt lat="44.04527" lon="1.66969">
        <ele>110.21</ele>
        <time>2021-08-17T19:04:08Z</time>
      </trkpt>
      <trkpt lat="44.04513" lon="1.66949">
        <ele>110.21</ele>
        <time>2021-08-17T19:04:12Z</time>
      </trkpt>
      <trkpt lat="44.04492" lon="1.66928">
        <ele>110.21</ele>
        <time>2021-08-17T19:04:18Z</time>
      </trkpt>
      <trkpt lat="44.04472" lon="1.66913">
        <ele>111.17</ele>
        <time>2021-08-17T19:04:23Z</time>
      </trkpt>
      <trkpt lat="44.04468" lon="1.6691">
        <ele>111.17</ele>
        <time>2021-08-17T19:04:24Z</time>
      </trkpt>
      <trkpt lat="44.04465" lon="1.66906">
        <ele>111.17</ele>
        <time>2021-08-17T19:04:25Z</time>
      </trkpt>
      <trkpt lat="44.04461" lon="1.66902">
        <ele>111.17</ele>
        <time>2021-08-17T19:04:26Z</time>
      </trkpt>
      <trkpt lat="44.04459" lon="1.66898">
        <ele>111.17</ele>
        <time>2021-08-17T19:04:27Z</time>
      </trkpt>
      <trkpt lat="44.04446" lon="1.66871">
        <ele>111.65</ele>
        <time>2021-08-17T19:04:33Z</time>
      </trkpt>
      <trkpt lat="44.04438" lon="1.66847">
        <ele>112.13</ele>
        <time>2021-08-17T19:04:38Z</time>
      </trkpt>
      <trkpt lat="44.04427" lon="1.66825">
        <ele>113.09</ele>
        <time>2021-08-17T19:04:43Z</time>
      </trkpt>
      <trkpt lat="44.04399" lon="1.66807">
        <ele>113.09</ele>
        <time>2021-08-17T19:04:50Z</time>
      </trkpt>
      <trkpt lat="44.04371" lon="1.66793">
        <ele>113.57</ele>
        <time>2021-08-17T19:04:57Z</time>
      </trkpt>
      <trkpt lat="44.04347" lon="1.66792">
        <ele>114.05</ele>
        <time>2021-08-17T19:05:03Z</time>
      </trkpt>
      <trkpt lat="44.04323" lon="1.668">
        <ele>115.5</ele>
        <time>2021-08-17T19:05:10Z</time>
      </trkpt>
      <trkpt lat="44.04313" lon="1.66804">
        <ele>117.42</ele>
        <time>2021-08-17T19:05:17Z</time>
      </trkpt>
      <trkpt lat="44.04298" lon="1.66803">
        <ele>117.9</ele>
        <time>2021-08-17T19:05:24Z</time>
      </trkpt>
      <trkpt lat="44.04277" lon="1.66793">
        <ele>118.38</ele>
        <time>2021-08-17T19:05:32Z</time>
      </trkpt>
      <trkpt lat="44.04252" lon="1.66787">
        <ele>116.46</ele>
        <time>2021-08-17T19:05:38Z</time>
      </trkpt>
      <trkpt lat="44.04242" lon="1.66787">
        <ele>115.98</ele>
        <time>2021-08-17T19:05:40Z</time>
      </trkpt>
      <trkpt lat="44.04205" lon="1.66795">
        <ele>115.98</ele>
        <time>2021-08-17T19:05:47Z</time>
      </trkpt>
      <trkpt lat="44.04188" lon="1.66799">
        <ele>117.9</ele>
        <time>2021-08-17T19:05:52Z</time>
      </trkpt>
      <trkpt lat="44.04168" lon="1.66812">
        <ele>118.86</ele>
        <time>2021-08-17T19:06:00Z</time>
      </trkpt>
      <trkpt lat="44.04156" lon="1.66841">
        <ele>118.86</ele>
        <time>2021-08-17T19:06:07Z</time>
      </trkpt>
      <trkpt lat="44.04139" lon="1.66875">
        <ele>118.86</ele>
        <time>2021-08-17T19:06:15Z</time>
      </trkpt>
      <trkpt lat="44.04117" lon="1.66897">
        <ele>118.86</ele>
        <time>2021-08-17T19:06:23Z</time>
      </trkpt>
      <trkpt lat="44.04099" lon="1.66913">
        <ele>120.3</ele>
        <time>2021-08-17T19:06:31Z</time>
      </trkpt>
      <trkpt lat="44.04084" lon="1.66922">
        <ele>121.74</ele>
        <time>2021-08-17T19:06:39Z</time>
      </trkpt>
      <trkpt lat="44.04068" lon="1.66931">
        <ele>123.19</ele>
        <time>2021-08-17T19:06:48Z</time>
      </trkpt>
      <trkpt lat="44.04055" lon="1.66939">
        <ele>123.67</ele>
        <time>2021-08-17T19:06:55Z</time>
      </trkpt>
      <trkpt lat="44.04043" lon="1.66942">
        <ele>124.63</ele>
        <time>2021-08-17T19:07:02Z</time>
      </trkpt>
      <trkpt lat="44.04027" lon="1.66943">
        <ele>126.07</ele>
        <time>2021-08-17T19:07:11Z</time>
      </trkpt>
      <trkpt lat="44.04012" lon="1.66942">
        <ele>127.03</ele>
        <time>2021-08-17T19:07:19Z</time>
      </trkpt>
      <trkpt lat="44.03992" lon="1.66942">
        <ele>127.99</ele>
        <time>2021-08-17T19:07:27Z</time>
      </trkpt>
      <trkpt lat="44.03973" lon="1.66942">
        <ele>127.99</ele>
        <time>2021-08-17T19:07:34Z</time>
      </trkpt>
      <trkpt lat="44.03957" lon="1.66929">
        <ele>127.99</ele>
        <time>2021-08-17T19:07:40Z</time>
      </trkpt>
      <trkpt lat="44.0395" lon="1.66914">
        <ele>127.99</ele>
        <time>2021-08-17T19:07:45Z</time>
      </trkpt>
      <trkpt lat="44.0395" lon="1.66918">
        <ele>128.47</ele>
        <time>2021-08-17T19:07:49Z</time>
      </trkpt>
      <trkpt lat="44.03951" lon="1.6692">
        <ele>128.47</ele>
        <time>2021-08-17T19:07:50Z</time>
      </trkpt>
      <trkpt lat="44.03952" lon="1.66922">
        <ele>128.47</ele>
        <time>2021-08-17T19:07:51Z</time>
      </trkpt>
      <trkpt lat="44.03954" lon="1.66925">
        <ele>128.47</ele>
        <time>2021-08-17T19:07:52Z</time>
      </trkpt>
      <trkpt lat="44.03956" lon="1.66927">
        <ele>128.47</ele>
        <time>2021-08-17T19:07:53Z</time>
      </trkpt>
      <trkpt lat="44.03963" lon="1.66943">
        <ele>128.47</ele>
        <time>2021-08-17T19:07:59Z</time>
      </trkpt>
      <trkpt lat="44.03963" lon="1.66945">
        <ele>128.47</ele>
        <time>2021-08-17T19:08:00Z</time>
      </trkpt>
      <trkpt lat="44.03962" lon="1.66948">
        <ele>127.51</ele>
        <time>2021-08-17T19:08:01Z</time>
      </trkpt>
      <trkpt lat="44.03961" lon="1.6695">
        <ele>126.55</ele>
        <time>2021-08-17T19:08:02Z</time>
      </trkpt>
      <trkpt lat="44.03959" lon="1.66953">
        <ele>126.07</ele>
        <time>2021-08-17T19:08:03Z</time>
      </trkpt>
      <trkpt lat="44.03957" lon="1.66956">
        <ele>125.59</ele>
        <time>2021-08-17T19:08:04Z</time>
      </trkpt>
      <trkpt lat="44.03954" lon="1.66957">
        <ele>125.11</ele>
        <time>2021-08-17T19:08:05Z</time>
      </trkpt>
      <trkpt lat="44.03951" lon="1.66958">
        <ele>124.63</ele>
        <time>2021-08-17T19:08:06Z</time>
      </trkpt>
      <trkpt lat="44.03949" lon="1.66958">
        <ele>123.67</ele>
        <time>2021-08-17T19:08:07Z</time>
      </trkpt>
      <trkpt lat="44.03947" lon="1.66957">
        <ele>123.19</ele>
        <time>2021-08-17T19:08:08Z</time>
      </trkpt>
      <trkpt lat="44.03944" lon="1.66955">
        <ele>122.22</ele>
        <time>2021-08-17T19:08:09Z</time>
      </trkpt>
      <trkpt lat="44.03941" lon="1.66952">
        <ele>121.74</ele>
        <time>2021-08-17T19:08:10Z</time>
      </trkpt>
      <trkpt lat="44.03938" lon="1.66949">
        <ele>121.26</ele>
        <time>2021-08-17T19:08:11Z</time>
      </trkpt>
      <trkpt lat="44.03934" lon="1.66946">
        <ele>120.3</ele>
        <time>2021-08-17T19:08:12Z</time>
      </trkpt>
      <trkpt lat="44.0393" lon="1.66943">
        <ele>119.82</ele>
        <time>2021-08-17T19:08:13Z</time>
      </trkpt>
      <trkpt lat="44.03925" lon="1.6694">
        <ele>119.34</ele>
        <time>2021-08-17T19:08:14Z</time>
      </trkpt>
      <trkpt lat="44.03896" lon="1.66919">
        <ele>116.94</ele>
        <time>2021-08-17T19:08:20Z</time>
      </trkpt>
      <trkpt lat="44.03884" lon="1.66906">
        <ele>115.98</ele>
        <time>2021-08-17T19:08:23Z</time>
      </trkpt>
      <trkpt lat="44.03879" lon="1.66903">
        <ele>115.98</ele>
        <time>2021-08-17T19:08:24Z</time>
      </trkpt>
      <trkpt lat="44.03874" lon="1.66901">
        <ele>115.98</ele>
        <time>2021-08-17T19:08:25Z</time>
      </trkpt>
      <trkpt lat="44.03853" lon="1.66886">
        <ele>115.98</ele>
        <time>2021-08-17T19:08:31Z</time>
      </trkpt>
      <trkpt lat="44.03833" lon="1.66878">
        <ele>115.98</ele>
        <time>2021-08-17T19:08:38Z</time>
      </trkpt>
      <trkpt lat="44.03828" lon="1.66878">
        <ele>115.98</ele>
        <time>2021-08-17T19:08:39Z</time>
      </trkpt>
      <trkpt lat="44.03822" lon="1.66878">
        <ele>115.5</ele>
        <time>2021-08-17T19:08:40Z</time>
      </trkpt>
      <trkpt lat="44.03817" lon="1.66879">
        <ele>115.01</ele>
        <time>2021-08-17T19:08:41Z</time>
      </trkpt>
      <trkpt lat="44.03797" lon="1.66885">
        <ele>114.53</ele>
        <time>2021-08-17T19:08:45Z</time>
      </trkpt>
      <trkpt lat="44.03792" lon="1.66887">
        <ele>114.53</ele>
        <time>2021-08-17T19:08:46Z</time>
      </trkpt>
      <trkpt lat="44.03787" lon="1.66888">
        <ele>114.53</ele>
        <time>2021-08-17T19:08:47Z</time>
      </trkpt>
      <trkpt lat="44.03783" lon="1.66889">
        <ele>114.53</ele>
        <time>2021-08-17T19:08:48Z</time>
      </trkpt>
      <trkpt lat="44.03779" lon="1.66889">
        <ele>114.53</ele>
        <time>2021-08-17T19:08:49Z</time>
      </trkpt>
      <trkpt lat="44.03775" lon="1.66888">
        <ele>114.53</ele>
        <time>2021-08-17T19:08:50Z</time>
      </trkpt>
      <trkpt lat="44.03771" lon="1.66888">
        <ele>114.53</ele>
        <time>2021-08-17T19:08:51Z</time>
      </trkpt>
      <trkpt lat="44.03751" lon="1.66883">
        <ele>114.53</ele>
        <time>2021-08-17T19:08:57Z</time>
      </trkpt>
      <trkpt lat="44.03738" lon="1.66879">
        <ele>114.53</ele>
        <time>2021-08-17T19:09:02Z</time>
      </trkpt>
      <trkpt lat="44.03719" lon="1.66873">
        <ele>114.53</ele>
        <time>2021-08-17T19:09:08Z</time>
      </trkpt>
      <trkpt lat="44.03703" lon="1.66866">
        <ele>114.53</ele>
        <time>2021-08-17T19:09:13Z</time>
      </trkpt>
      <trkpt lat="44.03675" lon="1.66859">
        <ele>114.53</ele>
        <time>2021-08-17T19:09:21Z</time>
      </trkpt>
      <trkpt lat="44.03652" lon="1.66856">
        <ele>115.01</ele>
        <time>2021-08-17T19:09:27Z</time>
      </trkpt>
      <trkpt lat="44.0364" lon="1.66853">
        <ele>116.46</ele>
        <time>2021-08-17T19:09:31Z</time>
      </trkpt>
      <trkpt lat="44.03626" lon="1.66849">
        <ele>117.42</ele>
        <time>2021-08-17T19:09:38Z</time>
      </trkpt>
      <trkpt lat="44.03609" lon="1.66852">
        <ele>117.9</ele>
        <time>2021-08-17T19:09:45Z</time>
      </trkpt>
      <trkpt lat="44.03588" lon="1.66855">
        <ele>116.46</ele>
        <time>2021-08-17T19:09:51Z</time>
      </trkpt>
      <trkpt lat="44.03584" lon="1.66855">
        <ele>116.46</ele>
        <time>2021-08-17T19:09:52Z</time>
      </trkpt>
      <trkpt lat="44.03557" lon="1.66856">
        <ele>115.98</ele>
        <time>2021-08-17T19:09:59Z</time>
      </trkpt>
      <trkpt lat="44.03552" lon="1.66857">
        <ele>115.98</ele>
        <time>2021-08-17T19:10:04Z</time>
      </trkpt>
      <trkpt lat="44.03553" lon="1.66862">
        <ele>115.5</ele>
        <time>2021-08-17T19:10:10Z</time>
      </trkpt>
      <trkpt lat="44.0355" lon="1.66871">
        <ele>115.5</ele>
        <time>2021-08-17T19:10:17Z</time>
      </trkpt>
      <trkpt lat="44.03549" lon="1.66875">
        <ele>115.01</ele>
        <time>2021-08-17T19:10:22Z</time>
      </trkpt>
      <trkpt lat="44.03549" lon="1.66881">
        <ele>114.53</ele>
        <time>2021-08-17T19:10:29Z</time>
      </trkpt>
      <trkpt lat="44.03553" lon="1.66884">
        <ele>114.53</ele>
        <time>2021-08-17T19:10:36Z</time>
      </trkpt>
      <trkpt lat="44.03568" lon="1.66885">
        <ele>114.53</ele>
        <time>2021-08-17T19:10:42Z</time>
      </trkpt>
      <trkpt lat="44.03588" lon="1.66887">
        <ele>114.53</ele>
        <time>2021-08-17T19:10:50Z</time>
      </trkpt>
      <trkpt lat="44.03605" lon="1.66892">
        <ele>114.53</ele>
        <time>2021-08-17T19:10:58Z</time>
      </trkpt>
      <trkpt lat="44.03608" lon="1.66896">
        <ele>115.98</ele>
        <time>2021-08-17T19:11:01Z</time>
      </trkpt>
      <trkpt lat="44.03614" lon="1.66904">
        <ele>116.94</ele>
        <time>2021-08-17T19:11:09Z</time>
      </trkpt>
      <trkpt lat="44.0362" lon="1.66912">
        <ele>118.86</ele>
        <time>2021-08-17T19:11:18Z</time>
      </trkpt>
      <trkpt lat="44.03623" lon="1.66919">
        <ele>120.3</ele>
        <time>2021-08-17T19:11:26Z</time>
      </trkpt>
      <trkpt lat="44.03625" lon="1.66926">
        <ele>120.78</ele>
        <time>2021-08-17T19:11:33Z</time>
      </trkpt>
      <trkpt lat="44.03625" lon="1.66928">
        <ele>120.78</ele>
        <time>2021-08-17T19:11:34Z</time>
      </trkpt>
      <trkpt lat="44.03624" lon="1.66931">
        <ele>120.3</ele>
        <time>2021-08-17T19:11:42Z</time>
      </trkpt>
      <trkpt lat="44.03623" lon="1.6693">
        <ele>120.78</ele>
        <time>2021-08-17T19:11:56Z</time>
      </trkpt>
      <trkpt lat="44.03623" lon="1.66932">
        <ele>120.78</ele>
        <time>2021-08-17T19:12:11Z</time>
      </trkpt>
      <trkpt lat="44.03624" lon="1.66932">
        <ele>120.78</ele>
        <time>2021-08-17T19:12:27Z</time>
      </trkpt>
      <trkpt lat="44.03622" lon="1.66932">
        <ele>120.78</ele>
        <time>2021-08-17T19:12:46Z</time>
      </trkpt>
      <trkpt lat="44.03623" lon="1.66938">
        <ele>121.26</ele>
        <time>2021-08-17T19:12:55Z</time>
      </trkpt>
      <trkpt lat="44.03624" lon="1.66946">
        <ele>122.22</ele>
        <time>2021-08-17T19:13:03Z</time>
      </trkpt>
      <trkpt lat="44.03624" lon="1.66949">
        <ele>122.71</ele>
        <time>2021-08-17T19:13:11Z</time>
      </trkpt>
      <trkpt lat="44.03626" lon="1.6696">
        <ele>124.63</ele>
        <time>2021-08-17T19:13:20Z</time>
      </trkpt>
      <trkpt lat="44.03625" lon="1.66971">
        <ele>125.59</ele>
        <time>2021-08-17T19:13:29Z</time>
      </trkpt>
      <trkpt lat="44.03619" lon="1.66982">
        <ele>127.03</ele>
        <time>2021-08-17T19:13:39Z</time>
      </trkpt>
      <trkpt lat="44.03615" lon="1.66987">
        <ele>127.99</ele>
        <time>2021-08-17T19:13:47Z</time>
      </trkpt>
      <trkpt lat="44.03612" lon="1.66988">
        <ele>128.47</ele>
        <time>2021-08-17T19:13:55Z</time>
      </trkpt>
      <trkpt lat="44.03609" lon="1.66987">
        <ele>128.47</ele>
        <time>2021-08-17T19:13:57Z</time>
      </trkpt>
      <trkpt lat="44.03608" lon="1.66986">
        <ele>128.47</ele>
        <time>2021-08-17T19:13:58Z</time>
      </trkpt>
      <trkpt lat="44.03607" lon="1.66985">
        <ele>128.95</ele>
        <time>2021-08-17T19:13:59Z</time>
      </trkpt>
      <trkpt lat="44.03606" lon="1.66985">
        <ele>128.95</ele>
        <time>2021-08-17T19:14:00Z</time>
      </trkpt>
      <trkpt lat="44.03604" lon="1.66984">
        <ele>128.95</ele>
        <time>2021-08-17T19:14:01Z</time>
      </trkpt>
      <trkpt lat="44.03603" lon="1.66984">
        <ele>128.95</ele>
        <time>2021-08-17T19:14:02Z</time>
      </trkpt>
      <trkpt lat="44.03602" lon="1.66983">
        <ele>129.43</ele>
        <time>2021-08-17T19:14:03Z</time>
      </trkpt>
      <trkpt lat="44.036" lon="1.66982">
        <ele>129.43</ele>
        <time>2021-08-17T19:14:04Z</time>
      </trkpt>
      <trkpt lat="44.03599" lon="1.66982">
        <ele>129.43</ele>
        <time>2021-08-17T19:14:05Z</time>
      </trkpt>
      <trkpt lat="44.03598" lon="1.66982">
        <ele>129.92</ele>
        <time>2021-08-17T19:14:06Z</time>
      </trkpt>
      <trkpt lat="44.03597" lon="1.66981">
        <ele>129.92</ele>
        <time>2021-08-17T19:14:07Z</time>
      </trkpt>
      <trkpt lat="44.03595" lon="1.66981">
        <ele>129.92</ele>
        <time>2021-08-17T19:14:08Z</time>
      </trkpt>
      <trkpt lat="44.03594" lon="1.6698">
        <ele>130.4</ele>
        <time>2021-08-17T19:14:09Z</time>
      </trkpt>
      <trkpt lat="44.03588" lon="1.66978">
        <ele>130.88</ele>
        <time>2021-08-17T19:14:13Z</time>
      </trkpt>
      <trkpt lat="44.03583" lon="1.66977">
        <ele>131.36</ele>
        <time>2021-08-17T19:14:16Z</time>
      </trkpt>
      <trkpt lat="44.03582" lon="1.66976">
        <ele>131.36</ele>
        <time>2021-08-17T19:14:17Z</time>
      </trkpt>
      <trkpt lat="44.03565" lon="1.66974">
        <ele>131.84</ele>
        <time>2021-08-17T19:14:25Z</time>
      </trkpt>
      <trkpt lat="44.03555" lon="1.66974">
        <ele>132.32</ele>
        <time>2021-08-17T19:14:31Z</time>
      </trkpt>
      <trkpt lat="44.03554" lon="1.66973">
        <ele>132.32</ele>
        <time>2021-08-17T19:14:32Z</time>
      </trkpt>
      <trkpt lat="44.03536" lon="1.6697">
        <ele>132.8</ele>
        <time>2021-08-17T19:14:41Z</time>
      </trkpt>
      <trkpt lat="44.03517" lon="1.66968">
        <ele>133.28</ele>
        <time>2021-08-17T19:14:50Z</time>
      </trkpt>
      <trkpt lat="44.03501" lon="1.66964">
        <ele>133.76</ele>
        <time>2021-08-17T19:14:57Z</time>
      </trkpt>
      <trkpt lat="44.03483" lon="1.66959">
        <ele>134.72</ele>
        <time>2021-08-17T19:15:05Z</time>
      </trkpt>
      <trkpt lat="44.03467" lon="1.66956">
        <ele>136.16</ele>
        <time>2021-08-17T19:15:14Z</time>
      </trkpt>
      <trkpt lat="44.03449" lon="1.66955">
        <ele>136.16</ele>
        <time>2021-08-17T19:15:22Z</time>
      </trkpt>
      <trkpt lat="44.03426" lon="1.66958">
        <ele>136.16</ele>
        <time>2021-08-17T19:15:30Z</time>
      </trkpt>
      <trkpt lat="44.03403" lon="1.66967">
        <ele>136.16</ele>
        <time>2021-08-17T19:15:38Z</time>
      </trkpt>
      <trkpt lat="44.03385" lon="1.66981">
        <ele>135.2</ele>
        <time>2021-08-17T19:15:45Z</time>
      </trkpt>
      <trkpt lat="44.03382" lon="1.66984">
        <ele>135.2</ele>
        <time>2021-08-17T19:15:46Z</time>
      </trkpt>
      <trkpt lat="44.03371" lon="1.66999">
        <ele>134.72</ele>
        <time>2021-08-17T19:15:52Z</time>
      </trkpt>
      <trkpt lat="44.03372" lon="1.66998">
        <ele>134.72</ele>
        <time>2021-08-17T19:15:54Z</time>
      </trkpt>
      <trkpt lat="44.03373" lon="1.66997">
        <ele>134.72</ele>
        <time>2021-08-17T19:15:59Z</time>
      </trkpt>
      <trkpt lat="44.03373" lon="1.66996">
        <ele>134.72</ele>
        <time>2021-08-17T19:16:02Z</time>
      </trkpt>
      <trkpt lat="44.03374" lon="1.66994">
        <ele>134.72</ele>
        <time>2021-08-17T19:16:03Z</time>
      </trkpt>
      <trkpt lat="44.03385" lon="1.66981">
        <ele>134.72</ele>
        <time>2021-08-17T19:16:10Z</time>
      </trkpt>
      <trkpt lat="44.03397" lon="1.6697">
        <ele>134.72</ele>
        <time>2021-08-17T19:16:17Z</time>
      </trkpt>
      <trkpt lat="44.03399" lon="1.66968">
        <ele>134.72</ele>
        <time>2021-08-17T19:16:19Z</time>
      </trkpt>
      <trkpt lat="44.03399" lon="1.66966">
        <ele>134.72</ele>
        <time>2021-08-17T19:16:20Z</time>
      </trkpt>
      <trkpt lat="44.03398" lon="1.66964">
        <ele>136.16</ele>
        <time>2021-08-17T19:16:22Z</time>
      </trkpt>
      <trkpt lat="44.03397" lon="1.66965">
        <ele>136.16</ele>
        <time>2021-08-17T19:16:23Z</time>
      </trkpt>
      <trkpt lat="44.03383" lon="1.66968">
        <ele>137.61</ele>
        <time>2021-08-17T19:16:32Z</time>
      </trkpt>
      <trkpt lat="44.03376" lon="1.66969">
        <ele>138.57</ele>
        <time>2021-08-17T19:16:39Z</time>
      </trkpt>
      <trkpt lat="44.03366" lon="1.66972">
        <ele>140.01</ele>
        <time>2021-08-17T19:16:50Z</time>
      </trkpt>
      <trkpt lat="44.03354" lon="1.6698">
        <ele>140.97</ele>
        <time>2021-08-17T19:17:01Z</time>
      </trkpt>
      <trkpt lat="44.0335" lon="1.66983">
        <ele>141.45</ele>
        <time>2021-08-17T19:17:09Z</time>
      </trkpt>
      <trkpt lat="44.03346" lon="1.66987">
        <ele>142.41</ele>
        <time>2021-08-17T19:17:19Z</time>
      </trkpt>
      <trkpt lat="44.03339" lon="1.66995">
        <ele>144.34</ele>
        <time>2021-08-17T19:17:29Z</time>
      </trkpt>
      <trkpt lat="44.03333" lon="1.67005">
        <ele>145.3</ele>
        <time>2021-08-17T19:17:39Z</time>
      </trkpt>
      <trkpt lat="44.03326" lon="1.67019">
        <ele>147.22</ele>
        <time>2021-08-17T19:17:51Z</time>
      </trkpt>
      <trkpt lat="44.03318" lon="1.67028">
        <ele>148.18</ele>
        <time>2021-08-17T19:18:01Z</time>
      </trkpt>
      <trkpt lat="44.03311" lon="1.67035">
        <ele>149.14</ele>
        <time>2021-08-17T19:18:10Z</time>
      </trkpt>
      <trkpt lat="44.03302" lon="1.67046">
        <ele>150.58</ele>
        <time>2021-08-17T19:18:20Z</time>
      </trkpt>
      <trkpt lat="44.03295" lon="1.67057">
        <ele>152.03</ele>
        <time>2021-08-17T19:18:31Z</time>
      </trkpt>
      <trkpt lat="44.03293" lon="1.67061">
        <ele>152.51</ele>
        <time>2021-08-17T19:18:37Z</time>
      </trkpt>
      <trkpt lat="44.03288" lon="1.67066">
        <ele>152.99</ele>
        <time>2021-08-17T19:18:43Z</time>
      </trkpt>
      <trkpt lat="44.0328" lon="1.67075">
        <ele>154.43</ele>
        <time>2021-08-17T19:18:54Z</time>
      </trkpt>
      <trkpt lat="44.03273" lon="1.67081">
        <ele>155.39</ele>
        <time>2021-08-17T19:19:03Z</time>
      </trkpt>
      <trkpt lat="44.0327" lon="1.67083">
        <ele>155.39</ele>
        <time>2021-08-17T19:19:12Z</time>
      </trkpt>
      <trkpt lat="44.03259" lon="1.67089">
        <ele>156.35</ele>
        <time>2021-08-17T19:19:19Z</time>
      </trkpt>
      <trkpt lat="44.03247" lon="1.671">
        <ele>158.27</ele>
        <time>2021-08-17T19:19:29Z</time>
      </trkpt>
      <trkpt lat="44.03246" lon="1.67102">
        <ele>158.27</ele>
        <time>2021-08-17T19:19:35Z</time>
      </trkpt>
      <trkpt lat="44.03247" lon="1.67111">
        <ele>158.75</ele>
        <time>2021-08-17T19:19:39Z</time>
      </trkpt>
      <trkpt lat="44.03244" lon="1.67113">
        <ele>159.24</ele>
        <time>2021-08-17T19:19:43Z</time>
      </trkpt>
      <trkpt lat="44.03244" lon="1.67114">
        <ele>159.24</ele>
        <time>2021-08-17T19:19:44Z</time>
      </trkpt>
      <trkpt lat="44.03238" lon="1.6712">
        <ele>160.68</ele>
        <time>2021-08-17T19:19:52Z</time>
      </trkpt>
      <trkpt lat="44.03232" lon="1.67126">
        <ele>162.12</ele>
        <time>2021-08-17T19:20:02Z</time>
      </trkpt>
      <trkpt lat="44.03228" lon="1.67132">
        <ele>163.56</ele>
        <time>2021-08-17T19:20:11Z</time>
      </trkpt>
      <trkpt lat="44.03224" lon="1.6714">
        <ele>164.52</ele>
        <time>2021-08-17T19:20:20Z</time>
      </trkpt>
      <trkpt lat="44.03219" lon="1.67147">
        <ele>165.48</ele>
        <time>2021-08-17T19:20:28Z</time>
      </trkpt>
      <trkpt lat="44.03217" lon="1.67149">
        <ele>165.96</ele>
        <time>2021-08-17T19:20:31Z</time>
      </trkpt>
      <trkpt lat="44.03211" lon="1.67158">
        <ele>167.41</ele>
        <time>2021-08-17T19:20:40Z</time>
      </trkpt>
      <trkpt lat="44.03202" lon="1.67165">
        <ele>168.85</ele>
        <time>2021-08-17T19:20:50Z</time>
      </trkpt>
      <trkpt lat="44.03193" lon="1.67169">
        <ele>169.81</ele>
        <time>2021-08-17T19:20:59Z</time>
      </trkpt>
      <trkpt lat="44.03184" lon="1.67177">
        <ele>170.77</ele>
        <time>2021-08-17T19:21:09Z</time>
      </trkpt>
      <trkpt lat="44.03177" lon="1.67184">
        <ele>171.73</ele>
        <time>2021-08-17T19:21:18Z</time>
      </trkpt>
      <trkpt lat="44.0317" lon="1.67191">
        <ele>172.69</ele>
        <time>2021-08-17T19:21:28Z</time>
      </trkpt>
      <trkpt lat="44.03164" lon="1.67195">
        <ele>173.17</ele>
        <time>2021-08-17T19:21:36Z</time>
      </trkpt>
      <trkpt lat="44.03159" lon="1.67198">
        <ele>173.17</ele>
        <time>2021-08-17T19:21:43Z</time>
      </trkpt>
      <trkpt lat="44.03144" lon="1.67206">
        <ele>173.66</ele>
        <time>2021-08-17T19:21:51Z</time>
      </trkpt>
      <trkpt lat="44.03129" lon="1.67212">
        <ele>174.14</ele>
        <time>2021-08-17T19:21:59Z</time>
      </trkpt>
      <trkpt lat="44.03112" lon="1.67221">
        <ele>174.62</ele>
        <time>2021-08-17T19:22:07Z</time>
      </trkpt>
      <trkpt lat="44.03093" lon="1.67229">
        <ele>175.58</ele>
        <time>2021-08-17T19:22:15Z</time>
      </trkpt>
      <trkpt lat="44.03091" lon="1.6723">
        <ele>175.58</ele>
        <time>2021-08-17T19:22:16Z</time>
      </trkpt>
      <trkpt lat="44.03089" lon="1.67231">
        <ele>176.06</ele>
        <time>2021-08-17T19:22:17Z</time>
      </trkpt>
      <trkpt lat="44.03075" lon="1.67239">
        <ele>176.54</ele>
        <time>2021-08-17T19:22:25Z</time>
      </trkpt>
      <trkpt lat="44.03064" lon="1.67244">
        <ele>177.5</ele>
        <time>2021-08-17T19:22:32Z</time>
      </trkpt>
      <trkpt lat="44.0306" lon="1.67245">
        <ele>177.98</ele>
        <time>2021-08-17T19:22:35Z</time>
      </trkpt>
      <trkpt lat="44.03059" lon="1.67246">
        <ele>177.98</ele>
        <time>2021-08-17T19:22:36Z</time>
      </trkpt>
      <trkpt lat="44.03057" lon="1.67246">
        <ele>178.94</ele>
        <time>2021-08-17T19:22:37Z</time>
      </trkpt>
      <trkpt lat="44.03056" lon="1.67247">
        <ele>178.94</ele>
        <time>2021-08-17T19:22:38Z</time>
      </trkpt>
      <trkpt lat="44.03055" lon="1.67247">
        <ele>178.94</ele>
        <time>2021-08-17T19:22:39Z</time>
      </trkpt>
      <trkpt lat="44.03045" lon="1.67252">
        <ele>180.38</ele>
        <time>2021-08-17T19:22:47Z</time>
      </trkpt>
      <trkpt lat="44.03041" lon="1.67255">
        <ele>180.87</ele>
        <time>2021-08-17T19:22:53Z</time>
      </trkpt>
      <trkpt lat="44.03034" lon="1.6726">
        <ele>181.83</ele>
        <time>2021-08-17T19:23:02Z</time>
      </trkpt>
      <trkpt lat="44.0303" lon="1.67264">
        <ele>182.31</ele>
        <time>2021-08-17T19:23:10Z</time>
      </trkpt>
      <trkpt lat="44.03027" lon="1.67265">
        <ele>182.79</ele>
        <time>2021-08-17T19:23:24Z</time>
      </trkpt>
      <trkpt lat="44.0302" lon="1.67274">
        <ele>183.75</ele>
        <time>2021-08-17T19:23:34Z</time>
      </trkpt>
      <trkpt lat="44.03015" lon="1.67279">
        <ele>185.19</ele>
        <time>2021-08-17T19:23:42Z</time>
      </trkpt>
      <trkpt lat="44.03009" lon="1.67287">
        <ele>186.15</ele>
        <time>2021-08-17T19:23:52Z</time>
      </trkpt>
      <trkpt lat="44.03002" lon="1.67295">
        <ele>188.08</ele>
        <time>2021-08-17T19:24:02Z</time>
      </trkpt>
      <trkpt lat="44.02994" lon="1.67305">
        <ele>189.52</ele>
        <time>2021-08-17T19:24:15Z</time>
      </trkpt>
      <trkpt lat="44.02988" lon="1.67312">
        <ele>191.44</ele>
        <time>2021-08-17T19:24:26Z</time>
      </trkpt>
      <trkpt lat="44.02984" lon="1.67319">
        <ele>192.88</ele>
        <time>2021-08-17T19:24:35Z</time>
      </trkpt>
      <trkpt lat="44.0298" lon="1.67325">
        <ele>193.84</ele>
        <time>2021-08-17T19:24:43Z</time>
      </trkpt>
      <trkpt lat="44.02978" lon="1.67332">
        <ele>194.8</ele>
        <time>2021-08-17T19:24:50Z</time>
      </trkpt>
      <trkpt lat="44.02973" lon="1.67341">
        <ele>196.25</ele>
        <time>2021-08-17T19:25:01Z</time>
      </trkpt>
      <trkpt lat="44.02972" lon="1.67341">
        <ele>196.73</ele>
        <time>2021-08-17T19:25:17Z</time>
      </trkpt>
      <trkpt lat="44.02966" lon="1.67347">
        <ele>198.17</ele>
        <time>2021-08-17T19:25:25Z</time>
      </trkpt>
      <trkpt lat="44.02961" lon="1.6735">
        <ele>199.61</ele>
        <time>2021-08-17T19:25:32Z</time>
      </trkpt>
      <trkpt lat="44.02957" lon="1.67353">
        <ele>200.57</ele>
        <time>2021-08-17T19:25:40Z</time>
      </trkpt>
      <trkpt lat="44.02951" lon="1.67359">
        <ele>202.49</ele>
        <time>2021-08-17T19:25:49Z</time>
      </trkpt>
      <trkpt lat="44.02947" lon="1.67367">
        <ele>202.98</ele>
        <time>2021-08-17T19:25:58Z</time>
      </trkpt>
      <trkpt lat="44.02942" lon="1.67375">
        <ele>204.42</ele>
        <time>2021-08-17T19:26:08Z</time>
      </trkpt>
      <trkpt lat="44.02936" lon="1.67382">
        <ele>205.86</ele>
        <time>2021-08-17T19:26:18Z</time>
      </trkpt>
      <trkpt lat="44.02931" lon="1.67389">
        <ele>207.3</ele>
        <time>2021-08-17T19:26:26Z</time>
      </trkpt>
      <trkpt lat="44.02925" lon="1.67399">
        <ele>208.74</ele>
        <time>2021-08-17T19:26:36Z</time>
      </trkpt>
      <trkpt lat="44.02924" lon="1.674">
        <ele>208.74</ele>
        <time>2021-08-17T19:26:37Z</time>
      </trkpt>
      <trkpt lat="44.02923" lon="1.67401">
        <ele>208.74</ele>
        <time>2021-08-17T19:26:38Z</time>
      </trkpt>
      <trkpt lat="44.02915" lon="1.67413">
        <ele>210.67</ele>
        <time>2021-08-17T19:26:50Z</time>
      </trkpt>
      <trkpt lat="44.02908" lon="1.67423">
        <ele>211.63</ele>
        <time>2021-08-17T19:26:59Z</time>
      </trkpt>
      <trkpt lat="44.02901" lon="1.67433">
        <ele>212.59</ele>
        <time>2021-08-17T19:27:09Z</time>
      </trkpt>
      <trkpt lat="44.02893" lon="1.67443">
        <ele>213.55</ele>
        <time>2021-08-17T19:27:18Z</time>
      </trkpt>
      <trkpt lat="44.02885" lon="1.67453">
        <ele>215.47</ele>
        <time>2021-08-17T19:27:28Z</time>
      </trkpt>
      <trkpt lat="44.0288" lon="1.67465">
        <ele>216.43</ele>
        <time>2021-08-17T19:27:37Z</time>
      </trkpt>
      <trkpt lat="44.02874" lon="1.67475">
        <ele>217.4</ele>
        <time>2021-08-17T19:27:46Z</time>
      </trkpt>
      <trkpt lat="44.02868" lon="1.67486">
        <ele>219.32</ele>
        <time>2021-08-17T19:27:57Z</time>
      </trkpt>
      <trkpt lat="44.02862" lon="1.67496">
        <ele>220.76</ele>
        <time>2021-08-17T19:28:07Z</time>
      </trkpt>
      <trkpt lat="44.02857" lon="1.67505">
        <ele>222.2</ele>
        <time>2021-08-17T19:28:16Z</time>
      </trkpt>
      <trkpt lat="44.02851" lon="1.67516">
        <ele>223.64</ele>
        <time>2021-08-17T19:28:28Z</time>
      </trkpt>
      <trkpt lat="44.02847" lon="1.67526">
        <ele>224.61</ele>
        <time>2021-08-17T19:28:37Z</time>
      </trkpt>
      <trkpt lat="44.02844" lon="1.6754">
        <ele>226.53</ele>
        <time>2021-08-17T19:28:48Z</time>
      </trkpt>
      <trkpt lat="44.02842" lon="1.67549">
        <ele>227.97</ele>
        <time>2021-08-17T19:28:57Z</time>
      </trkpt>
      <trkpt lat="44.0284" lon="1.67557">
        <ele>228.93</ele>
        <time>2021-08-17T19:29:05Z</time>
      </trkpt>
      <trkpt lat="44.02836" lon="1.67566">
        <ele>230.37</ele>
        <time>2021-08-17T19:29:15Z</time>
      </trkpt>
      <trkpt lat="44.02832" lon="1.67574">
        <ele>231.33</ele>
        <time>2021-08-17T19:29:24Z</time>
      </trkpt>
      <trkpt lat="44.02829" lon="1.67584">
        <ele>233.26</ele>
        <time>2021-08-17T19:29:34Z</time>
      </trkpt>
      <trkpt lat="44.02828" lon="1.67584">
        <ele>233.26</ele>
        <time>2021-08-17T19:29:39Z</time>
      </trkpt>
      <trkpt lat="44.02829" lon="1.67585">
        <ele>233.26</ele>
        <time>2021-08-17T19:29:48Z</time>
      </trkpt>
      <trkpt lat="44.02828" lon="1.67591">
        <ele>233.74</ele>
        <time>2021-08-17T19:30:01Z</time>
      </trkpt>
      <trkpt lat="44.02826" lon="1.67601">
        <ele>235.66</ele>
        <time>2021-08-17T19:30:11Z</time>
      </trkpt>
      <trkpt lat="44.02822" lon="1.67607">
        <ele>236.62</ele>
        <time>2021-08-17T19:30:18Z</time>
      </trkpt>
      <trkpt lat="44.02818" lon="1.67616">
        <ele>238.54</ele>
        <time>2021-08-17T19:30:30Z</time>
      </trkpt>
      <trkpt lat="44.02816" lon="1.67625">
        <ele>239.99</ele>
        <time>2021-08-17T19:30:38Z</time>
      </trkpt>
      <trkpt lat="44.02814" lon="1.67634">
        <ele>241.43</ele>
        <time>2021-08-17T19:30:47Z</time>
      </trkpt>
      <trkpt lat="44.02812" lon="1.67642">
        <ele>242.87</ele>
        <time>2021-08-17T19:30:56Z</time>
      </trkpt>
      <trkpt lat="44.0281" lon="1.67649">
        <ele>244.31</ele>
        <time>2021-08-17T19:31:05Z</time>
      </trkpt>
      <trkpt lat="44.02808" lon="1.67657">
        <ele>245.75</ele>
        <time>2021-08-17T19:31:14Z</time>
      </trkpt>
      <trkpt lat="44.02804" lon="1.67666">
        <ele>246.72</ele>
        <time>2021-08-17T19:31:24Z</time>
      </trkpt>
      <trkpt lat="44.02802" lon="1.67672">
        <ele>247.68</ele>
        <time>2021-08-17T19:31:31Z</time>
      </trkpt>
      <trkpt lat="44.02799" lon="1.67679">
        <ele>249.6</ele>
        <time>2021-08-17T19:31:40Z</time>
      </trkpt>
      <trkpt lat="44.02798" lon="1.67684">
        <ele>250.56</ele>
        <time>2021-08-17T19:31:47Z</time>
      </trkpt>
      <trkpt lat="44.02797" lon="1.67686">
        <ele>251.04</ele>
        <time>2021-08-17T19:31:54Z</time>
      </trkpt>
      <trkpt lat="44.02795" lon="1.67694">
        <ele>252</ele>
        <time>2021-08-17T19:32:03Z</time>
      </trkpt>
      <trkpt lat="44.02792" lon="1.67704">
        <ele>253.44</ele>
        <time>2021-08-17T19:32:13Z</time>
      </trkpt>
      <trkpt lat="44.02786" lon="1.6771">
        <ele>254.41</ele>
        <time>2021-08-17T19:32:22Z</time>
      </trkpt>
      <trkpt lat="44.02782" lon="1.67716">
        <ele>255.37</ele>
        <time>2021-08-17T19:32:30Z</time>
      </trkpt>
      <trkpt lat="44.02778" lon="1.67723">
        <ele>257.29</ele>
        <time>2021-08-17T19:32:39Z</time>
      </trkpt>
      <trkpt lat="44.02775" lon="1.67731">
        <ele>258.73</ele>
        <time>2021-08-17T19:32:48Z</time>
      </trkpt>
      <trkpt lat="44.02774" lon="1.67735">
        <ele>259.21</ele>
        <time>2021-08-17T19:32:56Z</time>
      </trkpt>
      <trkpt lat="44.02774" lon="1.6774">
        <ele>260.17</ele>
        <time>2021-08-17T19:33:04Z</time>
      </trkpt>
      <trkpt lat="44.02773" lon="1.67746">
        <ele>261.62</ele>
        <time>2021-08-17T19:33:11Z</time>
      </trkpt>
      <trkpt lat="44.02772" lon="1.67753">
        <ele>262.58</ele>
        <time>2021-08-17T19:33:19Z</time>
      </trkpt>
      <trkpt lat="44.02771" lon="1.6776">
        <ele>264.5</ele>
        <time>2021-08-17T19:33:27Z</time>
      </trkpt>
      <trkpt lat="44.0277" lon="1.67767">
        <ele>265.46</ele>
        <time>2021-08-17T19:33:35Z</time>
      </trkpt>
      <trkpt lat="44.02767" lon="1.67774">
        <ele>266.9</ele>
        <time>2021-08-17T19:33:43Z</time>
      </trkpt>
      <trkpt lat="44.02765" lon="1.67781">
        <ele>267.86</ele>
        <time>2021-08-17T19:33:52Z</time>
      </trkpt>
      <trkpt lat="44.02766" lon="1.67788">
        <ele>268.83</ele>
        <time>2021-08-17T19:34:01Z</time>
      </trkpt>
      <trkpt lat="44.02768" lon="1.67796">
        <ele>270.27</ele>
        <time>2021-08-17T19:34:10Z</time>
      </trkpt>
      <trkpt lat="44.02768" lon="1.67804">
        <ele>271.71</ele>
        <time>2021-08-17T19:34:19Z</time>
      </trkpt>
      <trkpt lat="44.02768" lon="1.67809">
        <ele>272.67</ele>
        <time>2021-08-17T19:34:26Z</time>
      </trkpt>
      <trkpt lat="44.02767" lon="1.67817">
        <ele>274.11</ele>
        <time>2021-08-17T19:34:35Z</time>
      </trkpt>
      <trkpt lat="44.02766" lon="1.67823">
        <ele>274.59</ele>
        <time>2021-08-17T19:34:42Z</time>
      </trkpt>
      <trkpt lat="44.02765" lon="1.67831">
        <ele>276.04</ele>
        <time>2021-08-17T19:34:51Z</time>
      </trkpt>
      <trkpt lat="44.02765" lon="1.67839">
        <ele>277.48</ele>
        <time>2021-08-17T19:35:01Z</time>
      </trkpt>
      <trkpt lat="44.02766" lon="1.67849">
        <ele>278.92</ele>
        <time>2021-08-17T19:35:12Z</time>
      </trkpt>
      <trkpt lat="44.02767" lon="1.67856">
        <ele>279.88</ele>
        <time>2021-08-17T19:35:19Z</time>
      </trkpt>
      <trkpt lat="44.02767" lon="1.67856">
        <ele>280.36</ele>
        <time>2021-08-17T19:35:26Z</time>
      </trkpt>
      <trkpt lat="44.02768" lon="1.67857">
        <ele>280.36</ele>
        <time>2021-08-17T19:35:40Z</time>
      </trkpt>
      <trkpt lat="44.02768" lon="1.67867">
        <ele>281.8</ele>
        <time>2021-08-17T19:35:50Z</time>
      </trkpt>
      <trkpt lat="44.02768" lon="1.67876">
        <ele>283.73</ele>
        <time>2021-08-17T19:36:00Z</time>
      </trkpt>
      <trkpt lat="44.0277" lon="1.67884">
        <ele>284.69</ele>
        <time>2021-08-17T19:36:10Z</time>
      </trkpt>
      <trkpt lat="44.02774" lon="1.67892">
        <ele>286.61</ele>
        <time>2021-08-17T19:36:19Z</time>
      </trkpt>
      <trkpt lat="44.02777" lon="1.679">
        <ele>288.05</ele>
        <time>2021-08-17T19:36:28Z</time>
      </trkpt>
      <trkpt lat="44.02779" lon="1.6791">
        <ele>289.49</ele>
        <time>2021-08-17T19:36:40Z</time>
      </trkpt>
      <trkpt lat="44.02781" lon="1.67917">
        <ele>290.46</ele>
        <time>2021-08-17T19:36:48Z</time>
      </trkpt>
      <trkpt lat="44.02785" lon="1.67924">
        <ele>292.38</ele>
        <time>2021-08-17T19:36:57Z</time>
      </trkpt>
      <trkpt lat="44.02788" lon="1.67932">
        <ele>293.82</ele>
        <time>2021-08-17T19:37:06Z</time>
      </trkpt>
      <trkpt lat="44.02792" lon="1.67941">
        <ele>294.78</ele>
        <time>2021-08-17T19:37:15Z</time>
      </trkpt>
      <trkpt lat="44.02794" lon="1.6795">
        <ele>295.74</ele>
        <time>2021-08-17T19:37:23Z</time>
      </trkpt>
      <trkpt lat="44.02797" lon="1.67957">
        <ele>296.7</ele>
        <time>2021-08-17T19:37:29Z</time>
      </trkpt>
      <trkpt lat="44.02797" lon="1.67961">
        <ele>297.18</ele>
        <time>2021-08-17T19:37:33Z</time>
      </trkpt>
      <trkpt lat="44.02799" lon="1.67971">
        <ele>298.15</ele>
        <time>2021-08-17T19:37:40Z</time>
      </trkpt>
      <trkpt lat="44.028" lon="1.67979">
        <ele>299.11</ele>
        <time>2021-08-17T19:37:47Z</time>
      </trkpt>
      <trkpt lat="44.028" lon="1.67985">
        <ele>300.07</ele>
        <time>2021-08-17T19:37:55Z</time>
      </trkpt>
      <trkpt lat="44.028" lon="1.67987">
        <ele>300.07</ele>
        <time>2021-08-17T19:38:01Z</time>
      </trkpt>
      <trkpt lat="44.02802" lon="1.67995">
        <ele>301.03</ele>
        <time>2021-08-17T19:38:09Z</time>
      </trkpt>
      <trkpt lat="44.02804" lon="1.68005">
        <ele>302.95</ele>
        <time>2021-08-17T19:38:20Z</time>
      </trkpt>
      <trkpt lat="44.02805" lon="1.68013">
        <ele>304.39</ele>
        <time>2021-08-17T19:38:29Z</time>
      </trkpt>
      <trkpt lat="44.02805" lon="1.68019">
        <ele>305.36</ele>
        <time>2021-08-17T19:38:37Z</time>
      </trkpt>
      <trkpt lat="44.02806" lon="1.68027">
        <ele>306.32</ele>
        <time>2021-08-17T19:38:47Z</time>
      </trkpt>
      <trkpt lat="44.02805" lon="1.68034">
        <ele>308.72</ele>
        <time>2021-08-17T19:38:56Z</time>
      </trkpt>
      <trkpt lat="44.02802" lon="1.6804">
        <ele>309.68</ele>
        <time>2021-08-17T19:39:05Z</time>
      </trkpt>
      <trkpt lat="44.02798" lon="1.68045">
        <ele>310.64</ele>
        <time>2021-08-17T19:39:12Z</time>
      </trkpt>
      <trkpt lat="44.02793" lon="1.68051">
        <ele>312.09</ele>
        <time>2021-08-17T19:39:21Z</time>
      </trkpt>
      <trkpt lat="44.02792" lon="1.68057">
        <ele>313.53</ele>
        <time>2021-08-17T19:39:30Z</time>
      </trkpt>
      <trkpt lat="44.02789" lon="1.68062">
        <ele>314.49</ele>
        <time>2021-08-17T19:39:38Z</time>
      </trkpt>
      <trkpt lat="44.02785" lon="1.68068">
        <ele>314.97</ele>
        <time>2021-08-17T19:39:49Z</time>
      </trkpt>
      <trkpt lat="44.02784" lon="1.68077">
        <ele>316.41</ele>
        <time>2021-08-17T19:39:57Z</time>
      </trkpt>
      <trkpt lat="44.02786" lon="1.68081">
        <ele>316.89</ele>
        <time>2021-08-17T19:40:02Z</time>
      </trkpt>
      <trkpt lat="44.02792" lon="1.68086">
        <ele>317.85</ele>
        <time>2021-08-17T19:40:11Z</time>
      </trkpt>
      <trkpt lat="44.028" lon="1.68093">
        <ele>319.3</ele>
        <time>2021-08-17T19:40:21Z</time>
      </trkpt>
      <trkpt lat="44.02806" lon="1.68098">
        <ele>321.22</ele>
        <time>2021-08-17T19:40:31Z</time>
      </trkpt>
      <trkpt lat="44.02811" lon="1.68101">
        <ele>322.18</ele>
        <time>2021-08-17T19:40:39Z</time>
      </trkpt>
      <trkpt lat="44.02817" lon="1.68105">
        <ele>323.62</ele>
        <time>2021-08-17T19:40:50Z</time>
      </trkpt>
      <trkpt lat="44.02822" lon="1.68108">
        <ele>324.58</ele>
        <time>2021-08-17T19:40:58Z</time>
      </trkpt>
      <trkpt lat="44.02832" lon="1.68114">
        <ele>326.02</ele>
        <time>2021-08-17T19:41:11Z</time>
      </trkpt>
      <trkpt lat="44.02837" lon="1.68117">
        <ele>327.47</ele>
        <time>2021-08-17T19:41:20Z</time>
      </trkpt>
      <trkpt lat="44.02838" lon="1.68118">
        <ele>327.95</ele>
        <time>2021-08-17T19:41:35Z</time>
      </trkpt>
      <trkpt lat="44.0284" lon="1.68124">
        <ele>329.39</ele>
        <time>2021-08-17T19:41:44Z</time>
      </trkpt>
      <trkpt lat="44.02838" lon="1.68133">
        <ele>330.83</ele>
        <time>2021-08-17T19:41:54Z</time>
      </trkpt>
      <trkpt lat="44.02835" lon="1.68139">
        <ele>331.79</ele>
        <time>2021-08-17T19:42:03Z</time>
      </trkpt>
      <trkpt lat="44.02832" lon="1.68146">
        <ele>333.23</ele>
        <time>2021-08-17T19:42:13Z</time>
      </trkpt>
      <trkpt lat="44.02826" lon="1.68153">
        <ele>334.68</ele>
        <time>2021-08-17T19:42:23Z</time>
      </trkpt>
      <trkpt lat="44.02823" lon="1.68158">
        <ele>335.64</ele>
        <time>2021-08-17T19:42:32Z</time>
      </trkpt>
      <trkpt lat="44.0282" lon="1.68166">
        <ele>337.08</ele>
        <time>2021-08-17T19:42:43Z</time>
      </trkpt>
      <trkpt lat="44.02817" lon="1.68172">
        <ele>338.04</ele>
        <time>2021-08-17T19:42:51Z</time>
      </trkpt>
      <trkpt lat="44.02814" lon="1.68179">
        <ele>339.48</ele>
        <time>2021-08-17T19:43:00Z</time>
      </trkpt>
      <trkpt lat="44.02809" lon="1.68187">
        <ele>340.92</ele>
        <time>2021-08-17T19:43:10Z</time>
      </trkpt>
      <trkpt lat="44.02807" lon="1.68196">
        <ele>341.89</ele>
        <time>2021-08-17T19:43:20Z</time>
      </trkpt>
      <trkpt lat="44.02804" lon="1.68203">
        <ele>343.81</ele>
        <time>2021-08-17T19:43:29Z</time>
      </trkpt>
      <trkpt lat="44.02803" lon="1.68211">
        <ele>345.25</ele>
        <time>2021-08-17T19:43:38Z</time>
      </trkpt>
      <trkpt lat="44.02801" lon="1.68217">
        <ele>346.21</ele>
        <time>2021-08-17T19:43:46Z</time>
      </trkpt>
      <trkpt lat="44.02799" lon="1.68226">
        <ele>348.13</ele>
        <time>2021-08-17T19:43:55Z</time>
      </trkpt>
      <trkpt lat="44.02797" lon="1.68236">
        <ele>349.1</ele>
        <time>2021-08-17T19:44:05Z</time>
      </trkpt>
      <trkpt lat="44.02796" lon="1.68239">
        <ele>349.1</ele>
        <time>2021-08-17T19:44:07Z</time>
      </trkpt>
      <trkpt lat="44.02791" lon="1.68251">
        <ele>350.54</ele>
        <time>2021-08-17T19:44:17Z</time>
      </trkpt>
      <trkpt lat="44.02788" lon="1.68259">
        <ele>351.02</ele>
        <time>2021-08-17T19:44:24Z</time>
      </trkpt>
      <trkpt lat="44.02787" lon="1.68268">
        <ele>351.98</ele>
        <time>2021-08-17T19:44:31Z</time>
      </trkpt>
      <trkpt lat="44.02788" lon="1.68272">
        <ele>352.94</ele>
        <time>2021-08-17T19:44:35Z</time>
      </trkpt>
      <trkpt lat="44.02788" lon="1.68274">
        <ele>352.94</ele>
        <time>2021-08-17T19:44:36Z</time>
      </trkpt>
      <trkpt lat="44.02788" lon="1.68282">
        <ele>353.9</ele>
        <time>2021-08-17T19:44:44Z</time>
      </trkpt>
      <trkpt lat="44.02786" lon="1.68292">
        <ele>355.34</ele>
        <time>2021-08-17T19:44:53Z</time>
      </trkpt>
      <trkpt lat="44.02786" lon="1.68294">
        <ele>355.34</ele>
        <time>2021-08-17T19:44:54Z</time>
      </trkpt>
      <trkpt lat="44.02785" lon="1.68304">
        <ele>356.31</ele>
        <time>2021-08-17T19:45:02Z</time>
      </trkpt>
      <trkpt lat="44.02783" lon="1.68318">
        <ele>357.27</ele>
        <time>2021-08-17T19:45:12Z</time>
      </trkpt>
      <trkpt lat="44.02784" lon="1.6833">
        <ele>358.71</ele>
        <time>2021-08-17T19:45:21Z</time>
      </trkpt>
      <trkpt lat="44.02784" lon="1.68331">
        <ele>358.71</ele>
        <time>2021-08-17T19:45:22Z</time>
      </trkpt>
      <trkpt lat="44.02783" lon="1.68337">
        <ele>359.19</ele>
        <time>2021-08-17T19:45:26Z</time>
      </trkpt>
      <trkpt lat="44.02782" lon="1.68347">
        <ele>359.19</ele>
        <time>2021-08-17T19:45:35Z</time>
      </trkpt>
      <trkpt lat="44.02781" lon="1.68348">
        <ele>359.19</ele>
        <time>2021-08-17T19:45:49Z</time>
      </trkpt>
      <trkpt lat="44.0278" lon="1.68346">
        <ele>359.19</ele>
        <time>2021-08-17T19:46:04Z</time>
      </trkpt>
      <trkpt lat="44.02781" lon="1.68346">
        <ele>359.67</ele>
        <time>2021-08-17T19:46:22Z</time>
      </trkpt>
      <trkpt lat="44.02781" lon="1.68346">
        <ele>359.67</ele>
        <time>2021-08-17T19:46:46Z</time>
      </trkpt>
      <trkpt lat="44.02783" lon="1.68348">
        <ele>359.67</ele>
        <time>2021-08-17T19:47:01Z</time>
      </trkpt>
      <trkpt lat="44.02783" lon="1.68348">
        <ele>359.67</ele>
        <time>2021-08-17T19:47:15Z</time>
      </trkpt>
      <trkpt lat="44.02784" lon="1.68349">
        <ele>359.67</ele>
        <time>2021-08-17T19:47:34Z</time>
      </trkpt>
      <trkpt lat="44.02782" lon="1.68348">
        <ele>359.67</ele>
        <time>2021-08-17T19:47:47Z</time>
      </trkpt>
      <trkpt lat="44.02781" lon="1.68348">
        <ele>359.67</ele>
        <time>2021-08-17T19:48:00Z</time>
      </trkpt>
      <trkpt lat="44.02782" lon="1.68348">
        <ele>359.67</ele>
        <time>2021-08-17T19:48:08Z</time>
      </trkpt>
      <trkpt lat="44.02782" lon="1.68348">
        <ele>359.67</ele>
        <time>2021-08-17T19:48:20Z</time>
      </trkpt>
      <trkpt lat="44.0278" lon="1.68347">
        <ele>359.67</ele>
        <time>2021-08-17T19:48:35Z</time>
      </trkpt>
      <trkpt lat="44.0278" lon="1.68347">
        <ele>359.67</ele>
        <time>2021-08-17T19:48:47Z</time>
      </trkpt>
      <trkpt lat="44.0278" lon="1.68347">
        <ele>359.67</ele>
        <time>2021-08-17T19:49:06Z</time>
      </trkpt>
      <trkpt lat="44.02779" lon="1.68347">
        <ele>359.67</ele>
        <time>2021-08-17T19:49:21Z</time>
      </trkpt>
      <trkpt lat="44.02781" lon="1.68346">
        <ele>359.67</ele>
        <time>2021-08-17T19:49:30Z</time>
      </trkpt>
      <trkpt lat="44.0278" lon="1.68346">
        <ele>359.67</ele>
        <time>2021-08-17T19:49:36Z</time>
      </trkpt>
      <trkpt lat="44.0278" lon="1.68351">
        <ele>359.67</ele>
        <time>2021-08-17T19:49:50Z</time>
      </trkpt>
      <trkpt lat="44.0278" lon="1.68355">
        <ele>359.67</ele>
        <time>2021-08-17T19:49:56Z</time>
      </trkpt>
      <trkpt lat="44.02781" lon="1.68354">
        <ele>359.67</ele>
        <time>2021-08-17T19:50:12Z</time>
      </trkpt>
      <trkpt lat="44.0278" lon="1.68358">
        <ele>359.67</ele>
        <time>2021-08-17T19:50:19Z</time>
      </trkpt>
      <trkpt lat="44.0278" lon="1.68361">
        <ele>359.67</ele>
        <time>2021-08-17T19:50:21Z</time>
      </trkpt>
      <trkpt lat="44.0278" lon="1.68363">
        <ele>359.67</ele>
        <time>2021-08-17T19:50:22Z</time>
      </trkpt>
      <trkpt lat="44.02779" lon="1.68366">
        <ele>359.67</ele>
        <time>2021-08-17T19:50:23Z</time>
      </trkpt>
      <trkpt lat="44.02779" lon="1.68368">
        <ele>359.67</ele>
        <time>2021-08-17T19:50:24Z</time>
      </trkpt>
      <trkpt lat="44.02779" lon="1.68371">
        <ele>360.15</ele>
        <time>2021-08-17T19:50:25Z</time>
      </trkpt>
      <trkpt lat="44.02779" lon="1.68391">
        <ele>360.63</ele>
        <time>2021-08-17T19:50:33Z</time>
      </trkpt>
      <trkpt lat="44.02779" lon="1.68394">
        <ele>360.63</ele>
        <time>2021-08-17T19:50:34Z</time>
      </trkpt>
      <trkpt lat="44.02779" lon="1.68397">
        <ele>360.63</ele>
        <time>2021-08-17T19:50:35Z</time>
      </trkpt>
      <trkpt lat="44.02779" lon="1.68399">
        <ele>361.11</ele>
        <time>2021-08-17T19:50:36Z</time>
      </trkpt>
      <trkpt lat="44.0278" lon="1.68402">
        <ele>361.11</ele>
        <time>2021-08-17T19:50:37Z</time>
      </trkpt>
      <trkpt lat="44.0278" lon="1.68404">
        <ele>361.11</ele>
        <time>2021-08-17T19:50:38Z</time>
      </trkpt>
      <trkpt lat="44.0278" lon="1.68406">
        <ele>361.11</ele>
        <time>2021-08-17T19:50:39Z</time>
      </trkpt>
      <trkpt lat="44.0278" lon="1.68408">
        <ele>361.11</ele>
        <time>2021-08-17T19:50:40Z</time>
      </trkpt>
      <trkpt lat="44.02781" lon="1.6841">
        <ele>361.59</ele>
        <time>2021-08-17T19:50:41Z</time>
      </trkpt>
      <trkpt lat="44.02781" lon="1.6842">
        <ele>361.59</ele>
        <time>2021-08-17T19:50:46Z</time>
      </trkpt>
      <trkpt lat="44.02781" lon="1.68423">
        <ele>362.07</ele>
        <time>2021-08-17T19:50:47Z</time>
      </trkpt>
      <trkpt lat="44.02782" lon="1.68426">
        <ele>362.07</ele>
        <time>2021-08-17T19:50:49Z</time>
      </trkpt>
      <trkpt lat="44.02782" lon="1.68428">
        <ele>362.07</ele>
        <time>2021-08-17T19:50:50Z</time>
      </trkpt>
      <trkpt lat="44.02782" lon="1.68436">
        <ele>362.55</ele>
        <time>2021-08-17T19:50:55Z</time>
      </trkpt>
      <trkpt lat="44.02782" lon="1.68438">
        <ele>362.55</ele>
        <time>2021-08-17T19:50:56Z</time>
      </trkpt>
      <trkpt lat="44.02782" lon="1.6844">
        <ele>362.55</ele>
        <time>2021-08-17T19:50:57Z</time>
      </trkpt>
      <trkpt lat="44.02781" lon="1.68442">
        <ele>362.55</ele>
        <time>2021-08-17T19:50:58Z</time>
      </trkpt>
      <trkpt lat="44.02781" lon="1.68445">
        <ele>362.55</ele>
        <time>2021-08-17T19:50:59Z</time>
      </trkpt>
      <trkpt lat="44.02777" lon="1.68458">
        <ele>361.11</ele>
        <time>2021-08-17T19:51:04Z</time>
      </trkpt>
      <trkpt lat="44.02773" lon="1.68479">
        <ele>359.19</ele>
        <time>2021-08-17T19:51:10Z</time>
      </trkpt>
      <trkpt lat="44.02771" lon="1.68503">
        <ele>358.23</ele>
        <time>2021-08-17T19:51:15Z</time>
      </trkpt>
      <trkpt lat="44.02765" lon="1.68535">
        <ele>355.83</ele>
        <time>2021-08-17T19:51:21Z</time>
      </trkpt>
      <trkpt lat="44.02758" lon="1.68575">
        <ele>352.94</ele>
        <time>2021-08-17T19:51:29Z</time>
      </trkpt>
      <trkpt lat="44.02747" lon="1.68607">
        <ele>351.02</ele>
        <time>2021-08-17T19:51:36Z</time>
      </trkpt>
      <trkpt lat="44.02749" lon="1.68631">
        <ele>349.58</ele>
        <time>2021-08-17T19:51:41Z</time>
      </trkpt>
      <trkpt lat="44.02741" lon="1.68654">
        <ele>348.62</ele>
        <time>2021-08-17T19:51:46Z</time>
      </trkpt>
      <trkpt lat="44.02727" lon="1.68692">
        <ele>347.65</ele>
        <time>2021-08-17T19:51:54Z</time>
      </trkpt>
      <trkpt lat="44.02725" lon="1.68699">
        <ele>347.65</ele>
        <time>2021-08-17T19:51:58Z</time>
      </trkpt>
      <trkpt lat="44.02724" lon="1.68701">
        <ele>347.65</ele>
        <time>2021-08-17T19:52:03Z</time>
      </trkpt>
      <trkpt lat="44.02723" lon="1.68704">
        <ele>347.65</ele>
        <time>2021-08-17T19:52:10Z</time>
      </trkpt>
      <trkpt lat="44.0272" lon="1.68715">
        <ele>347.65</ele>
        <time>2021-08-17T19:52:16Z</time>
      </trkpt>
      <trkpt lat="44.02712" lon="1.6874">
        <ele>347.65</ele>
        <time>2021-08-17T19:52:23Z</time>
      </trkpt>
      <trkpt lat="44.02704" lon="1.68773">
        <ele>349.1</ele>
        <time>2021-08-17T19:52:31Z</time>
      </trkpt>
      <trkpt lat="44.02697" lon="1.68795">
        <ele>349.58</ele>
        <time>2021-08-17T19:52:38Z</time>
      </trkpt>
      <trkpt lat="44.02684" lon="1.68824">
        <ele>350.06</ele>
        <time>2021-08-17T19:52:46Z</time>
      </trkpt>
      <trkpt lat="44.02671" lon="1.68852">
        <ele>350.54</ele>
        <time>2021-08-17T19:52:54Z</time>
      </trkpt>
      <trkpt lat="44.02661" lon="1.68873">
        <ele>351.5</ele>
        <time>2021-08-17T19:53:01Z</time>
      </trkpt>
      <trkpt lat="44.02652" lon="1.68898">
        <ele>352.46</ele>
        <time>2021-08-17T19:53:09Z</time>
      </trkpt>
      <trkpt lat="44.02649" lon="1.68907">
        <ele>352.94</ele>
        <time>2021-08-17T19:53:12Z</time>
      </trkpt>
      <trkpt lat="44.02645" lon="1.68923">
        <ele>354.38</ele>
        <time>2021-08-17T19:53:18Z</time>
      </trkpt>
      <trkpt lat="44.02643" lon="1.68926">
        <ele>354.38</ele>
        <time>2021-08-17T19:53:19Z</time>
      </trkpt>
      <trkpt lat="44.02642" lon="1.68928">
        <ele>354.38</ele>
        <time>2021-08-17T19:53:20Z</time>
      </trkpt>
      <trkpt lat="44.02641" lon="1.68931">
        <ele>354.38</ele>
        <time>2021-08-17T19:53:21Z</time>
      </trkpt>
      <trkpt lat="44.0264" lon="1.68933">
        <ele>354.86</ele>
        <time>2021-08-17T19:53:22Z</time>
      </trkpt>
      <trkpt lat="44.02638" lon="1.68935">
        <ele>354.86</ele>
        <time>2021-08-17T19:53:23Z</time>
      </trkpt>
      <trkpt lat="44.02637" lon="1.68937">
        <ele>354.86</ele>
        <time>2021-08-17T19:53:24Z</time>
      </trkpt>
      <trkpt lat="44.02635" lon="1.68939">
        <ele>355.34</ele>
        <time>2021-08-17T19:53:25Z</time>
      </trkpt>
      <trkpt lat="44.02626" lon="1.68957">
        <ele>355.34</ele>
        <time>2021-08-17T19:53:32Z</time>
      </trkpt>
      <trkpt lat="44.02615" lon="1.68974">
        <ele>355.83</ele>
        <time>2021-08-17T19:53:39Z</time>
      </trkpt>
      <trkpt lat="44.02603" lon="1.68996">
        <ele>355.83</ele>
        <time>2021-08-17T19:53:47Z</time>
      </trkpt>
      <trkpt lat="44.02593" lon="1.69022">
        <ele>355.83</ele>
        <time>2021-08-17T19:53:54Z</time>
      </trkpt>
      <trkpt lat="44.02586" lon="1.69061">
        <ele>354.86</ele>
        <time>2021-08-17T19:54:01Z</time>
      </trkpt>
      <trkpt lat="44.02585" lon="1.69067">
        <ele>354.86</ele>
        <time>2021-08-17T19:54:02Z</time>
      </trkpt>
      <trkpt lat="44.02584" lon="1.69073">
        <ele>354.86</ele>
        <time>2021-08-17T19:54:03Z</time>
      </trkpt>
      <trkpt lat="44.02584" lon="1.69077">
        <ele>354.86</ele>
        <time>2021-08-17T19:54:04Z</time>
      </trkpt>
      <trkpt lat="44.02584" lon="1.69109">
        <ele>354.86</ele>
        <time>2021-08-17T19:54:11Z</time>
      </trkpt>
      <trkpt lat="44.02588" lon="1.6914">
        <ele>355.83</ele>
        <time>2021-08-17T19:54:19Z</time>
      </trkpt>
      <trkpt lat="44.02591" lon="1.69158">
        <ele>356.79</ele>
        <time>2021-08-17T19:54:25Z</time>
      </trkpt>
      <trkpt lat="44.02591" lon="1.69164">
        <ele>357.27</ele>
        <time>2021-08-17T19:54:27Z</time>
      </trkpt>
      <trkpt lat="44.02591" lon="1.69167">
        <ele>357.27</ele>
        <time>2021-08-17T19:54:28Z</time>
      </trkpt>
      <trkpt lat="44.02592" lon="1.6917">
        <ele>357.27</ele>
        <time>2021-08-17T19:54:29Z</time>
      </trkpt>
      <trkpt lat="44.02593" lon="1.69173">
        <ele>357.75</ele>
        <time>2021-08-17T19:54:30Z</time>
      </trkpt>
      <trkpt lat="44.02593" lon="1.69176">
        <ele>358.23</ele>
        <time>2021-08-17T19:54:31Z</time>
      </trkpt>
      <trkpt lat="44.02594" lon="1.69183">
        <ele>358.71</ele>
        <time>2021-08-17T19:54:37Z</time>
      </trkpt>
      <trkpt lat="44.02595" lon="1.6919">
        <ele>360.15</ele>
        <time>2021-08-17T19:54:46Z</time>
      </trkpt>
      <trkpt lat="44.02598" lon="1.69202">
        <ele>361.59</ele>
        <time>2021-08-17T19:54:55Z</time>
      </trkpt>
      <trkpt lat="44.02601" lon="1.69212">
        <ele>363.04</ele>
        <time>2021-08-17T19:55:06Z</time>
      </trkpt>
      <trkpt lat="44.02603" lon="1.69219">
        <ele>364.48</ele>
        <time>2021-08-17T19:55:13Z</time>
      </trkpt>
      <trkpt lat="44.02606" lon="1.69225">
        <ele>364.96</ele>
        <time>2021-08-17T19:55:20Z</time>
      </trkpt>
      <trkpt lat="44.02607" lon="1.69227">
        <ele>364.96</ele>
        <time>2021-08-17T19:55:21Z</time>
      </trkpt>
      <trkpt lat="44.02611" lon="1.69236">
        <ele>366.4</ele>
        <time>2021-08-17T19:55:29Z</time>
      </trkpt>
      <trkpt lat="44.02617" lon="1.69246">
        <ele>367.84</ele>
        <time>2021-08-17T19:55:39Z</time>
      </trkpt>
      <trkpt lat="44.02624" lon="1.69255">
        <ele>369.28</ele>
        <time>2021-08-17T19:55:47Z</time>
      </trkpt>
      <trkpt lat="44.02625" lon="1.69256">
        <ele>369.28</ele>
        <time>2021-08-17T19:55:48Z</time>
      </trkpt>
      <trkpt lat="44.02627" lon="1.69259">
        <ele>369.76</ele>
        <time>2021-08-17T19:55:55Z</time>
      </trkpt>
      <trkpt lat="44.02628" lon="1.69259">
        <ele>369.76</ele>
        <time>2021-08-17T19:55:56Z</time>
      </trkpt>
      <trkpt lat="44.02629" lon="1.69259">
        <ele>369.76</ele>
        <time>2021-08-17T19:55:57Z</time>
      </trkpt>
      <trkpt lat="44.02631" lon="1.69259">
        <ele>369.76</ele>
        <time>2021-08-17T19:55:58Z</time>
      </trkpt>
      <trkpt lat="44.02633" lon="1.6926">
        <ele>369.76</ele>
        <time>2021-08-17T19:55:59Z</time>
      </trkpt>
      <trkpt lat="44.02635" lon="1.6926">
        <ele>369.76</ele>
        <time>2021-08-17T19:56:00Z</time>
      </trkpt>
      <trkpt lat="44.02637" lon="1.69261">
        <ele>369.76</ele>
        <time>2021-08-17T19:56:01Z</time>
      </trkpt>
      <trkpt lat="44.02658" lon="1.69266">
        <ele>370.24</ele>
        <time>2021-08-17T19:56:09Z</time>
      </trkpt>
      <trkpt lat="44.02681" lon="1.69271">
        <ele>368.32</ele>
        <time>2021-08-17T19:56:15Z</time>
      </trkpt>
      <trkpt lat="44.02709" lon="1.69276">
        <ele>367.84</ele>
        <time>2021-08-17T19:56:21Z</time>
      </trkpt>
      <trkpt lat="44.02723" lon="1.6928">
        <ele>367.36</ele>
        <time>2021-08-17T19:56:24Z</time>
      </trkpt>
      <trkpt lat="44.0275" lon="1.69285">
        <ele>367.36</ele>
        <time>2021-08-17T19:56:31Z</time>
      </trkpt>
      <trkpt lat="44.0278" lon="1.6929">
        <ele>367.36</ele>
        <time>2021-08-17T19:56:39Z</time>
      </trkpt>
      <trkpt lat="44.02806" lon="1.69293">
        <ele>365.44</ele>
        <time>2021-08-17T19:56:46Z</time>
      </trkpt>
      <trkpt lat="44.02818" lon="1.69293">
        <ele>364.48</ele>
        <time>2021-08-17T19:56:49Z</time>
      </trkpt>
      <trkpt lat="44.02842" lon="1.69293">
        <ele>362.55</ele>
        <time>2021-08-17T19:56:55Z</time>
      </trkpt>
      <trkpt lat="44.02876" lon="1.69296">
        <ele>359.19</ele>
        <time>2021-08-17T19:57:03Z</time>
      </trkpt>
      <trkpt lat="44.02901" lon="1.69295">
        <ele>357.27</ele>
        <time>2021-08-17T19:57:10Z</time>
      </trkpt>
      <trkpt lat="44.0291" lon="1.69295">
        <ele>355.83</ele>
        <time>2021-08-17T19:57:12Z</time>
      </trkpt>
      <trkpt lat="44.02914" lon="1.69296">
        <ele>355.83</ele>
        <time>2021-08-17T19:57:13Z</time>
      </trkpt>
      <trkpt lat="44.02919" lon="1.69298">
        <ele>355.34</ele>
        <time>2021-08-17T19:57:14Z</time>
      </trkpt>
      <trkpt lat="44.02929" lon="1.69304">
        <ele>354.38</ele>
        <time>2021-08-17T19:57:16Z</time>
      </trkpt>
      <trkpt lat="44.02955" lon="1.69319">
        <ele>353.9</ele>
        <time>2021-08-17T19:57:22Z</time>
      </trkpt>
      <trkpt lat="44.02963" lon="1.69323">
        <ele>356.79</ele>
        <time>2021-08-17T19:57:28Z</time>
      </trkpt>
      <trkpt lat="44.02969" lon="1.69323">
        <ele>357.75</ele>
        <time>2021-08-17T19:57:32Z</time>
      </trkpt>
      <trkpt lat="44.02971" lon="1.69323">
        <ele>357.75</ele>
        <time>2021-08-17T19:57:33Z</time>
      </trkpt>
      <trkpt lat="44.02973" lon="1.69323">
        <ele>357.75</ele>
        <time>2021-08-17T19:57:34Z</time>
      </trkpt>
      <trkpt lat="44.02986" lon="1.69325">
        <ele>357.75</ele>
        <time>2021-08-17T19:57:40Z</time>
      </trkpt>
      <trkpt lat="44.0301" lon="1.69329">
        <ele>357.75</ele>
        <time>2021-08-17T19:57:47Z</time>
      </trkpt>
      <trkpt lat="44.03019" lon="1.69332">
        <ele>356.79</ele>
        <time>2021-08-17T19:57:49Z</time>
      </trkpt>
      <trkpt lat="44.03023" lon="1.69334">
        <ele>356.79</ele>
        <time>2021-08-17T19:57:50Z</time>
      </trkpt>
      <trkpt lat="44.03058" lon="1.69355">
        <ele>353.9</ele>
        <time>2021-08-17T19:57:57Z</time>
      </trkpt>
      <trkpt lat="44.03102" lon="1.69383">
        <ele>351.5</ele>
        <time>2021-08-17T19:58:05Z</time>
      </trkpt>
      <trkpt lat="44.03149" lon="1.6941">
        <ele>350.54</ele>
        <time>2021-08-17T19:58:15Z</time>
      </trkpt>
      <trkpt lat="44.03169" lon="1.69423">
        <ele>350.54</ele>
        <time>2021-08-17T19:58:22Z</time>
      </trkpt>
      <trkpt lat="44.03196" lon="1.6944">
        <ele>350.54</ele>
        <time>2021-08-17T19:58:30Z</time>
      </trkpt>
      <trkpt lat="44.03215" lon="1.69439">
        <ele>350.54</ele>
        <time>2021-08-17T19:58:36Z</time>
      </trkpt>
      <trkpt lat="44.03219" lon="1.69432">
        <ele>350.54</ele>
        <time>2021-08-17T19:58:38Z</time>
      </trkpt>
      <trkpt lat="44.0322" lon="1.69427">
        <ele>350.54</ele>
        <time>2021-08-17T19:58:39Z</time>
      </trkpt>
      <trkpt lat="44.0322" lon="1.69423">
        <ele>350.54</ele>
        <time>2021-08-17T19:58:40Z</time>
      </trkpt>
      <trkpt lat="44.03221" lon="1.69404">
        <ele>351.98</ele>
        <time>2021-08-17T19:58:45Z</time>
      </trkpt>
      <trkpt lat="44.03225" lon="1.69393">
        <ele>353.9</ele>
        <time>2021-08-17T19:58:52Z</time>
      </trkpt>
      <trkpt lat="44.03226" lon="1.69388">
        <ele>353.9</ele>
        <time>2021-08-17T19:58:56Z</time>
      </trkpt>
      <trkpt lat="44.03226" lon="1.69386">
        <ele>353.9</ele>
        <time>2021-08-17T19:58:57Z</time>
      </trkpt>
      <trkpt lat="44.03227" lon="1.69385">
        <ele>353.9</ele>
        <time>2021-08-17T19:58:58Z</time>
      </trkpt>
      <trkpt lat="44.03227" lon="1.69383">
        <ele>354.38</ele>
        <time>2021-08-17T19:58:59Z</time>
      </trkpt>
      <trkpt lat="44.03229" lon="1.69376">
        <ele>354.86</ele>
        <time>2021-08-17T19:59:06Z</time>
      </trkpt>
      <trkpt lat="44.03234" lon="1.69365">
        <ele>355.34</ele>
        <time>2021-08-17T19:59:11Z</time>
      </trkpt>
      <trkpt lat="44.03239" lon="1.69348">
        <ele>355.83</ele>
        <time>2021-08-17T19:59:17Z</time>
      </trkpt>
      <trkpt lat="44.03245" lon="1.69322">
        <ele>356.79</ele>
        <time>2021-08-17T19:59:25Z</time>
      </trkpt>
      <trkpt lat="44.03252" lon="1.69297">
        <ele>357.27</ele>
        <time>2021-08-17T19:59:32Z</time>
      </trkpt>
      <trkpt lat="44.0326" lon="1.69267">
        <ele>358.71</ele>
        <time>2021-08-17T19:59:40Z</time>
      </trkpt>
      <trkpt lat="44.03267" lon="1.69235">
        <ele>359.19</ele>
        <time>2021-08-17T19:59:48Z</time>
      </trkpt>
      <trkpt lat="44.03277" lon="1.69201">
        <ele>359.67</ele>
        <time>2021-08-17T19:59:56Z</time>
      </trkpt>
      <trkpt lat="44.0329" lon="1.69181">
        <ele>359.67</ele>
        <time>2021-08-17T20:00:02Z</time>
      </trkpt>
      <trkpt lat="44.03305" lon="1.69181">
        <ele>360.63</ele>
        <time>2021-08-17T20:00:08Z</time>
      </trkpt>
      <trkpt lat="44.03316" lon="1.69184">
        <ele>361.11</ele>
        <time>2021-08-17T20:00:12Z</time>
      </trkpt>
      <trkpt lat="44.03333" lon="1.69191">
        <ele>361.59</ele>
        <time>2021-08-17T20:00:19Z</time>
      </trkpt>
      <trkpt lat="44.03361" lon="1.69202">
        <ele>361.59</ele>
        <time>2021-08-17T20:00:27Z</time>
      </trkpt>
      <trkpt lat="44.03393" lon="1.69216">
        <ele>361.59</ele>
        <time>2021-08-17T20:00:36Z</time>
      </trkpt>
      <trkpt lat="44.03432" lon="1.6923">
        <ele>361.59</ele>
        <time>2021-08-17T20:00:45Z</time>
      </trkpt>
      <trkpt lat="44.03441" lon="1.69234">
        <ele>361.59</ele>
        <time>2021-08-17T20:00:47Z</time>
      </trkpt>
      <trkpt lat="44.03444" lon="1.69236">
        <ele>362.07</ele>
        <time>2021-08-17T20:00:48Z</time>
      </trkpt>
      <trkpt lat="44.03466" lon="1.69237">
        <ele>362.55</ele>
        <time>2021-08-17T20:00:54Z</time>
      </trkpt>
      <trkpt lat="44.03486" lon="1.69225">
        <ele>363.04</ele>
        <time>2021-08-17T20:01:00Z</time>
      </trkpt>
      <trkpt lat="44.03513" lon="1.69207">
        <ele>360.63</ele>
        <time>2021-08-17T20:01:07Z</time>
      </trkpt>
      <trkpt lat="44.03518" lon="1.69204">
        <ele>360.63</ele>
        <time>2021-08-17T20:01:08Z</time>
      </trkpt>
      <trkpt lat="44.03523" lon="1.69203">
        <ele>360.63</ele>
        <time>2021-08-17T20:01:09Z</time>
      </trkpt>
      <trkpt lat="44.03545" lon="1.69204">
        <ele>359.67</ele>
        <time>2021-08-17T20:01:14Z</time>
      </trkpt>
      <trkpt lat="44.03583" lon="1.69209">
        <ele>357.27</ele>
        <time>2021-08-17T20:01:21Z</time>
      </trkpt>
      <trkpt lat="44.03622" lon="1.69213">
        <ele>353.42</ele>
        <time>2021-08-17T20:01:27Z</time>
      </trkpt>
      <trkpt lat="44.03628" lon="1.69214">
        <ele>353.42</ele>
        <time>2021-08-17T20:01:28Z</time>
      </trkpt>
      <trkpt lat="44.0366" lon="1.69217">
        <ele>353.42</ele>
        <time>2021-08-17T20:01:33Z</time>
      </trkpt>
      <trkpt lat="44.03669" lon="1.69219">
        <ele>353.42</ele>
        <time>2021-08-17T20:01:35Z</time>
      </trkpt>
      <trkpt lat="44.03693" lon="1.69234">
        <ele>353.42</ele>
        <time>2021-08-17T20:01:42Z</time>
      </trkpt>
      <trkpt lat="44.03694" lon="1.69238">
        <ele>353.42</ele>
        <time>2021-08-17T20:01:43Z</time>
      </trkpt>
      <trkpt lat="44.03694" lon="1.69242">
        <ele>353.42</ele>
        <time>2021-08-17T20:01:44Z</time>
      </trkpt>
      <trkpt lat="44.03693" lon="1.69245">
        <ele>354.86</ele>
        <time>2021-08-17T20:01:45Z</time>
      </trkpt>
      <trkpt lat="44.03692" lon="1.69247">
        <ele>354.86</ele>
        <time>2021-08-17T20:01:46Z</time>
      </trkpt>
      <trkpt lat="44.03682" lon="1.69261">
        <ele>355.83</ele>
        <time>2021-08-17T20:01:52Z</time>
      </trkpt>
      <trkpt lat="44.03674" lon="1.69273">
        <ele>357.75</ele>
        <time>2021-08-17T20:01:59Z</time>
      </trkpt>
      <trkpt lat="44.03667" lon="1.69284">
        <ele>358.71</ele>
        <time>2021-08-17T20:02:06Z</time>
      </trkpt>
      <trkpt lat="44.03662" lon="1.69294">
        <ele>359.67</ele>
        <time>2021-08-17T20:02:12Z</time>
      </trkpt>
      <trkpt lat="44.03657" lon="1.69301">
        <ele>360.15</ele>
        <time>2021-08-17T20:02:17Z</time>
      </trkpt>
      <trkpt lat="44.03655" lon="1.69303">
        <ele>360.63</ele>
        <time>2021-08-17T20:02:18Z</time>
      </trkpt>
      <trkpt lat="44.03654" lon="1.69305">
        <ele>361.11</ele>
        <time>2021-08-17T20:02:19Z</time>
      </trkpt>
      <trkpt lat="44.03643" lon="1.69321">
        <ele>362.07</ele>
        <time>2021-08-17T20:02:29Z</time>
      </trkpt>
      <trkpt lat="44.03641" lon="1.69325">
        <ele>362.55</ele>
        <time>2021-08-17T20:02:31Z</time>
      </trkpt>
      <trkpt lat="44.0364" lon="1.69327">
        <ele>362.55</ele>
        <time>2021-08-17T20:02:32Z</time>
      </trkpt>
      <trkpt lat="44.03639" lon="1.69329">
        <ele>362.55</ele>
        <time>2021-08-17T20:02:33Z</time>
      </trkpt>
      <trkpt lat="44.03628" lon="1.69349">
        <ele>364.48</ele>
        <time>2021-08-17T20:02:43Z</time>
      </trkpt>
      <trkpt lat="44.03616" lon="1.69371">
        <ele>365.44</ele>
        <time>2021-08-17T20:02:54Z</time>
      </trkpt>
      <trkpt lat="44.03603" lon="1.69392">
        <ele>366.88</ele>
        <time>2021-08-17T20:03:04Z</time>
      </trkpt>
      <trkpt lat="44.03591" lon="1.69414">
        <ele>368.32</ele>
        <time>2021-08-17T20:03:14Z</time>
      </trkpt>
      <trkpt lat="44.03581" lon="1.69436">
        <ele>370.24</ele>
        <time>2021-08-17T20:03:24Z</time>
      </trkpt>
      <trkpt lat="44.03572" lon="1.69456">
        <ele>371.69</ele>
        <time>2021-08-17T20:03:33Z</time>
      </trkpt>
      <trkpt lat="44.03566" lon="1.69475">
        <ele>372.65</ele>
        <time>2021-08-17T20:03:41Z</time>
      </trkpt>
      <trkpt lat="44.03561" lon="1.69493">
        <ele>373.61</ele>
        <time>2021-08-17T20:03:48Z</time>
      </trkpt>
      <trkpt lat="44.03554" lon="1.69517">
        <ele>375.53</ele>
        <time>2021-08-17T20:03:57Z</time>
      </trkpt>
      <trkpt lat="44.03547" lon="1.69546">
        <ele>376.49</ele>
        <time>2021-08-17T20:04:06Z</time>
      </trkpt>
      <trkpt lat="44.03542" lon="1.69574">
        <ele>377.45</ele>
        <time>2021-08-17T20:04:15Z</time>
      </trkpt>
      <trkpt lat="44.03541" lon="1.69607">
        <ele>378.9</ele>
        <time>2021-08-17T20:04:24Z</time>
      </trkpt>
      <trkpt lat="44.0354" lon="1.69635">
        <ele>379.86</ele>
        <time>2021-08-17T20:04:33Z</time>
      </trkpt>
      <trkpt lat="44.03545" lon="1.69663">
        <ele>381.3</ele>
        <time>2021-08-17T20:04:41Z</time>
      </trkpt>
      <trkpt lat="44.0355" lon="1.69683">
        <ele>382.26</ele>
        <time>2021-08-17T20:04:48Z</time>
      </trkpt>
      <trkpt lat="44.03556" lon="1.69703">
        <ele>383.7</ele>
        <time>2021-08-17T20:04:55Z</time>
      </trkpt>
      <trkpt lat="44.03562" lon="1.69724">
        <ele>384.66</ele>
        <time>2021-08-17T20:05:03Z</time>
      </trkpt>
      <trkpt lat="44.03567" lon="1.69745">
        <ele>386.11</ele>
        <time>2021-08-17T20:05:11Z</time>
      </trkpt>
      <trkpt lat="44.03569" lon="1.69748">
        <ele>386.11</ele>
        <time>2021-08-17T20:05:13Z</time>
      </trkpt>
      <trkpt lat="44.0357" lon="1.69749">
        <ele>386.59</ele>
        <time>2021-08-17T20:05:14Z</time>
      </trkpt>
      <trkpt lat="44.03571" lon="1.69751">
        <ele>386.59</ele>
        <time>2021-08-17T20:05:15Z</time>
      </trkpt>
      <trkpt lat="44.03572" lon="1.69753">
        <ele>386.59</ele>
        <time>2021-08-17T20:05:16Z</time>
      </trkpt>
      <trkpt lat="44.03572" lon="1.69755">
        <ele>387.07</ele>
        <time>2021-08-17T20:05:17Z</time>
      </trkpt>
      <trkpt lat="44.03573" lon="1.69757">
        <ele>387.07</ele>
        <time>2021-08-17T20:05:18Z</time>
      </trkpt>
      <trkpt lat="44.03579" lon="1.69777">
        <ele>388.03</ele>
        <time>2021-08-17T20:05:27Z</time>
      </trkpt>
      <trkpt lat="44.03586" lon="1.698">
        <ele>389.95</ele>
        <time>2021-08-17T20:05:38Z</time>
      </trkpt>
      <trkpt lat="44.03591" lon="1.69818">
        <ele>390.91</ele>
        <time>2021-08-17T20:05:46Z</time>
      </trkpt>
      <trkpt lat="44.03599" lon="1.69843">
        <ele>392.84</ele>
        <time>2021-08-17T20:05:58Z</time>
      </trkpt>
      <trkpt lat="44.03604" lon="1.69863">
        <ele>394.76</ele>
        <time>2021-08-17T20:06:07Z</time>
      </trkpt>
      <trkpt lat="44.03606" lon="1.6989">
        <ele>395.72</ele>
        <time>2021-08-17T20:06:17Z</time>
      </trkpt>
      <trkpt lat="44.03606" lon="1.69922">
        <ele>396.68</ele>
        <time>2021-08-17T20:06:26Z</time>
      </trkpt>
      <trkpt lat="44.0361" lon="1.69957">
        <ele>397.64</ele>
        <time>2021-08-17T20:06:35Z</time>
      </trkpt>
      <trkpt lat="44.03616" lon="1.6999">
        <ele>398.6</ele>
        <time>2021-08-17T20:06:43Z</time>
      </trkpt>
      <trkpt lat="44.03627" lon="1.70038">
        <ele>399.08</ele>
        <time>2021-08-17T20:06:53Z</time>
      </trkpt>
      <trkpt lat="44.03637" lon="1.70091">
        <ele>399.08</ele>
        <time>2021-08-17T20:07:03Z</time>
      </trkpt>
      <trkpt lat="44.03643" lon="1.70125">
        <ele>399.08</ele>
        <time>2021-08-17T20:07:09Z</time>
      </trkpt>
      <trkpt lat="44.03652" lon="1.70169">
        <ele>399.57</ele>
        <time>2021-08-17T20:07:17Z</time>
      </trkpt>
      <trkpt lat="44.03663" lon="1.70204">
        <ele>401.01</ele>
        <time>2021-08-17T20:07:25Z</time>
      </trkpt>
      <trkpt lat="44.03677" lon="1.7024">
        <ele>402.45</ele>
        <time>2021-08-17T20:07:34Z</time>
      </trkpt>
      <trkpt lat="44.03695" lon="1.70289">
        <ele>402.45</ele>
        <time>2021-08-17T20:07:43Z</time>
      </trkpt>
      <trkpt lat="44.03713" lon="1.70333">
        <ele>402.45</ele>
        <time>2021-08-17T20:07:52Z</time>
      </trkpt>
      <trkpt lat="44.03729" lon="1.70372">
        <ele>402.93</ele>
        <time>2021-08-17T20:08:01Z</time>
      </trkpt>
      <trkpt lat="44.03744" lon="1.70405">
        <ele>404.85</ele>
        <time>2021-08-17T20:08:10Z</time>
      </trkpt>
      <trkpt lat="44.03753" lon="1.70428">
        <ele>405.81</ele>
        <time>2021-08-17T20:08:18Z</time>
      </trkpt>
      <trkpt lat="44.03758" lon="1.7045">
        <ele>407.74</ele>
        <time>2021-08-17T20:08:26Z</time>
      </trkpt>
      <trkpt lat="44.03759" lon="1.70466">
        <ele>409.18</ele>
        <time>2021-08-17T20:08:33Z</time>
      </trkpt>
      <trkpt lat="44.03758" lon="1.7049">
        <ele>410.62</ele>
        <time>2021-08-17T20:08:42Z</time>
      </trkpt>
      <trkpt lat="44.03757" lon="1.70515">
        <ele>412.06</ele>
        <time>2021-08-17T20:08:51Z</time>
      </trkpt>
      <trkpt lat="44.0376" lon="1.70547">
        <ele>412.54</ele>
        <time>2021-08-17T20:08:59Z</time>
      </trkpt>
      <trkpt lat="44.03771" lon="1.70587">
        <ele>413.02</ele>
        <time>2021-08-17T20:09:08Z</time>
      </trkpt>
      <trkpt lat="44.03785" lon="1.70621">
        <ele>413.98</ele>
        <time>2021-08-17T20:09:17Z</time>
      </trkpt>
      <trkpt lat="44.03793" lon="1.70632">
        <ele>413.98</ele>
        <time>2021-08-17T20:09:20Z</time>
      </trkpt>
      <trkpt lat="44.03796" lon="1.70638">
        <ele>413.98</ele>
        <time>2021-08-17T20:09:21Z</time>
      </trkpt>
      <trkpt lat="44.03798" lon="1.70644">
        <ele>412.06</ele>
        <time>2021-08-17T20:09:22Z</time>
      </trkpt>
      <trkpt lat="44.03799" lon="1.7065">
        <ele>412.06</ele>
        <time>2021-08-17T20:09:23Z</time>
      </trkpt>
      <trkpt lat="44.03801" lon="1.70657">
        <ele>411.58</ele>
        <time>2021-08-17T20:09:24Z</time>
      </trkpt>
      <trkpt lat="44.03801" lon="1.70665">
        <ele>411.1</ele>
        <time>2021-08-17T20:09:25Z</time>
      </trkpt>
      <trkpt lat="44.03802" lon="1.70674">
        <ele>410.62</ele>
        <time>2021-08-17T20:09:26Z</time>
      </trkpt>
      <trkpt lat="44.03802" lon="1.70683">
        <ele>410.14</ele>
        <time>2021-08-17T20:09:27Z</time>
      </trkpt>
      <trkpt lat="44.03801" lon="1.70692">
        <ele>409.66</ele>
        <time>2021-08-17T20:09:28Z</time>
      </trkpt>
      <trkpt lat="44.038" lon="1.70702">
        <ele>409.18</ele>
        <time>2021-08-17T20:09:29Z</time>
      </trkpt>
      <trkpt lat="44.03799" lon="1.70743">
        <ele>407.26</ele>
        <time>2021-08-17T20:09:33Z</time>
      </trkpt>
      <trkpt lat="44.03805" lon="1.70809">
        <ele>406.77</ele>
        <time>2021-08-17T20:09:40Z</time>
      </trkpt>
      <trkpt lat="44.03805" lon="1.70847">
        <ele>408.22</ele>
        <time>2021-08-17T20:09:45Z</time>
      </trkpt>
      <trkpt lat="44.03803" lon="1.70859">
        <ele>408.7</ele>
        <time>2021-08-17T20:09:47Z</time>
      </trkpt>
      <trkpt lat="44.03792" lon="1.70903">
        <ele>410.62</ele>
        <time>2021-08-17T20:09:55Z</time>
      </trkpt>
      <trkpt lat="44.03776" lon="1.70934">
        <ele>412.06</ele>
        <time>2021-08-17T20:10:02Z</time>
      </trkpt>
      <trkpt lat="44.03769" lon="1.70948">
        <ele>412.54</ele>
        <time>2021-08-17T20:10:05Z</time>
      </trkpt>
      <trkpt lat="44.03756" lon="1.7099">
        <ele>413.02</ele>
        <time>2021-08-17T20:10:13Z</time>
      </trkpt>
      <trkpt lat="44.03749" lon="1.71041">
        <ele>414.47</ele>
        <time>2021-08-17T20:10:23Z</time>
      </trkpt>
      <trkpt lat="44.03745" lon="1.7107">
        <ele>415.91</ele>
        <time>2021-08-17T20:10:31Z</time>
      </trkpt>
      <trkpt lat="44.03741" lon="1.71101">
        <ele>416.87</ele>
        <time>2021-08-17T20:10:41Z</time>
      </trkpt>
      <trkpt lat="44.03737" lon="1.71128">
        <ele>418.79</ele>
        <time>2021-08-17T20:10:49Z</time>
      </trkpt>
      <trkpt lat="44.03735" lon="1.71156">
        <ele>419.75</ele>
        <time>2021-08-17T20:10:58Z</time>
      </trkpt>
      <trkpt lat="44.03731" lon="1.71189">
        <ele>421.19</ele>
        <time>2021-08-17T20:11:06Z</time>
      </trkpt>
      <trkpt lat="44.03727" lon="1.7123">
        <ele>422.64</ele>
        <time>2021-08-17T20:11:16Z</time>
      </trkpt>
      <trkpt lat="44.03721" lon="1.71256">
        <ele>422.64</ele>
        <time>2021-08-17T20:11:22Z</time>
      </trkpt>
      <trkpt lat="44.03714" lon="1.71279">
        <ele>422.16</ele>
        <time>2021-08-17T20:11:27Z</time>
      </trkpt>
      <trkpt lat="44.03713" lon="1.71285">
        <ele>422.16</ele>
        <time>2021-08-17T20:11:28Z</time>
      </trkpt>
      <trkpt lat="44.03711" lon="1.7129">
        <ele>422.16</ele>
        <time>2021-08-17T20:11:29Z</time>
      </trkpt>
      <trkpt lat="44.03703" lon="1.71313">
        <ele>420.71</ele>
        <time>2021-08-17T20:11:34Z</time>
      </trkpt>
      <trkpt lat="44.03701" lon="1.71358">
        <ele>418.31</ele>
        <time>2021-08-17T20:11:39Z</time>
      </trkpt>
      <trkpt lat="44.03703" lon="1.71421">
        <ele>418.31</ele>
        <time>2021-08-17T20:11:46Z</time>
      </trkpt>
      <trkpt lat="44.03704" lon="1.71442">
        <ele>419.27</ele>
        <time>2021-08-17T20:11:49Z</time>
      </trkpt>
      <trkpt lat="44.03706" lon="1.7146">
        <ele>420.23</ele>
        <time>2021-08-17T20:11:52Z</time>
      </trkpt>
      <trkpt lat="44.03707" lon="1.71466">
        <ele>420.23</ele>
        <time>2021-08-17T20:11:53Z</time>
      </trkpt>
      <trkpt lat="44.0372" lon="1.71502">
        <ele>421.68</ele>
        <time>2021-08-17T20:12:01Z</time>
      </trkpt>
      <trkpt lat="44.0373" lon="1.71531">
        <ele>423.12</ele>
        <time>2021-08-17T20:12:09Z</time>
      </trkpt>
      <trkpt lat="44.03742" lon="1.71555">
        <ele>424.56</ele>
        <time>2021-08-17T20:12:18Z</time>
      </trkpt>
      <trkpt lat="44.03754" lon="1.71576">
        <ele>426</ele>
        <time>2021-08-17T20:12:27Z</time>
      </trkpt>
      <trkpt lat="44.03769" lon="1.71601">
        <ele>427.44</ele>
        <time>2021-08-17T20:12:38Z</time>
      </trkpt>
      <trkpt lat="44.03783" lon="1.71625">
        <ele>429.37</ele>
        <time>2021-08-17T20:12:48Z</time>
      </trkpt>
      <trkpt lat="44.03798" lon="1.71651">
        <ele>430.33</ele>
        <time>2021-08-17T20:12:57Z</time>
      </trkpt>
      <trkpt lat="44.0381" lon="1.71675">
        <ele>431.29</ele>
        <time>2021-08-17T20:13:05Z</time>
      </trkpt>
      <trkpt lat="44.03832" lon="1.71713">
        <ele>432.73</ele>
        <time>2021-08-17T20:13:17Z</time>
      </trkpt>
      <trkpt lat="44.03851" lon="1.71744">
        <ele>434.17</ele>
        <time>2021-08-17T20:13:27Z</time>
      </trkpt>
      <trkpt lat="44.03866" lon="1.7176">
        <ele>435.13</ele>
        <time>2021-08-17T20:13:35Z</time>
      </trkpt>
      <trkpt lat="44.0388" lon="1.71772">
        <ele>436.58</ele>
        <time>2021-08-17T20:13:42Z</time>
      </trkpt>
      <trkpt lat="44.03895" lon="1.71789">
        <ele>438.02</ele>
        <time>2021-08-17T20:13:50Z</time>
      </trkpt>
      <trkpt lat="44.03912" lon="1.71813">
        <ele>439.46</ele>
        <time>2021-08-17T20:13:59Z</time>
      </trkpt>
      <trkpt lat="44.03926" lon="1.71839">
        <ele>441.38</ele>
        <time>2021-08-17T20:14:07Z</time>
      </trkpt>
      <trkpt lat="44.03942" lon="1.71875">
        <ele>442.82</ele>
        <time>2021-08-17T20:14:18Z</time>
      </trkpt>
      <trkpt lat="44.03961" lon="1.71911">
        <ele>443.79</ele>
        <time>2021-08-17T20:14:28Z</time>
      </trkpt>
      <trkpt lat="44.03978" lon="1.71933">
        <ele>444.27</ele>
        <time>2021-08-17T20:14:35Z</time>
      </trkpt>
      <trkpt lat="44.03998" lon="1.71952">
        <ele>444.27</ele>
        <time>2021-08-17T20:14:42Z</time>
      </trkpt>
      <trkpt lat="44.04028" lon="1.71988">
        <ele>444.27</ele>
        <time>2021-08-17T20:14:50Z</time>
      </trkpt>
      <trkpt lat="44.04042" lon="1.72013">
        <ele>442.82</ele>
        <time>2021-08-17T20:14:54Z</time>
      </trkpt>
      <trkpt lat="44.04054" lon="1.72041">
        <ele>441.86</ele>
        <time>2021-08-17T20:14:58Z</time>
      </trkpt>
      <trkpt lat="44.04055" lon="1.72049">
        <ele>440.9</ele>
        <time>2021-08-17T20:14:59Z</time>
      </trkpt>
      <trkpt lat="44.04055" lon="1.72058">
        <ele>440.9</ele>
        <time>2021-08-17T20:15:00Z</time>
      </trkpt>
      <trkpt lat="44.04054" lon="1.72095">
        <ele>438.5</ele>
        <time>2021-08-17T20:15:04Z</time>
      </trkpt>
      <trkpt lat="44.04055" lon="1.72105">
        <ele>438.5</ele>
        <time>2021-08-17T20:15:05Z</time>
      </trkpt>
      <trkpt lat="44.04069" lon="1.72153">
        <ele>438.98</ele>
        <time>2021-08-17T20:15:11Z</time>
      </trkpt>
      <trkpt lat="44.04077" lon="1.7218">
        <ele>438.98</ele>
        <time>2021-08-17T20:15:16Z</time>
      </trkpt>
      <trkpt lat="44.04075" lon="1.72184">
        <ele>438.98</ele>
        <time>2021-08-17T20:15:17Z</time>
      </trkpt>
      <trkpt lat="44.04072" lon="1.72185">
        <ele>438.98</ele>
        <time>2021-08-17T20:15:18Z</time>
      </trkpt>
      <trkpt lat="44.04069" lon="1.72184">
        <ele>438.98</ele>
        <time>2021-08-17T20:15:19Z</time>
      </trkpt>
      <trkpt lat="44.04065" lon="1.72182">
        <ele>438.98</ele>
        <time>2021-08-17T20:15:20Z</time>
      </trkpt>
      <trkpt lat="44.04032" lon="1.7216">
        <ele>435.61</ele>
        <time>2021-08-17T20:15:27Z</time>
      </trkpt>
      <trkpt lat="44.04006" lon="1.72146">
        <ele>431.77</ele>
        <time>2021-08-17T20:15:31Z</time>
      </trkpt>
      <trkpt lat="44.03985" lon="1.72135">
        <ele>428.4</ele>
        <time>2021-08-17T20:15:34Z</time>
      </trkpt>
      <trkpt lat="44.03948" lon="1.72122">
        <ele>424.56</ele>
        <time>2021-08-17T20:15:39Z</time>
      </trkpt>
      <trkpt lat="44.03934" lon="1.72118">
        <ele>423.12</ele>
        <time>2021-08-17T20:15:41Z</time>
      </trkpt>
      <trkpt lat="44.03927" lon="1.72114">
        <ele>422.16</ele>
        <time>2021-08-17T20:15:42Z</time>
      </trkpt>
      <trkpt lat="44.03921" lon="1.7211">
        <ele>421.68</ele>
        <time>2021-08-17T20:15:43Z</time>
      </trkpt>
      <trkpt lat="44.03913" lon="1.72104">
        <ele>420.71</ele>
        <time>2021-08-17T20:15:44Z</time>
      </trkpt>
      <trkpt lat="44.03907" lon="1.72098">
        <ele>419.75</ele>
        <time>2021-08-17T20:15:45Z</time>
      </trkpt>
      <trkpt lat="44.03879" lon="1.72074">
        <ele>415.91</ele>
        <time>2021-08-17T20:15:49Z</time>
      </trkpt>
      <trkpt lat="44.03847" lon="1.72056">
        <ele>412.06</ele>
        <time>2021-08-17T20:15:53Z</time>
      </trkpt>
      <trkpt lat="44.03818" lon="1.72035">
        <ele>408.7</ele>
        <time>2021-08-17T20:15:57Z</time>
      </trkpt>
      <trkpt lat="44.03789" lon="1.72021">
        <ele>405.33</ele>
        <time>2021-08-17T20:16:01Z</time>
      </trkpt>
      <trkpt lat="44.03768" lon="1.72012">
        <ele>403.41</ele>
        <time>2021-08-17T20:16:04Z</time>
      </trkpt>
      <trkpt lat="44.03742" lon="1.71998">
        <ele>400.05</ele>
        <time>2021-08-17T20:16:08Z</time>
      </trkpt>
      <trkpt lat="44.03715" lon="1.71985">
        <ele>396.68</ele>
        <time>2021-08-17T20:16:13Z</time>
      </trkpt>
      <trkpt lat="44.0371" lon="1.71983">
        <ele>396.2</ele>
        <time>2021-08-17T20:16:14Z</time>
      </trkpt>
      <trkpt lat="44.03705" lon="1.71983">
        <ele>395.72</ele>
        <time>2021-08-17T20:16:15Z</time>
      </trkpt>
      <trkpt lat="44.037" lon="1.71983">
        <ele>395.72</ele>
        <time>2021-08-17T20:16:16Z</time>
      </trkpt>
      <trkpt lat="44.03694" lon="1.71984">
        <ele>394.76</ele>
        <time>2021-08-17T20:16:17Z</time>
      </trkpt>
      <trkpt lat="44.03688" lon="1.71985">
        <ele>394.76</ele>
        <time>2021-08-17T20:16:18Z</time>
      </trkpt>
      <trkpt lat="44.03672" lon="1.71987">
        <ele>393.8</ele>
        <time>2021-08-17T20:16:21Z</time>
      </trkpt>
      <trkpt lat="44.03661" lon="1.71986">
        <ele>394.28</ele>
        <time>2021-08-17T20:16:23Z</time>
      </trkpt>
      <trkpt lat="44.03625" lon="1.71977">
        <ele>393.32</ele>
        <time>2021-08-17T20:16:30Z</time>
      </trkpt>
      <trkpt lat="44.03585" lon="1.71969">
        <ele>392.36</ele>
        <time>2021-08-17T20:16:38Z</time>
      </trkpt>
      <trkpt lat="44.03555" lon="1.71963">
        <ele>391.39</ele>
        <time>2021-08-17T20:16:44Z</time>
      </trkpt>
      <trkpt lat="44.03515" lon="1.71946">
        <ele>390.91</ele>
        <time>2021-08-17T20:16:51Z</time>
      </trkpt>
      <trkpt lat="44.03478" lon="1.71923">
        <ele>390.43</ele>
        <time>2021-08-17T20:16:58Z</time>
      </trkpt>
      <trkpt lat="44.0344" lon="1.71901">
        <ele>390.43</ele>
        <time>2021-08-17T20:17:06Z</time>
      </trkpt>
      <trkpt lat="44.03404" lon="1.71878">
        <ele>390.43</ele>
        <time>2021-08-17T20:17:14Z</time>
      </trkpt>
      <trkpt lat="44.03385" lon="1.71866">
        <ele>391.87</ele>
        <time>2021-08-17T20:17:18Z</time>
      </trkpt>
      <trkpt lat="44.03363" lon="1.71851">
        <ele>391.87</ele>
        <time>2021-08-17T20:17:23Z</time>
      </trkpt>
      <trkpt lat="44.03359" lon="1.71848">
        <ele>392.36</ele>
        <time>2021-08-17T20:17:24Z</time>
      </trkpt>
      <trkpt lat="44.03355" lon="1.71846">
        <ele>392.36</ele>
        <time>2021-08-17T20:17:25Z</time>
      </trkpt>
      <trkpt lat="44.0335" lon="1.71844">
        <ele>392.36</ele>
        <time>2021-08-17T20:17:26Z</time>
      </trkpt>
      <trkpt lat="44.03345" lon="1.71841">
        <ele>392.36</ele>
        <time>2021-08-17T20:17:27Z</time>
      </trkpt>
      <trkpt lat="44.03341" lon="1.71838">
        <ele>392.36</ele>
        <time>2021-08-17T20:17:28Z</time>
      </trkpt>
      <trkpt lat="44.033" lon="1.71809">
        <ele>392.36</ele>
        <time>2021-08-17T20:17:38Z</time>
      </trkpt>
      <trkpt lat="44.03292" lon="1.71805">
        <ele>392.36</ele>
        <time>2021-08-17T20:17:40Z</time>
      </trkpt>
      <trkpt lat="44.03287" lon="1.71803">
        <ele>392.36</ele>
        <time>2021-08-17T20:17:41Z</time>
      </trkpt>
      <trkpt lat="44.03255" lon="1.71791">
        <ele>392.84</ele>
        <time>2021-08-17T20:17:48Z</time>
      </trkpt>
      <trkpt lat="44.0325" lon="1.7179">
        <ele>392.84</ele>
        <time>2021-08-17T20:17:49Z</time>
      </trkpt>
      <trkpt lat="44.03214" lon="1.7178">
        <ele>393.32</ele>
        <time>2021-08-17T20:17:57Z</time>
      </trkpt>
      <trkpt lat="44.032" lon="1.71778">
        <ele>393.8</ele>
        <time>2021-08-17T20:18:00Z</time>
      </trkpt>
      <trkpt lat="44.03191" lon="1.71776">
        <ele>393.8</ele>
        <time>2021-08-17T20:18:02Z</time>
      </trkpt>
      <trkpt lat="44.03186" lon="1.71776">
        <ele>393.8</ele>
        <time>2021-08-17T20:18:03Z</time>
      </trkpt>
      <trkpt lat="44.03182" lon="1.71775">
        <ele>394.28</ele>
        <time>2021-08-17T20:18:04Z</time>
      </trkpt>
      <trkpt lat="44.03158" lon="1.7177">
        <ele>394.28</ele>
        <time>2021-08-17T20:18:09Z</time>
      </trkpt>
      <trkpt lat="44.03127" lon="1.71754">
        <ele>394.76</ele>
        <time>2021-08-17T20:18:16Z</time>
      </trkpt>
      <trkpt lat="44.03115" lon="1.71747">
        <ele>395.24</ele>
        <time>2021-08-17T20:18:19Z</time>
      </trkpt>
      <trkpt lat="44.03111" lon="1.71744">
        <ele>395.24</ele>
        <time>2021-08-17T20:18:20Z</time>
      </trkpt>
      <trkpt lat="44.03076" lon="1.71723">
        <ele>395.72</ele>
        <time>2021-08-17T20:18:29Z</time>
      </trkpt>
      <trkpt lat="44.03063" lon="1.71715">
        <ele>395.72</ele>
        <time>2021-08-17T20:18:32Z</time>
      </trkpt>
      <trkpt lat="44.03041" lon="1.71702">
        <ele>395.72</ele>
        <time>2021-08-17T20:18:37Z</time>
      </trkpt>
      <trkpt lat="44.03006" lon="1.71688">
        <ele>396.2</ele>
        <time>2021-08-17T20:18:45Z</time>
      </trkpt>
      <trkpt lat="44.03001" lon="1.71688">
        <ele>396.2</ele>
        <time>2021-08-17T20:18:46Z</time>
      </trkpt>
      <trkpt lat="44.02978" lon="1.71685">
        <ele>396.68</ele>
        <time>2021-08-17T20:18:51Z</time>
      </trkpt>
      <trkpt lat="44.02935" lon="1.71678">
        <ele>397.16</ele>
        <time>2021-08-17T20:19:00Z</time>
      </trkpt>
      <trkpt lat="44.0291" lon="1.71667">
        <ele>397.16</ele>
        <time>2021-08-17T20:19:07Z</time>
      </trkpt>
      <trkpt lat="44.02906" lon="1.71664">
        <ele>397.64</ele>
        <time>2021-08-17T20:19:08Z</time>
      </trkpt>
      <trkpt lat="44.02903" lon="1.71661">
        <ele>397.64</ele>
        <time>2021-08-17T20:19:09Z</time>
      </trkpt>
      <trkpt lat="44.02875" lon="1.71636">
        <ele>398.12</ele>
        <time>2021-08-17T20:19:17Z</time>
      </trkpt>
      <trkpt lat="44.02871" lon="1.71632">
        <ele>398.12</ele>
        <time>2021-08-17T20:19:18Z</time>
      </trkpt>
      <trkpt lat="44.02867" lon="1.71629">
        <ele>398.12</ele>
        <time>2021-08-17T20:19:19Z</time>
      </trkpt>
      <trkpt lat="44.02847" lon="1.71608">
        <ele>398.12</ele>
        <time>2021-08-17T20:19:25Z</time>
      </trkpt>
      <trkpt lat="44.02828" lon="1.71591">
        <ele>398.6</ele>
        <time>2021-08-17T20:19:30Z</time>
      </trkpt>
      <trkpt lat="44.02824" lon="1.71587">
        <ele>398.6</ele>
        <time>2021-08-17T20:19:31Z</time>
      </trkpt>
      <trkpt lat="44.02788" lon="1.71559">
        <ele>399.08</ele>
        <time>2021-08-17T20:19:40Z</time>
      </trkpt>
      <trkpt lat="44.0278" lon="1.71554">
        <ele>399.08</ele>
        <time>2021-08-17T20:19:42Z</time>
      </trkpt>
      <trkpt lat="44.02757" lon="1.71544">
        <ele>399.57</ele>
        <time>2021-08-17T20:19:47Z</time>
      </trkpt>
      <trkpt lat="44.02744" lon="1.71542">
        <ele>399.57</ele>
        <time>2021-08-17T20:19:50Z</time>
      </trkpt>
      <trkpt lat="44.02696" lon="1.71548">
        <ele>400.05</ele>
        <time>2021-08-17T20:20:00Z</time>
      </trkpt>
      <trkpt lat="44.02686" lon="1.7155">
        <ele>400.05</ele>
        <time>2021-08-17T20:20:02Z</time>
      </trkpt>
      <trkpt lat="44.02681" lon="1.71549">
        <ele>400.05</ele>
        <time>2021-08-17T20:20:03Z</time>
      </trkpt>
      <trkpt lat="44.02671" lon="1.71547">
        <ele>400.05</ele>
        <time>2021-08-17T20:20:05Z</time>
      </trkpt>
      <trkpt lat="44.02667" lon="1.71545">
        <ele>400.05</ele>
        <time>2021-08-17T20:20:06Z</time>
      </trkpt>
      <trkpt lat="44.02663" lon="1.71543">
        <ele>400.05</ele>
        <time>2021-08-17T20:20:07Z</time>
      </trkpt>
      <trkpt lat="44.02634" lon="1.71518">
        <ele>400.05</ele>
        <time>2021-08-17T20:20:14Z</time>
      </trkpt>
      <trkpt lat="44.02618" lon="1.715">
        <ele>400.05</ele>
        <time>2021-08-17T20:20:18Z</time>
      </trkpt>
      <trkpt lat="44.02589" lon="1.71474">
        <ele>401.01</ele>
        <time>2021-08-17T20:20:25Z</time>
      </trkpt>
      <trkpt lat="44.02569" lon="1.71467">
        <ele>401.01</ele>
        <time>2021-08-17T20:20:29Z</time>
      </trkpt>
      <trkpt lat="44.02528" lon="1.71464">
        <ele>401.49</ele>
        <time>2021-08-17T20:20:37Z</time>
      </trkpt>
      <trkpt lat="44.02523" lon="1.71463">
        <ele>401.49</ele>
        <time>2021-08-17T20:20:38Z</time>
      </trkpt>
      <trkpt lat="44.02518" lon="1.71461">
        <ele>401.49</ele>
        <time>2021-08-17T20:20:39Z</time>
      </trkpt>
      <trkpt lat="44.02498" lon="1.71444">
        <ele>401.49</ele>
        <time>2021-08-17T20:20:45Z</time>
      </trkpt>
      <trkpt lat="44.02489" lon="1.71429">
        <ele>401.49</ele>
        <time>2021-08-17T20:20:48Z</time>
      </trkpt>
      <trkpt lat="44.02485" lon="1.71417">
        <ele>401.49</ele>
        <time>2021-08-17T20:20:50Z</time>
      </trkpt>
      <trkpt lat="44.02483" lon="1.71412">
        <ele>401.49</ele>
        <time>2021-08-17T20:20:51Z</time>
      </trkpt>
      <trkpt lat="44.0248" lon="1.71408">
        <ele>401.97</ele>
        <time>2021-08-17T20:20:52Z</time>
      </trkpt>
      <trkpt lat="44.02478" lon="1.71403">
        <ele>401.97</ele>
        <time>2021-08-17T20:20:53Z</time>
      </trkpt>
      <trkpt lat="44.02475" lon="1.71399">
        <ele>401.97</ele>
        <time>2021-08-17T20:20:54Z</time>
      </trkpt>
      <trkpt lat="44.02471" lon="1.71395">
        <ele>401.97</ele>
        <time>2021-08-17T20:20:55Z</time>
      </trkpt>
      <trkpt lat="44.02467" lon="1.71391">
        <ele>401.97</ele>
        <time>2021-08-17T20:20:56Z</time>
      </trkpt>
      <trkpt lat="44.02444" lon="1.71377">
        <ele>401.97</ele>
        <time>2021-08-17T20:21:01Z</time>
      </trkpt>
      <trkpt lat="44.02438" lon="1.71376">
        <ele>401.97</ele>
        <time>2021-08-17T20:21:02Z</time>
      </trkpt>
      <trkpt lat="44.02433" lon="1.71376">
        <ele>401.97</ele>
        <time>2021-08-17T20:21:03Z</time>
      </trkpt>
      <trkpt lat="44.02391" lon="1.71382">
        <ele>401.97</ele>
        <time>2021-08-17T20:21:11Z</time>
      </trkpt>
      <trkpt lat="44.02376" lon="1.71384">
        <ele>401.97</ele>
        <time>2021-08-17T20:21:14Z</time>
      </trkpt>
      <trkpt lat="44.02371" lon="1.71383">
        <ele>401.97</ele>
        <time>2021-08-17T20:21:15Z</time>
      </trkpt>
      <trkpt lat="44.02366" lon="1.7138">
        <ele>401.97</ele>
        <time>2021-08-17T20:21:16Z</time>
      </trkpt>
      <trkpt lat="44.02362" lon="1.71376">
        <ele>401.97</ele>
        <time>2021-08-17T20:21:17Z</time>
      </trkpt>
      <trkpt lat="44.02359" lon="1.71371">
        <ele>401.97</ele>
        <time>2021-08-17T20:21:18Z</time>
      </trkpt>
      <trkpt lat="44.02356" lon="1.71365">
        <ele>401.97</ele>
        <time>2021-08-17T20:21:19Z</time>
      </trkpt>
      <trkpt lat="44.02354" lon="1.71359">
        <ele>401.97</ele>
        <time>2021-08-17T20:21:20Z</time>
      </trkpt>
      <trkpt lat="44.0234" lon="1.71311">
        <ele>401.49</ele>
        <time>2021-08-17T20:21:27Z</time>
      </trkpt>
      <trkpt lat="44.0232" lon="1.71271">
        <ele>399.57</ele>
        <time>2021-08-17T20:21:33Z</time>
      </trkpt>
      <trkpt lat="44.02316" lon="1.71266">
        <ele>399.57</ele>
        <time>2021-08-17T20:21:34Z</time>
      </trkpt>
      <trkpt lat="44.0231" lon="1.71261">
        <ele>398.6</ele>
        <time>2021-08-17T20:21:35Z</time>
      </trkpt>
      <trkpt lat="44.02304" lon="1.71258">
        <ele>398.6</ele>
        <time>2021-08-17T20:21:36Z</time>
      </trkpt>
      <trkpt lat="44.02298" lon="1.71255">
        <ele>398.12</ele>
        <time>2021-08-17T20:21:37Z</time>
      </trkpt>
      <trkpt lat="44.02291" lon="1.71252">
        <ele>397.64</ele>
        <time>2021-08-17T20:21:38Z</time>
      </trkpt>
      <trkpt lat="44.02285" lon="1.7125">
        <ele>397.16</ele>
        <time>2021-08-17T20:21:39Z</time>
      </trkpt>
      <trkpt lat="44.02278" lon="1.71249">
        <ele>397.16</ele>
        <time>2021-08-17T20:21:40Z</time>
      </trkpt>
      <trkpt lat="44.02272" lon="1.71247">
        <ele>396.68</ele>
        <time>2021-08-17T20:21:41Z</time>
      </trkpt>
      <trkpt lat="44.02267" lon="1.71244">
        <ele>396.2</ele>
        <time>2021-08-17T20:21:42Z</time>
      </trkpt>
      <trkpt lat="44.02263" lon="1.71238">
        <ele>396.2</ele>
        <time>2021-08-17T20:21:43Z</time>
      </trkpt>
      <trkpt lat="44.02259" lon="1.71232">
        <ele>395.72</ele>
        <time>2021-08-17T20:21:44Z</time>
      </trkpt>
      <trkpt lat="44.02257" lon="1.71225">
        <ele>395.72</ele>
        <time>2021-08-17T20:21:45Z</time>
      </trkpt>
      <trkpt lat="44.02254" lon="1.71217">
        <ele>395.24</ele>
        <time>2021-08-17T20:21:46Z</time>
      </trkpt>
      <trkpt lat="44.02234" lon="1.71154">
        <ele>392.84</ele>
        <time>2021-08-17T20:21:54Z</time>
      </trkpt>
      <trkpt lat="44.0223" lon="1.71148">
        <ele>392.84</ele>
        <time>2021-08-17T20:21:55Z</time>
      </trkpt>
      <trkpt lat="44.02226" lon="1.71141">
        <ele>392.36</ele>
        <time>2021-08-17T20:21:56Z</time>
      </trkpt>
      <trkpt lat="44.02221" lon="1.71136">
        <ele>391.87</ele>
        <time>2021-08-17T20:21:57Z</time>
      </trkpt>
      <trkpt lat="44.02215" lon="1.71132">
        <ele>391.87</ele>
        <time>2021-08-17T20:21:58Z</time>
      </trkpt>
      <trkpt lat="44.02209" lon="1.71129">
        <ele>391.87</ele>
        <time>2021-08-17T20:21:59Z</time>
      </trkpt>
      <trkpt lat="44.02203" lon="1.71126">
        <ele>391.39</ele>
        <time>2021-08-17T20:22:00Z</time>
      </trkpt>
      <trkpt lat="44.02196" lon="1.71125">
        <ele>390.91</ele>
        <time>2021-08-17T20:22:01Z</time>
      </trkpt>
      <trkpt lat="44.0219" lon="1.71124">
        <ele>390.91</ele>
        <time>2021-08-17T20:22:02Z</time>
      </trkpt>
      <trkpt lat="44.02177" lon="1.7112">
        <ele>390.43</ele>
        <time>2021-08-17T20:22:04Z</time>
      </trkpt>
      <trkpt lat="44.0217" lon="1.71117">
        <ele>389.47</ele>
        <time>2021-08-17T20:22:05Z</time>
      </trkpt>
      <trkpt lat="44.02164" lon="1.71113">
        <ele>389.47</ele>
        <time>2021-08-17T20:22:06Z</time>
      </trkpt>
      <trkpt lat="44.02158" lon="1.71109">
        <ele>388.99</ele>
        <time>2021-08-17T20:22:07Z</time>
      </trkpt>
      <trkpt lat="44.02152" lon="1.71104">
        <ele>388.99</ele>
        <time>2021-08-17T20:22:08Z</time>
      </trkpt>
      <trkpt lat="44.02142" lon="1.71092">
        <ele>388.51</ele>
        <time>2021-08-17T20:22:10Z</time>
      </trkpt>
      <trkpt lat="44.02138" lon="1.71086">
        <ele>388.03</ele>
        <time>2021-08-17T20:22:11Z</time>
      </trkpt>
      <trkpt lat="44.02135" lon="1.71079">
        <ele>387.55</ele>
        <time>2021-08-17T20:22:12Z</time>
      </trkpt>
      <trkpt lat="44.02132" lon="1.71071">
        <ele>387.07</ele>
        <time>2021-08-17T20:22:13Z</time>
      </trkpt>
      <trkpt lat="44.0213" lon="1.71063">
        <ele>387.07</ele>
        <time>2021-08-17T20:22:14Z</time>
      </trkpt>
      <trkpt lat="44.02129" lon="1.71055">
        <ele>387.07</ele>
        <time>2021-08-17T20:22:15Z</time>
      </trkpt>
      <trkpt lat="44.02127" lon="1.71046">
        <ele>387.07</ele>
        <time>2021-08-17T20:22:16Z</time>
      </trkpt>
      <trkpt lat="44.02125" lon="1.71038">
        <ele>386.11</ele>
        <time>2021-08-17T20:22:17Z</time>
      </trkpt>
      <trkpt lat="44.02119" lon="1.71022">
        <ele>385.63</ele>
        <time>2021-08-17T20:22:19Z</time>
      </trkpt>
      <trkpt lat="44.02116" lon="1.71015">
        <ele>385.15</ele>
        <time>2021-08-17T20:22:20Z</time>
      </trkpt>
      <trkpt lat="44.02112" lon="1.71008">
        <ele>385.15</ele>
        <time>2021-08-17T20:22:21Z</time>
      </trkpt>
      <trkpt lat="44.02107" lon="1.71001">
        <ele>384.66</ele>
        <time>2021-08-17T20:22:22Z</time>
      </trkpt>
      <trkpt lat="44.02102" lon="1.70996">
        <ele>384.18</ele>
        <time>2021-08-17T20:22:23Z</time>
      </trkpt>
      <trkpt lat="44.02097" lon="1.70993">
        <ele>383.7</ele>
        <time>2021-08-17T20:22:24Z</time>
      </trkpt>
      <trkpt lat="44.02091" lon="1.70991">
        <ele>383.7</ele>
        <time>2021-08-17T20:22:25Z</time>
      </trkpt>
      <trkpt lat="44.02085" lon="1.7099">
        <ele>383.22</ele>
        <time>2021-08-17T20:22:26Z</time>
      </trkpt>
      <trkpt lat="44.02079" lon="1.70989">
        <ele>382.74</ele>
        <time>2021-08-17T20:22:27Z</time>
      </trkpt>
      <trkpt lat="44.02072" lon="1.7099">
        <ele>382.74</ele>
        <time>2021-08-17T20:22:28Z</time>
      </trkpt>
      <trkpt lat="44.02066" lon="1.70991">
        <ele>382.26</ele>
        <time>2021-08-17T20:22:29Z</time>
      </trkpt>
      <trkpt lat="44.02028" lon="1.71001">
        <ele>380.34</ele>
        <time>2021-08-17T20:22:35Z</time>
      </trkpt>
      <trkpt lat="44.02009" lon="1.71004">
        <ele>379.38</ele>
        <time>2021-08-17T20:22:38Z</time>
      </trkpt>
      <trkpt lat="44.02003" lon="1.71003">
        <ele>379.38</ele>
        <time>2021-08-17T20:22:39Z</time>
      </trkpt>
      <trkpt lat="44.01997" lon="1.71001">
        <ele>378.9</ele>
        <time>2021-08-17T20:22:40Z</time>
      </trkpt>
      <trkpt lat="44.01991" lon="1.70998">
        <ele>378.9</ele>
        <time>2021-08-17T20:22:41Z</time>
      </trkpt>
      <trkpt lat="44.01986" lon="1.70994">
        <ele>377.94</ele>
        <time>2021-08-17T20:22:42Z</time>
      </trkpt>
      <trkpt lat="44.01981" lon="1.70989">
        <ele>377.94</ele>
        <time>2021-08-17T20:22:43Z</time>
      </trkpt>
      <trkpt lat="44.01977" lon="1.70983">
        <ele>377.45</ele>
        <time>2021-08-17T20:22:44Z</time>
      </trkpt>
      <trkpt lat="44.01972" lon="1.70977">
        <ele>376.97</ele>
        <time>2021-08-17T20:22:45Z</time>
      </trkpt>
      <trkpt lat="44.01968" lon="1.70969">
        <ele>376.49</ele>
        <time>2021-08-17T20:22:46Z</time>
      </trkpt>
      <trkpt lat="44.01964" lon="1.70962">
        <ele>376.49</ele>
        <time>2021-08-17T20:22:47Z</time>
      </trkpt>
      <trkpt lat="44.01962" lon="1.70954">
        <ele>375.53</ele>
        <time>2021-08-17T20:22:48Z</time>
      </trkpt>
      <trkpt lat="44.0196" lon="1.70944">
        <ele>375.53</ele>
        <time>2021-08-17T20:22:49Z</time>
      </trkpt>
      <trkpt lat="44.01959" lon="1.70935">
        <ele>375.05</ele>
        <time>2021-08-17T20:22:50Z</time>
      </trkpt>
      <trkpt lat="44.01942" lon="1.70871">
        <ele>372.65</ele>
        <time>2021-08-17T20:22:57Z</time>
      </trkpt>
      <trkpt lat="44.01924" lon="1.70795">
        <ele>369.28</ele>
        <time>2021-08-17T20:23:05Z</time>
      </trkpt>
      <trkpt lat="44.0192" lon="1.70777">
        <ele>368.8</ele>
        <time>2021-08-17T20:23:07Z</time>
      </trkpt>
      <trkpt lat="44.01916" lon="1.70769">
        <ele>368.8</ele>
        <time>2021-08-17T20:23:08Z</time>
      </trkpt>
      <trkpt lat="44.01911" lon="1.70761">
        <ele>368.32</ele>
        <time>2021-08-17T20:23:09Z</time>
      </trkpt>
      <trkpt lat="44.01907" lon="1.70755">
        <ele>368.32</ele>
        <time>2021-08-17T20:23:10Z</time>
      </trkpt>
      <trkpt lat="44.01901" lon="1.70749">
        <ele>367.84</ele>
        <time>2021-08-17T20:23:11Z</time>
      </trkpt>
      <trkpt lat="44.01895" lon="1.70744">
        <ele>367.84</ele>
        <time>2021-08-17T20:23:12Z</time>
      </trkpt>
      <trkpt lat="44.01888" lon="1.7074">
        <ele>367.84</ele>
        <time>2021-08-17T20:23:13Z</time>
      </trkpt>
      <trkpt lat="44.01882" lon="1.70738">
        <ele>367.36</ele>
        <time>2021-08-17T20:23:14Z</time>
      </trkpt>
      <trkpt lat="44.01852" lon="1.70731">
        <ele>365.92</ele>
        <time>2021-08-17T20:23:18Z</time>
      </trkpt>
      <trkpt lat="44.01803" lon="1.70726">
        <ele>363.04</ele>
        <time>2021-08-17T20:23:25Z</time>
      </trkpt>
      <trkpt lat="44.01796" lon="1.70724">
        <ele>362.55</ele>
        <time>2021-08-17T20:23:26Z</time>
      </trkpt>
      <trkpt lat="44.0175" lon="1.70708">
        <ele>360.15</ele>
        <time>2021-08-17T20:23:33Z</time>
      </trkpt>
      <trkpt lat="44.01736" lon="1.70704">
        <ele>359.67</ele>
        <time>2021-08-17T20:23:35Z</time>
      </trkpt>
      <trkpt lat="44.01729" lon="1.70703">
        <ele>359.67</ele>
        <time>2021-08-17T20:23:36Z</time>
      </trkpt>
      <trkpt lat="44.0168" lon="1.7071">
        <ele>356.79</ele>
        <time>2021-08-17T20:23:43Z</time>
      </trkpt>
      <trkpt lat="44.01623" lon="1.70723">
        <ele>353.9</ele>
        <time>2021-08-17T20:23:50Z</time>
      </trkpt>
      <trkpt lat="44.01557" lon="1.70739">
        <ele>351.02</ele>
        <time>2021-08-17T20:23:58Z</time>
      </trkpt>
      <trkpt lat="44.01492" lon="1.70754">
        <ele>348.62</ele>
        <time>2021-08-17T20:24:06Z</time>
      </trkpt>
      <trkpt lat="44.01484" lon="1.70754">
        <ele>348.62</ele>
        <time>2021-08-17T20:24:07Z</time>
      </trkpt>
      <trkpt lat="44.01421" lon="1.70759">
        <ele>346.21</ele>
        <time>2021-08-17T20:24:15Z</time>
      </trkpt>
      <trkpt lat="44.01398" lon="1.70767">
        <ele>345.73</ele>
        <time>2021-08-17T20:24:18Z</time>
      </trkpt>
      <trkpt lat="44.01391" lon="1.70772">
        <ele>345.25</ele>
        <time>2021-08-17T20:24:19Z</time>
      </trkpt>
      <trkpt lat="44.01352" lon="1.70805">
        <ele>342.85</ele>
        <time>2021-08-17T20:24:25Z</time>
      </trkpt>
      <trkpt lat="44.01339" lon="1.70816">
        <ele>342.37</ele>
        <time>2021-08-17T20:24:27Z</time>
      </trkpt>
      <trkpt lat="44.01302" lon="1.70855">
        <ele>339.48</ele>
        <time>2021-08-17T20:24:33Z</time>
      </trkpt>
      <trkpt lat="44.01258" lon="1.70914">
        <ele>337.08</ele>
        <time>2021-08-17T20:24:41Z</time>
      </trkpt>
      <trkpt lat="44.01225" lon="1.7096">
        <ele>334.68</ele>
        <time>2021-08-17T20:24:47Z</time>
      </trkpt>
      <trkpt lat="44.01181" lon="1.71022">
        <ele>332.75</ele>
        <time>2021-08-17T20:24:55Z</time>
      </trkpt>
      <trkpt lat="44.01126" lon="1.71096">
        <ele>330.83</ele>
        <time>2021-08-17T20:25:05Z</time>
      </trkpt>
      <trkpt lat="44.01091" lon="1.71146">
        <ele>328.91</ele>
        <time>2021-08-17T20:25:12Z</time>
      </trkpt>
      <trkpt lat="44.01087" lon="1.71151">
        <ele>328.91</ele>
        <time>2021-08-17T20:25:13Z</time>
      </trkpt>
      <trkpt lat="44.01084" lon="1.71154">
        <ele>328.91</ele>
        <time>2021-08-17T20:25:14Z</time>
      </trkpt>
      <trkpt lat="44.01081" lon="1.71157">
        <ele>328.91</ele>
        <time>2021-08-17T20:25:15Z</time>
      </trkpt>
      <trkpt lat="44.01079" lon="1.7116">
        <ele>328.91</ele>
        <time>2021-08-17T20:25:19Z</time>
      </trkpt>
      <trkpt lat="44.01079" lon="1.71161">
        <ele>328.91</ele>
        <time>2021-08-17T20:25:31Z</time>
      </trkpt>
      <trkpt lat="44.01074" lon="1.71162">
        <ele>328.91</ele>
        <time>2021-08-17T20:25:41Z</time>
      </trkpt>
      <trkpt lat="44.01067" lon="1.71164">
        <ele>328.43</ele>
        <time>2021-08-17T20:25:48Z</time>
      </trkpt>
      <trkpt lat="44.01064" lon="1.71162">
        <ele>328.43</ele>
        <time>2021-08-17T20:26:03Z</time>
      </trkpt>
      <trkpt lat="44.01064" lon="1.71163">
        <ele>328.43</ele>
        <time>2021-08-17T20:26:21Z</time>
      </trkpt>
      <trkpt lat="44.01064" lon="1.71164">
        <ele>328.43</ele>
        <time>2021-08-17T20:26:40Z</time>
      </trkpt>
      <trkpt lat="44.01064" lon="1.71163">
        <ele>327.95</ele>
        <time>2021-08-17T20:26:57Z</time>
      </trkpt>
      <trkpt lat="44.01064" lon="1.71163">
        <ele>327.95</ele>
        <time>2021-08-17T20:27:18Z</time>
      </trkpt>
      <trkpt lat="44.01064" lon="1.71162">
        <ele>327.95</ele>
        <time>2021-08-17T20:27:34Z</time>
      </trkpt>
      <trkpt lat="44.01064" lon="1.71159">
        <ele>327.95</ele>
        <time>2021-08-17T20:27:55Z</time>
      </trkpt>
      <trkpt lat="44.01063" lon="1.71166">
        <ele>327.95</ele>
        <time>2021-08-17T20:28:03Z</time>
      </trkpt>
      <trkpt lat="44.01064" lon="1.71163">
        <ele>327.95</ele>
        <time>2021-08-17T20:28:09Z</time>
      </trkpt>
      <trkpt lat="44.01063" lon="1.71169">
        <ele>327.95</ele>
        <time>2021-08-17T20:28:17Z</time>
      </trkpt>
      <trkpt lat="44.01063" lon="1.71171">
        <ele>327.95</ele>
        <time>2021-08-17T20:28:22Z</time>
      </trkpt>
      <trkpt lat="44.01052" lon="1.71182">
        <ele>327.95</ele>
        <time>2021-08-17T20:28:28Z</time>
      </trkpt>
      <trkpt lat="44.01032" lon="1.71204">
        <ele>327.95</ele>
        <time>2021-08-17T20:28:35Z</time>
      </trkpt>
      <trkpt lat="44.01019" lon="1.71215">
        <ele>329.39</ele>
        <time>2021-08-17T20:28:39Z</time>
      </trkpt>
      <trkpt lat="44.01" lon="1.71232">
        <ele>329.39</ele>
        <time>2021-08-17T20:28:44Z</time>
      </trkpt>
      <trkpt lat="44.00984" lon="1.71242">
        <ele>327.95</ele>
        <time>2021-08-17T20:28:49Z</time>
      </trkpt>
      <trkpt lat="44.00979" lon="1.71243">
        <ele>327.95</ele>
        <time>2021-08-17T20:28:50Z</time>
      </trkpt>
      <trkpt lat="44.00962" lon="1.71241">
        <ele>326.5</ele>
        <time>2021-08-17T20:28:54Z</time>
      </trkpt>
      <trkpt lat="44.00957" lon="1.7124">
        <ele>326.5</ele>
        <time>2021-08-17T20:28:55Z</time>
      </trkpt>
      <trkpt lat="44.00941" lon="1.71232">
        <ele>326.02</ele>
        <time>2021-08-17T20:28:59Z</time>
      </trkpt>
      <trkpt lat="44.00928" lon="1.71223">
        <ele>325.06</ele>
        <time>2021-08-17T20:29:02Z</time>
      </trkpt>
      <trkpt lat="44.00916" lon="1.71216">
        <ele>325.06</ele>
        <time>2021-08-17T20:29:05Z</time>
      </trkpt>
      <trkpt lat="44.00912" lon="1.71213">
        <ele>324.58</ele>
        <time>2021-08-17T20:29:06Z</time>
      </trkpt>
      <trkpt lat="44.00909" lon="1.7121">
        <ele>324.58</ele>
        <time>2021-08-17T20:29:07Z</time>
      </trkpt>
      <trkpt lat="44.00905" lon="1.71208">
        <ele>324.1</ele>
        <time>2021-08-17T20:29:08Z</time>
      </trkpt>
      <trkpt lat="44.009" lon="1.71204">
        <ele>324.1</ele>
        <time>2021-08-17T20:29:09Z</time>
      </trkpt>
      <trkpt lat="44.00874" lon="1.71187">
        <ele>323.62</ele>
        <time>2021-08-17T20:29:15Z</time>
      </trkpt>
      <trkpt lat="44.00867" lon="1.71181">
        <ele>323.62</ele>
        <time>2021-08-17T20:29:17Z</time>
      </trkpt>
      <trkpt lat="44.00863" lon="1.71179">
        <ele>323.62</ele>
        <time>2021-08-17T20:29:18Z</time>
      </trkpt>
      <trkpt lat="44.00855" lon="1.71173">
        <ele>323.62</ele>
        <time>2021-08-17T20:29:20Z</time>
      </trkpt>
      <trkpt lat="44.00851" lon="1.71168">
        <ele>323.62</ele>
        <time>2021-08-17T20:29:21Z</time>
      </trkpt>
      <trkpt lat="44.00844" lon="1.71156">
        <ele>326.5</ele>
        <time>2021-08-17T20:29:25Z</time>
      </trkpt>
      <trkpt lat="44.00841" lon="1.71153">
        <ele>327.95</ele>
        <time>2021-08-17T20:29:33Z</time>
      </trkpt>
      <trkpt lat="44.00839" lon="1.71148">
        <ele>329.39</ele>
        <time>2021-08-17T20:29:41Z</time>
      </trkpt>
      <trkpt lat="44.00836" lon="1.71142">
        <ele>331.31</ele>
        <time>2021-08-17T20:29:49Z</time>
      </trkpt>
      <trkpt lat="44.00833" lon="1.71136">
        <ele>331.79</ele>
        <time>2021-08-17T20:29:57Z</time>
      </trkpt>
      <trkpt lat="44.00831" lon="1.71134">
        <ele>331.79</ele>
        <time>2021-08-17T20:30:04Z</time>
      </trkpt>
      <trkpt lat="44.00819" lon="1.71125">
        <ele>331.79</ele>
        <time>2021-08-17T20:30:10Z</time>
      </trkpt>
      <trkpt lat="44.008" lon="1.7111">
        <ele>331.79</ele>
        <time>2021-08-17T20:30:17Z</time>
      </trkpt>
      <trkpt lat="44.0079" lon="1.71102">
        <ele>330.35</ele>
        <time>2021-08-17T20:30:20Z</time>
      </trkpt>
      <trkpt lat="44.00781" lon="1.71096">
        <ele>329.87</ele>
        <time>2021-08-17T20:30:22Z</time>
      </trkpt>
      <trkpt lat="44.00777" lon="1.71093">
        <ele>329.87</ele>
        <time>2021-08-17T20:30:23Z</time>
      </trkpt>
      <trkpt lat="44.00773" lon="1.7109">
        <ele>329.87</ele>
        <time>2021-08-17T20:30:24Z</time>
      </trkpt>
      <trkpt lat="44.00749" lon="1.71074">
        <ele>329.87</ele>
        <time>2021-08-17T20:30:30Z</time>
      </trkpt>
      <trkpt lat="44.00744" lon="1.71071">
        <ele>329.87</ele>
        <time>2021-08-17T20:30:31Z</time>
      </trkpt>
      <trkpt lat="44.00725" lon="1.71061">
        <ele>330.83</ele>
        <time>2021-08-17T20:30:35Z</time>
      </trkpt>
      <trkpt lat="44.0071" lon="1.71057">
        <ele>329.87</ele>
        <time>2021-08-17T20:30:40Z</time>
      </trkpt>
      <trkpt lat="44.00696" lon="1.71054">
        <ele>329.39</ele>
        <time>2021-08-17T20:30:46Z</time>
      </trkpt>
      <trkpt lat="44.00672" lon="1.71055">
        <ele>326.99</ele>
        <time>2021-08-17T20:30:52Z</time>
      </trkpt>
      <trkpt lat="44.00651" lon="1.71059">
        <ele>325.06</ele>
        <time>2021-08-17T20:30:58Z</time>
      </trkpt>
      <trkpt lat="44.00646" lon="1.71061">
        <ele>323.14</ele>
        <time>2021-08-17T20:31:02Z</time>
      </trkpt>
      <trkpt lat="44.00641" lon="1.71064">
        <ele>321.7</ele>
        <time>2021-08-17T20:31:04Z</time>
      </trkpt>
      <trkpt lat="44.00639" lon="1.71065">
        <ele>321.22</ele>
        <time>2021-08-17T20:31:05Z</time>
      </trkpt>
      <trkpt lat="44.00636" lon="1.71066">
        <ele>320.26</ele>
        <time>2021-08-17T20:31:06Z</time>
      </trkpt>
      <trkpt lat="44.00629" lon="1.71068">
        <ele>319.78</ele>
        <time>2021-08-17T20:31:08Z</time>
      </trkpt>
      <trkpt lat="44.0061" lon="1.71072">
        <ele>317.85</ele>
        <time>2021-08-17T20:31:14Z</time>
      </trkpt>
      <trkpt lat="44.00589" lon="1.7107">
        <ele>315.93</ele>
        <time>2021-08-17T20:31:19Z</time>
      </trkpt>
      <trkpt lat="44.00575" lon="1.71069">
        <ele>313.05</ele>
        <time>2021-08-17T20:31:24Z</time>
      </trkpt>
      <trkpt lat="44.00566" lon="1.7107">
        <ele>311.12</ele>
        <time>2021-08-17T20:31:27Z</time>
      </trkpt>
      <trkpt lat="44.00564" lon="1.71069">
        <ele>311.12</ele>
        <time>2021-08-17T20:31:28Z</time>
      </trkpt>
      <trkpt lat="44.00562" lon="1.71067">
        <ele>310.64</ele>
        <time>2021-08-17T20:31:29Z</time>
      </trkpt>
      <trkpt lat="44.00559" lon="1.71067">
        <ele>309.68</ele>
        <time>2021-08-17T20:31:30Z</time>
      </trkpt>
      <trkpt lat="44.00556" lon="1.71066">
        <ele>309.2</ele>
        <time>2021-08-17T20:31:31Z</time>
      </trkpt>
      <trkpt lat="44.00553" lon="1.71066">
        <ele>308.72</ele>
        <time>2021-08-17T20:31:32Z</time>
      </trkpt>
      <trkpt lat="44.0055" lon="1.71065">
        <ele>308.24</ele>
        <time>2021-08-17T20:31:33Z</time>
      </trkpt>
      <trkpt lat="44.00547" lon="1.71063">
        <ele>307.28</ele>
        <time>2021-08-17T20:31:34Z</time>
      </trkpt>
      <trkpt lat="44.00545" lon="1.7106">
        <ele>307.28</ele>
        <time>2021-08-17T20:31:35Z</time>
      </trkpt>
      <trkpt lat="44.00544" lon="1.71057">
        <ele>307.28</ele>
        <time>2021-08-17T20:31:36Z</time>
      </trkpt>
      <trkpt lat="44.00542" lon="1.71055">
        <ele>307.28</ele>
        <time>2021-08-17T20:31:37Z</time>
      </trkpt>
      <trkpt lat="44.0054" lon="1.71053">
        <ele>307.28</ele>
        <time>2021-08-17T20:31:38Z</time>
      </trkpt>
      <trkpt lat="44.00539" lon="1.71051">
        <ele>306.8</ele>
        <time>2021-08-17T20:31:39Z</time>
      </trkpt>
      <trkpt lat="44.00537" lon="1.7105">
        <ele>306.8</ele>
        <time>2021-08-17T20:31:40Z</time>
      </trkpt>
      <trkpt lat="44.00535" lon="1.71048">
        <ele>306.32</ele>
        <time>2021-08-17T20:31:41Z</time>
      </trkpt>
      <trkpt lat="44.00523" lon="1.71035">
        <ele>304.39</ele>
        <time>2021-08-17T20:31:46Z</time>
      </trkpt>
      <trkpt lat="44.0051" lon="1.7102">
        <ele>301.03</ele>
        <time>2021-08-17T20:31:52Z</time>
      </trkpt>
      <trkpt lat="44.00501" lon="1.7101">
        <ele>297.67</ele>
        <time>2021-08-17T20:31:56Z</time>
      </trkpt>
      <trkpt lat="44.00494" lon="1.71001">
        <ele>296.22</ele>
        <time>2021-08-17T20:31:59Z</time>
      </trkpt>
      <trkpt lat="44.00492" lon="1.70998">
        <ele>295.26</ele>
        <time>2021-08-17T20:32:00Z</time>
      </trkpt>
      <trkpt lat="44.00491" lon="1.70995">
        <ele>294.3</ele>
        <time>2021-08-17T20:32:01Z</time>
      </trkpt>
      <trkpt lat="44.00491" lon="1.70993">
        <ele>294.3</ele>
        <time>2021-08-17T20:32:02Z</time>
      </trkpt>
      <trkpt lat="44.00489" lon="1.70989">
        <ele>294.3</ele>
        <time>2021-08-17T20:32:10Z</time>
      </trkpt>
      <trkpt lat="44.00488" lon="1.7099">
        <ele>294.3</ele>
        <time>2021-08-17T20:32:17Z</time>
      </trkpt>
      <trkpt lat="44.00489" lon="1.70991">
        <ele>294.3</ele>
        <time>2021-08-17T20:32:22Z</time>
      </trkpt>
      <trkpt lat="44.00491" lon="1.70996">
        <ele>295.26</ele>
        <time>2021-08-17T20:32:29Z</time>
      </trkpt>
      <trkpt lat="44.00494" lon="1.71">
        <ele>296.22</ele>
        <time>2021-08-17T20:32:38Z</time>
      </trkpt>
      <trkpt lat="44.00494" lon="1.70997">
        <ele>297.18</ele>
        <time>2021-08-17T20:32:46Z</time>
      </trkpt>
      <trkpt lat="44.00494" lon="1.70993">
        <ele>298.63</ele>
        <time>2021-08-17T20:32:52Z</time>
      </trkpt>
      <trkpt lat="44.00494" lon="1.70987">
        <ele>299.11</ele>
        <time>2021-08-17T20:33:00Z</time>
      </trkpt>
      <trkpt lat="44.00495" lon="1.7098">
        <ele>301.51</ele>
        <time>2021-08-17T20:33:08Z</time>
      </trkpt>
      <trkpt lat="44.00497" lon="1.70973">
        <ele>302.47</ele>
        <time>2021-08-17T20:33:15Z</time>
      </trkpt>
      <trkpt lat="44.00498" lon="1.70968">
        <ele>302.47</ele>
        <time>2021-08-17T20:33:22Z</time>
      </trkpt>
      <trkpt lat="44.00499" lon="1.70964">
        <ele>303.91</ele>
        <time>2021-08-17T20:33:28Z</time>
      </trkpt>
      <trkpt lat="44.00499" lon="1.70963">
        <ele>303.91</ele>
        <time>2021-08-17T20:33:33Z</time>
      </trkpt>
      <trkpt lat="44.00498" lon="1.70963">
        <ele>303.91</ele>
        <time>2021-08-17T20:33:46Z</time>
      </trkpt>
      <trkpt lat="44.00501" lon="1.70957">
        <ele>305.36</ele>
        <time>2021-08-17T20:33:53Z</time>
      </trkpt>
      <trkpt lat="44.00502" lon="1.7095">
        <ele>305.84</ele>
        <time>2021-08-17T20:34:00Z</time>
      </trkpt>
      <trkpt lat="44.00503" lon="1.70945">
        <ele>306.32</ele>
        <time>2021-08-17T20:34:04Z</time>
      </trkpt>
      <trkpt lat="44.00502" lon="1.70941">
        <ele>307.28</ele>
        <time>2021-08-17T20:34:07Z</time>
      </trkpt>
      <trkpt lat="44.00499" lon="1.70935">
        <ele>308.24</ele>
        <time>2021-08-17T20:34:15Z</time>
      </trkpt>
      <trkpt lat="44.00495" lon="1.70933">
        <ele>309.2</ele>
        <time>2021-08-17T20:34:20Z</time>
      </trkpt>
      <trkpt lat="44.00493" lon="1.70931">
        <ele>310.64</ele>
        <time>2021-08-17T20:34:26Z</time>
      </trkpt>
      <trkpt lat="44.00488" lon="1.70927">
        <ele>311.6</ele>
        <time>2021-08-17T20:34:33Z</time>
      </trkpt>
      <trkpt lat="44.00484" lon="1.70922">
        <ele>312.57</ele>
        <time>2021-08-17T20:34:41Z</time>
      </trkpt>
      <trkpt lat="44.0048" lon="1.70917">
        <ele>313.53</ele>
        <time>2021-08-17T20:34:47Z</time>
      </trkpt>
      <trkpt lat="44.00479" lon="1.70912">
        <ele>314.97</ele>
        <time>2021-08-17T20:34:54Z</time>
      </trkpt>
      <trkpt lat="44.00479" lon="1.70907">
        <ele>315.93</ele>
        <time>2021-08-17T20:35:07Z</time>
      </trkpt>
      <trkpt lat="44.0048" lon="1.70904">
        <ele>316.89</ele>
        <time>2021-08-17T20:35:14Z</time>
      </trkpt>
      <trkpt lat="44.00482" lon="1.70902">
        <ele>317.37</ele>
        <time>2021-08-17T20:35:20Z</time>
      </trkpt>
      <trkpt lat="44.00483" lon="1.70898">
        <ele>318.33</ele>
        <time>2021-08-17T20:35:27Z</time>
      </trkpt>
      <trkpt lat="44.00483" lon="1.70892">
        <ele>319.78</ele>
        <time>2021-08-17T20:35:35Z</time>
      </trkpt>
      <trkpt lat="44.00483" lon="1.70886">
        <ele>320.74</ele>
        <time>2021-08-17T20:35:42Z</time>
      </trkpt>
      <trkpt lat="44.00484" lon="1.70877">
        <ele>322.18</ele>
        <time>2021-08-17T20:35:50Z</time>
      </trkpt>
      <trkpt lat="44.00487" lon="1.70872">
        <ele>322.66</ele>
        <time>2021-08-17T20:35:56Z</time>
      </trkpt>
      <trkpt lat="44.00489" lon="1.70864">
        <ele>324.58</ele>
        <time>2021-08-17T20:36:04Z</time>
      </trkpt>
      <trkpt lat="44.00492" lon="1.70856">
        <ele>325.54</ele>
        <time>2021-08-17T20:36:12Z</time>
      </trkpt>
      <trkpt lat="44.00495" lon="1.70848">
        <ele>326.5</ele>
        <time>2021-08-17T20:36:20Z</time>
      </trkpt>
      <trkpt lat="44.00495" lon="1.70843">
        <ele>326.99</ele>
        <time>2021-08-17T20:36:24Z</time>
      </trkpt>
      <trkpt lat="44.00498" lon="1.70831">
        <ele>328.43</ele>
        <time>2021-08-17T20:36:33Z</time>
      </trkpt>
      <trkpt lat="44.00499" lon="1.7082">
        <ele>329.87</ele>
        <time>2021-08-17T20:36:42Z</time>
      </trkpt>
      <trkpt lat="44.00501" lon="1.70814">
        <ele>330.35</ele>
        <time>2021-08-17T20:36:47Z</time>
      </trkpt>
      <trkpt lat="44.00504" lon="1.70802">
        <ele>331.31</ele>
        <time>2021-08-17T20:36:55Z</time>
      </trkpt>
      <trkpt lat="44.00505" lon="1.70802">
        <ele>331.31</ele>
        <time>2021-08-17T20:36:56Z</time>
      </trkpt>
      <trkpt lat="44.00505" lon="1.70801">
        <ele>331.31</ele>
        <time>2021-08-17T20:36:57Z</time>
      </trkpt>
      <trkpt lat="44.00506" lon="1.70799">
        <ele>331.79</ele>
        <time>2021-08-17T20:36:58Z</time>
      </trkpt>
      <trkpt lat="44.00507" lon="1.70798">
        <ele>331.79</ele>
        <time>2021-08-17T20:36:59Z</time>
      </trkpt>
      <trkpt lat="44.00507" lon="1.70795">
        <ele>332.27</ele>
        <time>2021-08-17T20:37:06Z</time>
      </trkpt>
      <trkpt lat="44.0051" lon="1.70787">
        <ele>332.27</ele>
        <time>2021-08-17T20:37:11Z</time>
      </trkpt>
      <trkpt lat="44.00518" lon="1.70768">
        <ele>333.71</ele>
        <time>2021-08-17T20:37:18Z</time>
      </trkpt>
      <trkpt lat="44.00528" lon="1.70745">
        <ele>335.64</ele>
        <time>2021-08-17T20:37:27Z</time>
      </trkpt>
      <trkpt lat="44.00541" lon="1.70721">
        <ele>337.08</ele>
        <time>2021-08-17T20:37:36Z</time>
      </trkpt>
      <trkpt lat="44.0055" lon="1.70704">
        <ele>337.56</ele>
        <time>2021-08-17T20:37:43Z</time>
      </trkpt>
      <trkpt lat="44.00561" lon="1.70684">
        <ele>338.52</ele>
        <time>2021-08-17T20:37:51Z</time>
      </trkpt>
      <trkpt lat="44.00574" lon="1.70659">
        <ele>339</ele>
        <time>2021-08-17T20:38:00Z</time>
      </trkpt>
      <trkpt lat="44.00582" lon="1.70633">
        <ele>339</ele>
        <time>2021-08-17T20:38:07Z</time>
      </trkpt>
      <trkpt lat="44.00581" lon="1.70621">
        <ele>337.56</ele>
        <time>2021-08-17T20:38:10Z</time>
      </trkpt>
      <trkpt lat="44.0057" lon="1.70606">
        <ele>335.64</ele>
        <time>2021-08-17T20:38:15Z</time>
      </trkpt>
      <trkpt lat="44.00553" lon="1.70599">
        <ele>334.68</ele>
        <time>2021-08-17T20:38:22Z</time>
      </trkpt>
      <trkpt lat="44.00542" lon="1.70591">
        <ele>333.71</ele>
        <time>2021-08-17T20:38:28Z</time>
      </trkpt>
      <trkpt lat="44.00522" lon="1.70584">
        <ele>333.71</ele>
        <time>2021-08-17T20:38:36Z</time>
      </trkpt>
      <trkpt lat="44.00502" lon="1.7058">
        <ele>333.71</ele>
        <time>2021-08-17T20:38:43Z</time>
      </trkpt>
      <trkpt lat="44.00484" lon="1.70571">
        <ele>333.71</ele>
        <time>2021-08-17T20:38:50Z</time>
      </trkpt>
      <trkpt lat="44.00478" lon="1.70573">
        <ele>333.71</ele>
        <time>2021-08-17T20:38:52Z</time>
      </trkpt>
      <trkpt lat="44.00471" lon="1.7058">
        <ele>332.27</ele>
        <time>2021-08-17T20:38:55Z</time>
      </trkpt>
      <trkpt lat="44.00468" lon="1.70581">
        <ele>332.27</ele>
        <time>2021-08-17T20:38:56Z</time>
      </trkpt>
      <trkpt lat="44.00465" lon="1.70582">
        <ele>332.27</ele>
        <time>2021-08-17T20:38:57Z</time>
      </trkpt>
      <trkpt lat="44.00462" lon="1.70583">
        <ele>331.79</ele>
        <time>2021-08-17T20:38:58Z</time>
      </trkpt>
      <trkpt lat="44.00458" lon="1.70584">
        <ele>331.79</ele>
        <time>2021-08-17T20:38:59Z</time>
      </trkpt>
      <trkpt lat="44.00455" lon="1.70585">
        <ele>331.31</ele>
        <time>2021-08-17T20:39:00Z</time>
      </trkpt>
      <trkpt lat="44.00452" lon="1.70587">
        <ele>331.31</ele>
        <time>2021-08-17T20:39:01Z</time>
      </trkpt>
      <trkpt lat="44.00449" lon="1.70589">
        <ele>331.31</ele>
        <time>2021-08-17T20:39:02Z</time>
      </trkpt>
      <trkpt lat="44.00446" lon="1.7059">
        <ele>331.31</ele>
        <time>2021-08-17T20:39:03Z</time>
      </trkpt>
      <trkpt lat="44.00418" lon="1.70597">
        <ele>330.35</ele>
        <time>2021-08-17T20:39:10Z</time>
      </trkpt>
      <trkpt lat="44.00396" lon="1.70602">
        <ele>330.35</ele>
        <time>2021-08-17T20:39:16Z</time>
      </trkpt>
      <trkpt lat="44.00373" lon="1.70606">
        <ele>331.79</ele>
        <time>2021-08-17T20:39:22Z</time>
      </trkpt>
      <trkpt lat="44.0035" lon="1.70606">
        <ele>332.75</ele>
        <time>2021-08-17T20:39:29Z</time>
      </trkpt>
      <trkpt lat="44.00326" lon="1.70613">
        <ele>333.23</ele>
        <time>2021-08-17T20:39:36Z</time>
      </trkpt>
      <trkpt lat="44.00299" lon="1.7062">
        <ele>333.23</ele>
        <time>2021-08-17T20:39:43Z</time>
      </trkpt>
      <trkpt lat="44.00281" lon="1.70621">
        <ele>331.79</ele>
        <time>2021-08-17T20:39:47Z</time>
      </trkpt>
      <trkpt lat="44.00271" lon="1.7062">
        <ele>331.79</ele>
        <time>2021-08-17T20:39:49Z</time>
      </trkpt>
      <trkpt lat="44.00266" lon="1.70619">
        <ele>331.31</ele>
        <time>2021-08-17T20:39:50Z</time>
      </trkpt>
      <trkpt lat="44.00261" lon="1.70619">
        <ele>331.31</ele>
        <time>2021-08-17T20:39:51Z</time>
      </trkpt>
      <trkpt lat="44.00241" lon="1.70613">
        <ele>329.39</ele>
        <time>2021-08-17T20:39:56Z</time>
      </trkpt>
      <trkpt lat="44.00228" lon="1.70607">
        <ele>327.95</ele>
        <time>2021-08-17T20:39:59Z</time>
      </trkpt>
      <trkpt lat="44.00222" lon="1.70605">
        <ele>327.47</ele>
        <time>2021-08-17T20:40:00Z</time>
      </trkpt>
      <trkpt lat="44.00205" lon="1.706">
        <ele>325.54</ele>
        <time>2021-08-17T20:40:04Z</time>
      </trkpt>
      <trkpt lat="44.00201" lon="1.70597">
        <ele>325.06</ele>
        <time>2021-08-17T20:40:05Z</time>
      </trkpt>
      <trkpt lat="44.00193" lon="1.70589">
        <ele>324.1</ele>
        <time>2021-08-17T20:40:07Z</time>
      </trkpt>
      <trkpt lat="44.0019" lon="1.70584">
        <ele>324.1</ele>
        <time>2021-08-17T20:40:08Z</time>
      </trkpt>
      <trkpt lat="44.00187" lon="1.70579">
        <ele>323.62</ele>
        <time>2021-08-17T20:40:09Z</time>
      </trkpt>
      <trkpt lat="44.00184" lon="1.70575">
        <ele>323.14</ele>
        <time>2021-08-17T20:40:10Z</time>
      </trkpt>
      <trkpt lat="44.0018" lon="1.7057">
        <ele>322.66</ele>
        <time>2021-08-17T20:40:11Z</time>
      </trkpt>
      <trkpt lat="44.00172" lon="1.70563">
        <ele>322.18</ele>
        <time>2021-08-17T20:40:13Z</time>
      </trkpt>
      <trkpt lat="44.00163" lon="1.70558">
        <ele>320.26</ele>
        <time>2021-08-17T20:40:15Z</time>
      </trkpt>
      <trkpt lat="44.00149" lon="1.70549">
        <ele>316.89</ele>
        <time>2021-08-17T20:40:18Z</time>
      </trkpt>
      <trkpt lat="44.00145" lon="1.70546">
        <ele>315.93</ele>
        <time>2021-08-17T20:40:19Z</time>
      </trkpt>
      <trkpt lat="44.0014" lon="1.70544">
        <ele>314.97</ele>
        <time>2021-08-17T20:40:20Z</time>
      </trkpt>
      <trkpt lat="44.00136" lon="1.7054">
        <ele>314.01</ele>
        <time>2021-08-17T20:40:21Z</time>
      </trkpt>
      <trkpt lat="44.00132" lon="1.70537">
        <ele>313.05</ele>
        <time>2021-08-17T20:40:22Z</time>
      </trkpt>
      <trkpt lat="44.00128" lon="1.70534">
        <ele>312.09</ele>
        <time>2021-08-17T20:40:23Z</time>
      </trkpt>
      <trkpt lat="44.00124" lon="1.70531">
        <ele>311.12</ele>
        <time>2021-08-17T20:40:24Z</time>
      </trkpt>
      <trkpt lat="44.00115" lon="1.70525">
        <ele>309.2</ele>
        <time>2021-08-17T20:40:26Z</time>
      </trkpt>
      <trkpt lat="44.00111" lon="1.70522">
        <ele>309.2</ele>
        <time>2021-08-17T20:40:27Z</time>
      </trkpt>
      <trkpt lat="44.00103" lon="1.70514">
        <ele>307.76</ele>
        <time>2021-08-17T20:40:31Z</time>
      </trkpt>
      <trkpt lat="44.001" lon="1.70512">
        <ele>307.28</ele>
        <time>2021-08-17T20:40:33Z</time>
      </trkpt>
      <trkpt lat="44.00097" lon="1.70509">
        <ele>306.8</ele>
        <time>2021-08-17T20:40:36Z</time>
      </trkpt>
      <trkpt lat="44.00096" lon="1.70508">
        <ele>306.32</ele>
        <time>2021-08-17T20:40:37Z</time>
      </trkpt>
      <trkpt lat="44.00094" lon="1.70506">
        <ele>306.32</ele>
        <time>2021-08-17T20:40:38Z</time>
      </trkpt>
      <trkpt lat="44.00084" lon="1.70498">
        <ele>303.91</ele>
        <time>2021-08-17T20:40:43Z</time>
      </trkpt>
      <trkpt lat="44.00083" lon="1.70498">
        <ele>303.91</ele>
        <time>2021-08-17T20:40:44Z</time>
      </trkpt>
      <trkpt lat="44.00081" lon="1.70501">
        <ele>301.99</ele>
        <time>2021-08-17T20:40:50Z</time>
      </trkpt>
      <trkpt lat="44.0008" lon="1.70502">
        <ele>301.51</ele>
        <time>2021-08-17T20:40:58Z</time>
      </trkpt>
      <trkpt lat="44.00079" lon="1.70507">
        <ele>300.07</ele>
        <time>2021-08-17T20:41:05Z</time>
      </trkpt>
      <trkpt lat="44.00076" lon="1.70507">
        <ele>299.11</ele>
        <time>2021-08-17T20:41:11Z</time>
      </trkpt>
      <trkpt lat="44.00075" lon="1.70507">
        <ele>299.11</ele>
        <time>2021-08-17T20:41:14Z</time>
      </trkpt>
      <trkpt lat="44.00073" lon="1.70508">
        <ele>298.63</ele>
        <time>2021-08-17T20:41:16Z</time>
      </trkpt>
      <trkpt lat="44.00074" lon="1.70512">
        <ele>297.18</ele>
        <time>2021-08-17T20:41:19Z</time>
      </trkpt>
      <trkpt lat="44.00075" lon="1.70516">
        <ele>296.22</ele>
        <time>2021-08-17T20:41:22Z</time>
      </trkpt>
      <trkpt lat="44.00075" lon="1.70518">
        <ele>295.74</ele>
        <time>2021-08-17T20:41:24Z</time>
      </trkpt>
      <trkpt lat="44.00061" lon="1.70519">
        <ele>291.9</ele>
        <time>2021-08-17T20:41:30Z</time>
      </trkpt>
      <trkpt lat="44.00047" lon="1.70521">
        <ele>288.05</ele>
        <time>2021-08-17T20:41:35Z</time>
      </trkpt>
      <trkpt lat="44.00031" lon="1.70526">
        <ele>284.21</ele>
        <time>2021-08-17T20:41:41Z</time>
      </trkpt>
      <trkpt lat="44.00014" lon="1.70528">
        <ele>282.28</ele>
        <time>2021-08-17T20:41:45Z</time>
      </trkpt>
      <trkpt lat="43.99997" lon="1.7053">
        <ele>278.44</ele>
        <time>2021-08-17T20:41:49Z</time>
      </trkpt>
      <trkpt lat="43.99984" lon="1.70532">
        <ele>275.07</ele>
        <time>2021-08-17T20:41:52Z</time>
      </trkpt>
      <trkpt lat="43.9998" lon="1.70531">
        <ele>275.07</ele>
        <time>2021-08-17T20:41:53Z</time>
      </trkpt>
      <trkpt lat="43.99958" lon="1.70532">
        <ele>271.71</ele>
        <time>2021-08-17T20:41:59Z</time>
      </trkpt>
      <trkpt lat="43.99944" lon="1.70536">
        <ele>267.86</ele>
        <time>2021-08-17T20:42:03Z</time>
      </trkpt>
      <trkpt lat="43.99931" lon="1.70537">
        <ele>264.5</ele>
        <time>2021-08-17T20:42:07Z</time>
      </trkpt>
      <trkpt lat="43.9992" lon="1.70537">
        <ele>261.14</ele>
        <time>2021-08-17T20:42:11Z</time>
      </trkpt>
      <trkpt lat="43.99906" lon="1.70535">
        <ele>257.29</ele>
        <time>2021-08-17T20:42:15Z</time>
      </trkpt>
      <trkpt lat="43.99897" lon="1.70532">
        <ele>254.89</ele>
        <time>2021-08-17T20:42:17Z</time>
      </trkpt>
      <trkpt lat="43.99878" lon="1.70527">
        <ele>251.52</ele>
        <time>2021-08-17T20:42:21Z</time>
      </trkpt>
      <trkpt lat="43.9987" lon="1.70524">
        <ele>250.08</ele>
        <time>2021-08-17T20:42:23Z</time>
      </trkpt>
      <trkpt lat="43.99849" lon="1.70523">
        <ele>246.23</ele>
        <time>2021-08-17T20:42:28Z</time>
      </trkpt>
      <trkpt lat="43.99842" lon="1.70523">
        <ele>244.79</ele>
        <time>2021-08-17T20:42:30Z</time>
      </trkpt>
      <trkpt lat="43.99838" lon="1.7052">
        <ele>244.31</ele>
        <time>2021-08-17T20:42:31Z</time>
      </trkpt>
      <trkpt lat="43.99816" lon="1.70501">
        <ele>242.39</ele>
        <time>2021-08-17T20:42:36Z</time>
      </trkpt>
      <trkpt lat="43.99788" lon="1.70467">
        <ele>239.99</ele>
        <time>2021-08-17T20:42:42Z</time>
      </trkpt>
      <trkpt lat="43.99783" lon="1.70462">
        <ele>239.02</ele>
        <time>2021-08-17T20:42:43Z</time>
      </trkpt>
      <trkpt lat="43.99766" lon="1.70438">
        <ele>235.66</ele>
        <time>2021-08-17T20:42:47Z</time>
      </trkpt>
      <trkpt lat="43.99758" lon="1.70427">
        <ele>234.22</ele>
        <time>2021-08-17T20:42:49Z</time>
      </trkpt>
      <trkpt lat="43.99747" lon="1.7041">
        <ele>231.81</ele>
        <time>2021-08-17T20:42:53Z</time>
      </trkpt>
      <trkpt lat="43.99744" lon="1.70408">
        <ele>230.85</ele>
        <time>2021-08-17T20:42:54Z</time>
      </trkpt>
      <trkpt lat="43.99742" lon="1.70407">
        <ele>229.89</ele>
        <time>2021-08-17T20:42:55Z</time>
      </trkpt>
      <trkpt lat="43.99739" lon="1.70407">
        <ele>228.93</ele>
        <time>2021-08-17T20:42:56Z</time>
      </trkpt>
      <trkpt lat="43.99737" lon="1.70406">
        <ele>228.45</ele>
        <time>2021-08-17T20:42:57Z</time>
      </trkpt>
      <trkpt lat="43.99734" lon="1.70407">
        <ele>227.49</ele>
        <time>2021-08-17T20:42:58Z</time>
      </trkpt>
      <trkpt lat="43.99731" lon="1.70408">
        <ele>227.01</ele>
        <time>2021-08-17T20:42:59Z</time>
      </trkpt>
      <trkpt lat="43.99727" lon="1.7041">
        <ele>225.57</ele>
        <time>2021-08-17T20:43:00Z</time>
      </trkpt>
      <trkpt lat="43.99723" lon="1.70412">
        <ele>225.09</ele>
        <time>2021-08-17T20:43:01Z</time>
      </trkpt>
      <trkpt lat="43.99719" lon="1.70415">
        <ele>224.12</ele>
        <time>2021-08-17T20:43:02Z</time>
      </trkpt>
      <trkpt lat="43.99716" lon="1.70418">
        <ele>223.64</ele>
        <time>2021-08-17T20:43:03Z</time>
      </trkpt>
      <trkpt lat="43.99712" lon="1.70421">
        <ele>222.68</ele>
        <time>2021-08-17T20:43:04Z</time>
      </trkpt>
      <trkpt lat="43.99709" lon="1.70423">
        <ele>221.72</ele>
        <time>2021-08-17T20:43:05Z</time>
      </trkpt>
      <trkpt lat="43.99706" lon="1.70424">
        <ele>221.24</ele>
        <time>2021-08-17T20:43:06Z</time>
      </trkpt>
      <trkpt lat="43.99704" lon="1.70422">
        <ele>220.76</ele>
        <time>2021-08-17T20:43:07Z</time>
      </trkpt>
      <trkpt lat="43.99702" lon="1.70419">
        <ele>220.76</ele>
        <time>2021-08-17T20:43:08Z</time>
      </trkpt>
      <trkpt lat="43.99702" lon="1.70415">
        <ele>220.28</ele>
        <time>2021-08-17T20:43:09Z</time>
      </trkpt>
      <trkpt lat="43.99703" lon="1.70411">
        <ele>220.28</ele>
        <time>2021-08-17T20:43:10Z</time>
      </trkpt>
      <trkpt lat="43.99703" lon="1.70408">
        <ele>220.76</ele>
        <time>2021-08-17T20:43:11Z</time>
      </trkpt>
      <trkpt lat="43.99704" lon="1.70405">
        <ele>220.76</ele>
        <time>2021-08-17T20:43:12Z</time>
      </trkpt>
      <trkpt lat="43.99703" lon="1.70404">
        <ele>220.76</ele>
        <time>2021-08-17T20:43:17Z</time>
      </trkpt>
      <trkpt lat="43.99701" lon="1.70419">
        <ele>220.76</ele>
        <time>2021-08-17T20:43:24Z</time>
      </trkpt>
      <trkpt lat="43.99699" lon="1.70425">
        <ele>220.76</ele>
        <time>2021-08-17T20:43:26Z</time>
      </trkpt>
      <trkpt lat="43.99697" lon="1.70427">
        <ele>220.76</ele>
        <time>2021-08-17T20:43:27Z</time>
      </trkpt>
      <trkpt lat="43.99695" lon="1.70429">
        <ele>220.76</ele>
        <time>2021-08-17T20:43:28Z</time>
      </trkpt>
      <trkpt lat="43.99682" lon="1.70435">
        <ele>219.32</ele>
        <time>2021-08-17T20:43:33Z</time>
      </trkpt>
      <trkpt lat="43.99661" lon="1.70412">
        <ele>216.43</ele>
        <time>2021-08-17T20:43:40Z</time>
      </trkpt>
      <trkpt lat="43.99657" lon="1.70406">
        <ele>216.43</ele>
        <time>2021-08-17T20:43:41Z</time>
      </trkpt>
      <trkpt lat="43.99645" lon="1.70389">
        <ele>213.55</ele>
        <time>2021-08-17T20:43:44Z</time>
      </trkpt>
      <trkpt lat="43.99641" lon="1.70384">
        <ele>213.07</ele>
        <time>2021-08-17T20:43:45Z</time>
      </trkpt>
      <trkpt lat="43.99637" lon="1.70379">
        <ele>213.07</ele>
        <time>2021-08-17T20:43:46Z</time>
      </trkpt>
      <trkpt lat="43.99634" lon="1.70373">
        <ele>212.11</ele>
        <time>2021-08-17T20:43:47Z</time>
      </trkpt>
      <trkpt lat="43.99631" lon="1.70366">
        <ele>211.15</ele>
        <time>2021-08-17T20:43:48Z</time>
      </trkpt>
      <trkpt lat="43.99629" lon="1.70359">
        <ele>210.19</ele>
        <time>2021-08-17T20:43:49Z</time>
      </trkpt>
      <trkpt lat="43.99627" lon="1.70352">
        <ele>210.19</ele>
        <time>2021-08-17T20:43:50Z</time>
      </trkpt>
      <trkpt lat="43.99626" lon="1.70344">
        <ele>209.7</ele>
        <time>2021-08-17T20:43:51Z</time>
      </trkpt>
      <trkpt lat="43.99621" lon="1.70319">
        <ele>206.34</ele>
        <time>2021-08-17T20:43:54Z</time>
      </trkpt>
      <trkpt lat="43.99619" lon="1.70311">
        <ele>205.86</ele>
        <time>2021-08-17T20:43:55Z</time>
      </trkpt>
      <trkpt lat="43.99616" lon="1.70304">
        <ele>205.38</ele>
        <time>2021-08-17T20:43:56Z</time>
      </trkpt>
      <trkpt lat="43.99612" lon="1.70299">
        <ele>204.42</ele>
        <time>2021-08-17T20:43:57Z</time>
      </trkpt>
      <trkpt lat="43.99608" lon="1.70293">
        <ele>203.94</ele>
        <time>2021-08-17T20:43:58Z</time>
      </trkpt>
      <trkpt lat="43.99605" lon="1.70288">
        <ele>203.94</ele>
        <time>2021-08-17T20:43:59Z</time>
      </trkpt>
      <trkpt lat="43.99604" lon="1.70281">
        <ele>203.46</ele>
        <time>2021-08-17T20:44:00Z</time>
      </trkpt>
      <trkpt lat="43.99602" lon="1.70275">
        <ele>203.94</ele>
        <time>2021-08-17T20:44:01Z</time>
      </trkpt>
      <trkpt lat="43.99601" lon="1.70268">
        <ele>203.94</ele>
        <time>2021-08-17T20:44:02Z</time>
      </trkpt>
      <trkpt lat="43.99601" lon="1.70261">
        <ele>203.94</ele>
        <time>2021-08-17T20:44:03Z</time>
      </trkpt>
      <trkpt lat="43.99596" lon="1.70246">
        <ele>203.94</ele>
        <time>2021-08-17T20:44:07Z</time>
      </trkpt>
      <trkpt lat="43.99594" lon="1.70241">
        <ele>203.94</ele>
        <time>2021-08-17T20:44:13Z</time>
      </trkpt>
      <trkpt lat="43.99592" lon="1.70238">
        <ele>203.94</ele>
        <time>2021-08-17T20:44:14Z</time>
      </trkpt>
      <trkpt lat="43.99581" lon="1.70225">
        <ele>202.01</ele>
        <time>2021-08-17T20:44:18Z</time>
      </trkpt>
      <trkpt lat="43.99577" lon="1.70224">
        <ele>201.05</ele>
        <time>2021-08-17T20:44:19Z</time>
      </trkpt>
      <trkpt lat="43.99558" lon="1.70223">
        <ele>197.21</ele>
        <time>2021-08-17T20:44:23Z</time>
      </trkpt>
      <trkpt lat="43.99553" lon="1.70223">
        <ele>197.21</ele>
        <time>2021-08-17T20:44:24Z</time>
      </trkpt>
      <trkpt lat="43.99534" lon="1.70224">
        <ele>192.88</ele>
        <time>2021-08-17T20:44:27Z</time>
      </trkpt>
      <trkpt lat="43.99515" lon="1.70226">
        <ele>188.56</ele>
        <time>2021-08-17T20:44:30Z</time>
      </trkpt>
      <trkpt lat="43.99493" lon="1.70228">
        <ele>184.23</ele>
        <time>2021-08-17T20:44:33Z</time>
      </trkpt>
      <trkpt lat="43.99477" lon="1.7023">
        <ele>181.35</ele>
        <time>2021-08-17T20:44:35Z</time>
      </trkpt>
      <trkpt lat="43.99456" lon="1.70234">
        <ele>177.5</ele>
        <time>2021-08-17T20:44:38Z</time>
      </trkpt>
      <trkpt lat="43.99432" lon="1.70242">
        <ele>174.14</ele>
        <time>2021-08-17T20:44:41Z</time>
      </trkpt>
      <trkpt lat="43.99422" lon="1.70245">
        <ele>173.17</ele>
        <time>2021-08-17T20:44:43Z</time>
      </trkpt>
      <trkpt lat="43.99416" lon="1.70246">
        <ele>172.69</ele>
        <time>2021-08-17T20:44:44Z</time>
      </trkpt>
      <trkpt lat="43.99407" lon="1.70246">
        <ele>171.25</ele>
        <time>2021-08-17T20:44:46Z</time>
      </trkpt>
      <trkpt lat="43.99394" lon="1.70247">
        <ele>170.29</ele>
        <time>2021-08-17T20:44:48Z</time>
      </trkpt>
      <trkpt lat="43.99363" lon="1.70254">
        <ele>167.41</ele>
        <time>2021-08-17T20:44:53Z</time>
      </trkpt>
      <trkpt lat="43.99333" lon="1.70261">
        <ele>164.04</ele>
        <time>2021-08-17T20:44:57Z</time>
      </trkpt>
      <trkpt lat="43.993" lon="1.70267">
        <ele>161.64</ele>
        <time>2021-08-17T20:45:01Z</time>
      </trkpt>
      <trkpt lat="43.99266" lon="1.70274">
        <ele>158.27</ele>
        <time>2021-08-17T20:45:05Z</time>
      </trkpt>
      <trkpt lat="43.99236" lon="1.70279">
        <ele>156.35</ele>
        <time>2021-08-17T20:45:09Z</time>
      </trkpt>
      <trkpt lat="43.99187" lon="1.70287">
        <ele>153.95</ele>
        <time>2021-08-17T20:45:16Z</time>
      </trkpt>
      <trkpt lat="43.99175" lon="1.7029">
        <ele>153.47</ele>
        <time>2021-08-17T20:45:19Z</time>
      </trkpt>
      <trkpt lat="43.99173" lon="1.70294">
        <ele>152.51</ele>
        <time>2021-08-17T20:45:20Z</time>
      </trkpt>
      <trkpt lat="43.99171" lon="1.70298">
        <ele>152.51</ele>
        <time>2021-08-17T20:45:21Z</time>
      </trkpt>
      <trkpt lat="43.99161" lon="1.70327">
        <ele>151.06</ele>
        <time>2021-08-17T20:45:26Z</time>
      </trkpt>
      <trkpt lat="43.99158" lon="1.70332">
        <ele>151.06</ele>
        <time>2021-08-17T20:45:27Z</time>
      </trkpt>
      <trkpt lat="43.99152" lon="1.70346">
        <ele>149.14</ele>
        <time>2021-08-17T20:45:29Z</time>
      </trkpt>
      <trkpt lat="43.99146" lon="1.7037">
        <ele>147.22</ele>
        <time>2021-08-17T20:45:32Z</time>
      </trkpt>
      <trkpt lat="43.99143" lon="1.70381">
        <ele>146.26</ele>
        <time>2021-08-17T20:45:34Z</time>
      </trkpt>
      <trkpt lat="43.99141" lon="1.70383">
        <ele>146.26</ele>
        <time>2021-08-17T20:45:35Z</time>
      </trkpt>
      <trkpt lat="43.99138" lon="1.70383">
        <ele>146.26</ele>
        <time>2021-08-17T20:45:36Z</time>
      </trkpt>
      <trkpt lat="43.99131" lon="1.70384">
        <ele>145.78</ele>
        <time>2021-08-17T20:45:38Z</time>
      </trkpt>
      <trkpt lat="43.99116" lon="1.70389">
        <ele>145.78</ele>
        <time>2021-08-17T20:45:42Z</time>
      </trkpt>
      <trkpt lat="43.99114" lon="1.70392">
        <ele>145.78</ele>
        <time>2021-08-17T20:45:43Z</time>
      </trkpt>
      <trkpt lat="43.99113" lon="1.70396">
        <ele>145.78</ele>
        <time>2021-08-17T20:45:44Z</time>
      </trkpt>
      <trkpt lat="43.99113" lon="1.704">
        <ele>145.78</ele>
        <time>2021-08-17T20:45:45Z</time>
      </trkpt>
      <trkpt lat="43.99113" lon="1.70403">
        <ele>145.78</ele>
        <time>2021-08-17T20:45:46Z</time>
      </trkpt>
      <trkpt lat="43.99114" lon="1.70406">
        <ele>145.78</ele>
        <time>2021-08-17T20:45:47Z</time>
      </trkpt>
      <trkpt lat="43.99116" lon="1.70407">
        <ele>145.78</ele>
        <time>2021-08-17T20:45:48Z</time>
      </trkpt>
      <trkpt lat="43.99118" lon="1.70407">
        <ele>145.78</ele>
        <time>2021-08-17T20:45:49Z</time>
      </trkpt>
      <trkpt lat="43.99121" lon="1.70408">
        <ele>145.78</ele>
        <time>2021-08-17T20:45:50Z</time>
      </trkpt>
      <trkpt lat="43.99124" lon="1.70408">
        <ele>145.78</ele>
        <time>2021-08-17T20:45:51Z</time>
      </trkpt>
      <trkpt lat="43.99128" lon="1.70408">
        <ele>145.78</ele>
        <time>2021-08-17T20:45:52Z</time>
      </trkpt>
      <trkpt lat="43.99132" lon="1.70408">
        <ele>145.78</ele>
        <time>2021-08-17T20:45:53Z</time>
      </trkpt>
      <trkpt lat="43.99135" lon="1.70409">
        <ele>145.78</ele>
        <time>2021-08-17T20:45:54Z</time>
      </trkpt>
      <trkpt lat="43.99151" lon="1.70414">
        <ele>145.78</ele>
        <time>2021-08-17T20:46:01Z</time>
      </trkpt>
      <trkpt lat="43.99164" lon="1.70429">
        <ele>148.18</ele>
        <time>2021-08-17T20:46:09Z</time>
      </trkpt>
      <trkpt lat="43.99173" lon="1.70438">
        <ele>149.62</ele>
        <time>2021-08-17T20:46:17Z</time>
      </trkpt>
      <trkpt lat="43.9918" lon="1.70445">
        <ele>151.54</ele>
        <time>2021-08-17T20:46:27Z</time>
      </trkpt>
      <trkpt lat="43.99183" lon="1.70448">
        <ele>152.51</ele>
        <time>2021-08-17T20:46:36Z</time>
      </trkpt>
      <trkpt lat="43.99186" lon="1.70452">
        <ele>152.99</ele>
        <time>2021-08-17T20:46:48Z</time>
      </trkpt>
      <trkpt lat="43.99193" lon="1.70459">
        <ele>154.91</ele>
        <time>2021-08-17T20:46:58Z</time>
      </trkpt>
      <trkpt lat="43.99199" lon="1.70466">
        <ele>157.31</ele>
        <time>2021-08-17T20:47:08Z</time>
      </trkpt>
      <trkpt lat="43.99207" lon="1.70471">
        <ele>159.72</ele>
        <time>2021-08-17T20:47:21Z</time>
      </trkpt>
      <trkpt lat="43.99213" lon="1.70474">
        <ele>161.64</ele>
        <time>2021-08-17T20:47:30Z</time>
      </trkpt>
      <trkpt lat="43.99221" lon="1.70479">
        <ele>163.56</ele>
        <time>2021-08-17T20:47:42Z</time>
      </trkpt>
      <trkpt lat="43.99228" lon="1.70483">
        <ele>165</ele>
        <time>2021-08-17T20:47:53Z</time>
      </trkpt>
      <trkpt lat="43.99236" lon="1.70486">
        <ele>167.41</ele>
        <time>2021-08-17T20:48:04Z</time>
      </trkpt>
      <trkpt lat="43.99244" lon="1.7049">
        <ele>169.33</ele>
        <time>2021-08-17T20:48:16Z</time>
      </trkpt>
      <trkpt lat="43.9925" lon="1.70493">
        <ele>170.77</ele>
        <time>2021-08-17T20:48:26Z</time>
      </trkpt>
      <trkpt lat="43.99258" lon="1.70498">
        <ele>172.69</ele>
        <time>2021-08-17T20:48:37Z</time>
      </trkpt>
      <trkpt lat="43.99263" lon="1.70502">
        <ele>173.66</ele>
        <time>2021-08-17T20:48:44Z</time>
      </trkpt>
      <trkpt lat="43.99269" lon="1.70505">
        <ele>175.1</ele>
        <time>2021-08-17T20:48:53Z</time>
      </trkpt>
      <trkpt lat="43.99278" lon="1.70511">
        <ele>176.54</ele>
        <time>2021-08-17T20:49:05Z</time>
      </trkpt>
      <trkpt lat="43.99278" lon="1.70513">
        <ele>177.5</ele>
        <time>2021-08-17T20:49:07Z</time>
      </trkpt>
      <trkpt lat="43.99283" lon="1.70516">
        <ele>177.98</ele>
        <time>2021-08-17T20:49:13Z</time>
      </trkpt>
      <trkpt lat="43.99292" lon="1.70521">
        <ele>179.9</ele>
        <time>2021-08-17T20:49:24Z</time>
      </trkpt>
      <trkpt lat="43.99296" lon="1.70525">
        <ele>179.9</ele>
        <time>2021-08-17T20:49:29Z</time>
      </trkpt>
      <trkpt lat="43.99307" lon="1.70533">
        <ele>181.83</ele>
        <time>2021-08-17T20:49:41Z</time>
      </trkpt>
      <trkpt lat="43.99312" lon="1.70537">
        <ele>182.79</ele>
        <time>2021-08-17T20:49:50Z</time>
      </trkpt>
      <trkpt lat="43.99316" lon="1.7054">
        <ele>183.27</ele>
        <time>2021-08-17T20:49:56Z</time>
      </trkpt>
      <trkpt lat="43.99317" lon="1.7054">
        <ele>183.27</ele>
        <time>2021-08-17T20:49:57Z</time>
      </trkpt>
      <trkpt lat="43.99318" lon="1.70541">
        <ele>183.75</ele>
        <time>2021-08-17T20:49:58Z</time>
      </trkpt>
      <trkpt lat="43.9932" lon="1.70542">
        <ele>183.75</ele>
        <time>2021-08-17T20:49:59Z</time>
      </trkpt>
      <trkpt lat="43.99321" lon="1.70543">
        <ele>183.75</ele>
        <time>2021-08-17T20:50:00Z</time>
      </trkpt>
      <trkpt lat="43.99322" lon="1.70544">
        <ele>184.23</ele>
        <time>2021-08-17T20:50:01Z</time>
      </trkpt>
      <trkpt lat="43.99323" lon="1.70545">
        <ele>184.23</ele>
        <time>2021-08-17T20:50:02Z</time>
      </trkpt>
      <trkpt lat="43.99324" lon="1.70545">
        <ele>184.71</ele>
        <time>2021-08-17T20:50:03Z</time>
      </trkpt>
      <trkpt lat="43.99326" lon="1.70546">
        <ele>184.71</ele>
        <time>2021-08-17T20:50:04Z</time>
      </trkpt>
      <trkpt lat="43.99327" lon="1.70547">
        <ele>185.19</ele>
        <time>2021-08-17T20:50:05Z</time>
      </trkpt>
      <trkpt lat="43.99328" lon="1.70548">
        <ele>185.19</ele>
        <time>2021-08-17T20:50:06Z</time>
      </trkpt>
      <trkpt lat="43.99329" lon="1.70548">
        <ele>185.19</ele>
        <time>2021-08-17T20:50:07Z</time>
      </trkpt>
      <trkpt lat="43.9933" lon="1.70549">
        <ele>185.67</ele>
        <time>2021-08-17T20:50:08Z</time>
      </trkpt>
      <trkpt lat="43.99331" lon="1.7055">
        <ele>185.67</ele>
        <time>2021-08-17T20:50:09Z</time>
      </trkpt>
      <trkpt lat="43.99332" lon="1.70551">
        <ele>185.67</ele>
        <time>2021-08-17T20:50:10Z</time>
      </trkpt>
      <trkpt lat="43.9934" lon="1.70557">
        <ele>187.11</ele>
        <time>2021-08-17T20:50:17Z</time>
      </trkpt>
      <trkpt lat="43.99342" lon="1.7056">
        <ele>187.59</ele>
        <time>2021-08-17T20:50:22Z</time>
      </trkpt>
      <trkpt lat="43.99349" lon="1.70566">
        <ele>189.04</ele>
        <time>2021-08-17T20:50:31Z</time>
      </trkpt>
      <trkpt lat="43.99355" lon="1.70573">
        <ele>190.48</ele>
        <time>2021-08-17T20:50:40Z</time>
      </trkpt>
      <trkpt lat="43.99361" lon="1.70582">
        <ele>191.92</ele>
        <time>2021-08-17T20:50:51Z</time>
      </trkpt>
      <trkpt lat="43.99368" lon="1.70592">
        <ele>193.84</ele>
        <time>2021-08-17T20:51:02Z</time>
      </trkpt>
      <trkpt lat="43.99374" lon="1.70602">
        <ele>195.28</ele>
        <time>2021-08-17T20:51:12Z</time>
      </trkpt>
      <trkpt lat="43.99379" lon="1.70612">
        <ele>196.73</ele>
        <time>2021-08-17T20:51:23Z</time>
      </trkpt>
      <trkpt lat="43.99383" lon="1.70623">
        <ele>198.17</ele>
        <time>2021-08-17T20:51:33Z</time>
      </trkpt>
      <trkpt lat="43.99388" lon="1.70633">
        <ele>199.61</ele>
        <time>2021-08-17T20:51:42Z</time>
      </trkpt>
      <trkpt lat="43.99394" lon="1.70643">
        <ele>200.57</ele>
        <time>2021-08-17T20:51:51Z</time>
      </trkpt>
      <trkpt lat="43.99401" lon="1.70653">
        <ele>202.01</ele>
        <time>2021-08-17T20:52:00Z</time>
      </trkpt>
      <trkpt lat="43.99408" lon="1.70664">
        <ele>203.46</ele>
        <time>2021-08-17T20:52:09Z</time>
      </trkpt>
      <trkpt lat="43.99406" lon="1.70676">
        <ele>204.42</ele>
        <time>2021-08-17T20:52:19Z</time>
      </trkpt>
      <trkpt lat="43.99399" lon="1.70674">
        <ele>205.38</ele>
        <time>2021-08-17T20:52:28Z</time>
      </trkpt>
      <trkpt lat="43.99397" lon="1.70672">
        <ele>205.86</ele>
        <time>2021-08-17T20:52:31Z</time>
      </trkpt>
      <trkpt lat="43.99396" lon="1.70671">
        <ele>206.34</ele>
        <time>2021-08-17T20:52:32Z</time>
      </trkpt>
      <trkpt lat="43.99385" lon="1.70666">
        <ele>207.78</ele>
        <time>2021-08-17T20:52:42Z</time>
      </trkpt>
      <trkpt lat="43.99382" lon="1.70664">
        <ele>207.78</ele>
        <time>2021-08-17T20:52:48Z</time>
      </trkpt>
      <trkpt lat="43.99379" lon="1.70663">
        <ele>208.26</ele>
        <time>2021-08-17T20:52:51Z</time>
      </trkpt>
      <trkpt lat="43.99378" lon="1.70663">
        <ele>208.26</ele>
        <time>2021-08-17T20:52:52Z</time>
      </trkpt>
      <trkpt lat="43.99376" lon="1.70662">
        <ele>208.26</ele>
        <time>2021-08-17T20:52:53Z</time>
      </trkpt>
      <trkpt lat="43.99374" lon="1.70661">
        <ele>208.26</ele>
        <time>2021-08-17T20:52:54Z</time>
      </trkpt>
      <trkpt lat="43.99372" lon="1.70661">
        <ele>208.26</ele>
        <time>2021-08-17T20:52:55Z</time>
      </trkpt>
      <trkpt lat="43.99357" lon="1.70655">
        <ele>209.7</ele>
        <time>2021-08-17T20:53:02Z</time>
      </trkpt>
      <trkpt lat="43.99336" lon="1.7065">
        <ele>210.19</ele>
        <time>2021-08-17T20:53:10Z</time>
      </trkpt>
      <trkpt lat="43.99313" lon="1.70646">
        <ele>211.15</ele>
        <time>2021-08-17T20:53:19Z</time>
      </trkpt>
      <trkpt lat="43.99293" lon="1.70655">
        <ele>211.63</ele>
        <time>2021-08-17T20:53:27Z</time>
      </trkpt>
      <trkpt lat="43.99274" lon="1.70668">
        <ele>211.63</ele>
        <time>2021-08-17T20:53:33Z</time>
      </trkpt>
      <trkpt lat="43.99252" lon="1.70692">
        <ele>211.63</ele>
        <time>2021-08-17T20:53:41Z</time>
      </trkpt>
      <trkpt lat="43.99245" lon="1.70712">
        <ele>212.11</ele>
        <time>2021-08-17T20:53:47Z</time>
      </trkpt>
      <trkpt lat="43.99244" lon="1.70716">
        <ele>212.11</ele>
        <time>2021-08-17T20:53:48Z</time>
      </trkpt>
      <trkpt lat="43.99244" lon="1.7072">
        <ele>212.11</ele>
        <time>2021-08-17T20:53:49Z</time>
      </trkpt>
      <trkpt lat="43.99244" lon="1.70722">
        <ele>212.59</ele>
        <time>2021-08-17T20:53:50Z</time>
      </trkpt>
      <trkpt lat="43.99242" lon="1.70725">
        <ele>212.59</ele>
        <time>2021-08-17T20:53:51Z</time>
      </trkpt>
      <trkpt lat="43.99241" lon="1.70726">
        <ele>212.59</ele>
        <time>2021-08-17T20:53:52Z</time>
      </trkpt>
      <trkpt lat="43.99239" lon="1.70727">
        <ele>212.59</ele>
        <time>2021-08-17T20:53:53Z</time>
      </trkpt>
      <trkpt lat="43.99236" lon="1.70728">
        <ele>212.59</ele>
        <time>2021-08-17T20:53:54Z</time>
      </trkpt>
      <trkpt lat="43.99231" lon="1.70733">
        <ele>212.59</ele>
        <time>2021-08-17T20:53:57Z</time>
      </trkpt>
      <trkpt lat="43.99235" lon="1.70738">
        <ele>212.59</ele>
        <time>2021-08-17T20:54:01Z</time>
      </trkpt>
      <trkpt lat="43.9924" lon="1.70736">
        <ele>212.59</ele>
        <time>2021-08-17T20:54:03Z</time>
      </trkpt>
      <trkpt lat="43.99241" lon="1.70734">
        <ele>212.59</ele>
        <time>2021-08-17T20:54:04Z</time>
      </trkpt>
      <trkpt lat="43.99245" lon="1.70726">
        <ele>212.59</ele>
        <time>2021-08-17T20:54:08Z</time>
      </trkpt>
      <trkpt lat="43.99248" lon="1.70726">
        <ele>212.59</ele>
        <time>2021-08-17T20:54:10Z</time>
      </trkpt>
      <trkpt lat="43.99252" lon="1.70728">
        <ele>212.59</ele>
        <time>2021-08-17T20:54:12Z</time>
      </trkpt>
      <trkpt lat="43.99254" lon="1.70731">
        <ele>212.59</ele>
        <time>2021-08-17T20:54:13Z</time>
      </trkpt>
      <trkpt lat="43.99255" lon="1.70734">
        <ele>213.07</ele>
        <time>2021-08-17T20:54:14Z</time>
      </trkpt>
      <trkpt lat="43.99256" lon="1.70737">
        <ele>213.07</ele>
        <time>2021-08-17T20:54:15Z</time>
      </trkpt>
      <trkpt lat="43.99256" lon="1.7074">
        <ele>213.55</ele>
        <time>2021-08-17T20:54:16Z</time>
      </trkpt>
      <trkpt lat="43.99258" lon="1.70746">
        <ele>214.03</ele>
        <time>2021-08-17T20:54:21Z</time>
      </trkpt>
      <trkpt lat="43.99258" lon="1.70756">
        <ele>216.43</ele>
        <time>2021-08-17T20:54:31Z</time>
      </trkpt>
      <trkpt lat="43.99256" lon="1.70767">
        <ele>217.88</ele>
        <time>2021-08-17T20:54:41Z</time>
      </trkpt>
      <trkpt lat="43.99254" lon="1.70776">
        <ele>218.84</ele>
        <time>2021-08-17T20:54:49Z</time>
      </trkpt>
      <trkpt lat="43.99252" lon="1.70783">
        <ele>220.76</ele>
        <time>2021-08-17T20:54:58Z</time>
      </trkpt>
      <trkpt lat="43.99249" lon="1.70792">
        <ele>222.2</ele>
        <time>2021-08-17T20:55:07Z</time>
      </trkpt>
      <trkpt lat="43.99247" lon="1.70799">
        <ele>223.64</ele>
        <time>2021-08-17T20:55:15Z</time>
      </trkpt>
      <trkpt lat="43.99251" lon="1.70799">
        <ele>224.61</ele>
        <time>2021-08-17T20:55:23Z</time>
      </trkpt>
      <trkpt lat="43.99256" lon="1.70794">
        <ele>226.53</ele>
        <time>2021-08-17T20:55:32Z</time>
      </trkpt>
      <trkpt lat="43.99262" lon="1.70788">
        <ele>227.97</ele>
        <time>2021-08-17T20:55:40Z</time>
      </trkpt>
      <trkpt lat="43.99269" lon="1.70781">
        <ele>229.41</ele>
        <time>2021-08-17T20:55:50Z</time>
      </trkpt>
      <trkpt lat="43.99275" lon="1.70776">
        <ele>230.85</ele>
        <time>2021-08-17T20:55:58Z</time>
      </trkpt>
      <trkpt lat="43.99283" lon="1.70771">
        <ele>232.3</ele>
        <time>2021-08-17T20:56:08Z</time>
      </trkpt>
      <trkpt lat="43.9929" lon="1.70766">
        <ele>233.26</ele>
        <time>2021-08-17T20:56:17Z</time>
      </trkpt>
      <trkpt lat="43.99295" lon="1.70766">
        <ele>235.18</ele>
        <time>2021-08-17T20:56:24Z</time>
      </trkpt>
      <trkpt lat="43.99295" lon="1.70769">
        <ele>235.66</ele>
        <time>2021-08-17T20:56:32Z</time>
      </trkpt>
      <trkpt lat="43.99293" lon="1.70776">
        <ele>237.58</ele>
        <time>2021-08-17T20:56:40Z</time>
      </trkpt>
      <trkpt lat="43.9929" lon="1.70785">
        <ele>239.02</ele>
        <time>2021-08-17T20:56:50Z</time>
      </trkpt>
      <trkpt lat="43.99286" lon="1.70795">
        <ele>240.95</ele>
        <time>2021-08-17T20:57:01Z</time>
      </trkpt>
      <trkpt lat="43.99283" lon="1.70807">
        <ele>242.39</ele>
        <time>2021-08-17T20:57:11Z</time>
      </trkpt>
      <trkpt lat="43.99279" lon="1.70813">
        <ele>243.83</ele>
        <time>2021-08-17T20:57:18Z</time>
      </trkpt>
      <trkpt lat="43.99274" lon="1.70822">
        <ele>245.27</ele>
        <time>2021-08-17T20:57:26Z</time>
      </trkpt>
      <trkpt lat="43.99271" lon="1.70832">
        <ele>246.23</ele>
        <time>2021-08-17T20:57:34Z</time>
      </trkpt>
      <trkpt lat="43.99267" lon="1.7084">
        <ele>246.72</ele>
        <time>2021-08-17T20:57:40Z</time>
      </trkpt>
      <trkpt lat="43.99263" lon="1.7085">
        <ele>248.16</ele>
        <time>2021-08-17T20:57:47Z</time>
      </trkpt>
      <trkpt lat="43.99259" lon="1.70859">
        <ele>249.6</ele>
        <time>2021-08-17T20:57:56Z</time>
      </trkpt>
      <trkpt lat="43.99253" lon="1.70871">
        <ele>251.52</ele>
        <time>2021-08-17T20:58:06Z</time>
      </trkpt>
      <trkpt lat="43.9925" lon="1.7088">
        <ele>252.48</ele>
        <time>2021-08-17T20:58:13Z</time>
      </trkpt>
      <trkpt lat="43.99246" lon="1.70891">
        <ele>254.41</ele>
        <time>2021-08-17T20:58:22Z</time>
      </trkpt>
      <trkpt lat="43.99239" lon="1.70906">
        <ele>255.37</ele>
        <time>2021-08-17T20:58:33Z</time>
      </trkpt>
      <trkpt lat="43.99231" lon="1.70919">
        <ele>257.29</ele>
        <time>2021-08-17T20:58:45Z</time>
      </trkpt>
      <trkpt lat="43.99225" lon="1.70929">
        <ele>258.73</ele>
        <time>2021-08-17T20:58:55Z</time>
      </trkpt>
      <trkpt lat="43.99221" lon="1.70936">
        <ele>260.17</ele>
        <time>2021-08-17T20:59:02Z</time>
      </trkpt>
      <trkpt lat="43.99216" lon="1.70947">
        <ele>262.1</ele>
        <time>2021-08-17T20:59:12Z</time>
      </trkpt>
      <trkpt lat="43.99212" lon="1.70955">
        <ele>263.06</ele>
        <time>2021-08-17T20:59:20Z</time>
      </trkpt>
      <trkpt lat="43.99208" lon="1.70966">
        <ele>264.98</ele>
        <time>2021-08-17T20:59:29Z</time>
      </trkpt>
      <trkpt lat="43.99206" lon="1.70969">
        <ele>265.46</ele>
        <time>2021-08-17T20:59:33Z</time>
      </trkpt>
      <trkpt lat="43.99204" lon="1.7097">
        <ele>265.46</ele>
        <time>2021-08-17T20:59:34Z</time>
      </trkpt>
      <trkpt lat="43.99202" lon="1.70971">
        <ele>265.94</ele>
        <time>2021-08-17T20:59:35Z</time>
      </trkpt>
      <trkpt lat="43.99203" lon="1.70977">
        <ele>266.42</ele>
        <time>2021-08-17T20:59:41Z</time>
      </trkpt>
      <trkpt lat="43.99199" lon="1.70988">
        <ele>268.35</ele>
        <time>2021-08-17T20:59:51Z</time>
      </trkpt>
      <trkpt lat="43.99196" lon="1.70995">
        <ele>269.31</ele>
        <time>2021-08-17T20:59:59Z</time>
      </trkpt>
      <trkpt lat="43.99193" lon="1.71005">
        <ele>271.23</ele>
        <time>2021-08-17T21:00:08Z</time>
      </trkpt>
      <trkpt lat="43.9919" lon="1.71015">
        <ele>272.19</ele>
        <time>2021-08-17T21:00:18Z</time>
      </trkpt>
      <trkpt lat="43.99191" lon="1.71014">
        <ele>273.15</ele>
        <time>2021-08-17T21:00:24Z</time>
      </trkpt>
      <trkpt lat="43.99189" lon="1.71016">
        <ele>273.15</ele>
        <time>2021-08-17T21:00:29Z</time>
      </trkpt>
      <trkpt lat="43.99183" lon="1.71023">
        <ele>273.63</ele>
        <time>2021-08-17T21:00:35Z</time>
      </trkpt>
      <trkpt lat="43.99173" lon="1.71036">
        <ele>274.11</ele>
        <time>2021-08-17T21:00:45Z</time>
      </trkpt>
      <trkpt lat="43.99157" lon="1.71059">
        <ele>273.63</ele>
        <time>2021-08-17T21:00:52Z</time>
      </trkpt>
      <trkpt lat="43.99151" lon="1.71079">
        <ele>274.11</ele>
        <time>2021-08-17T21:00:59Z</time>
      </trkpt>
      <trkpt lat="43.99149" lon="1.7109">
        <ele>276.52</ele>
        <time>2021-08-17T21:01:05Z</time>
      </trkpt>
      <trkpt lat="43.99149" lon="1.71092">
        <ele>276.52</ele>
        <time>2021-08-17T21:01:06Z</time>
      </trkpt>
      <trkpt lat="43.9915" lon="1.71093">
        <ele>277</ele>
        <time>2021-08-17T21:01:07Z</time>
      </trkpt>
      <trkpt lat="43.99151" lon="1.71094">
        <ele>277</ele>
        <time>2021-08-17T21:01:08Z</time>
      </trkpt>
      <trkpt lat="43.99152" lon="1.71093">
        <ele>277</ele>
        <time>2021-08-17T21:01:09Z</time>
      </trkpt>
      <trkpt lat="43.99152" lon="1.71091">
        <ele>277</ele>
        <time>2021-08-17T21:01:10Z</time>
      </trkpt>
      <trkpt lat="43.99152" lon="1.71088">
        <ele>277</ele>
        <time>2021-08-17T21:01:11Z</time>
      </trkpt>
      <trkpt lat="43.99153" lon="1.71087">
        <ele>277</ele>
        <time>2021-08-17T21:01:12Z</time>
      </trkpt>
      <trkpt lat="43.99157" lon="1.71073">
        <ele>277.48</ele>
        <time>2021-08-17T21:01:18Z</time>
      </trkpt>
      <trkpt lat="43.99174" lon="1.71051">
        <ele>278.44</ele>
        <time>2021-08-17T21:01:27Z</time>
      </trkpt>
      <trkpt lat="43.99191" lon="1.71032">
        <ele>279.88</ele>
        <time>2021-08-17T21:01:36Z</time>
      </trkpt>
      <trkpt lat="43.99209" lon="1.71013">
        <ele>281.8</ele>
        <time>2021-08-17T21:01:45Z</time>
      </trkpt>
      <trkpt lat="43.99229" lon="1.70989">
        <ele>282.77</ele>
        <time>2021-08-17T21:01:55Z</time>
      </trkpt>
      <trkpt lat="43.9925" lon="1.70963">
        <ele>285.17</ele>
        <time>2021-08-17T21:02:05Z</time>
      </trkpt>
      <trkpt lat="43.99279" lon="1.70926">
        <ele>287.09</ele>
        <time>2021-08-17T21:02:17Z</time>
      </trkpt>
      <trkpt lat="43.99301" lon="1.70897">
        <ele>289.49</ele>
        <time>2021-08-17T21:02:27Z</time>
      </trkpt>
      <trkpt lat="43.99312" lon="1.70886">
        <ele>289.97</ele>
        <time>2021-08-17T21:02:33Z</time>
      </trkpt>
      <trkpt lat="43.99315" lon="1.70886">
        <ele>290.46</ele>
        <time>2021-08-17T21:02:34Z</time>
      </trkpt>
      <trkpt lat="43.99317" lon="1.70889">
        <ele>290.94</ele>
        <time>2021-08-17T21:02:35Z</time>
      </trkpt>
      <trkpt lat="43.99318" lon="1.70894">
        <ele>290.94</ele>
        <time>2021-08-17T21:02:37Z</time>
      </trkpt>
      <trkpt lat="43.99318" lon="1.70897">
        <ele>290.46</ele>
        <time>2021-08-17T21:02:38Z</time>
      </trkpt>
      <trkpt lat="43.99317" lon="1.709">
        <ele>290.46</ele>
        <time>2021-08-17T21:02:39Z</time>
      </trkpt>
      <trkpt lat="43.99316" lon="1.70901">
        <ele>290.46</ele>
        <time>2021-08-17T21:02:40Z</time>
      </trkpt>
      <trkpt lat="43.99315" lon="1.70903">
        <ele>290.46</ele>
        <time>2021-08-17T21:02:41Z</time>
      </trkpt>
      <trkpt lat="43.99315" lon="1.70904">
        <ele>290.46</ele>
        <time>2021-08-17T21:02:42Z</time>
      </trkpt>
      <trkpt lat="43.99311" lon="1.70909">
        <ele>290.46</ele>
        <time>2021-08-17T21:02:46Z</time>
      </trkpt>
      <trkpt lat="43.9931" lon="1.7091">
        <ele>290.46</ele>
        <time>2021-08-17T21:02:47Z</time>
      </trkpt>
      <trkpt lat="43.99309" lon="1.70913">
        <ele>290.46</ele>
        <time>2021-08-17T21:02:53Z</time>
      </trkpt>
      <trkpt lat="43.99306" lon="1.70916">
        <ele>290.94</ele>
        <time>2021-08-17T21:03:01Z</time>
      </trkpt>
      <trkpt lat="43.99306" lon="1.70916">
        <ele>291.42</ele>
        <time>2021-08-17T21:03:13Z</time>
      </trkpt>
      <trkpt lat="43.9931" lon="1.70918">
        <ele>291.42</ele>
        <time>2021-08-17T21:03:34Z</time>
      </trkpt>
      <trkpt lat="43.99311" lon="1.70918">
        <ele>291.42</ele>
        <time>2021-08-17T21:03:36Z</time>
      </trkpt>
    </trkseg>
  </trk>
  <trk>
    <name><![CDATA[12 FD]]></name>
    <trkseg>
      <trkpt lat="43.9941" lon="1.70931">
        <ele>282.28</ele>
        <time>2021-08-18T05:10:05Z</time>
      </trkpt>
      <trkpt lat="43.99389" lon="1.70916">
        <ele>282.28</ele>
        <time>2021-08-18T05:10:15Z</time>
      </trkpt>
      <trkpt lat="43.99374" lon="1.70905">
        <ele>282.28</ele>
        <time>2021-08-18T05:10:24Z</time>
      </trkpt>
      <trkpt lat="43.99357" lon="1.70897">
        <ele>282.28</ele>
        <time>2021-08-18T05:10:33Z</time>
      </trkpt>
      <trkpt lat="43.9934" lon="1.70898">
        <ele>282.28</ele>
        <time>2021-08-18T05:10:41Z</time>
      </trkpt>
      <trkpt lat="43.99328" lon="1.70904">
        <ele>283.25</ele>
        <time>2021-08-18T05:10:46Z</time>
      </trkpt>
      <trkpt lat="43.99313" lon="1.70909">
        <ele>283.73</ele>
        <time>2021-08-18T05:10:52Z</time>
      </trkpt>
      <trkpt lat="43.99306" lon="1.70923">
        <ele>283.73</ele>
        <time>2021-08-18T05:10:59Z</time>
      </trkpt>
      <trkpt lat="43.99297" lon="1.70937">
        <ele>284.21</ele>
        <time>2021-08-18T05:11:05Z</time>
      </trkpt>
      <trkpt lat="43.99288" lon="1.70953">
        <ele>284.21</ele>
        <time>2021-08-18T05:11:11Z</time>
      </trkpt>
      <trkpt lat="43.99278" lon="1.70978">
        <ele>284.69</ele>
        <time>2021-08-18T05:11:20Z</time>
      </trkpt>
      <trkpt lat="43.99273" lon="1.70996">
        <ele>285.17</ele>
        <time>2021-08-18T05:11:27Z</time>
      </trkpt>
      <trkpt lat="43.99272" lon="1.7101">
        <ele>285.65</ele>
        <time>2021-08-18T05:11:33Z</time>
      </trkpt>
      <trkpt lat="43.99273" lon="1.71012">
        <ele>285.65</ele>
        <time>2021-08-18T05:11:34Z</time>
      </trkpt>
      <trkpt lat="43.99278" lon="1.71029">
        <ele>286.13</ele>
        <time>2021-08-18T05:11:41Z</time>
      </trkpt>
      <trkpt lat="43.99284" lon="1.71054">
        <ele>286.13</ele>
        <time>2021-08-18T05:11:49Z</time>
      </trkpt>
      <trkpt lat="43.99284" lon="1.71072">
        <ele>286.13</ele>
        <time>2021-08-18T05:11:55Z</time>
      </trkpt>
      <trkpt lat="43.99284" lon="1.71075">
        <ele>286.13</ele>
        <time>2021-08-18T05:12:01Z</time>
      </trkpt>
      <trkpt lat="43.99286" lon="1.71079">
        <ele>286.13</ele>
        <time>2021-08-18T05:12:18Z</time>
      </trkpt>
      <trkpt lat="43.99287" lon="1.71078">
        <ele>286.61</ele>
        <time>2021-08-18T05:12:34Z</time>
      </trkpt>
      <trkpt lat="43.99286" lon="1.7108">
        <ele>286.61</ele>
        <time>2021-08-18T05:12:49Z</time>
      </trkpt>
      <trkpt lat="43.99286" lon="1.71082">
        <ele>286.61</ele>
        <time>2021-08-18T05:13:04Z</time>
      </trkpt>
      <trkpt lat="43.99285" lon="1.71081">
        <ele>287.09</ele>
        <time>2021-08-18T05:13:25Z</time>
      </trkpt>
      <trkpt lat="43.99284" lon="1.71078">
        <ele>286.13</ele>
        <time>2021-08-18T05:13:46Z</time>
      </trkpt>
      <trkpt lat="43.99284" lon="1.71078">
        <ele>286.13</ele>
        <time>2021-08-18T05:14:01Z</time>
      </trkpt>
      <trkpt lat="43.99282" lon="1.71083">
        <ele>286.61</ele>
        <time>2021-08-18T05:14:25Z</time>
      </trkpt>
      <trkpt lat="43.99282" lon="1.71082">
        <ele>286.61</ele>
        <time>2021-08-18T05:14:43Z</time>
      </trkpt>
      <trkpt lat="43.99283" lon="1.7108">
        <ele>286.61</ele>
        <time>2021-08-18T05:15:03Z</time>
      </trkpt>
      <trkpt lat="43.99283" lon="1.7108">
        <ele>286.61</ele>
        <time>2021-08-18T05:15:15Z</time>
      </trkpt>
      <trkpt lat="43.99283" lon="1.71078">
        <ele>286.61</ele>
        <time>2021-08-18T05:15:29Z</time>
      </trkpt>
      <trkpt lat="43.99285" lon="1.71078">
        <ele>286.61</ele>
        <time>2021-08-18T05:15:35Z</time>
      </trkpt>
      <trkpt lat="43.99286" lon="1.71078">
        <ele>286.61</ele>
        <time>2021-08-18T05:15:36Z</time>
      </trkpt>
      <trkpt lat="43.99287" lon="1.71075">
        <ele>286.61</ele>
        <time>2021-08-18T05:15:38Z</time>
      </trkpt>
      <trkpt lat="43.99287" lon="1.71072">
        <ele>286.61</ele>
        <time>2021-08-18T05:15:39Z</time>
      </trkpt>
      <trkpt lat="43.99287" lon="1.71071">
        <ele>286.61</ele>
        <time>2021-08-18T05:15:40Z</time>
      </trkpt>
      <trkpt lat="43.99286" lon="1.71069">
        <ele>286.61</ele>
        <time>2021-08-18T05:15:41Z</time>
      </trkpt>
      <trkpt lat="43.99286" lon="1.71066">
        <ele>286.61</ele>
        <time>2021-08-18T05:15:43Z</time>
      </trkpt>
      <trkpt lat="43.99287" lon="1.71062">
        <ele>286.61</ele>
        <time>2021-08-18T05:15:44Z</time>
      </trkpt>
      <trkpt lat="43.99287" lon="1.71059">
        <ele>286.61</ele>
        <time>2021-08-18T05:15:45Z</time>
      </trkpt>
      <trkpt lat="43.99288" lon="1.71057">
        <ele>286.61</ele>
        <time>2021-08-18T05:15:46Z</time>
      </trkpt>
      <trkpt lat="43.99285" lon="1.71052">
        <ele>286.61</ele>
        <time>2021-08-18T05:15:52Z</time>
      </trkpt>
      <trkpt lat="43.99284" lon="1.71051">
        <ele>287.09</ele>
        <time>2021-08-18T05:15:57Z</time>
      </trkpt>
      <trkpt lat="43.99285" lon="1.71051">
        <ele>287.09</ele>
        <time>2021-08-18T05:15:58Z</time>
      </trkpt>
      <trkpt lat="43.99284" lon="1.71049">
        <ele>287.09</ele>
        <time>2021-08-18T05:16:00Z</time>
      </trkpt>
      <trkpt lat="43.99283" lon="1.71047">
        <ele>287.09</ele>
        <time>2021-08-18T05:16:01Z</time>
      </trkpt>
      <trkpt lat="43.99282" lon="1.71044">
        <ele>287.09</ele>
        <time>2021-08-18T05:16:02Z</time>
      </trkpt>
      <trkpt lat="43.99282" lon="1.71042">
        <ele>287.09</ele>
        <time>2021-08-18T05:16:03Z</time>
      </trkpt>
      <trkpt lat="43.99281" lon="1.7104">
        <ele>287.09</ele>
        <time>2021-08-18T05:16:04Z</time>
      </trkpt>
      <trkpt lat="43.99276" lon="1.71019">
        <ele>287.09</ele>
        <time>2021-08-18T05:16:11Z</time>
      </trkpt>
      <trkpt lat="43.99276" lon="1.71016">
        <ele>287.09</ele>
        <time>2021-08-18T05:16:12Z</time>
      </trkpt>
      <trkpt lat="43.99274" lon="1.71013">
        <ele>287.09</ele>
        <time>2021-08-18T05:16:15Z</time>
      </trkpt>
      <trkpt lat="43.99273" lon="1.71007">
        <ele>287.09</ele>
        <time>2021-08-18T05:16:21Z</time>
      </trkpt>
      <trkpt lat="43.99273" lon="1.71001">
        <ele>287.09</ele>
        <time>2021-08-18T05:16:29Z</time>
      </trkpt>
      <trkpt lat="43.99271" lon="1.70998">
        <ele>287.09</ele>
        <time>2021-08-18T05:16:51Z</time>
      </trkpt>
      <trkpt lat="43.99272" lon="1.70998">
        <ele>287.09</ele>
        <time>2021-08-18T05:17:11Z</time>
      </trkpt>
      <trkpt lat="43.99272" lon="1.70997">
        <ele>287.09</ele>
        <time>2021-08-18T05:17:30Z</time>
      </trkpt>
      <trkpt lat="43.99273" lon="1.70997">
        <ele>287.09</ele>
        <time>2021-08-18T05:17:46Z</time>
      </trkpt>
      <trkpt lat="43.99273" lon="1.70997">
        <ele>287.09</ele>
        <time>2021-08-18T05:18:06Z</time>
      </trkpt>
      <trkpt lat="43.99272" lon="1.70997">
        <ele>287.09</ele>
        <time>2021-08-18T05:18:21Z</time>
      </trkpt>
      <trkpt lat="43.99271" lon="1.70997">
        <ele>287.09</ele>
        <time>2021-08-18T05:18:38Z</time>
      </trkpt>
      <trkpt lat="43.99273" lon="1.70997">
        <ele>287.09</ele>
        <time>2021-08-18T05:18:52Z</time>
      </trkpt>
      <trkpt lat="43.99273" lon="1.70997">
        <ele>287.09</ele>
        <time>2021-08-18T05:19:07Z</time>
      </trkpt>
      <trkpt lat="43.99274" lon="1.70996">
        <ele>287.09</ele>
        <time>2021-08-18T05:19:16Z</time>
      </trkpt>
      <trkpt lat="43.99276" lon="1.70991">
        <ele>287.09</ele>
        <time>2021-08-18T05:19:19Z</time>
      </trkpt>
      <trkpt lat="43.99277" lon="1.70988">
        <ele>287.09</ele>
        <time>2021-08-18T05:19:20Z</time>
      </trkpt>
      <trkpt lat="43.99278" lon="1.70985">
        <ele>287.09</ele>
        <time>2021-08-18T05:19:21Z</time>
      </trkpt>
      <trkpt lat="43.99279" lon="1.70982">
        <ele>287.09</ele>
        <time>2021-08-18T05:19:22Z</time>
      </trkpt>
      <trkpt lat="43.9928" lon="1.70979">
        <ele>287.09</ele>
        <time>2021-08-18T05:19:23Z</time>
      </trkpt>
      <trkpt lat="43.99281" lon="1.70976">
        <ele>287.09</ele>
        <time>2021-08-18T05:19:24Z</time>
      </trkpt>
      <trkpt lat="43.99282" lon="1.70973">
        <ele>287.09</ele>
        <time>2021-08-18T05:19:25Z</time>
      </trkpt>
      <trkpt lat="43.99283" lon="1.70969">
        <ele>286.61</ele>
        <time>2021-08-18T05:19:26Z</time>
      </trkpt>
      <trkpt lat="43.99297" lon="1.70941">
        <ele>286.13</ele>
        <time>2021-08-18T05:19:33Z</time>
      </trkpt>
      <trkpt lat="43.99312" lon="1.70909">
        <ele>285.65</ele>
        <time>2021-08-18T05:19:41Z</time>
      </trkpt>
      <trkpt lat="43.99326" lon="1.70896">
        <ele>285.65</ele>
        <time>2021-08-18T05:19:48Z</time>
      </trkpt>
      <trkpt lat="43.99327" lon="1.70893">
        <ele>285.65</ele>
        <time>2021-08-18T05:19:49Z</time>
      </trkpt>
      <trkpt lat="43.99326" lon="1.70891">
        <ele>285.65</ele>
        <time>2021-08-18T05:19:50Z</time>
      </trkpt>
      <trkpt lat="43.99323" lon="1.70891">
        <ele>285.65</ele>
        <time>2021-08-18T05:19:51Z</time>
      </trkpt>
      <trkpt lat="43.99322" lon="1.70893">
        <ele>285.65</ele>
        <time>2021-08-18T05:19:52Z</time>
      </trkpt>
      <trkpt lat="43.9932" lon="1.70896">
        <ele>285.65</ele>
        <time>2021-08-18T05:19:53Z</time>
      </trkpt>
      <trkpt lat="43.99318" lon="1.70898">
        <ele>285.65</ele>
        <time>2021-08-18T05:19:54Z</time>
      </trkpt>
      <trkpt lat="43.99317" lon="1.70898">
        <ele>285.65</ele>
        <time>2021-08-18T05:19:55Z</time>
      </trkpt>
      <trkpt lat="43.99317" lon="1.70899">
        <ele>285.65</ele>
        <time>2021-08-18T05:20:01Z</time>
      </trkpt>
      <trkpt lat="43.99318" lon="1.709">
        <ele>285.65</ele>
        <time>2021-08-18T05:20:15Z</time>
      </trkpt>
      <trkpt lat="43.99318" lon="1.709">
        <ele>299.11</ele>
        <time>2021-08-18T05:20:16Z</time>
      </trkpt>
      <trkpt lat="43.99318" lon="1.709">
        <ele>299.11</ele>
        <time>2021-08-18T05:20:17Z</time>
      </trkpt>
      <trkpt lat="43.99319" lon="1.709">
        <ele>290.94</ele>
        <time>2021-08-18T05:20:21Z</time>
      </trkpt>
      <trkpt lat="43.99319" lon="1.70901">
        <ele>290.94</ele>
        <time>2021-08-18T05:20:22Z</time>
      </trkpt>
      <trkpt lat="43.99319" lon="1.70904">
        <ele>290.94</ele>
        <time>2021-08-18T05:20:28Z</time>
      </trkpt>
      <trkpt lat="43.99318" lon="1.70905">
        <ele>290.94</ele>
        <time>2021-08-18T05:20:29Z</time>
      </trkpt>
      <trkpt lat="43.99317" lon="1.70906">
        <ele>290.94</ele>
        <time>2021-08-18T05:20:30Z</time>
      </trkpt>
      <trkpt lat="43.99306" lon="1.70919">
        <ele>290.94</ele>
        <time>2021-08-18T05:20:38Z</time>
      </trkpt>
      <trkpt lat="43.99306" lon="1.7092">
        <ele>290.94</ele>
        <time>2021-08-18T05:20:49Z</time>
      </trkpt>
      <trkpt lat="43.99312" lon="1.70924">
        <ele>290.94</ele>
        <time>2021-08-18T05:21:03Z</time>
      </trkpt>
      <trkpt lat="43.99311" lon="1.70925">
        <ele>290.94</ele>
        <time>2021-08-18T05:21:25Z</time>
      </trkpt>
      <trkpt lat="43.9931" lon="1.70927">
        <ele>290.94</ele>
        <time>2021-08-18T05:21:31Z</time>
      </trkpt>
      <trkpt lat="43.99308" lon="1.70928">
        <ele>291.42</ele>
        <time>2021-08-18T05:21:33Z</time>
      </trkpt>
      <trkpt lat="43.99298" lon="1.70939">
        <ele>291.42</ele>
        <time>2021-08-18T05:21:39Z</time>
      </trkpt>
      <trkpt lat="43.99286" lon="1.70961">
        <ele>291.9</ele>
        <time>2021-08-18T05:21:47Z</time>
      </trkpt>
      <trkpt lat="43.99278" lon="1.70984">
        <ele>291.9</ele>
        <time>2021-08-18T05:21:54Z</time>
      </trkpt>
      <trkpt lat="43.99273" lon="1.71001">
        <ele>292.38</ele>
        <time>2021-08-18T05:22:00Z</time>
      </trkpt>
      <trkpt lat="43.99274" lon="1.71015">
        <ele>292.86</ele>
        <time>2021-08-18T05:22:05Z</time>
      </trkpt>
      <trkpt lat="43.99274" lon="1.71017">
        <ele>292.86</ele>
        <time>2021-08-18T05:22:06Z</time>
      </trkpt>
      <trkpt lat="43.99274" lon="1.71019">
        <ele>292.86</ele>
        <time>2021-08-18T05:22:07Z</time>
      </trkpt>
      <trkpt lat="43.99275" lon="1.71021">
        <ele>292.86</ele>
        <time>2021-08-18T05:22:08Z</time>
      </trkpt>
      <trkpt lat="43.99275" lon="1.71024">
        <ele>292.86</ele>
        <time>2021-08-18T05:22:09Z</time>
      </trkpt>
      <trkpt lat="43.9928" lon="1.71048">
        <ele>293.34</ele>
        <time>2021-08-18T05:22:16Z</time>
      </trkpt>
      <trkpt lat="43.99284" lon="1.71069">
        <ele>293.34</ele>
        <time>2021-08-18T05:22:21Z</time>
      </trkpt>
      <trkpt lat="43.99283" lon="1.71072">
        <ele>293.34</ele>
        <time>2021-08-18T05:22:22Z</time>
      </trkpt>
      <trkpt lat="43.9928" lon="1.71074">
        <ele>293.34</ele>
        <time>2021-08-18T05:22:23Z</time>
      </trkpt>
      <trkpt lat="43.99278" lon="1.71074">
        <ele>293.34</ele>
        <time>2021-08-18T05:22:24Z</time>
      </trkpt>
      <trkpt lat="43.99276" lon="1.71073">
        <ele>293.34</ele>
        <time>2021-08-18T05:22:25Z</time>
      </trkpt>
      <trkpt lat="43.99274" lon="1.71071">
        <ele>293.34</ele>
        <time>2021-08-18T05:22:26Z</time>
      </trkpt>
      <trkpt lat="43.99262" lon="1.71066">
        <ele>292.38</ele>
        <time>2021-08-18T05:22:31Z</time>
      </trkpt>
      <trkpt lat="43.99243" lon="1.71062">
        <ele>290.94</ele>
        <time>2021-08-18T05:22:38Z</time>
      </trkpt>
      <trkpt lat="43.99232" lon="1.71063">
        <ele>289.97</ele>
        <time>2021-08-18T05:22:42Z</time>
      </trkpt>
      <trkpt lat="43.99208" lon="1.7108">
        <ele>286.61</ele>
        <time>2021-08-18T05:22:51Z</time>
      </trkpt>
      <trkpt lat="43.99192" lon="1.7108">
        <ele>284.69</ele>
        <time>2021-08-18T05:22:56Z</time>
      </trkpt>
      <trkpt lat="43.99184" lon="1.71078">
        <ele>283.73</ele>
        <time>2021-08-18T05:22:58Z</time>
      </trkpt>
      <trkpt lat="43.99181" lon="1.71079">
        <ele>283.73</ele>
        <time>2021-08-18T05:22:59Z</time>
      </trkpt>
      <trkpt lat="43.99178" lon="1.71081">
        <ele>283.25</ele>
        <time>2021-08-18T05:23:00Z</time>
      </trkpt>
      <trkpt lat="43.99176" lon="1.71082">
        <ele>282.77</ele>
        <time>2021-08-18T05:23:01Z</time>
      </trkpt>
      <trkpt lat="43.99173" lon="1.71084">
        <ele>282.77</ele>
        <time>2021-08-18T05:23:02Z</time>
      </trkpt>
      <trkpt lat="43.99172" lon="1.71087">
        <ele>281.8</ele>
        <time>2021-08-18T05:23:03Z</time>
      </trkpt>
      <trkpt lat="43.99171" lon="1.71091">
        <ele>281.8</ele>
        <time>2021-08-18T05:23:04Z</time>
      </trkpt>
      <trkpt lat="43.9917" lon="1.71093">
        <ele>281.8</ele>
        <time>2021-08-18T05:23:05Z</time>
      </trkpt>
      <trkpt lat="43.99171" lon="1.71097">
        <ele>281.8</ele>
        <time>2021-08-18T05:23:06Z</time>
      </trkpt>
      <trkpt lat="43.99172" lon="1.711">
        <ele>280.84</ele>
        <time>2021-08-18T05:23:07Z</time>
      </trkpt>
      <trkpt lat="43.99174" lon="1.71102">
        <ele>280.84</ele>
        <time>2021-08-18T05:23:08Z</time>
      </trkpt>
      <trkpt lat="43.99177" lon="1.71104">
        <ele>280.36</ele>
        <time>2021-08-18T05:23:09Z</time>
      </trkpt>
      <trkpt lat="43.99194" lon="1.71116">
        <ele>277.96</ele>
        <time>2021-08-18T05:23:14Z</time>
      </trkpt>
      <trkpt lat="43.99199" lon="1.71118">
        <ele>277.96</ele>
        <time>2021-08-18T05:23:15Z</time>
      </trkpt>
      <trkpt lat="43.99203" lon="1.7112">
        <ele>277.96</ele>
        <time>2021-08-18T05:23:16Z</time>
      </trkpt>
      <trkpt lat="43.99224" lon="1.71125">
        <ele>277.96</ele>
        <time>2021-08-18T05:23:22Z</time>
      </trkpt>
      <trkpt lat="43.99235" lon="1.7113">
        <ele>277.96</ele>
        <time>2021-08-18T05:23:28Z</time>
      </trkpt>
      <trkpt lat="43.99255" lon="1.71137">
        <ele>277.96</ele>
        <time>2021-08-18T05:23:35Z</time>
      </trkpt>
      <trkpt lat="43.99276" lon="1.71142">
        <ele>277.96</ele>
        <time>2021-08-18T05:23:42Z</time>
      </trkpt>
      <trkpt lat="43.99294" lon="1.71146">
        <ele>277.96</ele>
        <time>2021-08-18T05:23:49Z</time>
      </trkpt>
      <trkpt lat="43.99309" lon="1.71157">
        <ele>277.96</ele>
        <time>2021-08-18T05:23:55Z</time>
      </trkpt>
      <trkpt lat="43.99333" lon="1.71167">
        <ele>275.07</ele>
        <time>2021-08-18T05:24:01Z</time>
      </trkpt>
      <trkpt lat="43.99352" lon="1.71174">
        <ele>272.67</ele>
        <time>2021-08-18T05:24:05Z</time>
      </trkpt>
      <trkpt lat="43.9937" lon="1.71184">
        <ele>269.79</ele>
        <time>2021-08-18T05:24:09Z</time>
      </trkpt>
      <trkpt lat="43.99387" lon="1.71196">
        <ele>266.9</ele>
        <time>2021-08-18T05:24:13Z</time>
      </trkpt>
      <trkpt lat="43.994" lon="1.71206">
        <ele>264.02</ele>
        <time>2021-08-18T05:24:16Z</time>
      </trkpt>
      <trkpt lat="43.99403" lon="1.71209">
        <ele>263.54</ele>
        <time>2021-08-18T05:24:17Z</time>
      </trkpt>
      <trkpt lat="43.99407" lon="1.71213">
        <ele>262.1</ele>
        <time>2021-08-18T05:24:18Z</time>
      </trkpt>
      <trkpt lat="43.99413" lon="1.7122">
        <ele>260.65</ele>
        <time>2021-08-18T05:24:20Z</time>
      </trkpt>
      <trkpt lat="43.99416" lon="1.71225">
        <ele>259.69</ele>
        <time>2021-08-18T05:24:21Z</time>
      </trkpt>
      <trkpt lat="43.99417" lon="1.7123">
        <ele>259.21</ele>
        <time>2021-08-18T05:24:22Z</time>
      </trkpt>
      <trkpt lat="43.99419" lon="1.71234">
        <ele>258.25</ele>
        <time>2021-08-18T05:24:23Z</time>
      </trkpt>
      <trkpt lat="43.99421" lon="1.71239">
        <ele>257.77</ele>
        <time>2021-08-18T05:24:24Z</time>
      </trkpt>
      <trkpt lat="43.99424" lon="1.7125">
        <ele>256.33</ele>
        <time>2021-08-18T05:24:26Z</time>
      </trkpt>
      <trkpt lat="43.99424" lon="1.71258">
        <ele>255.85</ele>
        <time>2021-08-18T05:24:27Z</time>
      </trkpt>
      <trkpt lat="43.99422" lon="1.71281">
        <ele>255.85</ele>
        <time>2021-08-18T05:24:32Z</time>
      </trkpt>
      <trkpt lat="43.99419" lon="1.71284">
        <ele>255.85</ele>
        <time>2021-08-18T05:24:33Z</time>
      </trkpt>
      <trkpt lat="43.99415" lon="1.71286">
        <ele>255.85</ele>
        <time>2021-08-18T05:24:34Z</time>
      </trkpt>
      <trkpt lat="43.99411" lon="1.71286">
        <ele>254.41</ele>
        <time>2021-08-18T05:24:35Z</time>
      </trkpt>
      <trkpt lat="43.99405" lon="1.71285">
        <ele>253.93</ele>
        <time>2021-08-18T05:24:36Z</time>
      </trkpt>
      <trkpt lat="43.994" lon="1.71284">
        <ele>252.96</ele>
        <time>2021-08-18T05:24:37Z</time>
      </trkpt>
      <trkpt lat="43.99394" lon="1.71283">
        <ele>252.96</ele>
        <time>2021-08-18T05:24:38Z</time>
      </trkpt>
      <trkpt lat="43.99367" lon="1.71278">
        <ele>251.04</ele>
        <time>2021-08-18T05:24:43Z</time>
      </trkpt>
      <trkpt lat="43.99362" lon="1.71279">
        <ele>249.6</ele>
        <time>2021-08-18T05:24:44Z</time>
      </trkpt>
      <trkpt lat="43.99358" lon="1.71281">
        <ele>249.12</ele>
        <time>2021-08-18T05:24:45Z</time>
      </trkpt>
      <trkpt lat="43.99355" lon="1.71286">
        <ele>248.64</ele>
        <time>2021-08-18T05:24:46Z</time>
      </trkpt>
      <trkpt lat="43.99352" lon="1.71292">
        <ele>247.68</ele>
        <time>2021-08-18T05:24:47Z</time>
      </trkpt>
      <trkpt lat="43.99351" lon="1.71298">
        <ele>247.2</ele>
        <time>2021-08-18T05:24:48Z</time>
      </trkpt>
      <trkpt lat="43.99349" lon="1.71305">
        <ele>246.72</ele>
        <time>2021-08-18T05:24:49Z</time>
      </trkpt>
      <trkpt lat="43.99341" lon="1.7134">
        <ele>244.31</ele>
        <time>2021-08-18T05:24:54Z</time>
      </trkpt>
      <trkpt lat="43.99339" lon="1.71345">
        <ele>244.79</ele>
        <time>2021-08-18T05:24:55Z</time>
      </trkpt>
      <trkpt lat="43.99335" lon="1.7135">
        <ele>243.83</ele>
        <time>2021-08-18T05:24:56Z</time>
      </trkpt>
      <trkpt lat="43.99331" lon="1.71354">
        <ele>243.83</ele>
        <time>2021-08-18T05:24:57Z</time>
      </trkpt>
      <trkpt lat="43.99326" lon="1.71356">
        <ele>242.87</ele>
        <time>2021-08-18T05:24:58Z</time>
      </trkpt>
      <trkpt lat="43.9932" lon="1.71358">
        <ele>241.91</ele>
        <time>2021-08-18T05:24:59Z</time>
      </trkpt>
      <trkpt lat="43.99314" lon="1.71359">
        <ele>241.43</ele>
        <time>2021-08-18T05:25:00Z</time>
      </trkpt>
      <trkpt lat="43.99307" lon="1.71359">
        <ele>240.47</ele>
        <time>2021-08-18T05:25:01Z</time>
      </trkpt>
      <trkpt lat="43.99282" lon="1.7136">
        <ele>236.62</ele>
        <time>2021-08-18T05:25:04Z</time>
      </trkpt>
      <trkpt lat="43.99254" lon="1.71361">
        <ele>231.33</ele>
        <time>2021-08-18T05:25:07Z</time>
      </trkpt>
      <trkpt lat="43.99227" lon="1.71362">
        <ele>227.01</ele>
        <time>2021-08-18T05:25:10Z</time>
      </trkpt>
      <trkpt lat="43.992" lon="1.71365">
        <ele>222.68</ele>
        <time>2021-08-18T05:25:13Z</time>
      </trkpt>
      <trkpt lat="43.99176" lon="1.71369">
        <ele>218.84</ele>
        <time>2021-08-18T05:25:16Z</time>
      </trkpt>
      <trkpt lat="43.9917" lon="1.71371">
        <ele>217.88</ele>
        <time>2021-08-18T05:25:17Z</time>
      </trkpt>
      <trkpt lat="43.99164" lon="1.71373">
        <ele>216.91</ele>
        <time>2021-08-18T05:25:18Z</time>
      </trkpt>
      <trkpt lat="43.99159" lon="1.71378">
        <ele>215.95</ele>
        <time>2021-08-18T05:25:19Z</time>
      </trkpt>
      <trkpt lat="43.99155" lon="1.71384">
        <ele>214.99</ele>
        <time>2021-08-18T05:25:20Z</time>
      </trkpt>
      <trkpt lat="43.99152" lon="1.71391">
        <ele>214.03</ele>
        <time>2021-08-18T05:25:21Z</time>
      </trkpt>
      <trkpt lat="43.9915" lon="1.714">
        <ele>213.07</ele>
        <time>2021-08-18T05:25:22Z</time>
      </trkpt>
      <trkpt lat="43.99148" lon="1.7141">
        <ele>211.63</ele>
        <time>2021-08-18T05:25:23Z</time>
      </trkpt>
      <trkpt lat="43.99146" lon="1.71418">
        <ele>210.67</ele>
        <time>2021-08-18T05:25:24Z</time>
      </trkpt>
      <trkpt lat="43.99143" lon="1.71434">
        <ele>209.22</ele>
        <time>2021-08-18T05:25:26Z</time>
      </trkpt>
      <trkpt lat="43.9914" lon="1.71439">
        <ele>208.26</ele>
        <time>2021-08-18T05:25:27Z</time>
      </trkpt>
      <trkpt lat="43.99136" lon="1.71444">
        <ele>207.3</ele>
        <time>2021-08-18T05:25:28Z</time>
      </trkpt>
      <trkpt lat="43.99131" lon="1.71445">
        <ele>205.86</ele>
        <time>2021-08-18T05:25:29Z</time>
      </trkpt>
      <trkpt lat="43.99126" lon="1.71445">
        <ele>204.9</ele>
        <time>2021-08-18T05:25:30Z</time>
      </trkpt>
      <trkpt lat="43.99121" lon="1.71442">
        <ele>203.46</ele>
        <time>2021-08-18T05:25:31Z</time>
      </trkpt>
      <trkpt lat="43.99115" lon="1.71436">
        <ele>202.01</ele>
        <time>2021-08-18T05:25:32Z</time>
      </trkpt>
      <trkpt lat="43.99109" lon="1.71429">
        <ele>199.61</ele>
        <time>2021-08-18T05:25:33Z</time>
      </trkpt>
      <trkpt lat="43.99095" lon="1.71414">
        <ele>197.21</ele>
        <time>2021-08-18T05:25:35Z</time>
      </trkpt>
      <trkpt lat="43.99087" lon="1.71408">
        <ele>195.77</ele>
        <time>2021-08-18T05:25:36Z</time>
      </trkpt>
      <trkpt lat="43.99078" lon="1.71402">
        <ele>193.84</ele>
        <time>2021-08-18T05:25:37Z</time>
      </trkpt>
      <trkpt lat="43.99068" lon="1.71398">
        <ele>191.92</ele>
        <time>2021-08-18T05:25:38Z</time>
      </trkpt>
      <trkpt lat="43.99059" lon="1.71394">
        <ele>190.96</ele>
        <time>2021-08-18T05:25:39Z</time>
      </trkpt>
      <trkpt lat="43.99049" lon="1.71389">
        <ele>189.52</ele>
        <time>2021-08-18T05:25:40Z</time>
      </trkpt>
      <trkpt lat="43.9904" lon="1.71383">
        <ele>187.59</ele>
        <time>2021-08-18T05:25:41Z</time>
      </trkpt>
      <trkpt lat="43.99031" lon="1.71376">
        <ele>185.67</ele>
        <time>2021-08-18T05:25:42Z</time>
      </trkpt>
      <trkpt lat="43.99012" lon="1.71359">
        <ele>181.83</ele>
        <time>2021-08-18T05:25:44Z</time>
      </trkpt>
      <trkpt lat="43.98992" lon="1.7134">
        <ele>177.98</ele>
        <time>2021-08-18T05:25:46Z</time>
      </trkpt>
      <trkpt lat="43.98972" lon="1.71321">
        <ele>174.14</ele>
        <time>2021-08-18T05:25:48Z</time>
      </trkpt>
      <trkpt lat="43.98954" lon="1.71305">
        <ele>170.77</ele>
        <time>2021-08-18T05:25:50Z</time>
      </trkpt>
      <trkpt lat="43.98923" lon="1.71288">
        <ele>166.93</ele>
        <time>2021-08-18T05:25:53Z</time>
      </trkpt>
      <trkpt lat="43.98904" lon="1.71276">
        <ele>164.52</ele>
        <time>2021-08-18T05:25:55Z</time>
      </trkpt>
      <trkpt lat="43.98897" lon="1.71268">
        <ele>163.56</ele>
        <time>2021-08-18T05:25:56Z</time>
      </trkpt>
      <trkpt lat="43.98891" lon="1.71258">
        <ele>162.6</ele>
        <time>2021-08-18T05:25:57Z</time>
      </trkpt>
      <trkpt lat="43.98887" lon="1.71247">
        <ele>162.12</ele>
        <time>2021-08-18T05:25:58Z</time>
      </trkpt>
      <trkpt lat="43.98883" lon="1.71235">
        <ele>161.64</ele>
        <time>2021-08-18T05:25:59Z</time>
      </trkpt>
      <trkpt lat="43.98879" lon="1.71222">
        <ele>160.2</ele>
        <time>2021-08-18T05:26:00Z</time>
      </trkpt>
      <trkpt lat="43.98869" lon="1.71181">
        <ele>156.83</ele>
        <time>2021-08-18T05:26:03Z</time>
      </trkpt>
      <trkpt lat="43.98852" lon="1.71118">
        <ele>153.47</ele>
        <time>2021-08-18T05:26:08Z</time>
      </trkpt>
      <trkpt lat="43.98846" lon="1.71094">
        <ele>152.51</ele>
        <time>2021-08-18T05:26:10Z</time>
      </trkpt>
      <trkpt lat="43.98838" lon="1.71055">
        <ele>151.06</ele>
        <time>2021-08-18T05:26:14Z</time>
      </trkpt>
      <trkpt lat="43.98832" lon="1.71027">
        <ele>149.62</ele>
        <time>2021-08-18T05:26:19Z</time>
      </trkpt>
      <trkpt lat="43.98828" lon="1.71022">
        <ele>150.1</ele>
        <time>2021-08-18T05:26:24Z</time>
      </trkpt>
      <trkpt lat="43.98826" lon="1.7102">
        <ele>150.1</ele>
        <time>2021-08-18T05:26:25Z</time>
      </trkpt>
      <trkpt lat="43.98824" lon="1.71019">
        <ele>150.1</ele>
        <time>2021-08-18T05:26:26Z</time>
      </trkpt>
      <trkpt lat="43.98822" lon="1.7102">
        <ele>150.1</ele>
        <time>2021-08-18T05:26:27Z</time>
      </trkpt>
      <trkpt lat="43.98819" lon="1.71021">
        <ele>149.62</ele>
        <time>2021-08-18T05:26:28Z</time>
      </trkpt>
      <trkpt lat="43.98817" lon="1.71024">
        <ele>149.62</ele>
        <time>2021-08-18T05:26:29Z</time>
      </trkpt>
      <trkpt lat="43.98792" lon="1.71041">
        <ele>149.62</ele>
        <time>2021-08-18T05:26:37Z</time>
      </trkpt>
      <trkpt lat="43.98768" lon="1.7104">
        <ele>149.62</ele>
        <time>2021-08-18T05:26:43Z</time>
      </trkpt>
      <trkpt lat="43.98743" lon="1.71021">
        <ele>147.22</ele>
        <time>2021-08-18T05:26:49Z</time>
      </trkpt>
      <trkpt lat="43.98705" lon="1.70999">
        <ele>143.37</ele>
        <time>2021-08-18T05:26:55Z</time>
      </trkpt>
      <trkpt lat="43.98647" lon="1.70962">
        <ele>140.49</ele>
        <time>2021-08-18T05:27:03Z</time>
      </trkpt>
      <trkpt lat="43.98628" lon="1.70946">
        <ele>140.01</ele>
        <time>2021-08-18T05:27:06Z</time>
      </trkpt>
      <trkpt lat="43.98622" lon="1.70943">
        <ele>140.01</ele>
        <time>2021-08-18T05:27:07Z</time>
      </trkpt>
      <trkpt lat="43.98616" lon="1.7094">
        <ele>140.01</ele>
        <time>2021-08-18T05:27:08Z</time>
      </trkpt>
      <trkpt lat="43.98574" lon="1.70929">
        <ele>140.01</ele>
        <time>2021-08-18T05:27:15Z</time>
      </trkpt>
      <trkpt lat="43.98544" lon="1.70925">
        <ele>140.01</ele>
        <time>2021-08-18T05:27:20Z</time>
      </trkpt>
      <trkpt lat="43.98539" lon="1.70927">
        <ele>140.01</ele>
        <time>2021-08-18T05:27:21Z</time>
      </trkpt>
      <trkpt lat="43.98534" lon="1.70929">
        <ele>140.01</ele>
        <time>2021-08-18T05:27:22Z</time>
      </trkpt>
      <trkpt lat="43.98502" lon="1.70945">
        <ele>140.01</ele>
        <time>2021-08-18T05:27:28Z</time>
      </trkpt>
      <trkpt lat="43.98497" lon="1.70949">
        <ele>140.01</ele>
        <time>2021-08-18T05:27:29Z</time>
      </trkpt>
      <trkpt lat="43.98492" lon="1.70952">
        <ele>140.01</ele>
        <time>2021-08-18T05:27:30Z</time>
      </trkpt>
      <trkpt lat="43.98487" lon="1.70954">
        <ele>140.01</ele>
        <time>2021-08-18T05:27:31Z</time>
      </trkpt>
      <trkpt lat="43.98481" lon="1.70956">
        <ele>140.01</ele>
        <time>2021-08-18T05:27:32Z</time>
      </trkpt>
      <trkpt lat="43.98476" lon="1.70957">
        <ele>140.01</ele>
        <time>2021-08-18T05:27:33Z</time>
      </trkpt>
      <trkpt lat="43.98464" lon="1.70958">
        <ele>140.01</ele>
        <time>2021-08-18T05:27:35Z</time>
      </trkpt>
      <trkpt lat="43.98459" lon="1.70957">
        <ele>140.01</ele>
        <time>2021-08-18T05:27:36Z</time>
      </trkpt>
      <trkpt lat="43.98432" lon="1.70948">
        <ele>139.53</ele>
        <time>2021-08-18T05:27:41Z</time>
      </trkpt>
      <trkpt lat="43.98425" lon="1.70947">
        <ele>140.97</ele>
        <time>2021-08-18T05:27:44Z</time>
      </trkpt>
      <trkpt lat="43.98425" lon="1.70947">
        <ele>140.49</ele>
        <time>2021-08-18T05:27:55Z</time>
      </trkpt>
      <trkpt lat="43.98422" lon="1.70947">
        <ele>140.49</ele>
        <time>2021-08-18T05:28:13Z</time>
      </trkpt>
      <trkpt lat="43.98405" lon="1.70947">
        <ele>140.49</ele>
        <time>2021-08-18T05:28:20Z</time>
      </trkpt>
      <trkpt lat="43.98378" lon="1.70951">
        <ele>140.97</ele>
        <time>2021-08-18T05:28:28Z</time>
      </trkpt>
      <trkpt lat="43.98353" lon="1.7097">
        <ele>140.97</ele>
        <time>2021-08-18T05:28:35Z</time>
      </trkpt>
      <trkpt lat="43.9832" lon="1.70995">
        <ele>140.97</ele>
        <time>2021-08-18T05:28:44Z</time>
      </trkpt>
      <trkpt lat="43.98283" lon="1.71012">
        <ele>141.93</ele>
        <time>2021-08-18T05:28:53Z</time>
      </trkpt>
      <trkpt lat="43.98251" lon="1.71022">
        <ele>142.41</ele>
        <time>2021-08-18T05:29:01Z</time>
      </trkpt>
      <trkpt lat="43.98222" lon="1.71032">
        <ele>143.37</ele>
        <time>2021-08-18T05:29:09Z</time>
      </trkpt>
      <trkpt lat="43.98186" lon="1.71048">
        <ele>143.85</ele>
        <time>2021-08-18T05:29:19Z</time>
      </trkpt>
      <trkpt lat="43.98156" lon="1.71061">
        <ele>145.3</ele>
        <time>2021-08-18T05:29:29Z</time>
      </trkpt>
      <trkpt lat="43.98145" lon="1.71066">
        <ele>145.78</ele>
        <time>2021-08-18T05:29:34Z</time>
      </trkpt>
      <trkpt lat="43.98143" lon="1.71065">
        <ele>145.78</ele>
        <time>2021-08-18T05:29:35Z</time>
      </trkpt>
      <trkpt lat="43.98142" lon="1.71064">
        <ele>145.78</ele>
        <time>2021-08-18T05:29:36Z</time>
      </trkpt>
      <trkpt lat="43.98136" lon="1.71055">
        <ele>147.22</ele>
        <time>2021-08-18T05:29:42Z</time>
      </trkpt>
      <trkpt lat="43.98129" lon="1.71043">
        <ele>149.14</ele>
        <time>2021-08-18T05:29:51Z</time>
      </trkpt>
      <trkpt lat="43.98128" lon="1.71043">
        <ele>149.62</ele>
        <time>2021-08-18T05:29:52Z</time>
      </trkpt>
      <trkpt lat="43.98127" lon="1.71041">
        <ele>150.1</ele>
        <time>2021-08-18T05:29:54Z</time>
      </trkpt>
      <trkpt lat="43.98119" lon="1.71031">
        <ele>151.06</ele>
        <time>2021-08-18T05:30:02Z</time>
      </trkpt>
      <trkpt lat="43.98111" lon="1.71022">
        <ele>152.51</ele>
        <time>2021-08-18T05:30:10Z</time>
      </trkpt>
      <trkpt lat="43.98102" lon="1.71015">
        <ele>153.47</ele>
        <time>2021-08-18T05:30:18Z</time>
      </trkpt>
      <trkpt lat="43.98093" lon="1.71007">
        <ele>154.43</ele>
        <time>2021-08-18T05:30:27Z</time>
      </trkpt>
      <trkpt lat="43.98093" lon="1.71005">
        <ele>154.91</ele>
        <time>2021-08-18T05:30:28Z</time>
      </trkpt>
      <trkpt lat="43.98092" lon="1.71003">
        <ele>154.91</ele>
        <time>2021-08-18T05:30:29Z</time>
      </trkpt>
      <trkpt lat="43.98091" lon="1.71002">
        <ele>155.39</ele>
        <time>2021-08-18T05:30:30Z</time>
      </trkpt>
      <trkpt lat="43.98081" lon="1.70991">
        <ele>156.83</ele>
        <time>2021-08-18T05:30:40Z</time>
      </trkpt>
      <trkpt lat="43.9807" lon="1.70985">
        <ele>158.27</ele>
        <time>2021-08-18T05:30:50Z</time>
      </trkpt>
      <trkpt lat="43.98063" lon="1.70984">
        <ele>159.72</ele>
        <time>2021-08-18T05:30:55Z</time>
      </trkpt>
      <trkpt lat="43.98057" lon="1.70981">
        <ele>160.68</ele>
        <time>2021-08-18T05:31:00Z</time>
      </trkpt>
      <trkpt lat="43.98056" lon="1.7098">
        <ele>160.68</ele>
        <time>2021-08-18T05:31:01Z</time>
      </trkpt>
      <trkpt lat="43.9805" lon="1.70975">
        <ele>162.12</ele>
        <time>2021-08-18T05:31:06Z</time>
      </trkpt>
      <trkpt lat="43.98049" lon="1.70969">
        <ele>162.6</ele>
        <time>2021-08-18T05:31:10Z</time>
      </trkpt>
      <trkpt lat="43.98049" lon="1.70965">
        <ele>162.6</ele>
        <time>2021-08-18T05:31:12Z</time>
      </trkpt>
      <trkpt lat="43.98055" lon="1.70942">
        <ele>163.56</ele>
        <time>2021-08-18T05:31:22Z</time>
      </trkpt>
      <trkpt lat="43.98049" lon="1.70922">
        <ele>164.52</ele>
        <time>2021-08-18T05:31:31Z</time>
      </trkpt>
      <trkpt lat="43.98036" lon="1.70915">
        <ele>165</ele>
        <time>2021-08-18T05:31:39Z</time>
      </trkpt>
      <trkpt lat="43.98019" lon="1.70904">
        <ele>165.48</ele>
        <time>2021-08-18T05:31:48Z</time>
      </trkpt>
      <trkpt lat="43.98003" lon="1.70896">
        <ele>166.45</ele>
        <time>2021-08-18T05:31:56Z</time>
      </trkpt>
      <trkpt lat="43.98001" lon="1.70897">
        <ele>166.45</ele>
        <time>2021-08-18T05:31:57Z</time>
      </trkpt>
      <trkpt lat="43.97999" lon="1.70898">
        <ele>166.45</ele>
        <time>2021-08-18T05:32:04Z</time>
      </trkpt>
      <trkpt lat="43.97995" lon="1.70902">
        <ele>166.45</ele>
        <time>2021-08-18T05:32:09Z</time>
      </trkpt>
      <trkpt lat="43.97995" lon="1.70904">
        <ele>166.45</ele>
        <time>2021-08-18T05:32:10Z</time>
      </trkpt>
      <trkpt lat="43.97996" lon="1.70921">
        <ele>166.93</ele>
        <time>2021-08-18T05:32:17Z</time>
      </trkpt>
      <trkpt lat="43.97995" lon="1.70923">
        <ele>166.93</ele>
        <time>2021-08-18T05:32:18Z</time>
      </trkpt>
      <trkpt lat="43.97994" lon="1.70926">
        <ele>167.41</ele>
        <time>2021-08-18T05:32:19Z</time>
      </trkpt>
      <trkpt lat="43.97994" lon="1.70931">
        <ele>167.89</ele>
        <time>2021-08-18T05:32:21Z</time>
      </trkpt>
      <trkpt lat="43.97994" lon="1.70933">
        <ele>167.89</ele>
        <time>2021-08-18T05:32:22Z</time>
      </trkpt>
      <trkpt lat="43.97994" lon="1.70936">
        <ele>167.89</ele>
        <time>2021-08-18T05:32:23Z</time>
      </trkpt>
      <trkpt lat="43.97994" lon="1.70938">
        <ele>168.85</ele>
        <time>2021-08-18T05:32:24Z</time>
      </trkpt>
      <trkpt lat="43.97994" lon="1.70941">
        <ele>168.85</ele>
        <time>2021-08-18T05:32:25Z</time>
      </trkpt>
      <trkpt lat="43.97993" lon="1.70956">
        <ele>170.29</ele>
        <time>2021-08-18T05:32:32Z</time>
      </trkpt>
      <trkpt lat="43.97991" lon="1.70972">
        <ele>171.25</ele>
        <time>2021-08-18T05:32:39Z</time>
      </trkpt>
      <trkpt lat="43.97987" lon="1.70988">
        <ele>173.17</ele>
        <time>2021-08-18T05:32:46Z</time>
      </trkpt>
      <trkpt lat="43.97986" lon="1.7099">
        <ele>173.66</ele>
        <time>2021-08-18T05:32:47Z</time>
      </trkpt>
      <trkpt lat="43.97986" lon="1.70993">
        <ele>173.66</ele>
        <time>2021-08-18T05:32:48Z</time>
      </trkpt>
      <trkpt lat="43.97986" lon="1.70997">
        <ele>173.66</ele>
        <time>2021-08-18T05:32:49Z</time>
      </trkpt>
      <trkpt lat="43.97986" lon="1.71024">
        <ele>172.21</ele>
        <time>2021-08-18T05:32:54Z</time>
      </trkpt>
      <trkpt lat="43.97985" lon="1.71048">
        <ele>171.25</ele>
        <time>2021-08-18T05:33:00Z</time>
      </trkpt>
      <trkpt lat="43.97985" lon="1.71076">
        <ele>170.29</ele>
        <time>2021-08-18T05:33:06Z</time>
      </trkpt>
      <trkpt lat="43.97982" lon="1.71098">
        <ele>169.33</ele>
        <time>2021-08-18T05:33:10Z</time>
      </trkpt>
      <trkpt lat="43.97982" lon="1.71111">
        <ele>168.85</ele>
        <time>2021-08-18T05:33:12Z</time>
      </trkpt>
      <trkpt lat="43.9798" lon="1.71116">
        <ele>168.37</ele>
        <time>2021-08-18T05:33:13Z</time>
      </trkpt>
      <trkpt lat="43.97977" lon="1.71122">
        <ele>168.37</ele>
        <time>2021-08-18T05:33:14Z</time>
      </trkpt>
      <trkpt lat="43.97975" lon="1.71127">
        <ele>168.37</ele>
        <time>2021-08-18T05:33:15Z</time>
      </trkpt>
      <trkpt lat="43.97973" lon="1.71131">
        <ele>168.37</ele>
        <time>2021-08-18T05:33:16Z</time>
      </trkpt>
      <trkpt lat="43.97971" lon="1.71135">
        <ele>168.37</ele>
        <time>2021-08-18T05:33:17Z</time>
      </trkpt>
      <trkpt lat="43.9797" lon="1.71136">
        <ele>168.37</ele>
        <time>2021-08-18T05:33:18Z</time>
      </trkpt>
      <trkpt lat="43.97969" lon="1.71138">
        <ele>169.33</ele>
        <time>2021-08-18T05:33:19Z</time>
      </trkpt>
      <trkpt lat="43.97968" lon="1.71139">
        <ele>169.33</ele>
        <time>2021-08-18T05:33:20Z</time>
      </trkpt>
      <trkpt lat="43.97967" lon="1.7114">
        <ele>169.81</ele>
        <time>2021-08-18T05:33:21Z</time>
      </trkpt>
      <trkpt lat="43.97966" lon="1.71141">
        <ele>169.81</ele>
        <time>2021-08-18T05:33:22Z</time>
      </trkpt>
      <trkpt lat="43.9796" lon="1.71148">
        <ele>171.25</ele>
        <time>2021-08-18T05:33:30Z</time>
      </trkpt>
      <trkpt lat="43.97953" lon="1.71154">
        <ele>173.17</ele>
        <time>2021-08-18T05:33:38Z</time>
      </trkpt>
      <trkpt lat="43.97947" lon="1.71163">
        <ele>174.62</ele>
        <time>2021-08-18T05:33:47Z</time>
      </trkpt>
      <trkpt lat="43.97943" lon="1.71169">
        <ele>175.58</ele>
        <time>2021-08-18T05:33:55Z</time>
      </trkpt>
      <trkpt lat="43.97938" lon="1.71176">
        <ele>177.02</ele>
        <time>2021-08-18T05:34:04Z</time>
      </trkpt>
      <trkpt lat="43.97933" lon="1.71182">
        <ele>177.98</ele>
        <time>2021-08-18T05:34:12Z</time>
      </trkpt>
      <trkpt lat="43.9793" lon="1.7119">
        <ele>179.42</ele>
        <time>2021-08-18T05:34:20Z</time>
      </trkpt>
      <trkpt lat="43.97928" lon="1.71199">
        <ele>180.87</ele>
        <time>2021-08-18T05:34:29Z</time>
      </trkpt>
      <trkpt lat="43.97924" lon="1.71206">
        <ele>182.79</ele>
        <time>2021-08-18T05:34:39Z</time>
      </trkpt>
      <trkpt lat="43.9792" lon="1.71215">
        <ele>183.75</ele>
        <time>2021-08-18T05:34:47Z</time>
      </trkpt>
      <trkpt lat="43.97917" lon="1.71224">
        <ele>185.19</ele>
        <time>2021-08-18T05:34:56Z</time>
      </trkpt>
      <trkpt lat="43.97913" lon="1.71232">
        <ele>186.63</ele>
        <time>2021-08-18T05:35:07Z</time>
      </trkpt>
      <trkpt lat="43.97911" lon="1.71241">
        <ele>188.08</ele>
        <time>2021-08-18T05:35:15Z</time>
      </trkpt>
      <trkpt lat="43.97908" lon="1.71248">
        <ele>189.04</ele>
        <time>2021-08-18T05:35:23Z</time>
      </trkpt>
      <trkpt lat="43.97906" lon="1.71256">
        <ele>190</ele>
        <time>2021-08-18T05:35:31Z</time>
      </trkpt>
      <trkpt lat="43.97901" lon="1.71265">
        <ele>191.92</ele>
        <time>2021-08-18T05:35:41Z</time>
      </trkpt>
      <trkpt lat="43.97899" lon="1.71271">
        <ele>192.88</ele>
        <time>2021-08-18T05:35:48Z</time>
      </trkpt>
      <trkpt lat="43.97895" lon="1.71279">
        <ele>194.32</ele>
        <time>2021-08-18T05:35:57Z</time>
      </trkpt>
      <trkpt lat="43.97892" lon="1.71288">
        <ele>195.28</ele>
        <time>2021-08-18T05:36:05Z</time>
      </trkpt>
      <trkpt lat="43.97889" lon="1.71296">
        <ele>196.25</ele>
        <time>2021-08-18T05:36:13Z</time>
      </trkpt>
      <trkpt lat="43.97886" lon="1.71307">
        <ele>197.69</ele>
        <time>2021-08-18T05:36:22Z</time>
      </trkpt>
      <trkpt lat="43.97882" lon="1.71318">
        <ele>199.13</ele>
        <time>2021-08-18T05:36:31Z</time>
      </trkpt>
      <trkpt lat="43.97877" lon="1.71329">
        <ele>200.09</ele>
        <time>2021-08-18T05:36:40Z</time>
      </trkpt>
      <trkpt lat="43.97873" lon="1.71341">
        <ele>202.01</ele>
        <time>2021-08-18T05:36:51Z</time>
      </trkpt>
      <trkpt lat="43.97868" lon="1.71351">
        <ele>202.98</ele>
        <time>2021-08-18T05:36:59Z</time>
      </trkpt>
      <trkpt lat="43.97865" lon="1.71362">
        <ele>204.42</ele>
        <time>2021-08-18T05:37:08Z</time>
      </trkpt>
      <trkpt lat="43.97861" lon="1.71371">
        <ele>204.9</ele>
        <time>2021-08-18T05:37:17Z</time>
      </trkpt>
      <trkpt lat="43.97857" lon="1.71381">
        <ele>204.9</ele>
        <time>2021-08-18T05:37:24Z</time>
      </trkpt>
      <trkpt lat="43.97845" lon="1.71402">
        <ele>205.38</ele>
        <time>2021-08-18T05:37:31Z</time>
      </trkpt>
      <trkpt lat="43.9783" lon="1.7141">
        <ele>206.34</ele>
        <time>2021-08-18T05:37:38Z</time>
      </trkpt>
      <trkpt lat="43.97815" lon="1.71411">
        <ele>206.82</ele>
        <time>2021-08-18T05:37:45Z</time>
      </trkpt>
      <trkpt lat="43.97799" lon="1.71403">
        <ele>208.26</ele>
        <time>2021-08-18T05:37:52Z</time>
      </trkpt>
      <trkpt lat="43.97779" lon="1.71393">
        <ele>207.78</ele>
        <time>2021-08-18T05:37:58Z</time>
      </trkpt>
      <trkpt lat="43.97775" lon="1.71393">
        <ele>206.82</ele>
        <time>2021-08-18T05:37:59Z</time>
      </trkpt>
      <trkpt lat="43.97771" lon="1.71392">
        <ele>206.34</ele>
        <time>2021-08-18T05:38:00Z</time>
      </trkpt>
      <trkpt lat="43.97758" lon="1.71387">
        <ele>205.86</ele>
        <time>2021-08-18T05:38:03Z</time>
      </trkpt>
      <trkpt lat="43.97725" lon="1.71367">
        <ele>204.42</ele>
        <time>2021-08-18T05:38:10Z</time>
      </trkpt>
      <trkpt lat="43.9772" lon="1.71367">
        <ele>204.42</ele>
        <time>2021-08-18T05:38:11Z</time>
      </trkpt>
      <trkpt lat="43.97715" lon="1.71367">
        <ele>204.42</ele>
        <time>2021-08-18T05:38:12Z</time>
      </trkpt>
      <trkpt lat="43.97711" lon="1.71369">
        <ele>204.42</ele>
        <time>2021-08-18T05:38:13Z</time>
      </trkpt>
      <trkpt lat="43.97706" lon="1.7137">
        <ele>204.42</ele>
        <time>2021-08-18T05:38:14Z</time>
      </trkpt>
      <trkpt lat="43.97685" lon="1.71383">
        <ele>204.42</ele>
        <time>2021-08-18T05:38:21Z</time>
      </trkpt>
      <trkpt lat="43.97656" lon="1.71401">
        <ele>206.82</ele>
        <time>2021-08-18T05:38:31Z</time>
      </trkpt>
      <trkpt lat="43.97628" lon="1.71416">
        <ele>207.78</ele>
        <time>2021-08-18T05:38:40Z</time>
      </trkpt>
      <trkpt lat="43.97598" lon="1.71421">
        <ele>208.74</ele>
        <time>2021-08-18T05:38:49Z</time>
      </trkpt>
      <trkpt lat="43.97573" lon="1.71411">
        <ele>209.22</ele>
        <time>2021-08-18T05:38:56Z</time>
      </trkpt>
      <trkpt lat="43.97539" lon="1.71396">
        <ele>209.7</ele>
        <time>2021-08-18T05:39:05Z</time>
      </trkpt>
      <trkpt lat="43.97499" lon="1.7139">
        <ele>210.19</ele>
        <time>2021-08-18T05:39:15Z</time>
      </trkpt>
      <trkpt lat="43.97478" lon="1.71387">
        <ele>211.63</ele>
        <time>2021-08-18T05:39:22Z</time>
      </trkpt>
      <trkpt lat="43.97459" lon="1.71386">
        <ele>213.55</ele>
        <time>2021-08-18T05:39:32Z</time>
      </trkpt>
      <trkpt lat="43.97441" lon="1.71385">
        <ele>215.47</ele>
        <time>2021-08-18T05:39:41Z</time>
      </trkpt>
      <trkpt lat="43.97431" lon="1.71387">
        <ele>215.95</ele>
        <time>2021-08-18T05:39:46Z</time>
      </trkpt>
      <trkpt lat="43.97429" lon="1.71385">
        <ele>215.95</ele>
        <time>2021-08-18T05:39:47Z</time>
      </trkpt>
      <trkpt lat="43.97427" lon="1.71383">
        <ele>215.95</ele>
        <time>2021-08-18T05:39:48Z</time>
      </trkpt>
      <trkpt lat="43.97425" lon="1.7138">
        <ele>215.95</ele>
        <time>2021-08-18T05:39:49Z</time>
      </trkpt>
      <trkpt lat="43.97423" lon="1.71376">
        <ele>215.95</ele>
        <time>2021-08-18T05:39:50Z</time>
      </trkpt>
      <trkpt lat="43.97421" lon="1.71372">
        <ele>215.95</ele>
        <time>2021-08-18T05:39:51Z</time>
      </trkpt>
      <trkpt lat="43.97419" lon="1.71367">
        <ele>215.95</ele>
        <time>2021-08-18T05:39:52Z</time>
      </trkpt>
      <trkpt lat="43.97414" lon="1.71356">
        <ele>214.51</ele>
        <time>2021-08-18T05:39:54Z</time>
      </trkpt>
      <trkpt lat="43.97411" lon="1.7135">
        <ele>214.03</ele>
        <time>2021-08-18T05:39:55Z</time>
      </trkpt>
      <trkpt lat="43.97399" lon="1.7133">
        <ele>212.59</ele>
        <time>2021-08-18T05:39:58Z</time>
      </trkpt>
      <trkpt lat="43.97394" lon="1.71324">
        <ele>212.11</ele>
        <time>2021-08-18T05:39:59Z</time>
      </trkpt>
      <trkpt lat="43.97389" lon="1.7132">
        <ele>211.63</ele>
        <time>2021-08-18T05:40:00Z</time>
      </trkpt>
      <trkpt lat="43.97382" lon="1.71316">
        <ele>211.63</ele>
        <time>2021-08-18T05:40:01Z</time>
      </trkpt>
      <trkpt lat="43.97376" lon="1.71315">
        <ele>211.63</ele>
        <time>2021-08-18T05:40:02Z</time>
      </trkpt>
      <trkpt lat="43.9737" lon="1.71315">
        <ele>211.63</ele>
        <time>2021-08-18T05:40:03Z</time>
      </trkpt>
      <trkpt lat="43.97363" lon="1.71316">
        <ele>211.15</ele>
        <time>2021-08-18T05:40:04Z</time>
      </trkpt>
      <trkpt lat="43.97356" lon="1.71318">
        <ele>211.15</ele>
        <time>2021-08-18T05:40:05Z</time>
      </trkpt>
      <trkpt lat="43.97298" lon="1.71334">
        <ele>209.22</ele>
        <time>2021-08-18T05:40:14Z</time>
      </trkpt>
      <trkpt lat="43.97246" lon="1.71344">
        <ele>206.82</ele>
        <time>2021-08-18T05:40:22Z</time>
      </trkpt>
      <trkpt lat="43.97219" lon="1.71345">
        <ele>203.46</ele>
        <time>2021-08-18T05:40:26Z</time>
      </trkpt>
      <trkpt lat="43.97213" lon="1.71343">
        <ele>202.49</ele>
        <time>2021-08-18T05:40:27Z</time>
      </trkpt>
      <trkpt lat="43.97206" lon="1.71339">
        <ele>202.01</ele>
        <time>2021-08-18T05:40:28Z</time>
      </trkpt>
      <trkpt lat="43.97201" lon="1.71334">
        <ele>201.05</ele>
        <time>2021-08-18T05:40:29Z</time>
      </trkpt>
      <trkpt lat="43.97197" lon="1.71326">
        <ele>200.57</ele>
        <time>2021-08-18T05:40:30Z</time>
      </trkpt>
      <trkpt lat="43.97194" lon="1.71317">
        <ele>200.09</ele>
        <time>2021-08-18T05:40:31Z</time>
      </trkpt>
      <trkpt lat="43.97192" lon="1.71307">
        <ele>199.61</ele>
        <time>2021-08-18T05:40:32Z</time>
      </trkpt>
      <trkpt lat="43.97189" lon="1.71297">
        <ele>198.65</ele>
        <time>2021-08-18T05:40:33Z</time>
      </trkpt>
      <trkpt lat="43.97187" lon="1.71286">
        <ele>198.17</ele>
        <time>2021-08-18T05:40:34Z</time>
      </trkpt>
      <trkpt lat="43.97179" lon="1.71238">
        <ele>194.8</ele>
        <time>2021-08-18T05:40:38Z</time>
      </trkpt>
      <trkpt lat="43.97175" lon="1.71216">
        <ele>193.36</ele>
        <time>2021-08-18T05:40:40Z</time>
      </trkpt>
      <trkpt lat="43.97172" lon="1.71207">
        <ele>192.88</ele>
        <time>2021-08-18T05:40:41Z</time>
      </trkpt>
      <trkpt lat="43.97168" lon="1.71199">
        <ele>191.92</ele>
        <time>2021-08-18T05:40:42Z</time>
      </trkpt>
      <trkpt lat="43.97164" lon="1.71192">
        <ele>191.44</ele>
        <time>2021-08-18T05:40:43Z</time>
      </trkpt>
      <trkpt lat="43.97159" lon="1.71187">
        <ele>190.96</ele>
        <time>2021-08-18T05:40:44Z</time>
      </trkpt>
      <trkpt lat="43.97154" lon="1.71183">
        <ele>190</ele>
        <time>2021-08-18T05:40:45Z</time>
      </trkpt>
      <trkpt lat="43.97149" lon="1.7118">
        <ele>189.52</ele>
        <time>2021-08-18T05:40:46Z</time>
      </trkpt>
      <trkpt lat="43.97144" lon="1.71178">
        <ele>189.52</ele>
        <time>2021-08-18T05:40:47Z</time>
      </trkpt>
      <trkpt lat="43.9714" lon="1.71177">
        <ele>189.04</ele>
        <time>2021-08-18T05:40:48Z</time>
      </trkpt>
      <trkpt lat="43.97136" lon="1.71174">
        <ele>188.56</ele>
        <time>2021-08-18T05:40:49Z</time>
      </trkpt>
      <trkpt lat="43.97132" lon="1.71171">
        <ele>188.56</ele>
        <time>2021-08-18T05:40:50Z</time>
      </trkpt>
      <trkpt lat="43.97129" lon="1.71168">
        <ele>187.59</ele>
        <time>2021-08-18T05:40:51Z</time>
      </trkpt>
      <trkpt lat="43.97119" lon="1.71162">
        <ele>186.63</ele>
        <time>2021-08-18T05:40:53Z</time>
      </trkpt>
      <trkpt lat="43.97093" lon="1.71152">
        <ele>184.71</ele>
        <time>2021-08-18T05:40:57Z</time>
      </trkpt>
      <trkpt lat="43.97079" lon="1.71149">
        <ele>182.79</ele>
        <time>2021-08-18T05:40:59Z</time>
      </trkpt>
      <trkpt lat="43.97049" lon="1.71142">
        <ele>180.38</ele>
        <time>2021-08-18T05:41:03Z</time>
      </trkpt>
      <trkpt lat="43.97043" lon="1.71138">
        <ele>179.9</ele>
        <time>2021-08-18T05:41:04Z</time>
      </trkpt>
      <trkpt lat="43.97036" lon="1.71133">
        <ele>179.42</ele>
        <time>2021-08-18T05:41:05Z</time>
      </trkpt>
      <trkpt lat="43.97016" lon="1.71115">
        <ele>176.06</ele>
        <time>2021-08-18T05:41:08Z</time>
      </trkpt>
      <trkpt lat="43.96994" lon="1.71096">
        <ele>172.69</ele>
        <time>2021-08-18T05:41:11Z</time>
      </trkpt>
      <trkpt lat="43.96986" lon="1.71092">
        <ele>171.73</ele>
        <time>2021-08-18T05:41:12Z</time>
      </trkpt>
      <trkpt lat="43.96978" lon="1.71088">
        <ele>171.25</ele>
        <time>2021-08-18T05:41:13Z</time>
      </trkpt>
      <trkpt lat="43.9697" lon="1.71086">
        <ele>170.77</ele>
        <time>2021-08-18T05:41:14Z</time>
      </trkpt>
      <trkpt lat="43.96961" lon="1.71085">
        <ele>170.77</ele>
        <time>2021-08-18T05:41:15Z</time>
      </trkpt>
      <trkpt lat="43.96952" lon="1.71084">
        <ele>169.81</ele>
        <time>2021-08-18T05:41:16Z</time>
      </trkpt>
      <trkpt lat="43.96944" lon="1.71084">
        <ele>170.29</ele>
        <time>2021-08-18T05:41:17Z</time>
      </trkpt>
      <trkpt lat="43.96936" lon="1.71086">
        <ele>169.81</ele>
        <time>2021-08-18T05:41:18Z</time>
      </trkpt>
      <trkpt lat="43.96929" lon="1.71088">
        <ele>169.81</ele>
        <time>2021-08-18T05:41:19Z</time>
      </trkpt>
      <trkpt lat="43.96898" lon="1.71097">
        <ele>171.73</ele>
        <time>2021-08-18T05:41:24Z</time>
      </trkpt>
      <trkpt lat="43.96871" lon="1.71109">
        <ele>172.21</ele>
        <time>2021-08-18T05:41:31Z</time>
      </trkpt>
      <trkpt lat="43.96845" lon="1.71125">
        <ele>172.69</ele>
        <time>2021-08-18T05:41:38Z</time>
      </trkpt>
      <trkpt lat="43.96809" lon="1.71135">
        <ele>173.17</ele>
        <time>2021-08-18T05:41:47Z</time>
      </trkpt>
      <trkpt lat="43.96782" lon="1.71141">
        <ele>174.14</ele>
        <time>2021-08-18T05:41:54Z</time>
      </trkpt>
      <trkpt lat="43.96774" lon="1.71144">
        <ele>174.62</ele>
        <time>2021-08-18T05:41:57Z</time>
      </trkpt>
      <trkpt lat="43.96764" lon="1.71156">
        <ele>174.62</ele>
        <time>2021-08-18T05:42:03Z</time>
      </trkpt>
      <trkpt lat="43.96752" lon="1.71165">
        <ele>175.58</ele>
        <time>2021-08-18T05:42:11Z</time>
      </trkpt>
      <trkpt lat="43.96747" lon="1.71173">
        <ele>176.06</ele>
        <time>2021-08-18T05:42:17Z</time>
      </trkpt>
      <trkpt lat="43.96746" lon="1.71175">
        <ele>176.54</ele>
        <time>2021-08-18T05:42:18Z</time>
      </trkpt>
      <trkpt lat="43.96745" lon="1.71177">
        <ele>176.54</ele>
        <time>2021-08-18T05:42:19Z</time>
      </trkpt>
      <trkpt lat="43.96738" lon="1.71193">
        <ele>177.98</ele>
        <time>2021-08-18T05:42:30Z</time>
      </trkpt>
      <trkpt lat="43.9673" lon="1.71202">
        <ele>178.94</ele>
        <time>2021-08-18T05:42:38Z</time>
      </trkpt>
      <trkpt lat="43.96724" lon="1.71209">
        <ele>179.9</ele>
        <time>2021-08-18T05:42:46Z</time>
      </trkpt>
      <trkpt lat="43.96718" lon="1.71214">
        <ele>181.35</ele>
        <time>2021-08-18T05:42:52Z</time>
      </trkpt>
      <trkpt lat="43.96708" lon="1.71225">
        <ele>182.31</ele>
        <time>2021-08-18T05:43:01Z</time>
      </trkpt>
      <trkpt lat="43.96703" lon="1.71232">
        <ele>183.75</ele>
        <time>2021-08-18T05:43:08Z</time>
      </trkpt>
      <trkpt lat="43.96697" lon="1.71241">
        <ele>184.71</ele>
        <time>2021-08-18T05:43:15Z</time>
      </trkpt>
      <trkpt lat="43.96691" lon="1.71255">
        <ele>185.67</ele>
        <time>2021-08-18T05:43:25Z</time>
      </trkpt>
      <trkpt lat="43.96684" lon="1.7127">
        <ele>187.11</ele>
        <time>2021-08-18T05:43:35Z</time>
      </trkpt>
      <trkpt lat="43.9668" lon="1.71279">
        <ele>188.08</ele>
        <time>2021-08-18T05:43:41Z</time>
      </trkpt>
      <trkpt lat="43.96675" lon="1.71286">
        <ele>189.04</ele>
        <time>2021-08-18T05:43:48Z</time>
      </trkpt>
      <trkpt lat="43.96671" lon="1.71288">
        <ele>190.48</ele>
        <time>2021-08-18T05:43:55Z</time>
      </trkpt>
      <trkpt lat="43.9667" lon="1.71287">
        <ele>190.48</ele>
        <time>2021-08-18T05:43:56Z</time>
      </trkpt>
      <trkpt lat="43.9667" lon="1.71282">
        <ele>191.44</ele>
        <time>2021-08-18T05:44:01Z</time>
      </trkpt>
      <trkpt lat="43.9667" lon="1.71281">
        <ele>191.44</ele>
        <time>2021-08-18T05:44:02Z</time>
      </trkpt>
      <trkpt lat="43.9667" lon="1.7128">
        <ele>191.92</ele>
        <time>2021-08-18T05:44:03Z</time>
      </trkpt>
      <trkpt lat="43.96669" lon="1.71274">
        <ele>192.4</ele>
        <time>2021-08-18T05:44:10Z</time>
      </trkpt>
      <trkpt lat="43.96667" lon="1.71267">
        <ele>193.84</ele>
        <time>2021-08-18T05:44:17Z</time>
      </trkpt>
      <trkpt lat="43.96664" lon="1.71259">
        <ele>194.8</ele>
        <time>2021-08-18T05:44:25Z</time>
      </trkpt>
      <trkpt lat="43.96663" lon="1.71251">
        <ele>195.77</ele>
        <time>2021-08-18T05:44:32Z</time>
      </trkpt>
      <trkpt lat="43.96663" lon="1.71241">
        <ele>196.25</ele>
        <time>2021-08-18T05:44:39Z</time>
      </trkpt>
      <trkpt lat="43.96661" lon="1.71234">
        <ele>197.69</ele>
        <time>2021-08-18T05:44:47Z</time>
      </trkpt>
      <trkpt lat="43.96657" lon="1.71233">
        <ele>198.65</ele>
        <time>2021-08-18T05:44:54Z</time>
      </trkpt>
      <trkpt lat="43.96656" lon="1.71234">
        <ele>200.09</ele>
        <time>2021-08-18T05:45:01Z</time>
      </trkpt>
      <trkpt lat="43.96651" lon="1.71235">
        <ele>201.05</ele>
        <time>2021-08-18T05:45:09Z</time>
      </trkpt>
      <trkpt lat="43.96646" lon="1.7124">
        <ele>202.49</ele>
        <time>2021-08-18T05:45:17Z</time>
      </trkpt>
      <trkpt lat="43.96644" lon="1.7124">
        <ele>202.98</ele>
        <time>2021-08-18T05:45:18Z</time>
      </trkpt>
      <trkpt lat="43.96633" lon="1.71242">
        <ele>203.94</ele>
        <time>2021-08-18T05:45:26Z</time>
      </trkpt>
      <trkpt lat="43.96627" lon="1.71248">
        <ele>205.38</ele>
        <time>2021-08-18T05:45:35Z</time>
      </trkpt>
      <trkpt lat="43.96621" lon="1.71256">
        <ele>206.82</ele>
        <time>2021-08-18T05:45:46Z</time>
      </trkpt>
      <trkpt lat="43.96615" lon="1.71263">
        <ele>208.26</ele>
        <time>2021-08-18T05:45:54Z</time>
      </trkpt>
      <trkpt lat="43.9661" lon="1.71269">
        <ele>209.22</ele>
        <time>2021-08-18T05:46:02Z</time>
      </trkpt>
      <trkpt lat="43.96603" lon="1.71275">
        <ele>210.67</ele>
        <time>2021-08-18T05:46:11Z</time>
      </trkpt>
      <trkpt lat="43.96598" lon="1.7128">
        <ele>212.11</ele>
        <time>2021-08-18T05:46:19Z</time>
      </trkpt>
      <trkpt lat="43.96592" lon="1.71287">
        <ele>213.55</ele>
        <time>2021-08-18T05:46:28Z</time>
      </trkpt>
      <trkpt lat="43.96587" lon="1.71294">
        <ele>215.47</ele>
        <time>2021-08-18T05:46:38Z</time>
      </trkpt>
      <trkpt lat="43.96584" lon="1.71297">
        <ele>215.95</ele>
        <time>2021-08-18T05:46:43Z</time>
      </trkpt>
      <trkpt lat="43.9658" lon="1.71299">
        <ele>217.4</ele>
        <time>2021-08-18T05:46:49Z</time>
      </trkpt>
      <trkpt lat="43.96581" lon="1.71297">
        <ele>217.4</ele>
        <time>2021-08-18T05:46:50Z</time>
      </trkpt>
      <trkpt lat="43.9658" lon="1.71299">
        <ele>218.36</ele>
        <time>2021-08-18T05:46:53Z</time>
      </trkpt>
      <trkpt lat="43.96573" lon="1.71309">
        <ele>218.84</ele>
        <time>2021-08-18T05:47:03Z</time>
      </trkpt>
      <trkpt lat="43.96567" lon="1.71316">
        <ele>220.76</ele>
        <time>2021-08-18T05:47:12Z</time>
      </trkpt>
      <trkpt lat="43.96561" lon="1.71321">
        <ele>222.2</ele>
        <time>2021-08-18T05:47:22Z</time>
      </trkpt>
      <trkpt lat="43.96555" lon="1.71323">
        <ele>223.16</ele>
        <time>2021-08-18T05:47:31Z</time>
      </trkpt>
      <trkpt lat="43.96555" lon="1.71326">
        <ele>224.12</ele>
        <time>2021-08-18T05:47:40Z</time>
      </trkpt>
      <trkpt lat="43.9655" lon="1.71326">
        <ele>224.61</ele>
        <time>2021-08-18T05:47:50Z</time>
      </trkpt>
      <trkpt lat="43.96542" lon="1.71325">
        <ele>226.05</ele>
        <time>2021-08-18T05:47:59Z</time>
      </trkpt>
      <trkpt lat="43.96537" lon="1.71321">
        <ele>227.49</ele>
        <time>2021-08-18T05:48:10Z</time>
      </trkpt>
      <trkpt lat="43.96534" lon="1.71319">
        <ele>228.93</ele>
        <time>2021-08-18T05:48:19Z</time>
      </trkpt>
      <trkpt lat="43.9653" lon="1.71317">
        <ele>230.37</ele>
        <time>2021-08-18T05:48:27Z</time>
      </trkpt>
      <trkpt lat="43.96527" lon="1.71318">
        <ele>231.81</ele>
        <time>2021-08-18T05:48:35Z</time>
      </trkpt>
      <trkpt lat="43.96522" lon="1.71321">
        <ele>232.78</ele>
        <time>2021-08-18T05:48:43Z</time>
      </trkpt>
      <trkpt lat="43.96516" lon="1.71325">
        <ele>234.22</ele>
        <time>2021-08-18T05:48:52Z</time>
      </trkpt>
      <trkpt lat="43.96507" lon="1.71327">
        <ele>235.66</ele>
        <time>2021-08-18T05:49:01Z</time>
      </trkpt>
      <trkpt lat="43.96497" lon="1.71331">
        <ele>237.1</ele>
        <time>2021-08-18T05:49:10Z</time>
      </trkpt>
      <trkpt lat="43.96488" lon="1.71334">
        <ele>237.58</ele>
        <time>2021-08-18T05:49:19Z</time>
      </trkpt>
      <trkpt lat="43.9648" lon="1.71338">
        <ele>239.51</ele>
        <time>2021-08-18T05:49:28Z</time>
      </trkpt>
      <trkpt lat="43.96473" lon="1.71343">
        <ele>240.47</ele>
        <time>2021-08-18T05:49:37Z</time>
      </trkpt>
      <trkpt lat="43.96469" lon="1.71348">
        <ele>240.95</ele>
        <time>2021-08-18T05:49:46Z</time>
      </trkpt>
      <trkpt lat="43.96464" lon="1.71348">
        <ele>240.95</ele>
        <time>2021-08-18T05:50:00Z</time>
      </trkpt>
      <trkpt lat="43.96459" lon="1.71351">
        <ele>241.91</ele>
        <time>2021-08-18T05:50:11Z</time>
      </trkpt>
      <trkpt lat="43.96455" lon="1.71354">
        <ele>242.87</ele>
        <time>2021-08-18T05:50:18Z</time>
      </trkpt>
      <trkpt lat="43.96449" lon="1.71357">
        <ele>243.83</ele>
        <time>2021-08-18T05:50:26Z</time>
      </trkpt>
      <trkpt lat="43.9644" lon="1.71358">
        <ele>245.27</ele>
        <time>2021-08-18T05:50:35Z</time>
      </trkpt>
      <trkpt lat="43.96433" lon="1.7136">
        <ele>246.23</ele>
        <time>2021-08-18T05:50:43Z</time>
      </trkpt>
      <trkpt lat="43.96425" lon="1.71361">
        <ele>247.2</ele>
        <time>2021-08-18T05:50:52Z</time>
      </trkpt>
      <trkpt lat="43.9642" lon="1.71361">
        <ele>248.16</ele>
        <time>2021-08-18T05:51:00Z</time>
      </trkpt>
      <trkpt lat="43.96407" lon="1.71363">
        <ele>248.16</ele>
        <time>2021-08-18T05:51:06Z</time>
      </trkpt>
      <trkpt lat="43.96393" lon="1.71371">
        <ele>248.16</ele>
        <time>2021-08-18T05:51:13Z</time>
      </trkpt>
      <trkpt lat="43.96381" lon="1.71379">
        <ele>248.64</ele>
        <time>2021-08-18T05:51:19Z</time>
      </trkpt>
      <trkpt lat="43.96365" lon="1.71386">
        <ele>249.12</ele>
        <time>2021-08-18T05:51:25Z</time>
      </trkpt>
      <trkpt lat="43.96346" lon="1.71392">
        <ele>249.6</ele>
        <time>2021-08-18T05:51:32Z</time>
      </trkpt>
      <trkpt lat="43.96321" lon="1.71398">
        <ele>250.56</ele>
        <time>2021-08-18T05:51:40Z</time>
      </trkpt>
      <trkpt lat="43.963" lon="1.71402">
        <ele>251.52</ele>
        <time>2021-08-18T05:51:48Z</time>
      </trkpt>
      <trkpt lat="43.96283" lon="1.71401">
        <ele>252.48</ele>
        <time>2021-08-18T05:51:55Z</time>
      </trkpt>
      <trkpt lat="43.96263" lon="1.71403">
        <ele>252.48</ele>
        <time>2021-08-18T05:52:02Z</time>
      </trkpt>
      <trkpt lat="43.96251" lon="1.71401">
        <ele>251.04</ele>
        <time>2021-08-18T05:52:05Z</time>
      </trkpt>
      <trkpt lat="43.96237" lon="1.714">
        <ele>250.56</ele>
        <time>2021-08-18T05:52:08Z</time>
      </trkpt>
      <trkpt lat="43.96232" lon="1.714">
        <ele>250.56</ele>
        <time>2021-08-18T05:52:09Z</time>
      </trkpt>
      <trkpt lat="43.96223" lon="1.714">
        <ele>250.56</ele>
        <time>2021-08-18T05:52:11Z</time>
      </trkpt>
      <trkpt lat="43.96209" lon="1.71399">
        <ele>250.56</ele>
        <time>2021-08-18T05:52:16Z</time>
      </trkpt>
      <trkpt lat="43.96202" lon="1.71399">
        <ele>252</ele>
        <time>2021-08-18T05:52:20Z</time>
      </trkpt>
      <trkpt lat="43.96199" lon="1.71399">
        <ele>252</ele>
        <time>2021-08-18T05:52:21Z</time>
      </trkpt>
      <trkpt lat="43.96176" lon="1.71395">
        <ele>252.96</ele>
        <time>2021-08-18T05:52:28Z</time>
      </trkpt>
      <trkpt lat="43.96152" lon="1.71396">
        <ele>252.96</ele>
        <time>2021-08-18T05:52:34Z</time>
      </trkpt>
      <trkpt lat="43.96131" lon="1.71388">
        <ele>253.93</ele>
        <time>2021-08-18T05:52:40Z</time>
      </trkpt>
      <trkpt lat="43.96103" lon="1.71387">
        <ele>254.41</ele>
        <time>2021-08-18T05:52:49Z</time>
      </trkpt>
      <trkpt lat="43.96088" lon="1.71391">
        <ele>255.37</ele>
        <time>2021-08-18T05:52:55Z</time>
      </trkpt>
      <trkpt lat="43.96067" lon="1.71398">
        <ele>254.41</ele>
        <time>2021-08-18T05:53:01Z</time>
      </trkpt>
      <trkpt lat="43.96031" lon="1.71415">
        <ele>252.48</ele>
        <time>2021-08-18T05:53:08Z</time>
      </trkpt>
      <trkpt lat="43.95998" lon="1.71425">
        <ele>252.48</ele>
        <time>2021-08-18T05:53:15Z</time>
      </trkpt>
      <trkpt lat="43.9597" lon="1.71436">
        <ele>252.48</ele>
        <time>2021-08-18T05:53:23Z</time>
      </trkpt>
      <trkpt lat="43.95955" lon="1.71443">
        <ele>253.93</ele>
        <time>2021-08-18T05:53:26Z</time>
      </trkpt>
      <trkpt lat="43.95924" lon="1.7146">
        <ele>254.89</ele>
        <time>2021-08-18T05:53:34Z</time>
      </trkpt>
      <trkpt lat="43.9591" lon="1.71469">
        <ele>255.85</ele>
        <time>2021-08-18T05:53:40Z</time>
      </trkpt>
      <trkpt lat="43.95902" lon="1.7148">
        <ele>254.89</ele>
        <time>2021-08-18T05:53:43Z</time>
      </trkpt>
      <trkpt lat="43.95885" lon="1.71512">
        <ele>253.93</ele>
        <time>2021-08-18T05:53:49Z</time>
      </trkpt>
      <trkpt lat="43.95883" lon="1.71517">
        <ele>253.93</ele>
        <time>2021-08-18T05:53:50Z</time>
      </trkpt>
      <trkpt lat="43.9588" lon="1.71522">
        <ele>253.93</ele>
        <time>2021-08-18T05:53:51Z</time>
      </trkpt>
      <trkpt lat="43.95879" lon="1.71528">
        <ele>253.44</ele>
        <time>2021-08-18T05:53:52Z</time>
      </trkpt>
      <trkpt lat="43.95877" lon="1.71534">
        <ele>253.44</ele>
        <time>2021-08-18T05:53:53Z</time>
      </trkpt>
      <trkpt lat="43.95868" lon="1.7156">
        <ele>252.96</ele>
        <time>2021-08-18T05:53:59Z</time>
      </trkpt>
      <trkpt lat="43.95857" lon="1.71586">
        <ele>252.96</ele>
        <time>2021-08-18T05:54:05Z</time>
      </trkpt>
      <trkpt lat="43.95839" lon="1.71613">
        <ele>252.48</ele>
        <time>2021-08-18T05:54:12Z</time>
      </trkpt>
      <trkpt lat="43.95815" lon="1.71628">
        <ele>252.48</ele>
        <time>2021-08-18T05:54:20Z</time>
      </trkpt>
      <trkpt lat="43.95806" lon="1.71634">
        <ele>253.93</ele>
        <time>2021-08-18T05:54:24Z</time>
      </trkpt>
      <trkpt lat="43.95791" lon="1.7164">
        <ele>255.37</ele>
        <time>2021-08-18T05:54:31Z</time>
      </trkpt>
      <trkpt lat="43.95766" lon="1.71638">
        <ele>255.85</ele>
        <time>2021-08-18T05:54:39Z</time>
      </trkpt>
      <trkpt lat="43.95738" lon="1.71632">
        <ele>256.33</ele>
        <time>2021-08-18T05:54:47Z</time>
      </trkpt>
      <trkpt lat="43.95714" lon="1.71623">
        <ele>256.81</ele>
        <time>2021-08-18T05:54:55Z</time>
      </trkpt>
      <trkpt lat="43.95681" lon="1.71606">
        <ele>257.29</ele>
        <time>2021-08-18T05:55:03Z</time>
      </trkpt>
      <trkpt lat="43.95663" lon="1.71598">
        <ele>256.33</ele>
        <time>2021-08-18T05:55:07Z</time>
      </trkpt>
      <trkpt lat="43.95659" lon="1.71596">
        <ele>256.33</ele>
        <time>2021-08-18T05:55:08Z</time>
      </trkpt>
      <trkpt lat="43.95654" lon="1.71594">
        <ele>256.33</ele>
        <time>2021-08-18T05:55:09Z</time>
      </trkpt>
      <trkpt lat="43.95637" lon="1.71587">
        <ele>255.85</ele>
        <time>2021-08-18T05:55:13Z</time>
      </trkpt>
      <trkpt lat="43.95632" lon="1.71587">
        <ele>255.37</ele>
        <time>2021-08-18T05:55:14Z</time>
      </trkpt>
      <trkpt lat="43.95627" lon="1.71587">
        <ele>255.85</ele>
        <time>2021-08-18T05:55:15Z</time>
      </trkpt>
      <trkpt lat="43.95622" lon="1.71587">
        <ele>255.85</ele>
        <time>2021-08-18T05:55:16Z</time>
      </trkpt>
      <trkpt lat="43.95617" lon="1.71587">
        <ele>255.85</ele>
        <time>2021-08-18T05:55:17Z</time>
      </trkpt>
      <trkpt lat="43.95591" lon="1.71593">
        <ele>255.85</ele>
        <time>2021-08-18T05:55:23Z</time>
      </trkpt>
      <trkpt lat="43.95561" lon="1.71601">
        <ele>256.81</ele>
        <time>2021-08-18T05:55:30Z</time>
      </trkpt>
      <trkpt lat="43.95527" lon="1.71599">
        <ele>258.25</ele>
        <time>2021-08-18T05:55:39Z</time>
      </trkpt>
      <trkpt lat="43.95501" lon="1.71597">
        <ele>259.69</ele>
        <time>2021-08-18T05:55:48Z</time>
      </trkpt>
      <trkpt lat="43.95476" lon="1.71597">
        <ele>260.17</ele>
        <time>2021-08-18T05:55:56Z</time>
      </trkpt>
      <trkpt lat="43.95452" lon="1.71595">
        <ele>261.14</ele>
        <time>2021-08-18T05:56:05Z</time>
      </trkpt>
      <trkpt lat="43.95435" lon="1.71594">
        <ele>263.06</ele>
        <time>2021-08-18T05:56:13Z</time>
      </trkpt>
      <trkpt lat="43.95417" lon="1.7159">
        <ele>264.5</ele>
        <time>2021-08-18T05:56:23Z</time>
      </trkpt>
      <trkpt lat="43.95395" lon="1.71584">
        <ele>266.42</ele>
        <time>2021-08-18T05:56:33Z</time>
      </trkpt>
      <trkpt lat="43.9537" lon="1.7158">
        <ele>266.42</ele>
        <time>2021-08-18T05:56:40Z</time>
      </trkpt>
      <trkpt lat="43.95335" lon="1.71573">
        <ele>266.42</ele>
        <time>2021-08-18T05:56:48Z</time>
      </trkpt>
      <trkpt lat="43.95288" lon="1.7156">
        <ele>266.42</ele>
        <time>2021-08-18T05:56:59Z</time>
      </trkpt>
      <trkpt lat="43.95284" lon="1.71558">
        <ele>266.42</ele>
        <time>2021-08-18T05:57:00Z</time>
      </trkpt>
      <trkpt lat="43.9528" lon="1.71556">
        <ele>266.42</ele>
        <time>2021-08-18T05:57:01Z</time>
      </trkpt>
      <trkpt lat="43.95261" lon="1.71546">
        <ele>266.42</ele>
        <time>2021-08-18T05:57:06Z</time>
      </trkpt>
      <trkpt lat="43.95232" lon="1.71529">
        <ele>267.38</ele>
        <time>2021-08-18T05:57:14Z</time>
      </trkpt>
      <trkpt lat="43.95214" lon="1.71512">
        <ele>268.83</ele>
        <time>2021-08-18T05:57:21Z</time>
      </trkpt>
      <trkpt lat="43.95188" lon="1.71494">
        <ele>269.31</ele>
        <time>2021-08-18T05:57:30Z</time>
      </trkpt>
      <trkpt lat="43.95159" lon="1.71485">
        <ele>269.79</ele>
        <time>2021-08-18T05:57:38Z</time>
      </trkpt>
      <trkpt lat="43.95141" lon="1.71482">
        <ele>271.23</ele>
        <time>2021-08-18T05:57:45Z</time>
      </trkpt>
      <trkpt lat="43.95126" lon="1.71473">
        <ele>271.23</ele>
        <time>2021-08-18T05:57:51Z</time>
      </trkpt>
      <trkpt lat="43.9512" lon="1.71472">
        <ele>270.27</ele>
        <time>2021-08-18T05:57:53Z</time>
      </trkpt>
      <trkpt lat="43.95117" lon="1.71475">
        <ele>270.27</ele>
        <time>2021-08-18T05:57:54Z</time>
      </trkpt>
      <trkpt lat="43.95113" lon="1.71478">
        <ele>270.27</ele>
        <time>2021-08-18T05:57:55Z</time>
      </trkpt>
      <trkpt lat="43.95111" lon="1.71482">
        <ele>270.27</ele>
        <time>2021-08-18T05:57:56Z</time>
      </trkpt>
      <trkpt lat="43.95108" lon="1.71487">
        <ele>270.27</ele>
        <time>2021-08-18T05:57:57Z</time>
      </trkpt>
      <trkpt lat="43.95103" lon="1.71497">
        <ele>269.79</ele>
        <time>2021-08-18T05:57:59Z</time>
      </trkpt>
      <trkpt lat="43.9509" lon="1.71516">
        <ele>269.79</ele>
        <time>2021-08-18T05:58:03Z</time>
      </trkpt>
      <trkpt lat="43.95062" lon="1.71562">
        <ele>270.27</ele>
        <time>2021-08-18T05:58:12Z</time>
      </trkpt>
      <trkpt lat="43.95036" lon="1.71602">
        <ele>271.23</ele>
        <time>2021-08-18T05:58:21Z</time>
      </trkpt>
      <trkpt lat="43.95034" lon="1.71607">
        <ele>271.23</ele>
        <time>2021-08-18T05:58:22Z</time>
      </trkpt>
      <trkpt lat="43.9503" lon="1.71611">
        <ele>272.19</ele>
        <time>2021-08-18T05:58:23Z</time>
      </trkpt>
      <trkpt lat="43.95014" lon="1.71628">
        <ele>272.67</ele>
        <time>2021-08-18T05:58:28Z</time>
      </trkpt>
      <trkpt lat="43.94987" lon="1.71648">
        <ele>272.67</ele>
        <time>2021-08-18T05:58:36Z</time>
      </trkpt>
      <trkpt lat="43.9495" lon="1.71665">
        <ele>271.23</ele>
        <time>2021-08-18T05:58:43Z</time>
      </trkpt>
      <trkpt lat="43.94908" lon="1.71686">
        <ele>270.27</ele>
        <time>2021-08-18T05:58:50Z</time>
      </trkpt>
      <trkpt lat="43.9487" lon="1.71712">
        <ele>269.31</ele>
        <time>2021-08-18T05:58:57Z</time>
      </trkpt>
      <trkpt lat="43.94828" lon="1.71746">
        <ele>267.86</ele>
        <time>2021-08-18T05:59:05Z</time>
      </trkpt>
      <trkpt lat="43.94782" lon="1.71785">
        <ele>266.9</ele>
        <time>2021-08-18T05:59:13Z</time>
      </trkpt>
      <trkpt lat="43.94723" lon="1.71832">
        <ele>264.98</ele>
        <time>2021-08-18T05:59:23Z</time>
      </trkpt>
      <trkpt lat="43.94686" lon="1.71861">
        <ele>264.5</ele>
        <time>2021-08-18T05:59:29Z</time>
      </trkpt>
      <trkpt lat="43.94673" lon="1.71871">
        <ele>264.5</ele>
        <time>2021-08-18T05:59:31Z</time>
      </trkpt>
      <trkpt lat="43.9462" lon="1.71915">
        <ele>264.5</ele>
        <time>2021-08-18T05:59:40Z</time>
      </trkpt>
      <trkpt lat="43.94596" lon="1.71931">
        <ele>264.5</ele>
        <time>2021-08-18T05:59:44Z</time>
      </trkpt>
      <trkpt lat="43.94571" lon="1.7194">
        <ele>264.5</ele>
        <time>2021-08-18T05:59:48Z</time>
      </trkpt>
      <trkpt lat="43.94559" lon="1.71941">
        <ele>264.5</ele>
        <time>2021-08-18T05:59:50Z</time>
      </trkpt>
      <trkpt lat="43.94514" lon="1.71943">
        <ele>265.46</ele>
        <time>2021-08-18T05:59:58Z</time>
      </trkpt>
      <trkpt lat="43.94477" lon="1.71941">
        <ele>266.42</ele>
        <time>2021-08-18T06:00:06Z</time>
      </trkpt>
      <trkpt lat="43.94443" lon="1.71935">
        <ele>266.9</ele>
        <time>2021-08-18T06:00:14Z</time>
      </trkpt>
      <trkpt lat="43.94401" lon="1.71924">
        <ele>268.35</ele>
        <time>2021-08-18T06:00:25Z</time>
      </trkpt>
      <trkpt lat="43.94394" lon="1.7192">
        <ele>268.35</ele>
        <time>2021-08-18T06:00:27Z</time>
      </trkpt>
      <trkpt lat="43.94392" lon="1.71916">
        <ele>268.35</ele>
        <time>2021-08-18T06:00:28Z</time>
      </trkpt>
      <trkpt lat="43.94391" lon="1.71911">
        <ele>268.35</ele>
        <time>2021-08-18T06:00:29Z</time>
      </trkpt>
      <trkpt lat="43.94392" lon="1.71907">
        <ele>268.35</ele>
        <time>2021-08-18T06:00:30Z</time>
      </trkpt>
      <trkpt lat="43.94392" lon="1.71902">
        <ele>268.35</ele>
        <time>2021-08-18T06:00:31Z</time>
      </trkpt>
      <trkpt lat="43.94392" lon="1.71896">
        <ele>268.35</ele>
        <time>2021-08-18T06:00:32Z</time>
      </trkpt>
      <trkpt lat="43.94392" lon="1.71891">
        <ele>268.35</ele>
        <time>2021-08-18T06:00:33Z</time>
      </trkpt>
      <trkpt lat="43.94389" lon="1.71817">
        <ele>268.35</ele>
        <time>2021-08-18T06:00:45Z</time>
      </trkpt>
      <trkpt lat="43.94386" lon="1.71772">
        <ele>269.31</ele>
        <time>2021-08-18T06:00:53Z</time>
      </trkpt>
      <trkpt lat="43.94386" lon="1.71732">
        <ele>269.79</ele>
        <time>2021-08-18T06:01:00Z</time>
      </trkpt>
      <trkpt lat="43.94392" lon="1.71704">
        <ele>269.79</ele>
        <time>2021-08-18T06:01:05Z</time>
      </trkpt>
      <trkpt lat="43.94393" lon="1.71698">
        <ele>269.79</ele>
        <time>2021-08-18T06:01:06Z</time>
      </trkpt>
      <trkpt lat="43.94402" lon="1.71664">
        <ele>269.79</ele>
        <time>2021-08-18T06:01:12Z</time>
      </trkpt>
      <trkpt lat="43.94406" lon="1.71653">
        <ele>269.79</ele>
        <time>2021-08-18T06:01:14Z</time>
      </trkpt>
      <trkpt lat="43.94422" lon="1.71592">
        <ele>269.79</ele>
        <time>2021-08-18T06:01:24Z</time>
      </trkpt>
      <trkpt lat="43.94427" lon="1.71574">
        <ele>269.79</ele>
        <time>2021-08-18T06:01:27Z</time>
      </trkpt>
      <trkpt lat="43.94444" lon="1.71517">
        <ele>269.79</ele>
        <time>2021-08-18T06:01:36Z</time>
      </trkpt>
      <trkpt lat="43.94465" lon="1.71471">
        <ele>269.79</ele>
        <time>2021-08-18T06:01:44Z</time>
      </trkpt>
      <trkpt lat="43.9447" lon="1.71459">
        <ele>268.35</ele>
        <time>2021-08-18T06:01:46Z</time>
      </trkpt>
      <trkpt lat="43.94488" lon="1.71411">
        <ele>267.86</ele>
        <time>2021-08-18T06:01:54Z</time>
      </trkpt>
      <trkpt lat="43.9449" lon="1.71405">
        <ele>267.86</ele>
        <time>2021-08-18T06:01:55Z</time>
      </trkpt>
      <trkpt lat="43.94497" lon="1.71377">
        <ele>267.86</ele>
        <time>2021-08-18T06:02:00Z</time>
      </trkpt>
      <trkpt lat="43.94512" lon="1.71344">
        <ele>269.31</ele>
        <time>2021-08-18T06:02:07Z</time>
      </trkpt>
      <trkpt lat="43.94515" lon="1.71339">
        <ele>269.31</ele>
        <time>2021-08-18T06:02:08Z</time>
      </trkpt>
      <trkpt lat="43.94518" lon="1.71335">
        <ele>269.31</ele>
        <time>2021-08-18T06:02:09Z</time>
      </trkpt>
      <trkpt lat="43.94521" lon="1.71331">
        <ele>269.31</ele>
        <time>2021-08-18T06:02:10Z</time>
      </trkpt>
      <trkpt lat="43.94524" lon="1.71326">
        <ele>269.31</ele>
        <time>2021-08-18T06:02:11Z</time>
      </trkpt>
      <trkpt lat="43.94527" lon="1.71321">
        <ele>269.31</ele>
        <time>2021-08-18T06:02:12Z</time>
      </trkpt>
      <trkpt lat="43.94532" lon="1.7131">
        <ele>269.31</ele>
        <time>2021-08-18T06:02:14Z</time>
      </trkpt>
      <trkpt lat="43.94538" lon="1.71294">
        <ele>269.31</ele>
        <time>2021-08-18T06:02:17Z</time>
      </trkpt>
      <trkpt lat="43.94552" lon="1.71241">
        <ele>267.38</ele>
        <time>2021-08-18T06:02:27Z</time>
      </trkpt>
      <trkpt lat="43.94564" lon="1.71207">
        <ele>267.38</ele>
        <time>2021-08-18T06:02:33Z</time>
      </trkpt>
      <trkpt lat="43.94575" lon="1.71189">
        <ele>267.38</ele>
        <time>2021-08-18T06:02:37Z</time>
      </trkpt>
      <trkpt lat="43.94585" lon="1.71177">
        <ele>266.9</ele>
        <time>2021-08-18T06:02:40Z</time>
      </trkpt>
      <trkpt lat="43.94601" lon="1.71161">
        <ele>266.42</ele>
        <time>2021-08-18T06:02:45Z</time>
      </trkpt>
      <trkpt lat="43.94604" lon="1.71157">
        <ele>266.42</ele>
        <time>2021-08-18T06:02:46Z</time>
      </trkpt>
      <trkpt lat="43.94607" lon="1.71153">
        <ele>266.42</ele>
        <time>2021-08-18T06:02:47Z</time>
      </trkpt>
      <trkpt lat="43.94608" lon="1.71147">
        <ele>266.42</ele>
        <time>2021-08-18T06:02:48Z</time>
      </trkpt>
      <trkpt lat="43.94609" lon="1.71142">
        <ele>266.42</ele>
        <time>2021-08-18T06:02:49Z</time>
      </trkpt>
      <trkpt lat="43.94609" lon="1.71138">
        <ele>266.42</ele>
        <time>2021-08-18T06:02:50Z</time>
      </trkpt>
      <trkpt lat="43.94612" lon="1.71101">
        <ele>265.94</ele>
        <time>2021-08-18T06:02:57Z</time>
      </trkpt>
      <trkpt lat="43.94618" lon="1.71062">
        <ele>264.98</ele>
        <time>2021-08-18T06:03:03Z</time>
      </trkpt>
      <trkpt lat="43.94627" lon="1.71015">
        <ele>261.62</ele>
        <time>2021-08-18T06:03:09Z</time>
      </trkpt>
      <trkpt lat="43.94635" lon="1.7097">
        <ele>258.73</ele>
        <time>2021-08-18T06:03:14Z</time>
      </trkpt>
      <trkpt lat="43.9464" lon="1.70945">
        <ele>257.29</ele>
        <time>2021-08-18T06:03:17Z</time>
      </trkpt>
      <trkpt lat="43.94643" lon="1.70937">
        <ele>256.33</ele>
        <time>2021-08-18T06:03:18Z</time>
      </trkpt>
      <trkpt lat="43.94658" lon="1.70885">
        <ele>252.48</ele>
        <time>2021-08-18T06:03:24Z</time>
      </trkpt>
      <trkpt lat="43.94665" lon="1.70868">
        <ele>251.52</ele>
        <time>2021-08-18T06:03:26Z</time>
      </trkpt>
      <trkpt lat="43.94679" lon="1.70842">
        <ele>248.16</ele>
        <time>2021-08-18T06:03:29Z</time>
      </trkpt>
      <trkpt lat="43.94702" lon="1.70791">
        <ele>245.27</ele>
        <time>2021-08-18T06:03:34Z</time>
      </trkpt>
      <trkpt lat="43.94711" lon="1.70762">
        <ele>242.87</ele>
        <time>2021-08-18T06:03:37Z</time>
      </trkpt>
      <trkpt lat="43.94712" lon="1.7075">
        <ele>241.91</ele>
        <time>2021-08-18T06:03:38Z</time>
      </trkpt>
      <trkpt lat="43.9471" lon="1.70738">
        <ele>240.95</ele>
        <time>2021-08-18T06:03:39Z</time>
      </trkpt>
      <trkpt lat="43.94707" lon="1.70725">
        <ele>240.95</ele>
        <time>2021-08-18T06:03:40Z</time>
      </trkpt>
      <trkpt lat="43.94703" lon="1.70714">
        <ele>239.99</ele>
        <time>2021-08-18T06:03:41Z</time>
      </trkpt>
      <trkpt lat="43.94699" lon="1.70703">
        <ele>239.51</ele>
        <time>2021-08-18T06:03:42Z</time>
      </trkpt>
      <trkpt lat="43.94695" lon="1.70693">
        <ele>238.54</ele>
        <time>2021-08-18T06:03:43Z</time>
      </trkpt>
      <trkpt lat="43.94679" lon="1.70656">
        <ele>236.62</ele>
        <time>2021-08-18T06:03:47Z</time>
      </trkpt>
      <trkpt lat="43.94674" lon="1.7064">
        <ele>234.22</ele>
        <time>2021-08-18T06:03:49Z</time>
      </trkpt>
      <trkpt lat="43.94667" lon="1.70619">
        <ele>232.3</ele>
        <time>2021-08-18T06:03:53Z</time>
      </trkpt>
      <trkpt lat="43.94664" lon="1.70588">
        <ele>229.89</ele>
        <time>2021-08-18T06:03:58Z</time>
      </trkpt>
      <trkpt lat="43.94662" lon="1.70581">
        <ele>230.37</ele>
        <time>2021-08-18T06:03:59Z</time>
      </trkpt>
      <trkpt lat="43.94661" lon="1.70575">
        <ele>229.41</ele>
        <time>2021-08-18T06:04:00Z</time>
      </trkpt>
      <trkpt lat="43.94658" lon="1.70568">
        <ele>229.41</ele>
        <time>2021-08-18T06:04:01Z</time>
      </trkpt>
      <trkpt lat="43.94647" lon="1.70544">
        <ele>229.41</ele>
        <time>2021-08-18T06:04:05Z</time>
      </trkpt>
      <trkpt lat="43.94635" lon="1.70528">
        <ele>228.45</ele>
        <time>2021-08-18T06:04:08Z</time>
      </trkpt>
      <trkpt lat="43.94617" lon="1.70507">
        <ele>227.49</ele>
        <time>2021-08-18T06:04:12Z</time>
      </trkpt>
      <trkpt lat="43.94612" lon="1.70502">
        <ele>227.49</ele>
        <time>2021-08-18T06:04:13Z</time>
      </trkpt>
      <trkpt lat="43.94606" lon="1.70496">
        <ele>226.53</ele>
        <time>2021-08-18T06:04:14Z</time>
      </trkpt>
      <trkpt lat="43.94585" lon="1.70472">
        <ele>223.16</ele>
        <time>2021-08-18T06:04:18Z</time>
      </trkpt>
      <trkpt lat="43.9457" lon="1.70452">
        <ele>220.28</ele>
        <time>2021-08-18T06:04:21Z</time>
      </trkpt>
      <trkpt lat="43.94565" lon="1.70446">
        <ele>220.28</ele>
        <time>2021-08-18T06:04:22Z</time>
      </trkpt>
      <trkpt lat="43.94556" lon="1.70434">
        <ele>220.28</ele>
        <time>2021-08-18T06:04:24Z</time>
      </trkpt>
      <trkpt lat="43.94556" lon="1.7043">
        <ele>220.28</ele>
        <time>2021-08-18T06:04:25Z</time>
      </trkpt>
      <trkpt lat="43.94558" lon="1.70425">
        <ele>220.28</ele>
        <time>2021-08-18T06:04:26Z</time>
      </trkpt>
      <trkpt lat="43.9456" lon="1.70419">
        <ele>220.28</ele>
        <time>2021-08-18T06:04:27Z</time>
      </trkpt>
      <trkpt lat="43.94563" lon="1.70414">
        <ele>220.28</ele>
        <time>2021-08-18T06:04:28Z</time>
      </trkpt>
      <trkpt lat="43.94565" lon="1.70409">
        <ele>220.28</ele>
        <time>2021-08-18T06:04:29Z</time>
      </trkpt>
      <trkpt lat="43.94567" lon="1.70404">
        <ele>219.8</ele>
        <time>2021-08-18T06:04:30Z</time>
      </trkpt>
      <trkpt lat="43.94571" lon="1.70399">
        <ele>219.8</ele>
        <time>2021-08-18T06:04:31Z</time>
      </trkpt>
      <trkpt lat="43.946" lon="1.70353">
        <ele>218.84</ele>
        <time>2021-08-18T06:04:40Z</time>
      </trkpt>
      <trkpt lat="43.94603" lon="1.70347">
        <ele>218.84</ele>
        <time>2021-08-18T06:04:41Z</time>
      </trkpt>
      <trkpt lat="43.94627" lon="1.70308">
        <ele>217.88</ele>
        <time>2021-08-18T06:04:49Z</time>
      </trkpt>
      <trkpt lat="43.94633" lon="1.70299">
        <ele>217.4</ele>
        <time>2021-08-18T06:04:51Z</time>
      </trkpt>
      <trkpt lat="43.94661" lon="1.70262">
        <ele>216.43</ele>
        <time>2021-08-18T06:04:59Z</time>
      </trkpt>
      <trkpt lat="43.94664" lon="1.70256">
        <ele>216.43</ele>
        <time>2021-08-18T06:05:01Z</time>
      </trkpt>
      <trkpt lat="43.94667" lon="1.70247">
        <ele>216.43</ele>
        <time>2021-08-18T06:05:07Z</time>
      </trkpt>
      <trkpt lat="43.94669" lon="1.70245">
        <ele>216.43</ele>
        <time>2021-08-18T06:05:08Z</time>
      </trkpt>
      <trkpt lat="43.94671" lon="1.70243">
        <ele>216.43</ele>
        <time>2021-08-18T06:05:09Z</time>
      </trkpt>
      <trkpt lat="43.94688" lon="1.70227">
        <ele>215.95</ele>
        <time>2021-08-18T06:05:15Z</time>
      </trkpt>
      <trkpt lat="43.94706" lon="1.70207">
        <ele>215.47</ele>
        <time>2021-08-18T06:05:22Z</time>
      </trkpt>
      <trkpt lat="43.94721" lon="1.70188">
        <ele>214.99</ele>
        <time>2021-08-18T06:05:27Z</time>
      </trkpt>
      <trkpt lat="43.94724" lon="1.70183">
        <ele>214.99</ele>
        <time>2021-08-18T06:05:28Z</time>
      </trkpt>
      <trkpt lat="43.9475" lon="1.70142">
        <ele>213.55</ele>
        <time>2021-08-18T06:05:36Z</time>
      </trkpt>
      <trkpt lat="43.94783" lon="1.701">
        <ele>212.11</ele>
        <time>2021-08-18T06:05:45Z</time>
      </trkpt>
      <trkpt lat="43.94797" lon="1.70079">
        <ele>212.11</ele>
        <time>2021-08-18T06:05:50Z</time>
      </trkpt>
      <trkpt lat="43.94809" lon="1.7005">
        <ele>211.63</ele>
        <time>2021-08-18T06:05:58Z</time>
      </trkpt>
      <trkpt lat="43.94809" lon="1.70045">
        <ele>211.15</ele>
        <time>2021-08-18T06:05:59Z</time>
      </trkpt>
      <trkpt lat="43.94808" lon="1.70041">
        <ele>211.15</ele>
        <time>2021-08-18T06:06:00Z</time>
      </trkpt>
      <trkpt lat="43.94808" lon="1.70038">
        <ele>211.15</ele>
        <time>2021-08-18T06:06:01Z</time>
      </trkpt>
      <trkpt lat="43.94807" lon="1.70035">
        <ele>211.15</ele>
        <time>2021-08-18T06:06:02Z</time>
      </trkpt>
      <trkpt lat="43.94806" lon="1.70033">
        <ele>211.15</ele>
        <time>2021-08-18T06:06:03Z</time>
      </trkpt>
      <trkpt lat="43.94805" lon="1.70031">
        <ele>211.15</ele>
        <time>2021-08-18T06:06:04Z</time>
      </trkpt>
      <trkpt lat="43.94805" lon="1.7003">
        <ele>211.15</ele>
        <time>2021-08-18T06:06:05Z</time>
      </trkpt>
      <trkpt lat="43.94804" lon="1.70024">
        <ele>212.11</ele>
        <time>2021-08-18T06:06:07Z</time>
      </trkpt>
      <trkpt lat="43.94803" lon="1.70021">
        <ele>212.11</ele>
        <time>2021-08-18T06:06:08Z</time>
      </trkpt>
      <trkpt lat="43.94804" lon="1.70018">
        <ele>212.11</ele>
        <time>2021-08-18T06:06:09Z</time>
      </trkpt>
      <trkpt lat="43.94805" lon="1.70014">
        <ele>212.59</ele>
        <time>2021-08-18T06:06:10Z</time>
      </trkpt>
      <trkpt lat="43.94805" lon="1.70011">
        <ele>212.59</ele>
        <time>2021-08-18T06:06:11Z</time>
      </trkpt>
      <trkpt lat="43.94805" lon="1.70008">
        <ele>212.59</ele>
        <time>2021-08-18T06:06:12Z</time>
      </trkpt>
      <trkpt lat="43.94805" lon="1.70004">
        <ele>212.59</ele>
        <time>2021-08-18T06:06:13Z</time>
      </trkpt>
      <trkpt lat="43.94805" lon="1.70001">
        <ele>212.59</ele>
        <time>2021-08-18T06:06:14Z</time>
      </trkpt>
      <trkpt lat="43.94805" lon="1.69997">
        <ele>212.59</ele>
        <time>2021-08-18T06:06:15Z</time>
      </trkpt>
      <trkpt lat="43.948" lon="1.69981">
        <ele>213.55</ele>
        <time>2021-08-18T06:06:20Z</time>
      </trkpt>
      <trkpt lat="43.94797" lon="1.6998">
        <ele>214.03</ele>
        <time>2021-08-18T06:06:21Z</time>
      </trkpt>
      <trkpt lat="43.94795" lon="1.6998">
        <ele>214.03</ele>
        <time>2021-08-18T06:06:22Z</time>
      </trkpt>
      <trkpt lat="43.94786" lon="1.69982">
        <ele>214.51</ele>
        <time>2021-08-18T06:06:28Z</time>
      </trkpt>
      <trkpt lat="43.94785" lon="1.69983">
        <ele>214.51</ele>
        <time>2021-08-18T06:06:29Z</time>
      </trkpt>
      <trkpt lat="43.94784" lon="1.69984">
        <ele>214.99</ele>
        <time>2021-08-18T06:06:30Z</time>
      </trkpt>
      <trkpt lat="43.94783" lon="1.69985">
        <ele>214.99</ele>
        <time>2021-08-18T06:06:31Z</time>
      </trkpt>
      <trkpt lat="43.94781" lon="1.69987">
        <ele>214.99</ele>
        <time>2021-08-18T06:06:33Z</time>
      </trkpt>
      <trkpt lat="43.94768" lon="1.69997">
        <ele>215.95</ele>
        <time>2021-08-18T06:06:42Z</time>
      </trkpt>
      <trkpt lat="43.94756" lon="1.70004">
        <ele>216.91</ele>
        <time>2021-08-18T06:06:49Z</time>
      </trkpt>
      <trkpt lat="43.94744" lon="1.70012">
        <ele>217.88</ele>
        <time>2021-08-18T06:06:56Z</time>
      </trkpt>
      <trkpt lat="43.94726" lon="1.70019">
        <ele>218.84</ele>
        <time>2021-08-18T06:07:04Z</time>
      </trkpt>
      <trkpt lat="43.94712" lon="1.70022">
        <ele>219.32</ele>
        <time>2021-08-18T06:07:11Z</time>
      </trkpt>
      <trkpt lat="43.94698" lon="1.70018">
        <ele>219.32</ele>
        <time>2021-08-18T06:07:18Z</time>
      </trkpt>
      <trkpt lat="43.94696" lon="1.70018">
        <ele>219.32</ele>
        <time>2021-08-18T06:07:19Z</time>
      </trkpt>
      <trkpt lat="43.94695" lon="1.70017">
        <ele>219.32</ele>
        <time>2021-08-18T06:07:20Z</time>
      </trkpt>
      <trkpt lat="43.94693" lon="1.70016">
        <ele>219.32</ele>
        <time>2021-08-18T06:07:21Z</time>
      </trkpt>
      <trkpt lat="43.94691" lon="1.70015">
        <ele>219.8</ele>
        <time>2021-08-18T06:07:22Z</time>
      </trkpt>
      <trkpt lat="43.9469" lon="1.70013">
        <ele>219.8</ele>
        <time>2021-08-18T06:07:23Z</time>
      </trkpt>
      <trkpt lat="43.94689" lon="1.70011">
        <ele>219.8</ele>
        <time>2021-08-18T06:07:24Z</time>
      </trkpt>
      <trkpt lat="43.94689" lon="1.70008">
        <ele>219.8</ele>
        <time>2021-08-18T06:07:25Z</time>
      </trkpt>
      <trkpt lat="43.94693" lon="1.69994">
        <ele>220.28</ele>
        <time>2021-08-18T06:07:32Z</time>
      </trkpt>
      <trkpt lat="43.94694" lon="1.69992">
        <ele>220.28</ele>
        <time>2021-08-18T06:07:34Z</time>
      </trkpt>
      <trkpt lat="43.94695" lon="1.69991">
        <ele>220.76</ele>
        <time>2021-08-18T06:07:35Z</time>
      </trkpt>
      <trkpt lat="43.94696" lon="1.6999">
        <ele>220.76</ele>
        <time>2021-08-18T06:07:36Z</time>
      </trkpt>
      <trkpt lat="43.94698" lon="1.69988">
        <ele>221.24</ele>
        <time>2021-08-18T06:07:37Z</time>
      </trkpt>
      <trkpt lat="43.94699" lon="1.69986">
        <ele>221.24</ele>
        <time>2021-08-18T06:07:38Z</time>
      </trkpt>
      <trkpt lat="43.947" lon="1.69984">
        <ele>221.72</ele>
        <time>2021-08-18T06:07:39Z</time>
      </trkpt>
      <trkpt lat="43.947" lon="1.69981">
        <ele>221.72</ele>
        <time>2021-08-18T06:07:40Z</time>
      </trkpt>
      <trkpt lat="43.94705" lon="1.6997">
        <ele>223.16</ele>
        <time>2021-08-18T06:07:47Z</time>
      </trkpt>
      <trkpt lat="43.94708" lon="1.69954">
        <ele>224.61</ele>
        <time>2021-08-18T06:07:57Z</time>
      </trkpt>
      <trkpt lat="43.94708" lon="1.69953">
        <ele>225.09</ele>
        <time>2021-08-18T06:07:58Z</time>
      </trkpt>
      <trkpt lat="43.94708" lon="1.69951">
        <ele>225.57</ele>
        <time>2021-08-18T06:07:59Z</time>
      </trkpt>
      <trkpt lat="43.94707" lon="1.69949">
        <ele>225.57</ele>
        <time>2021-08-18T06:08:00Z</time>
      </trkpt>
      <trkpt lat="43.94707" lon="1.69947">
        <ele>225.09</ele>
        <time>2021-08-18T06:08:01Z</time>
      </trkpt>
      <trkpt lat="43.94707" lon="1.69945">
        <ele>225.09</ele>
        <time>2021-08-18T06:08:02Z</time>
      </trkpt>
      <trkpt lat="43.94704" lon="1.69924">
        <ele>225.57</ele>
        <time>2021-08-18T06:08:09Z</time>
      </trkpt>
      <trkpt lat="43.94702" lon="1.69912">
        <ele>225.57</ele>
        <time>2021-08-18T06:08:13Z</time>
      </trkpt>
      <trkpt lat="43.94699" lon="1.69882">
        <ele>226.05</ele>
        <time>2021-08-18T06:08:21Z</time>
      </trkpt>
      <trkpt lat="43.94695" lon="1.6985">
        <ele>227.01</ele>
        <time>2021-08-18T06:08:29Z</time>
      </trkpt>
      <trkpt lat="43.9469" lon="1.69825">
        <ele>227.49</ele>
        <time>2021-08-18T06:08:36Z</time>
      </trkpt>
      <trkpt lat="43.94679" lon="1.69803">
        <ele>228.45</ele>
        <time>2021-08-18T06:08:44Z</time>
      </trkpt>
      <trkpt lat="43.94673" lon="1.69784">
        <ele>229.41</ele>
        <time>2021-08-18T06:08:50Z</time>
      </trkpt>
      <trkpt lat="43.94672" lon="1.69783">
        <ele>229.41</ele>
        <time>2021-08-18T06:08:51Z</time>
      </trkpt>
      <trkpt lat="43.94671" lon="1.69781">
        <ele>229.89</ele>
        <time>2021-08-18T06:08:52Z</time>
      </trkpt>
      <trkpt lat="43.9467" lon="1.69779">
        <ele>229.89</ele>
        <time>2021-08-18T06:08:53Z</time>
      </trkpt>
      <trkpt lat="43.94665" lon="1.69761">
        <ele>231.33</ele>
        <time>2021-08-18T06:09:01Z</time>
      </trkpt>
      <trkpt lat="43.94663" lon="1.69751">
        <ele>232.78</ele>
        <time>2021-08-18T06:09:10Z</time>
      </trkpt>
      <trkpt lat="43.94658" lon="1.69742">
        <ele>232.78</ele>
        <time>2021-08-18T06:09:20Z</time>
      </trkpt>
      <trkpt lat="43.94654" lon="1.69725">
        <ele>234.22</ele>
        <time>2021-08-18T06:09:29Z</time>
      </trkpt>
      <trkpt lat="43.94648" lon="1.69713">
        <ele>235.18</ele>
        <time>2021-08-18T06:09:35Z</time>
      </trkpt>
      <trkpt lat="43.94643" lon="1.69707">
        <ele>235.18</ele>
        <time>2021-08-18T06:09:39Z</time>
      </trkpt>
      <trkpt lat="43.94625" lon="1.69696">
        <ele>235.66</ele>
        <time>2021-08-18T06:09:46Z</time>
      </trkpt>
      <trkpt lat="43.94612" lon="1.69697">
        <ele>236.14</ele>
        <time>2021-08-18T06:09:53Z</time>
      </trkpt>
      <trkpt lat="43.94598" lon="1.69697">
        <ele>236.62</ele>
        <time>2021-08-18T06:10:00Z</time>
      </trkpt>
      <trkpt lat="43.9459" lon="1.69695">
        <ele>236.62</ele>
        <time>2021-08-18T06:10:07Z</time>
      </trkpt>
      <trkpt lat="43.94589" lon="1.69693">
        <ele>236.62</ele>
        <time>2021-08-18T06:10:15Z</time>
      </trkpt>
      <trkpt lat="43.94587" lon="1.6969">
        <ele>236.62</ele>
        <time>2021-08-18T06:10:22Z</time>
      </trkpt>
      <trkpt lat="43.94586" lon="1.69689">
        <ele>236.62</ele>
        <time>2021-08-18T06:10:23Z</time>
      </trkpt>
      <trkpt lat="43.94578" lon="1.69688">
        <ele>238.54</ele>
        <time>2021-08-18T06:10:31Z</time>
      </trkpt>
      <trkpt lat="43.94576" lon="1.69688">
        <ele>238.54</ele>
        <time>2021-08-18T06:10:33Z</time>
      </trkpt>
      <trkpt lat="43.9457" lon="1.69685">
        <ele>239.99</ele>
        <time>2021-08-18T06:10:41Z</time>
      </trkpt>
      <trkpt lat="43.94566" lon="1.69681">
        <ele>241.91</ele>
        <time>2021-08-18T06:10:49Z</time>
      </trkpt>
      <trkpt lat="43.94561" lon="1.69676">
        <ele>243.35</ele>
        <time>2021-08-18T06:10:57Z</time>
      </trkpt>
      <trkpt lat="43.94555" lon="1.69669">
        <ele>244.79</ele>
        <time>2021-08-18T06:11:06Z</time>
      </trkpt>
      <trkpt lat="43.94552" lon="1.69664">
        <ele>245.75</ele>
        <time>2021-08-18T06:11:14Z</time>
      </trkpt>
      <trkpt lat="43.94548" lon="1.69656">
        <ele>247.2</ele>
        <time>2021-08-18T06:11:23Z</time>
      </trkpt>
      <trkpt lat="43.94542" lon="1.69651">
        <ele>248.16</ele>
        <time>2021-08-18T06:11:31Z</time>
      </trkpt>
      <trkpt lat="43.94539" lon="1.69644">
        <ele>248.64</ele>
        <time>2021-08-18T06:11:39Z</time>
      </trkpt>
      <trkpt lat="43.94539" lon="1.69629">
        <ele>248.64</ele>
        <time>2021-08-18T06:11:44Z</time>
      </trkpt>
      <trkpt lat="43.9454" lon="1.69626">
        <ele>248.64</ele>
        <time>2021-08-18T06:11:45Z</time>
      </trkpt>
      <trkpt lat="43.94541" lon="1.69622">
        <ele>248.64</ele>
        <time>2021-08-18T06:11:46Z</time>
      </trkpt>
      <trkpt lat="43.94546" lon="1.69614">
        <ele>247.2</ele>
        <time>2021-08-18T06:11:48Z</time>
      </trkpt>
      <trkpt lat="43.94549" lon="1.69609">
        <ele>246.23</ele>
        <time>2021-08-18T06:11:49Z</time>
      </trkpt>
      <trkpt lat="43.94565" lon="1.69581">
        <ele>243.35</ele>
        <time>2021-08-18T06:11:54Z</time>
      </trkpt>
      <trkpt lat="43.94575" lon="1.69567">
        <ele>242.39</ele>
        <time>2021-08-18T06:11:56Z</time>
      </trkpt>
      <trkpt lat="43.94595" lon="1.69541">
        <ele>239.51</ele>
        <time>2021-08-18T06:12:00Z</time>
      </trkpt>
      <trkpt lat="43.94601" lon="1.69537">
        <ele>238.54</ele>
        <time>2021-08-18T06:12:01Z</time>
      </trkpt>
      <trkpt lat="43.94608" lon="1.69534">
        <ele>237.58</ele>
        <time>2021-08-18T06:12:02Z</time>
      </trkpt>
      <trkpt lat="43.94622" lon="1.6953">
        <ele>235.18</ele>
        <time>2021-08-18T06:12:04Z</time>
      </trkpt>
      <trkpt lat="43.94652" lon="1.69526">
        <ele>230.85</ele>
        <time>2021-08-18T06:12:08Z</time>
      </trkpt>
      <trkpt lat="43.94658" lon="1.69524">
        <ele>229.89</ele>
        <time>2021-08-18T06:12:09Z</time>
      </trkpt>
      <trkpt lat="43.94664" lon="1.69522">
        <ele>228.93</ele>
        <time>2021-08-18T06:12:10Z</time>
      </trkpt>
      <trkpt lat="43.94669" lon="1.69517">
        <ele>227.97</ele>
        <time>2021-08-18T06:12:11Z</time>
      </trkpt>
      <trkpt lat="43.94674" lon="1.69511">
        <ele>226.53</ele>
        <time>2021-08-18T06:12:12Z</time>
      </trkpt>
      <trkpt lat="43.94679" lon="1.69502">
        <ele>226.05</ele>
        <time>2021-08-18T06:12:13Z</time>
      </trkpt>
      <trkpt lat="43.9469" lon="1.69487">
        <ele>224.12</ele>
        <time>2021-08-18T06:12:15Z</time>
      </trkpt>
      <trkpt lat="43.94697" lon="1.69481">
        <ele>223.16</ele>
        <time>2021-08-18T06:12:16Z</time>
      </trkpt>
      <trkpt lat="43.94719" lon="1.69462">
        <ele>220.28</ele>
        <time>2021-08-18T06:12:20Z</time>
      </trkpt>
      <trkpt lat="43.94737" lon="1.69452">
        <ele>216.91</ele>
        <time>2021-08-18T06:12:23Z</time>
      </trkpt>
      <trkpt lat="43.94742" lon="1.69449">
        <ele>215.95</ele>
        <time>2021-08-18T06:12:24Z</time>
      </trkpt>
      <trkpt lat="43.94756" lon="1.69434">
        <ele>214.03</ele>
        <time>2021-08-18T06:12:27Z</time>
      </trkpt>
      <trkpt lat="43.94771" lon="1.69416">
        <ele>210.67</ele>
        <time>2021-08-18T06:12:30Z</time>
      </trkpt>
      <trkpt lat="43.94775" lon="1.69411">
        <ele>210.19</ele>
        <time>2021-08-18T06:12:31Z</time>
      </trkpt>
      <trkpt lat="43.94778" lon="1.69405">
        <ele>210.19</ele>
        <time>2021-08-18T06:12:32Z</time>
      </trkpt>
      <trkpt lat="43.94781" lon="1.694">
        <ele>209.22</ele>
        <time>2021-08-18T06:12:33Z</time>
      </trkpt>
      <trkpt lat="43.94783" lon="1.69394">
        <ele>208.74</ele>
        <time>2021-08-18T06:12:34Z</time>
      </trkpt>
      <trkpt lat="43.94786" lon="1.69388">
        <ele>208.26</ele>
        <time>2021-08-18T06:12:35Z</time>
      </trkpt>
      <trkpt lat="43.94788" lon="1.69383">
        <ele>208.26</ele>
        <time>2021-08-18T06:12:36Z</time>
      </trkpt>
      <trkpt lat="43.94791" lon="1.69378">
        <ele>207.3</ele>
        <time>2021-08-18T06:12:37Z</time>
      </trkpt>
      <trkpt lat="43.94795" lon="1.69373">
        <ele>206.82</ele>
        <time>2021-08-18T06:12:38Z</time>
      </trkpt>
      <trkpt lat="43.94799" lon="1.69368">
        <ele>205.86</ele>
        <time>2021-08-18T06:12:39Z</time>
      </trkpt>
      <trkpt lat="43.94803" lon="1.69365">
        <ele>205.86</ele>
        <time>2021-08-18T06:12:40Z</time>
      </trkpt>
      <trkpt lat="43.94806" lon="1.69363">
        <ele>205.38</ele>
        <time>2021-08-18T06:12:41Z</time>
      </trkpt>
      <trkpt lat="43.9481" lon="1.69362">
        <ele>205.38</ele>
        <time>2021-08-18T06:12:42Z</time>
      </trkpt>
      <trkpt lat="43.94812" lon="1.6936">
        <ele>205.38</ele>
        <time>2021-08-18T06:12:43Z</time>
      </trkpt>
      <trkpt lat="43.94814" lon="1.69358">
        <ele>205.38</ele>
        <time>2021-08-18T06:12:44Z</time>
      </trkpt>
      <trkpt lat="43.94815" lon="1.69355">
        <ele>204.9</ele>
        <time>2021-08-18T06:12:45Z</time>
      </trkpt>
      <trkpt lat="43.94815" lon="1.69353">
        <ele>204.9</ele>
        <time>2021-08-18T06:12:46Z</time>
      </trkpt>
      <trkpt lat="43.94816" lon="1.69349">
        <ele>204.42</ele>
        <time>2021-08-18T06:12:47Z</time>
      </trkpt>
      <trkpt lat="43.94817" lon="1.69345">
        <ele>204.42</ele>
        <time>2021-08-18T06:12:52Z</time>
      </trkpt>
      <trkpt lat="43.9482" lon="1.69332">
        <ele>204.42</ele>
        <time>2021-08-18T06:13:01Z</time>
      </trkpt>
      <trkpt lat="43.94821" lon="1.6933">
        <ele>204.42</ele>
        <time>2021-08-18T06:13:07Z</time>
      </trkpt>
      <trkpt lat="43.94823" lon="1.69327">
        <ele>204.42</ele>
        <time>2021-08-18T06:13:14Z</time>
      </trkpt>
      <trkpt lat="43.94823" lon="1.6932">
        <ele>204.42</ele>
        <time>2021-08-18T06:13:19Z</time>
      </trkpt>
      <trkpt lat="43.94824" lon="1.69314">
        <ele>205.86</ele>
        <time>2021-08-18T06:13:22Z</time>
      </trkpt>
      <trkpt lat="43.94825" lon="1.69311">
        <ele>205.86</ele>
        <time>2021-08-18T06:13:23Z</time>
      </trkpt>
      <trkpt lat="43.94825" lon="1.69306">
        <ele>205.86</ele>
        <time>2021-08-18T06:13:25Z</time>
      </trkpt>
      <trkpt lat="43.94824" lon="1.69303">
        <ele>205.86</ele>
        <time>2021-08-18T06:13:26Z</time>
      </trkpt>
      <trkpt lat="43.94825" lon="1.693">
        <ele>205.86</ele>
        <time>2021-08-18T06:13:27Z</time>
      </trkpt>
      <trkpt lat="43.94826" lon="1.69297">
        <ele>205.86</ele>
        <time>2021-08-18T06:13:28Z</time>
      </trkpt>
      <trkpt lat="43.94827" lon="1.69294">
        <ele>205.86</ele>
        <time>2021-08-18T06:13:29Z</time>
      </trkpt>
      <trkpt lat="43.94828" lon="1.69292">
        <ele>205.86</ele>
        <time>2021-08-18T06:13:30Z</time>
      </trkpt>
      <trkpt lat="43.94829" lon="1.69289">
        <ele>205.86</ele>
        <time>2021-08-18T06:13:31Z</time>
      </trkpt>
      <trkpt lat="43.94838" lon="1.6927">
        <ele>205.86</ele>
        <time>2021-08-18T06:13:39Z</time>
      </trkpt>
      <trkpt lat="43.94853" lon="1.69248">
        <ele>206.82</ele>
        <time>2021-08-18T06:13:48Z</time>
      </trkpt>
      <trkpt lat="43.94867" lon="1.69228">
        <ele>206.82</ele>
        <time>2021-08-18T06:13:54Z</time>
      </trkpt>
      <trkpt lat="43.94878" lon="1.69212">
        <ele>205.86</ele>
        <time>2021-08-18T06:14:00Z</time>
      </trkpt>
      <trkpt lat="43.94895" lon="1.69191">
        <ele>205.38</ele>
        <time>2021-08-18T06:14:07Z</time>
      </trkpt>
      <trkpt lat="43.94918" lon="1.6917">
        <ele>204.9</ele>
        <time>2021-08-18T06:14:15Z</time>
      </trkpt>
      <trkpt lat="43.94928" lon="1.69157">
        <ele>204.9</ele>
        <time>2021-08-18T06:14:20Z</time>
      </trkpt>
      <trkpt lat="43.94931" lon="1.69152">
        <ele>204.42</ele>
        <time>2021-08-18T06:14:23Z</time>
      </trkpt>
      <trkpt lat="43.94933" lon="1.6915">
        <ele>204.42</ele>
        <time>2021-08-18T06:14:24Z</time>
      </trkpt>
      <trkpt lat="43.94935" lon="1.69148">
        <ele>204.42</ele>
        <time>2021-08-18T06:14:25Z</time>
      </trkpt>
      <trkpt lat="43.94936" lon="1.69145">
        <ele>204.42</ele>
        <time>2021-08-18T06:14:26Z</time>
      </trkpt>
      <trkpt lat="43.94938" lon="1.69142">
        <ele>204.42</ele>
        <time>2021-08-18T06:14:27Z</time>
      </trkpt>
      <trkpt lat="43.94947" lon="1.69131">
        <ele>204.42</ele>
        <time>2021-08-18T06:14:33Z</time>
      </trkpt>
      <trkpt lat="43.94949" lon="1.69129">
        <ele>204.42</ele>
        <time>2021-08-18T06:14:34Z</time>
      </trkpt>
      <trkpt lat="43.94951" lon="1.69127">
        <ele>204.42</ele>
        <time>2021-08-18T06:14:35Z</time>
      </trkpt>
      <trkpt lat="43.94965" lon="1.69113">
        <ele>204.42</ele>
        <time>2021-08-18T06:14:42Z</time>
      </trkpt>
      <trkpt lat="43.94971" lon="1.69104">
        <ele>203.94</ele>
        <time>2021-08-18T06:14:44Z</time>
      </trkpt>
      <trkpt lat="43.94973" lon="1.691">
        <ele>203.94</ele>
        <time>2021-08-18T06:14:45Z</time>
      </trkpt>
      <trkpt lat="43.94981" lon="1.69089">
        <ele>203.46</ele>
        <time>2021-08-18T06:14:50Z</time>
      </trkpt>
      <trkpt lat="43.94997" lon="1.6907">
        <ele>202.01</ele>
        <time>2021-08-18T06:14:58Z</time>
      </trkpt>
      <trkpt lat="43.95001" lon="1.69054">
        <ele>202.01</ele>
        <time>2021-08-18T06:15:03Z</time>
      </trkpt>
      <trkpt lat="43.95003" lon="1.69033">
        <ele>203.46</ele>
        <time>2021-08-18T06:15:10Z</time>
      </trkpt>
      <trkpt lat="43.94998" lon="1.69022">
        <ele>204.9</ele>
        <time>2021-08-18T06:15:18Z</time>
      </trkpt>
      <trkpt lat="43.94988" lon="1.69021">
        <ele>206.34</ele>
        <time>2021-08-18T06:15:27Z</time>
      </trkpt>
      <trkpt lat="43.94982" lon="1.69021">
        <ele>207.3</ele>
        <time>2021-08-18T06:15:34Z</time>
      </trkpt>
      <trkpt lat="43.94973" lon="1.69019">
        <ele>208.74</ele>
        <time>2021-08-18T06:15:41Z</time>
      </trkpt>
      <trkpt lat="43.94961" lon="1.69018">
        <ele>210.19</ele>
        <time>2021-08-18T06:15:49Z</time>
      </trkpt>
      <trkpt lat="43.94956" lon="1.69019">
        <ele>211.15</ele>
        <time>2021-08-18T06:15:56Z</time>
      </trkpt>
      <trkpt lat="43.94948" lon="1.69018">
        <ele>213.07</ele>
        <time>2021-08-18T06:16:07Z</time>
      </trkpt>
      <trkpt lat="43.94939" lon="1.69018">
        <ele>213.55</ele>
        <time>2021-08-18T06:16:15Z</time>
      </trkpt>
      <trkpt lat="43.94926" lon="1.69017">
        <ele>215.47</ele>
        <time>2021-08-18T06:16:25Z</time>
      </trkpt>
      <trkpt lat="43.94916" lon="1.69018">
        <ele>216.43</ele>
        <time>2021-08-18T06:16:33Z</time>
      </trkpt>
      <trkpt lat="43.94915" lon="1.69018">
        <ele>216.91</ele>
        <time>2021-08-18T06:16:34Z</time>
      </trkpt>
      <trkpt lat="43.94905" lon="1.6902">
        <ele>217.4</ele>
        <time>2021-08-18T06:16:42Z</time>
      </trkpt>
      <trkpt lat="43.94892" lon="1.69021">
        <ele>218.84</ele>
        <time>2021-08-18T06:16:51Z</time>
      </trkpt>
      <trkpt lat="43.94884" lon="1.69024">
        <ele>219.8</ele>
        <time>2021-08-18T06:17:00Z</time>
      </trkpt>
      <trkpt lat="43.94873" lon="1.69026">
        <ele>220.76</ele>
        <time>2021-08-18T06:17:08Z</time>
      </trkpt>
      <trkpt lat="43.94867" lon="1.69025">
        <ele>221.24</ele>
        <time>2021-08-18T06:17:17Z</time>
      </trkpt>
      <trkpt lat="43.94861" lon="1.69025">
        <ele>222.68</ele>
        <time>2021-08-18T06:17:25Z</time>
      </trkpt>
      <trkpt lat="43.94851" lon="1.69021">
        <ele>224.12</ele>
        <time>2021-08-18T06:17:33Z</time>
      </trkpt>
      <trkpt lat="43.94844" lon="1.69018">
        <ele>224.61</ele>
        <time>2021-08-18T06:17:38Z</time>
      </trkpt>
      <trkpt lat="43.94835" lon="1.69013">
        <ele>226.05</ele>
        <time>2021-08-18T06:17:46Z</time>
      </trkpt>
      <trkpt lat="43.94829" lon="1.6901">
        <ele>227.49</ele>
        <time>2021-08-18T06:17:53Z</time>
      </trkpt>
      <trkpt lat="43.94819" lon="1.69006">
        <ele>228.93</ele>
        <time>2021-08-18T06:18:02Z</time>
      </trkpt>
      <trkpt lat="43.94811" lon="1.69005">
        <ele>229.89</ele>
        <time>2021-08-18T06:18:09Z</time>
      </trkpt>
      <trkpt lat="43.94806" lon="1.69007">
        <ele>230.85</ele>
        <time>2021-08-18T06:18:16Z</time>
      </trkpt>
      <trkpt lat="43.94804" lon="1.69007">
        <ele>230.85</ele>
        <time>2021-08-18T06:18:18Z</time>
      </trkpt>
      <trkpt lat="43.94797" lon="1.69012">
        <ele>231.81</ele>
        <time>2021-08-18T06:18:25Z</time>
      </trkpt>
      <trkpt lat="43.94784" lon="1.69018">
        <ele>233.26</ele>
        <time>2021-08-18T06:18:35Z</time>
      </trkpt>
      <trkpt lat="43.9477" lon="1.69023">
        <ele>235.66</ele>
        <time>2021-08-18T06:18:46Z</time>
      </trkpt>
      <trkpt lat="43.94754" lon="1.69023">
        <ele>237.1</ele>
        <time>2021-08-18T06:18:55Z</time>
      </trkpt>
      <trkpt lat="43.94752" lon="1.69023">
        <ele>237.1</ele>
        <time>2021-08-18T06:18:56Z</time>
      </trkpt>
      <trkpt lat="43.94751" lon="1.69023">
        <ele>237.58</ele>
        <time>2021-08-18T06:18:57Z</time>
      </trkpt>
      <trkpt lat="43.94749" lon="1.69023">
        <ele>237.58</ele>
        <time>2021-08-18T06:18:58Z</time>
      </trkpt>
      <trkpt lat="43.94748" lon="1.69022">
        <ele>237.58</ele>
        <time>2021-08-18T06:18:59Z</time>
      </trkpt>
      <trkpt lat="43.94746" lon="1.69022">
        <ele>237.58</ele>
        <time>2021-08-18T06:19:00Z</time>
      </trkpt>
      <trkpt lat="43.94745" lon="1.69021">
        <ele>237.58</ele>
        <time>2021-08-18T06:19:01Z</time>
      </trkpt>
      <trkpt lat="43.94743" lon="1.6902">
        <ele>237.58</ele>
        <time>2021-08-18T06:19:02Z</time>
      </trkpt>
      <trkpt lat="43.94742" lon="1.6902">
        <ele>238.06</ele>
        <time>2021-08-18T06:19:03Z</time>
      </trkpt>
      <trkpt lat="43.94729" lon="1.69014">
        <ele>238.54</ele>
        <time>2021-08-18T06:19:12Z</time>
      </trkpt>
      <trkpt lat="43.94722" lon="1.69012">
        <ele>239.02</ele>
        <time>2021-08-18T06:19:18Z</time>
      </trkpt>
      <trkpt lat="43.9472" lon="1.69011">
        <ele>239.02</ele>
        <time>2021-08-18T06:19:24Z</time>
      </trkpt>
      <trkpt lat="43.94719" lon="1.6901">
        <ele>239.02</ele>
        <time>2021-08-18T06:19:43Z</time>
      </trkpt>
      <trkpt lat="43.94717" lon="1.69011">
        <ele>239.02</ele>
        <time>2021-08-18T06:20:03Z</time>
      </trkpt>
      <trkpt lat="43.94714" lon="1.69012">
        <ele>239.02</ele>
        <time>2021-08-18T06:20:24Z</time>
      </trkpt>
      <trkpt lat="43.94711" lon="1.69014">
        <ele>239.02</ele>
        <time>2021-08-18T06:20:45Z</time>
      </trkpt>
      <trkpt lat="43.94715" lon="1.69015">
        <ele>239.02</ele>
        <time>2021-08-18T06:20:59Z</time>
      </trkpt>
      <trkpt lat="43.94721" lon="1.69015">
        <ele>239.02</ele>
        <time>2021-08-18T06:21:18Z</time>
      </trkpt>
      <trkpt lat="43.94724" lon="1.69013">
        <ele>238.54</ele>
        <time>2021-08-18T06:21:40Z</time>
      </trkpt>
      <trkpt lat="43.94721" lon="1.69014">
        <ele>238.54</ele>
        <time>2021-08-18T06:22:07Z</time>
      </trkpt>
      <trkpt lat="43.94722" lon="1.69009">
        <ele>238.54</ele>
        <time>2021-08-18T06:22:31Z</time>
      </trkpt>
      <trkpt lat="43.94719" lon="1.69008">
        <ele>238.54</ele>
        <time>2021-08-18T06:23:00Z</time>
      </trkpt>
      <trkpt lat="43.94722" lon="1.69012">
        <ele>238.54</ele>
        <time>2021-08-18T06:23:26Z</time>
      </trkpt>
      <trkpt lat="43.94721" lon="1.69013">
        <ele>238.54</ele>
        <time>2021-08-18T06:23:51Z</time>
      </trkpt>
      <trkpt lat="43.94717" lon="1.69011">
        <ele>238.54</ele>
        <time>2021-08-18T06:24:13Z</time>
      </trkpt>
      <trkpt lat="43.94714" lon="1.69013">
        <ele>238.54</ele>
        <time>2021-08-18T06:24:36Z</time>
      </trkpt>
      <trkpt lat="43.94712" lon="1.69012">
        <ele>238.54</ele>
        <time>2021-08-18T06:24:52Z</time>
      </trkpt>
      <trkpt lat="43.94714" lon="1.69012">
        <ele>238.54</ele>
        <time>2021-08-18T06:25:07Z</time>
      </trkpt>
      <trkpt lat="43.94714" lon="1.69015">
        <ele>238.54</ele>
        <time>2021-08-18T06:25:25Z</time>
      </trkpt>
      <trkpt lat="43.94713" lon="1.69014">
        <ele>238.54</ele>
        <time>2021-08-18T06:25:37Z</time>
      </trkpt>
      <trkpt lat="43.94711" lon="1.69015">
        <ele>238.54</ele>
        <time>2021-08-18T06:25:45Z</time>
      </trkpt>
      <trkpt lat="43.94716" lon="1.69018">
        <ele>238.54</ele>
        <time>2021-08-18T06:26:09Z</time>
      </trkpt>
      <trkpt lat="43.94721" lon="1.69015">
        <ele>238.54</ele>
        <time>2021-08-18T06:26:40Z</time>
      </trkpt>
      <trkpt lat="43.94719" lon="1.6902">
        <ele>238.54</ele>
        <time>2021-08-18T06:27:03Z</time>
      </trkpt>
      <trkpt lat="43.94718" lon="1.69017">
        <ele>238.54</ele>
        <time>2021-08-18T06:27:24Z</time>
      </trkpt>
      <trkpt lat="43.94718" lon="1.69017">
        <ele>238.54</ele>
        <time>2021-08-18T06:27:41Z</time>
      </trkpt>
      <trkpt lat="43.94713" lon="1.69014">
        <ele>238.54</ele>
        <time>2021-08-18T06:28:02Z</time>
      </trkpt>
      <trkpt lat="43.94716" lon="1.69015">
        <ele>238.54</ele>
        <time>2021-08-18T06:28:21Z</time>
      </trkpt>
      <trkpt lat="43.94718" lon="1.69014">
        <ele>238.54</ele>
        <time>2021-08-18T06:28:43Z</time>
      </trkpt>
      <trkpt lat="43.94716" lon="1.69015">
        <ele>238.54</ele>
        <time>2021-08-18T06:29:02Z</time>
      </trkpt>
      <trkpt lat="43.94716" lon="1.69014">
        <ele>238.54</ele>
        <time>2021-08-18T06:29:17Z</time>
      </trkpt>
      <trkpt lat="43.94716" lon="1.69012">
        <ele>238.54</ele>
        <time>2021-08-18T06:29:32Z</time>
      </trkpt>
      <trkpt lat="43.94719" lon="1.69011">
        <ele>238.54</ele>
        <time>2021-08-18T06:29:49Z</time>
      </trkpt>
      <trkpt lat="43.94718" lon="1.69013">
        <ele>238.54</ele>
        <time>2021-08-18T06:30:07Z</time>
      </trkpt>
      <trkpt lat="43.94718" lon="1.69014">
        <ele>238.54</ele>
        <time>2021-08-18T06:30:21Z</time>
      </trkpt>
      <trkpt lat="43.94718" lon="1.69015">
        <ele>238.06</ele>
        <time>2021-08-18T06:30:33Z</time>
      </trkpt>
      <trkpt lat="43.94718" lon="1.69016">
        <ele>238.06</ele>
        <time>2021-08-18T06:30:42Z</time>
      </trkpt>
      <trkpt lat="43.94715" lon="1.69014">
        <ele>238.06</ele>
        <time>2021-08-18T06:31:07Z</time>
      </trkpt>
      <trkpt lat="43.94719" lon="1.69013">
        <ele>238.06</ele>
        <time>2021-08-18T06:31:32Z</time>
      </trkpt>
      <trkpt lat="43.94717" lon="1.69014">
        <ele>238.06</ele>
        <time>2021-08-18T06:31:53Z</time>
      </trkpt>
      <trkpt lat="43.94717" lon="1.69013">
        <ele>238.06</ele>
        <time>2021-08-18T06:32:14Z</time>
      </trkpt>
      <trkpt lat="43.9472" lon="1.69011">
        <ele>238.06</ele>
        <time>2021-08-18T06:32:30Z</time>
      </trkpt>
      <trkpt lat="43.94718" lon="1.69009">
        <ele>238.06</ele>
        <time>2021-08-18T06:32:52Z</time>
      </trkpt>
      <trkpt lat="43.94715" lon="1.69007">
        <ele>238.06</ele>
        <time>2021-08-18T06:33:15Z</time>
      </trkpt>
      <trkpt lat="43.94718" lon="1.69015">
        <ele>238.06</ele>
        <time>2021-08-18T06:33:43Z</time>
      </trkpt>
      <trkpt lat="43.94721" lon="1.69011">
        <ele>238.06</ele>
        <time>2021-08-18T06:34:06Z</time>
      </trkpt>
      <trkpt lat="43.94719" lon="1.69011">
        <ele>238.06</ele>
        <time>2021-08-18T06:34:18Z</time>
      </trkpt>
      <trkpt lat="43.94715" lon="1.69012">
        <ele>238.54</ele>
        <time>2021-08-18T06:34:31Z</time>
      </trkpt>
      <trkpt lat="43.9471" lon="1.69012">
        <ele>238.54</ele>
        <time>2021-08-18T06:34:48Z</time>
      </trkpt>
      <trkpt lat="43.9471" lon="1.69015">
        <ele>238.06</ele>
        <time>2021-08-18T06:35:03Z</time>
      </trkpt>
      <trkpt lat="43.94713" lon="1.69013">
        <ele>238.06</ele>
        <time>2021-08-18T06:35:19Z</time>
      </trkpt>
      <trkpt lat="43.94715" lon="1.69012">
        <ele>238.06</ele>
        <time>2021-08-18T06:35:33Z</time>
      </trkpt>
      <trkpt lat="43.94713" lon="1.69011">
        <ele>238.06</ele>
        <time>2021-08-18T06:35:46Z</time>
      </trkpt>
      <trkpt lat="43.94713" lon="1.69009">
        <ele>238.06</ele>
        <time>2021-08-18T06:35:57Z</time>
      </trkpt>
      <trkpt lat="43.94706" lon="1.69002">
        <ele>238.54</ele>
        <time>2021-08-18T06:36:05Z</time>
      </trkpt>
      <trkpt lat="43.94694" lon="1.68991">
        <ele>239.51</ele>
        <time>2021-08-18T06:36:13Z</time>
      </trkpt>
      <trkpt lat="43.94683" lon="1.68981">
        <ele>240.95</ele>
        <time>2021-08-18T06:36:21Z</time>
      </trkpt>
      <trkpt lat="43.94676" lon="1.68975">
        <ele>241.43</ele>
        <time>2021-08-18T06:36:27Z</time>
      </trkpt>
      <trkpt lat="43.94674" lon="1.68973">
        <ele>241.43</ele>
        <time>2021-08-18T06:36:28Z</time>
      </trkpt>
      <trkpt lat="43.94673" lon="1.68972">
        <ele>241.91</ele>
        <time>2021-08-18T06:36:29Z</time>
      </trkpt>
      <trkpt lat="43.94664" lon="1.68964">
        <ele>242.87</ele>
        <time>2021-08-18T06:36:37Z</time>
      </trkpt>
      <trkpt lat="43.94657" lon="1.68958">
        <ele>243.83</ele>
        <time>2021-08-18T06:36:44Z</time>
      </trkpt>
      <trkpt lat="43.94647" lon="1.68949">
        <ele>244.79</ele>
        <time>2021-08-18T06:36:51Z</time>
      </trkpt>
      <trkpt lat="43.94635" lon="1.6894">
        <ele>246.23</ele>
        <time>2021-08-18T06:37:00Z</time>
      </trkpt>
      <trkpt lat="43.9463" lon="1.68936">
        <ele>246.72</ele>
        <time>2021-08-18T06:37:04Z</time>
      </trkpt>
      <trkpt lat="43.94623" lon="1.68929">
        <ele>247.2</ele>
        <time>2021-08-18T06:37:11Z</time>
      </trkpt>
      <trkpt lat="43.94616" lon="1.68923">
        <ele>248.64</ele>
        <time>2021-08-18T06:37:18Z</time>
      </trkpt>
      <trkpt lat="43.94611" lon="1.68921">
        <ele>249.12</ele>
        <time>2021-08-18T06:37:22Z</time>
      </trkpt>
      <trkpt lat="43.94609" lon="1.6892">
        <ele>249.12</ele>
        <time>2021-08-18T06:37:23Z</time>
      </trkpt>
      <trkpt lat="43.94608" lon="1.68919">
        <ele>249.6</ele>
        <time>2021-08-18T06:37:24Z</time>
      </trkpt>
      <trkpt lat="43.94597" lon="1.68912">
        <ele>250.56</ele>
        <time>2021-08-18T06:37:31Z</time>
      </trkpt>
      <trkpt lat="43.94588" lon="1.68901">
        <ele>251.04</ele>
        <time>2021-08-18T06:37:38Z</time>
      </trkpt>
      <trkpt lat="43.94573" lon="1.68889">
        <ele>252</ele>
        <time>2021-08-18T06:37:46Z</time>
      </trkpt>
      <trkpt lat="43.9456" lon="1.68877">
        <ele>253.44</ele>
        <time>2021-08-18T06:37:55Z</time>
      </trkpt>
      <trkpt lat="43.94554" lon="1.68875">
        <ele>253.44</ele>
        <time>2021-08-18T06:37:58Z</time>
      </trkpt>
      <trkpt lat="43.94552" lon="1.68874">
        <ele>253.44</ele>
        <time>2021-08-18T06:37:59Z</time>
      </trkpt>
      <trkpt lat="43.9455" lon="1.68872">
        <ele>253.44</ele>
        <time>2021-08-18T06:38:00Z</time>
      </trkpt>
      <trkpt lat="43.94548" lon="1.68871">
        <ele>253.93</ele>
        <time>2021-08-18T06:38:01Z</time>
      </trkpt>
      <trkpt lat="43.94546" lon="1.6887">
        <ele>254.41</ele>
        <time>2021-08-18T06:38:02Z</time>
      </trkpt>
      <trkpt lat="43.94533" lon="1.68858">
        <ele>254.89</ele>
        <time>2021-08-18T06:38:09Z</time>
      </trkpt>
      <trkpt lat="43.94517" lon="1.68843">
        <ele>254.89</ele>
        <time>2021-08-18T06:38:16Z</time>
      </trkpt>
      <trkpt lat="43.945" lon="1.68814">
        <ele>253.93</ele>
        <time>2021-08-18T06:38:23Z</time>
      </trkpt>
      <trkpt lat="43.94498" lon="1.6881">
        <ele>253.93</ele>
        <time>2021-08-18T06:38:24Z</time>
      </trkpt>
      <trkpt lat="43.94492" lon="1.68801">
        <ele>252.96</ele>
        <time>2021-08-18T06:38:26Z</time>
      </trkpt>
      <trkpt lat="43.94488" lon="1.68798">
        <ele>252.48</ele>
        <time>2021-08-18T06:38:27Z</time>
      </trkpt>
      <trkpt lat="43.94484" lon="1.68795">
        <ele>252.48</ele>
        <time>2021-08-18T06:38:28Z</time>
      </trkpt>
      <trkpt lat="43.94479" lon="1.68793">
        <ele>252.48</ele>
        <time>2021-08-18T06:38:29Z</time>
      </trkpt>
      <trkpt lat="43.94474" lon="1.68791">
        <ele>252</ele>
        <time>2021-08-18T06:38:30Z</time>
      </trkpt>
      <trkpt lat="43.94469" lon="1.6879">
        <ele>252</ele>
        <time>2021-08-18T06:38:31Z</time>
      </trkpt>
      <trkpt lat="43.94463" lon="1.6879">
        <ele>252</ele>
        <time>2021-08-18T06:38:32Z</time>
      </trkpt>
      <trkpt lat="43.94426" lon="1.68786">
        <ele>251.04</ele>
        <time>2021-08-18T06:38:39Z</time>
      </trkpt>
      <trkpt lat="43.94367" lon="1.6878">
        <ele>250.08</ele>
        <time>2021-08-18T06:38:49Z</time>
      </trkpt>
      <trkpt lat="43.94316" lon="1.6877">
        <ele>250.08</ele>
        <time>2021-08-18T06:38:58Z</time>
      </trkpt>
      <trkpt lat="43.94275" lon="1.68763">
        <ele>252.48</ele>
        <time>2021-08-18T06:39:07Z</time>
      </trkpt>
      <trkpt lat="43.9424" lon="1.68755">
        <ele>254.41</ele>
        <time>2021-08-18T06:39:16Z</time>
      </trkpt>
      <trkpt lat="43.94209" lon="1.6875">
        <ele>256.33</ele>
        <time>2021-08-18T06:39:24Z</time>
      </trkpt>
      <trkpt lat="43.94174" lon="1.68742">
        <ele>256.81</ele>
        <time>2021-08-18T06:39:34Z</time>
      </trkpt>
      <trkpt lat="43.9417" lon="1.68741">
        <ele>256.81</ele>
        <time>2021-08-18T06:39:35Z</time>
      </trkpt>
      <trkpt lat="43.94147" lon="1.68737">
        <ele>253.44</ele>
        <time>2021-08-18T06:39:39Z</time>
      </trkpt>
      <trkpt lat="43.94113" lon="1.68728">
        <ele>249.6</ele>
        <time>2021-08-18T06:39:44Z</time>
      </trkpt>
      <trkpt lat="43.94106" lon="1.68723">
        <ele>248.16</ele>
        <time>2021-08-18T06:39:45Z</time>
      </trkpt>
      <trkpt lat="43.9409" lon="1.68714">
        <ele>246.72</ele>
        <time>2021-08-18T06:39:47Z</time>
      </trkpt>
      <trkpt lat="43.94083" lon="1.68712">
        <ele>246.72</ele>
        <time>2021-08-18T06:39:48Z</time>
      </trkpt>
      <trkpt lat="43.94075" lon="1.6871">
        <ele>246.23</ele>
        <time>2021-08-18T06:39:49Z</time>
      </trkpt>
      <trkpt lat="43.94039" lon="1.68705">
        <ele>242.39</ele>
        <time>2021-08-18T06:39:53Z</time>
      </trkpt>
      <trkpt lat="43.93989" lon="1.68698">
        <ele>239.02</ele>
        <time>2021-08-18T06:39:58Z</time>
      </trkpt>
      <trkpt lat="43.93979" lon="1.68697">
        <ele>238.54</ele>
        <time>2021-08-18T06:39:59Z</time>
      </trkpt>
      <trkpt lat="43.93958" lon="1.68696">
        <ele>238.06</ele>
        <time>2021-08-18T06:40:01Z</time>
      </trkpt>
      <trkpt lat="43.93949" lon="1.68698">
        <ele>237.58</ele>
        <time>2021-08-18T06:40:02Z</time>
      </trkpt>
      <trkpt lat="43.9394" lon="1.68701">
        <ele>237.1</ele>
        <time>2021-08-18T06:40:03Z</time>
      </trkpt>
      <trkpt lat="43.93931" lon="1.68705">
        <ele>236.62</ele>
        <time>2021-08-18T06:40:04Z</time>
      </trkpt>
      <trkpt lat="43.93922" lon="1.6871">
        <ele>236.62</ele>
        <time>2021-08-18T06:40:05Z</time>
      </trkpt>
      <trkpt lat="43.93913" lon="1.68714">
        <ele>235.18</ele>
        <time>2021-08-18T06:40:06Z</time>
      </trkpt>
      <trkpt lat="43.93903" lon="1.68717">
        <ele>233.74</ele>
        <time>2021-08-18T06:40:07Z</time>
      </trkpt>
      <trkpt lat="43.93871" lon="1.68721">
        <ele>229.89</ele>
        <time>2021-08-18T06:40:10Z</time>
      </trkpt>
      <trkpt lat="43.93836" lon="1.68726">
        <ele>226.53</ele>
        <time>2021-08-18T06:40:13Z</time>
      </trkpt>
      <trkpt lat="43.9378" lon="1.68741">
        <ele>224.12</ele>
        <time>2021-08-18T06:40:18Z</time>
      </trkpt>
      <trkpt lat="43.93706" lon="1.68787">
        <ele>222.68</ele>
        <time>2021-08-18T06:40:26Z</time>
      </trkpt>
      <trkpt lat="43.93644" lon="1.68816">
        <ele>221.72</ele>
        <time>2021-08-18T06:40:33Z</time>
      </trkpt>
      <trkpt lat="43.93607" lon="1.68824">
        <ele>219.32</ele>
        <time>2021-08-18T06:40:37Z</time>
      </trkpt>
      <trkpt lat="43.93597" lon="1.68823">
        <ele>219.32</ele>
        <time>2021-08-18T06:40:38Z</time>
      </trkpt>
      <trkpt lat="43.93587" lon="1.68822">
        <ele>218.36</ele>
        <time>2021-08-18T06:40:39Z</time>
      </trkpt>
      <trkpt lat="43.9355" lon="1.68818">
        <ele>217.88</ele>
        <time>2021-08-18T06:40:43Z</time>
      </trkpt>
      <trkpt lat="43.93541" lon="1.6882">
        <ele>217.4</ele>
        <time>2021-08-18T06:40:44Z</time>
      </trkpt>
      <trkpt lat="43.93531" lon="1.68822">
        <ele>217.4</ele>
        <time>2021-08-18T06:40:45Z</time>
      </trkpt>
      <trkpt lat="43.93476" lon="1.68842">
        <ele>213.55</ele>
        <time>2021-08-18T06:40:51Z</time>
      </trkpt>
      <trkpt lat="43.93442" lon="1.68851">
        <ele>210.19</ele>
        <time>2021-08-18T06:40:54Z</time>
      </trkpt>
      <trkpt lat="43.93405" lon="1.68858">
        <ele>206.34</ele>
        <time>2021-08-18T06:40:57Z</time>
      </trkpt>
      <trkpt lat="43.93368" lon="1.68865">
        <ele>202.49</ele>
        <time>2021-08-18T06:41:00Z</time>
      </trkpt>
      <trkpt lat="43.93318" lon="1.68878">
        <ele>200.57</ele>
        <time>2021-08-18T06:41:05Z</time>
      </trkpt>
      <trkpt lat="43.93316" lon="1.68876">
        <ele>200.57</ele>
        <time>2021-08-18T06:41:06Z</time>
      </trkpt>
      <trkpt lat="43.93315" lon="1.68872">
        <ele>200.57</ele>
        <time>2021-08-18T06:41:07Z</time>
      </trkpt>
      <trkpt lat="43.93314" lon="1.68866">
        <ele>199.61</ele>
        <time>2021-08-18T06:41:08Z</time>
      </trkpt>
      <trkpt lat="43.93313" lon="1.6886">
        <ele>199.13</ele>
        <time>2021-08-18T06:41:09Z</time>
      </trkpt>
      <trkpt lat="43.9331" lon="1.68854">
        <ele>198.17</ele>
        <time>2021-08-18T06:41:10Z</time>
      </trkpt>
      <trkpt lat="43.93308" lon="1.68846">
        <ele>197.21</ele>
        <time>2021-08-18T06:41:11Z</time>
      </trkpt>
      <trkpt lat="43.93302" lon="1.68828">
        <ele>195.77</ele>
        <time>2021-08-18T06:41:13Z</time>
      </trkpt>
      <trkpt lat="43.93299" lon="1.6882">
        <ele>195.28</ele>
        <time>2021-08-18T06:41:14Z</time>
      </trkpt>
      <trkpt lat="43.93294" lon="1.68812">
        <ele>194.32</ele>
        <time>2021-08-18T06:41:15Z</time>
      </trkpt>
      <trkpt lat="43.93288" lon="1.68804">
        <ele>193.36</ele>
        <time>2021-08-18T06:41:16Z</time>
      </trkpt>
      <trkpt lat="43.93281" lon="1.68797">
        <ele>192.88</ele>
        <time>2021-08-18T06:41:17Z</time>
      </trkpt>
      <trkpt lat="43.93274" lon="1.68793">
        <ele>191.92</ele>
        <time>2021-08-18T06:41:18Z</time>
      </trkpt>
      <trkpt lat="43.9327" lon="1.68789">
        <ele>191.44</ele>
        <time>2021-08-18T06:41:19Z</time>
      </trkpt>
      <trkpt lat="43.93265" lon="1.68787">
        <ele>190.96</ele>
        <time>2021-08-18T06:41:22Z</time>
      </trkpt>
      <trkpt lat="43.93266" lon="1.68788">
        <ele>191.44</ele>
        <time>2021-08-18T06:41:30Z</time>
      </trkpt>
      <trkpt lat="43.93263" lon="1.68788">
        <ele>191.44</ele>
        <time>2021-08-18T06:41:36Z</time>
      </trkpt>
      <trkpt lat="43.93261" lon="1.68788">
        <ele>191.44</ele>
        <time>2021-08-18T06:41:37Z</time>
      </trkpt>
      <trkpt lat="43.93259" lon="1.68786">
        <ele>190.96</ele>
        <time>2021-08-18T06:41:38Z</time>
      </trkpt>
      <trkpt lat="43.93231" lon="1.68769">
        <ele>187.59</ele>
        <time>2021-08-18T06:41:44Z</time>
      </trkpt>
      <trkpt lat="43.93213" lon="1.68759">
        <ele>186.15</ele>
        <time>2021-08-18T06:41:47Z</time>
      </trkpt>
      <trkpt lat="43.93192" lon="1.68745">
        <ele>182.79</ele>
        <time>2021-08-18T06:41:51Z</time>
      </trkpt>
      <trkpt lat="43.93164" lon="1.68728">
        <ele>178.94</ele>
        <time>2021-08-18T06:41:55Z</time>
      </trkpt>
      <trkpt lat="43.93136" lon="1.68712">
        <ele>175.58</ele>
        <time>2021-08-18T06:41:59Z</time>
      </trkpt>
      <trkpt lat="43.93109" lon="1.68696">
        <ele>173.66</ele>
        <time>2021-08-18T06:42:03Z</time>
      </trkpt>
      <trkpt lat="43.93074" lon="1.68677">
        <ele>171.73</ele>
        <time>2021-08-18T06:42:08Z</time>
      </trkpt>
      <trkpt lat="43.93068" lon="1.68672">
        <ele>171.73</ele>
        <time>2021-08-18T06:42:09Z</time>
      </trkpt>
      <trkpt lat="43.93062" lon="1.68666">
        <ele>171.73</ele>
        <time>2021-08-18T06:42:10Z</time>
      </trkpt>
      <trkpt lat="43.93057" lon="1.68659">
        <ele>171.73</ele>
        <time>2021-08-18T06:42:11Z</time>
      </trkpt>
      <trkpt lat="43.93053" lon="1.68653">
        <ele>171.73</ele>
        <time>2021-08-18T06:42:12Z</time>
      </trkpt>
      <trkpt lat="43.93049" lon="1.68645">
        <ele>171.73</ele>
        <time>2021-08-18T06:42:13Z</time>
      </trkpt>
      <trkpt lat="43.93046" lon="1.68638">
        <ele>171.73</ele>
        <time>2021-08-18T06:42:14Z</time>
      </trkpt>
      <trkpt lat="43.93042" lon="1.68631">
        <ele>171.73</ele>
        <time>2021-08-18T06:42:15Z</time>
      </trkpt>
      <trkpt lat="43.93039" lon="1.68625">
        <ele>171.73</ele>
        <time>2021-08-18T06:42:16Z</time>
      </trkpt>
      <trkpt lat="43.93035" lon="1.68618">
        <ele>171.73</ele>
        <time>2021-08-18T06:42:17Z</time>
      </trkpt>
      <trkpt lat="43.93011" lon="1.68578">
        <ele>171.73</ele>
        <time>2021-08-18T06:42:24Z</time>
      </trkpt>
      <trkpt lat="43.93005" lon="1.6857">
        <ele>171.73</ele>
        <time>2021-08-18T06:42:26Z</time>
      </trkpt>
      <trkpt lat="43.93001" lon="1.68567">
        <ele>171.73</ele>
        <time>2021-08-18T06:42:27Z</time>
      </trkpt>
      <trkpt lat="43.92979" lon="1.6855">
        <ele>171.73</ele>
        <time>2021-08-18T06:42:34Z</time>
      </trkpt>
      <trkpt lat="43.92958" lon="1.68541">
        <ele>171.73</ele>
        <time>2021-08-18T06:42:40Z</time>
      </trkpt>
      <trkpt lat="43.92945" lon="1.68539">
        <ele>171.25</ele>
        <time>2021-08-18T06:42:43Z</time>
      </trkpt>
      <trkpt lat="43.9294" lon="1.68539">
        <ele>171.25</ele>
        <time>2021-08-18T06:42:44Z</time>
      </trkpt>
      <trkpt lat="43.92935" lon="1.6854">
        <ele>171.25</ele>
        <time>2021-08-18T06:42:45Z</time>
      </trkpt>
      <trkpt lat="43.92894" lon="1.68556">
        <ele>170.77</ele>
        <time>2021-08-18T06:42:54Z</time>
      </trkpt>
      <trkpt lat="43.92874" lon="1.68561">
        <ele>170.77</ele>
        <time>2021-08-18T06:42:58Z</time>
      </trkpt>
      <trkpt lat="43.92865" lon="1.6856">
        <ele>170.77</ele>
        <time>2021-08-18T06:43:00Z</time>
      </trkpt>
      <trkpt lat="43.9286" lon="1.6856">
        <ele>170.77</ele>
        <time>2021-08-18T06:43:01Z</time>
      </trkpt>
      <trkpt lat="43.92836" lon="1.68551">
        <ele>172.21</ele>
        <time>2021-08-18T06:43:07Z</time>
      </trkpt>
      <trkpt lat="43.92799" lon="1.68535">
        <ele>170.77</ele>
        <time>2021-08-18T06:43:15Z</time>
      </trkpt>
      <trkpt lat="43.92795" lon="1.68532">
        <ele>170.77</ele>
        <time>2021-08-18T06:43:16Z</time>
      </trkpt>
      <trkpt lat="43.92754" lon="1.68509">
        <ele>169.33</ele>
        <time>2021-08-18T06:43:24Z</time>
      </trkpt>
      <trkpt lat="43.92718" lon="1.68502">
        <ele>168.85</ele>
        <time>2021-08-18T06:43:31Z</time>
      </trkpt>
      <trkpt lat="43.92661" lon="1.6848">
        <ele>167.89</ele>
        <time>2021-08-18T06:43:42Z</time>
      </trkpt>
      <trkpt lat="43.92636" lon="1.68467">
        <ele>167.41</ele>
        <time>2021-08-18T06:43:47Z</time>
      </trkpt>
      <trkpt lat="43.92632" lon="1.68463">
        <ele>167.41</ele>
        <time>2021-08-18T06:43:48Z</time>
      </trkpt>
      <trkpt lat="43.92629" lon="1.68458">
        <ele>167.41</ele>
        <time>2021-08-18T06:43:49Z</time>
      </trkpt>
      <trkpt lat="43.92626" lon="1.68452">
        <ele>167.41</ele>
        <time>2021-08-18T06:43:50Z</time>
      </trkpt>
      <trkpt lat="43.92624" lon="1.68447">
        <ele>167.41</ele>
        <time>2021-08-18T06:43:51Z</time>
      </trkpt>
      <trkpt lat="43.92596" lon="1.68387">
        <ele>166.93</ele>
        <time>2021-08-18T06:44:01Z</time>
      </trkpt>
      <trkpt lat="43.92566" lon="1.68345">
        <ele>166.93</ele>
        <time>2021-08-18T06:44:10Z</time>
      </trkpt>
      <trkpt lat="43.92555" lon="1.68334">
        <ele>166.93</ele>
        <time>2021-08-18T06:44:13Z</time>
      </trkpt>
      <trkpt lat="43.92551" lon="1.68332">
        <ele>166.93</ele>
        <time>2021-08-18T06:44:14Z</time>
      </trkpt>
      <trkpt lat="43.92546" lon="1.6833">
        <ele>166.93</ele>
        <time>2021-08-18T06:44:15Z</time>
      </trkpt>
      <trkpt lat="43.92505" lon="1.68323">
        <ele>166.45</ele>
        <time>2021-08-18T06:44:23Z</time>
      </trkpt>
      <trkpt lat="43.92471" lon="1.68313">
        <ele>166.45</ele>
        <time>2021-08-18T06:44:29Z</time>
      </trkpt>
      <trkpt lat="43.92466" lon="1.68309">
        <ele>166.45</ele>
        <time>2021-08-18T06:44:30Z</time>
      </trkpt>
      <trkpt lat="43.92461" lon="1.68305">
        <ele>166.45</ele>
        <time>2021-08-18T06:44:31Z</time>
      </trkpt>
      <trkpt lat="43.92421" lon="1.68264">
        <ele>166.45</ele>
        <time>2021-08-18T06:44:40Z</time>
      </trkpt>
      <trkpt lat="43.92412" lon="1.68258">
        <ele>166.45</ele>
        <time>2021-08-18T06:44:42Z</time>
      </trkpt>
      <trkpt lat="43.92394" lon="1.68248">
        <ele>167.89</ele>
        <time>2021-08-18T06:44:46Z</time>
      </trkpt>
      <trkpt lat="43.92372" lon="1.68238">
        <ele>169.81</ele>
        <time>2021-08-18T06:44:53Z</time>
      </trkpt>
      <trkpt lat="43.9235" lon="1.68226">
        <ele>170.77</ele>
        <time>2021-08-18T06:45:00Z</time>
      </trkpt>
      <trkpt lat="43.92319" lon="1.68217">
        <ele>168.85</ele>
        <time>2021-08-18T06:45:06Z</time>
      </trkpt>
      <trkpt lat="43.92265" lon="1.6821">
        <ele>167.41</ele>
        <time>2021-08-18T06:45:14Z</time>
      </trkpt>
      <trkpt lat="43.9224" lon="1.68211">
        <ele>169.33</ele>
        <time>2021-08-18T06:45:19Z</time>
      </trkpt>
      <trkpt lat="43.92222" lon="1.68211">
        <ele>171.73</ele>
        <time>2021-08-18T06:45:26Z</time>
      </trkpt>
      <trkpt lat="43.92197" lon="1.68204">
        <ele>172.69</ele>
        <time>2021-08-18T06:45:36Z</time>
      </trkpt>
      <trkpt lat="43.92167" lon="1.68188">
        <ele>173.17</ele>
        <time>2021-08-18T06:45:45Z</time>
      </trkpt>
      <trkpt lat="43.9215" lon="1.68176">
        <ele>173.17</ele>
        <time>2021-08-18T06:45:50Z</time>
      </trkpt>
      <trkpt lat="43.92123" lon="1.68158">
        <ele>174.14</ele>
        <time>2021-08-18T06:45:58Z</time>
      </trkpt>
      <trkpt lat="43.92098" lon="1.68139">
        <ele>175.1</ele>
        <time>2021-08-18T06:46:06Z</time>
      </trkpt>
      <trkpt lat="43.92072" lon="1.68118">
        <ele>176.06</ele>
        <time>2021-08-18T06:46:14Z</time>
      </trkpt>
      <trkpt lat="43.92037" lon="1.681">
        <ele>176.06</ele>
        <time>2021-08-18T06:46:23Z</time>
      </trkpt>
      <trkpt lat="43.92009" lon="1.68083">
        <ele>174.62</ele>
        <time>2021-08-18T06:46:29Z</time>
      </trkpt>
      <trkpt lat="43.91977" lon="1.68061">
        <ele>171.73</ele>
        <time>2021-08-18T06:46:35Z</time>
      </trkpt>
      <trkpt lat="43.91945" lon="1.68046">
        <ele>167.89</ele>
        <time>2021-08-18T06:46:39Z</time>
      </trkpt>
      <trkpt lat="43.91915" lon="1.68032">
        <ele>165</ele>
        <time>2021-08-18T06:46:42Z</time>
      </trkpt>
      <trkpt lat="43.91885" lon="1.68018">
        <ele>161.64</ele>
        <time>2021-08-18T06:46:45Z</time>
      </trkpt>
      <trkpt lat="43.91832" lon="1.67994">
        <ele>158.75</ele>
        <time>2021-08-18T06:46:51Z</time>
      </trkpt>
      <trkpt lat="43.91811" lon="1.67985">
        <ele>158.27</ele>
        <time>2021-08-18T06:46:55Z</time>
      </trkpt>
      <trkpt lat="43.91807" lon="1.67988">
        <ele>158.27</ele>
        <time>2021-08-18T06:46:56Z</time>
      </trkpt>
      <trkpt lat="43.91805" lon="1.67993">
        <ele>158.27</ele>
        <time>2021-08-18T06:46:57Z</time>
      </trkpt>
      <trkpt lat="43.91804" lon="1.67998">
        <ele>158.27</ele>
        <time>2021-08-18T06:46:58Z</time>
      </trkpt>
      <trkpt lat="43.91803" lon="1.68003">
        <ele>158.27</ele>
        <time>2021-08-18T06:46:59Z</time>
      </trkpt>
      <trkpt lat="43.91802" lon="1.68056">
        <ele>158.75</ele>
        <time>2021-08-18T06:47:07Z</time>
      </trkpt>
      <trkpt lat="43.91811" lon="1.68131">
        <ele>160.2</ele>
        <time>2021-08-18T06:47:18Z</time>
      </trkpt>
      <trkpt lat="43.91812" lon="1.68191">
        <ele>160.68</ele>
        <time>2021-08-18T06:47:27Z</time>
      </trkpt>
      <trkpt lat="43.91812" lon="1.68266">
        <ele>160.68</ele>
        <time>2021-08-18T06:47:37Z</time>
      </trkpt>
      <trkpt lat="43.91812" lon="1.68335">
        <ele>159.72</ele>
        <time>2021-08-18T06:47:46Z</time>
      </trkpt>
      <trkpt lat="43.91808" lon="1.68392">
        <ele>159.72</ele>
        <time>2021-08-18T06:47:55Z</time>
      </trkpt>
      <trkpt lat="43.91803" lon="1.68433">
        <ele>160.68</ele>
        <time>2021-08-18T06:48:03Z</time>
      </trkpt>
      <trkpt lat="43.91802" lon="1.68484">
        <ele>160.68</ele>
        <time>2021-08-18T06:48:11Z</time>
      </trkpt>
      <trkpt lat="43.91804" lon="1.68514">
        <ele>159.24</ele>
        <time>2021-08-18T06:48:15Z</time>
      </trkpt>
      <trkpt lat="43.91804" lon="1.68522">
        <ele>159.24</ele>
        <time>2021-08-18T06:48:16Z</time>
      </trkpt>
      <trkpt lat="43.91805" lon="1.68549">
        <ele>159.24</ele>
        <time>2021-08-18T06:48:20Z</time>
      </trkpt>
      <trkpt lat="43.91805" lon="1.68556">
        <ele>159.24</ele>
        <time>2021-08-18T06:48:21Z</time>
      </trkpt>
      <trkpt lat="43.91807" lon="1.68638">
        <ele>159.24</ele>
        <time>2021-08-18T06:48:32Z</time>
      </trkpt>
      <trkpt lat="43.91804" lon="1.68732">
        <ele>159.24</ele>
        <time>2021-08-18T06:48:44Z</time>
      </trkpt>
      <trkpt lat="43.91796" lon="1.68802">
        <ele>159.24</ele>
        <time>2021-08-18T06:48:53Z</time>
      </trkpt>
      <trkpt lat="43.91781" lon="1.68873">
        <ele>159.24</ele>
        <time>2021-08-18T06:49:02Z</time>
      </trkpt>
      <trkpt lat="43.91776" lon="1.68938">
        <ele>159.24</ele>
        <time>2021-08-18T06:49:10Z</time>
      </trkpt>
      <trkpt lat="43.91774" lon="1.69012">
        <ele>159.24</ele>
        <time>2021-08-18T06:49:19Z</time>
      </trkpt>
      <trkpt lat="43.9177" lon="1.69043">
        <ele>160.68</ele>
        <time>2021-08-18T06:49:23Z</time>
      </trkpt>
      <trkpt lat="43.91772" lon="1.69115">
        <ele>161.16</ele>
        <time>2021-08-18T06:49:32Z</time>
      </trkpt>
      <trkpt lat="43.91782" lon="1.69234">
        <ele>161.16</ele>
        <time>2021-08-18T06:49:46Z</time>
      </trkpt>
      <trkpt lat="43.91782" lon="1.69266">
        <ele>161.16</ele>
        <time>2021-08-18T06:49:50Z</time>
      </trkpt>
      <trkpt lat="43.91768" lon="1.69343">
        <ele>161.16</ele>
        <time>2021-08-18T06:50:00Z</time>
      </trkpt>
      <trkpt lat="43.91766" lon="1.69356">
        <ele>161.64</ele>
        <time>2021-08-18T06:50:02Z</time>
      </trkpt>
      <trkpt lat="43.91763" lon="1.69369">
        <ele>161.64</ele>
        <time>2021-08-18T06:50:04Z</time>
      </trkpt>
      <trkpt lat="43.91761" lon="1.69379">
        <ele>162.12</ele>
        <time>2021-08-18T06:50:06Z</time>
      </trkpt>
      <trkpt lat="43.91759" lon="1.69382">
        <ele>162.12</ele>
        <time>2021-08-18T06:50:07Z</time>
      </trkpt>
      <trkpt lat="43.91755" lon="1.69383">
        <ele>162.12</ele>
        <time>2021-08-18T06:50:08Z</time>
      </trkpt>
      <trkpt lat="43.91752" lon="1.69381">
        <ele>162.12</ele>
        <time>2021-08-18T06:50:09Z</time>
      </trkpt>
      <trkpt lat="43.91749" lon="1.69379">
        <ele>162.12</ele>
        <time>2021-08-18T06:50:10Z</time>
      </trkpt>
      <trkpt lat="43.91746" lon="1.69376">
        <ele>162.12</ele>
        <time>2021-08-18T06:50:11Z</time>
      </trkpt>
      <trkpt lat="43.91742" lon="1.69372">
        <ele>162.12</ele>
        <time>2021-08-18T06:50:12Z</time>
      </trkpt>
      <trkpt lat="43.91719" lon="1.69339">
        <ele>162.12</ele>
        <time>2021-08-18T06:50:19Z</time>
      </trkpt>
      <trkpt lat="43.91715" lon="1.69335">
        <ele>162.12</ele>
        <time>2021-08-18T06:50:20Z</time>
      </trkpt>
      <trkpt lat="43.91711" lon="1.69332">
        <ele>162.12</ele>
        <time>2021-08-18T06:50:21Z</time>
      </trkpt>
      <trkpt lat="43.91706" lon="1.69329">
        <ele>162.12</ele>
        <time>2021-08-18T06:50:22Z</time>
      </trkpt>
      <trkpt lat="43.91702" lon="1.69326">
        <ele>162.12</ele>
        <time>2021-08-18T06:50:23Z</time>
      </trkpt>
      <trkpt lat="43.91683" lon="1.69319">
        <ele>162.12</ele>
        <time>2021-08-18T06:50:27Z</time>
      </trkpt>
      <trkpt lat="43.91673" lon="1.69315">
        <ele>162.12</ele>
        <time>2021-08-18T06:50:29Z</time>
      </trkpt>
      <trkpt lat="43.91662" lon="1.6931">
        <ele>162.12</ele>
        <time>2021-08-18T06:50:31Z</time>
      </trkpt>
      <trkpt lat="43.91647" lon="1.69298">
        <ele>161.16</ele>
        <time>2021-08-18T06:50:34Z</time>
      </trkpt>
      <trkpt lat="43.91601" lon="1.69265">
        <ele>160.68</ele>
        <time>2021-08-18T06:50:43Z</time>
      </trkpt>
      <trkpt lat="43.91596" lon="1.69263">
        <ele>160.68</ele>
        <time>2021-08-18T06:50:44Z</time>
      </trkpt>
      <trkpt lat="43.9159" lon="1.69262">
        <ele>161.64</ele>
        <time>2021-08-18T06:50:45Z</time>
      </trkpt>
      <trkpt lat="43.91551" lon="1.69257">
        <ele>162.12</ele>
        <time>2021-08-18T06:50:53Z</time>
      </trkpt>
      <trkpt lat="43.91516" lon="1.69255">
        <ele>163.08</ele>
        <time>2021-08-18T06:51:01Z</time>
      </trkpt>
      <trkpt lat="43.91486" lon="1.69252">
        <ele>164.52</ele>
        <time>2021-08-18T06:51:10Z</time>
      </trkpt>
      <trkpt lat="43.91462" lon="1.69251">
        <ele>165.96</ele>
        <time>2021-08-18T06:51:19Z</time>
      </trkpt>
      <trkpt lat="43.91445" lon="1.69248">
        <ele>167.41</ele>
        <time>2021-08-18T06:51:26Z</time>
      </trkpt>
      <trkpt lat="43.91428" lon="1.69246">
        <ele>167.89</ele>
        <time>2021-08-18T06:51:33Z</time>
      </trkpt>
      <trkpt lat="43.91404" lon="1.69246">
        <ele>167.89</ele>
        <time>2021-08-18T06:51:40Z</time>
      </trkpt>
      <trkpt lat="43.91373" lon="1.69242">
        <ele>168.37</ele>
        <time>2021-08-18T06:51:49Z</time>
      </trkpt>
      <trkpt lat="43.91351" lon="1.69236">
        <ele>169.81</ele>
        <time>2021-08-18T06:51:57Z</time>
      </trkpt>
      <trkpt lat="43.91328" lon="1.69232">
        <ele>171.25</ele>
        <time>2021-08-18T06:52:06Z</time>
      </trkpt>
      <trkpt lat="43.91304" lon="1.69226">
        <ele>172.69</ele>
        <time>2021-08-18T06:52:15Z</time>
      </trkpt>
      <trkpt lat="43.91277" lon="1.69221">
        <ele>174.14</ele>
        <time>2021-08-18T06:52:25Z</time>
      </trkpt>
      <trkpt lat="43.91258" lon="1.69216">
        <ele>175.58</ele>
        <time>2021-08-18T06:52:33Z</time>
      </trkpt>
      <trkpt lat="43.91238" lon="1.6921">
        <ele>176.54</ele>
        <time>2021-08-18T06:52:41Z</time>
      </trkpt>
      <trkpt lat="43.91214" lon="1.69195">
        <ele>177.98</ele>
        <time>2021-08-18T06:52:51Z</time>
      </trkpt>
      <trkpt lat="43.91195" lon="1.69178">
        <ele>178.94</ele>
        <time>2021-08-18T06:53:00Z</time>
      </trkpt>
      <trkpt lat="43.91172" lon="1.69155">
        <ele>179.9</ele>
        <time>2021-08-18T06:53:11Z</time>
      </trkpt>
      <trkpt lat="43.9115" lon="1.69136">
        <ele>181.35</ele>
        <time>2021-08-18T06:53:21Z</time>
      </trkpt>
      <trkpt lat="43.91125" lon="1.69111">
        <ele>183.75</ele>
        <time>2021-08-18T06:53:33Z</time>
      </trkpt>
      <trkpt lat="43.91107" lon="1.69098">
        <ele>185.19</ele>
        <time>2021-08-18T06:53:42Z</time>
      </trkpt>
      <trkpt lat="43.91094" lon="1.6909">
        <ele>186.15</ele>
        <time>2021-08-18T06:53:49Z</time>
      </trkpt>
      <trkpt lat="43.91074" lon="1.69082">
        <ele>187.59</ele>
        <time>2021-08-18T06:53:58Z</time>
      </trkpt>
      <trkpt lat="43.91051" lon="1.69074">
        <ele>189.04</ele>
        <time>2021-08-18T06:54:07Z</time>
      </trkpt>
      <trkpt lat="43.91029" lon="1.69068">
        <ele>190</ele>
        <time>2021-08-18T06:54:16Z</time>
      </trkpt>
      <trkpt lat="43.90999" lon="1.69059">
        <ele>192.4</ele>
        <time>2021-08-18T06:54:28Z</time>
      </trkpt>
      <trkpt lat="43.9097" lon="1.69049">
        <ele>193.84</ele>
        <time>2021-08-18T06:54:38Z</time>
      </trkpt>
      <trkpt lat="43.90941" lon="1.69038">
        <ele>195.28</ele>
        <time>2021-08-18T06:54:48Z</time>
      </trkpt>
      <trkpt lat="43.90911" lon="1.69029">
        <ele>195.77</ele>
        <time>2021-08-18T06:54:58Z</time>
      </trkpt>
      <trkpt lat="43.90878" lon="1.69022">
        <ele>196.73</ele>
        <time>2021-08-18T06:55:08Z</time>
      </trkpt>
      <trkpt lat="43.90849" lon="1.69019">
        <ele>197.69</ele>
        <time>2021-08-18T06:55:17Z</time>
      </trkpt>
      <trkpt lat="43.90823" lon="1.69016">
        <ele>198.17</ele>
        <time>2021-08-18T06:55:25Z</time>
      </trkpt>
      <trkpt lat="43.90789" lon="1.69008">
        <ele>199.61</ele>
        <time>2021-08-18T06:55:36Z</time>
      </trkpt>
      <trkpt lat="43.90765" lon="1.69002">
        <ele>200.57</ele>
        <time>2021-08-18T06:55:44Z</time>
      </trkpt>
      <trkpt lat="43.90745" lon="1.68992">
        <ele>201.53</ele>
        <time>2021-08-18T06:55:52Z</time>
      </trkpt>
      <trkpt lat="43.90728" lon="1.68972">
        <ele>203.94</ele>
        <time>2021-08-18T06:56:02Z</time>
      </trkpt>
      <trkpt lat="43.90722" lon="1.68951">
        <ele>206.34</ele>
        <time>2021-08-18T06:56:10Z</time>
      </trkpt>
      <trkpt lat="43.90719" lon="1.68933">
        <ele>207.3</ele>
        <time>2021-08-18T06:56:18Z</time>
      </trkpt>
      <trkpt lat="43.90716" lon="1.68916">
        <ele>208.26</ele>
        <time>2021-08-18T06:56:25Z</time>
      </trkpt>
      <trkpt lat="43.90713" lon="1.68899">
        <ele>209.7</ele>
        <time>2021-08-18T06:56:32Z</time>
      </trkpt>
      <trkpt lat="43.90701" lon="1.68873">
        <ele>211.63</ele>
        <time>2021-08-18T06:56:44Z</time>
      </trkpt>
      <trkpt lat="43.90686" lon="1.68859">
        <ele>213.55</ele>
        <time>2021-08-18T06:56:54Z</time>
      </trkpt>
      <trkpt lat="43.90668" lon="1.68853">
        <ele>215.47</ele>
        <time>2021-08-18T06:57:04Z</time>
      </trkpt>
      <trkpt lat="43.90651" lon="1.68851">
        <ele>217.4</ele>
        <time>2021-08-18T06:57:13Z</time>
      </trkpt>
      <trkpt lat="43.90633" lon="1.6885">
        <ele>218.84</ele>
        <time>2021-08-18T06:57:23Z</time>
      </trkpt>
      <trkpt lat="43.90617" lon="1.68844">
        <ele>220.76</ele>
        <time>2021-08-18T06:57:32Z</time>
      </trkpt>
      <trkpt lat="43.90602" lon="1.68836">
        <ele>222.68</ele>
        <time>2021-08-18T06:57:41Z</time>
      </trkpt>
      <trkpt lat="43.90585" lon="1.68824">
        <ele>224.12</ele>
        <time>2021-08-18T06:57:51Z</time>
      </trkpt>
      <trkpt lat="43.90573" lon="1.68814">
        <ele>225.57</ele>
        <time>2021-08-18T06:57:59Z</time>
      </trkpt>
      <trkpt lat="43.90559" lon="1.68803">
        <ele>227.01</ele>
        <time>2021-08-18T06:58:07Z</time>
      </trkpt>
      <trkpt lat="43.90546" lon="1.68788">
        <ele>227.97</ele>
        <time>2021-08-18T06:58:15Z</time>
      </trkpt>
      <trkpt lat="43.90537" lon="1.68772">
        <ele>227.97</ele>
        <time>2021-08-18T06:58:20Z</time>
      </trkpt>
      <trkpt lat="43.90537" lon="1.68768">
        <ele>227.97</ele>
        <time>2021-08-18T06:58:21Z</time>
      </trkpt>
      <trkpt lat="43.90537" lon="1.68765">
        <ele>227.97</ele>
        <time>2021-08-18T06:58:22Z</time>
      </trkpt>
      <trkpt lat="43.90541" lon="1.68746">
        <ele>228.93</ele>
        <time>2021-08-18T06:58:28Z</time>
      </trkpt>
      <trkpt lat="43.90544" lon="1.68746">
        <ele>229.41</ele>
        <time>2021-08-18T06:58:29Z</time>
      </trkpt>
      <trkpt lat="43.90545" lon="1.68746">
        <ele>229.41</ele>
        <time>2021-08-18T06:58:30Z</time>
      </trkpt>
      <trkpt lat="43.90547" lon="1.68747">
        <ele>229.41</ele>
        <time>2021-08-18T06:58:31Z</time>
      </trkpt>
      <trkpt lat="43.90548" lon="1.68749">
        <ele>229.41</ele>
        <time>2021-08-18T06:58:32Z</time>
      </trkpt>
      <trkpt lat="43.90549" lon="1.6875">
        <ele>229.41</ele>
        <time>2021-08-18T06:58:33Z</time>
      </trkpt>
      <trkpt lat="43.9055" lon="1.68753">
        <ele>229.89</ele>
        <time>2021-08-18T06:58:34Z</time>
      </trkpt>
      <trkpt lat="43.90551" lon="1.68757">
        <ele>229.89</ele>
        <time>2021-08-18T06:58:35Z</time>
      </trkpt>
      <trkpt lat="43.90551" lon="1.6876">
        <ele>229.89</ele>
        <time>2021-08-18T06:58:36Z</time>
      </trkpt>
      <trkpt lat="43.90551" lon="1.68764">
        <ele>229.89</ele>
        <time>2021-08-18T06:58:37Z</time>
      </trkpt>
      <trkpt lat="43.90551" lon="1.68768">
        <ele>229.89</ele>
        <time>2021-08-18T06:58:38Z</time>
      </trkpt>
      <trkpt lat="43.90552" lon="1.68771">
        <ele>229.89</ele>
        <time>2021-08-18T06:58:39Z</time>
      </trkpt>
      <trkpt lat="43.90554" lon="1.68774">
        <ele>229.89</ele>
        <time>2021-08-18T06:58:40Z</time>
      </trkpt>
      <trkpt lat="43.90556" lon="1.68775">
        <ele>229.89</ele>
        <time>2021-08-18T06:58:41Z</time>
      </trkpt>
      <trkpt lat="43.90557" lon="1.68777">
        <ele>229.89</ele>
        <time>2021-08-18T06:58:42Z</time>
      </trkpt>
      <trkpt lat="43.90559" lon="1.68779">
        <ele>229.89</ele>
        <time>2021-08-18T06:58:47Z</time>
      </trkpt>
      <trkpt lat="43.90564" lon="1.68782">
        <ele>230.37</ele>
        <time>2021-08-18T06:58:53Z</time>
      </trkpt>
      <trkpt lat="43.90567" lon="1.68782">
        <ele>230.37</ele>
        <time>2021-08-18T06:58:56Z</time>
      </trkpt>
      <trkpt lat="43.90568" lon="1.68781">
        <ele>230.37</ele>
        <time>2021-08-18T06:58:58Z</time>
      </trkpt>
      <trkpt lat="43.90571" lon="1.68779">
        <ele>230.37</ele>
        <time>2021-08-18T06:59:03Z</time>
      </trkpt>
      <trkpt lat="43.90573" lon="1.68782">
        <ele>230.37</ele>
        <time>2021-08-18T06:59:06Z</time>
      </trkpt>
      <trkpt lat="43.90578" lon="1.68791">
        <ele>230.85</ele>
        <time>2021-08-18T06:59:14Z</time>
      </trkpt>
      <trkpt lat="43.90582" lon="1.68793">
        <ele>230.85</ele>
        <time>2021-08-18T06:59:23Z</time>
      </trkpt>
      <trkpt lat="43.90583" lon="1.6879">
        <ele>230.85</ele>
        <time>2021-08-18T06:59:36Z</time>
      </trkpt>
      <trkpt lat="43.90582" lon="1.68785">
        <ele>230.85</ele>
        <time>2021-08-18T06:59:52Z</time>
      </trkpt>
      <trkpt lat="43.90585" lon="1.6878">
        <ele>230.85</ele>
        <time>2021-08-18T07:00:06Z</time>
      </trkpt>
      <trkpt lat="43.90585" lon="1.68777">
        <ele>230.85</ele>
        <time>2021-08-18T07:00:18Z</time>
      </trkpt>
      <trkpt lat="43.90579" lon="1.68776">
        <ele>230.85</ele>
        <time>2021-08-18T07:00:30Z</time>
      </trkpt>
      <trkpt lat="43.90579" lon="1.68773">
        <ele>231.33</ele>
        <time>2021-08-18T07:00:50Z</time>
      </trkpt>
      <trkpt lat="43.90572" lon="1.68768">
        <ele>231.33</ele>
        <time>2021-08-18T07:01:03Z</time>
      </trkpt>
      <trkpt lat="43.90577" lon="1.6877">
        <ele>231.33</ele>
        <time>2021-08-18T07:01:17Z</time>
      </trkpt>
      <trkpt lat="43.90574" lon="1.68765">
        <ele>231.81</ele>
        <time>2021-08-18T07:01:27Z</time>
      </trkpt>
      <trkpt lat="43.90575" lon="1.68765">
        <ele>231.81</ele>
        <time>2021-08-18T07:01:35Z</time>
      </trkpt>
      <trkpt lat="43.90576" lon="1.68767">
        <ele>231.81</ele>
        <time>2021-08-18T07:01:45Z</time>
      </trkpt>
      <trkpt lat="43.90576" lon="1.68772">
        <ele>231.81</ele>
        <time>2021-08-18T07:02:04Z</time>
      </trkpt>
      <trkpt lat="43.90576" lon="1.68771">
        <ele>231.81</ele>
        <time>2021-08-18T07:02:05Z</time>
      </trkpt>
      <trkpt lat="43.90576" lon="1.68769">
        <ele>231.81</ele>
        <time>2021-08-18T07:02:06Z</time>
      </trkpt>
      <trkpt lat="43.90577" lon="1.6877">
        <ele>231.81</ele>
        <time>2021-08-18T07:02:11Z</time>
      </trkpt>
      <trkpt lat="43.90577" lon="1.68773">
        <ele>231.81</ele>
        <time>2021-08-18T07:02:12Z</time>
      </trkpt>
      <trkpt lat="43.90581" lon="1.68775">
        <ele>232.3</ele>
        <time>2021-08-18T07:02:17Z</time>
      </trkpt>
      <trkpt lat="43.90584" lon="1.68775">
        <ele>232.3</ele>
        <time>2021-08-18T07:02:36Z</time>
      </trkpt>
      <trkpt lat="43.90585" lon="1.68777">
        <ele>232.3</ele>
        <time>2021-08-18T07:02:50Z</time>
      </trkpt>
      <trkpt lat="43.90583" lon="1.68778">
        <ele>232.3</ele>
        <time>2021-08-18T07:02:59Z</time>
      </trkpt>
      <trkpt lat="43.9058" lon="1.68775">
        <ele>232.78</ele>
        <time>2021-08-18T07:03:11Z</time>
      </trkpt>
      <trkpt lat="43.90584" lon="1.68775">
        <ele>232.78</ele>
        <time>2021-08-18T07:03:30Z</time>
      </trkpt>
      <trkpt lat="43.90583" lon="1.68781">
        <ele>232.78</ele>
        <time>2021-08-18T07:03:50Z</time>
      </trkpt>
      <trkpt lat="43.90583" lon="1.68781">
        <ele>233.26</ele>
        <time>2021-08-18T07:04:05Z</time>
      </trkpt>
      <trkpt lat="43.90582" lon="1.68778">
        <ele>233.26</ele>
        <time>2021-08-18T07:04:24Z</time>
      </trkpt>
      <trkpt lat="43.9058" lon="1.68777">
        <ele>233.26</ele>
        <time>2021-08-18T07:04:37Z</time>
      </trkpt>
      <trkpt lat="43.90581" lon="1.68774">
        <ele>233.26</ele>
        <time>2021-08-18T07:04:53Z</time>
      </trkpt>
      <trkpt lat="43.9058" lon="1.68772">
        <ele>233.74</ele>
        <time>2021-08-18T07:05:08Z</time>
      </trkpt>
      <trkpt lat="43.90578" lon="1.68771">
        <ele>233.74</ele>
        <time>2021-08-18T07:05:25Z</time>
      </trkpt>
      <trkpt lat="43.90578" lon="1.68772">
        <ele>233.74</ele>
        <time>2021-08-18T07:05:38Z</time>
      </trkpt>
      <trkpt lat="43.90578" lon="1.68774">
        <ele>234.22</ele>
        <time>2021-08-18T07:05:50Z</time>
      </trkpt>
      <trkpt lat="43.90579" lon="1.68769">
        <ele>234.22</ele>
        <time>2021-08-18T07:06:10Z</time>
      </trkpt>
      <trkpt lat="43.90586" lon="1.68773">
        <ele>234.7</ele>
        <time>2021-08-18T07:06:24Z</time>
      </trkpt>
      <trkpt lat="43.90586" lon="1.68776">
        <ele>234.7</ele>
        <time>2021-08-18T07:06:25Z</time>
      </trkpt>
      <trkpt lat="43.90588" lon="1.68779">
        <ele>234.7</ele>
        <time>2021-08-18T07:06:29Z</time>
      </trkpt>
      <trkpt lat="43.90588" lon="1.68781">
        <ele>234.7</ele>
        <time>2021-08-18T07:06:30Z</time>
      </trkpt>
      <trkpt lat="43.90587" lon="1.68785">
        <ele>234.7</ele>
        <time>2021-08-18T07:06:31Z</time>
      </trkpt>
      <trkpt lat="43.90588" lon="1.68785">
        <ele>234.7</ele>
        <time>2021-08-18T07:06:35Z</time>
      </trkpt>
      <trkpt lat="43.90585" lon="1.68778">
        <ele>234.7</ele>
        <time>2021-08-18T07:06:47Z</time>
      </trkpt>
      <trkpt lat="43.90581" lon="1.68775">
        <ele>235.18</ele>
        <time>2021-08-18T07:07:01Z</time>
      </trkpt>
      <trkpt lat="43.90579" lon="1.68774">
        <ele>235.18</ele>
        <time>2021-08-18T07:07:17Z</time>
      </trkpt>
      <trkpt lat="43.9058" lon="1.68774">
        <ele>235.66</ele>
        <time>2021-08-18T07:07:28Z</time>
      </trkpt>
      <trkpt lat="43.90585" lon="1.68779">
        <ele>235.66</ele>
        <time>2021-08-18T07:07:46Z</time>
      </trkpt>
      <trkpt lat="43.90588" lon="1.6878">
        <ele>236.14</ele>
        <time>2021-08-18T07:08:08Z</time>
      </trkpt>
      <trkpt lat="43.9059" lon="1.68781">
        <ele>236.14</ele>
        <time>2021-08-18T07:08:22Z</time>
      </trkpt>
      <trkpt lat="43.9059" lon="1.68781">
        <ele>236.62</ele>
        <time>2021-08-18T07:08:33Z</time>
      </trkpt>
      <trkpt lat="43.90592" lon="1.6878">
        <ele>236.62</ele>
        <time>2021-08-18T07:08:49Z</time>
      </trkpt>
      <trkpt lat="43.90591" lon="1.68781">
        <ele>237.1</ele>
        <time>2021-08-18T07:09:06Z</time>
      </trkpt>
      <trkpt lat="43.90583" lon="1.68783">
        <ele>237.1</ele>
        <time>2021-08-18T07:09:18Z</time>
      </trkpt>
      <trkpt lat="43.90583" lon="1.68782">
        <ele>237.58</ele>
        <time>2021-08-18T07:09:37Z</time>
      </trkpt>
      <trkpt lat="43.90581" lon="1.68782">
        <ele>237.58</ele>
        <time>2021-08-18T07:09:56Z</time>
      </trkpt>
      <trkpt lat="43.90573" lon="1.6877">
        <ele>238.06</ele>
        <time>2021-08-18T07:10:12Z</time>
      </trkpt>
      <trkpt lat="43.9057" lon="1.68763">
        <ele>238.06</ele>
        <time>2021-08-18T07:10:23Z</time>
      </trkpt>
      <trkpt lat="43.9057" lon="1.6876">
        <ele>238.06</ele>
        <time>2021-08-18T07:10:36Z</time>
      </trkpt>
      <trkpt lat="43.90571" lon="1.68759">
        <ele>237.1</ele>
        <time>2021-08-18T07:10:49Z</time>
      </trkpt>
      <trkpt lat="43.90576" lon="1.68762">
        <ele>237.58</ele>
        <time>2021-08-18T07:11:10Z</time>
      </trkpt>
      <trkpt lat="43.90573" lon="1.68761">
        <ele>237.58</ele>
        <time>2021-08-18T07:11:23Z</time>
      </trkpt>
      <trkpt lat="43.90586" lon="1.68766">
        <ele>238.06</ele>
        <time>2021-08-18T07:11:36Z</time>
      </trkpt>
      <trkpt lat="43.90585" lon="1.68764">
        <ele>238.06</ele>
        <time>2021-08-18T07:11:50Z</time>
      </trkpt>
      <trkpt lat="43.90581" lon="1.68764">
        <ele>238.54</ele>
        <time>2021-08-18T07:12:06Z</time>
      </trkpt>
      <trkpt lat="43.90581" lon="1.68764">
        <ele>238.54</ele>
        <time>2021-08-18T07:12:22Z</time>
      </trkpt>
      <trkpt lat="43.90582" lon="1.68764">
        <ele>239.02</ele>
        <time>2021-08-18T07:12:36Z</time>
      </trkpt>
      <trkpt lat="43.90581" lon="1.68764">
        <ele>239.51</ele>
        <time>2021-08-18T07:12:52Z</time>
      </trkpt>
      <trkpt lat="43.90583" lon="1.68769">
        <ele>239.51</ele>
        <time>2021-08-18T07:13:07Z</time>
      </trkpt>
      <trkpt lat="43.90588" lon="1.68775">
        <ele>239.99</ele>
        <time>2021-08-18T07:13:23Z</time>
      </trkpt>
      <trkpt lat="43.90588" lon="1.68776">
        <ele>239.99</ele>
        <time>2021-08-18T07:13:33Z</time>
      </trkpt>
      <trkpt lat="43.90589" lon="1.68778">
        <ele>239.99</ele>
        <time>2021-08-18T07:13:49Z</time>
      </trkpt>
      <trkpt lat="43.90582" lon="1.68778">
        <ele>240.47</ele>
        <time>2021-08-18T07:14:03Z</time>
      </trkpt>
      <trkpt lat="43.90577" lon="1.68776">
        <ele>240.47</ele>
        <time>2021-08-18T07:14:24Z</time>
      </trkpt>
      <trkpt lat="43.90573" lon="1.68768">
        <ele>240.47</ele>
        <time>2021-08-18T07:14:36Z</time>
      </trkpt>
      <trkpt lat="43.90565" lon="1.68756">
        <ele>240.95</ele>
        <time>2021-08-18T07:14:52Z</time>
      </trkpt>
      <trkpt lat="43.90566" lon="1.68757">
        <ele>240.95</ele>
        <time>2021-08-18T07:15:08Z</time>
      </trkpt>
      <trkpt lat="43.90572" lon="1.68765">
        <ele>240.95</ele>
        <time>2021-08-18T07:15:24Z</time>
      </trkpt>
      <trkpt lat="43.90577" lon="1.68771">
        <ele>240.95</ele>
        <time>2021-08-18T07:15:39Z</time>
      </trkpt>
      <trkpt lat="43.90577" lon="1.6877">
        <ele>241.43</ele>
        <time>2021-08-18T07:15:53Z</time>
      </trkpt>
      <trkpt lat="43.90579" lon="1.68773">
        <ele>241.43</ele>
        <time>2021-08-18T07:16:06Z</time>
      </trkpt>
      <trkpt lat="43.90583" lon="1.68777">
        <ele>241.43</ele>
        <time>2021-08-18T07:16:08Z</time>
      </trkpt>
      <trkpt lat="43.90588" lon="1.68787">
        <ele>241.43</ele>
        <time>2021-08-18T07:16:15Z</time>
      </trkpt>
      <trkpt lat="43.90588" lon="1.68787">
        <ele>241.43</ele>
        <time>2021-08-18T07:16:22Z</time>
      </trkpt>
      <trkpt lat="43.90587" lon="1.68788">
        <ele>241.43</ele>
        <time>2021-08-18T07:16:31Z</time>
      </trkpt>
      <trkpt lat="43.90589" lon="1.68789">
        <ele>240.95</ele>
        <time>2021-08-18T07:16:47Z</time>
      </trkpt>
      <trkpt lat="43.90588" lon="1.68791">
        <ele>240.95</ele>
        <time>2021-08-18T07:16:50Z</time>
      </trkpt>
      <trkpt lat="43.90579" lon="1.68785">
        <ele>240.95</ele>
        <time>2021-08-18T07:16:58Z</time>
      </trkpt>
      <trkpt lat="43.90574" lon="1.68784">
        <ele>240.95</ele>
        <time>2021-08-18T07:17:06Z</time>
      </trkpt>
      <trkpt lat="43.90573" lon="1.68783">
        <ele>240.95</ele>
        <time>2021-08-18T07:17:16Z</time>
      </trkpt>
      <trkpt lat="43.90573" lon="1.68784">
        <ele>240.95</ele>
        <time>2021-08-18T07:17:24Z</time>
      </trkpt>
      <trkpt lat="43.90571" lon="1.68783">
        <ele>240.95</ele>
        <time>2021-08-18T07:17:48Z</time>
      </trkpt>
      <trkpt lat="43.90572" lon="1.68783">
        <ele>240.95</ele>
        <time>2021-08-18T07:18:03Z</time>
      </trkpt>
      <trkpt lat="43.90572" lon="1.68784">
        <ele>240.95</ele>
        <time>2021-08-18T07:18:25Z</time>
      </trkpt>
      <trkpt lat="43.90573" lon="1.68782">
        <ele>240.95</ele>
        <time>2021-08-18T07:18:44Z</time>
      </trkpt>
      <trkpt lat="43.90572" lon="1.68783">
        <ele>240.95</ele>
        <time>2021-08-18T07:19:04Z</time>
      </trkpt>
      <trkpt lat="43.90572" lon="1.68785">
        <ele>240.95</ele>
        <time>2021-08-18T07:19:22Z</time>
      </trkpt>
      <trkpt lat="43.90573" lon="1.68786">
        <ele>240.47</ele>
        <time>2021-08-18T07:19:41Z</time>
      </trkpt>
      <trkpt lat="43.90571" lon="1.68786">
        <ele>240.47</ele>
        <time>2021-08-18T07:20:02Z</time>
      </trkpt>
      <trkpt lat="43.90572" lon="1.68782">
        <ele>240.47</ele>
        <time>2021-08-18T07:20:23Z</time>
      </trkpt>
      <trkpt lat="43.90574" lon="1.68783">
        <ele>239.99</ele>
        <time>2021-08-18T07:20:39Z</time>
      </trkpt>
      <trkpt lat="43.90574" lon="1.68785">
        <ele>239.99</ele>
        <time>2021-08-18T07:20:55Z</time>
      </trkpt>
      <trkpt lat="43.90574" lon="1.68787">
        <ele>239.99</ele>
        <time>2021-08-18T07:21:10Z</time>
      </trkpt>
      <trkpt lat="43.90573" lon="1.68781">
        <ele>239.99</ele>
        <time>2021-08-18T07:21:24Z</time>
      </trkpt>
      <trkpt lat="43.90571" lon="1.68781">
        <ele>239.99</ele>
        <time>2021-08-18T07:21:31Z</time>
      </trkpt>
      <trkpt lat="43.90566" lon="1.68778">
        <ele>239.99</ele>
        <time>2021-08-18T07:21:38Z</time>
      </trkpt>
      <trkpt lat="43.90555" lon="1.68773">
        <ele>239.99</ele>
        <time>2021-08-18T07:21:44Z</time>
      </trkpt>
      <trkpt lat="43.9055" lon="1.68763">
        <ele>239.99</ele>
        <time>2021-08-18T07:21:48Z</time>
      </trkpt>
      <trkpt lat="43.90547" lon="1.68752">
        <ele>239.99</ele>
        <time>2021-08-18T07:21:52Z</time>
      </trkpt>
      <trkpt lat="43.90546" lon="1.6875">
        <ele>239.99</ele>
        <time>2021-08-18T07:21:53Z</time>
      </trkpt>
      <trkpt lat="43.90544" lon="1.68748">
        <ele>239.99</ele>
        <time>2021-08-18T07:21:54Z</time>
      </trkpt>
      <trkpt lat="43.90543" lon="1.68727">
        <ele>239.51</ele>
        <time>2021-08-18T07:22:00Z</time>
      </trkpt>
      <trkpt lat="43.90546" lon="1.68711">
        <ele>239.51</ele>
        <time>2021-08-18T07:22:05Z</time>
      </trkpt>
      <trkpt lat="43.90547" lon="1.68708">
        <ele>240.47</ele>
        <time>2021-08-18T07:22:06Z</time>
      </trkpt>
      <trkpt lat="43.90554" lon="1.68687">
        <ele>240.47</ele>
        <time>2021-08-18T07:22:12Z</time>
      </trkpt>
      <trkpt lat="43.90557" lon="1.68684">
        <ele>240.47</ele>
        <time>2021-08-18T07:22:13Z</time>
      </trkpt>
      <trkpt lat="43.90572" lon="1.68665">
        <ele>239.02</ele>
        <time>2021-08-18T07:22:18Z</time>
      </trkpt>
      <trkpt lat="43.90597" lon="1.68629">
        <ele>237.1</ele>
        <time>2021-08-18T07:22:26Z</time>
      </trkpt>
      <trkpt lat="43.9061" lon="1.68614">
        <ele>236.62</ele>
        <time>2021-08-18T07:22:32Z</time>
      </trkpt>
      <trkpt lat="43.90626" lon="1.6859">
        <ele>235.18</ele>
        <time>2021-08-18T07:22:39Z</time>
      </trkpt>
      <trkpt lat="43.90644" lon="1.68564">
        <ele>233.74</ele>
        <time>2021-08-18T07:22:46Z</time>
      </trkpt>
      <trkpt lat="43.90645" lon="1.68558">
        <ele>233.74</ele>
        <time>2021-08-18T07:22:48Z</time>
      </trkpt>
      <trkpt lat="43.90644" lon="1.68557">
        <ele>233.26</ele>
        <time>2021-08-18T07:22:49Z</time>
      </trkpt>
      <trkpt lat="43.90642" lon="1.68559">
        <ele>233.26</ele>
        <time>2021-08-18T07:22:51Z</time>
      </trkpt>
      <trkpt lat="43.90641" lon="1.68561">
        <ele>233.26</ele>
        <time>2021-08-18T07:22:52Z</time>
      </trkpt>
      <trkpt lat="43.9064" lon="1.68563">
        <ele>233.26</ele>
        <time>2021-08-18T07:22:53Z</time>
      </trkpt>
      <trkpt lat="43.90639" lon="1.68566">
        <ele>233.26</ele>
        <time>2021-08-18T07:22:54Z</time>
      </trkpt>
      <trkpt lat="43.90637" lon="1.68569">
        <ele>233.26</ele>
        <time>2021-08-18T07:22:55Z</time>
      </trkpt>
      <trkpt lat="43.9062" lon="1.68599">
        <ele>235.18</ele>
        <time>2021-08-18T07:23:03Z</time>
      </trkpt>
      <trkpt lat="43.90601" lon="1.68627">
        <ele>237.1</ele>
        <time>2021-08-18T07:23:12Z</time>
      </trkpt>
      <trkpt lat="43.90589" lon="1.68637">
        <ele>237.58</ele>
        <time>2021-08-18T07:23:18Z</time>
      </trkpt>
      <trkpt lat="43.90588" lon="1.68637">
        <ele>237.58</ele>
        <time>2021-08-18T07:23:19Z</time>
      </trkpt>
      <trkpt lat="43.90588" lon="1.68636">
        <ele>237.58</ele>
        <time>2021-08-18T07:23:20Z</time>
      </trkpt>
      <trkpt lat="43.90588" lon="1.68634">
        <ele>237.58</ele>
        <time>2021-08-18T07:23:21Z</time>
      </trkpt>
      <trkpt lat="43.90589" lon="1.68633">
        <ele>237.58</ele>
        <time>2021-08-18T07:23:22Z</time>
      </trkpt>
      <trkpt lat="43.9059" lon="1.68632">
        <ele>237.58</ele>
        <time>2021-08-18T07:23:23Z</time>
      </trkpt>
      <trkpt lat="43.90597" lon="1.68623">
        <ele>235.66</ele>
        <time>2021-08-18T07:23:29Z</time>
      </trkpt>
      <trkpt lat="43.90598" lon="1.6862">
        <ele>235.66</ele>
        <time>2021-08-18T07:23:30Z</time>
      </trkpt>
      <trkpt lat="43.90607" lon="1.68607">
        <ele>232.78</ele>
        <time>2021-08-18T07:23:35Z</time>
      </trkpt>
      <trkpt lat="43.90613" lon="1.68595">
        <ele>231.33</ele>
        <time>2021-08-18T07:23:40Z</time>
      </trkpt>
      <trkpt lat="43.90613" lon="1.68591">
        <ele>230.85</ele>
        <time>2021-08-18T07:23:42Z</time>
      </trkpt>
      <trkpt lat="43.90611" lon="1.68589">
        <ele>230.85</ele>
        <time>2021-08-18T07:23:48Z</time>
      </trkpt>
      <trkpt lat="43.90611" lon="1.68589">
        <ele>230.85</ele>
        <time>2021-08-18T07:24:04Z</time>
      </trkpt>
      <trkpt lat="43.90612" lon="1.68588">
        <ele>230.85</ele>
        <time>2021-08-18T07:24:23Z</time>
      </trkpt>
      <trkpt lat="43.90608" lon="1.68583">
        <ele>228.93</ele>
        <time>2021-08-18T07:24:33Z</time>
      </trkpt>
      <trkpt lat="43.90602" lon="1.68579">
        <ele>226.05</ele>
        <time>2021-08-18T07:24:37Z</time>
      </trkpt>
      <trkpt lat="43.90593" lon="1.6857">
        <ele>221.72</ele>
        <time>2021-08-18T07:24:41Z</time>
      </trkpt>
      <trkpt lat="43.90586" lon="1.6856">
        <ele>218.36</ele>
        <time>2021-08-18T07:24:45Z</time>
      </trkpt>
      <trkpt lat="43.90577" lon="1.68547">
        <ele>214.99</ele>
        <time>2021-08-18T07:24:49Z</time>
      </trkpt>
      <trkpt lat="43.90569" lon="1.68531">
        <ele>212.11</ele>
        <time>2021-08-18T07:24:53Z</time>
      </trkpt>
      <trkpt lat="43.90559" lon="1.68514">
        <ele>208.26</ele>
        <time>2021-08-18T07:24:57Z</time>
      </trkpt>
      <trkpt lat="43.90547" lon="1.68495">
        <ele>205.38</ele>
        <time>2021-08-18T07:25:03Z</time>
      </trkpt>
      <trkpt lat="43.90536" lon="1.68484">
        <ele>203.46</ele>
        <time>2021-08-18T07:25:09Z</time>
      </trkpt>
      <trkpt lat="43.90525" lon="1.68473">
        <ele>200.57</ele>
        <time>2021-08-18T07:25:14Z</time>
      </trkpt>
      <trkpt lat="43.90512" lon="1.68461">
        <ele>196.73</ele>
        <time>2021-08-18T07:25:19Z</time>
      </trkpt>
      <trkpt lat="43.905" lon="1.68447">
        <ele>193.36</ele>
        <time>2021-08-18T07:25:23Z</time>
      </trkpt>
      <trkpt lat="43.90488" lon="1.68432">
        <ele>190.48</ele>
        <time>2021-08-18T07:25:27Z</time>
      </trkpt>
      <trkpt lat="43.90484" lon="1.68427">
        <ele>189.52</ele>
        <time>2021-08-18T07:25:28Z</time>
      </trkpt>
      <trkpt lat="43.90477" lon="1.68417">
        <ele>187.59</ele>
        <time>2021-08-18T07:25:30Z</time>
      </trkpt>
      <trkpt lat="43.90469" lon="1.68408">
        <ele>186.15</ele>
        <time>2021-08-18T07:25:32Z</time>
      </trkpt>
      <trkpt lat="43.9045" lon="1.68388">
        <ele>183.27</ele>
        <time>2021-08-18T07:25:37Z</time>
      </trkpt>
      <trkpt lat="43.9042" lon="1.68356">
        <ele>180.38</ele>
        <time>2021-08-18T07:25:44Z</time>
      </trkpt>
      <trkpt lat="43.90415" lon="1.68351">
        <ele>179.9</ele>
        <time>2021-08-18T07:25:45Z</time>
      </trkpt>
      <trkpt lat="43.90399" lon="1.68331">
        <ele>179.42</ele>
        <time>2021-08-18T07:25:49Z</time>
      </trkpt>
      <trkpt lat="43.90385" lon="1.68311">
        <ele>178.94</ele>
        <time>2021-08-18T07:25:55Z</time>
      </trkpt>
      <trkpt lat="43.90375" lon="1.68302">
        <ele>178.94</ele>
        <time>2021-08-18T07:25:59Z</time>
      </trkpt>
      <trkpt lat="43.90373" lon="1.68283">
        <ele>178.94</ele>
        <time>2021-08-18T07:26:06Z</time>
      </trkpt>
      <trkpt lat="43.90372" lon="1.68277">
        <ele>178.94</ele>
        <time>2021-08-18T07:26:10Z</time>
      </trkpt>
      <trkpt lat="43.90373" lon="1.68285">
        <ele>178.94</ele>
        <time>2021-08-18T07:26:16Z</time>
      </trkpt>
      <trkpt lat="43.90372" lon="1.68288">
        <ele>178.94</ele>
        <time>2021-08-18T07:26:17Z</time>
      </trkpt>
      <trkpt lat="43.9037" lon="1.68293">
        <ele>178.94</ele>
        <time>2021-08-18T07:26:19Z</time>
      </trkpt>
      <trkpt lat="43.90377" lon="1.68304">
        <ele>178.94</ele>
        <time>2021-08-18T07:26:24Z</time>
      </trkpt>
      <trkpt lat="43.90379" lon="1.68306">
        <ele>178.94</ele>
        <time>2021-08-18T07:26:25Z</time>
      </trkpt>
      <trkpt lat="43.90401" lon="1.68313">
        <ele>178.94</ele>
        <time>2021-08-18T07:26:33Z</time>
      </trkpt>
      <trkpt lat="43.90418" lon="1.68295">
        <ele>178.94</ele>
        <time>2021-08-18T07:26:39Z</time>
      </trkpt>
      <trkpt lat="43.90429" lon="1.68268">
        <ele>178.46</ele>
        <time>2021-08-18T07:26:45Z</time>
      </trkpt>
      <trkpt lat="43.90451" lon="1.68211">
        <ele>178.46</ele>
        <time>2021-08-18T07:26:55Z</time>
      </trkpt>
      <trkpt lat="43.90474" lon="1.68167">
        <ele>177.5</ele>
        <time>2021-08-18T07:27:04Z</time>
      </trkpt>
      <trkpt lat="43.90497" lon="1.68124">
        <ele>177.02</ele>
        <time>2021-08-18T07:27:12Z</time>
      </trkpt>
      <trkpt lat="43.90513" lon="1.68088">
        <ele>176.54</ele>
        <time>2021-08-18T07:27:19Z</time>
      </trkpt>
      <trkpt lat="43.90512" lon="1.68081">
        <ele>176.54</ele>
        <time>2021-08-18T07:27:21Z</time>
      </trkpt>
      <trkpt lat="43.9051" lon="1.68078">
        <ele>176.54</ele>
        <time>2021-08-18T07:27:22Z</time>
      </trkpt>
      <trkpt lat="43.90508" lon="1.68076">
        <ele>176.54</ele>
        <time>2021-08-18T07:27:23Z</time>
      </trkpt>
      <trkpt lat="43.90505" lon="1.68073">
        <ele>176.54</ele>
        <time>2021-08-18T07:27:24Z</time>
      </trkpt>
      <trkpt lat="43.90502" lon="1.68071">
        <ele>176.54</ele>
        <time>2021-08-18T07:27:25Z</time>
      </trkpt>
      <trkpt lat="43.905" lon="1.68068">
        <ele>176.54</ele>
        <time>2021-08-18T07:27:26Z</time>
      </trkpt>
      <trkpt lat="43.90497" lon="1.68065">
        <ele>176.54</ele>
        <time>2021-08-18T07:27:27Z</time>
      </trkpt>
      <trkpt lat="43.90488" lon="1.68045">
        <ele>177.98</ele>
        <time>2021-08-18T07:27:32Z</time>
      </trkpt>
      <trkpt lat="43.9049" lon="1.68025">
        <ele>179.9</ele>
        <time>2021-08-18T07:27:38Z</time>
      </trkpt>
      <trkpt lat="43.90504" lon="1.67998">
        <ele>179.9</ele>
        <time>2021-08-18T07:27:46Z</time>
      </trkpt>
      <trkpt lat="43.90523" lon="1.67965">
        <ele>179.42</ele>
        <time>2021-08-18T07:27:53Z</time>
      </trkpt>
      <trkpt lat="43.90544" lon="1.67912">
        <ele>178.46</ele>
        <time>2021-08-18T07:28:03Z</time>
      </trkpt>
      <trkpt lat="43.90561" lon="1.67856">
        <ele>177.98</ele>
        <time>2021-08-18T07:28:11Z</time>
      </trkpt>
      <trkpt lat="43.9058" lon="1.67788">
        <ele>177.98</ele>
        <time>2021-08-18T07:28:21Z</time>
      </trkpt>
      <trkpt lat="43.90583" lon="1.67774">
        <ele>177.98</ele>
        <time>2021-08-18T07:28:23Z</time>
      </trkpt>
      <trkpt lat="43.90583" lon="1.67766">
        <ele>177.5</ele>
        <time>2021-08-18T07:28:24Z</time>
      </trkpt>
      <trkpt lat="43.90583" lon="1.67759">
        <ele>177.98</ele>
        <time>2021-08-18T07:28:25Z</time>
      </trkpt>
      <trkpt lat="43.90583" lon="1.67752">
        <ele>177.5</ele>
        <time>2021-08-18T07:28:26Z</time>
      </trkpt>
      <trkpt lat="43.90582" lon="1.67745">
        <ele>177.5</ele>
        <time>2021-08-18T07:28:27Z</time>
      </trkpt>
      <trkpt lat="43.9058" lon="1.67739">
        <ele>177.5</ele>
        <time>2021-08-18T07:28:28Z</time>
      </trkpt>
      <trkpt lat="43.90579" lon="1.67733">
        <ele>177.5</ele>
        <time>2021-08-18T07:28:29Z</time>
      </trkpt>
      <trkpt lat="43.90566" lon="1.67701">
        <ele>179.9</ele>
        <time>2021-08-18T07:28:36Z</time>
      </trkpt>
      <trkpt lat="43.90547" lon="1.67676">
        <ele>181.35</ele>
        <time>2021-08-18T07:28:45Z</time>
      </trkpt>
      <trkpt lat="43.90538" lon="1.67659">
        <ele>182.31</ele>
        <time>2021-08-18T07:28:53Z</time>
      </trkpt>
      <trkpt lat="43.90528" lon="1.67642">
        <ele>183.75</ele>
        <time>2021-08-18T07:29:02Z</time>
      </trkpt>
      <trkpt lat="43.90519" lon="1.67624">
        <ele>185.19</ele>
        <time>2021-08-18T07:29:11Z</time>
      </trkpt>
      <trkpt lat="43.90511" lon="1.67609">
        <ele>186.63</ele>
        <time>2021-08-18T07:29:20Z</time>
      </trkpt>
      <trkpt lat="43.90508" lon="1.67604">
        <ele>187.11</ele>
        <time>2021-08-18T07:29:23Z</time>
      </trkpt>
      <trkpt lat="43.90507" lon="1.67602">
        <ele>187.11</ele>
        <time>2021-08-18T07:29:24Z</time>
      </trkpt>
      <trkpt lat="43.90506" lon="1.67601">
        <ele>187.59</ele>
        <time>2021-08-18T07:29:25Z</time>
      </trkpt>
      <trkpt lat="43.90506" lon="1.67599">
        <ele>187.59</ele>
        <time>2021-08-18T07:29:26Z</time>
      </trkpt>
      <trkpt lat="43.90505" lon="1.67597">
        <ele>187.59</ele>
        <time>2021-08-18T07:29:27Z</time>
      </trkpt>
      <trkpt lat="43.90505" lon="1.67595">
        <ele>188.08</ele>
        <time>2021-08-18T07:29:28Z</time>
      </trkpt>
      <trkpt lat="43.90504" lon="1.67593">
        <ele>188.08</ele>
        <time>2021-08-18T07:29:29Z</time>
      </trkpt>
      <trkpt lat="43.90504" lon="1.67592">
        <ele>188.56</ele>
        <time>2021-08-18T07:29:30Z</time>
      </trkpt>
      <trkpt lat="43.90503" lon="1.67591">
        <ele>188.56</ele>
        <time>2021-08-18T07:29:31Z</time>
      </trkpt>
      <trkpt lat="43.90502" lon="1.6759">
        <ele>188.56</ele>
        <time>2021-08-18T07:29:32Z</time>
      </trkpt>
      <trkpt lat="43.90501" lon="1.67588">
        <ele>189.04</ele>
        <time>2021-08-18T07:29:33Z</time>
      </trkpt>
      <trkpt lat="43.90501" lon="1.67587">
        <ele>189.04</ele>
        <time>2021-08-18T07:29:34Z</time>
      </trkpt>
      <trkpt lat="43.905" lon="1.67585">
        <ele>189.52</ele>
        <time>2021-08-18T07:29:35Z</time>
      </trkpt>
      <trkpt lat="43.90491" lon="1.67571">
        <ele>190.96</ele>
        <time>2021-08-18T07:29:44Z</time>
      </trkpt>
      <trkpt lat="43.90483" lon="1.67558">
        <ele>192.4</ele>
        <time>2021-08-18T07:29:52Z</time>
      </trkpt>
      <trkpt lat="43.90475" lon="1.67544">
        <ele>193.84</ele>
        <time>2021-08-18T07:30:01Z</time>
      </trkpt>
      <trkpt lat="43.90467" lon="1.67528">
        <ele>195.28</ele>
        <time>2021-08-18T07:30:10Z</time>
      </trkpt>
      <trkpt lat="43.90458" lon="1.67502">
        <ele>197.21</ele>
        <time>2021-08-18T07:30:22Z</time>
      </trkpt>
      <trkpt lat="43.90454" lon="1.67474">
        <ele>197.69</ele>
        <time>2021-08-18T07:30:32Z</time>
      </trkpt>
      <trkpt lat="43.90452" lon="1.6745">
        <ele>197.69</ele>
        <time>2021-08-18T07:30:38Z</time>
      </trkpt>
      <trkpt lat="43.90451" lon="1.67444">
        <ele>196.73</ele>
        <time>2021-08-18T07:30:39Z</time>
      </trkpt>
      <trkpt lat="43.90449" lon="1.67439">
        <ele>196.25</ele>
        <time>2021-08-18T07:30:40Z</time>
      </trkpt>
      <trkpt lat="43.90439" lon="1.67412">
        <ele>194.8</ele>
        <time>2021-08-18T07:30:44Z</time>
      </trkpt>
      <trkpt lat="43.90426" lon="1.6738">
        <ele>192.4</ele>
        <time>2021-08-18T07:30:48Z</time>
      </trkpt>
      <trkpt lat="43.9042" lon="1.67373">
        <ele>191.92</ele>
        <time>2021-08-18T07:30:49Z</time>
      </trkpt>
      <trkpt lat="43.90415" lon="1.67366">
        <ele>191.44</ele>
        <time>2021-08-18T07:30:50Z</time>
      </trkpt>
      <trkpt lat="43.90409" lon="1.67359">
        <ele>190.48</ele>
        <time>2021-08-18T07:30:51Z</time>
      </trkpt>
      <trkpt lat="43.90403" lon="1.67353">
        <ele>190</ele>
        <time>2021-08-18T07:30:52Z</time>
      </trkpt>
      <trkpt lat="43.90358" lon="1.67314">
        <ele>187.11</ele>
        <time>2021-08-18T07:30:59Z</time>
      </trkpt>
      <trkpt lat="43.90347" lon="1.67305">
        <ele>186.63</ele>
        <time>2021-08-18T07:31:01Z</time>
      </trkpt>
      <trkpt lat="43.90343" lon="1.67298">
        <ele>186.15</ele>
        <time>2021-08-18T07:31:02Z</time>
      </trkpt>
      <trkpt lat="43.9034" lon="1.6729">
        <ele>185.19</ele>
        <time>2021-08-18T07:31:03Z</time>
      </trkpt>
      <trkpt lat="43.90338" lon="1.6728">
        <ele>184.23</ele>
        <time>2021-08-18T07:31:04Z</time>
      </trkpt>
      <trkpt lat="43.90339" lon="1.67269">
        <ele>183.75</ele>
        <time>2021-08-18T07:31:05Z</time>
      </trkpt>
      <trkpt lat="43.9034" lon="1.67259">
        <ele>182.79</ele>
        <time>2021-08-18T07:31:06Z</time>
      </trkpt>
      <trkpt lat="43.90342" lon="1.67248">
        <ele>182.31</ele>
        <time>2021-08-18T07:31:07Z</time>
      </trkpt>
      <trkpt lat="43.90344" lon="1.67237">
        <ele>181.35</ele>
        <time>2021-08-18T07:31:08Z</time>
      </trkpt>
      <trkpt lat="43.90344" lon="1.67225">
        <ele>180.38</ele>
        <time>2021-08-18T07:31:09Z</time>
      </trkpt>
      <trkpt lat="43.90343" lon="1.67213">
        <ele>179.9</ele>
        <time>2021-08-18T07:31:10Z</time>
      </trkpt>
      <trkpt lat="43.9034" lon="1.67201">
        <ele>179.9</ele>
        <time>2021-08-18T07:31:11Z</time>
      </trkpt>
      <trkpt lat="43.90336" lon="1.6719">
        <ele>179.9</ele>
        <time>2021-08-18T07:31:12Z</time>
      </trkpt>
      <trkpt lat="43.90331" lon="1.67169">
        <ele>179.9</ele>
        <time>2021-08-18T07:31:14Z</time>
      </trkpt>
      <trkpt lat="43.9033" lon="1.6716">
        <ele>179.9</ele>
        <time>2021-08-18T07:31:15Z</time>
      </trkpt>
      <trkpt lat="43.9033" lon="1.67152">
        <ele>181.83</ele>
        <time>2021-08-18T07:31:16Z</time>
      </trkpt>
      <trkpt lat="43.9033" lon="1.67145">
        <ele>182.79</ele>
        <time>2021-08-18T07:31:17Z</time>
      </trkpt>
      <trkpt lat="43.90331" lon="1.67139">
        <ele>183.27</ele>
        <time>2021-08-18T07:31:18Z</time>
      </trkpt>
      <trkpt lat="43.90332" lon="1.67134">
        <ele>183.75</ele>
        <time>2021-08-18T07:31:19Z</time>
      </trkpt>
      <trkpt lat="43.90333" lon="1.6713">
        <ele>184.71</ele>
        <time>2021-08-18T07:31:20Z</time>
      </trkpt>
      <trkpt lat="43.90334" lon="1.67127">
        <ele>184.71</ele>
        <time>2021-08-18T07:31:21Z</time>
      </trkpt>
      <trkpt lat="43.90334" lon="1.67125">
        <ele>185.19</ele>
        <time>2021-08-18T07:31:22Z</time>
      </trkpt>
      <trkpt lat="43.90338" lon="1.67109">
        <ele>186.63</ele>
        <time>2021-08-18T07:31:30Z</time>
      </trkpt>
      <trkpt lat="43.90341" lon="1.671">
        <ele>187.11</ele>
        <time>2021-08-18T07:31:35Z</time>
      </trkpt>
      <trkpt lat="43.90348" lon="1.67086">
        <ele>188.56</ele>
        <time>2021-08-18T07:31:42Z</time>
      </trkpt>
      <trkpt lat="43.90359" lon="1.6707">
        <ele>189.52</ele>
        <time>2021-08-18T07:31:51Z</time>
      </trkpt>
      <trkpt lat="43.90368" lon="1.67051">
        <ele>190.96</ele>
        <time>2021-08-18T07:32:00Z</time>
      </trkpt>
      <trkpt lat="43.90368" lon="1.67037">
        <ele>192.4</ele>
        <time>2021-08-18T07:32:07Z</time>
      </trkpt>
      <trkpt lat="43.90362" lon="1.6702">
        <ele>193.84</ele>
        <time>2021-08-18T07:32:16Z</time>
      </trkpt>
      <trkpt lat="43.90355" lon="1.67004">
        <ele>195.28</ele>
        <time>2021-08-18T07:32:24Z</time>
      </trkpt>
      <trkpt lat="43.90351" lon="1.66985">
        <ele>196.73</ele>
        <time>2021-08-18T07:32:32Z</time>
      </trkpt>
      <trkpt lat="43.90352" lon="1.66961">
        <ele>197.69</ele>
        <time>2021-08-18T07:32:41Z</time>
      </trkpt>
      <trkpt lat="43.90356" lon="1.66944">
        <ele>199.13</ele>
        <time>2021-08-18T07:32:49Z</time>
      </trkpt>
      <trkpt lat="43.90359" lon="1.66927">
        <ele>200.57</ele>
        <time>2021-08-18T07:32:58Z</time>
      </trkpt>
      <trkpt lat="43.90361" lon="1.66911">
        <ele>201.53</ele>
        <time>2021-08-18T07:33:06Z</time>
      </trkpt>
      <trkpt lat="43.90363" lon="1.66889">
        <ele>202.98</ele>
        <time>2021-08-18T07:33:15Z</time>
      </trkpt>
      <trkpt lat="43.90369" lon="1.66871">
        <ele>203.94</ele>
        <time>2021-08-18T07:33:24Z</time>
      </trkpt>
      <trkpt lat="43.90374" lon="1.66857">
        <ele>205.38</ele>
        <time>2021-08-18T07:33:30Z</time>
      </trkpt>
      <trkpt lat="43.90384" lon="1.66833">
        <ele>206.82</ele>
        <time>2021-08-18T07:33:40Z</time>
      </trkpt>
      <trkpt lat="43.90393" lon="1.66815">
        <ele>208.26</ele>
        <time>2021-08-18T07:33:49Z</time>
      </trkpt>
      <trkpt lat="43.90407" lon="1.66795">
        <ele>209.22</ele>
        <time>2021-08-18T07:33:59Z</time>
      </trkpt>
      <trkpt lat="43.90418" lon="1.66777">
        <ele>210.19</ele>
        <time>2021-08-18T07:34:07Z</time>
      </trkpt>
      <trkpt lat="43.9042" lon="1.66757">
        <ele>211.63</ele>
        <time>2021-08-18T07:34:15Z</time>
      </trkpt>
      <trkpt lat="43.90415" lon="1.66745">
        <ele>213.07</ele>
        <time>2021-08-18T07:34:21Z</time>
      </trkpt>
      <trkpt lat="43.90414" lon="1.66744">
        <ele>213.07</ele>
        <time>2021-08-18T07:34:22Z</time>
      </trkpt>
      <trkpt lat="43.90412" lon="1.66744">
        <ele>213.07</ele>
        <time>2021-08-18T07:34:23Z</time>
      </trkpt>
      <trkpt lat="43.90411" lon="1.66745">
        <ele>214.03</ele>
        <time>2021-08-18T07:34:24Z</time>
      </trkpt>
      <trkpt lat="43.90409" lon="1.66745">
        <ele>214.03</ele>
        <time>2021-08-18T07:34:25Z</time>
      </trkpt>
      <trkpt lat="43.90407" lon="1.66746">
        <ele>214.03</ele>
        <time>2021-08-18T07:34:26Z</time>
      </trkpt>
      <trkpt lat="43.90406" lon="1.66746">
        <ele>214.03</ele>
        <time>2021-08-18T07:34:27Z</time>
      </trkpt>
      <trkpt lat="43.90404" lon="1.66747">
        <ele>214.03</ele>
        <time>2021-08-18T07:34:28Z</time>
      </trkpt>
      <trkpt lat="43.90387" lon="1.66756">
        <ele>215.95</ele>
        <time>2021-08-18T07:34:39Z</time>
      </trkpt>
      <trkpt lat="43.90375" lon="1.66758">
        <ele>217.4</ele>
        <time>2021-08-18T07:34:47Z</time>
      </trkpt>
      <trkpt lat="43.90361" lon="1.66758">
        <ele>219.32</ele>
        <time>2021-08-18T07:34:56Z</time>
      </trkpt>
      <trkpt lat="43.90347" lon="1.66758">
        <ele>221.72</ele>
        <time>2021-08-18T07:35:05Z</time>
      </trkpt>
      <trkpt lat="43.90329" lon="1.66757">
        <ele>224.12</ele>
        <time>2021-08-18T07:35:17Z</time>
      </trkpt>
      <trkpt lat="43.90315" lon="1.66754">
        <ele>226.05</ele>
        <time>2021-08-18T07:35:27Z</time>
      </trkpt>
      <trkpt lat="43.90301" lon="1.66749">
        <ele>227.97</ele>
        <time>2021-08-18T07:35:36Z</time>
      </trkpt>
      <trkpt lat="43.90288" lon="1.66744">
        <ele>229.89</ele>
        <time>2021-08-18T07:35:45Z</time>
      </trkpt>
      <trkpt lat="43.90283" lon="1.66738">
        <ele>230.37</ele>
        <time>2021-08-18T07:35:49Z</time>
      </trkpt>
      <trkpt lat="43.90282" lon="1.66736">
        <ele>230.37</ele>
        <time>2021-08-18T07:35:50Z</time>
      </trkpt>
      <trkpt lat="43.90282" lon="1.66734">
        <ele>230.37</ele>
        <time>2021-08-18T07:35:51Z</time>
      </trkpt>
      <trkpt lat="43.90283" lon="1.66732">
        <ele>230.37</ele>
        <time>2021-08-18T07:35:52Z</time>
      </trkpt>
      <trkpt lat="43.90284" lon="1.6673">
        <ele>230.85</ele>
        <time>2021-08-18T07:35:53Z</time>
      </trkpt>
      <trkpt lat="43.90285" lon="1.66728">
        <ele>230.85</ele>
        <time>2021-08-18T07:35:54Z</time>
      </trkpt>
      <trkpt lat="43.90302" lon="1.66708">
        <ele>232.3</ele>
        <time>2021-08-18T07:36:04Z</time>
      </trkpt>
      <trkpt lat="43.90323" lon="1.66693">
        <ele>232.3</ele>
        <time>2021-08-18T07:36:12Z</time>
      </trkpt>
      <trkpt lat="43.90339" lon="1.66682">
        <ele>230.85</ele>
        <time>2021-08-18T07:36:16Z</time>
      </trkpt>
      <trkpt lat="43.9036" lon="1.66663">
        <ele>227.49</ele>
        <time>2021-08-18T07:36:20Z</time>
      </trkpt>
      <trkpt lat="43.90399" lon="1.66624">
        <ele>226.05</ele>
        <time>2021-08-18T07:36:27Z</time>
      </trkpt>
      <trkpt lat="43.90404" lon="1.6662">
        <ele>226.05</ele>
        <time>2021-08-18T07:36:29Z</time>
      </trkpt>
      <trkpt lat="43.90406" lon="1.6662">
        <ele>226.05</ele>
        <time>2021-08-18T07:36:31Z</time>
      </trkpt>
      <trkpt lat="43.90403" lon="1.66618">
        <ele>226.05</ele>
        <time>2021-08-18T07:36:35Z</time>
      </trkpt>
      <trkpt lat="43.90389" lon="1.66631">
        <ele>226.05</ele>
        <time>2021-08-18T07:36:42Z</time>
      </trkpt>
      <trkpt lat="43.90378" lon="1.66642">
        <ele>227.49</ele>
        <time>2021-08-18T07:36:48Z</time>
      </trkpt>
      <trkpt lat="43.90363" lon="1.66652">
        <ele>227.97</ele>
        <time>2021-08-18T07:36:54Z</time>
      </trkpt>
      <trkpt lat="43.90346" lon="1.66672">
        <ele>228.93</ele>
        <time>2021-08-18T07:37:01Z</time>
      </trkpt>
      <trkpt lat="43.90322" lon="1.66691">
        <ele>231.81</ele>
        <time>2021-08-18T07:37:11Z</time>
      </trkpt>
      <trkpt lat="43.903" lon="1.66708">
        <ele>232.3</ele>
        <time>2021-08-18T07:37:19Z</time>
      </trkpt>
      <trkpt lat="43.90286" lon="1.66723">
        <ele>230.85</ele>
        <time>2021-08-18T07:37:23Z</time>
      </trkpt>
      <trkpt lat="43.90284" lon="1.66727">
        <ele>230.85</ele>
        <time>2021-08-18T07:37:24Z</time>
      </trkpt>
      <trkpt lat="43.90283" lon="1.66732">
        <ele>230.85</ele>
        <time>2021-08-18T07:37:25Z</time>
      </trkpt>
      <trkpt lat="43.90283" lon="1.66737">
        <ele>230.85</ele>
        <time>2021-08-18T07:37:26Z</time>
      </trkpt>
      <trkpt lat="43.90285" lon="1.66741">
        <ele>230.37</ele>
        <time>2021-08-18T07:37:27Z</time>
      </trkpt>
      <trkpt lat="43.90288" lon="1.66744">
        <ele>229.89</ele>
        <time>2021-08-18T07:37:28Z</time>
      </trkpt>
      <trkpt lat="43.90292" lon="1.66747">
        <ele>229.41</ele>
        <time>2021-08-18T07:37:29Z</time>
      </trkpt>
      <trkpt lat="43.90298" lon="1.66749">
        <ele>228.45</ele>
        <time>2021-08-18T07:37:30Z</time>
      </trkpt>
      <trkpt lat="43.90318" lon="1.66754">
        <ele>224.61</ele>
        <time>2021-08-18T07:37:33Z</time>
      </trkpt>
      <trkpt lat="43.90348" lon="1.66757">
        <ele>220.28</ele>
        <time>2021-08-18T07:37:37Z</time>
      </trkpt>
      <trkpt lat="43.90377" lon="1.66757">
        <ele>216.43</ele>
        <time>2021-08-18T07:37:41Z</time>
      </trkpt>
      <trkpt lat="43.904" lon="1.66751">
        <ele>214.03</ele>
        <time>2021-08-18T07:37:45Z</time>
      </trkpt>
      <trkpt lat="43.90404" lon="1.66748">
        <ele>214.03</ele>
        <time>2021-08-18T07:37:46Z</time>
      </trkpt>
      <trkpt lat="43.90408" lon="1.66746">
        <ele>213.55</ele>
        <time>2021-08-18T07:37:47Z</time>
      </trkpt>
      <trkpt lat="43.90411" lon="1.66744">
        <ele>213.55</ele>
        <time>2021-08-18T07:37:48Z</time>
      </trkpt>
      <trkpt lat="43.90415" lon="1.66745">
        <ele>212.59</ele>
        <time>2021-08-18T07:37:49Z</time>
      </trkpt>
      <trkpt lat="43.90418" lon="1.66749">
        <ele>212.11</ele>
        <time>2021-08-18T07:37:50Z</time>
      </trkpt>
      <trkpt lat="43.9042" lon="1.66754">
        <ele>211.63</ele>
        <time>2021-08-18T07:37:51Z</time>
      </trkpt>
      <trkpt lat="43.90421" lon="1.66761">
        <ele>210.67</ele>
        <time>2021-08-18T07:37:52Z</time>
      </trkpt>
      <trkpt lat="43.90421" lon="1.66768">
        <ele>210.19</ele>
        <time>2021-08-18T07:37:53Z</time>
      </trkpt>
      <trkpt lat="43.90419" lon="1.66777">
        <ele>209.22</ele>
        <time>2021-08-18T07:37:54Z</time>
      </trkpt>
      <trkpt lat="43.90415" lon="1.66784">
        <ele>208.74</ele>
        <time>2021-08-18T07:37:55Z</time>
      </trkpt>
      <trkpt lat="43.90409" lon="1.6679">
        <ele>208.74</ele>
        <time>2021-08-18T07:37:56Z</time>
      </trkpt>
      <trkpt lat="43.90404" lon="1.66796">
        <ele>208.26</ele>
        <time>2021-08-18T07:37:57Z</time>
      </trkpt>
      <trkpt lat="43.90399" lon="1.66803">
        <ele>207.78</ele>
        <time>2021-08-18T07:37:58Z</time>
      </trkpt>
      <trkpt lat="43.90394" lon="1.66811">
        <ele>206.82</ele>
        <time>2021-08-18T07:37:59Z</time>
      </trkpt>
      <trkpt lat="43.90373" lon="1.66856">
        <ele>203.46</ele>
        <time>2021-08-18T07:38:04Z</time>
      </trkpt>
      <trkpt lat="43.90368" lon="1.66865">
        <ele>202.49</ele>
        <time>2021-08-18T07:38:05Z</time>
      </trkpt>
      <trkpt lat="43.90365" lon="1.66875">
        <ele>202.01</ele>
        <time>2021-08-18T07:38:06Z</time>
      </trkpt>
      <trkpt lat="43.90362" lon="1.66886">
        <ele>201.05</ele>
        <time>2021-08-18T07:38:07Z</time>
      </trkpt>
      <trkpt lat="43.9036" lon="1.66898">
        <ele>200.57</ele>
        <time>2021-08-18T07:38:08Z</time>
      </trkpt>
      <trkpt lat="43.90359" lon="1.66909">
        <ele>199.61</ele>
        <time>2021-08-18T07:38:09Z</time>
      </trkpt>
      <trkpt lat="43.90355" lon="1.66931">
        <ele>198.17</ele>
        <time>2021-08-18T07:38:11Z</time>
      </trkpt>
      <trkpt lat="43.90353" lon="1.66941">
        <ele>197.21</ele>
        <time>2021-08-18T07:38:12Z</time>
      </trkpt>
      <trkpt lat="43.90348" lon="1.66962">
        <ele>195.77</ele>
        <time>2021-08-18T07:38:14Z</time>
      </trkpt>
      <trkpt lat="43.90347" lon="1.66973">
        <ele>195.28</ele>
        <time>2021-08-18T07:38:15Z</time>
      </trkpt>
      <trkpt lat="43.90349" lon="1.66984">
        <ele>194.32</ele>
        <time>2021-08-18T07:38:16Z</time>
      </trkpt>
      <trkpt lat="43.90352" lon="1.66994">
        <ele>193.84</ele>
        <time>2021-08-18T07:38:17Z</time>
      </trkpt>
      <trkpt lat="43.90357" lon="1.67003">
        <ele>192.88</ele>
        <time>2021-08-18T07:38:18Z</time>
      </trkpt>
      <trkpt lat="43.90363" lon="1.67011">
        <ele>192.4</ele>
        <time>2021-08-18T07:38:19Z</time>
      </trkpt>
      <trkpt lat="43.90367" lon="1.67019">
        <ele>191.44</ele>
        <time>2021-08-18T07:38:20Z</time>
      </trkpt>
      <trkpt lat="43.9037" lon="1.67029">
        <ele>190.48</ele>
        <time>2021-08-18T07:38:21Z</time>
      </trkpt>
      <trkpt lat="43.9037" lon="1.6704">
        <ele>189.52</ele>
        <time>2021-08-18T07:38:22Z</time>
      </trkpt>
      <trkpt lat="43.90368" lon="1.67052">
        <ele>189.04</ele>
        <time>2021-08-18T07:38:23Z</time>
      </trkpt>
      <trkpt lat="43.90364" lon="1.67062">
        <ele>188.08</ele>
        <time>2021-08-18T07:38:24Z</time>
      </trkpt>
      <trkpt lat="43.90358" lon="1.67072">
        <ele>187.11</ele>
        <time>2021-08-18T07:38:25Z</time>
      </trkpt>
      <trkpt lat="43.90352" lon="1.67082">
        <ele>186.63</ele>
        <time>2021-08-18T07:38:26Z</time>
      </trkpt>
      <trkpt lat="43.90341" lon="1.67101">
        <ele>184.23</ele>
        <time>2021-08-18T07:38:28Z</time>
      </trkpt>
      <trkpt lat="43.90337" lon="1.67113">
        <ele>183.27</ele>
        <time>2021-08-18T07:38:29Z</time>
      </trkpt>
      <trkpt lat="43.90333" lon="1.67126">
        <ele>182.79</ele>
        <time>2021-08-18T07:38:30Z</time>
      </trkpt>
      <trkpt lat="43.9033" lon="1.67138">
        <ele>181.35</ele>
        <time>2021-08-18T07:38:31Z</time>
      </trkpt>
      <trkpt lat="43.90329" lon="1.67151">
        <ele>180.87</ele>
        <time>2021-08-18T07:38:32Z</time>
      </trkpt>
      <trkpt lat="43.9033" lon="1.67165">
        <ele>179.42</ele>
        <time>2021-08-18T07:38:33Z</time>
      </trkpt>
      <trkpt lat="43.90334" lon="1.6718">
        <ele>178.46</ele>
        <time>2021-08-18T07:38:34Z</time>
      </trkpt>
      <trkpt lat="43.90338" lon="1.67194">
        <ele>177.98</ele>
        <time>2021-08-18T07:38:35Z</time>
      </trkpt>
      <trkpt lat="43.90341" lon="1.67208">
        <ele>177.98</ele>
        <time>2021-08-18T07:38:36Z</time>
      </trkpt>
      <trkpt lat="43.90343" lon="1.67222">
        <ele>177.98</ele>
        <time>2021-08-18T07:38:37Z</time>
      </trkpt>
      <trkpt lat="43.90343" lon="1.67235">
        <ele>177.98</ele>
        <time>2021-08-18T07:38:38Z</time>
      </trkpt>
      <trkpt lat="43.90341" lon="1.67246">
        <ele>179.42</ele>
        <time>2021-08-18T07:38:39Z</time>
      </trkpt>
      <trkpt lat="43.9034" lon="1.67255">
        <ele>180.38</ele>
        <time>2021-08-18T07:38:40Z</time>
      </trkpt>
      <trkpt lat="43.90335" lon="1.67282">
        <ele>182.79</ele>
        <time>2021-08-18T07:38:44Z</time>
      </trkpt>
      <trkpt lat="43.90337" lon="1.6729">
        <ele>183.75</ele>
        <time>2021-08-18T07:38:46Z</time>
      </trkpt>
      <trkpt lat="43.90348" lon="1.67308">
        <ele>185.19</ele>
        <time>2021-08-18T07:38:53Z</time>
      </trkpt>
      <trkpt lat="43.90362" lon="1.67319">
        <ele>186.63</ele>
        <time>2021-08-18T07:39:00Z</time>
      </trkpt>
      <trkpt lat="43.90377" lon="1.67332">
        <ele>188.08</ele>
        <time>2021-08-18T07:39:08Z</time>
      </trkpt>
      <trkpt lat="43.90398" lon="1.67349">
        <ele>189.52</ele>
        <time>2021-08-18T07:39:17Z</time>
      </trkpt>
      <trkpt lat="43.90423" lon="1.67381">
        <ele>190.96</ele>
        <time>2021-08-18T07:39:29Z</time>
      </trkpt>
      <trkpt lat="43.90437" lon="1.67407">
        <ele>192.4</ele>
        <time>2021-08-18T07:39:37Z</time>
      </trkpt>
      <trkpt lat="43.90446" lon="1.67436">
        <ele>194.32</ele>
        <time>2021-08-18T07:39:45Z</time>
      </trkpt>
      <trkpt lat="43.90454" lon="1.67466">
        <ele>195.28</ele>
        <time>2021-08-18T07:39:53Z</time>
      </trkpt>
      <trkpt lat="43.90458" lon="1.67502">
        <ele>195.77</ele>
        <time>2021-08-18T07:40:01Z</time>
      </trkpt>
      <trkpt lat="43.90463" lon="1.67522">
        <ele>193.84</ele>
        <time>2021-08-18T07:40:04Z</time>
      </trkpt>
      <trkpt lat="43.90466" lon="1.6753">
        <ele>193.36</ele>
        <time>2021-08-18T07:40:05Z</time>
      </trkpt>
      <trkpt lat="43.9047" lon="1.67537">
        <ele>192.4</ele>
        <time>2021-08-18T07:40:06Z</time>
      </trkpt>
      <trkpt lat="43.90484" lon="1.67562">
        <ele>189.04</ele>
        <time>2021-08-18T07:40:09Z</time>
      </trkpt>
      <trkpt lat="43.90502" lon="1.67594">
        <ele>184.71</ele>
        <time>2021-08-18T07:40:12Z</time>
      </trkpt>
      <trkpt lat="43.90522" lon="1.67632">
        <ele>180.38</ele>
        <time>2021-08-18T07:40:15Z</time>
      </trkpt>
      <trkpt lat="43.90536" lon="1.67659">
        <ele>177.02</ele>
        <time>2021-08-18T07:40:17Z</time>
      </trkpt>
      <trkpt lat="43.90569" lon="1.67708">
        <ele>174.14</ele>
        <time>2021-08-18T07:40:21Z</time>
      </trkpt>
      <trkpt lat="43.90576" lon="1.67723">
        <ele>173.17</ele>
        <time>2021-08-18T07:40:22Z</time>
      </trkpt>
      <trkpt lat="43.9058" lon="1.67736">
        <ele>173.17</ele>
        <time>2021-08-18T07:40:23Z</time>
      </trkpt>
      <trkpt lat="43.90584" lon="1.67752">
        <ele>173.66</ele>
        <time>2021-08-18T07:40:24Z</time>
      </trkpt>
      <trkpt lat="43.90585" lon="1.67765">
        <ele>172.69</ele>
        <time>2021-08-18T07:40:25Z</time>
      </trkpt>
      <trkpt lat="43.90583" lon="1.67779">
        <ele>172.21</ele>
        <time>2021-08-18T07:40:26Z</time>
      </trkpt>
      <trkpt lat="43.9058" lon="1.67792">
        <ele>173.17</ele>
        <time>2021-08-18T07:40:27Z</time>
      </trkpt>
      <trkpt lat="43.90577" lon="1.67804">
        <ele>173.17</ele>
        <time>2021-08-18T07:40:28Z</time>
      </trkpt>
      <trkpt lat="43.90554" lon="1.67876">
        <ele>173.17</ele>
        <time>2021-08-18T07:40:35Z</time>
      </trkpt>
      <trkpt lat="43.90541" lon="1.67918">
        <ele>174.62</ele>
        <time>2021-08-18T07:40:40Z</time>
      </trkpt>
      <trkpt lat="43.90519" lon="1.6797">
        <ele>175.58</ele>
        <time>2021-08-18T07:40:48Z</time>
      </trkpt>
      <trkpt lat="43.90509" lon="1.67988">
        <ele>176.06</ele>
        <time>2021-08-18T07:40:51Z</time>
      </trkpt>
      <trkpt lat="43.90491" lon="1.6802">
        <ele>175.58</ele>
        <time>2021-08-18T07:40:57Z</time>
      </trkpt>
      <trkpt lat="43.90489" lon="1.68027">
        <ele>175.58</ele>
        <time>2021-08-18T07:40:58Z</time>
      </trkpt>
      <trkpt lat="43.90488" lon="1.68034">
        <ele>175.58</ele>
        <time>2021-08-18T07:40:59Z</time>
      </trkpt>
      <trkpt lat="43.90488" lon="1.68041">
        <ele>175.58</ele>
        <time>2021-08-18T07:41:00Z</time>
      </trkpt>
      <trkpt lat="43.9049" lon="1.68048">
        <ele>174.62</ele>
        <time>2021-08-18T07:41:01Z</time>
      </trkpt>
      <trkpt lat="43.90492" lon="1.68054">
        <ele>173.66</ele>
        <time>2021-08-18T07:41:02Z</time>
      </trkpt>
      <trkpt lat="43.90496" lon="1.6806">
        <ele>173.66</ele>
        <time>2021-08-18T07:41:03Z</time>
      </trkpt>
      <trkpt lat="43.905" lon="1.68065">
        <ele>173.17</ele>
        <time>2021-08-18T07:41:04Z</time>
      </trkpt>
      <trkpt lat="43.90505" lon="1.6807">
        <ele>173.17</ele>
        <time>2021-08-18T07:41:05Z</time>
      </trkpt>
      <trkpt lat="43.9051" lon="1.68074">
        <ele>173.17</ele>
        <time>2021-08-18T07:41:06Z</time>
      </trkpt>
      <trkpt lat="43.90514" lon="1.68077">
        <ele>173.17</ele>
        <time>2021-08-18T07:41:07Z</time>
      </trkpt>
      <trkpt lat="43.90516" lon="1.68082">
        <ele>173.17</ele>
        <time>2021-08-18T07:41:08Z</time>
      </trkpt>
      <trkpt lat="43.90516" lon="1.68088">
        <ele>173.17</ele>
        <time>2021-08-18T07:41:09Z</time>
      </trkpt>
      <trkpt lat="43.90513" lon="1.68098">
        <ele>173.17</ele>
        <time>2021-08-18T07:41:11Z</time>
      </trkpt>
      <trkpt lat="43.90492" lon="1.68137">
        <ele>173.17</ele>
        <time>2021-08-18T07:41:20Z</time>
      </trkpt>
      <trkpt lat="43.90465" lon="1.68187">
        <ele>173.17</ele>
        <time>2021-08-18T07:41:31Z</time>
      </trkpt>
      <trkpt lat="43.9046" lon="1.68194">
        <ele>174.14</ele>
        <time>2021-08-18T07:41:33Z</time>
      </trkpt>
      <trkpt lat="43.90443" lon="1.68236">
        <ele>174.14</ele>
        <time>2021-08-18T07:41:41Z</time>
      </trkpt>
      <trkpt lat="43.90426" lon="1.68284">
        <ele>175.1</ele>
        <time>2021-08-18T07:41:50Z</time>
      </trkpt>
      <trkpt lat="43.90412" lon="1.68305">
        <ele>175.1</ele>
        <time>2021-08-18T07:41:55Z</time>
      </trkpt>
      <trkpt lat="43.90394" lon="1.68313">
        <ele>175.1</ele>
        <time>2021-08-18T07:42:00Z</time>
      </trkpt>
      <trkpt lat="43.90388" lon="1.68315">
        <ele>175.1</ele>
        <time>2021-08-18T07:42:03Z</time>
      </trkpt>
      <trkpt lat="43.90391" lon="1.68321">
        <ele>174.62</ele>
        <time>2021-08-18T07:42:06Z</time>
      </trkpt>
      <trkpt lat="43.90409" lon="1.68343">
        <ele>174.62</ele>
        <time>2021-08-18T07:42:14Z</time>
      </trkpt>
      <trkpt lat="43.90424" lon="1.6836">
        <ele>176.06</ele>
        <time>2021-08-18T07:42:22Z</time>
      </trkpt>
      <trkpt lat="43.90436" lon="1.68373">
        <ele>177.02</ele>
        <time>2021-08-18T07:42:29Z</time>
      </trkpt>
      <trkpt lat="43.90444" lon="1.68381">
        <ele>178.46</ele>
        <time>2021-08-18T07:42:35Z</time>
      </trkpt>
      <trkpt lat="43.90448" lon="1.68385">
        <ele>178.46</ele>
        <time>2021-08-18T07:42:42Z</time>
      </trkpt>
      <trkpt lat="43.90455" lon="1.68392">
        <ele>179.9</ele>
        <time>2021-08-18T07:42:49Z</time>
      </trkpt>
      <trkpt lat="43.90465" lon="1.68403">
        <ele>180.87</ele>
        <time>2021-08-18T07:42:58Z</time>
      </trkpt>
      <trkpt lat="43.90472" lon="1.68409">
        <ele>182.31</ele>
        <time>2021-08-18T07:43:06Z</time>
      </trkpt>
      <trkpt lat="43.90478" lon="1.68416">
        <ele>183.27</ele>
        <time>2021-08-18T07:43:15Z</time>
      </trkpt>
      <trkpt lat="43.90483" lon="1.68424">
        <ele>184.71</ele>
        <time>2021-08-18T07:43:24Z</time>
      </trkpt>
      <trkpt lat="43.9049" lon="1.68433">
        <ele>186.63</ele>
        <time>2021-08-18T07:43:34Z</time>
      </trkpt>
      <trkpt lat="43.90497" lon="1.68442">
        <ele>188.08</ele>
        <time>2021-08-18T07:43:44Z</time>
      </trkpt>
      <trkpt lat="43.90501" lon="1.68449">
        <ele>189.04</ele>
        <time>2021-08-18T07:43:52Z</time>
      </trkpt>
      <trkpt lat="43.90507" lon="1.68454">
        <ele>190</ele>
        <time>2021-08-18T07:44:01Z</time>
      </trkpt>
      <trkpt lat="43.90513" lon="1.68461">
        <ele>191.92</ele>
        <time>2021-08-18T07:44:10Z</time>
      </trkpt>
      <trkpt lat="43.90519" lon="1.68466">
        <ele>193.84</ele>
        <time>2021-08-18T07:44:21Z</time>
      </trkpt>
      <trkpt lat="43.90523" lon="1.6847">
        <ele>194.8</ele>
        <time>2021-08-18T07:44:30Z</time>
      </trkpt>
      <trkpt lat="43.90529" lon="1.68476">
        <ele>196.25</ele>
        <time>2021-08-18T07:44:40Z</time>
      </trkpt>
      <trkpt lat="43.90535" lon="1.68482">
        <ele>198.17</ele>
        <time>2021-08-18T07:44:51Z</time>
      </trkpt>
      <trkpt lat="43.90536" lon="1.68482">
        <ele>198.65</ele>
        <time>2021-08-18T07:44:59Z</time>
      </trkpt>
      <trkpt lat="43.90541" lon="1.68487">
        <ele>199.61</ele>
        <time>2021-08-18T07:45:07Z</time>
      </trkpt>
      <trkpt lat="43.90545" lon="1.6849">
        <ele>200.57</ele>
        <time>2021-08-18T07:45:13Z</time>
      </trkpt>
      <trkpt lat="43.90551" lon="1.68499">
        <ele>202.01</ele>
        <time>2021-08-18T07:45:23Z</time>
      </trkpt>
      <trkpt lat="43.90558" lon="1.68511">
        <ele>203.46</ele>
        <time>2021-08-18T07:45:35Z</time>
      </trkpt>
      <trkpt lat="43.90563" lon="1.6852">
        <ele>205.38</ele>
        <time>2021-08-18T07:45:47Z</time>
      </trkpt>
      <trkpt lat="43.90562" lon="1.6852">
        <ele>205.38</ele>
        <time>2021-08-18T07:45:59Z</time>
      </trkpt>
      <trkpt lat="43.90565" lon="1.68525">
        <ele>206.34</ele>
        <time>2021-08-18T07:46:07Z</time>
      </trkpt>
      <trkpt lat="43.9057" lon="1.68535">
        <ele>208.26</ele>
        <time>2021-08-18T07:46:17Z</time>
      </trkpt>
      <trkpt lat="43.90574" lon="1.68543">
        <ele>209.7</ele>
        <time>2021-08-18T07:46:27Z</time>
      </trkpt>
      <trkpt lat="43.90577" lon="1.68547">
        <ele>210.67</ele>
        <time>2021-08-18T07:46:34Z</time>
      </trkpt>
      <trkpt lat="43.90578" lon="1.68548">
        <ele>211.15</ele>
        <time>2021-08-18T07:46:36Z</time>
      </trkpt>
      <trkpt lat="43.90579" lon="1.68548">
        <ele>212.11</ele>
        <time>2021-08-18T07:46:39Z</time>
      </trkpt>
      <trkpt lat="43.90585" lon="1.68558">
        <ele>213.55</ele>
        <time>2021-08-18T07:46:49Z</time>
      </trkpt>
      <trkpt lat="43.9059" lon="1.68564">
        <ele>215.47</ele>
        <time>2021-08-18T07:46:59Z</time>
      </trkpt>
      <trkpt lat="43.90593" lon="1.68566">
        <ele>215.95</ele>
        <time>2021-08-18T07:47:08Z</time>
      </trkpt>
      <trkpt lat="43.90598" lon="1.6857">
        <ele>218.84</ele>
        <time>2021-08-18T07:47:18Z</time>
      </trkpt>
      <trkpt lat="43.90601" lon="1.68574">
        <ele>220.28</ele>
        <time>2021-08-18T07:47:27Z</time>
      </trkpt>
      <trkpt lat="43.90603" lon="1.68577">
        <ele>221.72</ele>
        <time>2021-08-18T07:47:35Z</time>
      </trkpt>
      <trkpt lat="43.90609" lon="1.6858">
        <ele>224.12</ele>
        <time>2021-08-18T07:47:46Z</time>
      </trkpt>
      <trkpt lat="43.90612" lon="1.68584">
        <ele>224.61</ele>
        <time>2021-08-18T07:47:52Z</time>
      </trkpt>
      <trkpt lat="43.90613" lon="1.68591">
        <ele>225.57</ele>
        <time>2021-08-18T07:47:59Z</time>
      </trkpt>
      <trkpt lat="43.90614" lon="1.6859">
        <ele>225.57</ele>
        <time>2021-08-18T07:48:15Z</time>
      </trkpt>
      <trkpt lat="43.90618" lon="1.68591">
        <ele>225.57</ele>
        <time>2021-08-18T07:48:29Z</time>
      </trkpt>
      <trkpt lat="43.90619" lon="1.68594">
        <ele>225.57</ele>
        <time>2021-08-18T07:48:45Z</time>
      </trkpt>
      <trkpt lat="43.90619" lon="1.68592">
        <ele>225.57</ele>
        <time>2021-08-18T07:48:53Z</time>
      </trkpt>
      <trkpt lat="43.90619" lon="1.6859">
        <ele>225.57</ele>
        <time>2021-08-18T07:49:01Z</time>
      </trkpt>
      <trkpt lat="43.90619" lon="1.68589">
        <ele>225.57</ele>
        <time>2021-08-18T07:49:02Z</time>
      </trkpt>
      <trkpt lat="43.90604" lon="1.68577">
        <ele>220.28</ele>
        <time>2021-08-18T07:49:08Z</time>
      </trkpt>
      <trkpt lat="43.90597" lon="1.68571">
        <ele>217.4</ele>
        <time>2021-08-18T07:49:10Z</time>
      </trkpt>
      <trkpt lat="43.90583" lon="1.68555">
        <ele>212.59</ele>
        <time>2021-08-18T07:49:14Z</time>
      </trkpt>
      <trkpt lat="43.90573" lon="1.6854">
        <ele>208.74</ele>
        <time>2021-08-18T07:49:18Z</time>
      </trkpt>
      <trkpt lat="43.90565" lon="1.68525">
        <ele>205.86</ele>
        <time>2021-08-18T07:49:21Z</time>
      </trkpt>
      <trkpt lat="43.90554" lon="1.68505">
        <ele>202.01</ele>
        <time>2021-08-18T07:49:25Z</time>
      </trkpt>
      <trkpt lat="43.90542" lon="1.68489">
        <ele>198.65</ele>
        <time>2021-08-18T07:49:30Z</time>
      </trkpt>
      <trkpt lat="43.90525" lon="1.68474">
        <ele>195.28</ele>
        <time>2021-08-18T07:49:36Z</time>
      </trkpt>
      <trkpt lat="43.90513" lon="1.68462">
        <ele>191.92</ele>
        <time>2021-08-18T07:49:40Z</time>
      </trkpt>
      <trkpt lat="43.90502" lon="1.68451">
        <ele>189.04</ele>
        <time>2021-08-18T07:49:43Z</time>
      </trkpt>
      <trkpt lat="43.90488" lon="1.68433">
        <ele>184.71</ele>
        <time>2021-08-18T07:49:47Z</time>
      </trkpt>
      <trkpt lat="43.90484" lon="1.68428">
        <ele>183.75</ele>
        <time>2021-08-18T07:49:48Z</time>
      </trkpt>
      <trkpt lat="43.90477" lon="1.68417">
        <ele>182.31</ele>
        <time>2021-08-18T07:49:50Z</time>
      </trkpt>
      <trkpt lat="43.90453" lon="1.68393">
        <ele>177.98</ele>
        <time>2021-08-18T07:49:55Z</time>
      </trkpt>
      <trkpt lat="43.90448" lon="1.68387">
        <ele>177.02</ele>
        <time>2021-08-18T07:49:56Z</time>
      </trkpt>
      <trkpt lat="43.90422" lon="1.6836">
        <ele>174.62</ele>
        <time>2021-08-18T07:50:01Z</time>
      </trkpt>
      <trkpt lat="43.90389" lon="1.68318">
        <ele>173.17</ele>
        <time>2021-08-18T07:50:09Z</time>
      </trkpt>
      <trkpt lat="43.90388" lon="1.68312">
        <ele>173.66</ele>
        <time>2021-08-18T07:50:15Z</time>
      </trkpt>
      <trkpt lat="43.90388" lon="1.68311">
        <ele>173.66</ele>
        <time>2021-08-18T07:50:28Z</time>
      </trkpt>
      <trkpt lat="43.9039" lon="1.6831">
        <ele>173.17</ele>
        <time>2021-08-18T07:50:44Z</time>
      </trkpt>
      <trkpt lat="43.90388" lon="1.6831">
        <ele>173.17</ele>
        <time>2021-08-18T07:51:06Z</time>
      </trkpt>
      <trkpt lat="43.90389" lon="1.68311">
        <ele>173.17</ele>
        <time>2021-08-18T07:51:28Z</time>
      </trkpt>
      <trkpt lat="43.90387" lon="1.68312">
        <ele>173.17</ele>
        <time>2021-08-18T07:51:38Z</time>
      </trkpt>
      <trkpt lat="43.90388" lon="1.68311">
        <ele>173.17</ele>
        <time>2021-08-18T07:51:40Z</time>
      </trkpt>
      <trkpt lat="43.90398" lon="1.68313">
        <ele>173.17</ele>
        <time>2021-08-18T07:51:49Z</time>
      </trkpt>
      <trkpt lat="43.90399" lon="1.68313">
        <ele>173.17</ele>
        <time>2021-08-18T07:51:50Z</time>
      </trkpt>
      <trkpt lat="43.90409" lon="1.68308">
        <ele>173.17</ele>
        <time>2021-08-18T07:51:55Z</time>
      </trkpt>
      <trkpt lat="43.90426" lon="1.6828">
        <ele>173.17</ele>
        <time>2021-08-18T07:52:03Z</time>
      </trkpt>
      <trkpt lat="43.9044" lon="1.6824">
        <ele>172.69</ele>
        <time>2021-08-18T07:52:11Z</time>
      </trkpt>
      <trkpt lat="43.90448" lon="1.68219">
        <ele>172.21</ele>
        <time>2021-08-18T07:52:15Z</time>
      </trkpt>
      <trkpt lat="43.9047" lon="1.68173">
        <ele>172.21</ele>
        <time>2021-08-18T07:52:24Z</time>
      </trkpt>
      <trkpt lat="43.90497" lon="1.68123">
        <ele>170.77</ele>
        <time>2021-08-18T07:52:33Z</time>
      </trkpt>
      <trkpt lat="43.90509" lon="1.68099">
        <ele>170.77</ele>
        <time>2021-08-18T07:52:37Z</time>
      </trkpt>
      <trkpt lat="43.90511" lon="1.68079">
        <ele>170.77</ele>
        <time>2021-08-18T07:52:41Z</time>
      </trkpt>
      <trkpt lat="43.90509" lon="1.68076">
        <ele>170.77</ele>
        <time>2021-08-18T07:52:42Z</time>
      </trkpt>
      <trkpt lat="43.90506" lon="1.68074">
        <ele>170.77</ele>
        <time>2021-08-18T07:52:43Z</time>
      </trkpt>
      <trkpt lat="43.90502" lon="1.68071">
        <ele>170.77</ele>
        <time>2021-08-18T07:52:44Z</time>
      </trkpt>
      <trkpt lat="43.90499" lon="1.68067">
        <ele>170.77</ele>
        <time>2021-08-18T07:52:45Z</time>
      </trkpt>
      <trkpt lat="43.90495" lon="1.68063">
        <ele>170.77</ele>
        <time>2021-08-18T07:52:46Z</time>
      </trkpt>
      <trkpt lat="43.90492" lon="1.68059">
        <ele>170.77</ele>
        <time>2021-08-18T07:52:47Z</time>
      </trkpt>
      <trkpt lat="43.90489" lon="1.68054">
        <ele>172.21</ele>
        <time>2021-08-18T07:52:48Z</time>
      </trkpt>
      <trkpt lat="43.90488" lon="1.6805">
        <ele>172.21</ele>
        <time>2021-08-18T07:52:49Z</time>
      </trkpt>
      <trkpt lat="43.90487" lon="1.68045">
        <ele>172.69</ele>
        <time>2021-08-18T07:52:50Z</time>
      </trkpt>
      <trkpt lat="43.90487" lon="1.6804">
        <ele>172.69</ele>
        <time>2021-08-18T07:52:51Z</time>
      </trkpt>
      <trkpt lat="43.90487" lon="1.68036">
        <ele>173.17</ele>
        <time>2021-08-18T07:52:52Z</time>
      </trkpt>
      <trkpt lat="43.90488" lon="1.68032">
        <ele>173.66</ele>
        <time>2021-08-18T07:52:53Z</time>
      </trkpt>
      <trkpt lat="43.90489" lon="1.68028">
        <ele>173.66</ele>
        <time>2021-08-18T07:52:54Z</time>
      </trkpt>
      <trkpt lat="43.9049" lon="1.68025">
        <ele>174.14</ele>
        <time>2021-08-18T07:52:55Z</time>
      </trkpt>
      <trkpt lat="43.90491" lon="1.68021">
        <ele>174.14</ele>
        <time>2021-08-18T07:52:56Z</time>
      </trkpt>
      <trkpt lat="43.90508" lon="1.6799">
        <ele>174.14</ele>
        <time>2021-08-18T07:53:04Z</time>
      </trkpt>
      <trkpt lat="43.90528" lon="1.6795">
        <ele>174.14</ele>
        <time>2021-08-18T07:53:12Z</time>
      </trkpt>
      <trkpt lat="43.90539" lon="1.67919">
        <ele>172.69</ele>
        <time>2021-08-18T07:53:17Z</time>
      </trkpt>
      <trkpt lat="43.90541" lon="1.67913">
        <ele>172.69</ele>
        <time>2021-08-18T07:53:18Z</time>
      </trkpt>
      <trkpt lat="43.90559" lon="1.67857">
        <ele>172.21</ele>
        <time>2021-08-18T07:53:26Z</time>
      </trkpt>
      <trkpt lat="43.90574" lon="1.67812">
        <ele>172.21</ele>
        <time>2021-08-18T07:53:33Z</time>
      </trkpt>
      <trkpt lat="43.90582" lon="1.67787">
        <ele>172.21</ele>
        <time>2021-08-18T07:53:37Z</time>
      </trkpt>
      <trkpt lat="43.90585" lon="1.67765">
        <ele>172.21</ele>
        <time>2021-08-18T07:53:40Z</time>
      </trkpt>
      <trkpt lat="43.90585" lon="1.67759">
        <ele>172.21</ele>
        <time>2021-08-18T07:53:41Z</time>
      </trkpt>
      <trkpt lat="43.90584" lon="1.67752">
        <ele>172.21</ele>
        <time>2021-08-18T07:53:42Z</time>
      </trkpt>
      <trkpt lat="43.90583" lon="1.67745">
        <ele>172.21</ele>
        <time>2021-08-18T07:53:43Z</time>
      </trkpt>
      <trkpt lat="43.90582" lon="1.6774">
        <ele>172.21</ele>
        <time>2021-08-18T07:53:44Z</time>
      </trkpt>
      <trkpt lat="43.9058" lon="1.67734">
        <ele>172.21</ele>
        <time>2021-08-18T07:53:45Z</time>
      </trkpt>
      <trkpt lat="43.90579" lon="1.67729">
        <ele>172.21</ele>
        <time>2021-08-18T07:53:46Z</time>
      </trkpt>
      <trkpt lat="43.90572" lon="1.67712">
        <ele>173.66</ele>
        <time>2021-08-18T07:53:50Z</time>
      </trkpt>
      <trkpt lat="43.90557" lon="1.67689">
        <ele>175.1</ele>
        <time>2021-08-18T07:53:58Z</time>
      </trkpt>
      <trkpt lat="43.90538" lon="1.67663">
        <ele>176.54</ele>
        <time>2021-08-18T07:54:09Z</time>
      </trkpt>
      <trkpt lat="43.90525" lon="1.67638">
        <ele>178.46</ele>
        <time>2021-08-18T07:54:20Z</time>
      </trkpt>
      <trkpt lat="43.90523" lon="1.67634">
        <ele>178.94</ele>
        <time>2021-08-18T07:54:22Z</time>
      </trkpt>
      <trkpt lat="43.90523" lon="1.67632">
        <ele>178.94</ele>
        <time>2021-08-18T07:54:23Z</time>
      </trkpt>
      <trkpt lat="43.90522" lon="1.6763">
        <ele>179.42</ele>
        <time>2021-08-18T07:54:24Z</time>
      </trkpt>
      <trkpt lat="43.90521" lon="1.67628">
        <ele>179.42</ele>
        <time>2021-08-18T07:54:25Z</time>
      </trkpt>
      <trkpt lat="43.9052" lon="1.67626">
        <ele>179.42</ele>
        <time>2021-08-18T07:54:26Z</time>
      </trkpt>
      <trkpt lat="43.9052" lon="1.67624">
        <ele>179.9</ele>
        <time>2021-08-18T07:54:27Z</time>
      </trkpt>
      <trkpt lat="43.90519" lon="1.67622">
        <ele>179.9</ele>
        <time>2021-08-18T07:54:28Z</time>
      </trkpt>
      <trkpt lat="43.90518" lon="1.6762">
        <ele>180.38</ele>
        <time>2021-08-18T07:54:29Z</time>
      </trkpt>
      <trkpt lat="43.90517" lon="1.67617">
        <ele>179.9</ele>
        <time>2021-08-18T07:54:30Z</time>
      </trkpt>
      <trkpt lat="43.90516" lon="1.67615">
        <ele>180.38</ele>
        <time>2021-08-18T07:54:31Z</time>
      </trkpt>
      <trkpt lat="43.90515" lon="1.67613">
        <ele>180.87</ele>
        <time>2021-08-18T07:54:32Z</time>
      </trkpt>
      <trkpt lat="43.90514" lon="1.67611">
        <ele>180.87</ele>
        <time>2021-08-18T07:54:33Z</time>
      </trkpt>
      <trkpt lat="43.90513" lon="1.6761">
        <ele>180.87</ele>
        <time>2021-08-18T07:54:34Z</time>
      </trkpt>
      <trkpt lat="43.90512" lon="1.67608">
        <ele>181.35</ele>
        <time>2021-08-18T07:54:35Z</time>
      </trkpt>
      <trkpt lat="43.90511" lon="1.67607">
        <ele>181.35</ele>
        <time>2021-08-18T07:54:36Z</time>
      </trkpt>
      <trkpt lat="43.90503" lon="1.67593">
        <ele>182.79</ele>
        <time>2021-08-18T07:54:45Z</time>
      </trkpt>
      <trkpt lat="43.90493" lon="1.67576">
        <ele>185.19</ele>
        <time>2021-08-18T07:54:55Z</time>
      </trkpt>
      <trkpt lat="43.90483" lon="1.67561">
        <ele>186.63</ele>
        <time>2021-08-18T07:55:05Z</time>
      </trkpt>
      <trkpt lat="43.90482" lon="1.67559">
        <ele>187.11</ele>
        <time>2021-08-18T07:55:06Z</time>
      </trkpt>
      <trkpt lat="43.90482" lon="1.67557">
        <ele>187.11</ele>
        <time>2021-08-18T07:55:07Z</time>
      </trkpt>
      <trkpt lat="43.90481" lon="1.67556">
        <ele>187.59</ele>
        <time>2021-08-18T07:55:08Z</time>
      </trkpt>
      <trkpt lat="43.90479" lon="1.67554">
        <ele>187.59</ele>
        <time>2021-08-18T07:55:09Z</time>
      </trkpt>
      <trkpt lat="43.90478" lon="1.67552">
        <ele>188.08</ele>
        <time>2021-08-18T07:55:10Z</time>
      </trkpt>
      <trkpt lat="43.90469" lon="1.67537">
        <ele>189.52</ele>
        <time>2021-08-18T07:55:17Z</time>
      </trkpt>
      <trkpt lat="43.90461" lon="1.67511">
        <ele>191.44</ele>
        <time>2021-08-18T07:55:27Z</time>
      </trkpt>
      <trkpt lat="43.90454" lon="1.67477">
        <ele>192.88</ele>
        <time>2021-08-18T07:55:38Z</time>
      </trkpt>
      <trkpt lat="43.90451" lon="1.67443">
        <ele>190.96</ele>
        <time>2021-08-18T07:55:45Z</time>
      </trkpt>
      <trkpt lat="43.90449" lon="1.67437">
        <ele>190.96</ele>
        <time>2021-08-18T07:55:46Z</time>
      </trkpt>
      <trkpt lat="43.90432" lon="1.67393">
        <ele>188.08</ele>
        <time>2021-08-18T07:55:52Z</time>
      </trkpt>
      <trkpt lat="43.90423" lon="1.67377">
        <ele>186.63</ele>
        <time>2021-08-18T07:55:54Z</time>
      </trkpt>
      <trkpt lat="43.90418" lon="1.67369">
        <ele>186.15</ele>
        <time>2021-08-18T07:55:55Z</time>
      </trkpt>
      <trkpt lat="43.90411" lon="1.67362">
        <ele>186.15</ele>
        <time>2021-08-18T07:55:56Z</time>
      </trkpt>
      <trkpt lat="43.90405" lon="1.67356">
        <ele>185.19</ele>
        <time>2021-08-18T07:55:57Z</time>
      </trkpt>
      <trkpt lat="43.90398" lon="1.6735">
        <ele>184.71</ele>
        <time>2021-08-18T07:55:58Z</time>
      </trkpt>
      <trkpt lat="43.90384" lon="1.67338">
        <ele>183.75</ele>
        <time>2021-08-18T07:56:00Z</time>
      </trkpt>
      <trkpt lat="43.90349" lon="1.67307">
        <ele>181.35</ele>
        <time>2021-08-18T07:56:06Z</time>
      </trkpt>
      <trkpt lat="43.90344" lon="1.67302">
        <ele>180.87</ele>
        <time>2021-08-18T07:56:07Z</time>
      </trkpt>
      <trkpt lat="43.90341" lon="1.67296">
        <ele>180.87</ele>
        <time>2021-08-18T07:56:08Z</time>
      </trkpt>
      <trkpt lat="43.90339" lon="1.67288">
        <ele>180.38</ele>
        <time>2021-08-18T07:56:09Z</time>
      </trkpt>
      <trkpt lat="43.90339" lon="1.67278">
        <ele>178.94</ele>
        <time>2021-08-18T07:56:10Z</time>
      </trkpt>
      <trkpt lat="43.9034" lon="1.67268">
        <ele>178.46</ele>
        <time>2021-08-18T07:56:11Z</time>
      </trkpt>
      <trkpt lat="43.90342" lon="1.67258">
        <ele>177.5</ele>
        <time>2021-08-18T07:56:12Z</time>
      </trkpt>
      <trkpt lat="43.90344" lon="1.67248">
        <ele>176.54</ele>
        <time>2021-08-18T07:56:13Z</time>
      </trkpt>
      <trkpt lat="43.90345" lon="1.67236">
        <ele>176.06</ele>
        <time>2021-08-18T07:56:14Z</time>
      </trkpt>
      <trkpt lat="43.90345" lon="1.67225">
        <ele>175.58</ele>
        <time>2021-08-18T07:56:15Z</time>
      </trkpt>
      <trkpt lat="43.90343" lon="1.67213">
        <ele>175.58</ele>
        <time>2021-08-18T07:56:16Z</time>
      </trkpt>
      <trkpt lat="43.9034" lon="1.67202">
        <ele>175.58</ele>
        <time>2021-08-18T07:56:17Z</time>
      </trkpt>
      <trkpt lat="43.90337" lon="1.67191">
        <ele>175.1</ele>
        <time>2021-08-18T07:56:18Z</time>
      </trkpt>
      <trkpt lat="43.90331" lon="1.67171">
        <ele>175.1</ele>
        <time>2021-08-18T07:56:20Z</time>
      </trkpt>
      <trkpt lat="43.9033" lon="1.67162">
        <ele>176.06</ele>
        <time>2021-08-18T07:56:21Z</time>
      </trkpt>
      <trkpt lat="43.9033" lon="1.67155">
        <ele>177.02</ele>
        <time>2021-08-18T07:56:22Z</time>
      </trkpt>
      <trkpt lat="43.90332" lon="1.67142">
        <ele>178.46</ele>
        <time>2021-08-18T07:56:25Z</time>
      </trkpt>
      <trkpt lat="43.90334" lon="1.6713">
        <ele>179.9</ele>
        <time>2021-08-18T07:56:30Z</time>
      </trkpt>
      <trkpt lat="43.90338" lon="1.67114">
        <ele>181.35</ele>
        <time>2021-08-18T07:56:38Z</time>
      </trkpt>
      <trkpt lat="43.90343" lon="1.671">
        <ele>182.79</ele>
        <time>2021-08-18T07:56:45Z</time>
      </trkpt>
      <trkpt lat="43.9035" lon="1.67085">
        <ele>183.75</ele>
        <time>2021-08-18T07:56:53Z</time>
      </trkpt>
      <trkpt lat="43.90358" lon="1.67069">
        <ele>185.19</ele>
        <time>2021-08-18T07:57:01Z</time>
      </trkpt>
      <trkpt lat="43.90366" lon="1.67047">
        <ele>186.63</ele>
        <time>2021-08-18T07:57:10Z</time>
      </trkpt>
      <trkpt lat="43.90365" lon="1.67026">
        <ele>188.08</ele>
        <time>2021-08-18T07:57:19Z</time>
      </trkpt>
      <trkpt lat="43.9036" lon="1.67017">
        <ele>189.04</ele>
        <time>2021-08-18T07:57:25Z</time>
      </trkpt>
      <trkpt lat="43.90353" lon="1.67">
        <ele>190.48</ele>
        <time>2021-08-18T07:57:34Z</time>
      </trkpt>
      <trkpt lat="43.9035" lon="1.66982">
        <ele>191.92</ele>
        <time>2021-08-18T07:57:42Z</time>
      </trkpt>
      <trkpt lat="43.90353" lon="1.66959">
        <ele>193.36</ele>
        <time>2021-08-18T07:57:51Z</time>
      </trkpt>
      <trkpt lat="43.90356" lon="1.66942">
        <ele>194.8</ele>
        <time>2021-08-18T07:57:59Z</time>
      </trkpt>
      <trkpt lat="43.90358" lon="1.66934">
        <ele>195.28</ele>
        <time>2021-08-18T07:58:03Z</time>
      </trkpt>
      <trkpt lat="43.90359" lon="1.66932">
        <ele>195.77</ele>
        <time>2021-08-18T07:58:04Z</time>
      </trkpt>
      <trkpt lat="43.90361" lon="1.6691">
        <ele>197.21</ele>
        <time>2021-08-18T07:58:14Z</time>
      </trkpt>
      <trkpt lat="43.90363" lon="1.66896">
        <ele>198.17</ele>
        <time>2021-08-18T07:58:21Z</time>
      </trkpt>
      <trkpt lat="43.90366" lon="1.66885">
        <ele>198.65</ele>
        <time>2021-08-18T07:58:25Z</time>
      </trkpt>
      <trkpt lat="43.90366" lon="1.66883">
        <ele>198.65</ele>
        <time>2021-08-18T07:58:26Z</time>
      </trkpt>
      <trkpt lat="43.90366" lon="1.66881">
        <ele>199.13</ele>
        <time>2021-08-18T07:58:27Z</time>
      </trkpt>
      <trkpt lat="43.90367" lon="1.66879">
        <ele>199.13</ele>
        <time>2021-08-18T07:58:28Z</time>
      </trkpt>
      <trkpt lat="43.90367" lon="1.66876">
        <ele>199.61</ele>
        <time>2021-08-18T07:58:29Z</time>
      </trkpt>
      <trkpt lat="43.90373" lon="1.66859">
        <ele>200.57</ele>
        <time>2021-08-18T07:58:37Z</time>
      </trkpt>
      <trkpt lat="43.90379" lon="1.66842">
        <ele>202.01</ele>
        <time>2021-08-18T07:58:45Z</time>
      </trkpt>
      <trkpt lat="43.9038" lon="1.66841">
        <ele>202.01</ele>
        <time>2021-08-18T07:58:46Z</time>
      </trkpt>
      <trkpt lat="43.90381" lon="1.6684">
        <ele>202.01</ele>
        <time>2021-08-18T07:58:47Z</time>
      </trkpt>
      <trkpt lat="43.90382" lon="1.66838">
        <ele>202.49</ele>
        <time>2021-08-18T07:58:48Z</time>
      </trkpt>
      <trkpt lat="43.90383" lon="1.66836">
        <ele>202.49</ele>
        <time>2021-08-18T07:58:49Z</time>
      </trkpt>
      <trkpt lat="43.90393" lon="1.66815">
        <ele>203.46</ele>
        <time>2021-08-18T07:58:57Z</time>
      </trkpt>
      <trkpt lat="43.90405" lon="1.66797">
        <ele>204.9</ele>
        <time>2021-08-18T07:59:05Z</time>
      </trkpt>
      <trkpt lat="43.90419" lon="1.66773">
        <ele>206.34</ele>
        <time>2021-08-18T07:59:16Z</time>
      </trkpt>
      <trkpt lat="43.90419" lon="1.66756">
        <ele>207.3</ele>
        <time>2021-08-18T07:59:23Z</time>
      </trkpt>
      <trkpt lat="43.90412" lon="1.66746">
        <ele>208.74</ele>
        <time>2021-08-18T07:59:30Z</time>
      </trkpt>
      <trkpt lat="43.90401" lon="1.6675">
        <ele>210.19</ele>
        <time>2021-08-18T07:59:37Z</time>
      </trkpt>
      <trkpt lat="43.90383" lon="1.66757">
        <ele>212.59</ele>
        <time>2021-08-18T07:59:48Z</time>
      </trkpt>
      <trkpt lat="43.90369" lon="1.66758">
        <ele>214.51</ele>
        <time>2021-08-18T07:59:58Z</time>
      </trkpt>
      <trkpt lat="43.90351" lon="1.66758">
        <ele>216.43</ele>
        <time>2021-08-18T08:00:10Z</time>
      </trkpt>
      <trkpt lat="43.90337" lon="1.66758">
        <ele>218.84</ele>
        <time>2021-08-18T08:00:19Z</time>
      </trkpt>
      <trkpt lat="43.90326" lon="1.66756">
        <ele>220.28</ele>
        <time>2021-08-18T08:00:27Z</time>
      </trkpt>
      <trkpt lat="43.90325" lon="1.66755">
        <ele>220.28</ele>
        <time>2021-08-18T08:00:28Z</time>
      </trkpt>
      <trkpt lat="43.90324" lon="1.66755">
        <ele>220.76</ele>
        <time>2021-08-18T08:00:29Z</time>
      </trkpt>
      <trkpt lat="43.90323" lon="1.66755">
        <ele>220.76</ele>
        <time>2021-08-18T08:00:30Z</time>
      </trkpt>
      <trkpt lat="43.90321" lon="1.66755">
        <ele>221.24</ele>
        <time>2021-08-18T08:00:31Z</time>
      </trkpt>
      <trkpt lat="43.9032" lon="1.66754">
        <ele>221.24</ele>
        <time>2021-08-18T08:00:32Z</time>
      </trkpt>
      <trkpt lat="43.90319" lon="1.66754">
        <ele>221.24</ele>
        <time>2021-08-18T08:00:33Z</time>
      </trkpt>
      <trkpt lat="43.90317" lon="1.66754">
        <ele>221.72</ele>
        <time>2021-08-18T08:00:34Z</time>
      </trkpt>
      <trkpt lat="43.90316" lon="1.66754">
        <ele>221.72</ele>
        <time>2021-08-18T08:00:35Z</time>
      </trkpt>
      <trkpt lat="43.90315" lon="1.66753">
        <ele>222.2</ele>
        <time>2021-08-18T08:00:36Z</time>
      </trkpt>
      <trkpt lat="43.90313" lon="1.66753">
        <ele>222.2</ele>
        <time>2021-08-18T08:00:37Z</time>
      </trkpt>
      <trkpt lat="43.90312" lon="1.66753">
        <ele>222.68</ele>
        <time>2021-08-18T08:00:38Z</time>
      </trkpt>
      <trkpt lat="43.90298" lon="1.66749">
        <ele>224.12</ele>
        <time>2021-08-18T08:00:48Z</time>
      </trkpt>
      <trkpt lat="43.90284" lon="1.66744">
        <ele>226.05</ele>
        <time>2021-08-18T08:00:56Z</time>
      </trkpt>
      <trkpt lat="43.90282" lon="1.66741">
        <ele>226.53</ele>
        <time>2021-08-18T08:00:58Z</time>
      </trkpt>
      <trkpt lat="43.9028" lon="1.6674">
        <ele>226.53</ele>
        <time>2021-08-18T08:00:59Z</time>
      </trkpt>
      <trkpt lat="43.90279" lon="1.66741">
        <ele>226.53</ele>
        <time>2021-08-18T08:01:00Z</time>
      </trkpt>
      <trkpt lat="43.90277" lon="1.66742">
        <ele>226.53</ele>
        <time>2021-08-18T08:01:01Z</time>
      </trkpt>
      <trkpt lat="43.90275" lon="1.66744">
        <ele>226.53</ele>
        <time>2021-08-18T08:01:02Z</time>
      </trkpt>
      <trkpt lat="43.90266" lon="1.6675">
        <ele>226.53</ele>
        <time>2021-08-18T08:01:06Z</time>
      </trkpt>
      <trkpt lat="43.90263" lon="1.66749">
        <ele>226.53</ele>
        <time>2021-08-18T08:01:07Z</time>
      </trkpt>
      <trkpt lat="43.90261" lon="1.66747">
        <ele>226.53</ele>
        <time>2021-08-18T08:01:08Z</time>
      </trkpt>
      <trkpt lat="43.90259" lon="1.66746">
        <ele>226.53</ele>
        <time>2021-08-18T08:01:09Z</time>
      </trkpt>
      <trkpt lat="43.90257" lon="1.66744">
        <ele>226.05</ele>
        <time>2021-08-18T08:01:10Z</time>
      </trkpt>
      <trkpt lat="43.90255" lon="1.66741">
        <ele>226.05</ele>
        <time>2021-08-18T08:01:11Z</time>
      </trkpt>
      <trkpt lat="43.9025" lon="1.66729">
        <ele>224.12</ele>
        <time>2021-08-18T08:01:14Z</time>
      </trkpt>
      <trkpt lat="43.90248" lon="1.66724">
        <ele>223.64</ele>
        <time>2021-08-18T08:01:15Z</time>
      </trkpt>
      <trkpt lat="43.90247" lon="1.66718">
        <ele>223.64</ele>
        <time>2021-08-18T08:01:16Z</time>
      </trkpt>
      <trkpt lat="43.90244" lon="1.66688">
        <ele>220.28</ele>
        <time>2021-08-18T08:01:20Z</time>
      </trkpt>
      <trkpt lat="43.90242" lon="1.66654">
        <ele>216.43</ele>
        <time>2021-08-18T08:01:24Z</time>
      </trkpt>
      <trkpt lat="43.90239" lon="1.66625">
        <ele>213.07</ele>
        <time>2021-08-18T08:01:27Z</time>
      </trkpt>
      <trkpt lat="43.90238" lon="1.66592">
        <ele>209.7</ele>
        <time>2021-08-18T08:01:30Z</time>
      </trkpt>
      <trkpt lat="43.90238" lon="1.66567">
        <ele>206.82</ele>
        <time>2021-08-18T08:01:32Z</time>
      </trkpt>
      <trkpt lat="43.9024" lon="1.66528">
        <ele>204.42</ele>
        <time>2021-08-18T08:01:35Z</time>
      </trkpt>
      <trkpt lat="43.9025" lon="1.6646">
        <ele>203.94</ele>
        <time>2021-08-18T08:01:41Z</time>
      </trkpt>
      <trkpt lat="43.90252" lon="1.66434">
        <ele>203.94</ele>
        <time>2021-08-18T08:01:44Z</time>
      </trkpt>
      <trkpt lat="43.90254" lon="1.66407">
        <ele>205.38</ele>
        <time>2021-08-18T08:01:48Z</time>
      </trkpt>
      <trkpt lat="43.90255" lon="1.66363">
        <ele>206.34</ele>
        <time>2021-08-18T08:01:56Z</time>
      </trkpt>
      <trkpt lat="43.90253" lon="1.66321">
        <ele>207.3</ele>
        <time>2021-08-18T08:02:04Z</time>
      </trkpt>
      <trkpt lat="43.90247" lon="1.66284">
        <ele>205.38</ele>
        <time>2021-08-18T08:02:10Z</time>
      </trkpt>
      <trkpt lat="43.9024" lon="1.66255">
        <ele>203.94</ele>
        <time>2021-08-18T08:02:14Z</time>
      </trkpt>
      <trkpt lat="43.90238" lon="1.66249">
        <ele>203.46</ele>
        <time>2021-08-18T08:02:15Z</time>
      </trkpt>
      <trkpt lat="43.90224" lon="1.66196">
        <ele>200.57</ele>
        <time>2021-08-18T08:02:21Z</time>
      </trkpt>
      <trkpt lat="43.90212" lon="1.66148">
        <ele>197.21</ele>
        <time>2021-08-18T08:02:26Z</time>
      </trkpt>
      <trkpt lat="43.90204" lon="1.66104">
        <ele>193.84</ele>
        <time>2021-08-18T08:02:30Z</time>
      </trkpt>
      <trkpt lat="43.90197" lon="1.66051">
        <ele>190.48</ele>
        <time>2021-08-18T08:02:35Z</time>
      </trkpt>
      <trkpt lat="43.90194" lon="1.66016">
        <ele>186.63</ele>
        <time>2021-08-18T08:02:38Z</time>
      </trkpt>
      <trkpt lat="43.9019" lon="1.65989">
        <ele>183.27</ele>
        <time>2021-08-18T08:02:40Z</time>
      </trkpt>
      <trkpt lat="43.90187" lon="1.65957">
        <ele>179.42</ele>
        <time>2021-08-18T08:02:42Z</time>
      </trkpt>
      <trkpt lat="43.90183" lon="1.65922">
        <ele>174.14</ele>
        <time>2021-08-18T08:02:44Z</time>
      </trkpt>
      <trkpt lat="43.9018" lon="1.6589">
        <ele>171.25</ele>
        <time>2021-08-18T08:02:46Z</time>
      </trkpt>
      <trkpt lat="43.90176" lon="1.65864">
        <ele>169.33</ele>
        <time>2021-08-18T08:02:48Z</time>
      </trkpt>
      <trkpt lat="43.90173" lon="1.65853">
        <ele>169.33</ele>
        <time>2021-08-18T08:02:49Z</time>
      </trkpt>
      <trkpt lat="43.90171" lon="1.65844">
        <ele>170.29</ele>
        <time>2021-08-18T08:02:50Z</time>
      </trkpt>
      <trkpt lat="43.90171" lon="1.65835">
        <ele>169.81</ele>
        <time>2021-08-18T08:02:51Z</time>
      </trkpt>
      <trkpt lat="43.90174" lon="1.65826">
        <ele>168.85</ele>
        <time>2021-08-18T08:02:52Z</time>
      </trkpt>
      <trkpt lat="43.90178" lon="1.65819">
        <ele>168.85</ele>
        <time>2021-08-18T08:02:53Z</time>
      </trkpt>
      <trkpt lat="43.90184" lon="1.65813">
        <ele>168.85</ele>
        <time>2021-08-18T08:02:54Z</time>
      </trkpt>
      <trkpt lat="43.9019" lon="1.65809">
        <ele>168.85</ele>
        <time>2021-08-18T08:02:55Z</time>
      </trkpt>
      <trkpt lat="43.90196" lon="1.65805">
        <ele>168.85</ele>
        <time>2021-08-18T08:02:56Z</time>
      </trkpt>
      <trkpt lat="43.90202" lon="1.65801">
        <ele>168.37</ele>
        <time>2021-08-18T08:02:57Z</time>
      </trkpt>
      <trkpt lat="43.90208" lon="1.65799">
        <ele>168.37</ele>
        <time>2021-08-18T08:02:58Z</time>
      </trkpt>
      <trkpt lat="43.90252" lon="1.65777">
        <ele>167.89</ele>
        <time>2021-08-18T08:03:05Z</time>
      </trkpt>
      <trkpt lat="43.90323" lon="1.65743">
        <ele>166.93</ele>
        <time>2021-08-18T08:03:16Z</time>
      </trkpt>
      <trkpt lat="43.90365" lon="1.65728">
        <ele>166.45</ele>
        <time>2021-08-18T08:03:23Z</time>
      </trkpt>
      <trkpt lat="43.90369" lon="1.65724">
        <ele>166.45</ele>
        <time>2021-08-18T08:03:24Z</time>
      </trkpt>
      <trkpt lat="43.90371" lon="1.65719">
        <ele>166.45</ele>
        <time>2021-08-18T08:03:25Z</time>
      </trkpt>
      <trkpt lat="43.90371" lon="1.65713">
        <ele>166.45</ele>
        <time>2021-08-18T08:03:26Z</time>
      </trkpt>
      <trkpt lat="43.90369" lon="1.65708">
        <ele>166.45</ele>
        <time>2021-08-18T08:03:27Z</time>
      </trkpt>
      <trkpt lat="43.90367" lon="1.65704">
        <ele>166.45</ele>
        <time>2021-08-18T08:03:28Z</time>
      </trkpt>
      <trkpt lat="43.90365" lon="1.65701">
        <ele>166.45</ele>
        <time>2021-08-18T08:03:29Z</time>
      </trkpt>
      <trkpt lat="43.90363" lon="1.65697">
        <ele>167.41</ele>
        <time>2021-08-18T08:03:30Z</time>
      </trkpt>
      <trkpt lat="43.90362" lon="1.65694">
        <ele>167.41</ele>
        <time>2021-08-18T08:03:31Z</time>
      </trkpt>
      <trkpt lat="43.90355" lon="1.65681">
        <ele>168.85</ele>
        <time>2021-08-18T08:03:38Z</time>
      </trkpt>
      <trkpt lat="43.90348" lon="1.65667">
        <ele>170.77</ele>
        <time>2021-08-18T08:03:47Z</time>
      </trkpt>
      <trkpt lat="43.90341" lon="1.65653">
        <ele>172.69</ele>
        <time>2021-08-18T08:03:56Z</time>
      </trkpt>
      <trkpt lat="43.90336" lon="1.65642">
        <ele>174.14</ele>
        <time>2021-08-18T08:04:03Z</time>
      </trkpt>
      <trkpt lat="43.9033" lon="1.65636">
        <ele>175.1</ele>
        <time>2021-08-18T08:04:09Z</time>
      </trkpt>
      <trkpt lat="43.90328" lon="1.65635">
        <ele>175.1</ele>
        <time>2021-08-18T08:04:10Z</time>
      </trkpt>
      <trkpt lat="43.90327" lon="1.65634">
        <ele>175.1</ele>
        <time>2021-08-18T08:04:11Z</time>
      </trkpt>
      <trkpt lat="43.90313" lon="1.65626">
        <ele>177.02</ele>
        <time>2021-08-18T08:04:21Z</time>
      </trkpt>
      <trkpt lat="43.903" lon="1.6562">
        <ele>177.98</ele>
        <time>2021-08-18T08:04:28Z</time>
      </trkpt>
      <trkpt lat="43.90287" lon="1.6561">
        <ele>179.42</ele>
        <time>2021-08-18T08:04:36Z</time>
      </trkpt>
      <trkpt lat="43.90275" lon="1.65598">
        <ele>180.87</ele>
        <time>2021-08-18T08:04:44Z</time>
      </trkpt>
      <trkpt lat="43.90268" lon="1.65583">
        <ele>182.31</ele>
        <time>2021-08-18T08:04:51Z</time>
      </trkpt>
      <trkpt lat="43.90264" lon="1.6557">
        <ele>183.27</ele>
        <time>2021-08-18T08:04:58Z</time>
      </trkpt>
      <trkpt lat="43.90261" lon="1.6555">
        <ele>184.71</ele>
        <time>2021-08-18T08:05:06Z</time>
      </trkpt>
      <trkpt lat="43.9026" lon="1.6553">
        <ele>186.15</ele>
        <time>2021-08-18T08:05:15Z</time>
      </trkpt>
      <trkpt lat="43.90258" lon="1.65511">
        <ele>187.59</ele>
        <time>2021-08-18T08:05:24Z</time>
      </trkpt>
      <trkpt lat="43.90259" lon="1.65489">
        <ele>189.52</ele>
        <time>2021-08-18T08:05:33Z</time>
      </trkpt>
      <trkpt lat="43.90259" lon="1.65465">
        <ele>190</ele>
        <time>2021-08-18T08:05:41Z</time>
      </trkpt>
      <trkpt lat="43.90257" lon="1.65426">
        <ele>191.44</ele>
        <time>2021-08-18T08:05:51Z</time>
      </trkpt>
      <trkpt lat="43.90249" lon="1.65396">
        <ele>192.4</ele>
        <time>2021-08-18T08:06:00Z</time>
      </trkpt>
      <trkpt lat="43.90232" lon="1.65378">
        <ele>193.84</ele>
        <time>2021-08-18T08:06:10Z</time>
      </trkpt>
      <trkpt lat="43.9022" lon="1.65367">
        <ele>195.28</ele>
        <time>2021-08-18T08:06:18Z</time>
      </trkpt>
      <trkpt lat="43.90217" lon="1.65364">
        <ele>195.77</ele>
        <time>2021-08-18T08:06:20Z</time>
      </trkpt>
      <trkpt lat="43.90215" lon="1.65363">
        <ele>195.77</ele>
        <time>2021-08-18T08:06:21Z</time>
      </trkpt>
      <trkpt lat="43.90213" lon="1.65362">
        <ele>195.77</ele>
        <time>2021-08-18T08:06:22Z</time>
      </trkpt>
      <trkpt lat="43.90209" lon="1.6536">
        <ele>196.73</ele>
        <time>2021-08-18T08:06:24Z</time>
      </trkpt>
      <trkpt lat="43.90207" lon="1.6536">
        <ele>196.73</ele>
        <time>2021-08-18T08:06:25Z</time>
      </trkpt>
      <trkpt lat="43.90206" lon="1.65359">
        <ele>196.73</ele>
        <time>2021-08-18T08:06:26Z</time>
      </trkpt>
      <trkpt lat="43.90204" lon="1.65357">
        <ele>196.25</ele>
        <time>2021-08-18T08:06:27Z</time>
      </trkpt>
      <trkpt lat="43.90202" lon="1.65355">
        <ele>197.21</ele>
        <time>2021-08-18T08:06:28Z</time>
      </trkpt>
      <trkpt lat="43.902" lon="1.65354">
        <ele>197.21</ele>
        <time>2021-08-18T08:06:29Z</time>
      </trkpt>
      <trkpt lat="43.90198" lon="1.65352">
        <ele>196.73</ele>
        <time>2021-08-18T08:06:30Z</time>
      </trkpt>
      <trkpt lat="43.90196" lon="1.65351">
        <ele>196.73</ele>
        <time>2021-08-18T08:06:31Z</time>
      </trkpt>
      <trkpt lat="43.90194" lon="1.6535">
        <ele>196.73</ele>
        <time>2021-08-18T08:06:32Z</time>
      </trkpt>
      <trkpt lat="43.90192" lon="1.65349">
        <ele>197.21</ele>
        <time>2021-08-18T08:06:33Z</time>
      </trkpt>
      <trkpt lat="43.9019" lon="1.65347">
        <ele>197.21</ele>
        <time>2021-08-18T08:06:34Z</time>
      </trkpt>
      <trkpt lat="43.90188" lon="1.65345">
        <ele>197.69</ele>
        <time>2021-08-18T08:06:35Z</time>
      </trkpt>
      <trkpt lat="43.90172" lon="1.65336">
        <ele>198.65</ele>
        <time>2021-08-18T08:06:44Z</time>
      </trkpt>
      <trkpt lat="43.90165" lon="1.65332">
        <ele>200.09</ele>
        <time>2021-08-18T08:06:51Z</time>
      </trkpt>
      <trkpt lat="43.90165" lon="1.65333">
        <ele>200.09</ele>
        <time>2021-08-18T08:07:05Z</time>
      </trkpt>
      <trkpt lat="43.90165" lon="1.65334">
        <ele>200.09</ele>
        <time>2021-08-18T08:07:16Z</time>
      </trkpt>
      <trkpt lat="43.90164" lon="1.65332">
        <ele>200.09</ele>
        <time>2021-08-18T08:07:30Z</time>
      </trkpt>
      <trkpt lat="43.90156" lon="1.65329">
        <ele>200.57</ele>
        <time>2021-08-18T08:07:36Z</time>
      </trkpt>
      <trkpt lat="43.90153" lon="1.65328">
        <ele>201.05</ele>
        <time>2021-08-18T08:07:38Z</time>
      </trkpt>
      <trkpt lat="43.90138" lon="1.65326">
        <ele>202.98</ele>
        <time>2021-08-18T08:07:48Z</time>
      </trkpt>
      <trkpt lat="43.90125" lon="1.65325">
        <ele>204.9</ele>
        <time>2021-08-18T08:07:56Z</time>
      </trkpt>
      <trkpt lat="43.90114" lon="1.65324">
        <ele>206.82</ele>
        <time>2021-08-18T08:08:04Z</time>
      </trkpt>
      <trkpt lat="43.90097" lon="1.65319">
        <ele>209.22</ele>
        <time>2021-08-18T08:08:15Z</time>
      </trkpt>
      <trkpt lat="43.90096" lon="1.65318">
        <ele>209.22</ele>
        <time>2021-08-18T08:08:16Z</time>
      </trkpt>
      <trkpt lat="43.90093" lon="1.65314">
        <ele>210.19</ele>
        <time>2021-08-18T08:08:20Z</time>
      </trkpt>
      <trkpt lat="43.90091" lon="1.65311">
        <ele>210.67</ele>
        <time>2021-08-18T08:08:22Z</time>
      </trkpt>
      <trkpt lat="43.90092" lon="1.65303">
        <ele>211.15</ele>
        <time>2021-08-18T08:08:26Z</time>
      </trkpt>
      <trkpt lat="43.90094" lon="1.65293">
        <ele>212.11</ele>
        <time>2021-08-18T08:08:34Z</time>
      </trkpt>
      <trkpt lat="43.90091" lon="1.65301">
        <ele>212.11</ele>
        <time>2021-08-18T08:08:38Z</time>
      </trkpt>
      <trkpt lat="43.90091" lon="1.65304">
        <ele>212.11</ele>
        <time>2021-08-18T08:08:39Z</time>
      </trkpt>
      <trkpt lat="43.9009" lon="1.65308">
        <ele>210.67</ele>
        <time>2021-08-18T08:08:40Z</time>
      </trkpt>
      <trkpt lat="43.90088" lon="1.65311">
        <ele>210.67</ele>
        <time>2021-08-18T08:08:41Z</time>
      </trkpt>
      <trkpt lat="43.90086" lon="1.65312">
        <ele>210.67</ele>
        <time>2021-08-18T08:08:42Z</time>
      </trkpt>
      <trkpt lat="43.90084" lon="1.65312">
        <ele>210.67</ele>
        <time>2021-08-18T08:08:43Z</time>
      </trkpt>
      <trkpt lat="43.90082" lon="1.65312">
        <ele>210.67</ele>
        <time>2021-08-18T08:08:44Z</time>
      </trkpt>
      <trkpt lat="43.90081" lon="1.65311">
        <ele>210.67</ele>
        <time>2021-08-18T08:08:45Z</time>
      </trkpt>
      <trkpt lat="43.90068" lon="1.65307">
        <ele>211.63</ele>
        <time>2021-08-18T08:08:53Z</time>
      </trkpt>
      <trkpt lat="43.90054" lon="1.65303">
        <ele>212.59</ele>
        <time>2021-08-18T08:09:01Z</time>
      </trkpt>
      <trkpt lat="43.90037" lon="1.65302">
        <ele>214.51</ele>
        <time>2021-08-18T08:09:11Z</time>
      </trkpt>
      <trkpt lat="43.9002" lon="1.65304">
        <ele>215.95</ele>
        <time>2021-08-18T08:09:22Z</time>
      </trkpt>
      <trkpt lat="43.90006" lon="1.65305">
        <ele>217.4</ele>
        <time>2021-08-18T08:09:32Z</time>
      </trkpt>
      <trkpt lat="43.89992" lon="1.65303">
        <ele>218.84</ele>
        <time>2021-08-18T08:09:40Z</time>
      </trkpt>
      <trkpt lat="43.8998" lon="1.65292">
        <ele>219.8</ele>
        <time>2021-08-18T08:09:47Z</time>
      </trkpt>
      <trkpt lat="43.89966" lon="1.65275">
        <ele>221.72</ele>
        <time>2021-08-18T08:09:56Z</time>
      </trkpt>
      <trkpt lat="43.89952" lon="1.6526">
        <ele>222.68</ele>
        <time>2021-08-18T08:10:04Z</time>
      </trkpt>
      <trkpt lat="43.89938" lon="1.65243">
        <ele>224.12</ele>
        <time>2021-08-18T08:10:13Z</time>
      </trkpt>
      <trkpt lat="43.89922" lon="1.65219">
        <ele>225.09</ele>
        <time>2021-08-18T08:10:23Z</time>
      </trkpt>
      <trkpt lat="43.89911" lon="1.65201">
        <ele>226.53</ele>
        <time>2021-08-18T08:10:30Z</time>
      </trkpt>
      <trkpt lat="43.89898" lon="1.65183">
        <ele>227.01</ele>
        <time>2021-08-18T08:10:37Z</time>
      </trkpt>
      <trkpt lat="43.89882" lon="1.65164">
        <ele>227.01</ele>
        <time>2021-08-18T08:10:42Z</time>
      </trkpt>
      <trkpt lat="43.89868" lon="1.65149">
        <ele>225.57</ele>
        <time>2021-08-18T08:10:46Z</time>
      </trkpt>
      <trkpt lat="43.89839" lon="1.65133">
        <ele>225.57</ele>
        <time>2021-08-18T08:10:54Z</time>
      </trkpt>
      <trkpt lat="43.89828" lon="1.6513">
        <ele>225.57</ele>
        <time>2021-08-18T08:10:59Z</time>
      </trkpt>
      <trkpt lat="43.89806" lon="1.65129">
        <ele>227.01</ele>
        <time>2021-08-18T08:11:06Z</time>
      </trkpt>
      <trkpt lat="43.89777" lon="1.65127">
        <ele>227.97</ele>
        <time>2021-08-18T08:11:14Z</time>
      </trkpt>
      <trkpt lat="43.89755" lon="1.65127">
        <ele>229.41</ele>
        <time>2021-08-18T08:11:21Z</time>
      </trkpt>
      <trkpt lat="43.8973" lon="1.65124">
        <ele>230.37</ele>
        <time>2021-08-18T08:11:27Z</time>
      </trkpt>
      <trkpt lat="43.89712" lon="1.65126">
        <ele>231.33</ele>
        <time>2021-08-18T08:11:32Z</time>
      </trkpt>
      <trkpt lat="43.89688" lon="1.65124">
        <ele>231.81</ele>
        <time>2021-08-18T08:11:39Z</time>
      </trkpt>
      <trkpt lat="43.89674" lon="1.65113">
        <ele>232.3</ele>
        <time>2021-08-18T08:11:44Z</time>
      </trkpt>
      <trkpt lat="43.89672" lon="1.65112">
        <ele>232.3</ele>
        <time>2021-08-18T08:11:45Z</time>
      </trkpt>
      <trkpt lat="43.89662" lon="1.65114">
        <ele>232.78</ele>
        <time>2021-08-18T08:11:51Z</time>
      </trkpt>
      <trkpt lat="43.8966" lon="1.65114">
        <ele>232.78</ele>
        <time>2021-08-18T08:11:52Z</time>
      </trkpt>
      <trkpt lat="43.89644" lon="1.6512">
        <ele>233.26</ele>
        <time>2021-08-18T08:11:58Z</time>
      </trkpt>
      <trkpt lat="43.89613" lon="1.65123">
        <ele>233.26</ele>
        <time>2021-08-18T08:12:06Z</time>
      </trkpt>
      <trkpt lat="43.89593" lon="1.65127">
        <ele>233.74</ele>
        <time>2021-08-18T08:12:11Z</time>
      </trkpt>
      <trkpt lat="43.89573" lon="1.65127">
        <ele>234.22</ele>
        <time>2021-08-18T08:12:16Z</time>
      </trkpt>
      <trkpt lat="43.89554" lon="1.65125">
        <ele>235.18</ele>
        <time>2021-08-18T08:12:22Z</time>
      </trkpt>
      <trkpt lat="43.8953" lon="1.65129">
        <ele>235.18</ele>
        <time>2021-08-18T08:12:28Z</time>
      </trkpt>
      <trkpt lat="43.89525" lon="1.6513">
        <ele>235.18</ele>
        <time>2021-08-18T08:12:29Z</time>
      </trkpt>
      <trkpt lat="43.8951" lon="1.65138">
        <ele>234.22</ele>
        <time>2021-08-18T08:12:32Z</time>
      </trkpt>
      <trkpt lat="43.89489" lon="1.65157">
        <ele>234.22</ele>
        <time>2021-08-18T08:12:37Z</time>
      </trkpt>
      <trkpt lat="43.89468" lon="1.65177">
        <ele>234.22</ele>
        <time>2021-08-18T08:12:43Z</time>
      </trkpt>
      <trkpt lat="43.89466" lon="1.65179">
        <ele>234.22</ele>
        <time>2021-08-18T08:12:44Z</time>
      </trkpt>
      <trkpt lat="43.89451" lon="1.65196">
        <ele>234.22</ele>
        <time>2021-08-18T08:12:50Z</time>
      </trkpt>
      <trkpt lat="43.89444" lon="1.652">
        <ele>234.22</ele>
        <time>2021-08-18T08:12:52Z</time>
      </trkpt>
      <trkpt lat="43.89423" lon="1.65206">
        <ele>234.22</ele>
        <time>2021-08-18T08:12:57Z</time>
      </trkpt>
      <trkpt lat="43.89409" lon="1.65218">
        <ele>234.22</ele>
        <time>2021-08-18T08:13:01Z</time>
      </trkpt>
      <trkpt lat="43.89392" lon="1.65229">
        <ele>234.22</ele>
        <time>2021-08-18T08:13:06Z</time>
      </trkpt>
      <trkpt lat="43.89389" lon="1.65232">
        <ele>234.22</ele>
        <time>2021-08-18T08:13:07Z</time>
      </trkpt>
      <trkpt lat="43.8935" lon="1.65266">
        <ele>234.22</ele>
        <time>2021-08-18T08:13:16Z</time>
      </trkpt>
      <trkpt lat="43.89346" lon="1.65269">
        <ele>234.22</ele>
        <time>2021-08-18T08:13:17Z</time>
      </trkpt>
      <trkpt lat="43.89331" lon="1.65281">
        <ele>234.22</ele>
        <time>2021-08-18T08:13:20Z</time>
      </trkpt>
      <trkpt lat="43.89317" lon="1.65288">
        <ele>235.18</ele>
        <time>2021-08-18T08:13:23Z</time>
      </trkpt>
      <trkpt lat="43.89294" lon="1.65297">
        <ele>235.66</ele>
        <time>2021-08-18T08:13:28Z</time>
      </trkpt>
      <trkpt lat="43.89284" lon="1.65302">
        <ele>235.66</ele>
        <time>2021-08-18T08:13:33Z</time>
      </trkpt>
      <trkpt lat="43.89279" lon="1.65306">
        <ele>235.66</ele>
        <time>2021-08-18T08:13:35Z</time>
      </trkpt>
      <trkpt lat="43.89252" lon="1.65326">
        <ele>235.66</ele>
        <time>2021-08-18T08:13:43Z</time>
      </trkpt>
      <trkpt lat="43.89236" lon="1.65336">
        <ele>236.14</ele>
        <time>2021-08-18T08:13:47Z</time>
      </trkpt>
      <trkpt lat="43.89205" lon="1.65363">
        <ele>236.62</ele>
        <time>2021-08-18T08:13:55Z</time>
      </trkpt>
      <trkpt lat="43.89182" lon="1.65379">
        <ele>237.1</ele>
        <time>2021-08-18T08:14:01Z</time>
      </trkpt>
      <trkpt lat="43.8917" lon="1.65384">
        <ele>238.06</ele>
        <time>2021-08-18T08:14:04Z</time>
      </trkpt>
      <trkpt lat="43.89154" lon="1.65365">
        <ele>238.54</ele>
        <time>2021-08-18T08:14:10Z</time>
      </trkpt>
      <trkpt lat="43.89122" lon="1.653">
        <ele>238.54</ele>
        <time>2021-08-18T08:14:22Z</time>
      </trkpt>
      <trkpt lat="43.89105" lon="1.65266">
        <ele>238.54</ele>
        <time>2021-08-18T08:14:29Z</time>
      </trkpt>
      <trkpt lat="43.89099" lon="1.65257">
        <ele>238.54</ele>
        <time>2021-08-18T08:14:31Z</time>
      </trkpt>
      <trkpt lat="43.8908" lon="1.65214">
        <ele>239.99</ele>
        <time>2021-08-18T08:14:40Z</time>
      </trkpt>
      <trkpt lat="43.89076" lon="1.65189">
        <ele>239.99</ele>
        <time>2021-08-18T08:14:45Z</time>
      </trkpt>
      <trkpt lat="43.89073" lon="1.65179">
        <ele>239.99</ele>
        <time>2021-08-18T08:14:47Z</time>
      </trkpt>
      <trkpt lat="43.89071" lon="1.65173">
        <ele>239.99</ele>
        <time>2021-08-18T08:14:48Z</time>
      </trkpt>
      <trkpt lat="43.89068" lon="1.65168">
        <ele>239.99</ele>
        <time>2021-08-18T08:14:49Z</time>
      </trkpt>
      <trkpt lat="43.89063" lon="1.65158">
        <ele>239.51</ele>
        <time>2021-08-18T08:14:51Z</time>
      </trkpt>
      <trkpt lat="43.89059" lon="1.65154">
        <ele>239.51</ele>
        <time>2021-08-18T08:14:52Z</time>
      </trkpt>
      <trkpt lat="43.89027" lon="1.65119">
        <ele>239.51</ele>
        <time>2021-08-18T08:15:00Z</time>
      </trkpt>
      <trkpt lat="43.88988" lon="1.65086">
        <ele>239.51</ele>
        <time>2021-08-18T08:15:08Z</time>
      </trkpt>
      <trkpt lat="43.88971" lon="1.65076">
        <ele>238.06</ele>
        <time>2021-08-18T08:15:11Z</time>
      </trkpt>
      <trkpt lat="43.8892" lon="1.65048">
        <ele>236.14</ele>
        <time>2021-08-18T08:15:19Z</time>
      </trkpt>
      <trkpt lat="43.88862" lon="1.65016">
        <ele>234.7</ele>
        <time>2021-08-18T08:15:28Z</time>
      </trkpt>
      <trkpt lat="43.88825" lon="1.64997">
        <ele>233.74</ele>
        <time>2021-08-18T08:15:34Z</time>
      </trkpt>
      <trkpt lat="43.88782" lon="1.64973">
        <ele>232.3</ele>
        <time>2021-08-18T08:15:41Z</time>
      </trkpt>
      <trkpt lat="43.88715" lon="1.64948">
        <ele>231.33</ele>
        <time>2021-08-18T08:15:49Z</time>
      </trkpt>
      <trkpt lat="43.8864" lon="1.64919">
        <ele>230.85</ele>
        <time>2021-08-18T08:15:59Z</time>
      </trkpt>
      <trkpt lat="43.88591" lon="1.64904">
        <ele>232.3</ele>
        <time>2021-08-18T08:16:07Z</time>
      </trkpt>
      <trkpt lat="43.88544" lon="1.64894">
        <ele>230.85</ele>
        <time>2021-08-18T08:16:14Z</time>
      </trkpt>
      <trkpt lat="43.88505" lon="1.64887">
        <ele>230.85</ele>
        <time>2021-08-18T08:16:20Z</time>
      </trkpt>
      <trkpt lat="43.88499" lon="1.64886">
        <ele>230.85</ele>
        <time>2021-08-18T08:16:21Z</time>
      </trkpt>
      <trkpt lat="43.88469" lon="1.64878">
        <ele>230.85</ele>
        <time>2021-08-18T08:16:26Z</time>
      </trkpt>
      <trkpt lat="43.88465" lon="1.64874">
        <ele>232.3</ele>
        <time>2021-08-18T08:16:27Z</time>
      </trkpt>
      <trkpt lat="43.88461" lon="1.64868">
        <ele>232.3</ele>
        <time>2021-08-18T08:16:28Z</time>
      </trkpt>
      <trkpt lat="43.88459" lon="1.64863">
        <ele>232.78</ele>
        <time>2021-08-18T08:16:29Z</time>
      </trkpt>
      <trkpt lat="43.88457" lon="1.64857">
        <ele>232.78</ele>
        <time>2021-08-18T08:16:30Z</time>
      </trkpt>
      <trkpt lat="43.88445" lon="1.64816">
        <ele>234.22</ele>
        <time>2021-08-18T08:16:38Z</time>
      </trkpt>
      <trkpt lat="43.88438" lon="1.64799">
        <ele>236.14</ele>
        <time>2021-08-18T08:16:45Z</time>
      </trkpt>
      <trkpt lat="43.88427" lon="1.64778">
        <ele>238.54</ele>
        <time>2021-08-18T08:16:55Z</time>
      </trkpt>
      <trkpt lat="43.88415" lon="1.64762">
        <ele>239.99</ele>
        <time>2021-08-18T08:17:03Z</time>
      </trkpt>
      <trkpt lat="43.88398" lon="1.64739">
        <ele>240.47</ele>
        <time>2021-08-18T08:17:10Z</time>
      </trkpt>
      <trkpt lat="43.88381" lon="1.6472">
        <ele>237.58</ele>
        <time>2021-08-18T08:17:14Z</time>
      </trkpt>
      <trkpt lat="43.88375" lon="1.64714">
        <ele>237.58</ele>
        <time>2021-08-18T08:17:15Z</time>
      </trkpt>
      <trkpt lat="43.88331" lon="1.64664">
        <ele>235.18</ele>
        <time>2021-08-18T08:17:23Z</time>
      </trkpt>
      <trkpt lat="43.88321" lon="1.64649">
        <ele>234.7</ele>
        <time>2021-08-18T08:17:25Z</time>
      </trkpt>
      <trkpt lat="43.88316" lon="1.6464">
        <ele>234.7</ele>
        <time>2021-08-18T08:17:26Z</time>
      </trkpt>
      <trkpt lat="43.88304" lon="1.64614">
        <ele>234.22</ele>
        <time>2021-08-18T08:17:29Z</time>
      </trkpt>
      <trkpt lat="43.883" lon="1.64605">
        <ele>234.22</ele>
        <time>2021-08-18T08:17:30Z</time>
      </trkpt>
      <trkpt lat="43.88298" lon="1.64596">
        <ele>234.22</ele>
        <time>2021-08-18T08:17:31Z</time>
      </trkpt>
      <trkpt lat="43.88296" lon="1.64586">
        <ele>234.22</ele>
        <time>2021-08-18T08:17:32Z</time>
      </trkpt>
      <trkpt lat="43.88296" lon="1.64576">
        <ele>234.22</ele>
        <time>2021-08-18T08:17:33Z</time>
      </trkpt>
      <trkpt lat="43.88297" lon="1.64568">
        <ele>234.22</ele>
        <time>2021-08-18T08:17:34Z</time>
      </trkpt>
      <trkpt lat="43.88298" lon="1.64558">
        <ele>234.22</ele>
        <time>2021-08-18T08:17:35Z</time>
      </trkpt>
      <trkpt lat="43.88299" lon="1.64549">
        <ele>234.22</ele>
        <time>2021-08-18T08:17:36Z</time>
      </trkpt>
      <trkpt lat="43.8831" lon="1.64476">
        <ele>235.66</ele>
        <time>2021-08-18T08:17:45Z</time>
      </trkpt>
      <trkpt lat="43.88316" lon="1.64414">
        <ele>236.14</ele>
        <time>2021-08-18T08:17:53Z</time>
      </trkpt>
      <trkpt lat="43.88316" lon="1.64399">
        <ele>236.62</ele>
        <time>2021-08-18T08:17:55Z</time>
      </trkpt>
      <trkpt lat="43.88315" lon="1.64392">
        <ele>236.62</ele>
        <time>2021-08-18T08:17:56Z</time>
      </trkpt>
      <trkpt lat="43.88313" lon="1.64385">
        <ele>237.1</ele>
        <time>2021-08-18T08:17:57Z</time>
      </trkpt>
      <trkpt lat="43.88294" lon="1.64333">
        <ele>237.58</ele>
        <time>2021-08-18T08:18:05Z</time>
      </trkpt>
      <trkpt lat="43.88286" lon="1.64308">
        <ele>234.7</ele>
        <time>2021-08-18T08:18:08Z</time>
      </trkpt>
      <trkpt lat="43.88277" lon="1.64275">
        <ele>231.33</ele>
        <time>2021-08-18T08:18:11Z</time>
      </trkpt>
      <trkpt lat="43.88267" lon="1.64237">
        <ele>227.97</ele>
        <time>2021-08-18T08:18:14Z</time>
      </trkpt>
      <trkpt lat="43.88236" lon="1.64162">
        <ele>226.53</ele>
        <time>2021-08-18T08:18:20Z</time>
      </trkpt>
      <trkpt lat="43.88179" lon="1.64067">
        <ele>223.64</ele>
        <time>2021-08-18T08:18:29Z</time>
      </trkpt>
      <trkpt lat="43.88143" lon="1.64031">
        <ele>223.64</ele>
        <time>2021-08-18T08:18:34Z</time>
      </trkpt>
      <trkpt lat="43.88116" lon="1.6401">
        <ele>226.53</ele>
        <time>2021-08-18T08:18:39Z</time>
      </trkpt>
      <trkpt lat="43.88112" lon="1.64006">
        <ele>227.49</ele>
        <time>2021-08-18T08:18:40Z</time>
      </trkpt>
      <trkpt lat="43.88108" lon="1.64003">
        <ele>227.49</ele>
        <time>2021-08-18T08:18:41Z</time>
      </trkpt>
      <trkpt lat="43.88105" lon="1.64">
        <ele>227.49</ele>
        <time>2021-08-18T08:18:42Z</time>
      </trkpt>
      <trkpt lat="43.88069" lon="1.63966">
        <ele>227.49</ele>
        <time>2021-08-18T08:18:51Z</time>
      </trkpt>
      <trkpt lat="43.88053" lon="1.63948">
        <ele>229.41</ele>
        <time>2021-08-18T08:18:57Z</time>
      </trkpt>
      <trkpt lat="43.88041" lon="1.63932">
        <ele>231.33</ele>
        <time>2021-08-18T08:19:05Z</time>
      </trkpt>
      <trkpt lat="43.88026" lon="1.63915">
        <ele>233.74</ele>
        <time>2021-08-18T08:19:13Z</time>
      </trkpt>
      <trkpt lat="43.88008" lon="1.63892">
        <ele>234.7</ele>
        <time>2021-08-18T08:19:21Z</time>
      </trkpt>
      <trkpt lat="43.88009" lon="1.63875">
        <ele>234.7</ele>
        <time>2021-08-18T08:19:25Z</time>
      </trkpt>
      <trkpt lat="43.88025" lon="1.63838">
        <ele>235.18</ele>
        <time>2021-08-18T08:19:33Z</time>
      </trkpt>
      <trkpt lat="43.88048" lon="1.63796">
        <ele>235.18</ele>
        <time>2021-08-18T08:19:41Z</time>
      </trkpt>
      <trkpt lat="43.88067" lon="1.63768">
        <ele>235.18</ele>
        <time>2021-08-18T08:19:47Z</time>
      </trkpt>
      <trkpt lat="43.8807" lon="1.63763">
        <ele>235.66</ele>
        <time>2021-08-18T08:19:48Z</time>
      </trkpt>
      <trkpt lat="43.88083" lon="1.63737">
        <ele>235.66</ele>
        <time>2021-08-18T08:19:53Z</time>
      </trkpt>
      <trkpt lat="43.88085" lon="1.63731">
        <ele>235.66</ele>
        <time>2021-08-18T08:19:54Z</time>
      </trkpt>
      <trkpt lat="43.88089" lon="1.63711">
        <ele>235.66</ele>
        <time>2021-08-18T08:19:57Z</time>
      </trkpt>
      <trkpt lat="43.88089" lon="1.63696">
        <ele>235.66</ele>
        <time>2021-08-18T08:19:59Z</time>
      </trkpt>
      <trkpt lat="43.88088" lon="1.63619">
        <ele>232.3</ele>
        <time>2021-08-18T08:20:08Z</time>
      </trkpt>
      <trkpt lat="43.88087" lon="1.63558">
        <ele>230.37</ele>
        <time>2021-08-18T08:20:14Z</time>
      </trkpt>
      <trkpt lat="43.88082" lon="1.63452">
        <ele>227.97</ele>
        <time>2021-08-18T08:20:23Z</time>
      </trkpt>
      <trkpt lat="43.88072" lon="1.63367">
        <ele>227.49</ele>
        <time>2021-08-18T08:20:31Z</time>
      </trkpt>
      <trkpt lat="43.88065" lon="1.63313">
        <ele>228.93</ele>
        <time>2021-08-18T08:20:37Z</time>
      </trkpt>
      <trkpt lat="43.88055" lon="1.6323">
        <ele>228.93</ele>
        <time>2021-08-18T08:20:47Z</time>
      </trkpt>
      <trkpt lat="43.88045" lon="1.63145">
        <ele>229.89</ele>
        <time>2021-08-18T08:20:58Z</time>
      </trkpt>
      <trkpt lat="43.88029" lon="1.63065">
        <ele>228.45</ele>
        <time>2021-08-18T08:21:08Z</time>
      </trkpt>
      <trkpt lat="43.88026" lon="1.63056">
        <ele>228.45</ele>
        <time>2021-08-18T08:21:09Z</time>
      </trkpt>
      <trkpt lat="43.88011" lon="1.63014">
        <ele>227.97</ele>
        <time>2021-08-18T08:21:14Z</time>
      </trkpt>
      <trkpt lat="43.88004" lon="1.63">
        <ele>227.97</ele>
        <time>2021-08-18T08:21:16Z</time>
      </trkpt>
      <trkpt lat="43.87981" lon="1.62973">
        <ele>227.97</ele>
        <time>2021-08-18T08:21:21Z</time>
      </trkpt>
      <trkpt lat="43.87976" lon="1.62968">
        <ele>227.97</ele>
        <time>2021-08-18T08:21:22Z</time>
      </trkpt>
      <trkpt lat="43.87936" lon="1.62916">
        <ele>225.09</ele>
        <time>2021-08-18T08:21:31Z</time>
      </trkpt>
      <trkpt lat="43.87914" lon="1.62887">
        <ele>221.72</ele>
        <time>2021-08-18T08:21:35Z</time>
      </trkpt>
      <trkpt lat="43.87908" lon="1.62879">
        <ele>221.72</ele>
        <time>2021-08-18T08:21:36Z</time>
      </trkpt>
      <trkpt lat="43.87879" lon="1.62838">
        <ele>220.28</ele>
        <time>2021-08-18T08:21:41Z</time>
      </trkpt>
      <trkpt lat="43.87875" lon="1.62829">
        <ele>219.32</ele>
        <time>2021-08-18T08:21:42Z</time>
      </trkpt>
      <trkpt lat="43.87872" lon="1.62819">
        <ele>219.32</ele>
        <time>2021-08-18T08:21:43Z</time>
      </trkpt>
      <trkpt lat="43.8787" lon="1.62808">
        <ele>219.32</ele>
        <time>2021-08-18T08:21:44Z</time>
      </trkpt>
      <trkpt lat="43.87869" lon="1.62797">
        <ele>218.36</ele>
        <time>2021-08-18T08:21:45Z</time>
      </trkpt>
      <trkpt lat="43.87868" lon="1.62786">
        <ele>217.88</ele>
        <time>2021-08-18T08:21:46Z</time>
      </trkpt>
      <trkpt lat="43.87867" lon="1.62775">
        <ele>217.88</ele>
        <time>2021-08-18T08:21:47Z</time>
      </trkpt>
      <trkpt lat="43.87865" lon="1.62729">
        <ele>215.47</ele>
        <time>2021-08-18T08:21:51Z</time>
      </trkpt>
      <trkpt lat="43.87864" lon="1.62707">
        <ele>214.99</ele>
        <time>2021-08-18T08:21:53Z</time>
      </trkpt>
      <trkpt lat="43.87864" lon="1.62696">
        <ele>214.03</ele>
        <time>2021-08-18T08:21:54Z</time>
      </trkpt>
      <trkpt lat="43.87865" lon="1.62685">
        <ele>213.55</ele>
        <time>2021-08-18T08:21:55Z</time>
      </trkpt>
      <trkpt lat="43.87867" lon="1.62675">
        <ele>213.55</ele>
        <time>2021-08-18T08:21:56Z</time>
      </trkpt>
      <trkpt lat="43.8787" lon="1.62665">
        <ele>212.59</ele>
        <time>2021-08-18T08:21:57Z</time>
      </trkpt>
      <trkpt lat="43.87873" lon="1.62655">
        <ele>212.59</ele>
        <time>2021-08-18T08:21:58Z</time>
      </trkpt>
      <trkpt lat="43.87886" lon="1.62612">
        <ele>209.22</ele>
        <time>2021-08-18T08:22:02Z</time>
      </trkpt>
      <trkpt lat="43.87896" lon="1.62577">
        <ele>207.3</ele>
        <time>2021-08-18T08:22:05Z</time>
      </trkpt>
      <trkpt lat="43.87911" lon="1.62528">
        <ele>204.42</ele>
        <time>2021-08-18T08:22:09Z</time>
      </trkpt>
      <trkpt lat="43.87916" lon="1.62517">
        <ele>203.94</ele>
        <time>2021-08-18T08:22:10Z</time>
      </trkpt>
      <trkpt lat="43.87935" lon="1.62485">
        <ele>200.57</ele>
        <time>2021-08-18T08:22:13Z</time>
      </trkpt>
      <trkpt lat="43.87969" lon="1.62429">
        <ele>197.21</ele>
        <time>2021-08-18T08:22:19Z</time>
      </trkpt>
      <trkpt lat="43.87997" lon="1.62383">
        <ele>193.84</ele>
        <time>2021-08-18T08:22:24Z</time>
      </trkpt>
      <trkpt lat="43.88011" lon="1.62357">
        <ele>192.4</ele>
        <time>2021-08-18T08:22:27Z</time>
      </trkpt>
      <trkpt lat="43.88014" lon="1.62349">
        <ele>191.92</ele>
        <time>2021-08-18T08:22:28Z</time>
      </trkpt>
      <trkpt lat="43.88016" lon="1.62342">
        <ele>191.92</ele>
        <time>2021-08-18T08:22:29Z</time>
      </trkpt>
      <trkpt lat="43.88016" lon="1.62334">
        <ele>191.44</ele>
        <time>2021-08-18T08:22:30Z</time>
      </trkpt>
      <trkpt lat="43.88014" lon="1.62327">
        <ele>190.96</ele>
        <time>2021-08-18T08:22:31Z</time>
      </trkpt>
      <trkpt lat="43.88011" lon="1.62321">
        <ele>190.48</ele>
        <time>2021-08-18T08:22:32Z</time>
      </trkpt>
      <trkpt lat="43.88006" lon="1.62316">
        <ele>190.48</ele>
        <time>2021-08-18T08:22:33Z</time>
      </trkpt>
      <trkpt lat="43.88001" lon="1.62312">
        <ele>189.52</ele>
        <time>2021-08-18T08:22:34Z</time>
      </trkpt>
      <trkpt lat="43.87995" lon="1.62308">
        <ele>189.04</ele>
        <time>2021-08-18T08:22:35Z</time>
      </trkpt>
      <trkpt lat="43.87989" lon="1.62305">
        <ele>188.08</ele>
        <time>2021-08-18T08:22:36Z</time>
      </trkpt>
      <trkpt lat="43.87983" lon="1.62303">
        <ele>187.59</ele>
        <time>2021-08-18T08:22:37Z</time>
      </trkpt>
      <trkpt lat="43.87977" lon="1.62301">
        <ele>187.11</ele>
        <time>2021-08-18T08:22:38Z</time>
      </trkpt>
      <trkpt lat="43.8797" lon="1.62301">
        <ele>186.15</ele>
        <time>2021-08-18T08:22:39Z</time>
      </trkpt>
      <trkpt lat="43.87963" lon="1.62301">
        <ele>185.19</ele>
        <time>2021-08-18T08:22:40Z</time>
      </trkpt>
      <trkpt lat="43.87956" lon="1.62301">
        <ele>184.71</ele>
        <time>2021-08-18T08:22:41Z</time>
      </trkpt>
      <trkpt lat="43.87948" lon="1.62303">
        <ele>183.75</ele>
        <time>2021-08-18T08:22:42Z</time>
      </trkpt>
      <trkpt lat="43.87941" lon="1.62306">
        <ele>183.27</ele>
        <time>2021-08-18T08:22:43Z</time>
      </trkpt>
      <trkpt lat="43.87934" lon="1.6231">
        <ele>182.79</ele>
        <time>2021-08-18T08:22:44Z</time>
      </trkpt>
      <trkpt lat="43.87927" lon="1.62315">
        <ele>181.83</ele>
        <time>2021-08-18T08:22:45Z</time>
      </trkpt>
      <trkpt lat="43.8792" lon="1.6232">
        <ele>181.35</ele>
        <time>2021-08-18T08:22:46Z</time>
      </trkpt>
      <trkpt lat="43.87892" lon="1.62342">
        <ele>178.46</ele>
        <time>2021-08-18T08:22:50Z</time>
      </trkpt>
      <trkpt lat="43.87868" lon="1.62357">
        <ele>175.58</ele>
        <time>2021-08-18T08:22:54Z</time>
      </trkpt>
      <trkpt lat="43.87863" lon="1.62359">
        <ele>175.58</ele>
        <time>2021-08-18T08:22:55Z</time>
      </trkpt>
      <trkpt lat="43.87857" lon="1.62359">
        <ele>174.62</ele>
        <time>2021-08-18T08:22:56Z</time>
      </trkpt>
      <trkpt lat="43.87851" lon="1.62358">
        <ele>173.17</ele>
        <time>2021-08-18T08:22:57Z</time>
      </trkpt>
      <trkpt lat="43.87844" lon="1.62356">
        <ele>172.69</ele>
        <time>2021-08-18T08:22:58Z</time>
      </trkpt>
      <trkpt lat="43.87815" lon="1.62346">
        <ele>169.81</ele>
        <time>2021-08-18T08:23:02Z</time>
      </trkpt>
      <trkpt lat="43.87808" lon="1.62345">
        <ele>169.33</ele>
        <time>2021-08-18T08:23:03Z</time>
      </trkpt>
      <trkpt lat="43.87801" lon="1.62345">
        <ele>167.89</ele>
        <time>2021-08-18T08:23:04Z</time>
      </trkpt>
      <trkpt lat="43.87768" lon="1.6235">
        <ele>164.52</ele>
        <time>2021-08-18T08:23:08Z</time>
      </trkpt>
      <trkpt lat="43.87738" lon="1.62355">
        <ele>161.16</ele>
        <time>2021-08-18T08:23:12Z</time>
      </trkpt>
      <trkpt lat="43.87732" lon="1.62354">
        <ele>160.2</ele>
        <time>2021-08-18T08:23:13Z</time>
      </trkpt>
      <trkpt lat="43.87726" lon="1.62351">
        <ele>159.24</ele>
        <time>2021-08-18T08:23:14Z</time>
      </trkpt>
      <trkpt lat="43.87722" lon="1.62344">
        <ele>158.75</ele>
        <time>2021-08-18T08:23:15Z</time>
      </trkpt>
      <trkpt lat="43.87719" lon="1.62335">
        <ele>157.79</ele>
        <time>2021-08-18T08:23:16Z</time>
      </trkpt>
      <trkpt lat="43.87717" lon="1.62326">
        <ele>156.83</ele>
        <time>2021-08-18T08:23:17Z</time>
      </trkpt>
      <trkpt lat="43.87707" lon="1.62287">
        <ele>154.91</ele>
        <time>2021-08-18T08:23:21Z</time>
      </trkpt>
      <trkpt lat="43.87682" lon="1.62192">
        <ele>152.03</ele>
        <time>2021-08-18T08:23:31Z</time>
      </trkpt>
      <trkpt lat="43.87672" lon="1.62165">
        <ele>151.54</ele>
        <time>2021-08-18T08:23:35Z</time>
      </trkpt>
      <trkpt lat="43.87669" lon="1.6216">
        <ele>151.54</ele>
        <time>2021-08-18T08:23:36Z</time>
      </trkpt>
      <trkpt lat="43.87665" lon="1.62157">
        <ele>151.54</ele>
        <time>2021-08-18T08:23:37Z</time>
      </trkpt>
      <trkpt lat="43.87662" lon="1.62155">
        <ele>151.06</ele>
        <time>2021-08-18T08:23:38Z</time>
      </trkpt>
      <trkpt lat="43.8766" lon="1.62152">
        <ele>151.06</ele>
        <time>2021-08-18T08:23:39Z</time>
      </trkpt>
      <trkpt lat="43.87658" lon="1.6215">
        <ele>151.54</ele>
        <time>2021-08-18T08:23:43Z</time>
      </trkpt>
      <trkpt lat="43.8766" lon="1.62151">
        <ele>151.06</ele>
        <time>2021-08-18T08:24:00Z</time>
      </trkpt>
      <trkpt lat="43.87662" lon="1.62151">
        <ele>151.06</ele>
        <time>2021-08-18T08:24:18Z</time>
      </trkpt>
      <trkpt lat="43.87662" lon="1.6215">
        <ele>151.06</ele>
        <time>2021-08-18T08:24:19Z</time>
      </trkpt>
      <trkpt lat="43.87663" lon="1.62149">
        <ele>151.06</ele>
        <time>2021-08-18T08:24:20Z</time>
      </trkpt>
      <trkpt lat="43.87665" lon="1.62148">
        <ele>151.06</ele>
        <time>2021-08-18T08:24:22Z</time>
      </trkpt>
      <trkpt lat="43.87675" lon="1.62149">
        <ele>151.06</ele>
        <time>2021-08-18T08:24:28Z</time>
      </trkpt>
      <trkpt lat="43.87685" lon="1.62137">
        <ele>150.58</ele>
        <time>2021-08-18T08:24:33Z</time>
      </trkpt>
      <trkpt lat="43.87692" lon="1.62131">
        <ele>152.03</ele>
        <time>2021-08-18T08:24:37Z</time>
      </trkpt>
      <trkpt lat="43.87711" lon="1.62121">
        <ele>152.51</ele>
        <time>2021-08-18T08:24:45Z</time>
      </trkpt>
      <trkpt lat="43.87728" lon="1.62114">
        <ele>153.95</ele>
        <time>2021-08-18T08:24:54Z</time>
      </trkpt>
      <trkpt lat="43.87739" lon="1.62109">
        <ele>154.91</ele>
        <time>2021-08-18T08:25:02Z</time>
      </trkpt>
      <trkpt lat="43.87755" lon="1.62098">
        <ele>156.35</ele>
        <time>2021-08-18T08:25:13Z</time>
      </trkpt>
      <trkpt lat="43.87761" lon="1.62087">
        <ele>157.79</ele>
        <time>2021-08-18T08:25:20Z</time>
      </trkpt>
      <trkpt lat="43.87769" lon="1.6207">
        <ele>158.75</ele>
        <time>2021-08-18T08:25:29Z</time>
      </trkpt>
      <trkpt lat="43.87776" lon="1.62053">
        <ele>160.2</ele>
        <time>2021-08-18T08:25:38Z</time>
      </trkpt>
      <trkpt lat="43.87781" lon="1.62033">
        <ele>161.64</ele>
        <time>2021-08-18T08:25:48Z</time>
      </trkpt>
      <trkpt lat="43.87782" lon="1.62017">
        <ele>163.08</ele>
        <time>2021-08-18T08:25:56Z</time>
      </trkpt>
      <trkpt lat="43.87783" lon="1.62004">
        <ele>164.04</ele>
        <time>2021-08-18T08:26:03Z</time>
      </trkpt>
      <trkpt lat="43.87781" lon="1.61987">
        <ele>165</ele>
        <time>2021-08-18T08:26:12Z</time>
      </trkpt>
      <trkpt lat="43.8778" lon="1.61975">
        <ele>165.96</ele>
        <time>2021-08-18T08:26:18Z</time>
      </trkpt>
      <trkpt lat="43.87776" lon="1.61962">
        <ele>166.93</ele>
        <time>2021-08-18T08:26:25Z</time>
      </trkpt>
      <trkpt lat="43.87775" lon="1.61958">
        <ele>167.41</ele>
        <time>2021-08-18T08:26:27Z</time>
      </trkpt>
      <trkpt lat="43.87772" lon="1.61933">
        <ele>168.37</ele>
        <time>2021-08-18T08:26:38Z</time>
      </trkpt>
      <trkpt lat="43.87773" lon="1.6191">
        <ele>169.81</ele>
        <time>2021-08-18T08:26:48Z</time>
      </trkpt>
      <trkpt lat="43.87772" lon="1.61902">
        <ele>170.29</ele>
        <time>2021-08-18T08:26:52Z</time>
      </trkpt>
      <trkpt lat="43.87772" lon="1.61897">
        <ele>170.77</ele>
        <time>2021-08-18T08:26:57Z</time>
      </trkpt>
      <trkpt lat="43.87776" lon="1.61914">
        <ele>170.29</ele>
        <time>2021-08-18T08:27:04Z</time>
      </trkpt>
      <trkpt lat="43.87787" lon="1.61913">
        <ele>167.41</ele>
        <time>2021-08-18T08:27:07Z</time>
      </trkpt>
      <trkpt lat="43.87809" lon="1.6191">
        <ele>162.12</ele>
        <time>2021-08-18T08:27:11Z</time>
      </trkpt>
      <trkpt lat="43.87819" lon="1.61911">
        <ele>160.2</ele>
        <time>2021-08-18T08:27:13Z</time>
      </trkpt>
      <trkpt lat="43.87838" lon="1.61917">
        <ele>156.83</ele>
        <time>2021-08-18T08:27:16Z</time>
      </trkpt>
      <trkpt lat="43.87855" lon="1.61924">
        <ele>156.35</ele>
        <time>2021-08-18T08:27:19Z</time>
      </trkpt>
      <trkpt lat="43.87865" lon="1.61934">
        <ele>157.79</ele>
        <time>2021-08-18T08:27:23Z</time>
      </trkpt>
      <trkpt lat="43.87867" lon="1.61939">
        <ele>158.27</ele>
        <time>2021-08-18T08:27:26Z</time>
      </trkpt>
      <trkpt lat="43.87872" lon="1.61953">
        <ele>160.2</ele>
        <time>2021-08-18T08:27:34Z</time>
      </trkpt>
      <trkpt lat="43.87876" lon="1.61969">
        <ele>161.16</ele>
        <time>2021-08-18T08:27:43Z</time>
      </trkpt>
      <trkpt lat="43.87877" lon="1.61972">
        <ele>161.64</ele>
        <time>2021-08-18T08:27:47Z</time>
      </trkpt>
      <trkpt lat="43.87882" lon="1.61979">
        <ele>162.6</ele>
        <time>2021-08-18T08:27:55Z</time>
      </trkpt>
      <trkpt lat="43.8789" lon="1.61975">
        <ele>164.52</ele>
        <time>2021-08-18T08:28:05Z</time>
      </trkpt>
      <trkpt lat="43.87892" lon="1.61964">
        <ele>165.96</ele>
        <time>2021-08-18T08:28:15Z</time>
      </trkpt>
      <trkpt lat="43.87893" lon="1.61957">
        <ele>167.41</ele>
        <time>2021-08-18T08:28:24Z</time>
      </trkpt>
      <trkpt lat="43.87895" lon="1.61947">
        <ele>168.85</ele>
        <time>2021-08-18T08:28:34Z</time>
      </trkpt>
      <trkpt lat="43.87898" lon="1.61938">
        <ele>170.77</ele>
        <time>2021-08-18T08:28:43Z</time>
      </trkpt>
      <trkpt lat="43.87901" lon="1.61929">
        <ele>171.73</ele>
        <time>2021-08-18T08:28:51Z</time>
      </trkpt>
      <trkpt lat="43.87906" lon="1.6192">
        <ele>173.17</ele>
        <time>2021-08-18T08:29:01Z</time>
      </trkpt>
      <trkpt lat="43.87907" lon="1.61917">
        <ele>174.14</ele>
        <time>2021-08-18T08:29:03Z</time>
      </trkpt>
      <trkpt lat="43.87914" lon="1.61907">
        <ele>175.1</ele>
        <time>2021-08-18T08:29:12Z</time>
      </trkpt>
      <trkpt lat="43.87923" lon="1.619">
        <ele>176.54</ele>
        <time>2021-08-18T08:29:23Z</time>
      </trkpt>
      <trkpt lat="43.87931" lon="1.61893">
        <ele>178.46</ele>
        <time>2021-08-18T08:29:33Z</time>
      </trkpt>
      <trkpt lat="43.87941" lon="1.6189">
        <ele>179.9</ele>
        <time>2021-08-18T08:29:42Z</time>
      </trkpt>
      <trkpt lat="43.87954" lon="1.61893">
        <ele>180.87</ele>
        <time>2021-08-18T08:29:52Z</time>
      </trkpt>
      <trkpt lat="43.87964" lon="1.61891">
        <ele>180.87</ele>
        <time>2021-08-18T08:30:00Z</time>
      </trkpt>
      <trkpt lat="43.87976" lon="1.61885">
        <ele>182.79</ele>
        <time>2021-08-18T08:30:11Z</time>
      </trkpt>
      <trkpt lat="43.87981" lon="1.61882">
        <ele>183.75</ele>
        <time>2021-08-18T08:30:18Z</time>
      </trkpt>
      <trkpt lat="43.87992" lon="1.61876">
        <ele>185.19</ele>
        <time>2021-08-18T08:30:29Z</time>
      </trkpt>
      <trkpt lat="43.88002" lon="1.61871">
        <ele>186.63</ele>
        <time>2021-08-18T08:30:41Z</time>
      </trkpt>
      <trkpt lat="43.8801" lon="1.61867">
        <ele>188.08</ele>
        <time>2021-08-18T08:30:51Z</time>
      </trkpt>
      <trkpt lat="43.88015" lon="1.61864">
        <ele>189.04</ele>
        <time>2021-08-18T08:30:59Z</time>
      </trkpt>
      <trkpt lat="43.88015" lon="1.61864">
        <ele>189.04</ele>
        <time>2021-08-18T08:31:09Z</time>
      </trkpt>
      <trkpt lat="43.88015" lon="1.61865">
        <ele>189.04</ele>
        <time>2021-08-18T08:31:16Z</time>
      </trkpt>
      <trkpt lat="43.88019" lon="1.61863">
        <ele>190</ele>
        <time>2021-08-18T08:31:22Z</time>
      </trkpt>
      <trkpt lat="43.88029" lon="1.61858">
        <ele>191.92</ele>
        <time>2021-08-18T08:31:33Z</time>
      </trkpt>
      <trkpt lat="43.88035" lon="1.61856">
        <ele>192.88</ele>
        <time>2021-08-18T08:31:39Z</time>
      </trkpt>
      <trkpt lat="43.88038" lon="1.61853">
        <ele>193.36</ele>
        <time>2021-08-18T08:31:47Z</time>
      </trkpt>
      <trkpt lat="43.88051" lon="1.61847">
        <ele>194.32</ele>
        <time>2021-08-18T08:31:56Z</time>
      </trkpt>
      <trkpt lat="43.88066" lon="1.61838">
        <ele>195.77</ele>
        <time>2021-08-18T08:32:05Z</time>
      </trkpt>
      <trkpt lat="43.88081" lon="1.61828">
        <ele>197.69</ele>
        <time>2021-08-18T08:32:15Z</time>
      </trkpt>
      <trkpt lat="43.88094" lon="1.6182">
        <ele>199.13</ele>
        <time>2021-08-18T08:32:24Z</time>
      </trkpt>
      <trkpt lat="43.88106" lon="1.61815">
        <ele>200.57</ele>
        <time>2021-08-18T08:32:34Z</time>
      </trkpt>
      <trkpt lat="43.8812" lon="1.61809">
        <ele>201.53</ele>
        <time>2021-08-18T08:32:43Z</time>
      </trkpt>
      <trkpt lat="43.88136" lon="1.61805">
        <ele>203.46</ele>
        <time>2021-08-18T08:32:53Z</time>
      </trkpt>
      <trkpt lat="43.8815" lon="1.61801">
        <ele>204.42</ele>
        <time>2021-08-18T08:33:01Z</time>
      </trkpt>
      <trkpt lat="43.88173" lon="1.61795">
        <ele>205.38</ele>
        <time>2021-08-18T08:33:12Z</time>
      </trkpt>
      <trkpt lat="43.88198" lon="1.61788">
        <ele>207.3</ele>
        <time>2021-08-18T08:33:23Z</time>
      </trkpt>
      <trkpt lat="43.88217" lon="1.61778">
        <ele>207.78</ele>
        <time>2021-08-18T08:33:32Z</time>
      </trkpt>
      <trkpt lat="43.88236" lon="1.61769">
        <ele>209.7</ele>
        <time>2021-08-18T08:33:41Z</time>
      </trkpt>
      <trkpt lat="43.88257" lon="1.61769">
        <ele>211.15</ele>
        <time>2021-08-18T08:33:51Z</time>
      </trkpt>
      <trkpt lat="43.88274" lon="1.61776">
        <ele>212.59</ele>
        <time>2021-08-18T08:34:01Z</time>
      </trkpt>
      <trkpt lat="43.8829" lon="1.61785">
        <ele>214.03</ele>
        <time>2021-08-18T08:34:11Z</time>
      </trkpt>
      <trkpt lat="43.88303" lon="1.61784">
        <ele>215.95</ele>
        <time>2021-08-18T08:34:19Z</time>
      </trkpt>
      <trkpt lat="43.88313" lon="1.61772">
        <ele>217.4</ele>
        <time>2021-08-18T08:34:27Z</time>
      </trkpt>
      <trkpt lat="43.88324" lon="1.61759">
        <ele>219.32</ele>
        <time>2021-08-18T08:34:35Z</time>
      </trkpt>
      <trkpt lat="43.88338" lon="1.61746">
        <ele>221.24</ele>
        <time>2021-08-18T08:34:44Z</time>
      </trkpt>
      <trkpt lat="43.88356" lon="1.61729">
        <ele>223.16</ele>
        <time>2021-08-18T08:34:54Z</time>
      </trkpt>
      <trkpt lat="43.88371" lon="1.61714">
        <ele>225.57</ele>
        <time>2021-08-18T08:35:03Z</time>
      </trkpt>
      <trkpt lat="43.88387" lon="1.61699">
        <ele>226.53</ele>
        <time>2021-08-18T08:35:11Z</time>
      </trkpt>
      <trkpt lat="43.88405" lon="1.61684">
        <ele>226.53</ele>
        <time>2021-08-18T08:35:18Z</time>
      </trkpt>
      <trkpt lat="43.88433" lon="1.61654">
        <ele>226.53</ele>
        <time>2021-08-18T08:35:28Z</time>
      </trkpt>
      <trkpt lat="43.88458" lon="1.61623">
        <ele>225.57</ele>
        <time>2021-08-18T08:35:36Z</time>
      </trkpt>
      <trkpt lat="43.88485" lon="1.61586">
        <ele>225.09</ele>
        <time>2021-08-18T08:35:44Z</time>
      </trkpt>
      <trkpt lat="43.88491" lon="1.61577">
        <ele>225.09</ele>
        <time>2021-08-18T08:35:46Z</time>
      </trkpt>
      <trkpt lat="43.88494" lon="1.61572">
        <ele>225.09</ele>
        <time>2021-08-18T08:35:47Z</time>
      </trkpt>
      <trkpt lat="43.88499" lon="1.61562">
        <ele>224.61</ele>
        <time>2021-08-18T08:35:49Z</time>
      </trkpt>
      <trkpt lat="43.88507" lon="1.61552">
        <ele>224.12</ele>
        <time>2021-08-18T08:35:51Z</time>
      </trkpt>
      <trkpt lat="43.88524" lon="1.61536">
        <ele>223.64</ele>
        <time>2021-08-18T08:35:55Z</time>
      </trkpt>
      <trkpt lat="43.88575" lon="1.61497">
        <ele>223.64</ele>
        <time>2021-08-18T08:36:06Z</time>
      </trkpt>
      <trkpt lat="43.88579" lon="1.61493">
        <ele>223.64</ele>
        <time>2021-08-18T08:36:07Z</time>
      </trkpt>
      <trkpt lat="43.88609" lon="1.61461">
        <ele>223.64</ele>
        <time>2021-08-18T08:36:14Z</time>
      </trkpt>
      <trkpt lat="43.88632" lon="1.61435">
        <ele>223.64</ele>
        <time>2021-08-18T08:36:20Z</time>
      </trkpt>
      <trkpt lat="43.88661" lon="1.61402">
        <ele>225.09</ele>
        <time>2021-08-18T08:36:28Z</time>
      </trkpt>
      <trkpt lat="43.88689" lon="1.61366">
        <ele>226.05</ele>
        <time>2021-08-18T08:36:37Z</time>
      </trkpt>
      <trkpt lat="43.88717" lon="1.61324">
        <ele>226.05</ele>
        <time>2021-08-18T08:36:46Z</time>
      </trkpt>
      <trkpt lat="43.88719" lon="1.61319">
        <ele>225.09</ele>
        <time>2021-08-18T08:36:47Z</time>
      </trkpt>
      <trkpt lat="43.88721" lon="1.61314">
        <ele>225.09</ele>
        <time>2021-08-18T08:36:48Z</time>
      </trkpt>
      <trkpt lat="43.88721" lon="1.61308">
        <ele>224.61</ele>
        <time>2021-08-18T08:36:49Z</time>
      </trkpt>
      <trkpt lat="43.8872" lon="1.61302">
        <ele>224.61</ele>
        <time>2021-08-18T08:36:50Z</time>
      </trkpt>
      <trkpt lat="43.88719" lon="1.61298">
        <ele>224.61</ele>
        <time>2021-08-18T08:36:51Z</time>
      </trkpt>
      <trkpt lat="43.88717" lon="1.61293">
        <ele>224.61</ele>
        <time>2021-08-18T08:36:52Z</time>
      </trkpt>
      <trkpt lat="43.88715" lon="1.61287">
        <ele>224.61</ele>
        <time>2021-08-18T08:36:53Z</time>
      </trkpt>
      <trkpt lat="43.88705" lon="1.61268">
        <ele>225.57</ele>
        <time>2021-08-18T08:36:57Z</time>
      </trkpt>
      <trkpt lat="43.88679" lon="1.61232">
        <ele>227.97</ele>
        <time>2021-08-18T08:37:06Z</time>
      </trkpt>
      <trkpt lat="43.88657" lon="1.61214">
        <ele>228.93</ele>
        <time>2021-08-18T08:37:13Z</time>
      </trkpt>
      <trkpt lat="43.88628" lon="1.61192">
        <ele>230.37</ele>
        <time>2021-08-18T08:37:22Z</time>
      </trkpt>
      <trkpt lat="43.88599" lon="1.61164">
        <ele>228.93</ele>
        <time>2021-08-18T08:37:29Z</time>
      </trkpt>
      <trkpt lat="43.88594" lon="1.6116">
        <ele>228.93</ele>
        <time>2021-08-18T08:37:30Z</time>
      </trkpt>
      <trkpt lat="43.88548" lon="1.61122">
        <ele>226.53</ele>
        <time>2021-08-18T08:37:38Z</time>
      </trkpt>
      <trkpt lat="43.88493" lon="1.61097">
        <ele>225.57</ele>
        <time>2021-08-18T08:37:46Z</time>
      </trkpt>
      <trkpt lat="43.88416" lon="1.61078">
        <ele>224.61</ele>
        <time>2021-08-18T08:37:57Z</time>
      </trkpt>
      <trkpt lat="43.88348" lon="1.6105">
        <ele>222.2</ele>
        <time>2021-08-18T08:38:06Z</time>
      </trkpt>
      <trkpt lat="43.88306" lon="1.61029">
        <ele>218.84</ele>
        <time>2021-08-18T08:38:11Z</time>
      </trkpt>
      <trkpt lat="43.8828" lon="1.61015">
        <ele>217.4</ele>
        <time>2021-08-18T08:38:14Z</time>
      </trkpt>
      <trkpt lat="43.88272" lon="1.61007">
        <ele>217.4</ele>
        <time>2021-08-18T08:38:15Z</time>
      </trkpt>
      <trkpt lat="43.88266" lon="1.60998">
        <ele>217.4</ele>
        <time>2021-08-18T08:38:16Z</time>
      </trkpt>
      <trkpt lat="43.8826" lon="1.60986">
        <ele>217.4</ele>
        <time>2021-08-18T08:38:17Z</time>
      </trkpt>
      <trkpt lat="43.88257" lon="1.60978">
        <ele>217.4</ele>
        <time>2021-08-18T08:38:18Z</time>
      </trkpt>
      <trkpt lat="43.88253" lon="1.60967">
        <ele>217.4</ele>
        <time>2021-08-18T08:38:19Z</time>
      </trkpt>
      <trkpt lat="43.88251" lon="1.60957">
        <ele>217.4</ele>
        <time>2021-08-18T08:38:20Z</time>
      </trkpt>
      <trkpt lat="43.88249" lon="1.60949">
        <ele>217.4</ele>
        <time>2021-08-18T08:38:21Z</time>
      </trkpt>
      <trkpt lat="43.88248" lon="1.6094">
        <ele>217.4</ele>
        <time>2021-08-18T08:38:22Z</time>
      </trkpt>
      <trkpt lat="43.88248" lon="1.60931">
        <ele>218.84</ele>
        <time>2021-08-18T08:38:23Z</time>
      </trkpt>
      <trkpt lat="43.88248" lon="1.60923">
        <ele>218.84</ele>
        <time>2021-08-18T08:38:24Z</time>
      </trkpt>
      <trkpt lat="43.88249" lon="1.60915">
        <ele>219.32</ele>
        <time>2021-08-18T08:38:25Z</time>
      </trkpt>
      <trkpt lat="43.88251" lon="1.60907">
        <ele>219.32</ele>
        <time>2021-08-18T08:38:26Z</time>
      </trkpt>
      <trkpt lat="43.88253" lon="1.60899">
        <ele>219.32</ele>
        <time>2021-08-18T08:38:27Z</time>
      </trkpt>
      <trkpt lat="43.88266" lon="1.60854">
        <ele>220.76</ele>
        <time>2021-08-18T08:38:33Z</time>
      </trkpt>
      <trkpt lat="43.88293" lon="1.60797">
        <ele>220.76</ele>
        <time>2021-08-18T08:38:41Z</time>
      </trkpt>
      <trkpt lat="43.88318" lon="1.60746">
        <ele>221.72</ele>
        <time>2021-08-18T08:38:48Z</time>
      </trkpt>
      <trkpt lat="43.88348" lon="1.60689">
        <ele>221.72</ele>
        <time>2021-08-18T08:38:57Z</time>
      </trkpt>
      <trkpt lat="43.88371" lon="1.60648">
        <ele>220.28</ele>
        <time>2021-08-18T08:39:03Z</time>
      </trkpt>
      <trkpt lat="43.88412" lon="1.60557">
        <ele>218.84</ele>
        <time>2021-08-18T08:39:14Z</time>
      </trkpt>
      <trkpt lat="43.8844" lon="1.60484">
        <ele>217.4</ele>
        <time>2021-08-18T08:39:22Z</time>
      </trkpt>
      <trkpt lat="43.88469" lon="1.60421">
        <ele>217.4</ele>
        <time>2021-08-18T08:39:30Z</time>
      </trkpt>
      <trkpt lat="43.88484" lon="1.60381">
        <ele>217.4</ele>
        <time>2021-08-18T08:39:35Z</time>
      </trkpt>
      <trkpt lat="43.88502" lon="1.60308">
        <ele>217.4</ele>
        <time>2021-08-18T08:39:44Z</time>
      </trkpt>
      <trkpt lat="43.88513" lon="1.60268">
        <ele>217.4</ele>
        <time>2021-08-18T08:39:49Z</time>
      </trkpt>
      <trkpt lat="43.88519" lon="1.6023">
        <ele>218.84</ele>
        <time>2021-08-18T08:39:54Z</time>
      </trkpt>
      <trkpt lat="43.8852" lon="1.60223">
        <ele>218.84</ele>
        <time>2021-08-18T08:39:55Z</time>
      </trkpt>
      <trkpt lat="43.8852" lon="1.60189">
        <ele>219.8</ele>
        <time>2021-08-18T08:40:00Z</time>
      </trkpt>
      <trkpt lat="43.88516" lon="1.60164">
        <ele>220.28</ele>
        <time>2021-08-18T08:40:04Z</time>
      </trkpt>
      <trkpt lat="43.885" lon="1.6012">
        <ele>222.2</ele>
        <time>2021-08-18T08:40:12Z</time>
      </trkpt>
      <trkpt lat="43.8848" lon="1.60072">
        <ele>222.68</ele>
        <time>2021-08-18T08:40:21Z</time>
      </trkpt>
      <trkpt lat="43.88467" lon="1.60023">
        <ele>223.16</ele>
        <time>2021-08-18T08:40:29Z</time>
      </trkpt>
      <trkpt lat="43.88458" lon="1.59974">
        <ele>224.12</ele>
        <time>2021-08-18T08:40:37Z</time>
      </trkpt>
      <trkpt lat="43.88448" lon="1.59908">
        <ele>222.2</ele>
        <time>2021-08-18T08:40:45Z</time>
      </trkpt>
      <trkpt lat="43.88434" lon="1.59813">
        <ele>219.32</ele>
        <time>2021-08-18T08:40:55Z</time>
      </trkpt>
      <trkpt lat="43.88419" lon="1.59718">
        <ele>216.43</ele>
        <time>2021-08-18T08:41:04Z</time>
      </trkpt>
      <trkpt lat="43.88407" lon="1.59664">
        <ele>214.99</ele>
        <time>2021-08-18T08:41:09Z</time>
      </trkpt>
      <trkpt lat="43.88405" lon="1.59654">
        <ele>214.99</ele>
        <time>2021-08-18T08:41:10Z</time>
      </trkpt>
      <trkpt lat="43.88391" lon="1.59597">
        <ele>213.55</ele>
        <time>2021-08-18T08:41:15Z</time>
      </trkpt>
      <trkpt lat="43.88388" lon="1.59586">
        <ele>213.07</ele>
        <time>2021-08-18T08:41:16Z</time>
      </trkpt>
      <trkpt lat="43.88368" lon="1.59528">
        <ele>213.07</ele>
        <time>2021-08-18T08:41:22Z</time>
      </trkpt>
      <trkpt lat="43.88355" lon="1.59497">
        <ele>213.07</ele>
        <time>2021-08-18T08:41:26Z</time>
      </trkpt>
      <trkpt lat="43.88348" lon="1.59475">
        <ele>213.07</ele>
        <time>2021-08-18T08:41:29Z</time>
      </trkpt>
      <trkpt lat="43.88345" lon="1.59469">
        <ele>213.07</ele>
        <time>2021-08-18T08:41:30Z</time>
      </trkpt>
      <trkpt lat="43.88342" lon="1.59463">
        <ele>214.03</ele>
        <time>2021-08-18T08:41:31Z</time>
      </trkpt>
      <trkpt lat="43.88338" lon="1.59458">
        <ele>214.03</ele>
        <time>2021-08-18T08:41:32Z</time>
      </trkpt>
      <trkpt lat="43.88334" lon="1.59453">
        <ele>214.51</ele>
        <time>2021-08-18T08:41:33Z</time>
      </trkpt>
      <trkpt lat="43.8833" lon="1.59448">
        <ele>214.51</ele>
        <time>2021-08-18T08:41:34Z</time>
      </trkpt>
      <trkpt lat="43.88327" lon="1.59443">
        <ele>214.51</ele>
        <time>2021-08-18T08:41:35Z</time>
      </trkpt>
      <trkpt lat="43.88299" lon="1.59392">
        <ele>214.99</ele>
        <time>2021-08-18T08:41:43Z</time>
      </trkpt>
      <trkpt lat="43.88291" lon="1.59371">
        <ele>214.99</ele>
        <time>2021-08-18T08:41:46Z</time>
      </trkpt>
      <trkpt lat="43.88272" lon="1.5931">
        <ele>214.99</ele>
        <time>2021-08-18T08:41:54Z</time>
      </trkpt>
      <trkpt lat="43.88243" lon="1.59231">
        <ele>214.99</ele>
        <time>2021-08-18T08:42:04Z</time>
      </trkpt>
      <trkpt lat="43.8824" lon="1.59223">
        <ele>214.03</ele>
        <time>2021-08-18T08:42:05Z</time>
      </trkpt>
      <trkpt lat="43.88236" lon="1.59216">
        <ele>214.03</ele>
        <time>2021-08-18T08:42:06Z</time>
      </trkpt>
      <trkpt lat="43.88231" lon="1.5921">
        <ele>214.03</ele>
        <time>2021-08-18T08:42:07Z</time>
      </trkpt>
      <trkpt lat="43.88225" lon="1.59206">
        <ele>214.03</ele>
        <time>2021-08-18T08:42:08Z</time>
      </trkpt>
      <trkpt lat="43.88219" lon="1.59203">
        <ele>213.55</ele>
        <time>2021-08-18T08:42:09Z</time>
      </trkpt>
      <trkpt lat="43.88211" lon="1.592">
        <ele>213.07</ele>
        <time>2021-08-18T08:42:10Z</time>
      </trkpt>
      <trkpt lat="43.88146" lon="1.5918">
        <ele>209.7</ele>
        <time>2021-08-18T08:42:19Z</time>
      </trkpt>
      <trkpt lat="43.88077" lon="1.59158">
        <ele>206.82</ele>
        <time>2021-08-18T08:42:27Z</time>
      </trkpt>
      <trkpt lat="43.88042" lon="1.59149">
        <ele>206.82</ele>
        <time>2021-08-18T08:42:31Z</time>
      </trkpt>
      <trkpt lat="43.88033" lon="1.59149">
        <ele>206.82</ele>
        <time>2021-08-18T08:42:32Z</time>
      </trkpt>
      <trkpt lat="43.88025" lon="1.59151">
        <ele>206.82</ele>
        <time>2021-08-18T08:42:33Z</time>
      </trkpt>
      <trkpt lat="43.88018" lon="1.59153">
        <ele>206.82</ele>
        <time>2021-08-18T08:42:34Z</time>
      </trkpt>
      <trkpt lat="43.8801" lon="1.59157">
        <ele>206.82</ele>
        <time>2021-08-18T08:42:35Z</time>
      </trkpt>
      <trkpt lat="43.87997" lon="1.59163">
        <ele>208.26</ele>
        <time>2021-08-18T08:42:37Z</time>
      </trkpt>
      <trkpt lat="43.87983" lon="1.59169">
        <ele>208.26</ele>
        <time>2021-08-18T08:42:39Z</time>
      </trkpt>
      <trkpt lat="43.87975" lon="1.59171">
        <ele>208.26</ele>
        <time>2021-08-18T08:42:40Z</time>
      </trkpt>
      <trkpt lat="43.87968" lon="1.59172">
        <ele>208.26</ele>
        <time>2021-08-18T08:42:41Z</time>
      </trkpt>
      <trkpt lat="43.87914" lon="1.59168">
        <ele>205.38</ele>
        <time>2021-08-18T08:42:48Z</time>
      </trkpt>
      <trkpt lat="43.87876" lon="1.59165">
        <ele>202.01</ele>
        <time>2021-08-18T08:42:52Z</time>
      </trkpt>
      <trkpt lat="43.87845" lon="1.5917">
        <ele>200.09</ele>
        <time>2021-08-18T08:42:55Z</time>
      </trkpt>
      <trkpt lat="43.87835" lon="1.59174">
        <ele>199.13</ele>
        <time>2021-08-18T08:42:56Z</time>
      </trkpt>
      <trkpt lat="43.87825" lon="1.59179">
        <ele>198.17</ele>
        <time>2021-08-18T08:42:57Z</time>
      </trkpt>
      <trkpt lat="43.87773" lon="1.59214">
        <ele>194.8</ele>
        <time>2021-08-18T08:43:02Z</time>
      </trkpt>
      <trkpt lat="43.87731" lon="1.59244">
        <ele>191.44</ele>
        <time>2021-08-18T08:43:06Z</time>
      </trkpt>
      <trkpt lat="43.87676" lon="1.59281">
        <ele>188.08</ele>
        <time>2021-08-18T08:43:11Z</time>
      </trkpt>
      <trkpt lat="43.87623" lon="1.59316">
        <ele>185.19</ele>
        <time>2021-08-18T08:43:16Z</time>
      </trkpt>
      <trkpt lat="43.87612" lon="1.59319">
        <ele>185.19</ele>
        <time>2021-08-18T08:43:17Z</time>
      </trkpt>
      <trkpt lat="43.87603" lon="1.59317">
        <ele>185.19</ele>
        <time>2021-08-18T08:43:18Z</time>
      </trkpt>
      <trkpt lat="43.87595" lon="1.59312">
        <ele>184.71</ele>
        <time>2021-08-18T08:43:19Z</time>
      </trkpt>
      <trkpt lat="43.87588" lon="1.59304">
        <ele>184.71</ele>
        <time>2021-08-18T08:43:20Z</time>
      </trkpt>
      <trkpt lat="43.87582" lon="1.59293">
        <ele>183.75</ele>
        <time>2021-08-18T08:43:21Z</time>
      </trkpt>
      <trkpt lat="43.87577" lon="1.59282">
        <ele>183.27</ele>
        <time>2021-08-18T08:43:22Z</time>
      </trkpt>
      <trkpt lat="43.87553" lon="1.5922">
        <ele>180.38</ele>
        <time>2021-08-18T08:43:27Z</time>
      </trkpt>
      <trkpt lat="43.87537" lon="1.59164">
        <ele>176.54</ele>
        <time>2021-08-18T08:43:31Z</time>
      </trkpt>
      <trkpt lat="43.87535" lon="1.59149">
        <ele>175.58</ele>
        <time>2021-08-18T08:43:32Z</time>
      </trkpt>
      <trkpt lat="43.87528" lon="1.59085">
        <ele>172.21</ele>
        <time>2021-08-18T08:43:36Z</time>
      </trkpt>
      <trkpt lat="43.87526" lon="1.59053">
        <ele>171.25</ele>
        <time>2021-08-18T08:43:38Z</time>
      </trkpt>
      <trkpt lat="43.87519" lon="1.59009">
        <ele>168.37</ele>
        <time>2021-08-18T08:43:41Z</time>
      </trkpt>
      <trkpt lat="43.87514" lon="1.58997">
        <ele>167.89</ele>
        <time>2021-08-18T08:43:42Z</time>
      </trkpt>
      <trkpt lat="43.87507" lon="1.58986">
        <ele>166.93</ele>
        <time>2021-08-18T08:43:43Z</time>
      </trkpt>
      <trkpt lat="43.87498" lon="1.58979">
        <ele>165.96</ele>
        <time>2021-08-18T08:43:44Z</time>
      </trkpt>
      <trkpt lat="43.87488" lon="1.58975">
        <ele>165.48</ele>
        <time>2021-08-18T08:43:45Z</time>
      </trkpt>
      <trkpt lat="43.87477" lon="1.58972">
        <ele>164.52</ele>
        <time>2021-08-18T08:43:46Z</time>
      </trkpt>
      <trkpt lat="43.87465" lon="1.58971">
        <ele>164.04</ele>
        <time>2021-08-18T08:43:47Z</time>
      </trkpt>
      <trkpt lat="43.87419" lon="1.58968">
        <ele>160.2</ele>
        <time>2021-08-18T08:43:51Z</time>
      </trkpt>
      <trkpt lat="43.87383" lon="1.58965">
        <ele>156.83</ele>
        <time>2021-08-18T08:43:54Z</time>
      </trkpt>
      <trkpt lat="43.87329" lon="1.58955">
        <ele>153.47</ele>
        <time>2021-08-18T08:43:59Z</time>
      </trkpt>
      <trkpt lat="43.8732" lon="1.58949">
        <ele>152.51</ele>
        <time>2021-08-18T08:44:00Z</time>
      </trkpt>
      <trkpt lat="43.87312" lon="1.5894">
        <ele>151.54</ele>
        <time>2021-08-18T08:44:01Z</time>
      </trkpt>
      <trkpt lat="43.87305" lon="1.58927">
        <ele>150.1</ele>
        <time>2021-08-18T08:44:02Z</time>
      </trkpt>
      <trkpt lat="43.87301" lon="1.58915">
        <ele>149.62</ele>
        <time>2021-08-18T08:44:03Z</time>
      </trkpt>
      <trkpt lat="43.87297" lon="1.58901">
        <ele>149.14</ele>
        <time>2021-08-18T08:44:04Z</time>
      </trkpt>
      <trkpt lat="43.87293" lon="1.58872">
        <ele>147.22</ele>
        <time>2021-08-18T08:44:06Z</time>
      </trkpt>
      <trkpt lat="43.87292" lon="1.58857">
        <ele>145.78</ele>
        <time>2021-08-18T08:44:07Z</time>
      </trkpt>
      <trkpt lat="43.87293" lon="1.58842">
        <ele>145.3</ele>
        <time>2021-08-18T08:44:08Z</time>
      </trkpt>
      <trkpt lat="43.873" lon="1.58796">
        <ele>142.89</ele>
        <time>2021-08-18T08:44:11Z</time>
      </trkpt>
      <trkpt lat="43.87301" lon="1.58781">
        <ele>141.93</ele>
        <time>2021-08-18T08:44:12Z</time>
      </trkpt>
      <trkpt lat="43.873" lon="1.58766">
        <ele>141.45</ele>
        <time>2021-08-18T08:44:13Z</time>
      </trkpt>
      <trkpt lat="43.87296" lon="1.58752">
        <ele>141.45</ele>
        <time>2021-08-18T08:44:14Z</time>
      </trkpt>
      <trkpt lat="43.8729" lon="1.58739">
        <ele>140.01</ele>
        <time>2021-08-18T08:44:15Z</time>
      </trkpt>
      <trkpt lat="43.87281" lon="1.58728">
        <ele>139.05</ele>
        <time>2021-08-18T08:44:16Z</time>
      </trkpt>
      <trkpt lat="43.87272" lon="1.58719">
        <ele>138.57</ele>
        <time>2021-08-18T08:44:17Z</time>
      </trkpt>
      <trkpt lat="43.87262" lon="1.58714">
        <ele>138.57</ele>
        <time>2021-08-18T08:44:18Z</time>
      </trkpt>
      <trkpt lat="43.87251" lon="1.58713">
        <ele>138.57</ele>
        <time>2021-08-18T08:44:19Z</time>
      </trkpt>
      <trkpt lat="43.87241" lon="1.58716">
        <ele>138.57</ele>
        <time>2021-08-18T08:44:20Z</time>
      </trkpt>
      <trkpt lat="43.87231" lon="1.58719">
        <ele>138.57</ele>
        <time>2021-08-18T08:44:21Z</time>
      </trkpt>
      <trkpt lat="43.87222" lon="1.58723">
        <ele>138.57</ele>
        <time>2021-08-18T08:44:22Z</time>
      </trkpt>
      <trkpt lat="43.87171" lon="1.58745">
        <ele>138.57</ele>
        <time>2021-08-18T08:44:28Z</time>
      </trkpt>
      <trkpt lat="43.87163" lon="1.58745">
        <ele>138.57</ele>
        <time>2021-08-18T08:44:29Z</time>
      </trkpt>
      <trkpt lat="43.87156" lon="1.58743">
        <ele>138.57</ele>
        <time>2021-08-18T08:44:30Z</time>
      </trkpt>
      <trkpt lat="43.87148" lon="1.58739">
        <ele>138.57</ele>
        <time>2021-08-18T08:44:31Z</time>
      </trkpt>
      <trkpt lat="43.87142" lon="1.58734">
        <ele>138.57</ele>
        <time>2021-08-18T08:44:32Z</time>
      </trkpt>
      <trkpt lat="43.87136" lon="1.58727">
        <ele>138.57</ele>
        <time>2021-08-18T08:44:33Z</time>
      </trkpt>
      <trkpt lat="43.87131" lon="1.5872">
        <ele>138.57</ele>
        <time>2021-08-18T08:44:34Z</time>
      </trkpt>
      <trkpt lat="43.87098" lon="1.58668">
        <ele>138.57</ele>
        <time>2021-08-18T08:44:41Z</time>
      </trkpt>
      <trkpt lat="43.8706" lon="1.58617">
        <ele>138.57</ele>
        <time>2021-08-18T08:44:49Z</time>
      </trkpt>
      <trkpt lat="43.87017" lon="1.58568">
        <ele>137.13</ele>
        <time>2021-08-18T08:44:58Z</time>
      </trkpt>
      <trkpt lat="43.86971" lon="1.58512">
        <ele>136.16</ele>
        <time>2021-08-18T08:45:07Z</time>
      </trkpt>
      <trkpt lat="43.86929" lon="1.58448">
        <ele>133.76</ele>
        <time>2021-08-18T08:45:15Z</time>
      </trkpt>
      <trkpt lat="43.86914" lon="1.58422">
        <ele>133.28</ele>
        <time>2021-08-18T08:45:18Z</time>
      </trkpt>
      <trkpt lat="43.86908" lon="1.58414">
        <ele>133.28</ele>
        <time>2021-08-18T08:45:19Z</time>
      </trkpt>
      <trkpt lat="43.86902" lon="1.58408">
        <ele>133.28</ele>
        <time>2021-08-18T08:45:20Z</time>
      </trkpt>
      <trkpt lat="43.86895" lon="1.58402">
        <ele>132.8</ele>
        <time>2021-08-18T08:45:21Z</time>
      </trkpt>
      <trkpt lat="43.86888" lon="1.58396">
        <ele>132.8</ele>
        <time>2021-08-18T08:45:22Z</time>
      </trkpt>
      <trkpt lat="43.8688" lon="1.58391">
        <ele>132.32</ele>
        <time>2021-08-18T08:45:23Z</time>
      </trkpt>
      <trkpt lat="43.86837" lon="1.58366">
        <ele>132.32</ele>
        <time>2021-08-18T08:45:29Z</time>
      </trkpt>
      <trkpt lat="43.86831" lon="1.58366">
        <ele>132.32</ele>
        <time>2021-08-18T08:45:30Z</time>
      </trkpt>
      <trkpt lat="43.86824" lon="1.58367">
        <ele>132.32</ele>
        <time>2021-08-18T08:45:31Z</time>
      </trkpt>
      <trkpt lat="43.86818" lon="1.58369">
        <ele>132.32</ele>
        <time>2021-08-18T08:45:32Z</time>
      </trkpt>
      <trkpt lat="43.86811" lon="1.58371">
        <ele>132.32</ele>
        <time>2021-08-18T08:45:33Z</time>
      </trkpt>
      <trkpt lat="43.86804" lon="1.58372">
        <ele>132.32</ele>
        <time>2021-08-18T08:45:34Z</time>
      </trkpt>
      <trkpt lat="43.86797" lon="1.58372">
        <ele>132.32</ele>
        <time>2021-08-18T08:45:35Z</time>
      </trkpt>
      <trkpt lat="43.8679" lon="1.58371">
        <ele>132.32</ele>
        <time>2021-08-18T08:45:36Z</time>
      </trkpt>
      <trkpt lat="43.86783" lon="1.58366">
        <ele>131.84</ele>
        <time>2021-08-18T08:45:37Z</time>
      </trkpt>
      <trkpt lat="43.86777" lon="1.58361">
        <ele>131.84</ele>
        <time>2021-08-18T08:45:38Z</time>
      </trkpt>
      <trkpt lat="43.86772" lon="1.58354">
        <ele>131.84</ele>
        <time>2021-08-18T08:45:39Z</time>
      </trkpt>
      <trkpt lat="43.86767" lon="1.58345">
        <ele>131.84</ele>
        <time>2021-08-18T08:45:40Z</time>
      </trkpt>
      <trkpt lat="43.86763" lon="1.58337">
        <ele>131.84</ele>
        <time>2021-08-18T08:45:41Z</time>
      </trkpt>
      <trkpt lat="43.86759" lon="1.58329">
        <ele>131.84</ele>
        <time>2021-08-18T08:45:42Z</time>
      </trkpt>
      <trkpt lat="43.86725" lon="1.58264">
        <ele>131.36</ele>
        <time>2021-08-18T08:45:50Z</time>
      </trkpt>
      <trkpt lat="43.86697" lon="1.58221">
        <ele>131.36</ele>
        <time>2021-08-18T08:45:56Z</time>
      </trkpt>
      <trkpt lat="43.86642" lon="1.58152">
        <ele>131.36</ele>
        <time>2021-08-18T08:46:07Z</time>
      </trkpt>
      <trkpt lat="43.86603" lon="1.58102">
        <ele>131.36</ele>
        <time>2021-08-18T08:46:15Z</time>
      </trkpt>
      <trkpt lat="43.8658" lon="1.58085">
        <ele>130.4</ele>
        <time>2021-08-18T08:46:19Z</time>
      </trkpt>
      <trkpt lat="43.8653" lon="1.58067">
        <ele>130.4</ele>
        <time>2021-08-18T08:46:27Z</time>
      </trkpt>
      <trkpt lat="43.86489" lon="1.58056">
        <ele>129.43</ele>
        <time>2021-08-18T08:46:34Z</time>
      </trkpt>
      <trkpt lat="43.86456" lon="1.58045">
        <ele>129.43</ele>
        <time>2021-08-18T08:46:40Z</time>
      </trkpt>
      <trkpt lat="43.86452" lon="1.58041">
        <ele>129.43</ele>
        <time>2021-08-18T08:46:41Z</time>
      </trkpt>
      <trkpt lat="43.86448" lon="1.58035">
        <ele>129.43</ele>
        <time>2021-08-18T08:46:42Z</time>
      </trkpt>
      <trkpt lat="43.86446" lon="1.5803">
        <ele>129.43</ele>
        <time>2021-08-18T08:46:43Z</time>
      </trkpt>
      <trkpt lat="43.86443" lon="1.58023">
        <ele>129.43</ele>
        <time>2021-08-18T08:46:44Z</time>
      </trkpt>
      <trkpt lat="43.86442" lon="1.58016">
        <ele>129.43</ele>
        <time>2021-08-18T08:46:45Z</time>
      </trkpt>
      <trkpt lat="43.8644" lon="1.58008">
        <ele>129.43</ele>
        <time>2021-08-18T08:46:46Z</time>
      </trkpt>
      <trkpt lat="43.8644" lon="1.58">
        <ele>129.43</ele>
        <time>2021-08-18T08:46:47Z</time>
      </trkpt>
      <trkpt lat="43.86438" lon="1.57973">
        <ele>130.4</ele>
        <time>2021-08-18T08:46:51Z</time>
      </trkpt>
      <trkpt lat="43.86434" lon="1.57922">
        <ele>132.32</ele>
        <time>2021-08-18T08:47:00Z</time>
      </trkpt>
      <trkpt lat="43.86424" lon="1.57874">
        <ele>134.24</ele>
        <time>2021-08-18T08:47:10Z</time>
      </trkpt>
      <trkpt lat="43.86413" lon="1.57844">
        <ele>134.24</ele>
        <time>2021-08-18T08:47:16Z</time>
      </trkpt>
      <trkpt lat="43.86394" lon="1.5779">
        <ele>131.84</ele>
        <time>2021-08-18T08:47:23Z</time>
      </trkpt>
      <trkpt lat="43.86371" lon="1.57724">
        <ele>129.43</ele>
        <time>2021-08-18T08:47:30Z</time>
      </trkpt>
      <trkpt lat="43.86337" lon="1.57627">
        <ele>128.95</ele>
        <time>2021-08-18T08:47:40Z</time>
      </trkpt>
      <trkpt lat="43.86324" lon="1.57568">
        <ele>130.88</ele>
        <time>2021-08-18T08:47:47Z</time>
      </trkpt>
      <trkpt lat="43.86311" lon="1.57499">
        <ele>131.84</ele>
        <time>2021-08-18T08:47:56Z</time>
      </trkpt>
      <trkpt lat="43.86295" lon="1.57428">
        <ele>129.92</ele>
        <time>2021-08-18T08:48:04Z</time>
      </trkpt>
      <trkpt lat="43.8628" lon="1.57365">
        <ele>129.92</ele>
        <time>2021-08-18T08:48:12Z</time>
      </trkpt>
      <trkpt lat="43.86269" lon="1.57314">
        <ele>129.92</ele>
        <time>2021-08-18T08:48:19Z</time>
      </trkpt>
      <trkpt lat="43.8625" lon="1.57246">
        <ele>129.92</ele>
        <time>2021-08-18T08:48:28Z</time>
      </trkpt>
      <trkpt lat="43.86226" lon="1.57171">
        <ele>129.92</ele>
        <time>2021-08-18T08:48:38Z</time>
      </trkpt>
      <trkpt lat="43.86199" lon="1.57111">
        <ele>128.95</ele>
        <time>2021-08-18T08:48:46Z</time>
      </trkpt>
      <trkpt lat="43.86163" lon="1.57057">
        <ele>128.47</ele>
        <time>2021-08-18T08:48:54Z</time>
      </trkpt>
      <trkpt lat="43.86122" lon="1.56996">
        <ele>128.47</ele>
        <time>2021-08-18T08:49:03Z</time>
      </trkpt>
      <trkpt lat="43.86086" lon="1.5693">
        <ele>127.99</ele>
        <time>2021-08-18T08:49:12Z</time>
      </trkpt>
      <trkpt lat="43.86059" lon="1.56883">
        <ele>127.99</ele>
        <time>2021-08-18T08:49:19Z</time>
      </trkpt>
      <trkpt lat="43.86053" lon="1.56871">
        <ele>127.99</ele>
        <time>2021-08-18T08:49:21Z</time>
      </trkpt>
      <trkpt lat="43.86023" lon="1.56816">
        <ele>128.95</ele>
        <time>2021-08-18T08:49:30Z</time>
      </trkpt>
      <trkpt lat="43.85997" lon="1.56766">
        <ele>127.51</ele>
        <time>2021-08-18T08:49:37Z</time>
      </trkpt>
      <trkpt lat="43.85984" lon="1.56742">
        <ele>126.55</ele>
        <time>2021-08-18T08:49:40Z</time>
      </trkpt>
      <trkpt lat="43.85954" lon="1.56695">
        <ele>124.15</ele>
        <time>2021-08-18T08:49:46Z</time>
      </trkpt>
      <trkpt lat="43.85912" lon="1.56633">
        <ele>122.71</ele>
        <time>2021-08-18T08:49:54Z</time>
      </trkpt>
      <trkpt lat="43.85878" lon="1.56567">
        <ele>122.22</ele>
        <time>2021-08-18T08:50:02Z</time>
      </trkpt>
      <trkpt lat="43.85863" lon="1.56517">
        <ele>122.71</ele>
        <time>2021-08-18T08:50:08Z</time>
      </trkpt>
      <trkpt lat="43.8584" lon="1.56433">
        <ele>122.22</ele>
        <time>2021-08-18T08:50:18Z</time>
      </trkpt>
      <trkpt lat="43.85816" lon="1.56385">
        <ele>122.22</ele>
        <time>2021-08-18T08:50:25Z</time>
      </trkpt>
      <trkpt lat="43.85788" lon="1.56339">
        <ele>123.19</ele>
        <time>2021-08-18T08:50:32Z</time>
      </trkpt>
      <trkpt lat="43.85781" lon="1.56328">
        <ele>123.19</ele>
        <time>2021-08-18T08:50:34Z</time>
      </trkpt>
      <trkpt lat="43.85778" lon="1.56322">
        <ele>123.19</ele>
        <time>2021-08-18T08:50:35Z</time>
      </trkpt>
      <trkpt lat="43.85751" lon="1.56256">
        <ele>123.67</ele>
        <time>2021-08-18T08:50:45Z</time>
      </trkpt>
      <trkpt lat="43.85733" lon="1.562">
        <ele>122.22</ele>
        <time>2021-08-18T08:50:52Z</time>
      </trkpt>
      <trkpt lat="43.85725" lon="1.56147">
        <ele>122.22</ele>
        <time>2021-08-18T08:50:58Z</time>
      </trkpt>
      <trkpt lat="43.85725" lon="1.56108">
        <ele>123.67</ele>
        <time>2021-08-18T08:51:03Z</time>
      </trkpt>
      <trkpt lat="43.85724" lon="1.56102">
        <ele>123.67</ele>
        <time>2021-08-18T08:51:04Z</time>
      </trkpt>
      <trkpt lat="43.85724" lon="1.56078">
        <ele>124.63</ele>
        <time>2021-08-18T08:51:07Z</time>
      </trkpt>
      <trkpt lat="43.85723" lon="1.56072">
        <ele>124.63</ele>
        <time>2021-08-18T08:51:08Z</time>
      </trkpt>
      <trkpt lat="43.85722" lon="1.56036">
        <ele>124.63</ele>
        <time>2021-08-18T08:51:13Z</time>
      </trkpt>
      <trkpt lat="43.85714" lon="1.5598">
        <ele>124.63</ele>
        <time>2021-08-18T08:51:20Z</time>
      </trkpt>
      <trkpt lat="43.85708" lon="1.55955">
        <ele>123.19</ele>
        <time>2021-08-18T08:51:23Z</time>
      </trkpt>
      <trkpt lat="43.85689" lon="1.55869">
        <ele>122.71</ele>
        <time>2021-08-18T08:51:33Z</time>
      </trkpt>
      <trkpt lat="43.85668" lon="1.55798">
        <ele>122.71</ele>
        <time>2021-08-18T08:51:42Z</time>
      </trkpt>
      <trkpt lat="43.85654" lon="1.55756">
        <ele>124.15</ele>
        <time>2021-08-18T08:51:48Z</time>
      </trkpt>
      <trkpt lat="43.85634" lon="1.55698">
        <ele>122.71</ele>
        <time>2021-08-18T08:51:56Z</time>
      </trkpt>
      <trkpt lat="43.85632" lon="1.5569">
        <ele>122.71</ele>
        <time>2021-08-18T08:51:57Z</time>
      </trkpt>
      <trkpt lat="43.85622" lon="1.55652">
        <ele>121.26</ele>
        <time>2021-08-18T08:52:01Z</time>
      </trkpt>
      <trkpt lat="43.85611" lon="1.55598">
        <ele>117.9</ele>
        <time>2021-08-18T08:52:06Z</time>
      </trkpt>
      <trkpt lat="43.85609" lon="1.55586">
        <ele>117.9</ele>
        <time>2021-08-18T08:52:07Z</time>
      </trkpt>
      <trkpt lat="43.85594" lon="1.55544">
        <ele>117.42</ele>
        <time>2021-08-18T08:52:11Z</time>
      </trkpt>
      <trkpt lat="43.85562" lon="1.55491">
        <ele>116.94</ele>
        <time>2021-08-18T08:52:17Z</time>
      </trkpt>
      <trkpt lat="43.85525" lon="1.55433">
        <ele>118.38</ele>
        <time>2021-08-18T08:52:25Z</time>
      </trkpt>
      <trkpt lat="43.85481" lon="1.55362">
        <ele>117.42</ele>
        <time>2021-08-18T08:52:35Z</time>
      </trkpt>
      <trkpt lat="43.85437" lon="1.55309">
        <ele>116.46</ele>
        <time>2021-08-18T08:52:43Z</time>
      </trkpt>
      <trkpt lat="43.85393" lon="1.55263">
        <ele>116.46</ele>
        <time>2021-08-18T08:52:51Z</time>
      </trkpt>
      <trkpt lat="43.85383" lon="1.55253">
        <ele>116.46</ele>
        <time>2021-08-18T08:52:53Z</time>
      </trkpt>
      <trkpt lat="43.85378" lon="1.55247">
        <ele>116.46</ele>
        <time>2021-08-18T08:52:54Z</time>
      </trkpt>
      <trkpt lat="43.85337" lon="1.55203">
        <ele>118.86</ele>
        <time>2021-08-18T08:53:03Z</time>
      </trkpt>
      <trkpt lat="43.85303" lon="1.55165">
        <ele>119.82</ele>
        <time>2021-08-18T08:53:12Z</time>
      </trkpt>
      <trkpt lat="43.8527" lon="1.55132">
        <ele>119.82</ele>
        <time>2021-08-18T08:53:20Z</time>
      </trkpt>
      <trkpt lat="43.85231" lon="1.55088">
        <ele>117.42</ele>
        <time>2021-08-18T08:53:28Z</time>
      </trkpt>
      <trkpt lat="43.85199" lon="1.5503">
        <ele>115.01</ele>
        <time>2021-08-18T08:53:35Z</time>
      </trkpt>
      <trkpt lat="43.85172" lon="1.5498">
        <ele>114.53</ele>
        <time>2021-08-18T08:53:41Z</time>
      </trkpt>
      <trkpt lat="43.85136" lon="1.54918">
        <ele>114.53</ele>
        <time>2021-08-18T08:53:49Z</time>
      </trkpt>
      <trkpt lat="43.85125" lon="1.54895">
        <ele>114.53</ele>
        <time>2021-08-18T08:53:52Z</time>
      </trkpt>
      <trkpt lat="43.85106" lon="1.54834">
        <ele>116.46</ele>
        <time>2021-08-18T08:54:00Z</time>
      </trkpt>
      <trkpt lat="43.851" lon="1.54813">
        <ele>117.42</ele>
        <time>2021-08-18T08:54:03Z</time>
      </trkpt>
      <trkpt lat="43.85083" lon="1.5477">
        <ele>117.42</ele>
        <time>2021-08-18T08:54:10Z</time>
      </trkpt>
      <trkpt lat="43.85052" lon="1.54733">
        <ele>117.9</ele>
        <time>2021-08-18T08:54:18Z</time>
      </trkpt>
      <trkpt lat="43.8502" lon="1.5471">
        <ele>116.94</ele>
        <time>2021-08-18T08:54:24Z</time>
      </trkpt>
      <trkpt lat="43.84973" lon="1.5468">
        <ele>114.05</ele>
        <time>2021-08-18T08:54:31Z</time>
      </trkpt>
      <trkpt lat="43.84965" lon="1.54676">
        <ele>114.05</ele>
        <time>2021-08-18T08:54:32Z</time>
      </trkpt>
      <trkpt lat="43.84914" lon="1.54657">
        <ele>112.13</ele>
        <time>2021-08-18T08:54:38Z</time>
      </trkpt>
      <trkpt lat="43.84843" lon="1.54635">
        <ele>111.65</ele>
        <time>2021-08-18T08:54:47Z</time>
      </trkpt>
      <trkpt lat="43.84795" lon="1.54614">
        <ele>111.65</ele>
        <time>2021-08-18T08:54:54Z</time>
      </trkpt>
      <trkpt lat="43.8474" lon="1.54588">
        <ele>109.73</ele>
        <time>2021-08-18T08:55:01Z</time>
      </trkpt>
      <trkpt lat="43.84678" lon="1.54561">
        <ele>109.25</ele>
        <time>2021-08-18T08:55:09Z</time>
      </trkpt>
      <trkpt lat="43.84636" lon="1.54547">
        <ele>109.25</ele>
        <time>2021-08-18T08:55:15Z</time>
      </trkpt>
      <trkpt lat="43.84577" lon="1.54527">
        <ele>109.25</ele>
        <time>2021-08-18T08:55:24Z</time>
      </trkpt>
      <trkpt lat="43.84526" lon="1.5451">
        <ele>108.77</ele>
        <time>2021-08-18T08:55:31Z</time>
      </trkpt>
      <trkpt lat="43.84465" lon="1.54492">
        <ele>107.32</ele>
        <time>2021-08-18T08:55:39Z</time>
      </trkpt>
      <trkpt lat="43.84457" lon="1.54486">
        <ele>107.32</ele>
        <time>2021-08-18T08:55:40Z</time>
      </trkpt>
      <trkpt lat="43.84451" lon="1.54481">
        <ele>107.32</ele>
        <time>2021-08-18T08:55:41Z</time>
      </trkpt>
      <trkpt lat="43.84444" lon="1.54474">
        <ele>106.84</ele>
        <time>2021-08-18T08:55:42Z</time>
      </trkpt>
      <trkpt lat="43.84439" lon="1.54468">
        <ele>106.84</ele>
        <time>2021-08-18T08:55:43Z</time>
      </trkpt>
      <trkpt lat="43.84383" lon="1.54408">
        <ele>105.88</ele>
        <time>2021-08-18T08:55:52Z</time>
      </trkpt>
      <trkpt lat="43.8437" lon="1.54397">
        <ele>104.92</ele>
        <time>2021-08-18T08:55:54Z</time>
      </trkpt>
      <trkpt lat="43.84325" lon="1.54372">
        <ele>104.92</ele>
        <time>2021-08-18T08:56:01Z</time>
      </trkpt>
      <trkpt lat="43.84313" lon="1.54365">
        <ele>104.92</ele>
        <time>2021-08-18T08:56:03Z</time>
      </trkpt>
      <trkpt lat="43.84307" lon="1.54362">
        <ele>104.92</ele>
        <time>2021-08-18T08:56:04Z</time>
      </trkpt>
      <trkpt lat="43.84285" lon="1.54346">
        <ele>104.92</ele>
        <time>2021-08-18T08:56:08Z</time>
      </trkpt>
      <trkpt lat="43.8428" lon="1.54343">
        <ele>104.92</ele>
        <time>2021-08-18T08:56:09Z</time>
      </trkpt>
      <trkpt lat="43.84274" lon="1.54339">
        <ele>104.92</ele>
        <time>2021-08-18T08:56:10Z</time>
      </trkpt>
      <trkpt lat="43.84264" lon="1.54333">
        <ele>104.92</ele>
        <time>2021-08-18T08:56:12Z</time>
      </trkpt>
      <trkpt lat="43.84259" lon="1.54329">
        <ele>106.36</ele>
        <time>2021-08-18T08:56:13Z</time>
      </trkpt>
      <trkpt lat="43.84254" lon="1.54325">
        <ele>106.36</ele>
        <time>2021-08-18T08:56:14Z</time>
      </trkpt>
      <trkpt lat="43.84249" lon="1.54321">
        <ele>106.36</ele>
        <time>2021-08-18T08:56:15Z</time>
      </trkpt>
      <trkpt lat="43.84243" lon="1.54318">
        <ele>106.36</ele>
        <time>2021-08-18T08:56:16Z</time>
      </trkpt>
      <trkpt lat="43.84203" lon="1.54282">
        <ele>107.32</ele>
        <time>2021-08-18T08:56:25Z</time>
      </trkpt>
      <trkpt lat="43.84176" lon="1.54256">
        <ele>107.32</ele>
        <time>2021-08-18T08:56:31Z</time>
      </trkpt>
      <trkpt lat="43.84152" lon="1.54227">
        <ele>107.81</ele>
        <time>2021-08-18T08:56:37Z</time>
      </trkpt>
      <trkpt lat="43.84149" lon="1.54221">
        <ele>107.81</ele>
        <time>2021-08-18T08:56:38Z</time>
      </trkpt>
      <trkpt lat="43.84146" lon="1.54215">
        <ele>107.81</ele>
        <time>2021-08-18T08:56:39Z</time>
      </trkpt>
      <trkpt lat="43.84144" lon="1.54208">
        <ele>107.81</ele>
        <time>2021-08-18T08:56:40Z</time>
      </trkpt>
      <trkpt lat="43.84142" lon="1.54201">
        <ele>107.81</ele>
        <time>2021-08-18T08:56:41Z</time>
      </trkpt>
      <trkpt lat="43.8414" lon="1.54193">
        <ele>107.81</ele>
        <time>2021-08-18T08:56:42Z</time>
      </trkpt>
      <trkpt lat="43.84139" lon="1.54186">
        <ele>107.81</ele>
        <time>2021-08-18T08:56:43Z</time>
      </trkpt>
      <trkpt lat="43.84139" lon="1.54178">
        <ele>107.81</ele>
        <time>2021-08-18T08:56:44Z</time>
      </trkpt>
      <trkpt lat="43.8413" lon="1.54108">
        <ele>107.81</ele>
        <time>2021-08-18T08:56:53Z</time>
      </trkpt>
      <trkpt lat="43.84126" lon="1.54093">
        <ele>107.81</ele>
        <time>2021-08-18T08:56:55Z</time>
      </trkpt>
      <trkpt lat="43.84123" lon="1.54086">
        <ele>107.81</ele>
        <time>2021-08-18T08:56:56Z</time>
      </trkpt>
      <trkpt lat="43.8412" lon="1.54081">
        <ele>107.81</ele>
        <time>2021-08-18T08:56:57Z</time>
      </trkpt>
      <trkpt lat="43.84116" lon="1.54075">
        <ele>107.81</ele>
        <time>2021-08-18T08:56:58Z</time>
      </trkpt>
      <trkpt lat="43.84112" lon="1.5407">
        <ele>107.81</ele>
        <time>2021-08-18T08:56:59Z</time>
      </trkpt>
      <trkpt lat="43.84078" lon="1.54028">
        <ele>108.29</ele>
        <time>2021-08-18T08:57:08Z</time>
      </trkpt>
      <trkpt lat="43.84056" lon="1.54001">
        <ele>108.77</ele>
        <time>2021-08-18T08:57:14Z</time>
      </trkpt>
      <trkpt lat="43.84053" lon="1.53996">
        <ele>108.77</ele>
        <time>2021-08-18T08:57:15Z</time>
      </trkpt>
      <trkpt lat="43.84028" lon="1.5396">
        <ele>108.77</ele>
        <time>2021-08-18T08:57:23Z</time>
      </trkpt>
      <trkpt lat="43.84022" lon="1.53951">
        <ele>108.77</ele>
        <time>2021-08-18T08:57:25Z</time>
      </trkpt>
      <trkpt lat="43.84019" lon="1.53948">
        <ele>108.77</ele>
        <time>2021-08-18T08:57:26Z</time>
      </trkpt>
      <trkpt lat="43.84004" lon="1.53919">
        <ele>108.77</ele>
        <time>2021-08-18T08:57:32Z</time>
      </trkpt>
      <trkpt lat="43.83982" lon="1.53872">
        <ele>107.32</ele>
        <time>2021-08-18T08:57:40Z</time>
      </trkpt>
      <trkpt lat="43.83955" lon="1.53814">
        <ele>106.84</ele>
        <time>2021-08-18T08:57:49Z</time>
      </trkpt>
      <trkpt lat="43.8395" lon="1.538">
        <ele>107.32</ele>
        <time>2021-08-18T08:57:51Z</time>
      </trkpt>
      <trkpt lat="43.83949" lon="1.53792">
        <ele>107.32</ele>
        <time>2021-08-18T08:57:52Z</time>
      </trkpt>
      <trkpt lat="43.83949" lon="1.53784">
        <ele>107.32</ele>
        <time>2021-08-18T08:57:53Z</time>
      </trkpt>
      <trkpt lat="43.8395" lon="1.53776">
        <ele>107.32</ele>
        <time>2021-08-18T08:57:54Z</time>
      </trkpt>
      <trkpt lat="43.83953" lon="1.5377">
        <ele>107.32</ele>
        <time>2021-08-18T08:57:55Z</time>
      </trkpt>
      <trkpt lat="43.83957" lon="1.53764">
        <ele>107.32</ele>
        <time>2021-08-18T08:57:56Z</time>
      </trkpt>
      <trkpt lat="43.8396" lon="1.53758">
        <ele>107.32</ele>
        <time>2021-08-18T08:57:57Z</time>
      </trkpt>
      <trkpt lat="43.83981" lon="1.53722">
        <ele>106.36</ele>
        <time>2021-08-18T08:58:03Z</time>
      </trkpt>
      <trkpt lat="43.83993" lon="1.53702">
        <ele>106.36</ele>
        <time>2021-08-18T08:58:07Z</time>
      </trkpt>
      <trkpt lat="43.83998" lon="1.53698">
        <ele>106.36</ele>
        <time>2021-08-18T08:58:08Z</time>
      </trkpt>
      <trkpt lat="43.84002" lon="1.53696">
        <ele>106.36</ele>
        <time>2021-08-18T08:58:09Z</time>
      </trkpt>
      <trkpt lat="43.84008" lon="1.53697">
        <ele>106.36</ele>
        <time>2021-08-18T08:58:10Z</time>
      </trkpt>
      <trkpt lat="43.84011" lon="1.53699">
        <ele>106.36</ele>
        <time>2021-08-18T08:58:11Z</time>
      </trkpt>
      <trkpt lat="43.84016" lon="1.53703">
        <ele>106.36</ele>
        <time>2021-08-18T08:58:12Z</time>
      </trkpt>
      <trkpt lat="43.84019" lon="1.53706">
        <ele>107.81</ele>
        <time>2021-08-18T08:58:13Z</time>
      </trkpt>
      <trkpt lat="43.8404" lon="1.53722">
        <ele>108.29</ele>
        <time>2021-08-18T08:58:19Z</time>
      </trkpt>
      <trkpt lat="43.84043" lon="1.53721">
        <ele>108.29</ele>
        <time>2021-08-18T08:58:20Z</time>
      </trkpt>
      <trkpt lat="43.84047" lon="1.53717">
        <ele>108.29</ele>
        <time>2021-08-18T08:58:21Z</time>
      </trkpt>
      <trkpt lat="43.84048" lon="1.53714">
        <ele>108.29</ele>
        <time>2021-08-18T08:58:22Z</time>
      </trkpt>
      <trkpt lat="43.84051" lon="1.5371">
        <ele>108.29</ele>
        <time>2021-08-18T08:58:23Z</time>
      </trkpt>
      <trkpt lat="43.84073" lon="1.53677">
        <ele>108.29</ele>
        <time>2021-08-18T08:58:30Z</time>
      </trkpt>
      <trkpt lat="43.84081" lon="1.53666">
        <ele>106.36</ele>
        <time>2021-08-18T08:58:32Z</time>
      </trkpt>
      <trkpt lat="43.84109" lon="1.53643">
        <ele>103.96</ele>
        <time>2021-08-18T08:58:37Z</time>
      </trkpt>
      <trkpt lat="43.84117" lon="1.53639">
        <ele>103.48</ele>
        <time>2021-08-18T08:58:38Z</time>
      </trkpt>
      <trkpt lat="43.84153" lon="1.53624">
        <ele>103</ele>
        <time>2021-08-18T08:58:43Z</time>
      </trkpt>
      <trkpt lat="43.84158" lon="1.53618">
        <ele>103</ele>
        <time>2021-08-18T08:58:44Z</time>
      </trkpt>
      <trkpt lat="43.84163" lon="1.53611">
        <ele>102.04</ele>
        <time>2021-08-18T08:58:45Z</time>
      </trkpt>
      <trkpt lat="43.84166" lon="1.53603">
        <ele>102.52</ele>
        <time>2021-08-18T08:58:46Z</time>
      </trkpt>
      <trkpt lat="43.84169" lon="1.53594">
        <ele>102.52</ele>
        <time>2021-08-18T08:58:47Z</time>
      </trkpt>
      <trkpt lat="43.84173" lon="1.53587">
        <ele>102.52</ele>
        <time>2021-08-18T08:58:48Z</time>
      </trkpt>
      <trkpt lat="43.84177" lon="1.53581">
        <ele>102.52</ele>
        <time>2021-08-18T08:58:49Z</time>
      </trkpt>
      <trkpt lat="43.84179" lon="1.53575">
        <ele>102.52</ele>
        <time>2021-08-18T08:58:50Z</time>
      </trkpt>
      <trkpt lat="43.84179" lon="1.53569">
        <ele>102.52</ele>
        <time>2021-08-18T08:58:51Z</time>
      </trkpt>
      <trkpt lat="43.8418" lon="1.53564">
        <ele>102.52</ele>
        <time>2021-08-18T08:58:52Z</time>
      </trkpt>
      <trkpt lat="43.8418" lon="1.53558">
        <ele>102.52</ele>
        <time>2021-08-18T08:58:53Z</time>
      </trkpt>
      <trkpt lat="43.84181" lon="1.53554">
        <ele>102.52</ele>
        <time>2021-08-18T08:58:54Z</time>
      </trkpt>
      <trkpt lat="43.84181" lon="1.5355">
        <ele>102.52</ele>
        <time>2021-08-18T08:58:55Z</time>
      </trkpt>
      <trkpt lat="43.84182" lon="1.53546">
        <ele>102.52</ele>
        <time>2021-08-18T08:58:56Z</time>
      </trkpt>
      <trkpt lat="43.84183" lon="1.53543">
        <ele>102.52</ele>
        <time>2021-08-18T08:58:57Z</time>
      </trkpt>
      <trkpt lat="43.84183" lon="1.53539">
        <ele>102.52</ele>
        <time>2021-08-18T08:58:58Z</time>
      </trkpt>
      <trkpt lat="43.84184" lon="1.53521">
        <ele>103.96</ele>
        <time>2021-08-18T08:59:03Z</time>
      </trkpt>
      <trkpt lat="43.84186" lon="1.53495">
        <ele>105.4</ele>
        <time>2021-08-18T08:59:12Z</time>
      </trkpt>
      <trkpt lat="43.84187" lon="1.53471">
        <ele>106.36</ele>
        <time>2021-08-18T08:59:21Z</time>
      </trkpt>
      <trkpt lat="43.84188" lon="1.53452">
        <ele>108.29</ele>
        <time>2021-08-18T08:59:29Z</time>
      </trkpt>
      <trkpt lat="43.8419" lon="1.53447">
        <ele>108.29</ele>
        <time>2021-08-18T08:59:31Z</time>
      </trkpt>
      <trkpt lat="43.84191" lon="1.53446">
        <ele>108.29</ele>
        <time>2021-08-18T08:59:32Z</time>
      </trkpt>
      <trkpt lat="43.84193" lon="1.53445">
        <ele>108.29</ele>
        <time>2021-08-18T08:59:33Z</time>
      </trkpt>
      <trkpt lat="43.84195" lon="1.53444">
        <ele>108.29</ele>
        <time>2021-08-18T08:59:34Z</time>
      </trkpt>
      <trkpt lat="43.84197" lon="1.53443">
        <ele>108.77</ele>
        <time>2021-08-18T08:59:38Z</time>
      </trkpt>
      <trkpt lat="43.84203" lon="1.5344">
        <ele>110.21</ele>
        <time>2021-08-18T08:59:49Z</time>
      </trkpt>
      <trkpt lat="43.8421" lon="1.5344">
        <ele>111.65</ele>
        <time>2021-08-18T08:59:58Z</time>
      </trkpt>
      <trkpt lat="43.84219" lon="1.53442">
        <ele>113.57</ele>
        <time>2021-08-18T09:00:08Z</time>
      </trkpt>
      <trkpt lat="43.84228" lon="1.53444">
        <ele>114.53</ele>
        <time>2021-08-18T09:00:17Z</time>
      </trkpt>
      <trkpt lat="43.84238" lon="1.53444">
        <ele>115.98</ele>
        <time>2021-08-18T09:00:28Z</time>
      </trkpt>
      <trkpt lat="43.84246" lon="1.53447">
        <ele>117.42</ele>
        <time>2021-08-18T09:00:38Z</time>
      </trkpt>
      <trkpt lat="43.84255" lon="1.53454">
        <ele>119.34</ele>
        <time>2021-08-18T09:00:50Z</time>
      </trkpt>
      <trkpt lat="43.84261" lon="1.53462">
        <ele>121.26</ele>
        <time>2021-08-18T09:01:01Z</time>
      </trkpt>
      <trkpt lat="43.84268" lon="1.5347">
        <ele>123.67</ele>
        <time>2021-08-18T09:01:13Z</time>
      </trkpt>
      <trkpt lat="43.84272" lon="1.53475">
        <ele>124.63</ele>
        <time>2021-08-18T09:01:21Z</time>
      </trkpt>
      <trkpt lat="43.84277" lon="1.53478">
        <ele>125.59</ele>
        <time>2021-08-18T09:01:26Z</time>
      </trkpt>
      <trkpt lat="43.84284" lon="1.53484">
        <ele>127.03</ele>
        <time>2021-08-18T09:01:34Z</time>
      </trkpt>
      <trkpt lat="43.84289" lon="1.53486">
        <ele>128.47</ele>
        <time>2021-08-18T09:01:40Z</time>
      </trkpt>
      <trkpt lat="43.84296" lon="1.5349">
        <ele>129.43</ele>
        <time>2021-08-18T09:01:49Z</time>
      </trkpt>
      <trkpt lat="43.84305" lon="1.53495">
        <ele>131.36</ele>
        <time>2021-08-18T09:02:00Z</time>
      </trkpt>
      <trkpt lat="43.84312" lon="1.53497">
        <ele>132.8</ele>
        <time>2021-08-18T09:02:09Z</time>
      </trkpt>
      <trkpt lat="43.84319" lon="1.53499">
        <ele>135.2</ele>
        <time>2021-08-18T09:02:20Z</time>
      </trkpt>
      <trkpt lat="43.84327" lon="1.535">
        <ele>137.13</ele>
        <time>2021-08-18T09:02:31Z</time>
      </trkpt>
      <trkpt lat="43.84332" lon="1.53502">
        <ele>138.57</ele>
        <time>2021-08-18T09:02:39Z</time>
      </trkpt>
      <trkpt lat="43.84337" lon="1.53501">
        <ele>140.49</ele>
        <time>2021-08-18T09:02:47Z</time>
      </trkpt>
      <trkpt lat="43.84343" lon="1.53499">
        <ele>141.93</ele>
        <time>2021-08-18T09:02:57Z</time>
      </trkpt>
      <trkpt lat="43.84349" lon="1.53493">
        <ele>144.34</ele>
        <time>2021-08-18T09:03:09Z</time>
      </trkpt>
      <trkpt lat="43.84349" lon="1.53483">
        <ele>146.26</ele>
        <time>2021-08-18T09:03:19Z</time>
      </trkpt>
      <trkpt lat="43.84349" lon="1.5348">
        <ele>146.74</ele>
        <time>2021-08-18T09:03:21Z</time>
      </trkpt>
      <trkpt lat="43.84344" lon="1.53468">
        <ele>147.7</ele>
        <time>2021-08-18T09:03:30Z</time>
      </trkpt>
      <trkpt lat="43.84343" lon="1.53457">
        <ele>148.66</ele>
        <time>2021-08-18T09:03:38Z</time>
      </trkpt>
      <trkpt lat="43.84343" lon="1.53456">
        <ele>149.14</ele>
        <time>2021-08-18T09:03:39Z</time>
      </trkpt>
      <trkpt lat="43.84348" lon="1.53439">
        <ele>150.1</ele>
        <time>2021-08-18T09:03:50Z</time>
      </trkpt>
      <trkpt lat="43.84352" lon="1.5343">
        <ele>151.06</ele>
        <time>2021-08-18T09:04:01Z</time>
      </trkpt>
      <trkpt lat="43.84353" lon="1.53431">
        <ele>151.06</ele>
        <time>2021-08-18T09:04:10Z</time>
      </trkpt>
      <trkpt lat="43.84354" lon="1.53429">
        <ele>151.06</ele>
        <time>2021-08-18T09:04:36Z</time>
      </trkpt>
      <trkpt lat="43.84353" lon="1.53434">
        <ele>151.06</ele>
        <time>2021-08-18T09:04:54Z</time>
      </trkpt>
      <trkpt lat="43.84353" lon="1.53436">
        <ele>151.06</ele>
        <time>2021-08-18T09:05:19Z</time>
      </trkpt>
      <trkpt lat="43.84353" lon="1.53432">
        <ele>151.06</ele>
        <time>2021-08-18T09:05:27Z</time>
      </trkpt>
      <trkpt lat="43.84356" lon="1.53418">
        <ele>152.03</ele>
        <time>2021-08-18T09:05:35Z</time>
      </trkpt>
      <trkpt lat="43.84358" lon="1.53406">
        <ele>153.95</ele>
        <time>2021-08-18T09:05:42Z</time>
      </trkpt>
      <trkpt lat="43.8436" lon="1.53391">
        <ele>155.39</ele>
        <time>2021-08-18T09:05:51Z</time>
      </trkpt>
      <trkpt lat="43.84361" lon="1.5338">
        <ele>157.31</ele>
        <time>2021-08-18T09:06:00Z</time>
      </trkpt>
      <trkpt lat="43.84363" lon="1.5337">
        <ele>158.75</ele>
        <time>2021-08-18T09:06:08Z</time>
      </trkpt>
      <trkpt lat="43.84364" lon="1.53359">
        <ele>160.68</ele>
        <time>2021-08-18T09:06:17Z</time>
      </trkpt>
      <trkpt lat="43.84366" lon="1.53344">
        <ele>162.12</ele>
        <time>2021-08-18T09:06:26Z</time>
      </trkpt>
      <trkpt lat="43.84367" lon="1.53332">
        <ele>163.08</ele>
        <time>2021-08-18T09:06:35Z</time>
      </trkpt>
      <trkpt lat="43.84368" lon="1.53327">
        <ele>164.04</ele>
        <time>2021-08-18T09:06:43Z</time>
      </trkpt>
      <trkpt lat="43.84369" lon="1.53316">
        <ele>164.52</ele>
        <time>2021-08-18T09:06:50Z</time>
      </trkpt>
      <trkpt lat="43.84373" lon="1.533">
        <ele>165.48</ele>
        <time>2021-08-18T09:06:56Z</time>
      </trkpt>
      <trkpt lat="43.84378" lon="1.5328">
        <ele>166.93</ele>
        <time>2021-08-18T09:07:05Z</time>
      </trkpt>
      <trkpt lat="43.84382" lon="1.53265">
        <ele>168.37</ele>
        <time>2021-08-18T09:07:13Z</time>
      </trkpt>
      <trkpt lat="43.84388" lon="1.53247">
        <ele>169.81</ele>
        <time>2021-08-18T09:07:23Z</time>
      </trkpt>
      <trkpt lat="43.84394" lon="1.53233">
        <ele>170.77</ele>
        <time>2021-08-18T09:07:31Z</time>
      </trkpt>
      <trkpt lat="43.84406" lon="1.53205">
        <ele>172.69</ele>
        <time>2021-08-18T09:07:43Z</time>
      </trkpt>
      <trkpt lat="43.84416" lon="1.53183">
        <ele>174.14</ele>
        <time>2021-08-18T09:07:52Z</time>
      </trkpt>
      <trkpt lat="43.84425" lon="1.53163">
        <ele>174.62</ele>
        <time>2021-08-18T09:07:59Z</time>
      </trkpt>
      <trkpt lat="43.84439" lon="1.53135">
        <ele>175.1</ele>
        <time>2021-08-18T09:08:07Z</time>
      </trkpt>
      <trkpt lat="43.84457" lon="1.53104">
        <ele>175.58</ele>
        <time>2021-08-18T09:08:16Z</time>
      </trkpt>
      <trkpt lat="43.84473" lon="1.53079">
        <ele>176.06</ele>
        <time>2021-08-18T09:08:23Z</time>
      </trkpt>
      <trkpt lat="43.84493" lon="1.53043">
        <ele>177.02</ele>
        <time>2021-08-18T09:08:32Z</time>
      </trkpt>
      <trkpt lat="43.84505" lon="1.53011">
        <ele>177.98</ele>
        <time>2021-08-18T09:08:39Z</time>
      </trkpt>
      <trkpt lat="43.84514" lon="1.52972">
        <ele>179.42</ele>
        <time>2021-08-18T09:08:49Z</time>
      </trkpt>
      <trkpt lat="43.84522" lon="1.52937">
        <ele>180.87</ele>
        <time>2021-08-18T09:08:58Z</time>
      </trkpt>
      <trkpt lat="43.84532" lon="1.52907">
        <ele>181.35</ele>
        <time>2021-08-18T09:09:05Z</time>
      </trkpt>
      <trkpt lat="43.84553" lon="1.52867">
        <ele>181.83</ele>
        <time>2021-08-18T09:09:13Z</time>
      </trkpt>
      <trkpt lat="43.8457" lon="1.52829">
        <ele>181.83</ele>
        <time>2021-08-18T09:09:20Z</time>
      </trkpt>
      <trkpt lat="43.84576" lon="1.52794">
        <ele>182.79</ele>
        <time>2021-08-18T09:09:28Z</time>
      </trkpt>
      <trkpt lat="43.8458" lon="1.52767">
        <ele>183.75</ele>
        <time>2021-08-18T09:09:37Z</time>
      </trkpt>
      <trkpt lat="43.84587" lon="1.5274">
        <ele>185.19</ele>
        <time>2021-08-18T09:09:47Z</time>
      </trkpt>
      <trkpt lat="43.84592" lon="1.52715">
        <ele>187.59</ele>
        <time>2021-08-18T09:09:58Z</time>
      </trkpt>
      <trkpt lat="43.84598" lon="1.52689">
        <ele>190</ele>
        <time>2021-08-18T09:10:08Z</time>
      </trkpt>
      <trkpt lat="43.84611" lon="1.52661">
        <ele>190.96</ele>
        <time>2021-08-18T09:10:18Z</time>
      </trkpt>
      <trkpt lat="43.84627" lon="1.52629">
        <ele>190.96</ele>
        <time>2021-08-18T09:10:26Z</time>
      </trkpt>
      <trkpt lat="43.84645" lon="1.52591">
        <ele>190.96</ele>
        <time>2021-08-18T09:10:34Z</time>
      </trkpt>
      <trkpt lat="43.84658" lon="1.52547">
        <ele>191.92</ele>
        <time>2021-08-18T09:10:43Z</time>
      </trkpt>
      <trkpt lat="43.84672" lon="1.52514">
        <ele>192.4</ele>
        <time>2021-08-18T09:10:49Z</time>
      </trkpt>
      <trkpt lat="43.84676" lon="1.52509">
        <ele>192.4</ele>
        <time>2021-08-18T09:10:50Z</time>
      </trkpt>
      <trkpt lat="43.84679" lon="1.52504">
        <ele>192.4</ele>
        <time>2021-08-18T09:10:51Z</time>
      </trkpt>
      <trkpt lat="43.84683" lon="1.52499">
        <ele>192.4</ele>
        <time>2021-08-18T09:10:52Z</time>
      </trkpt>
      <trkpt lat="43.84687" lon="1.52495">
        <ele>192.4</ele>
        <time>2021-08-18T09:10:53Z</time>
      </trkpt>
      <trkpt lat="43.84705" lon="1.52477">
        <ele>190.96</ele>
        <time>2021-08-18T09:10:57Z</time>
      </trkpt>
      <trkpt lat="43.84724" lon="1.52461">
        <ele>190.48</ele>
        <time>2021-08-18T09:11:01Z</time>
      </trkpt>
      <trkpt lat="43.84755" lon="1.52429">
        <ele>189.04</ele>
        <time>2021-08-18T09:11:08Z</time>
      </trkpt>
      <trkpt lat="43.84762" lon="1.52421">
        <ele>189.04</ele>
        <time>2021-08-18T09:11:10Z</time>
      </trkpt>
      <trkpt lat="43.84788" lon="1.52386">
        <ele>189.04</ele>
        <time>2021-08-18T09:11:17Z</time>
      </trkpt>
      <trkpt lat="43.84817" lon="1.52344">
        <ele>189.04</ele>
        <time>2021-08-18T09:11:26Z</time>
      </trkpt>
      <trkpt lat="43.84831" lon="1.52326">
        <ele>189.04</ele>
        <time>2021-08-18T09:11:30Z</time>
      </trkpt>
      <trkpt lat="43.84835" lon="1.52321">
        <ele>189.04</ele>
        <time>2021-08-18T09:11:31Z</time>
      </trkpt>
      <trkpt lat="43.84839" lon="1.52316">
        <ele>189.04</ele>
        <time>2021-08-18T09:11:32Z</time>
      </trkpt>
      <trkpt lat="43.84864" lon="1.52287">
        <ele>190.48</ele>
        <time>2021-08-18T09:11:39Z</time>
      </trkpt>
      <trkpt lat="43.84867" lon="1.52282">
        <ele>190.48</ele>
        <time>2021-08-18T09:11:40Z</time>
      </trkpt>
      <trkpt lat="43.84893" lon="1.52244">
        <ele>191.44</ele>
        <time>2021-08-18T09:11:49Z</time>
      </trkpt>
      <trkpt lat="43.84913" lon="1.52218">
        <ele>192.4</ele>
        <time>2021-08-18T09:11:56Z</time>
      </trkpt>
      <trkpt lat="43.84916" lon="1.52216">
        <ele>192.4</ele>
        <time>2021-08-18T09:11:57Z</time>
      </trkpt>
      <trkpt lat="43.84941" lon="1.52205">
        <ele>190.96</ele>
        <time>2021-08-18T09:12:02Z</time>
      </trkpt>
      <trkpt lat="43.84985" lon="1.5218">
        <ele>188.56</ele>
        <time>2021-08-18T09:12:10Z</time>
      </trkpt>
      <trkpt lat="43.85007" lon="1.52171">
        <ele>188.56</ele>
        <time>2021-08-18T09:12:14Z</time>
      </trkpt>
      <trkpt lat="43.85013" lon="1.5217">
        <ele>188.08</ele>
        <time>2021-08-18T09:12:15Z</time>
      </trkpt>
      <trkpt lat="43.85019" lon="1.52169">
        <ele>188.08</ele>
        <time>2021-08-18T09:12:16Z</time>
      </trkpt>
      <trkpt lat="43.85024" lon="1.5217">
        <ele>188.08</ele>
        <time>2021-08-18T09:12:17Z</time>
      </trkpt>
      <trkpt lat="43.8503" lon="1.52171">
        <ele>188.08</ele>
        <time>2021-08-18T09:12:18Z</time>
      </trkpt>
      <trkpt lat="43.85072" lon="1.5218">
        <ele>188.08</ele>
        <time>2021-08-18T09:12:26Z</time>
      </trkpt>
      <trkpt lat="43.8508" lon="1.52182">
        <ele>189.52</ele>
        <time>2021-08-18T09:12:28Z</time>
      </trkpt>
      <trkpt lat="43.85104" lon="1.52189">
        <ele>190.96</ele>
        <time>2021-08-18T09:12:36Z</time>
      </trkpt>
      <trkpt lat="43.85128" lon="1.52192">
        <ele>192.88</ele>
        <time>2021-08-18T09:12:46Z</time>
      </trkpt>
      <trkpt lat="43.85145" lon="1.52196">
        <ele>193.84</ele>
        <time>2021-08-18T09:12:52Z</time>
      </trkpt>
      <trkpt lat="43.8517" lon="1.52204">
        <ele>195.28</ele>
        <time>2021-08-18T09:13:02Z</time>
      </trkpt>
      <trkpt lat="43.85187" lon="1.5221">
        <ele>196.25</ele>
        <time>2021-08-18T09:13:09Z</time>
      </trkpt>
      <trkpt lat="43.85209" lon="1.52221">
        <ele>197.21</ele>
        <time>2021-08-18T09:13:17Z</time>
      </trkpt>
      <trkpt lat="43.85234" lon="1.52239">
        <ele>198.17</ele>
        <time>2021-08-18T09:13:26Z</time>
      </trkpt>
      <trkpt lat="43.85257" lon="1.52262">
        <ele>199.61</ele>
        <time>2021-08-18T09:13:35Z</time>
      </trkpt>
      <trkpt lat="43.85276" lon="1.52281">
        <ele>201.05</ele>
        <time>2021-08-18T09:13:44Z</time>
      </trkpt>
      <trkpt lat="43.85298" lon="1.52303">
        <ele>201.05</ele>
        <time>2021-08-18T09:13:53Z</time>
      </trkpt>
      <trkpt lat="43.85309" lon="1.52312">
        <ele>201.05</ele>
        <time>2021-08-18T09:13:57Z</time>
      </trkpt>
      <trkpt lat="43.85312" lon="1.52311">
        <ele>201.05</ele>
        <time>2021-08-18T09:13:58Z</time>
      </trkpt>
      <trkpt lat="43.85315" lon="1.52309">
        <ele>201.05</ele>
        <time>2021-08-18T09:13:59Z</time>
      </trkpt>
      <trkpt lat="43.85316" lon="1.52305">
        <ele>201.05</ele>
        <time>2021-08-18T09:14:00Z</time>
      </trkpt>
      <trkpt lat="43.85318" lon="1.52301">
        <ele>200.09</ele>
        <time>2021-08-18T09:14:01Z</time>
      </trkpt>
      <trkpt lat="43.85319" lon="1.52298">
        <ele>200.09</ele>
        <time>2021-08-18T09:14:02Z</time>
      </trkpt>
      <trkpt lat="43.85323" lon="1.52287">
        <ele>200.09</ele>
        <time>2021-08-18T09:14:07Z</time>
      </trkpt>
      <trkpt lat="43.85322" lon="1.52288">
        <ele>200.09</ele>
        <time>2021-08-18T09:14:21Z</time>
      </trkpt>
      <trkpt lat="43.85323" lon="1.52287">
        <ele>200.09</ele>
        <time>2021-08-18T09:14:47Z</time>
      </trkpt>
      <trkpt lat="43.85322" lon="1.52287">
        <ele>200.09</ele>
        <time>2021-08-18T09:15:04Z</time>
      </trkpt>
      <trkpt lat="43.85323" lon="1.52286">
        <ele>200.09</ele>
        <time>2021-08-18T09:15:27Z</time>
      </trkpt>
      <trkpt lat="43.85327" lon="1.52271">
        <ele>200.09</ele>
        <time>2021-08-18T09:15:33Z</time>
      </trkpt>
      <trkpt lat="43.85337" lon="1.52239">
        <ele>198.65</ele>
        <time>2021-08-18T09:15:39Z</time>
      </trkpt>
      <trkpt lat="43.85356" lon="1.52182">
        <ele>197.21</ele>
        <time>2021-08-18T09:15:47Z</time>
      </trkpt>
      <trkpt lat="43.85382" lon="1.52111">
        <ele>194.8</ele>
        <time>2021-08-18T09:15:56Z</time>
      </trkpt>
      <trkpt lat="43.85418" lon="1.52035">
        <ele>193.84</ele>
        <time>2021-08-18T09:16:06Z</time>
      </trkpt>
      <trkpt lat="43.85424" lon="1.5202">
        <ele>193.84</ele>
        <time>2021-08-18T09:16:08Z</time>
      </trkpt>
      <trkpt lat="43.85428" lon="1.52013">
        <ele>193.84</ele>
        <time>2021-08-18T09:16:09Z</time>
      </trkpt>
      <trkpt lat="43.85467" lon="1.51932">
        <ele>193.36</ele>
        <time>2021-08-18T09:16:21Z</time>
      </trkpt>
      <trkpt lat="43.85501" lon="1.51872">
        <ele>192.4</ele>
        <time>2021-08-18T09:16:30Z</time>
      </trkpt>
      <trkpt lat="43.85542" lon="1.5181">
        <ele>191.92</ele>
        <time>2021-08-18T09:16:40Z</time>
      </trkpt>
      <trkpt lat="43.85561" lon="1.51782">
        <ele>191.44</ele>
        <time>2021-08-18T09:16:44Z</time>
      </trkpt>
      <trkpt lat="43.85582" lon="1.51733">
        <ele>190.96</ele>
        <time>2021-08-18T09:16:50Z</time>
      </trkpt>
      <trkpt lat="43.85584" lon="1.51725">
        <ele>190.96</ele>
        <time>2021-08-18T09:16:51Z</time>
      </trkpt>
      <trkpt lat="43.85591" lon="1.51682">
        <ele>193.36</ele>
        <time>2021-08-18T09:16:57Z</time>
      </trkpt>
      <trkpt lat="43.85593" lon="1.51676">
        <ele>193.36</ele>
        <time>2021-08-18T09:16:58Z</time>
      </trkpt>
      <trkpt lat="43.85609" lon="1.51627">
        <ele>193.84</ele>
        <time>2021-08-18T09:17:06Z</time>
      </trkpt>
      <trkpt lat="43.85612" lon="1.5162">
        <ele>193.84</ele>
        <time>2021-08-18T09:17:07Z</time>
      </trkpt>
      <trkpt lat="43.85626" lon="1.51585">
        <ele>192.4</ele>
        <time>2021-08-18T09:17:12Z</time>
      </trkpt>
      <trkpt lat="43.85652" lon="1.51523">
        <ele>192.4</ele>
        <time>2021-08-18T09:17:21Z</time>
      </trkpt>
      <trkpt lat="43.85664" lon="1.51497">
        <ele>192.4</ele>
        <time>2021-08-18T09:17:25Z</time>
      </trkpt>
      <trkpt lat="43.85667" lon="1.51492">
        <ele>192.4</ele>
        <time>2021-08-18T09:17:26Z</time>
      </trkpt>
      <trkpt lat="43.85671" lon="1.51486">
        <ele>192.4</ele>
        <time>2021-08-18T09:17:27Z</time>
      </trkpt>
      <trkpt lat="43.85706" lon="1.51453">
        <ele>189.52</ele>
        <time>2021-08-18T09:17:34Z</time>
      </trkpt>
      <trkpt lat="43.85713" lon="1.5145">
        <ele>189.04</ele>
        <time>2021-08-18T09:17:35Z</time>
      </trkpt>
      <trkpt lat="43.85758" lon="1.51435">
        <ele>185.67</ele>
        <time>2021-08-18T09:17:41Z</time>
      </trkpt>
      <trkpt lat="43.85803" lon="1.51422">
        <ele>182.79</ele>
        <time>2021-08-18T09:17:46Z</time>
      </trkpt>
      <trkpt lat="43.85811" lon="1.51418">
        <ele>182.31</ele>
        <time>2021-08-18T09:17:47Z</time>
      </trkpt>
      <trkpt lat="43.85822" lon="1.5141">
        <ele>181.83</ele>
        <time>2021-08-18T09:17:48Z</time>
      </trkpt>
      <trkpt lat="43.85828" lon="1.51405">
        <ele>181.35</ele>
        <time>2021-08-18T09:17:49Z</time>
      </trkpt>
      <trkpt lat="43.85837" lon="1.51396">
        <ele>181.35</ele>
        <time>2021-08-18T09:17:50Z</time>
      </trkpt>
      <trkpt lat="43.85905" lon="1.51319">
        <ele>178.94</ele>
        <time>2021-08-18T09:18:00Z</time>
      </trkpt>
      <trkpt lat="43.85923" lon="1.51293">
        <ele>177.5</ele>
        <time>2021-08-18T09:18:03Z</time>
      </trkpt>
      <trkpt lat="43.85978" lon="1.51225">
        <ele>175.58</ele>
        <time>2021-08-18T09:18:12Z</time>
      </trkpt>
      <trkpt lat="43.86007" lon="1.51195">
        <ele>172.69</ele>
        <time>2021-08-18T09:18:16Z</time>
      </trkpt>
      <trkpt lat="43.8604" lon="1.51166">
        <ele>170.77</ele>
        <time>2021-08-18T09:18:20Z</time>
      </trkpt>
      <trkpt lat="43.8607" lon="1.51128">
        <ele>167.41</ele>
        <time>2021-08-18T09:18:24Z</time>
      </trkpt>
      <trkpt lat="43.86099" lon="1.51085">
        <ele>163.56</ele>
        <time>2021-08-18T09:18:28Z</time>
      </trkpt>
      <trkpt lat="43.86114" lon="1.51066">
        <ele>160.2</ele>
        <time>2021-08-18T09:18:30Z</time>
      </trkpt>
      <trkpt lat="43.8613" lon="1.5105">
        <ele>157.31</ele>
        <time>2021-08-18T09:18:32Z</time>
      </trkpt>
      <trkpt lat="43.86138" lon="1.51044">
        <ele>155.87</ele>
        <time>2021-08-18T09:18:33Z</time>
      </trkpt>
      <trkpt lat="43.86155" lon="1.51032">
        <ele>153.47</ele>
        <time>2021-08-18T09:18:35Z</time>
      </trkpt>
      <trkpt lat="43.86162" lon="1.51024">
        <ele>152.03</ele>
        <time>2021-08-18T09:18:36Z</time>
      </trkpt>
      <trkpt lat="43.86168" lon="1.51013">
        <ele>149.62</ele>
        <time>2021-08-18T09:18:37Z</time>
      </trkpt>
      <trkpt lat="43.86175" lon="1.50999">
        <ele>147.7</ele>
        <time>2021-08-18T09:18:38Z</time>
      </trkpt>
      <trkpt lat="43.86181" lon="1.50985">
        <ele>145.78</ele>
        <time>2021-08-18T09:18:39Z</time>
      </trkpt>
      <trkpt lat="43.86189" lon="1.50971">
        <ele>143.37</ele>
        <time>2021-08-18T09:18:40Z</time>
      </trkpt>
      <trkpt lat="43.86198" lon="1.5096">
        <ele>141.93</ele>
        <time>2021-08-18T09:18:41Z</time>
      </trkpt>
      <trkpt lat="43.86209" lon="1.50948">
        <ele>138.09</ele>
        <time>2021-08-18T09:18:42Z</time>
      </trkpt>
      <trkpt lat="43.8622" lon="1.50938">
        <ele>135.68</ele>
        <time>2021-08-18T09:18:43Z</time>
      </trkpt>
      <trkpt lat="43.86232" lon="1.50928">
        <ele>133.28</ele>
        <time>2021-08-18T09:18:44Z</time>
      </trkpt>
      <trkpt lat="43.86258" lon="1.50908">
        <ele>130.4</ele>
        <time>2021-08-18T09:18:46Z</time>
      </trkpt>
      <trkpt lat="43.86282" lon="1.50884">
        <ele>126.55</ele>
        <time>2021-08-18T09:18:48Z</time>
      </trkpt>
      <trkpt lat="43.86306" lon="1.5086">
        <ele>121.74</ele>
        <time>2021-08-18T09:18:50Z</time>
      </trkpt>
      <trkpt lat="43.86328" lon="1.50837">
        <ele>118.38</ele>
        <time>2021-08-18T09:18:52Z</time>
      </trkpt>
      <trkpt lat="43.86354" lon="1.50808">
        <ele>114.53</ele>
        <time>2021-08-18T09:18:55Z</time>
      </trkpt>
      <trkpt lat="43.86369" lon="1.50784">
        <ele>111.17</ele>
        <time>2021-08-18T09:18:58Z</time>
      </trkpt>
      <trkpt lat="43.86372" lon="1.50775">
        <ele>110.21</ele>
        <time>2021-08-18T09:18:59Z</time>
      </trkpt>
      <trkpt lat="43.86375" lon="1.50766">
        <ele>109.25</ele>
        <time>2021-08-18T09:19:00Z</time>
      </trkpt>
      <trkpt lat="43.86378" lon="1.50756">
        <ele>108.29</ele>
        <time>2021-08-18T09:19:01Z</time>
      </trkpt>
      <trkpt lat="43.86383" lon="1.50721">
        <ele>104.92</ele>
        <time>2021-08-18T09:19:05Z</time>
      </trkpt>
      <trkpt lat="43.86387" lon="1.50691">
        <ele>103.96</ele>
        <time>2021-08-18T09:19:10Z</time>
      </trkpt>
      <trkpt lat="43.86388" lon="1.50672">
        <ele>103.48</ele>
        <time>2021-08-18T09:19:16Z</time>
      </trkpt>
      <trkpt lat="43.86387" lon="1.50669">
        <ele>103.48</ele>
        <time>2021-08-18T09:19:18Z</time>
      </trkpt>
      <trkpt lat="43.86386" lon="1.50668">
        <ele>103.48</ele>
        <time>2021-08-18T09:19:19Z</time>
      </trkpt>
      <trkpt lat="43.86385" lon="1.50667">
        <ele>103.48</ele>
        <time>2021-08-18T09:19:20Z</time>
      </trkpt>
      <trkpt lat="43.86383" lon="1.50668">
        <ele>103.48</ele>
        <time>2021-08-18T09:19:21Z</time>
      </trkpt>
      <trkpt lat="43.86382" lon="1.5067">
        <ele>103.48</ele>
        <time>2021-08-18T09:19:22Z</time>
      </trkpt>
      <trkpt lat="43.86381" lon="1.50671">
        <ele>103</ele>
        <time>2021-08-18T09:19:23Z</time>
      </trkpt>
      <trkpt lat="43.86381" lon="1.50672">
        <ele>103</ele>
        <time>2021-08-18T09:19:27Z</time>
      </trkpt>
      <trkpt lat="43.86382" lon="1.5067">
        <ele>103</ele>
        <time>2021-08-18T09:19:28Z</time>
      </trkpt>
      <trkpt lat="43.86383" lon="1.50668">
        <ele>103</ele>
        <time>2021-08-18T09:19:29Z</time>
      </trkpt>
      <trkpt lat="43.86388" lon="1.50658">
        <ele>102.52</ele>
        <time>2021-08-18T09:19:32Z</time>
      </trkpt>
      <trkpt lat="43.86387" lon="1.50653">
        <ele>102.52</ele>
        <time>2021-08-18T09:19:33Z</time>
      </trkpt>
      <trkpt lat="43.86386" lon="1.50649">
        <ele>102.52</ele>
        <time>2021-08-18T09:19:34Z</time>
      </trkpt>
      <trkpt lat="43.86384" lon="1.50645">
        <ele>102.04</ele>
        <time>2021-08-18T09:19:35Z</time>
      </trkpt>
      <trkpt lat="43.86381" lon="1.5064">
        <ele>102.04</ele>
        <time>2021-08-18T09:19:36Z</time>
      </trkpt>
      <trkpt lat="43.86379" lon="1.50634">
        <ele>102.04</ele>
        <time>2021-08-18T09:19:37Z</time>
      </trkpt>
      <trkpt lat="43.86377" lon="1.50629">
        <ele>102.04</ele>
        <time>2021-08-18T09:19:38Z</time>
      </trkpt>
      <trkpt lat="43.86376" lon="1.50624">
        <ele>102.04</ele>
        <time>2021-08-18T09:19:39Z</time>
      </trkpt>
      <trkpt lat="43.86373" lon="1.50619">
        <ele>101.56</ele>
        <time>2021-08-18T09:19:40Z</time>
      </trkpt>
      <trkpt lat="43.86366" lon="1.50602">
        <ele>101.08</ele>
        <time>2021-08-18T09:19:43Z</time>
      </trkpt>
      <trkpt lat="43.86349" lon="1.50583">
        <ele>100.11</ele>
        <time>2021-08-18T09:19:48Z</time>
      </trkpt>
      <trkpt lat="43.86347" lon="1.50579">
        <ele>100.11</ele>
        <time>2021-08-18T09:19:49Z</time>
      </trkpt>
      <trkpt lat="43.86341" lon="1.50575">
        <ele>100.6</ele>
        <time>2021-08-18T09:19:51Z</time>
      </trkpt>
      <trkpt lat="43.86338" lon="1.50577">
        <ele>100.11</ele>
        <time>2021-08-18T09:19:52Z</time>
      </trkpt>
      <trkpt lat="43.86335" lon="1.50579">
        <ele>100.11</ele>
        <time>2021-08-18T09:19:53Z</time>
      </trkpt>
      <trkpt lat="43.86314" lon="1.50601">
        <ele>100.6</ele>
        <time>2021-08-18T09:20:00Z</time>
      </trkpt>
      <trkpt lat="43.86308" lon="1.50596">
        <ele>100.6</ele>
        <time>2021-08-18T09:20:03Z</time>
      </trkpt>
      <trkpt lat="43.86306" lon="1.50594">
        <ele>100.6</ele>
        <time>2021-08-18T09:20:04Z</time>
      </trkpt>
      <trkpt lat="43.86303" lon="1.50594">
        <ele>100.6</ele>
        <time>2021-08-18T09:20:05Z</time>
      </trkpt>
      <trkpt lat="43.86302" lon="1.50595">
        <ele>100.6</ele>
        <time>2021-08-18T09:20:06Z</time>
      </trkpt>
      <trkpt lat="43.863" lon="1.50597">
        <ele>100.6</ele>
        <time>2021-08-18T09:20:07Z</time>
      </trkpt>
      <trkpt lat="43.86299" lon="1.50599">
        <ele>100.6</ele>
        <time>2021-08-18T09:20:08Z</time>
      </trkpt>
      <trkpt lat="43.86296" lon="1.506">
        <ele>101.56</ele>
        <time>2021-08-18T09:20:32Z</time>
      </trkpt>
      <trkpt lat="43.86294" lon="1.50598">
        <ele>101.56</ele>
        <time>2021-08-18T09:20:56Z</time>
      </trkpt>
      <trkpt lat="43.86298" lon="1.506">
        <ele>101.56</ele>
        <time>2021-08-18T09:21:00Z</time>
      </trkpt>
      <trkpt lat="43.86297" lon="1.506">
        <ele>101.56</ele>
        <time>2021-08-18T09:21:04Z</time>
      </trkpt>
      <trkpt lat="43.86297" lon="1.50598">
        <ele>101.56</ele>
        <time>2021-08-18T09:21:07Z</time>
      </trkpt>
      <trkpt lat="43.86299" lon="1.50596">
        <ele>101.56</ele>
        <time>2021-08-18T09:21:08Z</time>
      </trkpt>
      <trkpt lat="43.863" lon="1.50594">
        <ele>101.56</ele>
        <time>2021-08-18T09:21:09Z</time>
      </trkpt>
      <trkpt lat="43.86302" lon="1.50592">
        <ele>101.56</ele>
        <time>2021-08-18T09:21:10Z</time>
      </trkpt>
      <trkpt lat="43.86304" lon="1.5059">
        <ele>101.56</ele>
        <time>2021-08-18T09:21:11Z</time>
      </trkpt>
      <trkpt lat="43.86317" lon="1.50578">
        <ele>100.6</ele>
        <time>2021-08-18T09:21:18Z</time>
      </trkpt>
      <trkpt lat="43.86319" lon="1.50578">
        <ele>100.6</ele>
        <time>2021-08-18T09:21:19Z</time>
      </trkpt>
      <trkpt lat="43.86321" lon="1.50578">
        <ele>100.6</ele>
        <time>2021-08-18T09:21:20Z</time>
      </trkpt>
      <trkpt lat="43.86324" lon="1.50578">
        <ele>100.6</ele>
        <time>2021-08-18T09:21:21Z</time>
      </trkpt>
      <trkpt lat="43.86327" lon="1.50577">
        <ele>100.6</ele>
        <time>2021-08-18T09:21:22Z</time>
      </trkpt>
      <trkpt lat="43.86329" lon="1.50575">
        <ele>100.6</ele>
        <time>2021-08-18T09:21:23Z</time>
      </trkpt>
      <trkpt lat="43.8633" lon="1.50571">
        <ele>100.6</ele>
        <time>2021-08-18T09:21:24Z</time>
      </trkpt>
      <trkpt lat="43.8633" lon="1.50568">
        <ele>100.6</ele>
        <time>2021-08-18T09:21:25Z</time>
      </trkpt>
      <trkpt lat="43.8633" lon="1.50564">
        <ele>100.6</ele>
        <time>2021-08-18T09:21:26Z</time>
      </trkpt>
      <trkpt lat="43.8633" lon="1.5056">
        <ele>100.6</ele>
        <time>2021-08-18T09:21:27Z</time>
      </trkpt>
      <trkpt lat="43.86331" lon="1.50556">
        <ele>100.6</ele>
        <time>2021-08-18T09:21:28Z</time>
      </trkpt>
      <trkpt lat="43.86333" lon="1.50552">
        <ele>100.11</ele>
        <time>2021-08-18T09:21:29Z</time>
      </trkpt>
      <trkpt lat="43.86335" lon="1.50549">
        <ele>100.11</ele>
        <time>2021-08-18T09:21:30Z</time>
      </trkpt>
      <trkpt lat="43.86338" lon="1.50545">
        <ele>100.11</ele>
        <time>2021-08-18T09:21:31Z</time>
      </trkpt>
      <trkpt lat="43.86341" lon="1.50542">
        <ele>100.11</ele>
        <time>2021-08-18T09:21:32Z</time>
      </trkpt>
      <trkpt lat="43.86351" lon="1.50535">
        <ele>100.11</ele>
        <time>2021-08-18T09:21:37Z</time>
      </trkpt>
      <trkpt lat="43.86351" lon="1.50533">
        <ele>100.11</ele>
        <time>2021-08-18T09:21:57Z</time>
      </trkpt>
      <trkpt lat="43.86351" lon="1.50533">
        <ele>100.11</ele>
        <time>2021-08-18T09:22:03Z</time>
      </trkpt>
      <trkpt lat="43.8635" lon="1.50534">
        <ele>100.11</ele>
        <time>2021-08-18T09:22:04Z</time>
      </trkpt>
      <trkpt lat="43.86348" lon="1.50535">
        <ele>100.11</ele>
        <time>2021-08-18T09:22:05Z</time>
      </trkpt>
      <trkpt lat="43.86338" lon="1.50548">
        <ele>100.11</ele>
        <time>2021-08-18T09:22:10Z</time>
      </trkpt>
      <trkpt lat="43.86331" lon="1.50557">
        <ele>100.11</ele>
        <time>2021-08-18T09:22:13Z</time>
      </trkpt>
      <trkpt lat="43.8633" lon="1.50562">
        <ele>100.11</ele>
        <time>2021-08-18T09:22:14Z</time>
      </trkpt>
      <trkpt lat="43.86331" lon="1.50567">
        <ele>100.11</ele>
        <time>2021-08-18T09:22:15Z</time>
      </trkpt>
      <trkpt lat="43.86331" lon="1.50572">
        <ele>100.11</ele>
        <time>2021-08-18T09:22:16Z</time>
      </trkpt>
      <trkpt lat="43.8633" lon="1.50577">
        <ele>100.11</ele>
        <time>2021-08-18T09:22:17Z</time>
      </trkpt>
      <trkpt lat="43.86327" lon="1.50582">
        <ele>100.11</ele>
        <time>2021-08-18T09:22:18Z</time>
      </trkpt>
      <trkpt lat="43.86325" lon="1.50585">
        <ele>100.11</ele>
        <time>2021-08-18T09:22:19Z</time>
      </trkpt>
      <trkpt lat="43.86322" lon="1.50589">
        <ele>100.11</ele>
        <time>2021-08-18T09:22:20Z</time>
      </trkpt>
      <trkpt lat="43.86303" lon="1.5061">
        <ele>101.08</ele>
        <time>2021-08-18T09:22:27Z</time>
      </trkpt>
      <trkpt lat="43.86291" lon="1.50613">
        <ele>101.08</ele>
        <time>2021-08-18T09:22:31Z</time>
      </trkpt>
      <trkpt lat="43.86287" lon="1.50611">
        <ele>101.56</ele>
        <time>2021-08-18T09:22:33Z</time>
      </trkpt>
      <trkpt lat="43.86286" lon="1.5061">
        <ele>101.56</ele>
        <time>2021-08-18T09:22:34Z</time>
      </trkpt>
      <trkpt lat="43.86285" lon="1.50608">
        <ele>101.56</ele>
        <time>2021-08-18T09:22:35Z</time>
      </trkpt>
      <trkpt lat="43.86284" lon="1.50607">
        <ele>101.56</ele>
        <time>2021-08-18T09:22:36Z</time>
      </trkpt>
      <trkpt lat="43.86282" lon="1.50605">
        <ele>101.56</ele>
        <time>2021-08-18T09:22:37Z</time>
      </trkpt>
      <trkpt lat="43.86281" lon="1.50602">
        <ele>101.56</ele>
        <time>2021-08-18T09:22:38Z</time>
      </trkpt>
      <trkpt lat="43.8628" lon="1.50599">
        <ele>101.56</ele>
        <time>2021-08-18T09:22:39Z</time>
      </trkpt>
      <trkpt lat="43.86279" lon="1.50595">
        <ele>102.04</ele>
        <time>2021-08-18T09:22:40Z</time>
      </trkpt>
      <trkpt lat="43.86277" lon="1.50592">
        <ele>102.04</ele>
        <time>2021-08-18T09:22:41Z</time>
      </trkpt>
      <trkpt lat="43.86276" lon="1.50588">
        <ele>102.04</ele>
        <time>2021-08-18T09:22:42Z</time>
      </trkpt>
      <trkpt lat="43.86274" lon="1.50584">
        <ele>102.04</ele>
        <time>2021-08-18T09:22:43Z</time>
      </trkpt>
      <trkpt lat="43.86271" lon="1.5058">
        <ele>102.04</ele>
        <time>2021-08-18T09:22:44Z</time>
      </trkpt>
      <trkpt lat="43.8625" lon="1.50543">
        <ele>102.04</ele>
        <time>2021-08-18T09:22:52Z</time>
      </trkpt>
      <trkpt lat="43.8622" lon="1.50489">
        <ele>102.04</ele>
        <time>2021-08-18T09:23:03Z</time>
      </trkpt>
      <trkpt lat="43.86204" lon="1.50459">
        <ele>102.04</ele>
        <time>2021-08-18T09:23:09Z</time>
      </trkpt>
      <trkpt lat="43.86201" lon="1.50455">
        <ele>102.04</ele>
        <time>2021-08-18T09:23:10Z</time>
      </trkpt>
      <trkpt lat="43.86189" lon="1.50434">
        <ele>102.52</ele>
        <time>2021-08-18T09:23:15Z</time>
      </trkpt>
      <trkpt lat="43.86188" lon="1.50431">
        <ele>102.52</ele>
        <time>2021-08-18T09:23:16Z</time>
      </trkpt>
      <trkpt lat="43.86186" lon="1.50428">
        <ele>102.52</ele>
        <time>2021-08-18T09:23:17Z</time>
      </trkpt>
      <trkpt lat="43.86185" lon="1.50426">
        <ele>102.52</ele>
        <time>2021-08-18T09:23:18Z</time>
      </trkpt>
      <trkpt lat="43.86183" lon="1.50426">
        <ele>102.52</ele>
        <time>2021-08-18T09:23:19Z</time>
      </trkpt>
      <trkpt lat="43.86181" lon="1.50426">
        <ele>102.52</ele>
        <time>2021-08-18T09:23:20Z</time>
      </trkpt>
      <trkpt lat="43.86179" lon="1.50425">
        <ele>102.52</ele>
        <time>2021-08-18T09:23:21Z</time>
      </trkpt>
      <trkpt lat="43.86176" lon="1.50424">
        <ele>102.52</ele>
        <time>2021-08-18T09:23:22Z</time>
      </trkpt>
      <trkpt lat="43.86174" lon="1.50423">
        <ele>102.52</ele>
        <time>2021-08-18T09:23:23Z</time>
      </trkpt>
      <trkpt lat="43.8617" lon="1.50421">
        <ele>102.52</ele>
        <time>2021-08-18T09:23:24Z</time>
      </trkpt>
      <trkpt lat="43.86165" lon="1.50419">
        <ele>101.08</ele>
        <time>2021-08-18T09:23:25Z</time>
      </trkpt>
      <trkpt lat="43.8616" lon="1.50417">
        <ele>101.08</ele>
        <time>2021-08-18T09:23:26Z</time>
      </trkpt>
      <trkpt lat="43.86156" lon="1.50414">
        <ele>101.08</ele>
        <time>2021-08-18T09:23:27Z</time>
      </trkpt>
      <trkpt lat="43.86152" lon="1.50412">
        <ele>101.08</ele>
        <time>2021-08-18T09:23:28Z</time>
      </trkpt>
      <trkpt lat="43.86143" lon="1.50408">
        <ele>101.08</ele>
        <time>2021-08-18T09:23:30Z</time>
      </trkpt>
      <trkpt lat="43.86139" lon="1.50407">
        <ele>101.08</ele>
        <time>2021-08-18T09:23:31Z</time>
      </trkpt>
      <trkpt lat="43.86135" lon="1.50407">
        <ele>101.08</ele>
        <time>2021-08-18T09:23:32Z</time>
      </trkpt>
      <trkpt lat="43.86131" lon="1.50408">
        <ele>101.08</ele>
        <time>2021-08-18T09:23:33Z</time>
      </trkpt>
      <trkpt lat="43.86127" lon="1.50409">
        <ele>101.08</ele>
        <time>2021-08-18T09:23:34Z</time>
      </trkpt>
      <trkpt lat="43.86114" lon="1.50412">
        <ele>100.6</ele>
        <time>2021-08-18T09:23:37Z</time>
      </trkpt>
      <trkpt lat="43.8611" lon="1.50413">
        <ele>100.6</ele>
        <time>2021-08-18T09:23:38Z</time>
      </trkpt>
      <trkpt lat="43.8609" lon="1.50419">
        <ele>100.6</ele>
        <time>2021-08-18T09:23:44Z</time>
      </trkpt>
      <trkpt lat="43.86073" lon="1.50423">
        <ele>100.6</ele>
        <time>2021-08-18T09:23:50Z</time>
      </trkpt>
      <trkpt lat="43.86058" lon="1.50422">
        <ele>100.6</ele>
        <time>2021-08-18T09:23:57Z</time>
      </trkpt>
      <trkpt lat="43.86052" lon="1.5042">
        <ele>100.6</ele>
        <time>2021-08-18T09:24:01Z</time>
      </trkpt>
      <trkpt lat="43.8605" lon="1.5042">
        <ele>100.6</ele>
        <time>2021-08-18T09:24:02Z</time>
      </trkpt>
      <trkpt lat="43.86048" lon="1.50421">
        <ele>100.6</ele>
        <time>2021-08-18T09:24:03Z</time>
      </trkpt>
      <trkpt lat="43.86034" lon="1.50428">
        <ele>100.6</ele>
        <time>2021-08-18T09:24:07Z</time>
      </trkpt>
      <trkpt lat="43.86001" lon="1.50458">
        <ele>100.6</ele>
        <time>2021-08-18T09:24:15Z</time>
      </trkpt>
      <trkpt lat="43.85967" lon="1.50487">
        <ele>100.6</ele>
        <time>2021-08-18T09:24:24Z</time>
      </trkpt>
      <trkpt lat="43.85934" lon="1.50514">
        <ele>100.6</ele>
        <time>2021-08-18T09:24:32Z</time>
      </trkpt>
      <trkpt lat="43.85905" lon="1.50536">
        <ele>100.6</ele>
        <time>2021-08-18T09:24:39Z</time>
      </trkpt>
      <trkpt lat="43.85884" lon="1.50552">
        <ele>100.6</ele>
        <time>2021-08-18T09:24:45Z</time>
      </trkpt>
      <trkpt lat="43.8588" lon="1.50555">
        <ele>100.6</ele>
        <time>2021-08-18T09:24:46Z</time>
      </trkpt>
      <trkpt lat="43.85874" lon="1.50562">
        <ele>100.6</ele>
        <time>2021-08-18T09:24:48Z</time>
      </trkpt>
      <trkpt lat="43.85872" lon="1.50567">
        <ele>100.6</ele>
        <time>2021-08-18T09:24:49Z</time>
      </trkpt>
      <trkpt lat="43.85871" lon="1.50573">
        <ele>100.6</ele>
        <time>2021-08-18T09:24:50Z</time>
      </trkpt>
      <trkpt lat="43.85874" lon="1.50583">
        <ele>100.6</ele>
        <time>2021-08-18T09:24:52Z</time>
      </trkpt>
      <trkpt lat="43.85882" lon="1.50599">
        <ele>100.6</ele>
        <time>2021-08-18T09:24:55Z</time>
      </trkpt>
      <trkpt lat="43.8589" lon="1.50611">
        <ele>100.6</ele>
        <time>2021-08-18T09:24:59Z</time>
      </trkpt>
      <trkpt lat="43.85892" lon="1.50613">
        <ele>100.6</ele>
        <time>2021-08-18T09:25:00Z</time>
      </trkpt>
      <trkpt lat="43.85899" lon="1.50622">
        <ele>100.6</ele>
        <time>2021-08-18T09:25:08Z</time>
      </trkpt>
      <trkpt lat="43.85899" lon="1.50619">
        <ele>100.6</ele>
        <time>2021-08-18T09:25:15Z</time>
      </trkpt>
      <trkpt lat="43.85901" lon="1.50617">
        <ele>100.6</ele>
        <time>2021-08-18T09:25:21Z</time>
      </trkpt>
      <trkpt lat="43.85905" lon="1.50615">
        <ele>100.6</ele>
        <time>2021-08-18T09:25:39Z</time>
      </trkpt>
      <trkpt lat="43.85903" lon="1.50618">
        <ele>100.6</ele>
        <time>2021-08-18T09:25:52Z</time>
      </trkpt>
      <trkpt lat="43.85904" lon="1.50621">
        <ele>100.6</ele>
        <time>2021-08-18T09:25:58Z</time>
      </trkpt>
      <trkpt lat="43.85906" lon="1.50621">
        <ele>100.6</ele>
        <time>2021-08-18T09:25:59Z</time>
      </trkpt>
      <trkpt lat="43.85907" lon="1.50623">
        <ele>100.6</ele>
        <time>2021-08-18T09:26:03Z</time>
      </trkpt>
      <trkpt lat="43.85906" lon="1.50624">
        <ele>100.6</ele>
        <time>2021-08-18T09:26:10Z</time>
      </trkpt>
      <trkpt lat="43.85906" lon="1.50627">
        <ele>100.11</ele>
        <time>2021-08-18T09:26:28Z</time>
      </trkpt>
      <trkpt lat="43.85907" lon="1.50629">
        <ele>100.11</ele>
        <time>2021-08-18T09:26:38Z</time>
      </trkpt>
      <trkpt lat="43.85909" lon="1.50633">
        <ele>100.11</ele>
        <time>2021-08-18T09:26:54Z</time>
      </trkpt>
      <trkpt lat="43.85909" lon="1.5063">
        <ele>100.11</ele>
        <time>2021-08-18T09:27:12Z</time>
      </trkpt>
      <trkpt lat="43.85909" lon="1.5063">
        <ele>100.11</ele>
        <time>2021-08-18T09:27:31Z</time>
      </trkpt>
      <trkpt lat="43.85909" lon="1.50634">
        <ele>100.11</ele>
        <time>2021-08-18T09:27:50Z</time>
      </trkpt>
      <trkpt lat="43.85909" lon="1.50631">
        <ele>100.11</ele>
        <time>2021-08-18T09:28:08Z</time>
      </trkpt>
      <trkpt lat="43.8591" lon="1.50632">
        <ele>100.11</ele>
        <time>2021-08-18T09:28:26Z</time>
      </trkpt>
      <trkpt lat="43.85907" lon="1.50629">
        <ele>99.63</ele>
        <time>2021-08-18T09:28:39Z</time>
      </trkpt>
      <trkpt lat="43.85904" lon="1.50628">
        <ele>99.63</ele>
        <time>2021-08-18T09:28:53Z</time>
      </trkpt>
      <trkpt lat="43.85905" lon="1.50627">
        <ele>99.63</ele>
        <time>2021-08-18T09:29:12Z</time>
      </trkpt>
      <trkpt lat="43.85906" lon="1.50629">
        <ele>99.63</ele>
        <time>2021-08-18T09:29:24Z</time>
      </trkpt>
      <trkpt lat="43.8591" lon="1.5063">
        <ele>99.63</ele>
        <time>2021-08-18T09:29:39Z</time>
      </trkpt>
      <trkpt lat="43.85909" lon="1.5063">
        <ele>99.63</ele>
        <time>2021-08-18T09:29:53Z</time>
      </trkpt>
      <trkpt lat="43.85907" lon="1.50635">
        <ele>99.15</ele>
        <time>2021-08-18T09:30:11Z</time>
      </trkpt>
      <trkpt lat="43.85905" lon="1.50634">
        <ele>99.15</ele>
        <time>2021-08-18T09:30:27Z</time>
      </trkpt>
      <trkpt lat="43.85905" lon="1.50633">
        <ele>99.15</ele>
        <time>2021-08-18T09:30:41Z</time>
      </trkpt>
      <trkpt lat="43.85906" lon="1.50629">
        <ele>98.67</ele>
        <time>2021-08-18T09:30:57Z</time>
      </trkpt>
      <trkpt lat="43.85908" lon="1.50628">
        <ele>100.11</ele>
        <time>2021-08-18T09:31:06Z</time>
      </trkpt>
      <trkpt lat="43.8591" lon="1.50626">
        <ele>99.63</ele>
        <time>2021-08-18T09:31:24Z</time>
      </trkpt>
      <trkpt lat="43.85908" lon="1.50626">
        <ele>99.63</ele>
        <time>2021-08-18T09:31:43Z</time>
      </trkpt>
      <trkpt lat="43.85907" lon="1.50625">
        <ele>99.63</ele>
        <time>2021-08-18T09:32:00Z</time>
      </trkpt>
      <trkpt lat="43.85905" lon="1.50628">
        <ele>99.15</ele>
        <time>2021-08-18T09:32:21Z</time>
      </trkpt>
      <trkpt lat="43.85902" lon="1.50629">
        <ele>99.15</ele>
        <time>2021-08-18T09:32:35Z</time>
      </trkpt>
      <trkpt lat="43.85901" lon="1.50632">
        <ele>99.15</ele>
        <time>2021-08-18T09:32:54Z</time>
      </trkpt>
      <trkpt lat="43.85901" lon="1.50634">
        <ele>99.15</ele>
        <time>2021-08-18T09:33:11Z</time>
      </trkpt>
      <trkpt lat="43.859" lon="1.50635">
        <ele>99.15</ele>
        <time>2021-08-18T09:33:32Z</time>
      </trkpt>
      <trkpt lat="43.859" lon="1.50635">
        <ele>99.15</ele>
        <time>2021-08-18T09:33:56Z</time>
      </trkpt>
      <trkpt lat="43.85901" lon="1.50634">
        <ele>99.15</ele>
        <time>2021-08-18T09:34:16Z</time>
      </trkpt>
      <trkpt lat="43.85905" lon="1.5064">
        <ele>99.15</ele>
        <time>2021-08-18T09:34:36Z</time>
      </trkpt>
      <trkpt lat="43.85904" lon="1.50641">
        <ele>99.15</ele>
        <time>2021-08-18T09:34:54Z</time>
      </trkpt>
      <trkpt lat="43.85906" lon="1.50637">
        <ele>98.67</ele>
        <time>2021-08-18T09:35:12Z</time>
      </trkpt>
      <trkpt lat="43.85905" lon="1.50631">
        <ele>98.67</ele>
        <time>2021-08-18T09:35:29Z</time>
      </trkpt>
      <trkpt lat="43.85903" lon="1.50626">
        <ele>98.67</ele>
        <time>2021-08-18T09:35:45Z</time>
      </trkpt>
      <trkpt lat="43.85903" lon="1.50625">
        <ele>98.67</ele>
        <time>2021-08-18T09:36:00Z</time>
      </trkpt>
      <trkpt lat="43.85905" lon="1.5063">
        <ele>98.67</ele>
        <time>2021-08-18T09:36:09Z</time>
      </trkpt>
      <trkpt lat="43.85908" lon="1.5063">
        <ele>98.67</ele>
        <time>2021-08-18T09:36:19Z</time>
      </trkpt>
      <trkpt lat="43.85912" lon="1.50632">
        <ele>98.19</ele>
        <time>2021-08-18T09:36:35Z</time>
      </trkpt>
      <trkpt lat="43.85915" lon="1.50636">
        <ele>98.19</ele>
        <time>2021-08-18T09:36:53Z</time>
      </trkpt>
      <trkpt lat="43.85906" lon="1.50628">
        <ele>98.19</ele>
        <time>2021-08-18T09:37:17Z</time>
      </trkpt>
      <trkpt lat="43.85905" lon="1.50626">
        <ele>98.19</ele>
        <time>2021-08-18T09:37:34Z</time>
      </trkpt>
      <trkpt lat="43.85902" lon="1.50623">
        <ele>98.19</ele>
        <time>2021-08-18T09:37:50Z</time>
      </trkpt>
      <trkpt lat="43.85902" lon="1.50625">
        <ele>98.19</ele>
        <time>2021-08-18T09:38:18Z</time>
      </trkpt>
      <trkpt lat="43.85901" lon="1.50625">
        <ele>98.19</ele>
        <time>2021-08-18T09:38:35Z</time>
      </trkpt>
      <trkpt lat="43.85898" lon="1.50627">
        <ele>98.19</ele>
        <time>2021-08-18T09:38:50Z</time>
      </trkpt>
      <trkpt lat="43.85892" lon="1.50629">
        <ele>98.19</ele>
        <time>2021-08-18T09:39:13Z</time>
      </trkpt>
      <trkpt lat="43.85887" lon="1.50631">
        <ele>98.19</ele>
        <time>2021-08-18T09:39:34Z</time>
      </trkpt>
      <trkpt lat="43.85886" lon="1.5063">
        <ele>98.19</ele>
        <time>2021-08-18T09:39:54Z</time>
      </trkpt>
      <trkpt lat="43.8589" lon="1.5063">
        <ele>98.67</ele>
        <time>2021-08-18T09:40:13Z</time>
      </trkpt>
      <trkpt lat="43.85893" lon="1.5063">
        <ele>98.67</ele>
        <time>2021-08-18T09:40:30Z</time>
      </trkpt>
      <trkpt lat="43.85894" lon="1.5063">
        <ele>98.67</ele>
        <time>2021-08-18T09:40:45Z</time>
      </trkpt>
      <trkpt lat="43.85894" lon="1.50631">
        <ele>99.15</ele>
        <time>2021-08-18T09:40:59Z</time>
      </trkpt>
      <trkpt lat="43.85895" lon="1.50633">
        <ele>99.15</ele>
        <time>2021-08-18T09:41:12Z</time>
      </trkpt>
      <trkpt lat="43.85896" lon="1.50637">
        <ele>99.15</ele>
        <time>2021-08-18T09:41:27Z</time>
      </trkpt>
      <trkpt lat="43.85898" lon="1.50645">
        <ele>99.15</ele>
        <time>2021-08-18T09:41:45Z</time>
      </trkpt>
      <trkpt lat="43.859" lon="1.50643">
        <ele>99.15</ele>
        <time>2021-08-18T09:42:01Z</time>
      </trkpt>
      <trkpt lat="43.85902" lon="1.50641">
        <ele>99.63</ele>
        <time>2021-08-18T09:42:17Z</time>
      </trkpt>
      <trkpt lat="43.85901" lon="1.50633">
        <ele>99.63</ele>
        <time>2021-08-18T09:42:40Z</time>
      </trkpt>
      <trkpt lat="43.85905" lon="1.50629">
        <ele>99.63</ele>
        <time>2021-08-18T09:42:57Z</time>
      </trkpt>
      <trkpt lat="43.85908" lon="1.50624">
        <ele>99.63</ele>
        <time>2021-08-18T09:43:16Z</time>
      </trkpt>
      <trkpt lat="43.85904" lon="1.50625">
        <ele>99.63</ele>
        <time>2021-08-18T09:43:34Z</time>
      </trkpt>
      <trkpt lat="43.859" lon="1.50631">
        <ele>99.63</ele>
        <time>2021-08-18T09:43:53Z</time>
      </trkpt>
      <trkpt lat="43.85899" lon="1.50636">
        <ele>99.63</ele>
        <time>2021-08-18T09:44:09Z</time>
      </trkpt>
      <trkpt lat="43.859" lon="1.50637">
        <ele>99.63</ele>
        <time>2021-08-18T09:44:32Z</time>
      </trkpt>
      <trkpt lat="43.85897" lon="1.50637">
        <ele>99.63</ele>
        <time>2021-08-18T09:44:50Z</time>
      </trkpt>
      <trkpt lat="43.85896" lon="1.50637">
        <ele>99.15</ele>
        <time>2021-08-18T09:45:11Z</time>
      </trkpt>
      <trkpt lat="43.85894" lon="1.50637">
        <ele>99.15</ele>
        <time>2021-08-18T09:45:36Z</time>
      </trkpt>
      <trkpt lat="43.85896" lon="1.50632">
        <ele>99.15</ele>
        <time>2021-08-18T09:45:57Z</time>
      </trkpt>
      <trkpt lat="43.85903" lon="1.50627">
        <ele>99.15</ele>
        <time>2021-08-18T09:46:21Z</time>
      </trkpt>
      <trkpt lat="43.85903" lon="1.50627">
        <ele>99.15</ele>
        <time>2021-08-18T09:46:49Z</time>
      </trkpt>
      <trkpt lat="43.85894" lon="1.50627">
        <ele>99.15</ele>
        <time>2021-08-18T09:47:06Z</time>
      </trkpt>
      <trkpt lat="43.85896" lon="1.50629">
        <ele>99.15</ele>
        <time>2021-08-18T09:47:24Z</time>
      </trkpt>
      <trkpt lat="43.85898" lon="1.50628">
        <ele>99.15</ele>
        <time>2021-08-18T09:47:42Z</time>
      </trkpt>
      <trkpt lat="43.85898" lon="1.5063">
        <ele>99.15</ele>
        <time>2021-08-18T09:47:56Z</time>
      </trkpt>
      <trkpt lat="43.85898" lon="1.5063">
        <ele>99.15</ele>
        <time>2021-08-18T09:48:15Z</time>
      </trkpt>
      <trkpt lat="43.859" lon="1.50626">
        <ele>99.15</ele>
        <time>2021-08-18T09:48:32Z</time>
      </trkpt>
      <trkpt lat="43.85903" lon="1.50624">
        <ele>99.15</ele>
        <time>2021-08-18T09:48:47Z</time>
      </trkpt>
      <trkpt lat="43.85904" lon="1.50623">
        <ele>98.67</ele>
        <time>2021-08-18T09:49:06Z</time>
      </trkpt>
      <trkpt lat="43.85905" lon="1.50623">
        <ele>98.67</ele>
        <time>2021-08-18T09:49:26Z</time>
      </trkpt>
      <trkpt lat="43.85902" lon="1.50629">
        <ele>98.67</ele>
        <time>2021-08-18T09:49:50Z</time>
      </trkpt>
      <trkpt lat="43.85905" lon="1.50631">
        <ele>98.67</ele>
        <time>2021-08-18T09:50:13Z</time>
      </trkpt>
      <trkpt lat="43.85901" lon="1.50629">
        <ele>98.19</ele>
        <time>2021-08-18T09:50:38Z</time>
      </trkpt>
      <trkpt lat="43.85903" lon="1.50629">
        <ele>98.19</ele>
        <time>2021-08-18T09:50:59Z</time>
      </trkpt>
      <trkpt lat="43.85897" lon="1.50632">
        <ele>98.19</ele>
        <time>2021-08-18T09:51:18Z</time>
      </trkpt>
      <trkpt lat="43.85895" lon="1.5064">
        <ele>98.19</ele>
        <time>2021-08-18T09:51:37Z</time>
      </trkpt>
      <trkpt lat="43.85898" lon="1.50638">
        <ele>98.19</ele>
        <time>2021-08-18T09:51:59Z</time>
      </trkpt>
      <trkpt lat="43.85902" lon="1.5063">
        <ele>98.19</ele>
        <time>2021-08-18T09:52:20Z</time>
      </trkpt>
      <trkpt lat="43.85903" lon="1.50628">
        <ele>97.71</ele>
        <time>2021-08-18T09:52:39Z</time>
      </trkpt>
      <trkpt lat="43.859" lon="1.50627">
        <ele>97.71</ele>
        <time>2021-08-18T09:53:01Z</time>
      </trkpt>
      <trkpt lat="43.85899" lon="1.50627">
        <ele>97.71</ele>
        <time>2021-08-18T09:53:21Z</time>
      </trkpt>
      <trkpt lat="43.85897" lon="1.50629">
        <ele>97.71</ele>
        <time>2021-08-18T09:53:40Z</time>
      </trkpt>
      <trkpt lat="43.85898" lon="1.50631">
        <ele>97.71</ele>
        <time>2021-08-18T09:53:59Z</time>
      </trkpt>
      <trkpt lat="43.85899" lon="1.5063">
        <ele>98.19</ele>
        <time>2021-08-18T09:54:20Z</time>
      </trkpt>
      <trkpt lat="43.85898" lon="1.50632">
        <ele>98.19</ele>
        <time>2021-08-18T09:54:37Z</time>
      </trkpt>
      <trkpt lat="43.85897" lon="1.50632">
        <ele>98.19</ele>
        <time>2021-08-18T09:54:56Z</time>
      </trkpt>
      <trkpt lat="43.85897" lon="1.50629">
        <ele>98.19</ele>
        <time>2021-08-18T09:55:09Z</time>
      </trkpt>
      <trkpt lat="43.85899" lon="1.50625">
        <ele>98.19</ele>
        <time>2021-08-18T09:55:35Z</time>
      </trkpt>
      <trkpt lat="43.85897" lon="1.50625">
        <ele>98.19</ele>
        <time>2021-08-18T09:55:52Z</time>
      </trkpt>
      <trkpt lat="43.85896" lon="1.50627">
        <ele>98.19</ele>
        <time>2021-08-18T09:56:09Z</time>
      </trkpt>
      <trkpt lat="43.85895" lon="1.50624">
        <ele>98.19</ele>
        <time>2021-08-18T09:56:35Z</time>
      </trkpt>
      <trkpt lat="43.85892" lon="1.50625">
        <ele>98.19</ele>
        <time>2021-08-18T09:56:59Z</time>
      </trkpt>
      <trkpt lat="43.85892" lon="1.5063">
        <ele>98.19</ele>
        <time>2021-08-18T09:57:26Z</time>
      </trkpt>
      <trkpt lat="43.85897" lon="1.50625">
        <ele>98.19</ele>
        <time>2021-08-18T09:57:51Z</time>
      </trkpt>
      <trkpt lat="43.85897" lon="1.50626">
        <ele>98.67</ele>
        <time>2021-08-18T09:58:16Z</time>
      </trkpt>
      <trkpt lat="43.85905" lon="1.50627">
        <ele>98.67</ele>
        <time>2021-08-18T09:58:40Z</time>
      </trkpt>
      <trkpt lat="43.85907" lon="1.50626">
        <ele>98.67</ele>
        <time>2021-08-18T09:59:05Z</time>
      </trkpt>
      <trkpt lat="43.85907" lon="1.50626">
        <ele>99.15</ele>
        <time>2021-08-18T09:59:26Z</time>
      </trkpt>
      <trkpt lat="43.85894" lon="1.50622">
        <ele>99.15</ele>
        <time>2021-08-18T09:59:44Z</time>
      </trkpt>
      <trkpt lat="43.85887" lon="1.50627">
        <ele>99.15</ele>
        <time>2021-08-18T10:00:09Z</time>
      </trkpt>
      <trkpt lat="43.85882" lon="1.50638">
        <ele>99.15</ele>
        <time>2021-08-18T10:00:37Z</time>
      </trkpt>
      <trkpt lat="43.85887" lon="1.50641">
        <ele>99.15</ele>
        <time>2021-08-18T10:01:03Z</time>
      </trkpt>
      <trkpt lat="43.8589" lon="1.50642">
        <ele>99.15</ele>
        <time>2021-08-18T10:01:33Z</time>
      </trkpt>
      <trkpt lat="43.85893" lon="1.50635">
        <ele>99.15</ele>
        <time>2021-08-18T10:02:02Z</time>
      </trkpt>
      <trkpt lat="43.85901" lon="1.50629">
        <ele>99.63</ele>
        <time>2021-08-18T10:02:30Z</time>
      </trkpt>
      <trkpt lat="43.85899" lon="1.50629">
        <ele>99.63</ele>
        <time>2021-08-18T10:03:00Z</time>
      </trkpt>
      <trkpt lat="43.859" lon="1.50626">
        <ele>99.63</ele>
        <time>2021-08-18T10:03:27Z</time>
      </trkpt>
      <trkpt lat="43.85902" lon="1.50628">
        <ele>99.63</ele>
        <time>2021-08-18T10:03:45Z</time>
      </trkpt>
      <trkpt lat="43.85905" lon="1.50628">
        <ele>99.63</ele>
        <time>2021-08-18T10:04:09Z</time>
      </trkpt>
      <trkpt lat="43.85903" lon="1.50625">
        <ele>99.63</ele>
        <time>2021-08-18T10:04:27Z</time>
      </trkpt>
      <trkpt lat="43.85909" lon="1.50625">
        <ele>99.63</ele>
        <time>2021-08-18T10:04:52Z</time>
      </trkpt>
      <trkpt lat="43.85905" lon="1.50624">
        <ele>99.63</ele>
        <time>2021-08-18T10:05:11Z</time>
      </trkpt>
      <trkpt lat="43.85901" lon="1.50626">
        <ele>99.15</ele>
        <time>2021-08-18T10:05:36Z</time>
      </trkpt>
      <trkpt lat="43.85899" lon="1.50633">
        <ele>99.15</ele>
        <time>2021-08-18T10:05:57Z</time>
      </trkpt>
      <trkpt lat="43.85899" lon="1.50631">
        <ele>99.15</ele>
        <time>2021-08-18T10:06:22Z</time>
      </trkpt>
      <trkpt lat="43.85896" lon="1.50631">
        <ele>99.15</ele>
        <time>2021-08-18T10:06:45Z</time>
      </trkpt>
      <trkpt lat="43.85895" lon="1.5063">
        <ele>99.15</ele>
        <time>2021-08-18T10:07:12Z</time>
      </trkpt>
      <trkpt lat="43.85893" lon="1.50631">
        <ele>99.15</ele>
        <time>2021-08-18T10:07:28Z</time>
      </trkpt>
      <trkpt lat="43.85896" lon="1.50631">
        <ele>99.15</ele>
        <time>2021-08-18T10:07:48Z</time>
      </trkpt>
      <trkpt lat="43.85894" lon="1.50632">
        <ele>99.15</ele>
        <time>2021-08-18T10:08:12Z</time>
      </trkpt>
      <trkpt lat="43.85892" lon="1.50633">
        <ele>99.15</ele>
        <time>2021-08-18T10:08:36Z</time>
      </trkpt>
      <trkpt lat="43.85898" lon="1.50627">
        <ele>99.15</ele>
        <time>2021-08-18T10:08:52Z</time>
      </trkpt>
      <trkpt lat="43.85898" lon="1.50628">
        <ele>99.15</ele>
        <time>2021-08-18T10:09:11Z</time>
      </trkpt>
      <trkpt lat="43.85897" lon="1.50631">
        <ele>99.15</ele>
        <time>2021-08-18T10:09:27Z</time>
      </trkpt>
      <trkpt lat="43.85897" lon="1.50633">
        <ele>99.15</ele>
        <time>2021-08-18T10:09:42Z</time>
      </trkpt>
      <trkpt lat="43.85899" lon="1.50642">
        <ele>99.15</ele>
        <time>2021-08-18T10:10:02Z</time>
      </trkpt>
      <trkpt lat="43.85896" lon="1.50638">
        <ele>99.63</ele>
        <time>2021-08-18T10:10:25Z</time>
      </trkpt>
      <trkpt lat="43.85898" lon="1.50632">
        <ele>99.63</ele>
        <time>2021-08-18T10:10:45Z</time>
      </trkpt>
      <trkpt lat="43.85899" lon="1.50629">
        <ele>99.63</ele>
        <time>2021-08-18T10:11:08Z</time>
      </trkpt>
      <trkpt lat="43.85897" lon="1.5063">
        <ele>99.63</ele>
        <time>2021-08-18T10:11:29Z</time>
      </trkpt>
      <trkpt lat="43.85897" lon="1.50631">
        <ele>99.63</ele>
        <time>2021-08-18T10:11:52Z</time>
      </trkpt>
      <trkpt lat="43.85897" lon="1.50635">
        <ele>99.63</ele>
        <time>2021-08-18T10:12:13Z</time>
      </trkpt>
      <trkpt lat="43.85898" lon="1.50635">
        <ele>99.63</ele>
        <time>2021-08-18T10:12:35Z</time>
      </trkpt>
      <trkpt lat="43.85896" lon="1.50632">
        <ele>99.63</ele>
        <time>2021-08-18T10:12:55Z</time>
      </trkpt>
      <trkpt lat="43.85896" lon="1.50629">
        <ele>99.15</ele>
        <time>2021-08-18T10:13:13Z</time>
      </trkpt>
      <trkpt lat="43.85897" lon="1.50627">
        <ele>99.63</ele>
        <time>2021-08-18T10:13:32Z</time>
      </trkpt>
      <trkpt lat="43.85895" lon="1.5063">
        <ele>99.63</ele>
        <time>2021-08-18T10:13:56Z</time>
      </trkpt>
      <trkpt lat="43.85888" lon="1.50633">
        <ele>99.63</ele>
        <time>2021-08-18T10:14:15Z</time>
      </trkpt>
      <trkpt lat="43.8589" lon="1.50633">
        <ele>99.63</ele>
        <time>2021-08-18T10:14:30Z</time>
      </trkpt>
      <trkpt lat="43.85898" lon="1.50629">
        <ele>99.63</ele>
        <time>2021-08-18T10:14:57Z</time>
      </trkpt>
      <trkpt lat="43.85897" lon="1.50628">
        <ele>99.63</ele>
        <time>2021-08-18T10:15:16Z</time>
      </trkpt>
      <trkpt lat="43.859" lon="1.50632">
        <ele>99.63</ele>
        <time>2021-08-18T10:15:35Z</time>
      </trkpt>
      <trkpt lat="43.85903" lon="1.50638">
        <ele>99.63</ele>
        <time>2021-08-18T10:15:53Z</time>
      </trkpt>
      <trkpt lat="43.85902" lon="1.50638">
        <ele>99.63</ele>
        <time>2021-08-18T10:16:14Z</time>
      </trkpt>
      <trkpt lat="43.85904" lon="1.50636">
        <ele>99.63</ele>
        <time>2021-08-18T10:16:33Z</time>
      </trkpt>
      <trkpt lat="43.85892" lon="1.50641">
        <ele>99.63</ele>
        <time>2021-08-18T10:16:57Z</time>
      </trkpt>
      <trkpt lat="43.85895" lon="1.50639">
        <ele>100.11</ele>
        <time>2021-08-18T10:17:16Z</time>
      </trkpt>
      <trkpt lat="43.85896" lon="1.50638">
        <ele>100.11</ele>
        <time>2021-08-18T10:17:37Z</time>
      </trkpt>
      <trkpt lat="43.85892" lon="1.50636">
        <ele>100.11</ele>
        <time>2021-08-18T10:17:59Z</time>
      </trkpt>
      <trkpt lat="43.8589" lon="1.50636">
        <ele>100.11</ele>
        <time>2021-08-18T10:18:23Z</time>
      </trkpt>
      <trkpt lat="43.85889" lon="1.50635">
        <ele>100.6</ele>
        <time>2021-08-18T10:18:44Z</time>
      </trkpt>
      <trkpt lat="43.8589" lon="1.50634">
        <ele>100.6</ele>
        <time>2021-08-18T10:18:57Z</time>
      </trkpt>
      <trkpt lat="43.85895" lon="1.50634">
        <ele>100.6</ele>
        <time>2021-08-18T10:19:21Z</time>
      </trkpt>
      <trkpt lat="43.85895" lon="1.5063">
        <ele>101.08</ele>
        <time>2021-08-18T10:19:42Z</time>
      </trkpt>
      <trkpt lat="43.85895" lon="1.50631">
        <ele>101.08</ele>
        <time>2021-08-18T10:19:55Z</time>
      </trkpt>
      <trkpt lat="43.85896" lon="1.50634">
        <ele>101.08</ele>
        <time>2021-08-18T10:20:22Z</time>
      </trkpt>
      <trkpt lat="43.85897" lon="1.50633">
        <ele>101.08</ele>
        <time>2021-08-18T10:20:43Z</time>
      </trkpt>
      <trkpt lat="43.85901" lon="1.50632">
        <ele>101.08</ele>
        <time>2021-08-18T10:21:04Z</time>
      </trkpt>
      <trkpt lat="43.859" lon="1.50628">
        <ele>101.08</ele>
        <time>2021-08-18T10:21:23Z</time>
      </trkpt>
      <trkpt lat="43.85899" lon="1.50628">
        <ele>101.08</ele>
        <time>2021-08-18T10:21:41Z</time>
      </trkpt>
      <trkpt lat="43.85898" lon="1.50627">
        <ele>101.08</ele>
        <time>2021-08-18T10:21:56Z</time>
      </trkpt>
      <trkpt lat="43.85898" lon="1.50628">
        <ele>101.08</ele>
        <time>2021-08-18T10:22:10Z</time>
      </trkpt>
      <trkpt lat="43.859" lon="1.5063">
        <ele>101.08</ele>
        <time>2021-08-18T10:22:32Z</time>
      </trkpt>
      <trkpt lat="43.85903" lon="1.50633">
        <ele>101.08</ele>
        <time>2021-08-18T10:22:51Z</time>
      </trkpt>
      <trkpt lat="43.85905" lon="1.50635">
        <ele>101.08</ele>
        <time>2021-08-18T10:23:06Z</time>
      </trkpt>
      <trkpt lat="43.85902" lon="1.50635">
        <ele>101.56</ele>
        <time>2021-08-18T10:23:23Z</time>
      </trkpt>
      <trkpt lat="43.85899" lon="1.50631">
        <ele>101.56</ele>
        <time>2021-08-18T10:23:41Z</time>
      </trkpt>
      <trkpt lat="43.85896" lon="1.5063">
        <ele>101.56</ele>
        <time>2021-08-18T10:24:01Z</time>
      </trkpt>
      <trkpt lat="43.85896" lon="1.50633">
        <ele>101.56</ele>
        <time>2021-08-18T10:24:19Z</time>
      </trkpt>
      <trkpt lat="43.85902" lon="1.50629">
        <ele>101.56</ele>
        <time>2021-08-18T10:24:32Z</time>
      </trkpt>
      <trkpt lat="43.859" lon="1.50629">
        <ele>101.08</ele>
        <time>2021-08-18T10:24:47Z</time>
      </trkpt>
      <trkpt lat="43.85898" lon="1.50627">
        <ele>101.08</ele>
        <time>2021-08-18T10:25:10Z</time>
      </trkpt>
      <trkpt lat="43.859" lon="1.50631">
        <ele>101.08</ele>
        <time>2021-08-18T10:25:31Z</time>
      </trkpt>
      <trkpt lat="43.85902" lon="1.50631">
        <ele>101.08</ele>
        <time>2021-08-18T10:25:39Z</time>
      </trkpt>
      <trkpt lat="43.85901" lon="1.50631">
        <ele>101.08</ele>
        <time>2021-08-18T10:25:46Z</time>
      </trkpt>
      <trkpt lat="43.85901" lon="1.50634">
        <ele>100.6</ele>
        <time>2021-08-18T10:26:07Z</time>
      </trkpt>
      <trkpt lat="43.859" lon="1.50631">
        <ele>100.6</ele>
        <time>2021-08-18T10:26:25Z</time>
      </trkpt>
      <trkpt lat="43.85901" lon="1.50628">
        <ele>100.6</ele>
        <time>2021-08-18T10:26:46Z</time>
      </trkpt>
      <trkpt lat="43.85903" lon="1.50625">
        <ele>100.6</ele>
        <time>2021-08-18T10:26:59Z</time>
      </trkpt>
      <trkpt lat="43.85899" lon="1.5063">
        <ele>100.6</ele>
        <time>2021-08-18T10:27:21Z</time>
      </trkpt>
      <trkpt lat="43.85897" lon="1.50633">
        <ele>100.11</ele>
        <time>2021-08-18T10:27:38Z</time>
      </trkpt>
      <trkpt lat="43.85897" lon="1.50633">
        <ele>100.11</ele>
        <time>2021-08-18T10:27:55Z</time>
      </trkpt>
      <trkpt lat="43.85897" lon="1.50628">
        <ele>100.11</ele>
        <time>2021-08-18T10:28:11Z</time>
      </trkpt>
      <trkpt lat="43.85896" lon="1.50629">
        <ele>99.63</ele>
        <time>2021-08-18T10:28:36Z</time>
      </trkpt>
      <trkpt lat="43.85892" lon="1.50632">
        <ele>99.15</ele>
        <time>2021-08-18T10:28:57Z</time>
      </trkpt>
      <trkpt lat="43.85886" lon="1.50638">
        <ele>99.15</ele>
        <time>2021-08-18T10:29:21Z</time>
      </trkpt>
      <trkpt lat="43.8588" lon="1.50644">
        <ele>98.67</ele>
        <time>2021-08-18T10:29:43Z</time>
      </trkpt>
      <trkpt lat="43.85879" lon="1.50641">
        <ele>98.67</ele>
        <time>2021-08-18T10:30:05Z</time>
      </trkpt>
      <trkpt lat="43.85889" lon="1.50639">
        <ele>98.19</ele>
        <time>2021-08-18T10:30:20Z</time>
      </trkpt>
      <trkpt lat="43.85889" lon="1.50645">
        <ele>98.67</ele>
        <time>2021-08-18T10:30:44Z</time>
      </trkpt>
      <trkpt lat="43.85884" lon="1.50646">
        <ele>98.67</ele>
        <time>2021-08-18T10:31:08Z</time>
      </trkpt>
      <trkpt lat="43.85889" lon="1.50642">
        <ele>98.19</ele>
        <time>2021-08-18T10:31:24Z</time>
      </trkpt>
      <trkpt lat="43.85895" lon="1.50638">
        <ele>98.19</ele>
        <time>2021-08-18T10:31:42Z</time>
      </trkpt>
      <trkpt lat="43.85897" lon="1.50635">
        <ele>98.19</ele>
        <time>2021-08-18T10:32:07Z</time>
      </trkpt>
      <trkpt lat="43.85897" lon="1.50639">
        <ele>98.19</ele>
        <time>2021-08-18T10:32:26Z</time>
      </trkpt>
      <trkpt lat="43.859" lon="1.50632">
        <ele>98.19</ele>
        <time>2021-08-18T10:32:42Z</time>
      </trkpt>
      <trkpt lat="43.859" lon="1.50627">
        <ele>98.19</ele>
        <time>2021-08-18T10:33:01Z</time>
      </trkpt>
      <trkpt lat="43.85899" lon="1.50628">
        <ele>98.19</ele>
        <time>2021-08-18T10:33:23Z</time>
      </trkpt>
      <trkpt lat="43.85901" lon="1.50625">
        <ele>98.19</ele>
        <time>2021-08-18T10:33:38Z</time>
      </trkpt>
      <trkpt lat="43.85906" lon="1.50624">
        <ele>98.19</ele>
        <time>2021-08-18T10:33:57Z</time>
      </trkpt>
      <trkpt lat="43.85906" lon="1.50627">
        <ele>98.19</ele>
        <time>2021-08-18T10:34:16Z</time>
      </trkpt>
      <trkpt lat="43.85905" lon="1.50632">
        <ele>98.19</ele>
        <time>2021-08-18T10:34:32Z</time>
      </trkpt>
      <trkpt lat="43.85902" lon="1.5063">
        <ele>98.19</ele>
        <time>2021-08-18T10:34:42Z</time>
      </trkpt>
      <trkpt lat="43.85901" lon="1.50627">
        <ele>98.19</ele>
        <time>2021-08-18T10:34:51Z</time>
      </trkpt>
      <trkpt lat="43.85902" lon="1.50625">
        <ele>98.19</ele>
        <time>2021-08-18T10:34:59Z</time>
      </trkpt>
      <trkpt lat="43.85902" lon="1.50628">
        <ele>98.19</ele>
        <time>2021-08-18T10:35:02Z</time>
      </trkpt>
      <trkpt lat="43.859" lon="1.50629">
        <ele>98.19</ele>
        <time>2021-08-18T10:35:03Z</time>
      </trkpt>
      <trkpt lat="43.859" lon="1.50629">
        <ele>98.19</ele>
        <time>2021-08-18T10:35:09Z</time>
      </trkpt>
      <trkpt lat="43.859" lon="1.50631">
        <ele>98.19</ele>
        <time>2021-08-18T10:35:34Z</time>
      </trkpt>
      <trkpt lat="43.85898" lon="1.50633">
        <ele>98.19</ele>
        <time>2021-08-18T10:35:48Z</time>
      </trkpt>
      <trkpt lat="43.85897" lon="1.50631">
        <ele>98.19</ele>
        <time>2021-08-18T10:35:52Z</time>
      </trkpt>
      <trkpt lat="43.85896" lon="1.50631">
        <ele>98.19</ele>
        <time>2021-08-18T10:36:10Z</time>
      </trkpt>
      <trkpt lat="43.85896" lon="1.50629">
        <ele>98.19</ele>
        <time>2021-08-18T10:36:24Z</time>
      </trkpt>
      <trkpt lat="43.85896" lon="1.50624">
        <ele>98.19</ele>
        <time>2021-08-18T10:36:28Z</time>
      </trkpt>
      <trkpt lat="43.85895" lon="1.50622">
        <ele>98.19</ele>
        <time>2021-08-18T10:36:29Z</time>
      </trkpt>
      <trkpt lat="43.85881" lon="1.50604">
        <ele>98.19</ele>
        <time>2021-08-18T10:36:35Z</time>
      </trkpt>
      <trkpt lat="43.85876" lon="1.50585">
        <ele>98.19</ele>
        <time>2021-08-18T10:36:40Z</time>
      </trkpt>
      <trkpt lat="43.85876" lon="1.50578">
        <ele>98.67</ele>
        <time>2021-08-18T10:36:45Z</time>
      </trkpt>
      <trkpt lat="43.85877" lon="1.50576">
        <ele>98.67</ele>
        <time>2021-08-18T10:36:54Z</time>
      </trkpt>
      <trkpt lat="43.85878" lon="1.50575">
        <ele>98.67</ele>
        <time>2021-08-18T10:36:55Z</time>
      </trkpt>
      <trkpt lat="43.85879" lon="1.50574">
        <ele>98.67</ele>
        <time>2021-08-18T10:36:56Z</time>
      </trkpt>
      <trkpt lat="43.85879" lon="1.50572">
        <ele>98.67</ele>
        <time>2021-08-18T10:36:57Z</time>
      </trkpt>
      <trkpt lat="43.8588" lon="1.50571">
        <ele>98.67</ele>
        <time>2021-08-18T10:36:58Z</time>
      </trkpt>
      <trkpt lat="43.85881" lon="1.5057">
        <ele>98.67</ele>
        <time>2021-08-18T10:36:59Z</time>
      </trkpt>
      <trkpt lat="43.85882" lon="1.5057">
        <ele>98.67</ele>
        <time>2021-08-18T10:37:00Z</time>
      </trkpt>
      <trkpt lat="43.85884" lon="1.5057">
        <ele>98.67</ele>
        <time>2021-08-18T10:37:01Z</time>
      </trkpt>
      <trkpt lat="43.85885" lon="1.50569">
        <ele>98.67</ele>
        <time>2021-08-18T10:37:02Z</time>
      </trkpt>
      <trkpt lat="43.85886" lon="1.50569">
        <ele>98.67</ele>
        <time>2021-08-18T10:37:03Z</time>
      </trkpt>
      <trkpt lat="43.85895" lon="1.50564">
        <ele>98.67</ele>
        <time>2021-08-18T10:37:13Z</time>
      </trkpt>
      <trkpt lat="43.85895" lon="1.50564">
        <ele>98.67</ele>
        <time>2021-08-18T10:37:23Z</time>
      </trkpt>
      <trkpt lat="43.85896" lon="1.50562">
        <ele>98.67</ele>
        <time>2021-08-18T10:37:47Z</time>
      </trkpt>
      <trkpt lat="43.85894" lon="1.50564">
        <ele>98.67</ele>
        <time>2021-08-18T10:38:09Z</time>
      </trkpt>
      <trkpt lat="43.85891" lon="1.50564">
        <ele>98.67</ele>
        <time>2021-08-18T10:38:25Z</time>
      </trkpt>
      <trkpt lat="43.85891" lon="1.50562">
        <ele>98.67</ele>
        <time>2021-08-18T10:38:45Z</time>
      </trkpt>
      <trkpt lat="43.8589" lon="1.50562">
        <ele>98.67</ele>
        <time>2021-08-18T10:39:02Z</time>
      </trkpt>
      <trkpt lat="43.85889" lon="1.50563">
        <ele>98.67</ele>
        <time>2021-08-18T10:39:22Z</time>
      </trkpt>
      <trkpt lat="43.8589" lon="1.50564">
        <ele>99.15</ele>
        <time>2021-08-18T10:39:42Z</time>
      </trkpt>
      <trkpt lat="43.8589" lon="1.50563">
        <ele>99.15</ele>
        <time>2021-08-18T10:39:56Z</time>
      </trkpt>
      <trkpt lat="43.8589" lon="1.50563">
        <ele>99.15</ele>
        <time>2021-08-18T10:40:04Z</time>
      </trkpt>
      <trkpt lat="43.85889" lon="1.50563">
        <ele>99.15</ele>
        <time>2021-08-18T10:40:17Z</time>
      </trkpt>
      <trkpt lat="43.8589" lon="1.50563">
        <ele>99.15</ele>
        <time>2021-08-18T10:40:31Z</time>
      </trkpt>
      <trkpt lat="43.85892" lon="1.50564">
        <ele>99.15</ele>
        <time>2021-08-18T10:40:44Z</time>
      </trkpt>
      <trkpt lat="43.85892" lon="1.50563">
        <ele>99.15</ele>
        <time>2021-08-18T10:41:01Z</time>
      </trkpt>
      <trkpt lat="43.85893" lon="1.50563">
        <ele>99.63</ele>
        <time>2021-08-18T10:41:17Z</time>
      </trkpt>
      <trkpt lat="43.85893" lon="1.50565">
        <ele>100.11</ele>
        <time>2021-08-18T10:41:32Z</time>
      </trkpt>
      <trkpt lat="43.85894" lon="1.50565">
        <ele>100.11</ele>
        <time>2021-08-18T10:41:45Z</time>
      </trkpt>
      <trkpt lat="43.85894" lon="1.50565">
        <ele>100.11</ele>
        <time>2021-08-18T10:42:00Z</time>
      </trkpt>
      <trkpt lat="43.85894" lon="1.50566">
        <ele>100.11</ele>
        <time>2021-08-18T10:42:17Z</time>
      </trkpt>
      <trkpt lat="43.85895" lon="1.50567">
        <ele>100.11</ele>
        <time>2021-08-18T10:42:32Z</time>
      </trkpt>
      <trkpt lat="43.85895" lon="1.50567">
        <ele>100.11</ele>
        <time>2021-08-18T10:42:44Z</time>
      </trkpt>
      <trkpt lat="43.85896" lon="1.50567">
        <ele>100.11</ele>
        <time>2021-08-18T10:42:56Z</time>
      </trkpt>
      <trkpt lat="43.85897" lon="1.50566">
        <ele>100.11</ele>
        <time>2021-08-18T10:43:06Z</time>
      </trkpt>
      <trkpt lat="43.85899" lon="1.50562">
        <ele>100.11</ele>
        <time>2021-08-18T10:43:17Z</time>
      </trkpt>
      <trkpt lat="43.85901" lon="1.50561">
        <ele>100.11</ele>
        <time>2021-08-18T10:43:18Z</time>
      </trkpt>
      <trkpt lat="43.85902" lon="1.5056">
        <ele>100.11</ele>
        <time>2021-08-18T10:43:19Z</time>
      </trkpt>
      <trkpt lat="43.85917" lon="1.50546">
        <ele>100.11</ele>
        <time>2021-08-18T10:43:25Z</time>
      </trkpt>
      <trkpt lat="43.85926" lon="1.50536">
        <ele>100.11</ele>
        <time>2021-08-18T10:43:28Z</time>
      </trkpt>
      <trkpt lat="43.8593" lon="1.50524">
        <ele>100.11</ele>
        <time>2021-08-18T10:43:31Z</time>
      </trkpt>
      <trkpt lat="43.85933" lon="1.50522">
        <ele>100.11</ele>
        <time>2021-08-18T10:43:32Z</time>
      </trkpt>
      <trkpt lat="43.85951" lon="1.50504">
        <ele>100.11</ele>
        <time>2021-08-18T10:43:38Z</time>
      </trkpt>
      <trkpt lat="43.85972" lon="1.50484">
        <ele>100.11</ele>
        <time>2021-08-18T10:43:45Z</time>
      </trkpt>
      <trkpt lat="43.85997" lon="1.50462">
        <ele>100.11</ele>
        <time>2021-08-18T10:43:52Z</time>
      </trkpt>
      <trkpt lat="43.86029" lon="1.50432">
        <ele>100.11</ele>
        <time>2021-08-18T10:44:00Z</time>
      </trkpt>
      <trkpt lat="43.86062" lon="1.50401">
        <ele>100.11</ele>
        <time>2021-08-18T10:44:08Z</time>
      </trkpt>
      <trkpt lat="43.86101" lon="1.50364">
        <ele>100.11</ele>
        <time>2021-08-18T10:44:18Z</time>
      </trkpt>
      <trkpt lat="43.8612" lon="1.50353">
        <ele>100.11</ele>
        <time>2021-08-18T10:44:24Z</time>
      </trkpt>
      <trkpt lat="43.86122" lon="1.50351">
        <ele>100.11</ele>
        <time>2021-08-18T10:44:25Z</time>
      </trkpt>
      <trkpt lat="43.86124" lon="1.50349">
        <ele>100.11</ele>
        <time>2021-08-18T10:44:26Z</time>
      </trkpt>
      <trkpt lat="43.86126" lon="1.50347">
        <ele>100.11</ele>
        <time>2021-08-18T10:44:27Z</time>
      </trkpt>
      <trkpt lat="43.86127" lon="1.50347">
        <ele>100.11</ele>
        <time>2021-08-18T10:44:28Z</time>
      </trkpt>
      <trkpt lat="43.8613" lon="1.50346">
        <ele>100.11</ele>
        <time>2021-08-18T10:44:29Z</time>
      </trkpt>
      <trkpt lat="43.86132" lon="1.50345">
        <ele>100.11</ele>
        <time>2021-08-18T10:44:30Z</time>
      </trkpt>
      <trkpt lat="43.86135" lon="1.50345">
        <ele>100.11</ele>
        <time>2021-08-18T10:44:31Z</time>
      </trkpt>
      <trkpt lat="43.86137" lon="1.50346">
        <ele>100.11</ele>
        <time>2021-08-18T10:44:32Z</time>
      </trkpt>
      <trkpt lat="43.86139" lon="1.50349">
        <ele>100.11</ele>
        <time>2021-08-18T10:44:33Z</time>
      </trkpt>
      <trkpt lat="43.86141" lon="1.50353">
        <ele>100.11</ele>
        <time>2021-08-18T10:44:34Z</time>
      </trkpt>
      <trkpt lat="43.86143" lon="1.50357">
        <ele>100.11</ele>
        <time>2021-08-18T10:44:35Z</time>
      </trkpt>
      <trkpt lat="43.86146" lon="1.50362">
        <ele>100.11</ele>
        <time>2021-08-18T10:44:36Z</time>
      </trkpt>
      <trkpt lat="43.86175" lon="1.50407">
        <ele>100.11</ele>
        <time>2021-08-18T10:44:46Z</time>
      </trkpt>
      <trkpt lat="43.8618" lon="1.50416">
        <ele>100.11</ele>
        <time>2021-08-18T10:44:48Z</time>
      </trkpt>
      <trkpt lat="43.86183" lon="1.5042">
        <ele>100.6</ele>
        <time>2021-08-18T10:44:49Z</time>
      </trkpt>
      <trkpt lat="43.86186" lon="1.50424">
        <ele>100.6</ele>
        <time>2021-08-18T10:44:50Z</time>
      </trkpt>
      <trkpt lat="43.86188" lon="1.50428">
        <ele>100.6</ele>
        <time>2021-08-18T10:44:51Z</time>
      </trkpt>
      <trkpt lat="43.86189" lon="1.50432">
        <ele>100.6</ele>
        <time>2021-08-18T10:44:52Z</time>
      </trkpt>
      <trkpt lat="43.86191" lon="1.50436">
        <ele>100.6</ele>
        <time>2021-08-18T10:44:53Z</time>
      </trkpt>
      <trkpt lat="43.86192" lon="1.50439">
        <ele>101.08</ele>
        <time>2021-08-18T10:44:54Z</time>
      </trkpt>
      <trkpt lat="43.86207" lon="1.50467">
        <ele>101.08</ele>
        <time>2021-08-18T10:45:00Z</time>
      </trkpt>
      <trkpt lat="43.86221" lon="1.50489">
        <ele>101.08</ele>
        <time>2021-08-18T10:45:05Z</time>
      </trkpt>
      <trkpt lat="43.86223" lon="1.50494">
        <ele>101.08</ele>
        <time>2021-08-18T10:45:06Z</time>
      </trkpt>
      <trkpt lat="43.86247" lon="1.50534">
        <ele>101.08</ele>
        <time>2021-08-18T10:45:14Z</time>
      </trkpt>
      <trkpt lat="43.86277" lon="1.50586">
        <ele>101.08</ele>
        <time>2021-08-18T10:45:25Z</time>
      </trkpt>
      <trkpt lat="43.86282" lon="1.50596">
        <ele>101.08</ele>
        <time>2021-08-18T10:45:28Z</time>
      </trkpt>
      <trkpt lat="43.86284" lon="1.50595">
        <ele>101.08</ele>
        <time>2021-08-18T10:45:29Z</time>
      </trkpt>
      <trkpt lat="43.86285" lon="1.50594">
        <ele>101.08</ele>
        <time>2021-08-18T10:45:30Z</time>
      </trkpt>
      <trkpt lat="43.86291" lon="1.50586">
        <ele>101.08</ele>
        <time>2021-08-18T10:45:34Z</time>
      </trkpt>
      <trkpt lat="43.86307" lon="1.50569">
        <ele>100.11</ele>
        <time>2021-08-18T10:45:39Z</time>
      </trkpt>
      <trkpt lat="43.86326" lon="1.50557">
        <ele>99.15</ele>
        <time>2021-08-18T10:45:44Z</time>
      </trkpt>
      <trkpt lat="43.8633" lon="1.50555">
        <ele>99.15</ele>
        <time>2021-08-18T10:45:45Z</time>
      </trkpt>
      <trkpt lat="43.86334" lon="1.50552">
        <ele>99.15</ele>
        <time>2021-08-18T10:45:46Z</time>
      </trkpt>
      <trkpt lat="43.86337" lon="1.50549">
        <ele>98.67</ele>
        <time>2021-08-18T10:45:47Z</time>
      </trkpt>
      <trkpt lat="43.8634" lon="1.50546">
        <ele>98.67</ele>
        <time>2021-08-18T10:45:48Z</time>
      </trkpt>
      <trkpt lat="43.86372" lon="1.50509">
        <ele>98.67</ele>
        <time>2021-08-18T10:45:57Z</time>
      </trkpt>
      <trkpt lat="43.86376" lon="1.50505">
        <ele>98.67</ele>
        <time>2021-08-18T10:45:58Z</time>
      </trkpt>
      <trkpt lat="43.86387" lon="1.50494">
        <ele>98.67</ele>
        <time>2021-08-18T10:46:01Z</time>
      </trkpt>
      <trkpt lat="43.86391" lon="1.50489">
        <ele>98.67</ele>
        <time>2021-08-18T10:46:02Z</time>
      </trkpt>
      <trkpt lat="43.86394" lon="1.50485">
        <ele>98.67</ele>
        <time>2021-08-18T10:46:03Z</time>
      </trkpt>
      <trkpt lat="43.86398" lon="1.50481">
        <ele>98.67</ele>
        <time>2021-08-18T10:46:04Z</time>
      </trkpt>
      <trkpt lat="43.86402" lon="1.50477">
        <ele>98.67</ele>
        <time>2021-08-18T10:46:05Z</time>
      </trkpt>
      <trkpt lat="43.86414" lon="1.50465">
        <ele>98.67</ele>
        <time>2021-08-18T10:46:08Z</time>
      </trkpt>
      <trkpt lat="43.86418" lon="1.5046">
        <ele>98.67</ele>
        <time>2021-08-18T10:46:09Z</time>
      </trkpt>
      <trkpt lat="43.86422" lon="1.50455">
        <ele>98.67</ele>
        <time>2021-08-18T10:46:10Z</time>
      </trkpt>
      <trkpt lat="43.86425" lon="1.50452">
        <ele>98.67</ele>
        <time>2021-08-18T10:46:11Z</time>
      </trkpt>
      <trkpt lat="43.86428" lon="1.50448">
        <ele>98.67</ele>
        <time>2021-08-18T10:46:12Z</time>
      </trkpt>
      <trkpt lat="43.86448" lon="1.50434">
        <ele>98.67</ele>
        <time>2021-08-18T10:46:17Z</time>
      </trkpt>
      <trkpt lat="43.86452" lon="1.50431">
        <ele>98.67</ele>
        <time>2021-08-18T10:46:18Z</time>
      </trkpt>
      <trkpt lat="43.86483" lon="1.50403">
        <ele>98.19</ele>
        <time>2021-08-18T10:46:25Z</time>
      </trkpt>
      <trkpt lat="43.86522" lon="1.50371">
        <ele>98.19</ele>
        <time>2021-08-18T10:46:34Z</time>
      </trkpt>
      <trkpt lat="43.86558" lon="1.50331">
        <ele>98.19</ele>
        <time>2021-08-18T10:46:44Z</time>
      </trkpt>
      <trkpt lat="43.86587" lon="1.50302">
        <ele>97.23</ele>
        <time>2021-08-18T10:46:51Z</time>
      </trkpt>
      <trkpt lat="43.86596" lon="1.50295">
        <ele>97.23</ele>
        <time>2021-08-18T10:46:53Z</time>
      </trkpt>
      <trkpt lat="43.866" lon="1.5029">
        <ele>97.23</ele>
        <time>2021-08-18T10:46:54Z</time>
      </trkpt>
      <trkpt lat="43.86607" lon="1.50281">
        <ele>97.23</ele>
        <time>2021-08-18T10:46:56Z</time>
      </trkpt>
      <trkpt lat="43.8661" lon="1.50277">
        <ele>97.23</ele>
        <time>2021-08-18T10:46:57Z</time>
      </trkpt>
      <trkpt lat="43.86626" lon="1.50263">
        <ele>97.23</ele>
        <time>2021-08-18T10:47:01Z</time>
      </trkpt>
      <trkpt lat="43.86654" lon="1.50236">
        <ele>96.75</ele>
        <time>2021-08-18T10:47:09Z</time>
      </trkpt>
      <trkpt lat="43.86666" lon="1.50226">
        <ele>96.75</ele>
        <time>2021-08-18T10:47:12Z</time>
      </trkpt>
      <trkpt lat="43.8667" lon="1.50222">
        <ele>96.75</ele>
        <time>2021-08-18T10:47:13Z</time>
      </trkpt>
      <trkpt lat="43.86677" lon="1.50214">
        <ele>96.75</ele>
        <time>2021-08-18T10:47:15Z</time>
      </trkpt>
      <trkpt lat="43.86681" lon="1.50211">
        <ele>96.75</ele>
        <time>2021-08-18T10:47:16Z</time>
      </trkpt>
      <trkpt lat="43.86693" lon="1.502">
        <ele>98.19</ele>
        <time>2021-08-18T10:47:19Z</time>
      </trkpt>
      <trkpt lat="43.86734" lon="1.50162">
        <ele>98.19</ele>
        <time>2021-08-18T10:47:29Z</time>
      </trkpt>
      <trkpt lat="43.86741" lon="1.50153">
        <ele>98.19</ele>
        <time>2021-08-18T10:47:31Z</time>
      </trkpt>
      <trkpt lat="43.86777" lon="1.5011">
        <ele>99.63</ele>
        <time>2021-08-18T10:47:41Z</time>
      </trkpt>
      <trkpt lat="43.86796" lon="1.50086">
        <ele>102.04</ele>
        <time>2021-08-18T10:47:49Z</time>
      </trkpt>
      <trkpt lat="43.86799" lon="1.50067">
        <ele>102.52</ele>
        <time>2021-08-18T10:47:54Z</time>
      </trkpt>
      <trkpt lat="43.86787" lon="1.50036">
        <ele>103.96</ele>
        <time>2021-08-18T10:48:01Z</time>
      </trkpt>
      <trkpt lat="43.86774" lon="1.50001">
        <ele>103.48</ele>
        <time>2021-08-18T10:48:08Z</time>
      </trkpt>
      <trkpt lat="43.86751" lon="1.49944">
        <ele>103.48</ele>
        <time>2021-08-18T10:48:19Z</time>
      </trkpt>
      <trkpt lat="43.86746" lon="1.49932">
        <ele>103.48</ele>
        <time>2021-08-18T10:48:21Z</time>
      </trkpt>
      <trkpt lat="43.86744" lon="1.49926">
        <ele>103.48</ele>
        <time>2021-08-18T10:48:22Z</time>
      </trkpt>
      <trkpt lat="43.86722" lon="1.49873">
        <ele>102.04</ele>
        <time>2021-08-18T10:48:30Z</time>
      </trkpt>
      <trkpt lat="43.86704" lon="1.4982">
        <ele>99.15</ele>
        <time>2021-08-18T10:48:36Z</time>
      </trkpt>
      <trkpt lat="43.86702" lon="1.4981">
        <ele>98.67</ele>
        <time>2021-08-18T10:48:37Z</time>
      </trkpt>
      <trkpt lat="43.86701" lon="1.498">
        <ele>98.67</ele>
        <time>2021-08-18T10:48:38Z</time>
      </trkpt>
      <trkpt lat="43.86701" lon="1.49788">
        <ele>98.19</ele>
        <time>2021-08-18T10:48:39Z</time>
      </trkpt>
      <trkpt lat="43.867" lon="1.49777">
        <ele>98.19</ele>
        <time>2021-08-18T10:48:40Z</time>
      </trkpt>
      <trkpt lat="43.86698" lon="1.4977">
        <ele>98.19</ele>
        <time>2021-08-18T10:48:41Z</time>
      </trkpt>
      <trkpt lat="43.86692" lon="1.49763">
        <ele>98.19</ele>
        <time>2021-08-18T10:48:42Z</time>
      </trkpt>
      <trkpt lat="43.86687" lon="1.49759">
        <ele>98.19</ele>
        <time>2021-08-18T10:48:43Z</time>
      </trkpt>
      <trkpt lat="43.86682" lon="1.49755">
        <ele>98.19</ele>
        <time>2021-08-18T10:48:44Z</time>
      </trkpt>
      <trkpt lat="43.86678" lon="1.49749">
        <ele>98.19</ele>
        <time>2021-08-18T10:48:45Z</time>
      </trkpt>
      <trkpt lat="43.86674" lon="1.49741">
        <ele>98.19</ele>
        <time>2021-08-18T10:48:46Z</time>
      </trkpt>
      <trkpt lat="43.86672" lon="1.49735">
        <ele>98.19</ele>
        <time>2021-08-18T10:48:47Z</time>
      </trkpt>
      <trkpt lat="43.8666" lon="1.497">
        <ele>100.11</ele>
        <time>2021-08-18T10:48:52Z</time>
      </trkpt>
      <trkpt lat="43.86655" lon="1.49687">
        <ele>100.11</ele>
        <time>2021-08-18T10:48:54Z</time>
      </trkpt>
      <trkpt lat="43.86629" lon="1.49633">
        <ele>100.11</ele>
        <time>2021-08-18T10:49:03Z</time>
      </trkpt>
      <trkpt lat="43.86595" lon="1.49572">
        <ele>100.11</ele>
        <time>2021-08-18T10:49:13Z</time>
      </trkpt>
      <trkpt lat="43.86565" lon="1.49516">
        <ele>100.11</ele>
        <time>2021-08-18T10:49:22Z</time>
      </trkpt>
      <trkpt lat="43.86531" lon="1.49456">
        <ele>100.11</ele>
        <time>2021-08-18T10:49:31Z</time>
      </trkpt>
      <trkpt lat="43.86499" lon="1.49392">
        <ele>100.11</ele>
        <time>2021-08-18T10:49:40Z</time>
      </trkpt>
      <trkpt lat="43.86468" lon="1.49335">
        <ele>100.11</ele>
        <time>2021-08-18T10:49:49Z</time>
      </trkpt>
      <trkpt lat="43.86447" lon="1.49295">
        <ele>100.11</ele>
        <time>2021-08-18T10:49:55Z</time>
      </trkpt>
      <trkpt lat="43.86441" lon="1.4928">
        <ele>100.11</ele>
        <time>2021-08-18T10:49:57Z</time>
      </trkpt>
      <trkpt lat="43.86411" lon="1.4923">
        <ele>100.11</ele>
        <time>2021-08-18T10:50:05Z</time>
      </trkpt>
      <trkpt lat="43.86367" lon="1.49149">
        <ele>99.63</ele>
        <time>2021-08-18T10:50:18Z</time>
      </trkpt>
      <trkpt lat="43.86336" lon="1.49088">
        <ele>99.63</ele>
        <time>2021-08-18T10:50:27Z</time>
      </trkpt>
      <trkpt lat="43.86288" lon="1.49001">
        <ele>99.63</ele>
        <time>2021-08-18T10:50:40Z</time>
      </trkpt>
      <trkpt lat="43.86264" lon="1.48956">
        <ele>100.11</ele>
        <time>2021-08-18T10:50:47Z</time>
      </trkpt>
      <trkpt lat="43.86241" lon="1.48913">
        <ele>100.6</ele>
        <time>2021-08-18T10:50:54Z</time>
      </trkpt>
      <trkpt lat="43.86219" lon="1.48874">
        <ele>100.11</ele>
        <time>2021-08-18T10:51:02Z</time>
      </trkpt>
      <trkpt lat="43.86193" lon="1.48826">
        <ele>100.11</ele>
        <time>2021-08-18T10:51:11Z</time>
      </trkpt>
      <trkpt lat="43.86166" lon="1.48774">
        <ele>100.6</ele>
        <time>2021-08-18T10:51:20Z</time>
      </trkpt>
      <trkpt lat="43.86129" lon="1.48706">
        <ele>100.6</ele>
        <time>2021-08-18T10:51:31Z</time>
      </trkpt>
      <trkpt lat="43.86096" lon="1.48645">
        <ele>101.08</ele>
        <time>2021-08-18T10:51:41Z</time>
      </trkpt>
      <trkpt lat="43.86072" lon="1.486">
        <ele>103</ele>
        <time>2021-08-18T10:51:50Z</time>
      </trkpt>
      <trkpt lat="43.86045" lon="1.48545">
        <ele>103</ele>
        <time>2021-08-18T10:52:00Z</time>
      </trkpt>
      <trkpt lat="43.86043" lon="1.48538">
        <ele>103</ele>
        <time>2021-08-18T10:52:01Z</time>
      </trkpt>
      <trkpt lat="43.86019" lon="1.48474">
        <ele>103</ele>
        <time>2021-08-18T10:52:11Z</time>
      </trkpt>
      <trkpt lat="43.85998" lon="1.48416">
        <ele>103.96</ele>
        <time>2021-08-18T10:52:21Z</time>
      </trkpt>
      <trkpt lat="43.85985" lon="1.48382">
        <ele>104.92</ele>
        <time>2021-08-18T10:52:29Z</time>
      </trkpt>
      <trkpt lat="43.85971" lon="1.48346">
        <ele>106.36</ele>
        <time>2021-08-18T10:52:39Z</time>
      </trkpt>
      <trkpt lat="43.85963" lon="1.48321">
        <ele>107.32</ele>
        <time>2021-08-18T10:52:46Z</time>
      </trkpt>
      <trkpt lat="43.8596" lon="1.48297">
        <ele>107.81</ele>
        <time>2021-08-18T10:52:52Z</time>
      </trkpt>
      <trkpt lat="43.85948" lon="1.48275">
        <ele>108.29</ele>
        <time>2021-08-18T10:52:58Z</time>
      </trkpt>
      <trkpt lat="43.85925" lon="1.48242">
        <ele>108.77</ele>
        <time>2021-08-18T10:53:07Z</time>
      </trkpt>
      <trkpt lat="43.85922" lon="1.48238">
        <ele>108.77</ele>
        <time>2021-08-18T10:53:08Z</time>
      </trkpt>
      <trkpt lat="43.85897" lon="1.48194">
        <ele>108.77</ele>
        <time>2021-08-18T10:53:17Z</time>
      </trkpt>
      <trkpt lat="43.85895" lon="1.48187">
        <ele>108.77</ele>
        <time>2021-08-18T10:53:19Z</time>
      </trkpt>
      <trkpt lat="43.85893" lon="1.48186">
        <ele>108.77</ele>
        <time>2021-08-18T10:53:24Z</time>
      </trkpt>
      <trkpt lat="43.85893" lon="1.48187">
        <ele>108.77</ele>
        <time>2021-08-18T10:53:41Z</time>
      </trkpt>
      <trkpt lat="43.8589" lon="1.48187">
        <ele>108.77</ele>
        <time>2021-08-18T10:54:02Z</time>
      </trkpt>
      <trkpt lat="43.85889" lon="1.48187">
        <ele>108.77</ele>
        <time>2021-08-18T10:54:03Z</time>
      </trkpt>
      <trkpt lat="43.8589" lon="1.48193">
        <ele>108.77</ele>
        <time>2021-08-18T10:54:06Z</time>
      </trkpt>
      <trkpt lat="43.85892" lon="1.48196">
        <ele>108.77</ele>
        <time>2021-08-18T10:54:07Z</time>
      </trkpt>
      <trkpt lat="43.85894" lon="1.48199">
        <ele>108.77</ele>
        <time>2021-08-18T10:54:08Z</time>
      </trkpt>
      <trkpt lat="43.85905" lon="1.48215">
        <ele>108.77</ele>
        <time>2021-08-18T10:54:12Z</time>
      </trkpt>
      <trkpt lat="43.85929" lon="1.48247">
        <ele>108.77</ele>
        <time>2021-08-18T10:54:20Z</time>
      </trkpt>
      <trkpt lat="43.85933" lon="1.48245">
        <ele>108.77</ele>
        <time>2021-08-18T10:54:21Z</time>
      </trkpt>
      <trkpt lat="43.85936" lon="1.48243">
        <ele>108.77</ele>
        <time>2021-08-18T10:54:22Z</time>
      </trkpt>
      <trkpt lat="43.85939" lon="1.4824">
        <ele>108.77</ele>
        <time>2021-08-18T10:54:23Z</time>
      </trkpt>
      <trkpt lat="43.85942" lon="1.48237">
        <ele>108.77</ele>
        <time>2021-08-18T10:54:24Z</time>
      </trkpt>
      <trkpt lat="43.85953" lon="1.48226">
        <ele>108.77</ele>
        <time>2021-08-18T10:54:28Z</time>
      </trkpt>
      <trkpt lat="43.85956" lon="1.48226">
        <ele>108.77</ele>
        <time>2021-08-18T10:54:29Z</time>
      </trkpt>
      <trkpt lat="43.85959" lon="1.48226">
        <ele>108.77</ele>
        <time>2021-08-18T10:54:30Z</time>
      </trkpt>
      <trkpt lat="43.85963" lon="1.48235">
        <ele>108.77</ele>
        <time>2021-08-18T10:54:35Z</time>
      </trkpt>
      <trkpt lat="43.85957" lon="1.48234">
        <ele>108.77</ele>
        <time>2021-08-18T10:54:40Z</time>
      </trkpt>
      <trkpt lat="43.8596" lon="1.48225">
        <ele>108.77</ele>
        <time>2021-08-18T10:54:44Z</time>
      </trkpt>
      <trkpt lat="43.8596" lon="1.48222">
        <ele>108.77</ele>
        <time>2021-08-18T10:54:45Z</time>
      </trkpt>
      <trkpt lat="43.85959" lon="1.48219">
        <ele>108.77</ele>
        <time>2021-08-18T10:54:46Z</time>
      </trkpt>
      <trkpt lat="43.85959" lon="1.48216">
        <ele>108.77</ele>
        <time>2021-08-18T10:54:47Z</time>
      </trkpt>
      <trkpt lat="43.85958" lon="1.48213">
        <ele>108.77</ele>
        <time>2021-08-18T10:54:48Z</time>
      </trkpt>
      <trkpt lat="43.85957" lon="1.48211">
        <ele>108.77</ele>
        <time>2021-08-18T10:54:49Z</time>
      </trkpt>
      <trkpt lat="43.85958" lon="1.48208">
        <ele>108.77</ele>
        <time>2021-08-18T10:54:50Z</time>
      </trkpt>
      <trkpt lat="43.85959" lon="1.48205">
        <ele>108.77</ele>
        <time>2021-08-18T10:54:51Z</time>
      </trkpt>
      <trkpt lat="43.8596" lon="1.48203">
        <ele>108.77</ele>
        <time>2021-08-18T10:54:52Z</time>
      </trkpt>
      <trkpt lat="43.85961" lon="1.48201">
        <ele>108.77</ele>
        <time>2021-08-18T10:54:53Z</time>
      </trkpt>
      <trkpt lat="43.85961" lon="1.48199">
        <ele>108.77</ele>
        <time>2021-08-18T10:54:54Z</time>
      </trkpt>
      <trkpt lat="43.8596" lon="1.48197">
        <ele>108.77</ele>
        <time>2021-08-18T10:54:55Z</time>
      </trkpt>
      <trkpt lat="43.85959" lon="1.48198">
        <ele>108.77</ele>
        <time>2021-08-18T10:54:59Z</time>
      </trkpt>
      <trkpt lat="43.8596" lon="1.48198">
        <ele>108.77</ele>
        <time>2021-08-18T10:55:00Z</time>
      </trkpt>
      <trkpt lat="43.85962" lon="1.48198">
        <ele>108.77</ele>
        <time>2021-08-18T10:55:01Z</time>
      </trkpt>
      <trkpt lat="43.85966" lon="1.48197">
        <ele>108.77</ele>
        <time>2021-08-18T10:55:05Z</time>
      </trkpt>
      <trkpt lat="43.85961" lon="1.48194">
        <ele>108.77</ele>
        <time>2021-08-18T10:55:09Z</time>
      </trkpt>
      <trkpt lat="43.85959" lon="1.48191">
        <ele>108.77</ele>
        <time>2021-08-18T10:55:10Z</time>
      </trkpt>
      <trkpt lat="43.85956" lon="1.48188">
        <ele>108.77</ele>
        <time>2021-08-18T10:55:11Z</time>
      </trkpt>
      <trkpt lat="43.85954" lon="1.48186">
        <ele>108.77</ele>
        <time>2021-08-18T10:55:12Z</time>
      </trkpt>
      <trkpt lat="43.85951" lon="1.48183">
        <ele>108.77</ele>
        <time>2021-08-18T10:55:13Z</time>
      </trkpt>
      <trkpt lat="43.85949" lon="1.4818">
        <ele>108.77</ele>
        <time>2021-08-18T10:55:14Z</time>
      </trkpt>
      <trkpt lat="43.85948" lon="1.48175">
        <ele>108.77</ele>
        <time>2021-08-18T10:55:15Z</time>
      </trkpt>
      <trkpt lat="43.85948" lon="1.4817">
        <ele>108.77</ele>
        <time>2021-08-18T10:55:16Z</time>
      </trkpt>
      <trkpt lat="43.85947" lon="1.48165">
        <ele>108.77</ele>
        <time>2021-08-18T10:55:17Z</time>
      </trkpt>
      <trkpt lat="43.85946" lon="1.48144">
        <ele>108.77</ele>
        <time>2021-08-18T10:55:21Z</time>
      </trkpt>
      <trkpt lat="43.85946" lon="1.48138">
        <ele>108.77</ele>
        <time>2021-08-18T10:55:22Z</time>
      </trkpt>
      <trkpt lat="43.8594" lon="1.48093">
        <ele>107.32</ele>
        <time>2021-08-18T10:55:29Z</time>
      </trkpt>
      <trkpt lat="43.85929" lon="1.48038">
        <ele>107.32</ele>
        <time>2021-08-18T10:55:37Z</time>
      </trkpt>
      <trkpt lat="43.85913" lon="1.47974">
        <ele>107.32</ele>
        <time>2021-08-18T10:55:46Z</time>
      </trkpt>
      <trkpt lat="43.85896" lon="1.47902">
        <ele>107.32</ele>
        <time>2021-08-18T10:55:56Z</time>
      </trkpt>
      <trkpt lat="43.85888" lon="1.4786">
        <ele>107.32</ele>
        <time>2021-08-18T10:56:02Z</time>
      </trkpt>
      <trkpt lat="43.85886" lon="1.47847">
        <ele>107.32</ele>
        <time>2021-08-18T10:56:04Z</time>
      </trkpt>
      <trkpt lat="43.85875" lon="1.47786">
        <ele>107.32</ele>
        <time>2021-08-18T10:56:12Z</time>
      </trkpt>
      <trkpt lat="43.85861" lon="1.47714">
        <ele>106.84</ele>
        <time>2021-08-18T10:56:21Z</time>
      </trkpt>
      <trkpt lat="43.85851" lon="1.47653">
        <ele>106.84</ele>
        <time>2021-08-18T10:56:29Z</time>
      </trkpt>
      <trkpt lat="43.85835" lon="1.47564">
        <ele>106.36</ele>
        <time>2021-08-18T10:56:41Z</time>
      </trkpt>
      <trkpt lat="43.85821" lon="1.47505">
        <ele>106.36</ele>
        <time>2021-08-18T10:56:49Z</time>
      </trkpt>
      <trkpt lat="43.858" lon="1.47443">
        <ele>106.36</ele>
        <time>2021-08-18T10:56:58Z</time>
      </trkpt>
      <trkpt lat="43.85782" lon="1.47399">
        <ele>106.36</ele>
        <time>2021-08-18T10:57:05Z</time>
      </trkpt>
      <trkpt lat="43.85779" lon="1.47392">
        <ele>106.36</ele>
        <time>2021-08-18T10:57:06Z</time>
      </trkpt>
      <trkpt lat="43.85745" lon="1.47335">
        <ele>106.36</ele>
        <time>2021-08-18T10:57:15Z</time>
      </trkpt>
      <trkpt lat="43.85716" lon="1.47287">
        <ele>106.36</ele>
        <time>2021-08-18T10:57:23Z</time>
      </trkpt>
      <trkpt lat="43.85681" lon="1.47223">
        <ele>106.36</ele>
        <time>2021-08-18T10:57:33Z</time>
      </trkpt>
      <trkpt lat="43.85657" lon="1.47176">
        <ele>106.36</ele>
        <time>2021-08-18T10:57:40Z</time>
      </trkpt>
      <trkpt lat="43.85648" lon="1.47156">
        <ele>107.81</ele>
        <time>2021-08-18T10:57:43Z</time>
      </trkpt>
      <trkpt lat="43.85628" lon="1.4711">
        <ele>107.81</ele>
        <time>2021-08-18T10:57:50Z</time>
      </trkpt>
      <trkpt lat="43.85599" lon="1.47026">
        <ele>107.81</ele>
        <time>2021-08-18T10:58:02Z</time>
      </trkpt>
      <trkpt lat="43.85572" lon="1.46925">
        <ele>107.81</ele>
        <time>2021-08-18T10:58:16Z</time>
      </trkpt>
      <trkpt lat="43.85562" lon="1.46899">
        <ele>107.81</ele>
        <time>2021-08-18T10:58:20Z</time>
      </trkpt>
      <trkpt lat="43.85559" lon="1.46893">
        <ele>107.81</ele>
        <time>2021-08-18T10:58:21Z</time>
      </trkpt>
      <trkpt lat="43.85547" lon="1.46873">
        <ele>107.81</ele>
        <time>2021-08-18T10:58:25Z</time>
      </trkpt>
      <trkpt lat="43.85524" lon="1.46837">
        <ele>107.81</ele>
        <time>2021-08-18T10:58:33Z</time>
      </trkpt>
      <trkpt lat="43.85489" lon="1.46785">
        <ele>107.81</ele>
        <time>2021-08-18T10:58:43Z</time>
      </trkpt>
      <trkpt lat="43.85472" lon="1.46759">
        <ele>107.81</ele>
        <time>2021-08-18T10:58:48Z</time>
      </trkpt>
      <trkpt lat="43.85466" lon="1.4675">
        <ele>107.81</ele>
        <time>2021-08-18T10:58:50Z</time>
      </trkpt>
      <trkpt lat="43.85459" lon="1.46742">
        <ele>107.81</ele>
        <time>2021-08-18T10:58:52Z</time>
      </trkpt>
      <trkpt lat="43.85433" lon="1.46701">
        <ele>107.81</ele>
        <time>2021-08-18T10:59:00Z</time>
      </trkpt>
      <trkpt lat="43.8539" lon="1.46643">
        <ele>107.81</ele>
        <time>2021-08-18T10:59:11Z</time>
      </trkpt>
      <trkpt lat="43.85348" lon="1.46603">
        <ele>106.84</ele>
        <time>2021-08-18T10:59:20Z</time>
      </trkpt>
      <trkpt lat="43.85318" lon="1.46573">
        <ele>106.84</ele>
        <time>2021-08-18T10:59:27Z</time>
      </trkpt>
      <trkpt lat="43.85311" lon="1.46563">
        <ele>106.84</ele>
        <time>2021-08-18T10:59:29Z</time>
      </trkpt>
      <trkpt lat="43.85307" lon="1.46559">
        <ele>106.84</ele>
        <time>2021-08-18T10:59:30Z</time>
      </trkpt>
      <trkpt lat="43.85272" lon="1.46499">
        <ele>106.84</ele>
        <time>2021-08-18T10:59:41Z</time>
      </trkpt>
      <trkpt lat="43.85244" lon="1.46446">
        <ele>106.84</ele>
        <time>2021-08-18T10:59:50Z</time>
      </trkpt>
      <trkpt lat="43.85224" lon="1.46411">
        <ele>106.84</ele>
        <time>2021-08-18T10:59:56Z</time>
      </trkpt>
      <trkpt lat="43.85198" lon="1.46358">
        <ele>106.36</ele>
        <time>2021-08-18T11:00:05Z</time>
      </trkpt>
      <trkpt lat="43.85174" lon="1.46315">
        <ele>107.81</ele>
        <time>2021-08-18T11:00:13Z</time>
      </trkpt>
      <trkpt lat="43.85149" lon="1.46271">
        <ele>107.81</ele>
        <time>2021-08-18T11:00:22Z</time>
      </trkpt>
      <trkpt lat="43.85134" lon="1.46247">
        <ele>108.29</ele>
        <time>2021-08-18T11:00:27Z</time>
      </trkpt>
      <trkpt lat="43.85132" lon="1.46243">
        <ele>108.29</ele>
        <time>2021-08-18T11:00:28Z</time>
      </trkpt>
      <trkpt lat="43.85103" lon="1.46204">
        <ele>108.77</ele>
        <time>2021-08-18T11:00:37Z</time>
      </trkpt>
      <trkpt lat="43.85081" lon="1.46174">
        <ele>109.25</ele>
        <time>2021-08-18T11:00:44Z</time>
      </trkpt>
      <trkpt lat="43.85074" lon="1.46166">
        <ele>109.25</ele>
        <time>2021-08-18T11:00:46Z</time>
      </trkpt>
      <trkpt lat="43.85053" lon="1.46135">
        <ele>110.21</ele>
        <time>2021-08-18T11:00:54Z</time>
      </trkpt>
      <trkpt lat="43.85035" lon="1.46109">
        <ele>111.17</ele>
        <time>2021-08-18T11:01:01Z</time>
      </trkpt>
      <trkpt lat="43.85021" lon="1.46092">
        <ele>112.13</ele>
        <time>2021-08-18T11:01:08Z</time>
      </trkpt>
      <trkpt lat="43.85014" lon="1.46081">
        <ele>112.61</ele>
        <time>2021-08-18T11:01:12Z</time>
      </trkpt>
      <trkpt lat="43.85014" lon="1.46077">
        <ele>113.09</ele>
        <time>2021-08-18T11:01:13Z</time>
      </trkpt>
      <trkpt lat="43.85017" lon="1.46075">
        <ele>113.09</ele>
        <time>2021-08-18T11:01:14Z</time>
      </trkpt>
      <trkpt lat="43.85037" lon="1.46069">
        <ele>113.57</ele>
        <time>2021-08-18T11:01:20Z</time>
      </trkpt>
      <trkpt lat="43.85041" lon="1.46067">
        <ele>113.57</ele>
        <time>2021-08-18T11:01:21Z</time>
      </trkpt>
      <trkpt lat="43.85045" lon="1.46065">
        <ele>113.57</ele>
        <time>2021-08-18T11:01:22Z</time>
      </trkpt>
      <trkpt lat="43.85058" lon="1.46059">
        <ele>113.57</ele>
        <time>2021-08-18T11:01:25Z</time>
      </trkpt>
      <trkpt lat="43.85061" lon="1.46055">
        <ele>113.57</ele>
        <time>2021-08-18T11:01:26Z</time>
      </trkpt>
      <trkpt lat="43.85063" lon="1.4605">
        <ele>113.57</ele>
        <time>2021-08-18T11:01:27Z</time>
      </trkpt>
      <trkpt lat="43.85064" lon="1.46044">
        <ele>113.57</ele>
        <time>2021-08-18T11:01:28Z</time>
      </trkpt>
      <trkpt lat="43.85063" lon="1.46038">
        <ele>113.57</ele>
        <time>2021-08-18T11:01:29Z</time>
      </trkpt>
      <trkpt lat="43.85061" lon="1.46032">
        <ele>113.57</ele>
        <time>2021-08-18T11:01:30Z</time>
      </trkpt>
      <trkpt lat="43.85059" lon="1.46028">
        <ele>113.57</ele>
        <time>2021-08-18T11:01:31Z</time>
      </trkpt>
      <trkpt lat="43.85056" lon="1.46023">
        <ele>113.57</ele>
        <time>2021-08-18T11:01:32Z</time>
      </trkpt>
      <trkpt lat="43.85035" lon="1.45988">
        <ele>113.57</ele>
        <time>2021-08-18T11:01:40Z</time>
      </trkpt>
      <trkpt lat="43.85019" lon="1.45962">
        <ele>113.57</ele>
        <time>2021-08-18T11:01:46Z</time>
      </trkpt>
      <trkpt lat="43.85013" lon="1.45954">
        <ele>113.57</ele>
        <time>2021-08-18T11:01:48Z</time>
      </trkpt>
      <trkpt lat="43.8501" lon="1.45949">
        <ele>114.05</ele>
        <time>2021-08-18T11:01:49Z</time>
      </trkpt>
      <trkpt lat="43.8498" lon="1.45905">
        <ele>114.05</ele>
        <time>2021-08-18T11:01:59Z</time>
      </trkpt>
      <trkpt lat="43.84954" lon="1.45863">
        <ele>114.05</ele>
        <time>2021-08-18T11:02:07Z</time>
      </trkpt>
      <trkpt lat="43.84946" lon="1.45852">
        <ele>114.05</ele>
        <time>2021-08-18T11:02:09Z</time>
      </trkpt>
      <trkpt lat="43.84943" lon="1.45847">
        <ele>114.05</ele>
        <time>2021-08-18T11:02:10Z</time>
      </trkpt>
      <trkpt lat="43.84928" lon="1.45826">
        <ele>114.05</ele>
        <time>2021-08-18T11:02:14Z</time>
      </trkpt>
      <trkpt lat="43.84908" lon="1.45797">
        <ele>114.05</ele>
        <time>2021-08-18T11:02:21Z</time>
      </trkpt>
      <trkpt lat="43.8488" lon="1.45757">
        <ele>114.05</ele>
        <time>2021-08-18T11:02:30Z</time>
      </trkpt>
      <trkpt lat="43.84852" lon="1.45718">
        <ele>114.05</ele>
        <time>2021-08-18T11:02:38Z</time>
      </trkpt>
      <trkpt lat="43.84824" lon="1.45673">
        <ele>114.05</ele>
        <time>2021-08-18T11:02:46Z</time>
      </trkpt>
      <trkpt lat="43.84818" lon="1.4566">
        <ele>112.61</ele>
        <time>2021-08-18T11:02:48Z</time>
      </trkpt>
      <trkpt lat="43.84789" lon="1.45601">
        <ele>112.61</ele>
        <time>2021-08-18T11:02:57Z</time>
      </trkpt>
      <trkpt lat="43.84759" lon="1.45543">
        <ele>112.61</ele>
        <time>2021-08-18T11:03:06Z</time>
      </trkpt>
      <trkpt lat="43.84728" lon="1.45485">
        <ele>112.61</ele>
        <time>2021-08-18T11:03:16Z</time>
      </trkpt>
      <trkpt lat="43.84703" lon="1.45439">
        <ele>114.05</ele>
        <time>2021-08-18T11:03:24Z</time>
      </trkpt>
      <trkpt lat="43.84682" lon="1.454">
        <ele>115.01</ele>
        <time>2021-08-18T11:03:31Z</time>
      </trkpt>
      <trkpt lat="43.84675" lon="1.4539">
        <ele>115.5</ele>
        <time>2021-08-18T11:03:33Z</time>
      </trkpt>
      <trkpt lat="43.84672" lon="1.45387">
        <ele>115.5</ele>
        <time>2021-08-18T11:03:34Z</time>
      </trkpt>
      <trkpt lat="43.84669" lon="1.45384">
        <ele>115.5</ele>
        <time>2021-08-18T11:03:35Z</time>
      </trkpt>
      <trkpt lat="43.84665" lon="1.45382">
        <ele>115.98</ele>
        <time>2021-08-18T11:03:36Z</time>
      </trkpt>
      <trkpt lat="43.84662" lon="1.45379">
        <ele>115.98</ele>
        <time>2021-08-18T11:03:37Z</time>
      </trkpt>
      <trkpt lat="43.84659" lon="1.45377">
        <ele>115.98</ele>
        <time>2021-08-18T11:03:38Z</time>
      </trkpt>
      <trkpt lat="43.84656" lon="1.45374">
        <ele>115.98</ele>
        <time>2021-08-18T11:03:39Z</time>
      </trkpt>
      <trkpt lat="43.84652" lon="1.45371">
        <ele>116.46</ele>
        <time>2021-08-18T11:03:40Z</time>
      </trkpt>
      <trkpt lat="43.84619" lon="1.45346">
        <ele>117.9</ele>
        <time>2021-08-18T11:03:49Z</time>
      </trkpt>
      <trkpt lat="43.84591" lon="1.45325">
        <ele>117.9</ele>
        <time>2021-08-18T11:03:56Z</time>
      </trkpt>
      <trkpt lat="43.84548" lon="1.45291">
        <ele>117.9</ele>
        <time>2021-08-18T11:04:05Z</time>
      </trkpt>
      <trkpt lat="43.845" lon="1.4525">
        <ele>116.46</ele>
        <time>2021-08-18T11:04:15Z</time>
      </trkpt>
      <trkpt lat="43.84473" lon="1.45219">
        <ele>116.46</ele>
        <time>2021-08-18T11:04:22Z</time>
      </trkpt>
      <trkpt lat="43.84461" lon="1.452">
        <ele>116.46</ele>
        <time>2021-08-18T11:04:26Z</time>
      </trkpt>
      <trkpt lat="43.84459" lon="1.45194">
        <ele>116.46</ele>
        <time>2021-08-18T11:04:27Z</time>
      </trkpt>
      <trkpt lat="43.84458" lon="1.45187">
        <ele>117.9</ele>
        <time>2021-08-18T11:04:28Z</time>
      </trkpt>
      <trkpt lat="43.84459" lon="1.45181">
        <ele>117.9</ele>
        <time>2021-08-18T11:04:29Z</time>
      </trkpt>
      <trkpt lat="43.8446" lon="1.45175">
        <ele>117.9</ele>
        <time>2021-08-18T11:04:30Z</time>
      </trkpt>
      <trkpt lat="43.84462" lon="1.45169">
        <ele>117.9</ele>
        <time>2021-08-18T11:04:31Z</time>
      </trkpt>
      <trkpt lat="43.84463" lon="1.45162">
        <ele>117.9</ele>
        <time>2021-08-18T11:04:32Z</time>
      </trkpt>
      <trkpt lat="43.84464" lon="1.45155">
        <ele>117.9</ele>
        <time>2021-08-18T11:04:33Z</time>
      </trkpt>
      <trkpt lat="43.84464" lon="1.45147">
        <ele>117.9</ele>
        <time>2021-08-18T11:04:34Z</time>
      </trkpt>
      <trkpt lat="43.84464" lon="1.4514">
        <ele>117.9</ele>
        <time>2021-08-18T11:04:35Z</time>
      </trkpt>
      <trkpt lat="43.84462" lon="1.45133">
        <ele>117.9</ele>
        <time>2021-08-18T11:04:36Z</time>
      </trkpt>
      <trkpt lat="43.8446" lon="1.45126">
        <ele>117.9</ele>
        <time>2021-08-18T11:04:37Z</time>
      </trkpt>
      <trkpt lat="43.84457" lon="1.4512">
        <ele>117.9</ele>
        <time>2021-08-18T11:04:38Z</time>
      </trkpt>
      <trkpt lat="43.84453" lon="1.45114">
        <ele>117.9</ele>
        <time>2021-08-18T11:04:39Z</time>
      </trkpt>
      <trkpt lat="43.84424" lon="1.45068">
        <ele>117.9</ele>
        <time>2021-08-18T11:04:47Z</time>
      </trkpt>
      <trkpt lat="43.84406" lon="1.4504">
        <ele>117.9</ele>
        <time>2021-08-18T11:04:52Z</time>
      </trkpt>
      <trkpt lat="43.84394" lon="1.4502">
        <ele>117.9</ele>
        <time>2021-08-18T11:04:56Z</time>
      </trkpt>
      <trkpt lat="43.84391" lon="1.45009">
        <ele>117.9</ele>
        <time>2021-08-18T11:04:58Z</time>
      </trkpt>
      <trkpt lat="43.84391" lon="1.45003">
        <ele>117.9</ele>
        <time>2021-08-18T11:04:59Z</time>
      </trkpt>
      <trkpt lat="43.84393" lon="1.44997">
        <ele>117.9</ele>
        <time>2021-08-18T11:05:00Z</time>
      </trkpt>
      <trkpt lat="43.84395" lon="1.44992">
        <ele>117.9</ele>
        <time>2021-08-18T11:05:01Z</time>
      </trkpt>
      <trkpt lat="43.84398" lon="1.44987">
        <ele>117.9</ele>
        <time>2021-08-18T11:05:02Z</time>
      </trkpt>
      <trkpt lat="43.84413" lon="1.44961">
        <ele>117.9</ele>
        <time>2021-08-18T11:05:07Z</time>
      </trkpt>
      <trkpt lat="43.84414" lon="1.44955">
        <ele>117.9</ele>
        <time>2021-08-18T11:05:08Z</time>
      </trkpt>
      <trkpt lat="43.84414" lon="1.4495">
        <ele>117.9</ele>
        <time>2021-08-18T11:05:09Z</time>
      </trkpt>
      <trkpt lat="43.84413" lon="1.44945">
        <ele>117.9</ele>
        <time>2021-08-18T11:05:10Z</time>
      </trkpt>
      <trkpt lat="43.84411" lon="1.4494">
        <ele>117.9</ele>
        <time>2021-08-18T11:05:11Z</time>
      </trkpt>
      <trkpt lat="43.84408" lon="1.44936">
        <ele>117.9</ele>
        <time>2021-08-18T11:05:12Z</time>
      </trkpt>
      <trkpt lat="43.84404" lon="1.44932">
        <ele>117.9</ele>
        <time>2021-08-18T11:05:13Z</time>
      </trkpt>
      <trkpt lat="43.84373" lon="1.44896">
        <ele>117.9</ele>
        <time>2021-08-18T11:05:21Z</time>
      </trkpt>
      <trkpt lat="43.84336" lon="1.44854">
        <ele>117.9</ele>
        <time>2021-08-18T11:05:30Z</time>
      </trkpt>
      <trkpt lat="43.84307" lon="1.44823">
        <ele>117.9</ele>
        <time>2021-08-18T11:05:37Z</time>
      </trkpt>
      <trkpt lat="43.84272" lon="1.44787">
        <ele>117.9</ele>
        <time>2021-08-18T11:05:45Z</time>
      </trkpt>
      <trkpt lat="43.84241" lon="1.44745">
        <ele>117.9</ele>
        <time>2021-08-18T11:05:54Z</time>
      </trkpt>
      <trkpt lat="43.84238" lon="1.4474">
        <ele>117.9</ele>
        <time>2021-08-18T11:05:55Z</time>
      </trkpt>
      <trkpt lat="43.84236" lon="1.44735">
        <ele>117.9</ele>
        <time>2021-08-18T11:05:56Z</time>
      </trkpt>
      <trkpt lat="43.84229" lon="1.44723">
        <ele>117.9</ele>
        <time>2021-08-18T11:05:58Z</time>
      </trkpt>
      <trkpt lat="43.84201" lon="1.44674">
        <ele>117.9</ele>
        <time>2021-08-18T11:06:07Z</time>
      </trkpt>
      <trkpt lat="43.84166" lon="1.44614">
        <ele>117.9</ele>
        <time>2021-08-18T11:06:18Z</time>
      </trkpt>
      <trkpt lat="43.84135" lon="1.44559">
        <ele>117.9</ele>
        <time>2021-08-18T11:06:28Z</time>
      </trkpt>
      <trkpt lat="43.8411" lon="1.44517">
        <ele>117.9</ele>
        <time>2021-08-18T11:06:36Z</time>
      </trkpt>
      <trkpt lat="43.84082" lon="1.44467">
        <ele>118.38</ele>
        <time>2021-08-18T11:06:45Z</time>
      </trkpt>
      <trkpt lat="43.8405" lon="1.44413">
        <ele>118.38</ele>
        <time>2021-08-18T11:06:55Z</time>
      </trkpt>
      <trkpt lat="43.84016" lon="1.44355">
        <ele>118.86</ele>
        <time>2021-08-18T11:07:06Z</time>
      </trkpt>
      <trkpt lat="43.83991" lon="1.44309">
        <ele>119.34</ele>
        <time>2021-08-18T11:07:15Z</time>
      </trkpt>
      <trkpt lat="43.83976" lon="1.44281">
        <ele>119.34</ele>
        <time>2021-08-18T11:07:20Z</time>
      </trkpt>
      <trkpt lat="43.83973" lon="1.44275">
        <ele>119.34</ele>
        <time>2021-08-18T11:07:21Z</time>
      </trkpt>
      <trkpt lat="43.83947" lon="1.44233">
        <ele>119.34</ele>
        <time>2021-08-18T11:07:29Z</time>
      </trkpt>
      <trkpt lat="43.83918" lon="1.44187">
        <ele>119.34</ele>
        <time>2021-08-18T11:07:38Z</time>
      </trkpt>
      <trkpt lat="43.83888" lon="1.44139">
        <ele>119.34</ele>
        <time>2021-08-18T11:07:47Z</time>
      </trkpt>
      <trkpt lat="43.83852" lon="1.44083">
        <ele>119.34</ele>
        <time>2021-08-18T11:07:58Z</time>
      </trkpt>
      <trkpt lat="43.83848" lon="1.44074">
        <ele>119.34</ele>
        <time>2021-08-18T11:08:00Z</time>
      </trkpt>
      <trkpt lat="43.83848" lon="1.44069">
        <ele>120.3</ele>
        <time>2021-08-18T11:08:01Z</time>
      </trkpt>
      <trkpt lat="43.8385" lon="1.44064">
        <ele>120.3</ele>
        <time>2021-08-18T11:08:02Z</time>
      </trkpt>
      <trkpt lat="43.83852" lon="1.4406">
        <ele>120.3</ele>
        <time>2021-08-18T11:08:03Z</time>
      </trkpt>
      <trkpt lat="43.83855" lon="1.44057">
        <ele>120.3</ele>
        <time>2021-08-18T11:08:04Z</time>
      </trkpt>
      <trkpt lat="43.83867" lon="1.44046">
        <ele>120.3</ele>
        <time>2021-08-18T11:08:07Z</time>
      </trkpt>
      <trkpt lat="43.83904" lon="1.44011">
        <ele>120.3</ele>
        <time>2021-08-18T11:08:16Z</time>
      </trkpt>
      <trkpt lat="43.83947" lon="1.43965">
        <ele>120.3</ele>
        <time>2021-08-18T11:08:26Z</time>
      </trkpt>
      <trkpt lat="43.83959" lon="1.43947">
        <ele>120.3</ele>
        <time>2021-08-18T11:08:29Z</time>
      </trkpt>
      <trkpt lat="43.83979" lon="1.43898">
        <ele>120.3</ele>
        <time>2021-08-18T11:08:36Z</time>
      </trkpt>
      <trkpt lat="43.83989" lon="1.43869">
        <ele>118.86</ele>
        <time>2021-08-18T11:08:40Z</time>
      </trkpt>
      <trkpt lat="43.83992" lon="1.43861">
        <ele>118.86</ele>
        <time>2021-08-18T11:08:41Z</time>
      </trkpt>
      <trkpt lat="43.83995" lon="1.43854">
        <ele>118.86</ele>
        <time>2021-08-18T11:08:42Z</time>
      </trkpt>
      <trkpt lat="43.84022" lon="1.43788">
        <ele>118.86</ele>
        <time>2021-08-18T11:08:51Z</time>
      </trkpt>
      <trkpt lat="43.84057" lon="1.43702">
        <ele>118.86</ele>
        <time>2021-08-18T11:09:03Z</time>
      </trkpt>
      <trkpt lat="43.84094" lon="1.43607">
        <ele>118.86</ele>
        <time>2021-08-18T11:09:16Z</time>
      </trkpt>
      <trkpt lat="43.84125" lon="1.43528">
        <ele>118.86</ele>
        <time>2021-08-18T11:09:27Z</time>
      </trkpt>
      <trkpt lat="43.84154" lon="1.43458">
        <ele>118.86</ele>
        <time>2021-08-18T11:09:37Z</time>
      </trkpt>
      <trkpt lat="43.8418" lon="1.43392">
        <ele>118.86</ele>
        <time>2021-08-18T11:09:47Z</time>
      </trkpt>
      <trkpt lat="43.84207" lon="1.43327">
        <ele>118.86</ele>
        <time>2021-08-18T11:09:57Z</time>
      </trkpt>
      <trkpt lat="43.8423" lon="1.43265">
        <ele>118.86</ele>
        <time>2021-08-18T11:10:07Z</time>
      </trkpt>
      <trkpt lat="43.84232" lon="1.43259">
        <ele>118.86</ele>
        <time>2021-08-18T11:10:08Z</time>
      </trkpt>
      <trkpt lat="43.84232" lon="1.43253">
        <ele>118.86</ele>
        <time>2021-08-18T11:10:09Z</time>
      </trkpt>
      <trkpt lat="43.84231" lon="1.43247">
        <ele>118.86</ele>
        <time>2021-08-18T11:10:10Z</time>
      </trkpt>
      <trkpt lat="43.84228" lon="1.43242">
        <ele>118.86</ele>
        <time>2021-08-18T11:10:11Z</time>
      </trkpt>
      <trkpt lat="43.84225" lon="1.43238">
        <ele>118.86</ele>
        <time>2021-08-18T11:10:12Z</time>
      </trkpt>
      <trkpt lat="43.84221" lon="1.43234">
        <ele>118.86</ele>
        <time>2021-08-18T11:10:13Z</time>
      </trkpt>
      <trkpt lat="43.84186" lon="1.43195">
        <ele>119.82</ele>
        <time>2021-08-18T11:10:22Z</time>
      </trkpt>
      <trkpt lat="43.84144" lon="1.4315">
        <ele>120.3</ele>
        <time>2021-08-18T11:10:32Z</time>
      </trkpt>
      <trkpt lat="43.84103" lon="1.43105">
        <ele>120.78</ele>
        <time>2021-08-18T11:10:42Z</time>
      </trkpt>
      <trkpt lat="43.84055" lon="1.43057">
        <ele>121.26</ele>
        <time>2021-08-18T11:10:53Z</time>
      </trkpt>
      <trkpt lat="43.84032" lon="1.43038">
        <ele>121.26</ele>
        <time>2021-08-18T11:10:58Z</time>
      </trkpt>
      <trkpt lat="43.84027" lon="1.43034">
        <ele>121.26</ele>
        <time>2021-08-18T11:10:59Z</time>
      </trkpt>
      <trkpt lat="43.83993" lon="1.43015">
        <ele>121.74</ele>
        <time>2021-08-18T11:11:06Z</time>
      </trkpt>
      <trkpt lat="43.83954" lon="1.42997">
        <ele>122.71</ele>
        <time>2021-08-18T11:11:14Z</time>
      </trkpt>
      <trkpt lat="43.83911" lon="1.42974">
        <ele>123.19</ele>
        <time>2021-08-18T11:11:23Z</time>
      </trkpt>
      <trkpt lat="43.83886" lon="1.42948">
        <ele>124.15</ele>
        <time>2021-08-18T11:11:30Z</time>
      </trkpt>
      <trkpt lat="43.83862" lon="1.42915">
        <ele>124.63</ele>
        <time>2021-08-18T11:11:38Z</time>
      </trkpt>
      <trkpt lat="43.83834" lon="1.42876">
        <ele>125.11</ele>
        <time>2021-08-18T11:11:47Z</time>
      </trkpt>
      <trkpt lat="43.83806" lon="1.42837">
        <ele>125.59</ele>
        <time>2021-08-18T11:11:56Z</time>
      </trkpt>
      <trkpt lat="43.83784" lon="1.42803">
        <ele>126.55</ele>
        <time>2021-08-18T11:12:04Z</time>
      </trkpt>
      <trkpt lat="43.83762" lon="1.42788">
        <ele>127.99</ele>
        <time>2021-08-18T11:12:11Z</time>
      </trkpt>
      <trkpt lat="43.83741" lon="1.42788">
        <ele>128.47</ele>
        <time>2021-08-18T11:12:17Z</time>
      </trkpt>
      <trkpt lat="43.83701" lon="1.42787">
        <ele>129.92</ele>
        <time>2021-08-18T11:12:27Z</time>
      </trkpt>
      <trkpt lat="43.83669" lon="1.42784">
        <ele>130.4</ele>
        <time>2021-08-18T11:12:35Z</time>
      </trkpt>
      <trkpt lat="43.83636" lon="1.42785">
        <ele>130.88</ele>
        <time>2021-08-18T11:12:43Z</time>
      </trkpt>
      <trkpt lat="43.83615" lon="1.42785">
        <ele>131.84</ele>
        <time>2021-08-18T11:12:48Z</time>
      </trkpt>
      <trkpt lat="43.83583" lon="1.42787">
        <ele>132.32</ele>
        <time>2021-08-18T11:12:56Z</time>
      </trkpt>
      <trkpt lat="43.83543" lon="1.4279">
        <ele>133.76</ele>
        <time>2021-08-18T11:13:06Z</time>
      </trkpt>
      <trkpt lat="43.8351" lon="1.42796">
        <ele>135.2</ele>
        <time>2021-08-18T11:13:15Z</time>
      </trkpt>
      <trkpt lat="43.83495" lon="1.42804">
        <ele>136.16</ele>
        <time>2021-08-18T11:13:21Z</time>
      </trkpt>
      <trkpt lat="43.83473" lon="1.42817">
        <ele>136.64</ele>
        <time>2021-08-18T11:13:28Z</time>
      </trkpt>
      <trkpt lat="43.83445" lon="1.42831">
        <ele>137.61</ele>
        <time>2021-08-18T11:13:36Z</time>
      </trkpt>
      <trkpt lat="43.83422" lon="1.42845">
        <ele>138.09</ele>
        <time>2021-08-18T11:13:43Z</time>
      </trkpt>
      <trkpt lat="43.83392" lon="1.42861">
        <ele>139.53</ele>
        <time>2021-08-18T11:13:52Z</time>
      </trkpt>
      <trkpt lat="43.83364" lon="1.42872">
        <ele>140.49</ele>
        <time>2021-08-18T11:14:00Z</time>
      </trkpt>
      <trkpt lat="43.83339" lon="1.42883">
        <ele>141.93</ele>
        <time>2021-08-18T11:14:09Z</time>
      </trkpt>
      <trkpt lat="43.83317" lon="1.42893">
        <ele>142.41</ele>
        <time>2021-08-18T11:14:16Z</time>
      </trkpt>
      <trkpt lat="43.83275" lon="1.42911">
        <ele>143.85</ele>
        <time>2021-08-18T11:14:27Z</time>
      </trkpt>
      <trkpt lat="43.83271" lon="1.42913">
        <ele>143.85</ele>
        <time>2021-08-18T11:14:28Z</time>
      </trkpt>
      <trkpt lat="43.83242" lon="1.42925">
        <ele>143.85</ele>
        <time>2021-08-18T11:14:35Z</time>
      </trkpt>
      <trkpt lat="43.83223" lon="1.42929">
        <ele>144.34</ele>
        <time>2021-08-18T11:14:40Z</time>
      </trkpt>
      <trkpt lat="43.8322" lon="1.42925">
        <ele>144.34</ele>
        <time>2021-08-18T11:14:41Z</time>
      </trkpt>
      <trkpt lat="43.83219" lon="1.4292">
        <ele>144.34</ele>
        <time>2021-08-18T11:14:42Z</time>
      </trkpt>
      <trkpt lat="43.83219" lon="1.42915">
        <ele>144.82</ele>
        <time>2021-08-18T11:14:43Z</time>
      </trkpt>
      <trkpt lat="43.83221" lon="1.4291">
        <ele>144.82</ele>
        <time>2021-08-18T11:14:44Z</time>
      </trkpt>
      <trkpt lat="43.83227" lon="1.42885">
        <ele>144.82</ele>
        <time>2021-08-18T11:14:49Z</time>
      </trkpt>
      <trkpt lat="43.83231" lon="1.42874">
        <ele>144.82</ele>
        <time>2021-08-18T11:14:51Z</time>
      </trkpt>
      <trkpt lat="43.83233" lon="1.42868">
        <ele>144.82</ele>
        <time>2021-08-18T11:14:52Z</time>
      </trkpt>
      <trkpt lat="43.83234" lon="1.42863">
        <ele>144.82</ele>
        <time>2021-08-18T11:14:53Z</time>
      </trkpt>
      <trkpt lat="43.83246" lon="1.42807">
        <ele>145.78</ele>
        <time>2021-08-18T11:15:03Z</time>
      </trkpt>
      <trkpt lat="43.83256" lon="1.42764">
        <ele>146.26</ele>
        <time>2021-08-18T11:15:11Z</time>
      </trkpt>
      <trkpt lat="43.83258" lon="1.42758">
        <ele>146.26</ele>
        <time>2021-08-18T11:15:12Z</time>
      </trkpt>
      <trkpt lat="43.83261" lon="1.42721">
        <ele>147.22</ele>
        <time>2021-08-18T11:15:19Z</time>
      </trkpt>
      <trkpt lat="43.8326" lon="1.42713">
        <ele>147.22</ele>
        <time>2021-08-18T11:15:21Z</time>
      </trkpt>
      <trkpt lat="43.83262" lon="1.4271">
        <ele>147.7</ele>
        <time>2021-08-18T11:15:22Z</time>
      </trkpt>
      <trkpt lat="43.83273" lon="1.42699">
        <ele>147.7</ele>
        <time>2021-08-18T11:15:26Z</time>
      </trkpt>
      <trkpt lat="43.83289" lon="1.42656">
        <ele>148.66</ele>
        <time>2021-08-18T11:15:35Z</time>
      </trkpt>
      <trkpt lat="43.83303" lon="1.42614">
        <ele>149.62</ele>
        <time>2021-08-18T11:15:44Z</time>
      </trkpt>
      <trkpt lat="43.83315" lon="1.42583">
        <ele>150.1</ele>
        <time>2021-08-18T11:15:51Z</time>
      </trkpt>
      <trkpt lat="43.83329" lon="1.4255">
        <ele>150.58</ele>
        <time>2021-08-18T11:15:59Z</time>
      </trkpt>
      <trkpt lat="43.83341" lon="1.42537">
        <ele>151.06</ele>
        <time>2021-08-18T11:16:04Z</time>
      </trkpt>
      <trkpt lat="43.83359" lon="1.42506">
        <ele>151.06</ele>
        <time>2021-08-18T11:16:11Z</time>
      </trkpt>
      <trkpt lat="43.83361" lon="1.425">
        <ele>151.06</ele>
        <time>2021-08-18T11:16:12Z</time>
      </trkpt>
      <trkpt lat="43.83363" lon="1.42494">
        <ele>151.06</ele>
        <time>2021-08-18T11:16:13Z</time>
      </trkpt>
      <trkpt lat="43.83375" lon="1.42466">
        <ele>148.66</ele>
        <time>2021-08-18T11:16:18Z</time>
      </trkpt>
      <trkpt lat="43.83379" lon="1.4246">
        <ele>148.66</ele>
        <time>2021-08-18T11:16:19Z</time>
      </trkpt>
      <trkpt lat="43.83382" lon="1.42455">
        <ele>148.66</ele>
        <time>2021-08-18T11:16:20Z</time>
      </trkpt>
      <trkpt lat="43.83386" lon="1.4245">
        <ele>148.66</ele>
        <time>2021-08-18T11:16:21Z</time>
      </trkpt>
      <trkpt lat="43.8339" lon="1.42446">
        <ele>147.7</ele>
        <time>2021-08-18T11:16:22Z</time>
      </trkpt>
      <trkpt lat="43.83401" lon="1.42434">
        <ele>147.7</ele>
        <time>2021-08-18T11:16:25Z</time>
      </trkpt>
      <trkpt lat="43.83404" lon="1.42429">
        <ele>147.7</ele>
        <time>2021-08-18T11:16:26Z</time>
      </trkpt>
      <trkpt lat="43.83406" lon="1.42423">
        <ele>147.7</ele>
        <time>2021-08-18T11:16:27Z</time>
      </trkpt>
      <trkpt lat="43.83421" lon="1.42384">
        <ele>148.18</ele>
        <time>2021-08-18T11:16:35Z</time>
      </trkpt>
      <trkpt lat="43.83423" lon="1.42374">
        <ele>149.62</ele>
        <time>2021-08-18T11:16:37Z</time>
      </trkpt>
      <trkpt lat="43.83434" lon="1.4233">
        <ele>150.1</ele>
        <time>2021-08-18T11:16:46Z</time>
      </trkpt>
      <trkpt lat="43.83444" lon="1.42301">
        <ele>150.1</ele>
        <time>2021-08-18T11:16:51Z</time>
      </trkpt>
      <trkpt lat="43.83449" lon="1.42289">
        <ele>150.1</ele>
        <time>2021-08-18T11:16:53Z</time>
      </trkpt>
      <trkpt lat="43.83451" lon="1.42283">
        <ele>150.1</ele>
        <time>2021-08-18T11:16:54Z</time>
      </trkpt>
      <trkpt lat="43.83461" lon="1.42266">
        <ele>148.66</ele>
        <time>2021-08-18T11:16:57Z</time>
      </trkpt>
      <trkpt lat="43.83477" lon="1.42228">
        <ele>148.18</ele>
        <time>2021-08-18T11:17:04Z</time>
      </trkpt>
      <trkpt lat="43.83488" lon="1.42203">
        <ele>148.18</ele>
        <time>2021-08-18T11:17:09Z</time>
      </trkpt>
      <trkpt lat="43.83491" lon="1.42198">
        <ele>148.18</ele>
        <time>2021-08-18T11:17:10Z</time>
      </trkpt>
      <trkpt lat="43.83505" lon="1.4218">
        <ele>148.18</ele>
        <time>2021-08-18T11:17:15Z</time>
      </trkpt>
      <trkpt lat="43.83529" lon="1.42151">
        <ele>148.18</ele>
        <time>2021-08-18T11:17:23Z</time>
      </trkpt>
      <trkpt lat="43.83535" lon="1.42143">
        <ele>148.18</ele>
        <time>2021-08-18T11:17:25Z</time>
      </trkpt>
      <trkpt lat="43.8356" lon="1.42121">
        <ele>148.18</ele>
        <time>2021-08-18T11:17:33Z</time>
      </trkpt>
      <trkpt lat="43.83567" lon="1.42118">
        <ele>148.18</ele>
        <time>2021-08-18T11:17:35Z</time>
      </trkpt>
      <trkpt lat="43.8357" lon="1.42114">
        <ele>148.18</ele>
        <time>2021-08-18T11:17:36Z</time>
      </trkpt>
      <trkpt lat="43.83583" lon="1.421">
        <ele>148.18</ele>
        <time>2021-08-18T11:17:41Z</time>
      </trkpt>
      <trkpt lat="43.836" lon="1.42094">
        <ele>148.18</ele>
        <time>2021-08-18T11:17:47Z</time>
      </trkpt>
      <trkpt lat="43.8361" lon="1.4209">
        <ele>148.18</ele>
        <time>2021-08-18T11:17:50Z</time>
      </trkpt>
      <trkpt lat="43.83614" lon="1.42091">
        <ele>148.18</ele>
        <time>2021-08-18T11:17:51Z</time>
      </trkpt>
      <trkpt lat="43.83624" lon="1.42092">
        <ele>147.7</ele>
        <time>2021-08-18T11:17:54Z</time>
      </trkpt>
      <trkpt lat="43.8363" lon="1.42097">
        <ele>146.26</ele>
        <time>2021-08-18T11:17:57Z</time>
      </trkpt>
      <trkpt lat="43.83633" lon="1.42097">
        <ele>145.78</ele>
        <time>2021-08-18T11:17:58Z</time>
      </trkpt>
      <trkpt lat="43.83637" lon="1.42096">
        <ele>144.82</ele>
        <time>2021-08-18T11:17:59Z</time>
      </trkpt>
      <trkpt lat="43.83647" lon="1.4209">
        <ele>143.37</ele>
        <time>2021-08-18T11:18:01Z</time>
      </trkpt>
      <trkpt lat="43.83657" lon="1.42082">
        <ele>142.41</ele>
        <time>2021-08-18T11:18:03Z</time>
      </trkpt>
      <trkpt lat="43.83667" lon="1.4207">
        <ele>141.45</ele>
        <time>2021-08-18T11:18:05Z</time>
      </trkpt>
      <trkpt lat="43.83679" lon="1.4205">
        <ele>141.45</ele>
        <time>2021-08-18T11:18:08Z</time>
      </trkpt>
      <trkpt lat="43.83685" lon="1.42035">
        <ele>140.97</ele>
        <time>2021-08-18T11:18:10Z</time>
      </trkpt>
      <trkpt lat="43.83686" lon="1.42027">
        <ele>140.97</ele>
        <time>2021-08-18T11:18:11Z</time>
      </trkpt>
      <trkpt lat="43.83689" lon="1.4199">
        <ele>141.45</ele>
        <time>2021-08-18T11:18:17Z</time>
      </trkpt>
      <trkpt lat="43.83692" lon="1.41967">
        <ele>141.45</ele>
        <time>2021-08-18T11:18:23Z</time>
      </trkpt>
      <trkpt lat="43.83699" lon="1.41946">
        <ele>142.41</ele>
        <time>2021-08-18T11:18:30Z</time>
      </trkpt>
      <trkpt lat="43.8371" lon="1.41921">
        <ele>143.37</ele>
        <time>2021-08-18T11:18:37Z</time>
      </trkpt>
      <trkpt lat="43.83719" lon="1.41907">
        <ele>144.34</ele>
        <time>2021-08-18T11:18:44Z</time>
      </trkpt>
      <trkpt lat="43.83724" lon="1.41899">
        <ele>144.82</ele>
        <time>2021-08-18T11:18:48Z</time>
      </trkpt>
      <trkpt lat="43.83726" lon="1.41896">
        <ele>145.3</ele>
        <time>2021-08-18T11:18:49Z</time>
      </trkpt>
      <trkpt lat="43.83727" lon="1.41894">
        <ele>145.3</ele>
        <time>2021-08-18T11:18:50Z</time>
      </trkpt>
      <trkpt lat="43.83729" lon="1.41892">
        <ele>145.3</ele>
        <time>2021-08-18T11:18:51Z</time>
      </trkpt>
      <trkpt lat="43.83731" lon="1.41889">
        <ele>145.3</ele>
        <time>2021-08-18T11:18:52Z</time>
      </trkpt>
      <trkpt lat="43.8374" lon="1.41878">
        <ele>146.26</ele>
        <time>2021-08-18T11:18:57Z</time>
      </trkpt>
      <trkpt lat="43.83757" lon="1.41859">
        <ele>147.22</ele>
        <time>2021-08-18T11:19:06Z</time>
      </trkpt>
      <trkpt lat="43.83768" lon="1.41849">
        <ele>147.7</ele>
        <time>2021-08-18T11:19:11Z</time>
      </trkpt>
      <trkpt lat="43.83787" lon="1.41829">
        <ele>148.66</ele>
        <time>2021-08-18T11:19:19Z</time>
      </trkpt>
      <trkpt lat="43.83802" lon="1.41813">
        <ele>148.66</ele>
        <time>2021-08-18T11:19:25Z</time>
      </trkpt>
      <trkpt lat="43.83823" lon="1.41785">
        <ele>149.14</ele>
        <time>2021-08-18T11:19:33Z</time>
      </trkpt>
      <trkpt lat="43.83845" lon="1.41755">
        <ele>149.14</ele>
        <time>2021-08-18T11:19:40Z</time>
      </trkpt>
      <trkpt lat="43.83862" lon="1.41731">
        <ele>149.62</ele>
        <time>2021-08-18T11:19:46Z</time>
      </trkpt>
      <trkpt lat="43.83874" lon="1.4171">
        <ele>149.62</ele>
        <time>2021-08-18T11:19:51Z</time>
      </trkpt>
      <trkpt lat="43.8388" lon="1.41687">
        <ele>150.1</ele>
        <time>2021-08-18T11:19:56Z</time>
      </trkpt>
      <trkpt lat="43.83887" lon="1.41651">
        <ele>150.1</ele>
        <time>2021-08-18T11:20:04Z</time>
      </trkpt>
      <trkpt lat="43.83894" lon="1.4164">
        <ele>150.1</ele>
        <time>2021-08-18T11:20:08Z</time>
      </trkpt>
      <trkpt lat="43.83898" lon="1.41636">
        <ele>150.1</ele>
        <time>2021-08-18T11:20:10Z</time>
      </trkpt>
      <trkpt lat="43.83899" lon="1.41632">
        <ele>150.1</ele>
        <time>2021-08-18T11:20:11Z</time>
      </trkpt>
      <trkpt lat="43.83899" lon="1.41627">
        <ele>150.1</ele>
        <time>2021-08-18T11:20:12Z</time>
      </trkpt>
      <trkpt lat="43.83947" lon="1.41562">
        <ele>151.06</ele>
        <time>2021-08-18T11:22:09Z</time>
      </trkpt>
      <trkpt lat="43.83947" lon="1.41562">
        <ele>151.06</ele>
        <time>2021-08-18T11:22:10Z</time>
      </trkpt>
      <trkpt lat="43.83946" lon="1.41561">
        <ele>151.06</ele>
        <time>2021-08-18T11:22:20Z</time>
      </trkpt>
      <trkpt lat="43.83952" lon="1.41555">
        <ele>151.06</ele>
        <time>2021-08-18T11:22:24Z</time>
      </trkpt>
      <trkpt lat="43.83953" lon="1.41552">
        <ele>151.06</ele>
        <time>2021-08-18T11:22:25Z</time>
      </trkpt>
      <trkpt lat="43.83956" lon="1.4155">
        <ele>151.06</ele>
        <time>2021-08-18T11:22:26Z</time>
      </trkpt>
      <trkpt lat="43.83974" lon="1.4153">
        <ele>151.06</ele>
        <time>2021-08-18T11:22:33Z</time>
      </trkpt>
      <trkpt lat="43.83976" lon="1.41525">
        <ele>151.06</ele>
        <time>2021-08-18T11:22:34Z</time>
      </trkpt>
      <trkpt lat="43.83976" lon="1.4152">
        <ele>151.06</ele>
        <time>2021-08-18T11:22:35Z</time>
      </trkpt>
      <trkpt lat="43.83976" lon="1.41516">
        <ele>151.06</ele>
        <time>2021-08-18T11:22:36Z</time>
      </trkpt>
      <trkpt lat="43.83974" lon="1.41513">
        <ele>151.06</ele>
        <time>2021-08-18T11:22:37Z</time>
      </trkpt>
      <trkpt lat="43.83972" lon="1.41509">
        <ele>151.06</ele>
        <time>2021-08-18T11:22:38Z</time>
      </trkpt>
      <trkpt lat="43.83957" lon="1.41485">
        <ele>151.06</ele>
        <time>2021-08-18T11:22:44Z</time>
      </trkpt>
      <trkpt lat="43.83954" lon="1.4148">
        <ele>151.06</ele>
        <time>2021-08-18T11:22:45Z</time>
      </trkpt>
      <trkpt lat="43.83932" lon="1.41446">
        <ele>151.06</ele>
        <time>2021-08-18T11:22:53Z</time>
      </trkpt>
      <trkpt lat="43.83932" lon="1.41442">
        <ele>151.06</ele>
        <time>2021-08-18T11:22:54Z</time>
      </trkpt>
      <trkpt lat="43.83933" lon="1.41438">
        <ele>151.06</ele>
        <time>2021-08-18T11:22:55Z</time>
      </trkpt>
      <trkpt lat="43.83936" lon="1.41435">
        <ele>151.06</ele>
        <time>2021-08-18T11:22:56Z</time>
      </trkpt>
      <trkpt lat="43.83939" lon="1.41432">
        <ele>151.06</ele>
        <time>2021-08-18T11:22:57Z</time>
      </trkpt>
      <trkpt lat="43.83954" lon="1.41409">
        <ele>151.54</ele>
        <time>2021-08-18T11:23:03Z</time>
      </trkpt>
      <trkpt lat="43.83971" lon="1.41382">
        <ele>151.54</ele>
        <time>2021-08-18T11:23:10Z</time>
      </trkpt>
      <trkpt lat="43.8398" lon="1.41365">
        <ele>151.54</ele>
        <time>2021-08-18T11:23:14Z</time>
      </trkpt>
      <trkpt lat="43.83998" lon="1.41331">
        <ele>151.54</ele>
        <time>2021-08-18T11:23:21Z</time>
      </trkpt>
      <trkpt lat="43.84007" lon="1.41308">
        <ele>150.1</ele>
        <time>2021-08-18T11:23:26Z</time>
      </trkpt>
      <trkpt lat="43.84005" lon="1.41304">
        <ele>150.1</ele>
        <time>2021-08-18T11:23:27Z</time>
      </trkpt>
      <trkpt lat="43.84003" lon="1.41301">
        <ele>150.1</ele>
        <time>2021-08-18T11:23:28Z</time>
      </trkpt>
      <trkpt lat="43.8398" lon="1.41268">
        <ele>149.14</ele>
        <time>2021-08-18T11:23:35Z</time>
      </trkpt>
      <trkpt lat="43.83942" lon="1.41224">
        <ele>147.7</ele>
        <time>2021-08-18T11:23:43Z</time>
      </trkpt>
      <trkpt lat="43.83886" lon="1.41177">
        <ele>147.7</ele>
        <time>2021-08-18T11:23:54Z</time>
      </trkpt>
      <trkpt lat="43.83838" lon="1.41139">
        <ele>149.62</ele>
        <time>2021-08-18T11:24:04Z</time>
      </trkpt>
      <trkpt lat="43.83795" lon="1.41103">
        <ele>150.1</ele>
        <time>2021-08-18T11:24:13Z</time>
      </trkpt>
      <trkpt lat="43.83766" lon="1.41075">
        <ele>150.58</ele>
        <time>2021-08-18T11:24:20Z</time>
      </trkpt>
      <trkpt lat="43.83741" lon="1.41037">
        <ele>150.58</ele>
        <time>2021-08-18T11:24:27Z</time>
      </trkpt>
      <trkpt lat="43.83704" lon="1.40976">
        <ele>150.58</ele>
        <time>2021-08-18T11:24:37Z</time>
      </trkpt>
      <trkpt lat="43.83664" lon="1.40907">
        <ele>150.58</ele>
        <time>2021-08-18T11:24:48Z</time>
      </trkpt>
      <trkpt lat="43.83631" lon="1.40843">
        <ele>150.58</ele>
        <time>2021-08-18T11:24:58Z</time>
      </trkpt>
      <trkpt lat="43.83603" lon="1.4079">
        <ele>151.06</ele>
        <time>2021-08-18T11:25:07Z</time>
      </trkpt>
      <trkpt lat="43.836" lon="1.40784">
        <ele>151.06</ele>
        <time>2021-08-18T11:25:08Z</time>
      </trkpt>
      <trkpt lat="43.83586" lon="1.40762">
        <ele>151.06</ele>
        <time>2021-08-18T11:25:12Z</time>
      </trkpt>
      <trkpt lat="43.83585" lon="1.40755">
        <ele>151.06</ele>
        <time>2021-08-18T11:25:13Z</time>
      </trkpt>
      <trkpt lat="43.83587" lon="1.40749">
        <ele>151.06</ele>
        <time>2021-08-18T11:25:14Z</time>
      </trkpt>
      <trkpt lat="43.8359" lon="1.40742">
        <ele>151.06</ele>
        <time>2021-08-18T11:25:15Z</time>
      </trkpt>
      <trkpt lat="43.83592" lon="1.40737">
        <ele>151.06</ele>
        <time>2021-08-18T11:25:16Z</time>
      </trkpt>
      <trkpt lat="43.83613" lon="1.40684">
        <ele>151.06</ele>
        <time>2021-08-18T11:25:25Z</time>
      </trkpt>
      <trkpt lat="43.83633" lon="1.40632">
        <ele>152.03</ele>
        <time>2021-08-18T11:25:34Z</time>
      </trkpt>
      <trkpt lat="43.83653" lon="1.40591">
        <ele>152.03</ele>
        <time>2021-08-18T11:25:41Z</time>
      </trkpt>
      <trkpt lat="43.83661" lon="1.40572">
        <ele>152.03</ele>
        <time>2021-08-18T11:25:44Z</time>
      </trkpt>
      <trkpt lat="43.8367" lon="1.40553">
        <ele>151.06</ele>
        <time>2021-08-18T11:25:47Z</time>
      </trkpt>
      <trkpt lat="43.83696" lon="1.40496">
        <ele>151.06</ele>
        <time>2021-08-18T11:25:56Z</time>
      </trkpt>
      <trkpt lat="43.83723" lon="1.40438">
        <ele>151.06</ele>
        <time>2021-08-18T11:26:05Z</time>
      </trkpt>
      <trkpt lat="43.83726" lon="1.40432">
        <ele>151.06</ele>
        <time>2021-08-18T11:26:06Z</time>
      </trkpt>
      <trkpt lat="43.83751" lon="1.40375">
        <ele>151.06</ele>
        <time>2021-08-18T11:26:15Z</time>
      </trkpt>
      <trkpt lat="43.83776" lon="1.40316">
        <ele>151.06</ele>
        <time>2021-08-18T11:26:24Z</time>
      </trkpt>
      <trkpt lat="43.83803" lon="1.40255">
        <ele>151.06</ele>
        <time>2021-08-18T11:26:33Z</time>
      </trkpt>
      <trkpt lat="43.83825" lon="1.40206">
        <ele>150.1</ele>
        <time>2021-08-18T11:26:40Z</time>
      </trkpt>
      <trkpt lat="43.83853" lon="1.40131">
        <ele>150.1</ele>
        <time>2021-08-18T11:26:50Z</time>
      </trkpt>
      <trkpt lat="43.83863" lon="1.40102">
        <ele>150.1</ele>
        <time>2021-08-18T11:26:54Z</time>
      </trkpt>
      <trkpt lat="43.83889" lon="1.40039">
        <ele>150.1</ele>
        <time>2021-08-18T11:27:03Z</time>
      </trkpt>
      <trkpt lat="43.8391" lon="1.39994">
        <ele>150.1</ele>
        <time>2021-08-18T11:27:10Z</time>
      </trkpt>
      <trkpt lat="43.83928" lon="1.39953">
        <ele>151.06</ele>
        <time>2021-08-18T11:27:17Z</time>
      </trkpt>
      <trkpt lat="43.83948" lon="1.39907">
        <ele>151.54</ele>
        <time>2021-08-18T11:27:25Z</time>
      </trkpt>
      <trkpt lat="43.83978" lon="1.39845">
        <ele>151.54</ele>
        <time>2021-08-18T11:27:35Z</time>
      </trkpt>
      <trkpt lat="43.84006" lon="1.398">
        <ele>151.54</ele>
        <time>2021-08-18T11:27:42Z</time>
      </trkpt>
      <trkpt lat="43.84018" lon="1.39782">
        <ele>151.54</ele>
        <time>2021-08-18T11:27:45Z</time>
      </trkpt>
      <trkpt lat="43.84054" lon="1.3973">
        <ele>151.54</ele>
        <time>2021-08-18T11:27:54Z</time>
      </trkpt>
      <trkpt lat="43.84092" lon="1.39679">
        <ele>151.54</ele>
        <time>2021-08-18T11:28:03Z</time>
      </trkpt>
      <trkpt lat="43.84131" lon="1.39626">
        <ele>150.1</ele>
        <time>2021-08-18T11:28:12Z</time>
      </trkpt>
      <trkpt lat="43.84169" lon="1.39573">
        <ele>148.66</ele>
        <time>2021-08-18T11:28:21Z</time>
      </trkpt>
      <trkpt lat="43.84171" lon="1.39566">
        <ele>148.66</ele>
        <time>2021-08-18T11:28:22Z</time>
      </trkpt>
      <trkpt lat="43.84171" lon="1.39559">
        <ele>148.66</ele>
        <time>2021-08-18T11:28:23Z</time>
      </trkpt>
      <trkpt lat="43.8417" lon="1.39552">
        <ele>148.66</ele>
        <time>2021-08-18T11:28:24Z</time>
      </trkpt>
      <trkpt lat="43.84167" lon="1.39546">
        <ele>148.66</ele>
        <time>2021-08-18T11:28:25Z</time>
      </trkpt>
      <trkpt lat="43.84163" lon="1.39541">
        <ele>148.66</ele>
        <time>2021-08-18T11:28:26Z</time>
      </trkpt>
      <trkpt lat="43.84159" lon="1.39536">
        <ele>148.66</ele>
        <time>2021-08-18T11:28:27Z</time>
      </trkpt>
      <trkpt lat="43.84132" lon="1.39495">
        <ele>145.3</ele>
        <time>2021-08-18T11:28:33Z</time>
      </trkpt>
      <trkpt lat="43.84111" lon="1.39471">
        <ele>142.41</ele>
        <time>2021-08-18T11:28:36Z</time>
      </trkpt>
      <trkpt lat="43.84086" lon="1.39443">
        <ele>138.09</ele>
        <time>2021-08-18T11:28:39Z</time>
      </trkpt>
      <trkpt lat="43.8406" lon="1.39411">
        <ele>135.68</ele>
        <time>2021-08-18T11:28:42Z</time>
      </trkpt>
      <trkpt lat="43.84022" lon="1.39362">
        <ele>136.16</ele>
        <time>2021-08-18T11:28:47Z</time>
      </trkpt>
      <trkpt lat="43.84002" lon="1.39338">
        <ele>139.53</ele>
        <time>2021-08-18T11:28:51Z</time>
      </trkpt>
      <trkpt lat="43.83998" lon="1.39336">
        <ele>140.49</ele>
        <time>2021-08-18T11:28:52Z</time>
      </trkpt>
      <trkpt lat="43.83995" lon="1.39336">
        <ele>140.49</ele>
        <time>2021-08-18T11:28:53Z</time>
      </trkpt>
      <trkpt lat="43.83992" lon="1.39335">
        <ele>141.45</ele>
        <time>2021-08-18T11:28:54Z</time>
      </trkpt>
      <trkpt lat="43.8399" lon="1.39333">
        <ele>141.45</ele>
        <time>2021-08-18T11:28:55Z</time>
      </trkpt>
      <trkpt lat="43.83988" lon="1.39332">
        <ele>141.45</ele>
        <time>2021-08-18T11:28:56Z</time>
      </trkpt>
      <trkpt lat="43.83986" lon="1.3933">
        <ele>141.93</ele>
        <time>2021-08-18T11:28:57Z</time>
      </trkpt>
      <trkpt lat="43.83984" lon="1.39329">
        <ele>142.89</ele>
        <time>2021-08-18T11:28:58Z</time>
      </trkpt>
      <trkpt lat="43.83983" lon="1.39327">
        <ele>142.41</ele>
        <time>2021-08-18T11:28:59Z</time>
      </trkpt>
      <trkpt lat="43.83972" lon="1.39316">
        <ele>143.85</ele>
        <time>2021-08-18T11:29:07Z</time>
      </trkpt>
      <trkpt lat="43.83959" lon="1.393">
        <ele>146.26</ele>
        <time>2021-08-18T11:29:17Z</time>
      </trkpt>
      <trkpt lat="43.83946" lon="1.39289">
        <ele>148.18</ele>
        <time>2021-08-18T11:29:26Z</time>
      </trkpt>
      <trkpt lat="43.83939" lon="1.3928">
        <ele>148.66</ele>
        <time>2021-08-18T11:29:31Z</time>
      </trkpt>
      <trkpt lat="43.83922" lon="1.39263">
        <ele>150.1</ele>
        <time>2021-08-18T11:29:40Z</time>
      </trkpt>
      <trkpt lat="43.83905" lon="1.39246">
        <ele>150.1</ele>
        <time>2021-08-18T11:29:48Z</time>
      </trkpt>
      <trkpt lat="43.8389" lon="1.3923">
        <ele>150.58</ele>
        <time>2021-08-18T11:29:55Z</time>
      </trkpt>
      <trkpt lat="43.83887" lon="1.39224">
        <ele>150.58</ele>
        <time>2021-08-18T11:29:58Z</time>
      </trkpt>
      <trkpt lat="43.83886" lon="1.39222">
        <ele>150.58</ele>
        <time>2021-08-18T11:29:59Z</time>
      </trkpt>
      <trkpt lat="43.83886" lon="1.39219">
        <ele>150.58</ele>
        <time>2021-08-18T11:30:00Z</time>
      </trkpt>
      <trkpt lat="43.83885" lon="1.39217">
        <ele>150.58</ele>
        <time>2021-08-18T11:30:01Z</time>
      </trkpt>
      <trkpt lat="43.83884" lon="1.39214">
        <ele>150.58</ele>
        <time>2021-08-18T11:30:02Z</time>
      </trkpt>
      <trkpt lat="43.83882" lon="1.39211">
        <ele>150.58</ele>
        <time>2021-08-18T11:30:03Z</time>
      </trkpt>
      <trkpt lat="43.83881" lon="1.39209">
        <ele>150.58</ele>
        <time>2021-08-18T11:30:04Z</time>
      </trkpt>
      <trkpt lat="43.8388" lon="1.39206">
        <ele>150.58</ele>
        <time>2021-08-18T11:30:05Z</time>
      </trkpt>
      <trkpt lat="43.83879" lon="1.39204">
        <ele>150.58</ele>
        <time>2021-08-18T11:30:06Z</time>
      </trkpt>
      <trkpt lat="43.83878" lon="1.39203">
        <ele>150.58</ele>
        <time>2021-08-18T11:30:07Z</time>
      </trkpt>
      <trkpt lat="43.83876" lon="1.39201">
        <ele>150.58</ele>
        <time>2021-08-18T11:30:08Z</time>
      </trkpt>
      <trkpt lat="43.83856" lon="1.39175">
        <ele>151.06</ele>
        <time>2021-08-18T11:30:16Z</time>
      </trkpt>
      <trkpt lat="43.83834" lon="1.39137">
        <ele>151.06</ele>
        <time>2021-08-18T11:30:24Z</time>
      </trkpt>
      <trkpt lat="43.83824" lon="1.39114">
        <ele>151.06</ele>
        <time>2021-08-18T11:30:28Z</time>
      </trkpt>
      <trkpt lat="43.83806" lon="1.39048">
        <ele>151.54</ele>
        <time>2021-08-18T11:30:39Z</time>
      </trkpt>
      <trkpt lat="43.83804" lon="1.39037">
        <ele>151.54</ele>
        <time>2021-08-18T11:30:41Z</time>
      </trkpt>
      <trkpt lat="43.83805" lon="1.39033">
        <ele>151.54</ele>
        <time>2021-08-18T11:30:42Z</time>
      </trkpt>
      <trkpt lat="43.83807" lon="1.3903">
        <ele>151.54</ele>
        <time>2021-08-18T11:30:43Z</time>
      </trkpt>
      <trkpt lat="43.8381" lon="1.39029">
        <ele>151.54</ele>
        <time>2021-08-18T11:30:44Z</time>
      </trkpt>
      <trkpt lat="43.83812" lon="1.39028">
        <ele>151.54</ele>
        <time>2021-08-18T11:30:45Z</time>
      </trkpt>
      <trkpt lat="43.8383" lon="1.3902">
        <ele>151.54</ele>
        <time>2021-08-18T11:30:53Z</time>
      </trkpt>
      <trkpt lat="43.83838" lon="1.39016">
        <ele>151.54</ele>
        <time>2021-08-18T11:30:57Z</time>
      </trkpt>
      <trkpt lat="43.83838" lon="1.39014">
        <ele>151.54</ele>
        <time>2021-08-18T11:30:58Z</time>
      </trkpt>
      <trkpt lat="43.83832" lon="1.38991">
        <ele>151.54</ele>
        <time>2021-08-18T11:31:05Z</time>
      </trkpt>
      <trkpt lat="43.83829" lon="1.38983">
        <ele>151.54</ele>
        <time>2021-08-18T11:31:08Z</time>
      </trkpt>
      <trkpt lat="43.83827" lon="1.38983">
        <ele>151.54</ele>
        <time>2021-08-18T11:31:09Z</time>
      </trkpt>
      <trkpt lat="43.83824" lon="1.38984">
        <ele>151.54</ele>
        <time>2021-08-18T11:31:10Z</time>
      </trkpt>
      <trkpt lat="43.83807" lon="1.38995">
        <ele>151.54</ele>
        <time>2021-08-18T11:31:18Z</time>
      </trkpt>
      <trkpt lat="43.83796" lon="1.38997">
        <ele>151.54</ele>
        <time>2021-08-18T11:31:22Z</time>
      </trkpt>
      <trkpt lat="43.83794" lon="1.38995">
        <ele>151.54</ele>
        <time>2021-08-18T11:31:23Z</time>
      </trkpt>
      <trkpt lat="43.83792" lon="1.38991">
        <ele>151.54</ele>
        <time>2021-08-18T11:31:24Z</time>
      </trkpt>
      <trkpt lat="43.83791" lon="1.38987">
        <ele>151.54</ele>
        <time>2021-08-18T11:31:25Z</time>
      </trkpt>
      <trkpt lat="43.83789" lon="1.38982">
        <ele>151.54</ele>
        <time>2021-08-18T11:31:26Z</time>
      </trkpt>
      <trkpt lat="43.83776" lon="1.38943">
        <ele>151.54</ele>
        <time>2021-08-18T11:31:34Z</time>
      </trkpt>
      <trkpt lat="43.83761" lon="1.38907">
        <ele>151.54</ele>
        <time>2021-08-18T11:31:42Z</time>
      </trkpt>
      <trkpt lat="43.83746" lon="1.38897">
        <ele>151.54</ele>
        <time>2021-08-18T11:31:46Z</time>
      </trkpt>
      <trkpt lat="43.83742" lon="1.38896">
        <ele>151.54</ele>
        <time>2021-08-18T11:31:47Z</time>
      </trkpt>
      <trkpt lat="43.8373" lon="1.38891">
        <ele>149.14</ele>
        <time>2021-08-18T11:31:49Z</time>
      </trkpt>
      <trkpt lat="43.83724" lon="1.38887">
        <ele>148.66</ele>
        <time>2021-08-18T11:31:50Z</time>
      </trkpt>
      <trkpt lat="43.83719" lon="1.3888">
        <ele>147.7</ele>
        <time>2021-08-18T11:31:51Z</time>
      </trkpt>
      <trkpt lat="43.83714" lon="1.38872">
        <ele>147.7</ele>
        <time>2021-08-18T11:31:52Z</time>
      </trkpt>
      <trkpt lat="43.8371" lon="1.38862">
        <ele>144.34</ele>
        <time>2021-08-18T11:31:53Z</time>
      </trkpt>
      <trkpt lat="43.83708" lon="1.38851">
        <ele>143.37</ele>
        <time>2021-08-18T11:31:54Z</time>
      </trkpt>
      <trkpt lat="43.83707" lon="1.38839">
        <ele>142.89</ele>
        <time>2021-08-18T11:31:55Z</time>
      </trkpt>
      <trkpt lat="43.83706" lon="1.38826">
        <ele>141.45</ele>
        <time>2021-08-18T11:31:56Z</time>
      </trkpt>
      <trkpt lat="43.83705" lon="1.38816">
        <ele>141.93</ele>
        <time>2021-08-18T11:31:57Z</time>
      </trkpt>
      <trkpt lat="43.83704" lon="1.38803">
        <ele>140.49</ele>
        <time>2021-08-18T11:31:58Z</time>
      </trkpt>
      <trkpt lat="43.83701" lon="1.38792">
        <ele>140.01</ele>
        <time>2021-08-18T11:31:59Z</time>
      </trkpt>
      <trkpt lat="43.83697" lon="1.38781">
        <ele>139.05</ele>
        <time>2021-08-18T11:32:00Z</time>
      </trkpt>
      <trkpt lat="43.83692" lon="1.38771">
        <ele>137.61</ele>
        <time>2021-08-18T11:32:01Z</time>
      </trkpt>
      <trkpt lat="43.83685" lon="1.3876">
        <ele>137.13</ele>
        <time>2021-08-18T11:32:02Z</time>
      </trkpt>
      <trkpt lat="43.83672" lon="1.38741">
        <ele>136.16</ele>
        <time>2021-08-18T11:32:04Z</time>
      </trkpt>
      <trkpt lat="43.83638" lon="1.38691">
        <ele>133.76</ele>
        <time>2021-08-18T11:32:09Z</time>
      </trkpt>
      <trkpt lat="43.83629" lon="1.38675">
        <ele>133.28</ele>
        <time>2021-08-18T11:32:11Z</time>
      </trkpt>
      <trkpt lat="43.83626" lon="1.38667">
        <ele>133.28</ele>
        <time>2021-08-18T11:32:12Z</time>
      </trkpt>
      <trkpt lat="43.83627" lon="1.38659">
        <ele>133.28</ele>
        <time>2021-08-18T11:32:13Z</time>
      </trkpt>
      <trkpt lat="43.8363" lon="1.38655">
        <ele>133.76</ele>
        <time>2021-08-18T11:32:14Z</time>
      </trkpt>
      <trkpt lat="43.83634" lon="1.38653">
        <ele>133.28</ele>
        <time>2021-08-18T11:32:15Z</time>
      </trkpt>
      <trkpt lat="43.83638" lon="1.38652">
        <ele>134.72</ele>
        <time>2021-08-18T11:32:16Z</time>
      </trkpt>
      <trkpt lat="43.83642" lon="1.38651">
        <ele>134.72</ele>
        <time>2021-08-18T11:32:17Z</time>
      </trkpt>
      <trkpt lat="43.83645" lon="1.38648">
        <ele>135.68</ele>
        <time>2021-08-18T11:32:18Z</time>
      </trkpt>
      <trkpt lat="43.83646" lon="1.38642">
        <ele>135.68</ele>
        <time>2021-08-18T11:32:19Z</time>
      </trkpt>
      <trkpt lat="43.83645" lon="1.38638">
        <ele>135.68</ele>
        <time>2021-08-18T11:32:20Z</time>
      </trkpt>
      <trkpt lat="43.83643" lon="1.38633">
        <ele>135.68</ele>
        <time>2021-08-18T11:32:21Z</time>
      </trkpt>
      <trkpt lat="43.8364" lon="1.38622">
        <ele>135.68</ele>
        <time>2021-08-18T11:32:23Z</time>
      </trkpt>
      <trkpt lat="43.83627" lon="1.38617">
        <ele>135.68</ele>
        <time>2021-08-18T11:32:27Z</time>
      </trkpt>
      <trkpt lat="43.83624" lon="1.38613">
        <ele>135.68</ele>
        <time>2021-08-18T11:32:28Z</time>
      </trkpt>
      <trkpt lat="43.83623" lon="1.38608">
        <ele>135.68</ele>
        <time>2021-08-18T11:32:29Z</time>
      </trkpt>
      <trkpt lat="43.83622" lon="1.38602">
        <ele>135.68</ele>
        <time>2021-08-18T11:32:30Z</time>
      </trkpt>
      <trkpt lat="43.83622" lon="1.38597">
        <ele>136.16</ele>
        <time>2021-08-18T11:32:31Z</time>
      </trkpt>
      <trkpt lat="43.83621" lon="1.38591">
        <ele>136.16</ele>
        <time>2021-08-18T11:32:32Z</time>
      </trkpt>
      <trkpt lat="43.83619" lon="1.38586">
        <ele>136.16</ele>
        <time>2021-08-18T11:32:33Z</time>
      </trkpt>
      <trkpt lat="43.83618" lon="1.38581">
        <ele>136.16</ele>
        <time>2021-08-18T11:32:34Z</time>
      </trkpt>
      <trkpt lat="43.83607" lon="1.38562">
        <ele>136.16</ele>
        <time>2021-08-18T11:32:39Z</time>
      </trkpt>
      <trkpt lat="43.83604" lon="1.38561">
        <ele>136.16</ele>
        <time>2021-08-18T11:32:40Z</time>
      </trkpt>
      <trkpt lat="43.83601" lon="1.38561">
        <ele>136.16</ele>
        <time>2021-08-18T11:32:41Z</time>
      </trkpt>
      <trkpt lat="43.83597" lon="1.38559">
        <ele>136.16</ele>
        <time>2021-08-18T11:32:42Z</time>
      </trkpt>
      <trkpt lat="43.83595" lon="1.38556">
        <ele>136.64</ele>
        <time>2021-08-18T11:32:43Z</time>
      </trkpt>
      <trkpt lat="43.83593" lon="1.38552">
        <ele>136.64</ele>
        <time>2021-08-18T11:32:44Z</time>
      </trkpt>
      <trkpt lat="43.83592" lon="1.38548">
        <ele>137.13</ele>
        <time>2021-08-18T11:32:45Z</time>
      </trkpt>
      <trkpt lat="43.83589" lon="1.38545">
        <ele>137.13</ele>
        <time>2021-08-18T11:32:46Z</time>
      </trkpt>
      <trkpt lat="43.83586" lon="1.38545">
        <ele>137.13</ele>
        <time>2021-08-18T11:32:47Z</time>
      </trkpt>
      <trkpt lat="43.83583" lon="1.38544">
        <ele>137.13</ele>
        <time>2021-08-18T11:32:48Z</time>
      </trkpt>
      <trkpt lat="43.8358" lon="1.38542">
        <ele>137.61</ele>
        <time>2021-08-18T11:32:49Z</time>
      </trkpt>
      <trkpt lat="43.83577" lon="1.38539">
        <ele>137.61</ele>
        <time>2021-08-18T11:32:50Z</time>
      </trkpt>
      <trkpt lat="43.83576" lon="1.38535">
        <ele>137.61</ele>
        <time>2021-08-18T11:32:51Z</time>
      </trkpt>
      <trkpt lat="43.83575" lon="1.38531">
        <ele>137.61</ele>
        <time>2021-08-18T11:32:52Z</time>
      </trkpt>
      <trkpt lat="43.83572" lon="1.38519">
        <ele>138.09</ele>
        <time>2021-08-18T11:32:55Z</time>
      </trkpt>
      <trkpt lat="43.83573" lon="1.38516">
        <ele>138.09</ele>
        <time>2021-08-18T11:32:56Z</time>
      </trkpt>
      <trkpt lat="43.83575" lon="1.38514">
        <ele>139.05</ele>
        <time>2021-08-18T11:32:57Z</time>
      </trkpt>
      <trkpt lat="43.83577" lon="1.38513">
        <ele>139.05</ele>
        <time>2021-08-18T11:32:58Z</time>
      </trkpt>
      <trkpt lat="43.83579" lon="1.38511">
        <ele>139.05</ele>
        <time>2021-08-18T11:32:59Z</time>
      </trkpt>
      <trkpt lat="43.83581" lon="1.3851">
        <ele>139.05</ele>
        <time>2021-08-18T11:33:00Z</time>
      </trkpt>
      <trkpt lat="43.83583" lon="1.38508">
        <ele>139.05</ele>
        <time>2021-08-18T11:33:04Z</time>
      </trkpt>
      <trkpt lat="43.83581" lon="1.3851">
        <ele>138.57</ele>
        <time>2021-08-18T11:33:23Z</time>
      </trkpt>
      <trkpt lat="43.83582" lon="1.38512">
        <ele>138.57</ele>
        <time>2021-08-18T11:33:41Z</time>
      </trkpt>
      <trkpt lat="43.83579" lon="1.38511">
        <ele>138.57</ele>
        <time>2021-08-18T11:33:57Z</time>
      </trkpt>
      <trkpt lat="43.83577" lon="1.38513">
        <ele>138.57</ele>
        <time>2021-08-18T11:34:16Z</time>
      </trkpt>
      <trkpt lat="43.83577" lon="1.38512">
        <ele>138.57</ele>
        <time>2021-08-18T11:34:37Z</time>
      </trkpt>
      <trkpt lat="43.83577" lon="1.38511">
        <ele>138.57</ele>
        <time>2021-08-18T11:34:52Z</time>
      </trkpt>
      <trkpt lat="43.83578" lon="1.38512">
        <ele>138.57</ele>
        <time>2021-08-18T11:35:08Z</time>
      </trkpt>
      <trkpt lat="43.83577" lon="1.38512">
        <ele>138.57</ele>
        <time>2021-08-18T11:35:24Z</time>
      </trkpt>
      <trkpt lat="43.83575" lon="1.3851">
        <ele>139.05</ele>
        <time>2021-08-18T11:35:40Z</time>
      </trkpt>
      <trkpt lat="43.83575" lon="1.38511">
        <ele>139.05</ele>
        <time>2021-08-18T11:35:53Z</time>
      </trkpt>
      <trkpt lat="43.83575" lon="1.38512">
        <ele>139.05</ele>
        <time>2021-08-18T11:36:06Z</time>
      </trkpt>
      <trkpt lat="43.83577" lon="1.38513">
        <ele>139.05</ele>
        <time>2021-08-18T11:36:19Z</time>
      </trkpt>
      <trkpt lat="43.83577" lon="1.38515">
        <ele>139.05</ele>
        <time>2021-08-18T11:36:26Z</time>
      </trkpt>
      <trkpt lat="43.83577" lon="1.38517">
        <ele>139.05</ele>
        <time>2021-08-18T11:36:28Z</time>
      </trkpt>
      <trkpt lat="43.83573" lon="1.38523">
        <ele>139.05</ele>
        <time>2021-08-18T11:36:33Z</time>
      </trkpt>
      <trkpt lat="43.83571" lon="1.38521">
        <ele>139.05</ele>
        <time>2021-08-18T11:36:34Z</time>
      </trkpt>
      <trkpt lat="43.8357" lon="1.38518">
        <ele>139.05</ele>
        <time>2021-08-18T11:36:35Z</time>
      </trkpt>
      <trkpt lat="43.8357" lon="1.38515">
        <ele>139.05</ele>
        <time>2021-08-18T11:36:36Z</time>
      </trkpt>
      <trkpt lat="43.83569" lon="1.38512">
        <ele>139.05</ele>
        <time>2021-08-18T11:36:37Z</time>
      </trkpt>
      <trkpt lat="43.83569" lon="1.38509">
        <ele>139.05</ele>
        <time>2021-08-18T11:36:42Z</time>
      </trkpt>
      <trkpt lat="43.83568" lon="1.38506">
        <ele>139.05</ele>
        <time>2021-08-18T11:36:44Z</time>
      </trkpt>
      <trkpt lat="43.83568" lon="1.38504">
        <ele>139.05</ele>
        <time>2021-08-18T11:36:45Z</time>
      </trkpt>
      <trkpt lat="43.83561" lon="1.38484">
        <ele>139.53</ele>
        <time>2021-08-18T11:36:52Z</time>
      </trkpt>
      <trkpt lat="43.83555" lon="1.38458">
        <ele>140.49</ele>
        <time>2021-08-18T11:37:00Z</time>
      </trkpt>
      <trkpt lat="43.8355" lon="1.38433">
        <ele>141.93</ele>
        <time>2021-08-18T11:37:08Z</time>
      </trkpt>
      <trkpt lat="43.83545" lon="1.38407">
        <ele>142.41</ele>
        <time>2021-08-18T11:37:16Z</time>
      </trkpt>
      <trkpt lat="43.8354" lon="1.3838">
        <ele>143.37</ele>
        <time>2021-08-18T11:37:24Z</time>
      </trkpt>
      <trkpt lat="43.83535" lon="1.38354">
        <ele>144.34</ele>
        <time>2021-08-18T11:37:32Z</time>
      </trkpt>
      <trkpt lat="43.83531" lon="1.38324">
        <ele>144.82</ele>
        <time>2021-08-18T11:37:40Z</time>
      </trkpt>
      <trkpt lat="43.83525" lon="1.38286">
        <ele>145.3</ele>
        <time>2021-08-18T11:37:50Z</time>
      </trkpt>
      <trkpt lat="43.83521" lon="1.38259">
        <ele>145.78</ele>
        <time>2021-08-18T11:37:57Z</time>
      </trkpt>
      <trkpt lat="43.83516" lon="1.38235">
        <ele>146.26</ele>
        <time>2021-08-18T11:38:04Z</time>
      </trkpt>
      <trkpt lat="43.83508" lon="1.38209">
        <ele>147.22</ele>
        <time>2021-08-18T11:38:12Z</time>
      </trkpt>
      <trkpt lat="43.83497" lon="1.38187">
        <ele>147.7</ele>
        <time>2021-08-18T11:38:19Z</time>
      </trkpt>
      <trkpt lat="43.83478" lon="1.38166">
        <ele>148.18</ele>
        <time>2021-08-18T11:38:27Z</time>
      </trkpt>
      <trkpt lat="43.83455" lon="1.38138">
        <ele>149.62</ele>
        <time>2021-08-18T11:38:37Z</time>
      </trkpt>
      <trkpt lat="43.83434" lon="1.38115">
        <ele>150.58</ele>
        <time>2021-08-18T11:38:46Z</time>
      </trkpt>
      <trkpt lat="43.83416" lon="1.38092">
        <ele>152.03</ele>
        <time>2021-08-18T11:38:54Z</time>
      </trkpt>
      <trkpt lat="43.83394" lon="1.38063">
        <ele>152.99</ele>
        <time>2021-08-18T11:39:04Z</time>
      </trkpt>
      <trkpt lat="43.83377" lon="1.38039">
        <ele>153.95</ele>
        <time>2021-08-18T11:39:12Z</time>
      </trkpt>
      <trkpt lat="43.83357" lon="1.38015">
        <ele>154.91</ele>
        <time>2021-08-18T11:39:21Z</time>
      </trkpt>
      <trkpt lat="43.83337" lon="1.37991">
        <ele>155.39</ele>
        <time>2021-08-18T11:39:29Z</time>
      </trkpt>
      <trkpt lat="43.83318" lon="1.37969">
        <ele>155.87</ele>
        <time>2021-08-18T11:39:36Z</time>
      </trkpt>
      <trkpt lat="43.83293" lon="1.37948">
        <ele>156.35</ele>
        <time>2021-08-18T11:39:44Z</time>
      </trkpt>
      <trkpt lat="43.83262" lon="1.37927">
        <ele>156.35</ele>
        <time>2021-08-18T11:39:52Z</time>
      </trkpt>
      <trkpt lat="43.83225" lon="1.37895">
        <ele>156.83</ele>
        <time>2021-08-18T11:40:01Z</time>
      </trkpt>
      <trkpt lat="43.83192" lon="1.37851">
        <ele>155.39</ele>
        <time>2021-08-18T11:40:09Z</time>
      </trkpt>
      <trkpt lat="43.83151" lon="1.37805">
        <ele>153.95</ele>
        <time>2021-08-18T11:40:17Z</time>
      </trkpt>
      <trkpt lat="43.83117" lon="1.37774">
        <ele>152.99</ele>
        <time>2021-08-18T11:40:23Z</time>
      </trkpt>
      <trkpt lat="43.83073" lon="1.37726">
        <ele>152.51</ele>
        <time>2021-08-18T11:40:31Z</time>
      </trkpt>
      <trkpt lat="43.83027" lon="1.37673">
        <ele>152.51</ele>
        <time>2021-08-18T11:40:40Z</time>
      </trkpt>
      <trkpt lat="43.82995" lon="1.37635">
        <ele>153.47</ele>
        <time>2021-08-18T11:40:47Z</time>
      </trkpt>
      <trkpt lat="43.82973" lon="1.37609">
        <ele>153.47</ele>
        <time>2021-08-18T11:40:52Z</time>
      </trkpt>
      <trkpt lat="43.82933" lon="1.37562">
        <ele>155.39</ele>
        <time>2021-08-18T11:41:02Z</time>
      </trkpt>
      <trkpt lat="43.82902" lon="1.37524">
        <ele>155.87</ele>
        <time>2021-08-18T11:41:11Z</time>
      </trkpt>
      <trkpt lat="43.82892" lon="1.3751">
        <ele>156.83</ele>
        <time>2021-08-18T11:41:14Z</time>
      </trkpt>
      <trkpt lat="43.82862" lon="1.37469">
        <ele>157.31</ele>
        <time>2021-08-18T11:41:24Z</time>
      </trkpt>
      <trkpt lat="43.8284" lon="1.37432">
        <ele>157.31</ele>
        <time>2021-08-18T11:41:32Z</time>
      </trkpt>
      <trkpt lat="43.82834" lon="1.37423">
        <ele>157.31</ele>
        <time>2021-08-18T11:41:34Z</time>
      </trkpt>
      <trkpt lat="43.8281" lon="1.37392">
        <ele>154.91</ele>
        <time>2021-08-18T11:41:41Z</time>
      </trkpt>
      <trkpt lat="43.82776" lon="1.37365">
        <ele>154.91</ele>
        <time>2021-08-18T11:41:49Z</time>
      </trkpt>
      <trkpt lat="43.82733" lon="1.37333">
        <ele>153.47</ele>
        <time>2021-08-18T11:41:58Z</time>
      </trkpt>
      <trkpt lat="43.82701" lon="1.37294">
        <ele>152.99</ele>
        <time>2021-08-18T11:42:05Z</time>
      </trkpt>
      <trkpt lat="43.82665" lon="1.37233">
        <ele>152.03</ele>
        <time>2021-08-18T11:42:14Z</time>
      </trkpt>
      <trkpt lat="43.82633" lon="1.37175">
        <ele>152.03</ele>
        <time>2021-08-18T11:42:23Z</time>
      </trkpt>
      <trkpt lat="43.82593" lon="1.37101">
        <ele>152.99</ele>
        <time>2021-08-18T11:42:35Z</time>
      </trkpt>
      <trkpt lat="43.8257" lon="1.37058">
        <ele>153.95</ele>
        <time>2021-08-18T11:42:43Z</time>
      </trkpt>
      <trkpt lat="43.82556" lon="1.37031">
        <ele>153.95</ele>
        <time>2021-08-18T11:42:48Z</time>
      </trkpt>
      <trkpt lat="43.82552" lon="1.37026">
        <ele>154.91</ele>
        <time>2021-08-18T11:42:49Z</time>
      </trkpt>
      <trkpt lat="43.82516" lon="1.3695">
        <ele>154.91</ele>
        <time>2021-08-18T11:43:02Z</time>
      </trkpt>
      <trkpt lat="43.82488" lon="1.36893">
        <ele>155.39</ele>
        <time>2021-08-18T11:43:11Z</time>
      </trkpt>
      <trkpt lat="43.82462" lon="1.36833">
        <ele>155.87</ele>
        <time>2021-08-18T11:43:20Z</time>
      </trkpt>
      <trkpt lat="43.82434" lon="1.36775">
        <ele>156.35</ele>
        <time>2021-08-18T11:43:29Z</time>
      </trkpt>
      <trkpt lat="43.82431" lon="1.36768">
        <ele>156.35</ele>
        <time>2021-08-18T11:43:30Z</time>
      </trkpt>
      <trkpt lat="43.82411" lon="1.36723">
        <ele>156.83</ele>
        <time>2021-08-18T11:43:37Z</time>
      </trkpt>
      <trkpt lat="43.82389" lon="1.36675">
        <ele>156.83</ele>
        <time>2021-08-18T11:43:45Z</time>
      </trkpt>
      <trkpt lat="43.82358" lon="1.36613">
        <ele>157.79</ele>
        <time>2021-08-18T11:43:55Z</time>
      </trkpt>
      <trkpt lat="43.82343" lon="1.36582">
        <ele>158.27</ele>
        <time>2021-08-18T11:44:00Z</time>
      </trkpt>
      <trkpt lat="43.8234" lon="1.36575">
        <ele>158.27</ele>
        <time>2021-08-18T11:44:01Z</time>
      </trkpt>
      <trkpt lat="43.82337" lon="1.36568">
        <ele>158.27</ele>
        <time>2021-08-18T11:44:02Z</time>
      </trkpt>
      <trkpt lat="43.82305" lon="1.36517">
        <ele>158.27</ele>
        <time>2021-08-18T11:44:11Z</time>
      </trkpt>
      <trkpt lat="43.82272" lon="1.3648">
        <ele>158.27</ele>
        <time>2021-08-18T11:44:19Z</time>
      </trkpt>
      <trkpt lat="43.82231" lon="1.36432">
        <ele>159.72</ele>
        <time>2021-08-18T11:44:29Z</time>
      </trkpt>
      <trkpt lat="43.82214" lon="1.36415">
        <ele>159.72</ele>
        <time>2021-08-18T11:44:33Z</time>
      </trkpt>
      <trkpt lat="43.82176" lon="1.36368">
        <ele>160.68</ele>
        <time>2021-08-18T11:44:43Z</time>
      </trkpt>
      <trkpt lat="43.8215" lon="1.36341">
        <ele>160.68</ele>
        <time>2021-08-18T11:44:49Z</time>
      </trkpt>
      <trkpt lat="43.82146" lon="1.36337">
        <ele>160.68</ele>
        <time>2021-08-18T11:44:50Z</time>
      </trkpt>
      <trkpt lat="43.82138" lon="1.36328">
        <ele>161.16</ele>
        <time>2021-08-18T11:44:52Z</time>
      </trkpt>
      <trkpt lat="43.82089" lon="1.36282">
        <ele>162.12</ele>
        <time>2021-08-18T11:45:03Z</time>
      </trkpt>
      <trkpt lat="43.82057" lon="1.36249">
        <ele>162.6</ele>
        <time>2021-08-18T11:45:11Z</time>
      </trkpt>
      <trkpt lat="43.8201" lon="1.36208">
        <ele>162.6</ele>
        <time>2021-08-18T11:45:22Z</time>
      </trkpt>
      <trkpt lat="43.8196" lon="1.36173">
        <ele>163.08</ele>
        <time>2021-08-18T11:45:32Z</time>
      </trkpt>
      <trkpt lat="43.81914" lon="1.36127">
        <ele>163.08</ele>
        <time>2021-08-18T11:45:42Z</time>
      </trkpt>
      <trkpt lat="43.81866" lon="1.36083">
        <ele>163.56</ele>
        <time>2021-08-18T11:45:52Z</time>
      </trkpt>
      <trkpt lat="43.81824" lon="1.36053">
        <ele>163.56</ele>
        <time>2021-08-18T11:46:00Z</time>
      </trkpt>
      <trkpt lat="43.8178" lon="1.36029">
        <ele>164.04</ele>
        <time>2021-08-18T11:46:09Z</time>
      </trkpt>
      <trkpt lat="43.81758" lon="1.36019">
        <ele>162.6</ele>
        <time>2021-08-18T11:46:13Z</time>
      </trkpt>
      <trkpt lat="43.81719" lon="1.35995">
        <ele>162.6</ele>
        <time>2021-08-18T11:46:20Z</time>
      </trkpt>
      <trkpt lat="43.81686" lon="1.35957">
        <ele>162.6</ele>
        <time>2021-08-18T11:46:27Z</time>
      </trkpt>
      <trkpt lat="43.81655" lon="1.3592">
        <ele>162.6</ele>
        <time>2021-08-18T11:46:34Z</time>
      </trkpt>
      <trkpt lat="43.81625" lon="1.35875">
        <ele>163.56</ele>
        <time>2021-08-18T11:46:42Z</time>
      </trkpt>
      <trkpt lat="43.81609" lon="1.35847">
        <ele>164.52</ele>
        <time>2021-08-18T11:46:47Z</time>
      </trkpt>
      <trkpt lat="43.81597" lon="1.35824">
        <ele>165</ele>
        <time>2021-08-18T11:46:51Z</time>
      </trkpt>
      <trkpt lat="43.81587" lon="1.35809">
        <ele>165.48</ele>
        <time>2021-08-18T11:46:54Z</time>
      </trkpt>
      <trkpt lat="43.81567" lon="1.35783">
        <ele>165.96</ele>
        <time>2021-08-18T11:47:00Z</time>
      </trkpt>
      <trkpt lat="43.81557" lon="1.35771">
        <ele>166.45</ele>
        <time>2021-08-18T11:47:03Z</time>
      </trkpt>
      <trkpt lat="43.81554" lon="1.35767">
        <ele>166.45</ele>
        <time>2021-08-18T11:47:04Z</time>
      </trkpt>
      <trkpt lat="43.81522" lon="1.35724">
        <ele>166.93</ele>
        <time>2021-08-18T11:47:14Z</time>
      </trkpt>
      <trkpt lat="43.81495" lon="1.35692">
        <ele>167.41</ele>
        <time>2021-08-18T11:47:22Z</time>
      </trkpt>
      <trkpt lat="43.81488" lon="1.35684">
        <ele>167.89</ele>
        <time>2021-08-18T11:47:24Z</time>
      </trkpt>
      <trkpt lat="43.81485" lon="1.35681">
        <ele>167.89</ele>
        <time>2021-08-18T11:47:25Z</time>
      </trkpt>
      <trkpt lat="43.81455" lon="1.35658">
        <ele>168.85</ele>
        <time>2021-08-18T11:47:33Z</time>
      </trkpt>
      <trkpt lat="43.81453" lon="1.35652">
        <ele>168.85</ele>
        <time>2021-08-18T11:47:34Z</time>
      </trkpt>
      <trkpt lat="43.81451" lon="1.35647">
        <ele>168.85</ele>
        <time>2021-08-18T11:47:35Z</time>
      </trkpt>
      <trkpt lat="43.8143" lon="1.35615">
        <ele>169.81</ele>
        <time>2021-08-18T11:47:43Z</time>
      </trkpt>
      <trkpt lat="43.8141" lon="1.35587">
        <ele>170.77</ele>
        <time>2021-08-18T11:47:51Z</time>
      </trkpt>
      <trkpt lat="43.8139" lon="1.35563">
        <ele>171.73</ele>
        <time>2021-08-18T11:47:59Z</time>
      </trkpt>
      <trkpt lat="43.8137" lon="1.35537">
        <ele>172.69</ele>
        <time>2021-08-18T11:48:08Z</time>
      </trkpt>
      <trkpt lat="43.81351" lon="1.35512">
        <ele>174.14</ele>
        <time>2021-08-18T11:48:17Z</time>
      </trkpt>
      <trkpt lat="43.81333" lon="1.35484">
        <ele>175.58</ele>
        <time>2021-08-18T11:48:26Z</time>
      </trkpt>
      <trkpt lat="43.81324" lon="1.3547">
        <ele>176.06</ele>
        <time>2021-08-18T11:48:32Z</time>
      </trkpt>
      <trkpt lat="43.81324" lon="1.35471">
        <ele>176.06</ele>
        <time>2021-08-18T11:48:41Z</time>
      </trkpt>
      <trkpt lat="43.81325" lon="1.35471">
        <ele>176.54</ele>
        <time>2021-08-18T11:49:04Z</time>
      </trkpt>
      <trkpt lat="43.81325" lon="1.35472">
        <ele>176.54</ele>
        <time>2021-08-18T11:49:18Z</time>
      </trkpt>
      <trkpt lat="43.81325" lon="1.3547">
        <ele>176.54</ele>
        <time>2021-08-18T11:49:32Z</time>
      </trkpt>
      <trkpt lat="43.81315" lon="1.35455">
        <ele>177.5</ele>
        <time>2021-08-18T11:49:40Z</time>
      </trkpt>
      <trkpt lat="43.81312" lon="1.35454">
        <ele>177.5</ele>
        <time>2021-08-18T11:49:41Z</time>
      </trkpt>
      <trkpt lat="43.8131" lon="1.35452">
        <ele>177.02</ele>
        <time>2021-08-18T11:49:42Z</time>
      </trkpt>
      <trkpt lat="43.81309" lon="1.3545">
        <ele>177.02</ele>
        <time>2021-08-18T11:49:43Z</time>
      </trkpt>
      <trkpt lat="43.81307" lon="1.35447">
        <ele>177.02</ele>
        <time>2021-08-18T11:49:44Z</time>
      </trkpt>
      <trkpt lat="43.81305" lon="1.35444">
        <ele>177.02</ele>
        <time>2021-08-18T11:49:45Z</time>
      </trkpt>
      <trkpt lat="43.81296" lon="1.35429">
        <ele>178.46</ele>
        <time>2021-08-18T11:49:49Z</time>
      </trkpt>
      <trkpt lat="43.81275" lon="1.35392">
        <ele>179.42</ele>
        <time>2021-08-18T11:50:01Z</time>
      </trkpt>
      <trkpt lat="43.81258" lon="1.35366">
        <ele>180.38</ele>
        <time>2021-08-18T11:50:10Z</time>
      </trkpt>
      <trkpt lat="43.81243" lon="1.35343">
        <ele>182.31</ele>
        <time>2021-08-18T11:50:18Z</time>
      </trkpt>
      <trkpt lat="43.8123" lon="1.35324">
        <ele>183.27</ele>
        <time>2021-08-18T11:50:26Z</time>
      </trkpt>
      <trkpt lat="43.81217" lon="1.35304">
        <ele>184.23</ele>
        <time>2021-08-18T11:50:35Z</time>
      </trkpt>
      <trkpt lat="43.81202" lon="1.35281">
        <ele>185.67</ele>
        <time>2021-08-18T11:50:45Z</time>
      </trkpt>
      <trkpt lat="43.81187" lon="1.35265">
        <ele>187.59</ele>
        <time>2021-08-18T11:50:54Z</time>
      </trkpt>
      <trkpt lat="43.81178" lon="1.35253">
        <ele>188.56</ele>
        <time>2021-08-18T11:51:02Z</time>
      </trkpt>
      <trkpt lat="43.81169" lon="1.35236">
        <ele>190</ele>
        <time>2021-08-18T11:51:12Z</time>
      </trkpt>
      <trkpt lat="43.8116" lon="1.35223">
        <ele>191.44</ele>
        <time>2021-08-18T11:51:20Z</time>
      </trkpt>
      <trkpt lat="43.81151" lon="1.35211">
        <ele>192.88</ele>
        <time>2021-08-18T11:51:28Z</time>
      </trkpt>
      <trkpt lat="43.81141" lon="1.35197">
        <ele>194.8</ele>
        <time>2021-08-18T11:51:37Z</time>
      </trkpt>
      <trkpt lat="43.81132" lon="1.35181">
        <ele>196.25</ele>
        <time>2021-08-18T11:51:45Z</time>
      </trkpt>
      <trkpt lat="43.8112" lon="1.35163">
        <ele>198.17</ele>
        <time>2021-08-18T11:51:55Z</time>
      </trkpt>
      <trkpt lat="43.81111" lon="1.35145">
        <ele>200.09</ele>
        <time>2021-08-18T11:52:04Z</time>
      </trkpt>
      <trkpt lat="43.81101" lon="1.35125">
        <ele>201.53</ele>
        <time>2021-08-18T11:52:13Z</time>
      </trkpt>
      <trkpt lat="43.81087" lon="1.35102">
        <ele>202.98</ele>
        <time>2021-08-18T11:52:23Z</time>
      </trkpt>
      <trkpt lat="43.81068" lon="1.35076">
        <ele>204.42</ele>
        <time>2021-08-18T11:52:33Z</time>
      </trkpt>
      <trkpt lat="43.81051" lon="1.35056">
        <ele>205.86</ele>
        <time>2021-08-18T11:52:41Z</time>
      </trkpt>
      <trkpt lat="43.81032" lon="1.35032">
        <ele>207.3</ele>
        <time>2021-08-18T11:52:50Z</time>
      </trkpt>
      <trkpt lat="43.81013" lon="1.35013">
        <ele>209.22</ele>
        <time>2021-08-18T11:52:59Z</time>
      </trkpt>
      <trkpt lat="43.80997" lon="1.34998">
        <ele>209.22</ele>
        <time>2021-08-18T11:53:06Z</time>
      </trkpt>
      <trkpt lat="43.80979" lon="1.34983">
        <ele>210.67</ele>
        <time>2021-08-18T11:53:13Z</time>
      </trkpt>
      <trkpt lat="43.80956" lon="1.34961">
        <ele>211.15</ele>
        <time>2021-08-18T11:53:21Z</time>
      </trkpt>
      <trkpt lat="43.80934" lon="1.34942">
        <ele>210.19</ele>
        <time>2021-08-18T11:53:28Z</time>
      </trkpt>
      <trkpt lat="43.80893" lon="1.34912">
        <ele>208.74</ele>
        <time>2021-08-18T11:53:37Z</time>
      </trkpt>
      <trkpt lat="43.80867" lon="1.3489">
        <ele>207.78</ele>
        <time>2021-08-18T11:53:42Z</time>
      </trkpt>
      <trkpt lat="43.80837" lon="1.3485">
        <ele>206.82</ele>
        <time>2021-08-18T11:53:49Z</time>
      </trkpt>
      <trkpt lat="43.80823" lon="1.34828">
        <ele>208.26</ele>
        <time>2021-08-18T11:53:54Z</time>
      </trkpt>
      <trkpt lat="43.80806" lon="1.348">
        <ele>209.22</ele>
        <time>2021-08-18T11:54:01Z</time>
      </trkpt>
      <trkpt lat="43.80787" lon="1.34773">
        <ele>211.63</ele>
        <time>2021-08-18T11:54:08Z</time>
      </trkpt>
      <trkpt lat="43.80765" lon="1.34742">
        <ele>213.07</ele>
        <time>2021-08-18T11:54:16Z</time>
      </trkpt>
      <trkpt lat="43.8074" lon="1.34698">
        <ele>214.51</ele>
        <time>2021-08-18T11:54:26Z</time>
      </trkpt>
      <trkpt lat="43.80716" lon="1.34659">
        <ele>214.99</ele>
        <time>2021-08-18T11:54:35Z</time>
      </trkpt>
      <trkpt lat="43.80706" lon="1.34643">
        <ele>213.55</ele>
        <time>2021-08-18T11:54:38Z</time>
      </trkpt>
      <trkpt lat="43.80703" lon="1.34638">
        <ele>213.55</ele>
        <time>2021-08-18T11:54:39Z</time>
      </trkpt>
      <trkpt lat="43.80674" lon="1.34602">
        <ele>209.22</ele>
        <time>2021-08-18T11:54:45Z</time>
      </trkpt>
      <trkpt lat="43.80653" lon="1.34577">
        <ele>205.38</ele>
        <time>2021-08-18T11:54:48Z</time>
      </trkpt>
      <trkpt lat="43.80626" lon="1.34547">
        <ele>201.05</ele>
        <time>2021-08-18T11:54:51Z</time>
      </trkpt>
      <trkpt lat="43.80596" lon="1.34513">
        <ele>197.69</ele>
        <time>2021-08-18T11:54:54Z</time>
      </trkpt>
      <trkpt lat="43.80561" lon="1.34463">
        <ele>195.77</ele>
        <time>2021-08-18T11:54:58Z</time>
      </trkpt>
      <trkpt lat="43.80542" lon="1.34421">
        <ele>193.36</ele>
        <time>2021-08-18T11:55:01Z</time>
      </trkpt>
      <trkpt lat="43.80509" lon="1.34351">
        <ele>197.21</ele>
        <time>2021-08-18T11:55:07Z</time>
      </trkpt>
      <trkpt lat="43.80485" lon="1.34303">
        <ele>199.13</ele>
        <time>2021-08-18T11:55:13Z</time>
      </trkpt>
      <trkpt lat="43.80476" lon="1.34287">
        <ele>200.57</ele>
        <time>2021-08-18T11:55:16Z</time>
      </trkpt>
      <trkpt lat="43.80461" lon="1.34261">
        <ele>202.01</ele>
        <time>2021-08-18T11:55:23Z</time>
      </trkpt>
      <trkpt lat="43.8045" lon="1.34246">
        <ele>203.46</ele>
        <time>2021-08-18T11:55:30Z</time>
      </trkpt>
      <trkpt lat="43.80434" lon="1.34228">
        <ele>205.38</ele>
        <time>2021-08-18T11:55:40Z</time>
      </trkpt>
      <trkpt lat="43.80415" lon="1.34208">
        <ele>208.26</ele>
        <time>2021-08-18T11:55:51Z</time>
      </trkpt>
      <trkpt lat="43.80401" lon="1.34196">
        <ele>210.19</ele>
        <time>2021-08-18T11:55:58Z</time>
      </trkpt>
      <trkpt lat="43.80379" lon="1.34176">
        <ele>212.11</ele>
        <time>2021-08-18T11:56:08Z</time>
      </trkpt>
      <trkpt lat="43.80359" lon="1.34157">
        <ele>212.59</ele>
        <time>2021-08-18T11:56:16Z</time>
      </trkpt>
      <trkpt lat="43.8033" lon="1.34128">
        <ele>213.07</ele>
        <time>2021-08-18T11:56:26Z</time>
      </trkpt>
      <trkpt lat="43.80307" lon="1.34086">
        <ele>213.55</ele>
        <time>2021-08-18T11:56:36Z</time>
      </trkpt>
      <trkpt lat="43.80301" lon="1.34069">
        <ele>212.11</ele>
        <time>2021-08-18T11:56:39Z</time>
      </trkpt>
      <trkpt lat="43.80299" lon="1.34063">
        <ele>212.11</ele>
        <time>2021-08-18T11:56:40Z</time>
      </trkpt>
      <trkpt lat="43.80292" lon="1.34037">
        <ele>208.74</ele>
        <time>2021-08-18T11:56:44Z</time>
      </trkpt>
      <trkpt lat="43.80291" lon="1.34031">
        <ele>208.74</ele>
        <time>2021-08-18T11:56:45Z</time>
      </trkpt>
      <trkpt lat="43.80287" lon="1.34021">
        <ele>206.82</ele>
        <time>2021-08-18T11:56:47Z</time>
      </trkpt>
      <trkpt lat="43.80278" lon="1.33995">
        <ele>202.98</ele>
        <time>2021-08-18T11:56:51Z</time>
      </trkpt>
      <trkpt lat="43.80267" lon="1.33974">
        <ele>199.61</ele>
        <time>2021-08-18T11:56:55Z</time>
      </trkpt>
      <trkpt lat="43.80259" lon="1.33948">
        <ele>195.77</ele>
        <time>2021-08-18T11:56:59Z</time>
      </trkpt>
      <trkpt lat="43.80254" lon="1.33922">
        <ele>192.4</ele>
        <time>2021-08-18T11:57:02Z</time>
      </trkpt>
      <trkpt lat="43.80248" lon="1.33879">
        <ele>189.04</ele>
        <time>2021-08-18T11:57:07Z</time>
      </trkpt>
      <trkpt lat="43.80241" lon="1.33851">
        <ele>185.67</ele>
        <time>2021-08-18T11:57:10Z</time>
      </trkpt>
      <trkpt lat="43.80235" lon="1.33831">
        <ele>181.83</ele>
        <time>2021-08-18T11:57:12Z</time>
      </trkpt>
      <trkpt lat="43.80229" lon="1.33812">
        <ele>178.46</ele>
        <time>2021-08-18T11:57:14Z</time>
      </trkpt>
      <trkpt lat="43.80227" lon="1.33803">
        <ele>177.02</ele>
        <time>2021-08-18T11:57:15Z</time>
      </trkpt>
      <trkpt lat="43.80221" lon="1.33774">
        <ele>173.66</ele>
        <time>2021-08-18T11:57:18Z</time>
      </trkpt>
      <trkpt lat="43.80217" lon="1.33752">
        <ele>170.29</ele>
        <time>2021-08-18T11:57:20Z</time>
      </trkpt>
      <trkpt lat="43.80212" lon="1.33715">
        <ele>166.45</ele>
        <time>2021-08-18T11:57:23Z</time>
      </trkpt>
      <trkpt lat="43.80208" lon="1.3368">
        <ele>163.08</ele>
        <time>2021-08-18T11:57:26Z</time>
      </trkpt>
      <trkpt lat="43.80207" lon="1.33668">
        <ele>163.08</ele>
        <time>2021-08-18T11:57:27Z</time>
      </trkpt>
      <trkpt lat="43.80207" lon="1.33644">
        <ele>161.64</ele>
        <time>2021-08-18T11:57:29Z</time>
      </trkpt>
      <trkpt lat="43.80207" lon="1.33599">
        <ele>158.27</ele>
        <time>2021-08-18T11:57:33Z</time>
      </trkpt>
      <trkpt lat="43.80206" lon="1.33588">
        <ele>158.27</ele>
        <time>2021-08-18T11:57:34Z</time>
      </trkpt>
      <trkpt lat="43.80208" lon="1.33529">
        <ele>155.39</ele>
        <time>2021-08-18T11:57:39Z</time>
      </trkpt>
      <trkpt lat="43.80209" lon="1.33519">
        <ele>155.39</ele>
        <time>2021-08-18T11:57:40Z</time>
      </trkpt>
      <trkpt lat="43.80208" lon="1.33489">
        <ele>153.47</ele>
        <time>2021-08-18T11:57:43Z</time>
      </trkpt>
      <trkpt lat="43.80207" lon="1.33479">
        <ele>152.99</ele>
        <time>2021-08-18T11:57:44Z</time>
      </trkpt>
      <trkpt lat="43.80205" lon="1.33469">
        <ele>152.51</ele>
        <time>2021-08-18T11:57:45Z</time>
      </trkpt>
      <trkpt lat="43.80194" lon="1.33421">
        <ele>149.14</ele>
        <time>2021-08-18T11:57:50Z</time>
      </trkpt>
      <trkpt lat="43.80186" lon="1.33391">
        <ele>147.22</ele>
        <time>2021-08-18T11:57:53Z</time>
      </trkpt>
      <trkpt lat="43.80175" lon="1.3335">
        <ele>144.34</ele>
        <time>2021-08-18T11:57:57Z</time>
      </trkpt>
      <trkpt lat="43.80173" lon="1.3334">
        <ele>144.34</ele>
        <time>2021-08-18T11:57:58Z</time>
      </trkpt>
      <trkpt lat="43.80171" lon="1.33287">
        <ele>140.97</ele>
        <time>2021-08-18T11:58:03Z</time>
      </trkpt>
      <trkpt lat="43.80171" lon="1.33276">
        <ele>140.97</ele>
        <time>2021-08-18T11:58:04Z</time>
      </trkpt>
      <trkpt lat="43.80175" lon="1.3323">
        <ele>138.57</ele>
        <time>2021-08-18T11:58:08Z</time>
      </trkpt>
      <trkpt lat="43.80177" lon="1.33219">
        <ele>138.57</ele>
        <time>2021-08-18T11:58:09Z</time>
      </trkpt>
      <trkpt lat="43.80179" lon="1.33208">
        <ele>138.57</ele>
        <time>2021-08-18T11:58:10Z</time>
      </trkpt>
      <trkpt lat="43.80182" lon="1.33198">
        <ele>138.09</ele>
        <time>2021-08-18T11:58:11Z</time>
      </trkpt>
      <trkpt lat="43.80186" lon="1.33189">
        <ele>137.61</ele>
        <time>2021-08-18T11:58:12Z</time>
      </trkpt>
      <trkpt lat="43.80191" lon="1.3318">
        <ele>137.13</ele>
        <time>2021-08-18T11:58:13Z</time>
      </trkpt>
      <trkpt lat="43.80196" lon="1.33172">
        <ele>136.64</ele>
        <time>2021-08-18T11:58:14Z</time>
      </trkpt>
      <trkpt lat="43.80202" lon="1.33164">
        <ele>135.68</ele>
        <time>2021-08-18T11:58:15Z</time>
      </trkpt>
      <trkpt lat="43.80208" lon="1.33158">
        <ele>135.68</ele>
        <time>2021-08-18T11:58:16Z</time>
      </trkpt>
      <trkpt lat="43.8024" lon="1.33126">
        <ele>135.2</ele>
        <time>2021-08-18T11:58:22Z</time>
      </trkpt>
      <trkpt lat="43.8025" lon="1.33115">
        <ele>135.2</ele>
        <time>2021-08-18T11:58:25Z</time>
      </trkpt>
      <trkpt lat="43.80249" lon="1.33111">
        <ele>135.2</ele>
        <time>2021-08-18T11:58:26Z</time>
      </trkpt>
      <trkpt lat="43.80247" lon="1.33107">
        <ele>135.2</ele>
        <time>2021-08-18T11:58:27Z</time>
      </trkpt>
      <trkpt lat="43.80244" lon="1.33105">
        <ele>135.2</ele>
        <time>2021-08-18T11:58:28Z</time>
      </trkpt>
      <trkpt lat="43.80241" lon="1.33105">
        <ele>135.2</ele>
        <time>2021-08-18T11:58:29Z</time>
      </trkpt>
      <trkpt lat="43.80237" lon="1.33105">
        <ele>134.72</ele>
        <time>2021-08-18T11:58:30Z</time>
      </trkpt>
      <trkpt lat="43.80217" lon="1.33103">
        <ele>133.28</ele>
        <time>2021-08-18T11:58:34Z</time>
      </trkpt>
      <trkpt lat="43.80183" lon="1.33096">
        <ele>130.4</ele>
        <time>2021-08-18T11:58:39Z</time>
      </trkpt>
      <trkpt lat="43.80175" lon="1.33096">
        <ele>129.43</ele>
        <time>2021-08-18T11:58:40Z</time>
      </trkpt>
      <trkpt lat="43.80167" lon="1.33097">
        <ele>129.43</ele>
        <time>2021-08-18T11:58:41Z</time>
      </trkpt>
      <trkpt lat="43.80159" lon="1.331">
        <ele>128.47</ele>
        <time>2021-08-18T11:58:42Z</time>
      </trkpt>
      <trkpt lat="43.80152" lon="1.33106">
        <ele>127.99</ele>
        <time>2021-08-18T11:58:43Z</time>
      </trkpt>
      <trkpt lat="43.80144" lon="1.33113">
        <ele>127.99</ele>
        <time>2021-08-18T11:58:44Z</time>
      </trkpt>
      <trkpt lat="43.80138" lon="1.33121">
        <ele>127.03</ele>
        <time>2021-08-18T11:58:45Z</time>
      </trkpt>
      <trkpt lat="43.80131" lon="1.33127">
        <ele>126.55</ele>
        <time>2021-08-18T11:58:46Z</time>
      </trkpt>
      <trkpt lat="43.80123" lon="1.33133">
        <ele>125.11</ele>
        <time>2021-08-18T11:58:47Z</time>
      </trkpt>
      <trkpt lat="43.80115" lon="1.33137">
        <ele>124.63</ele>
        <time>2021-08-18T11:58:48Z</time>
      </trkpt>
      <trkpt lat="43.80105" lon="1.33138">
        <ele>123.19</ele>
        <time>2021-08-18T11:58:49Z</time>
      </trkpt>
      <trkpt lat="43.80096" lon="1.33137">
        <ele>122.71</ele>
        <time>2021-08-18T11:58:50Z</time>
      </trkpt>
      <trkpt lat="43.80085" lon="1.33136">
        <ele>121.74</ele>
        <time>2021-08-18T11:58:51Z</time>
      </trkpt>
      <trkpt lat="43.80065" lon="1.3313">
        <ele>120.78</ele>
        <time>2021-08-18T11:58:53Z</time>
      </trkpt>
      <trkpt lat="43.80046" lon="1.33125">
        <ele>119.34</ele>
        <time>2021-08-18T11:58:55Z</time>
      </trkpt>
      <trkpt lat="43.80014" lon="1.33115">
        <ele>117.42</ele>
        <time>2021-08-18T11:58:59Z</time>
      </trkpt>
      <trkpt lat="43.80009" lon="1.33112">
        <ele>116.94</ele>
        <time>2021-08-18T11:59:00Z</time>
      </trkpt>
      <trkpt lat="43.79984" lon="1.33094">
        <ele>116.46</ele>
        <time>2021-08-18T11:59:06Z</time>
      </trkpt>
      <trkpt lat="43.79975" lon="1.33084">
        <ele>115.98</ele>
        <time>2021-08-18T11:59:08Z</time>
      </trkpt>
      <trkpt lat="43.79934" lon="1.33026">
        <ele>114.05</ele>
        <time>2021-08-18T11:59:17Z</time>
      </trkpt>
      <trkpt lat="43.79898" lon="1.3298">
        <ele>112.61</ele>
        <time>2021-08-18T11:59:24Z</time>
      </trkpt>
      <trkpt lat="43.79875" lon="1.32956">
        <ele>112.13</ele>
        <time>2021-08-18T11:59:28Z</time>
      </trkpt>
      <trkpt lat="43.79868" lon="1.32953">
        <ele>112.13</ele>
        <time>2021-08-18T11:59:29Z</time>
      </trkpt>
      <trkpt lat="43.79862" lon="1.32954">
        <ele>112.13</ele>
        <time>2021-08-18T11:59:30Z</time>
      </trkpt>
      <trkpt lat="43.79857" lon="1.32957">
        <ele>112.13</ele>
        <time>2021-08-18T11:59:31Z</time>
      </trkpt>
      <trkpt lat="43.79852" lon="1.32962">
        <ele>112.13</ele>
        <time>2021-08-18T11:59:32Z</time>
      </trkpt>
      <trkpt lat="43.79841" lon="1.32975">
        <ele>113.09</ele>
        <time>2021-08-18T11:59:35Z</time>
      </trkpt>
      <trkpt lat="43.79826" lon="1.32985">
        <ele>114.05</ele>
        <time>2021-08-18T11:59:39Z</time>
      </trkpt>
      <trkpt lat="43.79822" lon="1.32985">
        <ele>115.01</ele>
        <time>2021-08-18T11:59:40Z</time>
      </trkpt>
      <trkpt lat="43.79819" lon="1.32983">
        <ele>115.01</ele>
        <time>2021-08-18T11:59:41Z</time>
      </trkpt>
      <trkpt lat="43.79815" lon="1.32981">
        <ele>115.5</ele>
        <time>2021-08-18T11:59:42Z</time>
      </trkpt>
      <trkpt lat="43.79813" lon="1.32978">
        <ele>115.5</ele>
        <time>2021-08-18T11:59:43Z</time>
      </trkpt>
      <trkpt lat="43.7981" lon="1.32975">
        <ele>115.5</ele>
        <time>2021-08-18T11:59:44Z</time>
      </trkpt>
      <trkpt lat="43.79801" lon="1.32954">
        <ele>116.46</ele>
        <time>2021-08-18T11:59:50Z</time>
      </trkpt>
      <trkpt lat="43.79796" lon="1.32945">
        <ele>116.46</ele>
        <time>2021-08-18T11:59:52Z</time>
      </trkpt>
      <trkpt lat="43.79792" lon="1.3294">
        <ele>116.46</ele>
        <time>2021-08-18T11:59:53Z</time>
      </trkpt>
      <trkpt lat="43.7979" lon="1.32934">
        <ele>115.5</ele>
        <time>2021-08-18T11:59:54Z</time>
      </trkpt>
      <trkpt lat="43.79787" lon="1.32928">
        <ele>115.5</ele>
        <time>2021-08-18T11:59:55Z</time>
      </trkpt>
      <trkpt lat="43.79784" lon="1.32922">
        <ele>115.5</ele>
        <time>2021-08-18T11:59:56Z</time>
      </trkpt>
      <trkpt lat="43.79764" lon="1.32893">
        <ele>112.61</ele>
        <time>2021-08-18T12:00:01Z</time>
      </trkpt>
      <trkpt lat="43.79759" lon="1.32889">
        <ele>112.61</ele>
        <time>2021-08-18T12:00:02Z</time>
      </trkpt>
      <trkpt lat="43.79717" lon="1.32843">
        <ele>112.61</ele>
        <time>2021-08-18T12:00:11Z</time>
      </trkpt>
      <trkpt lat="43.79685" lon="1.32794">
        <ele>111.17</ele>
        <time>2021-08-18T12:00:19Z</time>
      </trkpt>
      <trkpt lat="43.79645" lon="1.32723">
        <ele>111.17</ele>
        <time>2021-08-18T12:00:30Z</time>
      </trkpt>
      <trkpt lat="43.79611" lon="1.32676">
        <ele>111.17</ele>
        <time>2021-08-18T12:00:38Z</time>
      </trkpt>
      <trkpt lat="43.79562" lon="1.32602">
        <ele>111.17</ele>
        <time>2021-08-18T12:00:50Z</time>
      </trkpt>
      <trkpt lat="43.79529" lon="1.32552">
        <ele>110.69</ele>
        <time>2021-08-18T12:00:58Z</time>
      </trkpt>
      <trkpt lat="43.79497" lon="1.32505">
        <ele>110.69</ele>
        <time>2021-08-18T12:01:06Z</time>
      </trkpt>
      <trkpt lat="43.79456" lon="1.32446">
        <ele>110.69</ele>
        <time>2021-08-18T12:01:16Z</time>
      </trkpt>
      <trkpt lat="43.79413" lon="1.32388">
        <ele>110.69</ele>
        <time>2021-08-18T12:01:26Z</time>
      </trkpt>
      <trkpt lat="43.79386" lon="1.32354">
        <ele>110.69</ele>
        <time>2021-08-18T12:01:32Z</time>
      </trkpt>
      <trkpt lat="43.79352" lon="1.32304">
        <ele>110.21</ele>
        <time>2021-08-18T12:01:40Z</time>
      </trkpt>
      <trkpt lat="43.79311" lon="1.32254">
        <ele>110.21</ele>
        <time>2021-08-18T12:01:49Z</time>
      </trkpt>
      <trkpt lat="43.79284" lon="1.32236">
        <ele>110.21</ele>
        <time>2021-08-18T12:01:54Z</time>
      </trkpt>
      <trkpt lat="43.79222" lon="1.32208">
        <ele>109.73</ele>
        <time>2021-08-18T12:02:05Z</time>
      </trkpt>
      <trkpt lat="43.79198" lon="1.322">
        <ele>109.73</ele>
        <time>2021-08-18T12:02:09Z</time>
      </trkpt>
      <trkpt lat="43.7918" lon="1.32195">
        <ele>109.73</ele>
        <time>2021-08-18T12:02:12Z</time>
      </trkpt>
      <trkpt lat="43.79162" lon="1.32187">
        <ele>109.73</ele>
        <time>2021-08-18T12:02:15Z</time>
      </trkpt>
      <trkpt lat="43.79112" lon="1.32174">
        <ele>109.73</ele>
        <time>2021-08-18T12:02:23Z</time>
      </trkpt>
      <trkpt lat="43.79068" lon="1.32173">
        <ele>109.73</ele>
        <time>2021-08-18T12:02:30Z</time>
      </trkpt>
      <trkpt lat="43.79025" lon="1.3219">
        <ele>109.73</ele>
        <time>2021-08-18T12:02:37Z</time>
      </trkpt>
      <trkpt lat="43.79019" lon="1.32192">
        <ele>109.73</ele>
        <time>2021-08-18T12:02:38Z</time>
      </trkpt>
      <trkpt lat="43.79014" lon="1.32192">
        <ele>109.73</ele>
        <time>2021-08-18T12:02:39Z</time>
      </trkpt>
      <trkpt lat="43.79008" lon="1.32189">
        <ele>109.73</ele>
        <time>2021-08-18T12:02:40Z</time>
      </trkpt>
      <trkpt lat="43.79004" lon="1.32184">
        <ele>109.73</ele>
        <time>2021-08-18T12:02:41Z</time>
      </trkpt>
      <trkpt lat="43.79001" lon="1.32178">
        <ele>109.73</ele>
        <time>2021-08-18T12:02:42Z</time>
      </trkpt>
      <trkpt lat="43.78999" lon="1.32172">
        <ele>109.73</ele>
        <time>2021-08-18T12:02:43Z</time>
      </trkpt>
      <trkpt lat="43.78997" lon="1.32166">
        <ele>109.73</ele>
        <time>2021-08-18T12:02:44Z</time>
      </trkpt>
      <trkpt lat="43.78993" lon="1.32154">
        <ele>109.73</ele>
        <time>2021-08-18T12:02:46Z</time>
      </trkpt>
      <trkpt lat="43.78976" lon="1.3211">
        <ele>109.73</ele>
        <time>2021-08-18T12:02:54Z</time>
      </trkpt>
      <trkpt lat="43.78949" lon="1.32049">
        <ele>109.73</ele>
        <time>2021-08-18T12:03:04Z</time>
      </trkpt>
      <trkpt lat="43.7892" lon="1.31985">
        <ele>109.73</ele>
        <time>2021-08-18T12:03:14Z</time>
      </trkpt>
      <trkpt lat="43.7891" lon="1.3196">
        <ele>109.73</ele>
        <time>2021-08-18T12:03:18Z</time>
      </trkpt>
      <trkpt lat="43.78895" lon="1.31928">
        <ele>109.73</ele>
        <time>2021-08-18T12:03:24Z</time>
      </trkpt>
      <trkpt lat="43.78877" lon="1.31884">
        <ele>109.73</ele>
        <time>2021-08-18T12:03:32Z</time>
      </trkpt>
      <trkpt lat="43.78852" lon="1.3183">
        <ele>109.73</ele>
        <time>2021-08-18T12:03:42Z</time>
      </trkpt>
      <trkpt lat="43.78847" lon="1.31821">
        <ele>109.73</ele>
        <time>2021-08-18T12:03:44Z</time>
      </trkpt>
      <trkpt lat="43.78838" lon="1.31806">
        <ele>111.17</ele>
        <time>2021-08-18T12:03:47Z</time>
      </trkpt>
      <trkpt lat="43.78804" lon="1.31754">
        <ele>109.73</ele>
        <time>2021-08-18T12:03:57Z</time>
      </trkpt>
      <trkpt lat="43.78766" lon="1.31692">
        <ele>109.73</ele>
        <time>2021-08-18T12:04:08Z</time>
      </trkpt>
      <trkpt lat="43.78729" lon="1.31636">
        <ele>109.73</ele>
        <time>2021-08-18T12:04:18Z</time>
      </trkpt>
      <trkpt lat="43.78696" lon="1.31585">
        <ele>109.25</ele>
        <time>2021-08-18T12:04:27Z</time>
      </trkpt>
      <trkpt lat="43.78662" lon="1.31545">
        <ele>109.25</ele>
        <time>2021-08-18T12:04:35Z</time>
      </trkpt>
      <trkpt lat="43.78658" lon="1.31541">
        <ele>109.25</ele>
        <time>2021-08-18T12:04:36Z</time>
      </trkpt>
      <trkpt lat="43.78654" lon="1.31537">
        <ele>109.25</ele>
        <time>2021-08-18T12:04:37Z</time>
      </trkpt>
      <trkpt lat="43.78631" lon="1.31515">
        <ele>109.25</ele>
        <time>2021-08-18T12:04:42Z</time>
      </trkpt>
      <trkpt lat="43.78626" lon="1.31511">
        <ele>109.25</ele>
        <time>2021-08-18T12:04:43Z</time>
      </trkpt>
      <trkpt lat="43.78593" lon="1.31467">
        <ele>110.69</ele>
        <time>2021-08-18T12:04:51Z</time>
      </trkpt>
      <trkpt lat="43.78569" lon="1.31432">
        <ele>110.69</ele>
        <time>2021-08-18T12:04:58Z</time>
      </trkpt>
      <trkpt lat="43.78528" lon="1.31371">
        <ele>110.69</ele>
        <time>2021-08-18T12:05:09Z</time>
      </trkpt>
      <trkpt lat="43.78491" lon="1.31314">
        <ele>110.69</ele>
        <time>2021-08-18T12:05:19Z</time>
      </trkpt>
      <trkpt lat="43.78454" lon="1.31256">
        <ele>110.69</ele>
        <time>2021-08-18T12:05:29Z</time>
      </trkpt>
      <trkpt lat="43.78446" lon="1.31244">
        <ele>110.69</ele>
        <time>2021-08-18T12:05:31Z</time>
      </trkpt>
      <trkpt lat="43.78411" lon="1.31194">
        <ele>110.69</ele>
        <time>2021-08-18T12:05:40Z</time>
      </trkpt>
      <trkpt lat="43.78375" lon="1.31136">
        <ele>110.69</ele>
        <time>2021-08-18T12:05:50Z</time>
      </trkpt>
      <trkpt lat="43.78339" lon="1.3107">
        <ele>110.69</ele>
        <time>2021-08-18T12:06:01Z</time>
      </trkpt>
      <trkpt lat="43.78304" lon="1.31004">
        <ele>111.17</ele>
        <time>2021-08-18T12:06:12Z</time>
      </trkpt>
      <trkpt lat="43.78291" lon="1.3098">
        <ele>110.21</ele>
        <time>2021-08-18T12:06:16Z</time>
      </trkpt>
      <trkpt lat="43.78268" lon="1.30929">
        <ele>110.21</ele>
        <time>2021-08-18T12:06:24Z</time>
      </trkpt>
      <trkpt lat="43.78245" lon="1.30878">
        <ele>110.21</ele>
        <time>2021-08-18T12:06:33Z</time>
      </trkpt>
      <trkpt lat="43.78243" lon="1.30874">
        <ele>110.21</ele>
        <time>2021-08-18T12:06:34Z</time>
      </trkpt>
      <trkpt lat="43.78241" lon="1.3087">
        <ele>110.21</ele>
        <time>2021-08-18T12:06:35Z</time>
      </trkpt>
      <trkpt lat="43.78234" lon="1.30856">
        <ele>111.17</ele>
        <time>2021-08-18T12:06:38Z</time>
      </trkpt>
      <trkpt lat="43.78232" lon="1.30851">
        <ele>111.17</ele>
        <time>2021-08-18T12:06:39Z</time>
      </trkpt>
      <trkpt lat="43.78219" lon="1.30824">
        <ele>111.17</ele>
        <time>2021-08-18T12:06:46Z</time>
      </trkpt>
      <trkpt lat="43.78216" lon="1.30825">
        <ele>111.17</ele>
        <time>2021-08-18T12:06:47Z</time>
      </trkpt>
      <trkpt lat="43.78195" lon="1.30833">
        <ele>111.17</ele>
        <time>2021-08-18T12:06:53Z</time>
      </trkpt>
      <trkpt lat="43.78185" lon="1.30837">
        <ele>111.17</ele>
        <time>2021-08-18T12:06:55Z</time>
      </trkpt>
      <trkpt lat="43.78181" lon="1.30839">
        <ele>111.17</ele>
        <time>2021-08-18T12:06:56Z</time>
      </trkpt>
      <trkpt lat="43.78134" lon="1.30854">
        <ele>111.17</ele>
        <time>2021-08-18T12:07:06Z</time>
      </trkpt>
      <trkpt lat="43.78099" lon="1.30865">
        <ele>111.17</ele>
        <time>2021-08-18T12:07:14Z</time>
      </trkpt>
      <trkpt lat="43.78095" lon="1.30866">
        <ele>111.17</ele>
        <time>2021-08-18T12:07:15Z</time>
      </trkpt>
      <trkpt lat="43.7809" lon="1.30867">
        <ele>111.17</ele>
        <time>2021-08-18T12:07:16Z</time>
      </trkpt>
      <trkpt lat="43.78066" lon="1.30866">
        <ele>111.17</ele>
        <time>2021-08-18T12:07:22Z</time>
      </trkpt>
      <trkpt lat="43.78062" lon="1.30862">
        <ele>111.17</ele>
        <time>2021-08-18T12:07:23Z</time>
      </trkpt>
      <trkpt lat="43.78061" lon="1.30857">
        <ele>111.17</ele>
        <time>2021-08-18T12:07:24Z</time>
      </trkpt>
      <trkpt lat="43.7806" lon="1.30852">
        <ele>111.17</ele>
        <time>2021-08-18T12:07:25Z</time>
      </trkpt>
      <trkpt lat="43.7806" lon="1.30846">
        <ele>111.17</ele>
        <time>2021-08-18T12:07:26Z</time>
      </trkpt>
      <trkpt lat="43.78059" lon="1.3084">
        <ele>111.17</ele>
        <time>2021-08-18T12:07:27Z</time>
      </trkpt>
      <trkpt lat="43.78057" lon="1.30834">
        <ele>109.73</ele>
        <time>2021-08-18T12:07:28Z</time>
      </trkpt>
      <trkpt lat="43.78055" lon="1.30829">
        <ele>109.73</ele>
        <time>2021-08-18T12:07:29Z</time>
      </trkpt>
      <trkpt lat="43.78051" lon="1.30824">
        <ele>109.73</ele>
        <time>2021-08-18T12:07:30Z</time>
      </trkpt>
      <trkpt lat="43.78048" lon="1.30819">
        <ele>109.25</ele>
        <time>2021-08-18T12:07:31Z</time>
      </trkpt>
      <trkpt lat="43.78026" lon="1.30793">
        <ele>109.25</ele>
        <time>2021-08-18T12:07:36Z</time>
      </trkpt>
      <trkpt lat="43.78022" lon="1.30788">
        <ele>109.25</ele>
        <time>2021-08-18T12:07:37Z</time>
      </trkpt>
      <trkpt lat="43.78019" lon="1.30782">
        <ele>109.25</ele>
        <time>2021-08-18T12:07:38Z</time>
      </trkpt>
      <trkpt lat="43.78017" lon="1.30775">
        <ele>109.25</ele>
        <time>2021-08-18T12:07:39Z</time>
      </trkpt>
      <trkpt lat="43.78015" lon="1.30769">
        <ele>109.25</ele>
        <time>2021-08-18T12:07:40Z</time>
      </trkpt>
      <trkpt lat="43.7801" lon="1.30757">
        <ele>109.25</ele>
        <time>2021-08-18T12:07:42Z</time>
      </trkpt>
      <trkpt lat="43.78007" lon="1.30753">
        <ele>109.25</ele>
        <time>2021-08-18T12:07:43Z</time>
      </trkpt>
      <trkpt lat="43.78004" lon="1.30749">
        <ele>110.69</ele>
        <time>2021-08-18T12:07:44Z</time>
      </trkpt>
      <trkpt lat="43.78" lon="1.30747">
        <ele>110.69</ele>
        <time>2021-08-18T12:07:45Z</time>
      </trkpt>
      <trkpt lat="43.77996" lon="1.30745">
        <ele>111.17</ele>
        <time>2021-08-18T12:07:46Z</time>
      </trkpt>
      <trkpt lat="43.77992" lon="1.30744">
        <ele>111.17</ele>
        <time>2021-08-18T12:07:47Z</time>
      </trkpt>
      <trkpt lat="43.77987" lon="1.30745">
        <ele>111.17</ele>
        <time>2021-08-18T12:07:48Z</time>
      </trkpt>
      <trkpt lat="43.77983" lon="1.30746">
        <ele>111.17</ele>
        <time>2021-08-18T12:07:49Z</time>
      </trkpt>
      <trkpt lat="43.77978" lon="1.30748">
        <ele>111.17</ele>
        <time>2021-08-18T12:07:50Z</time>
      </trkpt>
      <trkpt lat="43.7797" lon="1.30751">
        <ele>111.17</ele>
        <time>2021-08-18T12:07:52Z</time>
      </trkpt>
      <trkpt lat="43.77965" lon="1.30752">
        <ele>111.17</ele>
        <time>2021-08-18T12:07:53Z</time>
      </trkpt>
      <trkpt lat="43.7796" lon="1.30751">
        <ele>111.65</ele>
        <time>2021-08-18T12:07:54Z</time>
      </trkpt>
      <trkpt lat="43.77956" lon="1.3075">
        <ele>111.65</ele>
        <time>2021-08-18T12:07:55Z</time>
      </trkpt>
      <trkpt lat="43.77952" lon="1.30748">
        <ele>111.65</ele>
        <time>2021-08-18T12:07:56Z</time>
      </trkpt>
      <trkpt lat="43.77948" lon="1.30746">
        <ele>112.13</ele>
        <time>2021-08-18T12:07:57Z</time>
      </trkpt>
      <trkpt lat="43.77912" lon="1.30729">
        <ele>114.05</ele>
        <time>2021-08-18T12:08:07Z</time>
      </trkpt>
      <trkpt lat="43.77877" lon="1.30714">
        <ele>114.53</ele>
        <time>2021-08-18T12:08:15Z</time>
      </trkpt>
      <trkpt lat="43.77831" lon="1.30692">
        <ele>114.53</ele>
        <time>2021-08-18T12:08:25Z</time>
      </trkpt>
      <trkpt lat="43.77785" lon="1.3067">
        <ele>114.53</ele>
        <time>2021-08-18T12:08:34Z</time>
      </trkpt>
      <trkpt lat="43.77732" lon="1.30644">
        <ele>114.53</ele>
        <time>2021-08-18T12:08:44Z</time>
      </trkpt>
      <trkpt lat="43.77682" lon="1.3062">
        <ele>113.09</ele>
        <time>2021-08-18T12:08:53Z</time>
      </trkpt>
      <trkpt lat="43.77631" lon="1.30595">
        <ele>110.69</ele>
        <time>2021-08-18T12:09:01Z</time>
      </trkpt>
      <trkpt lat="43.77599" lon="1.3058">
        <ele>108.77</ele>
        <time>2021-08-18T12:09:05Z</time>
      </trkpt>
      <trkpt lat="43.77522" lon="1.30541">
        <ele>107.32</ele>
        <time>2021-08-18T12:09:15Z</time>
      </trkpt>
      <trkpt lat="43.77483" lon="1.30505">
        <ele>107.32</ele>
        <time>2021-08-18T12:09:22Z</time>
      </trkpt>
      <trkpt lat="43.77448" lon="1.30449">
        <ele>107.32</ele>
        <time>2021-08-18T12:09:30Z</time>
      </trkpt>
      <trkpt lat="43.7742" lon="1.30386">
        <ele>107.32</ele>
        <time>2021-08-18T12:09:38Z</time>
      </trkpt>
      <trkpt lat="43.77387" lon="1.30306">
        <ele>107.32</ele>
        <time>2021-08-18T12:09:48Z</time>
      </trkpt>
      <trkpt lat="43.77365" lon="1.30253">
        <ele>108.77</ele>
        <time>2021-08-18T12:09:55Z</time>
      </trkpt>
      <trkpt lat="43.77339" lon="1.30189">
        <ele>107.81</ele>
        <time>2021-08-18T12:10:03Z</time>
      </trkpt>
      <trkpt lat="43.77332" lon="1.30173">
        <ele>108.77</ele>
        <time>2021-08-18T12:10:05Z</time>
      </trkpt>
      <trkpt lat="43.77289" lon="1.30069">
        <ele>108.77</ele>
        <time>2021-08-18T12:10:18Z</time>
      </trkpt>
      <trkpt lat="43.7728" lon="1.30045">
        <ele>107.32</ele>
        <time>2021-08-18T12:10:21Z</time>
      </trkpt>
      <trkpt lat="43.77241" lon="1.29951">
        <ele>107.32</ele>
        <time>2021-08-18T12:10:33Z</time>
      </trkpt>
      <trkpt lat="43.772" lon="1.2985">
        <ele>107.32</ele>
        <time>2021-08-18T12:10:46Z</time>
      </trkpt>
      <trkpt lat="43.77197" lon="1.29842">
        <ele>107.32</ele>
        <time>2021-08-18T12:10:47Z</time>
      </trkpt>
      <trkpt lat="43.77191" lon="1.29827">
        <ele>107.32</ele>
        <time>2021-08-18T12:10:49Z</time>
      </trkpt>
      <trkpt lat="43.77189" lon="1.29819">
        <ele>107.32</ele>
        <time>2021-08-18T12:10:50Z</time>
      </trkpt>
      <trkpt lat="43.77189" lon="1.29811">
        <ele>107.32</ele>
        <time>2021-08-18T12:10:51Z</time>
      </trkpt>
      <trkpt lat="43.77189" lon="1.29803">
        <ele>107.32</ele>
        <time>2021-08-18T12:10:52Z</time>
      </trkpt>
      <trkpt lat="43.7719" lon="1.29796">
        <ele>107.32</ele>
        <time>2021-08-18T12:10:53Z</time>
      </trkpt>
      <trkpt lat="43.77192" lon="1.29789">
        <ele>107.32</ele>
        <time>2021-08-18T12:10:54Z</time>
      </trkpt>
      <trkpt lat="43.77194" lon="1.29783">
        <ele>107.32</ele>
        <time>2021-08-18T12:10:55Z</time>
      </trkpt>
      <trkpt lat="43.77196" lon="1.29778">
        <ele>107.32</ele>
        <time>2021-08-18T12:10:56Z</time>
      </trkpt>
      <trkpt lat="43.77198" lon="1.29772">
        <ele>107.32</ele>
        <time>2021-08-18T12:10:57Z</time>
      </trkpt>
      <trkpt lat="43.77194" lon="1.29747">
        <ele>108.77</ele>
        <time>2021-08-18T12:11:01Z</time>
      </trkpt>
      <trkpt lat="43.77189" lon="1.29737">
        <ele>109.25</ele>
        <time>2021-08-18T12:11:03Z</time>
      </trkpt>
      <trkpt lat="43.77171" lon="1.29719">
        <ele>110.69</ele>
        <time>2021-08-18T12:11:09Z</time>
      </trkpt>
      <trkpt lat="43.77159" lon="1.29719">
        <ele>111.17</ele>
        <time>2021-08-18T12:11:12Z</time>
      </trkpt>
      <trkpt lat="43.77154" lon="1.29717">
        <ele>111.17</ele>
        <time>2021-08-18T12:11:13Z</time>
      </trkpt>
      <trkpt lat="43.7715" lon="1.29716">
        <ele>111.17</ele>
        <time>2021-08-18T12:11:14Z</time>
      </trkpt>
      <trkpt lat="43.77146" lon="1.29712">
        <ele>111.17</ele>
        <time>2021-08-18T12:11:15Z</time>
      </trkpt>
      <trkpt lat="43.77144" lon="1.29709">
        <ele>111.17</ele>
        <time>2021-08-18T12:11:16Z</time>
      </trkpt>
      <trkpt lat="43.77141" lon="1.29704">
        <ele>111.17</ele>
        <time>2021-08-18T12:11:17Z</time>
      </trkpt>
      <trkpt lat="43.77139" lon="1.29701">
        <ele>111.65</ele>
        <time>2021-08-18T12:11:18Z</time>
      </trkpt>
      <trkpt lat="43.77128" lon="1.29668">
        <ele>113.09</ele>
        <time>2021-08-18T12:11:26Z</time>
      </trkpt>
      <trkpt lat="43.77118" lon="1.29639">
        <ele>114.05</ele>
        <time>2021-08-18T12:11:33Z</time>
      </trkpt>
      <trkpt lat="43.77107" lon="1.29611">
        <ele>115.01</ele>
        <time>2021-08-18T12:11:40Z</time>
      </trkpt>
      <trkpt lat="43.77088" lon="1.29574">
        <ele>115.98</ele>
        <time>2021-08-18T12:11:49Z</time>
      </trkpt>
      <trkpt lat="43.77073" lon="1.29538">
        <ele>116.46</ele>
        <time>2021-08-18T12:11:57Z</time>
      </trkpt>
      <trkpt lat="43.7707" lon="1.29529">
        <ele>116.46</ele>
        <time>2021-08-18T12:11:59Z</time>
      </trkpt>
      <trkpt lat="43.77071" lon="1.29524">
        <ele>116.46</ele>
        <time>2021-08-18T12:12:00Z</time>
      </trkpt>
      <trkpt lat="43.77073" lon="1.2952">
        <ele>116.46</ele>
        <time>2021-08-18T12:12:01Z</time>
      </trkpt>
      <trkpt lat="43.77075" lon="1.29518">
        <ele>116.46</ele>
        <time>2021-08-18T12:12:02Z</time>
      </trkpt>
      <trkpt lat="43.77079" lon="1.29515">
        <ele>116.46</ele>
        <time>2021-08-18T12:12:03Z</time>
      </trkpt>
      <trkpt lat="43.77082" lon="1.29512">
        <ele>116.46</ele>
        <time>2021-08-18T12:12:04Z</time>
      </trkpt>
      <trkpt lat="43.77114" lon="1.29483">
        <ele>116.46</ele>
        <time>2021-08-18T12:12:13Z</time>
      </trkpt>
      <trkpt lat="43.77149" lon="1.29452">
        <ele>116.46</ele>
        <time>2021-08-18T12:12:22Z</time>
      </trkpt>
      <trkpt lat="43.77156" lon="1.29447">
        <ele>116.46</ele>
        <time>2021-08-18T12:12:24Z</time>
      </trkpt>
      <trkpt lat="43.77158" lon="1.29443">
        <ele>116.46</ele>
        <time>2021-08-18T12:12:25Z</time>
      </trkpt>
      <trkpt lat="43.77161" lon="1.2944">
        <ele>116.46</ele>
        <time>2021-08-18T12:12:26Z</time>
      </trkpt>
      <trkpt lat="43.77164" lon="1.29436">
        <ele>116.46</ele>
        <time>2021-08-18T12:12:27Z</time>
      </trkpt>
      <trkpt lat="43.77168" lon="1.29433">
        <ele>116.46</ele>
        <time>2021-08-18T12:12:28Z</time>
      </trkpt>
      <trkpt lat="43.77179" lon="1.29423">
        <ele>116.46</ele>
        <time>2021-08-18T12:12:31Z</time>
      </trkpt>
      <trkpt lat="43.77183" lon="1.2942">
        <ele>116.46</ele>
        <time>2021-08-18T12:12:32Z</time>
      </trkpt>
      <trkpt lat="43.77209" lon="1.29397">
        <ele>116.46</ele>
        <time>2021-08-18T12:12:39Z</time>
      </trkpt>
      <trkpt lat="43.77239" lon="1.29377">
        <ele>116.46</ele>
        <time>2021-08-18T12:12:46Z</time>
      </trkpt>
      <trkpt lat="43.77243" lon="1.29373">
        <ele>116.46</ele>
        <time>2021-08-18T12:12:47Z</time>
      </trkpt>
      <trkpt lat="43.77247" lon="1.2937">
        <ele>116.46</ele>
        <time>2021-08-18T12:12:48Z</time>
      </trkpt>
      <trkpt lat="43.77275" lon="1.29347">
        <ele>116.46</ele>
        <time>2021-08-18T12:12:55Z</time>
      </trkpt>
      <trkpt lat="43.77279" lon="1.29343">
        <ele>116.46</ele>
        <time>2021-08-18T12:12:56Z</time>
      </trkpt>
      <trkpt lat="43.77283" lon="1.29339">
        <ele>116.46</ele>
        <time>2021-08-18T12:12:57Z</time>
      </trkpt>
      <trkpt lat="43.77307" lon="1.29318">
        <ele>116.46</ele>
        <time>2021-08-18T12:13:03Z</time>
      </trkpt>
      <trkpt lat="43.77334" lon="1.29294">
        <ele>116.46</ele>
        <time>2021-08-18T12:13:10Z</time>
      </trkpt>
      <trkpt lat="43.77338" lon="1.29291">
        <ele>116.46</ele>
        <time>2021-08-18T12:13:11Z</time>
      </trkpt>
      <trkpt lat="43.77341" lon="1.29287">
        <ele>116.46</ele>
        <time>2021-08-18T12:13:12Z</time>
      </trkpt>
      <trkpt lat="43.77343" lon="1.29284">
        <ele>116.46</ele>
        <time>2021-08-18T12:13:13Z</time>
      </trkpt>
      <trkpt lat="43.77343" lon="1.29279">
        <ele>116.46</ele>
        <time>2021-08-18T12:13:14Z</time>
      </trkpt>
      <trkpt lat="43.77342" lon="1.29274">
        <ele>116.46</ele>
        <time>2021-08-18T12:13:15Z</time>
      </trkpt>
      <trkpt lat="43.7734" lon="1.2927">
        <ele>116.46</ele>
        <time>2021-08-18T12:13:16Z</time>
      </trkpt>
      <trkpt lat="43.77338" lon="1.29266">
        <ele>116.46</ele>
        <time>2021-08-18T12:13:17Z</time>
      </trkpt>
      <trkpt lat="43.77331" lon="1.29252">
        <ele>115.5</ele>
        <time>2021-08-18T12:13:20Z</time>
      </trkpt>
      <trkpt lat="43.77317" lon="1.29221">
        <ele>115.01</ele>
        <time>2021-08-18T12:13:27Z</time>
      </trkpt>
      <trkpt lat="43.77305" lon="1.29196">
        <ele>115.01</ele>
        <time>2021-08-18T12:13:32Z</time>
      </trkpt>
      <trkpt lat="43.77286" lon="1.29157">
        <ele>114.53</ele>
        <time>2021-08-18T12:13:40Z</time>
      </trkpt>
      <trkpt lat="43.77283" lon="1.29156">
        <ele>114.53</ele>
        <time>2021-08-18T12:13:41Z</time>
      </trkpt>
      <trkpt lat="43.7728" lon="1.29157">
        <ele>114.53</ele>
        <time>2021-08-18T12:13:42Z</time>
      </trkpt>
      <trkpt lat="43.77277" lon="1.29159">
        <ele>114.53</ele>
        <time>2021-08-18T12:13:43Z</time>
      </trkpt>
      <trkpt lat="43.77274" lon="1.29163">
        <ele>114.53</ele>
        <time>2021-08-18T12:13:44Z</time>
      </trkpt>
      <trkpt lat="43.77271" lon="1.29166">
        <ele>114.53</ele>
        <time>2021-08-18T12:13:45Z</time>
      </trkpt>
      <trkpt lat="43.77268" lon="1.2917">
        <ele>114.53</ele>
        <time>2021-08-18T12:13:46Z</time>
      </trkpt>
      <trkpt lat="43.77264" lon="1.29173">
        <ele>114.53</ele>
        <time>2021-08-18T12:13:47Z</time>
      </trkpt>
      <trkpt lat="43.77234" lon="1.29197">
        <ele>114.53</ele>
        <time>2021-08-18T12:13:55Z</time>
      </trkpt>
      <trkpt lat="43.77213" lon="1.29218">
        <ele>116.46</ele>
        <time>2021-08-18T12:14:02Z</time>
      </trkpt>
      <trkpt lat="43.77184" lon="1.29243">
        <ele>116.94</ele>
        <time>2021-08-18T12:14:10Z</time>
      </trkpt>
      <trkpt lat="43.77165" lon="1.29257">
        <ele>117.42</ele>
        <time>2021-08-18T12:14:17Z</time>
      </trkpt>
      <trkpt lat="43.77148" lon="1.29273">
        <ele>117.9</ele>
        <time>2021-08-18T12:14:23Z</time>
      </trkpt>
      <trkpt lat="43.77123" lon="1.29298">
        <ele>118.38</ele>
        <time>2021-08-18T12:14:31Z</time>
      </trkpt>
      <trkpt lat="43.77104" lon="1.29313">
        <ele>117.9</ele>
        <time>2021-08-18T12:14:37Z</time>
      </trkpt>
      <trkpt lat="43.77084" lon="1.29326">
        <ele>117.9</ele>
        <time>2021-08-18T12:14:43Z</time>
      </trkpt>
      <trkpt lat="43.77046" lon="1.29354">
        <ele>117.9</ele>
        <time>2021-08-18T12:14:52Z</time>
      </trkpt>
      <trkpt lat="43.77017" lon="1.29376">
        <ele>118.38</ele>
        <time>2021-08-18T12:15:00Z</time>
      </trkpt>
      <trkpt lat="43.77005" lon="1.29384">
        <ele>118.38</ele>
        <time>2021-08-18T12:15:04Z</time>
      </trkpt>
      <trkpt lat="43.77002" lon="1.29382">
        <ele>116.94</ele>
        <time>2021-08-18T12:15:05Z</time>
      </trkpt>
      <trkpt lat="43.77" lon="1.29378">
        <ele>116.94</ele>
        <time>2021-08-18T12:15:06Z</time>
      </trkpt>
      <trkpt lat="43.76998" lon="1.29375">
        <ele>116.94</ele>
        <time>2021-08-18T12:15:07Z</time>
      </trkpt>
      <trkpt lat="43.76996" lon="1.2937">
        <ele>116.94</ele>
        <time>2021-08-18T12:15:08Z</time>
      </trkpt>
      <trkpt lat="43.76979" lon="1.29329">
        <ele>116.46</ele>
        <time>2021-08-18T12:15:16Z</time>
      </trkpt>
      <trkpt lat="43.76975" lon="1.29318">
        <ele>115.98</ele>
        <time>2021-08-18T12:15:18Z</time>
      </trkpt>
      <trkpt lat="43.76972" lon="1.29313">
        <ele>115.98</ele>
        <time>2021-08-18T12:15:19Z</time>
      </trkpt>
      <trkpt lat="43.7697" lon="1.29307">
        <ele>115.98</ele>
        <time>2021-08-18T12:15:20Z</time>
      </trkpt>
      <trkpt lat="43.76948" lon="1.2925">
        <ele>115.01</ele>
        <time>2021-08-18T12:15:29Z</time>
      </trkpt>
      <trkpt lat="43.76946" lon="1.29244">
        <ele>115.01</ele>
        <time>2021-08-18T12:15:30Z</time>
      </trkpt>
      <trkpt lat="43.76945" lon="1.29238">
        <ele>115.01</ele>
        <time>2021-08-18T12:15:31Z</time>
      </trkpt>
      <trkpt lat="43.76946" lon="1.29231">
        <ele>115.01</ele>
        <time>2021-08-18T12:15:32Z</time>
      </trkpt>
      <trkpt lat="43.76948" lon="1.29225">
        <ele>115.01</ele>
        <time>2021-08-18T12:15:33Z</time>
      </trkpt>
      <trkpt lat="43.76951" lon="1.29219">
        <ele>114.53</ele>
        <time>2021-08-18T12:15:34Z</time>
      </trkpt>
      <trkpt lat="43.76953" lon="1.29213">
        <ele>114.53</ele>
        <time>2021-08-18T12:15:35Z</time>
      </trkpt>
      <trkpt lat="43.76956" lon="1.29208">
        <ele>114.53</ele>
        <time>2021-08-18T12:15:36Z</time>
      </trkpt>
      <trkpt lat="43.76959" lon="1.29204">
        <ele>114.53</ele>
        <time>2021-08-18T12:15:37Z</time>
      </trkpt>
      <trkpt lat="43.76968" lon="1.29188">
        <ele>114.53</ele>
        <time>2021-08-18T12:15:41Z</time>
      </trkpt>
      <trkpt lat="43.76979" lon="1.29175">
        <ele>114.53</ele>
        <time>2021-08-18T12:15:47Z</time>
      </trkpt>
      <trkpt lat="43.76985" lon="1.2916">
        <ele>114.53</ele>
        <time>2021-08-18T12:15:53Z</time>
      </trkpt>
      <trkpt lat="43.76985" lon="1.29157">
        <ele>114.53</ele>
        <time>2021-08-18T12:15:54Z</time>
      </trkpt>
      <trkpt lat="43.76982" lon="1.29157">
        <ele>114.53</ele>
        <time>2021-08-18T12:15:56Z</time>
      </trkpt>
      <trkpt lat="43.7698" lon="1.2916">
        <ele>114.05</ele>
        <time>2021-08-18T12:15:57Z</time>
      </trkpt>
      <trkpt lat="43.76979" lon="1.29164">
        <ele>114.05</ele>
        <time>2021-08-18T12:15:58Z</time>
      </trkpt>
      <trkpt lat="43.76963" lon="1.29189">
        <ele>114.05</ele>
        <time>2021-08-18T12:16:05Z</time>
      </trkpt>
      <trkpt lat="43.76947" lon="1.29211">
        <ele>115.5</ele>
        <time>2021-08-18T12:16:11Z</time>
      </trkpt>
      <trkpt lat="43.76935" lon="1.29213">
        <ele>115.5</ele>
        <time>2021-08-18T12:16:16Z</time>
      </trkpt>
      <trkpt lat="43.76933" lon="1.29208">
        <ele>115.5</ele>
        <time>2021-08-18T12:16:17Z</time>
      </trkpt>
      <trkpt lat="43.76931" lon="1.29204">
        <ele>115.98</ele>
        <time>2021-08-18T12:16:18Z</time>
      </trkpt>
      <trkpt lat="43.7693" lon="1.292">
        <ele>115.98</ele>
        <time>2021-08-18T12:16:19Z</time>
      </trkpt>
      <trkpt lat="43.76929" lon="1.29194">
        <ele>115.98</ele>
        <time>2021-08-18T12:16:20Z</time>
      </trkpt>
      <trkpt lat="43.76926" lon="1.29183">
        <ele>115.98</ele>
        <time>2021-08-18T12:16:22Z</time>
      </trkpt>
      <trkpt lat="43.76925" lon="1.29178">
        <ele>115.98</ele>
        <time>2021-08-18T12:16:23Z</time>
      </trkpt>
      <trkpt lat="43.76921" lon="1.29168">
        <ele>115.98</ele>
        <time>2021-08-18T12:16:25Z</time>
      </trkpt>
      <trkpt lat="43.76918" lon="1.29163">
        <ele>115.98</ele>
        <time>2021-08-18T12:16:26Z</time>
      </trkpt>
      <trkpt lat="43.76915" lon="1.29159">
        <ele>115.98</ele>
        <time>2021-08-18T12:16:27Z</time>
      </trkpt>
      <trkpt lat="43.76912" lon="1.29157">
        <ele>115.98</ele>
        <time>2021-08-18T12:16:28Z</time>
      </trkpt>
      <trkpt lat="43.76907" lon="1.29155">
        <ele>115.98</ele>
        <time>2021-08-18T12:16:29Z</time>
      </trkpt>
      <trkpt lat="43.76902" lon="1.29154">
        <ele>115.98</ele>
        <time>2021-08-18T12:16:30Z</time>
      </trkpt>
      <trkpt lat="43.76898" lon="1.29153">
        <ele>115.98</ele>
        <time>2021-08-18T12:16:31Z</time>
      </trkpt>
      <trkpt lat="43.76893" lon="1.29152">
        <ele>115.98</ele>
        <time>2021-08-18T12:16:32Z</time>
      </trkpt>
      <trkpt lat="43.76864" lon="1.29139">
        <ele>115.98</ele>
        <time>2021-08-18T12:16:38Z</time>
      </trkpt>
      <trkpt lat="43.76859" lon="1.29136">
        <ele>115.98</ele>
        <time>2021-08-18T12:16:39Z</time>
      </trkpt>
      <trkpt lat="43.76833" lon="1.29123">
        <ele>116.46</ele>
        <time>2021-08-18T12:16:44Z</time>
      </trkpt>
      <trkpt lat="43.76828" lon="1.29122">
        <ele>116.46</ele>
        <time>2021-08-18T12:16:45Z</time>
      </trkpt>
      <trkpt lat="43.76823" lon="1.29121">
        <ele>116.46</ele>
        <time>2021-08-18T12:16:46Z</time>
      </trkpt>
      <trkpt lat="43.76817" lon="1.2912">
        <ele>116.46</ele>
        <time>2021-08-18T12:16:47Z</time>
      </trkpt>
      <trkpt lat="43.76812" lon="1.2912">
        <ele>116.46</ele>
        <time>2021-08-18T12:16:48Z</time>
      </trkpt>
      <trkpt lat="43.76776" lon="1.29121">
        <ele>117.9</ele>
        <time>2021-08-18T12:16:56Z</time>
      </trkpt>
      <trkpt lat="43.76758" lon="1.29122">
        <ele>119.82</ele>
        <time>2021-08-18T12:17:02Z</time>
      </trkpt>
      <trkpt lat="43.76732" lon="1.29115">
        <ele>121.74</ele>
        <time>2021-08-18T12:17:11Z</time>
      </trkpt>
      <trkpt lat="43.76703" lon="1.29102">
        <ele>123.67</ele>
        <time>2021-08-18T12:17:20Z</time>
      </trkpt>
      <trkpt lat="43.76686" lon="1.29088">
        <ele>124.15</ele>
        <time>2021-08-18T12:17:25Z</time>
      </trkpt>
      <trkpt lat="43.76679" lon="1.29082">
        <ele>123.67</ele>
        <time>2021-08-18T12:17:27Z</time>
      </trkpt>
      <trkpt lat="43.76647" lon="1.29042">
        <ele>124.63</ele>
        <time>2021-08-18T12:17:36Z</time>
      </trkpt>
      <trkpt lat="43.76618" lon="1.28999">
        <ele>124.63</ele>
        <time>2021-08-18T12:17:44Z</time>
      </trkpt>
      <trkpt lat="43.76589" lon="1.28976">
        <ele>124.63</ele>
        <time>2021-08-18T12:17:50Z</time>
      </trkpt>
      <trkpt lat="43.7656" lon="1.28964">
        <ele>123.19</ele>
        <time>2021-08-18T12:17:55Z</time>
      </trkpt>
      <trkpt lat="43.76506" lon="1.28948">
        <ele>123.19</ele>
        <time>2021-08-18T12:18:04Z</time>
      </trkpt>
      <trkpt lat="43.76477" lon="1.2895">
        <ele>123.19</ele>
        <time>2021-08-18T12:18:09Z</time>
      </trkpt>
      <trkpt lat="43.76471" lon="1.2895">
        <ele>123.19</ele>
        <time>2021-08-18T12:18:10Z</time>
      </trkpt>
      <trkpt lat="43.76414" lon="1.2894">
        <ele>123.19</ele>
        <time>2021-08-18T12:18:19Z</time>
      </trkpt>
      <trkpt lat="43.76407" lon="1.28939">
        <ele>123.19</ele>
        <time>2021-08-18T12:18:20Z</time>
      </trkpt>
      <trkpt lat="43.76396" lon="1.28938">
        <ele>123.19</ele>
        <time>2021-08-18T12:18:22Z</time>
      </trkpt>
      <trkpt lat="43.76389" lon="1.28937">
        <ele>123.19</ele>
        <time>2021-08-18T12:18:23Z</time>
      </trkpt>
      <trkpt lat="43.76383" lon="1.28936">
        <ele>123.19</ele>
        <time>2021-08-18T12:18:24Z</time>
      </trkpt>
      <trkpt lat="43.76378" lon="1.28936">
        <ele>123.19</ele>
        <time>2021-08-18T12:18:25Z</time>
      </trkpt>
      <trkpt lat="43.76373" lon="1.28935">
        <ele>124.63</ele>
        <time>2021-08-18T12:18:26Z</time>
      </trkpt>
      <trkpt lat="43.76326" lon="1.28928">
        <ele>126.07</ele>
        <time>2021-08-18T12:18:35Z</time>
      </trkpt>
      <trkpt lat="43.76286" lon="1.28921">
        <ele>125.59</ele>
        <time>2021-08-18T12:18:42Z</time>
      </trkpt>
      <trkpt lat="43.76239" lon="1.28912">
        <ele>125.59</ele>
        <time>2021-08-18T12:18:51Z</time>
      </trkpt>
      <trkpt lat="43.76206" lon="1.28905">
        <ele>125.59</ele>
        <time>2021-08-18T12:18:57Z</time>
      </trkpt>
      <trkpt lat="43.76189" lon="1.28902">
        <ele>124.63</ele>
        <time>2021-08-18T12:19:00Z</time>
      </trkpt>
      <trkpt lat="43.76142" lon="1.28891">
        <ele>124.63</ele>
        <time>2021-08-18T12:19:08Z</time>
      </trkpt>
      <trkpt lat="43.76082" lon="1.28874">
        <ele>124.63</ele>
        <time>2021-08-18T12:19:18Z</time>
      </trkpt>
      <trkpt lat="43.76028" lon="1.28858">
        <ele>124.63</ele>
        <time>2021-08-18T12:19:27Z</time>
      </trkpt>
      <trkpt lat="43.76016" lon="1.28854">
        <ele>124.63</ele>
        <time>2021-08-18T12:19:29Z</time>
      </trkpt>
      <trkpt lat="43.76004" lon="1.2885">
        <ele>125.59</ele>
        <time>2021-08-18T12:19:31Z</time>
      </trkpt>
      <trkpt lat="43.75981" lon="1.28844">
        <ele>126.07</ele>
        <time>2021-08-18T12:19:35Z</time>
      </trkpt>
      <trkpt lat="43.75976" lon="1.28842">
        <ele>126.07</ele>
        <time>2021-08-18T12:19:36Z</time>
      </trkpt>
      <trkpt lat="43.75961" lon="1.28838">
        <ele>126.07</ele>
        <time>2021-08-18T12:19:39Z</time>
      </trkpt>
      <trkpt lat="43.75937" lon="1.28832">
        <ele>126.07</ele>
        <time>2021-08-18T12:19:45Z</time>
      </trkpt>
      <trkpt lat="43.75933" lon="1.2883">
        <ele>126.07</ele>
        <time>2021-08-18T12:19:46Z</time>
      </trkpt>
      <trkpt lat="43.75929" lon="1.2883">
        <ele>126.07</ele>
        <time>2021-08-18T12:19:47Z</time>
      </trkpt>
      <trkpt lat="43.75925" lon="1.2883">
        <ele>126.07</ele>
        <time>2021-08-18T12:19:48Z</time>
      </trkpt>
      <trkpt lat="43.75917" lon="1.28829">
        <ele>126.07</ele>
        <time>2021-08-18T12:19:50Z</time>
      </trkpt>
      <trkpt lat="43.75907" lon="1.28827">
        <ele>126.07</ele>
        <time>2021-08-18T12:19:52Z</time>
      </trkpt>
      <trkpt lat="43.75901" lon="1.28827">
        <ele>126.07</ele>
        <time>2021-08-18T12:19:53Z</time>
      </trkpt>
      <trkpt lat="43.75879" lon="1.28829">
        <ele>126.07</ele>
        <time>2021-08-18T12:19:57Z</time>
      </trkpt>
      <trkpt lat="43.75873" lon="1.28829">
        <ele>126.07</ele>
        <time>2021-08-18T12:19:58Z</time>
      </trkpt>
      <trkpt lat="43.75848" lon="1.28822">
        <ele>126.07</ele>
        <time>2021-08-18T12:20:03Z</time>
      </trkpt>
      <trkpt lat="43.75843" lon="1.28819">
        <ele>126.07</ele>
        <time>2021-08-18T12:20:04Z</time>
      </trkpt>
      <trkpt lat="43.75839" lon="1.28817">
        <ele>126.07</ele>
        <time>2021-08-18T12:20:05Z</time>
      </trkpt>
      <trkpt lat="43.75833" lon="1.28816">
        <ele>126.07</ele>
        <time>2021-08-18T12:20:06Z</time>
      </trkpt>
      <trkpt lat="43.75828" lon="1.28816">
        <ele>124.63</ele>
        <time>2021-08-18T12:20:07Z</time>
      </trkpt>
      <trkpt lat="43.75823" lon="1.28817">
        <ele>124.63</ele>
        <time>2021-08-18T12:20:08Z</time>
      </trkpt>
      <trkpt lat="43.75818" lon="1.28819">
        <ele>124.63</ele>
        <time>2021-08-18T12:20:09Z</time>
      </trkpt>
      <trkpt lat="43.75813" lon="1.28822">
        <ele>124.63</ele>
        <time>2021-08-18T12:20:10Z</time>
      </trkpt>
      <trkpt lat="43.75809" lon="1.28824">
        <ele>124.63</ele>
        <time>2021-08-18T12:20:11Z</time>
      </trkpt>
      <trkpt lat="43.758" lon="1.28829">
        <ele>124.63</ele>
        <time>2021-08-18T12:20:13Z</time>
      </trkpt>
      <trkpt lat="43.7578" lon="1.28845">
        <ele>124.63</ele>
        <time>2021-08-18T12:20:18Z</time>
      </trkpt>
      <trkpt lat="43.75776" lon="1.28848">
        <ele>124.63</ele>
        <time>2021-08-18T12:20:19Z</time>
      </trkpt>
      <trkpt lat="43.75771" lon="1.2885">
        <ele>124.63</ele>
        <time>2021-08-18T12:20:20Z</time>
      </trkpt>
      <trkpt lat="43.75767" lon="1.28852">
        <ele>124.63</ele>
        <time>2021-08-18T12:20:21Z</time>
      </trkpt>
      <trkpt lat="43.75762" lon="1.28855">
        <ele>124.63</ele>
        <time>2021-08-18T12:20:22Z</time>
      </trkpt>
      <trkpt lat="43.75741" lon="1.28863">
        <ele>124.63</ele>
        <time>2021-08-18T12:20:26Z</time>
      </trkpt>
      <trkpt lat="43.75737" lon="1.28865">
        <ele>124.63</ele>
        <time>2021-08-18T12:20:27Z</time>
      </trkpt>
      <trkpt lat="43.75713" lon="1.28875">
        <ele>124.63</ele>
        <time>2021-08-18T12:20:32Z</time>
      </trkpt>
      <trkpt lat="43.75708" lon="1.28877">
        <ele>124.63</ele>
        <time>2021-08-18T12:20:33Z</time>
      </trkpt>
      <trkpt lat="43.75704" lon="1.28878">
        <ele>124.63</ele>
        <time>2021-08-18T12:20:34Z</time>
      </trkpt>
      <trkpt lat="43.75695" lon="1.2888">
        <ele>126.07</ele>
        <time>2021-08-18T12:20:36Z</time>
      </trkpt>
      <trkpt lat="43.7569" lon="1.28883">
        <ele>126.07</ele>
        <time>2021-08-18T12:20:37Z</time>
      </trkpt>
      <trkpt lat="43.75686" lon="1.28885">
        <ele>126.07</ele>
        <time>2021-08-18T12:20:38Z</time>
      </trkpt>
      <trkpt lat="43.75682" lon="1.28886">
        <ele>126.07</ele>
        <time>2021-08-18T12:20:39Z</time>
      </trkpt>
      <trkpt lat="43.75677" lon="1.28888">
        <ele>126.07</ele>
        <time>2021-08-18T12:20:40Z</time>
      </trkpt>
      <trkpt lat="43.75657" lon="1.28891">
        <ele>126.55</ele>
        <time>2021-08-18T12:20:44Z</time>
      </trkpt>
      <trkpt lat="43.75652" lon="1.28889">
        <ele>126.55</ele>
        <time>2021-08-18T12:20:45Z</time>
      </trkpt>
      <trkpt lat="43.75647" lon="1.28887">
        <ele>126.55</ele>
        <time>2021-08-18T12:20:46Z</time>
      </trkpt>
      <trkpt lat="43.75642" lon="1.28882">
        <ele>126.55</ele>
        <time>2021-08-18T12:20:47Z</time>
      </trkpt>
      <trkpt lat="43.75638" lon="1.28877">
        <ele>126.55</ele>
        <time>2021-08-18T12:20:48Z</time>
      </trkpt>
      <trkpt lat="43.75634" lon="1.28871">
        <ele>126.55</ele>
        <time>2021-08-18T12:20:49Z</time>
      </trkpt>
      <trkpt lat="43.7563" lon="1.28865">
        <ele>126.55</ele>
        <time>2021-08-18T12:20:50Z</time>
      </trkpt>
      <trkpt lat="43.75617" lon="1.2884">
        <ele>126.55</ele>
        <time>2021-08-18T12:20:54Z</time>
      </trkpt>
      <trkpt lat="43.75614" lon="1.28835">
        <ele>126.55</ele>
        <time>2021-08-18T12:20:55Z</time>
      </trkpt>
      <trkpt lat="43.75608" lon="1.28824">
        <ele>126.55</ele>
        <time>2021-08-18T12:20:57Z</time>
      </trkpt>
      <trkpt lat="43.75578" lon="1.2877">
        <ele>126.55</ele>
        <time>2021-08-18T12:21:06Z</time>
      </trkpt>
      <trkpt lat="43.75569" lon="1.28756">
        <ele>126.55</ele>
        <time>2021-08-18T12:21:09Z</time>
      </trkpt>
      <trkpt lat="43.75546" lon="1.28718">
        <ele>127.03</ele>
        <time>2021-08-18T12:21:16Z</time>
      </trkpt>
      <trkpt lat="43.7554" lon="1.28708">
        <ele>127.03</ele>
        <time>2021-08-18T12:21:18Z</time>
      </trkpt>
      <trkpt lat="43.75509" lon="1.28666">
        <ele>127.51</ele>
        <time>2021-08-18T12:21:26Z</time>
      </trkpt>
      <trkpt lat="43.75474" lon="1.28619">
        <ele>128.95</ele>
        <time>2021-08-18T12:21:35Z</time>
      </trkpt>
      <trkpt lat="43.75445" lon="1.28577">
        <ele>129.43</ele>
        <time>2021-08-18T12:21:44Z</time>
      </trkpt>
      <trkpt lat="43.75442" lon="1.28573">
        <ele>129.43</ele>
        <time>2021-08-18T12:21:45Z</time>
      </trkpt>
      <trkpt lat="43.7544" lon="1.28568">
        <ele>129.43</ele>
        <time>2021-08-18T12:21:46Z</time>
      </trkpt>
      <trkpt lat="43.75433" lon="1.28557">
        <ele>129.92</ele>
        <time>2021-08-18T12:21:49Z</time>
      </trkpt>
      <trkpt lat="43.7543" lon="1.28555">
        <ele>129.92</ele>
        <time>2021-08-18T12:21:50Z</time>
      </trkpt>
      <trkpt lat="43.75426" lon="1.28554">
        <ele>129.92</ele>
        <time>2021-08-18T12:21:51Z</time>
      </trkpt>
      <trkpt lat="43.75421" lon="1.28555">
        <ele>129.92</ele>
        <time>2021-08-18T12:21:52Z</time>
      </trkpt>
      <trkpt lat="43.75417" lon="1.28555">
        <ele>129.92</ele>
        <time>2021-08-18T12:21:53Z</time>
      </trkpt>
      <trkpt lat="43.75413" lon="1.28556">
        <ele>130.4</ele>
        <time>2021-08-18T12:21:54Z</time>
      </trkpt>
      <trkpt lat="43.75408" lon="1.28557">
        <ele>130.4</ele>
        <time>2021-08-18T12:21:55Z</time>
      </trkpt>
      <trkpt lat="43.75365" lon="1.28561">
        <ele>130.4</ele>
        <time>2021-08-18T12:22:03Z</time>
      </trkpt>
      <trkpt lat="43.75323" lon="1.28564">
        <ele>130.4</ele>
        <time>2021-08-18T12:22:10Z</time>
      </trkpt>
      <trkpt lat="43.75272" lon="1.28567">
        <ele>130.4</ele>
        <time>2021-08-18T12:22:18Z</time>
      </trkpt>
      <trkpt lat="43.75194" lon="1.28572">
        <ele>130.4</ele>
        <time>2021-08-18T12:22:30Z</time>
      </trkpt>
      <trkpt lat="43.75115" lon="1.28577">
        <ele>130.4</ele>
        <time>2021-08-18T12:22:42Z</time>
      </trkpt>
      <trkpt lat="43.75042" lon="1.28582">
        <ele>130.4</ele>
        <time>2021-08-18T12:22:53Z</time>
      </trkpt>
      <trkpt lat="43.74978" lon="1.28573">
        <ele>130.4</ele>
        <time>2021-08-18T12:23:03Z</time>
      </trkpt>
      <trkpt lat="43.74909" lon="1.28555">
        <ele>130.4</ele>
        <time>2021-08-18T12:23:14Z</time>
      </trkpt>
      <trkpt lat="43.74832" lon="1.28536">
        <ele>130.88</ele>
        <time>2021-08-18T12:23:26Z</time>
      </trkpt>
      <trkpt lat="43.74762" lon="1.2852">
        <ele>130.88</ele>
        <time>2021-08-18T12:23:37Z</time>
      </trkpt>
      <trkpt lat="43.74706" lon="1.28507">
        <ele>130.88</ele>
        <time>2021-08-18T12:23:46Z</time>
      </trkpt>
      <trkpt lat="43.74649" lon="1.28492">
        <ele>130.88</ele>
        <time>2021-08-18T12:23:55Z</time>
      </trkpt>
      <trkpt lat="43.74587" lon="1.28473">
        <ele>130.88</ele>
        <time>2021-08-18T12:24:05Z</time>
      </trkpt>
      <trkpt lat="43.74532" lon="1.28467">
        <ele>131.36</ele>
        <time>2021-08-18T12:24:14Z</time>
      </trkpt>
      <trkpt lat="43.74477" lon="1.2847">
        <ele>131.84</ele>
        <time>2021-08-18T12:24:23Z</time>
      </trkpt>
      <trkpt lat="43.74404" lon="1.28479">
        <ele>131.84</ele>
        <time>2021-08-18T12:24:34Z</time>
      </trkpt>
      <trkpt lat="43.74353" lon="1.285">
        <ele>131.84</ele>
        <time>2021-08-18T12:24:42Z</time>
      </trkpt>
      <trkpt lat="43.74286" lon="1.28543">
        <ele>131.36</ele>
        <time>2021-08-18T12:24:53Z</time>
      </trkpt>
      <trkpt lat="43.74247" lon="1.28583">
        <ele>131.84</ele>
        <time>2021-08-18T12:25:00Z</time>
      </trkpt>
      <trkpt lat="43.74207" lon="1.28627">
        <ele>131.84</ele>
        <time>2021-08-18T12:25:07Z</time>
      </trkpt>
      <trkpt lat="43.74164" lon="1.28676">
        <ele>132.8</ele>
        <time>2021-08-18T12:25:15Z</time>
      </trkpt>
      <trkpt lat="43.74159" lon="1.28682">
        <ele>132.8</ele>
        <time>2021-08-18T12:25:16Z</time>
      </trkpt>
      <trkpt lat="43.74109" lon="1.28735">
        <ele>132.32</ele>
        <time>2021-08-18T12:25:25Z</time>
      </trkpt>
      <trkpt lat="43.74053" lon="1.28779">
        <ele>132.32</ele>
        <time>2021-08-18T12:25:34Z</time>
      </trkpt>
      <trkpt lat="43.73978" lon="1.28834">
        <ele>132.8</ele>
        <time>2021-08-18T12:25:46Z</time>
      </trkpt>
      <trkpt lat="43.73913" lon="1.28886">
        <ele>132.8</ele>
        <time>2021-08-18T12:25:57Z</time>
      </trkpt>
      <trkpt lat="43.73875" lon="1.28922">
        <ele>133.28</ele>
        <time>2021-08-18T12:26:04Z</time>
      </trkpt>
      <trkpt lat="43.73817" lon="1.28969">
        <ele>133.76</ele>
        <time>2021-08-18T12:26:14Z</time>
      </trkpt>
      <trkpt lat="43.73763" lon="1.28999">
        <ele>133.76</ele>
        <time>2021-08-18T12:26:23Z</time>
      </trkpt>
      <trkpt lat="43.73705" lon="1.29012">
        <ele>134.24</ele>
        <time>2021-08-18T12:26:32Z</time>
      </trkpt>
      <trkpt lat="43.73648" lon="1.29009">
        <ele>135.2</ele>
        <time>2021-08-18T12:26:41Z</time>
      </trkpt>
      <trkpt lat="43.73586" lon="1.29003">
        <ele>135.2</ele>
        <time>2021-08-18T12:26:51Z</time>
      </trkpt>
      <trkpt lat="43.73517" lon="1.28998">
        <ele>136.16</ele>
        <time>2021-08-18T12:27:02Z</time>
      </trkpt>
      <trkpt lat="43.73462" lon="1.28992">
        <ele>136.64</ele>
        <time>2021-08-18T12:27:11Z</time>
      </trkpt>
      <trkpt lat="43.73416" lon="1.28994">
        <ele>138.09</ele>
        <time>2021-08-18T12:27:19Z</time>
      </trkpt>
      <trkpt lat="43.734" lon="1.28997">
        <ele>138.57</ele>
        <time>2021-08-18T12:27:22Z</time>
      </trkpt>
      <trkpt lat="43.73395" lon="1.28999">
        <ele>138.57</ele>
        <time>2021-08-18T12:27:23Z</time>
      </trkpt>
      <trkpt lat="43.73349" lon="1.29026">
        <ele>139.05</ele>
        <time>2021-08-18T12:27:32Z</time>
      </trkpt>
      <trkpt lat="43.73297" lon="1.29064">
        <ele>139.53</ele>
        <time>2021-08-18T12:27:42Z</time>
      </trkpt>
      <trkpt lat="43.73256" lon="1.29091">
        <ele>140.01</ele>
        <time>2021-08-18T12:27:50Z</time>
      </trkpt>
      <trkpt lat="43.7325" lon="1.29095">
        <ele>140.01</ele>
        <time>2021-08-18T12:27:51Z</time>
      </trkpt>
      <trkpt lat="43.73201" lon="1.2912">
        <ele>140.49</ele>
        <time>2021-08-18T12:28:00Z</time>
      </trkpt>
      <trkpt lat="43.73157" lon="1.29148">
        <ele>141.45</ele>
        <time>2021-08-18T12:28:09Z</time>
      </trkpt>
      <trkpt lat="43.73127" lon="1.29174">
        <ele>141.45</ele>
        <time>2021-08-18T12:28:16Z</time>
      </trkpt>
      <trkpt lat="43.7309" lon="1.29219">
        <ele>141.93</ele>
        <time>2021-08-18T12:28:25Z</time>
      </trkpt>
      <trkpt lat="43.73074" lon="1.29238">
        <ele>140.49</ele>
        <time>2021-08-18T12:28:29Z</time>
      </trkpt>
      <trkpt lat="43.73038" lon="1.29286">
        <ele>140.49</ele>
        <time>2021-08-18T12:28:37Z</time>
      </trkpt>
      <trkpt lat="43.72996" lon="1.2934">
        <ele>139.53</ele>
        <time>2021-08-18T12:28:46Z</time>
      </trkpt>
      <trkpt lat="43.72956" lon="1.29399">
        <ele>139.53</ele>
        <time>2021-08-18T12:28:55Z</time>
      </trkpt>
      <trkpt lat="43.72924" lon="1.29442">
        <ele>139.05</ele>
        <time>2021-08-18T12:29:02Z</time>
      </trkpt>
      <trkpt lat="43.72887" lon="1.29489">
        <ele>139.05</ele>
        <time>2021-08-18T12:29:10Z</time>
      </trkpt>
      <trkpt lat="43.7287" lon="1.29509">
        <ele>139.05</ele>
        <time>2021-08-18T12:29:14Z</time>
      </trkpt>
      <trkpt lat="43.72866" lon="1.29514">
        <ele>139.05</ele>
        <time>2021-08-18T12:29:15Z</time>
      </trkpt>
      <trkpt lat="43.72837" lon="1.2955">
        <ele>140.49</ele>
        <time>2021-08-18T12:29:22Z</time>
      </trkpt>
      <trkpt lat="43.72833" lon="1.29556">
        <ele>140.49</ele>
        <time>2021-08-18T12:29:23Z</time>
      </trkpt>
      <trkpt lat="43.72812" lon="1.29583">
        <ele>140.97</ele>
        <time>2021-08-18T12:29:28Z</time>
      </trkpt>
      <trkpt lat="43.72808" lon="1.2959">
        <ele>140.97</ele>
        <time>2021-08-18T12:29:29Z</time>
      </trkpt>
      <trkpt lat="43.72804" lon="1.29596">
        <ele>140.97</ele>
        <time>2021-08-18T12:29:30Z</time>
      </trkpt>
      <trkpt lat="43.72799" lon="1.29601">
        <ele>140.97</ele>
        <time>2021-08-18T12:29:31Z</time>
      </trkpt>
      <trkpt lat="43.72794" lon="1.29606">
        <ele>140.97</ele>
        <time>2021-08-18T12:29:32Z</time>
      </trkpt>
      <trkpt lat="43.72758" lon="1.29653">
        <ele>142.41</ele>
        <time>2021-08-18T12:29:41Z</time>
      </trkpt>
      <trkpt lat="43.72726" lon="1.29705">
        <ele>143.37</ele>
        <time>2021-08-18T12:29:50Z</time>
      </trkpt>
      <trkpt lat="43.72681" lon="1.29771">
        <ele>145.3</ele>
        <time>2021-08-18T12:30:02Z</time>
      </trkpt>
      <trkpt lat="43.72677" lon="1.29775">
        <ele>145.3</ele>
        <time>2021-08-18T12:30:03Z</time>
      </trkpt>
      <trkpt lat="43.72668" lon="1.29782">
        <ele>145.78</ele>
        <time>2021-08-18T12:30:05Z</time>
      </trkpt>
      <trkpt lat="43.72656" lon="1.29789">
        <ele>146.26</ele>
        <time>2021-08-18T12:30:08Z</time>
      </trkpt>
      <trkpt lat="43.72639" lon="1.29793">
        <ele>146.74</ele>
        <time>2021-08-18T12:30:12Z</time>
      </trkpt>
      <trkpt lat="43.72613" lon="1.29786">
        <ele>148.66</ele>
        <time>2021-08-18T12:30:19Z</time>
      </trkpt>
      <trkpt lat="43.72597" lon="1.2978">
        <ele>149.62</ele>
        <time>2021-08-18T12:30:26Z</time>
      </trkpt>
      <trkpt lat="43.72599" lon="1.29781">
        <ele>150.1</ele>
        <time>2021-08-18T12:30:35Z</time>
      </trkpt>
      <trkpt lat="43.72601" lon="1.2978">
        <ele>150.1</ele>
        <time>2021-08-18T12:30:51Z</time>
      </trkpt>
      <trkpt lat="43.72601" lon="1.2978">
        <ele>150.1</ele>
        <time>2021-08-18T12:31:01Z</time>
      </trkpt>
      <trkpt lat="43.72595" lon="1.29778">
        <ele>150.1</ele>
        <time>2021-08-18T12:31:08Z</time>
      </trkpt>
      <trkpt lat="43.72578" lon="1.29768">
        <ele>151.06</ele>
        <time>2021-08-18T12:31:14Z</time>
      </trkpt>
      <trkpt lat="43.72561" lon="1.2976">
        <ele>152.03</ele>
        <time>2021-08-18T12:31:20Z</time>
      </trkpt>
      <trkpt lat="43.72545" lon="1.29755">
        <ele>152.99</ele>
        <time>2021-08-18T12:31:27Z</time>
      </trkpt>
      <trkpt lat="43.72527" lon="1.29751">
        <ele>154.43</ele>
        <time>2021-08-18T12:31:34Z</time>
      </trkpt>
      <trkpt lat="43.72503" lon="1.29749">
        <ele>155.87</ele>
        <time>2021-08-18T12:31:42Z</time>
      </trkpt>
      <trkpt lat="43.7248" lon="1.29755">
        <ele>156.35</ele>
        <time>2021-08-18T12:31:49Z</time>
      </trkpt>
      <trkpt lat="43.7246" lon="1.29765">
        <ele>157.79</ele>
        <time>2021-08-18T12:31:56Z</time>
      </trkpt>
      <trkpt lat="43.7244" lon="1.29776">
        <ele>159.24</ele>
        <time>2021-08-18T12:32:03Z</time>
      </trkpt>
      <trkpt lat="43.72416" lon="1.29793">
        <ele>160.68</ele>
        <time>2021-08-18T12:32:11Z</time>
      </trkpt>
      <trkpt lat="43.7241" lon="1.29798">
        <ele>160.68</ele>
        <time>2021-08-18T12:32:13Z</time>
      </trkpt>
      <trkpt lat="43.72405" lon="1.29801">
        <ele>160.68</ele>
        <time>2021-08-18T12:32:14Z</time>
      </trkpt>
      <trkpt lat="43.72377" lon="1.29821">
        <ele>160.68</ele>
        <time>2021-08-18T12:32:21Z</time>
      </trkpt>
      <trkpt lat="43.72368" lon="1.29826">
        <ele>160.68</ele>
        <time>2021-08-18T12:32:23Z</time>
      </trkpt>
      <trkpt lat="43.72363" lon="1.29829">
        <ele>160.68</ele>
        <time>2021-08-18T12:32:24Z</time>
      </trkpt>
      <trkpt lat="43.72358" lon="1.29831">
        <ele>160.68</ele>
        <time>2021-08-18T12:32:25Z</time>
      </trkpt>
      <trkpt lat="43.72353" lon="1.29833">
        <ele>160.68</ele>
        <time>2021-08-18T12:32:26Z</time>
      </trkpt>
      <trkpt lat="43.72348" lon="1.29833">
        <ele>160.68</ele>
        <time>2021-08-18T12:32:27Z</time>
      </trkpt>
      <trkpt lat="43.72334" lon="1.29836">
        <ele>161.16</ele>
        <time>2021-08-18T12:32:30Z</time>
      </trkpt>
      <trkpt lat="43.7233" lon="1.29835">
        <ele>161.16</ele>
        <time>2021-08-18T12:32:31Z</time>
      </trkpt>
      <trkpt lat="43.72326" lon="1.29834">
        <ele>161.16</ele>
        <time>2021-08-18T12:32:32Z</time>
      </trkpt>
      <trkpt lat="43.72323" lon="1.29833">
        <ele>161.64</ele>
        <time>2021-08-18T12:32:33Z</time>
      </trkpt>
      <trkpt lat="43.72319" lon="1.29833">
        <ele>161.64</ele>
        <time>2021-08-18T12:32:34Z</time>
      </trkpt>
      <trkpt lat="43.7231" lon="1.29831">
        <ele>161.64</ele>
        <time>2021-08-18T12:32:36Z</time>
      </trkpt>
      <trkpt lat="43.72302" lon="1.29828">
        <ele>161.64</ele>
        <time>2021-08-18T12:32:38Z</time>
      </trkpt>
      <trkpt lat="43.72293" lon="1.29825">
        <ele>161.64</ele>
        <time>2021-08-18T12:32:40Z</time>
      </trkpt>
      <trkpt lat="43.72289" lon="1.29822">
        <ele>161.64</ele>
        <time>2021-08-18T12:32:41Z</time>
      </trkpt>
      <trkpt lat="43.72276" lon="1.29813">
        <ele>161.16</ele>
        <time>2021-08-18T12:32:44Z</time>
      </trkpt>
      <trkpt lat="43.72272" lon="1.29809">
        <ele>161.64</ele>
        <time>2021-08-18T12:32:45Z</time>
      </trkpt>
      <trkpt lat="43.72268" lon="1.29803">
        <ele>161.64</ele>
        <time>2021-08-18T12:32:46Z</time>
      </trkpt>
      <trkpt lat="43.72238" lon="1.29756">
        <ele>161.64</ele>
        <time>2021-08-18T12:32:55Z</time>
      </trkpt>
      <trkpt lat="43.72235" lon="1.29751">
        <ele>161.64</ele>
        <time>2021-08-18T12:32:56Z</time>
      </trkpt>
      <trkpt lat="43.72231" lon="1.29747">
        <ele>161.64</ele>
        <time>2021-08-18T12:32:57Z</time>
      </trkpt>
      <trkpt lat="43.72228" lon="1.29742">
        <ele>161.64</ele>
        <time>2021-08-18T12:32:58Z</time>
      </trkpt>
      <trkpt lat="43.72198" lon="1.29698">
        <ele>160.68</ele>
        <time>2021-08-18T12:33:07Z</time>
      </trkpt>
      <trkpt lat="43.72189" lon="1.29686">
        <ele>160.68</ele>
        <time>2021-08-18T12:33:11Z</time>
      </trkpt>
      <trkpt lat="43.72186" lon="1.29687">
        <ele>160.68</ele>
        <time>2021-08-18T12:33:12Z</time>
      </trkpt>
      <trkpt lat="43.72183" lon="1.2969">
        <ele>160.68</ele>
        <time>2021-08-18T12:33:13Z</time>
      </trkpt>
      <trkpt lat="43.7218" lon="1.29693">
        <ele>160.68</ele>
        <time>2021-08-18T12:33:14Z</time>
      </trkpt>
      <trkpt lat="43.72177" lon="1.29697">
        <ele>160.68</ele>
        <time>2021-08-18T12:33:15Z</time>
      </trkpt>
      <trkpt lat="43.72148" lon="1.29735">
        <ele>160.68</ele>
        <time>2021-08-18T12:33:23Z</time>
      </trkpt>
      <trkpt lat="43.72124" lon="1.29764">
        <ele>160.2</ele>
        <time>2021-08-18T12:33:29Z</time>
      </trkpt>
      <trkpt lat="43.72119" lon="1.29766">
        <ele>160.2</ele>
        <time>2021-08-18T12:33:30Z</time>
      </trkpt>
      <trkpt lat="43.72115" lon="1.29764">
        <ele>160.2</ele>
        <time>2021-08-18T12:33:31Z</time>
      </trkpt>
      <trkpt lat="43.72112" lon="1.29759">
        <ele>159.24</ele>
        <time>2021-08-18T12:33:32Z</time>
      </trkpt>
      <trkpt lat="43.7211" lon="1.29753">
        <ele>159.24</ele>
        <time>2021-08-18T12:33:33Z</time>
      </trkpt>
      <trkpt lat="43.72109" lon="1.29745">
        <ele>159.24</ele>
        <time>2021-08-18T12:33:34Z</time>
      </trkpt>
      <trkpt lat="43.72098" lon="1.29686">
        <ele>158.75</ele>
        <time>2021-08-18T12:33:41Z</time>
      </trkpt>
      <trkpt lat="43.72089" lon="1.29603">
        <ele>157.79</ele>
        <time>2021-08-18T12:33:50Z</time>
      </trkpt>
      <trkpt lat="43.72081" lon="1.29538">
        <ele>158.75</ele>
        <time>2021-08-18T12:33:58Z</time>
      </trkpt>
      <trkpt lat="43.7207" lon="1.2948">
        <ele>159.72</ele>
        <time>2021-08-18T12:34:06Z</time>
      </trkpt>
      <trkpt lat="43.72069" lon="1.29468">
        <ele>159.72</ele>
        <time>2021-08-18T12:34:08Z</time>
      </trkpt>
      <trkpt lat="43.72067" lon="1.29463">
        <ele>160.68</ele>
        <time>2021-08-18T12:34:09Z</time>
      </trkpt>
      <trkpt lat="43.72065" lon="1.29458">
        <ele>160.68</ele>
        <time>2021-08-18T12:34:10Z</time>
      </trkpt>
      <trkpt lat="43.72063" lon="1.29454">
        <ele>160.68</ele>
        <time>2021-08-18T12:34:11Z</time>
      </trkpt>
      <trkpt lat="43.72061" lon="1.29448">
        <ele>160.68</ele>
        <time>2021-08-18T12:34:12Z</time>
      </trkpt>
      <trkpt lat="43.72059" lon="1.29443">
        <ele>160.68</ele>
        <time>2021-08-18T12:34:13Z</time>
      </trkpt>
      <trkpt lat="43.72057" lon="1.29437">
        <ele>159.24</ele>
        <time>2021-08-18T12:34:14Z</time>
      </trkpt>
      <trkpt lat="43.72053" lon="1.29434">
        <ele>159.24</ele>
        <time>2021-08-18T12:34:15Z</time>
      </trkpt>
      <trkpt lat="43.72048" lon="1.29431">
        <ele>159.24</ele>
        <time>2021-08-18T12:34:16Z</time>
      </trkpt>
      <trkpt lat="43.72044" lon="1.29431">
        <ele>159.24</ele>
        <time>2021-08-18T12:34:17Z</time>
      </trkpt>
      <trkpt lat="43.7204" lon="1.2943">
        <ele>159.24</ele>
        <time>2021-08-18T12:34:18Z</time>
      </trkpt>
      <trkpt lat="43.72005" lon="1.29423">
        <ele>161.16</ele>
        <time>2021-08-18T12:34:25Z</time>
      </trkpt>
      <trkpt lat="43.71994" lon="1.29419">
        <ele>160.68</ele>
        <time>2021-08-18T12:34:27Z</time>
      </trkpt>
      <trkpt lat="43.71953" lon="1.29399">
        <ele>161.16</ele>
        <time>2021-08-18T12:34:35Z</time>
      </trkpt>
      <trkpt lat="43.71902" lon="1.2937">
        <ele>162.6</ele>
        <time>2021-08-18T12:34:45Z</time>
      </trkpt>
      <trkpt lat="43.71887" lon="1.29363">
        <ele>162.6</ele>
        <time>2021-08-18T12:34:48Z</time>
      </trkpt>
      <trkpt lat="43.71882" lon="1.29359">
        <ele>162.6</ele>
        <time>2021-08-18T12:34:49Z</time>
      </trkpt>
      <trkpt lat="43.71868" lon="1.29346">
        <ele>162.6</ele>
        <time>2021-08-18T12:34:52Z</time>
      </trkpt>
      <trkpt lat="43.71864" lon="1.29341">
        <ele>162.6</ele>
        <time>2021-08-18T12:34:53Z</time>
      </trkpt>
      <trkpt lat="43.7186" lon="1.29336">
        <ele>162.6</ele>
        <time>2021-08-18T12:34:54Z</time>
      </trkpt>
      <trkpt lat="43.71838" lon="1.2931">
        <ele>163.08</ele>
        <time>2021-08-18T12:34:59Z</time>
      </trkpt>
      <trkpt lat="43.71834" lon="1.29306">
        <ele>163.08</ele>
        <time>2021-08-18T12:35:00Z</time>
      </trkpt>
      <trkpt lat="43.71829" lon="1.29303">
        <ele>163.08</ele>
        <time>2021-08-18T12:35:01Z</time>
      </trkpt>
      <trkpt lat="43.71814" lon="1.29291">
        <ele>163.08</ele>
        <time>2021-08-18T12:35:04Z</time>
      </trkpt>
      <trkpt lat="43.7181" lon="1.29286">
        <ele>163.08</ele>
        <time>2021-08-18T12:35:05Z</time>
      </trkpt>
      <trkpt lat="43.71807" lon="1.2928">
        <ele>163.08</ele>
        <time>2021-08-18T12:35:06Z</time>
      </trkpt>
      <trkpt lat="43.71804" lon="1.29273">
        <ele>163.08</ele>
        <time>2021-08-18T12:35:07Z</time>
      </trkpt>
      <trkpt lat="43.71802" lon="1.29266">
        <ele>163.08</ele>
        <time>2021-08-18T12:35:08Z</time>
      </trkpt>
      <trkpt lat="43.718" lon="1.29259">
        <ele>163.08</ele>
        <time>2021-08-18T12:35:09Z</time>
      </trkpt>
      <trkpt lat="43.71799" lon="1.29251">
        <ele>163.08</ele>
        <time>2021-08-18T12:35:10Z</time>
      </trkpt>
      <trkpt lat="43.71798" lon="1.29244">
        <ele>163.08</ele>
        <time>2021-08-18T12:35:11Z</time>
      </trkpt>
      <trkpt lat="43.71797" lon="1.29236">
        <ele>163.56</ele>
        <time>2021-08-18T12:35:12Z</time>
      </trkpt>
      <trkpt lat="43.71794" lon="1.29223">
        <ele>163.56</ele>
        <time>2021-08-18T12:35:14Z</time>
      </trkpt>
      <trkpt lat="43.71791" lon="1.29217">
        <ele>163.56</ele>
        <time>2021-08-18T12:35:15Z</time>
      </trkpt>
      <trkpt lat="43.71788" lon="1.29213">
        <ele>163.56</ele>
        <time>2021-08-18T12:35:16Z</time>
      </trkpt>
      <trkpt lat="43.71785" lon="1.29209">
        <ele>163.56</ele>
        <time>2021-08-18T12:35:17Z</time>
      </trkpt>
      <trkpt lat="43.71782" lon="1.29206">
        <ele>163.56</ele>
        <time>2021-08-18T12:35:18Z</time>
      </trkpt>
      <trkpt lat="43.7178" lon="1.29201">
        <ele>163.56</ele>
        <time>2021-08-18T12:35:19Z</time>
      </trkpt>
      <trkpt lat="43.7178" lon="1.29195">
        <ele>163.56</ele>
        <time>2021-08-18T12:35:20Z</time>
      </trkpt>
      <trkpt lat="43.71779" lon="1.2919">
        <ele>163.56</ele>
        <time>2021-08-18T12:35:21Z</time>
      </trkpt>
      <trkpt lat="43.71778" lon="1.29185">
        <ele>163.56</ele>
        <time>2021-08-18T12:35:22Z</time>
      </trkpt>
      <trkpt lat="43.71776" lon="1.2918">
        <ele>163.56</ele>
        <time>2021-08-18T12:35:23Z</time>
      </trkpt>
      <trkpt lat="43.71773" lon="1.29175">
        <ele>163.56</ele>
        <time>2021-08-18T12:35:24Z</time>
      </trkpt>
      <trkpt lat="43.7177" lon="1.29172">
        <ele>163.56</ele>
        <time>2021-08-18T12:35:25Z</time>
      </trkpt>
      <trkpt lat="43.71767" lon="1.29168">
        <ele>163.56</ele>
        <time>2021-08-18T12:35:26Z</time>
      </trkpt>
      <trkpt lat="43.71763" lon="1.29165">
        <ele>163.56</ele>
        <time>2021-08-18T12:35:27Z</time>
      </trkpt>
      <trkpt lat="43.71759" lon="1.29162">
        <ele>163.56</ele>
        <time>2021-08-18T12:35:28Z</time>
      </trkpt>
      <trkpt lat="43.71755" lon="1.29159">
        <ele>163.56</ele>
        <time>2021-08-18T12:35:29Z</time>
      </trkpt>
      <trkpt lat="43.71751" lon="1.29157">
        <ele>163.56</ele>
        <time>2021-08-18T12:35:30Z</time>
      </trkpt>
      <trkpt lat="43.71746" lon="1.29156">
        <ele>163.56</ele>
        <time>2021-08-18T12:35:31Z</time>
      </trkpt>
      <trkpt lat="43.71741" lon="1.29155">
        <ele>163.56</ele>
        <time>2021-08-18T12:35:32Z</time>
      </trkpt>
      <trkpt lat="43.71736" lon="1.29154">
        <ele>163.56</ele>
        <time>2021-08-18T12:35:33Z</time>
      </trkpt>
      <trkpt lat="43.71731" lon="1.29153">
        <ele>163.56</ele>
        <time>2021-08-18T12:35:34Z</time>
      </trkpt>
      <trkpt lat="43.71727" lon="1.29151">
        <ele>163.56</ele>
        <time>2021-08-18T12:35:35Z</time>
      </trkpt>
      <trkpt lat="43.71722" lon="1.29149">
        <ele>163.56</ele>
        <time>2021-08-18T12:35:36Z</time>
      </trkpt>
      <trkpt lat="43.71717" lon="1.29145">
        <ele>163.08</ele>
        <time>2021-08-18T12:35:37Z</time>
      </trkpt>
      <trkpt lat="43.71715" lon="1.29139">
        <ele>163.56</ele>
        <time>2021-08-18T12:35:38Z</time>
      </trkpt>
      <trkpt lat="43.71715" lon="1.29132">
        <ele>163.56</ele>
        <time>2021-08-18T12:35:39Z</time>
      </trkpt>
      <trkpt lat="43.71715" lon="1.29127">
        <ele>163.56</ele>
        <time>2021-08-18T12:35:40Z</time>
      </trkpt>
      <trkpt lat="43.71714" lon="1.2912">
        <ele>163.56</ele>
        <time>2021-08-18T12:35:41Z</time>
      </trkpt>
      <trkpt lat="43.71713" lon="1.29114">
        <ele>163.56</ele>
        <time>2021-08-18T12:35:42Z</time>
      </trkpt>
      <trkpt lat="43.71712" lon="1.29107">
        <ele>163.56</ele>
        <time>2021-08-18T12:35:43Z</time>
      </trkpt>
      <trkpt lat="43.71709" lon="1.29101">
        <ele>163.56</ele>
        <time>2021-08-18T12:35:44Z</time>
      </trkpt>
      <trkpt lat="43.71707" lon="1.29095">
        <ele>163.56</ele>
        <time>2021-08-18T12:35:45Z</time>
      </trkpt>
      <trkpt lat="43.71704" lon="1.29089">
        <ele>163.56</ele>
        <time>2021-08-18T12:35:46Z</time>
      </trkpt>
      <trkpt lat="43.71697" lon="1.29078">
        <ele>163.56</ele>
        <time>2021-08-18T12:35:48Z</time>
      </trkpt>
      <trkpt lat="43.71658" lon="1.29033">
        <ele>163.56</ele>
        <time>2021-08-18T12:35:57Z</time>
      </trkpt>
      <trkpt lat="43.71618" lon="1.28991">
        <ele>164.04</ele>
        <time>2021-08-18T12:36:06Z</time>
      </trkpt>
      <trkpt lat="43.71584" lon="1.28949">
        <ele>165.96</ele>
        <time>2021-08-18T12:36:15Z</time>
      </trkpt>
      <trkpt lat="43.71547" lon="1.289">
        <ele>167.41</ele>
        <time>2021-08-18T12:36:25Z</time>
      </trkpt>
      <trkpt lat="43.71514" lon="1.28853">
        <ele>168.85</ele>
        <time>2021-08-18T12:36:35Z</time>
      </trkpt>
      <trkpt lat="43.71511" lon="1.28849">
        <ele>168.85</ele>
        <time>2021-08-18T12:36:36Z</time>
      </trkpt>
      <trkpt lat="43.71505" lon="1.2884">
        <ele>168.85</ele>
        <time>2021-08-18T12:36:38Z</time>
      </trkpt>
      <trkpt lat="43.71501" lon="1.28836">
        <ele>169.33</ele>
        <time>2021-08-18T12:36:39Z</time>
      </trkpt>
      <trkpt lat="43.71498" lon="1.28831">
        <ele>169.33</ele>
        <time>2021-08-18T12:36:40Z</time>
      </trkpt>
      <trkpt lat="43.71472" lon="1.28795">
        <ele>170.29</ele>
        <time>2021-08-18T12:36:48Z</time>
      </trkpt>
      <trkpt lat="43.7145" lon="1.28762">
        <ele>170.77</ele>
        <time>2021-08-18T12:36:55Z</time>
      </trkpt>
      <trkpt lat="43.71439" lon="1.28743">
        <ele>171.73</ele>
        <time>2021-08-18T12:36:59Z</time>
      </trkpt>
      <trkpt lat="43.71417" lon="1.287">
        <ele>173.17</ele>
        <time>2021-08-18T12:37:08Z</time>
      </trkpt>
      <trkpt lat="43.71392" lon="1.28649">
        <ele>172.69</ele>
        <time>2021-08-18T12:37:17Z</time>
      </trkpt>
      <trkpt lat="43.71358" lon="1.28574">
        <ele>172.69</ele>
        <time>2021-08-18T12:37:29Z</time>
      </trkpt>
      <trkpt lat="43.71344" lon="1.28552">
        <ele>173.17</ele>
        <time>2021-08-18T12:37:33Z</time>
      </trkpt>
      <trkpt lat="43.713" lon="1.285">
        <ele>174.62</ele>
        <time>2021-08-18T12:37:43Z</time>
      </trkpt>
      <trkpt lat="43.7126" lon="1.28449">
        <ele>175.1</ele>
        <time>2021-08-18T12:37:52Z</time>
      </trkpt>
      <trkpt lat="43.71214" lon="1.28386">
        <ele>175.1</ele>
        <time>2021-08-18T12:38:03Z</time>
      </trkpt>
      <trkpt lat="43.71163" lon="1.28326">
        <ele>175.58</ele>
        <time>2021-08-18T12:38:14Z</time>
      </trkpt>
      <trkpt lat="43.71116" lon="1.28269">
        <ele>175.58</ele>
        <time>2021-08-18T12:38:24Z</time>
      </trkpt>
      <trkpt lat="43.71067" lon="1.28213">
        <ele>175.58</ele>
        <time>2021-08-18T12:38:34Z</time>
      </trkpt>
      <trkpt lat="43.7103" lon="1.28176">
        <ele>175.58</ele>
        <time>2021-08-18T12:38:41Z</time>
      </trkpt>
      <trkpt lat="43.70988" lon="1.28134">
        <ele>175.58</ele>
        <time>2021-08-18T12:38:50Z</time>
      </trkpt>
      <trkpt lat="43.70962" lon="1.28115">
        <ele>175.58</ele>
        <time>2021-08-18T12:38:55Z</time>
      </trkpt>
      <trkpt lat="43.70901" lon="1.28072">
        <ele>176.06</ele>
        <time>2021-08-18T12:39:06Z</time>
      </trkpt>
      <trkpt lat="43.7089" lon="1.28067">
        <ele>176.06</ele>
        <time>2021-08-18T12:39:08Z</time>
      </trkpt>
      <trkpt lat="43.70836" lon="1.28057">
        <ele>176.06</ele>
        <time>2021-08-18T12:39:17Z</time>
      </trkpt>
      <trkpt lat="43.70782" lon="1.28053">
        <ele>176.54</ele>
        <time>2021-08-18T12:39:26Z</time>
      </trkpt>
      <trkpt lat="43.70775" lon="1.28052">
        <ele>176.54</ele>
        <time>2021-08-18T12:39:27Z</time>
      </trkpt>
      <trkpt lat="43.70739" lon="1.2805">
        <ele>176.54</ele>
        <time>2021-08-18T12:39:33Z</time>
      </trkpt>
      <trkpt lat="43.70681" lon="1.28039">
        <ele>176.54</ele>
        <time>2021-08-18T12:39:42Z</time>
      </trkpt>
      <trkpt lat="43.70624" lon="1.2802">
        <ele>176.54</ele>
        <time>2021-08-18T12:39:51Z</time>
      </trkpt>
      <trkpt lat="43.70562" lon="1.27992">
        <ele>177.5</ele>
        <time>2021-08-18T12:40:01Z</time>
      </trkpt>
      <trkpt lat="43.70507" lon="1.2796">
        <ele>177.5</ele>
        <time>2021-08-18T12:40:10Z</time>
      </trkpt>
      <trkpt lat="43.70459" lon="1.27924">
        <ele>177.5</ele>
        <time>2021-08-18T12:40:18Z</time>
      </trkpt>
      <trkpt lat="43.70412" lon="1.27882">
        <ele>177.5</ele>
        <time>2021-08-18T12:40:26Z</time>
      </trkpt>
      <trkpt lat="43.70351" lon="1.27831">
        <ele>177.5</ele>
        <time>2021-08-18T12:40:36Z</time>
      </trkpt>
      <trkpt lat="43.703" lon="1.27788">
        <ele>177.5</ele>
        <time>2021-08-18T12:40:45Z</time>
      </trkpt>
      <trkpt lat="43.70244" lon="1.27741">
        <ele>176.54</ele>
        <time>2021-08-18T12:40:54Z</time>
      </trkpt>
      <trkpt lat="43.70183" lon="1.27685">
        <ele>175.58</ele>
        <time>2021-08-18T12:41:04Z</time>
      </trkpt>
      <trkpt lat="43.70172" lon="1.27673">
        <ele>177.02</ele>
        <time>2021-08-18T12:41:06Z</time>
      </trkpt>
      <trkpt lat="43.70132" lon="1.27627">
        <ele>176.06</ele>
        <time>2021-08-18T12:41:14Z</time>
      </trkpt>
      <trkpt lat="43.70094" lon="1.27581">
        <ele>176.06</ele>
        <time>2021-08-18T12:41:23Z</time>
      </trkpt>
      <trkpt lat="43.70065" lon="1.27552">
        <ele>175.58</ele>
        <time>2021-08-18T12:41:30Z</time>
      </trkpt>
      <trkpt lat="43.70056" lon="1.27544">
        <ele>177.02</ele>
        <time>2021-08-18T12:41:32Z</time>
      </trkpt>
      <trkpt lat="43.70034" lon="1.27527">
        <ele>177.02</ele>
        <time>2021-08-18T12:41:37Z</time>
      </trkpt>
      <trkpt lat="43.70024" lon="1.27522">
        <ele>177.98</ele>
        <time>2021-08-18T12:41:39Z</time>
      </trkpt>
      <trkpt lat="43.7002" lon="1.27518">
        <ele>177.98</ele>
        <time>2021-08-18T12:41:40Z</time>
      </trkpt>
      <trkpt lat="43.70015" lon="1.27515">
        <ele>177.98</ele>
        <time>2021-08-18T12:41:41Z</time>
      </trkpt>
      <trkpt lat="43.69975" lon="1.27483">
        <ele>177.98</ele>
        <time>2021-08-18T12:41:49Z</time>
      </trkpt>
      <trkpt lat="43.69919" lon="1.2743">
        <ele>177.98</ele>
        <time>2021-08-18T12:42:00Z</time>
      </trkpt>
      <trkpt lat="43.69873" lon="1.27384">
        <ele>177.98</ele>
        <time>2021-08-18T12:42:09Z</time>
      </trkpt>
      <trkpt lat="43.69819" lon="1.27332">
        <ele>177.98</ele>
        <time>2021-08-18T12:42:19Z</time>
      </trkpt>
      <trkpt lat="43.69773" lon="1.27288">
        <ele>177.98</ele>
        <time>2021-08-18T12:42:28Z</time>
      </trkpt>
      <trkpt lat="43.69754" lon="1.27268">
        <ele>177.98</ele>
        <time>2021-08-18T12:42:32Z</time>
      </trkpt>
      <trkpt lat="43.69711" lon="1.27215">
        <ele>177.98</ele>
        <time>2021-08-18T12:42:42Z</time>
      </trkpt>
      <trkpt lat="43.69675" lon="1.27168">
        <ele>178.94</ele>
        <time>2021-08-18T12:42:50Z</time>
      </trkpt>
      <trkpt lat="43.69645" lon="1.27114">
        <ele>178.94</ele>
        <time>2021-08-18T12:42:58Z</time>
      </trkpt>
      <trkpt lat="43.69618" lon="1.27058">
        <ele>178.94</ele>
        <time>2021-08-18T12:43:06Z</time>
      </trkpt>
      <trkpt lat="43.69587" lon="1.26998">
        <ele>178.94</ele>
        <time>2021-08-18T12:43:15Z</time>
      </trkpt>
      <trkpt lat="43.6958" lon="1.26986">
        <ele>178.94</ele>
        <time>2021-08-18T12:43:17Z</time>
      </trkpt>
      <trkpt lat="43.69577" lon="1.26979">
        <ele>178.94</ele>
        <time>2021-08-18T12:43:18Z</time>
      </trkpt>
      <trkpt lat="43.69548" lon="1.26928">
        <ele>179.42</ele>
        <time>2021-08-18T12:43:26Z</time>
      </trkpt>
      <trkpt lat="43.69538" lon="1.26908">
        <ele>179.42</ele>
        <time>2021-08-18T12:43:29Z</time>
      </trkpt>
      <trkpt lat="43.69535" lon="1.26902">
        <ele>179.42</ele>
        <time>2021-08-18T12:43:30Z</time>
      </trkpt>
      <trkpt lat="43.69524" lon="1.26876">
        <ele>180.38</ele>
        <time>2021-08-18T12:43:34Z</time>
      </trkpt>
      <trkpt lat="43.69521" lon="1.2687">
        <ele>180.38</ele>
        <time>2021-08-18T12:43:35Z</time>
      </trkpt>
      <trkpt lat="43.69519" lon="1.26864">
        <ele>180.38</ele>
        <time>2021-08-18T12:43:36Z</time>
      </trkpt>
      <trkpt lat="43.69516" lon="1.26858">
        <ele>180.38</ele>
        <time>2021-08-18T12:43:37Z</time>
      </trkpt>
      <trkpt lat="43.69515" lon="1.26852">
        <ele>180.38</ele>
        <time>2021-08-18T12:43:38Z</time>
      </trkpt>
      <trkpt lat="43.69513" lon="1.26845">
        <ele>180.38</ele>
        <time>2021-08-18T12:43:39Z</time>
      </trkpt>
      <trkpt lat="43.6951" lon="1.26834">
        <ele>180.38</ele>
        <time>2021-08-18T12:43:41Z</time>
      </trkpt>
      <trkpt lat="43.69507" lon="1.26829">
        <ele>180.38</ele>
        <time>2021-08-18T12:43:42Z</time>
      </trkpt>
      <trkpt lat="43.69504" lon="1.26824">
        <ele>180.38</ele>
        <time>2021-08-18T12:43:43Z</time>
      </trkpt>
      <trkpt lat="43.695" lon="1.26821">
        <ele>180.38</ele>
        <time>2021-08-18T12:43:44Z</time>
      </trkpt>
      <trkpt lat="43.69496" lon="1.26819">
        <ele>180.38</ele>
        <time>2021-08-18T12:43:45Z</time>
      </trkpt>
      <trkpt lat="43.69491" lon="1.26816">
        <ele>178.94</ele>
        <time>2021-08-18T12:43:46Z</time>
      </trkpt>
      <trkpt lat="43.69486" lon="1.26813">
        <ele>178.94</ele>
        <time>2021-08-18T12:43:47Z</time>
      </trkpt>
      <trkpt lat="43.69482" lon="1.26809">
        <ele>177.5</ele>
        <time>2021-08-18T12:43:48Z</time>
      </trkpt>
      <trkpt lat="43.69476" lon="1.26805">
        <ele>177.5</ele>
        <time>2021-08-18T12:43:49Z</time>
      </trkpt>
      <trkpt lat="43.69464" lon="1.26798">
        <ele>176.54</ele>
        <time>2021-08-18T12:43:51Z</time>
      </trkpt>
      <trkpt lat="43.69457" lon="1.26796">
        <ele>176.54</ele>
        <time>2021-08-18T12:43:52Z</time>
      </trkpt>
      <trkpt lat="43.6945" lon="1.26796">
        <ele>176.06</ele>
        <time>2021-08-18T12:43:53Z</time>
      </trkpt>
      <trkpt lat="43.69443" lon="1.26798">
        <ele>176.06</ele>
        <time>2021-08-18T12:43:54Z</time>
      </trkpt>
      <trkpt lat="43.69435" lon="1.268">
        <ele>175.1</ele>
        <time>2021-08-18T12:43:55Z</time>
      </trkpt>
      <trkpt lat="43.69397" lon="1.26812">
        <ele>173.66</ele>
        <time>2021-08-18T12:44:00Z</time>
      </trkpt>
      <trkpt lat="43.69369" lon="1.26824">
        <ele>176.06</ele>
        <time>2021-08-18T12:44:05Z</time>
      </trkpt>
      <trkpt lat="43.69355" lon="1.2683">
        <ele>177.98</ele>
        <time>2021-08-18T12:44:09Z</time>
      </trkpt>
      <trkpt lat="43.6934" lon="1.26837">
        <ele>179.42</ele>
        <time>2021-08-18T12:44:14Z</time>
      </trkpt>
      <trkpt lat="43.69319" lon="1.26844">
        <ele>179.9</ele>
        <time>2021-08-18T12:44:20Z</time>
      </trkpt>
      <trkpt lat="43.69314" lon="1.26844">
        <ele>179.9</ele>
        <time>2021-08-18T12:44:21Z</time>
      </trkpt>
      <trkpt lat="43.69286" lon="1.26843">
        <ele>179.9</ele>
        <time>2021-08-18T12:44:27Z</time>
      </trkpt>
      <trkpt lat="43.69261" lon="1.26846">
        <ele>179.9</ele>
        <time>2021-08-18T12:44:33Z</time>
      </trkpt>
      <trkpt lat="43.69253" lon="1.2685">
        <ele>179.9</ele>
        <time>2021-08-18T12:44:35Z</time>
      </trkpt>
      <trkpt lat="43.69214" lon="1.26872">
        <ele>179.9</ele>
        <time>2021-08-18T12:44:43Z</time>
      </trkpt>
      <trkpt lat="43.69169" lon="1.26903">
        <ele>179.9</ele>
        <time>2021-08-18T12:44:52Z</time>
      </trkpt>
      <trkpt lat="43.6912" lon="1.26949">
        <ele>179.9</ele>
        <time>2021-08-18T12:45:02Z</time>
      </trkpt>
      <trkpt lat="43.69085" lon="1.26979">
        <ele>179.9</ele>
        <time>2021-08-18T12:45:09Z</time>
      </trkpt>
      <trkpt lat="43.69044" lon="1.27014">
        <ele>179.9</ele>
        <time>2021-08-18T12:45:17Z</time>
      </trkpt>
      <trkpt lat="43.69025" lon="1.27032">
        <ele>179.9</ele>
        <time>2021-08-18T12:45:21Z</time>
      </trkpt>
      <trkpt lat="43.6902" lon="1.27038">
        <ele>179.9</ele>
        <time>2021-08-18T12:45:22Z</time>
      </trkpt>
      <trkpt lat="43.6899" lon="1.27081">
        <ele>179.9</ele>
        <time>2021-08-18T12:45:29Z</time>
      </trkpt>
      <trkpt lat="43.68963" lon="1.27127">
        <ele>180.38</ele>
        <time>2021-08-18T12:45:36Z</time>
      </trkpt>
      <trkpt lat="43.68933" lon="1.27172">
        <ele>180.38</ele>
        <time>2021-08-18T12:45:43Z</time>
      </trkpt>
      <trkpt lat="43.68911" lon="1.27202">
        <ele>180.38</ele>
        <time>2021-08-18T12:45:48Z</time>
      </trkpt>
      <trkpt lat="43.68867" lon="1.2725">
        <ele>180.38</ele>
        <time>2021-08-18T12:45:57Z</time>
      </trkpt>
      <trkpt lat="43.68844" lon="1.27269">
        <ele>179.42</ele>
        <time>2021-08-18T12:46:01Z</time>
      </trkpt>
      <trkpt lat="43.68838" lon="1.27272">
        <ele>178.46</ele>
        <time>2021-08-18T12:46:02Z</time>
      </trkpt>
      <trkpt lat="43.68831" lon="1.27273">
        <ele>178.46</ele>
        <time>2021-08-18T12:46:03Z</time>
      </trkpt>
      <trkpt lat="43.68825" lon="1.27274">
        <ele>178.46</ele>
        <time>2021-08-18T12:46:04Z</time>
      </trkpt>
      <trkpt lat="43.68819" lon="1.27274">
        <ele>178.46</ele>
        <time>2021-08-18T12:46:05Z</time>
      </trkpt>
      <trkpt lat="43.68812" lon="1.27274">
        <ele>177.98</ele>
        <time>2021-08-18T12:46:06Z</time>
      </trkpt>
      <trkpt lat="43.68805" lon="1.27273">
        <ele>177.98</ele>
        <time>2021-08-18T12:46:07Z</time>
      </trkpt>
      <trkpt lat="43.68798" lon="1.2727">
        <ele>177.98</ele>
        <time>2021-08-18T12:46:08Z</time>
      </trkpt>
      <trkpt lat="43.68758" lon="1.27246">
        <ele>174.62</ele>
        <time>2021-08-18T12:46:14Z</time>
      </trkpt>
      <trkpt lat="43.68702" lon="1.27201">
        <ele>173.66</ele>
        <time>2021-08-18T12:46:22Z</time>
      </trkpt>
      <trkpt lat="43.68653" lon="1.27151">
        <ele>172.69</ele>
        <time>2021-08-18T12:46:30Z</time>
      </trkpt>
      <trkpt lat="43.68627" lon="1.27126">
        <ele>174.14</ele>
        <time>2021-08-18T12:46:35Z</time>
      </trkpt>
      <trkpt lat="43.68617" lon="1.27117">
        <ele>174.14</ele>
        <time>2021-08-18T12:46:37Z</time>
      </trkpt>
      <trkpt lat="43.68603" lon="1.271">
        <ele>174.62</ele>
        <time>2021-08-18T12:46:40Z</time>
      </trkpt>
      <trkpt lat="43.68599" lon="1.27093">
        <ele>174.62</ele>
        <time>2021-08-18T12:46:41Z</time>
      </trkpt>
      <trkpt lat="43.68596" lon="1.27085">
        <ele>174.62</ele>
        <time>2021-08-18T12:46:42Z</time>
      </trkpt>
      <trkpt lat="43.68593" lon="1.27076">
        <ele>174.62</ele>
        <time>2021-08-18T12:46:43Z</time>
      </trkpt>
      <trkpt lat="43.68591" lon="1.2707">
        <ele>174.62</ele>
        <time>2021-08-18T12:46:44Z</time>
      </trkpt>
      <trkpt lat="43.68563" lon="1.26983">
        <ele>175.1</ele>
        <time>2021-08-18T12:46:55Z</time>
      </trkpt>
      <trkpt lat="43.68534" lon="1.26934">
        <ele>177.02</ele>
        <time>2021-08-18T12:47:03Z</time>
      </trkpt>
      <trkpt lat="43.68516" lon="1.26916">
        <ele>178.94</ele>
        <time>2021-08-18T12:47:09Z</time>
      </trkpt>
      <trkpt lat="43.68488" lon="1.26903">
        <ele>180.38</ele>
        <time>2021-08-18T12:47:17Z</time>
      </trkpt>
      <trkpt lat="43.68476" lon="1.26897">
        <ele>180.38</ele>
        <time>2021-08-18T12:47:20Z</time>
      </trkpt>
      <trkpt lat="43.68436" lon="1.26883">
        <ele>180.38</ele>
        <time>2021-08-18T12:47:29Z</time>
      </trkpt>
      <trkpt lat="43.68432" lon="1.26881">
        <ele>180.87</ele>
        <time>2021-08-18T12:47:30Z</time>
      </trkpt>
      <trkpt lat="43.68428" lon="1.2688">
        <ele>180.87</ele>
        <time>2021-08-18T12:47:31Z</time>
      </trkpt>
      <trkpt lat="43.68424" lon="1.26879">
        <ele>180.87</ele>
        <time>2021-08-18T12:47:32Z</time>
      </trkpt>
      <trkpt lat="43.68383" lon="1.26865">
        <ele>181.35</ele>
        <time>2021-08-18T12:47:41Z</time>
      </trkpt>
      <trkpt lat="43.68341" lon="1.26848">
        <ele>181.35</ele>
        <time>2021-08-18T12:47:49Z</time>
      </trkpt>
      <trkpt lat="43.68292" lon="1.2683">
        <ele>180.87</ele>
        <time>2021-08-18T12:47:58Z</time>
      </trkpt>
      <trkpt lat="43.68246" lon="1.26814">
        <ele>179.9</ele>
        <time>2021-08-18T12:48:06Z</time>
      </trkpt>
      <trkpt lat="43.68193" lon="1.26799">
        <ele>178.94</ele>
        <time>2021-08-18T12:48:14Z</time>
      </trkpt>
      <trkpt lat="43.68138" lon="1.26797">
        <ele>178.94</ele>
        <time>2021-08-18T12:48:23Z</time>
      </trkpt>
      <trkpt lat="43.68099" lon="1.268">
        <ele>178.94</ele>
        <time>2021-08-18T12:48:29Z</time>
      </trkpt>
      <trkpt lat="43.68043" lon="1.26826">
        <ele>178.94</ele>
        <time>2021-08-18T12:48:38Z</time>
      </trkpt>
      <trkpt lat="43.6803" lon="1.26832">
        <ele>178.94</ele>
        <time>2021-08-18T12:48:40Z</time>
      </trkpt>
      <trkpt lat="43.67989" lon="1.26848">
        <ele>178.94</ele>
        <time>2021-08-18T12:48:47Z</time>
      </trkpt>
      <trkpt lat="43.67983" lon="1.26849">
        <ele>178.94</ele>
        <time>2021-08-18T12:48:48Z</time>
      </trkpt>
      <trkpt lat="43.67957" lon="1.26847">
        <ele>180.38</ele>
        <time>2021-08-18T12:48:52Z</time>
      </trkpt>
      <trkpt lat="43.679" lon="1.26836">
        <ele>180.87</ele>
        <time>2021-08-18T12:49:01Z</time>
      </trkpt>
      <trkpt lat="43.67857" lon="1.26819">
        <ele>180.87</ele>
        <time>2021-08-18T12:49:08Z</time>
      </trkpt>
      <trkpt lat="43.67834" lon="1.26804">
        <ele>181.35</ele>
        <time>2021-08-18T12:49:13Z</time>
      </trkpt>
      <trkpt lat="43.67832" lon="1.26804">
        <ele>181.35</ele>
        <time>2021-08-18T12:49:14Z</time>
      </trkpt>
      <trkpt lat="43.67832" lon="1.26806">
        <ele>181.35</ele>
        <time>2021-08-18T12:49:15Z</time>
      </trkpt>
      <trkpt lat="43.67834" lon="1.26808">
        <ele>181.35</ele>
        <time>2021-08-18T12:49:17Z</time>
      </trkpt>
      <trkpt lat="43.67836" lon="1.26808">
        <ele>181.35</ele>
        <time>2021-08-18T12:49:18Z</time>
      </trkpt>
      <trkpt lat="43.67839" lon="1.26809">
        <ele>181.35</ele>
        <time>2021-08-18T12:49:19Z</time>
      </trkpt>
      <trkpt lat="43.67842" lon="1.2681">
        <ele>181.35</ele>
        <time>2021-08-18T12:49:20Z</time>
      </trkpt>
      <trkpt lat="43.67845" lon="1.26812">
        <ele>181.35</ele>
        <time>2021-08-18T12:49:21Z</time>
      </trkpt>
      <trkpt lat="43.6788" lon="1.26829">
        <ele>181.35</ele>
        <time>2021-08-18T12:49:29Z</time>
      </trkpt>
      <trkpt lat="43.67895" lon="1.26832">
        <ele>181.35</ele>
        <time>2021-08-18T12:49:33Z</time>
      </trkpt>
      <trkpt lat="43.67898" lon="1.26829">
        <ele>181.35</ele>
        <time>2021-08-18T12:49:34Z</time>
      </trkpt>
      <trkpt lat="43.679" lon="1.26824">
        <ele>181.35</ele>
        <time>2021-08-18T12:49:35Z</time>
      </trkpt>
      <trkpt lat="43.679" lon="1.26818">
        <ele>181.35</ele>
        <time>2021-08-18T12:49:36Z</time>
      </trkpt>
      <trkpt lat="43.67899" lon="1.26812">
        <ele>181.35</ele>
        <time>2021-08-18T12:49:37Z</time>
      </trkpt>
      <trkpt lat="43.67898" lon="1.26806">
        <ele>181.35</ele>
        <time>2021-08-18T12:49:38Z</time>
      </trkpt>
      <trkpt lat="43.67898" lon="1.268">
        <ele>181.35</ele>
        <time>2021-08-18T12:49:39Z</time>
      </trkpt>
      <trkpt lat="43.67896" lon="1.26764">
        <ele>181.35</ele>
        <time>2021-08-18T12:49:45Z</time>
      </trkpt>
      <trkpt lat="43.67896" lon="1.26759">
        <ele>181.35</ele>
        <time>2021-08-18T12:49:46Z</time>
      </trkpt>
      <trkpt lat="43.67894" lon="1.26724">
        <ele>181.35</ele>
        <time>2021-08-18T12:49:52Z</time>
      </trkpt>
      <trkpt lat="43.67892" lon="1.26713">
        <ele>181.35</ele>
        <time>2021-08-18T12:49:54Z</time>
      </trkpt>
      <trkpt lat="43.6789" lon="1.26707">
        <ele>181.35</ele>
        <time>2021-08-18T12:49:55Z</time>
      </trkpt>
      <trkpt lat="43.67887" lon="1.26702">
        <ele>181.35</ele>
        <time>2021-08-18T12:49:56Z</time>
      </trkpt>
      <trkpt lat="43.67884" lon="1.26698">
        <ele>181.35</ele>
        <time>2021-08-18T12:49:57Z</time>
      </trkpt>
      <trkpt lat="43.6788" lon="1.26693">
        <ele>181.35</ele>
        <time>2021-08-18T12:49:58Z</time>
      </trkpt>
      <trkpt lat="43.67877" lon="1.26689">
        <ele>181.35</ele>
        <time>2021-08-18T12:49:59Z</time>
      </trkpt>
      <trkpt lat="43.67832" lon="1.26646">
        <ele>183.27</ele>
        <time>2021-08-18T12:50:11Z</time>
      </trkpt>
      <trkpt lat="43.67806" lon="1.26634">
        <ele>183.75</ele>
        <time>2021-08-18T12:50:17Z</time>
      </trkpt>
      <trkpt lat="43.67802" lon="1.26631">
        <ele>183.75</ele>
        <time>2021-08-18T12:50:18Z</time>
      </trkpt>
      <trkpt lat="43.67757" lon="1.26605">
        <ele>183.75</ele>
        <time>2021-08-18T12:50:27Z</time>
      </trkpt>
      <trkpt lat="43.67752" lon="1.26602">
        <ele>183.75</ele>
        <time>2021-08-18T12:50:28Z</time>
      </trkpt>
      <trkpt lat="43.67747" lon="1.26599">
        <ele>183.75</ele>
        <time>2021-08-18T12:50:29Z</time>
      </trkpt>
      <trkpt lat="43.67706" lon="1.26577">
        <ele>182.31</ele>
        <time>2021-08-18T12:50:37Z</time>
      </trkpt>
      <trkpt lat="43.67659" lon="1.26551">
        <ele>182.31</ele>
        <time>2021-08-18T12:50:46Z</time>
      </trkpt>
      <trkpt lat="43.67618" lon="1.26522">
        <ele>182.31</ele>
        <time>2021-08-18T12:50:54Z</time>
      </trkpt>
      <trkpt lat="43.67599" lon="1.26505">
        <ele>183.75</ele>
        <time>2021-08-18T12:50:58Z</time>
      </trkpt>
      <trkpt lat="43.67562" lon="1.26468">
        <ele>182.31</ele>
        <time>2021-08-18T12:51:06Z</time>
      </trkpt>
      <trkpt lat="43.67558" lon="1.26463">
        <ele>182.31</ele>
        <time>2021-08-18T12:51:07Z</time>
      </trkpt>
      <trkpt lat="43.67531" lon="1.26419">
        <ele>182.31</ele>
        <time>2021-08-18T12:51:14Z</time>
      </trkpt>
      <trkpt lat="43.67514" lon="1.26385">
        <ele>182.31</ele>
        <time>2021-08-18T12:51:19Z</time>
      </trkpt>
      <trkpt lat="43.67488" lon="1.26327">
        <ele>182.31</ele>
        <time>2021-08-18T12:51:27Z</time>
      </trkpt>
      <trkpt lat="43.67458" lon="1.26267">
        <ele>182.31</ele>
        <time>2021-08-18T12:51:36Z</time>
      </trkpt>
      <trkpt lat="43.67454" lon="1.26261">
        <ele>182.31</ele>
        <time>2021-08-18T12:51:37Z</time>
      </trkpt>
      <trkpt lat="43.67435" lon="1.26243">
        <ele>183.75</ele>
        <time>2021-08-18T12:51:41Z</time>
      </trkpt>
      <trkpt lat="43.67384" lon="1.26203">
        <ele>183.75</ele>
        <time>2021-08-18T12:51:51Z</time>
      </trkpt>
      <trkpt lat="43.67343" lon="1.26168">
        <ele>183.75</ele>
        <time>2021-08-18T12:52:00Z</time>
      </trkpt>
      <trkpt lat="43.67296" lon="1.26122">
        <ele>183.75</ele>
        <time>2021-08-18T12:52:10Z</time>
      </trkpt>
      <trkpt lat="43.6726" lon="1.2607">
        <ele>183.27</ele>
        <time>2021-08-18T12:52:19Z</time>
      </trkpt>
      <trkpt lat="43.67245" lon="1.26049">
        <ele>183.27</ele>
        <time>2021-08-18T12:52:23Z</time>
      </trkpt>
      <trkpt lat="43.67225" lon="1.26018">
        <ele>183.27</ele>
        <time>2021-08-18T12:52:29Z</time>
      </trkpt>
      <trkpt lat="43.67217" lon="1.26">
        <ele>183.27</ele>
        <time>2021-08-18T12:52:32Z</time>
      </trkpt>
      <trkpt lat="43.67209" lon="1.25971">
        <ele>183.27</ele>
        <time>2021-08-18T12:52:36Z</time>
      </trkpt>
      <trkpt lat="43.67199" lon="1.25923">
        <ele>183.27</ele>
        <time>2021-08-18T12:52:43Z</time>
      </trkpt>
      <trkpt lat="43.67194" lon="1.25899">
        <ele>183.27</ele>
        <time>2021-08-18T12:52:46Z</time>
      </trkpt>
      <trkpt lat="43.67191" lon="1.25893">
        <ele>183.27</ele>
        <time>2021-08-18T12:52:47Z</time>
      </trkpt>
      <trkpt lat="43.67187" lon="1.25888">
        <ele>183.27</ele>
        <time>2021-08-18T12:52:48Z</time>
      </trkpt>
      <trkpt lat="43.67182" lon="1.25885">
        <ele>183.27</ele>
        <time>2021-08-18T12:52:49Z</time>
      </trkpt>
      <trkpt lat="43.67177" lon="1.25884">
        <ele>183.27</ele>
        <time>2021-08-18T12:52:50Z</time>
      </trkpt>
      <trkpt lat="43.67171" lon="1.25884">
        <ele>183.27</ele>
        <time>2021-08-18T12:52:51Z</time>
      </trkpt>
      <trkpt lat="43.67101" lon="1.2588">
        <ele>183.27</ele>
        <time>2021-08-18T12:53:03Z</time>
      </trkpt>
      <trkpt lat="43.67055" lon="1.25877">
        <ele>182.79</ele>
        <time>2021-08-18T12:53:11Z</time>
      </trkpt>
      <trkpt lat="43.67036" lon="1.25877">
        <ele>182.79</ele>
        <time>2021-08-18T12:53:15Z</time>
      </trkpt>
      <trkpt lat="43.67032" lon="1.25876">
        <ele>182.79</ele>
        <time>2021-08-18T12:53:16Z</time>
      </trkpt>
      <trkpt lat="43.67028" lon="1.25872">
        <ele>184.23</ele>
        <time>2021-08-18T12:53:17Z</time>
      </trkpt>
      <trkpt lat="43.67026" lon="1.25867">
        <ele>184.23</ele>
        <time>2021-08-18T12:53:18Z</time>
      </trkpt>
      <trkpt lat="43.67024" lon="1.25861">
        <ele>184.23</ele>
        <time>2021-08-18T12:53:19Z</time>
      </trkpt>
      <trkpt lat="43.67022" lon="1.25855">
        <ele>184.23</ele>
        <time>2021-08-18T12:53:20Z</time>
      </trkpt>
      <trkpt lat="43.67021" lon="1.25848">
        <ele>184.23</ele>
        <time>2021-08-18T12:53:21Z</time>
      </trkpt>
      <trkpt lat="43.6701" lon="1.25797">
        <ele>184.23</ele>
        <time>2021-08-18T12:53:28Z</time>
      </trkpt>
      <trkpt lat="43.67008" lon="1.25782">
        <ele>184.23</ele>
        <time>2021-08-18T12:53:30Z</time>
      </trkpt>
      <trkpt lat="43.67001" lon="1.2571">
        <ele>184.23</ele>
        <time>2021-08-18T12:53:39Z</time>
      </trkpt>
      <trkpt lat="43.66998" lon="1.25672">
        <ele>184.23</ele>
        <time>2021-08-18T12:53:44Z</time>
      </trkpt>
      <trkpt lat="43.66997" lon="1.25653">
        <ele>184.71</ele>
        <time>2021-08-18T12:53:46Z</time>
      </trkpt>
      <trkpt lat="43.66994" lon="1.25631">
        <ele>184.71</ele>
        <time>2021-08-18T12:53:49Z</time>
      </trkpt>
      <trkpt lat="43.66989" lon="1.25563">
        <ele>184.71</ele>
        <time>2021-08-18T12:53:58Z</time>
      </trkpt>
      <trkpt lat="43.66983" lon="1.25491">
        <ele>185.19</ele>
        <time>2021-08-18T12:54:07Z</time>
      </trkpt>
      <trkpt lat="43.66983" lon="1.25438">
        <ele>187.11</ele>
        <time>2021-08-18T12:54:15Z</time>
      </trkpt>
      <trkpt lat="43.66984" lon="1.25409">
        <ele>187.59</ele>
        <time>2021-08-18T12:54:19Z</time>
      </trkpt>
      <trkpt lat="43.66985" lon="1.25403">
        <ele>187.11</ele>
        <time>2021-08-18T12:54:20Z</time>
      </trkpt>
      <trkpt lat="43.66985" lon="1.25396">
        <ele>187.11</ele>
        <time>2021-08-18T12:54:21Z</time>
      </trkpt>
      <trkpt lat="43.66986" lon="1.25376">
        <ele>187.11</ele>
        <time>2021-08-18T12:54:24Z</time>
      </trkpt>
      <trkpt lat="43.66986" lon="1.25355">
        <ele>187.59</ele>
        <time>2021-08-18T12:54:27Z</time>
      </trkpt>
      <trkpt lat="43.66987" lon="1.25348">
        <ele>188.08</ele>
        <time>2021-08-18T12:54:28Z</time>
      </trkpt>
      <trkpt lat="43.66987" lon="1.25341">
        <ele>188.08</ele>
        <time>2021-08-18T12:54:29Z</time>
      </trkpt>
      <trkpt lat="43.66987" lon="1.25334">
        <ele>188.08</ele>
        <time>2021-08-18T12:54:30Z</time>
      </trkpt>
      <trkpt lat="43.66987" lon="1.25327">
        <ele>188.56</ele>
        <time>2021-08-18T12:54:31Z</time>
      </trkpt>
      <trkpt lat="43.66986" lon="1.25321">
        <ele>188.56</ele>
        <time>2021-08-18T12:54:32Z</time>
      </trkpt>
      <trkpt lat="43.66984" lon="1.25304">
        <ele>189.52</ele>
        <time>2021-08-18T12:54:35Z</time>
      </trkpt>
      <trkpt lat="43.66983" lon="1.25298">
        <ele>189.52</ele>
        <time>2021-08-18T12:54:36Z</time>
      </trkpt>
      <trkpt lat="43.66974" lon="1.25271">
        <ele>189.52</ele>
        <time>2021-08-18T12:54:41Z</time>
      </trkpt>
      <trkpt lat="43.66971" lon="1.25266">
        <ele>190</ele>
        <time>2021-08-18T12:54:42Z</time>
      </trkpt>
      <trkpt lat="43.66959" lon="1.25243">
        <ele>190.48</ele>
        <time>2021-08-18T12:54:48Z</time>
      </trkpt>
      <trkpt lat="43.66957" lon="1.25237">
        <ele>190.48</ele>
        <time>2021-08-18T12:54:49Z</time>
      </trkpt>
      <trkpt lat="43.66946" lon="1.25212">
        <ele>190.48</ele>
        <time>2021-08-18T12:54:54Z</time>
      </trkpt>
      <trkpt lat="43.66925" lon="1.25168">
        <ele>190.48</ele>
        <time>2021-08-18T12:55:02Z</time>
      </trkpt>
      <trkpt lat="43.6691" lon="1.25138">
        <ele>190.48</ele>
        <time>2021-08-18T12:55:07Z</time>
      </trkpt>
      <trkpt lat="43.66883" lon="1.2508">
        <ele>190.48</ele>
        <time>2021-08-18T12:55:16Z</time>
      </trkpt>
      <trkpt lat="43.66854" lon="1.25019">
        <ele>190.48</ele>
        <time>2021-08-18T12:55:25Z</time>
      </trkpt>
      <trkpt lat="43.66851" lon="1.25013">
        <ele>190.48</ele>
        <time>2021-08-18T12:55:26Z</time>
      </trkpt>
      <trkpt lat="43.66818" lon="1.24944">
        <ele>190.48</ele>
        <time>2021-08-18T12:55:36Z</time>
      </trkpt>
      <trkpt lat="43.66781" lon="1.24884">
        <ele>190.48</ele>
        <time>2021-08-18T12:55:45Z</time>
      </trkpt>
      <trkpt lat="43.66742" lon="1.24825">
        <ele>190.48</ele>
        <time>2021-08-18T12:55:54Z</time>
      </trkpt>
      <trkpt lat="43.66706" lon="1.24772">
        <ele>190.48</ele>
        <time>2021-08-18T12:56:02Z</time>
      </trkpt>
      <trkpt lat="43.66665" lon="1.24715">
        <ele>190.48</ele>
        <time>2021-08-18T12:56:11Z</time>
      </trkpt>
      <trkpt lat="43.66639" lon="1.2465">
        <ele>190.48</ele>
        <time>2021-08-18T12:56:19Z</time>
      </trkpt>
      <trkpt lat="43.6661" lon="1.24559">
        <ele>190.48</ele>
        <time>2021-08-18T12:56:30Z</time>
      </trkpt>
      <trkpt lat="43.66602" lon="1.24523">
        <ele>189.04</ele>
        <time>2021-08-18T12:56:34Z</time>
      </trkpt>
      <trkpt lat="43.66582" lon="1.2445">
        <ele>188.56</ele>
        <time>2021-08-18T12:56:43Z</time>
      </trkpt>
      <trkpt lat="43.66555" lon="1.24372">
        <ele>188.56</ele>
        <time>2021-08-18T12:56:53Z</time>
      </trkpt>
      <trkpt lat="43.66546" lon="1.24349">
        <ele>190</ele>
        <time>2021-08-18T12:56:56Z</time>
      </trkpt>
      <trkpt lat="43.6652" lon="1.24271">
        <ele>190.48</ele>
        <time>2021-08-18T12:57:06Z</time>
      </trkpt>
      <trkpt lat="43.66503" lon="1.2422">
        <ele>190.48</ele>
        <time>2021-08-18T12:57:14Z</time>
      </trkpt>
      <trkpt lat="43.66482" lon="1.24164">
        <ele>190.48</ele>
        <time>2021-08-18T12:57:23Z</time>
      </trkpt>
      <trkpt lat="43.66479" lon="1.24158">
        <ele>190.48</ele>
        <time>2021-08-18T12:57:24Z</time>
      </trkpt>
      <trkpt lat="43.66457" lon="1.24122">
        <ele>190.48</ele>
        <time>2021-08-18T12:57:30Z</time>
      </trkpt>
      <trkpt lat="43.66419" lon="1.24084">
        <ele>190.48</ele>
        <time>2021-08-18T12:57:38Z</time>
      </trkpt>
      <trkpt lat="43.66377" lon="1.24035">
        <ele>190.96</ele>
        <time>2021-08-18T12:57:47Z</time>
      </trkpt>
      <trkpt lat="43.66337" lon="1.23983">
        <ele>190.96</ele>
        <time>2021-08-18T12:57:56Z</time>
      </trkpt>
      <trkpt lat="43.663" lon="1.23933">
        <ele>190.96</ele>
        <time>2021-08-18T12:58:05Z</time>
      </trkpt>
      <trkpt lat="43.66296" lon="1.23928">
        <ele>190.96</ele>
        <time>2021-08-18T12:58:06Z</time>
      </trkpt>
      <trkpt lat="43.66292" lon="1.23922">
        <ele>190.96</ele>
        <time>2021-08-18T12:58:07Z</time>
      </trkpt>
      <trkpt lat="43.66267" lon="1.23891">
        <ele>190.96</ele>
        <time>2021-08-18T12:58:13Z</time>
      </trkpt>
      <trkpt lat="43.66264" lon="1.23886">
        <ele>190.96</ele>
        <time>2021-08-18T12:58:14Z</time>
      </trkpt>
      <trkpt lat="43.66255" lon="1.2387">
        <ele>190.96</ele>
        <time>2021-08-18T12:58:17Z</time>
      </trkpt>
      <trkpt lat="43.66252" lon="1.23866">
        <ele>190.96</ele>
        <time>2021-08-18T12:58:18Z</time>
      </trkpt>
      <trkpt lat="43.6625" lon="1.23863">
        <ele>190.96</ele>
        <time>2021-08-18T12:58:19Z</time>
      </trkpt>
      <trkpt lat="43.66248" lon="1.23862">
        <ele>190.96</ele>
        <time>2021-08-18T12:58:20Z</time>
      </trkpt>
      <trkpt lat="43.66246" lon="1.23862">
        <ele>190.96</ele>
        <time>2021-08-18T12:58:21Z</time>
      </trkpt>
      <trkpt lat="43.66244" lon="1.23862">
        <ele>191.44</ele>
        <time>2021-08-18T12:58:22Z</time>
      </trkpt>
      <trkpt lat="43.66242" lon="1.23861">
        <ele>191.44</ele>
        <time>2021-08-18T12:58:23Z</time>
      </trkpt>
      <trkpt lat="43.6624" lon="1.23858">
        <ele>190.96</ele>
        <time>2021-08-18T12:58:24Z</time>
      </trkpt>
      <trkpt lat="43.66237" lon="1.23854">
        <ele>191.44</ele>
        <time>2021-08-18T12:58:25Z</time>
      </trkpt>
      <trkpt lat="43.66235" lon="1.2385">
        <ele>190.96</ele>
        <time>2021-08-18T12:58:26Z</time>
      </trkpt>
      <trkpt lat="43.66222" lon="1.23831">
        <ele>190.96</ele>
        <time>2021-08-18T12:58:30Z</time>
      </trkpt>
      <trkpt lat="43.66208" lon="1.23811">
        <ele>189.52</ele>
        <time>2021-08-18T12:58:34Z</time>
      </trkpt>
      <trkpt lat="43.66204" lon="1.23806">
        <ele>189.52</ele>
        <time>2021-08-18T12:58:35Z</time>
      </trkpt>
      <trkpt lat="43.66182" lon="1.2376">
        <ele>189.52</ele>
        <time>2021-08-18T12:58:43Z</time>
      </trkpt>
      <trkpt lat="43.66178" lon="1.23739">
        <ele>189.52</ele>
        <time>2021-08-18T12:58:46Z</time>
      </trkpt>
      <trkpt lat="43.66178" lon="1.23724">
        <ele>189.52</ele>
        <time>2021-08-18T12:58:48Z</time>
      </trkpt>
      <trkpt lat="43.66177" lon="1.23719">
        <ele>189.52</ele>
        <time>2021-08-18T12:58:49Z</time>
      </trkpt>
      <trkpt lat="43.66176" lon="1.23717">
        <ele>189.52</ele>
        <time>2021-08-18T12:58:50Z</time>
      </trkpt>
      <trkpt lat="43.66172" lon="1.23726">
        <ele>189.52</ele>
        <time>2021-08-18T12:58:53Z</time>
      </trkpt>
      <trkpt lat="43.66173" lon="1.23731">
        <ele>189.52</ele>
        <time>2021-08-18T12:58:54Z</time>
      </trkpt>
      <trkpt lat="43.66173" lon="1.23736">
        <ele>189.52</ele>
        <time>2021-08-18T12:58:55Z</time>
      </trkpt>
      <trkpt lat="43.66174" lon="1.2374">
        <ele>189.52</ele>
        <time>2021-08-18T12:58:56Z</time>
      </trkpt>
      <trkpt lat="43.66174" lon="1.23751">
        <ele>189.52</ele>
        <time>2021-08-18T12:58:58Z</time>
      </trkpt>
      <trkpt lat="43.66172" lon="1.23755">
        <ele>189.52</ele>
        <time>2021-08-18T12:58:59Z</time>
      </trkpt>
      <trkpt lat="43.66169" lon="1.23757">
        <ele>189.52</ele>
        <time>2021-08-18T12:59:00Z</time>
      </trkpt>
      <trkpt lat="43.66167" lon="1.23757">
        <ele>189.52</ele>
        <time>2021-08-18T12:59:01Z</time>
      </trkpt>
      <trkpt lat="43.66164" lon="1.23756">
        <ele>189.52</ele>
        <time>2021-08-18T12:59:02Z</time>
      </trkpt>
      <trkpt lat="43.66162" lon="1.23755">
        <ele>189.52</ele>
        <time>2021-08-18T12:59:03Z</time>
      </trkpt>
      <trkpt lat="43.66159" lon="1.23754">
        <ele>189.52</ele>
        <time>2021-08-18T12:59:04Z</time>
      </trkpt>
      <trkpt lat="43.66156" lon="1.23755">
        <ele>189.52</ele>
        <time>2021-08-18T12:59:05Z</time>
      </trkpt>
      <trkpt lat="43.66154" lon="1.23757">
        <ele>190.96</ele>
        <time>2021-08-18T12:59:06Z</time>
      </trkpt>
      <trkpt lat="43.66152" lon="1.23758">
        <ele>190.96</ele>
        <time>2021-08-18T12:59:07Z</time>
      </trkpt>
      <trkpt lat="43.66149" lon="1.23759">
        <ele>190.96</ele>
        <time>2021-08-18T12:59:08Z</time>
      </trkpt>
      <trkpt lat="43.66147" lon="1.23761">
        <ele>190.96</ele>
        <time>2021-08-18T12:59:09Z</time>
      </trkpt>
      <trkpt lat="43.66146" lon="1.23763">
        <ele>190.96</ele>
        <time>2021-08-18T12:59:10Z</time>
      </trkpt>
      <trkpt lat="43.66145" lon="1.23765">
        <ele>190.96</ele>
        <time>2021-08-18T12:59:11Z</time>
      </trkpt>
      <trkpt lat="43.66143" lon="1.23768">
        <ele>190.96</ele>
        <time>2021-08-18T12:59:12Z</time>
      </trkpt>
      <trkpt lat="43.66135" lon="1.23776">
        <ele>190.96</ele>
        <time>2021-08-18T12:59:15Z</time>
      </trkpt>
      <trkpt lat="43.66131" lon="1.23777">
        <ele>190.96</ele>
        <time>2021-08-18T12:59:16Z</time>
      </trkpt>
      <trkpt lat="43.66107" lon="1.23782">
        <ele>190.96</ele>
        <time>2021-08-18T12:59:23Z</time>
      </trkpt>
      <trkpt lat="43.66087" lon="1.2378">
        <ele>190.96</ele>
        <time>2021-08-18T12:59:29Z</time>
      </trkpt>
      <trkpt lat="43.66066" lon="1.23766">
        <ele>190.96</ele>
        <time>2021-08-18T12:59:36Z</time>
      </trkpt>
      <trkpt lat="43.66049" lon="1.23753">
        <ele>189.52</ele>
        <time>2021-08-18T12:59:41Z</time>
      </trkpt>
      <trkpt lat="43.66029" lon="1.23741">
        <ele>189.52</ele>
        <time>2021-08-18T12:59:46Z</time>
      </trkpt>
      <trkpt lat="43.6601" lon="1.23721">
        <ele>189.04</ele>
        <time>2021-08-18T12:59:52Z</time>
      </trkpt>
      <trkpt lat="43.65998" lon="1.23707">
        <ele>190.48</ele>
        <time>2021-08-18T12:59:57Z</time>
      </trkpt>
      <trkpt lat="43.65979" lon="1.23684">
        <ele>190.48</ele>
        <time>2021-08-18T13:00:03Z</time>
      </trkpt>
      <trkpt lat="43.65955" lon="1.23659">
        <ele>190.48</ele>
        <time>2021-08-18T13:00:10Z</time>
      </trkpt>
      <trkpt lat="43.65943" lon="1.23644">
        <ele>191.44</ele>
        <time>2021-08-18T13:00:16Z</time>
      </trkpt>
      <trkpt lat="43.65923" lon="1.23634">
        <ele>191.44</ele>
        <time>2021-08-18T13:00:23Z</time>
      </trkpt>
      <trkpt lat="43.65901" lon="1.23614">
        <ele>191.44</ele>
        <time>2021-08-18T13:00:30Z</time>
      </trkpt>
      <trkpt lat="43.65888" lon="1.23599">
        <ele>192.4</ele>
        <time>2021-08-18T13:00:37Z</time>
      </trkpt>
      <trkpt lat="43.65887" lon="1.23596">
        <ele>192.4</ele>
        <time>2021-08-18T13:00:42Z</time>
      </trkpt>
      <trkpt lat="43.65888" lon="1.23593">
        <ele>192.4</ele>
        <time>2021-08-18T13:01:02Z</time>
      </trkpt>
      <trkpt lat="43.6589" lon="1.23593">
        <ele>192.4</ele>
        <time>2021-08-18T13:01:23Z</time>
      </trkpt>
      <trkpt lat="43.65892" lon="1.23598">
        <ele>191.44</ele>
        <time>2021-08-18T13:01:44Z</time>
      </trkpt>
      <trkpt lat="43.6589" lon="1.23597">
        <ele>191.92</ele>
        <time>2021-08-18T13:02:03Z</time>
      </trkpt>
      <trkpt lat="43.65887" lon="1.23595">
        <ele>191.92</ele>
        <time>2021-08-18T13:02:20Z</time>
      </trkpt>
      <trkpt lat="43.65885" lon="1.23596">
        <ele>191.92</ele>
        <time>2021-08-18T13:02:46Z</time>
      </trkpt>
      <trkpt lat="43.65882" lon="1.2359">
        <ele>191.92</ele>
        <time>2021-08-18T13:03:10Z</time>
      </trkpt>
      <trkpt lat="43.65881" lon="1.23584">
        <ele>191.92</ele>
        <time>2021-08-18T13:03:34Z</time>
      </trkpt>
      <trkpt lat="43.6588" lon="1.23585">
        <ele>191.92</ele>
        <time>2021-08-18T13:03:57Z</time>
      </trkpt>
      <trkpt lat="43.65881" lon="1.23585">
        <ele>191.92</ele>
        <time>2021-08-18T13:04:12Z</time>
      </trkpt>
      <trkpt lat="43.65882" lon="1.23584">
        <ele>191.92</ele>
        <time>2021-08-18T13:04:14Z</time>
      </trkpt>
      <trkpt lat="43.65882" lon="1.23583">
        <ele>191.92</ele>
        <time>2021-08-18T13:04:20Z</time>
      </trkpt>
      <trkpt lat="43.65885" lon="1.23586">
        <ele>191.92</ele>
        <time>2021-08-18T13:04:42Z</time>
      </trkpt>
      <trkpt lat="43.65884" lon="1.23593">
        <ele>191.92</ele>
        <time>2021-08-18T13:05:05Z</time>
      </trkpt>
      <trkpt lat="43.65883" lon="1.2359">
        <ele>191.92</ele>
        <time>2021-08-18T13:05:22Z</time>
      </trkpt>
      <trkpt lat="43.65882" lon="1.23588">
        <ele>191.92</ele>
        <time>2021-08-18T13:05:45Z</time>
      </trkpt>
      <trkpt lat="43.6588" lon="1.23589">
        <ele>191.92</ele>
        <time>2021-08-18T13:05:59Z</time>
      </trkpt>
      <trkpt lat="43.65882" lon="1.23588">
        <ele>191.92</ele>
        <time>2021-08-18T13:06:15Z</time>
      </trkpt>
      <trkpt lat="43.65878" lon="1.23586">
        <ele>191.92</ele>
        <time>2021-08-18T13:06:38Z</time>
      </trkpt>
      <trkpt lat="43.65876" lon="1.23592">
        <ele>191.92</ele>
        <time>2021-08-18T13:07:02Z</time>
      </trkpt>
      <trkpt lat="43.65873" lon="1.23589">
        <ele>191.92</ele>
        <time>2021-08-18T13:07:18Z</time>
      </trkpt>
      <trkpt lat="43.65876" lon="1.23589">
        <ele>192.88</ele>
        <time>2021-08-18T13:07:39Z</time>
      </trkpt>
      <trkpt lat="43.65885" lon="1.23595">
        <ele>192.88</ele>
        <time>2021-08-18T13:08:03Z</time>
      </trkpt>
      <trkpt lat="43.65886" lon="1.23591">
        <ele>192.88</ele>
        <time>2021-08-18T13:08:25Z</time>
      </trkpt>
      <trkpt lat="43.65889" lon="1.23594">
        <ele>192.88</ele>
        <time>2021-08-18T13:08:45Z</time>
      </trkpt>
      <trkpt lat="43.65887" lon="1.23591">
        <ele>192.88</ele>
        <time>2021-08-18T13:09:06Z</time>
      </trkpt>
      <trkpt lat="43.65884" lon="1.23589">
        <ele>192.88</ele>
        <time>2021-08-18T13:09:13Z</time>
      </trkpt>
      <trkpt lat="43.65881" lon="1.23585">
        <ele>192.88</ele>
        <time>2021-08-18T13:09:25Z</time>
      </trkpt>
      <trkpt lat="43.65881" lon="1.23586">
        <ele>193.36</ele>
        <time>2021-08-18T13:09:46Z</time>
      </trkpt>
      <trkpt lat="43.6588" lon="1.23588">
        <ele>193.36</ele>
        <time>2021-08-18T13:09:57Z</time>
      </trkpt>
      <trkpt lat="43.65881" lon="1.23589">
        <ele>193.36</ele>
        <time>2021-08-18T13:10:11Z</time>
      </trkpt>
      <trkpt lat="43.65881" lon="1.23586">
        <ele>193.36</ele>
        <time>2021-08-18T13:10:25Z</time>
      </trkpt>
      <trkpt lat="43.65879" lon="1.23582">
        <ele>193.36</ele>
        <time>2021-08-18T13:10:43Z</time>
      </trkpt>
      <trkpt lat="43.65879" lon="1.2358">
        <ele>193.84</ele>
        <time>2021-08-18T13:11:05Z</time>
      </trkpt>
      <trkpt lat="43.65883" lon="1.23582">
        <ele>194.32</ele>
        <time>2021-08-18T13:11:31Z</time>
      </trkpt>
      <trkpt lat="43.65883" lon="1.23584">
        <ele>194.32</ele>
        <time>2021-08-18T13:11:48Z</time>
      </trkpt>
      <trkpt lat="43.65881" lon="1.23587">
        <ele>194.32</ele>
        <time>2021-08-18T13:12:07Z</time>
      </trkpt>
      <trkpt lat="43.65884" lon="1.23589">
        <ele>194.8</ele>
        <time>2021-08-18T13:12:33Z</time>
      </trkpt>
      <trkpt lat="43.65887" lon="1.23592">
        <ele>195.28</ele>
        <time>2021-08-18T13:12:52Z</time>
      </trkpt>
      <trkpt lat="43.65888" lon="1.23595">
        <ele>195.28</ele>
        <time>2021-08-18T13:13:15Z</time>
      </trkpt>
      <trkpt lat="43.65891" lon="1.23596">
        <ele>195.28</ele>
        <time>2021-08-18T13:13:37Z</time>
      </trkpt>
      <trkpt lat="43.65886" lon="1.23592">
        <ele>195.28</ele>
        <time>2021-08-18T13:13:51Z</time>
      </trkpt>
      <trkpt lat="43.65882" lon="1.23588">
        <ele>194.32</ele>
        <time>2021-08-18T13:14:08Z</time>
      </trkpt>
      <trkpt lat="43.65881" lon="1.23587">
        <ele>194.32</ele>
        <time>2021-08-18T13:14:18Z</time>
      </trkpt>
      <trkpt lat="43.65882" lon="1.23589">
        <ele>194.8</ele>
        <time>2021-08-18T13:14:33Z</time>
      </trkpt>
      <trkpt lat="43.65882" lon="1.23591">
        <ele>194.8</ele>
        <time>2021-08-18T13:14:50Z</time>
      </trkpt>
      <trkpt lat="43.65881" lon="1.23594">
        <ele>194.8</ele>
        <time>2021-08-18T13:15:05Z</time>
      </trkpt>
      <trkpt lat="43.65883" lon="1.23595">
        <ele>194.8</ele>
        <time>2021-08-18T13:15:23Z</time>
      </trkpt>
      <trkpt lat="43.65884" lon="1.23595">
        <ele>194.8</ele>
        <time>2021-08-18T13:15:42Z</time>
      </trkpt>
      <trkpt lat="43.65882" lon="1.23594">
        <ele>196.25</ele>
        <time>2021-08-18T13:15:57Z</time>
      </trkpt>
      <trkpt lat="43.6588" lon="1.23597">
        <ele>196.25</ele>
        <time>2021-08-18T13:16:11Z</time>
      </trkpt>
      <trkpt lat="43.65882" lon="1.23593">
        <ele>196.25</ele>
        <time>2021-08-18T13:16:23Z</time>
      </trkpt>
      <trkpt lat="43.65882" lon="1.23593">
        <ele>196.25</ele>
        <time>2021-08-18T13:16:29Z</time>
      </trkpt>
      <trkpt lat="43.65872" lon="1.23588">
        <ele>196.25</ele>
        <time>2021-08-18T13:16:35Z</time>
      </trkpt>
      <trkpt lat="43.65858" lon="1.23571">
        <ele>196.25</ele>
        <time>2021-08-18T13:16:41Z</time>
      </trkpt>
      <trkpt lat="43.65841" lon="1.2355">
        <ele>195.28</ele>
        <time>2021-08-18T13:16:48Z</time>
      </trkpt>
      <trkpt lat="43.6582" lon="1.23525">
        <ele>195.28</ele>
        <time>2021-08-18T13:16:58Z</time>
      </trkpt>
      <trkpt lat="43.65819" lon="1.23522">
        <ele>195.28</ele>
        <time>2021-08-18T13:16:59Z</time>
      </trkpt>
      <trkpt lat="43.65818" lon="1.2352">
        <ele>195.28</ele>
        <time>2021-08-18T13:17:00Z</time>
      </trkpt>
      <trkpt lat="43.65817" lon="1.23519">
        <ele>195.28</ele>
        <time>2021-08-18T13:17:01Z</time>
      </trkpt>
      <trkpt lat="43.65815" lon="1.23517">
        <ele>195.28</ele>
        <time>2021-08-18T13:17:02Z</time>
      </trkpt>
      <trkpt lat="43.65814" lon="1.23514">
        <ele>195.28</ele>
        <time>2021-08-18T13:17:03Z</time>
      </trkpt>
      <trkpt lat="43.65812" lon="1.23512">
        <ele>195.28</ele>
        <time>2021-08-18T13:17:04Z</time>
      </trkpt>
      <trkpt lat="43.65811" lon="1.23509">
        <ele>195.28</ele>
        <time>2021-08-18T13:17:05Z</time>
      </trkpt>
      <trkpt lat="43.65809" lon="1.23507">
        <ele>195.28</ele>
        <time>2021-08-18T13:17:06Z</time>
      </trkpt>
      <trkpt lat="43.65807" lon="1.23505">
        <ele>195.28</ele>
        <time>2021-08-18T13:17:07Z</time>
      </trkpt>
      <trkpt lat="43.65806" lon="1.23503">
        <ele>195.28</ele>
        <time>2021-08-18T13:17:08Z</time>
      </trkpt>
      <trkpt lat="43.65804" lon="1.235">
        <ele>195.28</ele>
        <time>2021-08-18T13:17:09Z</time>
      </trkpt>
      <trkpt lat="43.65798" lon="1.2349">
        <ele>194.8</ele>
        <time>2021-08-18T13:17:12Z</time>
      </trkpt>
      <trkpt lat="43.65797" lon="1.23486">
        <ele>194.8</ele>
        <time>2021-08-18T13:17:13Z</time>
      </trkpt>
      <trkpt lat="43.65796" lon="1.23482">
        <ele>194.8</ele>
        <time>2021-08-18T13:17:14Z</time>
      </trkpt>
      <trkpt lat="43.65794" lon="1.23479">
        <ele>194.8</ele>
        <time>2021-08-18T13:17:15Z</time>
      </trkpt>
      <trkpt lat="43.65792" lon="1.23477">
        <ele>194.8</ele>
        <time>2021-08-18T13:17:16Z</time>
      </trkpt>
      <trkpt lat="43.65791" lon="1.23474">
        <ele>194.8</ele>
        <time>2021-08-18T13:17:17Z</time>
      </trkpt>
      <trkpt lat="43.65789" lon="1.23471">
        <ele>194.8</ele>
        <time>2021-08-18T13:17:18Z</time>
      </trkpt>
      <trkpt lat="43.65787" lon="1.23468">
        <ele>194.8</ele>
        <time>2021-08-18T13:17:19Z</time>
      </trkpt>
      <trkpt lat="43.65774" lon="1.23451">
        <ele>194.8</ele>
        <time>2021-08-18T13:17:24Z</time>
      </trkpt>
      <trkpt lat="43.6576" lon="1.2343">
        <ele>194.8</ele>
        <time>2021-08-18T13:17:30Z</time>
      </trkpt>
      <trkpt lat="43.65743" lon="1.23409">
        <ele>194.8</ele>
        <time>2021-08-18T13:17:36Z</time>
      </trkpt>
      <trkpt lat="43.65733" lon="1.23396">
        <ele>196.25</ele>
        <time>2021-08-18T13:17:39Z</time>
      </trkpt>
      <trkpt lat="43.65717" lon="1.23376">
        <ele>196.25</ele>
        <time>2021-08-18T13:17:44Z</time>
      </trkpt>
      <trkpt lat="43.65698" lon="1.23351">
        <ele>196.25</ele>
        <time>2021-08-18T13:17:51Z</time>
      </trkpt>
      <trkpt lat="43.65694" lon="1.23344">
        <ele>196.25</ele>
        <time>2021-08-18T13:17:53Z</time>
      </trkpt>
      <trkpt lat="43.65692" lon="1.2334">
        <ele>196.25</ele>
        <time>2021-08-18T13:17:54Z</time>
      </trkpt>
      <trkpt lat="43.6569" lon="1.23337">
        <ele>196.25</ele>
        <time>2021-08-18T13:17:55Z</time>
      </trkpt>
      <trkpt lat="43.65687" lon="1.23333">
        <ele>196.25</ele>
        <time>2021-08-18T13:17:56Z</time>
      </trkpt>
      <trkpt lat="43.65685" lon="1.2333">
        <ele>196.25</ele>
        <time>2021-08-18T13:17:57Z</time>
      </trkpt>
      <trkpt lat="43.65683" lon="1.23326">
        <ele>196.25</ele>
        <time>2021-08-18T13:17:58Z</time>
      </trkpt>
      <trkpt lat="43.6568" lon="1.23322">
        <ele>196.73</ele>
        <time>2021-08-18T13:17:59Z</time>
      </trkpt>
      <trkpt lat="43.6567" lon="1.23303">
        <ele>197.21</ele>
        <time>2021-08-18T13:18:03Z</time>
      </trkpt>
      <trkpt lat="43.65668" lon="1.23297">
        <ele>197.21</ele>
        <time>2021-08-18T13:18:04Z</time>
      </trkpt>
      <trkpt lat="43.65658" lon="1.23268">
        <ele>197.21</ele>
        <time>2021-08-18T13:18:10Z</time>
      </trkpt>
      <trkpt lat="43.65644" lon="1.23238">
        <ele>197.21</ele>
        <time>2021-08-18T13:18:16Z</time>
      </trkpt>
      <trkpt lat="43.65641" lon="1.23233">
        <ele>197.21</ele>
        <time>2021-08-18T13:18:17Z</time>
      </trkpt>
      <trkpt lat="43.65638" lon="1.23227">
        <ele>197.21</ele>
        <time>2021-08-18T13:18:18Z</time>
      </trkpt>
      <trkpt lat="43.65636" lon="1.23222">
        <ele>197.21</ele>
        <time>2021-08-18T13:18:19Z</time>
      </trkpt>
      <trkpt lat="43.65626" lon="1.23206">
        <ele>197.21</ele>
        <time>2021-08-18T13:18:22Z</time>
      </trkpt>
      <trkpt lat="43.65604" lon="1.23153">
        <ele>196.25</ele>
        <time>2021-08-18T13:18:31Z</time>
      </trkpt>
      <trkpt lat="43.65591" lon="1.23125">
        <ele>196.25</ele>
        <time>2021-08-18T13:18:36Z</time>
      </trkpt>
      <trkpt lat="43.65588" lon="1.2312">
        <ele>196.25</ele>
        <time>2021-08-18T13:18:37Z</time>
      </trkpt>
      <trkpt lat="43.65584" lon="1.23116">
        <ele>196.25</ele>
        <time>2021-08-18T13:18:38Z</time>
      </trkpt>
      <trkpt lat="43.65581" lon="1.23113">
        <ele>196.25</ele>
        <time>2021-08-18T13:18:39Z</time>
      </trkpt>
      <trkpt lat="43.65577" lon="1.23109">
        <ele>196.25</ele>
        <time>2021-08-18T13:18:40Z</time>
      </trkpt>
      <trkpt lat="43.65573" lon="1.23106">
        <ele>196.25</ele>
        <time>2021-08-18T13:18:41Z</time>
      </trkpt>
      <trkpt lat="43.65569" lon="1.23104">
        <ele>196.25</ele>
        <time>2021-08-18T13:18:42Z</time>
      </trkpt>
      <trkpt lat="43.65565" lon="1.23103">
        <ele>196.25</ele>
        <time>2021-08-18T13:18:43Z</time>
      </trkpt>
      <trkpt lat="43.65543" lon="1.23091">
        <ele>196.25</ele>
        <time>2021-08-18T13:18:49Z</time>
      </trkpt>
      <trkpt lat="43.65532" lon="1.23085">
        <ele>197.69</ele>
        <time>2021-08-18T13:18:52Z</time>
      </trkpt>
      <trkpt lat="43.6552" lon="1.23063">
        <ele>197.69</ele>
        <time>2021-08-18T13:18:57Z</time>
      </trkpt>
      <trkpt lat="43.65518" lon="1.23057">
        <ele>197.69</ele>
        <time>2021-08-18T13:18:58Z</time>
      </trkpt>
      <trkpt lat="43.65515" lon="1.23053">
        <ele>197.69</ele>
        <time>2021-08-18T13:18:59Z</time>
      </trkpt>
      <trkpt lat="43.65511" lon="1.23049">
        <ele>197.69</ele>
        <time>2021-08-18T13:19:00Z</time>
      </trkpt>
      <trkpt lat="43.65504" lon="1.2304">
        <ele>197.69</ele>
        <time>2021-08-18T13:19:02Z</time>
      </trkpt>
      <trkpt lat="43.65501" lon="1.23035">
        <ele>197.69</ele>
        <time>2021-08-18T13:19:03Z</time>
      </trkpt>
      <trkpt lat="43.65499" lon="1.2303">
        <ele>197.69</ele>
        <time>2021-08-18T13:19:04Z</time>
      </trkpt>
      <trkpt lat="43.65496" lon="1.23026">
        <ele>197.69</ele>
        <time>2021-08-18T13:19:05Z</time>
      </trkpt>
      <trkpt lat="43.65492" lon="1.23021">
        <ele>197.69</ele>
        <time>2021-08-18T13:19:06Z</time>
      </trkpt>
      <trkpt lat="43.65488" lon="1.23018">
        <ele>197.69</ele>
        <time>2021-08-18T13:19:07Z</time>
      </trkpt>
      <trkpt lat="43.65484" lon="1.23014">
        <ele>196.25</ele>
        <time>2021-08-18T13:19:08Z</time>
      </trkpt>
      <trkpt lat="43.65477" lon="1.23006">
        <ele>196.25</ele>
        <time>2021-08-18T13:19:10Z</time>
      </trkpt>
      <trkpt lat="43.65473" lon="1.23003">
        <ele>196.25</ele>
        <time>2021-08-18T13:19:11Z</time>
      </trkpt>
      <trkpt lat="43.6547" lon="1.23001">
        <ele>196.25</ele>
        <time>2021-08-18T13:19:12Z</time>
      </trkpt>
      <trkpt lat="43.65467" lon="1.22997">
        <ele>196.25</ele>
        <time>2021-08-18T13:19:13Z</time>
      </trkpt>
      <trkpt lat="43.65464" lon="1.22992">
        <ele>196.25</ele>
        <time>2021-08-18T13:19:14Z</time>
      </trkpt>
      <trkpt lat="43.65462" lon="1.22986">
        <ele>196.25</ele>
        <time>2021-08-18T13:19:15Z</time>
      </trkpt>
      <trkpt lat="43.65445" lon="1.22956">
        <ele>196.25</ele>
        <time>2021-08-18T13:19:21Z</time>
      </trkpt>
      <trkpt lat="43.65442" lon="1.22953">
        <ele>196.25</ele>
        <time>2021-08-18T13:19:22Z</time>
      </trkpt>
      <trkpt lat="43.65437" lon="1.22951">
        <ele>196.25</ele>
        <time>2021-08-18T13:19:23Z</time>
      </trkpt>
      <trkpt lat="43.65433" lon="1.22949">
        <ele>196.25</ele>
        <time>2021-08-18T13:19:24Z</time>
      </trkpt>
      <trkpt lat="43.65429" lon="1.22946">
        <ele>196.25</ele>
        <time>2021-08-18T13:19:25Z</time>
      </trkpt>
      <trkpt lat="43.65426" lon="1.22941">
        <ele>196.25</ele>
        <time>2021-08-18T13:19:26Z</time>
      </trkpt>
      <trkpt lat="43.65423" lon="1.22936">
        <ele>196.25</ele>
        <time>2021-08-18T13:19:27Z</time>
      </trkpt>
      <trkpt lat="43.65421" lon="1.22931">
        <ele>196.25</ele>
        <time>2021-08-18T13:19:28Z</time>
      </trkpt>
      <trkpt lat="43.65406" lon="1.22899">
        <ele>196.25</ele>
        <time>2021-08-18T13:19:34Z</time>
      </trkpt>
      <trkpt lat="43.65404" lon="1.22894">
        <ele>196.25</ele>
        <time>2021-08-18T13:19:35Z</time>
      </trkpt>
      <trkpt lat="43.65398" lon="1.2288">
        <ele>196.25</ele>
        <time>2021-08-18T13:19:38Z</time>
      </trkpt>
      <trkpt lat="43.65394" lon="1.22878">
        <ele>196.25</ele>
        <time>2021-08-18T13:19:39Z</time>
      </trkpt>
      <trkpt lat="43.6539" lon="1.22875">
        <ele>196.25</ele>
        <time>2021-08-18T13:19:40Z</time>
      </trkpt>
      <trkpt lat="43.65386" lon="1.22873">
        <ele>197.69</ele>
        <time>2021-08-18T13:19:41Z</time>
      </trkpt>
      <trkpt lat="43.65382" lon="1.2287">
        <ele>197.69</ele>
        <time>2021-08-18T13:19:42Z</time>
      </trkpt>
      <trkpt lat="43.65379" lon="1.22866">
        <ele>197.69</ele>
        <time>2021-08-18T13:19:43Z</time>
      </trkpt>
      <trkpt lat="43.65378" lon="1.22863">
        <ele>197.69</ele>
        <time>2021-08-18T13:19:44Z</time>
      </trkpt>
      <trkpt lat="43.65367" lon="1.22836">
        <ele>198.17</ele>
        <time>2021-08-18T13:19:49Z</time>
      </trkpt>
      <trkpt lat="43.65357" lon="1.2282">
        <ele>199.13</ele>
        <time>2021-08-18T13:19:54Z</time>
      </trkpt>
      <trkpt lat="43.65344" lon="1.22803">
        <ele>200.09</ele>
        <time>2021-08-18T13:20:00Z</time>
      </trkpt>
      <trkpt lat="43.65326" lon="1.2278">
        <ele>200.57</ele>
        <time>2021-08-18T13:20:07Z</time>
      </trkpt>
      <trkpt lat="43.65308" lon="1.22762">
        <ele>200.57</ele>
        <time>2021-08-18T13:20:13Z</time>
      </trkpt>
      <trkpt lat="43.65285" lon="1.22748">
        <ele>200.57</ele>
        <time>2021-08-18T13:20:19Z</time>
      </trkpt>
      <trkpt lat="43.65273" lon="1.22728">
        <ele>200.57</ele>
        <time>2021-08-18T13:20:24Z</time>
      </trkpt>
      <trkpt lat="43.65266" lon="1.22719">
        <ele>200.57</ele>
        <time>2021-08-18T13:20:26Z</time>
      </trkpt>
      <trkpt lat="43.65261" lon="1.22716">
        <ele>200.57</ele>
        <time>2021-08-18T13:20:27Z</time>
      </trkpt>
      <trkpt lat="43.65256" lon="1.22714">
        <ele>200.57</ele>
        <time>2021-08-18T13:20:28Z</time>
      </trkpt>
      <trkpt lat="43.65234" lon="1.22706">
        <ele>200.57</ele>
        <time>2021-08-18T13:20:33Z</time>
      </trkpt>
      <trkpt lat="43.6523" lon="1.22706">
        <ele>199.61</ele>
        <time>2021-08-18T13:20:34Z</time>
      </trkpt>
      <trkpt lat="43.65227" lon="1.22708">
        <ele>199.61</ele>
        <time>2021-08-18T13:20:35Z</time>
      </trkpt>
      <trkpt lat="43.65224" lon="1.22711">
        <ele>199.61</ele>
        <time>2021-08-18T13:20:36Z</time>
      </trkpt>
      <trkpt lat="43.65206" lon="1.22732">
        <ele>199.13</ele>
        <time>2021-08-18T13:20:42Z</time>
      </trkpt>
      <trkpt lat="43.65177" lon="1.22759">
        <ele>198.17</ele>
        <time>2021-08-18T13:20:48Z</time>
      </trkpt>
      <trkpt lat="43.65168" lon="1.22769">
        <ele>198.17</ele>
        <time>2021-08-18T13:20:50Z</time>
      </trkpt>
      <trkpt lat="43.65136" lon="1.228">
        <ele>197.69</ele>
        <time>2021-08-18T13:20:57Z</time>
      </trkpt>
      <trkpt lat="43.6511" lon="1.22826">
        <ele>197.21</ele>
        <time>2021-08-18T13:21:03Z</time>
      </trkpt>
      <trkpt lat="43.65101" lon="1.22833">
        <ele>197.21</ele>
        <time>2021-08-18T13:21:05Z</time>
      </trkpt>
      <trkpt lat="43.65079" lon="1.22858">
        <ele>197.21</ele>
        <time>2021-08-18T13:21:11Z</time>
      </trkpt>
      <trkpt lat="43.65071" lon="1.22865">
        <ele>198.65</ele>
        <time>2021-08-18T13:21:13Z</time>
      </trkpt>
      <trkpt lat="43.65049" lon="1.22886">
        <ele>198.65</ele>
        <time>2021-08-18T13:21:18Z</time>
      </trkpt>
      <trkpt lat="43.65045" lon="1.22889">
        <ele>198.65</ele>
        <time>2021-08-18T13:21:19Z</time>
      </trkpt>
      <trkpt lat="43.6504" lon="1.22892">
        <ele>198.65</ele>
        <time>2021-08-18T13:21:20Z</time>
      </trkpt>
      <trkpt lat="43.65036" lon="1.22896">
        <ele>198.65</ele>
        <time>2021-08-18T13:21:21Z</time>
      </trkpt>
      <trkpt lat="43.65032" lon="1.229">
        <ele>199.13</ele>
        <time>2021-08-18T13:21:22Z</time>
      </trkpt>
      <trkpt lat="43.65008" lon="1.22927">
        <ele>199.13</ele>
        <time>2021-08-18T13:21:29Z</time>
      </trkpt>
      <trkpt lat="43.64988" lon="1.22947">
        <ele>199.61</ele>
        <time>2021-08-18T13:21:35Z</time>
      </trkpt>
      <trkpt lat="43.64968" lon="1.22972">
        <ele>200.09</ele>
        <time>2021-08-18T13:21:42Z</time>
      </trkpt>
      <trkpt lat="43.64948" lon="1.22997">
        <ele>201.05</ele>
        <time>2021-08-18T13:21:49Z</time>
      </trkpt>
      <trkpt lat="43.64929" lon="1.23021">
        <ele>202.01</ele>
        <time>2021-08-18T13:21:57Z</time>
      </trkpt>
      <trkpt lat="43.64912" lon="1.23041">
        <ele>202.98</ele>
        <time>2021-08-18T13:22:03Z</time>
      </trkpt>
      <trkpt lat="43.64884" lon="1.23067">
        <ele>203.94</ele>
        <time>2021-08-18T13:22:11Z</time>
      </trkpt>
      <trkpt lat="43.64865" lon="1.23086">
        <ele>203.94</ele>
        <time>2021-08-18T13:22:17Z</time>
      </trkpt>
      <trkpt lat="43.64842" lon="1.2311">
        <ele>204.9</ele>
        <time>2021-08-18T13:22:25Z</time>
      </trkpt>
      <trkpt lat="43.64819" lon="1.23136">
        <ele>205.38</ele>
        <time>2021-08-18T13:22:32Z</time>
      </trkpt>
      <trkpt lat="43.64796" lon="1.2316">
        <ele>206.34</ele>
        <time>2021-08-18T13:22:40Z</time>
      </trkpt>
      <trkpt lat="43.64772" lon="1.23176">
        <ele>206.82</ele>
        <time>2021-08-18T13:22:46Z</time>
      </trkpt>
      <trkpt lat="43.64765" lon="1.23175">
        <ele>207.3</ele>
        <time>2021-08-18T13:22:48Z</time>
      </trkpt>
      <trkpt lat="43.64762" lon="1.23173">
        <ele>207.3</ele>
        <time>2021-08-18T13:22:49Z</time>
      </trkpt>
      <trkpt lat="43.64747" lon="1.23149">
        <ele>208.26</ele>
        <time>2021-08-18T13:22:56Z</time>
      </trkpt>
      <trkpt lat="43.6473" lon="1.23124">
        <ele>208.74</ele>
        <time>2021-08-18T13:23:03Z</time>
      </trkpt>
      <trkpt lat="43.64702" lon="1.23079">
        <ele>209.22</ele>
        <time>2021-08-18T13:23:13Z</time>
      </trkpt>
      <trkpt lat="43.64677" lon="1.23038">
        <ele>209.22</ele>
        <time>2021-08-18T13:23:21Z</time>
      </trkpt>
      <trkpt lat="43.64644" lon="1.22982">
        <ele>209.22</ele>
        <time>2021-08-18T13:23:31Z</time>
      </trkpt>
      <trkpt lat="43.64611" lon="1.22926">
        <ele>209.22</ele>
        <time>2021-08-18T13:23:41Z</time>
      </trkpt>
      <trkpt lat="43.6458" lon="1.22872">
        <ele>209.7</ele>
        <time>2021-08-18T13:23:51Z</time>
      </trkpt>
      <trkpt lat="43.64543" lon="1.2281">
        <ele>210.19</ele>
        <time>2021-08-18T13:24:03Z</time>
      </trkpt>
      <trkpt lat="43.64515" lon="1.22763">
        <ele>210.67</ele>
        <time>2021-08-18T13:24:12Z</time>
      </trkpt>
      <trkpt lat="43.64494" lon="1.22725">
        <ele>210.67</ele>
        <time>2021-08-18T13:24:19Z</time>
      </trkpt>
      <trkpt lat="43.64463" lon="1.22675">
        <ele>211.63</ele>
        <time>2021-08-18T13:24:29Z</time>
      </trkpt>
      <trkpt lat="43.6445" lon="1.22655">
        <ele>211.63</ele>
        <time>2021-08-18T13:24:33Z</time>
      </trkpt>
      <trkpt lat="43.64422" lon="1.22609">
        <ele>213.07</ele>
        <time>2021-08-18T13:24:42Z</time>
      </trkpt>
      <trkpt lat="43.64397" lon="1.22573">
        <ele>213.07</ele>
        <time>2021-08-18T13:24:50Z</time>
      </trkpt>
      <trkpt lat="43.64394" lon="1.22569">
        <ele>213.07</ele>
        <time>2021-08-18T13:24:51Z</time>
      </trkpt>
      <trkpt lat="43.64392" lon="1.22564">
        <ele>213.07</ele>
        <time>2021-08-18T13:24:52Z</time>
      </trkpt>
      <trkpt lat="43.64379" lon="1.22543">
        <ele>213.07</ele>
        <time>2021-08-18T13:24:57Z</time>
      </trkpt>
      <trkpt lat="43.64376" lon="1.22539">
        <ele>213.07</ele>
        <time>2021-08-18T13:24:58Z</time>
      </trkpt>
      <trkpt lat="43.64364" lon="1.22517">
        <ele>213.07</ele>
        <time>2021-08-18T13:25:03Z</time>
      </trkpt>
      <trkpt lat="43.64361" lon="1.22513">
        <ele>214.03</ele>
        <time>2021-08-18T13:25:04Z</time>
      </trkpt>
      <trkpt lat="43.64343" lon="1.22482">
        <ele>214.51</ele>
        <time>2021-08-18T13:25:11Z</time>
      </trkpt>
      <trkpt lat="43.64327" lon="1.22454">
        <ele>214.51</ele>
        <time>2021-08-18T13:25:17Z</time>
      </trkpt>
      <trkpt lat="43.6431" lon="1.22426">
        <ele>214.51</ele>
        <time>2021-08-18T13:25:23Z</time>
      </trkpt>
      <trkpt lat="43.6429" lon="1.22396">
        <ele>214.99</ele>
        <time>2021-08-18T13:25:30Z</time>
      </trkpt>
      <trkpt lat="43.64264" lon="1.22355">
        <ele>214.99</ele>
        <time>2021-08-18T13:25:38Z</time>
      </trkpt>
      <trkpt lat="43.64254" lon="1.22338">
        <ele>214.99</ele>
        <time>2021-08-18T13:25:41Z</time>
      </trkpt>
      <trkpt lat="43.64228" lon="1.22295">
        <ele>214.99</ele>
        <time>2021-08-18T13:25:49Z</time>
      </trkpt>
      <trkpt lat="43.64222" lon="1.22286">
        <ele>215.47</ele>
        <time>2021-08-18T13:25:51Z</time>
      </trkpt>
      <trkpt lat="43.64219" lon="1.22281">
        <ele>215.47</ele>
        <time>2021-08-18T13:25:52Z</time>
      </trkpt>
      <trkpt lat="43.64198" lon="1.22246">
        <ele>215.47</ele>
        <time>2021-08-18T13:25:59Z</time>
      </trkpt>
      <trkpt lat="43.64176" lon="1.22212">
        <ele>216.43</ele>
        <time>2021-08-18T13:26:07Z</time>
      </trkpt>
      <trkpt lat="43.64167" lon="1.222">
        <ele>216.91</ele>
        <time>2021-08-18T13:26:12Z</time>
      </trkpt>
      <trkpt lat="43.64145" lon="1.22181">
        <ele>216.91</ele>
        <time>2021-08-18T13:26:19Z</time>
      </trkpt>
      <trkpt lat="43.64134" lon="1.2217">
        <ele>216.91</ele>
        <time>2021-08-18T13:26:22Z</time>
      </trkpt>
      <trkpt lat="43.64105" lon="1.22145">
        <ele>216.91</ele>
        <time>2021-08-18T13:26:30Z</time>
      </trkpt>
      <trkpt lat="43.64085" lon="1.22128">
        <ele>217.4</ele>
        <time>2021-08-18T13:26:35Z</time>
      </trkpt>
      <trkpt lat="43.6408" lon="1.22125">
        <ele>217.4</ele>
        <time>2021-08-18T13:26:36Z</time>
      </trkpt>
      <trkpt lat="43.64053" lon="1.22102">
        <ele>217.4</ele>
        <time>2021-08-18T13:26:43Z</time>
      </trkpt>
      <trkpt lat="43.64025" lon="1.22078">
        <ele>217.88</ele>
        <time>2021-08-18T13:26:51Z</time>
      </trkpt>
      <trkpt lat="43.63996" lon="1.22053">
        <ele>220.28</ele>
        <time>2021-08-18T13:27:01Z</time>
      </trkpt>
      <trkpt lat="43.63971" lon="1.22033">
        <ele>221.24</ele>
        <time>2021-08-18T13:27:10Z</time>
      </trkpt>
      <trkpt lat="43.63946" lon="1.22014">
        <ele>223.16</ele>
        <time>2021-08-18T13:27:19Z</time>
      </trkpt>
      <trkpt lat="43.63929" lon="1.21998">
        <ele>224.12</ele>
        <time>2021-08-18T13:27:26Z</time>
      </trkpt>
      <trkpt lat="43.63905" lon="1.21978">
        <ele>226.05</ele>
        <time>2021-08-18T13:27:35Z</time>
      </trkpt>
      <trkpt lat="43.63884" lon="1.2196">
        <ele>227.49</ele>
        <time>2021-08-18T13:27:43Z</time>
      </trkpt>
      <trkpt lat="43.63861" lon="1.2194">
        <ele>228.93</ele>
        <time>2021-08-18T13:27:52Z</time>
      </trkpt>
      <trkpt lat="43.63839" lon="1.21922">
        <ele>230.37</ele>
        <time>2021-08-18T13:28:01Z</time>
      </trkpt>
      <trkpt lat="43.63818" lon="1.21905">
        <ele>231.33</ele>
        <time>2021-08-18T13:28:10Z</time>
      </trkpt>
      <trkpt lat="43.63796" lon="1.21886">
        <ele>232.78</ele>
        <time>2021-08-18T13:28:19Z</time>
      </trkpt>
      <trkpt lat="43.63774" lon="1.21866">
        <ele>232.78</ele>
        <time>2021-08-18T13:28:26Z</time>
      </trkpt>
      <trkpt lat="43.63747" lon="1.21843">
        <ele>232.78</ele>
        <time>2021-08-18T13:28:33Z</time>
      </trkpt>
      <trkpt lat="43.6371" lon="1.21813">
        <ele>232.3</ele>
        <time>2021-08-18T13:28:41Z</time>
      </trkpt>
      <trkpt lat="43.63675" lon="1.21782">
        <ele>232.78</ele>
        <time>2021-08-18T13:28:49Z</time>
      </trkpt>
      <trkpt lat="43.6364" lon="1.21754">
        <ele>232.78</ele>
        <time>2021-08-18T13:28:57Z</time>
      </trkpt>
      <trkpt lat="43.63616" lon="1.21733">
        <ele>233.26</ele>
        <time>2021-08-18T13:29:03Z</time>
      </trkpt>
      <trkpt lat="43.636" lon="1.21719">
        <ele>233.26</ele>
        <time>2021-08-18T13:29:07Z</time>
      </trkpt>
      <trkpt lat="43.63596" lon="1.21716">
        <ele>233.26</ele>
        <time>2021-08-18T13:29:08Z</time>
      </trkpt>
      <trkpt lat="43.63592" lon="1.21713">
        <ele>233.26</ele>
        <time>2021-08-18T13:29:09Z</time>
      </trkpt>
      <trkpt lat="43.63588" lon="1.21709">
        <ele>233.26</ele>
        <time>2021-08-18T13:29:10Z</time>
      </trkpt>
      <trkpt lat="43.63584" lon="1.21706">
        <ele>233.26</ele>
        <time>2021-08-18T13:29:11Z</time>
      </trkpt>
      <trkpt lat="43.63552" lon="1.21678">
        <ele>233.74</ele>
        <time>2021-08-18T13:29:18Z</time>
      </trkpt>
      <trkpt lat="43.63515" lon="1.21645">
        <ele>233.74</ele>
        <time>2021-08-18T13:29:26Z</time>
      </trkpt>
      <trkpt lat="43.63477" lon="1.21613">
        <ele>233.74</ele>
        <time>2021-08-18T13:29:34Z</time>
      </trkpt>
      <trkpt lat="43.6344" lon="1.21582">
        <ele>233.74</ele>
        <time>2021-08-18T13:29:42Z</time>
      </trkpt>
      <trkpt lat="43.63392" lon="1.21544">
        <ele>233.74</ele>
        <time>2021-08-18T13:29:51Z</time>
      </trkpt>
      <trkpt lat="43.63361" lon="1.21519">
        <ele>232.78</ele>
        <time>2021-08-18T13:29:58Z</time>
      </trkpt>
      <trkpt lat="43.63357" lon="1.21516">
        <ele>232.78</ele>
        <time>2021-08-18T13:29:59Z</time>
      </trkpt>
      <trkpt lat="43.63337" lon="1.21498">
        <ele>232.78</ele>
        <time>2021-08-18T13:30:04Z</time>
      </trkpt>
      <trkpt lat="43.63333" lon="1.21494">
        <ele>232.78</ele>
        <time>2021-08-18T13:30:05Z</time>
      </trkpt>
      <trkpt lat="43.63317" lon="1.2148">
        <ele>232.78</ele>
        <time>2021-08-18T13:30:09Z</time>
      </trkpt>
      <trkpt lat="43.63312" lon="1.21476">
        <ele>232.78</ele>
        <time>2021-08-18T13:30:10Z</time>
      </trkpt>
      <trkpt lat="43.63308" lon="1.21472">
        <ele>232.78</ele>
        <time>2021-08-18T13:30:11Z</time>
      </trkpt>
      <trkpt lat="43.63303" lon="1.21468">
        <ele>232.78</ele>
        <time>2021-08-18T13:30:12Z</time>
      </trkpt>
      <trkpt lat="43.63299" lon="1.21464">
        <ele>232.78</ele>
        <time>2021-08-18T13:30:13Z</time>
      </trkpt>
      <trkpt lat="43.63258" lon="1.21429">
        <ele>232.78</ele>
        <time>2021-08-18T13:30:22Z</time>
      </trkpt>
      <trkpt lat="43.6324" lon="1.21415">
        <ele>233.74</ele>
        <time>2021-08-18T13:30:26Z</time>
      </trkpt>
      <trkpt lat="43.63208" lon="1.21388">
        <ele>234.7</ele>
        <time>2021-08-18T13:30:34Z</time>
      </trkpt>
      <trkpt lat="43.63203" lon="1.21385">
        <ele>234.7</ele>
        <time>2021-08-18T13:30:35Z</time>
      </trkpt>
      <trkpt lat="43.63168" lon="1.21357">
        <ele>235.18</ele>
        <time>2021-08-18T13:30:43Z</time>
      </trkpt>
      <trkpt lat="43.63164" lon="1.21354">
        <ele>235.18</ele>
        <time>2021-08-18T13:30:44Z</time>
      </trkpt>
      <trkpt lat="43.63128" lon="1.21324">
        <ele>236.14</ele>
        <time>2021-08-18T13:30:53Z</time>
      </trkpt>
      <trkpt lat="43.63085" lon="1.21289">
        <ele>237.1</ele>
        <time>2021-08-18T13:31:04Z</time>
      </trkpt>
      <trkpt lat="43.63056" lon="1.21265">
        <ele>238.54</ele>
        <time>2021-08-18T13:31:12Z</time>
      </trkpt>
      <trkpt lat="43.63027" lon="1.21241">
        <ele>239.51</ele>
        <time>2021-08-18T13:31:20Z</time>
      </trkpt>
      <trkpt lat="43.62987" lon="1.21207">
        <ele>239.99</ele>
        <time>2021-08-18T13:31:30Z</time>
      </trkpt>
      <trkpt lat="43.62958" lon="1.21184">
        <ele>240.47</ele>
        <time>2021-08-18T13:31:37Z</time>
      </trkpt>
      <trkpt lat="43.6293" lon="1.2116">
        <ele>240.47</ele>
        <time>2021-08-18T13:31:44Z</time>
      </trkpt>
      <trkpt lat="43.62895" lon="1.2113">
        <ele>240.95</ele>
        <time>2021-08-18T13:31:52Z</time>
      </trkpt>
      <trkpt lat="43.62859" lon="1.211">
        <ele>240.95</ele>
        <time>2021-08-18T13:32:00Z</time>
      </trkpt>
      <trkpt lat="43.62824" lon="1.21071">
        <ele>240.47</ele>
        <time>2021-08-18T13:32:08Z</time>
      </trkpt>
      <trkpt lat="43.62797" lon="1.21049">
        <ele>241.43</ele>
        <time>2021-08-18T13:32:14Z</time>
      </trkpt>
      <trkpt lat="43.62764" lon="1.2102">
        <ele>241.43</ele>
        <time>2021-08-18T13:32:22Z</time>
      </trkpt>
      <trkpt lat="43.62742" lon="1.21">
        <ele>241.91</ele>
        <time>2021-08-18T13:32:27Z</time>
      </trkpt>
      <trkpt lat="43.62716" lon="1.20979">
        <ele>241.91</ele>
        <time>2021-08-18T13:32:33Z</time>
      </trkpt>
      <trkpt lat="43.62695" lon="1.20961">
        <ele>241.91</ele>
        <time>2021-08-18T13:32:38Z</time>
      </trkpt>
      <trkpt lat="43.6269" lon="1.20957">
        <ele>241.91</ele>
        <time>2021-08-18T13:32:39Z</time>
      </trkpt>
      <trkpt lat="43.62672" lon="1.20942">
        <ele>241.91</ele>
        <time>2021-08-18T13:32:43Z</time>
      </trkpt>
      <trkpt lat="43.62653" lon="1.20925">
        <ele>241.91</ele>
        <time>2021-08-18T13:32:47Z</time>
      </trkpt>
      <trkpt lat="43.62649" lon="1.20922">
        <ele>241.91</ele>
        <time>2021-08-18T13:32:48Z</time>
      </trkpt>
      <trkpt lat="43.62628" lon="1.20905">
        <ele>241.91</ele>
        <time>2021-08-18T13:32:53Z</time>
      </trkpt>
      <trkpt lat="43.62624" lon="1.20901">
        <ele>241.91</ele>
        <time>2021-08-18T13:32:54Z</time>
      </trkpt>
      <trkpt lat="43.62602" lon="1.20884">
        <ele>241.91</ele>
        <time>2021-08-18T13:32:59Z</time>
      </trkpt>
      <trkpt lat="43.62599" lon="1.20881">
        <ele>241.91</ele>
        <time>2021-08-18T13:33:00Z</time>
      </trkpt>
      <trkpt lat="43.62595" lon="1.20877">
        <ele>243.35</ele>
        <time>2021-08-18T13:33:01Z</time>
      </trkpt>
      <trkpt lat="43.62591" lon="1.20874">
        <ele>241.43</ele>
        <time>2021-08-18T13:33:02Z</time>
      </trkpt>
      <trkpt lat="43.6258" lon="1.20865">
        <ele>241.43</ele>
        <time>2021-08-18T13:33:05Z</time>
      </trkpt>
      <trkpt lat="43.62576" lon="1.20862">
        <ele>241.43</ele>
        <time>2021-08-18T13:33:06Z</time>
      </trkpt>
      <trkpt lat="43.62539" lon="1.20832">
        <ele>241.43</ele>
        <time>2021-08-18T13:33:15Z</time>
      </trkpt>
      <trkpt lat="43.62523" lon="1.2082">
        <ele>241.43</ele>
        <time>2021-08-18T13:33:19Z</time>
      </trkpt>
      <trkpt lat="43.62516" lon="1.20813">
        <ele>241.43</ele>
        <time>2021-08-18T13:33:21Z</time>
      </trkpt>
      <trkpt lat="43.62507" lon="1.20806">
        <ele>241.43</ele>
        <time>2021-08-18T13:33:23Z</time>
      </trkpt>
      <trkpt lat="43.62475" lon="1.20777">
        <ele>241.43</ele>
        <time>2021-08-18T13:33:31Z</time>
      </trkpt>
      <trkpt lat="43.62467" lon="1.20771">
        <ele>241.43</ele>
        <time>2021-08-18T13:33:33Z</time>
      </trkpt>
      <trkpt lat="43.62463" lon="1.20767">
        <ele>241.43</ele>
        <time>2021-08-18T13:33:34Z</time>
      </trkpt>
      <trkpt lat="43.62455" lon="1.2076">
        <ele>241.43</ele>
        <time>2021-08-18T13:33:36Z</time>
      </trkpt>
      <trkpt lat="43.6245" lon="1.20757">
        <ele>241.43</ele>
        <time>2021-08-18T13:33:37Z</time>
      </trkpt>
      <trkpt lat="43.62444" lon="1.20753">
        <ele>241.43</ele>
        <time>2021-08-18T13:33:38Z</time>
      </trkpt>
      <trkpt lat="43.62439" lon="1.20749">
        <ele>241.43</ele>
        <time>2021-08-18T13:33:39Z</time>
      </trkpt>
      <trkpt lat="43.62427" lon="1.20738">
        <ele>241.43</ele>
        <time>2021-08-18T13:33:42Z</time>
      </trkpt>
      <trkpt lat="43.62397" lon="1.20715">
        <ele>241.43</ele>
        <time>2021-08-18T13:33:49Z</time>
      </trkpt>
      <trkpt lat="43.62367" lon="1.20689">
        <ele>241.43</ele>
        <time>2021-08-18T13:33:56Z</time>
      </trkpt>
      <trkpt lat="43.62336" lon="1.20663">
        <ele>242.87</ele>
        <time>2021-08-18T13:34:04Z</time>
      </trkpt>
      <trkpt lat="43.62305" lon="1.20634">
        <ele>239.99</ele>
        <time>2021-08-18T13:34:11Z</time>
      </trkpt>
      <trkpt lat="43.62291" lon="1.20622">
        <ele>239.02</ele>
        <time>2021-08-18T13:34:13Z</time>
      </trkpt>
      <trkpt lat="43.62251" lon="1.20587">
        <ele>235.18</ele>
        <time>2021-08-18T13:34:19Z</time>
      </trkpt>
      <trkpt lat="43.62209" lon="1.20554">
        <ele>232.78</ele>
        <time>2021-08-18T13:34:24Z</time>
      </trkpt>
      <trkpt lat="43.62174" lon="1.20525">
        <ele>230.37</ele>
        <time>2021-08-18T13:34:28Z</time>
      </trkpt>
      <trkpt lat="43.62141" lon="1.20498">
        <ele>232.3</ele>
        <time>2021-08-18T13:34:33Z</time>
      </trkpt>
      <trkpt lat="43.62123" lon="1.20483">
        <ele>233.74</ele>
        <time>2021-08-18T13:34:37Z</time>
      </trkpt>
      <trkpt lat="43.62088" lon="1.20456">
        <ele>235.66</ele>
        <time>2021-08-18T13:34:46Z</time>
      </trkpt>
      <trkpt lat="43.62057" lon="1.2043">
        <ele>235.66</ele>
        <time>2021-08-18T13:34:52Z</time>
      </trkpt>
      <trkpt lat="43.62046" lon="1.2042">
        <ele>234.22</ele>
        <time>2021-08-18T13:34:54Z</time>
      </trkpt>
      <trkpt lat="43.6202" lon="1.20399">
        <ele>233.74</ele>
        <time>2021-08-18T13:34:59Z</time>
      </trkpt>
      <trkpt lat="43.62015" lon="1.20395">
        <ele>233.74</ele>
        <time>2021-08-18T13:35:00Z</time>
      </trkpt>
      <trkpt lat="43.61993" lon="1.20377">
        <ele>235.66</ele>
        <time>2021-08-18T13:35:06Z</time>
      </trkpt>
      <trkpt lat="43.61975" lon="1.20363">
        <ele>237.58</ele>
        <time>2021-08-18T13:35:13Z</time>
      </trkpt>
      <trkpt lat="43.61956" lon="1.20346">
        <ele>239.02</ele>
        <time>2021-08-18T13:35:20Z</time>
      </trkpt>
      <trkpt lat="43.61931" lon="1.20325">
        <ele>239.99</ele>
        <time>2021-08-18T13:35:29Z</time>
      </trkpt>
      <trkpt lat="43.61905" lon="1.20302">
        <ele>241.91</ele>
        <time>2021-08-18T13:35:38Z</time>
      </trkpt>
      <trkpt lat="43.61877" lon="1.20278">
        <ele>243.35</ele>
        <time>2021-08-18T13:35:47Z</time>
      </trkpt>
      <trkpt lat="43.61854" lon="1.20258">
        <ele>243.83</ele>
        <time>2021-08-18T13:35:54Z</time>
      </trkpt>
      <trkpt lat="43.6185" lon="1.20256">
        <ele>243.83</ele>
        <time>2021-08-18T13:35:55Z</time>
      </trkpt>
      <trkpt lat="43.61821" lon="1.2023">
        <ele>244.31</ele>
        <time>2021-08-18T13:36:03Z</time>
      </trkpt>
      <trkpt lat="43.61814" lon="1.20224">
        <ele>244.31</ele>
        <time>2021-08-18T13:36:05Z</time>
      </trkpt>
      <trkpt lat="43.61782" lon="1.20199">
        <ele>244.31</ele>
        <time>2021-08-18T13:36:13Z</time>
      </trkpt>
      <trkpt lat="43.61752" lon="1.20173">
        <ele>244.31</ele>
        <time>2021-08-18T13:36:21Z</time>
      </trkpt>
      <trkpt lat="43.61722" lon="1.20149">
        <ele>241.43</ele>
        <time>2021-08-18T13:36:28Z</time>
      </trkpt>
      <trkpt lat="43.61699" lon="1.2013">
        <ele>238.54</ele>
        <time>2021-08-18T13:36:32Z</time>
      </trkpt>
      <trkpt lat="43.61686" lon="1.20118">
        <ele>237.58</ele>
        <time>2021-08-18T13:36:34Z</time>
      </trkpt>
      <trkpt lat="43.61665" lon="1.20101">
        <ele>235.66</ele>
        <time>2021-08-18T13:36:37Z</time>
      </trkpt>
      <trkpt lat="43.61632" lon="1.20074">
        <ele>231.81</ele>
        <time>2021-08-18T13:36:41Z</time>
      </trkpt>
      <trkpt lat="43.61606" lon="1.20052">
        <ele>228.93</ele>
        <time>2021-08-18T13:36:44Z</time>
      </trkpt>
      <trkpt lat="43.61571" lon="1.20023">
        <ele>225.57</ele>
        <time>2021-08-18T13:36:48Z</time>
      </trkpt>
      <trkpt lat="43.61557" lon="1.20011">
        <ele>224.61</ele>
        <time>2021-08-18T13:36:50Z</time>
      </trkpt>
      <trkpt lat="43.61541" lon="1.19998">
        <ele>223.64</ele>
        <time>2021-08-18T13:36:53Z</time>
      </trkpt>
      <trkpt lat="43.6153" lon="1.19988">
        <ele>222.68</ele>
        <time>2021-08-18T13:36:56Z</time>
      </trkpt>
      <trkpt lat="43.61499" lon="1.19962">
        <ele>221.72</ele>
        <time>2021-08-18T13:37:03Z</time>
      </trkpt>
      <trkpt lat="43.6146" lon="1.19931">
        <ele>221.72</ele>
        <time>2021-08-18T13:37:11Z</time>
      </trkpt>
      <trkpt lat="43.61427" lon="1.19902">
        <ele>223.16</ele>
        <time>2021-08-18T13:37:18Z</time>
      </trkpt>
      <trkpt lat="43.61409" lon="1.19888">
        <ele>224.12</ele>
        <time>2021-08-18T13:37:22Z</time>
      </trkpt>
      <trkpt lat="43.61405" lon="1.19884">
        <ele>224.12</ele>
        <time>2021-08-18T13:37:23Z</time>
      </trkpt>
      <trkpt lat="43.61375" lon="1.19859">
        <ele>225.09</ele>
        <time>2021-08-18T13:37:31Z</time>
      </trkpt>
      <trkpt lat="43.61353" lon="1.19841">
        <ele>226.53</ele>
        <time>2021-08-18T13:37:39Z</time>
      </trkpt>
      <trkpt lat="43.61333" lon="1.19824">
        <ele>227.49</ele>
        <time>2021-08-18T13:37:48Z</time>
      </trkpt>
      <trkpt lat="43.61312" lon="1.19806">
        <ele>228.45</ele>
        <time>2021-08-18T13:37:57Z</time>
      </trkpt>
      <trkpt lat="43.61294" lon="1.1979">
        <ele>229.89</ele>
        <time>2021-08-18T13:38:06Z</time>
      </trkpt>
      <trkpt lat="43.61277" lon="1.19778">
        <ele>231.33</ele>
        <time>2021-08-18T13:38:15Z</time>
      </trkpt>
      <trkpt lat="43.6126" lon="1.19762">
        <ele>232.78</ele>
        <time>2021-08-18T13:38:25Z</time>
      </trkpt>
      <trkpt lat="43.61243" lon="1.19749">
        <ele>233.74</ele>
        <time>2021-08-18T13:38:34Z</time>
      </trkpt>
      <trkpt lat="43.61223" lon="1.19733">
        <ele>235.18</ele>
        <time>2021-08-18T13:38:45Z</time>
      </trkpt>
      <trkpt lat="43.6121" lon="1.19722">
        <ele>236.62</ele>
        <time>2021-08-18T13:38:53Z</time>
      </trkpt>
      <trkpt lat="43.61195" lon="1.19709">
        <ele>237.58</ele>
        <time>2021-08-18T13:39:01Z</time>
      </trkpt>
      <trkpt lat="43.61178" lon="1.19696">
        <ele>239.02</ele>
        <time>2021-08-18T13:39:08Z</time>
      </trkpt>
      <trkpt lat="43.61159" lon="1.1968">
        <ele>240.47</ele>
        <time>2021-08-18T13:39:16Z</time>
      </trkpt>
      <trkpt lat="43.61133" lon="1.19658">
        <ele>241.91</ele>
        <time>2021-08-18T13:39:25Z</time>
      </trkpt>
      <trkpt lat="43.61106" lon="1.19637">
        <ele>243.35</ele>
        <time>2021-08-18T13:39:33Z</time>
      </trkpt>
      <trkpt lat="43.61095" lon="1.19628">
        <ele>242.87</ele>
        <time>2021-08-18T13:39:36Z</time>
      </trkpt>
      <trkpt lat="43.61066" lon="1.19605">
        <ele>243.83</ele>
        <time>2021-08-18T13:39:44Z</time>
      </trkpt>
      <trkpt lat="43.61032" lon="1.19577">
        <ele>244.79</ele>
        <time>2021-08-18T13:39:53Z</time>
      </trkpt>
      <trkpt lat="43.61" lon="1.19552">
        <ele>245.27</ele>
        <time>2021-08-18T13:40:01Z</time>
      </trkpt>
      <trkpt lat="43.60963" lon="1.19522">
        <ele>245.27</ele>
        <time>2021-08-18T13:40:09Z</time>
      </trkpt>
      <trkpt lat="43.60921" lon="1.19488">
        <ele>244.31</ele>
        <time>2021-08-18T13:40:17Z</time>
      </trkpt>
      <trkpt lat="43.60873" lon="1.19449">
        <ele>244.31</ele>
        <time>2021-08-18T13:40:26Z</time>
      </trkpt>
      <trkpt lat="43.60832" lon="1.19415">
        <ele>245.27</ele>
        <time>2021-08-18T13:40:34Z</time>
      </trkpt>
      <trkpt lat="43.60827" lon="1.19411">
        <ele>245.27</ele>
        <time>2021-08-18T13:40:35Z</time>
      </trkpt>
      <trkpt lat="43.60808" lon="1.19396">
        <ele>245.75</ele>
        <time>2021-08-18T13:40:39Z</time>
      </trkpt>
      <trkpt lat="43.60769" lon="1.19364">
        <ele>245.75</ele>
        <time>2021-08-18T13:40:47Z</time>
      </trkpt>
      <trkpt lat="43.60724" lon="1.19327">
        <ele>246.72</ele>
        <time>2021-08-18T13:40:56Z</time>
      </trkpt>
      <trkpt lat="43.60675" lon="1.19286">
        <ele>247.2</ele>
        <time>2021-08-18T13:41:06Z</time>
      </trkpt>
      <trkpt lat="43.60634" lon="1.19253">
        <ele>246.72</ele>
        <time>2021-08-18T13:41:14Z</time>
      </trkpt>
      <trkpt lat="43.60591" lon="1.19217">
        <ele>245.27</ele>
        <time>2021-08-18T13:41:22Z</time>
      </trkpt>
      <trkpt lat="43.60557" lon="1.1919">
        <ele>241.91</ele>
        <time>2021-08-18T13:41:27Z</time>
      </trkpt>
      <trkpt lat="43.6051" lon="1.19152">
        <ele>238.54</ele>
        <time>2021-08-18T13:41:33Z</time>
      </trkpt>
      <trkpt lat="43.60468" lon="1.19118">
        <ele>235.66</ele>
        <time>2021-08-18T13:41:38Z</time>
      </trkpt>
      <trkpt lat="43.60433" lon="1.19089">
        <ele>238.54</ele>
        <time>2021-08-18T13:41:43Z</time>
      </trkpt>
      <trkpt lat="43.60427" lon="1.19085">
        <ele>238.54</ele>
        <time>2021-08-18T13:41:44Z</time>
      </trkpt>
      <trkpt lat="43.604" lon="1.19063">
        <ele>240.95</ele>
        <time>2021-08-18T13:41:50Z</time>
      </trkpt>
      <trkpt lat="43.60368" lon="1.19037">
        <ele>242.87</ele>
        <time>2021-08-18T13:41:59Z</time>
      </trkpt>
      <trkpt lat="43.60335" lon="1.19011">
        <ele>240.47</ele>
        <time>2021-08-18T13:42:06Z</time>
      </trkpt>
      <trkpt lat="43.60292" lon="1.18974">
        <ele>237.58</ele>
        <time>2021-08-18T13:42:13Z</time>
      </trkpt>
      <trkpt lat="43.60235" lon="1.18928">
        <ele>234.22</ele>
        <time>2021-08-18T13:42:21Z</time>
      </trkpt>
      <trkpt lat="43.60185" lon="1.18888">
        <ele>233.26</ele>
        <time>2021-08-18T13:42:28Z</time>
      </trkpt>
      <trkpt lat="43.60167" lon="1.18874">
        <ele>236.62</ele>
        <time>2021-08-18T13:42:31Z</time>
      </trkpt>
      <trkpt lat="43.60157" lon="1.18866">
        <ele>237.1</ele>
        <time>2021-08-18T13:42:33Z</time>
      </trkpt>
      <trkpt lat="43.6014" lon="1.18853">
        <ele>239.51</ele>
        <time>2021-08-18T13:42:38Z</time>
      </trkpt>
      <trkpt lat="43.60124" lon="1.18839">
        <ele>240.95</ele>
        <time>2021-08-18T13:42:46Z</time>
      </trkpt>
      <trkpt lat="43.601" lon="1.18823">
        <ele>242.87</ele>
        <time>2021-08-18T13:42:57Z</time>
      </trkpt>
      <trkpt lat="43.60084" lon="1.18809">
        <ele>245.27</ele>
        <time>2021-08-18T13:43:05Z</time>
      </trkpt>
      <trkpt lat="43.60062" lon="1.18791">
        <ele>246.72</ele>
        <time>2021-08-18T13:43:16Z</time>
      </trkpt>
      <trkpt lat="43.60044" lon="1.18778">
        <ele>248.16</ele>
        <time>2021-08-18T13:43:25Z</time>
      </trkpt>
      <trkpt lat="43.60028" lon="1.18764">
        <ele>250.08</ele>
        <time>2021-08-18T13:43:33Z</time>
      </trkpt>
      <trkpt lat="43.60003" lon="1.18744">
        <ele>250.08</ele>
        <time>2021-08-18T13:43:41Z</time>
      </trkpt>
      <trkpt lat="43.59969" lon="1.18717">
        <ele>249.6</ele>
        <time>2021-08-18T13:43:49Z</time>
      </trkpt>
      <trkpt lat="43.59953" lon="1.18704">
        <ele>248.16</ele>
        <time>2021-08-18T13:43:52Z</time>
      </trkpt>
      <trkpt lat="43.59909" lon="1.18668">
        <ele>247.68</ele>
        <time>2021-08-18T13:44:00Z</time>
      </trkpt>
      <trkpt lat="43.59886" lon="1.1865">
        <ele>249.12</ele>
        <time>2021-08-18T13:44:04Z</time>
      </trkpt>
      <trkpt lat="43.5987" lon="1.18635">
        <ele>249.12</ele>
        <time>2021-08-18T13:44:07Z</time>
      </trkpt>
      <trkpt lat="43.59864" lon="1.1863">
        <ele>249.12</ele>
        <time>2021-08-18T13:44:08Z</time>
      </trkpt>
      <trkpt lat="43.59835" lon="1.18605">
        <ele>247.68</ele>
        <time>2021-08-18T13:44:13Z</time>
      </trkpt>
      <trkpt lat="43.59776" lon="1.18558">
        <ele>247.68</ele>
        <time>2021-08-18T13:44:23Z</time>
      </trkpt>
      <trkpt lat="43.59751" lon="1.18537">
        <ele>247.68</ele>
        <time>2021-08-18T13:44:28Z</time>
      </trkpt>
      <trkpt lat="43.59736" lon="1.18526">
        <ele>249.12</ele>
        <time>2021-08-18T13:44:31Z</time>
      </trkpt>
      <trkpt lat="43.59732" lon="1.18522">
        <ele>249.12</ele>
        <time>2021-08-18T13:44:32Z</time>
      </trkpt>
      <trkpt lat="43.59715" lon="1.18508">
        <ele>249.12</ele>
        <time>2021-08-18T13:44:36Z</time>
      </trkpt>
      <trkpt lat="43.59711" lon="1.18504">
        <ele>249.12</ele>
        <time>2021-08-18T13:44:37Z</time>
      </trkpt>
      <trkpt lat="43.59707" lon="1.18499">
        <ele>249.12</ele>
        <time>2021-08-18T13:44:38Z</time>
      </trkpt>
      <trkpt lat="43.59704" lon="1.18492">
        <ele>249.12</ele>
        <time>2021-08-18T13:44:39Z</time>
      </trkpt>
      <trkpt lat="43.59703" lon="1.18485">
        <ele>249.12</ele>
        <time>2021-08-18T13:44:40Z</time>
      </trkpt>
      <trkpt lat="43.59703" lon="1.18476">
        <ele>249.12</ele>
        <time>2021-08-18T13:44:41Z</time>
      </trkpt>
      <trkpt lat="43.59704" lon="1.1847">
        <ele>249.12</ele>
        <time>2021-08-18T13:44:42Z</time>
      </trkpt>
      <trkpt lat="43.59705" lon="1.18451">
        <ele>249.12</ele>
        <time>2021-08-18T13:44:45Z</time>
      </trkpt>
      <trkpt lat="43.59706" lon="1.18439">
        <ele>249.12</ele>
        <time>2021-08-18T13:44:47Z</time>
      </trkpt>
      <trkpt lat="43.59707" lon="1.18432">
        <ele>249.12</ele>
        <time>2021-08-18T13:44:48Z</time>
      </trkpt>
      <trkpt lat="43.59709" lon="1.18426">
        <ele>248.16</ele>
        <time>2021-08-18T13:44:49Z</time>
      </trkpt>
      <trkpt lat="43.59711" lon="1.1842">
        <ele>248.16</ele>
        <time>2021-08-18T13:44:50Z</time>
      </trkpt>
      <trkpt lat="43.59713" lon="1.18416">
        <ele>248.16</ele>
        <time>2021-08-18T13:44:51Z</time>
      </trkpt>
      <trkpt lat="43.59716" lon="1.18408">
        <ele>249.6</ele>
        <time>2021-08-18T13:44:53Z</time>
      </trkpt>
      <trkpt lat="43.59729" lon="1.18377">
        <ele>251.52</ele>
        <time>2021-08-18T13:45:01Z</time>
      </trkpt>
      <trkpt lat="43.59737" lon="1.18343">
        <ele>252.48</ele>
        <time>2021-08-18T13:45:08Z</time>
      </trkpt>
      <trkpt lat="43.5974" lon="1.18312">
        <ele>253.93</ele>
        <time>2021-08-18T13:45:16Z</time>
      </trkpt>
      <trkpt lat="43.59742" lon="1.18291">
        <ele>254.89</ele>
        <time>2021-08-18T13:45:23Z</time>
      </trkpt>
      <trkpt lat="43.59744" lon="1.1827">
        <ele>255.85</ele>
        <time>2021-08-18T13:45:31Z</time>
      </trkpt>
      <trkpt lat="43.59746" lon="1.18252">
        <ele>257.29</ele>
        <time>2021-08-18T13:45:39Z</time>
      </trkpt>
      <trkpt lat="43.59749" lon="1.18233">
        <ele>258.25</ele>
        <time>2021-08-18T13:45:48Z</time>
      </trkpt>
      <trkpt lat="43.59749" lon="1.18231">
        <ele>258.25</ele>
        <time>2021-08-18T13:45:49Z</time>
      </trkpt>
      <trkpt lat="43.59749" lon="1.18229">
        <ele>258.25</ele>
        <time>2021-08-18T13:45:50Z</time>
      </trkpt>
      <trkpt lat="43.59749" lon="1.18227">
        <ele>258.73</ele>
        <time>2021-08-18T13:45:51Z</time>
      </trkpt>
      <trkpt lat="43.5975" lon="1.18225">
        <ele>258.73</ele>
        <time>2021-08-18T13:45:52Z</time>
      </trkpt>
      <trkpt lat="43.5975" lon="1.18223">
        <ele>258.73</ele>
        <time>2021-08-18T13:45:53Z</time>
      </trkpt>
      <trkpt lat="43.5975" lon="1.1822">
        <ele>258.73</ele>
        <time>2021-08-18T13:45:54Z</time>
      </trkpt>
      <trkpt lat="43.59751" lon="1.18218">
        <ele>259.69</ele>
        <time>2021-08-18T13:45:55Z</time>
      </trkpt>
      <trkpt lat="43.59751" lon="1.18215">
        <ele>259.69</ele>
        <time>2021-08-18T13:45:56Z</time>
      </trkpt>
      <trkpt lat="43.59751" lon="1.18213">
        <ele>259.69</ele>
        <time>2021-08-18T13:45:57Z</time>
      </trkpt>
      <trkpt lat="43.59752" lon="1.18211">
        <ele>259.69</ele>
        <time>2021-08-18T13:45:58Z</time>
      </trkpt>
      <trkpt lat="43.59752" lon="1.18209">
        <ele>259.69</ele>
        <time>2021-08-18T13:45:59Z</time>
      </trkpt>
      <trkpt lat="43.59753" lon="1.18207">
        <ele>259.69</ele>
        <time>2021-08-18T13:46:00Z</time>
      </trkpt>
      <trkpt lat="43.59757" lon="1.18189">
        <ele>262.1</ele>
        <time>2021-08-18T13:46:09Z</time>
      </trkpt>
      <trkpt lat="43.59758" lon="1.18184">
        <ele>262.58</ele>
        <time>2021-08-18T13:46:12Z</time>
      </trkpt>
      <trkpt lat="43.59758" lon="1.18182">
        <ele>263.06</ele>
        <time>2021-08-18T13:46:13Z</time>
      </trkpt>
      <trkpt lat="43.59757" lon="1.1818">
        <ele>263.06</ele>
        <time>2021-08-18T13:46:14Z</time>
      </trkpt>
      <trkpt lat="43.59753" lon="1.18161">
        <ele>264.5</ele>
        <time>2021-08-18T13:46:22Z</time>
      </trkpt>
      <trkpt lat="43.5975" lon="1.18137">
        <ele>265.46</ele>
        <time>2021-08-18T13:46:29Z</time>
      </trkpt>
      <trkpt lat="43.59749" lon="1.18114">
        <ele>265.94</ele>
        <time>2021-08-18T13:46:36Z</time>
      </trkpt>
      <trkpt lat="43.59745" lon="1.18091">
        <ele>266.42</ele>
        <time>2021-08-18T13:46:43Z</time>
      </trkpt>
      <trkpt lat="43.59739" lon="1.18067">
        <ele>266.42</ele>
        <time>2021-08-18T13:46:49Z</time>
      </trkpt>
      <trkpt lat="43.59739" lon="1.1804">
        <ele>266.9</ele>
        <time>2021-08-18T13:46:54Z</time>
      </trkpt>
      <trkpt lat="43.5974" lon="1.18021">
        <ele>268.35</ele>
        <time>2021-08-18T13:46:59Z</time>
      </trkpt>
      <trkpt lat="43.59739" lon="1.17991">
        <ele>268.83</ele>
        <time>2021-08-18T13:47:06Z</time>
      </trkpt>
      <trkpt lat="43.5974" lon="1.17957">
        <ele>269.79</ele>
        <time>2021-08-18T13:47:13Z</time>
      </trkpt>
      <trkpt lat="43.59739" lon="1.17929">
        <ele>271.23</ele>
        <time>2021-08-18T13:47:20Z</time>
      </trkpt>
      <trkpt lat="43.59739" lon="1.17919">
        <ele>271.71</ele>
        <time>2021-08-18T13:47:23Z</time>
      </trkpt>
      <trkpt lat="43.59735" lon="1.17898">
        <ele>273.15</ele>
        <time>2021-08-18T13:47:30Z</time>
      </trkpt>
      <trkpt lat="43.59736" lon="1.17896">
        <ele>273.15</ele>
        <time>2021-08-18T13:47:31Z</time>
      </trkpt>
      <trkpt lat="43.59731" lon="1.17863">
        <ele>274.11</ele>
        <time>2021-08-18T13:47:39Z</time>
      </trkpt>
      <trkpt lat="43.59731" lon="1.17842">
        <ele>275.56</ele>
        <time>2021-08-18T13:47:46Z</time>
      </trkpt>
      <trkpt lat="43.5973" lon="1.17839">
        <ele>275.56</ele>
        <time>2021-08-18T13:47:47Z</time>
      </trkpt>
      <trkpt lat="43.59731" lon="1.17836">
        <ele>275.56</ele>
        <time>2021-08-18T13:47:48Z</time>
      </trkpt>
      <trkpt lat="43.59732" lon="1.17833">
        <ele>275.56</ele>
        <time>2021-08-18T13:47:49Z</time>
      </trkpt>
      <trkpt lat="43.59732" lon="1.1783">
        <ele>276.04</ele>
        <time>2021-08-18T13:47:50Z</time>
      </trkpt>
      <trkpt lat="43.59733" lon="1.17802">
        <ele>277</ele>
        <time>2021-08-18T13:47:58Z</time>
      </trkpt>
      <trkpt lat="43.5973" lon="1.17767">
        <ele>278.44</ele>
        <time>2021-08-18T13:48:07Z</time>
      </trkpt>
      <trkpt lat="43.5973" lon="1.17738">
        <ele>279.4</ele>
        <time>2021-08-18T13:48:13Z</time>
      </trkpt>
      <trkpt lat="43.59731" lon="1.177">
        <ele>279.88</ele>
        <time>2021-08-18T13:48:21Z</time>
      </trkpt>
      <trkpt lat="43.59741" lon="1.17665">
        <ele>279.88</ele>
        <time>2021-08-18T13:48:28Z</time>
      </trkpt>
      <trkpt lat="43.59757" lon="1.17624">
        <ele>280.36</ele>
        <time>2021-08-18T13:48:36Z</time>
      </trkpt>
      <trkpt lat="43.59763" lon="1.176">
        <ele>280.84</ele>
        <time>2021-08-18T13:48:40Z</time>
      </trkpt>
      <trkpt lat="43.59773" lon="1.17551">
        <ele>280.84</ele>
        <time>2021-08-18T13:48:48Z</time>
      </trkpt>
      <trkpt lat="43.59775" lon="1.17545">
        <ele>280.84</ele>
        <time>2021-08-18T13:48:49Z</time>
      </trkpt>
      <trkpt lat="43.59781" lon="1.17529">
        <ele>280.84</ele>
        <time>2021-08-18T13:48:52Z</time>
      </trkpt>
      <trkpt lat="43.59788" lon="1.17513">
        <ele>281.32</ele>
        <time>2021-08-18T13:48:55Z</time>
      </trkpt>
      <trkpt lat="43.59792" lon="1.1748">
        <ele>282.28</ele>
        <time>2021-08-18T13:49:02Z</time>
      </trkpt>
      <trkpt lat="43.59797" lon="1.17448">
        <ele>283.25</ele>
        <time>2021-08-18T13:49:09Z</time>
      </trkpt>
      <trkpt lat="43.5981" lon="1.17419">
        <ele>283.73</ele>
        <time>2021-08-18T13:49:16Z</time>
      </trkpt>
      <trkpt lat="43.59832" lon="1.17398">
        <ele>284.21</ele>
        <time>2021-08-18T13:49:23Z</time>
      </trkpt>
      <trkpt lat="43.59854" lon="1.17378">
        <ele>282.77</ele>
        <time>2021-08-18T13:49:30Z</time>
      </trkpt>
      <trkpt lat="43.59857" lon="1.17374">
        <ele>282.77</ele>
        <time>2021-08-18T13:49:31Z</time>
      </trkpt>
      <trkpt lat="43.59871" lon="1.17351">
        <ele>281.8</ele>
        <time>2021-08-18T13:49:36Z</time>
      </trkpt>
      <trkpt lat="43.59882" lon="1.17327">
        <ele>281.8</ele>
        <time>2021-08-18T13:49:40Z</time>
      </trkpt>
      <trkpt lat="43.59888" lon="1.17309">
        <ele>281.8</ele>
        <time>2021-08-18T13:49:43Z</time>
      </trkpt>
      <trkpt lat="43.59891" lon="1.17303">
        <ele>281.8</ele>
        <time>2021-08-18T13:49:44Z</time>
      </trkpt>
      <trkpt lat="43.59911" lon="1.17266">
        <ele>281.8</ele>
        <time>2021-08-18T13:49:52Z</time>
      </trkpt>
      <trkpt lat="43.59933" lon="1.1724">
        <ele>280.84</ele>
        <time>2021-08-18T13:49:59Z</time>
      </trkpt>
      <trkpt lat="43.59936" lon="1.17235">
        <ele>280.84</ele>
        <time>2021-08-18T13:50:00Z</time>
      </trkpt>
      <trkpt lat="43.59942" lon="1.17225">
        <ele>280.84</ele>
        <time>2021-08-18T13:50:02Z</time>
      </trkpt>
      <trkpt lat="43.59944" lon="1.17219">
        <ele>280.84</ele>
        <time>2021-08-18T13:50:03Z</time>
      </trkpt>
      <trkpt lat="43.59957" lon="1.17179">
        <ele>280.84</ele>
        <time>2021-08-18T13:50:09Z</time>
      </trkpt>
      <trkpt lat="43.59961" lon="1.17166">
        <ele>280.84</ele>
        <time>2021-08-18T13:50:11Z</time>
      </trkpt>
      <trkpt lat="43.59968" lon="1.17149">
        <ele>280.84</ele>
        <time>2021-08-18T13:50:14Z</time>
      </trkpt>
      <trkpt lat="43.59984" lon="1.17119">
        <ele>280.36</ele>
        <time>2021-08-18T13:50:19Z</time>
      </trkpt>
      <trkpt lat="43.6" lon="1.17099">
        <ele>280.36</ele>
        <time>2021-08-18T13:50:23Z</time>
      </trkpt>
      <trkpt lat="43.60021" lon="1.17072">
        <ele>280.36</ele>
        <time>2021-08-18T13:50:29Z</time>
      </trkpt>
      <trkpt lat="43.60026" lon="1.17064">
        <ele>280.36</ele>
        <time>2021-08-18T13:50:33Z</time>
      </trkpt>
      <trkpt lat="43.60027" lon="1.17063">
        <ele>281.8</ele>
        <time>2021-08-18T13:50:43Z</time>
      </trkpt>
      <trkpt lat="43.60033" lon="1.17063">
        <ele>281.8</ele>
        <time>2021-08-18T13:51:05Z</time>
      </trkpt>
      <trkpt lat="43.60035" lon="1.17061">
        <ele>281.8</ele>
        <time>2021-08-18T13:51:25Z</time>
      </trkpt>
      <trkpt lat="43.60036" lon="1.17057">
        <ele>281.8</ele>
        <time>2021-08-18T13:51:29Z</time>
      </trkpt>
      <trkpt lat="43.6004" lon="1.17049">
        <ele>281.8</ele>
        <time>2021-08-18T13:51:34Z</time>
      </trkpt>
      <trkpt lat="43.60052" lon="1.17039">
        <ele>281.8</ele>
        <time>2021-08-18T13:51:40Z</time>
      </trkpt>
      <trkpt lat="43.60064" lon="1.17019">
        <ele>281.8</ele>
        <time>2021-08-18T13:51:46Z</time>
      </trkpt>
      <trkpt lat="43.60076" lon="1.1699">
        <ele>281.8</ele>
        <time>2021-08-18T13:51:53Z</time>
      </trkpt>
      <trkpt lat="43.60086" lon="1.1696">
        <ele>282.28</ele>
        <time>2021-08-18T13:51:59Z</time>
      </trkpt>
      <trkpt lat="43.60097" lon="1.16928">
        <ele>283.25</ele>
        <time>2021-08-18T13:52:06Z</time>
      </trkpt>
      <trkpt lat="43.60108" lon="1.16895">
        <ele>284.69</ele>
        <time>2021-08-18T13:52:14Z</time>
      </trkpt>
      <trkpt lat="43.60113" lon="1.1687">
        <ele>285.17</ele>
        <time>2021-08-18T13:52:21Z</time>
      </trkpt>
      <trkpt lat="43.60118" lon="1.16837">
        <ele>286.61</ele>
        <time>2021-08-18T13:52:29Z</time>
      </trkpt>
      <trkpt lat="43.6012" lon="1.16808">
        <ele>287.57</ele>
        <time>2021-08-18T13:52:37Z</time>
      </trkpt>
      <trkpt lat="43.6012" lon="1.16779">
        <ele>289.49</ele>
        <time>2021-08-18T13:52:46Z</time>
      </trkpt>
      <trkpt lat="43.60117" lon="1.16755">
        <ele>290.94</ele>
        <time>2021-08-18T13:52:54Z</time>
      </trkpt>
      <trkpt lat="43.60113" lon="1.16725">
        <ele>291.42</ele>
        <time>2021-08-18T13:53:03Z</time>
      </trkpt>
      <trkpt lat="43.60113" lon="1.16695">
        <ele>291.9</ele>
        <time>2021-08-18T13:53:09Z</time>
      </trkpt>
      <trkpt lat="43.60112" lon="1.16665">
        <ele>291.9</ele>
        <time>2021-08-18T13:53:15Z</time>
      </trkpt>
      <trkpt lat="43.60114" lon="1.16633">
        <ele>291.9</ele>
        <time>2021-08-18T13:53:21Z</time>
      </trkpt>
      <trkpt lat="43.60119" lon="1.166">
        <ele>291.9</ele>
        <time>2021-08-18T13:53:27Z</time>
      </trkpt>
      <trkpt lat="43.60115" lon="1.16565">
        <ele>292.38</ele>
        <time>2021-08-18T13:53:33Z</time>
      </trkpt>
      <trkpt lat="43.60113" lon="1.16552">
        <ele>292.38</ele>
        <time>2021-08-18T13:53:35Z</time>
      </trkpt>
      <trkpt lat="43.60112" lon="1.16504">
        <ele>292.86</ele>
        <time>2021-08-18T13:53:42Z</time>
      </trkpt>
      <trkpt lat="43.60112" lon="1.16497">
        <ele>292.86</ele>
        <time>2021-08-18T13:53:43Z</time>
      </trkpt>
      <trkpt lat="43.60111" lon="1.16491">
        <ele>292.86</ele>
        <time>2021-08-18T13:53:44Z</time>
      </trkpt>
      <trkpt lat="43.6011" lon="1.16484">
        <ele>292.86</ele>
        <time>2021-08-18T13:53:45Z</time>
      </trkpt>
      <trkpt lat="43.60109" lon="1.16478">
        <ele>292.86</ele>
        <time>2021-08-18T13:53:46Z</time>
      </trkpt>
      <trkpt lat="43.60099" lon="1.16442">
        <ele>293.82</ele>
        <time>2021-08-18T13:53:53Z</time>
      </trkpt>
      <trkpt lat="43.60095" lon="1.16413">
        <ele>293.82</ele>
        <time>2021-08-18T13:53:58Z</time>
      </trkpt>
      <trkpt lat="43.60099" lon="1.16382">
        <ele>294.3</ele>
        <time>2021-08-18T13:54:04Z</time>
      </trkpt>
      <trkpt lat="43.60107" lon="1.16342">
        <ele>295.26</ele>
        <time>2021-08-18T13:54:12Z</time>
      </trkpt>
      <trkpt lat="43.60113" lon="1.16297">
        <ele>296.7</ele>
        <time>2021-08-18T13:54:20Z</time>
      </trkpt>
      <trkpt lat="43.60113" lon="1.1629">
        <ele>296.7</ele>
        <time>2021-08-18T13:54:21Z</time>
      </trkpt>
      <trkpt lat="43.60114" lon="1.16249">
        <ele>296.7</ele>
        <time>2021-08-18T13:54:28Z</time>
      </trkpt>
      <trkpt lat="43.60113" lon="1.16217">
        <ele>295.26</ele>
        <time>2021-08-18T13:54:34Z</time>
      </trkpt>
      <trkpt lat="43.60114" lon="1.162">
        <ele>295.26</ele>
        <time>2021-08-18T13:54:37Z</time>
      </trkpt>
      <trkpt lat="43.60115" lon="1.16193">
        <ele>295.26</ele>
        <time>2021-08-18T13:54:38Z</time>
      </trkpt>
      <trkpt lat="43.60118" lon="1.16181">
        <ele>295.26</ele>
        <time>2021-08-18T13:54:40Z</time>
      </trkpt>
      <trkpt lat="43.6012" lon="1.16175">
        <ele>295.26</ele>
        <time>2021-08-18T13:54:41Z</time>
      </trkpt>
      <trkpt lat="43.60121" lon="1.16169">
        <ele>295.26</ele>
        <time>2021-08-18T13:54:42Z</time>
      </trkpt>
      <trkpt lat="43.60123" lon="1.16164">
        <ele>295.26</ele>
        <time>2021-08-18T13:54:43Z</time>
      </trkpt>
      <trkpt lat="43.60125" lon="1.16158">
        <ele>295.26</ele>
        <time>2021-08-18T13:54:44Z</time>
      </trkpt>
      <trkpt lat="43.60126" lon="1.16152">
        <ele>295.26</ele>
        <time>2021-08-18T13:54:45Z</time>
      </trkpt>
      <trkpt lat="43.60128" lon="1.16146">
        <ele>295.26</ele>
        <time>2021-08-18T13:54:46Z</time>
      </trkpt>
      <trkpt lat="43.60138" lon="1.16102">
        <ele>295.26</ele>
        <time>2021-08-18T13:54:53Z</time>
      </trkpt>
      <trkpt lat="43.60146" lon="1.16074">
        <ele>295.26</ele>
        <time>2021-08-18T13:54:59Z</time>
      </trkpt>
      <trkpt lat="43.60163" lon="1.16026">
        <ele>293.82</ele>
        <time>2021-08-18T13:55:07Z</time>
      </trkpt>
      <trkpt lat="43.6018" lon="1.15987">
        <ele>293.82</ele>
        <time>2021-08-18T13:55:14Z</time>
      </trkpt>
      <trkpt lat="43.60182" lon="1.15981">
        <ele>293.82</ele>
        <time>2021-08-18T13:55:15Z</time>
      </trkpt>
      <trkpt lat="43.60192" lon="1.15958">
        <ele>293.82</ele>
        <time>2021-08-18T13:55:19Z</time>
      </trkpt>
      <trkpt lat="43.60194" lon="1.15954">
        <ele>293.82</ele>
        <time>2021-08-18T13:55:20Z</time>
      </trkpt>
      <trkpt lat="43.60194" lon="1.15952">
        <ele>293.82</ele>
        <time>2021-08-18T13:55:21Z</time>
      </trkpt>
      <trkpt lat="43.60193" lon="1.15951">
        <ele>293.82</ele>
        <time>2021-08-18T13:55:22Z</time>
      </trkpt>
      <trkpt lat="43.60193" lon="1.15951">
        <ele>293.82</ele>
        <time>2021-08-18T13:55:23Z</time>
      </trkpt>
      <trkpt lat="43.60192" lon="1.15953">
        <ele>293.82</ele>
        <time>2021-08-18T13:55:24Z</time>
      </trkpt>
      <trkpt lat="43.60192" lon="1.15955">
        <ele>293.82</ele>
        <time>2021-08-18T13:55:25Z</time>
      </trkpt>
      <trkpt lat="43.60191" lon="1.15957">
        <ele>293.82</ele>
        <time>2021-08-18T13:55:26Z</time>
      </trkpt>
      <trkpt lat="43.60191" lon="1.15959">
        <ele>293.82</ele>
        <time>2021-08-18T13:55:27Z</time>
      </trkpt>
      <trkpt lat="43.60189" lon="1.1596">
        <ele>293.82</ele>
        <time>2021-08-18T13:55:28Z</time>
      </trkpt>
      <trkpt lat="43.60185" lon="1.15955">
        <ele>294.3</ele>
        <time>2021-08-18T13:55:31Z</time>
      </trkpt>
      <trkpt lat="43.60178" lon="1.15932">
        <ele>292.86</ele>
        <time>2021-08-18T13:55:37Z</time>
      </trkpt>
      <trkpt lat="43.60175" lon="1.159">
        <ele>292.38</ele>
        <time>2021-08-18T13:55:43Z</time>
      </trkpt>
      <trkpt lat="43.60175" lon="1.15893">
        <ele>291.9</ele>
        <time>2021-08-18T13:55:44Z</time>
      </trkpt>
      <trkpt lat="43.60175" lon="1.15887">
        <ele>291.9</ele>
        <time>2021-08-18T13:55:45Z</time>
      </trkpt>
      <trkpt lat="43.60176" lon="1.1588">
        <ele>291.9</ele>
        <time>2021-08-18T13:55:46Z</time>
      </trkpt>
      <trkpt lat="43.60176" lon="1.15874">
        <ele>291.9</ele>
        <time>2021-08-18T13:55:47Z</time>
      </trkpt>
      <trkpt lat="43.60177" lon="1.15867">
        <ele>291.9</ele>
        <time>2021-08-18T13:55:48Z</time>
      </trkpt>
      <trkpt lat="43.60177" lon="1.15861">
        <ele>291.9</ele>
        <time>2021-08-18T13:55:49Z</time>
      </trkpt>
      <trkpt lat="43.60177" lon="1.15855">
        <ele>291.9</ele>
        <time>2021-08-18T13:55:50Z</time>
      </trkpt>
      <trkpt lat="43.60175" lon="1.1585">
        <ele>291.9</ele>
        <time>2021-08-18T13:55:51Z</time>
      </trkpt>
      <trkpt lat="43.60174" lon="1.15845">
        <ele>291.42</ele>
        <time>2021-08-18T13:55:52Z</time>
      </trkpt>
      <trkpt lat="43.60172" lon="1.1584">
        <ele>290.94</ele>
        <time>2021-08-18T13:55:53Z</time>
      </trkpt>
      <trkpt lat="43.60169" lon="1.15834">
        <ele>289.97</ele>
        <time>2021-08-18T13:55:54Z</time>
      </trkpt>
      <trkpt lat="43.60168" lon="1.15826">
        <ele>289.49</ele>
        <time>2021-08-18T13:55:55Z</time>
      </trkpt>
      <trkpt lat="43.60168" lon="1.15819">
        <ele>289.49</ele>
        <time>2021-08-18T13:55:56Z</time>
      </trkpt>
      <trkpt lat="43.60168" lon="1.15811">
        <ele>289.01</ele>
        <time>2021-08-18T13:55:57Z</time>
      </trkpt>
      <trkpt lat="43.6017" lon="1.15804">
        <ele>289.01</ele>
        <time>2021-08-18T13:55:58Z</time>
      </trkpt>
      <trkpt lat="43.6017" lon="1.15799">
        <ele>289.01</ele>
        <time>2021-08-18T13:55:59Z</time>
      </trkpt>
      <trkpt lat="43.60169" lon="1.15794">
        <ele>289.01</ele>
        <time>2021-08-18T13:56:00Z</time>
      </trkpt>
      <trkpt lat="43.60167" lon="1.15789">
        <ele>289.01</ele>
        <time>2021-08-18T13:56:01Z</time>
      </trkpt>
      <trkpt lat="43.60164" lon="1.15784">
        <ele>289.01</ele>
        <time>2021-08-18T13:56:02Z</time>
      </trkpt>
      <trkpt lat="43.60159" lon="1.15778">
        <ele>287.57</ele>
        <time>2021-08-18T13:56:03Z</time>
      </trkpt>
      <trkpt lat="43.60153" lon="1.15772">
        <ele>287.09</ele>
        <time>2021-08-18T13:56:04Z</time>
      </trkpt>
      <trkpt lat="43.60149" lon="1.15765">
        <ele>286.13</ele>
        <time>2021-08-18T13:56:05Z</time>
      </trkpt>
      <trkpt lat="43.60144" lon="1.15758">
        <ele>286.13</ele>
        <time>2021-08-18T13:56:06Z</time>
      </trkpt>
      <trkpt lat="43.60141" lon="1.15752">
        <ele>286.13</ele>
        <time>2021-08-18T13:56:07Z</time>
      </trkpt>
      <trkpt lat="43.60137" lon="1.15745">
        <ele>286.13</ele>
        <time>2021-08-18T13:56:08Z</time>
      </trkpt>
      <trkpt lat="43.6012" lon="1.15725">
        <ele>288.05</ele>
        <time>2021-08-18T13:56:13Z</time>
      </trkpt>
      <trkpt lat="43.60112" lon="1.15712">
        <ele>289.97</ele>
        <time>2021-08-18T13:56:18Z</time>
      </trkpt>
      <trkpt lat="43.60099" lon="1.15697">
        <ele>290.94</ele>
        <time>2021-08-18T13:56:25Z</time>
      </trkpt>
      <trkpt lat="43.60086" lon="1.1568">
        <ele>291.9</ele>
        <time>2021-08-18T13:56:32Z</time>
      </trkpt>
      <trkpt lat="43.60078" lon="1.1566">
        <ele>292.86</ele>
        <time>2021-08-18T13:56:38Z</time>
      </trkpt>
      <trkpt lat="43.60068" lon="1.15641">
        <ele>292.86</ele>
        <time>2021-08-18T13:56:43Z</time>
      </trkpt>
      <trkpt lat="43.60066" lon="1.15617">
        <ele>291.42</ele>
        <time>2021-08-18T13:56:48Z</time>
      </trkpt>
      <trkpt lat="43.60066" lon="1.15589">
        <ele>291.42</ele>
        <time>2021-08-18T13:56:55Z</time>
      </trkpt>
      <trkpt lat="43.60065" lon="1.15579">
        <ele>291.42</ele>
        <time>2021-08-18T13:56:57Z</time>
      </trkpt>
      <trkpt lat="43.60063" lon="1.15576">
        <ele>291.42</ele>
        <time>2021-08-18T13:56:58Z</time>
      </trkpt>
      <trkpt lat="43.60059" lon="1.15573">
        <ele>291.42</ele>
        <time>2021-08-18T13:56:59Z</time>
      </trkpt>
      <trkpt lat="43.60055" lon="1.1557">
        <ele>290.94</ele>
        <time>2021-08-18T13:57:00Z</time>
      </trkpt>
      <trkpt lat="43.6005" lon="1.15566">
        <ele>289.97</ele>
        <time>2021-08-18T13:57:01Z</time>
      </trkpt>
      <trkpt lat="43.60046" lon="1.15561">
        <ele>289.49</ele>
        <time>2021-08-18T13:57:02Z</time>
      </trkpt>
      <trkpt lat="43.60042" lon="1.15556">
        <ele>289.01</ele>
        <time>2021-08-18T13:57:03Z</time>
      </trkpt>
      <trkpt lat="43.60037" lon="1.15554">
        <ele>289.01</ele>
        <time>2021-08-18T13:57:04Z</time>
      </trkpt>
      <trkpt lat="43.60033" lon="1.15553">
        <ele>288.53</ele>
        <time>2021-08-18T13:57:05Z</time>
      </trkpt>
      <trkpt lat="43.60028" lon="1.15552">
        <ele>288.05</ele>
        <time>2021-08-18T13:57:06Z</time>
      </trkpt>
      <trkpt lat="43.60023" lon="1.1555">
        <ele>287.09</ele>
        <time>2021-08-18T13:57:07Z</time>
      </trkpt>
      <trkpt lat="43.60018" lon="1.15548">
        <ele>286.61</ele>
        <time>2021-08-18T13:57:08Z</time>
      </trkpt>
      <trkpt lat="43.60015" lon="1.15543">
        <ele>286.13</ele>
        <time>2021-08-18T13:57:09Z</time>
      </trkpt>
      <trkpt lat="43.60013" lon="1.15538">
        <ele>286.13</ele>
        <time>2021-08-18T13:57:10Z</time>
      </trkpt>
      <trkpt lat="43.6001" lon="1.15533">
        <ele>285.17</ele>
        <time>2021-08-18T13:57:11Z</time>
      </trkpt>
      <trkpt lat="43.60006" lon="1.15529">
        <ele>284.21</ele>
        <time>2021-08-18T13:57:12Z</time>
      </trkpt>
      <trkpt lat="43.6" lon="1.15527">
        <ele>282.77</ele>
        <time>2021-08-18T13:57:13Z</time>
      </trkpt>
      <trkpt lat="43.59994" lon="1.15528">
        <ele>281.8</ele>
        <time>2021-08-18T13:57:14Z</time>
      </trkpt>
      <trkpt lat="43.59987" lon="1.15529">
        <ele>280.84</ele>
        <time>2021-08-18T13:57:15Z</time>
      </trkpt>
      <trkpt lat="43.59981" lon="1.15529">
        <ele>279.88</ele>
        <time>2021-08-18T13:57:16Z</time>
      </trkpt>
      <trkpt lat="43.59974" lon="1.15528">
        <ele>278.92</ele>
        <time>2021-08-18T13:57:17Z</time>
      </trkpt>
      <trkpt lat="43.59967" lon="1.15526">
        <ele>277.96</ele>
        <time>2021-08-18T13:57:18Z</time>
      </trkpt>
      <trkpt lat="43.5996" lon="1.15525">
        <ele>277.48</ele>
        <time>2021-08-18T13:57:19Z</time>
      </trkpt>
      <trkpt lat="43.59953" lon="1.15523">
        <ele>276.52</ele>
        <time>2021-08-18T13:57:20Z</time>
      </trkpt>
      <trkpt lat="43.59939" lon="1.15519">
        <ele>275.56</ele>
        <time>2021-08-18T13:57:22Z</time>
      </trkpt>
      <trkpt lat="43.59933" lon="1.15517">
        <ele>275.56</ele>
        <time>2021-08-18T13:57:23Z</time>
      </trkpt>
      <trkpt lat="43.5992" lon="1.15515">
        <ele>275.56</ele>
        <time>2021-08-18T13:57:25Z</time>
      </trkpt>
      <trkpt lat="43.59916" lon="1.15512">
        <ele>275.56</ele>
        <time>2021-08-18T13:57:26Z</time>
      </trkpt>
      <trkpt lat="43.59911" lon="1.15507">
        <ele>275.56</ele>
        <time>2021-08-18T13:57:27Z</time>
      </trkpt>
      <trkpt lat="43.59907" lon="1.15502">
        <ele>275.56</ele>
        <time>2021-08-18T13:57:28Z</time>
      </trkpt>
      <trkpt lat="43.59903" lon="1.15498">
        <ele>275.07</ele>
        <time>2021-08-18T13:57:29Z</time>
      </trkpt>
      <trkpt lat="43.599" lon="1.15494">
        <ele>275.07</ele>
        <time>2021-08-18T13:57:30Z</time>
      </trkpt>
      <trkpt lat="43.59897" lon="1.1549">
        <ele>275.07</ele>
        <time>2021-08-18T13:57:31Z</time>
      </trkpt>
      <trkpt lat="43.59895" lon="1.15488">
        <ele>276.52</ele>
        <time>2021-08-18T13:57:32Z</time>
      </trkpt>
      <trkpt lat="43.59889" lon="1.15481">
        <ele>278.44</ele>
        <time>2021-08-18T13:57:38Z</time>
      </trkpt>
      <trkpt lat="43.59885" lon="1.15477">
        <ele>278.44</ele>
        <time>2021-08-18T13:57:41Z</time>
      </trkpt>
      <trkpt lat="43.59884" lon="1.15475">
        <ele>278.92</ele>
        <time>2021-08-18T13:57:42Z</time>
      </trkpt>
      <trkpt lat="43.59883" lon="1.15474">
        <ele>278.92</ele>
        <time>2021-08-18T13:57:43Z</time>
      </trkpt>
      <trkpt lat="43.59881" lon="1.15472">
        <ele>278.92</ele>
        <time>2021-08-18T13:57:44Z</time>
      </trkpt>
      <trkpt lat="43.59881" lon="1.15469">
        <ele>279.4</ele>
        <time>2021-08-18T13:57:45Z</time>
      </trkpt>
      <trkpt lat="43.59875" lon="1.15456">
        <ele>279.88</ele>
        <time>2021-08-18T13:57:50Z</time>
      </trkpt>
      <trkpt lat="43.59874" lon="1.15453">
        <ele>279.88</ele>
        <time>2021-08-18T13:57:51Z</time>
      </trkpt>
      <trkpt lat="43.59873" lon="1.15451">
        <ele>280.36</ele>
        <time>2021-08-18T13:57:52Z</time>
      </trkpt>
      <trkpt lat="43.59871" lon="1.1545">
        <ele>280.36</ele>
        <time>2021-08-18T13:57:53Z</time>
      </trkpt>
      <trkpt lat="43.5987" lon="1.15448">
        <ele>280.84</ele>
        <time>2021-08-18T13:57:54Z</time>
      </trkpt>
      <trkpt lat="43.59862" lon="1.15434">
        <ele>281.32</ele>
        <time>2021-08-18T13:58:00Z</time>
      </trkpt>
      <trkpt lat="43.59858" lon="1.15428">
        <ele>281.8</ele>
        <time>2021-08-18T13:58:03Z</time>
      </trkpt>
      <trkpt lat="43.59848" lon="1.15416">
        <ele>283.25</ele>
        <time>2021-08-18T13:58:10Z</time>
      </trkpt>
      <trkpt lat="43.59847" lon="1.15414">
        <ele>283.73</ele>
        <time>2021-08-18T13:58:11Z</time>
      </trkpt>
      <trkpt lat="43.59845" lon="1.15412">
        <ele>283.73</ele>
        <time>2021-08-18T13:58:12Z</time>
      </trkpt>
      <trkpt lat="43.59844" lon="1.15411">
        <ele>283.73</ele>
        <time>2021-08-18T13:58:13Z</time>
      </trkpt>
      <trkpt lat="43.59842" lon="1.15409">
        <ele>283.73</ele>
        <time>2021-08-18T13:58:14Z</time>
      </trkpt>
      <trkpt lat="43.59841" lon="1.15407">
        <ele>284.69</ele>
        <time>2021-08-18T13:58:15Z</time>
      </trkpt>
      <trkpt lat="43.59839" lon="1.15405">
        <ele>284.69</ele>
        <time>2021-08-18T13:58:16Z</time>
      </trkpt>
      <trkpt lat="43.59838" lon="1.15403">
        <ele>284.69</ele>
        <time>2021-08-18T13:58:17Z</time>
      </trkpt>
      <trkpt lat="43.59837" lon="1.15401">
        <ele>284.69</ele>
        <time>2021-08-18T13:58:18Z</time>
      </trkpt>
      <trkpt lat="43.59834" lon="1.15395">
        <ele>285.65</ele>
        <time>2021-08-18T13:58:21Z</time>
      </trkpt>
      <trkpt lat="43.59832" lon="1.15378">
        <ele>286.13</ele>
        <time>2021-08-18T13:58:28Z</time>
      </trkpt>
      <trkpt lat="43.59832" lon="1.15375">
        <ele>286.13</ele>
        <time>2021-08-18T13:58:29Z</time>
      </trkpt>
      <trkpt lat="43.59831" lon="1.15372">
        <ele>286.13</ele>
        <time>2021-08-18T13:58:30Z</time>
      </trkpt>
      <trkpt lat="43.5983" lon="1.15369">
        <ele>286.13</ele>
        <time>2021-08-18T13:58:31Z</time>
      </trkpt>
      <trkpt lat="43.59829" lon="1.15366">
        <ele>286.13</ele>
        <time>2021-08-18T13:58:32Z</time>
      </trkpt>
      <trkpt lat="43.59828" lon="1.15362">
        <ele>287.09</ele>
        <time>2021-08-18T13:58:33Z</time>
      </trkpt>
      <trkpt lat="43.59823" lon="1.15353">
        <ele>288.05</ele>
        <time>2021-08-18T13:58:39Z</time>
      </trkpt>
      <trkpt lat="43.59816" lon="1.15343">
        <ele>289.49</ele>
        <time>2021-08-18T13:58:47Z</time>
      </trkpt>
      <trkpt lat="43.59812" lon="1.1534">
        <ele>289.97</ele>
        <time>2021-08-18T13:58:52Z</time>
      </trkpt>
      <trkpt lat="43.59806" lon="1.15334">
        <ele>292.38</ele>
        <time>2021-08-18T13:59:00Z</time>
      </trkpt>
      <trkpt lat="43.59799" lon="1.15324">
        <ele>293.82</ele>
        <time>2021-08-18T13:59:09Z</time>
      </trkpt>
      <trkpt lat="43.59792" lon="1.15311">
        <ele>294.78</ele>
        <time>2021-08-18T13:59:19Z</time>
      </trkpt>
      <trkpt lat="43.5979" lon="1.15306">
        <ele>295.74</ele>
        <time>2021-08-18T13:59:22Z</time>
      </trkpt>
      <trkpt lat="43.59789" lon="1.15301">
        <ele>296.22</ele>
        <time>2021-08-18T13:59:25Z</time>
      </trkpt>
      <trkpt lat="43.59789" lon="1.15298">
        <ele>296.22</ele>
        <time>2021-08-18T13:59:26Z</time>
      </trkpt>
      <trkpt lat="43.59786" lon="1.15291">
        <ele>296.7</ele>
        <time>2021-08-18T13:59:33Z</time>
      </trkpt>
      <trkpt lat="43.59786" lon="1.15287">
        <ele>296.7</ele>
        <time>2021-08-18T13:59:36Z</time>
      </trkpt>
      <trkpt lat="43.59786" lon="1.15284">
        <ele>296.7</ele>
        <time>2021-08-18T13:59:38Z</time>
      </trkpt>
      <trkpt lat="43.59785" lon="1.15282">
        <ele>296.7</ele>
        <time>2021-08-18T13:59:39Z</time>
      </trkpt>
      <trkpt lat="43.59785" lon="1.1528">
        <ele>296.7</ele>
        <time>2021-08-18T13:59:40Z</time>
      </trkpt>
      <trkpt lat="43.59785" lon="1.15278">
        <ele>296.7</ele>
        <time>2021-08-18T13:59:41Z</time>
      </trkpt>
      <trkpt lat="43.59785" lon="1.15258">
        <ele>297.18</ele>
        <time>2021-08-18T13:59:48Z</time>
      </trkpt>
      <trkpt lat="43.59791" lon="1.15225">
        <ele>298.63</ele>
        <time>2021-08-18T13:59:57Z</time>
      </trkpt>
      <trkpt lat="43.59795" lon="1.15208">
        <ele>299.59</ele>
        <time>2021-08-18T14:00:02Z</time>
      </trkpt>
      <trkpt lat="43.59794" lon="1.15205">
        <ele>299.59</ele>
        <time>2021-08-18T14:00:03Z</time>
      </trkpt>
      <trkpt lat="43.59792" lon="1.15203">
        <ele>300.07</ele>
        <time>2021-08-18T14:00:04Z</time>
      </trkpt>
      <trkpt lat="43.5979" lon="1.15202">
        <ele>300.07</ele>
        <time>2021-08-18T14:00:05Z</time>
      </trkpt>
      <trkpt lat="43.59788" lon="1.152">
        <ele>300.07</ele>
        <time>2021-08-18T14:00:06Z</time>
      </trkpt>
      <trkpt lat="43.59786" lon="1.15199">
        <ele>300.07</ele>
        <time>2021-08-18T14:00:07Z</time>
      </trkpt>
      <trkpt lat="43.59785" lon="1.15198">
        <ele>300.55</ele>
        <time>2021-08-18T14:00:08Z</time>
      </trkpt>
      <trkpt lat="43.59769" lon="1.1519">
        <ele>302.95</ele>
        <time>2021-08-18T14:00:17Z</time>
      </trkpt>
      <trkpt lat="43.5975" lon="1.15182">
        <ele>303.91</ele>
        <time>2021-08-18T14:00:26Z</time>
      </trkpt>
      <trkpt lat="43.59728" lon="1.15174">
        <ele>304.39</ele>
        <time>2021-08-18T14:00:34Z</time>
      </trkpt>
      <trkpt lat="43.59702" lon="1.15164">
        <ele>304.88</ele>
        <time>2021-08-18T14:00:41Z</time>
      </trkpt>
      <trkpt lat="43.59678" lon="1.15156">
        <ele>304.88</ele>
        <time>2021-08-18T14:00:48Z</time>
      </trkpt>
      <trkpt lat="43.5967" lon="1.15153">
        <ele>304.88</ele>
        <time>2021-08-18T14:00:50Z</time>
      </trkpt>
      <trkpt lat="43.59666" lon="1.15151">
        <ele>304.88</ele>
        <time>2021-08-18T14:00:51Z</time>
      </trkpt>
      <trkpt lat="43.59662" lon="1.1515">
        <ele>303.43</ele>
        <time>2021-08-18T14:00:52Z</time>
      </trkpt>
      <trkpt lat="43.59657" lon="1.15149">
        <ele>302.95</ele>
        <time>2021-08-18T14:00:53Z</time>
      </trkpt>
      <trkpt lat="43.59652" lon="1.15147">
        <ele>302.95</ele>
        <time>2021-08-18T14:00:54Z</time>
      </trkpt>
      <trkpt lat="43.59646" lon="1.15145">
        <ele>302.47</ele>
        <time>2021-08-18T14:00:55Z</time>
      </trkpt>
      <trkpt lat="43.59642" lon="1.15143">
        <ele>302.47</ele>
        <time>2021-08-18T14:00:56Z</time>
      </trkpt>
      <trkpt lat="43.59603" lon="1.15126">
        <ele>300.07</ele>
        <time>2021-08-18T14:01:03Z</time>
      </trkpt>
      <trkpt lat="43.59587" lon="1.15119">
        <ele>300.07</ele>
        <time>2021-08-18T14:01:06Z</time>
      </trkpt>
      <trkpt lat="43.59582" lon="1.15119">
        <ele>300.07</ele>
        <time>2021-08-18T14:01:07Z</time>
      </trkpt>
      <trkpt lat="43.59573" lon="1.15118">
        <ele>300.55</ele>
        <time>2021-08-18T14:01:09Z</time>
      </trkpt>
      <trkpt lat="43.59569" lon="1.15117">
        <ele>300.55</ele>
        <time>2021-08-18T14:01:10Z</time>
      </trkpt>
      <trkpt lat="43.59552" lon="1.15108">
        <ele>301.51</ele>
        <time>2021-08-18T14:01:16Z</time>
      </trkpt>
      <trkpt lat="43.59532" lon="1.15098">
        <ele>302.47</ele>
        <time>2021-08-18T14:01:23Z</time>
      </trkpt>
      <trkpt lat="43.59508" lon="1.15088">
        <ele>303.91</ele>
        <time>2021-08-18T14:01:32Z</time>
      </trkpt>
      <trkpt lat="43.59489" lon="1.1508">
        <ele>305.36</ele>
        <time>2021-08-18T14:01:40Z</time>
      </trkpt>
      <trkpt lat="43.59467" lon="1.15071">
        <ele>306.32</ele>
        <time>2021-08-18T14:01:50Z</time>
      </trkpt>
      <trkpt lat="43.59444" lon="1.15064">
        <ele>306.8</ele>
        <time>2021-08-18T14:01:57Z</time>
      </trkpt>
      <trkpt lat="43.59431" lon="1.15048">
        <ele>306.8</ele>
        <time>2021-08-18T14:02:03Z</time>
      </trkpt>
      <trkpt lat="43.5943" lon="1.15044">
        <ele>306.8</ele>
        <time>2021-08-18T14:02:04Z</time>
      </trkpt>
      <trkpt lat="43.59428" lon="1.15041">
        <ele>306.8</ele>
        <time>2021-08-18T14:02:05Z</time>
      </trkpt>
      <trkpt lat="43.59425" lon="1.15039">
        <ele>306.8</ele>
        <time>2021-08-18T14:02:06Z</time>
      </trkpt>
      <trkpt lat="43.59423" lon="1.15039">
        <ele>306.8</ele>
        <time>2021-08-18T14:02:07Z</time>
      </trkpt>
      <trkpt lat="43.59421" lon="1.15041">
        <ele>306.8</ele>
        <time>2021-08-18T14:02:08Z</time>
      </trkpt>
      <trkpt lat="43.59419" lon="1.15045">
        <ele>306.8</ele>
        <time>2021-08-18T14:02:09Z</time>
      </trkpt>
      <trkpt lat="43.59419" lon="1.15048">
        <ele>306.8</ele>
        <time>2021-08-18T14:02:10Z</time>
      </trkpt>
      <trkpt lat="43.59419" lon="1.15052">
        <ele>306.8</ele>
        <time>2021-08-18T14:02:11Z</time>
      </trkpt>
      <trkpt lat="43.59419" lon="1.15057">
        <ele>306.8</ele>
        <time>2021-08-18T14:02:12Z</time>
      </trkpt>
      <trkpt lat="43.59418" lon="1.15102">
        <ele>306.8</ele>
        <time>2021-08-18T14:02:20Z</time>
      </trkpt>
      <trkpt lat="43.59417" lon="1.15157">
        <ele>304.39</ele>
        <time>2021-08-18T14:02:28Z</time>
      </trkpt>
      <trkpt lat="43.59419" lon="1.15209">
        <ele>303.91</ele>
        <time>2021-08-18T14:02:35Z</time>
      </trkpt>
      <trkpt lat="43.59417" lon="1.15215">
        <ele>303.91</ele>
        <time>2021-08-18T14:02:36Z</time>
      </trkpt>
      <trkpt lat="43.59413" lon="1.15219">
        <ele>303.43</ele>
        <time>2021-08-18T14:02:37Z</time>
      </trkpt>
      <trkpt lat="43.59409" lon="1.1522">
        <ele>302.95</ele>
        <time>2021-08-18T14:02:38Z</time>
      </trkpt>
      <trkpt lat="43.59404" lon="1.15219">
        <ele>302.47</ele>
        <time>2021-08-18T14:02:39Z</time>
      </trkpt>
      <trkpt lat="43.59398" lon="1.15217">
        <ele>301.51</ele>
        <time>2021-08-18T14:02:40Z</time>
      </trkpt>
      <trkpt lat="43.59392" lon="1.15215">
        <ele>300.55</ele>
        <time>2021-08-18T14:02:41Z</time>
      </trkpt>
      <trkpt lat="43.59357" lon="1.15204">
        <ele>298.15</ele>
        <time>2021-08-18T14:02:46Z</time>
      </trkpt>
      <trkpt lat="43.59284" lon="1.1518">
        <ele>297.18</ele>
        <time>2021-08-18T14:02:56Z</time>
      </trkpt>
      <trkpt lat="43.59252" lon="1.15171">
        <ele>298.15</ele>
        <time>2021-08-18T14:03:02Z</time>
      </trkpt>
      <trkpt lat="43.59248" lon="1.1517">
        <ele>298.15</ele>
        <time>2021-08-18T14:03:03Z</time>
      </trkpt>
      <trkpt lat="43.59216" lon="1.15156">
        <ele>299.59</ele>
        <time>2021-08-18T14:03:11Z</time>
      </trkpt>
      <trkpt lat="43.59192" lon="1.15145">
        <ele>303.43</ele>
        <time>2021-08-18T14:03:17Z</time>
      </trkpt>
      <trkpt lat="43.59189" lon="1.15144">
        <ele>302.95</ele>
        <time>2021-08-18T14:03:18Z</time>
      </trkpt>
      <trkpt lat="43.59161" lon="1.15134">
        <ele>304.39</ele>
        <time>2021-08-18T14:03:27Z</time>
      </trkpt>
      <trkpt lat="43.59133" lon="1.1512">
        <ele>304.88</ele>
        <time>2021-08-18T14:03:35Z</time>
      </trkpt>
      <trkpt lat="43.59117" lon="1.15114">
        <ele>303.43</ele>
        <time>2021-08-18T14:03:39Z</time>
      </trkpt>
      <trkpt lat="43.59102" lon="1.15104">
        <ele>303.43</ele>
        <time>2021-08-18T14:03:44Z</time>
      </trkpt>
      <trkpt lat="43.591" lon="1.15105">
        <ele>303.43</ele>
        <time>2021-08-18T14:03:45Z</time>
      </trkpt>
      <trkpt lat="43.59097" lon="1.15105">
        <ele>303.43</ele>
        <time>2021-08-18T14:03:46Z</time>
      </trkpt>
      <trkpt lat="43.59093" lon="1.15106">
        <ele>303.43</ele>
        <time>2021-08-18T14:03:47Z</time>
      </trkpt>
      <trkpt lat="43.5909" lon="1.15106">
        <ele>303.43</ele>
        <time>2021-08-18T14:03:48Z</time>
      </trkpt>
      <trkpt lat="43.59086" lon="1.15105">
        <ele>303.43</ele>
        <time>2021-08-18T14:03:49Z</time>
      </trkpt>
      <trkpt lat="43.59083" lon="1.15103">
        <ele>303.43</ele>
        <time>2021-08-18T14:03:50Z</time>
      </trkpt>
      <trkpt lat="43.59079" lon="1.15101">
        <ele>303.43</ele>
        <time>2021-08-18T14:03:51Z</time>
      </trkpt>
      <trkpt lat="43.59062" lon="1.15094">
        <ele>304.39</ele>
        <time>2021-08-18T14:03:56Z</time>
      </trkpt>
      <trkpt lat="43.59048" lon="1.1508">
        <ele>306.32</ele>
        <time>2021-08-18T14:04:03Z</time>
      </trkpt>
      <trkpt lat="43.59049" lon="1.15076">
        <ele>306.32</ele>
        <time>2021-08-18T14:04:04Z</time>
      </trkpt>
      <trkpt lat="43.5905" lon="1.15073">
        <ele>306.8</ele>
        <time>2021-08-18T14:04:05Z</time>
      </trkpt>
      <trkpt lat="43.59062" lon="1.15028">
        <ele>307.28</ele>
        <time>2021-08-18T14:04:14Z</time>
      </trkpt>
      <trkpt lat="43.59078" lon="1.1497">
        <ele>307.28</ele>
        <time>2021-08-18T14:04:25Z</time>
      </trkpt>
      <trkpt lat="43.59093" lon="1.14914">
        <ele>308.72</ele>
        <time>2021-08-18T14:04:36Z</time>
      </trkpt>
      <trkpt lat="43.59107" lon="1.14871">
        <ele>307.28</ele>
        <time>2021-08-18T14:04:44Z</time>
      </trkpt>
      <trkpt lat="43.59109" lon="1.14865">
        <ele>307.28</ele>
        <time>2021-08-18T14:04:45Z</time>
      </trkpt>
      <trkpt lat="43.59131" lon="1.14806">
        <ele>304.39</ele>
        <time>2021-08-18T14:04:53Z</time>
      </trkpt>
      <trkpt lat="43.59146" lon="1.1476">
        <ele>301.03</ele>
        <time>2021-08-18T14:04:58Z</time>
      </trkpt>
      <trkpt lat="43.59149" lon="1.14748">
        <ele>300.07</ele>
        <time>2021-08-18T14:04:59Z</time>
      </trkpt>
      <trkpt lat="43.59155" lon="1.14724">
        <ele>297.18</ele>
        <time>2021-08-18T14:05:01Z</time>
      </trkpt>
      <trkpt lat="43.59158" lon="1.14681">
        <ele>292.86</ele>
        <time>2021-08-18T14:05:04Z</time>
      </trkpt>
      <trkpt lat="43.59155" lon="1.14665">
        <ele>291.9</ele>
        <time>2021-08-18T14:05:05Z</time>
      </trkpt>
      <trkpt lat="43.59151" lon="1.14649">
        <ele>290.46</ele>
        <time>2021-08-18T14:05:06Z</time>
      </trkpt>
      <trkpt lat="43.59146" lon="1.14634">
        <ele>288.53</ele>
        <time>2021-08-18T14:05:07Z</time>
      </trkpt>
      <trkpt lat="43.5914" lon="1.14618">
        <ele>287.57</ele>
        <time>2021-08-18T14:05:08Z</time>
      </trkpt>
      <trkpt lat="43.59128" lon="1.14583">
        <ele>284.21</ele>
        <time>2021-08-18T14:05:10Z</time>
      </trkpt>
      <trkpt lat="43.5912" lon="1.14553">
        <ele>282.28</ele>
        <time>2021-08-18T14:05:12Z</time>
      </trkpt>
      <trkpt lat="43.59118" lon="1.14538">
        <ele>281.8</ele>
        <time>2021-08-18T14:05:13Z</time>
      </trkpt>
      <trkpt lat="43.59117" lon="1.14522">
        <ele>280.84</ele>
        <time>2021-08-18T14:05:14Z</time>
      </trkpt>
      <trkpt lat="43.59119" lon="1.14509">
        <ele>279.88</ele>
        <time>2021-08-18T14:05:15Z</time>
      </trkpt>
      <trkpt lat="43.59122" lon="1.14498">
        <ele>278.92</ele>
        <time>2021-08-18T14:05:16Z</time>
      </trkpt>
      <trkpt lat="43.59128" lon="1.14489">
        <ele>278.44</ele>
        <time>2021-08-18T14:05:17Z</time>
      </trkpt>
      <trkpt lat="43.59135" lon="1.14483">
        <ele>277</ele>
        <time>2021-08-18T14:05:18Z</time>
      </trkpt>
      <trkpt lat="43.59144" lon="1.1448">
        <ele>276.04</ele>
        <time>2021-08-18T14:05:19Z</time>
      </trkpt>
      <trkpt lat="43.59152" lon="1.14481">
        <ele>275.56</ele>
        <time>2021-08-18T14:05:20Z</time>
      </trkpt>
      <trkpt lat="43.59161" lon="1.14484">
        <ele>275.56</ele>
        <time>2021-08-18T14:05:21Z</time>
      </trkpt>
      <trkpt lat="43.5917" lon="1.14488">
        <ele>274.59</ele>
        <time>2021-08-18T14:05:22Z</time>
      </trkpt>
      <trkpt lat="43.59178" lon="1.14493">
        <ele>274.11</ele>
        <time>2021-08-18T14:05:23Z</time>
      </trkpt>
      <trkpt lat="43.59195" lon="1.145">
        <ele>273.63</ele>
        <time>2021-08-18T14:05:25Z</time>
      </trkpt>
      <trkpt lat="43.59205" lon="1.145">
        <ele>272.19</ele>
        <time>2021-08-18T14:05:26Z</time>
      </trkpt>
      <trkpt lat="43.59214" lon="1.14498">
        <ele>272.19</ele>
        <time>2021-08-18T14:05:27Z</time>
      </trkpt>
      <trkpt lat="43.59222" lon="1.14493">
        <ele>271.23</ele>
        <time>2021-08-18T14:05:28Z</time>
      </trkpt>
      <trkpt lat="43.5923" lon="1.14487">
        <ele>269.79</ele>
        <time>2021-08-18T14:05:29Z</time>
      </trkpt>
      <trkpt lat="43.59238" lon="1.1448">
        <ele>270.27</ele>
        <time>2021-08-18T14:05:30Z</time>
      </trkpt>
      <trkpt lat="43.59247" lon="1.14471">
        <ele>268.35</ele>
        <time>2021-08-18T14:05:31Z</time>
      </trkpt>
      <trkpt lat="43.59271" lon="1.14447">
        <ele>264.98</ele>
        <time>2021-08-18T14:05:34Z</time>
      </trkpt>
      <trkpt lat="43.59305" lon="1.14406">
        <ele>260.65</ele>
        <time>2021-08-18T14:05:38Z</time>
      </trkpt>
      <trkpt lat="43.5933" lon="1.14371">
        <ele>256.33</ele>
        <time>2021-08-18T14:05:41Z</time>
      </trkpt>
      <trkpt lat="43.59357" lon="1.14333">
        <ele>252</ele>
        <time>2021-08-18T14:05:44Z</time>
      </trkpt>
      <trkpt lat="43.59377" lon="1.14305">
        <ele>248.64</ele>
        <time>2021-08-18T14:05:46Z</time>
      </trkpt>
      <trkpt lat="43.59407" lon="1.14263">
        <ele>244.31</ele>
        <time>2021-08-18T14:05:49Z</time>
      </trkpt>
      <trkpt lat="43.59428" lon="1.14233">
        <ele>240.95</ele>
        <time>2021-08-18T14:05:51Z</time>
      </trkpt>
      <trkpt lat="43.59457" lon="1.14189">
        <ele>237.58</ele>
        <time>2021-08-18T14:05:54Z</time>
      </trkpt>
      <trkpt lat="43.59477" lon="1.14157">
        <ele>233.74</ele>
        <time>2021-08-18T14:05:56Z</time>
      </trkpt>
      <trkpt lat="43.59502" lon="1.14111">
        <ele>229.41</ele>
        <time>2021-08-18T14:05:59Z</time>
      </trkpt>
      <trkpt lat="43.59526" lon="1.14061">
        <ele>226.53</ele>
        <time>2021-08-18T14:06:02Z</time>
      </trkpt>
      <trkpt lat="43.59551" lon="1.1402">
        <ele>225.57</ele>
        <time>2021-08-18T14:06:05Z</time>
      </trkpt>
      <trkpt lat="43.5956" lon="1.1401">
        <ele>225.09</ele>
        <time>2021-08-18T14:06:06Z</time>
      </trkpt>
      <trkpt lat="43.59569" lon="1.14002">
        <ele>224.61</ele>
        <time>2021-08-18T14:06:07Z</time>
      </trkpt>
      <trkpt lat="43.59595" lon="1.13981">
        <ele>223.64</ele>
        <time>2021-08-18T14:06:11Z</time>
      </trkpt>
      <trkpt lat="43.59598" lon="1.13974">
        <ele>224.12</ele>
        <time>2021-08-18T14:06:12Z</time>
      </trkpt>
      <trkpt lat="43.59599" lon="1.13967">
        <ele>223.16</ele>
        <time>2021-08-18T14:06:13Z</time>
      </trkpt>
      <trkpt lat="43.59597" lon="1.13962">
        <ele>222.68</ele>
        <time>2021-08-18T14:06:14Z</time>
      </trkpt>
      <trkpt lat="43.59592" lon="1.13957">
        <ele>222.2</ele>
        <time>2021-08-18T14:06:15Z</time>
      </trkpt>
      <trkpt lat="43.59587" lon="1.13955">
        <ele>221.24</ele>
        <time>2021-08-18T14:06:16Z</time>
      </trkpt>
      <trkpt lat="43.5958" lon="1.13952">
        <ele>220.76</ele>
        <time>2021-08-18T14:06:17Z</time>
      </trkpt>
      <trkpt lat="43.59574" lon="1.13948">
        <ele>219.8</ele>
        <time>2021-08-18T14:06:18Z</time>
      </trkpt>
      <trkpt lat="43.5957" lon="1.13941">
        <ele>220.28</ele>
        <time>2021-08-18T14:06:19Z</time>
      </trkpt>
      <trkpt lat="43.59567" lon="1.13932">
        <ele>219.32</ele>
        <time>2021-08-18T14:06:20Z</time>
      </trkpt>
      <trkpt lat="43.59567" lon="1.13923">
        <ele>219.32</ele>
        <time>2021-08-18T14:06:21Z</time>
      </trkpt>
      <trkpt lat="43.5957" lon="1.13916">
        <ele>218.84</ele>
        <time>2021-08-18T14:06:22Z</time>
      </trkpt>
      <trkpt lat="43.59575" lon="1.1391">
        <ele>218.84</ele>
        <time>2021-08-18T14:06:23Z</time>
      </trkpt>
      <trkpt lat="43.59581" lon="1.13907">
        <ele>218.84</ele>
        <time>2021-08-18T14:06:24Z</time>
      </trkpt>
      <trkpt lat="43.59586" lon="1.13904">
        <ele>218.84</ele>
        <time>2021-08-18T14:06:25Z</time>
      </trkpt>
      <trkpt lat="43.5959" lon="1.13903">
        <ele>218.84</ele>
        <time>2021-08-18T14:06:26Z</time>
      </trkpt>
      <trkpt lat="43.59594" lon="1.13902">
        <ele>218.84</ele>
        <time>2021-08-18T14:06:27Z</time>
      </trkpt>
      <trkpt lat="43.59621" lon="1.13895">
        <ele>218.84</ele>
        <time>2021-08-18T14:06:33Z</time>
      </trkpt>
      <trkpt lat="43.59641" lon="1.13895">
        <ele>220.76</ele>
        <time>2021-08-18T14:06:40Z</time>
      </trkpt>
      <trkpt lat="43.59661" lon="1.139">
        <ele>221.72</ele>
        <time>2021-08-18T14:06:46Z</time>
      </trkpt>
      <trkpt lat="43.59683" lon="1.13907">
        <ele>223.64</ele>
        <time>2021-08-18T14:06:53Z</time>
      </trkpt>
      <trkpt lat="43.59703" lon="1.13912">
        <ele>223.64</ele>
        <time>2021-08-18T14:07:00Z</time>
      </trkpt>
      <trkpt lat="43.59735" lon="1.1392">
        <ele>224.12</ele>
        <time>2021-08-18T14:07:10Z</time>
      </trkpt>
      <trkpt lat="43.59772" lon="1.13923">
        <ele>225.57</ele>
        <time>2021-08-18T14:07:21Z</time>
      </trkpt>
      <trkpt lat="43.59803" lon="1.13919">
        <ele>226.05</ele>
        <time>2021-08-18T14:07:30Z</time>
      </trkpt>
      <trkpt lat="43.59827" lon="1.13915">
        <ele>226.53</ele>
        <time>2021-08-18T14:07:38Z</time>
      </trkpt>
      <trkpt lat="43.59848" lon="1.1391">
        <ele>227.97</ele>
        <time>2021-08-18T14:07:47Z</time>
      </trkpt>
      <trkpt lat="43.59869" lon="1.13906">
        <ele>229.89</ele>
        <time>2021-08-18T14:07:57Z</time>
      </trkpt>
      <trkpt lat="43.5989" lon="1.139">
        <ele>231.81</ele>
        <time>2021-08-18T14:08:07Z</time>
      </trkpt>
      <trkpt lat="43.59903" lon="1.13892">
        <ele>232.78</ele>
        <time>2021-08-18T14:08:14Z</time>
      </trkpt>
      <trkpt lat="43.59913" lon="1.13876">
        <ele>235.18</ele>
        <time>2021-08-18T14:08:22Z</time>
      </trkpt>
      <trkpt lat="43.59918" lon="1.13852">
        <ele>237.58</ele>
        <time>2021-08-18T14:08:31Z</time>
      </trkpt>
      <trkpt lat="43.59918" lon="1.13829">
        <ele>239.02</ele>
        <time>2021-08-18T14:08:40Z</time>
      </trkpt>
      <trkpt lat="43.59918" lon="1.13818">
        <ele>240.47</ele>
        <time>2021-08-18T14:08:45Z</time>
      </trkpt>
      <trkpt lat="43.59918" lon="1.13816">
        <ele>240.47</ele>
        <time>2021-08-18T14:08:46Z</time>
      </trkpt>
      <trkpt lat="43.59916" lon="1.13803">
        <ele>241.43</ele>
        <time>2021-08-18T14:08:51Z</time>
      </trkpt>
      <trkpt lat="43.59915" lon="1.13801">
        <ele>241.43</ele>
        <time>2021-08-18T14:08:52Z</time>
      </trkpt>
      <trkpt lat="43.59915" lon="1.13798">
        <ele>241.91</ele>
        <time>2021-08-18T14:08:53Z</time>
      </trkpt>
      <trkpt lat="43.59915" lon="1.13796">
        <ele>241.91</ele>
        <time>2021-08-18T14:08:54Z</time>
      </trkpt>
      <trkpt lat="43.59915" lon="1.13793">
        <ele>241.91</ele>
        <time>2021-08-18T14:08:55Z</time>
      </trkpt>
      <trkpt lat="43.59913" lon="1.13777">
        <ele>243.35</ele>
        <time>2021-08-18T14:09:02Z</time>
      </trkpt>
      <trkpt lat="43.59912" lon="1.13753">
        <ele>244.79</ele>
        <time>2021-08-18T14:09:12Z</time>
      </trkpt>
      <trkpt lat="43.59909" lon="1.13728">
        <ele>246.72</ele>
        <time>2021-08-18T14:09:22Z</time>
      </trkpt>
      <trkpt lat="43.59908" lon="1.13705">
        <ele>247.68</ele>
        <time>2021-08-18T14:09:30Z</time>
      </trkpt>
      <trkpt lat="43.59905" lon="1.13678">
        <ele>250.08</ele>
        <time>2021-08-18T14:09:39Z</time>
      </trkpt>
      <trkpt lat="43.59904" lon="1.13641">
        <ele>251.52</ele>
        <time>2021-08-18T14:09:50Z</time>
      </trkpt>
      <trkpt lat="43.59905" lon="1.13606">
        <ele>252</ele>
        <time>2021-08-18T14:09:58Z</time>
      </trkpt>
      <trkpt lat="43.5991" lon="1.13574">
        <ele>251.52</ele>
        <time>2021-08-18T14:10:05Z</time>
      </trkpt>
      <trkpt lat="43.5991" lon="1.13569">
        <ele>251.52</ele>
        <time>2021-08-18T14:10:06Z</time>
      </trkpt>
      <trkpt lat="43.59911" lon="1.13563">
        <ele>251.52</ele>
        <time>2021-08-18T14:10:07Z</time>
      </trkpt>
      <trkpt lat="43.5992" lon="1.13523">
        <ele>248.16</ele>
        <time>2021-08-18T14:10:12Z</time>
      </trkpt>
      <trkpt lat="43.59926" lon="1.13498">
        <ele>246.72</ele>
        <time>2021-08-18T14:10:15Z</time>
      </trkpt>
      <trkpt lat="43.59936" lon="1.13456">
        <ele>243.35</ele>
        <time>2021-08-18T14:10:19Z</time>
      </trkpt>
      <trkpt lat="43.59941" lon="1.13432">
        <ele>241.91</ele>
        <time>2021-08-18T14:10:21Z</time>
      </trkpt>
      <trkpt lat="43.59952" lon="1.13393">
        <ele>238.06</ele>
        <time>2021-08-18T14:10:24Z</time>
      </trkpt>
      <trkpt lat="43.59969" lon="1.13324">
        <ele>234.7</ele>
        <time>2021-08-18T14:10:29Z</time>
      </trkpt>
      <trkpt lat="43.59987" lon="1.1325">
        <ele>231.33</ele>
        <time>2021-08-18T14:10:34Z</time>
      </trkpt>
      <trkpt lat="43.59994" lon="1.13222">
        <ele>230.85</ele>
        <time>2021-08-18T14:10:36Z</time>
      </trkpt>
      <trkpt lat="43.60017" lon="1.13164">
        <ele>233.26</ele>
        <time>2021-08-18T14:10:41Z</time>
      </trkpt>
      <trkpt lat="43.60034" lon="1.13138">
        <ele>236.14</ele>
        <time>2021-08-18T14:10:45Z</time>
      </trkpt>
      <trkpt lat="43.60047" lon="1.13119">
        <ele>238.54</ele>
        <time>2021-08-18T14:10:50Z</time>
      </trkpt>
      <trkpt lat="43.60057" lon="1.13104">
        <ele>239.51</ele>
        <time>2021-08-18T14:10:56Z</time>
      </trkpt>
      <trkpt lat="43.60069" lon="1.13086">
        <ele>241.43</ele>
        <time>2021-08-18T14:11:05Z</time>
      </trkpt>
      <trkpt lat="43.60081" lon="1.13067">
        <ele>243.35</ele>
        <time>2021-08-18T14:11:16Z</time>
      </trkpt>
      <trkpt lat="43.60093" lon="1.13051">
        <ele>244.79</ele>
        <time>2021-08-18T14:11:26Z</time>
      </trkpt>
      <trkpt lat="43.60104" lon="1.13032">
        <ele>247.2</ele>
        <time>2021-08-18T14:11:36Z</time>
      </trkpt>
      <trkpt lat="43.60114" lon="1.13018">
        <ele>248.64</ele>
        <time>2021-08-18T14:11:44Z</time>
      </trkpt>
      <trkpt lat="43.6013" lon="1.12996">
        <ele>250.08</ele>
        <time>2021-08-18T14:11:56Z</time>
      </trkpt>
      <trkpt lat="43.60146" lon="1.12971">
        <ele>252.48</ele>
        <time>2021-08-18T14:12:07Z</time>
      </trkpt>
      <trkpt lat="43.6016" lon="1.12947">
        <ele>253.93</ele>
        <time>2021-08-18T14:12:16Z</time>
      </trkpt>
      <trkpt lat="43.60176" lon="1.12912">
        <ele>253.93</ele>
        <time>2021-08-18T14:12:25Z</time>
      </trkpt>
      <trkpt lat="43.60186" lon="1.12883">
        <ele>250.56</ele>
        <time>2021-08-18T14:12:29Z</time>
      </trkpt>
      <trkpt lat="43.60198" lon="1.12843">
        <ele>246.72</ele>
        <time>2021-08-18T14:12:33Z</time>
      </trkpt>
      <trkpt lat="43.60209" lon="1.12809">
        <ele>242.87</ele>
        <time>2021-08-18T14:12:36Z</time>
      </trkpt>
      <trkpt lat="43.60222" lon="1.12769">
        <ele>239.99</ele>
        <time>2021-08-18T14:12:39Z</time>
      </trkpt>
      <trkpt lat="43.6024" lon="1.12712">
        <ele>235.66</ele>
        <time>2021-08-18T14:12:43Z</time>
      </trkpt>
      <trkpt lat="43.60259" lon="1.12652">
        <ele>231.81</ele>
        <time>2021-08-18T14:12:47Z</time>
      </trkpt>
      <trkpt lat="43.60273" lon="1.12607">
        <ele>228.93</ele>
        <time>2021-08-18T14:12:50Z</time>
      </trkpt>
      <trkpt lat="43.60313" lon="1.1248">
        <ele>227.97</ele>
        <time>2021-08-18T14:12:59Z</time>
      </trkpt>
      <trkpt lat="43.60334" lon="1.12413">
        <ele>229.41</ele>
        <time>2021-08-18T14:13:05Z</time>
      </trkpt>
      <trkpt lat="43.60337" lon="1.12403">
        <ele>229.89</ele>
        <time>2021-08-18T14:13:06Z</time>
      </trkpt>
      <trkpt lat="43.60356" lon="1.12343">
        <ele>229.89</ele>
        <time>2021-08-18T14:13:13Z</time>
      </trkpt>
      <trkpt lat="43.6037" lon="1.12295">
        <ele>230.37</ele>
        <time>2021-08-18T14:13:20Z</time>
      </trkpt>
      <trkpt lat="43.6038" lon="1.12264">
        <ele>230.85</ele>
        <time>2021-08-18T14:13:26Z</time>
      </trkpt>
      <trkpt lat="43.60389" lon="1.12236">
        <ele>232.3</ele>
        <time>2021-08-18T14:13:33Z</time>
      </trkpt>
      <trkpt lat="43.60399" lon="1.12207">
        <ele>233.26</ele>
        <time>2021-08-18T14:13:40Z</time>
      </trkpt>
      <trkpt lat="43.60407" lon="1.12181">
        <ele>234.7</ele>
        <time>2021-08-18T14:13:46Z</time>
      </trkpt>
      <trkpt lat="43.60417" lon="1.12148">
        <ele>235.18</ele>
        <time>2021-08-18T14:13:54Z</time>
      </trkpt>
      <trkpt lat="43.60427" lon="1.12113">
        <ele>235.66</ele>
        <time>2021-08-18T14:14:02Z</time>
      </trkpt>
      <trkpt lat="43.60443" lon="1.12062">
        <ele>236.62</ele>
        <time>2021-08-18T14:14:12Z</time>
      </trkpt>
      <trkpt lat="43.60459" lon="1.12011">
        <ele>234.7</ele>
        <time>2021-08-18T14:14:20Z</time>
      </trkpt>
      <trkpt lat="43.60473" lon="1.11966">
        <ele>233.26</ele>
        <time>2021-08-18T14:14:26Z</time>
      </trkpt>
      <trkpt lat="43.60495" lon="1.11895">
        <ele>231.81</ele>
        <time>2021-08-18T14:14:34Z</time>
      </trkpt>
      <trkpt lat="43.60518" lon="1.1182">
        <ele>230.37</ele>
        <time>2021-08-18T14:14:42Z</time>
      </trkpt>
      <trkpt lat="43.60545" lon="1.11735">
        <ele>228.93</ele>
        <time>2021-08-18T14:14:51Z</time>
      </trkpt>
      <trkpt lat="43.60567" lon="1.11662">
        <ele>228.45</ele>
        <time>2021-08-18T14:14:59Z</time>
      </trkpt>
      <trkpt lat="43.60593" lon="1.11577">
        <ele>226.53</ele>
        <time>2021-08-18T14:15:08Z</time>
      </trkpt>
      <trkpt lat="43.60618" lon="1.11493">
        <ele>224.61</ele>
        <time>2021-08-18T14:15:16Z</time>
      </trkpt>
      <trkpt lat="43.60639" lon="1.11421">
        <ele>223.64</ele>
        <time>2021-08-18T14:15:23Z</time>
      </trkpt>
      <trkpt lat="43.60662" lon="1.11353">
        <ele>223.16</ele>
        <time>2021-08-18T14:15:31Z</time>
      </trkpt>
      <trkpt lat="43.60688" lon="1.11273">
        <ele>220.76</ele>
        <time>2021-08-18T14:15:40Z</time>
      </trkpt>
      <trkpt lat="43.60707" lon="1.11207">
        <ele>216.91</ele>
        <time>2021-08-18T14:15:46Z</time>
      </trkpt>
      <trkpt lat="43.60727" lon="1.11147">
        <ele>214.51</ele>
        <time>2021-08-18T14:15:51Z</time>
      </trkpt>
      <trkpt lat="43.60755" lon="1.11058">
        <ele>210.19</ele>
        <time>2021-08-18T14:15:58Z</time>
      </trkpt>
      <trkpt lat="43.60776" lon="1.10991">
        <ele>206.34</ele>
        <time>2021-08-18T14:16:03Z</time>
      </trkpt>
      <trkpt lat="43.6079" lon="1.10946">
        <ele>202.01</ele>
        <time>2021-08-18T14:16:06Z</time>
      </trkpt>
      <trkpt lat="43.60799" lon="1.10915">
        <ele>199.13</ele>
        <time>2021-08-18T14:16:08Z</time>
      </trkpt>
      <trkpt lat="43.60809" lon="1.10883">
        <ele>195.77</ele>
        <time>2021-08-18T14:16:10Z</time>
      </trkpt>
      <trkpt lat="43.6082" lon="1.10849">
        <ele>192.4</ele>
        <time>2021-08-18T14:16:12Z</time>
      </trkpt>
      <trkpt lat="43.60831" lon="1.10813">
        <ele>189.04</ele>
        <time>2021-08-18T14:16:14Z</time>
      </trkpt>
      <trkpt lat="43.60842" lon="1.10779">
        <ele>186.15</ele>
        <time>2021-08-18T14:16:16Z</time>
      </trkpt>
      <trkpt lat="43.60853" lon="1.10743">
        <ele>182.79</ele>
        <time>2021-08-18T14:16:18Z</time>
      </trkpt>
      <trkpt lat="43.60871" lon="1.10687">
        <ele>179.42</ele>
        <time>2021-08-18T14:16:21Z</time>
      </trkpt>
      <trkpt lat="43.60887" lon="1.10633">
        <ele>175.1</ele>
        <time>2021-08-18T14:16:24Z</time>
      </trkpt>
      <trkpt lat="43.60911" lon="1.1056">
        <ele>170.77</ele>
        <time>2021-08-18T14:16:28Z</time>
      </trkpt>
      <trkpt lat="43.60916" lon="1.10542">
        <ele>170.77</ele>
        <time>2021-08-18T14:16:29Z</time>
      </trkpt>
      <trkpt lat="43.60931" lon="1.10492">
        <ele>169.33</ele>
        <time>2021-08-18T14:16:32Z</time>
      </trkpt>
      <trkpt lat="43.60945" lon="1.10449">
        <ele>171.25</ele>
        <time>2021-08-18T14:16:35Z</time>
      </trkpt>
      <trkpt lat="43.60962" lon="1.10392">
        <ele>173.66</ele>
        <time>2021-08-18T14:16:40Z</time>
      </trkpt>
      <trkpt lat="43.60965" lon="1.10384">
        <ele>173.66</ele>
        <time>2021-08-18T14:16:41Z</time>
      </trkpt>
      <trkpt lat="43.60975" lon="1.10347">
        <ele>175.58</ele>
        <time>2021-08-18T14:16:46Z</time>
      </trkpt>
      <trkpt lat="43.60989" lon="1.10306">
        <ele>177.02</ele>
        <time>2021-08-18T14:16:55Z</time>
      </trkpt>
      <trkpt lat="43.60999" lon="1.10273">
        <ele>177.98</ele>
        <time>2021-08-18T14:17:03Z</time>
      </trkpt>
      <trkpt lat="43.61013" lon="1.1023">
        <ele>178.94</ele>
        <time>2021-08-18T14:17:14Z</time>
      </trkpt>
      <trkpt lat="43.61025" lon="1.10193">
        <ele>179.9</ele>
        <time>2021-08-18T14:17:23Z</time>
      </trkpt>
      <trkpt lat="43.61035" lon="1.10158">
        <ele>181.83</ele>
        <time>2021-08-18T14:17:31Z</time>
      </trkpt>
      <trkpt lat="43.6105" lon="1.10114">
        <ele>182.79</ele>
        <time>2021-08-18T14:17:41Z</time>
      </trkpt>
      <trkpt lat="43.61064" lon="1.10071">
        <ele>184.71</ele>
        <time>2021-08-18T14:17:52Z</time>
      </trkpt>
      <trkpt lat="43.61078" lon="1.10024">
        <ele>185.67</ele>
        <time>2021-08-18T14:18:04Z</time>
      </trkpt>
      <trkpt lat="43.61093" lon="1.09976">
        <ele>187.59</ele>
        <time>2021-08-18T14:18:16Z</time>
      </trkpt>
      <trkpt lat="43.61106" lon="1.09935">
        <ele>188.08</ele>
        <time>2021-08-18T14:18:25Z</time>
      </trkpt>
      <trkpt lat="43.61109" lon="1.09917">
        <ele>188.08</ele>
        <time>2021-08-18T14:18:31Z</time>
      </trkpt>
      <trkpt lat="43.6111" lon="1.09916">
        <ele>189.04</ele>
        <time>2021-08-18T14:18:33Z</time>
      </trkpt>
      <trkpt lat="43.61118" lon="1.099">
        <ele>189.04</ele>
        <time>2021-08-18T14:18:38Z</time>
      </trkpt>
      <trkpt lat="43.61119" lon="1.09894">
        <ele>189.04</ele>
        <time>2021-08-18T14:18:39Z</time>
      </trkpt>
      <trkpt lat="43.6112" lon="1.09889">
        <ele>189.04</ele>
        <time>2021-08-18T14:18:40Z</time>
      </trkpt>
      <trkpt lat="43.6112" lon="1.09883">
        <ele>187.59</ele>
        <time>2021-08-18T14:18:41Z</time>
      </trkpt>
      <trkpt lat="43.61121" lon="1.09876">
        <ele>187.59</ele>
        <time>2021-08-18T14:18:42Z</time>
      </trkpt>
      <trkpt lat="43.61121" lon="1.09869">
        <ele>186.63</ele>
        <time>2021-08-18T14:18:43Z</time>
      </trkpt>
      <trkpt lat="43.61123" lon="1.09862">
        <ele>186.63</ele>
        <time>2021-08-18T14:18:44Z</time>
      </trkpt>
      <trkpt lat="43.61126" lon="1.09855">
        <ele>186.63</ele>
        <time>2021-08-18T14:18:45Z</time>
      </trkpt>
      <trkpt lat="43.61129" lon="1.09848">
        <ele>186.15</ele>
        <time>2021-08-18T14:18:46Z</time>
      </trkpt>
      <trkpt lat="43.61135" lon="1.09833">
        <ele>186.15</ele>
        <time>2021-08-18T14:18:48Z</time>
      </trkpt>
      <trkpt lat="43.6116" lon="1.09762">
        <ele>184.23</ele>
        <time>2021-08-18T14:18:57Z</time>
      </trkpt>
      <trkpt lat="43.61174" lon="1.0969">
        <ele>181.83</ele>
        <time>2021-08-18T14:19:05Z</time>
      </trkpt>
      <trkpt lat="43.61186" lon="1.09608">
        <ele>180.87</ele>
        <time>2021-08-18T14:19:14Z</time>
      </trkpt>
      <trkpt lat="43.61203" lon="1.09498">
        <ele>179.42</ele>
        <time>2021-08-18T14:19:26Z</time>
      </trkpt>
      <trkpt lat="43.61216" lon="1.09405">
        <ele>178.46</ele>
        <time>2021-08-18T14:19:36Z</time>
      </trkpt>
      <trkpt lat="43.6123" lon="1.09316">
        <ele>176.06</ele>
        <time>2021-08-18T14:19:45Z</time>
      </trkpt>
      <trkpt lat="43.61243" lon="1.0923">
        <ele>172.69</ele>
        <time>2021-08-18T14:19:53Z</time>
      </trkpt>
      <trkpt lat="43.61247" lon="1.09206">
        <ele>172.21</ele>
        <time>2021-08-18T14:19:55Z</time>
      </trkpt>
      <trkpt lat="43.61254" lon="1.09157">
        <ele>169.33</ele>
        <time>2021-08-18T14:19:59Z</time>
      </trkpt>
      <trkpt lat="43.61266" lon="1.09066">
        <ele>165.96</ele>
        <time>2021-08-18T14:20:06Z</time>
      </trkpt>
      <trkpt lat="43.61283" lon="1.08955">
        <ele>164.04</ele>
        <time>2021-08-18T14:20:15Z</time>
      </trkpt>
      <trkpt lat="43.6129" lon="1.08894">
        <ele>163.56</ele>
        <time>2021-08-18T14:20:21Z</time>
      </trkpt>
      <trkpt lat="43.6129" lon="1.08883">
        <ele>163.56</ele>
        <time>2021-08-18T14:20:22Z</time>
      </trkpt>
      <trkpt lat="43.61293" lon="1.08873">
        <ele>162.6</ele>
        <time>2021-08-18T14:20:23Z</time>
      </trkpt>
      <trkpt lat="43.61295" lon="1.08865">
        <ele>162.6</ele>
        <time>2021-08-18T14:20:24Z</time>
      </trkpt>
      <trkpt lat="43.61296" lon="1.08855">
        <ele>162.6</ele>
        <time>2021-08-18T14:20:25Z</time>
      </trkpt>
      <trkpt lat="43.61297" lon="1.08844">
        <ele>162.6</ele>
        <time>2021-08-18T14:20:26Z</time>
      </trkpt>
      <trkpt lat="43.61299" lon="1.08835">
        <ele>162.6</ele>
        <time>2021-08-18T14:20:27Z</time>
      </trkpt>
      <trkpt lat="43.61309" lon="1.08773">
        <ele>161.64</ele>
        <time>2021-08-18T14:20:34Z</time>
      </trkpt>
      <trkpt lat="43.61317" lon="1.08718">
        <ele>161.16</ele>
        <time>2021-08-18T14:20:41Z</time>
      </trkpt>
      <trkpt lat="43.61327" lon="1.08651">
        <ele>160.2</ele>
        <time>2021-08-18T14:20:49Z</time>
      </trkpt>
      <trkpt lat="43.61341" lon="1.08557">
        <ele>159.24</ele>
        <time>2021-08-18T14:21:00Z</time>
      </trkpt>
      <trkpt lat="43.61351" lon="1.08492">
        <ele>158.27</ele>
        <time>2021-08-18T14:21:08Z</time>
      </trkpt>
      <trkpt lat="43.61363" lon="1.08421">
        <ele>158.27</ele>
        <time>2021-08-18T14:21:17Z</time>
      </trkpt>
      <trkpt lat="43.61372" lon="1.08356">
        <ele>157.79</ele>
        <time>2021-08-18T14:21:25Z</time>
      </trkpt>
      <trkpt lat="43.61381" lon="1.08292">
        <ele>157.31</ele>
        <time>2021-08-18T14:21:33Z</time>
      </trkpt>
      <trkpt lat="43.61383" lon="1.0828">
        <ele>157.31</ele>
        <time>2021-08-18T14:21:35Z</time>
      </trkpt>
      <trkpt lat="43.61387" lon="1.08268">
        <ele>158.75</ele>
        <time>2021-08-18T14:21:37Z</time>
      </trkpt>
      <trkpt lat="43.61397" lon="1.08219">
        <ele>158.75</ele>
        <time>2021-08-18T14:21:45Z</time>
      </trkpt>
      <trkpt lat="43.614" lon="1.08207">
        <ele>158.75</ele>
        <time>2021-08-18T14:21:47Z</time>
      </trkpt>
      <trkpt lat="43.61402" lon="1.08175">
        <ele>158.75</ele>
        <time>2021-08-18T14:21:53Z</time>
      </trkpt>
      <trkpt lat="43.614" lon="1.08153">
        <ele>158.75</ele>
        <time>2021-08-18T14:21:57Z</time>
      </trkpt>
      <trkpt lat="43.61397" lon="1.08102">
        <ele>156.83</ele>
        <time>2021-08-18T14:22:04Z</time>
      </trkpt>
      <trkpt lat="43.61391" lon="1.08035">
        <ele>155.87</ele>
        <time>2021-08-18T14:22:12Z</time>
      </trkpt>
      <trkpt lat="43.61384" lon="1.07954">
        <ele>154.43</ele>
        <time>2021-08-18T14:22:22Z</time>
      </trkpt>
      <trkpt lat="43.61382" lon="1.07931">
        <ele>154.43</ele>
        <time>2021-08-18T14:22:27Z</time>
      </trkpt>
      <trkpt lat="43.61382" lon="1.07895">
        <ele>153.47</ele>
        <time>2021-08-18T14:22:33Z</time>
      </trkpt>
      <trkpt lat="43.61388" lon="1.07841">
        <ele>152.99</ele>
        <time>2021-08-18T14:22:40Z</time>
      </trkpt>
      <trkpt lat="43.61397" lon="1.07782">
        <ele>152.51</ele>
        <time>2021-08-18T14:22:48Z</time>
      </trkpt>
      <trkpt lat="43.61406" lon="1.07712">
        <ele>152.51</ele>
        <time>2021-08-18T14:22:57Z</time>
      </trkpt>
      <trkpt lat="43.61418" lon="1.07627">
        <ele>152.51</ele>
        <time>2021-08-18T14:23:08Z</time>
      </trkpt>
      <trkpt lat="43.61428" lon="1.07552">
        <ele>152.51</ele>
        <time>2021-08-18T14:23:18Z</time>
      </trkpt>
      <trkpt lat="43.61438" lon="1.07476">
        <ele>152.51</ele>
        <time>2021-08-18T14:23:28Z</time>
      </trkpt>
      <trkpt lat="43.61449" lon="1.07408">
        <ele>151.54</ele>
        <time>2021-08-18T14:23:37Z</time>
      </trkpt>
      <trkpt lat="43.61453" lon="1.07376">
        <ele>151.54</ele>
        <time>2021-08-18T14:23:41Z</time>
      </trkpt>
      <trkpt lat="43.61453" lon="1.07368">
        <ele>151.54</ele>
        <time>2021-08-18T14:23:42Z</time>
      </trkpt>
      <trkpt lat="43.61455" lon="1.0736">
        <ele>150.58</ele>
        <time>2021-08-18T14:23:43Z</time>
      </trkpt>
      <trkpt lat="43.61465" lon="1.07293">
        <ele>150.1</ele>
        <time>2021-08-18T14:23:51Z</time>
      </trkpt>
      <trkpt lat="43.61475" lon="1.07217">
        <ele>150.1</ele>
        <time>2021-08-18T14:24:00Z</time>
      </trkpt>
      <trkpt lat="43.61485" lon="1.07151">
        <ele>150.1</ele>
        <time>2021-08-18T14:24:08Z</time>
      </trkpt>
      <trkpt lat="43.61488" lon="1.07126">
        <ele>150.1</ele>
        <time>2021-08-18T14:24:11Z</time>
      </trkpt>
      <trkpt lat="43.61488" lon="1.07112">
        <ele>149.62</ele>
        <time>2021-08-18T14:24:13Z</time>
      </trkpt>
      <trkpt lat="43.61497" lon="1.07056">
        <ele>149.62</ele>
        <time>2021-08-18T14:24:20Z</time>
      </trkpt>
      <trkpt lat="43.61507" lon="1.06988">
        <ele>149.62</ele>
        <time>2021-08-18T14:24:28Z</time>
      </trkpt>
      <trkpt lat="43.61509" lon="1.06977">
        <ele>151.54</ele>
        <time>2021-08-18T14:24:30Z</time>
      </trkpt>
      <trkpt lat="43.61515" lon="1.06944">
        <ele>150.1</ele>
        <time>2021-08-18T14:24:35Z</time>
      </trkpt>
      <trkpt lat="43.61521" lon="1.06922">
        <ele>150.1</ele>
        <time>2021-08-18T14:24:40Z</time>
      </trkpt>
      <trkpt lat="43.61521" lon="1.06921">
        <ele>150.1</ele>
        <time>2021-08-18T14:24:44Z</time>
      </trkpt>
      <trkpt lat="43.61521" lon="1.06921">
        <ele>150.1</ele>
        <time>2021-08-18T14:24:56Z</time>
      </trkpt>
      <trkpt lat="43.61521" lon="1.06918">
        <ele>150.1</ele>
        <time>2021-08-18T14:25:17Z</time>
      </trkpt>
      <trkpt lat="43.61524" lon="1.06922">
        <ele>149.62</ele>
        <time>2021-08-18T14:25:38Z</time>
      </trkpt>
      <trkpt lat="43.61523" lon="1.06923">
        <ele>149.62</ele>
        <time>2021-08-18T14:26:05Z</time>
      </trkpt>
      <trkpt lat="43.61522" lon="1.06923">
        <ele>149.62</ele>
        <time>2021-08-18T14:26:23Z</time>
      </trkpt>
      <trkpt lat="43.6152" lon="1.06925">
        <ele>149.62</ele>
        <time>2021-08-18T14:26:48Z</time>
      </trkpt>
      <trkpt lat="43.61521" lon="1.06922">
        <ele>149.62</ele>
        <time>2021-08-18T14:27:13Z</time>
      </trkpt>
      <trkpt lat="43.61522" lon="1.0692">
        <ele>149.62</ele>
        <time>2021-08-18T14:27:35Z</time>
      </trkpt>
      <trkpt lat="43.6152" lon="1.0692">
        <ele>149.62</ele>
        <time>2021-08-18T14:27:44Z</time>
      </trkpt>
      <trkpt lat="43.61518" lon="1.06916">
        <ele>149.62</ele>
        <time>2021-08-18T14:27:47Z</time>
      </trkpt>
      <trkpt lat="43.61514" lon="1.06916">
        <ele>149.62</ele>
        <time>2021-08-18T14:27:49Z</time>
      </trkpt>
      <trkpt lat="43.61513" lon="1.06919">
        <ele>149.62</ele>
        <time>2021-08-18T14:27:50Z</time>
      </trkpt>
      <trkpt lat="43.61513" lon="1.06922">
        <ele>149.62</ele>
        <time>2021-08-18T14:27:51Z</time>
      </trkpt>
      <trkpt lat="43.61512" lon="1.06927">
        <ele>149.62</ele>
        <time>2021-08-18T14:27:52Z</time>
      </trkpt>
      <trkpt lat="43.61507" lon="1.06968">
        <ele>149.14</ele>
        <time>2021-08-18T14:28:00Z</time>
      </trkpt>
      <trkpt lat="43.61502" lon="1.07006">
        <ele>149.14</ele>
        <time>2021-08-18T14:28:08Z</time>
      </trkpt>
      <trkpt lat="43.615" lon="1.07016">
        <ele>149.14</ele>
        <time>2021-08-18T14:28:10Z</time>
      </trkpt>
      <trkpt lat="43.61492" lon="1.07081">
        <ele>149.14</ele>
        <time>2021-08-18T14:28:20Z</time>
      </trkpt>
      <trkpt lat="43.61484" lon="1.07134">
        <ele>149.14</ele>
        <time>2021-08-18T14:28:29Z</time>
      </trkpt>
      <trkpt lat="43.61482" lon="1.07138">
        <ele>149.14</ele>
        <time>2021-08-18T14:28:30Z</time>
      </trkpt>
      <trkpt lat="43.61478" lon="1.0714">
        <ele>149.14</ele>
        <time>2021-08-18T14:28:31Z</time>
      </trkpt>
      <trkpt lat="43.61475" lon="1.07139">
        <ele>149.14</ele>
        <time>2021-08-18T14:28:32Z</time>
      </trkpt>
      <trkpt lat="43.61471" lon="1.07137">
        <ele>149.14</ele>
        <time>2021-08-18T14:28:33Z</time>
      </trkpt>
      <trkpt lat="43.61468" lon="1.07134">
        <ele>149.14</ele>
        <time>2021-08-18T14:28:34Z</time>
      </trkpt>
      <trkpt lat="43.61465" lon="1.07131">
        <ele>148.66</ele>
        <time>2021-08-18T14:28:35Z</time>
      </trkpt>
      <trkpt lat="43.61461" lon="1.07126">
        <ele>148.18</ele>
        <time>2021-08-18T14:28:36Z</time>
      </trkpt>
      <trkpt lat="43.61456" lon="1.07122">
        <ele>147.7</ele>
        <time>2021-08-18T14:28:37Z</time>
      </trkpt>
      <trkpt lat="43.61451" lon="1.07119">
        <ele>147.7</ele>
        <time>2021-08-18T14:28:38Z</time>
      </trkpt>
      <trkpt lat="43.61446" lon="1.07117">
        <ele>147.7</ele>
        <time>2021-08-18T14:28:39Z</time>
      </trkpt>
      <trkpt lat="43.61433" lon="1.07112">
        <ele>147.7</ele>
        <time>2021-08-18T14:28:42Z</time>
      </trkpt>
      <trkpt lat="43.61429" lon="1.07109">
        <ele>147.7</ele>
        <time>2021-08-18T14:28:43Z</time>
      </trkpt>
      <trkpt lat="43.61426" lon="1.07105">
        <ele>147.7</ele>
        <time>2021-08-18T14:28:44Z</time>
      </trkpt>
      <trkpt lat="43.61423" lon="1.07101">
        <ele>147.7</ele>
        <time>2021-08-18T14:28:45Z</time>
      </trkpt>
      <trkpt lat="43.6142" lon="1.07095">
        <ele>147.7</ele>
        <time>2021-08-18T14:28:46Z</time>
      </trkpt>
      <trkpt lat="43.61417" lon="1.0709">
        <ele>147.7</ele>
        <time>2021-08-18T14:28:47Z</time>
      </trkpt>
      <trkpt lat="43.61414" lon="1.07085">
        <ele>147.7</ele>
        <time>2021-08-18T14:28:48Z</time>
      </trkpt>
      <trkpt lat="43.6141" lon="1.0708">
        <ele>147.7</ele>
        <time>2021-08-18T14:28:49Z</time>
      </trkpt>
      <trkpt lat="43.61406" lon="1.07075">
        <ele>147.7</ele>
        <time>2021-08-18T14:28:50Z</time>
      </trkpt>
      <trkpt lat="43.61402" lon="1.07071">
        <ele>147.7</ele>
        <time>2021-08-18T14:28:51Z</time>
      </trkpt>
      <trkpt lat="43.61398" lon="1.07067">
        <ele>147.7</ele>
        <time>2021-08-18T14:28:52Z</time>
      </trkpt>
      <trkpt lat="43.61365" lon="1.07046">
        <ele>148.66</ele>
        <time>2021-08-18T14:28:59Z</time>
      </trkpt>
      <trkpt lat="43.6136" lon="1.07042">
        <ele>148.66</ele>
        <time>2021-08-18T14:29:00Z</time>
      </trkpt>
      <trkpt lat="43.61356" lon="1.07038">
        <ele>148.66</ele>
        <time>2021-08-18T14:29:01Z</time>
      </trkpt>
      <trkpt lat="43.6134" lon="1.07024">
        <ele>148.66</ele>
        <time>2021-08-18T14:29:05Z</time>
      </trkpt>
      <trkpt lat="43.61336" lon="1.07022">
        <ele>148.66</ele>
        <time>2021-08-18T14:29:06Z</time>
      </trkpt>
      <trkpt lat="43.61322" lon="1.07017">
        <ele>148.66</ele>
        <time>2021-08-18T14:29:09Z</time>
      </trkpt>
      <trkpt lat="43.61318" lon="1.07016">
        <ele>148.66</ele>
        <time>2021-08-18T14:29:10Z</time>
      </trkpt>
      <trkpt lat="43.61308" lon="1.07014">
        <ele>148.66</ele>
        <time>2021-08-18T14:29:12Z</time>
      </trkpt>
      <trkpt lat="43.61303" lon="1.07014">
        <ele>148.66</ele>
        <time>2021-08-18T14:29:13Z</time>
      </trkpt>
      <trkpt lat="43.61298" lon="1.07015">
        <ele>148.66</ele>
        <time>2021-08-18T14:29:14Z</time>
      </trkpt>
      <trkpt lat="43.61293" lon="1.07016">
        <ele>148.66</ele>
        <time>2021-08-18T14:29:15Z</time>
      </trkpt>
      <trkpt lat="43.61289" lon="1.07018">
        <ele>148.66</ele>
        <time>2021-08-18T14:29:16Z</time>
      </trkpt>
      <trkpt lat="43.61264" lon="1.07034">
        <ele>148.66</ele>
        <time>2021-08-18T14:29:23Z</time>
      </trkpt>
      <trkpt lat="43.61259" lon="1.07051">
        <ele>149.62</ele>
        <time>2021-08-18T14:29:27Z</time>
      </trkpt>
      <trkpt lat="43.61252" lon="1.07074">
        <ele>149.62</ele>
        <time>2021-08-18T14:29:33Z</time>
      </trkpt>
      <trkpt lat="43.61251" lon="1.07078">
        <ele>150.1</ele>
        <time>2021-08-18T14:29:34Z</time>
      </trkpt>
      <trkpt lat="43.61251" lon="1.07082">
        <ele>150.1</ele>
        <time>2021-08-18T14:29:35Z</time>
      </trkpt>
      <trkpt lat="43.61249" lon="1.07123">
        <ele>150.1</ele>
        <time>2021-08-18T14:29:42Z</time>
      </trkpt>
      <trkpt lat="43.61248" lon="1.07161">
        <ele>150.1</ele>
        <time>2021-08-18T14:29:49Z</time>
      </trkpt>
      <trkpt lat="43.61241" lon="1.07196">
        <ele>150.1</ele>
        <time>2021-08-18T14:29:56Z</time>
      </trkpt>
      <trkpt lat="43.61226" lon="1.07218">
        <ele>150.1</ele>
        <time>2021-08-18T14:30:02Z</time>
      </trkpt>
      <trkpt lat="43.61212" lon="1.07226">
        <ele>150.1</ele>
        <time>2021-08-18T14:30:06Z</time>
      </trkpt>
      <trkpt lat="43.61207" lon="1.07228">
        <ele>150.1</ele>
        <time>2021-08-18T14:30:07Z</time>
      </trkpt>
      <trkpt lat="43.61186" lon="1.07231">
        <ele>150.1</ele>
        <time>2021-08-18T14:30:14Z</time>
      </trkpt>
      <trkpt lat="43.61185" lon="1.07231">
        <ele>150.1</ele>
        <time>2021-08-18T14:30:19Z</time>
      </trkpt>
      <trkpt lat="43.61186" lon="1.07231">
        <ele>150.58</ele>
        <time>2021-08-18T14:30:34Z</time>
      </trkpt>
      <trkpt lat="43.61189" lon="1.07231">
        <ele>150.58</ele>
        <time>2021-08-18T14:30:42Z</time>
      </trkpt>
      <trkpt lat="43.61189" lon="1.07232">
        <ele>150.58</ele>
        <time>2021-08-18T14:30:51Z</time>
      </trkpt>
      <trkpt lat="43.61189" lon="1.07232">
        <ele>150.58</ele>
        <time>2021-08-18T14:31:03Z</time>
      </trkpt>
      <trkpt lat="43.61188" lon="1.07233">
        <ele>150.58</ele>
        <time>2021-08-18T14:31:09Z</time>
      </trkpt>
      <trkpt lat="43.61188" lon="1.07232">
        <ele>150.58</ele>
        <time>2021-08-18T14:31:18Z</time>
      </trkpt>
      <trkpt lat="43.61186" lon="1.07233">
        <ele>150.58</ele>
        <time>2021-08-18T14:31:32Z</time>
      </trkpt>
      <trkpt lat="43.61185" lon="1.07233">
        <ele>150.58</ele>
        <time>2021-08-18T14:31:33Z</time>
      </trkpt>
      <trkpt lat="43.61184" lon="1.07233">
        <ele>150.58</ele>
        <time>2021-08-18T14:31:34Z</time>
      </trkpt>
      <trkpt lat="43.61182" lon="1.07233">
        <ele>150.58</ele>
        <time>2021-08-18T14:31:35Z</time>
      </trkpt>
      <trkpt lat="43.6118" lon="1.07232">
        <ele>150.58</ele>
        <time>2021-08-18T14:31:36Z</time>
      </trkpt>
      <trkpt lat="43.61176" lon="1.07232">
        <ele>150.58</ele>
        <time>2021-08-18T14:31:37Z</time>
      </trkpt>
      <trkpt lat="43.61172" lon="1.07231">
        <ele>150.58</ele>
        <time>2021-08-18T14:31:38Z</time>
      </trkpt>
      <trkpt lat="43.61153" lon="1.07224">
        <ele>150.58</ele>
        <time>2021-08-18T14:31:44Z</time>
      </trkpt>
      <trkpt lat="43.6113" lon="1.07207">
        <ele>150.58</ele>
        <time>2021-08-18T14:31:51Z</time>
      </trkpt>
      <trkpt lat="43.61115" lon="1.07181">
        <ele>150.58</ele>
        <time>2021-08-18T14:31:58Z</time>
      </trkpt>
      <trkpt lat="43.61108" lon="1.07153">
        <ele>150.58</ele>
        <time>2021-08-18T14:32:04Z</time>
      </trkpt>
      <trkpt lat="43.61101" lon="1.07114">
        <ele>150.58</ele>
        <time>2021-08-18T14:32:11Z</time>
      </trkpt>
      <trkpt lat="43.61088" lon="1.07078">
        <ele>150.58</ele>
        <time>2021-08-18T14:32:18Z</time>
      </trkpt>
      <trkpt lat="43.61064" lon="1.07039">
        <ele>150.58</ele>
        <time>2021-08-18T14:32:27Z</time>
      </trkpt>
      <trkpt lat="43.61043" lon="1.07023">
        <ele>150.58</ele>
        <time>2021-08-18T14:32:34Z</time>
      </trkpt>
      <trkpt lat="43.61022" lon="1.07025">
        <ele>150.58</ele>
        <time>2021-08-18T14:32:41Z</time>
      </trkpt>
      <trkpt lat="43.61004" lon="1.07045">
        <ele>151.06</ele>
        <time>2021-08-18T14:32:48Z</time>
      </trkpt>
      <trkpt lat="43.60985" lon="1.07071">
        <ele>150.58</ele>
        <time>2021-08-18T14:32:55Z</time>
      </trkpt>
      <trkpt lat="43.60964" lon="1.07071">
        <ele>150.58</ele>
        <time>2021-08-18T14:33:01Z</time>
      </trkpt>
      <trkpt lat="43.60958" lon="1.07065">
        <ele>150.58</ele>
        <time>2021-08-18T14:33:03Z</time>
      </trkpt>
      <trkpt lat="43.60955" lon="1.07061">
        <ele>150.58</ele>
        <time>2021-08-18T14:33:04Z</time>
      </trkpt>
      <trkpt lat="43.60952" lon="1.07057">
        <ele>150.58</ele>
        <time>2021-08-18T14:33:05Z</time>
      </trkpt>
      <trkpt lat="43.60942" lon="1.07041">
        <ele>150.58</ele>
        <time>2021-08-18T14:33:09Z</time>
      </trkpt>
      <trkpt lat="43.60917" lon="1.07015">
        <ele>150.58</ele>
        <time>2021-08-18T14:33:16Z</time>
      </trkpt>
      <trkpt lat="43.60887" lon="1.06996">
        <ele>150.58</ele>
        <time>2021-08-18T14:33:24Z</time>
      </trkpt>
      <trkpt lat="43.60855" lon="1.06978">
        <ele>150.58</ele>
        <time>2021-08-18T14:33:32Z</time>
      </trkpt>
      <trkpt lat="43.60831" lon="1.06957">
        <ele>149.14</ele>
        <time>2021-08-18T14:33:39Z</time>
      </trkpt>
      <trkpt lat="43.60828" lon="1.06952">
        <ele>149.14</ele>
        <time>2021-08-18T14:33:40Z</time>
      </trkpt>
      <trkpt lat="43.60823" lon="1.06944">
        <ele>149.14</ele>
        <time>2021-08-18T14:33:42Z</time>
      </trkpt>
      <trkpt lat="43.60824" lon="1.06939">
        <ele>149.14</ele>
        <time>2021-08-18T14:33:43Z</time>
      </trkpt>
      <trkpt lat="43.60836" lon="1.06903">
        <ele>149.14</ele>
        <time>2021-08-18T14:33:51Z</time>
      </trkpt>
      <trkpt lat="43.60843" lon="1.0688">
        <ele>148.66</ele>
        <time>2021-08-18T14:33:55Z</time>
      </trkpt>
      <trkpt lat="43.60845" lon="1.06874">
        <ele>148.66</ele>
        <time>2021-08-18T14:33:56Z</time>
      </trkpt>
      <trkpt lat="43.60846" lon="1.06868">
        <ele>148.66</ele>
        <time>2021-08-18T14:33:57Z</time>
      </trkpt>
      <trkpt lat="43.6086" lon="1.06828">
        <ele>148.66</ele>
        <time>2021-08-18T14:34:04Z</time>
      </trkpt>
      <trkpt lat="43.60874" lon="1.06786">
        <ele>148.66</ele>
        <time>2021-08-18T14:34:12Z</time>
      </trkpt>
      <trkpt lat="43.60887" lon="1.06751">
        <ele>148.66</ele>
        <time>2021-08-18T14:34:19Z</time>
      </trkpt>
      <trkpt lat="43.60892" lon="1.06737">
        <ele>148.66</ele>
        <time>2021-08-18T14:34:23Z</time>
      </trkpt>
      <trkpt lat="43.60892" lon="1.06734">
        <ele>148.66</ele>
        <time>2021-08-18T14:34:26Z</time>
      </trkpt>
      <trkpt lat="43.60891" lon="1.06735">
        <ele>148.66</ele>
        <time>2021-08-18T14:34:27Z</time>
      </trkpt>
      <trkpt lat="43.60891" lon="1.06737">
        <ele>148.66</ele>
        <time>2021-08-18T14:34:28Z</time>
      </trkpt>
      <trkpt lat="43.60891" lon="1.06739">
        <ele>148.66</ele>
        <time>2021-08-18T14:34:29Z</time>
      </trkpt>
      <trkpt lat="43.60891" lon="1.06742">
        <ele>148.66</ele>
        <time>2021-08-18T14:34:30Z</time>
      </trkpt>
      <trkpt lat="43.60891" lon="1.06745">
        <ele>148.66</ele>
        <time>2021-08-18T14:34:31Z</time>
      </trkpt>
      <trkpt lat="43.6089" lon="1.06749">
        <ele>148.66</ele>
        <time>2021-08-18T14:34:32Z</time>
      </trkpt>
      <trkpt lat="43.60888" lon="1.06753">
        <ele>148.66</ele>
        <time>2021-08-18T14:34:33Z</time>
      </trkpt>
      <trkpt lat="43.60887" lon="1.06757">
        <ele>148.66</ele>
        <time>2021-08-18T14:34:34Z</time>
      </trkpt>
      <trkpt lat="43.60878" lon="1.0679">
        <ele>148.18</ele>
        <time>2021-08-18T14:34:41Z</time>
      </trkpt>
      <trkpt lat="43.60867" lon="1.06813">
        <ele>148.18</ele>
        <time>2021-08-18T14:34:47Z</time>
      </trkpt>
      <trkpt lat="43.60861" lon="1.06822">
        <ele>148.18</ele>
        <time>2021-08-18T14:34:50Z</time>
      </trkpt>
      <trkpt lat="43.60858" lon="1.06822">
        <ele>148.18</ele>
        <time>2021-08-18T14:34:51Z</time>
      </trkpt>
      <trkpt lat="43.60856" lon="1.06821">
        <ele>148.18</ele>
        <time>2021-08-18T14:34:52Z</time>
      </trkpt>
      <trkpt lat="43.60854" lon="1.06819">
        <ele>148.18</ele>
        <time>2021-08-18T14:34:53Z</time>
      </trkpt>
      <trkpt lat="43.60852" lon="1.06815">
        <ele>149.62</ele>
        <time>2021-08-18T14:34:54Z</time>
      </trkpt>
      <trkpt lat="43.60851" lon="1.06811">
        <ele>149.62</ele>
        <time>2021-08-18T14:34:55Z</time>
      </trkpt>
      <trkpt lat="43.6084" lon="1.06783">
        <ele>149.62</ele>
        <time>2021-08-18T14:35:01Z</time>
      </trkpt>
      <trkpt lat="43.60816" lon="1.06751">
        <ele>149.62</ele>
        <time>2021-08-18T14:35:09Z</time>
      </trkpt>
      <trkpt lat="43.60774" lon="1.06712">
        <ele>149.62</ele>
        <time>2021-08-18T14:35:20Z</time>
      </trkpt>
      <trkpt lat="43.60741" lon="1.0668">
        <ele>149.62</ele>
        <time>2021-08-18T14:35:29Z</time>
      </trkpt>
      <trkpt lat="43.6072" lon="1.0665">
        <ele>149.62</ele>
        <time>2021-08-18T14:35:37Z</time>
      </trkpt>
      <trkpt lat="43.60718" lon="1.06645">
        <ele>149.62</ele>
        <time>2021-08-18T14:35:38Z</time>
      </trkpt>
      <trkpt lat="43.60717" lon="1.0664">
        <ele>149.62</ele>
        <time>2021-08-18T14:35:39Z</time>
      </trkpt>
      <trkpt lat="43.60707" lon="1.0659">
        <ele>149.62</ele>
        <time>2021-08-18T14:35:48Z</time>
      </trkpt>
      <trkpt lat="43.60698" lon="1.06561">
        <ele>149.62</ele>
        <time>2021-08-18T14:35:54Z</time>
      </trkpt>
      <trkpt lat="43.60687" lon="1.06534">
        <ele>149.62</ele>
        <time>2021-08-18T14:36:00Z</time>
      </trkpt>
      <trkpt lat="43.60679" lon="1.06507">
        <ele>149.62</ele>
        <time>2021-08-18T14:36:06Z</time>
      </trkpt>
      <trkpt lat="43.60682" lon="1.0648">
        <ele>149.62</ele>
        <time>2021-08-18T14:36:13Z</time>
      </trkpt>
      <trkpt lat="43.60685" lon="1.06449">
        <ele>149.62</ele>
        <time>2021-08-18T14:36:20Z</time>
      </trkpt>
      <trkpt lat="43.60688" lon="1.06417">
        <ele>149.62</ele>
        <time>2021-08-18T14:36:26Z</time>
      </trkpt>
      <trkpt lat="43.60689" lon="1.06395">
        <ele>149.62</ele>
        <time>2021-08-18T14:36:32Z</time>
      </trkpt>
      <trkpt lat="43.60688" lon="1.06365">
        <ele>149.62</ele>
        <time>2021-08-18T14:36:38Z</time>
      </trkpt>
      <trkpt lat="43.60689" lon="1.06359">
        <ele>149.62</ele>
        <time>2021-08-18T14:36:39Z</time>
      </trkpt>
      <trkpt lat="43.60688" lon="1.06315">
        <ele>149.62</ele>
        <time>2021-08-18T14:36:47Z</time>
      </trkpt>
      <trkpt lat="43.60683" lon="1.0628">
        <ele>149.62</ele>
        <time>2021-08-18T14:36:54Z</time>
      </trkpt>
      <trkpt lat="43.60676" lon="1.0624">
        <ele>149.62</ele>
        <time>2021-08-18T14:37:02Z</time>
      </trkpt>
      <trkpt lat="43.60669" lon="1.06205">
        <ele>149.62</ele>
        <time>2021-08-18T14:37:09Z</time>
      </trkpt>
      <trkpt lat="43.60666" lon="1.06187">
        <ele>148.18</ele>
        <time>2021-08-18T14:37:13Z</time>
      </trkpt>
      <trkpt lat="43.60661" lon="1.06171">
        <ele>148.18</ele>
        <time>2021-08-18T14:37:16Z</time>
      </trkpt>
      <trkpt lat="43.60659" lon="1.06167">
        <ele>148.18</ele>
        <time>2021-08-18T14:37:17Z</time>
      </trkpt>
      <trkpt lat="43.60658" lon="1.06162">
        <ele>148.18</ele>
        <time>2021-08-18T14:37:18Z</time>
      </trkpt>
      <trkpt lat="43.60648" lon="1.06126">
        <ele>148.18</ele>
        <time>2021-08-18T14:37:26Z</time>
      </trkpt>
      <trkpt lat="43.60637" lon="1.06097">
        <ele>148.18</ele>
        <time>2021-08-18T14:37:33Z</time>
      </trkpt>
      <trkpt lat="43.6063" lon="1.06078">
        <ele>148.18</ele>
        <time>2021-08-18T14:37:37Z</time>
      </trkpt>
      <trkpt lat="43.60617" lon="1.06044">
        <ele>148.18</ele>
        <time>2021-08-18T14:37:44Z</time>
      </trkpt>
      <trkpt lat="43.60606" lon="1.0601">
        <ele>148.18</ele>
        <time>2021-08-18T14:37:52Z</time>
      </trkpt>
      <trkpt lat="43.60594" lon="1.05978">
        <ele>148.18</ele>
        <time>2021-08-18T14:37:59Z</time>
      </trkpt>
      <trkpt lat="43.60582" lon="1.05943">
        <ele>147.7</ele>
        <time>2021-08-18T14:38:06Z</time>
      </trkpt>
      <trkpt lat="43.60575" lon="1.05924">
        <ele>147.7</ele>
        <time>2021-08-18T14:38:10Z</time>
      </trkpt>
      <trkpt lat="43.60572" lon="1.0592">
        <ele>147.7</ele>
        <time>2021-08-18T14:38:11Z</time>
      </trkpt>
      <trkpt lat="43.6057" lon="1.05915">
        <ele>147.7</ele>
        <time>2021-08-18T14:38:12Z</time>
      </trkpt>
      <trkpt lat="43.60568" lon="1.0591">
        <ele>147.7</ele>
        <time>2021-08-18T14:38:13Z</time>
      </trkpt>
      <trkpt lat="43.60567" lon="1.05904">
        <ele>147.7</ele>
        <time>2021-08-18T14:38:14Z</time>
      </trkpt>
      <trkpt lat="43.60548" lon="1.05849">
        <ele>147.7</ele>
        <time>2021-08-18T14:38:24Z</time>
      </trkpt>
      <trkpt lat="43.60538" lon="1.05817">
        <ele>147.7</ele>
        <time>2021-08-18T14:38:31Z</time>
      </trkpt>
      <trkpt lat="43.6053" lon="1.05796">
        <ele>149.14</ele>
        <time>2021-08-18T14:38:36Z</time>
      </trkpt>
      <trkpt lat="43.60526" lon="1.05779">
        <ele>149.14</ele>
        <time>2021-08-18T14:38:40Z</time>
      </trkpt>
      <trkpt lat="43.60512" lon="1.05743">
        <ele>149.14</ele>
        <time>2021-08-18T14:38:47Z</time>
      </trkpt>
      <trkpt lat="43.605" lon="1.0571">
        <ele>149.14</ele>
        <time>2021-08-18T14:38:55Z</time>
      </trkpt>
      <trkpt lat="43.60488" lon="1.05673">
        <ele>149.14</ele>
        <time>2021-08-18T14:39:03Z</time>
      </trkpt>
      <trkpt lat="43.60476" lon="1.05641">
        <ele>149.14</ele>
        <time>2021-08-18T14:39:10Z</time>
      </trkpt>
      <trkpt lat="43.60461" lon="1.05601">
        <ele>149.14</ele>
        <time>2021-08-18T14:39:19Z</time>
      </trkpt>
      <trkpt lat="43.60453" lon="1.05565">
        <ele>148.66</ele>
        <time>2021-08-18T14:39:27Z</time>
      </trkpt>
      <trkpt lat="43.60463" lon="1.05546">
        <ele>148.66</ele>
        <time>2021-08-18T14:39:32Z</time>
      </trkpt>
      <trkpt lat="43.60483" lon="1.05523">
        <ele>149.14</ele>
        <time>2021-08-18T14:39:39Z</time>
      </trkpt>
      <trkpt lat="43.605" lon="1.05496">
        <ele>149.62</ele>
        <time>2021-08-18T14:39:46Z</time>
      </trkpt>
      <trkpt lat="43.60511" lon="1.05464">
        <ele>149.62</ele>
        <time>2021-08-18T14:39:53Z</time>
      </trkpt>
      <trkpt lat="43.6053" lon="1.05425">
        <ele>150.58</ele>
        <time>2021-08-18T14:40:02Z</time>
      </trkpt>
      <trkpt lat="43.60548" lon="1.05386">
        <ele>151.06</ele>
        <time>2021-08-18T14:40:11Z</time>
      </trkpt>
      <trkpt lat="43.60555" lon="1.05364">
        <ele>152.51</ele>
        <time>2021-08-18T14:40:18Z</time>
      </trkpt>
      <trkpt lat="43.60555" lon="1.05348">
        <ele>153.95</ele>
        <time>2021-08-18T14:40:24Z</time>
      </trkpt>
      <trkpt lat="43.60553" lon="1.05345">
        <ele>153.95</ele>
        <time>2021-08-18T14:40:25Z</time>
      </trkpt>
      <trkpt lat="43.60551" lon="1.05343">
        <ele>153.95</ele>
        <time>2021-08-18T14:40:26Z</time>
      </trkpt>
      <trkpt lat="43.60548" lon="1.05341">
        <ele>153.95</ele>
        <time>2021-08-18T14:40:27Z</time>
      </trkpt>
      <trkpt lat="43.60546" lon="1.05339">
        <ele>153.95</ele>
        <time>2021-08-18T14:40:28Z</time>
      </trkpt>
      <trkpt lat="43.60543" lon="1.05336">
        <ele>153.95</ele>
        <time>2021-08-18T14:40:29Z</time>
      </trkpt>
      <trkpt lat="43.6054" lon="1.05334">
        <ele>153.95</ele>
        <time>2021-08-18T14:40:30Z</time>
      </trkpt>
      <trkpt lat="43.60514" lon="1.05309">
        <ele>152.51</ele>
        <time>2021-08-18T14:40:37Z</time>
      </trkpt>
      <trkpt lat="43.60509" lon="1.05305">
        <ele>152.51</ele>
        <time>2021-08-18T14:40:38Z</time>
      </trkpt>
      <trkpt lat="43.60464" lon="1.05259">
        <ele>151.06</ele>
        <time>2021-08-18T14:40:47Z</time>
      </trkpt>
      <trkpt lat="43.60449" lon="1.05241">
        <ele>150.1</ele>
        <time>2021-08-18T14:40:50Z</time>
      </trkpt>
      <trkpt lat="43.604" lon="1.05155">
        <ele>149.62</ele>
        <time>2021-08-18T14:41:02Z</time>
      </trkpt>
      <trkpt lat="43.60374" lon="1.05095">
        <ele>149.62</ele>
        <time>2021-08-18T14:41:10Z</time>
      </trkpt>
      <trkpt lat="43.60372" lon="1.05087">
        <ele>149.62</ele>
        <time>2021-08-18T14:41:11Z</time>
      </trkpt>
      <trkpt lat="43.60371" lon="1.0508">
        <ele>149.62</ele>
        <time>2021-08-18T14:41:12Z</time>
      </trkpt>
      <trkpt lat="43.60372" lon="1.05072">
        <ele>149.62</ele>
        <time>2021-08-18T14:41:13Z</time>
      </trkpt>
      <trkpt lat="43.60374" lon="1.05065">
        <ele>149.62</ele>
        <time>2021-08-18T14:41:14Z</time>
      </trkpt>
      <trkpt lat="43.60376" lon="1.05059">
        <ele>149.62</ele>
        <time>2021-08-18T14:41:15Z</time>
      </trkpt>
      <trkpt lat="43.60377" lon="1.05051">
        <ele>149.62</ele>
        <time>2021-08-18T14:41:16Z</time>
      </trkpt>
      <trkpt lat="43.60377" lon="1.05043">
        <ele>149.62</ele>
        <time>2021-08-18T14:41:17Z</time>
      </trkpt>
      <trkpt lat="43.60376" lon="1.05036">
        <ele>149.62</ele>
        <time>2021-08-18T14:41:18Z</time>
      </trkpt>
      <trkpt lat="43.60374" lon="1.05028">
        <ele>149.62</ele>
        <time>2021-08-18T14:41:19Z</time>
      </trkpt>
      <trkpt lat="43.60366" lon="1.04981">
        <ele>149.62</ele>
        <time>2021-08-18T14:41:25Z</time>
      </trkpt>
      <trkpt lat="43.60366" lon="1.04973">
        <ele>149.62</ele>
        <time>2021-08-18T14:41:26Z</time>
      </trkpt>
      <trkpt lat="43.60367" lon="1.04965">
        <ele>149.62</ele>
        <time>2021-08-18T14:41:27Z</time>
      </trkpt>
      <trkpt lat="43.60368" lon="1.04957">
        <ele>149.62</ele>
        <time>2021-08-18T14:41:28Z</time>
      </trkpt>
      <trkpt lat="43.60371" lon="1.0495">
        <ele>149.62</ele>
        <time>2021-08-18T14:41:29Z</time>
      </trkpt>
      <trkpt lat="43.60373" lon="1.04943">
        <ele>149.62</ele>
        <time>2021-08-18T14:41:30Z</time>
      </trkpt>
      <trkpt lat="43.60393" lon="1.04889">
        <ele>149.62</ele>
        <time>2021-08-18T14:41:38Z</time>
      </trkpt>
      <trkpt lat="43.60396" lon="1.04878">
        <ele>151.06</ele>
        <time>2021-08-18T14:41:40Z</time>
      </trkpt>
      <trkpt lat="43.60405" lon="1.04856">
        <ele>152.51</ele>
        <time>2021-08-18T14:41:46Z</time>
      </trkpt>
      <trkpt lat="43.60415" lon="1.04832">
        <ele>154.43</ele>
        <time>2021-08-18T14:41:55Z</time>
      </trkpt>
      <trkpt lat="43.60429" lon="1.04814">
        <ele>154.43</ele>
        <time>2021-08-18T14:42:01Z</time>
      </trkpt>
      <trkpt lat="43.60435" lon="1.04807">
        <ele>152.51</ele>
        <time>2021-08-18T14:42:03Z</time>
      </trkpt>
      <trkpt lat="43.6044" lon="1.04803">
        <ele>152.51</ele>
        <time>2021-08-18T14:42:04Z</time>
      </trkpt>
      <trkpt lat="43.60448" lon="1.04791">
        <ele>151.06</ele>
        <time>2021-08-18T14:42:06Z</time>
      </trkpt>
      <trkpt lat="43.60452" lon="1.04784">
        <ele>150.58</ele>
        <time>2021-08-18T14:42:07Z</time>
      </trkpt>
      <trkpt lat="43.60455" lon="1.04777">
        <ele>150.58</ele>
        <time>2021-08-18T14:42:08Z</time>
      </trkpt>
      <trkpt lat="43.60473" lon="1.04738">
        <ele>150.1</ele>
        <time>2021-08-18T14:42:15Z</time>
      </trkpt>
      <trkpt lat="43.60496" lon="1.04692">
        <ele>150.1</ele>
        <time>2021-08-18T14:42:24Z</time>
      </trkpt>
      <trkpt lat="43.60522" lon="1.04644">
        <ele>150.1</ele>
        <time>2021-08-18T14:42:33Z</time>
      </trkpt>
      <trkpt lat="43.60544" lon="1.04601">
        <ele>151.54</ele>
        <time>2021-08-18T14:42:41Z</time>
      </trkpt>
      <trkpt lat="43.60573" lon="1.04545">
        <ele>152.51</ele>
        <time>2021-08-18T14:42:52Z</time>
      </trkpt>
      <trkpt lat="43.60597" lon="1.04497">
        <ele>152.51</ele>
        <time>2021-08-18T14:43:01Z</time>
      </trkpt>
      <trkpt lat="43.60629" lon="1.04434">
        <ele>152.51</ele>
        <time>2021-08-18T14:43:12Z</time>
      </trkpt>
      <trkpt lat="43.60654" lon="1.04384">
        <ele>152.51</ele>
        <time>2021-08-18T14:43:21Z</time>
      </trkpt>
      <trkpt lat="43.6067" lon="1.04352">
        <ele>153.47</ele>
        <time>2021-08-18T14:43:27Z</time>
      </trkpt>
      <trkpt lat="43.60673" lon="1.04347">
        <ele>153.47</ele>
        <time>2021-08-18T14:43:28Z</time>
      </trkpt>
      <trkpt lat="43.60675" lon="1.04341">
        <ele>153.47</ele>
        <time>2021-08-18T14:43:29Z</time>
      </trkpt>
      <trkpt lat="43.60677" lon="1.04336">
        <ele>153.47</ele>
        <time>2021-08-18T14:43:30Z</time>
      </trkpt>
      <trkpt lat="43.60679" lon="1.04331">
        <ele>153.47</ele>
        <time>2021-08-18T14:43:31Z</time>
      </trkpt>
      <trkpt lat="43.60682" lon="1.04326">
        <ele>153.47</ele>
        <time>2021-08-18T14:43:32Z</time>
      </trkpt>
      <trkpt lat="43.60685" lon="1.04321">
        <ele>153.47</ele>
        <time>2021-08-18T14:43:33Z</time>
      </trkpt>
      <trkpt lat="43.60705" lon="1.04282">
        <ele>153.47</ele>
        <time>2021-08-18T14:43:41Z</time>
      </trkpt>
      <trkpt lat="43.60723" lon="1.04246">
        <ele>153.47</ele>
        <time>2021-08-18T14:43:48Z</time>
      </trkpt>
      <trkpt lat="43.60733" lon="1.04229">
        <ele>153.47</ele>
        <time>2021-08-18T14:43:52Z</time>
      </trkpt>
      <trkpt lat="43.60735" lon="1.04224">
        <ele>153.47</ele>
        <time>2021-08-18T14:43:53Z</time>
      </trkpt>
      <trkpt lat="43.60737" lon="1.04218">
        <ele>153.47</ele>
        <time>2021-08-18T14:43:54Z</time>
      </trkpt>
      <trkpt lat="43.6074" lon="1.04213">
        <ele>153.47</ele>
        <time>2021-08-18T14:43:55Z</time>
      </trkpt>
      <trkpt lat="43.60742" lon="1.04207">
        <ele>153.47</ele>
        <time>2021-08-18T14:43:56Z</time>
      </trkpt>
      <trkpt lat="43.60743" lon="1.04202">
        <ele>153.47</ele>
        <time>2021-08-18T14:43:57Z</time>
      </trkpt>
      <trkpt lat="43.60759" lon="1.04157">
        <ele>153.47</ele>
        <time>2021-08-18T14:44:05Z</time>
      </trkpt>
      <trkpt lat="43.60766" lon="1.04142">
        <ele>152.99</ele>
        <time>2021-08-18T14:44:08Z</time>
      </trkpt>
      <trkpt lat="43.60781" lon="1.041">
        <ele>152.99</ele>
        <time>2021-08-18T14:44:16Z</time>
      </trkpt>
      <trkpt lat="43.60781" lon="1.04093">
        <ele>152.99</ele>
        <time>2021-08-18T14:44:17Z</time>
      </trkpt>
      <trkpt lat="43.60782" lon="1.04086">
        <ele>152.99</ele>
        <time>2021-08-18T14:44:18Z</time>
      </trkpt>
      <trkpt lat="43.60783" lon="1.0408">
        <ele>152.99</ele>
        <time>2021-08-18T14:44:19Z</time>
      </trkpt>
      <trkpt lat="43.60784" lon="1.04074">
        <ele>152.99</ele>
        <time>2021-08-18T14:44:20Z</time>
      </trkpt>
      <trkpt lat="43.60786" lon="1.04069">
        <ele>152.99</ele>
        <time>2021-08-18T14:44:21Z</time>
      </trkpt>
      <trkpt lat="43.60792" lon="1.04047">
        <ele>153.47</ele>
        <time>2021-08-18T14:44:25Z</time>
      </trkpt>
      <trkpt lat="43.60803" lon="1.03993">
        <ele>153.95</ele>
        <time>2021-08-18T14:44:34Z</time>
      </trkpt>
      <trkpt lat="43.60815" lon="1.03929">
        <ele>155.87</ele>
        <time>2021-08-18T14:44:45Z</time>
      </trkpt>
      <trkpt lat="43.60816" lon="1.03923">
        <ele>153.95</ele>
        <time>2021-08-18T14:44:46Z</time>
      </trkpt>
      <trkpt lat="43.60817" lon="1.03917">
        <ele>153.95</ele>
        <time>2021-08-18T14:44:47Z</time>
      </trkpt>
      <trkpt lat="43.60824" lon="1.03882">
        <ele>153.95</ele>
        <time>2021-08-18T14:44:53Z</time>
      </trkpt>
      <trkpt lat="43.60834" lon="1.03839">
        <ele>153.95</ele>
        <time>2021-08-18T14:45:01Z</time>
      </trkpt>
      <trkpt lat="43.60838" lon="1.03824">
        <ele>155.39</ele>
        <time>2021-08-18T14:45:04Z</time>
      </trkpt>
      <trkpt lat="43.60852" lon="1.03782">
        <ele>155.39</ele>
        <time>2021-08-18T14:45:13Z</time>
      </trkpt>
      <trkpt lat="43.60861" lon="1.03756">
        <ele>155.39</ele>
        <time>2021-08-18T14:45:19Z</time>
      </trkpt>
      <trkpt lat="43.60876" lon="1.03716">
        <ele>155.39</ele>
        <time>2021-08-18T14:45:28Z</time>
      </trkpt>
      <trkpt lat="43.60893" lon="1.03669">
        <ele>155.87</ele>
        <time>2021-08-18T14:45:39Z</time>
      </trkpt>
      <trkpt lat="43.60893" lon="1.03647">
        <ele>156.35</ele>
        <time>2021-08-18T14:45:45Z</time>
      </trkpt>
      <trkpt lat="43.60881" lon="1.03613">
        <ele>156.35</ele>
        <time>2021-08-18T14:45:53Z</time>
      </trkpt>
      <trkpt lat="43.60868" lon="1.03573">
        <ele>156.83</ele>
        <time>2021-08-18T14:46:02Z</time>
      </trkpt>
      <trkpt lat="43.60854" lon="1.03532">
        <ele>158.27</ele>
        <time>2021-08-18T14:46:12Z</time>
      </trkpt>
      <trkpt lat="43.60845" lon="1.03504">
        <ele>159.24</ele>
        <time>2021-08-18T14:46:20Z</time>
      </trkpt>
      <trkpt lat="43.60836" lon="1.03481">
        <ele>160.68</ele>
        <time>2021-08-18T14:46:27Z</time>
      </trkpt>
      <trkpt lat="43.60827" lon="1.03455">
        <ele>161.64</ele>
        <time>2021-08-18T14:46:34Z</time>
      </trkpt>
      <trkpt lat="43.60816" lon="1.03424">
        <ele>162.6</ele>
        <time>2021-08-18T14:46:43Z</time>
      </trkpt>
      <trkpt lat="43.60803" lon="1.03391">
        <ele>164.04</ele>
        <time>2021-08-18T14:46:52Z</time>
      </trkpt>
      <trkpt lat="43.6079" lon="1.03354">
        <ele>164.04</ele>
        <time>2021-08-18T14:47:00Z</time>
      </trkpt>
      <trkpt lat="43.60774" lon="1.03307">
        <ele>165.48</ele>
        <time>2021-08-18T14:47:10Z</time>
      </trkpt>
      <trkpt lat="43.60761" lon="1.03269">
        <ele>166.45</ele>
        <time>2021-08-18T14:47:19Z</time>
      </trkpt>
      <trkpt lat="43.60749" lon="1.03236">
        <ele>167.41</ele>
        <time>2021-08-18T14:47:27Z</time>
      </trkpt>
      <trkpt lat="43.60735" lon="1.03199">
        <ele>168.85</ele>
        <time>2021-08-18T14:47:36Z</time>
      </trkpt>
      <trkpt lat="43.6072" lon="1.03157">
        <ele>170.77</ele>
        <time>2021-08-18T14:47:46Z</time>
      </trkpt>
      <trkpt lat="43.60701" lon="1.0311">
        <ele>171.73</ele>
        <time>2021-08-18T14:47:57Z</time>
      </trkpt>
      <trkpt lat="43.60694" lon="1.03083">
        <ele>172.21</ele>
        <time>2021-08-18T14:48:03Z</time>
      </trkpt>
      <trkpt lat="43.60683" lon="1.03051">
        <ele>173.17</ele>
        <time>2021-08-18T14:48:11Z</time>
      </trkpt>
      <trkpt lat="43.6067" lon="1.03008">
        <ele>174.14</ele>
        <time>2021-08-18T14:48:21Z</time>
      </trkpt>
      <trkpt lat="43.60659" lon="1.02979">
        <ele>175.1</ele>
        <time>2021-08-18T14:48:28Z</time>
      </trkpt>
      <trkpt lat="43.60647" lon="1.02947">
        <ele>176.54</ele>
        <time>2021-08-18T14:48:36Z</time>
      </trkpt>
      <trkpt lat="43.60638" lon="1.02922">
        <ele>178.94</ele>
        <time>2021-08-18T14:48:43Z</time>
      </trkpt>
      <trkpt lat="43.60636" lon="1.02919">
        <ele>178.94</ele>
        <time>2021-08-18T14:48:44Z</time>
      </trkpt>
      <trkpt lat="43.60627" lon="1.0289">
        <ele>178.94</ele>
        <time>2021-08-18T14:48:51Z</time>
      </trkpt>
      <trkpt lat="43.60615" lon="1.02856">
        <ele>179.42</ele>
        <time>2021-08-18T14:48:59Z</time>
      </trkpt>
      <trkpt lat="43.60603" lon="1.02823">
        <ele>179.9</ele>
        <time>2021-08-18T14:49:07Z</time>
      </trkpt>
      <trkpt lat="43.60595" lon="1.02798">
        <ele>180.38</ele>
        <time>2021-08-18T14:49:13Z</time>
      </trkpt>
      <trkpt lat="43.60579" lon="1.02751">
        <ele>181.35</ele>
        <time>2021-08-18T14:49:23Z</time>
      </trkpt>
      <trkpt lat="43.6056" lon="1.02699">
        <ele>182.31</ele>
        <time>2021-08-18T14:49:34Z</time>
      </trkpt>
      <trkpt lat="43.60544" lon="1.02654">
        <ele>181.83</ele>
        <time>2021-08-18T14:49:42Z</time>
      </trkpt>
      <trkpt lat="43.60523" lon="1.02594">
        <ele>181.83</ele>
        <time>2021-08-18T14:49:51Z</time>
      </trkpt>
      <trkpt lat="43.60506" lon="1.02544">
        <ele>182.79</ele>
        <time>2021-08-18T14:49:59Z</time>
      </trkpt>
      <trkpt lat="43.6049" lon="1.02501">
        <ele>184.23</ele>
        <time>2021-08-18T14:50:07Z</time>
      </trkpt>
      <trkpt lat="43.60478" lon="1.02465">
        <ele>185.67</ele>
        <time>2021-08-18T14:50:16Z</time>
      </trkpt>
      <trkpt lat="43.60465" lon="1.02428">
        <ele>187.59</ele>
        <time>2021-08-18T14:50:26Z</time>
      </trkpt>
      <trkpt lat="43.60454" lon="1.02396">
        <ele>188.56</ele>
        <time>2021-08-18T14:50:35Z</time>
      </trkpt>
      <trkpt lat="43.60447" lon="1.02376">
        <ele>190</ele>
        <time>2021-08-18T14:50:43Z</time>
      </trkpt>
      <trkpt lat="43.6044" lon="1.02354">
        <ele>191.92</ele>
        <time>2021-08-18T14:50:52Z</time>
      </trkpt>
      <trkpt lat="43.60432" lon="1.02331">
        <ele>193.84</ele>
        <time>2021-08-18T14:51:01Z</time>
      </trkpt>
      <trkpt lat="43.60422" lon="1.02299">
        <ele>195.28</ele>
        <time>2021-08-18T14:51:12Z</time>
      </trkpt>
      <trkpt lat="43.60414" lon="1.02276">
        <ele>196.73</ele>
        <time>2021-08-18T14:51:20Z</time>
      </trkpt>
      <trkpt lat="43.60406" lon="1.02252">
        <ele>199.13</ele>
        <time>2021-08-18T14:51:30Z</time>
      </trkpt>
      <trkpt lat="43.60397" lon="1.02232">
        <ele>200.57</ele>
        <time>2021-08-18T14:51:39Z</time>
      </trkpt>
      <trkpt lat="43.60388" lon="1.02203">
        <ele>202.49</ele>
        <time>2021-08-18T14:51:49Z</time>
      </trkpt>
      <trkpt lat="43.60381" lon="1.02174">
        <ele>203.46</ele>
        <time>2021-08-18T14:51:58Z</time>
      </trkpt>
      <trkpt lat="43.60375" lon="1.02136">
        <ele>203.46</ele>
        <time>2021-08-18T14:52:06Z</time>
      </trkpt>
      <trkpt lat="43.60365" lon="1.02081">
        <ele>203.94</ele>
        <time>2021-08-18T14:52:15Z</time>
      </trkpt>
      <trkpt lat="43.60355" lon="1.02024">
        <ele>204.42</ele>
        <time>2021-08-18T14:52:24Z</time>
      </trkpt>
      <trkpt lat="43.60343" lon="1.01959">
        <ele>205.86</ele>
        <time>2021-08-18T14:52:35Z</time>
      </trkpt>
      <trkpt lat="43.60343" lon="1.01953">
        <ele>206.34</ele>
        <time>2021-08-18T14:52:36Z</time>
      </trkpt>
      <trkpt lat="43.60342" lon="1.01947">
        <ele>206.34</ele>
        <time>2021-08-18T14:52:37Z</time>
      </trkpt>
      <trkpt lat="43.6033" lon="1.01888">
        <ele>206.82</ele>
        <time>2021-08-18T14:52:47Z</time>
      </trkpt>
      <trkpt lat="43.6032" lon="1.01833">
        <ele>208.74</ele>
        <time>2021-08-18T14:52:56Z</time>
      </trkpt>
      <trkpt lat="43.60308" lon="1.01771">
        <ele>209.22</ele>
        <time>2021-08-18T14:53:06Z</time>
      </trkpt>
      <trkpt lat="43.60304" lon="1.0175">
        <ele>208.26</ele>
        <time>2021-08-18T14:53:09Z</time>
      </trkpt>
      <trkpt lat="43.60296" lon="1.01722">
        <ele>207.3</ele>
        <time>2021-08-18T14:53:13Z</time>
      </trkpt>
      <trkpt lat="43.60295" lon="1.01715">
        <ele>207.3</ele>
        <time>2021-08-18T14:53:14Z</time>
      </trkpt>
      <trkpt lat="43.60289" lon="1.01685">
        <ele>205.86</ele>
        <time>2021-08-18T14:53:18Z</time>
      </trkpt>
      <trkpt lat="43.60278" lon="1.01629">
        <ele>204.9</ele>
        <time>2021-08-18T14:53:26Z</time>
      </trkpt>
      <trkpt lat="43.60274" lon="1.01585">
        <ele>204.9</ele>
        <time>2021-08-18T14:53:33Z</time>
      </trkpt>
      <trkpt lat="43.60269" lon="1.01554">
        <ele>204.9</ele>
        <time>2021-08-18T14:53:39Z</time>
      </trkpt>
      <trkpt lat="43.60266" lon="1.0155">
        <ele>204.9</ele>
        <time>2021-08-18T14:53:40Z</time>
      </trkpt>
      <trkpt lat="43.60263" lon="1.01546">
        <ele>206.34</ele>
        <time>2021-08-18T14:53:41Z</time>
      </trkpt>
      <trkpt lat="43.60261" lon="1.01541">
        <ele>206.34</ele>
        <time>2021-08-18T14:53:42Z</time>
      </trkpt>
      <trkpt lat="43.6026" lon="1.01536">
        <ele>206.34</ele>
        <time>2021-08-18T14:53:43Z</time>
      </trkpt>
      <trkpt lat="43.60259" lon="1.01531">
        <ele>206.82</ele>
        <time>2021-08-18T14:53:44Z</time>
      </trkpt>
      <trkpt lat="43.60259" lon="1.01526">
        <ele>206.82</ele>
        <time>2021-08-18T14:53:45Z</time>
      </trkpt>
      <trkpt lat="43.60259" lon="1.01499">
        <ele>207.78</ele>
        <time>2021-08-18T14:53:51Z</time>
      </trkpt>
      <trkpt lat="43.60259" lon="1.01467">
        <ele>208.26</ele>
        <time>2021-08-18T14:53:59Z</time>
      </trkpt>
      <trkpt lat="43.60259" lon="1.01429">
        <ele>209.22</ele>
        <time>2021-08-18T14:54:08Z</time>
      </trkpt>
      <trkpt lat="43.60259" lon="1.01395">
        <ele>209.7</ele>
        <time>2021-08-18T14:54:16Z</time>
      </trkpt>
      <trkpt lat="43.60259" lon="1.01342">
        <ele>211.63</ele>
        <time>2021-08-18T14:54:28Z</time>
      </trkpt>
      <trkpt lat="43.60257" lon="1.01298">
        <ele>212.59</ele>
        <time>2021-08-18T14:54:38Z</time>
      </trkpt>
      <trkpt lat="43.60256" lon="1.01261">
        <ele>213.07</ele>
        <time>2021-08-18T14:54:47Z</time>
      </trkpt>
      <trkpt lat="43.60253" lon="1.01204">
        <ele>214.51</ele>
        <time>2021-08-18T14:55:01Z</time>
      </trkpt>
      <trkpt lat="43.60251" lon="1.01158">
        <ele>216.43</ele>
        <time>2021-08-18T14:55:12Z</time>
      </trkpt>
      <trkpt lat="43.60249" lon="1.01123">
        <ele>217.4</ele>
        <time>2021-08-18T14:55:21Z</time>
      </trkpt>
      <trkpt lat="43.6025" lon="1.01099">
        <ele>217.88</ele>
        <time>2021-08-18T14:55:28Z</time>
      </trkpt>
      <trkpt lat="43.60251" lon="1.01062">
        <ele>218.36</ele>
        <time>2021-08-18T14:55:37Z</time>
      </trkpt>
      <trkpt lat="43.60251" lon="1.01029">
        <ele>219.32</ele>
        <time>2021-08-18T14:55:45Z</time>
      </trkpt>
      <trkpt lat="43.60252" lon="1.00991">
        <ele>219.8</ele>
        <time>2021-08-18T14:55:54Z</time>
      </trkpt>
      <trkpt lat="43.60257" lon="1.00956">
        <ele>220.76</ele>
        <time>2021-08-18T14:56:03Z</time>
      </trkpt>
      <trkpt lat="43.60263" lon="1.00931">
        <ele>221.24</ele>
        <time>2021-08-18T14:56:10Z</time>
      </trkpt>
      <trkpt lat="43.60271" lon="1.00891">
        <ele>221.72</ele>
        <time>2021-08-18T14:56:19Z</time>
      </trkpt>
      <trkpt lat="43.6028" lon="1.0085">
        <ele>222.2</ele>
        <time>2021-08-18T14:56:29Z</time>
      </trkpt>
      <trkpt lat="43.60281" lon="1.00839">
        <ele>222.2</ele>
        <time>2021-08-18T14:56:32Z</time>
      </trkpt>
      <trkpt lat="43.6028" lon="1.00836">
        <ele>222.2</ele>
        <time>2021-08-18T14:56:33Z</time>
      </trkpt>
      <trkpt lat="43.60279" lon="1.00833">
        <ele>220.76</ele>
        <time>2021-08-18T14:56:34Z</time>
      </trkpt>
      <trkpt lat="43.60278" lon="1.00831">
        <ele>220.76</ele>
        <time>2021-08-18T14:56:35Z</time>
      </trkpt>
      <trkpt lat="43.60276" lon="1.00828">
        <ele>220.76</ele>
        <time>2021-08-18T14:56:36Z</time>
      </trkpt>
      <trkpt lat="43.60274" lon="1.00826">
        <ele>220.76</ele>
        <time>2021-08-18T14:56:37Z</time>
      </trkpt>
      <trkpt lat="43.60272" lon="1.00824">
        <ele>220.76</ele>
        <time>2021-08-18T14:56:38Z</time>
      </trkpt>
      <trkpt lat="43.60261" lon="1.00816">
        <ele>218.84</ele>
        <time>2021-08-18T14:56:42Z</time>
      </trkpt>
      <trkpt lat="43.60259" lon="1.0081">
        <ele>218.84</ele>
        <time>2021-08-18T14:56:43Z</time>
      </trkpt>
      <trkpt lat="43.60258" lon="1.00805">
        <ele>218.36</ele>
        <time>2021-08-18T14:56:44Z</time>
      </trkpt>
      <trkpt lat="43.60255" lon="1.0077">
        <ele>215.95</ele>
        <time>2021-08-18T14:56:49Z</time>
      </trkpt>
      <trkpt lat="43.60252" lon="1.00738">
        <ele>213.07</ele>
        <time>2021-08-18T14:56:52Z</time>
      </trkpt>
      <trkpt lat="43.60247" lon="1.00685">
        <ele>209.22</ele>
        <time>2021-08-18T14:56:56Z</time>
      </trkpt>
      <trkpt lat="43.6024" lon="1.00635">
        <ele>208.26</ele>
        <time>2021-08-18T14:57:00Z</time>
      </trkpt>
      <trkpt lat="43.60226" lon="1.00584">
        <ele>204.9</ele>
        <time>2021-08-18T14:57:04Z</time>
      </trkpt>
      <trkpt lat="43.60221" lon="1.00557">
        <ele>204.42</ele>
        <time>2021-08-18T14:57:06Z</time>
      </trkpt>
      <trkpt lat="43.602" lon="1.00485">
        <ele>202.98</ele>
        <time>2021-08-18T14:57:12Z</time>
      </trkpt>
      <trkpt lat="43.60184" lon="1.00443">
        <ele>201.53</ele>
        <time>2021-08-18T14:57:16Z</time>
      </trkpt>
      <trkpt lat="43.60168" lon="1.00399">
        <ele>199.61</ele>
        <time>2021-08-18T14:57:20Z</time>
      </trkpt>
      <trkpt lat="43.60163" lon="1.00392">
        <ele>199.61</ele>
        <time>2021-08-18T14:57:21Z</time>
      </trkpt>
      <trkpt lat="43.60157" lon="1.00386">
        <ele>199.61</ele>
        <time>2021-08-18T14:57:22Z</time>
      </trkpt>
      <trkpt lat="43.60151" lon="1.00381">
        <ele>199.61</ele>
        <time>2021-08-18T14:57:23Z</time>
      </trkpt>
      <trkpt lat="43.60144" lon="1.00376">
        <ele>199.61</ele>
        <time>2021-08-18T14:57:24Z</time>
      </trkpt>
      <trkpt lat="43.60123" lon="1.00362">
        <ele>201.05</ele>
        <time>2021-08-18T14:57:28Z</time>
      </trkpt>
      <trkpt lat="43.60106" lon="1.00348">
        <ele>203.46</ele>
        <time>2021-08-18T14:57:34Z</time>
      </trkpt>
      <trkpt lat="43.60096" lon="1.00336">
        <ele>204.42</ele>
        <time>2021-08-18T14:57:41Z</time>
      </trkpt>
      <trkpt lat="43.60086" lon="1.00318">
        <ele>205.38</ele>
        <time>2021-08-18T14:57:49Z</time>
      </trkpt>
      <trkpt lat="43.60077" lon="1.00301">
        <ele>205.38</ele>
        <time>2021-08-18T14:57:56Z</time>
      </trkpt>
      <trkpt lat="43.60066" lon="1.00277">
        <ele>207.78</ele>
        <time>2021-08-18T14:58:05Z</time>
      </trkpt>
      <trkpt lat="43.60059" lon="1.00259">
        <ele>208.74</ele>
        <time>2021-08-18T14:58:12Z</time>
      </trkpt>
      <trkpt lat="43.60052" lon="1.00239">
        <ele>209.7</ele>
        <time>2021-08-18T14:58:19Z</time>
      </trkpt>
      <trkpt lat="43.60041" lon="1.0022">
        <ele>210.19</ele>
        <time>2021-08-18T14:58:26Z</time>
      </trkpt>
      <trkpt lat="43.60026" lon="1.00197">
        <ele>211.63</ele>
        <time>2021-08-18T14:58:35Z</time>
      </trkpt>
      <trkpt lat="43.60018" lon="1.00179">
        <ele>212.59</ele>
        <time>2021-08-18T14:58:42Z</time>
      </trkpt>
      <trkpt lat="43.60005" lon="1.00154">
        <ele>214.51</ele>
        <time>2021-08-18T14:58:52Z</time>
      </trkpt>
      <trkpt lat="43.59994" lon="1.00129">
        <ele>215.95</ele>
        <time>2021-08-18T14:59:02Z</time>
      </trkpt>
      <trkpt lat="43.59983" lon="1.00109">
        <ele>214.03</ele>
        <time>2021-08-18T14:59:07Z</time>
      </trkpt>
      <trkpt lat="43.59972" lon="1.00089">
        <ele>212.11</ele>
        <time>2021-08-18T14:59:10Z</time>
      </trkpt>
      <trkpt lat="43.59964" lon="1.00072">
        <ele>210.67</ele>
        <time>2021-08-18T14:59:12Z</time>
      </trkpt>
      <trkpt lat="43.59956" lon="1.00053">
        <ele>209.22</ele>
        <time>2021-08-18T14:59:14Z</time>
      </trkpt>
      <trkpt lat="43.59942" lon="1.00009">
        <ele>208.74</ele>
        <time>2021-08-18T14:59:19Z</time>
      </trkpt>
      <trkpt lat="43.59935" lon="0.99986">
        <ele>208.74</ele>
        <time>2021-08-18T14:59:22Z</time>
      </trkpt>
      <trkpt lat="43.59917" lon="0.99921">
        <ele>205.38</ele>
        <time>2021-08-18T14:59:30Z</time>
      </trkpt>
      <trkpt lat="43.59911" lon="0.99902">
        <ele>202.49</ele>
        <time>2021-08-18T14:59:32Z</time>
      </trkpt>
      <trkpt lat="43.59907" lon="0.99893">
        <ele>201.53</ele>
        <time>2021-08-18T14:59:33Z</time>
      </trkpt>
      <trkpt lat="43.59902" lon="0.99884">
        <ele>200.09</ele>
        <time>2021-08-18T14:59:34Z</time>
      </trkpt>
      <trkpt lat="43.59896" lon="0.99875">
        <ele>199.61</ele>
        <time>2021-08-18T14:59:35Z</time>
      </trkpt>
      <trkpt lat="43.5989" lon="0.99867">
        <ele>198.17</ele>
        <time>2021-08-18T14:59:36Z</time>
      </trkpt>
      <trkpt lat="43.59871" lon="0.99841">
        <ele>194.8</ele>
        <time>2021-08-18T14:59:39Z</time>
      </trkpt>
      <trkpt lat="43.5986" lon="0.99825">
        <ele>193.36</ele>
        <time>2021-08-18T14:59:41Z</time>
      </trkpt>
      <trkpt lat="43.59855" lon="0.99816">
        <ele>191.92</ele>
        <time>2021-08-18T14:59:42Z</time>
      </trkpt>
      <trkpt lat="43.59851" lon="0.99807">
        <ele>191.44</ele>
        <time>2021-08-18T14:59:43Z</time>
      </trkpt>
      <trkpt lat="43.59841" lon="0.99774">
        <ele>189.52</ele>
        <time>2021-08-18T14:59:46Z</time>
      </trkpt>
      <trkpt lat="43.59834" lon="0.99739">
        <ele>186.15</ele>
        <time>2021-08-18T14:59:49Z</time>
      </trkpt>
      <trkpt lat="43.59833" lon="0.99727">
        <ele>185.19</ele>
        <time>2021-08-18T14:59:50Z</time>
      </trkpt>
      <trkpt lat="43.59831" lon="0.99646">
        <ele>182.31</ele>
        <time>2021-08-18T14:59:57Z</time>
      </trkpt>
      <trkpt lat="43.59823" lon="0.99583">
        <ele>181.83</ele>
        <time>2021-08-18T15:00:04Z</time>
      </trkpt>
      <trkpt lat="43.59815" lon="0.99533">
        <ele>181.83</ele>
        <time>2021-08-18T15:00:12Z</time>
      </trkpt>
      <trkpt lat="43.59811" lon="0.99497">
        <ele>181.83</ele>
        <time>2021-08-18T15:00:20Z</time>
      </trkpt>
      <trkpt lat="43.59803" lon="0.99466">
        <ele>181.83</ele>
        <time>2021-08-18T15:00:27Z</time>
      </trkpt>
      <trkpt lat="43.59797" lon="0.9944">
        <ele>181.83</ele>
        <time>2021-08-18T15:00:33Z</time>
      </trkpt>
      <trkpt lat="43.59794" lon="0.99407">
        <ele>181.83</ele>
        <time>2021-08-18T15:00:40Z</time>
      </trkpt>
      <trkpt lat="43.59795" lon="0.99388">
        <ele>183.27</ele>
        <time>2021-08-18T15:00:44Z</time>
      </trkpt>
      <trkpt lat="43.59795" lon="0.99359">
        <ele>184.71</ele>
        <time>2021-08-18T15:00:51Z</time>
      </trkpt>
      <trkpt lat="43.59795" lon="0.99338">
        <ele>185.19</ele>
        <time>2021-08-18T15:00:57Z</time>
      </trkpt>
      <trkpt lat="43.59793" lon="0.99309">
        <ele>186.15</ele>
        <time>2021-08-18T15:01:05Z</time>
      </trkpt>
      <trkpt lat="43.59792" lon="0.99277">
        <ele>187.11</ele>
        <time>2021-08-18T15:01:14Z</time>
      </trkpt>
      <trkpt lat="43.5979" lon="0.99254">
        <ele>188.56</ele>
        <time>2021-08-18T15:01:22Z</time>
      </trkpt>
      <trkpt lat="43.5979" lon="0.99234">
        <ele>190</ele>
        <time>2021-08-18T15:01:30Z</time>
      </trkpt>
      <trkpt lat="43.59791" lon="0.99213">
        <ele>190.96</ele>
        <time>2021-08-18T15:01:38Z</time>
      </trkpt>
      <trkpt lat="43.5979" lon="0.99193">
        <ele>191.44</ele>
        <time>2021-08-18T15:01:45Z</time>
      </trkpt>
      <trkpt lat="43.59787" lon="0.99164">
        <ele>192.88</ele>
        <time>2021-08-18T15:01:55Z</time>
      </trkpt>
      <trkpt lat="43.59784" lon="0.99133">
        <ele>193.84</ele>
        <time>2021-08-18T15:02:05Z</time>
      </trkpt>
      <trkpt lat="43.59782" lon="0.99105">
        <ele>195.28</ele>
        <time>2021-08-18T15:02:14Z</time>
      </trkpt>
      <trkpt lat="43.5978" lon="0.99079">
        <ele>196.25</ele>
        <time>2021-08-18T15:02:22Z</time>
      </trkpt>
      <trkpt lat="43.59778" lon="0.99059">
        <ele>196.73</ele>
        <time>2021-08-18T15:02:30Z</time>
      </trkpt>
      <trkpt lat="43.59777" lon="0.99033">
        <ele>197.69</ele>
        <time>2021-08-18T15:02:38Z</time>
      </trkpt>
      <trkpt lat="43.59774" lon="0.99004">
        <ele>198.17</ele>
        <time>2021-08-18T15:02:46Z</time>
      </trkpt>
      <trkpt lat="43.59772" lon="0.98973">
        <ele>199.61</ele>
        <time>2021-08-18T15:02:55Z</time>
      </trkpt>
      <trkpt lat="43.5977" lon="0.98941">
        <ele>200.57</ele>
        <time>2021-08-18T15:03:05Z</time>
      </trkpt>
      <trkpt lat="43.59768" lon="0.9891">
        <ele>202.01</ele>
        <time>2021-08-18T15:03:14Z</time>
      </trkpt>
      <trkpt lat="43.59766" lon="0.98882">
        <ele>202.98</ele>
        <time>2021-08-18T15:03:22Z</time>
      </trkpt>
      <trkpt lat="43.59763" lon="0.98861">
        <ele>203.94</ele>
        <time>2021-08-18T15:03:29Z</time>
      </trkpt>
      <trkpt lat="43.59761" lon="0.98855">
        <ele>203.94</ele>
        <time>2021-08-18T15:03:31Z</time>
      </trkpt>
      <trkpt lat="43.59761" lon="0.98852">
        <ele>204.42</ele>
        <time>2021-08-18T15:03:32Z</time>
      </trkpt>
      <trkpt lat="43.59761" lon="0.98849">
        <ele>203.94</ele>
        <time>2021-08-18T15:03:33Z</time>
      </trkpt>
      <trkpt lat="43.59761" lon="0.98845">
        <ele>204.9</ele>
        <time>2021-08-18T15:03:34Z</time>
      </trkpt>
      <trkpt lat="43.59761" lon="0.98842">
        <ele>204.9</ele>
        <time>2021-08-18T15:03:35Z</time>
      </trkpt>
      <trkpt lat="43.5976" lon="0.98839">
        <ele>204.9</ele>
        <time>2021-08-18T15:03:36Z</time>
      </trkpt>
      <trkpt lat="43.59756" lon="0.98811">
        <ele>205.38</ele>
        <time>2021-08-18T15:03:44Z</time>
      </trkpt>
      <trkpt lat="43.59752" lon="0.98788">
        <ele>206.82</ele>
        <time>2021-08-18T15:03:52Z</time>
      </trkpt>
      <trkpt lat="43.59748" lon="0.98767">
        <ele>208.26</ele>
        <time>2021-08-18T15:04:00Z</time>
      </trkpt>
      <trkpt lat="43.59742" lon="0.98747">
        <ele>208.74</ele>
        <time>2021-08-18T15:04:09Z</time>
      </trkpt>
      <trkpt lat="43.59733" lon="0.9873">
        <ele>210.67</ele>
        <time>2021-08-18T15:04:19Z</time>
      </trkpt>
      <trkpt lat="43.59724" lon="0.98716">
        <ele>211.63</ele>
        <time>2021-08-18T15:04:28Z</time>
      </trkpt>
      <trkpt lat="43.59713" lon="0.98705">
        <ele>213.07</ele>
        <time>2021-08-18T15:04:36Z</time>
      </trkpt>
      <trkpt lat="43.59702" lon="0.98692">
        <ele>214.51</ele>
        <time>2021-08-18T15:04:45Z</time>
      </trkpt>
      <trkpt lat="43.59701" lon="0.98691">
        <ele>214.51</ele>
        <time>2021-08-18T15:04:46Z</time>
      </trkpt>
      <trkpt lat="43.597" lon="0.98689">
        <ele>214.51</ele>
        <time>2021-08-18T15:04:47Z</time>
      </trkpt>
      <trkpt lat="43.59698" lon="0.98671">
        <ele>215.95</ele>
        <time>2021-08-18T15:04:56Z</time>
      </trkpt>
      <trkpt lat="43.59696" lon="0.98645">
        <ele>217.4</ele>
        <time>2021-08-18T15:05:06Z</time>
      </trkpt>
      <trkpt lat="43.59695" lon="0.98624">
        <ele>218.84</ele>
        <time>2021-08-18T15:05:14Z</time>
      </trkpt>
      <trkpt lat="43.59695" lon="0.98603">
        <ele>219.8</ele>
        <time>2021-08-18T15:05:22Z</time>
      </trkpt>
      <trkpt lat="43.59696" lon="0.98578">
        <ele>221.24</ele>
        <time>2021-08-18T15:05:30Z</time>
      </trkpt>
      <trkpt lat="43.59697" lon="0.98548">
        <ele>222.2</ele>
        <time>2021-08-18T15:05:39Z</time>
      </trkpt>
      <trkpt lat="43.59703" lon="0.98521">
        <ele>223.16</ele>
        <time>2021-08-18T15:05:46Z</time>
      </trkpt>
      <trkpt lat="43.59718" lon="0.98485">
        <ele>224.12</ele>
        <time>2021-08-18T15:05:54Z</time>
      </trkpt>
      <trkpt lat="43.59728" lon="0.98459">
        <ele>223.64</ele>
        <time>2021-08-18T15:05:59Z</time>
      </trkpt>
      <trkpt lat="43.5975" lon="0.98409">
        <ele>223.64</ele>
        <time>2021-08-18T15:06:08Z</time>
      </trkpt>
      <trkpt lat="43.59755" lon="0.98389">
        <ele>222.68</ele>
        <time>2021-08-18T15:06:11Z</time>
      </trkpt>
      <trkpt lat="43.59766" lon="0.98333">
        <ele>223.16</ele>
        <time>2021-08-18T15:06:19Z</time>
      </trkpt>
      <trkpt lat="43.59779" lon="0.98271">
        <ele>220.76</ele>
        <time>2021-08-18T15:06:27Z</time>
      </trkpt>
      <trkpt lat="43.5979" lon="0.9821">
        <ele>218.84</ele>
        <time>2021-08-18T15:06:35Z</time>
      </trkpt>
      <trkpt lat="43.59798" lon="0.98154">
        <ele>217.88</ele>
        <time>2021-08-18T15:06:43Z</time>
      </trkpt>
      <trkpt lat="43.59799" lon="0.98148">
        <ele>217.88</ele>
        <time>2021-08-18T15:06:44Z</time>
      </trkpt>
      <trkpt lat="43.59801" lon="0.98134">
        <ele>216.91</ele>
        <time>2021-08-18T15:06:48Z</time>
      </trkpt>
      <trkpt lat="43.59799" lon="0.98131">
        <ele>216.91</ele>
        <time>2021-08-18T15:06:49Z</time>
      </trkpt>
      <trkpt lat="43.59796" lon="0.98129">
        <ele>216.43</ele>
        <time>2021-08-18T15:06:50Z</time>
      </trkpt>
      <trkpt lat="43.5979" lon="0.98125">
        <ele>216.43</ele>
        <time>2021-08-18T15:06:52Z</time>
      </trkpt>
      <trkpt lat="43.59789" lon="0.98121">
        <ele>216.43</ele>
        <time>2021-08-18T15:06:53Z</time>
      </trkpt>
      <trkpt lat="43.5979" lon="0.98119">
        <ele>216.43</ele>
        <time>2021-08-18T15:06:54Z</time>
      </trkpt>
      <trkpt lat="43.59791" lon="0.98116">
        <ele>216.43</ele>
        <time>2021-08-18T15:06:55Z</time>
      </trkpt>
      <trkpt lat="43.59793" lon="0.98115">
        <ele>216.43</ele>
        <time>2021-08-18T15:06:56Z</time>
      </trkpt>
      <trkpt lat="43.59794" lon="0.98113">
        <ele>216.43</ele>
        <time>2021-08-18T15:06:57Z</time>
      </trkpt>
      <trkpt lat="43.59795" lon="0.9811">
        <ele>216.43</ele>
        <time>2021-08-18T15:06:58Z</time>
      </trkpt>
      <trkpt lat="43.59796" lon="0.98107">
        <ele>216.43</ele>
        <time>2021-08-18T15:06:59Z</time>
      </trkpt>
      <trkpt lat="43.59801" lon="0.98078">
        <ele>216.43</ele>
        <time>2021-08-18T15:07:06Z</time>
      </trkpt>
      <trkpt lat="43.59802" lon="0.98055">
        <ele>215.47</ele>
        <time>2021-08-18T15:07:11Z</time>
      </trkpt>
      <trkpt lat="43.59803" lon="0.98043">
        <ele>215.47</ele>
        <time>2021-08-18T15:07:15Z</time>
      </trkpt>
      <trkpt lat="43.59802" lon="0.98044">
        <ele>214.99</ele>
        <time>2021-08-18T15:07:16Z</time>
      </trkpt>
      <trkpt lat="43.59801" lon="0.98046">
        <ele>214.99</ele>
        <time>2021-08-18T15:07:17Z</time>
      </trkpt>
      <trkpt lat="43.59801" lon="0.98049">
        <ele>214.99</ele>
        <time>2021-08-18T15:07:18Z</time>
      </trkpt>
      <trkpt lat="43.59801" lon="0.98053">
        <ele>214.99</ele>
        <time>2021-08-18T15:07:19Z</time>
      </trkpt>
      <trkpt lat="43.59801" lon="0.98056">
        <ele>214.99</ele>
        <time>2021-08-18T15:07:20Z</time>
      </trkpt>
      <trkpt lat="43.59801" lon="0.98061">
        <ele>214.99</ele>
        <time>2021-08-18T15:07:21Z</time>
      </trkpt>
      <trkpt lat="43.59801" lon="0.98065">
        <ele>214.99</ele>
        <time>2021-08-18T15:07:22Z</time>
      </trkpt>
      <trkpt lat="43.598" lon="0.9807">
        <ele>214.99</ele>
        <time>2021-08-18T15:07:23Z</time>
      </trkpt>
      <trkpt lat="43.598" lon="0.98075">
        <ele>216.43</ele>
        <time>2021-08-18T15:07:24Z</time>
      </trkpt>
      <trkpt lat="43.59799" lon="0.98079">
        <ele>216.43</ele>
        <time>2021-08-18T15:07:25Z</time>
      </trkpt>
      <trkpt lat="43.59797" lon="0.981">
        <ele>217.4</ele>
        <time>2021-08-18T15:07:30Z</time>
      </trkpt>
      <trkpt lat="43.59796" lon="0.98102">
        <ele>217.4</ele>
        <time>2021-08-18T15:07:31Z</time>
      </trkpt>
      <trkpt lat="43.59795" lon="0.98105">
        <ele>217.4</ele>
        <time>2021-08-18T15:07:32Z</time>
      </trkpt>
      <trkpt lat="43.59794" lon="0.98112">
        <ele>217.4</ele>
        <time>2021-08-18T15:07:34Z</time>
      </trkpt>
      <trkpt lat="43.5979" lon="0.98115">
        <ele>217.4</ele>
        <time>2021-08-18T15:07:35Z</time>
      </trkpt>
      <trkpt lat="43.59785" lon="0.98116">
        <ele>216.43</ele>
        <time>2021-08-18T15:07:36Z</time>
      </trkpt>
      <trkpt lat="43.5978" lon="0.98116">
        <ele>215.95</ele>
        <time>2021-08-18T15:07:37Z</time>
      </trkpt>
      <trkpt lat="43.59776" lon="0.98115">
        <ele>215.47</ele>
        <time>2021-08-18T15:07:38Z</time>
      </trkpt>
      <trkpt lat="43.59771" lon="0.98113">
        <ele>215.47</ele>
        <time>2021-08-18T15:07:39Z</time>
      </trkpt>
      <trkpt lat="43.59767" lon="0.98111">
        <ele>214.99</ele>
        <time>2021-08-18T15:07:40Z</time>
      </trkpt>
      <trkpt lat="43.59754" lon="0.98098">
        <ele>214.03</ele>
        <time>2021-08-18T15:07:46Z</time>
      </trkpt>
      <trkpt lat="43.59754" lon="0.98091">
        <ele>213.55</ele>
        <time>2021-08-18T15:07:48Z</time>
      </trkpt>
      <trkpt lat="43.59753" lon="0.98073">
        <ele>211.63</ele>
        <time>2021-08-18T15:07:54Z</time>
      </trkpt>
      <trkpt lat="43.59743" lon="0.98069">
        <ele>210.19</ele>
        <time>2021-08-18T15:07:59Z</time>
      </trkpt>
      <trkpt lat="43.5974" lon="0.98072">
        <ele>210.19</ele>
        <time>2021-08-18T15:08:01Z</time>
      </trkpt>
      <trkpt lat="43.59739" lon="0.98076">
        <ele>210.19</ele>
        <time>2021-08-18T15:08:06Z</time>
      </trkpt>
      <trkpt lat="43.5974" lon="0.98074">
        <ele>210.19</ele>
        <time>2021-08-18T15:08:17Z</time>
      </trkpt>
      <trkpt lat="43.59743" lon="0.98072">
        <ele>210.19</ele>
        <time>2021-08-18T15:08:30Z</time>
      </trkpt>
      <trkpt lat="43.59745" lon="0.98073">
        <ele>210.19</ele>
        <time>2021-08-18T15:08:41Z</time>
      </trkpt>
      <trkpt lat="43.5975" lon="0.9808">
        <ele>210.19</ele>
        <time>2021-08-18T15:09:02Z</time>
      </trkpt>
      <trkpt lat="43.59749" lon="0.98079">
        <ele>210.19</ele>
        <time>2021-08-18T15:09:11Z</time>
      </trkpt>
      <trkpt lat="43.59751" lon="0.98075">
        <ele>210.19</ele>
        <time>2021-08-18T15:09:18Z</time>
      </trkpt>
      <trkpt lat="43.59752" lon="0.98074">
        <ele>210.19</ele>
        <time>2021-08-18T15:09:19Z</time>
      </trkpt>
      <trkpt lat="43.59752" lon="0.98071">
        <ele>210.19</ele>
        <time>2021-08-18T15:09:21Z</time>
      </trkpt>
      <trkpt lat="43.59754" lon="0.98071">
        <ele>210.19</ele>
        <time>2021-08-18T15:09:23Z</time>
      </trkpt>
      <trkpt lat="43.59756" lon="0.98067">
        <ele>211.63</ele>
        <time>2021-08-18T15:09:26Z</time>
      </trkpt>
      <trkpt lat="43.59762" lon="0.9804">
        <ele>209.22</ele>
        <time>2021-08-18T15:09:32Z</time>
      </trkpt>
      <trkpt lat="43.5977" lon="0.98001">
        <ele>207.3</ele>
        <time>2021-08-18T15:09:39Z</time>
      </trkpt>
      <trkpt lat="43.59771" lon="0.97992">
        <ele>207.3</ele>
        <time>2021-08-18T15:09:41Z</time>
      </trkpt>
      <trkpt lat="43.59769" lon="0.97989">
        <ele>206.82</ele>
        <time>2021-08-18T15:09:42Z</time>
      </trkpt>
      <trkpt lat="43.59766" lon="0.97987">
        <ele>206.34</ele>
        <time>2021-08-18T15:09:43Z</time>
      </trkpt>
      <trkpt lat="43.59762" lon="0.97989">
        <ele>205.38</ele>
        <time>2021-08-18T15:09:44Z</time>
      </trkpt>
      <trkpt lat="43.59759" lon="0.97991">
        <ele>204.42</ele>
        <time>2021-08-18T15:09:45Z</time>
      </trkpt>
      <trkpt lat="43.59754" lon="0.97994">
        <ele>203.46</ele>
        <time>2021-08-18T15:09:46Z</time>
      </trkpt>
      <trkpt lat="43.59749" lon="0.97994">
        <ele>202.49</ele>
        <time>2021-08-18T15:09:47Z</time>
      </trkpt>
      <trkpt lat="43.59742" lon="0.97992">
        <ele>201.05</ele>
        <time>2021-08-18T15:09:48Z</time>
      </trkpt>
      <trkpt lat="43.59735" lon="0.97989">
        <ele>200.09</ele>
        <time>2021-08-18T15:09:49Z</time>
      </trkpt>
      <trkpt lat="43.59727" lon="0.97983">
        <ele>198.17</ele>
        <time>2021-08-18T15:09:50Z</time>
      </trkpt>
      <trkpt lat="43.59717" lon="0.97977">
        <ele>193.84</ele>
        <time>2021-08-18T15:09:51Z</time>
      </trkpt>
      <trkpt lat="43.59697" lon="0.9796">
        <ele>189.04</ele>
        <time>2021-08-18T15:09:53Z</time>
      </trkpt>
      <trkpt lat="43.59675" lon="0.97939">
        <ele>184.71</ele>
        <time>2021-08-18T15:09:55Z</time>
      </trkpt>
      <trkpt lat="43.59643" lon="0.97904">
        <ele>182.31</ele>
        <time>2021-08-18T15:09:58Z</time>
      </trkpt>
      <trkpt lat="43.59635" lon="0.97891">
        <ele>180.87</ele>
        <time>2021-08-18T15:09:59Z</time>
      </trkpt>
      <trkpt lat="43.59629" lon="0.97877">
        <ele>180.87</ele>
        <time>2021-08-18T15:10:00Z</time>
      </trkpt>
      <trkpt lat="43.59615" lon="0.97844">
        <ele>180.87</ele>
        <time>2021-08-18T15:10:03Z</time>
      </trkpt>
      <trkpt lat="43.59612" lon="0.97838">
        <ele>181.83</ele>
        <time>2021-08-18T15:10:04Z</time>
      </trkpt>
      <trkpt lat="43.59608" lon="0.97835">
        <ele>182.31</ele>
        <time>2021-08-18T15:10:05Z</time>
      </trkpt>
      <trkpt lat="43.59604" lon="0.97835">
        <ele>182.31</ele>
        <time>2021-08-18T15:10:06Z</time>
      </trkpt>
      <trkpt lat="43.59601" lon="0.97836">
        <ele>182.79</ele>
        <time>2021-08-18T15:10:07Z</time>
      </trkpt>
      <trkpt lat="43.59597" lon="0.97839">
        <ele>182.79</ele>
        <time>2021-08-18T15:10:08Z</time>
      </trkpt>
      <trkpt lat="43.59594" lon="0.97842">
        <ele>182.79</ele>
        <time>2021-08-18T15:10:09Z</time>
      </trkpt>
      <trkpt lat="43.59591" lon="0.97845">
        <ele>182.79</ele>
        <time>2021-08-18T15:10:10Z</time>
      </trkpt>
      <trkpt lat="43.59587" lon="0.97848">
        <ele>182.79</ele>
        <time>2021-08-18T15:10:11Z</time>
      </trkpt>
      <trkpt lat="43.59583" lon="0.9785">
        <ele>182.79</ele>
        <time>2021-08-18T15:10:12Z</time>
      </trkpt>
      <trkpt lat="43.59565" lon="0.97858">
        <ele>182.79</ele>
        <time>2021-08-18T15:10:16Z</time>
      </trkpt>
      <trkpt lat="43.59524" lon="0.97864">
        <ele>183.27</ele>
        <time>2021-08-18T15:10:24Z</time>
      </trkpt>
      <trkpt lat="43.59513" lon="0.97865">
        <ele>181.83</ele>
        <time>2021-08-18T15:10:26Z</time>
      </trkpt>
      <trkpt lat="43.59485" lon="0.9786">
        <ele>181.83</ele>
        <time>2021-08-18T15:10:32Z</time>
      </trkpt>
      <trkpt lat="43.59481" lon="0.97852">
        <ele>183.27</ele>
        <time>2021-08-18T15:10:35Z</time>
      </trkpt>
      <trkpt lat="43.59477" lon="0.9783">
        <ele>185.67</ele>
        <time>2021-08-18T15:10:43Z</time>
      </trkpt>
      <trkpt lat="43.59476" lon="0.97811">
        <ele>187.11</ele>
        <time>2021-08-18T15:10:50Z</time>
      </trkpt>
      <trkpt lat="43.5947" lon="0.9779">
        <ele>188.08</ele>
        <time>2021-08-18T15:10:59Z</time>
      </trkpt>
      <trkpt lat="43.59459" lon="0.97774">
        <ele>189.52</ele>
        <time>2021-08-18T15:11:08Z</time>
      </trkpt>
      <trkpt lat="43.59449" lon="0.97759">
        <ele>190</ele>
        <time>2021-08-18T15:11:16Z</time>
      </trkpt>
      <trkpt lat="43.59447" lon="0.97757">
        <ele>190.48</ele>
        <time>2021-08-18T15:11:18Z</time>
      </trkpt>
      <trkpt lat="43.59446" lon="0.97755">
        <ele>190.48</ele>
        <time>2021-08-18T15:11:19Z</time>
      </trkpt>
      <trkpt lat="43.59445" lon="0.97753">
        <ele>190.48</ele>
        <time>2021-08-18T15:11:20Z</time>
      </trkpt>
      <trkpt lat="43.59435" lon="0.97735">
        <ele>191.44</ele>
        <time>2021-08-18T15:11:30Z</time>
      </trkpt>
      <trkpt lat="43.59426" lon="0.97719">
        <ele>192.4</ele>
        <time>2021-08-18T15:11:39Z</time>
      </trkpt>
      <trkpt lat="43.59416" lon="0.97704">
        <ele>192.88</ele>
        <time>2021-08-18T15:11:48Z</time>
      </trkpt>
      <trkpt lat="43.59404" lon="0.97687">
        <ele>194.32</ele>
        <time>2021-08-18T15:11:58Z</time>
      </trkpt>
      <trkpt lat="43.59387" lon="0.97675">
        <ele>195.28</ele>
        <time>2021-08-18T15:12:08Z</time>
      </trkpt>
      <trkpt lat="43.59368" lon="0.97662">
        <ele>196.73</ele>
        <time>2021-08-18T15:12:19Z</time>
      </trkpt>
      <trkpt lat="43.59355" lon="0.97645">
        <ele>198.17</ele>
        <time>2021-08-18T15:12:28Z</time>
      </trkpt>
      <trkpt lat="43.59347" lon="0.97631">
        <ele>198.65</ele>
        <time>2021-08-18T15:12:34Z</time>
      </trkpt>
      <trkpt lat="43.59329" lon="0.97605">
        <ele>199.61</ele>
        <time>2021-08-18T15:12:45Z</time>
      </trkpt>
      <trkpt lat="43.59314" lon="0.97589">
        <ele>195.28</ele>
        <time>2021-08-18T15:12:50Z</time>
      </trkpt>
      <trkpt lat="43.5931" lon="0.97585">
        <ele>194.8</ele>
        <time>2021-08-18T15:12:51Z</time>
      </trkpt>
      <trkpt lat="43.59297" lon="0.97573">
        <ele>191.44</ele>
        <time>2021-08-18T15:12:54Z</time>
      </trkpt>
      <trkpt lat="43.59292" lon="0.97569">
        <ele>190.48</ele>
        <time>2021-08-18T15:12:55Z</time>
      </trkpt>
      <trkpt lat="43.59283" lon="0.9756">
        <ele>188.08</ele>
        <time>2021-08-18T15:12:57Z</time>
      </trkpt>
      <trkpt lat="43.59278" lon="0.97555">
        <ele>186.63</ele>
        <time>2021-08-18T15:12:58Z</time>
      </trkpt>
      <trkpt lat="43.59264" lon="0.9754">
        <ele>183.27</ele>
        <time>2021-08-18T15:13:01Z</time>
      </trkpt>
      <trkpt lat="43.59249" lon="0.97525">
        <ele>179.9</ele>
        <time>2021-08-18T15:13:04Z</time>
      </trkpt>
      <trkpt lat="43.59245" lon="0.9752">
        <ele>179.9</ele>
        <time>2021-08-18T15:13:05Z</time>
      </trkpt>
      <trkpt lat="43.59226" lon="0.97501">
        <ele>177.5</ele>
        <time>2021-08-18T15:13:09Z</time>
      </trkpt>
      <trkpt lat="43.59222" lon="0.97495">
        <ele>177.02</ele>
        <time>2021-08-18T15:13:10Z</time>
      </trkpt>
      <trkpt lat="43.5922" lon="0.97489">
        <ele>177.02</ele>
        <time>2021-08-18T15:13:11Z</time>
      </trkpt>
      <trkpt lat="43.59219" lon="0.97484">
        <ele>176.06</ele>
        <time>2021-08-18T15:13:12Z</time>
      </trkpt>
      <trkpt lat="43.59221" lon="0.9748">
        <ele>176.06</ele>
        <time>2021-08-18T15:13:13Z</time>
      </trkpt>
      <trkpt lat="43.59223" lon="0.97476">
        <ele>176.06</ele>
        <time>2021-08-18T15:13:14Z</time>
      </trkpt>
      <trkpt lat="43.59225" lon="0.97472">
        <ele>176.06</ele>
        <time>2021-08-18T15:13:15Z</time>
      </trkpt>
      <trkpt lat="43.59228" lon="0.97468">
        <ele>176.54</ele>
        <time>2021-08-18T15:13:16Z</time>
      </trkpt>
      <trkpt lat="43.59241" lon="0.97448">
        <ele>176.54</ele>
        <time>2021-08-18T15:13:23Z</time>
      </trkpt>
      <trkpt lat="43.59247" lon="0.97439">
        <ele>176.54</ele>
        <time>2021-08-18T15:13:29Z</time>
      </trkpt>
      <trkpt lat="43.59248" lon="0.97436">
        <ele>176.54</ele>
        <time>2021-08-18T15:13:35Z</time>
      </trkpt>
      <trkpt lat="43.59249" lon="0.97433">
        <ele>177.5</ele>
        <time>2021-08-18T15:13:40Z</time>
      </trkpt>
      <trkpt lat="43.59255" lon="0.97425">
        <ele>177.5</ele>
        <time>2021-08-18T15:13:47Z</time>
      </trkpt>
      <trkpt lat="43.59269" lon="0.9741">
        <ele>177.98</ele>
        <time>2021-08-18T15:13:54Z</time>
      </trkpt>
      <trkpt lat="43.59289" lon="0.97391">
        <ele>177.98</ele>
        <time>2021-08-18T15:14:01Z</time>
      </trkpt>
      <trkpt lat="43.59316" lon="0.97365">
        <ele>178.46</ele>
        <time>2021-08-18T15:14:09Z</time>
      </trkpt>
      <trkpt lat="43.59344" lon="0.9733">
        <ele>178.94</ele>
        <time>2021-08-18T15:14:18Z</time>
      </trkpt>
      <trkpt lat="43.59359" lon="0.97297">
        <ele>178.94</ele>
        <time>2021-08-18T15:14:25Z</time>
      </trkpt>
      <trkpt lat="43.59367" lon="0.97278">
        <ele>179.42</ele>
        <time>2021-08-18T15:14:29Z</time>
      </trkpt>
      <trkpt lat="43.5937" lon="0.97273">
        <ele>179.42</ele>
        <time>2021-08-18T15:14:30Z</time>
      </trkpt>
      <trkpt lat="43.59378" lon="0.97246">
        <ele>180.38</ele>
        <time>2021-08-18T15:14:36Z</time>
      </trkpt>
      <trkpt lat="43.59381" lon="0.97219">
        <ele>179.9</ele>
        <time>2021-08-18T15:14:41Z</time>
      </trkpt>
      <trkpt lat="43.59389" lon="0.97163">
        <ele>179.9</ele>
        <time>2021-08-18T15:14:50Z</time>
      </trkpt>
      <trkpt lat="43.59392" lon="0.9714">
        <ele>180.87</ele>
        <time>2021-08-18T15:14:54Z</time>
      </trkpt>
      <trkpt lat="43.59398" lon="0.97085">
        <ele>181.35</ele>
        <time>2021-08-18T15:15:04Z</time>
      </trkpt>
      <trkpt lat="43.59403" lon="0.97037">
        <ele>182.31</ele>
        <time>2021-08-18T15:15:13Z</time>
      </trkpt>
      <trkpt lat="43.59412" lon="0.96994">
        <ele>183.27</ele>
        <time>2021-08-18T15:15:22Z</time>
      </trkpt>
      <trkpt lat="43.59426" lon="0.96943">
        <ele>183.75</ele>
        <time>2021-08-18T15:15:33Z</time>
      </trkpt>
      <trkpt lat="43.59444" lon="0.96893">
        <ele>184.23</ele>
        <time>2021-08-18T15:15:44Z</time>
      </trkpt>
      <trkpt lat="43.59461" lon="0.96852">
        <ele>184.23</ele>
        <time>2021-08-18T15:15:52Z</time>
      </trkpt>
      <trkpt lat="43.59473" lon="0.96817">
        <ele>184.23</ele>
        <time>2021-08-18T15:16:00Z</time>
      </trkpt>
      <trkpt lat="43.59489" lon="0.96778">
        <ele>183.27</ele>
        <time>2021-08-18T15:16:08Z</time>
      </trkpt>
      <trkpt lat="43.59504" lon="0.96749">
        <ele>183.27</ele>
        <time>2021-08-18T15:16:15Z</time>
      </trkpt>
      <trkpt lat="43.59511" lon="0.96736">
        <ele>182.79</ele>
        <time>2021-08-18T15:16:18Z</time>
      </trkpt>
      <trkpt lat="43.59514" lon="0.96732">
        <ele>182.79</ele>
        <time>2021-08-18T15:16:19Z</time>
      </trkpt>
      <trkpt lat="43.59516" lon="0.96727">
        <ele>183.27</ele>
        <time>2021-08-18T15:16:20Z</time>
      </trkpt>
      <trkpt lat="43.59519" lon="0.96723">
        <ele>183.27</ele>
        <time>2021-08-18T15:16:21Z</time>
      </trkpt>
      <trkpt lat="43.59521" lon="0.96719">
        <ele>183.27</ele>
        <time>2021-08-18T15:16:22Z</time>
      </trkpt>
      <trkpt lat="43.59538" lon="0.9669">
        <ele>183.27</ele>
        <time>2021-08-18T15:16:29Z</time>
      </trkpt>
      <trkpt lat="43.5955" lon="0.96663">
        <ele>182.79</ele>
        <time>2021-08-18T15:16:35Z</time>
      </trkpt>
      <trkpt lat="43.59541" lon="0.96629">
        <ele>182.31</ele>
        <time>2021-08-18T15:16:42Z</time>
      </trkpt>
      <trkpt lat="43.5954" lon="0.96623">
        <ele>182.31</ele>
        <time>2021-08-18T15:16:43Z</time>
      </trkpt>
      <trkpt lat="43.5954" lon="0.96617">
        <ele>182.31</ele>
        <time>2021-08-18T15:16:44Z</time>
      </trkpt>
      <trkpt lat="43.5954" lon="0.96611">
        <ele>182.31</ele>
        <time>2021-08-18T15:16:45Z</time>
      </trkpt>
      <trkpt lat="43.59541" lon="0.96605">
        <ele>182.31</ele>
        <time>2021-08-18T15:16:46Z</time>
      </trkpt>
      <trkpt lat="43.59542" lon="0.96599">
        <ele>182.31</ele>
        <time>2021-08-18T15:16:47Z</time>
      </trkpt>
      <trkpt lat="43.59543" lon="0.96594">
        <ele>182.31</ele>
        <time>2021-08-18T15:16:48Z</time>
      </trkpt>
      <trkpt lat="43.59545" lon="0.96589">
        <ele>182.31</ele>
        <time>2021-08-18T15:16:49Z</time>
      </trkpt>
      <trkpt lat="43.59546" lon="0.96584">
        <ele>182.31</ele>
        <time>2021-08-18T15:16:50Z</time>
      </trkpt>
      <trkpt lat="43.59547" lon="0.96578">
        <ele>182.31</ele>
        <time>2021-08-18T15:16:51Z</time>
      </trkpt>
      <trkpt lat="43.59551" lon="0.96551">
        <ele>182.31</ele>
        <time>2021-08-18T15:16:58Z</time>
      </trkpt>
      <trkpt lat="43.59553" lon="0.9653">
        <ele>183.27</ele>
        <time>2021-08-18T15:17:06Z</time>
      </trkpt>
      <trkpt lat="43.59555" lon="0.96505">
        <ele>183.75</ele>
        <time>2021-08-18T15:17:14Z</time>
      </trkpt>
      <trkpt lat="43.59559" lon="0.96481">
        <ele>185.19</ele>
        <time>2021-08-18T15:17:21Z</time>
      </trkpt>
      <trkpt lat="43.59561" lon="0.96457">
        <ele>185.67</ele>
        <time>2021-08-18T15:17:29Z</time>
      </trkpt>
      <trkpt lat="43.59564" lon="0.9643">
        <ele>187.11</ele>
        <time>2021-08-18T15:17:38Z</time>
      </trkpt>
      <trkpt lat="43.59568" lon="0.96407">
        <ele>188.08</ele>
        <time>2021-08-18T15:17:46Z</time>
      </trkpt>
      <trkpt lat="43.5957" lon="0.96388">
        <ele>189.52</ele>
        <time>2021-08-18T15:17:54Z</time>
      </trkpt>
      <trkpt lat="43.59572" lon="0.96371">
        <ele>191.92</ele>
        <time>2021-08-18T15:18:02Z</time>
      </trkpt>
      <trkpt lat="43.59574" lon="0.96353">
        <ele>192.88</ele>
        <time>2021-08-18T15:18:11Z</time>
      </trkpt>
      <trkpt lat="43.59577" lon="0.96335">
        <ele>193.84</ele>
        <time>2021-08-18T15:18:20Z</time>
      </trkpt>
      <trkpt lat="43.5958" lon="0.96321">
        <ele>195.28</ele>
        <time>2021-08-18T15:18:27Z</time>
      </trkpt>
      <trkpt lat="43.59581" lon="0.96316">
        <ele>195.77</ele>
        <time>2021-08-18T15:18:31Z</time>
      </trkpt>
      <trkpt lat="43.59582" lon="0.96298">
        <ele>196.25</ele>
        <time>2021-08-18T15:18:39Z</time>
      </trkpt>
      <trkpt lat="43.59585" lon="0.96274">
        <ele>198.17</ele>
        <time>2021-08-18T15:18:50Z</time>
      </trkpt>
      <trkpt lat="43.59588" lon="0.96255">
        <ele>198.17</ele>
        <time>2021-08-18T15:18:58Z</time>
      </trkpt>
      <trkpt lat="43.59592" lon="0.96233">
        <ele>199.61</ele>
        <time>2021-08-18T15:19:07Z</time>
      </trkpt>
      <trkpt lat="43.59596" lon="0.96208">
        <ele>200.09</ele>
        <time>2021-08-18T15:19:16Z</time>
      </trkpt>
      <trkpt lat="43.59597" lon="0.9619">
        <ele>201.53</ele>
        <time>2021-08-18T15:19:23Z</time>
      </trkpt>
      <trkpt lat="43.59595" lon="0.96161">
        <ele>202.98</ele>
        <time>2021-08-18T15:19:32Z</time>
      </trkpt>
      <trkpt lat="43.59595" lon="0.96134">
        <ele>204.42</ele>
        <time>2021-08-18T15:19:41Z</time>
      </trkpt>
      <trkpt lat="43.59596" lon="0.96114">
        <ele>205.86</ele>
        <time>2021-08-18T15:19:49Z</time>
      </trkpt>
      <trkpt lat="43.596" lon="0.96091">
        <ele>207.3</ele>
        <time>2021-08-18T15:19:58Z</time>
      </trkpt>
      <trkpt lat="43.59602" lon="0.96065">
        <ele>208.26</ele>
        <time>2021-08-18T15:20:08Z</time>
      </trkpt>
      <trkpt lat="43.59606" lon="0.96031">
        <ele>210.19</ele>
        <time>2021-08-18T15:20:21Z</time>
      </trkpt>
      <trkpt lat="43.59609" lon="0.96009">
        <ele>210.67</ele>
        <time>2021-08-18T15:20:29Z</time>
      </trkpt>
      <trkpt lat="43.59614" lon="0.95989">
        <ele>212.11</ele>
        <time>2021-08-18T15:20:37Z</time>
      </trkpt>
      <trkpt lat="43.59618" lon="0.95968">
        <ele>213.55</ele>
        <time>2021-08-18T15:20:45Z</time>
      </trkpt>
      <trkpt lat="43.59622" lon="0.95942">
        <ele>214.03</ele>
        <time>2021-08-18T15:20:55Z</time>
      </trkpt>
      <trkpt lat="43.59627" lon="0.95922">
        <ele>215.47</ele>
        <time>2021-08-18T15:21:02Z</time>
      </trkpt>
      <trkpt lat="43.59631" lon="0.95903">
        <ele>215.95</ele>
        <time>2021-08-18T15:21:08Z</time>
      </trkpt>
      <trkpt lat="43.59642" lon="0.95861">
        <ele>216.91</ele>
        <time>2021-08-18T15:21:20Z</time>
      </trkpt>
      <trkpt lat="43.59651" lon="0.95826">
        <ele>218.36</ele>
        <time>2021-08-18T15:21:30Z</time>
      </trkpt>
      <trkpt lat="43.59659" lon="0.95793">
        <ele>219.8</ele>
        <time>2021-08-18T15:21:38Z</time>
      </trkpt>
      <trkpt lat="43.59671" lon="0.95747">
        <ele>220.28</ele>
        <time>2021-08-18T15:21:49Z</time>
      </trkpt>
      <trkpt lat="43.59681" lon="0.95708">
        <ele>221.24</ele>
        <time>2021-08-18T15:21:59Z</time>
      </trkpt>
      <trkpt lat="43.59689" lon="0.95676">
        <ele>222.68</ele>
        <time>2021-08-18T15:22:08Z</time>
      </trkpt>
      <trkpt lat="43.59695" lon="0.95648">
        <ele>223.16</ele>
        <time>2021-08-18T15:22:16Z</time>
      </trkpt>
      <trkpt lat="43.59701" lon="0.95615">
        <ele>224.61</ele>
        <time>2021-08-18T15:22:26Z</time>
      </trkpt>
      <trkpt lat="43.59706" lon="0.95587">
        <ele>225.09</ele>
        <time>2021-08-18T15:22:34Z</time>
      </trkpt>
      <trkpt lat="43.59715" lon="0.95541">
        <ele>225.09</ele>
        <time>2021-08-18T15:22:43Z</time>
      </trkpt>
      <trkpt lat="43.59716" lon="0.95535">
        <ele>225.09</ele>
        <time>2021-08-18T15:22:44Z</time>
      </trkpt>
      <trkpt lat="43.59729" lon="0.95477">
        <ele>225.57</ele>
        <time>2021-08-18T15:22:54Z</time>
      </trkpt>
      <trkpt lat="43.59736" lon="0.9542">
        <ele>226.05</ele>
        <time>2021-08-18T15:23:04Z</time>
      </trkpt>
      <trkpt lat="43.59735" lon="0.95366">
        <ele>227.01</ele>
        <time>2021-08-18T15:23:12Z</time>
      </trkpt>
      <trkpt lat="43.59735" lon="0.95352">
        <ele>227.01</ele>
        <time>2021-08-18T15:23:14Z</time>
      </trkpt>
      <trkpt lat="43.59739" lon="0.95319">
        <ele>227.01</ele>
        <time>2021-08-18T15:23:20Z</time>
      </trkpt>
      <trkpt lat="43.59745" lon="0.95293">
        <ele>227.01</ele>
        <time>2021-08-18T15:23:27Z</time>
      </trkpt>
      <trkpt lat="43.59756" lon="0.95267">
        <ele>227.01</ele>
        <time>2021-08-18T15:23:33Z</time>
      </trkpt>
      <trkpt lat="43.59772" lon="0.95226">
        <ele>227.49</ele>
        <time>2021-08-18T15:23:42Z</time>
      </trkpt>
      <trkpt lat="43.59782" lon="0.95197">
        <ele>229.41</ele>
        <time>2021-08-18T15:23:49Z</time>
      </trkpt>
      <trkpt lat="43.59795" lon="0.95163">
        <ele>230.37</ele>
        <time>2021-08-18T15:23:58Z</time>
      </trkpt>
      <trkpt lat="43.59807" lon="0.95131">
        <ele>231.81</ele>
        <time>2021-08-18T15:24:08Z</time>
      </trkpt>
      <trkpt lat="43.59814" lon="0.95112">
        <ele>232.3</ele>
        <time>2021-08-18T15:24:13Z</time>
      </trkpt>
      <trkpt lat="43.59834" lon="0.95075">
        <ele>232.3</ele>
        <time>2021-08-18T15:24:23Z</time>
      </trkpt>
      <trkpt lat="43.59846" lon="0.95054">
        <ele>232.3</ele>
        <time>2021-08-18T15:24:29Z</time>
      </trkpt>
      <trkpt lat="43.59863" lon="0.95026">
        <ele>232.3</ele>
        <time>2021-08-18T15:24:36Z</time>
      </trkpt>
      <trkpt lat="43.59889" lon="0.94981">
        <ele>232.78</ele>
        <time>2021-08-18T15:24:47Z</time>
      </trkpt>
      <trkpt lat="43.59918" lon="0.94926">
        <ele>234.7</ele>
        <time>2021-08-18T15:25:01Z</time>
      </trkpt>
      <trkpt lat="43.59937" lon="0.94892">
        <ele>237.1</ele>
        <time>2021-08-18T15:25:12Z</time>
      </trkpt>
      <trkpt lat="43.59951" lon="0.94867">
        <ele>237.58</ele>
        <time>2021-08-18T15:25:21Z</time>
      </trkpt>
      <trkpt lat="43.59965" lon="0.94846">
        <ele>239.51</ele>
        <time>2021-08-18T15:25:30Z</time>
      </trkpt>
      <trkpt lat="43.59979" lon="0.94849">
        <ele>239.99</ele>
        <time>2021-08-18T15:25:36Z</time>
      </trkpt>
      <trkpt lat="43.60005" lon="0.94863">
        <ele>239.02</ele>
        <time>2021-08-18T15:25:43Z</time>
      </trkpt>
      <trkpt lat="43.60018" lon="0.9487">
        <ele>238.54</ele>
        <time>2021-08-18T15:25:46Z</time>
      </trkpt>
      <trkpt lat="43.60022" lon="0.94872">
        <ele>238.54</ele>
        <time>2021-08-18T15:25:47Z</time>
      </trkpt>
      <trkpt lat="43.60031" lon="0.94878">
        <ele>237.58</ele>
        <time>2021-08-18T15:25:49Z</time>
      </trkpt>
      <trkpt lat="43.60078" lon="0.94902">
        <ele>235.18</ele>
        <time>2021-08-18T15:25:57Z</time>
      </trkpt>
      <trkpt lat="43.60083" lon="0.94906">
        <ele>234.7</ele>
        <time>2021-08-18T15:25:58Z</time>
      </trkpt>
      <trkpt lat="43.60118" lon="0.94924">
        <ele>234.7</ele>
        <time>2021-08-18T15:26:05Z</time>
      </trkpt>
      <trkpt lat="43.60148" lon="0.9494">
        <ele>236.14</ele>
        <time>2021-08-18T15:26:13Z</time>
      </trkpt>
      <trkpt lat="43.6017" lon="0.94952">
        <ele>238.06</ele>
        <time>2021-08-18T15:26:21Z</time>
      </trkpt>
      <trkpt lat="43.60185" lon="0.94961">
        <ele>239.99</ele>
        <time>2021-08-18T15:26:29Z</time>
      </trkpt>
      <trkpt lat="43.60203" lon="0.94973">
        <ele>241.91</ele>
        <time>2021-08-18T15:26:38Z</time>
      </trkpt>
      <trkpt lat="43.60223" lon="0.94987">
        <ele>241.43</ele>
        <time>2021-08-18T15:26:45Z</time>
      </trkpt>
      <trkpt lat="43.60241" lon="0.94998">
        <ele>237.58</ele>
        <time>2021-08-18T15:26:48Z</time>
      </trkpt>
      <trkpt lat="43.60257" lon="0.95008">
        <ele>234.7</ele>
        <time>2021-08-18T15:26:50Z</time>
      </trkpt>
      <trkpt lat="43.60286" lon="0.95025">
        <ele>229.89</ele>
        <time>2021-08-18T15:26:53Z</time>
      </trkpt>
      <trkpt lat="43.60318" lon="0.95043">
        <ele>226.53</ele>
        <time>2021-08-18T15:26:56Z</time>
      </trkpt>
      <trkpt lat="43.60351" lon="0.95061">
        <ele>225.09</ele>
        <time>2021-08-18T15:26:59Z</time>
      </trkpt>
      <trkpt lat="43.60407" lon="0.95095">
        <ele>224.12</ele>
        <time>2021-08-18T15:27:05Z</time>
      </trkpt>
      <trkpt lat="43.60419" lon="0.95101">
        <ele>225.57</ele>
        <time>2021-08-18T15:27:07Z</time>
      </trkpt>
      <trkpt lat="43.60422" lon="0.951">
        <ele>225.57</ele>
        <time>2021-08-18T15:27:08Z</time>
      </trkpt>
      <trkpt lat="43.60424" lon="0.95097">
        <ele>225.57</ele>
        <time>2021-08-18T15:27:09Z</time>
      </trkpt>
      <trkpt lat="43.60425" lon="0.95093">
        <ele>226.05</ele>
        <time>2021-08-18T15:27:10Z</time>
      </trkpt>
      <trkpt lat="43.60426" lon="0.95089">
        <ele>226.53</ele>
        <time>2021-08-18T15:27:11Z</time>
      </trkpt>
      <trkpt lat="43.60426" lon="0.95085">
        <ele>226.53</ele>
        <time>2021-08-18T15:27:12Z</time>
      </trkpt>
      <trkpt lat="43.60428" lon="0.9504">
        <ele>227.01</ele>
        <time>2021-08-18T15:27:22Z</time>
      </trkpt>
      <trkpt lat="43.60432" lon="0.94983">
        <ele>227.97</ele>
        <time>2021-08-18T15:27:33Z</time>
      </trkpt>
      <trkpt lat="43.60434" lon="0.94946">
        <ele>228.93</ele>
        <time>2021-08-18T15:27:42Z</time>
      </trkpt>
      <trkpt lat="43.60436" lon="0.94917">
        <ele>230.37</ele>
        <time>2021-08-18T15:27:51Z</time>
      </trkpt>
      <trkpt lat="43.60438" lon="0.94887">
        <ele>232.3</ele>
        <time>2021-08-18T15:28:01Z</time>
      </trkpt>
      <trkpt lat="43.6044" lon="0.9486">
        <ele>233.26</ele>
        <time>2021-08-18T15:28:10Z</time>
      </trkpt>
      <trkpt lat="43.60442" lon="0.94824">
        <ele>233.74</ele>
        <time>2021-08-18T15:28:19Z</time>
      </trkpt>
      <trkpt lat="43.60441" lon="0.94788">
        <ele>234.22</ele>
        <time>2021-08-18T15:28:27Z</time>
      </trkpt>
      <trkpt lat="43.60441" lon="0.94783">
        <ele>234.22</ele>
        <time>2021-08-18T15:28:28Z</time>
      </trkpt>
      <trkpt lat="43.60441" lon="0.94779">
        <ele>234.22</ele>
        <time>2021-08-18T15:28:29Z</time>
      </trkpt>
      <trkpt lat="43.60441" lon="0.94773">
        <ele>234.22</ele>
        <time>2021-08-18T15:28:30Z</time>
      </trkpt>
      <trkpt lat="43.60435" lon="0.94742">
        <ele>234.22</ele>
        <time>2021-08-18T15:28:35Z</time>
      </trkpt>
      <trkpt lat="43.60435" lon="0.94728">
        <ele>234.22</ele>
        <time>2021-08-18T15:28:37Z</time>
      </trkpt>
      <trkpt lat="43.60439" lon="0.94679">
        <ele>230.37</ele>
        <time>2021-08-18T15:28:43Z</time>
      </trkpt>
      <trkpt lat="43.6044" lon="0.9467">
        <ele>230.37</ele>
        <time>2021-08-18T15:28:44Z</time>
      </trkpt>
      <trkpt lat="43.60441" lon="0.94651">
        <ele>228.93</ele>
        <time>2021-08-18T15:28:46Z</time>
      </trkpt>
      <trkpt lat="43.60442" lon="0.9464">
        <ele>228.93</ele>
        <time>2021-08-18T15:28:47Z</time>
      </trkpt>
      <trkpt lat="43.60446" lon="0.94608">
        <ele>226.53</ele>
        <time>2021-08-18T15:28:50Z</time>
      </trkpt>
      <trkpt lat="43.60458" lon="0.9451">
        <ele>223.16</ele>
        <time>2021-08-18T15:28:59Z</time>
      </trkpt>
      <trkpt lat="43.60459" lon="0.945">
        <ele>223.16</ele>
        <time>2021-08-18T15:29:00Z</time>
      </trkpt>
      <trkpt lat="43.60465" lon="0.94406">
        <ele>220.76</ele>
        <time>2021-08-18T15:29:09Z</time>
      </trkpt>
      <trkpt lat="43.60462" lon="0.9436">
        <ele>217.88</ele>
        <time>2021-08-18T15:29:13Z</time>
      </trkpt>
      <trkpt lat="43.60461" lon="0.94333">
        <ele>214.03</ele>
        <time>2021-08-18T15:29:15Z</time>
      </trkpt>
      <trkpt lat="43.60461" lon="0.94321">
        <ele>214.03</ele>
        <time>2021-08-18T15:29:16Z</time>
      </trkpt>
      <trkpt lat="43.60464" lon="0.94242">
        <ele>212.11</ele>
        <time>2021-08-18T15:29:22Z</time>
      </trkpt>
      <trkpt lat="43.60466" lon="0.94229">
        <ele>212.11</ele>
        <time>2021-08-18T15:29:23Z</time>
      </trkpt>
      <trkpt lat="43.60483" lon="0.94157">
        <ele>211.63</ele>
        <time>2021-08-18T15:29:30Z</time>
      </trkpt>
      <trkpt lat="43.60497" lon="0.94096">
        <ele>211.15</ele>
        <time>2021-08-18T15:29:37Z</time>
      </trkpt>
      <trkpt lat="43.60498" lon="0.94073">
        <ele>210.67</ele>
        <time>2021-08-18T15:29:40Z</time>
      </trkpt>
      <trkpt lat="43.60494" lon="0.94016">
        <ele>210.67</ele>
        <time>2021-08-18T15:29:48Z</time>
      </trkpt>
      <trkpt lat="43.60495" lon="0.9401">
        <ele>210.67</ele>
        <time>2021-08-18T15:29:49Z</time>
      </trkpt>
      <trkpt lat="43.60495" lon="0.94004">
        <ele>210.19</ele>
        <time>2021-08-18T15:29:50Z</time>
      </trkpt>
      <trkpt lat="43.60501" lon="0.93955">
        <ele>209.7</ele>
        <time>2021-08-18T15:29:58Z</time>
      </trkpt>
      <trkpt lat="43.60501" lon="0.93948">
        <ele>209.7</ele>
        <time>2021-08-18T15:29:59Z</time>
      </trkpt>
      <trkpt lat="43.60502" lon="0.93942">
        <ele>209.7</ele>
        <time>2021-08-18T15:30:00Z</time>
      </trkpt>
      <trkpt lat="43.60501" lon="0.93912">
        <ele>209.7</ele>
        <time>2021-08-18T15:30:06Z</time>
      </trkpt>
      <trkpt lat="43.60497" lon="0.9389">
        <ele>209.7</ele>
        <time>2021-08-18T15:30:13Z</time>
      </trkpt>
      <trkpt lat="43.60495" lon="0.93874">
        <ele>211.15</ele>
        <time>2021-08-18T15:30:18Z</time>
      </trkpt>
      <trkpt lat="43.60492" lon="0.93848">
        <ele>211.63</ele>
        <time>2021-08-18T15:30:25Z</time>
      </trkpt>
      <trkpt lat="43.6049" lon="0.93812">
        <ele>213.07</ele>
        <time>2021-08-18T15:30:34Z</time>
      </trkpt>
      <trkpt lat="43.60489" lon="0.93788">
        <ele>214.51</ele>
        <time>2021-08-18T15:30:42Z</time>
      </trkpt>
      <trkpt lat="43.6049" lon="0.93763">
        <ele>215.47</ele>
        <time>2021-08-18T15:30:51Z</time>
      </trkpt>
      <trkpt lat="43.60491" lon="0.93745">
        <ele>216.91</ele>
        <time>2021-08-18T15:30:59Z</time>
      </trkpt>
      <trkpt lat="43.60492" lon="0.93727">
        <ele>217.88</ele>
        <time>2021-08-18T15:31:07Z</time>
      </trkpt>
      <trkpt lat="43.60492" lon="0.93711">
        <ele>218.36</ele>
        <time>2021-08-18T15:31:14Z</time>
      </trkpt>
      <trkpt lat="43.60494" lon="0.93687">
        <ele>220.76</ele>
        <time>2021-08-18T15:31:25Z</time>
      </trkpt>
      <trkpt lat="43.60496" lon="0.93664">
        <ele>221.72</ele>
        <time>2021-08-18T15:31:35Z</time>
      </trkpt>
      <trkpt lat="43.60499" lon="0.93645">
        <ele>223.16</ele>
        <time>2021-08-18T15:31:44Z</time>
      </trkpt>
      <trkpt lat="43.60502" lon="0.93616">
        <ele>225.57</ele>
        <time>2021-08-18T15:31:56Z</time>
      </trkpt>
      <trkpt lat="43.60506" lon="0.93598">
        <ele>226.05</ele>
        <time>2021-08-18T15:32:04Z</time>
      </trkpt>
      <trkpt lat="43.60513" lon="0.9357">
        <ele>227.49</ele>
        <time>2021-08-18T15:32:14Z</time>
      </trkpt>
      <trkpt lat="43.60524" lon="0.93538">
        <ele>228.45</ele>
        <time>2021-08-18T15:32:24Z</time>
      </trkpt>
      <trkpt lat="43.60535" lon="0.93513">
        <ele>229.41</ele>
        <time>2021-08-18T15:32:31Z</time>
      </trkpt>
      <trkpt lat="43.60551" lon="0.93481">
        <ele>229.41</ele>
        <time>2021-08-18T15:32:38Z</time>
      </trkpt>
      <trkpt lat="43.60569" lon="0.93446">
        <ele>228.45</ele>
        <time>2021-08-18T15:32:45Z</time>
      </trkpt>
      <trkpt lat="43.60572" lon="0.9344">
        <ele>228.45</ele>
        <time>2021-08-18T15:32:46Z</time>
      </trkpt>
      <trkpt lat="43.60593" lon="0.93381">
        <ele>227.97</ele>
        <time>2021-08-18T15:32:56Z</time>
      </trkpt>
      <trkpt lat="43.60612" lon="0.93337">
        <ele>226.05</ele>
        <time>2021-08-18T15:33:02Z</time>
      </trkpt>
      <trkpt lat="43.60641" lon="0.93271">
        <ele>223.64</ele>
        <time>2021-08-18T15:33:10Z</time>
      </trkpt>
      <trkpt lat="43.60656" lon="0.93208">
        <ele>221.72</ele>
        <time>2021-08-18T15:33:17Z</time>
      </trkpt>
      <trkpt lat="43.60665" lon="0.93148">
        <ele>221.72</ele>
        <time>2021-08-18T15:33:24Z</time>
      </trkpt>
      <trkpt lat="43.60675" lon="0.93092">
        <ele>221.72</ele>
        <time>2021-08-18T15:33:32Z</time>
      </trkpt>
      <trkpt lat="43.60689" lon="0.93038">
        <ele>221.24</ele>
        <time>2021-08-18T15:33:40Z</time>
      </trkpt>
      <trkpt lat="43.60699" lon="0.93009">
        <ele>220.28</ele>
        <time>2021-08-18T15:33:45Z</time>
      </trkpt>
      <trkpt lat="43.60708" lon="0.92969">
        <ele>219.8</ele>
        <time>2021-08-18T15:33:51Z</time>
      </trkpt>
      <trkpt lat="43.60716" lon="0.92897">
        <ele>219.32</ele>
        <time>2021-08-18T15:34:00Z</time>
      </trkpt>
      <trkpt lat="43.60723" lon="0.92842">
        <ele>218.36</ele>
        <time>2021-08-18T15:34:07Z</time>
      </trkpt>
      <trkpt lat="43.60731" lon="0.92772">
        <ele>218.36</ele>
        <time>2021-08-18T15:34:16Z</time>
      </trkpt>
      <trkpt lat="43.60743" lon="0.92698">
        <ele>219.32</ele>
        <time>2021-08-18T15:34:26Z</time>
      </trkpt>
      <trkpt lat="43.60747" lon="0.92681">
        <ele>217.88</ele>
        <time>2021-08-18T15:34:28Z</time>
      </trkpt>
      <trkpt lat="43.60763" lon="0.92609">
        <ele>216.91</ele>
        <time>2021-08-18T15:34:36Z</time>
      </trkpt>
      <trkpt lat="43.60782" lon="0.92532">
        <ele>215.47</ele>
        <time>2021-08-18T15:34:44Z</time>
      </trkpt>
      <trkpt lat="43.60788" lon="0.92515">
        <ele>215.47</ele>
        <time>2021-08-18T15:34:46Z</time>
      </trkpt>
      <trkpt lat="43.60821" lon="0.92446">
        <ele>214.51</ele>
        <time>2021-08-18T15:34:54Z</time>
      </trkpt>
      <trkpt lat="43.60852" lon="0.92376">
        <ele>213.55</ele>
        <time>2021-08-18T15:35:02Z</time>
      </trkpt>
      <trkpt lat="43.60891" lon="0.92281">
        <ele>210.67</ele>
        <time>2021-08-18T15:35:12Z</time>
      </trkpt>
      <trkpt lat="43.60915" lon="0.92213">
        <ele>207.78</ele>
        <time>2021-08-18T15:35:19Z</time>
      </trkpt>
      <trkpt lat="43.60933" lon="0.92171">
        <ele>203.94</ele>
        <time>2021-08-18T15:35:23Z</time>
      </trkpt>
      <trkpt lat="43.60948" lon="0.92141">
        <ele>201.05</ele>
        <time>2021-08-18T15:35:26Z</time>
      </trkpt>
      <trkpt lat="43.60959" lon="0.92119">
        <ele>197.21</ele>
        <time>2021-08-18T15:35:28Z</time>
      </trkpt>
      <trkpt lat="43.6097" lon="0.92094">
        <ele>192.88</ele>
        <time>2021-08-18T15:35:30Z</time>
      </trkpt>
      <trkpt lat="43.60986" lon="0.92054">
        <ele>189.52</ele>
        <time>2021-08-18T15:35:33Z</time>
      </trkpt>
      <trkpt lat="43.60991" lon="0.92041">
        <ele>189.04</ele>
        <time>2021-08-18T15:35:34Z</time>
      </trkpt>
      <trkpt lat="43.6101" lon="0.91981">
        <ele>189.04</ele>
        <time>2021-08-18T15:35:39Z</time>
      </trkpt>
      <trkpt lat="43.61012" lon="0.91973">
        <ele>191.44</ele>
        <time>2021-08-18T15:35:40Z</time>
      </trkpt>
      <trkpt lat="43.61013" lon="0.91966">
        <ele>192.4</ele>
        <time>2021-08-18T15:35:41Z</time>
      </trkpt>
      <trkpt lat="43.61015" lon="0.91955">
        <ele>194.32</ele>
        <time>2021-08-18T15:35:45Z</time>
      </trkpt>
      <trkpt lat="43.61015" lon="0.9195">
        <ele>195.77</ele>
        <time>2021-08-18T15:35:52Z</time>
      </trkpt>
      <trkpt lat="43.61015" lon="0.91945">
        <ele>197.21</ele>
        <time>2021-08-18T15:36:01Z</time>
      </trkpt>
      <trkpt lat="43.61015" lon="0.91939">
        <ele>198.65</ele>
        <time>2021-08-18T15:36:09Z</time>
      </trkpt>
      <trkpt lat="43.61016" lon="0.9193">
        <ele>200.09</ele>
        <time>2021-08-18T15:36:18Z</time>
      </trkpt>
      <trkpt lat="43.61017" lon="0.91923">
        <ele>202.01</ele>
        <time>2021-08-18T15:36:27Z</time>
      </trkpt>
      <trkpt lat="43.61017" lon="0.91918">
        <ele>202.49</ele>
        <time>2021-08-18T15:36:34Z</time>
      </trkpt>
      <trkpt lat="43.61018" lon="0.91909">
        <ele>204.42</ele>
        <time>2021-08-18T15:36:43Z</time>
      </trkpt>
      <trkpt lat="43.61019" lon="0.919">
        <ele>206.34</ele>
        <time>2021-08-18T15:36:53Z</time>
      </trkpt>
      <trkpt lat="43.6102" lon="0.91889">
        <ele>207.78</ele>
        <time>2021-08-18T15:37:02Z</time>
      </trkpt>
      <trkpt lat="43.61021" lon="0.91879">
        <ele>209.22</ele>
        <time>2021-08-18T15:37:09Z</time>
      </trkpt>
      <trkpt lat="43.61022" lon="0.91864">
        <ele>209.7</ele>
        <time>2021-08-18T15:37:18Z</time>
      </trkpt>
      <trkpt lat="43.61025" lon="0.91853">
        <ele>211.15</ele>
        <time>2021-08-18T15:37:27Z</time>
      </trkpt>
      <trkpt lat="43.61029" lon="0.91841">
        <ele>211.15</ele>
        <time>2021-08-18T15:37:34Z</time>
      </trkpt>
      <trkpt lat="43.61031" lon="0.91825">
        <ele>212.11</ele>
        <time>2021-08-18T15:37:43Z</time>
      </trkpt>
      <trkpt lat="43.61032" lon="0.91821">
        <ele>212.59</ele>
        <time>2021-08-18T15:37:50Z</time>
      </trkpt>
      <trkpt lat="43.61034" lon="0.91813">
        <ele>213.07</ele>
        <time>2021-08-18T15:37:55Z</time>
      </trkpt>
      <trkpt lat="43.61037" lon="0.918">
        <ele>213.55</ele>
        <time>2021-08-18T15:38:01Z</time>
      </trkpt>
      <trkpt lat="43.61044" lon="0.91776">
        <ele>214.03</ele>
        <time>2021-08-18T15:38:08Z</time>
      </trkpt>
      <trkpt lat="43.61054" lon="0.91734">
        <ele>214.51</ele>
        <time>2021-08-18T15:38:17Z</time>
      </trkpt>
      <trkpt lat="43.61062" lon="0.917">
        <ele>214.51</ele>
        <time>2021-08-18T15:38:23Z</time>
      </trkpt>
      <trkpt lat="43.61063" lon="0.91694">
        <ele>214.51</ele>
        <time>2021-08-18T15:38:24Z</time>
      </trkpt>
      <trkpt lat="43.61068" lon="0.91676">
        <ele>214.51</ele>
        <time>2021-08-18T15:38:27Z</time>
      </trkpt>
      <trkpt lat="43.61075" lon="0.91625">
        <ele>214.51</ele>
        <time>2021-08-18T15:38:35Z</time>
      </trkpt>
      <trkpt lat="43.61078" lon="0.91583">
        <ele>215.47</ele>
        <time>2021-08-18T15:38:43Z</time>
      </trkpt>
      <trkpt lat="43.6108" lon="0.91546">
        <ele>215.95</ele>
        <time>2021-08-18T15:38:50Z</time>
      </trkpt>
      <trkpt lat="43.6108" lon="0.91498">
        <ele>216.91</ele>
        <time>2021-08-18T15:38:59Z</time>
      </trkpt>
      <trkpt lat="43.61079" lon="0.9146">
        <ele>215.47</ele>
        <time>2021-08-18T15:39:05Z</time>
      </trkpt>
      <trkpt lat="43.61078" lon="0.91452">
        <ele>215.47</ele>
        <time>2021-08-18T15:39:06Z</time>
      </trkpt>
      <trkpt lat="43.61076" lon="0.91415">
        <ele>214.51</ele>
        <time>2021-08-18T15:39:11Z</time>
      </trkpt>
      <trkpt lat="43.61077" lon="0.91409">
        <ele>214.51</ele>
        <time>2021-08-18T15:39:12Z</time>
      </trkpt>
      <trkpt lat="43.61078" lon="0.91372">
        <ele>214.51</ele>
        <time>2021-08-18T15:39:18Z</time>
      </trkpt>
      <trkpt lat="43.61079" lon="0.91365">
        <ele>214.51</ele>
        <time>2021-08-18T15:39:19Z</time>
      </trkpt>
      <trkpt lat="43.61081" lon="0.91359">
        <ele>214.51</ele>
        <time>2021-08-18T15:39:20Z</time>
      </trkpt>
      <trkpt lat="43.61082" lon="0.91353">
        <ele>213.55</ele>
        <time>2021-08-18T15:39:21Z</time>
      </trkpt>
      <trkpt lat="43.61083" lon="0.91347">
        <ele>213.55</ele>
        <time>2021-08-18T15:39:22Z</time>
      </trkpt>
      <trkpt lat="43.61084" lon="0.91341">
        <ele>213.55</ele>
        <time>2021-08-18T15:39:23Z</time>
      </trkpt>
      <trkpt lat="43.61088" lon="0.91318">
        <ele>213.07</ele>
        <time>2021-08-18T15:39:27Z</time>
      </trkpt>
      <trkpt lat="43.61095" lon="0.91277">
        <ele>211.63</ele>
        <time>2021-08-18T15:39:33Z</time>
      </trkpt>
      <trkpt lat="43.61096" lon="0.9127">
        <ele>211.63</ele>
        <time>2021-08-18T15:39:34Z</time>
      </trkpt>
      <trkpt lat="43.61098" lon="0.91262">
        <ele>210.67</ele>
        <time>2021-08-18T15:39:35Z</time>
      </trkpt>
      <trkpt lat="43.61099" lon="0.91255">
        <ele>210.67</ele>
        <time>2021-08-18T15:39:36Z</time>
      </trkpt>
      <trkpt lat="43.611" lon="0.91247">
        <ele>210.67</ele>
        <time>2021-08-18T15:39:37Z</time>
      </trkpt>
      <trkpt lat="43.611" lon="0.9124">
        <ele>210.67</ele>
        <time>2021-08-18T15:39:38Z</time>
      </trkpt>
      <trkpt lat="43.61101" lon="0.91232">
        <ele>210.19</ele>
        <time>2021-08-18T15:39:39Z</time>
      </trkpt>
      <trkpt lat="43.61103" lon="0.91226">
        <ele>210.19</ele>
        <time>2021-08-18T15:39:40Z</time>
      </trkpt>
      <trkpt lat="43.61105" lon="0.91219">
        <ele>210.19</ele>
        <time>2021-08-18T15:39:41Z</time>
      </trkpt>
      <trkpt lat="43.61117" lon="0.91167">
        <ele>209.7</ele>
        <time>2021-08-18T15:39:49Z</time>
      </trkpt>
      <trkpt lat="43.61123" lon="0.91147">
        <ele>209.7</ele>
        <time>2021-08-18T15:39:52Z</time>
      </trkpt>
      <trkpt lat="43.6113" lon="0.91126">
        <ele>211.15</ele>
        <time>2021-08-18T15:39:55Z</time>
      </trkpt>
      <trkpt lat="43.61141" lon="0.91092">
        <ele>212.59</ele>
        <time>2021-08-18T15:40:02Z</time>
      </trkpt>
      <trkpt lat="43.61144" lon="0.91083">
        <ele>214.03</ele>
        <time>2021-08-18T15:40:05Z</time>
      </trkpt>
      <trkpt lat="43.61143" lon="0.91081">
        <ele>213.55</ele>
        <time>2021-08-18T15:40:06Z</time>
      </trkpt>
      <trkpt lat="43.61142" lon="0.9108">
        <ele>214.03</ele>
        <time>2021-08-18T15:40:07Z</time>
      </trkpt>
      <trkpt lat="43.61139" lon="0.9108">
        <ele>214.03</ele>
        <time>2021-08-18T15:40:08Z</time>
      </trkpt>
      <trkpt lat="43.61137" lon="0.91081">
        <ele>214.03</ele>
        <time>2021-08-18T15:40:09Z</time>
      </trkpt>
      <trkpt lat="43.61134" lon="0.91082">
        <ele>214.03</ele>
        <time>2021-08-18T15:40:10Z</time>
      </trkpt>
      <trkpt lat="43.61132" lon="0.91084">
        <ele>214.03</ele>
        <time>2021-08-18T15:40:11Z</time>
      </trkpt>
      <trkpt lat="43.61129" lon="0.91087">
        <ele>214.03</ele>
        <time>2021-08-18T15:40:12Z</time>
      </trkpt>
      <trkpt lat="43.61102" lon="0.91105">
        <ele>214.99</ele>
        <time>2021-08-18T15:40:21Z</time>
      </trkpt>
      <trkpt lat="43.61066" lon="0.91126">
        <ele>215.95</ele>
        <time>2021-08-18T15:40:32Z</time>
      </trkpt>
      <trkpt lat="43.61039" lon="0.91141">
        <ele>217.4</ele>
        <time>2021-08-18T15:40:40Z</time>
      </trkpt>
      <trkpt lat="43.61011" lon="0.91158">
        <ele>218.36</ele>
        <time>2021-08-18T15:40:49Z</time>
      </trkpt>
      <trkpt lat="43.60988" lon="0.91172">
        <ele>219.8</ele>
        <time>2021-08-18T15:40:57Z</time>
      </trkpt>
      <trkpt lat="43.60964" lon="0.91181">
        <ele>220.76</ele>
        <time>2021-08-18T15:41:05Z</time>
      </trkpt>
      <trkpt lat="43.60959" lon="0.91176">
        <ele>220.76</ele>
        <time>2021-08-18T15:41:07Z</time>
      </trkpt>
      <trkpt lat="43.60958" lon="0.91172">
        <ele>220.76</ele>
        <time>2021-08-18T15:41:08Z</time>
      </trkpt>
      <trkpt lat="43.60956" lon="0.91167">
        <ele>220.76</ele>
        <time>2021-08-18T15:41:09Z</time>
      </trkpt>
      <trkpt lat="43.60954" lon="0.91155">
        <ele>220.76</ele>
        <time>2021-08-18T15:41:11Z</time>
      </trkpt>
      <trkpt lat="43.60953" lon="0.91128">
        <ele>220.76</ele>
        <time>2021-08-18T15:41:15Z</time>
      </trkpt>
      <trkpt lat="43.60953" lon="0.91112">
        <ele>219.32</ele>
        <time>2021-08-18T15:41:17Z</time>
      </trkpt>
      <trkpt lat="43.60955" lon="0.91045">
        <ele>217.4</ele>
        <time>2021-08-18T15:41:25Z</time>
      </trkpt>
      <trkpt lat="43.60959" lon="0.90967">
        <ele>215.47</ele>
        <time>2021-08-18T15:41:34Z</time>
      </trkpt>
      <trkpt lat="43.60959" lon="0.90899">
        <ele>216.43</ele>
        <time>2021-08-18T15:41:42Z</time>
      </trkpt>
      <trkpt lat="43.60959" lon="0.90892">
        <ele>216.43</ele>
        <time>2021-08-18T15:41:43Z</time>
      </trkpt>
      <trkpt lat="43.60965" lon="0.90816">
        <ele>216.43</ele>
        <time>2021-08-18T15:41:53Z</time>
      </trkpt>
      <trkpt lat="43.60972" lon="0.90777">
        <ele>215.47</ele>
        <time>2021-08-18T15:41:58Z</time>
      </trkpt>
      <trkpt lat="43.60986" lon="0.9071">
        <ele>215.47</ele>
        <time>2021-08-18T15:42:06Z</time>
      </trkpt>
      <trkpt lat="43.61005" lon="0.90611">
        <ele>213.55</ele>
        <time>2021-08-18T15:42:16Z</time>
      </trkpt>
      <trkpt lat="43.61014" lon="0.90563">
        <ele>214.99</ele>
        <time>2021-08-18T15:42:22Z</time>
      </trkpt>
      <trkpt lat="43.61015" lon="0.90557">
        <ele>214.99</ele>
        <time>2021-08-18T15:42:23Z</time>
      </trkpt>
      <trkpt lat="43.61017" lon="0.90545">
        <ele>215.47</ele>
        <time>2021-08-18T15:42:25Z</time>
      </trkpt>
      <trkpt lat="43.61018" lon="0.90539">
        <ele>215.47</ele>
        <time>2021-08-18T15:42:26Z</time>
      </trkpt>
      <trkpt lat="43.61023" lon="0.90503">
        <ele>214.03</ele>
        <time>2021-08-18T15:42:31Z</time>
      </trkpt>
      <trkpt lat="43.61028" lon="0.90436">
        <ele>211.15</ele>
        <time>2021-08-18T15:42:38Z</time>
      </trkpt>
      <trkpt lat="43.61033" lon="0.90394">
        <ele>212.59</ele>
        <time>2021-08-18T15:42:43Z</time>
      </trkpt>
      <trkpt lat="43.61041" lon="0.90337">
        <ele>212.11</ele>
        <time>2021-08-18T15:42:51Z</time>
      </trkpt>
      <trkpt lat="43.61041" lon="0.90322">
        <ele>212.11</ele>
        <time>2021-08-18T15:42:53Z</time>
      </trkpt>
      <trkpt lat="43.61043" lon="0.90309">
        <ele>211.63</ele>
        <time>2021-08-18T15:42:55Z</time>
      </trkpt>
      <trkpt lat="43.61043" lon="0.90277">
        <ele>210.67</ele>
        <time>2021-08-18T15:43:00Z</time>
      </trkpt>
      <trkpt lat="43.61044" lon="0.9027">
        <ele>210.67</ele>
        <time>2021-08-18T15:43:01Z</time>
      </trkpt>
      <trkpt lat="43.61044" lon="0.90213">
        <ele>209.22</ele>
        <time>2021-08-18T15:43:09Z</time>
      </trkpt>
      <trkpt lat="43.61039" lon="0.90145">
        <ele>206.34</ele>
        <time>2021-08-18T15:43:16Z</time>
      </trkpt>
      <trkpt lat="43.61037" lon="0.90116">
        <ele>205.86</ele>
        <time>2021-08-18T15:43:19Z</time>
      </trkpt>
      <trkpt lat="43.61037" lon="0.90107">
        <ele>205.38</ele>
        <time>2021-08-18T15:43:20Z</time>
      </trkpt>
      <trkpt lat="43.61031" lon="0.90065">
        <ele>205.38</ele>
        <time>2021-08-18T15:43:26Z</time>
      </trkpt>
      <trkpt lat="43.61028" lon="0.90054">
        <ele>206.82</ele>
        <time>2021-08-18T15:43:28Z</time>
      </trkpt>
      <trkpt lat="43.61026" lon="0.90048">
        <ele>206.82</ele>
        <time>2021-08-18T15:43:29Z</time>
      </trkpt>
      <trkpt lat="43.61011" lon="0.90013">
        <ele>202.98</ele>
        <time>2021-08-18T15:43:34Z</time>
      </trkpt>
      <trkpt lat="43.61002" lon="0.89979">
        <ele>199.13</ele>
        <time>2021-08-18T15:43:38Z</time>
      </trkpt>
      <trkpt lat="43.60993" lon="0.89941">
        <ele>195.77</ele>
        <time>2021-08-18T15:43:42Z</time>
      </trkpt>
      <trkpt lat="43.60986" lon="0.89904">
        <ele>192.4</ele>
        <time>2021-08-18T15:43:46Z</time>
      </trkpt>
      <trkpt lat="43.60978" lon="0.8987">
        <ele>188.56</ele>
        <time>2021-08-18T15:43:50Z</time>
      </trkpt>
      <trkpt lat="43.60969" lon="0.89841">
        <ele>184.71</ele>
        <time>2021-08-18T15:43:53Z</time>
      </trkpt>
      <trkpt lat="43.60961" lon="0.89821">
        <ele>180.87</ele>
        <time>2021-08-18T15:43:55Z</time>
      </trkpt>
      <trkpt lat="43.60946" lon="0.89789">
        <ele>176.06</ele>
        <time>2021-08-18T15:43:58Z</time>
      </trkpt>
      <trkpt lat="43.60935" lon="0.89766">
        <ele>172.69</ele>
        <time>2021-08-18T15:44:00Z</time>
      </trkpt>
      <trkpt lat="43.60919" lon="0.89733">
        <ele>170.29</ele>
        <time>2021-08-18T15:44:03Z</time>
      </trkpt>
      <trkpt lat="43.60901" lon="0.89678">
        <ele>168.37</ele>
        <time>2021-08-18T15:44:08Z</time>
      </trkpt>
      <trkpt lat="43.60887" lon="0.89612">
        <ele>169.33</ele>
        <time>2021-08-18T15:44:15Z</time>
      </trkpt>
      <trkpt lat="43.60884" lon="0.89604">
        <ele>169.33</ele>
        <time>2021-08-18T15:44:16Z</time>
      </trkpt>
      <trkpt lat="43.60881" lon="0.89597">
        <ele>169.33</ele>
        <time>2021-08-18T15:44:17Z</time>
      </trkpt>
      <trkpt lat="43.60877" lon="0.89591">
        <ele>169.33</ele>
        <time>2021-08-18T15:44:18Z</time>
      </trkpt>
      <trkpt lat="43.60873" lon="0.89587">
        <ele>169.33</ele>
        <time>2021-08-18T15:44:19Z</time>
      </trkpt>
      <trkpt lat="43.60868" lon="0.89584">
        <ele>169.33</ele>
        <time>2021-08-18T15:44:20Z</time>
      </trkpt>
      <trkpt lat="43.60863" lon="0.89582">
        <ele>169.33</ele>
        <time>2021-08-18T15:44:21Z</time>
      </trkpt>
      <trkpt lat="43.60859" lon="0.89578">
        <ele>169.33</ele>
        <time>2021-08-18T15:44:22Z</time>
      </trkpt>
      <trkpt lat="43.60855" lon="0.89575">
        <ele>169.33</ele>
        <time>2021-08-18T15:44:23Z</time>
      </trkpt>
      <trkpt lat="43.6085" lon="0.89572">
        <ele>169.33</ele>
        <time>2021-08-18T15:44:24Z</time>
      </trkpt>
      <trkpt lat="43.60847" lon="0.8957">
        <ele>169.33</ele>
        <time>2021-08-18T15:44:25Z</time>
      </trkpt>
      <trkpt lat="43.60842" lon="0.89569">
        <ele>169.33</ele>
        <time>2021-08-18T15:44:26Z</time>
      </trkpt>
      <trkpt lat="43.60838" lon="0.89567">
        <ele>169.33</ele>
        <time>2021-08-18T15:44:27Z</time>
      </trkpt>
      <trkpt lat="43.60803" lon="0.89553">
        <ele>168.85</ele>
        <time>2021-08-18T15:44:35Z</time>
      </trkpt>
      <trkpt lat="43.60798" lon="0.89551">
        <ele>169.33</ele>
        <time>2021-08-18T15:44:36Z</time>
      </trkpt>
      <trkpt lat="43.60788" lon="0.89547">
        <ele>169.33</ele>
        <time>2021-08-18T15:44:38Z</time>
      </trkpt>
      <trkpt lat="43.60774" lon="0.89544">
        <ele>169.33</ele>
        <time>2021-08-18T15:44:41Z</time>
      </trkpt>
      <trkpt lat="43.60755" lon="0.89545">
        <ele>169.33</ele>
        <time>2021-08-18T15:44:45Z</time>
      </trkpt>
      <trkpt lat="43.6075" lon="0.89545">
        <ele>169.33</ele>
        <time>2021-08-18T15:44:46Z</time>
      </trkpt>
      <trkpt lat="43.60726" lon="0.89547">
        <ele>168.85</ele>
        <time>2021-08-18T15:44:51Z</time>
      </trkpt>
      <trkpt lat="43.60686" lon="0.89543">
        <ele>168.85</ele>
        <time>2021-08-18T15:44:59Z</time>
      </trkpt>
      <trkpt lat="43.60681" lon="0.89542">
        <ele>168.85</ele>
        <time>2021-08-18T15:45:00Z</time>
      </trkpt>
      <trkpt lat="43.60677" lon="0.8954">
        <ele>168.85</ele>
        <time>2021-08-18T15:45:01Z</time>
      </trkpt>
      <trkpt lat="43.60674" lon="0.89537">
        <ele>168.85</ele>
        <time>2021-08-18T15:45:02Z</time>
      </trkpt>
      <trkpt lat="43.60672" lon="0.89534">
        <ele>168.37</ele>
        <time>2021-08-18T15:45:03Z</time>
      </trkpt>
      <trkpt lat="43.60673" lon="0.89529">
        <ele>167.89</ele>
        <time>2021-08-18T15:45:04Z</time>
      </trkpt>
      <trkpt lat="43.60675" lon="0.89525">
        <ele>167.89</ele>
        <time>2021-08-18T15:45:05Z</time>
      </trkpt>
      <trkpt lat="43.60677" lon="0.89521">
        <ele>167.89</ele>
        <time>2021-08-18T15:45:06Z</time>
      </trkpt>
      <trkpt lat="43.6068" lon="0.89517">
        <ele>167.89</ele>
        <time>2021-08-18T15:45:07Z</time>
      </trkpt>
      <trkpt lat="43.60683" lon="0.89513">
        <ele>167.89</ele>
        <time>2021-08-18T15:45:08Z</time>
      </trkpt>
      <trkpt lat="43.60693" lon="0.89501">
        <ele>167.89</ele>
        <time>2021-08-18T15:45:11Z</time>
      </trkpt>
      <trkpt lat="43.60714" lon="0.89469">
        <ele>167.89</ele>
        <time>2021-08-18T15:45:19Z</time>
      </trkpt>
      <trkpt lat="43.60723" lon="0.89454">
        <ele>167.89</ele>
        <time>2021-08-18T15:45:23Z</time>
      </trkpt>
      <trkpt lat="43.6074" lon="0.89411">
        <ele>167.41</ele>
        <time>2021-08-18T15:45:30Z</time>
      </trkpt>
      <trkpt lat="43.60766" lon="0.89351">
        <ele>166.45</ele>
        <time>2021-08-18T15:45:39Z</time>
      </trkpt>
      <trkpt lat="43.60795" lon="0.89305">
        <ele>166.45</ele>
        <time>2021-08-18T15:45:47Z</time>
      </trkpt>
      <trkpt lat="43.60815" lon="0.89281">
        <ele>167.89</ele>
        <time>2021-08-18T15:45:52Z</time>
      </trkpt>
      <trkpt lat="43.60853" lon="0.89237">
        <ele>167.89</ele>
        <time>2021-08-18T15:46:02Z</time>
      </trkpt>
      <trkpt lat="43.60864" lon="0.89223">
        <ele>168.85</ele>
        <time>2021-08-18T15:46:06Z</time>
      </trkpt>
      <trkpt lat="43.60884" lon="0.89199">
        <ele>170.77</ele>
        <time>2021-08-18T15:46:14Z</time>
      </trkpt>
      <trkpt lat="43.60907" lon="0.89174">
        <ele>171.25</ele>
        <time>2021-08-18T15:46:23Z</time>
      </trkpt>
      <trkpt lat="43.60932" lon="0.8915">
        <ele>172.69</ele>
        <time>2021-08-18T15:46:31Z</time>
      </trkpt>
      <trkpt lat="43.6096" lon="0.89123">
        <ele>173.17</ele>
        <time>2021-08-18T15:46:40Z</time>
      </trkpt>
      <trkpt lat="43.6099" lon="0.89084">
        <ele>172.69</ele>
        <time>2021-08-18T15:46:49Z</time>
      </trkpt>
      <trkpt lat="43.61023" lon="0.89039">
        <ele>171.73</ele>
        <time>2021-08-18T15:46:58Z</time>
      </trkpt>
      <trkpt lat="43.61027" lon="0.89034">
        <ele>171.25</ele>
        <time>2021-08-18T15:46:59Z</time>
      </trkpt>
      <trkpt lat="43.61061" lon="0.88992">
        <ele>171.25</ele>
        <time>2021-08-18T15:47:08Z</time>
      </trkpt>
      <trkpt lat="43.61076" lon="0.88975">
        <ele>171.25</ele>
        <time>2021-08-18T15:47:12Z</time>
      </trkpt>
      <trkpt lat="43.61083" lon="0.88967">
        <ele>171.25</ele>
        <time>2021-08-18T15:47:14Z</time>
      </trkpt>
      <trkpt lat="43.61097" lon="0.88949">
        <ele>171.25</ele>
        <time>2021-08-18T15:47:18Z</time>
      </trkpt>
      <trkpt lat="43.61101" lon="0.88945">
        <ele>171.25</ele>
        <time>2021-08-18T15:47:19Z</time>
      </trkpt>
      <trkpt lat="43.61144" lon="0.88902">
        <ele>172.21</ele>
        <time>2021-08-18T15:47:30Z</time>
      </trkpt>
      <trkpt lat="43.61186" lon="0.88865">
        <ele>173.17</ele>
        <time>2021-08-18T15:47:41Z</time>
      </trkpt>
      <trkpt lat="43.61228" lon="0.88834">
        <ele>174.14</ele>
        <time>2021-08-18T15:47:52Z</time>
      </trkpt>
      <trkpt lat="43.61267" lon="0.88809">
        <ele>174.62</ele>
        <time>2021-08-18T15:48:02Z</time>
      </trkpt>
      <trkpt lat="43.61288" lon="0.88791">
        <ele>175.1</ele>
        <time>2021-08-18T15:48:08Z</time>
      </trkpt>
      <trkpt lat="43.61292" lon="0.88788">
        <ele>175.1</ele>
        <time>2021-08-18T15:48:09Z</time>
      </trkpt>
      <trkpt lat="43.61295" lon="0.88785">
        <ele>176.06</ele>
        <time>2021-08-18T15:48:10Z</time>
      </trkpt>
      <trkpt lat="43.61309" lon="0.88773">
        <ele>176.54</ele>
        <time>2021-08-18T15:48:14Z</time>
      </trkpt>
      <trkpt lat="43.61312" lon="0.88771">
        <ele>176.54</ele>
        <time>2021-08-18T15:48:15Z</time>
      </trkpt>
      <trkpt lat="43.61335" lon="0.88746">
        <ele>177.98</ele>
        <time>2021-08-18T15:48:24Z</time>
      </trkpt>
      <trkpt lat="43.61355" lon="0.88726">
        <ele>178.94</ele>
        <time>2021-08-18T15:48:32Z</time>
      </trkpt>
      <trkpt lat="43.61385" lon="0.88697">
        <ele>179.9</ele>
        <time>2021-08-18T15:48:42Z</time>
      </trkpt>
      <trkpt lat="43.61417" lon="0.88675">
        <ele>180.87</ele>
        <time>2021-08-18T15:48:52Z</time>
      </trkpt>
      <trkpt lat="43.61447" lon="0.88654">
        <ele>182.79</ele>
        <time>2021-08-18T15:49:03Z</time>
      </trkpt>
      <trkpt lat="43.61474" lon="0.88635">
        <ele>183.75</ele>
        <time>2021-08-18T15:49:13Z</time>
      </trkpt>
      <trkpt lat="43.61497" lon="0.8862">
        <ele>184.71</ele>
        <time>2021-08-18T15:49:21Z</time>
      </trkpt>
      <trkpt lat="43.61523" lon="0.88601">
        <ele>186.15</ele>
        <time>2021-08-18T15:49:30Z</time>
      </trkpt>
      <trkpt lat="43.6155" lon="0.88582">
        <ele>187.11</ele>
        <time>2021-08-18T15:49:39Z</time>
      </trkpt>
      <trkpt lat="43.61576" lon="0.88562">
        <ele>188.08</ele>
        <time>2021-08-18T15:49:48Z</time>
      </trkpt>
      <trkpt lat="43.61598" lon="0.88547">
        <ele>189.04</ele>
        <time>2021-08-18T15:49:55Z</time>
      </trkpt>
      <trkpt lat="43.61629" lon="0.88524">
        <ele>190.48</ele>
        <time>2021-08-18T15:50:06Z</time>
      </trkpt>
      <trkpt lat="43.61652" lon="0.88506">
        <ele>190.96</ele>
        <time>2021-08-18T15:50:14Z</time>
      </trkpt>
      <trkpt lat="43.61684" lon="0.88482">
        <ele>191.92</ele>
        <time>2021-08-18T15:50:24Z</time>
      </trkpt>
      <trkpt lat="43.61725" lon="0.88451">
        <ele>193.36</ele>
        <time>2021-08-18T15:50:37Z</time>
      </trkpt>
      <trkpt lat="43.61763" lon="0.88429">
        <ele>193.36</ele>
        <time>2021-08-18T15:50:48Z</time>
      </trkpt>
      <trkpt lat="43.61786" lon="0.88415">
        <ele>193.84</ele>
        <time>2021-08-18T15:50:55Z</time>
      </trkpt>
      <trkpt lat="43.61818" lon="0.88397">
        <ele>194.32</ele>
        <time>2021-08-18T15:51:05Z</time>
      </trkpt>
      <trkpt lat="43.61846" lon="0.88381">
        <ele>196.25</ele>
        <time>2021-08-18T15:51:13Z</time>
      </trkpt>
      <trkpt lat="43.61869" lon="0.88368">
        <ele>196.73</ele>
        <time>2021-08-18T15:51:20Z</time>
      </trkpt>
      <trkpt lat="43.61898" lon="0.8835">
        <ele>198.17</ele>
        <time>2021-08-18T15:51:30Z</time>
      </trkpt>
      <trkpt lat="43.61912" lon="0.88344">
        <ele>200.09</ele>
        <time>2021-08-18T15:51:38Z</time>
      </trkpt>
      <trkpt lat="43.61913" lon="0.88344">
        <ele>200.09</ele>
        <time>2021-08-18T15:51:52Z</time>
      </trkpt>
      <trkpt lat="43.61914" lon="0.88345">
        <ele>200.09</ele>
        <time>2021-08-18T15:52:13Z</time>
      </trkpt>
      <trkpt lat="43.61916" lon="0.88346">
        <ele>200.09</ele>
        <time>2021-08-18T15:52:22Z</time>
      </trkpt>
      <trkpt lat="43.61916" lon="0.88344">
        <ele>200.09</ele>
        <time>2021-08-18T15:52:39Z</time>
      </trkpt>
      <trkpt lat="43.61916" lon="0.88343">
        <ele>200.09</ele>
        <time>2021-08-18T15:52:40Z</time>
      </trkpt>
      <trkpt lat="43.61917" lon="0.88342">
        <ele>200.09</ele>
        <time>2021-08-18T15:52:41Z</time>
      </trkpt>
      <trkpt lat="43.61918" lon="0.8834">
        <ele>200.09</ele>
        <time>2021-08-18T15:52:42Z</time>
      </trkpt>
      <trkpt lat="43.61919" lon="0.88339">
        <ele>200.09</ele>
        <time>2021-08-18T15:52:43Z</time>
      </trkpt>
      <trkpt lat="43.6192" lon="0.88337">
        <ele>200.09</ele>
        <time>2021-08-18T15:52:44Z</time>
      </trkpt>
      <trkpt lat="43.61922" lon="0.88336">
        <ele>200.09</ele>
        <time>2021-08-18T15:52:45Z</time>
      </trkpt>
      <trkpt lat="43.61939" lon="0.88324">
        <ele>201.53</ele>
        <time>2021-08-18T15:52:51Z</time>
      </trkpt>
      <trkpt lat="43.61964" lon="0.88303">
        <ele>202.49</ele>
        <time>2021-08-18T15:52:59Z</time>
      </trkpt>
      <trkpt lat="43.61994" lon="0.8827">
        <ele>203.46</ele>
        <time>2021-08-18T15:53:09Z</time>
      </trkpt>
      <trkpt lat="43.62013" lon="0.88253">
        <ele>203.46</ele>
        <time>2021-08-18T15:53:14Z</time>
      </trkpt>
      <trkpt lat="43.62021" lon="0.88247">
        <ele>203.46</ele>
        <time>2021-08-18T15:53:16Z</time>
      </trkpt>
      <trkpt lat="43.62026" lon="0.88243">
        <ele>203.46</ele>
        <time>2021-08-18T15:53:17Z</time>
      </trkpt>
      <trkpt lat="43.6203" lon="0.8824">
        <ele>203.46</ele>
        <time>2021-08-18T15:53:18Z</time>
      </trkpt>
      <trkpt lat="43.62034" lon="0.88237">
        <ele>203.46</ele>
        <time>2021-08-18T15:53:19Z</time>
      </trkpt>
      <trkpt lat="43.62038" lon="0.88234">
        <ele>203.46</ele>
        <time>2021-08-18T15:53:20Z</time>
      </trkpt>
      <trkpt lat="43.62083" lon="0.88201">
        <ele>202.01</ele>
        <time>2021-08-18T15:53:29Z</time>
      </trkpt>
      <trkpt lat="43.62128" lon="0.88159">
        <ele>202.01</ele>
        <time>2021-08-18T15:53:39Z</time>
      </trkpt>
      <trkpt lat="43.6215" lon="0.88139">
        <ele>203.46</ele>
        <time>2021-08-18T15:53:44Z</time>
      </trkpt>
      <trkpt lat="43.62155" lon="0.88135">
        <ele>203.46</ele>
        <time>2021-08-18T15:53:45Z</time>
      </trkpt>
      <trkpt lat="43.62175" lon="0.88124">
        <ele>203.46</ele>
        <time>2021-08-18T15:53:49Z</time>
      </trkpt>
      <trkpt lat="43.6222" lon="0.88108">
        <ele>203.46</ele>
        <time>2021-08-18T15:53:57Z</time>
      </trkpt>
      <trkpt lat="43.62226" lon="0.88108">
        <ele>203.46</ele>
        <time>2021-08-18T15:53:58Z</time>
      </trkpt>
      <trkpt lat="43.62231" lon="0.88108">
        <ele>203.46</ele>
        <time>2021-08-18T15:53:59Z</time>
      </trkpt>
      <trkpt lat="43.62266" lon="0.88113">
        <ele>202.01</ele>
        <time>2021-08-18T15:54:05Z</time>
      </trkpt>
      <trkpt lat="43.62277" lon="0.88114">
        <ele>202.01</ele>
        <time>2021-08-18T15:54:07Z</time>
      </trkpt>
      <trkpt lat="43.62282" lon="0.8811">
        <ele>202.01</ele>
        <time>2021-08-18T15:54:08Z</time>
      </trkpt>
      <trkpt lat="43.62287" lon="0.88104">
        <ele>202.01</ele>
        <time>2021-08-18T15:54:09Z</time>
      </trkpt>
      <trkpt lat="43.62311" lon="0.88046">
        <ele>200.57</ele>
        <time>2021-08-18T15:54:16Z</time>
      </trkpt>
      <trkpt lat="43.62339" lon="0.87968">
        <ele>199.61</ele>
        <time>2021-08-18T15:54:25Z</time>
      </trkpt>
      <trkpt lat="43.62366" lon="0.87897">
        <ele>197.69</ele>
        <time>2021-08-18T15:54:33Z</time>
      </trkpt>
      <trkpt lat="43.62369" lon="0.87888">
        <ele>197.69</ele>
        <time>2021-08-18T15:54:34Z</time>
      </trkpt>
      <trkpt lat="43.62392" lon="0.87813">
        <ele>194.32</ele>
        <time>2021-08-18T15:54:41Z</time>
      </trkpt>
      <trkpt lat="43.62417" lon="0.87732">
        <ele>193.36</ele>
        <time>2021-08-18T15:54:49Z</time>
      </trkpt>
      <trkpt lat="43.6242" lon="0.87727">
        <ele>193.36</ele>
        <time>2021-08-18T15:54:51Z</time>
      </trkpt>
      <trkpt lat="43.6242" lon="0.87728">
        <ele>193.36</ele>
        <time>2021-08-18T15:54:52Z</time>
      </trkpt>
      <trkpt lat="43.62413" lon="0.87743">
        <ele>194.8</ele>
        <time>2021-08-18T15:54:57Z</time>
      </trkpt>
      <trkpt lat="43.6241" lon="0.87758">
        <ele>194.8</ele>
        <time>2021-08-18T15:55:00Z</time>
      </trkpt>
      <trkpt lat="43.62408" lon="0.87763">
        <ele>194.8</ele>
        <time>2021-08-18T15:55:01Z</time>
      </trkpt>
      <trkpt lat="43.62402" lon="0.87794">
        <ele>195.28</ele>
        <time>2021-08-18T15:55:06Z</time>
      </trkpt>
      <trkpt lat="43.62404" lon="0.878">
        <ele>195.28</ele>
        <time>2021-08-18T15:55:07Z</time>
      </trkpt>
      <trkpt lat="43.6241" lon="0.87813">
        <ele>193.84</ele>
        <time>2021-08-18T15:55:10Z</time>
      </trkpt>
      <trkpt lat="43.62412" lon="0.87815">
        <ele>193.84</ele>
        <time>2021-08-18T15:55:11Z</time>
      </trkpt>
      <trkpt lat="43.62414" lon="0.87814">
        <ele>193.84</ele>
        <time>2021-08-18T15:55:12Z</time>
      </trkpt>
      <trkpt lat="43.62415" lon="0.87812">
        <ele>193.84</ele>
        <time>2021-08-18T15:55:13Z</time>
      </trkpt>
      <trkpt lat="43.62416" lon="0.87808">
        <ele>193.84</ele>
        <time>2021-08-18T15:55:14Z</time>
      </trkpt>
      <trkpt lat="43.62417" lon="0.87805">
        <ele>193.36</ele>
        <time>2021-08-18T15:55:15Z</time>
      </trkpt>
      <trkpt lat="43.62426" lon="0.8778">
        <ele>193.36</ele>
        <time>2021-08-18T15:55:21Z</time>
      </trkpt>
      <trkpt lat="43.62427" lon="0.87779">
        <ele>192.88</ele>
        <time>2021-08-18T15:55:22Z</time>
      </trkpt>
      <trkpt lat="43.62428" lon="0.87777">
        <ele>192.88</ele>
        <time>2021-08-18T15:55:23Z</time>
      </trkpt>
      <trkpt lat="43.62437" lon="0.87758">
        <ele>191.92</ele>
        <time>2021-08-18T15:55:28Z</time>
      </trkpt>
      <trkpt lat="43.62445" lon="0.87748">
        <ele>190</ele>
        <time>2021-08-18T15:55:31Z</time>
      </trkpt>
      <trkpt lat="43.62447" lon="0.87749">
        <ele>189.04</ele>
        <time>2021-08-18T15:55:32Z</time>
      </trkpt>
      <trkpt lat="43.62451" lon="0.87752">
        <ele>189.04</ele>
        <time>2021-08-18T15:55:33Z</time>
      </trkpt>
      <trkpt lat="43.62454" lon="0.87757">
        <ele>188.08</ele>
        <time>2021-08-18T15:55:34Z</time>
      </trkpt>
      <trkpt lat="43.62458" lon="0.87762">
        <ele>187.11</ele>
        <time>2021-08-18T15:55:35Z</time>
      </trkpt>
      <trkpt lat="43.62467" lon="0.87771">
        <ele>185.67</ele>
        <time>2021-08-18T15:55:37Z</time>
      </trkpt>
      <trkpt lat="43.62469" lon="0.87775">
        <ele>185.67</ele>
        <time>2021-08-18T15:55:38Z</time>
      </trkpt>
      <trkpt lat="43.62475" lon="0.87777">
        <ele>184.71</ele>
        <time>2021-08-18T15:55:41Z</time>
      </trkpt>
      <trkpt lat="43.62489" lon="0.87753">
        <ele>182.79</ele>
        <time>2021-08-18T15:55:46Z</time>
      </trkpt>
      <trkpt lat="43.62499" lon="0.87742">
        <ele>181.35</ele>
        <time>2021-08-18T15:55:49Z</time>
      </trkpt>
      <trkpt lat="43.62514" lon="0.87759">
        <ele>183.27</ele>
        <time>2021-08-18T15:55:56Z</time>
      </trkpt>
      <trkpt lat="43.62527" lon="0.87773">
        <ele>184.71</ele>
        <time>2021-08-18T15:56:01Z</time>
      </trkpt>
      <trkpt lat="43.62542" lon="0.87788">
        <ele>186.63</ele>
        <time>2021-08-18T15:56:08Z</time>
      </trkpt>
      <trkpt lat="43.62544" lon="0.87791">
        <ele>187.11</ele>
        <time>2021-08-18T15:56:10Z</time>
      </trkpt>
      <trkpt lat="43.62544" lon="0.87794">
        <ele>187.11</ele>
        <time>2021-08-18T15:56:11Z</time>
      </trkpt>
      <trkpt lat="43.62543" lon="0.87797">
        <ele>187.11</ele>
        <time>2021-08-18T15:56:12Z</time>
      </trkpt>
      <trkpt lat="43.62542" lon="0.878">
        <ele>187.11</ele>
        <time>2021-08-18T15:56:13Z</time>
      </trkpt>
      <trkpt lat="43.6254" lon="0.87804">
        <ele>187.11</ele>
        <time>2021-08-18T15:56:14Z</time>
      </trkpt>
      <trkpt lat="43.62537" lon="0.87808">
        <ele>187.11</ele>
        <time>2021-08-18T15:56:15Z</time>
      </trkpt>
      <trkpt lat="43.62517" lon="0.87841">
        <ele>188.08</ele>
        <time>2021-08-18T15:56:24Z</time>
      </trkpt>
      <trkpt lat="43.62517" lon="0.87844">
        <ele>187.59</ele>
        <time>2021-08-18T15:56:25Z</time>
      </trkpt>
      <trkpt lat="43.62518" lon="0.87846">
        <ele>187.59</ele>
        <time>2021-08-18T15:56:26Z</time>
      </trkpt>
      <trkpt lat="43.62519" lon="0.87847">
        <ele>187.59</ele>
        <time>2021-08-18T15:56:27Z</time>
      </trkpt>
      <trkpt lat="43.62521" lon="0.87847">
        <ele>187.59</ele>
        <time>2021-08-18T15:56:28Z</time>
      </trkpt>
      <trkpt lat="43.62522" lon="0.87848">
        <ele>187.59</ele>
        <time>2021-08-18T15:56:29Z</time>
      </trkpt>
      <trkpt lat="43.62535" lon="0.8786">
        <ele>184.71</ele>
        <time>2021-08-18T15:56:34Z</time>
      </trkpt>
      <trkpt lat="43.62559" lon="0.87881">
        <ele>180.87</ele>
        <time>2021-08-18T15:56:39Z</time>
      </trkpt>
      <trkpt lat="43.62569" lon="0.87892">
        <ele>179.9</ele>
        <time>2021-08-18T15:56:41Z</time>
      </trkpt>
      <trkpt lat="43.62581" lon="0.87904">
        <ele>177.5</ele>
        <time>2021-08-18T15:56:44Z</time>
      </trkpt>
      <trkpt lat="43.62587" lon="0.87909">
        <ele>176.54</ele>
        <time>2021-08-18T15:56:47Z</time>
      </trkpt>
      <trkpt lat="43.62587" lon="0.8791">
        <ele>176.54</ele>
        <time>2021-08-18T15:56:48Z</time>
      </trkpt>
      <trkpt lat="43.62586" lon="0.87913">
        <ele>176.54</ele>
        <time>2021-08-18T15:56:50Z</time>
      </trkpt>
      <trkpt lat="43.62586" lon="0.87916">
        <ele>176.54</ele>
        <time>2021-08-18T15:56:51Z</time>
      </trkpt>
      <trkpt lat="43.62588" lon="0.87918">
        <ele>176.54</ele>
        <time>2021-08-18T15:56:52Z</time>
      </trkpt>
      <trkpt lat="43.6259" lon="0.87916">
        <ele>176.06</ele>
        <time>2021-08-18T15:56:53Z</time>
      </trkpt>
      <trkpt lat="43.62593" lon="0.87912">
        <ele>176.06</ele>
        <time>2021-08-18T15:56:54Z</time>
      </trkpt>
      <trkpt lat="43.62598" lon="0.87907">
        <ele>176.06</ele>
        <time>2021-08-18T15:56:55Z</time>
      </trkpt>
      <trkpt lat="43.62633" lon="0.87866">
        <ele>174.62</ele>
        <time>2021-08-18T15:57:03Z</time>
      </trkpt>
      <trkpt lat="43.6266" lon="0.87834">
        <ele>174.14</ele>
        <time>2021-08-18T15:57:09Z</time>
      </trkpt>
      <trkpt lat="43.62665" lon="0.87829">
        <ele>174.14</ele>
        <time>2021-08-18T15:57:10Z</time>
      </trkpt>
      <trkpt lat="43.62669" lon="0.87824">
        <ele>174.14</ele>
        <time>2021-08-18T15:57:11Z</time>
      </trkpt>
      <trkpt lat="43.62692" lon="0.87791">
        <ele>172.69</ele>
        <time>2021-08-18T15:57:17Z</time>
      </trkpt>
      <trkpt lat="43.62694" lon="0.87786">
        <ele>172.69</ele>
        <time>2021-08-18T15:57:18Z</time>
      </trkpt>
      <trkpt lat="43.62696" lon="0.87782">
        <ele>172.69</ele>
        <time>2021-08-18T15:57:19Z</time>
      </trkpt>
      <trkpt lat="43.62699" lon="0.87779">
        <ele>172.69</ele>
        <time>2021-08-18T15:57:20Z</time>
      </trkpt>
      <trkpt lat="43.62702" lon="0.87776">
        <ele>172.69</ele>
        <time>2021-08-18T15:57:21Z</time>
      </trkpt>
      <trkpt lat="43.62704" lon="0.87772">
        <ele>172.69</ele>
        <time>2021-08-18T15:57:22Z</time>
      </trkpt>
      <trkpt lat="43.62707" lon="0.87768">
        <ele>172.69</ele>
        <time>2021-08-18T15:57:23Z</time>
      </trkpt>
      <trkpt lat="43.62733" lon="0.8773">
        <ele>171.25</ele>
        <time>2021-08-18T15:57:30Z</time>
      </trkpt>
      <trkpt lat="43.62775" lon="0.87665">
        <ele>168.85</ele>
        <time>2021-08-18T15:57:39Z</time>
      </trkpt>
      <trkpt lat="43.62807" lon="0.87613">
        <ele>167.89</ele>
        <time>2021-08-18T15:57:46Z</time>
      </trkpt>
      <trkpt lat="43.62823" lon="0.87586">
        <ele>167.41</ele>
        <time>2021-08-18T15:57:52Z</time>
      </trkpt>
      <trkpt lat="43.62822" lon="0.87582">
        <ele>167.41</ele>
        <time>2021-08-18T15:57:53Z</time>
      </trkpt>
      <trkpt lat="43.6282" lon="0.87579">
        <ele>167.41</ele>
        <time>2021-08-18T15:57:54Z</time>
      </trkpt>
      <trkpt lat="43.62819" lon="0.87578">
        <ele>167.41</ele>
        <time>2021-08-18T15:57:55Z</time>
      </trkpt>
      <trkpt lat="43.62817" lon="0.87576">
        <ele>167.41</ele>
        <time>2021-08-18T15:57:56Z</time>
      </trkpt>
      <trkpt lat="43.62816" lon="0.87574">
        <ele>168.85</ele>
        <time>2021-08-18T15:57:57Z</time>
      </trkpt>
      <trkpt lat="43.62815" lon="0.87572">
        <ele>168.85</ele>
        <time>2021-08-18T15:57:58Z</time>
      </trkpt>
      <trkpt lat="43.62816" lon="0.87572">
        <ele>169.33</ele>
        <time>2021-08-18T15:58:03Z</time>
      </trkpt>
      <trkpt lat="43.62816" lon="0.87569">
        <ele>169.33</ele>
        <time>2021-08-18T15:58:16Z</time>
      </trkpt>
      <trkpt lat="43.62803" lon="0.87558">
        <ele>172.21</ele>
        <time>2021-08-18T15:58:23Z</time>
      </trkpt>
      <trkpt lat="43.62785" lon="0.87545">
        <ele>174.14</ele>
        <time>2021-08-18T15:58:31Z</time>
      </trkpt>
      <trkpt lat="43.62772" lon="0.87534">
        <ele>175.58</ele>
        <time>2021-08-18T15:58:40Z</time>
      </trkpt>
      <trkpt lat="43.6276" lon="0.87526">
        <ele>177.5</ele>
        <time>2021-08-18T15:58:49Z</time>
      </trkpt>
      <trkpt lat="43.62751" lon="0.87515">
        <ele>178.46</ele>
        <time>2021-08-18T15:58:57Z</time>
      </trkpt>
      <trkpt lat="43.62739" lon="0.87508">
        <ele>180.38</ele>
        <time>2021-08-18T15:59:05Z</time>
      </trkpt>
      <trkpt lat="43.62733" lon="0.87506">
        <ele>180.87</ele>
        <time>2021-08-18T15:59:11Z</time>
      </trkpt>
      <trkpt lat="43.62732" lon="0.87504">
        <ele>181.35</ele>
        <time>2021-08-18T15:59:15Z</time>
      </trkpt>
      <trkpt lat="43.62729" lon="0.87499">
        <ele>181.83</ele>
        <time>2021-08-18T15:59:19Z</time>
      </trkpt>
      <trkpt lat="43.62729" lon="0.87497">
        <ele>181.83</ele>
        <time>2021-08-18T15:59:20Z</time>
      </trkpt>
      <trkpt lat="43.6273" lon="0.87494">
        <ele>181.83</ele>
        <time>2021-08-18T15:59:21Z</time>
      </trkpt>
      <trkpt lat="43.6273" lon="0.8749">
        <ele>181.83</ele>
        <time>2021-08-18T15:59:22Z</time>
      </trkpt>
      <trkpt lat="43.62729" lon="0.87488">
        <ele>181.83</ele>
        <time>2021-08-18T15:59:23Z</time>
      </trkpt>
      <trkpt lat="43.62727" lon="0.87485">
        <ele>181.83</ele>
        <time>2021-08-18T15:59:24Z</time>
      </trkpt>
      <trkpt lat="43.62716" lon="0.87475">
        <ele>180.38</ele>
        <time>2021-08-18T15:59:29Z</time>
      </trkpt>
      <trkpt lat="43.62707" lon="0.87462">
        <ele>177.5</ele>
        <time>2021-08-18T15:59:33Z</time>
      </trkpt>
      <trkpt lat="43.62699" lon="0.87451">
        <ele>173.66</ele>
        <time>2021-08-18T15:59:36Z</time>
      </trkpt>
      <trkpt lat="43.62685" lon="0.87434">
        <ele>170.29</ele>
        <time>2021-08-18T15:59:41Z</time>
      </trkpt>
      <trkpt lat="43.62676" lon="0.87418">
        <ele>167.41</ele>
        <time>2021-08-18T15:59:46Z</time>
      </trkpt>
      <trkpt lat="43.62661" lon="0.87405">
        <ele>165.48</ele>
        <time>2021-08-18T15:59:49Z</time>
      </trkpt>
      <trkpt lat="43.62659" lon="0.87401">
        <ele>165.48</ele>
        <time>2021-08-18T15:59:50Z</time>
      </trkpt>
      <trkpt lat="43.6266" lon="0.87397">
        <ele>165</ele>
        <time>2021-08-18T15:59:51Z</time>
      </trkpt>
      <trkpt lat="43.62661" lon="0.87394">
        <ele>165.48</ele>
        <time>2021-08-18T15:59:52Z</time>
      </trkpt>
      <trkpt lat="43.62664" lon="0.87391">
        <ele>165</ele>
        <time>2021-08-18T15:59:53Z</time>
      </trkpt>
      <trkpt lat="43.62666" lon="0.87387">
        <ele>165</ele>
        <time>2021-08-18T15:59:54Z</time>
      </trkpt>
      <trkpt lat="43.62692" lon="0.87351">
        <ele>163.56</ele>
        <time>2021-08-18T16:00:01Z</time>
      </trkpt>
      <trkpt lat="43.62726" lon="0.87304">
        <ele>160.2</ele>
        <time>2021-08-18T16:00:08Z</time>
      </trkpt>
      <trkpt lat="43.62756" lon="0.87266">
        <ele>159.72</ele>
        <time>2021-08-18T16:00:14Z</time>
      </trkpt>
      <trkpt lat="43.62772" lon="0.87241">
        <ele>159.72</ele>
        <time>2021-08-18T16:00:18Z</time>
      </trkpt>
      <trkpt lat="43.62774" lon="0.87235">
        <ele>159.72</ele>
        <time>2021-08-18T16:00:19Z</time>
      </trkpt>
      <trkpt lat="43.62774" lon="0.87229">
        <ele>160.2</ele>
        <time>2021-08-18T16:00:20Z</time>
      </trkpt>
      <trkpt lat="43.62773" lon="0.87224">
        <ele>160.2</ele>
        <time>2021-08-18T16:00:21Z</time>
      </trkpt>
      <trkpt lat="43.62771" lon="0.87221">
        <ele>160.2</ele>
        <time>2021-08-18T16:00:22Z</time>
      </trkpt>
      <trkpt lat="43.62768" lon="0.87219">
        <ele>160.2</ele>
        <time>2021-08-18T16:00:23Z</time>
      </trkpt>
      <trkpt lat="43.62765" lon="0.87217">
        <ele>160.2</ele>
        <time>2021-08-18T16:00:24Z</time>
      </trkpt>
      <trkpt lat="43.62762" lon="0.87214">
        <ele>160.2</ele>
        <time>2021-08-18T16:00:25Z</time>
      </trkpt>
      <trkpt lat="43.62745" lon="0.87197">
        <ele>160.2</ele>
        <time>2021-08-18T16:00:31Z</time>
      </trkpt>
      <trkpt lat="43.62719" lon="0.87174">
        <ele>163.08</ele>
        <time>2021-08-18T16:00:40Z</time>
      </trkpt>
      <trkpt lat="43.62698" lon="0.87158">
        <ele>163.56</ele>
        <time>2021-08-18T16:00:48Z</time>
      </trkpt>
      <trkpt lat="43.62677" lon="0.87144">
        <ele>162.12</ele>
        <time>2021-08-18T16:00:53Z</time>
      </trkpt>
      <trkpt lat="43.62665" lon="0.87136">
        <ele>161.64</ele>
        <time>2021-08-18T16:00:55Z</time>
      </trkpt>
      <trkpt lat="43.62618" lon="0.87106">
        <ele>157.79</ele>
        <time>2021-08-18T16:01:02Z</time>
      </trkpt>
      <trkpt lat="43.62604" lon="0.87097">
        <ele>157.31</ele>
        <time>2021-08-18T16:01:04Z</time>
      </trkpt>
      <trkpt lat="43.6255" lon="0.87065">
        <ele>154.43</ele>
        <time>2021-08-18T16:01:11Z</time>
      </trkpt>
      <trkpt lat="43.62545" lon="0.8706">
        <ele>154.43</ele>
        <time>2021-08-18T16:01:12Z</time>
      </trkpt>
      <trkpt lat="43.62541" lon="0.87055">
        <ele>153.95</ele>
        <time>2021-08-18T16:01:13Z</time>
      </trkpt>
      <trkpt lat="43.62539" lon="0.87048">
        <ele>153.47</ele>
        <time>2021-08-18T16:01:14Z</time>
      </trkpt>
      <trkpt lat="43.62539" lon="0.87041">
        <ele>152.99</ele>
        <time>2021-08-18T16:01:15Z</time>
      </trkpt>
      <trkpt lat="43.62539" lon="0.87033">
        <ele>152.99</ele>
        <time>2021-08-18T16:01:16Z</time>
      </trkpt>
      <trkpt lat="43.62541" lon="0.87026">
        <ele>152.99</ele>
        <time>2021-08-18T16:01:17Z</time>
      </trkpt>
      <trkpt lat="43.62551" lon="0.8698">
        <ele>152.99</ele>
        <time>2021-08-18T16:01:23Z</time>
      </trkpt>
      <trkpt lat="43.62552" lon="0.86972">
        <ele>152.99</ele>
        <time>2021-08-18T16:01:24Z</time>
      </trkpt>
      <trkpt lat="43.62564" lon="0.86913">
        <ele>152.99</ele>
        <time>2021-08-18T16:01:32Z</time>
      </trkpt>
      <trkpt lat="43.6257" lon="0.86882">
        <ele>152.99</ele>
        <time>2021-08-18T16:01:36Z</time>
      </trkpt>
      <trkpt lat="43.6257" lon="0.86843">
        <ele>152.03</ele>
        <time>2021-08-18T16:01:41Z</time>
      </trkpt>
      <trkpt lat="43.6257" lon="0.86829">
        <ele>152.03</ele>
        <time>2021-08-18T16:01:43Z</time>
      </trkpt>
      <trkpt lat="43.62571" lon="0.86822">
        <ele>152.03</ele>
        <time>2021-08-18T16:01:44Z</time>
      </trkpt>
      <trkpt lat="43.62574" lon="0.86817">
        <ele>152.03</ele>
        <time>2021-08-18T16:01:45Z</time>
      </trkpt>
      <trkpt lat="43.62578" lon="0.86814">
        <ele>152.03</ele>
        <time>2021-08-18T16:01:46Z</time>
      </trkpt>
      <trkpt lat="43.62582" lon="0.86813">
        <ele>152.03</ele>
        <time>2021-08-18T16:01:47Z</time>
      </trkpt>
      <trkpt lat="43.62586" lon="0.86814">
        <ele>152.03</ele>
        <time>2021-08-18T16:01:48Z</time>
      </trkpt>
      <trkpt lat="43.62591" lon="0.86815">
        <ele>152.03</ele>
        <time>2021-08-18T16:01:49Z</time>
      </trkpt>
      <trkpt lat="43.62637" lon="0.8683">
        <ele>152.03</ele>
        <time>2021-08-18T16:01:58Z</time>
      </trkpt>
      <trkpt lat="43.62681" lon="0.86842">
        <ele>152.03</ele>
        <time>2021-08-18T16:02:06Z</time>
      </trkpt>
      <trkpt lat="43.62732" lon="0.86857">
        <ele>152.03</ele>
        <time>2021-08-18T16:02:16Z</time>
      </trkpt>
      <trkpt lat="43.62737" lon="0.86856">
        <ele>152.03</ele>
        <time>2021-08-18T16:02:17Z</time>
      </trkpt>
      <trkpt lat="43.62742" lon="0.86854">
        <ele>152.03</ele>
        <time>2021-08-18T16:02:18Z</time>
      </trkpt>
      <trkpt lat="43.6275" lon="0.86848">
        <ele>152.03</ele>
        <time>2021-08-18T16:02:20Z</time>
      </trkpt>
      <trkpt lat="43.62754" lon="0.86847">
        <ele>152.03</ele>
        <time>2021-08-18T16:02:21Z</time>
      </trkpt>
      <trkpt lat="43.62759" lon="0.86846">
        <ele>152.03</ele>
        <time>2021-08-18T16:02:22Z</time>
      </trkpt>
      <trkpt lat="43.62764" lon="0.86847">
        <ele>152.03</ele>
        <time>2021-08-18T16:02:23Z</time>
      </trkpt>
      <trkpt lat="43.62769" lon="0.86849">
        <ele>152.03</ele>
        <time>2021-08-18T16:02:24Z</time>
      </trkpt>
      <trkpt lat="43.62774" lon="0.86851">
        <ele>152.03</ele>
        <time>2021-08-18T16:02:25Z</time>
      </trkpt>
      <trkpt lat="43.62779" lon="0.86853">
        <ele>152.03</ele>
        <time>2021-08-18T16:02:26Z</time>
      </trkpt>
      <trkpt lat="43.62802" lon="0.86861">
        <ele>152.03</ele>
        <time>2021-08-18T16:02:31Z</time>
      </trkpt>
      <trkpt lat="43.62806" lon="0.86864">
        <ele>152.03</ele>
        <time>2021-08-18T16:02:32Z</time>
      </trkpt>
      <trkpt lat="43.62811" lon="0.86866">
        <ele>152.03</ele>
        <time>2021-08-18T16:02:33Z</time>
      </trkpt>
      <trkpt lat="43.62815" lon="0.86868">
        <ele>152.03</ele>
        <time>2021-08-18T16:02:34Z</time>
      </trkpt>
      <trkpt lat="43.6282" lon="0.8687">
        <ele>152.03</ele>
        <time>2021-08-18T16:02:35Z</time>
      </trkpt>
      <trkpt lat="43.62864" lon="0.86897">
        <ele>152.03</ele>
        <time>2021-08-18T16:02:45Z</time>
      </trkpt>
      <trkpt lat="43.6291" lon="0.86925">
        <ele>152.03</ele>
        <time>2021-08-18T16:02:54Z</time>
      </trkpt>
      <trkpt lat="43.62953" lon="0.86951">
        <ele>152.03</ele>
        <time>2021-08-18T16:03:03Z</time>
      </trkpt>
      <trkpt lat="43.62957" lon="0.86949">
        <ele>151.54</ele>
        <time>2021-08-18T16:03:04Z</time>
      </trkpt>
      <trkpt lat="43.62959" lon="0.86945">
        <ele>151.54</ele>
        <time>2021-08-18T16:03:05Z</time>
      </trkpt>
      <trkpt lat="43.62961" lon="0.86941">
        <ele>151.54</ele>
        <time>2021-08-18T16:03:06Z</time>
      </trkpt>
      <trkpt lat="43.62962" lon="0.86935">
        <ele>151.54</ele>
        <time>2021-08-18T16:03:07Z</time>
      </trkpt>
      <trkpt lat="43.62963" lon="0.86928">
        <ele>151.54</ele>
        <time>2021-08-18T16:03:08Z</time>
      </trkpt>
      <trkpt lat="43.6297" lon="0.86895">
        <ele>151.54</ele>
        <time>2021-08-18T16:03:13Z</time>
      </trkpt>
      <trkpt lat="43.62971" lon="0.86888">
        <ele>151.54</ele>
        <time>2021-08-18T16:03:14Z</time>
      </trkpt>
      <trkpt lat="43.62988" lon="0.86831">
        <ele>151.06</ele>
        <time>2021-08-18T16:03:23Z</time>
      </trkpt>
      <trkpt lat="43.63001" lon="0.86784">
        <ele>151.06</ele>
        <time>2021-08-18T16:03:31Z</time>
      </trkpt>
      <trkpt lat="43.63014" lon="0.86737">
        <ele>151.06</ele>
        <time>2021-08-18T16:03:39Z</time>
      </trkpt>
      <trkpt lat="43.63025" lon="0.86701">
        <ele>152.51</ele>
        <time>2021-08-18T16:03:46Z</time>
      </trkpt>
      <trkpt lat="43.63035" lon="0.8667">
        <ele>153.47</ele>
        <time>2021-08-18T16:03:53Z</time>
      </trkpt>
      <trkpt lat="43.63045" lon="0.86638">
        <ele>154.43</ele>
        <time>2021-08-18T16:04:01Z</time>
      </trkpt>
      <trkpt lat="43.63055" lon="0.86608">
        <ele>154.91</ele>
        <time>2021-08-18T16:04:09Z</time>
      </trkpt>
      <trkpt lat="43.63059" lon="0.86597">
        <ele>155.87</ele>
        <time>2021-08-18T16:04:13Z</time>
      </trkpt>
      <trkpt lat="43.63064" lon="0.86591">
        <ele>155.87</ele>
        <time>2021-08-18T16:04:18Z</time>
      </trkpt>
      <trkpt lat="43.63076" lon="0.8657">
        <ele>156.35</ele>
        <time>2021-08-18T16:04:25Z</time>
      </trkpt>
      <trkpt lat="43.63089" lon="0.86526">
        <ele>156.83</ele>
        <time>2021-08-18T16:04:35Z</time>
      </trkpt>
      <trkpt lat="43.63098" lon="0.86491">
        <ele>158.27</ele>
        <time>2021-08-18T16:04:44Z</time>
      </trkpt>
      <trkpt lat="43.6311" lon="0.8647">
        <ele>160.2</ele>
        <time>2021-08-18T16:04:52Z</time>
      </trkpt>
      <trkpt lat="43.63114" lon="0.86459">
        <ele>160.2</ele>
        <time>2021-08-18T16:04:56Z</time>
      </trkpt>
      <trkpt lat="43.63113" lon="0.86456">
        <ele>160.2</ele>
        <time>2021-08-18T16:04:57Z</time>
      </trkpt>
      <trkpt lat="43.63101" lon="0.86434">
        <ele>160.2</ele>
        <time>2021-08-18T16:05:03Z</time>
      </trkpt>
      <trkpt lat="43.63091" lon="0.86424">
        <ele>160.2</ele>
        <time>2021-08-18T16:05:06Z</time>
      </trkpt>
      <trkpt lat="43.63074" lon="0.8641">
        <ele>160.2</ele>
        <time>2021-08-18T16:05:10Z</time>
      </trkpt>
      <trkpt lat="43.63069" lon="0.86406">
        <ele>159.24</ele>
        <time>2021-08-18T16:05:11Z</time>
      </trkpt>
      <trkpt lat="43.63065" lon="0.86402">
        <ele>159.24</ele>
        <time>2021-08-18T16:05:12Z</time>
      </trkpt>
      <trkpt lat="43.63034" lon="0.86362">
        <ele>157.79</ele>
        <time>2021-08-18T16:05:19Z</time>
      </trkpt>
      <trkpt lat="43.63027" lon="0.86349">
        <ele>157.79</ele>
        <time>2021-08-18T16:05:21Z</time>
      </trkpt>
      <trkpt lat="43.63023" lon="0.86342">
        <ele>157.79</ele>
        <time>2021-08-18T16:05:22Z</time>
      </trkpt>
      <trkpt lat="43.63021" lon="0.86334">
        <ele>157.79</ele>
        <time>2021-08-18T16:05:23Z</time>
      </trkpt>
      <trkpt lat="43.63018" lon="0.86326">
        <ele>157.79</ele>
        <time>2021-08-18T16:05:24Z</time>
      </trkpt>
      <trkpt lat="43.63017" lon="0.86317">
        <ele>157.79</ele>
        <time>2021-08-18T16:05:25Z</time>
      </trkpt>
      <trkpt lat="43.63015" lon="0.86309">
        <ele>157.31</ele>
        <time>2021-08-18T16:05:26Z</time>
      </trkpt>
      <trkpt lat="43.63005" lon="0.86244">
        <ele>156.83</ele>
        <time>2021-08-18T16:05:34Z</time>
      </trkpt>
      <trkpt lat="43.62994" lon="0.86183">
        <ele>156.83</ele>
        <time>2021-08-18T16:05:42Z</time>
      </trkpt>
      <trkpt lat="43.62984" lon="0.86133">
        <ele>156.83</ele>
        <time>2021-08-18T16:05:49Z</time>
      </trkpt>
      <trkpt lat="43.62976" lon="0.86068">
        <ele>158.75</ele>
        <time>2021-08-18T16:05:58Z</time>
      </trkpt>
      <trkpt lat="43.62976" lon="0.86052">
        <ele>158.75</ele>
        <time>2021-08-18T16:06:00Z</time>
      </trkpt>
      <trkpt lat="43.62985" lon="0.85989">
        <ele>159.72</ele>
        <time>2021-08-18T16:06:09Z</time>
      </trkpt>
      <trkpt lat="43.63002" lon="0.85917">
        <ele>160.2</ele>
        <time>2021-08-18T16:06:20Z</time>
      </trkpt>
      <trkpt lat="43.63015" lon="0.85862">
        <ele>160.68</ele>
        <time>2021-08-18T16:06:29Z</time>
      </trkpt>
      <trkpt lat="43.63026" lon="0.85813">
        <ele>161.16</ele>
        <time>2021-08-18T16:06:37Z</time>
      </trkpt>
      <trkpt lat="43.63038" lon="0.85756">
        <ele>162.6</ele>
        <time>2021-08-18T16:06:46Z</time>
      </trkpt>
      <trkpt lat="43.63039" lon="0.8575">
        <ele>162.6</ele>
        <time>2021-08-18T16:06:47Z</time>
      </trkpt>
      <trkpt lat="43.63039" lon="0.85743">
        <ele>162.6</ele>
        <time>2021-08-18T16:06:48Z</time>
      </trkpt>
      <trkpt lat="43.63039" lon="0.85737">
        <ele>162.6</ele>
        <time>2021-08-18T16:06:49Z</time>
      </trkpt>
      <trkpt lat="43.63038" lon="0.8573">
        <ele>162.6</ele>
        <time>2021-08-18T16:06:50Z</time>
      </trkpt>
      <trkpt lat="43.63028" lon="0.85681">
        <ele>163.08</ele>
        <time>2021-08-18T16:06:58Z</time>
      </trkpt>
      <trkpt lat="43.63018" lon="0.8563">
        <ele>164.04</ele>
        <time>2021-08-18T16:07:07Z</time>
      </trkpt>
      <trkpt lat="43.6301" lon="0.85576">
        <ele>164.52</ele>
        <time>2021-08-18T16:07:16Z</time>
      </trkpt>
      <trkpt lat="43.63007" lon="0.85533">
        <ele>165</ele>
        <time>2021-08-18T16:07:23Z</time>
      </trkpt>
      <trkpt lat="43.63007" lon="0.85501">
        <ele>165.48</ele>
        <time>2021-08-18T16:07:28Z</time>
      </trkpt>
      <trkpt lat="43.63009" lon="0.85443">
        <ele>165.48</ele>
        <time>2021-08-18T16:07:37Z</time>
      </trkpt>
      <trkpt lat="43.63013" lon="0.85389">
        <ele>166.45</ele>
        <time>2021-08-18T16:07:46Z</time>
      </trkpt>
      <trkpt lat="43.63012" lon="0.85388">
        <ele>166.45</ele>
        <time>2021-08-18T16:07:47Z</time>
      </trkpt>
      <trkpt lat="43.63011" lon="0.85395">
        <ele>166.93</ele>
        <time>2021-08-18T16:07:51Z</time>
      </trkpt>
      <trkpt lat="43.63011" lon="0.854">
        <ele>166.93</ele>
        <time>2021-08-18T16:07:52Z</time>
      </trkpt>
      <trkpt lat="43.6301" lon="0.85405">
        <ele>166.93</ele>
        <time>2021-08-18T16:07:53Z</time>
      </trkpt>
      <trkpt lat="43.6301" lon="0.85411">
        <ele>166.93</ele>
        <time>2021-08-18T16:07:54Z</time>
      </trkpt>
      <trkpt lat="43.63009" lon="0.85417">
        <ele>166.93</ele>
        <time>2021-08-18T16:07:55Z</time>
      </trkpt>
      <trkpt lat="43.63008" lon="0.85445">
        <ele>165.48</ele>
        <time>2021-08-18T16:07:59Z</time>
      </trkpt>
      <trkpt lat="43.63008" lon="0.85452">
        <ele>165.48</ele>
        <time>2021-08-18T16:08:00Z</time>
      </trkpt>
      <trkpt lat="43.63008" lon="0.85459">
        <ele>165.48</ele>
        <time>2021-08-18T16:08:01Z</time>
      </trkpt>
      <trkpt lat="43.63007" lon="0.8548">
        <ele>165</ele>
        <time>2021-08-18T16:08:04Z</time>
      </trkpt>
      <trkpt lat="43.63005" lon="0.85484">
        <ele>165</ele>
        <time>2021-08-18T16:08:05Z</time>
      </trkpt>
      <trkpt lat="43.63" lon="0.85487">
        <ele>165</ele>
        <time>2021-08-18T16:08:07Z</time>
      </trkpt>
      <trkpt lat="43.62997" lon="0.85485">
        <ele>164.52</ele>
        <time>2021-08-18T16:08:08Z</time>
      </trkpt>
      <trkpt lat="43.62976" lon="0.85467">
        <ele>164.04</ele>
        <time>2021-08-18T16:08:15Z</time>
      </trkpt>
      <trkpt lat="43.62964" lon="0.85454">
        <ele>164.04</ele>
        <time>2021-08-18T16:08:21Z</time>
      </trkpt>
      <trkpt lat="43.6295" lon="0.85437">
        <ele>165.48</ele>
        <time>2021-08-18T16:08:28Z</time>
      </trkpt>
      <trkpt lat="43.62935" lon="0.8542">
        <ele>166.93</ele>
        <time>2021-08-18T16:08:36Z</time>
      </trkpt>
      <trkpt lat="43.62923" lon="0.8541">
        <ele>169.33</ele>
        <time>2021-08-18T16:08:45Z</time>
      </trkpt>
      <trkpt lat="43.62921" lon="0.85409">
        <ele>169.33</ele>
        <time>2021-08-18T16:08:46Z</time>
      </trkpt>
      <trkpt lat="43.62911" lon="0.85404">
        <ele>170.77</ele>
        <time>2021-08-18T16:08:53Z</time>
      </trkpt>
      <trkpt lat="43.62899" lon="0.85399">
        <ele>172.21</ele>
        <time>2021-08-18T16:09:01Z</time>
      </trkpt>
      <trkpt lat="43.62889" lon="0.85397">
        <ele>173.66</ele>
        <time>2021-08-18T16:09:09Z</time>
      </trkpt>
      <trkpt lat="43.62887" lon="0.85397">
        <ele>173.66</ele>
        <time>2021-08-18T16:09:10Z</time>
      </trkpt>
      <trkpt lat="43.62885" lon="0.85396">
        <ele>173.66</ele>
        <time>2021-08-18T16:09:11Z</time>
      </trkpt>
      <trkpt lat="43.62884" lon="0.85396">
        <ele>174.14</ele>
        <time>2021-08-18T16:09:12Z</time>
      </trkpt>
      <trkpt lat="43.62883" lon="0.85395">
        <ele>174.14</ele>
        <time>2021-08-18T16:09:13Z</time>
      </trkpt>
      <trkpt lat="43.62882" lon="0.85394">
        <ele>174.14</ele>
        <time>2021-08-18T16:09:14Z</time>
      </trkpt>
      <trkpt lat="43.62872" lon="0.85392">
        <ele>175.58</ele>
        <time>2021-08-18T16:09:23Z</time>
      </trkpt>
      <trkpt lat="43.62866" lon="0.85389">
        <ele>177.5</ele>
        <time>2021-08-18T16:09:32Z</time>
      </trkpt>
      <trkpt lat="43.62858" lon="0.85387">
        <ele>178.46</ele>
        <time>2021-08-18T16:09:41Z</time>
      </trkpt>
      <trkpt lat="43.62851" lon="0.85385">
        <ele>180.38</ele>
        <time>2021-08-18T16:09:49Z</time>
      </trkpt>
      <trkpt lat="43.62844" lon="0.8538">
        <ele>181.83</ele>
        <time>2021-08-18T16:09:59Z</time>
      </trkpt>
      <trkpt lat="43.6284" lon="0.85377">
        <ele>181.83</ele>
        <time>2021-08-18T16:10:04Z</time>
      </trkpt>
      <trkpt lat="43.62839" lon="0.85375">
        <ele>181.83</ele>
        <time>2021-08-18T16:10:05Z</time>
      </trkpt>
      <trkpt lat="43.62838" lon="0.85374">
        <ele>181.83</ele>
        <time>2021-08-18T16:10:06Z</time>
      </trkpt>
      <trkpt lat="43.62837" lon="0.85371">
        <ele>181.83</ele>
        <time>2021-08-18T16:10:07Z</time>
      </trkpt>
      <trkpt lat="43.62836" lon="0.85369">
        <ele>182.31</ele>
        <time>2021-08-18T16:10:08Z</time>
      </trkpt>
      <trkpt lat="43.62829" lon="0.85347">
        <ele>182.79</ele>
        <time>2021-08-18T16:10:15Z</time>
      </trkpt>
      <trkpt lat="43.6282" lon="0.85322">
        <ele>183.75</ele>
        <time>2021-08-18T16:10:22Z</time>
      </trkpt>
      <trkpt lat="43.62807" lon="0.85301">
        <ele>184.71</ele>
        <time>2021-08-18T16:10:29Z</time>
      </trkpt>
      <trkpt lat="43.62788" lon="0.85293">
        <ele>186.15</ele>
        <time>2021-08-18T16:10:37Z</time>
      </trkpt>
      <trkpt lat="43.62774" lon="0.85288">
        <ele>187.59</ele>
        <time>2021-08-18T16:10:46Z</time>
      </trkpt>
      <trkpt lat="43.62768" lon="0.85286">
        <ele>188.56</ele>
        <time>2021-08-18T16:10:52Z</time>
      </trkpt>
      <trkpt lat="43.62761" lon="0.85284">
        <ele>190.48</ele>
        <time>2021-08-18T16:11:00Z</time>
      </trkpt>
      <trkpt lat="43.62751" lon="0.85282">
        <ele>191.92</ele>
        <time>2021-08-18T16:11:09Z</time>
      </trkpt>
      <trkpt lat="43.62742" lon="0.85281">
        <ele>193.84</ele>
        <time>2021-08-18T16:11:19Z</time>
      </trkpt>
      <trkpt lat="43.6273" lon="0.85279">
        <ele>195.28</ele>
        <time>2021-08-18T16:11:29Z</time>
      </trkpt>
      <trkpt lat="43.62718" lon="0.85274">
        <ele>197.21</ele>
        <time>2021-08-18T16:11:39Z</time>
      </trkpt>
      <trkpt lat="43.62717" lon="0.85272">
        <ele>197.21</ele>
        <time>2021-08-18T16:11:40Z</time>
      </trkpt>
      <trkpt lat="43.62712" lon="0.8526">
        <ele>198.65</ele>
        <time>2021-08-18T16:11:49Z</time>
      </trkpt>
      <trkpt lat="43.62711" lon="0.85256">
        <ele>198.65</ele>
        <time>2021-08-18T16:11:54Z</time>
      </trkpt>
      <trkpt lat="43.6271" lon="0.85239">
        <ele>199.13</ele>
        <time>2021-08-18T16:12:00Z</time>
      </trkpt>
      <trkpt lat="43.62709" lon="0.85214">
        <ele>200.09</ele>
        <time>2021-08-18T16:12:07Z</time>
      </trkpt>
      <trkpt lat="43.62707" lon="0.85185">
        <ele>201.53</ele>
        <time>2021-08-18T16:12:15Z</time>
      </trkpt>
      <trkpt lat="43.62705" lon="0.85153">
        <ele>202.49</ele>
        <time>2021-08-18T16:12:23Z</time>
      </trkpt>
      <trkpt lat="43.62692" lon="0.85128">
        <ele>203.46</ele>
        <time>2021-08-18T16:12:31Z</time>
      </trkpt>
      <trkpt lat="43.62672" lon="0.8509">
        <ele>203.46</ele>
        <time>2021-08-18T16:12:40Z</time>
      </trkpt>
      <trkpt lat="43.62662" lon="0.85069">
        <ele>203.46</ele>
        <time>2021-08-18T16:12:44Z</time>
      </trkpt>
      <trkpt lat="43.62659" lon="0.85063">
        <ele>203.46</ele>
        <time>2021-08-18T16:12:45Z</time>
      </trkpt>
      <trkpt lat="43.62657" lon="0.85058">
        <ele>203.46</ele>
        <time>2021-08-18T16:12:46Z</time>
      </trkpt>
      <trkpt lat="43.62641" lon="0.85012">
        <ele>203.46</ele>
        <time>2021-08-18T16:12:54Z</time>
      </trkpt>
      <trkpt lat="43.6263" lon="0.84973">
        <ele>204.42</ele>
        <time>2021-08-18T16:13:01Z</time>
      </trkpt>
      <trkpt lat="43.62625" lon="0.84946">
        <ele>204.42</ele>
        <time>2021-08-18T16:13:06Z</time>
      </trkpt>
      <trkpt lat="43.62614" lon="0.84892">
        <ele>205.86</ele>
        <time>2021-08-18T16:13:14Z</time>
      </trkpt>
      <trkpt lat="43.62607" lon="0.84855">
        <ele>206.82</ele>
        <time>2021-08-18T16:13:21Z</time>
      </trkpt>
      <trkpt lat="43.62598" lon="0.84812">
        <ele>208.74</ele>
        <time>2021-08-18T16:13:31Z</time>
      </trkpt>
      <trkpt lat="43.62591" lon="0.8477">
        <ele>210.19</ele>
        <time>2021-08-18T16:13:41Z</time>
      </trkpt>
      <trkpt lat="43.62593" lon="0.84728">
        <ele>211.63</ele>
        <time>2021-08-18T16:13:50Z</time>
      </trkpt>
      <trkpt lat="43.62607" lon="0.84676">
        <ele>212.11</ele>
        <time>2021-08-18T16:14:01Z</time>
      </trkpt>
      <trkpt lat="43.6262" lon="0.84626">
        <ele>212.59</ele>
        <time>2021-08-18T16:14:11Z</time>
      </trkpt>
      <trkpt lat="43.62636" lon="0.84575">
        <ele>213.07</ele>
        <time>2021-08-18T16:14:21Z</time>
      </trkpt>
      <trkpt lat="43.6265" lon="0.84516">
        <ele>214.51</ele>
        <time>2021-08-18T16:14:32Z</time>
      </trkpt>
      <trkpt lat="43.6265" lon="0.84508">
        <ele>214.51</ele>
        <time>2021-08-18T16:14:34Z</time>
      </trkpt>
      <trkpt lat="43.62649" lon="0.84504">
        <ele>214.51</ele>
        <time>2021-08-18T16:14:35Z</time>
      </trkpt>
      <trkpt lat="43.62647" lon="0.845">
        <ele>214.51</ele>
        <time>2021-08-18T16:14:36Z</time>
      </trkpt>
      <trkpt lat="43.62644" lon="0.84496">
        <ele>214.51</ele>
        <time>2021-08-18T16:14:37Z</time>
      </trkpt>
      <trkpt lat="43.62642" lon="0.84493">
        <ele>214.51</ele>
        <time>2021-08-18T16:14:38Z</time>
      </trkpt>
      <trkpt lat="43.62639" lon="0.84489">
        <ele>214.51</ele>
        <time>2021-08-18T16:14:39Z</time>
      </trkpt>
      <trkpt lat="43.62636" lon="0.84487">
        <ele>214.51</ele>
        <time>2021-08-18T16:14:40Z</time>
      </trkpt>
      <trkpt lat="43.62633" lon="0.84486">
        <ele>214.51</ele>
        <time>2021-08-18T16:14:41Z</time>
      </trkpt>
      <trkpt lat="43.62631" lon="0.84485">
        <ele>214.51</ele>
        <time>2021-08-18T16:14:42Z</time>
      </trkpt>
      <trkpt lat="43.6263" lon="0.84485">
        <ele>214.51</ele>
        <time>2021-08-18T16:14:47Z</time>
      </trkpt>
      <trkpt lat="43.62627" lon="0.84486">
        <ele>213.07</ele>
        <time>2021-08-18T16:14:53Z</time>
      </trkpt>
      <trkpt lat="43.62623" lon="0.84488">
        <ele>212.59</ele>
        <time>2021-08-18T16:15:07Z</time>
      </trkpt>
      <trkpt lat="43.62603" lon="0.84496">
        <ele>212.11</ele>
        <time>2021-08-18T16:15:13Z</time>
      </trkpt>
      <trkpt lat="43.62573" lon="0.8451">
        <ele>209.22</ele>
        <time>2021-08-18T16:15:19Z</time>
      </trkpt>
      <trkpt lat="43.62559" lon="0.84516">
        <ele>208.74</ele>
        <time>2021-08-18T16:15:21Z</time>
      </trkpt>
      <trkpt lat="43.62519" lon="0.84534">
        <ele>204.9</ele>
        <time>2021-08-18T16:15:28Z</time>
      </trkpt>
      <trkpt lat="43.62506" lon="0.84539">
        <ele>203.94</ele>
        <time>2021-08-18T16:15:30Z</time>
      </trkpt>
      <trkpt lat="43.62479" lon="0.84551">
        <ele>202.01</ele>
        <time>2021-08-18T16:15:34Z</time>
      </trkpt>
      <trkpt lat="43.62453" lon="0.84563">
        <ele>201.05</ele>
        <time>2021-08-18T16:15:38Z</time>
      </trkpt>
      <trkpt lat="43.62434" lon="0.84564">
        <ele>200.09</ele>
        <time>2021-08-18T16:15:42Z</time>
      </trkpt>
      <trkpt lat="43.62414" lon="0.84552">
        <ele>199.61</ele>
        <time>2021-08-18T16:15:49Z</time>
      </trkpt>
      <trkpt lat="43.62415" lon="0.84557">
        <ele>199.13</ele>
        <time>2021-08-18T16:15:53Z</time>
      </trkpt>
      <trkpt lat="43.62433" lon="0.84564">
        <ele>198.65</ele>
        <time>2021-08-18T16:15:58Z</time>
      </trkpt>
      <trkpt lat="43.62449" lon="0.84564">
        <ele>198.65</ele>
        <time>2021-08-18T16:16:02Z</time>
      </trkpt>
      <trkpt lat="43.6246" lon="0.84559">
        <ele>200.09</ele>
        <time>2021-08-18T16:16:05Z</time>
      </trkpt>
      <trkpt lat="43.62484" lon="0.84549">
        <ele>202.01</ele>
        <time>2021-08-18T16:16:13Z</time>
      </trkpt>
      <trkpt lat="43.62511" lon="0.84535">
        <ele>203.94</ele>
        <time>2021-08-18T16:16:24Z</time>
      </trkpt>
      <trkpt lat="43.62529" lon="0.84528">
        <ele>205.38</ele>
        <time>2021-08-18T16:16:32Z</time>
      </trkpt>
      <trkpt lat="43.62549" lon="0.84518">
        <ele>207.3</ele>
        <time>2021-08-18T16:16:41Z</time>
      </trkpt>
      <trkpt lat="43.62569" lon="0.84509">
        <ele>208.26</ele>
        <time>2021-08-18T16:16:50Z</time>
      </trkpt>
      <trkpt lat="43.6259" lon="0.84501">
        <ele>210.19</ele>
        <time>2021-08-18T16:16:59Z</time>
      </trkpt>
      <trkpt lat="43.62614" lon="0.8449">
        <ele>211.63</ele>
        <time>2021-08-18T16:17:10Z</time>
      </trkpt>
      <trkpt lat="43.62619" lon="0.84488">
        <ele>212.11</ele>
        <time>2021-08-18T16:17:12Z</time>
      </trkpt>
      <trkpt lat="43.62623" lon="0.84479">
        <ele>213.55</ele>
        <time>2021-08-18T16:17:17Z</time>
      </trkpt>
      <trkpt lat="43.62622" lon="0.84474">
        <ele>214.99</ele>
        <time>2021-08-18T16:17:21Z</time>
      </trkpt>
      <trkpt lat="43.62623" lon="0.84471">
        <ele>215.47</ele>
        <time>2021-08-18T16:17:30Z</time>
      </trkpt>
      <trkpt lat="43.62622" lon="0.84462">
        <ele>212.11</ele>
        <time>2021-08-18T16:17:37Z</time>
      </trkpt>
      <trkpt lat="43.62621" lon="0.84459">
        <ele>211.15</ele>
        <time>2021-08-18T16:17:39Z</time>
      </trkpt>
      <trkpt lat="43.62621" lon="0.84453">
        <ele>210.67</ele>
        <time>2021-08-18T16:17:43Z</time>
      </trkpt>
      <trkpt lat="43.62618" lon="0.84448">
        <ele>210.67</ele>
        <time>2021-08-18T16:17:46Z</time>
      </trkpt>
      <trkpt lat="43.62608" lon="0.84448">
        <ele>210.67</ele>
        <time>2021-08-18T16:17:52Z</time>
      </trkpt>
      <trkpt lat="43.62606" lon="0.84449">
        <ele>210.67</ele>
        <time>2021-08-18T16:17:53Z</time>
      </trkpt>
      <trkpt lat="43.62588" lon="0.84447">
        <ele>210.67</ele>
        <time>2021-08-18T16:17:59Z</time>
      </trkpt>
      <trkpt lat="43.6258" lon="0.84442">
        <ele>210.67</ele>
        <time>2021-08-18T16:18:02Z</time>
      </trkpt>
      <trkpt lat="43.62581" lon="0.84433">
        <ele>210.19</ele>
        <time>2021-08-18T16:18:09Z</time>
      </trkpt>
      <trkpt lat="43.62569" lon="0.84419">
        <ele>208.74</ele>
        <time>2021-08-18T16:18:16Z</time>
      </trkpt>
      <trkpt lat="43.62565" lon="0.8441">
        <ele>208.74</ele>
        <time>2021-08-18T16:18:18Z</time>
      </trkpt>
      <trkpt lat="43.62554" lon="0.84371">
        <ele>207.78</ele>
        <time>2021-08-18T16:18:25Z</time>
      </trkpt>
      <trkpt lat="43.62554" lon="0.84366">
        <ele>207.78</ele>
        <time>2021-08-18T16:18:26Z</time>
      </trkpt>
      <trkpt lat="43.62555" lon="0.84362">
        <ele>207.3</ele>
        <time>2021-08-18T16:18:27Z</time>
      </trkpt>
      <trkpt lat="43.62556" lon="0.84356">
        <ele>207.3</ele>
        <time>2021-08-18T16:18:29Z</time>
      </trkpt>
      <trkpt lat="43.62556" lon="0.84353">
        <ele>207.3</ele>
        <time>2021-08-18T16:18:30Z</time>
      </trkpt>
      <trkpt lat="43.62554" lon="0.84349">
        <ele>206.82</ele>
        <time>2021-08-18T16:18:31Z</time>
      </trkpt>
      <trkpt lat="43.62551" lon="0.84344">
        <ele>206.82</ele>
        <time>2021-08-18T16:18:32Z</time>
      </trkpt>
      <trkpt lat="43.62548" lon="0.84339">
        <ele>206.34</ele>
        <time>2021-08-18T16:18:33Z</time>
      </trkpt>
      <trkpt lat="43.62518" lon="0.84289">
        <ele>205.86</ele>
        <time>2021-08-18T16:18:41Z</time>
      </trkpt>
      <trkpt lat="43.62485" lon="0.84236">
        <ele>207.3</ele>
        <time>2021-08-18T16:18:50Z</time>
      </trkpt>
      <trkpt lat="43.62462" lon="0.84197">
        <ele>209.7</ele>
        <time>2021-08-18T16:18:59Z</time>
      </trkpt>
      <trkpt lat="43.62445" lon="0.84169">
        <ele>211.63</ele>
        <time>2021-08-18T16:19:06Z</time>
      </trkpt>
      <trkpt lat="43.62425" lon="0.84138">
        <ele>211.63</ele>
        <time>2021-08-18T16:19:15Z</time>
      </trkpt>
      <trkpt lat="43.62415" lon="0.84125">
        <ele>210.67</ele>
        <time>2021-08-18T16:19:19Z</time>
      </trkpt>
      <trkpt lat="43.62412" lon="0.84119">
        <ele>209.7</ele>
        <time>2021-08-18T16:19:20Z</time>
      </trkpt>
      <trkpt lat="43.62403" lon="0.84094">
        <ele>204.9</ele>
        <time>2021-08-18T16:19:23Z</time>
      </trkpt>
      <trkpt lat="43.624" lon="0.84084">
        <ele>204.9</ele>
        <time>2021-08-18T16:19:24Z</time>
      </trkpt>
      <trkpt lat="43.62396" lon="0.84072">
        <ele>201.53</ele>
        <time>2021-08-18T16:19:25Z</time>
      </trkpt>
      <trkpt lat="43.62386" lon="0.84048">
        <ele>198.17</ele>
        <time>2021-08-18T16:19:27Z</time>
      </trkpt>
      <trkpt lat="43.62372" lon="0.8401">
        <ele>194.8</ele>
        <time>2021-08-18T16:19:30Z</time>
      </trkpt>
      <trkpt lat="43.62362" lon="0.83986">
        <ele>191.44</ele>
        <time>2021-08-18T16:19:32Z</time>
      </trkpt>
      <trkpt lat="43.62357" lon="0.83974">
        <ele>191.44</ele>
        <time>2021-08-18T16:19:33Z</time>
      </trkpt>
      <trkpt lat="43.62347" lon="0.83951">
        <ele>190</ele>
        <time>2021-08-18T16:19:35Z</time>
      </trkpt>
      <trkpt lat="43.62342" lon="0.8394">
        <ele>188.56</ele>
        <time>2021-08-18T16:19:36Z</time>
      </trkpt>
      <trkpt lat="43.62336" lon="0.8393">
        <ele>188.08</ele>
        <time>2021-08-18T16:19:37Z</time>
      </trkpt>
      <trkpt lat="43.62318" lon="0.83901">
        <ele>183.75</ele>
        <time>2021-08-18T16:19:40Z</time>
      </trkpt>
      <trkpt lat="43.62311" lon="0.83888">
        <ele>182.79</ele>
        <time>2021-08-18T16:19:41Z</time>
      </trkpt>
      <trkpt lat="43.62306" lon="0.83877">
        <ele>181.83</ele>
        <time>2021-08-18T16:19:42Z</time>
      </trkpt>
      <trkpt lat="43.6228" lon="0.83819">
        <ele>180.38</ele>
        <time>2021-08-18T16:19:47Z</time>
      </trkpt>
      <trkpt lat="43.62257" lon="0.83778">
        <ele>177.5</ele>
        <time>2021-08-18T16:19:51Z</time>
      </trkpt>
      <trkpt lat="43.62252" lon="0.83766">
        <ele>176.54</ele>
        <time>2021-08-18T16:19:52Z</time>
      </trkpt>
      <trkpt lat="43.62237" lon="0.83724">
        <ele>176.06</ele>
        <time>2021-08-18T16:19:56Z</time>
      </trkpt>
      <trkpt lat="43.62235" lon="0.83719">
        <ele>176.06</ele>
        <time>2021-08-18T16:19:57Z</time>
      </trkpt>
      <trkpt lat="43.62232" lon="0.83697">
        <ele>176.54</ele>
        <time>2021-08-18T16:20:03Z</time>
      </trkpt>
      <trkpt lat="43.62231" lon="0.8369">
        <ele>177.5</ele>
        <time>2021-08-18T16:20:05Z</time>
      </trkpt>
      <trkpt lat="43.62229" lon="0.8367">
        <ele>178.94</ele>
        <time>2021-08-18T16:20:11Z</time>
      </trkpt>
      <trkpt lat="43.62229" lon="0.83665">
        <ele>178.94</ele>
        <time>2021-08-18T16:20:16Z</time>
      </trkpt>
      <trkpt lat="43.62233" lon="0.83666">
        <ele>178.94</ele>
        <time>2021-08-18T16:20:38Z</time>
      </trkpt>
      <trkpt lat="43.62231" lon="0.83659">
        <ele>178.94</ele>
        <time>2021-08-18T16:20:55Z</time>
      </trkpt>
      <trkpt lat="43.6223" lon="0.83643">
        <ele>179.42</ele>
        <time>2021-08-18T16:21:01Z</time>
      </trkpt>
      <trkpt lat="43.62227" lon="0.83617">
        <ele>179.9</ele>
        <time>2021-08-18T16:21:07Z</time>
      </trkpt>
      <trkpt lat="43.62223" lon="0.83593">
        <ele>181.83</ele>
        <time>2021-08-18T16:21:14Z</time>
      </trkpt>
      <trkpt lat="43.6222" lon="0.83576">
        <ele>182.79</ele>
        <time>2021-08-18T16:21:21Z</time>
      </trkpt>
      <trkpt lat="43.62213" lon="0.83547">
        <ele>184.71</ele>
        <time>2021-08-18T16:21:31Z</time>
      </trkpt>
      <trkpt lat="43.62208" lon="0.83528">
        <ele>185.67</ele>
        <time>2021-08-18T16:21:38Z</time>
      </trkpt>
      <trkpt lat="43.62199" lon="0.83498">
        <ele>187.11</ele>
        <time>2021-08-18T16:21:48Z</time>
      </trkpt>
      <trkpt lat="43.62189" lon="0.83466">
        <ele>188.08</ele>
        <time>2021-08-18T16:21:58Z</time>
      </trkpt>
      <trkpt lat="43.62183" lon="0.8345">
        <ele>189.04</ele>
        <time>2021-08-18T16:22:04Z</time>
      </trkpt>
      <trkpt lat="43.62177" lon="0.83434">
        <ele>190</ele>
        <time>2021-08-18T16:22:11Z</time>
      </trkpt>
      <trkpt lat="43.62172" lon="0.83416">
        <ele>191.92</ele>
        <time>2021-08-18T16:22:20Z</time>
      </trkpt>
      <trkpt lat="43.62166" lon="0.83403">
        <ele>193.36</ele>
        <time>2021-08-18T16:22:30Z</time>
      </trkpt>
      <trkpt lat="43.62164" lon="0.83399">
        <ele>193.84</ele>
        <time>2021-08-18T16:22:33Z</time>
      </trkpt>
      <trkpt lat="43.62163" lon="0.83398">
        <ele>193.84</ele>
        <time>2021-08-18T16:22:34Z</time>
      </trkpt>
      <trkpt lat="43.62159" lon="0.83391">
        <ele>194.8</ele>
        <time>2021-08-18T16:22:42Z</time>
      </trkpt>
      <trkpt lat="43.62153" lon="0.83381">
        <ele>194.8</ele>
        <time>2021-08-18T16:22:48Z</time>
      </trkpt>
      <trkpt lat="43.62139" lon="0.83358">
        <ele>195.77</ele>
        <time>2021-08-18T16:22:56Z</time>
      </trkpt>
      <trkpt lat="43.62127" lon="0.83328">
        <ele>196.25</ele>
        <time>2021-08-18T16:23:04Z</time>
      </trkpt>
      <trkpt lat="43.62118" lon="0.83301">
        <ele>197.21</ele>
        <time>2021-08-18T16:23:11Z</time>
      </trkpt>
      <trkpt lat="43.62112" lon="0.8328">
        <ele>198.17</ele>
        <time>2021-08-18T16:23:17Z</time>
      </trkpt>
      <trkpt lat="43.62106" lon="0.83256">
        <ele>199.13</ele>
        <time>2021-08-18T16:23:24Z</time>
      </trkpt>
      <trkpt lat="43.62101" lon="0.83236">
        <ele>200.09</ele>
        <time>2021-08-18T16:23:31Z</time>
      </trkpt>
      <trkpt lat="43.62097" lon="0.83218">
        <ele>202.01</ele>
        <time>2021-08-18T16:23:39Z</time>
      </trkpt>
      <trkpt lat="43.62092" lon="0.83202">
        <ele>202.49</ele>
        <time>2021-08-18T16:23:47Z</time>
      </trkpt>
      <trkpt lat="43.62086" lon="0.83181">
        <ele>203.46</ele>
        <time>2021-08-18T16:23:56Z</time>
      </trkpt>
      <trkpt lat="43.6208" lon="0.83162">
        <ele>205.38</ele>
        <time>2021-08-18T16:24:05Z</time>
      </trkpt>
      <trkpt lat="43.62077" lon="0.83154">
        <ele>205.38</ele>
        <time>2021-08-18T16:24:11Z</time>
      </trkpt>
      <trkpt lat="43.62074" lon="0.83143">
        <ele>206.34</ele>
        <time>2021-08-18T16:24:16Z</time>
      </trkpt>
      <trkpt lat="43.62069" lon="0.83122">
        <ele>207.78</ele>
        <time>2021-08-18T16:24:23Z</time>
      </trkpt>
      <trkpt lat="43.62064" lon="0.831">
        <ele>209.22</ele>
        <time>2021-08-18T16:24:31Z</time>
      </trkpt>
      <trkpt lat="43.62062" lon="0.83087">
        <ele>209.7</ele>
        <time>2021-08-18T16:24:36Z</time>
      </trkpt>
      <trkpt lat="43.62062" lon="0.83085">
        <ele>209.7</ele>
        <time>2021-08-18T16:24:37Z</time>
      </trkpt>
      <trkpt lat="43.62062" lon="0.83082">
        <ele>209.7</ele>
        <time>2021-08-18T16:24:38Z</time>
      </trkpt>
      <trkpt lat="43.62062" lon="0.8308">
        <ele>210.67</ele>
        <time>2021-08-18T16:24:39Z</time>
      </trkpt>
      <trkpt lat="43.62061" lon="0.83077">
        <ele>210.67</ele>
        <time>2021-08-18T16:24:40Z</time>
      </trkpt>
      <trkpt lat="43.6206" lon="0.83075">
        <ele>210.67</ele>
        <time>2021-08-18T16:24:41Z</time>
      </trkpt>
      <trkpt lat="43.6206" lon="0.83072">
        <ele>211.15</ele>
        <time>2021-08-18T16:24:42Z</time>
      </trkpt>
      <trkpt lat="43.62059" lon="0.8307">
        <ele>211.15</ele>
        <time>2021-08-18T16:24:43Z</time>
      </trkpt>
      <trkpt lat="43.62059" lon="0.83067">
        <ele>211.63</ele>
        <time>2021-08-18T16:24:44Z</time>
      </trkpt>
      <trkpt lat="43.62056" lon="0.83052">
        <ele>212.11</ele>
        <time>2021-08-18T16:24:51Z</time>
      </trkpt>
      <trkpt lat="43.62052" lon="0.83037">
        <ele>213.07</ele>
        <time>2021-08-18T16:24:57Z</time>
      </trkpt>
      <trkpt lat="43.62047" lon="0.8302">
        <ele>214.51</ele>
        <time>2021-08-18T16:25:05Z</time>
      </trkpt>
      <trkpt lat="43.62044" lon="0.83003">
        <ele>215.95</ele>
        <time>2021-08-18T16:25:12Z</time>
      </trkpt>
      <trkpt lat="43.6204" lon="0.82986">
        <ele>216.91</ele>
        <time>2021-08-18T16:25:19Z</time>
      </trkpt>
      <trkpt lat="43.62036" lon="0.82966">
        <ele>217.88</ele>
        <time>2021-08-18T16:25:27Z</time>
      </trkpt>
      <trkpt lat="43.62036" lon="0.82942">
        <ele>219.8</ele>
        <time>2021-08-18T16:25:37Z</time>
      </trkpt>
      <trkpt lat="43.62037" lon="0.8292">
        <ele>222.2</ele>
        <time>2021-08-18T16:25:46Z</time>
      </trkpt>
      <trkpt lat="43.62038" lon="0.82897">
        <ele>223.64</ele>
        <time>2021-08-18T16:25:53Z</time>
      </trkpt>
      <trkpt lat="43.62038" lon="0.82872">
        <ele>224.61</ele>
        <time>2021-08-18T16:26:01Z</time>
      </trkpt>
      <trkpt lat="43.62039" lon="0.82862">
        <ele>224.61</ele>
        <time>2021-08-18T16:26:05Z</time>
      </trkpt>
      <trkpt lat="43.62039" lon="0.82859">
        <ele>224.61</ele>
        <time>2021-08-18T16:26:06Z</time>
      </trkpt>
      <trkpt lat="43.62038" lon="0.82856">
        <ele>224.61</ele>
        <time>2021-08-18T16:26:07Z</time>
      </trkpt>
      <trkpt lat="43.62037" lon="0.82854">
        <ele>225.09</ele>
        <time>2021-08-18T16:26:08Z</time>
      </trkpt>
      <trkpt lat="43.62036" lon="0.82852">
        <ele>225.57</ele>
        <time>2021-08-18T16:26:09Z</time>
      </trkpt>
      <trkpt lat="43.62035" lon="0.82849">
        <ele>225.57</ele>
        <time>2021-08-18T16:26:10Z</time>
      </trkpt>
      <trkpt lat="43.62033" lon="0.8284">
        <ele>225.57</ele>
        <time>2021-08-18T16:26:13Z</time>
      </trkpt>
      <trkpt lat="43.62034" lon="0.82836">
        <ele>225.57</ele>
        <time>2021-08-18T16:26:14Z</time>
      </trkpt>
      <trkpt lat="43.62034" lon="0.82833">
        <ele>225.57</ele>
        <time>2021-08-18T16:26:15Z</time>
      </trkpt>
      <trkpt lat="43.62035" lon="0.82829">
        <ele>225.57</ele>
        <time>2021-08-18T16:26:16Z</time>
      </trkpt>
      <trkpt lat="43.62037" lon="0.82824">
        <ele>225.57</ele>
        <time>2021-08-18T16:26:17Z</time>
      </trkpt>
      <trkpt lat="43.62048" lon="0.82795">
        <ele>226.05</ele>
        <time>2021-08-18T16:26:24Z</time>
      </trkpt>
      <trkpt lat="43.62052" lon="0.82769">
        <ele>226.05</ele>
        <time>2021-08-18T16:26:30Z</time>
      </trkpt>
      <trkpt lat="43.62049" lon="0.82739">
        <ele>224.61</ele>
        <time>2021-08-18T16:26:35Z</time>
      </trkpt>
      <trkpt lat="43.62045" lon="0.82694">
        <ele>221.24</ele>
        <time>2021-08-18T16:26:40Z</time>
      </trkpt>
      <trkpt lat="43.62043" lon="0.82639">
        <ele>218.36</ele>
        <time>2021-08-18T16:26:45Z</time>
      </trkpt>
      <trkpt lat="43.62043" lon="0.82586">
        <ele>214.99</ele>
        <time>2021-08-18T16:26:49Z</time>
      </trkpt>
      <trkpt lat="43.62041" lon="0.82528">
        <ele>211.63</ele>
        <time>2021-08-18T16:26:53Z</time>
      </trkpt>
      <trkpt lat="43.6204" lon="0.82497">
        <ele>208.26</ele>
        <time>2021-08-18T16:26:55Z</time>
      </trkpt>
      <trkpt lat="43.62039" lon="0.82469">
        <ele>207.3</ele>
        <time>2021-08-18T16:26:57Z</time>
      </trkpt>
      <trkpt lat="43.62038" lon="0.82417">
        <ele>209.22</ele>
        <time>2021-08-18T16:27:01Z</time>
      </trkpt>
      <trkpt lat="43.62035" lon="0.8236">
        <ele>210.67</ele>
        <time>2021-08-18T16:27:07Z</time>
      </trkpt>
      <trkpt lat="43.62033" lon="0.82319">
        <ele>207.3</ele>
        <time>2021-08-18T16:27:11Z</time>
      </trkpt>
      <trkpt lat="43.62032" lon="0.82306">
        <ele>207.3</ele>
        <time>2021-08-18T16:27:12Z</time>
      </trkpt>
      <trkpt lat="43.6203" lon="0.82271">
        <ele>205.86</ele>
        <time>2021-08-18T16:27:15Z</time>
      </trkpt>
      <trkpt lat="43.62022" lon="0.82134">
        <ele>203.46</ele>
        <time>2021-08-18T16:27:27Z</time>
      </trkpt>
      <trkpt lat="43.62022" lon="0.82058">
        <ele>200.09</ele>
        <time>2021-08-18T16:27:34Z</time>
      </trkpt>
      <trkpt lat="43.62023" lon="0.82048">
        <ele>200.09</ele>
        <time>2021-08-18T16:27:35Z</time>
      </trkpt>
      <trkpt lat="43.62036" lon="0.81948">
        <ele>198.17</ele>
        <time>2021-08-18T16:27:44Z</time>
      </trkpt>
      <trkpt lat="43.62053" lon="0.81891">
        <ele>198.17</ele>
        <time>2021-08-18T16:27:50Z</time>
      </trkpt>
      <trkpt lat="43.6206" lon="0.81875">
        <ele>198.17</ele>
        <time>2021-08-18T16:27:52Z</time>
      </trkpt>
      <trkpt lat="43.62064" lon="0.81869">
        <ele>197.69</ele>
        <time>2021-08-18T16:27:53Z</time>
      </trkpt>
      <trkpt lat="43.62068" lon="0.81862">
        <ele>197.69</ele>
        <time>2021-08-18T16:27:54Z</time>
      </trkpt>
      <trkpt lat="43.62077" lon="0.81852">
        <ele>197.69</ele>
        <time>2021-08-18T16:27:56Z</time>
      </trkpt>
      <trkpt lat="43.62082" lon="0.81847">
        <ele>197.69</ele>
        <time>2021-08-18T16:27:57Z</time>
      </trkpt>
      <trkpt lat="43.62086" lon="0.81842">
        <ele>197.69</ele>
        <time>2021-08-18T16:27:58Z</time>
      </trkpt>
      <trkpt lat="43.62098" lon="0.81825">
        <ele>198.17</ele>
        <time>2021-08-18T16:28:03Z</time>
      </trkpt>
      <trkpt lat="43.621" lon="0.81819">
        <ele>199.61</ele>
        <time>2021-08-18T16:28:05Z</time>
      </trkpt>
      <trkpt lat="43.62098" lon="0.81809">
        <ele>199.61</ele>
        <time>2021-08-18T16:28:08Z</time>
      </trkpt>
      <trkpt lat="43.62095" lon="0.81806">
        <ele>199.61</ele>
        <time>2021-08-18T16:28:09Z</time>
      </trkpt>
      <trkpt lat="43.62092" lon="0.81803">
        <ele>199.61</ele>
        <time>2021-08-18T16:28:10Z</time>
      </trkpt>
      <trkpt lat="43.62084" lon="0.81785">
        <ele>199.61</ele>
        <time>2021-08-18T16:28:14Z</time>
      </trkpt>
      <trkpt lat="43.62083" lon="0.81779">
        <ele>199.61</ele>
        <time>2021-08-18T16:28:15Z</time>
      </trkpt>
      <trkpt lat="43.62083" lon="0.81773">
        <ele>200.09</ele>
        <time>2021-08-18T16:28:16Z</time>
      </trkpt>
      <trkpt lat="43.62085" lon="0.81734">
        <ele>200.57</ele>
        <time>2021-08-18T16:28:24Z</time>
      </trkpt>
      <trkpt lat="43.62087" lon="0.81701">
        <ele>200.57</ele>
        <time>2021-08-18T16:28:33Z</time>
      </trkpt>
      <trkpt lat="43.62088" lon="0.81672">
        <ele>202.49</ele>
        <time>2021-08-18T16:28:42Z</time>
      </trkpt>
      <trkpt lat="43.6209" lon="0.81643">
        <ele>203.94</ele>
        <time>2021-08-18T16:28:51Z</time>
      </trkpt>
      <trkpt lat="43.62091" lon="0.81629">
        <ele>204.42</ele>
        <time>2021-08-18T16:28:57Z</time>
      </trkpt>
      <trkpt lat="43.62091" lon="0.81613">
        <ele>204.9</ele>
        <time>2021-08-18T16:29:04Z</time>
      </trkpt>
      <trkpt lat="43.62093" lon="0.81593">
        <ele>206.34</ele>
        <time>2021-08-18T16:29:13Z</time>
      </trkpt>
      <trkpt lat="43.62094" lon="0.81567">
        <ele>208.26</ele>
        <time>2021-08-18T16:29:24Z</time>
      </trkpt>
      <trkpt lat="43.62095" lon="0.81554">
        <ele>208.74</ele>
        <time>2021-08-18T16:29:30Z</time>
      </trkpt>
      <trkpt lat="43.62095" lon="0.81551">
        <ele>208.74</ele>
        <time>2021-08-18T16:29:31Z</time>
      </trkpt>
      <trkpt lat="43.62095" lon="0.81549">
        <ele>208.74</ele>
        <time>2021-08-18T16:29:32Z</time>
      </trkpt>
      <trkpt lat="43.62097" lon="0.81527">
        <ele>210.19</ele>
        <time>2021-08-18T16:29:41Z</time>
      </trkpt>
      <trkpt lat="43.62098" lon="0.81507">
        <ele>210.67</ele>
        <time>2021-08-18T16:29:49Z</time>
      </trkpt>
      <trkpt lat="43.62101" lon="0.81488">
        <ele>212.11</ele>
        <time>2021-08-18T16:29:57Z</time>
      </trkpt>
      <trkpt lat="43.62104" lon="0.81468">
        <ele>212.59</ele>
        <time>2021-08-18T16:30:05Z</time>
      </trkpt>
      <trkpt lat="43.62107" lon="0.81441">
        <ele>214.03</ele>
        <time>2021-08-18T16:30:15Z</time>
      </trkpt>
      <trkpt lat="43.62112" lon="0.81406">
        <ele>215.47</ele>
        <time>2021-08-18T16:30:26Z</time>
      </trkpt>
      <trkpt lat="43.62114" lon="0.81384">
        <ele>214.99</ele>
        <time>2021-08-18T16:30:33Z</time>
      </trkpt>
      <trkpt lat="43.62116" lon="0.81347">
        <ele>215.95</ele>
        <time>2021-08-18T16:30:43Z</time>
      </trkpt>
      <trkpt lat="43.62117" lon="0.81316">
        <ele>218.36</ele>
        <time>2021-08-18T16:30:53Z</time>
      </trkpt>
      <trkpt lat="43.62117" lon="0.81288">
        <ele>218.84</ele>
        <time>2021-08-18T16:31:02Z</time>
      </trkpt>
      <trkpt lat="43.62116" lon="0.81267">
        <ele>219.8</ele>
        <time>2021-08-18T16:31:10Z</time>
      </trkpt>
      <trkpt lat="43.62116" lon="0.81246">
        <ele>220.28</ele>
        <time>2021-08-18T16:31:18Z</time>
      </trkpt>
      <trkpt lat="43.62116" lon="0.81218">
        <ele>222.2</ele>
        <time>2021-08-18T16:31:27Z</time>
      </trkpt>
      <trkpt lat="43.62115" lon="0.81186">
        <ele>223.64</ele>
        <time>2021-08-18T16:31:37Z</time>
      </trkpt>
      <trkpt lat="43.62114" lon="0.81164">
        <ele>224.61</ele>
        <time>2021-08-18T16:31:45Z</time>
      </trkpt>
      <trkpt lat="43.62113" lon="0.81142">
        <ele>225.57</ele>
        <time>2021-08-18T16:31:54Z</time>
      </trkpt>
      <trkpt lat="43.62112" lon="0.81121">
        <ele>227.01</ele>
        <time>2021-08-18T16:32:02Z</time>
      </trkpt>
      <trkpt lat="43.62111" lon="0.81096">
        <ele>227.97</ele>
        <time>2021-08-18T16:32:12Z</time>
      </trkpt>
      <trkpt lat="43.6211" lon="0.81079">
        <ele>228.93</ele>
        <time>2021-08-18T16:32:19Z</time>
      </trkpt>
      <trkpt lat="43.62109" lon="0.81058">
        <ele>230.85</ele>
        <time>2021-08-18T16:32:28Z</time>
      </trkpt>
      <trkpt lat="43.62108" lon="0.81039">
        <ele>232.3</ele>
        <time>2021-08-18T16:32:36Z</time>
      </trkpt>
      <trkpt lat="43.62107" lon="0.81016">
        <ele>233.26</ele>
        <time>2021-08-18T16:32:45Z</time>
      </trkpt>
      <trkpt lat="43.62103" lon="0.80997">
        <ele>234.22</ele>
        <time>2021-08-18T16:32:53Z</time>
      </trkpt>
      <trkpt lat="43.62101" lon="0.80979">
        <ele>235.18</ele>
        <time>2021-08-18T16:32:59Z</time>
      </trkpt>
      <trkpt lat="43.62094" lon="0.80954">
        <ele>233.74</ele>
        <time>2021-08-18T16:33:05Z</time>
      </trkpt>
      <trkpt lat="43.62092" lon="0.80948">
        <ele>233.74</ele>
        <time>2021-08-18T16:33:06Z</time>
      </trkpt>
      <trkpt lat="43.62084" lon="0.80927">
        <ele>231.33</ele>
        <time>2021-08-18T16:33:09Z</time>
      </trkpt>
      <trkpt lat="43.62081" lon="0.8092">
        <ele>230.37</ele>
        <time>2021-08-18T16:33:10Z</time>
      </trkpt>
      <trkpt lat="43.62077" lon="0.80913">
        <ele>228.93</ele>
        <time>2021-08-18T16:33:11Z</time>
      </trkpt>
      <trkpt lat="43.62071" lon="0.80906">
        <ele>227.97</ele>
        <time>2021-08-18T16:33:12Z</time>
      </trkpt>
      <trkpt lat="43.62064" lon="0.80899">
        <ele>227.49</ele>
        <time>2021-08-18T16:33:13Z</time>
      </trkpt>
      <trkpt lat="43.62057" lon="0.80893">
        <ele>226.05</ele>
        <time>2021-08-18T16:33:14Z</time>
      </trkpt>
      <trkpt lat="43.6205" lon="0.80886">
        <ele>226.05</ele>
        <time>2021-08-18T16:33:15Z</time>
      </trkpt>
      <trkpt lat="43.62005" lon="0.80838">
        <ele>223.16</ele>
        <time>2021-08-18T16:33:22Z</time>
      </trkpt>
      <trkpt lat="43.61982" lon="0.80815">
        <ele>223.64</ele>
        <time>2021-08-18T16:33:26Z</time>
      </trkpt>
      <trkpt lat="43.61956" lon="0.80782">
        <ele>223.16</ele>
        <time>2021-08-18T16:33:32Z</time>
      </trkpt>
      <trkpt lat="43.61952" lon="0.80777">
        <ele>223.16</ele>
        <time>2021-08-18T16:33:33Z</time>
      </trkpt>
      <trkpt lat="43.6195" lon="0.80772">
        <ele>223.16</ele>
        <time>2021-08-18T16:33:34Z</time>
      </trkpt>
      <trkpt lat="43.61932" lon="0.80743">
        <ele>224.61</ele>
        <time>2021-08-18T16:33:42Z</time>
      </trkpt>
      <trkpt lat="43.61913" lon="0.80707">
        <ele>225.09</ele>
        <time>2021-08-18T16:33:53Z</time>
      </trkpt>
      <trkpt lat="43.61901" lon="0.80687">
        <ele>225.09</ele>
        <time>2021-08-18T16:34:00Z</time>
      </trkpt>
      <trkpt lat="43.61889" lon="0.80662">
        <ele>226.05</ele>
        <time>2021-08-18T16:34:08Z</time>
      </trkpt>
      <trkpt lat="43.61872" lon="0.8063">
        <ele>227.01</ele>
        <time>2021-08-18T16:34:18Z</time>
      </trkpt>
      <trkpt lat="43.61859" lon="0.80606">
        <ele>227.97</ele>
        <time>2021-08-18T16:34:26Z</time>
      </trkpt>
      <trkpt lat="43.61844" lon="0.80576">
        <ele>229.41</ele>
        <time>2021-08-18T16:34:36Z</time>
      </trkpt>
      <trkpt lat="43.61838" lon="0.80558">
        <ele>229.89</ele>
        <time>2021-08-18T16:34:42Z</time>
      </trkpt>
      <trkpt lat="43.61832" lon="0.80533">
        <ele>231.33</ele>
        <time>2021-08-18T16:34:50Z</time>
      </trkpt>
      <trkpt lat="43.61827" lon="0.80508">
        <ele>232.78</ele>
        <time>2021-08-18T16:34:58Z</time>
      </trkpt>
      <trkpt lat="43.61822" lon="0.80477">
        <ele>234.22</ele>
        <time>2021-08-18T16:35:07Z</time>
      </trkpt>
      <trkpt lat="43.61817" lon="0.80448">
        <ele>234.7</ele>
        <time>2021-08-18T16:35:15Z</time>
      </trkpt>
      <trkpt lat="43.61811" lon="0.80413">
        <ele>236.14</ele>
        <time>2021-08-18T16:35:25Z</time>
      </trkpt>
      <trkpt lat="43.61806" lon="0.80381">
        <ele>238.06</ele>
        <time>2021-08-18T16:35:34Z</time>
      </trkpt>
      <trkpt lat="43.61803" lon="0.80361">
        <ele>238.54</ele>
        <time>2021-08-18T16:35:40Z</time>
      </trkpt>
      <trkpt lat="43.61806" lon="0.80329">
        <ele>238.54</ele>
        <time>2021-08-18T16:35:48Z</time>
      </trkpt>
      <trkpt lat="43.6181" lon="0.80297">
        <ele>238.54</ele>
        <time>2021-08-18T16:35:56Z</time>
      </trkpt>
      <trkpt lat="43.61817" lon="0.80268">
        <ele>237.1</ele>
        <time>2021-08-18T16:36:02Z</time>
      </trkpt>
      <trkpt lat="43.61829" lon="0.80217">
        <ele>236.14</ele>
        <time>2021-08-18T16:36:12Z</time>
      </trkpt>
      <trkpt lat="43.61834" lon="0.80198">
        <ele>236.14</ele>
        <time>2021-08-18T16:36:17Z</time>
      </trkpt>
      <trkpt lat="43.61833" lon="0.80199">
        <ele>236.14</ele>
        <time>2021-08-18T16:36:26Z</time>
      </trkpt>
      <trkpt lat="43.61834" lon="0.80198">
        <ele>236.14</ele>
        <time>2021-08-18T16:36:52Z</time>
      </trkpt>
      <trkpt lat="43.61834" lon="0.80198">
        <ele>236.14</ele>
        <time>2021-08-18T16:37:10Z</time>
      </trkpt>
      <trkpt lat="43.61835" lon="0.80193">
        <ele>236.14</ele>
        <time>2021-08-18T16:37:21Z</time>
      </trkpt>
      <trkpt lat="43.6184" lon="0.80163">
        <ele>234.7</ele>
        <time>2021-08-18T16:37:27Z</time>
      </trkpt>
      <trkpt lat="43.61843" lon="0.80151">
        <ele>234.22</ele>
        <time>2021-08-18T16:37:29Z</time>
      </trkpt>
      <trkpt lat="43.61851" lon="0.80114">
        <ele>231.33</ele>
        <time>2021-08-18T16:37:34Z</time>
      </trkpt>
      <trkpt lat="43.61855" lon="0.80097">
        <ele>230.37</ele>
        <time>2021-08-18T16:37:36Z</time>
      </trkpt>
      <trkpt lat="43.61863" lon="0.8006">
        <ele>228.45</ele>
        <time>2021-08-18T16:37:40Z</time>
      </trkpt>
      <trkpt lat="43.61878" lon="0.7999">
        <ele>226.05</ele>
        <time>2021-08-18T16:37:47Z</time>
      </trkpt>
      <trkpt lat="43.61898" lon="0.7991">
        <ele>223.64</ele>
        <time>2021-08-18T16:37:55Z</time>
      </trkpt>
      <trkpt lat="43.61907" lon="0.79873">
        <ele>225.09</ele>
        <time>2021-08-18T16:37:59Z</time>
      </trkpt>
      <trkpt lat="43.61923" lon="0.79811">
        <ele>225.57</ele>
        <time>2021-08-18T16:38:07Z</time>
      </trkpt>
      <trkpt lat="43.61946" lon="0.7973">
        <ele>224.12</ele>
        <time>2021-08-18T16:38:18Z</time>
      </trkpt>
      <trkpt lat="43.61969" lon="0.79649">
        <ele>223.16</ele>
        <time>2021-08-18T16:38:28Z</time>
      </trkpt>
      <trkpt lat="43.61976" lon="0.79581">
        <ele>220.28</ele>
        <time>2021-08-18T16:38:35Z</time>
      </trkpt>
      <trkpt lat="43.61979" lon="0.79537">
        <ele>218.36</ele>
        <time>2021-08-18T16:38:39Z</time>
      </trkpt>
      <trkpt lat="43.61976" lon="0.7949">
        <ele>215.95</ele>
        <time>2021-08-18T16:38:43Z</time>
      </trkpt>
      <trkpt lat="43.61971" lon="0.79451">
        <ele>213.07</ele>
        <time>2021-08-18T16:38:46Z</time>
      </trkpt>
      <trkpt lat="43.6196" lon="0.79398">
        <ele>209.7</ele>
        <time>2021-08-18T16:38:50Z</time>
      </trkpt>
      <trkpt lat="43.61947" lon="0.79344">
        <ele>207.78</ele>
        <time>2021-08-18T16:38:54Z</time>
      </trkpt>
      <trkpt lat="43.61932" lon="0.79264">
        <ele>204.42</ele>
        <time>2021-08-18T16:39:00Z</time>
      </trkpt>
      <trkpt lat="43.61928" lon="0.79195">
        <ele>201.05</ele>
        <time>2021-08-18T16:39:05Z</time>
      </trkpt>
      <trkpt lat="43.61929" lon="0.79181">
        <ele>201.05</ele>
        <time>2021-08-18T16:39:06Z</time>
      </trkpt>
      <trkpt lat="43.61936" lon="0.79105">
        <ele>200.57</ele>
        <time>2021-08-18T16:39:12Z</time>
      </trkpt>
      <trkpt lat="43.61942" lon="0.79071">
        <ele>199.13</ele>
        <time>2021-08-18T16:39:15Z</time>
      </trkpt>
      <trkpt lat="43.61949" lon="0.7903">
        <ele>200.57</ele>
        <time>2021-08-18T16:39:19Z</time>
      </trkpt>
      <trkpt lat="43.61959" lon="0.78965">
        <ele>200.57</ele>
        <time>2021-08-18T16:39:26Z</time>
      </trkpt>
      <trkpt lat="43.6197" lon="0.78904">
        <ele>201.53</ele>
        <time>2021-08-18T16:39:34Z</time>
      </trkpt>
      <trkpt lat="43.61978" lon="0.78853">
        <ele>202.49</ele>
        <time>2021-08-18T16:39:41Z</time>
      </trkpt>
      <trkpt lat="43.61994" lon="0.78768">
        <ele>202.49</ele>
        <time>2021-08-18T16:39:52Z</time>
      </trkpt>
      <trkpt lat="43.62008" lon="0.78689">
        <ele>202.49</ele>
        <time>2021-08-18T16:40:02Z</time>
      </trkpt>
      <trkpt lat="43.62024" lon="0.78607">
        <ele>202.98</ele>
        <time>2021-08-18T16:40:13Z</time>
      </trkpt>
      <trkpt lat="43.62026" lon="0.78553">
        <ele>202.98</ele>
        <time>2021-08-18T16:40:20Z</time>
      </trkpt>
      <trkpt lat="43.62025" lon="0.78485">
        <ele>200.09</ele>
        <time>2021-08-18T16:40:27Z</time>
      </trkpt>
      <trkpt lat="43.62025" lon="0.78389">
        <ele>199.61</ele>
        <time>2021-08-18T16:40:37Z</time>
      </trkpt>
      <trkpt lat="43.62024" lon="0.78347">
        <ele>199.61</ele>
        <time>2021-08-18T16:40:42Z</time>
      </trkpt>
      <trkpt lat="43.62022" lon="0.78339">
        <ele>200.09</ele>
        <time>2021-08-18T16:40:43Z</time>
      </trkpt>
      <trkpt lat="43.62017" lon="0.78334">
        <ele>200.09</ele>
        <time>2021-08-18T16:40:44Z</time>
      </trkpt>
      <trkpt lat="43.62012" lon="0.7833">
        <ele>201.53</ele>
        <time>2021-08-18T16:40:45Z</time>
      </trkpt>
      <trkpt lat="43.62006" lon="0.78329">
        <ele>201.53</ele>
        <time>2021-08-18T16:40:46Z</time>
      </trkpt>
      <trkpt lat="43.62" lon="0.78327">
        <ele>201.53</ele>
        <time>2021-08-18T16:40:47Z</time>
      </trkpt>
      <trkpt lat="43.61994" lon="0.78326">
        <ele>201.53</ele>
        <time>2021-08-18T16:40:48Z</time>
      </trkpt>
      <trkpt lat="43.61979" lon="0.78323">
        <ele>202.49</ele>
        <time>2021-08-18T16:40:51Z</time>
      </trkpt>
      <trkpt lat="43.61974" lon="0.78321">
        <ele>202.98</ele>
        <time>2021-08-18T16:40:52Z</time>
      </trkpt>
      <trkpt lat="43.6197" lon="0.78317">
        <ele>202.98</ele>
        <time>2021-08-18T16:40:53Z</time>
      </trkpt>
      <trkpt lat="43.61966" lon="0.78313">
        <ele>203.46</ele>
        <time>2021-08-18T16:40:54Z</time>
      </trkpt>
      <trkpt lat="43.61962" lon="0.78308">
        <ele>203.46</ele>
        <time>2021-08-18T16:40:55Z</time>
      </trkpt>
      <trkpt lat="43.61959" lon="0.78303">
        <ele>203.46</ele>
        <time>2021-08-18T16:40:56Z</time>
      </trkpt>
      <trkpt lat="43.61957" lon="0.78296">
        <ele>203.46</ele>
        <time>2021-08-18T16:40:57Z</time>
      </trkpt>
      <trkpt lat="43.61954" lon="0.7829">
        <ele>203.46</ele>
        <time>2021-08-18T16:40:58Z</time>
      </trkpt>
      <trkpt lat="43.61952" lon="0.78282">
        <ele>203.46</ele>
        <time>2021-08-18T16:40:59Z</time>
      </trkpt>
      <trkpt lat="43.61928" lon="0.78204">
        <ele>202.01</ele>
        <time>2021-08-18T16:41:09Z</time>
      </trkpt>
      <trkpt lat="43.61909" lon="0.78145">
        <ele>202.01</ele>
        <time>2021-08-18T16:41:17Z</time>
      </trkpt>
      <trkpt lat="43.61894" lon="0.78081">
        <ele>202.01</ele>
        <time>2021-08-18T16:41:25Z</time>
      </trkpt>
      <trkpt lat="43.61894" lon="0.78072">
        <ele>201.53</ele>
        <time>2021-08-18T16:41:26Z</time>
      </trkpt>
      <trkpt lat="43.61894" lon="0.78055">
        <ele>201.53</ele>
        <time>2021-08-18T16:41:28Z</time>
      </trkpt>
      <trkpt lat="43.61902" lon="0.77987">
        <ele>203.46</ele>
        <time>2021-08-18T16:41:37Z</time>
      </trkpt>
      <trkpt lat="43.61903" lon="0.7798">
        <ele>203.46</ele>
        <time>2021-08-18T16:41:38Z</time>
      </trkpt>
      <trkpt lat="43.61916" lon="0.77916">
        <ele>202.98</ele>
        <time>2021-08-18T16:41:47Z</time>
      </trkpt>
      <trkpt lat="43.61922" lon="0.77886">
        <ele>202.01</ele>
        <time>2021-08-18T16:41:51Z</time>
      </trkpt>
      <trkpt lat="43.61924" lon="0.77826">
        <ele>199.61</ele>
        <time>2021-08-18T16:41:58Z</time>
      </trkpt>
      <trkpt lat="43.61922" lon="0.77807">
        <ele>198.65</ele>
        <time>2021-08-18T16:42:00Z</time>
      </trkpt>
      <trkpt lat="43.6192" lon="0.77797">
        <ele>198.65</ele>
        <time>2021-08-18T16:42:01Z</time>
      </trkpt>
      <trkpt lat="43.61917" lon="0.77787">
        <ele>197.21</ele>
        <time>2021-08-18T16:42:02Z</time>
      </trkpt>
      <trkpt lat="43.61913" lon="0.77777">
        <ele>197.21</ele>
        <time>2021-08-18T16:42:03Z</time>
      </trkpt>
      <trkpt lat="43.61908" lon="0.77767">
        <ele>196.25</ele>
        <time>2021-08-18T16:42:04Z</time>
      </trkpt>
      <trkpt lat="43.61902" lon="0.77759">
        <ele>195.77</ele>
        <time>2021-08-18T16:42:05Z</time>
      </trkpt>
      <trkpt lat="43.61896" lon="0.77751">
        <ele>194.8</ele>
        <time>2021-08-18T16:42:06Z</time>
      </trkpt>
      <trkpt lat="43.6189" lon="0.77743">
        <ele>194.8</ele>
        <time>2021-08-18T16:42:07Z</time>
      </trkpt>
      <trkpt lat="43.61864" lon="0.77717">
        <ele>191.92</ele>
        <time>2021-08-18T16:42:11Z</time>
      </trkpt>
      <trkpt lat="43.61842" lon="0.77693">
        <ele>190</ele>
        <time>2021-08-18T16:42:15Z</time>
      </trkpt>
      <trkpt lat="43.6182" lon="0.77667">
        <ele>187.11</ele>
        <time>2021-08-18T16:42:19Z</time>
      </trkpt>
      <trkpt lat="43.61816" lon="0.77658">
        <ele>186.15</ele>
        <time>2021-08-18T16:42:20Z</time>
      </trkpt>
      <trkpt lat="43.61812" lon="0.77649">
        <ele>186.15</ele>
        <time>2021-08-18T16:42:21Z</time>
      </trkpt>
      <trkpt lat="43.6181" lon="0.77639">
        <ele>185.67</ele>
        <time>2021-08-18T16:42:22Z</time>
      </trkpt>
      <trkpt lat="43.61807" lon="0.77629">
        <ele>184.71</ele>
        <time>2021-08-18T16:42:23Z</time>
      </trkpt>
      <trkpt lat="43.61803" lon="0.77611">
        <ele>183.75</ele>
        <time>2021-08-18T16:42:25Z</time>
      </trkpt>
      <trkpt lat="43.61803" lon="0.77563">
        <ele>179.9</ele>
        <time>2021-08-18T16:42:30Z</time>
      </trkpt>
      <trkpt lat="43.61809" lon="0.77519">
        <ele>177.02</ele>
        <time>2021-08-18T16:42:34Z</time>
      </trkpt>
      <trkpt lat="43.61814" lon="0.77483">
        <ele>173.17</ele>
        <time>2021-08-18T16:42:37Z</time>
      </trkpt>
      <trkpt lat="43.6182" lon="0.77446">
        <ele>169.81</ele>
        <time>2021-08-18T16:42:40Z</time>
      </trkpt>
      <trkpt lat="43.61823" lon="0.77423">
        <ele>168.37</ele>
        <time>2021-08-18T16:42:42Z</time>
      </trkpt>
      <trkpt lat="43.61822" lon="0.77412">
        <ele>167.41</ele>
        <time>2021-08-18T16:42:43Z</time>
      </trkpt>
      <trkpt lat="43.6182" lon="0.77401">
        <ele>166.45</ele>
        <time>2021-08-18T16:42:44Z</time>
      </trkpt>
      <trkpt lat="43.61815" lon="0.77391">
        <ele>165.48</ele>
        <time>2021-08-18T16:42:45Z</time>
      </trkpt>
      <trkpt lat="43.61808" lon="0.77381">
        <ele>164.04</ele>
        <time>2021-08-18T16:42:46Z</time>
      </trkpt>
      <trkpt lat="43.61801" lon="0.77374">
        <ele>163.56</ele>
        <time>2021-08-18T16:42:47Z</time>
      </trkpt>
      <trkpt lat="43.61793" lon="0.77366">
        <ele>163.08</ele>
        <time>2021-08-18T16:42:48Z</time>
      </trkpt>
      <trkpt lat="43.6176" lon="0.77334">
        <ele>159.72</ele>
        <time>2021-08-18T16:42:52Z</time>
      </trkpt>
      <trkpt lat="43.61751" lon="0.77326">
        <ele>159.72</ele>
        <time>2021-08-18T16:42:53Z</time>
      </trkpt>
      <trkpt lat="43.61719" lon="0.77294">
        <ele>159.24</ele>
        <time>2021-08-18T16:42:57Z</time>
      </trkpt>
      <trkpt lat="43.61675" lon="0.7725">
        <ele>160.2</ele>
        <time>2021-08-18T16:43:03Z</time>
      </trkpt>
      <trkpt lat="43.61669" lon="0.77244">
        <ele>160.2</ele>
        <time>2021-08-18T16:43:04Z</time>
      </trkpt>
      <trkpt lat="43.61632" lon="0.77203">
        <ele>161.16</ele>
        <time>2021-08-18T16:43:11Z</time>
      </trkpt>
      <trkpt lat="43.61599" lon="0.77152">
        <ele>161.64</ele>
        <time>2021-08-18T16:43:19Z</time>
      </trkpt>
      <trkpt lat="43.61593" lon="0.77136">
        <ele>160.2</ele>
        <time>2021-08-18T16:43:21Z</time>
      </trkpt>
      <trkpt lat="43.61586" lon="0.77118">
        <ele>159.72</ele>
        <time>2021-08-18T16:43:23Z</time>
      </trkpt>
      <trkpt lat="43.61553" lon="0.77066">
        <ele>158.75</ele>
        <time>2021-08-18T16:43:30Z</time>
      </trkpt>
      <trkpt lat="43.61538" lon="0.7704">
        <ele>158.75</ele>
        <time>2021-08-18T16:43:34Z</time>
      </trkpt>
      <trkpt lat="43.61537" lon="0.77033">
        <ele>158.75</ele>
        <time>2021-08-18T16:43:35Z</time>
      </trkpt>
      <trkpt lat="43.61537" lon="0.77025">
        <ele>158.75</ele>
        <time>2021-08-18T16:43:36Z</time>
      </trkpt>
      <trkpt lat="43.61539" lon="0.77019">
        <ele>159.72</ele>
        <time>2021-08-18T16:43:37Z</time>
      </trkpt>
      <trkpt lat="43.61542" lon="0.77015">
        <ele>160.2</ele>
        <time>2021-08-18T16:43:38Z</time>
      </trkpt>
      <trkpt lat="43.61547" lon="0.77011">
        <ele>159.72</ele>
        <time>2021-08-18T16:43:39Z</time>
      </trkpt>
      <trkpt lat="43.61551" lon="0.77007">
        <ele>160.2</ele>
        <time>2021-08-18T16:43:40Z</time>
      </trkpt>
      <trkpt lat="43.61554" lon="0.77002">
        <ele>160.2</ele>
        <time>2021-08-18T16:43:41Z</time>
      </trkpt>
      <trkpt lat="43.61558" lon="0.76997">
        <ele>160.2</ele>
        <time>2021-08-18T16:43:42Z</time>
      </trkpt>
      <trkpt lat="43.61593" lon="0.76954">
        <ele>160.2</ele>
        <time>2021-08-18T16:43:50Z</time>
      </trkpt>
      <trkpt lat="43.61602" lon="0.76944">
        <ele>158.75</ele>
        <time>2021-08-18T16:43:52Z</time>
      </trkpt>
      <trkpt lat="43.61636" lon="0.76911">
        <ele>158.75</ele>
        <time>2021-08-18T16:43:59Z</time>
      </trkpt>
      <trkpt lat="43.61677" lon="0.76862">
        <ele>158.75</ele>
        <time>2021-08-18T16:44:08Z</time>
      </trkpt>
      <trkpt lat="43.61713" lon="0.76804">
        <ele>158.75</ele>
        <time>2021-08-18T16:44:17Z</time>
      </trkpt>
      <trkpt lat="43.61746" lon="0.76747">
        <ele>158.75</ele>
        <time>2021-08-18T16:44:26Z</time>
      </trkpt>
      <trkpt lat="43.6177" lon="0.76708">
        <ele>158.75</ele>
        <time>2021-08-18T16:44:34Z</time>
      </trkpt>
      <trkpt lat="43.61775" lon="0.76702">
        <ele>159.72</ele>
        <time>2021-08-18T16:44:38Z</time>
      </trkpt>
      <trkpt lat="43.61775" lon="0.76699">
        <ele>159.72</ele>
        <time>2021-08-18T16:44:39Z</time>
      </trkpt>
      <trkpt lat="43.61774" lon="0.76696">
        <ele>159.72</ele>
        <time>2021-08-18T16:44:40Z</time>
      </trkpt>
      <trkpt lat="43.61772" lon="0.76692">
        <ele>159.72</ele>
        <time>2021-08-18T16:44:41Z</time>
      </trkpt>
      <trkpt lat="43.61771" lon="0.76689">
        <ele>159.72</ele>
        <time>2021-08-18T16:44:42Z</time>
      </trkpt>
      <trkpt lat="43.61769" lon="0.76684">
        <ele>159.72</ele>
        <time>2021-08-18T16:44:43Z</time>
      </trkpt>
      <trkpt lat="43.61768" lon="0.7668">
        <ele>159.72</ele>
        <time>2021-08-18T16:44:44Z</time>
      </trkpt>
      <trkpt lat="43.61768" lon="0.76675">
        <ele>159.72</ele>
        <time>2021-08-18T16:44:45Z</time>
      </trkpt>
      <trkpt lat="43.61768" lon="0.7667">
        <ele>159.72</ele>
        <time>2021-08-18T16:44:46Z</time>
      </trkpt>
      <trkpt lat="43.61768" lon="0.76665">
        <ele>159.72</ele>
        <time>2021-08-18T16:44:47Z</time>
      </trkpt>
      <trkpt lat="43.61767" lon="0.76634">
        <ele>161.16</ele>
        <time>2021-08-18T16:44:54Z</time>
      </trkpt>
      <trkpt lat="43.61766" lon="0.76604">
        <ele>162.6</ele>
        <time>2021-08-18T16:45:02Z</time>
      </trkpt>
      <trkpt lat="43.61761" lon="0.76572">
        <ele>164.04</ele>
        <time>2021-08-18T16:45:12Z</time>
      </trkpt>
      <trkpt lat="43.61754" lon="0.76541">
        <ele>165.96</ele>
        <time>2021-08-18T16:45:23Z</time>
      </trkpt>
      <trkpt lat="43.61748" lon="0.76515">
        <ele>167.41</ele>
        <time>2021-08-18T16:45:32Z</time>
      </trkpt>
      <trkpt lat="43.61744" lon="0.7648">
        <ele>168.37</ele>
        <time>2021-08-18T16:45:42Z</time>
      </trkpt>
      <trkpt lat="43.61746" lon="0.7645">
        <ele>168.85</ele>
        <time>2021-08-18T16:45:50Z</time>
      </trkpt>
      <trkpt lat="43.61751" lon="0.76413">
        <ele>170.29</ele>
        <time>2021-08-18T16:46:00Z</time>
      </trkpt>
      <trkpt lat="43.61756" lon="0.76374">
        <ele>171.73</ele>
        <time>2021-08-18T16:46:11Z</time>
      </trkpt>
      <trkpt lat="43.61762" lon="0.7633">
        <ele>173.17</ele>
        <time>2021-08-18T16:46:23Z</time>
      </trkpt>
      <trkpt lat="43.61767" lon="0.76288">
        <ele>174.14</ele>
        <time>2021-08-18T16:46:34Z</time>
      </trkpt>
      <trkpt lat="43.61772" lon="0.76245">
        <ele>175.58</ele>
        <time>2021-08-18T16:46:45Z</time>
      </trkpt>
      <trkpt lat="43.61772" lon="0.76199">
        <ele>177.02</ele>
        <time>2021-08-18T16:46:55Z</time>
      </trkpt>
      <trkpt lat="43.61772" lon="0.7616">
        <ele>178.46</ele>
        <time>2021-08-18T16:47:04Z</time>
      </trkpt>
      <trkpt lat="43.61771" lon="0.76133">
        <ele>179.42</ele>
        <time>2021-08-18T16:47:11Z</time>
      </trkpt>
      <trkpt lat="43.61771" lon="0.76109">
        <ele>180.38</ele>
        <time>2021-08-18T16:47:19Z</time>
      </trkpt>
      <trkpt lat="43.61773" lon="0.76075">
        <ele>181.83</ele>
        <time>2021-08-18T16:47:29Z</time>
      </trkpt>
      <trkpt lat="43.61777" lon="0.76042">
        <ele>183.27</ele>
        <time>2021-08-18T16:47:38Z</time>
      </trkpt>
      <trkpt lat="43.61784" lon="0.76011">
        <ele>184.23</ele>
        <time>2021-08-18T16:47:47Z</time>
      </trkpt>
      <trkpt lat="43.61792" lon="0.75984">
        <ele>185.19</ele>
        <time>2021-08-18T16:47:55Z</time>
      </trkpt>
      <trkpt lat="43.61806" lon="0.75948">
        <ele>187.11</ele>
        <time>2021-08-18T16:48:05Z</time>
      </trkpt>
      <trkpt lat="43.6182" lon="0.7591">
        <ele>188.08</ele>
        <time>2021-08-18T16:48:14Z</time>
      </trkpt>
      <trkpt lat="43.61836" lon="0.75863">
        <ele>190</ele>
        <time>2021-08-18T16:48:25Z</time>
      </trkpt>
      <trkpt lat="43.61849" lon="0.7582">
        <ele>190.96</ele>
        <time>2021-08-18T16:48:35Z</time>
      </trkpt>
      <trkpt lat="43.6186" lon="0.7578">
        <ele>191.92</ele>
        <time>2021-08-18T16:48:44Z</time>
      </trkpt>
      <trkpt lat="43.61869" lon="0.75743">
        <ele>193.36</ele>
        <time>2021-08-18T16:48:53Z</time>
      </trkpt>
      <trkpt lat="43.61878" lon="0.75706">
        <ele>195.77</ele>
        <time>2021-08-18T16:49:02Z</time>
      </trkpt>
      <trkpt lat="43.61892" lon="0.75649">
        <ele>196.73</ele>
        <time>2021-08-18T16:49:15Z</time>
      </trkpt>
      <trkpt lat="43.61905" lon="0.75602">
        <ele>197.69</ele>
        <time>2021-08-18T16:49:25Z</time>
      </trkpt>
      <trkpt lat="43.61917" lon="0.75554">
        <ele>198.65</ele>
        <time>2021-08-18T16:49:35Z</time>
      </trkpt>
      <trkpt lat="43.61928" lon="0.75506">
        <ele>199.61</ele>
        <time>2021-08-18T16:49:45Z</time>
      </trkpt>
      <trkpt lat="43.61937" lon="0.75465">
        <ele>201.53</ele>
        <time>2021-08-18T16:49:54Z</time>
      </trkpt>
      <trkpt lat="43.61945" lon="0.75429">
        <ele>202.01</ele>
        <time>2021-08-18T16:50:02Z</time>
      </trkpt>
      <trkpt lat="43.61953" lon="0.75384">
        <ele>203.94</ele>
        <time>2021-08-18T16:50:12Z</time>
      </trkpt>
      <trkpt lat="43.61957" lon="0.75363">
        <ele>203.94</ele>
        <time>2021-08-18T16:50:19Z</time>
      </trkpt>
      <trkpt lat="43.6196" lon="0.75333">
        <ele>204.42</ele>
        <time>2021-08-18T16:50:26Z</time>
      </trkpt>
      <trkpt lat="43.61963" lon="0.75304">
        <ele>204.9</ele>
        <time>2021-08-18T16:50:32Z</time>
      </trkpt>
      <trkpt lat="43.61966" lon="0.75268">
        <ele>205.38</ele>
        <time>2021-08-18T16:50:39Z</time>
      </trkpt>
      <trkpt lat="43.6197" lon="0.7523">
        <ele>205.86</ele>
        <time>2021-08-18T16:50:46Z</time>
      </trkpt>
      <trkpt lat="43.61971" lon="0.75188">
        <ele>206.82</ele>
        <time>2021-08-18T16:50:54Z</time>
      </trkpt>
      <trkpt lat="43.61971" lon="0.75151">
        <ele>207.3</ele>
        <time>2021-08-18T16:51:01Z</time>
      </trkpt>
      <trkpt lat="43.6197" lon="0.75093">
        <ele>207.78</ele>
        <time>2021-08-18T16:51:11Z</time>
      </trkpt>
      <trkpt lat="43.61968" lon="0.7504">
        <ele>208.26</ele>
        <time>2021-08-18T16:51:21Z</time>
      </trkpt>
      <trkpt lat="43.61967" lon="0.74983">
        <ele>208.74</ele>
        <time>2021-08-18T16:51:30Z</time>
      </trkpt>
      <trkpt lat="43.61965" lon="0.74903">
        <ele>208.74</ele>
        <time>2021-08-18T16:51:42Z</time>
      </trkpt>
      <trkpt lat="43.61963" lon="0.74851">
        <ele>207.3</ele>
        <time>2021-08-18T16:51:50Z</time>
      </trkpt>
      <trkpt lat="43.61963" lon="0.74845">
        <ele>207.3</ele>
        <time>2021-08-18T16:51:51Z</time>
      </trkpt>
      <trkpt lat="43.61962" lon="0.74828">
        <ele>208.74</ele>
        <time>2021-08-18T16:51:54Z</time>
      </trkpt>
      <trkpt lat="43.6196" lon="0.74768">
        <ele>208.74</ele>
        <time>2021-08-18T16:52:03Z</time>
      </trkpt>
      <trkpt lat="43.6196" lon="0.74756">
        <ele>208.74</ele>
        <time>2021-08-18T16:52:05Z</time>
      </trkpt>
      <trkpt lat="43.61963" lon="0.74731">
        <ele>209.22</ele>
        <time>2021-08-18T16:52:09Z</time>
      </trkpt>
      <trkpt lat="43.61965" lon="0.74725">
        <ele>209.22</ele>
        <time>2021-08-18T16:52:10Z</time>
      </trkpt>
      <trkpt lat="43.61967" lon="0.7472">
        <ele>209.22</ele>
        <time>2021-08-18T16:52:11Z</time>
      </trkpt>
      <trkpt lat="43.61983" lon="0.74691">
        <ele>210.67</ele>
        <time>2021-08-18T16:52:18Z</time>
      </trkpt>
      <trkpt lat="43.61998" lon="0.74668">
        <ele>211.63</ele>
        <time>2021-08-18T16:52:24Z</time>
      </trkpt>
      <trkpt lat="43.62022" lon="0.74631">
        <ele>213.55</ele>
        <time>2021-08-18T16:52:33Z</time>
      </trkpt>
      <trkpt lat="43.62043" lon="0.74599">
        <ele>214.99</ele>
        <time>2021-08-18T16:52:42Z</time>
      </trkpt>
      <trkpt lat="43.62057" lon="0.74575">
        <ele>215.47</ele>
        <time>2021-08-18T16:52:49Z</time>
      </trkpt>
      <trkpt lat="43.62067" lon="0.74551">
        <ele>214.03</ele>
        <time>2021-08-18T16:52:54Z</time>
      </trkpt>
      <trkpt lat="43.6208" lon="0.74514">
        <ele>210.67</ele>
        <time>2021-08-18T16:52:59Z</time>
      </trkpt>
      <trkpt lat="43.62082" lon="0.74505">
        <ele>210.67</ele>
        <time>2021-08-18T16:53:00Z</time>
      </trkpt>
      <trkpt lat="43.62091" lon="0.74462">
        <ele>207.3</ele>
        <time>2021-08-18T16:53:04Z</time>
      </trkpt>
      <trkpt lat="43.62098" lon="0.74425">
        <ele>203.94</ele>
        <time>2021-08-18T16:53:07Z</time>
      </trkpt>
      <trkpt lat="43.62106" lon="0.74383">
        <ele>200.57</ele>
        <time>2021-08-18T16:53:10Z</time>
      </trkpt>
      <trkpt lat="43.62115" lon="0.74338">
        <ele>196.73</ele>
        <time>2021-08-18T16:53:13Z</time>
      </trkpt>
      <trkpt lat="43.62124" lon="0.74292">
        <ele>195.77</ele>
        <time>2021-08-18T16:53:16Z</time>
      </trkpt>
      <trkpt lat="43.62134" lon="0.7423">
        <ele>192.4</ele>
        <time>2021-08-18T16:53:20Z</time>
      </trkpt>
      <trkpt lat="43.62145" lon="0.74171">
        <ele>189.52</ele>
        <time>2021-08-18T16:53:24Z</time>
      </trkpt>
      <trkpt lat="43.62156" lon="0.74128">
        <ele>187.59</ele>
        <time>2021-08-18T16:53:27Z</time>
      </trkpt>
      <trkpt lat="43.62182" lon="0.74076">
        <ele>184.23</ele>
        <time>2021-08-18T16:53:31Z</time>
      </trkpt>
      <trkpt lat="43.62215" lon="0.74034">
        <ele>180.87</ele>
        <time>2021-08-18T16:53:35Z</time>
      </trkpt>
      <trkpt lat="43.62259" lon="0.73985">
        <ele>177.02</ele>
        <time>2021-08-18T16:53:40Z</time>
      </trkpt>
      <trkpt lat="43.62278" lon="0.73969">
        <ele>175.58</ele>
        <time>2021-08-18T16:53:42Z</time>
      </trkpt>
      <trkpt lat="43.62289" lon="0.73963">
        <ele>174.62</ele>
        <time>2021-08-18T16:53:43Z</time>
      </trkpt>
      <trkpt lat="43.623" lon="0.73959">
        <ele>174.14</ele>
        <time>2021-08-18T16:53:44Z</time>
      </trkpt>
      <trkpt lat="43.6231" lon="0.73956">
        <ele>174.14</ele>
        <time>2021-08-18T16:53:45Z</time>
      </trkpt>
      <trkpt lat="43.62321" lon="0.73954">
        <ele>174.14</ele>
        <time>2021-08-18T16:53:46Z</time>
      </trkpt>
      <trkpt lat="43.62362" lon="0.73941">
        <ele>176.54</ele>
        <time>2021-08-18T16:53:51Z</time>
      </trkpt>
      <trkpt lat="43.62368" lon="0.73937">
        <ele>176.54</ele>
        <time>2021-08-18T16:53:52Z</time>
      </trkpt>
      <trkpt lat="43.62374" lon="0.73933">
        <ele>177.02</ele>
        <time>2021-08-18T16:53:53Z</time>
      </trkpt>
      <trkpt lat="43.62378" lon="0.73928">
        <ele>177.98</ele>
        <time>2021-08-18T16:53:54Z</time>
      </trkpt>
      <trkpt lat="43.62382" lon="0.73922">
        <ele>178.46</ele>
        <time>2021-08-18T16:53:55Z</time>
      </trkpt>
      <trkpt lat="43.62385" lon="0.73918">
        <ele>178.46</ele>
        <time>2021-08-18T16:53:56Z</time>
      </trkpt>
      <trkpt lat="43.62396" lon="0.73898">
        <ele>180.87</ele>
        <time>2021-08-18T16:54:02Z</time>
      </trkpt>
      <trkpt lat="43.62409" lon="0.73868">
        <ele>182.79</ele>
        <time>2021-08-18T16:54:12Z</time>
      </trkpt>
      <trkpt lat="43.62418" lon="0.73846">
        <ele>184.71</ele>
        <time>2021-08-18T16:54:21Z</time>
      </trkpt>
      <trkpt lat="43.62427" lon="0.73825">
        <ele>185.67</ele>
        <time>2021-08-18T16:54:30Z</time>
      </trkpt>
      <trkpt lat="43.62436" lon="0.73801">
        <ele>187.11</ele>
        <time>2021-08-18T16:54:40Z</time>
      </trkpt>
      <trkpt lat="43.62445" lon="0.73781">
        <ele>188.08</ele>
        <time>2021-08-18T16:54:48Z</time>
      </trkpt>
      <trkpt lat="43.62457" lon="0.73748">
        <ele>189.52</ele>
        <time>2021-08-18T16:54:59Z</time>
      </trkpt>
      <trkpt lat="43.62466" lon="0.73726">
        <ele>190.48</ele>
        <time>2021-08-18T16:55:07Z</time>
      </trkpt>
      <trkpt lat="43.62475" lon="0.73696">
        <ele>191.92</ele>
        <time>2021-08-18T16:55:17Z</time>
      </trkpt>
      <trkpt lat="43.62486" lon="0.73662">
        <ele>192.88</ele>
        <time>2021-08-18T16:55:28Z</time>
      </trkpt>
      <trkpt lat="43.62498" lon="0.7363">
        <ele>194.8</ele>
        <time>2021-08-18T16:55:39Z</time>
      </trkpt>
      <trkpt lat="43.62508" lon="0.736">
        <ele>196.25</ele>
        <time>2021-08-18T16:55:49Z</time>
      </trkpt>
      <trkpt lat="43.62518" lon="0.73569">
        <ele>198.17</ele>
        <time>2021-08-18T16:55:59Z</time>
      </trkpt>
      <trkpt lat="43.62527" lon="0.7354">
        <ele>199.61</ele>
        <time>2021-08-18T16:56:07Z</time>
      </trkpt>
      <trkpt lat="43.62533" lon="0.73503">
        <ele>200.57</ele>
        <time>2021-08-18T16:56:17Z</time>
      </trkpt>
      <trkpt lat="43.62528" lon="0.73468">
        <ele>201.05</ele>
        <time>2021-08-18T16:56:24Z</time>
      </trkpt>
      <trkpt lat="43.62526" lon="0.73449">
        <ele>199.61</ele>
        <time>2021-08-18T16:56:27Z</time>
      </trkpt>
      <trkpt lat="43.62523" lon="0.73434">
        <ele>199.13</ele>
        <time>2021-08-18T16:56:29Z</time>
      </trkpt>
      <trkpt lat="43.62523" lon="0.73427">
        <ele>198.65</ele>
        <time>2021-08-18T16:56:30Z</time>
      </trkpt>
      <trkpt lat="43.62523" lon="0.7342">
        <ele>198.65</ele>
        <time>2021-08-18T16:56:31Z</time>
      </trkpt>
      <trkpt lat="43.62525" lon="0.73405">
        <ele>197.69</ele>
        <time>2021-08-18T16:56:33Z</time>
      </trkpt>
      <trkpt lat="43.62526" lon="0.73397">
        <ele>197.69</ele>
        <time>2021-08-18T16:56:34Z</time>
      </trkpt>
      <trkpt lat="43.6254" lon="0.73349">
        <ele>197.69</ele>
        <time>2021-08-18T16:56:41Z</time>
      </trkpt>
      <trkpt lat="43.62543" lon="0.73343">
        <ele>197.69</ele>
        <time>2021-08-18T16:56:42Z</time>
      </trkpt>
      <trkpt lat="43.62545" lon="0.73339">
        <ele>199.13</ele>
        <time>2021-08-18T16:56:43Z</time>
      </trkpt>
      <trkpt lat="43.62548" lon="0.73335">
        <ele>199.13</ele>
        <time>2021-08-18T16:56:44Z</time>
      </trkpt>
      <trkpt lat="43.62551" lon="0.73331">
        <ele>199.61</ele>
        <time>2021-08-18T16:56:45Z</time>
      </trkpt>
      <trkpt lat="43.62554" lon="0.73329">
        <ele>199.61</ele>
        <time>2021-08-18T16:56:46Z</time>
      </trkpt>
      <trkpt lat="43.62557" lon="0.73327">
        <ele>200.09</ele>
        <time>2021-08-18T16:56:47Z</time>
      </trkpt>
      <trkpt lat="43.6257" lon="0.73323">
        <ele>201.53</ele>
        <time>2021-08-18T16:56:54Z</time>
      </trkpt>
      <trkpt lat="43.62591" lon="0.73322">
        <ele>202.98</ele>
        <time>2021-08-18T16:57:06Z</time>
      </trkpt>
      <trkpt lat="43.62605" lon="0.73321">
        <ele>204.9</ele>
        <time>2021-08-18T16:57:14Z</time>
      </trkpt>
      <trkpt lat="43.62621" lon="0.7332">
        <ele>205.86</ele>
        <time>2021-08-18T16:57:22Z</time>
      </trkpt>
      <trkpt lat="43.62644" lon="0.73318">
        <ele>207.3</ele>
        <time>2021-08-18T16:57:33Z</time>
      </trkpt>
      <trkpt lat="43.62665" lon="0.73317">
        <ele>208.74</ele>
        <time>2021-08-18T16:57:43Z</time>
      </trkpt>
      <trkpt lat="43.62681" lon="0.73311">
        <ele>209.7</ele>
        <time>2021-08-18T16:57:51Z</time>
      </trkpt>
      <trkpt lat="43.62697" lon="0.73294">
        <ele>211.15</ele>
        <time>2021-08-18T16:58:01Z</time>
      </trkpt>
      <trkpt lat="43.62708" lon="0.73272">
        <ele>212.59</ele>
        <time>2021-08-18T16:58:10Z</time>
      </trkpt>
      <trkpt lat="43.62715" lon="0.7325">
        <ele>213.07</ele>
        <time>2021-08-18T16:58:18Z</time>
      </trkpt>
      <trkpt lat="43.62726" lon="0.73218">
        <ele>214.51</ele>
        <time>2021-08-18T16:58:28Z</time>
      </trkpt>
      <trkpt lat="43.6274" lon="0.73174">
        <ele>215.47</ele>
        <time>2021-08-18T16:58:39Z</time>
      </trkpt>
      <trkpt lat="43.62752" lon="0.73138">
        <ele>216.91</ele>
        <time>2021-08-18T16:58:48Z</time>
      </trkpt>
      <trkpt lat="43.62764" lon="0.73102">
        <ele>217.88</ele>
        <time>2021-08-18T16:58:57Z</time>
      </trkpt>
      <trkpt lat="43.62775" lon="0.73068">
        <ele>218.84</ele>
        <time>2021-08-18T16:59:06Z</time>
      </trkpt>
      <trkpt lat="43.62786" lon="0.73037">
        <ele>220.28</ele>
        <time>2021-08-18T16:59:14Z</time>
      </trkpt>
      <trkpt lat="43.62797" lon="0.73006">
        <ele>221.24</ele>
        <time>2021-08-18T16:59:23Z</time>
      </trkpt>
      <trkpt lat="43.62809" lon="0.72967">
        <ele>222.68</ele>
        <time>2021-08-18T16:59:33Z</time>
      </trkpt>
      <trkpt lat="43.62823" lon="0.72926">
        <ele>223.16</ele>
        <time>2021-08-18T16:59:43Z</time>
      </trkpt>
      <trkpt lat="43.6284" lon="0.72875">
        <ele>224.61</ele>
        <time>2021-08-18T16:59:55Z</time>
      </trkpt>
      <trkpt lat="43.62853" lon="0.72834">
        <ele>225.09</ele>
        <time>2021-08-18T17:00:04Z</time>
      </trkpt>
      <trkpt lat="43.62872" lon="0.72779">
        <ele>225.57</ele>
        <time>2021-08-18T17:00:15Z</time>
      </trkpt>
      <trkpt lat="43.62893" lon="0.72739">
        <ele>226.05</ele>
        <time>2021-08-18T17:00:23Z</time>
      </trkpt>
      <trkpt lat="43.62922" lon="0.727">
        <ele>227.01</ele>
        <time>2021-08-18T17:00:33Z</time>
      </trkpt>
      <trkpt lat="43.62944" lon="0.72672">
        <ele>227.97</ele>
        <time>2021-08-18T17:00:41Z</time>
      </trkpt>
      <trkpt lat="43.62969" lon="0.72633">
        <ele>229.41</ele>
        <time>2021-08-18T17:00:51Z</time>
      </trkpt>
      <trkpt lat="43.62989" lon="0.72596">
        <ele>229.89</ele>
        <time>2021-08-18T17:01:00Z</time>
      </trkpt>
      <trkpt lat="43.63009" lon="0.72553">
        <ele>231.33</ele>
        <time>2021-08-18T17:01:10Z</time>
      </trkpt>
      <trkpt lat="43.63024" lon="0.72518">
        <ele>231.81</ele>
        <time>2021-08-18T17:01:18Z</time>
      </trkpt>
      <trkpt lat="43.6304" lon="0.72481">
        <ele>233.74</ele>
        <time>2021-08-18T17:01:27Z</time>
      </trkpt>
      <trkpt lat="43.63057" lon="0.72438">
        <ele>233.74</ele>
        <time>2021-08-18T17:01:37Z</time>
      </trkpt>
      <trkpt lat="43.63073" lon="0.724">
        <ele>234.22</ele>
        <time>2021-08-18T17:01:46Z</time>
      </trkpt>
      <trkpt lat="43.63084" lon="0.72375">
        <ele>234.7</ele>
        <time>2021-08-18T17:01:51Z</time>
      </trkpt>
      <trkpt lat="43.63085" lon="0.7237">
        <ele>234.7</ele>
        <time>2021-08-18T17:01:52Z</time>
      </trkpt>
      <trkpt lat="43.63093" lon="0.72344">
        <ele>235.18</ele>
        <time>2021-08-18T17:01:57Z</time>
      </trkpt>
      <trkpt lat="43.63105" lon="0.72305">
        <ele>235.18</ele>
        <time>2021-08-18T17:02:04Z</time>
      </trkpt>
      <trkpt lat="43.63111" lon="0.72288">
        <ele>235.66</ele>
        <time>2021-08-18T17:02:07Z</time>
      </trkpt>
      <trkpt lat="43.63126" lon="0.72229">
        <ele>236.14</ele>
        <time>2021-08-18T17:02:17Z</time>
      </trkpt>
      <trkpt lat="43.63128" lon="0.72221">
        <ele>236.14</ele>
        <time>2021-08-18T17:02:18Z</time>
      </trkpt>
      <trkpt lat="43.63141" lon="0.72165">
        <ele>237.58</ele>
        <time>2021-08-18T17:02:28Z</time>
      </trkpt>
      <trkpt lat="43.63147" lon="0.72125">
        <ele>239.02</ele>
        <time>2021-08-18T17:02:36Z</time>
      </trkpt>
      <trkpt lat="43.63153" lon="0.72083">
        <ele>239.99</ele>
        <time>2021-08-18T17:02:44Z</time>
      </trkpt>
      <trkpt lat="43.63157" lon="0.72043">
        <ele>240.95</ele>
        <time>2021-08-18T17:02:51Z</time>
      </trkpt>
      <trkpt lat="43.63163" lon="0.72004">
        <ele>241.91</ele>
        <time>2021-08-18T17:02:59Z</time>
      </trkpt>
      <trkpt lat="43.63165" lon="0.71974">
        <ele>243.83</ele>
        <time>2021-08-18T17:03:07Z</time>
      </trkpt>
      <trkpt lat="43.63168" lon="0.71953">
        <ele>245.27</ele>
        <time>2021-08-18T17:03:14Z</time>
      </trkpt>
      <trkpt lat="43.63173" lon="0.71918">
        <ele>246.72</ele>
        <time>2021-08-18T17:03:25Z</time>
      </trkpt>
      <trkpt lat="43.63178" lon="0.71889">
        <ele>248.16</ele>
        <time>2021-08-18T17:03:34Z</time>
      </trkpt>
      <trkpt lat="43.63184" lon="0.7185">
        <ele>249.12</ele>
        <time>2021-08-18T17:03:44Z</time>
      </trkpt>
      <trkpt lat="43.63191" lon="0.71801">
        <ele>249.12</ele>
        <time>2021-08-18T17:03:53Z</time>
      </trkpt>
      <trkpt lat="43.63199" lon="0.71748">
        <ele>249.12</ele>
        <time>2021-08-18T17:04:01Z</time>
      </trkpt>
      <trkpt lat="43.63209" lon="0.71689">
        <ele>249.12</ele>
        <time>2021-08-18T17:04:09Z</time>
      </trkpt>
      <trkpt lat="43.63214" lon="0.71639">
        <ele>247.2</ele>
        <time>2021-08-18T17:04:15Z</time>
      </trkpt>
      <trkpt lat="43.63213" lon="0.71601">
        <ele>246.23</ele>
        <time>2021-08-18T17:04:19Z</time>
      </trkpt>
      <trkpt lat="43.6321" lon="0.71547">
        <ele>242.39</ele>
        <time>2021-08-18T17:04:24Z</time>
      </trkpt>
      <trkpt lat="43.63207" lon="0.71499">
        <ele>239.51</ele>
        <time>2021-08-18T17:04:28Z</time>
      </trkpt>
      <trkpt lat="43.63203" lon="0.71447">
        <ele>237.1</ele>
        <time>2021-08-18T17:04:32Z</time>
      </trkpt>
      <trkpt lat="43.63203" lon="0.71375">
        <ele>237.1</ele>
        <time>2021-08-18T17:04:38Z</time>
      </trkpt>
      <trkpt lat="43.6321" lon="0.71312">
        <ele>238.54</ele>
        <time>2021-08-18T17:04:45Z</time>
      </trkpt>
      <trkpt lat="43.6321" lon="0.71304">
        <ele>238.54</ele>
        <time>2021-08-18T17:04:46Z</time>
      </trkpt>
      <trkpt lat="43.63212" lon="0.71273">
        <ele>239.51</ele>
        <time>2021-08-18T17:04:50Z</time>
      </trkpt>
      <trkpt lat="43.63209" lon="0.71212">
        <ele>240.95</ele>
        <time>2021-08-18T17:04:58Z</time>
      </trkpt>
      <trkpt lat="43.63199" lon="0.71155">
        <ele>242.39</ele>
        <time>2021-08-18T17:05:07Z</time>
      </trkpt>
      <trkpt lat="43.63187" lon="0.71118">
        <ele>243.83</ele>
        <time>2021-08-18T17:05:15Z</time>
      </trkpt>
      <trkpt lat="43.63175" lon="0.71082">
        <ele>244.31</ele>
        <time>2021-08-18T17:05:23Z</time>
      </trkpt>
      <trkpt lat="43.63172" lon="0.7107">
        <ele>244.31</ele>
        <time>2021-08-18T17:05:25Z</time>
      </trkpt>
      <trkpt lat="43.63171" lon="0.71046">
        <ele>242.39</ele>
        <time>2021-08-18T17:05:28Z</time>
      </trkpt>
      <trkpt lat="43.63171" lon="0.71038">
        <ele>242.39</ele>
        <time>2021-08-18T17:05:29Z</time>
      </trkpt>
      <trkpt lat="43.63171" lon="0.71029">
        <ele>240.95</ele>
        <time>2021-08-18T17:05:30Z</time>
      </trkpt>
      <trkpt lat="43.63173" lon="0.71011">
        <ele>239.99</ele>
        <time>2021-08-18T17:05:32Z</time>
      </trkpt>
      <trkpt lat="43.63179" lon="0.70958">
        <ele>237.1</ele>
        <time>2021-08-18T17:05:37Z</time>
      </trkpt>
      <trkpt lat="43.63184" lon="0.70894">
        <ele>233.26</ele>
        <time>2021-08-18T17:05:42Z</time>
      </trkpt>
      <trkpt lat="43.632" lon="0.70804">
        <ele>231.33</ele>
        <time>2021-08-18T17:05:49Z</time>
      </trkpt>
      <trkpt lat="43.63215" lon="0.7072">
        <ele>230.37</ele>
        <time>2021-08-18T17:05:56Z</time>
      </trkpt>
      <trkpt lat="43.63237" lon="0.706">
        <ele>227.01</ele>
        <time>2021-08-18T17:06:06Z</time>
      </trkpt>
      <trkpt lat="43.63251" lon="0.70523">
        <ele>223.16</ele>
        <time>2021-08-18T17:06:12Z</time>
      </trkpt>
      <trkpt lat="43.63253" lon="0.70509">
        <ele>223.16</ele>
        <time>2021-08-18T17:06:13Z</time>
      </trkpt>
      <trkpt lat="43.63266" lon="0.70439">
        <ele>219.8</ele>
        <time>2021-08-18T17:06:18Z</time>
      </trkpt>
      <trkpt lat="43.63284" lon="0.70334">
        <ele>220.28</ele>
        <time>2021-08-18T17:06:26Z</time>
      </trkpt>
      <trkpt lat="43.63302" lon="0.7022">
        <ele>218.36</ele>
        <time>2021-08-18T17:06:36Z</time>
      </trkpt>
      <trkpt lat="43.6332" lon="0.70124">
        <ele>215.47</ele>
        <time>2021-08-18T17:06:44Z</time>
      </trkpt>
      <trkpt lat="43.6333" lon="0.7006">
        <ele>212.11</ele>
        <time>2021-08-18T17:06:49Z</time>
      </trkpt>
      <trkpt lat="43.63332" lon="0.70047">
        <ele>212.11</ele>
        <time>2021-08-18T17:06:50Z</time>
      </trkpt>
      <trkpt lat="43.63342" lon="0.69992">
        <ele>207.78</ele>
        <time>2021-08-18T17:06:54Z</time>
      </trkpt>
      <trkpt lat="43.63346" lon="0.69964">
        <ele>206.82</ele>
        <time>2021-08-18T17:06:56Z</time>
      </trkpt>
      <trkpt lat="43.63361" lon="0.69895">
        <ele>203.46</ele>
        <time>2021-08-18T17:07:01Z</time>
      </trkpt>
      <trkpt lat="43.63382" lon="0.69841">
        <ele>200.09</ele>
        <time>2021-08-18T17:07:05Z</time>
      </trkpt>
      <trkpt lat="43.63394" lon="0.69814">
        <ele>199.61</ele>
        <time>2021-08-18T17:07:07Z</time>
      </trkpt>
      <trkpt lat="43.63411" lon="0.69773">
        <ele>196.25</ele>
        <time>2021-08-18T17:07:10Z</time>
      </trkpt>
      <trkpt lat="43.63423" lon="0.69745">
        <ele>195.28</ele>
        <time>2021-08-18T17:07:12Z</time>
      </trkpt>
      <trkpt lat="43.63442" lon="0.69705">
        <ele>193.36</ele>
        <time>2021-08-18T17:07:15Z</time>
      </trkpt>
      <trkpt lat="43.63458" lon="0.69662">
        <ele>189.52</ele>
        <time>2021-08-18T17:07:18Z</time>
      </trkpt>
      <trkpt lat="43.63462" lon="0.69645">
        <ele>188.56</ele>
        <time>2021-08-18T17:07:19Z</time>
      </trkpt>
      <trkpt lat="43.63465" lon="0.69629">
        <ele>187.59</ele>
        <time>2021-08-18T17:07:20Z</time>
      </trkpt>
      <trkpt lat="43.63468" lon="0.69596">
        <ele>187.11</ele>
        <time>2021-08-18T17:07:22Z</time>
      </trkpt>
      <trkpt lat="43.63471" lon="0.69562">
        <ele>185.19</ele>
        <time>2021-08-18T17:07:24Z</time>
      </trkpt>
      <trkpt lat="43.63477" lon="0.6947">
        <ele>188.56</ele>
        <time>2021-08-18T17:07:30Z</time>
      </trkpt>
      <trkpt lat="43.63477" lon="0.69458">
        <ele>188.56</ele>
        <time>2021-08-18T17:07:31Z</time>
      </trkpt>
      <trkpt lat="43.63479" lon="0.69415">
        <ele>191.92</ele>
        <time>2021-08-18T17:07:35Z</time>
      </trkpt>
      <trkpt lat="43.63482" lon="0.69391">
        <ele>193.36</ele>
        <time>2021-08-18T17:07:38Z</time>
      </trkpt>
      <trkpt lat="43.63482" lon="0.69384">
        <ele>193.36</ele>
        <time>2021-08-18T17:07:39Z</time>
      </trkpt>
      <trkpt lat="43.63483" lon="0.69377">
        <ele>193.36</ele>
        <time>2021-08-18T17:07:40Z</time>
      </trkpt>
      <trkpt lat="43.63483" lon="0.69372">
        <ele>194.32</ele>
        <time>2021-08-18T17:07:41Z</time>
      </trkpt>
      <trkpt lat="43.63484" lon="0.69366">
        <ele>194.32</ele>
        <time>2021-08-18T17:07:42Z</time>
      </trkpt>
      <trkpt lat="43.63486" lon="0.69332">
        <ele>195.77</ele>
        <time>2021-08-18T17:07:49Z</time>
      </trkpt>
      <trkpt lat="43.63489" lon="0.69289">
        <ele>196.25</ele>
        <time>2021-08-18T17:07:58Z</time>
      </trkpt>
      <trkpt lat="43.63491" lon="0.69261">
        <ele>197.21</ele>
        <time>2021-08-18T17:08:04Z</time>
      </trkpt>
      <trkpt lat="43.63498" lon="0.69224">
        <ele>197.69</ele>
        <time>2021-08-18T17:08:12Z</time>
      </trkpt>
      <trkpt lat="43.63508" lon="0.69187">
        <ele>197.69</ele>
        <time>2021-08-18T17:08:20Z</time>
      </trkpt>
      <trkpt lat="43.63525" lon="0.6914">
        <ele>197.69</ele>
        <time>2021-08-18T17:08:30Z</time>
      </trkpt>
      <trkpt lat="43.63544" lon="0.69088">
        <ele>196.73</ele>
        <time>2021-08-18T17:08:40Z</time>
      </trkpt>
      <trkpt lat="43.63558" lon="0.6905">
        <ele>195.77</ele>
        <time>2021-08-18T17:08:48Z</time>
      </trkpt>
      <trkpt lat="43.63568" lon="0.69021">
        <ele>195.77</ele>
        <time>2021-08-18T17:08:55Z</time>
      </trkpt>
      <trkpt lat="43.63567" lon="0.69013">
        <ele>195.77</ele>
        <time>2021-08-18T17:08:57Z</time>
      </trkpt>
      <trkpt lat="43.63565" lon="0.69012">
        <ele>197.21</ele>
        <time>2021-08-18T17:08:58Z</time>
      </trkpt>
      <trkpt lat="43.63563" lon="0.69011">
        <ele>197.21</ele>
        <time>2021-08-18T17:08:59Z</time>
      </trkpt>
      <trkpt lat="43.6356" lon="0.69011">
        <ele>197.21</ele>
        <time>2021-08-18T17:09:00Z</time>
      </trkpt>
      <trkpt lat="43.63558" lon="0.69009">
        <ele>197.21</ele>
        <time>2021-08-18T17:09:01Z</time>
      </trkpt>
      <trkpt lat="43.63556" lon="0.69008">
        <ele>197.21</ele>
        <time>2021-08-18T17:09:02Z</time>
      </trkpt>
      <trkpt lat="43.63537" lon="0.69002">
        <ele>198.17</ele>
        <time>2021-08-18T17:09:09Z</time>
      </trkpt>
      <trkpt lat="43.63511" lon="0.68995">
        <ele>200.57</ele>
        <time>2021-08-18T17:09:19Z</time>
      </trkpt>
      <trkpt lat="43.63486" lon="0.68988">
        <ele>202.01</ele>
        <time>2021-08-18T17:09:30Z</time>
      </trkpt>
      <trkpt lat="43.63468" lon="0.68983">
        <ele>202.49</ele>
        <time>2021-08-18T17:09:38Z</time>
      </trkpt>
      <trkpt lat="43.63448" lon="0.68977">
        <ele>203.94</ele>
        <time>2021-08-18T17:09:47Z</time>
      </trkpt>
      <trkpt lat="43.63428" lon="0.6897">
        <ele>206.34</ele>
        <time>2021-08-18T17:09:58Z</time>
      </trkpt>
      <trkpt lat="43.6341" lon="0.68965">
        <ele>207.78</ele>
        <time>2021-08-18T17:10:07Z</time>
      </trkpt>
      <trkpt lat="43.63396" lon="0.68961">
        <ele>208.74</ele>
        <time>2021-08-18T17:10:15Z</time>
      </trkpt>
      <trkpt lat="43.63376" lon="0.68956">
        <ele>211.15</ele>
        <time>2021-08-18T17:10:26Z</time>
      </trkpt>
      <trkpt lat="43.63361" lon="0.68952">
        <ele>212.59</ele>
        <time>2021-08-18T17:10:34Z</time>
      </trkpt>
      <trkpt lat="43.63342" lon="0.68949">
        <ele>214.51</ele>
        <time>2021-08-18T17:10:43Z</time>
      </trkpt>
      <trkpt lat="43.63326" lon="0.68945">
        <ele>214.99</ele>
        <time>2021-08-18T17:10:51Z</time>
      </trkpt>
      <trkpt lat="43.63313" lon="0.68941">
        <ele>215.95</ele>
        <time>2021-08-18T17:10:58Z</time>
      </trkpt>
      <trkpt lat="43.633" lon="0.68937">
        <ele>217.4</ele>
        <time>2021-08-18T17:11:04Z</time>
      </trkpt>
      <trkpt lat="43.63276" lon="0.68932">
        <ele>218.84</ele>
        <time>2021-08-18T17:11:15Z</time>
      </trkpt>
      <trkpt lat="43.63259" lon="0.68926">
        <ele>219.8</ele>
        <time>2021-08-18T17:11:22Z</time>
      </trkpt>
      <trkpt lat="43.63234" lon="0.6892">
        <ele>220.28</ele>
        <time>2021-08-18T17:11:31Z</time>
      </trkpt>
      <trkpt lat="43.63213" lon="0.68914">
        <ele>220.76</ele>
        <time>2021-08-18T17:11:38Z</time>
      </trkpt>
      <trkpt lat="43.63192" lon="0.68912">
        <ele>221.24</ele>
        <time>2021-08-18T17:11:45Z</time>
      </trkpt>
      <trkpt lat="43.63178" lon="0.68908">
        <ele>221.72</ele>
        <time>2021-08-18T17:11:50Z</time>
      </trkpt>
      <trkpt lat="43.63176" lon="0.68905">
        <ele>221.72</ele>
        <time>2021-08-18T17:11:51Z</time>
      </trkpt>
      <trkpt lat="43.63175" lon="0.68904">
        <ele>221.72</ele>
        <time>2021-08-18T17:11:52Z</time>
      </trkpt>
      <trkpt lat="43.63173" lon="0.68901">
        <ele>221.72</ele>
        <time>2021-08-18T17:11:53Z</time>
      </trkpt>
      <trkpt lat="43.63171" lon="0.68899">
        <ele>221.72</ele>
        <time>2021-08-18T17:11:54Z</time>
      </trkpt>
      <trkpt lat="43.6317" lon="0.68898">
        <ele>222.68</ele>
        <time>2021-08-18T17:11:55Z</time>
      </trkpt>
      <trkpt lat="43.63169" lon="0.68896">
        <ele>222.68</ele>
        <time>2021-08-18T17:11:56Z</time>
      </trkpt>
      <trkpt lat="43.6317" lon="0.68893">
        <ele>222.68</ele>
        <time>2021-08-18T17:11:57Z</time>
      </trkpt>
      <trkpt lat="43.6317" lon="0.68891">
        <ele>222.68</ele>
        <time>2021-08-18T17:11:58Z</time>
      </trkpt>
      <trkpt lat="43.63171" lon="0.6889">
        <ele>222.68</ele>
        <time>2021-08-18T17:12:04Z</time>
      </trkpt>
      <trkpt lat="43.63171" lon="0.68888">
        <ele>222.68</ele>
        <time>2021-08-18T17:12:17Z</time>
      </trkpt>
      <trkpt lat="43.63172" lon="0.68889">
        <ele>222.68</ele>
        <time>2021-08-18T17:12:23Z</time>
      </trkpt>
      <trkpt lat="43.63171" lon="0.6889">
        <ele>222.68</ele>
        <time>2021-08-18T17:12:33Z</time>
      </trkpt>
      <trkpt lat="43.63172" lon="0.68884">
        <ele>222.68</ele>
        <time>2021-08-18T17:12:41Z</time>
      </trkpt>
      <trkpt lat="43.63173" lon="0.68883">
        <ele>222.68</ele>
        <time>2021-08-18T17:12:43Z</time>
      </trkpt>
      <trkpt lat="43.63174" lon="0.68881">
        <ele>222.68</ele>
        <time>2021-08-18T17:12:44Z</time>
      </trkpt>
      <trkpt lat="43.6318" lon="0.68871">
        <ele>221.24</ele>
        <time>2021-08-18T17:12:48Z</time>
      </trkpt>
      <trkpt lat="43.63198" lon="0.68842">
        <ele>219.8</ele>
        <time>2021-08-18T17:12:55Z</time>
      </trkpt>
      <trkpt lat="43.63223" lon="0.68795">
        <ele>217.4</ele>
        <time>2021-08-18T17:13:03Z</time>
      </trkpt>
      <trkpt lat="43.63253" lon="0.68737">
        <ele>215.95</ele>
        <time>2021-08-18T17:13:12Z</time>
      </trkpt>
      <trkpt lat="43.63286" lon="0.68682">
        <ele>214.51</ele>
        <time>2021-08-18T17:13:21Z</time>
      </trkpt>
      <trkpt lat="43.63297" lon="0.68663">
        <ele>213.55</ele>
        <time>2021-08-18T17:13:24Z</time>
      </trkpt>
      <trkpt lat="43.63316" lon="0.68613">
        <ele>213.07</ele>
        <time>2021-08-18T17:13:31Z</time>
      </trkpt>
      <trkpt lat="43.63333" lon="0.68549">
        <ele>212.59</ele>
        <time>2021-08-18T17:13:40Z</time>
      </trkpt>
      <trkpt lat="43.63335" lon="0.68542">
        <ele>212.59</ele>
        <time>2021-08-18T17:13:41Z</time>
      </trkpt>
      <trkpt lat="43.63336" lon="0.68536">
        <ele>212.59</ele>
        <time>2021-08-18T17:13:42Z</time>
      </trkpt>
      <trkpt lat="43.63349" lon="0.6849">
        <ele>213.55</ele>
        <time>2021-08-18T17:13:50Z</time>
      </trkpt>
      <trkpt lat="43.63352" lon="0.6848">
        <ele>213.55</ele>
        <time>2021-08-18T17:13:54Z</time>
      </trkpt>
      <trkpt lat="43.63353" lon="0.68478">
        <ele>213.55</ele>
        <time>2021-08-18T17:13:55Z</time>
      </trkpt>
      <trkpt lat="43.63354" lon="0.68477">
        <ele>213.55</ele>
        <time>2021-08-18T17:13:56Z</time>
      </trkpt>
      <trkpt lat="43.63355" lon="0.68477">
        <ele>214.03</ele>
        <time>2021-08-18T17:13:57Z</time>
      </trkpt>
      <trkpt lat="43.63357" lon="0.68485">
        <ele>214.03</ele>
        <time>2021-08-18T17:14:01Z</time>
      </trkpt>
      <trkpt lat="43.63355" lon="0.68487">
        <ele>214.03</ele>
        <time>2021-08-18T17:14:02Z</time>
      </trkpt>
      <trkpt lat="43.63349" lon="0.68492">
        <ele>214.03</ele>
        <time>2021-08-18T17:14:06Z</time>
      </trkpt>
      <trkpt lat="43.63347" lon="0.68495">
        <ele>214.03</ele>
        <time>2021-08-18T17:14:07Z</time>
      </trkpt>
      <trkpt lat="43.63346" lon="0.68498">
        <ele>214.03</ele>
        <time>2021-08-18T17:14:08Z</time>
      </trkpt>
      <trkpt lat="43.63345" lon="0.68502">
        <ele>214.03</ele>
        <time>2021-08-18T17:14:09Z</time>
      </trkpt>
      <trkpt lat="43.63344" lon="0.68506">
        <ele>214.03</ele>
        <time>2021-08-18T17:14:10Z</time>
      </trkpt>
      <trkpt lat="43.63336" lon="0.6854">
        <ele>214.03</ele>
        <time>2021-08-18T17:14:19Z</time>
      </trkpt>
      <trkpt lat="43.63332" lon="0.68559">
        <ele>214.03</ele>
        <time>2021-08-18T17:14:24Z</time>
      </trkpt>
      <trkpt lat="43.63333" lon="0.68567">
        <ele>214.03</ele>
        <time>2021-08-18T17:14:27Z</time>
      </trkpt>
      <trkpt lat="43.63334" lon="0.68568">
        <ele>214.03</ele>
        <time>2021-08-18T17:14:28Z</time>
      </trkpt>
      <trkpt lat="43.63335" lon="0.68569">
        <ele>213.07</ele>
        <time>2021-08-18T17:14:29Z</time>
      </trkpt>
      <trkpt lat="43.63337" lon="0.68569">
        <ele>213.07</ele>
        <time>2021-08-18T17:14:30Z</time>
      </trkpt>
      <trkpt lat="43.63339" lon="0.68569">
        <ele>213.07</ele>
        <time>2021-08-18T17:14:31Z</time>
      </trkpt>
      <trkpt lat="43.6335" lon="0.68568">
        <ele>211.63</ele>
        <time>2021-08-18T17:14:37Z</time>
      </trkpt>
      <trkpt lat="43.63351" lon="0.68569">
        <ele>211.63</ele>
        <time>2021-08-18T17:14:43Z</time>
      </trkpt>
      <trkpt lat="43.63353" lon="0.68569">
        <ele>211.15</ele>
        <time>2021-08-18T17:14:47Z</time>
      </trkpt>
      <trkpt lat="43.63355" lon="0.68569">
        <ele>211.15</ele>
        <time>2021-08-18T17:14:48Z</time>
      </trkpt>
      <trkpt lat="43.63357" lon="0.68569">
        <ele>211.15</ele>
        <time>2021-08-18T17:14:49Z</time>
      </trkpt>
      <trkpt lat="43.6338" lon="0.68563">
        <ele>210.19</ele>
        <time>2021-08-18T17:14:57Z</time>
      </trkpt>
      <trkpt lat="43.63409" lon="0.68557">
        <ele>209.22</ele>
        <time>2021-08-18T17:15:05Z</time>
      </trkpt>
      <trkpt lat="43.63424" lon="0.68557">
        <ele>208.26</ele>
        <time>2021-08-18T17:15:09Z</time>
      </trkpt>
      <trkpt lat="43.63428" lon="0.68556">
        <ele>208.26</ele>
        <time>2021-08-18T17:15:10Z</time>
      </trkpt>
      <trkpt lat="43.63453" lon="0.68548">
        <ele>206.34</ele>
        <time>2021-08-18T17:15:17Z</time>
      </trkpt>
      <trkpt lat="43.63458" lon="0.68548">
        <ele>205.38</ele>
        <time>2021-08-18T17:15:18Z</time>
      </trkpt>
      <trkpt lat="43.63463" lon="0.68549">
        <ele>204.9</ele>
        <time>2021-08-18T17:15:19Z</time>
      </trkpt>
      <trkpt lat="43.63469" lon="0.6855">
        <ele>204.42</ele>
        <time>2021-08-18T17:15:20Z</time>
      </trkpt>
      <trkpt lat="43.63475" lon="0.6855">
        <ele>203.94</ele>
        <time>2021-08-18T17:15:21Z</time>
      </trkpt>
      <trkpt lat="43.6348" lon="0.68549">
        <ele>203.94</ele>
        <time>2021-08-18T17:15:22Z</time>
      </trkpt>
      <trkpt lat="43.63516" lon="0.68547">
        <ele>202.49</ele>
        <time>2021-08-18T17:15:28Z</time>
      </trkpt>
      <trkpt lat="43.63557" lon="0.6854">
        <ele>201.05</ele>
        <time>2021-08-18T17:15:35Z</time>
      </trkpt>
      <trkpt lat="43.63594" lon="0.68524">
        <ele>199.13</ele>
        <time>2021-08-18T17:15:42Z</time>
      </trkpt>
      <trkpt lat="43.63632" lon="0.68504">
        <ele>197.69</ele>
        <time>2021-08-18T17:15:50Z</time>
      </trkpt>
      <trkpt lat="43.63661" lon="0.68483">
        <ele>197.69</ele>
        <time>2021-08-18T17:15:57Z</time>
      </trkpt>
      <trkpt lat="43.63668" lon="0.68476">
        <ele>197.69</ele>
        <time>2021-08-18T17:15:59Z</time>
      </trkpt>
      <trkpt lat="43.63671" lon="0.68473">
        <ele>197.69</ele>
        <time>2021-08-18T17:16:00Z</time>
      </trkpt>
      <trkpt lat="43.63673" lon="0.68469">
        <ele>197.21</ele>
        <time>2021-08-18T17:16:01Z</time>
      </trkpt>
      <trkpt lat="43.63675" lon="0.68466">
        <ele>197.21</ele>
        <time>2021-08-18T17:16:02Z</time>
      </trkpt>
      <trkpt lat="43.63676" lon="0.68463">
        <ele>197.21</ele>
        <time>2021-08-18T17:16:03Z</time>
      </trkpt>
      <trkpt lat="43.63677" lon="0.68462">
        <ele>197.21</ele>
        <time>2021-08-18T17:16:04Z</time>
      </trkpt>
      <trkpt lat="43.63679" lon="0.68459">
        <ele>197.21</ele>
        <time>2021-08-18T17:16:05Z</time>
      </trkpt>
      <trkpt lat="43.6368" lon="0.68455">
        <ele>197.21</ele>
        <time>2021-08-18T17:16:06Z</time>
      </trkpt>
      <trkpt lat="43.63688" lon="0.68436">
        <ele>198.17</ele>
        <time>2021-08-18T17:16:11Z</time>
      </trkpt>
      <trkpt lat="43.6369" lon="0.68431">
        <ele>198.17</ele>
        <time>2021-08-18T17:16:12Z</time>
      </trkpt>
      <trkpt lat="43.63692" lon="0.68426">
        <ele>199.13</ele>
        <time>2021-08-18T17:16:13Z</time>
      </trkpt>
      <trkpt lat="43.63702" lon="0.68399">
        <ele>201.05</ele>
        <time>2021-08-18T17:16:20Z</time>
      </trkpt>
      <trkpt lat="43.6371" lon="0.68377">
        <ele>202.01</ele>
        <time>2021-08-18T17:16:28Z</time>
      </trkpt>
      <trkpt lat="43.63717" lon="0.68359">
        <ele>203.46</ele>
        <time>2021-08-18T17:16:35Z</time>
      </trkpt>
      <trkpt lat="43.63724" lon="0.68339">
        <ele>204.42</ele>
        <time>2021-08-18T17:16:42Z</time>
      </trkpt>
      <trkpt lat="43.63732" lon="0.68314">
        <ele>206.82</ele>
        <time>2021-08-18T17:16:52Z</time>
      </trkpt>
      <trkpt lat="43.63735" lon="0.68291">
        <ele>208.74</ele>
        <time>2021-08-18T17:17:01Z</time>
      </trkpt>
      <trkpt lat="43.63735" lon="0.68284">
        <ele>208.74</ele>
        <time>2021-08-18T17:17:04Z</time>
      </trkpt>
      <trkpt lat="43.63744" lon="0.68269">
        <ele>209.22</ele>
        <time>2021-08-18T17:17:11Z</time>
      </trkpt>
      <trkpt lat="43.63757" lon="0.68259">
        <ele>209.22</ele>
        <time>2021-08-18T17:17:16Z</time>
      </trkpt>
      <trkpt lat="43.63781" lon="0.68235">
        <ele>209.22</ele>
        <time>2021-08-18T17:17:23Z</time>
      </trkpt>
      <trkpt lat="43.63806" lon="0.68209">
        <ele>209.7</ele>
        <time>2021-08-18T17:17:31Z</time>
      </trkpt>
      <trkpt lat="43.63838" lon="0.68173">
        <ele>209.7</ele>
        <time>2021-08-18T17:17:40Z</time>
      </trkpt>
      <trkpt lat="43.63866" lon="0.68133">
        <ele>209.7</ele>
        <time>2021-08-18T17:17:48Z</time>
      </trkpt>
      <trkpt lat="43.63891" lon="0.68097">
        <ele>210.19</ele>
        <time>2021-08-18T17:17:55Z</time>
      </trkpt>
      <trkpt lat="43.63913" lon="0.68063">
        <ele>208.74</ele>
        <time>2021-08-18T17:18:01Z</time>
      </trkpt>
      <trkpt lat="43.63916" lon="0.68056">
        <ele>208.74</ele>
        <time>2021-08-18T17:18:02Z</time>
      </trkpt>
      <trkpt lat="43.63945" lon="0.67992">
        <ele>206.34</ele>
        <time>2021-08-18T17:18:11Z</time>
      </trkpt>
      <trkpt lat="43.63949" lon="0.67985">
        <ele>205.86</ele>
        <time>2021-08-18T17:18:12Z</time>
      </trkpt>
      <trkpt lat="43.63954" lon="0.67978">
        <ele>205.86</ele>
        <time>2021-08-18T17:18:13Z</time>
      </trkpt>
      <trkpt lat="43.63972" lon="0.67947">
        <ele>203.46</ele>
        <time>2021-08-18T17:18:17Z</time>
      </trkpt>
      <trkpt lat="43.63981" lon="0.67931">
        <ele>202.01</ele>
        <time>2021-08-18T17:18:19Z</time>
      </trkpt>
      <trkpt lat="43.64006" lon="0.67886">
        <ele>201.53</ele>
        <time>2021-08-18T17:18:25Z</time>
      </trkpt>
      <trkpt lat="43.64034" lon="0.67822">
        <ele>199.13</ele>
        <time>2021-08-18T17:18:33Z</time>
      </trkpt>
      <trkpt lat="43.64051" lon="0.67771">
        <ele>195.28</ele>
        <time>2021-08-18T17:18:38Z</time>
      </trkpt>
      <trkpt lat="43.64053" lon="0.6776">
        <ele>195.28</ele>
        <time>2021-08-18T17:18:39Z</time>
      </trkpt>
      <trkpt lat="43.64065" lon="0.67717">
        <ele>190.96</ele>
        <time>2021-08-18T17:18:43Z</time>
      </trkpt>
      <trkpt lat="43.64068" lon="0.67705">
        <ele>190.96</ele>
        <time>2021-08-18T17:18:44Z</time>
      </trkpt>
      <trkpt lat="43.64076" lon="0.6767">
        <ele>187.59</ele>
        <time>2021-08-18T17:18:47Z</time>
      </trkpt>
      <trkpt lat="43.64079" lon="0.67661">
        <ele>187.59</ele>
        <time>2021-08-18T17:18:48Z</time>
      </trkpt>
      <trkpt lat="43.64082" lon="0.67652">
        <ele>187.59</ele>
        <time>2021-08-18T17:18:49Z</time>
      </trkpt>
      <trkpt lat="43.64085" lon="0.67645">
        <ele>186.63</ele>
        <time>2021-08-18T17:18:50Z</time>
      </trkpt>
      <trkpt lat="43.64094" lon="0.6763">
        <ele>184.71</ele>
        <time>2021-08-18T17:18:52Z</time>
      </trkpt>
      <trkpt lat="43.641" lon="0.67623">
        <ele>183.75</ele>
        <time>2021-08-18T17:18:53Z</time>
      </trkpt>
      <trkpt lat="43.64105" lon="0.67616">
        <ele>183.27</ele>
        <time>2021-08-18T17:18:54Z</time>
      </trkpt>
      <trkpt lat="43.6411" lon="0.67607">
        <ele>182.31</ele>
        <time>2021-08-18T17:18:55Z</time>
      </trkpt>
      <trkpt lat="43.64113" lon="0.67598">
        <ele>181.83</ele>
        <time>2021-08-18T17:18:56Z</time>
      </trkpt>
      <trkpt lat="43.64116" lon="0.67587">
        <ele>180.87</ele>
        <time>2021-08-18T17:18:57Z</time>
      </trkpt>
      <trkpt lat="43.6413" lon="0.6754">
        <ele>178.46</ele>
        <time>2021-08-18T17:19:02Z</time>
      </trkpt>
      <trkpt lat="43.64147" lon="0.675">
        <ele>174.62</ele>
        <time>2021-08-18T17:19:07Z</time>
      </trkpt>
      <trkpt lat="43.64157" lon="0.67483">
        <ele>171.73</ele>
        <time>2021-08-18T17:19:09Z</time>
      </trkpt>
      <trkpt lat="43.6417" lon="0.67465">
        <ele>169.33</ele>
        <time>2021-08-18T17:19:11Z</time>
      </trkpt>
      <trkpt lat="43.64176" lon="0.67453">
        <ele>168.37</ele>
        <time>2021-08-18T17:19:12Z</time>
      </trkpt>
      <trkpt lat="43.6418" lon="0.67442">
        <ele>167.41</ele>
        <time>2021-08-18T17:19:13Z</time>
      </trkpt>
      <trkpt lat="43.64186" lon="0.67421">
        <ele>166.45</ele>
        <time>2021-08-18T17:19:15Z</time>
      </trkpt>
      <trkpt lat="43.64189" lon="0.67406">
        <ele>167.41</ele>
        <time>2021-08-18T17:19:18Z</time>
      </trkpt>
      <trkpt lat="43.64192" lon="0.67395">
        <ele>165.96</ele>
        <time>2021-08-18T17:19:22Z</time>
      </trkpt>
      <trkpt lat="43.64193" lon="0.67393">
        <ele>165.48</ele>
        <time>2021-08-18T17:19:23Z</time>
      </trkpt>
      <trkpt lat="43.64193" lon="0.6739">
        <ele>167.41</ele>
        <time>2021-08-18T17:19:27Z</time>
      </trkpt>
      <trkpt lat="43.64194" lon="0.67383">
        <ele>167.89</ele>
        <time>2021-08-18T17:19:34Z</time>
      </trkpt>
      <trkpt lat="43.64195" lon="0.67372">
        <ele>167.89</ele>
        <time>2021-08-18T17:19:41Z</time>
      </trkpt>
      <trkpt lat="43.64195" lon="0.6737">
        <ele>167.89</ele>
        <time>2021-08-18T17:19:42Z</time>
      </trkpt>
      <trkpt lat="43.64197" lon="0.67345">
        <ele>168.37</ele>
        <time>2021-08-18T17:19:50Z</time>
      </trkpt>
      <trkpt lat="43.64199" lon="0.67318">
        <ele>168.85</ele>
        <time>2021-08-18T17:19:56Z</time>
      </trkpt>
      <trkpt lat="43.642" lon="0.67294">
        <ele>170.29</ele>
        <time>2021-08-18T17:20:04Z</time>
      </trkpt>
      <trkpt lat="43.64202" lon="0.67282">
        <ele>172.21</ele>
        <time>2021-08-18T17:20:12Z</time>
      </trkpt>
      <trkpt lat="43.64204" lon="0.67268">
        <ele>173.66</ele>
        <time>2021-08-18T17:20:22Z</time>
      </trkpt>
      <trkpt lat="43.64207" lon="0.67255">
        <ele>175.58</ele>
        <time>2021-08-18T17:20:31Z</time>
      </trkpt>
      <trkpt lat="43.64207" lon="0.67241">
        <ele>176.06</ele>
        <time>2021-08-18T17:20:41Z</time>
      </trkpt>
      <trkpt lat="43.64207" lon="0.67237">
        <ele>176.54</ele>
        <time>2021-08-18T17:20:47Z</time>
      </trkpt>
      <trkpt lat="43.64208" lon="0.6722">
        <ele>176.54</ele>
        <time>2021-08-18T17:20:54Z</time>
      </trkpt>
      <trkpt lat="43.6421" lon="0.67193">
        <ele>177.5</ele>
        <time>2021-08-18T17:21:02Z</time>
      </trkpt>
      <trkpt lat="43.64211" lon="0.67168">
        <ele>179.42</ele>
        <time>2021-08-18T17:21:10Z</time>
      </trkpt>
      <trkpt lat="43.64215" lon="0.67148">
        <ele>179.42</ele>
        <time>2021-08-18T17:21:17Z</time>
      </trkpt>
      <trkpt lat="43.64217" lon="0.67112">
        <ele>180.87</ele>
        <time>2021-08-18T17:21:27Z</time>
      </trkpt>
      <trkpt lat="43.64219" lon="0.67076">
        <ele>182.79</ele>
        <time>2021-08-18T17:21:38Z</time>
      </trkpt>
      <trkpt lat="43.64222" lon="0.67047">
        <ele>182.79</ele>
        <time>2021-08-18T17:21:47Z</time>
      </trkpt>
      <trkpt lat="43.64232" lon="0.67018">
        <ele>183.27</ele>
        <time>2021-08-18T17:21:55Z</time>
      </trkpt>
      <trkpt lat="43.64244" lon="0.66982">
        <ele>183.75</ele>
        <time>2021-08-18T17:22:03Z</time>
      </trkpt>
      <trkpt lat="43.64242" lon="0.66968">
        <ele>185.67</ele>
        <time>2021-08-18T17:22:09Z</time>
      </trkpt>
      <trkpt lat="43.64242" lon="0.66942">
        <ele>185.19</ele>
        <time>2021-08-18T17:22:16Z</time>
      </trkpt>
      <trkpt lat="43.64235" lon="0.66903">
        <ele>186.63</ele>
        <time>2021-08-18T17:22:27Z</time>
      </trkpt>
      <trkpt lat="43.64228" lon="0.66872">
        <ele>188.08</ele>
        <time>2021-08-18T17:22:37Z</time>
      </trkpt>
      <trkpt lat="43.64223" lon="0.66849">
        <ele>189.52</ele>
        <time>2021-08-18T17:22:47Z</time>
      </trkpt>
      <trkpt lat="43.64217" lon="0.66824">
        <ele>191.44</ele>
        <time>2021-08-18T17:22:58Z</time>
      </trkpt>
      <trkpt lat="43.64212" lon="0.66801">
        <ele>191.92</ele>
        <time>2021-08-18T17:23:08Z</time>
      </trkpt>
      <trkpt lat="43.64207" lon="0.66782">
        <ele>193.84</ele>
        <time>2021-08-18T17:23:16Z</time>
      </trkpt>
      <trkpt lat="43.64201" lon="0.66759">
        <ele>194.8</ele>
        <time>2021-08-18T17:23:25Z</time>
      </trkpt>
      <trkpt lat="43.642" lon="0.66736">
        <ele>195.77</ele>
        <time>2021-08-18T17:23:34Z</time>
      </trkpt>
      <trkpt lat="43.64198" lon="0.6671">
        <ele>196.73</ele>
        <time>2021-08-18T17:23:44Z</time>
      </trkpt>
      <trkpt lat="43.64196" lon="0.66681">
        <ele>197.21</ele>
        <time>2021-08-18T17:23:54Z</time>
      </trkpt>
      <trkpt lat="43.64194" lon="0.66657">
        <ele>198.65</ele>
        <time>2021-08-18T17:24:03Z</time>
      </trkpt>
      <trkpt lat="43.64192" lon="0.6663">
        <ele>200.09</ele>
        <time>2021-08-18T17:24:13Z</time>
      </trkpt>
      <trkpt lat="43.64191" lon="0.66606">
        <ele>201.05</ele>
        <time>2021-08-18T17:24:22Z</time>
      </trkpt>
      <trkpt lat="43.64191" lon="0.66581">
        <ele>202.01</ele>
        <time>2021-08-18T17:24:31Z</time>
      </trkpt>
      <trkpt lat="43.64191" lon="0.6655">
        <ele>202.98</ele>
        <time>2021-08-18T17:24:42Z</time>
      </trkpt>
      <trkpt lat="43.6419" lon="0.6653">
        <ele>203.94</ele>
        <time>2021-08-18T17:24:50Z</time>
      </trkpt>
      <trkpt lat="43.64189" lon="0.66511">
        <ele>205.38</ele>
        <time>2021-08-18T17:24:58Z</time>
      </trkpt>
      <trkpt lat="43.64188" lon="0.66489">
        <ele>206.34</ele>
        <time>2021-08-18T17:25:08Z</time>
      </trkpt>
      <trkpt lat="43.64188" lon="0.66469">
        <ele>207.78</ele>
        <time>2021-08-18T17:25:18Z</time>
      </trkpt>
      <trkpt lat="43.64189" lon="0.66451">
        <ele>208.74</ele>
        <time>2021-08-18T17:25:27Z</time>
      </trkpt>
      <trkpt lat="43.64189" lon="0.6644">
        <ele>211.15</ele>
        <time>2021-08-18T17:25:34Z</time>
      </trkpt>
      <trkpt lat="43.64189" lon="0.66423">
        <ele>213.07</ele>
        <time>2021-08-18T17:25:47Z</time>
      </trkpt>
      <trkpt lat="43.6419" lon="0.6641">
        <ele>214.51</ele>
        <time>2021-08-18T17:25:57Z</time>
      </trkpt>
      <trkpt lat="43.6419" lon="0.66407">
        <ele>214.99</ele>
        <time>2021-08-18T17:26:04Z</time>
      </trkpt>
      <trkpt lat="43.6419" lon="0.66396">
        <ele>215.95</ele>
        <time>2021-08-18T17:26:10Z</time>
      </trkpt>
      <trkpt lat="43.64191" lon="0.66371">
        <ele>217.88</ele>
        <time>2021-08-18T17:26:21Z</time>
      </trkpt>
      <trkpt lat="43.64192" lon="0.66349">
        <ele>219.32</ele>
        <time>2021-08-18T17:26:31Z</time>
      </trkpt>
      <trkpt lat="43.64194" lon="0.66329">
        <ele>220.76</ele>
        <time>2021-08-18T17:26:41Z</time>
      </trkpt>
      <trkpt lat="43.64195" lon="0.66319">
        <ele>221.72</ele>
        <time>2021-08-18T17:26:48Z</time>
      </trkpt>
      <trkpt lat="43.64194" lon="0.6632">
        <ele>221.72</ele>
        <time>2021-08-18T17:26:58Z</time>
      </trkpt>
      <trkpt lat="43.64193" lon="0.66317">
        <ele>221.72</ele>
        <time>2021-08-18T17:27:11Z</time>
      </trkpt>
      <trkpt lat="43.64193" lon="0.66311">
        <ele>222.68</ele>
        <time>2021-08-18T17:27:18Z</time>
      </trkpt>
      <trkpt lat="43.64195" lon="0.66301">
        <ele>225.09</ele>
        <time>2021-08-18T17:27:27Z</time>
      </trkpt>
      <trkpt lat="43.64195" lon="0.66292">
        <ele>226.53</ele>
        <time>2021-08-18T17:27:35Z</time>
      </trkpt>
      <trkpt lat="43.64197" lon="0.6628">
        <ele>227.97</ele>
        <time>2021-08-18T17:27:45Z</time>
      </trkpt>
      <trkpt lat="43.64199" lon="0.66272">
        <ele>229.89</ele>
        <time>2021-08-18T17:27:54Z</time>
      </trkpt>
      <trkpt lat="43.64201" lon="0.66266">
        <ele>230.85</ele>
        <time>2021-08-18T17:28:02Z</time>
      </trkpt>
      <trkpt lat="43.64204" lon="0.66255">
        <ele>232.78</ele>
        <time>2021-08-18T17:28:12Z</time>
      </trkpt>
      <trkpt lat="43.64207" lon="0.66252">
        <ele>232.78</ele>
        <time>2021-08-18T17:28:16Z</time>
      </trkpt>
      <trkpt lat="43.64209" lon="0.66251">
        <ele>232.78</ele>
        <time>2021-08-18T17:28:17Z</time>
      </trkpt>
      <trkpt lat="43.6421" lon="0.66251">
        <ele>232.78</ele>
        <time>2021-08-18T17:28:18Z</time>
      </trkpt>
      <trkpt lat="43.64212" lon="0.66252">
        <ele>232.78</ele>
        <time>2021-08-18T17:28:19Z</time>
      </trkpt>
      <trkpt lat="43.64214" lon="0.66252">
        <ele>232.78</ele>
        <time>2021-08-18T17:28:20Z</time>
      </trkpt>
      <trkpt lat="43.64216" lon="0.66253">
        <ele>232.78</ele>
        <time>2021-08-18T17:28:21Z</time>
      </trkpt>
      <trkpt lat="43.64217" lon="0.66253">
        <ele>232.78</ele>
        <time>2021-08-18T17:28:22Z</time>
      </trkpt>
      <trkpt lat="43.64219" lon="0.66254">
        <ele>232.78</ele>
        <time>2021-08-18T17:28:23Z</time>
      </trkpt>
      <trkpt lat="43.64221" lon="0.66255">
        <ele>232.78</ele>
        <time>2021-08-18T17:28:24Z</time>
      </trkpt>
      <trkpt lat="43.64223" lon="0.66256">
        <ele>232.78</ele>
        <time>2021-08-18T17:28:25Z</time>
      </trkpt>
      <trkpt lat="43.64225" lon="0.66256">
        <ele>232.78</ele>
        <time>2021-08-18T17:28:26Z</time>
      </trkpt>
      <trkpt lat="43.64243" lon="0.66269">
        <ele>232.78</ele>
        <time>2021-08-18T17:28:32Z</time>
      </trkpt>
      <trkpt lat="43.64267" lon="0.66285">
        <ele>233.74</ele>
        <time>2021-08-18T17:28:40Z</time>
      </trkpt>
      <trkpt lat="43.64286" lon="0.66281">
        <ele>234.22</ele>
        <time>2021-08-18T17:28:46Z</time>
      </trkpt>
      <trkpt lat="43.64307" lon="0.66284">
        <ele>235.66</ele>
        <time>2021-08-18T17:28:53Z</time>
      </trkpt>
      <trkpt lat="43.64325" lon="0.66289">
        <ele>236.14</ele>
        <time>2021-08-18T17:28:59Z</time>
      </trkpt>
      <trkpt lat="43.6433" lon="0.66289">
        <ele>234.7</ele>
        <time>2021-08-18T17:29:00Z</time>
      </trkpt>
      <trkpt lat="43.64334" lon="0.66288">
        <ele>234.7</ele>
        <time>2021-08-18T17:29:01Z</time>
      </trkpt>
      <trkpt lat="43.64337" lon="0.66285">
        <ele>234.7</ele>
        <time>2021-08-18T17:29:02Z</time>
      </trkpt>
      <trkpt lat="43.6434" lon="0.66282">
        <ele>234.7</ele>
        <time>2021-08-18T17:29:03Z</time>
      </trkpt>
      <trkpt lat="43.64343" lon="0.66279">
        <ele>234.7</ele>
        <time>2021-08-18T17:29:04Z</time>
      </trkpt>
      <trkpt lat="43.64369" lon="0.66252">
        <ele>234.22</ele>
        <time>2021-08-18T17:29:12Z</time>
      </trkpt>
      <trkpt lat="43.64374" lon="0.66249">
        <ele>234.22</ele>
        <time>2021-08-18T17:29:13Z</time>
      </trkpt>
      <trkpt lat="43.64382" lon="0.66244">
        <ele>234.22</ele>
        <time>2021-08-18T17:29:15Z</time>
      </trkpt>
      <trkpt lat="43.64386" lon="0.66243">
        <ele>234.22</ele>
        <time>2021-08-18T17:29:16Z</time>
      </trkpt>
      <trkpt lat="43.64389" lon="0.66242">
        <ele>234.22</ele>
        <time>2021-08-18T17:29:17Z</time>
      </trkpt>
      <trkpt lat="43.64393" lon="0.66242">
        <ele>235.66</ele>
        <time>2021-08-18T17:29:18Z</time>
      </trkpt>
      <trkpt lat="43.64395" lon="0.66242">
        <ele>236.14</ele>
        <time>2021-08-18T17:29:19Z</time>
      </trkpt>
      <trkpt lat="43.64415" lon="0.66237">
        <ele>236.14</ele>
        <time>2021-08-18T17:29:25Z</time>
      </trkpt>
      <trkpt lat="43.64447" lon="0.66213">
        <ele>236.62</ele>
        <time>2021-08-18T17:29:34Z</time>
      </trkpt>
      <trkpt lat="43.64486" lon="0.66175">
        <ele>236.14</ele>
        <time>2021-08-18T17:29:45Z</time>
      </trkpt>
      <trkpt lat="43.64518" lon="0.66148">
        <ele>236.62</ele>
        <time>2021-08-18T17:29:54Z</time>
      </trkpt>
      <trkpt lat="43.64549" lon="0.66113">
        <ele>236.62</ele>
        <time>2021-08-18T17:30:02Z</time>
      </trkpt>
      <trkpt lat="43.64578" lon="0.66081">
        <ele>235.66</ele>
        <time>2021-08-18T17:30:10Z</time>
      </trkpt>
      <trkpt lat="43.64593" lon="0.66064">
        <ele>234.7</ele>
        <time>2021-08-18T17:30:14Z</time>
      </trkpt>
      <trkpt lat="43.64597" lon="0.66058">
        <ele>234.7</ele>
        <time>2021-08-18T17:30:15Z</time>
      </trkpt>
      <trkpt lat="43.646" lon="0.66055">
        <ele>234.7</ele>
        <time>2021-08-18T17:30:16Z</time>
      </trkpt>
      <trkpt lat="43.64607" lon="0.66045">
        <ele>234.7</ele>
        <time>2021-08-18T17:30:18Z</time>
      </trkpt>
      <trkpt lat="43.64611" lon="0.66039">
        <ele>234.7</ele>
        <time>2021-08-18T17:30:19Z</time>
      </trkpt>
      <trkpt lat="43.6463" lon="0.65999">
        <ele>235.66</ele>
        <time>2021-08-18T17:30:26Z</time>
      </trkpt>
      <trkpt lat="43.64641" lon="0.65965">
        <ele>235.66</ele>
        <time>2021-08-18T17:30:31Z</time>
      </trkpt>
      <trkpt lat="43.64642" lon="0.65958">
        <ele>235.66</ele>
        <time>2021-08-18T17:30:32Z</time>
      </trkpt>
      <trkpt lat="43.64644" lon="0.65952">
        <ele>235.66</ele>
        <time>2021-08-18T17:30:33Z</time>
      </trkpt>
      <trkpt lat="43.64648" lon="0.65941">
        <ele>235.66</ele>
        <time>2021-08-18T17:30:35Z</time>
      </trkpt>
      <trkpt lat="43.64651" lon="0.65937">
        <ele>235.66</ele>
        <time>2021-08-18T17:30:36Z</time>
      </trkpt>
      <trkpt lat="43.64654" lon="0.65932">
        <ele>235.66</ele>
        <time>2021-08-18T17:30:37Z</time>
      </trkpt>
      <trkpt lat="43.64661" lon="0.65921">
        <ele>235.66</ele>
        <time>2021-08-18T17:30:39Z</time>
      </trkpt>
      <trkpt lat="43.6468" lon="0.65897">
        <ele>235.66</ele>
        <time>2021-08-18T17:30:44Z</time>
      </trkpt>
      <trkpt lat="43.64688" lon="0.65888">
        <ele>235.66</ele>
        <time>2021-08-18T17:30:46Z</time>
      </trkpt>
      <trkpt lat="43.64692" lon="0.65882">
        <ele>235.66</ele>
        <time>2021-08-18T17:30:47Z</time>
      </trkpt>
      <trkpt lat="43.64701" lon="0.65871">
        <ele>234.7</ele>
        <time>2021-08-18T17:30:49Z</time>
      </trkpt>
      <trkpt lat="43.64704" lon="0.65864">
        <ele>234.7</ele>
        <time>2021-08-18T17:30:50Z</time>
      </trkpt>
      <trkpt lat="43.64708" lon="0.65858">
        <ele>234.7</ele>
        <time>2021-08-18T17:30:51Z</time>
      </trkpt>
      <trkpt lat="43.64713" lon="0.65844">
        <ele>234.7</ele>
        <time>2021-08-18T17:30:53Z</time>
      </trkpt>
      <trkpt lat="43.64715" lon="0.65837">
        <ele>234.7</ele>
        <time>2021-08-18T17:30:54Z</time>
      </trkpt>
      <trkpt lat="43.64717" lon="0.6583">
        <ele>234.7</ele>
        <time>2021-08-18T17:30:55Z</time>
      </trkpt>
      <trkpt lat="43.6472" lon="0.65823">
        <ele>234.7</ele>
        <time>2021-08-18T17:30:56Z</time>
      </trkpt>
      <trkpt lat="43.64723" lon="0.65818">
        <ele>234.7</ele>
        <time>2021-08-18T17:30:57Z</time>
      </trkpt>
      <trkpt lat="43.64727" lon="0.65813">
        <ele>234.7</ele>
        <time>2021-08-18T17:30:58Z</time>
      </trkpt>
      <trkpt lat="43.6473" lon="0.65808">
        <ele>234.7</ele>
        <time>2021-08-18T17:30:59Z</time>
      </trkpt>
      <trkpt lat="43.64734" lon="0.65803">
        <ele>234.7</ele>
        <time>2021-08-18T17:31:00Z</time>
      </trkpt>
      <trkpt lat="43.64738" lon="0.658">
        <ele>234.7</ele>
        <time>2021-08-18T17:31:01Z</time>
      </trkpt>
      <trkpt lat="43.64748" lon="0.65794">
        <ele>233.74</ele>
        <time>2021-08-18T17:31:03Z</time>
      </trkpt>
      <trkpt lat="43.64752" lon="0.65789">
        <ele>233.26</ele>
        <time>2021-08-18T17:31:04Z</time>
      </trkpt>
      <trkpt lat="43.64757" lon="0.65783">
        <ele>233.26</ele>
        <time>2021-08-18T17:31:05Z</time>
      </trkpt>
      <trkpt lat="43.64761" lon="0.65777">
        <ele>232.78</ele>
        <time>2021-08-18T17:31:06Z</time>
      </trkpt>
      <trkpt lat="43.64766" lon="0.65771">
        <ele>232.3</ele>
        <time>2021-08-18T17:31:07Z</time>
      </trkpt>
      <trkpt lat="43.64781" lon="0.6575">
        <ele>229.89</ele>
        <time>2021-08-18T17:31:10Z</time>
      </trkpt>
      <trkpt lat="43.64791" lon="0.65734">
        <ele>227.49</ele>
        <time>2021-08-18T17:31:12Z</time>
      </trkpt>
      <trkpt lat="43.64797" lon="0.65728">
        <ele>227.49</ele>
        <time>2021-08-18T17:31:13Z</time>
      </trkpt>
      <trkpt lat="43.64804" lon="0.65724">
        <ele>226.53</ele>
        <time>2021-08-18T17:31:14Z</time>
      </trkpt>
      <trkpt lat="43.64812" lon="0.65721">
        <ele>225.57</ele>
        <time>2021-08-18T17:31:15Z</time>
      </trkpt>
      <trkpt lat="43.6482" lon="0.6572">
        <ele>224.12</ele>
        <time>2021-08-18T17:31:16Z</time>
      </trkpt>
      <trkpt lat="43.64828" lon="0.6572">
        <ele>223.64</ele>
        <time>2021-08-18T17:31:17Z</time>
      </trkpt>
      <trkpt lat="43.64845" lon="0.6572">
        <ele>222.2</ele>
        <time>2021-08-18T17:31:20Z</time>
      </trkpt>
      <trkpt lat="43.64849" lon="0.65721">
        <ele>222.2</ele>
        <time>2021-08-18T17:31:21Z</time>
      </trkpt>
      <trkpt lat="43.64851" lon="0.65723">
        <ele>221.72</ele>
        <time>2021-08-18T17:31:22Z</time>
      </trkpt>
      <trkpt lat="43.64853" lon="0.65725">
        <ele>221.24</ele>
        <time>2021-08-18T17:31:23Z</time>
      </trkpt>
      <trkpt lat="43.64855" lon="0.65727">
        <ele>221.24</ele>
        <time>2021-08-18T17:31:24Z</time>
      </trkpt>
      <trkpt lat="43.64858" lon="0.65728">
        <ele>220.28</ele>
        <time>2021-08-18T17:31:25Z</time>
      </trkpt>
      <trkpt lat="43.64862" lon="0.6573">
        <ele>219.32</ele>
        <time>2021-08-18T17:31:26Z</time>
      </trkpt>
      <trkpt lat="43.64866" lon="0.65733">
        <ele>218.84</ele>
        <time>2021-08-18T17:31:27Z</time>
      </trkpt>
      <trkpt lat="43.64879" lon="0.65744">
        <ele>216.43</ele>
        <time>2021-08-18T17:31:31Z</time>
      </trkpt>
      <trkpt lat="43.64881" lon="0.65747">
        <ele>215.95</ele>
        <time>2021-08-18T17:31:32Z</time>
      </trkpt>
      <trkpt lat="43.64882" lon="0.65751">
        <ele>215.95</ele>
        <time>2021-08-18T17:31:33Z</time>
      </trkpt>
      <trkpt lat="43.64883" lon="0.65756">
        <ele>214.99</ele>
        <time>2021-08-18T17:31:34Z</time>
      </trkpt>
      <trkpt lat="43.64885" lon="0.6576">
        <ele>214.51</ele>
        <time>2021-08-18T17:31:35Z</time>
      </trkpt>
      <trkpt lat="43.64888" lon="0.65763">
        <ele>214.51</ele>
        <time>2021-08-18T17:31:36Z</time>
      </trkpt>
      <trkpt lat="43.64892" lon="0.65764">
        <ele>214.51</ele>
        <time>2021-08-18T17:31:37Z</time>
      </trkpt>
      <trkpt lat="43.64896" lon="0.65765">
        <ele>213.55</ele>
        <time>2021-08-18T17:31:38Z</time>
      </trkpt>
      <trkpt lat="43.64901" lon="0.65766">
        <ele>213.55</ele>
        <time>2021-08-18T17:31:39Z</time>
      </trkpt>
      <trkpt lat="43.64929" lon="0.65775">
        <ele>213.55</ele>
        <time>2021-08-18T17:31:46Z</time>
      </trkpt>
      <trkpt lat="43.64956" lon="0.65781">
        <ele>213.55</ele>
        <time>2021-08-18T17:31:55Z</time>
      </trkpt>
      <trkpt lat="43.64969" lon="0.65772">
        <ele>214.99</ele>
        <time>2021-08-18T17:32:00Z</time>
      </trkpt>
      <trkpt lat="43.64986" lon="0.65743">
        <ele>215.95</ele>
        <time>2021-08-18T17:32:09Z</time>
      </trkpt>
      <trkpt lat="43.65002" lon="0.65719">
        <ele>216.43</ele>
        <time>2021-08-18T17:32:16Z</time>
      </trkpt>
      <trkpt lat="43.65019" lon="0.65689">
        <ele>216.91</ele>
        <time>2021-08-18T17:32:24Z</time>
      </trkpt>
      <trkpt lat="43.65033" lon="0.65668">
        <ele>217.88</ele>
        <time>2021-08-18T17:32:30Z</time>
      </trkpt>
      <trkpt lat="43.65045" lon="0.6565">
        <ele>218.84</ele>
        <time>2021-08-18T17:32:36Z</time>
      </trkpt>
      <trkpt lat="43.65053" lon="0.65632">
        <ele>220.76</ele>
        <time>2021-08-18T17:32:43Z</time>
      </trkpt>
      <trkpt lat="43.65061" lon="0.65619">
        <ele>221.72</ele>
        <time>2021-08-18T17:32:52Z</time>
      </trkpt>
      <trkpt lat="43.65067" lon="0.65609">
        <ele>223.64</ele>
        <time>2021-08-18T17:32:59Z</time>
      </trkpt>
      <trkpt lat="43.65074" lon="0.65596">
        <ele>224.61</ele>
        <time>2021-08-18T17:33:07Z</time>
      </trkpt>
      <trkpt lat="43.65078" lon="0.6559">
        <ele>226.05</ele>
        <time>2021-08-18T17:33:11Z</time>
      </trkpt>
      <trkpt lat="43.65079" lon="0.65589">
        <ele>226.05</ele>
        <time>2021-08-18T17:33:12Z</time>
      </trkpt>
      <trkpt lat="43.6508" lon="0.65588">
        <ele>226.05</ele>
        <time>2021-08-18T17:33:13Z</time>
      </trkpt>
      <trkpt lat="43.65082" lon="0.65586">
        <ele>226.05</ele>
        <time>2021-08-18T17:33:14Z</time>
      </trkpt>
      <trkpt lat="43.65083" lon="0.65585">
        <ele>226.53</ele>
        <time>2021-08-18T17:33:15Z</time>
      </trkpt>
      <trkpt lat="43.65084" lon="0.65583">
        <ele>226.53</ele>
        <time>2021-08-18T17:33:16Z</time>
      </trkpt>
      <trkpt lat="43.65091" lon="0.65569">
        <ele>227.01</ele>
        <time>2021-08-18T17:33:22Z</time>
      </trkpt>
      <trkpt lat="43.65106" lon="0.65545">
        <ele>226.53</ele>
        <time>2021-08-18T17:33:29Z</time>
      </trkpt>
      <trkpt lat="43.65109" lon="0.6554">
        <ele>225.09</ele>
        <time>2021-08-18T17:33:30Z</time>
      </trkpt>
      <trkpt lat="43.65113" lon="0.65534">
        <ele>224.61</ele>
        <time>2021-08-18T17:33:31Z</time>
      </trkpt>
      <trkpt lat="43.65116" lon="0.65527">
        <ele>224.61</ele>
        <time>2021-08-18T17:33:32Z</time>
      </trkpt>
      <trkpt lat="43.65123" lon="0.65512">
        <ele>223.16</ele>
        <time>2021-08-18T17:33:34Z</time>
      </trkpt>
      <trkpt lat="43.65146" lon="0.65462">
        <ele>222.2</ele>
        <time>2021-08-18T17:33:41Z</time>
      </trkpt>
      <trkpt lat="43.65148" lon="0.65456">
        <ele>222.2</ele>
        <time>2021-08-18T17:33:42Z</time>
      </trkpt>
      <trkpt lat="43.6515" lon="0.6545">
        <ele>223.16</ele>
        <time>2021-08-18T17:33:43Z</time>
      </trkpt>
      <trkpt lat="43.65158" lon="0.65423">
        <ele>224.61</ele>
        <time>2021-08-18T17:33:49Z</time>
      </trkpt>
      <trkpt lat="43.65164" lon="0.65403">
        <ele>226.05</ele>
        <time>2021-08-18T17:33:57Z</time>
      </trkpt>
      <trkpt lat="43.65166" lon="0.65389">
        <ele>226.53</ele>
        <time>2021-08-18T17:34:05Z</time>
      </trkpt>
      <trkpt lat="43.65169" lon="0.65378">
        <ele>228.45</ele>
        <time>2021-08-18T17:34:12Z</time>
      </trkpt>
      <trkpt lat="43.6517" lon="0.65375">
        <ele>228.93</ele>
        <time>2021-08-18T17:34:14Z</time>
      </trkpt>
      <trkpt lat="43.6517" lon="0.65373">
        <ele>228.93</ele>
        <time>2021-08-18T17:34:15Z</time>
      </trkpt>
      <trkpt lat="43.65171" lon="0.65371">
        <ele>228.93</ele>
        <time>2021-08-18T17:34:16Z</time>
      </trkpt>
      <trkpt lat="43.65171" lon="0.65369">
        <ele>228.93</ele>
        <time>2021-08-18T17:34:17Z</time>
      </trkpt>
      <trkpt lat="43.65173" lon="0.65363">
        <ele>229.89</ele>
        <time>2021-08-18T17:34:21Z</time>
      </trkpt>
      <trkpt lat="43.65173" lon="0.65361">
        <ele>230.37</ele>
        <time>2021-08-18T17:34:22Z</time>
      </trkpt>
      <trkpt lat="43.65179" lon="0.65345">
        <ele>231.81</ele>
        <time>2021-08-18T17:34:31Z</time>
      </trkpt>
      <trkpt lat="43.65188" lon="0.65323">
        <ele>232.3</ele>
        <time>2021-08-18T17:34:39Z</time>
      </trkpt>
      <trkpt lat="43.65194" lon="0.65299">
        <ele>233.74</ele>
        <time>2021-08-18T17:34:47Z</time>
      </trkpt>
      <trkpt lat="43.65203" lon="0.65266">
        <ele>233.74</ele>
        <time>2021-08-18T17:34:55Z</time>
      </trkpt>
      <trkpt lat="43.65211" lon="0.6523">
        <ele>234.22</ele>
        <time>2021-08-18T17:35:03Z</time>
      </trkpt>
      <trkpt lat="43.65215" lon="0.65206">
        <ele>235.18</ele>
        <time>2021-08-18T17:35:09Z</time>
      </trkpt>
      <trkpt lat="43.65222" lon="0.65168">
        <ele>235.66</ele>
        <time>2021-08-18T17:35:17Z</time>
      </trkpt>
      <trkpt lat="43.65228" lon="0.65129">
        <ele>236.62</ele>
        <time>2021-08-18T17:35:25Z</time>
      </trkpt>
      <trkpt lat="43.65234" lon="0.65083">
        <ele>236.62</ele>
        <time>2021-08-18T17:35:34Z</time>
      </trkpt>
      <trkpt lat="43.65239" lon="0.65064">
        <ele>236.62</ele>
        <time>2021-08-18T17:35:38Z</time>
      </trkpt>
      <trkpt lat="43.65241" lon="0.65058">
        <ele>236.62</ele>
        <time>2021-08-18T17:35:39Z</time>
      </trkpt>
      <trkpt lat="43.65243" lon="0.65054">
        <ele>236.62</ele>
        <time>2021-08-18T17:35:40Z</time>
      </trkpt>
      <trkpt lat="43.65246" lon="0.6505">
        <ele>236.62</ele>
        <time>2021-08-18T17:35:41Z</time>
      </trkpt>
      <trkpt lat="43.65249" lon="0.65046">
        <ele>236.62</ele>
        <time>2021-08-18T17:35:42Z</time>
      </trkpt>
      <trkpt lat="43.65251" lon="0.65044">
        <ele>236.62</ele>
        <time>2021-08-18T17:35:43Z</time>
      </trkpt>
      <trkpt lat="43.6527" lon="0.65024">
        <ele>236.62</ele>
        <time>2021-08-18T17:35:49Z</time>
      </trkpt>
      <trkpt lat="43.65294" lon="0.64997">
        <ele>236.62</ele>
        <time>2021-08-18T17:35:56Z</time>
      </trkpt>
      <trkpt lat="43.65314" lon="0.64964">
        <ele>235.18</ele>
        <time>2021-08-18T17:36:04Z</time>
      </trkpt>
      <trkpt lat="43.6533" lon="0.64915">
        <ele>234.22</ele>
        <time>2021-08-18T17:36:13Z</time>
      </trkpt>
      <trkpt lat="43.65335" lon="0.6486">
        <ele>233.74</ele>
        <time>2021-08-18T17:36:21Z</time>
      </trkpt>
      <trkpt lat="43.65335" lon="0.64847">
        <ele>233.74</ele>
        <time>2021-08-18T17:36:23Z</time>
      </trkpt>
      <trkpt lat="43.65334" lon="0.64841">
        <ele>232.78</ele>
        <time>2021-08-18T17:36:24Z</time>
      </trkpt>
      <trkpt lat="43.65332" lon="0.64834">
        <ele>231.33</ele>
        <time>2021-08-18T17:36:25Z</time>
      </trkpt>
      <trkpt lat="43.65315" lon="0.64795">
        <ele>228.93</ele>
        <time>2021-08-18T17:36:30Z</time>
      </trkpt>
      <trkpt lat="43.65312" lon="0.64786">
        <ele>227.97</ele>
        <time>2021-08-18T17:36:31Z</time>
      </trkpt>
      <trkpt lat="43.65302" lon="0.64752">
        <ele>225.09</ele>
        <time>2021-08-18T17:36:34Z</time>
      </trkpt>
      <trkpt lat="43.65297" lon="0.64741">
        <ele>225.09</ele>
        <time>2021-08-18T17:36:35Z</time>
      </trkpt>
      <trkpt lat="43.65292" lon="0.6473">
        <ele>224.12</ele>
        <time>2021-08-18T17:36:36Z</time>
      </trkpt>
      <trkpt lat="43.65269" lon="0.64691">
        <ele>220.76</ele>
        <time>2021-08-18T17:36:41Z</time>
      </trkpt>
      <trkpt lat="43.65266" lon="0.64686">
        <ele>219.8</ele>
        <time>2021-08-18T17:36:42Z</time>
      </trkpt>
      <trkpt lat="43.65261" lon="0.64681">
        <ele>219.32</ele>
        <time>2021-08-18T17:36:43Z</time>
      </trkpt>
      <trkpt lat="43.65242" lon="0.64665">
        <ele>216.91</ele>
        <time>2021-08-18T17:36:47Z</time>
      </trkpt>
      <trkpt lat="43.65232" lon="0.64659">
        <ele>215.95</ele>
        <time>2021-08-18T17:36:51Z</time>
      </trkpt>
      <trkpt lat="43.6523" lon="0.64662">
        <ele>214.99</ele>
        <time>2021-08-18T17:36:52Z</time>
      </trkpt>
      <trkpt lat="43.6523" lon="0.64667">
        <ele>214.51</ele>
        <time>2021-08-18T17:36:53Z</time>
      </trkpt>
      <trkpt lat="43.6523" lon="0.64671">
        <ele>214.03</ele>
        <time>2021-08-18T17:36:54Z</time>
      </trkpt>
      <trkpt lat="43.65231" lon="0.64675">
        <ele>213.07</ele>
        <time>2021-08-18T17:36:55Z</time>
      </trkpt>
      <trkpt lat="43.65231" lon="0.64679">
        <ele>213.07</ele>
        <time>2021-08-18T17:36:56Z</time>
      </trkpt>
      <trkpt lat="43.65231" lon="0.64683">
        <ele>212.11</ele>
        <time>2021-08-18T17:36:57Z</time>
      </trkpt>
      <trkpt lat="43.65231" lon="0.64687">
        <ele>211.63</ele>
        <time>2021-08-18T17:36:58Z</time>
      </trkpt>
      <trkpt lat="43.65229" lon="0.6469">
        <ele>211.15</ele>
        <time>2021-08-18T17:36:59Z</time>
      </trkpt>
      <trkpt lat="43.65227" lon="0.64693">
        <ele>210.19</ele>
        <time>2021-08-18T17:37:00Z</time>
      </trkpt>
      <trkpt lat="43.65224" lon="0.64694">
        <ele>209.7</ele>
        <time>2021-08-18T17:37:01Z</time>
      </trkpt>
      <trkpt lat="43.65221" lon="0.64695">
        <ele>209.22</ele>
        <time>2021-08-18T17:37:02Z</time>
      </trkpt>
      <trkpt lat="43.65217" lon="0.64695">
        <ele>208.74</ele>
        <time>2021-08-18T17:37:03Z</time>
      </trkpt>
      <trkpt lat="43.65212" lon="0.64693">
        <ele>208.26</ele>
        <time>2021-08-18T17:37:04Z</time>
      </trkpt>
      <trkpt lat="43.65208" lon="0.6469">
        <ele>207.78</ele>
        <time>2021-08-18T17:37:05Z</time>
      </trkpt>
      <trkpt lat="43.65203" lon="0.64686">
        <ele>207.3</ele>
        <time>2021-08-18T17:37:06Z</time>
      </trkpt>
      <trkpt lat="43.652" lon="0.64682">
        <ele>207.78</ele>
        <time>2021-08-18T17:37:07Z</time>
      </trkpt>
      <trkpt lat="43.65197" lon="0.64677">
        <ele>207.78</ele>
        <time>2021-08-18T17:37:08Z</time>
      </trkpt>
      <trkpt lat="43.65194" lon="0.64672">
        <ele>207.78</ele>
        <time>2021-08-18T17:37:09Z</time>
      </trkpt>
      <trkpt lat="43.65181" lon="0.64651">
        <ele>208.74</ele>
        <time>2021-08-18T17:37:15Z</time>
      </trkpt>
      <trkpt lat="43.65168" lon="0.64629">
        <ele>210.67</ele>
        <time>2021-08-18T17:37:22Z</time>
      </trkpt>
      <trkpt lat="43.6516" lon="0.64605">
        <ele>211.15</ele>
        <time>2021-08-18T17:37:29Z</time>
      </trkpt>
      <trkpt lat="43.65156" lon="0.64595">
        <ele>209.7</ele>
        <time>2021-08-18T17:37:31Z</time>
      </trkpt>
      <trkpt lat="43.65148" lon="0.64557">
        <ele>208.26</ele>
        <time>2021-08-18T17:37:38Z</time>
      </trkpt>
      <trkpt lat="43.65147" lon="0.64551">
        <ele>208.26</ele>
        <time>2021-08-18T17:37:39Z</time>
      </trkpt>
      <trkpt lat="43.65147" lon="0.64545">
        <ele>208.26</ele>
        <time>2021-08-18T17:37:40Z</time>
      </trkpt>
      <trkpt lat="43.65147" lon="0.64539">
        <ele>208.26</ele>
        <time>2021-08-18T17:37:41Z</time>
      </trkpt>
      <trkpt lat="43.65147" lon="0.64533">
        <ele>208.26</ele>
        <time>2021-08-18T17:37:42Z</time>
      </trkpt>
      <trkpt lat="43.65147" lon="0.64527">
        <ele>208.26</ele>
        <time>2021-08-18T17:37:43Z</time>
      </trkpt>
      <trkpt lat="43.65155" lon="0.64488">
        <ele>207.78</ele>
        <time>2021-08-18T17:37:50Z</time>
      </trkpt>
      <trkpt lat="43.65168" lon="0.64452">
        <ele>204.42</ele>
        <time>2021-08-18T17:37:56Z</time>
      </trkpt>
      <trkpt lat="43.65181" lon="0.64429">
        <ele>200.57</ele>
        <time>2021-08-18T17:37:59Z</time>
      </trkpt>
      <trkpt lat="43.65189" lon="0.6441">
        <ele>197.69</ele>
        <time>2021-08-18T17:38:01Z</time>
      </trkpt>
      <trkpt lat="43.65193" lon="0.64401">
        <ele>196.25</ele>
        <time>2021-08-18T17:38:02Z</time>
      </trkpt>
      <trkpt lat="43.65195" lon="0.64391">
        <ele>195.28</ele>
        <time>2021-08-18T17:38:03Z</time>
      </trkpt>
      <trkpt lat="43.65194" lon="0.6438">
        <ele>193.84</ele>
        <time>2021-08-18T17:38:04Z</time>
      </trkpt>
      <trkpt lat="43.65192" lon="0.64369">
        <ele>192.4</ele>
        <time>2021-08-18T17:38:05Z</time>
      </trkpt>
      <trkpt lat="43.65188" lon="0.64358">
        <ele>190.96</ele>
        <time>2021-08-18T17:38:06Z</time>
      </trkpt>
      <trkpt lat="43.65184" lon="0.64347">
        <ele>190.96</ele>
        <time>2021-08-18T17:38:07Z</time>
      </trkpt>
      <trkpt lat="43.6518" lon="0.64337">
        <ele>189.52</ele>
        <time>2021-08-18T17:38:08Z</time>
      </trkpt>
      <trkpt lat="43.65175" lon="0.64327">
        <ele>188.08</ele>
        <time>2021-08-18T17:38:09Z</time>
      </trkpt>
      <trkpt lat="43.65161" lon="0.64299">
        <ele>184.71</ele>
        <time>2021-08-18T17:38:12Z</time>
      </trkpt>
      <trkpt lat="43.6515" lon="0.64279">
        <ele>181.35</ele>
        <time>2021-08-18T17:38:14Z</time>
      </trkpt>
      <trkpt lat="43.6514" lon="0.64259">
        <ele>178.46</ele>
        <time>2021-08-18T17:38:16Z</time>
      </trkpt>
      <trkpt lat="43.65128" lon="0.64236">
        <ele>175.1</ele>
        <time>2021-08-18T17:38:18Z</time>
      </trkpt>
      <trkpt lat="43.65115" lon="0.64212">
        <ele>171.25</ele>
        <time>2021-08-18T17:38:20Z</time>
      </trkpt>
      <trkpt lat="43.65093" lon="0.64178">
        <ele>166.93</ele>
        <time>2021-08-18T17:38:23Z</time>
      </trkpt>
      <trkpt lat="43.65077" lon="0.64156">
        <ele>163.08</ele>
        <time>2021-08-18T17:38:25Z</time>
      </trkpt>
      <trkpt lat="43.65055" lon="0.64123">
        <ele>158.75</ele>
        <time>2021-08-18T17:38:28Z</time>
      </trkpt>
      <trkpt lat="43.65034" lon="0.64094">
        <ele>156.35</ele>
        <time>2021-08-18T17:38:31Z</time>
      </trkpt>
      <trkpt lat="43.65011" lon="0.6406">
        <ele>153.47</ele>
        <time>2021-08-18T17:38:36Z</time>
      </trkpt>
      <trkpt lat="43.65008" lon="0.64053">
        <ele>152.99</ele>
        <time>2021-08-18T17:38:37Z</time>
      </trkpt>
      <trkpt lat="43.65008" lon="0.64044">
        <ele>151.06</ele>
        <time>2021-08-18T17:38:38Z</time>
      </trkpt>
      <trkpt lat="43.6501" lon="0.64032">
        <ele>150.1</ele>
        <time>2021-08-18T17:38:39Z</time>
      </trkpt>
      <trkpt lat="43.65013" lon="0.64025">
        <ele>149.14</ele>
        <time>2021-08-18T17:38:40Z</time>
      </trkpt>
      <trkpt lat="43.65017" lon="0.64015">
        <ele>148.18</ele>
        <time>2021-08-18T17:38:41Z</time>
      </trkpt>
      <trkpt lat="43.65046" lon="0.63942">
        <ele>145.78</ele>
        <time>2021-08-18T17:38:48Z</time>
      </trkpt>
      <trkpt lat="43.65059" lon="0.63898">
        <ele>145.3</ele>
        <time>2021-08-18T17:38:53Z</time>
      </trkpt>
      <trkpt lat="43.6506" lon="0.6389">
        <ele>146.74</ele>
        <time>2021-08-18T17:38:54Z</time>
      </trkpt>
      <trkpt lat="43.65059" lon="0.63883">
        <ele>146.74</ele>
        <time>2021-08-18T17:38:55Z</time>
      </trkpt>
      <trkpt lat="43.65059" lon="0.63877">
        <ele>146.74</ele>
        <time>2021-08-18T17:38:56Z</time>
      </trkpt>
      <trkpt lat="43.65049" lon="0.63826">
        <ele>146.74</ele>
        <time>2021-08-18T17:39:03Z</time>
      </trkpt>
      <trkpt lat="43.65039" lon="0.63758">
        <ele>147.22</ele>
        <time>2021-08-18T17:39:14Z</time>
      </trkpt>
      <trkpt lat="43.65037" lon="0.63718">
        <ele>148.18</ele>
        <time>2021-08-18T17:39:22Z</time>
      </trkpt>
      <trkpt lat="43.65035" lon="0.63683">
        <ele>149.62</ele>
        <time>2021-08-18T17:39:31Z</time>
      </trkpt>
      <trkpt lat="43.65033" lon="0.63652">
        <ele>151.06</ele>
        <time>2021-08-18T17:39:41Z</time>
      </trkpt>
      <trkpt lat="43.65031" lon="0.63628">
        <ele>152.51</ele>
        <time>2021-08-18T17:39:50Z</time>
      </trkpt>
      <trkpt lat="43.6503" lon="0.63609">
        <ele>153.95</ele>
        <time>2021-08-18T17:39:59Z</time>
      </trkpt>
      <trkpt lat="43.65027" lon="0.63585">
        <ele>155.87</ele>
        <time>2021-08-18T17:40:09Z</time>
      </trkpt>
      <trkpt lat="43.65025" lon="0.63568">
        <ele>156.35</ele>
        <time>2021-08-18T17:40:17Z</time>
      </trkpt>
      <trkpt lat="43.65025" lon="0.63554">
        <ele>157.79</ele>
        <time>2021-08-18T17:40:26Z</time>
      </trkpt>
      <trkpt lat="43.65027" lon="0.63554">
        <ele>157.79</ele>
        <time>2021-08-18T17:40:41Z</time>
      </trkpt>
      <trkpt lat="43.65026" lon="0.63553">
        <ele>157.79</ele>
        <time>2021-08-18T17:40:46Z</time>
      </trkpt>
      <trkpt lat="43.65026" lon="0.63551">
        <ele>157.79</ele>
        <time>2021-08-18T17:41:04Z</time>
      </trkpt>
      <trkpt lat="43.65026" lon="0.63552">
        <ele>157.79</ele>
        <time>2021-08-18T17:41:24Z</time>
      </trkpt>
      <trkpt lat="43.65026" lon="0.63553">
        <ele>157.79</ele>
        <time>2021-08-18T17:41:41Z</time>
      </trkpt>
      <trkpt lat="43.65026" lon="0.63555">
        <ele>157.79</ele>
        <time>2021-08-18T17:41:59Z</time>
      </trkpt>
      <trkpt lat="43.65027" lon="0.63555">
        <ele>157.79</ele>
        <time>2021-08-18T17:42:17Z</time>
      </trkpt>
      <trkpt lat="43.65028" lon="0.63555">
        <ele>157.79</ele>
        <time>2021-08-18T17:42:20Z</time>
      </trkpt>
      <trkpt lat="43.65028" lon="0.63556">
        <ele>157.79</ele>
        <time>2021-08-18T17:42:25Z</time>
      </trkpt>
      <trkpt lat="43.65027" lon="0.63559">
        <ele>157.79</ele>
        <time>2021-08-18T17:42:27Z</time>
      </trkpt>
      <trkpt lat="43.65027" lon="0.63557">
        <ele>157.79</ele>
        <time>2021-08-18T17:42:32Z</time>
      </trkpt>
      <trkpt lat="43.65026" lon="0.63552">
        <ele>157.79</ele>
        <time>2021-08-18T17:42:53Z</time>
      </trkpt>
      <trkpt lat="43.65026" lon="0.63552">
        <ele>157.31</ele>
        <time>2021-08-18T17:43:12Z</time>
      </trkpt>
      <trkpt lat="43.65026" lon="0.63552">
        <ele>157.79</ele>
        <time>2021-08-18T17:43:27Z</time>
      </trkpt>
      <trkpt lat="43.65026" lon="0.63551">
        <ele>157.79</ele>
        <time>2021-08-18T17:43:42Z</time>
      </trkpt>
      <trkpt lat="43.65025" lon="0.6355">
        <ele>158.27</ele>
        <time>2021-08-18T17:43:52Z</time>
      </trkpt>
      <trkpt lat="43.65025" lon="0.6355">
        <ele>158.27</ele>
        <time>2021-08-18T17:43:55Z</time>
      </trkpt>
      <trkpt lat="43.65024" lon="0.63547">
        <ele>158.27</ele>
        <time>2021-08-18T17:43:57Z</time>
      </trkpt>
      <trkpt lat="43.65024" lon="0.63545">
        <ele>158.27</ele>
        <time>2021-08-18T17:43:58Z</time>
      </trkpt>
      <trkpt lat="43.65024" lon="0.63543">
        <ele>158.27</ele>
        <time>2021-08-18T17:43:59Z</time>
      </trkpt>
      <trkpt lat="43.65024" lon="0.63541">
        <ele>158.27</ele>
        <time>2021-08-18T17:44:00Z</time>
      </trkpt>
      <trkpt lat="43.65024" lon="0.63539">
        <ele>158.75</ele>
        <time>2021-08-18T17:44:01Z</time>
      </trkpt>
      <trkpt lat="43.65024" lon="0.63537">
        <ele>158.75</ele>
        <time>2021-08-18T17:44:02Z</time>
      </trkpt>
      <trkpt lat="43.65022" lon="0.63516">
        <ele>161.16</ele>
        <time>2021-08-18T17:44:12Z</time>
      </trkpt>
      <trkpt lat="43.65022" lon="0.63514">
        <ele>161.16</ele>
        <time>2021-08-18T17:44:13Z</time>
      </trkpt>
      <trkpt lat="43.65022" lon="0.63507">
        <ele>161.64</ele>
        <time>2021-08-18T17:44:16Z</time>
      </trkpt>
      <trkpt lat="43.65022" lon="0.63505">
        <ele>161.64</ele>
        <time>2021-08-18T17:44:17Z</time>
      </trkpt>
      <trkpt lat="43.65021" lon="0.63503">
        <ele>162.12</ele>
        <time>2021-08-18T17:44:18Z</time>
      </trkpt>
      <trkpt lat="43.65021" lon="0.63501">
        <ele>162.12</ele>
        <time>2021-08-18T17:44:19Z</time>
      </trkpt>
      <trkpt lat="43.65021" lon="0.63499">
        <ele>162.6</ele>
        <time>2021-08-18T17:44:20Z</time>
      </trkpt>
      <trkpt lat="43.6502" lon="0.63497">
        <ele>162.6</ele>
        <time>2021-08-18T17:44:21Z</time>
      </trkpt>
      <trkpt lat="43.6502" lon="0.63495">
        <ele>163.08</ele>
        <time>2021-08-18T17:44:22Z</time>
      </trkpt>
      <trkpt lat="43.6502" lon="0.63493">
        <ele>163.08</ele>
        <time>2021-08-18T17:44:23Z</time>
      </trkpt>
      <trkpt lat="43.65018" lon="0.63469">
        <ele>164.52</ele>
        <time>2021-08-18T17:44:34Z</time>
      </trkpt>
      <trkpt lat="43.65016" lon="0.6345">
        <ele>165.48</ele>
        <time>2021-08-18T17:44:43Z</time>
      </trkpt>
      <trkpt lat="43.65014" lon="0.63429">
        <ele>167.41</ele>
        <time>2021-08-18T17:44:53Z</time>
      </trkpt>
      <trkpt lat="43.65013" lon="0.63412">
        <ele>168.85</ele>
        <time>2021-08-18T17:45:01Z</time>
      </trkpt>
      <trkpt lat="43.65011" lon="0.63393">
        <ele>170.29</ele>
        <time>2021-08-18T17:45:09Z</time>
      </trkpt>
      <trkpt lat="43.6501" lon="0.63373">
        <ele>172.21</ele>
        <time>2021-08-18T17:45:17Z</time>
      </trkpt>
      <trkpt lat="43.65011" lon="0.63352">
        <ele>173.66</ele>
        <time>2021-08-18T17:45:25Z</time>
      </trkpt>
      <trkpt lat="43.65011" lon="0.6333">
        <ele>175.58</ele>
        <time>2021-08-18T17:45:34Z</time>
      </trkpt>
      <trkpt lat="43.65012" lon="0.63312">
        <ele>177.5</ele>
        <time>2021-08-18T17:45:42Z</time>
      </trkpt>
      <trkpt lat="43.65018" lon="0.63289">
        <ele>178.46</ele>
        <time>2021-08-18T17:45:51Z</time>
      </trkpt>
      <trkpt lat="43.6502" lon="0.63288">
        <ele>178.46</ele>
        <time>2021-08-18T17:45:52Z</time>
      </trkpt>
      <trkpt lat="43.65022" lon="0.63287">
        <ele>178.46</ele>
        <time>2021-08-18T17:45:53Z</time>
      </trkpt>
      <trkpt lat="43.65047" lon="0.63286">
        <ele>177.5</ele>
        <time>2021-08-18T17:45:59Z</time>
      </trkpt>
      <trkpt lat="43.65058" lon="0.63287">
        <ele>176.54</ele>
        <time>2021-08-18T17:46:01Z</time>
      </trkpt>
      <trkpt lat="43.65064" lon="0.63287">
        <ele>176.06</ele>
        <time>2021-08-18T17:46:02Z</time>
      </trkpt>
      <trkpt lat="43.65077" lon="0.63288">
        <ele>174.62</ele>
        <time>2021-08-18T17:46:04Z</time>
      </trkpt>
      <trkpt lat="43.65112" lon="0.63285">
        <ele>172.21</ele>
        <time>2021-08-18T17:46:09Z</time>
      </trkpt>
      <trkpt lat="43.6512" lon="0.63281">
        <ele>171.25</ele>
        <time>2021-08-18T17:46:10Z</time>
      </trkpt>
      <trkpt lat="43.65127" lon="0.63275">
        <ele>170.77</ele>
        <time>2021-08-18T17:46:11Z</time>
      </trkpt>
      <trkpt lat="43.65134" lon="0.63268">
        <ele>169.81</ele>
        <time>2021-08-18T17:46:12Z</time>
      </trkpt>
      <trkpt lat="43.6514" lon="0.63261">
        <ele>169.33</ele>
        <time>2021-08-18T17:46:13Z</time>
      </trkpt>
      <trkpt lat="43.65147" lon="0.63254">
        <ele>169.33</ele>
        <time>2021-08-18T17:46:14Z</time>
      </trkpt>
      <trkpt lat="43.65182" lon="0.63218">
        <ele>165.96</ele>
        <time>2021-08-18T17:46:19Z</time>
      </trkpt>
      <trkpt lat="43.6519" lon="0.63214">
        <ele>165.96</ele>
        <time>2021-08-18T17:46:20Z</time>
      </trkpt>
      <trkpt lat="43.65199" lon="0.6321">
        <ele>165.48</ele>
        <time>2021-08-18T17:46:21Z</time>
      </trkpt>
      <trkpt lat="43.65207" lon="0.63208">
        <ele>164.52</ele>
        <time>2021-08-18T17:46:22Z</time>
      </trkpt>
      <trkpt lat="43.65216" lon="0.63206">
        <ele>164.04</ele>
        <time>2021-08-18T17:46:23Z</time>
      </trkpt>
      <trkpt lat="43.65262" lon="0.632">
        <ele>160.68</ele>
        <time>2021-08-18T17:46:28Z</time>
      </trkpt>
      <trkpt lat="43.65319" lon="0.63188">
        <ele>156.83</ele>
        <time>2021-08-18T17:46:34Z</time>
      </trkpt>
      <trkpt lat="43.65369" lon="0.63177">
        <ele>153.47</ele>
        <time>2021-08-18T17:46:39Z</time>
      </trkpt>
      <trkpt lat="43.65399" lon="0.6317">
        <ele>152.03</ele>
        <time>2021-08-18T17:46:42Z</time>
      </trkpt>
      <trkpt lat="43.65409" lon="0.63167">
        <ele>151.06</ele>
        <time>2021-08-18T17:46:43Z</time>
      </trkpt>
      <trkpt lat="43.65419" lon="0.63162">
        <ele>150.58</ele>
        <time>2021-08-18T17:46:44Z</time>
      </trkpt>
      <trkpt lat="43.65436" lon="0.6315">
        <ele>149.62</ele>
        <time>2021-08-18T17:46:46Z</time>
      </trkpt>
      <trkpt lat="43.65444" lon="0.63143">
        <ele>149.62</ele>
        <time>2021-08-18T17:46:47Z</time>
      </trkpt>
      <trkpt lat="43.65451" lon="0.63135">
        <ele>149.62</ele>
        <time>2021-08-18T17:46:48Z</time>
      </trkpt>
      <trkpt lat="43.65464" lon="0.63118">
        <ele>148.66</ele>
        <time>2021-08-18T17:46:50Z</time>
      </trkpt>
      <trkpt lat="43.65481" lon="0.63085">
        <ele>145.78</ele>
        <time>2021-08-18T17:46:53Z</time>
      </trkpt>
      <trkpt lat="43.65498" lon="0.63051">
        <ele>142.41</ele>
        <time>2021-08-18T17:46:56Z</time>
      </trkpt>
      <trkpt lat="43.65511" lon="0.63029">
        <ele>141.45</ele>
        <time>2021-08-18T17:46:58Z</time>
      </trkpt>
      <trkpt lat="43.65519" lon="0.6302">
        <ele>140.97</ele>
        <time>2021-08-18T17:46:59Z</time>
      </trkpt>
      <trkpt lat="43.65534" lon="0.63004">
        <ele>140.97</ele>
        <time>2021-08-18T17:47:01Z</time>
      </trkpt>
      <trkpt lat="43.65567" lon="0.62975">
        <ele>142.89</ele>
        <time>2021-08-18T17:47:06Z</time>
      </trkpt>
      <trkpt lat="43.65595" lon="0.62951">
        <ele>143.85</ele>
        <time>2021-08-18T17:47:12Z</time>
      </trkpt>
      <trkpt lat="43.65617" lon="0.62931">
        <ele>146.26</ele>
        <time>2021-08-18T17:47:18Z</time>
      </trkpt>
      <trkpt lat="43.65621" lon="0.62928">
        <ele>146.74</ele>
        <time>2021-08-18T17:47:19Z</time>
      </trkpt>
      <trkpt lat="43.65633" lon="0.62917">
        <ele>147.7</ele>
        <time>2021-08-18T17:47:24Z</time>
      </trkpt>
      <trkpt lat="43.65648" lon="0.62905">
        <ele>148.18</ele>
        <time>2021-08-18T17:47:30Z</time>
      </trkpt>
      <trkpt lat="43.65673" lon="0.62882">
        <ele>148.18</ele>
        <time>2021-08-18T17:47:39Z</time>
      </trkpt>
      <trkpt lat="43.6569" lon="0.62864">
        <ele>146.74</ele>
        <time>2021-08-18T17:47:45Z</time>
      </trkpt>
      <trkpt lat="43.65693" lon="0.62859">
        <ele>146.74</ele>
        <time>2021-08-18T17:47:46Z</time>
      </trkpt>
      <trkpt lat="43.65696" lon="0.62854">
        <ele>146.74</ele>
        <time>2021-08-18T17:47:47Z</time>
      </trkpt>
      <trkpt lat="43.65698" lon="0.62847">
        <ele>146.26</ele>
        <time>2021-08-18T17:47:48Z</time>
      </trkpt>
      <trkpt lat="43.65699" lon="0.62841">
        <ele>146.26</ele>
        <time>2021-08-18T17:47:49Z</time>
      </trkpt>
      <trkpt lat="43.657" lon="0.62836">
        <ele>146.26</ele>
        <time>2021-08-18T17:47:50Z</time>
      </trkpt>
      <trkpt lat="43.657" lon="0.6283">
        <ele>146.26</ele>
        <time>2021-08-18T17:47:51Z</time>
      </trkpt>
      <trkpt lat="43.65704" lon="0.62782">
        <ele>146.74</ele>
        <time>2021-08-18T17:48:00Z</time>
      </trkpt>
      <trkpt lat="43.65706" lon="0.62772">
        <ele>147.7</ele>
        <time>2021-08-18T17:48:02Z</time>
      </trkpt>
      <trkpt lat="43.65716" lon="0.6275">
        <ele>148.18</ele>
        <time>2021-08-18T17:48:08Z</time>
      </trkpt>
      <trkpt lat="43.65717" lon="0.6273">
        <ele>148.66</ele>
        <time>2021-08-18T17:48:14Z</time>
      </trkpt>
      <trkpt lat="43.65704" lon="0.62708">
        <ele>149.14</ele>
        <time>2021-08-18T17:48:20Z</time>
      </trkpt>
      <trkpt lat="43.65682" lon="0.62676">
        <ele>150.58</ele>
        <time>2021-08-18T17:48:30Z</time>
      </trkpt>
      <trkpt lat="43.65662" lon="0.62646">
        <ele>151.54</ele>
        <time>2021-08-18T17:48:39Z</time>
      </trkpt>
      <trkpt lat="43.65639" lon="0.62611">
        <ele>152.99</ele>
        <time>2021-08-18T17:48:49Z</time>
      </trkpt>
      <trkpt lat="43.65627" lon="0.62594">
        <ele>153.95</ele>
        <time>2021-08-18T17:48:55Z</time>
      </trkpt>
      <trkpt lat="43.65625" lon="0.62594">
        <ele>153.95</ele>
        <time>2021-08-18T17:48:56Z</time>
      </trkpt>
      <trkpt lat="43.65628" lon="0.626">
        <ele>154.43</ele>
        <time>2021-08-18T17:48:58Z</time>
      </trkpt>
      <trkpt lat="43.6563" lon="0.62604">
        <ele>154.43</ele>
        <time>2021-08-18T17:48:59Z</time>
      </trkpt>
      <trkpt lat="43.65633" lon="0.62607">
        <ele>154.43</ele>
        <time>2021-08-18T17:49:00Z</time>
      </trkpt>
      <trkpt lat="43.65635" lon="0.62611">
        <ele>154.43</ele>
        <time>2021-08-18T17:49:01Z</time>
      </trkpt>
      <trkpt lat="43.65641" lon="0.62622">
        <ele>153.47</ele>
        <time>2021-08-18T17:49:03Z</time>
      </trkpt>
      <trkpt lat="43.65671" lon="0.62666">
        <ele>151.54</ele>
        <time>2021-08-18T17:49:11Z</time>
      </trkpt>
      <trkpt lat="43.65702" lon="0.62713">
        <ele>149.62</ele>
        <time>2021-08-18T17:49:19Z</time>
      </trkpt>
      <trkpt lat="43.65713" lon="0.6273">
        <ele>149.14</ele>
        <time>2021-08-18T17:49:25Z</time>
      </trkpt>
      <trkpt lat="43.65729" lon="0.62737">
        <ele>148.18</ele>
        <time>2021-08-18T17:49:30Z</time>
      </trkpt>
      <trkpt lat="43.65732" lon="0.62735">
        <ele>147.7</ele>
        <time>2021-08-18T17:49:31Z</time>
      </trkpt>
      <trkpt lat="43.65734" lon="0.62732">
        <ele>147.7</ele>
        <time>2021-08-18T17:49:32Z</time>
      </trkpt>
      <trkpt lat="43.65736" lon="0.62727">
        <ele>147.7</ele>
        <time>2021-08-18T17:49:33Z</time>
      </trkpt>
      <trkpt lat="43.65737" lon="0.62722">
        <ele>147.22</ele>
        <time>2021-08-18T17:49:34Z</time>
      </trkpt>
      <trkpt lat="43.65739" lon="0.62718">
        <ele>147.22</ele>
        <time>2021-08-18T17:49:35Z</time>
      </trkpt>
      <trkpt lat="43.65741" lon="0.62715">
        <ele>146.74</ele>
        <time>2021-08-18T17:49:36Z</time>
      </trkpt>
      <trkpt lat="43.65744" lon="0.62713">
        <ele>146.74</ele>
        <time>2021-08-18T17:49:37Z</time>
      </trkpt>
      <trkpt lat="43.65746" lon="0.6271">
        <ele>146.74</ele>
        <time>2021-08-18T17:49:38Z</time>
      </trkpt>
      <trkpt lat="43.65747" lon="0.62706">
        <ele>146.74</ele>
        <time>2021-08-18T17:49:39Z</time>
      </trkpt>
      <trkpt lat="43.65748" lon="0.62702">
        <ele>146.74</ele>
        <time>2021-08-18T17:49:40Z</time>
      </trkpt>
      <trkpt lat="43.65748" lon="0.62697">
        <ele>146.74</ele>
        <time>2021-08-18T17:49:41Z</time>
      </trkpt>
      <trkpt lat="43.65749" lon="0.62693">
        <ele>146.74</ele>
        <time>2021-08-18T17:49:42Z</time>
      </trkpt>
      <trkpt lat="43.65746" lon="0.62675">
        <ele>146.74</ele>
        <time>2021-08-18T17:49:47Z</time>
      </trkpt>
      <trkpt lat="43.65738" lon="0.62644">
        <ele>148.66</ele>
        <time>2021-08-18T17:49:56Z</time>
      </trkpt>
      <trkpt lat="43.65732" lon="0.62613">
        <ele>149.14</ele>
        <time>2021-08-18T17:50:03Z</time>
      </trkpt>
      <trkpt lat="43.65723" lon="0.62575">
        <ele>150.58</ele>
        <time>2021-08-18T17:50:12Z</time>
      </trkpt>
      <trkpt lat="43.65716" lon="0.62539">
        <ele>151.54</ele>
        <time>2021-08-18T17:50:21Z</time>
      </trkpt>
      <trkpt lat="43.65705" lon="0.62487">
        <ele>153.47</ele>
        <time>2021-08-18T17:50:34Z</time>
      </trkpt>
      <trkpt lat="43.65696" lon="0.62447">
        <ele>154.91</ele>
        <time>2021-08-18T17:50:45Z</time>
      </trkpt>
      <trkpt lat="43.6569" lon="0.62417">
        <ele>156.35</ele>
        <time>2021-08-18T17:50:54Z</time>
      </trkpt>
      <trkpt lat="43.65685" lon="0.62388">
        <ele>157.79</ele>
        <time>2021-08-18T17:51:03Z</time>
      </trkpt>
      <trkpt lat="43.65678" lon="0.62358">
        <ele>159.24</ele>
        <time>2021-08-18T17:51:13Z</time>
      </trkpt>
      <trkpt lat="43.65672" lon="0.6233">
        <ele>160.68</ele>
        <time>2021-08-18T17:51:23Z</time>
      </trkpt>
      <trkpt lat="43.65664" lon="0.62295">
        <ele>162.6</ele>
        <time>2021-08-18T17:51:36Z</time>
      </trkpt>
      <trkpt lat="43.65657" lon="0.62266">
        <ele>165</ele>
        <time>2021-08-18T17:51:47Z</time>
      </trkpt>
      <trkpt lat="43.65652" lon="0.62242">
        <ele>165.96</ele>
        <time>2021-08-18T17:51:56Z</time>
      </trkpt>
      <trkpt lat="43.65646" lon="0.62222">
        <ele>167.89</ele>
        <time>2021-08-18T17:52:04Z</time>
      </trkpt>
      <trkpt lat="43.65637" lon="0.62189">
        <ele>169.81</ele>
        <time>2021-08-18T17:52:16Z</time>
      </trkpt>
      <trkpt lat="43.65632" lon="0.62167">
        <ele>171.25</ele>
        <time>2021-08-18T17:52:25Z</time>
      </trkpt>
      <trkpt lat="43.65627" lon="0.62146">
        <ele>172.69</ele>
        <time>2021-08-18T17:52:33Z</time>
      </trkpt>
      <trkpt lat="43.65621" lon="0.62119">
        <ele>174.62</ele>
        <time>2021-08-18T17:52:43Z</time>
      </trkpt>
      <trkpt lat="43.65617" lon="0.62095">
        <ele>176.06</ele>
        <time>2021-08-18T17:52:52Z</time>
      </trkpt>
      <trkpt lat="43.65613" lon="0.62072">
        <ele>177.98</ele>
        <time>2021-08-18T17:53:01Z</time>
      </trkpt>
      <trkpt lat="43.65608" lon="0.62049">
        <ele>179.42</ele>
        <time>2021-08-18T17:53:11Z</time>
      </trkpt>
      <trkpt lat="43.65602" lon="0.62026">
        <ele>181.35</ele>
        <time>2021-08-18T17:53:21Z</time>
      </trkpt>
      <trkpt lat="43.65597" lon="0.62006">
        <ele>182.79</ele>
        <time>2021-08-18T17:53:30Z</time>
      </trkpt>
      <trkpt lat="43.65593" lon="0.61981">
        <ele>184.71</ele>
        <time>2021-08-18T17:53:40Z</time>
      </trkpt>
      <trkpt lat="43.65586" lon="0.6195">
        <ele>186.63</ele>
        <time>2021-08-18T17:53:51Z</time>
      </trkpt>
      <trkpt lat="43.65577" lon="0.61918">
        <ele>188.56</ele>
        <time>2021-08-18T17:54:02Z</time>
      </trkpt>
      <trkpt lat="43.65569" lon="0.61876">
        <ele>189.52</ele>
        <time>2021-08-18T17:54:13Z</time>
      </trkpt>
      <trkpt lat="43.6556" lon="0.61828">
        <ele>190</ele>
        <time>2021-08-18T17:54:22Z</time>
      </trkpt>
      <trkpt lat="43.6556" lon="0.61823">
        <ele>190</ele>
        <time>2021-08-18T17:54:23Z</time>
      </trkpt>
      <trkpt lat="43.65555" lon="0.61794">
        <ele>190</ele>
        <time>2021-08-18T17:54:28Z</time>
      </trkpt>
      <trkpt lat="43.65549" lon="0.61756">
        <ele>190</ele>
        <time>2021-08-18T17:54:35Z</time>
      </trkpt>
      <trkpt lat="43.65548" lon="0.61749">
        <ele>188.56</ele>
        <time>2021-08-18T17:54:36Z</time>
      </trkpt>
      <trkpt lat="43.6554" lon="0.61695">
        <ele>188.56</ele>
        <time>2021-08-18T17:54:44Z</time>
      </trkpt>
      <trkpt lat="43.65532" lon="0.61646">
        <ele>188.56</ele>
        <time>2021-08-18T17:54:53Z</time>
      </trkpt>
      <trkpt lat="43.65525" lon="0.61611">
        <ele>188.56</ele>
        <time>2021-08-18T17:55:01Z</time>
      </trkpt>
      <trkpt lat="43.65521" lon="0.61596">
        <ele>188.08</ele>
        <time>2021-08-18T17:55:04Z</time>
      </trkpt>
      <trkpt lat="43.65517" lon="0.61585">
        <ele>187.59</ele>
        <time>2021-08-18T17:55:06Z</time>
      </trkpt>
      <trkpt lat="43.65515" lon="0.61578">
        <ele>187.59</ele>
        <time>2021-08-18T17:55:07Z</time>
      </trkpt>
      <trkpt lat="43.65501" lon="0.61528">
        <ele>185.19</ele>
        <time>2021-08-18T17:55:14Z</time>
      </trkpt>
      <trkpt lat="43.65483" lon="0.6147">
        <ele>181.83</ele>
        <time>2021-08-18T17:55:21Z</time>
      </trkpt>
      <trkpt lat="43.6547" lon="0.61429">
        <ele>178.46</ele>
        <time>2021-08-18T17:55:25Z</time>
      </trkpt>
      <trkpt lat="43.65458" lon="0.61392">
        <ele>175.58</ele>
        <time>2021-08-18T17:55:28Z</time>
      </trkpt>
      <trkpt lat="43.65445" lon="0.61344">
        <ele>172.21</ele>
        <time>2021-08-18T17:55:32Z</time>
      </trkpt>
      <trkpt lat="43.65445" lon="0.61338">
        <ele>172.21</ele>
        <time>2021-08-18T17:55:33Z</time>
      </trkpt>
      <trkpt lat="43.65448" lon="0.61335">
        <ele>172.21</ele>
        <time>2021-08-18T17:55:34Z</time>
      </trkpt>
      <trkpt lat="43.65452" lon="0.61334">
        <ele>171.73</ele>
        <time>2021-08-18T17:55:35Z</time>
      </trkpt>
      <trkpt lat="43.65456" lon="0.61333">
        <ele>171.25</ele>
        <time>2021-08-18T17:55:36Z</time>
      </trkpt>
      <trkpt lat="43.65477" lon="0.61326">
        <ele>171.25</ele>
        <time>2021-08-18T17:55:41Z</time>
      </trkpt>
      <trkpt lat="43.65482" lon="0.61325">
        <ele>171.25</ele>
        <time>2021-08-18T17:55:42Z</time>
      </trkpt>
      <trkpt lat="43.65517" lon="0.61312">
        <ele>171.25</ele>
        <time>2021-08-18T17:55:49Z</time>
      </trkpt>
      <trkpt lat="43.6555" lon="0.61294">
        <ele>172.69</ele>
        <time>2021-08-18T17:55:57Z</time>
      </trkpt>
      <trkpt lat="43.65568" lon="0.61274">
        <ele>175.1</ele>
        <time>2021-08-18T17:56:05Z</time>
      </trkpt>
      <trkpt lat="43.65578" lon="0.61248">
        <ele>176.54</ele>
        <time>2021-08-18T17:56:13Z</time>
      </trkpt>
      <trkpt lat="43.65588" lon="0.61219">
        <ele>177.02</ele>
        <time>2021-08-18T17:56:21Z</time>
      </trkpt>
      <trkpt lat="43.65602" lon="0.61181">
        <ele>177.5</ele>
        <time>2021-08-18T17:56:30Z</time>
      </trkpt>
      <trkpt lat="43.6561" lon="0.61162">
        <ele>179.42</ele>
        <time>2021-08-18T17:56:36Z</time>
      </trkpt>
      <trkpt lat="43.65623" lon="0.6115">
        <ele>180.38</ele>
        <time>2021-08-18T17:56:42Z</time>
      </trkpt>
      <trkpt lat="43.6564" lon="0.61125">
        <ele>180.87</ele>
        <time>2021-08-18T17:56:50Z</time>
      </trkpt>
      <trkpt lat="43.6565" lon="0.61102">
        <ele>182.79</ele>
        <time>2021-08-18T17:56:58Z</time>
      </trkpt>
      <trkpt lat="43.65659" lon="0.61081">
        <ele>184.71</ele>
        <time>2021-08-18T17:57:07Z</time>
      </trkpt>
      <trkpt lat="43.65666" lon="0.61064">
        <ele>185.19</ele>
        <time>2021-08-18T17:57:13Z</time>
      </trkpt>
      <trkpt lat="43.65666" lon="0.61058">
        <ele>185.19</ele>
        <time>2021-08-18T17:57:14Z</time>
      </trkpt>
      <trkpt lat="43.65664" lon="0.61054">
        <ele>183.75</ele>
        <time>2021-08-18T17:57:15Z</time>
      </trkpt>
      <trkpt lat="43.65661" lon="0.61049">
        <ele>183.75</ele>
        <time>2021-08-18T17:57:16Z</time>
      </trkpt>
      <trkpt lat="43.65656" lon="0.61044">
        <ele>182.79</ele>
        <time>2021-08-18T17:57:17Z</time>
      </trkpt>
      <trkpt lat="43.65653" lon="0.6104">
        <ele>181.83</ele>
        <time>2021-08-18T17:57:18Z</time>
      </trkpt>
      <trkpt lat="43.65648" lon="0.61035">
        <ele>181.35</ele>
        <time>2021-08-18T17:57:19Z</time>
      </trkpt>
      <trkpt lat="43.65639" lon="0.6102">
        <ele>180.38</ele>
        <time>2021-08-18T17:57:21Z</time>
      </trkpt>
      <trkpt lat="43.65627" lon="0.60993">
        <ele>178.46</ele>
        <time>2021-08-18T17:57:24Z</time>
      </trkpt>
      <trkpt lat="43.6562" lon="0.60974">
        <ele>177.5</ele>
        <time>2021-08-18T17:57:26Z</time>
      </trkpt>
      <trkpt lat="43.6559" lon="0.60914">
        <ele>174.14</ele>
        <time>2021-08-18T17:57:33Z</time>
      </trkpt>
      <trkpt lat="43.65585" lon="0.60906">
        <ele>174.14</ele>
        <time>2021-08-18T17:57:34Z</time>
      </trkpt>
      <trkpt lat="43.6556" lon="0.60861">
        <ele>171.25</ele>
        <time>2021-08-18T17:57:39Z</time>
      </trkpt>
      <trkpt lat="43.65537" lon="0.60821">
        <ele>169.33</ele>
        <time>2021-08-18T17:57:44Z</time>
      </trkpt>
      <trkpt lat="43.65534" lon="0.60813">
        <ele>169.33</ele>
        <time>2021-08-18T17:57:45Z</time>
      </trkpt>
      <trkpt lat="43.65532" lon="0.60805">
        <ele>169.33</ele>
        <time>2021-08-18T17:57:46Z</time>
      </trkpt>
      <trkpt lat="43.65531" lon="0.60796">
        <ele>168.85</ele>
        <time>2021-08-18T17:57:47Z</time>
      </trkpt>
      <trkpt lat="43.65532" lon="0.60787">
        <ele>168.85</ele>
        <time>2021-08-18T17:57:48Z</time>
      </trkpt>
      <trkpt lat="43.65534" lon="0.60782">
        <ele>168.37</ele>
        <time>2021-08-18T17:57:49Z</time>
      </trkpt>
      <trkpt lat="43.65536" lon="0.60775">
        <ele>168.85</ele>
        <time>2021-08-18T17:57:50Z</time>
      </trkpt>
      <trkpt lat="43.65553" lon="0.60716">
        <ele>165.48</ele>
        <time>2021-08-18T17:57:57Z</time>
      </trkpt>
      <trkpt lat="43.65575" lon="0.60651">
        <ele>162.6</ele>
        <time>2021-08-18T17:58:04Z</time>
      </trkpt>
      <trkpt lat="43.65588" lon="0.60609">
        <ele>160.68</ele>
        <time>2021-08-18T17:58:08Z</time>
      </trkpt>
      <trkpt lat="43.65603" lon="0.60562">
        <ele>156.83</ele>
        <time>2021-08-18T17:58:12Z</time>
      </trkpt>
      <trkpt lat="43.65613" lon="0.60525">
        <ele>155.39</ele>
        <time>2021-08-18T17:58:15Z</time>
      </trkpt>
      <trkpt lat="43.65635" lon="0.60444">
        <ele>153.95</ele>
        <time>2021-08-18T17:58:22Z</time>
      </trkpt>
      <trkpt lat="43.6564" lon="0.60438">
        <ele>153.47</ele>
        <time>2021-08-18T17:58:23Z</time>
      </trkpt>
      <trkpt lat="43.65647" lon="0.60433">
        <ele>152.99</ele>
        <time>2021-08-18T17:58:24Z</time>
      </trkpt>
      <trkpt lat="43.65654" lon="0.60431">
        <ele>152.51</ele>
        <time>2021-08-18T17:58:25Z</time>
      </trkpt>
      <trkpt lat="43.65662" lon="0.60427">
        <ele>152.51</ele>
        <time>2021-08-18T17:58:26Z</time>
      </trkpt>
      <trkpt lat="43.65667" lon="0.60422">
        <ele>152.03</ele>
        <time>2021-08-18T17:58:27Z</time>
      </trkpt>
      <trkpt lat="43.65671" lon="0.60412">
        <ele>151.06</ele>
        <time>2021-08-18T17:58:28Z</time>
      </trkpt>
      <trkpt lat="43.65673" lon="0.60404">
        <ele>150.58</ele>
        <time>2021-08-18T17:58:29Z</time>
      </trkpt>
      <trkpt lat="43.65674" lon="0.60393">
        <ele>149.62</ele>
        <time>2021-08-18T17:58:30Z</time>
      </trkpt>
      <trkpt lat="43.65676" lon="0.60343">
        <ele>146.26</ele>
        <time>2021-08-18T17:58:34Z</time>
      </trkpt>
      <trkpt lat="43.65679" lon="0.60304">
        <ele>142.89</ele>
        <time>2021-08-18T17:58:37Z</time>
      </trkpt>
      <trkpt lat="43.65681" lon="0.6029">
        <ele>142.41</ele>
        <time>2021-08-18T17:58:38Z</time>
      </trkpt>
      <trkpt lat="43.65684" lon="0.60232">
        <ele>139.53</ele>
        <time>2021-08-18T17:58:42Z</time>
      </trkpt>
      <trkpt lat="43.65685" lon="0.60218">
        <ele>139.53</ele>
        <time>2021-08-18T17:58:43Z</time>
      </trkpt>
      <trkpt lat="43.65687" lon="0.60191">
        <ele>138.09</ele>
        <time>2021-08-18T17:58:45Z</time>
      </trkpt>
      <trkpt lat="43.65688" lon="0.60155">
        <ele>136.64</ele>
        <time>2021-08-18T17:58:48Z</time>
      </trkpt>
      <trkpt lat="43.6569" lon="0.60144">
        <ele>136.16</ele>
        <time>2021-08-18T17:58:49Z</time>
      </trkpt>
      <trkpt lat="43.65694" lon="0.60107">
        <ele>135.2</ele>
        <time>2021-08-18T17:58:52Z</time>
      </trkpt>
      <trkpt lat="43.65698" lon="0.60061">
        <ele>133.76</ele>
        <time>2021-08-18T17:58:56Z</time>
      </trkpt>
      <trkpt lat="43.65705" lon="0.59978">
        <ele>132.8</ele>
        <time>2021-08-18T17:59:04Z</time>
      </trkpt>
      <trkpt lat="43.65711" lon="0.59907">
        <ele>132.32</ele>
        <time>2021-08-18T17:59:12Z</time>
      </trkpt>
      <trkpt lat="43.65717" lon="0.59834">
        <ele>131.36</ele>
        <time>2021-08-18T17:59:21Z</time>
      </trkpt>
      <trkpt lat="43.6572" lon="0.59784">
        <ele>130.4</ele>
        <time>2021-08-18T17:59:28Z</time>
      </trkpt>
      <trkpt lat="43.65723" lon="0.59763">
        <ele>130.88</ele>
        <time>2021-08-18T17:59:35Z</time>
      </trkpt>
      <trkpt lat="43.65723" lon="0.59764">
        <ele>130.4</ele>
        <time>2021-08-18T17:59:52Z</time>
      </trkpt>
      <trkpt lat="43.65724" lon="0.59753">
        <ele>130.4</ele>
        <time>2021-08-18T17:59:58Z</time>
      </trkpt>
      <trkpt lat="43.65724" lon="0.59738">
        <ele>130.4</ele>
        <time>2021-08-18T18:00:02Z</time>
      </trkpt>
      <trkpt lat="43.65722" lon="0.59735">
        <ele>130.4</ele>
        <time>2021-08-18T18:00:03Z</time>
      </trkpt>
      <trkpt lat="43.65719" lon="0.59732">
        <ele>130.4</ele>
        <time>2021-08-18T18:00:04Z</time>
      </trkpt>
      <trkpt lat="43.65716" lon="0.59729">
        <ele>130.4</ele>
        <time>2021-08-18T18:00:05Z</time>
      </trkpt>
      <trkpt lat="43.65713" lon="0.59727">
        <ele>130.4</ele>
        <time>2021-08-18T18:00:06Z</time>
      </trkpt>
      <trkpt lat="43.65687" lon="0.59713">
        <ele>130.4</ele>
        <time>2021-08-18T18:00:13Z</time>
      </trkpt>
      <trkpt lat="43.65648" lon="0.59693">
        <ele>130.4</ele>
        <time>2021-08-18T18:00:22Z</time>
      </trkpt>
      <trkpt lat="43.65612" lon="0.59675">
        <ele>129.92</ele>
        <time>2021-08-18T18:00:30Z</time>
      </trkpt>
      <trkpt lat="43.65568" lon="0.59652">
        <ele>129.92</ele>
        <time>2021-08-18T18:00:40Z</time>
      </trkpt>
      <trkpt lat="43.65514" lon="0.59625">
        <ele>129.92</ele>
        <time>2021-08-18T18:00:51Z</time>
      </trkpt>
      <trkpt lat="43.65483" lon="0.59609">
        <ele>130.88</ele>
        <time>2021-08-18T18:00:58Z</time>
      </trkpt>
      <trkpt lat="43.65479" lon="0.59607">
        <ele>130.88</ele>
        <time>2021-08-18T18:00:59Z</time>
      </trkpt>
      <trkpt lat="43.65471" lon="0.59604">
        <ele>130.88</ele>
        <time>2021-08-18T18:01:01Z</time>
      </trkpt>
      <trkpt lat="43.65467" lon="0.59605">
        <ele>130.88</ele>
        <time>2021-08-18T18:01:02Z</time>
      </trkpt>
      <trkpt lat="43.65464" lon="0.59608">
        <ele>130.88</ele>
        <time>2021-08-18T18:01:03Z</time>
      </trkpt>
      <trkpt lat="43.65464" lon="0.59611">
        <ele>130.88</ele>
        <time>2021-08-18T18:01:04Z</time>
      </trkpt>
      <trkpt lat="43.65466" lon="0.59612">
        <ele>130.88</ele>
        <time>2021-08-18T18:01:05Z</time>
      </trkpt>
      <trkpt lat="43.65469" lon="0.59613">
        <ele>130.88</ele>
        <time>2021-08-18T18:01:06Z</time>
      </trkpt>
      <trkpt lat="43.65472" lon="0.59614">
        <ele>130.88</ele>
        <time>2021-08-18T18:01:07Z</time>
      </trkpt>
      <trkpt lat="43.65486" lon="0.59621">
        <ele>130.88</ele>
        <time>2021-08-18T18:01:11Z</time>
      </trkpt>
      <trkpt lat="43.6552" lon="0.59638">
        <ele>130.88</ele>
        <time>2021-08-18T18:01:18Z</time>
      </trkpt>
      <trkpt lat="43.65557" lon="0.59657">
        <ele>130.88</ele>
        <time>2021-08-18T18:01:26Z</time>
      </trkpt>
      <trkpt lat="43.65573" lon="0.59664">
        <ele>130.88</ele>
        <time>2021-08-18T18:01:31Z</time>
      </trkpt>
      <trkpt lat="43.65577" lon="0.59662">
        <ele>130.88</ele>
        <time>2021-08-18T18:01:33Z</time>
      </trkpt>
      <trkpt lat="43.65578" lon="0.59659">
        <ele>130.88</ele>
        <time>2021-08-18T18:01:34Z</time>
      </trkpt>
      <trkpt lat="43.65579" lon="0.59654">
        <ele>130.88</ele>
        <time>2021-08-18T18:01:35Z</time>
      </trkpt>
      <trkpt lat="43.6558" lon="0.59649">
        <ele>129.43</ele>
        <time>2021-08-18T18:01:36Z</time>
      </trkpt>
      <trkpt lat="43.65581" lon="0.59643">
        <ele>129.43</ele>
        <time>2021-08-18T18:01:37Z</time>
      </trkpt>
      <trkpt lat="43.65582" lon="0.59636">
        <ele>129.43</ele>
        <time>2021-08-18T18:01:38Z</time>
      </trkpt>
      <trkpt lat="43.65584" lon="0.5963">
        <ele>129.43</ele>
        <time>2021-08-18T18:01:39Z</time>
      </trkpt>
      <trkpt lat="43.65585" lon="0.59623">
        <ele>128.95</ele>
        <time>2021-08-18T18:01:40Z</time>
      </trkpt>
      <trkpt lat="43.65587" lon="0.59617">
        <ele>128.95</ele>
        <time>2021-08-18T18:01:41Z</time>
      </trkpt>
      <trkpt lat="43.65588" lon="0.59611">
        <ele>128.95</ele>
        <time>2021-08-18T18:01:42Z</time>
      </trkpt>
      <trkpt lat="43.6559" lon="0.59605">
        <ele>128.95</ele>
        <time>2021-08-18T18:01:43Z</time>
      </trkpt>
      <trkpt lat="43.65592" lon="0.59598">
        <ele>128.95</ele>
        <time>2021-08-18T18:01:44Z</time>
      </trkpt>
      <trkpt lat="43.65597" lon="0.59564">
        <ele>128.47</ele>
        <time>2021-08-18T18:01:50Z</time>
      </trkpt>
      <trkpt lat="43.65594" lon="0.5956">
        <ele>128.47</ele>
        <time>2021-08-18T18:01:51Z</time>
      </trkpt>
      <trkpt lat="43.65591" lon="0.59558">
        <ele>128.47</ele>
        <time>2021-08-18T18:01:52Z</time>
      </trkpt>
      <trkpt lat="43.65588" lon="0.59557">
        <ele>128.47</ele>
        <time>2021-08-18T18:01:53Z</time>
      </trkpt>
      <trkpt lat="43.65584" lon="0.59556">
        <ele>128.47</ele>
        <time>2021-08-18T18:01:54Z</time>
      </trkpt>
      <trkpt lat="43.6558" lon="0.59554">
        <ele>128.47</ele>
        <time>2021-08-18T18:01:55Z</time>
      </trkpt>
      <trkpt lat="43.65576" lon="0.59552">
        <ele>128.47</ele>
        <time>2021-08-18T18:01:56Z</time>
      </trkpt>
      <trkpt lat="43.65574" lon="0.59548">
        <ele>128.47</ele>
        <time>2021-08-18T18:01:57Z</time>
      </trkpt>
      <trkpt lat="43.65573" lon="0.59542">
        <ele>128.47</ele>
        <time>2021-08-18T18:01:58Z</time>
      </trkpt>
      <trkpt lat="43.65569" lon="0.59513">
        <ele>127.99</ele>
        <time>2021-08-18T18:02:04Z</time>
      </trkpt>
      <trkpt lat="43.65558" lon="0.59496">
        <ele>127.99</ele>
        <time>2021-08-18T18:02:10Z</time>
      </trkpt>
      <trkpt lat="43.65555" lon="0.59492">
        <ele>127.99</ele>
        <time>2021-08-18T18:02:11Z</time>
      </trkpt>
      <trkpt lat="43.65553" lon="0.59487">
        <ele>127.99</ele>
        <time>2021-08-18T18:02:12Z</time>
      </trkpt>
      <trkpt lat="43.65552" lon="0.59481">
        <ele>127.99</ele>
        <time>2021-08-18T18:02:13Z</time>
      </trkpt>
      <trkpt lat="43.65551" lon="0.59447">
        <ele>127.51</ele>
        <time>2021-08-18T18:02:18Z</time>
      </trkpt>
      <trkpt lat="43.65557" lon="0.59414">
        <ele>127.03</ele>
        <time>2021-08-18T18:02:23Z</time>
      </trkpt>
      <trkpt lat="43.65558" lon="0.59407">
        <ele>127.03</ele>
        <time>2021-08-18T18:02:24Z</time>
      </trkpt>
      <trkpt lat="43.65558" lon="0.59401">
        <ele>127.03</ele>
        <time>2021-08-18T18:02:25Z</time>
      </trkpt>
      <trkpt lat="43.65558" lon="0.59395">
        <ele>127.03</ele>
        <time>2021-08-18T18:02:26Z</time>
      </trkpt>
      <trkpt lat="43.65557" lon="0.59389">
        <ele>127.03</ele>
        <time>2021-08-18T18:02:27Z</time>
      </trkpt>
      <trkpt lat="43.65556" lon="0.59383">
        <ele>127.03</ele>
        <time>2021-08-18T18:02:28Z</time>
      </trkpt>
      <trkpt lat="43.65554" lon="0.59378">
        <ele>127.03</ele>
        <time>2021-08-18T18:02:29Z</time>
      </trkpt>
      <trkpt lat="43.65551" lon="0.59373">
        <ele>127.03</ele>
        <time>2021-08-18T18:02:30Z</time>
      </trkpt>
      <trkpt lat="43.65548" lon="0.59368">
        <ele>127.03</ele>
        <time>2021-08-18T18:02:31Z</time>
      </trkpt>
      <trkpt lat="43.65542" lon="0.59357">
        <ele>127.03</ele>
        <time>2021-08-18T18:02:33Z</time>
      </trkpt>
      <trkpt lat="43.6554" lon="0.59352">
        <ele>127.03</ele>
        <time>2021-08-18T18:02:34Z</time>
      </trkpt>
      <trkpt lat="43.65539" lon="0.59345">
        <ele>127.03</ele>
        <time>2021-08-18T18:02:35Z</time>
      </trkpt>
      <trkpt lat="43.65538" lon="0.59339">
        <ele>127.03</ele>
        <time>2021-08-18T18:02:36Z</time>
      </trkpt>
      <trkpt lat="43.65537" lon="0.59333">
        <ele>127.03</ele>
        <time>2021-08-18T18:02:37Z</time>
      </trkpt>
      <trkpt lat="43.65538" lon="0.59327">
        <ele>127.03</ele>
        <time>2021-08-18T18:02:38Z</time>
      </trkpt>
      <trkpt lat="43.6554" lon="0.59321">
        <ele>127.03</ele>
        <time>2021-08-18T18:02:39Z</time>
      </trkpt>
      <trkpt lat="43.65541" lon="0.59316">
        <ele>127.03</ele>
        <time>2021-08-18T18:02:40Z</time>
      </trkpt>
      <trkpt lat="43.65554" lon="0.59281">
        <ele>127.03</ele>
        <time>2021-08-18T18:02:46Z</time>
      </trkpt>
      <trkpt lat="43.65558" lon="0.5927">
        <ele>127.03</ele>
        <time>2021-08-18T18:02:48Z</time>
      </trkpt>
      <trkpt lat="43.6556" lon="0.59265">
        <ele>127.03</ele>
        <time>2021-08-18T18:02:49Z</time>
      </trkpt>
      <trkpt lat="43.65562" lon="0.59261">
        <ele>127.03</ele>
        <time>2021-08-18T18:02:50Z</time>
      </trkpt>
      <trkpt lat="43.65564" lon="0.59256">
        <ele>127.03</ele>
        <time>2021-08-18T18:02:51Z</time>
      </trkpt>
      <trkpt lat="43.65566" lon="0.59251">
        <ele>127.03</ele>
        <time>2021-08-18T18:02:52Z</time>
      </trkpt>
      <trkpt lat="43.65567" lon="0.59246">
        <ele>128.47</ele>
        <time>2021-08-18T18:02:53Z</time>
      </trkpt>
      <trkpt lat="43.65567" lon="0.59243">
        <ele>128.95</ele>
        <time>2021-08-18T18:02:54Z</time>
      </trkpt>
      <trkpt lat="43.65566" lon="0.59241">
        <ele>128.95</ele>
        <time>2021-08-18T18:02:55Z</time>
      </trkpt>
      <trkpt lat="43.65564" lon="0.59238">
        <ele>128.95</ele>
        <time>2021-08-18T18:02:56Z</time>
      </trkpt>
      <trkpt lat="43.65561" lon="0.59236">
        <ele>128.95</ele>
        <time>2021-08-18T18:02:57Z</time>
      </trkpt>
      <trkpt lat="43.65557" lon="0.59235">
        <ele>128.95</ele>
        <time>2021-08-18T18:02:58Z</time>
      </trkpt>
      <trkpt lat="43.65525" lon="0.59222">
        <ele>128.95</ele>
        <time>2021-08-18T18:03:05Z</time>
      </trkpt>
      <trkpt lat="43.65475" lon="0.59205">
        <ele>128.95</ele>
        <time>2021-08-18T18:03:15Z</time>
      </trkpt>
      <trkpt lat="43.6542" lon="0.59183">
        <ele>128.95</ele>
        <time>2021-08-18T18:03:26Z</time>
      </trkpt>
      <trkpt lat="43.65367" lon="0.59154">
        <ele>128.95</ele>
        <time>2021-08-18T18:03:37Z</time>
      </trkpt>
      <trkpt lat="43.65345" lon="0.59141">
        <ele>128.95</ele>
        <time>2021-08-18T18:03:42Z</time>
      </trkpt>
      <trkpt lat="43.65341" lon="0.5914">
        <ele>128.95</ele>
        <time>2021-08-18T18:03:43Z</time>
      </trkpt>
      <trkpt lat="43.65337" lon="0.59139">
        <ele>129.43</ele>
        <time>2021-08-18T18:03:44Z</time>
      </trkpt>
      <trkpt lat="43.65301" lon="0.59127">
        <ele>129.43</ele>
        <time>2021-08-18T18:03:52Z</time>
      </trkpt>
      <trkpt lat="43.65267" lon="0.59121">
        <ele>129.92</ele>
        <time>2021-08-18T18:03:59Z</time>
      </trkpt>
      <trkpt lat="43.65229" lon="0.59121">
        <ele>129.92</ele>
        <time>2021-08-18T18:04:07Z</time>
      </trkpt>
      <trkpt lat="43.65186" lon="0.59128">
        <ele>129.92</ele>
        <time>2021-08-18T18:04:16Z</time>
      </trkpt>
      <trkpt lat="43.65171" lon="0.59132">
        <ele>129.92</ele>
        <time>2021-08-18T18:04:19Z</time>
      </trkpt>
      <trkpt lat="43.65132" lon="0.59139">
        <ele>129.92</ele>
        <time>2021-08-18T18:04:26Z</time>
      </trkpt>
      <trkpt lat="43.6508" lon="0.59145">
        <ele>127.03</ele>
        <time>2021-08-18T18:04:34Z</time>
      </trkpt>
      <trkpt lat="43.65037" lon="0.59138">
        <ele>127.03</ele>
        <time>2021-08-18T18:04:41Z</time>
      </trkpt>
      <trkpt lat="43.65009" lon="0.5913">
        <ele>127.03</ele>
        <time>2021-08-18T18:04:47Z</time>
      </trkpt>
      <trkpt lat="43.65004" lon="0.59127">
        <ele>127.03</ele>
        <time>2021-08-18T18:04:48Z</time>
      </trkpt>
      <trkpt lat="43.65001" lon="0.59124">
        <ele>127.03</ele>
        <time>2021-08-18T18:04:49Z</time>
      </trkpt>
      <trkpt lat="43.6497" lon="0.591">
        <ele>127.03</ele>
        <time>2021-08-18T18:04:57Z</time>
      </trkpt>
      <trkpt lat="43.64946" lon="0.59081">
        <ele>127.99</ele>
        <time>2021-08-18T18:05:03Z</time>
      </trkpt>
      <trkpt lat="43.64943" lon="0.59078">
        <ele>128.95</ele>
        <time>2021-08-18T18:05:04Z</time>
      </trkpt>
      <trkpt lat="43.64938" lon="0.59076">
        <ele>128.95</ele>
        <time>2021-08-18T18:05:05Z</time>
      </trkpt>
      <trkpt lat="43.64934" lon="0.59073">
        <ele>128.95</ele>
        <time>2021-08-18T18:05:06Z</time>
      </trkpt>
      <trkpt lat="43.64931" lon="0.59071">
        <ele>128.95</ele>
        <time>2021-08-18T18:05:07Z</time>
      </trkpt>
      <trkpt lat="43.64914" lon="0.59061">
        <ele>130.4</ele>
        <time>2021-08-18T18:05:14Z</time>
      </trkpt>
      <trkpt lat="43.64896" lon="0.59053">
        <ele>131.84</ele>
        <time>2021-08-18T18:05:21Z</time>
      </trkpt>
      <trkpt lat="43.64884" lon="0.59036">
        <ele>132.8</ele>
        <time>2021-08-18T18:05:27Z</time>
      </trkpt>
      <trkpt lat="43.64884" lon="0.59032">
        <ele>132.8</ele>
        <time>2021-08-18T18:05:28Z</time>
      </trkpt>
      <trkpt lat="43.64894" lon="0.58993">
        <ele>133.28</ele>
        <time>2021-08-18T18:05:38Z</time>
      </trkpt>
      <trkpt lat="43.64902" lon="0.58962">
        <ele>133.28</ele>
        <time>2021-08-18T18:05:46Z</time>
      </trkpt>
      <trkpt lat="43.64906" lon="0.58941">
        <ele>133.28</ele>
        <time>2021-08-18T18:05:52Z</time>
      </trkpt>
      <trkpt lat="43.64904" lon="0.58939">
        <ele>133.28</ele>
        <time>2021-08-18T18:05:53Z</time>
      </trkpt>
      <trkpt lat="43.64902" lon="0.58937">
        <ele>133.28</ele>
        <time>2021-08-18T18:05:54Z</time>
      </trkpt>
      <trkpt lat="43.64902" lon="0.58936">
        <ele>133.28</ele>
        <time>2021-08-18T18:05:58Z</time>
      </trkpt>
      <trkpt lat="43.64903" lon="0.58936">
        <ele>133.28</ele>
        <time>2021-08-18T18:05:59Z</time>
      </trkpt>
      <trkpt lat="43.64904" lon="0.58936">
        <ele>133.28</ele>
        <time>2021-08-18T18:06:00Z</time>
      </trkpt>
      <trkpt lat="43.64906" lon="0.58938">
        <ele>133.28</ele>
        <time>2021-08-18T18:06:01Z</time>
      </trkpt>
      <trkpt lat="43.64908" lon="0.58938">
        <ele>133.28</ele>
        <time>2021-08-18T18:06:02Z</time>
      </trkpt>
      <trkpt lat="43.64911" lon="0.58937">
        <ele>133.28</ele>
        <time>2021-08-18T18:06:03Z</time>
      </trkpt>
      <trkpt lat="43.64913" lon="0.58935">
        <ele>133.28</ele>
        <time>2021-08-18T18:06:04Z</time>
      </trkpt>
      <trkpt lat="43.64914" lon="0.58932">
        <ele>133.28</ele>
        <time>2021-08-18T18:06:05Z</time>
      </trkpt>
      <trkpt lat="43.64916" lon="0.58929">
        <ele>133.28</ele>
        <time>2021-08-18T18:06:06Z</time>
      </trkpt>
      <trkpt lat="43.64917" lon="0.58927">
        <ele>133.28</ele>
        <time>2021-08-18T18:06:07Z</time>
      </trkpt>
      <trkpt lat="43.64918" lon="0.58925">
        <ele>133.28</ele>
        <time>2021-08-18T18:06:08Z</time>
      </trkpt>
      <trkpt lat="43.64918" lon="0.58923">
        <ele>133.28</ele>
        <time>2021-08-18T18:06:09Z</time>
      </trkpt>
      <trkpt lat="43.64921" lon="0.5892">
        <ele>133.28</ele>
        <time>2021-08-18T18:06:13Z</time>
      </trkpt>
      <trkpt lat="43.6492" lon="0.58923">
        <ele>133.76</ele>
        <time>2021-08-18T18:06:24Z</time>
      </trkpt>
      <trkpt lat="43.64918" lon="0.58922">
        <ele>133.76</ele>
        <time>2021-08-18T18:06:39Z</time>
      </trkpt>
      <trkpt lat="43.64919" lon="0.58922">
        <ele>133.76</ele>
        <time>2021-08-18T18:06:50Z</time>
      </trkpt>
      <trkpt lat="43.64919" lon="0.58922">
        <ele>133.76</ele>
        <time>2021-08-18T18:07:01Z</time>
      </trkpt>
      <trkpt lat="43.64919" lon="0.58922">
        <ele>133.76</ele>
        <time>2021-08-18T18:07:12Z</time>
      </trkpt>
      <trkpt lat="43.64919" lon="0.58921">
        <ele>133.76</ele>
        <time>2021-08-18T18:07:16Z</time>
      </trkpt>
      <trkpt lat="43.6492" lon="0.5892">
        <ele>133.76</ele>
        <time>2021-08-18T18:07:20Z</time>
      </trkpt>
      <trkpt lat="43.64921" lon="0.58918">
        <ele>133.76</ele>
        <time>2021-08-18T18:07:26Z</time>
      </trkpt>
      <trkpt lat="43.64919" lon="0.58911">
        <ele>133.76</ele>
        <time>2021-08-18T18:07:42Z</time>
      </trkpt>
      <trkpt lat="43.64918" lon="0.5891">
        <ele>133.76</ele>
        <time>2021-08-18T18:07:56Z</time>
      </trkpt>
      <trkpt lat="43.64917" lon="0.58909">
        <ele>133.76</ele>
        <time>2021-08-18T18:08:12Z</time>
      </trkpt>
      <trkpt lat="43.6492" lon="0.58911">
        <ele>133.76</ele>
        <time>2021-08-18T18:08:30Z</time>
      </trkpt>
      <trkpt lat="43.64921" lon="0.58911">
        <ele>133.76</ele>
        <time>2021-08-18T18:08:45Z</time>
      </trkpt>
      <trkpt lat="43.64923" lon="0.5891">
        <ele>133.76</ele>
        <time>2021-08-18T18:09:00Z</time>
      </trkpt>
      <trkpt lat="43.64926" lon="0.58911">
        <ele>133.76</ele>
        <time>2021-08-18T18:09:20Z</time>
      </trkpt>
      <trkpt lat="43.64929" lon="0.58916">
        <ele>133.76</ele>
        <time>2021-08-18T18:09:33Z</time>
      </trkpt>
      <trkpt lat="43.64932" lon="0.58917">
        <ele>133.76</ele>
        <time>2021-08-18T18:09:51Z</time>
      </trkpt>
      <trkpt lat="43.64932" lon="0.5892">
        <ele>133.76</ele>
        <time>2021-08-18T18:10:08Z</time>
      </trkpt>
      <trkpt lat="43.64931" lon="0.58919">
        <ele>133.76</ele>
        <time>2021-08-18T18:10:24Z</time>
      </trkpt>
      <trkpt lat="43.64927" lon="0.58916">
        <ele>133.76</ele>
        <time>2021-08-18T18:10:41Z</time>
      </trkpt>
      <trkpt lat="43.64921" lon="0.5891">
        <ele>133.76</ele>
        <time>2021-08-18T18:10:59Z</time>
      </trkpt>
      <trkpt lat="43.64919" lon="0.58908">
        <ele>133.76</ele>
        <time>2021-08-18T18:11:18Z</time>
      </trkpt>
      <trkpt lat="43.64917" lon="0.58906">
        <ele>133.76</ele>
        <time>2021-08-18T18:11:38Z</time>
      </trkpt>
      <trkpt lat="43.64918" lon="0.58908">
        <ele>134.24</ele>
        <time>2021-08-18T18:11:57Z</time>
      </trkpt>
      <trkpt lat="43.64921" lon="0.58908">
        <ele>134.24</ele>
        <time>2021-08-18T18:12:15Z</time>
      </trkpt>
      <trkpt lat="43.64924" lon="0.5891">
        <ele>134.24</ele>
        <time>2021-08-18T18:12:25Z</time>
      </trkpt>
      <trkpt lat="43.64926" lon="0.58909">
        <ele>134.24</ele>
        <time>2021-08-18T18:12:44Z</time>
      </trkpt>
      <trkpt lat="43.64915" lon="0.58902">
        <ele>134.24</ele>
        <time>2021-08-18T18:13:06Z</time>
      </trkpt>
      <trkpt lat="43.64914" lon="0.58901">
        <ele>134.24</ele>
        <time>2021-08-18T18:13:21Z</time>
      </trkpt>
      <trkpt lat="43.64915" lon="0.58899">
        <ele>134.24</ele>
        <time>2021-08-18T18:13:31Z</time>
      </trkpt>
      <trkpt lat="43.64914" lon="0.58897">
        <ele>135.2</ele>
        <time>2021-08-18T18:13:55Z</time>
      </trkpt>
      <trkpt lat="43.64916" lon="0.58901">
        <ele>135.2</ele>
        <time>2021-08-18T18:14:13Z</time>
      </trkpt>
      <trkpt lat="43.64917" lon="0.58903">
        <ele>135.2</ele>
        <time>2021-08-18T18:14:38Z</time>
      </trkpt>
      <trkpt lat="43.6492" lon="0.58905">
        <ele>135.2</ele>
        <time>2021-08-18T18:14:53Z</time>
      </trkpt>
      <trkpt lat="43.64922" lon="0.58908">
        <ele>135.68</ele>
        <time>2021-08-18T18:15:09Z</time>
      </trkpt>
      <trkpt lat="43.64924" lon="0.58909">
        <ele>135.68</ele>
        <time>2021-08-18T18:15:22Z</time>
      </trkpt>
      <trkpt lat="43.64923" lon="0.58911">
        <ele>135.68</ele>
        <time>2021-08-18T18:15:37Z</time>
      </trkpt>
      <trkpt lat="43.64923" lon="0.58911">
        <ele>135.68</ele>
        <time>2021-08-18T18:15:47Z</time>
      </trkpt>
      <trkpt lat="43.6492" lon="0.58907">
        <ele>135.68</ele>
        <time>2021-08-18T18:16:04Z</time>
      </trkpt>
      <trkpt lat="43.6492" lon="0.58907">
        <ele>135.68</ele>
        <time>2021-08-18T18:16:25Z</time>
      </trkpt>
      <trkpt lat="43.64921" lon="0.58909">
        <ele>135.68</ele>
        <time>2021-08-18T18:16:42Z</time>
      </trkpt>
      <trkpt lat="43.64924" lon="0.5891">
        <ele>135.68</ele>
        <time>2021-08-18T18:16:57Z</time>
      </trkpt>
      <trkpt lat="43.64925" lon="0.5891">
        <ele>135.68</ele>
        <time>2021-08-18T18:17:07Z</time>
      </trkpt>
      <trkpt lat="43.64924" lon="0.5891">
        <ele>135.68</ele>
        <time>2021-08-18T18:17:20Z</time>
      </trkpt>
      <trkpt lat="43.64927" lon="0.5891">
        <ele>135.68</ele>
        <time>2021-08-18T18:17:36Z</time>
      </trkpt>
      <trkpt lat="43.6493" lon="0.5891">
        <ele>135.68</ele>
        <time>2021-08-18T18:17:51Z</time>
      </trkpt>
      <trkpt lat="43.64931" lon="0.5891">
        <ele>135.68</ele>
        <time>2021-08-18T18:18:11Z</time>
      </trkpt>
      <trkpt lat="43.6493" lon="0.58909">
        <ele>135.68</ele>
        <time>2021-08-18T18:18:29Z</time>
      </trkpt>
      <trkpt lat="43.64931" lon="0.58908">
        <ele>135.68</ele>
        <time>2021-08-18T18:18:43Z</time>
      </trkpt>
      <trkpt lat="43.6493" lon="0.58906">
        <ele>135.68</ele>
        <time>2021-08-18T18:18:56Z</time>
      </trkpt>
      <trkpt lat="43.64931" lon="0.58906">
        <ele>135.68</ele>
        <time>2021-08-18T18:19:11Z</time>
      </trkpt>
      <trkpt lat="43.6493" lon="0.58907">
        <ele>136.16</ele>
        <time>2021-08-18T18:19:25Z</time>
      </trkpt>
      <trkpt lat="43.64928" lon="0.58909">
        <ele>136.16</ele>
        <time>2021-08-18T18:19:41Z</time>
      </trkpt>
      <trkpt lat="43.64928" lon="0.58911">
        <ele>136.16</ele>
        <time>2021-08-18T18:19:52Z</time>
      </trkpt>
      <trkpt lat="43.64927" lon="0.58912">
        <ele>136.16</ele>
        <time>2021-08-18T18:20:06Z</time>
      </trkpt>
      <trkpt lat="43.64928" lon="0.58913">
        <ele>136.16</ele>
        <time>2021-08-18T18:20:24Z</time>
      </trkpt>
      <trkpt lat="43.64928" lon="0.58913">
        <ele>136.16</ele>
        <time>2021-08-18T18:20:46Z</time>
      </trkpt>
      <trkpt lat="43.64926" lon="0.58915">
        <ele>136.16</ele>
        <time>2021-08-18T18:21:03Z</time>
      </trkpt>
      <trkpt lat="43.64925" lon="0.58914">
        <ele>136.16</ele>
        <time>2021-08-18T18:21:16Z</time>
      </trkpt>
      <trkpt lat="43.64921" lon="0.58913">
        <ele>136.16</ele>
        <time>2021-08-18T18:21:34Z</time>
      </trkpt>
      <trkpt lat="43.64919" lon="0.58913">
        <ele>136.16</ele>
        <time>2021-08-18T18:21:46Z</time>
      </trkpt>
      <trkpt lat="43.64919" lon="0.58913">
        <ele>136.16</ele>
        <time>2021-08-18T18:22:02Z</time>
      </trkpt>
      <trkpt lat="43.6492" lon="0.58911">
        <ele>136.16</ele>
        <time>2021-08-18T18:22:16Z</time>
      </trkpt>
      <trkpt lat="43.64922" lon="0.58911">
        <ele>136.64</ele>
        <time>2021-08-18T18:22:34Z</time>
      </trkpt>
      <trkpt lat="43.64925" lon="0.58912">
        <ele>136.64</ele>
        <time>2021-08-18T18:22:49Z</time>
      </trkpt>
      <trkpt lat="43.64926" lon="0.58913">
        <ele>136.64</ele>
        <time>2021-08-18T18:23:05Z</time>
      </trkpt>
      <trkpt lat="43.64926" lon="0.58915">
        <ele>136.64</ele>
        <time>2021-08-18T18:23:16Z</time>
      </trkpt>
      <trkpt lat="43.64925" lon="0.58917">
        <ele>136.64</ele>
        <time>2021-08-18T18:23:32Z</time>
      </trkpt>
      <trkpt lat="43.64924" lon="0.58917">
        <ele>136.64</ele>
        <time>2021-08-18T18:23:46Z</time>
      </trkpt>
      <trkpt lat="43.64923" lon="0.58917">
        <ele>136.64</ele>
        <time>2021-08-18T18:24:03Z</time>
      </trkpt>
      <trkpt lat="43.64922" lon="0.58916">
        <ele>136.64</ele>
        <time>2021-08-18T18:24:25Z</time>
      </trkpt>
      <trkpt lat="43.64921" lon="0.58914">
        <ele>136.64</ele>
        <time>2021-08-18T18:24:41Z</time>
      </trkpt>
      <trkpt lat="43.64924" lon="0.58913">
        <ele>136.64</ele>
        <time>2021-08-18T18:25:02Z</time>
      </trkpt>
      <trkpt lat="43.64926" lon="0.58913">
        <ele>136.64</ele>
        <time>2021-08-18T18:25:21Z</time>
      </trkpt>
      <trkpt lat="43.64928" lon="0.58916">
        <ele>136.64</ele>
        <time>2021-08-18T18:25:36Z</time>
      </trkpt>
      <trkpt lat="43.64928" lon="0.58918">
        <ele>136.64</ele>
        <time>2021-08-18T18:25:54Z</time>
      </trkpt>
      <trkpt lat="43.64928" lon="0.58918">
        <ele>136.64</ele>
        <time>2021-08-18T18:26:06Z</time>
      </trkpt>
      <trkpt lat="43.64927" lon="0.58918">
        <ele>136.64</ele>
        <time>2021-08-18T18:26:21Z</time>
      </trkpt>
      <trkpt lat="43.64926" lon="0.58917">
        <ele>136.64</ele>
        <time>2021-08-18T18:26:38Z</time>
      </trkpt>
      <trkpt lat="43.64927" lon="0.58916">
        <ele>136.16</ele>
        <time>2021-08-18T18:26:53Z</time>
      </trkpt>
      <trkpt lat="43.64928" lon="0.58916">
        <ele>136.16</ele>
        <time>2021-08-18T18:27:07Z</time>
      </trkpt>
      <trkpt lat="43.64928" lon="0.58916">
        <ele>136.16</ele>
        <time>2021-08-18T18:27:20Z</time>
      </trkpt>
      <trkpt lat="43.64929" lon="0.58915">
        <ele>136.16</ele>
        <time>2021-08-18T18:27:32Z</time>
      </trkpt>
      <trkpt lat="43.64927" lon="0.58914">
        <ele>136.16</ele>
        <time>2021-08-18T18:27:47Z</time>
      </trkpt>
      <trkpt lat="43.64926" lon="0.58913">
        <ele>136.16</ele>
        <time>2021-08-18T18:28:00Z</time>
      </trkpt>
      <trkpt lat="43.64924" lon="0.58916">
        <ele>136.16</ele>
        <time>2021-08-18T18:28:17Z</time>
      </trkpt>
      <trkpt lat="43.64922" lon="0.58915">
        <ele>136.16</ele>
        <time>2021-08-18T18:28:31Z</time>
      </trkpt>
      <trkpt lat="43.6492" lon="0.58914">
        <ele>136.16</ele>
        <time>2021-08-18T18:28:44Z</time>
      </trkpt>
      <trkpt lat="43.64917" lon="0.58913">
        <ele>136.16</ele>
        <time>2021-08-18T18:29:00Z</time>
      </trkpt>
      <trkpt lat="43.64916" lon="0.58914">
        <ele>136.16</ele>
        <time>2021-08-18T18:29:21Z</time>
      </trkpt>
      <trkpt lat="43.64915" lon="0.58916">
        <ele>136.64</ele>
        <time>2021-08-18T18:29:38Z</time>
      </trkpt>
      <trkpt lat="43.64912" lon="0.58916">
        <ele>136.64</ele>
        <time>2021-08-18T18:29:52Z</time>
      </trkpt>
      <trkpt lat="43.64911" lon="0.58916">
        <ele>136.64</ele>
        <time>2021-08-18T18:30:05Z</time>
      </trkpt>
      <trkpt lat="43.64912" lon="0.58915">
        <ele>136.64</ele>
        <time>2021-08-18T18:30:22Z</time>
      </trkpt>
      <trkpt lat="43.64913" lon="0.58916">
        <ele>136.64</ele>
        <time>2021-08-18T18:30:39Z</time>
      </trkpt>
      <trkpt lat="43.64914" lon="0.58917">
        <ele>136.64</ele>
        <time>2021-08-18T18:30:52Z</time>
      </trkpt>
      <trkpt lat="43.64913" lon="0.58917">
        <ele>136.64</ele>
        <time>2021-08-18T18:31:06Z</time>
      </trkpt>
      <trkpt lat="43.6491" lon="0.58915">
        <ele>136.64</ele>
        <time>2021-08-18T18:31:21Z</time>
      </trkpt>
      <trkpt lat="43.64908" lon="0.58914">
        <ele>137.13</ele>
        <time>2021-08-18T18:31:40Z</time>
      </trkpt>
      <trkpt lat="43.64907" lon="0.58913">
        <ele>137.13</ele>
        <time>2021-08-18T18:31:55Z</time>
      </trkpt>
      <trkpt lat="43.64906" lon="0.58912">
        <ele>137.13</ele>
        <time>2021-08-18T18:32:13Z</time>
      </trkpt>
      <trkpt lat="43.64908" lon="0.58914">
        <ele>137.13</ele>
        <time>2021-08-18T18:32:31Z</time>
      </trkpt>
      <trkpt lat="43.64912" lon="0.58916">
        <ele>137.61</ele>
        <time>2021-08-18T18:32:51Z</time>
      </trkpt>
      <trkpt lat="43.64916" lon="0.58917">
        <ele>137.61</ele>
        <time>2021-08-18T18:33:06Z</time>
      </trkpt>
      <trkpt lat="43.64917" lon="0.58916">
        <ele>137.61</ele>
        <time>2021-08-18T18:33:21Z</time>
      </trkpt>
      <trkpt lat="43.64921" lon="0.58916">
        <ele>137.61</ele>
        <time>2021-08-18T18:33:42Z</time>
      </trkpt>
      <trkpt lat="43.64924" lon="0.58915">
        <ele>137.61</ele>
        <time>2021-08-18T18:33:56Z</time>
      </trkpt>
      <trkpt lat="43.64926" lon="0.58916">
        <ele>137.61</ele>
        <time>2021-08-18T18:34:08Z</time>
      </trkpt>
      <trkpt lat="43.64926" lon="0.58917">
        <ele>137.61</ele>
        <time>2021-08-18T18:34:25Z</time>
      </trkpt>
      <trkpt lat="43.64927" lon="0.58915">
        <ele>137.13</ele>
        <time>2021-08-18T18:34:37Z</time>
      </trkpt>
      <trkpt lat="43.64927" lon="0.58917">
        <ele>137.13</ele>
        <time>2021-08-18T18:34:44Z</time>
      </trkpt>
      <trkpt lat="43.64926" lon="0.58919">
        <ele>137.13</ele>
        <time>2021-08-18T18:34:57Z</time>
      </trkpt>
      <trkpt lat="43.64924" lon="0.58919">
        <ele>137.13</ele>
        <time>2021-08-18T18:35:12Z</time>
      </trkpt>
      <trkpt lat="43.64924" lon="0.58919">
        <ele>137.13</ele>
        <time>2021-08-18T18:35:23Z</time>
      </trkpt>
      <trkpt lat="43.64924" lon="0.58919">
        <ele>137.13</ele>
        <time>2021-08-18T18:35:40Z</time>
      </trkpt>
      <trkpt lat="43.64924" lon="0.58917">
        <ele>137.13</ele>
        <time>2021-08-18T18:35:58Z</time>
      </trkpt>
      <trkpt lat="43.64926" lon="0.58918">
        <ele>136.64</ele>
        <time>2021-08-18T18:36:22Z</time>
      </trkpt>
      <trkpt lat="43.64925" lon="0.58917">
        <ele>136.64</ele>
        <time>2021-08-18T18:36:43Z</time>
      </trkpt>
      <trkpt lat="43.64925" lon="0.58917">
        <ele>136.64</ele>
        <time>2021-08-18T18:37:06Z</time>
      </trkpt>
      <trkpt lat="43.64923" lon="0.58918">
        <ele>136.64</ele>
        <time>2021-08-18T18:37:32Z</time>
      </trkpt>
      <trkpt lat="43.64922" lon="0.58917">
        <ele>136.64</ele>
        <time>2021-08-18T18:37:45Z</time>
      </trkpt>
      <trkpt lat="43.64923" lon="0.58916">
        <ele>136.64</ele>
        <time>2021-08-18T18:38:01Z</time>
      </trkpt>
      <trkpt lat="43.64924" lon="0.58915">
        <ele>136.64</ele>
        <time>2021-08-18T18:38:25Z</time>
      </trkpt>
      <trkpt lat="43.64924" lon="0.58915">
        <ele>136.64</ele>
        <time>2021-08-18T18:38:38Z</time>
      </trkpt>
      <trkpt lat="43.64923" lon="0.58915">
        <ele>136.64</ele>
        <time>2021-08-18T18:38:57Z</time>
      </trkpt>
      <trkpt lat="43.64923" lon="0.58914">
        <ele>136.64</ele>
        <time>2021-08-18T18:39:04Z</time>
      </trkpt>
      <trkpt lat="43.64921" lon="0.58913">
        <ele>136.64</ele>
        <time>2021-08-18T18:39:34Z</time>
      </trkpt>
      <trkpt lat="43.64925" lon="0.58914">
        <ele>136.64</ele>
        <time>2021-08-18T18:39:54Z</time>
      </trkpt>
      <trkpt lat="43.64926" lon="0.58915">
        <ele>136.64</ele>
        <time>2021-08-18T18:40:20Z</time>
      </trkpt>
      <trkpt lat="43.64927" lon="0.58916">
        <ele>136.64</ele>
        <time>2021-08-18T18:40:37Z</time>
      </trkpt>
      <trkpt lat="43.64927" lon="0.58916">
        <ele>136.64</ele>
        <time>2021-08-18T18:40:55Z</time>
      </trkpt>
      <trkpt lat="43.64927" lon="0.58916">
        <ele>136.64</ele>
        <time>2021-08-18T18:41:10Z</time>
      </trkpt>
      <trkpt lat="43.64926" lon="0.58915">
        <ele>136.64</ele>
        <time>2021-08-18T18:41:27Z</time>
      </trkpt>
      <trkpt lat="43.64923" lon="0.58915">
        <ele>136.64</ele>
        <time>2021-08-18T18:41:54Z</time>
      </trkpt>
      <trkpt lat="43.64923" lon="0.58916">
        <ele>136.64</ele>
        <time>2021-08-18T18:42:20Z</time>
      </trkpt>
      <trkpt lat="43.64923" lon="0.58918">
        <ele>136.64</ele>
        <time>2021-08-18T18:42:42Z</time>
      </trkpt>
      <trkpt lat="43.64923" lon="0.58919">
        <ele>136.64</ele>
        <time>2021-08-18T18:43:06Z</time>
      </trkpt>
      <trkpt lat="43.64923" lon="0.58919">
        <ele>136.64</ele>
        <time>2021-08-18T18:43:35Z</time>
      </trkpt>
      <trkpt lat="43.64926" lon="0.58919">
        <ele>136.64</ele>
        <time>2021-08-18T18:43:53Z</time>
      </trkpt>
      <trkpt lat="43.64925" lon="0.58919">
        <ele>136.64</ele>
        <time>2021-08-18T18:43:56Z</time>
      </trkpt>
      <trkpt lat="43.64923" lon="0.58918">
        <ele>136.64</ele>
        <time>2021-08-18T18:43:57Z</time>
      </trkpt>
      <trkpt lat="43.64922" lon="0.58916">
        <ele>136.64</ele>
        <time>2021-08-18T18:44:02Z</time>
      </trkpt>
      <trkpt lat="43.64924" lon="0.58916">
        <ele>136.64</ele>
        <time>2021-08-18T18:44:27Z</time>
      </trkpt>
      <trkpt lat="43.64924" lon="0.58916">
        <ele>136.64</ele>
        <time>2021-08-18T18:44:42Z</time>
      </trkpt>
      <trkpt lat="43.64924" lon="0.58918">
        <ele>136.64</ele>
        <time>2021-08-18T18:45:06Z</time>
      </trkpt>
      <trkpt lat="43.64925" lon="0.58917">
        <ele>136.64</ele>
        <time>2021-08-18T18:45:38Z</time>
      </trkpt>
      <trkpt lat="43.64926" lon="0.58916">
        <ele>136.64</ele>
        <time>2021-08-18T18:45:57Z</time>
      </trkpt>
      <trkpt lat="43.64928" lon="0.58918">
        <ele>136.64</ele>
        <time>2021-08-18T18:46:22Z</time>
      </trkpt>
      <trkpt lat="43.64929" lon="0.58919">
        <ele>136.64</ele>
        <time>2021-08-18T18:46:41Z</time>
      </trkpt>
      <trkpt lat="43.64929" lon="0.58919">
        <ele>136.16</ele>
        <time>2021-08-18T18:47:09Z</time>
      </trkpt>
      <trkpt lat="43.64929" lon="0.58918">
        <ele>136.16</ele>
        <time>2021-08-18T18:47:30Z</time>
      </trkpt>
      <trkpt lat="43.64929" lon="0.58918">
        <ele>136.16</ele>
        <time>2021-08-18T18:47:47Z</time>
      </trkpt>
      <trkpt lat="43.64928" lon="0.58917">
        <ele>136.16</ele>
        <time>2021-08-18T18:48:11Z</time>
      </trkpt>
      <trkpt lat="43.64926" lon="0.58918">
        <ele>136.16</ele>
        <time>2021-08-18T18:48:37Z</time>
      </trkpt>
      <trkpt lat="43.64926" lon="0.58917">
        <ele>136.16</ele>
        <time>2021-08-18T18:48:55Z</time>
      </trkpt>
      <trkpt lat="43.64927" lon="0.58917">
        <ele>136.16</ele>
        <time>2021-08-18T18:48:57Z</time>
      </trkpt>
      <trkpt lat="43.64928" lon="0.58918">
        <ele>135.68</ele>
        <time>2021-08-18T18:49:04Z</time>
      </trkpt>
      <trkpt lat="43.64928" lon="0.58918">
        <ele>135.68</ele>
        <time>2021-08-18T18:49:31Z</time>
      </trkpt>
      <trkpt lat="43.64928" lon="0.58918">
        <ele>135.68</ele>
        <time>2021-08-18T18:49:44Z</time>
      </trkpt>
      <trkpt lat="43.64928" lon="0.58918">
        <ele>135.68</ele>
        <time>2021-08-18T18:49:59Z</time>
      </trkpt>
      <trkpt lat="43.64927" lon="0.58916">
        <ele>136.16</ele>
        <time>2021-08-18T18:50:23Z</time>
      </trkpt>
      <trkpt lat="43.64926" lon="0.58916">
        <ele>136.16</ele>
        <time>2021-08-18T18:50:45Z</time>
      </trkpt>
      <trkpt lat="43.64924" lon="0.58917">
        <ele>136.16</ele>
        <time>2021-08-18T18:51:08Z</time>
      </trkpt>
      <trkpt lat="43.64921" lon="0.58916">
        <ele>136.16</ele>
        <time>2021-08-18T18:51:32Z</time>
      </trkpt>
      <trkpt lat="43.64919" lon="0.58913">
        <ele>136.16</ele>
        <time>2021-08-18T18:51:50Z</time>
      </trkpt>
      <trkpt lat="43.64918" lon="0.58912">
        <ele>136.16</ele>
        <time>2021-08-18T18:52:08Z</time>
      </trkpt>
      <trkpt lat="43.6492" lon="0.58913">
        <ele>136.16</ele>
        <time>2021-08-18T18:52:31Z</time>
      </trkpt>
      <trkpt lat="43.6492" lon="0.58912">
        <ele>136.16</ele>
        <time>2021-08-18T18:52:55Z</time>
      </trkpt>
      <trkpt lat="43.64921" lon="0.58911">
        <ele>135.68</ele>
        <time>2021-08-18T18:53:17Z</time>
      </trkpt>
      <trkpt lat="43.64923" lon="0.58912">
        <ele>135.68</ele>
        <time>2021-08-18T18:53:38Z</time>
      </trkpt>
      <trkpt lat="43.64925" lon="0.58914">
        <ele>135.68</ele>
        <time>2021-08-18T18:54:05Z</time>
      </trkpt>
      <trkpt lat="43.64924" lon="0.58914">
        <ele>135.68</ele>
        <time>2021-08-18T18:54:27Z</time>
      </trkpt>
      <trkpt lat="43.64924" lon="0.58914">
        <ele>135.68</ele>
        <time>2021-08-18T18:54:49Z</time>
      </trkpt>
      <trkpt lat="43.64922" lon="0.58916">
        <ele>135.68</ele>
        <time>2021-08-18T18:55:08Z</time>
      </trkpt>
      <trkpt lat="43.64922" lon="0.58915">
        <ele>135.68</ele>
        <time>2021-08-18T18:55:33Z</time>
      </trkpt>
      <trkpt lat="43.64924" lon="0.58915">
        <ele>135.68</ele>
        <time>2021-08-18T18:55:52Z</time>
      </trkpt>
      <trkpt lat="43.64925" lon="0.58918">
        <ele>135.68</ele>
        <time>2021-08-18T18:56:19Z</time>
      </trkpt>
      <trkpt lat="43.64926" lon="0.58918">
        <ele>135.68</ele>
        <time>2021-08-18T18:56:39Z</time>
      </trkpt>
      <trkpt lat="43.64927" lon="0.58917">
        <ele>135.68</ele>
        <time>2021-08-18T18:56:58Z</time>
      </trkpt>
      <trkpt lat="43.64929" lon="0.58915">
        <ele>135.68</ele>
        <time>2021-08-18T18:57:14Z</time>
      </trkpt>
      <trkpt lat="43.64928" lon="0.58913">
        <ele>135.2</ele>
        <time>2021-08-18T18:57:40Z</time>
      </trkpt>
      <trkpt lat="43.64931" lon="0.58914">
        <ele>135.2</ele>
        <time>2021-08-18T18:58:00Z</time>
      </trkpt>
      <trkpt lat="43.64932" lon="0.58914">
        <ele>135.2</ele>
        <time>2021-08-18T18:58:17Z</time>
      </trkpt>
      <trkpt lat="43.64933" lon="0.58915">
        <ele>135.2</ele>
        <time>2021-08-18T18:58:35Z</time>
      </trkpt>
      <trkpt lat="43.64934" lon="0.58916">
        <ele>134.72</ele>
        <time>2021-08-18T18:58:51Z</time>
      </trkpt>
      <trkpt lat="43.64933" lon="0.58917">
        <ele>134.72</ele>
        <time>2021-08-18T18:59:09Z</time>
      </trkpt>
      <trkpt lat="43.64927" lon="0.58914">
        <ele>134.72</ele>
        <time>2021-08-18T18:59:28Z</time>
      </trkpt>
      <trkpt lat="43.64924" lon="0.58912">
        <ele>134.72</ele>
        <time>2021-08-18T18:59:46Z</time>
      </trkpt>
      <trkpt lat="43.64924" lon="0.58913">
        <ele>134.72</ele>
        <time>2021-08-18T19:00:04Z</time>
      </trkpt>
      <trkpt lat="43.64924" lon="0.58914">
        <ele>134.72</ele>
        <time>2021-08-18T19:00:19Z</time>
      </trkpt>
      <trkpt lat="43.64924" lon="0.58915">
        <ele>134.72</ele>
        <time>2021-08-18T19:00:35Z</time>
      </trkpt>
      <trkpt lat="43.64923" lon="0.58915">
        <ele>134.72</ele>
        <time>2021-08-18T19:00:51Z</time>
      </trkpt>
      <trkpt lat="43.64919" lon="0.58911">
        <ele>134.72</ele>
        <time>2021-08-18T19:01:08Z</time>
      </trkpt>
      <trkpt lat="43.64918" lon="0.58909">
        <ele>134.72</ele>
        <time>2021-08-18T19:01:28Z</time>
      </trkpt>
      <trkpt lat="43.64917" lon="0.58909">
        <ele>134.72</ele>
        <time>2021-08-18T19:01:46Z</time>
      </trkpt>
      <trkpt lat="43.6492" lon="0.58913">
        <ele>134.72</ele>
        <time>2021-08-18T19:02:04Z</time>
      </trkpt>
      <trkpt lat="43.64919" lon="0.58913">
        <ele>134.72</ele>
        <time>2021-08-18T19:02:24Z</time>
      </trkpt>
      <trkpt lat="43.64921" lon="0.58914">
        <ele>134.72</ele>
        <time>2021-08-18T19:02:47Z</time>
      </trkpt>
      <trkpt lat="43.64918" lon="0.58912">
        <ele>134.72</ele>
        <time>2021-08-18T19:03:07Z</time>
      </trkpt>
      <trkpt lat="43.64912" lon="0.58906">
        <ele>134.72</ele>
        <time>2021-08-18T19:03:25Z</time>
      </trkpt>
      <trkpt lat="43.64911" lon="0.58905">
        <ele>135.2</ele>
        <time>2021-08-18T19:03:44Z</time>
      </trkpt>
      <trkpt lat="43.64912" lon="0.58905">
        <ele>135.2</ele>
        <time>2021-08-18T19:04:02Z</time>
      </trkpt>
      <trkpt lat="43.64907" lon="0.58901">
        <ele>135.2</ele>
        <time>2021-08-18T19:04:20Z</time>
      </trkpt>
      <trkpt lat="43.64908" lon="0.58902">
        <ele>135.2</ele>
        <time>2021-08-18T19:04:36Z</time>
      </trkpt>
      <trkpt lat="43.64903" lon="0.58898">
        <ele>135.2</ele>
        <time>2021-08-18T19:04:56Z</time>
      </trkpt>
      <trkpt lat="43.64913" lon="0.58908">
        <ele>135.2</ele>
        <time>2021-08-18T19:05:11Z</time>
      </trkpt>
      <trkpt lat="43.64915" lon="0.5891">
        <ele>135.2</ele>
        <time>2021-08-18T19:05:24Z</time>
      </trkpt>
      <trkpt lat="43.64918" lon="0.58915">
        <ele>135.2</ele>
        <time>2021-08-18T19:05:46Z</time>
      </trkpt>
      <trkpt lat="43.64919" lon="0.58917">
        <ele>135.2</ele>
        <time>2021-08-18T19:06:10Z</time>
      </trkpt>
      <trkpt lat="43.64912" lon="0.58911">
        <ele>135.68</ele>
        <time>2021-08-18T19:06:30Z</time>
      </trkpt>
      <trkpt lat="43.64913" lon="0.58911">
        <ele>135.68</ele>
        <time>2021-08-18T19:06:48Z</time>
      </trkpt>
      <trkpt lat="43.64915" lon="0.58913">
        <ele>135.68</ele>
        <time>2021-08-18T19:07:04Z</time>
      </trkpt>
      <trkpt lat="43.64919" lon="0.58918">
        <ele>135.68</ele>
        <time>2021-08-18T19:07:23Z</time>
      </trkpt>
      <trkpt lat="43.64918" lon="0.58918">
        <ele>135.68</ele>
        <time>2021-08-18T19:07:38Z</time>
      </trkpt>
      <trkpt lat="43.64916" lon="0.58916">
        <ele>135.68</ele>
        <time>2021-08-18T19:08:01Z</time>
      </trkpt>
      <trkpt lat="43.64918" lon="0.58918">
        <ele>135.68</ele>
        <time>2021-08-18T19:08:24Z</time>
      </trkpt>
      <trkpt lat="43.6492" lon="0.5892">
        <ele>135.68</ele>
        <time>2021-08-18T19:08:47Z</time>
      </trkpt>
      <trkpt lat="43.6492" lon="0.58918">
        <ele>136.16</ele>
        <time>2021-08-18T19:09:03Z</time>
      </trkpt>
      <trkpt lat="43.64921" lon="0.58918">
        <ele>136.16</ele>
        <time>2021-08-18T19:09:24Z</time>
      </trkpt>
      <trkpt lat="43.64922" lon="0.58919">
        <ele>136.16</ele>
        <time>2021-08-18T19:09:44Z</time>
      </trkpt>
      <trkpt lat="43.6492" lon="0.58919">
        <ele>136.16</ele>
        <time>2021-08-18T19:09:57Z</time>
      </trkpt>
      <trkpt lat="43.64918" lon="0.58917">
        <ele>136.16</ele>
        <time>2021-08-18T19:10:16Z</time>
      </trkpt>
      <trkpt lat="43.64916" lon="0.58913">
        <ele>136.16</ele>
        <time>2021-08-18T19:10:37Z</time>
      </trkpt>
      <trkpt lat="43.64917" lon="0.58915">
        <ele>136.16</ele>
        <time>2021-08-18T19:10:55Z</time>
      </trkpt>
      <trkpt lat="43.64921" lon="0.58919">
        <ele>136.16</ele>
        <time>2021-08-18T19:11:13Z</time>
      </trkpt>
      <trkpt lat="43.64924" lon="0.5892">
        <ele>135.2</ele>
        <time>2021-08-18T19:11:27Z</time>
      </trkpt>
      <trkpt lat="43.64924" lon="0.5892">
        <ele>135.2</ele>
        <time>2021-08-18T19:11:43Z</time>
      </trkpt>
      <trkpt lat="43.64918" lon="0.58916">
        <ele>135.2</ele>
        <time>2021-08-18T19:12:03Z</time>
      </trkpt>
      <trkpt lat="43.64917" lon="0.58915">
        <ele>135.2</ele>
        <time>2021-08-18T19:12:20Z</time>
      </trkpt>
      <trkpt lat="43.64918" lon="0.58917">
        <ele>135.68</ele>
        <time>2021-08-18T19:12:36Z</time>
      </trkpt>
      <trkpt lat="43.64917" lon="0.58919">
        <ele>135.68</ele>
        <time>2021-08-18T19:12:49Z</time>
      </trkpt>
      <trkpt lat="43.6492" lon="0.58923">
        <ele>135.68</ele>
        <time>2021-08-18T19:13:08Z</time>
      </trkpt>
      <trkpt lat="43.64921" lon="0.58924">
        <ele>135.68</ele>
        <time>2021-08-18T19:13:24Z</time>
      </trkpt>
      <trkpt lat="43.64921" lon="0.58923">
        <ele>135.68</ele>
        <time>2021-08-18T19:13:36Z</time>
      </trkpt>
      <trkpt lat="43.64918" lon="0.58923">
        <ele>135.68</ele>
        <time>2021-08-18T19:13:50Z</time>
      </trkpt>
      <trkpt lat="43.6492" lon="0.58922">
        <ele>135.68</ele>
        <time>2021-08-18T19:14:00Z</time>
      </trkpt>
      <trkpt lat="43.64917" lon="0.58914">
        <ele>135.68</ele>
        <time>2021-08-18T19:14:16Z</time>
      </trkpt>
      <trkpt lat="43.64908" lon="0.58905">
        <ele>135.68</ele>
        <time>2021-08-18T19:14:34Z</time>
      </trkpt>
      <trkpt lat="43.64902" lon="0.58901">
        <ele>135.68</ele>
        <time>2021-08-18T19:14:49Z</time>
      </trkpt>
      <trkpt lat="43.64905" lon="0.58903">
        <ele>135.68</ele>
        <time>2021-08-18T19:15:00Z</time>
      </trkpt>
      <trkpt lat="43.64909" lon="0.58903">
        <ele>135.68</ele>
        <time>2021-08-18T19:15:10Z</time>
      </trkpt>
      <trkpt lat="43.64917" lon="0.58907">
        <ele>135.68</ele>
        <time>2021-08-18T19:15:24Z</time>
      </trkpt>
      <trkpt lat="43.64922" lon="0.5891">
        <ele>135.68</ele>
        <time>2021-08-18T19:15:41Z</time>
      </trkpt>
      <trkpt lat="43.64924" lon="0.58913">
        <ele>135.68</ele>
        <time>2021-08-18T19:15:51Z</time>
      </trkpt>
      <trkpt lat="43.64924" lon="0.58916">
        <ele>135.68</ele>
        <time>2021-08-18T19:16:02Z</time>
      </trkpt>
      <trkpt lat="43.64919" lon="0.5891">
        <ele>135.68</ele>
        <time>2021-08-18T19:16:18Z</time>
      </trkpt>
      <trkpt lat="43.64917" lon="0.58906">
        <ele>135.68</ele>
        <time>2021-08-18T19:16:38Z</time>
      </trkpt>
      <trkpt lat="43.64917" lon="0.58908">
        <ele>135.68</ele>
        <time>2021-08-18T19:16:52Z</time>
      </trkpt>
      <trkpt lat="43.64917" lon="0.58907">
        <ele>135.68</ele>
        <time>2021-08-18T19:17:08Z</time>
      </trkpt>
      <trkpt lat="43.64919" lon="0.58912">
        <ele>135.68</ele>
        <time>2021-08-18T19:17:23Z</time>
      </trkpt>
      <trkpt lat="43.64919" lon="0.5891">
        <ele>135.2</ele>
        <time>2021-08-18T19:17:36Z</time>
      </trkpt>
      <trkpt lat="43.64919" lon="0.58909">
        <ele>135.2</ele>
        <time>2021-08-18T19:17:50Z</time>
      </trkpt>
      <trkpt lat="43.64917" lon="0.58907">
        <ele>135.2</ele>
        <time>2021-08-18T19:18:00Z</time>
      </trkpt>
      <trkpt lat="43.64917" lon="0.58908">
        <ele>135.2</ele>
        <time>2021-08-18T19:18:09Z</time>
      </trkpt>
      <trkpt lat="43.64919" lon="0.58908">
        <ele>135.2</ele>
        <time>2021-08-18T19:18:22Z</time>
      </trkpt>
      <trkpt lat="43.6492" lon="0.5891">
        <ele>135.2</ele>
        <time>2021-08-18T19:18:36Z</time>
      </trkpt>
      <trkpt lat="43.64924" lon="0.5891">
        <ele>135.2</ele>
        <time>2021-08-18T19:18:53Z</time>
      </trkpt>
      <trkpt lat="43.64922" lon="0.58911">
        <ele>135.2</ele>
        <time>2021-08-18T19:19:08Z</time>
      </trkpt>
      <trkpt lat="43.64921" lon="0.58914">
        <ele>135.2</ele>
        <time>2021-08-18T19:19:19Z</time>
      </trkpt>
      <trkpt lat="43.64922" lon="0.58916">
        <ele>135.2</ele>
        <time>2021-08-18T19:19:34Z</time>
      </trkpt>
      <trkpt lat="43.64921" lon="0.58915">
        <ele>135.2</ele>
        <time>2021-08-18T19:19:46Z</time>
      </trkpt>
      <trkpt lat="43.64921" lon="0.58914">
        <ele>135.2</ele>
        <time>2021-08-18T19:19:56Z</time>
      </trkpt>
      <trkpt lat="43.64922" lon="0.58914">
        <ele>135.2</ele>
        <time>2021-08-18T19:20:04Z</time>
      </trkpt>
      <trkpt lat="43.64923" lon="0.58917">
        <ele>135.2</ele>
        <time>2021-08-18T19:20:11Z</time>
      </trkpt>
      <trkpt lat="43.64921" lon="0.5892">
        <ele>135.2</ele>
        <time>2021-08-18T19:20:14Z</time>
      </trkpt>
      <trkpt lat="43.6492" lon="0.58922">
        <ele>135.2</ele>
        <time>2021-08-18T19:20:15Z</time>
      </trkpt>
      <trkpt lat="43.64919" lon="0.58927">
        <ele>135.2</ele>
        <time>2021-08-18T19:20:18Z</time>
      </trkpt>
      <trkpt lat="43.64919" lon="0.58928">
        <ele>135.2</ele>
        <time>2021-08-18T19:20:19Z</time>
      </trkpt>
      <trkpt lat="43.6492" lon="0.58927">
        <ele>135.2</ele>
        <time>2021-08-18T19:20:20Z</time>
      </trkpt>
      <trkpt lat="43.64921" lon="0.58926">
        <ele>135.2</ele>
        <time>2021-08-18T19:20:21Z</time>
      </trkpt>
      <trkpt lat="43.64922" lon="0.58924">
        <ele>135.2</ele>
        <time>2021-08-18T19:20:22Z</time>
      </trkpt>
      <trkpt lat="43.64925" lon="0.58917">
        <ele>135.2</ele>
        <time>2021-08-18T19:20:27Z</time>
      </trkpt>
      <trkpt lat="43.64925" lon="0.58915">
        <ele>135.2</ele>
        <time>2021-08-18T19:20:28Z</time>
      </trkpt>
      <trkpt lat="43.64924" lon="0.58913">
        <ele>135.2</ele>
        <time>2021-08-18T19:20:29Z</time>
      </trkpt>
      <trkpt lat="43.64923" lon="0.58912">
        <ele>135.2</ele>
        <time>2021-08-18T19:20:30Z</time>
      </trkpt>
      <trkpt lat="43.64922" lon="0.5891">
        <ele>135.2</ele>
        <time>2021-08-18T19:20:31Z</time>
      </trkpt>
      <trkpt lat="43.64914" lon="0.5891">
        <ele>135.2</ele>
        <time>2021-08-18T19:20:36Z</time>
      </trkpt>
      <trkpt lat="43.64912" lon="0.58913">
        <ele>135.2</ele>
        <time>2021-08-18T19:20:37Z</time>
      </trkpt>
      <trkpt lat="43.64911" lon="0.58917">
        <ele>135.2</ele>
        <time>2021-08-18T19:20:38Z</time>
      </trkpt>
      <trkpt lat="43.64909" lon="0.58921">
        <ele>135.2</ele>
        <time>2021-08-18T19:20:39Z</time>
      </trkpt>
      <trkpt lat="43.64907" lon="0.58924">
        <ele>134.72</ele>
        <time>2021-08-18T19:20:40Z</time>
      </trkpt>
      <trkpt lat="43.64905" lon="0.58927">
        <ele>134.72</ele>
        <time>2021-08-18T19:20:41Z</time>
      </trkpt>
      <trkpt lat="43.64902" lon="0.5893">
        <ele>134.72</ele>
        <time>2021-08-18T19:20:42Z</time>
      </trkpt>
      <trkpt lat="43.64899" lon="0.58932">
        <ele>134.72</ele>
        <time>2021-08-18T19:20:43Z</time>
      </trkpt>
      <trkpt lat="43.64895" lon="0.58933">
        <ele>134.72</ele>
        <time>2021-08-18T19:20:44Z</time>
      </trkpt>
      <trkpt lat="43.64891" lon="0.58933">
        <ele>134.24</ele>
        <time>2021-08-18T19:20:45Z</time>
      </trkpt>
      <trkpt lat="43.64888" lon="0.58933">
        <ele>134.24</ele>
        <time>2021-08-18T19:20:46Z</time>
      </trkpt>
      <trkpt lat="43.64883" lon="0.58932">
        <ele>133.76</ele>
        <time>2021-08-18T19:20:47Z</time>
      </trkpt>
      <trkpt lat="43.6488" lon="0.58931">
        <ele>133.76</ele>
        <time>2021-08-18T19:20:48Z</time>
      </trkpt>
      <trkpt lat="43.64875" lon="0.58929">
        <ele>133.28</ele>
        <time>2021-08-18T19:20:49Z</time>
      </trkpt>
      <trkpt lat="43.64871" lon="0.58927">
        <ele>133.28</ele>
        <time>2021-08-18T19:20:50Z</time>
      </trkpt>
      <trkpt lat="43.6484" lon="0.58912">
        <ele>131.84</ele>
        <time>2021-08-18T19:20:57Z</time>
      </trkpt>
      <trkpt lat="43.64819" lon="0.58903">
        <ele>131.84</ele>
        <time>2021-08-18T19:21:01Z</time>
      </trkpt>
      <trkpt lat="43.64782" lon="0.58885">
        <ele>132.32</ele>
        <time>2021-08-18T19:21:09Z</time>
      </trkpt>
      <trkpt lat="43.64743" lon="0.58871">
        <ele>132.32</ele>
        <time>2021-08-18T19:21:19Z</time>
      </trkpt>
      <trkpt lat="43.64723" lon="0.58861">
        <ele>132.32</ele>
        <time>2021-08-18T19:21:24Z</time>
      </trkpt>
      <trkpt lat="43.6472" lon="0.58858">
        <ele>132.32</ele>
        <time>2021-08-18T19:21:25Z</time>
      </trkpt>
      <trkpt lat="43.64716" lon="0.58856">
        <ele>132.32</ele>
        <time>2021-08-18T19:21:26Z</time>
      </trkpt>
      <trkpt lat="43.64712" lon="0.58854">
        <ele>132.32</ele>
        <time>2021-08-18T19:21:27Z</time>
      </trkpt>
      <trkpt lat="43.64708" lon="0.58852">
        <ele>132.32</ele>
        <time>2021-08-18T19:21:28Z</time>
      </trkpt>
      <trkpt lat="43.64704" lon="0.5885">
        <ele>132.32</ele>
        <time>2021-08-18T19:21:29Z</time>
      </trkpt>
      <trkpt lat="43.64687" lon="0.58842">
        <ele>131.84</ele>
        <time>2021-08-18T19:21:33Z</time>
      </trkpt>
      <trkpt lat="43.6467" lon="0.58837">
        <ele>131.84</ele>
        <time>2021-08-18T19:21:37Z</time>
      </trkpt>
      <trkpt lat="43.64666" lon="0.58836">
        <ele>131.84</ele>
        <time>2021-08-18T19:21:38Z</time>
      </trkpt>
      <trkpt lat="43.64642" lon="0.58825">
        <ele>131.84</ele>
        <time>2021-08-18T19:21:44Z</time>
      </trkpt>
      <trkpt lat="43.64639" lon="0.58823">
        <ele>131.84</ele>
        <time>2021-08-18T19:21:45Z</time>
      </trkpt>
      <trkpt lat="43.64627" lon="0.58816">
        <ele>131.84</ele>
        <time>2021-08-18T19:21:48Z</time>
      </trkpt>
      <trkpt lat="43.64591" lon="0.58798">
        <ele>131.84</ele>
        <time>2021-08-18T19:21:56Z</time>
      </trkpt>
      <trkpt lat="43.64557" lon="0.58784">
        <ele>131.84</ele>
        <time>2021-08-18T19:22:04Z</time>
      </trkpt>
      <trkpt lat="43.6453" lon="0.58771">
        <ele>131.84</ele>
        <time>2021-08-18T19:22:11Z</time>
      </trkpt>
      <trkpt lat="43.64526" lon="0.58766">
        <ele>131.84</ele>
        <time>2021-08-18T19:22:13Z</time>
      </trkpt>
      <trkpt lat="43.64525" lon="0.58762">
        <ele>131.84</ele>
        <time>2021-08-18T19:22:14Z</time>
      </trkpt>
      <trkpt lat="43.64525" lon="0.58759">
        <ele>131.84</ele>
        <time>2021-08-18T19:22:15Z</time>
      </trkpt>
      <trkpt lat="43.64525" lon="0.58756">
        <ele>131.84</ele>
        <time>2021-08-18T19:22:16Z</time>
      </trkpt>
      <trkpt lat="43.64526" lon="0.58753">
        <ele>131.84</ele>
        <time>2021-08-18T19:22:17Z</time>
      </trkpt>
      <trkpt lat="43.64527" lon="0.58749">
        <ele>131.36</ele>
        <time>2021-08-18T19:22:18Z</time>
      </trkpt>
      <trkpt lat="43.64528" lon="0.58747">
        <ele>131.36</ele>
        <time>2021-08-18T19:22:19Z</time>
      </trkpt>
      <trkpt lat="43.64529" lon="0.58745">
        <ele>130.88</ele>
        <time>2021-08-18T19:22:21Z</time>
      </trkpt>
      <trkpt lat="43.64532" lon="0.58745">
        <ele>130.88</ele>
        <time>2021-08-18T19:22:22Z</time>
      </trkpt>
      <trkpt lat="43.64553" lon="0.5875">
        <ele>130.88</ele>
        <time>2021-08-18T19:22:30Z</time>
      </trkpt>
      <trkpt lat="43.64573" lon="0.58752">
        <ele>130.88</ele>
        <time>2021-08-18T19:22:38Z</time>
      </trkpt>
      <trkpt lat="43.64581" lon="0.58754">
        <ele>132.32</ele>
        <time>2021-08-18T19:22:42Z</time>
      </trkpt>
      <trkpt lat="43.64593" lon="0.58756">
        <ele>132.8</ele>
        <time>2021-08-18T19:22:48Z</time>
      </trkpt>
      <trkpt lat="43.64613" lon="0.58754">
        <ele>133.76</ele>
        <time>2021-08-18T19:22:56Z</time>
      </trkpt>
      <trkpt lat="43.64631" lon="0.58756">
        <ele>134.72</ele>
        <time>2021-08-18T19:23:03Z</time>
      </trkpt>
      <trkpt lat="43.64649" lon="0.58757">
        <ele>135.68</ele>
        <time>2021-08-18T19:23:11Z</time>
      </trkpt>
      <trkpt lat="43.64652" lon="0.58756">
        <ele>135.68</ele>
        <time>2021-08-18T19:23:17Z</time>
      </trkpt>
      <trkpt lat="43.64656" lon="0.58755">
        <ele>135.68</ele>
        <time>2021-08-18T19:23:31Z</time>
      </trkpt>
      <trkpt lat="43.64666" lon="0.58757">
        <ele>136.64</ele>
        <time>2021-08-18T19:23:38Z</time>
      </trkpt>
      <trkpt lat="43.64677" lon="0.58758">
        <ele>138.09</ele>
        <time>2021-08-18T19:23:47Z</time>
      </trkpt>
      <trkpt lat="43.64686" lon="0.58759">
        <ele>138.57</ele>
        <time>2021-08-18T19:23:54Z</time>
      </trkpt>
      <trkpt lat="43.64689" lon="0.58756">
        <ele>139.05</ele>
        <time>2021-08-18T19:23:57Z</time>
      </trkpt>
      <trkpt lat="43.647" lon="0.58744">
        <ele>140.49</ele>
        <time>2021-08-18T19:24:04Z</time>
      </trkpt>
      <trkpt lat="43.64702" lon="0.58743">
        <ele>140.97</ele>
        <time>2021-08-18T19:24:06Z</time>
      </trkpt>
      <trkpt lat="43.64703" lon="0.58741">
        <ele>140.97</ele>
        <time>2021-08-18T19:24:09Z</time>
      </trkpt>
      <trkpt lat="43.64703" lon="0.58739">
        <ele>141.45</ele>
        <time>2021-08-18T19:24:10Z</time>
      </trkpt>
      <trkpt lat="43.64702" lon="0.58737">
        <ele>141.45</ele>
        <time>2021-08-18T19:24:11Z</time>
      </trkpt>
      <trkpt lat="43.64703" lon="0.58736">
        <ele>141.45</ele>
        <time>2021-08-18T19:24:12Z</time>
      </trkpt>
      <trkpt lat="43.64702" lon="0.58734">
        <ele>141.45</ele>
        <time>2021-08-18T19:24:13Z</time>
      </trkpt>
      <trkpt lat="43.64702" lon="0.58725">
        <ele>143.37</ele>
        <time>2021-08-18T19:24:20Z</time>
      </trkpt>
      <trkpt lat="43.64704" lon="0.58706">
        <ele>144.34</ele>
        <time>2021-08-18T19:24:28Z</time>
      </trkpt>
      <trkpt lat="43.64705" lon="0.58704">
        <ele>144.82</ele>
        <time>2021-08-18T19:24:29Z</time>
      </trkpt>
      <trkpt lat="43.64708" lon="0.58686">
        <ele>145.78</ele>
        <time>2021-08-18T19:24:39Z</time>
      </trkpt>
      <trkpt lat="43.64711" lon="0.58683">
        <ele>146.26</ele>
        <time>2021-08-18T19:24:46Z</time>
      </trkpt>
      <trkpt lat="43.64713" lon="0.58684">
        <ele>146.26</ele>
        <time>2021-08-18T19:24:49Z</time>
      </trkpt>
      <trkpt lat="43.64723" lon="0.5869">
        <ele>147.22</ele>
        <time>2021-08-18T19:24:58Z</time>
      </trkpt>
      <trkpt lat="43.64735" lon="0.58698">
        <ele>147.7</ele>
        <time>2021-08-18T19:25:07Z</time>
      </trkpt>
      <trkpt lat="43.64745" lon="0.58707">
        <ele>148.18</ele>
        <time>2021-08-18T19:25:16Z</time>
      </trkpt>
      <trkpt lat="43.64755" lon="0.58716">
        <ele>149.14</ele>
        <time>2021-08-18T19:25:25Z</time>
      </trkpt>
      <trkpt lat="43.64765" lon="0.58724">
        <ele>150.58</ele>
        <time>2021-08-18T19:25:35Z</time>
      </trkpt>
      <trkpt lat="43.64767" lon="0.58725">
        <ele>150.58</ele>
        <time>2021-08-18T19:25:38Z</time>
      </trkpt>
      <trkpt lat="43.6477" lon="0.58727">
        <ele>151.54</ele>
        <time>2021-08-18T19:25:42Z</time>
      </trkpt>
      <trkpt lat="43.64781" lon="0.58731">
        <ele>152.51</ele>
        <time>2021-08-18T19:25:54Z</time>
      </trkpt>
      <trkpt lat="43.64791" lon="0.58739">
        <ele>153.47</ele>
        <time>2021-08-18T19:26:02Z</time>
      </trkpt>
      <trkpt lat="43.64796" lon="0.58742">
        <ele>153.95</ele>
        <time>2021-08-18T19:26:07Z</time>
      </trkpt>
      <trkpt lat="43.64807" lon="0.58743">
        <ele>155.39</ele>
        <time>2021-08-18T19:26:18Z</time>
      </trkpt>
      <trkpt lat="43.64812" lon="0.5874">
        <ele>155.39</ele>
        <time>2021-08-18T19:26:21Z</time>
      </trkpt>
      <trkpt lat="43.64813" lon="0.5874">
        <ele>155.87</ele>
        <time>2021-08-18T19:26:22Z</time>
      </trkpt>
      <trkpt lat="43.6482" lon="0.58736">
        <ele>156.35</ele>
        <time>2021-08-18T19:26:28Z</time>
      </trkpt>
      <trkpt lat="43.64824" lon="0.58716">
        <ele>157.79</ele>
        <time>2021-08-18T19:26:39Z</time>
      </trkpt>
      <trkpt lat="43.64825" lon="0.58707">
        <ele>157.79</ele>
        <time>2021-08-18T19:26:46Z</time>
      </trkpt>
      <trkpt lat="43.64822" lon="0.58705">
        <ele>158.27</ele>
        <time>2021-08-18T19:26:49Z</time>
      </trkpt>
      <trkpt lat="43.64821" lon="0.58704">
        <ele>158.27</ele>
        <time>2021-08-18T19:26:50Z</time>
      </trkpt>
      <trkpt lat="43.64821" lon="0.58703">
        <ele>158.75</ele>
        <time>2021-08-18T19:26:51Z</time>
      </trkpt>
      <trkpt lat="43.64814" lon="0.58697">
        <ele>160.2</ele>
        <time>2021-08-18T19:27:00Z</time>
      </trkpt>
      <trkpt lat="43.64805" lon="0.58687">
        <ele>161.16</ele>
        <time>2021-08-18T19:27:09Z</time>
      </trkpt>
      <trkpt lat="43.648" lon="0.5868">
        <ele>161.64</ele>
        <time>2021-08-18T19:27:17Z</time>
      </trkpt>
      <trkpt lat="43.64789" lon="0.58668">
        <ele>163.08</ele>
        <time>2021-08-18T19:27:28Z</time>
      </trkpt>
      <trkpt lat="43.64787" lon="0.58662">
        <ele>162.6</ele>
        <time>2021-08-18T19:27:36Z</time>
      </trkpt>
      <trkpt lat="43.64784" lon="0.58656">
        <ele>163.08</ele>
        <time>2021-08-18T19:27:42Z</time>
      </trkpt>
      <trkpt lat="43.64775" lon="0.58633">
        <ele>163.56</ele>
        <time>2021-08-18T19:27:53Z</time>
      </trkpt>
      <trkpt lat="43.64766" lon="0.58617">
        <ele>165</ele>
        <time>2021-08-18T19:28:01Z</time>
      </trkpt>
      <trkpt lat="43.64759" lon="0.586">
        <ele>165.48</ele>
        <time>2021-08-18T19:28:08Z</time>
      </trkpt>
      <trkpt lat="43.64752" lon="0.58578">
        <ele>166.45</ele>
        <time>2021-08-18T19:28:16Z</time>
      </trkpt>
      <trkpt lat="43.64743" lon="0.58553">
        <ele>166.93</ele>
        <time>2021-08-18T19:28:25Z</time>
      </trkpt>
      <trkpt lat="43.64734" lon="0.58543">
        <ele>167.41</ele>
        <time>2021-08-18T19:28:31Z</time>
      </trkpt>
      <trkpt lat="43.64721" lon="0.58521">
        <ele>167.89</ele>
        <time>2021-08-18T19:28:40Z</time>
      </trkpt>
      <trkpt lat="43.64693" lon="0.58506">
        <ele>166.45</ele>
        <time>2021-08-18T19:28:48Z</time>
      </trkpt>
      <trkpt lat="43.64669" lon="0.58499">
        <ele>167.89</ele>
        <time>2021-08-18T19:28:56Z</time>
      </trkpt>
      <trkpt lat="43.64661" lon="0.58486">
        <ele>168.37</ele>
        <time>2021-08-18T19:29:02Z</time>
      </trkpt>
      <trkpt lat="43.64656" lon="0.58479">
        <ele>168.85</ele>
        <time>2021-08-18T19:29:05Z</time>
      </trkpt>
      <trkpt lat="43.64653" lon="0.58449">
        <ele>170.29</ele>
        <time>2021-08-18T19:29:15Z</time>
      </trkpt>
      <trkpt lat="43.64661" lon="0.58426">
        <ele>171.25</ele>
        <time>2021-08-18T19:29:23Z</time>
      </trkpt>
      <trkpt lat="43.64667" lon="0.58413">
        <ele>171.73</ele>
        <time>2021-08-18T19:29:28Z</time>
      </trkpt>
      <trkpt lat="43.64669" lon="0.58412">
        <ele>172.21</ele>
        <time>2021-08-18T19:29:29Z</time>
      </trkpt>
      <trkpt lat="43.64672" lon="0.58409">
        <ele>172.69</ele>
        <time>2021-08-18T19:29:35Z</time>
      </trkpt>
      <trkpt lat="43.64675" lon="0.58405">
        <ele>172.69</ele>
        <time>2021-08-18T19:29:48Z</time>
      </trkpt>
      <trkpt lat="43.64679" lon="0.58398">
        <ele>172.69</ele>
        <time>2021-08-18T19:29:53Z</time>
      </trkpt>
      <trkpt lat="43.6468" lon="0.58396">
        <ele>172.69</ele>
        <time>2021-08-18T19:29:54Z</time>
      </trkpt>
      <trkpt lat="43.6468" lon="0.58394">
        <ele>172.69</ele>
        <time>2021-08-18T19:29:55Z</time>
      </trkpt>
      <trkpt lat="43.64681" lon="0.58392">
        <ele>172.69</ele>
        <time>2021-08-18T19:29:56Z</time>
      </trkpt>
      <trkpt lat="43.64683" lon="0.5839">
        <ele>172.69</ele>
        <time>2021-08-18T19:29:57Z</time>
      </trkpt>
      <trkpt lat="43.64694" lon="0.58368">
        <ele>172.69</ele>
        <time>2021-08-18T19:30:05Z</time>
      </trkpt>
      <trkpt lat="43.64694" lon="0.58364">
        <ele>172.69</ele>
        <time>2021-08-18T19:30:06Z</time>
      </trkpt>
      <trkpt lat="43.64693" lon="0.58361">
        <ele>172.69</ele>
        <time>2021-08-18T19:30:07Z</time>
      </trkpt>
      <trkpt lat="43.64691" lon="0.58359">
        <ele>172.69</ele>
        <time>2021-08-18T19:30:08Z</time>
      </trkpt>
      <trkpt lat="43.64675" lon="0.58336">
        <ele>172.69</ele>
        <time>2021-08-18T19:30:18Z</time>
      </trkpt>
      <trkpt lat="43.64668" lon="0.58316">
        <ele>172.69</ele>
        <time>2021-08-18T19:30:24Z</time>
      </trkpt>
      <trkpt lat="43.64664" lon="0.58312">
        <ele>172.69</ele>
        <time>2021-08-18T19:30:26Z</time>
      </trkpt>
      <trkpt lat="43.64659" lon="0.58308">
        <ele>171.25</ele>
        <time>2021-08-18T19:30:28Z</time>
      </trkpt>
      <trkpt lat="43.64652" lon="0.58303">
        <ele>170.29</ele>
        <time>2021-08-18T19:30:30Z</time>
      </trkpt>
      <trkpt lat="43.64636" lon="0.58295">
        <ele>168.37</ele>
        <time>2021-08-18T19:30:34Z</time>
      </trkpt>
      <trkpt lat="43.64632" lon="0.58292">
        <ele>168.37</ele>
        <time>2021-08-18T19:30:35Z</time>
      </trkpt>
      <trkpt lat="43.64627" lon="0.5829">
        <ele>167.41</ele>
        <time>2021-08-18T19:30:36Z</time>
      </trkpt>
      <trkpt lat="43.64619" lon="0.58285">
        <ele>166.45</ele>
        <time>2021-08-18T19:30:38Z</time>
      </trkpt>
      <trkpt lat="43.64603" lon="0.58276">
        <ele>164.52</ele>
        <time>2021-08-18T19:30:42Z</time>
      </trkpt>
      <trkpt lat="43.64593" lon="0.58268">
        <ele>163.08</ele>
        <time>2021-08-18T19:30:45Z</time>
      </trkpt>
      <trkpt lat="43.64568" lon="0.58254">
        <ele>159.72</ele>
        <time>2021-08-18T19:30:51Z</time>
      </trkpt>
      <trkpt lat="43.64542" lon="0.58232">
        <ele>155.87</ele>
        <time>2021-08-18T19:30:59Z</time>
      </trkpt>
      <trkpt lat="43.64543" lon="0.58224">
        <ele>154.91</ele>
        <time>2021-08-18T19:31:00Z</time>
      </trkpt>
      <trkpt lat="43.64545" lon="0.58217">
        <ele>154.43</ele>
        <time>2021-08-18T19:31:01Z</time>
      </trkpt>
      <trkpt lat="43.64552" lon="0.58192">
        <ele>152.99</ele>
        <time>2021-08-18T19:31:04Z</time>
      </trkpt>
      <trkpt lat="43.64553" lon="0.58185">
        <ele>152.99</ele>
        <time>2021-08-18T19:31:05Z</time>
      </trkpt>
      <trkpt lat="43.64554" lon="0.58177">
        <ele>152.99</ele>
        <time>2021-08-18T19:31:06Z</time>
      </trkpt>
      <trkpt lat="43.64555" lon="0.58153">
        <ele>152.99</ele>
        <time>2021-08-18T19:31:10Z</time>
      </trkpt>
      <trkpt lat="43.64555" lon="0.58147">
        <ele>152.99</ele>
        <time>2021-08-18T19:31:11Z</time>
      </trkpt>
      <trkpt lat="43.64561" lon="0.5809">
        <ele>150.58</ele>
        <time>2021-08-18T19:31:19Z</time>
      </trkpt>
      <trkpt lat="43.64565" lon="0.58029">
        <ele>149.14</ele>
        <time>2021-08-18T19:31:28Z</time>
      </trkpt>
      <trkpt lat="43.64572" lon="0.57985">
        <ele>146.26</ele>
        <time>2021-08-18T19:31:34Z</time>
      </trkpt>
      <trkpt lat="43.64582" lon="0.57914">
        <ele>143.85</ele>
        <time>2021-08-18T19:31:42Z</time>
      </trkpt>
      <trkpt lat="43.64588" lon="0.57858">
        <ele>143.85</ele>
        <time>2021-08-18T19:31:49Z</time>
      </trkpt>
      <trkpt lat="43.64589" lon="0.57837">
        <ele>145.3</ele>
        <time>2021-08-18T19:31:53Z</time>
      </trkpt>
      <trkpt lat="43.64589" lon="0.57811">
        <ele>146.26</ele>
        <time>2021-08-18T19:32:00Z</time>
      </trkpt>
      <trkpt lat="43.64591" lon="0.57789">
        <ele>147.22</ele>
        <time>2021-08-18T19:32:07Z</time>
      </trkpt>
      <trkpt lat="43.64591" lon="0.57789">
        <ele>147.22</ele>
        <time>2021-08-18T19:32:18Z</time>
      </trkpt>
      <trkpt lat="43.64589" lon="0.57789">
        <ele>147.22</ele>
        <time>2021-08-18T19:32:41Z</time>
      </trkpt>
      <trkpt lat="43.64589" lon="0.57787">
        <ele>147.22</ele>
        <time>2021-08-18T19:32:56Z</time>
      </trkpt>
      <trkpt lat="43.64588" lon="0.57783">
        <ele>147.22</ele>
        <time>2021-08-18T19:32:59Z</time>
      </trkpt>
      <trkpt lat="43.64588" lon="0.57781">
        <ele>147.22</ele>
        <time>2021-08-18T19:33:00Z</time>
      </trkpt>
      <trkpt lat="43.64588" lon="0.57778">
        <ele>147.7</ele>
        <time>2021-08-18T19:33:01Z</time>
      </trkpt>
      <trkpt lat="43.64588" lon="0.57776">
        <ele>147.7</ele>
        <time>2021-08-18T19:33:02Z</time>
      </trkpt>
      <trkpt lat="43.64588" lon="0.57773">
        <ele>147.7</ele>
        <time>2021-08-18T19:33:03Z</time>
      </trkpt>
      <trkpt lat="43.64589" lon="0.57758">
        <ele>148.18</ele>
        <time>2021-08-18T19:33:10Z</time>
      </trkpt>
      <trkpt lat="43.64588" lon="0.57758">
        <ele>148.18</ele>
        <time>2021-08-18T19:33:28Z</time>
      </trkpt>
      <trkpt lat="43.64589" lon="0.57751">
        <ele>148.18</ele>
        <time>2021-08-18T19:33:37Z</time>
      </trkpt>
      <trkpt lat="43.64591" lon="0.57739">
        <ele>148.66</ele>
        <time>2021-08-18T19:33:41Z</time>
      </trkpt>
      <trkpt lat="43.64592" lon="0.57735">
        <ele>148.66</ele>
        <time>2021-08-18T19:33:42Z</time>
      </trkpt>
      <trkpt lat="43.64592" lon="0.57731">
        <ele>148.66</ele>
        <time>2021-08-18T19:33:43Z</time>
      </trkpt>
      <trkpt lat="43.64596" lon="0.57694">
        <ele>149.14</ele>
        <time>2021-08-18T19:33:51Z</time>
      </trkpt>
      <trkpt lat="43.64603" lon="0.5765">
        <ele>150.1</ele>
        <time>2021-08-18T19:34:01Z</time>
      </trkpt>
      <trkpt lat="43.64606" lon="0.57621">
        <ele>150.58</ele>
        <time>2021-08-18T19:34:08Z</time>
      </trkpt>
      <trkpt lat="43.64611" lon="0.57592">
        <ele>151.06</ele>
        <time>2021-08-18T19:34:15Z</time>
      </trkpt>
      <trkpt lat="43.64619" lon="0.57559">
        <ele>151.54</ele>
        <time>2021-08-18T19:34:23Z</time>
      </trkpt>
      <trkpt lat="43.64628" lon="0.57528">
        <ele>152.03</ele>
        <time>2021-08-18T19:34:31Z</time>
      </trkpt>
      <trkpt lat="43.64639" lon="0.57476">
        <ele>152.51</ele>
        <time>2021-08-18T19:34:43Z</time>
      </trkpt>
      <trkpt lat="43.64635" lon="0.5745">
        <ele>152.99</ele>
        <time>2021-08-18T19:34:49Z</time>
      </trkpt>
      <trkpt lat="43.64619" lon="0.5742">
        <ele>153.47</ele>
        <time>2021-08-18T19:34:57Z</time>
      </trkpt>
      <trkpt lat="43.646" lon="0.57397">
        <ele>154.43</ele>
        <time>2021-08-18T19:35:05Z</time>
      </trkpt>
      <trkpt lat="43.64582" lon="0.57377">
        <ele>155.39</ele>
        <time>2021-08-18T19:35:14Z</time>
      </trkpt>
      <trkpt lat="43.64567" lon="0.57363">
        <ele>156.83</ele>
        <time>2021-08-18T19:35:23Z</time>
      </trkpt>
      <trkpt lat="43.6455" lon="0.57348">
        <ele>157.79</ele>
        <time>2021-08-18T19:35:33Z</time>
      </trkpt>
      <trkpt lat="43.64527" lon="0.57336">
        <ele>157.79</ele>
        <time>2021-08-18T19:35:44Z</time>
      </trkpt>
      <trkpt lat="43.64514" lon="0.57325">
        <ele>159.24</ele>
        <time>2021-08-18T19:35:52Z</time>
      </trkpt>
      <trkpt lat="43.64504" lon="0.57306">
        <ele>160.2</ele>
        <time>2021-08-18T19:36:01Z</time>
      </trkpt>
      <trkpt lat="43.64503" lon="0.57282">
        <ele>161.64</ele>
        <time>2021-08-18T19:36:09Z</time>
      </trkpt>
      <trkpt lat="43.64502" lon="0.57277">
        <ele>161.64</ele>
        <time>2021-08-18T19:36:11Z</time>
      </trkpt>
      <trkpt lat="43.64501" lon="0.57274">
        <ele>161.64</ele>
        <time>2021-08-18T19:36:12Z</time>
      </trkpt>
      <trkpt lat="43.64501" lon="0.57244">
        <ele>162.12</ele>
        <time>2021-08-18T19:36:21Z</time>
      </trkpt>
      <trkpt lat="43.645" lon="0.57216">
        <ele>162.6</ele>
        <time>2021-08-18T19:36:28Z</time>
      </trkpt>
      <trkpt lat="43.645" lon="0.57166">
        <ele>163.08</ele>
        <time>2021-08-18T19:36:40Z</time>
      </trkpt>
      <trkpt lat="43.64503" lon="0.57129">
        <ele>164.04</ele>
        <time>2021-08-18T19:36:49Z</time>
      </trkpt>
      <trkpt lat="43.64505" lon="0.57089">
        <ele>165</ele>
        <time>2021-08-18T19:36:59Z</time>
      </trkpt>
      <trkpt lat="43.64505" lon="0.57064">
        <ele>165.96</ele>
        <time>2021-08-18T19:37:07Z</time>
      </trkpt>
      <trkpt lat="43.64506" lon="0.57044">
        <ele>167.41</ele>
        <time>2021-08-18T19:37:13Z</time>
      </trkpt>
      <trkpt lat="43.64509" lon="0.57019">
        <ele>168.37</ele>
        <time>2021-08-18T19:37:22Z</time>
      </trkpt>
      <trkpt lat="43.64513" lon="0.56997">
        <ele>168.85</ele>
        <time>2021-08-18T19:37:30Z</time>
      </trkpt>
      <trkpt lat="43.64518" lon="0.56972">
        <ele>169.81</ele>
        <time>2021-08-18T19:37:39Z</time>
      </trkpt>
      <trkpt lat="43.64524" lon="0.5694">
        <ele>170.29</ele>
        <time>2021-08-18T19:37:50Z</time>
      </trkpt>
      <trkpt lat="43.64529" lon="0.56916">
        <ele>170.77</ele>
        <time>2021-08-18T19:37:58Z</time>
      </trkpt>
      <trkpt lat="43.64534" lon="0.56891">
        <ele>172.21</ele>
        <time>2021-08-18T19:38:07Z</time>
      </trkpt>
      <trkpt lat="43.64539" lon="0.56861">
        <ele>173.17</ele>
        <time>2021-08-18T19:38:18Z</time>
      </trkpt>
      <trkpt lat="43.64541" lon="0.56832">
        <ele>174.62</ele>
        <time>2021-08-18T19:38:28Z</time>
      </trkpt>
      <trkpt lat="43.64542" lon="0.56805">
        <ele>175.58</ele>
        <time>2021-08-18T19:38:38Z</time>
      </trkpt>
      <trkpt lat="43.64543" lon="0.56777">
        <ele>176.54</ele>
        <time>2021-08-18T19:38:48Z</time>
      </trkpt>
      <trkpt lat="43.64547" lon="0.56753">
        <ele>177.5</ele>
        <time>2021-08-18T19:38:56Z</time>
      </trkpt>
      <trkpt lat="43.64551" lon="0.56736">
        <ele>177.98</ele>
        <time>2021-08-18T19:39:03Z</time>
      </trkpt>
      <trkpt lat="43.64554" lon="0.56715">
        <ele>178.94</ele>
        <time>2021-08-18T19:39:11Z</time>
      </trkpt>
      <trkpt lat="43.64557" lon="0.56694">
        <ele>179.9</ele>
        <time>2021-08-18T19:39:19Z</time>
      </trkpt>
      <trkpt lat="43.64559" lon="0.56667">
        <ele>181.35</ele>
        <time>2021-08-18T19:39:30Z</time>
      </trkpt>
      <trkpt lat="43.64561" lon="0.56651">
        <ele>182.31</ele>
        <time>2021-08-18T19:39:38Z</time>
      </trkpt>
      <trkpt lat="43.64559" lon="0.56651">
        <ele>182.31</ele>
        <time>2021-08-18T19:39:50Z</time>
      </trkpt>
      <trkpt lat="43.6456" lon="0.56645">
        <ele>182.31</ele>
        <time>2021-08-18T19:40:01Z</time>
      </trkpt>
      <trkpt lat="43.64561" lon="0.56629">
        <ele>183.27</ele>
        <time>2021-08-18T19:40:08Z</time>
      </trkpt>
      <trkpt lat="43.64563" lon="0.56612">
        <ele>184.71</ele>
        <time>2021-08-18T19:40:16Z</time>
      </trkpt>
      <trkpt lat="43.64564" lon="0.56592">
        <ele>185.67</ele>
        <time>2021-08-18T19:40:25Z</time>
      </trkpt>
      <trkpt lat="43.64568" lon="0.56574">
        <ele>187.11</ele>
        <time>2021-08-18T19:40:34Z</time>
      </trkpt>
      <trkpt lat="43.64569" lon="0.56566">
        <ele>188.08</ele>
        <time>2021-08-18T19:40:39Z</time>
      </trkpt>
      <trkpt lat="43.6457" lon="0.56556">
        <ele>189.04</ele>
        <time>2021-08-18T19:40:45Z</time>
      </trkpt>
      <trkpt lat="43.64571" lon="0.56547">
        <ele>190</ele>
        <time>2021-08-18T19:40:51Z</time>
      </trkpt>
      <trkpt lat="43.64573" lon="0.56528">
        <ele>191.92</ele>
        <time>2021-08-18T19:41:03Z</time>
      </trkpt>
      <trkpt lat="43.64574" lon="0.56512">
        <ele>193.36</ele>
        <time>2021-08-18T19:41:14Z</time>
      </trkpt>
      <trkpt lat="43.64575" lon="0.56499">
        <ele>194.32</ele>
        <time>2021-08-18T19:41:22Z</time>
      </trkpt>
      <trkpt lat="43.64576" lon="0.56487">
        <ele>195.77</ele>
        <time>2021-08-18T19:41:29Z</time>
      </trkpt>
      <trkpt lat="43.64577" lon="0.56476">
        <ele>196.25</ele>
        <time>2021-08-18T19:41:36Z</time>
      </trkpt>
      <trkpt lat="43.6458" lon="0.56457">
        <ele>198.17</ele>
        <time>2021-08-18T19:41:47Z</time>
      </trkpt>
      <trkpt lat="43.64584" lon="0.56445">
        <ele>199.13</ele>
        <time>2021-08-18T19:41:55Z</time>
      </trkpt>
      <trkpt lat="43.64587" lon="0.56428">
        <ele>200.57</ele>
        <time>2021-08-18T19:42:05Z</time>
      </trkpt>
      <trkpt lat="43.64594" lon="0.56413">
        <ele>202.49</ele>
        <time>2021-08-18T19:42:16Z</time>
      </trkpt>
      <trkpt lat="43.64595" lon="0.5641">
        <ele>202.49</ele>
        <time>2021-08-18T19:42:22Z</time>
      </trkpt>
      <trkpt lat="43.64598" lon="0.56404">
        <ele>202.98</ele>
        <time>2021-08-18T19:42:27Z</time>
      </trkpt>
      <trkpt lat="43.64603" lon="0.56391">
        <ele>203.46</ele>
        <time>2021-08-18T19:42:33Z</time>
      </trkpt>
      <trkpt lat="43.64611" lon="0.56373">
        <ele>204.42</ele>
        <time>2021-08-18T19:42:41Z</time>
      </trkpt>
      <trkpt lat="43.64621" lon="0.56353">
        <ele>205.38</ele>
        <time>2021-08-18T19:42:50Z</time>
      </trkpt>
      <trkpt lat="43.64626" lon="0.56336">
        <ele>206.34</ele>
        <time>2021-08-18T19:42:58Z</time>
      </trkpt>
      <trkpt lat="43.64629" lon="0.5631">
        <ele>206.82</ele>
        <time>2021-08-18T19:43:06Z</time>
      </trkpt>
      <trkpt lat="43.64627" lon="0.56286">
        <ele>206.82</ele>
        <time>2021-08-18T19:43:12Z</time>
      </trkpt>
      <trkpt lat="43.64619" lon="0.56246">
        <ele>205.38</ele>
        <time>2021-08-18T19:43:21Z</time>
      </trkpt>
      <trkpt lat="43.64607" lon="0.56205">
        <ele>201.53</ele>
        <time>2021-08-18T19:43:28Z</time>
      </trkpt>
      <trkpt lat="43.64606" lon="0.56198">
        <ele>201.05</ele>
        <time>2021-08-18T19:43:29Z</time>
      </trkpt>
      <trkpt lat="43.64606" lon="0.56167">
        <ele>197.69</ele>
        <time>2021-08-18T19:43:33Z</time>
      </trkpt>
      <trkpt lat="43.64608" lon="0.56131">
        <ele>194.32</ele>
        <time>2021-08-18T19:43:37Z</time>
      </trkpt>
      <trkpt lat="43.6461" lon="0.56104">
        <ele>192.4</ele>
        <time>2021-08-18T19:43:40Z</time>
      </trkpt>
      <trkpt lat="43.64611" lon="0.56069">
        <ele>189.52</ele>
        <time>2021-08-18T19:43:44Z</time>
      </trkpt>
      <trkpt lat="43.6461" lon="0.56061">
        <ele>189.04</ele>
        <time>2021-08-18T19:43:45Z</time>
      </trkpt>
      <trkpt lat="43.64603" lon="0.56027">
        <ele>186.15</ele>
        <time>2021-08-18T19:43:49Z</time>
      </trkpt>
      <trkpt lat="43.646" lon="0.56019">
        <ele>186.15</ele>
        <time>2021-08-18T19:43:50Z</time>
      </trkpt>
      <trkpt lat="43.64597" lon="0.56012">
        <ele>184.71</ele>
        <time>2021-08-18T19:43:51Z</time>
      </trkpt>
      <trkpt lat="43.64573" lon="0.55961">
        <ele>181.83</ele>
        <time>2021-08-18T19:43:57Z</time>
      </trkpt>
      <trkpt lat="43.64553" lon="0.55912">
        <ele>180.38</ele>
        <time>2021-08-18T19:44:03Z</time>
      </trkpt>
      <trkpt lat="43.64552" lon="0.55904">
        <ele>180.38</ele>
        <time>2021-08-18T19:44:04Z</time>
      </trkpt>
      <trkpt lat="43.64551" lon="0.55896">
        <ele>180.38</ele>
        <time>2021-08-18T19:44:05Z</time>
      </trkpt>
      <trkpt lat="43.64552" lon="0.55888">
        <ele>180.38</ele>
        <time>2021-08-18T19:44:06Z</time>
      </trkpt>
      <trkpt lat="43.64552" lon="0.5588">
        <ele>180.38</ele>
        <time>2021-08-18T19:44:07Z</time>
      </trkpt>
      <trkpt lat="43.64554" lon="0.55842">
        <ele>180.38</ele>
        <time>2021-08-18T19:44:13Z</time>
      </trkpt>
      <trkpt lat="43.64552" lon="0.55836">
        <ele>180.38</ele>
        <time>2021-08-18T19:44:14Z</time>
      </trkpt>
      <trkpt lat="43.6455" lon="0.55826">
        <ele>180.38</ele>
        <time>2021-08-18T19:44:16Z</time>
      </trkpt>
      <trkpt lat="43.64539" lon="0.5578">
        <ele>180.38</ele>
        <time>2021-08-18T19:44:24Z</time>
      </trkpt>
      <trkpt lat="43.64519" lon="0.55747">
        <ele>179.9</ele>
        <time>2021-08-18T19:44:30Z</time>
      </trkpt>
      <trkpt lat="43.64511" lon="0.55739">
        <ele>179.9</ele>
        <time>2021-08-18T19:44:32Z</time>
      </trkpt>
      <trkpt lat="43.64506" lon="0.55736">
        <ele>179.9</ele>
        <time>2021-08-18T19:44:33Z</time>
      </trkpt>
      <trkpt lat="43.64468" lon="0.5571">
        <ele>177.02</ele>
        <time>2021-08-18T19:44:41Z</time>
      </trkpt>
      <trkpt lat="43.64464" lon="0.55706">
        <ele>177.02</ele>
        <time>2021-08-18T19:44:42Z</time>
      </trkpt>
      <trkpt lat="43.6446" lon="0.55701">
        <ele>176.54</ele>
        <time>2021-08-18T19:44:43Z</time>
      </trkpt>
      <trkpt lat="43.64456" lon="0.55696">
        <ele>176.06</ele>
        <time>2021-08-18T19:44:44Z</time>
      </trkpt>
      <trkpt lat="43.64453" lon="0.55691">
        <ele>175.58</ele>
        <time>2021-08-18T19:44:45Z</time>
      </trkpt>
      <trkpt lat="43.64442" lon="0.55669">
        <ele>173.66</ele>
        <time>2021-08-18T19:44:48Z</time>
      </trkpt>
      <trkpt lat="43.64439" lon="0.55661">
        <ele>173.17</ele>
        <time>2021-08-18T19:44:49Z</time>
      </trkpt>
      <trkpt lat="43.64437" lon="0.55651">
        <ele>173.17</ele>
        <time>2021-08-18T19:44:50Z</time>
      </trkpt>
      <trkpt lat="43.64436" lon="0.55641">
        <ele>172.21</ele>
        <time>2021-08-18T19:44:51Z</time>
      </trkpt>
      <trkpt lat="43.64435" lon="0.5563">
        <ele>171.73</ele>
        <time>2021-08-18T19:44:52Z</time>
      </trkpt>
      <trkpt lat="43.64435" lon="0.5562">
        <ele>171.73</ele>
        <time>2021-08-18T19:44:53Z</time>
      </trkpt>
      <trkpt lat="43.64435" lon="0.55555">
        <ele>168.37</ele>
        <time>2021-08-18T19:44:59Z</time>
      </trkpt>
      <trkpt lat="43.64439" lon="0.55534">
        <ele>167.89</ele>
        <time>2021-08-18T19:45:01Z</time>
      </trkpt>
      <trkpt lat="43.64455" lon="0.55466">
        <ele>166.93</ele>
        <time>2021-08-18T19:45:08Z</time>
      </trkpt>
      <trkpt lat="43.6446" lon="0.55414">
        <ele>168.85</ele>
        <time>2021-08-18T19:45:15Z</time>
      </trkpt>
      <trkpt lat="43.64462" lon="0.55378">
        <ele>170.29</ele>
        <time>2021-08-18T19:45:22Z</time>
      </trkpt>
      <trkpt lat="43.64468" lon="0.55344">
        <ele>171.73</ele>
        <time>2021-08-18T19:45:30Z</time>
      </trkpt>
      <trkpt lat="43.64473" lon="0.55307">
        <ele>171.73</ele>
        <time>2021-08-18T19:45:38Z</time>
      </trkpt>
      <trkpt lat="43.64474" lon="0.55287">
        <ele>170.29</ele>
        <time>2021-08-18T19:45:41Z</time>
      </trkpt>
      <trkpt lat="43.64474" lon="0.55273">
        <ele>169.81</ele>
        <time>2021-08-18T19:45:43Z</time>
      </trkpt>
      <trkpt lat="43.64473" lon="0.55257">
        <ele>168.85</ele>
        <time>2021-08-18T19:45:45Z</time>
      </trkpt>
      <trkpt lat="43.64479" lon="0.55185">
        <ele>166.93</ele>
        <time>2021-08-18T19:45:53Z</time>
      </trkpt>
      <trkpt lat="43.6448" lon="0.55163">
        <ele>167.41</ele>
        <time>2021-08-18T19:45:56Z</time>
      </trkpt>
      <trkpt lat="43.64482" lon="0.55132">
        <ele>168.85</ele>
        <time>2021-08-18T19:46:02Z</time>
      </trkpt>
      <trkpt lat="43.64484" lon="0.551">
        <ele>169.81</ele>
        <time>2021-08-18T19:46:10Z</time>
      </trkpt>
      <trkpt lat="43.64486" lon="0.55067">
        <ele>170.29</ele>
        <time>2021-08-18T19:46:18Z</time>
      </trkpt>
      <trkpt lat="43.64489" lon="0.55038">
        <ele>171.25</ele>
        <time>2021-08-18T19:46:27Z</time>
      </trkpt>
      <trkpt lat="43.64491" lon="0.55003">
        <ele>171.73</ele>
        <time>2021-08-18T19:46:36Z</time>
      </trkpt>
      <trkpt lat="43.64494" lon="0.54968">
        <ele>172.69</ele>
        <time>2021-08-18T19:46:45Z</time>
      </trkpt>
      <trkpt lat="43.64495" lon="0.54949">
        <ele>173.17</ele>
        <time>2021-08-18T19:46:52Z</time>
      </trkpt>
      <trkpt lat="43.64497" lon="0.54928">
        <ele>173.66</ele>
        <time>2021-08-18T19:46:59Z</time>
      </trkpt>
      <trkpt lat="43.64498" lon="0.54896">
        <ele>174.62</ele>
        <time>2021-08-18T19:47:08Z</time>
      </trkpt>
      <trkpt lat="43.645" lon="0.54869">
        <ele>176.06</ele>
        <time>2021-08-18T19:47:17Z</time>
      </trkpt>
      <trkpt lat="43.64502" lon="0.54838">
        <ele>176.54</ele>
        <time>2021-08-18T19:47:27Z</time>
      </trkpt>
      <trkpt lat="43.64503" lon="0.54811">
        <ele>178.46</ele>
        <time>2021-08-18T19:47:37Z</time>
      </trkpt>
      <trkpt lat="43.64503" lon="0.54784">
        <ele>178.94</ele>
        <time>2021-08-18T19:47:46Z</time>
      </trkpt>
      <trkpt lat="43.64506" lon="0.54759">
        <ele>179.9</ele>
        <time>2021-08-18T19:47:55Z</time>
      </trkpt>
      <trkpt lat="43.64511" lon="0.5474">
        <ele>181.35</ele>
        <time>2021-08-18T19:48:03Z</time>
      </trkpt>
      <trkpt lat="43.64515" lon="0.54723">
        <ele>182.79</ele>
        <time>2021-08-18T19:48:11Z</time>
      </trkpt>
      <trkpt lat="43.64519" lon="0.54704">
        <ele>183.75</ele>
        <time>2021-08-18T19:48:21Z</time>
      </trkpt>
      <trkpt lat="43.64521" lon="0.54684">
        <ele>185.19</ele>
        <time>2021-08-18T19:48:32Z</time>
      </trkpt>
      <trkpt lat="43.64521" lon="0.54682">
        <ele>185.67</ele>
        <time>2021-08-18T19:48:33Z</time>
      </trkpt>
      <trkpt lat="43.64522" lon="0.5466">
        <ele>187.11</ele>
        <time>2021-08-18T19:48:44Z</time>
      </trkpt>
      <trkpt lat="43.64524" lon="0.54643">
        <ele>188.56</ele>
        <time>2021-08-18T19:48:53Z</time>
      </trkpt>
      <trkpt lat="43.64526" lon="0.54625">
        <ele>190</ele>
        <time>2021-08-18T19:49:03Z</time>
      </trkpt>
      <trkpt lat="43.64527" lon="0.54619">
        <ele>190.48</ele>
        <time>2021-08-18T19:49:06Z</time>
      </trkpt>
      <trkpt lat="43.64527" lon="0.54617">
        <ele>190.48</ele>
        <time>2021-08-18T19:49:07Z</time>
      </trkpt>
      <trkpt lat="43.64527" lon="0.54615">
        <ele>190.48</ele>
        <time>2021-08-18T19:49:08Z</time>
      </trkpt>
      <trkpt lat="43.64528" lon="0.54614">
        <ele>190.48</ele>
        <time>2021-08-18T19:49:09Z</time>
      </trkpt>
      <trkpt lat="43.64528" lon="0.54612">
        <ele>190.96</ele>
        <time>2021-08-18T19:49:10Z</time>
      </trkpt>
      <trkpt lat="43.64529" lon="0.54596">
        <ele>192.4</ele>
        <time>2021-08-18T19:49:19Z</time>
      </trkpt>
      <trkpt lat="43.64529" lon="0.54586">
        <ele>193.36</ele>
        <time>2021-08-18T19:49:27Z</time>
      </trkpt>
      <trkpt lat="43.64529" lon="0.54577">
        <ele>194.8</ele>
        <time>2021-08-18T19:49:35Z</time>
      </trkpt>
      <trkpt lat="43.64529" lon="0.54574">
        <ele>194.8</ele>
        <time>2021-08-18T19:49:38Z</time>
      </trkpt>
      <trkpt lat="43.64528" lon="0.54558">
        <ele>196.73</ele>
        <time>2021-08-18T19:49:49Z</time>
      </trkpt>
      <trkpt lat="43.64527" lon="0.54543">
        <ele>197.69</ele>
        <time>2021-08-18T19:49:58Z</time>
      </trkpt>
      <trkpt lat="43.64526" lon="0.54525">
        <ele>198.65</ele>
        <time>2021-08-18T19:50:08Z</time>
      </trkpt>
      <trkpt lat="43.64527" lon="0.54509">
        <ele>200.09</ele>
        <time>2021-08-18T19:50:17Z</time>
      </trkpt>
      <trkpt lat="43.64526" lon="0.54492">
        <ele>201.53</ele>
        <time>2021-08-18T19:50:28Z</time>
      </trkpt>
      <trkpt lat="43.64525" lon="0.54475">
        <ele>202.98</ele>
        <time>2021-08-18T19:50:38Z</time>
      </trkpt>
      <trkpt lat="43.64524" lon="0.54462">
        <ele>203.94</ele>
        <time>2021-08-18T19:50:45Z</time>
      </trkpt>
      <trkpt lat="43.64522" lon="0.54453">
        <ele>204.42</ele>
        <time>2021-08-18T19:50:53Z</time>
      </trkpt>
      <trkpt lat="43.64522" lon="0.54449">
        <ele>204.42</ele>
        <time>2021-08-18T19:50:56Z</time>
      </trkpt>
      <trkpt lat="43.64519" lon="0.54431">
        <ele>204.9</ele>
        <time>2021-08-18T19:51:04Z</time>
      </trkpt>
      <trkpt lat="43.64515" lon="0.54406">
        <ele>206.34</ele>
        <time>2021-08-18T19:51:14Z</time>
      </trkpt>
      <trkpt lat="43.64511" lon="0.54388">
        <ele>207.3</ele>
        <time>2021-08-18T19:51:21Z</time>
      </trkpt>
      <trkpt lat="43.64511" lon="0.54386">
        <ele>207.78</ele>
        <time>2021-08-18T19:51:22Z</time>
      </trkpt>
      <trkpt lat="43.64509" lon="0.54368">
        <ele>208.26</ele>
        <time>2021-08-18T19:51:30Z</time>
      </trkpt>
      <trkpt lat="43.64508" lon="0.54356">
        <ele>209.22</ele>
        <time>2021-08-18T19:51:37Z</time>
      </trkpt>
      <trkpt lat="43.64507" lon="0.5434">
        <ele>211.15</ele>
        <time>2021-08-18T19:51:47Z</time>
      </trkpt>
      <trkpt lat="43.64506" lon="0.54327">
        <ele>212.59</ele>
        <time>2021-08-18T19:51:56Z</time>
      </trkpt>
      <trkpt lat="43.64501" lon="0.54313">
        <ele>214.51</ele>
        <time>2021-08-18T19:52:06Z</time>
      </trkpt>
      <trkpt lat="43.64496" lon="0.54296">
        <ele>215.95</ele>
        <time>2021-08-18T19:52:18Z</time>
      </trkpt>
      <trkpt lat="43.64495" lon="0.54276">
        <ele>217.88</ele>
        <time>2021-08-18T19:52:30Z</time>
      </trkpt>
      <trkpt lat="43.64496" lon="0.5426">
        <ele>219.32</ele>
        <time>2021-08-18T19:52:39Z</time>
      </trkpt>
      <trkpt lat="43.64498" lon="0.54247">
        <ele>220.28</ele>
        <time>2021-08-18T19:52:48Z</time>
      </trkpt>
      <trkpt lat="43.64501" lon="0.54227">
        <ele>222.2</ele>
        <time>2021-08-18T19:53:00Z</time>
      </trkpt>
      <trkpt lat="43.64504" lon="0.54208">
        <ele>224.12</ele>
        <time>2021-08-18T19:53:11Z</time>
      </trkpt>
      <trkpt lat="43.64504" lon="0.54207">
        <ele>224.12</ele>
        <time>2021-08-18T19:53:12Z</time>
      </trkpt>
      <trkpt lat="43.64507" lon="0.54189">
        <ele>226.05</ele>
        <time>2021-08-18T19:53:23Z</time>
      </trkpt>
      <trkpt lat="43.64511" lon="0.54172">
        <ele>227.49</ele>
        <time>2021-08-18T19:53:34Z</time>
      </trkpt>
      <trkpt lat="43.64516" lon="0.54154">
        <ele>228.93</ele>
        <time>2021-08-18T19:53:45Z</time>
      </trkpt>
      <trkpt lat="43.64518" lon="0.5415">
        <ele>229.41</ele>
        <time>2021-08-18T19:53:52Z</time>
      </trkpt>
      <trkpt lat="43.64517" lon="0.54149">
        <ele>229.41</ele>
        <time>2021-08-18T19:54:07Z</time>
      </trkpt>
      <trkpt lat="43.64517" lon="0.54145">
        <ele>229.41</ele>
        <time>2021-08-18T19:54:11Z</time>
      </trkpt>
      <trkpt lat="43.64517" lon="0.54143">
        <ele>229.41</ele>
        <time>2021-08-18T19:54:12Z</time>
      </trkpt>
      <trkpt lat="43.64518" lon="0.54142">
        <ele>229.41</ele>
        <time>2021-08-18T19:54:13Z</time>
      </trkpt>
      <trkpt lat="43.64519" lon="0.5414">
        <ele>230.37</ele>
        <time>2021-08-18T19:54:14Z</time>
      </trkpt>
      <trkpt lat="43.6452" lon="0.54139">
        <ele>230.85</ele>
        <time>2021-08-18T19:54:15Z</time>
      </trkpt>
      <trkpt lat="43.64521" lon="0.54137">
        <ele>230.85</ele>
        <time>2021-08-18T19:54:16Z</time>
      </trkpt>
      <trkpt lat="43.64521" lon="0.54135">
        <ele>230.85</ele>
        <time>2021-08-18T19:54:17Z</time>
      </trkpt>
      <trkpt lat="43.64522" lon="0.54133">
        <ele>230.85</ele>
        <time>2021-08-18T19:54:18Z</time>
      </trkpt>
      <trkpt lat="43.64531" lon="0.54112">
        <ele>232.3</ele>
        <time>2021-08-18T19:54:28Z</time>
      </trkpt>
      <trkpt lat="43.6454" lon="0.54094">
        <ele>234.22</ele>
        <time>2021-08-18T19:54:37Z</time>
      </trkpt>
      <trkpt lat="43.64547" lon="0.5408">
        <ele>235.66</ele>
        <time>2021-08-18T19:54:45Z</time>
      </trkpt>
      <trkpt lat="43.64554" lon="0.54067">
        <ele>236.62</ele>
        <time>2021-08-18T19:54:53Z</time>
      </trkpt>
      <trkpt lat="43.64565" lon="0.54045">
        <ele>239.02</ele>
        <time>2021-08-18T19:55:05Z</time>
      </trkpt>
      <trkpt lat="43.64574" lon="0.54028">
        <ele>239.99</ele>
        <time>2021-08-18T19:55:14Z</time>
      </trkpt>
      <trkpt lat="43.64581" lon="0.54013">
        <ele>240.95</ele>
        <time>2021-08-18T19:55:21Z</time>
      </trkpt>
      <trkpt lat="43.64589" lon="0.53993">
        <ele>242.39</ele>
        <time>2021-08-18T19:55:30Z</time>
      </trkpt>
      <trkpt lat="43.64595" lon="0.53974">
        <ele>243.35</ele>
        <time>2021-08-18T19:55:38Z</time>
      </trkpt>
      <trkpt lat="43.64601" lon="0.53952">
        <ele>243.35</ele>
        <time>2021-08-18T19:55:45Z</time>
      </trkpt>
      <trkpt lat="43.6461" lon="0.53922">
        <ele>244.31</ele>
        <time>2021-08-18T19:55:53Z</time>
      </trkpt>
      <trkpt lat="43.64623" lon="0.53892">
        <ele>242.87</ele>
        <time>2021-08-18T19:55:59Z</time>
      </trkpt>
      <trkpt lat="43.64648" lon="0.53845">
        <ele>239.99</ele>
        <time>2021-08-18T19:56:06Z</time>
      </trkpt>
      <trkpt lat="43.64688" lon="0.53776">
        <ele>237.1</ele>
        <time>2021-08-18T19:56:15Z</time>
      </trkpt>
      <trkpt lat="43.64719" lon="0.53732">
        <ele>237.58</ele>
        <time>2021-08-18T19:56:22Z</time>
      </trkpt>
      <trkpt lat="43.64723" lon="0.53728">
        <ele>237.58</ele>
        <time>2021-08-18T19:56:23Z</time>
      </trkpt>
      <trkpt lat="43.64743" lon="0.5371">
        <ele>239.02</ele>
        <time>2021-08-18T19:56:29Z</time>
      </trkpt>
      <trkpt lat="43.64758" lon="0.53697">
        <ele>240.95</ele>
        <time>2021-08-18T19:56:36Z</time>
      </trkpt>
      <trkpt lat="43.64765" lon="0.53691">
        <ele>242.39</ele>
        <time>2021-08-18T19:56:43Z</time>
      </trkpt>
      <trkpt lat="43.64773" lon="0.53682">
        <ele>243.35</ele>
        <time>2021-08-18T19:56:51Z</time>
      </trkpt>
      <trkpt lat="43.64783" lon="0.53672">
        <ele>245.27</ele>
        <time>2021-08-18T19:57:01Z</time>
      </trkpt>
      <trkpt lat="43.64792" lon="0.5366">
        <ele>246.72</ele>
        <time>2021-08-18T19:57:11Z</time>
      </trkpt>
      <trkpt lat="43.64801" lon="0.5365">
        <ele>247.68</ele>
        <time>2021-08-18T19:57:20Z</time>
      </trkpt>
      <trkpt lat="43.64804" lon="0.53647">
        <ele>248.16</ele>
        <time>2021-08-18T19:57:27Z</time>
      </trkpt>
      <trkpt lat="43.64805" lon="0.53646">
        <ele>248.16</ele>
        <time>2021-08-18T19:57:28Z</time>
      </trkpt>
      <trkpt lat="43.64806" lon="0.53644">
        <ele>248.64</ele>
        <time>2021-08-18T19:57:29Z</time>
      </trkpt>
      <trkpt lat="43.64819" lon="0.5363">
        <ele>249.6</ele>
        <time>2021-08-18T19:57:37Z</time>
      </trkpt>
      <trkpt lat="43.64836" lon="0.53616">
        <ele>250.08</ele>
        <time>2021-08-18T19:57:45Z</time>
      </trkpt>
      <trkpt lat="43.64865" lon="0.53595">
        <ele>250.08</ele>
        <time>2021-08-18T19:57:54Z</time>
      </trkpt>
      <trkpt lat="43.6488" lon="0.53581">
        <ele>250.08</ele>
        <time>2021-08-18T19:57:58Z</time>
      </trkpt>
      <trkpt lat="43.64909" lon="0.53547">
        <ele>250.08</ele>
        <time>2021-08-18T19:58:07Z</time>
      </trkpt>
      <trkpt lat="43.64936" lon="0.53509">
        <ele>250.56</ele>
        <time>2021-08-18T19:58:17Z</time>
      </trkpt>
      <trkpt lat="43.64961" lon="0.5347">
        <ele>250.56</ele>
        <time>2021-08-18T19:58:27Z</time>
      </trkpt>
      <trkpt lat="43.64984" lon="0.53431">
        <ele>251.52</ele>
        <time>2021-08-18T19:58:37Z</time>
      </trkpt>
      <trkpt lat="43.65003" lon="0.53402">
        <ele>252</ele>
        <time>2021-08-18T19:58:45Z</time>
      </trkpt>
      <trkpt lat="43.6503" lon="0.53367">
        <ele>253.44</ele>
        <time>2021-08-18T19:58:57Z</time>
      </trkpt>
      <trkpt lat="43.65053" lon="0.53343">
        <ele>254.41</ele>
        <time>2021-08-18T19:59:06Z</time>
      </trkpt>
      <trkpt lat="43.65072" lon="0.53324">
        <ele>255.37</ele>
        <time>2021-08-18T19:59:14Z</time>
      </trkpt>
      <trkpt lat="43.65085" lon="0.53303">
        <ele>255.85</ele>
        <time>2021-08-18T19:59:21Z</time>
      </trkpt>
      <trkpt lat="43.651" lon="0.53277">
        <ele>256.81</ele>
        <time>2021-08-18T19:59:29Z</time>
      </trkpt>
      <trkpt lat="43.65116" lon="0.53246">
        <ele>256.81</ele>
        <time>2021-08-18T19:59:37Z</time>
      </trkpt>
      <trkpt lat="43.65135" lon="0.53203">
        <ele>257.29</ele>
        <time>2021-08-18T19:59:46Z</time>
      </trkpt>
      <trkpt lat="43.65148" lon="0.5317">
        <ele>257.77</ele>
        <time>2021-08-18T19:59:53Z</time>
      </trkpt>
      <trkpt lat="43.65154" lon="0.53141">
        <ele>260.17</ele>
        <time>2021-08-18T20:00:01Z</time>
      </trkpt>
      <trkpt lat="43.65157" lon="0.5311">
        <ele>262.1</ele>
        <time>2021-08-18T20:00:10Z</time>
      </trkpt>
      <trkpt lat="43.65158" lon="0.53088">
        <ele>262.58</ele>
        <time>2021-08-18T20:00:17Z</time>
      </trkpt>
      <trkpt lat="43.65149" lon="0.53071">
        <ele>262.58</ele>
        <time>2021-08-18T20:00:22Z</time>
      </trkpt>
      <trkpt lat="43.65123" lon="0.53041">
        <ele>261.14</ele>
        <time>2021-08-18T20:00:31Z</time>
      </trkpt>
      <trkpt lat="43.65095" lon="0.53007">
        <ele>260.65</ele>
        <time>2021-08-18T20:00:40Z</time>
      </trkpt>
      <trkpt lat="43.65092" lon="0.53004">
        <ele>260.65</ele>
        <time>2021-08-18T20:00:41Z</time>
      </trkpt>
      <trkpt lat="43.65089" lon="0.53">
        <ele>260.65</ele>
        <time>2021-08-18T20:00:42Z</time>
      </trkpt>
      <trkpt lat="43.6507" lon="0.52978">
        <ele>262.1</ele>
        <time>2021-08-18T20:00:49Z</time>
      </trkpt>
      <trkpt lat="43.65058" lon="0.52958">
        <ele>263.06</ele>
        <time>2021-08-18T20:00:56Z</time>
      </trkpt>
      <trkpt lat="43.65055" lon="0.52928">
        <ele>264.5</ele>
        <time>2021-08-18T20:01:04Z</time>
      </trkpt>
      <trkpt lat="43.65057" lon="0.52897">
        <ele>265.94</ele>
        <time>2021-08-18T20:01:12Z</time>
      </trkpt>
      <trkpt lat="43.65062" lon="0.52856">
        <ele>267.38</ele>
        <time>2021-08-18T20:01:22Z</time>
      </trkpt>
      <trkpt lat="43.6507" lon="0.52821">
        <ele>268.35</ele>
        <time>2021-08-18T20:01:31Z</time>
      </trkpt>
      <trkpt lat="43.65083" lon="0.52782">
        <ele>268.35</ele>
        <time>2021-08-18T20:01:40Z</time>
      </trkpt>
      <trkpt lat="43.65091" lon="0.52758">
        <ele>268.83</ele>
        <time>2021-08-18T20:01:45Z</time>
      </trkpt>
      <trkpt lat="43.65106" lon="0.52712">
        <ele>268.83</ele>
        <time>2021-08-18T20:01:54Z</time>
      </trkpt>
      <trkpt lat="43.65111" lon="0.52697">
        <ele>268.83</ele>
        <time>2021-08-18T20:01:57Z</time>
      </trkpt>
      <trkpt lat="43.65131" lon="0.52638">
        <ele>268.83</ele>
        <time>2021-08-18T20:02:08Z</time>
      </trkpt>
      <trkpt lat="43.65144" lon="0.52602">
        <ele>269.79</ele>
        <time>2021-08-18T20:02:15Z</time>
      </trkpt>
      <trkpt lat="43.65163" lon="0.52549">
        <ele>269.79</ele>
        <time>2021-08-18T20:02:24Z</time>
      </trkpt>
      <trkpt lat="43.65179" lon="0.5251">
        <ele>270.27</ele>
        <time>2021-08-18T20:02:31Z</time>
      </trkpt>
      <trkpt lat="43.65197" lon="0.52474">
        <ele>270.75</ele>
        <time>2021-08-18T20:02:39Z</time>
      </trkpt>
      <trkpt lat="43.65213" lon="0.5244">
        <ele>270.75</ele>
        <time>2021-08-18T20:02:47Z</time>
      </trkpt>
      <trkpt lat="43.65235" lon="0.52392">
        <ele>270.75</ele>
        <time>2021-08-18T20:02:55Z</time>
      </trkpt>
      <trkpt lat="43.65256" lon="0.52343">
        <ele>271.23</ele>
        <time>2021-08-18T20:03:03Z</time>
      </trkpt>
      <trkpt lat="43.65274" lon="0.52306">
        <ele>272.67</ele>
        <time>2021-08-18T20:03:10Z</time>
      </trkpt>
      <trkpt lat="43.65287" lon="0.52272">
        <ele>273.63</ele>
        <time>2021-08-18T20:03:17Z</time>
      </trkpt>
      <trkpt lat="43.65289" lon="0.52267">
        <ele>273.63</ele>
        <time>2021-08-18T20:03:18Z</time>
      </trkpt>
      <trkpt lat="43.65291" lon="0.52256">
        <ele>273.63</ele>
        <time>2021-08-18T20:03:20Z</time>
      </trkpt>
      <trkpt lat="43.65292" lon="0.5225">
        <ele>273.63</ele>
        <time>2021-08-18T20:03:21Z</time>
      </trkpt>
      <trkpt lat="43.65298" lon="0.5221">
        <ele>275.07</ele>
        <time>2021-08-18T20:03:29Z</time>
      </trkpt>
      <trkpt lat="43.65301" lon="0.52173">
        <ele>275.56</ele>
        <time>2021-08-18T20:03:35Z</time>
      </trkpt>
      <trkpt lat="43.65305" lon="0.52129">
        <ele>275.56</ele>
        <time>2021-08-18T20:03:42Z</time>
      </trkpt>
      <trkpt lat="43.65305" lon="0.52116">
        <ele>275.56</ele>
        <time>2021-08-18T20:03:44Z</time>
      </trkpt>
      <trkpt lat="43.65304" lon="0.52109">
        <ele>275.56</ele>
        <time>2021-08-18T20:03:45Z</time>
      </trkpt>
      <trkpt lat="43.65303" lon="0.52077">
        <ele>275.56</ele>
        <time>2021-08-18T20:03:50Z</time>
      </trkpt>
      <trkpt lat="43.65303" lon="0.52071">
        <ele>275.56</ele>
        <time>2021-08-18T20:03:51Z</time>
      </trkpt>
      <trkpt lat="43.65302" lon="0.52064">
        <ele>274.11</ele>
        <time>2021-08-18T20:03:52Z</time>
      </trkpt>
      <trkpt lat="43.65301" lon="0.52058">
        <ele>274.11</ele>
        <time>2021-08-18T20:03:53Z</time>
      </trkpt>
      <trkpt lat="43.65301" lon="0.52052">
        <ele>274.11</ele>
        <time>2021-08-18T20:03:54Z</time>
      </trkpt>
      <trkpt lat="43.65291" lon="0.5199">
        <ele>274.11</ele>
        <time>2021-08-18T20:04:03Z</time>
      </trkpt>
      <trkpt lat="43.65288" lon="0.51959">
        <ele>273.63</ele>
        <time>2021-08-18T20:04:08Z</time>
      </trkpt>
      <trkpt lat="43.65288" lon="0.51929">
        <ele>273.63</ele>
        <time>2021-08-18T20:04:14Z</time>
      </trkpt>
      <trkpt lat="43.65297" lon="0.51889">
        <ele>273.63</ele>
        <time>2021-08-18T20:04:22Z</time>
      </trkpt>
      <trkpt lat="43.65304" lon="0.51845">
        <ele>272.67</ele>
        <time>2021-08-18T20:04:30Z</time>
      </trkpt>
      <trkpt lat="43.65321" lon="0.51775">
        <ele>271.23</ele>
        <time>2021-08-18T20:04:41Z</time>
      </trkpt>
      <trkpt lat="43.65322" lon="0.51769">
        <ele>271.23</ele>
        <time>2021-08-18T20:04:42Z</time>
      </trkpt>
      <trkpt lat="43.65336" lon="0.51709">
        <ele>270.27</ele>
        <time>2021-08-18T20:04:51Z</time>
      </trkpt>
      <trkpt lat="43.65347" lon="0.51653">
        <ele>270.27</ele>
        <time>2021-08-18T20:04:59Z</time>
      </trkpt>
      <trkpt lat="43.6536" lon="0.51594">
        <ele>270.75</ele>
        <time>2021-08-18T20:05:08Z</time>
      </trkpt>
      <trkpt lat="43.65362" lon="0.51588">
        <ele>270.75</ele>
        <time>2021-08-18T20:05:09Z</time>
      </trkpt>
      <trkpt lat="43.65363" lon="0.51582">
        <ele>270.75</ele>
        <time>2021-08-18T20:05:10Z</time>
      </trkpt>
      <trkpt lat="43.65364" lon="0.51576">
        <ele>270.75</ele>
        <time>2021-08-18T20:05:11Z</time>
      </trkpt>
      <trkpt lat="43.65366" lon="0.5157">
        <ele>270.75</ele>
        <time>2021-08-18T20:05:12Z</time>
      </trkpt>
      <trkpt lat="43.65367" lon="0.51565">
        <ele>270.75</ele>
        <time>2021-08-18T20:05:13Z</time>
      </trkpt>
      <trkpt lat="43.65368" lon="0.51559">
        <ele>270.75</ele>
        <time>2021-08-18T20:05:14Z</time>
      </trkpt>
      <trkpt lat="43.65369" lon="0.51553">
        <ele>270.75</ele>
        <time>2021-08-18T20:05:15Z</time>
      </trkpt>
      <trkpt lat="43.6537" lon="0.51547">
        <ele>270.75</ele>
        <time>2021-08-18T20:05:16Z</time>
      </trkpt>
      <trkpt lat="43.65375" lon="0.51511">
        <ele>271.71</ele>
        <time>2021-08-18T20:05:23Z</time>
      </trkpt>
      <trkpt lat="43.65378" lon="0.51474">
        <ele>272.67</ele>
        <time>2021-08-18T20:05:30Z</time>
      </trkpt>
      <trkpt lat="43.6538" lon="0.51441">
        <ele>272.67</ele>
        <time>2021-08-18T20:05:37Z</time>
      </trkpt>
      <trkpt lat="43.65383" lon="0.51424">
        <ele>272.67</ele>
        <time>2021-08-18T20:05:41Z</time>
      </trkpt>
      <trkpt lat="43.65385" lon="0.5142">
        <ele>272.67</ele>
        <time>2021-08-18T20:05:42Z</time>
      </trkpt>
      <trkpt lat="43.65388" lon="0.51417">
        <ele>272.67</ele>
        <time>2021-08-18T20:05:43Z</time>
      </trkpt>
      <trkpt lat="43.65391" lon="0.51415">
        <ele>272.67</ele>
        <time>2021-08-18T20:05:44Z</time>
      </trkpt>
      <trkpt lat="43.65394" lon="0.51413">
        <ele>272.67</ele>
        <time>2021-08-18T20:05:45Z</time>
      </trkpt>
      <trkpt lat="43.65397" lon="0.51409">
        <ele>272.67</ele>
        <time>2021-08-18T20:05:46Z</time>
      </trkpt>
      <trkpt lat="43.65398" lon="0.51405">
        <ele>272.67</ele>
        <time>2021-08-18T20:05:47Z</time>
      </trkpt>
      <trkpt lat="43.65399" lon="0.51401">
        <ele>272.67</ele>
        <time>2021-08-18T20:05:48Z</time>
      </trkpt>
      <trkpt lat="43.654" lon="0.51397">
        <ele>272.67</ele>
        <time>2021-08-18T20:05:49Z</time>
      </trkpt>
      <trkpt lat="43.65401" lon="0.51393">
        <ele>272.67</ele>
        <time>2021-08-18T20:05:50Z</time>
      </trkpt>
      <trkpt lat="43.65401" lon="0.51389">
        <ele>272.67</ele>
        <time>2021-08-18T20:05:51Z</time>
      </trkpt>
      <trkpt lat="43.65401" lon="0.51385">
        <ele>272.67</ele>
        <time>2021-08-18T20:05:52Z</time>
      </trkpt>
      <trkpt lat="43.65401" lon="0.51382">
        <ele>272.67</ele>
        <time>2021-08-18T20:05:53Z</time>
      </trkpt>
      <trkpt lat="43.654" lon="0.51378">
        <ele>272.67</ele>
        <time>2021-08-18T20:05:54Z</time>
      </trkpt>
      <trkpt lat="43.654" lon="0.51375">
        <ele>272.67</ele>
        <time>2021-08-18T20:05:55Z</time>
      </trkpt>
      <trkpt lat="43.654" lon="0.51373">
        <ele>272.67</ele>
        <time>2021-08-18T20:05:56Z</time>
      </trkpt>
      <trkpt lat="43.654" lon="0.5137">
        <ele>272.67</ele>
        <time>2021-08-18T20:05:57Z</time>
      </trkpt>
      <trkpt lat="43.654" lon="0.51368">
        <ele>272.67</ele>
        <time>2021-08-18T20:05:58Z</time>
      </trkpt>
      <trkpt lat="43.654" lon="0.51366">
        <ele>272.67</ele>
        <time>2021-08-18T20:05:59Z</time>
      </trkpt>
      <trkpt lat="43.65402" lon="0.51364">
        <ele>272.67</ele>
        <time>2021-08-18T20:06:00Z</time>
      </trkpt>
      <trkpt lat="43.65403" lon="0.51362">
        <ele>272.67</ele>
        <time>2021-08-18T20:06:01Z</time>
      </trkpt>
      <trkpt lat="43.65404" lon="0.51359">
        <ele>272.67</ele>
        <time>2021-08-18T20:06:02Z</time>
      </trkpt>
      <trkpt lat="43.65405" lon="0.51357">
        <ele>272.67</ele>
        <time>2021-08-18T20:06:03Z</time>
      </trkpt>
      <trkpt lat="43.65406" lon="0.51354">
        <ele>272.67</ele>
        <time>2021-08-18T20:06:04Z</time>
      </trkpt>
      <trkpt lat="43.65406" lon="0.51351">
        <ele>272.67</ele>
        <time>2021-08-18T20:06:05Z</time>
      </trkpt>
      <trkpt lat="43.65407" lon="0.51349">
        <ele>272.67</ele>
        <time>2021-08-18T20:06:06Z</time>
      </trkpt>
      <trkpt lat="43.65408" lon="0.51345">
        <ele>273.15</ele>
        <time>2021-08-18T20:06:11Z</time>
      </trkpt>
      <trkpt lat="43.65411" lon="0.51344">
        <ele>273.15</ele>
        <time>2021-08-18T20:06:17Z</time>
      </trkpt>
      <trkpt lat="43.65413" lon="0.51344">
        <ele>273.15</ele>
        <time>2021-08-18T20:06:18Z</time>
      </trkpt>
      <trkpt lat="43.65414" lon="0.51344">
        <ele>273.15</ele>
        <time>2021-08-18T20:06:19Z</time>
      </trkpt>
      <trkpt lat="43.65416" lon="0.51345">
        <ele>273.15</ele>
        <time>2021-08-18T20:06:20Z</time>
      </trkpt>
      <trkpt lat="43.65418" lon="0.51346">
        <ele>271.71</ele>
        <time>2021-08-18T20:06:21Z</time>
      </trkpt>
      <trkpt lat="43.6542" lon="0.51347">
        <ele>271.23</ele>
        <time>2021-08-18T20:06:22Z</time>
      </trkpt>
      <trkpt lat="43.65422" lon="0.51348">
        <ele>271.23</ele>
        <time>2021-08-18T20:06:23Z</time>
      </trkpt>
    </trkseg>
  </trk>
  <trk>
    <name><![CDATA[13 FD]]></name>
    <trkseg>
      <trkpt lat="43.65427" lon="0.51356">
        <ele>280.36</ele>
        <time>2021-08-19T05:29:20Z</time>
      </trkpt>
      <trkpt lat="43.65417" lon="0.51352">
        <ele>282.28</ele>
        <time>2021-08-19T05:29:29Z</time>
      </trkpt>
      <trkpt lat="43.65414" lon="0.51348">
        <ele>282.28</ele>
        <time>2021-08-19T05:29:36Z</time>
      </trkpt>
      <trkpt lat="43.65414" lon="0.51345">
        <ele>282.28</ele>
        <time>2021-08-19T05:29:44Z</time>
      </trkpt>
      <trkpt lat="43.65412" lon="0.51345">
        <ele>282.28</ele>
        <time>2021-08-19T05:29:46Z</time>
      </trkpt>
      <trkpt lat="43.65403" lon="0.51355">
        <ele>282.28</ele>
        <time>2021-08-19T05:29:53Z</time>
      </trkpt>
      <trkpt lat="43.65402" lon="0.51357">
        <ele>282.28</ele>
        <time>2021-08-19T05:29:55Z</time>
      </trkpt>
      <trkpt lat="43.65395" lon="0.51354">
        <ele>282.77</ele>
        <time>2021-08-19T05:30:00Z</time>
      </trkpt>
      <trkpt lat="43.65391" lon="0.51346">
        <ele>282.77</ele>
        <time>2021-08-19T05:30:05Z</time>
      </trkpt>
      <trkpt lat="43.6539" lon="0.51321">
        <ele>282.77</ele>
        <time>2021-08-19T05:30:12Z</time>
      </trkpt>
      <trkpt lat="43.65391" lon="0.51283">
        <ele>280.84</ele>
        <time>2021-08-19T05:30:20Z</time>
      </trkpt>
      <trkpt lat="43.65393" lon="0.5123">
        <ele>279.88</ele>
        <time>2021-08-19T05:30:28Z</time>
      </trkpt>
      <trkpt lat="43.65393" lon="0.51205">
        <ele>278.44</ele>
        <time>2021-08-19T05:30:31Z</time>
      </trkpt>
      <trkpt lat="43.65394" lon="0.51197">
        <ele>277.96</ele>
        <time>2021-08-19T05:30:32Z</time>
      </trkpt>
      <trkpt lat="43.65394" lon="0.51171">
        <ele>277.48</ele>
        <time>2021-08-19T05:30:35Z</time>
      </trkpt>
      <trkpt lat="43.65394" lon="0.51163">
        <ele>277.48</ele>
        <time>2021-08-19T05:30:36Z</time>
      </trkpt>
      <trkpt lat="43.65395" lon="0.51154">
        <ele>277</ele>
        <time>2021-08-19T05:30:37Z</time>
      </trkpt>
      <trkpt lat="43.65394" lon="0.51119">
        <ele>276.52</ele>
        <time>2021-08-19T05:30:41Z</time>
      </trkpt>
      <trkpt lat="43.65387" lon="0.51058">
        <ele>275.56</ele>
        <time>2021-08-19T05:30:48Z</time>
      </trkpt>
      <trkpt lat="43.65379" lon="0.50995">
        <ele>240.95</ele>
        <time>2021-08-19T05:30:55Z</time>
      </trkpt>
      <trkpt lat="43.65378" lon="0.50986">
        <ele>240.95</ele>
        <time>2021-08-19T05:30:56Z</time>
      </trkpt>
      <trkpt lat="43.65375" lon="0.50957">
        <ele>259.69</ele>
        <time>2021-08-19T05:30:59Z</time>
      </trkpt>
      <trkpt lat="43.65375" lon="0.50948">
        <ele>260.17</ele>
        <time>2021-08-19T05:31:00Z</time>
      </trkpt>
      <trkpt lat="43.65374" lon="0.50939">
        <ele>260.17</ele>
        <time>2021-08-19T05:31:01Z</time>
      </trkpt>
      <trkpt lat="43.65368" lon="0.50887">
        <ele>260.17</ele>
        <time>2021-08-19T05:31:08Z</time>
      </trkpt>
      <trkpt lat="43.65363" lon="0.50833">
        <ele>260.17</ele>
        <time>2021-08-19T05:31:16Z</time>
      </trkpt>
      <trkpt lat="43.65363" lon="0.50812">
        <ele>261.14</ele>
        <time>2021-08-19T05:31:21Z</time>
      </trkpt>
      <trkpt lat="43.65358" lon="0.50811">
        <ele>261.14</ele>
        <time>2021-08-19T05:31:28Z</time>
      </trkpt>
      <trkpt lat="43.65356" lon="0.50805">
        <ele>261.14</ele>
        <time>2021-08-19T05:31:34Z</time>
      </trkpt>
      <trkpt lat="43.65356" lon="0.50803">
        <ele>261.14</ele>
        <time>2021-08-19T05:31:35Z</time>
      </trkpt>
      <trkpt lat="43.65356" lon="0.50778">
        <ele>261.14</ele>
        <time>2021-08-19T05:31:42Z</time>
      </trkpt>
      <trkpt lat="43.65359" lon="0.50755">
        <ele>261.62</ele>
        <time>2021-08-19T05:31:49Z</time>
      </trkpt>
      <trkpt lat="43.65363" lon="0.50728">
        <ele>261.62</ele>
        <time>2021-08-19T05:31:56Z</time>
      </trkpt>
      <trkpt lat="43.65372" lon="0.5068">
        <ele>262.58</ele>
        <time>2021-08-19T05:32:05Z</time>
      </trkpt>
      <trkpt lat="43.65383" lon="0.50625">
        <ele>262.58</ele>
        <time>2021-08-19T05:32:15Z</time>
      </trkpt>
      <trkpt lat="43.65385" lon="0.50614">
        <ele>262.58</ele>
        <time>2021-08-19T05:32:17Z</time>
      </trkpt>
      <trkpt lat="43.65391" lon="0.5059">
        <ele>262.58</ele>
        <time>2021-08-19T05:32:21Z</time>
      </trkpt>
      <trkpt lat="43.65415" lon="0.50543">
        <ele>262.58</ele>
        <time>2021-08-19T05:32:30Z</time>
      </trkpt>
      <trkpt lat="43.65438" lon="0.50504">
        <ele>263.54</ele>
        <time>2021-08-19T05:32:38Z</time>
      </trkpt>
      <trkpt lat="43.65469" lon="0.50454">
        <ele>263.54</ele>
        <time>2021-08-19T05:32:48Z</time>
      </trkpt>
      <trkpt lat="43.65501" lon="0.504">
        <ele>263.54</ele>
        <time>2021-08-19T05:32:58Z</time>
      </trkpt>
      <trkpt lat="43.65511" lon="0.50383">
        <ele>262.58</ele>
        <time>2021-08-19T05:33:01Z</time>
      </trkpt>
      <trkpt lat="43.65537" lon="0.50336">
        <ele>260.65</ele>
        <time>2021-08-19T05:33:09Z</time>
      </trkpt>
      <trkpt lat="43.65563" lon="0.50269">
        <ele>257.29</ele>
        <time>2021-08-19T05:33:17Z</time>
      </trkpt>
      <trkpt lat="43.65594" lon="0.50179">
        <ele>254.41</ele>
        <time>2021-08-19T05:33:26Z</time>
      </trkpt>
      <trkpt lat="43.65608" lon="0.5012">
        <ele>251.04</ele>
        <time>2021-08-19T05:33:31Z</time>
      </trkpt>
      <trkpt lat="43.65623" lon="0.50029">
        <ele>250.56</ele>
        <time>2021-08-19T05:33:39Z</time>
      </trkpt>
      <trkpt lat="43.65635" lon="0.49951">
        <ele>250.56</ele>
        <time>2021-08-19T05:33:47Z</time>
      </trkpt>
      <trkpt lat="43.65634" lon="0.49943">
        <ele>250.56</ele>
        <time>2021-08-19T05:33:48Z</time>
      </trkpt>
      <trkpt lat="43.65632" lon="0.49934">
        <ele>250.56</ele>
        <time>2021-08-19T05:33:49Z</time>
      </trkpt>
      <trkpt lat="43.65629" lon="0.49927">
        <ele>250.56</ele>
        <time>2021-08-19T05:33:50Z</time>
      </trkpt>
      <trkpt lat="43.65625" lon="0.4992">
        <ele>250.56</ele>
        <time>2021-08-19T05:33:51Z</time>
      </trkpt>
      <trkpt lat="43.65621" lon="0.49914">
        <ele>250.56</ele>
        <time>2021-08-19T05:33:52Z</time>
      </trkpt>
      <trkpt lat="43.65616" lon="0.49907">
        <ele>250.08</ele>
        <time>2021-08-19T05:33:53Z</time>
      </trkpt>
      <trkpt lat="43.6558" lon="0.49856">
        <ele>249.6</ele>
        <time>2021-08-19T05:34:01Z</time>
      </trkpt>
      <trkpt lat="43.65557" lon="0.49824">
        <ele>249.6</ele>
        <time>2021-08-19T05:34:07Z</time>
      </trkpt>
      <trkpt lat="43.65554" lon="0.49819">
        <ele>249.6</ele>
        <time>2021-08-19T05:34:08Z</time>
      </trkpt>
      <trkpt lat="43.65549" lon="0.49808">
        <ele>251.04</ele>
        <time>2021-08-19T05:34:10Z</time>
      </trkpt>
      <trkpt lat="43.65525" lon="0.49749">
        <ele>249.6</ele>
        <time>2021-08-19T05:34:19Z</time>
      </trkpt>
      <trkpt lat="43.65493" lon="0.49699">
        <ele>248.16</ele>
        <time>2021-08-19T05:34:26Z</time>
      </trkpt>
      <trkpt lat="43.65464" lon="0.49653">
        <ele>247.68</ele>
        <time>2021-08-19T05:34:32Z</time>
      </trkpt>
      <trkpt lat="43.65459" lon="0.49645">
        <ele>247.68</ele>
        <time>2021-08-19T05:34:33Z</time>
      </trkpt>
      <trkpt lat="43.65432" lon="0.49609">
        <ele>246.72</ele>
        <time>2021-08-19T05:34:39Z</time>
      </trkpt>
      <trkpt lat="43.65405" lon="0.49586">
        <ele>248.16</ele>
        <time>2021-08-19T05:34:45Z</time>
      </trkpt>
      <trkpt lat="43.65387" lon="0.49574">
        <ele>250.56</ele>
        <time>2021-08-19T05:34:51Z</time>
      </trkpt>
      <trkpt lat="43.65376" lon="0.49563">
        <ele>252</ele>
        <time>2021-08-19T05:34:58Z</time>
      </trkpt>
      <trkpt lat="43.65375" lon="0.49561">
        <ele>252.48</ele>
        <time>2021-08-19T05:34:59Z</time>
      </trkpt>
      <trkpt lat="43.65374" lon="0.4956">
        <ele>252.48</ele>
        <time>2021-08-19T05:35:00Z</time>
      </trkpt>
      <trkpt lat="43.65373" lon="0.49559">
        <ele>252.48</ele>
        <time>2021-08-19T05:35:01Z</time>
      </trkpt>
      <trkpt lat="43.65372" lon="0.49558">
        <ele>252.96</ele>
        <time>2021-08-19T05:35:02Z</time>
      </trkpt>
      <trkpt lat="43.65371" lon="0.49558">
        <ele>252.96</ele>
        <time>2021-08-19T05:35:03Z</time>
      </trkpt>
      <trkpt lat="43.6537" lon="0.49557">
        <ele>252.96</ele>
        <time>2021-08-19T05:35:04Z</time>
      </trkpt>
      <trkpt lat="43.65369" lon="0.49557">
        <ele>253.44</ele>
        <time>2021-08-19T05:35:05Z</time>
      </trkpt>
      <trkpt lat="43.65359" lon="0.49547">
        <ele>254.89</ele>
        <time>2021-08-19T05:35:13Z</time>
      </trkpt>
      <trkpt lat="43.65343" lon="0.49533">
        <ele>257.29</ele>
        <time>2021-08-19T05:35:25Z</time>
      </trkpt>
      <trkpt lat="43.65329" lon="0.49519">
        <ele>258.25</ele>
        <time>2021-08-19T05:35:34Z</time>
      </trkpt>
      <trkpt lat="43.6531" lon="0.49498">
        <ele>258.25</ele>
        <time>2021-08-19T05:35:43Z</time>
      </trkpt>
      <trkpt lat="43.65283" lon="0.49471">
        <ele>258.25</ele>
        <time>2021-08-19T05:35:51Z</time>
      </trkpt>
      <trkpt lat="43.6526" lon="0.49451">
        <ele>257.29</ele>
        <time>2021-08-19T05:35:58Z</time>
      </trkpt>
      <trkpt lat="43.65253" lon="0.49444">
        <ele>257.29</ele>
        <time>2021-08-19T05:36:00Z</time>
      </trkpt>
      <trkpt lat="43.65224" lon="0.4942">
        <ele>253.44</ele>
        <time>2021-08-19T05:36:06Z</time>
      </trkpt>
      <trkpt lat="43.65205" lon="0.49407">
        <ele>250.08</ele>
        <time>2021-08-19T05:36:09Z</time>
      </trkpt>
      <trkpt lat="43.65181" lon="0.49395">
        <ele>246.72</ele>
        <time>2021-08-19T05:36:12Z</time>
      </trkpt>
      <trkpt lat="43.65155" lon="0.49382">
        <ele>242.87</ele>
        <time>2021-08-19T05:36:15Z</time>
      </trkpt>
      <trkpt lat="43.65119" lon="0.49363">
        <ele>239.51</ele>
        <time>2021-08-19T05:36:19Z</time>
      </trkpt>
      <trkpt lat="43.6511" lon="0.49359">
        <ele>239.51</ele>
        <time>2021-08-19T05:36:20Z</time>
      </trkpt>
      <trkpt lat="43.65041" lon="0.4933">
        <ele>239.02</ele>
        <time>2021-08-19T05:36:28Z</time>
      </trkpt>
      <trkpt lat="43.64997" lon="0.49327">
        <ele>239.02</ele>
        <time>2021-08-19T05:36:34Z</time>
      </trkpt>
      <trkpt lat="43.64976" lon="0.49329">
        <ele>240.47</ele>
        <time>2021-08-19T05:36:38Z</time>
      </trkpt>
      <trkpt lat="43.6494" lon="0.49331">
        <ele>241.43</ele>
        <time>2021-08-19T05:36:46Z</time>
      </trkpt>
      <trkpt lat="43.64903" lon="0.49329">
        <ele>238.06</ele>
        <time>2021-08-19T05:36:52Z</time>
      </trkpt>
      <trkpt lat="43.64835" lon="0.49325">
        <ele>236.14</ele>
        <time>2021-08-19T05:37:02Z</time>
      </trkpt>
      <trkpt lat="43.64795" lon="0.49319">
        <ele>237.58</ele>
        <time>2021-08-19T05:37:09Z</time>
      </trkpt>
      <trkpt lat="43.64784" lon="0.49317">
        <ele>239.51</ele>
        <time>2021-08-19T05:37:12Z</time>
      </trkpt>
      <trkpt lat="43.64773" lon="0.49313">
        <ele>241.43</ele>
        <time>2021-08-19T05:37:19Z</time>
      </trkpt>
      <trkpt lat="43.64771" lon="0.49313">
        <ele>241.43</ele>
        <time>2021-08-19T05:37:20Z</time>
      </trkpt>
      <trkpt lat="43.6477" lon="0.49312">
        <ele>241.91</ele>
        <time>2021-08-19T05:37:21Z</time>
      </trkpt>
      <trkpt lat="43.64768" lon="0.49311">
        <ele>241.91</ele>
        <time>2021-08-19T05:37:22Z</time>
      </trkpt>
      <trkpt lat="43.64751" lon="0.49308">
        <ele>244.31</ele>
        <time>2021-08-19T05:37:32Z</time>
      </trkpt>
      <trkpt lat="43.64733" lon="0.49301">
        <ele>244.79</ele>
        <time>2021-08-19T05:37:41Z</time>
      </trkpt>
      <trkpt lat="43.64713" lon="0.49278">
        <ele>244.79</ele>
        <time>2021-08-19T05:37:48Z</time>
      </trkpt>
      <trkpt lat="43.64693" lon="0.49241">
        <ele>241.43</ele>
        <time>2021-08-19T05:37:54Z</time>
      </trkpt>
      <trkpt lat="43.64665" lon="0.49192">
        <ele>237.58</ele>
        <time>2021-08-19T05:38:00Z</time>
      </trkpt>
      <trkpt lat="43.64623" lon="0.49123">
        <ele>235.66</ele>
        <time>2021-08-19T05:38:08Z</time>
      </trkpt>
      <trkpt lat="43.64617" lon="0.49117">
        <ele>235.66</ele>
        <time>2021-08-19T05:38:09Z</time>
      </trkpt>
      <trkpt lat="43.64611" lon="0.49113">
        <ele>235.66</ele>
        <time>2021-08-19T05:38:10Z</time>
      </trkpt>
      <trkpt lat="43.64604" lon="0.49111">
        <ele>235.66</ele>
        <time>2021-08-19T05:38:11Z</time>
      </trkpt>
      <trkpt lat="43.64598" lon="0.49109">
        <ele>235.66</ele>
        <time>2021-08-19T05:38:12Z</time>
      </trkpt>
      <trkpt lat="43.64591" lon="0.49108">
        <ele>235.66</ele>
        <time>2021-08-19T05:38:13Z</time>
      </trkpt>
      <trkpt lat="43.64547" lon="0.49101">
        <ele>237.58</ele>
        <time>2021-08-19T05:38:21Z</time>
      </trkpt>
      <trkpt lat="43.64538" lon="0.49099">
        <ele>238.06</ele>
        <time>2021-08-19T05:38:23Z</time>
      </trkpt>
      <trkpt lat="43.64508" lon="0.49093">
        <ele>239.51</ele>
        <time>2021-08-19T05:38:31Z</time>
      </trkpt>
      <trkpt lat="43.64494" lon="0.49084">
        <ele>241.43</ele>
        <time>2021-08-19T05:38:38Z</time>
      </trkpt>
      <trkpt lat="43.64482" lon="0.49068">
        <ele>242.87</ele>
        <time>2021-08-19T05:38:46Z</time>
      </trkpt>
      <trkpt lat="43.64467" lon="0.49043">
        <ele>244.31</ele>
        <time>2021-08-19T05:38:55Z</time>
      </trkpt>
      <trkpt lat="43.64453" lon="0.49021">
        <ele>243.35</ele>
        <time>2021-08-19T05:39:01Z</time>
      </trkpt>
      <trkpt lat="43.64433" lon="0.4899">
        <ele>239.99</ele>
        <time>2021-08-19T05:39:06Z</time>
      </trkpt>
      <trkpt lat="43.64406" lon="0.48947">
        <ele>236.14</ele>
        <time>2021-08-19T05:39:11Z</time>
      </trkpt>
      <trkpt lat="43.64389" lon="0.4892">
        <ele>235.18</ele>
        <time>2021-08-19T05:39:14Z</time>
      </trkpt>
      <trkpt lat="43.64383" lon="0.48913">
        <ele>235.18</ele>
        <time>2021-08-19T05:39:15Z</time>
      </trkpt>
      <trkpt lat="43.64376" lon="0.48906">
        <ele>235.66</ele>
        <time>2021-08-19T05:39:16Z</time>
      </trkpt>
      <trkpt lat="43.64343" lon="0.4888">
        <ele>238.06</ele>
        <time>2021-08-19T05:39:22Z</time>
      </trkpt>
      <trkpt lat="43.64317" lon="0.48875">
        <ele>239.99</ele>
        <time>2021-08-19T05:39:29Z</time>
      </trkpt>
      <trkpt lat="43.64313" lon="0.48876">
        <ele>240.47</ele>
        <time>2021-08-19T05:39:30Z</time>
      </trkpt>
      <trkpt lat="43.64309" lon="0.48877">
        <ele>240.47</ele>
        <time>2021-08-19T05:39:31Z</time>
      </trkpt>
      <trkpt lat="43.64305" lon="0.48879">
        <ele>240.47</ele>
        <time>2021-08-19T05:39:32Z</time>
      </trkpt>
      <trkpt lat="43.64301" lon="0.48882">
        <ele>240.47</ele>
        <time>2021-08-19T05:39:33Z</time>
      </trkpt>
      <trkpt lat="43.64291" lon="0.48889">
        <ele>238.54</ele>
        <time>2021-08-19T05:39:35Z</time>
      </trkpt>
      <trkpt lat="43.64269" lon="0.48911">
        <ele>235.18</ele>
        <time>2021-08-19T05:39:39Z</time>
      </trkpt>
      <trkpt lat="43.64244" lon="0.4893">
        <ele>231.81</ele>
        <time>2021-08-19T05:39:42Z</time>
      </trkpt>
      <trkpt lat="43.64226" lon="0.4894">
        <ele>230.85</ele>
        <time>2021-08-19T05:39:44Z</time>
      </trkpt>
      <trkpt lat="43.64217" lon="0.48944">
        <ele>230.37</ele>
        <time>2021-08-19T05:39:45Z</time>
      </trkpt>
      <trkpt lat="43.64207" lon="0.48946">
        <ele>230.85</ele>
        <time>2021-08-19T05:39:46Z</time>
      </trkpt>
      <trkpt lat="43.64198" lon="0.48946">
        <ele>230.37</ele>
        <time>2021-08-19T05:39:47Z</time>
      </trkpt>
      <trkpt lat="43.64189" lon="0.48944">
        <ele>230.37</ele>
        <time>2021-08-19T05:39:48Z</time>
      </trkpt>
      <trkpt lat="43.64181" lon="0.48943">
        <ele>230.37</ele>
        <time>2021-08-19T05:39:49Z</time>
      </trkpt>
      <trkpt lat="43.6415" lon="0.48931">
        <ele>233.26</ele>
        <time>2021-08-19T05:39:54Z</time>
      </trkpt>
      <trkpt lat="43.64129" lon="0.48922">
        <ele>234.22</ele>
        <time>2021-08-19T05:39:58Z</time>
      </trkpt>
      <trkpt lat="43.64082" lon="0.48913">
        <ele>235.18</ele>
        <time>2021-08-19T05:40:08Z</time>
      </trkpt>
      <trkpt lat="43.64063" lon="0.48907">
        <ele>231.81</ele>
        <time>2021-08-19T05:40:11Z</time>
      </trkpt>
      <trkpt lat="43.64033" lon="0.48898">
        <ele>228.45</ele>
        <time>2021-08-19T05:40:15Z</time>
      </trkpt>
      <trkpt lat="43.64026" lon="0.48893">
        <ele>228.45</ele>
        <time>2021-08-19T05:40:16Z</time>
      </trkpt>
      <trkpt lat="43.64019" lon="0.48887">
        <ele>228.45</ele>
        <time>2021-08-19T05:40:17Z</time>
      </trkpt>
      <trkpt lat="43.64014" lon="0.4888">
        <ele>227.97</ele>
        <time>2021-08-19T05:40:18Z</time>
      </trkpt>
      <trkpt lat="43.64009" lon="0.48873">
        <ele>227.97</ele>
        <time>2021-08-19T05:40:19Z</time>
      </trkpt>
      <trkpt lat="43.63977" lon="0.48836">
        <ele>227.49</ele>
        <time>2021-08-19T05:40:25Z</time>
      </trkpt>
      <trkpt lat="43.63971" lon="0.48832">
        <ele>227.01</ele>
        <time>2021-08-19T05:40:26Z</time>
      </trkpt>
      <trkpt lat="43.63964" lon="0.48829">
        <ele>226.53</ele>
        <time>2021-08-19T05:40:27Z</time>
      </trkpt>
      <trkpt lat="43.63956" lon="0.48826">
        <ele>225.57</ele>
        <time>2021-08-19T05:40:28Z</time>
      </trkpt>
      <trkpt lat="43.63948" lon="0.48824">
        <ele>223.64</ele>
        <time>2021-08-19T05:40:29Z</time>
      </trkpt>
      <trkpt lat="43.63939" lon="0.48823">
        <ele>222.68</ele>
        <time>2021-08-19T05:40:30Z</time>
      </trkpt>
      <trkpt lat="43.63929" lon="0.48822">
        <ele>221.72</ele>
        <time>2021-08-19T05:40:31Z</time>
      </trkpt>
      <trkpt lat="43.6392" lon="0.48822">
        <ele>221.72</ele>
        <time>2021-08-19T05:40:32Z</time>
      </trkpt>
      <trkpt lat="43.63896" lon="0.4882">
        <ele>221.72</ele>
        <time>2021-08-19T05:40:36Z</time>
      </trkpt>
      <trkpt lat="43.63894" lon="0.48817">
        <ele>221.72</ele>
        <time>2021-08-19T05:40:37Z</time>
      </trkpt>
      <trkpt lat="43.63892" lon="0.48812">
        <ele>221.72</ele>
        <time>2021-08-19T05:40:38Z</time>
      </trkpt>
      <trkpt lat="43.63891" lon="0.48807">
        <ele>221.72</ele>
        <time>2021-08-19T05:40:39Z</time>
      </trkpt>
      <trkpt lat="43.63888" lon="0.48802">
        <ele>221.72</ele>
        <time>2021-08-19T05:40:40Z</time>
      </trkpt>
      <trkpt lat="43.63887" lon="0.488">
        <ele>221.72</ele>
        <time>2021-08-19T05:40:41Z</time>
      </trkpt>
      <trkpt lat="43.63885" lon="0.48799">
        <ele>223.64</ele>
        <time>2021-08-19T05:40:42Z</time>
      </trkpt>
      <trkpt lat="43.63884" lon="0.48798">
        <ele>223.64</ele>
        <time>2021-08-19T05:40:43Z</time>
      </trkpt>
      <trkpt lat="43.63881" lon="0.48795">
        <ele>224.61</ele>
        <time>2021-08-19T05:40:49Z</time>
      </trkpt>
      <trkpt lat="43.63875" lon="0.48791">
        <ele>225.57</ele>
        <time>2021-08-19T05:40:57Z</time>
      </trkpt>
      <trkpt lat="43.63869" lon="0.48787">
        <ele>227.49</ele>
        <time>2021-08-19T05:41:06Z</time>
      </trkpt>
      <trkpt lat="43.63861" lon="0.48784">
        <ele>228.93</ele>
        <time>2021-08-19T05:41:16Z</time>
      </trkpt>
      <trkpt lat="43.63852" lon="0.48781">
        <ele>230.37</ele>
        <time>2021-08-19T05:41:26Z</time>
      </trkpt>
      <trkpt lat="43.63851" lon="0.4878">
        <ele>230.37</ele>
        <time>2021-08-19T05:41:27Z</time>
      </trkpt>
      <trkpt lat="43.63844" lon="0.4878">
        <ele>230.85</ele>
        <time>2021-08-19T05:41:34Z</time>
      </trkpt>
      <trkpt lat="43.63838" lon="0.48778">
        <ele>230.85</ele>
        <time>2021-08-19T05:41:39Z</time>
      </trkpt>
      <trkpt lat="43.63837" lon="0.48779">
        <ele>230.85</ele>
        <time>2021-08-19T05:41:40Z</time>
      </trkpt>
      <trkpt lat="43.63835" lon="0.48778">
        <ele>230.85</ele>
        <time>2021-08-19T05:41:41Z</time>
      </trkpt>
      <trkpt lat="43.63832" lon="0.48778">
        <ele>231.33</ele>
        <time>2021-08-19T05:41:42Z</time>
      </trkpt>
      <trkpt lat="43.6383" lon="0.48778">
        <ele>231.33</ele>
        <time>2021-08-19T05:41:43Z</time>
      </trkpt>
      <trkpt lat="43.63819" lon="0.48778">
        <ele>231.33</ele>
        <time>2021-08-19T05:41:46Z</time>
      </trkpt>
      <trkpt lat="43.63817" lon="0.48776">
        <ele>231.33</ele>
        <time>2021-08-19T05:41:47Z</time>
      </trkpt>
      <trkpt lat="43.63815" lon="0.48774">
        <ele>231.33</ele>
        <time>2021-08-19T05:41:48Z</time>
      </trkpt>
      <trkpt lat="43.63813" lon="0.48772">
        <ele>231.33</ele>
        <time>2021-08-19T05:41:49Z</time>
      </trkpt>
      <trkpt lat="43.63811" lon="0.48771">
        <ele>231.33</ele>
        <time>2021-08-19T05:41:50Z</time>
      </trkpt>
      <trkpt lat="43.63809" lon="0.48768">
        <ele>231.33</ele>
        <time>2021-08-19T05:41:51Z</time>
      </trkpt>
      <trkpt lat="43.63808" lon="0.48765">
        <ele>231.33</ele>
        <time>2021-08-19T05:41:52Z</time>
      </trkpt>
      <trkpt lat="43.63806" lon="0.48762">
        <ele>229.89</ele>
        <time>2021-08-19T05:41:53Z</time>
      </trkpt>
      <trkpt lat="43.63803" lon="0.48758">
        <ele>229.41</ele>
        <time>2021-08-19T05:41:54Z</time>
      </trkpt>
      <trkpt lat="43.638" lon="0.48756">
        <ele>228.93</ele>
        <time>2021-08-19T05:41:55Z</time>
      </trkpt>
      <trkpt lat="43.63796" lon="0.48753">
        <ele>227.97</ele>
        <time>2021-08-19T05:41:56Z</time>
      </trkpt>
      <trkpt lat="43.63793" lon="0.48752">
        <ele>227.01</ele>
        <time>2021-08-19T05:41:57Z</time>
      </trkpt>
      <trkpt lat="43.6379" lon="0.48752">
        <ele>226.05</ele>
        <time>2021-08-19T05:41:58Z</time>
      </trkpt>
      <trkpt lat="43.63786" lon="0.48753">
        <ele>225.57</ele>
        <time>2021-08-19T05:41:59Z</time>
      </trkpt>
      <trkpt lat="43.63782" lon="0.48755">
        <ele>224.61</ele>
        <time>2021-08-19T05:42:00Z</time>
      </trkpt>
      <trkpt lat="43.63778" lon="0.48757">
        <ele>223.64</ele>
        <time>2021-08-19T05:42:01Z</time>
      </trkpt>
      <trkpt lat="43.63774" lon="0.48759">
        <ele>223.16</ele>
        <time>2021-08-19T05:42:02Z</time>
      </trkpt>
      <trkpt lat="43.63769" lon="0.4876">
        <ele>222.68</ele>
        <time>2021-08-19T05:42:03Z</time>
      </trkpt>
      <trkpt lat="43.63764" lon="0.4876">
        <ele>222.2</ele>
        <time>2021-08-19T05:42:04Z</time>
      </trkpt>
      <trkpt lat="43.6376" lon="0.48759">
        <ele>221.72</ele>
        <time>2021-08-19T05:42:05Z</time>
      </trkpt>
      <trkpt lat="43.63756" lon="0.48757">
        <ele>220.76</ele>
        <time>2021-08-19T05:42:06Z</time>
      </trkpt>
      <trkpt lat="43.63753" lon="0.48756">
        <ele>220.28</ele>
        <time>2021-08-19T05:42:07Z</time>
      </trkpt>
      <trkpt lat="43.63746" lon="0.48752">
        <ele>219.8</ele>
        <time>2021-08-19T05:42:09Z</time>
      </trkpt>
      <trkpt lat="43.63742" lon="0.4875">
        <ele>219.8</ele>
        <time>2021-08-19T05:42:10Z</time>
      </trkpt>
      <trkpt lat="43.63732" lon="0.48741">
        <ele>217.88</ele>
        <time>2021-08-19T05:42:15Z</time>
      </trkpt>
      <trkpt lat="43.63713" lon="0.48736">
        <ele>216.43</ele>
        <time>2021-08-19T05:42:19Z</time>
      </trkpt>
      <trkpt lat="43.63687" lon="0.4873">
        <ele>214.99</ele>
        <time>2021-08-19T05:42:25Z</time>
      </trkpt>
      <trkpt lat="43.63678" lon="0.48723">
        <ele>213.07</ele>
        <time>2021-08-19T05:42:29Z</time>
      </trkpt>
      <trkpt lat="43.6367" lon="0.48712">
        <ele>211.15</ele>
        <time>2021-08-19T05:42:34Z</time>
      </trkpt>
      <trkpt lat="43.63666" lon="0.48695">
        <ele>208.74</ele>
        <time>2021-08-19T05:42:38Z</time>
      </trkpt>
      <trkpt lat="43.63665" lon="0.48689">
        <ele>208.26</ele>
        <time>2021-08-19T05:42:39Z</time>
      </trkpt>
      <trkpt lat="43.63673" lon="0.48654">
        <ele>202.98</ele>
        <time>2021-08-19T05:42:44Z</time>
      </trkpt>
      <trkpt lat="43.63678" lon="0.48629">
        <ele>200.09</ele>
        <time>2021-08-19T05:42:47Z</time>
      </trkpt>
      <trkpt lat="43.63692" lon="0.48586">
        <ele>195.77</ele>
        <time>2021-08-19T05:42:52Z</time>
      </trkpt>
      <trkpt lat="43.63705" lon="0.48556">
        <ele>191.92</ele>
        <time>2021-08-19T05:42:56Z</time>
      </trkpt>
      <trkpt lat="43.63712" lon="0.48541">
        <ele>190.96</ele>
        <time>2021-08-19T05:42:58Z</time>
      </trkpt>
      <trkpt lat="43.63718" lon="0.48528">
        <ele>189.52</ele>
        <time>2021-08-19T05:43:00Z</time>
      </trkpt>
      <trkpt lat="43.63725" lon="0.48508">
        <ele>188.08</ele>
        <time>2021-08-19T05:43:03Z</time>
      </trkpt>
      <trkpt lat="43.63744" lon="0.48459">
        <ele>184.71</ele>
        <time>2021-08-19T05:43:11Z</time>
      </trkpt>
      <trkpt lat="43.63759" lon="0.48424">
        <ele>181.35</ele>
        <time>2021-08-19T05:43:16Z</time>
      </trkpt>
      <trkpt lat="43.63775" lon="0.48384">
        <ele>179.42</ele>
        <time>2021-08-19T05:43:22Z</time>
      </trkpt>
      <trkpt lat="43.63785" lon="0.48356">
        <ele>177.5</ele>
        <time>2021-08-19T05:43:26Z</time>
      </trkpt>
      <trkpt lat="43.63791" lon="0.48324">
        <ele>175.58</ele>
        <time>2021-08-19T05:43:30Z</time>
      </trkpt>
      <trkpt lat="43.63792" lon="0.48279">
        <ele>173.66</ele>
        <time>2021-08-19T05:43:35Z</time>
      </trkpt>
      <trkpt lat="43.63793" lon="0.4822">
        <ele>171.73</ele>
        <time>2021-08-19T05:43:42Z</time>
      </trkpt>
      <trkpt lat="43.63792" lon="0.48182">
        <ele>171.25</ele>
        <time>2021-08-19T05:43:47Z</time>
      </trkpt>
      <trkpt lat="43.63792" lon="0.48129">
        <ele>170.29</ele>
        <time>2021-08-19T05:43:54Z</time>
      </trkpt>
      <trkpt lat="43.63789" lon="0.48073">
        <ele>168.37</ele>
        <time>2021-08-19T05:44:01Z</time>
      </trkpt>
      <trkpt lat="43.63788" lon="0.48055">
        <ele>168.37</ele>
        <time>2021-08-19T05:44:03Z</time>
      </trkpt>
      <trkpt lat="43.63789" lon="0.48046">
        <ele>168.37</ele>
        <time>2021-08-19T05:44:04Z</time>
      </trkpt>
      <trkpt lat="43.6379" lon="0.48039">
        <ele>168.37</ele>
        <time>2021-08-19T05:44:05Z</time>
      </trkpt>
      <trkpt lat="43.63792" lon="0.48031">
        <ele>168.37</ele>
        <time>2021-08-19T05:44:06Z</time>
      </trkpt>
      <trkpt lat="43.63792" lon="0.48024">
        <ele>168.37</ele>
        <time>2021-08-19T05:44:07Z</time>
      </trkpt>
      <trkpt lat="43.63793" lon="0.48009">
        <ele>167.41</ele>
        <time>2021-08-19T05:44:09Z</time>
      </trkpt>
      <trkpt lat="43.63793" lon="0.48002">
        <ele>167.41</ele>
        <time>2021-08-19T05:44:10Z</time>
      </trkpt>
      <trkpt lat="43.63792" lon="0.47995">
        <ele>167.41</ele>
        <time>2021-08-19T05:44:11Z</time>
      </trkpt>
      <trkpt lat="43.63791" lon="0.47989">
        <ele>167.41</ele>
        <time>2021-08-19T05:44:12Z</time>
      </trkpt>
      <trkpt lat="43.63791" lon="0.47982">
        <ele>167.41</ele>
        <time>2021-08-19T05:44:13Z</time>
      </trkpt>
      <trkpt lat="43.63791" lon="0.47975">
        <ele>167.41</ele>
        <time>2021-08-19T05:44:14Z</time>
      </trkpt>
      <trkpt lat="43.63798" lon="0.47943">
        <ele>167.41</ele>
        <time>2021-08-19T05:44:21Z</time>
      </trkpt>
      <trkpt lat="43.63806" lon="0.47937">
        <ele>167.41</ele>
        <time>2021-08-19T05:44:24Z</time>
      </trkpt>
      <trkpt lat="43.63814" lon="0.47934">
        <ele>167.41</ele>
        <time>2021-08-19T05:44:29Z</time>
      </trkpt>
      <trkpt lat="43.63815" lon="0.47928">
        <ele>167.41</ele>
        <time>2021-08-19T05:44:35Z</time>
      </trkpt>
      <trkpt lat="43.63814" lon="0.4792">
        <ele>167.41</ele>
        <time>2021-08-19T05:44:43Z</time>
      </trkpt>
      <trkpt lat="43.63813" lon="0.47914">
        <ele>167.41</ele>
        <time>2021-08-19T05:44:51Z</time>
      </trkpt>
      <trkpt lat="43.63813" lon="0.47913">
        <ele>167.41</ele>
        <time>2021-08-19T05:44:52Z</time>
      </trkpt>
      <trkpt lat="43.6381" lon="0.47906">
        <ele>167.41</ele>
        <time>2021-08-19T05:44:58Z</time>
      </trkpt>
      <trkpt lat="43.63804" lon="0.47887">
        <ele>167.41</ele>
        <time>2021-08-19T05:45:06Z</time>
      </trkpt>
      <trkpt lat="43.63796" lon="0.4786">
        <ele>167.41</ele>
        <time>2021-08-19T05:45:14Z</time>
      </trkpt>
      <trkpt lat="43.63788" lon="0.47836">
        <ele>167.41</ele>
        <time>2021-08-19T05:45:21Z</time>
      </trkpt>
      <trkpt lat="43.63772" lon="0.47789">
        <ele>168.37</ele>
        <time>2021-08-19T05:45:33Z</time>
      </trkpt>
      <trkpt lat="43.63763" lon="0.47763">
        <ele>168.85</ele>
        <time>2021-08-19T05:45:40Z</time>
      </trkpt>
      <trkpt lat="43.63761" lon="0.47757">
        <ele>169.33</ele>
        <time>2021-08-19T05:45:42Z</time>
      </trkpt>
      <trkpt lat="43.6376" lon="0.47758">
        <ele>169.33</ele>
        <time>2021-08-19T05:45:43Z</time>
      </trkpt>
      <trkpt lat="43.63758" lon="0.4776">
        <ele>169.33</ele>
        <time>2021-08-19T05:45:44Z</time>
      </trkpt>
      <trkpt lat="43.63756" lon="0.47761">
        <ele>169.33</ele>
        <time>2021-08-19T05:45:45Z</time>
      </trkpt>
      <trkpt lat="43.63753" lon="0.47764">
        <ele>169.33</ele>
        <time>2021-08-19T05:45:46Z</time>
      </trkpt>
      <trkpt lat="43.63731" lon="0.47783">
        <ele>169.33</ele>
        <time>2021-08-19T05:45:53Z</time>
      </trkpt>
      <trkpt lat="43.63695" lon="0.47812">
        <ele>169.81</ele>
        <time>2021-08-19T05:46:03Z</time>
      </trkpt>
      <trkpt lat="43.6366" lon="0.4784">
        <ele>169.81</ele>
        <time>2021-08-19T05:46:11Z</time>
      </trkpt>
      <trkpt lat="43.6365" lon="0.4785">
        <ele>168.37</ele>
        <time>2021-08-19T05:46:13Z</time>
      </trkpt>
      <trkpt lat="43.63597" lon="0.47885">
        <ele>167.89</ele>
        <time>2021-08-19T05:46:22Z</time>
      </trkpt>
      <trkpt lat="43.63542" lon="0.47914">
        <ele>167.89</ele>
        <time>2021-08-19T05:46:32Z</time>
      </trkpt>
      <trkpt lat="43.63493" lon="0.47937">
        <ele>167.89</ele>
        <time>2021-08-19T05:46:41Z</time>
      </trkpt>
      <trkpt lat="43.63447" lon="0.47944">
        <ele>167.89</ele>
        <time>2021-08-19T05:46:49Z</time>
      </trkpt>
      <trkpt lat="43.63415" lon="0.47953">
        <ele>169.81</ele>
        <time>2021-08-19T05:46:55Z</time>
      </trkpt>
      <trkpt lat="43.63407" lon="0.47957">
        <ele>169.81</ele>
        <time>2021-08-19T05:46:57Z</time>
      </trkpt>
      <trkpt lat="43.63403" lon="0.47956">
        <ele>169.81</ele>
        <time>2021-08-19T05:46:58Z</time>
      </trkpt>
      <trkpt lat="43.634" lon="0.47953">
        <ele>170.29</ele>
        <time>2021-08-19T05:46:59Z</time>
      </trkpt>
      <trkpt lat="43.63398" lon="0.47949">
        <ele>170.77</ele>
        <time>2021-08-19T05:47:00Z</time>
      </trkpt>
      <trkpt lat="43.63398" lon="0.47946">
        <ele>171.25</ele>
        <time>2021-08-19T05:47:01Z</time>
      </trkpt>
      <trkpt lat="43.63398" lon="0.47941">
        <ele>171.25</ele>
        <time>2021-08-19T05:47:02Z</time>
      </trkpt>
      <trkpt lat="43.63398" lon="0.47937">
        <ele>171.25</ele>
        <time>2021-08-19T05:47:03Z</time>
      </trkpt>
      <trkpt lat="43.63398" lon="0.47934">
        <ele>171.25</ele>
        <time>2021-08-19T05:47:04Z</time>
      </trkpt>
      <trkpt lat="43.63399" lon="0.4791">
        <ele>173.17</ele>
        <time>2021-08-19T05:47:12Z</time>
      </trkpt>
      <trkpt lat="43.63397" lon="0.47879">
        <ele>174.62</ele>
        <time>2021-08-19T05:47:21Z</time>
      </trkpt>
      <trkpt lat="43.63396" lon="0.47844">
        <ele>177.02</ele>
        <time>2021-08-19T05:47:32Z</time>
      </trkpt>
      <trkpt lat="43.63394" lon="0.47805">
        <ele>179.42</ele>
        <time>2021-08-19T05:47:44Z</time>
      </trkpt>
      <trkpt lat="43.63393" lon="0.47772">
        <ele>180.87</ele>
        <time>2021-08-19T05:47:56Z</time>
      </trkpt>
      <trkpt lat="43.63391" lon="0.47746">
        <ele>183.27</ele>
        <time>2021-08-19T05:48:06Z</time>
      </trkpt>
      <trkpt lat="43.63388" lon="0.47723">
        <ele>184.71</ele>
        <time>2021-08-19T05:48:15Z</time>
      </trkpt>
      <trkpt lat="43.63385" lon="0.47701">
        <ele>185.67</ele>
        <time>2021-08-19T05:48:24Z</time>
      </trkpt>
      <trkpt lat="43.6338" lon="0.47672">
        <ele>188.08</ele>
        <time>2021-08-19T05:48:35Z</time>
      </trkpt>
      <trkpt lat="43.63376" lon="0.47645">
        <ele>189.52</ele>
        <time>2021-08-19T05:48:45Z</time>
      </trkpt>
      <trkpt lat="43.63373" lon="0.47624">
        <ele>190.96</ele>
        <time>2021-08-19T05:48:53Z</time>
      </trkpt>
      <trkpt lat="43.63371" lon="0.47599">
        <ele>192.4</ele>
        <time>2021-08-19T05:49:02Z</time>
      </trkpt>
      <trkpt lat="43.63367" lon="0.47568">
        <ele>193.36</ele>
        <time>2021-08-19T05:49:12Z</time>
      </trkpt>
      <trkpt lat="43.63366" lon="0.47532">
        <ele>194.8</ele>
        <time>2021-08-19T05:49:23Z</time>
      </trkpt>
      <trkpt lat="43.63371" lon="0.47519">
        <ele>195.28</ele>
        <time>2021-08-19T05:49:28Z</time>
      </trkpt>
      <trkpt lat="43.6338" lon="0.475">
        <ele>196.25</ele>
        <time>2021-08-19T05:49:35Z</time>
      </trkpt>
      <trkpt lat="43.63376" lon="0.47476">
        <ele>196.25</ele>
        <time>2021-08-19T05:49:41Z</time>
      </trkpt>
      <trkpt lat="43.6336" lon="0.47433">
        <ele>197.21</ele>
        <time>2021-08-19T05:49:52Z</time>
      </trkpt>
      <trkpt lat="43.63348" lon="0.474">
        <ele>198.65</ele>
        <time>2021-08-19T05:50:01Z</time>
      </trkpt>
      <trkpt lat="43.6334" lon="0.47372">
        <ele>199.61</ele>
        <time>2021-08-19T05:50:09Z</time>
      </trkpt>
      <trkpt lat="43.63336" lon="0.47343">
        <ele>201.05</ele>
        <time>2021-08-19T05:50:17Z</time>
      </trkpt>
      <trkpt lat="43.63333" lon="0.47301">
        <ele>203.46</ele>
        <time>2021-08-19T05:50:29Z</time>
      </trkpt>
      <trkpt lat="43.63332" lon="0.47285">
        <ele>204.9</ele>
        <time>2021-08-19T05:50:36Z</time>
      </trkpt>
      <trkpt lat="43.63331" lon="0.47262">
        <ele>206.82</ele>
        <time>2021-08-19T05:50:45Z</time>
      </trkpt>
      <trkpt lat="43.63329" lon="0.47239">
        <ele>208.26</ele>
        <time>2021-08-19T05:50:54Z</time>
      </trkpt>
      <trkpt lat="43.63327" lon="0.47218">
        <ele>209.7</ele>
        <time>2021-08-19T05:51:02Z</time>
      </trkpt>
      <trkpt lat="43.63324" lon="0.47192">
        <ele>211.63</ele>
        <time>2021-08-19T05:51:12Z</time>
      </trkpt>
      <trkpt lat="43.63322" lon="0.47166">
        <ele>213.55</ele>
        <time>2021-08-19T05:51:22Z</time>
      </trkpt>
      <trkpt lat="43.63319" lon="0.47136">
        <ele>214.99</ele>
        <time>2021-08-19T05:51:33Z</time>
      </trkpt>
      <trkpt lat="43.63315" lon="0.47102">
        <ele>217.4</ele>
        <time>2021-08-19T05:51:45Z</time>
      </trkpt>
      <trkpt lat="43.63311" lon="0.47071">
        <ele>218.36</ele>
        <time>2021-08-19T05:51:56Z</time>
      </trkpt>
      <trkpt lat="43.63309" lon="0.47051">
        <ele>219.8</ele>
        <time>2021-08-19T05:52:03Z</time>
      </trkpt>
      <trkpt lat="43.63305" lon="0.47029">
        <ele>221.24</ele>
        <time>2021-08-19T05:52:11Z</time>
      </trkpt>
      <trkpt lat="43.633" lon="0.46994">
        <ele>222.2</ele>
        <time>2021-08-19T05:52:21Z</time>
      </trkpt>
      <trkpt lat="43.63292" lon="0.46956">
        <ele>223.64</ele>
        <time>2021-08-19T05:52:32Z</time>
      </trkpt>
      <trkpt lat="43.6328" lon="0.46919">
        <ele>225.09</ele>
        <time>2021-08-19T05:52:43Z</time>
      </trkpt>
      <trkpt lat="43.63273" lon="0.46906">
        <ele>226.53</ele>
        <time>2021-08-19T05:52:50Z</time>
      </trkpt>
      <trkpt lat="43.63273" lon="0.46906">
        <ele>226.53</ele>
        <time>2021-08-19T05:52:57Z</time>
      </trkpt>
      <trkpt lat="43.63273" lon="0.46906">
        <ele>226.53</ele>
        <time>2021-08-19T05:53:11Z</time>
      </trkpt>
      <trkpt lat="43.63272" lon="0.46905">
        <ele>226.53</ele>
        <time>2021-08-19T05:53:25Z</time>
      </trkpt>
      <trkpt lat="43.63271" lon="0.46905">
        <ele>226.53</ele>
        <time>2021-08-19T05:53:26Z</time>
      </trkpt>
      <trkpt lat="43.63269" lon="0.46904">
        <ele>226.53</ele>
        <time>2021-08-19T05:53:27Z</time>
      </trkpt>
      <trkpt lat="43.63268" lon="0.46902">
        <ele>226.53</ele>
        <time>2021-08-19T05:53:28Z</time>
      </trkpt>
      <trkpt lat="43.63254" lon="0.46895">
        <ele>227.49</ele>
        <time>2021-08-19T05:53:35Z</time>
      </trkpt>
      <trkpt lat="43.63234" lon="0.4689">
        <ele>229.41</ele>
        <time>2021-08-19T05:53:44Z</time>
      </trkpt>
      <trkpt lat="43.63212" lon="0.46888">
        <ele>231.81</ele>
        <time>2021-08-19T05:53:55Z</time>
      </trkpt>
      <trkpt lat="43.63204" lon="0.46875">
        <ele>233.26</ele>
        <time>2021-08-19T05:54:01Z</time>
      </trkpt>
      <trkpt lat="43.63204" lon="0.46872">
        <ele>233.26</ele>
        <time>2021-08-19T05:54:02Z</time>
      </trkpt>
      <trkpt lat="43.63205" lon="0.46868">
        <ele>233.74</ele>
        <time>2021-08-19T05:54:03Z</time>
      </trkpt>
      <trkpt lat="43.63205" lon="0.46865">
        <ele>233.74</ele>
        <time>2021-08-19T05:54:04Z</time>
      </trkpt>
      <trkpt lat="43.63207" lon="0.46862">
        <ele>233.74</ele>
        <time>2021-08-19T05:54:05Z</time>
      </trkpt>
      <trkpt lat="43.63208" lon="0.46859">
        <ele>233.74</ele>
        <time>2021-08-19T05:54:06Z</time>
      </trkpt>
      <trkpt lat="43.63209" lon="0.46856">
        <ele>234.22</ele>
        <time>2021-08-19T05:54:07Z</time>
      </trkpt>
      <trkpt lat="43.6321" lon="0.46853">
        <ele>234.22</ele>
        <time>2021-08-19T05:54:08Z</time>
      </trkpt>
      <trkpt lat="43.63223" lon="0.46816">
        <ele>235.18</ele>
        <time>2021-08-19T05:54:19Z</time>
      </trkpt>
      <trkpt lat="43.63238" lon="0.46777">
        <ele>237.58</ele>
        <time>2021-08-19T05:54:31Z</time>
      </trkpt>
      <trkpt lat="43.63249" lon="0.46741">
        <ele>239.99</ele>
        <time>2021-08-19T05:54:43Z</time>
      </trkpt>
      <trkpt lat="43.63261" lon="0.46704">
        <ele>242.39</ele>
        <time>2021-08-19T05:54:56Z</time>
      </trkpt>
      <trkpt lat="43.63269" lon="0.46668">
        <ele>244.31</ele>
        <time>2021-08-19T05:55:08Z</time>
      </trkpt>
      <trkpt lat="43.63276" lon="0.46633">
        <ele>245.27</ele>
        <time>2021-08-19T05:55:17Z</time>
      </trkpt>
      <trkpt lat="43.63283" lon="0.46586">
        <ele>246.72</ele>
        <time>2021-08-19T05:55:28Z</time>
      </trkpt>
      <trkpt lat="43.63293" lon="0.46549">
        <ele>247.2</ele>
        <time>2021-08-19T05:55:36Z</time>
      </trkpt>
      <trkpt lat="43.6331" lon="0.46501">
        <ele>248.64</ele>
        <time>2021-08-19T05:55:47Z</time>
      </trkpt>
      <trkpt lat="43.63332" lon="0.46447">
        <ele>249.12</ele>
        <time>2021-08-19T05:55:59Z</time>
      </trkpt>
      <trkpt lat="43.63342" lon="0.46426">
        <ele>248.16</ele>
        <time>2021-08-19T05:56:03Z</time>
      </trkpt>
      <trkpt lat="43.63375" lon="0.46384">
        <ele>247.68</ele>
        <time>2021-08-19T05:56:12Z</time>
      </trkpt>
      <trkpt lat="43.63398" lon="0.46348">
        <ele>247.68</ele>
        <time>2021-08-19T05:56:19Z</time>
      </trkpt>
      <trkpt lat="43.634" lon="0.46342">
        <ele>247.68</ele>
        <time>2021-08-19T05:56:20Z</time>
      </trkpt>
      <trkpt lat="43.63402" lon="0.46336">
        <ele>247.68</ele>
        <time>2021-08-19T05:56:21Z</time>
      </trkpt>
      <trkpt lat="43.63418" lon="0.46304">
        <ele>247.68</ele>
        <time>2021-08-19T05:56:27Z</time>
      </trkpt>
      <trkpt lat="43.63424" lon="0.46287">
        <ele>248.64</ele>
        <time>2021-08-19T05:56:30Z</time>
      </trkpt>
      <trkpt lat="43.63439" lon="0.46248">
        <ele>250.56</ele>
        <time>2021-08-19T05:56:38Z</time>
      </trkpt>
      <trkpt lat="43.63444" lon="0.46229">
        <ele>251.04</ele>
        <time>2021-08-19T05:56:42Z</time>
      </trkpt>
      <trkpt lat="43.63446" lon="0.46224">
        <ele>251.04</ele>
        <time>2021-08-19T05:56:43Z</time>
      </trkpt>
      <trkpt lat="43.63447" lon="0.46218">
        <ele>251.04</ele>
        <time>2021-08-19T05:56:44Z</time>
      </trkpt>
      <trkpt lat="43.63449" lon="0.46193">
        <ele>251.52</ele>
        <time>2021-08-19T05:56:50Z</time>
      </trkpt>
      <trkpt lat="43.63457" lon="0.46161">
        <ele>251.04</ele>
        <time>2021-08-19T05:56:57Z</time>
      </trkpt>
      <trkpt lat="43.63474" lon="0.4612">
        <ele>249.6</ele>
        <time>2021-08-19T05:57:05Z</time>
      </trkpt>
      <trkpt lat="43.63479" lon="0.46109">
        <ele>248.64</ele>
        <time>2021-08-19T05:57:07Z</time>
      </trkpt>
      <trkpt lat="43.63505" lon="0.46073">
        <ele>248.16</ele>
        <time>2021-08-19T05:57:15Z</time>
      </trkpt>
      <trkpt lat="43.63508" lon="0.46069">
        <ele>248.16</ele>
        <time>2021-08-19T05:57:16Z</time>
      </trkpt>
      <trkpt lat="43.63511" lon="0.46065">
        <ele>248.16</ele>
        <time>2021-08-19T05:57:17Z</time>
      </trkpt>
      <trkpt lat="43.63532" lon="0.46035">
        <ele>248.16</ele>
        <time>2021-08-19T05:57:25Z</time>
      </trkpt>
      <trkpt lat="43.63555" lon="0.46003">
        <ele>249.12</ele>
        <time>2021-08-19T05:57:34Z</time>
      </trkpt>
      <trkpt lat="43.63567" lon="0.45983">
        <ele>250.08</ele>
        <time>2021-08-19T05:57:40Z</time>
      </trkpt>
      <trkpt lat="43.63579" lon="0.4596">
        <ele>251.04</ele>
        <time>2021-08-19T05:57:47Z</time>
      </trkpt>
      <trkpt lat="43.63593" lon="0.45937">
        <ele>252</ele>
        <time>2021-08-19T05:57:55Z</time>
      </trkpt>
      <trkpt lat="43.63607" lon="0.45908">
        <ele>252.96</ele>
        <time>2021-08-19T05:58:03Z</time>
      </trkpt>
      <trkpt lat="43.63615" lon="0.45887">
        <ele>252.96</ele>
        <time>2021-08-19T05:58:08Z</time>
      </trkpt>
      <trkpt lat="43.63625" lon="0.45854">
        <ele>252.96</ele>
        <time>2021-08-19T05:58:15Z</time>
      </trkpt>
      <trkpt lat="43.63641" lon="0.4581">
        <ele>252.48</ele>
        <time>2021-08-19T05:58:24Z</time>
      </trkpt>
      <trkpt lat="43.63662" lon="0.4575">
        <ele>252.48</ele>
        <time>2021-08-19T05:58:35Z</time>
      </trkpt>
      <trkpt lat="43.63672" lon="0.45714">
        <ele>252.48</ele>
        <time>2021-08-19T05:58:42Z</time>
      </trkpt>
      <trkpt lat="43.6368" lon="0.45681">
        <ele>252.48</ele>
        <time>2021-08-19T05:58:49Z</time>
      </trkpt>
      <trkpt lat="43.63688" lon="0.4564">
        <ele>252.96</ele>
        <time>2021-08-19T05:58:57Z</time>
      </trkpt>
      <trkpt lat="43.63695" lon="0.45599">
        <ele>252.96</ele>
        <time>2021-08-19T05:59:05Z</time>
      </trkpt>
      <trkpt lat="43.63703" lon="0.45551">
        <ele>252.96</ele>
        <time>2021-08-19T05:59:14Z</time>
      </trkpt>
      <trkpt lat="43.63708" lon="0.45536">
        <ele>252.96</ele>
        <time>2021-08-19T05:59:17Z</time>
      </trkpt>
      <trkpt lat="43.63709" lon="0.45531">
        <ele>252.96</ele>
        <time>2021-08-19T05:59:18Z</time>
      </trkpt>
      <trkpt lat="43.63711" lon="0.45527">
        <ele>252.96</ele>
        <time>2021-08-19T05:59:19Z</time>
      </trkpt>
      <trkpt lat="43.63712" lon="0.45521">
        <ele>252.96</ele>
        <time>2021-08-19T05:59:20Z</time>
      </trkpt>
      <trkpt lat="43.63713" lon="0.45515">
        <ele>252.96</ele>
        <time>2021-08-19T05:59:21Z</time>
      </trkpt>
      <trkpt lat="43.63714" lon="0.45509">
        <ele>252.96</ele>
        <time>2021-08-19T05:59:22Z</time>
      </trkpt>
      <trkpt lat="43.63718" lon="0.45493">
        <ele>252.96</ele>
        <time>2021-08-19T05:59:25Z</time>
      </trkpt>
      <trkpt lat="43.63719" lon="0.45487">
        <ele>252.96</ele>
        <time>2021-08-19T05:59:26Z</time>
      </trkpt>
      <trkpt lat="43.63721" lon="0.45482">
        <ele>252.96</ele>
        <time>2021-08-19T05:59:27Z</time>
      </trkpt>
      <trkpt lat="43.63733" lon="0.45438">
        <ele>252.96</ele>
        <time>2021-08-19T05:59:35Z</time>
      </trkpt>
      <trkpt lat="43.63742" lon="0.45396">
        <ele>252</ele>
        <time>2021-08-19T05:59:43Z</time>
      </trkpt>
      <trkpt lat="43.63751" lon="0.45357">
        <ele>251.52</ele>
        <time>2021-08-19T05:59:51Z</time>
      </trkpt>
      <trkpt lat="43.63754" lon="0.4534">
        <ele>251.04</ele>
        <time>2021-08-19T05:59:54Z</time>
      </trkpt>
      <trkpt lat="43.63764" lon="0.45302">
        <ele>250.56</ele>
        <time>2021-08-19T06:00:01Z</time>
      </trkpt>
      <trkpt lat="43.63772" lon="0.45281">
        <ele>250.56</ele>
        <time>2021-08-19T06:00:05Z</time>
      </trkpt>
      <trkpt lat="43.63773" lon="0.45276">
        <ele>250.56</ele>
        <time>2021-08-19T06:00:06Z</time>
      </trkpt>
      <trkpt lat="43.63778" lon="0.4526">
        <ele>250.08</ele>
        <time>2021-08-19T06:00:09Z</time>
      </trkpt>
      <trkpt lat="43.6378" lon="0.45254">
        <ele>250.08</ele>
        <time>2021-08-19T06:00:10Z</time>
      </trkpt>
      <trkpt lat="43.63789" lon="0.45219">
        <ele>249.6</ele>
        <time>2021-08-19T06:00:16Z</time>
      </trkpt>
      <trkpt lat="43.63793" lon="0.45202">
        <ele>249.12</ele>
        <time>2021-08-19T06:00:19Z</time>
      </trkpt>
      <trkpt lat="43.63796" lon="0.4519">
        <ele>248.64</ele>
        <time>2021-08-19T06:00:21Z</time>
      </trkpt>
      <trkpt lat="43.63797" lon="0.45183">
        <ele>248.16</ele>
        <time>2021-08-19T06:00:22Z</time>
      </trkpt>
      <trkpt lat="43.63807" lon="0.45141">
        <ele>245.75</ele>
        <time>2021-08-19T06:00:27Z</time>
      </trkpt>
      <trkpt lat="43.63808" lon="0.45131">
        <ele>245.27</ele>
        <time>2021-08-19T06:00:28Z</time>
      </trkpt>
      <trkpt lat="43.63809" lon="0.45121">
        <ele>244.31</ele>
        <time>2021-08-19T06:00:29Z</time>
      </trkpt>
      <trkpt lat="43.63809" lon="0.45048">
        <ele>242.39</ele>
        <time>2021-08-19T06:00:36Z</time>
      </trkpt>
      <trkpt lat="43.63808" lon="0.45038">
        <ele>242.39</ele>
        <time>2021-08-19T06:00:37Z</time>
      </trkpt>
      <trkpt lat="43.63807" lon="0.45027">
        <ele>241.91</ele>
        <time>2021-08-19T06:00:38Z</time>
      </trkpt>
      <trkpt lat="43.63805" lon="0.45017">
        <ele>241.91</ele>
        <time>2021-08-19T06:00:39Z</time>
      </trkpt>
      <trkpt lat="43.6378" lon="0.44945">
        <ele>240.95</ele>
        <time>2021-08-19T06:00:47Z</time>
      </trkpt>
      <trkpt lat="43.63763" lon="0.44899">
        <ele>240.95</ele>
        <time>2021-08-19T06:00:53Z</time>
      </trkpt>
      <trkpt lat="43.6376" lon="0.44892">
        <ele>240.95</ele>
        <time>2021-08-19T06:00:54Z</time>
      </trkpt>
      <trkpt lat="43.63757" lon="0.44886">
        <ele>240.95</ele>
        <time>2021-08-19T06:00:55Z</time>
      </trkpt>
      <trkpt lat="43.63746" lon="0.44871">
        <ele>240.95</ele>
        <time>2021-08-19T06:00:58Z</time>
      </trkpt>
      <trkpt lat="43.63742" lon="0.44867">
        <ele>240.95</ele>
        <time>2021-08-19T06:00:59Z</time>
      </trkpt>
      <trkpt lat="43.63732" lon="0.4486">
        <ele>240.95</ele>
        <time>2021-08-19T06:01:01Z</time>
      </trkpt>
      <trkpt lat="43.63727" lon="0.44857">
        <ele>240.95</ele>
        <time>2021-08-19T06:01:02Z</time>
      </trkpt>
      <trkpt lat="43.63686" lon="0.44848">
        <ele>240.95</ele>
        <time>2021-08-19T06:01:10Z</time>
      </trkpt>
      <trkpt lat="43.63659" lon="0.44844">
        <ele>240.95</ele>
        <time>2021-08-19T06:01:15Z</time>
      </trkpt>
      <trkpt lat="43.6362" lon="0.4482">
        <ele>240.47</ele>
        <time>2021-08-19T06:01:23Z</time>
      </trkpt>
      <trkpt lat="43.63596" lon="0.44794">
        <ele>237.1</ele>
        <time>2021-08-19T06:01:27Z</time>
      </trkpt>
      <trkpt lat="43.63574" lon="0.44772">
        <ele>235.66</ele>
        <time>2021-08-19T06:01:30Z</time>
      </trkpt>
      <trkpt lat="43.63534" lon="0.44741">
        <ele>232.3</ele>
        <time>2021-08-19T06:01:35Z</time>
      </trkpt>
      <trkpt lat="43.63487" lon="0.44716">
        <ele>227.97</ele>
        <time>2021-08-19T06:01:40Z</time>
      </trkpt>
      <trkpt lat="43.63456" lon="0.44699">
        <ele>224.61</ele>
        <time>2021-08-19T06:01:43Z</time>
      </trkpt>
      <trkpt lat="43.63413" lon="0.44666">
        <ele>221.24</ele>
        <time>2021-08-19T06:01:47Z</time>
      </trkpt>
      <trkpt lat="43.63403" lon="0.44657">
        <ele>221.24</ele>
        <time>2021-08-19T06:01:48Z</time>
      </trkpt>
      <trkpt lat="43.63352" lon="0.44612">
        <ele>217.88</ele>
        <time>2021-08-19T06:01:53Z</time>
      </trkpt>
      <trkpt lat="43.63291" lon="0.44538">
        <ele>215.95</ele>
        <time>2021-08-19T06:02:00Z</time>
      </trkpt>
      <trkpt lat="43.6326" lon="0.44495">
        <ele>212.59</ele>
        <time>2021-08-19T06:02:04Z</time>
      </trkpt>
      <trkpt lat="43.63221" lon="0.44457">
        <ele>209.22</ele>
        <time>2021-08-19T06:02:08Z</time>
      </trkpt>
      <trkpt lat="43.63153" lon="0.44402">
        <ele>208.26</ele>
        <time>2021-08-19T06:02:15Z</time>
      </trkpt>
      <trkpt lat="43.63103" lon="0.44373">
        <ele>203.94</ele>
        <time>2021-08-19T06:02:20Z</time>
      </trkpt>
      <trkpt lat="43.6308" lon="0.4436">
        <ele>198.65</ele>
        <time>2021-08-19T06:02:22Z</time>
      </trkpt>
      <trkpt lat="43.63055" lon="0.44345">
        <ele>194.8</ele>
        <time>2021-08-19T06:02:24Z</time>
      </trkpt>
      <trkpt lat="43.63028" lon="0.44331">
        <ele>190.48</ele>
        <time>2021-08-19T06:02:26Z</time>
      </trkpt>
      <trkpt lat="43.63001" lon="0.44315">
        <ele>187.11</ele>
        <time>2021-08-19T06:02:28Z</time>
      </trkpt>
      <trkpt lat="43.62972" lon="0.443">
        <ele>183.27</ele>
        <time>2021-08-19T06:02:30Z</time>
      </trkpt>
      <trkpt lat="43.62944" lon="0.44288">
        <ele>182.31</ele>
        <time>2021-08-19T06:02:32Z</time>
      </trkpt>
      <trkpt lat="43.6292" lon="0.44281">
        <ele>181.35</ele>
        <time>2021-08-19T06:02:34Z</time>
      </trkpt>
      <trkpt lat="43.62908" lon="0.44279">
        <ele>180.38</ele>
        <time>2021-08-19T06:02:35Z</time>
      </trkpt>
      <trkpt lat="43.62896" lon="0.4428">
        <ele>178.46</ele>
        <time>2021-08-19T06:02:36Z</time>
      </trkpt>
      <trkpt lat="43.6287" lon="0.44283">
        <ele>174.14</ele>
        <time>2021-08-19T06:02:38Z</time>
      </trkpt>
      <trkpt lat="43.62845" lon="0.44288">
        <ele>171.25</ele>
        <time>2021-08-19T06:02:40Z</time>
      </trkpt>
      <trkpt lat="43.6281" lon="0.44297">
        <ele>166.45</ele>
        <time>2021-08-19T06:02:43Z</time>
      </trkpt>
      <trkpt lat="43.62784" lon="0.4431">
        <ele>161.64</ele>
        <time>2021-08-19T06:02:45Z</time>
      </trkpt>
      <trkpt lat="43.62759" lon="0.44325">
        <ele>158.75</ele>
        <time>2021-08-19T06:02:47Z</time>
      </trkpt>
      <trkpt lat="43.62703" lon="0.4437">
        <ele>155.87</ele>
        <time>2021-08-19T06:02:52Z</time>
      </trkpt>
      <trkpt lat="43.62686" lon="0.44385">
        <ele>155.87</ele>
        <time>2021-08-19T06:02:54Z</time>
      </trkpt>
      <trkpt lat="43.62679" lon="0.44389">
        <ele>155.87</ele>
        <time>2021-08-19T06:02:55Z</time>
      </trkpt>
      <trkpt lat="43.62672" lon="0.44389">
        <ele>155.39</ele>
        <time>2021-08-19T06:02:56Z</time>
      </trkpt>
      <trkpt lat="43.62665" lon="0.44386">
        <ele>155.87</ele>
        <time>2021-08-19T06:02:57Z</time>
      </trkpt>
      <trkpt lat="43.62659" lon="0.4438">
        <ele>155.87</ele>
        <time>2021-08-19T06:02:58Z</time>
      </trkpt>
      <trkpt lat="43.62653" lon="0.44376">
        <ele>155.87</ele>
        <time>2021-08-19T06:02:59Z</time>
      </trkpt>
      <trkpt lat="43.62646" lon="0.44372">
        <ele>155.87</ele>
        <time>2021-08-19T06:03:00Z</time>
      </trkpt>
      <trkpt lat="43.6264" lon="0.44369">
        <ele>155.87</ele>
        <time>2021-08-19T06:03:01Z</time>
      </trkpt>
      <trkpt lat="43.62578" lon="0.44345">
        <ele>155.87</ele>
        <time>2021-08-19T06:03:11Z</time>
      </trkpt>
      <trkpt lat="43.6254" lon="0.4432">
        <ele>155.87</ele>
        <time>2021-08-19T06:03:18Z</time>
      </trkpt>
      <trkpt lat="43.62495" lon="0.44283">
        <ele>155.87</ele>
        <time>2021-08-19T06:03:27Z</time>
      </trkpt>
      <trkpt lat="43.6246" lon="0.4426">
        <ele>157.31</ele>
        <time>2021-08-19T06:03:35Z</time>
      </trkpt>
      <trkpt lat="43.62432" lon="0.4425">
        <ele>158.75</ele>
        <time>2021-08-19T06:03:43Z</time>
      </trkpt>
      <trkpt lat="43.62401" lon="0.4426">
        <ele>157.79</ele>
        <time>2021-08-19T06:03:50Z</time>
      </trkpt>
      <trkpt lat="43.62371" lon="0.44272">
        <ele>157.31</ele>
        <time>2021-08-19T06:03:56Z</time>
      </trkpt>
      <trkpt lat="43.62325" lon="0.44296">
        <ele>157.31</ele>
        <time>2021-08-19T06:04:06Z</time>
      </trkpt>
      <trkpt lat="43.62297" lon="0.44309">
        <ele>157.31</ele>
        <time>2021-08-19T06:04:12Z</time>
      </trkpt>
      <trkpt lat="43.62292" lon="0.44312">
        <ele>157.31</ele>
        <time>2021-08-19T06:04:13Z</time>
      </trkpt>
      <trkpt lat="43.62255" lon="0.44332">
        <ele>157.31</ele>
        <time>2021-08-19T06:04:21Z</time>
      </trkpt>
      <trkpt lat="43.62201" lon="0.44358">
        <ele>157.31</ele>
        <time>2021-08-19T06:04:31Z</time>
      </trkpt>
      <trkpt lat="43.62168" lon="0.44375">
        <ele>158.75</ele>
        <time>2021-08-19T06:04:38Z</time>
      </trkpt>
      <trkpt lat="43.62155" lon="0.4438">
        <ele>159.72</ele>
        <time>2021-08-19T06:04:41Z</time>
      </trkpt>
      <trkpt lat="43.62126" lon="0.44396">
        <ele>161.16</ele>
        <time>2021-08-19T06:04:49Z</time>
      </trkpt>
      <trkpt lat="43.62094" lon="0.44419">
        <ele>161.16</ele>
        <time>2021-08-19T06:04:57Z</time>
      </trkpt>
      <trkpt lat="43.62082" lon="0.44434">
        <ele>159.72</ele>
        <time>2021-08-19T06:05:00Z</time>
      </trkpt>
      <trkpt lat="43.62075" lon="0.44446">
        <ele>159.24</ele>
        <time>2021-08-19T06:05:02Z</time>
      </trkpt>
      <trkpt lat="43.62057" lon="0.44482">
        <ele>159.24</ele>
        <time>2021-08-19T06:05:08Z</time>
      </trkpt>
      <trkpt lat="43.62055" lon="0.44488">
        <ele>159.24</ele>
        <time>2021-08-19T06:05:09Z</time>
      </trkpt>
      <trkpt lat="43.62045" lon="0.44502">
        <ele>159.24</ele>
        <time>2021-08-19T06:05:12Z</time>
      </trkpt>
      <trkpt lat="43.62041" lon="0.44506">
        <ele>159.24</ele>
        <time>2021-08-19T06:05:13Z</time>
      </trkpt>
      <trkpt lat="43.62036" lon="0.44507">
        <ele>159.24</ele>
        <time>2021-08-19T06:05:14Z</time>
      </trkpt>
      <trkpt lat="43.6203" lon="0.44506">
        <ele>159.24</ele>
        <time>2021-08-19T06:05:15Z</time>
      </trkpt>
      <trkpt lat="43.62027" lon="0.44504">
        <ele>159.24</ele>
        <time>2021-08-19T06:05:16Z</time>
      </trkpt>
      <trkpt lat="43.62024" lon="0.44502">
        <ele>159.24</ele>
        <time>2021-08-19T06:05:17Z</time>
      </trkpt>
      <trkpt lat="43.62019" lon="0.44499">
        <ele>159.24</ele>
        <time>2021-08-19T06:05:18Z</time>
      </trkpt>
      <trkpt lat="43.61982" lon="0.44473">
        <ele>160.68</ele>
        <time>2021-08-19T06:05:27Z</time>
      </trkpt>
      <trkpt lat="43.61978" lon="0.44471">
        <ele>160.68</ele>
        <time>2021-08-19T06:05:28Z</time>
      </trkpt>
      <trkpt lat="43.61952" lon="0.44455">
        <ele>162.12</ele>
        <time>2021-08-19T06:05:36Z</time>
      </trkpt>
      <trkpt lat="43.61927" lon="0.44441">
        <ele>164.52</ele>
        <time>2021-08-19T06:05:46Z</time>
      </trkpt>
      <trkpt lat="43.61909" lon="0.44432">
        <ele>165.48</ele>
        <time>2021-08-19T06:05:53Z</time>
      </trkpt>
      <trkpt lat="43.61893" lon="0.4442">
        <ele>165.96</ele>
        <time>2021-08-19T06:06:00Z</time>
      </trkpt>
      <trkpt lat="43.61864" lon="0.44404">
        <ele>166.45</ele>
        <time>2021-08-19T06:06:10Z</time>
      </trkpt>
      <trkpt lat="43.61838" lon="0.4439">
        <ele>166.93</ele>
        <time>2021-08-19T06:06:18Z</time>
      </trkpt>
      <trkpt lat="43.61809" lon="0.44372">
        <ele>167.89</ele>
        <time>2021-08-19T06:06:27Z</time>
      </trkpt>
      <trkpt lat="43.61779" lon="0.44354">
        <ele>168.37</ele>
        <time>2021-08-19T06:06:36Z</time>
      </trkpt>
      <trkpt lat="43.61741" lon="0.44332">
        <ele>168.37</ele>
        <time>2021-08-19T06:06:46Z</time>
      </trkpt>
      <trkpt lat="43.61703" lon="0.44311">
        <ele>168.85</ele>
        <time>2021-08-19T06:06:56Z</time>
      </trkpt>
      <trkpt lat="43.61683" lon="0.443">
        <ele>169.33</ele>
        <time>2021-08-19T06:07:01Z</time>
      </trkpt>
      <trkpt lat="43.6168" lon="0.44297">
        <ele>169.33</ele>
        <time>2021-08-19T06:07:02Z</time>
      </trkpt>
      <trkpt lat="43.61641" lon="0.44275">
        <ele>170.29</ele>
        <time>2021-08-19T06:07:12Z</time>
      </trkpt>
      <trkpt lat="43.61612" lon="0.44255">
        <ele>171.73</ele>
        <time>2021-08-19T06:07:21Z</time>
      </trkpt>
      <trkpt lat="43.61601" lon="0.44248">
        <ele>172.21</ele>
        <time>2021-08-19T06:07:26Z</time>
      </trkpt>
      <trkpt lat="43.61601" lon="0.44251">
        <ele>172.21</ele>
        <time>2021-08-19T06:07:27Z</time>
      </trkpt>
      <trkpt lat="43.61602" lon="0.44253">
        <ele>172.21</ele>
        <time>2021-08-19T06:07:28Z</time>
      </trkpt>
      <trkpt lat="43.61605" lon="0.44254">
        <ele>172.21</ele>
        <time>2021-08-19T06:07:29Z</time>
      </trkpt>
      <trkpt lat="43.61607" lon="0.44255">
        <ele>172.21</ele>
        <time>2021-08-19T06:07:30Z</time>
      </trkpt>
      <trkpt lat="43.6161" lon="0.44256">
        <ele>172.21</ele>
        <time>2021-08-19T06:07:31Z</time>
      </trkpt>
      <trkpt lat="43.61613" lon="0.44258">
        <ele>172.21</ele>
        <time>2021-08-19T06:07:32Z</time>
      </trkpt>
      <trkpt lat="43.61615" lon="0.4426">
        <ele>172.21</ele>
        <time>2021-08-19T06:07:33Z</time>
      </trkpt>
      <trkpt lat="43.61618" lon="0.44261">
        <ele>172.21</ele>
        <time>2021-08-19T06:07:34Z</time>
      </trkpt>
      <trkpt lat="43.6162" lon="0.44263">
        <ele>171.73</ele>
        <time>2021-08-19T06:07:35Z</time>
      </trkpt>
      <trkpt lat="43.61626" lon="0.44267">
        <ele>172.21</ele>
        <time>2021-08-19T06:07:40Z</time>
      </trkpt>
      <trkpt lat="43.61624" lon="0.44266">
        <ele>172.21</ele>
        <time>2021-08-19T06:07:50Z</time>
      </trkpt>
      <trkpt lat="43.61623" lon="0.44264">
        <ele>172.21</ele>
        <time>2021-08-19T06:07:51Z</time>
      </trkpt>
      <trkpt lat="43.61617" lon="0.4426">
        <ele>172.21</ele>
        <time>2021-08-19T06:07:54Z</time>
      </trkpt>
      <trkpt lat="43.61615" lon="0.44257">
        <ele>172.21</ele>
        <time>2021-08-19T06:07:55Z</time>
      </trkpt>
      <trkpt lat="43.61593" lon="0.44244">
        <ele>172.21</ele>
        <time>2021-08-19T06:08:02Z</time>
      </trkpt>
      <trkpt lat="43.61558" lon="0.44226">
        <ele>172.21</ele>
        <time>2021-08-19T06:08:12Z</time>
      </trkpt>
      <trkpt lat="43.61536" lon="0.44214">
        <ele>172.69</ele>
        <time>2021-08-19T06:08:19Z</time>
      </trkpt>
      <trkpt lat="43.6152" lon="0.44207">
        <ele>173.17</ele>
        <time>2021-08-19T06:08:25Z</time>
      </trkpt>
      <trkpt lat="43.61516" lon="0.44209">
        <ele>173.66</ele>
        <time>2021-08-19T06:08:30Z</time>
      </trkpt>
      <trkpt lat="43.61514" lon="0.44206">
        <ele>173.66</ele>
        <time>2021-08-19T06:08:45Z</time>
      </trkpt>
      <trkpt lat="43.61512" lon="0.44206">
        <ele>173.66</ele>
        <time>2021-08-19T06:09:00Z</time>
      </trkpt>
      <trkpt lat="43.61514" lon="0.44206">
        <ele>173.66</ele>
        <time>2021-08-19T06:09:15Z</time>
      </trkpt>
      <trkpt lat="43.61515" lon="0.44206">
        <ele>174.14</ele>
        <time>2021-08-19T06:09:25Z</time>
      </trkpt>
      <trkpt lat="43.61516" lon="0.44207">
        <ele>174.14</ele>
        <time>2021-08-19T06:09:35Z</time>
      </trkpt>
      <trkpt lat="43.61517" lon="0.44209">
        <ele>174.14</ele>
        <time>2021-08-19T06:09:58Z</time>
      </trkpt>
      <trkpt lat="43.61517" lon="0.44206">
        <ele>174.14</ele>
        <time>2021-08-19T06:10:17Z</time>
      </trkpt>
      <trkpt lat="43.61516" lon="0.44204">
        <ele>174.14</ele>
        <time>2021-08-19T06:10:38Z</time>
      </trkpt>
      <trkpt lat="43.61515" lon="0.44205">
        <ele>174.14</ele>
        <time>2021-08-19T06:11:06Z</time>
      </trkpt>
      <trkpt lat="43.61514" lon="0.44203">
        <ele>174.14</ele>
        <time>2021-08-19T06:11:20Z</time>
      </trkpt>
      <trkpt lat="43.61515" lon="0.44205">
        <ele>174.14</ele>
        <time>2021-08-19T06:11:40Z</time>
      </trkpt>
      <trkpt lat="43.61514" lon="0.44204">
        <ele>174.14</ele>
        <time>2021-08-19T06:11:53Z</time>
      </trkpt>
      <trkpt lat="43.61516" lon="0.44204">
        <ele>174.62</ele>
        <time>2021-08-19T06:12:18Z</time>
      </trkpt>
      <trkpt lat="43.61515" lon="0.44203">
        <ele>174.62</ele>
        <time>2021-08-19T06:12:42Z</time>
      </trkpt>
      <trkpt lat="43.61515" lon="0.44204">
        <ele>174.62</ele>
        <time>2021-08-19T06:13:00Z</time>
      </trkpt>
      <trkpt lat="43.61515" lon="0.44206">
        <ele>174.62</ele>
        <time>2021-08-19T06:13:15Z</time>
      </trkpt>
      <trkpt lat="43.61514" lon="0.44205">
        <ele>174.62</ele>
        <time>2021-08-19T06:13:31Z</time>
      </trkpt>
      <trkpt lat="43.61515" lon="0.44204">
        <ele>174.62</ele>
        <time>2021-08-19T06:13:46Z</time>
      </trkpt>
      <trkpt lat="43.61517" lon="0.44205">
        <ele>174.62</ele>
        <time>2021-08-19T06:14:00Z</time>
      </trkpt>
      <trkpt lat="43.61516" lon="0.44204">
        <ele>174.62</ele>
        <time>2021-08-19T06:14:10Z</time>
      </trkpt>
      <trkpt lat="43.61515" lon="0.44201">
        <ele>174.62</ele>
        <time>2021-08-19T06:14:11Z</time>
      </trkpt>
      <trkpt lat="43.61515" lon="0.44199">
        <ele>174.62</ele>
        <time>2021-08-19T06:14:17Z</time>
      </trkpt>
      <trkpt lat="43.61513" lon="0.44199">
        <ele>174.62</ele>
        <time>2021-08-19T06:14:24Z</time>
      </trkpt>
      <trkpt lat="43.61509" lon="0.44195">
        <ele>174.62</ele>
        <time>2021-08-19T06:14:47Z</time>
      </trkpt>
      <trkpt lat="43.61509" lon="0.44193">
        <ele>175.1</ele>
        <time>2021-08-19T06:15:03Z</time>
      </trkpt>
      <trkpt lat="43.61509" lon="0.44195">
        <ele>175.1</ele>
        <time>2021-08-19T06:15:14Z</time>
      </trkpt>
      <trkpt lat="43.61509" lon="0.44195">
        <ele>175.1</ele>
        <time>2021-08-19T06:15:26Z</time>
      </trkpt>
      <trkpt lat="43.61509" lon="0.44192">
        <ele>175.58</ele>
        <time>2021-08-19T06:15:46Z</time>
      </trkpt>
      <trkpt lat="43.61509" lon="0.44195">
        <ele>175.58</ele>
        <time>2021-08-19T06:16:01Z</time>
      </trkpt>
      <trkpt lat="43.6151" lon="0.44199">
        <ele>175.58</ele>
        <time>2021-08-19T06:16:26Z</time>
      </trkpt>
      <trkpt lat="43.6151" lon="0.442">
        <ele>176.06</ele>
        <time>2021-08-19T06:16:39Z</time>
      </trkpt>
      <trkpt lat="43.6151" lon="0.44201">
        <ele>176.06</ele>
        <time>2021-08-19T06:16:57Z</time>
      </trkpt>
      <trkpt lat="43.6151" lon="0.44202">
        <ele>176.06</ele>
        <time>2021-08-19T06:17:15Z</time>
      </trkpt>
      <trkpt lat="43.61511" lon="0.44201">
        <ele>176.54</ele>
        <time>2021-08-19T06:17:30Z</time>
      </trkpt>
      <trkpt lat="43.6151" lon="0.44199">
        <ele>176.54</ele>
        <time>2021-08-19T06:17:49Z</time>
      </trkpt>
      <trkpt lat="43.61509" lon="0.44197">
        <ele>176.54</ele>
        <time>2021-08-19T06:18:01Z</time>
      </trkpt>
      <trkpt lat="43.61509" lon="0.44199">
        <ele>176.54</ele>
        <time>2021-08-19T06:18:19Z</time>
      </trkpt>
      <trkpt lat="43.6151" lon="0.44197">
        <ele>177.02</ele>
        <time>2021-08-19T06:18:43Z</time>
      </trkpt>
      <trkpt lat="43.6151" lon="0.44198">
        <ele>177.02</ele>
        <time>2021-08-19T06:19:03Z</time>
      </trkpt>
      <trkpt lat="43.6151" lon="0.44197">
        <ele>177.02</ele>
        <time>2021-08-19T06:19:06Z</time>
      </trkpt>
      <trkpt lat="43.6151" lon="0.44197">
        <ele>177.02</ele>
        <time>2021-08-19T06:19:11Z</time>
      </trkpt>
      <trkpt lat="43.61511" lon="0.44195">
        <ele>177.5</ele>
        <time>2021-08-19T06:19:15Z</time>
      </trkpt>
      <trkpt lat="43.6151" lon="0.44196">
        <ele>177.5</ele>
        <time>2021-08-19T06:19:29Z</time>
      </trkpt>
      <trkpt lat="43.61508" lon="0.44197">
        <ele>177.5</ele>
        <time>2021-08-19T06:19:46Z</time>
      </trkpt>
      <trkpt lat="43.61509" lon="0.44197">
        <ele>177.5</ele>
        <time>2021-08-19T06:20:04Z</time>
      </trkpt>
      <trkpt lat="43.6151" lon="0.44198">
        <ele>177.98</ele>
        <time>2021-08-19T06:20:19Z</time>
      </trkpt>
      <trkpt lat="43.61511" lon="0.442">
        <ele>177.98</ele>
        <time>2021-08-19T06:20:39Z</time>
      </trkpt>
      <trkpt lat="43.61512" lon="0.44199">
        <ele>177.98</ele>
        <time>2021-08-19T06:20:53Z</time>
      </trkpt>
      <trkpt lat="43.61512" lon="0.44201">
        <ele>177.98</ele>
        <time>2021-08-19T06:21:01Z</time>
      </trkpt>
      <trkpt lat="43.61512" lon="0.442">
        <ele>177.98</ele>
        <time>2021-08-19T06:21:02Z</time>
      </trkpt>
      <trkpt lat="43.61512" lon="0.44199">
        <ele>177.98</ele>
        <time>2021-08-19T06:21:03Z</time>
      </trkpt>
      <trkpt lat="43.61513" lon="0.44192">
        <ele>177.98</ele>
        <time>2021-08-19T06:21:08Z</time>
      </trkpt>
      <trkpt lat="43.61512" lon="0.44191">
        <ele>177.98</ele>
        <time>2021-08-19T06:21:09Z</time>
      </trkpt>
      <trkpt lat="43.61511" lon="0.44191">
        <ele>177.98</ele>
        <time>2021-08-19T06:21:10Z</time>
      </trkpt>
      <trkpt lat="43.6151" lon="0.44191">
        <ele>177.98</ele>
        <time>2021-08-19T06:21:11Z</time>
      </trkpt>
      <trkpt lat="43.61509" lon="0.44192">
        <ele>177.98</ele>
        <time>2021-08-19T06:21:12Z</time>
      </trkpt>
      <trkpt lat="43.61491" lon="0.44185">
        <ele>178.94</ele>
        <time>2021-08-19T06:21:20Z</time>
      </trkpt>
      <trkpt lat="43.61469" lon="0.44173">
        <ele>179.42</ele>
        <time>2021-08-19T06:21:27Z</time>
      </trkpt>
      <trkpt lat="43.61432" lon="0.44153">
        <ele>179.42</ele>
        <time>2021-08-19T06:21:37Z</time>
      </trkpt>
      <trkpt lat="43.61401" lon="0.44134">
        <ele>179.9</ele>
        <time>2021-08-19T06:21:45Z</time>
      </trkpt>
      <trkpt lat="43.61366" lon="0.44114">
        <ele>180.38</ele>
        <time>2021-08-19T06:21:54Z</time>
      </trkpt>
      <trkpt lat="43.61358" lon="0.4411">
        <ele>180.38</ele>
        <time>2021-08-19T06:21:56Z</time>
      </trkpt>
      <trkpt lat="43.61323" lon="0.4409">
        <ele>180.38</ele>
        <time>2021-08-19T06:22:04Z</time>
      </trkpt>
      <trkpt lat="43.61307" lon="0.44079">
        <ele>180.38</ele>
        <time>2021-08-19T06:22:08Z</time>
      </trkpt>
      <trkpt lat="43.61303" lon="0.44077">
        <ele>180.38</ele>
        <time>2021-08-19T06:22:09Z</time>
      </trkpt>
      <trkpt lat="43.61271" lon="0.4406">
        <ele>180.38</ele>
        <time>2021-08-19T06:22:16Z</time>
      </trkpt>
      <trkpt lat="43.61227" lon="0.44036">
        <ele>180.38</ele>
        <time>2021-08-19T06:22:26Z</time>
      </trkpt>
      <trkpt lat="43.61186" lon="0.44014">
        <ele>181.83</ele>
        <time>2021-08-19T06:22:36Z</time>
      </trkpt>
      <trkpt lat="43.61138" lon="0.43987">
        <ele>181.83</ele>
        <time>2021-08-19T06:22:48Z</time>
      </trkpt>
      <trkpt lat="43.61107" lon="0.43972">
        <ele>183.27</ele>
        <time>2021-08-19T06:22:56Z</time>
      </trkpt>
      <trkpt lat="43.61076" lon="0.43953">
        <ele>184.23</ele>
        <time>2021-08-19T06:23:05Z</time>
      </trkpt>
      <trkpt lat="43.61046" lon="0.43937">
        <ele>185.19</ele>
        <time>2021-08-19T06:23:14Z</time>
      </trkpt>
      <trkpt lat="43.61004" lon="0.43913">
        <ele>186.15</ele>
        <time>2021-08-19T06:23:27Z</time>
      </trkpt>
      <trkpt lat="43.60982" lon="0.43901">
        <ele>187.11</ele>
        <time>2021-08-19T06:23:34Z</time>
      </trkpt>
      <trkpt lat="43.60952" lon="0.43885">
        <ele>188.08</ele>
        <time>2021-08-19T06:23:43Z</time>
      </trkpt>
      <trkpt lat="43.60913" lon="0.43862">
        <ele>188.56</ele>
        <time>2021-08-19T06:23:54Z</time>
      </trkpt>
      <trkpt lat="43.60884" lon="0.43846">
        <ele>189.52</ele>
        <time>2021-08-19T06:24:02Z</time>
      </trkpt>
      <trkpt lat="43.60863" lon="0.43834">
        <ele>189.52</ele>
        <time>2021-08-19T06:24:08Z</time>
      </trkpt>
      <trkpt lat="43.60859" lon="0.43831">
        <ele>189.52</ele>
        <time>2021-08-19T06:24:09Z</time>
      </trkpt>
      <trkpt lat="43.60856" lon="0.43829">
        <ele>190</ele>
        <time>2021-08-19T06:24:10Z</time>
      </trkpt>
      <trkpt lat="43.60834" lon="0.43818">
        <ele>190.48</ele>
        <time>2021-08-19T06:24:17Z</time>
      </trkpt>
      <trkpt lat="43.60809" lon="0.43805">
        <ele>191.44</ele>
        <time>2021-08-19T06:24:25Z</time>
      </trkpt>
      <trkpt lat="43.60768" lon="0.43782">
        <ele>192.4</ele>
        <time>2021-08-19T06:24:38Z</time>
      </trkpt>
      <trkpt lat="43.60741" lon="0.43767">
        <ele>193.36</ele>
        <time>2021-08-19T06:24:47Z</time>
      </trkpt>
      <trkpt lat="43.60728" lon="0.43758">
        <ele>194.32</ele>
        <time>2021-08-19T06:24:53Z</time>
      </trkpt>
      <trkpt lat="43.60728" lon="0.43759">
        <ele>194.32</ele>
        <time>2021-08-19T06:25:00Z</time>
      </trkpt>
      <trkpt lat="43.60726" lon="0.43757">
        <ele>194.32</ele>
        <time>2021-08-19T06:25:08Z</time>
      </trkpt>
      <trkpt lat="43.60727" lon="0.43757">
        <ele>193.84</ele>
        <time>2021-08-19T06:25:26Z</time>
      </trkpt>
      <trkpt lat="43.60726" lon="0.43756">
        <ele>194.32</ele>
        <time>2021-08-19T06:25:36Z</time>
      </trkpt>
      <trkpt lat="43.60725" lon="0.43756">
        <ele>194.32</ele>
        <time>2021-08-19T06:25:37Z</time>
      </trkpt>
      <trkpt lat="43.60713" lon="0.43754">
        <ele>194.32</ele>
        <time>2021-08-19T06:25:42Z</time>
      </trkpt>
      <trkpt lat="43.60679" lon="0.43742">
        <ele>192.88</ele>
        <time>2021-08-19T06:25:50Z</time>
      </trkpt>
      <trkpt lat="43.6064" lon="0.4373">
        <ele>192.88</ele>
        <time>2021-08-19T06:25:59Z</time>
      </trkpt>
      <trkpt lat="43.6062" lon="0.43723">
        <ele>192.88</ele>
        <time>2021-08-19T06:26:06Z</time>
      </trkpt>
      <trkpt lat="43.60586" lon="0.43711">
        <ele>192.88</ele>
        <time>2021-08-19T06:26:15Z</time>
      </trkpt>
      <trkpt lat="43.60563" lon="0.43702">
        <ele>192.88</ele>
        <time>2021-08-19T06:26:20Z</time>
      </trkpt>
      <trkpt lat="43.60548" lon="0.43696">
        <ele>193.84</ele>
        <time>2021-08-19T06:26:24Z</time>
      </trkpt>
      <trkpt lat="43.60547" lon="0.43698">
        <ele>193.84</ele>
        <time>2021-08-19T06:26:25Z</time>
      </trkpt>
      <trkpt lat="43.60549" lon="0.437">
        <ele>193.84</ele>
        <time>2021-08-19T06:26:26Z</time>
      </trkpt>
      <trkpt lat="43.60571" lon="0.43709">
        <ele>193.84</ele>
        <time>2021-08-19T06:26:32Z</time>
      </trkpt>
      <trkpt lat="43.60621" lon="0.43727">
        <ele>193.84</ele>
        <time>2021-08-19T06:26:43Z</time>
      </trkpt>
      <trkpt lat="43.60668" lon="0.43741">
        <ele>192.88</ele>
        <time>2021-08-19T06:26:52Z</time>
      </trkpt>
      <trkpt lat="43.60686" lon="0.4375">
        <ele>192.88</ele>
        <time>2021-08-19T06:26:57Z</time>
      </trkpt>
      <trkpt lat="43.60685" lon="0.43752">
        <ele>192.88</ele>
        <time>2021-08-19T06:26:58Z</time>
      </trkpt>
      <trkpt lat="43.60683" lon="0.43753">
        <ele>192.88</ele>
        <time>2021-08-19T06:26:59Z</time>
      </trkpt>
      <trkpt lat="43.6068" lon="0.43753">
        <ele>192.4</ele>
        <time>2021-08-19T06:27:00Z</time>
      </trkpt>
      <trkpt lat="43.60678" lon="0.43752">
        <ele>191.92</ele>
        <time>2021-08-19T06:27:01Z</time>
      </trkpt>
      <trkpt lat="43.60674" lon="0.43752">
        <ele>191.44</ele>
        <time>2021-08-19T06:27:02Z</time>
      </trkpt>
      <trkpt lat="43.60671" lon="0.43753">
        <ele>190.48</ele>
        <time>2021-08-19T06:27:03Z</time>
      </trkpt>
      <trkpt lat="43.60667" lon="0.43755">
        <ele>190.48</ele>
        <time>2021-08-19T06:27:04Z</time>
      </trkpt>
      <trkpt lat="43.60664" lon="0.43759">
        <ele>190</ele>
        <time>2021-08-19T06:27:05Z</time>
      </trkpt>
      <trkpt lat="43.6066" lon="0.43763">
        <ele>189.04</ele>
        <time>2021-08-19T06:27:06Z</time>
      </trkpt>
      <trkpt lat="43.60656" lon="0.43768">
        <ele>188.56</ele>
        <time>2021-08-19T06:27:07Z</time>
      </trkpt>
      <trkpt lat="43.60653" lon="0.43774">
        <ele>188.08</ele>
        <time>2021-08-19T06:27:08Z</time>
      </trkpt>
      <trkpt lat="43.60618" lon="0.4383">
        <ele>185.19</ele>
        <time>2021-08-19T06:27:17Z</time>
      </trkpt>
      <trkpt lat="43.60615" lon="0.43835">
        <ele>185.19</ele>
        <time>2021-08-19T06:27:18Z</time>
      </trkpt>
      <trkpt lat="43.60608" lon="0.43845">
        <ele>185.19</ele>
        <time>2021-08-19T06:27:20Z</time>
      </trkpt>
      <trkpt lat="43.60607" lon="0.4385">
        <ele>185.19</ele>
        <time>2021-08-19T06:27:21Z</time>
      </trkpt>
      <trkpt lat="43.60608" lon="0.43855">
        <ele>185.19</ele>
        <time>2021-08-19T06:27:22Z</time>
      </trkpt>
      <trkpt lat="43.60626" lon="0.43896">
        <ele>184.71</ele>
        <time>2021-08-19T06:27:31Z</time>
      </trkpt>
      <trkpt lat="43.60633" lon="0.43917">
        <ele>184.23</ele>
        <time>2021-08-19T06:27:35Z</time>
      </trkpt>
      <trkpt lat="43.60633" lon="0.43921">
        <ele>184.23</ele>
        <time>2021-08-19T06:27:36Z</time>
      </trkpt>
      <trkpt lat="43.60631" lon="0.43924">
        <ele>184.23</ele>
        <time>2021-08-19T06:27:37Z</time>
      </trkpt>
      <trkpt lat="43.60628" lon="0.43925">
        <ele>184.23</ele>
        <time>2021-08-19T06:27:38Z</time>
      </trkpt>
      <trkpt lat="43.60624" lon="0.43925">
        <ele>184.23</ele>
        <time>2021-08-19T06:27:39Z</time>
      </trkpt>
      <trkpt lat="43.60621" lon="0.43925">
        <ele>184.23</ele>
        <time>2021-08-19T06:27:40Z</time>
      </trkpt>
      <trkpt lat="43.60602" lon="0.43918">
        <ele>184.23</ele>
        <time>2021-08-19T06:27:47Z</time>
      </trkpt>
      <trkpt lat="43.60589" lon="0.43912">
        <ele>185.19</ele>
        <time>2021-08-19T06:27:52Z</time>
      </trkpt>
      <trkpt lat="43.60565" lon="0.43903">
        <ele>186.15</ele>
        <time>2021-08-19T06:28:01Z</time>
      </trkpt>
      <trkpt lat="43.60549" lon="0.43899">
        <ele>186.63</ele>
        <time>2021-08-19T06:28:06Z</time>
      </trkpt>
      <trkpt lat="43.60547" lon="0.43901">
        <ele>186.63</ele>
        <time>2021-08-19T06:28:07Z</time>
      </trkpt>
      <trkpt lat="43.60537" lon="0.43904">
        <ele>186.63</ele>
        <time>2021-08-19T06:28:11Z</time>
      </trkpt>
      <trkpt lat="43.60534" lon="0.43903">
        <ele>187.11</ele>
        <time>2021-08-19T06:28:12Z</time>
      </trkpt>
      <trkpt lat="43.60532" lon="0.439">
        <ele>186.63</ele>
        <time>2021-08-19T06:28:13Z</time>
      </trkpt>
      <trkpt lat="43.6053" lon="0.43897">
        <ele>186.63</ele>
        <time>2021-08-19T06:28:14Z</time>
      </trkpt>
      <trkpt lat="43.60528" lon="0.43895">
        <ele>186.63</ele>
        <time>2021-08-19T06:28:15Z</time>
      </trkpt>
      <trkpt lat="43.60526" lon="0.43892">
        <ele>186.63</ele>
        <time>2021-08-19T06:28:16Z</time>
      </trkpt>
      <trkpt lat="43.60509" lon="0.43871">
        <ele>187.59</ele>
        <time>2021-08-19T06:28:24Z</time>
      </trkpt>
      <trkpt lat="43.60488" lon="0.43844">
        <ele>189.04</ele>
        <time>2021-08-19T06:28:35Z</time>
      </trkpt>
      <trkpt lat="43.6047" lon="0.43818">
        <ele>190</ele>
        <time>2021-08-19T06:28:47Z</time>
      </trkpt>
      <trkpt lat="43.60458" lon="0.43804">
        <ele>190</ele>
        <time>2021-08-19T06:28:54Z</time>
      </trkpt>
      <trkpt lat="43.60441" lon="0.43785">
        <ele>190.96</ele>
        <time>2021-08-19T06:29:04Z</time>
      </trkpt>
      <trkpt lat="43.60436" lon="0.43782">
        <ele>191.44</ele>
        <time>2021-08-19T06:29:07Z</time>
      </trkpt>
      <trkpt lat="43.60435" lon="0.43782">
        <ele>191.44</ele>
        <time>2021-08-19T06:29:08Z</time>
      </trkpt>
      <trkpt lat="43.60434" lon="0.43784">
        <ele>191.92</ele>
        <time>2021-08-19T06:29:09Z</time>
      </trkpt>
      <trkpt lat="43.60432" lon="0.43785">
        <ele>191.92</ele>
        <time>2021-08-19T06:29:10Z</time>
      </trkpt>
      <trkpt lat="43.60431" lon="0.43785">
        <ele>191.92</ele>
        <time>2021-08-19T06:29:11Z</time>
      </trkpt>
      <trkpt lat="43.6043" lon="0.43786">
        <ele>191.92</ele>
        <time>2021-08-19T06:29:12Z</time>
      </trkpt>
      <trkpt lat="43.60429" lon="0.43786">
        <ele>192.88</ele>
        <time>2021-08-19T06:29:13Z</time>
      </trkpt>
      <trkpt lat="43.60421" lon="0.43792">
        <ele>193.84</ele>
        <time>2021-08-19T06:29:21Z</time>
      </trkpt>
      <trkpt lat="43.60413" lon="0.43798">
        <ele>194.8</ele>
        <time>2021-08-19T06:29:31Z</time>
      </trkpt>
      <trkpt lat="43.60407" lon="0.43803">
        <ele>196.73</ele>
        <time>2021-08-19T06:29:41Z</time>
      </trkpt>
      <trkpt lat="43.604" lon="0.43806">
        <ele>198.17</ele>
        <time>2021-08-19T06:29:51Z</time>
      </trkpt>
      <trkpt lat="43.60391" lon="0.43806">
        <ele>199.61</ele>
        <time>2021-08-19T06:30:01Z</time>
      </trkpt>
      <trkpt lat="43.60388" lon="0.43805">
        <ele>200.09</ele>
        <time>2021-08-19T06:30:09Z</time>
      </trkpt>
      <trkpt lat="43.60386" lon="0.43803">
        <ele>200.09</ele>
        <time>2021-08-19T06:30:12Z</time>
      </trkpt>
      <trkpt lat="43.60384" lon="0.43802">
        <ele>200.09</ele>
        <time>2021-08-19T06:30:13Z</time>
      </trkpt>
      <trkpt lat="43.60383" lon="0.43801">
        <ele>200.09</ele>
        <time>2021-08-19T06:30:14Z</time>
      </trkpt>
      <trkpt lat="43.60382" lon="0.438">
        <ele>200.09</ele>
        <time>2021-08-19T06:30:15Z</time>
      </trkpt>
      <trkpt lat="43.6038" lon="0.43798">
        <ele>200.09</ele>
        <time>2021-08-19T06:30:16Z</time>
      </trkpt>
      <trkpt lat="43.60379" lon="0.43797">
        <ele>200.09</ele>
        <time>2021-08-19T06:30:17Z</time>
      </trkpt>
      <trkpt lat="43.60366" lon="0.43787">
        <ele>201.05</ele>
        <time>2021-08-19T06:30:25Z</time>
      </trkpt>
      <trkpt lat="43.60358" lon="0.43777">
        <ele>201.53</ele>
        <time>2021-08-19T06:30:31Z</time>
      </trkpt>
      <trkpt lat="43.60351" lon="0.43769">
        <ele>202.49</ele>
        <time>2021-08-19T06:30:37Z</time>
      </trkpt>
      <trkpt lat="43.60337" lon="0.43756">
        <ele>203.46</ele>
        <time>2021-08-19T06:30:46Z</time>
      </trkpt>
      <trkpt lat="43.60322" lon="0.43741">
        <ele>204.9</ele>
        <time>2021-08-19T06:30:56Z</time>
      </trkpt>
      <trkpt lat="43.60311" lon="0.4373">
        <ele>205.86</ele>
        <time>2021-08-19T06:31:03Z</time>
      </trkpt>
      <trkpt lat="43.60294" lon="0.43712">
        <ele>206.34</ele>
        <time>2021-08-19T06:31:13Z</time>
      </trkpt>
      <trkpt lat="43.60289" lon="0.43705">
        <ele>206.34</ele>
        <time>2021-08-19T06:31:15Z</time>
      </trkpt>
      <trkpt lat="43.60285" lon="0.43701">
        <ele>204.9</ele>
        <time>2021-08-19T06:31:16Z</time>
      </trkpt>
      <trkpt lat="43.60281" lon="0.43697">
        <ele>203.46</ele>
        <time>2021-08-19T06:31:17Z</time>
      </trkpt>
      <trkpt lat="43.60276" lon="0.43694">
        <ele>202.98</ele>
        <time>2021-08-19T06:31:18Z</time>
      </trkpt>
      <trkpt lat="43.60271" lon="0.43692">
        <ele>202.98</ele>
        <time>2021-08-19T06:31:19Z</time>
      </trkpt>
      <trkpt lat="43.60266" lon="0.4369">
        <ele>202.01</ele>
        <time>2021-08-19T06:31:20Z</time>
      </trkpt>
      <trkpt lat="43.60262" lon="0.43689">
        <ele>201.53</ele>
        <time>2021-08-19T06:31:21Z</time>
      </trkpt>
      <trkpt lat="43.60246" lon="0.43683">
        <ele>200.09</ele>
        <time>2021-08-19T06:31:26Z</time>
      </trkpt>
      <trkpt lat="43.60244" lon="0.43683">
        <ele>200.09</ele>
        <time>2021-08-19T06:31:27Z</time>
      </trkpt>
      <trkpt lat="43.60243" lon="0.43685">
        <ele>200.09</ele>
        <time>2021-08-19T06:31:28Z</time>
      </trkpt>
      <trkpt lat="43.60244" lon="0.43687">
        <ele>199.61</ele>
        <time>2021-08-19T06:31:29Z</time>
      </trkpt>
      <trkpt lat="43.60245" lon="0.43688">
        <ele>199.61</ele>
        <time>2021-08-19T06:31:30Z</time>
      </trkpt>
      <trkpt lat="43.60247" lon="0.43689">
        <ele>199.61</ele>
        <time>2021-08-19T06:31:31Z</time>
      </trkpt>
      <trkpt lat="43.60248" lon="0.43691">
        <ele>199.61</ele>
        <time>2021-08-19T06:31:32Z</time>
      </trkpt>
      <trkpt lat="43.60254" lon="0.43693">
        <ele>200.09</ele>
        <time>2021-08-19T06:31:38Z</time>
      </trkpt>
      <trkpt lat="43.60255" lon="0.43694">
        <ele>201.05</ele>
        <time>2021-08-19T06:31:40Z</time>
      </trkpt>
      <trkpt lat="43.60261" lon="0.43698">
        <ele>202.49</ele>
        <time>2021-08-19T06:31:49Z</time>
      </trkpt>
      <trkpt lat="43.60268" lon="0.43705">
        <ele>204.42</ele>
        <time>2021-08-19T06:32:01Z</time>
      </trkpt>
      <trkpt lat="43.60272" lon="0.43713">
        <ele>206.34</ele>
        <time>2021-08-19T06:32:12Z</time>
      </trkpt>
      <trkpt lat="43.60272" lon="0.43715">
        <ele>206.82</ele>
        <time>2021-08-19T06:32:22Z</time>
      </trkpt>
      <trkpt lat="43.60273" lon="0.43721">
        <ele>207.78</ele>
        <time>2021-08-19T06:32:30Z</time>
      </trkpt>
      <trkpt lat="43.60273" lon="0.4373">
        <ele>209.7</ele>
        <time>2021-08-19T06:32:40Z</time>
      </trkpt>
      <trkpt lat="43.60274" lon="0.43739">
        <ele>210.67</ele>
        <time>2021-08-19T06:32:50Z</time>
      </trkpt>
      <trkpt lat="43.60274" lon="0.43743">
        <ele>211.63</ele>
        <time>2021-08-19T06:32:58Z</time>
      </trkpt>
      <trkpt lat="43.60274" lon="0.43752">
        <ele>213.07</ele>
        <time>2021-08-19T06:33:08Z</time>
      </trkpt>
      <trkpt lat="43.60274" lon="0.43765">
        <ele>215.47</ele>
        <time>2021-08-19T06:33:21Z</time>
      </trkpt>
      <trkpt lat="43.60273" lon="0.43771">
        <ele>215.95</ele>
        <time>2021-08-19T06:33:27Z</time>
      </trkpt>
      <trkpt lat="43.60269" lon="0.43786">
        <ele>217.88</ele>
        <time>2021-08-19T06:33:38Z</time>
      </trkpt>
      <trkpt lat="43.60265" lon="0.43802">
        <ele>219.8</ele>
        <time>2021-08-19T06:33:50Z</time>
      </trkpt>
      <trkpt lat="43.60263" lon="0.43804">
        <ele>219.8</ele>
        <time>2021-08-19T06:33:57Z</time>
      </trkpt>
      <trkpt lat="43.60261" lon="0.43813">
        <ele>219.8</ele>
        <time>2021-08-19T06:34:03Z</time>
      </trkpt>
      <trkpt lat="43.60259" lon="0.43817">
        <ele>220.28</ele>
        <time>2021-08-19T06:34:05Z</time>
      </trkpt>
      <trkpt lat="43.60258" lon="0.43818">
        <ele>220.28</ele>
        <time>2021-08-19T06:34:06Z</time>
      </trkpt>
      <trkpt lat="43.60258" lon="0.4382">
        <ele>220.28</ele>
        <time>2021-08-19T06:34:07Z</time>
      </trkpt>
      <trkpt lat="43.60257" lon="0.43822">
        <ele>220.28</ele>
        <time>2021-08-19T06:34:08Z</time>
      </trkpt>
      <trkpt lat="43.60257" lon="0.43824">
        <ele>221.24</ele>
        <time>2021-08-19T06:34:09Z</time>
      </trkpt>
      <trkpt lat="43.60257" lon="0.43826">
        <ele>221.24</ele>
        <time>2021-08-19T06:34:10Z</time>
      </trkpt>
      <trkpt lat="43.60256" lon="0.43827">
        <ele>221.24</ele>
        <time>2021-08-19T06:34:11Z</time>
      </trkpt>
      <trkpt lat="43.60256" lon="0.43829">
        <ele>221.24</ele>
        <time>2021-08-19T06:34:12Z</time>
      </trkpt>
      <trkpt lat="43.60255" lon="0.4383">
        <ele>221.24</ele>
        <time>2021-08-19T06:34:13Z</time>
      </trkpt>
      <trkpt lat="43.60255" lon="0.43832">
        <ele>221.24</ele>
        <time>2021-08-19T06:34:14Z</time>
      </trkpt>
      <trkpt lat="43.60254" lon="0.43834">
        <ele>222.2</ele>
        <time>2021-08-19T06:34:15Z</time>
      </trkpt>
      <trkpt lat="43.60254" lon="0.43836">
        <ele>222.2</ele>
        <time>2021-08-19T06:34:16Z</time>
      </trkpt>
      <trkpt lat="43.60253" lon="0.43838">
        <ele>222.2</ele>
        <time>2021-08-19T06:34:17Z</time>
      </trkpt>
      <trkpt lat="43.60247" lon="0.43861">
        <ele>223.64</ele>
        <time>2021-08-19T06:34:27Z</time>
      </trkpt>
      <trkpt lat="43.60239" lon="0.43886">
        <ele>224.61</ele>
        <time>2021-08-19T06:34:38Z</time>
      </trkpt>
      <trkpt lat="43.60231" lon="0.43912">
        <ele>226.53</ele>
        <time>2021-08-19T06:34:49Z</time>
      </trkpt>
      <trkpt lat="43.60225" lon="0.43932">
        <ele>227.49</ele>
        <time>2021-08-19T06:34:57Z</time>
      </trkpt>
      <trkpt lat="43.60216" lon="0.43958">
        <ele>229.41</ele>
        <time>2021-08-19T06:35:08Z</time>
      </trkpt>
      <trkpt lat="43.60208" lon="0.43982">
        <ele>230.85</ele>
        <time>2021-08-19T06:35:18Z</time>
      </trkpt>
      <trkpt lat="43.602" lon="0.44008">
        <ele>232.78</ele>
        <time>2021-08-19T06:35:29Z</time>
      </trkpt>
      <trkpt lat="43.60191" lon="0.44028">
        <ele>234.22</ele>
        <time>2021-08-19T06:35:38Z</time>
      </trkpt>
      <trkpt lat="43.6018" lon="0.44056">
        <ele>236.62</ele>
        <time>2021-08-19T06:35:50Z</time>
      </trkpt>
      <trkpt lat="43.6017" lon="0.44077">
        <ele>238.06</ele>
        <time>2021-08-19T06:35:59Z</time>
      </trkpt>
      <trkpt lat="43.60155" lon="0.44093">
        <ele>238.06</ele>
        <time>2021-08-19T06:36:07Z</time>
      </trkpt>
      <trkpt lat="43.60127" lon="0.44116">
        <ele>238.54</ele>
        <time>2021-08-19T06:36:17Z</time>
      </trkpt>
      <trkpt lat="43.60103" lon="0.44131">
        <ele>239.02</ele>
        <time>2021-08-19T06:36:25Z</time>
      </trkpt>
      <trkpt lat="43.6008" lon="0.44137">
        <ele>239.99</ele>
        <time>2021-08-19T06:36:34Z</time>
      </trkpt>
      <trkpt lat="43.6006" lon="0.44143">
        <ele>241.43</ele>
        <time>2021-08-19T06:36:43Z</time>
      </trkpt>
      <trkpt lat="43.60045" lon="0.44147">
        <ele>242.39</ele>
        <time>2021-08-19T06:36:51Z</time>
      </trkpt>
      <trkpt lat="43.60024" lon="0.44152">
        <ele>243.35</ele>
        <time>2021-08-19T06:37:00Z</time>
      </trkpt>
      <trkpt lat="43.60006" lon="0.44156">
        <ele>244.31</ele>
        <time>2021-08-19T06:37:08Z</time>
      </trkpt>
      <trkpt lat="43.59985" lon="0.44158">
        <ele>244.79</ele>
        <time>2021-08-19T06:37:16Z</time>
      </trkpt>
      <trkpt lat="43.59958" lon="0.44163">
        <ele>245.27</ele>
        <time>2021-08-19T06:37:27Z</time>
      </trkpt>
      <trkpt lat="43.59936" lon="0.44171">
        <ele>246.23</ele>
        <time>2021-08-19T06:37:36Z</time>
      </trkpt>
      <trkpt lat="43.59909" lon="0.4418">
        <ele>246.72</ele>
        <time>2021-08-19T06:37:46Z</time>
      </trkpt>
      <trkpt lat="43.59875" lon="0.44191">
        <ele>246.72</ele>
        <time>2021-08-19T06:37:57Z</time>
      </trkpt>
      <trkpt lat="43.59838" lon="0.44201">
        <ele>246.72</ele>
        <time>2021-08-19T06:38:06Z</time>
      </trkpt>
      <trkpt lat="43.59785" lon="0.44214">
        <ele>246.72</ele>
        <time>2021-08-19T06:38:19Z</time>
      </trkpt>
      <trkpt lat="43.59741" lon="0.44226">
        <ele>246.72</ele>
        <time>2021-08-19T06:38:30Z</time>
      </trkpt>
      <trkpt lat="43.59697" lon="0.44238">
        <ele>246.23</ele>
        <time>2021-08-19T06:38:39Z</time>
      </trkpt>
      <trkpt lat="43.59678" lon="0.44243">
        <ele>248.16</ele>
        <time>2021-08-19T06:38:46Z</time>
      </trkpt>
      <trkpt lat="43.59664" lon="0.44246">
        <ele>249.12</ele>
        <time>2021-08-19T06:38:53Z</time>
      </trkpt>
      <trkpt lat="43.59645" lon="0.44251">
        <ele>251.04</ele>
        <time>2021-08-19T06:39:01Z</time>
      </trkpt>
      <trkpt lat="43.59627" lon="0.44257">
        <ele>251.52</ele>
        <time>2021-08-19T06:39:08Z</time>
      </trkpt>
      <trkpt lat="43.59607" lon="0.44264">
        <ele>251.52</ele>
        <time>2021-08-19T06:39:15Z</time>
      </trkpt>
      <trkpt lat="43.59578" lon="0.44271">
        <ele>251.52</ele>
        <time>2021-08-19T06:39:24Z</time>
      </trkpt>
      <trkpt lat="43.59559" lon="0.4427">
        <ele>251.52</ele>
        <time>2021-08-19T06:39:30Z</time>
      </trkpt>
      <trkpt lat="43.59544" lon="0.44264">
        <ele>250.08</ele>
        <time>2021-08-19T06:39:35Z</time>
      </trkpt>
      <trkpt lat="43.59519" lon="0.44261">
        <ele>250.08</ele>
        <time>2021-08-19T06:39:43Z</time>
      </trkpt>
      <trkpt lat="43.5949" lon="0.44267">
        <ele>249.6</ele>
        <time>2021-08-19T06:39:52Z</time>
      </trkpt>
      <trkpt lat="43.5947" lon="0.44276">
        <ele>249.6</ele>
        <time>2021-08-19T06:39:58Z</time>
      </trkpt>
      <trkpt lat="43.59455" lon="0.44282">
        <ele>249.6</ele>
        <time>2021-08-19T06:40:04Z</time>
      </trkpt>
      <trkpt lat="43.59427" lon="0.44295">
        <ele>249.6</ele>
        <time>2021-08-19T06:40:12Z</time>
      </trkpt>
      <trkpt lat="43.59393" lon="0.44313">
        <ele>249.6</ele>
        <time>2021-08-19T06:40:21Z</time>
      </trkpt>
      <trkpt lat="43.59368" lon="0.44322">
        <ele>251.04</ele>
        <time>2021-08-19T06:40:28Z</time>
      </trkpt>
      <trkpt lat="43.59352" lon="0.4432">
        <ele>252</ele>
        <time>2021-08-19T06:40:33Z</time>
      </trkpt>
      <trkpt lat="43.59333" lon="0.44313">
        <ele>252.48</ele>
        <time>2021-08-19T06:40:40Z</time>
      </trkpt>
      <trkpt lat="43.59298" lon="0.44302">
        <ele>254.41</ele>
        <time>2021-08-19T06:40:52Z</time>
      </trkpt>
      <trkpt lat="43.59273" lon="0.44299">
        <ele>255.37</ele>
        <time>2021-08-19T06:41:00Z</time>
      </trkpt>
      <trkpt lat="43.59247" lon="0.44298">
        <ele>255.85</ele>
        <time>2021-08-19T06:41:07Z</time>
      </trkpt>
      <trkpt lat="43.59221" lon="0.443">
        <ele>255.85</ele>
        <time>2021-08-19T06:41:14Z</time>
      </trkpt>
      <trkpt lat="43.59216" lon="0.44299">
        <ele>255.85</ele>
        <time>2021-08-19T06:41:15Z</time>
      </trkpt>
      <trkpt lat="43.59212" lon="0.44298">
        <ele>255.85</ele>
        <time>2021-08-19T06:41:16Z</time>
      </trkpt>
      <trkpt lat="43.59208" lon="0.44297">
        <ele>255.85</ele>
        <time>2021-08-19T06:41:17Z</time>
      </trkpt>
      <trkpt lat="43.59204" lon="0.44295">
        <ele>255.85</ele>
        <time>2021-08-19T06:41:18Z</time>
      </trkpt>
      <trkpt lat="43.59199" lon="0.44293">
        <ele>255.85</ele>
        <time>2021-08-19T06:41:19Z</time>
      </trkpt>
      <trkpt lat="43.59195" lon="0.44291">
        <ele>255.85</ele>
        <time>2021-08-19T06:41:20Z</time>
      </trkpt>
      <trkpt lat="43.59147" lon="0.4426">
        <ele>253.44</ele>
        <time>2021-08-19T06:41:29Z</time>
      </trkpt>
      <trkpt lat="43.59126" lon="0.44241">
        <ele>253.44</ele>
        <time>2021-08-19T06:41:34Z</time>
      </trkpt>
      <trkpt lat="43.59122" lon="0.44238">
        <ele>253.44</ele>
        <time>2021-08-19T06:41:35Z</time>
      </trkpt>
      <trkpt lat="43.59119" lon="0.44236">
        <ele>253.93</ele>
        <time>2021-08-19T06:41:36Z</time>
      </trkpt>
      <trkpt lat="43.59115" lon="0.44235">
        <ele>253.93</ele>
        <time>2021-08-19T06:41:37Z</time>
      </trkpt>
      <trkpt lat="43.59111" lon="0.44234">
        <ele>253.93</ele>
        <time>2021-08-19T06:41:38Z</time>
      </trkpt>
      <trkpt lat="43.59108" lon="0.44234">
        <ele>253.93</ele>
        <time>2021-08-19T06:41:39Z</time>
      </trkpt>
      <trkpt lat="43.59099" lon="0.44235">
        <ele>255.85</ele>
        <time>2021-08-19T06:41:42Z</time>
      </trkpt>
      <trkpt lat="43.59096" lon="0.44234">
        <ele>255.85</ele>
        <time>2021-08-19T06:41:43Z</time>
      </trkpt>
      <trkpt lat="43.59094" lon="0.44231">
        <ele>255.85</ele>
        <time>2021-08-19T06:41:44Z</time>
      </trkpt>
      <trkpt lat="43.59092" lon="0.44227">
        <ele>255.85</ele>
        <time>2021-08-19T06:41:45Z</time>
      </trkpt>
      <trkpt lat="43.59092" lon="0.44222">
        <ele>255.85</ele>
        <time>2021-08-19T06:41:46Z</time>
      </trkpt>
      <trkpt lat="43.59092" lon="0.44217">
        <ele>255.85</ele>
        <time>2021-08-19T06:41:47Z</time>
      </trkpt>
      <trkpt lat="43.59093" lon="0.44212">
        <ele>255.85</ele>
        <time>2021-08-19T06:41:48Z</time>
      </trkpt>
      <trkpt lat="43.59094" lon="0.442">
        <ele>255.85</ele>
        <time>2021-08-19T06:41:50Z</time>
      </trkpt>
      <trkpt lat="43.59094" lon="0.44194">
        <ele>255.85</ele>
        <time>2021-08-19T06:41:51Z</time>
      </trkpt>
      <trkpt lat="43.59095" lon="0.44166">
        <ele>254.41</ele>
        <time>2021-08-19T06:41:55Z</time>
      </trkpt>
      <trkpt lat="43.59097" lon="0.44134">
        <ele>252.96</ele>
        <time>2021-08-19T06:41:59Z</time>
      </trkpt>
      <trkpt lat="43.59101" lon="0.44109">
        <ele>251.52</ele>
        <time>2021-08-19T06:42:02Z</time>
      </trkpt>
      <trkpt lat="43.59103" lon="0.44101">
        <ele>251.52</ele>
        <time>2021-08-19T06:42:03Z</time>
      </trkpt>
      <trkpt lat="43.59106" lon="0.44093">
        <ele>251.52</ele>
        <time>2021-08-19T06:42:04Z</time>
      </trkpt>
      <trkpt lat="43.59121" lon="0.44067">
        <ele>251.52</ele>
        <time>2021-08-19T06:42:08Z</time>
      </trkpt>
      <trkpt lat="43.59124" lon="0.44061">
        <ele>251.52</ele>
        <time>2021-08-19T06:42:09Z</time>
      </trkpt>
      <trkpt lat="43.59127" lon="0.44055">
        <ele>251.52</ele>
        <time>2021-08-19T06:42:10Z</time>
      </trkpt>
      <trkpt lat="43.59139" lon="0.44031">
        <ele>251.04</ele>
        <time>2021-08-19T06:42:14Z</time>
      </trkpt>
      <trkpt lat="43.59142" lon="0.44019">
        <ele>250.56</ele>
        <time>2021-08-19T06:42:16Z</time>
      </trkpt>
      <trkpt lat="43.5915" lon="0.43977">
        <ele>246.23</ele>
        <time>2021-08-19T06:42:21Z</time>
      </trkpt>
      <trkpt lat="43.59153" lon="0.43956">
        <ele>245.27</ele>
        <time>2021-08-19T06:42:23Z</time>
      </trkpt>
      <trkpt lat="43.59153" lon="0.43934">
        <ele>244.31</ele>
        <time>2021-08-19T06:42:25Z</time>
      </trkpt>
      <trkpt lat="43.59152" lon="0.43913">
        <ele>243.35</ele>
        <time>2021-08-19T06:42:27Z</time>
      </trkpt>
      <trkpt lat="43.59153" lon="0.43902">
        <ele>241.91</ele>
        <time>2021-08-19T06:42:28Z</time>
      </trkpt>
      <trkpt lat="43.59156" lon="0.43881">
        <ele>239.51</ele>
        <time>2021-08-19T06:42:30Z</time>
      </trkpt>
      <trkpt lat="43.59157" lon="0.43845">
        <ele>238.06</ele>
        <time>2021-08-19T06:42:33Z</time>
      </trkpt>
      <trkpt lat="43.59156" lon="0.43833">
        <ele>236.62</ele>
        <time>2021-08-19T06:42:34Z</time>
      </trkpt>
      <trkpt lat="43.59151" lon="0.43795">
        <ele>234.7</ele>
        <time>2021-08-19T06:42:37Z</time>
      </trkpt>
      <trkpt lat="43.59149" lon="0.43782">
        <ele>234.7</ele>
        <time>2021-08-19T06:42:38Z</time>
      </trkpt>
      <trkpt lat="43.59146" lon="0.4377">
        <ele>233.74</ele>
        <time>2021-08-19T06:42:39Z</time>
      </trkpt>
      <trkpt lat="43.5913" lon="0.43724">
        <ele>231.33</ele>
        <time>2021-08-19T06:42:43Z</time>
      </trkpt>
      <trkpt lat="43.59119" lon="0.43689">
        <ele>230.37</ele>
        <time>2021-08-19T06:42:47Z</time>
      </trkpt>
      <trkpt lat="43.59119" lon="0.43681">
        <ele>230.37</ele>
        <time>2021-08-19T06:42:48Z</time>
      </trkpt>
      <trkpt lat="43.59119" lon="0.43675">
        <ele>230.37</ele>
        <time>2021-08-19T06:42:49Z</time>
      </trkpt>
      <trkpt lat="43.59118" lon="0.43667">
        <ele>230.37</ele>
        <time>2021-08-19T06:42:50Z</time>
      </trkpt>
      <trkpt lat="43.59117" lon="0.43659">
        <ele>229.89</ele>
        <time>2021-08-19T06:42:51Z</time>
      </trkpt>
      <trkpt lat="43.59116" lon="0.43652">
        <ele>229.89</ele>
        <time>2021-08-19T06:42:52Z</time>
      </trkpt>
      <trkpt lat="43.59114" lon="0.43645">
        <ele>229.41</ele>
        <time>2021-08-19T06:42:53Z</time>
      </trkpt>
      <trkpt lat="43.59111" lon="0.43637">
        <ele>228.93</ele>
        <time>2021-08-19T06:42:54Z</time>
      </trkpt>
      <trkpt lat="43.59105" lon="0.43622">
        <ele>227.97</ele>
        <time>2021-08-19T06:42:56Z</time>
      </trkpt>
      <trkpt lat="43.59081" lon="0.43556">
        <ele>225.57</ele>
        <time>2021-08-19T06:43:05Z</time>
      </trkpt>
      <trkpt lat="43.59074" lon="0.43536">
        <ele>225.57</ele>
        <time>2021-08-19T06:43:08Z</time>
      </trkpt>
      <trkpt lat="43.59075" lon="0.4353">
        <ele>225.57</ele>
        <time>2021-08-19T06:43:09Z</time>
      </trkpt>
      <trkpt lat="43.59077" lon="0.43524">
        <ele>225.57</ele>
        <time>2021-08-19T06:43:10Z</time>
      </trkpt>
      <trkpt lat="43.59079" lon="0.43518">
        <ele>225.57</ele>
        <time>2021-08-19T06:43:11Z</time>
      </trkpt>
      <trkpt lat="43.5908" lon="0.43511">
        <ele>225.09</ele>
        <time>2021-08-19T06:43:12Z</time>
      </trkpt>
      <trkpt lat="43.59081" lon="0.43504">
        <ele>224.61</ele>
        <time>2021-08-19T06:43:13Z</time>
      </trkpt>
      <trkpt lat="43.59082" lon="0.43497">
        <ele>224.12</ele>
        <time>2021-08-19T06:43:14Z</time>
      </trkpt>
      <trkpt lat="43.59086" lon="0.43454">
        <ele>220.28</ele>
        <time>2021-08-19T06:43:19Z</time>
      </trkpt>
      <trkpt lat="43.59092" lon="0.43407">
        <ele>216.91</ele>
        <time>2021-08-19T06:43:24Z</time>
      </trkpt>
      <trkpt lat="43.59096" lon="0.43372">
        <ele>214.03</ele>
        <time>2021-08-19T06:43:28Z</time>
      </trkpt>
      <trkpt lat="43.59105" lon="0.4333">
        <ele>210.19</ele>
        <time>2021-08-19T06:43:33Z</time>
      </trkpt>
      <trkpt lat="43.59106" lon="0.4332">
        <ele>208.74</ele>
        <time>2021-08-19T06:43:34Z</time>
      </trkpt>
      <trkpt lat="43.5912" lon="0.43236">
        <ele>206.82</ele>
        <time>2021-08-19T06:43:42Z</time>
      </trkpt>
      <trkpt lat="43.59123" lon="0.43221">
        <ele>205.86</ele>
        <time>2021-08-19T06:43:44Z</time>
      </trkpt>
      <trkpt lat="43.59122" lon="0.43216">
        <ele>206.34</ele>
        <time>2021-08-19T06:43:45Z</time>
      </trkpt>
      <trkpt lat="43.5912" lon="0.43213">
        <ele>206.34</ele>
        <time>2021-08-19T06:43:46Z</time>
      </trkpt>
      <trkpt lat="43.59119" lon="0.43212">
        <ele>206.34</ele>
        <time>2021-08-19T06:43:47Z</time>
      </trkpt>
      <trkpt lat="43.59116" lon="0.43213">
        <ele>207.78</ele>
        <time>2021-08-19T06:43:52Z</time>
      </trkpt>
      <trkpt lat="43.59116" lon="0.43213">
        <ele>207.78</ele>
        <time>2021-08-19T06:43:53Z</time>
      </trkpt>
      <trkpt lat="43.59111" lon="0.43213">
        <ele>209.22</ele>
        <time>2021-08-19T06:44:03Z</time>
      </trkpt>
      <trkpt lat="43.59104" lon="0.43211">
        <ele>210.67</ele>
        <time>2021-08-19T06:44:14Z</time>
      </trkpt>
      <trkpt lat="43.59099" lon="0.43209">
        <ele>211.63</ele>
        <time>2021-08-19T06:44:23Z</time>
      </trkpt>
      <trkpt lat="43.59093" lon="0.43206">
        <ele>213.07</ele>
        <time>2021-08-19T06:44:34Z</time>
      </trkpt>
      <trkpt lat="43.5909" lon="0.43206">
        <ele>214.51</ele>
        <time>2021-08-19T06:44:41Z</time>
      </trkpt>
      <trkpt lat="43.59086" lon="0.43204">
        <ele>215.95</ele>
        <time>2021-08-19T06:44:51Z</time>
      </trkpt>
      <trkpt lat="43.59082" lon="0.43203">
        <ele>217.4</ele>
        <time>2021-08-19T06:45:00Z</time>
      </trkpt>
      <trkpt lat="43.59077" lon="0.43201">
        <ele>218.84</ele>
        <time>2021-08-19T06:45:12Z</time>
      </trkpt>
      <trkpt lat="43.59073" lon="0.432">
        <ele>220.28</ele>
        <time>2021-08-19T06:45:22Z</time>
      </trkpt>
      <trkpt lat="43.59067" lon="0.43198">
        <ele>221.72</ele>
        <time>2021-08-19T06:45:32Z</time>
      </trkpt>
      <trkpt lat="43.59062" lon="0.43198">
        <ele>223.16</ele>
        <time>2021-08-19T06:45:43Z</time>
      </trkpt>
      <trkpt lat="43.59057" lon="0.43198">
        <ele>225.57</ele>
        <time>2021-08-19T06:45:54Z</time>
      </trkpt>
      <trkpt lat="43.59051" lon="0.43198">
        <ele>226.53</ele>
        <time>2021-08-19T06:46:04Z</time>
      </trkpt>
      <trkpt lat="43.59044" lon="0.43197">
        <ele>228.93</ele>
        <time>2021-08-19T06:46:15Z</time>
      </trkpt>
      <trkpt lat="43.59036" lon="0.43197">
        <ele>230.37</ele>
        <time>2021-08-19T06:46:26Z</time>
      </trkpt>
      <trkpt lat="43.59032" lon="0.43192">
        <ele>231.33</ele>
        <time>2021-08-19T06:46:33Z</time>
      </trkpt>
      <trkpt lat="43.59032" lon="0.43187">
        <ele>231.33</ele>
        <time>2021-08-19T06:46:41Z</time>
      </trkpt>
      <trkpt lat="43.59032" lon="0.43185">
        <ele>231.33</ele>
        <time>2021-08-19T06:46:42Z</time>
      </trkpt>
      <trkpt lat="43.59036" lon="0.43176">
        <ele>231.33</ele>
        <time>2021-08-19T06:46:48Z</time>
      </trkpt>
      <trkpt lat="43.59044" lon="0.43155">
        <ele>231.33</ele>
        <time>2021-08-19T06:46:54Z</time>
      </trkpt>
      <trkpt lat="43.59055" lon="0.43127">
        <ele>229.89</ele>
        <time>2021-08-19T06:47:01Z</time>
      </trkpt>
      <trkpt lat="43.59057" lon="0.43122">
        <ele>229.89</ele>
        <time>2021-08-19T06:47:02Z</time>
      </trkpt>
      <trkpt lat="43.59074" lon="0.43081">
        <ele>227.49</ele>
        <time>2021-08-19T06:47:09Z</time>
      </trkpt>
      <trkpt lat="43.59078" lon="0.43073">
        <ele>226.53</ele>
        <time>2021-08-19T06:47:10Z</time>
      </trkpt>
      <trkpt lat="43.59085" lon="0.43057">
        <ele>226.05</ele>
        <time>2021-08-19T06:47:12Z</time>
      </trkpt>
      <trkpt lat="43.59105" lon="0.42991">
        <ele>223.16</ele>
        <time>2021-08-19T06:47:19Z</time>
      </trkpt>
      <trkpt lat="43.59118" lon="0.4292">
        <ele>221.24</ele>
        <time>2021-08-19T06:47:26Z</time>
      </trkpt>
      <trkpt lat="43.59129" lon="0.42856">
        <ele>217.88</ele>
        <time>2021-08-19T06:47:32Z</time>
      </trkpt>
      <trkpt lat="43.59133" lon="0.42807">
        <ele>214.51</ele>
        <time>2021-08-19T06:47:36Z</time>
      </trkpt>
      <trkpt lat="43.59141" lon="0.42746">
        <ele>212.59</ele>
        <time>2021-08-19T06:47:41Z</time>
      </trkpt>
      <trkpt lat="43.5915" lon="0.42709">
        <ele>209.7</ele>
        <time>2021-08-19T06:47:45Z</time>
      </trkpt>
      <trkpt lat="43.59159" lon="0.4266">
        <ele>205.86</ele>
        <time>2021-08-19T06:47:50Z</time>
      </trkpt>
      <trkpt lat="43.59164" lon="0.42622">
        <ele>202.49</ele>
        <time>2021-08-19T06:47:54Z</time>
      </trkpt>
      <trkpt lat="43.59168" lon="0.42583">
        <ele>198.65</ele>
        <time>2021-08-19T06:47:58Z</time>
      </trkpt>
      <trkpt lat="43.59169" lon="0.42574">
        <ele>198.65</ele>
        <time>2021-08-19T06:47:59Z</time>
      </trkpt>
      <trkpt lat="43.59171" lon="0.42566">
        <ele>197.69</ele>
        <time>2021-08-19T06:48:00Z</time>
      </trkpt>
      <trkpt lat="43.59175" lon="0.42547">
        <ele>195.77</ele>
        <time>2021-08-19T06:48:04Z</time>
      </trkpt>
      <trkpt lat="43.59178" lon="0.42532">
        <ele>194.32</ele>
        <time>2021-08-19T06:48:07Z</time>
      </trkpt>
      <trkpt lat="43.59179" lon="0.42526">
        <ele>194.32</ele>
        <time>2021-08-19T06:48:08Z</time>
      </trkpt>
      <trkpt lat="43.59179" lon="0.4252">
        <ele>193.36</ele>
        <time>2021-08-19T06:48:09Z</time>
      </trkpt>
      <trkpt lat="43.59173" lon="0.4245">
        <ele>190.96</ele>
        <time>2021-08-19T06:48:18Z</time>
      </trkpt>
      <trkpt lat="43.59171" lon="0.42432">
        <ele>190</ele>
        <time>2021-08-19T06:48:20Z</time>
      </trkpt>
      <trkpt lat="43.59154" lon="0.42373">
        <ele>186.63</ele>
        <time>2021-08-19T06:48:26Z</time>
      </trkpt>
      <trkpt lat="43.59137" lon="0.4233">
        <ele>183.27</ele>
        <time>2021-08-19T06:48:30Z</time>
      </trkpt>
      <trkpt lat="43.59118" lon="0.42283">
        <ele>179.9</ele>
        <time>2021-08-19T06:48:34Z</time>
      </trkpt>
      <trkpt lat="43.59094" lon="0.42223">
        <ele>177.02</ele>
        <time>2021-08-19T06:48:39Z</time>
      </trkpt>
      <trkpt lat="43.59088" lon="0.42205">
        <ele>176.54</ele>
        <time>2021-08-19T06:48:41Z</time>
      </trkpt>
      <trkpt lat="43.59087" lon="0.42197">
        <ele>176.06</ele>
        <time>2021-08-19T06:48:42Z</time>
      </trkpt>
      <trkpt lat="43.59088" lon="0.42188">
        <ele>175.58</ele>
        <time>2021-08-19T06:48:43Z</time>
      </trkpt>
      <trkpt lat="43.59091" lon="0.4218">
        <ele>174.62</ele>
        <time>2021-08-19T06:48:44Z</time>
      </trkpt>
      <trkpt lat="43.59096" lon="0.42174">
        <ele>174.62</ele>
        <time>2021-08-19T06:48:45Z</time>
      </trkpt>
      <trkpt lat="43.59102" lon="0.42168">
        <ele>174.14</ele>
        <time>2021-08-19T06:48:46Z</time>
      </trkpt>
      <trkpt lat="43.59142" lon="0.42137">
        <ele>171.25</ele>
        <time>2021-08-19T06:48:52Z</time>
      </trkpt>
      <trkpt lat="43.59165" lon="0.42123">
        <ele>167.41</ele>
        <time>2021-08-19T06:48:55Z</time>
      </trkpt>
      <trkpt lat="43.59187" lon="0.42105">
        <ele>164.04</ele>
        <time>2021-08-19T06:48:58Z</time>
      </trkpt>
      <trkpt lat="43.59212" lon="0.42083">
        <ele>160.2</ele>
        <time>2021-08-19T06:49:02Z</time>
      </trkpt>
      <trkpt lat="43.59223" lon="0.42068">
        <ele>159.24</ele>
        <time>2021-08-19T06:49:06Z</time>
      </trkpt>
      <trkpt lat="43.59224" lon="0.42064">
        <ele>159.24</ele>
        <time>2021-08-19T06:49:07Z</time>
      </trkpt>
      <trkpt lat="43.59223" lon="0.4206">
        <ele>159.24</ele>
        <time>2021-08-19T06:49:08Z</time>
      </trkpt>
      <trkpt lat="43.59222" lon="0.42056">
        <ele>159.24</ele>
        <time>2021-08-19T06:49:09Z</time>
      </trkpt>
      <trkpt lat="43.5922" lon="0.42051">
        <ele>159.24</ele>
        <time>2021-08-19T06:49:10Z</time>
      </trkpt>
      <trkpt lat="43.59217" lon="0.42046">
        <ele>158.27</ele>
        <time>2021-08-19T06:49:11Z</time>
      </trkpt>
      <trkpt lat="43.59214" lon="0.42042">
        <ele>158.75</ele>
        <time>2021-08-19T06:49:12Z</time>
      </trkpt>
      <trkpt lat="43.59186" lon="0.41994">
        <ele>158.27</ele>
        <time>2021-08-19T06:49:22Z</time>
      </trkpt>
      <trkpt lat="43.59162" lon="0.41955">
        <ele>158.27</ele>
        <time>2021-08-19T06:49:30Z</time>
      </trkpt>
      <trkpt lat="43.5913" lon="0.41905">
        <ele>157.31</ele>
        <time>2021-08-19T06:49:40Z</time>
      </trkpt>
      <trkpt lat="43.59098" lon="0.41871">
        <ele>154.91</ele>
        <time>2021-08-19T06:49:47Z</time>
      </trkpt>
      <trkpt lat="43.59058" lon="0.41829">
        <ele>151.54</ele>
        <time>2021-08-19T06:49:54Z</time>
      </trkpt>
      <trkpt lat="43.59038" lon="0.41811">
        <ele>150.58</ele>
        <time>2021-08-19T06:49:57Z</time>
      </trkpt>
      <trkpt lat="43.5903" lon="0.41808">
        <ele>150.1</ele>
        <time>2021-08-19T06:49:58Z</time>
      </trkpt>
      <trkpt lat="43.59022" lon="0.41805">
        <ele>149.14</ele>
        <time>2021-08-19T06:49:59Z</time>
      </trkpt>
      <trkpt lat="43.59013" lon="0.41803">
        <ele>149.14</ele>
        <time>2021-08-19T06:50:00Z</time>
      </trkpt>
      <trkpt lat="43.59005" lon="0.41804">
        <ele>149.14</ele>
        <time>2021-08-19T06:50:01Z</time>
      </trkpt>
      <trkpt lat="43.58997" lon="0.41807">
        <ele>149.14</ele>
        <time>2021-08-19T06:50:02Z</time>
      </trkpt>
      <trkpt lat="43.58989" lon="0.4181">
        <ele>148.18</ele>
        <time>2021-08-19T06:50:03Z</time>
      </trkpt>
      <trkpt lat="43.58965" lon="0.41818">
        <ele>147.22</ele>
        <time>2021-08-19T06:50:06Z</time>
      </trkpt>
      <trkpt lat="43.58957" lon="0.41817">
        <ele>146.74</ele>
        <time>2021-08-19T06:50:07Z</time>
      </trkpt>
      <trkpt lat="43.58949" lon="0.41814">
        <ele>146.74</ele>
        <time>2021-08-19T06:50:08Z</time>
      </trkpt>
      <trkpt lat="43.58942" lon="0.41808">
        <ele>145.78</ele>
        <time>2021-08-19T06:50:09Z</time>
      </trkpt>
      <trkpt lat="43.58936" lon="0.418">
        <ele>145.78</ele>
        <time>2021-08-19T06:50:10Z</time>
      </trkpt>
      <trkpt lat="43.5893" lon="0.41792">
        <ele>145.3</ele>
        <time>2021-08-19T06:50:11Z</time>
      </trkpt>
      <trkpt lat="43.58925" lon="0.41784">
        <ele>145.3</ele>
        <time>2021-08-19T06:50:12Z</time>
      </trkpt>
      <trkpt lat="43.58904" lon="0.41747">
        <ele>142.41</ele>
        <time>2021-08-19T06:50:16Z</time>
      </trkpt>
      <trkpt lat="43.58901" lon="0.41735">
        <ele>141.93</ele>
        <time>2021-08-19T06:50:17Z</time>
      </trkpt>
      <trkpt lat="43.58898" lon="0.41722">
        <ele>141.93</ele>
        <time>2021-08-19T06:50:18Z</time>
      </trkpt>
      <trkpt lat="43.58896" lon="0.41709">
        <ele>140.97</ele>
        <time>2021-08-19T06:50:19Z</time>
      </trkpt>
      <trkpt lat="43.58895" lon="0.41697">
        <ele>140.97</ele>
        <time>2021-08-19T06:50:20Z</time>
      </trkpt>
      <trkpt lat="43.58888" lon="0.41591">
        <ele>140.01</ele>
        <time>2021-08-19T06:50:29Z</time>
      </trkpt>
      <trkpt lat="43.58891" lon="0.4152">
        <ele>139.53</ele>
        <time>2021-08-19T06:50:36Z</time>
      </trkpt>
      <trkpt lat="43.58893" lon="0.41446">
        <ele>139.05</ele>
        <time>2021-08-19T06:50:44Z</time>
      </trkpt>
      <trkpt lat="43.58891" lon="0.41437">
        <ele>139.05</ele>
        <time>2021-08-19T06:50:45Z</time>
      </trkpt>
      <trkpt lat="43.58887" lon="0.41429">
        <ele>139.05</ele>
        <time>2021-08-19T06:50:46Z</time>
      </trkpt>
      <trkpt lat="43.58883" lon="0.41423">
        <ele>139.05</ele>
        <time>2021-08-19T06:50:47Z</time>
      </trkpt>
      <trkpt lat="43.58878" lon="0.41417">
        <ele>138.57</ele>
        <time>2021-08-19T06:50:48Z</time>
      </trkpt>
      <trkpt lat="43.58873" lon="0.41412">
        <ele>138.57</ele>
        <time>2021-08-19T06:50:49Z</time>
      </trkpt>
      <trkpt lat="43.58866" lon="0.41408">
        <ele>138.57</ele>
        <time>2021-08-19T06:50:50Z</time>
      </trkpt>
      <trkpt lat="43.58861" lon="0.41406">
        <ele>138.57</ele>
        <time>2021-08-19T06:50:51Z</time>
      </trkpt>
      <trkpt lat="43.58855" lon="0.41404">
        <ele>138.57</ele>
        <time>2021-08-19T06:50:52Z</time>
      </trkpt>
      <trkpt lat="43.58849" lon="0.41402">
        <ele>138.57</ele>
        <time>2021-08-19T06:50:53Z</time>
      </trkpt>
      <trkpt lat="43.58804" lon="0.41386">
        <ele>138.57</ele>
        <time>2021-08-19T06:51:01Z</time>
      </trkpt>
      <trkpt lat="43.58771" lon="0.41373">
        <ele>138.57</ele>
        <time>2021-08-19T06:51:07Z</time>
      </trkpt>
      <trkpt lat="43.58767" lon="0.4137">
        <ele>138.57</ele>
        <time>2021-08-19T06:51:08Z</time>
      </trkpt>
      <trkpt lat="43.58762" lon="0.41365">
        <ele>138.57</ele>
        <time>2021-08-19T06:51:09Z</time>
      </trkpt>
      <trkpt lat="43.5875" lon="0.41354">
        <ele>138.57</ele>
        <time>2021-08-19T06:51:12Z</time>
      </trkpt>
      <trkpt lat="43.58746" lon="0.41352">
        <ele>138.57</ele>
        <time>2021-08-19T06:51:13Z</time>
      </trkpt>
      <trkpt lat="43.58718" lon="0.41334">
        <ele>138.57</ele>
        <time>2021-08-19T06:51:19Z</time>
      </trkpt>
      <trkpt lat="43.58685" lon="0.41298">
        <ele>138.57</ele>
        <time>2021-08-19T06:51:27Z</time>
      </trkpt>
      <trkpt lat="43.58661" lon="0.41274">
        <ele>138.57</ele>
        <time>2021-08-19T06:51:33Z</time>
      </trkpt>
      <trkpt lat="43.58623" lon="0.41238">
        <ele>138.57</ele>
        <time>2021-08-19T06:51:42Z</time>
      </trkpt>
      <trkpt lat="43.58619" lon="0.41238">
        <ele>138.57</ele>
        <time>2021-08-19T06:51:46Z</time>
      </trkpt>
      <trkpt lat="43.58618" lon="0.41233">
        <ele>138.57</ele>
        <time>2021-08-19T06:51:49Z</time>
      </trkpt>
      <trkpt lat="43.58619" lon="0.41228">
        <ele>138.57</ele>
        <time>2021-08-19T06:51:55Z</time>
      </trkpt>
      <trkpt lat="43.58616" lon="0.41223">
        <ele>138.57</ele>
        <time>2021-08-19T06:52:12Z</time>
      </trkpt>
      <trkpt lat="43.58616" lon="0.41221">
        <ele>138.57</ele>
        <time>2021-08-19T06:52:28Z</time>
      </trkpt>
      <trkpt lat="43.58617" lon="0.41223">
        <ele>138.57</ele>
        <time>2021-08-19T06:52:48Z</time>
      </trkpt>
      <trkpt lat="43.58617" lon="0.41221">
        <ele>138.57</ele>
        <time>2021-08-19T06:53:06Z</time>
      </trkpt>
      <trkpt lat="43.58618" lon="0.41222">
        <ele>138.57</ele>
        <time>2021-08-19T06:53:20Z</time>
      </trkpt>
      <trkpt lat="43.58619" lon="0.41223">
        <ele>138.57</ele>
        <time>2021-08-19T06:53:36Z</time>
      </trkpt>
      <trkpt lat="43.58619" lon="0.41222">
        <ele>138.57</ele>
        <time>2021-08-19T06:53:53Z</time>
      </trkpt>
      <trkpt lat="43.58619" lon="0.41222">
        <ele>138.57</ele>
        <time>2021-08-19T06:54:04Z</time>
      </trkpt>
      <trkpt lat="43.5862" lon="0.41224">
        <ele>138.57</ele>
        <time>2021-08-19T06:54:05Z</time>
      </trkpt>
      <trkpt lat="43.58621" lon="0.41223">
        <ele>138.57</ele>
        <time>2021-08-19T06:54:11Z</time>
      </trkpt>
      <trkpt lat="43.5862" lon="0.41221">
        <ele>138.57</ele>
        <time>2021-08-19T06:54:21Z</time>
      </trkpt>
      <trkpt lat="43.58619" lon="0.4122">
        <ele>138.57</ele>
        <time>2021-08-19T06:54:36Z</time>
      </trkpt>
      <trkpt lat="43.58616" lon="0.41219">
        <ele>138.57</ele>
        <time>2021-08-19T06:54:57Z</time>
      </trkpt>
      <trkpt lat="43.58617" lon="0.41221">
        <ele>138.57</ele>
        <time>2021-08-19T06:55:10Z</time>
      </trkpt>
      <trkpt lat="43.58615" lon="0.41218">
        <ele>138.57</ele>
        <time>2021-08-19T06:55:25Z</time>
      </trkpt>
      <trkpt lat="43.58616" lon="0.41219">
        <ele>138.57</ele>
        <time>2021-08-19T06:55:40Z</time>
      </trkpt>
      <trkpt lat="43.58616" lon="0.41218">
        <ele>138.57</ele>
        <time>2021-08-19T06:55:51Z</time>
      </trkpt>
      <trkpt lat="43.58615" lon="0.41218">
        <ele>138.57</ele>
        <time>2021-08-19T06:56:03Z</time>
      </trkpt>
      <trkpt lat="43.58616" lon="0.41218">
        <ele>138.57</ele>
        <time>2021-08-19T06:56:18Z</time>
      </trkpt>
      <trkpt lat="43.58614" lon="0.41216">
        <ele>138.57</ele>
        <time>2021-08-19T06:56:29Z</time>
      </trkpt>
      <trkpt lat="43.58612" lon="0.41215">
        <ele>138.57</ele>
        <time>2021-08-19T06:56:48Z</time>
      </trkpt>
      <trkpt lat="43.58613" lon="0.41216">
        <ele>138.57</ele>
        <time>2021-08-19T06:56:56Z</time>
      </trkpt>
      <trkpt lat="43.58614" lon="0.41217">
        <ele>138.57</ele>
        <time>2021-08-19T06:56:58Z</time>
      </trkpt>
      <trkpt lat="43.58614" lon="0.41218">
        <ele>138.57</ele>
        <time>2021-08-19T06:56:59Z</time>
      </trkpt>
      <trkpt lat="43.58606" lon="0.41211">
        <ele>138.57</ele>
        <time>2021-08-19T06:57:08Z</time>
      </trkpt>
      <trkpt lat="43.58598" lon="0.41203">
        <ele>140.01</ele>
        <time>2021-08-19T06:57:17Z</time>
      </trkpt>
      <trkpt lat="43.58597" lon="0.41202">
        <ele>140.01</ele>
        <time>2021-08-19T06:57:27Z</time>
      </trkpt>
      <trkpt lat="43.58597" lon="0.41202">
        <ele>140.01</ele>
        <time>2021-08-19T06:57:42Z</time>
      </trkpt>
      <trkpt lat="43.58597" lon="0.41203">
        <ele>140.01</ele>
        <time>2021-08-19T06:57:53Z</time>
      </trkpt>
      <trkpt lat="43.58595" lon="0.41202">
        <ele>140.01</ele>
        <time>2021-08-19T06:58:08Z</time>
      </trkpt>
      <trkpt lat="43.58594" lon="0.41202">
        <ele>140.01</ele>
        <time>2021-08-19T06:58:23Z</time>
      </trkpt>
      <trkpt lat="43.58593" lon="0.41203">
        <ele>140.01</ele>
        <time>2021-08-19T06:58:36Z</time>
      </trkpt>
      <trkpt lat="43.58593" lon="0.41204">
        <ele>140.01</ele>
        <time>2021-08-19T06:58:55Z</time>
      </trkpt>
      <trkpt lat="43.58592" lon="0.41204">
        <ele>140.01</ele>
        <time>2021-08-19T06:58:59Z</time>
      </trkpt>
      <trkpt lat="43.58591" lon="0.41204">
        <ele>140.01</ele>
        <time>2021-08-19T06:59:06Z</time>
      </trkpt>
      <trkpt lat="43.58592" lon="0.41202">
        <ele>140.01</ele>
        <time>2021-08-19T06:59:23Z</time>
      </trkpt>
      <trkpt lat="43.58592" lon="0.41203">
        <ele>140.01</ele>
        <time>2021-08-19T06:59:42Z</time>
      </trkpt>
      <trkpt lat="43.58593" lon="0.41202">
        <ele>140.01</ele>
        <time>2021-08-19T07:00:06Z</time>
      </trkpt>
      <trkpt lat="43.58591" lon="0.41201">
        <ele>140.49</ele>
        <time>2021-08-19T07:00:22Z</time>
      </trkpt>
      <trkpt lat="43.58591" lon="0.412">
        <ele>140.49</ele>
        <time>2021-08-19T07:00:41Z</time>
      </trkpt>
      <trkpt lat="43.58591" lon="0.41199">
        <ele>140.49</ele>
        <time>2021-08-19T07:00:56Z</time>
      </trkpt>
      <trkpt lat="43.58594" lon="0.41199">
        <ele>140.49</ele>
        <time>2021-08-19T07:01:13Z</time>
      </trkpt>
      <trkpt lat="43.58595" lon="0.41198">
        <ele>140.49</ele>
        <time>2021-08-19T07:01:28Z</time>
      </trkpt>
      <trkpt lat="43.58596" lon="0.412">
        <ele>140.49</ele>
        <time>2021-08-19T07:01:44Z</time>
      </trkpt>
      <trkpt lat="43.58597" lon="0.412">
        <ele>140.49</ele>
        <time>2021-08-19T07:02:04Z</time>
      </trkpt>
      <trkpt lat="43.58597" lon="0.412">
        <ele>140.49</ele>
        <time>2021-08-19T07:02:28Z</time>
      </trkpt>
      <trkpt lat="43.58597" lon="0.412">
        <ele>140.49</ele>
        <time>2021-08-19T07:02:58Z</time>
      </trkpt>
      <trkpt lat="43.58597" lon="0.41202">
        <ele>140.49</ele>
        <time>2021-08-19T07:03:19Z</time>
      </trkpt>
      <trkpt lat="43.58597" lon="0.41204">
        <ele>140.01</ele>
        <time>2021-08-19T07:03:48Z</time>
      </trkpt>
      <trkpt lat="43.58597" lon="0.41204">
        <ele>140.01</ele>
        <time>2021-08-19T07:04:01Z</time>
      </trkpt>
      <trkpt lat="43.58599" lon="0.41204">
        <ele>140.01</ele>
        <time>2021-08-19T07:04:18Z</time>
      </trkpt>
      <trkpt lat="43.58599" lon="0.41204">
        <ele>140.01</ele>
        <time>2021-08-19T07:04:21Z</time>
      </trkpt>
      <trkpt lat="43.58601" lon="0.41205">
        <ele>140.01</ele>
        <time>2021-08-19T07:04:22Z</time>
      </trkpt>
      <trkpt lat="43.58601" lon="0.41208">
        <ele>140.01</ele>
        <time>2021-08-19T07:04:23Z</time>
      </trkpt>
      <trkpt lat="43.58601" lon="0.4121">
        <ele>140.01</ele>
        <time>2021-08-19T07:04:24Z</time>
      </trkpt>
      <trkpt lat="43.586" lon="0.41213">
        <ele>140.01</ele>
        <time>2021-08-19T07:04:25Z</time>
      </trkpt>
      <trkpt lat="43.58597" lon="0.41215">
        <ele>139.05</ele>
        <time>2021-08-19T07:04:26Z</time>
      </trkpt>
      <trkpt lat="43.58593" lon="0.41215">
        <ele>138.57</ele>
        <time>2021-08-19T07:04:27Z</time>
      </trkpt>
      <trkpt lat="43.58589" lon="0.41213">
        <ele>138.57</ele>
        <time>2021-08-19T07:04:28Z</time>
      </trkpt>
      <trkpt lat="43.58585" lon="0.41212">
        <ele>138.09</ele>
        <time>2021-08-19T07:04:29Z</time>
      </trkpt>
      <trkpt lat="43.58581" lon="0.41214">
        <ele>138.09</ele>
        <time>2021-08-19T07:04:30Z</time>
      </trkpt>
      <trkpt lat="43.5858" lon="0.41217">
        <ele>138.09</ele>
        <time>2021-08-19T07:04:31Z</time>
      </trkpt>
      <trkpt lat="43.58581" lon="0.4122">
        <ele>138.09</ele>
        <time>2021-08-19T07:04:32Z</time>
      </trkpt>
      <trkpt lat="43.58582" lon="0.41222">
        <ele>138.09</ele>
        <time>2021-08-19T07:04:33Z</time>
      </trkpt>
      <trkpt lat="43.58584" lon="0.41223">
        <ele>138.09</ele>
        <time>2021-08-19T07:04:34Z</time>
      </trkpt>
      <trkpt lat="43.58586" lon="0.41222">
        <ele>138.09</ele>
        <time>2021-08-19T07:04:41Z</time>
      </trkpt>
      <trkpt lat="43.58588" lon="0.4122">
        <ele>138.09</ele>
        <time>2021-08-19T07:04:43Z</time>
      </trkpt>
      <trkpt lat="43.58589" lon="0.41219">
        <ele>138.09</ele>
        <time>2021-08-19T07:04:44Z</time>
      </trkpt>
      <trkpt lat="43.5859" lon="0.41218">
        <ele>138.09</ele>
        <time>2021-08-19T07:04:45Z</time>
      </trkpt>
      <trkpt lat="43.586" lon="0.41212">
        <ele>139.53</ele>
        <time>2021-08-19T07:04:51Z</time>
      </trkpt>
      <trkpt lat="43.58602" lon="0.41211">
        <ele>139.53</ele>
        <time>2021-08-19T07:04:52Z</time>
      </trkpt>
      <trkpt lat="43.58603" lon="0.41209">
        <ele>139.53</ele>
        <time>2021-08-19T07:04:53Z</time>
      </trkpt>
      <trkpt lat="43.58603" lon="0.41207">
        <ele>139.53</ele>
        <time>2021-08-19T07:04:54Z</time>
      </trkpt>
      <trkpt lat="43.58599" lon="0.41188">
        <ele>140.01</ele>
        <time>2021-08-19T07:05:00Z</time>
      </trkpt>
      <trkpt lat="43.58592" lon="0.41168">
        <ele>141.45</ele>
        <time>2021-08-19T07:05:07Z</time>
      </trkpt>
      <trkpt lat="43.58586" lon="0.41143">
        <ele>142.41</ele>
        <time>2021-08-19T07:05:15Z</time>
      </trkpt>
      <trkpt lat="43.58579" lon="0.41111">
        <ele>142.41</ele>
        <time>2021-08-19T07:05:23Z</time>
      </trkpt>
      <trkpt lat="43.58569" lon="0.41076">
        <ele>141.93</ele>
        <time>2021-08-19T07:05:30Z</time>
      </trkpt>
      <trkpt lat="43.58554" lon="0.41057">
        <ele>141.93</ele>
        <time>2021-08-19T07:05:35Z</time>
      </trkpt>
      <trkpt lat="43.58551" lon="0.41054">
        <ele>141.93</ele>
        <time>2021-08-19T07:05:36Z</time>
      </trkpt>
      <trkpt lat="43.58547" lon="0.41051">
        <ele>141.93</ele>
        <time>2021-08-19T07:05:37Z</time>
      </trkpt>
      <trkpt lat="43.58515" lon="0.41041">
        <ele>141.93</ele>
        <time>2021-08-19T07:05:45Z</time>
      </trkpt>
      <trkpt lat="43.58471" lon="0.41026">
        <ele>141.93</ele>
        <time>2021-08-19T07:05:56Z</time>
      </trkpt>
      <trkpt lat="43.58451" lon="0.41013">
        <ele>143.37</ele>
        <time>2021-08-19T07:06:03Z</time>
      </trkpt>
      <trkpt lat="43.58448" lon="0.41014">
        <ele>143.37</ele>
        <time>2021-08-19T07:06:04Z</time>
      </trkpt>
      <trkpt lat="43.58436" lon="0.41023">
        <ele>143.37</ele>
        <time>2021-08-19T07:06:08Z</time>
      </trkpt>
      <trkpt lat="43.58432" lon="0.41025">
        <ele>143.37</ele>
        <time>2021-08-19T07:06:09Z</time>
      </trkpt>
      <trkpt lat="43.58427" lon="0.41026">
        <ele>143.37</ele>
        <time>2021-08-19T07:06:10Z</time>
      </trkpt>
      <trkpt lat="43.58422" lon="0.41027">
        <ele>143.37</ele>
        <time>2021-08-19T07:06:11Z</time>
      </trkpt>
      <trkpt lat="43.58416" lon="0.41026">
        <ele>143.37</ele>
        <time>2021-08-19T07:06:12Z</time>
      </trkpt>
      <trkpt lat="43.58366" lon="0.41025">
        <ele>141.93</ele>
        <time>2021-08-19T07:06:22Z</time>
      </trkpt>
      <trkpt lat="43.58331" lon="0.41025">
        <ele>144.34</ele>
        <time>2021-08-19T07:06:31Z</time>
      </trkpt>
      <trkpt lat="43.58306" lon="0.41025">
        <ele>145.78</ele>
        <time>2021-08-19T07:06:40Z</time>
      </trkpt>
      <trkpt lat="43.58278" lon="0.41025">
        <ele>147.22</ele>
        <time>2021-08-19T07:06:50Z</time>
      </trkpt>
      <trkpt lat="43.58241" lon="0.41023">
        <ele>148.66</ele>
        <time>2021-08-19T07:07:03Z</time>
      </trkpt>
      <trkpt lat="43.58212" lon="0.41015">
        <ele>149.14</ele>
        <time>2021-08-19T07:07:10Z</time>
      </trkpt>
      <trkpt lat="43.58203" lon="0.41012">
        <ele>147.7</ele>
        <time>2021-08-19T07:07:12Z</time>
      </trkpt>
      <trkpt lat="43.58161" lon="0.40994">
        <ele>144.82</ele>
        <time>2021-08-19T07:07:19Z</time>
      </trkpt>
      <trkpt lat="43.58088" lon="0.40957">
        <ele>142.41</ele>
        <time>2021-08-19T07:07:30Z</time>
      </trkpt>
      <trkpt lat="43.58082" lon="0.40952">
        <ele>142.41</ele>
        <time>2021-08-19T07:07:31Z</time>
      </trkpt>
      <trkpt lat="43.58044" lon="0.40923">
        <ele>142.41</ele>
        <time>2021-08-19T07:07:38Z</time>
      </trkpt>
      <trkpt lat="43.58012" lon="0.409">
        <ele>142.89</ele>
        <time>2021-08-19T07:07:45Z</time>
      </trkpt>
      <trkpt lat="43.57978" lon="0.40885">
        <ele>142.89</ele>
        <time>2021-08-19T07:07:52Z</time>
      </trkpt>
      <trkpt lat="43.57973" lon="0.40881">
        <ele>142.89</ele>
        <time>2021-08-19T07:07:53Z</time>
      </trkpt>
      <trkpt lat="43.5797" lon="0.40877">
        <ele>142.89</ele>
        <time>2021-08-19T07:07:54Z</time>
      </trkpt>
      <trkpt lat="43.57967" lon="0.40873">
        <ele>143.85</ele>
        <time>2021-08-19T07:07:55Z</time>
      </trkpt>
      <trkpt lat="43.57965" lon="0.40867">
        <ele>143.85</ele>
        <time>2021-08-19T07:07:56Z</time>
      </trkpt>
      <trkpt lat="43.57964" lon="0.40862">
        <ele>143.85</ele>
        <time>2021-08-19T07:07:57Z</time>
      </trkpt>
      <trkpt lat="43.57963" lon="0.40857">
        <ele>143.85</ele>
        <time>2021-08-19T07:07:58Z</time>
      </trkpt>
      <trkpt lat="43.57962" lon="0.40851">
        <ele>143.85</ele>
        <time>2021-08-19T07:07:59Z</time>
      </trkpt>
      <trkpt lat="43.57962" lon="0.40846">
        <ele>143.85</ele>
        <time>2021-08-19T07:08:00Z</time>
      </trkpt>
      <trkpt lat="43.57961" lon="0.4084">
        <ele>144.34</ele>
        <time>2021-08-19T07:08:01Z</time>
      </trkpt>
      <trkpt lat="43.5796" lon="0.40836">
        <ele>144.34</ele>
        <time>2021-08-19T07:08:02Z</time>
      </trkpt>
      <trkpt lat="43.57957" lon="0.40818">
        <ele>145.78</ele>
        <time>2021-08-19T07:08:08Z</time>
      </trkpt>
      <trkpt lat="43.57956" lon="0.40811">
        <ele>146.74</ele>
        <time>2021-08-19T07:08:13Z</time>
      </trkpt>
      <trkpt lat="43.57953" lon="0.40786">
        <ele>149.14</ele>
        <time>2021-08-19T07:08:26Z</time>
      </trkpt>
      <trkpt lat="43.57953" lon="0.40768">
        <ele>151.06</ele>
        <time>2021-08-19T07:08:36Z</time>
      </trkpt>
      <trkpt lat="43.57951" lon="0.4075">
        <ele>152.51</ele>
        <time>2021-08-19T07:08:45Z</time>
      </trkpt>
      <trkpt lat="43.5795" lon="0.40744">
        <ele>152.99</ele>
        <time>2021-08-19T07:08:48Z</time>
      </trkpt>
      <trkpt lat="43.57946" lon="0.40729">
        <ele>153.95</ele>
        <time>2021-08-19T07:08:54Z</time>
      </trkpt>
      <trkpt lat="43.57944" lon="0.40713">
        <ele>155.39</ele>
        <time>2021-08-19T07:09:00Z</time>
      </trkpt>
      <trkpt lat="43.57945" lon="0.40702">
        <ele>156.35</ele>
        <time>2021-08-19T07:09:07Z</time>
      </trkpt>
      <trkpt lat="43.57946" lon="0.40689">
        <ele>157.79</ele>
        <time>2021-08-19T07:09:18Z</time>
      </trkpt>
      <trkpt lat="43.57945" lon="0.40677">
        <ele>159.72</ele>
        <time>2021-08-19T07:09:28Z</time>
      </trkpt>
      <trkpt lat="43.57945" lon="0.40666">
        <ele>161.16</ele>
        <time>2021-08-19T07:09:37Z</time>
      </trkpt>
      <trkpt lat="43.57945" lon="0.40656">
        <ele>162.6</ele>
        <time>2021-08-19T07:09:46Z</time>
      </trkpt>
      <trkpt lat="43.57946" lon="0.40643">
        <ele>164.52</ele>
        <time>2021-08-19T07:09:57Z</time>
      </trkpt>
      <trkpt lat="43.57945" lon="0.40629">
        <ele>165.96</ele>
        <time>2021-08-19T07:10:07Z</time>
      </trkpt>
      <trkpt lat="43.57945" lon="0.40621">
        <ele>166.93</ele>
        <time>2021-08-19T07:10:15Z</time>
      </trkpt>
      <trkpt lat="43.57945" lon="0.40613">
        <ele>167.41</ele>
        <time>2021-08-19T07:10:22Z</time>
      </trkpt>
      <trkpt lat="43.57944" lon="0.40602">
        <ele>168.37</ele>
        <time>2021-08-19T07:10:28Z</time>
      </trkpt>
      <trkpt lat="43.5794" lon="0.40587">
        <ele>171.25</ele>
        <time>2021-08-19T07:10:37Z</time>
      </trkpt>
      <trkpt lat="43.57935" lon="0.40566">
        <ele>173.17</ele>
        <time>2021-08-19T07:10:48Z</time>
      </trkpt>
      <trkpt lat="43.57924" lon="0.40556">
        <ele>175.1</ele>
        <time>2021-08-19T07:10:57Z</time>
      </trkpt>
      <trkpt lat="43.57906" lon="0.40552">
        <ele>175.1</ele>
        <time>2021-08-19T07:11:06Z</time>
      </trkpt>
      <trkpt lat="43.57895" lon="0.40547">
        <ele>175.1</ele>
        <time>2021-08-19T07:11:09Z</time>
      </trkpt>
      <trkpt lat="43.57887" lon="0.40541">
        <ele>175.1</ele>
        <time>2021-08-19T07:11:11Z</time>
      </trkpt>
      <trkpt lat="43.57858" lon="0.40518">
        <ele>175.58</ele>
        <time>2021-08-19T07:11:20Z</time>
      </trkpt>
      <trkpt lat="43.57849" lon="0.40511">
        <ele>177.02</ele>
        <time>2021-08-19T07:11:26Z</time>
      </trkpt>
      <trkpt lat="43.57833" lon="0.40498">
        <ele>178.46</ele>
        <time>2021-08-19T07:11:36Z</time>
      </trkpt>
      <trkpt lat="43.57823" lon="0.40481">
        <ele>179.9</ele>
        <time>2021-08-19T07:11:44Z</time>
      </trkpt>
      <trkpt lat="43.57817" lon="0.40451">
        <ele>181.35</ele>
        <time>2021-08-19T07:11:54Z</time>
      </trkpt>
      <trkpt lat="43.5781" lon="0.40411">
        <ele>182.79</ele>
        <time>2021-08-19T07:12:05Z</time>
      </trkpt>
      <trkpt lat="43.57802" lon="0.40382">
        <ele>183.75</ele>
        <time>2021-08-19T07:12:13Z</time>
      </trkpt>
      <trkpt lat="43.57792" lon="0.40353">
        <ele>185.67</ele>
        <time>2021-08-19T07:12:23Z</time>
      </trkpt>
      <trkpt lat="43.57785" lon="0.40331">
        <ele>186.63</ele>
        <time>2021-08-19T07:12:30Z</time>
      </trkpt>
      <trkpt lat="43.57771" lon="0.40296">
        <ele>187.59</ele>
        <time>2021-08-19T07:12:40Z</time>
      </trkpt>
      <trkpt lat="43.57758" lon="0.40261">
        <ele>188.08</ele>
        <time>2021-08-19T07:12:49Z</time>
      </trkpt>
      <trkpt lat="43.57748" lon="0.40225">
        <ele>189.04</ele>
        <time>2021-08-19T07:12:58Z</time>
      </trkpt>
      <trkpt lat="43.57748" lon="0.40194">
        <ele>190</ele>
        <time>2021-08-19T07:13:05Z</time>
      </trkpt>
      <trkpt lat="43.57751" lon="0.40157">
        <ele>190.96</ele>
        <time>2021-08-19T07:13:13Z</time>
      </trkpt>
      <trkpt lat="43.57756" lon="0.40112">
        <ele>191.92</ele>
        <time>2021-08-19T07:13:23Z</time>
      </trkpt>
      <trkpt lat="43.57762" lon="0.40072">
        <ele>192.88</ele>
        <time>2021-08-19T07:13:33Z</time>
      </trkpt>
      <trkpt lat="43.57768" lon="0.40047">
        <ele>193.36</ele>
        <time>2021-08-19T07:13:39Z</time>
      </trkpt>
      <trkpt lat="43.57774" lon="0.40028">
        <ele>194.32</ele>
        <time>2021-08-19T07:13:45Z</time>
      </trkpt>
      <trkpt lat="43.57777" lon="0.40004">
        <ele>194.8</ele>
        <time>2021-08-19T07:13:52Z</time>
      </trkpt>
      <trkpt lat="43.57778" lon="0.39965">
        <ele>195.77</ele>
        <time>2021-08-19T07:14:01Z</time>
      </trkpt>
      <trkpt lat="43.5778" lon="0.39933">
        <ele>196.73</ele>
        <time>2021-08-19T07:14:11Z</time>
      </trkpt>
      <trkpt lat="43.57781" lon="0.39903">
        <ele>197.69</ele>
        <time>2021-08-19T07:14:20Z</time>
      </trkpt>
      <trkpt lat="43.5778" lon="0.39878">
        <ele>198.17</ele>
        <time>2021-08-19T07:14:27Z</time>
      </trkpt>
      <trkpt lat="43.57773" lon="0.39848">
        <ele>198.17</ele>
        <time>2021-08-19T07:14:34Z</time>
      </trkpt>
      <trkpt lat="43.57769" lon="0.39824">
        <ele>198.17</ele>
        <time>2021-08-19T07:14:41Z</time>
      </trkpt>
      <trkpt lat="43.57774" lon="0.39803">
        <ele>199.61</ele>
        <time>2021-08-19T07:14:48Z</time>
      </trkpt>
      <trkpt lat="43.57783" lon="0.39778">
        <ele>202.49</ele>
        <time>2021-08-19T07:14:57Z</time>
      </trkpt>
      <trkpt lat="43.57791" lon="0.39751">
        <ele>202.98</ele>
        <time>2021-08-19T07:15:05Z</time>
      </trkpt>
      <trkpt lat="43.578" lon="0.39716">
        <ele>203.94</ele>
        <time>2021-08-19T07:15:15Z</time>
      </trkpt>
      <trkpt lat="43.57808" lon="0.39687">
        <ele>204.42</ele>
        <time>2021-08-19T07:15:22Z</time>
      </trkpt>
      <trkpt lat="43.57818" lon="0.39651">
        <ele>204.9</ele>
        <time>2021-08-19T07:15:31Z</time>
      </trkpt>
      <trkpt lat="43.57826" lon="0.39623">
        <ele>205.38</ele>
        <time>2021-08-19T07:15:38Z</time>
      </trkpt>
      <trkpt lat="43.57831" lon="0.39597">
        <ele>205.86</ele>
        <time>2021-08-19T07:15:45Z</time>
      </trkpt>
      <trkpt lat="43.57837" lon="0.3957">
        <ele>206.34</ele>
        <time>2021-08-19T07:15:52Z</time>
      </trkpt>
      <trkpt lat="43.57847" lon="0.39539">
        <ele>206.82</ele>
        <time>2021-08-19T07:16:00Z</time>
      </trkpt>
      <trkpt lat="43.57854" lon="0.39511">
        <ele>207.78</ele>
        <time>2021-08-19T07:16:07Z</time>
      </trkpt>
      <trkpt lat="43.57862" lon="0.39471">
        <ele>209.22</ele>
        <time>2021-08-19T07:16:16Z</time>
      </trkpt>
      <trkpt lat="43.57874" lon="0.39431">
        <ele>209.7</ele>
        <time>2021-08-19T07:16:25Z</time>
      </trkpt>
      <trkpt lat="43.57887" lon="0.39391">
        <ele>210.67</ele>
        <time>2021-08-19T07:16:34Z</time>
      </trkpt>
      <trkpt lat="43.57898" lon="0.39354">
        <ele>212.11</ele>
        <time>2021-08-19T07:16:43Z</time>
      </trkpt>
      <trkpt lat="43.57909" lon="0.39327">
        <ele>213.55</ele>
        <time>2021-08-19T07:16:51Z</time>
      </trkpt>
      <trkpt lat="43.57916" lon="0.39307">
        <ele>214.03</ele>
        <time>2021-08-19T07:16:57Z</time>
      </trkpt>
      <trkpt lat="43.57918" lon="0.39305">
        <ele>214.03</ele>
        <time>2021-08-19T07:16:58Z</time>
      </trkpt>
      <trkpt lat="43.57925" lon="0.39289">
        <ele>214.99</ele>
        <time>2021-08-19T07:17:04Z</time>
      </trkpt>
      <trkpt lat="43.57931" lon="0.39273">
        <ele>216.43</ele>
        <time>2021-08-19T07:17:10Z</time>
      </trkpt>
      <trkpt lat="43.57936" lon="0.3925">
        <ele>217.88</ele>
        <time>2021-08-19T07:17:19Z</time>
      </trkpt>
      <trkpt lat="43.57942" lon="0.39226">
        <ele>219.32</ele>
        <time>2021-08-19T07:17:28Z</time>
      </trkpt>
      <trkpt lat="43.57947" lon="0.39206">
        <ele>219.8</ele>
        <time>2021-08-19T07:17:35Z</time>
      </trkpt>
      <trkpt lat="43.57955" lon="0.3919">
        <ele>220.28</ele>
        <time>2021-08-19T07:17:41Z</time>
      </trkpt>
      <trkpt lat="43.57966" lon="0.39165">
        <ele>221.24</ele>
        <time>2021-08-19T07:17:49Z</time>
      </trkpt>
      <trkpt lat="43.57975" lon="0.39138">
        <ele>222.2</ele>
        <time>2021-08-19T07:17:57Z</time>
      </trkpt>
      <trkpt lat="43.57983" lon="0.39107">
        <ele>222.68</ele>
        <time>2021-08-19T07:18:05Z</time>
      </trkpt>
      <trkpt lat="43.57989" lon="0.39073">
        <ele>223.64</ele>
        <time>2021-08-19T07:18:13Z</time>
      </trkpt>
      <trkpt lat="43.57994" lon="0.39048">
        <ele>224.12</ele>
        <time>2021-08-19T07:18:19Z</time>
      </trkpt>
      <trkpt lat="43.58" lon="0.39027">
        <ele>224.61</ele>
        <time>2021-08-19T07:18:25Z</time>
      </trkpt>
      <trkpt lat="43.58008" lon="0.38997">
        <ele>225.57</ele>
        <time>2021-08-19T07:18:33Z</time>
      </trkpt>
      <trkpt lat="43.58016" lon="0.38975">
        <ele>226.05</ele>
        <time>2021-08-19T07:18:39Z</time>
      </trkpt>
      <trkpt lat="43.5802" lon="0.38956">
        <ele>226.53</ele>
        <time>2021-08-19T07:18:44Z</time>
      </trkpt>
      <trkpt lat="43.58027" lon="0.38933">
        <ele>227.97</ele>
        <time>2021-08-19T07:18:51Z</time>
      </trkpt>
      <trkpt lat="43.58036" lon="0.38902">
        <ele>227.97</ele>
        <time>2021-08-19T07:18:58Z</time>
      </trkpt>
      <trkpt lat="43.58048" lon="0.38873">
        <ele>228.93</ele>
        <time>2021-08-19T07:19:05Z</time>
      </trkpt>
      <trkpt lat="43.58052" lon="0.38849">
        <ele>230.37</ele>
        <time>2021-08-19T07:19:11Z</time>
      </trkpt>
      <trkpt lat="43.58057" lon="0.38823">
        <ele>231.81</ele>
        <time>2021-08-19T07:19:20Z</time>
      </trkpt>
      <trkpt lat="43.58065" lon="0.38795">
        <ele>232.78</ele>
        <time>2021-08-19T07:19:28Z</time>
      </trkpt>
      <trkpt lat="43.58073" lon="0.3877">
        <ele>233.74</ele>
        <time>2021-08-19T07:19:35Z</time>
      </trkpt>
      <trkpt lat="43.58084" lon="0.38739">
        <ele>234.7</ele>
        <time>2021-08-19T07:19:43Z</time>
      </trkpt>
      <trkpt lat="43.58103" lon="0.387">
        <ele>234.7</ele>
        <time>2021-08-19T07:19:52Z</time>
      </trkpt>
      <trkpt lat="43.58116" lon="0.38674">
        <ele>235.18</ele>
        <time>2021-08-19T07:19:58Z</time>
      </trkpt>
      <trkpt lat="43.58133" lon="0.38635">
        <ele>235.18</ele>
        <time>2021-08-19T07:20:06Z</time>
      </trkpt>
      <trkpt lat="43.58154" lon="0.38591">
        <ele>236.14</ele>
        <time>2021-08-19T07:20:16Z</time>
      </trkpt>
      <trkpt lat="43.58163" lon="0.38571">
        <ele>237.1</ele>
        <time>2021-08-19T07:20:22Z</time>
      </trkpt>
      <trkpt lat="43.58176" lon="0.38545">
        <ele>239.02</ele>
        <time>2021-08-19T07:20:31Z</time>
      </trkpt>
      <trkpt lat="43.58186" lon="0.38524">
        <ele>239.99</ele>
        <time>2021-08-19T07:20:37Z</time>
      </trkpt>
      <trkpt lat="43.58201" lon="0.38485">
        <ele>240.47</ele>
        <time>2021-08-19T07:20:46Z</time>
      </trkpt>
      <trkpt lat="43.5822" lon="0.38443">
        <ele>239.99</ele>
        <time>2021-08-19T07:20:56Z</time>
      </trkpt>
      <trkpt lat="43.58221" lon="0.38437">
        <ele>239.99</ele>
        <time>2021-08-19T07:20:57Z</time>
      </trkpt>
      <trkpt lat="43.58221" lon="0.38433">
        <ele>239.99</ele>
        <time>2021-08-19T07:20:58Z</time>
      </trkpt>
      <trkpt lat="43.5822" lon="0.38429">
        <ele>239.99</ele>
        <time>2021-08-19T07:20:59Z</time>
      </trkpt>
      <trkpt lat="43.58214" lon="0.38404">
        <ele>240.47</ele>
        <time>2021-08-19T07:21:05Z</time>
      </trkpt>
      <trkpt lat="43.58205" lon="0.38372">
        <ele>239.02</ele>
        <time>2021-08-19T07:21:11Z</time>
      </trkpt>
      <trkpt lat="43.58194" lon="0.38328">
        <ele>236.14</ele>
        <time>2021-08-19T07:21:17Z</time>
      </trkpt>
      <trkpt lat="43.58192" lon="0.3832">
        <ele>236.14</ele>
        <time>2021-08-19T07:21:18Z</time>
      </trkpt>
      <trkpt lat="43.58187" lon="0.38292">
        <ele>234.7</ele>
        <time>2021-08-19T07:21:21Z</time>
      </trkpt>
      <trkpt lat="43.58175" lon="0.38213">
        <ele>232.3</ele>
        <time>2021-08-19T07:21:29Z</time>
      </trkpt>
      <trkpt lat="43.58172" lon="0.38185">
        <ele>231.81</ele>
        <time>2021-08-19T07:21:32Z</time>
      </trkpt>
      <trkpt lat="43.58172" lon="0.3818">
        <ele>231.81</ele>
        <time>2021-08-19T07:21:33Z</time>
      </trkpt>
      <trkpt lat="43.58174" lon="0.38173">
        <ele>231.81</ele>
        <time>2021-08-19T07:21:36Z</time>
      </trkpt>
      <trkpt lat="43.58174" lon="0.38171">
        <ele>231.81</ele>
        <time>2021-08-19T07:21:37Z</time>
      </trkpt>
      <trkpt lat="43.58175" lon="0.38169">
        <ele>231.81</ele>
        <time>2021-08-19T07:21:38Z</time>
      </trkpt>
      <trkpt lat="43.58186" lon="0.3815">
        <ele>229.89</ele>
        <time>2021-08-19T07:21:43Z</time>
      </trkpt>
      <trkpt lat="43.58195" lon="0.38135">
        <ele>227.97</ele>
        <time>2021-08-19T07:21:46Z</time>
      </trkpt>
      <trkpt lat="43.58197" lon="0.38128">
        <ele>227.49</ele>
        <time>2021-08-19T07:21:47Z</time>
      </trkpt>
      <trkpt lat="43.58199" lon="0.38121">
        <ele>227.49</ele>
        <time>2021-08-19T07:21:48Z</time>
      </trkpt>
      <trkpt lat="43.58201" lon="0.38113">
        <ele>227.01</ele>
        <time>2021-08-19T07:21:49Z</time>
      </trkpt>
      <trkpt lat="43.58203" lon="0.38105">
        <ele>227.01</ele>
        <time>2021-08-19T07:21:50Z</time>
      </trkpt>
      <trkpt lat="43.58203" lon="0.38097">
        <ele>227.01</ele>
        <time>2021-08-19T07:21:51Z</time>
      </trkpt>
      <trkpt lat="43.58203" lon="0.38089">
        <ele>227.01</ele>
        <time>2021-08-19T07:21:52Z</time>
      </trkpt>
      <trkpt lat="43.58203" lon="0.38082">
        <ele>227.01</ele>
        <time>2021-08-19T07:21:53Z</time>
      </trkpt>
      <trkpt lat="43.58203" lon="0.38075">
        <ele>227.01</ele>
        <time>2021-08-19T07:21:54Z</time>
      </trkpt>
      <trkpt lat="43.58204" lon="0.38069">
        <ele>227.01</ele>
        <time>2021-08-19T07:21:55Z</time>
      </trkpt>
      <trkpt lat="43.58206" lon="0.38064">
        <ele>227.01</ele>
        <time>2021-08-19T07:21:56Z</time>
      </trkpt>
      <trkpt lat="43.58209" lon="0.38061">
        <ele>226.53</ele>
        <time>2021-08-19T07:21:57Z</time>
      </trkpt>
      <trkpt lat="43.58213" lon="0.38058">
        <ele>225.09</ele>
        <time>2021-08-19T07:21:58Z</time>
      </trkpt>
      <trkpt lat="43.58217" lon="0.38055">
        <ele>224.61</ele>
        <time>2021-08-19T07:21:59Z</time>
      </trkpt>
      <trkpt lat="43.58221" lon="0.38049">
        <ele>223.64</ele>
        <time>2021-08-19T07:22:00Z</time>
      </trkpt>
      <trkpt lat="43.58225" lon="0.38042">
        <ele>222.68</ele>
        <time>2021-08-19T07:22:01Z</time>
      </trkpt>
      <trkpt lat="43.58238" lon="0.38002">
        <ele>218.84</ele>
        <time>2021-08-19T07:22:05Z</time>
      </trkpt>
      <trkpt lat="43.58257" lon="0.37951">
        <ele>214.99</ele>
        <time>2021-08-19T07:22:10Z</time>
      </trkpt>
      <trkpt lat="43.5827" lon="0.37918">
        <ele>213.55</ele>
        <time>2021-08-19T07:22:13Z</time>
      </trkpt>
      <trkpt lat="43.58278" lon="0.37897">
        <ele>212.11</ele>
        <time>2021-08-19T07:22:15Z</time>
      </trkpt>
      <trkpt lat="43.58303" lon="0.37835">
        <ele>209.22</ele>
        <time>2021-08-19T07:22:21Z</time>
      </trkpt>
      <trkpt lat="43.58318" lon="0.37795">
        <ele>207.3</ele>
        <time>2021-08-19T07:22:26Z</time>
      </trkpt>
      <trkpt lat="43.5832" lon="0.37789">
        <ele>207.3</ele>
        <time>2021-08-19T07:22:27Z</time>
      </trkpt>
      <trkpt lat="43.58332" lon="0.37763">
        <ele>202.49</ele>
        <time>2021-08-19T07:22:31Z</time>
      </trkpt>
      <trkpt lat="43.58344" lon="0.37733">
        <ele>199.13</ele>
        <time>2021-08-19T07:22:35Z</time>
      </trkpt>
      <trkpt lat="43.58347" lon="0.37725">
        <ele>198.17</ele>
        <time>2021-08-19T07:22:36Z</time>
      </trkpt>
      <trkpt lat="43.5835" lon="0.37709">
        <ele>195.77</ele>
        <time>2021-08-19T07:22:38Z</time>
      </trkpt>
      <trkpt lat="43.5835" lon="0.377">
        <ele>195.28</ele>
        <time>2021-08-19T07:22:39Z</time>
      </trkpt>
      <trkpt lat="43.58349" lon="0.37689">
        <ele>194.32</ele>
        <time>2021-08-19T07:22:40Z</time>
      </trkpt>
      <trkpt lat="43.58347" lon="0.3768">
        <ele>193.84</ele>
        <time>2021-08-19T07:22:41Z</time>
      </trkpt>
      <trkpt lat="43.58344" lon="0.37668">
        <ele>193.36</ele>
        <time>2021-08-19T07:22:42Z</time>
      </trkpt>
      <trkpt lat="43.58336" lon="0.37624">
        <ele>190</ele>
        <time>2021-08-19T07:22:46Z</time>
      </trkpt>
      <trkpt lat="43.58334" lon="0.37612">
        <ele>190</ele>
        <time>2021-08-19T07:22:47Z</time>
      </trkpt>
      <trkpt lat="43.58328" lon="0.37567">
        <ele>188.56</ele>
        <time>2021-08-19T07:22:51Z</time>
      </trkpt>
      <trkpt lat="43.58328" lon="0.37559">
        <ele>189.04</ele>
        <time>2021-08-19T07:22:52Z</time>
      </trkpt>
      <trkpt lat="43.58329" lon="0.37541">
        <ele>188.08</ele>
        <time>2021-08-19T07:22:54Z</time>
      </trkpt>
      <trkpt lat="43.5833" lon="0.37473">
        <ele>185.67</ele>
        <time>2021-08-19T07:23:01Z</time>
      </trkpt>
      <trkpt lat="43.58331" lon="0.37464">
        <ele>185.67</ele>
        <time>2021-08-19T07:23:02Z</time>
      </trkpt>
      <trkpt lat="43.58331" lon="0.37455">
        <ele>185.67</ele>
        <time>2021-08-19T07:23:03Z</time>
      </trkpt>
      <trkpt lat="43.58334" lon="0.37436">
        <ele>185.67</ele>
        <time>2021-08-19T07:23:05Z</time>
      </trkpt>
      <trkpt lat="43.58336" lon="0.37429">
        <ele>185.67</ele>
        <time>2021-08-19T07:23:06Z</time>
      </trkpt>
      <trkpt lat="43.58338" lon="0.37413">
        <ele>185.67</ele>
        <time>2021-08-19T07:23:08Z</time>
      </trkpt>
      <trkpt lat="43.58345" lon="0.37387">
        <ele>185.19</ele>
        <time>2021-08-19T07:23:11Z</time>
      </trkpt>
      <trkpt lat="43.58352" lon="0.37316">
        <ele>183.75</ele>
        <time>2021-08-19T07:23:19Z</time>
      </trkpt>
      <trkpt lat="43.5835" lon="0.37253">
        <ele>181.35</ele>
        <time>2021-08-19T07:23:26Z</time>
      </trkpt>
      <trkpt lat="43.58351" lon="0.3718">
        <ele>178.94</ele>
        <time>2021-08-19T07:23:33Z</time>
      </trkpt>
      <trkpt lat="43.5835" lon="0.37109">
        <ele>178.94</ele>
        <time>2021-08-19T07:23:41Z</time>
      </trkpt>
      <trkpt lat="43.5835" lon="0.37087">
        <ele>178.46</ele>
        <time>2021-08-19T07:23:44Z</time>
      </trkpt>
      <trkpt lat="43.58351" lon="0.37072">
        <ele>177.98</ele>
        <time>2021-08-19T07:23:46Z</time>
      </trkpt>
      <trkpt lat="43.58349" lon="0.37033">
        <ele>177.5</ele>
        <time>2021-08-19T07:23:51Z</time>
      </trkpt>
      <trkpt lat="43.58346" lon="0.36979">
        <ele>177.02</ele>
        <time>2021-08-19T07:23:59Z</time>
      </trkpt>
      <trkpt lat="43.58344" lon="0.36935">
        <ele>175.58</ele>
        <time>2021-08-19T07:24:06Z</time>
      </trkpt>
      <trkpt lat="43.58342" lon="0.36891">
        <ele>171.25</ele>
        <time>2021-08-19T07:24:10Z</time>
      </trkpt>
      <trkpt lat="43.58342" lon="0.36882">
        <ele>171.25</ele>
        <time>2021-08-19T07:24:11Z</time>
      </trkpt>
      <trkpt lat="43.58342" lon="0.36871">
        <ele>171.25</ele>
        <time>2021-08-19T07:24:12Z</time>
      </trkpt>
      <trkpt lat="43.58344" lon="0.3681">
        <ele>169.81</ele>
        <time>2021-08-19T07:24:18Z</time>
      </trkpt>
      <trkpt lat="43.58345" lon="0.3679">
        <ele>168.37</ele>
        <time>2021-08-19T07:24:20Z</time>
      </trkpt>
      <trkpt lat="43.58344" lon="0.36782">
        <ele>167.89</ele>
        <time>2021-08-19T07:24:21Z</time>
      </trkpt>
      <trkpt lat="43.58342" lon="0.36775">
        <ele>167.89</ele>
        <time>2021-08-19T07:24:22Z</time>
      </trkpt>
      <trkpt lat="43.58339" lon="0.36769">
        <ele>167.89</ele>
        <time>2021-08-19T07:24:23Z</time>
      </trkpt>
      <trkpt lat="43.58336" lon="0.36764">
        <ele>167.89</ele>
        <time>2021-08-19T07:24:24Z</time>
      </trkpt>
      <trkpt lat="43.58332" lon="0.3676">
        <ele>167.41</ele>
        <time>2021-08-19T07:24:25Z</time>
      </trkpt>
      <trkpt lat="43.58328" lon="0.36757">
        <ele>166.45</ele>
        <time>2021-08-19T07:24:26Z</time>
      </trkpt>
      <trkpt lat="43.58323" lon="0.36756">
        <ele>166.45</ele>
        <time>2021-08-19T07:24:27Z</time>
      </trkpt>
      <trkpt lat="43.58316" lon="0.36754">
        <ele>165.48</ele>
        <time>2021-08-19T07:24:28Z</time>
      </trkpt>
      <trkpt lat="43.58307" lon="0.3675">
        <ele>165.48</ele>
        <time>2021-08-19T07:24:30Z</time>
      </trkpt>
      <trkpt lat="43.58302" lon="0.36746">
        <ele>165.48</ele>
        <time>2021-08-19T07:24:31Z</time>
      </trkpt>
      <trkpt lat="43.58291" lon="0.36729">
        <ele>165</ele>
        <time>2021-08-19T07:24:34Z</time>
      </trkpt>
      <trkpt lat="43.58276" lon="0.36702">
        <ele>165</ele>
        <time>2021-08-19T07:24:39Z</time>
      </trkpt>
      <trkpt lat="43.58274" lon="0.36696">
        <ele>165</ele>
        <time>2021-08-19T07:24:40Z</time>
      </trkpt>
      <trkpt lat="43.58272" lon="0.3669">
        <ele>165</ele>
        <time>2021-08-19T07:24:41Z</time>
      </trkpt>
      <trkpt lat="43.58271" lon="0.36685">
        <ele>165</ele>
        <time>2021-08-19T07:24:42Z</time>
      </trkpt>
      <trkpt lat="43.5827" lon="0.36679">
        <ele>165</ele>
        <time>2021-08-19T07:24:43Z</time>
      </trkpt>
      <trkpt lat="43.58265" lon="0.36652">
        <ele>164.52</ele>
        <time>2021-08-19T07:24:49Z</time>
      </trkpt>
      <trkpt lat="43.58262" lon="0.36631">
        <ele>164.52</ele>
        <time>2021-08-19T07:24:55Z</time>
      </trkpt>
      <trkpt lat="43.58259" lon="0.36603">
        <ele>165.96</ele>
        <time>2021-08-19T07:25:04Z</time>
      </trkpt>
      <trkpt lat="43.58263" lon="0.36585">
        <ele>166.93</ele>
        <time>2021-08-19T07:25:10Z</time>
      </trkpt>
      <trkpt lat="43.58258" lon="0.36565">
        <ele>167.89</ele>
        <time>2021-08-19T07:25:17Z</time>
      </trkpt>
      <trkpt lat="43.5825" lon="0.36531">
        <ele>169.33</ele>
        <time>2021-08-19T07:25:28Z</time>
      </trkpt>
      <trkpt lat="43.58246" lon="0.36504">
        <ele>170.77</ele>
        <time>2021-08-19T07:25:38Z</time>
      </trkpt>
      <trkpt lat="43.58242" lon="0.36479">
        <ele>172.21</ele>
        <time>2021-08-19T07:25:47Z</time>
      </trkpt>
      <trkpt lat="43.58238" lon="0.36455">
        <ele>173.66</ele>
        <time>2021-08-19T07:25:56Z</time>
      </trkpt>
      <trkpt lat="43.58233" lon="0.3642">
        <ele>175.1</ele>
        <time>2021-08-19T07:26:09Z</time>
      </trkpt>
      <trkpt lat="43.58231" lon="0.36389">
        <ele>176.54</ele>
        <time>2021-08-19T07:26:20Z</time>
      </trkpt>
      <trkpt lat="43.58229" lon="0.36356">
        <ele>177.02</ele>
        <time>2021-08-19T07:26:30Z</time>
      </trkpt>
      <trkpt lat="43.58228" lon="0.36323">
        <ele>177.5</ele>
        <time>2021-08-19T07:26:39Z</time>
      </trkpt>
      <trkpt lat="43.58227" lon="0.36284">
        <ele>178.46</ele>
        <time>2021-08-19T07:26:50Z</time>
      </trkpt>
      <trkpt lat="43.58226" lon="0.36254">
        <ele>178.94</ele>
        <time>2021-08-19T07:26:59Z</time>
      </trkpt>
      <trkpt lat="43.58224" lon="0.36226">
        <ele>179.42</ele>
        <time>2021-08-19T07:27:07Z</time>
      </trkpt>
      <trkpt lat="43.58224" lon="0.36197">
        <ele>180.87</ele>
        <time>2021-08-19T07:27:16Z</time>
      </trkpt>
      <trkpt lat="43.58224" lon="0.36163">
        <ele>181.83</ele>
        <time>2021-08-19T07:27:26Z</time>
      </trkpt>
      <trkpt lat="43.58224" lon="0.36131">
        <ele>182.79</ele>
        <time>2021-08-19T07:27:36Z</time>
      </trkpt>
      <trkpt lat="43.58224" lon="0.36102">
        <ele>184.23</ele>
        <time>2021-08-19T07:27:46Z</time>
      </trkpt>
      <trkpt lat="43.58224" lon="0.36076">
        <ele>186.15</ele>
        <time>2021-08-19T07:27:56Z</time>
      </trkpt>
      <trkpt lat="43.58224" lon="0.36051">
        <ele>187.11</ele>
        <time>2021-08-19T07:28:05Z</time>
      </trkpt>
      <trkpt lat="43.58221" lon="0.36025">
        <ele>188.08</ele>
        <time>2021-08-19T07:28:14Z</time>
      </trkpt>
      <trkpt lat="43.58218" lon="0.36018">
        <ele>188.56</ele>
        <time>2021-08-19T07:28:17Z</time>
      </trkpt>
      <trkpt lat="43.58217" lon="0.36016">
        <ele>188.56</ele>
        <time>2021-08-19T07:28:18Z</time>
      </trkpt>
      <trkpt lat="43.58217" lon="0.36013">
        <ele>189.04</ele>
        <time>2021-08-19T07:28:19Z</time>
      </trkpt>
      <trkpt lat="43.58217" lon="0.3601">
        <ele>189.04</ele>
        <time>2021-08-19T07:28:20Z</time>
      </trkpt>
      <trkpt lat="43.58217" lon="0.36007">
        <ele>189.04</ele>
        <time>2021-08-19T07:28:21Z</time>
      </trkpt>
      <trkpt lat="43.58217" lon="0.36004">
        <ele>189.04</ele>
        <time>2021-08-19T07:28:22Z</time>
      </trkpt>
      <trkpt lat="43.58216" lon="0.36002">
        <ele>189.04</ele>
        <time>2021-08-19T07:28:23Z</time>
      </trkpt>
      <trkpt lat="43.58216" lon="0.35999">
        <ele>189.04</ele>
        <time>2021-08-19T07:28:24Z</time>
      </trkpt>
      <trkpt lat="43.58204" lon="0.35974">
        <ele>190.48</ele>
        <time>2021-08-19T07:28:34Z</time>
      </trkpt>
      <trkpt lat="43.58194" lon="0.35957">
        <ele>190.48</ele>
        <time>2021-08-19T07:28:40Z</time>
      </trkpt>
      <trkpt lat="43.58185" lon="0.35944">
        <ele>191.44</ele>
        <time>2021-08-19T07:28:44Z</time>
      </trkpt>
      <trkpt lat="43.58184" lon="0.35939">
        <ele>191.44</ele>
        <time>2021-08-19T07:28:46Z</time>
      </trkpt>
      <trkpt lat="43.58183" lon="0.35937">
        <ele>191.44</ele>
        <time>2021-08-19T07:28:47Z</time>
      </trkpt>
      <trkpt lat="43.58182" lon="0.35934">
        <ele>191.44</ele>
        <time>2021-08-19T07:28:48Z</time>
      </trkpt>
      <trkpt lat="43.5818" lon="0.35931">
        <ele>191.92</ele>
        <time>2021-08-19T07:28:49Z</time>
      </trkpt>
      <trkpt lat="43.5818" lon="0.35929">
        <ele>191.92</ele>
        <time>2021-08-19T07:28:50Z</time>
      </trkpt>
      <trkpt lat="43.58179" lon="0.35926">
        <ele>192.4</ele>
        <time>2021-08-19T07:28:51Z</time>
      </trkpt>
      <trkpt lat="43.58178" lon="0.35923">
        <ele>192.4</ele>
        <time>2021-08-19T07:28:52Z</time>
      </trkpt>
      <trkpt lat="43.58176" lon="0.35921">
        <ele>192.4</ele>
        <time>2021-08-19T07:28:53Z</time>
      </trkpt>
      <trkpt lat="43.58175" lon="0.35918">
        <ele>192.4</ele>
        <time>2021-08-19T07:28:54Z</time>
      </trkpt>
      <trkpt lat="43.58161" lon="0.35892">
        <ele>193.84</ele>
        <time>2021-08-19T07:29:04Z</time>
      </trkpt>
      <trkpt lat="43.58156" lon="0.35876">
        <ele>193.84</ele>
        <time>2021-08-19T07:29:10Z</time>
      </trkpt>
      <trkpt lat="43.58145" lon="0.35865">
        <ele>194.32</ele>
        <time>2021-08-19T07:29:16Z</time>
      </trkpt>
      <trkpt lat="43.58136" lon="0.35855">
        <ele>194.32</ele>
        <time>2021-08-19T07:29:22Z</time>
      </trkpt>
      <trkpt lat="43.58123" lon="0.35839">
        <ele>195.28</ele>
        <time>2021-08-19T07:29:31Z</time>
      </trkpt>
      <trkpt lat="43.58111" lon="0.35822">
        <ele>197.21</ele>
        <time>2021-08-19T07:29:40Z</time>
      </trkpt>
      <trkpt lat="43.58098" lon="0.35808">
        <ele>198.17</ele>
        <time>2021-08-19T07:29:49Z</time>
      </trkpt>
      <trkpt lat="43.58085" lon="0.35789">
        <ele>199.13</ele>
        <time>2021-08-19T07:29:58Z</time>
      </trkpt>
      <trkpt lat="43.58075" lon="0.35764">
        <ele>199.61</ele>
        <time>2021-08-19T07:30:06Z</time>
      </trkpt>
      <trkpt lat="43.58066" lon="0.35736">
        <ele>200.09</ele>
        <time>2021-08-19T07:30:15Z</time>
      </trkpt>
      <trkpt lat="43.58061" lon="0.35703">
        <ele>201.53</ele>
        <time>2021-08-19T07:30:25Z</time>
      </trkpt>
      <trkpt lat="43.5806" lon="0.35679">
        <ele>202.49</ele>
        <time>2021-08-19T07:30:34Z</time>
      </trkpt>
      <trkpt lat="43.5806" lon="0.35664">
        <ele>203.94</ele>
        <time>2021-08-19T07:30:42Z</time>
      </trkpt>
      <trkpt lat="43.58056" lon="0.35646">
        <ele>205.38</ele>
        <time>2021-08-19T07:30:50Z</time>
      </trkpt>
      <trkpt lat="43.58053" lon="0.35629">
        <ele>206.34</ele>
        <time>2021-08-19T07:30:58Z</time>
      </trkpt>
      <trkpt lat="43.58049" lon="0.35604">
        <ele>207.78</ele>
        <time>2021-08-19T07:31:08Z</time>
      </trkpt>
      <trkpt lat="43.58047" lon="0.35588">
        <ele>208.26</ele>
        <time>2021-08-19T07:31:15Z</time>
      </trkpt>
      <trkpt lat="43.58046" lon="0.35572">
        <ele>209.7</ele>
        <time>2021-08-19T07:31:22Z</time>
      </trkpt>
      <trkpt lat="43.58046" lon="0.3555">
        <ele>211.15</ele>
        <time>2021-08-19T07:31:31Z</time>
      </trkpt>
      <trkpt lat="43.58044" lon="0.35537">
        <ele>212.59</ele>
        <time>2021-08-19T07:31:38Z</time>
      </trkpt>
      <trkpt lat="43.5804" lon="0.35525">
        <ele>213.55</ele>
        <time>2021-08-19T07:31:44Z</time>
      </trkpt>
      <trkpt lat="43.58034" lon="0.3551">
        <ele>214.99</ele>
        <time>2021-08-19T07:31:52Z</time>
      </trkpt>
      <trkpt lat="43.58025" lon="0.35497">
        <ele>215.95</ele>
        <time>2021-08-19T07:32:00Z</time>
      </trkpt>
      <trkpt lat="43.58021" lon="0.35488">
        <ele>217.4</ele>
        <time>2021-08-19T07:32:06Z</time>
      </trkpt>
      <trkpt lat="43.58018" lon="0.35487">
        <ele>217.88</ele>
        <time>2021-08-19T07:32:13Z</time>
      </trkpt>
      <trkpt lat="43.58015" lon="0.35485">
        <ele>218.36</ele>
        <time>2021-08-19T07:32:29Z</time>
      </trkpt>
      <trkpt lat="43.58013" lon="0.35475">
        <ele>219.32</ele>
        <time>2021-08-19T07:32:37Z</time>
      </trkpt>
      <trkpt lat="43.58013" lon="0.35474">
        <ele>219.32</ele>
        <time>2021-08-19T07:32:38Z</time>
      </trkpt>
      <trkpt lat="43.58012" lon="0.35472">
        <ele>219.8</ele>
        <time>2021-08-19T07:32:39Z</time>
      </trkpt>
      <trkpt lat="43.58009" lon="0.35458">
        <ele>220.76</ele>
        <time>2021-08-19T07:32:48Z</time>
      </trkpt>
      <trkpt lat="43.58006" lon="0.35448">
        <ele>222.2</ele>
        <time>2021-08-19T07:32:56Z</time>
      </trkpt>
      <trkpt lat="43.58005" lon="0.35438">
        <ele>223.16</ele>
        <time>2021-08-19T07:33:03Z</time>
      </trkpt>
      <trkpt lat="43.58004" lon="0.35436">
        <ele>223.16</ele>
        <time>2021-08-19T07:33:04Z</time>
      </trkpt>
      <trkpt lat="43.58002" lon="0.35422">
        <ele>224.12</ele>
        <time>2021-08-19T07:33:12Z</time>
      </trkpt>
      <trkpt lat="43.58" lon="0.3541">
        <ele>226.05</ele>
        <time>2021-08-19T07:33:20Z</time>
      </trkpt>
      <trkpt lat="43.57998" lon="0.354">
        <ele>227.01</ele>
        <time>2021-08-19T07:33:28Z</time>
      </trkpt>
      <trkpt lat="43.57995" lon="0.35392">
        <ele>227.49</ele>
        <time>2021-08-19T07:33:35Z</time>
      </trkpt>
      <trkpt lat="43.57994" lon="0.35382">
        <ele>228.45</ele>
        <time>2021-08-19T07:33:43Z</time>
      </trkpt>
      <trkpt lat="43.57991" lon="0.35376">
        <ele>229.41</ele>
        <time>2021-08-19T07:33:49Z</time>
      </trkpt>
      <trkpt lat="43.5799" lon="0.35371">
        <ele>229.89</ele>
        <time>2021-08-19T07:33:58Z</time>
      </trkpt>
      <trkpt lat="43.57989" lon="0.35362">
        <ele>231.33</ele>
        <time>2021-08-19T07:34:06Z</time>
      </trkpt>
      <trkpt lat="43.57987" lon="0.35353">
        <ele>232.3</ele>
        <time>2021-08-19T07:34:14Z</time>
      </trkpt>
      <trkpt lat="43.57985" lon="0.35342">
        <ele>233.74</ele>
        <time>2021-08-19T07:34:22Z</time>
      </trkpt>
      <trkpt lat="43.57983" lon="0.3533">
        <ele>234.7</ele>
        <time>2021-08-19T07:34:30Z</time>
      </trkpt>
      <trkpt lat="43.57981" lon="0.35317">
        <ele>236.14</ele>
        <time>2021-08-19T07:34:39Z</time>
      </trkpt>
      <trkpt lat="43.57979" lon="0.35304">
        <ele>237.58</ele>
        <time>2021-08-19T07:34:47Z</time>
      </trkpt>
      <trkpt lat="43.57978" lon="0.35295">
        <ele>238.06</ele>
        <time>2021-08-19T07:34:56Z</time>
      </trkpt>
      <trkpt lat="43.57978" lon="0.35281">
        <ele>238.06</ele>
        <time>2021-08-19T07:35:02Z</time>
      </trkpt>
      <trkpt lat="43.57978" lon="0.35277">
        <ele>238.06</ele>
        <time>2021-08-19T07:35:03Z</time>
      </trkpt>
      <trkpt lat="43.57978" lon="0.35273">
        <ele>238.06</ele>
        <time>2021-08-19T07:35:04Z</time>
      </trkpt>
      <trkpt lat="43.57978" lon="0.35268">
        <ele>237.1</ele>
        <time>2021-08-19T07:35:05Z</time>
      </trkpt>
      <trkpt lat="43.5798" lon="0.35247">
        <ele>235.18</ele>
        <time>2021-08-19T07:35:08Z</time>
      </trkpt>
      <trkpt lat="43.5798" lon="0.35239">
        <ele>234.7</ele>
        <time>2021-08-19T07:35:09Z</time>
      </trkpt>
      <trkpt lat="43.5798" lon="0.35229">
        <ele>233.74</ele>
        <time>2021-08-19T07:35:10Z</time>
      </trkpt>
      <trkpt lat="43.5798" lon="0.3522">
        <ele>233.26</ele>
        <time>2021-08-19T07:35:11Z</time>
      </trkpt>
      <trkpt lat="43.57979" lon="0.35212">
        <ele>232.78</ele>
        <time>2021-08-19T07:35:12Z</time>
      </trkpt>
      <trkpt lat="43.57977" lon="0.35203">
        <ele>232.3</ele>
        <time>2021-08-19T07:35:13Z</time>
      </trkpt>
      <trkpt lat="43.57976" lon="0.35194">
        <ele>231.33</ele>
        <time>2021-08-19T07:35:14Z</time>
      </trkpt>
      <trkpt lat="43.57975" lon="0.35185">
        <ele>231.33</ele>
        <time>2021-08-19T07:35:15Z</time>
      </trkpt>
      <trkpt lat="43.57972" lon="0.35168">
        <ele>230.37</ele>
        <time>2021-08-19T07:35:17Z</time>
      </trkpt>
      <trkpt lat="43.57963" lon="0.35123">
        <ele>227.01</ele>
        <time>2021-08-19T07:35:23Z</time>
      </trkpt>
      <trkpt lat="43.57961" lon="0.35116">
        <ele>227.01</ele>
        <time>2021-08-19T07:35:24Z</time>
      </trkpt>
      <trkpt lat="43.57954" lon="0.35087">
        <ele>224.12</ele>
        <time>2021-08-19T07:35:28Z</time>
      </trkpt>
      <trkpt lat="43.57951" lon="0.35079">
        <ele>223.64</ele>
        <time>2021-08-19T07:35:29Z</time>
      </trkpt>
      <trkpt lat="43.57946" lon="0.35057">
        <ele>222.2</ele>
        <time>2021-08-19T07:35:32Z</time>
      </trkpt>
      <trkpt lat="43.5794" lon="0.35041">
        <ele>220.76</ele>
        <time>2021-08-19T07:35:35Z</time>
      </trkpt>
      <trkpt lat="43.57933" lon="0.35025">
        <ele>218.36</ele>
        <time>2021-08-19T07:35:40Z</time>
      </trkpt>
      <trkpt lat="43.57925" lon="0.35008">
        <ele>215.47</ele>
        <time>2021-08-19T07:35:44Z</time>
      </trkpt>
      <trkpt lat="43.57922" lon="0.35002">
        <ele>214.51</ele>
        <time>2021-08-19T07:35:45Z</time>
      </trkpt>
      <trkpt lat="43.57919" lon="0.34997">
        <ele>213.55</ele>
        <time>2021-08-19T07:35:46Z</time>
      </trkpt>
      <trkpt lat="43.57916" lon="0.34991">
        <ele>213.07</ele>
        <time>2021-08-19T07:35:47Z</time>
      </trkpt>
      <trkpt lat="43.57913" lon="0.34984">
        <ele>212.11</ele>
        <time>2021-08-19T07:35:48Z</time>
      </trkpt>
      <trkpt lat="43.57908" lon="0.3497">
        <ele>211.15</ele>
        <time>2021-08-19T07:35:50Z</time>
      </trkpt>
      <trkpt lat="43.57906" lon="0.34963">
        <ele>211.15</ele>
        <time>2021-08-19T07:35:51Z</time>
      </trkpt>
      <trkpt lat="43.57901" lon="0.34947">
        <ele>209.7</ele>
        <time>2021-08-19T07:35:54Z</time>
      </trkpt>
      <trkpt lat="43.579" lon="0.34942">
        <ele>208.74</ele>
        <time>2021-08-19T07:35:55Z</time>
      </trkpt>
      <trkpt lat="43.57898" lon="0.34937">
        <ele>208.26</ele>
        <time>2021-08-19T07:35:56Z</time>
      </trkpt>
      <trkpt lat="43.57897" lon="0.34933">
        <ele>207.3</ele>
        <time>2021-08-19T07:35:57Z</time>
      </trkpt>
      <trkpt lat="43.57895" lon="0.34928">
        <ele>206.82</ele>
        <time>2021-08-19T07:35:58Z</time>
      </trkpt>
      <trkpt lat="43.57892" lon="0.34922">
        <ele>205.86</ele>
        <time>2021-08-19T07:35:59Z</time>
      </trkpt>
      <trkpt lat="43.57889" lon="0.34916">
        <ele>204.9</ele>
        <time>2021-08-19T07:36:00Z</time>
      </trkpt>
      <trkpt lat="43.57887" lon="0.34909">
        <ele>203.94</ele>
        <time>2021-08-19T07:36:01Z</time>
      </trkpt>
      <trkpt lat="43.57879" lon="0.34882">
        <ele>200.57</ele>
        <time>2021-08-19T07:36:05Z</time>
      </trkpt>
      <trkpt lat="43.57872" lon="0.34853">
        <ele>197.21</ele>
        <time>2021-08-19T07:36:09Z</time>
      </trkpt>
      <trkpt lat="43.57871" lon="0.34846">
        <ele>197.21</ele>
        <time>2021-08-19T07:36:10Z</time>
      </trkpt>
      <trkpt lat="43.57867" lon="0.34833">
        <ele>195.28</ele>
        <time>2021-08-19T07:36:12Z</time>
      </trkpt>
      <trkpt lat="43.57864" lon="0.34819">
        <ele>193.84</ele>
        <time>2021-08-19T07:36:14Z</time>
      </trkpt>
      <trkpt lat="43.57863" lon="0.34812">
        <ele>192.88</ele>
        <time>2021-08-19T07:36:15Z</time>
      </trkpt>
      <trkpt lat="43.57862" lon="0.34805">
        <ele>191.92</ele>
        <time>2021-08-19T07:36:16Z</time>
      </trkpt>
      <trkpt lat="43.57858" lon="0.34785">
        <ele>190.48</ele>
        <time>2021-08-19T07:36:19Z</time>
      </trkpt>
      <trkpt lat="43.57852" lon="0.34758">
        <ele>187.59</ele>
        <time>2021-08-19T07:36:23Z</time>
      </trkpt>
      <trkpt lat="43.57851" lon="0.34751">
        <ele>187.11</ele>
        <time>2021-08-19T07:36:24Z</time>
      </trkpt>
      <trkpt lat="43.57849" lon="0.34744">
        <ele>187.11</ele>
        <time>2021-08-19T07:36:25Z</time>
      </trkpt>
      <trkpt lat="43.57843" lon="0.3472">
        <ele>183.75</ele>
        <time>2021-08-19T07:36:29Z</time>
      </trkpt>
      <trkpt lat="43.57835" lon="0.34702">
        <ele>182.31</ele>
        <time>2021-08-19T07:36:33Z</time>
      </trkpt>
      <trkpt lat="43.57836" lon="0.34697">
        <ele>182.31</ele>
        <time>2021-08-19T07:36:34Z</time>
      </trkpt>
      <trkpt lat="43.57841" lon="0.34679">
        <ele>180.87</ele>
        <time>2021-08-19T07:36:37Z</time>
      </trkpt>
      <trkpt lat="43.57842" lon="0.34672">
        <ele>179.9</ele>
        <time>2021-08-19T07:36:38Z</time>
      </trkpt>
      <trkpt lat="43.57856" lon="0.34594">
        <ele>178.46</ele>
        <time>2021-08-19T07:36:48Z</time>
      </trkpt>
      <trkpt lat="43.57866" lon="0.34541">
        <ele>178.46</ele>
        <time>2021-08-19T07:36:56Z</time>
      </trkpt>
      <trkpt lat="43.57873" lon="0.34505">
        <ele>179.9</ele>
        <time>2021-08-19T07:37:04Z</time>
      </trkpt>
      <trkpt lat="43.57879" lon="0.34476">
        <ele>180.87</ele>
        <time>2021-08-19T07:37:12Z</time>
      </trkpt>
      <trkpt lat="43.57886" lon="0.3445">
        <ele>182.31</ele>
        <time>2021-08-19T07:37:20Z</time>
      </trkpt>
      <trkpt lat="43.57892" lon="0.34424">
        <ele>182.79</ele>
        <time>2021-08-19T07:37:28Z</time>
      </trkpt>
      <trkpt lat="43.57898" lon="0.34404">
        <ele>183.75</ele>
        <time>2021-08-19T07:37:35Z</time>
      </trkpt>
      <trkpt lat="43.579" lon="0.34383">
        <ele>185.19</ele>
        <time>2021-08-19T07:37:42Z</time>
      </trkpt>
      <trkpt lat="43.579" lon="0.34366">
        <ele>186.15</ele>
        <time>2021-08-19T07:37:49Z</time>
      </trkpt>
      <trkpt lat="43.57899" lon="0.34346">
        <ele>187.11</ele>
        <time>2021-08-19T07:37:57Z</time>
      </trkpt>
      <trkpt lat="43.57895" lon="0.34325">
        <ele>188.56</ele>
        <time>2021-08-19T07:38:06Z</time>
      </trkpt>
      <trkpt lat="43.57893" lon="0.3431">
        <ele>189.52</ele>
        <time>2021-08-19T07:38:12Z</time>
      </trkpt>
      <trkpt lat="43.57889" lon="0.34294">
        <ele>190.48</ele>
        <time>2021-08-19T07:38:19Z</time>
      </trkpt>
      <trkpt lat="43.57889" lon="0.34292">
        <ele>190.48</ele>
        <time>2021-08-19T07:38:20Z</time>
      </trkpt>
      <trkpt lat="43.57888" lon="0.34289">
        <ele>190.96</ele>
        <time>2021-08-19T07:38:21Z</time>
      </trkpt>
      <trkpt lat="43.57888" lon="0.34287">
        <ele>190.96</ele>
        <time>2021-08-19T07:38:22Z</time>
      </trkpt>
      <trkpt lat="43.57887" lon="0.34284">
        <ele>190.96</ele>
        <time>2021-08-19T07:38:23Z</time>
      </trkpt>
      <trkpt lat="43.57887" lon="0.34281">
        <ele>190.96</ele>
        <time>2021-08-19T07:38:24Z</time>
      </trkpt>
      <trkpt lat="43.57887" lon="0.34279">
        <ele>191.44</ele>
        <time>2021-08-19T07:38:25Z</time>
      </trkpt>
      <trkpt lat="43.57887" lon="0.34276">
        <ele>191.44</ele>
        <time>2021-08-19T07:38:26Z</time>
      </trkpt>
      <trkpt lat="43.57886" lon="0.34274">
        <ele>191.44</ele>
        <time>2021-08-19T07:38:27Z</time>
      </trkpt>
      <trkpt lat="43.57885" lon="0.34272">
        <ele>191.92</ele>
        <time>2021-08-19T07:38:28Z</time>
      </trkpt>
      <trkpt lat="43.57885" lon="0.34269">
        <ele>191.92</ele>
        <time>2021-08-19T07:38:29Z</time>
      </trkpt>
      <trkpt lat="43.57883" lon="0.34248">
        <ele>193.36</ele>
        <time>2021-08-19T07:38:38Z</time>
      </trkpt>
      <trkpt lat="43.57883" lon="0.3423">
        <ele>193.84</ele>
        <time>2021-08-19T07:38:45Z</time>
      </trkpt>
      <trkpt lat="43.5788" lon="0.34199">
        <ele>195.28</ele>
        <time>2021-08-19T07:38:54Z</time>
      </trkpt>
      <trkpt lat="43.57877" lon="0.34177">
        <ele>195.77</ele>
        <time>2021-08-19T07:39:01Z</time>
      </trkpt>
      <trkpt lat="43.57873" lon="0.34155">
        <ele>197.21</ele>
        <time>2021-08-19T07:39:09Z</time>
      </trkpt>
      <trkpt lat="43.57869" lon="0.34136">
        <ele>197.69</ele>
        <time>2021-08-19T07:39:16Z</time>
      </trkpt>
      <trkpt lat="43.57862" lon="0.3411">
        <ele>198.17</ele>
        <time>2021-08-19T07:39:24Z</time>
      </trkpt>
      <trkpt lat="43.57854" lon="0.34082">
        <ele>199.13</ele>
        <time>2021-08-19T07:39:32Z</time>
      </trkpt>
      <trkpt lat="43.57848" lon="0.34055">
        <ele>200.09</ele>
        <time>2021-08-19T07:39:40Z</time>
      </trkpt>
      <trkpt lat="43.57844" lon="0.34033">
        <ele>200.09</ele>
        <time>2021-08-19T07:39:47Z</time>
      </trkpt>
      <trkpt lat="43.57838" lon="0.33995">
        <ele>200.09</ele>
        <time>2021-08-19T07:39:57Z</time>
      </trkpt>
      <trkpt lat="43.5783" lon="0.3396">
        <ele>200.09</ele>
        <time>2021-08-19T07:40:06Z</time>
      </trkpt>
      <trkpt lat="43.57822" lon="0.33936">
        <ele>200.09</ele>
        <time>2021-08-19T07:40:13Z</time>
      </trkpt>
      <trkpt lat="43.57815" lon="0.33915">
        <ele>200.57</ele>
        <time>2021-08-19T07:40:20Z</time>
      </trkpt>
      <trkpt lat="43.57808" lon="0.33894">
        <ele>201.05</ele>
        <time>2021-08-19T07:40:27Z</time>
      </trkpt>
      <trkpt lat="43.57805" lon="0.33871">
        <ele>201.53</ele>
        <time>2021-08-19T07:40:34Z</time>
      </trkpt>
      <trkpt lat="43.57802" lon="0.33848">
        <ele>202.01</ele>
        <time>2021-08-19T07:40:41Z</time>
      </trkpt>
      <trkpt lat="43.57799" lon="0.33822">
        <ele>202.49</ele>
        <time>2021-08-19T07:40:48Z</time>
      </trkpt>
      <trkpt lat="43.57796" lon="0.33789">
        <ele>202.98</ele>
        <time>2021-08-19T07:40:56Z</time>
      </trkpt>
      <trkpt lat="43.57793" lon="0.33753">
        <ele>203.46</ele>
        <time>2021-08-19T07:41:04Z</time>
      </trkpt>
      <trkpt lat="43.5779" lon="0.33736">
        <ele>203.46</ele>
        <time>2021-08-19T07:41:09Z</time>
      </trkpt>
      <trkpt lat="43.57789" lon="0.33734">
        <ele>203.46</ele>
        <time>2021-08-19T07:41:10Z</time>
      </trkpt>
      <trkpt lat="43.57789" lon="0.33732">
        <ele>203.46</ele>
        <time>2021-08-19T07:41:11Z</time>
      </trkpt>
      <trkpt lat="43.57788" lon="0.33729">
        <ele>203.46</ele>
        <time>2021-08-19T07:41:12Z</time>
      </trkpt>
      <trkpt lat="43.57787" lon="0.33725">
        <ele>203.46</ele>
        <time>2021-08-19T07:41:13Z</time>
      </trkpt>
      <trkpt lat="43.57786" lon="0.33722">
        <ele>203.46</ele>
        <time>2021-08-19T07:41:14Z</time>
      </trkpt>
      <trkpt lat="43.57781" lon="0.33701">
        <ele>203.46</ele>
        <time>2021-08-19T07:41:21Z</time>
      </trkpt>
      <trkpt lat="43.57774" lon="0.33671">
        <ele>203.46</ele>
        <time>2021-08-19T07:41:28Z</time>
      </trkpt>
      <trkpt lat="43.57765" lon="0.33635">
        <ele>203.46</ele>
        <time>2021-08-19T07:41:36Z</time>
      </trkpt>
      <trkpt lat="43.57758" lon="0.33608">
        <ele>204.42</ele>
        <time>2021-08-19T07:41:43Z</time>
      </trkpt>
      <trkpt lat="43.57748" lon="0.33579">
        <ele>205.38</ele>
        <time>2021-08-19T07:41:51Z</time>
      </trkpt>
      <trkpt lat="43.57745" lon="0.33562">
        <ele>205.86</ele>
        <time>2021-08-19T07:41:57Z</time>
      </trkpt>
      <trkpt lat="43.57747" lon="0.3354">
        <ele>206.34</ele>
        <time>2021-08-19T07:42:03Z</time>
      </trkpt>
      <trkpt lat="43.57748" lon="0.33537">
        <ele>206.34</ele>
        <time>2021-08-19T07:42:04Z</time>
      </trkpt>
      <trkpt lat="43.57749" lon="0.33533">
        <ele>206.34</ele>
        <time>2021-08-19T07:42:05Z</time>
      </trkpt>
      <trkpt lat="43.5775" lon="0.33529">
        <ele>206.82</ele>
        <time>2021-08-19T07:42:06Z</time>
      </trkpt>
      <trkpt lat="43.5775" lon="0.33526">
        <ele>207.3</ele>
        <time>2021-08-19T07:42:07Z</time>
      </trkpt>
      <trkpt lat="43.57751" lon="0.33523">
        <ele>207.3</ele>
        <time>2021-08-19T07:42:08Z</time>
      </trkpt>
      <trkpt lat="43.57753" lon="0.33498">
        <ele>208.26</ele>
        <time>2021-08-19T07:42:16Z</time>
      </trkpt>
      <trkpt lat="43.57755" lon="0.33477">
        <ele>209.22</ele>
        <time>2021-08-19T07:42:23Z</time>
      </trkpt>
      <trkpt lat="43.57756" lon="0.33463">
        <ele>210.19</ele>
        <time>2021-08-19T07:42:28Z</time>
      </trkpt>
      <trkpt lat="43.57757" lon="0.33461">
        <ele>210.19</ele>
        <time>2021-08-19T07:42:29Z</time>
      </trkpt>
      <trkpt lat="43.57757" lon="0.33458">
        <ele>210.67</ele>
        <time>2021-08-19T07:42:30Z</time>
      </trkpt>
      <trkpt lat="43.57758" lon="0.33455">
        <ele>210.67</ele>
        <time>2021-08-19T07:42:31Z</time>
      </trkpt>
      <trkpt lat="43.57758" lon="0.33452">
        <ele>210.67</ele>
        <time>2021-08-19T07:42:32Z</time>
      </trkpt>
      <trkpt lat="43.57763" lon="0.33427">
        <ele>212.11</ele>
        <time>2021-08-19T07:42:42Z</time>
      </trkpt>
      <trkpt lat="43.57766" lon="0.33402">
        <ele>214.03</ele>
        <time>2021-08-19T07:42:52Z</time>
      </trkpt>
      <trkpt lat="43.57768" lon="0.33385">
        <ele>214.99</ele>
        <time>2021-08-19T07:43:00Z</time>
      </trkpt>
      <trkpt lat="43.57771" lon="0.33363">
        <ele>217.4</ele>
        <time>2021-08-19T07:43:10Z</time>
      </trkpt>
      <trkpt lat="43.57773" lon="0.33349">
        <ele>217.88</ele>
        <time>2021-08-19T07:43:17Z</time>
      </trkpt>
      <trkpt lat="43.57773" lon="0.33346">
        <ele>217.88</ele>
        <time>2021-08-19T07:43:18Z</time>
      </trkpt>
      <trkpt lat="43.57773" lon="0.33344">
        <ele>217.88</ele>
        <time>2021-08-19T07:43:19Z</time>
      </trkpt>
      <trkpt lat="43.57773" lon="0.33341">
        <ele>218.36</ele>
        <time>2021-08-19T07:43:20Z</time>
      </trkpt>
      <trkpt lat="43.57772" lon="0.33339">
        <ele>218.36</ele>
        <time>2021-08-19T07:43:21Z</time>
      </trkpt>
      <trkpt lat="43.57771" lon="0.33336">
        <ele>218.36</ele>
        <time>2021-08-19T07:43:22Z</time>
      </trkpt>
      <trkpt lat="43.57771" lon="0.33333">
        <ele>218.36</ele>
        <time>2021-08-19T07:43:23Z</time>
      </trkpt>
      <trkpt lat="43.57771" lon="0.33331">
        <ele>218.84</ele>
        <time>2021-08-19T07:43:24Z</time>
      </trkpt>
      <trkpt lat="43.57772" lon="0.33328">
        <ele>218.84</ele>
        <time>2021-08-19T07:43:25Z</time>
      </trkpt>
      <trkpt lat="43.57772" lon="0.33324">
        <ele>218.84</ele>
        <time>2021-08-19T07:43:26Z</time>
      </trkpt>
      <trkpt lat="43.57773" lon="0.33322">
        <ele>218.84</ele>
        <time>2021-08-19T07:43:27Z</time>
      </trkpt>
      <trkpt lat="43.57774" lon="0.33319">
        <ele>218.84</ele>
        <time>2021-08-19T07:43:28Z</time>
      </trkpt>
      <trkpt lat="43.57776" lon="0.33317">
        <ele>218.84</ele>
        <time>2021-08-19T07:43:29Z</time>
      </trkpt>
      <trkpt lat="43.57778" lon="0.33316">
        <ele>218.84</ele>
        <time>2021-08-19T07:43:30Z</time>
      </trkpt>
      <trkpt lat="43.57779" lon="0.33314">
        <ele>218.84</ele>
        <time>2021-08-19T07:43:31Z</time>
      </trkpt>
      <trkpt lat="43.57781" lon="0.33312">
        <ele>219.32</ele>
        <time>2021-08-19T07:43:32Z</time>
      </trkpt>
      <trkpt lat="43.57785" lon="0.33298">
        <ele>220.28</ele>
        <time>2021-08-19T07:43:39Z</time>
      </trkpt>
      <trkpt lat="43.57786" lon="0.33296">
        <ele>220.28</ele>
        <time>2021-08-19T07:43:40Z</time>
      </trkpt>
      <trkpt lat="43.57786" lon="0.33294">
        <ele>220.28</ele>
        <time>2021-08-19T07:43:41Z</time>
      </trkpt>
      <trkpt lat="43.57794" lon="0.33268">
        <ele>221.72</ele>
        <time>2021-08-19T07:43:52Z</time>
      </trkpt>
      <trkpt lat="43.578" lon="0.33248">
        <ele>222.68</ele>
        <time>2021-08-19T07:44:00Z</time>
      </trkpt>
      <trkpt lat="43.57804" lon="0.33229">
        <ele>223.64</ele>
        <time>2021-08-19T07:44:07Z</time>
      </trkpt>
      <trkpt lat="43.57811" lon="0.33206">
        <ele>224.61</ele>
        <time>2021-08-19T07:44:16Z</time>
      </trkpt>
      <trkpt lat="43.57818" lon="0.33182">
        <ele>226.05</ele>
        <time>2021-08-19T07:44:25Z</time>
      </trkpt>
      <trkpt lat="43.57824" lon="0.33161">
        <ele>227.49</ele>
        <time>2021-08-19T07:44:33Z</time>
      </trkpt>
      <trkpt lat="43.57829" lon="0.3314">
        <ele>227.97</ele>
        <time>2021-08-19T07:44:40Z</time>
      </trkpt>
      <trkpt lat="43.57834" lon="0.33114">
        <ele>228.93</ele>
        <time>2021-08-19T07:44:47Z</time>
      </trkpt>
      <trkpt lat="43.57837" lon="0.33094">
        <ele>229.41</ele>
        <time>2021-08-19T07:44:54Z</time>
      </trkpt>
      <trkpt lat="43.57838" lon="0.33072">
        <ele>227.49</ele>
        <time>2021-08-19T07:44:58Z</time>
      </trkpt>
      <trkpt lat="43.57842" lon="0.33042">
        <ele>224.12</ele>
        <time>2021-08-19T07:45:02Z</time>
      </trkpt>
      <trkpt lat="43.57842" lon="0.33038">
        <ele>224.12</ele>
        <time>2021-08-19T07:45:03Z</time>
      </trkpt>
      <trkpt lat="43.57844" lon="0.33">
        <ele>220.76</ele>
        <time>2021-08-19T07:45:08Z</time>
      </trkpt>
      <trkpt lat="43.57848" lon="0.32964">
        <ele>217.4</ele>
        <time>2021-08-19T07:45:13Z</time>
      </trkpt>
      <trkpt lat="43.5785" lon="0.3295">
        <ele>216.91</ele>
        <time>2021-08-19T07:45:15Z</time>
      </trkpt>
      <trkpt lat="43.57854" lon="0.32913">
        <ele>213.55</ele>
        <time>2021-08-19T07:45:21Z</time>
      </trkpt>
      <trkpt lat="43.57854" lon="0.32907">
        <ele>212.59</ele>
        <time>2021-08-19T07:45:22Z</time>
      </trkpt>
      <trkpt lat="43.57845" lon="0.32859">
        <ele>208.74</ele>
        <time>2021-08-19T07:45:28Z</time>
      </trkpt>
      <trkpt lat="43.57737" lon="0.32682">
        <ele>173.17</ele>
        <time>2021-08-19T07:47:38Z</time>
      </trkpt>
      <trkpt lat="43.57737" lon="0.32684">
        <ele>174.14</ele>
        <time>2021-08-19T07:49:24Z</time>
      </trkpt>
      <trkpt lat="43.57737" lon="0.32684">
        <ele>174.14</ele>
        <time>2021-08-19T07:49:25Z</time>
      </trkpt>
      <trkpt lat="43.57736" lon="0.32686">
        <ele>174.14</ele>
        <time>2021-08-19T07:49:50Z</time>
      </trkpt>
      <trkpt lat="43.57736" lon="0.32683">
        <ele>174.14</ele>
        <time>2021-08-19T07:50:14Z</time>
      </trkpt>
      <trkpt lat="43.57734" lon="0.32681">
        <ele>174.14</ele>
        <time>2021-08-19T07:50:30Z</time>
      </trkpt>
      <trkpt lat="43.57734" lon="0.32681">
        <ele>174.14</ele>
        <time>2021-08-19T07:50:49Z</time>
      </trkpt>
      <trkpt lat="43.57736" lon="0.32684">
        <ele>174.14</ele>
        <time>2021-08-19T07:51:09Z</time>
      </trkpt>
      <trkpt lat="43.57736" lon="0.32685">
        <ele>174.14</ele>
        <time>2021-08-19T07:51:25Z</time>
      </trkpt>
      <trkpt lat="43.57738" lon="0.32685">
        <ele>172.69</ele>
        <time>2021-08-19T07:51:34Z</time>
      </trkpt>
      <trkpt lat="43.57734" lon="0.32686">
        <ele>172.69</ele>
        <time>2021-08-19T07:51:36Z</time>
      </trkpt>
      <trkpt lat="43.57731" lon="0.32687">
        <ele>172.69</ele>
        <time>2021-08-19T07:51:37Z</time>
      </trkpt>
      <trkpt lat="43.57728" lon="0.32688">
        <ele>172.21</ele>
        <time>2021-08-19T07:51:38Z</time>
      </trkpt>
      <trkpt lat="43.57724" lon="0.32689">
        <ele>171.25</ele>
        <time>2021-08-19T07:51:39Z</time>
      </trkpt>
      <trkpt lat="43.57719" lon="0.32689">
        <ele>170.77</ele>
        <time>2021-08-19T07:51:40Z</time>
      </trkpt>
      <trkpt lat="43.57713" lon="0.32688">
        <ele>170.29</ele>
        <time>2021-08-19T07:51:41Z</time>
      </trkpt>
      <trkpt lat="43.57708" lon="0.32687">
        <ele>169.33</ele>
        <time>2021-08-19T07:51:42Z</time>
      </trkpt>
      <trkpt lat="43.57683" lon="0.32681">
        <ele>165.96</ele>
        <time>2021-08-19T07:51:46Z</time>
      </trkpt>
      <trkpt lat="43.57676" lon="0.3268">
        <ele>165</ele>
        <time>2021-08-19T07:51:47Z</time>
      </trkpt>
      <trkpt lat="43.57669" lon="0.3268">
        <ele>164.04</ele>
        <time>2021-08-19T07:51:48Z</time>
      </trkpt>
      <trkpt lat="43.57662" lon="0.32682">
        <ele>163.56</ele>
        <time>2021-08-19T07:51:49Z</time>
      </trkpt>
      <trkpt lat="43.57647" lon="0.32685">
        <ele>163.08</ele>
        <time>2021-08-19T07:51:51Z</time>
      </trkpt>
      <trkpt lat="43.57633" lon="0.32687">
        <ele>163.08</ele>
        <time>2021-08-19T07:51:53Z</time>
      </trkpt>
      <trkpt lat="43.57626" lon="0.32685">
        <ele>163.08</ele>
        <time>2021-08-19T07:51:54Z</time>
      </trkpt>
      <trkpt lat="43.57593" lon="0.32671">
        <ele>163.08</ele>
        <time>2021-08-19T07:52:00Z</time>
      </trkpt>
      <trkpt lat="43.57574" lon="0.32665">
        <ele>164.04</ele>
        <time>2021-08-19T07:52:04Z</time>
      </trkpt>
      <trkpt lat="43.57536" lon="0.32656">
        <ele>165.48</ele>
        <time>2021-08-19T07:52:13Z</time>
      </trkpt>
      <trkpt lat="43.57492" lon="0.32648">
        <ele>164.04</ele>
        <time>2021-08-19T07:52:22Z</time>
      </trkpt>
      <trkpt lat="43.57468" lon="0.32646">
        <ele>163.56</ele>
        <time>2021-08-19T07:52:26Z</time>
      </trkpt>
      <trkpt lat="43.57462" lon="0.32647">
        <ele>163.56</ele>
        <time>2021-08-19T07:52:27Z</time>
      </trkpt>
      <trkpt lat="43.57431" lon="0.32658">
        <ele>163.08</ele>
        <time>2021-08-19T07:52:34Z</time>
      </trkpt>
      <trkpt lat="43.57416" lon="0.32666">
        <ele>164.52</ele>
        <time>2021-08-19T07:52:38Z</time>
      </trkpt>
      <trkpt lat="43.57391" lon="0.32681">
        <ele>164.52</ele>
        <time>2021-08-19T07:52:46Z</time>
      </trkpt>
      <trkpt lat="43.57368" lon="0.32688">
        <ele>165</ele>
        <time>2021-08-19T07:52:53Z</time>
      </trkpt>
      <trkpt lat="43.57339" lon="0.32683">
        <ele>165.48</ele>
        <time>2021-08-19T07:53:02Z</time>
      </trkpt>
      <trkpt lat="43.57325" lon="0.32682">
        <ele>166.93</ele>
        <time>2021-08-19T07:53:08Z</time>
      </trkpt>
      <trkpt lat="43.57315" lon="0.32685">
        <ele>167.41</ele>
        <time>2021-08-19T07:53:15Z</time>
      </trkpt>
      <trkpt lat="43.5731" lon="0.32689">
        <ele>168.37</ele>
        <time>2021-08-19T07:53:19Z</time>
      </trkpt>
      <trkpt lat="43.57309" lon="0.3269">
        <ele>168.85</ele>
        <time>2021-08-19T07:53:20Z</time>
      </trkpt>
      <trkpt lat="43.57308" lon="0.32691">
        <ele>168.85</ele>
        <time>2021-08-19T07:53:21Z</time>
      </trkpt>
      <trkpt lat="43.57297" lon="0.32707">
        <ele>171.25</ele>
        <time>2021-08-19T07:53:31Z</time>
      </trkpt>
      <trkpt lat="43.57289" lon="0.32719">
        <ele>172.21</ele>
        <time>2021-08-19T07:53:39Z</time>
      </trkpt>
      <trkpt lat="43.57275" lon="0.32736">
        <ele>173.66</ele>
        <time>2021-08-19T07:53:48Z</time>
      </trkpt>
      <trkpt lat="43.57259" lon="0.3276">
        <ele>173.17</ele>
        <time>2021-08-19T07:53:56Z</time>
      </trkpt>
      <trkpt lat="43.57246" lon="0.3278">
        <ele>171.73</ele>
        <time>2021-08-19T07:54:01Z</time>
      </trkpt>
      <trkpt lat="43.57225" lon="0.32815">
        <ele>170.77</ele>
        <time>2021-08-19T07:54:08Z</time>
      </trkpt>
      <trkpt lat="43.57209" lon="0.32826">
        <ele>170.77</ele>
        <time>2021-08-19T07:54:14Z</time>
      </trkpt>
      <trkpt lat="43.57204" lon="0.3283">
        <ele>172.21</ele>
        <time>2021-08-19T07:54:16Z</time>
      </trkpt>
      <trkpt lat="43.57179" lon="0.32849">
        <ele>173.17</ele>
        <time>2021-08-19T07:54:26Z</time>
      </trkpt>
      <trkpt lat="43.57164" lon="0.32861">
        <ele>174.62</ele>
        <time>2021-08-19T07:54:33Z</time>
      </trkpt>
      <trkpt lat="43.57148" lon="0.32872">
        <ele>176.06</ele>
        <time>2021-08-19T07:54:42Z</time>
      </trkpt>
      <trkpt lat="43.5713" lon="0.32881">
        <ele>177.98</ele>
        <time>2021-08-19T07:54:51Z</time>
      </trkpt>
      <trkpt lat="43.57118" lon="0.32873">
        <ele>177.02</ele>
        <time>2021-08-19T07:54:56Z</time>
      </trkpt>
      <trkpt lat="43.5711" lon="0.32869">
        <ele>175.58</ele>
        <time>2021-08-19T07:54:58Z</time>
      </trkpt>
      <trkpt lat="43.57106" lon="0.32868">
        <ele>175.1</ele>
        <time>2021-08-19T07:54:59Z</time>
      </trkpt>
      <trkpt lat="43.571" lon="0.32868">
        <ele>174.62</ele>
        <time>2021-08-19T07:55:00Z</time>
      </trkpt>
      <trkpt lat="43.57094" lon="0.32869">
        <ele>173.66</ele>
        <time>2021-08-19T07:55:01Z</time>
      </trkpt>
      <trkpt lat="43.57089" lon="0.3287">
        <ele>173.17</ele>
        <time>2021-08-19T07:55:02Z</time>
      </trkpt>
      <trkpt lat="43.57083" lon="0.32872">
        <ele>172.69</ele>
        <time>2021-08-19T07:55:03Z</time>
      </trkpt>
      <trkpt lat="43.57077" lon="0.32874">
        <ele>172.69</ele>
        <time>2021-08-19T07:55:04Z</time>
      </trkpt>
      <trkpt lat="43.57057" lon="0.32882">
        <ele>171.25</ele>
        <time>2021-08-19T07:55:07Z</time>
      </trkpt>
      <trkpt lat="43.57008" lon="0.329">
        <ele>169.33</ele>
        <time>2021-08-19T07:55:14Z</time>
      </trkpt>
      <trkpt lat="43.56994" lon="0.32904">
        <ele>168.85</ele>
        <time>2021-08-19T07:55:16Z</time>
      </trkpt>
      <trkpt lat="43.56987" lon="0.32904">
        <ele>167.89</ele>
        <time>2021-08-19T07:55:17Z</time>
      </trkpt>
      <trkpt lat="43.56974" lon="0.32904">
        <ele>166.93</ele>
        <time>2021-08-19T07:55:19Z</time>
      </trkpt>
      <trkpt lat="43.56953" lon="0.32907">
        <ele>165.48</ele>
        <time>2021-08-19T07:55:22Z</time>
      </trkpt>
      <trkpt lat="43.56906" lon="0.32911">
        <ele>164.52</ele>
        <time>2021-08-19T07:55:29Z</time>
      </trkpt>
      <trkpt lat="43.56862" lon="0.32913">
        <ele>164.52</ele>
        <time>2021-08-19T07:55:37Z</time>
      </trkpt>
      <trkpt lat="43.56844" lon="0.32911">
        <ele>164.52</ele>
        <time>2021-08-19T07:55:41Z</time>
      </trkpt>
      <trkpt lat="43.56839" lon="0.32911">
        <ele>164.52</ele>
        <time>2021-08-19T07:55:42Z</time>
      </trkpt>
      <trkpt lat="43.56834" lon="0.32911">
        <ele>164.52</ele>
        <time>2021-08-19T07:55:43Z</time>
      </trkpt>
      <trkpt lat="43.56794" lon="0.32913">
        <ele>164.52</ele>
        <time>2021-08-19T07:55:51Z</time>
      </trkpt>
      <trkpt lat="43.56754" lon="0.32918">
        <ele>163.56</ele>
        <time>2021-08-19T07:55:58Z</time>
      </trkpt>
      <trkpt lat="43.56704" lon="0.3293">
        <ele>163.56</ele>
        <time>2021-08-19T07:56:06Z</time>
      </trkpt>
      <trkpt lat="43.56659" lon="0.3294">
        <ele>165</ele>
        <time>2021-08-19T07:56:15Z</time>
      </trkpt>
      <trkpt lat="43.56655" lon="0.32942">
        <ele>165</ele>
        <time>2021-08-19T07:56:16Z</time>
      </trkpt>
      <trkpt lat="43.5665" lon="0.32944">
        <ele>165</ele>
        <time>2021-08-19T07:56:17Z</time>
      </trkpt>
      <trkpt lat="43.56646" lon="0.32945">
        <ele>165</ele>
        <time>2021-08-19T07:56:18Z</time>
      </trkpt>
      <trkpt lat="43.56642" lon="0.32947">
        <ele>165</ele>
        <time>2021-08-19T07:56:19Z</time>
      </trkpt>
      <trkpt lat="43.56638" lon="0.3295">
        <ele>164.52</ele>
        <time>2021-08-19T07:56:20Z</time>
      </trkpt>
      <trkpt lat="43.56635" lon="0.32952">
        <ele>164.52</ele>
        <time>2021-08-19T07:56:21Z</time>
      </trkpt>
      <trkpt lat="43.56632" lon="0.32955">
        <ele>164.52</ele>
        <time>2021-08-19T07:56:22Z</time>
      </trkpt>
      <trkpt lat="43.56601" lon="0.32972">
        <ele>165.96</ele>
        <time>2021-08-19T07:56:31Z</time>
      </trkpt>
      <trkpt lat="43.56576" lon="0.32983">
        <ele>165.96</ele>
        <time>2021-08-19T07:56:38Z</time>
      </trkpt>
      <trkpt lat="43.56543" lon="0.33005">
        <ele>165.96</ele>
        <time>2021-08-19T07:56:47Z</time>
      </trkpt>
      <trkpt lat="43.56536" lon="0.33022">
        <ele>165.96</ele>
        <time>2021-08-19T07:56:52Z</time>
      </trkpt>
      <trkpt lat="43.56522" lon="0.33039">
        <ele>165.96</ele>
        <time>2021-08-19T07:56:58Z</time>
      </trkpt>
      <trkpt lat="43.56501" lon="0.3306">
        <ele>165.96</ele>
        <time>2021-08-19T07:57:05Z</time>
      </trkpt>
      <trkpt lat="43.56469" lon="0.33077">
        <ele>165.48</ele>
        <time>2021-08-19T07:57:14Z</time>
      </trkpt>
      <trkpt lat="43.56437" lon="0.33087">
        <ele>165.96</ele>
        <time>2021-08-19T07:57:23Z</time>
      </trkpt>
      <trkpt lat="43.56391" lon="0.33093">
        <ele>164.52</ele>
        <time>2021-08-19T07:57:33Z</time>
      </trkpt>
      <trkpt lat="43.56374" lon="0.33093">
        <ele>164.52</ele>
        <time>2021-08-19T07:57:37Z</time>
      </trkpt>
      <trkpt lat="43.56369" lon="0.33093">
        <ele>164.52</ele>
        <time>2021-08-19T07:57:38Z</time>
      </trkpt>
      <trkpt lat="43.56366" lon="0.33093">
        <ele>164.52</ele>
        <time>2021-08-19T07:57:39Z</time>
      </trkpt>
      <trkpt lat="43.56338" lon="0.33095">
        <ele>164.52</ele>
        <time>2021-08-19T07:57:46Z</time>
      </trkpt>
      <trkpt lat="43.56334" lon="0.33096">
        <ele>164.52</ele>
        <time>2021-08-19T07:57:47Z</time>
      </trkpt>
      <trkpt lat="43.56296" lon="0.33101">
        <ele>164.52</ele>
        <time>2021-08-19T07:57:56Z</time>
      </trkpt>
      <trkpt lat="43.56254" lon="0.33108">
        <ele>164.52</ele>
        <time>2021-08-19T07:58:06Z</time>
      </trkpt>
      <trkpt lat="43.56229" lon="0.33117">
        <ele>164.52</ele>
        <time>2021-08-19T07:58:13Z</time>
      </trkpt>
      <trkpt lat="43.56199" lon="0.33128">
        <ele>164.52</ele>
        <time>2021-08-19T07:58:22Z</time>
      </trkpt>
      <trkpt lat="43.5617" lon="0.33139">
        <ele>165.96</ele>
        <time>2021-08-19T07:58:31Z</time>
      </trkpt>
      <trkpt lat="43.56147" lon="0.33148">
        <ele>165.96</ele>
        <time>2021-08-19T07:58:39Z</time>
      </trkpt>
      <trkpt lat="43.56126" lon="0.33153">
        <ele>165.96</ele>
        <time>2021-08-19T07:58:46Z</time>
      </trkpt>
      <trkpt lat="43.56091" lon="0.33162">
        <ele>167.41</ele>
        <time>2021-08-19T07:58:57Z</time>
      </trkpt>
      <trkpt lat="43.5607" lon="0.33172">
        <ele>167.89</ele>
        <time>2021-08-19T07:59:04Z</time>
      </trkpt>
      <trkpt lat="43.56052" lon="0.33179">
        <ele>168.85</ele>
        <time>2021-08-19T07:59:11Z</time>
      </trkpt>
      <trkpt lat="43.5602" lon="0.33184">
        <ele>168.85</ele>
        <time>2021-08-19T07:59:19Z</time>
      </trkpt>
      <trkpt lat="43.55991" lon="0.33182">
        <ele>168.85</ele>
        <time>2021-08-19T07:59:26Z</time>
      </trkpt>
      <trkpt lat="43.55982" lon="0.3318">
        <ele>167.41</ele>
        <time>2021-08-19T07:59:28Z</time>
      </trkpt>
      <trkpt lat="43.55974" lon="0.3318">
        <ele>167.41</ele>
        <time>2021-08-19T07:59:30Z</time>
      </trkpt>
      <trkpt lat="43.55931" lon="0.33184">
        <ele>167.41</ele>
        <time>2021-08-19T07:59:41Z</time>
      </trkpt>
      <trkpt lat="43.55892" lon="0.3319">
        <ele>167.41</ele>
        <time>2021-08-19T07:59:51Z</time>
      </trkpt>
      <trkpt lat="43.55887" lon="0.33189">
        <ele>166.45</ele>
        <time>2021-08-19T07:59:52Z</time>
      </trkpt>
      <trkpt lat="43.55881" lon="0.33188">
        <ele>165.96</ele>
        <time>2021-08-19T07:59:53Z</time>
      </trkpt>
      <trkpt lat="43.55875" lon="0.33189">
        <ele>165.96</ele>
        <time>2021-08-19T07:59:54Z</time>
      </trkpt>
      <trkpt lat="43.5587" lon="0.33191">
        <ele>165.48</ele>
        <time>2021-08-19T07:59:55Z</time>
      </trkpt>
      <trkpt lat="43.55865" lon="0.33193">
        <ele>165.48</ele>
        <time>2021-08-19T07:59:56Z</time>
      </trkpt>
      <trkpt lat="43.5586" lon="0.33195">
        <ele>165.48</ele>
        <time>2021-08-19T07:59:57Z</time>
      </trkpt>
      <trkpt lat="43.55834" lon="0.33211">
        <ele>165.48</ele>
        <time>2021-08-19T08:00:04Z</time>
      </trkpt>
      <trkpt lat="43.5583" lon="0.33213">
        <ele>165.48</ele>
        <time>2021-08-19T08:00:05Z</time>
      </trkpt>
      <trkpt lat="43.55826" lon="0.33215">
        <ele>165.48</ele>
        <time>2021-08-19T08:00:06Z</time>
      </trkpt>
      <trkpt lat="43.5579" lon="0.33233">
        <ele>165.48</ele>
        <time>2021-08-19T08:00:14Z</time>
      </trkpt>
      <trkpt lat="43.55764" lon="0.33248">
        <ele>166.45</ele>
        <time>2021-08-19T08:00:20Z</time>
      </trkpt>
      <trkpt lat="43.55736" lon="0.33275">
        <ele>166.93</ele>
        <time>2021-08-19T08:00:28Z</time>
      </trkpt>
      <trkpt lat="43.55714" lon="0.33303">
        <ele>167.89</ele>
        <time>2021-08-19T08:00:36Z</time>
      </trkpt>
      <trkpt lat="43.55694" lon="0.33318">
        <ele>167.89</ele>
        <time>2021-08-19T08:00:43Z</time>
      </trkpt>
      <trkpt lat="43.55677" lon="0.3332">
        <ele>167.89</ele>
        <time>2021-08-19T08:00:49Z</time>
      </trkpt>
      <trkpt lat="43.55647" lon="0.33326">
        <ele>167.89</ele>
        <time>2021-08-19T08:00:58Z</time>
      </trkpt>
      <trkpt lat="43.55617" lon="0.33329">
        <ele>167.89</ele>
        <time>2021-08-19T08:01:07Z</time>
      </trkpt>
      <trkpt lat="43.55614" lon="0.33329">
        <ele>167.89</ele>
        <time>2021-08-19T08:01:08Z</time>
      </trkpt>
      <trkpt lat="43.55587" lon="0.33332">
        <ele>166.45</ele>
        <time>2021-08-19T08:01:15Z</time>
      </trkpt>
      <trkpt lat="43.55565" lon="0.33339">
        <ele>166.45</ele>
        <time>2021-08-19T08:01:22Z</time>
      </trkpt>
      <trkpt lat="43.55539" lon="0.33346">
        <ele>166.45</ele>
        <time>2021-08-19T08:01:29Z</time>
      </trkpt>
      <trkpt lat="43.55535" lon="0.33347">
        <ele>166.45</ele>
        <time>2021-08-19T08:01:30Z</time>
      </trkpt>
      <trkpt lat="43.55522" lon="0.33351">
        <ele>166.45</ele>
        <time>2021-08-19T08:01:33Z</time>
      </trkpt>
      <trkpt lat="43.55481" lon="0.33367">
        <ele>166.45</ele>
        <time>2021-08-19T08:01:42Z</time>
      </trkpt>
      <trkpt lat="43.55453" lon="0.33377">
        <ele>166.45</ele>
        <time>2021-08-19T08:01:48Z</time>
      </trkpt>
      <trkpt lat="43.55449" lon="0.33379">
        <ele>166.45</ele>
        <time>2021-08-19T08:01:49Z</time>
      </trkpt>
      <trkpt lat="43.55444" lon="0.33381">
        <ele>166.45</ele>
        <time>2021-08-19T08:01:50Z</time>
      </trkpt>
      <trkpt lat="43.554" lon="0.33405">
        <ele>166.45</ele>
        <time>2021-08-19T08:01:59Z</time>
      </trkpt>
      <trkpt lat="43.5536" lon="0.33423">
        <ele>166.45</ele>
        <time>2021-08-19T08:02:07Z</time>
      </trkpt>
      <trkpt lat="43.5532" lon="0.33439">
        <ele>167.41</ele>
        <time>2021-08-19T08:02:15Z</time>
      </trkpt>
      <trkpt lat="43.55307" lon="0.3344">
        <ele>167.89</ele>
        <time>2021-08-19T08:02:18Z</time>
      </trkpt>
      <trkpt lat="43.55303" lon="0.3344">
        <ele>167.89</ele>
        <time>2021-08-19T08:02:19Z</time>
      </trkpt>
      <trkpt lat="43.55298" lon="0.33441">
        <ele>167.89</ele>
        <time>2021-08-19T08:02:20Z</time>
      </trkpt>
      <trkpt lat="43.55267" lon="0.33453">
        <ele>167.89</ele>
        <time>2021-08-19T08:02:28Z</time>
      </trkpt>
      <trkpt lat="43.55254" lon="0.3346">
        <ele>167.89</ele>
        <time>2021-08-19T08:02:31Z</time>
      </trkpt>
      <trkpt lat="43.5525" lon="0.33462">
        <ele>167.89</ele>
        <time>2021-08-19T08:02:32Z</time>
      </trkpt>
      <trkpt lat="43.55214" lon="0.33486">
        <ele>167.89</ele>
        <time>2021-08-19T08:02:41Z</time>
      </trkpt>
      <trkpt lat="43.5519" lon="0.335">
        <ele>167.89</ele>
        <time>2021-08-19T08:02:47Z</time>
      </trkpt>
      <trkpt lat="43.55186" lon="0.33502">
        <ele>167.89</ele>
        <time>2021-08-19T08:02:48Z</time>
      </trkpt>
      <trkpt lat="43.55178" lon="0.33504">
        <ele>167.89</ele>
        <time>2021-08-19T08:02:50Z</time>
      </trkpt>
      <trkpt lat="43.55174" lon="0.33503">
        <ele>167.89</ele>
        <time>2021-08-19T08:02:51Z</time>
      </trkpt>
      <trkpt lat="43.55171" lon="0.335">
        <ele>167.89</ele>
        <time>2021-08-19T08:02:52Z</time>
      </trkpt>
      <trkpt lat="43.55169" lon="0.33495">
        <ele>167.89</ele>
        <time>2021-08-19T08:02:53Z</time>
      </trkpt>
      <trkpt lat="43.55168" lon="0.3349">
        <ele>167.89</ele>
        <time>2021-08-19T08:02:54Z</time>
      </trkpt>
      <trkpt lat="43.55167" lon="0.33485">
        <ele>167.89</ele>
        <time>2021-08-19T08:02:55Z</time>
      </trkpt>
      <trkpt lat="43.55165" lon="0.3348">
        <ele>167.89</ele>
        <time>2021-08-19T08:02:56Z</time>
      </trkpt>
      <trkpt lat="43.55163" lon="0.33475">
        <ele>167.89</ele>
        <time>2021-08-19T08:02:57Z</time>
      </trkpt>
      <trkpt lat="43.55162" lon="0.33469">
        <ele>167.89</ele>
        <time>2021-08-19T08:02:58Z</time>
      </trkpt>
      <trkpt lat="43.5516" lon="0.33463">
        <ele>167.89</ele>
        <time>2021-08-19T08:02:59Z</time>
      </trkpt>
      <trkpt lat="43.55144" lon="0.33419">
        <ele>166.45</ele>
        <time>2021-08-19T08:03:06Z</time>
      </trkpt>
      <trkpt lat="43.55117" lon="0.33381">
        <ele>165.96</ele>
        <time>2021-08-19T08:03:13Z</time>
      </trkpt>
      <trkpt lat="43.55077" lon="0.33338">
        <ele>165.96</ele>
        <time>2021-08-19T08:03:22Z</time>
      </trkpt>
      <trkpt lat="43.55039" lon="0.33299">
        <ele>165.96</ele>
        <time>2021-08-19T08:03:31Z</time>
      </trkpt>
      <trkpt lat="43.55011" lon="0.33267">
        <ele>165.96</ele>
        <time>2021-08-19T08:03:38Z</time>
      </trkpt>
      <trkpt lat="43.55002" lon="0.33252">
        <ele>167.89</ele>
        <time>2021-08-19T08:03:42Z</time>
      </trkpt>
      <trkpt lat="43.54994" lon="0.33232">
        <ele>166.45</ele>
        <time>2021-08-19T08:03:46Z</time>
      </trkpt>
      <trkpt lat="43.5498" lon="0.33191">
        <ele>165.48</ele>
        <time>2021-08-19T08:03:52Z</time>
      </trkpt>
      <trkpt lat="43.54978" lon="0.33184">
        <ele>165.48</ele>
        <time>2021-08-19T08:03:53Z</time>
      </trkpt>
      <trkpt lat="43.54975" lon="0.33177">
        <ele>165.48</ele>
        <time>2021-08-19T08:03:54Z</time>
      </trkpt>
      <trkpt lat="43.54951" lon="0.33103">
        <ele>165.48</ele>
        <time>2021-08-19T08:04:05Z</time>
      </trkpt>
      <trkpt lat="43.54932" lon="0.33048">
        <ele>165.48</ele>
        <time>2021-08-19T08:04:14Z</time>
      </trkpt>
      <trkpt lat="43.54931" lon="0.33042">
        <ele>165.48</ele>
        <time>2021-08-19T08:04:15Z</time>
      </trkpt>
      <trkpt lat="43.5493" lon="0.33036">
        <ele>165.48</ele>
        <time>2021-08-19T08:04:16Z</time>
      </trkpt>
      <trkpt lat="43.54927" lon="0.33011">
        <ele>166.93</ele>
        <time>2021-08-19T08:04:20Z</time>
      </trkpt>
      <trkpt lat="43.54923" lon="0.32979">
        <ele>167.89</ele>
        <time>2021-08-19T08:04:25Z</time>
      </trkpt>
      <trkpt lat="43.54923" lon="0.32959">
        <ele>169.81</ele>
        <time>2021-08-19T08:04:30Z</time>
      </trkpt>
      <trkpt lat="43.54922" lon="0.32951">
        <ele>170.29</ele>
        <time>2021-08-19T08:04:33Z</time>
      </trkpt>
      <trkpt lat="43.54921" lon="0.32947">
        <ele>170.77</ele>
        <time>2021-08-19T08:04:36Z</time>
      </trkpt>
      <trkpt lat="43.5492" lon="0.32937">
        <ele>172.21</ele>
        <time>2021-08-19T08:04:45Z</time>
      </trkpt>
      <trkpt lat="43.54918" lon="0.32922">
        <ele>172.69</ele>
        <time>2021-08-19T08:04:55Z</time>
      </trkpt>
      <trkpt lat="43.54915" lon="0.32905">
        <ele>174.62</ele>
        <time>2021-08-19T08:05:06Z</time>
      </trkpt>
      <trkpt lat="43.54912" lon="0.32887">
        <ele>176.06</ele>
        <time>2021-08-19T08:05:17Z</time>
      </trkpt>
      <trkpt lat="43.54912" lon="0.32885">
        <ele>175.58</ele>
        <time>2021-08-19T08:05:24Z</time>
      </trkpt>
      <trkpt lat="43.54911" lon="0.32881">
        <ele>175.58</ele>
        <time>2021-08-19T08:05:39Z</time>
      </trkpt>
      <trkpt lat="43.54907" lon="0.32862">
        <ele>176.54</ele>
        <time>2021-08-19T08:05:46Z</time>
      </trkpt>
      <trkpt lat="43.54903" lon="0.32832">
        <ele>177.5</ele>
        <time>2021-08-19T08:05:54Z</time>
      </trkpt>
      <trkpt lat="43.54892" lon="0.32807">
        <ele>178.94</ele>
        <time>2021-08-19T08:06:02Z</time>
      </trkpt>
      <trkpt lat="43.54881" lon="0.32785">
        <ele>179.42</ele>
        <time>2021-08-19T08:06:09Z</time>
      </trkpt>
      <trkpt lat="43.54879" lon="0.32761">
        <ele>179.9</ele>
        <time>2021-08-19T08:06:16Z</time>
      </trkpt>
      <trkpt lat="43.5487" lon="0.3274">
        <ele>180.87</ele>
        <time>2021-08-19T08:06:23Z</time>
      </trkpt>
      <trkpt lat="43.54859" lon="0.32726">
        <ele>182.31</ele>
        <time>2021-08-19T08:06:30Z</time>
      </trkpt>
      <trkpt lat="43.54843" lon="0.32703">
        <ele>183.27</ele>
        <time>2021-08-19T08:06:39Z</time>
      </trkpt>
      <trkpt lat="43.54835" lon="0.3267">
        <ele>184.23</ele>
        <time>2021-08-19T08:06:47Z</time>
      </trkpt>
      <trkpt lat="43.54834" lon="0.32639">
        <ele>185.67</ele>
        <time>2021-08-19T08:06:56Z</time>
      </trkpt>
      <trkpt lat="43.54835" lon="0.32608">
        <ele>187.59</ele>
        <time>2021-08-19T08:07:05Z</time>
      </trkpt>
      <trkpt lat="43.54833" lon="0.32569">
        <ele>189.04</ele>
        <time>2021-08-19T08:07:15Z</time>
      </trkpt>
      <trkpt lat="43.54831" lon="0.32531">
        <ele>189.52</ele>
        <time>2021-08-19T08:07:24Z</time>
      </trkpt>
      <trkpt lat="43.54829" lon="0.32492">
        <ele>189.52</ele>
        <time>2021-08-19T08:07:32Z</time>
      </trkpt>
      <trkpt lat="43.54829" lon="0.32436">
        <ele>190.48</ele>
        <time>2021-08-19T08:07:43Z</time>
      </trkpt>
      <trkpt lat="43.54831" lon="0.32382">
        <ele>191.92</ele>
        <time>2021-08-19T08:07:54Z</time>
      </trkpt>
      <trkpt lat="43.54831" lon="0.32338">
        <ele>192.88</ele>
        <time>2021-08-19T08:08:03Z</time>
      </trkpt>
      <trkpt lat="43.54832" lon="0.3229">
        <ele>194.32</ele>
        <time>2021-08-19T08:08:13Z</time>
      </trkpt>
      <trkpt lat="43.54833" lon="0.3225">
        <ele>194.32</ele>
        <time>2021-08-19T08:08:21Z</time>
      </trkpt>
      <trkpt lat="43.54834" lon="0.32222">
        <ele>194.8</ele>
        <time>2021-08-19T08:08:26Z</time>
      </trkpt>
      <trkpt lat="43.54835" lon="0.32166">
        <ele>195.77</ele>
        <time>2021-08-19T08:08:36Z</time>
      </trkpt>
      <trkpt lat="43.54842" lon="0.3214">
        <ele>196.73</ele>
        <time>2021-08-19T08:08:42Z</time>
      </trkpt>
      <trkpt lat="43.54865" lon="0.32117">
        <ele>199.13</ele>
        <time>2021-08-19T08:08:51Z</time>
      </trkpt>
      <trkpt lat="43.54889" lon="0.32089">
        <ele>201.05</ele>
        <time>2021-08-19T08:09:01Z</time>
      </trkpt>
      <trkpt lat="43.54913" lon="0.32058">
        <ele>202.98</ele>
        <time>2021-08-19T08:09:12Z</time>
      </trkpt>
      <trkpt lat="43.54943" lon="0.32036">
        <ele>203.94</ele>
        <time>2021-08-19T08:09:23Z</time>
      </trkpt>
      <trkpt lat="43.54944" lon="0.32033">
        <ele>203.94</ele>
        <time>2021-08-19T08:09:24Z</time>
      </trkpt>
      <trkpt lat="43.54944" lon="0.32029">
        <ele>204.9</ele>
        <time>2021-08-19T08:09:25Z</time>
      </trkpt>
      <trkpt lat="43.54943" lon="0.32025">
        <ele>204.9</ele>
        <time>2021-08-19T08:09:26Z</time>
      </trkpt>
      <trkpt lat="43.54941" lon="0.32022">
        <ele>204.9</ele>
        <time>2021-08-19T08:09:27Z</time>
      </trkpt>
      <trkpt lat="43.5494" lon="0.32019">
        <ele>204.9</ele>
        <time>2021-08-19T08:09:28Z</time>
      </trkpt>
      <trkpt lat="43.54939" lon="0.32015">
        <ele>204.9</ele>
        <time>2021-08-19T08:09:29Z</time>
      </trkpt>
      <trkpt lat="43.54929" lon="0.31984">
        <ele>205.38</ele>
        <time>2021-08-19T08:09:37Z</time>
      </trkpt>
      <trkpt lat="43.54916" lon="0.31948">
        <ele>206.34</ele>
        <time>2021-08-19T08:09:47Z</time>
      </trkpt>
      <trkpt lat="43.54904" lon="0.31912">
        <ele>207.3</ele>
        <time>2021-08-19T08:09:56Z</time>
      </trkpt>
      <trkpt lat="43.54891" lon="0.3187">
        <ele>207.78</ele>
        <time>2021-08-19T08:10:06Z</time>
      </trkpt>
      <trkpt lat="43.54879" lon="0.31835">
        <ele>208.74</ele>
        <time>2021-08-19T08:10:15Z</time>
      </trkpt>
      <trkpt lat="43.54869" lon="0.31809">
        <ele>209.22</ele>
        <time>2021-08-19T08:10:22Z</time>
      </trkpt>
      <trkpt lat="43.54861" lon="0.31781">
        <ele>210.19</ele>
        <time>2021-08-19T08:10:30Z</time>
      </trkpt>
      <trkpt lat="43.54853" lon="0.31757">
        <ele>211.15</ele>
        <time>2021-08-19T08:10:37Z</time>
      </trkpt>
      <trkpt lat="43.54845" lon="0.31734">
        <ele>212.11</ele>
        <time>2021-08-19T08:10:45Z</time>
      </trkpt>
      <trkpt lat="43.54838" lon="0.31714">
        <ele>213.55</ele>
        <time>2021-08-19T08:10:52Z</time>
      </trkpt>
      <trkpt lat="43.5483" lon="0.31686">
        <ele>214.51</ele>
        <time>2021-08-19T08:11:01Z</time>
      </trkpt>
      <trkpt lat="43.54822" lon="0.31664">
        <ele>215.47</ele>
        <time>2021-08-19T08:11:09Z</time>
      </trkpt>
      <trkpt lat="43.54815" lon="0.3165">
        <ele>216.43</ele>
        <time>2021-08-19T08:11:16Z</time>
      </trkpt>
      <trkpt lat="43.54804" lon="0.31625">
        <ele>216.91</ele>
        <time>2021-08-19T08:11:23Z</time>
      </trkpt>
      <trkpt lat="43.54806" lon="0.31601">
        <ele>215.47</ele>
        <time>2021-08-19T08:11:28Z</time>
      </trkpt>
      <trkpt lat="43.54816" lon="0.31575">
        <ele>212.11</ele>
        <time>2021-08-19T08:11:32Z</time>
      </trkpt>
      <trkpt lat="43.54825" lon="0.31548">
        <ele>209.22</ele>
        <time>2021-08-19T08:11:35Z</time>
      </trkpt>
      <trkpt lat="43.54834" lon="0.31521">
        <ele>205.86</ele>
        <time>2021-08-19T08:11:38Z</time>
      </trkpt>
      <trkpt lat="43.54844" lon="0.31492">
        <ele>202.49</ele>
        <time>2021-08-19T08:11:41Z</time>
      </trkpt>
      <trkpt lat="43.54847" lon="0.3148">
        <ele>201.53</ele>
        <time>2021-08-19T08:11:42Z</time>
      </trkpt>
      <trkpt lat="43.54858" lon="0.31427">
        <ele>198.17</ele>
        <time>2021-08-19T08:11:47Z</time>
      </trkpt>
      <trkpt lat="43.54865" lon="0.31398">
        <ele>194.8</ele>
        <time>2021-08-19T08:11:50Z</time>
      </trkpt>
      <trkpt lat="43.54873" lon="0.31368">
        <ele>191.44</ele>
        <time>2021-08-19T08:11:53Z</time>
      </trkpt>
      <trkpt lat="43.54884" lon="0.31334">
        <ele>187.11</ele>
        <time>2021-08-19T08:11:56Z</time>
      </trkpt>
      <trkpt lat="43.54891" lon="0.31312">
        <ele>184.23</ele>
        <time>2021-08-19T08:11:58Z</time>
      </trkpt>
      <trkpt lat="43.549" lon="0.31283">
        <ele>181.83</ele>
        <time>2021-08-19T08:12:01Z</time>
      </trkpt>
      <trkpt lat="43.54912" lon="0.31259">
        <ele>180.87</ele>
        <time>2021-08-19T08:12:05Z</time>
      </trkpt>
      <trkpt lat="43.54911" lon="0.31257">
        <ele>180.87</ele>
        <time>2021-08-19T08:12:10Z</time>
      </trkpt>
      <trkpt lat="43.54913" lon="0.31254">
        <ele>180.87</ele>
        <time>2021-08-19T08:12:30Z</time>
      </trkpt>
      <trkpt lat="43.54914" lon="0.31255">
        <ele>180.87</ele>
        <time>2021-08-19T08:12:37Z</time>
      </trkpt>
      <trkpt lat="43.5491" lon="0.31258">
        <ele>180.87</ele>
        <time>2021-08-19T08:12:48Z</time>
      </trkpt>
      <trkpt lat="43.54908" lon="0.31259">
        <ele>180.87</ele>
        <time>2021-08-19T08:12:52Z</time>
      </trkpt>
      <trkpt lat="43.54907" lon="0.31257">
        <ele>180.87</ele>
        <time>2021-08-19T08:12:58Z</time>
      </trkpt>
      <trkpt lat="43.54907" lon="0.31252">
        <ele>180.38</ele>
        <time>2021-08-19T08:13:00Z</time>
      </trkpt>
      <trkpt lat="43.5491" lon="0.31231">
        <ele>179.42</ele>
        <time>2021-08-19T08:13:05Z</time>
      </trkpt>
      <trkpt lat="43.54912" lon="0.31216">
        <ele>180.87</ele>
        <time>2021-08-19T08:13:11Z</time>
      </trkpt>
      <trkpt lat="43.54912" lon="0.31211">
        <ele>181.35</ele>
        <time>2021-08-19T08:13:13Z</time>
      </trkpt>
      <trkpt lat="43.54913" lon="0.31203">
        <ele>182.31</ele>
        <time>2021-08-19T08:13:17Z</time>
      </trkpt>
      <trkpt lat="43.54913" lon="0.312">
        <ele>182.31</ele>
        <time>2021-08-19T08:13:18Z</time>
      </trkpt>
      <trkpt lat="43.54913" lon="0.31193">
        <ele>182.31</ele>
        <time>2021-08-19T08:13:21Z</time>
      </trkpt>
      <trkpt lat="43.54914" lon="0.31191">
        <ele>182.31</ele>
        <time>2021-08-19T08:13:22Z</time>
      </trkpt>
      <trkpt lat="43.54916" lon="0.31189">
        <ele>182.31</ele>
        <time>2021-08-19T08:13:23Z</time>
      </trkpt>
      <trkpt lat="43.54925" lon="0.31185">
        <ele>182.31</ele>
        <time>2021-08-19T08:13:28Z</time>
      </trkpt>
      <trkpt lat="43.54936" lon="0.3117">
        <ele>182.79</ele>
        <time>2021-08-19T08:13:34Z</time>
      </trkpt>
      <trkpt lat="43.54938" lon="0.31162">
        <ele>183.27</ele>
        <time>2021-08-19T08:13:37Z</time>
      </trkpt>
      <trkpt lat="43.54938" lon="0.31158">
        <ele>183.27</ele>
        <time>2021-08-19T08:13:38Z</time>
      </trkpt>
      <trkpt lat="43.54938" lon="0.31156">
        <ele>183.27</ele>
        <time>2021-08-19T08:13:39Z</time>
      </trkpt>
      <trkpt lat="43.54939" lon="0.31153">
        <ele>183.27</ele>
        <time>2021-08-19T08:13:40Z</time>
      </trkpt>
      <trkpt lat="43.5494" lon="0.3115">
        <ele>183.75</ele>
        <time>2021-08-19T08:13:41Z</time>
      </trkpt>
      <trkpt lat="43.5494" lon="0.31147">
        <ele>183.75</ele>
        <time>2021-08-19T08:13:42Z</time>
      </trkpt>
      <trkpt lat="43.54942" lon="0.3113">
        <ele>185.19</ele>
        <time>2021-08-19T08:13:49Z</time>
      </trkpt>
      <trkpt lat="43.54942" lon="0.31114">
        <ele>186.15</ele>
        <time>2021-08-19T08:13:57Z</time>
      </trkpt>
      <trkpt lat="43.54941" lon="0.31105">
        <ele>187.59</ele>
        <time>2021-08-19T08:14:03Z</time>
      </trkpt>
      <trkpt lat="43.54941" lon="0.31104">
        <ele>187.59</ele>
        <time>2021-08-19T08:14:04Z</time>
      </trkpt>
      <trkpt lat="43.54941" lon="0.31091">
        <ele>188.08</ele>
        <time>2021-08-19T08:14:13Z</time>
      </trkpt>
      <trkpt lat="43.5494" lon="0.3108">
        <ele>189.04</ele>
        <time>2021-08-19T08:14:21Z</time>
      </trkpt>
      <trkpt lat="43.5494" lon="0.3107">
        <ele>190</ele>
        <time>2021-08-19T08:14:27Z</time>
      </trkpt>
      <trkpt lat="43.54937" lon="0.31061">
        <ele>190.48</ele>
        <time>2021-08-19T08:14:36Z</time>
      </trkpt>
      <trkpt lat="43.54936" lon="0.31054">
        <ele>191.44</ele>
        <time>2021-08-19T08:14:42Z</time>
      </trkpt>
      <trkpt lat="43.54933" lon="0.31038">
        <ele>192.88</ele>
        <time>2021-08-19T08:14:50Z</time>
      </trkpt>
      <trkpt lat="43.5493" lon="0.31022">
        <ele>194.32</ele>
        <time>2021-08-19T08:14:57Z</time>
      </trkpt>
      <trkpt lat="43.54928" lon="0.31012">
        <ele>195.28</ele>
        <time>2021-08-19T08:15:02Z</time>
      </trkpt>
      <trkpt lat="43.54928" lon="0.3101">
        <ele>195.28</ele>
        <time>2021-08-19T08:15:03Z</time>
      </trkpt>
      <trkpt lat="43.54927" lon="0.31008">
        <ele>195.77</ele>
        <time>2021-08-19T08:15:04Z</time>
      </trkpt>
      <trkpt lat="43.54927" lon="0.31007">
        <ele>195.77</ele>
        <time>2021-08-19T08:15:05Z</time>
      </trkpt>
      <trkpt lat="43.54926" lon="0.31005">
        <ele>195.77</ele>
        <time>2021-08-19T08:15:06Z</time>
      </trkpt>
      <trkpt lat="43.54925" lon="0.31003">
        <ele>195.77</ele>
        <time>2021-08-19T08:15:07Z</time>
      </trkpt>
      <trkpt lat="43.54925" lon="0.31001">
        <ele>196.25</ele>
        <time>2021-08-19T08:15:08Z</time>
      </trkpt>
      <trkpt lat="43.54924" lon="0.30999">
        <ele>196.25</ele>
        <time>2021-08-19T08:15:09Z</time>
      </trkpt>
      <trkpt lat="43.5492" lon="0.30982">
        <ele>197.69</ele>
        <time>2021-08-19T08:15:17Z</time>
      </trkpt>
      <trkpt lat="43.54916" lon="0.30968">
        <ele>199.61</ele>
        <time>2021-08-19T08:15:25Z</time>
      </trkpt>
      <trkpt lat="43.54914" lon="0.30965">
        <ele>199.61</ele>
        <time>2021-08-19T08:15:27Z</time>
      </trkpt>
      <trkpt lat="43.54914" lon="0.30963">
        <ele>199.61</ele>
        <time>2021-08-19T08:15:28Z</time>
      </trkpt>
      <trkpt lat="43.54914" lon="0.30961">
        <ele>199.61</ele>
        <time>2021-08-19T08:15:29Z</time>
      </trkpt>
      <trkpt lat="43.54913" lon="0.30959">
        <ele>199.61</ele>
        <time>2021-08-19T08:15:30Z</time>
      </trkpt>
      <trkpt lat="43.54913" lon="0.30956">
        <ele>199.61</ele>
        <time>2021-08-19T08:15:31Z</time>
      </trkpt>
      <trkpt lat="43.54912" lon="0.30954">
        <ele>200.09</ele>
        <time>2021-08-19T08:15:32Z</time>
      </trkpt>
      <trkpt lat="43.54912" lon="0.30952">
        <ele>200.09</ele>
        <time>2021-08-19T08:15:33Z</time>
      </trkpt>
      <trkpt lat="43.54906" lon="0.30934">
        <ele>202.49</ele>
        <time>2021-08-19T08:15:43Z</time>
      </trkpt>
      <trkpt lat="43.54901" lon="0.30917">
        <ele>203.46</ele>
        <time>2021-08-19T08:15:51Z</time>
      </trkpt>
      <trkpt lat="43.54896" lon="0.30902">
        <ele>204.9</ele>
        <time>2021-08-19T08:15:59Z</time>
      </trkpt>
      <trkpt lat="43.5489" lon="0.30886">
        <ele>206.82</ele>
        <time>2021-08-19T08:16:07Z</time>
      </trkpt>
      <trkpt lat="43.54887" lon="0.30879">
        <ele>206.82</ele>
        <time>2021-08-19T08:16:10Z</time>
      </trkpt>
      <trkpt lat="43.54886" lon="0.30877">
        <ele>206.82</ele>
        <time>2021-08-19T08:16:11Z</time>
      </trkpt>
      <trkpt lat="43.54885" lon="0.30875">
        <ele>206.82</ele>
        <time>2021-08-19T08:16:12Z</time>
      </trkpt>
      <trkpt lat="43.54884" lon="0.30874">
        <ele>206.82</ele>
        <time>2021-08-19T08:16:13Z</time>
      </trkpt>
      <trkpt lat="43.54883" lon="0.30871">
        <ele>207.3</ele>
        <time>2021-08-19T08:16:14Z</time>
      </trkpt>
      <trkpt lat="43.54879" lon="0.30852">
        <ele>208.26</ele>
        <time>2021-08-19T08:16:22Z</time>
      </trkpt>
      <trkpt lat="43.54879" lon="0.30829">
        <ele>209.22</ele>
        <time>2021-08-19T08:16:31Z</time>
      </trkpt>
      <trkpt lat="43.5488" lon="0.30811">
        <ele>210.67</ele>
        <time>2021-08-19T08:16:39Z</time>
      </trkpt>
      <trkpt lat="43.54883" lon="0.30793">
        <ele>212.59</ele>
        <time>2021-08-19T08:16:47Z</time>
      </trkpt>
      <trkpt lat="43.54885" lon="0.30788">
        <ele>213.07</ele>
        <time>2021-08-19T08:16:50Z</time>
      </trkpt>
      <trkpt lat="43.54885" lon="0.30786">
        <ele>213.07</ele>
        <time>2021-08-19T08:16:51Z</time>
      </trkpt>
      <trkpt lat="43.5489" lon="0.30766">
        <ele>214.51</ele>
        <time>2021-08-19T08:17:00Z</time>
      </trkpt>
      <trkpt lat="43.54893" lon="0.3074">
        <ele>215.95</ele>
        <time>2021-08-19T08:17:10Z</time>
      </trkpt>
      <trkpt lat="43.54896" lon="0.30719">
        <ele>217.4</ele>
        <time>2021-08-19T08:17:19Z</time>
      </trkpt>
      <trkpt lat="43.54899" lon="0.307">
        <ele>218.84</ele>
        <time>2021-08-19T08:17:28Z</time>
      </trkpt>
      <trkpt lat="43.54902" lon="0.30683">
        <ele>220.28</ele>
        <time>2021-08-19T08:17:36Z</time>
      </trkpt>
      <trkpt lat="43.54906" lon="0.30668">
        <ele>221.24</ele>
        <time>2021-08-19T08:17:43Z</time>
      </trkpt>
      <trkpt lat="43.54913" lon="0.30647">
        <ele>222.68</ele>
        <time>2021-08-19T08:17:52Z</time>
      </trkpt>
      <trkpt lat="43.54922" lon="0.3063">
        <ele>224.61</ele>
        <time>2021-08-19T08:18:01Z</time>
      </trkpt>
      <trkpt lat="43.5493" lon="0.30617">
        <ele>225.09</ele>
        <time>2021-08-19T08:18:08Z</time>
      </trkpt>
      <trkpt lat="43.5494" lon="0.30599">
        <ele>227.01</ele>
        <time>2021-08-19T08:18:17Z</time>
      </trkpt>
      <trkpt lat="43.54941" lon="0.30597">
        <ele>227.01</ele>
        <time>2021-08-19T08:18:18Z</time>
      </trkpt>
      <trkpt lat="43.54942" lon="0.30596">
        <ele>227.01</ele>
        <time>2021-08-19T08:18:19Z</time>
      </trkpt>
      <trkpt lat="43.54944" lon="0.30594">
        <ele>227.01</ele>
        <time>2021-08-19T08:18:20Z</time>
      </trkpt>
      <trkpt lat="43.54945" lon="0.30592">
        <ele>227.01</ele>
        <time>2021-08-19T08:18:21Z</time>
      </trkpt>
      <trkpt lat="43.54946" lon="0.3059">
        <ele>227.01</ele>
        <time>2021-08-19T08:18:22Z</time>
      </trkpt>
      <trkpt lat="43.54948" lon="0.30587">
        <ele>227.49</ele>
        <time>2021-08-19T08:18:23Z</time>
      </trkpt>
      <trkpt lat="43.54949" lon="0.30584">
        <ele>227.49</ele>
        <time>2021-08-19T08:18:24Z</time>
      </trkpt>
      <trkpt lat="43.54951" lon="0.30581">
        <ele>227.49</ele>
        <time>2021-08-19T08:18:25Z</time>
      </trkpt>
      <trkpt lat="43.5496" lon="0.30564">
        <ele>227.49</ele>
        <time>2021-08-19T08:18:31Z</time>
      </trkpt>
      <trkpt lat="43.54976" lon="0.30533">
        <ele>227.49</ele>
        <time>2021-08-19T08:18:40Z</time>
      </trkpt>
      <trkpt lat="43.54987" lon="0.30507">
        <ele>227.97</ele>
        <time>2021-08-19T08:18:47Z</time>
      </trkpt>
      <trkpt lat="43.54995" lon="0.30485">
        <ele>228.93</ele>
        <time>2021-08-19T08:18:54Z</time>
      </trkpt>
      <trkpt lat="43.55003" lon="0.30457">
        <ele>229.89</ele>
        <time>2021-08-19T08:19:01Z</time>
      </trkpt>
      <trkpt lat="43.55008" lon="0.3041">
        <ele>230.85</ele>
        <time>2021-08-19T08:19:10Z</time>
      </trkpt>
      <trkpt lat="43.55007" lon="0.30367">
        <ele>232.3</ele>
        <time>2021-08-19T08:19:19Z</time>
      </trkpt>
      <trkpt lat="43.55005" lon="0.30329">
        <ele>233.74</ele>
        <time>2021-08-19T08:19:28Z</time>
      </trkpt>
      <trkpt lat="43.55" lon="0.30292">
        <ele>234.7</ele>
        <time>2021-08-19T08:19:38Z</time>
      </trkpt>
      <trkpt lat="43.54991" lon="0.30241">
        <ele>235.66</ele>
        <time>2021-08-19T08:19:51Z</time>
      </trkpt>
      <trkpt lat="43.54982" lon="0.30199">
        <ele>237.1</ele>
        <time>2021-08-19T08:20:02Z</time>
      </trkpt>
      <trkpt lat="43.54977" lon="0.30169">
        <ele>239.02</ele>
        <time>2021-08-19T08:20:11Z</time>
      </trkpt>
      <trkpt lat="43.54977" lon="0.30148">
        <ele>240.47</ele>
        <time>2021-08-19T08:20:19Z</time>
      </trkpt>
      <trkpt lat="43.54976" lon="0.30116">
        <ele>241.43</ele>
        <time>2021-08-19T08:20:29Z</time>
      </trkpt>
      <trkpt lat="43.54975" lon="0.3008">
        <ele>242.39</ele>
        <time>2021-08-19T08:20:38Z</time>
      </trkpt>
      <trkpt lat="43.54975" lon="0.30053">
        <ele>244.79</ele>
        <time>2021-08-19T08:20:47Z</time>
      </trkpt>
      <trkpt lat="43.54977" lon="0.3003">
        <ele>246.23</ele>
        <time>2021-08-19T08:20:55Z</time>
      </trkpt>
      <trkpt lat="43.5498" lon="0.29998">
        <ele>248.64</ele>
        <time>2021-08-19T08:21:07Z</time>
      </trkpt>
      <trkpt lat="43.54984" lon="0.29967">
        <ele>250.08</ele>
        <time>2021-08-19T08:21:17Z</time>
      </trkpt>
      <trkpt lat="43.5499" lon="0.29934">
        <ele>250.56</ele>
        <time>2021-08-19T08:21:25Z</time>
      </trkpt>
      <trkpt lat="43.54987" lon="0.29916">
        <ele>252</ele>
        <time>2021-08-19T08:21:32Z</time>
      </trkpt>
      <trkpt lat="43.54973" lon="0.29913">
        <ele>253.93</ele>
        <time>2021-08-19T08:21:39Z</time>
      </trkpt>
      <trkpt lat="43.54951" lon="0.2991">
        <ele>254.89</ele>
        <time>2021-08-19T08:21:49Z</time>
      </trkpt>
      <trkpt lat="43.54933" lon="0.29907">
        <ele>255.85</ele>
        <time>2021-08-19T08:21:56Z</time>
      </trkpt>
      <trkpt lat="43.5491" lon="0.29895">
        <ele>256.33</ele>
        <time>2021-08-19T08:22:04Z</time>
      </trkpt>
      <trkpt lat="43.54889" lon="0.29867">
        <ele>256.33</ele>
        <time>2021-08-19T08:22:12Z</time>
      </trkpt>
      <trkpt lat="43.54876" lon="0.29839">
        <ele>256.33</ele>
        <time>2021-08-19T08:22:19Z</time>
      </trkpt>
      <trkpt lat="43.54863" lon="0.29791">
        <ele>256.33</ele>
        <time>2021-08-19T08:22:27Z</time>
      </trkpt>
      <trkpt lat="43.54857" lon="0.29765">
        <ele>256.33</ele>
        <time>2021-08-19T08:22:31Z</time>
      </trkpt>
      <trkpt lat="43.54855" lon="0.29759">
        <ele>256.33</ele>
        <time>2021-08-19T08:22:32Z</time>
      </trkpt>
      <trkpt lat="43.5484" lon="0.29693">
        <ele>257.29</ele>
        <time>2021-08-19T08:22:43Z</time>
      </trkpt>
      <trkpt lat="43.54835" lon="0.29664">
        <ele>258.25</ele>
        <time>2021-08-19T08:22:50Z</time>
      </trkpt>
      <trkpt lat="43.54828" lon="0.29636">
        <ele>259.69</ele>
        <time>2021-08-19T08:22:59Z</time>
      </trkpt>
      <trkpt lat="43.54822" lon="0.29606">
        <ele>261.62</ele>
        <time>2021-08-19T08:23:09Z</time>
      </trkpt>
      <trkpt lat="43.54815" lon="0.29579">
        <ele>263.06</ele>
        <time>2021-08-19T08:23:18Z</time>
      </trkpt>
      <trkpt lat="43.54811" lon="0.29555">
        <ele>264.02</ele>
        <time>2021-08-19T08:23:25Z</time>
      </trkpt>
      <trkpt lat="43.54802" lon="0.2952">
        <ele>264.98</ele>
        <time>2021-08-19T08:23:35Z</time>
      </trkpt>
      <trkpt lat="43.54802" lon="0.29511">
        <ele>264.98</ele>
        <time>2021-08-19T08:23:38Z</time>
      </trkpt>
      <trkpt lat="43.54803" lon="0.29509">
        <ele>264.98</ele>
        <time>2021-08-19T08:23:39Z</time>
      </trkpt>
      <trkpt lat="43.54805" lon="0.29507">
        <ele>264.98</ele>
        <time>2021-08-19T08:23:40Z</time>
      </trkpt>
      <trkpt lat="43.5482" lon="0.2949">
        <ele>262.58</ele>
        <time>2021-08-19T08:23:45Z</time>
      </trkpt>
      <trkpt lat="43.54823" lon="0.29484">
        <ele>262.58</ele>
        <time>2021-08-19T08:23:46Z</time>
      </trkpt>
      <trkpt lat="43.54826" lon="0.29478">
        <ele>262.58</ele>
        <time>2021-08-19T08:23:47Z</time>
      </trkpt>
      <trkpt lat="43.54827" lon="0.29471">
        <ele>262.58</ele>
        <time>2021-08-19T08:23:48Z</time>
      </trkpt>
      <trkpt lat="43.54828" lon="0.29463">
        <ele>262.58</ele>
        <time>2021-08-19T08:23:49Z</time>
      </trkpt>
      <trkpt lat="43.54829" lon="0.29456">
        <ele>262.58</ele>
        <time>2021-08-19T08:23:50Z</time>
      </trkpt>
      <trkpt lat="43.5483" lon="0.29436">
        <ele>262.58</ele>
        <time>2021-08-19T08:23:53Z</time>
      </trkpt>
      <trkpt lat="43.5483" lon="0.2943">
        <ele>262.58</ele>
        <time>2021-08-19T08:23:54Z</time>
      </trkpt>
      <trkpt lat="43.54828" lon="0.29405">
        <ele>263.54</ele>
        <time>2021-08-19T08:23:59Z</time>
      </trkpt>
      <trkpt lat="43.54828" lon="0.29363">
        <ele>264.98</ele>
        <time>2021-08-19T08:24:07Z</time>
      </trkpt>
      <trkpt lat="43.54839" lon="0.29334">
        <ele>264.98</ele>
        <time>2021-08-19T08:24:13Z</time>
      </trkpt>
      <trkpt lat="43.54841" lon="0.29328">
        <ele>264.98</ele>
        <time>2021-08-19T08:24:14Z</time>
      </trkpt>
      <trkpt lat="43.5484" lon="0.29322">
        <ele>264.98</ele>
        <time>2021-08-19T08:24:15Z</time>
      </trkpt>
      <trkpt lat="43.54838" lon="0.29317">
        <ele>264.98</ele>
        <time>2021-08-19T08:24:16Z</time>
      </trkpt>
      <trkpt lat="43.54836" lon="0.29314">
        <ele>265.94</ele>
        <time>2021-08-19T08:24:17Z</time>
      </trkpt>
      <trkpt lat="43.54833" lon="0.29311">
        <ele>265.94</ele>
        <time>2021-08-19T08:24:18Z</time>
      </trkpt>
      <trkpt lat="43.54831" lon="0.29309">
        <ele>266.42</ele>
        <time>2021-08-19T08:24:19Z</time>
      </trkpt>
      <trkpt lat="43.54829" lon="0.29307">
        <ele>266.42</ele>
        <time>2021-08-19T08:24:20Z</time>
      </trkpt>
      <trkpt lat="43.5482" lon="0.29294">
        <ele>268.35</ele>
        <time>2021-08-19T08:24:27Z</time>
      </trkpt>
      <trkpt lat="43.54813" lon="0.29279">
        <ele>269.31</ele>
        <time>2021-08-19T08:24:34Z</time>
      </trkpt>
      <trkpt lat="43.54799" lon="0.29266">
        <ele>270.75</ele>
        <time>2021-08-19T08:24:42Z</time>
      </trkpt>
      <trkpt lat="43.54794" lon="0.29266">
        <ele>271.23</ele>
        <time>2021-08-19T08:24:45Z</time>
      </trkpt>
      <trkpt lat="43.54792" lon="0.29265">
        <ele>271.23</ele>
        <time>2021-08-19T08:24:46Z</time>
      </trkpt>
      <trkpt lat="43.54791" lon="0.29262">
        <ele>271.23</ele>
        <time>2021-08-19T08:24:47Z</time>
      </trkpt>
      <trkpt lat="43.5479" lon="0.29259">
        <ele>271.23</ele>
        <time>2021-08-19T08:24:48Z</time>
      </trkpt>
      <trkpt lat="43.5479" lon="0.29255">
        <ele>271.23</ele>
        <time>2021-08-19T08:24:49Z</time>
      </trkpt>
      <trkpt lat="43.54791" lon="0.29252">
        <ele>271.23</ele>
        <time>2021-08-19T08:24:50Z</time>
      </trkpt>
      <trkpt lat="43.54793" lon="0.29233">
        <ele>267.86</ele>
        <time>2021-08-19T08:24:54Z</time>
      </trkpt>
      <trkpt lat="43.54797" lon="0.29205">
        <ele>266.42</ele>
        <time>2021-08-19T08:24:58Z</time>
      </trkpt>
      <trkpt lat="43.54802" lon="0.29148">
        <ele>264.02</ele>
        <time>2021-08-19T08:25:04Z</time>
      </trkpt>
      <trkpt lat="43.54808" lon="0.29091">
        <ele>262.58</ele>
        <time>2021-08-19T08:25:10Z</time>
      </trkpt>
      <trkpt lat="43.54809" lon="0.29082">
        <ele>262.58</ele>
        <time>2021-08-19T08:25:11Z</time>
      </trkpt>
      <trkpt lat="43.54811" lon="0.29073">
        <ele>262.58</ele>
        <time>2021-08-19T08:25:12Z</time>
      </trkpt>
      <trkpt lat="43.54814" lon="0.29065">
        <ele>261.62</ele>
        <time>2021-08-19T08:25:13Z</time>
      </trkpt>
      <trkpt lat="43.54817" lon="0.29055">
        <ele>260.65</ele>
        <time>2021-08-19T08:25:14Z</time>
      </trkpt>
      <trkpt lat="43.54818" lon="0.29045">
        <ele>259.21</ele>
        <time>2021-08-19T08:25:15Z</time>
      </trkpt>
      <trkpt lat="43.54819" lon="0.29034">
        <ele>258.73</ele>
        <time>2021-08-19T08:25:16Z</time>
      </trkpt>
      <trkpt lat="43.54819" lon="0.29024">
        <ele>258.25</ele>
        <time>2021-08-19T08:25:17Z</time>
      </trkpt>
      <trkpt lat="43.5482" lon="0.29013">
        <ele>257.77</ele>
        <time>2021-08-19T08:25:18Z</time>
      </trkpt>
      <trkpt lat="43.54824" lon="0.28975">
        <ele>255.85</ele>
        <time>2021-08-19T08:25:21Z</time>
      </trkpt>
      <trkpt lat="43.54824" lon="0.28961">
        <ele>255.37</ele>
        <time>2021-08-19T08:25:22Z</time>
      </trkpt>
      <trkpt lat="43.54823" lon="0.28908">
        <ele>252.48</ele>
        <time>2021-08-19T08:25:26Z</time>
      </trkpt>
      <trkpt lat="43.54819" lon="0.28856">
        <ele>250.08</ele>
        <time>2021-08-19T08:25:30Z</time>
      </trkpt>
      <trkpt lat="43.54818" lon="0.28846">
        <ele>249.12</ele>
        <time>2021-08-19T08:25:31Z</time>
      </trkpt>
      <trkpt lat="43.54815" lon="0.28836">
        <ele>249.12</ele>
        <time>2021-08-19T08:25:32Z</time>
      </trkpt>
      <trkpt lat="43.54812" lon="0.28826">
        <ele>248.16</ele>
        <time>2021-08-19T08:25:33Z</time>
      </trkpt>
      <trkpt lat="43.5481" lon="0.28815">
        <ele>248.16</ele>
        <time>2021-08-19T08:25:34Z</time>
      </trkpt>
      <trkpt lat="43.54809" lon="0.28805">
        <ele>247.2</ele>
        <time>2021-08-19T08:25:35Z</time>
      </trkpt>
      <trkpt lat="43.54807" lon="0.28795">
        <ele>247.2</ele>
        <time>2021-08-19T08:25:36Z</time>
      </trkpt>
      <trkpt lat="43.54806" lon="0.28785">
        <ele>247.2</ele>
        <time>2021-08-19T08:25:37Z</time>
      </trkpt>
      <trkpt lat="43.54805" lon="0.28775">
        <ele>247.2</ele>
        <time>2021-08-19T08:25:38Z</time>
      </trkpt>
      <trkpt lat="43.54794" lon="0.287">
        <ele>244.31</ele>
        <time>2021-08-19T08:25:45Z</time>
      </trkpt>
      <trkpt lat="43.5479" lon="0.28659">
        <ele>242.87</ele>
        <time>2021-08-19T08:25:49Z</time>
      </trkpt>
      <trkpt lat="43.54787" lon="0.2865">
        <ele>242.87</ele>
        <time>2021-08-19T08:25:50Z</time>
      </trkpt>
      <trkpt lat="43.54779" lon="0.28633">
        <ele>242.39</ele>
        <time>2021-08-19T08:25:52Z</time>
      </trkpt>
      <trkpt lat="43.54764" lon="0.28588">
        <ele>243.35</ele>
        <time>2021-08-19T08:25:58Z</time>
      </trkpt>
      <trkpt lat="43.54756" lon="0.2856">
        <ele>244.31</ele>
        <time>2021-08-19T08:26:04Z</time>
      </trkpt>
      <trkpt lat="43.54753" lon="0.28536">
        <ele>245.27</ele>
        <time>2021-08-19T08:26:10Z</time>
      </trkpt>
      <trkpt lat="43.54756" lon="0.2851">
        <ele>245.75</ele>
        <time>2021-08-19T08:26:17Z</time>
      </trkpt>
      <trkpt lat="43.54758" lon="0.28506">
        <ele>245.75</ele>
        <time>2021-08-19T08:26:20Z</time>
      </trkpt>
      <trkpt lat="43.5476" lon="0.28493">
        <ele>245.27</ele>
        <time>2021-08-19T08:26:26Z</time>
      </trkpt>
      <trkpt lat="43.54763" lon="0.28486">
        <ele>245.27</ele>
        <time>2021-08-19T08:26:28Z</time>
      </trkpt>
      <trkpt lat="43.5476" lon="0.28467">
        <ele>241.43</ele>
        <time>2021-08-19T08:26:33Z</time>
      </trkpt>
      <trkpt lat="43.54747" lon="0.28456">
        <ele>237.58</ele>
        <time>2021-08-19T08:26:37Z</time>
      </trkpt>
      <trkpt lat="43.54742" lon="0.28449">
        <ele>235.66</ele>
        <time>2021-08-19T08:26:40Z</time>
      </trkpt>
      <trkpt lat="43.54738" lon="0.2844">
        <ele>233.26</ele>
        <time>2021-08-19T08:26:44Z</time>
      </trkpt>
      <trkpt lat="43.5473" lon="0.28432">
        <ele>229.41</ele>
        <time>2021-08-19T08:26:48Z</time>
      </trkpt>
      <trkpt lat="43.54724" lon="0.28431">
        <ele>226.05</ele>
        <time>2021-08-19T08:26:51Z</time>
      </trkpt>
      <trkpt lat="43.54722" lon="0.28432">
        <ele>225.09</ele>
        <time>2021-08-19T08:26:52Z</time>
      </trkpt>
      <trkpt lat="43.54706" lon="0.28441">
        <ele>220.76</ele>
        <time>2021-08-19T08:26:57Z</time>
      </trkpt>
      <trkpt lat="43.54695" lon="0.28439">
        <ele>216.91</ele>
        <time>2021-08-19T08:27:01Z</time>
      </trkpt>
      <trkpt lat="43.54685" lon="0.28433">
        <ele>213.55</ele>
        <time>2021-08-19T08:27:05Z</time>
      </trkpt>
      <trkpt lat="43.54684" lon="0.28427">
        <ele>212.59</ele>
        <time>2021-08-19T08:27:06Z</time>
      </trkpt>
      <trkpt lat="43.54685" lon="0.28422">
        <ele>212.11</ele>
        <time>2021-08-19T08:27:07Z</time>
      </trkpt>
      <trkpt lat="43.54687" lon="0.28418">
        <ele>212.11</ele>
        <time>2021-08-19T08:27:08Z</time>
      </trkpt>
      <trkpt lat="43.5469" lon="0.28415">
        <ele>212.11</ele>
        <time>2021-08-19T08:27:09Z</time>
      </trkpt>
      <trkpt lat="43.54693" lon="0.28411">
        <ele>211.63</ele>
        <time>2021-08-19T08:27:10Z</time>
      </trkpt>
      <trkpt lat="43.54695" lon="0.28408">
        <ele>210.67</ele>
        <time>2021-08-19T08:27:11Z</time>
      </trkpt>
      <trkpt lat="43.54697" lon="0.28403">
        <ele>210.19</ele>
        <time>2021-08-19T08:27:12Z</time>
      </trkpt>
      <trkpt lat="43.54697" lon="0.28385">
        <ele>207.3</ele>
        <time>2021-08-19T08:27:16Z</time>
      </trkpt>
      <trkpt lat="43.54694" lon="0.28383">
        <ele>206.82</ele>
        <time>2021-08-19T08:27:17Z</time>
      </trkpt>
      <trkpt lat="43.54684" lon="0.28383">
        <ele>203.94</ele>
        <time>2021-08-19T08:27:20Z</time>
      </trkpt>
      <trkpt lat="43.54682" lon="0.28381">
        <ele>203.46</ele>
        <time>2021-08-19T08:27:21Z</time>
      </trkpt>
      <trkpt lat="43.54679" lon="0.28379">
        <ele>202.49</ele>
        <time>2021-08-19T08:27:22Z</time>
      </trkpt>
      <trkpt lat="43.54676" lon="0.28374">
        <ele>201.53</ele>
        <time>2021-08-19T08:27:23Z</time>
      </trkpt>
      <trkpt lat="43.54673" lon="0.28369">
        <ele>200.57</ele>
        <time>2021-08-19T08:27:24Z</time>
      </trkpt>
      <trkpt lat="43.5467" lon="0.28362">
        <ele>199.61</ele>
        <time>2021-08-19T08:27:25Z</time>
      </trkpt>
      <trkpt lat="43.54668" lon="0.28356">
        <ele>199.13</ele>
        <time>2021-08-19T08:27:26Z</time>
      </trkpt>
      <trkpt lat="43.54668" lon="0.2835">
        <ele>198.17</ele>
        <time>2021-08-19T08:27:27Z</time>
      </trkpt>
      <trkpt lat="43.54669" lon="0.28343">
        <ele>197.21</ele>
        <time>2021-08-19T08:27:28Z</time>
      </trkpt>
      <trkpt lat="43.54667" lon="0.28337">
        <ele>196.73</ele>
        <time>2021-08-19T08:27:29Z</time>
      </trkpt>
      <trkpt lat="43.54665" lon="0.2833">
        <ele>196.25</ele>
        <time>2021-08-19T08:27:30Z</time>
      </trkpt>
      <trkpt lat="43.54658" lon="0.28315">
        <ele>194.8</ele>
        <time>2021-08-19T08:27:32Z</time>
      </trkpt>
      <trkpt lat="43.54655" lon="0.28308">
        <ele>194.8</ele>
        <time>2021-08-19T08:27:33Z</time>
      </trkpt>
      <trkpt lat="43.54652" lon="0.283">
        <ele>194.32</ele>
        <time>2021-08-19T08:27:34Z</time>
      </trkpt>
      <trkpt lat="43.54648" lon="0.28294">
        <ele>194.32</ele>
        <time>2021-08-19T08:27:35Z</time>
      </trkpt>
      <trkpt lat="43.54645" lon="0.28289">
        <ele>194.32</ele>
        <time>2021-08-19T08:27:36Z</time>
      </trkpt>
      <trkpt lat="43.54641" lon="0.28286">
        <ele>194.32</ele>
        <time>2021-08-19T08:27:37Z</time>
      </trkpt>
      <trkpt lat="43.54637" lon="0.28283">
        <ele>194.32</ele>
        <time>2021-08-19T08:27:38Z</time>
      </trkpt>
      <trkpt lat="43.54621" lon="0.28277">
        <ele>194.32</ele>
        <time>2021-08-19T08:27:43Z</time>
      </trkpt>
      <trkpt lat="43.54616" lon="0.2828">
        <ele>195.77</ele>
        <time>2021-08-19T08:27:45Z</time>
      </trkpt>
      <trkpt lat="43.54606" lon="0.28283">
        <ele>195.77</ele>
        <time>2021-08-19T08:27:49Z</time>
      </trkpt>
      <trkpt lat="43.54604" lon="0.28283">
        <ele>195.77</ele>
        <time>2021-08-19T08:27:50Z</time>
      </trkpt>
      <trkpt lat="43.54603" lon="0.28281">
        <ele>195.77</ele>
        <time>2021-08-19T08:27:51Z</time>
      </trkpt>
      <trkpt lat="43.54601" lon="0.28279">
        <ele>196.25</ele>
        <time>2021-08-19T08:27:52Z</time>
      </trkpt>
      <trkpt lat="43.546" lon="0.28277">
        <ele>196.25</ele>
        <time>2021-08-19T08:27:53Z</time>
      </trkpt>
      <trkpt lat="43.54599" lon="0.28275">
        <ele>196.25</ele>
        <time>2021-08-19T08:27:54Z</time>
      </trkpt>
      <trkpt lat="43.54598" lon="0.28273">
        <ele>196.73</ele>
        <time>2021-08-19T08:27:55Z</time>
      </trkpt>
      <trkpt lat="43.54598" lon="0.28271">
        <ele>196.73</ele>
        <time>2021-08-19T08:27:56Z</time>
      </trkpt>
      <trkpt lat="43.54597" lon="0.28269">
        <ele>196.73</ele>
        <time>2021-08-19T08:27:57Z</time>
      </trkpt>
      <trkpt lat="43.54596" lon="0.28267">
        <ele>196.73</ele>
        <time>2021-08-19T08:27:58Z</time>
      </trkpt>
      <trkpt lat="43.54595" lon="0.28265">
        <ele>197.21</ele>
        <time>2021-08-19T08:27:59Z</time>
      </trkpt>
      <trkpt lat="43.54593" lon="0.28263">
        <ele>197.21</ele>
        <time>2021-08-19T08:28:00Z</time>
      </trkpt>
      <trkpt lat="43.54592" lon="0.28261">
        <ele>197.21</ele>
        <time>2021-08-19T08:28:01Z</time>
      </trkpt>
      <trkpt lat="43.54583" lon="0.28247">
        <ele>198.17</ele>
        <time>2021-08-19T08:28:09Z</time>
      </trkpt>
      <trkpt lat="43.54576" lon="0.28237">
        <ele>199.13</ele>
        <time>2021-08-19T08:28:15Z</time>
      </trkpt>
      <trkpt lat="43.54574" lon="0.28237">
        <ele>199.13</ele>
        <time>2021-08-19T08:28:16Z</time>
      </trkpt>
      <trkpt lat="43.54573" lon="0.28235">
        <ele>199.13</ele>
        <time>2021-08-19T08:28:17Z</time>
      </trkpt>
      <trkpt lat="43.54572" lon="0.28233">
        <ele>199.61</ele>
        <time>2021-08-19T08:28:18Z</time>
      </trkpt>
      <trkpt lat="43.54571" lon="0.28232">
        <ele>199.61</ele>
        <time>2021-08-19T08:28:19Z</time>
      </trkpt>
      <trkpt lat="43.54567" lon="0.28224">
        <ele>199.61</ele>
        <time>2021-08-19T08:28:23Z</time>
      </trkpt>
      <trkpt lat="43.54562" lon="0.28217">
        <ele>200.09</ele>
        <time>2021-08-19T08:28:28Z</time>
      </trkpt>
      <trkpt lat="43.5456" lon="0.28209">
        <ele>200.09</ele>
        <time>2021-08-19T08:28:32Z</time>
      </trkpt>
      <trkpt lat="43.5456" lon="0.28207">
        <ele>200.09</ele>
        <time>2021-08-19T08:28:33Z</time>
      </trkpt>
      <trkpt lat="43.5456" lon="0.28205">
        <ele>200.09</ele>
        <time>2021-08-19T08:28:34Z</time>
      </trkpt>
      <trkpt lat="43.54559" lon="0.28196">
        <ele>201.53</ele>
        <time>2021-08-19T08:28:41Z</time>
      </trkpt>
      <trkpt lat="43.54558" lon="0.28189">
        <ele>202.01</ele>
        <time>2021-08-19T08:28:46Z</time>
      </trkpt>
      <trkpt lat="43.54558" lon="0.28176">
        <ele>202.98</ele>
        <time>2021-08-19T08:28:53Z</time>
      </trkpt>
      <trkpt lat="43.54561" lon="0.28159">
        <ele>204.42</ele>
        <time>2021-08-19T08:29:01Z</time>
      </trkpt>
      <trkpt lat="43.54561" lon="0.28148">
        <ele>205.38</ele>
        <time>2021-08-19T08:29:08Z</time>
      </trkpt>
      <trkpt lat="43.54561" lon="0.28135">
        <ele>206.82</ele>
        <time>2021-08-19T08:29:15Z</time>
      </trkpt>
      <trkpt lat="43.54561" lon="0.28133">
        <ele>206.82</ele>
        <time>2021-08-19T08:29:16Z</time>
      </trkpt>
      <trkpt lat="43.5456" lon="0.28131">
        <ele>206.82</ele>
        <time>2021-08-19T08:29:17Z</time>
      </trkpt>
      <trkpt lat="43.5456" lon="0.28128">
        <ele>207.3</ele>
        <time>2021-08-19T08:29:18Z</time>
      </trkpt>
      <trkpt lat="43.5456" lon="0.28126">
        <ele>207.3</ele>
        <time>2021-08-19T08:29:19Z</time>
      </trkpt>
      <trkpt lat="43.5456" lon="0.28124">
        <ele>207.3</ele>
        <time>2021-08-19T08:29:20Z</time>
      </trkpt>
      <trkpt lat="43.5456" lon="0.28122">
        <ele>207.78</ele>
        <time>2021-08-19T08:29:21Z</time>
      </trkpt>
      <trkpt lat="43.5456" lon="0.28119">
        <ele>207.78</ele>
        <time>2021-08-19T08:29:22Z</time>
      </trkpt>
      <trkpt lat="43.5456" lon="0.28117">
        <ele>207.78</ele>
        <time>2021-08-19T08:29:23Z</time>
      </trkpt>
      <trkpt lat="43.54559" lon="0.28115">
        <ele>208.26</ele>
        <time>2021-08-19T08:29:24Z</time>
      </trkpt>
      <trkpt lat="43.54559" lon="0.28113">
        <ele>208.26</ele>
        <time>2021-08-19T08:29:25Z</time>
      </trkpt>
      <trkpt lat="43.54559" lon="0.2811">
        <ele>208.26</ele>
        <time>2021-08-19T08:29:26Z</time>
      </trkpt>
      <trkpt lat="43.54556" lon="0.28095">
        <ele>208.26</ele>
        <time>2021-08-19T08:29:31Z</time>
      </trkpt>
      <trkpt lat="43.54556" lon="0.28092">
        <ele>208.26</ele>
        <time>2021-08-19T08:29:32Z</time>
      </trkpt>
      <trkpt lat="43.54556" lon="0.28089">
        <ele>208.74</ele>
        <time>2021-08-19T08:29:33Z</time>
      </trkpt>
      <trkpt lat="43.54555" lon="0.28086">
        <ele>208.74</ele>
        <time>2021-08-19T08:29:34Z</time>
      </trkpt>
      <trkpt lat="43.54555" lon="0.28083">
        <ele>208.74</ele>
        <time>2021-08-19T08:29:35Z</time>
      </trkpt>
      <trkpt lat="43.54555" lon="0.2808">
        <ele>208.74</ele>
        <time>2021-08-19T08:29:36Z</time>
      </trkpt>
      <trkpt lat="43.54556" lon="0.28076">
        <ele>209.22</ele>
        <time>2021-08-19T08:29:37Z</time>
      </trkpt>
      <trkpt lat="43.54556" lon="0.28072">
        <ele>209.22</ele>
        <time>2021-08-19T08:29:38Z</time>
      </trkpt>
      <trkpt lat="43.54558" lon="0.28048">
        <ele>209.7</ele>
        <time>2021-08-19T08:29:45Z</time>
      </trkpt>
      <trkpt lat="43.54561" lon="0.28027">
        <ele>210.67</ele>
        <time>2021-08-19T08:29:52Z</time>
      </trkpt>
      <trkpt lat="43.54559" lon="0.2801">
        <ele>212.11</ele>
        <time>2021-08-19T08:29:58Z</time>
      </trkpt>
      <trkpt lat="43.54552" lon="0.27991">
        <ele>213.07</ele>
        <time>2021-08-19T08:30:06Z</time>
      </trkpt>
      <trkpt lat="43.54548" lon="0.2798">
        <ele>213.55</ele>
        <time>2021-08-19T08:30:12Z</time>
      </trkpt>
      <trkpt lat="43.54537" lon="0.27964">
        <ele>215.47</ele>
        <time>2021-08-19T08:30:20Z</time>
      </trkpt>
      <trkpt lat="43.54531" lon="0.27952">
        <ele>216.43</ele>
        <time>2021-08-19T08:30:26Z</time>
      </trkpt>
      <trkpt lat="43.54522" lon="0.27935">
        <ele>217.4</ele>
        <time>2021-08-19T08:30:34Z</time>
      </trkpt>
      <trkpt lat="43.54512" lon="0.2792">
        <ele>218.36</ele>
        <time>2021-08-19T08:30:42Z</time>
      </trkpt>
      <trkpt lat="43.54505" lon="0.27911">
        <ele>218.84</ele>
        <time>2021-08-19T08:30:47Z</time>
      </trkpt>
      <trkpt lat="43.54491" lon="0.27899">
        <ele>220.76</ele>
        <time>2021-08-19T08:30:55Z</time>
      </trkpt>
      <trkpt lat="43.54476" lon="0.27883">
        <ele>221.72</ele>
        <time>2021-08-19T08:31:04Z</time>
      </trkpt>
      <trkpt lat="43.54474" lon="0.2788">
        <ele>222.2</ele>
        <time>2021-08-19T08:31:05Z</time>
      </trkpt>
      <trkpt lat="43.54461" lon="0.27869">
        <ele>222.68</ele>
        <time>2021-08-19T08:31:11Z</time>
      </trkpt>
      <trkpt lat="43.54459" lon="0.27868">
        <ele>222.68</ele>
        <time>2021-08-19T08:31:12Z</time>
      </trkpt>
      <trkpt lat="43.54446" lon="0.27857">
        <ele>223.64</ele>
        <time>2021-08-19T08:31:20Z</time>
      </trkpt>
      <trkpt lat="43.54432" lon="0.27847">
        <ele>225.09</ele>
        <time>2021-08-19T08:31:27Z</time>
      </trkpt>
      <trkpt lat="43.54424" lon="0.27841">
        <ele>225.57</ele>
        <time>2021-08-19T08:31:31Z</time>
      </trkpt>
      <trkpt lat="43.5442" lon="0.27837">
        <ele>226.53</ele>
        <time>2021-08-19T08:31:34Z</time>
      </trkpt>
      <trkpt lat="43.54418" lon="0.27835">
        <ele>226.53</ele>
        <time>2021-08-19T08:31:35Z</time>
      </trkpt>
      <trkpt lat="43.54416" lon="0.27833">
        <ele>227.01</ele>
        <time>2021-08-19T08:31:36Z</time>
      </trkpt>
      <trkpt lat="43.54413" lon="0.2783">
        <ele>227.01</ele>
        <time>2021-08-19T08:31:37Z</time>
      </trkpt>
      <trkpt lat="43.54411" lon="0.27828">
        <ele>227.01</ele>
        <time>2021-08-19T08:31:38Z</time>
      </trkpt>
      <trkpt lat="43.54409" lon="0.27824">
        <ele>227.97</ele>
        <time>2021-08-19T08:31:39Z</time>
      </trkpt>
      <trkpt lat="43.54407" lon="0.27822">
        <ele>228.45</ele>
        <time>2021-08-19T08:31:40Z</time>
      </trkpt>
      <trkpt lat="43.54406" lon="0.27819">
        <ele>228.45</ele>
        <time>2021-08-19T08:31:41Z</time>
      </trkpt>
      <trkpt lat="43.54399" lon="0.27805">
        <ele>229.41</ele>
        <time>2021-08-19T08:31:47Z</time>
      </trkpt>
      <trkpt lat="43.54394" lon="0.27791">
        <ele>230.85</ele>
        <time>2021-08-19T08:31:53Z</time>
      </trkpt>
      <trkpt lat="43.54393" lon="0.27789">
        <ele>231.33</ele>
        <time>2021-08-19T08:31:54Z</time>
      </trkpt>
      <trkpt lat="43.54392" lon="0.27787">
        <ele>231.33</ele>
        <time>2021-08-19T08:31:55Z</time>
      </trkpt>
      <trkpt lat="43.54391" lon="0.27785">
        <ele>231.33</ele>
        <time>2021-08-19T08:31:56Z</time>
      </trkpt>
      <trkpt lat="43.5439" lon="0.27783">
        <ele>231.33</ele>
        <time>2021-08-19T08:31:57Z</time>
      </trkpt>
      <trkpt lat="43.54386" lon="0.27772">
        <ele>232.3</ele>
        <time>2021-08-19T08:32:02Z</time>
      </trkpt>
      <trkpt lat="43.54386" lon="0.2777">
        <ele>232.3</ele>
        <time>2021-08-19T08:32:03Z</time>
      </trkpt>
      <trkpt lat="43.54385" lon="0.27767">
        <ele>232.3</ele>
        <time>2021-08-19T08:32:04Z</time>
      </trkpt>
      <trkpt lat="43.54384" lon="0.27745">
        <ele>233.26</ele>
        <time>2021-08-19T08:32:12Z</time>
      </trkpt>
      <trkpt lat="43.54385" lon="0.27728">
        <ele>234.22</ele>
        <time>2021-08-19T08:32:18Z</time>
      </trkpt>
      <trkpt lat="43.54382" lon="0.27714">
        <ele>235.66</ele>
        <time>2021-08-19T08:32:26Z</time>
      </trkpt>
      <trkpt lat="43.54381" lon="0.27708">
        <ele>236.62</ele>
        <time>2021-08-19T08:32:30Z</time>
      </trkpt>
      <trkpt lat="43.54381" lon="0.27707">
        <ele>237.1</ele>
        <time>2021-08-19T08:32:31Z</time>
      </trkpt>
      <trkpt lat="43.54378" lon="0.27696">
        <ele>238.54</ele>
        <time>2021-08-19T08:32:39Z</time>
      </trkpt>
      <trkpt lat="43.54377" lon="0.27694">
        <ele>239.02</ele>
        <time>2021-08-19T08:32:40Z</time>
      </trkpt>
      <trkpt lat="43.54376" lon="0.27691">
        <ele>239.02</ele>
        <time>2021-08-19T08:32:41Z</time>
      </trkpt>
      <trkpt lat="43.54375" lon="0.27689">
        <ele>239.02</ele>
        <time>2021-08-19T08:32:42Z</time>
      </trkpt>
      <trkpt lat="43.54375" lon="0.27687">
        <ele>239.02</ele>
        <time>2021-08-19T08:32:43Z</time>
      </trkpt>
      <trkpt lat="43.5437" lon="0.27669">
        <ele>239.99</ele>
        <time>2021-08-19T08:32:50Z</time>
      </trkpt>
      <trkpt lat="43.54367" lon="0.27646">
        <ele>240.95</ele>
        <time>2021-08-19T08:32:58Z</time>
      </trkpt>
      <trkpt lat="43.54362" lon="0.27619">
        <ele>241.91</ele>
        <time>2021-08-19T08:33:07Z</time>
      </trkpt>
      <trkpt lat="43.54357" lon="0.27592">
        <ele>242.87</ele>
        <time>2021-08-19T08:33:15Z</time>
      </trkpt>
      <trkpt lat="43.54353" lon="0.27569">
        <ele>243.83</ele>
        <time>2021-08-19T08:33:21Z</time>
      </trkpt>
      <trkpt lat="43.54349" lon="0.27529">
        <ele>244.31</ele>
        <time>2021-08-19T08:33:30Z</time>
      </trkpt>
      <trkpt lat="43.54347" lon="0.27497">
        <ele>244.79</ele>
        <time>2021-08-19T08:33:37Z</time>
      </trkpt>
      <trkpt lat="43.54346" lon="0.27459">
        <ele>245.27</ele>
        <time>2021-08-19T08:33:45Z</time>
      </trkpt>
      <trkpt lat="43.54341" lon="0.27437">
        <ele>246.23</ele>
        <time>2021-08-19T08:33:51Z</time>
      </trkpt>
      <trkpt lat="43.54339" lon="0.27432">
        <ele>246.23</ele>
        <time>2021-08-19T08:33:52Z</time>
      </trkpt>
      <trkpt lat="43.54338" lon="0.27408">
        <ele>246.23</ele>
        <time>2021-08-19T08:33:56Z</time>
      </trkpt>
      <trkpt lat="43.54343" lon="0.27379">
        <ele>246.72</ele>
        <time>2021-08-19T08:34:02Z</time>
      </trkpt>
      <trkpt lat="43.54344" lon="0.27344">
        <ele>247.2</ele>
        <time>2021-08-19T08:34:09Z</time>
      </trkpt>
      <trkpt lat="43.54343" lon="0.27332">
        <ele>247.2</ele>
        <time>2021-08-19T08:34:11Z</time>
      </trkpt>
      <trkpt lat="43.54342" lon="0.2729">
        <ele>247.68</ele>
        <time>2021-08-19T08:34:18Z</time>
      </trkpt>
      <trkpt lat="43.54343" lon="0.27257">
        <ele>248.64</ele>
        <time>2021-08-19T08:34:25Z</time>
      </trkpt>
      <trkpt lat="43.54337" lon="0.27229">
        <ele>249.12</ele>
        <time>2021-08-19T08:34:31Z</time>
      </trkpt>
      <trkpt lat="43.54328" lon="0.27199">
        <ele>249.6</ele>
        <time>2021-08-19T08:34:38Z</time>
      </trkpt>
      <trkpt lat="43.54325" lon="0.27178">
        <ele>249.6</ele>
        <time>2021-08-19T08:34:43Z</time>
      </trkpt>
      <trkpt lat="43.54319" lon="0.27144">
        <ele>250.08</ele>
        <time>2021-08-19T08:34:49Z</time>
      </trkpt>
      <trkpt lat="43.54306" lon="0.27103">
        <ele>250.08</ele>
        <time>2021-08-19T08:34:56Z</time>
      </trkpt>
      <trkpt lat="43.54301" lon="0.27092">
        <ele>250.08</ele>
        <time>2021-08-19T08:34:58Z</time>
      </trkpt>
      <trkpt lat="43.54292" lon="0.27074">
        <ele>250.08</ele>
        <time>2021-08-19T08:35:01Z</time>
      </trkpt>
      <trkpt lat="43.54289" lon="0.2707">
        <ele>250.56</ele>
        <time>2021-08-19T08:35:02Z</time>
      </trkpt>
      <trkpt lat="43.54283" lon="0.27061">
        <ele>250.56</ele>
        <time>2021-08-19T08:35:05Z</time>
      </trkpt>
      <trkpt lat="43.5428" lon="0.27059">
        <ele>250.56</ele>
        <time>2021-08-19T08:35:06Z</time>
      </trkpt>
      <trkpt lat="43.54262" lon="0.27048">
        <ele>251.04</ele>
        <time>2021-08-19T08:35:11Z</time>
      </trkpt>
      <trkpt lat="43.54249" lon="0.27039">
        <ele>252</ele>
        <time>2021-08-19T08:35:17Z</time>
      </trkpt>
      <trkpt lat="43.54242" lon="0.27028">
        <ele>253.93</ele>
        <time>2021-08-19T08:35:23Z</time>
      </trkpt>
      <trkpt lat="43.54228" lon="0.27009">
        <ele>255.85</ele>
        <time>2021-08-19T08:35:32Z</time>
      </trkpt>
      <trkpt lat="43.54223" lon="0.26995">
        <ele>256.81</ele>
        <time>2021-08-19T08:35:38Z</time>
      </trkpt>
      <trkpt lat="43.5422" lon="0.2699">
        <ele>257.29</ele>
        <time>2021-08-19T08:35:40Z</time>
      </trkpt>
      <trkpt lat="43.54218" lon="0.26988">
        <ele>257.77</ele>
        <time>2021-08-19T08:35:41Z</time>
      </trkpt>
      <trkpt lat="43.54216" lon="0.26985">
        <ele>257.77</ele>
        <time>2021-08-19T08:35:42Z</time>
      </trkpt>
      <trkpt lat="43.54214" lon="0.26983">
        <ele>257.77</ele>
        <time>2021-08-19T08:35:43Z</time>
      </trkpt>
      <trkpt lat="43.54212" lon="0.2698">
        <ele>257.77</ele>
        <time>2021-08-19T08:35:44Z</time>
      </trkpt>
      <trkpt lat="43.54211" lon="0.26977">
        <ele>257.77</ele>
        <time>2021-08-19T08:35:45Z</time>
      </trkpt>
      <trkpt lat="43.5421" lon="0.26974">
        <ele>258.25</ele>
        <time>2021-08-19T08:35:46Z</time>
      </trkpt>
      <trkpt lat="43.5421" lon="0.26971">
        <ele>258.25</ele>
        <time>2021-08-19T08:35:47Z</time>
      </trkpt>
      <trkpt lat="43.54209" lon="0.26968">
        <ele>258.25</ele>
        <time>2021-08-19T08:35:48Z</time>
      </trkpt>
      <trkpt lat="43.5421" lon="0.26964">
        <ele>258.25</ele>
        <time>2021-08-19T08:35:49Z</time>
      </trkpt>
      <trkpt lat="43.5421" lon="0.26952">
        <ele>258.73</ele>
        <time>2021-08-19T08:35:53Z</time>
      </trkpt>
      <trkpt lat="43.54204" lon="0.26929">
        <ele>259.21</ele>
        <time>2021-08-19T08:35:59Z</time>
      </trkpt>
      <trkpt lat="43.54205" lon="0.26903">
        <ele>261.14</ele>
        <time>2021-08-19T08:36:07Z</time>
      </trkpt>
      <trkpt lat="43.54205" lon="0.26883">
        <ele>261.14</ele>
        <time>2021-08-19T08:36:13Z</time>
      </trkpt>
      <trkpt lat="43.54196" lon="0.26859">
        <ele>258.73</ele>
        <time>2021-08-19T08:36:18Z</time>
      </trkpt>
      <trkpt lat="43.54193" lon="0.26855">
        <ele>257.77</ele>
        <time>2021-08-19T08:36:19Z</time>
      </trkpt>
      <trkpt lat="43.5419" lon="0.26851">
        <ele>256.81</ele>
        <time>2021-08-19T08:36:20Z</time>
      </trkpt>
      <trkpt lat="43.54184" lon="0.26848">
        <ele>256.33</ele>
        <time>2021-08-19T08:36:21Z</time>
      </trkpt>
      <trkpt lat="43.54177" lon="0.26845">
        <ele>256.33</ele>
        <time>2021-08-19T08:36:22Z</time>
      </trkpt>
      <trkpt lat="43.54163" lon="0.26838">
        <ele>255.85</ele>
        <time>2021-08-19T08:36:24Z</time>
      </trkpt>
      <trkpt lat="43.54158" lon="0.26832">
        <ele>255.37</ele>
        <time>2021-08-19T08:36:25Z</time>
      </trkpt>
      <trkpt lat="43.54145" lon="0.26814">
        <ele>255.85</ele>
        <time>2021-08-19T08:36:28Z</time>
      </trkpt>
      <trkpt lat="43.54138" lon="0.26801">
        <ele>255.85</ele>
        <time>2021-08-19T08:36:30Z</time>
      </trkpt>
      <trkpt lat="43.54135" lon="0.26797">
        <ele>255.85</ele>
        <time>2021-08-19T08:36:31Z</time>
      </trkpt>
      <trkpt lat="43.54131" lon="0.26794">
        <ele>255.85</ele>
        <time>2021-08-19T08:36:32Z</time>
      </trkpt>
      <trkpt lat="43.54111" lon="0.26777">
        <ele>256.81</ele>
        <time>2021-08-19T08:36:39Z</time>
      </trkpt>
      <trkpt lat="43.54107" lon="0.26772">
        <ele>256.81</ele>
        <time>2021-08-19T08:36:41Z</time>
      </trkpt>
      <trkpt lat="43.54075" lon="0.26753">
        <ele>257.29</ele>
        <time>2021-08-19T08:36:48Z</time>
      </trkpt>
      <trkpt lat="43.54045" lon="0.26724">
        <ele>258.73</ele>
        <time>2021-08-19T08:36:56Z</time>
      </trkpt>
      <trkpt lat="43.5402" lon="0.26696">
        <ele>260.17</ele>
        <time>2021-08-19T08:37:05Z</time>
      </trkpt>
      <trkpt lat="43.54004" lon="0.26675">
        <ele>261.62</ele>
        <time>2021-08-19T08:37:14Z</time>
      </trkpt>
      <trkpt lat="43.53989" lon="0.2665">
        <ele>263.06</ele>
        <time>2021-08-19T08:37:24Z</time>
      </trkpt>
      <trkpt lat="43.53973" lon="0.26625">
        <ele>264.98</ele>
        <time>2021-08-19T08:37:34Z</time>
      </trkpt>
      <trkpt lat="43.53967" lon="0.26616">
        <ele>265.94</ele>
        <time>2021-08-19T08:37:40Z</time>
      </trkpt>
      <trkpt lat="43.53963" lon="0.26601">
        <ele>266.9</ele>
        <time>2021-08-19T08:37:48Z</time>
      </trkpt>
      <trkpt lat="43.53962" lon="0.26598">
        <ele>267.38</ele>
        <time>2021-08-19T08:37:50Z</time>
      </trkpt>
      <trkpt lat="43.53962" lon="0.26596">
        <ele>267.38</ele>
        <time>2021-08-19T08:37:51Z</time>
      </trkpt>
      <trkpt lat="43.53962" lon="0.26594">
        <ele>267.86</ele>
        <time>2021-08-19T08:37:52Z</time>
      </trkpt>
      <trkpt lat="43.53961" lon="0.26592">
        <ele>267.86</ele>
        <time>2021-08-19T08:37:53Z</time>
      </trkpt>
      <trkpt lat="43.53961" lon="0.2659">
        <ele>267.86</ele>
        <time>2021-08-19T08:37:54Z</time>
      </trkpt>
      <trkpt lat="43.53958" lon="0.26579">
        <ele>269.31</ele>
        <time>2021-08-19T08:37:59Z</time>
      </trkpt>
      <trkpt lat="43.53957" lon="0.26577">
        <ele>269.31</ele>
        <time>2021-08-19T08:38:00Z</time>
      </trkpt>
      <trkpt lat="43.53957" lon="0.26574">
        <ele>269.31</ele>
        <time>2021-08-19T08:38:01Z</time>
      </trkpt>
      <trkpt lat="43.53951" lon="0.26548">
        <ele>270.27</ele>
        <time>2021-08-19T08:38:10Z</time>
      </trkpt>
      <trkpt lat="43.53938" lon="0.26538">
        <ele>270.75</ele>
        <time>2021-08-19T08:38:16Z</time>
      </trkpt>
      <trkpt lat="43.53933" lon="0.26536">
        <ele>268.83</ele>
        <time>2021-08-19T08:38:17Z</time>
      </trkpt>
      <trkpt lat="43.53928" lon="0.26536">
        <ele>267.86</ele>
        <time>2021-08-19T08:38:18Z</time>
      </trkpt>
      <trkpt lat="43.53901" lon="0.26537">
        <ele>264.02</ele>
        <time>2021-08-19T08:38:22Z</time>
      </trkpt>
      <trkpt lat="43.53867" lon="0.26536">
        <ele>260.65</ele>
        <time>2021-08-19T08:38:26Z</time>
      </trkpt>
      <trkpt lat="43.53849" lon="0.26536">
        <ele>259.21</ele>
        <time>2021-08-19T08:38:28Z</time>
      </trkpt>
      <trkpt lat="43.53839" lon="0.26537">
        <ele>259.21</ele>
        <time>2021-08-19T08:38:29Z</time>
      </trkpt>
      <trkpt lat="43.5383" lon="0.26537">
        <ele>258.73</ele>
        <time>2021-08-19T08:38:30Z</time>
      </trkpt>
      <trkpt lat="43.53821" lon="0.26536">
        <ele>259.21</ele>
        <time>2021-08-19T08:38:31Z</time>
      </trkpt>
      <trkpt lat="43.53812" lon="0.26534">
        <ele>259.21</ele>
        <time>2021-08-19T08:38:32Z</time>
      </trkpt>
      <trkpt lat="43.53805" lon="0.26532">
        <ele>259.21</ele>
        <time>2021-08-19T08:38:33Z</time>
      </trkpt>
      <trkpt lat="43.53798" lon="0.26529">
        <ele>259.21</ele>
        <time>2021-08-19T08:38:34Z</time>
      </trkpt>
      <trkpt lat="43.53771" lon="0.26517">
        <ele>261.14</ele>
        <time>2021-08-19T08:38:39Z</time>
      </trkpt>
      <trkpt lat="43.53753" lon="0.26509">
        <ele>262.1</ele>
        <time>2021-08-19T08:38:45Z</time>
      </trkpt>
      <trkpt lat="43.53737" lon="0.26505">
        <ele>263.54</ele>
        <time>2021-08-19T08:38:54Z</time>
      </trkpt>
      <trkpt lat="43.5373" lon="0.26503">
        <ele>264.02</ele>
        <time>2021-08-19T08:38:58Z</time>
      </trkpt>
      <trkpt lat="43.53728" lon="0.26502">
        <ele>264.5</ele>
        <time>2021-08-19T08:38:59Z</time>
      </trkpt>
      <trkpt lat="43.53726" lon="0.26502">
        <ele>264.5</ele>
        <time>2021-08-19T08:39:00Z</time>
      </trkpt>
      <trkpt lat="43.53708" lon="0.26497">
        <ele>266.42</ele>
        <time>2021-08-19T08:39:10Z</time>
      </trkpt>
      <trkpt lat="43.53707" lon="0.26496">
        <ele>266.42</ele>
        <time>2021-08-19T08:39:11Z</time>
      </trkpt>
      <trkpt lat="43.53704" lon="0.26496">
        <ele>266.9</ele>
        <time>2021-08-19T08:39:12Z</time>
      </trkpt>
      <trkpt lat="43.53696" lon="0.26495">
        <ele>267.86</ele>
        <time>2021-08-19T08:39:19Z</time>
      </trkpt>
      <trkpt lat="43.53688" lon="0.26493">
        <ele>269.31</ele>
        <time>2021-08-19T08:39:28Z</time>
      </trkpt>
      <trkpt lat="43.53683" lon="0.26491">
        <ele>269.79</ele>
        <time>2021-08-19T08:39:35Z</time>
      </trkpt>
      <trkpt lat="43.53677" lon="0.2649">
        <ele>271.71</ele>
        <time>2021-08-19T08:39:44Z</time>
      </trkpt>
      <trkpt lat="43.53672" lon="0.26489">
        <ele>272.19</ele>
        <time>2021-08-19T08:39:51Z</time>
      </trkpt>
      <trkpt lat="43.53665" lon="0.26486">
        <ele>272.67</ele>
        <time>2021-08-19T08:39:59Z</time>
      </trkpt>
      <trkpt lat="43.53662" lon="0.26486">
        <ele>273.63</ele>
        <time>2021-08-19T08:40:05Z</time>
      </trkpt>
      <trkpt lat="43.53661" lon="0.26486">
        <ele>273.63</ele>
        <time>2021-08-19T08:40:06Z</time>
      </trkpt>
      <trkpt lat="43.5365" lon="0.26482">
        <ele>274.11</ele>
        <time>2021-08-19T08:40:13Z</time>
      </trkpt>
      <trkpt lat="43.53649" lon="0.26481">
        <ele>275.07</ele>
        <time>2021-08-19T08:40:14Z</time>
      </trkpt>
      <trkpt lat="43.53647" lon="0.26481">
        <ele>275.07</ele>
        <time>2021-08-19T08:40:15Z</time>
      </trkpt>
      <trkpt lat="43.53645" lon="0.26481">
        <ele>275.07</ele>
        <time>2021-08-19T08:40:16Z</time>
      </trkpt>
      <trkpt lat="43.53644" lon="0.26481">
        <ele>275.56</ele>
        <time>2021-08-19T08:40:17Z</time>
      </trkpt>
      <trkpt lat="43.53631" lon="0.26479">
        <ele>277.48</ele>
        <time>2021-08-19T08:40:25Z</time>
      </trkpt>
      <trkpt lat="43.53618" lon="0.26481">
        <ele>278.92</ele>
        <time>2021-08-19T08:40:33Z</time>
      </trkpt>
      <trkpt lat="43.53607" lon="0.26485">
        <ele>280.36</ele>
        <time>2021-08-19T08:40:40Z</time>
      </trkpt>
      <trkpt lat="43.53594" lon="0.26491">
        <ele>281.32</ele>
        <time>2021-08-19T08:40:47Z</time>
      </trkpt>
      <trkpt lat="43.53588" lon="0.26495">
        <ele>281.8</ele>
        <time>2021-08-19T08:40:51Z</time>
      </trkpt>
      <trkpt lat="43.53571" lon="0.26504">
        <ele>282.28</ele>
        <time>2021-08-19T08:40:59Z</time>
      </trkpt>
      <trkpt lat="43.53564" lon="0.2651">
        <ele>282.28</ele>
        <time>2021-08-19T08:41:04Z</time>
      </trkpt>
      <trkpt lat="43.53562" lon="0.26512">
        <ele>282.28</ele>
        <time>2021-08-19T08:41:05Z</time>
      </trkpt>
      <trkpt lat="43.53547" lon="0.26521">
        <ele>282.28</ele>
        <time>2021-08-19T08:41:10Z</time>
      </trkpt>
      <trkpt lat="43.53535" lon="0.26526">
        <ele>280.36</ele>
        <time>2021-08-19T08:41:13Z</time>
      </trkpt>
      <trkpt lat="43.53529" lon="0.26527">
        <ele>279.4</ele>
        <time>2021-08-19T08:41:14Z</time>
      </trkpt>
      <trkpt lat="43.53524" lon="0.26528">
        <ele>278.92</ele>
        <time>2021-08-19T08:41:15Z</time>
      </trkpt>
      <trkpt lat="43.53517" lon="0.2653">
        <ele>277.96</ele>
        <time>2021-08-19T08:41:16Z</time>
      </trkpt>
      <trkpt lat="43.5351" lon="0.26533">
        <ele>277</ele>
        <time>2021-08-19T08:41:17Z</time>
      </trkpt>
      <trkpt lat="43.53504" lon="0.26536">
        <ele>275.56</ele>
        <time>2021-08-19T08:41:18Z</time>
      </trkpt>
      <trkpt lat="43.53449" lon="0.26567">
        <ele>273.15</ele>
        <time>2021-08-19T08:41:25Z</time>
      </trkpt>
      <trkpt lat="43.53437" lon="0.26573">
        <ele>273.15</ele>
        <time>2021-08-19T08:41:27Z</time>
      </trkpt>
      <trkpt lat="43.53432" lon="0.26573">
        <ele>273.15</ele>
        <time>2021-08-19T08:41:28Z</time>
      </trkpt>
      <trkpt lat="43.53429" lon="0.2657">
        <ele>273.15</ele>
        <time>2021-08-19T08:41:29Z</time>
      </trkpt>
      <trkpt lat="43.53428" lon="0.26566">
        <ele>273.15</ele>
        <time>2021-08-19T08:41:30Z</time>
      </trkpt>
      <trkpt lat="43.53426" lon="0.26562">
        <ele>273.15</ele>
        <time>2021-08-19T08:41:31Z</time>
      </trkpt>
      <trkpt lat="43.53424" lon="0.26559">
        <ele>273.15</ele>
        <time>2021-08-19T08:41:32Z</time>
      </trkpt>
      <trkpt lat="43.53409" lon="0.26517">
        <ele>273.15</ele>
        <time>2021-08-19T08:41:40Z</time>
      </trkpt>
      <trkpt lat="43.53393" lon="0.26463">
        <ele>272.19</ele>
        <time>2021-08-19T08:41:48Z</time>
      </trkpt>
      <trkpt lat="43.53386" lon="0.2642">
        <ele>272.19</ele>
        <time>2021-08-19T08:41:55Z</time>
      </trkpt>
      <trkpt lat="43.53386" lon="0.26413">
        <ele>272.19</ele>
        <time>2021-08-19T08:41:56Z</time>
      </trkpt>
      <trkpt lat="43.53385" lon="0.26387">
        <ele>273.63</ele>
        <time>2021-08-19T08:42:01Z</time>
      </trkpt>
      <trkpt lat="43.53383" lon="0.26369">
        <ele>274.11</ele>
        <time>2021-08-19T08:42:06Z</time>
      </trkpt>
      <trkpt lat="43.53374" lon="0.26362">
        <ele>275.56</ele>
        <time>2021-08-19T08:42:12Z</time>
      </trkpt>
      <trkpt lat="43.53363" lon="0.26371">
        <ele>276.52</ele>
        <time>2021-08-19T08:42:19Z</time>
      </trkpt>
      <trkpt lat="43.53351" lon="0.26373">
        <ele>277.96</ele>
        <time>2021-08-19T08:42:26Z</time>
      </trkpt>
      <trkpt lat="43.53331" lon="0.26373">
        <ele>279.88</ele>
        <time>2021-08-19T08:42:36Z</time>
      </trkpt>
      <trkpt lat="43.53313" lon="0.26372">
        <ele>280.36</ele>
        <time>2021-08-19T08:42:43Z</time>
      </trkpt>
      <trkpt lat="43.53291" lon="0.26373">
        <ele>280.84</ele>
        <time>2021-08-19T08:42:49Z</time>
      </trkpt>
      <trkpt lat="43.53254" lon="0.26374">
        <ele>280.84</ele>
        <time>2021-08-19T08:42:57Z</time>
      </trkpt>
      <trkpt lat="43.53249" lon="0.26374">
        <ele>280.84</ele>
        <time>2021-08-19T08:42:58Z</time>
      </trkpt>
      <trkpt lat="43.53217" lon="0.26375">
        <ele>278.92</ele>
        <time>2021-08-19T08:43:04Z</time>
      </trkpt>
      <trkpt lat="43.53166" lon="0.26377">
        <ele>276.52</ele>
        <time>2021-08-19T08:43:12Z</time>
      </trkpt>
      <trkpt lat="43.53092" lon="0.26381">
        <ele>274.59</ele>
        <time>2021-08-19T08:43:22Z</time>
      </trkpt>
      <trkpt lat="43.53035" lon="0.26384">
        <ele>274.59</ele>
        <time>2021-08-19T08:43:30Z</time>
      </trkpt>
      <trkpt lat="43.53012" lon="0.26385">
        <ele>276.04</ele>
        <time>2021-08-19T08:43:34Z</time>
      </trkpt>
      <trkpt lat="43.52978" lon="0.26386">
        <ele>277</ele>
        <time>2021-08-19T08:43:41Z</time>
      </trkpt>
      <trkpt lat="43.52958" lon="0.26385">
        <ele>278.92</ele>
        <time>2021-08-19T08:43:47Z</time>
      </trkpt>
      <trkpt lat="43.52956" lon="0.26382">
        <ele>278.92</ele>
        <time>2021-08-19T08:43:48Z</time>
      </trkpt>
      <trkpt lat="43.52954" lon="0.26378">
        <ele>279.88</ele>
        <time>2021-08-19T08:43:49Z</time>
      </trkpt>
      <trkpt lat="43.52953" lon="0.26375">
        <ele>279.88</ele>
        <time>2021-08-19T08:43:50Z</time>
      </trkpt>
      <trkpt lat="43.52952" lon="0.26339">
        <ele>282.28</ele>
        <time>2021-08-19T08:43:59Z</time>
      </trkpt>
      <trkpt lat="43.52954" lon="0.26293">
        <ele>283.73</ele>
        <time>2021-08-19T08:44:09Z</time>
      </trkpt>
      <trkpt lat="43.52954" lon="0.26277">
        <ele>283.25</ele>
        <time>2021-08-19T08:44:12Z</time>
      </trkpt>
      <trkpt lat="43.52955" lon="0.2627">
        <ele>283.25</ele>
        <time>2021-08-19T08:44:13Z</time>
      </trkpt>
      <trkpt lat="43.52955" lon="0.26263">
        <ele>282.28</ele>
        <time>2021-08-19T08:44:14Z</time>
      </trkpt>
      <trkpt lat="43.52955" lon="0.26256">
        <ele>282.28</ele>
        <time>2021-08-19T08:44:15Z</time>
      </trkpt>
      <trkpt lat="43.52955" lon="0.26248">
        <ele>281.32</ele>
        <time>2021-08-19T08:44:16Z</time>
      </trkpt>
      <trkpt lat="43.5296" lon="0.2618">
        <ele>280.36</ele>
        <time>2021-08-19T08:44:25Z</time>
      </trkpt>
      <trkpt lat="43.52961" lon="0.2616">
        <ele>280.36</ele>
        <time>2021-08-19T08:44:28Z</time>
      </trkpt>
      <trkpt lat="43.52962" lon="0.26146">
        <ele>278.92</ele>
        <time>2021-08-19T08:44:30Z</time>
      </trkpt>
      <trkpt lat="43.52964" lon="0.2614">
        <ele>278.44</ele>
        <time>2021-08-19T08:44:31Z</time>
      </trkpt>
      <trkpt lat="43.52968" lon="0.26135">
        <ele>277.96</ele>
        <time>2021-08-19T08:44:32Z</time>
      </trkpt>
      <trkpt lat="43.52971" lon="0.2613">
        <ele>277.96</ele>
        <time>2021-08-19T08:44:33Z</time>
      </trkpt>
      <trkpt lat="43.52973" lon="0.26123">
        <ele>277.48</ele>
        <time>2021-08-19T08:44:34Z</time>
      </trkpt>
      <trkpt lat="43.52973" lon="0.26119">
        <ele>276.52</ele>
        <time>2021-08-19T08:44:35Z</time>
      </trkpt>
      <trkpt lat="43.52973" lon="0.26114">
        <ele>276.04</ele>
        <time>2021-08-19T08:44:36Z</time>
      </trkpt>
      <trkpt lat="43.52972" lon="0.26109">
        <ele>275.07</ele>
        <time>2021-08-19T08:44:37Z</time>
      </trkpt>
      <trkpt lat="43.5297" lon="0.26101">
        <ele>274.11</ele>
        <time>2021-08-19T08:44:38Z</time>
      </trkpt>
      <trkpt lat="43.52963" lon="0.26077">
        <ele>271.23</ele>
        <time>2021-08-19T08:44:41Z</time>
      </trkpt>
      <trkpt lat="43.52958" lon="0.26052">
        <ele>267.86</ele>
        <time>2021-08-19T08:44:44Z</time>
      </trkpt>
      <trkpt lat="43.52947" lon="0.26007">
        <ele>264.5</ele>
        <time>2021-08-19T08:44:49Z</time>
      </trkpt>
      <trkpt lat="43.52944" lon="0.25999">
        <ele>263.54</ele>
        <time>2021-08-19T08:44:50Z</time>
      </trkpt>
      <trkpt lat="43.5294" lon="0.25992">
        <ele>262.58</ele>
        <time>2021-08-19T08:44:51Z</time>
      </trkpt>
      <trkpt lat="43.52906" lon="0.2594">
        <ele>261.14</ele>
        <time>2021-08-19T08:44:59Z</time>
      </trkpt>
      <trkpt lat="43.52903" lon="0.25935">
        <ele>261.14</ele>
        <time>2021-08-19T08:45:00Z</time>
      </trkpt>
      <trkpt lat="43.52897" lon="0.25923">
        <ele>262.58</ele>
        <time>2021-08-19T08:45:03Z</time>
      </trkpt>
      <trkpt lat="43.52884" lon="0.25894">
        <ele>263.54</ele>
        <time>2021-08-19T08:45:11Z</time>
      </trkpt>
      <trkpt lat="43.52879" lon="0.25869">
        <ele>264.98</ele>
        <time>2021-08-19T08:45:19Z</time>
      </trkpt>
      <trkpt lat="43.52885" lon="0.25845">
        <ele>265.94</ele>
        <time>2021-08-19T08:45:27Z</time>
      </trkpt>
      <trkpt lat="43.52888" lon="0.25816">
        <ele>264.5</ele>
        <time>2021-08-19T08:45:33Z</time>
      </trkpt>
      <trkpt lat="43.52888" lon="0.2581">
        <ele>264.5</ele>
        <time>2021-08-19T08:45:34Z</time>
      </trkpt>
      <trkpt lat="43.52888" lon="0.25804">
        <ele>264.02</ele>
        <time>2021-08-19T08:45:35Z</time>
      </trkpt>
      <trkpt lat="43.52886" lon="0.25741">
        <ele>261.14</ele>
        <time>2021-08-19T08:45:44Z</time>
      </trkpt>
      <trkpt lat="43.52887" lon="0.25734">
        <ele>260.17</ele>
        <time>2021-08-19T08:45:45Z</time>
      </trkpt>
      <trkpt lat="43.52889" lon="0.25727">
        <ele>260.17</ele>
        <time>2021-08-19T08:45:46Z</time>
      </trkpt>
      <trkpt lat="43.52891" lon="0.25721">
        <ele>259.21</ele>
        <time>2021-08-19T08:45:47Z</time>
      </trkpt>
      <trkpt lat="43.52893" lon="0.25715">
        <ele>258.25</ele>
        <time>2021-08-19T08:45:48Z</time>
      </trkpt>
      <trkpt lat="43.52895" lon="0.25704">
        <ele>256.33</ele>
        <time>2021-08-19T08:45:50Z</time>
      </trkpt>
      <trkpt lat="43.52894" lon="0.25697">
        <ele>255.85</ele>
        <time>2021-08-19T08:45:51Z</time>
      </trkpt>
      <trkpt lat="43.52893" lon="0.25691">
        <ele>255.85</ele>
        <time>2021-08-19T08:45:52Z</time>
      </trkpt>
      <trkpt lat="43.52892" lon="0.25685">
        <ele>255.85</ele>
        <time>2021-08-19T08:45:53Z</time>
      </trkpt>
      <trkpt lat="43.5289" lon="0.25677">
        <ele>254.89</ele>
        <time>2021-08-19T08:45:54Z</time>
      </trkpt>
      <trkpt lat="43.52887" lon="0.25655">
        <ele>253.44</ele>
        <time>2021-08-19T08:45:57Z</time>
      </trkpt>
      <trkpt lat="43.52884" lon="0.2562">
        <ele>250.08</ele>
        <time>2021-08-19T08:46:01Z</time>
      </trkpt>
      <trkpt lat="43.52877" lon="0.25581">
        <ele>247.68</ele>
        <time>2021-08-19T08:46:05Z</time>
      </trkpt>
      <trkpt lat="43.52864" lon="0.25542">
        <ele>244.79</ele>
        <time>2021-08-19T08:46:09Z</time>
      </trkpt>
      <trkpt lat="43.5286" lon="0.25531">
        <ele>243.83</ele>
        <time>2021-08-19T08:46:10Z</time>
      </trkpt>
      <trkpt lat="43.52858" lon="0.2552">
        <ele>243.35</ele>
        <time>2021-08-19T08:46:11Z</time>
      </trkpt>
      <trkpt lat="43.52855" lon="0.25499">
        <ele>241.91</ele>
        <time>2021-08-19T08:46:13Z</time>
      </trkpt>
      <trkpt lat="43.52852" lon="0.25489">
        <ele>241.91</ele>
        <time>2021-08-19T08:46:14Z</time>
      </trkpt>
      <trkpt lat="43.52849" lon="0.2548">
        <ele>240.95</ele>
        <time>2021-08-19T08:46:15Z</time>
      </trkpt>
      <trkpt lat="43.52846" lon="0.25471">
        <ele>240.47</ele>
        <time>2021-08-19T08:46:16Z</time>
      </trkpt>
      <trkpt lat="43.52843" lon="0.25464">
        <ele>240.47</ele>
        <time>2021-08-19T08:46:17Z</time>
      </trkpt>
      <trkpt lat="43.52839" lon="0.25457">
        <ele>240.47</ele>
        <time>2021-08-19T08:46:18Z</time>
      </trkpt>
      <trkpt lat="43.52835" lon="0.25451">
        <ele>240.47</ele>
        <time>2021-08-19T08:46:19Z</time>
      </trkpt>
      <trkpt lat="43.52833" lon="0.25445">
        <ele>240.47</ele>
        <time>2021-08-19T08:46:20Z</time>
      </trkpt>
      <trkpt lat="43.52823" lon="0.2542">
        <ele>237.1</ele>
        <time>2021-08-19T08:46:23Z</time>
      </trkpt>
      <trkpt lat="43.52797" lon="0.25371">
        <ele>233.26</ele>
        <time>2021-08-19T08:46:28Z</time>
      </trkpt>
      <trkpt lat="43.52774" lon="0.25341">
        <ele>229.89</ele>
        <time>2021-08-19T08:46:31Z</time>
      </trkpt>
      <trkpt lat="43.5276" lon="0.25324">
        <ele>229.41</ele>
        <time>2021-08-19T08:46:33Z</time>
      </trkpt>
      <trkpt lat="43.52737" lon="0.25299">
        <ele>225.57</ele>
        <time>2021-08-19T08:46:37Z</time>
      </trkpt>
      <trkpt lat="43.52733" lon="0.25293">
        <ele>224.61</ele>
        <time>2021-08-19T08:46:38Z</time>
      </trkpt>
      <trkpt lat="43.5273" lon="0.25288">
        <ele>223.64</ele>
        <time>2021-08-19T08:46:39Z</time>
      </trkpt>
      <trkpt lat="43.52721" lon="0.25275">
        <ele>220.28</ele>
        <time>2021-08-19T08:46:41Z</time>
      </trkpt>
      <trkpt lat="43.52716" lon="0.25266">
        <ele>217.88</ele>
        <time>2021-08-19T08:46:42Z</time>
      </trkpt>
      <trkpt lat="43.52707" lon="0.25247">
        <ele>214.03</ele>
        <time>2021-08-19T08:46:44Z</time>
      </trkpt>
      <trkpt lat="43.52697" lon="0.25231">
        <ele>211.15</ele>
        <time>2021-08-19T08:46:46Z</time>
      </trkpt>
      <trkpt lat="43.52693" lon="0.25225">
        <ele>209.22</ele>
        <time>2021-08-19T08:46:47Z</time>
      </trkpt>
      <trkpt lat="43.52689" lon="0.25218">
        <ele>208.26</ele>
        <time>2021-08-19T08:46:48Z</time>
      </trkpt>
      <trkpt lat="43.52684" lon="0.25214">
        <ele>206.34</ele>
        <time>2021-08-19T08:46:49Z</time>
      </trkpt>
      <trkpt lat="43.52674" lon="0.25205">
        <ele>205.86</ele>
        <time>2021-08-19T08:46:51Z</time>
      </trkpt>
      <trkpt lat="43.52671" lon="0.25201">
        <ele>205.86</ele>
        <time>2021-08-19T08:46:52Z</time>
      </trkpt>
      <trkpt lat="43.52669" lon="0.25197">
        <ele>205.86</ele>
        <time>2021-08-19T08:46:53Z</time>
      </trkpt>
      <trkpt lat="43.52668" lon="0.25193">
        <ele>205.86</ele>
        <time>2021-08-19T08:46:54Z</time>
      </trkpt>
      <trkpt lat="43.52667" lon="0.2519">
        <ele>205.86</ele>
        <time>2021-08-19T08:46:55Z</time>
      </trkpt>
      <trkpt lat="43.52666" lon="0.25189">
        <ele>205.86</ele>
        <time>2021-08-19T08:46:56Z</time>
      </trkpt>
      <trkpt lat="43.52664" lon="0.25186">
        <ele>205.86</ele>
        <time>2021-08-19T08:46:57Z</time>
      </trkpt>
      <trkpt lat="43.52656" lon="0.25169">
        <ele>207.78</ele>
        <time>2021-08-19T08:47:05Z</time>
      </trkpt>
      <trkpt lat="43.5265" lon="0.25157">
        <ele>209.22</ele>
        <time>2021-08-19T08:47:12Z</time>
      </trkpt>
      <trkpt lat="43.52648" lon="0.25152">
        <ele>209.22</ele>
        <time>2021-08-19T08:47:14Z</time>
      </trkpt>
      <trkpt lat="43.52648" lon="0.2515">
        <ele>209.22</ele>
        <time>2021-08-19T08:47:15Z</time>
      </trkpt>
      <trkpt lat="43.52647" lon="0.25148">
        <ele>209.7</ele>
        <time>2021-08-19T08:47:16Z</time>
      </trkpt>
      <trkpt lat="43.52646" lon="0.25145">
        <ele>209.7</ele>
        <time>2021-08-19T08:47:17Z</time>
      </trkpt>
      <trkpt lat="43.52645" lon="0.25143">
        <ele>209.7</ele>
        <time>2021-08-19T08:47:18Z</time>
      </trkpt>
      <trkpt lat="43.52645" lon="0.25141">
        <ele>209.7</ele>
        <time>2021-08-19T08:47:19Z</time>
      </trkpt>
      <trkpt lat="43.52639" lon="0.25126">
        <ele>210.67</ele>
        <time>2021-08-19T08:47:27Z</time>
      </trkpt>
      <trkpt lat="43.52628" lon="0.25109">
        <ele>211.63</ele>
        <time>2021-08-19T08:47:36Z</time>
      </trkpt>
      <trkpt lat="43.52619" lon="0.2509">
        <ele>212.59</ele>
        <time>2021-08-19T08:47:44Z</time>
      </trkpt>
      <trkpt lat="43.52609" lon="0.25071">
        <ele>213.55</ele>
        <time>2021-08-19T08:47:52Z</time>
      </trkpt>
      <trkpt lat="43.52597" lon="0.25041">
        <ele>213.55</ele>
        <time>2021-08-19T08:48:01Z</time>
      </trkpt>
      <trkpt lat="43.52586" lon="0.25013">
        <ele>214.51</ele>
        <time>2021-08-19T08:48:09Z</time>
      </trkpt>
      <trkpt lat="43.52576" lon="0.24983">
        <ele>214.99</ele>
        <time>2021-08-19T08:48:17Z</time>
      </trkpt>
      <trkpt lat="43.52563" lon="0.24954">
        <ele>214.99</ele>
        <time>2021-08-19T08:48:24Z</time>
      </trkpt>
      <trkpt lat="43.52555" lon="0.24928">
        <ele>214.99</ele>
        <time>2021-08-19T08:48:31Z</time>
      </trkpt>
      <trkpt lat="43.52542" lon="0.24906">
        <ele>214.99</ele>
        <time>2021-08-19T08:48:37Z</time>
      </trkpt>
      <trkpt lat="43.52532" lon="0.24887">
        <ele>214.99</ele>
        <time>2021-08-19T08:48:43Z</time>
      </trkpt>
      <trkpt lat="43.52523" lon="0.24868">
        <ele>214.99</ele>
        <time>2021-08-19T08:48:49Z</time>
      </trkpt>
      <trkpt lat="43.52512" lon="0.2485">
        <ele>215.47</ele>
        <time>2021-08-19T08:48:56Z</time>
      </trkpt>
      <trkpt lat="43.52499" lon="0.24832">
        <ele>215.95</ele>
        <time>2021-08-19T08:49:03Z</time>
      </trkpt>
      <trkpt lat="43.52479" lon="0.24805">
        <ele>216.43</ele>
        <time>2021-08-19T08:49:12Z</time>
      </trkpt>
      <trkpt lat="43.52455" lon="0.24776">
        <ele>216.43</ele>
        <time>2021-08-19T08:49:21Z</time>
      </trkpt>
      <trkpt lat="43.5244" lon="0.24757">
        <ele>216.91</ele>
        <time>2021-08-19T08:49:28Z</time>
      </trkpt>
      <trkpt lat="43.52419" lon="0.24732">
        <ele>217.88</ele>
        <time>2021-08-19T08:49:37Z</time>
      </trkpt>
      <trkpt lat="43.52396" lon="0.24701">
        <ele>215.47</ele>
        <time>2021-08-19T08:49:44Z</time>
      </trkpt>
      <trkpt lat="43.5237" lon="0.24655">
        <ele>212.59</ele>
        <time>2021-08-19T08:49:51Z</time>
      </trkpt>
      <trkpt lat="43.52334" lon="0.24595">
        <ele>210.19</ele>
        <time>2021-08-19T08:50:00Z</time>
      </trkpt>
      <trkpt lat="43.52314" lon="0.24558">
        <ele>209.7</ele>
        <time>2021-08-19T08:50:06Z</time>
      </trkpt>
      <trkpt lat="43.52307" lon="0.24548">
        <ele>209.22</ele>
        <time>2021-08-19T08:50:08Z</time>
      </trkpt>
      <trkpt lat="43.52303" lon="0.24546">
        <ele>208.74</ele>
        <time>2021-08-19T08:50:09Z</time>
      </trkpt>
      <trkpt lat="43.52298" lon="0.24546">
        <ele>207.78</ele>
        <time>2021-08-19T08:50:10Z</time>
      </trkpt>
      <trkpt lat="43.52287" lon="0.24546">
        <ele>206.34</ele>
        <time>2021-08-19T08:50:12Z</time>
      </trkpt>
      <trkpt lat="43.5228" lon="0.24544">
        <ele>205.86</ele>
        <time>2021-08-19T08:50:13Z</time>
      </trkpt>
      <trkpt lat="43.52274" lon="0.24541">
        <ele>205.38</ele>
        <time>2021-08-19T08:50:14Z</time>
      </trkpt>
      <trkpt lat="43.52267" lon="0.24537">
        <ele>203.94</ele>
        <time>2021-08-19T08:50:15Z</time>
      </trkpt>
      <trkpt lat="43.5226" lon="0.24533">
        <ele>203.46</ele>
        <time>2021-08-19T08:50:16Z</time>
      </trkpt>
      <trkpt lat="43.52245" lon="0.24522">
        <ele>201.53</ele>
        <time>2021-08-19T08:50:18Z</time>
      </trkpt>
      <trkpt lat="43.52222" lon="0.24504">
        <ele>199.61</ele>
        <time>2021-08-19T08:50:22Z</time>
      </trkpt>
      <trkpt lat="43.52206" lon="0.24495">
        <ele>196.25</ele>
        <time>2021-08-19T08:50:25Z</time>
      </trkpt>
      <trkpt lat="43.52201" lon="0.24492">
        <ele>195.28</ele>
        <time>2021-08-19T08:50:26Z</time>
      </trkpt>
      <trkpt lat="43.52197" lon="0.24486">
        <ele>194.8</ele>
        <time>2021-08-19T08:50:27Z</time>
      </trkpt>
      <trkpt lat="43.52189" lon="0.24475">
        <ele>193.84</ele>
        <time>2021-08-19T08:50:29Z</time>
      </trkpt>
      <trkpt lat="43.52185" lon="0.24471">
        <ele>193.84</ele>
        <time>2021-08-19T08:50:30Z</time>
      </trkpt>
      <trkpt lat="43.52181" lon="0.24468">
        <ele>193.84</ele>
        <time>2021-08-19T08:50:31Z</time>
      </trkpt>
      <trkpt lat="43.52176" lon="0.24465">
        <ele>193.84</ele>
        <time>2021-08-19T08:50:32Z</time>
      </trkpt>
      <trkpt lat="43.52173" lon="0.24464">
        <ele>194.8</ele>
        <time>2021-08-19T08:50:33Z</time>
      </trkpt>
      <trkpt lat="43.5217" lon="0.24462">
        <ele>196.25</ele>
        <time>2021-08-19T08:50:34Z</time>
      </trkpt>
      <trkpt lat="43.52168" lon="0.24461">
        <ele>196.25</ele>
        <time>2021-08-19T08:50:35Z</time>
      </trkpt>
      <trkpt lat="43.52167" lon="0.2446">
        <ele>196.25</ele>
        <time>2021-08-19T08:50:36Z</time>
      </trkpt>
      <trkpt lat="43.52166" lon="0.2446">
        <ele>196.25</ele>
        <time>2021-08-19T08:50:37Z</time>
      </trkpt>
      <trkpt lat="43.52165" lon="0.24459">
        <ele>196.73</ele>
        <time>2021-08-19T08:50:38Z</time>
      </trkpt>
      <trkpt lat="43.52164" lon="0.24458">
        <ele>196.73</ele>
        <time>2021-08-19T08:50:39Z</time>
      </trkpt>
      <trkpt lat="43.52162" lon="0.24458">
        <ele>196.73</ele>
        <time>2021-08-19T08:50:40Z</time>
      </trkpt>
      <trkpt lat="43.52161" lon="0.24457">
        <ele>197.21</ele>
        <time>2021-08-19T08:50:41Z</time>
      </trkpt>
      <trkpt lat="43.5216" lon="0.24456">
        <ele>197.69</ele>
        <time>2021-08-19T08:50:42Z</time>
      </trkpt>
      <trkpt lat="43.52158" lon="0.24455">
        <ele>198.17</ele>
        <time>2021-08-19T08:50:43Z</time>
      </trkpt>
      <trkpt lat="43.52157" lon="0.24454">
        <ele>198.17</ele>
        <time>2021-08-19T08:50:44Z</time>
      </trkpt>
      <trkpt lat="43.52155" lon="0.24452">
        <ele>198.17</ele>
        <time>2021-08-19T08:50:45Z</time>
      </trkpt>
      <trkpt lat="43.52153" lon="0.24451">
        <ele>198.17</ele>
        <time>2021-08-19T08:50:46Z</time>
      </trkpt>
      <trkpt lat="43.52151" lon="0.2445">
        <ele>198.65</ele>
        <time>2021-08-19T08:50:47Z</time>
      </trkpt>
      <trkpt lat="43.52149" lon="0.24449">
        <ele>198.65</ele>
        <time>2021-08-19T08:50:48Z</time>
      </trkpt>
      <trkpt lat="43.52147" lon="0.24448">
        <ele>198.65</ele>
        <time>2021-08-19T08:50:49Z</time>
      </trkpt>
      <trkpt lat="43.52145" lon="0.24447">
        <ele>198.65</ele>
        <time>2021-08-19T08:50:50Z</time>
      </trkpt>
      <trkpt lat="43.52143" lon="0.24446">
        <ele>198.65</ele>
        <time>2021-08-19T08:50:51Z</time>
      </trkpt>
      <trkpt lat="43.52126" lon="0.24429">
        <ele>199.13</ele>
        <time>2021-08-19T08:50:59Z</time>
      </trkpt>
      <trkpt lat="43.52111" lon="0.2441">
        <ele>199.13</ele>
        <time>2021-08-19T08:51:06Z</time>
      </trkpt>
      <trkpt lat="43.52099" lon="0.24392">
        <ele>197.69</ele>
        <time>2021-08-19T08:51:11Z</time>
      </trkpt>
      <trkpt lat="43.52082" lon="0.2437">
        <ele>197.69</ele>
        <time>2021-08-19T08:51:18Z</time>
      </trkpt>
      <trkpt lat="43.52061" lon="0.24348">
        <ele>197.69</ele>
        <time>2021-08-19T08:51:26Z</time>
      </trkpt>
      <trkpt lat="43.52038" lon="0.24326">
        <ele>197.69</ele>
        <time>2021-08-19T08:51:33Z</time>
      </trkpt>
      <trkpt lat="43.5201" lon="0.243">
        <ele>197.69</ele>
        <time>2021-08-19T08:51:41Z</time>
      </trkpt>
      <trkpt lat="43.51996" lon="0.24287">
        <ele>197.69</ele>
        <time>2021-08-19T08:51:45Z</time>
      </trkpt>
      <trkpt lat="43.51961" lon="0.24259">
        <ele>196.25</ele>
        <time>2021-08-19T08:51:54Z</time>
      </trkpt>
      <trkpt lat="43.51939" lon="0.24241">
        <ele>195.28</ele>
        <time>2021-08-19T08:52:01Z</time>
      </trkpt>
      <trkpt lat="43.5191" lon="0.24218">
        <ele>193.84</ele>
        <time>2021-08-19T08:52:09Z</time>
      </trkpt>
      <trkpt lat="43.51884" lon="0.24196">
        <ele>192.4</ele>
        <time>2021-08-19T08:52:16Z</time>
      </trkpt>
      <trkpt lat="43.5187" lon="0.24184">
        <ele>191.44</ele>
        <time>2021-08-19T08:52:19Z</time>
      </trkpt>
      <trkpt lat="43.51858" lon="0.24172">
        <ele>189.52</ele>
        <time>2021-08-19T08:52:22Z</time>
      </trkpt>
      <trkpt lat="43.51854" lon="0.24167">
        <ele>189.52</ele>
        <time>2021-08-19T08:52:23Z</time>
      </trkpt>
      <trkpt lat="43.51832" lon="0.24147">
        <ele>188.08</ele>
        <time>2021-08-19T08:52:28Z</time>
      </trkpt>
      <trkpt lat="43.51827" lon="0.24144">
        <ele>187.59</ele>
        <time>2021-08-19T08:52:29Z</time>
      </trkpt>
      <trkpt lat="43.51822" lon="0.24142">
        <ele>187.59</ele>
        <time>2021-08-19T08:52:30Z</time>
      </trkpt>
      <trkpt lat="43.51817" lon="0.24141">
        <ele>187.59</ele>
        <time>2021-08-19T08:52:31Z</time>
      </trkpt>
      <trkpt lat="43.51812" lon="0.24138">
        <ele>187.59</ele>
        <time>2021-08-19T08:52:32Z</time>
      </trkpt>
      <trkpt lat="43.51808" lon="0.24135">
        <ele>187.59</ele>
        <time>2021-08-19T08:52:33Z</time>
      </trkpt>
      <trkpt lat="43.51804" lon="0.24133">
        <ele>187.59</ele>
        <time>2021-08-19T08:52:34Z</time>
      </trkpt>
      <trkpt lat="43.51801" lon="0.24132">
        <ele>188.08</ele>
        <time>2021-08-19T08:52:35Z</time>
      </trkpt>
      <trkpt lat="43.51798" lon="0.24131">
        <ele>188.08</ele>
        <time>2021-08-19T08:52:36Z</time>
      </trkpt>
      <trkpt lat="43.51795" lon="0.24131">
        <ele>188.08</ele>
        <time>2021-08-19T08:52:37Z</time>
      </trkpt>
      <trkpt lat="43.51793" lon="0.2413">
        <ele>188.08</ele>
        <time>2021-08-19T08:52:38Z</time>
      </trkpt>
      <trkpt lat="43.51791" lon="0.24131">
        <ele>188.08</ele>
        <time>2021-08-19T08:52:39Z</time>
      </trkpt>
      <trkpt lat="43.51788" lon="0.24131">
        <ele>188.08</ele>
        <time>2021-08-19T08:52:40Z</time>
      </trkpt>
      <trkpt lat="43.51768" lon="0.24139">
        <ele>188.08</ele>
        <time>2021-08-19T08:52:47Z</time>
      </trkpt>
      <trkpt lat="43.51746" lon="0.24147">
        <ele>188.08</ele>
        <time>2021-08-19T08:52:53Z</time>
      </trkpt>
      <trkpt lat="43.51706" lon="0.24146">
        <ele>187.59</ele>
        <time>2021-08-19T08:53:03Z</time>
      </trkpt>
      <trkpt lat="43.51683" lon="0.24142">
        <ele>187.59</ele>
        <time>2021-08-19T08:53:09Z</time>
      </trkpt>
      <trkpt lat="43.51675" lon="0.2414">
        <ele>187.59</ele>
        <time>2021-08-19T08:53:11Z</time>
      </trkpt>
      <trkpt lat="43.51673" lon="0.24137">
        <ele>187.59</ele>
        <time>2021-08-19T08:53:12Z</time>
      </trkpt>
      <trkpt lat="43.51671" lon="0.24133">
        <ele>187.59</ele>
        <time>2021-08-19T08:53:13Z</time>
      </trkpt>
      <trkpt lat="43.51671" lon="0.2413">
        <ele>187.59</ele>
        <time>2021-08-19T08:53:14Z</time>
      </trkpt>
      <trkpt lat="43.51672" lon="0.24127">
        <ele>187.59</ele>
        <time>2021-08-19T08:53:15Z</time>
      </trkpt>
      <trkpt lat="43.51672" lon="0.24123">
        <ele>188.56</ele>
        <time>2021-08-19T08:53:17Z</time>
      </trkpt>
      <trkpt lat="43.51673" lon="0.24121">
        <ele>188.56</ele>
        <time>2021-08-19T08:53:18Z</time>
      </trkpt>
      <trkpt lat="43.51673" lon="0.24119">
        <ele>188.56</ele>
        <time>2021-08-19T08:53:19Z</time>
      </trkpt>
      <trkpt lat="43.51674" lon="0.24117">
        <ele>188.56</ele>
        <time>2021-08-19T08:53:20Z</time>
      </trkpt>
      <trkpt lat="43.51674" lon="0.24115">
        <ele>189.04</ele>
        <time>2021-08-19T08:53:21Z</time>
      </trkpt>
      <trkpt lat="43.51674" lon="0.24113">
        <ele>189.04</ele>
        <time>2021-08-19T08:53:22Z</time>
      </trkpt>
      <trkpt lat="43.51675" lon="0.24111">
        <ele>189.04</ele>
        <time>2021-08-19T08:53:23Z</time>
      </trkpt>
      <trkpt lat="43.51675" lon="0.24109">
        <ele>189.04</ele>
        <time>2021-08-19T08:53:24Z</time>
      </trkpt>
      <trkpt lat="43.51676" lon="0.24108">
        <ele>189.52</ele>
        <time>2021-08-19T08:53:25Z</time>
      </trkpt>
      <trkpt lat="43.51677" lon="0.24105">
        <ele>189.52</ele>
        <time>2021-08-19T08:53:26Z</time>
      </trkpt>
      <trkpt lat="43.51682" lon="0.2409">
        <ele>190.48</ele>
        <time>2021-08-19T08:53:34Z</time>
      </trkpt>
      <trkpt lat="43.51688" lon="0.24072">
        <ele>191.44</ele>
        <time>2021-08-19T08:53:42Z</time>
      </trkpt>
      <trkpt lat="43.51695" lon="0.24053">
        <ele>192.4</ele>
        <time>2021-08-19T08:53:51Z</time>
      </trkpt>
      <trkpt lat="43.51703" lon="0.24029">
        <ele>192.4</ele>
        <time>2021-08-19T08:54:00Z</time>
      </trkpt>
      <trkpt lat="43.51702" lon="0.24027">
        <ele>192.4</ele>
        <time>2021-08-19T08:54:01Z</time>
      </trkpt>
      <trkpt lat="43.517" lon="0.24025">
        <ele>192.4</ele>
        <time>2021-08-19T08:54:02Z</time>
      </trkpt>
      <trkpt lat="43.51699" lon="0.24023">
        <ele>192.4</ele>
        <time>2021-08-19T08:54:03Z</time>
      </trkpt>
      <trkpt lat="43.51697" lon="0.24018">
        <ele>192.4</ele>
        <time>2021-08-19T08:54:08Z</time>
      </trkpt>
      <trkpt lat="43.51697" lon="0.24018">
        <ele>192.4</ele>
        <time>2021-08-19T08:54:21Z</time>
      </trkpt>
      <trkpt lat="43.51697" lon="0.24018">
        <ele>192.4</ele>
        <time>2021-08-19T08:54:47Z</time>
      </trkpt>
      <trkpt lat="43.51697" lon="0.24017">
        <ele>192.4</ele>
        <time>2021-08-19T08:55:02Z</time>
      </trkpt>
      <trkpt lat="43.51695" lon="0.24017">
        <ele>192.4</ele>
        <time>2021-08-19T08:55:21Z</time>
      </trkpt>
      <trkpt lat="43.51696" lon="0.24018">
        <ele>192.4</ele>
        <time>2021-08-19T08:55:35Z</time>
      </trkpt>
      <trkpt lat="43.51696" lon="0.24018">
        <ele>192.4</ele>
        <time>2021-08-19T08:55:52Z</time>
      </trkpt>
      <trkpt lat="43.51697" lon="0.24018">
        <ele>192.4</ele>
        <time>2021-08-19T08:56:07Z</time>
      </trkpt>
      <trkpt lat="43.51697" lon="0.24019">
        <ele>192.4</ele>
        <time>2021-08-19T08:56:21Z</time>
      </trkpt>
      <trkpt lat="43.51696" lon="0.24019">
        <ele>192.4</ele>
        <time>2021-08-19T08:56:37Z</time>
      </trkpt>
      <trkpt lat="43.51696" lon="0.2402">
        <ele>192.4</ele>
        <time>2021-08-19T08:56:51Z</time>
      </trkpt>
      <trkpt lat="43.51698" lon="0.24018">
        <ele>192.4</ele>
        <time>2021-08-19T08:57:17Z</time>
      </trkpt>
      <trkpt lat="43.51697" lon="0.24017">
        <ele>191.92</ele>
        <time>2021-08-19T08:57:41Z</time>
      </trkpt>
      <trkpt lat="43.51698" lon="0.24018">
        <ele>191.92</ele>
        <time>2021-08-19T08:58:01Z</time>
      </trkpt>
      <trkpt lat="43.51697" lon="0.24018">
        <ele>191.92</ele>
        <time>2021-08-19T08:58:16Z</time>
      </trkpt>
      <trkpt lat="43.51696" lon="0.24017">
        <ele>191.92</ele>
        <time>2021-08-19T08:58:38Z</time>
      </trkpt>
      <trkpt lat="43.51695" lon="0.24017">
        <ele>191.92</ele>
        <time>2021-08-19T08:58:58Z</time>
      </trkpt>
      <trkpt lat="43.51697" lon="0.24017">
        <ele>191.92</ele>
        <time>2021-08-19T08:59:21Z</time>
      </trkpt>
      <trkpt lat="43.51697" lon="0.24018">
        <ele>191.92</ele>
        <time>2021-08-19T08:59:39Z</time>
      </trkpt>
      <trkpt lat="43.51697" lon="0.24016">
        <ele>191.92</ele>
        <time>2021-08-19T08:59:59Z</time>
      </trkpt>
      <trkpt lat="43.51696" lon="0.24018">
        <ele>191.92</ele>
        <time>2021-08-19T09:00:17Z</time>
      </trkpt>
      <trkpt lat="43.51696" lon="0.24019">
        <ele>191.92</ele>
        <time>2021-08-19T09:00:34Z</time>
      </trkpt>
      <trkpt lat="43.51697" lon="0.2402">
        <ele>191.92</ele>
        <time>2021-08-19T09:00:57Z</time>
      </trkpt>
      <trkpt lat="43.51695" lon="0.2402">
        <ele>191.92</ele>
        <time>2021-08-19T09:01:12Z</time>
      </trkpt>
      <trkpt lat="43.51695" lon="0.24018">
        <ele>191.92</ele>
        <time>2021-08-19T09:01:31Z</time>
      </trkpt>
      <trkpt lat="43.51694" lon="0.2402">
        <ele>191.92</ele>
        <time>2021-08-19T09:01:45Z</time>
      </trkpt>
      <trkpt lat="43.51694" lon="0.24018">
        <ele>191.92</ele>
        <time>2021-08-19T09:02:11Z</time>
      </trkpt>
      <trkpt lat="43.51694" lon="0.24018">
        <ele>191.92</ele>
        <time>2021-08-19T09:02:26Z</time>
      </trkpt>
      <trkpt lat="43.5169" lon="0.24013">
        <ele>191.92</ele>
        <time>2021-08-19T09:02:35Z</time>
      </trkpt>
      <trkpt lat="43.51678" lon="0.23998">
        <ele>191.92</ele>
        <time>2021-08-19T09:02:45Z</time>
      </trkpt>
      <trkpt lat="43.51668" lon="0.23987">
        <ele>191.92</ele>
        <time>2021-08-19T09:02:52Z</time>
      </trkpt>
      <trkpt lat="43.51654" lon="0.23969">
        <ele>191.92</ele>
        <time>2021-08-19T09:03:00Z</time>
      </trkpt>
      <trkpt lat="43.51639" lon="0.23955">
        <ele>191.92</ele>
        <time>2021-08-19T09:03:08Z</time>
      </trkpt>
      <trkpt lat="43.51628" lon="0.23941">
        <ele>191.92</ele>
        <time>2021-08-19T09:03:15Z</time>
      </trkpt>
      <trkpt lat="43.51617" lon="0.23928">
        <ele>192.4</ele>
        <time>2021-08-19T09:03:22Z</time>
      </trkpt>
      <trkpt lat="43.51603" lon="0.23911">
        <ele>192.4</ele>
        <time>2021-08-19T09:03:30Z</time>
      </trkpt>
      <trkpt lat="43.51593" lon="0.239">
        <ele>192.4</ele>
        <time>2021-08-19T09:03:37Z</time>
      </trkpt>
      <trkpt lat="43.51578" lon="0.23884">
        <ele>193.36</ele>
        <time>2021-08-19T09:03:46Z</time>
      </trkpt>
      <trkpt lat="43.51563" lon="0.23867">
        <ele>194.8</ele>
        <time>2021-08-19T09:03:57Z</time>
      </trkpt>
      <trkpt lat="43.5155" lon="0.23852">
        <ele>194.8</ele>
        <time>2021-08-19T09:04:04Z</time>
      </trkpt>
      <trkpt lat="43.51534" lon="0.23829">
        <ele>193.36</ele>
        <time>2021-08-19T09:04:11Z</time>
      </trkpt>
      <trkpt lat="43.5152" lon="0.23815">
        <ele>193.36</ele>
        <time>2021-08-19T09:04:16Z</time>
      </trkpt>
      <trkpt lat="43.51509" lon="0.23809">
        <ele>193.36</ele>
        <time>2021-08-19T09:04:22Z</time>
      </trkpt>
      <trkpt lat="43.51494" lon="0.23802">
        <ele>194.32</ele>
        <time>2021-08-19T09:04:29Z</time>
      </trkpt>
      <trkpt lat="43.51492" lon="0.23801">
        <ele>194.32</ele>
        <time>2021-08-19T09:04:30Z</time>
      </trkpt>
      <trkpt lat="43.51479" lon="0.23794">
        <ele>194.8</ele>
        <time>2021-08-19T09:04:37Z</time>
      </trkpt>
      <trkpt lat="43.51478" lon="0.23793">
        <ele>194.8</ele>
        <time>2021-08-19T09:04:38Z</time>
      </trkpt>
      <trkpt lat="43.51477" lon="0.23792">
        <ele>195.28</ele>
        <time>2021-08-19T09:04:39Z</time>
      </trkpt>
      <trkpt lat="43.51475" lon="0.23791">
        <ele>195.28</ele>
        <time>2021-08-19T09:04:40Z</time>
      </trkpt>
      <trkpt lat="43.51474" lon="0.23791">
        <ele>195.28</ele>
        <time>2021-08-19T09:04:41Z</time>
      </trkpt>
      <trkpt lat="43.51473" lon="0.2379">
        <ele>195.28</ele>
        <time>2021-08-19T09:04:42Z</time>
      </trkpt>
      <trkpt lat="43.51467" lon="0.23785">
        <ele>196.25</ele>
        <time>2021-08-19T09:04:48Z</time>
      </trkpt>
      <trkpt lat="43.51454" lon="0.23776">
        <ele>197.69</ele>
        <time>2021-08-19T09:04:56Z</time>
      </trkpt>
      <trkpt lat="43.51444" lon="0.2377">
        <ele>199.13</ele>
        <time>2021-08-19T09:05:03Z</time>
      </trkpt>
      <trkpt lat="43.51432" lon="0.23763">
        <ele>199.61</ele>
        <time>2021-08-19T09:05:10Z</time>
      </trkpt>
      <trkpt lat="43.51423" lon="0.23755">
        <ele>200.57</ele>
        <time>2021-08-19T09:05:17Z</time>
      </trkpt>
      <trkpt lat="43.51412" lon="0.23748">
        <ele>201.53</ele>
        <time>2021-08-19T09:05:24Z</time>
      </trkpt>
      <trkpt lat="43.51397" lon="0.23737">
        <ele>202.49</ele>
        <time>2021-08-19T09:05:32Z</time>
      </trkpt>
      <trkpt lat="43.51384" lon="0.23724">
        <ele>202.98</ele>
        <time>2021-08-19T09:05:39Z</time>
      </trkpt>
      <trkpt lat="43.51361" lon="0.23703">
        <ele>202.49</ele>
        <time>2021-08-19T09:05:46Z</time>
      </trkpt>
      <trkpt lat="43.51331" lon="0.23675">
        <ele>201.05</ele>
        <time>2021-08-19T09:05:55Z</time>
      </trkpt>
      <trkpt lat="43.51305" lon="0.23655">
        <ele>200.57</ele>
        <time>2021-08-19T09:06:03Z</time>
      </trkpt>
      <trkpt lat="43.51278" lon="0.23639">
        <ele>200.57</ele>
        <time>2021-08-19T09:06:12Z</time>
      </trkpt>
      <trkpt lat="43.51256" lon="0.23631">
        <ele>201.53</ele>
        <time>2021-08-19T09:06:19Z</time>
      </trkpt>
      <trkpt lat="43.51246" lon="0.23626">
        <ele>202.49</ele>
        <time>2021-08-19T09:06:25Z</time>
      </trkpt>
      <trkpt lat="43.51241" lon="0.23624">
        <ele>202.98</ele>
        <time>2021-08-19T09:06:28Z</time>
      </trkpt>
      <trkpt lat="43.5124" lon="0.23624">
        <ele>203.46</ele>
        <time>2021-08-19T09:06:29Z</time>
      </trkpt>
      <trkpt lat="43.51239" lon="0.23623">
        <ele>203.46</ele>
        <time>2021-08-19T09:06:30Z</time>
      </trkpt>
      <trkpt lat="43.51238" lon="0.23622">
        <ele>203.46</ele>
        <time>2021-08-19T09:06:31Z</time>
      </trkpt>
      <trkpt lat="43.51237" lon="0.23622">
        <ele>203.46</ele>
        <time>2021-08-19T09:06:32Z</time>
      </trkpt>
      <trkpt lat="43.51226" lon="0.23615">
        <ele>205.38</ele>
        <time>2021-08-19T09:06:40Z</time>
      </trkpt>
      <trkpt lat="43.5122" lon="0.23612">
        <ele>205.38</ele>
        <time>2021-08-19T09:06:44Z</time>
      </trkpt>
      <trkpt lat="43.51219" lon="0.23611">
        <ele>205.86</ele>
        <time>2021-08-19T09:06:45Z</time>
      </trkpt>
      <trkpt lat="43.51217" lon="0.2361">
        <ele>205.86</ele>
        <time>2021-08-19T09:06:46Z</time>
      </trkpt>
      <trkpt lat="43.51216" lon="0.23609">
        <ele>205.86</ele>
        <time>2021-08-19T09:06:47Z</time>
      </trkpt>
      <trkpt lat="43.51214" lon="0.23607">
        <ele>206.34</ele>
        <time>2021-08-19T09:06:48Z</time>
      </trkpt>
      <trkpt lat="43.51213" lon="0.23606">
        <ele>206.34</ele>
        <time>2021-08-19T09:06:49Z</time>
      </trkpt>
      <trkpt lat="43.51211" lon="0.23605">
        <ele>206.34</ele>
        <time>2021-08-19T09:06:50Z</time>
      </trkpt>
      <trkpt lat="43.5121" lon="0.23604">
        <ele>206.34</ele>
        <time>2021-08-19T09:06:51Z</time>
      </trkpt>
      <trkpt lat="43.51209" lon="0.23602">
        <ele>206.82</ele>
        <time>2021-08-19T09:06:52Z</time>
      </trkpt>
      <trkpt lat="43.51208" lon="0.23601">
        <ele>206.82</ele>
        <time>2021-08-19T09:06:53Z</time>
      </trkpt>
      <trkpt lat="43.51206" lon="0.236">
        <ele>206.82</ele>
        <time>2021-08-19T09:06:54Z</time>
      </trkpt>
      <trkpt lat="43.51204" lon="0.23598">
        <ele>206.82</ele>
        <time>2021-08-19T09:06:55Z</time>
      </trkpt>
      <trkpt lat="43.51203" lon="0.23597">
        <ele>207.3</ele>
        <time>2021-08-19T09:06:56Z</time>
      </trkpt>
      <trkpt lat="43.51191" lon="0.23588">
        <ele>208.26</ele>
        <time>2021-08-19T09:07:03Z</time>
      </trkpt>
      <trkpt lat="43.5118" lon="0.23575">
        <ele>209.7</ele>
        <time>2021-08-19T09:07:11Z</time>
      </trkpt>
      <trkpt lat="43.51172" lon="0.23563">
        <ele>210.19</ele>
        <time>2021-08-19T09:07:18Z</time>
      </trkpt>
      <trkpt lat="43.5116" lon="0.23543">
        <ele>211.63</ele>
        <time>2021-08-19T09:07:27Z</time>
      </trkpt>
      <trkpt lat="43.51154" lon="0.23523">
        <ele>211.63</ele>
        <time>2021-08-19T09:07:34Z</time>
      </trkpt>
      <trkpt lat="43.51152" lon="0.23503">
        <ele>213.07</ele>
        <time>2021-08-19T09:07:42Z</time>
      </trkpt>
      <trkpt lat="43.5115" lon="0.23477">
        <ele>213.55</ele>
        <time>2021-08-19T09:07:50Z</time>
      </trkpt>
      <trkpt lat="43.51148" lon="0.23442">
        <ele>211.63</ele>
        <time>2021-08-19T09:07:57Z</time>
      </trkpt>
      <trkpt lat="43.51146" lon="0.23431">
        <ele>210.19</ele>
        <time>2021-08-19T09:07:59Z</time>
      </trkpt>
      <trkpt lat="43.51146" lon="0.23423">
        <ele>208.74</ele>
        <time>2021-08-19T09:08:00Z</time>
      </trkpt>
      <trkpt lat="43.51145" lon="0.23396">
        <ele>205.38</ele>
        <time>2021-08-19T09:08:03Z</time>
      </trkpt>
      <trkpt lat="43.51144" lon="0.23377">
        <ele>203.46</ele>
        <time>2021-08-19T09:08:05Z</time>
      </trkpt>
      <trkpt lat="43.51142" lon="0.23358">
        <ele>201.53</ele>
        <time>2021-08-19T09:08:07Z</time>
      </trkpt>
      <trkpt lat="43.5114" lon="0.23349">
        <ele>200.57</ele>
        <time>2021-08-19T09:08:08Z</time>
      </trkpt>
      <trkpt lat="43.51137" lon="0.2334">
        <ele>199.61</ele>
        <time>2021-08-19T09:08:09Z</time>
      </trkpt>
      <trkpt lat="43.51124" lon="0.23306">
        <ele>195.77</ele>
        <time>2021-08-19T09:08:13Z</time>
      </trkpt>
      <trkpt lat="43.51119" lon="0.23298">
        <ele>194.8</ele>
        <time>2021-08-19T09:08:14Z</time>
      </trkpt>
      <trkpt lat="43.51092" lon="0.23265">
        <ele>190.96</ele>
        <time>2021-08-19T09:08:18Z</time>
      </trkpt>
      <trkpt lat="43.5108" lon="0.23251">
        <ele>191.44</ele>
        <time>2021-08-19T09:08:20Z</time>
      </trkpt>
      <trkpt lat="43.51075" lon="0.23244">
        <ele>190.96</ele>
        <time>2021-08-19T09:08:21Z</time>
      </trkpt>
      <trkpt lat="43.51071" lon="0.23236">
        <ele>190.48</ele>
        <time>2021-08-19T09:08:22Z</time>
      </trkpt>
      <trkpt lat="43.51067" lon="0.23227">
        <ele>189.52</ele>
        <time>2021-08-19T09:08:23Z</time>
      </trkpt>
      <trkpt lat="43.51064" lon="0.23218">
        <ele>189.52</ele>
        <time>2021-08-19T09:08:24Z</time>
      </trkpt>
      <trkpt lat="43.51061" lon="0.23209">
        <ele>188.56</ele>
        <time>2021-08-19T09:08:25Z</time>
      </trkpt>
      <trkpt lat="43.51051" lon="0.23172">
        <ele>185.67</ele>
        <time>2021-08-19T09:08:29Z</time>
      </trkpt>
      <trkpt lat="43.5104" lon="0.23144">
        <ele>182.31</ele>
        <time>2021-08-19T09:08:32Z</time>
      </trkpt>
      <trkpt lat="43.51028" lon="0.23114">
        <ele>178.94</ele>
        <time>2021-08-19T09:08:35Z</time>
      </trkpt>
      <trkpt lat="43.51014" lon="0.23079">
        <ele>174.62</ele>
        <time>2021-08-19T09:08:39Z</time>
      </trkpt>
      <trkpt lat="43.51" lon="0.23044">
        <ele>172.21</ele>
        <time>2021-08-19T09:08:43Z</time>
      </trkpt>
      <trkpt lat="43.50985" lon="0.23013">
        <ele>171.73</ele>
        <time>2021-08-19T09:08:47Z</time>
      </trkpt>
      <trkpt lat="43.50972" lon="0.22999">
        <ele>171.73</ele>
        <time>2021-08-19T09:08:50Z</time>
      </trkpt>
      <trkpt lat="43.50967" lon="0.22996">
        <ele>171.73</ele>
        <time>2021-08-19T09:08:51Z</time>
      </trkpt>
      <trkpt lat="43.50962" lon="0.22994">
        <ele>171.73</ele>
        <time>2021-08-19T09:08:52Z</time>
      </trkpt>
      <trkpt lat="43.50958" lon="0.22994">
        <ele>171.73</ele>
        <time>2021-08-19T09:08:53Z</time>
      </trkpt>
      <trkpt lat="43.50953" lon="0.22995">
        <ele>171.73</ele>
        <time>2021-08-19T09:08:54Z</time>
      </trkpt>
      <trkpt lat="43.5095" lon="0.22996">
        <ele>172.69</ele>
        <time>2021-08-19T09:08:55Z</time>
      </trkpt>
      <trkpt lat="43.50942" lon="0.22998">
        <ele>173.66</ele>
        <time>2021-08-19T09:08:59Z</time>
      </trkpt>
      <trkpt lat="43.50926" lon="0.22996">
        <ele>174.62</ele>
        <time>2021-08-19T09:09:07Z</time>
      </trkpt>
      <trkpt lat="43.50914" lon="0.22995">
        <ele>175.58</ele>
        <time>2021-08-19T09:09:14Z</time>
      </trkpt>
      <trkpt lat="43.50905" lon="0.22995">
        <ele>177.02</ele>
        <time>2021-08-19T09:09:20Z</time>
      </trkpt>
      <trkpt lat="43.50893" lon="0.22992">
        <ele>178.46</ele>
        <time>2021-08-19T09:09:29Z</time>
      </trkpt>
      <trkpt lat="43.50883" lon="0.22982">
        <ele>179.9</ele>
        <time>2021-08-19T09:09:37Z</time>
      </trkpt>
      <trkpt lat="43.50877" lon="0.22963">
        <ele>180.87</ele>
        <time>2021-08-19T09:09:45Z</time>
      </trkpt>
      <trkpt lat="43.50865" lon="0.2294">
        <ele>178.46</ele>
        <time>2021-08-19T09:09:50Z</time>
      </trkpt>
      <trkpt lat="43.50863" lon="0.22932">
        <ele>177.02</ele>
        <time>2021-08-19T09:09:51Z</time>
      </trkpt>
      <trkpt lat="43.5086" lon="0.22924">
        <ele>176.06</ele>
        <time>2021-08-19T09:09:52Z</time>
      </trkpt>
      <trkpt lat="43.50859" lon="0.22915">
        <ele>175.1</ele>
        <time>2021-08-19T09:09:53Z</time>
      </trkpt>
      <trkpt lat="43.50857" lon="0.22906">
        <ele>174.62</ele>
        <time>2021-08-19T09:09:54Z</time>
      </trkpt>
      <trkpt lat="43.50854" lon="0.22897">
        <ele>173.17</ele>
        <time>2021-08-19T09:09:55Z</time>
      </trkpt>
      <trkpt lat="43.50845" lon="0.22866">
        <ele>170.29</ele>
        <time>2021-08-19T09:09:58Z</time>
      </trkpt>
      <trkpt lat="43.50834" lon="0.22821">
        <ele>168.37</ele>
        <time>2021-08-19T09:10:02Z</time>
      </trkpt>
      <trkpt lat="43.50814" lon="0.22746">
        <ele>166.93</ele>
        <time>2021-08-19T09:10:09Z</time>
      </trkpt>
      <trkpt lat="43.50808" lon="0.22716">
        <ele>166.93</ele>
        <time>2021-08-19T09:10:12Z</time>
      </trkpt>
      <trkpt lat="43.50808" lon="0.22697">
        <ele>166.45</ele>
        <time>2021-08-19T09:10:14Z</time>
      </trkpt>
      <trkpt lat="43.50808" lon="0.22687">
        <ele>166.45</ele>
        <time>2021-08-19T09:10:15Z</time>
      </trkpt>
      <trkpt lat="43.50808" lon="0.22678">
        <ele>165.96</ele>
        <time>2021-08-19T09:10:16Z</time>
      </trkpt>
      <trkpt lat="43.50807" lon="0.22669">
        <ele>166.45</ele>
        <time>2021-08-19T09:10:17Z</time>
      </trkpt>
      <trkpt lat="43.50805" lon="0.22661">
        <ele>166.45</ele>
        <time>2021-08-19T09:10:18Z</time>
      </trkpt>
      <trkpt lat="43.50803" lon="0.22653">
        <ele>166.45</ele>
        <time>2021-08-19T09:10:19Z</time>
      </trkpt>
      <trkpt lat="43.50797" lon="0.22633">
        <ele>166.45</ele>
        <time>2021-08-19T09:10:22Z</time>
      </trkpt>
      <trkpt lat="43.50793" lon="0.22626">
        <ele>166.45</ele>
        <time>2021-08-19T09:10:23Z</time>
      </trkpt>
      <trkpt lat="43.5079" lon="0.2262">
        <ele>166.45</ele>
        <time>2021-08-19T09:10:24Z</time>
      </trkpt>
      <trkpt lat="43.50786" lon="0.22615">
        <ele>166.45</ele>
        <time>2021-08-19T09:10:25Z</time>
      </trkpt>
      <trkpt lat="43.50783" lon="0.22609">
        <ele>166.45</ele>
        <time>2021-08-19T09:10:26Z</time>
      </trkpt>
      <trkpt lat="43.50765" lon="0.22579">
        <ele>166.45</ele>
        <time>2021-08-19T09:10:33Z</time>
      </trkpt>
      <trkpt lat="43.50736" lon="0.22554">
        <ele>166.45</ele>
        <time>2021-08-19T09:10:42Z</time>
      </trkpt>
      <trkpt lat="43.50707" lon="0.22523">
        <ele>165.96</ele>
        <time>2021-08-19T09:10:50Z</time>
      </trkpt>
      <trkpt lat="43.50684" lon="0.22491">
        <ele>165.48</ele>
        <time>2021-08-19T09:10:57Z</time>
      </trkpt>
      <trkpt lat="43.5068" lon="0.22486">
        <ele>165.48</ele>
        <time>2021-08-19T09:10:58Z</time>
      </trkpt>
      <trkpt lat="43.50675" lon="0.22482">
        <ele>165.48</ele>
        <time>2021-08-19T09:10:59Z</time>
      </trkpt>
      <trkpt lat="43.50656" lon="0.22466">
        <ele>165.48</ele>
        <time>2021-08-19T09:11:03Z</time>
      </trkpt>
      <trkpt lat="43.50613" lon="0.2243">
        <ele>165.48</ele>
        <time>2021-08-19T09:11:12Z</time>
      </trkpt>
      <trkpt lat="43.50604" lon="0.22423">
        <ele>165.48</ele>
        <time>2021-08-19T09:11:14Z</time>
      </trkpt>
      <trkpt lat="43.5056" lon="0.224">
        <ele>165.48</ele>
        <time>2021-08-19T09:11:23Z</time>
      </trkpt>
      <trkpt lat="43.50518" lon="0.22379">
        <ele>165.48</ele>
        <time>2021-08-19T09:11:31Z</time>
      </trkpt>
      <trkpt lat="43.50509" lon="0.22372">
        <ele>165.48</ele>
        <time>2021-08-19T09:11:33Z</time>
      </trkpt>
      <trkpt lat="43.50504" lon="0.22368">
        <ele>165.48</ele>
        <time>2021-08-19T09:11:34Z</time>
      </trkpt>
      <trkpt lat="43.50486" lon="0.22349">
        <ele>165.48</ele>
        <time>2021-08-19T09:11:38Z</time>
      </trkpt>
      <trkpt lat="43.50483" lon="0.22344">
        <ele>165.48</ele>
        <time>2021-08-19T09:11:39Z</time>
      </trkpt>
      <trkpt lat="43.50463" lon="0.2231">
        <ele>165.48</ele>
        <time>2021-08-19T09:11:46Z</time>
      </trkpt>
      <trkpt lat="43.50455" lon="0.22294">
        <ele>165.48</ele>
        <time>2021-08-19T09:11:49Z</time>
      </trkpt>
      <trkpt lat="43.5045" lon="0.22285">
        <ele>165.48</ele>
        <time>2021-08-19T09:11:51Z</time>
      </trkpt>
      <trkpt lat="43.50431" lon="0.22251">
        <ele>167.41</ele>
        <time>2021-08-19T09:11:59Z</time>
      </trkpt>
      <trkpt lat="43.50409" lon="0.22219">
        <ele>167.89</ele>
        <time>2021-08-19T09:12:09Z</time>
      </trkpt>
      <trkpt lat="43.50393" lon="0.22194">
        <ele>168.85</ele>
        <time>2021-08-19T09:12:18Z</time>
      </trkpt>
      <trkpt lat="43.50379" lon="0.22173">
        <ele>169.81</ele>
        <time>2021-08-19T09:12:26Z</time>
      </trkpt>
      <trkpt lat="43.50377" lon="0.22171">
        <ele>169.81</ele>
        <time>2021-08-19T09:12:27Z</time>
      </trkpt>
      <trkpt lat="43.50365" lon="0.22153">
        <ele>169.81</ele>
        <time>2021-08-19T09:12:33Z</time>
      </trkpt>
      <trkpt lat="43.50351" lon="0.22119">
        <ele>169.81</ele>
        <time>2021-08-19T09:12:41Z</time>
      </trkpt>
      <trkpt lat="43.50342" lon="0.22075">
        <ele>170.29</ele>
        <time>2021-08-19T09:12:50Z</time>
      </trkpt>
      <trkpt lat="43.50334" lon="0.22042">
        <ele>171.25</ele>
        <time>2021-08-19T09:12:59Z</time>
      </trkpt>
      <trkpt lat="43.50327" lon="0.2202">
        <ele>171.73</ele>
        <time>2021-08-19T09:13:06Z</time>
      </trkpt>
      <trkpt lat="43.50317" lon="0.21998">
        <ele>172.21</ele>
        <time>2021-08-19T09:13:15Z</time>
      </trkpt>
      <trkpt lat="43.50311" lon="0.21983">
        <ele>172.69</ele>
        <time>2021-08-19T09:13:22Z</time>
      </trkpt>
      <trkpt lat="43.50303" lon="0.21964">
        <ele>173.66</ele>
        <time>2021-08-19T09:13:32Z</time>
      </trkpt>
      <trkpt lat="43.50299" lon="0.21956">
        <ele>174.62</ele>
        <time>2021-08-19T09:13:37Z</time>
      </trkpt>
      <trkpt lat="43.50291" lon="0.21949">
        <ele>175.58</ele>
        <time>2021-08-19T09:13:45Z</time>
      </trkpt>
      <trkpt lat="43.5029" lon="0.21949">
        <ele>175.58</ele>
        <time>2021-08-19T09:13:46Z</time>
      </trkpt>
      <trkpt lat="43.50288" lon="0.21949">
        <ele>176.06</ele>
        <time>2021-08-19T09:13:47Z</time>
      </trkpt>
      <trkpt lat="43.50285" lon="0.21949">
        <ele>176.54</ele>
        <time>2021-08-19T09:13:51Z</time>
      </trkpt>
      <trkpt lat="43.50283" lon="0.2195">
        <ele>176.54</ele>
        <time>2021-08-19T09:13:56Z</time>
      </trkpt>
      <trkpt lat="43.50277" lon="0.21951">
        <ele>177.5</ele>
        <time>2021-08-19T09:14:03Z</time>
      </trkpt>
      <trkpt lat="43.50269" lon="0.21951">
        <ele>177.98</ele>
        <time>2021-08-19T09:14:11Z</time>
      </trkpt>
      <trkpt lat="43.5026" lon="0.21948">
        <ele>179.42</ele>
        <time>2021-08-19T09:14:22Z</time>
      </trkpt>
      <trkpt lat="43.50256" lon="0.21946">
        <ele>180.38</ele>
        <time>2021-08-19T09:14:31Z</time>
      </trkpt>
      <trkpt lat="43.5025" lon="0.21944">
        <ele>181.83</ele>
        <time>2021-08-19T09:14:40Z</time>
      </trkpt>
      <trkpt lat="43.50245" lon="0.21942">
        <ele>182.31</ele>
        <time>2021-08-19T09:14:48Z</time>
      </trkpt>
      <trkpt lat="43.50239" lon="0.2194">
        <ele>183.75</ele>
        <time>2021-08-19T09:14:58Z</time>
      </trkpt>
      <trkpt lat="43.50231" lon="0.21937">
        <ele>184.71</ele>
        <time>2021-08-19T09:15:08Z</time>
      </trkpt>
      <trkpt lat="43.50226" lon="0.21935">
        <ele>186.15</ele>
        <time>2021-08-19T09:15:16Z</time>
      </trkpt>
      <trkpt lat="43.5022" lon="0.21933">
        <ele>187.11</ele>
        <time>2021-08-19T09:15:25Z</time>
      </trkpt>
      <trkpt lat="43.50214" lon="0.21931">
        <ele>188.56</ele>
        <time>2021-08-19T09:15:36Z</time>
      </trkpt>
      <trkpt lat="43.50207" lon="0.21928">
        <ele>190</ele>
        <time>2021-08-19T09:15:47Z</time>
      </trkpt>
      <trkpt lat="43.502" lon="0.21926">
        <ele>191.44</ele>
        <time>2021-08-19T09:15:57Z</time>
      </trkpt>
      <trkpt lat="43.50196" lon="0.21924">
        <ele>192.88</ele>
        <time>2021-08-19T09:16:05Z</time>
      </trkpt>
      <trkpt lat="43.5019" lon="0.21923">
        <ele>193.84</ele>
        <time>2021-08-19T09:16:15Z</time>
      </trkpt>
      <trkpt lat="43.50182" lon="0.2192">
        <ele>195.77</ele>
        <time>2021-08-19T09:16:27Z</time>
      </trkpt>
      <trkpt lat="43.50176" lon="0.21917">
        <ele>196.73</ele>
        <time>2021-08-19T09:16:35Z</time>
      </trkpt>
      <trkpt lat="43.50167" lon="0.21914">
        <ele>198.65</ele>
        <time>2021-08-19T09:16:46Z</time>
      </trkpt>
      <trkpt lat="43.50158" lon="0.21911">
        <ele>199.61</ele>
        <time>2021-08-19T09:16:56Z</time>
      </trkpt>
      <trkpt lat="43.50149" lon="0.21907">
        <ele>201.05</ele>
        <time>2021-08-19T09:17:06Z</time>
      </trkpt>
      <trkpt lat="43.50146" lon="0.21905">
        <ele>201.53</ele>
        <time>2021-08-19T09:17:10Z</time>
      </trkpt>
      <trkpt lat="43.50145" lon="0.21902">
        <ele>201.53</ele>
        <time>2021-08-19T09:17:12Z</time>
      </trkpt>
      <trkpt lat="43.50144" lon="0.21899">
        <ele>201.53</ele>
        <time>2021-08-19T09:17:20Z</time>
      </trkpt>
      <trkpt lat="43.50144" lon="0.21898">
        <ele>201.53</ele>
        <time>2021-08-19T09:17:31Z</time>
      </trkpt>
      <trkpt lat="43.50145" lon="0.21898">
        <ele>201.53</ele>
        <time>2021-08-19T09:17:38Z</time>
      </trkpt>
      <trkpt lat="43.50145" lon="0.21896">
        <ele>201.05</ele>
        <time>2021-08-19T09:17:43Z</time>
      </trkpt>
      <trkpt lat="43.50146" lon="0.2189">
        <ele>202.01</ele>
        <time>2021-08-19T09:17:48Z</time>
      </trkpt>
      <trkpt lat="43.50146" lon="0.21888">
        <ele>201.53</ele>
        <time>2021-08-19T09:17:49Z</time>
      </trkpt>
      <trkpt lat="43.50146" lon="0.21886">
        <ele>201.53</ele>
        <time>2021-08-19T09:17:50Z</time>
      </trkpt>
      <trkpt lat="43.50146" lon="0.21884">
        <ele>201.53</ele>
        <time>2021-08-19T09:17:51Z</time>
      </trkpt>
      <trkpt lat="43.50146" lon="0.21882">
        <ele>201.53</ele>
        <time>2021-08-19T09:17:52Z</time>
      </trkpt>
      <trkpt lat="43.50146" lon="0.21879">
        <ele>201.53</ele>
        <time>2021-08-19T09:17:53Z</time>
      </trkpt>
      <trkpt lat="43.50147" lon="0.21863">
        <ele>202.49</ele>
        <time>2021-08-19T09:18:00Z</time>
      </trkpt>
      <trkpt lat="43.50149" lon="0.21845">
        <ele>203.46</ele>
        <time>2021-08-19T09:18:07Z</time>
      </trkpt>
      <trkpt lat="43.50148" lon="0.21842">
        <ele>203.46</ele>
        <time>2021-08-19T09:18:08Z</time>
      </trkpt>
      <trkpt lat="43.50148" lon="0.21839">
        <ele>203.94</ele>
        <time>2021-08-19T09:18:09Z</time>
      </trkpt>
      <trkpt lat="43.50148" lon="0.21836">
        <ele>203.94</ele>
        <time>2021-08-19T09:18:10Z</time>
      </trkpt>
      <trkpt lat="43.50148" lon="0.21834">
        <ele>203.94</ele>
        <time>2021-08-19T09:18:11Z</time>
      </trkpt>
      <trkpt lat="43.50148" lon="0.21832">
        <ele>204.42</ele>
        <time>2021-08-19T09:18:12Z</time>
      </trkpt>
      <trkpt lat="43.50148" lon="0.2183">
        <ele>204.42</ele>
        <time>2021-08-19T09:18:13Z</time>
      </trkpt>
      <trkpt lat="43.50147" lon="0.21816">
        <ele>205.38</ele>
        <time>2021-08-19T09:18:22Z</time>
      </trkpt>
      <trkpt lat="43.50144" lon="0.21809">
        <ele>205.86</ele>
        <time>2021-08-19T09:18:27Z</time>
      </trkpt>
      <trkpt lat="43.50144" lon="0.21807">
        <ele>205.86</ele>
        <time>2021-08-19T09:18:28Z</time>
      </trkpt>
      <trkpt lat="43.50143" lon="0.21806">
        <ele>205.86</ele>
        <time>2021-08-19T09:18:29Z</time>
      </trkpt>
      <trkpt lat="43.50138" lon="0.21792">
        <ele>207.3</ele>
        <time>2021-08-19T09:18:38Z</time>
      </trkpt>
      <trkpt lat="43.50138" lon="0.2179">
        <ele>207.3</ele>
        <time>2021-08-19T09:18:39Z</time>
      </trkpt>
      <trkpt lat="43.50137" lon="0.21789">
        <ele>207.3</ele>
        <time>2021-08-19T09:18:40Z</time>
      </trkpt>
      <trkpt lat="43.50137" lon="0.21787">
        <ele>207.78</ele>
        <time>2021-08-19T09:18:41Z</time>
      </trkpt>
      <trkpt lat="43.50136" lon="0.21786">
        <ele>207.78</ele>
        <time>2021-08-19T09:18:42Z</time>
      </trkpt>
      <trkpt lat="43.50136" lon="0.21784">
        <ele>208.26</ele>
        <time>2021-08-19T09:18:43Z</time>
      </trkpt>
      <trkpt lat="43.50135" lon="0.21782">
        <ele>208.26</ele>
        <time>2021-08-19T09:18:44Z</time>
      </trkpt>
      <trkpt lat="43.50135" lon="0.2178">
        <ele>208.26</ele>
        <time>2021-08-19T09:18:45Z</time>
      </trkpt>
      <trkpt lat="43.50134" lon="0.21778">
        <ele>208.74</ele>
        <time>2021-08-19T09:18:46Z</time>
      </trkpt>
      <trkpt lat="43.50133" lon="0.21771">
        <ele>208.74</ele>
        <time>2021-08-19T09:18:50Z</time>
      </trkpt>
      <trkpt lat="43.50133" lon="0.21769">
        <ele>209.22</ele>
        <time>2021-08-19T09:18:51Z</time>
      </trkpt>
      <trkpt lat="43.50132" lon="0.21761">
        <ele>209.7</ele>
        <time>2021-08-19T09:18:55Z</time>
      </trkpt>
      <trkpt lat="43.50132" lon="0.21759">
        <ele>209.7</ele>
        <time>2021-08-19T09:18:56Z</time>
      </trkpt>
      <trkpt lat="43.50132" lon="0.21757">
        <ele>210.19</ele>
        <time>2021-08-19T09:18:57Z</time>
      </trkpt>
      <trkpt lat="43.50131" lon="0.21754">
        <ele>210.19</ele>
        <time>2021-08-19T09:18:58Z</time>
      </trkpt>
      <trkpt lat="43.50131" lon="0.21752">
        <ele>210.19</ele>
        <time>2021-08-19T09:18:59Z</time>
      </trkpt>
      <trkpt lat="43.50131" lon="0.2175">
        <ele>210.19</ele>
        <time>2021-08-19T09:19:00Z</time>
      </trkpt>
      <trkpt lat="43.50131" lon="0.21723">
        <ele>211.63</ele>
        <time>2021-08-19T09:19:12Z</time>
      </trkpt>
      <trkpt lat="43.5013" lon="0.21721">
        <ele>211.63</ele>
        <time>2021-08-19T09:19:13Z</time>
      </trkpt>
      <trkpt lat="43.5013" lon="0.21719">
        <ele>211.63</ele>
        <time>2021-08-19T09:19:14Z</time>
      </trkpt>
      <trkpt lat="43.5013" lon="0.21716">
        <ele>212.11</ele>
        <time>2021-08-19T09:19:15Z</time>
      </trkpt>
      <trkpt lat="43.5013" lon="0.21714">
        <ele>212.11</ele>
        <time>2021-08-19T09:19:16Z</time>
      </trkpt>
      <trkpt lat="43.5013" lon="0.21712">
        <ele>212.11</ele>
        <time>2021-08-19T09:19:17Z</time>
      </trkpt>
      <trkpt lat="43.50129" lon="0.21696">
        <ele>212.59</ele>
        <time>2021-08-19T09:19:24Z</time>
      </trkpt>
      <trkpt lat="43.50127" lon="0.21672">
        <ele>213.55</ele>
        <time>2021-08-19T09:19:34Z</time>
      </trkpt>
      <trkpt lat="43.50125" lon="0.21654">
        <ele>214.99</ele>
        <time>2021-08-19T09:19:42Z</time>
      </trkpt>
      <trkpt lat="43.50122" lon="0.21629">
        <ele>215.47</ele>
        <time>2021-08-19T09:19:52Z</time>
      </trkpt>
      <trkpt lat="43.50117" lon="0.21598">
        <ele>215.95</ele>
        <time>2021-08-19T09:20:01Z</time>
      </trkpt>
      <trkpt lat="43.50106" lon="0.21575">
        <ele>216.91</ele>
        <time>2021-08-19T09:20:09Z</time>
      </trkpt>
      <trkpt lat="43.50087" lon="0.21556">
        <ele>217.4</ele>
        <time>2021-08-19T09:20:18Z</time>
      </trkpt>
      <trkpt lat="43.50065" lon="0.21537">
        <ele>218.84</ele>
        <time>2021-08-19T09:20:28Z</time>
      </trkpt>
      <trkpt lat="43.50051" lon="0.21527">
        <ele>220.28</ele>
        <time>2021-08-19T09:20:36Z</time>
      </trkpt>
      <trkpt lat="43.50039" lon="0.21522">
        <ele>222.2</ele>
        <time>2021-08-19T09:20:44Z</time>
      </trkpt>
      <trkpt lat="43.50025" lon="0.21519">
        <ele>224.12</ele>
        <time>2021-08-19T09:20:54Z</time>
      </trkpt>
      <trkpt lat="43.50012" lon="0.21517">
        <ele>226.05</ele>
        <time>2021-08-19T09:21:03Z</time>
      </trkpt>
      <trkpt lat="43.50009" lon="0.21518">
        <ele>226.05</ele>
        <time>2021-08-19T09:21:09Z</time>
      </trkpt>
      <trkpt lat="43.50005" lon="0.21518">
        <ele>226.53</ele>
        <time>2021-08-19T09:21:19Z</time>
      </trkpt>
      <trkpt lat="43.5" lon="0.2152">
        <ele>227.97</ele>
        <time>2021-08-19T09:21:26Z</time>
      </trkpt>
      <trkpt lat="43.49992" lon="0.21521">
        <ele>229.41</ele>
        <time>2021-08-19T09:21:35Z</time>
      </trkpt>
      <trkpt lat="43.49985" lon="0.21522">
        <ele>230.85</ele>
        <time>2021-08-19T09:21:44Z</time>
      </trkpt>
      <trkpt lat="43.49978" lon="0.21524">
        <ele>232.78</ele>
        <time>2021-08-19T09:21:53Z</time>
      </trkpt>
      <trkpt lat="43.49977" lon="0.21524">
        <ele>232.3</ele>
        <time>2021-08-19T09:21:59Z</time>
      </trkpt>
      <trkpt lat="43.49968" lon="0.21524">
        <ele>234.7</ele>
        <time>2021-08-19T09:22:10Z</time>
      </trkpt>
      <trkpt lat="43.49961" lon="0.21526">
        <ele>236.62</ele>
        <time>2021-08-19T09:22:20Z</time>
      </trkpt>
      <trkpt lat="43.49953" lon="0.21525">
        <ele>238.06</ele>
        <time>2021-08-19T09:22:31Z</time>
      </trkpt>
      <trkpt lat="43.49947" lon="0.21525">
        <ele>239.51</ele>
        <time>2021-08-19T09:22:39Z</time>
      </trkpt>
      <trkpt lat="43.49938" lon="0.21524">
        <ele>240.47</ele>
        <time>2021-08-19T09:22:48Z</time>
      </trkpt>
      <trkpt lat="43.49926" lon="0.2152">
        <ele>241.43</ele>
        <time>2021-08-19T09:22:57Z</time>
      </trkpt>
      <trkpt lat="43.49925" lon="0.2152">
        <ele>241.43</ele>
        <time>2021-08-19T09:23:05Z</time>
      </trkpt>
      <trkpt lat="43.49925" lon="0.2152">
        <ele>241.43</ele>
        <time>2021-08-19T09:23:09Z</time>
      </trkpt>
      <trkpt lat="43.49922" lon="0.21507">
        <ele>241.43</ele>
        <time>2021-08-19T09:23:15Z</time>
      </trkpt>
      <trkpt lat="43.49929" lon="0.21485">
        <ele>243.35</ele>
        <time>2021-08-19T09:23:24Z</time>
      </trkpt>
      <trkpt lat="43.49936" lon="0.21464">
        <ele>244.79</ele>
        <time>2021-08-19T09:23:32Z</time>
      </trkpt>
      <trkpt lat="43.49943" lon="0.21446">
        <ele>246.23</ele>
        <time>2021-08-19T09:23:40Z</time>
      </trkpt>
      <trkpt lat="43.49949" lon="0.21427">
        <ele>247.2</ele>
        <time>2021-08-19T09:23:48Z</time>
      </trkpt>
      <trkpt lat="43.4995" lon="0.21424">
        <ele>247.68</ele>
        <time>2021-08-19T09:23:49Z</time>
      </trkpt>
      <trkpt lat="43.49951" lon="0.21422">
        <ele>247.68</ele>
        <time>2021-08-19T09:23:50Z</time>
      </trkpt>
      <trkpt lat="43.49952" lon="0.2142">
        <ele>248.16</ele>
        <time>2021-08-19T09:23:51Z</time>
      </trkpt>
      <trkpt lat="43.49953" lon="0.21417">
        <ele>248.16</ele>
        <time>2021-08-19T09:23:52Z</time>
      </trkpt>
      <trkpt lat="43.49964" lon="0.21397">
        <ele>248.64</ele>
        <time>2021-08-19T09:24:00Z</time>
      </trkpt>
      <trkpt lat="43.49976" lon="0.21377">
        <ele>248.64</ele>
        <time>2021-08-19T09:24:07Z</time>
      </trkpt>
      <trkpt lat="43.49981" lon="0.21375">
        <ele>248.64</ele>
        <time>2021-08-19T09:24:09Z</time>
      </trkpt>
      <trkpt lat="43.49983" lon="0.21375">
        <ele>248.64</ele>
        <time>2021-08-19T09:24:10Z</time>
      </trkpt>
      <trkpt lat="43.49986" lon="0.21376">
        <ele>248.64</ele>
        <time>2021-08-19T09:24:11Z</time>
      </trkpt>
      <trkpt lat="43.49989" lon="0.21378">
        <ele>248.64</ele>
        <time>2021-08-19T09:24:12Z</time>
      </trkpt>
      <trkpt lat="43.49992" lon="0.2138">
        <ele>248.64</ele>
        <time>2021-08-19T09:24:13Z</time>
      </trkpt>
      <trkpt lat="43.50002" lon="0.21385">
        <ele>246.72</ele>
        <time>2021-08-19T09:24:16Z</time>
      </trkpt>
      <trkpt lat="43.50013" lon="0.21388">
        <ele>246.23</ele>
        <time>2021-08-19T09:24:21Z</time>
      </trkpt>
      <trkpt lat="43.50013" lon="0.2139">
        <ele>246.23</ele>
        <time>2021-08-19T09:24:33Z</time>
      </trkpt>
      <trkpt lat="43.50013" lon="0.21387">
        <ele>246.23</ele>
        <time>2021-08-19T09:24:39Z</time>
      </trkpt>
      <trkpt lat="43.50013" lon="0.21385">
        <ele>246.23</ele>
        <time>2021-08-19T09:24:40Z</time>
      </trkpt>
      <trkpt lat="43.50013" lon="0.21383">
        <ele>245.75</ele>
        <time>2021-08-19T09:24:41Z</time>
      </trkpt>
      <trkpt lat="43.50013" lon="0.21381">
        <ele>245.75</ele>
        <time>2021-08-19T09:24:42Z</time>
      </trkpt>
      <trkpt lat="43.50013" lon="0.21379">
        <ele>245.75</ele>
        <time>2021-08-19T09:24:43Z</time>
      </trkpt>
      <trkpt lat="43.50013" lon="0.21377">
        <ele>245.75</ele>
        <time>2021-08-19T09:24:44Z</time>
      </trkpt>
      <trkpt lat="43.50013" lon="0.21375">
        <ele>245.75</ele>
        <time>2021-08-19T09:24:45Z</time>
      </trkpt>
      <trkpt lat="43.50014" lon="0.21372">
        <ele>245.75</ele>
        <time>2021-08-19T09:24:46Z</time>
      </trkpt>
      <trkpt lat="43.50015" lon="0.21369">
        <ele>245.75</ele>
        <time>2021-08-19T09:24:47Z</time>
      </trkpt>
      <trkpt lat="43.50016" lon="0.21365">
        <ele>245.27</ele>
        <time>2021-08-19T09:24:48Z</time>
      </trkpt>
      <trkpt lat="43.50018" lon="0.2136">
        <ele>244.79</ele>
        <time>2021-08-19T09:24:49Z</time>
      </trkpt>
      <trkpt lat="43.50026" lon="0.21333">
        <ele>242.87</ele>
        <time>2021-08-19T09:24:53Z</time>
      </trkpt>
      <trkpt lat="43.50035" lon="0.21276">
        <ele>240.47</ele>
        <time>2021-08-19T09:25:00Z</time>
      </trkpt>
      <trkpt lat="43.50037" lon="0.21267">
        <ele>239.99</ele>
        <time>2021-08-19T09:25:01Z</time>
      </trkpt>
      <trkpt lat="43.50039" lon="0.2126">
        <ele>239.02</ele>
        <time>2021-08-19T09:25:02Z</time>
      </trkpt>
      <trkpt lat="43.50043" lon="0.21252">
        <ele>238.06</ele>
        <time>2021-08-19T09:25:03Z</time>
      </trkpt>
      <trkpt lat="43.50047" lon="0.21244">
        <ele>237.1</ele>
        <time>2021-08-19T09:25:04Z</time>
      </trkpt>
      <trkpt lat="43.50052" lon="0.21237">
        <ele>236.62</ele>
        <time>2021-08-19T09:25:05Z</time>
      </trkpt>
      <trkpt lat="43.5007" lon="0.21209">
        <ele>232.3</ele>
        <time>2021-08-19T09:25:08Z</time>
      </trkpt>
      <trkpt lat="43.50091" lon="0.21177">
        <ele>228.93</ele>
        <time>2021-08-19T09:25:11Z</time>
      </trkpt>
      <trkpt lat="43.50128" lon="0.21139">
        <ele>227.01</ele>
        <time>2021-08-19T09:25:16Z</time>
      </trkpt>
      <trkpt lat="43.50135" lon="0.21136">
        <ele>227.49</ele>
        <time>2021-08-19T09:25:17Z</time>
      </trkpt>
      <trkpt lat="43.50142" lon="0.21134">
        <ele>227.49</ele>
        <time>2021-08-19T09:25:18Z</time>
      </trkpt>
      <trkpt lat="43.50148" lon="0.21133">
        <ele>227.49</ele>
        <time>2021-08-19T09:25:19Z</time>
      </trkpt>
      <trkpt lat="43.50154" lon="0.21133">
        <ele>227.49</ele>
        <time>2021-08-19T09:25:20Z</time>
      </trkpt>
      <trkpt lat="43.5016" lon="0.21134">
        <ele>227.49</ele>
        <time>2021-08-19T09:25:21Z</time>
      </trkpt>
      <trkpt lat="43.50166" lon="0.21136">
        <ele>227.49</ele>
        <time>2021-08-19T09:25:22Z</time>
      </trkpt>
      <trkpt lat="43.50178" lon="0.21139">
        <ele>226.53</ele>
        <time>2021-08-19T09:25:24Z</time>
      </trkpt>
      <trkpt lat="43.50185" lon="0.2114">
        <ele>225.57</ele>
        <time>2021-08-19T09:25:25Z</time>
      </trkpt>
      <trkpt lat="43.50192" lon="0.21138">
        <ele>224.61</ele>
        <time>2021-08-19T09:25:26Z</time>
      </trkpt>
      <trkpt lat="43.502" lon="0.21135">
        <ele>223.64</ele>
        <time>2021-08-19T09:25:27Z</time>
      </trkpt>
      <trkpt lat="43.50207" lon="0.2113">
        <ele>223.16</ele>
        <time>2021-08-19T09:25:28Z</time>
      </trkpt>
      <trkpt lat="43.50214" lon="0.21123">
        <ele>223.16</ele>
        <time>2021-08-19T09:25:29Z</time>
      </trkpt>
      <trkpt lat="43.5022" lon="0.21116">
        <ele>223.16</ele>
        <time>2021-08-19T09:25:30Z</time>
      </trkpt>
      <trkpt lat="43.50226" lon="0.21107">
        <ele>222.2</ele>
        <time>2021-08-19T09:25:31Z</time>
      </trkpt>
      <trkpt lat="43.50231" lon="0.21099">
        <ele>222.2</ele>
        <time>2021-08-19T09:25:32Z</time>
      </trkpt>
      <trkpt lat="43.50236" lon="0.21091">
        <ele>222.2</ele>
        <time>2021-08-19T09:25:33Z</time>
      </trkpt>
      <trkpt lat="43.5024" lon="0.21082">
        <ele>222.2</ele>
        <time>2021-08-19T09:25:34Z</time>
      </trkpt>
      <trkpt lat="43.50242" lon="0.21075">
        <ele>222.2</ele>
        <time>2021-08-19T09:25:35Z</time>
      </trkpt>
      <trkpt lat="43.50247" lon="0.21059">
        <ele>221.72</ele>
        <time>2021-08-19T09:25:37Z</time>
      </trkpt>
      <trkpt lat="43.50254" lon="0.2101">
        <ele>218.36</ele>
        <time>2021-08-19T09:25:42Z</time>
      </trkpt>
      <trkpt lat="43.50259" lon="0.20973">
        <ele>214.51</ele>
        <time>2021-08-19T09:25:45Z</time>
      </trkpt>
      <trkpt lat="43.50262" lon="0.20948">
        <ele>213.55</ele>
        <time>2021-08-19T09:25:47Z</time>
      </trkpt>
      <trkpt lat="43.50268" lon="0.20881">
        <ele>214.51</ele>
        <time>2021-08-19T09:25:53Z</time>
      </trkpt>
      <trkpt lat="43.50274" lon="0.20838">
        <ele>216.43</ele>
        <time>2021-08-19T09:25:59Z</time>
      </trkpt>
      <trkpt lat="43.50277" lon="0.20827">
        <ele>216.91</ele>
        <time>2021-08-19T09:26:01Z</time>
      </trkpt>
      <trkpt lat="43.50279" lon="0.20821">
        <ele>216.91</ele>
        <time>2021-08-19T09:26:02Z</time>
      </trkpt>
      <trkpt lat="43.50293" lon="0.20791">
        <ele>213.55</ele>
        <time>2021-08-19T09:26:06Z</time>
      </trkpt>
      <trkpt lat="43.50301" lon="0.20774">
        <ele>212.11</ele>
        <time>2021-08-19T09:26:08Z</time>
      </trkpt>
      <trkpt lat="43.5032" lon="0.2073">
        <ele>208.26</ele>
        <time>2021-08-19T09:26:14Z</time>
      </trkpt>
      <trkpt lat="43.50332" lon="0.20703">
        <ele>205.38</ele>
        <time>2021-08-19T09:26:19Z</time>
      </trkpt>
      <trkpt lat="43.50337" lon="0.2069">
        <ele>203.94</ele>
        <time>2021-08-19T09:26:22Z</time>
      </trkpt>
      <trkpt lat="43.50337" lon="0.20685">
        <ele>203.46</ele>
        <time>2021-08-19T09:26:23Z</time>
      </trkpt>
      <trkpt lat="43.50335" lon="0.20682">
        <ele>202.49</ele>
        <time>2021-08-19T09:26:24Z</time>
      </trkpt>
      <trkpt lat="43.50333" lon="0.20679">
        <ele>202.49</ele>
        <time>2021-08-19T09:26:25Z</time>
      </trkpt>
      <trkpt lat="43.5033" lon="0.20678">
        <ele>201.53</ele>
        <time>2021-08-19T09:26:26Z</time>
      </trkpt>
      <trkpt lat="43.50327" lon="0.20678">
        <ele>201.05</ele>
        <time>2021-08-19T09:26:27Z</time>
      </trkpt>
      <trkpt lat="43.50323" lon="0.20679">
        <ele>200.09</ele>
        <time>2021-08-19T09:26:28Z</time>
      </trkpt>
      <trkpt lat="43.5032" lon="0.2068">
        <ele>199.13</ele>
        <time>2021-08-19T09:26:29Z</time>
      </trkpt>
      <trkpt lat="43.50315" lon="0.20681">
        <ele>198.17</ele>
        <time>2021-08-19T09:26:30Z</time>
      </trkpt>
      <trkpt lat="43.50307" lon="0.20682">
        <ele>196.73</ele>
        <time>2021-08-19T09:26:32Z</time>
      </trkpt>
      <trkpt lat="43.50303" lon="0.20682">
        <ele>195.77</ele>
        <time>2021-08-19T09:26:33Z</time>
      </trkpt>
      <trkpt lat="43.50299" lon="0.2068">
        <ele>194.8</ele>
        <time>2021-08-19T09:26:34Z</time>
      </trkpt>
      <trkpt lat="43.50295" lon="0.20677">
        <ele>193.84</ele>
        <time>2021-08-19T09:26:35Z</time>
      </trkpt>
      <trkpt lat="43.50291" lon="0.20673">
        <ele>192.4</ele>
        <time>2021-08-19T09:26:36Z</time>
      </trkpt>
      <trkpt lat="43.50274" lon="0.20652">
        <ele>189.04</ele>
        <time>2021-08-19T09:26:40Z</time>
      </trkpt>
      <trkpt lat="43.5026" lon="0.20636">
        <ele>184.71</ele>
        <time>2021-08-19T09:26:43Z</time>
      </trkpt>
      <trkpt lat="43.50247" lon="0.20621">
        <ele>181.35</ele>
        <time>2021-08-19T09:26:46Z</time>
      </trkpt>
      <trkpt lat="43.50242" lon="0.20617">
        <ele>179.9</ele>
        <time>2021-08-19T09:26:47Z</time>
      </trkpt>
      <trkpt lat="43.5023" lon="0.20603">
        <ele>176.54</ele>
        <time>2021-08-19T09:26:50Z</time>
      </trkpt>
      <trkpt lat="43.50227" lon="0.20599">
        <ele>175.58</ele>
        <time>2021-08-19T09:26:51Z</time>
      </trkpt>
      <trkpt lat="43.50224" lon="0.20593">
        <ele>174.62</ele>
        <time>2021-08-19T09:26:52Z</time>
      </trkpt>
      <trkpt lat="43.50221" lon="0.20586">
        <ele>173.17</ele>
        <time>2021-08-19T09:26:53Z</time>
      </trkpt>
      <trkpt lat="43.50219" lon="0.20578">
        <ele>171.73</ele>
        <time>2021-08-19T09:26:54Z</time>
      </trkpt>
      <trkpt lat="43.50217" lon="0.2057">
        <ele>170.77</ele>
        <time>2021-08-19T09:26:55Z</time>
      </trkpt>
      <trkpt lat="43.50215" lon="0.20562">
        <ele>169.33</ele>
        <time>2021-08-19T09:26:56Z</time>
      </trkpt>
      <trkpt lat="43.50208" lon="0.20522">
        <ele>166.45</ele>
        <time>2021-08-19T09:27:00Z</time>
      </trkpt>
      <trkpt lat="43.50204" lon="0.20501">
        <ele>165.48</ele>
        <time>2021-08-19T09:27:02Z</time>
      </trkpt>
      <trkpt lat="43.502" lon="0.20481">
        <ele>165.48</ele>
        <time>2021-08-19T09:27:04Z</time>
      </trkpt>
      <trkpt lat="43.50197" lon="0.20473">
        <ele>165.48</ele>
        <time>2021-08-19T09:27:05Z</time>
      </trkpt>
      <trkpt lat="43.50175" lon="0.20411">
        <ele>165.96</ele>
        <time>2021-08-19T09:27:13Z</time>
      </trkpt>
      <trkpt lat="43.50173" lon="0.20405">
        <ele>165.96</ele>
        <time>2021-08-19T09:27:14Z</time>
      </trkpt>
      <trkpt lat="43.50163" lon="0.2037">
        <ele>166.93</ele>
        <time>2021-08-19T09:27:21Z</time>
      </trkpt>
      <trkpt lat="43.50154" lon="0.20331">
        <ele>167.41</ele>
        <time>2021-08-19T09:27:30Z</time>
      </trkpt>
      <trkpt lat="43.50146" lon="0.20271">
        <ele>168.37</ele>
        <time>2021-08-19T09:27:41Z</time>
      </trkpt>
      <trkpt lat="43.50142" lon="0.20225">
        <ele>168.85</ele>
        <time>2021-08-19T09:27:50Z</time>
      </trkpt>
      <trkpt lat="43.5014" lon="0.20193">
        <ele>169.33</ele>
        <time>2021-08-19T09:27:57Z</time>
      </trkpt>
      <trkpt lat="43.5015" lon="0.20173">
        <ele>169.33</ele>
        <time>2021-08-19T09:28:02Z</time>
      </trkpt>
      <trkpt lat="43.5016" lon="0.20165">
        <ele>169.33</ele>
        <time>2021-08-19T09:28:05Z</time>
      </trkpt>
      <trkpt lat="43.50172" lon="0.20155">
        <ele>169.33</ele>
        <time>2021-08-19T09:28:08Z</time>
      </trkpt>
      <trkpt lat="43.50217" lon="0.20129">
        <ele>169.81</ele>
        <time>2021-08-19T09:28:19Z</time>
      </trkpt>
      <trkpt lat="43.50252" lon="0.20118">
        <ele>169.81</ele>
        <time>2021-08-19T09:28:27Z</time>
      </trkpt>
      <trkpt lat="43.50267" lon="0.2012">
        <ele>169.81</ele>
        <time>2021-08-19T09:28:30Z</time>
      </trkpt>
      <trkpt lat="43.50271" lon="0.20121">
        <ele>169.81</ele>
        <time>2021-08-19T09:28:31Z</time>
      </trkpt>
      <trkpt lat="43.50296" lon="0.2013">
        <ele>169.81</ele>
        <time>2021-08-19T09:28:36Z</time>
      </trkpt>
      <trkpt lat="43.50301" lon="0.20129">
        <ele>169.81</ele>
        <time>2021-08-19T09:28:37Z</time>
      </trkpt>
      <trkpt lat="43.50306" lon="0.20128">
        <ele>169.81</ele>
        <time>2021-08-19T09:28:38Z</time>
      </trkpt>
      <trkpt lat="43.5031" lon="0.20125">
        <ele>169.81</ele>
        <time>2021-08-19T09:28:39Z</time>
      </trkpt>
      <trkpt lat="43.50315" lon="0.20122">
        <ele>169.81</ele>
        <time>2021-08-19T09:28:40Z</time>
      </trkpt>
      <trkpt lat="43.50319" lon="0.20118">
        <ele>169.81</ele>
        <time>2021-08-19T09:28:41Z</time>
      </trkpt>
      <trkpt lat="43.50323" lon="0.20114">
        <ele>169.81</ele>
        <time>2021-08-19T09:28:42Z</time>
      </trkpt>
      <trkpt lat="43.50327" lon="0.2011">
        <ele>169.81</ele>
        <time>2021-08-19T09:28:43Z</time>
      </trkpt>
      <trkpt lat="43.50331" lon="0.20106">
        <ele>169.81</ele>
        <time>2021-08-19T09:28:44Z</time>
      </trkpt>
      <trkpt lat="43.50334" lon="0.20102">
        <ele>169.81</ele>
        <time>2021-08-19T09:28:45Z</time>
      </trkpt>
      <trkpt lat="43.50337" lon="0.20098">
        <ele>169.81</ele>
        <time>2021-08-19T09:28:46Z</time>
      </trkpt>
      <trkpt lat="43.50354" lon="0.20075">
        <ele>169.81</ele>
        <time>2021-08-19T09:28:51Z</time>
      </trkpt>
      <trkpt lat="43.50358" lon="0.20071">
        <ele>169.81</ele>
        <time>2021-08-19T09:28:52Z</time>
      </trkpt>
      <trkpt lat="43.50361" lon="0.20066">
        <ele>169.81</ele>
        <time>2021-08-19T09:28:53Z</time>
      </trkpt>
      <trkpt lat="43.50388" lon="0.20032">
        <ele>170.77</ele>
        <time>2021-08-19T09:29:02Z</time>
      </trkpt>
      <trkpt lat="43.50392" lon="0.20022">
        <ele>171.25</ele>
        <time>2021-08-19T09:29:04Z</time>
      </trkpt>
      <trkpt lat="43.50394" lon="0.20018">
        <ele>171.25</ele>
        <time>2021-08-19T09:29:05Z</time>
      </trkpt>
      <trkpt lat="43.50395" lon="0.20012">
        <ele>171.25</ele>
        <time>2021-08-19T09:29:06Z</time>
      </trkpt>
      <trkpt lat="43.50397" lon="0.19969">
        <ele>171.73</ele>
        <time>2021-08-19T09:29:14Z</time>
      </trkpt>
      <trkpt lat="43.50396" lon="0.19927">
        <ele>173.17</ele>
        <time>2021-08-19T09:29:23Z</time>
      </trkpt>
      <trkpt lat="43.50389" lon="0.19891">
        <ele>173.66</ele>
        <time>2021-08-19T09:29:31Z</time>
      </trkpt>
      <trkpt lat="43.5039" lon="0.19868">
        <ele>174.14</ele>
        <time>2021-08-19T09:29:36Z</time>
      </trkpt>
      <trkpt lat="43.50407" lon="0.19855">
        <ele>174.14</ele>
        <time>2021-08-19T09:29:41Z</time>
      </trkpt>
      <trkpt lat="43.50439" lon="0.19839">
        <ele>175.58</ele>
        <time>2021-08-19T09:29:51Z</time>
      </trkpt>
      <trkpt lat="43.5045" lon="0.19834">
        <ele>175.58</ele>
        <time>2021-08-19T09:29:54Z</time>
      </trkpt>
      <trkpt lat="43.50485" lon="0.19818">
        <ele>175.58</ele>
        <time>2021-08-19T09:30:03Z</time>
      </trkpt>
      <trkpt lat="43.50531" lon="0.19792">
        <ele>175.58</ele>
        <time>2021-08-19T09:30:15Z</time>
      </trkpt>
      <trkpt lat="43.50555" lon="0.19766">
        <ele>175.58</ele>
        <time>2021-08-19T09:30:22Z</time>
      </trkpt>
      <trkpt lat="43.50559" lon="0.19762">
        <ele>175.58</ele>
        <time>2021-08-19T09:30:23Z</time>
      </trkpt>
      <trkpt lat="43.50562" lon="0.19758">
        <ele>175.58</ele>
        <time>2021-08-19T09:30:24Z</time>
      </trkpt>
      <trkpt lat="43.50598" lon="0.19724">
        <ele>174.14</ele>
        <time>2021-08-19T09:30:33Z</time>
      </trkpt>
      <trkpt lat="43.50602" lon="0.1972">
        <ele>173.66</ele>
        <time>2021-08-19T09:30:34Z</time>
      </trkpt>
      <trkpt lat="43.50607" lon="0.19716">
        <ele>173.17</ele>
        <time>2021-08-19T09:30:35Z</time>
      </trkpt>
      <trkpt lat="43.50641" lon="0.19702">
        <ele>172.21</ele>
        <time>2021-08-19T09:30:41Z</time>
      </trkpt>
      <trkpt lat="43.50658" lon="0.19696">
        <ele>173.66</ele>
        <time>2021-08-19T09:30:45Z</time>
      </trkpt>
      <trkpt lat="43.5068" lon="0.19689">
        <ele>174.14</ele>
        <time>2021-08-19T09:30:51Z</time>
      </trkpt>
      <trkpt lat="43.50708" lon="0.19672">
        <ele>175.1</ele>
        <time>2021-08-19T09:31:00Z</time>
      </trkpt>
      <trkpt lat="43.50728" lon="0.19654">
        <ele>175.1</ele>
        <time>2021-08-19T09:31:07Z</time>
      </trkpt>
      <trkpt lat="43.50751" lon="0.19632">
        <ele>173.66</ele>
        <time>2021-08-19T09:31:14Z</time>
      </trkpt>
      <trkpt lat="43.5077" lon="0.19608">
        <ele>173.17</ele>
        <time>2021-08-19T09:31:21Z</time>
      </trkpt>
      <trkpt lat="43.50779" lon="0.19595">
        <ele>172.69</ele>
        <time>2021-08-19T09:31:24Z</time>
      </trkpt>
      <trkpt lat="43.508" lon="0.19559">
        <ele>171.73</ele>
        <time>2021-08-19T09:31:32Z</time>
      </trkpt>
      <trkpt lat="43.50813" lon="0.19531">
        <ele>171.25</ele>
        <time>2021-08-19T09:31:39Z</time>
      </trkpt>
      <trkpt lat="43.50822" lon="0.19504">
        <ele>169.81</ele>
        <time>2021-08-19T09:31:44Z</time>
      </trkpt>
      <trkpt lat="43.50824" lon="0.19498">
        <ele>169.81</ele>
        <time>2021-08-19T09:31:45Z</time>
      </trkpt>
      <trkpt lat="43.50827" lon="0.19492">
        <ele>169.81</ele>
        <time>2021-08-19T09:31:46Z</time>
      </trkpt>
      <trkpt lat="43.50837" lon="0.19469">
        <ele>169.81</ele>
        <time>2021-08-19T09:31:51Z</time>
      </trkpt>
      <trkpt lat="43.50842" lon="0.19457">
        <ele>171.25</ele>
        <time>2021-08-19T09:31:55Z</time>
      </trkpt>
      <trkpt lat="43.50851" lon="0.19438">
        <ele>172.69</ele>
        <time>2021-08-19T09:32:02Z</time>
      </trkpt>
      <trkpt lat="43.50858" lon="0.1942">
        <ele>172.69</ele>
        <time>2021-08-19T09:32:09Z</time>
      </trkpt>
      <trkpt lat="43.50871" lon="0.19392">
        <ele>172.69</ele>
        <time>2021-08-19T09:32:18Z</time>
      </trkpt>
      <trkpt lat="43.50884" lon="0.19366">
        <ele>172.69</ele>
        <time>2021-08-19T09:32:25Z</time>
      </trkpt>
      <trkpt lat="43.50901" lon="0.19332">
        <ele>172.69</ele>
        <time>2021-08-19T09:32:33Z</time>
      </trkpt>
      <trkpt lat="43.50916" lon="0.19304">
        <ele>171.73</ele>
        <time>2021-08-19T09:32:41Z</time>
      </trkpt>
      <trkpt lat="43.5093" lon="0.19278">
        <ele>171.25</ele>
        <time>2021-08-19T09:32:48Z</time>
      </trkpt>
      <trkpt lat="43.50949" lon="0.19259">
        <ele>170.77</ele>
        <time>2021-08-19T09:32:55Z</time>
      </trkpt>
      <trkpt lat="43.50965" lon="0.19239">
        <ele>170.29</ele>
        <time>2021-08-19T09:33:01Z</time>
      </trkpt>
      <trkpt lat="43.50993" lon="0.19199">
        <ele>169.81</ele>
        <time>2021-08-19T09:33:10Z</time>
      </trkpt>
      <trkpt lat="43.51024" lon="0.19153">
        <ele>169.33</ele>
        <time>2021-08-19T09:33:19Z</time>
      </trkpt>
      <trkpt lat="43.51044" lon="0.19118">
        <ele>168.85</ele>
        <time>2021-08-19T09:33:25Z</time>
      </trkpt>
      <trkpt lat="43.51063" lon="0.19063">
        <ele>168.85</ele>
        <time>2021-08-19T09:33:34Z</time>
      </trkpt>
      <trkpt lat="43.51076" lon="0.19019">
        <ele>168.85</ele>
        <time>2021-08-19T09:33:42Z</time>
      </trkpt>
      <trkpt lat="43.51079" lon="0.19014">
        <ele>168.85</ele>
        <time>2021-08-19T09:33:43Z</time>
      </trkpt>
      <trkpt lat="43.51096" lon="0.18978">
        <ele>168.85</ele>
        <time>2021-08-19T09:33:51Z</time>
      </trkpt>
      <trkpt lat="43.51116" lon="0.18935">
        <ele>167.89</ele>
        <time>2021-08-19T09:34:01Z</time>
      </trkpt>
      <trkpt lat="43.51131" lon="0.18901">
        <ele>167.41</ele>
        <time>2021-08-19T09:34:09Z</time>
      </trkpt>
      <trkpt lat="43.51146" lon="0.18865">
        <ele>166.93</ele>
        <time>2021-08-19T09:34:17Z</time>
      </trkpt>
      <trkpt lat="43.51156" lon="0.18831">
        <ele>166.93</ele>
        <time>2021-08-19T09:34:25Z</time>
      </trkpt>
      <trkpt lat="43.51162" lon="0.18812">
        <ele>168.37</ele>
        <time>2021-08-19T09:34:30Z</time>
      </trkpt>
      <trkpt lat="43.51169" lon="0.18783">
        <ele>168.85</ele>
        <time>2021-08-19T09:34:39Z</time>
      </trkpt>
      <trkpt lat="43.51179" lon="0.18747">
        <ele>168.85</ele>
        <time>2021-08-19T09:34:49Z</time>
      </trkpt>
      <trkpt lat="43.51188" lon="0.18715">
        <ele>169.81</ele>
        <time>2021-08-19T09:34:58Z</time>
      </trkpt>
      <trkpt lat="43.51198" lon="0.18681">
        <ele>170.77</ele>
        <time>2021-08-19T09:35:08Z</time>
      </trkpt>
      <trkpt lat="43.51208" lon="0.18641">
        <ele>170.77</ele>
        <time>2021-08-19T09:35:18Z</time>
      </trkpt>
      <trkpt lat="43.51214" lon="0.18621">
        <ele>170.77</ele>
        <time>2021-08-19T09:35:24Z</time>
      </trkpt>
      <trkpt lat="43.5122" lon="0.18598">
        <ele>170.77</ele>
        <time>2021-08-19T09:35:32Z</time>
      </trkpt>
      <trkpt lat="43.51224" lon="0.18578">
        <ele>171.25</ele>
        <time>2021-08-19T09:35:39Z</time>
      </trkpt>
      <trkpt lat="43.51222" lon="0.18572">
        <ele>171.25</ele>
        <time>2021-08-19T09:35:41Z</time>
      </trkpt>
      <trkpt lat="43.51215" lon="0.18569">
        <ele>172.21</ele>
        <time>2021-08-19T09:35:47Z</time>
      </trkpt>
      <trkpt lat="43.51209" lon="0.18567">
        <ele>172.69</ele>
        <time>2021-08-19T09:35:54Z</time>
      </trkpt>
      <trkpt lat="43.51203" lon="0.18563">
        <ele>173.66</ele>
        <time>2021-08-19T09:36:01Z</time>
      </trkpt>
      <trkpt lat="43.51195" lon="0.18559">
        <ele>174.62</ele>
        <time>2021-08-19T09:36:09Z</time>
      </trkpt>
      <trkpt lat="43.51186" lon="0.18555">
        <ele>176.06</ele>
        <time>2021-08-19T09:36:19Z</time>
      </trkpt>
      <trkpt lat="43.51175" lon="0.1855">
        <ele>177.98</ele>
        <time>2021-08-19T09:36:30Z</time>
      </trkpt>
      <trkpt lat="43.51166" lon="0.18548">
        <ele>179.9</ele>
        <time>2021-08-19T09:36:41Z</time>
      </trkpt>
      <trkpt lat="43.51159" lon="0.18544">
        <ele>180.87</ele>
        <time>2021-08-19T09:36:50Z</time>
      </trkpt>
      <trkpt lat="43.51153" lon="0.18541">
        <ele>182.31</ele>
        <time>2021-08-19T09:36:59Z</time>
      </trkpt>
      <trkpt lat="43.51145" lon="0.18538">
        <ele>184.71</ele>
        <time>2021-08-19T09:37:11Z</time>
      </trkpt>
      <trkpt lat="43.51139" lon="0.18535">
        <ele>186.15</ele>
        <time>2021-08-19T09:37:21Z</time>
      </trkpt>
      <trkpt lat="43.51131" lon="0.18533">
        <ele>187.59</ele>
        <time>2021-08-19T09:37:31Z</time>
      </trkpt>
      <trkpt lat="43.51122" lon="0.18527">
        <ele>189.52</ele>
        <time>2021-08-19T09:37:42Z</time>
      </trkpt>
      <trkpt lat="43.51111" lon="0.18521">
        <ele>190.96</ele>
        <time>2021-08-19T09:37:54Z</time>
      </trkpt>
      <trkpt lat="43.51106" lon="0.18517">
        <ele>191.44</ele>
        <time>2021-08-19T09:37:58Z</time>
      </trkpt>
      <trkpt lat="43.51104" lon="0.18514">
        <ele>191.44</ele>
        <time>2021-08-19T09:38:00Z</time>
      </trkpt>
      <trkpt lat="43.51098" lon="0.18508">
        <ele>192.4</ele>
        <time>2021-08-19T09:38:09Z</time>
      </trkpt>
      <trkpt lat="43.51094" lon="0.18505">
        <ele>191.92</ele>
        <time>2021-08-19T09:38:14Z</time>
      </trkpt>
      <trkpt lat="43.5108" lon="0.18493">
        <ele>193.36</ele>
        <time>2021-08-19T09:38:22Z</time>
      </trkpt>
      <trkpt lat="43.51065" lon="0.18473">
        <ele>194.8</ele>
        <time>2021-08-19T09:38:32Z</time>
      </trkpt>
      <trkpt lat="43.51054" lon="0.1846">
        <ele>196.25</ele>
        <time>2021-08-19T09:38:39Z</time>
      </trkpt>
      <trkpt lat="43.51055" lon="0.1845">
        <ele>196.73</ele>
        <time>2021-08-19T09:38:44Z</time>
      </trkpt>
      <trkpt lat="43.51057" lon="0.18445">
        <ele>197.21</ele>
        <time>2021-08-19T09:38:50Z</time>
      </trkpt>
      <trkpt lat="43.51061" lon="0.18436">
        <ele>198.17</ele>
        <time>2021-08-19T09:39:00Z</time>
      </trkpt>
      <trkpt lat="43.51064" lon="0.1843">
        <ele>199.61</ele>
        <time>2021-08-19T09:39:08Z</time>
      </trkpt>
      <trkpt lat="43.51067" lon="0.18423">
        <ele>201.05</ele>
        <time>2021-08-19T09:39:17Z</time>
      </trkpt>
      <trkpt lat="43.51072" lon="0.18411">
        <ele>201.53</ele>
        <time>2021-08-19T09:39:26Z</time>
      </trkpt>
      <trkpt lat="43.51076" lon="0.18397">
        <ele>202.01</ele>
        <time>2021-08-19T09:39:36Z</time>
      </trkpt>
      <trkpt lat="43.51077" lon="0.18396">
        <ele>202.49</ele>
        <time>2021-08-19T09:39:41Z</time>
      </trkpt>
      <trkpt lat="43.51077" lon="0.18394">
        <ele>202.49</ele>
        <time>2021-08-19T09:39:43Z</time>
      </trkpt>
      <trkpt lat="43.51086" lon="0.18376">
        <ele>202.49</ele>
        <time>2021-08-19T09:39:51Z</time>
      </trkpt>
      <trkpt lat="43.511" lon="0.18347">
        <ele>202.49</ele>
        <time>2021-08-19T09:40:00Z</time>
      </trkpt>
      <trkpt lat="43.51116" lon="0.18314">
        <ele>202.49</ele>
        <time>2021-08-19T09:40:08Z</time>
      </trkpt>
      <trkpt lat="43.51128" lon="0.18288">
        <ele>201.53</ele>
        <time>2021-08-19T09:40:15Z</time>
      </trkpt>
      <trkpt lat="43.51144" lon="0.18257">
        <ele>200.09</ele>
        <time>2021-08-19T09:40:22Z</time>
      </trkpt>
      <trkpt lat="43.51166" lon="0.18209">
        <ele>197.21</ele>
        <time>2021-08-19T09:40:31Z</time>
      </trkpt>
      <trkpt lat="43.51196" lon="0.18147">
        <ele>193.84</ele>
        <time>2021-08-19T09:40:40Z</time>
      </trkpt>
      <trkpt lat="43.51235" lon="0.18072">
        <ele>190.96</ele>
        <time>2021-08-19T09:40:50Z</time>
      </trkpt>
      <trkpt lat="43.51251" lon="0.18038">
        <ele>190.96</ele>
        <time>2021-08-19T09:40:56Z</time>
      </trkpt>
      <trkpt lat="43.51265" lon="0.18008">
        <ele>190.96</ele>
        <time>2021-08-19T09:41:03Z</time>
      </trkpt>
      <trkpt lat="43.51268" lon="0.17993">
        <ele>190.96</ele>
        <time>2021-08-19T09:41:07Z</time>
      </trkpt>
      <trkpt lat="43.51266" lon="0.1799">
        <ele>190.96</ele>
        <time>2021-08-19T09:41:08Z</time>
      </trkpt>
      <trkpt lat="43.51262" lon="0.17986">
        <ele>190.48</ele>
        <time>2021-08-19T09:41:09Z</time>
      </trkpt>
      <trkpt lat="43.51243" lon="0.1797">
        <ele>186.63</ele>
        <time>2021-08-19T09:41:13Z</time>
      </trkpt>
      <trkpt lat="43.51224" lon="0.17956">
        <ele>182.31</ele>
        <time>2021-08-19T09:41:16Z</time>
      </trkpt>
      <trkpt lat="43.51214" lon="0.17947">
        <ele>181.83</ele>
        <time>2021-08-19T09:41:18Z</time>
      </trkpt>
      <trkpt lat="43.5121" lon="0.17942">
        <ele>180.38</ele>
        <time>2021-08-19T09:41:19Z</time>
      </trkpt>
      <trkpt lat="43.51207" lon="0.17937">
        <ele>180.38</ele>
        <time>2021-08-19T09:41:20Z</time>
      </trkpt>
      <trkpt lat="43.51207" lon="0.17932">
        <ele>179.9</ele>
        <time>2021-08-19T09:41:21Z</time>
      </trkpt>
      <trkpt lat="43.51209" lon="0.17927">
        <ele>179.9</ele>
        <time>2021-08-19T09:41:22Z</time>
      </trkpt>
      <trkpt lat="43.51212" lon="0.17923">
        <ele>179.42</ele>
        <time>2021-08-19T09:41:23Z</time>
      </trkpt>
      <trkpt lat="43.51214" lon="0.17918">
        <ele>179.42</ele>
        <time>2021-08-19T09:41:24Z</time>
      </trkpt>
      <trkpt lat="43.51228" lon="0.17893">
        <ele>179.9</ele>
        <time>2021-08-19T09:41:31Z</time>
      </trkpt>
      <trkpt lat="43.51241" lon="0.17867">
        <ele>179.9</ele>
        <time>2021-08-19T09:41:39Z</time>
      </trkpt>
      <trkpt lat="43.51257" lon="0.17835">
        <ele>179.9</ele>
        <time>2021-08-19T09:41:47Z</time>
      </trkpt>
      <trkpt lat="43.51277" lon="0.17793">
        <ele>179.9</ele>
        <time>2021-08-19T09:41:57Z</time>
      </trkpt>
      <trkpt lat="43.51291" lon="0.17756">
        <ele>177.5</ele>
        <time>2021-08-19T09:42:04Z</time>
      </trkpt>
      <trkpt lat="43.51301" lon="0.17726">
        <ele>174.14</ele>
        <time>2021-08-19T09:42:08Z</time>
      </trkpt>
      <trkpt lat="43.51309" lon="0.177">
        <ele>170.77</ele>
        <time>2021-08-19T09:42:11Z</time>
      </trkpt>
      <trkpt lat="43.51317" lon="0.17671">
        <ele>167.41</ele>
        <time>2021-08-19T09:42:14Z</time>
      </trkpt>
      <trkpt lat="43.5132" lon="0.17662">
        <ele>166.93</ele>
        <time>2021-08-19T09:42:15Z</time>
      </trkpt>
      <trkpt lat="43.51323" lon="0.17655">
        <ele>166.45</ele>
        <time>2021-08-19T09:42:16Z</time>
      </trkpt>
      <trkpt lat="43.51326" lon="0.17651">
        <ele>166.45</ele>
        <time>2021-08-19T09:42:17Z</time>
      </trkpt>
      <trkpt lat="43.5133" lon="0.1765">
        <ele>166.93</ele>
        <time>2021-08-19T09:42:18Z</time>
      </trkpt>
      <trkpt lat="43.51333" lon="0.17651">
        <ele>166.93</ele>
        <time>2021-08-19T09:42:19Z</time>
      </trkpt>
      <trkpt lat="43.51336" lon="0.17651">
        <ele>166.93</ele>
        <time>2021-08-19T09:42:20Z</time>
      </trkpt>
      <trkpt lat="43.51337" lon="0.1765">
        <ele>166.45</ele>
        <time>2021-08-19T09:42:21Z</time>
      </trkpt>
      <trkpt lat="43.51339" lon="0.17646">
        <ele>166.45</ele>
        <time>2021-08-19T09:42:22Z</time>
      </trkpt>
      <trkpt lat="43.5134" lon="0.17642">
        <ele>165.96</ele>
        <time>2021-08-19T09:42:23Z</time>
      </trkpt>
      <trkpt lat="43.51342" lon="0.17639">
        <ele>165.96</ele>
        <time>2021-08-19T09:42:24Z</time>
      </trkpt>
      <trkpt lat="43.51345" lon="0.17637">
        <ele>165.96</ele>
        <time>2021-08-19T09:42:25Z</time>
      </trkpt>
      <trkpt lat="43.51348" lon="0.17637">
        <ele>165.96</ele>
        <time>2021-08-19T09:42:26Z</time>
      </trkpt>
      <trkpt lat="43.5135" lon="0.17637">
        <ele>165.96</ele>
        <time>2021-08-19T09:42:27Z</time>
      </trkpt>
      <trkpt lat="43.51353" lon="0.17637">
        <ele>165.96</ele>
        <time>2021-08-19T09:42:28Z</time>
      </trkpt>
      <trkpt lat="43.51373" lon="0.17641">
        <ele>165.96</ele>
        <time>2021-08-19T09:42:34Z</time>
      </trkpt>
      <trkpt lat="43.51378" lon="0.17639">
        <ele>165.96</ele>
        <time>2021-08-19T09:42:36Z</time>
      </trkpt>
      <trkpt lat="43.5138" lon="0.17637">
        <ele>165.96</ele>
        <time>2021-08-19T09:42:37Z</time>
      </trkpt>
      <trkpt lat="43.51382" lon="0.17634">
        <ele>165.96</ele>
        <time>2021-08-19T09:42:38Z</time>
      </trkpt>
      <trkpt lat="43.51382" lon="0.17631">
        <ele>165.96</ele>
        <time>2021-08-19T09:42:39Z</time>
      </trkpt>
      <trkpt lat="43.51383" lon="0.17628">
        <ele>165.96</ele>
        <time>2021-08-19T09:42:40Z</time>
      </trkpt>
      <trkpt lat="43.51384" lon="0.17625">
        <ele>165.96</ele>
        <time>2021-08-19T09:42:41Z</time>
      </trkpt>
      <trkpt lat="43.51385" lon="0.17622">
        <ele>165.96</ele>
        <time>2021-08-19T09:42:42Z</time>
      </trkpt>
      <trkpt lat="43.51391" lon="0.17602">
        <ele>165.96</ele>
        <time>2021-08-19T09:42:48Z</time>
      </trkpt>
      <trkpt lat="43.514" lon="0.17572">
        <ele>166.93</ele>
        <time>2021-08-19T09:42:56Z</time>
      </trkpt>
      <trkpt lat="43.5141" lon="0.17544">
        <ele>168.85</ele>
        <time>2021-08-19T09:43:06Z</time>
      </trkpt>
      <trkpt lat="43.51416" lon="0.17522">
        <ele>169.33</ele>
        <time>2021-08-19T09:43:13Z</time>
      </trkpt>
      <trkpt lat="43.51422" lon="0.17498">
        <ele>170.29</ele>
        <time>2021-08-19T09:43:22Z</time>
      </trkpt>
      <trkpt lat="43.51427" lon="0.17479">
        <ele>171.25</ele>
        <time>2021-08-19T09:43:30Z</time>
      </trkpt>
      <trkpt lat="43.51429" lon="0.1747">
        <ele>171.73</ele>
        <time>2021-08-19T09:43:33Z</time>
      </trkpt>
      <trkpt lat="43.51431" lon="0.17464">
        <ele>172.21</ele>
        <time>2021-08-19T09:43:34Z</time>
      </trkpt>
      <trkpt lat="43.51432" lon="0.1746">
        <ele>172.21</ele>
        <time>2021-08-19T09:43:35Z</time>
      </trkpt>
      <trkpt lat="43.51432" lon="0.17458">
        <ele>172.21</ele>
        <time>2021-08-19T09:43:36Z</time>
      </trkpt>
      <trkpt lat="43.51433" lon="0.17455">
        <ele>172.21</ele>
        <time>2021-08-19T09:43:37Z</time>
      </trkpt>
      <trkpt lat="43.51437" lon="0.17441">
        <ele>172.69</ele>
        <time>2021-08-19T09:43:43Z</time>
      </trkpt>
      <trkpt lat="43.51443" lon="0.1742">
        <ele>173.66</ele>
        <time>2021-08-19T09:43:50Z</time>
      </trkpt>
      <trkpt lat="43.51452" lon="0.17392">
        <ele>174.14</ele>
        <time>2021-08-19T09:43:59Z</time>
      </trkpt>
      <trkpt lat="43.51459" lon="0.17368">
        <ele>175.58</ele>
        <time>2021-08-19T09:44:07Z</time>
      </trkpt>
      <trkpt lat="43.51467" lon="0.17339">
        <ele>177.5</ele>
        <time>2021-08-19T09:44:18Z</time>
      </trkpt>
      <trkpt lat="43.51473" lon="0.1732">
        <ele>178.46</ele>
        <time>2021-08-19T09:44:26Z</time>
      </trkpt>
      <trkpt lat="43.51481" lon="0.17299">
        <ele>179.9</ele>
        <time>2021-08-19T09:44:35Z</time>
      </trkpt>
      <trkpt lat="43.51486" lon="0.17283">
        <ele>180.87</ele>
        <time>2021-08-19T09:44:42Z</time>
      </trkpt>
      <trkpt lat="43.51493" lon="0.17257">
        <ele>181.83</ele>
        <time>2021-08-19T09:44:51Z</time>
      </trkpt>
      <trkpt lat="43.51503" lon="0.17226">
        <ele>182.79</ele>
        <time>2021-08-19T09:45:00Z</time>
      </trkpt>
      <trkpt lat="43.51509" lon="0.17201">
        <ele>182.79</ele>
        <time>2021-08-19T09:45:06Z</time>
      </trkpt>
      <trkpt lat="43.51518" lon="0.17155">
        <ele>181.35</ele>
        <time>2021-08-19T09:45:15Z</time>
      </trkpt>
      <trkpt lat="43.51524" lon="0.17127">
        <ele>181.35</ele>
        <time>2021-08-19T09:45:21Z</time>
      </trkpt>
      <trkpt lat="43.51532" lon="0.17096">
        <ele>181.35</ele>
        <time>2021-08-19T09:45:29Z</time>
      </trkpt>
      <trkpt lat="43.51536" lon="0.17082">
        <ele>182.79</ele>
        <time>2021-08-19T09:45:34Z</time>
      </trkpt>
      <trkpt lat="43.51544" lon="0.17063">
        <ele>183.75</ele>
        <time>2021-08-19T09:45:42Z</time>
      </trkpt>
      <trkpt lat="43.5155" lon="0.17042">
        <ele>185.19</ele>
        <time>2021-08-19T09:45:51Z</time>
      </trkpt>
      <trkpt lat="43.51554" lon="0.17033">
        <ele>185.67</ele>
        <time>2021-08-19T09:45:56Z</time>
      </trkpt>
      <trkpt lat="43.51554" lon="0.17031">
        <ele>186.63</ele>
        <time>2021-08-19T09:45:57Z</time>
      </trkpt>
      <trkpt lat="43.51555" lon="0.17029">
        <ele>186.63</ele>
        <time>2021-08-19T09:45:58Z</time>
      </trkpt>
      <trkpt lat="43.51555" lon="0.17027">
        <ele>186.63</ele>
        <time>2021-08-19T09:45:59Z</time>
      </trkpt>
      <trkpt lat="43.51556" lon="0.17025">
        <ele>186.63</ele>
        <time>2021-08-19T09:46:00Z</time>
      </trkpt>
      <trkpt lat="43.51556" lon="0.17023">
        <ele>186.63</ele>
        <time>2021-08-19T09:46:01Z</time>
      </trkpt>
      <trkpt lat="43.51557" lon="0.17021">
        <ele>186.63</ele>
        <time>2021-08-19T09:46:02Z</time>
      </trkpt>
      <trkpt lat="43.51557" lon="0.17019">
        <ele>187.11</ele>
        <time>2021-08-19T09:46:03Z</time>
      </trkpt>
      <trkpt lat="43.51561" lon="0.17">
        <ele>187.11</ele>
        <time>2021-08-19T09:46:09Z</time>
      </trkpt>
      <trkpt lat="43.51567" lon="0.16984">
        <ele>185.19</ele>
        <time>2021-08-19T09:46:12Z</time>
      </trkpt>
      <trkpt lat="43.51584" lon="0.16949">
        <ele>182.31</ele>
        <time>2021-08-19T09:46:17Z</time>
      </trkpt>
      <trkpt lat="43.51607" lon="0.16916">
        <ele>178.94</ele>
        <time>2021-08-19T09:46:21Z</time>
      </trkpt>
      <trkpt lat="43.51633" lon="0.1688">
        <ele>175.1</ele>
        <time>2021-08-19T09:46:25Z</time>
      </trkpt>
      <trkpt lat="43.5164" lon="0.16871">
        <ele>174.14</ele>
        <time>2021-08-19T09:46:26Z</time>
      </trkpt>
      <trkpt lat="43.51648" lon="0.16862">
        <ele>173.17</ele>
        <time>2021-08-19T09:46:27Z</time>
      </trkpt>
      <trkpt lat="43.51657" lon="0.16856">
        <ele>171.73</ele>
        <time>2021-08-19T09:46:28Z</time>
      </trkpt>
      <trkpt lat="43.51696" lon="0.1683">
        <ele>168.37</ele>
        <time>2021-08-19T09:46:32Z</time>
      </trkpt>
      <trkpt lat="43.51746" lon="0.16795">
        <ele>165</ele>
        <time>2021-08-19T09:46:37Z</time>
      </trkpt>
      <trkpt lat="43.51765" lon="0.16782">
        <ele>164.52</ele>
        <time>2021-08-19T09:46:39Z</time>
      </trkpt>
      <trkpt lat="43.51821" lon="0.16745">
        <ele>163.08</ele>
        <time>2021-08-19T09:46:45Z</time>
      </trkpt>
      <trkpt lat="43.51828" lon="0.16738">
        <ele>163.08</ele>
        <time>2021-08-19T09:46:46Z</time>
      </trkpt>
      <trkpt lat="43.51834" lon="0.16728">
        <ele>163.08</ele>
        <time>2021-08-19T09:46:47Z</time>
      </trkpt>
      <trkpt lat="43.51839" lon="0.16719">
        <ele>162.6</ele>
        <time>2021-08-19T09:46:48Z</time>
      </trkpt>
      <trkpt lat="43.51844" lon="0.16709">
        <ele>162.6</ele>
        <time>2021-08-19T09:46:49Z</time>
      </trkpt>
      <trkpt lat="43.51878" lon="0.16645">
        <ele>162.12</ele>
        <time>2021-08-19T09:46:56Z</time>
      </trkpt>
      <trkpt lat="43.51908" lon="0.1659">
        <ele>161.64</ele>
        <time>2021-08-19T09:47:03Z</time>
      </trkpt>
      <trkpt lat="43.51944" lon="0.16521">
        <ele>160.68</ele>
        <time>2021-08-19T09:47:12Z</time>
      </trkpt>
      <trkpt lat="43.51982" lon="0.16448">
        <ele>159.72</ele>
        <time>2021-08-19T09:47:21Z</time>
      </trkpt>
      <trkpt lat="43.52022" lon="0.16374">
        <ele>157.79</ele>
        <time>2021-08-19T09:47:30Z</time>
      </trkpt>
      <trkpt lat="43.52027" lon="0.16368">
        <ele>157.79</ele>
        <time>2021-08-19T09:47:31Z</time>
      </trkpt>
      <trkpt lat="43.52033" lon="0.16363">
        <ele>157.79</ele>
        <time>2021-08-19T09:47:32Z</time>
      </trkpt>
      <trkpt lat="43.52039" lon="0.16359">
        <ele>157.79</ele>
        <time>2021-08-19T09:47:33Z</time>
      </trkpt>
      <trkpt lat="43.52045" lon="0.16355">
        <ele>157.79</ele>
        <time>2021-08-19T09:47:34Z</time>
      </trkpt>
      <trkpt lat="43.5209" lon="0.16335">
        <ele>157.79</ele>
        <time>2021-08-19T09:47:41Z</time>
      </trkpt>
      <trkpt lat="43.52119" lon="0.16322">
        <ele>157.31</ele>
        <time>2021-08-19T09:47:46Z</time>
      </trkpt>
      <trkpt lat="43.52126" lon="0.16321">
        <ele>157.31</ele>
        <time>2021-08-19T09:47:47Z</time>
      </trkpt>
      <trkpt lat="43.52131" lon="0.16319">
        <ele>157.31</ele>
        <time>2021-08-19T09:47:48Z</time>
      </trkpt>
      <trkpt lat="43.52142" lon="0.16314">
        <ele>157.31</ele>
        <time>2021-08-19T09:47:50Z</time>
      </trkpt>
      <trkpt lat="43.52147" lon="0.16312">
        <ele>157.31</ele>
        <time>2021-08-19T09:47:51Z</time>
      </trkpt>
      <trkpt lat="43.52152" lon="0.16309">
        <ele>157.31</ele>
        <time>2021-08-19T09:47:52Z</time>
      </trkpt>
      <trkpt lat="43.52184" lon="0.16293">
        <ele>157.31</ele>
        <time>2021-08-19T09:47:59Z</time>
      </trkpt>
      <trkpt lat="43.52205" lon="0.16286">
        <ele>158.75</ele>
        <time>2021-08-19T09:48:05Z</time>
      </trkpt>
      <trkpt lat="43.5224" lon="0.16265">
        <ele>158.75</ele>
        <time>2021-08-19T09:48:14Z</time>
      </trkpt>
      <trkpt lat="43.52255" lon="0.16258">
        <ele>157.31</ele>
        <time>2021-08-19T09:48:18Z</time>
      </trkpt>
      <trkpt lat="43.52259" lon="0.16256">
        <ele>157.31</ele>
        <time>2021-08-19T09:48:19Z</time>
      </trkpt>
      <trkpt lat="43.52282" lon="0.16245">
        <ele>156.83</ele>
        <time>2021-08-19T09:48:24Z</time>
      </trkpt>
      <trkpt lat="43.52287" lon="0.16242">
        <ele>156.83</ele>
        <time>2021-08-19T09:48:25Z</time>
      </trkpt>
      <trkpt lat="43.52305" lon="0.16232">
        <ele>156.83</ele>
        <time>2021-08-19T09:48:29Z</time>
      </trkpt>
      <trkpt lat="43.5232" lon="0.16223">
        <ele>156.35</ele>
        <time>2021-08-19T09:48:32Z</time>
      </trkpt>
      <trkpt lat="43.5233" lon="0.1622">
        <ele>155.87</ele>
        <time>2021-08-19T09:48:34Z</time>
      </trkpt>
      <trkpt lat="43.52369" lon="0.16203">
        <ele>155.87</ele>
        <time>2021-08-19T09:48:42Z</time>
      </trkpt>
      <trkpt lat="43.52383" lon="0.16196">
        <ele>155.87</ele>
        <time>2021-08-19T09:48:47Z</time>
      </trkpt>
      <trkpt lat="43.52388" lon="0.16196">
        <ele>156.35</ele>
        <time>2021-08-19T09:48:53Z</time>
      </trkpt>
      <trkpt lat="43.52391" lon="0.16196">
        <ele>156.35</ele>
        <time>2021-08-19T09:49:02Z</time>
      </trkpt>
      <trkpt lat="43.52391" lon="0.16199">
        <ele>156.35</ele>
        <time>2021-08-19T09:49:08Z</time>
      </trkpt>
      <trkpt lat="43.52393" lon="0.16201">
        <ele>156.35</ele>
        <time>2021-08-19T09:49:16Z</time>
      </trkpt>
      <trkpt lat="43.52398" lon="0.162">
        <ele>156.35</ele>
        <time>2021-08-19T09:49:32Z</time>
      </trkpt>
      <trkpt lat="43.52404" lon="0.162">
        <ele>156.35</ele>
        <time>2021-08-19T09:49:49Z</time>
      </trkpt>
      <trkpt lat="43.52405" lon="0.162">
        <ele>156.35</ele>
        <time>2021-08-19T09:50:05Z</time>
      </trkpt>
      <trkpt lat="43.52403" lon="0.162">
        <ele>156.35</ele>
        <time>2021-08-19T09:50:27Z</time>
      </trkpt>
      <trkpt lat="43.52404" lon="0.16199">
        <ele>156.35</ele>
        <time>2021-08-19T09:50:45Z</time>
      </trkpt>
      <trkpt lat="43.52403" lon="0.162">
        <ele>156.35</ele>
        <time>2021-08-19T09:51:07Z</time>
      </trkpt>
      <trkpt lat="43.52405" lon="0.16202">
        <ele>156.35</ele>
        <time>2021-08-19T09:51:28Z</time>
      </trkpt>
      <trkpt lat="43.52402" lon="0.16205">
        <ele>156.35</ele>
        <time>2021-08-19T09:51:45Z</time>
      </trkpt>
      <trkpt lat="43.52403" lon="0.16203">
        <ele>156.35</ele>
        <time>2021-08-19T09:51:59Z</time>
      </trkpt>
      <trkpt lat="43.52401" lon="0.16204">
        <ele>156.35</ele>
        <time>2021-08-19T09:52:12Z</time>
      </trkpt>
      <trkpt lat="43.524" lon="0.16201">
        <ele>156.35</ele>
        <time>2021-08-19T09:52:20Z</time>
      </trkpt>
      <trkpt lat="43.52398" lon="0.16198">
        <ele>156.35</ele>
        <time>2021-08-19T09:52:23Z</time>
      </trkpt>
      <trkpt lat="43.52394" lon="0.16185">
        <ele>156.35</ele>
        <time>2021-08-19T09:52:32Z</time>
      </trkpt>
      <trkpt lat="43.52394" lon="0.16182">
        <ele>156.35</ele>
        <time>2021-08-19T09:52:35Z</time>
      </trkpt>
      <trkpt lat="43.52395" lon="0.16181">
        <ele>156.35</ele>
        <time>2021-08-19T09:52:36Z</time>
      </trkpt>
      <trkpt lat="43.52395" lon="0.1618">
        <ele>156.35</ele>
        <time>2021-08-19T09:52:37Z</time>
      </trkpt>
      <trkpt lat="43.52397" lon="0.16165">
        <ele>156.35</ele>
        <time>2021-08-19T09:52:48Z</time>
      </trkpt>
      <trkpt lat="43.52397" lon="0.16162">
        <ele>156.35</ele>
        <time>2021-08-19T09:52:50Z</time>
      </trkpt>
      <trkpt lat="43.52396" lon="0.1616">
        <ele>156.35</ele>
        <time>2021-08-19T09:52:51Z</time>
      </trkpt>
      <trkpt lat="43.52393" lon="0.16149">
        <ele>156.35</ele>
        <time>2021-08-19T09:52:59Z</time>
      </trkpt>
      <trkpt lat="43.52391" lon="0.16142">
        <ele>156.35</ele>
        <time>2021-08-19T09:53:05Z</time>
      </trkpt>
      <trkpt lat="43.5239" lon="0.1614">
        <ele>156.35</ele>
        <time>2021-08-19T09:53:06Z</time>
      </trkpt>
      <trkpt lat="43.5239" lon="0.16136">
        <ele>156.35</ele>
        <time>2021-08-19T09:53:07Z</time>
      </trkpt>
      <trkpt lat="43.52389" lon="0.16133">
        <ele>156.35</ele>
        <time>2021-08-19T09:53:08Z</time>
      </trkpt>
      <trkpt lat="43.52388" lon="0.16129">
        <ele>156.35</ele>
        <time>2021-08-19T09:53:09Z</time>
      </trkpt>
      <trkpt lat="43.52385" lon="0.16113">
        <ele>156.35</ele>
        <time>2021-08-19T09:53:14Z</time>
      </trkpt>
      <trkpt lat="43.52386" lon="0.16112">
        <ele>156.35</ele>
        <time>2021-08-19T09:53:15Z</time>
      </trkpt>
      <trkpt lat="43.52389" lon="0.16109">
        <ele>156.35</ele>
        <time>2021-08-19T09:53:20Z</time>
      </trkpt>
      <trkpt lat="43.52389" lon="0.16108">
        <ele>156.35</ele>
        <time>2021-08-19T09:53:21Z</time>
      </trkpt>
      <trkpt lat="43.5239" lon="0.16106">
        <ele>156.35</ele>
        <time>2021-08-19T09:53:22Z</time>
      </trkpt>
      <trkpt lat="43.52392" lon="0.16087">
        <ele>156.35</ele>
        <time>2021-08-19T09:53:29Z</time>
      </trkpt>
      <trkpt lat="43.52391" lon="0.16084">
        <ele>156.35</ele>
        <time>2021-08-19T09:53:36Z</time>
      </trkpt>
      <trkpt lat="43.52389" lon="0.16083">
        <ele>156.35</ele>
        <time>2021-08-19T09:53:43Z</time>
      </trkpt>
      <trkpt lat="43.52389" lon="0.16083">
        <ele>157.31</ele>
        <time>2021-08-19T09:53:51Z</time>
      </trkpt>
      <trkpt lat="43.5239" lon="0.16083">
        <ele>157.31</ele>
        <time>2021-08-19T09:54:00Z</time>
      </trkpt>
      <trkpt lat="43.5239" lon="0.16081">
        <ele>157.31</ele>
        <time>2021-08-19T09:54:10Z</time>
      </trkpt>
      <trkpt lat="43.52391" lon="0.16084">
        <ele>157.31</ele>
        <time>2021-08-19T09:54:16Z</time>
      </trkpt>
      <trkpt lat="43.52391" lon="0.16087">
        <ele>157.31</ele>
        <time>2021-08-19T09:54:30Z</time>
      </trkpt>
      <trkpt lat="43.52392" lon="0.16089">
        <ele>157.31</ele>
        <time>2021-08-19T09:54:46Z</time>
      </trkpt>
      <trkpt lat="43.52389" lon="0.16088">
        <ele>157.31</ele>
        <time>2021-08-19T09:55:07Z</time>
      </trkpt>
      <trkpt lat="43.52388" lon="0.16087">
        <ele>157.31</ele>
        <time>2021-08-19T09:55:24Z</time>
      </trkpt>
      <trkpt lat="43.52389" lon="0.16085">
        <ele>157.31</ele>
        <time>2021-08-19T09:55:39Z</time>
      </trkpt>
      <trkpt lat="43.5239" lon="0.16084">
        <ele>157.31</ele>
        <time>2021-08-19T09:55:51Z</time>
      </trkpt>
      <trkpt lat="43.52388" lon="0.16086">
        <ele>157.31</ele>
        <time>2021-08-19T09:56:05Z</time>
      </trkpt>
      <trkpt lat="43.52388" lon="0.16086">
        <ele>157.31</ele>
        <time>2021-08-19T09:56:22Z</time>
      </trkpt>
      <trkpt lat="43.52389" lon="0.16085">
        <ele>157.31</ele>
        <time>2021-08-19T09:56:35Z</time>
      </trkpt>
      <trkpt lat="43.52391" lon="0.16086">
        <ele>157.31</ele>
        <time>2021-08-19T09:56:55Z</time>
      </trkpt>
      <trkpt lat="43.52387" lon="0.16086">
        <ele>157.31</ele>
        <time>2021-08-19T09:57:16Z</time>
      </trkpt>
      <trkpt lat="43.52389" lon="0.16088">
        <ele>157.31</ele>
        <time>2021-08-19T09:57:32Z</time>
      </trkpt>
      <trkpt lat="43.5239" lon="0.16085">
        <ele>157.31</ele>
        <time>2021-08-19T09:57:47Z</time>
      </trkpt>
      <trkpt lat="43.5239" lon="0.16085">
        <ele>157.31</ele>
        <time>2021-08-19T09:57:52Z</time>
      </trkpt>
      <trkpt lat="43.52394" lon="0.16087">
        <ele>157.31</ele>
        <time>2021-08-19T09:57:56Z</time>
      </trkpt>
      <trkpt lat="43.52393" lon="0.16082">
        <ele>157.31</ele>
        <time>2021-08-19T09:58:17Z</time>
      </trkpt>
      <trkpt lat="43.5239" lon="0.16083">
        <ele>157.31</ele>
        <time>2021-08-19T09:58:33Z</time>
      </trkpt>
      <trkpt lat="43.52391" lon="0.16082">
        <ele>157.31</ele>
        <time>2021-08-19T09:58:51Z</time>
      </trkpt>
      <trkpt lat="43.52389" lon="0.16083">
        <ele>157.31</ele>
        <time>2021-08-19T09:59:14Z</time>
      </trkpt>
      <trkpt lat="43.52387" lon="0.16086">
        <ele>157.31</ele>
        <time>2021-08-19T09:59:28Z</time>
      </trkpt>
      <trkpt lat="43.52387" lon="0.16086">
        <ele>157.31</ele>
        <time>2021-08-19T09:59:41Z</time>
      </trkpt>
      <trkpt lat="43.52389" lon="0.16085">
        <ele>157.31</ele>
        <time>2021-08-19T09:59:58Z</time>
      </trkpt>
      <trkpt lat="43.52388" lon="0.16083">
        <ele>157.31</ele>
        <time>2021-08-19T10:00:11Z</time>
      </trkpt>
      <trkpt lat="43.52389" lon="0.16083">
        <ele>156.83</ele>
        <time>2021-08-19T10:00:26Z</time>
      </trkpt>
      <trkpt lat="43.52389" lon="0.16083">
        <ele>156.83</ele>
        <time>2021-08-19T10:00:39Z</time>
      </trkpt>
      <trkpt lat="43.52388" lon="0.16081">
        <ele>156.83</ele>
        <time>2021-08-19T10:00:55Z</time>
      </trkpt>
      <trkpt lat="43.52391" lon="0.16082">
        <ele>156.83</ele>
        <time>2021-08-19T10:01:11Z</time>
      </trkpt>
      <trkpt lat="43.52389" lon="0.16085">
        <ele>156.83</ele>
        <time>2021-08-19T10:01:28Z</time>
      </trkpt>
      <trkpt lat="43.5239" lon="0.16088">
        <ele>156.83</ele>
        <time>2021-08-19T10:01:45Z</time>
      </trkpt>
      <trkpt lat="43.52388" lon="0.16087">
        <ele>156.83</ele>
        <time>2021-08-19T10:02:04Z</time>
      </trkpt>
      <trkpt lat="43.52388" lon="0.16089">
        <ele>156.83</ele>
        <time>2021-08-19T10:02:22Z</time>
      </trkpt>
      <trkpt lat="43.52391" lon="0.16089">
        <ele>156.83</ele>
        <time>2021-08-19T10:02:45Z</time>
      </trkpt>
      <trkpt lat="43.5239" lon="0.16087">
        <ele>156.83</ele>
        <time>2021-08-19T10:02:54Z</time>
      </trkpt>
      <trkpt lat="43.52391" lon="0.16089">
        <ele>156.83</ele>
        <time>2021-08-19T10:03:15Z</time>
      </trkpt>
      <trkpt lat="43.52389" lon="0.16089">
        <ele>156.83</ele>
        <time>2021-08-19T10:03:33Z</time>
      </trkpt>
      <trkpt lat="43.52391" lon="0.16089">
        <ele>156.83</ele>
        <time>2021-08-19T10:03:49Z</time>
      </trkpt>
      <trkpt lat="43.52389" lon="0.16087">
        <ele>156.83</ele>
        <time>2021-08-19T10:04:08Z</time>
      </trkpt>
      <trkpt lat="43.52389" lon="0.16089">
        <ele>156.83</ele>
        <time>2021-08-19T10:04:27Z</time>
      </trkpt>
      <trkpt lat="43.52387" lon="0.16088">
        <ele>156.83</ele>
        <time>2021-08-19T10:04:45Z</time>
      </trkpt>
      <trkpt lat="43.52391" lon="0.16086">
        <ele>156.83</ele>
        <time>2021-08-19T10:05:07Z</time>
      </trkpt>
      <trkpt lat="43.52389" lon="0.16087">
        <ele>156.83</ele>
        <time>2021-08-19T10:05:22Z</time>
      </trkpt>
      <trkpt lat="43.5239" lon="0.16086">
        <ele>156.83</ele>
        <time>2021-08-19T10:05:42Z</time>
      </trkpt>
      <trkpt lat="43.5239" lon="0.16087">
        <ele>156.83</ele>
        <time>2021-08-19T10:05:55Z</time>
      </trkpt>
      <trkpt lat="43.52388" lon="0.16083">
        <ele>156.83</ele>
        <time>2021-08-19T10:06:12Z</time>
      </trkpt>
      <trkpt lat="43.52389" lon="0.16083">
        <ele>156.83</ele>
        <time>2021-08-19T10:06:31Z</time>
      </trkpt>
      <trkpt lat="43.52387" lon="0.16085">
        <ele>156.83</ele>
        <time>2021-08-19T10:06:52Z</time>
      </trkpt>
      <trkpt lat="43.52389" lon="0.16085">
        <ele>156.83</ele>
        <time>2021-08-19T10:07:11Z</time>
      </trkpt>
      <trkpt lat="43.52388" lon="0.16083">
        <ele>156.83</ele>
        <time>2021-08-19T10:07:26Z</time>
      </trkpt>
      <trkpt lat="43.52389" lon="0.16082">
        <ele>157.31</ele>
        <time>2021-08-19T10:07:43Z</time>
      </trkpt>
      <trkpt lat="43.5239" lon="0.16086">
        <ele>157.31</ele>
        <time>2021-08-19T10:08:08Z</time>
      </trkpt>
      <trkpt lat="43.52391" lon="0.16086">
        <ele>157.31</ele>
        <time>2021-08-19T10:08:31Z</time>
      </trkpt>
      <trkpt lat="43.52392" lon="0.16088">
        <ele>157.31</ele>
        <time>2021-08-19T10:08:51Z</time>
      </trkpt>
      <trkpt lat="43.5239" lon="0.16088">
        <ele>157.31</ele>
        <time>2021-08-19T10:09:12Z</time>
      </trkpt>
      <trkpt lat="43.52388" lon="0.1609">
        <ele>157.31</ele>
        <time>2021-08-19T10:09:24Z</time>
      </trkpt>
      <trkpt lat="43.52387" lon="0.16089">
        <ele>157.31</ele>
        <time>2021-08-19T10:09:37Z</time>
      </trkpt>
      <trkpt lat="43.52387" lon="0.16086">
        <ele>157.31</ele>
        <time>2021-08-19T10:09:55Z</time>
      </trkpt>
      <trkpt lat="43.52388" lon="0.16086">
        <ele>157.31</ele>
        <time>2021-08-19T10:10:13Z</time>
      </trkpt>
      <trkpt lat="43.52389" lon="0.16085">
        <ele>157.31</ele>
        <time>2021-08-19T10:10:30Z</time>
      </trkpt>
      <trkpt lat="43.52389" lon="0.16085">
        <ele>156.83</ele>
        <time>2021-08-19T10:10:49Z</time>
      </trkpt>
      <trkpt lat="43.5239" lon="0.16087">
        <ele>156.83</ele>
        <time>2021-08-19T10:11:02Z</time>
      </trkpt>
      <trkpt lat="43.5239" lon="0.16089">
        <ele>156.83</ele>
        <time>2021-08-19T10:11:10Z</time>
      </trkpt>
      <trkpt lat="43.52389" lon="0.1609">
        <ele>156.83</ele>
        <time>2021-08-19T10:11:27Z</time>
      </trkpt>
      <trkpt lat="43.5239" lon="0.16087">
        <ele>156.83</ele>
        <time>2021-08-19T10:11:36Z</time>
      </trkpt>
      <trkpt lat="43.52393" lon="0.16093">
        <ele>156.83</ele>
        <time>2021-08-19T10:11:40Z</time>
      </trkpt>
      <trkpt lat="43.52399" lon="0.16097">
        <ele>156.83</ele>
        <time>2021-08-19T10:11:43Z</time>
      </trkpt>
      <trkpt lat="43.52412" lon="0.16102">
        <ele>156.83</ele>
        <time>2021-08-19T10:11:51Z</time>
      </trkpt>
      <trkpt lat="43.52413" lon="0.16104">
        <ele>156.83</ele>
        <time>2021-08-19T10:11:52Z</time>
      </trkpt>
      <trkpt lat="43.52419" lon="0.16121">
        <ele>155.87</ele>
        <time>2021-08-19T10:11:57Z</time>
      </trkpt>
      <trkpt lat="43.52423" lon="0.16133">
        <ele>155.87</ele>
        <time>2021-08-19T10:12:00Z</time>
      </trkpt>
      <trkpt lat="43.52424" lon="0.16137">
        <ele>155.87</ele>
        <time>2021-08-19T10:12:01Z</time>
      </trkpt>
      <trkpt lat="43.52425" lon="0.16142">
        <ele>155.87</ele>
        <time>2021-08-19T10:12:02Z</time>
      </trkpt>
      <trkpt lat="43.52431" lon="0.16158">
        <ele>155.39</ele>
        <time>2021-08-19T10:12:08Z</time>
      </trkpt>
      <trkpt lat="43.52433" lon="0.16158">
        <ele>155.39</ele>
        <time>2021-08-19T10:12:09Z</time>
      </trkpt>
      <trkpt lat="43.52435" lon="0.16159">
        <ele>155.39</ele>
        <time>2021-08-19T10:12:10Z</time>
      </trkpt>
      <trkpt lat="43.52438" lon="0.16159">
        <ele>155.39</ele>
        <time>2021-08-19T10:12:11Z</time>
      </trkpt>
      <trkpt lat="43.5244" lon="0.16161">
        <ele>155.39</ele>
        <time>2021-08-19T10:12:12Z</time>
      </trkpt>
      <trkpt lat="43.52442" lon="0.16163">
        <ele>155.39</ele>
        <time>2021-08-19T10:12:13Z</time>
      </trkpt>
      <trkpt lat="43.52447" lon="0.16163">
        <ele>155.39</ele>
        <time>2021-08-19T10:12:15Z</time>
      </trkpt>
      <trkpt lat="43.52468" lon="0.16151">
        <ele>155.39</ele>
        <time>2021-08-19T10:12:21Z</time>
      </trkpt>
      <trkpt lat="43.52471" lon="0.16149">
        <ele>154.91</ele>
        <time>2021-08-19T10:12:23Z</time>
      </trkpt>
      <trkpt lat="43.52476" lon="0.16149">
        <ele>154.91</ele>
        <time>2021-08-19T10:12:26Z</time>
      </trkpt>
      <trkpt lat="43.52495" lon="0.16139">
        <ele>154.91</ele>
        <time>2021-08-19T10:12:33Z</time>
      </trkpt>
      <trkpt lat="43.52498" lon="0.16138">
        <ele>154.91</ele>
        <time>2021-08-19T10:12:34Z</time>
      </trkpt>
      <trkpt lat="43.525" lon="0.16135">
        <ele>154.91</ele>
        <time>2021-08-19T10:12:35Z</time>
      </trkpt>
      <trkpt lat="43.525" lon="0.16132">
        <ele>154.91</ele>
        <time>2021-08-19T10:12:36Z</time>
      </trkpt>
      <trkpt lat="43.52499" lon="0.16129">
        <ele>154.43</ele>
        <time>2021-08-19T10:12:37Z</time>
      </trkpt>
      <trkpt lat="43.52499" lon="0.16126">
        <ele>154.43</ele>
        <time>2021-08-19T10:12:38Z</time>
      </trkpt>
      <trkpt lat="43.52498" lon="0.16123">
        <ele>154.43</ele>
        <time>2021-08-19T10:12:39Z</time>
      </trkpt>
      <trkpt lat="43.52498" lon="0.1612">
        <ele>154.43</ele>
        <time>2021-08-19T10:12:40Z</time>
      </trkpt>
      <trkpt lat="43.52498" lon="0.16118">
        <ele>154.43</ele>
        <time>2021-08-19T10:12:41Z</time>
      </trkpt>
      <trkpt lat="43.52497" lon="0.16115">
        <ele>154.43</ele>
        <time>2021-08-19T10:12:42Z</time>
      </trkpt>
      <trkpt lat="43.52491" lon="0.1609">
        <ele>154.43</ele>
        <time>2021-08-19T10:12:49Z</time>
      </trkpt>
      <trkpt lat="43.52485" lon="0.16065">
        <ele>154.43</ele>
        <time>2021-08-19T10:12:56Z</time>
      </trkpt>
      <trkpt lat="43.5248" lon="0.1604">
        <ele>155.39</ele>
        <time>2021-08-19T10:13:03Z</time>
      </trkpt>
      <trkpt lat="43.52476" lon="0.16021">
        <ele>155.39</ele>
        <time>2021-08-19T10:13:11Z</time>
      </trkpt>
      <trkpt lat="43.5247" lon="0.15997">
        <ele>155.87</ele>
        <time>2021-08-19T10:13:18Z</time>
      </trkpt>
      <trkpt lat="43.52468" lon="0.15997">
        <ele>155.87</ele>
        <time>2021-08-19T10:13:19Z</time>
      </trkpt>
      <trkpt lat="43.52447" lon="0.16006">
        <ele>155.87</ele>
        <time>2021-08-19T10:13:26Z</time>
      </trkpt>
      <trkpt lat="43.52427" lon="0.16014">
        <ele>156.35</ele>
        <time>2021-08-19T10:13:33Z</time>
      </trkpt>
      <trkpt lat="43.52416" lon="0.16018">
        <ele>156.83</ele>
        <time>2021-08-19T10:13:39Z</time>
      </trkpt>
      <trkpt lat="43.52415" lon="0.1602">
        <ele>156.83</ele>
        <time>2021-08-19T10:13:40Z</time>
      </trkpt>
      <trkpt lat="43.52415" lon="0.16022">
        <ele>156.83</ele>
        <time>2021-08-19T10:13:41Z</time>
      </trkpt>
      <trkpt lat="43.52415" lon="0.16024">
        <ele>156.83</ele>
        <time>2021-08-19T10:13:42Z</time>
      </trkpt>
      <trkpt lat="43.52415" lon="0.16027">
        <ele>156.83</ele>
        <time>2021-08-19T10:13:43Z</time>
      </trkpt>
      <trkpt lat="43.52416" lon="0.16029">
        <ele>156.83</ele>
        <time>2021-08-19T10:13:44Z</time>
      </trkpt>
      <trkpt lat="43.52416" lon="0.16045">
        <ele>156.83</ele>
        <time>2021-08-19T10:13:53Z</time>
      </trkpt>
      <trkpt lat="43.52414" lon="0.16052">
        <ele>156.83</ele>
        <time>2021-08-19T10:13:56Z</time>
      </trkpt>
      <trkpt lat="43.52413" lon="0.16055">
        <ele>156.83</ele>
        <time>2021-08-19T10:13:57Z</time>
      </trkpt>
      <trkpt lat="43.52413" lon="0.16058">
        <ele>156.83</ele>
        <time>2021-08-19T10:13:58Z</time>
      </trkpt>
      <trkpt lat="43.52419" lon="0.16079">
        <ele>156.83</ele>
        <time>2021-08-19T10:14:06Z</time>
      </trkpt>
      <trkpt lat="43.52421" lon="0.16086">
        <ele>156.83</ele>
        <time>2021-08-19T10:14:09Z</time>
      </trkpt>
      <trkpt lat="43.52422" lon="0.16087">
        <ele>156.83</ele>
        <time>2021-08-19T10:14:10Z</time>
      </trkpt>
      <trkpt lat="43.52425" lon="0.16091">
        <ele>156.83</ele>
        <time>2021-08-19T10:14:13Z</time>
      </trkpt>
      <trkpt lat="43.52426" lon="0.16093">
        <ele>156.83</ele>
        <time>2021-08-19T10:14:14Z</time>
      </trkpt>
      <trkpt lat="43.52427" lon="0.16094">
        <ele>156.83</ele>
        <time>2021-08-19T10:14:15Z</time>
      </trkpt>
      <trkpt lat="43.52428" lon="0.16094">
        <ele>156.83</ele>
        <time>2021-08-19T10:14:16Z</time>
      </trkpt>
      <trkpt lat="43.52429" lon="0.16093">
        <ele>156.83</ele>
        <time>2021-08-19T10:14:17Z</time>
      </trkpt>
      <trkpt lat="43.52435" lon="0.1609">
        <ele>156.83</ele>
        <time>2021-08-19T10:14:26Z</time>
      </trkpt>
      <trkpt lat="43.52438" lon="0.16098">
        <ele>156.83</ele>
        <time>2021-08-19T10:14:34Z</time>
      </trkpt>
      <trkpt lat="43.52435" lon="0.16102">
        <ele>156.83</ele>
        <time>2021-08-19T10:14:42Z</time>
      </trkpt>
      <trkpt lat="43.52428" lon="0.16111">
        <ele>156.83</ele>
        <time>2021-08-19T10:14:59Z</time>
      </trkpt>
      <trkpt lat="43.52401" lon="0.16142">
        <ele>156.83</ele>
        <time>2021-08-19T10:15:16Z</time>
      </trkpt>
      <trkpt lat="43.52381" lon="0.16148">
        <ele>156.83</ele>
        <time>2021-08-19T10:15:31Z</time>
      </trkpt>
      <trkpt lat="43.5238" lon="0.16154">
        <ele>156.83</ele>
        <time>2021-08-19T10:15:43Z</time>
      </trkpt>
      <trkpt lat="43.52377" lon="0.16163">
        <ele>156.35</ele>
        <time>2021-08-19T10:16:02Z</time>
      </trkpt>
      <trkpt lat="43.52376" lon="0.16157">
        <ele>156.35</ele>
        <time>2021-08-19T10:16:12Z</time>
      </trkpt>
      <trkpt lat="43.52376" lon="0.16145">
        <ele>156.35</ele>
        <time>2021-08-19T10:16:22Z</time>
      </trkpt>
      <trkpt lat="43.52377" lon="0.16128">
        <ele>156.35</ele>
        <time>2021-08-19T10:16:37Z</time>
      </trkpt>
      <trkpt lat="43.52374" lon="0.16132">
        <ele>156.35</ele>
        <time>2021-08-19T10:16:50Z</time>
      </trkpt>
      <trkpt lat="43.52362" lon="0.16141">
        <ele>156.35</ele>
        <time>2021-08-19T10:17:09Z</time>
      </trkpt>
      <trkpt lat="43.52383" lon="0.16127">
        <ele>155.87</ele>
        <time>2021-08-19T10:17:23Z</time>
      </trkpt>
      <trkpt lat="43.52405" lon="0.16114">
        <ele>155.87</ele>
        <time>2021-08-19T10:17:36Z</time>
      </trkpt>
      <trkpt lat="43.52392" lon="0.16126">
        <ele>155.87</ele>
        <time>2021-08-19T10:17:53Z</time>
      </trkpt>
      <trkpt lat="43.52391" lon="0.16125">
        <ele>155.87</ele>
        <time>2021-08-19T10:18:08Z</time>
      </trkpt>
      <trkpt lat="43.52383" lon="0.16134">
        <ele>155.87</ele>
        <time>2021-08-19T10:18:25Z</time>
      </trkpt>
      <trkpt lat="43.52386" lon="0.16137">
        <ele>155.87</ele>
        <time>2021-08-19T10:18:42Z</time>
      </trkpt>
      <trkpt lat="43.52389" lon="0.16144">
        <ele>155.87</ele>
        <time>2021-08-19T10:18:58Z</time>
      </trkpt>
      <trkpt lat="43.52384" lon="0.16156">
        <ele>155.39</ele>
        <time>2021-08-19T10:19:12Z</time>
      </trkpt>
      <trkpt lat="43.52385" lon="0.16153">
        <ele>155.39</ele>
        <time>2021-08-19T10:19:28Z</time>
      </trkpt>
      <trkpt lat="43.52371" lon="0.16155">
        <ele>155.39</ele>
        <time>2021-08-19T10:19:46Z</time>
      </trkpt>
      <trkpt lat="43.52371" lon="0.16152">
        <ele>155.39</ele>
        <time>2021-08-19T10:20:03Z</time>
      </trkpt>
      <trkpt lat="43.52377" lon="0.16141">
        <ele>155.39</ele>
        <time>2021-08-19T10:20:19Z</time>
      </trkpt>
      <trkpt lat="43.52385" lon="0.16132">
        <ele>154.91</ele>
        <time>2021-08-19T10:20:35Z</time>
      </trkpt>
      <trkpt lat="43.5239" lon="0.16129">
        <ele>154.91</ele>
        <time>2021-08-19T10:20:50Z</time>
      </trkpt>
      <trkpt lat="43.52379" lon="0.16138">
        <ele>154.43</ele>
        <time>2021-08-19T10:21:11Z</time>
      </trkpt>
      <trkpt lat="43.52386" lon="0.16131">
        <ele>154.43</ele>
        <time>2021-08-19T10:21:32Z</time>
      </trkpt>
      <trkpt lat="43.52389" lon="0.16127">
        <ele>154.43</ele>
        <time>2021-08-19T10:21:53Z</time>
      </trkpt>
      <trkpt lat="43.52392" lon="0.16128">
        <ele>153.95</ele>
        <time>2021-08-19T10:22:14Z</time>
      </trkpt>
      <trkpt lat="43.52393" lon="0.16126">
        <ele>153.95</ele>
        <time>2021-08-19T10:22:30Z</time>
      </trkpt>
      <trkpt lat="43.52413" lon="0.16121">
        <ele>153.95</ele>
        <time>2021-08-19T10:22:44Z</time>
      </trkpt>
      <trkpt lat="43.52422" lon="0.16115">
        <ele>153.95</ele>
        <time>2021-08-19T10:22:57Z</time>
      </trkpt>
      <trkpt lat="43.52414" lon="0.16118">
        <ele>153.95</ele>
        <time>2021-08-19T10:23:11Z</time>
      </trkpt>
      <trkpt lat="43.52402" lon="0.1611">
        <ele>153.95</ele>
        <time>2021-08-19T10:23:27Z</time>
      </trkpt>
      <trkpt lat="43.52403" lon="0.16111">
        <ele>153.95</ele>
        <time>2021-08-19T10:23:43Z</time>
      </trkpt>
      <trkpt lat="43.52401" lon="0.16112">
        <ele>153.95</ele>
        <time>2021-08-19T10:24:01Z</time>
      </trkpt>
      <trkpt lat="43.52396" lon="0.16106">
        <ele>153.95</ele>
        <time>2021-08-19T10:24:14Z</time>
      </trkpt>
      <trkpt lat="43.52401" lon="0.16086">
        <ele>153.95</ele>
        <time>2021-08-19T10:24:27Z</time>
      </trkpt>
      <trkpt lat="43.52406" lon="0.16074">
        <ele>153.95</ele>
        <time>2021-08-19T10:24:40Z</time>
      </trkpt>
      <trkpt lat="43.52403" lon="0.16068">
        <ele>153.95</ele>
        <time>2021-08-19T10:24:48Z</time>
      </trkpt>
      <trkpt lat="43.52403" lon="0.16065">
        <ele>153.95</ele>
        <time>2021-08-19T10:24:49Z</time>
      </trkpt>
      <trkpt lat="43.52404" lon="0.16063">
        <ele>153.95</ele>
        <time>2021-08-19T10:24:50Z</time>
      </trkpt>
      <trkpt lat="43.52406" lon="0.16059">
        <ele>153.95</ele>
        <time>2021-08-19T10:24:51Z</time>
      </trkpt>
      <trkpt lat="43.52408" lon="0.16054">
        <ele>153.95</ele>
        <time>2021-08-19T10:24:52Z</time>
      </trkpt>
      <trkpt lat="43.52408" lon="0.16052">
        <ele>153.95</ele>
        <time>2021-08-19T10:24:53Z</time>
      </trkpt>
      <trkpt lat="43.52394" lon="0.16046">
        <ele>153.95</ele>
        <time>2021-08-19T10:24:58Z</time>
      </trkpt>
      <trkpt lat="43.52373" lon="0.16054">
        <ele>153.95</ele>
        <time>2021-08-19T10:25:05Z</time>
      </trkpt>
      <trkpt lat="43.52361" lon="0.16057">
        <ele>153.95</ele>
        <time>2021-08-19T10:25:12Z</time>
      </trkpt>
      <trkpt lat="43.52358" lon="0.16061">
        <ele>154.43</ele>
        <time>2021-08-19T10:25:19Z</time>
      </trkpt>
      <trkpt lat="43.52352" lon="0.16058">
        <ele>154.43</ele>
        <time>2021-08-19T10:25:28Z</time>
      </trkpt>
      <trkpt lat="43.52351" lon="0.16055">
        <ele>154.43</ele>
        <time>2021-08-19T10:25:33Z</time>
      </trkpt>
      <trkpt lat="43.52347" lon="0.16047">
        <ele>154.43</ele>
        <time>2021-08-19T10:25:45Z</time>
      </trkpt>
      <trkpt lat="43.52346" lon="0.16047">
        <ele>154.43</ele>
        <time>2021-08-19T10:26:04Z</time>
      </trkpt>
      <trkpt lat="43.52348" lon="0.16047">
        <ele>154.43</ele>
        <time>2021-08-19T10:26:18Z</time>
      </trkpt>
      <trkpt lat="43.52349" lon="0.16046">
        <ele>154.43</ele>
        <time>2021-08-19T10:26:36Z</time>
      </trkpt>
      <trkpt lat="43.5235" lon="0.16044">
        <ele>154.91</ele>
        <time>2021-08-19T10:26:50Z</time>
      </trkpt>
      <trkpt lat="43.5235" lon="0.16044">
        <ele>154.91</ele>
        <time>2021-08-19T10:27:05Z</time>
      </trkpt>
      <trkpt lat="43.52351" lon="0.16044">
        <ele>154.91</ele>
        <time>2021-08-19T10:27:15Z</time>
      </trkpt>
      <trkpt lat="43.52349" lon="0.16046">
        <ele>154.91</ele>
        <time>2021-08-19T10:27:30Z</time>
      </trkpt>
      <trkpt lat="43.52348" lon="0.16046">
        <ele>154.91</ele>
        <time>2021-08-19T10:27:45Z</time>
      </trkpt>
      <trkpt lat="43.52347" lon="0.16044">
        <ele>155.39</ele>
        <time>2021-08-19T10:28:03Z</time>
      </trkpt>
      <trkpt lat="43.52347" lon="0.16044">
        <ele>155.39</ele>
        <time>2021-08-19T10:28:15Z</time>
      </trkpt>
      <trkpt lat="43.52349" lon="0.16045">
        <ele>155.87</ele>
        <time>2021-08-19T10:28:33Z</time>
      </trkpt>
      <trkpt lat="43.5235" lon="0.16046">
        <ele>155.87</ele>
        <time>2021-08-19T10:28:49Z</time>
      </trkpt>
      <trkpt lat="43.5235" lon="0.16046">
        <ele>155.87</ele>
        <time>2021-08-19T10:29:04Z</time>
      </trkpt>
      <trkpt lat="43.5235" lon="0.16045">
        <ele>155.87</ele>
        <time>2021-08-19T10:29:21Z</time>
      </trkpt>
      <trkpt lat="43.52351" lon="0.16046">
        <ele>156.35</ele>
        <time>2021-08-19T10:29:36Z</time>
      </trkpt>
      <trkpt lat="43.52352" lon="0.16045">
        <ele>156.35</ele>
        <time>2021-08-19T10:29:50Z</time>
      </trkpt>
      <trkpt lat="43.52352" lon="0.16042">
        <ele>156.35</ele>
        <time>2021-08-19T10:30:07Z</time>
      </trkpt>
      <trkpt lat="43.52352" lon="0.16042">
        <ele>156.35</ele>
        <time>2021-08-19T10:30:24Z</time>
      </trkpt>
      <trkpt lat="43.52351" lon="0.16043">
        <ele>156.83</ele>
        <time>2021-08-19T10:30:36Z</time>
      </trkpt>
      <trkpt lat="43.52349" lon="0.16044">
        <ele>157.31</ele>
        <time>2021-08-19T10:30:49Z</time>
      </trkpt>
      <trkpt lat="43.52348" lon="0.16045">
        <ele>157.31</ele>
        <time>2021-08-19T10:31:08Z</time>
      </trkpt>
      <trkpt lat="43.52346" lon="0.16044">
        <ele>157.31</ele>
        <time>2021-08-19T10:31:24Z</time>
      </trkpt>
      <trkpt lat="43.52346" lon="0.16046">
        <ele>157.31</ele>
        <time>2021-08-19T10:31:47Z</time>
      </trkpt>
      <trkpt lat="43.52349" lon="0.16045">
        <ele>157.79</ele>
        <time>2021-08-19T10:32:07Z</time>
      </trkpt>
      <trkpt lat="43.52351" lon="0.16046">
        <ele>157.79</ele>
        <time>2021-08-19T10:32:12Z</time>
      </trkpt>
      <trkpt lat="43.52352" lon="0.16044">
        <ele>157.79</ele>
        <time>2021-08-19T10:32:14Z</time>
      </trkpt>
      <trkpt lat="43.52351" lon="0.16043">
        <ele>157.79</ele>
        <time>2021-08-19T10:32:20Z</time>
      </trkpt>
      <trkpt lat="43.52352" lon="0.16044">
        <ele>157.79</ele>
        <time>2021-08-19T10:32:35Z</time>
      </trkpt>
      <trkpt lat="43.52353" lon="0.16044">
        <ele>157.79</ele>
        <time>2021-08-19T10:32:52Z</time>
      </trkpt>
      <trkpt lat="43.52352" lon="0.16043">
        <ele>157.79</ele>
        <time>2021-08-19T10:33:13Z</time>
      </trkpt>
      <trkpt lat="43.52349" lon="0.16045">
        <ele>158.27</ele>
        <time>2021-08-19T10:33:29Z</time>
      </trkpt>
      <trkpt lat="43.52348" lon="0.16045">
        <ele>158.75</ele>
        <time>2021-08-19T10:33:39Z</time>
      </trkpt>
      <trkpt lat="43.52348" lon="0.16045">
        <ele>158.75</ele>
        <time>2021-08-19T10:33:53Z</time>
      </trkpt>
      <trkpt lat="43.52348" lon="0.16044">
        <ele>158.75</ele>
        <time>2021-08-19T10:34:08Z</time>
      </trkpt>
      <trkpt lat="43.52351" lon="0.16043">
        <ele>158.75</ele>
        <time>2021-08-19T10:34:22Z</time>
      </trkpt>
      <trkpt lat="43.52351" lon="0.16045">
        <ele>159.24</ele>
        <time>2021-08-19T10:34:38Z</time>
      </trkpt>
      <trkpt lat="43.52352" lon="0.16044">
        <ele>159.24</ele>
        <time>2021-08-19T10:34:46Z</time>
      </trkpt>
      <trkpt lat="43.52358" lon="0.16046">
        <ele>159.24</ele>
        <time>2021-08-19T10:34:50Z</time>
      </trkpt>
      <trkpt lat="43.5236" lon="0.16048">
        <ele>159.24</ele>
        <time>2021-08-19T10:34:51Z</time>
      </trkpt>
      <trkpt lat="43.52369" lon="0.16067">
        <ele>159.24</ele>
        <time>2021-08-19T10:34:57Z</time>
      </trkpt>
      <trkpt lat="43.52377" lon="0.16096">
        <ele>158.27</ele>
        <time>2021-08-19T10:35:05Z</time>
      </trkpt>
      <trkpt lat="43.52386" lon="0.1613">
        <ele>157.79</ele>
        <time>2021-08-19T10:35:12Z</time>
      </trkpt>
      <trkpt lat="43.52388" lon="0.16135">
        <ele>157.79</ele>
        <time>2021-08-19T10:35:13Z</time>
      </trkpt>
      <trkpt lat="43.52389" lon="0.16147">
        <ele>157.79</ele>
        <time>2021-08-19T10:35:15Z</time>
      </trkpt>
      <trkpt lat="43.52402" lon="0.1617">
        <ele>157.31</ele>
        <time>2021-08-19T10:35:21Z</time>
      </trkpt>
      <trkpt lat="43.52405" lon="0.1617">
        <ele>157.31</ele>
        <time>2021-08-19T10:35:22Z</time>
      </trkpt>
      <trkpt lat="43.52428" lon="0.16157">
        <ele>156.83</ele>
        <time>2021-08-19T10:35:28Z</time>
      </trkpt>
      <trkpt lat="43.52431" lon="0.16153">
        <ele>156.83</ele>
        <time>2021-08-19T10:35:29Z</time>
      </trkpt>
      <trkpt lat="43.52433" lon="0.16149">
        <ele>156.83</ele>
        <time>2021-08-19T10:35:30Z</time>
      </trkpt>
      <trkpt lat="43.52436" lon="0.16144">
        <ele>156.83</ele>
        <time>2021-08-19T10:35:31Z</time>
      </trkpt>
      <trkpt lat="43.52438" lon="0.1614">
        <ele>156.83</ele>
        <time>2021-08-19T10:35:32Z</time>
      </trkpt>
      <trkpt lat="43.5244" lon="0.16136">
        <ele>156.83</ele>
        <time>2021-08-19T10:35:33Z</time>
      </trkpt>
      <trkpt lat="43.52441" lon="0.16132">
        <ele>156.83</ele>
        <time>2021-08-19T10:35:34Z</time>
      </trkpt>
      <trkpt lat="43.52445" lon="0.16111">
        <ele>156.83</ele>
        <time>2021-08-19T10:35:40Z</time>
      </trkpt>
      <trkpt lat="43.52448" lon="0.161">
        <ele>156.83</ele>
        <time>2021-08-19T10:35:46Z</time>
      </trkpt>
      <trkpt lat="43.52454" lon="0.16096">
        <ele>156.83</ele>
        <time>2021-08-19T10:35:56Z</time>
      </trkpt>
      <trkpt lat="43.52458" lon="0.16097">
        <ele>158.27</ele>
        <time>2021-08-19T10:36:01Z</time>
      </trkpt>
      <trkpt lat="43.52461" lon="0.16098">
        <ele>158.27</ele>
        <time>2021-08-19T10:36:15Z</time>
      </trkpt>
      <trkpt lat="43.52455" lon="0.16106">
        <ele>157.79</ele>
        <time>2021-08-19T10:36:27Z</time>
      </trkpt>
      <trkpt lat="43.52451" lon="0.16111">
        <ele>157.79</ele>
        <time>2021-08-19T10:36:39Z</time>
      </trkpt>
      <trkpt lat="43.52429" lon="0.16122">
        <ele>157.79</ele>
        <time>2021-08-19T10:36:54Z</time>
      </trkpt>
      <trkpt lat="43.52413" lon="0.16108">
        <ele>157.79</ele>
        <time>2021-08-19T10:37:07Z</time>
      </trkpt>
      <trkpt lat="43.52407" lon="0.16111">
        <ele>157.79</ele>
        <time>2021-08-19T10:37:21Z</time>
      </trkpt>
      <trkpt lat="43.52404" lon="0.16108">
        <ele>157.79</ele>
        <time>2021-08-19T10:37:35Z</time>
      </trkpt>
      <trkpt lat="43.52403" lon="0.16114">
        <ele>157.79</ele>
        <time>2021-08-19T10:37:57Z</time>
      </trkpt>
      <trkpt lat="43.52403" lon="0.1612">
        <ele>157.79</ele>
        <time>2021-08-19T10:38:12Z</time>
      </trkpt>
      <trkpt lat="43.524" lon="0.16124">
        <ele>157.79</ele>
        <time>2021-08-19T10:38:26Z</time>
      </trkpt>
      <trkpt lat="43.52394" lon="0.1613">
        <ele>157.79</ele>
        <time>2021-08-19T10:38:40Z</time>
      </trkpt>
      <trkpt lat="43.52396" lon="0.16125">
        <ele>157.31</ele>
        <time>2021-08-19T10:38:46Z</time>
      </trkpt>
      <trkpt lat="43.5241" lon="0.1611">
        <ele>157.31</ele>
        <time>2021-08-19T10:38:58Z</time>
      </trkpt>
      <trkpt lat="43.52413" lon="0.16111">
        <ele>157.31</ele>
        <time>2021-08-19T10:39:07Z</time>
      </trkpt>
      <trkpt lat="43.52407" lon="0.16121">
        <ele>157.31</ele>
        <time>2021-08-19T10:39:19Z</time>
      </trkpt>
      <trkpt lat="43.52427" lon="0.16105">
        <ele>157.31</ele>
        <time>2021-08-19T10:39:33Z</time>
      </trkpt>
      <trkpt lat="43.52432" lon="0.16101">
        <ele>157.31</ele>
        <time>2021-08-19T10:39:45Z</time>
      </trkpt>
      <trkpt lat="43.52418" lon="0.16109">
        <ele>157.31</ele>
        <time>2021-08-19T10:39:58Z</time>
      </trkpt>
      <trkpt lat="43.52413" lon="0.16105">
        <ele>157.31</ele>
        <time>2021-08-19T10:40:12Z</time>
      </trkpt>
      <trkpt lat="43.52413" lon="0.16104">
        <ele>157.31</ele>
        <time>2021-08-19T10:40:30Z</time>
      </trkpt>
      <trkpt lat="43.52395" lon="0.1612">
        <ele>157.31</ele>
        <time>2021-08-19T10:40:44Z</time>
      </trkpt>
      <trkpt lat="43.52402" lon="0.16117">
        <ele>157.31</ele>
        <time>2021-08-19T10:40:57Z</time>
      </trkpt>
      <trkpt lat="43.52417" lon="0.16109">
        <ele>157.31</ele>
        <time>2021-08-19T10:41:16Z</time>
      </trkpt>
      <trkpt lat="43.52428" lon="0.1609">
        <ele>157.79</ele>
        <time>2021-08-19T10:41:32Z</time>
      </trkpt>
      <trkpt lat="43.52419" lon="0.16081">
        <ele>157.79</ele>
        <time>2021-08-19T10:41:44Z</time>
      </trkpt>
      <trkpt lat="43.52415" lon="0.1608">
        <ele>157.79</ele>
        <time>2021-08-19T10:41:54Z</time>
      </trkpt>
      <trkpt lat="43.52424" lon="0.16084">
        <ele>157.79</ele>
        <time>2021-08-19T10:42:05Z</time>
      </trkpt>
      <trkpt lat="43.52424" lon="0.16092">
        <ele>157.31</ele>
        <time>2021-08-19T10:42:22Z</time>
      </trkpt>
      <trkpt lat="43.5242" lon="0.16093">
        <ele>157.31</ele>
        <time>2021-08-19T10:42:37Z</time>
      </trkpt>
      <trkpt lat="43.52422" lon="0.16095">
        <ele>157.31</ele>
        <time>2021-08-19T10:42:51Z</time>
      </trkpt>
      <trkpt lat="43.52425" lon="0.16095">
        <ele>157.31</ele>
        <time>2021-08-19T10:43:06Z</time>
      </trkpt>
      <trkpt lat="43.52419" lon="0.16096">
        <ele>157.31</ele>
        <time>2021-08-19T10:43:20Z</time>
      </trkpt>
      <trkpt lat="43.52414" lon="0.16104">
        <ele>157.31</ele>
        <time>2021-08-19T10:43:33Z</time>
      </trkpt>
      <trkpt lat="43.5241" lon="0.16103">
        <ele>158.27</ele>
        <time>2021-08-19T10:43:46Z</time>
      </trkpt>
      <trkpt lat="43.52419" lon="0.161">
        <ele>158.27</ele>
        <time>2021-08-19T10:43:50Z</time>
      </trkpt>
      <trkpt lat="43.52418" lon="0.16079">
        <ele>157.79</ele>
        <time>2021-08-19T10:43:57Z</time>
      </trkpt>
      <trkpt lat="43.5241" lon="0.16044">
        <ele>157.79</ele>
        <time>2021-08-19T10:44:06Z</time>
      </trkpt>
      <trkpt lat="43.52408" lon="0.1602">
        <ele>157.79</ele>
        <time>2021-08-19T10:44:11Z</time>
      </trkpt>
      <trkpt lat="43.52401" lon="0.15988">
        <ele>157.79</ele>
        <time>2021-08-19T10:44:18Z</time>
      </trkpt>
      <trkpt lat="43.52391" lon="0.15943">
        <ele>158.27</ele>
        <time>2021-08-19T10:44:27Z</time>
      </trkpt>
      <trkpt lat="43.5238" lon="0.15897">
        <ele>158.75</ele>
        <time>2021-08-19T10:44:36Z</time>
      </trkpt>
      <trkpt lat="43.52375" lon="0.15875">
        <ele>158.75</ele>
        <time>2021-08-19T10:44:40Z</time>
      </trkpt>
      <trkpt lat="43.52374" lon="0.15869">
        <ele>158.75</ele>
        <time>2021-08-19T10:44:41Z</time>
      </trkpt>
      <trkpt lat="43.52372" lon="0.15859">
        <ele>159.24</ele>
        <time>2021-08-19T10:44:43Z</time>
      </trkpt>
      <trkpt lat="43.52359" lon="0.15811">
        <ele>159.72</ele>
        <time>2021-08-19T10:44:52Z</time>
      </trkpt>
      <trkpt lat="43.52347" lon="0.15766">
        <ele>160.2</ele>
        <time>2021-08-19T10:45:01Z</time>
      </trkpt>
      <trkpt lat="43.52336" lon="0.15727">
        <ele>160.68</ele>
        <time>2021-08-19T10:45:09Z</time>
      </trkpt>
      <trkpt lat="43.52331" lon="0.15719">
        <ele>160.68</ele>
        <time>2021-08-19T10:45:11Z</time>
      </trkpt>
      <trkpt lat="43.52327" lon="0.15719">
        <ele>160.68</ele>
        <time>2021-08-19T10:45:12Z</time>
      </trkpt>
      <trkpt lat="43.52323" lon="0.15719">
        <ele>160.68</ele>
        <time>2021-08-19T10:45:13Z</time>
      </trkpt>
      <trkpt lat="43.52282" lon="0.15732">
        <ele>161.16</ele>
        <time>2021-08-19T10:45:22Z</time>
      </trkpt>
      <trkpt lat="43.52262" lon="0.15741">
        <ele>161.16</ele>
        <time>2021-08-19T10:45:27Z</time>
      </trkpt>
      <trkpt lat="43.52237" lon="0.15756">
        <ele>161.64</ele>
        <time>2021-08-19T10:45:33Z</time>
      </trkpt>
      <trkpt lat="43.52234" lon="0.15758">
        <ele>161.64</ele>
        <time>2021-08-19T10:45:34Z</time>
      </trkpt>
      <trkpt lat="43.52216" lon="0.15773">
        <ele>162.12</ele>
        <time>2021-08-19T10:45:39Z</time>
      </trkpt>
      <trkpt lat="43.52182" lon="0.15813">
        <ele>162.6</ele>
        <time>2021-08-19T10:45:49Z</time>
      </trkpt>
      <trkpt lat="43.52158" lon="0.15854">
        <ele>162.6</ele>
        <time>2021-08-19T10:45:57Z</time>
      </trkpt>
      <trkpt lat="43.52156" lon="0.15859">
        <ele>162.6</ele>
        <time>2021-08-19T10:45:58Z</time>
      </trkpt>
      <trkpt lat="43.52141" lon="0.15909">
        <ele>163.08</ele>
        <time>2021-08-19T10:46:06Z</time>
      </trkpt>
      <trkpt lat="43.5214" lon="0.15914">
        <ele>163.08</ele>
        <time>2021-08-19T10:46:07Z</time>
      </trkpt>
      <trkpt lat="43.52137" lon="0.15916">
        <ele>163.08</ele>
        <time>2021-08-19T10:46:08Z</time>
      </trkpt>
      <trkpt lat="43.52134" lon="0.15914">
        <ele>163.56</ele>
        <time>2021-08-19T10:46:09Z</time>
      </trkpt>
      <trkpt lat="43.52133" lon="0.15911">
        <ele>163.56</ele>
        <time>2021-08-19T10:46:10Z</time>
      </trkpt>
      <trkpt lat="43.52132" lon="0.15908">
        <ele>164.04</ele>
        <time>2021-08-19T10:46:11Z</time>
      </trkpt>
      <trkpt lat="43.52125" lon="0.15884">
        <ele>164.52</ele>
        <time>2021-08-19T10:46:17Z</time>
      </trkpt>
      <trkpt lat="43.52113" lon="0.15841">
        <ele>165</ele>
        <time>2021-08-19T10:46:26Z</time>
      </trkpt>
      <trkpt lat="43.52104" lon="0.15807">
        <ele>165.48</ele>
        <time>2021-08-19T10:46:33Z</time>
      </trkpt>
      <trkpt lat="43.5209" lon="0.15756">
        <ele>165.96</ele>
        <time>2021-08-19T10:46:43Z</time>
      </trkpt>
      <trkpt lat="43.52072" lon="0.15719">
        <ele>165.96</ele>
        <time>2021-08-19T10:46:51Z</time>
      </trkpt>
      <trkpt lat="43.52044" lon="0.15686">
        <ele>166.93</ele>
        <time>2021-08-19T10:47:01Z</time>
      </trkpt>
      <trkpt lat="43.52034" lon="0.15676">
        <ele>167.89</ele>
        <time>2021-08-19T10:47:07Z</time>
      </trkpt>
      <trkpt lat="43.5203" lon="0.15672">
        <ele>168.85</ele>
        <time>2021-08-19T10:47:11Z</time>
      </trkpt>
      <trkpt lat="43.52013" lon="0.15653">
        <ele>169.81</ele>
        <time>2021-08-19T10:47:21Z</time>
      </trkpt>
      <trkpt lat="43.52" lon="0.15639">
        <ele>171.25</ele>
        <time>2021-08-19T10:47:30Z</time>
      </trkpt>
      <trkpt lat="43.51987" lon="0.15624">
        <ele>172.21</ele>
        <time>2021-08-19T10:47:40Z</time>
      </trkpt>
      <trkpt lat="43.51975" lon="0.1561">
        <ele>173.66</ele>
        <time>2021-08-19T10:47:49Z</time>
      </trkpt>
      <trkpt lat="43.51959" lon="0.15593">
        <ele>175.1</ele>
        <time>2021-08-19T10:48:01Z</time>
      </trkpt>
      <trkpt lat="43.51948" lon="0.15583">
        <ele>175.58</ele>
        <time>2021-08-19T10:48:08Z</time>
      </trkpt>
      <trkpt lat="43.51938" lon="0.15573">
        <ele>177.5</ele>
        <time>2021-08-19T10:48:15Z</time>
      </trkpt>
      <trkpt lat="43.51925" lon="0.15558">
        <ele>178.46</ele>
        <time>2021-08-19T10:48:24Z</time>
      </trkpt>
      <trkpt lat="43.51911" lon="0.15542">
        <ele>179.9</ele>
        <time>2021-08-19T10:48:33Z</time>
      </trkpt>
      <trkpt lat="43.51898" lon="0.15528">
        <ele>180.87</ele>
        <time>2021-08-19T10:48:41Z</time>
      </trkpt>
      <trkpt lat="43.51886" lon="0.15513">
        <ele>182.31</ele>
        <time>2021-08-19T10:48:50Z</time>
      </trkpt>
      <trkpt lat="43.51883" lon="0.1551">
        <ele>182.79</ele>
        <time>2021-08-19T10:48:55Z</time>
      </trkpt>
      <trkpt lat="43.51874" lon="0.15501">
        <ele>184.23</ele>
        <time>2021-08-19T10:49:05Z</time>
      </trkpt>
      <trkpt lat="43.51867" lon="0.15492">
        <ele>185.67</ele>
        <time>2021-08-19T10:49:15Z</time>
      </trkpt>
      <trkpt lat="43.51862" lon="0.15486">
        <ele>186.63</ele>
        <time>2021-08-19T10:49:23Z</time>
      </trkpt>
      <trkpt lat="43.51856" lon="0.15478">
        <ele>188.08</ele>
        <time>2021-08-19T10:49:34Z</time>
      </trkpt>
      <trkpt lat="43.51852" lon="0.15472">
        <ele>189.52</ele>
        <time>2021-08-19T10:49:42Z</time>
      </trkpt>
      <trkpt lat="43.51847" lon="0.15467">
        <ele>190.96</ele>
        <time>2021-08-19T10:49:52Z</time>
      </trkpt>
      <trkpt lat="43.51842" lon="0.15461">
        <ele>192.4</ele>
        <time>2021-08-19T10:50:02Z</time>
      </trkpt>
      <trkpt lat="43.51837" lon="0.15456">
        <ele>193.84</ele>
        <time>2021-08-19T10:50:11Z</time>
      </trkpt>
      <trkpt lat="43.51832" lon="0.15449">
        <ele>195.77</ele>
        <time>2021-08-19T10:50:21Z</time>
      </trkpt>
      <trkpt lat="43.51826" lon="0.15443">
        <ele>197.21</ele>
        <time>2021-08-19T10:50:31Z</time>
      </trkpt>
      <trkpt lat="43.51819" lon="0.15436">
        <ele>199.13</ele>
        <time>2021-08-19T10:50:42Z</time>
      </trkpt>
      <trkpt lat="43.51813" lon="0.15428">
        <ele>201.53</ele>
        <time>2021-08-19T10:50:55Z</time>
      </trkpt>
      <trkpt lat="43.51804" lon="0.15418">
        <ele>203.46</ele>
        <time>2021-08-19T10:51:08Z</time>
      </trkpt>
      <trkpt lat="43.51796" lon="0.1541">
        <ele>204.9</ele>
        <time>2021-08-19T10:51:19Z</time>
      </trkpt>
      <trkpt lat="43.5179" lon="0.15403">
        <ele>206.34</ele>
        <time>2021-08-19T10:51:28Z</time>
      </trkpt>
      <trkpt lat="43.51785" lon="0.15401">
        <ele>206.82</ele>
        <time>2021-08-19T10:51:36Z</time>
      </trkpt>
      <trkpt lat="43.51784" lon="0.154">
        <ele>206.82</ele>
        <time>2021-08-19T10:51:38Z</time>
      </trkpt>
      <trkpt lat="43.51779" lon="0.15402">
        <ele>206.82</ele>
        <time>2021-08-19T10:51:42Z</time>
      </trkpt>
      <trkpt lat="43.51777" lon="0.15403">
        <ele>206.82</ele>
        <time>2021-08-19T10:51:43Z</time>
      </trkpt>
      <trkpt lat="43.51754" lon="0.15411">
        <ele>206.82</ele>
        <time>2021-08-19T10:51:51Z</time>
      </trkpt>
      <trkpt lat="43.51728" lon="0.15416">
        <ele>206.34</ele>
        <time>2021-08-19T10:51:58Z</time>
      </trkpt>
      <trkpt lat="43.51704" lon="0.15411">
        <ele>205.38</ele>
        <time>2021-08-19T10:52:05Z</time>
      </trkpt>
      <trkpt lat="43.51686" lon="0.15412">
        <ele>205.38</ele>
        <time>2021-08-19T10:52:11Z</time>
      </trkpt>
      <trkpt lat="43.51677" lon="0.15418">
        <ele>205.38</ele>
        <time>2021-08-19T10:52:15Z</time>
      </trkpt>
      <trkpt lat="43.51645" lon="0.15436">
        <ele>207.3</ele>
        <time>2021-08-19T10:52:26Z</time>
      </trkpt>
      <trkpt lat="43.51628" lon="0.15447">
        <ele>207.78</ele>
        <time>2021-08-19T10:52:33Z</time>
      </trkpt>
      <trkpt lat="43.51611" lon="0.15457">
        <ele>205.38</ele>
        <time>2021-08-19T10:52:38Z</time>
      </trkpt>
      <trkpt lat="43.51579" lon="0.15467">
        <ele>202.49</ele>
        <time>2021-08-19T10:52:43Z</time>
      </trkpt>
      <trkpt lat="43.51563" lon="0.15463">
        <ele>201.53</ele>
        <time>2021-08-19T10:52:47Z</time>
      </trkpt>
      <trkpt lat="43.51562" lon="0.15449">
        <ele>201.05</ele>
        <time>2021-08-19T10:52:51Z</time>
      </trkpt>
      <trkpt lat="43.51553" lon="0.1542">
        <ele>196.25</ele>
        <time>2021-08-19T10:52:56Z</time>
      </trkpt>
      <trkpt lat="43.51558" lon="0.15404">
        <ele>192.4</ele>
        <time>2021-08-19T10:53:00Z</time>
      </trkpt>
      <trkpt lat="43.51562" lon="0.15398">
        <ele>191.44</ele>
        <time>2021-08-19T10:53:02Z</time>
      </trkpt>
      <trkpt lat="43.51563" lon="0.15396">
        <ele>191.92</ele>
        <time>2021-08-19T10:53:07Z</time>
      </trkpt>
      <trkpt lat="43.51566" lon="0.15392">
        <ele>191.92</ele>
        <time>2021-08-19T10:53:23Z</time>
      </trkpt>
      <trkpt lat="43.51568" lon="0.15385">
        <ele>190.96</ele>
        <time>2021-08-19T10:53:25Z</time>
      </trkpt>
      <trkpt lat="43.51573" lon="0.15358">
        <ele>184.23</ele>
        <time>2021-08-19T10:53:29Z</time>
      </trkpt>
      <trkpt lat="43.51573" lon="0.15338">
        <ele>179.42</ele>
        <time>2021-08-19T10:53:32Z</time>
      </trkpt>
      <trkpt lat="43.51576" lon="0.15308">
        <ele>174.14</ele>
        <time>2021-08-19T10:53:36Z</time>
      </trkpt>
      <trkpt lat="43.51572" lon="0.15281">
        <ele>168.85</ele>
        <time>2021-08-19T10:53:40Z</time>
      </trkpt>
      <trkpt lat="43.51571" lon="0.15274">
        <ele>167.89</ele>
        <time>2021-08-19T10:53:41Z</time>
      </trkpt>
      <trkpt lat="43.51568" lon="0.15266">
        <ele>166.45</ele>
        <time>2021-08-19T10:53:42Z</time>
      </trkpt>
      <trkpt lat="43.51565" lon="0.1526">
        <ele>165.96</ele>
        <time>2021-08-19T10:53:43Z</time>
      </trkpt>
      <trkpt lat="43.51561" lon="0.15252">
        <ele>164.52</ele>
        <time>2021-08-19T10:53:44Z</time>
      </trkpt>
      <trkpt lat="43.51556" lon="0.15245">
        <ele>163.56</ele>
        <time>2021-08-19T10:53:45Z</time>
      </trkpt>
      <trkpt lat="43.51534" lon="0.15211">
        <ele>159.72</ele>
        <time>2021-08-19T10:53:49Z</time>
      </trkpt>
      <trkpt lat="43.51497" lon="0.15155">
        <ele>157.79</ele>
        <time>2021-08-19T10:53:56Z</time>
      </trkpt>
      <trkpt lat="43.51494" lon="0.15148">
        <ele>157.79</ele>
        <time>2021-08-19T10:53:57Z</time>
      </trkpt>
      <trkpt lat="43.51491" lon="0.1514">
        <ele>157.79</ele>
        <time>2021-08-19T10:53:58Z</time>
      </trkpt>
      <trkpt lat="43.51486" lon="0.15127">
        <ele>157.79</ele>
        <time>2021-08-19T10:54:00Z</time>
      </trkpt>
      <trkpt lat="43.51484" lon="0.15115">
        <ele>157.79</ele>
        <time>2021-08-19T10:54:02Z</time>
      </trkpt>
      <trkpt lat="43.51474" lon="0.15084">
        <ele>159.24</ele>
        <time>2021-08-19T10:54:09Z</time>
      </trkpt>
      <trkpt lat="43.51463" lon="0.15055">
        <ele>159.72</ele>
        <time>2021-08-19T10:54:16Z</time>
      </trkpt>
      <trkpt lat="43.51453" lon="0.15015">
        <ele>159.72</ele>
        <time>2021-08-19T10:54:25Z</time>
      </trkpt>
      <trkpt lat="43.51443" lon="0.14987">
        <ele>159.72</ele>
        <time>2021-08-19T10:54:32Z</time>
      </trkpt>
      <trkpt lat="43.5143" lon="0.14945">
        <ele>160.2</ele>
        <time>2021-08-19T10:54:43Z</time>
      </trkpt>
      <trkpt lat="43.51417" lon="0.14904">
        <ele>160.2</ele>
        <time>2021-08-19T10:54:54Z</time>
      </trkpt>
      <trkpt lat="43.51405" lon="0.14867">
        <ele>160.68</ele>
        <time>2021-08-19T10:55:04Z</time>
      </trkpt>
      <trkpt lat="43.51399" lon="0.14852">
        <ele>161.16</ele>
        <time>2021-08-19T10:55:11Z</time>
      </trkpt>
      <trkpt lat="43.51398" lon="0.14849">
        <ele>161.16</ele>
        <time>2021-08-19T10:55:15Z</time>
      </trkpt>
      <trkpt lat="43.51396" lon="0.14849">
        <ele>161.16</ele>
        <time>2021-08-19T10:55:16Z</time>
      </trkpt>
      <trkpt lat="43.51394" lon="0.1485">
        <ele>161.16</ele>
        <time>2021-08-19T10:55:17Z</time>
      </trkpt>
      <trkpt lat="43.51365" lon="0.14863">
        <ele>161.16</ele>
        <time>2021-08-19T10:55:25Z</time>
      </trkpt>
      <trkpt lat="43.51317" lon="0.14882">
        <ele>161.16</ele>
        <time>2021-08-19T10:55:36Z</time>
      </trkpt>
      <trkpt lat="43.51312" lon="0.14883">
        <ele>161.16</ele>
        <time>2021-08-19T10:55:37Z</time>
      </trkpt>
      <trkpt lat="43.51308" lon="0.14885">
        <ele>161.16</ele>
        <time>2021-08-19T10:55:38Z</time>
      </trkpt>
      <trkpt lat="43.51278" lon="0.14898">
        <ele>162.12</ele>
        <time>2021-08-19T10:55:45Z</time>
      </trkpt>
      <trkpt lat="43.51274" lon="0.14899">
        <ele>162.12</ele>
        <time>2021-08-19T10:55:46Z</time>
      </trkpt>
      <trkpt lat="43.51253" lon="0.14908">
        <ele>162.6</ele>
        <time>2021-08-19T10:55:51Z</time>
      </trkpt>
      <trkpt lat="43.51222" lon="0.1492">
        <ele>163.08</ele>
        <time>2021-08-19T10:55:59Z</time>
      </trkpt>
      <trkpt lat="43.51182" lon="0.14937">
        <ele>163.56</ele>
        <time>2021-08-19T10:56:09Z</time>
      </trkpt>
      <trkpt lat="43.5117" lon="0.14945">
        <ele>163.56</ele>
        <time>2021-08-19T10:56:12Z</time>
      </trkpt>
      <trkpt lat="43.51166" lon="0.14949">
        <ele>163.56</ele>
        <time>2021-08-19T10:56:13Z</time>
      </trkpt>
      <trkpt lat="43.51133" lon="0.14972">
        <ele>163.56</ele>
        <time>2021-08-19T10:56:21Z</time>
      </trkpt>
      <trkpt lat="43.51074" lon="0.14999">
        <ele>163.56</ele>
        <time>2021-08-19T10:56:34Z</time>
      </trkpt>
      <trkpt lat="43.51038" lon="0.15025">
        <ele>164.04</ele>
        <time>2021-08-19T10:56:43Z</time>
      </trkpt>
      <trkpt lat="43.51034" lon="0.15026">
        <ele>164.04</ele>
        <time>2021-08-19T10:56:44Z</time>
      </trkpt>
      <trkpt lat="43.5103" lon="0.15026">
        <ele>164.04</ele>
        <time>2021-08-19T10:56:45Z</time>
      </trkpt>
      <trkpt lat="43.51027" lon="0.15024">
        <ele>164.52</ele>
        <time>2021-08-19T10:56:46Z</time>
      </trkpt>
      <trkpt lat="43.51025" lon="0.15021">
        <ele>164.52</ele>
        <time>2021-08-19T10:56:47Z</time>
      </trkpt>
      <trkpt lat="43.51023" lon="0.15018">
        <ele>164.52</ele>
        <time>2021-08-19T10:56:48Z</time>
      </trkpt>
      <trkpt lat="43.51022" lon="0.15015">
        <ele>164.52</ele>
        <time>2021-08-19T10:56:49Z</time>
      </trkpt>
      <trkpt lat="43.5102" lon="0.15013">
        <ele>164.52</ele>
        <time>2021-08-19T10:56:50Z</time>
      </trkpt>
      <trkpt lat="43.51005" lon="0.14989">
        <ele>164.52</ele>
        <time>2021-08-19T10:56:58Z</time>
      </trkpt>
      <trkpt lat="43.50995" lon="0.14972">
        <ele>165</ele>
        <time>2021-08-19T10:57:03Z</time>
      </trkpt>
      <trkpt lat="43.50983" lon="0.14953">
        <ele>165</ele>
        <time>2021-08-19T10:57:09Z</time>
      </trkpt>
      <trkpt lat="43.5096" lon="0.14916">
        <ele>165.96</ele>
        <time>2021-08-19T10:57:20Z</time>
      </trkpt>
      <trkpt lat="43.50948" lon="0.14904">
        <ele>166.45</ele>
        <time>2021-08-19T10:57:25Z</time>
      </trkpt>
      <trkpt lat="43.50945" lon="0.14905">
        <ele>166.45</ele>
        <time>2021-08-19T10:57:26Z</time>
      </trkpt>
      <trkpt lat="43.50943" lon="0.14907">
        <ele>166.45</ele>
        <time>2021-08-19T10:57:27Z</time>
      </trkpt>
      <trkpt lat="43.5094" lon="0.14909">
        <ele>166.45</ele>
        <time>2021-08-19T10:57:28Z</time>
      </trkpt>
      <trkpt lat="43.50938" lon="0.14911">
        <ele>166.45</ele>
        <time>2021-08-19T10:57:29Z</time>
      </trkpt>
      <trkpt lat="43.50935" lon="0.14914">
        <ele>166.45</ele>
        <time>2021-08-19T10:57:30Z</time>
      </trkpt>
      <trkpt lat="43.50905" lon="0.14936">
        <ele>166.93</ele>
        <time>2021-08-19T10:57:40Z</time>
      </trkpt>
      <trkpt lat="43.50879" lon="0.14951">
        <ele>166.93</ele>
        <time>2021-08-19T10:57:48Z</time>
      </trkpt>
      <trkpt lat="43.50854" lon="0.14962">
        <ele>167.41</ele>
        <time>2021-08-19T10:57:56Z</time>
      </trkpt>
      <trkpt lat="43.50831" lon="0.14965">
        <ele>167.89</ele>
        <time>2021-08-19T10:58:04Z</time>
      </trkpt>
      <trkpt lat="43.50806" lon="0.14972">
        <ele>167.89</ele>
        <time>2021-08-19T10:58:13Z</time>
      </trkpt>
      <trkpt lat="43.50784" lon="0.14986">
        <ele>168.85</ele>
        <time>2021-08-19T10:58:22Z</time>
      </trkpt>
      <trkpt lat="43.50763" lon="0.15001">
        <ele>168.85</ele>
        <time>2021-08-19T10:58:30Z</time>
      </trkpt>
      <trkpt lat="43.50736" lon="0.15026">
        <ele>169.33</ele>
        <time>2021-08-19T10:58:41Z</time>
      </trkpt>
      <trkpt lat="43.50721" lon="0.15047">
        <ele>169.33</ele>
        <time>2021-08-19T10:58:48Z</time>
      </trkpt>
      <trkpt lat="43.50705" lon="0.15069">
        <ele>169.33</ele>
        <time>2021-08-19T10:58:55Z</time>
      </trkpt>
      <trkpt lat="43.50697" lon="0.15074">
        <ele>169.33</ele>
        <time>2021-08-19T10:58:57Z</time>
      </trkpt>
      <trkpt lat="43.5066" lon="0.15097">
        <ele>169.81</ele>
        <time>2021-08-19T10:59:07Z</time>
      </trkpt>
      <trkpt lat="43.50645" lon="0.15105">
        <ele>169.81</ele>
        <time>2021-08-19T10:59:11Z</time>
      </trkpt>
      <trkpt lat="43.50641" lon="0.15106">
        <ele>169.81</ele>
        <time>2021-08-19T10:59:12Z</time>
      </trkpt>
      <trkpt lat="43.50636" lon="0.15104">
        <ele>169.81</ele>
        <time>2021-08-19T10:59:13Z</time>
      </trkpt>
      <trkpt lat="43.50632" lon="0.15101">
        <ele>169.81</ele>
        <time>2021-08-19T10:59:14Z</time>
      </trkpt>
      <trkpt lat="43.5063" lon="0.15097">
        <ele>169.81</ele>
        <time>2021-08-19T10:59:15Z</time>
      </trkpt>
      <trkpt lat="43.50628" lon="0.15092">
        <ele>169.81</ele>
        <time>2021-08-19T10:59:16Z</time>
      </trkpt>
      <trkpt lat="43.50612" lon="0.15053">
        <ele>170.29</ele>
        <time>2021-08-19T10:59:25Z</time>
      </trkpt>
      <trkpt lat="43.50597" lon="0.15027">
        <ele>172.21</ele>
        <time>2021-08-19T10:59:34Z</time>
      </trkpt>
      <trkpt lat="43.50581" lon="0.15009">
        <ele>173.66</ele>
        <time>2021-08-19T10:59:42Z</time>
      </trkpt>
      <trkpt lat="43.50557" lon="0.14991">
        <ele>174.62</ele>
        <time>2021-08-19T10:59:52Z</time>
      </trkpt>
      <trkpt lat="43.50535" lon="0.14974">
        <ele>175.58</ele>
        <time>2021-08-19T11:00:01Z</time>
      </trkpt>
      <trkpt lat="43.50514" lon="0.14954">
        <ele>176.54</ele>
        <time>2021-08-19T11:00:10Z</time>
      </trkpt>
      <trkpt lat="43.50492" lon="0.14933">
        <ele>177.5</ele>
        <time>2021-08-19T11:00:19Z</time>
      </trkpt>
      <trkpt lat="43.50475" lon="0.14906">
        <ele>178.46</ele>
        <time>2021-08-19T11:00:29Z</time>
      </trkpt>
      <trkpt lat="43.50464" lon="0.14884">
        <ele>179.42</ele>
        <time>2021-08-19T11:00:37Z</time>
      </trkpt>
      <trkpt lat="43.5045" lon="0.14857">
        <ele>181.35</ele>
        <time>2021-08-19T11:00:46Z</time>
      </trkpt>
      <trkpt lat="43.50432" lon="0.14837">
        <ele>182.31</ele>
        <time>2021-08-19T11:00:54Z</time>
      </trkpt>
      <trkpt lat="43.50407" lon="0.14812">
        <ele>183.27</ele>
        <time>2021-08-19T11:01:04Z</time>
      </trkpt>
      <trkpt lat="43.50379" lon="0.14784">
        <ele>184.71</ele>
        <time>2021-08-19T11:01:15Z</time>
      </trkpt>
      <trkpt lat="43.50357" lon="0.14758">
        <ele>186.63</ele>
        <time>2021-08-19T11:01:25Z</time>
      </trkpt>
      <trkpt lat="43.50337" lon="0.14734">
        <ele>187.59</ele>
        <time>2021-08-19T11:01:34Z</time>
      </trkpt>
      <trkpt lat="43.50323" lon="0.14718">
        <ele>189.04</ele>
        <time>2021-08-19T11:01:42Z</time>
      </trkpt>
      <trkpt lat="43.50309" lon="0.14698">
        <ele>191.44</ele>
        <time>2021-08-19T11:01:52Z</time>
      </trkpt>
      <trkpt lat="43.50296" lon="0.14682">
        <ele>192.88</ele>
        <time>2021-08-19T11:02:01Z</time>
      </trkpt>
      <trkpt lat="43.50284" lon="0.14668">
        <ele>194.32</ele>
        <time>2021-08-19T11:02:10Z</time>
      </trkpt>
      <trkpt lat="43.50272" lon="0.14655">
        <ele>195.77</ele>
        <time>2021-08-19T11:02:19Z</time>
      </trkpt>
      <trkpt lat="43.5026" lon="0.14642">
        <ele>196.73</ele>
        <time>2021-08-19T11:02:28Z</time>
      </trkpt>
      <trkpt lat="43.50248" lon="0.1463">
        <ele>198.17</ele>
        <time>2021-08-19T11:02:37Z</time>
      </trkpt>
      <trkpt lat="43.50237" lon="0.14619">
        <ele>199.61</ele>
        <time>2021-08-19T11:02:45Z</time>
      </trkpt>
      <trkpt lat="43.50235" lon="0.14616">
        <ele>199.61</ele>
        <time>2021-08-19T11:02:47Z</time>
      </trkpt>
      <trkpt lat="43.50234" lon="0.14615">
        <ele>200.09</ele>
        <time>2021-08-19T11:02:48Z</time>
      </trkpt>
      <trkpt lat="43.50233" lon="0.14613">
        <ele>200.09</ele>
        <time>2021-08-19T11:02:49Z</time>
      </trkpt>
      <trkpt lat="43.50231" lon="0.14612">
        <ele>200.57</ele>
        <time>2021-08-19T11:02:50Z</time>
      </trkpt>
      <trkpt lat="43.5023" lon="0.14612">
        <ele>200.57</ele>
        <time>2021-08-19T11:02:51Z</time>
      </trkpt>
      <trkpt lat="43.50228" lon="0.14611">
        <ele>200.57</ele>
        <time>2021-08-19T11:02:52Z</time>
      </trkpt>
      <trkpt lat="43.50227" lon="0.14609">
        <ele>201.05</ele>
        <time>2021-08-19T11:02:53Z</time>
      </trkpt>
      <trkpt lat="43.50216" lon="0.14595">
        <ele>202.01</ele>
        <time>2021-08-19T11:03:02Z</time>
      </trkpt>
      <trkpt lat="43.50204" lon="0.14582">
        <ele>203.46</ele>
        <time>2021-08-19T11:03:11Z</time>
      </trkpt>
      <trkpt lat="43.50193" lon="0.14571">
        <ele>205.86</ele>
        <time>2021-08-19T11:03:20Z</time>
      </trkpt>
      <trkpt lat="43.50188" lon="0.14566">
        <ele>206.34</ele>
        <time>2021-08-19T11:03:27Z</time>
      </trkpt>
      <trkpt lat="43.50177" lon="0.14555">
        <ele>207.78</ele>
        <time>2021-08-19T11:03:38Z</time>
      </trkpt>
      <trkpt lat="43.50169" lon="0.14546">
        <ele>209.7</ele>
        <time>2021-08-19T11:03:49Z</time>
      </trkpt>
      <trkpt lat="43.50162" lon="0.14538">
        <ele>211.15</ele>
        <time>2021-08-19T11:04:00Z</time>
      </trkpt>
      <trkpt lat="43.50155" lon="0.14531">
        <ele>212.59</ele>
        <time>2021-08-19T11:04:10Z</time>
      </trkpt>
      <trkpt lat="43.5015" lon="0.14525">
        <ele>214.03</ele>
        <time>2021-08-19T11:04:18Z</time>
      </trkpt>
      <trkpt lat="43.50142" lon="0.14517">
        <ele>215.47</ele>
        <time>2021-08-19T11:04:29Z</time>
      </trkpt>
      <trkpt lat="43.50134" lon="0.14508">
        <ele>216.91</ele>
        <time>2021-08-19T11:04:39Z</time>
      </trkpt>
      <trkpt lat="43.50127" lon="0.14501">
        <ele>218.36</ele>
        <time>2021-08-19T11:04:48Z</time>
      </trkpt>
      <trkpt lat="43.5012" lon="0.14492">
        <ele>219.8</ele>
        <time>2021-08-19T11:04:58Z</time>
      </trkpt>
      <trkpt lat="43.50116" lon="0.14489">
        <ele>220.76</ele>
        <time>2021-08-19T11:05:06Z</time>
      </trkpt>
      <trkpt lat="43.50106" lon="0.14479">
        <ele>221.72</ele>
        <time>2021-08-19T11:05:14Z</time>
      </trkpt>
      <trkpt lat="43.50104" lon="0.14478">
        <ele>222.2</ele>
        <time>2021-08-19T11:05:15Z</time>
      </trkpt>
      <trkpt lat="43.50095" lon="0.1447">
        <ele>223.16</ele>
        <time>2021-08-19T11:05:22Z</time>
      </trkpt>
      <trkpt lat="43.50081" lon="0.1446">
        <ele>224.61</ele>
        <time>2021-08-19T11:05:31Z</time>
      </trkpt>
      <trkpt lat="43.50068" lon="0.14449">
        <ele>225.57</ele>
        <time>2021-08-19T11:05:39Z</time>
      </trkpt>
      <trkpt lat="43.50052" lon="0.14437">
        <ele>226.53</ele>
        <time>2021-08-19T11:05:48Z</time>
      </trkpt>
      <trkpt lat="43.50036" lon="0.14424">
        <ele>227.49</ele>
        <time>2021-08-19T11:05:56Z</time>
      </trkpt>
      <trkpt lat="43.50014" lon="0.14411">
        <ele>229.41</ele>
        <time>2021-08-19T11:06:06Z</time>
      </trkpt>
      <trkpt lat="43.49995" lon="0.14402">
        <ele>230.85</ele>
        <time>2021-08-19T11:06:15Z</time>
      </trkpt>
      <trkpt lat="43.49975" lon="0.14389">
        <ele>232.3</ele>
        <time>2021-08-19T11:06:25Z</time>
      </trkpt>
      <trkpt lat="43.4996" lon="0.1438">
        <ele>232.78</ele>
        <time>2021-08-19T11:06:32Z</time>
      </trkpt>
      <trkpt lat="43.49949" lon="0.1437">
        <ele>232.78</ele>
        <time>2021-08-19T11:06:39Z</time>
      </trkpt>
      <trkpt lat="43.4995" lon="0.1437">
        <ele>232.78</ele>
        <time>2021-08-19T11:06:46Z</time>
      </trkpt>
      <trkpt lat="43.4995" lon="0.1437">
        <ele>232.78</ele>
        <time>2021-08-19T11:07:03Z</time>
      </trkpt>
      <trkpt lat="43.49949" lon="0.1437">
        <ele>232.78</ele>
        <time>2021-08-19T11:07:12Z</time>
      </trkpt>
      <trkpt lat="43.49948" lon="0.14369">
        <ele>232.78</ele>
        <time>2021-08-19T11:07:30Z</time>
      </trkpt>
      <trkpt lat="43.49949" lon="0.14369">
        <ele>232.78</ele>
        <time>2021-08-19T11:07:50Z</time>
      </trkpt>
      <trkpt lat="43.49949" lon="0.14368">
        <ele>232.78</ele>
        <time>2021-08-19T11:08:05Z</time>
      </trkpt>
      <trkpt lat="43.49949" lon="0.1437">
        <ele>232.78</ele>
        <time>2021-08-19T11:08:18Z</time>
      </trkpt>
      <trkpt lat="43.49949" lon="0.14372">
        <ele>232.78</ele>
        <time>2021-08-19T11:08:29Z</time>
      </trkpt>
      <trkpt lat="43.49946" lon="0.14367">
        <ele>232.78</ele>
        <time>2021-08-19T11:08:35Z</time>
      </trkpt>
      <trkpt lat="43.49946" lon="0.14366">
        <ele>232.78</ele>
        <time>2021-08-19T11:08:36Z</time>
      </trkpt>
      <trkpt lat="43.49945" lon="0.14364">
        <ele>232.78</ele>
        <time>2021-08-19T11:08:37Z</time>
      </trkpt>
      <trkpt lat="43.49944" lon="0.14362">
        <ele>232.78</ele>
        <time>2021-08-19T11:08:38Z</time>
      </trkpt>
      <trkpt lat="43.49942" lon="0.14361">
        <ele>232.78</ele>
        <time>2021-08-19T11:08:39Z</time>
      </trkpt>
      <trkpt lat="43.4994" lon="0.14359">
        <ele>232.78</ele>
        <time>2021-08-19T11:08:40Z</time>
      </trkpt>
      <trkpt lat="43.49928" lon="0.1435">
        <ele>229.89</ele>
        <time>2021-08-19T11:08:43Z</time>
      </trkpt>
      <trkpt lat="43.49908" lon="0.14341">
        <ele>227.01</ele>
        <time>2021-08-19T11:08:47Z</time>
      </trkpt>
      <trkpt lat="43.49886" lon="0.14333">
        <ele>223.64</ele>
        <time>2021-08-19T11:08:52Z</time>
      </trkpt>
      <trkpt lat="43.49882" lon="0.1433">
        <ele>222.2</ele>
        <time>2021-08-19T11:08:53Z</time>
      </trkpt>
      <trkpt lat="43.49872" lon="0.14322">
        <ele>219.8</ele>
        <time>2021-08-19T11:08:56Z</time>
      </trkpt>
      <trkpt lat="43.49868" lon="0.14318">
        <ele>219.32</ele>
        <time>2021-08-19T11:08:57Z</time>
      </trkpt>
      <trkpt lat="43.49865" lon="0.14313">
        <ele>218.36</ele>
        <time>2021-08-19T11:08:58Z</time>
      </trkpt>
      <trkpt lat="43.49857" lon="0.14296">
        <ele>214.99</ele>
        <time>2021-08-19T11:09:01Z</time>
      </trkpt>
      <trkpt lat="43.49855" lon="0.1429">
        <ele>214.03</ele>
        <time>2021-08-19T11:09:02Z</time>
      </trkpt>
      <trkpt lat="43.49853" lon="0.14284">
        <ele>213.55</ele>
        <time>2021-08-19T11:09:03Z</time>
      </trkpt>
      <trkpt lat="43.49852" lon="0.14278">
        <ele>213.55</ele>
        <time>2021-08-19T11:09:04Z</time>
      </trkpt>
      <trkpt lat="43.49852" lon="0.14271">
        <ele>212.11</ele>
        <time>2021-08-19T11:09:05Z</time>
      </trkpt>
      <trkpt lat="43.49852" lon="0.14265">
        <ele>211.15</ele>
        <time>2021-08-19T11:09:06Z</time>
      </trkpt>
      <trkpt lat="43.49852" lon="0.14257">
        <ele>210.67</ele>
        <time>2021-08-19T11:09:07Z</time>
      </trkpt>
      <trkpt lat="43.49853" lon="0.1425">
        <ele>209.22</ele>
        <time>2021-08-19T11:09:08Z</time>
      </trkpt>
      <trkpt lat="43.49855" lon="0.14244">
        <ele>209.7</ele>
        <time>2021-08-19T11:09:09Z</time>
      </trkpt>
      <trkpt lat="43.49858" lon="0.14237">
        <ele>208.74</ele>
        <time>2021-08-19T11:09:10Z</time>
      </trkpt>
      <trkpt lat="43.49862" lon="0.14233">
        <ele>207.78</ele>
        <time>2021-08-19T11:09:11Z</time>
      </trkpt>
      <trkpt lat="43.49865" lon="0.14228">
        <ele>206.82</ele>
        <time>2021-08-19T11:09:12Z</time>
      </trkpt>
      <trkpt lat="43.4987" lon="0.14225">
        <ele>206.34</ele>
        <time>2021-08-19T11:09:13Z</time>
      </trkpt>
      <trkpt lat="43.49875" lon="0.14222">
        <ele>205.38</ele>
        <time>2021-08-19T11:09:14Z</time>
      </trkpt>
      <trkpt lat="43.4988" lon="0.14219">
        <ele>204.42</ele>
        <time>2021-08-19T11:09:15Z</time>
      </trkpt>
      <trkpt lat="43.49902" lon="0.1421">
        <ele>201.05</ele>
        <time>2021-08-19T11:09:19Z</time>
      </trkpt>
      <trkpt lat="43.49915" lon="0.14202">
        <ele>199.13</ele>
        <time>2021-08-19T11:09:22Z</time>
      </trkpt>
      <trkpt lat="43.49919" lon="0.14199">
        <ele>198.65</ele>
        <time>2021-08-19T11:09:23Z</time>
      </trkpt>
      <trkpt lat="43.49922" lon="0.14195">
        <ele>197.69</ele>
        <time>2021-08-19T11:09:24Z</time>
      </trkpt>
      <trkpt lat="43.49924" lon="0.14191">
        <ele>197.21</ele>
        <time>2021-08-19T11:09:25Z</time>
      </trkpt>
      <trkpt lat="43.49926" lon="0.14185">
        <ele>196.73</ele>
        <time>2021-08-19T11:09:26Z</time>
      </trkpt>
      <trkpt lat="43.49928" lon="0.14177">
        <ele>195.77</ele>
        <time>2021-08-19T11:09:27Z</time>
      </trkpt>
      <trkpt lat="43.49935" lon="0.14142">
        <ele>191.44</ele>
        <time>2021-08-19T11:09:31Z</time>
      </trkpt>
      <trkpt lat="43.4994" lon="0.14114">
        <ele>189.52</ele>
        <time>2021-08-19T11:09:34Z</time>
      </trkpt>
      <trkpt lat="43.49948" lon="0.1408">
        <ele>188.08</ele>
        <time>2021-08-19T11:09:38Z</time>
      </trkpt>
      <trkpt lat="43.49951" lon="0.14072">
        <ele>187.59</ele>
        <time>2021-08-19T11:09:39Z</time>
      </trkpt>
      <trkpt lat="43.49954" lon="0.14065">
        <ele>187.11</ele>
        <time>2021-08-19T11:09:40Z</time>
      </trkpt>
      <trkpt lat="43.49958" lon="0.14059">
        <ele>186.63</ele>
        <time>2021-08-19T11:09:41Z</time>
      </trkpt>
      <trkpt lat="43.49961" lon="0.14054">
        <ele>186.63</ele>
        <time>2021-08-19T11:09:42Z</time>
      </trkpt>
      <trkpt lat="43.49965" lon="0.14049">
        <ele>185.67</ele>
        <time>2021-08-19T11:09:43Z</time>
      </trkpt>
      <trkpt lat="43.49967" lon="0.14044">
        <ele>185.19</ele>
        <time>2021-08-19T11:09:44Z</time>
      </trkpt>
      <trkpt lat="43.4997" lon="0.14039">
        <ele>184.71</ele>
        <time>2021-08-19T11:09:45Z</time>
      </trkpt>
      <trkpt lat="43.49972" lon="0.14033">
        <ele>183.75</ele>
        <time>2021-08-19T11:09:46Z</time>
      </trkpt>
      <trkpt lat="43.49974" lon="0.14026">
        <ele>183.27</ele>
        <time>2021-08-19T11:09:47Z</time>
      </trkpt>
      <trkpt lat="43.49975" lon="0.1402">
        <ele>182.31</ele>
        <time>2021-08-19T11:09:48Z</time>
      </trkpt>
      <trkpt lat="43.49975" lon="0.14013">
        <ele>182.31</ele>
        <time>2021-08-19T11:09:49Z</time>
      </trkpt>
      <trkpt lat="43.49977" lon="0.14001">
        <ele>180.87</ele>
        <time>2021-08-19T11:09:51Z</time>
      </trkpt>
      <trkpt lat="43.49976" lon="0.13989">
        <ele>179.42</ele>
        <time>2021-08-19T11:09:53Z</time>
      </trkpt>
      <trkpt lat="43.49974" lon="0.13972">
        <ele>176.54</ele>
        <time>2021-08-19T11:09:56Z</time>
      </trkpt>
      <trkpt lat="43.49971" lon="0.13966">
        <ele>176.06</ele>
        <time>2021-08-19T11:09:57Z</time>
      </trkpt>
      <trkpt lat="43.49968" lon="0.13962">
        <ele>175.1</ele>
        <time>2021-08-19T11:09:58Z</time>
      </trkpt>
      <trkpt lat="43.49965" lon="0.13959">
        <ele>174.14</ele>
        <time>2021-08-19T11:09:59Z</time>
      </trkpt>
      <trkpt lat="43.49961" lon="0.13956">
        <ele>173.66</ele>
        <time>2021-08-19T11:10:00Z</time>
      </trkpt>
      <trkpt lat="43.49957" lon="0.13954">
        <ele>172.69</ele>
        <time>2021-08-19T11:10:01Z</time>
      </trkpt>
      <trkpt lat="43.49938" lon="0.13946">
        <ele>169.33</ele>
        <time>2021-08-19T11:10:05Z</time>
      </trkpt>
      <trkpt lat="43.49905" lon="0.13929">
        <ele>165.96</ele>
        <time>2021-08-19T11:10:11Z</time>
      </trkpt>
      <trkpt lat="43.49899" lon="0.13928">
        <ele>165.96</ele>
        <time>2021-08-19T11:10:12Z</time>
      </trkpt>
      <trkpt lat="43.49893" lon="0.13929">
        <ele>165.48</ele>
        <time>2021-08-19T11:10:13Z</time>
      </trkpt>
      <trkpt lat="43.49883" lon="0.13932">
        <ele>165</ele>
        <time>2021-08-19T11:10:15Z</time>
      </trkpt>
      <trkpt lat="43.49879" lon="0.13935">
        <ele>164.52</ele>
        <time>2021-08-19T11:10:16Z</time>
      </trkpt>
      <trkpt lat="43.49869" lon="0.13944">
        <ele>163.08</ele>
        <time>2021-08-19T11:10:18Z</time>
      </trkpt>
      <trkpt lat="43.49864" lon="0.13951">
        <ele>162.12</ele>
        <time>2021-08-19T11:10:19Z</time>
      </trkpt>
      <trkpt lat="43.49842" lon="0.13976">
        <ele>159.24</ele>
        <time>2021-08-19T11:10:23Z</time>
      </trkpt>
      <trkpt lat="43.49829" lon="0.13987">
        <ele>158.27</ele>
        <time>2021-08-19T11:10:25Z</time>
      </trkpt>
      <trkpt lat="43.49823" lon="0.13991">
        <ele>157.79</ele>
        <time>2021-08-19T11:10:26Z</time>
      </trkpt>
      <trkpt lat="43.49816" lon="0.13993">
        <ele>157.31</ele>
        <time>2021-08-19T11:10:27Z</time>
      </trkpt>
      <trkpt lat="43.49811" lon="0.13993">
        <ele>157.31</ele>
        <time>2021-08-19T11:10:28Z</time>
      </trkpt>
      <trkpt lat="43.49808" lon="0.13992">
        <ele>157.31</ele>
        <time>2021-08-19T11:10:29Z</time>
      </trkpt>
      <trkpt lat="43.49804" lon="0.13988">
        <ele>156.83</ele>
        <time>2021-08-19T11:10:30Z</time>
      </trkpt>
      <trkpt lat="43.49801" lon="0.13982">
        <ele>156.83</ele>
        <time>2021-08-19T11:10:31Z</time>
      </trkpt>
      <trkpt lat="43.498" lon="0.13977">
        <ele>156.35</ele>
        <time>2021-08-19T11:10:32Z</time>
      </trkpt>
      <trkpt lat="43.49799" lon="0.13971">
        <ele>156.35</ele>
        <time>2021-08-19T11:10:33Z</time>
      </trkpt>
      <trkpt lat="43.49798" lon="0.13965">
        <ele>156.35</ele>
        <time>2021-08-19T11:10:34Z</time>
      </trkpt>
      <trkpt lat="43.49797" lon="0.13959">
        <ele>155.87</ele>
        <time>2021-08-19T11:10:35Z</time>
      </trkpt>
      <trkpt lat="43.49794" lon="0.13951">
        <ele>155.87</ele>
        <time>2021-08-19T11:10:36Z</time>
      </trkpt>
      <trkpt lat="43.49793" lon="0.13946">
        <ele>156.35</ele>
        <time>2021-08-19T11:10:37Z</time>
      </trkpt>
      <trkpt lat="43.49775" lon="0.13893">
        <ele>153.95</ele>
        <time>2021-08-19T11:10:44Z</time>
      </trkpt>
      <trkpt lat="43.49747" lon="0.13829">
        <ele>153.47</ele>
        <time>2021-08-19T11:10:52Z</time>
      </trkpt>
      <trkpt lat="43.49744" lon="0.13821">
        <ele>152.99</ele>
        <time>2021-08-19T11:10:53Z</time>
      </trkpt>
      <trkpt lat="43.49739" lon="0.13814">
        <ele>152.99</ele>
        <time>2021-08-19T11:10:54Z</time>
      </trkpt>
      <trkpt lat="43.49735" lon="0.13807">
        <ele>152.99</ele>
        <time>2021-08-19T11:10:55Z</time>
      </trkpt>
      <trkpt lat="43.49731" lon="0.13802">
        <ele>152.99</ele>
        <time>2021-08-19T11:10:56Z</time>
      </trkpt>
      <trkpt lat="43.49725" lon="0.13796">
        <ele>152.99</ele>
        <time>2021-08-19T11:10:57Z</time>
      </trkpt>
      <trkpt lat="43.4972" lon="0.13793">
        <ele>152.99</ele>
        <time>2021-08-19T11:10:58Z</time>
      </trkpt>
      <trkpt lat="43.49715" lon="0.13789">
        <ele>152.99</ele>
        <time>2021-08-19T11:10:59Z</time>
      </trkpt>
      <trkpt lat="43.49696" lon="0.13776">
        <ele>152.99</ele>
        <time>2021-08-19T11:11:03Z</time>
      </trkpt>
      <trkpt lat="43.49692" lon="0.13772">
        <ele>152.99</ele>
        <time>2021-08-19T11:11:04Z</time>
      </trkpt>
      <trkpt lat="43.49689" lon="0.13768">
        <ele>153.95</ele>
        <time>2021-08-19T11:11:05Z</time>
      </trkpt>
      <trkpt lat="43.49686" lon="0.13763">
        <ele>153.95</ele>
        <time>2021-08-19T11:11:06Z</time>
      </trkpt>
      <trkpt lat="43.49684" lon="0.13758">
        <ele>154.91</ele>
        <time>2021-08-19T11:11:07Z</time>
      </trkpt>
      <trkpt lat="43.49682" lon="0.13753">
        <ele>154.91</ele>
        <time>2021-08-19T11:11:08Z</time>
      </trkpt>
      <trkpt lat="43.49673" lon="0.13718">
        <ele>154.43</ele>
        <time>2021-08-19T11:11:14Z</time>
      </trkpt>
      <trkpt lat="43.49673" lon="0.13711">
        <ele>154.43</ele>
        <time>2021-08-19T11:11:15Z</time>
      </trkpt>
      <trkpt lat="43.49674" lon="0.13704">
        <ele>154.43</ele>
        <time>2021-08-19T11:11:16Z</time>
      </trkpt>
      <trkpt lat="43.49675" lon="0.1369">
        <ele>152.99</ele>
        <time>2021-08-19T11:11:18Z</time>
      </trkpt>
      <trkpt lat="43.49674" lon="0.13682">
        <ele>152.99</ele>
        <time>2021-08-19T11:11:19Z</time>
      </trkpt>
      <trkpt lat="43.49671" lon="0.13668">
        <ele>152.99</ele>
        <time>2021-08-19T11:11:21Z</time>
      </trkpt>
      <trkpt lat="43.49662" lon="0.13642">
        <ele>152.51</ele>
        <time>2021-08-19T11:11:25Z</time>
      </trkpt>
      <trkpt lat="43.49659" lon="0.13637">
        <ele>152.51</ele>
        <time>2021-08-19T11:11:26Z</time>
      </trkpt>
      <trkpt lat="43.49638" lon="0.13612">
        <ele>152.51</ele>
        <time>2021-08-19T11:11:31Z</time>
      </trkpt>
      <trkpt lat="43.49618" lon="0.13596">
        <ele>152.51</ele>
        <time>2021-08-19T11:11:35Z</time>
      </trkpt>
      <trkpt lat="43.49614" lon="0.13591">
        <ele>152.51</ele>
        <time>2021-08-19T11:11:36Z</time>
      </trkpt>
      <trkpt lat="43.4961" lon="0.13586">
        <ele>152.51</ele>
        <time>2021-08-19T11:11:37Z</time>
      </trkpt>
      <trkpt lat="43.49606" lon="0.1358">
        <ele>152.51</ele>
        <time>2021-08-19T11:11:38Z</time>
      </trkpt>
      <trkpt lat="43.49602" lon="0.13574">
        <ele>152.51</ele>
        <time>2021-08-19T11:11:39Z</time>
      </trkpt>
      <trkpt lat="43.49595" lon="0.13562">
        <ele>152.51</ele>
        <time>2021-08-19T11:11:41Z</time>
      </trkpt>
      <trkpt lat="43.49592" lon="0.13557">
        <ele>152.51</ele>
        <time>2021-08-19T11:11:42Z</time>
      </trkpt>
      <trkpt lat="43.4959" lon="0.13551">
        <ele>152.51</ele>
        <time>2021-08-19T11:11:43Z</time>
      </trkpt>
      <trkpt lat="43.49592" lon="0.13546">
        <ele>152.03</ele>
        <time>2021-08-19T11:11:44Z</time>
      </trkpt>
      <trkpt lat="43.49594" lon="0.13541">
        <ele>152.03</ele>
        <time>2021-08-19T11:11:45Z</time>
      </trkpt>
      <trkpt lat="43.49598" lon="0.13537">
        <ele>152.03</ele>
        <time>2021-08-19T11:11:46Z</time>
      </trkpt>
      <trkpt lat="43.49601" lon="0.13533">
        <ele>151.54</ele>
        <time>2021-08-19T11:11:47Z</time>
      </trkpt>
      <trkpt lat="43.49605" lon="0.13525">
        <ele>151.54</ele>
        <time>2021-08-19T11:11:49Z</time>
      </trkpt>
      <trkpt lat="43.49605" lon="0.13522">
        <ele>151.54</ele>
        <time>2021-08-19T11:11:50Z</time>
      </trkpt>
      <trkpt lat="43.49605" lon="0.13518">
        <ele>151.54</ele>
        <time>2021-08-19T11:11:51Z</time>
      </trkpt>
      <trkpt lat="43.49603" lon="0.13515">
        <ele>151.54</ele>
        <time>2021-08-19T11:11:52Z</time>
      </trkpt>
      <trkpt lat="43.496" lon="0.13511">
        <ele>151.54</ele>
        <time>2021-08-19T11:11:53Z</time>
      </trkpt>
      <trkpt lat="43.49598" lon="0.13507">
        <ele>151.54</ele>
        <time>2021-08-19T11:11:54Z</time>
      </trkpt>
      <trkpt lat="43.49595" lon="0.13504">
        <ele>151.54</ele>
        <time>2021-08-19T11:11:55Z</time>
      </trkpt>
      <trkpt lat="43.49591" lon="0.13502">
        <ele>151.54</ele>
        <time>2021-08-19T11:11:56Z</time>
      </trkpt>
      <trkpt lat="43.49588" lon="0.13499">
        <ele>151.54</ele>
        <time>2021-08-19T11:11:57Z</time>
      </trkpt>
      <trkpt lat="43.49586" lon="0.13493">
        <ele>151.54</ele>
        <time>2021-08-19T11:11:58Z</time>
      </trkpt>
      <trkpt lat="43.49574" lon="0.1346">
        <ele>152.99</ele>
        <time>2021-08-19T11:12:03Z</time>
      </trkpt>
      <trkpt lat="43.49571" lon="0.13455">
        <ele>152.99</ele>
        <time>2021-08-19T11:12:04Z</time>
      </trkpt>
      <trkpt lat="43.49561" lon="0.13433">
        <ele>154.43</ele>
        <time>2021-08-19T11:12:10Z</time>
      </trkpt>
      <trkpt lat="43.49549" lon="0.13414">
        <ele>152.99</ele>
        <time>2021-08-19T11:12:14Z</time>
      </trkpt>
      <trkpt lat="43.49535" lon="0.13393">
        <ele>152.99</ele>
        <time>2021-08-19T11:12:18Z</time>
      </trkpt>
      <trkpt lat="43.49531" lon="0.13389">
        <ele>152.51</ele>
        <time>2021-08-19T11:12:19Z</time>
      </trkpt>
      <trkpt lat="43.49527" lon="0.13386">
        <ele>152.51</ele>
        <time>2021-08-19T11:12:20Z</time>
      </trkpt>
      <trkpt lat="43.49522" lon="0.13384">
        <ele>152.51</ele>
        <time>2021-08-19T11:12:21Z</time>
      </trkpt>
      <trkpt lat="43.49517" lon="0.13384">
        <ele>152.51</ele>
        <time>2021-08-19T11:12:22Z</time>
      </trkpt>
      <trkpt lat="43.49512" lon="0.13383">
        <ele>152.51</ele>
        <time>2021-08-19T11:12:23Z</time>
      </trkpt>
      <trkpt lat="43.49504" lon="0.13383">
        <ele>152.51</ele>
        <time>2021-08-19T11:12:25Z</time>
      </trkpt>
      <trkpt lat="43.49486" lon="0.13389">
        <ele>152.51</ele>
        <time>2021-08-19T11:12:29Z</time>
      </trkpt>
      <trkpt lat="43.49458" lon="0.13403">
        <ele>153.95</ele>
        <time>2021-08-19T11:12:36Z</time>
      </trkpt>
      <trkpt lat="43.49455" lon="0.134">
        <ele>153.95</ele>
        <time>2021-08-19T11:12:37Z</time>
      </trkpt>
      <trkpt lat="43.49453" lon="0.13395">
        <ele>153.95</ele>
        <time>2021-08-19T11:12:38Z</time>
      </trkpt>
      <trkpt lat="43.49452" lon="0.1339">
        <ele>153.95</ele>
        <time>2021-08-19T11:12:39Z</time>
      </trkpt>
      <trkpt lat="43.4945" lon="0.13384">
        <ele>153.95</ele>
        <time>2021-08-19T11:12:40Z</time>
      </trkpt>
      <trkpt lat="43.49434" lon="0.1333">
        <ele>152.51</ele>
        <time>2021-08-19T11:12:49Z</time>
      </trkpt>
      <trkpt lat="43.49422" lon="0.13286">
        <ele>152.51</ele>
        <time>2021-08-19T11:12:56Z</time>
      </trkpt>
      <trkpt lat="43.49422" lon="0.13278">
        <ele>152.51</ele>
        <time>2021-08-19T11:12:57Z</time>
      </trkpt>
      <trkpt lat="43.49423" lon="0.13272">
        <ele>152.51</ele>
        <time>2021-08-19T11:12:58Z</time>
      </trkpt>
      <trkpt lat="43.49426" lon="0.13268">
        <ele>152.51</ele>
        <time>2021-08-19T11:12:59Z</time>
      </trkpt>
      <trkpt lat="43.4943" lon="0.13265">
        <ele>152.51</ele>
        <time>2021-08-19T11:13:00Z</time>
      </trkpt>
      <trkpt lat="43.49434" lon="0.13263">
        <ele>152.51</ele>
        <time>2021-08-19T11:13:01Z</time>
      </trkpt>
      <trkpt lat="43.49438" lon="0.13261">
        <ele>152.51</ele>
        <time>2021-08-19T11:13:02Z</time>
      </trkpt>
      <trkpt lat="43.49455" lon="0.13253">
        <ele>152.51</ele>
        <time>2021-08-19T11:13:06Z</time>
      </trkpt>
      <trkpt lat="43.49496" lon="0.1323">
        <ele>152.03</ele>
        <time>2021-08-19T11:13:15Z</time>
      </trkpt>
      <trkpt lat="43.49547" lon="0.13202">
        <ele>152.03</ele>
        <time>2021-08-19T11:13:26Z</time>
      </trkpt>
      <trkpt lat="43.49602" lon="0.13172">
        <ele>152.03</ele>
        <time>2021-08-19T11:13:38Z</time>
      </trkpt>
      <trkpt lat="43.49655" lon="0.13144">
        <ele>152.03</ele>
        <time>2021-08-19T11:13:49Z</time>
      </trkpt>
      <trkpt lat="43.49709" lon="0.13115">
        <ele>151.54</ele>
        <time>2021-08-19T11:14:00Z</time>
      </trkpt>
      <trkpt lat="43.49776" lon="0.13078">
        <ele>151.54</ele>
        <time>2021-08-19T11:14:14Z</time>
      </trkpt>
      <trkpt lat="43.49834" lon="0.13046">
        <ele>151.54</ele>
        <time>2021-08-19T11:14:26Z</time>
      </trkpt>
      <trkpt lat="43.49878" lon="0.13022">
        <ele>151.54</ele>
        <time>2021-08-19T11:14:35Z</time>
      </trkpt>
      <trkpt lat="43.49929" lon="0.12995">
        <ele>151.54</ele>
        <time>2021-08-19T11:14:45Z</time>
      </trkpt>
      <trkpt lat="43.49987" lon="0.12963">
        <ele>151.54</ele>
        <time>2021-08-19T11:14:57Z</time>
      </trkpt>
      <trkpt lat="43.5001" lon="0.12951">
        <ele>151.54</ele>
        <time>2021-08-19T11:15:02Z</time>
      </trkpt>
      <trkpt lat="43.50046" lon="0.12931">
        <ele>151.54</ele>
        <time>2021-08-19T11:15:11Z</time>
      </trkpt>
      <trkpt lat="43.50084" lon="0.12902">
        <ele>150.58</ele>
        <time>2021-08-19T11:15:20Z</time>
      </trkpt>
      <trkpt lat="43.501" lon="0.12891">
        <ele>151.06</ele>
        <time>2021-08-19T11:15:24Z</time>
      </trkpt>
      <trkpt lat="43.50103" lon="0.12887">
        <ele>151.06</ele>
        <time>2021-08-19T11:15:25Z</time>
      </trkpt>
      <trkpt lat="43.50104" lon="0.12882">
        <ele>151.06</ele>
        <time>2021-08-19T11:15:26Z</time>
      </trkpt>
      <trkpt lat="43.50104" lon="0.12878">
        <ele>150.58</ele>
        <time>2021-08-19T11:15:27Z</time>
      </trkpt>
      <trkpt lat="43.50102" lon="0.12875">
        <ele>150.58</ele>
        <time>2021-08-19T11:15:28Z</time>
      </trkpt>
      <trkpt lat="43.501" lon="0.12872">
        <ele>150.58</ele>
        <time>2021-08-19T11:15:29Z</time>
      </trkpt>
      <trkpt lat="43.50081" lon="0.12855">
        <ele>150.58</ele>
        <time>2021-08-19T11:15:35Z</time>
      </trkpt>
      <trkpt lat="43.50044" lon="0.12821">
        <ele>150.58</ele>
        <time>2021-08-19T11:15:45Z</time>
      </trkpt>
      <trkpt lat="43.50014" lon="0.12793">
        <ele>150.58</ele>
        <time>2021-08-19T11:15:53Z</time>
      </trkpt>
      <trkpt lat="43.49985" lon="0.12765">
        <ele>150.58</ele>
        <time>2021-08-19T11:16:01Z</time>
      </trkpt>
      <trkpt lat="43.49981" lon="0.12762">
        <ele>150.58</ele>
        <time>2021-08-19T11:16:02Z</time>
      </trkpt>
      <trkpt lat="43.49977" lon="0.12759">
        <ele>150.58</ele>
        <time>2021-08-19T11:16:03Z</time>
      </trkpt>
      <trkpt lat="43.49935" lon="0.12718">
        <ele>150.58</ele>
        <time>2021-08-19T11:16:14Z</time>
      </trkpt>
      <trkpt lat="43.49927" lon="0.12711">
        <ele>150.58</ele>
        <time>2021-08-19T11:16:16Z</time>
      </trkpt>
      <trkpt lat="43.49908" lon="0.12694">
        <ele>150.58</ele>
        <time>2021-08-19T11:16:22Z</time>
      </trkpt>
      <trkpt lat="43.49886" lon="0.12676">
        <ele>150.58</ele>
        <time>2021-08-19T11:16:29Z</time>
      </trkpt>
      <trkpt lat="43.49882" lon="0.12673">
        <ele>150.58</ele>
        <time>2021-08-19T11:16:30Z</time>
      </trkpt>
      <trkpt lat="43.4985" lon="0.12656">
        <ele>150.58</ele>
        <time>2021-08-19T11:16:38Z</time>
      </trkpt>
      <trkpt lat="43.49818" lon="0.12637">
        <ele>150.58</ele>
        <time>2021-08-19T11:16:46Z</time>
      </trkpt>
      <trkpt lat="43.49814" lon="0.12633">
        <ele>150.58</ele>
        <time>2021-08-19T11:16:47Z</time>
      </trkpt>
      <trkpt lat="43.49808" lon="0.12625">
        <ele>152.03</ele>
        <time>2021-08-19T11:16:49Z</time>
      </trkpt>
      <trkpt lat="43.49806" lon="0.1262">
        <ele>152.03</ele>
        <time>2021-08-19T11:16:50Z</time>
      </trkpt>
      <trkpt lat="43.49788" lon="0.12587">
        <ele>152.03</ele>
        <time>2021-08-19T11:16:57Z</time>
      </trkpt>
      <trkpt lat="43.49772" lon="0.12557">
        <ele>152.03</ele>
        <time>2021-08-19T11:17:03Z</time>
      </trkpt>
      <trkpt lat="43.49747" lon="0.12506">
        <ele>152.03</ele>
        <time>2021-08-19T11:17:12Z</time>
      </trkpt>
      <trkpt lat="43.49723" lon="0.12446">
        <ele>152.03</ele>
        <time>2021-08-19T11:17:22Z</time>
      </trkpt>
      <trkpt lat="43.49702" lon="0.1239">
        <ele>152.03</ele>
        <time>2021-08-19T11:17:31Z</time>
      </trkpt>
      <trkpt lat="43.49677" lon="0.12327">
        <ele>152.03</ele>
        <time>2021-08-19T11:17:41Z</time>
      </trkpt>
      <trkpt lat="43.49672" lon="0.12314">
        <ele>152.03</ele>
        <time>2021-08-19T11:17:43Z</time>
      </trkpt>
      <trkpt lat="43.49671" lon="0.12308">
        <ele>152.03</ele>
        <time>2021-08-19T11:17:44Z</time>
      </trkpt>
      <trkpt lat="43.4967" lon="0.12301">
        <ele>152.03</ele>
        <time>2021-08-19T11:17:45Z</time>
      </trkpt>
      <trkpt lat="43.49669" lon="0.12294">
        <ele>152.03</ele>
        <time>2021-08-19T11:17:46Z</time>
      </trkpt>
      <trkpt lat="43.49668" lon="0.12287">
        <ele>152.03</ele>
        <time>2021-08-19T11:17:47Z</time>
      </trkpt>
      <trkpt lat="43.49668" lon="0.1228">
        <ele>152.03</ele>
        <time>2021-08-19T11:17:48Z</time>
      </trkpt>
      <trkpt lat="43.49668" lon="0.12273">
        <ele>152.03</ele>
        <time>2021-08-19T11:17:49Z</time>
      </trkpt>
      <trkpt lat="43.49672" lon="0.12199">
        <ele>152.03</ele>
        <time>2021-08-19T11:18:00Z</time>
      </trkpt>
      <trkpt lat="43.49668" lon="0.12141">
        <ele>152.03</ele>
        <time>2021-08-19T11:18:09Z</time>
      </trkpt>
      <trkpt lat="43.49665" lon="0.12129">
        <ele>152.03</ele>
        <time>2021-08-19T11:18:11Z</time>
      </trkpt>
      <trkpt lat="43.49665" lon="0.12123">
        <ele>152.03</ele>
        <time>2021-08-19T11:18:12Z</time>
      </trkpt>
      <trkpt lat="43.49663" lon="0.1211">
        <ele>152.03</ele>
        <time>2021-08-19T11:18:14Z</time>
      </trkpt>
      <trkpt lat="43.4965" lon="0.12047">
        <ele>152.51</ele>
        <time>2021-08-19T11:18:24Z</time>
      </trkpt>
      <trkpt lat="43.49636" lon="0.11991">
        <ele>152.51</ele>
        <time>2021-08-19T11:18:33Z</time>
      </trkpt>
      <trkpt lat="43.49632" lon="0.11973">
        <ele>152.51</ele>
        <time>2021-08-19T11:18:36Z</time>
      </trkpt>
      <trkpt lat="43.49615" lon="0.11912">
        <ele>152.99</ele>
        <time>2021-08-19T11:18:46Z</time>
      </trkpt>
      <trkpt lat="43.496" lon="0.11863">
        <ele>152.99</ele>
        <time>2021-08-19T11:18:54Z</time>
      </trkpt>
      <trkpt lat="43.49596" lon="0.11851">
        <ele>152.99</ele>
        <time>2021-08-19T11:18:56Z</time>
      </trkpt>
      <trkpt lat="43.49575" lon="0.11811">
        <ele>153.47</ele>
        <time>2021-08-19T11:19:04Z</time>
      </trkpt>
      <trkpt lat="43.49547" lon="0.11771">
        <ele>153.95</ele>
        <time>2021-08-19T11:19:13Z</time>
      </trkpt>
      <trkpt lat="43.4954" lon="0.11762">
        <ele>153.95</ele>
        <time>2021-08-19T11:19:15Z</time>
      </trkpt>
      <trkpt lat="43.49525" lon="0.11747">
        <ele>153.95</ele>
        <time>2021-08-19T11:19:19Z</time>
      </trkpt>
      <trkpt lat="43.49497" lon="0.11723">
        <ele>153.95</ele>
        <time>2021-08-19T11:19:26Z</time>
      </trkpt>
      <trkpt lat="43.49466" lon="0.11683">
        <ele>153.95</ele>
        <time>2021-08-19T11:19:35Z</time>
      </trkpt>
      <trkpt lat="43.49437" lon="0.11635">
        <ele>154.91</ele>
        <time>2021-08-19T11:19:45Z</time>
      </trkpt>
      <trkpt lat="43.49415" lon="0.11587">
        <ele>155.39</ele>
        <time>2021-08-19T11:19:55Z</time>
      </trkpt>
      <trkpt lat="43.49413" lon="0.11582">
        <ele>155.39</ele>
        <time>2021-08-19T11:19:56Z</time>
      </trkpt>
      <trkpt lat="43.4939" lon="0.11531">
        <ele>156.83</ele>
        <time>2021-08-19T11:20:06Z</time>
      </trkpt>
      <trkpt lat="43.49367" lon="0.1148">
        <ele>156.83</ele>
        <time>2021-08-19T11:20:16Z</time>
      </trkpt>
      <trkpt lat="43.49349" lon="0.11428">
        <ele>156.83</ele>
        <time>2021-08-19T11:20:25Z</time>
      </trkpt>
      <trkpt lat="43.49328" lon="0.11366">
        <ele>157.31</ele>
        <time>2021-08-19T11:20:36Z</time>
      </trkpt>
      <trkpt lat="43.49312" lon="0.11322">
        <ele>158.27</ele>
        <time>2021-08-19T11:20:44Z</time>
      </trkpt>
      <trkpt lat="43.49293" lon="0.11274">
        <ele>159.24</ele>
        <time>2021-08-19T11:20:54Z</time>
      </trkpt>
      <trkpt lat="43.49287" lon="0.11261">
        <ele>159.24</ele>
        <time>2021-08-19T11:20:57Z</time>
      </trkpt>
      <trkpt lat="43.49284" lon="0.11259">
        <ele>160.2</ele>
        <time>2021-08-19T11:20:58Z</time>
      </trkpt>
      <trkpt lat="43.4928" lon="0.11257">
        <ele>160.2</ele>
        <time>2021-08-19T11:20:59Z</time>
      </trkpt>
      <trkpt lat="43.49277" lon="0.11256">
        <ele>160.2</ele>
        <time>2021-08-19T11:21:00Z</time>
      </trkpt>
      <trkpt lat="43.49272" lon="0.11256">
        <ele>160.2</ele>
        <time>2021-08-19T11:21:01Z</time>
      </trkpt>
      <trkpt lat="43.49269" lon="0.11256">
        <ele>160.2</ele>
        <time>2021-08-19T11:21:02Z</time>
      </trkpt>
      <trkpt lat="43.49264" lon="0.11257">
        <ele>160.2</ele>
        <time>2021-08-19T11:21:03Z</time>
      </trkpt>
      <trkpt lat="43.4926" lon="0.11258">
        <ele>160.2</ele>
        <time>2021-08-19T11:21:04Z</time>
      </trkpt>
      <trkpt lat="43.49245" lon="0.11262">
        <ele>160.2</ele>
        <time>2021-08-19T11:21:08Z</time>
      </trkpt>
      <trkpt lat="43.49241" lon="0.11261">
        <ele>160.2</ele>
        <time>2021-08-19T11:21:09Z</time>
      </trkpt>
      <trkpt lat="43.49237" lon="0.11259">
        <ele>160.2</ele>
        <time>2021-08-19T11:21:10Z</time>
      </trkpt>
      <trkpt lat="43.49235" lon="0.11254">
        <ele>160.2</ele>
        <time>2021-08-19T11:21:11Z</time>
      </trkpt>
      <trkpt lat="43.49234" lon="0.11249">
        <ele>160.68</ele>
        <time>2021-08-19T11:21:12Z</time>
      </trkpt>
      <trkpt lat="43.49234" lon="0.11244">
        <ele>160.68</ele>
        <time>2021-08-19T11:21:13Z</time>
      </trkpt>
      <trkpt lat="43.49235" lon="0.11239">
        <ele>160.68</ele>
        <time>2021-08-19T11:21:14Z</time>
      </trkpt>
      <trkpt lat="43.49236" lon="0.11234">
        <ele>160.68</ele>
        <time>2021-08-19T11:21:15Z</time>
      </trkpt>
      <trkpt lat="43.49236" lon="0.11229">
        <ele>161.16</ele>
        <time>2021-08-19T11:21:16Z</time>
      </trkpt>
      <trkpt lat="43.49237" lon="0.11224">
        <ele>161.16</ele>
        <time>2021-08-19T11:21:17Z</time>
      </trkpt>
      <trkpt lat="43.49237" lon="0.11219">
        <ele>161.16</ele>
        <time>2021-08-19T11:21:18Z</time>
      </trkpt>
      <trkpt lat="43.49237" lon="0.11213">
        <ele>161.16</ele>
        <time>2021-08-19T11:21:19Z</time>
      </trkpt>
      <trkpt lat="43.49238" lon="0.11208">
        <ele>161.16</ele>
        <time>2021-08-19T11:21:20Z</time>
      </trkpt>
      <trkpt lat="43.49239" lon="0.11203">
        <ele>161.16</ele>
        <time>2021-08-19T11:21:21Z</time>
      </trkpt>
      <trkpt lat="43.49244" lon="0.1116">
        <ele>162.12</ele>
        <time>2021-08-19T11:21:29Z</time>
      </trkpt>
      <trkpt lat="43.49251" lon="0.11113">
        <ele>163.08</ele>
        <time>2021-08-19T11:21:39Z</time>
      </trkpt>
      <trkpt lat="43.49255" lon="0.11083">
        <ele>163.08</ele>
        <time>2021-08-19T11:21:46Z</time>
      </trkpt>
      <trkpt lat="43.4926" lon="0.11054">
        <ele>163.56</ele>
        <time>2021-08-19T11:21:53Z</time>
      </trkpt>
      <trkpt lat="43.49268" lon="0.11022">
        <ele>164.04</ele>
        <time>2021-08-19T11:22:00Z</time>
      </trkpt>
      <trkpt lat="43.49273" lon="0.11002">
        <ele>164.04</ele>
        <time>2021-08-19T11:22:04Z</time>
      </trkpt>
      <trkpt lat="43.49278" lon="0.10946">
        <ele>164.04</ele>
        <time>2021-08-19T11:22:13Z</time>
      </trkpt>
      <trkpt lat="43.4928" lon="0.10887">
        <ele>165</ele>
        <time>2021-08-19T11:22:22Z</time>
      </trkpt>
      <trkpt lat="43.49281" lon="0.1088">
        <ele>165</ele>
        <time>2021-08-19T11:22:23Z</time>
      </trkpt>
      <trkpt lat="43.49284" lon="0.10824">
        <ele>165</ele>
        <time>2021-08-19T11:22:32Z</time>
      </trkpt>
      <trkpt lat="43.49286" lon="0.10763">
        <ele>165</ele>
        <time>2021-08-19T11:22:42Z</time>
      </trkpt>
      <trkpt lat="43.49287" lon="0.1072">
        <ele>166.45</ele>
        <time>2021-08-19T11:22:51Z</time>
      </trkpt>
      <trkpt lat="43.49289" lon="0.10708">
        <ele>166.93</ele>
        <time>2021-08-19T11:22:54Z</time>
      </trkpt>
      <trkpt lat="43.49291" lon="0.10706">
        <ele>167.41</ele>
        <time>2021-08-19T11:22:55Z</time>
      </trkpt>
      <trkpt lat="43.49294" lon="0.10706">
        <ele>167.89</ele>
        <time>2021-08-19T11:22:56Z</time>
      </trkpt>
      <trkpt lat="43.49297" lon="0.10706">
        <ele>167.41</ele>
        <time>2021-08-19T11:22:57Z</time>
      </trkpt>
      <trkpt lat="43.49301" lon="0.10706">
        <ele>167.89</ele>
        <time>2021-08-19T11:22:58Z</time>
      </trkpt>
      <trkpt lat="43.49304" lon="0.10707">
        <ele>167.41</ele>
        <time>2021-08-19T11:22:59Z</time>
      </trkpt>
      <trkpt lat="43.49309" lon="0.10709">
        <ele>167.41</ele>
        <time>2021-08-19T11:23:00Z</time>
      </trkpt>
      <trkpt lat="43.49314" lon="0.10711">
        <ele>167.89</ele>
        <time>2021-08-19T11:23:01Z</time>
      </trkpt>
      <trkpt lat="43.4933" lon="0.10716">
        <ele>165.96</ele>
        <time>2021-08-19T11:23:04Z</time>
      </trkpt>
      <trkpt lat="43.49349" lon="0.1072">
        <ele>165</ele>
        <time>2021-08-19T11:23:07Z</time>
      </trkpt>
      <trkpt lat="43.49356" lon="0.1072">
        <ele>164.52</ele>
        <time>2021-08-19T11:23:08Z</time>
      </trkpt>
      <trkpt lat="43.49362" lon="0.10719">
        <ele>164.52</ele>
        <time>2021-08-19T11:23:09Z</time>
      </trkpt>
      <trkpt lat="43.49369" lon="0.10716">
        <ele>164.52</ele>
        <time>2021-08-19T11:23:10Z</time>
      </trkpt>
      <trkpt lat="43.49374" lon="0.10712">
        <ele>164.04</ele>
        <time>2021-08-19T11:23:11Z</time>
      </trkpt>
      <trkpt lat="43.4938" lon="0.10708">
        <ele>164.04</ele>
        <time>2021-08-19T11:23:12Z</time>
      </trkpt>
      <trkpt lat="43.49423" lon="0.10675">
        <ele>164.04</ele>
        <time>2021-08-19T11:23:20Z</time>
      </trkpt>
      <trkpt lat="43.49432" lon="0.10668">
        <ele>165.48</ele>
        <time>2021-08-19T11:23:22Z</time>
      </trkpt>
      <trkpt lat="43.49438" lon="0.10666">
        <ele>165.48</ele>
        <time>2021-08-19T11:23:23Z</time>
      </trkpt>
      <trkpt lat="43.49483" lon="0.10646">
        <ele>165.96</ele>
        <time>2021-08-19T11:23:32Z</time>
      </trkpt>
      <trkpt lat="43.49511" lon="0.10633">
        <ele>167.89</ele>
        <time>2021-08-19T11:23:39Z</time>
      </trkpt>
      <trkpt lat="43.49544" lon="0.10613">
        <ele>168.85</ele>
        <time>2021-08-19T11:23:49Z</time>
      </trkpt>
      <trkpt lat="43.49568" lon="0.10595">
        <ele>168.85</ele>
        <time>2021-08-19T11:23:56Z</time>
      </trkpt>
      <trkpt lat="43.49572" lon="0.10587">
        <ele>169.33</ele>
        <time>2021-08-19T11:23:58Z</time>
      </trkpt>
      <trkpt lat="43.49571" lon="0.10583">
        <ele>169.33</ele>
        <time>2021-08-19T11:23:59Z</time>
      </trkpt>
      <trkpt lat="43.4957" lon="0.10581">
        <ele>169.33</ele>
        <time>2021-08-19T11:24:00Z</time>
      </trkpt>
      <trkpt lat="43.49569" lon="0.10577">
        <ele>169.33</ele>
        <time>2021-08-19T11:24:01Z</time>
      </trkpt>
      <trkpt lat="43.49567" lon="0.10574">
        <ele>169.33</ele>
        <time>2021-08-19T11:24:02Z</time>
      </trkpt>
      <trkpt lat="43.49566" lon="0.10571">
        <ele>169.33</ele>
        <time>2021-08-19T11:24:03Z</time>
      </trkpt>
      <trkpt lat="43.49564" lon="0.10568">
        <ele>169.33</ele>
        <time>2021-08-19T11:24:04Z</time>
      </trkpt>
      <trkpt lat="43.49562" lon="0.10564">
        <ele>169.33</ele>
        <time>2021-08-19T11:24:05Z</time>
      </trkpt>
      <trkpt lat="43.49549" lon="0.10532">
        <ele>170.29</ele>
        <time>2021-08-19T11:24:14Z</time>
      </trkpt>
      <trkpt lat="43.49545" lon="0.10511">
        <ele>171.73</ele>
        <time>2021-08-19T11:24:22Z</time>
      </trkpt>
      <trkpt lat="43.49544" lon="0.10508">
        <ele>171.73</ele>
        <time>2021-08-19T11:24:23Z</time>
      </trkpt>
      <trkpt lat="43.49543" lon="0.10506">
        <ele>172.21</ele>
        <time>2021-08-19T11:24:24Z</time>
      </trkpt>
      <trkpt lat="43.49542" lon="0.10503">
        <ele>172.21</ele>
        <time>2021-08-19T11:24:25Z</time>
      </trkpt>
      <trkpt lat="43.49542" lon="0.105">
        <ele>172.21</ele>
        <time>2021-08-19T11:24:26Z</time>
      </trkpt>
      <trkpt lat="43.49541" lon="0.10497">
        <ele>172.21</ele>
        <time>2021-08-19T11:24:27Z</time>
      </trkpt>
      <trkpt lat="43.49541" lon="0.10494">
        <ele>172.21</ele>
        <time>2021-08-19T11:24:28Z</time>
      </trkpt>
      <trkpt lat="43.4954" lon="0.10492">
        <ele>172.21</ele>
        <time>2021-08-19T11:24:29Z</time>
      </trkpt>
      <trkpt lat="43.49533" lon="0.10461">
        <ele>173.17</ele>
        <time>2021-08-19T11:24:39Z</time>
      </trkpt>
      <trkpt lat="43.49524" lon="0.10424">
        <ele>174.14</ele>
        <time>2021-08-19T11:24:50Z</time>
      </trkpt>
      <trkpt lat="43.49519" lon="0.10397">
        <ele>174.62</ele>
        <time>2021-08-19T11:24:58Z</time>
      </trkpt>
      <trkpt lat="43.49514" lon="0.10369">
        <ele>176.06</ele>
        <time>2021-08-19T11:25:07Z</time>
      </trkpt>
      <trkpt lat="43.4951" lon="0.10339">
        <ele>177.02</ele>
        <time>2021-08-19T11:25:16Z</time>
      </trkpt>
      <trkpt lat="43.49506" lon="0.10312">
        <ele>178.46</ele>
        <time>2021-08-19T11:25:25Z</time>
      </trkpt>
      <trkpt lat="43.49502" lon="0.10281">
        <ele>179.9</ele>
        <time>2021-08-19T11:25:36Z</time>
      </trkpt>
      <trkpt lat="43.49499" lon="0.10261">
        <ele>181.35</ele>
        <time>2021-08-19T11:25:44Z</time>
      </trkpt>
      <trkpt lat="43.49501" lon="0.10237">
        <ele>182.31</ele>
        <time>2021-08-19T11:25:53Z</time>
      </trkpt>
      <trkpt lat="43.49502" lon="0.10213">
        <ele>183.75</ele>
        <time>2021-08-19T11:26:03Z</time>
      </trkpt>
      <trkpt lat="43.49503" lon="0.10196">
        <ele>185.19</ele>
        <time>2021-08-19T11:26:10Z</time>
      </trkpt>
      <trkpt lat="43.49503" lon="0.10195">
        <ele>186.15</ele>
        <time>2021-08-19T11:26:11Z</time>
      </trkpt>
      <trkpt lat="43.49503" lon="0.10193">
        <ele>186.15</ele>
        <time>2021-08-19T11:26:12Z</time>
      </trkpt>
      <trkpt lat="43.49504" lon="0.10191">
        <ele>186.15</ele>
        <time>2021-08-19T11:26:13Z</time>
      </trkpt>
      <trkpt lat="43.49505" lon="0.1019">
        <ele>186.15</ele>
        <time>2021-08-19T11:26:14Z</time>
      </trkpt>
      <trkpt lat="43.49506" lon="0.10188">
        <ele>186.15</ele>
        <time>2021-08-19T11:26:15Z</time>
      </trkpt>
      <trkpt lat="43.49507" lon="0.10187">
        <ele>186.15</ele>
        <time>2021-08-19T11:26:16Z</time>
      </trkpt>
      <trkpt lat="43.49509" lon="0.10185">
        <ele>186.15</ele>
        <time>2021-08-19T11:26:17Z</time>
      </trkpt>
      <trkpt lat="43.4951" lon="0.10184">
        <ele>186.15</ele>
        <time>2021-08-19T11:26:18Z</time>
      </trkpt>
      <trkpt lat="43.49511" lon="0.10183">
        <ele>187.11</ele>
        <time>2021-08-19T11:26:19Z</time>
      </trkpt>
      <trkpt lat="43.49512" lon="0.10182">
        <ele>187.11</ele>
        <time>2021-08-19T11:26:20Z</time>
      </trkpt>
      <trkpt lat="43.49514" lon="0.10182">
        <ele>187.11</ele>
        <time>2021-08-19T11:26:21Z</time>
      </trkpt>
      <trkpt lat="43.4952" lon="0.10181">
        <ele>187.59</ele>
        <time>2021-08-19T11:26:26Z</time>
      </trkpt>
      <trkpt lat="43.49521" lon="0.10181">
        <ele>187.59</ele>
        <time>2021-08-19T11:26:27Z</time>
      </trkpt>
      <trkpt lat="43.49523" lon="0.1018">
        <ele>187.59</ele>
        <time>2021-08-19T11:26:28Z</time>
      </trkpt>
      <trkpt lat="43.49527" lon="0.10179">
        <ele>188.08</ele>
        <time>2021-08-19T11:26:31Z</time>
      </trkpt>
      <trkpt lat="43.49528" lon="0.10179">
        <ele>188.56</ele>
        <time>2021-08-19T11:26:32Z</time>
      </trkpt>
      <trkpt lat="43.4953" lon="0.10179">
        <ele>188.56</ele>
        <time>2021-08-19T11:26:33Z</time>
      </trkpt>
      <trkpt lat="43.49541" lon="0.10176">
        <ele>189.52</ele>
        <time>2021-08-19T11:26:40Z</time>
      </trkpt>
      <trkpt lat="43.49543" lon="0.10176">
        <ele>190</ele>
        <time>2021-08-19T11:26:41Z</time>
      </trkpt>
      <trkpt lat="43.49545" lon="0.10175">
        <ele>190</ele>
        <time>2021-08-19T11:26:42Z</time>
      </trkpt>
      <trkpt lat="43.49546" lon="0.10175">
        <ele>190</ele>
        <time>2021-08-19T11:26:43Z</time>
      </trkpt>
      <trkpt lat="43.49548" lon="0.10175">
        <ele>190</ele>
        <time>2021-08-19T11:26:44Z</time>
      </trkpt>
      <trkpt lat="43.49563" lon="0.1017">
        <ele>191.44</ele>
        <time>2021-08-19T11:26:53Z</time>
      </trkpt>
      <trkpt lat="43.49572" lon="0.10162">
        <ele>191.92</ele>
        <time>2021-08-19T11:27:00Z</time>
      </trkpt>
      <trkpt lat="43.4958" lon="0.10146">
        <ele>193.84</ele>
        <time>2021-08-19T11:27:10Z</time>
      </trkpt>
      <trkpt lat="43.49582" lon="0.10142">
        <ele>194.32</ele>
        <time>2021-08-19T11:27:12Z</time>
      </trkpt>
      <trkpt lat="43.49585" lon="0.10129">
        <ele>195.77</ele>
        <time>2021-08-19T11:27:19Z</time>
      </trkpt>
      <trkpt lat="43.49586" lon="0.10116">
        <ele>197.21</ele>
        <time>2021-08-19T11:27:27Z</time>
      </trkpt>
      <trkpt lat="43.49587" lon="0.10096">
        <ele>198.17</ele>
        <time>2021-08-19T11:27:37Z</time>
      </trkpt>
      <trkpt lat="43.49588" lon="0.10089">
        <ele>198.65</ele>
        <time>2021-08-19T11:27:40Z</time>
      </trkpt>
      <trkpt lat="43.49588" lon="0.10087">
        <ele>198.65</ele>
        <time>2021-08-19T11:27:41Z</time>
      </trkpt>
      <trkpt lat="43.49589" lon="0.10073">
        <ele>200.09</ele>
        <time>2021-08-19T11:27:48Z</time>
      </trkpt>
      <trkpt lat="43.49589" lon="0.10063">
        <ele>201.05</ele>
        <time>2021-08-19T11:27:55Z</time>
      </trkpt>
      <trkpt lat="43.4959" lon="0.10061">
        <ele>201.53</ele>
        <time>2021-08-19T11:28:04Z</time>
      </trkpt>
      <trkpt lat="43.4959" lon="0.10053">
        <ele>202.01</ele>
        <time>2021-08-19T11:28:21Z</time>
      </trkpt>
      <trkpt lat="43.49591" lon="0.10046">
        <ele>202.98</ele>
        <time>2021-08-19T11:28:28Z</time>
      </trkpt>
      <trkpt lat="43.49593" lon="0.10038">
        <ele>204.42</ele>
        <time>2021-08-19T11:28:37Z</time>
      </trkpt>
      <trkpt lat="43.49595" lon="0.10026">
        <ele>205.86</ele>
        <time>2021-08-19T11:28:46Z</time>
      </trkpt>
      <trkpt lat="43.49597" lon="0.10014">
        <ele>207.3</ele>
        <time>2021-08-19T11:28:56Z</time>
      </trkpt>
      <trkpt lat="43.496" lon="0.10004">
        <ele>208.26</ele>
        <time>2021-08-19T11:29:04Z</time>
      </trkpt>
      <trkpt lat="43.49604" lon="0.09989">
        <ele>210.19</ele>
        <time>2021-08-19T11:29:13Z</time>
      </trkpt>
      <trkpt lat="43.49608" lon="0.09977">
        <ele>211.63</ele>
        <time>2021-08-19T11:29:23Z</time>
      </trkpt>
      <trkpt lat="43.4961" lon="0.09973">
        <ele>212.11</ele>
        <time>2021-08-19T11:29:30Z</time>
      </trkpt>
      <trkpt lat="43.49611" lon="0.09969">
        <ele>212.59</ele>
        <time>2021-08-19T11:29:33Z</time>
      </trkpt>
      <trkpt lat="43.49617" lon="0.09957">
        <ele>213.55</ele>
        <time>2021-08-19T11:29:41Z</time>
      </trkpt>
      <trkpt lat="43.49621" lon="0.09947">
        <ele>214.51</ele>
        <time>2021-08-19T11:29:49Z</time>
      </trkpt>
      <trkpt lat="43.49622" lon="0.09944">
        <ele>214.99</ele>
        <time>2021-08-19T11:29:51Z</time>
      </trkpt>
      <trkpt lat="43.49627" lon="0.09935">
        <ele>215.95</ele>
        <time>2021-08-19T11:30:00Z</time>
      </trkpt>
      <trkpt lat="43.49628" lon="0.09933">
        <ele>215.95</ele>
        <time>2021-08-19T11:30:01Z</time>
      </trkpt>
      <trkpt lat="43.49634" lon="0.09922">
        <ele>217.4</ele>
        <time>2021-08-19T11:30:10Z</time>
      </trkpt>
      <trkpt lat="43.49639" lon="0.09911">
        <ele>219.32</ele>
        <time>2021-08-19T11:30:20Z</time>
      </trkpt>
      <trkpt lat="43.49645" lon="0.099">
        <ele>220.76</ele>
        <time>2021-08-19T11:30:31Z</time>
      </trkpt>
      <trkpt lat="43.49649" lon="0.09891">
        <ele>222.68</ele>
        <time>2021-08-19T11:30:40Z</time>
      </trkpt>
      <trkpt lat="43.49655" lon="0.09878">
        <ele>223.16</ele>
        <time>2021-08-19T11:30:49Z</time>
      </trkpt>
      <trkpt lat="43.49658" lon="0.0987">
        <ele>224.12</ele>
        <time>2021-08-19T11:30:58Z</time>
      </trkpt>
      <trkpt lat="43.49662" lon="0.09854">
        <ele>225.57</ele>
        <time>2021-08-19T11:31:06Z</time>
      </trkpt>
      <trkpt lat="43.49667" lon="0.09838">
        <ele>227.49</ele>
        <time>2021-08-19T11:31:14Z</time>
      </trkpt>
      <trkpt lat="43.49674" lon="0.09811">
        <ele>228.45</ele>
        <time>2021-08-19T11:31:24Z</time>
      </trkpt>
      <trkpt lat="43.49678" lon="0.09791">
        <ele>229.41</ele>
        <time>2021-08-19T11:31:30Z</time>
      </trkpt>
      <trkpt lat="43.4969" lon="0.09768">
        <ele>229.41</ele>
        <time>2021-08-19T11:31:37Z</time>
      </trkpt>
      <trkpt lat="43.49693" lon="0.09763">
        <ele>229.41</ele>
        <time>2021-08-19T11:31:38Z</time>
      </trkpt>
      <trkpt lat="43.49695" lon="0.09756">
        <ele>227.97</ele>
        <time>2021-08-19T11:31:39Z</time>
      </trkpt>
      <trkpt lat="43.49712" lon="0.09695">
        <ele>225.57</ele>
        <time>2021-08-19T11:31:47Z</time>
      </trkpt>
      <trkpt lat="43.49722" lon="0.0965">
        <ele>223.64</ele>
        <time>2021-08-19T11:31:52Z</time>
      </trkpt>
      <trkpt lat="43.49725" lon="0.09642">
        <ele>223.64</ele>
        <time>2021-08-19T11:31:53Z</time>
      </trkpt>
      <trkpt lat="43.49727" lon="0.09634">
        <ele>224.12</ele>
        <time>2021-08-19T11:31:54Z</time>
      </trkpt>
      <trkpt lat="43.4973" lon="0.09626">
        <ele>224.12</ele>
        <time>2021-08-19T11:31:55Z</time>
      </trkpt>
      <trkpt lat="43.49732" lon="0.09618">
        <ele>224.12</ele>
        <time>2021-08-19T11:31:56Z</time>
      </trkpt>
      <trkpt lat="43.49734" lon="0.09611">
        <ele>224.12</ele>
        <time>2021-08-19T11:31:57Z</time>
      </trkpt>
      <trkpt lat="43.49739" lon="0.09597">
        <ele>224.12</ele>
        <time>2021-08-19T11:31:59Z</time>
      </trkpt>
      <trkpt lat="43.49742" lon="0.09592">
        <ele>224.12</ele>
        <time>2021-08-19T11:32:00Z</time>
      </trkpt>
      <trkpt lat="43.49756" lon="0.09555">
        <ele>225.09</ele>
        <time>2021-08-19T11:32:07Z</time>
      </trkpt>
      <trkpt lat="43.49758" lon="0.09549">
        <ele>225.09</ele>
        <time>2021-08-19T11:32:08Z</time>
      </trkpt>
      <trkpt lat="43.49764" lon="0.09516">
        <ele>226.05</ele>
        <time>2021-08-19T11:32:14Z</time>
      </trkpt>
      <trkpt lat="43.49767" lon="0.09482">
        <ele>227.49</ele>
        <time>2021-08-19T11:32:20Z</time>
      </trkpt>
      <trkpt lat="43.49768" lon="0.09463">
        <ele>228.93</ele>
        <time>2021-08-19T11:32:26Z</time>
      </trkpt>
      <trkpt lat="43.4977" lon="0.09443">
        <ele>229.89</ele>
        <time>2021-08-19T11:32:34Z</time>
      </trkpt>
      <trkpt lat="43.49771" lon="0.09423">
        <ele>230.85</ele>
        <time>2021-08-19T11:32:42Z</time>
      </trkpt>
      <trkpt lat="43.49771" lon="0.09402">
        <ele>232.78</ele>
        <time>2021-08-19T11:32:51Z</time>
      </trkpt>
      <trkpt lat="43.49771" lon="0.09388">
        <ele>234.22</ele>
        <time>2021-08-19T11:33:00Z</time>
      </trkpt>
      <trkpt lat="43.4977" lon="0.09383">
        <ele>235.18</ele>
        <time>2021-08-19T11:33:03Z</time>
      </trkpt>
      <trkpt lat="43.49769" lon="0.09379">
        <ele>235.66</ele>
        <time>2021-08-19T11:33:05Z</time>
      </trkpt>
      <trkpt lat="43.49769" lon="0.09378">
        <ele>235.66</ele>
        <time>2021-08-19T11:33:06Z</time>
      </trkpt>
      <trkpt lat="43.49768" lon="0.09377">
        <ele>235.66</ele>
        <time>2021-08-19T11:33:07Z</time>
      </trkpt>
      <trkpt lat="43.49761" lon="0.09366">
        <ele>237.58</ele>
        <time>2021-08-19T11:33:16Z</time>
      </trkpt>
      <trkpt lat="43.49752" lon="0.09356">
        <ele>239.02</ele>
        <time>2021-08-19T11:33:24Z</time>
      </trkpt>
      <trkpt lat="43.49741" lon="0.09339">
        <ele>240.95</ele>
        <time>2021-08-19T11:33:33Z</time>
      </trkpt>
      <trkpt lat="43.49728" lon="0.09322">
        <ele>241.91</ele>
        <time>2021-08-19T11:33:41Z</time>
      </trkpt>
      <trkpt lat="43.49704" lon="0.09314">
        <ele>241.91</ele>
        <time>2021-08-19T11:33:49Z</time>
      </trkpt>
      <trkpt lat="43.4969" lon="0.09302">
        <ele>242.87</ele>
        <time>2021-08-19T11:33:56Z</time>
      </trkpt>
      <trkpt lat="43.49684" lon="0.09278">
        <ele>242.87</ele>
        <time>2021-08-19T11:34:01Z</time>
      </trkpt>
      <trkpt lat="43.49679" lon="0.09229">
        <ele>239.99</ele>
        <time>2021-08-19T11:34:08Z</time>
      </trkpt>
      <trkpt lat="43.49672" lon="0.09167">
        <ele>237.58</ele>
        <time>2021-08-19T11:34:15Z</time>
      </trkpt>
      <trkpt lat="43.49669" lon="0.0916">
        <ele>236.62</ele>
        <time>2021-08-19T11:34:16Z</time>
      </trkpt>
      <trkpt lat="43.49665" lon="0.09155">
        <ele>236.62</ele>
        <time>2021-08-19T11:34:17Z</time>
      </trkpt>
      <trkpt lat="43.49659" lon="0.09151">
        <ele>236.62</ele>
        <time>2021-08-19T11:34:18Z</time>
      </trkpt>
      <trkpt lat="43.49654" lon="0.09149">
        <ele>236.14</ele>
        <time>2021-08-19T11:34:19Z</time>
      </trkpt>
      <trkpt lat="43.49616" lon="0.09134">
        <ele>236.14</ele>
        <time>2021-08-19T11:34:26Z</time>
      </trkpt>
      <trkpt lat="43.49583" lon="0.09121">
        <ele>236.14</ele>
        <time>2021-08-19T11:34:34Z</time>
      </trkpt>
      <trkpt lat="43.49549" lon="0.09107">
        <ele>237.1</ele>
        <time>2021-08-19T11:34:43Z</time>
      </trkpt>
      <trkpt lat="43.49516" lon="0.09094">
        <ele>238.06</ele>
        <time>2021-08-19T11:34:52Z</time>
      </trkpt>
      <trkpt lat="43.49475" lon="0.09076">
        <ele>238.54</ele>
        <time>2021-08-19T11:35:02Z</time>
      </trkpt>
      <trkpt lat="43.49453" lon="0.09068">
        <ele>239.99</ele>
        <time>2021-08-19T11:35:09Z</time>
      </trkpt>
      <trkpt lat="43.49437" lon="0.09062">
        <ele>241.43</ele>
        <time>2021-08-19T11:35:17Z</time>
      </trkpt>
      <trkpt lat="43.4942" lon="0.09051">
        <ele>242.39</ele>
        <time>2021-08-19T11:35:26Z</time>
      </trkpt>
      <trkpt lat="43.49411" lon="0.0903">
        <ele>243.83</ele>
        <time>2021-08-19T11:35:33Z</time>
      </trkpt>
      <trkpt lat="43.49407" lon="0.08993">
        <ele>245.27</ele>
        <time>2021-08-19T11:35:44Z</time>
      </trkpt>
      <trkpt lat="43.49405" lon="0.08971">
        <ele>247.2</ele>
        <time>2021-08-19T11:35:53Z</time>
      </trkpt>
      <trkpt lat="43.49404" lon="0.08944">
        <ele>250.08</ele>
        <time>2021-08-19T11:36:03Z</time>
      </trkpt>
      <trkpt lat="43.49409" lon="0.0892">
        <ele>252.48</ele>
        <time>2021-08-19T11:36:12Z</time>
      </trkpt>
      <trkpt lat="43.49417" lon="0.08903">
        <ele>254.41</ele>
        <time>2021-08-19T11:36:19Z</time>
      </trkpt>
      <trkpt lat="43.49422" lon="0.08883">
        <ele>255.85</ele>
        <time>2021-08-19T11:36:27Z</time>
      </trkpt>
      <trkpt lat="43.49422" lon="0.08861">
        <ele>256.33</ele>
        <time>2021-08-19T11:36:35Z</time>
      </trkpt>
      <trkpt lat="43.4943" lon="0.0884">
        <ele>256.81</ele>
        <time>2021-08-19T11:36:41Z</time>
      </trkpt>
      <trkpt lat="43.49447" lon="0.08822">
        <ele>257.77</ele>
        <time>2021-08-19T11:36:48Z</time>
      </trkpt>
      <trkpt lat="43.49464" lon="0.08816">
        <ele>258.25</ele>
        <time>2021-08-19T11:36:54Z</time>
      </trkpt>
      <trkpt lat="43.49472" lon="0.08813">
        <ele>258.73</ele>
        <time>2021-08-19T11:36:57Z</time>
      </trkpt>
      <trkpt lat="43.49473" lon="0.08811">
        <ele>258.73</ele>
        <time>2021-08-19T11:36:58Z</time>
      </trkpt>
      <trkpt lat="43.49472" lon="0.08809">
        <ele>258.73</ele>
        <time>2021-08-19T11:36:59Z</time>
      </trkpt>
      <trkpt lat="43.49471" lon="0.0881">
        <ele>258.73</ele>
        <time>2021-08-19T11:37:00Z</time>
      </trkpt>
      <trkpt lat="43.49469" lon="0.08812">
        <ele>258.73</ele>
        <time>2021-08-19T11:37:01Z</time>
      </trkpt>
      <trkpt lat="43.49467" lon="0.08814">
        <ele>258.73</ele>
        <time>2021-08-19T11:37:02Z</time>
      </trkpt>
      <trkpt lat="43.49466" lon="0.08818">
        <ele>258.73</ele>
        <time>2021-08-19T11:37:03Z</time>
      </trkpt>
      <trkpt lat="43.49466" lon="0.08824">
        <ele>258.73</ele>
        <time>2021-08-19T11:37:04Z</time>
      </trkpt>
      <trkpt lat="43.49466" lon="0.08828">
        <ele>258.73</ele>
        <time>2021-08-19T11:37:05Z</time>
      </trkpt>
      <trkpt lat="43.49468" lon="0.08832">
        <ele>258.73</ele>
        <time>2021-08-19T11:37:06Z</time>
      </trkpt>
      <trkpt lat="43.4947" lon="0.08836">
        <ele>258.73</ele>
        <time>2021-08-19T11:37:07Z</time>
      </trkpt>
      <trkpt lat="43.49473" lon="0.0884">
        <ele>257.29</ele>
        <time>2021-08-19T11:37:08Z</time>
      </trkpt>
      <trkpt lat="43.49476" lon="0.08843">
        <ele>257.29</ele>
        <time>2021-08-19T11:37:09Z</time>
      </trkpt>
      <trkpt lat="43.4948" lon="0.08846">
        <ele>256.81</ele>
        <time>2021-08-19T11:37:10Z</time>
      </trkpt>
      <trkpt lat="43.49485" lon="0.08848">
        <ele>256.81</ele>
        <time>2021-08-19T11:37:11Z</time>
      </trkpt>
      <trkpt lat="43.49489" lon="0.0885">
        <ele>256.33</ele>
        <time>2021-08-19T11:37:12Z</time>
      </trkpt>
      <trkpt lat="43.49494" lon="0.08851">
        <ele>256.33</ele>
        <time>2021-08-19T11:37:13Z</time>
      </trkpt>
      <trkpt lat="43.49499" lon="0.0885">
        <ele>256.33</ele>
        <time>2021-08-19T11:37:14Z</time>
      </trkpt>
      <trkpt lat="43.49504" lon="0.08849">
        <ele>256.33</ele>
        <time>2021-08-19T11:37:15Z</time>
      </trkpt>
      <trkpt lat="43.49538" lon="0.08834">
        <ele>255.37</ele>
        <time>2021-08-19T11:37:22Z</time>
      </trkpt>
      <trkpt lat="43.49587" lon="0.08809">
        <ele>254.89</ele>
        <time>2021-08-19T11:37:31Z</time>
      </trkpt>
      <trkpt lat="43.49626" lon="0.08776">
        <ele>254.89</ele>
        <time>2021-08-19T11:37:39Z</time>
      </trkpt>
      <trkpt lat="43.49641" lon="0.08756">
        <ele>256.33</ele>
        <time>2021-08-19T11:37:43Z</time>
      </trkpt>
      <trkpt lat="43.49651" lon="0.08741">
        <ele>256.81</ele>
        <time>2021-08-19T11:37:46Z</time>
      </trkpt>
      <trkpt lat="43.49654" lon="0.08736">
        <ele>256.81</ele>
        <time>2021-08-19T11:37:47Z</time>
      </trkpt>
      <trkpt lat="43.49669" lon="0.08713">
        <ele>258.25</ele>
        <time>2021-08-19T11:37:52Z</time>
      </trkpt>
      <trkpt lat="43.49692" lon="0.08674">
        <ele>259.21</ele>
        <time>2021-08-19T11:38:00Z</time>
      </trkpt>
      <trkpt lat="43.49706" lon="0.08648">
        <ele>257.77</ele>
        <time>2021-08-19T11:38:04Z</time>
      </trkpt>
      <trkpt lat="43.4973" lon="0.08598">
        <ele>254.89</ele>
        <time>2021-08-19T11:38:10Z</time>
      </trkpt>
      <trkpt lat="43.49757" lon="0.08533">
        <ele>251.52</ele>
        <time>2021-08-19T11:38:17Z</time>
      </trkpt>
      <trkpt lat="43.49763" lon="0.08525">
        <ele>251.04</ele>
        <time>2021-08-19T11:38:18Z</time>
      </trkpt>
      <trkpt lat="43.49791" lon="0.0849">
        <ele>248.16</ele>
        <time>2021-08-19T11:38:22Z</time>
      </trkpt>
      <trkpt lat="43.49807" lon="0.08476">
        <ele>247.2</ele>
        <time>2021-08-19T11:38:24Z</time>
      </trkpt>
      <trkpt lat="43.49856" lon="0.08438">
        <ele>247.68</ele>
        <time>2021-08-19T11:38:31Z</time>
      </trkpt>
      <trkpt lat="43.49868" lon="0.0843">
        <ele>248.64</ele>
        <time>2021-08-19T11:38:33Z</time>
      </trkpt>
      <trkpt lat="43.49891" lon="0.0842">
        <ele>249.6</ele>
        <time>2021-08-19T11:38:37Z</time>
      </trkpt>
      <trkpt lat="43.49896" lon="0.08417">
        <ele>250.08</ele>
        <time>2021-08-19T11:38:38Z</time>
      </trkpt>
      <trkpt lat="43.499" lon="0.08412">
        <ele>250.08</ele>
        <time>2021-08-19T11:38:39Z</time>
      </trkpt>
      <trkpt lat="43.49904" lon="0.08409">
        <ele>250.56</ele>
        <time>2021-08-19T11:38:40Z</time>
      </trkpt>
      <trkpt lat="43.49907" lon="0.08404">
        <ele>250.56</ele>
        <time>2021-08-19T11:38:41Z</time>
      </trkpt>
      <trkpt lat="43.49912" lon="0.08393">
        <ele>250.56</ele>
        <time>2021-08-19T11:38:43Z</time>
      </trkpt>
      <trkpt lat="43.49914" lon="0.08387">
        <ele>250.56</ele>
        <time>2021-08-19T11:38:44Z</time>
      </trkpt>
      <trkpt lat="43.49914" lon="0.08381">
        <ele>250.56</ele>
        <time>2021-08-19T11:38:45Z</time>
      </trkpt>
      <trkpt lat="43.49916" lon="0.08331">
        <ele>249.12</ele>
        <time>2021-08-19T11:38:52Z</time>
      </trkpt>
      <trkpt lat="43.49917" lon="0.08286">
        <ele>245.75</ele>
        <time>2021-08-19T11:38:57Z</time>
      </trkpt>
      <trkpt lat="43.49917" lon="0.08276">
        <ele>245.27</ele>
        <time>2021-08-19T11:38:58Z</time>
      </trkpt>
      <trkpt lat="43.49918" lon="0.08267">
        <ele>244.31</ele>
        <time>2021-08-19T11:38:59Z</time>
      </trkpt>
      <trkpt lat="43.4992" lon="0.08257">
        <ele>243.35</ele>
        <time>2021-08-19T11:39:00Z</time>
      </trkpt>
      <trkpt lat="43.49923" lon="0.08247">
        <ele>242.39</ele>
        <time>2021-08-19T11:39:01Z</time>
      </trkpt>
      <trkpt lat="43.49925" lon="0.08236">
        <ele>240.95</ele>
        <time>2021-08-19T11:39:02Z</time>
      </trkpt>
      <trkpt lat="43.49928" lon="0.08225">
        <ele>239.51</ele>
        <time>2021-08-19T11:39:03Z</time>
      </trkpt>
      <trkpt lat="43.49936" lon="0.08188">
        <ele>235.66</ele>
        <time>2021-08-19T11:39:06Z</time>
      </trkpt>
      <trkpt lat="43.49941" lon="0.08136">
        <ele>232.78</ele>
        <time>2021-08-19T11:39:11Z</time>
      </trkpt>
      <trkpt lat="43.49943" lon="0.08128">
        <ele>232.78</ele>
        <time>2021-08-19T11:39:12Z</time>
      </trkpt>
      <trkpt lat="43.49947" lon="0.08119">
        <ele>231.33</ele>
        <time>2021-08-19T11:39:13Z</time>
      </trkpt>
      <trkpt lat="43.49951" lon="0.08111">
        <ele>230.85</ele>
        <time>2021-08-19T11:39:14Z</time>
      </trkpt>
      <trkpt lat="43.49956" lon="0.08103">
        <ele>229.89</ele>
        <time>2021-08-19T11:39:15Z</time>
      </trkpt>
      <trkpt lat="43.49962" lon="0.08095">
        <ele>229.89</ele>
        <time>2021-08-19T11:39:16Z</time>
      </trkpt>
      <trkpt lat="43.49981" lon="0.08074">
        <ele>226.53</ele>
        <time>2021-08-19T11:39:19Z</time>
      </trkpt>
      <trkpt lat="43.50003" lon="0.08053">
        <ele>225.09</ele>
        <time>2021-08-19T11:39:22Z</time>
      </trkpt>
      <trkpt lat="43.50023" lon="0.08028">
        <ele>221.72</ele>
        <time>2021-08-19T11:39:25Z</time>
      </trkpt>
      <trkpt lat="43.50045" lon="0.07992">
        <ele>218.84</ele>
        <time>2021-08-19T11:39:29Z</time>
      </trkpt>
      <trkpt lat="43.50054" lon="0.07977">
        <ele>216.91</ele>
        <time>2021-08-19T11:39:31Z</time>
      </trkpt>
      <trkpt lat="43.50069" lon="0.07952">
        <ele>213.55</ele>
        <time>2021-08-19T11:39:35Z</time>
      </trkpt>
      <trkpt lat="43.50072" lon="0.07945">
        <ele>212.59</ele>
        <time>2021-08-19T11:39:36Z</time>
      </trkpt>
      <trkpt lat="43.50075" lon="0.07938">
        <ele>211.63</ele>
        <time>2021-08-19T11:39:37Z</time>
      </trkpt>
      <trkpt lat="43.50077" lon="0.07931">
        <ele>210.67</ele>
        <time>2021-08-19T11:39:38Z</time>
      </trkpt>
      <trkpt lat="43.50079" lon="0.07923">
        <ele>209.7</ele>
        <time>2021-08-19T11:39:39Z</time>
      </trkpt>
      <trkpt lat="43.50081" lon="0.07913">
        <ele>208.74</ele>
        <time>2021-08-19T11:39:40Z</time>
      </trkpt>
      <trkpt lat="43.50086" lon="0.07883">
        <ele>205.38</ele>
        <time>2021-08-19T11:39:43Z</time>
      </trkpt>
      <trkpt lat="43.50093" lon="0.07841">
        <ele>201.05</ele>
        <time>2021-08-19T11:39:47Z</time>
      </trkpt>
      <trkpt lat="43.50098" lon="0.07815">
        <ele>198.65</ele>
        <time>2021-08-19T11:39:50Z</time>
      </trkpt>
      <trkpt lat="43.501" lon="0.07808">
        <ele>197.69</ele>
        <time>2021-08-19T11:39:51Z</time>
      </trkpt>
      <trkpt lat="43.50104" lon="0.078">
        <ele>196.73</ele>
        <time>2021-08-19T11:39:52Z</time>
      </trkpt>
      <trkpt lat="43.50109" lon="0.07794">
        <ele>195.77</ele>
        <time>2021-08-19T11:39:53Z</time>
      </trkpt>
      <trkpt lat="43.50113" lon="0.0779">
        <ele>195.28</ele>
        <time>2021-08-19T11:39:54Z</time>
      </trkpt>
      <trkpt lat="43.50118" lon="0.07786">
        <ele>194.8</ele>
        <time>2021-08-19T11:39:55Z</time>
      </trkpt>
      <trkpt lat="43.50124" lon="0.07782">
        <ele>193.84</ele>
        <time>2021-08-19T11:39:56Z</time>
      </trkpt>
      <trkpt lat="43.50129" lon="0.0778">
        <ele>193.84</ele>
        <time>2021-08-19T11:39:57Z</time>
      </trkpt>
      <trkpt lat="43.50134" lon="0.07776">
        <ele>193.36</ele>
        <time>2021-08-19T11:39:58Z</time>
      </trkpt>
      <trkpt lat="43.50138" lon="0.07772">
        <ele>192.88</ele>
        <time>2021-08-19T11:39:59Z</time>
      </trkpt>
      <trkpt lat="43.50141" lon="0.07765">
        <ele>191.92</ele>
        <time>2021-08-19T11:40:00Z</time>
      </trkpt>
      <trkpt lat="43.50142" lon="0.07759">
        <ele>191.44</ele>
        <time>2021-08-19T11:40:01Z</time>
      </trkpt>
      <trkpt lat="43.50141" lon="0.07752">
        <ele>190.96</ele>
        <time>2021-08-19T11:40:02Z</time>
      </trkpt>
      <trkpt lat="43.5014" lon="0.07745">
        <ele>190</ele>
        <time>2021-08-19T11:40:03Z</time>
      </trkpt>
      <trkpt lat="43.50138" lon="0.07737">
        <ele>189.52</ele>
        <time>2021-08-19T11:40:04Z</time>
      </trkpt>
      <trkpt lat="43.50129" lon="0.07701">
        <ele>185.67</ele>
        <time>2021-08-19T11:40:08Z</time>
      </trkpt>
      <trkpt lat="43.50127" lon="0.0769">
        <ele>185.19</ele>
        <time>2021-08-19T11:40:09Z</time>
      </trkpt>
      <trkpt lat="43.50126" lon="0.0768">
        <ele>184.71</ele>
        <time>2021-08-19T11:40:10Z</time>
      </trkpt>
      <trkpt lat="43.50124" lon="0.07657">
        <ele>184.23</ele>
        <time>2021-08-19T11:40:12Z</time>
      </trkpt>
      <trkpt lat="43.50121" lon="0.07639">
        <ele>184.23</ele>
        <time>2021-08-19T11:40:14Z</time>
      </trkpt>
      <trkpt lat="43.50118" lon="0.07632">
        <ele>183.75</ele>
        <time>2021-08-19T11:40:15Z</time>
      </trkpt>
      <trkpt lat="43.50114" lon="0.07628">
        <ele>183.27</ele>
        <time>2021-08-19T11:40:16Z</time>
      </trkpt>
      <trkpt lat="43.50108" lon="0.07627">
        <ele>182.79</ele>
        <time>2021-08-19T11:40:17Z</time>
      </trkpt>
      <trkpt lat="43.50102" lon="0.07628">
        <ele>182.79</ele>
        <time>2021-08-19T11:40:18Z</time>
      </trkpt>
      <trkpt lat="43.50097" lon="0.07627">
        <ele>182.79</ele>
        <time>2021-08-19T11:40:19Z</time>
      </trkpt>
      <trkpt lat="43.50092" lon="0.07626">
        <ele>182.31</ele>
        <time>2021-08-19T11:40:20Z</time>
      </trkpt>
      <trkpt lat="43.50087" lon="0.07622">
        <ele>181.83</ele>
        <time>2021-08-19T11:40:21Z</time>
      </trkpt>
      <trkpt lat="43.50083" lon="0.07618">
        <ele>181.83</ele>
        <time>2021-08-19T11:40:22Z</time>
      </trkpt>
      <trkpt lat="43.5008" lon="0.07612">
        <ele>181.83</ele>
        <time>2021-08-19T11:40:23Z</time>
      </trkpt>
      <trkpt lat="43.50078" lon="0.07606">
        <ele>181.35</ele>
        <time>2021-08-19T11:40:24Z</time>
      </trkpt>
      <trkpt lat="43.50076" lon="0.07599">
        <ele>181.35</ele>
        <time>2021-08-19T11:40:25Z</time>
      </trkpt>
      <trkpt lat="43.50075" lon="0.07592">
        <ele>181.35</ele>
        <time>2021-08-19T11:40:26Z</time>
      </trkpt>
      <trkpt lat="43.50074" lon="0.07585">
        <ele>181.35</ele>
        <time>2021-08-19T11:40:27Z</time>
      </trkpt>
      <trkpt lat="43.50073" lon="0.07578">
        <ele>180.38</ele>
        <time>2021-08-19T11:40:28Z</time>
      </trkpt>
      <trkpt lat="43.50072" lon="0.07571">
        <ele>180.38</ele>
        <time>2021-08-19T11:40:29Z</time>
      </trkpt>
      <trkpt lat="43.5007" lon="0.07565">
        <ele>180.38</ele>
        <time>2021-08-19T11:40:30Z</time>
      </trkpt>
      <trkpt lat="43.50067" lon="0.07558">
        <ele>179.9</ele>
        <time>2021-08-19T11:40:31Z</time>
      </trkpt>
      <trkpt lat="43.50064" lon="0.07551">
        <ele>179.9</ele>
        <time>2021-08-19T11:40:32Z</time>
      </trkpt>
      <trkpt lat="43.50059" lon="0.07539">
        <ele>179.9</ele>
        <time>2021-08-19T11:40:34Z</time>
      </trkpt>
      <trkpt lat="43.50057" lon="0.07534">
        <ele>179.9</ele>
        <time>2021-08-19T11:40:35Z</time>
      </trkpt>
      <trkpt lat="43.50056" lon="0.07529">
        <ele>179.9</ele>
        <time>2021-08-19T11:40:36Z</time>
      </trkpt>
      <trkpt lat="43.50057" lon="0.07524">
        <ele>179.9</ele>
        <time>2021-08-19T11:40:37Z</time>
      </trkpt>
      <trkpt lat="43.50059" lon="0.07519">
        <ele>179.9</ele>
        <time>2021-08-19T11:40:38Z</time>
      </trkpt>
      <trkpt lat="43.50061" lon="0.07515">
        <ele>179.42</ele>
        <time>2021-08-19T11:40:39Z</time>
      </trkpt>
      <trkpt lat="43.50064" lon="0.0751">
        <ele>179.42</ele>
        <time>2021-08-19T11:40:40Z</time>
      </trkpt>
      <trkpt lat="43.50071" lon="0.07495">
        <ele>179.42</ele>
        <time>2021-08-19T11:40:43Z</time>
      </trkpt>
      <trkpt lat="43.50074" lon="0.0749">
        <ele>179.42</ele>
        <time>2021-08-19T11:40:44Z</time>
      </trkpt>
      <trkpt lat="43.5008" lon="0.0748">
        <ele>179.42</ele>
        <time>2021-08-19T11:40:46Z</time>
      </trkpt>
      <trkpt lat="43.50089" lon="0.07465">
        <ele>179.42</ele>
        <time>2021-08-19T11:40:51Z</time>
      </trkpt>
      <trkpt lat="43.50088" lon="0.07461">
        <ele>179.42</ele>
        <time>2021-08-19T11:40:52Z</time>
      </trkpt>
      <trkpt lat="43.50084" lon="0.07454">
        <ele>179.42</ele>
        <time>2021-08-19T11:40:54Z</time>
      </trkpt>
      <trkpt lat="43.50081" lon="0.0745">
        <ele>179.42</ele>
        <time>2021-08-19T11:40:55Z</time>
      </trkpt>
      <trkpt lat="43.50061" lon="0.07428">
        <ele>178.46</ele>
        <time>2021-08-19T11:41:00Z</time>
      </trkpt>
      <trkpt lat="43.5006" lon="0.07421">
        <ele>177.98</ele>
        <time>2021-08-19T11:41:01Z</time>
      </trkpt>
      <trkpt lat="43.50063" lon="0.07415">
        <ele>177.5</ele>
        <time>2021-08-19T11:41:02Z</time>
      </trkpt>
      <trkpt lat="43.50066" lon="0.07411">
        <ele>177.5</ele>
        <time>2021-08-19T11:41:03Z</time>
      </trkpt>
      <trkpt lat="43.50071" lon="0.07407">
        <ele>177.5</ele>
        <time>2021-08-19T11:41:04Z</time>
      </trkpt>
      <trkpt lat="43.50094" lon="0.07386">
        <ele>176.54</ele>
        <time>2021-08-19T11:41:09Z</time>
      </trkpt>
      <trkpt lat="43.50142" lon="0.07337">
        <ele>176.06</ele>
        <time>2021-08-19T11:41:19Z</time>
      </trkpt>
      <trkpt lat="43.50197" lon="0.07281">
        <ele>175.58</ele>
        <time>2021-08-19T11:41:30Z</time>
      </trkpt>
      <trkpt lat="43.50225" lon="0.07253">
        <ele>175.58</ele>
        <time>2021-08-19T11:41:36Z</time>
      </trkpt>
      <trkpt lat="43.50228" lon="0.07247">
        <ele>175.58</ele>
        <time>2021-08-19T11:41:37Z</time>
      </trkpt>
      <trkpt lat="43.50228" lon="0.0724">
        <ele>175.58</ele>
        <time>2021-08-19T11:41:38Z</time>
      </trkpt>
      <trkpt lat="43.50227" lon="0.07233">
        <ele>175.1</ele>
        <time>2021-08-19T11:41:39Z</time>
      </trkpt>
      <trkpt lat="43.50225" lon="0.07224">
        <ele>175.1</ele>
        <time>2021-08-19T11:41:40Z</time>
      </trkpt>
      <trkpt lat="43.50223" lon="0.07216">
        <ele>174.62</ele>
        <time>2021-08-19T11:41:41Z</time>
      </trkpt>
      <trkpt lat="43.50199" lon="0.07136">
        <ele>173.66</ele>
        <time>2021-08-19T11:41:50Z</time>
      </trkpt>
      <trkpt lat="43.5018" lon="0.07073">
        <ele>172.69</ele>
        <time>2021-08-19T11:41:57Z</time>
      </trkpt>
      <trkpt lat="43.50146" lon="0.06962">
        <ele>172.21</ele>
        <time>2021-08-19T11:42:09Z</time>
      </trkpt>
      <trkpt lat="43.50136" lon="0.06926">
        <ele>172.21</ele>
        <time>2021-08-19T11:42:13Z</time>
      </trkpt>
      <trkpt lat="43.50135" lon="0.06917">
        <ele>172.21</ele>
        <time>2021-08-19T11:42:14Z</time>
      </trkpt>
      <trkpt lat="43.50132" lon="0.06851">
        <ele>171.73</ele>
        <time>2021-08-19T11:42:21Z</time>
      </trkpt>
      <trkpt lat="43.5013" lon="0.06833">
        <ele>171.73</ele>
        <time>2021-08-19T11:42:23Z</time>
      </trkpt>
      <trkpt lat="43.50128" lon="0.06823">
        <ele>171.73</ele>
        <time>2021-08-19T11:42:24Z</time>
      </trkpt>
      <trkpt lat="43.50107" lon="0.06774">
        <ele>171.25</ele>
        <time>2021-08-19T11:42:30Z</time>
      </trkpt>
      <trkpt lat="43.50103" lon="0.06767">
        <ele>171.25</ele>
        <time>2021-08-19T11:42:31Z</time>
      </trkpt>
      <trkpt lat="43.50099" lon="0.06761">
        <ele>171.25</ele>
        <time>2021-08-19T11:42:32Z</time>
      </trkpt>
      <trkpt lat="43.50095" lon="0.06755">
        <ele>171.25</ele>
        <time>2021-08-19T11:42:33Z</time>
      </trkpt>
      <trkpt lat="43.50089" lon="0.0675">
        <ele>171.25</ele>
        <time>2021-08-19T11:42:34Z</time>
      </trkpt>
      <trkpt lat="43.50083" lon="0.06746">
        <ele>171.25</ele>
        <time>2021-08-19T11:42:35Z</time>
      </trkpt>
      <trkpt lat="43.50077" lon="0.06741">
        <ele>171.25</ele>
        <time>2021-08-19T11:42:36Z</time>
      </trkpt>
      <trkpt lat="43.50065" lon="0.06731">
        <ele>171.25</ele>
        <time>2021-08-19T11:42:38Z</time>
      </trkpt>
      <trkpt lat="43.50061" lon="0.06726">
        <ele>171.25</ele>
        <time>2021-08-19T11:42:39Z</time>
      </trkpt>
      <trkpt lat="43.50056" lon="0.06718">
        <ele>171.25</ele>
        <time>2021-08-19T11:42:40Z</time>
      </trkpt>
      <trkpt lat="43.50052" lon="0.06712">
        <ele>171.25</ele>
        <time>2021-08-19T11:42:41Z</time>
      </trkpt>
      <trkpt lat="43.50048" lon="0.06705">
        <ele>171.25</ele>
        <time>2021-08-19T11:42:42Z</time>
      </trkpt>
      <trkpt lat="43.50009" lon="0.06631">
        <ele>171.25</ele>
        <time>2021-08-19T11:42:52Z</time>
      </trkpt>
      <trkpt lat="43.49977" lon="0.0657">
        <ele>171.25</ele>
        <time>2021-08-19T11:43:01Z</time>
      </trkpt>
      <trkpt lat="43.49974" lon="0.06561">
        <ele>171.25</ele>
        <time>2021-08-19T11:43:02Z</time>
      </trkpt>
      <trkpt lat="43.49957" lon="0.06495">
        <ele>171.25</ele>
        <time>2021-08-19T11:43:10Z</time>
      </trkpt>
      <trkpt lat="43.49941" lon="0.06406">
        <ele>171.25</ele>
        <time>2021-08-19T11:43:21Z</time>
      </trkpt>
      <trkpt lat="43.4993" lon="0.06315">
        <ele>171.25</ele>
        <time>2021-08-19T11:43:32Z</time>
      </trkpt>
      <trkpt lat="43.49914" lon="0.06247">
        <ele>171.25</ele>
        <time>2021-08-19T11:43:41Z</time>
      </trkpt>
      <trkpt lat="43.49912" lon="0.0624">
        <ele>171.25</ele>
        <time>2021-08-19T11:43:42Z</time>
      </trkpt>
      <trkpt lat="43.49887" lon="0.06174">
        <ele>171.25</ele>
        <time>2021-08-19T11:43:51Z</time>
      </trkpt>
      <trkpt lat="43.49853" lon="0.06102">
        <ele>171.25</ele>
        <time>2021-08-19T11:44:01Z</time>
      </trkpt>
      <trkpt lat="43.49822" lon="0.06033">
        <ele>170.29</ele>
        <time>2021-08-19T11:44:10Z</time>
      </trkpt>
      <trkpt lat="43.49804" lon="0.05994">
        <ele>170.29</ele>
        <time>2021-08-19T11:44:16Z</time>
      </trkpt>
      <trkpt lat="43.49798" lon="0.05983">
        <ele>170.29</ele>
        <time>2021-08-19T11:44:18Z</time>
      </trkpt>
      <trkpt lat="43.49797" lon="0.05977">
        <ele>170.29</ele>
        <time>2021-08-19T11:44:19Z</time>
      </trkpt>
      <trkpt lat="43.49797" lon="0.05971">
        <ele>170.29</ele>
        <time>2021-08-19T11:44:20Z</time>
      </trkpt>
      <trkpt lat="43.49798" lon="0.05965">
        <ele>170.29</ele>
        <time>2021-08-19T11:44:21Z</time>
      </trkpt>
      <trkpt lat="43.49801" lon="0.05959">
        <ele>170.29</ele>
        <time>2021-08-19T11:44:22Z</time>
      </trkpt>
      <trkpt lat="43.49803" lon="0.05954">
        <ele>170.29</ele>
        <time>2021-08-19T11:44:23Z</time>
      </trkpt>
      <trkpt lat="43.49833" lon="0.059">
        <ele>170.29</ele>
        <time>2021-08-19T11:44:32Z</time>
      </trkpt>
      <trkpt lat="43.49861" lon="0.05857">
        <ele>170.29</ele>
        <time>2021-08-19T11:44:39Z</time>
      </trkpt>
      <trkpt lat="43.49899" lon="0.05809">
        <ele>170.29</ele>
        <time>2021-08-19T11:44:48Z</time>
      </trkpt>
      <trkpt lat="43.49934" lon="0.05759">
        <ele>169.81</ele>
        <time>2021-08-19T11:44:56Z</time>
      </trkpt>
      <trkpt lat="43.4997" lon="0.05697">
        <ele>169.33</ele>
        <time>2021-08-19T11:45:05Z</time>
      </trkpt>
      <trkpt lat="43.49984" lon="0.0567">
        <ele>169.33</ele>
        <time>2021-08-19T11:45:09Z</time>
      </trkpt>
      <trkpt lat="43.49986" lon="0.05663">
        <ele>169.33</ele>
        <time>2021-08-19T11:45:10Z</time>
      </trkpt>
      <trkpt lat="43.49991" lon="0.0565">
        <ele>169.33</ele>
        <time>2021-08-19T11:45:12Z</time>
      </trkpt>
      <trkpt lat="43.49994" lon="0.05643">
        <ele>169.33</ele>
        <time>2021-08-19T11:45:13Z</time>
      </trkpt>
      <trkpt lat="43.49997" lon="0.05637">
        <ele>169.33</ele>
        <time>2021-08-19T11:45:14Z</time>
      </trkpt>
      <trkpt lat="43.5001" lon="0.05621">
        <ele>169.33</ele>
        <time>2021-08-19T11:45:17Z</time>
      </trkpt>
      <trkpt lat="43.50014" lon="0.05617">
        <ele>169.33</ele>
        <time>2021-08-19T11:45:18Z</time>
      </trkpt>
      <trkpt lat="43.50016" lon="0.05615">
        <ele>169.33</ele>
        <time>2021-08-19T11:45:19Z</time>
      </trkpt>
      <trkpt lat="43.50016" lon="0.05614">
        <ele>169.33</ele>
        <time>2021-08-19T11:45:20Z</time>
      </trkpt>
      <trkpt lat="43.50013" lon="0.05616">
        <ele>169.33</ele>
        <time>2021-08-19T11:45:23Z</time>
      </trkpt>
      <trkpt lat="43.50001" lon="0.05632">
        <ele>169.33</ele>
        <time>2021-08-19T11:45:29Z</time>
      </trkpt>
      <trkpt lat="43.49989" lon="0.05652">
        <ele>169.33</ele>
        <time>2021-08-19T11:45:34Z</time>
      </trkpt>
      <trkpt lat="43.49985" lon="0.05655">
        <ele>169.33</ele>
        <time>2021-08-19T11:45:35Z</time>
      </trkpt>
      <trkpt lat="43.49981" lon="0.05656">
        <ele>169.33</ele>
        <time>2021-08-19T11:45:36Z</time>
      </trkpt>
      <trkpt lat="43.49977" lon="0.05656">
        <ele>169.33</ele>
        <time>2021-08-19T11:45:37Z</time>
      </trkpt>
      <trkpt lat="43.49973" lon="0.05655">
        <ele>169.33</ele>
        <time>2021-08-19T11:45:38Z</time>
      </trkpt>
      <trkpt lat="43.49936" lon="0.05651">
        <ele>168.85</ele>
        <time>2021-08-19T11:45:46Z</time>
      </trkpt>
      <trkpt lat="43.49931" lon="0.0565">
        <ele>168.85</ele>
        <time>2021-08-19T11:45:47Z</time>
      </trkpt>
      <trkpt lat="43.49927" lon="0.0565">
        <ele>168.85</ele>
        <time>2021-08-19T11:45:48Z</time>
      </trkpt>
      <trkpt lat="43.49888" lon="0.05653">
        <ele>168.37</ele>
        <time>2021-08-19T11:45:56Z</time>
      </trkpt>
      <trkpt lat="43.49868" lon="0.05651">
        <ele>168.37</ele>
        <time>2021-08-19T11:46:00Z</time>
      </trkpt>
      <trkpt lat="43.49864" lon="0.05649">
        <ele>168.37</ele>
        <time>2021-08-19T11:46:01Z</time>
      </trkpt>
      <trkpt lat="43.49861" lon="0.05645">
        <ele>168.37</ele>
        <time>2021-08-19T11:46:02Z</time>
      </trkpt>
      <trkpt lat="43.49858" lon="0.05641">
        <ele>168.37</ele>
        <time>2021-08-19T11:46:03Z</time>
      </trkpt>
      <trkpt lat="43.49855" lon="0.05635">
        <ele>168.37</ele>
        <time>2021-08-19T11:46:04Z</time>
      </trkpt>
      <trkpt lat="43.49853" lon="0.05631">
        <ele>168.37</ele>
        <time>2021-08-19T11:46:05Z</time>
      </trkpt>
      <trkpt lat="43.4985" lon="0.05627">
        <ele>168.37</ele>
        <time>2021-08-19T11:46:06Z</time>
      </trkpt>
      <trkpt lat="43.49844" lon="0.05605">
        <ele>168.37</ele>
        <time>2021-08-19T11:46:12Z</time>
      </trkpt>
      <trkpt lat="43.49843" lon="0.05602">
        <ele>168.37</ele>
        <time>2021-08-19T11:46:13Z</time>
      </trkpt>
      <trkpt lat="43.49842" lon="0.05599">
        <ele>168.37</ele>
        <time>2021-08-19T11:46:14Z</time>
      </trkpt>
      <trkpt lat="43.49839" lon="0.05596">
        <ele>169.81</ele>
        <time>2021-08-19T11:46:20Z</time>
      </trkpt>
      <trkpt lat="43.49832" lon="0.05594">
        <ele>169.81</ele>
        <time>2021-08-19T11:46:30Z</time>
      </trkpt>
      <trkpt lat="43.4983" lon="0.05594">
        <ele>169.81</ele>
        <time>2021-08-19T11:46:32Z</time>
      </trkpt>
      <trkpt lat="43.49828" lon="0.05594">
        <ele>169.81</ele>
        <time>2021-08-19T11:46:39Z</time>
      </trkpt>
      <trkpt lat="43.49826" lon="0.0559">
        <ele>169.33</ele>
        <time>2021-08-19T11:47:02Z</time>
      </trkpt>
      <trkpt lat="43.49819" lon="0.05588">
        <ele>169.33</ele>
        <time>2021-08-19T11:47:08Z</time>
      </trkpt>
      <trkpt lat="43.49817" lon="0.05585">
        <ele>169.33</ele>
        <time>2021-08-19T11:47:15Z</time>
      </trkpt>
      <trkpt lat="43.49817" lon="0.05584">
        <ele>168.37</ele>
        <time>2021-08-19T11:47:23Z</time>
      </trkpt>
      <trkpt lat="43.49817" lon="0.05584">
        <ele>168.37</ele>
        <time>2021-08-19T11:47:37Z</time>
      </trkpt>
      <trkpt lat="43.49822" lon="0.05587">
        <ele>168.37</ele>
        <time>2021-08-19T11:47:59Z</time>
      </trkpt>
      <trkpt lat="43.49821" lon="0.05586">
        <ele>168.37</ele>
        <time>2021-08-19T11:48:23Z</time>
      </trkpt>
      <trkpt lat="43.49818" lon="0.05589">
        <ele>168.37</ele>
        <time>2021-08-19T11:48:51Z</time>
      </trkpt>
      <trkpt lat="43.49818" lon="0.0559">
        <ele>168.37</ele>
        <time>2021-08-19T11:49:12Z</time>
      </trkpt>
      <trkpt lat="43.49818" lon="0.05588">
        <ele>168.37</ele>
        <time>2021-08-19T11:49:39Z</time>
      </trkpt>
      <trkpt lat="43.49818" lon="0.05588">
        <ele>168.37</ele>
        <time>2021-08-19T11:50:07Z</time>
      </trkpt>
      <trkpt lat="43.49817" lon="0.05589">
        <ele>168.37</ele>
        <time>2021-08-19T11:50:31Z</time>
      </trkpt>
      <trkpt lat="43.49817" lon="0.05588">
        <ele>168.37</ele>
        <time>2021-08-19T11:50:52Z</time>
      </trkpt>
      <trkpt lat="43.49815" lon="0.05587">
        <ele>168.37</ele>
        <time>2021-08-19T11:51:12Z</time>
      </trkpt>
      <trkpt lat="43.49817" lon="0.05589">
        <ele>168.37</ele>
        <time>2021-08-19T11:51:29Z</time>
      </trkpt>
      <trkpt lat="43.49817" lon="0.0559">
        <ele>168.85</ele>
        <time>2021-08-19T11:51:44Z</time>
      </trkpt>
      <trkpt lat="43.4982" lon="0.0559">
        <ele>168.85</ele>
        <time>2021-08-19T11:52:00Z</time>
      </trkpt>
      <trkpt lat="43.49818" lon="0.0559">
        <ele>168.85</ele>
        <time>2021-08-19T11:52:22Z</time>
      </trkpt>
      <trkpt lat="43.49817" lon="0.05591">
        <ele>168.85</ele>
        <time>2021-08-19T11:52:41Z</time>
      </trkpt>
      <trkpt lat="43.49818" lon="0.05591">
        <ele>168.85</ele>
        <time>2021-08-19T11:53:05Z</time>
      </trkpt>
      <trkpt lat="43.49819" lon="0.05591">
        <ele>168.85</ele>
        <time>2021-08-19T11:53:22Z</time>
      </trkpt>
      <trkpt lat="43.49818" lon="0.0559">
        <ele>168.85</ele>
        <time>2021-08-19T11:53:47Z</time>
      </trkpt>
      <trkpt lat="43.49813" lon="0.05591">
        <ele>169.33</ele>
        <time>2021-08-19T11:54:06Z</time>
      </trkpt>
      <trkpt lat="43.49813" lon="0.05592">
        <ele>169.33</ele>
        <time>2021-08-19T11:54:21Z</time>
      </trkpt>
      <trkpt lat="43.49814" lon="0.05594">
        <ele>169.33</ele>
        <time>2021-08-19T11:54:38Z</time>
      </trkpt>
      <trkpt lat="43.49816" lon="0.05593">
        <ele>169.33</ele>
        <time>2021-08-19T11:54:57Z</time>
      </trkpt>
      <trkpt lat="43.49815" lon="0.05593">
        <ele>169.33</ele>
        <time>2021-08-19T11:55:23Z</time>
      </trkpt>
      <trkpt lat="43.49814" lon="0.05595">
        <ele>169.33</ele>
        <time>2021-08-19T11:55:36Z</time>
      </trkpt>
      <trkpt lat="43.49816" lon="0.05593">
        <ele>169.33</ele>
        <time>2021-08-19T11:55:55Z</time>
      </trkpt>
      <trkpt lat="43.49816" lon="0.05593">
        <ele>169.33</ele>
        <time>2021-08-19T11:56:19Z</time>
      </trkpt>
      <trkpt lat="43.49814" lon="0.05592">
        <ele>169.33</ele>
        <time>2021-08-19T11:56:39Z</time>
      </trkpt>
      <trkpt lat="43.49814" lon="0.05593">
        <ele>169.33</ele>
        <time>2021-08-19T11:56:47Z</time>
      </trkpt>
      <trkpt lat="43.49812" lon="0.05595">
        <ele>169.33</ele>
        <time>2021-08-19T11:56:55Z</time>
      </trkpt>
      <trkpt lat="43.49816" lon="0.05593">
        <ele>169.33</ele>
        <time>2021-08-19T11:57:15Z</time>
      </trkpt>
      <trkpt lat="43.49818" lon="0.05593">
        <ele>169.33</ele>
        <time>2021-08-19T11:57:28Z</time>
      </trkpt>
      <trkpt lat="43.49825" lon="0.05591">
        <ele>169.33</ele>
        <time>2021-08-19T11:57:48Z</time>
      </trkpt>
      <trkpt lat="43.49826" lon="0.0559">
        <ele>169.33</ele>
        <time>2021-08-19T11:58:09Z</time>
      </trkpt>
      <trkpt lat="43.49826" lon="0.05588">
        <ele>169.33</ele>
        <time>2021-08-19T11:58:32Z</time>
      </trkpt>
      <trkpt lat="43.49827" lon="0.05586">
        <ele>169.81</ele>
        <time>2021-08-19T11:58:54Z</time>
      </trkpt>
      <trkpt lat="43.49825" lon="0.05587">
        <ele>169.81</ele>
        <time>2021-08-19T11:59:11Z</time>
      </trkpt>
      <trkpt lat="43.49825" lon="0.05588">
        <ele>169.81</ele>
        <time>2021-08-19T11:59:31Z</time>
      </trkpt>
      <trkpt lat="43.49823" lon="0.05588">
        <ele>171.25</ele>
        <time>2021-08-19T12:00:00Z</time>
      </trkpt>
      <trkpt lat="43.49822" lon="0.05587">
        <ele>171.25</ele>
        <time>2021-08-19T12:00:22Z</time>
      </trkpt>
      <trkpt lat="43.49822" lon="0.05587">
        <ele>171.25</ele>
        <time>2021-08-19T12:00:35Z</time>
      </trkpt>
      <trkpt lat="43.49822" lon="0.05589">
        <ele>171.25</ele>
        <time>2021-08-19T12:00:53Z</time>
      </trkpt>
      <trkpt lat="43.49824" lon="0.05589">
        <ele>171.25</ele>
        <time>2021-08-19T12:01:07Z</time>
      </trkpt>
      <trkpt lat="43.49823" lon="0.0559">
        <ele>171.25</ele>
        <time>2021-08-19T12:01:29Z</time>
      </trkpt>
      <trkpt lat="43.49822" lon="0.05594">
        <ele>171.25</ele>
        <time>2021-08-19T12:01:42Z</time>
      </trkpt>
      <trkpt lat="43.49825" lon="0.05593">
        <ele>171.25</ele>
        <time>2021-08-19T12:01:47Z</time>
      </trkpt>
      <trkpt lat="43.49823" lon="0.05591">
        <ele>171.25</ele>
        <time>2021-08-19T12:01:52Z</time>
      </trkpt>
      <trkpt lat="43.49824" lon="0.0559">
        <ele>171.25</ele>
        <time>2021-08-19T12:02:17Z</time>
      </trkpt>
      <trkpt lat="43.49823" lon="0.05588">
        <ele>171.25</ele>
        <time>2021-08-19T12:02:39Z</time>
      </trkpt>
      <trkpt lat="43.49826" lon="0.05586">
        <ele>171.73</ele>
        <time>2021-08-19T12:02:56Z</time>
      </trkpt>
      <trkpt lat="43.49827" lon="0.05585">
        <ele>171.73</ele>
        <time>2021-08-19T12:03:13Z</time>
      </trkpt>
      <trkpt lat="43.49827" lon="0.05587">
        <ele>171.73</ele>
        <time>2021-08-19T12:03:33Z</time>
      </trkpt>
      <trkpt lat="43.49826" lon="0.05588">
        <ele>171.73</ele>
        <time>2021-08-19T12:03:52Z</time>
      </trkpt>
      <trkpt lat="43.49825" lon="0.05587">
        <ele>171.73</ele>
        <time>2021-08-19T12:04:06Z</time>
      </trkpt>
      <trkpt lat="43.49822" lon="0.05588">
        <ele>171.73</ele>
        <time>2021-08-19T12:04:22Z</time>
      </trkpt>
      <trkpt lat="43.49822" lon="0.05588">
        <ele>171.73</ele>
        <time>2021-08-19T12:04:38Z</time>
      </trkpt>
      <trkpt lat="43.49822" lon="0.0559">
        <ele>171.73</ele>
        <time>2021-08-19T12:04:55Z</time>
      </trkpt>
      <trkpt lat="43.49823" lon="0.05588">
        <ele>171.73</ele>
        <time>2021-08-19T12:05:17Z</time>
      </trkpt>
      <trkpt lat="43.49822" lon="0.05588">
        <ele>171.73</ele>
        <time>2021-08-19T12:05:38Z</time>
      </trkpt>
      <trkpt lat="43.4982" lon="0.0559">
        <ele>172.21</ele>
        <time>2021-08-19T12:05:53Z</time>
      </trkpt>
      <trkpt lat="43.49815" lon="0.05585">
        <ele>172.21</ele>
        <time>2021-08-19T12:06:01Z</time>
      </trkpt>
      <trkpt lat="43.49813" lon="0.05584">
        <ele>172.21</ele>
        <time>2021-08-19T12:06:04Z</time>
      </trkpt>
      <trkpt lat="43.49812" lon="0.05583">
        <ele>172.21</ele>
        <time>2021-08-19T12:06:05Z</time>
      </trkpt>
      <trkpt lat="43.49811" lon="0.05583">
        <ele>172.21</ele>
        <time>2021-08-19T12:06:06Z</time>
      </trkpt>
      <trkpt lat="43.49809" lon="0.05582">
        <ele>172.21</ele>
        <time>2021-08-19T12:06:07Z</time>
      </trkpt>
      <trkpt lat="43.49808" lon="0.05581">
        <ele>172.21</ele>
        <time>2021-08-19T12:06:08Z</time>
      </trkpt>
      <trkpt lat="43.49806" lon="0.05579">
        <ele>172.21</ele>
        <time>2021-08-19T12:06:09Z</time>
      </trkpt>
      <trkpt lat="43.49804" lon="0.05578">
        <ele>172.21</ele>
        <time>2021-08-19T12:06:10Z</time>
      </trkpt>
      <trkpt lat="43.49802" lon="0.05577">
        <ele>172.21</ele>
        <time>2021-08-19T12:06:11Z</time>
      </trkpt>
      <trkpt lat="43.49799" lon="0.05576">
        <ele>172.21</ele>
        <time>2021-08-19T12:06:12Z</time>
      </trkpt>
      <trkpt lat="43.49796" lon="0.05573">
        <ele>172.21</ele>
        <time>2021-08-19T12:06:13Z</time>
      </trkpt>
      <trkpt lat="43.49792" lon="0.05571">
        <ele>172.21</ele>
        <time>2021-08-19T12:06:14Z</time>
      </trkpt>
      <trkpt lat="43.4977" lon="0.05556">
        <ele>172.21</ele>
        <time>2021-08-19T12:06:21Z</time>
      </trkpt>
      <trkpt lat="43.49752" lon="0.05543">
        <ele>172.21</ele>
        <time>2021-08-19T12:06:27Z</time>
      </trkpt>
      <trkpt lat="43.49737" lon="0.05533">
        <ele>172.21</ele>
        <time>2021-08-19T12:06:33Z</time>
      </trkpt>
      <trkpt lat="43.49724" lon="0.05526">
        <ele>172.69</ele>
        <time>2021-08-19T12:06:39Z</time>
      </trkpt>
      <trkpt lat="43.49722" lon="0.05523">
        <ele>172.69</ele>
        <time>2021-08-19T12:06:40Z</time>
      </trkpt>
      <trkpt lat="43.49719" lon="0.05521">
        <ele>172.69</ele>
        <time>2021-08-19T12:06:41Z</time>
      </trkpt>
      <trkpt lat="43.49715" lon="0.05519">
        <ele>172.69</ele>
        <time>2021-08-19T12:06:42Z</time>
      </trkpt>
      <trkpt lat="43.49711" lon="0.05518">
        <ele>172.69</ele>
        <time>2021-08-19T12:06:43Z</time>
      </trkpt>
      <trkpt lat="43.497" lon="0.05513">
        <ele>172.69</ele>
        <time>2021-08-19T12:06:47Z</time>
      </trkpt>
      <trkpt lat="43.49696" lon="0.05513">
        <ele>172.69</ele>
        <time>2021-08-19T12:06:48Z</time>
      </trkpt>
      <trkpt lat="43.49692" lon="0.05512">
        <ele>172.69</ele>
        <time>2021-08-19T12:06:49Z</time>
      </trkpt>
      <trkpt lat="43.49668" lon="0.0551">
        <ele>172.69</ele>
        <time>2021-08-19T12:06:56Z</time>
      </trkpt>
      <trkpt lat="43.49641" lon="0.05508">
        <ele>172.69</ele>
        <time>2021-08-19T12:07:04Z</time>
      </trkpt>
      <trkpt lat="43.49613" lon="0.05505">
        <ele>172.69</ele>
        <time>2021-08-19T12:07:12Z</time>
      </trkpt>
      <trkpt lat="43.49588" lon="0.05502">
        <ele>172.21</ele>
        <time>2021-08-19T12:07:19Z</time>
      </trkpt>
      <trkpt lat="43.49571" lon="0.05499">
        <ele>172.21</ele>
        <time>2021-08-19T12:07:24Z</time>
      </trkpt>
      <trkpt lat="43.49549" lon="0.05498">
        <ele>172.21</ele>
        <time>2021-08-19T12:07:30Z</time>
      </trkpt>
      <trkpt lat="43.49522" lon="0.05494">
        <ele>172.21</ele>
        <time>2021-08-19T12:07:37Z</time>
      </trkpt>
      <trkpt lat="43.49507" lon="0.05489">
        <ele>172.21</ele>
        <time>2021-08-19T12:07:41Z</time>
      </trkpt>
      <trkpt lat="43.49474" lon="0.05474">
        <ele>172.21</ele>
        <time>2021-08-19T12:07:49Z</time>
      </trkpt>
      <trkpt lat="43.49448" lon="0.05467">
        <ele>172.21</ele>
        <time>2021-08-19T12:07:56Z</time>
      </trkpt>
      <trkpt lat="43.49432" lon="0.05461">
        <ele>172.21</ele>
        <time>2021-08-19T12:08:00Z</time>
      </trkpt>
      <trkpt lat="43.49424" lon="0.05458">
        <ele>172.21</ele>
        <time>2021-08-19T12:08:02Z</time>
      </trkpt>
      <trkpt lat="43.49403" lon="0.05448">
        <ele>172.21</ele>
        <time>2021-08-19T12:08:07Z</time>
      </trkpt>
      <trkpt lat="43.49366" lon="0.05426">
        <ele>172.21</ele>
        <time>2021-08-19T12:08:16Z</time>
      </trkpt>
      <trkpt lat="43.49342" lon="0.05414">
        <ele>172.21</ele>
        <time>2021-08-19T12:08:22Z</time>
      </trkpt>
      <trkpt lat="43.49322" lon="0.05406">
        <ele>172.21</ele>
        <time>2021-08-19T12:08:27Z</time>
      </trkpt>
      <trkpt lat="43.49318" lon="0.05405">
        <ele>172.21</ele>
        <time>2021-08-19T12:08:28Z</time>
      </trkpt>
      <trkpt lat="43.49314" lon="0.05404">
        <ele>172.21</ele>
        <time>2021-08-19T12:08:29Z</time>
      </trkpt>
      <trkpt lat="43.49289" lon="0.05406">
        <ele>172.21</ele>
        <time>2021-08-19T12:08:35Z</time>
      </trkpt>
      <trkpt lat="43.49252" lon="0.05417">
        <ele>172.21</ele>
        <time>2021-08-19T12:08:44Z</time>
      </trkpt>
      <trkpt lat="43.49248" lon="0.05418">
        <ele>172.21</ele>
        <time>2021-08-19T12:08:45Z</time>
      </trkpt>
      <trkpt lat="43.49217" lon="0.0542">
        <ele>172.69</ele>
        <time>2021-08-19T12:08:53Z</time>
      </trkpt>
      <trkpt lat="43.49185" lon="0.05421">
        <ele>172.69</ele>
        <time>2021-08-19T12:09:01Z</time>
      </trkpt>
      <trkpt lat="43.49153" lon="0.05411">
        <ele>173.17</ele>
        <time>2021-08-19T12:09:09Z</time>
      </trkpt>
      <trkpt lat="43.49138" lon="0.05384">
        <ele>173.17</ele>
        <time>2021-08-19T12:09:15Z</time>
      </trkpt>
      <trkpt lat="43.4913" lon="0.05362">
        <ele>173.17</ele>
        <time>2021-08-19T12:09:19Z</time>
      </trkpt>
      <trkpt lat="43.49129" lon="0.05357">
        <ele>173.17</ele>
        <time>2021-08-19T12:09:20Z</time>
      </trkpt>
      <trkpt lat="43.49125" lon="0.05302">
        <ele>173.17</ele>
        <time>2021-08-19T12:09:29Z</time>
      </trkpt>
      <trkpt lat="43.49125" lon="0.05295">
        <ele>173.17</ele>
        <time>2021-08-19T12:09:30Z</time>
      </trkpt>
      <trkpt lat="43.49125" lon="0.05289">
        <ele>173.17</ele>
        <time>2021-08-19T12:09:31Z</time>
      </trkpt>
      <trkpt lat="43.49124" lon="0.05283">
        <ele>173.17</ele>
        <time>2021-08-19T12:09:32Z</time>
      </trkpt>
      <trkpt lat="43.49122" lon="0.05277">
        <ele>173.17</ele>
        <time>2021-08-19T12:09:33Z</time>
      </trkpt>
      <trkpt lat="43.49121" lon="0.05271">
        <ele>173.17</ele>
        <time>2021-08-19T12:09:34Z</time>
      </trkpt>
      <trkpt lat="43.49118" lon="0.05265">
        <ele>173.17</ele>
        <time>2021-08-19T12:09:35Z</time>
      </trkpt>
      <trkpt lat="43.49116" lon="0.05261">
        <ele>173.17</ele>
        <time>2021-08-19T12:09:36Z</time>
      </trkpt>
      <trkpt lat="43.49113" lon="0.05256">
        <ele>173.17</ele>
        <time>2021-08-19T12:09:37Z</time>
      </trkpt>
      <trkpt lat="43.4911" lon="0.05252">
        <ele>173.17</ele>
        <time>2021-08-19T12:09:38Z</time>
      </trkpt>
      <trkpt lat="43.49106" lon="0.05247">
        <ele>173.17</ele>
        <time>2021-08-19T12:09:39Z</time>
      </trkpt>
      <trkpt lat="43.4907" lon="0.05203">
        <ele>173.17</ele>
        <time>2021-08-19T12:09:49Z</time>
      </trkpt>
      <trkpt lat="43.4903" lon="0.05154">
        <ele>172.69</ele>
        <time>2021-08-19T12:10:00Z</time>
      </trkpt>
      <trkpt lat="43.48989" lon="0.05104">
        <ele>173.17</ele>
        <time>2021-08-19T12:10:11Z</time>
      </trkpt>
      <trkpt lat="43.48952" lon="0.0506">
        <ele>173.17</ele>
        <time>2021-08-19T12:10:21Z</time>
      </trkpt>
      <trkpt lat="43.48919" lon="0.05037">
        <ele>173.17</ele>
        <time>2021-08-19T12:10:29Z</time>
      </trkpt>
      <trkpt lat="43.48886" lon="0.05029">
        <ele>173.66</ele>
        <time>2021-08-19T12:10:36Z</time>
      </trkpt>
      <trkpt lat="43.48843" lon="0.05018">
        <ele>173.66</ele>
        <time>2021-08-19T12:10:45Z</time>
      </trkpt>
      <trkpt lat="43.48788" lon="0.04995">
        <ele>174.14</ele>
        <time>2021-08-19T12:10:56Z</time>
      </trkpt>
      <trkpt lat="43.4876" lon="0.04981">
        <ele>174.14</ele>
        <time>2021-08-19T12:11:02Z</time>
      </trkpt>
      <trkpt lat="43.48722" lon="0.0496">
        <ele>174.14</ele>
        <time>2021-08-19T12:11:10Z</time>
      </trkpt>
      <trkpt lat="43.48669" lon="0.04934">
        <ele>174.62</ele>
        <time>2021-08-19T12:11:21Z</time>
      </trkpt>
      <trkpt lat="43.48615" lon="0.04906">
        <ele>174.62</ele>
        <time>2021-08-19T12:11:32Z</time>
      </trkpt>
      <trkpt lat="43.4861" lon="0.04903">
        <ele>174.62</ele>
        <time>2021-08-19T12:11:33Z</time>
      </trkpt>
      <trkpt lat="43.48591" lon="0.04891">
        <ele>174.62</ele>
        <time>2021-08-19T12:11:37Z</time>
      </trkpt>
      <trkpt lat="43.48563" lon="0.04872">
        <ele>174.62</ele>
        <time>2021-08-19T12:11:43Z</time>
      </trkpt>
      <trkpt lat="43.48554" lon="0.04865">
        <ele>174.62</ele>
        <time>2021-08-19T12:11:45Z</time>
      </trkpt>
      <trkpt lat="43.48549" lon="0.04862">
        <ele>174.62</ele>
        <time>2021-08-19T12:11:46Z</time>
      </trkpt>
      <trkpt lat="43.48545" lon="0.04859">
        <ele>174.62</ele>
        <time>2021-08-19T12:11:47Z</time>
      </trkpt>
      <trkpt lat="43.48506" lon="0.04831">
        <ele>174.62</ele>
        <time>2021-08-19T12:11:55Z</time>
      </trkpt>
      <trkpt lat="43.48479" lon="0.04821">
        <ele>174.62</ele>
        <time>2021-08-19T12:12:00Z</time>
      </trkpt>
      <trkpt lat="43.48425" lon="0.0481">
        <ele>174.62</ele>
        <time>2021-08-19T12:12:10Z</time>
      </trkpt>
      <trkpt lat="43.48393" lon="0.04803">
        <ele>174.62</ele>
        <time>2021-08-19T12:12:16Z</time>
      </trkpt>
      <trkpt lat="43.48348" lon="0.04783">
        <ele>174.62</ele>
        <time>2021-08-19T12:12:25Z</time>
      </trkpt>
      <trkpt lat="43.483" lon="0.04753">
        <ele>175.1</ele>
        <time>2021-08-19T12:12:35Z</time>
      </trkpt>
      <trkpt lat="43.48295" lon="0.04749">
        <ele>175.1</ele>
        <time>2021-08-19T12:12:36Z</time>
      </trkpt>
      <trkpt lat="43.48283" lon="0.04736">
        <ele>175.1</ele>
        <time>2021-08-19T12:12:39Z</time>
      </trkpt>
      <trkpt lat="43.4828" lon="0.0473">
        <ele>175.1</ele>
        <time>2021-08-19T12:12:40Z</time>
      </trkpt>
      <trkpt lat="43.48274" lon="0.04721">
        <ele>175.1</ele>
        <time>2021-08-19T12:12:42Z</time>
      </trkpt>
      <trkpt lat="43.4827" lon="0.04718">
        <ele>175.1</ele>
        <time>2021-08-19T12:12:43Z</time>
      </trkpt>
      <trkpt lat="43.48266" lon="0.04715">
        <ele>175.1</ele>
        <time>2021-08-19T12:12:44Z</time>
      </trkpt>
      <trkpt lat="43.48261" lon="0.04714">
        <ele>175.1</ele>
        <time>2021-08-19T12:12:45Z</time>
      </trkpt>
      <trkpt lat="43.48257" lon="0.04714">
        <ele>175.1</ele>
        <time>2021-08-19T12:12:46Z</time>
      </trkpt>
      <trkpt lat="43.48252" lon="0.04715">
        <ele>175.1</ele>
        <time>2021-08-19T12:12:47Z</time>
      </trkpt>
      <trkpt lat="43.48248" lon="0.04716">
        <ele>175.1</ele>
        <time>2021-08-19T12:12:48Z</time>
      </trkpt>
      <trkpt lat="43.48243" lon="0.04717">
        <ele>175.1</ele>
        <time>2021-08-19T12:12:49Z</time>
      </trkpt>
      <trkpt lat="43.48238" lon="0.0472">
        <ele>175.1</ele>
        <time>2021-08-19T12:12:50Z</time>
      </trkpt>
      <trkpt lat="43.48234" lon="0.04722">
        <ele>175.1</ele>
        <time>2021-08-19T12:12:51Z</time>
      </trkpt>
      <trkpt lat="43.48183" lon="0.04748">
        <ele>175.1</ele>
        <time>2021-08-19T12:13:01Z</time>
      </trkpt>
      <trkpt lat="43.48168" lon="0.04755">
        <ele>175.1</ele>
        <time>2021-08-19T12:13:04Z</time>
      </trkpt>
      <trkpt lat="43.48148" lon="0.04759">
        <ele>175.1</ele>
        <time>2021-08-19T12:13:08Z</time>
      </trkpt>
      <trkpt lat="43.48142" lon="0.04758">
        <ele>175.1</ele>
        <time>2021-08-19T12:13:09Z</time>
      </trkpt>
      <trkpt lat="43.48137" lon="0.04757">
        <ele>175.1</ele>
        <time>2021-08-19T12:13:10Z</time>
      </trkpt>
      <trkpt lat="43.48115" lon="0.04751">
        <ele>175.1</ele>
        <time>2021-08-19T12:13:14Z</time>
      </trkpt>
      <trkpt lat="43.4811" lon="0.04748">
        <ele>175.1</ele>
        <time>2021-08-19T12:13:15Z</time>
      </trkpt>
      <trkpt lat="43.48105" lon="0.04745">
        <ele>175.1</ele>
        <time>2021-08-19T12:13:16Z</time>
      </trkpt>
      <trkpt lat="43.48101" lon="0.0474">
        <ele>175.1</ele>
        <time>2021-08-19T12:13:17Z</time>
      </trkpt>
      <trkpt lat="43.48097" lon="0.04736">
        <ele>175.1</ele>
        <time>2021-08-19T12:13:18Z</time>
      </trkpt>
      <trkpt lat="43.48093" lon="0.0473">
        <ele>175.1</ele>
        <time>2021-08-19T12:13:19Z</time>
      </trkpt>
      <trkpt lat="43.48058" lon="0.04693">
        <ele>175.1</ele>
        <time>2021-08-19T12:13:27Z</time>
      </trkpt>
      <trkpt lat="43.48026" lon="0.04669">
        <ele>175.58</ele>
        <time>2021-08-19T12:13:34Z</time>
      </trkpt>
      <trkpt lat="43.48022" lon="0.04667">
        <ele>175.58</ele>
        <time>2021-08-19T12:13:35Z</time>
      </trkpt>
      <trkpt lat="43.48017" lon="0.04666">
        <ele>175.58</ele>
        <time>2021-08-19T12:13:36Z</time>
      </trkpt>
      <trkpt lat="43.48012" lon="0.04665">
        <ele>175.58</ele>
        <time>2021-08-19T12:13:37Z</time>
      </trkpt>
      <trkpt lat="43.48007" lon="0.04665">
        <ele>175.58</ele>
        <time>2021-08-19T12:13:38Z</time>
      </trkpt>
      <trkpt lat="43.47961" lon="0.04666">
        <ele>176.06</ele>
        <time>2021-08-19T12:13:47Z</time>
      </trkpt>
      <trkpt lat="43.47916" lon="0.04654">
        <ele>176.54</ele>
        <time>2021-08-19T12:13:56Z</time>
      </trkpt>
      <trkpt lat="43.47867" lon="0.04636">
        <ele>176.54</ele>
        <time>2021-08-19T12:14:06Z</time>
      </trkpt>
      <trkpt lat="43.47831" lon="0.04629">
        <ele>177.02</ele>
        <time>2021-08-19T12:14:13Z</time>
      </trkpt>
      <trkpt lat="43.47791" lon="0.04623">
        <ele>177.5</ele>
        <time>2021-08-19T12:14:21Z</time>
      </trkpt>
      <trkpt lat="43.47745" lon="0.04614">
        <ele>177.5</ele>
        <time>2021-08-19T12:14:30Z</time>
      </trkpt>
      <trkpt lat="43.47709" lon="0.04604">
        <ele>177.5</ele>
        <time>2021-08-19T12:14:37Z</time>
      </trkpt>
      <trkpt lat="43.4766" lon="0.046">
        <ele>177.5</ele>
        <time>2021-08-19T12:14:46Z</time>
      </trkpt>
      <trkpt lat="43.47622" lon="0.04596">
        <ele>177.5</ele>
        <time>2021-08-19T12:14:53Z</time>
      </trkpt>
      <trkpt lat="43.47606" lon="0.04589">
        <ele>177.5</ele>
        <time>2021-08-19T12:14:56Z</time>
      </trkpt>
      <trkpt lat="43.47601" lon="0.04585">
        <ele>177.5</ele>
        <time>2021-08-19T12:14:57Z</time>
      </trkpt>
      <trkpt lat="43.47596" lon="0.04581">
        <ele>177.5</ele>
        <time>2021-08-19T12:14:58Z</time>
      </trkpt>
      <trkpt lat="43.47541" lon="0.0453">
        <ele>177.5</ele>
        <time>2021-08-19T12:15:10Z</time>
      </trkpt>
      <trkpt lat="43.475" lon="0.04495">
        <ele>177.5</ele>
        <time>2021-08-19T12:15:19Z</time>
      </trkpt>
      <trkpt lat="43.47453" lon="0.04459">
        <ele>177.98</ele>
        <time>2021-08-19T12:15:29Z</time>
      </trkpt>
      <trkpt lat="43.47407" lon="0.0444">
        <ele>177.98</ele>
        <time>2021-08-19T12:15:38Z</time>
      </trkpt>
      <trkpt lat="43.47374" lon="0.04433">
        <ele>178.46</ele>
        <time>2021-08-19T12:15:45Z</time>
      </trkpt>
      <trkpt lat="43.47365" lon="0.0443">
        <ele>178.46</ele>
        <time>2021-08-19T12:15:47Z</time>
      </trkpt>
      <trkpt lat="43.47357" lon="0.04424">
        <ele>178.46</ele>
        <time>2021-08-19T12:15:49Z</time>
      </trkpt>
      <trkpt lat="43.47355" lon="0.04419">
        <ele>178.46</ele>
        <time>2021-08-19T12:15:50Z</time>
      </trkpt>
      <trkpt lat="43.47349" lon="0.04398">
        <ele>178.94</ele>
        <time>2021-08-19T12:15:54Z</time>
      </trkpt>
      <trkpt lat="43.47347" lon="0.04391">
        <ele>178.94</ele>
        <time>2021-08-19T12:15:55Z</time>
      </trkpt>
      <trkpt lat="43.4734" lon="0.04362">
        <ele>178.94</ele>
        <time>2021-08-19T12:16:00Z</time>
      </trkpt>
      <trkpt lat="43.47333" lon="0.04339">
        <ele>178.94</ele>
        <time>2021-08-19T12:16:04Z</time>
      </trkpt>
      <trkpt lat="43.4733" lon="0.04335">
        <ele>178.94</ele>
        <time>2021-08-19T12:16:05Z</time>
      </trkpt>
      <trkpt lat="43.47326" lon="0.04332">
        <ele>178.94</ele>
        <time>2021-08-19T12:16:06Z</time>
      </trkpt>
      <trkpt lat="43.47317" lon="0.04329">
        <ele>178.94</ele>
        <time>2021-08-19T12:16:08Z</time>
      </trkpt>
      <trkpt lat="43.47313" lon="0.04327">
        <ele>178.94</ele>
        <time>2021-08-19T12:16:09Z</time>
      </trkpt>
      <trkpt lat="43.47309" lon="0.04323">
        <ele>178.94</ele>
        <time>2021-08-19T12:16:10Z</time>
      </trkpt>
      <trkpt lat="43.47305" lon="0.04319">
        <ele>178.94</ele>
        <time>2021-08-19T12:16:11Z</time>
      </trkpt>
      <trkpt lat="43.47302" lon="0.04313">
        <ele>178.94</ele>
        <time>2021-08-19T12:16:12Z</time>
      </trkpt>
      <trkpt lat="43.473" lon="0.04308">
        <ele>178.94</ele>
        <time>2021-08-19T12:16:13Z</time>
      </trkpt>
      <trkpt lat="43.47297" lon="0.04301">
        <ele>178.94</ele>
        <time>2021-08-19T12:16:14Z</time>
      </trkpt>
      <trkpt lat="43.47296" lon="0.04295">
        <ele>178.94</ele>
        <time>2021-08-19T12:16:15Z</time>
      </trkpt>
      <trkpt lat="43.47294" lon="0.04288">
        <ele>178.94</ele>
        <time>2021-08-19T12:16:16Z</time>
      </trkpt>
      <trkpt lat="43.47293" lon="0.04282">
        <ele>178.94</ele>
        <time>2021-08-19T12:16:17Z</time>
      </trkpt>
      <trkpt lat="43.4729" lon="0.04261">
        <ele>178.94</ele>
        <time>2021-08-19T12:16:20Z</time>
      </trkpt>
      <trkpt lat="43.47288" lon="0.04255">
        <ele>178.94</ele>
        <time>2021-08-19T12:16:21Z</time>
      </trkpt>
      <trkpt lat="43.47283" lon="0.04243">
        <ele>178.94</ele>
        <time>2021-08-19T12:16:23Z</time>
      </trkpt>
      <trkpt lat="43.4728" lon="0.04237">
        <ele>178.94</ele>
        <time>2021-08-19T12:16:24Z</time>
      </trkpt>
      <trkpt lat="43.47277" lon="0.04232">
        <ele>178.94</ele>
        <time>2021-08-19T12:16:25Z</time>
      </trkpt>
      <trkpt lat="43.47273" lon="0.04227">
        <ele>178.94</ele>
        <time>2021-08-19T12:16:26Z</time>
      </trkpt>
      <trkpt lat="43.47269" lon="0.04223">
        <ele>178.94</ele>
        <time>2021-08-19T12:16:27Z</time>
      </trkpt>
      <trkpt lat="43.47264" lon="0.0422">
        <ele>178.94</ele>
        <time>2021-08-19T12:16:28Z</time>
      </trkpt>
      <trkpt lat="43.4726" lon="0.04216">
        <ele>178.94</ele>
        <time>2021-08-19T12:16:29Z</time>
      </trkpt>
      <trkpt lat="43.47255" lon="0.04214">
        <ele>178.94</ele>
        <time>2021-08-19T12:16:30Z</time>
      </trkpt>
      <trkpt lat="43.47229" lon="0.04204">
        <ele>178.94</ele>
        <time>2021-08-19T12:16:35Z</time>
      </trkpt>
      <trkpt lat="43.47224" lon="0.04203">
        <ele>178.94</ele>
        <time>2021-08-19T12:16:36Z</time>
      </trkpt>
      <trkpt lat="43.47219" lon="0.04201">
        <ele>178.94</ele>
        <time>2021-08-19T12:16:37Z</time>
      </trkpt>
      <trkpt lat="43.472" lon="0.04193">
        <ele>178.94</ele>
        <time>2021-08-19T12:16:41Z</time>
      </trkpt>
      <trkpt lat="43.47197" lon="0.04193">
        <ele>178.94</ele>
        <time>2021-08-19T12:16:42Z</time>
      </trkpt>
      <trkpt lat="43.47191" lon="0.04191">
        <ele>178.94</ele>
        <time>2021-08-19T12:16:43Z</time>
      </trkpt>
      <trkpt lat="43.47147" lon="0.04167">
        <ele>179.42</ele>
        <time>2021-08-19T12:16:52Z</time>
      </trkpt>
      <trkpt lat="43.47128" lon="0.04153">
        <ele>179.42</ele>
        <time>2021-08-19T12:16:56Z</time>
      </trkpt>
      <trkpt lat="43.47124" lon="0.04148">
        <ele>179.42</ele>
        <time>2021-08-19T12:16:57Z</time>
      </trkpt>
      <trkpt lat="43.4712" lon="0.04143">
        <ele>179.42</ele>
        <time>2021-08-19T12:16:58Z</time>
      </trkpt>
      <trkpt lat="43.47117" lon="0.04137">
        <ele>178.94</ele>
        <time>2021-08-19T12:16:59Z</time>
      </trkpt>
      <trkpt lat="43.47115" lon="0.04131">
        <ele>178.94</ele>
        <time>2021-08-19T12:17:00Z</time>
      </trkpt>
      <trkpt lat="43.47114" lon="0.04124">
        <ele>178.94</ele>
        <time>2021-08-19T12:17:01Z</time>
      </trkpt>
      <trkpt lat="43.47114" lon="0.04116">
        <ele>178.94</ele>
        <time>2021-08-19T12:17:02Z</time>
      </trkpt>
      <trkpt lat="43.47111" lon="0.04038">
        <ele>178.94</ele>
        <time>2021-08-19T12:17:12Z</time>
      </trkpt>
      <trkpt lat="43.47109" lon="0.03977">
        <ele>178.94</ele>
        <time>2021-08-19T12:17:20Z</time>
      </trkpt>
      <trkpt lat="43.47109" lon="0.03961">
        <ele>178.94</ele>
        <time>2021-08-19T12:17:22Z</time>
      </trkpt>
      <trkpt lat="43.47109" lon="0.03954">
        <ele>178.94</ele>
        <time>2021-08-19T12:17:23Z</time>
      </trkpt>
      <trkpt lat="43.47107" lon="0.03881">
        <ele>178.94</ele>
        <time>2021-08-19T12:17:32Z</time>
      </trkpt>
      <trkpt lat="43.47105" lon="0.03791">
        <ele>177.98</ele>
        <time>2021-08-19T12:17:43Z</time>
      </trkpt>
      <trkpt lat="43.47104" lon="0.03702">
        <ele>177.98</ele>
        <time>2021-08-19T12:17:54Z</time>
      </trkpt>
      <trkpt lat="43.47101" lon="0.03635">
        <ele>177.98</ele>
        <time>2021-08-19T12:18:03Z</time>
      </trkpt>
      <trkpt lat="43.47091" lon="0.03596">
        <ele>177.98</ele>
        <time>2021-08-19T12:18:09Z</time>
      </trkpt>
      <trkpt lat="43.47088" lon="0.03591">
        <ele>177.98</ele>
        <time>2021-08-19T12:18:10Z</time>
      </trkpt>
      <trkpt lat="43.47083" lon="0.03582">
        <ele>177.98</ele>
        <time>2021-08-19T12:18:12Z</time>
      </trkpt>
      <trkpt lat="43.4708" lon="0.03578">
        <ele>177.98</ele>
        <time>2021-08-19T12:18:13Z</time>
      </trkpt>
      <trkpt lat="43.47076" lon="0.03575">
        <ele>179.42</ele>
        <time>2021-08-19T12:18:14Z</time>
      </trkpt>
      <trkpt lat="43.47073" lon="0.03572">
        <ele>179.42</ele>
        <time>2021-08-19T12:18:15Z</time>
      </trkpt>
      <trkpt lat="43.47045" lon="0.03555">
        <ele>180.38</ele>
        <time>2021-08-19T12:18:23Z</time>
      </trkpt>
      <trkpt lat="43.47035" lon="0.0355">
        <ele>180.38</ele>
        <time>2021-08-19T12:18:26Z</time>
      </trkpt>
      <trkpt lat="43.47026" lon="0.03549">
        <ele>180.38</ele>
        <time>2021-08-19T12:18:28Z</time>
      </trkpt>
      <trkpt lat="43.47014" lon="0.03548">
        <ele>180.38</ele>
        <time>2021-08-19T12:18:31Z</time>
      </trkpt>
      <trkpt lat="43.47009" lon="0.03546">
        <ele>180.38</ele>
        <time>2021-08-19T12:18:32Z</time>
      </trkpt>
      <trkpt lat="43.47006" lon="0.03542">
        <ele>180.38</ele>
        <time>2021-08-19T12:18:33Z</time>
      </trkpt>
      <trkpt lat="43.47002" lon="0.03537">
        <ele>180.38</ele>
        <time>2021-08-19T12:18:34Z</time>
      </trkpt>
      <trkpt lat="43.47" lon="0.03532">
        <ele>180.38</ele>
        <time>2021-08-19T12:18:35Z</time>
      </trkpt>
      <trkpt lat="43.46999" lon="0.03527">
        <ele>179.9</ele>
        <time>2021-08-19T12:18:36Z</time>
      </trkpt>
      <trkpt lat="43.46996" lon="0.03516">
        <ele>179.9</ele>
        <time>2021-08-19T12:18:38Z</time>
      </trkpt>
      <trkpt lat="43.46995" lon="0.03511">
        <ele>179.9</ele>
        <time>2021-08-19T12:18:39Z</time>
      </trkpt>
      <trkpt lat="43.46993" lon="0.03505">
        <ele>179.9</ele>
        <time>2021-08-19T12:18:40Z</time>
      </trkpt>
      <trkpt lat="43.46991" lon="0.035">
        <ele>179.9</ele>
        <time>2021-08-19T12:18:41Z</time>
      </trkpt>
      <trkpt lat="43.46989" lon="0.03496">
        <ele>179.9</ele>
        <time>2021-08-19T12:18:42Z</time>
      </trkpt>
      <trkpt lat="43.46985" lon="0.03491">
        <ele>179.9</ele>
        <time>2021-08-19T12:18:43Z</time>
      </trkpt>
      <trkpt lat="43.46981" lon="0.03484">
        <ele>178.94</ele>
        <time>2021-08-19T12:18:44Z</time>
      </trkpt>
      <trkpt lat="43.46978" lon="0.0348">
        <ele>178.94</ele>
        <time>2021-08-19T12:18:45Z</time>
      </trkpt>
      <trkpt lat="43.46974" lon="0.03476">
        <ele>178.94</ele>
        <time>2021-08-19T12:18:46Z</time>
      </trkpt>
      <trkpt lat="43.4697" lon="0.03472">
        <ele>178.46</ele>
        <time>2021-08-19T12:18:47Z</time>
      </trkpt>
      <trkpt lat="43.46964" lon="0.03469">
        <ele>178.46</ele>
        <time>2021-08-19T12:18:48Z</time>
      </trkpt>
      <trkpt lat="43.46959" lon="0.03467">
        <ele>178.46</ele>
        <time>2021-08-19T12:18:49Z</time>
      </trkpt>
      <trkpt lat="43.46953" lon="0.03467">
        <ele>177.98</ele>
        <time>2021-08-19T12:18:50Z</time>
      </trkpt>
      <trkpt lat="43.46947" lon="0.03466">
        <ele>177.98</ele>
        <time>2021-08-19T12:18:51Z</time>
      </trkpt>
      <trkpt lat="43.46899" lon="0.03469">
        <ele>177.5</ele>
        <time>2021-08-19T12:18:59Z</time>
      </trkpt>
      <trkpt lat="43.46858" lon="0.03472">
        <ele>178.46</ele>
        <time>2021-08-19T12:19:07Z</time>
      </trkpt>
      <trkpt lat="43.46853" lon="0.03471">
        <ele>178.94</ele>
        <time>2021-08-19T12:19:08Z</time>
      </trkpt>
      <trkpt lat="43.46845" lon="0.03468">
        <ele>179.42</ele>
        <time>2021-08-19T12:19:10Z</time>
      </trkpt>
      <trkpt lat="43.46828" lon="0.03457">
        <ele>180.38</ele>
        <time>2021-08-19T12:19:15Z</time>
      </trkpt>
      <trkpt lat="43.46827" lon="0.03453">
        <ele>180.38</ele>
        <time>2021-08-19T12:19:16Z</time>
      </trkpt>
      <trkpt lat="43.46826" lon="0.03449">
        <ele>180.38</ele>
        <time>2021-08-19T12:19:17Z</time>
      </trkpt>
      <trkpt lat="43.46826" lon="0.03444">
        <ele>180.38</ele>
        <time>2021-08-19T12:19:18Z</time>
      </trkpt>
      <trkpt lat="43.46826" lon="0.03439">
        <ele>180.38</ele>
        <time>2021-08-19T12:19:19Z</time>
      </trkpt>
      <trkpt lat="43.46823" lon="0.03384">
        <ele>180.38</ele>
        <time>2021-08-19T12:19:28Z</time>
      </trkpt>
      <trkpt lat="43.46819" lon="0.03314">
        <ele>180.38</ele>
        <time>2021-08-19T12:19:38Z</time>
      </trkpt>
      <trkpt lat="43.46816" lon="0.0324">
        <ele>180.87</ele>
        <time>2021-08-19T12:19:48Z</time>
      </trkpt>
      <trkpt lat="43.46813" lon="0.03152">
        <ele>181.35</ele>
        <time>2021-08-19T12:20:00Z</time>
      </trkpt>
      <trkpt lat="43.46808" lon="0.03077">
        <ele>181.83</ele>
        <time>2021-08-19T12:20:10Z</time>
      </trkpt>
      <trkpt lat="43.46807" lon="0.03041">
        <ele>180.38</ele>
        <time>2021-08-19T12:20:14Z</time>
      </trkpt>
      <trkpt lat="43.46807" lon="0.03016">
        <ele>179.9</ele>
        <time>2021-08-19T12:20:17Z</time>
      </trkpt>
      <trkpt lat="43.46806" lon="0.03006">
        <ele>179.9</ele>
        <time>2021-08-19T12:20:18Z</time>
      </trkpt>
      <trkpt lat="43.46801" lon="0.02925">
        <ele>178.94</ele>
        <time>2021-08-19T12:20:27Z</time>
      </trkpt>
      <trkpt lat="43.46799" lon="0.0286">
        <ele>178.94</ele>
        <time>2021-08-19T12:20:35Z</time>
      </trkpt>
      <trkpt lat="43.46797" lon="0.02837">
        <ele>178.94</ele>
        <time>2021-08-19T12:20:38Z</time>
      </trkpt>
      <trkpt lat="43.46798" lon="0.02822">
        <ele>179.9</ele>
        <time>2021-08-19T12:20:40Z</time>
      </trkpt>
      <trkpt lat="43.46797" lon="0.02795">
        <ele>181.35</ele>
        <time>2021-08-19T12:20:44Z</time>
      </trkpt>
      <trkpt lat="43.46793" lon="0.02763">
        <ele>181.35</ele>
        <time>2021-08-19T12:20:49Z</time>
      </trkpt>
      <trkpt lat="43.46789" lon="0.02761">
        <ele>181.35</ele>
        <time>2021-08-19T12:20:50Z</time>
      </trkpt>
      <trkpt lat="43.46784" lon="0.02761">
        <ele>181.35</ele>
        <time>2021-08-19T12:20:51Z</time>
      </trkpt>
      <trkpt lat="43.46779" lon="0.02761">
        <ele>181.35</ele>
        <time>2021-08-19T12:20:52Z</time>
      </trkpt>
      <trkpt lat="43.46774" lon="0.02763">
        <ele>179.9</ele>
        <time>2021-08-19T12:20:53Z</time>
      </trkpt>
      <trkpt lat="43.46768" lon="0.02766">
        <ele>179.9</ele>
        <time>2021-08-19T12:20:54Z</time>
      </trkpt>
      <trkpt lat="43.46763" lon="0.02771">
        <ele>178.94</ele>
        <time>2021-08-19T12:20:55Z</time>
      </trkpt>
      <trkpt lat="43.46758" lon="0.02776">
        <ele>178.94</ele>
        <time>2021-08-19T12:20:56Z</time>
      </trkpt>
      <trkpt lat="43.46754" lon="0.02781">
        <ele>178.94</ele>
        <time>2021-08-19T12:20:57Z</time>
      </trkpt>
      <trkpt lat="43.4675" lon="0.02788">
        <ele>178.94</ele>
        <time>2021-08-19T12:20:58Z</time>
      </trkpt>
      <trkpt lat="43.46747" lon="0.02795">
        <ele>178.94</ele>
        <time>2021-08-19T12:20:59Z</time>
      </trkpt>
      <trkpt lat="43.46743" lon="0.02801">
        <ele>178.94</ele>
        <time>2021-08-19T12:21:00Z</time>
      </trkpt>
      <trkpt lat="43.46739" lon="0.02807">
        <ele>178.94</ele>
        <time>2021-08-19T12:21:01Z</time>
      </trkpt>
      <trkpt lat="43.46735" lon="0.02812">
        <ele>178.94</ele>
        <time>2021-08-19T12:21:02Z</time>
      </trkpt>
      <trkpt lat="43.4673" lon="0.02817">
        <ele>178.94</ele>
        <time>2021-08-19T12:21:03Z</time>
      </trkpt>
      <trkpt lat="43.4669" lon="0.02852">
        <ele>178.46</ele>
        <time>2021-08-19T12:21:11Z</time>
      </trkpt>
      <trkpt lat="43.46637" lon="0.02895">
        <ele>178.46</ele>
        <time>2021-08-19T12:21:22Z</time>
      </trkpt>
      <trkpt lat="43.46596" lon="0.02927">
        <ele>178.46</ele>
        <time>2021-08-19T12:21:31Z</time>
      </trkpt>
      <trkpt lat="43.46591" lon="0.02929">
        <ele>178.46</ele>
        <time>2021-08-19T12:21:32Z</time>
      </trkpt>
      <trkpt lat="43.46586" lon="0.02931">
        <ele>178.46</ele>
        <time>2021-08-19T12:21:33Z</time>
      </trkpt>
      <trkpt lat="43.46581" lon="0.02931">
        <ele>178.46</ele>
        <time>2021-08-19T12:21:34Z</time>
      </trkpt>
      <trkpt lat="43.46576" lon="0.0293">
        <ele>179.9</ele>
        <time>2021-08-19T12:21:35Z</time>
      </trkpt>
      <trkpt lat="43.46571" lon="0.02928">
        <ele>179.9</ele>
        <time>2021-08-19T12:21:36Z</time>
      </trkpt>
      <trkpt lat="43.46567" lon="0.02923">
        <ele>179.9</ele>
        <time>2021-08-19T12:21:37Z</time>
      </trkpt>
      <trkpt lat="43.46564" lon="0.02918">
        <ele>179.9</ele>
        <time>2021-08-19T12:21:38Z</time>
      </trkpt>
      <trkpt lat="43.46561" lon="0.02912">
        <ele>179.9</ele>
        <time>2021-08-19T12:21:39Z</time>
      </trkpt>
      <trkpt lat="43.46556" lon="0.02901">
        <ele>179.9</ele>
        <time>2021-08-19T12:21:41Z</time>
      </trkpt>
      <trkpt lat="43.46553" lon="0.02895">
        <ele>179.9</ele>
        <time>2021-08-19T12:21:42Z</time>
      </trkpt>
      <trkpt lat="43.46552" lon="0.02888">
        <ele>179.9</ele>
        <time>2021-08-19T12:21:43Z</time>
      </trkpt>
      <trkpt lat="43.46542" lon="0.02833">
        <ele>179.9</ele>
        <time>2021-08-19T12:21:51Z</time>
      </trkpt>
      <trkpt lat="43.46532" lon="0.02753">
        <ele>179.9</ele>
        <time>2021-08-19T12:22:02Z</time>
      </trkpt>
      <trkpt lat="43.46527" lon="0.02695">
        <ele>179.9</ele>
        <time>2021-08-19T12:22:10Z</time>
      </trkpt>
      <trkpt lat="43.46526" lon="0.02687">
        <ele>179.9</ele>
        <time>2021-08-19T12:22:11Z</time>
      </trkpt>
      <trkpt lat="43.46525" lon="0.02679">
        <ele>179.9</ele>
        <time>2021-08-19T12:22:12Z</time>
      </trkpt>
      <trkpt lat="43.46525" lon="0.02671">
        <ele>179.9</ele>
        <time>2021-08-19T12:22:13Z</time>
      </trkpt>
      <trkpt lat="43.46525" lon="0.02608">
        <ele>179.9</ele>
        <time>2021-08-19T12:22:21Z</time>
      </trkpt>
      <trkpt lat="43.46522" lon="0.02522">
        <ele>179.9</ele>
        <time>2021-08-19T12:22:32Z</time>
      </trkpt>
      <trkpt lat="43.46521" lon="0.02497">
        <ele>179.9</ele>
        <time>2021-08-19T12:22:35Z</time>
      </trkpt>
      <trkpt lat="43.46521" lon="0.02488">
        <ele>179.9</ele>
        <time>2021-08-19T12:22:36Z</time>
      </trkpt>
      <trkpt lat="43.4652" lon="0.02473">
        <ele>179.9</ele>
        <time>2021-08-19T12:22:38Z</time>
      </trkpt>
      <trkpt lat="43.46509" lon="0.02392">
        <ele>179.9</ele>
        <time>2021-08-19T12:22:48Z</time>
      </trkpt>
      <trkpt lat="43.46492" lon="0.02311">
        <ele>179.9</ele>
        <time>2021-08-19T12:22:58Z</time>
      </trkpt>
      <trkpt lat="43.46466" lon="0.02224">
        <ele>180.38</ele>
        <time>2021-08-19T12:23:09Z</time>
      </trkpt>
      <trkpt lat="43.46452" lon="0.02186">
        <ele>180.38</ele>
        <time>2021-08-19T12:23:14Z</time>
      </trkpt>
      <trkpt lat="43.4645" lon="0.02179">
        <ele>180.38</ele>
        <time>2021-08-19T12:23:15Z</time>
      </trkpt>
      <trkpt lat="43.46441" lon="0.02127">
        <ele>180.87</ele>
        <time>2021-08-19T12:23:22Z</time>
      </trkpt>
      <trkpt lat="43.46437" lon="0.021">
        <ele>181.35</ele>
        <time>2021-08-19T12:23:27Z</time>
      </trkpt>
      <trkpt lat="43.46431" lon="0.02054">
        <ele>181.35</ele>
        <time>2021-08-19T12:23:34Z</time>
      </trkpt>
      <trkpt lat="43.4643" lon="0.02048">
        <ele>181.35</ele>
        <time>2021-08-19T12:23:35Z</time>
      </trkpt>
      <trkpt lat="43.46414" lon="0.0199">
        <ele>181.35</ele>
        <time>2021-08-19T12:23:44Z</time>
      </trkpt>
      <trkpt lat="43.46395" lon="0.01923">
        <ele>181.35</ele>
        <time>2021-08-19T12:23:55Z</time>
      </trkpt>
      <trkpt lat="43.4638" lon="0.01871">
        <ele>181.35</ele>
        <time>2021-08-19T12:24:04Z</time>
      </trkpt>
      <trkpt lat="43.46379" lon="0.01864">
        <ele>181.35</ele>
        <time>2021-08-19T12:24:05Z</time>
      </trkpt>
      <trkpt lat="43.46374" lon="0.01838">
        <ele>181.35</ele>
        <time>2021-08-19T12:24:09Z</time>
      </trkpt>
      <trkpt lat="43.46367" lon="0.01799">
        <ele>181.35</ele>
        <time>2021-08-19T12:24:15Z</time>
      </trkpt>
      <trkpt lat="43.46365" lon="0.01793">
        <ele>181.35</ele>
        <time>2021-08-19T12:24:16Z</time>
      </trkpt>
      <trkpt lat="43.46364" lon="0.01786">
        <ele>181.35</ele>
        <time>2021-08-19T12:24:17Z</time>
      </trkpt>
      <trkpt lat="43.46361" lon="0.01767">
        <ele>181.35</ele>
        <time>2021-08-19T12:24:20Z</time>
      </trkpt>
      <trkpt lat="43.4636" lon="0.0176">
        <ele>180.87</ele>
        <time>2021-08-19T12:24:21Z</time>
      </trkpt>
      <trkpt lat="43.46358" lon="0.0174">
        <ele>180.87</ele>
        <time>2021-08-19T12:24:24Z</time>
      </trkpt>
      <trkpt lat="43.46352" lon="0.01701">
        <ele>180.87</ele>
        <time>2021-08-19T12:24:30Z</time>
      </trkpt>
      <trkpt lat="43.46341" lon="0.01634">
        <ele>180.87</ele>
        <time>2021-08-19T12:24:41Z</time>
      </trkpt>
      <trkpt lat="43.46334" lon="0.01604">
        <ele>180.87</ele>
        <time>2021-08-19T12:24:47Z</time>
      </trkpt>
      <trkpt lat="43.46328" lon="0.01586">
        <ele>180.87</ele>
        <time>2021-08-19T12:24:50Z</time>
      </trkpt>
      <trkpt lat="43.46325" lon="0.01581">
        <ele>180.87</ele>
        <time>2021-08-19T12:24:51Z</time>
      </trkpt>
      <trkpt lat="43.46324" lon="0.01577">
        <ele>180.87</ele>
        <time>2021-08-19T12:24:52Z</time>
      </trkpt>
      <trkpt lat="43.46324" lon="0.01575">
        <ele>181.35</ele>
        <time>2021-08-19T12:24:55Z</time>
      </trkpt>
      <trkpt lat="43.46325" lon="0.01574">
        <ele>181.35</ele>
        <time>2021-08-19T12:24:59Z</time>
      </trkpt>
      <trkpt lat="43.46325" lon="0.0157">
        <ele>181.35</ele>
        <time>2021-08-19T12:25:07Z</time>
      </trkpt>
      <trkpt lat="43.46324" lon="0.01562">
        <ele>181.35</ele>
        <time>2021-08-19T12:25:15Z</time>
      </trkpt>
      <trkpt lat="43.46324" lon="0.01561">
        <ele>181.35</ele>
        <time>2021-08-19T12:25:16Z</time>
      </trkpt>
      <trkpt lat="43.46323" lon="0.0156">
        <ele>181.35</ele>
        <time>2021-08-19T12:25:17Z</time>
      </trkpt>
      <trkpt lat="43.46323" lon="0.01556">
        <ele>181.35</ele>
        <time>2021-08-19T12:25:25Z</time>
      </trkpt>
      <trkpt lat="43.46321" lon="0.01556">
        <ele>181.35</ele>
        <time>2021-08-19T12:25:49Z</time>
      </trkpt>
      <trkpt lat="43.4632" lon="0.01556">
        <ele>181.35</ele>
        <time>2021-08-19T12:26:06Z</time>
      </trkpt>
      <trkpt lat="43.46319" lon="0.01556">
        <ele>181.35</ele>
        <time>2021-08-19T12:26:18Z</time>
      </trkpt>
      <trkpt lat="43.46321" lon="0.01556">
        <ele>181.35</ele>
        <time>2021-08-19T12:26:37Z</time>
      </trkpt>
      <trkpt lat="43.46321" lon="0.01557">
        <ele>181.35</ele>
        <time>2021-08-19T12:26:43Z</time>
      </trkpt>
      <trkpt lat="43.46322" lon="0.01558">
        <ele>181.35</ele>
        <time>2021-08-19T12:26:49Z</time>
      </trkpt>
      <trkpt lat="43.4632" lon="0.01557">
        <ele>181.35</ele>
        <time>2021-08-19T12:27:03Z</time>
      </trkpt>
      <trkpt lat="43.4632" lon="0.01555">
        <ele>181.35</ele>
        <time>2021-08-19T12:27:10Z</time>
      </trkpt>
      <trkpt lat="43.4632" lon="0.01553">
        <ele>181.35</ele>
        <time>2021-08-19T12:27:12Z</time>
      </trkpt>
      <trkpt lat="43.46319" lon="0.01551">
        <ele>181.35</ele>
        <time>2021-08-19T12:27:13Z</time>
      </trkpt>
      <trkpt lat="43.46318" lon="0.01532">
        <ele>181.35</ele>
        <time>2021-08-19T12:27:19Z</time>
      </trkpt>
      <trkpt lat="43.46315" lon="0.01496">
        <ele>181.35</ele>
        <time>2021-08-19T12:27:26Z</time>
      </trkpt>
      <trkpt lat="43.46308" lon="0.01462">
        <ele>181.35</ele>
        <time>2021-08-19T12:27:33Z</time>
      </trkpt>
      <trkpt lat="43.46298" lon="0.01416">
        <ele>181.35</ele>
        <time>2021-08-19T12:27:41Z</time>
      </trkpt>
      <trkpt lat="43.46296" lon="0.0141">
        <ele>181.35</ele>
        <time>2021-08-19T12:27:42Z</time>
      </trkpt>
      <trkpt lat="43.46291" lon="0.01372">
        <ele>179.9</ele>
        <time>2021-08-19T12:27:49Z</time>
      </trkpt>
      <trkpt lat="43.46288" lon="0.0133">
        <ele>179.9</ele>
        <time>2021-08-19T12:27:56Z</time>
      </trkpt>
      <trkpt lat="43.46287" lon="0.01324">
        <ele>179.9</ele>
        <time>2021-08-19T12:27:57Z</time>
      </trkpt>
      <trkpt lat="43.46283" lon="0.01307">
        <ele>179.9</ele>
        <time>2021-08-19T12:28:00Z</time>
      </trkpt>
      <trkpt lat="43.46272" lon="0.01279">
        <ele>179.9</ele>
        <time>2021-08-19T12:28:05Z</time>
      </trkpt>
      <trkpt lat="43.46248" lon="0.01231">
        <ele>181.35</ele>
        <time>2021-08-19T12:28:14Z</time>
      </trkpt>
      <trkpt lat="43.46243" lon="0.0122">
        <ele>181.35</ele>
        <time>2021-08-19T12:28:16Z</time>
      </trkpt>
      <trkpt lat="43.46241" lon="0.01214">
        <ele>181.35</ele>
        <time>2021-08-19T12:28:17Z</time>
      </trkpt>
      <trkpt lat="43.4624" lon="0.01208">
        <ele>181.35</ele>
        <time>2021-08-19T12:28:18Z</time>
      </trkpt>
      <trkpt lat="43.46239" lon="0.01202">
        <ele>181.35</ele>
        <time>2021-08-19T12:28:19Z</time>
      </trkpt>
      <trkpt lat="43.46239" lon="0.01196">
        <ele>181.35</ele>
        <time>2021-08-19T12:28:20Z</time>
      </trkpt>
      <trkpt lat="43.46237" lon="0.01134">
        <ele>181.35</ele>
        <time>2021-08-19T12:28:30Z</time>
      </trkpt>
      <trkpt lat="43.46234" lon="0.01056">
        <ele>181.35</ele>
        <time>2021-08-19T12:28:42Z</time>
      </trkpt>
      <trkpt lat="43.46231" lon="0.00988">
        <ele>181.35</ele>
        <time>2021-08-19T12:28:53Z</time>
      </trkpt>
      <trkpt lat="43.46222" lon="0.00934">
        <ele>181.35</ele>
        <time>2021-08-19T12:29:02Z</time>
      </trkpt>
      <trkpt lat="43.46214" lon="0.00886">
        <ele>182.31</ele>
        <time>2021-08-19T12:29:10Z</time>
      </trkpt>
      <trkpt lat="43.46214" lon="0.00881">
        <ele>181.83</ele>
        <time>2021-08-19T12:29:11Z</time>
      </trkpt>
      <trkpt lat="43.46215" lon="0.00876">
        <ele>181.83</ele>
        <time>2021-08-19T12:29:12Z</time>
      </trkpt>
      <trkpt lat="43.46217" lon="0.00871">
        <ele>181.83</ele>
        <time>2021-08-19T12:29:13Z</time>
      </trkpt>
      <trkpt lat="43.4622" lon="0.00868">
        <ele>181.83</ele>
        <time>2021-08-19T12:29:14Z</time>
      </trkpt>
      <trkpt lat="43.46222" lon="0.00864">
        <ele>181.83</ele>
        <time>2021-08-19T12:29:15Z</time>
      </trkpt>
      <trkpt lat="43.46225" lon="0.00861">
        <ele>181.83</ele>
        <time>2021-08-19T12:29:16Z</time>
      </trkpt>
      <trkpt lat="43.46228" lon="0.00858">
        <ele>181.83</ele>
        <time>2021-08-19T12:29:17Z</time>
      </trkpt>
      <trkpt lat="43.46242" lon="0.00827">
        <ele>182.31</ele>
        <time>2021-08-19T12:29:24Z</time>
      </trkpt>
      <trkpt lat="43.46237" lon="0.00797">
        <ele>183.27</ele>
        <time>2021-08-19T12:29:30Z</time>
      </trkpt>
      <trkpt lat="43.46229" lon="0.00768">
        <ele>184.23</ele>
        <time>2021-08-19T12:29:37Z</time>
      </trkpt>
      <trkpt lat="43.4622" lon="0.00735">
        <ele>184.71</ele>
        <time>2021-08-19T12:29:46Z</time>
      </trkpt>
      <trkpt lat="43.46217" lon="0.00716">
        <ele>186.15</ele>
        <time>2021-08-19T12:29:53Z</time>
      </trkpt>
      <trkpt lat="43.46217" lon="0.00712">
        <ele>186.63</ele>
        <time>2021-08-19T12:29:55Z</time>
      </trkpt>
      <trkpt lat="43.46216" lon="0.00708">
        <ele>186.63</ele>
        <time>2021-08-19T12:29:58Z</time>
      </trkpt>
      <trkpt lat="43.46215" lon="0.00706">
        <ele>187.11</ele>
        <time>2021-08-19T12:29:59Z</time>
      </trkpt>
      <trkpt lat="43.46214" lon="0.00704">
        <ele>187.11</ele>
        <time>2021-08-19T12:30:00Z</time>
      </trkpt>
      <trkpt lat="43.46214" lon="0.00703">
        <ele>187.11</ele>
        <time>2021-08-19T12:30:01Z</time>
      </trkpt>
      <trkpt lat="43.46213" lon="0.00701">
        <ele>187.59</ele>
        <time>2021-08-19T12:30:02Z</time>
      </trkpt>
      <trkpt lat="43.46213" lon="0.00699">
        <ele>187.59</ele>
        <time>2021-08-19T12:30:03Z</time>
      </trkpt>
      <trkpt lat="43.46209" lon="0.00683">
        <ele>188.56</ele>
        <time>2021-08-19T12:30:12Z</time>
      </trkpt>
      <trkpt lat="43.46204" lon="0.00669">
        <ele>190</ele>
        <time>2021-08-19T12:30:20Z</time>
      </trkpt>
      <trkpt lat="43.462" lon="0.00651">
        <ele>191.44</ele>
        <time>2021-08-19T12:30:29Z</time>
      </trkpt>
      <trkpt lat="43.46196" lon="0.00632">
        <ele>192.88</ele>
        <time>2021-08-19T12:30:37Z</time>
      </trkpt>
      <trkpt lat="43.4619" lon="0.0061">
        <ele>193.36</ele>
        <time>2021-08-19T12:30:46Z</time>
      </trkpt>
      <trkpt lat="43.46187" lon="0.00599">
        <ele>194.32</ele>
        <time>2021-08-19T12:30:52Z</time>
      </trkpt>
      <trkpt lat="43.46185" lon="0.0058">
        <ele>195.77</ele>
        <time>2021-08-19T12:31:01Z</time>
      </trkpt>
      <trkpt lat="43.46183" lon="0.00564">
        <ele>197.21</ele>
        <time>2021-08-19T12:31:09Z</time>
      </trkpt>
      <trkpt lat="43.46183" lon="0.00562">
        <ele>197.21</ele>
        <time>2021-08-19T12:31:10Z</time>
      </trkpt>
      <trkpt lat="43.46182" lon="0.0056">
        <ele>197.69</ele>
        <time>2021-08-19T12:31:11Z</time>
      </trkpt>
      <trkpt lat="43.46181" lon="0.00554">
        <ele>197.69</ele>
        <time>2021-08-19T12:31:14Z</time>
      </trkpt>
      <trkpt lat="43.46181" lon="0.00552">
        <ele>197.69</ele>
        <time>2021-08-19T12:31:15Z</time>
      </trkpt>
      <trkpt lat="43.4618" lon="0.0055">
        <ele>198.17</ele>
        <time>2021-08-19T12:31:16Z</time>
      </trkpt>
      <trkpt lat="43.46179" lon="0.00532">
        <ele>199.13</ele>
        <time>2021-08-19T12:31:24Z</time>
      </trkpt>
      <trkpt lat="43.46178" lon="0.00521">
        <ele>199.61</ele>
        <time>2021-08-19T12:31:29Z</time>
      </trkpt>
      <trkpt lat="43.46178" lon="0.00519">
        <ele>199.61</ele>
        <time>2021-08-19T12:31:30Z</time>
      </trkpt>
      <trkpt lat="43.46178" lon="0.00517">
        <ele>200.09</ele>
        <time>2021-08-19T12:31:31Z</time>
      </trkpt>
      <trkpt lat="43.46178" lon="0.00515">
        <ele>200.09</ele>
        <time>2021-08-19T12:31:32Z</time>
      </trkpt>
      <trkpt lat="43.46178" lon="0.00513">
        <ele>200.09</ele>
        <time>2021-08-19T12:31:33Z</time>
      </trkpt>
      <trkpt lat="43.46176" lon="0.005">
        <ele>201.05</ele>
        <time>2021-08-19T12:31:40Z</time>
      </trkpt>
      <trkpt lat="43.46173" lon="0.00481">
        <ele>202.98</ele>
        <time>2021-08-19T12:31:49Z</time>
      </trkpt>
      <trkpt lat="43.46172" lon="0.0046">
        <ele>203.94</ele>
        <time>2021-08-19T12:31:58Z</time>
      </trkpt>
      <trkpt lat="43.4617" lon="0.00452">
        <ele>204.42</ele>
        <time>2021-08-19T12:32:01Z</time>
      </trkpt>
      <trkpt lat="43.4617" lon="0.0045">
        <ele>204.9</ele>
        <time>2021-08-19T12:32:02Z</time>
      </trkpt>
      <trkpt lat="43.4617" lon="0.00447">
        <ele>204.9</ele>
        <time>2021-08-19T12:32:03Z</time>
      </trkpt>
      <trkpt lat="43.4617" lon="0.00429">
        <ele>206.34</ele>
        <time>2021-08-19T12:32:11Z</time>
      </trkpt>
      <trkpt lat="43.46165" lon="0.0041">
        <ele>207.78</ele>
        <time>2021-08-19T12:32:20Z</time>
      </trkpt>
      <trkpt lat="43.46161" lon="0.00394">
        <ele>209.7</ele>
        <time>2021-08-19T12:32:27Z</time>
      </trkpt>
      <trkpt lat="43.46158" lon="0.00378">
        <ele>210.67</ele>
        <time>2021-08-19T12:32:34Z</time>
      </trkpt>
      <trkpt lat="43.46157" lon="0.00363">
        <ele>212.11</ele>
        <time>2021-08-19T12:32:41Z</time>
      </trkpt>
      <trkpt lat="43.46156" lon="0.00353">
        <ele>212.59</ele>
        <time>2021-08-19T12:32:46Z</time>
      </trkpt>
      <trkpt lat="43.46156" lon="0.0035">
        <ele>213.07</ele>
        <time>2021-08-19T12:32:47Z</time>
      </trkpt>
      <trkpt lat="43.46156" lon="0.00348">
        <ele>213.07</ele>
        <time>2021-08-19T12:32:48Z</time>
      </trkpt>
      <trkpt lat="43.46156" lon="0.00345">
        <ele>213.07</ele>
        <time>2021-08-19T12:32:49Z</time>
      </trkpt>
      <trkpt lat="43.46156" lon="0.00343">
        <ele>213.55</ele>
        <time>2021-08-19T12:32:50Z</time>
      </trkpt>
      <trkpt lat="43.46156" lon="0.0034">
        <ele>213.55</ele>
        <time>2021-08-19T12:32:51Z</time>
      </trkpt>
      <trkpt lat="43.46155" lon="0.00338">
        <ele>213.55</ele>
        <time>2021-08-19T12:32:52Z</time>
      </trkpt>
      <trkpt lat="43.46155" lon="0.00336">
        <ele>214.51</ele>
        <time>2021-08-19T12:32:53Z</time>
      </trkpt>
      <trkpt lat="43.46154" lon="0.00334">
        <ele>214.51</ele>
        <time>2021-08-19T12:32:54Z</time>
      </trkpt>
      <trkpt lat="43.46154" lon="0.0033">
        <ele>214.99</ele>
        <time>2021-08-19T12:32:56Z</time>
      </trkpt>
      <trkpt lat="43.46154" lon="0.00327">
        <ele>214.99</ele>
        <time>2021-08-19T12:32:57Z</time>
      </trkpt>
      <trkpt lat="43.46153" lon="0.00325">
        <ele>215.47</ele>
        <time>2021-08-19T12:32:58Z</time>
      </trkpt>
      <trkpt lat="43.46153" lon="0.00323">
        <ele>215.47</ele>
        <time>2021-08-19T12:32:59Z</time>
      </trkpt>
      <trkpt lat="43.46153" lon="0.0032">
        <ele>215.47</ele>
        <time>2021-08-19T12:33:00Z</time>
      </trkpt>
      <trkpt lat="43.46153" lon="0.00318">
        <ele>215.95</ele>
        <time>2021-08-19T12:33:01Z</time>
      </trkpt>
      <trkpt lat="43.46153" lon="0.00314">
        <ele>215.95</ele>
        <time>2021-08-19T12:33:03Z</time>
      </trkpt>
      <trkpt lat="43.46153" lon="0.00311">
        <ele>216.91</ele>
        <time>2021-08-19T12:33:04Z</time>
      </trkpt>
      <trkpt lat="43.46151" lon="0.00301">
        <ele>217.4</ele>
        <time>2021-08-19T12:33:10Z</time>
      </trkpt>
      <trkpt lat="43.4615" lon="0.00288">
        <ele>218.36</ele>
        <time>2021-08-19T12:33:18Z</time>
      </trkpt>
      <trkpt lat="43.46148" lon="0.00277">
        <ele>219.32</ele>
        <time>2021-08-19T12:33:26Z</time>
      </trkpt>
      <trkpt lat="43.46146" lon="0.00268">
        <ele>220.76</ele>
        <time>2021-08-19T12:33:33Z</time>
      </trkpt>
      <trkpt lat="43.46145" lon="0.0026">
        <ele>221.24</ele>
        <time>2021-08-19T12:33:40Z</time>
      </trkpt>
      <trkpt lat="43.46144" lon="0.0025">
        <ele>223.64</ele>
        <time>2021-08-19T12:33:50Z</time>
      </trkpt>
      <trkpt lat="43.46143" lon="0.0024">
        <ele>224.12</ele>
        <time>2021-08-19T12:33:59Z</time>
      </trkpt>
      <trkpt lat="43.46141" lon="0.00235">
        <ele>224.61</ele>
        <time>2021-08-19T12:34:08Z</time>
      </trkpt>
      <trkpt lat="43.46142" lon="0.0022">
        <ele>225.57</ele>
        <time>2021-08-19T12:34:14Z</time>
      </trkpt>
      <trkpt lat="43.46136" lon="0.00192">
        <ele>227.01</ele>
        <time>2021-08-19T12:34:24Z</time>
      </trkpt>
      <trkpt lat="43.46137" lon="0.00188">
        <ele>227.01</ele>
        <time>2021-08-19T12:34:26Z</time>
      </trkpt>
      <trkpt lat="43.46137" lon="0.00185">
        <ele>227.01</ele>
        <time>2021-08-19T12:34:27Z</time>
      </trkpt>
      <trkpt lat="43.46137" lon="0.00183">
        <ele>227.01</ele>
        <time>2021-08-19T12:34:28Z</time>
      </trkpt>
      <trkpt lat="43.46137" lon="0.00171">
        <ele>225.57</ele>
        <time>2021-08-19T12:34:31Z</time>
      </trkpt>
      <trkpt lat="43.46133" lon="0.00134">
        <ele>222.68</ele>
        <time>2021-08-19T12:34:38Z</time>
      </trkpt>
      <trkpt lat="43.46132" lon="0.00128">
        <ele>222.2</ele>
        <time>2021-08-19T12:34:39Z</time>
      </trkpt>
      <trkpt lat="43.46128" lon="0.00114">
        <ele>221.72</ele>
        <time>2021-08-19T12:34:41Z</time>
      </trkpt>
      <trkpt lat="43.46126" lon="0.00107">
        <ele>220.76</ele>
        <time>2021-08-19T12:34:42Z</time>
      </trkpt>
      <trkpt lat="43.46123" lon="0.001">
        <ele>219.8</ele>
        <time>2021-08-19T12:34:43Z</time>
      </trkpt>
      <trkpt lat="43.4612" lon="0.00094">
        <ele>219.8</ele>
        <time>2021-08-19T12:34:44Z</time>
      </trkpt>
      <trkpt lat="43.46117" lon="0.00088">
        <ele>219.8</ele>
        <time>2021-08-19T12:34:45Z</time>
      </trkpt>
      <trkpt lat="43.46115" lon="0.00084">
        <ele>219.8</ele>
        <time>2021-08-19T12:34:46Z</time>
      </trkpt>
      <trkpt lat="43.46114" lon="0.0008">
        <ele>219.8</ele>
        <time>2021-08-19T12:34:47Z</time>
      </trkpt>
      <trkpt lat="43.46114" lon="0.00076">
        <ele>220.28</ele>
        <time>2021-08-19T12:34:52Z</time>
      </trkpt>
      <trkpt lat="43.46112" lon="0.00069">
        <ele>219.8</ele>
        <time>2021-08-19T12:35:00Z</time>
      </trkpt>
      <trkpt lat="43.46109" lon="0.00062">
        <ele>219.8</ele>
        <time>2021-08-19T12:35:07Z</time>
      </trkpt>
      <trkpt lat="43.46109" lon="0.00055">
        <ele>219.8</ele>
        <time>2021-08-19T12:35:15Z</time>
      </trkpt>
      <trkpt lat="43.46109" lon="0.00053">
        <ele>219.8</ele>
        <time>2021-08-19T12:35:16Z</time>
      </trkpt>
      <trkpt lat="43.4611" lon="0.00047">
        <ele>219.8</ele>
        <time>2021-08-19T12:35:20Z</time>
      </trkpt>
      <trkpt lat="43.46111" lon="0.00045">
        <ele>219.8</ele>
        <time>2021-08-19T12:35:21Z</time>
      </trkpt>
      <trkpt lat="43.46114" lon="0.00035">
        <ele>221.24</ele>
        <time>2021-08-19T12:35:26Z</time>
      </trkpt>
      <trkpt lat="43.46116" lon="0.00028">
        <ele>221.72</ele>
        <time>2021-08-19T12:35:29Z</time>
      </trkpt>
      <trkpt lat="43.46116" lon="0.00026">
        <ele>221.72</ele>
        <time>2021-08-19T12:35:30Z</time>
      </trkpt>
      <trkpt lat="43.46116" lon="0.00023">
        <ele>221.72</ele>
        <time>2021-08-19T12:35:31Z</time>
      </trkpt>
      <trkpt lat="43.46117" lon="7.0E-5">
        <ele>222.2</ele>
        <time>2021-08-19T12:35:37Z</time>
      </trkpt>
      <trkpt lat="43.46117" lon="4.0E-5">
        <ele>222.68</ele>
        <time>2021-08-19T12:35:38Z</time>
      </trkpt>
      <trkpt lat="43.46117" lon="2.0E-5">
        <ele>222.68</ele>
        <time>2021-08-19T12:35:39Z</time>
      </trkpt>
      <trkpt lat="43.46117" lon="-1.0E-5">
        <ele>223.16</ele>
        <time>2021-08-19T12:35:45Z</time>
      </trkpt>
      <trkpt lat="43.46116" lon="-0.00011">
        <ele>224.61</ele>
        <time>2021-08-19T12:35:53Z</time>
      </trkpt>
      <trkpt lat="43.46117" lon="-0.00022">
        <ele>225.09</ele>
        <time>2021-08-19T12:36:00Z</time>
      </trkpt>
      <trkpt lat="43.46113" lon="-0.00028">
        <ele>225.09</ele>
        <time>2021-08-19T12:36:08Z</time>
      </trkpt>
      <trkpt lat="43.46112" lon="-0.00029">
        <ele>225.09</ele>
        <time>2021-08-19T12:36:09Z</time>
      </trkpt>
      <trkpt lat="43.4611" lon="-0.00029">
        <ele>225.09</ele>
        <time>2021-08-19T12:36:10Z</time>
      </trkpt>
      <trkpt lat="43.46109" lon="-0.00029">
        <ele>225.09</ele>
        <time>2021-08-19T12:36:11Z</time>
      </trkpt>
      <trkpt lat="43.46107" lon="-0.0003">
        <ele>225.09</ele>
        <time>2021-08-19T12:36:12Z</time>
      </trkpt>
      <trkpt lat="43.46091" lon="-0.00037">
        <ele>225.57</ele>
        <time>2021-08-19T12:36:18Z</time>
      </trkpt>
      <trkpt lat="43.46061" lon="-0.00053">
        <ele>225.57</ele>
        <time>2021-08-19T12:36:27Z</time>
      </trkpt>
      <trkpt lat="43.46025" lon="-0.00071">
        <ele>226.53</ele>
        <time>2021-08-19T12:36:36Z</time>
      </trkpt>
      <trkpt lat="43.46021" lon="-0.00072">
        <ele>226.53</ele>
        <time>2021-08-19T12:36:37Z</time>
      </trkpt>
      <trkpt lat="43.46002" lon="-0.00083">
        <ele>226.53</ele>
        <time>2021-08-19T12:36:42Z</time>
      </trkpt>
      <trkpt lat="43.45999" lon="-0.00085">
        <ele>227.01</ele>
        <time>2021-08-19T12:36:43Z</time>
      </trkpt>
      <trkpt lat="43.45996" lon="-0.00087">
        <ele>227.01</ele>
        <time>2021-08-19T12:36:44Z</time>
      </trkpt>
      <trkpt lat="43.45959" lon="-0.00103">
        <ele>227.49</ele>
        <time>2021-08-19T12:36:54Z</time>
      </trkpt>
      <trkpt lat="43.45938" lon="-0.00107">
        <ele>228.93</ele>
        <time>2021-08-19T12:37:01Z</time>
      </trkpt>
      <trkpt lat="43.4592" lon="-0.00122">
        <ele>229.41</ele>
        <time>2021-08-19T12:37:08Z</time>
      </trkpt>
      <trkpt lat="43.45902" lon="-0.00133">
        <ele>230.85</ele>
        <time>2021-08-19T12:37:16Z</time>
      </trkpt>
      <trkpt lat="43.45885" lon="-0.00142">
        <ele>232.3</ele>
        <time>2021-08-19T12:37:25Z</time>
      </trkpt>
      <trkpt lat="43.45871" lon="-0.00147">
        <ele>233.26</ele>
        <time>2021-08-19T12:37:32Z</time>
      </trkpt>
      <trkpt lat="43.45853" lon="-0.00153">
        <ele>234.7</ele>
        <time>2021-08-19T12:37:41Z</time>
      </trkpt>
      <trkpt lat="43.45834" lon="-0.00152">
        <ele>235.66</ele>
        <time>2021-08-19T12:37:49Z</time>
      </trkpt>
      <trkpt lat="43.4582" lon="-0.00139">
        <ele>234.22</ele>
        <time>2021-08-19T12:37:56Z</time>
      </trkpt>
      <trkpt lat="43.45801" lon="-0.00131">
        <ele>233.26</ele>
        <time>2021-08-19T12:38:02Z</time>
      </trkpt>
      <trkpt lat="43.45797" lon="-0.0013">
        <ele>234.7</ele>
        <time>2021-08-19T12:38:04Z</time>
      </trkpt>
      <trkpt lat="43.45788" lon="-0.00128">
        <ele>235.18</ele>
        <time>2021-08-19T12:38:09Z</time>
      </trkpt>
      <trkpt lat="43.45769" lon="-0.00125">
        <ele>233.74</ele>
        <time>2021-08-19T12:38:14Z</time>
      </trkpt>
      <trkpt lat="43.45752" lon="-0.00119">
        <ele>233.26</ele>
        <time>2021-08-19T12:38:19Z</time>
      </trkpt>
      <trkpt lat="43.45742" lon="-0.00118">
        <ele>234.7</ele>
        <time>2021-08-19T12:38:24Z</time>
      </trkpt>
      <trkpt lat="43.45738" lon="-0.00117">
        <ele>235.18</ele>
        <time>2021-08-19T12:38:27Z</time>
      </trkpt>
      <trkpt lat="43.45727" lon="-0.00113">
        <ele>234.22</ele>
        <time>2021-08-19T12:38:33Z</time>
      </trkpt>
      <trkpt lat="43.45716" lon="-0.00109">
        <ele>234.22</ele>
        <time>2021-08-19T12:38:41Z</time>
      </trkpt>
      <trkpt lat="43.45709" lon="-0.00109">
        <ele>235.66</ele>
        <time>2021-08-19T12:38:50Z</time>
      </trkpt>
      <trkpt lat="43.45706" lon="-0.00107">
        <ele>236.62</ele>
        <time>2021-08-19T12:38:57Z</time>
      </trkpt>
      <trkpt lat="43.457" lon="-0.00102">
        <ele>237.58</ele>
        <time>2021-08-19T12:39:06Z</time>
      </trkpt>
      <trkpt lat="43.45698" lon="-0.00097">
        <ele>238.54</ele>
        <time>2021-08-19T12:39:14Z</time>
      </trkpt>
      <trkpt lat="43.45697" lon="-0.0009">
        <ele>239.99</ele>
        <time>2021-08-19T12:39:24Z</time>
      </trkpt>
      <trkpt lat="43.45697" lon="-0.00082">
        <ele>241.43</ele>
        <time>2021-08-19T12:39:32Z</time>
      </trkpt>
      <trkpt lat="43.45696" lon="-0.00075">
        <ele>242.87</ele>
        <time>2021-08-19T12:39:40Z</time>
      </trkpt>
      <trkpt lat="43.45695" lon="-0.00068">
        <ele>243.83</ele>
        <time>2021-08-19T12:39:49Z</time>
      </trkpt>
      <trkpt lat="43.45695" lon="-0.00059">
        <ele>245.75</ele>
        <time>2021-08-19T12:39:58Z</time>
      </trkpt>
      <trkpt lat="43.45695" lon="-0.00054">
        <ele>247.2</ele>
        <time>2021-08-19T12:40:06Z</time>
      </trkpt>
      <trkpt lat="43.45694" lon="-0.00046">
        <ele>248.64</ele>
        <time>2021-08-19T12:40:15Z</time>
      </trkpt>
      <trkpt lat="43.45694" lon="-0.00036">
        <ele>250.08</ele>
        <time>2021-08-19T12:40:24Z</time>
      </trkpt>
      <trkpt lat="43.45694" lon="-0.00033">
        <ele>250.08</ele>
        <time>2021-08-19T12:40:26Z</time>
      </trkpt>
      <trkpt lat="43.45696" lon="-0.00025">
        <ele>251.04</ele>
        <time>2021-08-19T12:40:34Z</time>
      </trkpt>
      <trkpt lat="43.457" lon="-0.00017">
        <ele>251.52</ele>
        <time>2021-08-19T12:40:42Z</time>
      </trkpt>
      <trkpt lat="43.457" lon="-7.0E-5">
        <ele>252.96</ele>
        <time>2021-08-19T12:40:50Z</time>
      </trkpt>
      <trkpt lat="43.45694" lon="-4.0E-5">
        <ele>253.93</ele>
        <time>2021-08-19T12:40:59Z</time>
      </trkpt>
      <trkpt lat="43.45692" lon="-3.0E-5">
        <ele>254.41</ele>
        <time>2021-08-19T12:41:01Z</time>
      </trkpt>
      <trkpt lat="43.4569" lon="-2.0E-5">
        <ele>254.41</ele>
        <time>2021-08-19T12:41:08Z</time>
      </trkpt>
      <trkpt lat="43.45686" lon="-2.0E-5">
        <ele>254.41</ele>
        <time>2021-08-19T12:41:12Z</time>
      </trkpt>
      <trkpt lat="43.45685" lon="-3.0E-5">
        <ele>254.89</ele>
        <time>2021-08-19T12:41:13Z</time>
      </trkpt>
      <trkpt lat="43.45666" lon="-0.00014">
        <ele>254.89</ele>
        <time>2021-08-19T12:41:21Z</time>
      </trkpt>
      <trkpt lat="43.45663" lon="-0.00015">
        <ele>254.89</ele>
        <time>2021-08-19T12:41:22Z</time>
      </trkpt>
      <trkpt lat="43.45661" lon="-0.00016">
        <ele>254.89</ele>
        <time>2021-08-19T12:41:23Z</time>
      </trkpt>
      <trkpt lat="43.45659" lon="-0.00018">
        <ele>255.37</ele>
        <time>2021-08-19T12:41:24Z</time>
      </trkpt>
      <trkpt lat="43.45656" lon="-0.0002">
        <ele>254.89</ele>
        <time>2021-08-19T12:41:25Z</time>
      </trkpt>
      <trkpt lat="43.45653" lon="-0.00021">
        <ele>254.89</ele>
        <time>2021-08-19T12:41:26Z</time>
      </trkpt>
      <trkpt lat="43.4565" lon="-0.00023">
        <ele>254.89</ele>
        <time>2021-08-19T12:41:27Z</time>
      </trkpt>
      <trkpt lat="43.45647" lon="-0.00025">
        <ele>254.89</ele>
        <time>2021-08-19T12:41:28Z</time>
      </trkpt>
      <trkpt lat="43.45631" lon="-0.00045">
        <ele>253.44</ele>
        <time>2021-08-19T12:41:35Z</time>
      </trkpt>
      <trkpt lat="43.45618" lon="-0.00064">
        <ele>253.44</ele>
        <time>2021-08-19T12:41:41Z</time>
      </trkpt>
      <trkpt lat="43.45617" lon="-0.00067">
        <ele>253.44</ele>
        <time>2021-08-19T12:41:42Z</time>
      </trkpt>
      <trkpt lat="43.45593" lon="-0.00088">
        <ele>253.44</ele>
        <time>2021-08-19T12:41:49Z</time>
      </trkpt>
      <trkpt lat="43.4558" lon="-0.00096">
        <ele>254.89</ele>
        <time>2021-08-19T12:41:54Z</time>
      </trkpt>
      <trkpt lat="43.45575" lon="-0.00099">
        <ele>255.85</ele>
        <time>2021-08-19T12:41:56Z</time>
      </trkpt>
      <trkpt lat="43.45557" lon="-0.00106">
        <ele>257.29</ele>
        <time>2021-08-19T12:42:03Z</time>
      </trkpt>
      <trkpt lat="43.45543" lon="-0.00114">
        <ele>257.29</ele>
        <time>2021-08-19T12:42:09Z</time>
      </trkpt>
      <trkpt lat="43.45518" lon="-0.00124">
        <ele>257.29</ele>
        <time>2021-08-19T12:42:16Z</time>
      </trkpt>
      <trkpt lat="43.45491" lon="-0.00131">
        <ele>255.85</ele>
        <time>2021-08-19T12:42:23Z</time>
      </trkpt>
      <trkpt lat="43.45475" lon="-0.00136">
        <ele>255.85</ele>
        <time>2021-08-19T12:42:28Z</time>
      </trkpt>
      <trkpt lat="43.45447" lon="-0.00136">
        <ele>255.37</ele>
        <time>2021-08-19T12:42:36Z</time>
      </trkpt>
      <trkpt lat="43.4543" lon="-0.00135">
        <ele>255.37</ele>
        <time>2021-08-19T12:42:40Z</time>
      </trkpt>
      <trkpt lat="43.45394" lon="-0.00131">
        <ele>255.85</ele>
        <time>2021-08-19T12:42:48Z</time>
      </trkpt>
      <trkpt lat="43.45364" lon="-0.00127">
        <ele>255.85</ele>
        <time>2021-08-19T12:42:56Z</time>
      </trkpt>
      <trkpt lat="43.45358" lon="-0.00126">
        <ele>257.29</ele>
        <time>2021-08-19T12:42:58Z</time>
      </trkpt>
      <trkpt lat="43.45326" lon="-0.00131">
        <ele>257.77</ele>
        <time>2021-08-19T12:43:08Z</time>
      </trkpt>
      <trkpt lat="43.45302" lon="-0.00134">
        <ele>258.25</ele>
        <time>2021-08-19T12:43:16Z</time>
      </trkpt>
      <trkpt lat="43.45281" lon="-0.00137">
        <ele>259.69</ele>
        <time>2021-08-19T12:43:25Z</time>
      </trkpt>
      <trkpt lat="43.45261" lon="-0.00139">
        <ele>261.14</ele>
        <time>2021-08-19T12:43:33Z</time>
      </trkpt>
      <trkpt lat="43.45238" lon="-0.00143">
        <ele>261.62</ele>
        <time>2021-08-19T12:43:41Z</time>
      </trkpt>
      <trkpt lat="43.45216" lon="-0.00149">
        <ele>262.1</ele>
        <time>2021-08-19T12:43:49Z</time>
      </trkpt>
      <trkpt lat="43.45186" lon="-0.00156">
        <ele>262.58</ele>
        <time>2021-08-19T12:43:59Z</time>
      </trkpt>
      <trkpt lat="43.45155" lon="-0.00159">
        <ele>263.06</ele>
        <time>2021-08-19T12:44:10Z</time>
      </trkpt>
      <trkpt lat="43.45127" lon="-0.00164">
        <ele>264.02</ele>
        <time>2021-08-19T12:44:20Z</time>
      </trkpt>
      <trkpt lat="43.45107" lon="-0.00168">
        <ele>264.02</ele>
        <time>2021-08-19T12:44:27Z</time>
      </trkpt>
      <trkpt lat="43.45102" lon="-0.00172">
        <ele>264.02</ele>
        <time>2021-08-19T12:44:29Z</time>
      </trkpt>
      <trkpt lat="43.45099" lon="-0.00179">
        <ele>264.02</ele>
        <time>2021-08-19T12:44:31Z</time>
      </trkpt>
      <trkpt lat="43.45099" lon="-0.00184">
        <ele>264.02</ele>
        <time>2021-08-19T12:44:32Z</time>
      </trkpt>
      <trkpt lat="43.451" lon="-0.00189">
        <ele>264.02</ele>
        <time>2021-08-19T12:44:33Z</time>
      </trkpt>
      <trkpt lat="43.451" lon="-0.00205">
        <ele>262.58</ele>
        <time>2021-08-19T12:44:36Z</time>
      </trkpt>
      <trkpt lat="43.45095" lon="-0.00249">
        <ele>262.58</ele>
        <time>2021-08-19T12:44:45Z</time>
      </trkpt>
      <trkpt lat="43.45092" lon="-0.00271">
        <ele>262.58</ele>
        <time>2021-08-19T12:44:49Z</time>
      </trkpt>
      <trkpt lat="43.45091" lon="-0.00276">
        <ele>262.58</ele>
        <time>2021-08-19T12:44:50Z</time>
      </trkpt>
      <trkpt lat="43.45087" lon="-0.00305">
        <ele>264.02</ele>
        <time>2021-08-19T12:44:56Z</time>
      </trkpt>
      <trkpt lat="43.45082" lon="-0.00328">
        <ele>265.94</ele>
        <time>2021-08-19T12:45:04Z</time>
      </trkpt>
      <trkpt lat="43.45078" lon="-0.00341">
        <ele>267.38</ele>
        <time>2021-08-19T12:45:09Z</time>
      </trkpt>
      <trkpt lat="43.45076" lon="-0.00342">
        <ele>267.38</ele>
        <time>2021-08-19T12:45:10Z</time>
      </trkpt>
      <trkpt lat="43.45074" lon="-0.00342">
        <ele>267.86</ele>
        <time>2021-08-19T12:45:11Z</time>
      </trkpt>
      <trkpt lat="43.45072" lon="-0.00341">
        <ele>267.86</ele>
        <time>2021-08-19T12:45:12Z</time>
      </trkpt>
      <trkpt lat="43.45071" lon="-0.00339">
        <ele>267.86</ele>
        <time>2021-08-19T12:45:13Z</time>
      </trkpt>
      <trkpt lat="43.45069" lon="-0.00337">
        <ele>267.86</ele>
        <time>2021-08-19T12:45:14Z</time>
      </trkpt>
      <trkpt lat="43.45067" lon="-0.00333">
        <ele>267.86</ele>
        <time>2021-08-19T12:45:15Z</time>
      </trkpt>
      <trkpt lat="43.45063" lon="-0.00329">
        <ele>266.42</ele>
        <time>2021-08-19T12:45:16Z</time>
      </trkpt>
      <trkpt lat="43.45059" lon="-0.00326">
        <ele>265.94</ele>
        <time>2021-08-19T12:45:17Z</time>
      </trkpt>
      <trkpt lat="43.45035" lon="-0.00308">
        <ele>263.06</ele>
        <time>2021-08-19T12:45:21Z</time>
      </trkpt>
      <trkpt lat="43.45008" lon="-0.00289">
        <ele>259.69</ele>
        <time>2021-08-19T12:45:25Z</time>
      </trkpt>
      <trkpt lat="43.44996" lon="-0.0028">
        <ele>258.73</ele>
        <time>2021-08-19T12:45:27Z</time>
      </trkpt>
      <trkpt lat="43.44991" lon="-0.00278">
        <ele>258.73</ele>
        <time>2021-08-19T12:45:28Z</time>
      </trkpt>
      <trkpt lat="43.44986" lon="-0.00279">
        <ele>257.77</ele>
        <time>2021-08-19T12:45:29Z</time>
      </trkpt>
      <trkpt lat="43.4498" lon="-0.00282">
        <ele>257.77</ele>
        <time>2021-08-19T12:45:30Z</time>
      </trkpt>
      <trkpt lat="43.44975" lon="-0.00288">
        <ele>257.29</ele>
        <time>2021-08-19T12:45:31Z</time>
      </trkpt>
      <trkpt lat="43.44972" lon="-0.00296">
        <ele>256.81</ele>
        <time>2021-08-19T12:45:32Z</time>
      </trkpt>
      <trkpt lat="43.44967" lon="-0.00302">
        <ele>256.33</ele>
        <time>2021-08-19T12:45:33Z</time>
      </trkpt>
      <trkpt lat="43.44961" lon="-0.0031">
        <ele>255.37</ele>
        <time>2021-08-19T12:45:34Z</time>
      </trkpt>
      <trkpt lat="43.44948" lon="-0.00325">
        <ele>252</ele>
        <time>2021-08-19T12:45:36Z</time>
      </trkpt>
      <trkpt lat="43.44932" lon="-0.00343">
        <ele>249.6</ele>
        <time>2021-08-19T12:45:38Z</time>
      </trkpt>
      <trkpt lat="43.44927" lon="-0.00354">
        <ele>248.64</ele>
        <time>2021-08-19T12:45:39Z</time>
      </trkpt>
      <trkpt lat="43.44923" lon="-0.00366">
        <ele>248.16</ele>
        <time>2021-08-19T12:45:40Z</time>
      </trkpt>
      <trkpt lat="43.44921" lon="-0.00378">
        <ele>247.68</ele>
        <time>2021-08-19T12:45:41Z</time>
      </trkpt>
      <trkpt lat="43.44919" lon="-0.0039">
        <ele>247.68</ele>
        <time>2021-08-19T12:45:42Z</time>
      </trkpt>
      <trkpt lat="43.44918" lon="-0.00403">
        <ele>247.2</ele>
        <time>2021-08-19T12:45:43Z</time>
      </trkpt>
      <trkpt lat="43.44912" lon="-0.00439">
        <ele>246.23</ele>
        <time>2021-08-19T12:45:46Z</time>
      </trkpt>
      <trkpt lat="43.44908" lon="-0.0045">
        <ele>246.23</ele>
        <time>2021-08-19T12:45:47Z</time>
      </trkpt>
      <trkpt lat="43.44903" lon="-0.00459">
        <ele>245.75</ele>
        <time>2021-08-19T12:45:48Z</time>
      </trkpt>
      <trkpt lat="43.44897" lon="-0.00469">
        <ele>245.27</ele>
        <time>2021-08-19T12:45:49Z</time>
      </trkpt>
      <trkpt lat="43.44891" lon="-0.00477">
        <ele>245.27</ele>
        <time>2021-08-19T12:45:50Z</time>
      </trkpt>
      <trkpt lat="43.44862" lon="-0.00506">
        <ele>243.35</ele>
        <time>2021-08-19T12:45:54Z</time>
      </trkpt>
      <trkpt lat="43.44854" lon="-0.00511">
        <ele>242.39</ele>
        <time>2021-08-19T12:45:55Z</time>
      </trkpt>
      <trkpt lat="43.44819" lon="-0.00524">
        <ele>241.91</ele>
        <time>2021-08-19T12:45:59Z</time>
      </trkpt>
      <trkpt lat="43.44811" lon="-0.00525">
        <ele>241.91</ele>
        <time>2021-08-19T12:46:00Z</time>
      </trkpt>
      <trkpt lat="43.44803" lon="-0.00523">
        <ele>241.91</ele>
        <time>2021-08-19T12:46:01Z</time>
      </trkpt>
      <trkpt lat="43.44784" lon="-0.00517">
        <ele>243.35</ele>
        <time>2021-08-19T12:46:04Z</time>
      </trkpt>
      <trkpt lat="43.44779" lon="-0.00512">
        <ele>243.35</ele>
        <time>2021-08-19T12:46:05Z</time>
      </trkpt>
      <trkpt lat="43.44775" lon="-0.00505">
        <ele>241.91</ele>
        <time>2021-08-19T12:46:06Z</time>
      </trkpt>
      <trkpt lat="43.44772" lon="-0.00497">
        <ele>240.95</ele>
        <time>2021-08-19T12:46:07Z</time>
      </trkpt>
      <trkpt lat="43.4477" lon="-0.00489">
        <ele>240.47</ele>
        <time>2021-08-19T12:46:08Z</time>
      </trkpt>
      <trkpt lat="43.44768" lon="-0.00482">
        <ele>239.99</ele>
        <time>2021-08-19T12:46:09Z</time>
      </trkpt>
      <trkpt lat="43.44765" lon="-0.00478">
        <ele>239.51</ele>
        <time>2021-08-19T12:46:10Z</time>
      </trkpt>
      <trkpt lat="43.44761" lon="-0.00476">
        <ele>239.02</ele>
        <time>2021-08-19T12:46:11Z</time>
      </trkpt>
      <trkpt lat="43.44732" lon="-0.00469">
        <ele>236.14</ele>
        <time>2021-08-19T12:46:16Z</time>
      </trkpt>
      <trkpt lat="43.44719" lon="-0.00468">
        <ele>234.22</ele>
        <time>2021-08-19T12:46:18Z</time>
      </trkpt>
      <trkpt lat="43.44712" lon="-0.0047">
        <ele>233.26</ele>
        <time>2021-08-19T12:46:19Z</time>
      </trkpt>
      <trkpt lat="43.44705" lon="-0.00474">
        <ele>232.3</ele>
        <time>2021-08-19T12:46:20Z</time>
      </trkpt>
      <trkpt lat="43.44698" lon="-0.00479">
        <ele>231.33</ele>
        <time>2021-08-19T12:46:21Z</time>
      </trkpt>
      <trkpt lat="43.44691" lon="-0.00483">
        <ele>230.37</ele>
        <time>2021-08-19T12:46:22Z</time>
      </trkpt>
      <trkpt lat="43.44678" lon="-0.00491">
        <ele>227.97</ele>
        <time>2021-08-19T12:46:24Z</time>
      </trkpt>
      <trkpt lat="43.44671" lon="-0.00492">
        <ele>227.01</ele>
        <time>2021-08-19T12:46:25Z</time>
      </trkpt>
      <trkpt lat="43.44664" lon="-0.0049">
        <ele>226.05</ele>
        <time>2021-08-19T12:46:26Z</time>
      </trkpt>
      <trkpt lat="43.44656" lon="-0.00485">
        <ele>224.61</ele>
        <time>2021-08-19T12:46:27Z</time>
      </trkpt>
      <trkpt lat="43.44649" lon="-0.0048">
        <ele>223.64</ele>
        <time>2021-08-19T12:46:28Z</time>
      </trkpt>
      <trkpt lat="43.44641" lon="-0.00473">
        <ele>222.2</ele>
        <time>2021-08-19T12:46:29Z</time>
      </trkpt>
      <trkpt lat="43.44618" lon="-0.00446">
        <ele>219.8</ele>
        <time>2021-08-19T12:46:32Z</time>
      </trkpt>
      <trkpt lat="43.44588" lon="-0.00404">
        <ele>215.47</ele>
        <time>2021-08-19T12:46:36Z</time>
      </trkpt>
      <trkpt lat="43.44574" lon="-0.00382">
        <ele>214.51</ele>
        <time>2021-08-19T12:46:38Z</time>
      </trkpt>
      <trkpt lat="43.4457" lon="-0.00368">
        <ele>214.03</ele>
        <time>2021-08-19T12:46:39Z</time>
      </trkpt>
      <trkpt lat="43.44561" lon="-0.00311">
        <ele>212.11</ele>
        <time>2021-08-19T12:46:43Z</time>
      </trkpt>
      <trkpt lat="43.44557" lon="-0.00299">
        <ele>212.11</ele>
        <time>2021-08-19T12:46:44Z</time>
      </trkpt>
      <trkpt lat="43.44551" lon="-0.00288">
        <ele>212.11</ele>
        <time>2021-08-19T12:46:45Z</time>
      </trkpt>
      <trkpt lat="43.44545" lon="-0.00277">
        <ele>211.15</ele>
        <time>2021-08-19T12:46:46Z</time>
      </trkpt>
      <trkpt lat="43.44538" lon="-0.00267">
        <ele>210.67</ele>
        <time>2021-08-19T12:46:47Z</time>
      </trkpt>
      <trkpt lat="43.44532" lon="-0.00259">
        <ele>210.19</ele>
        <time>2021-08-19T12:46:48Z</time>
      </trkpt>
      <trkpt lat="43.44525" lon="-0.00252">
        <ele>210.19</ele>
        <time>2021-08-19T12:46:49Z</time>
      </trkpt>
      <trkpt lat="43.4452" lon="-0.00245">
        <ele>210.19</ele>
        <time>2021-08-19T12:46:50Z</time>
      </trkpt>
      <trkpt lat="43.44517" lon="-0.00237">
        <ele>210.67</ele>
        <time>2021-08-19T12:46:51Z</time>
      </trkpt>
      <trkpt lat="43.44515" lon="-0.00228">
        <ele>210.67</ele>
        <time>2021-08-19T12:46:52Z</time>
      </trkpt>
      <trkpt lat="43.44514" lon="-0.00218">
        <ele>209.7</ele>
        <time>2021-08-19T12:46:53Z</time>
      </trkpt>
      <trkpt lat="43.44514" lon="-0.00208">
        <ele>209.7</ele>
        <time>2021-08-19T12:46:54Z</time>
      </trkpt>
      <trkpt lat="43.44513" lon="-0.00198">
        <ele>208.74</ele>
        <time>2021-08-19T12:46:55Z</time>
      </trkpt>
      <trkpt lat="43.44512" lon="-0.00188">
        <ele>208.74</ele>
        <time>2021-08-19T12:46:56Z</time>
      </trkpt>
      <trkpt lat="43.44508" lon="-0.00168">
        <ele>208.26</ele>
        <time>2021-08-19T12:46:58Z</time>
      </trkpt>
      <trkpt lat="43.44504" lon="-0.00149">
        <ele>207.78</ele>
        <time>2021-08-19T12:47:00Z</time>
      </trkpt>
      <trkpt lat="43.44503" lon="-0.00139">
        <ele>207.78</ele>
        <time>2021-08-19T12:47:01Z</time>
      </trkpt>
      <trkpt lat="43.44503" lon="-0.0013">
        <ele>207.78</ele>
        <time>2021-08-19T12:47:02Z</time>
      </trkpt>
      <trkpt lat="43.44504" lon="-0.00121">
        <ele>207.78</ele>
        <time>2021-08-19T12:47:03Z</time>
      </trkpt>
      <trkpt lat="43.44505" lon="-0.00111">
        <ele>207.78</ele>
        <time>2021-08-19T12:47:04Z</time>
      </trkpt>
      <trkpt lat="43.44514" lon="-0.00063">
        <ele>206.34</ele>
        <time>2021-08-19T12:47:09Z</time>
      </trkpt>
      <trkpt lat="43.4453" lon="0.0003">
        <ele>203.46</ele>
        <time>2021-08-19T12:47:18Z</time>
      </trkpt>
      <trkpt lat="43.44546" lon="0.00107">
        <ele>203.46</ele>
        <time>2021-08-19T12:47:26Z</time>
      </trkpt>
      <trkpt lat="43.44554" lon="0.00144">
        <ele>203.46</ele>
        <time>2021-08-19T12:47:31Z</time>
      </trkpt>
      <trkpt lat="43.44552" lon="0.00147">
        <ele>203.46</ele>
        <time>2021-08-19T12:47:32Z</time>
      </trkpt>
      <trkpt lat="43.44549" lon="0.00147">
        <ele>203.46</ele>
        <time>2021-08-19T12:47:33Z</time>
      </trkpt>
      <trkpt lat="43.44547" lon="0.00144">
        <ele>203.46</ele>
        <time>2021-08-19T12:47:34Z</time>
      </trkpt>
      <trkpt lat="43.44545" lon="0.00141">
        <ele>203.46</ele>
        <time>2021-08-19T12:47:35Z</time>
      </trkpt>
      <trkpt lat="43.44544" lon="0.00137">
        <ele>203.46</ele>
        <time>2021-08-19T12:47:36Z</time>
      </trkpt>
      <trkpt lat="43.44543" lon="0.00134">
        <ele>202.98</ele>
        <time>2021-08-19T12:47:37Z</time>
      </trkpt>
      <trkpt lat="43.44542" lon="0.0013">
        <ele>202.98</ele>
        <time>2021-08-19T12:47:38Z</time>
      </trkpt>
      <trkpt lat="43.44528" lon="0.0011">
        <ele>202.49</ele>
        <time>2021-08-19T12:47:44Z</time>
      </trkpt>
      <trkpt lat="43.4452" lon="0.00104">
        <ele>202.49</ele>
        <time>2021-08-19T12:47:46Z</time>
      </trkpt>
      <trkpt lat="43.44493" lon="0.00071">
        <ele>202.49</ele>
        <time>2021-08-19T12:47:55Z</time>
      </trkpt>
      <trkpt lat="43.44482" lon="0.00052">
        <ele>203.94</ele>
        <time>2021-08-19T12:48:01Z</time>
      </trkpt>
      <trkpt lat="43.44468" lon="0.00033">
        <ele>204.42</ele>
        <time>2021-08-19T12:48:09Z</time>
      </trkpt>
      <trkpt lat="43.44459" lon="0.0002">
        <ele>205.38</ele>
        <time>2021-08-19T12:48:15Z</time>
      </trkpt>
      <trkpt lat="43.44449" lon="5.0E-5">
        <ele>206.82</ele>
        <time>2021-08-19T12:48:23Z</time>
      </trkpt>
      <trkpt lat="43.44439" lon="-9.0E-5">
        <ele>207.78</ele>
        <time>2021-08-19T12:48:31Z</time>
      </trkpt>
      <trkpt lat="43.44433" lon="-0.00014">
        <ele>208.74</ele>
        <time>2021-08-19T12:48:34Z</time>
      </trkpt>
      <trkpt lat="43.44432" lon="-0.00016">
        <ele>208.74</ele>
        <time>2021-08-19T12:48:35Z</time>
      </trkpt>
      <trkpt lat="43.44425" lon="-0.00027">
        <ele>210.19</ele>
        <time>2021-08-19T12:48:42Z</time>
      </trkpt>
      <trkpt lat="43.44417" lon="-0.00039">
        <ele>211.63</ele>
        <time>2021-08-19T12:48:51Z</time>
      </trkpt>
      <trkpt lat="43.44407" lon="-0.00049">
        <ele>212.11</ele>
        <time>2021-08-19T12:48:59Z</time>
      </trkpt>
      <trkpt lat="43.44395" lon="-0.00055">
        <ele>213.07</ele>
        <time>2021-08-19T12:49:06Z</time>
      </trkpt>
      <trkpt lat="43.44379" lon="-0.00062">
        <ele>213.55</ele>
        <time>2021-08-19T12:49:14Z</time>
      </trkpt>
      <trkpt lat="43.44354" lon="-0.00063">
        <ele>214.99</ele>
        <time>2021-08-19T12:49:24Z</time>
      </trkpt>
      <trkpt lat="43.44338" lon="-0.0006">
        <ele>215.95</ele>
        <time>2021-08-19T12:49:32Z</time>
      </trkpt>
      <trkpt lat="43.44322" lon="-0.00059">
        <ele>216.43</ele>
        <time>2021-08-19T12:49:39Z</time>
      </trkpt>
      <trkpt lat="43.44307" lon="-0.00059">
        <ele>216.91</ele>
        <time>2021-08-19T12:49:46Z</time>
      </trkpt>
      <trkpt lat="43.44292" lon="-0.00061">
        <ele>218.36</ele>
        <time>2021-08-19T12:49:54Z</time>
      </trkpt>
      <trkpt lat="43.4428" lon="-0.00062">
        <ele>219.32</ele>
        <time>2021-08-19T12:50:01Z</time>
      </trkpt>
      <trkpt lat="43.4427" lon="-0.00062">
        <ele>220.28</ele>
        <time>2021-08-19T12:50:07Z</time>
      </trkpt>
      <trkpt lat="43.44268" lon="-0.00062">
        <ele>220.76</ele>
        <time>2021-08-19T12:50:08Z</time>
      </trkpt>
      <trkpt lat="43.44258" lon="-0.00059">
        <ele>221.72</ele>
        <time>2021-08-19T12:50:15Z</time>
      </trkpt>
      <trkpt lat="43.44256" lon="-0.00059">
        <ele>222.2</ele>
        <time>2021-08-19T12:50:16Z</time>
      </trkpt>
      <trkpt lat="43.44243" lon="-0.00055">
        <ele>223.64</ele>
        <time>2021-08-19T12:50:25Z</time>
      </trkpt>
      <trkpt lat="43.44228" lon="-0.00048">
        <ele>225.09</ele>
        <time>2021-08-19T12:50:35Z</time>
      </trkpt>
      <trkpt lat="43.44212" lon="-0.00041">
        <ele>227.01</ele>
        <time>2021-08-19T12:50:44Z</time>
      </trkpt>
      <trkpt lat="43.44195" lon="-0.00038">
        <ele>228.45</ele>
        <time>2021-08-19T12:50:53Z</time>
      </trkpt>
      <trkpt lat="43.44177" lon="-0.00032">
        <ele>229.89</ele>
        <time>2021-08-19T12:51:02Z</time>
      </trkpt>
      <trkpt lat="43.44159" lon="-0.00025">
        <ele>230.85</ele>
        <time>2021-08-19T12:51:10Z</time>
      </trkpt>
      <trkpt lat="43.4414" lon="-0.00027">
        <ele>231.81</ele>
        <time>2021-08-19T12:51:18Z</time>
      </trkpt>
      <trkpt lat="43.44126" lon="-0.00034">
        <ele>233.26</ele>
        <time>2021-08-19T12:51:26Z</time>
      </trkpt>
      <trkpt lat="43.44116" lon="-0.00037">
        <ele>234.22</ele>
        <time>2021-08-19T12:51:32Z</time>
      </trkpt>
      <trkpt lat="43.44114" lon="-0.00037">
        <ele>234.7</ele>
        <time>2021-08-19T12:51:33Z</time>
      </trkpt>
      <trkpt lat="43.44094" lon="-0.0004">
        <ele>236.62</ele>
        <time>2021-08-19T12:51:41Z</time>
      </trkpt>
      <trkpt lat="43.44069" lon="-0.00045">
        <ele>236.62</ele>
        <time>2021-08-19T12:51:49Z</time>
      </trkpt>
      <trkpt lat="43.4405" lon="-0.00047">
        <ele>236.62</ele>
        <time>2021-08-19T12:51:55Z</time>
      </trkpt>
      <trkpt lat="43.4403" lon="-0.00051">
        <ele>237.1</ele>
        <time>2021-08-19T12:52:01Z</time>
      </trkpt>
      <trkpt lat="43.44011" lon="-0.00058">
        <ele>238.06</ele>
        <time>2021-08-19T12:52:07Z</time>
      </trkpt>
      <trkpt lat="43.43989" lon="-0.00071">
        <ele>239.51</ele>
        <time>2021-08-19T12:52:14Z</time>
      </trkpt>
      <trkpt lat="43.43969" lon="-0.00085">
        <ele>240.47</ele>
        <time>2021-08-19T12:52:21Z</time>
      </trkpt>
      <trkpt lat="43.43946" lon="-0.00105">
        <ele>241.91</ele>
        <time>2021-08-19T12:52:30Z</time>
      </trkpt>
      <trkpt lat="43.43928" lon="-0.00118">
        <ele>243.35</ele>
        <time>2021-08-19T12:52:38Z</time>
      </trkpt>
      <trkpt lat="43.4391" lon="-0.00127">
        <ele>244.79</ele>
        <time>2021-08-19T12:52:46Z</time>
      </trkpt>
      <trkpt lat="43.43898" lon="-0.00131">
        <ele>245.75</ele>
        <time>2021-08-19T12:52:52Z</time>
      </trkpt>
      <trkpt lat="43.43884" lon="-0.00133">
        <ele>247.2</ele>
        <time>2021-08-19T12:52:59Z</time>
      </trkpt>
      <trkpt lat="43.43866" lon="-0.00135">
        <ele>248.16</ele>
        <time>2021-08-19T12:53:08Z</time>
      </trkpt>
      <trkpt lat="43.43851" lon="-0.00137">
        <ele>250.56</ele>
        <time>2021-08-19T12:53:16Z</time>
      </trkpt>
      <trkpt lat="43.43836" lon="-0.00141">
        <ele>251.52</ele>
        <time>2021-08-19T12:53:24Z</time>
      </trkpt>
      <trkpt lat="43.43832" lon="-0.00142">
        <ele>252</ele>
        <time>2021-08-19T12:53:26Z</time>
      </trkpt>
      <trkpt lat="43.4383" lon="-0.00142">
        <ele>252.48</ele>
        <time>2021-08-19T12:53:27Z</time>
      </trkpt>
      <trkpt lat="43.43817" lon="-0.00146">
        <ele>253.93</ele>
        <time>2021-08-19T12:53:35Z</time>
      </trkpt>
      <trkpt lat="43.43806" lon="-0.0015">
        <ele>254.89</ele>
        <time>2021-08-19T12:53:42Z</time>
      </trkpt>
      <trkpt lat="43.43793" lon="-0.00151">
        <ele>255.85</ele>
        <time>2021-08-19T12:53:49Z</time>
      </trkpt>
      <trkpt lat="43.43792" lon="-0.0015">
        <ele>256.33</ele>
        <time>2021-08-19T12:53:50Z</time>
      </trkpt>
      <trkpt lat="43.43791" lon="-0.0015">
        <ele>256.33</ele>
        <time>2021-08-19T12:53:51Z</time>
      </trkpt>
      <trkpt lat="43.43777" lon="-0.00145">
        <ele>257.29</ele>
        <time>2021-08-19T12:53:58Z</time>
      </trkpt>
      <trkpt lat="43.43761" lon="-0.00139">
        <ele>258.73</ele>
        <time>2021-08-19T12:54:07Z</time>
      </trkpt>
      <trkpt lat="43.43747" lon="-0.00136">
        <ele>259.69</ele>
        <time>2021-08-19T12:54:14Z</time>
      </trkpt>
      <trkpt lat="43.4373" lon="-0.00145">
        <ele>260.65</ele>
        <time>2021-08-19T12:54:22Z</time>
      </trkpt>
      <trkpt lat="43.43715" lon="-0.00158">
        <ele>262.1</ele>
        <time>2021-08-19T12:54:31Z</time>
      </trkpt>
      <trkpt lat="43.43706" lon="-0.00166">
        <ele>264.5</ele>
        <time>2021-08-19T12:54:38Z</time>
      </trkpt>
      <trkpt lat="43.43697" lon="-0.00171">
        <ele>265.46</ele>
        <time>2021-08-19T12:54:44Z</time>
      </trkpt>
      <trkpt lat="43.43685" lon="-0.00177">
        <ele>265.94</ele>
        <time>2021-08-19T12:54:50Z</time>
      </trkpt>
      <trkpt lat="43.43673" lon="-0.00182">
        <ele>266.42</ele>
        <time>2021-08-19T12:54:56Z</time>
      </trkpt>
      <trkpt lat="43.43662" lon="-0.00186">
        <ele>267.86</ele>
        <time>2021-08-19T12:55:03Z</time>
      </trkpt>
      <trkpt lat="43.43648" lon="-0.00191">
        <ele>268.83</ele>
        <time>2021-08-19T12:55:10Z</time>
      </trkpt>
      <trkpt lat="43.43632" lon="-0.00197">
        <ele>269.79</ele>
        <time>2021-08-19T12:55:17Z</time>
      </trkpt>
      <trkpt lat="43.43618" lon="-0.00201">
        <ele>271.23</ele>
        <time>2021-08-19T12:55:24Z</time>
      </trkpt>
      <trkpt lat="43.43597" lon="-0.00212">
        <ele>272.19</ele>
        <time>2021-08-19T12:55:32Z</time>
      </trkpt>
      <trkpt lat="43.43578" lon="-0.00219">
        <ele>274.11</ele>
        <time>2021-08-19T12:55:40Z</time>
      </trkpt>
      <trkpt lat="43.43557" lon="-0.00227">
        <ele>275.07</ele>
        <time>2021-08-19T12:55:49Z</time>
      </trkpt>
      <trkpt lat="43.43541" lon="-0.00233">
        <ele>277</ele>
        <time>2021-08-19T12:55:57Z</time>
      </trkpt>
      <trkpt lat="43.43522" lon="-0.0024">
        <ele>278.92</ele>
        <time>2021-08-19T12:56:06Z</time>
      </trkpt>
      <trkpt lat="43.4351" lon="-0.00252">
        <ele>279.88</ele>
        <time>2021-08-19T12:56:13Z</time>
      </trkpt>
      <trkpt lat="43.43496" lon="-0.00267">
        <ele>280.84</ele>
        <time>2021-08-19T12:56:20Z</time>
      </trkpt>
      <trkpt lat="43.43482" lon="-0.00281">
        <ele>282.28</ele>
        <time>2021-08-19T12:56:28Z</time>
      </trkpt>
      <trkpt lat="43.43478" lon="-0.00287">
        <ele>282.77</ele>
        <time>2021-08-19T12:56:31Z</time>
      </trkpt>
      <trkpt lat="43.43478" lon="-0.00289">
        <ele>282.77</ele>
        <time>2021-08-19T12:56:32Z</time>
      </trkpt>
      <trkpt lat="43.43477" lon="-0.00291">
        <ele>283.25</ele>
        <time>2021-08-19T12:56:33Z</time>
      </trkpt>
      <trkpt lat="43.43475" lon="-0.00292">
        <ele>283.25</ele>
        <time>2021-08-19T12:56:34Z</time>
      </trkpt>
      <trkpt lat="43.43473" lon="-0.00293">
        <ele>283.25</ele>
        <time>2021-08-19T12:56:35Z</time>
      </trkpt>
      <trkpt lat="43.43464" lon="-0.00307">
        <ele>284.69</ele>
        <time>2021-08-19T12:56:41Z</time>
      </trkpt>
      <trkpt lat="43.43455" lon="-0.00325">
        <ele>286.61</ele>
        <time>2021-08-19T12:56:49Z</time>
      </trkpt>
      <trkpt lat="43.43446" lon="-0.00343">
        <ele>288.05</ele>
        <time>2021-08-19T12:56:57Z</time>
      </trkpt>
      <trkpt lat="43.43437" lon="-0.00359">
        <ele>290.46</ele>
        <time>2021-08-19T12:57:04Z</time>
      </trkpt>
      <trkpt lat="43.43427" lon="-0.00372">
        <ele>291.42</ele>
        <time>2021-08-19T12:57:09Z</time>
      </trkpt>
      <trkpt lat="43.43426" lon="-0.00373">
        <ele>291.42</ele>
        <time>2021-08-19T12:57:10Z</time>
      </trkpt>
      <trkpt lat="43.43425" lon="-0.00375">
        <ele>291.42</ele>
        <time>2021-08-19T12:57:11Z</time>
      </trkpt>
      <trkpt lat="43.43415" lon="-0.00389">
        <ele>292.38</ele>
        <time>2021-08-19T12:57:17Z</time>
      </trkpt>
      <trkpt lat="43.43398" lon="-0.00405">
        <ele>294.3</ele>
        <time>2021-08-19T12:57:26Z</time>
      </trkpt>
      <trkpt lat="43.43387" lon="-0.00416">
        <ele>295.26</ele>
        <time>2021-08-19T12:57:33Z</time>
      </trkpt>
      <trkpt lat="43.43373" lon="-0.00427">
        <ele>296.7</ele>
        <time>2021-08-19T12:57:41Z</time>
      </trkpt>
      <trkpt lat="43.43358" lon="-0.00433">
        <ele>298.15</ele>
        <time>2021-08-19T12:57:49Z</time>
      </trkpt>
      <trkpt lat="43.4334" lon="-0.00438">
        <ele>299.59</ele>
        <time>2021-08-19T12:57:58Z</time>
      </trkpt>
      <trkpt lat="43.4332" lon="-0.00444">
        <ele>301.51</ele>
        <time>2021-08-19T12:58:07Z</time>
      </trkpt>
      <trkpt lat="43.43295" lon="-0.00448">
        <ele>302.95</ele>
        <time>2021-08-19T12:58:17Z</time>
      </trkpt>
      <trkpt lat="43.4328" lon="-0.00451">
        <ele>303.43</ele>
        <time>2021-08-19T12:58:24Z</time>
      </trkpt>
      <trkpt lat="43.43264" lon="-0.00454">
        <ele>305.36</ele>
        <time>2021-08-19T12:58:31Z</time>
      </trkpt>
      <trkpt lat="43.43247" lon="-0.00456">
        <ele>305.84</ele>
        <time>2021-08-19T12:58:38Z</time>
      </trkpt>
      <trkpt lat="43.43224" lon="-0.0046">
        <ele>306.32</ele>
        <time>2021-08-19T12:58:47Z</time>
      </trkpt>
      <trkpt lat="43.432" lon="-0.00465">
        <ele>306.32</ele>
        <time>2021-08-19T12:58:56Z</time>
      </trkpt>
      <trkpt lat="43.43174" lon="-0.00467">
        <ele>306.32</ele>
        <time>2021-08-19T12:59:04Z</time>
      </trkpt>
      <trkpt lat="43.43163" lon="-0.00472">
        <ele>306.32</ele>
        <time>2021-08-19T12:59:07Z</time>
      </trkpt>
      <trkpt lat="43.43161" lon="-0.00475">
        <ele>306.32</ele>
        <time>2021-08-19T12:59:08Z</time>
      </trkpt>
      <trkpt lat="43.43161" lon="-0.00479">
        <ele>306.32</ele>
        <time>2021-08-19T12:59:09Z</time>
      </trkpt>
      <trkpt lat="43.43164" lon="-0.00506">
        <ele>306.32</ele>
        <time>2021-08-19T12:59:15Z</time>
      </trkpt>
      <trkpt lat="43.43163" lon="-0.00512">
        <ele>306.32</ele>
        <time>2021-08-19T12:59:16Z</time>
      </trkpt>
      <trkpt lat="43.43161" lon="-0.00516">
        <ele>306.32</ele>
        <time>2021-08-19T12:59:17Z</time>
      </trkpt>
      <trkpt lat="43.43157" lon="-0.0052">
        <ele>306.32</ele>
        <time>2021-08-19T12:59:18Z</time>
      </trkpt>
      <trkpt lat="43.43154" lon="-0.00523">
        <ele>306.32</ele>
        <time>2021-08-19T12:59:19Z</time>
      </trkpt>
      <trkpt lat="43.4312" lon="-0.00548">
        <ele>306.32</ele>
        <time>2021-08-19T12:59:28Z</time>
      </trkpt>
      <trkpt lat="43.43108" lon="-0.00559">
        <ele>306.32</ele>
        <time>2021-08-19T12:59:31Z</time>
      </trkpt>
      <trkpt lat="43.43104" lon="-0.00564">
        <ele>306.32</ele>
        <time>2021-08-19T12:59:32Z</time>
      </trkpt>
      <trkpt lat="43.43065" lon="-0.00625">
        <ele>304.88</ele>
        <time>2021-08-19T12:59:42Z</time>
      </trkpt>
      <trkpt lat="43.43056" lon="-0.00636">
        <ele>304.88</ele>
        <time>2021-08-19T12:59:44Z</time>
      </trkpt>
      <trkpt lat="43.4301" lon="-0.00676">
        <ele>303.91</ele>
        <time>2021-08-19T12:59:52Z</time>
      </trkpt>
      <trkpt lat="43.42967" lon="-0.00708">
        <ele>303.43</ele>
        <time>2021-08-19T12:59:59Z</time>
      </trkpt>
      <trkpt lat="43.42912" lon="-0.00751">
        <ele>303.43</ele>
        <time>2021-08-19T13:00:08Z</time>
      </trkpt>
      <trkpt lat="43.42858" lon="-0.00792">
        <ele>303.43</ele>
        <time>2021-08-19T13:00:17Z</time>
      </trkpt>
      <trkpt lat="43.42795" lon="-0.00831">
        <ele>303.43</ele>
        <time>2021-08-19T13:00:27Z</time>
      </trkpt>
      <trkpt lat="43.42762" lon="-0.0086">
        <ele>303.43</ele>
        <time>2021-08-19T13:00:33Z</time>
      </trkpt>
      <trkpt lat="43.42728" lon="-0.00914">
        <ele>303.43</ele>
        <time>2021-08-19T13:00:41Z</time>
      </trkpt>
      <trkpt lat="43.42716" lon="-0.00937">
        <ele>303.43</ele>
        <time>2021-08-19T13:00:44Z</time>
      </trkpt>
      <trkpt lat="43.42687" lon="-0.00993">
        <ele>302.95</ele>
        <time>2021-08-19T13:00:51Z</time>
      </trkpt>
      <trkpt lat="43.42679" lon="-0.01005">
        <ele>304.39</ele>
        <time>2021-08-19T13:00:53Z</time>
      </trkpt>
      <trkpt lat="43.42657" lon="-0.01033">
        <ele>306.8</ele>
        <time>2021-08-19T13:00:59Z</time>
      </trkpt>
      <trkpt lat="43.42628" lon="-0.01067">
        <ele>308.24</ele>
        <time>2021-08-19T13:01:09Z</time>
      </trkpt>
      <trkpt lat="43.42596" lon="-0.01104">
        <ele>309.2</ele>
        <time>2021-08-19T13:01:19Z</time>
      </trkpt>
      <trkpt lat="43.42563" lon="-0.01142">
        <ele>310.16</ele>
        <time>2021-08-19T13:01:29Z</time>
      </trkpt>
      <trkpt lat="43.42559" lon="-0.01145">
        <ele>310.16</ele>
        <time>2021-08-19T13:01:30Z</time>
      </trkpt>
      <trkpt lat="43.42554" lon="-0.01148">
        <ele>310.16</ele>
        <time>2021-08-19T13:01:31Z</time>
      </trkpt>
      <trkpt lat="43.42538" lon="-0.01171">
        <ele>310.16</ele>
        <time>2021-08-19T13:01:37Z</time>
      </trkpt>
      <trkpt lat="43.42519" lon="-0.01209">
        <ele>310.16</ele>
        <time>2021-08-19T13:01:44Z</time>
      </trkpt>
      <trkpt lat="43.42496" lon="-0.01257">
        <ele>311.6</ele>
        <time>2021-08-19T13:01:53Z</time>
      </trkpt>
      <trkpt lat="43.42473" lon="-0.01308">
        <ele>311.6</ele>
        <time>2021-08-19T13:02:02Z</time>
      </trkpt>
      <trkpt lat="43.42443" lon="-0.01372">
        <ele>312.57</ele>
        <time>2021-08-19T13:02:13Z</time>
      </trkpt>
      <trkpt lat="43.42411" lon="-0.01434">
        <ele>312.09</ele>
        <time>2021-08-19T13:02:23Z</time>
      </trkpt>
      <trkpt lat="43.42382" lon="-0.01489">
        <ele>312.09</ele>
        <time>2021-08-19T13:02:31Z</time>
      </trkpt>
      <trkpt lat="43.42352" lon="-0.01544">
        <ele>311.12</ele>
        <time>2021-08-19T13:02:39Z</time>
      </trkpt>
      <trkpt lat="43.42344" lon="-0.01557">
        <ele>311.12</ele>
        <time>2021-08-19T13:02:41Z</time>
      </trkpt>
      <trkpt lat="43.42341" lon="-0.01563">
        <ele>311.12</ele>
        <time>2021-08-19T13:02:42Z</time>
      </trkpt>
      <trkpt lat="43.42319" lon="-0.01604">
        <ele>311.12</ele>
        <time>2021-08-19T13:02:49Z</time>
      </trkpt>
      <trkpt lat="43.42314" lon="-0.01605">
        <ele>311.12</ele>
        <time>2021-08-19T13:02:50Z</time>
      </trkpt>
      <trkpt lat="43.42311" lon="-0.01602">
        <ele>311.12</ele>
        <time>2021-08-19T13:02:51Z</time>
      </trkpt>
      <trkpt lat="43.42308" lon="-0.01598">
        <ele>311.12</ele>
        <time>2021-08-19T13:02:52Z</time>
      </trkpt>
      <trkpt lat="43.42307" lon="-0.01593">
        <ele>311.12</ele>
        <time>2021-08-19T13:02:53Z</time>
      </trkpt>
      <trkpt lat="43.42306" lon="-0.01588">
        <ele>311.12</ele>
        <time>2021-08-19T13:02:54Z</time>
      </trkpt>
      <trkpt lat="43.42297" lon="-0.0154">
        <ele>311.12</ele>
        <time>2021-08-19T13:03:01Z</time>
      </trkpt>
      <trkpt lat="43.42284" lon="-0.0147">
        <ele>310.64</ele>
        <time>2021-08-19T13:03:10Z</time>
      </trkpt>
      <trkpt lat="43.42275" lon="-0.01419">
        <ele>311.6</ele>
        <time>2021-08-19T13:03:17Z</time>
      </trkpt>
      <trkpt lat="43.4226" lon="-0.0136">
        <ele>309.2</ele>
        <time>2021-08-19T13:03:25Z</time>
      </trkpt>
      <trkpt lat="43.4225" lon="-0.01321">
        <ele>305.84</ele>
        <time>2021-08-19T13:03:29Z</time>
      </trkpt>
      <trkpt lat="43.42246" lon="-0.01299">
        <ele>303.91</ele>
        <time>2021-08-19T13:03:31Z</time>
      </trkpt>
      <trkpt lat="43.42245" lon="-0.01286">
        <ele>302.95</ele>
        <time>2021-08-19T13:03:32Z</time>
      </trkpt>
      <trkpt lat="43.42246" lon="-0.01261">
        <ele>300.55</ele>
        <time>2021-08-19T13:03:34Z</time>
      </trkpt>
      <trkpt lat="43.42252" lon="-0.01221">
        <ele>297.18</ele>
        <time>2021-08-19T13:03:37Z</time>
      </trkpt>
      <trkpt lat="43.42262" lon="-0.01178">
        <ele>292.86</ele>
        <time>2021-08-19T13:03:40Z</time>
      </trkpt>
      <trkpt lat="43.42274" lon="-0.01136">
        <ele>289.49</ele>
        <time>2021-08-19T13:03:43Z</time>
      </trkpt>
      <trkpt lat="43.42284" lon="-0.01112">
        <ele>287.57</ele>
        <time>2021-08-19T13:03:45Z</time>
      </trkpt>
      <trkpt lat="43.4229" lon="-0.01103">
        <ele>287.09</ele>
        <time>2021-08-19T13:03:46Z</time>
      </trkpt>
      <trkpt lat="43.42309" lon="-0.01075">
        <ele>283.73</ele>
        <time>2021-08-19T13:03:49Z</time>
      </trkpt>
      <trkpt lat="43.42331" lon="-0.01048">
        <ele>280.36</ele>
        <time>2021-08-19T13:03:52Z</time>
      </trkpt>
      <trkpt lat="43.42339" lon="-0.01041">
        <ele>279.88</ele>
        <time>2021-08-19T13:03:53Z</time>
      </trkpt>
      <trkpt lat="43.42348" lon="-0.01035">
        <ele>278.92</ele>
        <time>2021-08-19T13:03:54Z</time>
      </trkpt>
      <trkpt lat="43.42368" lon="-0.01023">
        <ele>277.96</ele>
        <time>2021-08-19T13:03:57Z</time>
      </trkpt>
      <trkpt lat="43.42372" lon="-0.01017">
        <ele>277.48</ele>
        <time>2021-08-19T13:03:58Z</time>
      </trkpt>
      <trkpt lat="43.42373" lon="-0.01011">
        <ele>277</ele>
        <time>2021-08-19T13:03:59Z</time>
      </trkpt>
      <trkpt lat="43.42373" lon="-0.01005">
        <ele>277</ele>
        <time>2021-08-19T13:04:00Z</time>
      </trkpt>
      <trkpt lat="43.4237" lon="-0.01001">
        <ele>276.04</ele>
        <time>2021-08-19T13:04:01Z</time>
      </trkpt>
      <trkpt lat="43.42366" lon="-0.01">
        <ele>276.04</ele>
        <time>2021-08-19T13:04:02Z</time>
      </trkpt>
      <trkpt lat="43.42362" lon="-0.01002">
        <ele>275.56</ele>
        <time>2021-08-19T13:04:03Z</time>
      </trkpt>
      <trkpt lat="43.42358" lon="-0.01005">
        <ele>274.59</ele>
        <time>2021-08-19T13:04:04Z</time>
      </trkpt>
      <trkpt lat="43.42354" lon="-0.01008">
        <ele>274.59</ele>
        <time>2021-08-19T13:04:05Z</time>
      </trkpt>
      <trkpt lat="43.42349" lon="-0.01012">
        <ele>274.11</ele>
        <time>2021-08-19T13:04:06Z</time>
      </trkpt>
      <trkpt lat="43.42343" lon="-0.01016">
        <ele>273.63</ele>
        <time>2021-08-19T13:04:07Z</time>
      </trkpt>
      <trkpt lat="43.42337" lon="-0.01018">
        <ele>273.15</ele>
        <time>2021-08-19T13:04:08Z</time>
      </trkpt>
      <trkpt lat="43.42303" lon="-0.01026">
        <ele>269.79</ele>
        <time>2021-08-19T13:04:13Z</time>
      </trkpt>
      <trkpt lat="43.42287" lon="-0.01025">
        <ele>268.35</ele>
        <time>2021-08-19T13:04:15Z</time>
      </trkpt>
      <trkpt lat="43.42279" lon="-0.01023">
        <ele>266.9</ele>
        <time>2021-08-19T13:04:16Z</time>
      </trkpt>
      <trkpt lat="43.42272" lon="-0.01019">
        <ele>265.94</ele>
        <time>2021-08-19T13:04:17Z</time>
      </trkpt>
      <trkpt lat="43.4224" lon="-0.00999">
        <ele>262.58</ele>
        <time>2021-08-19T13:04:21Z</time>
      </trkpt>
      <trkpt lat="43.42215" lon="-0.00983">
        <ele>259.21</ele>
        <time>2021-08-19T13:04:24Z</time>
      </trkpt>
      <trkpt lat="43.42188" lon="-0.00968">
        <ele>256.33</ele>
        <time>2021-08-19T13:04:27Z</time>
      </trkpt>
      <trkpt lat="43.42148" lon="-0.00946">
        <ele>253.44</ele>
        <time>2021-08-19T13:04:32Z</time>
      </trkpt>
      <trkpt lat="43.42144" lon="-0.0094">
        <ele>252.96</ele>
        <time>2021-08-19T13:04:33Z</time>
      </trkpt>
      <trkpt lat="43.42142" lon="-0.00932">
        <ele>252</ele>
        <time>2021-08-19T13:04:34Z</time>
      </trkpt>
      <trkpt lat="43.42142" lon="-0.00923">
        <ele>251.04</ele>
        <time>2021-08-19T13:04:35Z</time>
      </trkpt>
      <trkpt lat="43.42144" lon="-0.00912">
        <ele>250.08</ele>
        <time>2021-08-19T13:04:36Z</time>
      </trkpt>
      <trkpt lat="43.42146" lon="-0.00902">
        <ele>249.12</ele>
        <time>2021-08-19T13:04:37Z</time>
      </trkpt>
      <trkpt lat="43.42149" lon="-0.00891">
        <ele>248.16</ele>
        <time>2021-08-19T13:04:38Z</time>
      </trkpt>
      <trkpt lat="43.42154" lon="-0.0088">
        <ele>246.72</ele>
        <time>2021-08-19T13:04:39Z</time>
      </trkpt>
      <trkpt lat="43.4216" lon="-0.00869">
        <ele>245.75</ele>
        <time>2021-08-19T13:04:40Z</time>
      </trkpt>
      <trkpt lat="43.42172" lon="-0.00846">
        <ele>242.87</ele>
        <time>2021-08-19T13:04:42Z</time>
      </trkpt>
      <trkpt lat="43.42177" lon="-0.00832">
        <ele>241.43</ele>
        <time>2021-08-19T13:04:43Z</time>
      </trkpt>
      <trkpt lat="43.42182" lon="-0.00817">
        <ele>239.99</ele>
        <time>2021-08-19T13:04:44Z</time>
      </trkpt>
      <trkpt lat="43.4219" lon="-0.00786">
        <ele>236.14</ele>
        <time>2021-08-19T13:04:46Z</time>
      </trkpt>
      <trkpt lat="43.42199" lon="-0.00745">
        <ele>233.26</ele>
        <time>2021-08-19T13:04:49Z</time>
      </trkpt>
      <trkpt lat="43.42199" lon="-0.00733">
        <ele>233.26</ele>
        <time>2021-08-19T13:04:50Z</time>
      </trkpt>
      <trkpt lat="43.42197" lon="-0.00722">
        <ele>232.3</ele>
        <time>2021-08-19T13:04:51Z</time>
      </trkpt>
      <trkpt lat="43.42192" lon="-0.00711">
        <ele>230.85</ele>
        <time>2021-08-19T13:04:52Z</time>
      </trkpt>
      <trkpt lat="43.42185" lon="-0.00702">
        <ele>229.41</ele>
        <time>2021-08-19T13:04:53Z</time>
      </trkpt>
      <trkpt lat="43.42177" lon="-0.00694">
        <ele>228.45</ele>
        <time>2021-08-19T13:04:54Z</time>
      </trkpt>
      <trkpt lat="43.42167" lon="-0.00686">
        <ele>226.53</ele>
        <time>2021-08-19T13:04:55Z</time>
      </trkpt>
      <trkpt lat="43.42139" lon="-0.00659">
        <ele>223.16</ele>
        <time>2021-08-19T13:04:58Z</time>
      </trkpt>
      <trkpt lat="43.42131" lon="-0.00648">
        <ele>221.72</ele>
        <time>2021-08-19T13:04:59Z</time>
      </trkpt>
      <trkpt lat="43.42124" lon="-0.00636">
        <ele>221.24</ele>
        <time>2021-08-19T13:05:00Z</time>
      </trkpt>
      <trkpt lat="43.42117" lon="-0.00623">
        <ele>220.28</ele>
        <time>2021-08-19T13:05:01Z</time>
      </trkpt>
      <trkpt lat="43.42109" lon="-0.00611">
        <ele>220.76</ele>
        <time>2021-08-19T13:05:02Z</time>
      </trkpt>
      <trkpt lat="43.421" lon="-0.00601">
        <ele>220.28</ele>
        <time>2021-08-19T13:05:03Z</time>
      </trkpt>
      <trkpt lat="43.42091" lon="-0.00592">
        <ele>219.8</ele>
        <time>2021-08-19T13:05:04Z</time>
      </trkpt>
      <trkpt lat="43.42013" lon="-0.00515">
        <ele>216.91</ele>
        <time>2021-08-19T13:05:13Z</time>
      </trkpt>
      <trkpt lat="43.41971" lon="-0.00462">
        <ele>215.95</ele>
        <time>2021-08-19T13:05:19Z</time>
      </trkpt>
      <trkpt lat="43.41949" lon="-0.00433">
        <ele>215.47</ele>
        <time>2021-08-19T13:05:23Z</time>
      </trkpt>
      <trkpt lat="43.41944" lon="-0.00428">
        <ele>216.91</ele>
        <time>2021-08-19T13:05:24Z</time>
      </trkpt>
      <trkpt lat="43.41902" lon="-0.00404">
        <ele>216.91</ele>
        <time>2021-08-19T13:05:31Z</time>
      </trkpt>
      <trkpt lat="43.41857" lon="-0.00389">
        <ele>217.4</ele>
        <time>2021-08-19T13:05:39Z</time>
      </trkpt>
      <trkpt lat="43.41845" lon="-0.00387">
        <ele>217.88</ele>
        <time>2021-08-19T13:05:43Z</time>
      </trkpt>
      <trkpt lat="43.41845" lon="-0.00386">
        <ele>217.88</ele>
        <time>2021-08-19T13:05:48Z</time>
      </trkpt>
      <trkpt lat="43.41846" lon="-0.00386">
        <ele>217.4</ele>
        <time>2021-08-19T13:06:07Z</time>
      </trkpt>
      <trkpt lat="43.41845" lon="-0.00386">
        <ele>217.4</ele>
        <time>2021-08-19T13:06:20Z</time>
      </trkpt>
      <trkpt lat="43.41846" lon="-0.00386">
        <ele>217.4</ele>
        <time>2021-08-19T13:06:36Z</time>
      </trkpt>
      <trkpt lat="43.41845" lon="-0.00387">
        <ele>217.4</ele>
        <time>2021-08-19T13:06:42Z</time>
      </trkpt>
      <trkpt lat="43.41845" lon="-0.00388">
        <ele>217.4</ele>
        <time>2021-08-19T13:06:56Z</time>
      </trkpt>
      <trkpt lat="43.41845" lon="-0.00388">
        <ele>217.4</ele>
        <time>2021-08-19T13:07:12Z</time>
      </trkpt>
      <trkpt lat="43.41844" lon="-0.00387">
        <ele>217.4</ele>
        <time>2021-08-19T13:07:28Z</time>
      </trkpt>
      <trkpt lat="43.41843" lon="-0.00387">
        <ele>217.88</ele>
        <time>2021-08-19T13:07:47Z</time>
      </trkpt>
      <trkpt lat="43.41844" lon="-0.00387">
        <ele>217.88</ele>
        <time>2021-08-19T13:08:02Z</time>
      </trkpt>
      <trkpt lat="43.41844" lon="-0.00387">
        <ele>217.88</ele>
        <time>2021-08-19T13:08:19Z</time>
      </trkpt>
      <trkpt lat="43.41844" lon="-0.00384">
        <ele>217.88</ele>
        <time>2021-08-19T13:08:32Z</time>
      </trkpt>
      <trkpt lat="43.41843" lon="-0.00384">
        <ele>217.4</ele>
        <time>2021-08-19T13:08:41Z</time>
      </trkpt>
      <trkpt lat="43.41843" lon="-0.00384">
        <ele>217.4</ele>
        <time>2021-08-19T13:08:53Z</time>
      </trkpt>
      <trkpt lat="43.4184" lon="-0.00381">
        <ele>217.4</ele>
        <time>2021-08-19T13:09:01Z</time>
      </trkpt>
      <trkpt lat="43.41825" lon="-0.00372">
        <ele>217.4</ele>
        <time>2021-08-19T13:09:09Z</time>
      </trkpt>
      <trkpt lat="43.41819" lon="-0.00371">
        <ele>217.4</ele>
        <time>2021-08-19T13:09:15Z</time>
      </trkpt>
      <trkpt lat="43.41816" lon="-0.00369">
        <ele>217.88</ele>
        <time>2021-08-19T13:09:25Z</time>
      </trkpt>
      <trkpt lat="43.41796" lon="-0.00361">
        <ele>217.88</ele>
        <time>2021-08-19T13:09:32Z</time>
      </trkpt>
      <trkpt lat="43.4177" lon="-0.00353">
        <ele>217.88</ele>
        <time>2021-08-19T13:09:40Z</time>
      </trkpt>
      <trkpt lat="43.4175" lon="-0.00345">
        <ele>218.36</ele>
        <time>2021-08-19T13:09:47Z</time>
      </trkpt>
      <trkpt lat="43.41727" lon="-0.00337">
        <ele>218.36</ele>
        <time>2021-08-19T13:09:55Z</time>
      </trkpt>
      <trkpt lat="43.41704" lon="-0.00328">
        <ele>219.32</ele>
        <time>2021-08-19T13:10:03Z</time>
      </trkpt>
      <trkpt lat="43.41691" lon="-0.00322">
        <ele>220.28</ele>
        <time>2021-08-19T13:10:09Z</time>
      </trkpt>
      <trkpt lat="43.41681" lon="-0.00312">
        <ele>221.24</ele>
        <time>2021-08-19T13:10:16Z</time>
      </trkpt>
      <trkpt lat="43.41676" lon="-0.00306">
        <ele>222.2</ele>
        <time>2021-08-19T13:10:21Z</time>
      </trkpt>
      <trkpt lat="43.41668" lon="-0.00294">
        <ele>222.68</ele>
        <time>2021-08-19T13:10:27Z</time>
      </trkpt>
      <trkpt lat="43.4165" lon="-0.00285">
        <ele>223.64</ele>
        <time>2021-08-19T13:10:36Z</time>
      </trkpt>
      <trkpt lat="43.41635" lon="-0.00283">
        <ele>224.12</ele>
        <time>2021-08-19T13:10:43Z</time>
      </trkpt>
      <trkpt lat="43.41614" lon="-0.00281">
        <ele>224.61</ele>
        <time>2021-08-19T13:10:52Z</time>
      </trkpt>
      <trkpt lat="43.41599" lon="-0.00281">
        <ele>224.61</ele>
        <time>2021-08-19T13:10:59Z</time>
      </trkpt>
      <trkpt lat="43.41581" lon="-0.00276">
        <ele>224.61</ele>
        <time>2021-08-19T13:11:07Z</time>
      </trkpt>
      <trkpt lat="43.4156" lon="-0.00262">
        <ele>225.57</ele>
        <time>2021-08-19T13:11:17Z</time>
      </trkpt>
      <trkpt lat="43.41548" lon="-0.00255">
        <ele>225.57</ele>
        <time>2021-08-19T13:11:24Z</time>
      </trkpt>
      <trkpt lat="43.41531" lon="-0.00253">
        <ele>226.05</ele>
        <time>2021-08-19T13:11:31Z</time>
      </trkpt>
      <trkpt lat="43.41518" lon="-0.00253">
        <ele>227.01</ele>
        <time>2021-08-19T13:11:37Z</time>
      </trkpt>
      <trkpt lat="43.41506" lon="-0.00253">
        <ele>227.97</ele>
        <time>2021-08-19T13:11:45Z</time>
      </trkpt>
      <trkpt lat="43.41492" lon="-0.00251">
        <ele>228.93</ele>
        <time>2021-08-19T13:11:53Z</time>
      </trkpt>
      <trkpt lat="43.41484" lon="-0.00248">
        <ele>230.37</ele>
        <time>2021-08-19T13:12:00Z</time>
      </trkpt>
      <trkpt lat="43.41477" lon="-0.00242">
        <ele>230.85</ele>
        <time>2021-08-19T13:12:08Z</time>
      </trkpt>
      <trkpt lat="43.41474" lon="-0.00241">
        <ele>231.33</ele>
        <time>2021-08-19T13:12:16Z</time>
      </trkpt>
      <trkpt lat="43.41468" lon="-0.00237">
        <ele>231.33</ele>
        <time>2021-08-19T13:12:28Z</time>
      </trkpt>
      <trkpt lat="43.41464" lon="-0.00233">
        <ele>232.78</ele>
        <time>2021-08-19T13:12:36Z</time>
      </trkpt>
      <trkpt lat="43.41456" lon="-0.00228">
        <ele>234.22</ele>
        <time>2021-08-19T13:12:45Z</time>
      </trkpt>
      <trkpt lat="43.41451" lon="-0.00223">
        <ele>235.18</ele>
        <time>2021-08-19T13:12:52Z</time>
      </trkpt>
      <trkpt lat="43.41446" lon="-0.00218">
        <ele>236.62</ele>
        <time>2021-08-19T13:13:00Z</time>
      </trkpt>
      <trkpt lat="43.41443" lon="-0.00212">
        <ele>237.58</ele>
        <time>2021-08-19T13:13:07Z</time>
      </trkpt>
      <trkpt lat="43.41441" lon="-0.00202">
        <ele>238.54</ele>
        <time>2021-08-19T13:13:16Z</time>
      </trkpt>
      <trkpt lat="43.41438" lon="-0.00196">
        <ele>239.99</ele>
        <time>2021-08-19T13:13:25Z</time>
      </trkpt>
      <trkpt lat="43.41432" lon="-0.00193">
        <ele>240.95</ele>
        <time>2021-08-19T13:13:34Z</time>
      </trkpt>
      <trkpt lat="43.41425" lon="-0.00188">
        <ele>243.35</ele>
        <time>2021-08-19T13:13:45Z</time>
      </trkpt>
      <trkpt lat="43.41419" lon="-0.00179">
        <ele>245.27</ele>
        <time>2021-08-19T13:13:55Z</time>
      </trkpt>
      <trkpt lat="43.41413" lon="-0.00175">
        <ele>246.23</ele>
        <time>2021-08-19T13:14:04Z</time>
      </trkpt>
      <trkpt lat="43.41408" lon="-0.00173">
        <ele>247.2</ele>
        <time>2021-08-19T13:14:11Z</time>
      </trkpt>
      <trkpt lat="43.41401" lon="-0.00168">
        <ele>248.64</ele>
        <time>2021-08-19T13:14:19Z</time>
      </trkpt>
      <trkpt lat="43.41395" lon="-0.00165">
        <ele>249.6</ele>
        <time>2021-08-19T13:14:27Z</time>
      </trkpt>
      <trkpt lat="43.4139" lon="-0.00156">
        <ele>251.04</ele>
        <time>2021-08-19T13:14:36Z</time>
      </trkpt>
      <trkpt lat="43.41386" lon="-0.00146">
        <ele>252</ele>
        <time>2021-08-19T13:14:45Z</time>
      </trkpt>
      <trkpt lat="43.41384" lon="-0.00143">
        <ele>252.96</ele>
        <time>2021-08-19T13:14:51Z</time>
      </trkpt>
      <trkpt lat="43.4138" lon="-0.00136">
        <ele>254.89</ele>
        <time>2021-08-19T13:15:00Z</time>
      </trkpt>
      <trkpt lat="43.41374" lon="-0.0013">
        <ele>255.85</ele>
        <time>2021-08-19T13:15:08Z</time>
      </trkpt>
      <trkpt lat="43.41371" lon="-0.00122">
        <ele>257.29</ele>
        <time>2021-08-19T13:15:17Z</time>
      </trkpt>
      <trkpt lat="43.41367" lon="-0.00115">
        <ele>258.25</ele>
        <time>2021-08-19T13:15:25Z</time>
      </trkpt>
      <trkpt lat="43.41366" lon="-0.00108">
        <ele>260.17</ele>
        <time>2021-08-19T13:15:34Z</time>
      </trkpt>
      <trkpt lat="43.41363" lon="-0.00102">
        <ele>261.62</ele>
        <time>2021-08-19T13:15:43Z</time>
      </trkpt>
      <trkpt lat="43.41356" lon="-0.00095">
        <ele>263.06</ele>
        <time>2021-08-19T13:15:52Z</time>
      </trkpt>
      <trkpt lat="43.41352" lon="-0.00086">
        <ele>264.5</ele>
        <time>2021-08-19T13:16:02Z</time>
      </trkpt>
      <trkpt lat="43.41347" lon="-0.00076">
        <ele>265.94</ele>
        <time>2021-08-19T13:16:12Z</time>
      </trkpt>
      <trkpt lat="43.4134" lon="-0.00063">
        <ele>266.9</ele>
        <time>2021-08-19T13:16:24Z</time>
      </trkpt>
      <trkpt lat="43.41339" lon="-0.00059">
        <ele>266.9</ele>
        <time>2021-08-19T13:16:30Z</time>
      </trkpt>
      <trkpt lat="43.41338" lon="-0.00057">
        <ele>267.38</ele>
        <time>2021-08-19T13:16:31Z</time>
      </trkpt>
      <trkpt lat="43.41337" lon="-0.00055">
        <ele>267.38</ele>
        <time>2021-08-19T13:16:32Z</time>
      </trkpt>
      <trkpt lat="43.41335" lon="-0.00052">
        <ele>267.38</ele>
        <time>2021-08-19T13:16:33Z</time>
      </trkpt>
      <trkpt lat="43.41334" lon="-0.00049">
        <ele>267.38</ele>
        <time>2021-08-19T13:16:34Z</time>
      </trkpt>
      <trkpt lat="43.41333" lon="-0.00047">
        <ele>267.86</ele>
        <time>2021-08-19T13:16:35Z</time>
      </trkpt>
      <trkpt lat="43.41329" lon="-0.00034">
        <ele>268.35</ele>
        <time>2021-08-19T13:16:40Z</time>
      </trkpt>
      <trkpt lat="43.41327" lon="-0.00031">
        <ele>268.35</ele>
        <time>2021-08-19T13:16:41Z</time>
      </trkpt>
      <trkpt lat="43.41325" lon="-0.00029">
        <ele>268.83</ele>
        <time>2021-08-19T13:16:42Z</time>
      </trkpt>
      <trkpt lat="43.41324" lon="-0.00028">
        <ele>268.83</ele>
        <time>2021-08-19T13:16:43Z</time>
      </trkpt>
      <trkpt lat="43.41323" lon="-0.00025">
        <ele>268.83</ele>
        <time>2021-08-19T13:16:44Z</time>
      </trkpt>
      <trkpt lat="43.41321" lon="-0.00022">
        <ele>268.83</ele>
        <time>2021-08-19T13:16:45Z</time>
      </trkpt>
      <trkpt lat="43.41305" lon="-7.0E-5">
        <ele>268.83</ele>
        <time>2021-08-19T13:16:51Z</time>
      </trkpt>
      <trkpt lat="43.41292" lon="-1.0E-5">
        <ele>268.83</ele>
        <time>2021-08-19T13:16:56Z</time>
      </trkpt>
      <trkpt lat="43.41275" lon="5.0E-5">
        <ele>268.83</ele>
        <time>2021-08-19T13:17:02Z</time>
      </trkpt>
      <trkpt lat="43.41258" lon="0.00016">
        <ele>269.31</ele>
        <time>2021-08-19T13:17:08Z</time>
      </trkpt>
      <trkpt lat="43.41248" lon="0.00021">
        <ele>270.75</ele>
        <time>2021-08-19T13:17:14Z</time>
      </trkpt>
      <trkpt lat="43.41241" lon="0.00026">
        <ele>271.71</ele>
        <time>2021-08-19T13:17:21Z</time>
      </trkpt>
      <trkpt lat="43.4124" lon="0.00025">
        <ele>271.71</ele>
        <time>2021-08-19T13:17:35Z</time>
      </trkpt>
      <trkpt lat="43.4124" lon="0.00022">
        <ele>271.71</ele>
        <time>2021-08-19T13:17:50Z</time>
      </trkpt>
      <trkpt lat="43.4123" lon="0.00026">
        <ele>273.15</ele>
        <time>2021-08-19T13:17:58Z</time>
      </trkpt>
      <trkpt lat="43.41224" lon="0.0003">
        <ele>273.63</ele>
        <time>2021-08-19T13:18:06Z</time>
      </trkpt>
      <trkpt lat="43.41219" lon="0.00034">
        <ele>274.59</ele>
        <time>2021-08-19T13:18:15Z</time>
      </trkpt>
      <trkpt lat="43.41214" lon="0.00039">
        <ele>275.56</ele>
        <time>2021-08-19T13:18:22Z</time>
      </trkpt>
      <trkpt lat="43.41204" lon="0.00046">
        <ele>276.52</ele>
        <time>2021-08-19T13:18:29Z</time>
      </trkpt>
      <trkpt lat="43.41195" lon="0.00051">
        <ele>277.96</ele>
        <time>2021-08-19T13:18:36Z</time>
      </trkpt>
      <trkpt lat="43.41186" lon="0.00056">
        <ele>278.92</ele>
        <time>2021-08-19T13:18:44Z</time>
      </trkpt>
      <trkpt lat="43.41178" lon="0.00061">
        <ele>279.88</ele>
        <time>2021-08-19T13:18:51Z</time>
      </trkpt>
      <trkpt lat="43.41168" lon="0.00069">
        <ele>281.32</ele>
        <time>2021-08-19T13:18:59Z</time>
      </trkpt>
      <trkpt lat="43.41161" lon="0.00076">
        <ele>282.77</ele>
        <time>2021-08-19T13:19:06Z</time>
      </trkpt>
      <trkpt lat="43.41157" lon="0.00079">
        <ele>284.21</ele>
        <time>2021-08-19T13:19:10Z</time>
      </trkpt>
      <trkpt lat="43.41148" lon="0.00088">
        <ele>285.65</ele>
        <time>2021-08-19T13:19:18Z</time>
      </trkpt>
      <trkpt lat="43.41141" lon="0.00093">
        <ele>288.05</ele>
        <time>2021-08-19T13:19:25Z</time>
      </trkpt>
      <trkpt lat="43.41131" lon="0.00103">
        <ele>289.01</ele>
        <time>2021-08-19T13:19:33Z</time>
      </trkpt>
      <trkpt lat="43.41123" lon="0.00111">
        <ele>290.46</ele>
        <time>2021-08-19T13:19:40Z</time>
      </trkpt>
      <trkpt lat="43.41115" lon="0.00118">
        <ele>291.9</ele>
        <time>2021-08-19T13:19:48Z</time>
      </trkpt>
      <trkpt lat="43.41098" lon="0.00124">
        <ele>292.86</ele>
        <time>2021-08-19T13:19:57Z</time>
      </trkpt>
      <trkpt lat="43.41086" lon="0.0013">
        <ele>294.3</ele>
        <time>2021-08-19T13:20:07Z</time>
      </trkpt>
      <trkpt lat="43.41079" lon="0.00135">
        <ele>296.22</ele>
        <time>2021-08-19T13:20:15Z</time>
      </trkpt>
      <trkpt lat="43.41073" lon="0.0014">
        <ele>297.67</ele>
        <time>2021-08-19T13:20:22Z</time>
      </trkpt>
      <trkpt lat="43.41065" lon="0.00145">
        <ele>299.59</ele>
        <time>2021-08-19T13:20:29Z</time>
      </trkpt>
      <trkpt lat="43.41061" lon="0.00147">
        <ele>300.07</ele>
        <time>2021-08-19T13:20:32Z</time>
      </trkpt>
      <trkpt lat="43.41059" lon="0.00147">
        <ele>300.55</ele>
        <time>2021-08-19T13:20:33Z</time>
      </trkpt>
      <trkpt lat="43.41057" lon="0.00149">
        <ele>301.03</ele>
        <time>2021-08-19T13:20:35Z</time>
      </trkpt>
      <trkpt lat="43.41047" lon="0.00154">
        <ele>302.47</ele>
        <time>2021-08-19T13:20:42Z</time>
      </trkpt>
      <trkpt lat="43.41037" lon="0.00158">
        <ele>304.88</ele>
        <time>2021-08-19T13:20:49Z</time>
      </trkpt>
      <trkpt lat="43.41035" lon="0.00158">
        <ele>304.88</ele>
        <time>2021-08-19T13:20:50Z</time>
      </trkpt>
      <trkpt lat="43.41033" lon="0.00159">
        <ele>305.36</ele>
        <time>2021-08-19T13:20:51Z</time>
      </trkpt>
      <trkpt lat="43.41031" lon="0.00159">
        <ele>305.36</ele>
        <time>2021-08-19T13:20:52Z</time>
      </trkpt>
      <trkpt lat="43.4103" lon="0.0016">
        <ele>305.84</ele>
        <time>2021-08-19T13:20:53Z</time>
      </trkpt>
      <trkpt lat="43.41021" lon="0.00165">
        <ele>307.28</ele>
        <time>2021-08-19T13:21:00Z</time>
      </trkpt>
      <trkpt lat="43.4101" lon="0.00174">
        <ele>308.72</ele>
        <time>2021-08-19T13:21:08Z</time>
      </trkpt>
      <trkpt lat="43.41" lon="0.00181">
        <ele>310.16</ele>
        <time>2021-08-19T13:21:15Z</time>
      </trkpt>
      <trkpt lat="43.40985" lon="0.00189">
        <ele>311.12</ele>
        <time>2021-08-19T13:21:23Z</time>
      </trkpt>
      <trkpt lat="43.40964" lon="0.00206">
        <ele>312.09</ele>
        <time>2021-08-19T13:21:31Z</time>
      </trkpt>
      <trkpt lat="43.40963" lon="0.00208">
        <ele>312.09</ele>
        <time>2021-08-19T13:21:32Z</time>
      </trkpt>
      <trkpt lat="43.40961" lon="0.0021">
        <ele>312.09</ele>
        <time>2021-08-19T13:21:33Z</time>
      </trkpt>
      <trkpt lat="43.4096" lon="0.00211">
        <ele>312.57</ele>
        <time>2021-08-19T13:21:34Z</time>
      </trkpt>
      <trkpt lat="43.40958" lon="0.00212">
        <ele>312.57</ele>
        <time>2021-08-19T13:21:35Z</time>
      </trkpt>
      <trkpt lat="43.40955" lon="0.00214">
        <ele>312.57</ele>
        <time>2021-08-19T13:21:36Z</time>
      </trkpt>
      <trkpt lat="43.40954" lon="0.00215">
        <ele>313.05</ele>
        <time>2021-08-19T13:21:37Z</time>
      </trkpt>
      <trkpt lat="43.40952" lon="0.00217">
        <ele>313.05</ele>
        <time>2021-08-19T13:21:38Z</time>
      </trkpt>
      <trkpt lat="43.4094" lon="0.00231">
        <ele>314.49</ele>
        <time>2021-08-19T13:21:46Z</time>
      </trkpt>
      <trkpt lat="43.40939" lon="0.00233">
        <ele>314.49</ele>
        <time>2021-08-19T13:21:47Z</time>
      </trkpt>
      <trkpt lat="43.40937" lon="0.00236">
        <ele>314.49</ele>
        <time>2021-08-19T13:21:49Z</time>
      </trkpt>
      <trkpt lat="43.40935" lon="0.00236">
        <ele>314.49</ele>
        <time>2021-08-19T13:21:50Z</time>
      </trkpt>
      <trkpt lat="43.40908" lon="0.00225">
        <ele>314.49</ele>
        <time>2021-08-19T13:21:57Z</time>
      </trkpt>
      <trkpt lat="43.40886" lon="0.0021">
        <ele>314.49</ele>
        <time>2021-08-19T13:22:04Z</time>
      </trkpt>
      <trkpt lat="43.40871" lon="0.00197">
        <ele>314.49</ele>
        <time>2021-08-19T13:22:10Z</time>
      </trkpt>
      <trkpt lat="43.40855" lon="0.00186">
        <ele>314.49</ele>
        <time>2021-08-19T13:22:16Z</time>
      </trkpt>
      <trkpt lat="43.40841" lon="0.0018">
        <ele>314.49</ele>
        <time>2021-08-19T13:22:22Z</time>
      </trkpt>
      <trkpt lat="43.40817" lon="0.00168">
        <ele>314.49</ele>
        <time>2021-08-19T13:22:30Z</time>
      </trkpt>
      <trkpt lat="43.40789" lon="0.00148">
        <ele>315.45</ele>
        <time>2021-08-19T13:22:39Z</time>
      </trkpt>
      <trkpt lat="43.40764" lon="0.00124">
        <ele>315.93</ele>
        <time>2021-08-19T13:22:47Z</time>
      </trkpt>
      <trkpt lat="43.4074" lon="0.00098">
        <ele>316.89</ele>
        <time>2021-08-19T13:22:55Z</time>
      </trkpt>
      <trkpt lat="43.40715" lon="0.00074">
        <ele>317.85</ele>
        <time>2021-08-19T13:23:03Z</time>
      </trkpt>
      <trkpt lat="43.40698" lon="0.0006">
        <ele>317.85</ele>
        <time>2021-08-19T13:23:09Z</time>
      </trkpt>
      <trkpt lat="43.40683" lon="0.00044">
        <ele>317.85</ele>
        <time>2021-08-19T13:23:13Z</time>
      </trkpt>
      <trkpt lat="43.40677" lon="0.00035">
        <ele>317.85</ele>
        <time>2021-08-19T13:23:15Z</time>
      </trkpt>
      <trkpt lat="43.4067" lon="0.00027">
        <ele>317.85</ele>
        <time>2021-08-19T13:23:17Z</time>
      </trkpt>
      <trkpt lat="43.40655" lon="0.00012">
        <ele>317.85</ele>
        <time>2021-08-19T13:23:21Z</time>
      </trkpt>
      <trkpt lat="43.40635" lon="-0.00016">
        <ele>317.85</ele>
        <time>2021-08-19T13:23:27Z</time>
      </trkpt>
      <trkpt lat="43.40621" lon="-0.00035">
        <ele>317.85</ele>
        <time>2021-08-19T13:23:31Z</time>
      </trkpt>
      <trkpt lat="43.40618" lon="-0.0004">
        <ele>318.33</ele>
        <time>2021-08-19T13:23:32Z</time>
      </trkpt>
      <trkpt lat="43.40615" lon="-0.00045">
        <ele>318.33</ele>
        <time>2021-08-19T13:23:33Z</time>
      </trkpt>
      <trkpt lat="43.40611" lon="-0.00049">
        <ele>318.33</ele>
        <time>2021-08-19T13:23:34Z</time>
      </trkpt>
      <trkpt lat="43.40607" lon="-0.00054">
        <ele>318.33</ele>
        <time>2021-08-19T13:23:35Z</time>
      </trkpt>
      <trkpt lat="43.40596" lon="-0.00066">
        <ele>318.33</ele>
        <time>2021-08-19T13:23:38Z</time>
      </trkpt>
      <trkpt lat="43.40592" lon="-0.0007">
        <ele>318.33</ele>
        <time>2021-08-19T13:23:39Z</time>
      </trkpt>
      <trkpt lat="43.40589" lon="-0.00075">
        <ele>318.33</ele>
        <time>2021-08-19T13:23:40Z</time>
      </trkpt>
      <trkpt lat="43.40585" lon="-0.0008">
        <ele>318.81</ele>
        <time>2021-08-19T13:23:41Z</time>
      </trkpt>
      <trkpt lat="43.40583" lon="-0.00083">
        <ele>318.81</ele>
        <time>2021-08-19T13:23:42Z</time>
      </trkpt>
      <trkpt lat="43.4057" lon="-0.00098">
        <ele>318.81</ele>
        <time>2021-08-19T13:23:45Z</time>
      </trkpt>
      <trkpt lat="43.40566" lon="-0.001">
        <ele>318.81</ele>
        <time>2021-08-19T13:23:46Z</time>
      </trkpt>
      <trkpt lat="43.40561" lon="-0.00102">
        <ele>318.81</ele>
        <time>2021-08-19T13:23:47Z</time>
      </trkpt>
      <trkpt lat="43.40557" lon="-0.00104">
        <ele>318.81</ele>
        <time>2021-08-19T13:23:48Z</time>
      </trkpt>
      <trkpt lat="43.40552" lon="-0.00105">
        <ele>318.81</ele>
        <time>2021-08-19T13:23:49Z</time>
      </trkpt>
      <trkpt lat="43.40547" lon="-0.00107">
        <ele>318.81</ele>
        <time>2021-08-19T13:23:50Z</time>
      </trkpt>
      <trkpt lat="43.40542" lon="-0.00109">
        <ele>318.81</ele>
        <time>2021-08-19T13:23:51Z</time>
      </trkpt>
      <trkpt lat="43.40538" lon="-0.00112">
        <ele>318.81</ele>
        <time>2021-08-19T13:23:52Z</time>
      </trkpt>
      <trkpt lat="43.40533" lon="-0.00114">
        <ele>318.81</ele>
        <time>2021-08-19T13:23:53Z</time>
      </trkpt>
      <trkpt lat="43.40529" lon="-0.00116">
        <ele>318.81</ele>
        <time>2021-08-19T13:23:54Z</time>
      </trkpt>
      <trkpt lat="43.4052" lon="-0.00121">
        <ele>318.81</ele>
        <time>2021-08-19T13:23:56Z</time>
      </trkpt>
      <trkpt lat="43.40516" lon="-0.00123">
        <ele>318.81</ele>
        <time>2021-08-19T13:23:57Z</time>
      </trkpt>
      <trkpt lat="43.40487" lon="-0.00138">
        <ele>318.81</ele>
        <time>2021-08-19T13:24:04Z</time>
      </trkpt>
      <trkpt lat="43.40459" lon="-0.00147">
        <ele>318.81</ele>
        <time>2021-08-19T13:24:11Z</time>
      </trkpt>
      <trkpt lat="43.40453" lon="-0.00147">
        <ele>318.81</ele>
        <time>2021-08-19T13:24:12Z</time>
      </trkpt>
      <trkpt lat="43.40448" lon="-0.00147">
        <ele>318.81</ele>
        <time>2021-08-19T13:24:13Z</time>
      </trkpt>
      <trkpt lat="43.40431" lon="-0.00148">
        <ele>317.85</ele>
        <time>2021-08-19T13:24:16Z</time>
      </trkpt>
      <trkpt lat="43.40425" lon="-0.00148">
        <ele>317.37</ele>
        <time>2021-08-19T13:24:17Z</time>
      </trkpt>
      <trkpt lat="43.40407" lon="-0.00147">
        <ele>317.37</ele>
        <time>2021-08-19T13:24:20Z</time>
      </trkpt>
      <trkpt lat="43.40391" lon="-0.00149">
        <ele>317.85</ele>
        <time>2021-08-19T13:24:23Z</time>
      </trkpt>
      <trkpt lat="43.40385" lon="-0.00148">
        <ele>317.85</ele>
        <time>2021-08-19T13:24:24Z</time>
      </trkpt>
      <trkpt lat="43.40363" lon="-0.00147">
        <ele>317.85</ele>
        <time>2021-08-19T13:24:28Z</time>
      </trkpt>
      <trkpt lat="43.40348" lon="-0.00147">
        <ele>318.81</ele>
        <time>2021-08-19T13:24:31Z</time>
      </trkpt>
      <trkpt lat="43.40309" lon="-0.00143">
        <ele>320.74</ele>
        <time>2021-08-19T13:24:40Z</time>
      </trkpt>
      <trkpt lat="43.4028" lon="-0.00139">
        <ele>321.7</ele>
        <time>2021-08-19T13:24:48Z</time>
      </trkpt>
      <trkpt lat="43.40256" lon="-0.00135">
        <ele>322.66</ele>
        <time>2021-08-19T13:24:55Z</time>
      </trkpt>
      <trkpt lat="43.40218" lon="-0.0013">
        <ele>323.14</ele>
        <time>2021-08-19T13:25:05Z</time>
      </trkpt>
      <trkpt lat="43.40197" lon="-0.00129">
        <ele>323.14</ele>
        <time>2021-08-19T13:25:10Z</time>
      </trkpt>
      <trkpt lat="43.40193" lon="-0.0013">
        <ele>323.14</ele>
        <time>2021-08-19T13:25:11Z</time>
      </trkpt>
      <trkpt lat="43.40189" lon="-0.00131">
        <ele>323.14</ele>
        <time>2021-08-19T13:25:12Z</time>
      </trkpt>
      <trkpt lat="43.40175" lon="-0.00138">
        <ele>323.14</ele>
        <time>2021-08-19T13:25:15Z</time>
      </trkpt>
      <trkpt lat="43.40165" lon="-0.00146">
        <ele>321.7</ele>
        <time>2021-08-19T13:25:17Z</time>
      </trkpt>
      <trkpt lat="43.40161" lon="-0.00151">
        <ele>320.74</ele>
        <time>2021-08-19T13:25:18Z</time>
      </trkpt>
      <trkpt lat="43.40152" lon="-0.00164">
        <ele>320.26</ele>
        <time>2021-08-19T13:25:20Z</time>
      </trkpt>
      <trkpt lat="43.40148" lon="-0.00171">
        <ele>320.26</ele>
        <time>2021-08-19T13:25:21Z</time>
      </trkpt>
      <trkpt lat="43.40131" lon="-0.00218">
        <ele>318.33</ele>
        <time>2021-08-19T13:25:27Z</time>
      </trkpt>
      <trkpt lat="43.40127" lon="-0.00225">
        <ele>318.33</ele>
        <time>2021-08-19T13:25:28Z</time>
      </trkpt>
      <trkpt lat="43.40124" lon="-0.00232">
        <ele>317.85</ele>
        <time>2021-08-19T13:25:29Z</time>
      </trkpt>
      <trkpt lat="43.40119" lon="-0.00238">
        <ele>317.37</ele>
        <time>2021-08-19T13:25:30Z</time>
      </trkpt>
      <trkpt lat="43.40112" lon="-0.00243">
        <ele>316.89</ele>
        <time>2021-08-19T13:25:31Z</time>
      </trkpt>
      <trkpt lat="43.40105" lon="-0.00248">
        <ele>315.45</ele>
        <time>2021-08-19T13:25:32Z</time>
      </trkpt>
      <trkpt lat="43.40098" lon="-0.00251">
        <ele>315.45</ele>
        <time>2021-08-19T13:25:33Z</time>
      </trkpt>
      <trkpt lat="43.40091" lon="-0.00252">
        <ele>315.45</ele>
        <time>2021-08-19T13:25:34Z</time>
      </trkpt>
      <trkpt lat="43.40085" lon="-0.00252">
        <ele>315.45</ele>
        <time>2021-08-19T13:25:35Z</time>
      </trkpt>
      <trkpt lat="43.40078" lon="-0.00251">
        <ele>315.45</ele>
        <time>2021-08-19T13:25:36Z</time>
      </trkpt>
      <trkpt lat="43.40052" lon="-0.0024">
        <ele>316.41</ele>
        <time>2021-08-19T13:25:41Z</time>
      </trkpt>
      <trkpt lat="43.40033" lon="-0.00228">
        <ele>316.89</ele>
        <time>2021-08-19T13:25:46Z</time>
      </trkpt>
      <trkpt lat="43.40019" lon="-0.00221">
        <ele>316.89</ele>
        <time>2021-08-19T13:25:49Z</time>
      </trkpt>
      <trkpt lat="43.39993" lon="-0.00205">
        <ele>317.37</ele>
        <time>2021-08-19T13:25:55Z</time>
      </trkpt>
      <trkpt lat="43.39958" lon="-0.00184">
        <ele>318.33</ele>
        <time>2021-08-19T13:26:03Z</time>
      </trkpt>
      <trkpt lat="43.39926" lon="-0.00174">
        <ele>319.78</ele>
        <time>2021-08-19T13:26:11Z</time>
      </trkpt>
      <trkpt lat="43.39905" lon="-0.00184">
        <ele>320.26</ele>
        <time>2021-08-19T13:26:17Z</time>
      </trkpt>
      <trkpt lat="43.39892" lon="-0.00195">
        <ele>320.26</ele>
        <time>2021-08-19T13:26:20Z</time>
      </trkpt>
      <trkpt lat="43.39888" lon="-0.00201">
        <ele>320.26</ele>
        <time>2021-08-19T13:26:21Z</time>
      </trkpt>
      <trkpt lat="43.39884" lon="-0.00208">
        <ele>320.26</ele>
        <time>2021-08-19T13:26:22Z</time>
      </trkpt>
      <trkpt lat="43.3988" lon="-0.00214">
        <ele>320.26</ele>
        <time>2021-08-19T13:26:23Z</time>
      </trkpt>
      <trkpt lat="43.39878" lon="-0.0022">
        <ele>320.26</ele>
        <time>2021-08-19T13:26:24Z</time>
      </trkpt>
      <trkpt lat="43.3987" lon="-0.00245">
        <ele>320.26</ele>
        <time>2021-08-19T13:26:28Z</time>
      </trkpt>
      <trkpt lat="43.39852" lon="-0.00296">
        <ele>320.26</ele>
        <time>2021-08-19T13:26:36Z</time>
      </trkpt>
      <trkpt lat="43.39841" lon="-0.00328">
        <ele>320.26</ele>
        <time>2021-08-19T13:26:41Z</time>
      </trkpt>
      <trkpt lat="43.39833" lon="-0.00364">
        <ele>320.26</ele>
        <time>2021-08-19T13:26:46Z</time>
      </trkpt>
      <trkpt lat="43.39832" lon="-0.00372">
        <ele>320.26</ele>
        <time>2021-08-19T13:26:47Z</time>
      </trkpt>
      <trkpt lat="43.3983" lon="-0.00379">
        <ele>320.26</ele>
        <time>2021-08-19T13:26:48Z</time>
      </trkpt>
      <trkpt lat="43.39828" lon="-0.00386">
        <ele>320.26</ele>
        <time>2021-08-19T13:26:49Z</time>
      </trkpt>
      <trkpt lat="43.39825" lon="-0.00392">
        <ele>320.26</ele>
        <time>2021-08-19T13:26:50Z</time>
      </trkpt>
      <trkpt lat="43.39822" lon="-0.00397">
        <ele>320.26</ele>
        <time>2021-08-19T13:26:51Z</time>
      </trkpt>
      <trkpt lat="43.39818" lon="-0.004">
        <ele>320.26</ele>
        <time>2021-08-19T13:26:52Z</time>
      </trkpt>
      <trkpt lat="43.39813" lon="-0.004">
        <ele>320.26</ele>
        <time>2021-08-19T13:26:53Z</time>
      </trkpt>
      <trkpt lat="43.3981" lon="-0.00397">
        <ele>318.33</ele>
        <time>2021-08-19T13:26:54Z</time>
      </trkpt>
      <trkpt lat="43.39806" lon="-0.00393">
        <ele>317.85</ele>
        <time>2021-08-19T13:26:55Z</time>
      </trkpt>
      <trkpt lat="43.39803" lon="-0.00387">
        <ele>317.37</ele>
        <time>2021-08-19T13:26:56Z</time>
      </trkpt>
      <trkpt lat="43.398" lon="-0.00381">
        <ele>315.93</ele>
        <time>2021-08-19T13:26:57Z</time>
      </trkpt>
      <trkpt lat="43.39797" lon="-0.00374">
        <ele>314.97</ele>
        <time>2021-08-19T13:26:58Z</time>
      </trkpt>
      <trkpt lat="43.39787" lon="-0.00352">
        <ele>312.09</ele>
        <time>2021-08-19T13:27:01Z</time>
      </trkpt>
      <trkpt lat="43.39774" lon="-0.00324">
        <ele>309.2</ele>
        <time>2021-08-19T13:27:05Z</time>
      </trkpt>
      <trkpt lat="43.39765" lon="-0.00304">
        <ele>306.32</ele>
        <time>2021-08-19T13:27:08Z</time>
      </trkpt>
      <trkpt lat="43.3976" lon="-0.00296">
        <ele>305.36</ele>
        <time>2021-08-19T13:27:09Z</time>
      </trkpt>
      <trkpt lat="43.39755" lon="-0.00289">
        <ele>304.39</ele>
        <time>2021-08-19T13:27:10Z</time>
      </trkpt>
      <trkpt lat="43.39751" lon="-0.00283">
        <ele>303.43</ele>
        <time>2021-08-19T13:27:11Z</time>
      </trkpt>
      <trkpt lat="43.3974" lon="-0.00271">
        <ele>301.51</ele>
        <time>2021-08-19T13:27:13Z</time>
      </trkpt>
      <trkpt lat="43.39732" lon="-0.00265">
        <ele>300.07</ele>
        <time>2021-08-19T13:27:14Z</time>
      </trkpt>
      <trkpt lat="43.39723" lon="-0.00254">
        <ele>298.63</ele>
        <time>2021-08-19T13:27:16Z</time>
      </trkpt>
      <trkpt lat="43.39716" lon="-0.00246">
        <ele>297.18</ele>
        <time>2021-08-19T13:27:17Z</time>
      </trkpt>
      <trkpt lat="43.39708" lon="-0.00232">
        <ele>295.74</ele>
        <time>2021-08-19T13:27:19Z</time>
      </trkpt>
      <trkpt lat="43.39698" lon="-0.0021">
        <ele>294.3</ele>
        <time>2021-08-19T13:27:23Z</time>
      </trkpt>
      <trkpt lat="43.39688" lon="-0.00188">
        <ele>293.34</ele>
        <time>2021-08-19T13:27:28Z</time>
      </trkpt>
      <trkpt lat="43.39678" lon="-0.00163">
        <ele>289.97</ele>
        <time>2021-08-19T13:27:34Z</time>
      </trkpt>
      <trkpt lat="43.39669" lon="-0.00149">
        <ele>288.53</ele>
        <time>2021-08-19T13:27:37Z</time>
      </trkpt>
      <trkpt lat="43.39665" lon="-0.00143">
        <ele>287.57</ele>
        <time>2021-08-19T13:27:38Z</time>
      </trkpt>
      <trkpt lat="43.39662" lon="-0.00137">
        <ele>287.09</ele>
        <time>2021-08-19T13:27:39Z</time>
      </trkpt>
      <trkpt lat="43.39653" lon="-0.00116">
        <ele>284.21</ele>
        <time>2021-08-19T13:27:42Z</time>
      </trkpt>
      <trkpt lat="43.39641" lon="-0.00083">
        <ele>280.84</ele>
        <time>2021-08-19T13:27:46Z</time>
      </trkpt>
      <trkpt lat="43.39637" lon="-0.00077">
        <ele>279.88</ele>
        <time>2021-08-19T13:27:47Z</time>
      </trkpt>
      <trkpt lat="43.39632" lon="-0.0007">
        <ele>278.92</ele>
        <time>2021-08-19T13:27:48Z</time>
      </trkpt>
      <trkpt lat="43.39626" lon="-0.00063">
        <ele>277.96</ele>
        <time>2021-08-19T13:27:49Z</time>
      </trkpt>
      <trkpt lat="43.39616" lon="-0.00048">
        <ele>277.96</ele>
        <time>2021-08-19T13:27:51Z</time>
      </trkpt>
      <trkpt lat="43.39613" lon="-0.00041">
        <ele>277.96</ele>
        <time>2021-08-19T13:27:52Z</time>
      </trkpt>
      <trkpt lat="43.3961" lon="-0.00033">
        <ele>279.4</ele>
        <time>2021-08-19T13:27:53Z</time>
      </trkpt>
      <trkpt lat="43.39606" lon="-0.0002">
        <ele>280.84</ele>
        <time>2021-08-19T13:27:56Z</time>
      </trkpt>
      <trkpt lat="43.39609" lon="-0.00013">
        <ele>281.8</ele>
        <time>2021-08-19T13:27:59Z</time>
      </trkpt>
      <trkpt lat="43.3961" lon="-0.00011">
        <ele>282.28</ele>
        <time>2021-08-19T13:28:00Z</time>
      </trkpt>
      <trkpt lat="43.3961" lon="-8.0E-5">
        <ele>282.28</ele>
        <time>2021-08-19T13:28:01Z</time>
      </trkpt>
      <trkpt lat="43.3961" lon="-7.0E-5">
        <ele>282.77</ele>
        <time>2021-08-19T13:28:02Z</time>
      </trkpt>
      <trkpt lat="43.39611" lon="-4.0E-5">
        <ele>282.77</ele>
        <time>2021-08-19T13:28:03Z</time>
      </trkpt>
      <trkpt lat="43.39611" lon="-2.0E-5">
        <ele>282.77</ele>
        <time>2021-08-19T13:28:04Z</time>
      </trkpt>
      <trkpt lat="43.39611" lon="0">
        <ele>282.77</ele>
        <time>2021-08-19T13:28:05Z</time>
      </trkpt>
      <trkpt lat="43.39608" lon="0.00018">
        <ele>284.69</ele>
        <time>2021-08-19T13:28:12Z</time>
      </trkpt>
      <trkpt lat="43.39605" lon="0.00039">
        <ele>285.65</ele>
        <time>2021-08-19T13:28:19Z</time>
      </trkpt>
      <trkpt lat="43.39605" lon="0.00049">
        <ele>285.65</ele>
        <time>2021-08-19T13:28:22Z</time>
      </trkpt>
      <trkpt lat="43.39603" lon="0.00061">
        <ele>286.61</ele>
        <time>2021-08-19T13:28:26Z</time>
      </trkpt>
      <trkpt lat="43.39602" lon="0.00065">
        <ele>286.61</ele>
        <time>2021-08-19T13:28:27Z</time>
      </trkpt>
      <trkpt lat="43.39601" lon="0.00068">
        <ele>286.61</ele>
        <time>2021-08-19T13:28:28Z</time>
      </trkpt>
      <trkpt lat="43.396" lon="0.00072">
        <ele>286.61</ele>
        <time>2021-08-19T13:28:29Z</time>
      </trkpt>
      <trkpt lat="43.39599" lon="0.00075">
        <ele>286.61</ele>
        <time>2021-08-19T13:28:30Z</time>
      </trkpt>
      <trkpt lat="43.39589" lon="0.00105">
        <ele>287.09</ele>
        <time>2021-08-19T13:28:38Z</time>
      </trkpt>
      <trkpt lat="43.39577" lon="0.00134">
        <ele>288.05</ele>
        <time>2021-08-19T13:28:45Z</time>
      </trkpt>
      <trkpt lat="43.39568" lon="0.00164">
        <ele>288.53</ele>
        <time>2021-08-19T13:28:52Z</time>
      </trkpt>
      <trkpt lat="43.39565" lon="0.0018">
        <ele>287.09</ele>
        <time>2021-08-19T13:28:55Z</time>
      </trkpt>
      <trkpt lat="43.39565" lon="0.00188">
        <ele>287.09</ele>
        <time>2021-08-19T13:28:56Z</time>
      </trkpt>
      <trkpt lat="43.39565" lon="0.00205">
        <ele>286.13</ele>
        <time>2021-08-19T13:28:59Z</time>
      </trkpt>
      <trkpt lat="43.39565" lon="0.00213">
        <ele>285.65</ele>
        <time>2021-08-19T13:29:00Z</time>
      </trkpt>
      <trkpt lat="43.39566" lon="0.00241">
        <ele>284.69</ele>
        <time>2021-08-19T13:29:05Z</time>
      </trkpt>
      <trkpt lat="43.39566" lon="0.00244">
        <ele>284.69</ele>
        <time>2021-08-19T13:29:10Z</time>
      </trkpt>
      <trkpt lat="43.39568" lon="0.00246">
        <ele>284.69</ele>
        <time>2021-08-19T13:29:38Z</time>
      </trkpt>
      <trkpt lat="43.39565" lon="0.00248">
        <ele>284.69</ele>
        <time>2021-08-19T13:30:06Z</time>
      </trkpt>
      <trkpt lat="43.39566" lon="0.00249">
        <ele>284.69</ele>
        <time>2021-08-19T13:30:21Z</time>
      </trkpt>
      <trkpt lat="43.39566" lon="0.00255">
        <ele>284.69</ele>
        <time>2021-08-19T13:30:33Z</time>
      </trkpt>
      <trkpt lat="43.39564" lon="0.00279">
        <ele>283.73</ele>
        <time>2021-08-19T13:30:39Z</time>
      </trkpt>
      <trkpt lat="43.39562" lon="0.00296">
        <ele>282.28</ele>
        <time>2021-08-19T13:30:42Z</time>
      </trkpt>
      <trkpt lat="43.39555" lon="0.00337">
        <ele>280.36</ele>
        <time>2021-08-19T13:30:48Z</time>
      </trkpt>
      <trkpt lat="43.39553" lon="0.00346">
        <ele>280.36</ele>
        <time>2021-08-19T13:30:49Z</time>
      </trkpt>
      <trkpt lat="43.39552" lon="0.00354">
        <ele>279.4</ele>
        <time>2021-08-19T13:30:50Z</time>
      </trkpt>
      <trkpt lat="43.39545" lon="0.00417">
        <ele>275.56</ele>
        <time>2021-08-19T13:30:57Z</time>
      </trkpt>
      <trkpt lat="43.39547" lon="0.00462">
        <ele>273.63</ele>
        <time>2021-08-19T13:31:01Z</time>
      </trkpt>
      <trkpt lat="43.39554" lon="0.00509">
        <ele>270.27</ele>
        <time>2021-08-19T13:31:05Z</time>
      </trkpt>
      <trkpt lat="43.39556" lon="0.00521">
        <ele>269.31</ele>
        <time>2021-08-19T13:31:06Z</time>
      </trkpt>
      <trkpt lat="43.3956" lon="0.00534">
        <ele>268.83</ele>
        <time>2021-08-19T13:31:07Z</time>
      </trkpt>
      <trkpt lat="43.39569" lon="0.00571">
        <ele>267.38</ele>
        <time>2021-08-19T13:31:10Z</time>
      </trkpt>
      <trkpt lat="43.3958" lon="0.00614">
        <ele>264.02</ele>
        <time>2021-08-19T13:31:14Z</time>
      </trkpt>
      <trkpt lat="43.39581" lon="0.00624">
        <ele>263.54</ele>
        <time>2021-08-19T13:31:15Z</time>
      </trkpt>
      <trkpt lat="43.39582" lon="0.00635">
        <ele>263.06</ele>
        <time>2021-08-19T13:31:16Z</time>
      </trkpt>
      <trkpt lat="43.39582" lon="0.00647">
        <ele>262.1</ele>
        <time>2021-08-19T13:31:17Z</time>
      </trkpt>
      <trkpt lat="43.39583" lon="0.00657">
        <ele>262.1</ele>
        <time>2021-08-19T13:31:18Z</time>
      </trkpt>
      <trkpt lat="43.3959" lon="0.00724">
        <ele>258.25</ele>
        <time>2021-08-19T13:31:24Z</time>
      </trkpt>
      <trkpt lat="43.39596" lon="0.0079">
        <ele>254.89</ele>
        <time>2021-08-19T13:31:29Z</time>
      </trkpt>
      <trkpt lat="43.39599" lon="0.00812">
        <ele>253.93</ele>
        <time>2021-08-19T13:31:31Z</time>
      </trkpt>
      <trkpt lat="43.39599" lon="0.00825">
        <ele>252.96</ele>
        <time>2021-08-19T13:31:32Z</time>
      </trkpt>
      <trkpt lat="43.39598" lon="0.00836">
        <ele>252.48</ele>
        <time>2021-08-19T13:31:33Z</time>
      </trkpt>
      <trkpt lat="43.39596" lon="0.00847">
        <ele>252</ele>
        <time>2021-08-19T13:31:34Z</time>
      </trkpt>
      <trkpt lat="43.39589" lon="0.00893">
        <ele>250.08</ele>
        <time>2021-08-19T13:31:38Z</time>
      </trkpt>
      <trkpt lat="43.39589" lon="0.00929">
        <ele>249.12</ele>
        <time>2021-08-19T13:31:41Z</time>
      </trkpt>
      <trkpt lat="43.3959" lon="0.0094">
        <ele>248.16</ele>
        <time>2021-08-19T13:31:42Z</time>
      </trkpt>
      <trkpt lat="43.396" lon="0.00999">
        <ele>246.72</ele>
        <time>2021-08-19T13:31:47Z</time>
      </trkpt>
      <trkpt lat="43.396" lon="0.01033">
        <ele>245.27</ele>
        <time>2021-08-19T13:31:50Z</time>
      </trkpt>
      <trkpt lat="43.39599" lon="0.01043">
        <ele>244.31</ele>
        <time>2021-08-19T13:31:51Z</time>
      </trkpt>
      <trkpt lat="43.39597" lon="0.01056">
        <ele>243.83</ele>
        <time>2021-08-19T13:31:52Z</time>
      </trkpt>
      <trkpt lat="43.39594" lon="0.01065">
        <ele>243.35</ele>
        <time>2021-08-19T13:31:53Z</time>
      </trkpt>
      <trkpt lat="43.39591" lon="0.01077">
        <ele>242.87</ele>
        <time>2021-08-19T13:31:54Z</time>
      </trkpt>
      <trkpt lat="43.39575" lon="0.01131">
        <ele>240.95</ele>
        <time>2021-08-19T13:31:59Z</time>
      </trkpt>
      <trkpt lat="43.39557" lon="0.01185">
        <ele>237.58</ele>
        <time>2021-08-19T13:32:04Z</time>
      </trkpt>
      <trkpt lat="43.39551" lon="0.01206">
        <ele>236.62</ele>
        <time>2021-08-19T13:32:06Z</time>
      </trkpt>
      <trkpt lat="43.39544" lon="0.01231">
        <ele>235.18</ele>
        <time>2021-08-19T13:32:08Z</time>
      </trkpt>
      <trkpt lat="43.39538" lon="0.01253">
        <ele>234.22</ele>
        <time>2021-08-19T13:32:10Z</time>
      </trkpt>
      <trkpt lat="43.3953" lon="0.01275">
        <ele>233.26</ele>
        <time>2021-08-19T13:32:12Z</time>
      </trkpt>
      <trkpt lat="43.39516" lon="0.01321">
        <ele>232.3</ele>
        <time>2021-08-19T13:32:17Z</time>
      </trkpt>
      <trkpt lat="43.39515" lon="0.01327">
        <ele>231.81</ele>
        <time>2021-08-19T13:32:18Z</time>
      </trkpt>
      <trkpt lat="43.39512" lon="0.01334">
        <ele>231.33</ele>
        <time>2021-08-19T13:32:19Z</time>
      </trkpt>
      <trkpt lat="43.39505" lon="0.01359">
        <ele>229.89</ele>
        <time>2021-08-19T13:32:24Z</time>
      </trkpt>
      <trkpt lat="43.39511" lon="0.01384">
        <ele>228.45</ele>
        <time>2021-08-19T13:32:31Z</time>
      </trkpt>
      <trkpt lat="43.39527" lon="0.01413">
        <ele>227.01</ele>
        <time>2021-08-19T13:32:38Z</time>
      </trkpt>
      <trkpt lat="43.39553" lon="0.01449">
        <ele>224.61</ele>
        <time>2021-08-19T13:32:45Z</time>
      </trkpt>
      <trkpt lat="43.39556" lon="0.01454">
        <ele>224.12</ele>
        <time>2021-08-19T13:32:46Z</time>
      </trkpt>
      <trkpt lat="43.39564" lon="0.01465">
        <ele>223.64</ele>
        <time>2021-08-19T13:32:48Z</time>
      </trkpt>
      <trkpt lat="43.39589" lon="0.01499">
        <ele>222.68</ele>
        <time>2021-08-19T13:32:54Z</time>
      </trkpt>
      <trkpt lat="43.39596" lon="0.01513">
        <ele>222.2</ele>
        <time>2021-08-19T13:32:56Z</time>
      </trkpt>
      <trkpt lat="43.39599" lon="0.01521">
        <ele>221.24</ele>
        <time>2021-08-19T13:32:57Z</time>
      </trkpt>
      <trkpt lat="43.39611" lon="0.01576">
        <ele>219.32</ele>
        <time>2021-08-19T13:33:03Z</time>
      </trkpt>
      <trkpt lat="43.39614" lon="0.01593">
        <ele>219.32</ele>
        <time>2021-08-19T13:33:05Z</time>
      </trkpt>
      <trkpt lat="43.39615" lon="0.01602">
        <ele>219.32</ele>
        <time>2021-08-19T13:33:06Z</time>
      </trkpt>
      <trkpt lat="43.39615" lon="0.0161">
        <ele>219.32</ele>
        <time>2021-08-19T13:33:07Z</time>
      </trkpt>
      <trkpt lat="43.39613" lon="0.01618">
        <ele>219.32</ele>
        <time>2021-08-19T13:33:08Z</time>
      </trkpt>
      <trkpt lat="43.39611" lon="0.01625">
        <ele>219.32</ele>
        <time>2021-08-19T13:33:09Z</time>
      </trkpt>
      <trkpt lat="43.39609" lon="0.01631">
        <ele>219.32</ele>
        <time>2021-08-19T13:33:10Z</time>
      </trkpt>
      <trkpt lat="43.39607" lon="0.01638">
        <ele>219.32</ele>
        <time>2021-08-19T13:33:11Z</time>
      </trkpt>
      <trkpt lat="43.39606" lon="0.01644">
        <ele>219.32</ele>
        <time>2021-08-19T13:33:12Z</time>
      </trkpt>
      <trkpt lat="43.39605" lon="0.01651">
        <ele>219.32</ele>
        <time>2021-08-19T13:33:13Z</time>
      </trkpt>
      <trkpt lat="43.39604" lon="0.01657">
        <ele>219.32</ele>
        <time>2021-08-19T13:33:14Z</time>
      </trkpt>
      <trkpt lat="43.39603" lon="0.01662">
        <ele>218.84</ele>
        <time>2021-08-19T13:33:15Z</time>
      </trkpt>
      <trkpt lat="43.39601" lon="0.01669">
        <ele>218.36</ele>
        <time>2021-08-19T13:33:16Z</time>
      </trkpt>
      <trkpt lat="43.39598" lon="0.01675">
        <ele>218.36</ele>
        <time>2021-08-19T13:33:17Z</time>
      </trkpt>
      <trkpt lat="43.39595" lon="0.01681">
        <ele>218.36</ele>
        <time>2021-08-19T13:33:18Z</time>
      </trkpt>
      <trkpt lat="43.39593" lon="0.01686">
        <ele>218.36</ele>
        <time>2021-08-19T13:33:19Z</time>
      </trkpt>
      <trkpt lat="43.39582" lon="0.01717">
        <ele>218.36</ele>
        <time>2021-08-19T13:33:25Z</time>
      </trkpt>
      <trkpt lat="43.3958" lon="0.01723">
        <ele>217.88</ele>
        <time>2021-08-19T13:33:26Z</time>
      </trkpt>
      <trkpt lat="43.39578" lon="0.0173">
        <ele>217.88</ele>
        <time>2021-08-19T13:33:27Z</time>
      </trkpt>
      <trkpt lat="43.39577" lon="0.01736">
        <ele>217.88</ele>
        <time>2021-08-19T13:33:28Z</time>
      </trkpt>
      <trkpt lat="43.39569" lon="0.01754">
        <ele>219.32</ele>
        <time>2021-08-19T13:33:33Z</time>
      </trkpt>
      <trkpt lat="43.39553" lon="0.01784">
        <ele>219.32</ele>
        <time>2021-08-19T13:33:40Z</time>
      </trkpt>
      <trkpt lat="43.39529" lon="0.01811">
        <ele>219.32</ele>
        <time>2021-08-19T13:33:46Z</time>
      </trkpt>
      <trkpt lat="43.39509" lon="0.01829">
        <ele>219.32</ele>
        <time>2021-08-19T13:33:52Z</time>
      </trkpt>
      <trkpt lat="43.39493" lon="0.01853">
        <ele>219.8</ele>
        <time>2021-08-19T13:33:58Z</time>
      </trkpt>
      <trkpt lat="43.39489" lon="0.01858">
        <ele>219.8</ele>
        <time>2021-08-19T13:33:59Z</time>
      </trkpt>
      <trkpt lat="43.39486" lon="0.01863">
        <ele>219.8</ele>
        <time>2021-08-19T13:34:00Z</time>
      </trkpt>
      <trkpt lat="43.39468" lon="0.01892">
        <ele>219.8</ele>
        <time>2021-08-19T13:34:07Z</time>
      </trkpt>
      <trkpt lat="43.39449" lon="0.01928">
        <ele>219.8</ele>
        <time>2021-08-19T13:34:15Z</time>
      </trkpt>
      <trkpt lat="43.3943" lon="0.01958">
        <ele>220.28</ele>
        <time>2021-08-19T13:34:22Z</time>
      </trkpt>
      <trkpt lat="43.39424" lon="0.01975">
        <ele>220.28</ele>
        <time>2021-08-19T13:34:27Z</time>
      </trkpt>
      <trkpt lat="43.39419" lon="0.01989">
        <ele>220.28</ele>
        <time>2021-08-19T13:34:33Z</time>
      </trkpt>
      <trkpt lat="43.3941" lon="0.02012">
        <ele>220.28</ele>
        <time>2021-08-19T13:34:41Z</time>
      </trkpt>
      <trkpt lat="43.39402" lon="0.02032">
        <ele>220.28</ele>
        <time>2021-08-19T13:34:46Z</time>
      </trkpt>
      <trkpt lat="43.394" lon="0.02034">
        <ele>220.28</ele>
        <time>2021-08-19T13:34:47Z</time>
      </trkpt>
      <trkpt lat="43.39388" lon="0.02038">
        <ele>220.28</ele>
        <time>2021-08-19T13:34:52Z</time>
      </trkpt>
      <trkpt lat="43.39383" lon="0.02041">
        <ele>220.28</ele>
        <time>2021-08-19T13:34:54Z</time>
      </trkpt>
      <trkpt lat="43.3938" lon="0.02041">
        <ele>220.28</ele>
        <time>2021-08-19T13:34:55Z</time>
      </trkpt>
      <trkpt lat="43.39377" lon="0.02041">
        <ele>220.28</ele>
        <time>2021-08-19T13:34:56Z</time>
      </trkpt>
      <trkpt lat="43.39353" lon="0.02042">
        <ele>220.76</ele>
        <time>2021-08-19T13:35:03Z</time>
      </trkpt>
      <trkpt lat="43.39336" lon="0.02051">
        <ele>220.76</ele>
        <time>2021-08-19T13:35:08Z</time>
      </trkpt>
      <trkpt lat="43.39311" lon="0.02056">
        <ele>220.76</ele>
        <time>2021-08-19T13:35:15Z</time>
      </trkpt>
      <trkpt lat="43.39291" lon="0.02067">
        <ele>220.76</ele>
        <time>2021-08-19T13:35:21Z</time>
      </trkpt>
      <trkpt lat="43.39273" lon="0.02079">
        <ele>220.76</ele>
        <time>2021-08-19T13:35:27Z</time>
      </trkpt>
      <trkpt lat="43.39258" lon="0.02105">
        <ele>220.76</ele>
        <time>2021-08-19T13:35:33Z</time>
      </trkpt>
      <trkpt lat="43.39238" lon="0.02118">
        <ele>221.24</ele>
        <time>2021-08-19T13:35:39Z</time>
      </trkpt>
      <trkpt lat="43.39217" lon="0.02109">
        <ele>220.76</ele>
        <time>2021-08-19T13:35:45Z</time>
      </trkpt>
      <trkpt lat="43.39197" lon="0.02094">
        <ele>221.24</ele>
        <time>2021-08-19T13:35:51Z</time>
      </trkpt>
      <trkpt lat="43.39178" lon="0.02079">
        <ele>221.24</ele>
        <time>2021-08-19T13:35:57Z</time>
      </trkpt>
      <trkpt lat="43.39163" lon="0.02064">
        <ele>221.24</ele>
        <time>2021-08-19T13:36:02Z</time>
      </trkpt>
      <trkpt lat="43.39153" lon="0.02054">
        <ele>221.24</ele>
        <time>2021-08-19T13:36:07Z</time>
      </trkpt>
      <trkpt lat="43.39147" lon="0.02053">
        <ele>222.2</ele>
        <time>2021-08-19T13:36:13Z</time>
      </trkpt>
      <trkpt lat="43.39143" lon="0.02054">
        <ele>222.2</ele>
        <time>2021-08-19T13:36:19Z</time>
      </trkpt>
      <trkpt lat="43.3914" lon="0.02056">
        <ele>222.2</ele>
        <time>2021-08-19T13:36:24Z</time>
      </trkpt>
      <trkpt lat="43.39139" lon="0.0206">
        <ele>222.2</ele>
        <time>2021-08-19T13:36:26Z</time>
      </trkpt>
      <trkpt lat="43.3914" lon="0.02064">
        <ele>222.2</ele>
        <time>2021-08-19T13:36:27Z</time>
      </trkpt>
      <trkpt lat="43.39151" lon="0.02095">
        <ele>222.2</ele>
        <time>2021-08-19T13:36:34Z</time>
      </trkpt>
      <trkpt lat="43.39166" lon="0.02144">
        <ele>222.2</ele>
        <time>2021-08-19T13:36:42Z</time>
      </trkpt>
      <trkpt lat="43.39191" lon="0.02235">
        <ele>221.24</ele>
        <time>2021-08-19T13:36:54Z</time>
      </trkpt>
      <trkpt lat="43.39215" lon="0.02325">
        <ele>221.24</ele>
        <time>2021-08-19T13:37:06Z</time>
      </trkpt>
      <trkpt lat="43.39223" lon="0.02359">
        <ele>221.24</ele>
        <time>2021-08-19T13:37:11Z</time>
      </trkpt>
      <trkpt lat="43.39224" lon="0.02365">
        <ele>221.24</ele>
        <time>2021-08-19T13:37:12Z</time>
      </trkpt>
      <trkpt lat="43.39222" lon="0.02371">
        <ele>221.24</ele>
        <time>2021-08-19T13:37:13Z</time>
      </trkpt>
      <trkpt lat="43.39219" lon="0.02374">
        <ele>221.24</ele>
        <time>2021-08-19T13:37:14Z</time>
      </trkpt>
      <trkpt lat="43.39216" lon="0.02375">
        <ele>222.68</ele>
        <time>2021-08-19T13:37:15Z</time>
      </trkpt>
      <trkpt lat="43.39214" lon="0.02375">
        <ele>222.68</ele>
        <time>2021-08-19T13:37:16Z</time>
      </trkpt>
      <trkpt lat="43.39212" lon="0.02376">
        <ele>223.16</ele>
        <time>2021-08-19T13:37:17Z</time>
      </trkpt>
      <trkpt lat="43.39205" lon="0.02373">
        <ele>223.64</ele>
        <time>2021-08-19T13:37:22Z</time>
      </trkpt>
      <trkpt lat="43.39204" lon="0.02372">
        <ele>223.64</ele>
        <time>2021-08-19T13:37:23Z</time>
      </trkpt>
      <trkpt lat="43.39203" lon="0.0237">
        <ele>224.12</ele>
        <time>2021-08-19T13:37:24Z</time>
      </trkpt>
      <trkpt lat="43.39201" lon="0.02369">
        <ele>224.12</ele>
        <time>2021-08-19T13:37:25Z</time>
      </trkpt>
      <trkpt lat="43.392" lon="0.02367">
        <ele>224.12</ele>
        <time>2021-08-19T13:37:26Z</time>
      </trkpt>
      <trkpt lat="43.39198" lon="0.02366">
        <ele>224.12</ele>
        <time>2021-08-19T13:37:27Z</time>
      </trkpt>
      <trkpt lat="43.39186" lon="0.02359">
        <ele>225.57</ele>
        <time>2021-08-19T13:37:34Z</time>
      </trkpt>
      <trkpt lat="43.3917" lon="0.02349">
        <ele>227.01</ele>
        <time>2021-08-19T13:37:41Z</time>
      </trkpt>
      <trkpt lat="43.39153" lon="0.02342">
        <ele>227.97</ele>
        <time>2021-08-19T13:37:49Z</time>
      </trkpt>
      <trkpt lat="43.39133" lon="0.02333">
        <ele>228.45</ele>
        <time>2021-08-19T13:37:57Z</time>
      </trkpt>
      <trkpt lat="43.39108" lon="0.02323">
        <ele>228.93</ele>
        <time>2021-08-19T13:38:05Z</time>
      </trkpt>
      <trkpt lat="43.39082" lon="0.02311">
        <ele>229.41</ele>
        <time>2021-08-19T13:38:13Z</time>
      </trkpt>
      <trkpt lat="43.39068" lon="0.02303">
        <ele>229.41</ele>
        <time>2021-08-19T13:38:18Z</time>
      </trkpt>
      <trkpt lat="43.39066" lon="0.02302">
        <ele>229.41</ele>
        <time>2021-08-19T13:38:19Z</time>
      </trkpt>
      <trkpt lat="43.39064" lon="0.02301">
        <ele>229.41</ele>
        <time>2021-08-19T13:38:20Z</time>
      </trkpt>
      <trkpt lat="43.39062" lon="0.023">
        <ele>229.41</ele>
        <time>2021-08-19T13:38:21Z</time>
      </trkpt>
      <trkpt lat="43.39045" lon="0.02292">
        <ele>229.89</ele>
        <time>2021-08-19T13:38:27Z</time>
      </trkpt>
      <trkpt lat="43.39027" lon="0.02281">
        <ele>230.85</ele>
        <time>2021-08-19T13:38:33Z</time>
      </trkpt>
      <trkpt lat="43.39011" lon="0.0227">
        <ele>231.81</ele>
        <time>2021-08-19T13:38:41Z</time>
      </trkpt>
      <trkpt lat="43.38999" lon="0.02262">
        <ele>232.78</ele>
        <time>2021-08-19T13:38:48Z</time>
      </trkpt>
      <trkpt lat="43.3899" lon="0.02255">
        <ele>234.7</ele>
        <time>2021-08-19T13:38:55Z</time>
      </trkpt>
      <trkpt lat="43.38979" lon="0.02251">
        <ele>236.14</ele>
        <time>2021-08-19T13:39:02Z</time>
      </trkpt>
      <trkpt lat="43.38964" lon="0.02243">
        <ele>239.02</ele>
        <time>2021-08-19T13:39:10Z</time>
      </trkpt>
      <trkpt lat="43.38952" lon="0.02237">
        <ele>239.99</ele>
        <time>2021-08-19T13:39:18Z</time>
      </trkpt>
      <trkpt lat="43.38951" lon="0.02236">
        <ele>240.47</ele>
        <time>2021-08-19T13:39:19Z</time>
      </trkpt>
      <trkpt lat="43.38939" lon="0.0223">
        <ele>241.43</ele>
        <time>2021-08-19T13:39:27Z</time>
      </trkpt>
      <trkpt lat="43.38927" lon="0.02223">
        <ele>242.39</ele>
        <time>2021-08-19T13:39:35Z</time>
      </trkpt>
      <trkpt lat="43.38916" lon="0.02215">
        <ele>243.83</ele>
        <time>2021-08-19T13:39:43Z</time>
      </trkpt>
      <trkpt lat="43.38901" lon="0.02208">
        <ele>245.27</ele>
        <time>2021-08-19T13:39:52Z</time>
      </trkpt>
      <trkpt lat="43.38888" lon="0.02201">
        <ele>246.72</ele>
        <time>2021-08-19T13:40:00Z</time>
      </trkpt>
      <trkpt lat="43.38876" lon="0.02193">
        <ele>248.16</ele>
        <time>2021-08-19T13:40:09Z</time>
      </trkpt>
      <trkpt lat="43.38862" lon="0.02184">
        <ele>249.6</ele>
        <time>2021-08-19T13:40:18Z</time>
      </trkpt>
      <trkpt lat="43.38847" lon="0.02178">
        <ele>250.56</ele>
        <time>2021-08-19T13:40:25Z</time>
      </trkpt>
      <trkpt lat="43.38827" lon="0.02168">
        <ele>251.52</ele>
        <time>2021-08-19T13:40:35Z</time>
      </trkpt>
      <trkpt lat="43.38816" lon="0.02162">
        <ele>252.96</ele>
        <time>2021-08-19T13:40:42Z</time>
      </trkpt>
      <trkpt lat="43.38803" lon="0.02153">
        <ele>253.93</ele>
        <time>2021-08-19T13:40:50Z</time>
      </trkpt>
      <trkpt lat="43.38791" lon="0.02144">
        <ele>255.85</ele>
        <time>2021-08-19T13:40:59Z</time>
      </trkpt>
      <trkpt lat="43.38783" lon="0.02137">
        <ele>257.29</ele>
        <time>2021-08-19T13:41:05Z</time>
      </trkpt>
      <trkpt lat="43.38782" lon="0.02135">
        <ele>257.29</ele>
        <time>2021-08-19T13:41:06Z</time>
      </trkpt>
      <trkpt lat="43.3878" lon="0.02132">
        <ele>257.77</ele>
        <time>2021-08-19T13:41:07Z</time>
      </trkpt>
      <trkpt lat="43.38778" lon="0.02131">
        <ele>257.77</ele>
        <time>2021-08-19T13:41:08Z</time>
      </trkpt>
      <trkpt lat="43.38776" lon="0.02131">
        <ele>257.77</ele>
        <time>2021-08-19T13:41:09Z</time>
      </trkpt>
      <trkpt lat="43.38774" lon="0.0213">
        <ele>257.77</ele>
        <time>2021-08-19T13:41:10Z</time>
      </trkpt>
      <trkpt lat="43.38773" lon="0.02129">
        <ele>258.73</ele>
        <time>2021-08-19T13:41:11Z</time>
      </trkpt>
      <trkpt lat="43.38772" lon="0.02128">
        <ele>258.73</ele>
        <time>2021-08-19T13:41:12Z</time>
      </trkpt>
      <trkpt lat="43.38771" lon="0.02127">
        <ele>258.73</ele>
        <time>2021-08-19T13:41:13Z</time>
      </trkpt>
      <trkpt lat="43.38769" lon="0.02127">
        <ele>259.21</ele>
        <time>2021-08-19T13:41:14Z</time>
      </trkpt>
      <trkpt lat="43.38768" lon="0.02127">
        <ele>259.21</ele>
        <time>2021-08-19T13:41:15Z</time>
      </trkpt>
      <trkpt lat="43.38766" lon="0.02126">
        <ele>259.69</ele>
        <time>2021-08-19T13:41:16Z</time>
      </trkpt>
      <trkpt lat="43.38765" lon="0.02126">
        <ele>259.69</ele>
        <time>2021-08-19T13:41:17Z</time>
      </trkpt>
      <trkpt lat="43.38755" lon="0.02122">
        <ele>260.65</ele>
        <time>2021-08-19T13:41:24Z</time>
      </trkpt>
      <trkpt lat="43.38746" lon="0.02119">
        <ele>261.14</ele>
        <time>2021-08-19T13:41:30Z</time>
      </trkpt>
      <trkpt lat="43.38731" lon="0.02115">
        <ele>263.06</ele>
        <time>2021-08-19T13:41:40Z</time>
      </trkpt>
      <trkpt lat="43.38716" lon="0.0211">
        <ele>264.02</ele>
        <time>2021-08-19T13:41:48Z</time>
      </trkpt>
      <trkpt lat="43.38706" lon="0.02105">
        <ele>265.46</ele>
        <time>2021-08-19T13:41:55Z</time>
      </trkpt>
      <trkpt lat="43.38694" lon="0.02101">
        <ele>266.9</ele>
        <time>2021-08-19T13:42:02Z</time>
      </trkpt>
      <trkpt lat="43.3868" lon="0.02098">
        <ele>268.83</ele>
        <time>2021-08-19T13:42:10Z</time>
      </trkpt>
      <trkpt lat="43.38667" lon="0.02097">
        <ele>270.27</ele>
        <time>2021-08-19T13:42:17Z</time>
      </trkpt>
      <trkpt lat="43.38652" lon="0.02101">
        <ele>271.23</ele>
        <time>2021-08-19T13:42:25Z</time>
      </trkpt>
      <trkpt lat="43.38639" lon="0.02102">
        <ele>272.19</ele>
        <time>2021-08-19T13:42:32Z</time>
      </trkpt>
      <trkpt lat="43.3863" lon="0.02103">
        <ele>272.67</ele>
        <time>2021-08-19T13:42:37Z</time>
      </trkpt>
      <trkpt lat="43.38628" lon="0.02103">
        <ele>272.67</ele>
        <time>2021-08-19T13:42:38Z</time>
      </trkpt>
      <trkpt lat="43.38611" lon="0.02099">
        <ele>273.15</ele>
        <time>2021-08-19T13:42:45Z</time>
      </trkpt>
      <trkpt lat="43.3859" lon="0.02089">
        <ele>273.63</ele>
        <time>2021-08-19T13:42:53Z</time>
      </trkpt>
      <trkpt lat="43.38572" lon="0.02077">
        <ele>274.59</ele>
        <time>2021-08-19T13:43:00Z</time>
      </trkpt>
      <trkpt lat="43.38556" lon="0.02067">
        <ele>275.07</ele>
        <time>2021-08-19T13:43:06Z</time>
      </trkpt>
      <trkpt lat="43.38539" lon="0.02059">
        <ele>277</ele>
        <time>2021-08-19T13:43:13Z</time>
      </trkpt>
      <trkpt lat="43.38524" lon="0.02045">
        <ele>277.48</ele>
        <time>2021-08-19T13:43:21Z</time>
      </trkpt>
      <trkpt lat="43.3852" lon="0.02016">
        <ele>277.48</ele>
        <time>2021-08-19T13:43:28Z</time>
      </trkpt>
      <trkpt lat="43.38517" lon="0.0198">
        <ele>277.96</ele>
        <time>2021-08-19T13:43:36Z</time>
      </trkpt>
      <trkpt lat="43.3851" lon="0.01963">
        <ele>280.36</ele>
        <time>2021-08-19T13:43:44Z</time>
      </trkpt>
      <trkpt lat="43.38497" lon="0.01944">
        <ele>281.8</ele>
        <time>2021-08-19T13:43:53Z</time>
      </trkpt>
      <trkpt lat="43.38475" lon="0.01937">
        <ele>281.32</ele>
        <time>2021-08-19T13:44:00Z</time>
      </trkpt>
      <trkpt lat="43.3844" lon="0.01929">
        <ele>281.32</ele>
        <time>2021-08-19T13:44:08Z</time>
      </trkpt>
      <trkpt lat="43.38414" lon="0.01927">
        <ele>281.8</ele>
        <time>2021-08-19T13:44:15Z</time>
      </trkpt>
      <trkpt lat="43.38389" lon="0.01921">
        <ele>282.28</ele>
        <time>2021-08-19T13:44:21Z</time>
      </trkpt>
      <trkpt lat="43.38373" lon="0.01908">
        <ele>282.77</ele>
        <time>2021-08-19T13:44:26Z</time>
      </trkpt>
      <trkpt lat="43.38357" lon="0.01881">
        <ele>282.77</ele>
        <time>2021-08-19T13:44:32Z</time>
      </trkpt>
      <trkpt lat="43.38345" lon="0.0184">
        <ele>279.4</ele>
        <time>2021-08-19T13:44:38Z</time>
      </trkpt>
      <trkpt lat="43.3834" lon="0.01822">
        <ele>277.96</ele>
        <time>2021-08-19T13:44:40Z</time>
      </trkpt>
      <trkpt lat="43.38337" lon="0.01814">
        <ele>277.96</ele>
        <time>2021-08-19T13:44:41Z</time>
      </trkpt>
      <trkpt lat="43.38314" lon="0.01768">
        <ele>277</ele>
        <time>2021-08-19T13:44:48Z</time>
      </trkpt>
      <trkpt lat="43.38312" lon="0.01761">
        <ele>277</ele>
        <time>2021-08-19T13:44:49Z</time>
      </trkpt>
      <trkpt lat="43.38305" lon="0.01724">
        <ele>276.52</ele>
        <time>2021-08-19T13:44:55Z</time>
      </trkpt>
      <trkpt lat="43.383" lon="0.0171">
        <ele>276.52</ele>
        <time>2021-08-19T13:44:57Z</time>
      </trkpt>
      <trkpt lat="43.38297" lon="0.01704">
        <ele>276.52</ele>
        <time>2021-08-19T13:44:58Z</time>
      </trkpt>
      <trkpt lat="43.38294" lon="0.01699">
        <ele>276.52</ele>
        <time>2021-08-19T13:44:59Z</time>
      </trkpt>
      <trkpt lat="43.3829" lon="0.01693">
        <ele>276.52</ele>
        <time>2021-08-19T13:45:00Z</time>
      </trkpt>
      <trkpt lat="43.38287" lon="0.01689">
        <ele>277.96</ele>
        <time>2021-08-19T13:45:01Z</time>
      </trkpt>
      <trkpt lat="43.38283" lon="0.01683">
        <ele>277.96</ele>
        <time>2021-08-19T13:45:02Z</time>
      </trkpt>
      <trkpt lat="43.38268" lon="0.01666">
        <ele>277.96</ele>
        <time>2021-08-19T13:45:06Z</time>
      </trkpt>
      <trkpt lat="43.38236" lon="0.01638">
        <ele>278.44</ele>
        <time>2021-08-19T13:45:13Z</time>
      </trkpt>
      <trkpt lat="43.38217" lon="0.01622">
        <ele>279.88</ele>
        <time>2021-08-19T13:45:19Z</time>
      </trkpt>
      <trkpt lat="43.38203" lon="0.01615">
        <ele>280.84</ele>
        <time>2021-08-19T13:45:24Z</time>
      </trkpt>
      <trkpt lat="43.38168" lon="0.01598">
        <ele>281.32</ele>
        <time>2021-08-19T13:45:33Z</time>
      </trkpt>
      <trkpt lat="43.38132" lon="0.01575">
        <ele>280.36</ele>
        <time>2021-08-19T13:45:42Z</time>
      </trkpt>
      <trkpt lat="43.38127" lon="0.01572">
        <ele>280.36</ele>
        <time>2021-08-19T13:45:43Z</time>
      </trkpt>
      <trkpt lat="43.38109" lon="0.01561">
        <ele>279.88</ele>
        <time>2021-08-19T13:45:47Z</time>
      </trkpt>
      <trkpt lat="43.38104" lon="0.01559">
        <ele>279.88</ele>
        <time>2021-08-19T13:45:48Z</time>
      </trkpt>
      <trkpt lat="43.381" lon="0.01558">
        <ele>279.88</ele>
        <time>2021-08-19T13:45:49Z</time>
      </trkpt>
      <trkpt lat="43.38096" lon="0.01556">
        <ele>279.88</ele>
        <time>2021-08-19T13:45:50Z</time>
      </trkpt>
      <trkpt lat="43.38092" lon="0.01553">
        <ele>279.88</ele>
        <time>2021-08-19T13:45:51Z</time>
      </trkpt>
      <trkpt lat="43.38088" lon="0.01551">
        <ele>279.88</ele>
        <time>2021-08-19T13:45:52Z</time>
      </trkpt>
      <trkpt lat="43.38084" lon="0.01548">
        <ele>280.84</ele>
        <time>2021-08-19T13:45:53Z</time>
      </trkpt>
      <trkpt lat="43.38081" lon="0.01545">
        <ele>280.84</ele>
        <time>2021-08-19T13:45:54Z</time>
      </trkpt>
      <trkpt lat="43.38062" lon="0.01528">
        <ele>280.84</ele>
        <time>2021-08-19T13:45:59Z</time>
      </trkpt>
      <trkpt lat="43.38043" lon="0.01513">
        <ele>281.8</ele>
        <time>2021-08-19T13:46:04Z</time>
      </trkpt>
      <trkpt lat="43.38012" lon="0.01491">
        <ele>281.8</ele>
        <time>2021-08-19T13:46:12Z</time>
      </trkpt>
      <trkpt lat="43.38007" lon="0.01488">
        <ele>281.8</ele>
        <time>2021-08-19T13:46:13Z</time>
      </trkpt>
      <trkpt lat="43.38002" lon="0.01486">
        <ele>281.8</ele>
        <time>2021-08-19T13:46:14Z</time>
      </trkpt>
      <trkpt lat="43.37991" lon="0.01483">
        <ele>280.36</ele>
        <time>2021-08-19T13:46:16Z</time>
      </trkpt>
      <trkpt lat="43.37976" lon="0.01482">
        <ele>280.36</ele>
        <time>2021-08-19T13:46:19Z</time>
      </trkpt>
      <trkpt lat="43.37957" lon="0.01476">
        <ele>280.36</ele>
        <time>2021-08-19T13:46:24Z</time>
      </trkpt>
      <trkpt lat="43.3792" lon="0.01459">
        <ele>280.36</ele>
        <time>2021-08-19T13:46:31Z</time>
      </trkpt>
      <trkpt lat="43.37898" lon="0.01451">
        <ele>281.8</ele>
        <time>2021-08-19T13:46:36Z</time>
      </trkpt>
      <trkpt lat="43.37873" lon="0.01448">
        <ele>283.25</ele>
        <time>2021-08-19T13:46:43Z</time>
      </trkpt>
      <trkpt lat="43.3786" lon="0.0145">
        <ele>284.69</ele>
        <time>2021-08-19T13:46:51Z</time>
      </trkpt>
      <trkpt lat="43.37844" lon="0.01447">
        <ele>286.13</ele>
        <time>2021-08-19T13:46:59Z</time>
      </trkpt>
      <trkpt lat="43.37827" lon="0.01441">
        <ele>287.57</ele>
        <time>2021-08-19T13:47:07Z</time>
      </trkpt>
      <trkpt lat="43.37811" lon="0.01435">
        <ele>288.53</ele>
        <time>2021-08-19T13:47:14Z</time>
      </trkpt>
      <trkpt lat="43.3779" lon="0.01427">
        <ele>288.53</ele>
        <time>2021-08-19T13:47:22Z</time>
      </trkpt>
      <trkpt lat="43.37763" lon="0.01414">
        <ele>288.53</ele>
        <time>2021-08-19T13:47:29Z</time>
      </trkpt>
      <trkpt lat="43.37739" lon="0.01402">
        <ele>288.53</ele>
        <time>2021-08-19T13:47:35Z</time>
      </trkpt>
      <trkpt lat="43.37716" lon="0.01393">
        <ele>288.53</ele>
        <time>2021-08-19T13:47:41Z</time>
      </trkpt>
      <trkpt lat="43.37711" lon="0.01395">
        <ele>289.01</ele>
        <time>2021-08-19T13:47:43Z</time>
      </trkpt>
      <trkpt lat="43.3771" lon="0.01397">
        <ele>289.01</ele>
        <time>2021-08-19T13:47:44Z</time>
      </trkpt>
      <trkpt lat="43.37703" lon="0.01406">
        <ele>289.97</ele>
        <time>2021-08-19T13:47:50Z</time>
      </trkpt>
      <trkpt lat="43.37693" lon="0.01418">
        <ele>291.9</ele>
        <time>2021-08-19T13:47:58Z</time>
      </trkpt>
      <trkpt lat="43.37683" lon="0.01434">
        <ele>293.34</ele>
        <time>2021-08-19T13:48:06Z</time>
      </trkpt>
      <trkpt lat="43.37676" lon="0.01447">
        <ele>295.26</ele>
        <time>2021-08-19T13:48:14Z</time>
      </trkpt>
      <trkpt lat="43.37675" lon="0.01449">
        <ele>295.74</ele>
        <time>2021-08-19T13:48:15Z</time>
      </trkpt>
      <trkpt lat="43.37675" lon="0.01451">
        <ele>295.74</ele>
        <time>2021-08-19T13:48:16Z</time>
      </trkpt>
      <trkpt lat="43.37667" lon="0.01466">
        <ele>297.67</ele>
        <time>2021-08-19T13:48:24Z</time>
      </trkpt>
      <trkpt lat="43.37661" lon="0.01483">
        <ele>299.59</ele>
        <time>2021-08-19T13:48:33Z</time>
      </trkpt>
      <trkpt lat="43.37657" lon="0.01488">
        <ele>300.55</ele>
        <time>2021-08-19T13:48:40Z</time>
      </trkpt>
      <trkpt lat="43.37656" lon="0.01497">
        <ele>302.47</ele>
        <time>2021-08-19T13:48:49Z</time>
      </trkpt>
      <trkpt lat="43.37655" lon="0.01508">
        <ele>303.43</ele>
        <time>2021-08-19T13:48:57Z</time>
      </trkpt>
      <trkpt lat="43.37652" lon="0.0152">
        <ele>304.88</ele>
        <time>2021-08-19T13:49:06Z</time>
      </trkpt>
      <trkpt lat="43.37651" lon="0.01533">
        <ele>306.8</ele>
        <time>2021-08-19T13:49:14Z</time>
      </trkpt>
      <trkpt lat="43.37648" lon="0.0154">
        <ele>307.28</ele>
        <time>2021-08-19T13:49:21Z</time>
      </trkpt>
      <trkpt lat="43.37648" lon="0.01543">
        <ele>307.28</ele>
        <time>2021-08-19T13:49:24Z</time>
      </trkpt>
      <trkpt lat="43.37647" lon="0.01545">
        <ele>307.28</ele>
        <time>2021-08-19T13:49:25Z</time>
      </trkpt>
      <trkpt lat="43.37646" lon="0.01547">
        <ele>307.76</ele>
        <time>2021-08-19T13:49:26Z</time>
      </trkpt>
      <trkpt lat="43.37646" lon="0.01549">
        <ele>307.76</ele>
        <time>2021-08-19T13:49:27Z</time>
      </trkpt>
      <trkpt lat="43.37641" lon="0.01561">
        <ele>309.2</ele>
        <time>2021-08-19T13:49:34Z</time>
      </trkpt>
      <trkpt lat="43.37632" lon="0.01579">
        <ele>311.12</ele>
        <time>2021-08-19T13:49:44Z</time>
      </trkpt>
      <trkpt lat="43.3763" lon="0.01589">
        <ele>311.6</ele>
        <time>2021-08-19T13:49:49Z</time>
      </trkpt>
      <trkpt lat="43.37629" lon="0.01591">
        <ele>312.09</ele>
        <time>2021-08-19T13:49:50Z</time>
      </trkpt>
      <trkpt lat="43.37629" lon="0.01596">
        <ele>312.09</ele>
        <time>2021-08-19T13:49:52Z</time>
      </trkpt>
      <trkpt lat="43.37621" lon="0.01613">
        <ele>314.01</ele>
        <time>2021-08-19T13:50:01Z</time>
      </trkpt>
      <trkpt lat="43.37612" lon="0.01627">
        <ele>314.49</ele>
        <time>2021-08-19T13:50:08Z</time>
      </trkpt>
      <trkpt lat="43.3761" lon="0.01628">
        <ele>314.49</ele>
        <time>2021-08-19T13:50:09Z</time>
      </trkpt>
      <trkpt lat="43.37609" lon="0.01631">
        <ele>314.49</ele>
        <time>2021-08-19T13:50:10Z</time>
      </trkpt>
      <trkpt lat="43.37598" lon="0.01652">
        <ele>311.12</ele>
        <time>2021-08-19T13:50:15Z</time>
      </trkpt>
      <trkpt lat="43.37584" lon="0.01701">
        <ele>308.72</ele>
        <time>2021-08-19T13:50:22Z</time>
      </trkpt>
      <trkpt lat="43.37583" lon="0.01707">
        <ele>308.24</ele>
        <time>2021-08-19T13:50:23Z</time>
      </trkpt>
      <trkpt lat="43.37582" lon="0.01713">
        <ele>308.24</ele>
        <time>2021-08-19T13:50:24Z</time>
      </trkpt>
      <trkpt lat="43.37582" lon="0.01719">
        <ele>307.28</ele>
        <time>2021-08-19T13:50:25Z</time>
      </trkpt>
      <trkpt lat="43.37583" lon="0.01733">
        <ele>305.36</ele>
        <time>2021-08-19T13:50:27Z</time>
      </trkpt>
      <trkpt lat="43.37585" lon="0.01763">
        <ele>301.99</ele>
        <time>2021-08-19T13:50:31Z</time>
      </trkpt>
      <trkpt lat="43.37583" lon="0.01792">
        <ele>298.63</ele>
        <time>2021-08-19T13:50:35Z</time>
      </trkpt>
      <trkpt lat="43.3758" lon="0.01806">
        <ele>296.7</ele>
        <time>2021-08-19T13:50:37Z</time>
      </trkpt>
      <trkpt lat="43.37576" lon="0.0182">
        <ele>294.78</ele>
        <time>2021-08-19T13:50:39Z</time>
      </trkpt>
      <trkpt lat="43.37571" lon="0.01833">
        <ele>292.38</ele>
        <time>2021-08-19T13:50:41Z</time>
      </trkpt>
      <trkpt lat="43.37569" lon="0.01841">
        <ele>291.9</ele>
        <time>2021-08-19T13:50:42Z</time>
      </trkpt>
      <trkpt lat="43.37566" lon="0.01848">
        <ele>291.42</ele>
        <time>2021-08-19T13:50:43Z</time>
      </trkpt>
      <trkpt lat="43.37564" lon="0.01853">
        <ele>290.46</ele>
        <time>2021-08-19T13:50:44Z</time>
      </trkpt>
      <trkpt lat="43.37562" lon="0.01857">
        <ele>290.46</ele>
        <time>2021-08-19T13:50:45Z</time>
      </trkpt>
      <trkpt lat="43.3756" lon="0.0186">
        <ele>290.46</ele>
        <time>2021-08-19T13:50:46Z</time>
      </trkpt>
      <trkpt lat="43.37559" lon="0.01862">
        <ele>290.46</ele>
        <time>2021-08-19T13:50:47Z</time>
      </trkpt>
      <trkpt lat="43.37558" lon="0.01864">
        <ele>290.46</ele>
        <time>2021-08-19T13:50:48Z</time>
      </trkpt>
      <trkpt lat="43.37557" lon="0.01865">
        <ele>290.46</ele>
        <time>2021-08-19T13:50:49Z</time>
      </trkpt>
      <trkpt lat="43.37556" lon="0.01866">
        <ele>290.46</ele>
        <time>2021-08-19T13:50:50Z</time>
      </trkpt>
      <trkpt lat="43.37554" lon="0.01867">
        <ele>290.46</ele>
        <time>2021-08-19T13:50:51Z</time>
      </trkpt>
      <trkpt lat="43.37553" lon="0.01868">
        <ele>290.46</ele>
        <time>2021-08-19T13:50:52Z</time>
      </trkpt>
      <trkpt lat="43.37551" lon="0.0187">
        <ele>291.9</ele>
        <time>2021-08-19T13:50:54Z</time>
      </trkpt>
      <trkpt lat="43.37538" lon="0.01874">
        <ele>293.34</ele>
        <time>2021-08-19T13:51:00Z</time>
      </trkpt>
      <trkpt lat="43.37524" lon="0.01878">
        <ele>293.34</ele>
        <time>2021-08-19T13:51:06Z</time>
      </trkpt>
      <trkpt lat="43.3752" lon="0.01879">
        <ele>293.34</ele>
        <time>2021-08-19T13:51:08Z</time>
      </trkpt>
      <trkpt lat="43.37506" lon="0.01877">
        <ele>294.3</ele>
        <time>2021-08-19T13:51:15Z</time>
      </trkpt>
      <trkpt lat="43.37489" lon="0.01879">
        <ele>294.3</ele>
        <time>2021-08-19T13:51:21Z</time>
      </trkpt>
      <trkpt lat="43.37476" lon="0.01885">
        <ele>292.38</ele>
        <time>2021-08-19T13:51:24Z</time>
      </trkpt>
      <trkpt lat="43.37472" lon="0.01885">
        <ele>292.38</ele>
        <time>2021-08-19T13:51:25Z</time>
      </trkpt>
      <trkpt lat="43.37466" lon="0.01885">
        <ele>292.38</ele>
        <time>2021-08-19T13:51:26Z</time>
      </trkpt>
      <trkpt lat="43.37461" lon="0.01885">
        <ele>292.38</ele>
        <time>2021-08-19T13:51:27Z</time>
      </trkpt>
      <trkpt lat="43.37457" lon="0.01886">
        <ele>292.38</ele>
        <time>2021-08-19T13:51:28Z</time>
      </trkpt>
      <trkpt lat="43.37454" lon="0.01888">
        <ele>292.38</ele>
        <time>2021-08-19T13:51:29Z</time>
      </trkpt>
      <trkpt lat="43.37451" lon="0.01893">
        <ele>292.38</ele>
        <time>2021-08-19T13:51:30Z</time>
      </trkpt>
      <trkpt lat="43.37443" lon="0.01903">
        <ele>291.42</ele>
        <time>2021-08-19T13:51:32Z</time>
      </trkpt>
      <trkpt lat="43.37438" lon="0.01908">
        <ele>291.42</ele>
        <time>2021-08-19T13:51:33Z</time>
      </trkpt>
      <trkpt lat="43.37434" lon="0.01912">
        <ele>291.42</ele>
        <time>2021-08-19T13:51:34Z</time>
      </trkpt>
      <trkpt lat="43.37413" lon="0.01918">
        <ele>292.86</ele>
        <time>2021-08-19T13:51:39Z</time>
      </trkpt>
      <trkpt lat="43.3741" lon="0.01918">
        <ele>292.86</ele>
        <time>2021-08-19T13:51:40Z</time>
      </trkpt>
      <trkpt lat="43.3739" lon="0.01918">
        <ele>293.82</ele>
        <time>2021-08-19T13:51:46Z</time>
      </trkpt>
      <trkpt lat="43.37374" lon="0.01917">
        <ele>295.26</ele>
        <time>2021-08-19T13:51:51Z</time>
      </trkpt>
      <trkpt lat="43.37348" lon="0.01912">
        <ele>295.74</ele>
        <time>2021-08-19T13:51:59Z</time>
      </trkpt>
      <trkpt lat="43.3732" lon="0.01915">
        <ele>295.74</ele>
        <time>2021-08-19T13:52:06Z</time>
      </trkpt>
      <trkpt lat="43.37316" lon="0.01914">
        <ele>295.74</ele>
        <time>2021-08-19T13:52:07Z</time>
      </trkpt>
      <trkpt lat="43.37279" lon="0.01899">
        <ele>296.7</ele>
        <time>2021-08-19T13:52:17Z</time>
      </trkpt>
      <trkpt lat="43.37265" lon="0.01889">
        <ele>296.7</ele>
        <time>2021-08-19T13:52:21Z</time>
      </trkpt>
      <trkpt lat="43.37262" lon="0.01885">
        <ele>296.7</ele>
        <time>2021-08-19T13:52:22Z</time>
      </trkpt>
      <trkpt lat="43.37241" lon="0.01852">
        <ele>298.15</ele>
        <time>2021-08-19T13:52:30Z</time>
      </trkpt>
      <trkpt lat="43.37218" lon="0.01821">
        <ele>299.11</ele>
        <time>2021-08-19T13:52:39Z</time>
      </trkpt>
      <trkpt lat="43.37184" lon="0.01791">
        <ele>298.15</ele>
        <time>2021-08-19T13:52:48Z</time>
      </trkpt>
      <trkpt lat="43.37148" lon="0.01759">
        <ele>295.74</ele>
        <time>2021-08-19T13:52:55Z</time>
      </trkpt>
      <trkpt lat="43.37101" lon="0.0172">
        <ele>296.22</ele>
        <time>2021-08-19T13:53:04Z</time>
      </trkpt>
      <trkpt lat="43.37065" lon="0.01694">
        <ele>298.15</ele>
        <time>2021-08-19T13:53:12Z</time>
      </trkpt>
      <trkpt lat="43.37028" lon="0.01666">
        <ele>298.15</ele>
        <time>2021-08-19T13:53:21Z</time>
      </trkpt>
      <trkpt lat="43.37019" lon="0.01661">
        <ele>298.15</ele>
        <time>2021-08-19T13:53:23Z</time>
      </trkpt>
      <trkpt lat="43.37013" lon="0.01659">
        <ele>296.7</ele>
        <time>2021-08-19T13:53:24Z</time>
      </trkpt>
      <trkpt lat="43.37007" lon="0.01657">
        <ele>296.22</ele>
        <time>2021-08-19T13:53:25Z</time>
      </trkpt>
      <trkpt lat="43.37001" lon="0.01658">
        <ele>295.26</ele>
        <time>2021-08-19T13:53:26Z</time>
      </trkpt>
      <trkpt lat="43.36994" lon="0.01661">
        <ele>294.3</ele>
        <time>2021-08-19T13:53:27Z</time>
      </trkpt>
      <trkpt lat="43.36987" lon="0.01664">
        <ele>291.9</ele>
        <time>2021-08-19T13:53:28Z</time>
      </trkpt>
      <trkpt lat="43.36959" lon="0.01685">
        <ele>289.49</ele>
        <time>2021-08-19T13:53:32Z</time>
      </trkpt>
      <trkpt lat="43.36954" lon="0.01692">
        <ele>288.53</ele>
        <time>2021-08-19T13:53:33Z</time>
      </trkpt>
      <trkpt lat="43.3695" lon="0.01699">
        <ele>288.53</ele>
        <time>2021-08-19T13:53:34Z</time>
      </trkpt>
      <trkpt lat="43.36936" lon="0.01718">
        <ele>288.05</ele>
        <time>2021-08-19T13:53:39Z</time>
      </trkpt>
      <trkpt lat="43.36934" lon="0.01716">
        <ele>287.57</ele>
        <time>2021-08-19T13:53:40Z</time>
      </trkpt>
      <trkpt lat="43.36933" lon="0.01713">
        <ele>287.57</ele>
        <time>2021-08-19T13:53:41Z</time>
      </trkpt>
      <trkpt lat="43.36932" lon="0.0171">
        <ele>287.57</ele>
        <time>2021-08-19T13:53:42Z</time>
      </trkpt>
      <trkpt lat="43.36932" lon="0.01707">
        <ele>287.57</ele>
        <time>2021-08-19T13:53:43Z</time>
      </trkpt>
      <trkpt lat="43.36932" lon="0.01704">
        <ele>288.05</ele>
        <time>2021-08-19T13:53:44Z</time>
      </trkpt>
      <trkpt lat="43.3693" lon="0.01694">
        <ele>289.01</ele>
        <time>2021-08-19T13:53:47Z</time>
      </trkpt>
      <trkpt lat="43.36928" lon="0.01689">
        <ele>289.49</ele>
        <time>2021-08-19T13:53:49Z</time>
      </trkpt>
      <trkpt lat="43.36926" lon="0.01688">
        <ele>289.49</ele>
        <time>2021-08-19T13:53:50Z</time>
      </trkpt>
      <trkpt lat="43.36924" lon="0.01688">
        <ele>289.49</ele>
        <time>2021-08-19T13:53:51Z</time>
      </trkpt>
      <trkpt lat="43.36921" lon="0.01688">
        <ele>289.49</ele>
        <time>2021-08-19T13:53:52Z</time>
      </trkpt>
      <trkpt lat="43.36919" lon="0.0169">
        <ele>289.49</ele>
        <time>2021-08-19T13:53:53Z</time>
      </trkpt>
      <trkpt lat="43.36916" lon="0.01692">
        <ele>289.49</ele>
        <time>2021-08-19T13:53:54Z</time>
      </trkpt>
      <trkpt lat="43.36913" lon="0.01695">
        <ele>289.49</ele>
        <time>2021-08-19T13:53:55Z</time>
      </trkpt>
      <trkpt lat="43.36911" lon="0.01699">
        <ele>288.53</ele>
        <time>2021-08-19T13:53:56Z</time>
      </trkpt>
      <trkpt lat="43.3691" lon="0.01704">
        <ele>288.05</ele>
        <time>2021-08-19T13:53:57Z</time>
      </trkpt>
      <trkpt lat="43.3691" lon="0.01709">
        <ele>287.09</ele>
        <time>2021-08-19T13:53:58Z</time>
      </trkpt>
      <trkpt lat="43.3691" lon="0.01716">
        <ele>286.61</ele>
        <time>2021-08-19T13:53:59Z</time>
      </trkpt>
      <trkpt lat="43.36911" lon="0.01736">
        <ele>283.73</ele>
        <time>2021-08-19T13:54:02Z</time>
      </trkpt>
      <trkpt lat="43.36912" lon="0.01743">
        <ele>283.25</ele>
        <time>2021-08-19T13:54:03Z</time>
      </trkpt>
      <trkpt lat="43.36914" lon="0.01751">
        <ele>282.28</ele>
        <time>2021-08-19T13:54:04Z</time>
      </trkpt>
      <trkpt lat="43.36921" lon="0.01777">
        <ele>279.4</ele>
        <time>2021-08-19T13:54:08Z</time>
      </trkpt>
      <trkpt lat="43.36921" lon="0.01783">
        <ele>278.44</ele>
        <time>2021-08-19T13:54:09Z</time>
      </trkpt>
      <trkpt lat="43.36921" lon="0.01789">
        <ele>277.48</ele>
        <time>2021-08-19T13:54:10Z</time>
      </trkpt>
      <trkpt lat="43.36921" lon="0.01802">
        <ele>274.59</ele>
        <time>2021-08-19T13:54:12Z</time>
      </trkpt>
      <trkpt lat="43.36917" lon="0.01835">
        <ele>271.23</ele>
        <time>2021-08-19T13:54:16Z</time>
      </trkpt>
      <trkpt lat="43.36913" lon="0.01862">
        <ele>269.79</ele>
        <time>2021-08-19T13:54:19Z</time>
      </trkpt>
      <trkpt lat="43.36911" lon="0.01878">
        <ele>269.31</ele>
        <time>2021-08-19T13:54:21Z</time>
      </trkpt>
      <trkpt lat="43.36909" lon="0.01886">
        <ele>269.31</ele>
        <time>2021-08-19T13:54:22Z</time>
      </trkpt>
      <trkpt lat="43.36906" lon="0.01892">
        <ele>268.83</ele>
        <time>2021-08-19T13:54:23Z</time>
      </trkpt>
      <trkpt lat="43.36901" lon="0.01914">
        <ele>267.38</ele>
        <time>2021-08-19T13:54:26Z</time>
      </trkpt>
      <trkpt lat="43.369" lon="0.01922">
        <ele>266.9</ele>
        <time>2021-08-19T13:54:27Z</time>
      </trkpt>
      <trkpt lat="43.36901" lon="0.0193">
        <ele>266.9</ele>
        <time>2021-08-19T13:54:28Z</time>
      </trkpt>
      <trkpt lat="43.36902" lon="0.0196">
        <ele>265.94</ele>
        <time>2021-08-19T13:54:33Z</time>
      </trkpt>
      <trkpt lat="43.36903" lon="0.0197">
        <ele>265.46</ele>
        <time>2021-08-19T13:54:38Z</time>
      </trkpt>
      <trkpt lat="43.36902" lon="0.01972">
        <ele>265.94</ele>
        <time>2021-08-19T13:54:45Z</time>
      </trkpt>
      <trkpt lat="43.36902" lon="0.01975">
        <ele>265.46</ele>
        <time>2021-08-19T13:54:52Z</time>
      </trkpt>
      <trkpt lat="43.36903" lon="0.01986">
        <ele>264.98</ele>
        <time>2021-08-19T13:55:00Z</time>
      </trkpt>
      <trkpt lat="43.36908" lon="0.02009">
        <ele>264.02</ele>
        <time>2021-08-19T13:55:06Z</time>
      </trkpt>
      <trkpt lat="43.36917" lon="0.02038">
        <ele>263.06</ele>
        <time>2021-08-19T13:55:12Z</time>
      </trkpt>
      <trkpt lat="43.36916" lon="0.02056">
        <ele>263.06</ele>
        <time>2021-08-19T13:55:16Z</time>
      </trkpt>
      <trkpt lat="43.36915" lon="0.02059">
        <ele>263.06</ele>
        <time>2021-08-19T13:55:17Z</time>
      </trkpt>
      <trkpt lat="43.36914" lon="0.02062">
        <ele>263.06</ele>
        <time>2021-08-19T13:55:18Z</time>
      </trkpt>
      <trkpt lat="43.36913" lon="0.02066">
        <ele>263.06</ele>
        <time>2021-08-19T13:55:19Z</time>
      </trkpt>
      <trkpt lat="43.36913" lon="0.02069">
        <ele>263.06</ele>
        <time>2021-08-19T13:55:20Z</time>
      </trkpt>
      <trkpt lat="43.36912" lon="0.02075">
        <ele>264.5</ele>
        <time>2021-08-19T13:55:22Z</time>
      </trkpt>
      <trkpt lat="43.36913" lon="0.02102">
        <ele>264.98</ele>
        <time>2021-08-19T13:55:29Z</time>
      </trkpt>
      <trkpt lat="43.36917" lon="0.02133">
        <ele>265.94</ele>
        <time>2021-08-19T13:55:36Z</time>
      </trkpt>
      <trkpt lat="43.36925" lon="0.0216">
        <ele>266.42</ele>
        <time>2021-08-19T13:55:43Z</time>
      </trkpt>
      <trkpt lat="43.36931" lon="0.02177">
        <ele>266.9</ele>
        <time>2021-08-19T13:55:49Z</time>
      </trkpt>
      <trkpt lat="43.36938" lon="0.02198">
        <ele>267.38</ele>
        <time>2021-08-19T13:55:56Z</time>
      </trkpt>
      <trkpt lat="43.36948" lon="0.02221">
        <ele>268.35</ele>
        <time>2021-08-19T13:56:03Z</time>
      </trkpt>
      <trkpt lat="43.3696" lon="0.02255">
        <ele>269.31</ele>
        <time>2021-08-19T13:56:13Z</time>
      </trkpt>
      <trkpt lat="43.36971" lon="0.02275">
        <ele>269.31</ele>
        <time>2021-08-19T13:56:19Z</time>
      </trkpt>
      <trkpt lat="43.36979" lon="0.02303">
        <ele>269.79</ele>
        <time>2021-08-19T13:56:26Z</time>
      </trkpt>
      <trkpt lat="43.36978" lon="0.02334">
        <ele>270.75</ele>
        <time>2021-08-19T13:56:34Z</time>
      </trkpt>
      <trkpt lat="43.36975" lon="0.02353">
        <ele>271.71</ele>
        <time>2021-08-19T13:56:42Z</time>
      </trkpt>
      <trkpt lat="43.36974" lon="0.02355">
        <ele>271.71</ele>
        <time>2021-08-19T13:56:43Z</time>
      </trkpt>
      <trkpt lat="43.36974" lon="0.02358">
        <ele>271.71</ele>
        <time>2021-08-19T13:56:44Z</time>
      </trkpt>
      <trkpt lat="43.36973" lon="0.02359">
        <ele>271.71</ele>
        <time>2021-08-19T13:56:45Z</time>
      </trkpt>
      <trkpt lat="43.36967" lon="0.02373">
        <ele>273.15</ele>
        <time>2021-08-19T13:56:52Z</time>
      </trkpt>
      <trkpt lat="43.36963" lon="0.02389">
        <ele>274.59</ele>
        <time>2021-08-19T13:57:00Z</time>
      </trkpt>
      <trkpt lat="43.3696" lon="0.02399">
        <ele>275.56</ele>
        <time>2021-08-19T13:57:06Z</time>
      </trkpt>
      <trkpt lat="43.3696" lon="0.02417">
        <ele>277.48</ele>
        <time>2021-08-19T13:57:16Z</time>
      </trkpt>
      <trkpt lat="43.36964" lon="0.02431">
        <ele>278.44</ele>
        <time>2021-08-19T13:57:23Z</time>
      </trkpt>
      <trkpt lat="43.36966" lon="0.02447">
        <ele>278.92</ele>
        <time>2021-08-19T13:57:29Z</time>
      </trkpt>
      <trkpt lat="43.36966" lon="0.0245">
        <ele>279.88</ele>
        <time>2021-08-19T13:57:30Z</time>
      </trkpt>
      <trkpt lat="43.36967" lon="0.02453">
        <ele>279.88</ele>
        <time>2021-08-19T13:57:31Z</time>
      </trkpt>
      <trkpt lat="43.36967" lon="0.02455">
        <ele>279.88</ele>
        <time>2021-08-19T13:57:32Z</time>
      </trkpt>
      <trkpt lat="43.36968" lon="0.02458">
        <ele>279.88</ele>
        <time>2021-08-19T13:57:33Z</time>
      </trkpt>
      <trkpt lat="43.36968" lon="0.0246">
        <ele>279.88</ele>
        <time>2021-08-19T13:57:34Z</time>
      </trkpt>
      <trkpt lat="43.36972" lon="0.0248">
        <ele>280.84</ele>
        <time>2021-08-19T13:57:41Z</time>
      </trkpt>
      <trkpt lat="43.3698" lon="0.02502">
        <ele>281.32</ele>
        <time>2021-08-19T13:57:49Z</time>
      </trkpt>
      <trkpt lat="43.36992" lon="0.02524">
        <ele>282.28</ele>
        <time>2021-08-19T13:57:56Z</time>
      </trkpt>
      <trkpt lat="43.3701" lon="0.02547">
        <ele>283.25</ele>
        <time>2021-08-19T13:58:04Z</time>
      </trkpt>
      <trkpt lat="43.37021" lon="0.02565">
        <ele>283.73</ele>
        <time>2021-08-19T13:58:11Z</time>
      </trkpt>
      <trkpt lat="43.37029" lon="0.02585">
        <ele>284.21</ele>
        <time>2021-08-19T13:58:17Z</time>
      </trkpt>
      <trkpt lat="43.37038" lon="0.02609">
        <ele>284.21</ele>
        <time>2021-08-19T13:58:23Z</time>
      </trkpt>
      <trkpt lat="43.37053" lon="0.02644">
        <ele>285.65</ele>
        <time>2021-08-19T13:58:31Z</time>
      </trkpt>
      <trkpt lat="43.37069" lon="0.0268">
        <ele>287.09</ele>
        <time>2021-08-19T13:58:39Z</time>
      </trkpt>
      <trkpt lat="43.37082" lon="0.02713">
        <ele>288.05</ele>
        <time>2021-08-19T13:58:47Z</time>
      </trkpt>
      <trkpt lat="43.37096" lon="0.02736">
        <ele>289.49</ele>
        <time>2021-08-19T13:58:54Z</time>
      </trkpt>
      <trkpt lat="43.37124" lon="0.02756">
        <ele>289.97</ele>
        <time>2021-08-19T13:59:03Z</time>
      </trkpt>
      <trkpt lat="43.37142" lon="0.02769">
        <ele>290.94</ele>
        <time>2021-08-19T13:59:10Z</time>
      </trkpt>
      <trkpt lat="43.37144" lon="0.02772">
        <ele>290.94</ele>
        <time>2021-08-19T13:59:11Z</time>
      </trkpt>
      <trkpt lat="43.37144" lon="0.02777">
        <ele>290.94</ele>
        <time>2021-08-19T13:59:12Z</time>
      </trkpt>
      <trkpt lat="43.37145" lon="0.02782">
        <ele>290.46</ele>
        <time>2021-08-19T13:59:13Z</time>
      </trkpt>
      <trkpt lat="43.37145" lon="0.02786">
        <ele>290.46</ele>
        <time>2021-08-19T13:59:14Z</time>
      </trkpt>
      <trkpt lat="43.37146" lon="0.02791">
        <ele>290.94</ele>
        <time>2021-08-19T13:59:15Z</time>
      </trkpt>
      <trkpt lat="43.37147" lon="0.02802">
        <ele>289.49</ele>
        <time>2021-08-19T13:59:17Z</time>
      </trkpt>
      <trkpt lat="43.37148" lon="0.02809">
        <ele>289.01</ele>
        <time>2021-08-19T13:59:18Z</time>
      </trkpt>
      <trkpt lat="43.37148" lon="0.02815">
        <ele>289.01</ele>
        <time>2021-08-19T13:59:19Z</time>
      </trkpt>
      <trkpt lat="43.37148" lon="0.02819">
        <ele>289.01</ele>
        <time>2021-08-19T13:59:20Z</time>
      </trkpt>
      <trkpt lat="43.37149" lon="0.02821">
        <ele>288.53</ele>
        <time>2021-08-19T13:59:21Z</time>
      </trkpt>
      <trkpt lat="43.37149" lon="0.02822">
        <ele>288.53</ele>
        <time>2021-08-19T13:59:22Z</time>
      </trkpt>
      <trkpt lat="43.3715" lon="0.0282">
        <ele>288.53</ele>
        <time>2021-08-19T13:59:24Z</time>
      </trkpt>
      <trkpt lat="43.3715" lon="0.02818">
        <ele>288.53</ele>
        <time>2021-08-19T13:59:25Z</time>
      </trkpt>
      <trkpt lat="43.3715" lon="0.02815">
        <ele>288.05</ele>
        <time>2021-08-19T13:59:26Z</time>
      </trkpt>
      <trkpt lat="43.37149" lon="0.02812">
        <ele>288.05</ele>
        <time>2021-08-19T13:59:27Z</time>
      </trkpt>
      <trkpt lat="43.37149" lon="0.02808">
        <ele>288.05</ele>
        <time>2021-08-19T13:59:28Z</time>
      </trkpt>
      <trkpt lat="43.37148" lon="0.02804">
        <ele>288.05</ele>
        <time>2021-08-19T13:59:29Z</time>
      </trkpt>
      <trkpt lat="43.37147" lon="0.02789">
        <ele>289.49</ele>
        <time>2021-08-19T13:59:32Z</time>
      </trkpt>
      <trkpt lat="43.37152" lon="0.02772">
        <ele>290.46</ele>
        <time>2021-08-19T13:59:36Z</time>
      </trkpt>
      <trkpt lat="43.37154" lon="0.02771">
        <ele>291.42</ele>
        <time>2021-08-19T13:59:37Z</time>
      </trkpt>
      <trkpt lat="43.37157" lon="0.02771">
        <ele>291.42</ele>
        <time>2021-08-19T13:59:38Z</time>
      </trkpt>
      <trkpt lat="43.37174" lon="0.02775">
        <ele>291.9</ele>
        <time>2021-08-19T13:59:44Z</time>
      </trkpt>
      <trkpt lat="43.37207" lon="0.02781">
        <ele>291.9</ele>
        <time>2021-08-19T13:59:52Z</time>
      </trkpt>
      <trkpt lat="43.37243" lon="0.02777">
        <ele>291.9</ele>
        <time>2021-08-19T13:59:59Z</time>
      </trkpt>
      <trkpt lat="43.37248" lon="0.02778">
        <ele>291.9</ele>
        <time>2021-08-19T14:00:00Z</time>
      </trkpt>
      <trkpt lat="43.37252" lon="0.02782">
        <ele>291.9</ele>
        <time>2021-08-19T14:00:01Z</time>
      </trkpt>
      <trkpt lat="43.37254" lon="0.02786">
        <ele>291.9</ele>
        <time>2021-08-19T14:00:02Z</time>
      </trkpt>
      <trkpt lat="43.37254" lon="0.02791">
        <ele>292.38</ele>
        <time>2021-08-19T14:00:03Z</time>
      </trkpt>
      <trkpt lat="43.37254" lon="0.02795">
        <ele>292.86</ele>
        <time>2021-08-19T14:00:04Z</time>
      </trkpt>
      <trkpt lat="43.37254" lon="0.028">
        <ele>292.86</ele>
        <time>2021-08-19T14:00:05Z</time>
      </trkpt>
      <trkpt lat="43.37254" lon="0.02803">
        <ele>293.34</ele>
        <time>2021-08-19T14:00:06Z</time>
      </trkpt>
      <trkpt lat="43.37245" lon="0.02825">
        <ele>294.78</ele>
        <time>2021-08-19T14:00:12Z</time>
      </trkpt>
      <trkpt lat="43.37241" lon="0.02855">
        <ele>295.74</ele>
        <time>2021-08-19T14:00:19Z</time>
      </trkpt>
      <trkpt lat="43.37254" lon="0.02873">
        <ele>297.67</ele>
        <time>2021-08-19T14:00:25Z</time>
      </trkpt>
      <trkpt lat="43.37264" lon="0.02899">
        <ele>297.67</ele>
        <time>2021-08-19T14:00:32Z</time>
      </trkpt>
      <trkpt lat="43.37276" lon="0.02913">
        <ele>296.7</ele>
        <time>2021-08-19T14:00:36Z</time>
      </trkpt>
      <trkpt lat="43.37278" lon="0.02919">
        <ele>296.7</ele>
        <time>2021-08-19T14:00:37Z</time>
      </trkpt>
      <trkpt lat="43.3728" lon="0.02926">
        <ele>296.22</ele>
        <time>2021-08-19T14:00:38Z</time>
      </trkpt>
      <trkpt lat="43.3728" lon="0.02954">
        <ele>294.78</ele>
        <time>2021-08-19T14:00:43Z</time>
      </trkpt>
      <trkpt lat="43.37277" lon="0.02956">
        <ele>294.78</ele>
        <time>2021-08-19T14:00:44Z</time>
      </trkpt>
      <trkpt lat="43.37274" lon="0.02958">
        <ele>294.3</ele>
        <time>2021-08-19T14:00:45Z</time>
      </trkpt>
      <trkpt lat="43.37264" lon="0.0296">
        <ele>291.9</ele>
        <time>2021-08-19T14:00:47Z</time>
      </trkpt>
      <trkpt lat="43.37253" lon="0.0296">
        <ele>289.97</ele>
        <time>2021-08-19T14:00:49Z</time>
      </trkpt>
      <trkpt lat="43.37248" lon="0.02961">
        <ele>289.01</ele>
        <time>2021-08-19T14:00:50Z</time>
      </trkpt>
      <trkpt lat="43.37242" lon="0.02963">
        <ele>288.05</ele>
        <time>2021-08-19T14:00:51Z</time>
      </trkpt>
      <trkpt lat="43.37226" lon="0.02971">
        <ele>284.21</ele>
        <time>2021-08-19T14:00:54Z</time>
      </trkpt>
      <trkpt lat="43.37207" lon="0.02982">
        <ele>281.32</ele>
        <time>2021-08-19T14:00:58Z</time>
      </trkpt>
      <trkpt lat="43.37202" lon="0.02983">
        <ele>281.32</ele>
        <time>2021-08-19T14:00:59Z</time>
      </trkpt>
      <trkpt lat="43.37197" lon="0.02984">
        <ele>280.84</ele>
        <time>2021-08-19T14:01:00Z</time>
      </trkpt>
      <trkpt lat="43.37181" lon="0.02983">
        <ele>280.84</ele>
        <time>2021-08-19T14:01:03Z</time>
      </trkpt>
      <trkpt lat="43.37177" lon="0.02979">
        <ele>280.84</ele>
        <time>2021-08-19T14:01:04Z</time>
      </trkpt>
      <trkpt lat="43.37173" lon="0.02976">
        <ele>280.84</ele>
        <time>2021-08-19T14:01:05Z</time>
      </trkpt>
      <trkpt lat="43.37171" lon="0.02971">
        <ele>280.84</ele>
        <time>2021-08-19T14:01:06Z</time>
      </trkpt>
      <trkpt lat="43.3717" lon="0.02965">
        <ele>280.84</ele>
        <time>2021-08-19T14:01:07Z</time>
      </trkpt>
      <trkpt lat="43.37169" lon="0.0296">
        <ele>280.84</ele>
        <time>2021-08-19T14:01:08Z</time>
      </trkpt>
      <trkpt lat="43.37165" lon="0.02949">
        <ele>280.84</ele>
        <time>2021-08-19T14:01:12Z</time>
      </trkpt>
      <trkpt lat="43.37165" lon="0.0295">
        <ele>280.84</ele>
        <time>2021-08-19T14:01:13Z</time>
      </trkpt>
      <trkpt lat="43.37166" lon="0.02952">
        <ele>280.84</ele>
        <time>2021-08-19T14:01:14Z</time>
      </trkpt>
      <trkpt lat="43.37167" lon="0.02954">
        <ele>280.84</ele>
        <time>2021-08-19T14:01:15Z</time>
      </trkpt>
      <trkpt lat="43.37168" lon="0.02957">
        <ele>280.84</ele>
        <time>2021-08-19T14:01:16Z</time>
      </trkpt>
      <trkpt lat="43.37169" lon="0.0296">
        <ele>280.84</ele>
        <time>2021-08-19T14:01:17Z</time>
      </trkpt>
      <trkpt lat="43.37171" lon="0.02964">
        <ele>280.84</ele>
        <time>2021-08-19T14:01:18Z</time>
      </trkpt>
      <trkpt lat="43.37184" lon="0.02979">
        <ele>280.84</ele>
        <time>2021-08-19T14:01:23Z</time>
      </trkpt>
      <trkpt lat="43.37193" lon="0.02982">
        <ele>280.84</ele>
        <time>2021-08-19T14:01:26Z</time>
      </trkpt>
      <trkpt lat="43.37195" lon="0.02984">
        <ele>280.84</ele>
        <time>2021-08-19T14:01:27Z</time>
      </trkpt>
      <trkpt lat="43.37194" lon="0.02987">
        <ele>280.84</ele>
        <time>2021-08-19T14:01:28Z</time>
      </trkpt>
      <trkpt lat="43.37192" lon="0.02988">
        <ele>280.36</ele>
        <time>2021-08-19T14:01:29Z</time>
      </trkpt>
      <trkpt lat="43.3719" lon="0.02989">
        <ele>279.4</ele>
        <time>2021-08-19T14:01:30Z</time>
      </trkpt>
      <trkpt lat="43.37187" lon="0.02992">
        <ele>278.44</ele>
        <time>2021-08-19T14:01:31Z</time>
      </trkpt>
      <trkpt lat="43.37183" lon="0.02994">
        <ele>277.48</ele>
        <time>2021-08-19T14:01:32Z</time>
      </trkpt>
      <trkpt lat="43.37171" lon="0.02999">
        <ele>274.59</ele>
        <time>2021-08-19T14:01:35Z</time>
      </trkpt>
      <trkpt lat="43.37166" lon="0.02999">
        <ele>273.63</ele>
        <time>2021-08-19T14:01:36Z</time>
      </trkpt>
      <trkpt lat="43.37148" lon="0.02998">
        <ele>269.79</ele>
        <time>2021-08-19T14:01:39Z</time>
      </trkpt>
      <trkpt lat="43.37124" lon="0.02997">
        <ele>266.42</ele>
        <time>2021-08-19T14:01:43Z</time>
      </trkpt>
      <trkpt lat="43.37116" lon="0.02997">
        <ele>264.98</ele>
        <time>2021-08-19T14:01:45Z</time>
      </trkpt>
      <trkpt lat="43.37111" lon="0.02998">
        <ele>264.02</ele>
        <time>2021-08-19T14:01:46Z</time>
      </trkpt>
      <trkpt lat="43.37108" lon="0.02999">
        <ele>264.5</ele>
        <time>2021-08-19T14:01:47Z</time>
      </trkpt>
      <trkpt lat="43.37106" lon="0.03002">
        <ele>263.54</ele>
        <time>2021-08-19T14:01:48Z</time>
      </trkpt>
      <trkpt lat="43.37105" lon="0.03007">
        <ele>262.58</ele>
        <time>2021-08-19T14:01:49Z</time>
      </trkpt>
      <trkpt lat="43.37106" lon="0.03012">
        <ele>261.62</ele>
        <time>2021-08-19T14:01:50Z</time>
      </trkpt>
      <trkpt lat="43.37106" lon="0.03019">
        <ele>260.65</ele>
        <time>2021-08-19T14:01:51Z</time>
      </trkpt>
      <trkpt lat="43.37106" lon="0.03045">
        <ele>256.81</ele>
        <time>2021-08-19T14:01:54Z</time>
      </trkpt>
      <trkpt lat="43.37104" lon="0.03071">
        <ele>253.93</ele>
        <time>2021-08-19T14:01:57Z</time>
      </trkpt>
      <trkpt lat="43.37101" lon="0.03076">
        <ele>252.96</ele>
        <time>2021-08-19T14:01:58Z</time>
      </trkpt>
      <trkpt lat="43.37097" lon="0.03079">
        <ele>252.48</ele>
        <time>2021-08-19T14:01:59Z</time>
      </trkpt>
      <trkpt lat="43.37093" lon="0.03079">
        <ele>252.48</ele>
        <time>2021-08-19T14:02:00Z</time>
      </trkpt>
      <trkpt lat="43.37088" lon="0.03079">
        <ele>252</ele>
        <time>2021-08-19T14:02:01Z</time>
      </trkpt>
      <trkpt lat="43.37047" lon="0.03075">
        <ele>249.6</ele>
        <time>2021-08-19T14:02:08Z</time>
      </trkpt>
      <trkpt lat="43.37039" lon="0.03075">
        <ele>250.08</ele>
        <time>2021-08-19T14:02:09Z</time>
      </trkpt>
      <trkpt lat="43.37033" lon="0.03076">
        <ele>250.08</ele>
        <time>2021-08-19T14:02:10Z</time>
      </trkpt>
      <trkpt lat="43.37026" lon="0.03078">
        <ele>250.08</ele>
        <time>2021-08-19T14:02:11Z</time>
      </trkpt>
      <trkpt lat="43.3702" lon="0.0308">
        <ele>249.6</ele>
        <time>2021-08-19T14:02:12Z</time>
      </trkpt>
      <trkpt lat="43.37015" lon="0.03083">
        <ele>249.6</ele>
        <time>2021-08-19T14:02:13Z</time>
      </trkpt>
      <trkpt lat="43.37008" lon="0.03088">
        <ele>249.6</ele>
        <time>2021-08-19T14:02:14Z</time>
      </trkpt>
      <trkpt lat="43.37003" lon="0.03093">
        <ele>249.6</ele>
        <time>2021-08-19T14:02:15Z</time>
      </trkpt>
      <trkpt lat="43.36997" lon="0.03099">
        <ele>249.12</ele>
        <time>2021-08-19T14:02:16Z</time>
      </trkpt>
      <trkpt lat="43.36989" lon="0.03111">
        <ele>248.16</ele>
        <time>2021-08-19T14:02:18Z</time>
      </trkpt>
      <trkpt lat="43.36972" lon="0.0314">
        <ele>247.2</ele>
        <time>2021-08-19T14:02:22Z</time>
      </trkpt>
      <trkpt lat="43.36967" lon="0.03146">
        <ele>247.2</ele>
        <time>2021-08-19T14:02:23Z</time>
      </trkpt>
      <trkpt lat="43.3696" lon="0.03151">
        <ele>247.2</ele>
        <time>2021-08-19T14:02:24Z</time>
      </trkpt>
      <trkpt lat="43.36954" lon="0.03153">
        <ele>246.72</ele>
        <time>2021-08-19T14:02:25Z</time>
      </trkpt>
      <trkpt lat="43.36948" lon="0.03155">
        <ele>246.72</ele>
        <time>2021-08-19T14:02:26Z</time>
      </trkpt>
      <trkpt lat="43.36883" lon="0.03183">
        <ele>243.35</ele>
        <time>2021-08-19T14:02:35Z</time>
      </trkpt>
      <trkpt lat="43.36836" lon="0.03193">
        <ele>242.39</ele>
        <time>2021-08-19T14:02:41Z</time>
      </trkpt>
      <trkpt lat="43.36785" lon="0.03186">
        <ele>241.91</ele>
        <time>2021-08-19T14:02:48Z</time>
      </trkpt>
      <trkpt lat="43.36767" lon="0.03183">
        <ele>241.91</ele>
        <time>2021-08-19T14:02:51Z</time>
      </trkpt>
      <trkpt lat="43.36761" lon="0.03184">
        <ele>241.91</ele>
        <time>2021-08-19T14:02:52Z</time>
      </trkpt>
      <trkpt lat="43.36757" lon="0.03189">
        <ele>241.91</ele>
        <time>2021-08-19T14:02:53Z</time>
      </trkpt>
      <trkpt lat="43.36754" lon="0.03195">
        <ele>241.91</ele>
        <time>2021-08-19T14:02:54Z</time>
      </trkpt>
      <trkpt lat="43.36751" lon="0.03201">
        <ele>241.91</ele>
        <time>2021-08-19T14:02:55Z</time>
      </trkpt>
      <trkpt lat="43.36749" lon="0.03208">
        <ele>241.91</ele>
        <time>2021-08-19T14:02:56Z</time>
      </trkpt>
      <trkpt lat="43.36745" lon="0.03221">
        <ele>241.91</ele>
        <time>2021-08-19T14:02:58Z</time>
      </trkpt>
      <trkpt lat="43.36741" lon="0.03227">
        <ele>241.43</ele>
        <time>2021-08-19T14:02:59Z</time>
      </trkpt>
      <trkpt lat="43.36735" lon="0.03232">
        <ele>241.43</ele>
        <time>2021-08-19T14:03:00Z</time>
      </trkpt>
      <trkpt lat="43.3673" lon="0.03233">
        <ele>241.43</ele>
        <time>2021-08-19T14:03:01Z</time>
      </trkpt>
      <trkpt lat="43.36724" lon="0.03234">
        <ele>241.43</ele>
        <time>2021-08-19T14:03:02Z</time>
      </trkpt>
      <trkpt lat="43.36719" lon="0.03233">
        <ele>241.43</ele>
        <time>2021-08-19T14:03:03Z</time>
      </trkpt>
      <trkpt lat="43.36674" lon="0.03229">
        <ele>241.43</ele>
        <time>2021-08-19T14:03:12Z</time>
      </trkpt>
      <trkpt lat="43.36623" lon="0.03226">
        <ele>241.43</ele>
        <time>2021-08-19T14:03:22Z</time>
      </trkpt>
      <trkpt lat="43.3657" lon="0.03224">
        <ele>240.95</ele>
        <time>2021-08-19T14:03:32Z</time>
      </trkpt>
      <trkpt lat="43.36517" lon="0.03229">
        <ele>240.95</ele>
        <time>2021-08-19T14:03:42Z</time>
      </trkpt>
      <trkpt lat="43.36473" lon="0.0323">
        <ele>242.39</ele>
        <time>2021-08-19T14:03:51Z</time>
      </trkpt>
      <trkpt lat="43.36465" lon="0.03232">
        <ele>242.87</ele>
        <time>2021-08-19T14:03:53Z</time>
      </trkpt>
      <trkpt lat="43.36463" lon="0.03235">
        <ele>242.87</ele>
        <time>2021-08-19T14:03:54Z</time>
      </trkpt>
      <trkpt lat="43.36461" lon="0.0324">
        <ele>242.87</ele>
        <time>2021-08-19T14:03:55Z</time>
      </trkpt>
      <trkpt lat="43.3646" lon="0.03245">
        <ele>242.87</ele>
        <time>2021-08-19T14:03:56Z</time>
      </trkpt>
      <trkpt lat="43.36459" lon="0.0325">
        <ele>242.87</ele>
        <time>2021-08-19T14:03:57Z</time>
      </trkpt>
      <trkpt lat="43.36458" lon="0.03256">
        <ele>242.87</ele>
        <time>2021-08-19T14:03:58Z</time>
      </trkpt>
      <trkpt lat="43.36456" lon="0.03262">
        <ele>242.87</ele>
        <time>2021-08-19T14:03:59Z</time>
      </trkpt>
      <trkpt lat="43.36453" lon="0.03266">
        <ele>242.87</ele>
        <time>2021-08-19T14:04:00Z</time>
      </trkpt>
      <trkpt lat="43.3645" lon="0.03271">
        <ele>242.87</ele>
        <time>2021-08-19T14:04:01Z</time>
      </trkpt>
      <trkpt lat="43.36446" lon="0.03275">
        <ele>242.87</ele>
        <time>2021-08-19T14:04:02Z</time>
      </trkpt>
      <trkpt lat="43.36415" lon="0.03309">
        <ele>242.87</ele>
        <time>2021-08-19T14:04:10Z</time>
      </trkpt>
      <trkpt lat="43.36374" lon="0.03357">
        <ele>242.87</ele>
        <time>2021-08-19T14:04:20Z</time>
      </trkpt>
      <trkpt lat="43.36354" lon="0.03385">
        <ele>242.87</ele>
        <time>2021-08-19T14:04:25Z</time>
      </trkpt>
      <trkpt lat="43.36342" lon="0.03404">
        <ele>242.87</ele>
        <time>2021-08-19T14:04:28Z</time>
      </trkpt>
      <trkpt lat="43.36337" lon="0.03409">
        <ele>242.87</ele>
        <time>2021-08-19T14:04:29Z</time>
      </trkpt>
      <trkpt lat="43.36332" lon="0.03413">
        <ele>242.87</ele>
        <time>2021-08-19T14:04:30Z</time>
      </trkpt>
      <trkpt lat="43.36327" lon="0.03416">
        <ele>242.87</ele>
        <time>2021-08-19T14:04:31Z</time>
      </trkpt>
      <trkpt lat="43.36321" lon="0.03419">
        <ele>242.87</ele>
        <time>2021-08-19T14:04:32Z</time>
      </trkpt>
      <trkpt lat="43.36277" lon="0.03439">
        <ele>242.87</ele>
        <time>2021-08-19T14:04:40Z</time>
      </trkpt>
      <trkpt lat="43.3625" lon="0.03452">
        <ele>242.87</ele>
        <time>2021-08-19T14:04:45Z</time>
      </trkpt>
      <trkpt lat="43.3624" lon="0.03457">
        <ele>242.87</ele>
        <time>2021-08-19T14:04:47Z</time>
      </trkpt>
      <trkpt lat="43.36228" lon="0.03463">
        <ele>242.87</ele>
        <time>2021-08-19T14:04:49Z</time>
      </trkpt>
      <trkpt lat="43.36184" lon="0.03486">
        <ele>242.87</ele>
        <time>2021-08-19T14:04:57Z</time>
      </trkpt>
      <trkpt lat="43.36179" lon="0.03488">
        <ele>242.87</ele>
        <time>2021-08-19T14:04:58Z</time>
      </trkpt>
      <trkpt lat="43.36174" lon="0.0349">
        <ele>242.87</ele>
        <time>2021-08-19T14:04:59Z</time>
      </trkpt>
      <trkpt lat="43.36131" lon="0.03495">
        <ele>243.83</ele>
        <time>2021-08-19T14:05:08Z</time>
      </trkpt>
      <trkpt lat="43.36092" lon="0.03498">
        <ele>244.79</ele>
        <time>2021-08-19T14:05:17Z</time>
      </trkpt>
      <trkpt lat="43.36066" lon="0.03499">
        <ele>245.27</ele>
        <time>2021-08-19T14:05:24Z</time>
      </trkpt>
      <trkpt lat="43.36041" lon="0.03499">
        <ele>245.75</ele>
        <time>2021-08-19T14:05:32Z</time>
      </trkpt>
      <trkpt lat="43.36034" lon="0.03497">
        <ele>245.75</ele>
        <time>2021-08-19T14:05:37Z</time>
      </trkpt>
      <trkpt lat="43.36035" lon="0.03497">
        <ele>245.75</ele>
        <time>2021-08-19T14:05:50Z</time>
      </trkpt>
      <trkpt lat="43.36034" lon="0.03497">
        <ele>245.75</ele>
        <time>2021-08-19T14:05:57Z</time>
      </trkpt>
      <trkpt lat="43.36034" lon="0.03499">
        <ele>245.75</ele>
        <time>2021-08-19T14:06:02Z</time>
      </trkpt>
      <trkpt lat="43.36035" lon="0.03499">
        <ele>245.75</ele>
        <time>2021-08-19T14:06:18Z</time>
      </trkpt>
      <trkpt lat="43.36035" lon="0.03498">
        <ele>245.27</ele>
        <time>2021-08-19T14:06:33Z</time>
      </trkpt>
      <trkpt lat="43.36034" lon="0.03498">
        <ele>245.75</ele>
        <time>2021-08-19T14:06:47Z</time>
      </trkpt>
      <trkpt lat="43.36035" lon="0.03498">
        <ele>245.75</ele>
        <time>2021-08-19T14:06:59Z</time>
      </trkpt>
      <trkpt lat="43.36035" lon="0.03499">
        <ele>245.75</ele>
        <time>2021-08-19T14:07:12Z</time>
      </trkpt>
      <trkpt lat="43.36035" lon="0.03499">
        <ele>245.75</ele>
        <time>2021-08-19T14:07:22Z</time>
      </trkpt>
      <trkpt lat="43.36035" lon="0.03498">
        <ele>245.75</ele>
        <time>2021-08-19T14:07:38Z</time>
      </trkpt>
      <trkpt lat="43.36036" lon="0.03497">
        <ele>245.27</ele>
        <time>2021-08-19T14:07:57Z</time>
      </trkpt>
      <trkpt lat="43.36036" lon="0.03498">
        <ele>245.27</ele>
        <time>2021-08-19T14:08:14Z</time>
      </trkpt>
      <trkpt lat="43.36035" lon="0.03498">
        <ele>245.27</ele>
        <time>2021-08-19T14:08:32Z</time>
      </trkpt>
      <trkpt lat="43.36036" lon="0.03497">
        <ele>245.27</ele>
        <time>2021-08-19T14:08:49Z</time>
      </trkpt>
      <trkpt lat="43.36036" lon="0.03497">
        <ele>244.79</ele>
        <time>2021-08-19T14:09:09Z</time>
      </trkpt>
      <trkpt lat="43.36035" lon="0.03496">
        <ele>244.79</ele>
        <time>2021-08-19T14:09:24Z</time>
      </trkpt>
      <trkpt lat="43.36035" lon="0.03495">
        <ele>244.79</ele>
        <time>2021-08-19T14:09:44Z</time>
      </trkpt>
      <trkpt lat="43.36035" lon="0.03496">
        <ele>245.27</ele>
        <time>2021-08-19T14:10:03Z</time>
      </trkpt>
      <trkpt lat="43.36035" lon="0.03496">
        <ele>244.79</ele>
        <time>2021-08-19T14:10:26Z</time>
      </trkpt>
      <trkpt lat="43.36035" lon="0.03496">
        <ele>244.79</ele>
        <time>2021-08-19T14:10:49Z</time>
      </trkpt>
      <trkpt lat="43.36035" lon="0.03495">
        <ele>244.79</ele>
        <time>2021-08-19T14:10:58Z</time>
      </trkpt>
      <trkpt lat="43.36033" lon="0.03496">
        <ele>244.79</ele>
        <time>2021-08-19T14:11:13Z</time>
      </trkpt>
      <trkpt lat="43.36034" lon="0.03498">
        <ele>244.79</ele>
        <time>2021-08-19T14:11:27Z</time>
      </trkpt>
      <trkpt lat="43.36033" lon="0.03498">
        <ele>244.79</ele>
        <time>2021-08-19T14:11:48Z</time>
      </trkpt>
      <trkpt lat="43.36034" lon="0.03498">
        <ele>244.79</ele>
        <time>2021-08-19T14:12:00Z</time>
      </trkpt>
      <trkpt lat="43.3603" lon="0.03498">
        <ele>244.31</ele>
        <time>2021-08-19T14:12:07Z</time>
      </trkpt>
      <trkpt lat="43.36014" lon="0.03499">
        <ele>244.31</ele>
        <time>2021-08-19T14:12:13Z</time>
      </trkpt>
      <trkpt lat="43.35992" lon="0.03502">
        <ele>244.31</ele>
        <time>2021-08-19T14:12:19Z</time>
      </trkpt>
      <trkpt lat="43.35975" lon="0.03506">
        <ele>244.31</ele>
        <time>2021-08-19T14:12:23Z</time>
      </trkpt>
      <trkpt lat="43.35971" lon="0.03507">
        <ele>244.31</ele>
        <time>2021-08-19T14:12:24Z</time>
      </trkpt>
      <trkpt lat="43.35953" lon="0.03511">
        <ele>242.87</ele>
        <time>2021-08-19T14:12:28Z</time>
      </trkpt>
      <trkpt lat="43.35907" lon="0.03521">
        <ele>241.91</ele>
        <time>2021-08-19T14:12:37Z</time>
      </trkpt>
      <trkpt lat="43.35887" lon="0.03526">
        <ele>241.43</ele>
        <time>2021-08-19T14:12:41Z</time>
      </trkpt>
      <trkpt lat="43.35852" lon="0.03534">
        <ele>241.43</ele>
        <time>2021-08-19T14:12:49Z</time>
      </trkpt>
      <trkpt lat="43.35834" lon="0.03532">
        <ele>241.43</ele>
        <time>2021-08-19T14:12:54Z</time>
      </trkpt>
      <trkpt lat="43.35814" lon="0.03525">
        <ele>242.87</ele>
        <time>2021-08-19T14:13:00Z</time>
      </trkpt>
      <trkpt lat="43.35797" lon="0.03523">
        <ele>243.83</ele>
        <time>2021-08-19T14:13:06Z</time>
      </trkpt>
      <trkpt lat="43.35779" lon="0.03517">
        <ele>245.27</ele>
        <time>2021-08-19T14:13:14Z</time>
      </trkpt>
      <trkpt lat="43.35766" lon="0.03517">
        <ele>246.23</ele>
        <time>2021-08-19T14:13:21Z</time>
      </trkpt>
      <trkpt lat="43.35755" lon="0.03519">
        <ele>247.68</ele>
        <time>2021-08-19T14:13:28Z</time>
      </trkpt>
      <trkpt lat="43.35751" lon="0.0352">
        <ele>248.16</ele>
        <time>2021-08-19T14:13:30Z</time>
      </trkpt>
      <trkpt lat="43.35749" lon="0.0352">
        <ele>248.16</ele>
        <time>2021-08-19T14:13:31Z</time>
      </trkpt>
      <trkpt lat="43.35748" lon="0.0352">
        <ele>248.16</ele>
        <time>2021-08-19T14:13:32Z</time>
      </trkpt>
      <trkpt lat="43.35746" lon="0.03521">
        <ele>248.64</ele>
        <time>2021-08-19T14:13:33Z</time>
      </trkpt>
      <trkpt lat="43.35737" lon="0.03524">
        <ele>249.6</ele>
        <time>2021-08-19T14:13:40Z</time>
      </trkpt>
      <trkpt lat="43.35728" lon="0.03529">
        <ele>250.56</ele>
        <time>2021-08-19T14:13:47Z</time>
      </trkpt>
      <trkpt lat="43.35717" lon="0.03533">
        <ele>251.52</ele>
        <time>2021-08-19T14:13:55Z</time>
      </trkpt>
      <trkpt lat="43.35712" lon="0.03538">
        <ele>252.48</ele>
        <time>2021-08-19T14:13:59Z</time>
      </trkpt>
      <trkpt lat="43.35702" lon="0.03545">
        <ele>253.93</ele>
        <time>2021-08-19T14:14:08Z</time>
      </trkpt>
      <trkpt lat="43.35693" lon="0.03552">
        <ele>255.37</ele>
        <time>2021-08-19T14:14:17Z</time>
      </trkpt>
      <trkpt lat="43.35687" lon="0.03556">
        <ele>256.33</ele>
        <time>2021-08-19T14:14:23Z</time>
      </trkpt>
      <trkpt lat="43.3568" lon="0.03558">
        <ele>257.77</ele>
        <time>2021-08-19T14:14:28Z</time>
      </trkpt>
      <trkpt lat="43.35671" lon="0.03559">
        <ele>258.73</ele>
        <time>2021-08-19T14:14:36Z</time>
      </trkpt>
      <trkpt lat="43.35661" lon="0.03561">
        <ele>260.17</ele>
        <time>2021-08-19T14:14:44Z</time>
      </trkpt>
      <trkpt lat="43.35652" lon="0.03562">
        <ele>261.14</ele>
        <time>2021-08-19T14:14:51Z</time>
      </trkpt>
      <trkpt lat="43.35641" lon="0.03565">
        <ele>263.06</ele>
        <time>2021-08-19T14:15:01Z</time>
      </trkpt>
      <trkpt lat="43.35634" lon="0.03566">
        <ele>264.5</ele>
        <time>2021-08-19T14:15:07Z</time>
      </trkpt>
      <trkpt lat="43.35622" lon="0.03567">
        <ele>266.42</ele>
        <time>2021-08-19T14:15:17Z</time>
      </trkpt>
      <trkpt lat="43.35612" lon="0.03567">
        <ele>267.38</ele>
        <time>2021-08-19T14:15:25Z</time>
      </trkpt>
      <trkpt lat="43.35611" lon="0.03567">
        <ele>267.38</ele>
        <time>2021-08-19T14:15:26Z</time>
      </trkpt>
      <trkpt lat="43.35601" lon="0.03565">
        <ele>268.83</ele>
        <time>2021-08-19T14:15:35Z</time>
      </trkpt>
      <trkpt lat="43.35595" lon="0.03563">
        <ele>269.79</ele>
        <time>2021-08-19T14:15:43Z</time>
      </trkpt>
      <trkpt lat="43.3559" lon="0.03562">
        <ele>270.75</ele>
        <time>2021-08-19T14:15:51Z</time>
      </trkpt>
      <trkpt lat="43.35581" lon="0.03561">
        <ele>271.71</ele>
        <time>2021-08-19T14:15:58Z</time>
      </trkpt>
      <trkpt lat="43.35572" lon="0.03559">
        <ele>272.67</ele>
        <time>2021-08-19T14:16:07Z</time>
      </trkpt>
      <trkpt lat="43.35564" lon="0.03556">
        <ele>275.07</ele>
        <time>2021-08-19T14:16:17Z</time>
      </trkpt>
      <trkpt lat="43.35557" lon="0.03555">
        <ele>276.04</ele>
        <time>2021-08-19T14:16:25Z</time>
      </trkpt>
      <trkpt lat="43.35551" lon="0.03553">
        <ele>277</ele>
        <time>2021-08-19T14:16:32Z</time>
      </trkpt>
      <trkpt lat="43.35545" lon="0.03552">
        <ele>277.48</ele>
        <time>2021-08-19T14:16:39Z</time>
      </trkpt>
      <trkpt lat="43.35537" lon="0.03549">
        <ele>278.92</ele>
        <time>2021-08-19T14:16:47Z</time>
      </trkpt>
      <trkpt lat="43.35535" lon="0.03548">
        <ele>278.92</ele>
        <time>2021-08-19T14:16:49Z</time>
      </trkpt>
      <trkpt lat="43.35533" lon="0.03548">
        <ele>278.92</ele>
        <time>2021-08-19T14:16:50Z</time>
      </trkpt>
      <trkpt lat="43.35523" lon="0.03544">
        <ele>280.84</ele>
        <time>2021-08-19T14:16:59Z</time>
      </trkpt>
      <trkpt lat="43.35515" lon="0.03542">
        <ele>281.8</ele>
        <time>2021-08-19T14:17:05Z</time>
      </trkpt>
      <trkpt lat="43.35499" lon="0.0354">
        <ele>283.73</ele>
        <time>2021-08-19T14:17:15Z</time>
      </trkpt>
      <trkpt lat="43.35487" lon="0.03538">
        <ele>283.73</ele>
        <time>2021-08-19T14:17:22Z</time>
      </trkpt>
      <trkpt lat="43.35469" lon="0.03537">
        <ele>284.21</ele>
        <time>2021-08-19T14:17:30Z</time>
      </trkpt>
      <trkpt lat="43.35456" lon="0.03535">
        <ele>285.17</ele>
        <time>2021-08-19T14:17:36Z</time>
      </trkpt>
      <trkpt lat="43.3544" lon="0.03536">
        <ele>286.13</ele>
        <time>2021-08-19T14:17:43Z</time>
      </trkpt>
      <trkpt lat="43.3542" lon="0.03536">
        <ele>287.09</ele>
        <time>2021-08-19T14:17:50Z</time>
      </trkpt>
      <trkpt lat="43.35402" lon="0.03534">
        <ele>287.09</ele>
        <time>2021-08-19T14:17:57Z</time>
      </trkpt>
      <trkpt lat="43.3538" lon="0.03533">
        <ele>288.53</ele>
        <time>2021-08-19T14:18:04Z</time>
      </trkpt>
      <trkpt lat="43.35358" lon="0.03531">
        <ele>289.97</ele>
        <time>2021-08-19T14:18:11Z</time>
      </trkpt>
      <trkpt lat="43.35337" lon="0.03526">
        <ele>290.94</ele>
        <time>2021-08-19T14:18:19Z</time>
      </trkpt>
      <trkpt lat="43.35319" lon="0.0352">
        <ele>292.38</ele>
        <time>2021-08-19T14:18:27Z</time>
      </trkpt>
      <trkpt lat="43.35305" lon="0.0351">
        <ele>293.82</ele>
        <time>2021-08-19T14:18:34Z</time>
      </trkpt>
      <trkpt lat="43.35285" lon="0.03496">
        <ele>295.26</ele>
        <time>2021-08-19T14:18:44Z</time>
      </trkpt>
      <trkpt lat="43.35273" lon="0.03491">
        <ele>296.22</ele>
        <time>2021-08-19T14:18:52Z</time>
      </trkpt>
      <trkpt lat="43.35262" lon="0.03486">
        <ele>298.15</ele>
        <time>2021-08-19T14:19:00Z</time>
      </trkpt>
      <trkpt lat="43.35251" lon="0.03479">
        <ele>300.55</ele>
        <time>2021-08-19T14:19:08Z</time>
      </trkpt>
      <trkpt lat="43.3524" lon="0.03473">
        <ele>301.03</ele>
        <time>2021-08-19T14:19:15Z</time>
      </trkpt>
      <trkpt lat="43.35222" lon="0.03464">
        <ele>301.51</ele>
        <time>2021-08-19T14:19:23Z</time>
      </trkpt>
      <trkpt lat="43.35204" lon="0.03454">
        <ele>302.47</ele>
        <time>2021-08-19T14:19:30Z</time>
      </trkpt>
      <trkpt lat="43.3518" lon="0.03443">
        <ele>302.95</ele>
        <time>2021-08-19T14:19:38Z</time>
      </trkpt>
      <trkpt lat="43.35162" lon="0.03441">
        <ele>302.95</ele>
        <time>2021-08-19T14:19:42Z</time>
      </trkpt>
      <trkpt lat="43.35132" lon="0.03441">
        <ele>302.95</ele>
        <time>2021-08-19T14:19:49Z</time>
      </trkpt>
      <trkpt lat="43.35105" lon="0.03435">
        <ele>302.95</ele>
        <time>2021-08-19T14:19:56Z</time>
      </trkpt>
      <trkpt lat="43.35073" lon="0.03418">
        <ele>302.95</ele>
        <time>2021-08-19T14:20:04Z</time>
      </trkpt>
      <trkpt lat="43.35042" lon="0.03398">
        <ele>304.39</ele>
        <time>2021-08-19T14:20:12Z</time>
      </trkpt>
      <trkpt lat="43.35015" lon="0.03378">
        <ele>304.88</ele>
        <time>2021-08-19T14:20:19Z</time>
      </trkpt>
      <trkpt lat="43.3499" lon="0.03353">
        <ele>305.84</ele>
        <time>2021-08-19T14:20:26Z</time>
      </trkpt>
      <trkpt lat="43.3497" lon="0.03327">
        <ele>307.28</ele>
        <time>2021-08-19T14:20:34Z</time>
      </trkpt>
      <trkpt lat="43.34955" lon="0.03307">
        <ele>309.2</ele>
        <time>2021-08-19T14:20:41Z</time>
      </trkpt>
      <trkpt lat="43.34938" lon="0.03282">
        <ele>309.68</ele>
        <time>2021-08-19T14:20:48Z</time>
      </trkpt>
      <trkpt lat="43.34917" lon="0.0325">
        <ele>310.16</ele>
        <time>2021-08-19T14:20:56Z</time>
      </trkpt>
      <trkpt lat="43.34894" lon="0.03218">
        <ele>311.6</ele>
        <time>2021-08-19T14:21:03Z</time>
      </trkpt>
      <trkpt lat="43.34875" lon="0.03196">
        <ele>313.05</ele>
        <time>2021-08-19T14:21:10Z</time>
      </trkpt>
      <trkpt lat="43.34855" lon="0.03177">
        <ele>314.01</ele>
        <time>2021-08-19T14:21:18Z</time>
      </trkpt>
      <trkpt lat="43.3483" lon="0.03162">
        <ele>314.49</ele>
        <time>2021-08-19T14:21:25Z</time>
      </trkpt>
      <trkpt lat="43.34826" lon="0.0316">
        <ele>314.49</ele>
        <time>2021-08-19T14:21:26Z</time>
      </trkpt>
      <trkpt lat="43.34796" lon="0.03144">
        <ele>314.49</ele>
        <time>2021-08-19T14:21:33Z</time>
      </trkpt>
      <trkpt lat="43.3478" lon="0.03137">
        <ele>314.49</ele>
        <time>2021-08-19T14:21:38Z</time>
      </trkpt>
      <trkpt lat="43.34753" lon="0.03125">
        <ele>314.97</ele>
        <time>2021-08-19T14:21:45Z</time>
      </trkpt>
      <trkpt lat="43.34718" lon="0.03109">
        <ele>316.41</ele>
        <time>2021-08-19T14:21:54Z</time>
      </trkpt>
      <trkpt lat="43.34702" lon="0.031">
        <ele>317.37</ele>
        <time>2021-08-19T14:22:01Z</time>
      </trkpt>
      <trkpt lat="43.34695" lon="0.03092">
        <ele>318.81</ele>
        <time>2021-08-19T14:22:07Z</time>
      </trkpt>
      <trkpt lat="43.34687" lon="0.0308">
        <ele>320.26</ele>
        <time>2021-08-19T14:22:14Z</time>
      </trkpt>
      <trkpt lat="43.34676" lon="0.03067">
        <ele>322.18</ele>
        <time>2021-08-19T14:22:23Z</time>
      </trkpt>
      <trkpt lat="43.34675" lon="0.03065">
        <ele>322.18</ele>
        <time>2021-08-19T14:22:24Z</time>
      </trkpt>
      <trkpt lat="43.34674" lon="0.03064">
        <ele>322.18</ele>
        <time>2021-08-19T14:22:25Z</time>
      </trkpt>
      <trkpt lat="43.34672" lon="0.03062">
        <ele>323.14</ele>
        <time>2021-08-19T14:22:26Z</time>
      </trkpt>
      <trkpt lat="43.34671" lon="0.03061">
        <ele>323.14</ele>
        <time>2021-08-19T14:22:27Z</time>
      </trkpt>
      <trkpt lat="43.3467" lon="0.03059">
        <ele>323.14</ele>
        <time>2021-08-19T14:22:28Z</time>
      </trkpt>
      <trkpt lat="43.34668" lon="0.03058">
        <ele>323.14</ele>
        <time>2021-08-19T14:22:29Z</time>
      </trkpt>
      <trkpt lat="43.34661" lon="0.03046">
        <ele>324.58</ele>
        <time>2021-08-19T14:22:37Z</time>
      </trkpt>
      <trkpt lat="43.34651" lon="0.03031">
        <ele>326.02</ele>
        <time>2021-08-19T14:22:46Z</time>
      </trkpt>
      <trkpt lat="43.34644" lon="0.0302">
        <ele>326.99</ele>
        <time>2021-08-19T14:22:53Z</time>
      </trkpt>
      <trkpt lat="43.34633" lon="0.03007">
        <ele>328.43</ele>
        <time>2021-08-19T14:23:02Z</time>
      </trkpt>
      <trkpt lat="43.34617" lon="0.02994">
        <ele>328.91</ele>
        <time>2021-08-19T14:23:10Z</time>
      </trkpt>
      <trkpt lat="43.34602" lon="0.0299">
        <ele>329.39</ele>
        <time>2021-08-19T14:23:16Z</time>
      </trkpt>
      <trkpt lat="43.34578" lon="0.02981">
        <ele>329.39</ele>
        <time>2021-08-19T14:23:23Z</time>
      </trkpt>
      <trkpt lat="43.3457" lon="0.02975">
        <ele>328.43</ele>
        <time>2021-08-19T14:23:25Z</time>
      </trkpt>
      <trkpt lat="43.34566" lon="0.02971">
        <ele>328.43</ele>
        <time>2021-08-19T14:23:26Z</time>
      </trkpt>
      <trkpt lat="43.34561" lon="0.02968">
        <ele>327.95</ele>
        <time>2021-08-19T14:23:27Z</time>
      </trkpt>
      <trkpt lat="43.34557" lon="0.02965">
        <ele>327.95</ele>
        <time>2021-08-19T14:23:28Z</time>
      </trkpt>
      <trkpt lat="43.34553" lon="0.02963">
        <ele>327.95</ele>
        <time>2021-08-19T14:23:29Z</time>
      </trkpt>
      <trkpt lat="43.3455" lon="0.02963">
        <ele>327.95</ele>
        <time>2021-08-19T14:23:30Z</time>
      </trkpt>
      <trkpt lat="43.34547" lon="0.02962">
        <ele>327.95</ele>
        <time>2021-08-19T14:23:31Z</time>
      </trkpt>
      <trkpt lat="43.3453" lon="0.02951">
        <ele>327.95</ele>
        <time>2021-08-19T14:23:37Z</time>
      </trkpt>
      <trkpt lat="43.34519" lon="0.02941">
        <ele>329.39</ele>
        <time>2021-08-19T14:23:41Z</time>
      </trkpt>
      <trkpt lat="43.34505" lon="0.02931">
        <ele>330.35</ele>
        <time>2021-08-19T14:23:47Z</time>
      </trkpt>
      <trkpt lat="43.34495" lon="0.02922">
        <ele>331.31</ele>
        <time>2021-08-19T14:23:53Z</time>
      </trkpt>
      <trkpt lat="43.34482" lon="0.0291">
        <ele>332.27</ele>
        <time>2021-08-19T14:24:00Z</time>
      </trkpt>
      <trkpt lat="43.34468" lon="0.02901">
        <ele>332.75</ele>
        <time>2021-08-19T14:24:07Z</time>
      </trkpt>
      <trkpt lat="43.34455" lon="0.02904">
        <ele>333.71</ele>
        <time>2021-08-19T14:24:13Z</time>
      </trkpt>
      <trkpt lat="43.34447" lon="0.02909">
        <ele>333.71</ele>
        <time>2021-08-19T14:24:16Z</time>
      </trkpt>
      <trkpt lat="43.34428" lon="0.02905">
        <ele>334.2</ele>
        <time>2021-08-19T14:24:22Z</time>
      </trkpt>
      <trkpt lat="43.3442" lon="0.02901">
        <ele>335.16</ele>
        <time>2021-08-19T14:24:26Z</time>
      </trkpt>
      <trkpt lat="43.34418" lon="0.02899">
        <ele>335.16</ele>
        <time>2021-08-19T14:24:27Z</time>
      </trkpt>
      <trkpt lat="43.34416" lon="0.02898">
        <ele>335.16</ele>
        <time>2021-08-19T14:24:28Z</time>
      </trkpt>
      <trkpt lat="43.34414" lon="0.02897">
        <ele>335.64</ele>
        <time>2021-08-19T14:24:29Z</time>
      </trkpt>
      <trkpt lat="43.34413" lon="0.02896">
        <ele>335.64</ele>
        <time>2021-08-19T14:24:30Z</time>
      </trkpt>
      <trkpt lat="43.34394" lon="0.02886">
        <ele>336.6</ele>
        <time>2021-08-19T14:24:38Z</time>
      </trkpt>
      <trkpt lat="43.34382" lon="0.02879">
        <ele>337.56</ele>
        <time>2021-08-19T14:24:44Z</time>
      </trkpt>
      <trkpt lat="43.34367" lon="0.02872">
        <ele>338.52</ele>
        <time>2021-08-19T14:24:50Z</time>
      </trkpt>
      <trkpt lat="43.34349" lon="0.02858">
        <ele>339</ele>
        <time>2021-08-19T14:24:57Z</time>
      </trkpt>
      <trkpt lat="43.34327" lon="0.02843">
        <ele>339.96</ele>
        <time>2021-08-19T14:25:05Z</time>
      </trkpt>
      <trkpt lat="43.34303" lon="0.02828">
        <ele>341.41</ele>
        <time>2021-08-19T14:25:13Z</time>
      </trkpt>
      <trkpt lat="43.34284" lon="0.02812">
        <ele>342.37</ele>
        <time>2021-08-19T14:25:20Z</time>
      </trkpt>
      <trkpt lat="43.3426" lon="0.0279">
        <ele>342.85</ele>
        <time>2021-08-19T14:25:28Z</time>
      </trkpt>
      <trkpt lat="43.34234" lon="0.02761">
        <ele>342.85</ele>
        <time>2021-08-19T14:25:37Z</time>
      </trkpt>
      <trkpt lat="43.34219" lon="0.02742">
        <ele>343.33</ele>
        <time>2021-08-19T14:25:42Z</time>
      </trkpt>
      <trkpt lat="43.34212" lon="0.02735">
        <ele>343.81</ele>
        <time>2021-08-19T14:25:44Z</time>
      </trkpt>
      <trkpt lat="43.34204" lon="0.02728">
        <ele>343.81</ele>
        <time>2021-08-19T14:25:46Z</time>
      </trkpt>
      <trkpt lat="43.34201" lon="0.02726">
        <ele>343.81</ele>
        <time>2021-08-19T14:25:47Z</time>
      </trkpt>
      <trkpt lat="43.34197" lon="0.02723">
        <ele>343.81</ele>
        <time>2021-08-19T14:25:48Z</time>
      </trkpt>
      <trkpt lat="43.34194" lon="0.0272">
        <ele>343.81</ele>
        <time>2021-08-19T14:25:49Z</time>
      </trkpt>
      <trkpt lat="43.3419" lon="0.02718">
        <ele>343.81</ele>
        <time>2021-08-19T14:25:50Z</time>
      </trkpt>
      <trkpt lat="43.34158" lon="0.02695">
        <ele>344.29</ele>
        <time>2021-08-19T14:25:58Z</time>
      </trkpt>
      <trkpt lat="43.34135" lon="0.02677">
        <ele>344.77</ele>
        <time>2021-08-19T14:26:05Z</time>
      </trkpt>
      <trkpt lat="43.34124" lon="0.02659">
        <ele>344.77</ele>
        <time>2021-08-19T14:26:09Z</time>
      </trkpt>
      <trkpt lat="43.34121" lon="0.02655">
        <ele>344.77</ele>
        <time>2021-08-19T14:26:10Z</time>
      </trkpt>
      <trkpt lat="43.34118" lon="0.02651">
        <ele>344.77</ele>
        <time>2021-08-19T14:26:11Z</time>
      </trkpt>
      <trkpt lat="43.34113" lon="0.02647">
        <ele>344.77</ele>
        <time>2021-08-19T14:26:12Z</time>
      </trkpt>
      <trkpt lat="43.34109" lon="0.02643">
        <ele>344.77</ele>
        <time>2021-08-19T14:26:13Z</time>
      </trkpt>
      <trkpt lat="43.34105" lon="0.0264">
        <ele>344.77</ele>
        <time>2021-08-19T14:26:14Z</time>
      </trkpt>
      <trkpt lat="43.34083" lon="0.02624">
        <ele>345.25</ele>
        <time>2021-08-19T14:26:19Z</time>
      </trkpt>
      <trkpt lat="43.34079" lon="0.0262">
        <ele>345.25</ele>
        <time>2021-08-19T14:26:20Z</time>
      </trkpt>
      <trkpt lat="43.34071" lon="0.02613">
        <ele>345.25</ele>
        <time>2021-08-19T14:26:22Z</time>
      </trkpt>
      <trkpt lat="43.34067" lon="0.02609">
        <ele>345.25</ele>
        <time>2021-08-19T14:26:23Z</time>
      </trkpt>
      <trkpt lat="43.34056" lon="0.02596">
        <ele>345.25</ele>
        <time>2021-08-19T14:26:26Z</time>
      </trkpt>
      <trkpt lat="43.34041" lon="0.0257">
        <ele>345.25</ele>
        <time>2021-08-19T14:26:31Z</time>
      </trkpt>
      <trkpt lat="43.34035" lon="0.02559">
        <ele>345.25</ele>
        <time>2021-08-19T14:26:33Z</time>
      </trkpt>
      <trkpt lat="43.34028" lon="0.02549">
        <ele>345.73</ele>
        <time>2021-08-19T14:26:35Z</time>
      </trkpt>
      <trkpt lat="43.34021" lon="0.02538">
        <ele>345.73</ele>
        <time>2021-08-19T14:26:37Z</time>
      </trkpt>
      <trkpt lat="43.34017" lon="0.02534">
        <ele>345.73</ele>
        <time>2021-08-19T14:26:38Z</time>
      </trkpt>
      <trkpt lat="43.34009" lon="0.02527">
        <ele>346.21</ele>
        <time>2021-08-19T14:26:40Z</time>
      </trkpt>
      <trkpt lat="43.33982" lon="0.02507">
        <ele>346.69</ele>
        <time>2021-08-19T14:26:47Z</time>
      </trkpt>
      <trkpt lat="43.33951" lon="0.0248">
        <ele>347.65</ele>
        <time>2021-08-19T14:26:55Z</time>
      </trkpt>
      <trkpt lat="43.33926" lon="0.0246">
        <ele>347.65</ele>
        <time>2021-08-19T14:27:01Z</time>
      </trkpt>
      <trkpt lat="43.33896" lon="0.02436">
        <ele>348.13</ele>
        <time>2021-08-19T14:27:08Z</time>
      </trkpt>
      <trkpt lat="43.3387" lon="0.02413">
        <ele>348.62</ele>
        <time>2021-08-19T14:27:14Z</time>
      </trkpt>
      <trkpt lat="43.33866" lon="0.02409">
        <ele>349.1</ele>
        <time>2021-08-19T14:27:15Z</time>
      </trkpt>
      <trkpt lat="43.33858" lon="0.02399">
        <ele>349.1</ele>
        <time>2021-08-19T14:27:17Z</time>
      </trkpt>
      <trkpt lat="43.33855" lon="0.02394">
        <ele>349.1</ele>
        <time>2021-08-19T14:27:18Z</time>
      </trkpt>
      <trkpt lat="43.33827" lon="0.02349">
        <ele>349.1</ele>
        <time>2021-08-19T14:27:26Z</time>
      </trkpt>
      <trkpt lat="43.33821" lon="0.02338">
        <ele>349.1</ele>
        <time>2021-08-19T14:27:28Z</time>
      </trkpt>
      <trkpt lat="43.33798" lon="0.02301">
        <ele>348.62</ele>
        <time>2021-08-19T14:27:34Z</time>
      </trkpt>
      <trkpt lat="43.33786" lon="0.02279">
        <ele>347.65</ele>
        <time>2021-08-19T14:27:37Z</time>
      </trkpt>
      <trkpt lat="43.33762" lon="0.02233">
        <ele>347.17</ele>
        <time>2021-08-19T14:27:43Z</time>
      </trkpt>
      <trkpt lat="43.33738" lon="0.02191">
        <ele>347.65</ele>
        <time>2021-08-19T14:27:50Z</time>
      </trkpt>
      <trkpt lat="43.33731" lon="0.02179">
        <ele>347.65</ele>
        <time>2021-08-19T14:27:52Z</time>
      </trkpt>
      <trkpt lat="43.33727" lon="0.02173">
        <ele>347.65</ele>
        <time>2021-08-19T14:27:53Z</time>
      </trkpt>
      <trkpt lat="43.33723" lon="0.02168">
        <ele>347.17</ele>
        <time>2021-08-19T14:27:54Z</time>
      </trkpt>
      <trkpt lat="43.33719" lon="0.02162">
        <ele>347.17</ele>
        <time>2021-08-19T14:27:55Z</time>
      </trkpt>
      <trkpt lat="43.33715" lon="0.02158">
        <ele>347.17</ele>
        <time>2021-08-19T14:27:56Z</time>
      </trkpt>
      <trkpt lat="43.33698" lon="0.02139">
        <ele>348.62</ele>
        <time>2021-08-19T14:28:00Z</time>
      </trkpt>
      <trkpt lat="43.3368" lon="0.02118">
        <ele>349.58</ele>
        <time>2021-08-19T14:28:05Z</time>
      </trkpt>
      <trkpt lat="43.33676" lon="0.02114">
        <ele>349.58</ele>
        <time>2021-08-19T14:28:06Z</time>
      </trkpt>
      <trkpt lat="43.33673" lon="0.0211">
        <ele>350.06</ele>
        <time>2021-08-19T14:28:07Z</time>
      </trkpt>
      <trkpt lat="43.33656" lon="0.02092">
        <ele>351.02</ele>
        <time>2021-08-19T14:28:13Z</time>
      </trkpt>
      <trkpt lat="43.33628" lon="0.02062">
        <ele>351.5</ele>
        <time>2021-08-19T14:28:21Z</time>
      </trkpt>
      <trkpt lat="43.33603" lon="0.02037">
        <ele>351.5</ele>
        <time>2021-08-19T14:28:27Z</time>
      </trkpt>
      <trkpt lat="43.33568" lon="0.01999">
        <ele>351.02</ele>
        <time>2021-08-19T14:28:35Z</time>
      </trkpt>
      <trkpt lat="43.33524" lon="0.01951">
        <ele>349.1</ele>
        <time>2021-08-19T14:28:44Z</time>
      </trkpt>
      <trkpt lat="43.33482" lon="0.01905">
        <ele>349.1</ele>
        <time>2021-08-19T14:28:53Z</time>
      </trkpt>
      <trkpt lat="43.33453" lon="0.01877">
        <ele>349.1</ele>
        <time>2021-08-19T14:29:00Z</time>
      </trkpt>
      <trkpt lat="43.33417" lon="0.01837">
        <ele>349.1</ele>
        <time>2021-08-19T14:29:08Z</time>
      </trkpt>
      <trkpt lat="43.33413" lon="0.01832">
        <ele>349.1</ele>
        <time>2021-08-19T14:29:09Z</time>
      </trkpt>
      <trkpt lat="43.33373" lon="0.01789">
        <ele>347.65</ele>
        <time>2021-08-19T14:29:17Z</time>
      </trkpt>
      <trkpt lat="43.33324" lon="0.01734">
        <ele>346.21</ele>
        <time>2021-08-19T14:29:26Z</time>
      </trkpt>
      <trkpt lat="43.33269" lon="0.01676">
        <ele>345.73</ele>
        <time>2021-08-19T14:29:36Z</time>
      </trkpt>
      <trkpt lat="43.33237" lon="0.01642">
        <ele>345.73</ele>
        <time>2021-08-19T14:29:43Z</time>
      </trkpt>
      <trkpt lat="43.33212" lon="0.01619">
        <ele>345.25</ele>
        <time>2021-08-19T14:29:50Z</time>
      </trkpt>
      <trkpt lat="43.3321" lon="0.01616">
        <ele>345.25</ele>
        <time>2021-08-19T14:29:52Z</time>
      </trkpt>
      <trkpt lat="43.33208" lon="0.01616">
        <ele>345.25</ele>
        <time>2021-08-19T14:29:53Z</time>
      </trkpt>
      <trkpt lat="43.33207" lon="0.01618">
        <ele>345.25</ele>
        <time>2021-08-19T14:29:55Z</time>
      </trkpt>
      <trkpt lat="43.33207" lon="0.0162">
        <ele>345.25</ele>
        <time>2021-08-19T14:29:56Z</time>
      </trkpt>
      <trkpt lat="43.33208" lon="0.01622">
        <ele>345.25</ele>
        <time>2021-08-19T14:29:57Z</time>
      </trkpt>
      <trkpt lat="43.33208" lon="0.01625">
        <ele>344.77</ele>
        <time>2021-08-19T14:29:58Z</time>
      </trkpt>
      <trkpt lat="43.33208" lon="0.01628">
        <ele>344.77</ele>
        <time>2021-08-19T14:29:59Z</time>
      </trkpt>
      <trkpt lat="43.33208" lon="0.01635">
        <ele>344.77</ele>
        <time>2021-08-19T14:30:01Z</time>
      </trkpt>
      <trkpt lat="43.33205" lon="0.01641">
        <ele>344.29</ele>
        <time>2021-08-19T14:30:03Z</time>
      </trkpt>
      <trkpt lat="43.33203" lon="0.01643">
        <ele>344.29</ele>
        <time>2021-08-19T14:30:04Z</time>
      </trkpt>
      <trkpt lat="43.332" lon="0.01642">
        <ele>343.81</ele>
        <time>2021-08-19T14:30:05Z</time>
      </trkpt>
      <trkpt lat="43.33198" lon="0.01641">
        <ele>343.81</ele>
        <time>2021-08-19T14:30:06Z</time>
      </trkpt>
      <trkpt lat="43.33197" lon="0.01639">
        <ele>343.81</ele>
        <time>2021-08-19T14:30:07Z</time>
      </trkpt>
      <trkpt lat="43.33196" lon="0.01637">
        <ele>343.81</ele>
        <time>2021-08-19T14:30:08Z</time>
      </trkpt>
      <trkpt lat="43.33195" lon="0.01633">
        <ele>345.25</ele>
        <time>2021-08-19T14:30:11Z</time>
      </trkpt>
      <trkpt lat="43.33194" lon="0.01631">
        <ele>345.25</ele>
        <time>2021-08-19T14:30:12Z</time>
      </trkpt>
      <trkpt lat="43.33194" lon="0.0163">
        <ele>345.25</ele>
        <time>2021-08-19T14:30:13Z</time>
      </trkpt>
      <trkpt lat="43.33193" lon="0.01627">
        <ele>345.25</ele>
        <time>2021-08-19T14:30:14Z</time>
      </trkpt>
      <trkpt lat="43.33192" lon="0.01625">
        <ele>345.73</ele>
        <time>2021-08-19T14:30:15Z</time>
      </trkpt>
      <trkpt lat="43.33191" lon="0.01623">
        <ele>345.73</ele>
        <time>2021-08-19T14:30:16Z</time>
      </trkpt>
      <trkpt lat="43.3319" lon="0.01621">
        <ele>345.73</ele>
        <time>2021-08-19T14:30:17Z</time>
      </trkpt>
      <trkpt lat="43.33189" lon="0.01619">
        <ele>346.21</ele>
        <time>2021-08-19T14:30:18Z</time>
      </trkpt>
      <trkpt lat="43.33187" lon="0.01617">
        <ele>346.21</ele>
        <time>2021-08-19T14:30:19Z</time>
      </trkpt>
      <trkpt lat="43.33185" lon="0.01615">
        <ele>346.21</ele>
        <time>2021-08-19T14:30:20Z</time>
      </trkpt>
      <trkpt lat="43.33183" lon="0.01612">
        <ele>346.21</ele>
        <time>2021-08-19T14:30:21Z</time>
      </trkpt>
      <trkpt lat="43.33181" lon="0.0161">
        <ele>346.21</ele>
        <time>2021-08-19T14:30:22Z</time>
      </trkpt>
      <trkpt lat="43.33166" lon="0.01597">
        <ele>347.17</ele>
        <time>2021-08-19T14:30:29Z</time>
      </trkpt>
      <trkpt lat="43.33148" lon="0.01581">
        <ele>347.65</ele>
        <time>2021-08-19T14:30:37Z</time>
      </trkpt>
      <trkpt lat="43.33141" lon="0.01577">
        <ele>348.13</ele>
        <time>2021-08-19T14:30:40Z</time>
      </trkpt>
      <trkpt lat="43.33134" lon="0.01573">
        <ele>348.13</ele>
        <time>2021-08-19T14:30:43Z</time>
      </trkpt>
      <trkpt lat="43.33131" lon="0.0157">
        <ele>348.62</ele>
        <time>2021-08-19T14:30:44Z</time>
      </trkpt>
      <trkpt lat="43.33128" lon="0.01567">
        <ele>348.62</ele>
        <time>2021-08-19T14:30:45Z</time>
      </trkpt>
      <trkpt lat="43.33124" lon="0.01563">
        <ele>348.62</ele>
        <time>2021-08-19T14:30:46Z</time>
      </trkpt>
      <trkpt lat="43.33122" lon="0.01561">
        <ele>348.62</ele>
        <time>2021-08-19T14:30:47Z</time>
      </trkpt>
      <trkpt lat="43.33102" lon="0.01537">
        <ele>349.58</ele>
        <time>2021-08-19T14:30:54Z</time>
      </trkpt>
      <trkpt lat="43.3308" lon="0.01506">
        <ele>349.58</ele>
        <time>2021-08-19T14:31:03Z</time>
      </trkpt>
      <trkpt lat="43.33054" lon="0.01486">
        <ele>350.06</ele>
        <time>2021-08-19T14:31:11Z</time>
      </trkpt>
      <trkpt lat="43.33035" lon="0.01463">
        <ele>350.54</ele>
        <time>2021-08-19T14:31:18Z</time>
      </trkpt>
      <trkpt lat="43.33012" lon="0.01449">
        <ele>351.02</ele>
        <time>2021-08-19T14:31:24Z</time>
      </trkpt>
      <trkpt lat="43.33009" lon="0.01446">
        <ele>351.02</ele>
        <time>2021-08-19T14:31:25Z</time>
      </trkpt>
      <trkpt lat="43.33006" lon="0.01443">
        <ele>351.02</ele>
        <time>2021-08-19T14:31:26Z</time>
      </trkpt>
      <trkpt lat="43.32975" lon="0.01424">
        <ele>351.02</ele>
        <time>2021-08-19T14:31:34Z</time>
      </trkpt>
      <trkpt lat="43.32954" lon="0.01408">
        <ele>351.02</ele>
        <time>2021-08-19T14:31:39Z</time>
      </trkpt>
      <trkpt lat="43.32938" lon="0.01399">
        <ele>351.02</ele>
        <time>2021-08-19T14:31:43Z</time>
      </trkpt>
      <trkpt lat="43.32907" lon="0.01375">
        <ele>349.58</ele>
        <time>2021-08-19T14:31:50Z</time>
      </trkpt>
      <trkpt lat="43.32885" lon="0.0136">
        <ele>347.17</ele>
        <time>2021-08-19T14:31:54Z</time>
      </trkpt>
      <trkpt lat="43.32878" lon="0.01357">
        <ele>347.17</ele>
        <time>2021-08-19T14:31:55Z</time>
      </trkpt>
      <trkpt lat="43.32836" lon="0.01324">
        <ele>347.17</ele>
        <time>2021-08-19T14:32:02Z</time>
      </trkpt>
      <trkpt lat="43.32797" lon="0.01297">
        <ele>347.17</ele>
        <time>2021-08-19T14:32:09Z</time>
      </trkpt>
      <trkpt lat="43.32759" lon="0.01264">
        <ele>349.1</ele>
        <time>2021-08-19T14:32:17Z</time>
      </trkpt>
      <trkpt lat="43.32731" lon="0.01232">
        <ele>350.54</ele>
        <time>2021-08-19T14:32:25Z</time>
      </trkpt>
      <trkpt lat="43.32693" lon="0.01187">
        <ele>350.54</ele>
        <time>2021-08-19T14:32:35Z</time>
      </trkpt>
      <trkpt lat="43.32672" lon="0.01163">
        <ele>349.1</ele>
        <time>2021-08-19T14:32:40Z</time>
      </trkpt>
      <trkpt lat="43.32632" lon="0.01119">
        <ele>348.62</ele>
        <time>2021-08-19T14:32:49Z</time>
      </trkpt>
      <trkpt lat="43.32582" lon="0.01067">
        <ele>346.21</ele>
        <time>2021-08-19T14:32:59Z</time>
      </trkpt>
      <trkpt lat="43.32542" lon="0.01023">
        <ele>342.85</ele>
        <time>2021-08-19T14:33:06Z</time>
      </trkpt>
      <trkpt lat="43.32517" lon="0.00994">
        <ele>342.37</ele>
        <time>2021-08-19T14:33:11Z</time>
      </trkpt>
      <trkpt lat="43.32514" lon="0.00988">
        <ele>342.37</ele>
        <time>2021-08-19T14:33:12Z</time>
      </trkpt>
      <trkpt lat="43.32512" lon="0.00982">
        <ele>342.85</ele>
        <time>2021-08-19T14:33:13Z</time>
      </trkpt>
      <trkpt lat="43.32511" lon="0.00975">
        <ele>342.37</ele>
        <time>2021-08-19T14:33:14Z</time>
      </trkpt>
      <trkpt lat="43.32512" lon="0.0097">
        <ele>342.85</ele>
        <time>2021-08-19T14:33:15Z</time>
      </trkpt>
      <trkpt lat="43.32516" lon="0.00928">
        <ele>342.85</ele>
        <time>2021-08-19T14:33:22Z</time>
      </trkpt>
      <trkpt lat="43.32516" lon="0.00922">
        <ele>342.85</ele>
        <time>2021-08-19T14:33:23Z</time>
      </trkpt>
      <trkpt lat="43.32515" lon="0.00916">
        <ele>342.85</ele>
        <time>2021-08-19T14:33:24Z</time>
      </trkpt>
      <trkpt lat="43.32514" lon="0.00909">
        <ele>344.29</ele>
        <time>2021-08-19T14:33:25Z</time>
      </trkpt>
      <trkpt lat="43.32512" lon="0.00903">
        <ele>344.29</ele>
        <time>2021-08-19T14:33:26Z</time>
      </trkpt>
      <trkpt lat="43.3251" lon="0.00897">
        <ele>343.81</ele>
        <time>2021-08-19T14:33:27Z</time>
      </trkpt>
      <trkpt lat="43.3249" lon="0.0086">
        <ele>345.73</ele>
        <time>2021-08-19T14:33:35Z</time>
      </trkpt>
      <trkpt lat="43.3248" lon="0.00843">
        <ele>345.73</ele>
        <time>2021-08-19T14:33:39Z</time>
      </trkpt>
      <trkpt lat="43.32477" lon="0.00838">
        <ele>345.73</ele>
        <time>2021-08-19T14:33:40Z</time>
      </trkpt>
      <trkpt lat="43.32454" lon="0.008">
        <ele>346.21</ele>
        <time>2021-08-19T14:33:48Z</time>
      </trkpt>
      <trkpt lat="43.32442" lon="0.00779">
        <ele>346.21</ele>
        <time>2021-08-19T14:33:52Z</time>
      </trkpt>
      <trkpt lat="43.32438" lon="0.00774">
        <ele>346.21</ele>
        <time>2021-08-19T14:33:53Z</time>
      </trkpt>
      <trkpt lat="43.32406" lon="0.00715">
        <ele>347.17</ele>
        <time>2021-08-19T14:34:04Z</time>
      </trkpt>
      <trkpt lat="43.32395" lon="0.00695">
        <ele>347.65</ele>
        <time>2021-08-19T14:34:08Z</time>
      </trkpt>
      <trkpt lat="43.32393" lon="0.0069">
        <ele>347.65</ele>
        <time>2021-08-19T14:34:09Z</time>
      </trkpt>
      <trkpt lat="43.32378" lon="0.00665">
        <ele>348.13</ele>
        <time>2021-08-19T14:34:14Z</time>
      </trkpt>
      <trkpt lat="43.32374" lon="0.00662">
        <ele>348.13</ele>
        <time>2021-08-19T14:34:15Z</time>
      </trkpt>
      <trkpt lat="43.32369" lon="0.0066">
        <ele>348.13</ele>
        <time>2021-08-19T14:34:16Z</time>
      </trkpt>
      <trkpt lat="43.32365" lon="0.0066">
        <ele>348.62</ele>
        <time>2021-08-19T14:34:17Z</time>
      </trkpt>
      <trkpt lat="43.32362" lon="0.0066">
        <ele>348.62</ele>
        <time>2021-08-19T14:34:18Z</time>
      </trkpt>
      <trkpt lat="43.32359" lon="0.0066">
        <ele>348.62</ele>
        <time>2021-08-19T14:34:19Z</time>
      </trkpt>
      <trkpt lat="43.32356" lon="0.0066">
        <ele>349.1</ele>
        <time>2021-08-19T14:34:20Z</time>
      </trkpt>
      <trkpt lat="43.32337" lon="0.00649">
        <ele>350.06</ele>
        <time>2021-08-19T14:34:28Z</time>
      </trkpt>
      <trkpt lat="43.32308" lon="0.0063">
        <ele>351.5</ele>
        <time>2021-08-19T14:34:39Z</time>
      </trkpt>
      <trkpt lat="43.32279" lon="0.00613">
        <ele>352.46</ele>
        <time>2021-08-19T14:34:49Z</time>
      </trkpt>
      <trkpt lat="43.3226" lon="0.00601">
        <ele>353.9</ele>
        <time>2021-08-19T14:34:56Z</time>
      </trkpt>
      <trkpt lat="43.32229" lon="0.00584">
        <ele>354.86</ele>
        <time>2021-08-19T14:35:06Z</time>
      </trkpt>
      <trkpt lat="43.32201" lon="0.00579">
        <ele>355.34</ele>
        <time>2021-08-19T14:35:14Z</time>
      </trkpt>
      <trkpt lat="43.32178" lon="0.00577">
        <ele>355.34</ele>
        <time>2021-08-19T14:35:20Z</time>
      </trkpt>
      <trkpt lat="43.3217" lon="0.00576">
        <ele>355.34</ele>
        <time>2021-08-19T14:35:22Z</time>
      </trkpt>
      <trkpt lat="43.32156" lon="0.00576">
        <ele>355.34</ele>
        <time>2021-08-19T14:35:25Z</time>
      </trkpt>
      <trkpt lat="43.3214" lon="0.00576">
        <ele>355.34</ele>
        <time>2021-08-19T14:35:29Z</time>
      </trkpt>
      <trkpt lat="43.32135" lon="0.00575">
        <ele>355.34</ele>
        <time>2021-08-19T14:35:30Z</time>
      </trkpt>
      <trkpt lat="43.32097" lon="0.00574">
        <ele>355.83</ele>
        <time>2021-08-19T14:35:38Z</time>
      </trkpt>
      <trkpt lat="43.32058" lon="0.00573">
        <ele>356.31</ele>
        <time>2021-08-19T14:35:46Z</time>
      </trkpt>
      <trkpt lat="43.32024" lon="0.00573">
        <ele>356.31</ele>
        <time>2021-08-19T14:35:52Z</time>
      </trkpt>
      <trkpt lat="43.31979" lon="0.0057">
        <ele>357.27</ele>
        <time>2021-08-19T14:36:00Z</time>
      </trkpt>
      <trkpt lat="43.31975" lon="0.00569">
        <ele>357.27</ele>
        <time>2021-08-19T14:36:01Z</time>
      </trkpt>
      <trkpt lat="43.31971" lon="0.00569">
        <ele>357.27</ele>
        <time>2021-08-19T14:36:02Z</time>
      </trkpt>
      <trkpt lat="43.31941" lon="0.00563">
        <ele>357.27</ele>
        <time>2021-08-19T14:36:09Z</time>
      </trkpt>
      <trkpt lat="43.31936" lon="0.0056">
        <ele>357.27</ele>
        <time>2021-08-19T14:36:10Z</time>
      </trkpt>
      <trkpt lat="43.31905" lon="0.00542">
        <ele>357.75</ele>
        <time>2021-08-19T14:36:17Z</time>
      </trkpt>
      <trkpt lat="43.31897" lon="0.00537">
        <ele>357.75</ele>
        <time>2021-08-19T14:36:19Z</time>
      </trkpt>
      <trkpt lat="43.31892" lon="0.00535">
        <ele>357.75</ele>
        <time>2021-08-19T14:36:20Z</time>
      </trkpt>
      <trkpt lat="43.31877" lon="0.00527">
        <ele>357.75</ele>
        <time>2021-08-19T14:36:23Z</time>
      </trkpt>
      <trkpt lat="43.31852" lon="0.0051">
        <ele>358.23</ele>
        <time>2021-08-19T14:36:29Z</time>
      </trkpt>
      <trkpt lat="43.31848" lon="0.00507">
        <ele>358.23</ele>
        <time>2021-08-19T14:36:30Z</time>
      </trkpt>
      <trkpt lat="43.31817" lon="0.00475">
        <ele>358.23</ele>
        <time>2021-08-19T14:36:38Z</time>
      </trkpt>
      <trkpt lat="43.31813" lon="0.00472">
        <ele>358.23</ele>
        <time>2021-08-19T14:36:39Z</time>
      </trkpt>
      <trkpt lat="43.31809" lon="0.00467">
        <ele>358.23</ele>
        <time>2021-08-19T14:36:40Z</time>
      </trkpt>
      <trkpt lat="43.3177" lon="0.00431">
        <ele>358.71</ele>
        <time>2021-08-19T14:36:48Z</time>
      </trkpt>
      <trkpt lat="43.31766" lon="0.00427">
        <ele>358.71</ele>
        <time>2021-08-19T14:36:49Z</time>
      </trkpt>
      <trkpt lat="43.3173" lon="0.00389">
        <ele>358.71</ele>
        <time>2021-08-19T14:36:57Z</time>
      </trkpt>
      <trkpt lat="43.31694" lon="0.00354">
        <ele>358.71</ele>
        <time>2021-08-19T14:37:04Z</time>
      </trkpt>
      <trkpt lat="43.31676" lon="0.00331">
        <ele>359.19</ele>
        <time>2021-08-19T14:37:08Z</time>
      </trkpt>
      <trkpt lat="43.31669" lon="0.00318">
        <ele>359.19</ele>
        <time>2021-08-19T14:37:10Z</time>
      </trkpt>
      <trkpt lat="43.31665" lon="0.00311">
        <ele>359.19</ele>
        <time>2021-08-19T14:37:11Z</time>
      </trkpt>
      <trkpt lat="43.31662" lon="0.00302">
        <ele>359.19</ele>
        <time>2021-08-19T14:37:12Z</time>
      </trkpt>
      <trkpt lat="43.31659" lon="0.00295">
        <ele>359.19</ele>
        <time>2021-08-19T14:37:13Z</time>
      </trkpt>
      <trkpt lat="43.31656" lon="0.00289">
        <ele>359.19</ele>
        <time>2021-08-19T14:37:14Z</time>
      </trkpt>
      <trkpt lat="43.31644" lon="0.00262">
        <ele>359.19</ele>
        <time>2021-08-19T14:37:18Z</time>
      </trkpt>
      <trkpt lat="43.31607" lon="0.00195">
        <ele>359.19</ele>
        <time>2021-08-19T14:37:28Z</time>
      </trkpt>
      <trkpt lat="43.31578" lon="0.00149">
        <ele>359.19</ele>
        <time>2021-08-19T14:37:36Z</time>
      </trkpt>
      <trkpt lat="43.3157" lon="0.00132">
        <ele>359.19</ele>
        <time>2021-08-19T14:37:39Z</time>
      </trkpt>
      <trkpt lat="43.31568" lon="0.00127">
        <ele>359.19</ele>
        <time>2021-08-19T14:37:40Z</time>
      </trkpt>
      <trkpt lat="43.31556" lon="0.00076">
        <ele>359.19</ele>
        <time>2021-08-19T14:37:48Z</time>
      </trkpt>
      <trkpt lat="43.31553" lon="0.00063">
        <ele>359.19</ele>
        <time>2021-08-19T14:37:50Z</time>
      </trkpt>
      <trkpt lat="43.31552" lon="0.00056">
        <ele>359.19</ele>
        <time>2021-08-19T14:37:51Z</time>
      </trkpt>
      <trkpt lat="43.31543" lon="0.0002">
        <ele>359.19</ele>
        <time>2021-08-19T14:37:58Z</time>
      </trkpt>
      <trkpt lat="43.3154" lon="0.00021">
        <ele>359.19</ele>
        <time>2021-08-19T14:37:59Z</time>
      </trkpt>
      <trkpt lat="43.31538" lon="0.00022">
        <ele>359.19</ele>
        <time>2021-08-19T14:38:00Z</time>
      </trkpt>
      <trkpt lat="43.31537" lon="0.00025">
        <ele>359.19</ele>
        <time>2021-08-19T14:38:01Z</time>
      </trkpt>
      <trkpt lat="43.31536" lon="0.00029">
        <ele>359.19</ele>
        <time>2021-08-19T14:38:02Z</time>
      </trkpt>
      <trkpt lat="43.31537" lon="0.00035">
        <ele>359.19</ele>
        <time>2021-08-19T14:38:03Z</time>
      </trkpt>
      <trkpt lat="43.31538" lon="0.00039">
        <ele>359.19</ele>
        <time>2021-08-19T14:38:04Z</time>
      </trkpt>
      <trkpt lat="43.31539" lon="0.00043">
        <ele>359.19</ele>
        <time>2021-08-19T14:38:05Z</time>
      </trkpt>
      <trkpt lat="43.3154" lon="0.00048">
        <ele>359.19</ele>
        <time>2021-08-19T14:38:06Z</time>
      </trkpt>
      <trkpt lat="43.31539" lon="0.00052">
        <ele>359.19</ele>
        <time>2021-08-19T14:38:07Z</time>
      </trkpt>
      <trkpt lat="43.31538" lon="0.00056">
        <ele>359.19</ele>
        <time>2021-08-19T14:38:08Z</time>
      </trkpt>
      <trkpt lat="43.31537" lon="0.00059">
        <ele>359.19</ele>
        <time>2021-08-19T14:38:09Z</time>
      </trkpt>
      <trkpt lat="43.3153" lon="0.00081">
        <ele>357.75</ele>
        <time>2021-08-19T14:38:14Z</time>
      </trkpt>
      <trkpt lat="43.31528" lon="0.00085">
        <ele>357.27</ele>
        <time>2021-08-19T14:38:15Z</time>
      </trkpt>
      <trkpt lat="43.31525" lon="0.00088">
        <ele>356.79</ele>
        <time>2021-08-19T14:38:16Z</time>
      </trkpt>
      <trkpt lat="43.31522" lon="0.0009">
        <ele>356.79</ele>
        <time>2021-08-19T14:38:17Z</time>
      </trkpt>
      <trkpt lat="43.31519" lon="0.00091">
        <ele>355.83</ele>
        <time>2021-08-19T14:38:18Z</time>
      </trkpt>
      <trkpt lat="43.31515" lon="0.0009">
        <ele>355.34</ele>
        <time>2021-08-19T14:38:19Z</time>
      </trkpt>
      <trkpt lat="43.31511" lon="0.00091">
        <ele>354.86</ele>
        <time>2021-08-19T14:38:20Z</time>
      </trkpt>
      <trkpt lat="43.31507" lon="0.00096">
        <ele>354.38</ele>
        <time>2021-08-19T14:38:21Z</time>
      </trkpt>
      <trkpt lat="43.31504" lon="0.00102">
        <ele>353.42</ele>
        <time>2021-08-19T14:38:22Z</time>
      </trkpt>
      <trkpt lat="43.31501" lon="0.00107">
        <ele>352.46</ele>
        <time>2021-08-19T14:38:23Z</time>
      </trkpt>
      <trkpt lat="43.31494" lon="0.0013">
        <ele>350.54</ele>
        <time>2021-08-19T14:38:26Z</time>
      </trkpt>
      <trkpt lat="43.31493" lon="0.00136">
        <ele>351.02</ele>
        <time>2021-08-19T14:38:27Z</time>
      </trkpt>
      <trkpt lat="43.3149" lon="0.0014">
        <ele>350.06</ele>
        <time>2021-08-19T14:38:28Z</time>
      </trkpt>
      <trkpt lat="43.31488" lon="0.00144">
        <ele>349.1</ele>
        <time>2021-08-19T14:38:29Z</time>
      </trkpt>
      <trkpt lat="43.31486" lon="0.00149">
        <ele>348.13</ele>
        <time>2021-08-19T14:38:30Z</time>
      </trkpt>
      <trkpt lat="43.31485" lon="0.00155">
        <ele>347.17</ele>
        <time>2021-08-19T14:38:31Z</time>
      </trkpt>
      <trkpt lat="43.31484" lon="0.00162">
        <ele>346.69</ele>
        <time>2021-08-19T14:38:32Z</time>
      </trkpt>
      <trkpt lat="43.31483" lon="0.0017">
        <ele>345.73</ele>
        <time>2021-08-19T14:38:33Z</time>
      </trkpt>
      <trkpt lat="43.31482" lon="0.00178">
        <ele>345.25</ele>
        <time>2021-08-19T14:38:34Z</time>
      </trkpt>
      <trkpt lat="43.3148" lon="0.00187">
        <ele>344.29</ele>
        <time>2021-08-19T14:38:35Z</time>
      </trkpt>
      <trkpt lat="43.31478" lon="0.00195">
        <ele>343.33</ele>
        <time>2021-08-19T14:38:36Z</time>
      </trkpt>
      <trkpt lat="43.31474" lon="0.00202">
        <ele>343.81</ele>
        <time>2021-08-19T14:38:37Z</time>
      </trkpt>
      <trkpt lat="43.31471" lon="0.00208">
        <ele>342.37</ele>
        <time>2021-08-19T14:38:38Z</time>
      </trkpt>
      <trkpt lat="43.31461" lon="0.0023">
        <ele>339.96</ele>
        <time>2021-08-19T14:38:41Z</time>
      </trkpt>
      <trkpt lat="43.31457" lon="0.00236">
        <ele>339</ele>
        <time>2021-08-19T14:38:42Z</time>
      </trkpt>
      <trkpt lat="43.31454" lon="0.00243">
        <ele>338.04</ele>
        <time>2021-08-19T14:38:43Z</time>
      </trkpt>
      <trkpt lat="43.31447" lon="0.00255">
        <ele>337.08</ele>
        <time>2021-08-19T14:38:44Z</time>
      </trkpt>
      <trkpt lat="43.31444" lon="0.00264">
        <ele>336.12</ele>
        <time>2021-08-19T14:38:45Z</time>
      </trkpt>
      <trkpt lat="43.31441" lon="0.00274">
        <ele>336.12</ele>
        <time>2021-08-19T14:38:46Z</time>
      </trkpt>
      <trkpt lat="43.3144" lon="0.00282">
        <ele>335.16</ele>
        <time>2021-08-19T14:38:47Z</time>
      </trkpt>
      <trkpt lat="43.31436" lon="0.00305">
        <ele>332.27</ele>
        <time>2021-08-19T14:38:50Z</time>
      </trkpt>
      <trkpt lat="43.31433" lon="0.00315">
        <ele>330.83</ele>
        <time>2021-08-19T14:38:51Z</time>
      </trkpt>
      <trkpt lat="43.31426" lon="0.0033">
        <ele>329.39</ele>
        <time>2021-08-19T14:38:53Z</time>
      </trkpt>
      <trkpt lat="43.3141" lon="0.0035">
        <ele>326.02</ele>
        <time>2021-08-19T14:38:57Z</time>
      </trkpt>
      <trkpt lat="43.31406" lon="0.0035">
        <ele>325.54</ele>
        <time>2021-08-19T14:38:58Z</time>
      </trkpt>
      <trkpt lat="43.31401" lon="0.0035">
        <ele>324.58</ele>
        <time>2021-08-19T14:38:59Z</time>
      </trkpt>
      <trkpt lat="43.31398" lon="0.00351">
        <ele>323.62</ele>
        <time>2021-08-19T14:39:00Z</time>
      </trkpt>
      <trkpt lat="43.31395" lon="0.00353">
        <ele>323.14</ele>
        <time>2021-08-19T14:39:01Z</time>
      </trkpt>
      <trkpt lat="43.31392" lon="0.00356">
        <ele>322.66</ele>
        <time>2021-08-19T14:39:02Z</time>
      </trkpt>
      <trkpt lat="43.31385" lon="0.00362">
        <ele>320.74</ele>
        <time>2021-08-19T14:39:04Z</time>
      </trkpt>
      <trkpt lat="43.31382" lon="0.00366">
        <ele>319.78</ele>
        <time>2021-08-19T14:39:05Z</time>
      </trkpt>
      <trkpt lat="43.3138" lon="0.00371">
        <ele>319.3</ele>
        <time>2021-08-19T14:39:06Z</time>
      </trkpt>
      <trkpt lat="43.31379" lon="0.00376">
        <ele>318.81</ele>
        <time>2021-08-19T14:39:07Z</time>
      </trkpt>
      <trkpt lat="43.31379" lon="0.00382">
        <ele>318.33</ele>
        <time>2021-08-19T14:39:08Z</time>
      </trkpt>
      <trkpt lat="43.31377" lon="0.00399">
        <ele>315.93</ele>
        <time>2021-08-19T14:39:11Z</time>
      </trkpt>
      <trkpt lat="43.31376" lon="0.00405">
        <ele>315.93</ele>
        <time>2021-08-19T14:39:12Z</time>
      </trkpt>
      <trkpt lat="43.31376" lon="0.00409">
        <ele>314.97</ele>
        <time>2021-08-19T14:39:13Z</time>
      </trkpt>
      <trkpt lat="43.31376" lon="0.00414">
        <ele>314.49</ele>
        <time>2021-08-19T14:39:14Z</time>
      </trkpt>
      <trkpt lat="43.31376" lon="0.00419">
        <ele>314.49</ele>
        <time>2021-08-19T14:39:15Z</time>
      </trkpt>
      <trkpt lat="43.31376" lon="0.00423">
        <ele>313.53</ele>
        <time>2021-08-19T14:39:16Z</time>
      </trkpt>
      <trkpt lat="43.31376" lon="0.00427">
        <ele>313.53</ele>
        <time>2021-08-19T14:39:17Z</time>
      </trkpt>
      <trkpt lat="43.31374" lon="0.00431">
        <ele>313.05</ele>
        <time>2021-08-19T14:39:18Z</time>
      </trkpt>
      <trkpt lat="43.31372" lon="0.00434">
        <ele>312.57</ele>
        <time>2021-08-19T14:39:19Z</time>
      </trkpt>
      <trkpt lat="43.31369" lon="0.00436">
        <ele>312.09</ele>
        <time>2021-08-19T14:39:20Z</time>
      </trkpt>
      <trkpt lat="43.31367" lon="0.00439">
        <ele>312.09</ele>
        <time>2021-08-19T14:39:21Z</time>
      </trkpt>
      <trkpt lat="43.31364" lon="0.00442">
        <ele>311.12</ele>
        <time>2021-08-19T14:39:22Z</time>
      </trkpt>
      <trkpt lat="43.31363" lon="0.00447">
        <ele>311.12</ele>
        <time>2021-08-19T14:39:23Z</time>
      </trkpt>
      <trkpt lat="43.31362" lon="0.00452">
        <ele>310.64</ele>
        <time>2021-08-19T14:39:24Z</time>
      </trkpt>
      <trkpt lat="43.31362" lon="0.00458">
        <ele>310.64</ele>
        <time>2021-08-19T14:39:25Z</time>
      </trkpt>
      <trkpt lat="43.31361" lon="0.00474">
        <ele>308.72</ele>
        <time>2021-08-19T14:39:29Z</time>
      </trkpt>
      <trkpt lat="43.31359" lon="0.0049">
        <ele>306.32</ele>
        <time>2021-08-19T14:39:35Z</time>
      </trkpt>
      <trkpt lat="43.31358" lon="0.00511">
        <ele>303.43</ele>
        <time>2021-08-19T14:39:42Z</time>
      </trkpt>
      <trkpt lat="43.31351" lon="0.00531">
        <ele>300.55</ele>
        <time>2021-08-19T14:39:48Z</time>
      </trkpt>
      <trkpt lat="43.31344" lon="0.00546">
        <ele>298.63</ele>
        <time>2021-08-19T14:39:54Z</time>
      </trkpt>
      <trkpt lat="43.31335" lon="0.00563">
        <ele>297.18</ele>
        <time>2021-08-19T14:39:59Z</time>
      </trkpt>
      <trkpt lat="43.31323" lon="0.00586">
        <ele>295.26</ele>
        <time>2021-08-19T14:40:06Z</time>
      </trkpt>
      <trkpt lat="43.3132" lon="0.00591">
        <ele>295.26</ele>
        <time>2021-08-19T14:40:07Z</time>
      </trkpt>
      <trkpt lat="43.31307" lon="0.00625">
        <ele>292.86</ele>
        <time>2021-08-19T14:40:12Z</time>
      </trkpt>
      <trkpt lat="43.31292" lon="0.0066">
        <ele>289.97</ele>
        <time>2021-08-19T14:40:17Z</time>
      </trkpt>
      <trkpt lat="43.31289" lon="0.00665">
        <ele>289.97</ele>
        <time>2021-08-19T14:40:18Z</time>
      </trkpt>
      <trkpt lat="43.31286" lon="0.00668">
        <ele>289.97</ele>
        <time>2021-08-19T14:40:19Z</time>
      </trkpt>
      <trkpt lat="43.31284" lon="0.00668">
        <ele>289.97</ele>
        <time>2021-08-19T14:40:20Z</time>
      </trkpt>
      <trkpt lat="43.31282" lon="0.00667">
        <ele>289.97</ele>
        <time>2021-08-19T14:40:21Z</time>
      </trkpt>
      <trkpt lat="43.31282" lon="0.00666">
        <ele>289.97</ele>
        <time>2021-08-19T14:40:27Z</time>
      </trkpt>
      <trkpt lat="43.31284" lon="0.00665">
        <ele>289.97</ele>
        <time>2021-08-19T14:40:35Z</time>
      </trkpt>
      <trkpt lat="43.31285" lon="0.00665">
        <ele>289.49</ele>
        <time>2021-08-19T14:40:39Z</time>
      </trkpt>
      <trkpt lat="43.31283" lon="0.00668">
        <ele>289.49</ele>
        <time>2021-08-19T14:40:46Z</time>
      </trkpt>
      <trkpt lat="43.31282" lon="0.00671">
        <ele>289.49</ele>
        <time>2021-08-19T14:41:01Z</time>
      </trkpt>
      <trkpt lat="43.3128" lon="0.00668">
        <ele>289.49</ele>
        <time>2021-08-19T14:41:16Z</time>
      </trkpt>
      <trkpt lat="43.31268" lon="0.00656">
        <ele>289.49</ele>
        <time>2021-08-19T14:41:22Z</time>
      </trkpt>
      <trkpt lat="43.31248" lon="0.00631">
        <ele>289.01</ele>
        <time>2021-08-19T14:41:29Z</time>
      </trkpt>
      <trkpt lat="43.31221" lon="0.006">
        <ele>289.01</ele>
        <time>2021-08-19T14:41:38Z</time>
      </trkpt>
      <trkpt lat="43.31198" lon="0.00568">
        <ele>289.01</ele>
        <time>2021-08-19T14:41:47Z</time>
      </trkpt>
      <trkpt lat="43.31195" lon="0.00562">
        <ele>289.01</ele>
        <time>2021-08-19T14:41:50Z</time>
      </trkpt>
      <trkpt lat="43.31193" lon="0.00562">
        <ele>289.01</ele>
        <time>2021-08-19T14:41:56Z</time>
      </trkpt>
      <trkpt lat="43.31194" lon="0.00562">
        <ele>289.01</ele>
        <time>2021-08-19T14:42:14Z</time>
      </trkpt>
      <trkpt lat="43.31194" lon="0.00562">
        <ele>289.01</ele>
        <time>2021-08-19T14:42:29Z</time>
      </trkpt>
      <trkpt lat="43.31194" lon="0.00561">
        <ele>289.01</ele>
        <time>2021-08-19T14:42:40Z</time>
      </trkpt>
      <trkpt lat="43.31194" lon="0.00558">
        <ele>289.01</ele>
        <time>2021-08-19T14:42:47Z</time>
      </trkpt>
      <trkpt lat="43.31195" lon="0.00557">
        <ele>289.01</ele>
        <time>2021-08-19T14:42:57Z</time>
      </trkpt>
      <trkpt lat="43.31192" lon="0.00555">
        <ele>289.01</ele>
        <time>2021-08-19T14:43:19Z</time>
      </trkpt>
      <trkpt lat="43.31194" lon="0.00554">
        <ele>289.01</ele>
        <time>2021-08-19T14:43:47Z</time>
      </trkpt>
      <trkpt lat="43.31195" lon="0.00554">
        <ele>289.01</ele>
        <time>2021-08-19T14:44:09Z</time>
      </trkpt>
      <trkpt lat="43.31196" lon="0.00555">
        <ele>288.53</ele>
        <time>2021-08-19T14:44:30Z</time>
      </trkpt>
      <trkpt lat="43.31195" lon="0.00555">
        <ele>288.53</ele>
        <time>2021-08-19T14:44:54Z</time>
      </trkpt>
      <trkpt lat="43.31193" lon="0.00554">
        <ele>288.53</ele>
        <time>2021-08-19T14:45:16Z</time>
      </trkpt>
      <trkpt lat="43.31194" lon="0.00554">
        <ele>288.53</ele>
        <time>2021-08-19T14:45:41Z</time>
      </trkpt>
      <trkpt lat="43.31196" lon="0.00555">
        <ele>288.53</ele>
        <time>2021-08-19T14:46:08Z</time>
      </trkpt>
      <trkpt lat="43.31196" lon="0.00555">
        <ele>288.53</ele>
        <time>2021-08-19T14:46:16Z</time>
      </trkpt>
      <trkpt lat="43.31195" lon="0.00554">
        <ele>288.05</ele>
        <time>2021-08-19T14:46:40Z</time>
      </trkpt>
      <trkpt lat="43.31196" lon="0.00554">
        <ele>288.05</ele>
        <time>2021-08-19T14:47:03Z</time>
      </trkpt>
      <trkpt lat="43.31197" lon="0.00555">
        <ele>288.05</ele>
        <time>2021-08-19T14:47:25Z</time>
      </trkpt>
      <trkpt lat="43.31196" lon="0.00555">
        <ele>288.05</ele>
        <time>2021-08-19T14:47:48Z</time>
      </trkpt>
      <trkpt lat="43.31196" lon="0.00556">
        <ele>288.05</ele>
        <time>2021-08-19T14:48:08Z</time>
      </trkpt>
      <trkpt lat="43.31195" lon="0.00554">
        <ele>287.57</ele>
        <time>2021-08-19T14:48:32Z</time>
      </trkpt>
      <trkpt lat="43.31193" lon="0.00555">
        <ele>287.57</ele>
        <time>2021-08-19T14:48:54Z</time>
      </trkpt>
      <trkpt lat="43.31195" lon="0.00556">
        <ele>287.57</ele>
        <time>2021-08-19T14:49:15Z</time>
      </trkpt>
      <trkpt lat="43.31198" lon="0.00557">
        <ele>287.57</ele>
        <time>2021-08-19T14:49:41Z</time>
      </trkpt>
      <trkpt lat="43.31197" lon="0.00555">
        <ele>287.57</ele>
        <time>2021-08-19T14:50:08Z</time>
      </trkpt>
      <trkpt lat="43.31197" lon="0.00555">
        <ele>288.53</ele>
        <time>2021-08-19T14:50:32Z</time>
      </trkpt>
      <trkpt lat="43.31197" lon="0.00555">
        <ele>288.53</ele>
        <time>2021-08-19T14:50:37Z</time>
      </trkpt>
      <trkpt lat="43.31197" lon="0.00555">
        <ele>288.53</ele>
        <time>2021-08-19T14:50:44Z</time>
      </trkpt>
      <trkpt lat="43.31196" lon="0.00554">
        <ele>288.53</ele>
        <time>2021-08-19T14:51:04Z</time>
      </trkpt>
      <trkpt lat="43.31197" lon="0.00554">
        <ele>288.53</ele>
        <time>2021-08-19T14:51:34Z</time>
      </trkpt>
      <trkpt lat="43.31196" lon="0.00555">
        <ele>288.05</ele>
        <time>2021-08-19T14:52:01Z</time>
      </trkpt>
      <trkpt lat="43.31197" lon="0.00556">
        <ele>288.05</ele>
        <time>2021-08-19T14:52:24Z</time>
      </trkpt>
      <trkpt lat="43.31197" lon="0.00555">
        <ele>288.05</ele>
        <time>2021-08-19T14:52:47Z</time>
      </trkpt>
      <trkpt lat="43.31198" lon="0.00555">
        <ele>288.05</ele>
        <time>2021-08-19T14:53:08Z</time>
      </trkpt>
      <trkpt lat="43.31196" lon="0.00554">
        <ele>287.57</ele>
        <time>2021-08-19T14:53:35Z</time>
      </trkpt>
      <trkpt lat="43.31195" lon="0.00554">
        <ele>288.05</ele>
        <time>2021-08-19T14:54:01Z</time>
      </trkpt>
      <trkpt lat="43.31194" lon="0.00553">
        <ele>288.05</ele>
        <time>2021-08-19T14:54:28Z</time>
      </trkpt>
      <trkpt lat="43.31196" lon="0.00556">
        <ele>288.05</ele>
        <time>2021-08-19T14:54:53Z</time>
      </trkpt>
      <trkpt lat="43.31198" lon="0.00557">
        <ele>288.05</ele>
        <time>2021-08-19T14:55:16Z</time>
      </trkpt>
      <trkpt lat="43.31199" lon="0.00557">
        <ele>288.05</ele>
        <time>2021-08-19T14:55:34Z</time>
      </trkpt>
      <trkpt lat="43.31198" lon="0.00556">
        <ele>288.05</ele>
        <time>2021-08-19T14:55:41Z</time>
      </trkpt>
      <trkpt lat="43.31196" lon="0.00556">
        <ele>288.05</ele>
        <time>2021-08-19T14:56:04Z</time>
      </trkpt>
      <trkpt lat="43.31196" lon="0.00555">
        <ele>288.05</ele>
        <time>2021-08-19T14:56:34Z</time>
      </trkpt>
      <trkpt lat="43.31195" lon="0.00557">
        <ele>288.05</ele>
        <time>2021-08-19T14:57:07Z</time>
      </trkpt>
      <trkpt lat="43.31194" lon="0.00555">
        <ele>288.05</ele>
        <time>2021-08-19T14:57:30Z</time>
      </trkpt>
      <trkpt lat="43.31194" lon="0.00554">
        <ele>288.05</ele>
        <time>2021-08-19T14:57:55Z</time>
      </trkpt>
      <trkpt lat="43.31196" lon="0.00556">
        <ele>289.01</ele>
        <time>2021-08-19T14:58:16Z</time>
      </trkpt>
      <trkpt lat="43.31194" lon="0.00559">
        <ele>289.01</ele>
        <time>2021-08-19T14:58:32Z</time>
      </trkpt>
      <trkpt lat="43.31195" lon="0.00558">
        <ele>289.01</ele>
        <time>2021-08-19T14:58:51Z</time>
      </trkpt>
      <trkpt lat="43.31196" lon="0.00555">
        <ele>289.01</ele>
        <time>2021-08-19T14:59:11Z</time>
      </trkpt>
      <trkpt lat="43.31196" lon="0.00559">
        <ele>289.01</ele>
        <time>2021-08-19T14:59:35Z</time>
      </trkpt>
      <trkpt lat="43.31194" lon="0.00557">
        <ele>289.01</ele>
        <time>2021-08-19T14:59:53Z</time>
      </trkpt>
      <trkpt lat="43.31195" lon="0.00556">
        <ele>289.01</ele>
        <time>2021-08-19T15:00:09Z</time>
      </trkpt>
      <trkpt lat="43.31196" lon="0.00556">
        <ele>289.01</ele>
        <time>2021-08-19T15:00:23Z</time>
      </trkpt>
      <trkpt lat="43.31197" lon="0.0056">
        <ele>289.01</ele>
        <time>2021-08-19T15:00:37Z</time>
      </trkpt>
      <trkpt lat="43.31197" lon="0.00558">
        <ele>289.49</ele>
        <time>2021-08-19T15:00:49Z</time>
      </trkpt>
      <trkpt lat="43.31196" lon="0.00557">
        <ele>289.49</ele>
        <time>2021-08-19T15:01:08Z</time>
      </trkpt>
      <trkpt lat="43.31194" lon="0.00558">
        <ele>289.49</ele>
        <time>2021-08-19T15:01:11Z</time>
      </trkpt>
      <trkpt lat="43.31194" lon="0.00557">
        <ele>289.49</ele>
        <time>2021-08-19T15:01:17Z</time>
      </trkpt>
      <trkpt lat="43.31196" lon="0.00557">
        <ele>289.01</ele>
        <time>2021-08-19T15:01:26Z</time>
      </trkpt>
      <trkpt lat="43.31201" lon="0.00555">
        <ele>289.01</ele>
        <time>2021-08-19T15:01:52Z</time>
      </trkpt>
      <trkpt lat="43.31201" lon="0.00554">
        <ele>289.01</ele>
        <time>2021-08-19T15:02:15Z</time>
      </trkpt>
      <trkpt lat="43.312" lon="0.00554">
        <ele>289.01</ele>
        <time>2021-08-19T15:02:35Z</time>
      </trkpt>
      <trkpt lat="43.31196" lon="0.00555">
        <ele>289.01</ele>
        <time>2021-08-19T15:02:59Z</time>
      </trkpt>
      <trkpt lat="43.31198" lon="0.00556">
        <ele>289.01</ele>
        <time>2021-08-19T15:03:16Z</time>
      </trkpt>
      <trkpt lat="43.31199" lon="0.00555">
        <ele>289.01</ele>
        <time>2021-08-19T15:03:29Z</time>
      </trkpt>
      <trkpt lat="43.31199" lon="0.00558">
        <ele>289.01</ele>
        <time>2021-08-19T15:03:42Z</time>
      </trkpt>
      <trkpt lat="43.31197" lon="0.00559">
        <ele>289.01</ele>
        <time>2021-08-19T15:03:50Z</time>
      </trkpt>
      <trkpt lat="43.31198" lon="0.00559">
        <ele>289.01</ele>
        <time>2021-08-19T15:04:09Z</time>
      </trkpt>
      <trkpt lat="43.312" lon="0.00558">
        <ele>288.53</ele>
        <time>2021-08-19T15:04:28Z</time>
      </trkpt>
      <trkpt lat="43.31198" lon="0.00559">
        <ele>288.53</ele>
        <time>2021-08-19T15:04:48Z</time>
      </trkpt>
      <trkpt lat="43.31198" lon="0.00558">
        <ele>288.53</ele>
        <time>2021-08-19T15:05:05Z</time>
      </trkpt>
      <trkpt lat="43.31196" lon="0.00558">
        <ele>288.53</ele>
        <time>2021-08-19T15:05:12Z</time>
      </trkpt>
      <trkpt lat="43.31195" lon="0.00556">
        <ele>288.53</ele>
        <time>2021-08-19T15:05:14Z</time>
      </trkpt>
      <trkpt lat="43.31195" lon="0.00557">
        <ele>288.53</ele>
        <time>2021-08-19T15:05:19Z</time>
      </trkpt>
      <trkpt lat="43.31193" lon="0.00557">
        <ele>288.53</ele>
        <time>2021-08-19T15:05:35Z</time>
      </trkpt>
      <trkpt lat="43.31194" lon="0.00558">
        <ele>288.53</ele>
        <time>2021-08-19T15:05:44Z</time>
      </trkpt>
      <trkpt lat="43.31193" lon="0.00561">
        <ele>288.53</ele>
        <time>2021-08-19T15:06:01Z</time>
      </trkpt>
      <trkpt lat="43.31191" lon="0.00561">
        <ele>288.53</ele>
        <time>2021-08-19T15:06:14Z</time>
      </trkpt>
      <trkpt lat="43.3119" lon="0.00562">
        <ele>288.53</ele>
        <time>2021-08-19T15:06:15Z</time>
      </trkpt>
      <trkpt lat="43.3119" lon="0.00563">
        <ele>288.53</ele>
        <time>2021-08-19T15:06:16Z</time>
      </trkpt>
      <trkpt lat="43.3119" lon="0.00559">
        <ele>288.53</ele>
        <time>2021-08-19T15:06:23Z</time>
      </trkpt>
      <trkpt lat="43.31192" lon="0.0056">
        <ele>288.53</ele>
        <time>2021-08-19T15:06:40Z</time>
      </trkpt>
      <trkpt lat="43.31192" lon="0.0056">
        <ele>288.53</ele>
        <time>2021-08-19T15:06:54Z</time>
      </trkpt>
      <trkpt lat="43.31193" lon="0.00557">
        <ele>288.05</ele>
        <time>2021-08-19T15:07:07Z</time>
      </trkpt>
      <trkpt lat="43.31195" lon="0.00556">
        <ele>288.05</ele>
        <time>2021-08-19T15:07:22Z</time>
      </trkpt>
      <trkpt lat="43.31194" lon="0.00556">
        <ele>288.05</ele>
        <time>2021-08-19T15:07:32Z</time>
      </trkpt>
      <trkpt lat="43.31194" lon="0.00557">
        <ele>288.05</ele>
        <time>2021-08-19T15:07:48Z</time>
      </trkpt>
      <trkpt lat="43.31193" lon="0.00556">
        <ele>288.05</ele>
        <time>2021-08-19T15:07:50Z</time>
      </trkpt>
      <trkpt lat="43.31192" lon="0.00555">
        <ele>288.05</ele>
        <time>2021-08-19T15:07:51Z</time>
      </trkpt>
      <trkpt lat="43.31191" lon="0.00554">
        <ele>288.05</ele>
        <time>2021-08-19T15:07:52Z</time>
      </trkpt>
      <trkpt lat="43.31189" lon="0.00553">
        <ele>288.05</ele>
        <time>2021-08-19T15:07:53Z</time>
      </trkpt>
      <trkpt lat="43.31187" lon="0.00551">
        <ele>288.05</ele>
        <time>2021-08-19T15:07:54Z</time>
      </trkpt>
      <trkpt lat="43.31185" lon="0.00549">
        <ele>288.05</ele>
        <time>2021-08-19T15:07:55Z</time>
      </trkpt>
      <trkpt lat="43.31182" lon="0.00546">
        <ele>287.09</ele>
        <time>2021-08-19T15:07:56Z</time>
      </trkpt>
      <trkpt lat="43.31169" lon="0.00534">
        <ele>287.09</ele>
        <time>2021-08-19T15:08:01Z</time>
      </trkpt>
      <trkpt lat="43.31144" lon="0.00514">
        <ele>287.09</ele>
        <time>2021-08-19T15:08:10Z</time>
      </trkpt>
      <trkpt lat="43.31119" lon="0.00491">
        <ele>287.09</ele>
        <time>2021-08-19T15:08:20Z</time>
      </trkpt>
      <trkpt lat="43.31107" lon="0.0047">
        <ele>288.05</ele>
        <time>2021-08-19T15:08:27Z</time>
      </trkpt>
      <trkpt lat="43.311" lon="0.00457">
        <ele>289.01</ele>
        <time>2021-08-19T15:08:34Z</time>
      </trkpt>
      <trkpt lat="43.31099" lon="0.00451">
        <ele>289.97</ele>
        <time>2021-08-19T15:08:37Z</time>
      </trkpt>
      <trkpt lat="43.31099" lon="0.00449">
        <ele>289.97</ele>
        <time>2021-08-19T15:08:38Z</time>
      </trkpt>
      <trkpt lat="43.31099" lon="0.00446">
        <ele>289.97</ele>
        <time>2021-08-19T15:08:41Z</time>
      </trkpt>
      <trkpt lat="43.31097" lon="0.00447">
        <ele>289.97</ele>
        <time>2021-08-19T15:08:42Z</time>
      </trkpt>
      <trkpt lat="43.31096" lon="0.00448">
        <ele>289.97</ele>
        <time>2021-08-19T15:08:43Z</time>
      </trkpt>
      <trkpt lat="43.31094" lon="0.00449">
        <ele>289.97</ele>
        <time>2021-08-19T15:08:44Z</time>
      </trkpt>
      <trkpt lat="43.31092" lon="0.00449">
        <ele>289.97</ele>
        <time>2021-08-19T15:08:45Z</time>
      </trkpt>
      <trkpt lat="43.31089" lon="0.00449">
        <ele>289.97</ele>
        <time>2021-08-19T15:08:46Z</time>
      </trkpt>
      <trkpt lat="43.31086" lon="0.00448">
        <ele>289.97</ele>
        <time>2021-08-19T15:08:47Z</time>
      </trkpt>
      <trkpt lat="43.31083" lon="0.00447">
        <ele>289.97</ele>
        <time>2021-08-19T15:08:48Z</time>
      </trkpt>
      <trkpt lat="43.31072" lon="0.0044">
        <ele>289.01</ele>
        <time>2021-08-19T15:08:51Z</time>
      </trkpt>
      <trkpt lat="43.31059" lon="0.00432">
        <ele>288.05</ele>
        <time>2021-08-19T15:08:54Z</time>
      </trkpt>
      <trkpt lat="43.31055" lon="0.0043">
        <ele>288.05</ele>
        <time>2021-08-19T15:08:55Z</time>
      </trkpt>
      <trkpt lat="43.31052" lon="0.00428">
        <ele>287.57</ele>
        <time>2021-08-19T15:08:56Z</time>
      </trkpt>
      <trkpt lat="43.31021" lon="0.00413">
        <ele>286.61</ele>
        <time>2021-08-19T15:09:02Z</time>
      </trkpt>
      <trkpt lat="43.30984" lon="0.0039">
        <ele>286.61</ele>
        <time>2021-08-19T15:09:09Z</time>
      </trkpt>
      <trkpt lat="43.30952" lon="0.00363">
        <ele>286.13</ele>
        <time>2021-08-19T15:09:16Z</time>
      </trkpt>
      <trkpt lat="43.30939" lon="0.00349">
        <ele>286.13</ele>
        <time>2021-08-19T15:09:19Z</time>
      </trkpt>
      <trkpt lat="43.30901" lon="0.00302">
        <ele>286.13</ele>
        <time>2021-08-19T15:09:30Z</time>
      </trkpt>
      <trkpt lat="43.30868" lon="0.00269">
        <ele>286.13</ele>
        <time>2021-08-19T15:09:39Z</time>
      </trkpt>
      <trkpt lat="43.30861" lon="0.00261">
        <ele>287.57</ele>
        <time>2021-08-19T15:09:41Z</time>
      </trkpt>
      <trkpt lat="43.30859" lon="0.00257">
        <ele>287.57</ele>
        <time>2021-08-19T15:09:42Z</time>
      </trkpt>
      <trkpt lat="43.30825" lon="0.00202">
        <ele>288.05</ele>
        <time>2021-08-19T15:09:54Z</time>
      </trkpt>
      <trkpt lat="43.30817" lon="0.00188">
        <ele>288.05</ele>
        <time>2021-08-19T15:09:57Z</time>
      </trkpt>
      <trkpt lat="43.30814" lon="0.00183">
        <ele>288.05</ele>
        <time>2021-08-19T15:09:58Z</time>
      </trkpt>
      <trkpt lat="43.30784" lon="0.00149">
        <ele>288.05</ele>
        <time>2021-08-19T15:10:07Z</time>
      </trkpt>
      <trkpt lat="43.30756" lon="0.00129">
        <ele>289.49</ele>
        <time>2021-08-19T15:10:15Z</time>
      </trkpt>
      <trkpt lat="43.30726" lon="0.00109">
        <ele>289.97</ele>
        <time>2021-08-19T15:10:24Z</time>
      </trkpt>
      <trkpt lat="43.30702" lon="0.00093">
        <ele>289.97</ele>
        <time>2021-08-19T15:10:31Z</time>
      </trkpt>
      <trkpt lat="43.30676" lon="0.00077">
        <ele>290.94</ele>
        <time>2021-08-19T15:10:39Z</time>
      </trkpt>
      <trkpt lat="43.3064" lon="0.00051">
        <ele>291.42</ele>
        <time>2021-08-19T15:10:50Z</time>
      </trkpt>
      <trkpt lat="43.30615" lon="0.00031">
        <ele>291.9</ele>
        <time>2021-08-19T15:10:58Z</time>
      </trkpt>
      <trkpt lat="43.30583" lon="0">
        <ele>293.34</ele>
        <time>2021-08-19T15:11:10Z</time>
      </trkpt>
      <trkpt lat="43.30567" lon="-0.00024">
        <ele>294.3</ele>
        <time>2021-08-19T15:11:17Z</time>
      </trkpt>
      <trkpt lat="43.3056" lon="-0.00035">
        <ele>295.74</ele>
        <time>2021-08-19T15:11:23Z</time>
      </trkpt>
      <trkpt lat="43.3055" lon="-0.00044">
        <ele>296.7</ele>
        <time>2021-08-19T15:11:31Z</time>
      </trkpt>
      <trkpt lat="43.30538" lon="-0.00051">
        <ele>297.18</ele>
        <time>2021-08-19T15:11:38Z</time>
      </trkpt>
      <trkpt lat="43.30524" lon="-0.00064">
        <ele>298.15</ele>
        <time>2021-08-19T15:11:47Z</time>
      </trkpt>
      <trkpt lat="43.30521" lon="-0.00078">
        <ele>299.59</ele>
        <time>2021-08-19T15:11:54Z</time>
      </trkpt>
      <trkpt lat="43.30524" lon="-0.00094">
        <ele>301.03</ele>
        <time>2021-08-19T15:12:03Z</time>
      </trkpt>
      <trkpt lat="43.30529" lon="-0.00112">
        <ele>303.43</ele>
        <time>2021-08-19T15:12:15Z</time>
      </trkpt>
      <trkpt lat="43.30531" lon="-0.00127">
        <ele>305.36</ele>
        <time>2021-08-19T15:12:23Z</time>
      </trkpt>
      <trkpt lat="43.3053" lon="-0.00135">
        <ele>306.32</ele>
        <time>2021-08-19T15:12:28Z</time>
      </trkpt>
      <trkpt lat="43.30529" lon="-0.00138">
        <ele>306.32</ele>
        <time>2021-08-19T15:12:30Z</time>
      </trkpt>
      <trkpt lat="43.30526" lon="-0.00143">
        <ele>306.32</ele>
        <time>2021-08-19T15:12:33Z</time>
      </trkpt>
      <trkpt lat="43.30524" lon="-0.00143">
        <ele>306.32</ele>
        <time>2021-08-19T15:12:34Z</time>
      </trkpt>
      <trkpt lat="43.30522" lon="-0.00143">
        <ele>306.32</ele>
        <time>2021-08-19T15:12:35Z</time>
      </trkpt>
      <trkpt lat="43.30515" lon="-0.00141">
        <ele>305.36</ele>
        <time>2021-08-19T15:12:37Z</time>
      </trkpt>
      <trkpt lat="43.30507" lon="-0.0014">
        <ele>303.91</ele>
        <time>2021-08-19T15:12:39Z</time>
      </trkpt>
      <trkpt lat="43.30502" lon="-0.0014">
        <ele>303.43</ele>
        <time>2021-08-19T15:12:40Z</time>
      </trkpt>
      <trkpt lat="43.30498" lon="-0.0014">
        <ele>302.95</ele>
        <time>2021-08-19T15:12:41Z</time>
      </trkpt>
      <trkpt lat="43.30492" lon="-0.00143">
        <ele>302.95</ele>
        <time>2021-08-19T15:12:42Z</time>
      </trkpt>
      <trkpt lat="43.30488" lon="-0.00145">
        <ele>302.47</ele>
        <time>2021-08-19T15:12:43Z</time>
      </trkpt>
      <trkpt lat="43.30484" lon="-0.00149">
        <ele>302.47</ele>
        <time>2021-08-19T15:12:44Z</time>
      </trkpt>
      <trkpt lat="43.30481" lon="-0.00151">
        <ele>302.47</ele>
        <time>2021-08-19T15:12:45Z</time>
      </trkpt>
      <trkpt lat="43.30478" lon="-0.00151">
        <ele>302.47</ele>
        <time>2021-08-19T15:12:46Z</time>
      </trkpt>
      <trkpt lat="43.30475" lon="-0.00149">
        <ele>302.47</ele>
        <time>2021-08-19T15:12:47Z</time>
      </trkpt>
      <trkpt lat="43.30473" lon="-0.00146">
        <ele>301.51</ele>
        <time>2021-08-19T15:12:48Z</time>
      </trkpt>
      <trkpt lat="43.3047" lon="-0.0014">
        <ele>301.51</ele>
        <time>2021-08-19T15:12:49Z</time>
      </trkpt>
      <trkpt lat="43.30468" lon="-0.00135">
        <ele>300.55</ele>
        <time>2021-08-19T15:12:50Z</time>
      </trkpt>
      <trkpt lat="43.30462" lon="-0.00121">
        <ele>300.07</ele>
        <time>2021-08-19T15:12:52Z</time>
      </trkpt>
      <trkpt lat="43.30448" lon="-0.00088">
        <ele>296.7</ele>
        <time>2021-08-19T15:12:56Z</time>
      </trkpt>
      <trkpt lat="43.30425" lon="-0.00037">
        <ele>293.82</ele>
        <time>2021-08-19T15:13:01Z</time>
      </trkpt>
      <trkpt lat="43.3039" lon="0.00043">
        <ele>290.94</ele>
        <time>2021-08-19T15:13:09Z</time>
      </trkpt>
      <trkpt lat="43.30356" lon="0.00123">
        <ele>289.97</ele>
        <time>2021-08-19T15:13:18Z</time>
      </trkpt>
      <trkpt lat="43.30329" lon="0.0019">
        <ele>288.53</ele>
        <time>2021-08-19T15:13:26Z</time>
      </trkpt>
      <trkpt lat="43.30325" lon="0.00203">
        <ele>288.53</ele>
        <time>2021-08-19T15:13:28Z</time>
      </trkpt>
      <trkpt lat="43.30323" lon="0.00207">
        <ele>288.53</ele>
        <time>2021-08-19T15:13:29Z</time>
      </trkpt>
      <trkpt lat="43.3032" lon="0.00209">
        <ele>288.53</ele>
        <time>2021-08-19T15:13:30Z</time>
      </trkpt>
      <trkpt lat="43.30317" lon="0.00209">
        <ele>288.05</ele>
        <time>2021-08-19T15:13:31Z</time>
      </trkpt>
      <trkpt lat="43.30314" lon="0.00207">
        <ele>288.05</ele>
        <time>2021-08-19T15:13:32Z</time>
      </trkpt>
      <trkpt lat="43.30311" lon="0.00205">
        <ele>288.05</ele>
        <time>2021-08-19T15:13:33Z</time>
      </trkpt>
      <trkpt lat="43.3031" lon="0.00203">
        <ele>288.05</ele>
        <time>2021-08-19T15:13:34Z</time>
      </trkpt>
      <trkpt lat="43.30306" lon="0.00194">
        <ele>289.01</ele>
        <time>2021-08-19T15:13:40Z</time>
      </trkpt>
      <trkpt lat="43.30306" lon="0.00191">
        <ele>289.01</ele>
        <time>2021-08-19T15:13:42Z</time>
      </trkpt>
      <trkpt lat="43.30309" lon="0.00197">
        <ele>289.01</ele>
        <time>2021-08-19T15:13:48Z</time>
      </trkpt>
      <trkpt lat="43.30307" lon="0.00195">
        <ele>289.01</ele>
        <time>2021-08-19T15:13:52Z</time>
      </trkpt>
      <trkpt lat="43.30305" lon="0.00188">
        <ele>289.01</ele>
        <time>2021-08-19T15:13:58Z</time>
      </trkpt>
      <trkpt lat="43.30308" lon="0.00191">
        <ele>289.01</ele>
        <time>2021-08-19T15:14:02Z</time>
      </trkpt>
      <trkpt lat="43.30309" lon="0.00205">
        <ele>289.01</ele>
        <time>2021-08-19T15:14:07Z</time>
      </trkpt>
      <trkpt lat="43.30307" lon="0.00207">
        <ele>289.01</ele>
        <time>2021-08-19T15:14:08Z</time>
      </trkpt>
      <trkpt lat="43.30305" lon="0.00209">
        <ele>288.05</ele>
        <time>2021-08-19T15:14:09Z</time>
      </trkpt>
      <trkpt lat="43.30303" lon="0.0021">
        <ele>288.05</ele>
        <time>2021-08-19T15:14:10Z</time>
      </trkpt>
      <trkpt lat="43.30301" lon="0.0021">
        <ele>288.05</ele>
        <time>2021-08-19T15:14:11Z</time>
      </trkpt>
      <trkpt lat="43.30279" lon="0.00213">
        <ele>288.05</ele>
        <time>2021-08-19T15:14:18Z</time>
      </trkpt>
      <trkpt lat="43.30266" lon="0.00224">
        <ele>288.05</ele>
        <time>2021-08-19T15:14:24Z</time>
      </trkpt>
      <trkpt lat="43.30256" lon="0.00242">
        <ele>287.57</ele>
        <time>2021-08-19T15:14:28Z</time>
      </trkpt>
      <trkpt lat="43.30254" lon="0.00247">
        <ele>287.57</ele>
        <time>2021-08-19T15:14:29Z</time>
      </trkpt>
      <trkpt lat="43.30253" lon="0.00253">
        <ele>287.57</ele>
        <time>2021-08-19T15:14:30Z</time>
      </trkpt>
      <trkpt lat="43.30252" lon="0.00258">
        <ele>287.57</ele>
        <time>2021-08-19T15:14:31Z</time>
      </trkpt>
      <trkpt lat="43.30252" lon="0.00263">
        <ele>287.57</ele>
        <time>2021-08-19T15:14:32Z</time>
      </trkpt>
      <trkpt lat="43.30252" lon="0.00268">
        <ele>287.57</ele>
        <time>2021-08-19T15:14:33Z</time>
      </trkpt>
      <trkpt lat="43.30252" lon="0.00274">
        <ele>287.09</ele>
        <time>2021-08-19T15:14:34Z</time>
      </trkpt>
      <trkpt lat="43.3025" lon="0.00279">
        <ele>287.09</ele>
        <time>2021-08-19T15:14:35Z</time>
      </trkpt>
      <trkpt lat="43.30249" lon="0.00284">
        <ele>287.09</ele>
        <time>2021-08-19T15:14:36Z</time>
      </trkpt>
      <trkpt lat="43.30247" lon="0.0029">
        <ele>287.09</ele>
        <time>2021-08-19T15:14:37Z</time>
      </trkpt>
      <trkpt lat="43.30238" lon="0.00327">
        <ele>286.61</ele>
        <time>2021-08-19T15:14:44Z</time>
      </trkpt>
      <trkpt lat="43.30235" lon="0.0034">
        <ele>286.61</ele>
        <time>2021-08-19T15:14:46Z</time>
      </trkpt>
      <trkpt lat="43.30225" lon="0.00378">
        <ele>285.65</ele>
        <time>2021-08-19T15:14:52Z</time>
      </trkpt>
      <trkpt lat="43.30222" lon="0.00396">
        <ele>285.65</ele>
        <time>2021-08-19T15:14:57Z</time>
      </trkpt>
      <trkpt lat="43.30222" lon="0.00403">
        <ele>285.65</ele>
        <time>2021-08-19T15:14:59Z</time>
      </trkpt>
      <trkpt lat="43.3022" lon="0.00405">
        <ele>285.65</ele>
        <time>2021-08-19T15:15:00Z</time>
      </trkpt>
      <trkpt lat="43.30218" lon="0.00406">
        <ele>285.65</ele>
        <time>2021-08-19T15:15:01Z</time>
      </trkpt>
      <trkpt lat="43.30197" lon="0.00404">
        <ele>286.13</ele>
        <time>2021-08-19T15:15:07Z</time>
      </trkpt>
      <trkpt lat="43.30175" lon="0.00401">
        <ele>286.13</ele>
        <time>2021-08-19T15:15:13Z</time>
      </trkpt>
      <trkpt lat="43.30155" lon="0.00401">
        <ele>286.13</ele>
        <time>2021-08-19T15:15:19Z</time>
      </trkpt>
      <trkpt lat="43.30134" lon="0.004">
        <ele>287.09</ele>
        <time>2021-08-19T15:15:25Z</time>
      </trkpt>
      <trkpt lat="43.30111" lon="0.0039">
        <ele>287.57</ele>
        <time>2021-08-19T15:15:32Z</time>
      </trkpt>
      <trkpt lat="43.30088" lon="0.00374">
        <ele>287.57</ele>
        <time>2021-08-19T15:15:39Z</time>
      </trkpt>
      <trkpt lat="43.30061" lon="0.00354">
        <ele>288.05</ele>
        <time>2021-08-19T15:15:48Z</time>
      </trkpt>
      <trkpt lat="43.30044" lon="0.00343">
        <ele>288.53</ele>
        <time>2021-08-19T15:15:54Z</time>
      </trkpt>
      <trkpt lat="43.30038" lon="0.00342">
        <ele>289.01</ele>
        <time>2021-08-19T15:15:56Z</time>
      </trkpt>
      <trkpt lat="43.30037" lon="0.00343">
        <ele>289.01</ele>
        <time>2021-08-19T15:15:57Z</time>
      </trkpt>
      <trkpt lat="43.30036" lon="0.00345">
        <ele>289.01</ele>
        <time>2021-08-19T15:15:58Z</time>
      </trkpt>
      <trkpt lat="43.30035" lon="0.00348">
        <ele>289.01</ele>
        <time>2021-08-19T15:15:59Z</time>
      </trkpt>
      <trkpt lat="43.30034" lon="0.0035">
        <ele>289.01</ele>
        <time>2021-08-19T15:16:00Z</time>
      </trkpt>
      <trkpt lat="43.30033" lon="0.00354">
        <ele>289.01</ele>
        <time>2021-08-19T15:16:01Z</time>
      </trkpt>
      <trkpt lat="43.30032" lon="0.00357">
        <ele>289.01</ele>
        <time>2021-08-19T15:16:02Z</time>
      </trkpt>
      <trkpt lat="43.30031" lon="0.0036">
        <ele>289.01</ele>
        <time>2021-08-19T15:16:03Z</time>
      </trkpt>
      <trkpt lat="43.30029" lon="0.00379">
        <ele>287.57</ele>
        <time>2021-08-19T15:16:08Z</time>
      </trkpt>
      <trkpt lat="43.30029" lon="0.00382">
        <ele>287.57</ele>
        <time>2021-08-19T15:16:09Z</time>
      </trkpt>
      <trkpt lat="43.3003" lon="0.00385">
        <ele>287.57</ele>
        <time>2021-08-19T15:16:15Z</time>
      </trkpt>
      <trkpt lat="43.30029" lon="0.0039">
        <ele>287.57</ele>
        <time>2021-08-19T15:16:24Z</time>
      </trkpt>
      <trkpt lat="43.30028" lon="0.00393">
        <ele>287.57</ele>
        <time>2021-08-19T15:16:34Z</time>
      </trkpt>
      <trkpt lat="43.30026" lon="0.00396">
        <ele>288.05</ele>
        <time>2021-08-19T15:16:44Z</time>
      </trkpt>
      <trkpt lat="43.30024" lon="0.00397">
        <ele>288.05</ele>
        <time>2021-08-19T15:16:50Z</time>
      </trkpt>
      <trkpt lat="43.30023" lon="0.00398">
        <ele>288.05</ele>
        <time>2021-08-19T15:16:51Z</time>
      </trkpt>
      <trkpt lat="43.30022" lon="0.004">
        <ele>288.05</ele>
        <time>2021-08-19T15:16:52Z</time>
      </trkpt>
      <trkpt lat="43.30021" lon="0.00403">
        <ele>288.05</ele>
        <time>2021-08-19T15:16:53Z</time>
      </trkpt>
      <trkpt lat="43.30021" lon="0.00405">
        <ele>288.05</ele>
        <time>2021-08-19T15:16:54Z</time>
      </trkpt>
      <trkpt lat="43.3002" lon="0.00408">
        <ele>288.05</ele>
        <time>2021-08-19T15:16:55Z</time>
      </trkpt>
      <trkpt lat="43.30011" lon="0.00432">
        <ele>288.05</ele>
        <time>2021-08-19T15:17:01Z</time>
      </trkpt>
      <trkpt lat="43.29997" lon="0.00458">
        <ele>288.05</ele>
        <time>2021-08-19T15:17:07Z</time>
      </trkpt>
      <trkpt lat="43.29992" lon="0.00471">
        <ele>289.49</ele>
        <time>2021-08-19T15:17:10Z</time>
      </trkpt>
      <trkpt lat="43.29984" lon="0.00506">
        <ele>289.97</ele>
        <time>2021-08-19T15:17:18Z</time>
      </trkpt>
      <trkpt lat="43.29977" lon="0.00545">
        <ele>291.42</ele>
        <time>2021-08-19T15:17:28Z</time>
      </trkpt>
      <trkpt lat="43.29974" lon="0.00562">
        <ele>291.9</ele>
        <time>2021-08-19T15:17:35Z</time>
      </trkpt>
      <trkpt lat="43.29969" lon="0.00578">
        <ele>293.34</ele>
        <time>2021-08-19T15:17:43Z</time>
      </trkpt>
      <trkpt lat="43.29963" lon="0.0059">
        <ele>294.78</ele>
        <time>2021-08-19T15:17:51Z</time>
      </trkpt>
      <trkpt lat="43.2996" lon="0.00592">
        <ele>295.26</ele>
        <time>2021-08-19T15:17:53Z</time>
      </trkpt>
      <trkpt lat="43.29956" lon="0.00595">
        <ele>295.74</ele>
        <time>2021-08-19T15:17:58Z</time>
      </trkpt>
      <trkpt lat="43.29954" lon="0.00596">
        <ele>296.22</ele>
        <time>2021-08-19T15:17:59Z</time>
      </trkpt>
      <trkpt lat="43.29953" lon="0.00596">
        <ele>296.22</ele>
        <time>2021-08-19T15:18:00Z</time>
      </trkpt>
      <trkpt lat="43.29951" lon="0.00597">
        <ele>296.22</ele>
        <time>2021-08-19T15:18:01Z</time>
      </trkpt>
      <trkpt lat="43.2995" lon="0.00597">
        <ele>296.7</ele>
        <time>2021-08-19T15:18:02Z</time>
      </trkpt>
      <trkpt lat="43.29948" lon="0.00598">
        <ele>296.7</ele>
        <time>2021-08-19T15:18:03Z</time>
      </trkpt>
      <trkpt lat="43.29942" lon="0.00601">
        <ele>298.63</ele>
        <time>2021-08-19T15:18:09Z</time>
      </trkpt>
      <trkpt lat="43.29937" lon="0.00602">
        <ele>299.11</ele>
        <time>2021-08-19T15:18:13Z</time>
      </trkpt>
      <trkpt lat="43.29927" lon="0.00601">
        <ele>301.03</ele>
        <time>2021-08-19T15:18:21Z</time>
      </trkpt>
      <trkpt lat="43.29924" lon="0.00602">
        <ele>301.51</ele>
        <time>2021-08-19T15:18:27Z</time>
      </trkpt>
      <trkpt lat="43.29917" lon="0.00603">
        <ele>302.47</ele>
        <time>2021-08-19T15:18:34Z</time>
      </trkpt>
      <trkpt lat="43.29912" lon="0.00603">
        <ele>303.91</ele>
        <time>2021-08-19T15:18:42Z</time>
      </trkpt>
      <trkpt lat="43.29905" lon="0.00604">
        <ele>304.88</ele>
        <time>2021-08-19T15:18:50Z</time>
      </trkpt>
      <trkpt lat="43.29896" lon="0.00606">
        <ele>306.32</ele>
        <time>2021-08-19T15:18:59Z</time>
      </trkpt>
      <trkpt lat="43.29889" lon="0.00607">
        <ele>307.28</ele>
        <time>2021-08-19T15:19:08Z</time>
      </trkpt>
      <trkpt lat="43.29881" lon="0.00605">
        <ele>308.72</ele>
        <time>2021-08-19T15:19:15Z</time>
      </trkpt>
      <trkpt lat="43.29873" lon="0.00607">
        <ele>310.16</ele>
        <time>2021-08-19T15:19:23Z</time>
      </trkpt>
      <trkpt lat="43.29865" lon="0.00606">
        <ele>311.12</ele>
        <time>2021-08-19T15:19:33Z</time>
      </trkpt>
      <trkpt lat="43.29859" lon="0.00604">
        <ele>312.09</ele>
        <time>2021-08-19T15:19:40Z</time>
      </trkpt>
      <trkpt lat="43.29845" lon="0.00598">
        <ele>313.05</ele>
        <time>2021-08-19T15:19:48Z</time>
      </trkpt>
      <trkpt lat="43.29842" lon="0.006">
        <ele>313.53</ele>
        <time>2021-08-19T15:19:57Z</time>
      </trkpt>
      <trkpt lat="43.29842" lon="0.00596">
        <ele>313.53</ele>
        <time>2021-08-19T15:20:05Z</time>
      </trkpt>
      <trkpt lat="43.29843" lon="0.00596">
        <ele>313.53</ele>
        <time>2021-08-19T15:20:06Z</time>
      </trkpt>
      <trkpt lat="43.29844" lon="0.00596">
        <ele>313.53</ele>
        <time>2021-08-19T15:20:07Z</time>
      </trkpt>
      <trkpt lat="43.29845" lon="0.00595">
        <ele>312.09</ele>
        <time>2021-08-19T15:20:08Z</time>
      </trkpt>
      <trkpt lat="43.29846" lon="0.00594">
        <ele>312.09</ele>
        <time>2021-08-19T15:20:09Z</time>
      </trkpt>
      <trkpt lat="43.29846" lon="0.00591">
        <ele>311.12</ele>
        <time>2021-08-19T15:20:10Z</time>
      </trkpt>
      <trkpt lat="43.29845" lon="0.00589">
        <ele>311.12</ele>
        <time>2021-08-19T15:20:11Z</time>
      </trkpt>
      <trkpt lat="43.29844" lon="0.00587">
        <ele>310.64</ele>
        <time>2021-08-19T15:20:12Z</time>
      </trkpt>
      <trkpt lat="43.29828" lon="0.00573">
        <ele>309.2</ele>
        <time>2021-08-19T15:20:19Z</time>
      </trkpt>
      <trkpt lat="43.29814" lon="0.00568">
        <ele>306.8</ele>
        <time>2021-08-19T15:20:23Z</time>
      </trkpt>
      <trkpt lat="43.29783" lon="0.00561">
        <ele>303.43</ele>
        <time>2021-08-19T15:20:28Z</time>
      </trkpt>
      <trkpt lat="43.29753" lon="0.00556">
        <ele>300.07</ele>
        <time>2021-08-19T15:20:32Z</time>
      </trkpt>
      <trkpt lat="43.29744" lon="0.00555">
        <ele>300.07</ele>
        <time>2021-08-19T15:20:33Z</time>
      </trkpt>
      <trkpt lat="43.29723" lon="0.00554">
        <ele>299.59</ele>
        <time>2021-08-19T15:20:36Z</time>
      </trkpt>
      <trkpt lat="43.29717" lon="0.00555">
        <ele>299.59</ele>
        <time>2021-08-19T15:20:37Z</time>
      </trkpt>
      <trkpt lat="43.29713" lon="0.00557">
        <ele>301.03</ele>
        <time>2021-08-19T15:20:38Z</time>
      </trkpt>
      <trkpt lat="43.29711" lon="0.00559">
        <ele>301.51</ele>
        <time>2021-08-19T15:20:39Z</time>
      </trkpt>
      <trkpt lat="43.2971" lon="0.00561">
        <ele>301.99</ele>
        <time>2021-08-19T15:20:40Z</time>
      </trkpt>
      <trkpt lat="43.29709" lon="0.00562">
        <ele>301.99</ele>
        <time>2021-08-19T15:20:41Z</time>
      </trkpt>
      <trkpt lat="43.29708" lon="0.00563">
        <ele>301.99</ele>
        <time>2021-08-19T15:20:42Z</time>
      </trkpt>
      <trkpt lat="43.29707" lon="0.00564">
        <ele>302.95</ele>
        <time>2021-08-19T15:20:43Z</time>
      </trkpt>
      <trkpt lat="43.29706" lon="0.00566">
        <ele>302.95</ele>
        <time>2021-08-19T15:20:44Z</time>
      </trkpt>
      <trkpt lat="43.29704" lon="0.00568">
        <ele>303.91</ele>
        <time>2021-08-19T15:20:49Z</time>
      </trkpt>
      <trkpt lat="43.29701" lon="0.00575">
        <ele>305.36</ele>
        <time>2021-08-19T15:20:58Z</time>
      </trkpt>
      <trkpt lat="43.29701" lon="0.0058">
        <ele>306.8</ele>
        <time>2021-08-19T15:21:07Z</time>
      </trkpt>
      <trkpt lat="43.297" lon="0.00586">
        <ele>307.76</ele>
        <time>2021-08-19T15:21:12Z</time>
      </trkpt>
      <trkpt lat="43.29699" lon="0.00593">
        <ele>308.72</ele>
        <time>2021-08-19T15:21:18Z</time>
      </trkpt>
      <trkpt lat="43.29695" lon="0.00599">
        <ele>309.2</ele>
        <time>2021-08-19T15:21:25Z</time>
      </trkpt>
      <trkpt lat="43.29691" lon="0.006">
        <ele>309.68</ele>
        <time>2021-08-19T15:21:31Z</time>
      </trkpt>
      <trkpt lat="43.29681" lon="0.00604">
        <ele>309.68</ele>
        <time>2021-08-19T15:21:37Z</time>
      </trkpt>
      <trkpt lat="43.29666" lon="0.006">
        <ele>311.12</ele>
        <time>2021-08-19T15:21:45Z</time>
      </trkpt>
      <trkpt lat="43.29654" lon="0.00596">
        <ele>311.12</ele>
        <time>2021-08-19T15:21:52Z</time>
      </trkpt>
      <trkpt lat="43.29637" lon="0.00593">
        <ele>311.6</ele>
        <time>2021-08-19T15:21:58Z</time>
      </trkpt>
      <trkpt lat="43.29619" lon="0.00587">
        <ele>310.16</ele>
        <time>2021-08-19T15:22:04Z</time>
      </trkpt>
      <trkpt lat="43.29598" lon="0.00574">
        <ele>309.68</ele>
        <time>2021-08-19T15:22:09Z</time>
      </trkpt>
      <trkpt lat="43.29573" lon="0.00564">
        <ele>309.2</ele>
        <time>2021-08-19T15:22:15Z</time>
      </trkpt>
      <trkpt lat="43.2955" lon="0.00557">
        <ele>308.24</ele>
        <time>2021-08-19T15:22:20Z</time>
      </trkpt>
      <trkpt lat="43.29545" lon="0.00554">
        <ele>308.24</ele>
        <time>2021-08-19T15:22:21Z</time>
      </trkpt>
      <trkpt lat="43.2954" lon="0.00552">
        <ele>310.16</ele>
        <time>2021-08-19T15:22:24Z</time>
      </trkpt>
      <trkpt lat="43.29526" lon="0.00551">
        <ele>312.09</ele>
        <time>2021-08-19T15:22:30Z</time>
      </trkpt>
      <trkpt lat="43.29524" lon="0.00551">
        <ele>312.09</ele>
        <time>2021-08-19T15:22:31Z</time>
      </trkpt>
      <trkpt lat="43.29522" lon="0.00553">
        <ele>312.09</ele>
        <time>2021-08-19T15:22:32Z</time>
      </trkpt>
      <trkpt lat="43.29517" lon="0.00556">
        <ele>313.53</ele>
        <time>2021-08-19T15:22:37Z</time>
      </trkpt>
      <trkpt lat="43.29515" lon="0.00556">
        <ele>313.53</ele>
        <time>2021-08-19T15:22:38Z</time>
      </trkpt>
      <trkpt lat="43.29503" lon="0.00555">
        <ele>314.97</ele>
        <time>2021-08-19T15:22:45Z</time>
      </trkpt>
      <trkpt lat="43.29488" lon="0.00553">
        <ele>315.93</ele>
        <time>2021-08-19T15:22:52Z</time>
      </trkpt>
      <trkpt lat="43.29469" lon="0.00553">
        <ele>313.53</ele>
        <time>2021-08-19T15:23:00Z</time>
      </trkpt>
      <trkpt lat="43.29459" lon="0.00553">
        <ele>313.05</ele>
        <time>2021-08-19T15:23:02Z</time>
      </trkpt>
      <trkpt lat="43.29449" lon="0.00555">
        <ele>313.05</ele>
        <time>2021-08-19T15:23:04Z</time>
      </trkpt>
      <trkpt lat="43.29445" lon="0.00557">
        <ele>314.49</ele>
        <time>2021-08-19T15:23:05Z</time>
      </trkpt>
      <trkpt lat="43.29443" lon="0.00559">
        <ele>314.97</ele>
        <time>2021-08-19T15:23:06Z</time>
      </trkpt>
      <trkpt lat="43.2944" lon="0.00559">
        <ele>314.97</ele>
        <time>2021-08-19T15:23:07Z</time>
      </trkpt>
      <trkpt lat="43.29438" lon="0.0056">
        <ele>315.45</ele>
        <time>2021-08-19T15:23:08Z</time>
      </trkpt>
      <trkpt lat="43.29436" lon="0.0056">
        <ele>315.45</ele>
        <time>2021-08-19T15:23:09Z</time>
      </trkpt>
      <trkpt lat="43.29433" lon="0.00561">
        <ele>315.93</ele>
        <time>2021-08-19T15:23:10Z</time>
      </trkpt>
      <trkpt lat="43.29431" lon="0.00562">
        <ele>315.93</ele>
        <time>2021-08-19T15:23:11Z</time>
      </trkpt>
      <trkpt lat="43.29429" lon="0.00563">
        <ele>315.93</ele>
        <time>2021-08-19T15:23:12Z</time>
      </trkpt>
      <trkpt lat="43.29427" lon="0.00563">
        <ele>316.41</ele>
        <time>2021-08-19T15:23:13Z</time>
      </trkpt>
      <trkpt lat="43.29426" lon="0.00564">
        <ele>316.41</ele>
        <time>2021-08-19T15:23:14Z</time>
      </trkpt>
      <trkpt lat="43.29424" lon="0.00565">
        <ele>316.41</ele>
        <time>2021-08-19T15:23:15Z</time>
      </trkpt>
      <trkpt lat="43.29417" lon="0.00572">
        <ele>317.37</ele>
        <time>2021-08-19T15:23:20Z</time>
      </trkpt>
      <trkpt lat="43.29406" lon="0.00582">
        <ele>319.78</ele>
        <time>2021-08-19T15:23:30Z</time>
      </trkpt>
      <trkpt lat="43.29398" lon="0.00587">
        <ele>320.74</ele>
        <time>2021-08-19T15:23:38Z</time>
      </trkpt>
      <trkpt lat="43.29388" lon="0.00594">
        <ele>322.18</ele>
        <time>2021-08-19T15:23:46Z</time>
      </trkpt>
      <trkpt lat="43.2938" lon="0.00598">
        <ele>323.62</ele>
        <time>2021-08-19T15:23:53Z</time>
      </trkpt>
      <trkpt lat="43.29372" lon="0.00603">
        <ele>324.58</ele>
        <time>2021-08-19T15:23:59Z</time>
      </trkpt>
      <trkpt lat="43.29363" lon="0.0061">
        <ele>326.5</ele>
        <time>2021-08-19T15:24:07Z</time>
      </trkpt>
      <trkpt lat="43.29354" lon="0.00616">
        <ele>327.47</ele>
        <time>2021-08-19T15:24:14Z</time>
      </trkpt>
      <trkpt lat="43.29347" lon="0.00622">
        <ele>328.91</ele>
        <time>2021-08-19T15:24:20Z</time>
      </trkpt>
      <trkpt lat="43.29336" lon="0.00635">
        <ele>329.87</ele>
        <time>2021-08-19T15:24:28Z</time>
      </trkpt>
      <trkpt lat="43.2933" lon="0.00645">
        <ele>331.31</ele>
        <time>2021-08-19T15:24:35Z</time>
      </trkpt>
      <trkpt lat="43.29326" lon="0.00654">
        <ele>332.27</ele>
        <time>2021-08-19T15:24:41Z</time>
      </trkpt>
      <trkpt lat="43.29324" lon="0.00658">
        <ele>332.75</ele>
        <time>2021-08-19T15:24:43Z</time>
      </trkpt>
      <trkpt lat="43.29321" lon="0.00663">
        <ele>333.23</ele>
        <time>2021-08-19T15:24:46Z</time>
      </trkpt>
      <trkpt lat="43.29319" lon="0.00668">
        <ele>333.71</ele>
        <time>2021-08-19T15:24:48Z</time>
      </trkpt>
      <trkpt lat="43.29317" lon="0.00672">
        <ele>333.71</ele>
        <time>2021-08-19T15:24:50Z</time>
      </trkpt>
      <trkpt lat="43.29314" lon="0.00682">
        <ele>335.16</ele>
        <time>2021-08-19T15:24:56Z</time>
      </trkpt>
      <trkpt lat="43.2931" lon="0.00694">
        <ele>337.56</ele>
        <time>2021-08-19T15:25:03Z</time>
      </trkpt>
      <trkpt lat="43.29308" lon="0.00703">
        <ele>338.04</ele>
        <time>2021-08-19T15:25:10Z</time>
      </trkpt>
      <trkpt lat="43.29306" lon="0.00715">
        <ele>341.41</ele>
        <time>2021-08-19T15:25:18Z</time>
      </trkpt>
      <trkpt lat="43.29304" lon="0.00733">
        <ele>339.96</ele>
        <time>2021-08-19T15:25:28Z</time>
      </trkpt>
      <trkpt lat="43.29304" lon="0.00735">
        <ele>341.41</ele>
        <time>2021-08-19T15:25:30Z</time>
      </trkpt>
      <trkpt lat="43.29304" lon="0.00748">
        <ele>342.85</ele>
        <time>2021-08-19T15:25:40Z</time>
      </trkpt>
      <trkpt lat="43.29304" lon="0.00756">
        <ele>343.33</ele>
        <time>2021-08-19T15:25:47Z</time>
      </trkpt>
      <trkpt lat="43.29302" lon="0.00767">
        <ele>344.77</ele>
        <time>2021-08-19T15:25:55Z</time>
      </trkpt>
      <trkpt lat="43.29301" lon="0.00777">
        <ele>345.73</ele>
        <time>2021-08-19T15:26:03Z</time>
      </trkpt>
      <trkpt lat="43.29298" lon="0.00789">
        <ele>347.65</ele>
        <time>2021-08-19T15:26:12Z</time>
      </trkpt>
      <trkpt lat="43.29298" lon="0.00799">
        <ele>351.02</ele>
        <time>2021-08-19T15:26:21Z</time>
      </trkpt>
      <trkpt lat="43.29295" lon="0.00812">
        <ele>349.1</ele>
        <time>2021-08-19T15:26:32Z</time>
      </trkpt>
      <trkpt lat="43.29295" lon="0.00817">
        <ele>350.54</ele>
        <time>2021-08-19T15:26:35Z</time>
      </trkpt>
      <trkpt lat="43.29295" lon="0.00829">
        <ele>351.5</ele>
        <time>2021-08-19T15:26:42Z</time>
      </trkpt>
      <trkpt lat="43.29295" lon="0.00841">
        <ele>352.46</ele>
        <time>2021-08-19T15:26:51Z</time>
      </trkpt>
      <trkpt lat="43.29296" lon="0.00855">
        <ele>354.38</ele>
        <time>2021-08-19T15:27:01Z</time>
      </trkpt>
      <trkpt lat="43.29296" lon="0.00864">
        <ele>354.86</ele>
        <time>2021-08-19T15:27:08Z</time>
      </trkpt>
      <trkpt lat="43.29296" lon="0.00875">
        <ele>356.31</ele>
        <time>2021-08-19T15:27:17Z</time>
      </trkpt>
      <trkpt lat="43.29295" lon="0.00882">
        <ele>357.27</ele>
        <time>2021-08-19T15:27:25Z</time>
      </trkpt>
      <trkpt lat="43.29291" lon="0.00892">
        <ele>358.71</ele>
        <time>2021-08-19T15:27:34Z</time>
      </trkpt>
      <trkpt lat="43.2929" lon="0.00901">
        <ele>359.19</ele>
        <time>2021-08-19T15:27:41Z</time>
      </trkpt>
      <trkpt lat="43.29287" lon="0.00911">
        <ele>359.67</ele>
        <time>2021-08-19T15:27:48Z</time>
      </trkpt>
      <trkpt lat="43.29283" lon="0.00921">
        <ele>359.67</ele>
        <time>2021-08-19T15:27:56Z</time>
      </trkpt>
      <trkpt lat="43.29278" lon="0.00941">
        <ele>360.63</ele>
        <time>2021-08-19T15:28:03Z</time>
      </trkpt>
      <trkpt lat="43.29275" lon="0.00957">
        <ele>361.59</ele>
        <time>2021-08-19T15:28:08Z</time>
      </trkpt>
      <trkpt lat="43.29275" lon="0.00961">
        <ele>361.59</ele>
        <time>2021-08-19T15:28:09Z</time>
      </trkpt>
      <trkpt lat="43.2927" lon="0.00991">
        <ele>362.07</ele>
        <time>2021-08-19T15:28:17Z</time>
      </trkpt>
      <trkpt lat="43.29262" lon="0.01011">
        <ele>362.07</ele>
        <time>2021-08-19T15:28:23Z</time>
      </trkpt>
      <trkpt lat="43.29256" lon="0.01017">
        <ele>362.07</ele>
        <time>2021-08-19T15:28:25Z</time>
      </trkpt>
      <trkpt lat="43.29254" lon="0.01018">
        <ele>362.07</ele>
        <time>2021-08-19T15:28:26Z</time>
      </trkpt>
      <trkpt lat="43.29251" lon="0.01019">
        <ele>362.07</ele>
        <time>2021-08-19T15:28:27Z</time>
      </trkpt>
      <trkpt lat="43.29229" lon="0.01023">
        <ele>363.52</ele>
        <time>2021-08-19T15:28:36Z</time>
      </trkpt>
      <trkpt lat="43.29213" lon="0.01023">
        <ele>364.48</ele>
        <time>2021-08-19T15:28:44Z</time>
      </trkpt>
      <trkpt lat="43.29199" lon="0.0102">
        <ele>365.92</ele>
        <time>2021-08-19T15:28:51Z</time>
      </trkpt>
      <trkpt lat="43.29184" lon="0.01018">
        <ele>366.88</ele>
        <time>2021-08-19T15:28:58Z</time>
      </trkpt>
      <trkpt lat="43.29164" lon="0.01013">
        <ele>367.84</ele>
        <time>2021-08-19T15:29:06Z</time>
      </trkpt>
      <trkpt lat="43.29144" lon="0.01001">
        <ele>367.84</ele>
        <time>2021-08-19T15:29:13Z</time>
      </trkpt>
      <trkpt lat="43.29134" lon="0.00994">
        <ele>367.84</ele>
        <time>2021-08-19T15:29:16Z</time>
      </trkpt>
      <trkpt lat="43.2913" lon="0.00992">
        <ele>367.84</ele>
        <time>2021-08-19T15:29:17Z</time>
      </trkpt>
      <trkpt lat="43.2911" lon="0.00973">
        <ele>367.84</ele>
        <time>2021-08-19T15:29:24Z</time>
      </trkpt>
      <trkpt lat="43.2909" lon="0.00958">
        <ele>370.24</ele>
        <time>2021-08-19T15:29:34Z</time>
      </trkpt>
      <trkpt lat="43.29077" lon="0.00946">
        <ele>371.21</ele>
        <time>2021-08-19T15:29:43Z</time>
      </trkpt>
      <trkpt lat="43.29064" lon="0.00933">
        <ele>372.65</ele>
        <time>2021-08-19T15:29:50Z</time>
      </trkpt>
      <trkpt lat="43.29046" lon="0.00918">
        <ele>373.61</ele>
        <time>2021-08-19T15:29:58Z</time>
      </trkpt>
      <trkpt lat="43.29028" lon="0.00903">
        <ele>374.57</ele>
        <time>2021-08-19T15:30:06Z</time>
      </trkpt>
      <trkpt lat="43.29009" lon="0.00886">
        <ele>376.01</ele>
        <time>2021-08-19T15:30:15Z</time>
      </trkpt>
      <trkpt lat="43.28994" lon="0.00874">
        <ele>376.97</ele>
        <time>2021-08-19T15:30:23Z</time>
      </trkpt>
      <trkpt lat="43.2898" lon="0.00861">
        <ele>376.97</ele>
        <time>2021-08-19T15:30:29Z</time>
      </trkpt>
      <trkpt lat="43.28973" lon="0.00852">
        <ele>375.53</ele>
        <time>2021-08-19T15:30:32Z</time>
      </trkpt>
      <trkpt lat="43.28961" lon="0.00843">
        <ele>375.05</ele>
        <time>2021-08-19T15:30:35Z</time>
      </trkpt>
      <trkpt lat="43.28953" lon="0.00837">
        <ele>374.57</ele>
        <time>2021-08-19T15:30:37Z</time>
      </trkpt>
      <trkpt lat="43.28903" lon="0.00808">
        <ele>372.17</ele>
        <time>2021-08-19T15:30:44Z</time>
      </trkpt>
      <trkpt lat="43.28855" lon="0.00788">
        <ele>371.21</ele>
        <time>2021-08-19T15:30:51Z</time>
      </trkpt>
      <trkpt lat="43.28849" lon="0.00787">
        <ele>371.21</ele>
        <time>2021-08-19T15:30:52Z</time>
      </trkpt>
      <trkpt lat="43.28842" lon="0.00785">
        <ele>370.73</ele>
        <time>2021-08-19T15:30:53Z</time>
      </trkpt>
      <trkpt lat="43.28835" lon="0.00784">
        <ele>370.73</ele>
        <time>2021-08-19T15:30:54Z</time>
      </trkpt>
      <trkpt lat="43.28829" lon="0.00781">
        <ele>370.24</ele>
        <time>2021-08-19T15:30:55Z</time>
      </trkpt>
      <trkpt lat="43.28823" lon="0.00779">
        <ele>370.24</ele>
        <time>2021-08-19T15:30:56Z</time>
      </trkpt>
      <trkpt lat="43.28776" lon="0.00761">
        <ele>370.24</ele>
        <time>2021-08-19T15:31:05Z</time>
      </trkpt>
      <trkpt lat="43.28761" lon="0.00755">
        <ele>371.69</ele>
        <time>2021-08-19T15:31:09Z</time>
      </trkpt>
      <trkpt lat="43.28735" lon="0.00747">
        <ele>372.17</ele>
        <time>2021-08-19T15:31:16Z</time>
      </trkpt>
      <trkpt lat="43.28704" lon="0.00737">
        <ele>373.61</ele>
        <time>2021-08-19T15:31:24Z</time>
      </trkpt>
      <trkpt lat="43.28678" lon="0.00728">
        <ele>374.09</ele>
        <time>2021-08-19T15:31:31Z</time>
      </trkpt>
      <trkpt lat="43.28653" lon="0.00718">
        <ele>375.05</ele>
        <time>2021-08-19T15:31:38Z</time>
      </trkpt>
      <trkpt lat="43.28626" lon="0.00709">
        <ele>375.53</ele>
        <time>2021-08-19T15:31:45Z</time>
      </trkpt>
      <trkpt lat="43.28595" lon="0.00697">
        <ele>375.53</ele>
        <time>2021-08-19T15:31:53Z</time>
      </trkpt>
      <trkpt lat="43.28573" lon="0.00692">
        <ele>375.53</ele>
        <time>2021-08-19T15:32:00Z</time>
      </trkpt>
      <trkpt lat="43.28569" lon="0.00692">
        <ele>375.53</ele>
        <time>2021-08-19T15:32:06Z</time>
      </trkpt>
      <trkpt lat="43.28563" lon="0.00693">
        <ele>375.53</ele>
        <time>2021-08-19T15:32:26Z</time>
      </trkpt>
      <trkpt lat="43.28561" lon="0.00693">
        <ele>375.53</ele>
        <time>2021-08-19T15:32:27Z</time>
      </trkpt>
      <trkpt lat="43.28559" lon="0.00692">
        <ele>375.53</ele>
        <time>2021-08-19T15:32:28Z</time>
      </trkpt>
      <trkpt lat="43.28542" lon="0.00689">
        <ele>375.53</ele>
        <time>2021-08-19T15:32:33Z</time>
      </trkpt>
      <trkpt lat="43.28537" lon="0.00688">
        <ele>375.53</ele>
        <time>2021-08-19T15:32:34Z</time>
      </trkpt>
      <trkpt lat="43.28532" lon="0.00688">
        <ele>375.53</ele>
        <time>2021-08-19T15:32:35Z</time>
      </trkpt>
      <trkpt lat="43.28528" lon="0.00689">
        <ele>375.53</ele>
        <time>2021-08-19T15:32:36Z</time>
      </trkpt>
      <trkpt lat="43.28524" lon="0.0069">
        <ele>374.09</ele>
        <time>2021-08-19T15:32:37Z</time>
      </trkpt>
      <trkpt lat="43.2852" lon="0.00692">
        <ele>374.09</ele>
        <time>2021-08-19T15:32:38Z</time>
      </trkpt>
      <trkpt lat="43.28516" lon="0.00695">
        <ele>374.09</ele>
        <time>2021-08-19T15:32:39Z</time>
      </trkpt>
      <trkpt lat="43.28485" lon="0.00717">
        <ele>373.61</ele>
        <time>2021-08-19T15:32:47Z</time>
      </trkpt>
      <trkpt lat="43.28457" lon="0.00717">
        <ele>375.05</ele>
        <time>2021-08-19T15:32:54Z</time>
      </trkpt>
      <trkpt lat="43.28432" lon="0.00707">
        <ele>376.97</ele>
        <time>2021-08-19T15:33:01Z</time>
      </trkpt>
      <trkpt lat="43.28408" lon="0.00688">
        <ele>377.94</ele>
        <time>2021-08-19T15:33:10Z</time>
      </trkpt>
      <trkpt lat="43.28392" lon="0.00673">
        <ele>378.9</ele>
        <time>2021-08-19T15:33:16Z</time>
      </trkpt>
      <trkpt lat="43.28362" lon="0.00648">
        <ele>379.86</ele>
        <time>2021-08-19T15:33:27Z</time>
      </trkpt>
      <trkpt lat="43.2834" lon="0.00625">
        <ele>380.34</ele>
        <time>2021-08-19T15:33:35Z</time>
      </trkpt>
      <trkpt lat="43.28317" lon="0.00605">
        <ele>380.82</ele>
        <time>2021-08-19T15:33:42Z</time>
      </trkpt>
      <trkpt lat="43.28292" lon="0.00584">
        <ele>380.82</ele>
        <time>2021-08-19T15:33:49Z</time>
      </trkpt>
      <trkpt lat="43.28288" lon="0.00581">
        <ele>380.82</ele>
        <time>2021-08-19T15:33:50Z</time>
      </trkpt>
      <trkpt lat="43.28285" lon="0.00579">
        <ele>380.82</ele>
        <time>2021-08-19T15:33:51Z</time>
      </trkpt>
      <trkpt lat="43.28282" lon="0.00577">
        <ele>380.82</ele>
        <time>2021-08-19T15:33:52Z</time>
      </trkpt>
      <trkpt lat="43.28278" lon="0.00576">
        <ele>380.82</ele>
        <time>2021-08-19T15:33:53Z</time>
      </trkpt>
      <trkpt lat="43.28275" lon="0.00574">
        <ele>380.82</ele>
        <time>2021-08-19T15:33:54Z</time>
      </trkpt>
      <trkpt lat="43.2827" lon="0.00572">
        <ele>380.82</ele>
        <time>2021-08-19T15:33:55Z</time>
      </trkpt>
      <trkpt lat="43.28267" lon="0.00571">
        <ele>380.82</ele>
        <time>2021-08-19T15:33:56Z</time>
      </trkpt>
      <trkpt lat="43.28245" lon="0.00565">
        <ele>380.82</ele>
        <time>2021-08-19T15:34:02Z</time>
      </trkpt>
      <trkpt lat="43.28218" lon="0.00554">
        <ele>377.94</ele>
        <time>2021-08-19T15:34:08Z</time>
      </trkpt>
      <trkpt lat="43.28208" lon="0.00547">
        <ele>376.97</ele>
        <time>2021-08-19T15:34:10Z</time>
      </trkpt>
      <trkpt lat="43.28178" lon="0.00516">
        <ele>376.97</ele>
        <time>2021-08-19T15:34:16Z</time>
      </trkpt>
      <trkpt lat="43.28169" lon="0.00506">
        <ele>376.97</ele>
        <time>2021-08-19T15:34:18Z</time>
      </trkpt>
      <trkpt lat="43.28166" lon="0.00501">
        <ele>376.97</ele>
        <time>2021-08-19T15:34:19Z</time>
      </trkpt>
      <trkpt lat="43.28163" lon="0.00497">
        <ele>376.97</ele>
        <time>2021-08-19T15:34:20Z</time>
      </trkpt>
      <trkpt lat="43.28162" lon="0.00492">
        <ele>376.97</ele>
        <time>2021-08-19T15:34:21Z</time>
      </trkpt>
      <trkpt lat="43.28163" lon="0.00487">
        <ele>376.97</ele>
        <time>2021-08-19T15:34:22Z</time>
      </trkpt>
      <trkpt lat="43.28164" lon="0.00483">
        <ele>376.97</ele>
        <time>2021-08-19T15:34:23Z</time>
      </trkpt>
      <trkpt lat="43.28165" lon="0.00481">
        <ele>376.97</ele>
        <time>2021-08-19T15:34:24Z</time>
      </trkpt>
      <trkpt lat="43.28166" lon="0.00477">
        <ele>376.97</ele>
        <time>2021-08-19T15:34:25Z</time>
      </trkpt>
      <trkpt lat="43.28167" lon="0.00474">
        <ele>376.97</ele>
        <time>2021-08-19T15:34:26Z</time>
      </trkpt>
      <trkpt lat="43.28167" lon="0.0047">
        <ele>376.97</ele>
        <time>2021-08-19T15:34:27Z</time>
      </trkpt>
      <trkpt lat="43.28169" lon="0.00466">
        <ele>376.97</ele>
        <time>2021-08-19T15:34:28Z</time>
      </trkpt>
      <trkpt lat="43.28171" lon="0.00462">
        <ele>376.97</ele>
        <time>2021-08-19T15:34:29Z</time>
      </trkpt>
      <trkpt lat="43.28177" lon="0.00436">
        <ele>376.49</ele>
        <time>2021-08-19T15:34:34Z</time>
      </trkpt>
      <trkpt lat="43.28174" lon="0.00431">
        <ele>375.53</ele>
        <time>2021-08-19T15:34:35Z</time>
      </trkpt>
      <trkpt lat="43.28171" lon="0.0043">
        <ele>375.05</ele>
        <time>2021-08-19T15:34:36Z</time>
      </trkpt>
      <trkpt lat="43.28168" lon="0.00429">
        <ele>375.05</ele>
        <time>2021-08-19T15:34:37Z</time>
      </trkpt>
      <trkpt lat="43.28165" lon="0.0043">
        <ele>375.05</ele>
        <time>2021-08-19T15:34:38Z</time>
      </trkpt>
      <trkpt lat="43.28162" lon="0.00431">
        <ele>375.05</ele>
        <time>2021-08-19T15:34:39Z</time>
      </trkpt>
      <trkpt lat="43.28159" lon="0.00432">
        <ele>375.05</ele>
        <time>2021-08-19T15:34:40Z</time>
      </trkpt>
      <trkpt lat="43.28157" lon="0.00434">
        <ele>375.05</ele>
        <time>2021-08-19T15:34:41Z</time>
      </trkpt>
      <trkpt lat="43.28153" lon="0.00436">
        <ele>376.49</ele>
        <time>2021-08-19T15:34:43Z</time>
      </trkpt>
      <trkpt lat="43.28131" lon="0.0045">
        <ele>378.42</ele>
        <time>2021-08-19T15:34:51Z</time>
      </trkpt>
      <trkpt lat="43.28101" lon="0.00464">
        <ele>379.38</ele>
        <time>2021-08-19T15:35:01Z</time>
      </trkpt>
      <trkpt lat="43.28065" lon="0.00476">
        <ele>380.82</ele>
        <time>2021-08-19T15:35:12Z</time>
      </trkpt>
      <trkpt lat="43.2804" lon="0.00488">
        <ele>381.78</ele>
        <time>2021-08-19T15:35:20Z</time>
      </trkpt>
      <trkpt lat="43.28017" lon="0.00507">
        <ele>382.26</ele>
        <time>2021-08-19T15:35:28Z</time>
      </trkpt>
      <trkpt lat="43.27999" lon="0.00528">
        <ele>382.74</ele>
        <time>2021-08-19T15:35:35Z</time>
      </trkpt>
      <trkpt lat="43.27984" lon="0.00542">
        <ele>384.18</ele>
        <time>2021-08-19T15:35:41Z</time>
      </trkpt>
      <trkpt lat="43.27969" lon="0.0054">
        <ele>384.66</ele>
        <time>2021-08-19T15:35:46Z</time>
      </trkpt>
      <trkpt lat="43.2794" lon="0.00528">
        <ele>384.66</ele>
        <time>2021-08-19T15:35:53Z</time>
      </trkpt>
      <trkpt lat="43.27911" lon="0.00516">
        <ele>384.66</ele>
        <time>2021-08-19T15:35:59Z</time>
      </trkpt>
      <trkpt lat="43.27897" lon="0.0051">
        <ele>384.66</ele>
        <time>2021-08-19T15:36:02Z</time>
      </trkpt>
      <trkpt lat="43.2788" lon="0.00502">
        <ele>384.66</ele>
        <time>2021-08-19T15:36:06Z</time>
      </trkpt>
      <trkpt lat="43.27876" lon="0.005">
        <ele>384.66</ele>
        <time>2021-08-19T15:36:07Z</time>
      </trkpt>
      <trkpt lat="43.27857" lon="0.00493">
        <ele>384.66</ele>
        <time>2021-08-19T15:36:12Z</time>
      </trkpt>
      <trkpt lat="43.27818" lon="0.00478">
        <ele>384.66</ele>
        <time>2021-08-19T15:36:20Z</time>
      </trkpt>
      <trkpt lat="43.27778" lon="0.00461">
        <ele>384.66</ele>
        <time>2021-08-19T15:36:29Z</time>
      </trkpt>
      <trkpt lat="43.27754" lon="0.00452">
        <ele>384.66</ele>
        <time>2021-08-19T15:36:34Z</time>
      </trkpt>
      <trkpt lat="43.27745" lon="0.00451">
        <ele>384.66</ele>
        <time>2021-08-19T15:36:36Z</time>
      </trkpt>
      <trkpt lat="43.27741" lon="0.00448">
        <ele>384.66</ele>
        <time>2021-08-19T15:36:37Z</time>
      </trkpt>
      <trkpt lat="43.27737" lon="0.00446">
        <ele>384.66</ele>
        <time>2021-08-19T15:36:38Z</time>
      </trkpt>
      <trkpt lat="43.27732" lon="0.00443">
        <ele>384.66</ele>
        <time>2021-08-19T15:36:39Z</time>
      </trkpt>
      <trkpt lat="43.27728" lon="0.0044">
        <ele>384.66</ele>
        <time>2021-08-19T15:36:40Z</time>
      </trkpt>
      <trkpt lat="43.27723" lon="0.00438">
        <ele>384.66</ele>
        <time>2021-08-19T15:36:41Z</time>
      </trkpt>
      <trkpt lat="43.27694" lon="0.00427">
        <ele>384.66</ele>
        <time>2021-08-19T15:36:48Z</time>
      </trkpt>
      <trkpt lat="43.27671" lon="0.0042">
        <ele>384.66</ele>
        <time>2021-08-19T15:36:54Z</time>
      </trkpt>
      <trkpt lat="43.27644" lon="0.00408">
        <ele>384.66</ele>
        <time>2021-08-19T15:37:00Z</time>
      </trkpt>
      <trkpt lat="43.27639" lon="0.00406">
        <ele>384.66</ele>
        <time>2021-08-19T15:37:01Z</time>
      </trkpt>
      <trkpt lat="43.27606" lon="0.00393">
        <ele>384.66</ele>
        <time>2021-08-19T15:37:08Z</time>
      </trkpt>
      <trkpt lat="43.27566" lon="0.00376">
        <ele>384.66</ele>
        <time>2021-08-19T15:37:16Z</time>
      </trkpt>
      <trkpt lat="43.27558" lon="0.00371">
        <ele>384.66</ele>
        <time>2021-08-19T15:37:18Z</time>
      </trkpt>
      <trkpt lat="43.27521" lon="0.00356">
        <ele>384.66</ele>
        <time>2021-08-19T15:37:26Z</time>
      </trkpt>
      <trkpt lat="43.27479" lon="0.00339">
        <ele>384.66</ele>
        <time>2021-08-19T15:37:35Z</time>
      </trkpt>
      <trkpt lat="43.27431" lon="0.00318">
        <ele>384.66</ele>
        <time>2021-08-19T15:37:45Z</time>
      </trkpt>
      <trkpt lat="43.27378" lon="0.00295">
        <ele>384.66</ele>
        <time>2021-08-19T15:37:56Z</time>
      </trkpt>
      <trkpt lat="43.2734" lon="0.0028">
        <ele>384.66</ele>
        <time>2021-08-19T15:38:04Z</time>
      </trkpt>
      <trkpt lat="43.27303" lon="0.00263">
        <ele>385.15</ele>
        <time>2021-08-19T15:38:12Z</time>
      </trkpt>
      <trkpt lat="43.27264" lon="0.00248">
        <ele>385.15</ele>
        <time>2021-08-19T15:38:20Z</time>
      </trkpt>
      <trkpt lat="43.2726" lon="0.00246">
        <ele>385.15</ele>
        <time>2021-08-19T15:38:21Z</time>
      </trkpt>
      <trkpt lat="43.27255" lon="0.00244">
        <ele>385.15</ele>
        <time>2021-08-19T15:38:22Z</time>
      </trkpt>
      <trkpt lat="43.2725" lon="0.00242">
        <ele>385.15</ele>
        <time>2021-08-19T15:38:23Z</time>
      </trkpt>
      <trkpt lat="43.27245" lon="0.0024">
        <ele>385.15</ele>
        <time>2021-08-19T15:38:24Z</time>
      </trkpt>
      <trkpt lat="43.2724" lon="0.00238">
        <ele>385.15</ele>
        <time>2021-08-19T15:38:25Z</time>
      </trkpt>
      <trkpt lat="43.27196" lon="0.00219">
        <ele>385.15</ele>
        <time>2021-08-19T15:38:34Z</time>
      </trkpt>
      <trkpt lat="43.2717" lon="0.00208">
        <ele>385.15</ele>
        <time>2021-08-19T15:38:40Z</time>
      </trkpt>
      <trkpt lat="43.27165" lon="0.00206">
        <ele>385.15</ele>
        <time>2021-08-19T15:38:41Z</time>
      </trkpt>
      <trkpt lat="43.27123" lon="0.00188">
        <ele>385.15</ele>
        <time>2021-08-19T15:38:50Z</time>
      </trkpt>
      <trkpt lat="43.27096" lon="0.00175">
        <ele>385.63</ele>
        <time>2021-08-19T15:38:56Z</time>
      </trkpt>
      <trkpt lat="43.27084" lon="0.00169">
        <ele>385.63</ele>
        <time>2021-08-19T15:38:59Z</time>
      </trkpt>
      <trkpt lat="43.27081" lon="0.00165">
        <ele>385.63</ele>
        <time>2021-08-19T15:39:00Z</time>
      </trkpt>
      <trkpt lat="43.27079" lon="0.00161">
        <ele>385.63</ele>
        <time>2021-08-19T15:39:01Z</time>
      </trkpt>
      <trkpt lat="43.2708" lon="0.00156">
        <ele>385.63</ele>
        <time>2021-08-19T15:39:02Z</time>
      </trkpt>
      <trkpt lat="43.27081" lon="0.00152">
        <ele>385.63</ele>
        <time>2021-08-19T15:39:03Z</time>
      </trkpt>
      <trkpt lat="43.27082" lon="0.00148">
        <ele>385.63</ele>
        <time>2021-08-19T15:39:04Z</time>
      </trkpt>
      <trkpt lat="43.27084" lon="0.00143">
        <ele>385.63</ele>
        <time>2021-08-19T15:39:05Z</time>
      </trkpt>
      <trkpt lat="43.27089" lon="0.00128">
        <ele>384.18</ele>
        <time>2021-08-19T15:39:08Z</time>
      </trkpt>
      <trkpt lat="43.27103" lon="0.00098">
        <ele>381.3</ele>
        <time>2021-08-19T15:39:15Z</time>
      </trkpt>
      <trkpt lat="43.27104" lon="0.00086">
        <ele>380.34</ele>
        <time>2021-08-19T15:39:17Z</time>
      </trkpt>
      <trkpt lat="43.27103" lon="0.0008">
        <ele>379.86</ele>
        <time>2021-08-19T15:39:18Z</time>
      </trkpt>
      <trkpt lat="43.271" lon="0.00073">
        <ele>379.86</ele>
        <time>2021-08-19T15:39:19Z</time>
      </trkpt>
      <trkpt lat="43.27088" lon="0.00049">
        <ele>378.9</ele>
        <time>2021-08-19T15:39:23Z</time>
      </trkpt>
      <trkpt lat="43.27084" lon="0.00043">
        <ele>378.9</ele>
        <time>2021-08-19T15:39:24Z</time>
      </trkpt>
      <trkpt lat="43.2707" lon="0.0002">
        <ele>378.42</ele>
        <time>2021-08-19T15:39:28Z</time>
      </trkpt>
      <trkpt lat="43.27067" lon="0.00015">
        <ele>378.42</ele>
        <time>2021-08-19T15:39:29Z</time>
      </trkpt>
      <trkpt lat="43.27063" lon="0.0001">
        <ele>378.42</ele>
        <time>2021-08-19T15:39:30Z</time>
      </trkpt>
      <trkpt lat="43.27056" lon="0">
        <ele>378.42</ele>
        <time>2021-08-19T15:39:32Z</time>
      </trkpt>
      <trkpt lat="43.27023" lon="-0.00032">
        <ele>378.42</ele>
        <time>2021-08-19T15:39:40Z</time>
      </trkpt>
      <trkpt lat="43.27018" lon="-0.00035">
        <ele>378.42</ele>
        <time>2021-08-19T15:39:41Z</time>
      </trkpt>
      <trkpt lat="43.26996" lon="-0.00048">
        <ele>378.42</ele>
        <time>2021-08-19T15:39:45Z</time>
      </trkpt>
      <trkpt lat="43.2699" lon="-0.00052">
        <ele>378.42</ele>
        <time>2021-08-19T15:39:46Z</time>
      </trkpt>
      <trkpt lat="43.26965" lon="-0.00066">
        <ele>377.94</ele>
        <time>2021-08-19T15:39:50Z</time>
      </trkpt>
      <trkpt lat="43.26952" lon="-0.00072">
        <ele>377.45</ele>
        <time>2021-08-19T15:39:52Z</time>
      </trkpt>
      <trkpt lat="43.26904" lon="-0.00094">
        <ele>375.53</ele>
        <time>2021-08-19T15:39:59Z</time>
      </trkpt>
      <trkpt lat="43.26865" lon="-0.00114">
        <ele>373.61</ele>
        <time>2021-08-19T15:40:05Z</time>
      </trkpt>
      <trkpt lat="43.26838" lon="-0.00132">
        <ele>371.21</ele>
        <time>2021-08-19T15:40:09Z</time>
      </trkpt>
      <trkpt lat="43.26832" lon="-0.00139">
        <ele>370.24</ele>
        <time>2021-08-19T15:40:10Z</time>
      </trkpt>
      <trkpt lat="43.26811" lon="-0.00159">
        <ele>367.36</ele>
        <time>2021-08-19T15:40:13Z</time>
      </trkpt>
      <trkpt lat="43.26802" lon="-0.00165">
        <ele>367.36</ele>
        <time>2021-08-19T15:40:14Z</time>
      </trkpt>
      <trkpt lat="43.26758" lon="-0.00198">
        <ele>366.4</ele>
        <time>2021-08-19T15:40:20Z</time>
      </trkpt>
      <trkpt lat="43.26716" lon="-0.00239">
        <ele>365.92</ele>
        <time>2021-08-19T15:40:27Z</time>
      </trkpt>
      <trkpt lat="43.26692" lon="-0.00268">
        <ele>367.36</ele>
        <time>2021-08-19T15:40:33Z</time>
      </trkpt>
      <trkpt lat="43.26673" lon="-0.00289">
        <ele>368.32</ele>
        <time>2021-08-19T15:40:40Z</time>
      </trkpt>
      <trkpt lat="43.2666" lon="-0.00306">
        <ele>369.76</ele>
        <time>2021-08-19T15:40:47Z</time>
      </trkpt>
      <trkpt lat="43.2665" lon="-0.00318">
        <ele>370.73</ele>
        <time>2021-08-19T15:40:53Z</time>
      </trkpt>
      <trkpt lat="43.26649" lon="-0.0032">
        <ele>371.69</ele>
        <time>2021-08-19T15:40:54Z</time>
      </trkpt>
      <trkpt lat="43.26647" lon="-0.00323">
        <ele>371.69</ele>
        <time>2021-08-19T15:40:55Z</time>
      </trkpt>
      <trkpt lat="43.26645" lon="-0.00326">
        <ele>371.69</ele>
        <time>2021-08-19T15:40:56Z</time>
      </trkpt>
      <trkpt lat="43.26643" lon="-0.00328">
        <ele>372.17</ele>
        <time>2021-08-19T15:40:57Z</time>
      </trkpt>
      <trkpt lat="43.26642" lon="-0.00331">
        <ele>372.17</ele>
        <time>2021-08-19T15:40:58Z</time>
      </trkpt>
      <trkpt lat="43.2664" lon="-0.00333">
        <ele>372.17</ele>
        <time>2021-08-19T15:40:59Z</time>
      </trkpt>
      <trkpt lat="43.26626" lon="-0.00358">
        <ele>372.17</ele>
        <time>2021-08-19T15:41:06Z</time>
      </trkpt>
      <trkpt lat="43.26623" lon="-0.00362">
        <ele>372.17</ele>
        <time>2021-08-19T15:41:07Z</time>
      </trkpt>
      <trkpt lat="43.2662" lon="-0.00367">
        <ele>372.17</ele>
        <time>2021-08-19T15:41:08Z</time>
      </trkpt>
      <trkpt lat="43.26614" lon="-0.00375">
        <ele>372.17</ele>
        <time>2021-08-19T15:41:10Z</time>
      </trkpt>
      <trkpt lat="43.26601" lon="-0.00407">
        <ele>372.17</ele>
        <time>2021-08-19T15:41:17Z</time>
      </trkpt>
      <trkpt lat="43.26588" lon="-0.00439">
        <ele>373.13</ele>
        <time>2021-08-19T15:41:24Z</time>
      </trkpt>
      <trkpt lat="43.2657" lon="-0.00475">
        <ele>374.09</ele>
        <time>2021-08-19T15:41:32Z</time>
      </trkpt>
      <trkpt lat="43.26555" lon="-0.005">
        <ele>375.05</ele>
        <time>2021-08-19T15:41:38Z</time>
      </trkpt>
      <trkpt lat="43.26535" lon="-0.0053">
        <ele>376.01</ele>
        <time>2021-08-19T15:41:46Z</time>
      </trkpt>
      <trkpt lat="43.26522" lon="-0.00549">
        <ele>376.97</ele>
        <time>2021-08-19T15:41:52Z</time>
      </trkpt>
      <trkpt lat="43.2651" lon="-0.00567">
        <ele>378.42</ele>
        <time>2021-08-19T15:41:58Z</time>
      </trkpt>
      <trkpt lat="43.26497" lon="-0.00592">
        <ele>379.86</ele>
        <time>2021-08-19T15:42:06Z</time>
      </trkpt>
      <trkpt lat="43.26474" lon="-0.00625">
        <ele>380.82</ele>
        <time>2021-08-19T15:42:15Z</time>
      </trkpt>
      <trkpt lat="43.26462" lon="-0.00643">
        <ele>381.78</ele>
        <time>2021-08-19T15:42:20Z</time>
      </trkpt>
      <trkpt lat="43.26438" lon="-0.00671">
        <ele>382.74</ele>
        <time>2021-08-19T15:42:28Z</time>
      </trkpt>
      <trkpt lat="43.26416" lon="-0.00698">
        <ele>383.22</ele>
        <time>2021-08-19T15:42:36Z</time>
      </trkpt>
      <trkpt lat="43.264" lon="-0.0072">
        <ele>384.18</ele>
        <time>2021-08-19T15:42:43Z</time>
      </trkpt>
      <trkpt lat="43.26385" lon="-0.00743">
        <ele>385.15</ele>
        <time>2021-08-19T15:42:50Z</time>
      </trkpt>
      <trkpt lat="43.26367" lon="-0.00766">
        <ele>386.11</ele>
        <time>2021-08-19T15:42:57Z</time>
      </trkpt>
      <trkpt lat="43.26356" lon="-0.00782">
        <ele>386.59</ele>
        <time>2021-08-19T15:43:02Z</time>
      </trkpt>
      <trkpt lat="43.2634" lon="-0.00808">
        <ele>388.03</ele>
        <time>2021-08-19T15:43:09Z</time>
      </trkpt>
      <trkpt lat="43.2632" lon="-0.00834">
        <ele>388.51</ele>
        <time>2021-08-19T15:43:16Z</time>
      </trkpt>
      <trkpt lat="43.26309" lon="-0.00852">
        <ele>388.51</ele>
        <time>2021-08-19T15:43:20Z</time>
      </trkpt>
      <trkpt lat="43.26306" lon="-0.00857">
        <ele>388.51</ele>
        <time>2021-08-19T15:43:21Z</time>
      </trkpt>
      <trkpt lat="43.2629" lon="-0.00891">
        <ele>388.51</ele>
        <time>2021-08-19T15:43:28Z</time>
      </trkpt>
      <trkpt lat="43.26275" lon="-0.00913">
        <ele>388.51</ele>
        <time>2021-08-19T15:43:32Z</time>
      </trkpt>
      <trkpt lat="43.26272" lon="-0.00918">
        <ele>388.51</ele>
        <time>2021-08-19T15:43:33Z</time>
      </trkpt>
      <trkpt lat="43.26258" lon="-0.00947">
        <ele>388.51</ele>
        <time>2021-08-19T15:43:39Z</time>
      </trkpt>
      <trkpt lat="43.26246" lon="-0.00972">
        <ele>388.51</ele>
        <time>2021-08-19T15:43:44Z</time>
      </trkpt>
      <trkpt lat="43.26243" lon="-0.00978">
        <ele>388.51</ele>
        <time>2021-08-19T15:43:45Z</time>
      </trkpt>
      <trkpt lat="43.26239" lon="-0.00983">
        <ele>388.51</ele>
        <time>2021-08-19T15:43:46Z</time>
      </trkpt>
      <trkpt lat="43.26235" lon="-0.0099">
        <ele>388.51</ele>
        <time>2021-08-19T15:43:47Z</time>
      </trkpt>
      <trkpt lat="43.26232" lon="-0.00995">
        <ele>388.51</ele>
        <time>2021-08-19T15:43:48Z</time>
      </trkpt>
      <trkpt lat="43.2622" lon="-0.01024">
        <ele>389.95</ele>
        <time>2021-08-19T15:43:54Z</time>
      </trkpt>
      <trkpt lat="43.26208" lon="-0.01061">
        <ele>390.43</ele>
        <time>2021-08-19T15:44:03Z</time>
      </trkpt>
      <trkpt lat="43.26187" lon="-0.01104">
        <ele>391.39</ele>
        <time>2021-08-19T15:44:11Z</time>
      </trkpt>
      <trkpt lat="43.26168" lon="-0.01138">
        <ele>391.87</ele>
        <time>2021-08-19T15:44:18Z</time>
      </trkpt>
      <trkpt lat="43.26151" lon="-0.01164">
        <ele>393.32</ele>
        <time>2021-08-19T15:44:24Z</time>
      </trkpt>
      <trkpt lat="43.26142" lon="-0.01192">
        <ele>393.8</ele>
        <time>2021-08-19T15:44:30Z</time>
      </trkpt>
      <trkpt lat="43.26133" lon="-0.01225">
        <ele>394.76</ele>
        <time>2021-08-19T15:44:37Z</time>
      </trkpt>
      <trkpt lat="43.26124" lon="-0.01258">
        <ele>395.24</ele>
        <time>2021-08-19T15:44:44Z</time>
      </trkpt>
      <trkpt lat="43.26117" lon="-0.01282">
        <ele>395.72</ele>
        <time>2021-08-19T15:44:49Z</time>
      </trkpt>
      <trkpt lat="43.26109" lon="-0.01309">
        <ele>396.2</ele>
        <time>2021-08-19T15:44:55Z</time>
      </trkpt>
      <trkpt lat="43.26097" lon="-0.01341">
        <ele>397.16</ele>
        <time>2021-08-19T15:45:02Z</time>
      </trkpt>
      <trkpt lat="43.26092" lon="-0.01367">
        <ele>397.16</ele>
        <time>2021-08-19T15:45:07Z</time>
      </trkpt>
      <trkpt lat="43.26083" lon="-0.01403">
        <ele>397.16</ele>
        <time>2021-08-19T15:45:14Z</time>
      </trkpt>
      <trkpt lat="43.26071" lon="-0.01438">
        <ele>397.16</ele>
        <time>2021-08-19T15:45:20Z</time>
      </trkpt>
      <trkpt lat="43.2606" lon="-0.01471">
        <ele>397.16</ele>
        <time>2021-08-19T15:45:25Z</time>
      </trkpt>
      <trkpt lat="43.26043" lon="-0.01507">
        <ele>397.16</ele>
        <time>2021-08-19T15:45:31Z</time>
      </trkpt>
      <trkpt lat="43.2604" lon="-0.01514">
        <ele>397.16</ele>
        <time>2021-08-19T15:45:32Z</time>
      </trkpt>
      <trkpt lat="43.26014" lon="-0.01558">
        <ele>396.2</ele>
        <time>2021-08-19T15:45:38Z</time>
      </trkpt>
      <trkpt lat="43.25977" lon="-0.01622">
        <ele>395.24</ele>
        <time>2021-08-19T15:45:46Z</time>
      </trkpt>
      <trkpt lat="43.25945" lon="-0.0167">
        <ele>394.28</ele>
        <time>2021-08-19T15:45:53Z</time>
      </trkpt>
      <trkpt lat="43.25911" lon="-0.01713">
        <ele>393.8</ele>
        <time>2021-08-19T15:46:00Z</time>
      </trkpt>
      <trkpt lat="43.25886" lon="-0.0174">
        <ele>393.8</ele>
        <time>2021-08-19T15:46:05Z</time>
      </trkpt>
      <trkpt lat="43.25858" lon="-0.0177">
        <ele>393.8</ele>
        <time>2021-08-19T15:46:11Z</time>
      </trkpt>
      <trkpt lat="43.25825" lon="-0.01808">
        <ele>393.32</ele>
        <time>2021-08-19T15:46:19Z</time>
      </trkpt>
      <trkpt lat="43.25792" lon="-0.01843">
        <ele>393.8</ele>
        <time>2021-08-19T15:46:27Z</time>
      </trkpt>
      <trkpt lat="43.25762" lon="-0.01877">
        <ele>393.8</ele>
        <time>2021-08-19T15:46:34Z</time>
      </trkpt>
      <trkpt lat="43.25733" lon="-0.01908">
        <ele>393.8</ele>
        <time>2021-08-19T15:46:41Z</time>
      </trkpt>
      <trkpt lat="43.25729" lon="-0.01911">
        <ele>393.8</ele>
        <time>2021-08-19T15:46:42Z</time>
      </trkpt>
      <trkpt lat="43.25724" lon="-0.01915">
        <ele>394.76</ele>
        <time>2021-08-19T15:46:43Z</time>
      </trkpt>
      <trkpt lat="43.2572" lon="-0.01918">
        <ele>394.76</ele>
        <time>2021-08-19T15:46:44Z</time>
      </trkpt>
      <trkpt lat="43.2569" lon="-0.01943">
        <ele>395.72</ele>
        <time>2021-08-19T15:46:52Z</time>
      </trkpt>
      <trkpt lat="43.25686" lon="-0.01946">
        <ele>395.72</ele>
        <time>2021-08-19T15:46:53Z</time>
      </trkpt>
      <trkpt lat="43.25654" lon="-0.01966">
        <ele>396.68</ele>
        <time>2021-08-19T15:47:02Z</time>
      </trkpt>
      <trkpt lat="43.25624" lon="-0.01984">
        <ele>396.68</ele>
        <time>2021-08-19T15:47:10Z</time>
      </trkpt>
      <trkpt lat="43.2562" lon="-0.01986">
        <ele>397.16</ele>
        <time>2021-08-19T15:47:11Z</time>
      </trkpt>
      <trkpt lat="43.25617" lon="-0.01988">
        <ele>397.16</ele>
        <time>2021-08-19T15:47:12Z</time>
      </trkpt>
      <trkpt lat="43.25613" lon="-0.01991">
        <ele>397.16</ele>
        <time>2021-08-19T15:47:13Z</time>
      </trkpt>
      <trkpt lat="43.25609" lon="-0.01993">
        <ele>397.16</ele>
        <time>2021-08-19T15:47:14Z</time>
      </trkpt>
      <trkpt lat="43.25604" lon="-0.01996">
        <ele>397.16</ele>
        <time>2021-08-19T15:47:15Z</time>
      </trkpt>
      <trkpt lat="43.25575" lon="-0.0202">
        <ele>397.64</ele>
        <time>2021-08-19T15:47:22Z</time>
      </trkpt>
      <trkpt lat="43.25543" lon="-0.02042">
        <ele>398.6</ele>
        <time>2021-08-19T15:47:30Z</time>
      </trkpt>
      <trkpt lat="43.25517" lon="-0.02063">
        <ele>399.08</ele>
        <time>2021-08-19T15:47:37Z</time>
      </trkpt>
      <trkpt lat="43.25489" lon="-0.02085">
        <ele>400.05</ele>
        <time>2021-08-19T15:47:44Z</time>
      </trkpt>
      <trkpt lat="43.25466" lon="-0.02106">
        <ele>400.05</ele>
        <time>2021-08-19T15:47:51Z</time>
      </trkpt>
      <trkpt lat="43.25456" lon="-0.02119">
        <ele>400.05</ele>
        <time>2021-08-19T15:47:54Z</time>
      </trkpt>
      <trkpt lat="43.25428" lon="-0.02151">
        <ele>401.01</ele>
        <time>2021-08-19T15:48:02Z</time>
      </trkpt>
      <trkpt lat="43.25423" lon="-0.02158">
        <ele>401.01</ele>
        <time>2021-08-19T15:48:04Z</time>
      </trkpt>
      <trkpt lat="43.254" lon="-0.02182">
        <ele>401.97</ele>
        <time>2021-08-19T15:48:11Z</time>
      </trkpt>
      <trkpt lat="43.25374" lon="-0.02209">
        <ele>401.97</ele>
        <time>2021-08-19T15:48:18Z</time>
      </trkpt>
      <trkpt lat="43.2537" lon="-0.02212">
        <ele>401.97</ele>
        <time>2021-08-19T15:48:19Z</time>
      </trkpt>
      <trkpt lat="43.25366" lon="-0.02216">
        <ele>401.97</ele>
        <time>2021-08-19T15:48:20Z</time>
      </trkpt>
      <trkpt lat="43.25363" lon="-0.02219">
        <ele>401.97</ele>
        <time>2021-08-19T15:48:21Z</time>
      </trkpt>
      <trkpt lat="43.25345" lon="-0.02234">
        <ele>401.97</ele>
        <time>2021-08-19T15:48:26Z</time>
      </trkpt>
      <trkpt lat="43.25332" lon="-0.02246">
        <ele>401.97</ele>
        <time>2021-08-19T15:48:29Z</time>
      </trkpt>
      <trkpt lat="43.25327" lon="-0.0225">
        <ele>401.97</ele>
        <time>2021-08-19T15:48:30Z</time>
      </trkpt>
      <trkpt lat="43.25323" lon="-0.02252">
        <ele>401.97</ele>
        <time>2021-08-19T15:48:31Z</time>
      </trkpt>
      <trkpt lat="43.25318" lon="-0.02254">
        <ele>401.97</ele>
        <time>2021-08-19T15:48:32Z</time>
      </trkpt>
      <trkpt lat="43.25313" lon="-0.02256">
        <ele>401.97</ele>
        <time>2021-08-19T15:48:33Z</time>
      </trkpt>
      <trkpt lat="43.25308" lon="-0.02259">
        <ele>401.97</ele>
        <time>2021-08-19T15:48:34Z</time>
      </trkpt>
      <trkpt lat="43.25303" lon="-0.02261">
        <ele>401.97</ele>
        <time>2021-08-19T15:48:35Z</time>
      </trkpt>
      <trkpt lat="43.25298" lon="-0.02262">
        <ele>401.97</ele>
        <time>2021-08-19T15:48:36Z</time>
      </trkpt>
      <trkpt lat="43.25293" lon="-0.02264">
        <ele>401.97</ele>
        <time>2021-08-19T15:48:37Z</time>
      </trkpt>
      <trkpt lat="43.25288" lon="-0.02266">
        <ele>401.97</ele>
        <time>2021-08-19T15:48:38Z</time>
      </trkpt>
      <trkpt lat="43.25284" lon="-0.02268">
        <ele>401.97</ele>
        <time>2021-08-19T15:48:39Z</time>
      </trkpt>
      <trkpt lat="43.25264" lon="-0.02277">
        <ele>402.45</ele>
        <time>2021-08-19T15:48:43Z</time>
      </trkpt>
      <trkpt lat="43.25231" lon="-0.0229">
        <ele>403.41</ele>
        <time>2021-08-19T15:48:50Z</time>
      </trkpt>
      <trkpt lat="43.25206" lon="-0.02301">
        <ele>404.37</ele>
        <time>2021-08-19T15:48:56Z</time>
      </trkpt>
      <trkpt lat="43.25183" lon="-0.02315">
        <ele>405.33</ele>
        <time>2021-08-19T15:49:02Z</time>
      </trkpt>
      <trkpt lat="43.25157" lon="-0.0233">
        <ele>405.33</ele>
        <time>2021-08-19T15:49:09Z</time>
      </trkpt>
      <trkpt lat="43.25132" lon="-0.02347">
        <ele>405.81</ele>
        <time>2021-08-19T15:49:16Z</time>
      </trkpt>
      <trkpt lat="43.25107" lon="-0.02371">
        <ele>405.81</ele>
        <time>2021-08-19T15:49:23Z</time>
      </trkpt>
      <trkpt lat="43.25085" lon="-0.02392">
        <ele>407.26</ele>
        <time>2021-08-19T15:49:29Z</time>
      </trkpt>
      <trkpt lat="43.25066" lon="-0.02412">
        <ele>407.74</ele>
        <time>2021-08-19T15:49:35Z</time>
      </trkpt>
      <trkpt lat="43.25052" lon="-0.02429">
        <ele>408.22</ele>
        <time>2021-08-19T15:49:39Z</time>
      </trkpt>
      <trkpt lat="43.25028" lon="-0.02456">
        <ele>409.18</ele>
        <time>2021-08-19T15:49:46Z</time>
      </trkpt>
      <trkpt lat="43.25009" lon="-0.02483">
        <ele>409.18</ele>
        <time>2021-08-19T15:49:53Z</time>
      </trkpt>
      <trkpt lat="43.24993" lon="-0.02504">
        <ele>409.18</ele>
        <time>2021-08-19T15:49:58Z</time>
      </trkpt>
      <trkpt lat="43.24989" lon="-0.02508">
        <ele>409.18</ele>
        <time>2021-08-19T15:49:59Z</time>
      </trkpt>
      <trkpt lat="43.24947" lon="-0.02532">
        <ele>410.14</ele>
        <time>2021-08-19T15:50:09Z</time>
      </trkpt>
      <trkpt lat="43.24912" lon="-0.02547">
        <ele>410.14</ele>
        <time>2021-08-19T15:50:17Z</time>
      </trkpt>
      <trkpt lat="43.24873" lon="-0.02561">
        <ele>411.1</ele>
        <time>2021-08-19T15:50:24Z</time>
      </trkpt>
      <trkpt lat="43.24869" lon="-0.02562">
        <ele>411.1</ele>
        <time>2021-08-19T15:50:25Z</time>
      </trkpt>
      <trkpt lat="43.24851" lon="-0.02567">
        <ele>411.1</ele>
        <time>2021-08-19T15:50:28Z</time>
      </trkpt>
      <trkpt lat="43.24847" lon="-0.02567">
        <ele>411.1</ele>
        <time>2021-08-19T15:50:29Z</time>
      </trkpt>
      <trkpt lat="43.24843" lon="-0.02567">
        <ele>411.1</ele>
        <time>2021-08-19T15:50:30Z</time>
      </trkpt>
      <trkpt lat="43.24791" lon="-0.02562">
        <ele>411.1</ele>
        <time>2021-08-19T15:50:41Z</time>
      </trkpt>
      <trkpt lat="43.24762" lon="-0.02559">
        <ele>411.1</ele>
        <time>2021-08-19T15:50:48Z</time>
      </trkpt>
      <trkpt lat="43.24748" lon="-0.02556">
        <ele>411.1</ele>
        <time>2021-08-19T15:50:52Z</time>
      </trkpt>
      <trkpt lat="43.24701" lon="-0.02544">
        <ele>411.1</ele>
        <time>2021-08-19T15:51:02Z</time>
      </trkpt>
      <trkpt lat="43.2466" lon="-0.02537">
        <ele>409.66</ele>
        <time>2021-08-19T15:51:10Z</time>
      </trkpt>
      <trkpt lat="43.24629" lon="-0.0253">
        <ele>408.22</ele>
        <time>2021-08-19T15:51:16Z</time>
      </trkpt>
      <trkpt lat="43.24623" lon="-0.02528">
        <ele>408.22</ele>
        <time>2021-08-19T15:51:17Z</time>
      </trkpt>
      <trkpt lat="43.24587" lon="-0.02507">
        <ele>408.22</ele>
        <time>2021-08-19T15:51:24Z</time>
      </trkpt>
      <trkpt lat="43.24574" lon="-0.02494">
        <ele>408.22</ele>
        <time>2021-08-19T15:51:27Z</time>
      </trkpt>
      <trkpt lat="43.24551" lon="-0.02452">
        <ele>408.22</ele>
        <time>2021-08-19T15:51:34Z</time>
      </trkpt>
      <trkpt lat="43.24545" lon="-0.02442">
        <ele>409.66</ele>
        <time>2021-08-19T15:51:36Z</time>
      </trkpt>
      <trkpt lat="43.24542" lon="-0.02438">
        <ele>409.66</ele>
        <time>2021-08-19T15:51:37Z</time>
      </trkpt>
      <trkpt lat="43.24539" lon="-0.02433">
        <ele>409.66</ele>
        <time>2021-08-19T15:51:38Z</time>
      </trkpt>
      <trkpt lat="43.24535" lon="-0.0243">
        <ele>410.14</ele>
        <time>2021-08-19T15:51:39Z</time>
      </trkpt>
      <trkpt lat="43.24532" lon="-0.02429">
        <ele>410.14</ele>
        <time>2021-08-19T15:51:40Z</time>
      </trkpt>
      <trkpt lat="43.24528" lon="-0.02429">
        <ele>410.14</ele>
        <time>2021-08-19T15:51:41Z</time>
      </trkpt>
      <trkpt lat="43.24524" lon="-0.0243">
        <ele>410.14</ele>
        <time>2021-08-19T15:51:42Z</time>
      </trkpt>
      <trkpt lat="43.24522" lon="-0.02431">
        <ele>410.14</ele>
        <time>2021-08-19T15:51:43Z</time>
      </trkpt>
      <trkpt lat="43.24519" lon="-0.02432">
        <ele>410.62</ele>
        <time>2021-08-19T15:51:44Z</time>
      </trkpt>
      <trkpt lat="43.2452" lon="-0.0243">
        <ele>410.62</ele>
        <time>2021-08-19T15:51:46Z</time>
      </trkpt>
      <trkpt lat="43.24521" lon="-0.02429">
        <ele>410.62</ele>
        <time>2021-08-19T15:51:47Z</time>
      </trkpt>
      <trkpt lat="43.24523" lon="-0.02429">
        <ele>410.62</ele>
        <time>2021-08-19T15:51:48Z</time>
      </trkpt>
      <trkpt lat="43.24533" lon="-0.02426">
        <ele>410.62</ele>
        <time>2021-08-19T15:51:52Z</time>
      </trkpt>
      <trkpt lat="43.24534" lon="-0.02423">
        <ele>410.62</ele>
        <time>2021-08-19T15:51:53Z</time>
      </trkpt>
      <trkpt lat="43.24534" lon="-0.02419">
        <ele>410.62</ele>
        <time>2021-08-19T15:51:54Z</time>
      </trkpt>
      <trkpt lat="43.24533" lon="-0.02417">
        <ele>410.62</ele>
        <time>2021-08-19T15:51:55Z</time>
      </trkpt>
      <trkpt lat="43.24532" lon="-0.02416">
        <ele>410.62</ele>
        <time>2021-08-19T15:51:56Z</time>
      </trkpt>
      <trkpt lat="43.24531" lon="-0.02414">
        <ele>410.62</ele>
        <time>2021-08-19T15:51:57Z</time>
      </trkpt>
      <trkpt lat="43.2453" lon="-0.02412">
        <ele>410.62</ele>
        <time>2021-08-19T15:51:58Z</time>
      </trkpt>
      <trkpt lat="43.24523" lon="-0.02394">
        <ele>410.62</ele>
        <time>2021-08-19T15:52:04Z</time>
      </trkpt>
      <trkpt lat="43.24505" lon="-0.02363">
        <ele>410.62</ele>
        <time>2021-08-19T15:52:10Z</time>
      </trkpt>
      <trkpt lat="43.24491" lon="-0.02329">
        <ele>411.58</ele>
        <time>2021-08-19T15:52:17Z</time>
      </trkpt>
      <trkpt lat="43.24479" lon="-0.02298">
        <ele>411.58</ele>
        <time>2021-08-19T15:52:24Z</time>
      </trkpt>
      <trkpt lat="43.24467" lon="-0.02265">
        <ele>411.58</ele>
        <time>2021-08-19T15:52:32Z</time>
      </trkpt>
      <trkpt lat="43.24456" lon="-0.02231">
        <ele>409.66</ele>
        <time>2021-08-19T15:52:39Z</time>
      </trkpt>
      <trkpt lat="43.24454" lon="-0.02225">
        <ele>409.66</ele>
        <time>2021-08-19T15:52:40Z</time>
      </trkpt>
      <trkpt lat="43.2444" lon="-0.02198">
        <ele>407.74</ele>
        <time>2021-08-19T15:52:44Z</time>
      </trkpt>
      <trkpt lat="43.24408" lon="-0.02157">
        <ele>405.81</ele>
        <time>2021-08-19T15:52:51Z</time>
      </trkpt>
      <trkpt lat="43.24402" lon="-0.02152">
        <ele>405.81</ele>
        <time>2021-08-19T15:52:52Z</time>
      </trkpt>
      <trkpt lat="43.24397" lon="-0.02149">
        <ele>405.33</ele>
        <time>2021-08-19T15:52:53Z</time>
      </trkpt>
      <trkpt lat="43.24351" lon="-0.02131">
        <ele>401.97</ele>
        <time>2021-08-19T15:53:00Z</time>
      </trkpt>
      <trkpt lat="43.2434" lon="-0.02127">
        <ele>401.97</ele>
        <time>2021-08-19T15:53:03Z</time>
      </trkpt>
      <trkpt lat="43.2434" lon="-0.02121">
        <ele>401.97</ele>
        <time>2021-08-19T15:53:05Z</time>
      </trkpt>
      <trkpt lat="43.24343" lon="-0.02118">
        <ele>401.01</ele>
        <time>2021-08-19T15:53:06Z</time>
      </trkpt>
      <trkpt lat="43.24347" lon="-0.02118">
        <ele>400.53</ele>
        <time>2021-08-19T15:53:07Z</time>
      </trkpt>
      <trkpt lat="43.2435" lon="-0.02117">
        <ele>400.53</ele>
        <time>2021-08-19T15:53:08Z</time>
      </trkpt>
      <trkpt lat="43.24377" lon="-0.02112">
        <ele>397.64</ele>
        <time>2021-08-19T15:53:14Z</time>
      </trkpt>
      <trkpt lat="43.24382" lon="-0.02111">
        <ele>397.16</ele>
        <time>2021-08-19T15:53:15Z</time>
      </trkpt>
      <trkpt lat="43.24386" lon="-0.02112">
        <ele>396.2</ele>
        <time>2021-08-19T15:53:16Z</time>
      </trkpt>
      <trkpt lat="43.24391" lon="-0.02112">
        <ele>396.2</ele>
        <time>2021-08-19T15:53:17Z</time>
      </trkpt>
      <trkpt lat="43.24412" lon="-0.02111">
        <ele>393.8</ele>
        <time>2021-08-19T15:53:22Z</time>
      </trkpt>
      <trkpt lat="43.24417" lon="-0.02109">
        <ele>393.32</ele>
        <time>2021-08-19T15:53:23Z</time>
      </trkpt>
      <trkpt lat="43.24421" lon="-0.02107">
        <ele>392.36</ele>
        <time>2021-08-19T15:53:24Z</time>
      </trkpt>
      <trkpt lat="43.24426" lon="-0.02104">
        <ele>391.39</ele>
        <time>2021-08-19T15:53:25Z</time>
      </trkpt>
      <trkpt lat="43.2443" lon="-0.021">
        <ele>391.39</ele>
        <time>2021-08-19T15:53:26Z</time>
      </trkpt>
      <trkpt lat="43.24434" lon="-0.02096">
        <ele>390.43</ele>
        <time>2021-08-19T15:53:27Z</time>
      </trkpt>
      <trkpt lat="43.24437" lon="-0.02091">
        <ele>389.95</ele>
        <time>2021-08-19T15:53:28Z</time>
      </trkpt>
      <trkpt lat="43.2444" lon="-0.02086">
        <ele>388.99</ele>
        <time>2021-08-19T15:53:29Z</time>
      </trkpt>
      <trkpt lat="43.24443" lon="-0.02081">
        <ele>388.51</ele>
        <time>2021-08-19T15:53:30Z</time>
      </trkpt>
      <trkpt lat="43.24455" lon="-0.02058">
        <ele>385.15</ele>
        <time>2021-08-19T15:53:34Z</time>
      </trkpt>
      <trkpt lat="43.24467" lon="-0.02031">
        <ele>382.26</ele>
        <time>2021-08-19T15:53:38Z</time>
      </trkpt>
      <trkpt lat="43.24473" lon="-0.0201">
        <ele>379.86</ele>
        <time>2021-08-19T15:53:41Z</time>
      </trkpt>
      <trkpt lat="43.24475" lon="-0.01989">
        <ele>378.42</ele>
        <time>2021-08-19T15:53:45Z</time>
      </trkpt>
      <trkpt lat="43.24474" lon="-0.01985">
        <ele>376.97</ele>
        <time>2021-08-19T15:53:46Z</time>
      </trkpt>
      <trkpt lat="43.24472" lon="-0.01982">
        <ele>376.97</ele>
        <time>2021-08-19T15:53:47Z</time>
      </trkpt>
      <trkpt lat="43.2447" lon="-0.0198">
        <ele>376.01</ele>
        <time>2021-08-19T15:53:48Z</time>
      </trkpt>
      <trkpt lat="43.24468" lon="-0.01977">
        <ele>376.01</ele>
        <time>2021-08-19T15:53:49Z</time>
      </trkpt>
      <trkpt lat="43.24466" lon="-0.01976">
        <ele>375.53</ele>
        <time>2021-08-19T15:53:50Z</time>
      </trkpt>
      <trkpt lat="43.24463" lon="-0.01975">
        <ele>374.57</ele>
        <time>2021-08-19T15:53:51Z</time>
      </trkpt>
      <trkpt lat="43.24456" lon="-0.01974">
        <ele>373.61</ele>
        <time>2021-08-19T15:53:53Z</time>
      </trkpt>
      <trkpt lat="43.24451" lon="-0.01975">
        <ele>373.13</ele>
        <time>2021-08-19T15:53:54Z</time>
      </trkpt>
      <trkpt lat="43.24446" lon="-0.01975">
        <ele>373.13</ele>
        <time>2021-08-19T15:53:55Z</time>
      </trkpt>
      <trkpt lat="43.24442" lon="-0.01977">
        <ele>372.17</ele>
        <time>2021-08-19T15:53:56Z</time>
      </trkpt>
      <trkpt lat="43.24438" lon="-0.01978">
        <ele>372.17</ele>
        <time>2021-08-19T15:53:57Z</time>
      </trkpt>
      <trkpt lat="43.2442" lon="-0.01983">
        <ele>370.24</ele>
        <time>2021-08-19T15:54:01Z</time>
      </trkpt>
      <trkpt lat="43.24415" lon="-0.01982">
        <ele>369.28</ele>
        <time>2021-08-19T15:54:02Z</time>
      </trkpt>
      <trkpt lat="43.24411" lon="-0.01981">
        <ele>368.8</ele>
        <time>2021-08-19T15:54:03Z</time>
      </trkpt>
      <trkpt lat="43.24386" lon="-0.01971">
        <ele>365.44</ele>
        <time>2021-08-19T15:54:08Z</time>
      </trkpt>
      <trkpt lat="43.24363" lon="-0.01957">
        <ele>361.59</ele>
        <time>2021-08-19T15:54:12Z</time>
      </trkpt>
      <trkpt lat="43.24359" lon="-0.01952">
        <ele>361.11</ele>
        <time>2021-08-19T15:54:13Z</time>
      </trkpt>
      <trkpt lat="43.24347" lon="-0.01939">
        <ele>358.71</ele>
        <time>2021-08-19T15:54:16Z</time>
      </trkpt>
      <trkpt lat="43.24344" lon="-0.01933">
        <ele>358.23</ele>
        <time>2021-08-19T15:54:17Z</time>
      </trkpt>
      <trkpt lat="43.24342" lon="-0.01926">
        <ele>357.27</ele>
        <time>2021-08-19T15:54:18Z</time>
      </trkpt>
      <trkpt lat="43.2434" lon="-0.01918">
        <ele>355.83</ele>
        <time>2021-08-19T15:54:19Z</time>
      </trkpt>
      <trkpt lat="43.24339" lon="-0.0191">
        <ele>355.34</ele>
        <time>2021-08-19T15:54:20Z</time>
      </trkpt>
      <trkpt lat="43.24339" lon="-0.01902">
        <ele>354.86</ele>
        <time>2021-08-19T15:54:21Z</time>
      </trkpt>
      <trkpt lat="43.24339" lon="-0.01895">
        <ele>354.38</ele>
        <time>2021-08-19T15:54:22Z</time>
      </trkpt>
      <trkpt lat="43.2434" lon="-0.01888">
        <ele>354.38</ele>
        <time>2021-08-19T15:54:23Z</time>
      </trkpt>
      <trkpt lat="43.2434" lon="-0.01881">
        <ele>353.42</ele>
        <time>2021-08-19T15:54:24Z</time>
      </trkpt>
      <trkpt lat="43.24342" lon="-0.01874">
        <ele>352.46</ele>
        <time>2021-08-19T15:54:25Z</time>
      </trkpt>
      <trkpt lat="43.24349" lon="-0.01848">
        <ele>351.02</ele>
        <time>2021-08-19T15:54:29Z</time>
      </trkpt>
      <trkpt lat="43.2435" lon="-0.01842">
        <ele>350.06</ele>
        <time>2021-08-19T15:54:30Z</time>
      </trkpt>
      <trkpt lat="43.24363" lon="-0.01805">
        <ele>347.17</ele>
        <time>2021-08-19T15:54:36Z</time>
      </trkpt>
      <trkpt lat="43.24374" lon="-0.01781">
        <ele>345.25</ele>
        <time>2021-08-19T15:54:41Z</time>
      </trkpt>
      <trkpt lat="43.24385" lon="-0.01762">
        <ele>343.33</ele>
        <time>2021-08-19T15:54:47Z</time>
      </trkpt>
      <trkpt lat="43.24392" lon="-0.01749">
        <ele>341.89</ele>
        <time>2021-08-19T15:54:52Z</time>
      </trkpt>
      <trkpt lat="43.24393" lon="-0.01746">
        <ele>341.41</ele>
        <time>2021-08-19T15:54:53Z</time>
      </trkpt>
      <trkpt lat="43.24394" lon="-0.01743">
        <ele>341.41</ele>
        <time>2021-08-19T15:54:54Z</time>
      </trkpt>
      <trkpt lat="43.24395" lon="-0.01739">
        <ele>340.44</ele>
        <time>2021-08-19T15:54:55Z</time>
      </trkpt>
      <trkpt lat="43.24396" lon="-0.01734">
        <ele>339.96</ele>
        <time>2021-08-19T15:54:56Z</time>
      </trkpt>
      <trkpt lat="43.24398" lon="-0.01729">
        <ele>339.48</ele>
        <time>2021-08-19T15:54:57Z</time>
      </trkpt>
      <trkpt lat="43.244" lon="-0.01723">
        <ele>339</ele>
        <time>2021-08-19T15:54:58Z</time>
      </trkpt>
      <trkpt lat="43.24401" lon="-0.01717">
        <ele>338.52</ele>
        <time>2021-08-19T15:54:59Z</time>
      </trkpt>
      <trkpt lat="43.24403" lon="-0.01706">
        <ele>337.56</ele>
        <time>2021-08-19T15:55:01Z</time>
      </trkpt>
      <trkpt lat="43.24402" lon="-0.01703">
        <ele>337.56</ele>
        <time>2021-08-19T15:55:02Z</time>
      </trkpt>
      <trkpt lat="43.24399" lon="-0.01701">
        <ele>337.56</ele>
        <time>2021-08-19T15:55:03Z</time>
      </trkpt>
      <trkpt lat="43.24397" lon="-0.01701">
        <ele>337.56</ele>
        <time>2021-08-19T15:55:04Z</time>
      </trkpt>
      <trkpt lat="43.24396" lon="-0.01702">
        <ele>337.56</ele>
        <time>2021-08-19T15:55:05Z</time>
      </trkpt>
      <trkpt lat="43.24395" lon="-0.01702">
        <ele>337.56</ele>
        <time>2021-08-19T15:55:10Z</time>
      </trkpt>
      <trkpt lat="43.24391" lon="-0.01705">
        <ele>337.56</ele>
        <time>2021-08-19T15:55:21Z</time>
      </trkpt>
      <trkpt lat="43.24384" lon="-0.01719">
        <ele>337.56</ele>
        <time>2021-08-19T15:55:27Z</time>
      </trkpt>
      <trkpt lat="43.24378" lon="-0.01732">
        <ele>339</ele>
        <time>2021-08-19T15:55:32Z</time>
      </trkpt>
      <trkpt lat="43.24375" lon="-0.01737">
        <ele>339.48</ele>
        <time>2021-08-19T15:55:35Z</time>
      </trkpt>
      <trkpt lat="43.24372" lon="-0.01737">
        <ele>339.48</ele>
        <time>2021-08-19T15:55:36Z</time>
      </trkpt>
      <trkpt lat="43.24369" lon="-0.01736">
        <ele>339.48</ele>
        <time>2021-08-19T15:55:37Z</time>
      </trkpt>
      <trkpt lat="43.24367" lon="-0.01734">
        <ele>339.48</ele>
        <time>2021-08-19T15:55:38Z</time>
      </trkpt>
      <trkpt lat="43.24363" lon="-0.01731">
        <ele>339.48</ele>
        <time>2021-08-19T15:55:39Z</time>
      </trkpt>
      <trkpt lat="43.24359" lon="-0.0173">
        <ele>338.04</ele>
        <time>2021-08-19T15:55:40Z</time>
      </trkpt>
      <trkpt lat="43.24355" lon="-0.01728">
        <ele>338.04</ele>
        <time>2021-08-19T15:55:41Z</time>
      </trkpt>
      <trkpt lat="43.24339" lon="-0.01723">
        <ele>335.64</ele>
        <time>2021-08-19T15:55:44Z</time>
      </trkpt>
      <trkpt lat="43.24301" lon="-0.01713">
        <ele>333.71</ele>
        <time>2021-08-19T15:55:50Z</time>
      </trkpt>
      <trkpt lat="43.24296" lon="-0.0171">
        <ele>333.23</ele>
        <time>2021-08-19T15:55:51Z</time>
      </trkpt>
      <trkpt lat="43.2429" lon="-0.01706">
        <ele>333.23</ele>
        <time>2021-08-19T15:55:52Z</time>
      </trkpt>
      <trkpt lat="43.24283" lon="-0.01697">
        <ele>332.75</ele>
        <time>2021-08-19T15:55:54Z</time>
      </trkpt>
      <trkpt lat="43.24255" lon="-0.01644">
        <ele>329.87</ele>
        <time>2021-08-19T15:56:02Z</time>
      </trkpt>
      <trkpt lat="43.24235" lon="-0.01604">
        <ele>329.39</ele>
        <time>2021-08-19T15:56:09Z</time>
      </trkpt>
      <trkpt lat="43.24232" lon="-0.01599">
        <ele>328.91</ele>
        <time>2021-08-19T15:56:10Z</time>
      </trkpt>
      <trkpt lat="43.24225" lon="-0.01578">
        <ele>328.43</ele>
        <time>2021-08-19T15:56:14Z</time>
      </trkpt>
      <trkpt lat="43.24218" lon="-0.01545">
        <ele>327.95</ele>
        <time>2021-08-19T15:56:20Z</time>
      </trkpt>
      <trkpt lat="43.24216" lon="-0.0154">
        <ele>327.95</ele>
        <time>2021-08-19T15:56:21Z</time>
      </trkpt>
      <trkpt lat="43.24215" lon="-0.01535">
        <ele>327.47</ele>
        <time>2021-08-19T15:56:22Z</time>
      </trkpt>
      <trkpt lat="43.24213" lon="-0.0153">
        <ele>327.47</ele>
        <time>2021-08-19T15:56:23Z</time>
      </trkpt>
      <trkpt lat="43.24211" lon="-0.01525">
        <ele>327.47</ele>
        <time>2021-08-19T15:56:24Z</time>
      </trkpt>
      <trkpt lat="43.24202" lon="-0.01506">
        <ele>327.47</ele>
        <time>2021-08-19T15:56:29Z</time>
      </trkpt>
      <trkpt lat="43.24188" lon="-0.01478">
        <ele>327.47</ele>
        <time>2021-08-19T15:56:37Z</time>
      </trkpt>
      <trkpt lat="43.2417" lon="-0.01454">
        <ele>327.47</ele>
        <time>2021-08-19T15:56:44Z</time>
      </trkpt>
      <trkpt lat="43.2416" lon="-0.01447">
        <ele>327.47</ele>
        <time>2021-08-19T15:56:47Z</time>
      </trkpt>
      <trkpt lat="43.24156" lon="-0.01445">
        <ele>326.99</ele>
        <time>2021-08-19T15:56:48Z</time>
      </trkpt>
      <trkpt lat="43.24149" lon="-0.01442">
        <ele>326.99</ele>
        <time>2021-08-19T15:56:50Z</time>
      </trkpt>
      <trkpt lat="43.24148" lon="-0.01439">
        <ele>326.99</ele>
        <time>2021-08-19T15:56:51Z</time>
      </trkpt>
      <trkpt lat="43.24145" lon="-0.01436">
        <ele>326.99</ele>
        <time>2021-08-19T15:56:52Z</time>
      </trkpt>
      <trkpt lat="43.24142" lon="-0.01434">
        <ele>326.99</ele>
        <time>2021-08-19T15:56:53Z</time>
      </trkpt>
      <trkpt lat="43.24139" lon="-0.01434">
        <ele>326.99</ele>
        <time>2021-08-19T15:56:54Z</time>
      </trkpt>
      <trkpt lat="43.24136" lon="-0.01435">
        <ele>326.99</ele>
        <time>2021-08-19T15:56:55Z</time>
      </trkpt>
      <trkpt lat="43.24132" lon="-0.01437">
        <ele>326.99</ele>
        <time>2021-08-19T15:56:56Z</time>
      </trkpt>
      <trkpt lat="43.24106" lon="-0.01449">
        <ele>326.99</ele>
        <time>2021-08-19T15:57:03Z</time>
      </trkpt>
      <trkpt lat="43.24102" lon="-0.01451">
        <ele>326.99</ele>
        <time>2021-08-19T15:57:04Z</time>
      </trkpt>
      <trkpt lat="43.24074" lon="-0.01466">
        <ele>326.99</ele>
        <time>2021-08-19T15:57:12Z</time>
      </trkpt>
      <trkpt lat="43.24055" lon="-0.01467">
        <ele>327.95</ele>
        <time>2021-08-19T15:57:18Z</time>
      </trkpt>
      <trkpt lat="43.24036" lon="-0.01446">
        <ele>328.43</ele>
        <time>2021-08-19T15:57:25Z</time>
      </trkpt>
      <trkpt lat="43.24017" lon="-0.0144">
        <ele>328.43</ele>
        <time>2021-08-19T15:57:30Z</time>
      </trkpt>
      <trkpt lat="43.23995" lon="-0.01444">
        <ele>328.43</ele>
        <time>2021-08-19T15:57:36Z</time>
      </trkpt>
      <trkpt lat="43.23983" lon="-0.01445">
        <ele>328.43</ele>
        <time>2021-08-19T15:57:40Z</time>
      </trkpt>
      <trkpt lat="43.2398" lon="-0.01443">
        <ele>328.43</ele>
        <time>2021-08-19T15:57:41Z</time>
      </trkpt>
      <trkpt lat="43.23964" lon="-0.01421">
        <ele>328.43</ele>
        <time>2021-08-19T15:57:47Z</time>
      </trkpt>
      <trkpt lat="43.23941" lon="-0.01381">
        <ele>328.43</ele>
        <time>2021-08-19T15:57:55Z</time>
      </trkpt>
      <trkpt lat="43.23938" lon="-0.01376">
        <ele>328.43</ele>
        <time>2021-08-19T15:57:56Z</time>
      </trkpt>
      <trkpt lat="43.23929" lon="-0.01359">
        <ele>328.43</ele>
        <time>2021-08-19T15:57:59Z</time>
      </trkpt>
      <trkpt lat="43.23926" lon="-0.01353">
        <ele>328.43</ele>
        <time>2021-08-19T15:58:00Z</time>
      </trkpt>
      <trkpt lat="43.23905" lon="-0.01314">
        <ele>328.43</ele>
        <time>2021-08-19T15:58:07Z</time>
      </trkpt>
      <trkpt lat="43.23882" lon="-0.01269">
        <ele>327.47</ele>
        <time>2021-08-19T15:58:15Z</time>
      </trkpt>
      <trkpt lat="43.23856" lon="-0.01213">
        <ele>327.47</ele>
        <time>2021-08-19T15:58:24Z</time>
      </trkpt>
      <trkpt lat="43.2383" lon="-0.01155">
        <ele>327.47</ele>
        <time>2021-08-19T15:58:33Z</time>
      </trkpt>
      <trkpt lat="43.23822" lon="-0.01136">
        <ele>327.47</ele>
        <time>2021-08-19T15:58:36Z</time>
      </trkpt>
      <trkpt lat="43.23818" lon="-0.01124">
        <ele>327.47</ele>
        <time>2021-08-19T15:58:38Z</time>
      </trkpt>
      <trkpt lat="43.23818" lon="-0.01117">
        <ele>327.47</ele>
        <time>2021-08-19T15:58:39Z</time>
      </trkpt>
      <trkpt lat="43.2382" lon="-0.0106">
        <ele>327.47</ele>
        <time>2021-08-19T15:58:47Z</time>
      </trkpt>
      <trkpt lat="43.2383" lon="-0.00974">
        <ele>326.99</ele>
        <time>2021-08-19T15:58:58Z</time>
      </trkpt>
      <trkpt lat="43.2383" lon="-0.00908">
        <ele>326.99</ele>
        <time>2021-08-19T15:59:06Z</time>
      </trkpt>
      <trkpt lat="43.23827" lon="-0.00837">
        <ele>326.99</ele>
        <time>2021-08-19T15:59:15Z</time>
      </trkpt>
      <trkpt lat="43.2382" lon="-0.00784">
        <ele>326.99</ele>
        <time>2021-08-19T15:59:22Z</time>
      </trkpt>
      <trkpt lat="43.23798" lon="-0.00737">
        <ele>326.99</ele>
        <time>2021-08-19T15:59:29Z</time>
      </trkpt>
      <trkpt lat="43.23793" lon="-0.00731">
        <ele>326.99</ele>
        <time>2021-08-19T15:59:30Z</time>
      </trkpt>
      <trkpt lat="43.23753" lon="-0.0069">
        <ele>326.99</ele>
        <time>2021-08-19T15:59:39Z</time>
      </trkpt>
      <trkpt lat="43.23716" lon="-0.00654">
        <ele>326.99</ele>
        <time>2021-08-19T15:59:47Z</time>
      </trkpt>
      <trkpt lat="43.2368" lon="-0.00619">
        <ele>327.95</ele>
        <time>2021-08-19T15:59:55Z</time>
      </trkpt>
      <trkpt lat="43.23661" lon="-0.00604">
        <ele>327.95</ele>
        <time>2021-08-19T15:59:59Z</time>
      </trkpt>
      <trkpt lat="43.23609" lon="-0.0057">
        <ele>327.95</ele>
        <time>2021-08-19T16:00:10Z</time>
      </trkpt>
      <trkpt lat="43.23599" lon="-0.00562">
        <ele>327.95</ele>
        <time>2021-08-19T16:00:12Z</time>
      </trkpt>
      <trkpt lat="43.23594" lon="-0.00558">
        <ele>327.95</ele>
        <time>2021-08-19T16:00:13Z</time>
      </trkpt>
      <trkpt lat="43.23585" lon="-0.0055">
        <ele>327.95</ele>
        <time>2021-08-19T16:00:15Z</time>
      </trkpt>
      <trkpt lat="43.23581" lon="-0.00546">
        <ele>327.95</ele>
        <time>2021-08-19T16:00:16Z</time>
      </trkpt>
      <trkpt lat="43.23577" lon="-0.0054">
        <ele>328.43</ele>
        <time>2021-08-19T16:00:17Z</time>
      </trkpt>
      <trkpt lat="43.23573" lon="-0.00534">
        <ele>328.43</ele>
        <time>2021-08-19T16:00:18Z</time>
      </trkpt>
      <trkpt lat="43.23571" lon="-0.00528">
        <ele>328.43</ele>
        <time>2021-08-19T16:00:19Z</time>
      </trkpt>
      <trkpt lat="43.23568" lon="-0.00521">
        <ele>328.43</ele>
        <time>2021-08-19T16:00:20Z</time>
      </trkpt>
      <trkpt lat="43.23564" lon="-0.00508">
        <ele>328.43</ele>
        <time>2021-08-19T16:00:22Z</time>
      </trkpt>
      <trkpt lat="43.23555" lon="-0.00471">
        <ele>328.43</ele>
        <time>2021-08-19T16:00:27Z</time>
      </trkpt>
      <trkpt lat="43.23553" lon="-0.00464">
        <ele>328.43</ele>
        <time>2021-08-19T16:00:28Z</time>
      </trkpt>
      <trkpt lat="43.2355" lon="-0.00459">
        <ele>328.43</ele>
        <time>2021-08-19T16:00:29Z</time>
      </trkpt>
      <trkpt lat="43.23545" lon="-0.00454">
        <ele>328.43</ele>
        <time>2021-08-19T16:00:30Z</time>
      </trkpt>
      <trkpt lat="43.23541" lon="-0.00451">
        <ele>328.43</ele>
        <time>2021-08-19T16:00:31Z</time>
      </trkpt>
      <trkpt lat="43.23536" lon="-0.00447">
        <ele>328.43</ele>
        <time>2021-08-19T16:00:32Z</time>
      </trkpt>
      <trkpt lat="43.23531" lon="-0.00444">
        <ele>328.43</ele>
        <time>2021-08-19T16:00:33Z</time>
      </trkpt>
      <trkpt lat="43.23516" lon="-0.00434">
        <ele>328.43</ele>
        <time>2021-08-19T16:00:36Z</time>
      </trkpt>
      <trkpt lat="43.23499" lon="-0.00417">
        <ele>328.91</ele>
        <time>2021-08-19T16:00:40Z</time>
      </trkpt>
      <trkpt lat="43.23496" lon="-0.00411">
        <ele>328.91</ele>
        <time>2021-08-19T16:00:41Z</time>
      </trkpt>
      <trkpt lat="43.23493" lon="-0.00405">
        <ele>328.91</ele>
        <time>2021-08-19T16:00:42Z</time>
      </trkpt>
      <trkpt lat="43.23492" lon="-0.00398">
        <ele>328.91</ele>
        <time>2021-08-19T16:00:43Z</time>
      </trkpt>
      <trkpt lat="43.2349" lon="-0.00391">
        <ele>328.91</ele>
        <time>2021-08-19T16:00:44Z</time>
      </trkpt>
      <trkpt lat="43.23488" lon="-0.00384">
        <ele>328.91</ele>
        <time>2021-08-19T16:00:45Z</time>
      </trkpt>
      <trkpt lat="43.23474" lon="-0.00324">
        <ele>328.91</ele>
        <time>2021-08-19T16:00:54Z</time>
      </trkpt>
      <trkpt lat="43.23472" lon="-0.00319">
        <ele>328.91</ele>
        <time>2021-08-19T16:00:55Z</time>
      </trkpt>
      <trkpt lat="43.2347" lon="-0.00314">
        <ele>328.91</ele>
        <time>2021-08-19T16:00:56Z</time>
      </trkpt>
      <trkpt lat="43.23467" lon="-0.00309">
        <ele>328.91</ele>
        <time>2021-08-19T16:00:57Z</time>
      </trkpt>
      <trkpt lat="43.23466" lon="-0.00303">
        <ele>328.91</ele>
        <time>2021-08-19T16:00:58Z</time>
      </trkpt>
      <trkpt lat="43.23464" lon="-0.00297">
        <ele>328.91</ele>
        <time>2021-08-19T16:00:59Z</time>
      </trkpt>
      <trkpt lat="43.23463" lon="-0.0029">
        <ele>328.91</ele>
        <time>2021-08-19T16:01:00Z</time>
      </trkpt>
      <trkpt lat="43.23462" lon="-0.00283">
        <ele>328.91</ele>
        <time>2021-08-19T16:01:01Z</time>
      </trkpt>
      <trkpt lat="43.23449" lon="-0.00214">
        <ele>328.91</ele>
        <time>2021-08-19T16:01:10Z</time>
      </trkpt>
      <trkpt lat="43.2344" lon="-0.00128">
        <ele>328.91</ele>
        <time>2021-08-19T16:01:21Z</time>
      </trkpt>
      <trkpt lat="43.2344" lon="-0.00113">
        <ele>328.91</ele>
        <time>2021-08-19T16:01:23Z</time>
      </trkpt>
      <trkpt lat="43.2344" lon="-0.00092">
        <ele>328.91</ele>
        <time>2021-08-19T16:01:26Z</time>
      </trkpt>
      <trkpt lat="43.23439" lon="-0.00086">
        <ele>328.91</ele>
        <time>2021-08-19T16:01:27Z</time>
      </trkpt>
      <trkpt lat="43.23437" lon="-0.0008">
        <ele>328.91</ele>
        <time>2021-08-19T16:01:28Z</time>
      </trkpt>
      <trkpt lat="43.23435" lon="-0.00073">
        <ele>328.91</ele>
        <time>2021-08-19T16:01:29Z</time>
      </trkpt>
      <trkpt lat="43.23431" lon="-0.00068">
        <ele>328.91</ele>
        <time>2021-08-19T16:01:30Z</time>
      </trkpt>
      <trkpt lat="43.23427" lon="-0.00064">
        <ele>328.91</ele>
        <time>2021-08-19T16:01:31Z</time>
      </trkpt>
      <trkpt lat="43.23423" lon="-0.0006">
        <ele>328.91</ele>
        <time>2021-08-19T16:01:32Z</time>
      </trkpt>
      <trkpt lat="43.23418" lon="-0.00056">
        <ele>328.91</ele>
        <time>2021-08-19T16:01:33Z</time>
      </trkpt>
      <trkpt lat="43.23413" lon="-0.00054">
        <ele>328.91</ele>
        <time>2021-08-19T16:01:34Z</time>
      </trkpt>
      <trkpt lat="43.23407" lon="-0.00052">
        <ele>328.91</ele>
        <time>2021-08-19T16:01:35Z</time>
      </trkpt>
      <trkpt lat="43.23402" lon="-0.00049">
        <ele>328.91</ele>
        <time>2021-08-19T16:01:36Z</time>
      </trkpt>
      <trkpt lat="43.23398" lon="-0.00043">
        <ele>328.43</ele>
        <time>2021-08-19T16:01:37Z</time>
      </trkpt>
      <trkpt lat="43.23395" lon="-0.00037">
        <ele>328.43</ele>
        <time>2021-08-19T16:01:38Z</time>
      </trkpt>
      <trkpt lat="43.23393" lon="-0.00031">
        <ele>328.43</ele>
        <time>2021-08-19T16:01:39Z</time>
      </trkpt>
      <trkpt lat="43.23392" lon="-0.00023">
        <ele>328.43</ele>
        <time>2021-08-19T16:01:40Z</time>
      </trkpt>
      <trkpt lat="43.23391" lon="-0.00016">
        <ele>328.43</ele>
        <time>2021-08-19T16:01:41Z</time>
      </trkpt>
      <trkpt lat="43.2338" lon="0.0005">
        <ele>328.43</ele>
        <time>2021-08-19T16:01:50Z</time>
      </trkpt>
      <trkpt lat="43.23368" lon="0.001">
        <ele>328.43</ele>
        <time>2021-08-19T16:01:58Z</time>
      </trkpt>
      <trkpt lat="43.23362" lon="0.00116">
        <ele>328.43</ele>
        <time>2021-08-19T16:02:03Z</time>
      </trkpt>
      <trkpt lat="43.2336" lon="0.00116">
        <ele>328.43</ele>
        <time>2021-08-19T16:02:04Z</time>
      </trkpt>
      <trkpt lat="43.23359" lon="0.00116">
        <ele>328.43</ele>
        <time>2021-08-19T16:02:05Z</time>
      </trkpt>
      <trkpt lat="43.23358" lon="0.00116">
        <ele>328.43</ele>
        <time>2021-08-19T16:02:06Z</time>
      </trkpt>
      <trkpt lat="43.23357" lon="0.00115">
        <ele>328.43</ele>
        <time>2021-08-19T16:02:07Z</time>
      </trkpt>
      <trkpt lat="43.23355" lon="0.00114">
        <ele>328.43</ele>
        <time>2021-08-19T16:02:08Z</time>
      </trkpt>
      <trkpt lat="43.23353" lon="0.00112">
        <ele>328.43</ele>
        <time>2021-08-19T16:02:09Z</time>
      </trkpt>
      <trkpt lat="43.23352" lon="0.00111">
        <ele>328.43</ele>
        <time>2021-08-19T16:02:10Z</time>
      </trkpt>
      <trkpt lat="43.23351" lon="0.0011">
        <ele>328.43</ele>
        <time>2021-08-19T16:02:11Z</time>
      </trkpt>
      <trkpt lat="43.2335" lon="0.00109">
        <ele>328.91</ele>
        <time>2021-08-19T16:02:12Z</time>
      </trkpt>
      <trkpt lat="43.23348" lon="0.00108">
        <ele>328.91</ele>
        <time>2021-08-19T16:02:13Z</time>
      </trkpt>
      <trkpt lat="43.23347" lon="0.00108">
        <ele>328.91</ele>
        <time>2021-08-19T16:02:14Z</time>
      </trkpt>
      <trkpt lat="43.23342" lon="0.00108">
        <ele>328.91</ele>
        <time>2021-08-19T16:02:18Z</time>
      </trkpt>
      <trkpt lat="43.23342" lon="0.00109">
        <ele>328.91</ele>
        <time>2021-08-19T16:02:19Z</time>
      </trkpt>
      <trkpt lat="43.23341" lon="0.0011">
        <ele>328.91</ele>
        <time>2021-08-19T16:02:20Z</time>
      </trkpt>
      <trkpt lat="43.23341" lon="0.00113">
        <ele>328.91</ele>
        <time>2021-08-19T16:02:21Z</time>
      </trkpt>
      <trkpt lat="43.23342" lon="0.00115">
        <ele>328.91</ele>
        <time>2021-08-19T16:02:22Z</time>
      </trkpt>
      <trkpt lat="43.23343" lon="0.00117">
        <ele>328.91</ele>
        <time>2021-08-19T16:02:23Z</time>
      </trkpt>
      <trkpt lat="43.23344" lon="0.00118">
        <ele>328.91</ele>
        <time>2021-08-19T16:02:24Z</time>
      </trkpt>
      <trkpt lat="43.23346" lon="0.00119">
        <ele>328.91</ele>
        <time>2021-08-19T16:02:25Z</time>
      </trkpt>
      <trkpt lat="43.23347" lon="0.0012">
        <ele>328.91</ele>
        <time>2021-08-19T16:02:26Z</time>
      </trkpt>
      <trkpt lat="43.23358" lon="0.00123">
        <ele>328.91</ele>
        <time>2021-08-19T16:02:31Z</time>
      </trkpt>
      <trkpt lat="43.23358" lon="0.00121">
        <ele>328.91</ele>
        <time>2021-08-19T16:02:32Z</time>
      </trkpt>
      <trkpt lat="43.23359" lon="0.00119">
        <ele>328.91</ele>
        <time>2021-08-19T16:02:33Z</time>
      </trkpt>
      <trkpt lat="43.23361" lon="0.00117">
        <ele>328.91</ele>
        <time>2021-08-19T16:02:34Z</time>
      </trkpt>
      <trkpt lat="43.23363" lon="0.00115">
        <ele>328.91</ele>
        <time>2021-08-19T16:02:35Z</time>
      </trkpt>
      <trkpt lat="43.23364" lon="0.00113">
        <ele>328.91</ele>
        <time>2021-08-19T16:02:36Z</time>
      </trkpt>
      <trkpt lat="43.23365" lon="0.00111">
        <ele>328.91</ele>
        <time>2021-08-19T16:02:37Z</time>
      </trkpt>
      <trkpt lat="43.23365" lon="0.00108">
        <ele>328.91</ele>
        <time>2021-08-19T16:02:38Z</time>
      </trkpt>
      <trkpt lat="43.23364" lon="0.00105">
        <ele>328.91</ele>
        <time>2021-08-19T16:02:39Z</time>
      </trkpt>
      <trkpt lat="43.23363" lon="0.00104">
        <ele>328.91</ele>
        <time>2021-08-19T16:02:40Z</time>
      </trkpt>
      <trkpt lat="43.23362" lon="0.00102">
        <ele>328.91</ele>
        <time>2021-08-19T16:02:41Z</time>
      </trkpt>
      <trkpt lat="43.2336" lon="0.00101">
        <ele>328.91</ele>
        <time>2021-08-19T16:02:49Z</time>
      </trkpt>
      <trkpt lat="43.23363" lon="0.00098">
        <ele>328.91</ele>
        <time>2021-08-19T16:03:06Z</time>
      </trkpt>
      <trkpt lat="43.23367" lon="0.00095">
        <ele>328.91</ele>
        <time>2021-08-19T16:03:27Z</time>
      </trkpt>
      <trkpt lat="43.23374" lon="0.00094">
        <ele>328.43</ele>
        <time>2021-08-19T16:03:48Z</time>
      </trkpt>
      <trkpt lat="43.23375" lon="0.00093">
        <ele>328.43</ele>
        <time>2021-08-19T16:04:02Z</time>
      </trkpt>
      <trkpt lat="43.23377" lon="0.00092">
        <ele>328.43</ele>
        <time>2021-08-19T16:04:18Z</time>
      </trkpt>
      <trkpt lat="43.23382" lon="0.00092">
        <ele>328.43</ele>
        <time>2021-08-19T16:04:36Z</time>
      </trkpt>
      <trkpt lat="43.23383" lon="0.00091">
        <ele>328.91</ele>
        <time>2021-08-19T16:04:55Z</time>
      </trkpt>
      <trkpt lat="43.23383" lon="0.00091">
        <ele>328.91</ele>
        <time>2021-08-19T16:05:10Z</time>
      </trkpt>
      <trkpt lat="43.23382" lon="0.00089">
        <ele>328.91</ele>
        <time>2021-08-19T16:05:24Z</time>
      </trkpt>
      <trkpt lat="43.2338" lon="0.00089">
        <ele>328.91</ele>
        <time>2021-08-19T16:05:43Z</time>
      </trkpt>
      <trkpt lat="43.2338" lon="0.0009">
        <ele>328.91</ele>
        <time>2021-08-19T16:05:57Z</time>
      </trkpt>
      <trkpt lat="43.2338" lon="0.0009">
        <ele>328.91</ele>
        <time>2021-08-19T16:06:13Z</time>
      </trkpt>
      <trkpt lat="43.23377" lon="0.00093">
        <ele>328.91</ele>
        <time>2021-08-19T16:06:27Z</time>
      </trkpt>
      <trkpt lat="43.23375" lon="0.00093">
        <ele>328.91</ele>
        <time>2021-08-19T16:06:37Z</time>
      </trkpt>
      <trkpt lat="43.23375" lon="0.00102">
        <ele>328.91</ele>
        <time>2021-08-19T16:06:45Z</time>
      </trkpt>
      <trkpt lat="43.23375" lon="0.00103">
        <ele>328.91</ele>
        <time>2021-08-19T16:06:46Z</time>
      </trkpt>
      <trkpt lat="43.23371" lon="0.0011">
        <ele>328.91</ele>
        <time>2021-08-19T16:06:54Z</time>
      </trkpt>
      <trkpt lat="43.2337" lon="0.00111">
        <ele>328.91</ele>
        <time>2021-08-19T16:07:10Z</time>
      </trkpt>
      <trkpt lat="43.23369" lon="0.00112">
        <ele>328.91</ele>
        <time>2021-08-19T16:07:22Z</time>
      </trkpt>
      <trkpt lat="43.2337" lon="0.00113">
        <ele>328.91</ele>
        <time>2021-08-19T16:07:33Z</time>
      </trkpt>
      <trkpt lat="43.23368" lon="0.00115">
        <ele>328.91</ele>
        <time>2021-08-19T16:07:36Z</time>
      </trkpt>
      <trkpt lat="43.23366" lon="0.00118">
        <ele>328.91</ele>
        <time>2021-08-19T16:07:38Z</time>
      </trkpt>
      <trkpt lat="43.23364" lon="0.00119">
        <ele>328.91</ele>
        <time>2021-08-19T16:07:39Z</time>
      </trkpt>
      <trkpt lat="43.23362" lon="0.00121">
        <ele>328.91</ele>
        <time>2021-08-19T16:07:40Z</time>
      </trkpt>
      <trkpt lat="43.2336" lon="0.00123">
        <ele>328.91</ele>
        <time>2021-08-19T16:07:41Z</time>
      </trkpt>
      <trkpt lat="43.23358" lon="0.00126">
        <ele>328.91</ele>
        <time>2021-08-19T16:07:42Z</time>
      </trkpt>
      <trkpt lat="43.23356" lon="0.00127">
        <ele>328.91</ele>
        <time>2021-08-19T16:07:43Z</time>
      </trkpt>
      <trkpt lat="43.23353" lon="0.00128">
        <ele>328.91</ele>
        <time>2021-08-19T16:07:44Z</time>
      </trkpt>
      <trkpt lat="43.2335" lon="0.00127">
        <ele>328.91</ele>
        <time>2021-08-19T16:07:45Z</time>
      </trkpt>
      <trkpt lat="43.23347" lon="0.00126">
        <ele>328.91</ele>
        <time>2021-08-19T16:07:46Z</time>
      </trkpt>
      <trkpt lat="43.23344" lon="0.00124">
        <ele>328.91</ele>
        <time>2021-08-19T16:07:47Z</time>
      </trkpt>
      <trkpt lat="43.23309" lon="0.00107">
        <ele>328.91</ele>
        <time>2021-08-19T16:07:57Z</time>
      </trkpt>
      <trkpt lat="43.23288" lon="0.001">
        <ele>329.39</ele>
        <time>2021-08-19T16:08:02Z</time>
      </trkpt>
      <trkpt lat="43.23285" lon="0.00098">
        <ele>329.39</ele>
        <time>2021-08-19T16:08:03Z</time>
      </trkpt>
      <trkpt lat="43.23281" lon="0.00096">
        <ele>328.91</ele>
        <time>2021-08-19T16:08:04Z</time>
      </trkpt>
      <trkpt lat="43.23252" lon="0.00076">
        <ele>328.91</ele>
        <time>2021-08-19T16:08:12Z</time>
      </trkpt>
      <trkpt lat="43.23234" lon="0.00069">
        <ele>328.91</ele>
        <time>2021-08-19T16:08:16Z</time>
      </trkpt>
      <trkpt lat="43.23198" lon="0.00064">
        <ele>328.91</ele>
        <time>2021-08-19T16:08:24Z</time>
      </trkpt>
      <trkpt lat="43.23179" lon="0.0006">
        <ele>328.91</ele>
        <time>2021-08-19T16:08:28Z</time>
      </trkpt>
      <trkpt lat="43.23139" lon="0.00037">
        <ele>329.39</ele>
        <time>2021-08-19T16:08:36Z</time>
      </trkpt>
      <trkpt lat="43.23103" lon="0.00016">
        <ele>329.39</ele>
        <time>2021-08-19T16:08:43Z</time>
      </trkpt>
      <trkpt lat="43.23098" lon="0.00014">
        <ele>329.39</ele>
        <time>2021-08-19T16:08:44Z</time>
      </trkpt>
      <trkpt lat="43.23054" lon="4.0E-5">
        <ele>329.87</ele>
        <time>2021-08-19T16:08:52Z</time>
      </trkpt>
      <trkpt lat="43.23001" lon="-0.00013">
        <ele>330.35</ele>
        <time>2021-08-19T16:09:02Z</time>
      </trkpt>
      <trkpt lat="43.22963" lon="-0.00015">
        <ele>330.35</ele>
        <time>2021-08-19T16:09:09Z</time>
      </trkpt>
      <trkpt lat="43.22913" lon="-0.00017">
        <ele>330.83</ele>
        <time>2021-08-19T16:09:18Z</time>
      </trkpt>
      <trkpt lat="43.22902" lon="-0.00018">
        <ele>330.83</ele>
        <time>2021-08-19T16:09:20Z</time>
      </trkpt>
      <trkpt lat="43.22864" lon="-0.00028">
        <ele>331.31</ele>
        <time>2021-08-19T16:09:27Z</time>
      </trkpt>
      <trkpt lat="43.22827" lon="-0.00038">
        <ele>331.31</ele>
        <time>2021-08-19T16:09:34Z</time>
      </trkpt>
      <trkpt lat="43.22805" lon="-0.0004">
        <ele>331.31</ele>
        <time>2021-08-19T16:09:38Z</time>
      </trkpt>
      <trkpt lat="43.228" lon="-0.0004">
        <ele>331.79</ele>
        <time>2021-08-19T16:09:39Z</time>
      </trkpt>
      <trkpt lat="43.22795" lon="-0.0004">
        <ele>331.79</ele>
        <time>2021-08-19T16:09:40Z</time>
      </trkpt>
      <trkpt lat="43.2279" lon="-0.00041">
        <ele>332.27</ele>
        <time>2021-08-19T16:09:41Z</time>
      </trkpt>
      <trkpt lat="43.22785" lon="-0.00044">
        <ele>332.27</ele>
        <time>2021-08-19T16:09:42Z</time>
      </trkpt>
      <trkpt lat="43.2278" lon="-0.00046">
        <ele>332.27</ele>
        <time>2021-08-19T16:09:43Z</time>
      </trkpt>
      <trkpt lat="43.22775" lon="-0.00049">
        <ele>332.27</ele>
        <time>2021-08-19T16:09:44Z</time>
      </trkpt>
      <trkpt lat="43.22771" lon="-0.00051">
        <ele>332.27</ele>
        <time>2021-08-19T16:09:45Z</time>
      </trkpt>
      <trkpt lat="43.22766" lon="-0.00053">
        <ele>332.27</ele>
        <time>2021-08-19T16:09:46Z</time>
      </trkpt>
      <trkpt lat="43.22761" lon="-0.00055">
        <ele>332.75</ele>
        <time>2021-08-19T16:09:47Z</time>
      </trkpt>
      <trkpt lat="43.22756" lon="-0.00056">
        <ele>332.75</ele>
        <time>2021-08-19T16:09:48Z</time>
      </trkpt>
      <trkpt lat="43.22711" lon="-0.00075">
        <ele>332.75</ele>
        <time>2021-08-19T16:09:57Z</time>
      </trkpt>
      <trkpt lat="43.22691" lon="-0.00086">
        <ele>333.71</ele>
        <time>2021-08-19T16:10:01Z</time>
      </trkpt>
      <trkpt lat="43.22686" lon="-0.00087">
        <ele>333.71</ele>
        <time>2021-08-19T16:10:02Z</time>
      </trkpt>
      <trkpt lat="43.22659" lon="-0.00095">
        <ele>333.71</ele>
        <time>2021-08-19T16:10:07Z</time>
      </trkpt>
      <trkpt lat="43.2261" lon="-0.0012">
        <ele>334.2</ele>
        <time>2021-08-19T16:10:17Z</time>
      </trkpt>
      <trkpt lat="43.22573" lon="-0.00146">
        <ele>334.68</ele>
        <time>2021-08-19T16:10:25Z</time>
      </trkpt>
      <trkpt lat="43.22536" lon="-0.00169">
        <ele>335.16</ele>
        <time>2021-08-19T16:10:33Z</time>
      </trkpt>
      <trkpt lat="43.22499" lon="-0.00188">
        <ele>335.64</ele>
        <time>2021-08-19T16:10:41Z</time>
      </trkpt>
      <trkpt lat="43.22492" lon="-0.00191">
        <ele>336.12</ele>
        <time>2021-08-19T16:10:42Z</time>
      </trkpt>
      <trkpt lat="43.22461" lon="-0.00204">
        <ele>336.12</ele>
        <time>2021-08-19T16:10:48Z</time>
      </trkpt>
      <trkpt lat="43.22421" lon="-0.00219">
        <ele>336.6</ele>
        <time>2021-08-19T16:10:56Z</time>
      </trkpt>
      <trkpt lat="43.22374" lon="-0.0024">
        <ele>337.08</ele>
        <time>2021-08-19T16:11:06Z</time>
      </trkpt>
      <trkpt lat="43.22341" lon="-0.00258">
        <ele>337.56</ele>
        <time>2021-08-19T16:11:13Z</time>
      </trkpt>
      <trkpt lat="43.22301" lon="-0.00285">
        <ele>338.04</ele>
        <time>2021-08-19T16:11:22Z</time>
      </trkpt>
      <trkpt lat="43.22261" lon="-0.00313">
        <ele>339.48</ele>
        <time>2021-08-19T16:11:32Z</time>
      </trkpt>
      <trkpt lat="43.22221" lon="-0.00341">
        <ele>341.41</ele>
        <time>2021-08-19T16:11:43Z</time>
      </trkpt>
      <trkpt lat="43.222" lon="-0.00358">
        <ele>342.37</ele>
        <time>2021-08-19T16:11:50Z</time>
      </trkpt>
      <trkpt lat="43.22172" lon="-0.00379">
        <ele>343.33</ele>
        <time>2021-08-19T16:11:58Z</time>
      </trkpt>
      <trkpt lat="43.22133" lon="-0.00407">
        <ele>343.33</ele>
        <time>2021-08-19T16:12:07Z</time>
      </trkpt>
      <trkpt lat="43.22095" lon="-0.00431">
        <ele>341.89</ele>
        <time>2021-08-19T16:12:14Z</time>
      </trkpt>
      <trkpt lat="43.2204" lon="-0.00458">
        <ele>339.96</ele>
        <time>2021-08-19T16:12:22Z</time>
      </trkpt>
      <trkpt lat="43.21982" lon="-0.00487">
        <ele>339.96</ele>
        <time>2021-08-19T16:12:31Z</time>
      </trkpt>
      <trkpt lat="43.21905" lon="-0.00517">
        <ele>340.92</ele>
        <time>2021-08-19T16:12:43Z</time>
      </trkpt>
      <trkpt lat="43.21835" lon="-0.00542">
        <ele>341.41</ele>
        <time>2021-08-19T16:12:54Z</time>
      </trkpt>
      <trkpt lat="43.2179" lon="-0.00558">
        <ele>341.89</ele>
        <time>2021-08-19T16:13:01Z</time>
      </trkpt>
      <trkpt lat="43.2173" lon="-0.00596">
        <ele>341.89</ele>
        <time>2021-08-19T16:13:11Z</time>
      </trkpt>
      <trkpt lat="43.21676" lon="-0.00629">
        <ele>342.37</ele>
        <time>2021-08-19T16:13:20Z</time>
      </trkpt>
      <trkpt lat="43.21627" lon="-0.00652">
        <ele>342.37</ele>
        <time>2021-08-19T16:13:28Z</time>
      </trkpt>
      <trkpt lat="43.21572" lon="-0.00673">
        <ele>342.85</ele>
        <time>2021-08-19T16:13:37Z</time>
      </trkpt>
      <trkpt lat="43.21512" lon="-0.00699">
        <ele>343.33</ele>
        <time>2021-08-19T16:13:47Z</time>
      </trkpt>
      <trkpt lat="43.21446" lon="-0.00724">
        <ele>343.33</ele>
        <time>2021-08-19T16:13:58Z</time>
      </trkpt>
      <trkpt lat="43.21393" lon="-0.00735">
        <ele>343.81</ele>
        <time>2021-08-19T16:14:07Z</time>
      </trkpt>
      <trkpt lat="43.21351" lon="-0.00738">
        <ele>343.81</ele>
        <time>2021-08-19T16:14:14Z</time>
      </trkpt>
      <trkpt lat="43.21305" lon="-0.00738">
        <ele>344.29</ele>
        <time>2021-08-19T16:14:22Z</time>
      </trkpt>
      <trkpt lat="43.213" lon="-0.00738">
        <ele>344.29</ele>
        <time>2021-08-19T16:14:23Z</time>
      </trkpt>
      <trkpt lat="43.2127" lon="-0.0073">
        <ele>344.29</ele>
        <time>2021-08-19T16:14:29Z</time>
      </trkpt>
      <trkpt lat="43.21265" lon="-0.00727">
        <ele>344.29</ele>
        <time>2021-08-19T16:14:30Z</time>
      </trkpt>
      <trkpt lat="43.2124" lon="-0.00712">
        <ele>344.77</ele>
        <time>2021-08-19T16:14:35Z</time>
      </trkpt>
      <trkpt lat="43.21213" lon="-0.00704">
        <ele>344.77</ele>
        <time>2021-08-19T16:14:40Z</time>
      </trkpt>
      <trkpt lat="43.21167" lon="-0.00701">
        <ele>345.25</ele>
        <time>2021-08-19T16:14:49Z</time>
      </trkpt>
      <trkpt lat="43.21161" lon="-0.00702">
        <ele>345.25</ele>
        <time>2021-08-19T16:14:50Z</time>
      </trkpt>
      <trkpt lat="43.21157" lon="-0.00703">
        <ele>345.25</ele>
        <time>2021-08-19T16:14:51Z</time>
      </trkpt>
      <trkpt lat="43.21151" lon="-0.00703">
        <ele>345.25</ele>
        <time>2021-08-19T16:14:52Z</time>
      </trkpt>
      <trkpt lat="43.21146" lon="-0.00702">
        <ele>345.25</ele>
        <time>2021-08-19T16:14:53Z</time>
      </trkpt>
      <trkpt lat="43.21141" lon="-0.00701">
        <ele>345.25</ele>
        <time>2021-08-19T16:14:54Z</time>
      </trkpt>
      <trkpt lat="43.21137" lon="-0.007">
        <ele>345.25</ele>
        <time>2021-08-19T16:14:55Z</time>
      </trkpt>
      <trkpt lat="43.21091" lon="-0.00694">
        <ele>345.73</ele>
        <time>2021-08-19T16:15:04Z</time>
      </trkpt>
      <trkpt lat="43.21065" lon="-0.0069">
        <ele>346.21</ele>
        <time>2021-08-19T16:15:09Z</time>
      </trkpt>
      <trkpt lat="43.2106" lon="-0.00688">
        <ele>346.21</ele>
        <time>2021-08-19T16:15:10Z</time>
      </trkpt>
      <trkpt lat="43.21034" lon="-0.00681">
        <ele>346.69</ele>
        <time>2021-08-19T16:15:15Z</time>
      </trkpt>
      <trkpt lat="43.21029" lon="-0.00679">
        <ele>346.69</ele>
        <time>2021-08-19T16:15:16Z</time>
      </trkpt>
      <trkpt lat="43.21013" lon="-0.00677">
        <ele>346.69</ele>
        <time>2021-08-19T16:15:19Z</time>
      </trkpt>
      <trkpt lat="43.21009" lon="-0.00678">
        <ele>346.69</ele>
        <time>2021-08-19T16:15:20Z</time>
      </trkpt>
      <trkpt lat="43.20998" lon="-0.0068">
        <ele>346.69</ele>
        <time>2021-08-19T16:15:22Z</time>
      </trkpt>
      <trkpt lat="43.20988" lon="-0.00685">
        <ele>346.69</ele>
        <time>2021-08-19T16:15:24Z</time>
      </trkpt>
      <trkpt lat="43.20983" lon="-0.00688">
        <ele>346.69</ele>
        <time>2021-08-19T16:15:25Z</time>
      </trkpt>
      <trkpt lat="43.20973" lon="-0.00696">
        <ele>346.69</ele>
        <time>2021-08-19T16:15:27Z</time>
      </trkpt>
      <trkpt lat="43.20969" lon="-0.00699">
        <ele>346.69</ele>
        <time>2021-08-19T16:15:28Z</time>
      </trkpt>
      <trkpt lat="43.20933" lon="-0.00734">
        <ele>346.69</ele>
        <time>2021-08-19T16:15:36Z</time>
      </trkpt>
      <trkpt lat="43.20899" lon="-0.00753">
        <ele>347.65</ele>
        <time>2021-08-19T16:15:43Z</time>
      </trkpt>
      <trkpt lat="43.20895" lon="-0.00757">
        <ele>347.65</ele>
        <time>2021-08-19T16:15:44Z</time>
      </trkpt>
      <trkpt lat="43.20891" lon="-0.0076">
        <ele>347.65</ele>
        <time>2021-08-19T16:15:45Z</time>
      </trkpt>
      <trkpt lat="43.20871" lon="-0.0077">
        <ele>348.13</ele>
        <time>2021-08-19T16:15:49Z</time>
      </trkpt>
      <trkpt lat="43.20861" lon="-0.00774">
        <ele>348.13</ele>
        <time>2021-08-19T16:15:51Z</time>
      </trkpt>
      <trkpt lat="43.20856" lon="-0.00777">
        <ele>348.13</ele>
        <time>2021-08-19T16:15:52Z</time>
      </trkpt>
      <trkpt lat="43.2085" lon="-0.00779">
        <ele>348.13</ele>
        <time>2021-08-19T16:15:53Z</time>
      </trkpt>
      <trkpt lat="43.20802" lon="-0.00787">
        <ele>348.13</ele>
        <time>2021-08-19T16:16:02Z</time>
      </trkpt>
      <trkpt lat="43.20791" lon="-0.0079">
        <ele>348.13</ele>
        <time>2021-08-19T16:16:04Z</time>
      </trkpt>
      <trkpt lat="43.2078" lon="-0.00795">
        <ele>348.62</ele>
        <time>2021-08-19T16:16:06Z</time>
      </trkpt>
      <trkpt lat="43.20775" lon="-0.00799">
        <ele>348.62</ele>
        <time>2021-08-19T16:16:07Z</time>
      </trkpt>
      <trkpt lat="43.20769" lon="-0.00802">
        <ele>348.62</ele>
        <time>2021-08-19T16:16:08Z</time>
      </trkpt>
      <trkpt lat="43.20764" lon="-0.00806">
        <ele>348.62</ele>
        <time>2021-08-19T16:16:09Z</time>
      </trkpt>
      <trkpt lat="43.20759" lon="-0.0081">
        <ele>348.62</ele>
        <time>2021-08-19T16:16:10Z</time>
      </trkpt>
      <trkpt lat="43.20749" lon="-0.0082">
        <ele>348.62</ele>
        <time>2021-08-19T16:16:12Z</time>
      </trkpt>
      <trkpt lat="43.20747" lon="-0.00827">
        <ele>348.62</ele>
        <time>2021-08-19T16:16:13Z</time>
      </trkpt>
      <trkpt lat="43.20744" lon="-0.00833">
        <ele>348.62</ele>
        <time>2021-08-19T16:16:14Z</time>
      </trkpt>
      <trkpt lat="43.20742" lon="-0.00841">
        <ele>348.62</ele>
        <time>2021-08-19T16:16:15Z</time>
      </trkpt>
      <trkpt lat="43.20739" lon="-0.00846">
        <ele>349.1</ele>
        <time>2021-08-19T16:16:16Z</time>
      </trkpt>
      <trkpt lat="43.20736" lon="-0.00853">
        <ele>349.1</ele>
        <time>2021-08-19T16:16:17Z</time>
      </trkpt>
      <trkpt lat="43.20734" lon="-0.0086">
        <ele>349.1</ele>
        <time>2021-08-19T16:16:18Z</time>
      </trkpt>
      <trkpt lat="43.20732" lon="-0.00867">
        <ele>349.1</ele>
        <time>2021-08-19T16:16:19Z</time>
      </trkpt>
      <trkpt lat="43.20728" lon="-0.00873">
        <ele>349.1</ele>
        <time>2021-08-19T16:16:20Z</time>
      </trkpt>
      <trkpt lat="43.20724" lon="-0.00878">
        <ele>349.1</ele>
        <time>2021-08-19T16:16:21Z</time>
      </trkpt>
      <trkpt lat="43.2072" lon="-0.00883">
        <ele>349.1</ele>
        <time>2021-08-19T16:16:22Z</time>
      </trkpt>
      <trkpt lat="43.20715" lon="-0.00884">
        <ele>349.1</ele>
        <time>2021-08-19T16:16:23Z</time>
      </trkpt>
      <trkpt lat="43.2071" lon="-0.00885">
        <ele>349.1</ele>
        <time>2021-08-19T16:16:24Z</time>
      </trkpt>
      <trkpt lat="43.20704" lon="-0.00885">
        <ele>349.1</ele>
        <time>2021-08-19T16:16:25Z</time>
      </trkpt>
      <trkpt lat="43.20699" lon="-0.00885">
        <ele>349.1</ele>
        <time>2021-08-19T16:16:26Z</time>
      </trkpt>
      <trkpt lat="43.20642" lon="-0.00881">
        <ele>349.58</ele>
        <time>2021-08-19T16:16:36Z</time>
      </trkpt>
      <trkpt lat="43.20604" lon="-0.00875">
        <ele>350.54</ele>
        <time>2021-08-19T16:16:43Z</time>
      </trkpt>
      <trkpt lat="43.20559" lon="-0.0087">
        <ele>351.02</ele>
        <time>2021-08-19T16:16:52Z</time>
      </trkpt>
      <trkpt lat="43.20536" lon="-0.0087">
        <ele>351.02</ele>
        <time>2021-08-19T16:16:56Z</time>
      </trkpt>
      <trkpt lat="43.20531" lon="-0.00871">
        <ele>351.02</ele>
        <time>2021-08-19T16:16:57Z</time>
      </trkpt>
      <trkpt lat="43.2049" lon="-0.00891">
        <ele>351.98</ele>
        <time>2021-08-19T16:17:05Z</time>
      </trkpt>
      <trkpt lat="43.20482" lon="-0.00898">
        <ele>351.98</ele>
        <time>2021-08-19T16:17:07Z</time>
      </trkpt>
      <trkpt lat="43.20478" lon="-0.00903">
        <ele>351.98</ele>
        <time>2021-08-19T16:17:08Z</time>
      </trkpt>
      <trkpt lat="43.20476" lon="-0.00909">
        <ele>351.98</ele>
        <time>2021-08-19T16:17:09Z</time>
      </trkpt>
      <trkpt lat="43.20473" lon="-0.00914">
        <ele>351.98</ele>
        <time>2021-08-19T16:17:10Z</time>
      </trkpt>
      <trkpt lat="43.2047" lon="-0.00919">
        <ele>352.46</ele>
        <time>2021-08-19T16:17:11Z</time>
      </trkpt>
      <trkpt lat="43.20444" lon="-0.00962">
        <ele>352.46</ele>
        <time>2021-08-19T16:17:19Z</time>
      </trkpt>
      <trkpt lat="43.20436" lon="-0.00978">
        <ele>352.46</ele>
        <time>2021-08-19T16:17:22Z</time>
      </trkpt>
      <trkpt lat="43.20409" lon="-0.01023">
        <ele>352.46</ele>
        <time>2021-08-19T16:17:31Z</time>
      </trkpt>
      <trkpt lat="43.20376" lon="-0.01071">
        <ele>352.46</ele>
        <time>2021-08-19T16:17:40Z</time>
      </trkpt>
      <trkpt lat="43.20349" lon="-0.01106">
        <ele>353.42</ele>
        <time>2021-08-19T16:17:47Z</time>
      </trkpt>
      <trkpt lat="43.20346" lon="-0.0111">
        <ele>353.42</ele>
        <time>2021-08-19T16:17:48Z</time>
      </trkpt>
      <trkpt lat="43.20338" lon="-0.0112">
        <ele>353.42</ele>
        <time>2021-08-19T16:17:50Z</time>
      </trkpt>
      <trkpt lat="43.20303" lon="-0.01161">
        <ele>353.42</ele>
        <time>2021-08-19T16:17:59Z</time>
      </trkpt>
      <trkpt lat="43.20256" lon="-0.01216">
        <ele>354.38</ele>
        <time>2021-08-19T16:18:11Z</time>
      </trkpt>
      <trkpt lat="43.20218" lon="-0.0126">
        <ele>354.38</ele>
        <time>2021-08-19T16:18:21Z</time>
      </trkpt>
      <trkpt lat="43.20206" lon="-0.01274">
        <ele>354.38</ele>
        <time>2021-08-19T16:18:24Z</time>
      </trkpt>
      <trkpt lat="43.20201" lon="-0.01278">
        <ele>354.38</ele>
        <time>2021-08-19T16:18:25Z</time>
      </trkpt>
      <trkpt lat="43.20178" lon="-0.01306">
        <ele>354.38</ele>
        <time>2021-08-19T16:18:31Z</time>
      </trkpt>
      <trkpt lat="43.20174" lon="-0.01311">
        <ele>354.38</ele>
        <time>2021-08-19T16:18:32Z</time>
      </trkpt>
      <trkpt lat="43.20128" lon="-0.01365">
        <ele>354.38</ele>
        <time>2021-08-19T16:18:43Z</time>
      </trkpt>
      <trkpt lat="43.20082" lon="-0.0142">
        <ele>354.86</ele>
        <time>2021-08-19T16:18:54Z</time>
      </trkpt>
      <trkpt lat="43.20031" lon="-0.01467">
        <ele>355.34</ele>
        <time>2021-08-19T16:19:05Z</time>
      </trkpt>
      <trkpt lat="43.19994" lon="-0.01499">
        <ele>355.83</ele>
        <time>2021-08-19T16:19:13Z</time>
      </trkpt>
      <trkpt lat="43.1995" lon="-0.01535">
        <ele>355.83</ele>
        <time>2021-08-19T16:19:22Z</time>
      </trkpt>
      <trkpt lat="43.19902" lon="-0.01573">
        <ele>356.31</ele>
        <time>2021-08-19T16:19:32Z</time>
      </trkpt>
      <trkpt lat="43.1987" lon="-0.01601">
        <ele>356.79</ele>
        <time>2021-08-19T16:19:39Z</time>
      </trkpt>
      <trkpt lat="43.19852" lon="-0.01614">
        <ele>356.79</ele>
        <time>2021-08-19T16:19:43Z</time>
      </trkpt>
      <trkpt lat="43.19844" lon="-0.0162">
        <ele>357.27</ele>
        <time>2021-08-19T16:19:45Z</time>
      </trkpt>
      <trkpt lat="43.1982" lon="-0.01638">
        <ele>357.27</ele>
        <time>2021-08-19T16:19:51Z</time>
      </trkpt>
      <trkpt lat="43.19785" lon="-0.01666">
        <ele>357.75</ele>
        <time>2021-08-19T16:20:00Z</time>
      </trkpt>
      <trkpt lat="43.19774" lon="-0.01673">
        <ele>357.75</ele>
        <time>2021-08-19T16:20:03Z</time>
      </trkpt>
      <trkpt lat="43.19771" lon="-0.01677">
        <ele>357.75</ele>
        <time>2021-08-19T16:20:04Z</time>
      </trkpt>
      <trkpt lat="43.19768" lon="-0.0168">
        <ele>357.75</ele>
        <time>2021-08-19T16:20:05Z</time>
      </trkpt>
      <trkpt lat="43.1973" lon="-0.0171">
        <ele>357.75</ele>
        <time>2021-08-19T16:20:14Z</time>
      </trkpt>
      <trkpt lat="43.19686" lon="-0.01745">
        <ele>357.75</ele>
        <time>2021-08-19T16:20:23Z</time>
      </trkpt>
      <trkpt lat="43.19666" lon="-0.01761">
        <ele>358.23</ele>
        <time>2021-08-19T16:20:27Z</time>
      </trkpt>
      <trkpt lat="43.1966" lon="-0.01765">
        <ele>358.23</ele>
        <time>2021-08-19T16:20:28Z</time>
      </trkpt>
      <trkpt lat="43.19604" lon="-0.01811">
        <ele>358.71</ele>
        <time>2021-08-19T16:20:38Z</time>
      </trkpt>
      <trkpt lat="43.19565" lon="-0.01835">
        <ele>359.19</ele>
        <time>2021-08-19T16:20:44Z</time>
      </trkpt>
      <trkpt lat="43.19546" lon="-0.01843">
        <ele>359.19</ele>
        <time>2021-08-19T16:20:47Z</time>
      </trkpt>
      <trkpt lat="43.19539" lon="-0.01845">
        <ele>359.19</ele>
        <time>2021-08-19T16:20:48Z</time>
      </trkpt>
      <trkpt lat="43.19532" lon="-0.01847">
        <ele>360.15</ele>
        <time>2021-08-19T16:20:49Z</time>
      </trkpt>
      <trkpt lat="43.19466" lon="-0.0188">
        <ele>360.15</ele>
        <time>2021-08-19T16:21:00Z</time>
      </trkpt>
      <trkpt lat="43.19399" lon="-0.01913">
        <ele>360.63</ele>
        <time>2021-08-19T16:21:11Z</time>
      </trkpt>
      <trkpt lat="43.1935" lon="-0.01932">
        <ele>360.63</ele>
        <time>2021-08-19T16:21:19Z</time>
      </trkpt>
      <trkpt lat="43.19331" lon="-0.01939">
        <ele>360.63</ele>
        <time>2021-08-19T16:21:22Z</time>
      </trkpt>
      <trkpt lat="43.19272" lon="-0.01962">
        <ele>361.59</ele>
        <time>2021-08-19T16:21:32Z</time>
      </trkpt>
      <trkpt lat="43.1922" lon="-0.01979">
        <ele>362.07</ele>
        <time>2021-08-19T16:21:41Z</time>
      </trkpt>
      <trkpt lat="43.19204" lon="-0.01986">
        <ele>362.07</ele>
        <time>2021-08-19T16:21:44Z</time>
      </trkpt>
      <trkpt lat="43.19156" lon="-0.02004">
        <ele>363.04</ele>
        <time>2021-08-19T16:21:53Z</time>
      </trkpt>
      <trkpt lat="43.19135" lon="-0.02012">
        <ele>363.04</ele>
        <time>2021-08-19T16:21:57Z</time>
      </trkpt>
      <trkpt lat="43.19117" lon="-0.02021">
        <ele>364.48</ele>
        <time>2021-08-19T16:22:02Z</time>
      </trkpt>
      <trkpt lat="43.19109" lon="-0.0204">
        <ele>364.48</ele>
        <time>2021-08-19T16:22:06Z</time>
      </trkpt>
      <trkpt lat="43.19108" lon="-0.02045">
        <ele>364.48</ele>
        <time>2021-08-19T16:22:07Z</time>
      </trkpt>
      <trkpt lat="43.19108" lon="-0.02051">
        <ele>364.48</ele>
        <time>2021-08-19T16:22:08Z</time>
      </trkpt>
      <trkpt lat="43.19093" lon="-0.02119">
        <ele>364.96</ele>
        <time>2021-08-19T16:22:18Z</time>
      </trkpt>
      <trkpt lat="43.19072" lon="-0.02174">
        <ele>364.96</ele>
        <time>2021-08-19T16:22:26Z</time>
      </trkpt>
      <trkpt lat="43.19041" lon="-0.02218">
        <ele>363.52</ele>
        <time>2021-08-19T16:22:33Z</time>
      </trkpt>
      <trkpt lat="43.19003" lon="-0.02245">
        <ele>363.52</ele>
        <time>2021-08-19T16:22:40Z</time>
      </trkpt>
      <trkpt lat="43.1893" lon="-0.0228">
        <ele>363.52</ele>
        <time>2021-08-19T16:22:53Z</time>
      </trkpt>
      <trkpt lat="43.18883" lon="-0.02303">
        <ele>365.44</ele>
        <time>2021-08-19T16:23:02Z</time>
      </trkpt>
      <trkpt lat="43.18867" lon="-0.02312">
        <ele>365.44</ele>
        <time>2021-08-19T16:23:05Z</time>
      </trkpt>
      <trkpt lat="43.18863" lon="-0.02314">
        <ele>365.44</ele>
        <time>2021-08-19T16:23:06Z</time>
      </trkpt>
      <trkpt lat="43.18851" lon="-0.02317">
        <ele>365.44</ele>
        <time>2021-08-19T16:23:08Z</time>
      </trkpt>
      <trkpt lat="43.18798" lon="-0.02341">
        <ele>365.44</ele>
        <time>2021-08-19T16:23:18Z</time>
      </trkpt>
      <trkpt lat="43.18747" lon="-0.02368">
        <ele>365.92</ele>
        <time>2021-08-19T16:23:28Z</time>
      </trkpt>
      <trkpt lat="43.18732" lon="-0.02379">
        <ele>366.4</ele>
        <time>2021-08-19T16:23:31Z</time>
      </trkpt>
      <trkpt lat="43.18692" lon="-0.02419">
        <ele>366.88</ele>
        <time>2021-08-19T16:23:40Z</time>
      </trkpt>
      <trkpt lat="43.18678" lon="-0.02432">
        <ele>366.88</ele>
        <time>2021-08-19T16:23:43Z</time>
      </trkpt>
      <trkpt lat="43.1864" lon="-0.02467">
        <ele>367.36</ele>
        <time>2021-08-19T16:23:51Z</time>
      </trkpt>
      <trkpt lat="43.18602" lon="-0.02507">
        <ele>367.36</ele>
        <time>2021-08-19T16:23:59Z</time>
      </trkpt>
      <trkpt lat="43.18583" lon="-0.02526">
        <ele>367.36</ele>
        <time>2021-08-19T16:24:03Z</time>
      </trkpt>
      <trkpt lat="43.18569" lon="-0.02541">
        <ele>367.84</ele>
        <time>2021-08-19T16:24:06Z</time>
      </trkpt>
      <trkpt lat="43.18559" lon="-0.02549">
        <ele>367.84</ele>
        <time>2021-08-19T16:24:08Z</time>
      </trkpt>
      <trkpt lat="43.18532" lon="-0.02577">
        <ele>368.8</ele>
        <time>2021-08-19T16:24:15Z</time>
      </trkpt>
      <trkpt lat="43.18518" lon="-0.02586">
        <ele>368.8</ele>
        <time>2021-08-19T16:24:20Z</time>
      </trkpt>
      <trkpt lat="43.18515" lon="-0.02586">
        <ele>368.8</ele>
        <time>2021-08-19T16:24:21Z</time>
      </trkpt>
      <trkpt lat="43.18506" lon="-0.02588">
        <ele>368.8</ele>
        <time>2021-08-19T16:24:23Z</time>
      </trkpt>
      <trkpt lat="43.18488" lon="-0.02587">
        <ele>369.28</ele>
        <time>2021-08-19T16:24:27Z</time>
      </trkpt>
      <trkpt lat="43.18483" lon="-0.02586">
        <ele>369.28</ele>
        <time>2021-08-19T16:24:28Z</time>
      </trkpt>
      <trkpt lat="43.18436" lon="-0.0258">
        <ele>369.28</ele>
        <time>2021-08-19T16:24:38Z</time>
      </trkpt>
      <trkpt lat="43.18432" lon="-0.02577">
        <ele>369.28</ele>
        <time>2021-08-19T16:24:39Z</time>
      </trkpt>
      <trkpt lat="43.18429" lon="-0.02572">
        <ele>369.28</ele>
        <time>2021-08-19T16:24:40Z</time>
      </trkpt>
      <trkpt lat="43.18427" lon="-0.02566">
        <ele>369.76</ele>
        <time>2021-08-19T16:24:41Z</time>
      </trkpt>
      <trkpt lat="43.18426" lon="-0.02561">
        <ele>369.76</ele>
        <time>2021-08-19T16:24:42Z</time>
      </trkpt>
      <trkpt lat="43.18419" lon="-0.02507">
        <ele>369.76</ele>
        <time>2021-08-19T16:24:50Z</time>
      </trkpt>
      <trkpt lat="43.18417" lon="-0.02493">
        <ele>369.76</ele>
        <time>2021-08-19T16:24:52Z</time>
      </trkpt>
      <trkpt lat="43.18415" lon="-0.02487">
        <ele>369.76</ele>
        <time>2021-08-19T16:24:53Z</time>
      </trkpt>
      <trkpt lat="43.18414" lon="-0.0248">
        <ele>369.76</ele>
        <time>2021-08-19T16:24:54Z</time>
      </trkpt>
      <trkpt lat="43.18414" lon="-0.02473">
        <ele>369.76</ele>
        <time>2021-08-19T16:24:55Z</time>
      </trkpt>
      <trkpt lat="43.18413" lon="-0.02465">
        <ele>369.76</ele>
        <time>2021-08-19T16:24:56Z</time>
      </trkpt>
      <trkpt lat="43.18413" lon="-0.02458">
        <ele>370.24</ele>
        <time>2021-08-19T16:24:57Z</time>
      </trkpt>
      <trkpt lat="43.18407" lon="-0.02393">
        <ele>370.24</ele>
        <time>2021-08-19T16:25:06Z</time>
      </trkpt>
      <trkpt lat="43.18406" lon="-0.02379">
        <ele>370.24</ele>
        <time>2021-08-19T16:25:08Z</time>
      </trkpt>
      <trkpt lat="43.18408" lon="-0.02308">
        <ele>370.24</ele>
        <time>2021-08-19T16:25:17Z</time>
      </trkpt>
      <trkpt lat="43.18407" lon="-0.02232">
        <ele>370.24</ele>
        <time>2021-08-19T16:25:27Z</time>
      </trkpt>
      <trkpt lat="43.18405" lon="-0.02224">
        <ele>370.24</ele>
        <time>2021-08-19T16:25:28Z</time>
      </trkpt>
      <trkpt lat="43.18403" lon="-0.02219">
        <ele>370.73</ele>
        <time>2021-08-19T16:25:29Z</time>
      </trkpt>
      <trkpt lat="43.18399" lon="-0.02213">
        <ele>370.73</ele>
        <time>2021-08-19T16:25:30Z</time>
      </trkpt>
      <trkpt lat="43.18395" lon="-0.0221">
        <ele>370.73</ele>
        <time>2021-08-19T16:25:31Z</time>
      </trkpt>
      <trkpt lat="43.18389" lon="-0.02208">
        <ele>370.73</ele>
        <time>2021-08-19T16:25:32Z</time>
      </trkpt>
      <trkpt lat="43.18385" lon="-0.02207">
        <ele>370.73</ele>
        <time>2021-08-19T16:25:33Z</time>
      </trkpt>
      <trkpt lat="43.1838" lon="-0.02208">
        <ele>371.21</ele>
        <time>2021-08-19T16:25:34Z</time>
      </trkpt>
      <trkpt lat="43.18375" lon="-0.02209">
        <ele>371.21</ele>
        <time>2021-08-19T16:25:35Z</time>
      </trkpt>
      <trkpt lat="43.1837" lon="-0.02209">
        <ele>371.21</ele>
        <time>2021-08-19T16:25:36Z</time>
      </trkpt>
      <trkpt lat="43.18361" lon="-0.02211">
        <ele>371.69</ele>
        <time>2021-08-19T16:25:38Z</time>
      </trkpt>
      <trkpt lat="43.18357" lon="-0.02211">
        <ele>371.69</ele>
        <time>2021-08-19T16:25:39Z</time>
      </trkpt>
      <trkpt lat="43.18331" lon="-0.02215">
        <ele>372.65</ele>
        <time>2021-08-19T16:25:46Z</time>
      </trkpt>
      <trkpt lat="43.18304" lon="-0.02218">
        <ele>373.13</ele>
        <time>2021-08-19T16:25:54Z</time>
      </trkpt>
      <trkpt lat="43.18291" lon="-0.0222">
        <ele>373.13</ele>
        <time>2021-08-19T16:25:57Z</time>
      </trkpt>
      <trkpt lat="43.18277" lon="-0.02221">
        <ele>373.13</ele>
        <time>2021-08-19T16:26:00Z</time>
      </trkpt>
      <trkpt lat="43.18238" lon="-0.02232">
        <ele>373.61</ele>
        <time>2021-08-19T16:26:08Z</time>
      </trkpt>
      <trkpt lat="43.182" lon="-0.02253">
        <ele>373.13</ele>
        <time>2021-08-19T16:26:17Z</time>
      </trkpt>
      <trkpt lat="43.1819" lon="-0.02259">
        <ele>373.13</ele>
        <time>2021-08-19T16:26:19Z</time>
      </trkpt>
      <trkpt lat="43.1816" lon="-0.02275">
        <ele>373.13</ele>
        <time>2021-08-19T16:26:26Z</time>
      </trkpt>
      <trkpt lat="43.1815" lon="-0.02276">
        <ele>374.09</ele>
        <time>2021-08-19T16:26:30Z</time>
      </trkpt>
      <trkpt lat="43.18149" lon="-0.02274">
        <ele>374.09</ele>
        <time>2021-08-19T16:26:31Z</time>
      </trkpt>
      <trkpt lat="43.18148" lon="-0.02272">
        <ele>374.09</ele>
        <time>2021-08-19T16:26:32Z</time>
      </trkpt>
      <trkpt lat="43.18147" lon="-0.0227">
        <ele>374.09</ele>
        <time>2021-08-19T16:26:33Z</time>
      </trkpt>
      <trkpt lat="43.18146" lon="-0.02267">
        <ele>374.57</ele>
        <time>2021-08-19T16:26:34Z</time>
      </trkpt>
      <trkpt lat="43.18145" lon="-0.02264">
        <ele>374.57</ele>
        <time>2021-08-19T16:26:35Z</time>
      </trkpt>
      <trkpt lat="43.18144" lon="-0.0226">
        <ele>374.57</ele>
        <time>2021-08-19T16:26:36Z</time>
      </trkpt>
      <trkpt lat="43.18143" lon="-0.02251">
        <ele>374.57</ele>
        <time>2021-08-19T16:26:38Z</time>
      </trkpt>
      <trkpt lat="43.1814" lon="-0.02249">
        <ele>374.09</ele>
        <time>2021-08-19T16:26:39Z</time>
      </trkpt>
      <trkpt lat="43.18138" lon="-0.02249">
        <ele>374.57</ele>
        <time>2021-08-19T16:26:40Z</time>
      </trkpt>
      <trkpt lat="43.18135" lon="-0.0225">
        <ele>374.57</ele>
        <time>2021-08-19T16:26:41Z</time>
      </trkpt>
      <trkpt lat="43.18133" lon="-0.02252">
        <ele>374.57</ele>
        <time>2021-08-19T16:26:42Z</time>
      </trkpt>
      <trkpt lat="43.18112" lon="-0.02265">
        <ele>374.09</ele>
        <time>2021-08-19T16:26:49Z</time>
      </trkpt>
      <trkpt lat="43.18074" lon="-0.02279">
        <ele>375.05</ele>
        <time>2021-08-19T16:26:59Z</time>
      </trkpt>
      <trkpt lat="43.18052" lon="-0.02284">
        <ele>375.53</ele>
        <time>2021-08-19T16:27:05Z</time>
      </trkpt>
      <trkpt lat="43.18018" lon="-0.02293">
        <ele>375.05</ele>
        <time>2021-08-19T16:27:14Z</time>
      </trkpt>
      <trkpt lat="43.1801" lon="-0.02294">
        <ele>375.05</ele>
        <time>2021-08-19T16:27:16Z</time>
      </trkpt>
      <trkpt lat="43.18006" lon="-0.02295">
        <ele>375.05</ele>
        <time>2021-08-19T16:27:17Z</time>
      </trkpt>
      <trkpt lat="43.17997" lon="-0.02297">
        <ele>375.05</ele>
        <time>2021-08-19T16:27:19Z</time>
      </trkpt>
      <trkpt lat="43.17948" lon="-0.02303">
        <ele>375.05</ele>
        <time>2021-08-19T16:27:30Z</time>
      </trkpt>
      <trkpt lat="43.17903" lon="-0.02301">
        <ele>376.01</ele>
        <time>2021-08-19T16:27:40Z</time>
      </trkpt>
      <trkpt lat="43.17867" lon="-0.02297">
        <ele>376.01</ele>
        <time>2021-08-19T16:27:48Z</time>
      </trkpt>
      <trkpt lat="43.1783" lon="-0.0229">
        <ele>376.97</ele>
        <time>2021-08-19T16:27:57Z</time>
      </trkpt>
      <trkpt lat="43.17798" lon="-0.02285">
        <ele>377.45</ele>
        <time>2021-08-19T16:28:05Z</time>
      </trkpt>
      <trkpt lat="43.17794" lon="-0.02284">
        <ele>377.45</ele>
        <time>2021-08-19T16:28:06Z</time>
      </trkpt>
      <trkpt lat="43.17773" lon="-0.02279">
        <ele>377.94</ele>
        <time>2021-08-19T16:28:11Z</time>
      </trkpt>
      <trkpt lat="43.17765" lon="-0.02276">
        <ele>377.94</ele>
        <time>2021-08-19T16:28:13Z</time>
      </trkpt>
      <trkpt lat="43.1772" lon="-0.02267">
        <ele>377.94</ele>
        <time>2021-08-19T16:28:23Z</time>
      </trkpt>
      <trkpt lat="43.17679" lon="-0.02257">
        <ele>378.42</ele>
        <time>2021-08-19T16:28:33Z</time>
      </trkpt>
      <trkpt lat="43.17631" lon="-0.02246">
        <ele>379.86</ele>
        <time>2021-08-19T16:28:45Z</time>
      </trkpt>
      <trkpt lat="43.17589" lon="-0.02238">
        <ele>380.34</ele>
        <time>2021-08-19T16:28:55Z</time>
      </trkpt>
      <trkpt lat="43.1754" lon="-0.02227">
        <ele>381.3</ele>
        <time>2021-08-19T16:29:07Z</time>
      </trkpt>
      <trkpt lat="43.175" lon="-0.0222">
        <ele>381.3</ele>
        <time>2021-08-19T16:29:16Z</time>
      </trkpt>
      <trkpt lat="43.17453" lon="-0.0221">
        <ele>382.26</ele>
        <time>2021-08-19T16:29:27Z</time>
      </trkpt>
      <trkpt lat="43.17412" lon="-0.02201">
        <ele>383.22</ele>
        <time>2021-08-19T16:29:37Z</time>
      </trkpt>
      <trkpt lat="43.17383" lon="-0.02195">
        <ele>383.22</ele>
        <time>2021-08-19T16:29:45Z</time>
      </trkpt>
      <trkpt lat="43.17339" lon="-0.02186">
        <ele>383.7</ele>
        <time>2021-08-19T16:29:56Z</time>
      </trkpt>
      <trkpt lat="43.17285" lon="-0.02175">
        <ele>384.18</ele>
        <time>2021-08-19T16:30:09Z</time>
      </trkpt>
      <trkpt lat="43.17261" lon="-0.0217">
        <ele>384.18</ele>
        <time>2021-08-19T16:30:16Z</time>
      </trkpt>
      <trkpt lat="43.17223" lon="-0.02162">
        <ele>384.66</ele>
        <time>2021-08-19T16:30:25Z</time>
      </trkpt>
      <trkpt lat="43.17179" lon="-0.02153">
        <ele>385.15</ele>
        <time>2021-08-19T16:30:35Z</time>
      </trkpt>
      <trkpt lat="43.17148" lon="-0.02146">
        <ele>385.15</ele>
        <time>2021-08-19T16:30:43Z</time>
      </trkpt>
      <trkpt lat="43.17137" lon="-0.02149">
        <ele>386.11</ele>
        <time>2021-08-19T16:30:47Z</time>
      </trkpt>
      <trkpt lat="43.17137" lon="-0.02152">
        <ele>386.11</ele>
        <time>2021-08-19T16:30:48Z</time>
      </trkpt>
      <trkpt lat="43.17135" lon="-0.02182">
        <ele>386.11</ele>
        <time>2021-08-19T16:30:54Z</time>
      </trkpt>
      <trkpt lat="43.17134" lon="-0.02187">
        <ele>386.11</ele>
        <time>2021-08-19T16:30:55Z</time>
      </trkpt>
      <trkpt lat="43.17131" lon="-0.0219">
        <ele>385.15</ele>
        <time>2021-08-19T16:30:56Z</time>
      </trkpt>
      <trkpt lat="43.17128" lon="-0.02192">
        <ele>385.15</ele>
        <time>2021-08-19T16:30:57Z</time>
      </trkpt>
      <trkpt lat="43.17124" lon="-0.02192">
        <ele>385.15</ele>
        <time>2021-08-19T16:30:58Z</time>
      </trkpt>
      <trkpt lat="43.1712" lon="-0.02191">
        <ele>385.15</ele>
        <time>2021-08-19T16:30:59Z</time>
      </trkpt>
      <trkpt lat="43.17116" lon="-0.02189">
        <ele>385.15</ele>
        <time>2021-08-19T16:31:00Z</time>
      </trkpt>
      <trkpt lat="43.17112" lon="-0.02187">
        <ele>385.15</ele>
        <time>2021-08-19T16:31:01Z</time>
      </trkpt>
      <trkpt lat="43.17074" lon="-0.02166">
        <ele>385.15</ele>
        <time>2021-08-19T16:31:10Z</time>
      </trkpt>
      <trkpt lat="43.1705" lon="-0.02157">
        <ele>385.15</ele>
        <time>2021-08-19T16:31:15Z</time>
      </trkpt>
      <trkpt lat="43.17006" lon="-0.02145">
        <ele>386.11</ele>
        <time>2021-08-19T16:31:24Z</time>
      </trkpt>
      <trkpt lat="43.16971" lon="-0.02138">
        <ele>386.11</ele>
        <time>2021-08-19T16:31:31Z</time>
      </trkpt>
      <trkpt lat="43.16966" lon="-0.02137">
        <ele>386.11</ele>
        <time>2021-08-19T16:31:32Z</time>
      </trkpt>
      <trkpt lat="43.1691" lon="-0.02126">
        <ele>387.07</ele>
        <time>2021-08-19T16:31:43Z</time>
      </trkpt>
      <trkpt lat="43.16874" lon="-0.02119">
        <ele>387.07</ele>
        <time>2021-08-19T16:31:50Z</time>
      </trkpt>
      <trkpt lat="43.1682" lon="-0.02122">
        <ele>387.55</ele>
        <time>2021-08-19T16:32:00Z</time>
      </trkpt>
      <trkpt lat="43.16797" lon="-0.02125">
        <ele>387.55</ele>
        <time>2021-08-19T16:32:04Z</time>
      </trkpt>
      <trkpt lat="43.16753" lon="-0.02126">
        <ele>388.03</ele>
        <time>2021-08-19T16:32:12Z</time>
      </trkpt>
      <trkpt lat="43.16706" lon="-0.02126">
        <ele>388.99</ele>
        <time>2021-08-19T16:32:21Z</time>
      </trkpt>
      <trkpt lat="43.16659" lon="-0.02127">
        <ele>389.47</ele>
        <time>2021-08-19T16:32:30Z</time>
      </trkpt>
      <trkpt lat="43.16596" lon="-0.02133">
        <ele>389.95</ele>
        <time>2021-08-19T16:32:42Z</time>
      </trkpt>
      <trkpt lat="43.16559" lon="-0.02143">
        <ele>389.95</ele>
        <time>2021-08-19T16:32:49Z</time>
      </trkpt>
      <trkpt lat="43.16554" lon="-0.02147">
        <ele>389.95</ele>
        <time>2021-08-19T16:32:50Z</time>
      </trkpt>
      <trkpt lat="43.1655" lon="-0.02151">
        <ele>389.95</ele>
        <time>2021-08-19T16:32:51Z</time>
      </trkpt>
      <trkpt lat="43.16546" lon="-0.02155">
        <ele>390.43</ele>
        <time>2021-08-19T16:32:52Z</time>
      </trkpt>
      <trkpt lat="43.16543" lon="-0.0216">
        <ele>390.43</ele>
        <time>2021-08-19T16:32:53Z</time>
      </trkpt>
      <trkpt lat="43.16539" lon="-0.02165">
        <ele>390.43</ele>
        <time>2021-08-19T16:32:54Z</time>
      </trkpt>
      <trkpt lat="43.16536" lon="-0.0217">
        <ele>390.43</ele>
        <time>2021-08-19T16:32:55Z</time>
      </trkpt>
      <trkpt lat="43.16529" lon="-0.0218">
        <ele>390.91</ele>
        <time>2021-08-19T16:32:57Z</time>
      </trkpt>
      <trkpt lat="43.16524" lon="-0.02184">
        <ele>390.91</ele>
        <time>2021-08-19T16:32:58Z</time>
      </trkpt>
      <trkpt lat="43.1652" lon="-0.02187">
        <ele>390.91</ele>
        <time>2021-08-19T16:32:59Z</time>
      </trkpt>
      <trkpt lat="43.16516" lon="-0.0219">
        <ele>390.91</ele>
        <time>2021-08-19T16:33:00Z</time>
      </trkpt>
      <trkpt lat="43.16511" lon="-0.02192">
        <ele>390.91</ele>
        <time>2021-08-19T16:33:01Z</time>
      </trkpt>
      <trkpt lat="43.16505" lon="-0.02193">
        <ele>390.91</ele>
        <time>2021-08-19T16:33:02Z</time>
      </trkpt>
      <trkpt lat="43.16458" lon="-0.022">
        <ele>391.39</ele>
        <time>2021-08-19T16:33:11Z</time>
      </trkpt>
      <trkpt lat="43.16406" lon="-0.02203">
        <ele>392.36</ele>
        <time>2021-08-19T16:33:21Z</time>
      </trkpt>
      <trkpt lat="43.16347" lon="-0.0221">
        <ele>393.8</ele>
        <time>2021-08-19T16:33:33Z</time>
      </trkpt>
      <trkpt lat="43.16315" lon="-0.02221">
        <ele>393.8</ele>
        <time>2021-08-19T16:33:40Z</time>
      </trkpt>
      <trkpt lat="43.1631" lon="-0.02222">
        <ele>393.8</ele>
        <time>2021-08-19T16:33:41Z</time>
      </trkpt>
      <trkpt lat="43.16305" lon="-0.02223">
        <ele>394.76</ele>
        <time>2021-08-19T16:33:42Z</time>
      </trkpt>
      <trkpt lat="43.163" lon="-0.02222">
        <ele>394.76</ele>
        <time>2021-08-19T16:33:43Z</time>
      </trkpt>
      <trkpt lat="43.16295" lon="-0.02223">
        <ele>394.76</ele>
        <time>2021-08-19T16:33:44Z</time>
      </trkpt>
      <trkpt lat="43.1629" lon="-0.02224">
        <ele>394.76</ele>
        <time>2021-08-19T16:33:45Z</time>
      </trkpt>
      <trkpt lat="43.16286" lon="-0.02224">
        <ele>394.76</ele>
        <time>2021-08-19T16:33:46Z</time>
      </trkpt>
      <trkpt lat="43.1628" lon="-0.02224">
        <ele>394.76</ele>
        <time>2021-08-19T16:33:47Z</time>
      </trkpt>
      <trkpt lat="43.16266" lon="-0.02224">
        <ele>395.24</ele>
        <time>2021-08-19T16:33:50Z</time>
      </trkpt>
      <trkpt lat="43.16216" lon="-0.02221">
        <ele>395.72</ele>
        <time>2021-08-19T16:34:01Z</time>
      </trkpt>
      <trkpt lat="43.16174" lon="-0.02218">
        <ele>396.68</ele>
        <time>2021-08-19T16:34:10Z</time>
      </trkpt>
      <trkpt lat="43.16136" lon="-0.02216">
        <ele>398.12</ele>
        <time>2021-08-19T16:34:19Z</time>
      </trkpt>
      <trkpt lat="43.16107" lon="-0.02212">
        <ele>399.08</ele>
        <time>2021-08-19T16:34:26Z</time>
      </trkpt>
      <trkpt lat="43.16057" lon="-0.02203">
        <ele>400.05</ele>
        <time>2021-08-19T16:34:37Z</time>
      </trkpt>
      <trkpt lat="43.16012" lon="-0.02192">
        <ele>401.01</ele>
        <time>2021-08-19T16:34:47Z</time>
      </trkpt>
      <trkpt lat="43.15973" lon="-0.02183">
        <ele>401.49</ele>
        <time>2021-08-19T16:34:56Z</time>
      </trkpt>
      <trkpt lat="43.15931" lon="-0.0217">
        <ele>402.93</ele>
        <time>2021-08-19T16:35:06Z</time>
      </trkpt>
      <trkpt lat="43.15887" lon="-0.02157">
        <ele>403.41</ele>
        <time>2021-08-19T16:35:16Z</time>
      </trkpt>
      <trkpt lat="43.15865" lon="-0.02152">
        <ele>403.89</ele>
        <time>2021-08-19T16:35:22Z</time>
      </trkpt>
      <trkpt lat="43.1584" lon="-0.02147">
        <ele>404.37</ele>
        <time>2021-08-19T16:35:28Z</time>
      </trkpt>
      <trkpt lat="43.15827" lon="-0.02142">
        <ele>404.37</ele>
        <time>2021-08-19T16:35:31Z</time>
      </trkpt>
      <trkpt lat="43.15818" lon="-0.0214">
        <ele>404.37</ele>
        <time>2021-08-19T16:35:33Z</time>
      </trkpt>
      <trkpt lat="43.15772" lon="-0.02124">
        <ele>402.93</ele>
        <time>2021-08-19T16:35:43Z</time>
      </trkpt>
      <trkpt lat="43.1573" lon="-0.0211">
        <ele>401.97</ele>
        <time>2021-08-19T16:35:52Z</time>
      </trkpt>
      <trkpt lat="43.15697" lon="-0.0209">
        <ele>401.01</ele>
        <time>2021-08-19T16:35:59Z</time>
      </trkpt>
      <trkpt lat="43.15692" lon="-0.02086">
        <ele>401.01</ele>
        <time>2021-08-19T16:36:00Z</time>
      </trkpt>
      <trkpt lat="43.15688" lon="-0.0208">
        <ele>400.53</ele>
        <time>2021-08-19T16:36:01Z</time>
      </trkpt>
      <trkpt lat="43.15681" lon="-0.0207">
        <ele>400.53</ele>
        <time>2021-08-19T16:36:03Z</time>
      </trkpt>
      <trkpt lat="43.15667" lon="-0.02047">
        <ele>400.53</ele>
        <time>2021-08-19T16:36:07Z</time>
      </trkpt>
      <trkpt lat="43.15663" lon="-0.02043">
        <ele>400.53</ele>
        <time>2021-08-19T16:36:08Z</time>
      </trkpt>
      <trkpt lat="43.15658" lon="-0.02042">
        <ele>400.53</ele>
        <time>2021-08-19T16:36:09Z</time>
      </trkpt>
      <trkpt lat="43.15653" lon="-0.02045">
        <ele>400.53</ele>
        <time>2021-08-19T16:36:10Z</time>
      </trkpt>
      <trkpt lat="43.1565" lon="-0.02048">
        <ele>400.53</ele>
        <time>2021-08-19T16:36:11Z</time>
      </trkpt>
      <trkpt lat="43.15647" lon="-0.02052">
        <ele>400.53</ele>
        <time>2021-08-19T16:36:12Z</time>
      </trkpt>
      <trkpt lat="43.15643" lon="-0.02056">
        <ele>400.53</ele>
        <time>2021-08-19T16:36:13Z</time>
      </trkpt>
      <trkpt lat="43.15639" lon="-0.02061">
        <ele>400.53</ele>
        <time>2021-08-19T16:36:14Z</time>
      </trkpt>
      <trkpt lat="43.15635" lon="-0.02065">
        <ele>400.53</ele>
        <time>2021-08-19T16:36:15Z</time>
      </trkpt>
      <trkpt lat="43.15609" lon="-0.02098">
        <ele>401.97</ele>
        <time>2021-08-19T16:36:22Z</time>
      </trkpt>
      <trkpt lat="43.15576" lon="-0.02141">
        <ele>402.45</ele>
        <time>2021-08-19T16:36:31Z</time>
      </trkpt>
      <trkpt lat="43.15536" lon="-0.02194">
        <ele>402.93</ele>
        <time>2021-08-19T16:36:42Z</time>
      </trkpt>
      <trkpt lat="43.15525" lon="-0.02208">
        <ele>402.93</ele>
        <time>2021-08-19T16:36:45Z</time>
      </trkpt>
      <trkpt lat="43.15518" lon="-0.02215">
        <ele>402.93</ele>
        <time>2021-08-19T16:36:47Z</time>
      </trkpt>
      <trkpt lat="43.15491" lon="-0.02253">
        <ele>402.93</ele>
        <time>2021-08-19T16:36:55Z</time>
      </trkpt>
      <trkpt lat="43.15488" lon="-0.02258">
        <ele>402.93</ele>
        <time>2021-08-19T16:36:56Z</time>
      </trkpt>
      <trkpt lat="43.15446" lon="-0.02311">
        <ele>403.41</ele>
        <time>2021-08-19T16:37:07Z</time>
      </trkpt>
      <trkpt lat="43.15408" lon="-0.02361">
        <ele>404.37</ele>
        <time>2021-08-19T16:37:17Z</time>
      </trkpt>
      <trkpt lat="43.15377" lon="-0.02403">
        <ele>404.85</ele>
        <time>2021-08-19T16:37:26Z</time>
      </trkpt>
      <trkpt lat="43.15374" lon="-0.02408">
        <ele>405.33</ele>
        <time>2021-08-19T16:37:27Z</time>
      </trkpt>
      <trkpt lat="43.15371" lon="-0.02412">
        <ele>405.33</ele>
        <time>2021-08-19T16:37:28Z</time>
      </trkpt>
      <trkpt lat="43.15359" lon="-0.02428">
        <ele>405.33</ele>
        <time>2021-08-19T16:37:32Z</time>
      </trkpt>
      <trkpt lat="43.15355" lon="-0.02432">
        <ele>405.33</ele>
        <time>2021-08-19T16:37:33Z</time>
      </trkpt>
      <trkpt lat="43.15352" lon="-0.02437">
        <ele>405.81</ele>
        <time>2021-08-19T16:37:34Z</time>
      </trkpt>
      <trkpt lat="43.15349" lon="-0.02442">
        <ele>405.81</ele>
        <time>2021-08-19T16:37:35Z</time>
      </trkpt>
      <trkpt lat="43.15345" lon="-0.02446">
        <ele>405.81</ele>
        <time>2021-08-19T16:37:36Z</time>
      </trkpt>
      <trkpt lat="43.15318" lon="-0.02484">
        <ele>405.81</ele>
        <time>2021-08-19T16:37:44Z</time>
      </trkpt>
      <trkpt lat="43.15296" lon="-0.02515">
        <ele>406.29</ele>
        <time>2021-08-19T16:37:50Z</time>
      </trkpt>
      <trkpt lat="43.15262" lon="-0.02559">
        <ele>406.77</ele>
        <time>2021-08-19T16:37:59Z</time>
      </trkpt>
      <trkpt lat="43.15239" lon="-0.02592">
        <ele>407.26</ele>
        <time>2021-08-19T16:38:07Z</time>
      </trkpt>
      <trkpt lat="43.15233" lon="-0.02603">
        <ele>407.26</ele>
        <time>2021-08-19T16:38:09Z</time>
      </trkpt>
      <trkpt lat="43.15211" lon="-0.02632">
        <ele>407.26</ele>
        <time>2021-08-19T16:38:16Z</time>
      </trkpt>
      <trkpt lat="43.15201" lon="-0.02644">
        <ele>407.26</ele>
        <time>2021-08-19T16:38:19Z</time>
      </trkpt>
      <trkpt lat="43.15197" lon="-0.02649">
        <ele>407.26</ele>
        <time>2021-08-19T16:38:20Z</time>
      </trkpt>
      <trkpt lat="43.15187" lon="-0.02661">
        <ele>407.26</ele>
        <time>2021-08-19T16:38:23Z</time>
      </trkpt>
      <trkpt lat="43.15157" lon="-0.02703">
        <ele>408.22</ele>
        <time>2021-08-19T16:38:33Z</time>
      </trkpt>
      <trkpt lat="43.15134" lon="-0.0273">
        <ele>408.7</ele>
        <time>2021-08-19T16:38:40Z</time>
      </trkpt>
      <trkpt lat="43.1513" lon="-0.02734">
        <ele>409.18</ele>
        <time>2021-08-19T16:38:41Z</time>
      </trkpt>
      <trkpt lat="43.15122" lon="-0.02741">
        <ele>409.18</ele>
        <time>2021-08-19T16:38:43Z</time>
      </trkpt>
      <trkpt lat="43.15114" lon="-0.02746">
        <ele>409.18</ele>
        <time>2021-08-19T16:38:45Z</time>
      </trkpt>
      <trkpt lat="43.1511" lon="-0.0275">
        <ele>409.18</ele>
        <time>2021-08-19T16:38:46Z</time>
      </trkpt>
      <trkpt lat="43.15097" lon="-0.02761">
        <ele>409.18</ele>
        <time>2021-08-19T16:38:49Z</time>
      </trkpt>
      <trkpt lat="43.15088" lon="-0.02767">
        <ele>409.18</ele>
        <time>2021-08-19T16:38:51Z</time>
      </trkpt>
      <trkpt lat="43.15058" lon="-0.0279">
        <ele>409.18</ele>
        <time>2021-08-19T16:38:58Z</time>
      </trkpt>
      <trkpt lat="43.15055" lon="-0.02792">
        <ele>409.18</ele>
        <time>2021-08-19T16:38:59Z</time>
      </trkpt>
      <trkpt lat="43.1505" lon="-0.02793">
        <ele>407.74</ele>
        <time>2021-08-19T16:39:00Z</time>
      </trkpt>
      <trkpt lat="43.15046" lon="-0.02794">
        <ele>407.74</ele>
        <time>2021-08-19T16:39:01Z</time>
      </trkpt>
      <trkpt lat="43.15041" lon="-0.02797">
        <ele>407.74</ele>
        <time>2021-08-19T16:39:02Z</time>
      </trkpt>
      <trkpt lat="43.15037" lon="-0.028">
        <ele>407.74</ele>
        <time>2021-08-19T16:39:03Z</time>
      </trkpt>
      <trkpt lat="43.15033" lon="-0.02803">
        <ele>407.74</ele>
        <time>2021-08-19T16:39:04Z</time>
      </trkpt>
      <trkpt lat="43.15006" lon="-0.02819">
        <ele>407.74</ele>
        <time>2021-08-19T16:39:11Z</time>
      </trkpt>
      <trkpt lat="43.14968" lon="-0.02839">
        <ele>405.81</ele>
        <time>2021-08-19T16:39:19Z</time>
      </trkpt>
      <trkpt lat="43.14918" lon="-0.02861">
        <ele>404.85</ele>
        <time>2021-08-19T16:39:28Z</time>
      </trkpt>
      <trkpt lat="43.14903" lon="-0.02867">
        <ele>404.85</ele>
        <time>2021-08-19T16:39:31Z</time>
      </trkpt>
      <trkpt lat="43.14886" lon="-0.02876">
        <ele>404.85</ele>
        <time>2021-08-19T16:39:35Z</time>
      </trkpt>
      <trkpt lat="43.14877" lon="-0.02882">
        <ele>404.85</ele>
        <time>2021-08-19T16:39:37Z</time>
      </trkpt>
      <trkpt lat="43.14832" lon="-0.029">
        <ele>404.85</ele>
        <time>2021-08-19T16:39:46Z</time>
      </trkpt>
      <trkpt lat="43.14794" lon="-0.02919">
        <ele>406.77</ele>
        <time>2021-08-19T16:39:55Z</time>
      </trkpt>
      <trkpt lat="43.14768" lon="-0.0293">
        <ele>408.22</ele>
        <time>2021-08-19T16:40:03Z</time>
      </trkpt>
      <trkpt lat="43.14752" lon="-0.02939">
        <ele>409.18</ele>
        <time>2021-08-19T16:40:09Z</time>
      </trkpt>
      <trkpt lat="43.14728" lon="-0.02949">
        <ele>409.18</ele>
        <time>2021-08-19T16:40:17Z</time>
      </trkpt>
      <trkpt lat="43.14702" lon="-0.02961">
        <ele>409.66</ele>
        <time>2021-08-19T16:40:25Z</time>
      </trkpt>
      <trkpt lat="43.14684" lon="-0.02969">
        <ele>409.66</ele>
        <time>2021-08-19T16:40:30Z</time>
      </trkpt>
      <trkpt lat="43.1468" lon="-0.0297">
        <ele>409.66</ele>
        <time>2021-08-19T16:40:31Z</time>
      </trkpt>
      <trkpt lat="43.14677" lon="-0.02972">
        <ele>410.14</ele>
        <time>2021-08-19T16:40:32Z</time>
      </trkpt>
      <trkpt lat="43.14665" lon="-0.02977">
        <ele>410.14</ele>
        <time>2021-08-19T16:40:35Z</time>
      </trkpt>
      <trkpt lat="43.14661" lon="-0.02978">
        <ele>410.14</ele>
        <time>2021-08-19T16:40:36Z</time>
      </trkpt>
      <trkpt lat="43.14655" lon="-0.02979">
        <ele>410.14</ele>
        <time>2021-08-19T16:40:37Z</time>
      </trkpt>
      <trkpt lat="43.14644" lon="-0.02986">
        <ele>410.14</ele>
        <time>2021-08-19T16:40:40Z</time>
      </trkpt>
      <trkpt lat="43.14629" lon="-0.02992">
        <ele>410.14</ele>
        <time>2021-08-19T16:40:44Z</time>
      </trkpt>
      <trkpt lat="43.14592" lon="-0.03008">
        <ele>411.58</ele>
        <time>2021-08-19T16:40:54Z</time>
      </trkpt>
      <trkpt lat="43.14562" lon="-0.03022">
        <ele>413.02</ele>
        <time>2021-08-19T16:41:03Z</time>
      </trkpt>
      <trkpt lat="43.14538" lon="-0.03033">
        <ele>414.47</ele>
        <time>2021-08-19T16:41:11Z</time>
      </trkpt>
      <trkpt lat="43.14515" lon="-0.03044">
        <ele>415.43</ele>
        <time>2021-08-19T16:41:19Z</time>
      </trkpt>
      <trkpt lat="43.14489" lon="-0.03058">
        <ele>413.98</ele>
        <time>2021-08-19T16:41:25Z</time>
      </trkpt>
      <trkpt lat="43.14436" lon="-0.03086">
        <ele>411.58</ele>
        <time>2021-08-19T16:41:34Z</time>
      </trkpt>
      <trkpt lat="43.14387" lon="-0.03109">
        <ele>411.1</ele>
        <time>2021-08-19T16:41:43Z</time>
      </trkpt>
      <trkpt lat="43.14353" lon="-0.03126">
        <ele>411.1</ele>
        <time>2021-08-19T16:41:50Z</time>
      </trkpt>
      <trkpt lat="43.1431" lon="-0.03147">
        <ele>411.1</ele>
        <time>2021-08-19T16:41:58Z</time>
      </trkpt>
      <trkpt lat="43.14269" lon="-0.03165">
        <ele>411.1</ele>
        <time>2021-08-19T16:42:06Z</time>
      </trkpt>
      <trkpt lat="43.14239" lon="-0.03177">
        <ele>411.1</ele>
        <time>2021-08-19T16:42:13Z</time>
      </trkpt>
      <trkpt lat="43.14205" lon="-0.03196">
        <ele>413.02</ele>
        <time>2021-08-19T16:42:22Z</time>
      </trkpt>
      <trkpt lat="43.1418" lon="-0.03207">
        <ele>413.02</ele>
        <time>2021-08-19T16:42:29Z</time>
      </trkpt>
      <trkpt lat="43.14131" lon="-0.0323">
        <ele>413.02</ele>
        <time>2021-08-19T16:42:41Z</time>
      </trkpt>
      <trkpt lat="43.141" lon="-0.03241">
        <ele>414.47</ele>
        <time>2021-08-19T16:42:49Z</time>
      </trkpt>
      <trkpt lat="43.14059" lon="-0.0325">
        <ele>414.47</ele>
        <time>2021-08-19T16:42:58Z</time>
      </trkpt>
      <trkpt lat="43.1402" lon="-0.03259">
        <ele>414.47</ele>
        <time>2021-08-19T16:43:07Z</time>
      </trkpt>
      <trkpt lat="43.13988" lon="-0.03259">
        <ele>415.43</ele>
        <time>2021-08-19T16:43:14Z</time>
      </trkpt>
      <trkpt lat="43.13984" lon="-0.03258">
        <ele>415.43</ele>
        <time>2021-08-19T16:43:15Z</time>
      </trkpt>
      <trkpt lat="43.13943" lon="-0.03254">
        <ele>415.91</ele>
        <time>2021-08-19T16:43:24Z</time>
      </trkpt>
      <trkpt lat="43.1393" lon="-0.03252">
        <ele>416.39</ele>
        <time>2021-08-19T16:43:27Z</time>
      </trkpt>
      <trkpt lat="43.13926" lon="-0.03252">
        <ele>416.39</ele>
        <time>2021-08-19T16:43:28Z</time>
      </trkpt>
      <trkpt lat="43.13901" lon="-0.03245">
        <ele>417.35</ele>
        <time>2021-08-19T16:43:34Z</time>
      </trkpt>
      <trkpt lat="43.13899" lon="-0.03241">
        <ele>417.35</ele>
        <time>2021-08-19T16:43:35Z</time>
      </trkpt>
      <trkpt lat="43.13897" lon="-0.03236">
        <ele>417.35</ele>
        <time>2021-08-19T16:43:36Z</time>
      </trkpt>
      <trkpt lat="43.13898" lon="-0.03231">
        <ele>417.35</ele>
        <time>2021-08-19T16:43:37Z</time>
      </trkpt>
      <trkpt lat="43.13898" lon="-0.03225">
        <ele>417.83</ele>
        <time>2021-08-19T16:43:38Z</time>
      </trkpt>
      <trkpt lat="43.13899" lon="-0.0322">
        <ele>417.83</ele>
        <time>2021-08-19T16:43:39Z</time>
      </trkpt>
      <trkpt lat="43.13902" lon="-0.03204">
        <ele>417.35</ele>
        <time>2021-08-19T16:43:42Z</time>
      </trkpt>
      <trkpt lat="43.13902" lon="-0.03198">
        <ele>417.35</ele>
        <time>2021-08-19T16:43:43Z</time>
      </trkpt>
      <trkpt lat="43.13902" lon="-0.03193">
        <ele>417.35</ele>
        <time>2021-08-19T16:43:44Z</time>
      </trkpt>
      <trkpt lat="43.13901" lon="-0.03188">
        <ele>417.35</ele>
        <time>2021-08-19T16:43:45Z</time>
      </trkpt>
      <trkpt lat="43.13898" lon="-0.03184">
        <ele>417.35</ele>
        <time>2021-08-19T16:43:46Z</time>
      </trkpt>
      <trkpt lat="43.13895" lon="-0.03181">
        <ele>417.35</ele>
        <time>2021-08-19T16:43:47Z</time>
      </trkpt>
      <trkpt lat="43.13892" lon="-0.03179">
        <ele>417.35</ele>
        <time>2021-08-19T16:43:48Z</time>
      </trkpt>
      <trkpt lat="43.13862" lon="-0.03155">
        <ele>417.35</ele>
        <time>2021-08-19T16:43:56Z</time>
      </trkpt>
      <trkpt lat="43.13824" lon="-0.03127">
        <ele>417.83</ele>
        <time>2021-08-19T16:44:05Z</time>
      </trkpt>
      <trkpt lat="43.13791" lon="-0.0311">
        <ele>418.79</ele>
        <time>2021-08-19T16:44:13Z</time>
      </trkpt>
      <trkpt lat="43.13786" lon="-0.03108">
        <ele>418.79</ele>
        <time>2021-08-19T16:44:14Z</time>
      </trkpt>
      <trkpt lat="43.13782" lon="-0.03108">
        <ele>419.27</ele>
        <time>2021-08-19T16:44:15Z</time>
      </trkpt>
      <trkpt lat="43.13748" lon="-0.03111">
        <ele>420.71</ele>
        <time>2021-08-19T16:44:24Z</time>
      </trkpt>
      <trkpt lat="43.13715" lon="-0.03111">
        <ele>421.19</ele>
        <time>2021-08-19T16:44:33Z</time>
      </trkpt>
      <trkpt lat="43.13689" lon="-0.03126">
        <ele>422.64</ele>
        <time>2021-08-19T16:44:41Z</time>
      </trkpt>
      <trkpt lat="43.13666" lon="-0.03133">
        <ele>423.6</ele>
        <time>2021-08-19T16:44:49Z</time>
      </trkpt>
      <trkpt lat="43.13647" lon="-0.0313">
        <ele>424.56</ele>
        <time>2021-08-19T16:44:57Z</time>
      </trkpt>
      <trkpt lat="43.13625" lon="-0.03125">
        <ele>426</ele>
        <time>2021-08-19T16:45:05Z</time>
      </trkpt>
      <trkpt lat="43.13592" lon="-0.03116">
        <ele>427.44</ele>
        <time>2021-08-19T16:45:17Z</time>
      </trkpt>
      <trkpt lat="43.13562" lon="-0.03109">
        <ele>427.44</ele>
        <time>2021-08-19T16:45:26Z</time>
      </trkpt>
      <trkpt lat="43.13539" lon="-0.03104">
        <ele>428.89</ele>
        <time>2021-08-19T16:45:33Z</time>
      </trkpt>
      <trkpt lat="43.13525" lon="-0.03099">
        <ele>429.85</ele>
        <time>2021-08-19T16:45:39Z</time>
      </trkpt>
      <trkpt lat="43.13498" lon="-0.0309">
        <ele>430.81</ele>
        <time>2021-08-19T16:45:48Z</time>
      </trkpt>
      <trkpt lat="43.13477" lon="-0.03083">
        <ele>432.73</ele>
        <time>2021-08-19T16:45:57Z</time>
      </trkpt>
      <trkpt lat="43.13461" lon="-0.03076">
        <ele>434.65</ele>
        <time>2021-08-19T16:46:06Z</time>
      </trkpt>
      <trkpt lat="43.13458" lon="-0.03076">
        <ele>435.61</ele>
        <time>2021-08-19T16:46:11Z</time>
      </trkpt>
      <trkpt lat="43.13456" lon="-0.03077">
        <ele>435.61</ele>
        <time>2021-08-19T16:46:14Z</time>
      </trkpt>
      <trkpt lat="43.13454" lon="-0.03079">
        <ele>435.61</ele>
        <time>2021-08-19T16:46:15Z</time>
      </trkpt>
      <trkpt lat="43.13454" lon="-0.03081">
        <ele>435.61</ele>
        <time>2021-08-19T16:46:16Z</time>
      </trkpt>
      <trkpt lat="43.13453" lon="-0.03084">
        <ele>435.61</ele>
        <time>2021-08-19T16:46:17Z</time>
      </trkpt>
      <trkpt lat="43.13453" lon="-0.03087">
        <ele>435.61</ele>
        <time>2021-08-19T16:46:18Z</time>
      </trkpt>
      <trkpt lat="43.13452" lon="-0.03105">
        <ele>436.1</ele>
        <time>2021-08-19T16:46:23Z</time>
      </trkpt>
      <trkpt lat="43.13451" lon="-0.03108">
        <ele>436.1</ele>
        <time>2021-08-19T16:46:24Z</time>
      </trkpt>
      <trkpt lat="43.13447" lon="-0.03111">
        <ele>436.1</ele>
        <time>2021-08-19T16:46:25Z</time>
      </trkpt>
      <trkpt lat="43.13444" lon="-0.03111">
        <ele>436.1</ele>
        <time>2021-08-19T16:46:26Z</time>
      </trkpt>
      <trkpt lat="43.1344" lon="-0.03111">
        <ele>436.1</ele>
        <time>2021-08-19T16:46:27Z</time>
      </trkpt>
      <trkpt lat="43.13412" lon="-0.03106">
        <ele>436.1</ele>
        <time>2021-08-19T16:46:35Z</time>
      </trkpt>
      <trkpt lat="43.13374" lon="-0.03098">
        <ele>437.06</ele>
        <time>2021-08-19T16:46:45Z</time>
      </trkpt>
      <trkpt lat="43.13349" lon="-0.0309">
        <ele>438.02</ele>
        <time>2021-08-19T16:46:54Z</time>
      </trkpt>
      <trkpt lat="43.13319" lon="-0.03082">
        <ele>436.58</ele>
        <time>2021-08-19T16:47:02Z</time>
      </trkpt>
      <trkpt lat="43.13315" lon="-0.0308">
        <ele>436.58</ele>
        <time>2021-08-19T16:47:03Z</time>
      </trkpt>
      <trkpt lat="43.13276" lon="-0.03068">
        <ele>435.61</ele>
        <time>2021-08-19T16:47:11Z</time>
      </trkpt>
      <trkpt lat="43.13272" lon="-0.03066">
        <ele>435.61</ele>
        <time>2021-08-19T16:47:12Z</time>
      </trkpt>
      <trkpt lat="43.13267" lon="-0.03065">
        <ele>435.61</ele>
        <time>2021-08-19T16:47:13Z</time>
      </trkpt>
      <trkpt lat="43.13246" lon="-0.0306">
        <ele>435.13</ele>
        <time>2021-08-19T16:47:17Z</time>
      </trkpt>
      <trkpt lat="43.13241" lon="-0.03058">
        <ele>435.13</ele>
        <time>2021-08-19T16:47:18Z</time>
      </trkpt>
      <trkpt lat="43.13236" lon="-0.03057">
        <ele>435.13</ele>
        <time>2021-08-19T16:47:19Z</time>
      </trkpt>
      <trkpt lat="43.13169" lon="-0.03042">
        <ele>435.13</ele>
        <time>2021-08-19T16:47:31Z</time>
      </trkpt>
      <trkpt lat="43.13149" lon="-0.03037">
        <ele>435.13</ele>
        <time>2021-08-19T16:47:35Z</time>
      </trkpt>
      <trkpt lat="43.13093" lon="-0.03025">
        <ele>437.06</ele>
        <time>2021-08-19T16:47:47Z</time>
      </trkpt>
      <trkpt lat="43.13065" lon="-0.03018">
        <ele>438.5</ele>
        <time>2021-08-19T16:47:55Z</time>
      </trkpt>
      <trkpt lat="43.13035" lon="-0.03012">
        <ele>440.42</ele>
        <time>2021-08-19T16:48:04Z</time>
      </trkpt>
      <trkpt lat="43.13006" lon="-0.03007">
        <ele>441.86</ele>
        <time>2021-08-19T16:48:13Z</time>
      </trkpt>
      <trkpt lat="43.12972" lon="-0.03001">
        <ele>443.31</ele>
        <time>2021-08-19T16:48:23Z</time>
      </trkpt>
      <trkpt lat="43.12947" lon="-0.03">
        <ele>443.31</ele>
        <time>2021-08-19T16:48:29Z</time>
      </trkpt>
      <trkpt lat="43.12942" lon="-0.03">
        <ele>442.34</ele>
        <time>2021-08-19T16:48:30Z</time>
      </trkpt>
      <trkpt lat="43.12936" lon="-0.03">
        <ele>442.34</ele>
        <time>2021-08-19T16:48:31Z</time>
      </trkpt>
      <trkpt lat="43.12887" lon="-0.03004">
        <ele>441.38</ele>
        <time>2021-08-19T16:48:41Z</time>
      </trkpt>
      <trkpt lat="43.12848" lon="-0.03011">
        <ele>440.42</ele>
        <time>2021-08-19T16:48:49Z</time>
      </trkpt>
      <trkpt lat="43.12814" lon="-0.03021">
        <ele>439.46</ele>
        <time>2021-08-19T16:48:55Z</time>
      </trkpt>
      <trkpt lat="43.12774" lon="-0.03042">
        <ele>438.98</ele>
        <time>2021-08-19T16:49:03Z</time>
      </trkpt>
      <trkpt lat="43.12728" lon="-0.03071">
        <ele>437.54</ele>
        <time>2021-08-19T16:49:12Z</time>
      </trkpt>
      <trkpt lat="43.12718" lon="-0.03077">
        <ele>437.54</ele>
        <time>2021-08-19T16:49:14Z</time>
      </trkpt>
      <trkpt lat="43.12712" lon="-0.03079">
        <ele>436.58</ele>
        <time>2021-08-19T16:49:15Z</time>
      </trkpt>
      <trkpt lat="43.12706" lon="-0.03081">
        <ele>436.58</ele>
        <time>2021-08-19T16:49:16Z</time>
      </trkpt>
      <trkpt lat="43.12673" lon="-0.03102">
        <ele>434.65</ele>
        <time>2021-08-19T16:49:22Z</time>
      </trkpt>
      <trkpt lat="43.12667" lon="-0.03106">
        <ele>434.65</ele>
        <time>2021-08-19T16:49:23Z</time>
      </trkpt>
      <trkpt lat="43.12662" lon="-0.0311">
        <ele>434.65</ele>
        <time>2021-08-19T16:49:24Z</time>
      </trkpt>
      <trkpt lat="43.12646" lon="-0.03121">
        <ele>434.65</ele>
        <time>2021-08-19T16:49:27Z</time>
      </trkpt>
      <trkpt lat="43.12621" lon="-0.03139">
        <ele>434.65</ele>
        <time>2021-08-19T16:49:32Z</time>
      </trkpt>
      <trkpt lat="43.12617" lon="-0.03141">
        <ele>434.65</ele>
        <time>2021-08-19T16:49:33Z</time>
      </trkpt>
      <trkpt lat="43.12612" lon="-0.03145">
        <ele>434.65</ele>
        <time>2021-08-19T16:49:34Z</time>
      </trkpt>
      <trkpt lat="43.12607" lon="-0.03148">
        <ele>434.65</ele>
        <time>2021-08-19T16:49:35Z</time>
      </trkpt>
      <trkpt lat="43.12603" lon="-0.03151">
        <ele>434.65</ele>
        <time>2021-08-19T16:49:36Z</time>
      </trkpt>
      <trkpt lat="43.1259" lon="-0.0316">
        <ele>434.65</ele>
        <time>2021-08-19T16:49:39Z</time>
      </trkpt>
      <trkpt lat="43.12558" lon="-0.03176">
        <ele>434.65</ele>
        <time>2021-08-19T16:49:46Z</time>
      </trkpt>
      <trkpt lat="43.1254" lon="-0.03188">
        <ele>436.1</ele>
        <time>2021-08-19T16:49:51Z</time>
      </trkpt>
      <trkpt lat="43.12538" lon="-0.03191">
        <ele>436.58</ele>
        <time>2021-08-19T16:49:52Z</time>
      </trkpt>
      <trkpt lat="43.12534" lon="-0.03216">
        <ele>435.13</ele>
        <time>2021-08-19T16:49:57Z</time>
      </trkpt>
      <trkpt lat="43.12531" lon="-0.03223">
        <ele>435.13</ele>
        <time>2021-08-19T16:49:58Z</time>
      </trkpt>
      <trkpt lat="43.1253" lon="-0.03229">
        <ele>434.65</ele>
        <time>2021-08-19T16:49:59Z</time>
      </trkpt>
      <trkpt lat="43.12522" lon="-0.03292">
        <ele>432.73</ele>
        <time>2021-08-19T16:50:07Z</time>
      </trkpt>
      <trkpt lat="43.12527" lon="-0.03341">
        <ele>432.73</ele>
        <time>2021-08-19T16:50:13Z</time>
      </trkpt>
      <trkpt lat="43.12528" lon="-0.03349">
        <ele>432.73</ele>
        <time>2021-08-19T16:50:14Z</time>
      </trkpt>
      <trkpt lat="43.12528" lon="-0.03357">
        <ele>432.73</ele>
        <time>2021-08-19T16:50:15Z</time>
      </trkpt>
      <trkpt lat="43.12525" lon="-0.03381">
        <ele>432.73</ele>
        <time>2021-08-19T16:50:18Z</time>
      </trkpt>
      <trkpt lat="43.12514" lon="-0.03433">
        <ele>432.73</ele>
        <time>2021-08-19T16:50:25Z</time>
      </trkpt>
      <trkpt lat="43.12504" lon="-0.0346">
        <ele>432.73</ele>
        <time>2021-08-19T16:50:29Z</time>
      </trkpt>
      <trkpt lat="43.12502" lon="-0.03467">
        <ele>432.73</ele>
        <time>2021-08-19T16:50:30Z</time>
      </trkpt>
      <trkpt lat="43.12498" lon="-0.03481">
        <ele>432.73</ele>
        <time>2021-08-19T16:50:32Z</time>
      </trkpt>
      <trkpt lat="43.12497" lon="-0.03488">
        <ele>432.73</ele>
        <time>2021-08-19T16:50:33Z</time>
      </trkpt>
      <trkpt lat="43.12497" lon="-0.03495">
        <ele>434.17</ele>
        <time>2021-08-19T16:50:34Z</time>
      </trkpt>
      <trkpt lat="43.12491" lon="-0.03542">
        <ele>434.65</ele>
        <time>2021-08-19T16:50:41Z</time>
      </trkpt>
      <trkpt lat="43.12489" lon="-0.03548">
        <ele>434.65</ele>
        <time>2021-08-19T16:50:42Z</time>
      </trkpt>
      <trkpt lat="43.12473" lon="-0.03588">
        <ele>436.58</ele>
        <time>2021-08-19T16:50:50Z</time>
      </trkpt>
      <trkpt lat="43.12461" lon="-0.03616">
        <ele>437.54</ele>
        <time>2021-08-19T16:50:59Z</time>
      </trkpt>
      <trkpt lat="43.1245" lon="-0.03641">
        <ele>438.98</ele>
        <time>2021-08-19T16:51:08Z</time>
      </trkpt>
      <trkpt lat="43.12437" lon="-0.03653">
        <ele>440.42</ele>
        <time>2021-08-19T16:51:15Z</time>
      </trkpt>
      <trkpt lat="43.12412" lon="-0.03646">
        <ele>440.9</ele>
        <time>2021-08-19T16:51:23Z</time>
      </trkpt>
      <trkpt lat="43.12375" lon="-0.03628">
        <ele>441.38</ele>
        <time>2021-08-19T16:51:33Z</time>
      </trkpt>
      <trkpt lat="43.12366" lon="-0.03626">
        <ele>441.38</ele>
        <time>2021-08-19T16:51:35Z</time>
      </trkpt>
      <trkpt lat="43.12356" lon="-0.03626">
        <ele>439.94</ele>
        <time>2021-08-19T16:51:37Z</time>
      </trkpt>
      <trkpt lat="43.12351" lon="-0.03627">
        <ele>439.94</ele>
        <time>2021-08-19T16:51:38Z</time>
      </trkpt>
      <trkpt lat="43.12329" lon="-0.03633">
        <ele>439.46</ele>
        <time>2021-08-19T16:51:42Z</time>
      </trkpt>
      <trkpt lat="43.12293" lon="-0.03646">
        <ele>438.5</ele>
        <time>2021-08-19T16:51:49Z</time>
      </trkpt>
      <trkpt lat="43.12276" lon="-0.03649">
        <ele>438.02</ele>
        <time>2021-08-19T16:51:52Z</time>
      </trkpt>
      <trkpt lat="43.12262" lon="-0.03654">
        <ele>438.02</ele>
        <time>2021-08-19T16:51:55Z</time>
      </trkpt>
      <trkpt lat="43.12257" lon="-0.03655">
        <ele>437.54</ele>
        <time>2021-08-19T16:51:56Z</time>
      </trkpt>
      <trkpt lat="43.12246" lon="-0.03657">
        <ele>437.06</ele>
        <time>2021-08-19T16:51:58Z</time>
      </trkpt>
      <trkpt lat="43.12185" lon="-0.03663">
        <ele>436.1</ele>
        <time>2021-08-19T16:52:09Z</time>
      </trkpt>
      <trkpt lat="43.12155" lon="-0.03663">
        <ele>435.61</ele>
        <time>2021-08-19T16:52:14Z</time>
      </trkpt>
      <trkpt lat="43.12149" lon="-0.03665">
        <ele>435.13</ele>
        <time>2021-08-19T16:52:15Z</time>
      </trkpt>
      <trkpt lat="43.12099" lon="-0.03683">
        <ele>435.13</ele>
        <time>2021-08-19T16:52:23Z</time>
      </trkpt>
      <trkpt lat="43.12059" lon="-0.037">
        <ele>435.13</ele>
        <time>2021-08-19T16:52:30Z</time>
      </trkpt>
      <trkpt lat="43.12039" lon="-0.0371">
        <ele>436.58</ele>
        <time>2021-08-19T16:52:34Z</time>
      </trkpt>
      <trkpt lat="43.12029" lon="-0.03714">
        <ele>436.58</ele>
        <time>2021-08-19T16:52:36Z</time>
      </trkpt>
      <trkpt lat="43.12008" lon="-0.03717">
        <ele>436.58</ele>
        <time>2021-08-19T16:52:40Z</time>
      </trkpt>
      <trkpt lat="43.11977" lon="-0.03712">
        <ele>436.58</ele>
        <time>2021-08-19T16:52:46Z</time>
      </trkpt>
      <trkpt lat="43.11972" lon="-0.03712">
        <ele>437.54</ele>
        <time>2021-08-19T16:52:47Z</time>
      </trkpt>
      <trkpt lat="43.11948" lon="-0.03721">
        <ele>439.46</ele>
        <time>2021-08-19T16:52:54Z</time>
      </trkpt>
      <trkpt lat="43.11922" lon="-0.03729">
        <ele>439.46</ele>
        <time>2021-08-19T16:53:02Z</time>
      </trkpt>
      <trkpt lat="43.11899" lon="-0.03732">
        <ele>439.46</ele>
        <time>2021-08-19T16:53:07Z</time>
      </trkpt>
      <trkpt lat="43.11882" lon="-0.03726">
        <ele>439.94</ele>
        <time>2021-08-19T16:53:12Z</time>
      </trkpt>
      <trkpt lat="43.11881" lon="-0.03722">
        <ele>439.94</ele>
        <time>2021-08-19T16:53:13Z</time>
      </trkpt>
      <trkpt lat="43.11877" lon="-0.03709">
        <ele>438.02</ele>
        <time>2021-08-19T16:53:15Z</time>
      </trkpt>
      <trkpt lat="43.11874" lon="-0.03703">
        <ele>438.02</ele>
        <time>2021-08-19T16:53:16Z</time>
      </trkpt>
      <trkpt lat="43.1187" lon="-0.03699">
        <ele>437.54</ele>
        <time>2021-08-19T16:53:17Z</time>
      </trkpt>
      <trkpt lat="43.11864" lon="-0.03697">
        <ele>437.54</ele>
        <time>2021-08-19T16:53:18Z</time>
      </trkpt>
      <trkpt lat="43.11859" lon="-0.03696">
        <ele>436.58</ele>
        <time>2021-08-19T16:53:19Z</time>
      </trkpt>
      <trkpt lat="43.11853" lon="-0.03696">
        <ele>436.58</ele>
        <time>2021-08-19T16:53:20Z</time>
      </trkpt>
      <trkpt lat="43.11848" lon="-0.03696">
        <ele>436.58</ele>
        <time>2021-08-19T16:53:21Z</time>
      </trkpt>
      <trkpt lat="43.11833" lon="-0.03694">
        <ele>436.58</ele>
        <time>2021-08-19T16:53:24Z</time>
      </trkpt>
      <trkpt lat="43.11824" lon="-0.0369">
        <ele>436.58</ele>
        <time>2021-08-19T16:53:26Z</time>
      </trkpt>
      <trkpt lat="43.1182" lon="-0.03686">
        <ele>436.58</ele>
        <time>2021-08-19T16:53:27Z</time>
      </trkpt>
      <trkpt lat="43.11798" lon="-0.03662">
        <ele>436.58</ele>
        <time>2021-08-19T16:53:33Z</time>
      </trkpt>
      <trkpt lat="43.11777" lon="-0.0362">
        <ele>438.5</ele>
        <time>2021-08-19T16:53:42Z</time>
      </trkpt>
      <trkpt lat="43.11775" lon="-0.03617">
        <ele>438.98</ele>
        <time>2021-08-19T16:53:43Z</time>
      </trkpt>
      <trkpt lat="43.11775" lon="-0.03614">
        <ele>438.98</ele>
        <time>2021-08-19T16:53:44Z</time>
      </trkpt>
      <trkpt lat="43.11776" lon="-0.0361">
        <ele>438.98</ele>
        <time>2021-08-19T16:53:45Z</time>
      </trkpt>
      <trkpt lat="43.11777" lon="-0.03605">
        <ele>438.98</ele>
        <time>2021-08-19T16:53:46Z</time>
      </trkpt>
      <trkpt lat="43.11778" lon="-0.036">
        <ele>437.54</ele>
        <time>2021-08-19T16:53:47Z</time>
      </trkpt>
      <trkpt lat="43.11779" lon="-0.03594">
        <ele>437.54</ele>
        <time>2021-08-19T16:53:48Z</time>
      </trkpt>
      <trkpt lat="43.11778" lon="-0.03588">
        <ele>436.58</ele>
        <time>2021-08-19T16:53:49Z</time>
      </trkpt>
      <trkpt lat="43.11778" lon="-0.03574">
        <ele>435.61</ele>
        <time>2021-08-19T16:53:51Z</time>
      </trkpt>
      <trkpt lat="43.11779" lon="-0.03567">
        <ele>435.13</ele>
        <time>2021-08-19T16:53:52Z</time>
      </trkpt>
      <trkpt lat="43.11782" lon="-0.03561">
        <ele>434.65</ele>
        <time>2021-08-19T16:53:53Z</time>
      </trkpt>
      <trkpt lat="43.11786" lon="-0.03556">
        <ele>434.17</ele>
        <time>2021-08-19T16:53:54Z</time>
      </trkpt>
      <trkpt lat="43.11788" lon="-0.0355">
        <ele>433.69</ele>
        <time>2021-08-19T16:53:55Z</time>
      </trkpt>
      <trkpt lat="43.1179" lon="-0.03542">
        <ele>433.69</ele>
        <time>2021-08-19T16:53:56Z</time>
      </trkpt>
      <trkpt lat="43.1179" lon="-0.03533">
        <ele>432.25</ele>
        <time>2021-08-19T16:53:57Z</time>
      </trkpt>
      <trkpt lat="43.1179" lon="-0.03525">
        <ele>431.29</ele>
        <time>2021-08-19T16:53:58Z</time>
      </trkpt>
      <trkpt lat="43.11788" lon="-0.03516">
        <ele>430.81</ele>
        <time>2021-08-19T16:53:59Z</time>
      </trkpt>
      <trkpt lat="43.11786" lon="-0.03506">
        <ele>429.37</ele>
        <time>2021-08-19T16:54:00Z</time>
      </trkpt>
      <trkpt lat="43.11782" lon="-0.03495">
        <ele>428.89</ele>
        <time>2021-08-19T16:54:01Z</time>
      </trkpt>
      <trkpt lat="43.11778" lon="-0.03485">
        <ele>428.89</ele>
        <time>2021-08-19T16:54:02Z</time>
      </trkpt>
      <trkpt lat="43.11773" lon="-0.03476">
        <ele>427.92</ele>
        <time>2021-08-19T16:54:03Z</time>
      </trkpt>
      <trkpt lat="43.1176" lon="-0.03452">
        <ele>427.44</ele>
        <time>2021-08-19T16:54:06Z</time>
      </trkpt>
      <trkpt lat="43.11757" lon="-0.03445">
        <ele>427.44</ele>
        <time>2021-08-19T16:54:07Z</time>
      </trkpt>
      <trkpt lat="43.11755" lon="-0.03437">
        <ele>427.44</ele>
        <time>2021-08-19T16:54:08Z</time>
      </trkpt>
      <trkpt lat="43.11754" lon="-0.0343">
        <ele>427.44</ele>
        <time>2021-08-19T16:54:09Z</time>
      </trkpt>
      <trkpt lat="43.11752" lon="-0.03424">
        <ele>427.44</ele>
        <time>2021-08-19T16:54:10Z</time>
      </trkpt>
      <trkpt lat="43.11743" lon="-0.03394">
        <ele>427.44</ele>
        <time>2021-08-19T16:54:15Z</time>
      </trkpt>
      <trkpt lat="43.11732" lon="-0.03337">
        <ele>427.92</ele>
        <time>2021-08-19T16:54:24Z</time>
      </trkpt>
      <trkpt lat="43.11723" lon="-0.03281">
        <ele>425.04</ele>
        <time>2021-08-19T16:54:31Z</time>
      </trkpt>
      <trkpt lat="43.1172" lon="-0.03272">
        <ele>424.56</ele>
        <time>2021-08-19T16:54:32Z</time>
      </trkpt>
      <trkpt lat="43.11718" lon="-0.03265">
        <ele>424.56</ele>
        <time>2021-08-19T16:54:33Z</time>
      </trkpt>
      <trkpt lat="43.11714" lon="-0.03258">
        <ele>424.56</ele>
        <time>2021-08-19T16:54:34Z</time>
      </trkpt>
      <trkpt lat="43.11711" lon="-0.03251">
        <ele>423.6</ele>
        <time>2021-08-19T16:54:35Z</time>
      </trkpt>
      <trkpt lat="43.11701" lon="-0.03229">
        <ele>423.6</ele>
        <time>2021-08-19T16:54:40Z</time>
      </trkpt>
      <trkpt lat="43.11699" lon="-0.03227">
        <ele>423.6</ele>
        <time>2021-08-19T16:54:42Z</time>
      </trkpt>
      <trkpt lat="43.11697" lon="-0.03227">
        <ele>423.6</ele>
        <time>2021-08-19T16:54:43Z</time>
      </trkpt>
      <trkpt lat="43.11694" lon="-0.03228">
        <ele>424.08</ele>
        <time>2021-08-19T16:54:44Z</time>
      </trkpt>
      <trkpt lat="43.11691" lon="-0.0323">
        <ele>423.6</ele>
        <time>2021-08-19T16:54:45Z</time>
      </trkpt>
      <trkpt lat="43.11687" lon="-0.03233">
        <ele>423.6</ele>
        <time>2021-08-19T16:54:46Z</time>
      </trkpt>
      <trkpt lat="43.11683" lon="-0.03236">
        <ele>423.6</ele>
        <time>2021-08-19T16:54:47Z</time>
      </trkpt>
      <trkpt lat="43.11651" lon="-0.03261">
        <ele>422.16</ele>
        <time>2021-08-19T16:54:53Z</time>
      </trkpt>
      <trkpt lat="43.11597" lon="-0.03304">
        <ele>418.79</ele>
        <time>2021-08-19T16:55:01Z</time>
      </trkpt>
      <trkpt lat="43.11519" lon="-0.03366">
        <ele>418.31</ele>
        <time>2021-08-19T16:55:12Z</time>
      </trkpt>
      <trkpt lat="43.11455" lon="-0.03417">
        <ele>418.31</ele>
        <time>2021-08-19T16:55:22Z</time>
      </trkpt>
      <trkpt lat="43.11425" lon="-0.03441">
        <ele>418.31</ele>
        <time>2021-08-19T16:55:27Z</time>
      </trkpt>
      <trkpt lat="43.11419" lon="-0.03447">
        <ele>418.31</ele>
        <time>2021-08-19T16:55:28Z</time>
      </trkpt>
      <trkpt lat="43.11413" lon="-0.03451">
        <ele>418.31</ele>
        <time>2021-08-19T16:55:29Z</time>
      </trkpt>
      <trkpt lat="43.11391" lon="-0.03466">
        <ele>419.75</ele>
        <time>2021-08-19T16:55:33Z</time>
      </trkpt>
      <trkpt lat="43.11381" lon="-0.03473">
        <ele>419.75</ele>
        <time>2021-08-19T16:55:35Z</time>
      </trkpt>
      <trkpt lat="43.11332" lon="-0.0351">
        <ele>420.23</ele>
        <time>2021-08-19T16:55:44Z</time>
      </trkpt>
      <trkpt lat="43.11301" lon="-0.03535">
        <ele>421.68</ele>
        <time>2021-08-19T16:55:51Z</time>
      </trkpt>
      <trkpt lat="43.11299" lon="-0.0354">
        <ele>421.68</ele>
        <time>2021-08-19T16:55:52Z</time>
      </trkpt>
      <trkpt lat="43.11299" lon="-0.03544">
        <ele>421.68</ele>
        <time>2021-08-19T16:55:53Z</time>
      </trkpt>
      <trkpt lat="43.113" lon="-0.03547">
        <ele>421.68</ele>
        <time>2021-08-19T16:55:54Z</time>
      </trkpt>
      <trkpt lat="43.11301" lon="-0.0355">
        <ele>422.64</ele>
        <time>2021-08-19T16:55:55Z</time>
      </trkpt>
      <trkpt lat="43.11303" lon="-0.03552">
        <ele>422.64</ele>
        <time>2021-08-19T16:55:56Z</time>
      </trkpt>
      <trkpt lat="43.11307" lon="-0.03554">
        <ele>422.64</ele>
        <time>2021-08-19T16:55:57Z</time>
      </trkpt>
      <trkpt lat="43.1131" lon="-0.03556">
        <ele>422.64</ele>
        <time>2021-08-19T16:55:58Z</time>
      </trkpt>
      <trkpt lat="43.11319" lon="-0.03564">
        <ele>423.12</ele>
        <time>2021-08-19T16:56:01Z</time>
      </trkpt>
      <trkpt lat="43.11319" lon="-0.03567">
        <ele>423.12</ele>
        <time>2021-08-19T16:56:02Z</time>
      </trkpt>
      <trkpt lat="43.11318" lon="-0.03569">
        <ele>423.6</ele>
        <time>2021-08-19T16:56:03Z</time>
      </trkpt>
      <trkpt lat="43.11316" lon="-0.0357">
        <ele>423.6</ele>
        <time>2021-08-19T16:56:04Z</time>
      </trkpt>
      <trkpt lat="43.11314" lon="-0.03571">
        <ele>423.6</ele>
        <time>2021-08-19T16:56:05Z</time>
      </trkpt>
      <trkpt lat="43.11312" lon="-0.03571">
        <ele>423.6</ele>
        <time>2021-08-19T16:56:06Z</time>
      </trkpt>
      <trkpt lat="43.1131" lon="-0.03571">
        <ele>423.6</ele>
        <time>2021-08-19T16:56:07Z</time>
      </trkpt>
      <trkpt lat="43.11307" lon="-0.03569">
        <ele>423.6</ele>
        <time>2021-08-19T16:56:08Z</time>
      </trkpt>
      <trkpt lat="43.11305" lon="-0.03567">
        <ele>423.6</ele>
        <time>2021-08-19T16:56:09Z</time>
      </trkpt>
      <trkpt lat="43.11303" lon="-0.03564">
        <ele>423.6</ele>
        <time>2021-08-19T16:56:10Z</time>
      </trkpt>
      <trkpt lat="43.11299" lon="-0.03558">
        <ele>423.6</ele>
        <time>2021-08-19T16:56:15Z</time>
      </trkpt>
      <trkpt lat="43.11299" lon="-0.03556">
        <ele>423.6</ele>
        <time>2021-08-19T16:56:24Z</time>
      </trkpt>
      <trkpt lat="43.11301" lon="-0.03554">
        <ele>424.08</ele>
        <time>2021-08-19T16:56:46Z</time>
      </trkpt>
      <trkpt lat="43.113" lon="-0.03552">
        <ele>424.08</ele>
        <time>2021-08-19T16:57:03Z</time>
      </trkpt>
      <trkpt lat="43.11298" lon="-0.03551">
        <ele>424.08</ele>
        <time>2021-08-19T16:57:23Z</time>
      </trkpt>
      <trkpt lat="43.11296" lon="-0.03551">
        <ele>424.08</ele>
        <time>2021-08-19T16:57:44Z</time>
      </trkpt>
      <trkpt lat="43.11298" lon="-0.03553">
        <ele>424.08</ele>
        <time>2021-08-19T16:58:02Z</time>
      </trkpt>
      <trkpt lat="43.11299" lon="-0.03553">
        <ele>424.08</ele>
        <time>2021-08-19T16:58:23Z</time>
      </trkpt>
      <trkpt lat="43.113" lon="-0.03557">
        <ele>424.08</ele>
        <time>2021-08-19T16:58:40Z</time>
      </trkpt>
      <trkpt lat="43.11298" lon="-0.03556">
        <ele>424.08</ele>
        <time>2021-08-19T16:58:57Z</time>
      </trkpt>
      <trkpt lat="43.11297" lon="-0.03556">
        <ele>424.08</ele>
        <time>2021-08-19T16:59:18Z</time>
      </trkpt>
      <trkpt lat="43.11299" lon="-0.03556">
        <ele>424.08</ele>
        <time>2021-08-19T16:59:32Z</time>
      </trkpt>
      <trkpt lat="43.11296" lon="-0.03555">
        <ele>424.08</ele>
        <time>2021-08-19T16:59:56Z</time>
      </trkpt>
      <trkpt lat="43.11296" lon="-0.03556">
        <ele>424.08</ele>
        <time>2021-08-19T17:00:15Z</time>
      </trkpt>
      <trkpt lat="43.11296" lon="-0.03557">
        <ele>424.08</ele>
        <time>2021-08-19T17:00:27Z</time>
      </trkpt>
      <trkpt lat="43.11294" lon="-0.03553">
        <ele>424.08</ele>
        <time>2021-08-19T17:00:35Z</time>
      </trkpt>
      <trkpt lat="43.11297" lon="-0.03553">
        <ele>424.08</ele>
        <time>2021-08-19T17:00:52Z</time>
      </trkpt>
      <trkpt lat="43.11298" lon="-0.03555">
        <ele>424.08</ele>
        <time>2021-08-19T17:01:12Z</time>
      </trkpt>
      <trkpt lat="43.11297" lon="-0.03553">
        <ele>423.6</ele>
        <time>2021-08-19T17:01:30Z</time>
      </trkpt>
      <trkpt lat="43.11298" lon="-0.03557">
        <ele>423.6</ele>
        <time>2021-08-19T17:01:51Z</time>
      </trkpt>
      <trkpt lat="43.11298" lon="-0.03558">
        <ele>423.6</ele>
        <time>2021-08-19T17:02:12Z</time>
      </trkpt>
      <trkpt lat="43.11297" lon="-0.03555">
        <ele>423.6</ele>
        <time>2021-08-19T17:02:40Z</time>
      </trkpt>
      <trkpt lat="43.11298" lon="-0.03556">
        <ele>423.6</ele>
        <time>2021-08-19T17:02:58Z</time>
      </trkpt>
      <trkpt lat="43.11301" lon="-0.03558">
        <ele>423.6</ele>
        <time>2021-08-19T17:03:15Z</time>
      </trkpt>
      <trkpt lat="43.11299" lon="-0.03558">
        <ele>423.6</ele>
        <time>2021-08-19T17:03:32Z</time>
      </trkpt>
      <trkpt lat="43.11298" lon="-0.03557">
        <ele>423.6</ele>
        <time>2021-08-19T17:03:47Z</time>
      </trkpt>
      <trkpt lat="43.11297" lon="-0.03558">
        <ele>423.6</ele>
        <time>2021-08-19T17:04:04Z</time>
      </trkpt>
      <trkpt lat="43.11296" lon="-0.03557">
        <ele>423.6</ele>
        <time>2021-08-19T17:04:23Z</time>
      </trkpt>
      <trkpt lat="43.11296" lon="-0.03557">
        <ele>423.6</ele>
        <time>2021-08-19T17:04:35Z</time>
      </trkpt>
      <trkpt lat="43.11298" lon="-0.03557">
        <ele>423.6</ele>
        <time>2021-08-19T17:04:57Z</time>
      </trkpt>
      <trkpt lat="43.11297" lon="-0.03556">
        <ele>423.6</ele>
        <time>2021-08-19T17:05:12Z</time>
      </trkpt>
      <trkpt lat="43.11297" lon="-0.03554">
        <ele>424.08</ele>
        <time>2021-08-19T17:05:29Z</time>
      </trkpt>
      <trkpt lat="43.11297" lon="-0.03555">
        <ele>424.08</ele>
        <time>2021-08-19T17:05:34Z</time>
      </trkpt>
      <trkpt lat="43.11297" lon="-0.03555">
        <ele>424.08</ele>
        <time>2021-08-19T17:05:39Z</time>
      </trkpt>
      <trkpt lat="43.11296" lon="-0.03554">
        <ele>425.04</ele>
        <time>2021-08-19T17:39:28Z</time>
      </trkpt>
      <trkpt lat="43.11296" lon="-0.03554">
        <ele>425.04</ele>
        <time>2021-08-19T17:39:29Z</time>
      </trkpt>
      <trkpt lat="43.11298" lon="-0.03559">
        <ele>426</ele>
        <time>2021-08-19T17:39:47Z</time>
      </trkpt>
      <trkpt lat="43.113" lon="-0.03562">
        <ele>426</ele>
        <time>2021-08-19T17:40:05Z</time>
      </trkpt>
      <trkpt lat="43.11295" lon="-0.03558">
        <ele>426</ele>
        <time>2021-08-19T17:40:26Z</time>
      </trkpt>
      <trkpt lat="43.11294" lon="-0.03559">
        <ele>426</ele>
        <time>2021-08-19T17:40:32Z</time>
      </trkpt>
      <trkpt lat="43.11295" lon="-0.03559">
        <ele>426</ele>
        <time>2021-08-19T17:40:34Z</time>
      </trkpt>
      <trkpt lat="43.11297" lon="-0.03559">
        <ele>426</ele>
        <time>2021-08-19T17:40:35Z</time>
      </trkpt>
      <trkpt lat="43.11312" lon="-0.03568">
        <ele>426</ele>
        <time>2021-08-19T17:40:43Z</time>
      </trkpt>
      <trkpt lat="43.11316" lon="-0.0357">
        <ele>426</ele>
        <time>2021-08-19T17:40:45Z</time>
      </trkpt>
      <trkpt lat="43.11318" lon="-0.03567">
        <ele>426</ele>
        <time>2021-08-19T17:40:46Z</time>
      </trkpt>
      <trkpt lat="43.11317" lon="-0.03563">
        <ele>426</ele>
        <time>2021-08-19T17:40:47Z</time>
      </trkpt>
      <trkpt lat="43.11315" lon="-0.03561">
        <ele>426</ele>
        <time>2021-08-19T17:40:48Z</time>
      </trkpt>
      <trkpt lat="43.11293" lon="-0.03549">
        <ele>424.56</ele>
        <time>2021-08-19T17:40:55Z</time>
      </trkpt>
      <trkpt lat="43.11284" lon="-0.03547">
        <ele>424.56</ele>
        <time>2021-08-19T17:40:59Z</time>
      </trkpt>
      <trkpt lat="43.11281" lon="-0.03549">
        <ele>424.56</ele>
        <time>2021-08-19T17:41:00Z</time>
      </trkpt>
      <trkpt lat="43.11279" lon="-0.0355">
        <ele>424.56</ele>
        <time>2021-08-19T17:41:01Z</time>
      </trkpt>
      <trkpt lat="43.11258" lon="-0.03566">
        <ele>424.56</ele>
        <time>2021-08-19T17:41:09Z</time>
      </trkpt>
      <trkpt lat="43.11248" lon="-0.03574">
        <ele>424.56</ele>
        <time>2021-08-19T17:41:13Z</time>
      </trkpt>
      <trkpt lat="43.11244" lon="-0.03576">
        <ele>424.56</ele>
        <time>2021-08-19T17:41:14Z</time>
      </trkpt>
      <trkpt lat="43.11224" lon="-0.03591">
        <ele>424.56</ele>
        <time>2021-08-19T17:41:19Z</time>
      </trkpt>
      <trkpt lat="43.11188" lon="-0.0362">
        <ele>424.08</ele>
        <time>2021-08-19T17:41:27Z</time>
      </trkpt>
      <trkpt lat="43.11146" lon="-0.03652">
        <ele>423.6</ele>
        <time>2021-08-19T17:41:35Z</time>
      </trkpt>
      <trkpt lat="43.11095" lon="-0.03693">
        <ele>423.6</ele>
        <time>2021-08-19T17:41:45Z</time>
      </trkpt>
      <trkpt lat="43.11046" lon="-0.03731">
        <ele>423.6</ele>
        <time>2021-08-19T17:41:54Z</time>
      </trkpt>
      <trkpt lat="43.10991" lon="-0.03773">
        <ele>423.6</ele>
        <time>2021-08-19T17:42:04Z</time>
      </trkpt>
      <trkpt lat="43.10936" lon="-0.03819">
        <ele>423.12</ele>
        <time>2021-08-19T17:42:14Z</time>
      </trkpt>
      <trkpt lat="43.10875" lon="-0.03867">
        <ele>423.12</ele>
        <time>2021-08-19T17:42:25Z</time>
      </trkpt>
      <trkpt lat="43.10811" lon="-0.0392">
        <ele>422.16</ele>
        <time>2021-08-19T17:42:36Z</time>
      </trkpt>
      <trkpt lat="43.10801" lon="-0.03929">
        <ele>423.6</ele>
        <time>2021-08-19T17:42:38Z</time>
      </trkpt>
      <trkpt lat="43.10761" lon="-0.03958">
        <ele>424.56</ele>
        <time>2021-08-19T17:42:46Z</time>
      </trkpt>
      <trkpt lat="43.1074" lon="-0.03968">
        <ele>424.56</ele>
        <time>2021-08-19T17:42:50Z</time>
      </trkpt>
      <trkpt lat="43.10735" lon="-0.03972">
        <ele>424.56</ele>
        <time>2021-08-19T17:42:51Z</time>
      </trkpt>
      <trkpt lat="43.1073" lon="-0.03976">
        <ele>424.56</ele>
        <time>2021-08-19T17:42:52Z</time>
      </trkpt>
      <trkpt lat="43.10727" lon="-0.03981">
        <ele>424.56</ele>
        <time>2021-08-19T17:42:53Z</time>
      </trkpt>
      <trkpt lat="43.10722" lon="-0.03987">
        <ele>425.04</ele>
        <time>2021-08-19T17:42:54Z</time>
      </trkpt>
      <trkpt lat="43.10718" lon="-0.03992">
        <ele>425.04</ele>
        <time>2021-08-19T17:42:55Z</time>
      </trkpt>
      <trkpt lat="43.10713" lon="-0.03995">
        <ele>425.04</ele>
        <time>2021-08-19T17:42:56Z</time>
      </trkpt>
      <trkpt lat="43.10707" lon="-0.03999">
        <ele>425.04</ele>
        <time>2021-08-19T17:42:57Z</time>
      </trkpt>
      <trkpt lat="43.10671" lon="-0.04028">
        <ele>425.52</ele>
        <time>2021-08-19T17:43:04Z</time>
      </trkpt>
      <trkpt lat="43.10628" lon="-0.04058">
        <ele>425.04</ele>
        <time>2021-08-19T17:43:12Z</time>
      </trkpt>
      <trkpt lat="43.1061" lon="-0.04072">
        <ele>423.6</ele>
        <time>2021-08-19T17:43:15Z</time>
      </trkpt>
      <trkpt lat="43.10563" lon="-0.04109">
        <ele>420.71</ele>
        <time>2021-08-19T17:43:22Z</time>
      </trkpt>
      <trkpt lat="43.10498" lon="-0.04159">
        <ele>419.27</ele>
        <time>2021-08-19T17:43:31Z</time>
      </trkpt>
      <trkpt lat="43.10422" lon="-0.04218">
        <ele>418.31</ele>
        <time>2021-08-19T17:43:42Z</time>
      </trkpt>
      <trkpt lat="43.10352" lon="-0.04272">
        <ele>417.35</ele>
        <time>2021-08-19T17:43:52Z</time>
      </trkpt>
      <trkpt lat="43.10297" lon="-0.04315">
        <ele>416.39</ele>
        <time>2021-08-19T17:44:00Z</time>
      </trkpt>
      <trkpt lat="43.1023" lon="-0.04368">
        <ele>416.39</ele>
        <time>2021-08-19T17:44:10Z</time>
      </trkpt>
      <trkpt lat="43.10179" lon="-0.04406">
        <ele>415.91</ele>
        <time>2021-08-19T17:44:18Z</time>
      </trkpt>
      <trkpt lat="43.10131" lon="-0.04441">
        <ele>415.91</ele>
        <time>2021-08-19T17:44:26Z</time>
      </trkpt>
      <trkpt lat="43.10086" lon="-0.04473">
        <ele>414.95</ele>
        <time>2021-08-19T17:44:33Z</time>
      </trkpt>
      <trkpt lat="43.10043" lon="-0.04504">
        <ele>411.1</ele>
        <time>2021-08-19T17:44:39Z</time>
      </trkpt>
      <trkpt lat="43.10005" lon="-0.04517">
        <ele>409.66</ele>
        <time>2021-08-19T17:44:44Z</time>
      </trkpt>
      <trkpt lat="43.09957" lon="-0.04532">
        <ele>406.77</ele>
        <time>2021-08-19T17:44:51Z</time>
      </trkpt>
      <trkpt lat="43.09953" lon="-0.04536">
        <ele>406.77</ele>
        <time>2021-08-19T17:44:52Z</time>
      </trkpt>
      <trkpt lat="43.09949" lon="-0.04542">
        <ele>406.77</ele>
        <time>2021-08-19T17:44:53Z</time>
      </trkpt>
      <trkpt lat="43.09946" lon="-0.04549">
        <ele>406.29</ele>
        <time>2021-08-19T17:44:54Z</time>
      </trkpt>
      <trkpt lat="43.09945" lon="-0.04556">
        <ele>405.81</ele>
        <time>2021-08-19T17:44:55Z</time>
      </trkpt>
      <trkpt lat="43.09945" lon="-0.04564">
        <ele>405.81</ele>
        <time>2021-08-19T17:44:56Z</time>
      </trkpt>
      <trkpt lat="43.09944" lon="-0.04572">
        <ele>405.33</ele>
        <time>2021-08-19T17:44:57Z</time>
      </trkpt>
      <trkpt lat="43.09944" lon="-0.04604">
        <ele>404.37</ele>
        <time>2021-08-19T17:45:01Z</time>
      </trkpt>
      <trkpt lat="43.09942" lon="-0.04612">
        <ele>404.37</ele>
        <time>2021-08-19T17:45:02Z</time>
      </trkpt>
      <trkpt lat="43.09939" lon="-0.04619">
        <ele>403.41</ele>
        <time>2021-08-19T17:45:03Z</time>
      </trkpt>
      <trkpt lat="43.09935" lon="-0.04623">
        <ele>403.89</ele>
        <time>2021-08-19T17:45:04Z</time>
      </trkpt>
      <trkpt lat="43.09929" lon="-0.04627">
        <ele>403.41</ele>
        <time>2021-08-19T17:45:05Z</time>
      </trkpt>
      <trkpt lat="43.09925" lon="-0.04629">
        <ele>403.89</ele>
        <time>2021-08-19T17:45:06Z</time>
      </trkpt>
      <trkpt lat="43.0992" lon="-0.04632">
        <ele>404.85</ele>
        <time>2021-08-19T17:45:07Z</time>
      </trkpt>
      <trkpt lat="43.099" lon="-0.04641">
        <ele>405.33</ele>
        <time>2021-08-19T17:45:11Z</time>
      </trkpt>
      <trkpt lat="43.09897" lon="-0.04647">
        <ele>405.33</ele>
        <time>2021-08-19T17:45:12Z</time>
      </trkpt>
      <trkpt lat="43.09894" lon="-0.04652">
        <ele>405.81</ele>
        <time>2021-08-19T17:45:13Z</time>
      </trkpt>
      <trkpt lat="43.09879" lon="-0.0467">
        <ele>407.26</ele>
        <time>2021-08-19T17:45:17Z</time>
      </trkpt>
      <trkpt lat="43.09855" lon="-0.04691">
        <ele>408.22</ele>
        <time>2021-08-19T17:45:24Z</time>
      </trkpt>
      <trkpt lat="43.09851" lon="-0.04694">
        <ele>408.22</ele>
        <time>2021-08-19T17:45:25Z</time>
      </trkpt>
      <trkpt lat="43.09848" lon="-0.04699">
        <ele>408.22</ele>
        <time>2021-08-19T17:45:26Z</time>
      </trkpt>
      <trkpt lat="43.09846" lon="-0.04704">
        <ele>408.22</ele>
        <time>2021-08-19T17:45:27Z</time>
      </trkpt>
      <trkpt lat="43.09845" lon="-0.0471">
        <ele>408.22</ele>
        <time>2021-08-19T17:45:28Z</time>
      </trkpt>
      <trkpt lat="43.09844" lon="-0.04717">
        <ele>408.22</ele>
        <time>2021-08-19T17:45:29Z</time>
      </trkpt>
      <trkpt lat="43.09845" lon="-0.04724">
        <ele>408.22</ele>
        <time>2021-08-19T17:45:30Z</time>
      </trkpt>
      <trkpt lat="43.09846" lon="-0.0473">
        <ele>408.22</ele>
        <time>2021-08-19T17:45:31Z</time>
      </trkpt>
      <trkpt lat="43.09848" lon="-0.04739">
        <ele>408.22</ele>
        <time>2021-08-19T17:45:32Z</time>
      </trkpt>
      <trkpt lat="43.09862" lon="-0.04799">
        <ele>408.22</ele>
        <time>2021-08-19T17:45:41Z</time>
      </trkpt>
      <trkpt lat="43.09873" lon="-0.04842">
        <ele>408.22</ele>
        <time>2021-08-19T17:45:48Z</time>
      </trkpt>
      <trkpt lat="43.0989" lon="-0.04908">
        <ele>408.22</ele>
        <time>2021-08-19T17:45:58Z</time>
      </trkpt>
      <trkpt lat="43.09904" lon="-0.04964">
        <ele>408.7</ele>
        <time>2021-08-19T17:46:06Z</time>
      </trkpt>
      <trkpt lat="43.09919" lon="-0.05022">
        <ele>409.18</ele>
        <time>2021-08-19T17:46:14Z</time>
      </trkpt>
      <trkpt lat="43.09931" lon="-0.05068">
        <ele>409.18</ele>
        <time>2021-08-19T17:46:21Z</time>
      </trkpt>
      <trkpt lat="43.0994" lon="-0.051">
        <ele>409.18</ele>
        <time>2021-08-19T17:46:25Z</time>
      </trkpt>
      <trkpt lat="43.0996" lon="-0.05161">
        <ele>408.7</ele>
        <time>2021-08-19T17:46:33Z</time>
      </trkpt>
      <trkpt lat="43.09971" lon="-0.05201">
        <ele>409.18</ele>
        <time>2021-08-19T17:46:39Z</time>
      </trkpt>
      <trkpt lat="43.09973" lon="-0.05208">
        <ele>409.18</ele>
        <time>2021-08-19T17:46:40Z</time>
      </trkpt>
      <trkpt lat="43.09973" lon="-0.05215">
        <ele>409.18</ele>
        <time>2021-08-19T17:46:41Z</time>
      </trkpt>
      <trkpt lat="43.09976" lon="-0.05245">
        <ele>408.22</ele>
        <time>2021-08-19T17:46:45Z</time>
      </trkpt>
      <trkpt lat="43.09976" lon="-0.05261">
        <ele>407.74</ele>
        <time>2021-08-19T17:46:47Z</time>
      </trkpt>
      <trkpt lat="43.09975" lon="-0.05269">
        <ele>407.74</ele>
        <time>2021-08-19T17:46:48Z</time>
      </trkpt>
      <trkpt lat="43.09961" lon="-0.05348">
        <ele>405.33</ele>
        <time>2021-08-19T17:46:57Z</time>
      </trkpt>
      <trkpt lat="43.09957" lon="-0.05404">
        <ele>405.33</ele>
        <time>2021-08-19T17:47:04Z</time>
      </trkpt>
      <trkpt lat="43.09962" lon="-0.05471">
        <ele>402.45</ele>
        <time>2021-08-19T17:47:12Z</time>
      </trkpt>
      <trkpt lat="43.09966" lon="-0.0551">
        <ele>399.08</ele>
        <time>2021-08-19T17:47:16Z</time>
      </trkpt>
      <trkpt lat="43.09968" lon="-0.05532">
        <ele>398.12</ele>
        <time>2021-08-19T17:47:18Z</time>
      </trkpt>
      <trkpt lat="43.0997" lon="-0.0556">
        <ele>396.2</ele>
        <time>2021-08-19T17:47:21Z</time>
      </trkpt>
      <trkpt lat="43.09973" lon="-0.05583">
        <ele>395.72</ele>
        <time>2021-08-19T17:47:25Z</time>
      </trkpt>
      <trkpt lat="43.09973" lon="-0.05582">
        <ele>395.72</ele>
        <time>2021-08-19T17:47:31Z</time>
      </trkpt>
      <trkpt lat="43.09973" lon="-0.05588">
        <ele>395.24</ele>
        <time>2021-08-19T17:47:46Z</time>
      </trkpt>
      <trkpt lat="43.09975" lon="-0.05618">
        <ele>394.76</ele>
        <time>2021-08-19T17:47:53Z</time>
      </trkpt>
      <trkpt lat="43.0998" lon="-0.05656">
        <ele>393.8</ele>
        <time>2021-08-19T17:48:00Z</time>
      </trkpt>
      <trkpt lat="43.09984" lon="-0.05704">
        <ele>392.36</ele>
        <time>2021-08-19T17:48:07Z</time>
      </trkpt>
      <trkpt lat="43.0999" lon="-0.05764">
        <ele>391.39</ele>
        <time>2021-08-19T17:48:14Z</time>
      </trkpt>
      <trkpt lat="43.09997" lon="-0.05843">
        <ele>390.43</ele>
        <time>2021-08-19T17:48:23Z</time>
      </trkpt>
      <trkpt lat="43.10004" lon="-0.05921">
        <ele>389.95</ele>
        <time>2021-08-19T17:48:32Z</time>
      </trkpt>
      <trkpt lat="43.1001" lon="-0.06">
        <ele>388.51</ele>
        <time>2021-08-19T17:48:41Z</time>
      </trkpt>
      <trkpt lat="43.10017" lon="-0.0608">
        <ele>385.63</ele>
        <time>2021-08-19T17:48:49Z</time>
      </trkpt>
      <trkpt lat="43.10023" lon="-0.06149">
        <ele>382.74</ele>
        <time>2021-08-19T17:48:55Z</time>
      </trkpt>
      <trkpt lat="43.10032" lon="-0.06246">
        <ele>378.9</ele>
        <time>2021-08-19T17:49:03Z</time>
      </trkpt>
      <trkpt lat="43.10033" lon="-0.06258">
        <ele>378.9</ele>
        <time>2021-08-19T17:49:04Z</time>
      </trkpt>
      <trkpt lat="43.10039" lon="-0.06322">
        <ele>376.49</ele>
        <time>2021-08-19T17:49:09Z</time>
      </trkpt>
      <trkpt lat="43.10048" lon="-0.06422">
        <ele>375.53</ele>
        <time>2021-08-19T17:49:17Z</time>
      </trkpt>
      <trkpt lat="43.10055" lon="-0.06499">
        <ele>375.53</ele>
        <time>2021-08-19T17:49:24Z</time>
      </trkpt>
      <trkpt lat="43.1006" lon="-0.06535">
        <ele>376.49</ele>
        <time>2021-08-19T17:49:28Z</time>
      </trkpt>
      <trkpt lat="43.10066" lon="-0.06598">
        <ele>377.45</ele>
        <time>2021-08-19T17:49:36Z</time>
      </trkpt>
      <trkpt lat="43.10066" lon="-0.06605">
        <ele>377.45</ele>
        <time>2021-08-19T17:49:37Z</time>
      </trkpt>
      <trkpt lat="43.10064" lon="-0.06611">
        <ele>377.45</ele>
        <time>2021-08-19T17:49:38Z</time>
      </trkpt>
      <trkpt lat="43.10061" lon="-0.06616">
        <ele>377.45</ele>
        <time>2021-08-19T17:49:39Z</time>
      </trkpt>
      <trkpt lat="43.10056" lon="-0.0662">
        <ele>377.45</ele>
        <time>2021-08-19T17:49:40Z</time>
      </trkpt>
      <trkpt lat="43.10052" lon="-0.06623">
        <ele>377.45</ele>
        <time>2021-08-19T17:49:41Z</time>
      </trkpt>
      <trkpt lat="43.10048" lon="-0.06627">
        <ele>377.45</ele>
        <time>2021-08-19T17:49:42Z</time>
      </trkpt>
      <trkpt lat="43.10043" lon="-0.0663">
        <ele>377.45</ele>
        <time>2021-08-19T17:49:43Z</time>
      </trkpt>
      <trkpt lat="43.10038" lon="-0.06633">
        <ele>377.45</ele>
        <time>2021-08-19T17:49:44Z</time>
      </trkpt>
      <trkpt lat="43.10033" lon="-0.06636">
        <ele>377.45</ele>
        <time>2021-08-19T17:49:45Z</time>
      </trkpt>
      <trkpt lat="43.09984" lon="-0.06661">
        <ele>377.45</ele>
        <time>2021-08-19T17:49:54Z</time>
      </trkpt>
      <trkpt lat="43.09953" lon="-0.06692">
        <ele>376.01</ele>
        <time>2021-08-19T17:50:00Z</time>
      </trkpt>
      <trkpt lat="43.09948" lon="-0.06699">
        <ele>376.01</ele>
        <time>2021-08-19T17:50:01Z</time>
      </trkpt>
      <trkpt lat="43.09944" lon="-0.06706">
        <ele>376.01</ele>
        <time>2021-08-19T17:50:02Z</time>
      </trkpt>
      <trkpt lat="43.09924" lon="-0.06767">
        <ele>375.53</ele>
        <time>2021-08-19T17:50:09Z</time>
      </trkpt>
      <trkpt lat="43.09903" lon="-0.0684">
        <ele>375.53</ele>
        <time>2021-08-19T17:50:18Z</time>
      </trkpt>
      <trkpt lat="43.09899" lon="-0.06853">
        <ele>376.49</ele>
        <time>2021-08-19T17:50:20Z</time>
      </trkpt>
      <trkpt lat="43.09888" lon="-0.06893">
        <ele>378.42</ele>
        <time>2021-08-19T17:50:28Z</time>
      </trkpt>
      <trkpt lat="43.09876" lon="-0.06923">
        <ele>379.86</ele>
        <time>2021-08-19T17:50:37Z</time>
      </trkpt>
      <trkpt lat="43.09863" lon="-0.06946">
        <ele>380.82</ele>
        <time>2021-08-19T17:50:45Z</time>
      </trkpt>
      <trkpt lat="43.09846" lon="-0.06965">
        <ele>382.26</ele>
        <time>2021-08-19T17:50:53Z</time>
      </trkpt>
      <trkpt lat="43.09821" lon="-0.06974">
        <ele>383.7</ele>
        <time>2021-08-19T17:51:02Z</time>
      </trkpt>
      <trkpt lat="43.09795" lon="-0.06983">
        <ele>385.15</ele>
        <time>2021-08-19T17:51:12Z</time>
      </trkpt>
      <trkpt lat="43.09779" lon="-0.07006">
        <ele>383.7</ele>
        <time>2021-08-19T17:51:19Z</time>
      </trkpt>
      <trkpt lat="43.09776" lon="-0.0701">
        <ele>383.7</ele>
        <time>2021-08-19T17:51:20Z</time>
      </trkpt>
      <trkpt lat="43.09774" lon="-0.07015">
        <ele>383.22</ele>
        <time>2021-08-19T17:51:21Z</time>
      </trkpt>
      <trkpt lat="43.0975" lon="-0.07055">
        <ele>382.26</ele>
        <time>2021-08-19T17:51:29Z</time>
      </trkpt>
      <trkpt lat="43.09741" lon="-0.07071">
        <ele>381.3</ele>
        <time>2021-08-19T17:51:32Z</time>
      </trkpt>
      <trkpt lat="43.09729" lon="-0.07111">
        <ele>377.94</ele>
        <time>2021-08-19T17:51:37Z</time>
      </trkpt>
      <trkpt lat="43.09727" lon="-0.07121">
        <ele>377.94</ele>
        <time>2021-08-19T17:51:38Z</time>
      </trkpt>
      <trkpt lat="43.09726" lon="-0.0714">
        <ele>378.42</ele>
        <time>2021-08-19T17:51:40Z</time>
      </trkpt>
      <trkpt lat="43.09727" lon="-0.07188">
        <ele>377.94</ele>
        <time>2021-08-19T17:51:46Z</time>
      </trkpt>
      <trkpt lat="43.09726" lon="-0.07197">
        <ele>376.97</ele>
        <time>2021-08-19T17:51:47Z</time>
      </trkpt>
      <trkpt lat="43.09725" lon="-0.07206">
        <ele>376.49</ele>
        <time>2021-08-19T17:51:48Z</time>
      </trkpt>
      <trkpt lat="43.09707" lon="-0.07292">
        <ele>374.57</ele>
        <time>2021-08-19T17:51:57Z</time>
      </trkpt>
      <trkpt lat="43.09701" lon="-0.07348">
        <ele>374.09</ele>
        <time>2021-08-19T17:52:03Z</time>
      </trkpt>
      <trkpt lat="43.09704" lon="-0.0743">
        <ele>373.13</ele>
        <time>2021-08-19T17:52:12Z</time>
      </trkpt>
      <trkpt lat="43.09712" lon="-0.07492">
        <ele>373.13</ele>
        <time>2021-08-19T17:52:20Z</time>
      </trkpt>
      <trkpt lat="43.09717" lon="-0.07519">
        <ele>373.13</ele>
        <time>2021-08-19T17:52:24Z</time>
      </trkpt>
      <trkpt lat="43.09731" lon="-0.07565">
        <ele>373.13</ele>
        <time>2021-08-19T17:52:31Z</time>
      </trkpt>
      <trkpt lat="43.09733" lon="-0.07578">
        <ele>373.13</ele>
        <time>2021-08-19T17:52:33Z</time>
      </trkpt>
      <trkpt lat="43.09737" lon="-0.07614">
        <ele>373.13</ele>
        <time>2021-08-19T17:52:39Z</time>
      </trkpt>
      <trkpt lat="43.09751" lon="-0.07665">
        <ele>370.73</ele>
        <time>2021-08-19T17:52:46Z</time>
      </trkpt>
      <trkpt lat="43.09755" lon="-0.07685">
        <ele>370.73</ele>
        <time>2021-08-19T17:52:49Z</time>
      </trkpt>
      <trkpt lat="43.09765" lon="-0.07727">
        <ele>372.17</ele>
        <time>2021-08-19T17:52:57Z</time>
      </trkpt>
      <trkpt lat="43.09766" lon="-0.07757">
        <ele>373.13</ele>
        <time>2021-08-19T17:53:04Z</time>
      </trkpt>
      <trkpt lat="43.09765" lon="-0.07764">
        <ele>373.61</ele>
        <time>2021-08-19T17:53:07Z</time>
      </trkpt>
      <trkpt lat="43.09766" lon="-0.07767">
        <ele>373.61</ele>
        <time>2021-08-19T17:53:08Z</time>
      </trkpt>
      <trkpt lat="43.09767" lon="-0.07769">
        <ele>374.09</ele>
        <time>2021-08-19T17:53:09Z</time>
      </trkpt>
      <trkpt lat="43.09768" lon="-0.07772">
        <ele>374.09</ele>
        <time>2021-08-19T17:53:10Z</time>
      </trkpt>
      <trkpt lat="43.09769" lon="-0.07774">
        <ele>374.09</ele>
        <time>2021-08-19T17:53:11Z</time>
      </trkpt>
      <trkpt lat="43.0977" lon="-0.07776">
        <ele>374.09</ele>
        <time>2021-08-19T17:53:12Z</time>
      </trkpt>
      <trkpt lat="43.09776" lon="-0.07789">
        <ele>372.65</ele>
        <time>2021-08-19T17:53:19Z</time>
      </trkpt>
      <trkpt lat="43.09783" lon="-0.07809">
        <ele>370.73</ele>
        <time>2021-08-19T17:53:24Z</time>
      </trkpt>
      <trkpt lat="43.09787" lon="-0.07838">
        <ele>370.24</ele>
        <time>2021-08-19T17:53:29Z</time>
      </trkpt>
      <trkpt lat="43.09791" lon="-0.07866">
        <ele>370.24</ele>
        <time>2021-08-19T17:53:34Z</time>
      </trkpt>
      <trkpt lat="43.09793" lon="-0.07874">
        <ele>371.69</ele>
        <time>2021-08-19T17:53:36Z</time>
      </trkpt>
      <trkpt lat="43.09797" lon="-0.07899">
        <ele>372.17</ele>
        <time>2021-08-19T17:53:42Z</time>
      </trkpt>
      <trkpt lat="43.09803" lon="-0.0793">
        <ele>373.13</ele>
        <time>2021-08-19T17:53:49Z</time>
      </trkpt>
      <trkpt lat="43.09812" lon="-0.07963">
        <ele>373.13</ele>
        <time>2021-08-19T17:53:56Z</time>
      </trkpt>
      <trkpt lat="43.09818" lon="-0.07986">
        <ele>373.61</ele>
        <time>2021-08-19T17:54:02Z</time>
      </trkpt>
      <trkpt lat="43.0982" lon="-0.08007">
        <ele>374.57</ele>
        <time>2021-08-19T17:54:08Z</time>
      </trkpt>
      <trkpt lat="43.09821" lon="-0.08011">
        <ele>374.57</ele>
        <time>2021-08-19T17:54:09Z</time>
      </trkpt>
      <trkpt lat="43.09822" lon="-0.08014">
        <ele>374.57</ele>
        <time>2021-08-19T17:54:10Z</time>
      </trkpt>
      <trkpt lat="43.09822" lon="-0.08017">
        <ele>374.57</ele>
        <time>2021-08-19T17:54:11Z</time>
      </trkpt>
      <trkpt lat="43.09823" lon="-0.0802">
        <ele>374.57</ele>
        <time>2021-08-19T17:54:12Z</time>
      </trkpt>
      <trkpt lat="43.09824" lon="-0.08023">
        <ele>374.57</ele>
        <time>2021-08-19T17:54:13Z</time>
      </trkpt>
      <trkpt lat="43.09825" lon="-0.08026">
        <ele>374.57</ele>
        <time>2021-08-19T17:54:14Z</time>
      </trkpt>
      <trkpt lat="43.09834" lon="-0.08046">
        <ele>375.05</ele>
        <time>2021-08-19T17:54:21Z</time>
      </trkpt>
      <trkpt lat="43.09844" lon="-0.08068">
        <ele>373.61</ele>
        <time>2021-08-19T17:54:26Z</time>
      </trkpt>
      <trkpt lat="43.09856" lon="-0.08092">
        <ele>373.61</ele>
        <time>2021-08-19T17:54:32Z</time>
      </trkpt>
      <trkpt lat="43.09873" lon="-0.08118">
        <ele>373.61</ele>
        <time>2021-08-19T17:54:38Z</time>
      </trkpt>
      <trkpt lat="43.09885" lon="-0.08134">
        <ele>373.13</ele>
        <time>2021-08-19T17:54:42Z</time>
      </trkpt>
      <trkpt lat="43.09903" lon="-0.08163">
        <ele>371.21</ele>
        <time>2021-08-19T17:54:48Z</time>
      </trkpt>
      <trkpt lat="43.09912" lon="-0.08175">
        <ele>370.73</ele>
        <time>2021-08-19T17:54:50Z</time>
      </trkpt>
      <trkpt lat="43.09916" lon="-0.08183">
        <ele>370.24</ele>
        <time>2021-08-19T17:54:51Z</time>
      </trkpt>
      <trkpt lat="43.09919" lon="-0.08191">
        <ele>370.24</ele>
        <time>2021-08-19T17:54:52Z</time>
      </trkpt>
      <trkpt lat="43.0992" lon="-0.08198">
        <ele>370.24</ele>
        <time>2021-08-19T17:54:53Z</time>
      </trkpt>
      <trkpt lat="43.09922" lon="-0.08204">
        <ele>370.24</ele>
        <time>2021-08-19T17:54:54Z</time>
      </trkpt>
      <trkpt lat="43.09923" lon="-0.08209">
        <ele>370.24</ele>
        <time>2021-08-19T17:54:55Z</time>
      </trkpt>
      <trkpt lat="43.09924" lon="-0.08212">
        <ele>371.69</ele>
        <time>2021-08-19T17:54:56Z</time>
      </trkpt>
      <trkpt lat="43.09925" lon="-0.08214">
        <ele>371.69</ele>
        <time>2021-08-19T17:54:57Z</time>
      </trkpt>
      <trkpt lat="43.09929" lon="-0.08221">
        <ele>372.65</ele>
        <time>2021-08-19T17:55:04Z</time>
      </trkpt>
      <trkpt lat="43.0993" lon="-0.08228">
        <ele>373.13</ele>
        <time>2021-08-19T17:55:11Z</time>
      </trkpt>
      <trkpt lat="43.09936" lon="-0.0824">
        <ele>374.09</ele>
        <time>2021-08-19T17:55:17Z</time>
      </trkpt>
      <trkpt lat="43.09937" lon="-0.08242">
        <ele>374.09</ele>
        <time>2021-08-19T17:55:18Z</time>
      </trkpt>
      <trkpt lat="43.09946" lon="-0.08264">
        <ele>375.05</ele>
        <time>2021-08-19T17:55:25Z</time>
      </trkpt>
      <trkpt lat="43.09947" lon="-0.08267">
        <ele>375.05</ele>
        <time>2021-08-19T17:55:26Z</time>
      </trkpt>
      <trkpt lat="43.09948" lon="-0.08271">
        <ele>375.05</ele>
        <time>2021-08-19T17:55:27Z</time>
      </trkpt>
      <trkpt lat="43.09954" lon="-0.083">
        <ele>375.05</ele>
        <time>2021-08-19T17:55:33Z</time>
      </trkpt>
      <trkpt lat="43.09957" lon="-0.0831">
        <ele>375.05</ele>
        <time>2021-08-19T17:55:35Z</time>
      </trkpt>
      <trkpt lat="43.09964" lon="-0.0835">
        <ele>375.05</ele>
        <time>2021-08-19T17:55:42Z</time>
      </trkpt>
      <trkpt lat="43.09972" lon="-0.08377">
        <ele>372.17</ele>
        <time>2021-08-19T17:55:47Z</time>
      </trkpt>
      <trkpt lat="43.09973" lon="-0.08385">
        <ele>371.21</ele>
        <time>2021-08-19T17:55:48Z</time>
      </trkpt>
      <trkpt lat="43.0998" lon="-0.08423">
        <ele>369.28</ele>
        <time>2021-08-19T17:55:52Z</time>
      </trkpt>
      <trkpt lat="43.09986" lon="-0.08453">
        <ele>368.32</ele>
        <time>2021-08-19T17:55:55Z</time>
      </trkpt>
      <trkpt lat="43.09986" lon="-0.08464">
        <ele>367.84</ele>
        <time>2021-08-19T17:55:56Z</time>
      </trkpt>
      <trkpt lat="43.09985" lon="-0.08504">
        <ele>367.84</ele>
        <time>2021-08-19T17:56:00Z</time>
      </trkpt>
      <trkpt lat="43.09985" lon="-0.08537">
        <ele>367.84</ele>
        <time>2021-08-19T17:56:04Z</time>
      </trkpt>
      <trkpt lat="43.09995" lon="-0.08582">
        <ele>367.84</ele>
        <time>2021-08-19T17:56:10Z</time>
      </trkpt>
      <trkpt lat="43.09996" lon="-0.08601">
        <ele>367.84</ele>
        <time>2021-08-19T17:56:13Z</time>
      </trkpt>
      <trkpt lat="43.0999" lon="-0.08627">
        <ele>367.84</ele>
        <time>2021-08-19T17:56:17Z</time>
      </trkpt>
      <trkpt lat="43.09989" lon="-0.0864">
        <ele>367.84</ele>
        <time>2021-08-19T17:56:19Z</time>
      </trkpt>
      <trkpt lat="43.09987" lon="-0.08689">
        <ele>367.36</ele>
        <time>2021-08-19T17:56:26Z</time>
      </trkpt>
      <trkpt lat="43.09986" lon="-0.08709">
        <ele>367.36</ele>
        <time>2021-08-19T17:56:29Z</time>
      </trkpt>
      <trkpt lat="43.09983" lon="-0.08729">
        <ele>367.36</ele>
        <time>2021-08-19T17:56:32Z</time>
      </trkpt>
      <trkpt lat="43.09983" lon="-0.08764">
        <ele>367.36</ele>
        <time>2021-08-19T17:56:38Z</time>
      </trkpt>
      <trkpt lat="43.09983" lon="-0.08806">
        <ele>367.36</ele>
        <time>2021-08-19T17:56:45Z</time>
      </trkpt>
      <trkpt lat="43.09982" lon="-0.0882">
        <ele>367.36</ele>
        <time>2021-08-19T17:56:47Z</time>
      </trkpt>
      <trkpt lat="43.09982" lon="-0.08827">
        <ele>366.88</ele>
        <time>2021-08-19T17:56:48Z</time>
      </trkpt>
      <trkpt lat="43.0998" lon="-0.08834">
        <ele>366.88</ele>
        <time>2021-08-19T17:56:49Z</time>
      </trkpt>
      <trkpt lat="43.09978" lon="-0.08841">
        <ele>366.88</ele>
        <time>2021-08-19T17:56:50Z</time>
      </trkpt>
      <trkpt lat="43.09978" lon="-0.08849">
        <ele>365.92</ele>
        <time>2021-08-19T17:56:51Z</time>
      </trkpt>
      <trkpt lat="43.09977" lon="-0.08857">
        <ele>365.92</ele>
        <time>2021-08-19T17:56:52Z</time>
      </trkpt>
      <trkpt lat="43.09976" lon="-0.08866">
        <ele>365.92</ele>
        <time>2021-08-19T17:56:53Z</time>
      </trkpt>
      <trkpt lat="43.09974" lon="-0.0888">
        <ele>365.92</ele>
        <time>2021-08-19T17:56:55Z</time>
      </trkpt>
      <trkpt lat="43.09972" lon="-0.08887">
        <ele>365.92</ele>
        <time>2021-08-19T17:56:56Z</time>
      </trkpt>
      <trkpt lat="43.0997" lon="-0.08893">
        <ele>365.92</ele>
        <time>2021-08-19T17:56:57Z</time>
      </trkpt>
      <trkpt lat="43.09968" lon="-0.08899">
        <ele>365.92</ele>
        <time>2021-08-19T17:56:58Z</time>
      </trkpt>
      <trkpt lat="43.09963" lon="-0.0893">
        <ele>367.36</ele>
        <time>2021-08-19T17:57:03Z</time>
      </trkpt>
      <trkpt lat="43.09962" lon="-0.0896">
        <ele>367.84</ele>
        <time>2021-08-19T17:57:09Z</time>
      </trkpt>
      <trkpt lat="43.09961" lon="-0.08998">
        <ele>368.32</ele>
        <time>2021-08-19T17:57:16Z</time>
      </trkpt>
      <trkpt lat="43.09962" lon="-0.09018">
        <ele>368.32</ele>
        <time>2021-08-19T17:57:21Z</time>
      </trkpt>
      <trkpt lat="43.09962" lon="-0.09059">
        <ele>368.32</ele>
        <time>2021-08-19T17:57:29Z</time>
      </trkpt>
      <trkpt lat="43.09963" lon="-0.09098">
        <ele>366.88</ele>
        <time>2021-08-19T17:57:36Z</time>
      </trkpt>
      <trkpt lat="43.09954" lon="-0.0913">
        <ele>366.88</ele>
        <time>2021-08-19T17:57:42Z</time>
      </trkpt>
      <trkpt lat="43.09942" lon="-0.09168">
        <ele>366.88</ele>
        <time>2021-08-19T17:57:49Z</time>
      </trkpt>
      <trkpt lat="43.09939" lon="-0.0918">
        <ele>366.88</ele>
        <time>2021-08-19T17:57:51Z</time>
      </trkpt>
      <trkpt lat="43.09932" lon="-0.09223">
        <ele>366.88</ele>
        <time>2021-08-19T17:57:59Z</time>
      </trkpt>
      <trkpt lat="43.09931" lon="-0.09229">
        <ele>366.88</ele>
        <time>2021-08-19T17:58:00Z</time>
      </trkpt>
      <trkpt lat="43.09922" lon="-0.0928">
        <ele>365.92</ele>
        <time>2021-08-19T17:58:08Z</time>
      </trkpt>
      <trkpt lat="43.09919" lon="-0.09315">
        <ele>365.92</ele>
        <time>2021-08-19T17:58:14Z</time>
      </trkpt>
      <trkpt lat="43.0992" lon="-0.0932">
        <ele>365.92</ele>
        <time>2021-08-19T17:58:15Z</time>
      </trkpt>
      <trkpt lat="43.09921" lon="-0.09351">
        <ele>365.92</ele>
        <time>2021-08-19T17:58:21Z</time>
      </trkpt>
      <trkpt lat="43.09918" lon="-0.09377">
        <ele>365.92</ele>
        <time>2021-08-19T17:58:25Z</time>
      </trkpt>
      <trkpt lat="43.0991" lon="-0.09413">
        <ele>367.84</ele>
        <time>2021-08-19T17:58:32Z</time>
      </trkpt>
      <trkpt lat="43.09907" lon="-0.09435">
        <ele>368.8</ele>
        <time>2021-08-19T17:58:39Z</time>
      </trkpt>
      <trkpt lat="43.09907" lon="-0.0945">
        <ele>370.24</ele>
        <time>2021-08-19T17:58:46Z</time>
      </trkpt>
      <trkpt lat="43.09908" lon="-0.09455">
        <ele>370.24</ele>
        <time>2021-08-19T17:58:48Z</time>
      </trkpt>
      <trkpt lat="43.09908" lon="-0.09458">
        <ele>370.24</ele>
        <time>2021-08-19T17:58:49Z</time>
      </trkpt>
      <trkpt lat="43.09908" lon="-0.09461">
        <ele>370.24</ele>
        <time>2021-08-19T17:58:50Z</time>
      </trkpt>
      <trkpt lat="43.09908" lon="-0.09464">
        <ele>370.24</ele>
        <time>2021-08-19T17:58:51Z</time>
      </trkpt>
      <trkpt lat="43.09907" lon="-0.09466">
        <ele>370.24</ele>
        <time>2021-08-19T17:58:52Z</time>
      </trkpt>
      <trkpt lat="43.09905" lon="-0.09482">
        <ele>372.17</ele>
        <time>2021-08-19T17:58:59Z</time>
      </trkpt>
      <trkpt lat="43.09902" lon="-0.09494">
        <ele>372.65</ele>
        <time>2021-08-19T17:59:04Z</time>
      </trkpt>
      <trkpt lat="43.09902" lon="-0.09496">
        <ele>372.65</ele>
        <time>2021-08-19T17:59:05Z</time>
      </trkpt>
      <trkpt lat="43.09903" lon="-0.09499">
        <ele>372.65</ele>
        <time>2021-08-19T17:59:06Z</time>
      </trkpt>
      <trkpt lat="43.09903" lon="-0.09501">
        <ele>372.65</ele>
        <time>2021-08-19T17:59:07Z</time>
      </trkpt>
      <trkpt lat="43.09903" lon="-0.09503">
        <ele>373.13</ele>
        <time>2021-08-19T17:59:08Z</time>
      </trkpt>
      <trkpt lat="43.09902" lon="-0.09521">
        <ele>373.61</ele>
        <time>2021-08-19T17:59:15Z</time>
      </trkpt>
      <trkpt lat="43.09902" lon="-0.09544">
        <ele>374.57</ele>
        <time>2021-08-19T17:59:23Z</time>
      </trkpt>
      <trkpt lat="43.09906" lon="-0.09569">
        <ele>374.57</ele>
        <time>2021-08-19T17:59:30Z</time>
      </trkpt>
      <trkpt lat="43.09908" lon="-0.09593">
        <ele>374.57</ele>
        <time>2021-08-19T17:59:36Z</time>
      </trkpt>
      <trkpt lat="43.09914" lon="-0.09616">
        <ele>374.57</ele>
        <time>2021-08-19T17:59:42Z</time>
      </trkpt>
      <trkpt lat="43.09916" lon="-0.09629">
        <ele>374.57</ele>
        <time>2021-08-19T17:59:45Z</time>
      </trkpt>
      <trkpt lat="43.09916" lon="-0.09633">
        <ele>374.57</ele>
        <time>2021-08-19T17:59:46Z</time>
      </trkpt>
      <trkpt lat="43.09916" lon="-0.09638">
        <ele>374.57</ele>
        <time>2021-08-19T17:59:47Z</time>
      </trkpt>
      <trkpt lat="43.09917" lon="-0.09642">
        <ele>374.57</ele>
        <time>2021-08-19T17:59:48Z</time>
      </trkpt>
      <trkpt lat="43.09918" lon="-0.09647">
        <ele>374.57</ele>
        <time>2021-08-19T17:59:49Z</time>
      </trkpt>
      <trkpt lat="43.09919" lon="-0.09651">
        <ele>374.57</ele>
        <time>2021-08-19T17:59:50Z</time>
      </trkpt>
      <trkpt lat="43.09923" lon="-0.09682">
        <ele>374.57</ele>
        <time>2021-08-19T17:59:57Z</time>
      </trkpt>
      <trkpt lat="43.09933" lon="-0.09725">
        <ele>374.57</ele>
        <time>2021-08-19T18:00:06Z</time>
      </trkpt>
      <trkpt lat="43.09941" lon="-0.09748">
        <ele>373.13</ele>
        <time>2021-08-19T18:00:12Z</time>
      </trkpt>
      <trkpt lat="43.09947" lon="-0.0977">
        <ele>373.13</ele>
        <time>2021-08-19T18:00:18Z</time>
      </trkpt>
      <trkpt lat="43.09956" lon="-0.09788">
        <ele>372.65</ele>
        <time>2021-08-19T18:00:23Z</time>
      </trkpt>
      <trkpt lat="43.09972" lon="-0.0982">
        <ele>370.73</ele>
        <time>2021-08-19T18:00:29Z</time>
      </trkpt>
      <trkpt lat="43.09989" lon="-0.09858">
        <ele>369.76</ele>
        <time>2021-08-19T18:00:35Z</time>
      </trkpt>
      <trkpt lat="43.09992" lon="-0.09864">
        <ele>369.76</ele>
        <time>2021-08-19T18:00:36Z</time>
      </trkpt>
      <trkpt lat="43.09996" lon="-0.09871">
        <ele>369.28</ele>
        <time>2021-08-19T18:00:37Z</time>
      </trkpt>
      <trkpt lat="43.10016" lon="-0.09916">
        <ele>368.32</ele>
        <time>2021-08-19T18:00:44Z</time>
      </trkpt>
      <trkpt lat="43.10028" lon="-0.09944">
        <ele>367.84</ele>
        <time>2021-08-19T18:00:49Z</time>
      </trkpt>
      <trkpt lat="43.10031" lon="-0.09949">
        <ele>367.84</ele>
        <time>2021-08-19T18:00:50Z</time>
      </trkpt>
      <trkpt lat="43.10033" lon="-0.09954">
        <ele>367.84</ele>
        <time>2021-08-19T18:00:51Z</time>
      </trkpt>
      <trkpt lat="43.10035" lon="-0.09958">
        <ele>367.84</ele>
        <time>2021-08-19T18:00:52Z</time>
      </trkpt>
      <trkpt lat="43.10036" lon="-0.09961">
        <ele>367.84</ele>
        <time>2021-08-19T18:00:53Z</time>
      </trkpt>
      <trkpt lat="43.10038" lon="-0.09965">
        <ele>367.84</ele>
        <time>2021-08-19T18:00:54Z</time>
      </trkpt>
      <trkpt lat="43.10039" lon="-0.09967">
        <ele>367.84</ele>
        <time>2021-08-19T18:00:55Z</time>
      </trkpt>
      <trkpt lat="43.10047" lon="-0.09992">
        <ele>367.36</ele>
        <time>2021-08-19T18:01:00Z</time>
      </trkpt>
      <trkpt lat="43.10057" lon="-0.10036">
        <ele>367.36</ele>
        <time>2021-08-19T18:01:08Z</time>
      </trkpt>
      <trkpt lat="43.10066" lon="-0.10066">
        <ele>367.36</ele>
        <time>2021-08-19T18:01:13Z</time>
      </trkpt>
      <trkpt lat="43.10069" lon="-0.10078">
        <ele>367.36</ele>
        <time>2021-08-19T18:01:15Z</time>
      </trkpt>
      <trkpt lat="43.10075" lon="-0.10096">
        <ele>367.36</ele>
        <time>2021-08-19T18:01:18Z</time>
      </trkpt>
      <trkpt lat="43.10084" lon="-0.10138">
        <ele>367.36</ele>
        <time>2021-08-19T18:01:25Z</time>
      </trkpt>
      <trkpt lat="43.10089" lon="-0.10158">
        <ele>366.88</ele>
        <time>2021-08-19T18:01:28Z</time>
      </trkpt>
      <trkpt lat="43.10091" lon="-0.10164">
        <ele>366.88</ele>
        <time>2021-08-19T18:01:29Z</time>
      </trkpt>
      <trkpt lat="43.10093" lon="-0.10169">
        <ele>366.88</ele>
        <time>2021-08-19T18:01:30Z</time>
      </trkpt>
      <trkpt lat="43.10094" lon="-0.10176">
        <ele>366.88</ele>
        <time>2021-08-19T18:01:31Z</time>
      </trkpt>
      <trkpt lat="43.10096" lon="-0.10182">
        <ele>366.88</ele>
        <time>2021-08-19T18:01:32Z</time>
      </trkpt>
      <trkpt lat="43.10097" lon="-0.10188">
        <ele>366.88</ele>
        <time>2021-08-19T18:01:33Z</time>
      </trkpt>
      <trkpt lat="43.10098" lon="-0.10194">
        <ele>366.88</ele>
        <time>2021-08-19T18:01:34Z</time>
      </trkpt>
      <trkpt lat="43.1011" lon="-0.10245">
        <ele>366.4</ele>
        <time>2021-08-19T18:01:42Z</time>
      </trkpt>
      <trkpt lat="43.10118" lon="-0.1029">
        <ele>366.4</ele>
        <time>2021-08-19T18:01:49Z</time>
      </trkpt>
      <trkpt lat="43.1012" lon="-0.1031">
        <ele>367.84</ele>
        <time>2021-08-19T18:01:53Z</time>
      </trkpt>
      <trkpt lat="43.1012" lon="-0.10318">
        <ele>368.32</ele>
        <time>2021-08-19T18:01:56Z</time>
      </trkpt>
      <trkpt lat="43.10121" lon="-0.10321">
        <ele>368.8</ele>
        <time>2021-08-19T18:01:58Z</time>
      </trkpt>
      <trkpt lat="43.1012" lon="-0.10323">
        <ele>369.28</ele>
        <time>2021-08-19T18:01:59Z</time>
      </trkpt>
      <trkpt lat="43.10123" lon="-0.10338">
        <ele>370.24</ele>
        <time>2021-08-19T18:02:07Z</time>
      </trkpt>
      <trkpt lat="43.10124" lon="-0.10343">
        <ele>370.24</ele>
        <time>2021-08-19T18:02:16Z</time>
      </trkpt>
      <trkpt lat="43.10125" lon="-0.1035">
        <ele>371.69</ele>
        <time>2021-08-19T18:02:24Z</time>
      </trkpt>
      <trkpt lat="43.10127" lon="-0.10361">
        <ele>373.13</ele>
        <time>2021-08-19T18:02:34Z</time>
      </trkpt>
      <trkpt lat="43.10129" lon="-0.10368">
        <ele>374.09</ele>
        <time>2021-08-19T18:02:42Z</time>
      </trkpt>
      <trkpt lat="43.10128" lon="-0.10374">
        <ele>375.53</ele>
        <time>2021-08-19T18:02:49Z</time>
      </trkpt>
      <trkpt lat="43.10129" lon="-0.10383">
        <ele>376.97</ele>
        <time>2021-08-19T18:02:58Z</time>
      </trkpt>
      <trkpt lat="43.10132" lon="-0.10395">
        <ele>378.42</ele>
        <time>2021-08-19T18:03:09Z</time>
      </trkpt>
      <trkpt lat="43.10135" lon="-0.10402">
        <ele>379.86</ele>
        <time>2021-08-19T18:03:18Z</time>
      </trkpt>
      <trkpt lat="43.10137" lon="-0.10408">
        <ele>381.3</ele>
        <time>2021-08-19T18:03:26Z</time>
      </trkpt>
      <trkpt lat="43.10136" lon="-0.10414">
        <ele>382.74</ele>
        <time>2021-08-19T18:03:34Z</time>
      </trkpt>
      <trkpt lat="43.10135" lon="-0.1042">
        <ele>384.18</ele>
        <time>2021-08-19T18:03:42Z</time>
      </trkpt>
      <trkpt lat="43.10133" lon="-0.10428">
        <ele>385.15</ele>
        <time>2021-08-19T18:03:48Z</time>
      </trkpt>
      <trkpt lat="43.10131" lon="-0.1044">
        <ele>386.11</ele>
        <time>2021-08-19T18:03:55Z</time>
      </trkpt>
      <trkpt lat="43.10132" lon="-0.10447">
        <ele>386.59</ele>
        <time>2021-08-19T18:04:02Z</time>
      </trkpt>
      <trkpt lat="43.10133" lon="-0.1045">
        <ele>386.59</ele>
        <time>2021-08-19T18:04:04Z</time>
      </trkpt>
      <trkpt lat="43.10133" lon="-0.10452">
        <ele>386.59</ele>
        <time>2021-08-19T18:04:05Z</time>
      </trkpt>
      <trkpt lat="43.10134" lon="-0.10454">
        <ele>386.59</ele>
        <time>2021-08-19T18:04:06Z</time>
      </trkpt>
      <trkpt lat="43.10134" lon="-0.10456">
        <ele>386.59</ele>
        <time>2021-08-19T18:04:07Z</time>
      </trkpt>
      <trkpt lat="43.10134" lon="-0.10458">
        <ele>386.59</ele>
        <time>2021-08-19T18:04:08Z</time>
      </trkpt>
      <trkpt lat="43.10135" lon="-0.10461">
        <ele>386.59</ele>
        <time>2021-08-19T18:04:09Z</time>
      </trkpt>
      <trkpt lat="43.10136" lon="-0.10463">
        <ele>386.59</ele>
        <time>2021-08-19T18:04:10Z</time>
      </trkpt>
      <trkpt lat="43.10138" lon="-0.10465">
        <ele>386.59</ele>
        <time>2021-08-19T18:04:11Z</time>
      </trkpt>
      <trkpt lat="43.10138" lon="-0.10467">
        <ele>386.59</ele>
        <time>2021-08-19T18:04:12Z</time>
      </trkpt>
      <trkpt lat="43.10139" lon="-0.10468">
        <ele>386.59</ele>
        <time>2021-08-19T18:04:13Z</time>
      </trkpt>
      <trkpt lat="43.10143" lon="-0.10495">
        <ele>386.59</ele>
        <time>2021-08-19T18:04:19Z</time>
      </trkpt>
      <trkpt lat="43.10146" lon="-0.1053">
        <ele>386.59</ele>
        <time>2021-08-19T18:04:26Z</time>
      </trkpt>
      <trkpt lat="43.10145" lon="-0.10533">
        <ele>386.59</ele>
        <time>2021-08-19T18:04:27Z</time>
      </trkpt>
      <trkpt lat="43.10145" lon="-0.10536">
        <ele>386.59</ele>
        <time>2021-08-19T18:04:28Z</time>
      </trkpt>
      <trkpt lat="43.10146" lon="-0.10568">
        <ele>386.59</ele>
        <time>2021-08-19T18:04:34Z</time>
      </trkpt>
      <trkpt lat="43.10151" lon="-0.10609">
        <ele>385.15</ele>
        <time>2021-08-19T18:04:40Z</time>
      </trkpt>
      <trkpt lat="43.10157" lon="-0.10632">
        <ele>384.66</ele>
        <time>2021-08-19T18:04:44Z</time>
      </trkpt>
      <trkpt lat="43.10165" lon="-0.10678">
        <ele>384.18</ele>
        <time>2021-08-19T18:04:51Z</time>
      </trkpt>
      <trkpt lat="43.10177" lon="-0.10732">
        <ele>382.74</ele>
        <time>2021-08-19T18:04:58Z</time>
      </trkpt>
      <trkpt lat="43.10179" lon="-0.10739">
        <ele>382.74</ele>
        <time>2021-08-19T18:04:59Z</time>
      </trkpt>
      <trkpt lat="43.10181" lon="-0.10747">
        <ele>382.74</ele>
        <time>2021-08-19T18:05:00Z</time>
      </trkpt>
      <trkpt lat="43.10183" lon="-0.10755">
        <ele>382.26</ele>
        <time>2021-08-19T18:05:01Z</time>
      </trkpt>
      <trkpt lat="43.10197" lon="-0.10809">
        <ele>381.3</ele>
        <time>2021-08-19T18:05:08Z</time>
      </trkpt>
      <trkpt lat="43.10198" lon="-0.10817">
        <ele>380.82</ele>
        <time>2021-08-19T18:05:09Z</time>
      </trkpt>
      <trkpt lat="43.102" lon="-0.10825">
        <ele>380.82</ele>
        <time>2021-08-19T18:05:10Z</time>
      </trkpt>
      <trkpt lat="43.10209" lon="-0.10883">
        <ele>379.86</ele>
        <time>2021-08-19T18:05:17Z</time>
      </trkpt>
      <trkpt lat="43.10216" lon="-0.10956">
        <ele>377.94</ele>
        <time>2021-08-19T18:05:25Z</time>
      </trkpt>
      <trkpt lat="43.10229" lon="-0.11019">
        <ele>376.01</ele>
        <time>2021-08-19T18:05:32Z</time>
      </trkpt>
      <trkpt lat="43.10238" lon="-0.11058">
        <ele>374.57</ele>
        <time>2021-08-19T18:05:36Z</time>
      </trkpt>
      <trkpt lat="43.10256" lon="-0.11138">
        <ele>371.69</ele>
        <time>2021-08-19T18:05:44Z</time>
      </trkpt>
      <trkpt lat="43.10261" lon="-0.11167">
        <ele>371.21</ele>
        <time>2021-08-19T18:05:47Z</time>
      </trkpt>
      <trkpt lat="43.10261" lon="-0.11177">
        <ele>370.73</ele>
        <time>2021-08-19T18:05:48Z</time>
      </trkpt>
      <trkpt lat="43.10256" lon="-0.11261">
        <ele>369.76</ele>
        <time>2021-08-19T18:05:56Z</time>
      </trkpt>
      <trkpt lat="43.10256" lon="-0.11285">
        <ele>369.76</ele>
        <time>2021-08-19T18:05:59Z</time>
      </trkpt>
      <trkpt lat="43.10256" lon="-0.11294">
        <ele>369.76</ele>
        <time>2021-08-19T18:06:00Z</time>
      </trkpt>
      <trkpt lat="43.10256" lon="-0.11304">
        <ele>369.28</ele>
        <time>2021-08-19T18:06:01Z</time>
      </trkpt>
      <trkpt lat="43.10262" lon="-0.11356">
        <ele>367.36</ele>
        <time>2021-08-19T18:06:07Z</time>
      </trkpt>
      <trkpt lat="43.10264" lon="-0.11385">
        <ele>366.4</ele>
        <time>2021-08-19T18:06:10Z</time>
      </trkpt>
      <trkpt lat="43.10261" lon="-0.11467">
        <ele>365.44</ele>
        <time>2021-08-19T18:06:18Z</time>
      </trkpt>
      <trkpt lat="43.10252" lon="-0.11526">
        <ele>364.96</ele>
        <time>2021-08-19T18:06:25Z</time>
      </trkpt>
      <trkpt lat="43.10252" lon="-0.11534">
        <ele>364.96</ele>
        <time>2021-08-19T18:06:26Z</time>
      </trkpt>
      <trkpt lat="43.10251" lon="-0.11541">
        <ele>364.96</ele>
        <time>2021-08-19T18:06:27Z</time>
      </trkpt>
      <trkpt lat="43.1025" lon="-0.11549">
        <ele>364.96</ele>
        <time>2021-08-19T18:06:28Z</time>
      </trkpt>
      <trkpt lat="43.10249" lon="-0.11556">
        <ele>364.96</ele>
        <time>2021-08-19T18:06:29Z</time>
      </trkpt>
      <trkpt lat="43.10243" lon="-0.11584">
        <ele>364.48</ele>
        <time>2021-08-19T18:06:33Z</time>
      </trkpt>
      <trkpt lat="43.10239" lon="-0.1161">
        <ele>364.48</ele>
        <time>2021-08-19T18:06:37Z</time>
      </trkpt>
      <trkpt lat="43.10227" lon="-0.11678">
        <ele>363.52</ele>
        <time>2021-08-19T18:06:46Z</time>
      </trkpt>
      <trkpt lat="43.10218" lon="-0.11735">
        <ele>363.04</ele>
        <time>2021-08-19T18:06:53Z</time>
      </trkpt>
      <trkpt lat="43.10217" lon="-0.11743">
        <ele>363.04</ele>
        <time>2021-08-19T18:06:54Z</time>
      </trkpt>
      <trkpt lat="43.10213" lon="-0.11797">
        <ele>362.55</ele>
        <time>2021-08-19T18:07:01Z</time>
      </trkpt>
      <trkpt lat="43.10206" lon="-0.1188">
        <ele>360.63</ele>
        <time>2021-08-19T18:07:10Z</time>
      </trkpt>
      <trkpt lat="43.10204" lon="-0.11888">
        <ele>360.63</ele>
        <time>2021-08-19T18:07:11Z</time>
      </trkpt>
      <trkpt lat="43.102" lon="-0.11905">
        <ele>360.63</ele>
        <time>2021-08-19T18:07:13Z</time>
      </trkpt>
      <trkpt lat="43.10191" lon="-0.11937">
        <ele>360.63</ele>
        <time>2021-08-19T18:07:17Z</time>
      </trkpt>
      <trkpt lat="43.1019" lon="-0.11945">
        <ele>360.63</ele>
        <time>2021-08-19T18:07:18Z</time>
      </trkpt>
      <trkpt lat="43.10187" lon="-0.11952">
        <ele>360.63</ele>
        <time>2021-08-19T18:07:19Z</time>
      </trkpt>
      <trkpt lat="43.10183" lon="-0.11965">
        <ele>360.63</ele>
        <time>2021-08-19T18:07:21Z</time>
      </trkpt>
      <trkpt lat="43.1018" lon="-0.11978">
        <ele>360.63</ele>
        <time>2021-08-19T18:07:23Z</time>
      </trkpt>
      <trkpt lat="43.10177" lon="-0.11983">
        <ele>360.63</ele>
        <time>2021-08-19T18:07:24Z</time>
      </trkpt>
      <trkpt lat="43.10175" lon="-0.11988">
        <ele>360.63</ele>
        <time>2021-08-19T18:07:25Z</time>
      </trkpt>
      <trkpt lat="43.10172" lon="-0.11994">
        <ele>360.63</ele>
        <time>2021-08-19T18:07:26Z</time>
      </trkpt>
      <trkpt lat="43.10169" lon="-0.11999">
        <ele>360.63</ele>
        <time>2021-08-19T18:07:27Z</time>
      </trkpt>
      <trkpt lat="43.10166" lon="-0.12004">
        <ele>360.63</ele>
        <time>2021-08-19T18:07:28Z</time>
      </trkpt>
      <trkpt lat="43.10139" lon="-0.12048">
        <ele>360.15</ele>
        <time>2021-08-19T18:07:36Z</time>
      </trkpt>
      <trkpt lat="43.10136" lon="-0.12054">
        <ele>359.67</ele>
        <time>2021-08-19T18:07:37Z</time>
      </trkpt>
      <trkpt lat="43.10133" lon="-0.1206">
        <ele>359.67</ele>
        <time>2021-08-19T18:07:38Z</time>
      </trkpt>
      <trkpt lat="43.10131" lon="-0.12068">
        <ele>359.67</ele>
        <time>2021-08-19T18:07:39Z</time>
      </trkpt>
      <trkpt lat="43.10128" lon="-0.12075">
        <ele>359.67</ele>
        <time>2021-08-19T18:07:40Z</time>
      </trkpt>
      <trkpt lat="43.10126" lon="-0.12083">
        <ele>359.67</ele>
        <time>2021-08-19T18:07:41Z</time>
      </trkpt>
      <trkpt lat="43.1012" lon="-0.12106">
        <ele>359.67</ele>
        <time>2021-08-19T18:07:44Z</time>
      </trkpt>
      <trkpt lat="43.10119" lon="-0.12111">
        <ele>359.67</ele>
        <time>2021-08-19T18:07:45Z</time>
      </trkpt>
      <trkpt lat="43.10111" lon="-0.1215">
        <ele>361.59</ele>
        <time>2021-08-19T18:07:52Z</time>
      </trkpt>
      <trkpt lat="43.1011" lon="-0.12165">
        <ele>363.04</ele>
        <time>2021-08-19T18:07:57Z</time>
      </trkpt>
      <trkpt lat="43.1011" lon="-0.12181">
        <ele>364.48</ele>
        <time>2021-08-19T18:08:05Z</time>
      </trkpt>
      <trkpt lat="43.10105" lon="-0.12204">
        <ele>365.92</ele>
        <time>2021-08-19T18:08:13Z</time>
      </trkpt>
      <trkpt lat="43.10101" lon="-0.12214">
        <ele>366.88</ele>
        <time>2021-08-19T18:08:17Z</time>
      </trkpt>
      <trkpt lat="43.101" lon="-0.12217">
        <ele>366.88</ele>
        <time>2021-08-19T18:08:18Z</time>
      </trkpt>
      <trkpt lat="43.10098" lon="-0.12221">
        <ele>366.88</ele>
        <time>2021-08-19T18:08:19Z</time>
      </trkpt>
      <trkpt lat="43.10097" lon="-0.12225">
        <ele>366.88</ele>
        <time>2021-08-19T18:08:20Z</time>
      </trkpt>
      <trkpt lat="43.10097" lon="-0.12229">
        <ele>366.88</ele>
        <time>2021-08-19T18:08:21Z</time>
      </trkpt>
      <trkpt lat="43.10097" lon="-0.12232">
        <ele>367.84</ele>
        <time>2021-08-19T18:08:22Z</time>
      </trkpt>
      <trkpt lat="43.10097" lon="-0.12236">
        <ele>367.84</ele>
        <time>2021-08-19T18:08:23Z</time>
      </trkpt>
      <trkpt lat="43.10097" lon="-0.12239">
        <ele>367.84</ele>
        <time>2021-08-19T18:08:24Z</time>
      </trkpt>
      <trkpt lat="43.10095" lon="-0.12261">
        <ele>369.28</ele>
        <time>2021-08-19T18:08:31Z</time>
      </trkpt>
      <trkpt lat="43.1009" lon="-0.12284">
        <ele>370.24</ele>
        <time>2021-08-19T18:08:38Z</time>
      </trkpt>
      <trkpt lat="43.1008" lon="-0.12314">
        <ele>370.24</ele>
        <time>2021-08-19T18:08:46Z</time>
      </trkpt>
      <trkpt lat="43.10066" lon="-0.1234">
        <ele>370.24</ele>
        <time>2021-08-19T18:08:52Z</time>
      </trkpt>
      <trkpt lat="43.10061" lon="-0.1235">
        <ele>370.24</ele>
        <time>2021-08-19T18:08:54Z</time>
      </trkpt>
      <trkpt lat="43.10058" lon="-0.12355">
        <ele>370.24</ele>
        <time>2021-08-19T18:08:55Z</time>
      </trkpt>
      <trkpt lat="43.10049" lon="-0.12371">
        <ele>370.24</ele>
        <time>2021-08-19T18:08:58Z</time>
      </trkpt>
      <trkpt lat="43.10047" lon="-0.12376">
        <ele>370.24</ele>
        <time>2021-08-19T18:08:59Z</time>
      </trkpt>
      <trkpt lat="43.10044" lon="-0.12382">
        <ele>370.24</ele>
        <time>2021-08-19T18:09:00Z</time>
      </trkpt>
      <trkpt lat="43.10041" lon="-0.12387">
        <ele>370.24</ele>
        <time>2021-08-19T18:09:01Z</time>
      </trkpt>
      <trkpt lat="43.10038" lon="-0.12392">
        <ele>370.24</ele>
        <time>2021-08-19T18:09:02Z</time>
      </trkpt>
      <trkpt lat="43.10035" lon="-0.12397">
        <ele>370.24</ele>
        <time>2021-08-19T18:09:03Z</time>
      </trkpt>
      <trkpt lat="43.10033" lon="-0.12401">
        <ele>370.24</ele>
        <time>2021-08-19T18:09:04Z</time>
      </trkpt>
      <trkpt lat="43.10029" lon="-0.12408">
        <ele>370.24</ele>
        <time>2021-08-19T18:09:05Z</time>
      </trkpt>
      <trkpt lat="43.10025" lon="-0.12413">
        <ele>370.24</ele>
        <time>2021-08-19T18:09:06Z</time>
      </trkpt>
      <trkpt lat="43.10022" lon="-0.12419">
        <ele>369.28</ele>
        <time>2021-08-19T18:09:07Z</time>
      </trkpt>
      <trkpt lat="43.10003" lon="-0.12451">
        <ele>369.28</ele>
        <time>2021-08-19T18:09:12Z</time>
      </trkpt>
      <trkpt lat="43.09986" lon="-0.12473">
        <ele>368.8</ele>
        <time>2021-08-19T18:09:16Z</time>
      </trkpt>
      <trkpt lat="43.09977" lon="-0.12482">
        <ele>368.8</ele>
        <time>2021-08-19T18:09:18Z</time>
      </trkpt>
      <trkpt lat="43.09964" lon="-0.12494">
        <ele>368.8</ele>
        <time>2021-08-19T18:09:21Z</time>
      </trkpt>
      <trkpt lat="43.0996" lon="-0.12498">
        <ele>368.8</ele>
        <time>2021-08-19T18:09:22Z</time>
      </trkpt>
      <trkpt lat="43.09956" lon="-0.12501">
        <ele>368.8</ele>
        <time>2021-08-19T18:09:23Z</time>
      </trkpt>
      <trkpt lat="43.09942" lon="-0.12511">
        <ele>368.8</ele>
        <time>2021-08-19T18:09:26Z</time>
      </trkpt>
      <trkpt lat="43.09904" lon="-0.12542">
        <ele>367.84</ele>
        <time>2021-08-19T18:09:34Z</time>
      </trkpt>
      <trkpt lat="43.09873" lon="-0.12568">
        <ele>367.84</ele>
        <time>2021-08-19T18:09:41Z</time>
      </trkpt>
      <trkpt lat="43.09869" lon="-0.12572">
        <ele>367.84</ele>
        <time>2021-08-19T18:09:42Z</time>
      </trkpt>
      <trkpt lat="43.09851" lon="-0.12586">
        <ele>367.84</ele>
        <time>2021-08-19T18:09:46Z</time>
      </trkpt>
      <trkpt lat="43.09846" lon="-0.12588">
        <ele>367.84</ele>
        <time>2021-08-19T18:09:47Z</time>
      </trkpt>
      <trkpt lat="43.09841" lon="-0.1259">
        <ele>367.84</ele>
        <time>2021-08-19T18:09:48Z</time>
      </trkpt>
      <trkpt lat="43.09836" lon="-0.12592">
        <ele>367.84</ele>
        <time>2021-08-19T18:09:49Z</time>
      </trkpt>
      <trkpt lat="43.09831" lon="-0.12594">
        <ele>367.84</ele>
        <time>2021-08-19T18:09:50Z</time>
      </trkpt>
      <trkpt lat="43.09827" lon="-0.12596">
        <ele>367.84</ele>
        <time>2021-08-19T18:09:51Z</time>
      </trkpt>
      <trkpt lat="43.09823" lon="-0.126">
        <ele>368.8</ele>
        <time>2021-08-19T18:09:52Z</time>
      </trkpt>
      <trkpt lat="43.0982" lon="-0.12603">
        <ele>368.8</ele>
        <time>2021-08-19T18:09:53Z</time>
      </trkpt>
      <trkpt lat="43.09813" lon="-0.12617">
        <ele>369.28</ele>
        <time>2021-08-19T18:09:57Z</time>
      </trkpt>
      <trkpt lat="43.09806" lon="-0.12639">
        <ele>371.21</ele>
        <time>2021-08-19T18:10:03Z</time>
      </trkpt>
      <trkpt lat="43.09803" lon="-0.12665">
        <ele>373.13</ele>
        <time>2021-08-19T18:10:10Z</time>
      </trkpt>
      <trkpt lat="43.09795" lon="-0.12699">
        <ele>370.24</ele>
        <time>2021-08-19T18:10:15Z</time>
      </trkpt>
      <trkpt lat="43.09793" lon="-0.12708">
        <ele>368.8</ele>
        <time>2021-08-19T18:10:16Z</time>
      </trkpt>
      <trkpt lat="43.09793" lon="-0.12718">
        <ele>368.8</ele>
        <time>2021-08-19T18:10:17Z</time>
      </trkpt>
      <trkpt lat="43.09792" lon="-0.12737">
        <ele>368.32</ele>
        <time>2021-08-19T18:10:19Z</time>
      </trkpt>
      <trkpt lat="43.09794" lon="-0.12746">
        <ele>368.32</ele>
        <time>2021-08-19T18:10:20Z</time>
      </trkpt>
      <trkpt lat="43.09798" lon="-0.1277">
        <ele>367.84</ele>
        <time>2021-08-19T18:10:23Z</time>
      </trkpt>
      <trkpt lat="43.09798" lon="-0.12777">
        <ele>367.84</ele>
        <time>2021-08-19T18:10:24Z</time>
      </trkpt>
      <trkpt lat="43.09797" lon="-0.12784">
        <ele>367.84</ele>
        <time>2021-08-19T18:10:25Z</time>
      </trkpt>
      <trkpt lat="43.09795" lon="-0.1279">
        <ele>367.84</ele>
        <time>2021-08-19T18:10:26Z</time>
      </trkpt>
      <trkpt lat="43.09792" lon="-0.12796">
        <ele>367.84</ele>
        <time>2021-08-19T18:10:27Z</time>
      </trkpt>
      <trkpt lat="43.09789" lon="-0.128">
        <ele>367.84</ele>
        <time>2021-08-19T18:10:28Z</time>
      </trkpt>
      <trkpt lat="43.09785" lon="-0.12805">
        <ele>369.28</ele>
        <time>2021-08-19T18:10:29Z</time>
      </trkpt>
      <trkpt lat="43.09782" lon="-0.12808">
        <ele>369.28</ele>
        <time>2021-08-19T18:10:30Z</time>
      </trkpt>
      <trkpt lat="43.09778" lon="-0.12812">
        <ele>369.76</ele>
        <time>2021-08-19T18:10:31Z</time>
      </trkpt>
      <trkpt lat="43.09776" lon="-0.12815">
        <ele>370.24</ele>
        <time>2021-08-19T18:10:32Z</time>
      </trkpt>
      <trkpt lat="43.09774" lon="-0.12819">
        <ele>370.24</ele>
        <time>2021-08-19T18:10:33Z</time>
      </trkpt>
      <trkpt lat="43.09774" lon="-0.12823">
        <ele>370.73</ele>
        <time>2021-08-19T18:10:34Z</time>
      </trkpt>
      <trkpt lat="43.09775" lon="-0.12827">
        <ele>370.73</ele>
        <time>2021-08-19T18:10:35Z</time>
      </trkpt>
      <trkpt lat="43.09777" lon="-0.1283">
        <ele>370.73</ele>
        <time>2021-08-19T18:10:36Z</time>
      </trkpt>
      <trkpt lat="43.09791" lon="-0.12866">
        <ele>372.17</ele>
        <time>2021-08-19T18:10:45Z</time>
      </trkpt>
      <trkpt lat="43.09792" lon="-0.12894">
        <ele>373.61</ele>
        <time>2021-08-19T18:10:53Z</time>
      </trkpt>
      <trkpt lat="43.09791" lon="-0.12898">
        <ele>374.09</ele>
        <time>2021-08-19T18:10:54Z</time>
      </trkpt>
      <trkpt lat="43.09791" lon="-0.12905">
        <ele>374.09</ele>
        <time>2021-08-19T18:10:55Z</time>
      </trkpt>
      <trkpt lat="43.09791" lon="-0.1291">
        <ele>374.09</ele>
        <time>2021-08-19T18:10:56Z</time>
      </trkpt>
      <trkpt lat="43.09789" lon="-0.12931">
        <ele>375.05</ele>
        <time>2021-08-19T18:11:01Z</time>
      </trkpt>
      <trkpt lat="43.09789" lon="-0.12935">
        <ele>375.05</ele>
        <time>2021-08-19T18:11:02Z</time>
      </trkpt>
      <trkpt lat="43.09789" lon="-0.12938">
        <ele>375.05</ele>
        <time>2021-08-19T18:11:03Z</time>
      </trkpt>
      <trkpt lat="43.09789" lon="-0.1294">
        <ele>375.05</ele>
        <time>2021-08-19T18:11:04Z</time>
      </trkpt>
      <trkpt lat="43.0979" lon="-0.12943">
        <ele>375.05</ele>
        <time>2021-08-19T18:11:05Z</time>
      </trkpt>
      <trkpt lat="43.0979" lon="-0.12945">
        <ele>375.53</ele>
        <time>2021-08-19T18:11:06Z</time>
      </trkpt>
      <trkpt lat="43.09791" lon="-0.12945">
        <ele>375.53</ele>
        <time>2021-08-19T18:11:11Z</time>
      </trkpt>
      <trkpt lat="43.09792" lon="-0.12941">
        <ele>375.53</ele>
        <time>2021-08-19T18:11:24Z</time>
      </trkpt>
      <trkpt lat="43.09793" lon="-0.12943">
        <ele>375.53</ele>
        <time>2021-08-19T18:11:37Z</time>
      </trkpt>
      <trkpt lat="43.09793" lon="-0.12945">
        <ele>375.53</ele>
        <time>2021-08-19T18:11:49Z</time>
      </trkpt>
      <trkpt lat="43.09794" lon="-0.12943">
        <ele>375.53</ele>
        <time>2021-08-19T18:12:09Z</time>
      </trkpt>
      <trkpt lat="43.09793" lon="-0.12942">
        <ele>375.05</ele>
        <time>2021-08-19T18:12:21Z</time>
      </trkpt>
      <trkpt lat="43.09795" lon="-0.12942">
        <ele>375.05</ele>
        <time>2021-08-19T18:12:39Z</time>
      </trkpt>
      <trkpt lat="43.09794" lon="-0.12942">
        <ele>375.05</ele>
        <time>2021-08-19T18:12:54Z</time>
      </trkpt>
      <trkpt lat="43.09793" lon="-0.12945">
        <ele>375.05</ele>
        <time>2021-08-19T18:13:12Z</time>
      </trkpt>
      <trkpt lat="43.09791" lon="-0.12946">
        <ele>375.05</ele>
        <time>2021-08-19T18:13:31Z</time>
      </trkpt>
      <trkpt lat="43.09792" lon="-0.12946">
        <ele>375.05</ele>
        <time>2021-08-19T18:13:45Z</time>
      </trkpt>
      <trkpt lat="43.09793" lon="-0.12946">
        <ele>375.05</ele>
        <time>2021-08-19T18:14:01Z</time>
      </trkpt>
      <trkpt lat="43.09794" lon="-0.12945">
        <ele>375.05</ele>
        <time>2021-08-19T18:14:15Z</time>
      </trkpt>
      <trkpt lat="43.09794" lon="-0.12944">
        <ele>375.05</ele>
        <time>2021-08-19T18:14:29Z</time>
      </trkpt>
      <trkpt lat="43.09793" lon="-0.12946">
        <ele>375.05</ele>
        <time>2021-08-19T18:14:31Z</time>
      </trkpt>
      <trkpt lat="43.09792" lon="-0.12962">
        <ele>375.05</ele>
        <time>2021-08-19T18:14:37Z</time>
      </trkpt>
      <trkpt lat="43.09794" lon="-0.13005">
        <ele>375.05</ele>
        <time>2021-08-19T18:14:45Z</time>
      </trkpt>
      <trkpt lat="43.09801" lon="-0.1303">
        <ele>375.05</ele>
        <time>2021-08-19T18:14:49Z</time>
      </trkpt>
      <trkpt lat="43.09821" lon="-0.13082">
        <ele>372.65</ele>
        <time>2021-08-19T18:14:57Z</time>
      </trkpt>
      <trkpt lat="43.09829" lon="-0.13108">
        <ele>372.17</ele>
        <time>2021-08-19T18:15:02Z</time>
      </trkpt>
      <trkpt lat="43.09829" lon="-0.13108">
        <ele>372.17</ele>
        <time>2021-08-19T18:15:21Z</time>
      </trkpt>
      <trkpt lat="43.09829" lon="-0.13104">
        <ele>372.17</ele>
        <time>2021-08-19T18:15:40Z</time>
      </trkpt>
      <trkpt lat="43.0983" lon="-0.13105">
        <ele>372.17</ele>
        <time>2021-08-19T18:15:56Z</time>
      </trkpt>
      <trkpt lat="43.0983" lon="-0.13106">
        <ele>372.17</ele>
        <time>2021-08-19T18:15:59Z</time>
      </trkpt>
      <trkpt lat="43.09831" lon="-0.13106">
        <ele>372.17</ele>
        <time>2021-08-19T18:16:00Z</time>
      </trkpt>
      <trkpt lat="43.0983" lon="-0.13107">
        <ele>372.17</ele>
        <time>2021-08-19T18:16:06Z</time>
      </trkpt>
      <trkpt lat="43.09829" lon="-0.13105">
        <ele>372.17</ele>
        <time>2021-08-19T18:16:25Z</time>
      </trkpt>
      <trkpt lat="43.0983" lon="-0.13106">
        <ele>372.17</ele>
        <time>2021-08-19T18:16:28Z</time>
      </trkpt>
      <trkpt lat="43.09831" lon="-0.13108">
        <ele>372.17</ele>
        <time>2021-08-19T18:16:29Z</time>
      </trkpt>
      <trkpt lat="43.09832" lon="-0.1311">
        <ele>372.17</ele>
        <time>2021-08-19T18:16:30Z</time>
      </trkpt>
      <trkpt lat="43.09846" lon="-0.13131">
        <ele>370.24</ele>
        <time>2021-08-19T18:16:36Z</time>
      </trkpt>
      <trkpt lat="43.09849" lon="-0.13137">
        <ele>370.24</ele>
        <time>2021-08-19T18:16:37Z</time>
      </trkpt>
      <trkpt lat="43.09851" lon="-0.13144">
        <ele>369.28</ele>
        <time>2021-08-19T18:16:38Z</time>
      </trkpt>
      <trkpt lat="43.09859" lon="-0.13164">
        <ele>368.32</ele>
        <time>2021-08-19T18:16:41Z</time>
      </trkpt>
      <trkpt lat="43.09862" lon="-0.1317">
        <ele>368.32</ele>
        <time>2021-08-19T18:16:42Z</time>
      </trkpt>
      <trkpt lat="43.09866" lon="-0.13176">
        <ele>367.36</ele>
        <time>2021-08-19T18:16:43Z</time>
      </trkpt>
      <trkpt lat="43.09869" lon="-0.13182">
        <ele>366.88</ele>
        <time>2021-08-19T18:16:44Z</time>
      </trkpt>
      <trkpt lat="43.09874" lon="-0.13189">
        <ele>365.92</ele>
        <time>2021-08-19T18:16:45Z</time>
      </trkpt>
      <trkpt lat="43.09878" lon="-0.13195">
        <ele>365.44</ele>
        <time>2021-08-19T18:16:46Z</time>
      </trkpt>
      <trkpt lat="43.09915" lon="-0.13242">
        <ele>362.07</ele>
        <time>2021-08-19T18:16:53Z</time>
      </trkpt>
      <trkpt lat="43.09919" lon="-0.1325">
        <ele>362.07</ele>
        <time>2021-08-19T18:16:54Z</time>
      </trkpt>
      <trkpt lat="43.09948" lon="-0.13305">
        <ele>360.63</ele>
        <time>2021-08-19T18:17:01Z</time>
      </trkpt>
      <trkpt lat="43.09961" lon="-0.13348">
        <ele>362.55</ele>
        <time>2021-08-19T18:17:07Z</time>
      </trkpt>
      <trkpt lat="43.09971" lon="-0.13391">
        <ele>364</ele>
        <time>2021-08-19T18:17:14Z</time>
      </trkpt>
      <trkpt lat="43.09983" lon="-0.13423">
        <ele>364.48</ele>
        <time>2021-08-19T18:17:20Z</time>
      </trkpt>
      <trkpt lat="43.09992" lon="-0.13443">
        <ele>364.48</ele>
        <time>2021-08-19T18:17:24Z</time>
      </trkpt>
      <trkpt lat="43.10006" lon="-0.13489">
        <ele>364.48</ele>
        <time>2021-08-19T18:17:32Z</time>
      </trkpt>
      <trkpt lat="43.10007" lon="-0.13495">
        <ele>364.48</ele>
        <time>2021-08-19T18:17:33Z</time>
      </trkpt>
      <trkpt lat="43.10006" lon="-0.13539">
        <ele>365.44</ele>
        <time>2021-08-19T18:17:40Z</time>
      </trkpt>
      <trkpt lat="43.09991" lon="-0.13585">
        <ele>366.88</ele>
        <time>2021-08-19T18:17:49Z</time>
      </trkpt>
      <trkpt lat="43.09973" lon="-0.13655">
        <ele>366.4</ele>
        <time>2021-08-19T18:18:00Z</time>
      </trkpt>
      <trkpt lat="43.0996" lon="-0.13718">
        <ele>365.44</ele>
        <time>2021-08-19T18:18:09Z</time>
      </trkpt>
      <trkpt lat="43.09952" lon="-0.1378">
        <ele>364.48</ele>
        <time>2021-08-19T18:18:17Z</time>
      </trkpt>
      <trkpt lat="43.09947" lon="-0.13816">
        <ele>364.48</ele>
        <time>2021-08-19T18:18:22Z</time>
      </trkpt>
      <trkpt lat="43.09947" lon="-0.13822">
        <ele>364.48</ele>
        <time>2021-08-19T18:18:23Z</time>
      </trkpt>
      <trkpt lat="43.09949" lon="-0.13828">
        <ele>364.48</ele>
        <time>2021-08-19T18:18:24Z</time>
      </trkpt>
      <trkpt lat="43.09952" lon="-0.13832">
        <ele>364.48</ele>
        <time>2021-08-19T18:18:25Z</time>
      </trkpt>
      <trkpt lat="43.09956" lon="-0.13835">
        <ele>364.48</ele>
        <time>2021-08-19T18:18:26Z</time>
      </trkpt>
      <trkpt lat="43.0996" lon="-0.13837">
        <ele>364.48</ele>
        <time>2021-08-19T18:18:27Z</time>
      </trkpt>
      <trkpt lat="43.09965" lon="-0.13838">
        <ele>364.48</ele>
        <time>2021-08-19T18:18:28Z</time>
      </trkpt>
      <trkpt lat="43.09975" lon="-0.1384">
        <ele>364.48</ele>
        <time>2021-08-19T18:18:30Z</time>
      </trkpt>
      <trkpt lat="43.0998" lon="-0.1384">
        <ele>364.48</ele>
        <time>2021-08-19T18:18:31Z</time>
      </trkpt>
      <trkpt lat="43.09999" lon="-0.1384">
        <ele>364.48</ele>
        <time>2021-08-19T18:18:35Z</time>
      </trkpt>
      <trkpt lat="43.10004" lon="-0.13842">
        <ele>364.48</ele>
        <time>2021-08-19T18:18:36Z</time>
      </trkpt>
      <trkpt lat="43.10008" lon="-0.13843">
        <ele>364.48</ele>
        <time>2021-08-19T18:18:37Z</time>
      </trkpt>
      <trkpt lat="43.10017" lon="-0.13849">
        <ele>365.92</ele>
        <time>2021-08-19T18:18:39Z</time>
      </trkpt>
      <trkpt lat="43.1002" lon="-0.13853">
        <ele>365.92</ele>
        <time>2021-08-19T18:18:40Z</time>
      </trkpt>
      <trkpt lat="43.10023" lon="-0.13858">
        <ele>365.92</ele>
        <time>2021-08-19T18:18:41Z</time>
      </trkpt>
      <trkpt lat="43.10025" lon="-0.13864">
        <ele>365.92</ele>
        <time>2021-08-19T18:18:42Z</time>
      </trkpt>
      <trkpt lat="43.10026" lon="-0.13871">
        <ele>365.92</ele>
        <time>2021-08-19T18:18:43Z</time>
      </trkpt>
      <trkpt lat="43.10025" lon="-0.13878">
        <ele>365.92</ele>
        <time>2021-08-19T18:18:44Z</time>
      </trkpt>
      <trkpt lat="43.10024" lon="-0.13885">
        <ele>365.92</ele>
        <time>2021-08-19T18:18:45Z</time>
      </trkpt>
      <trkpt lat="43.10021" lon="-0.13938">
        <ele>365.44</ele>
        <time>2021-08-19T18:18:52Z</time>
      </trkpt>
      <trkpt lat="43.1002" lon="-0.13946">
        <ele>365.44</ele>
        <time>2021-08-19T18:18:53Z</time>
      </trkpt>
      <trkpt lat="43.1002" lon="-0.13983">
        <ele>364.48</ele>
        <time>2021-08-19T18:18:58Z</time>
      </trkpt>
      <trkpt lat="43.10024" lon="-0.14017">
        <ele>363.04</ele>
        <time>2021-08-19T18:19:02Z</time>
      </trkpt>
      <trkpt lat="43.10028" lon="-0.14056">
        <ele>362.55</ele>
        <time>2021-08-19T18:19:07Z</time>
      </trkpt>
      <trkpt lat="43.10031" lon="-0.14063">
        <ele>362.55</ele>
        <time>2021-08-19T18:19:08Z</time>
      </trkpt>
      <trkpt lat="43.10033" lon="-0.14068">
        <ele>362.55</ele>
        <time>2021-08-19T18:19:09Z</time>
      </trkpt>
      <trkpt lat="43.10038" lon="-0.14072">
        <ele>362.55</ele>
        <time>2021-08-19T18:19:10Z</time>
      </trkpt>
      <trkpt lat="43.10041" lon="-0.14075">
        <ele>362.55</ele>
        <time>2021-08-19T18:19:11Z</time>
      </trkpt>
      <trkpt lat="43.10048" lon="-0.14082">
        <ele>362.55</ele>
        <time>2021-08-19T18:19:13Z</time>
      </trkpt>
      <trkpt lat="43.10051" lon="-0.14086">
        <ele>362.55</ele>
        <time>2021-08-19T18:19:14Z</time>
      </trkpt>
      <trkpt lat="43.10053" lon="-0.14091">
        <ele>362.55</ele>
        <time>2021-08-19T18:19:15Z</time>
      </trkpt>
      <trkpt lat="43.10054" lon="-0.14098">
        <ele>362.55</ele>
        <time>2021-08-19T18:19:16Z</time>
      </trkpt>
      <trkpt lat="43.10055" lon="-0.14104">
        <ele>362.55</ele>
        <time>2021-08-19T18:19:17Z</time>
      </trkpt>
      <trkpt lat="43.10056" lon="-0.14112">
        <ele>362.55</ele>
        <time>2021-08-19T18:19:18Z</time>
      </trkpt>
      <trkpt lat="43.10056" lon="-0.14119">
        <ele>362.55</ele>
        <time>2021-08-19T18:19:19Z</time>
      </trkpt>
      <trkpt lat="43.10056" lon="-0.14171">
        <ele>362.55</ele>
        <time>2021-08-19T18:19:27Z</time>
      </trkpt>
      <trkpt lat="43.10061" lon="-0.14179">
        <ele>362.55</ele>
        <time>2021-08-19T18:19:29Z</time>
      </trkpt>
      <trkpt lat="43.10065" lon="-0.14182">
        <ele>362.55</ele>
        <time>2021-08-19T18:19:30Z</time>
      </trkpt>
      <trkpt lat="43.10069" lon="-0.14185">
        <ele>362.55</ele>
        <time>2021-08-19T18:19:31Z</time>
      </trkpt>
      <trkpt lat="43.10075" lon="-0.14188">
        <ele>362.07</ele>
        <time>2021-08-19T18:19:32Z</time>
      </trkpt>
      <trkpt lat="43.1008" lon="-0.14189">
        <ele>362.07</ele>
        <time>2021-08-19T18:19:33Z</time>
      </trkpt>
      <trkpt lat="43.10087" lon="-0.1419">
        <ele>362.07</ele>
        <time>2021-08-19T18:19:34Z</time>
      </trkpt>
      <trkpt lat="43.10092" lon="-0.1419">
        <ele>362.07</ele>
        <time>2021-08-19T18:19:35Z</time>
      </trkpt>
      <trkpt lat="43.10128" lon="-0.14193">
        <ele>361.11</ele>
        <time>2021-08-19T18:19:41Z</time>
      </trkpt>
      <trkpt lat="43.10133" lon="-0.14194">
        <ele>360.63</ele>
        <time>2021-08-19T18:19:42Z</time>
      </trkpt>
      <trkpt lat="43.10139" lon="-0.14196">
        <ele>360.15</ele>
        <time>2021-08-19T18:19:43Z</time>
      </trkpt>
      <trkpt lat="43.10145" lon="-0.142">
        <ele>359.67</ele>
        <time>2021-08-19T18:19:44Z</time>
      </trkpt>
      <trkpt lat="43.10176" lon="-0.14226">
        <ele>355.83</ele>
        <time>2021-08-19T18:19:49Z</time>
      </trkpt>
      <trkpt lat="43.10195" lon="-0.14249">
        <ele>352.46</ele>
        <time>2021-08-19T18:19:52Z</time>
      </trkpt>
      <trkpt lat="43.10215" lon="-0.14276">
        <ele>350.54</ele>
        <time>2021-08-19T18:19:55Z</time>
      </trkpt>
      <trkpt lat="43.10228" lon="-0.14294">
        <ele>349.1</ele>
        <time>2021-08-19T18:19:57Z</time>
      </trkpt>
      <trkpt lat="43.10235" lon="-0.14301">
        <ele>349.1</ele>
        <time>2021-08-19T18:19:58Z</time>
      </trkpt>
      <trkpt lat="43.10246" lon="-0.14313">
        <ele>351.02</ele>
        <time>2021-08-19T18:20:00Z</time>
      </trkpt>
      <trkpt lat="43.10251" lon="-0.14318">
        <ele>351.02</ele>
        <time>2021-08-19T18:20:01Z</time>
      </trkpt>
      <trkpt lat="43.10269" lon="-0.1434">
        <ele>351.5</ele>
        <time>2021-08-19T18:20:06Z</time>
      </trkpt>
      <trkpt lat="43.10271" lon="-0.14345">
        <ele>351.02</ele>
        <time>2021-08-19T18:20:07Z</time>
      </trkpt>
      <trkpt lat="43.10274" lon="-0.14351">
        <ele>349.58</ele>
        <time>2021-08-19T18:20:08Z</time>
      </trkpt>
      <trkpt lat="43.10277" lon="-0.14358">
        <ele>349.1</ele>
        <time>2021-08-19T18:20:09Z</time>
      </trkpt>
      <trkpt lat="43.10298" lon="-0.14402">
        <ele>348.62</ele>
        <time>2021-08-19T18:20:15Z</time>
      </trkpt>
      <trkpt lat="43.103" lon="-0.14409">
        <ele>348.62</ele>
        <time>2021-08-19T18:20:16Z</time>
      </trkpt>
      <trkpt lat="43.10304" lon="-0.14427">
        <ele>350.54</ele>
        <time>2021-08-19T18:20:20Z</time>
      </trkpt>
      <trkpt lat="43.10301" lon="-0.14436">
        <ele>351.98</ele>
        <time>2021-08-19T18:20:26Z</time>
      </trkpt>
      <trkpt lat="43.10298" lon="-0.14439">
        <ele>352.94</ele>
        <time>2021-08-19T18:20:33Z</time>
      </trkpt>
      <trkpt lat="43.10298" lon="-0.14442">
        <ele>352.94</ele>
        <time>2021-08-19T18:20:53Z</time>
      </trkpt>
      <trkpt lat="43.10295" lon="-0.14446">
        <ele>353.9</ele>
        <time>2021-08-19T18:20:59Z</time>
      </trkpt>
      <trkpt lat="43.10292" lon="-0.14451">
        <ele>355.34</ele>
        <time>2021-08-19T18:21:08Z</time>
      </trkpt>
      <trkpt lat="43.10289" lon="-0.14458">
        <ele>356.79</ele>
        <time>2021-08-19T18:21:18Z</time>
      </trkpt>
      <trkpt lat="43.10286" lon="-0.14468">
        <ele>359.19</ele>
        <time>2021-08-19T18:21:29Z</time>
      </trkpt>
      <trkpt lat="43.10285" lon="-0.14474">
        <ele>360.63</ele>
        <time>2021-08-19T18:21:39Z</time>
      </trkpt>
      <trkpt lat="43.10285" lon="-0.1448">
        <ele>361.59</ele>
        <time>2021-08-19T18:21:46Z</time>
      </trkpt>
      <trkpt lat="43.10285" lon="-0.14486">
        <ele>363.04</ele>
        <time>2021-08-19T18:21:54Z</time>
      </trkpt>
      <trkpt lat="43.10287" lon="-0.1449">
        <ele>363.52</ele>
        <time>2021-08-19T18:22:02Z</time>
      </trkpt>
      <trkpt lat="43.10288" lon="-0.14489">
        <ele>363.52</ele>
        <time>2021-08-19T18:22:03Z</time>
      </trkpt>
      <trkpt lat="43.10289" lon="-0.14488">
        <ele>363.52</ele>
        <time>2021-08-19T18:22:04Z</time>
      </trkpt>
      <trkpt lat="43.10291" lon="-0.14488">
        <ele>363.52</ele>
        <time>2021-08-19T18:22:05Z</time>
      </trkpt>
      <trkpt lat="43.10292" lon="-0.14489">
        <ele>363.52</ele>
        <time>2021-08-19T18:22:06Z</time>
      </trkpt>
      <trkpt lat="43.10294" lon="-0.14491">
        <ele>363.52</ele>
        <time>2021-08-19T18:22:07Z</time>
      </trkpt>
      <trkpt lat="43.10301" lon="-0.14502">
        <ele>364</ele>
        <time>2021-08-19T18:22:13Z</time>
      </trkpt>
      <trkpt lat="43.10302" lon="-0.14506">
        <ele>364.96</ele>
        <time>2021-08-19T18:22:20Z</time>
      </trkpt>
      <trkpt lat="43.10303" lon="-0.14508">
        <ele>364.96</ele>
        <time>2021-08-19T18:22:39Z</time>
      </trkpt>
      <trkpt lat="43.10304" lon="-0.14519">
        <ele>366.4</ele>
        <time>2021-08-19T18:22:49Z</time>
      </trkpt>
      <trkpt lat="43.10305" lon="-0.14533">
        <ele>368.32</ele>
        <time>2021-08-19T18:23:00Z</time>
      </trkpt>
      <trkpt lat="43.10307" lon="-0.14547">
        <ele>369.76</ele>
        <time>2021-08-19T18:23:10Z</time>
      </trkpt>
      <trkpt lat="43.10308" lon="-0.14551">
        <ele>370.24</ele>
        <time>2021-08-19T18:23:12Z</time>
      </trkpt>
      <trkpt lat="43.10309" lon="-0.14556">
        <ele>370.73</ele>
        <time>2021-08-19T18:23:19Z</time>
      </trkpt>
      <trkpt lat="43.10309" lon="-0.1456">
        <ele>371.21</ele>
        <time>2021-08-19T18:23:25Z</time>
      </trkpt>
      <trkpt lat="43.10311" lon="-0.14574">
        <ele>372.65</ele>
        <time>2021-08-19T18:23:35Z</time>
      </trkpt>
      <trkpt lat="43.10315" lon="-0.14589">
        <ele>374.09</ele>
        <time>2021-08-19T18:23:46Z</time>
      </trkpt>
      <trkpt lat="43.10315" lon="-0.1459">
        <ele>374.09</ele>
        <time>2021-08-19T18:23:55Z</time>
      </trkpt>
      <trkpt lat="43.10316" lon="-0.14591">
        <ele>374.09</ele>
        <time>2021-08-19T18:24:22Z</time>
      </trkpt>
      <trkpt lat="43.10316" lon="-0.14592">
        <ele>374.09</ele>
        <time>2021-08-19T18:24:43Z</time>
      </trkpt>
      <trkpt lat="43.10316" lon="-0.1459">
        <ele>374.09</ele>
        <time>2021-08-19T18:25:17Z</time>
      </trkpt>
      <trkpt lat="43.10314" lon="-0.14591">
        <ele>374.09</ele>
        <time>2021-08-19T18:25:34Z</time>
      </trkpt>
      <trkpt lat="43.10315" lon="-0.14596">
        <ele>374.09</ele>
        <time>2021-08-19T18:25:42Z</time>
      </trkpt>
      <trkpt lat="43.10318" lon="-0.14608">
        <ele>376.01</ele>
        <time>2021-08-19T18:25:52Z</time>
      </trkpt>
      <trkpt lat="43.10319" lon="-0.14619">
        <ele>376.97</ele>
        <time>2021-08-19T18:25:59Z</time>
      </trkpt>
      <trkpt lat="43.10317" lon="-0.14622">
        <ele>377.45</ele>
        <time>2021-08-19T18:26:06Z</time>
      </trkpt>
      <trkpt lat="43.1032" lon="-0.14634">
        <ele>378.9</ele>
        <time>2021-08-19T18:26:16Z</time>
      </trkpt>
      <trkpt lat="43.10322" lon="-0.1465">
        <ele>381.3</ele>
        <time>2021-08-19T18:26:26Z</time>
      </trkpt>
      <trkpt lat="43.10324" lon="-0.14659">
        <ele>381.78</ele>
        <time>2021-08-19T18:26:35Z</time>
      </trkpt>
      <trkpt lat="43.10325" lon="-0.14662">
        <ele>382.26</ele>
        <time>2021-08-19T18:26:38Z</time>
      </trkpt>
      <trkpt lat="43.10325" lon="-0.14664">
        <ele>382.26</ele>
        <time>2021-08-19T18:26:39Z</time>
      </trkpt>
      <trkpt lat="43.10325" lon="-0.14665">
        <ele>382.26</ele>
        <time>2021-08-19T18:26:40Z</time>
      </trkpt>
      <trkpt lat="43.10325" lon="-0.14667">
        <ele>382.26</ele>
        <time>2021-08-19T18:26:41Z</time>
      </trkpt>
      <trkpt lat="43.10325" lon="-0.14669">
        <ele>382.26</ele>
        <time>2021-08-19T18:26:42Z</time>
      </trkpt>
      <trkpt lat="43.10326" lon="-0.14671">
        <ele>382.74</ele>
        <time>2021-08-19T18:26:43Z</time>
      </trkpt>
      <trkpt lat="43.10326" lon="-0.14673">
        <ele>382.74</ele>
        <time>2021-08-19T18:26:44Z</time>
      </trkpt>
      <trkpt lat="43.10327" lon="-0.14686">
        <ele>384.66</ele>
        <time>2021-08-19T18:26:50Z</time>
      </trkpt>
      <trkpt lat="43.10327" lon="-0.14706">
        <ele>387.07</ele>
        <time>2021-08-19T18:26:58Z</time>
      </trkpt>
      <trkpt lat="43.10327" lon="-0.14722">
        <ele>388.51</ele>
        <time>2021-08-19T18:27:05Z</time>
      </trkpt>
      <trkpt lat="43.10326" lon="-0.14742">
        <ele>389.47</ele>
        <time>2021-08-19T18:27:13Z</time>
      </trkpt>
      <trkpt lat="43.10328" lon="-0.14758">
        <ele>390.91</ele>
        <time>2021-08-19T18:27:21Z</time>
      </trkpt>
      <trkpt lat="43.10328" lon="-0.14777">
        <ele>392.84</ele>
        <time>2021-08-19T18:27:32Z</time>
      </trkpt>
      <trkpt lat="43.10328" lon="-0.14782">
        <ele>393.32</ele>
        <time>2021-08-19T18:27:35Z</time>
      </trkpt>
      <trkpt lat="43.10327" lon="-0.14784">
        <ele>393.32</ele>
        <time>2021-08-19T18:27:36Z</time>
      </trkpt>
      <trkpt lat="43.10327" lon="-0.14786">
        <ele>393.8</ele>
        <time>2021-08-19T18:27:37Z</time>
      </trkpt>
      <trkpt lat="43.10327" lon="-0.14787">
        <ele>393.8</ele>
        <time>2021-08-19T18:27:38Z</time>
      </trkpt>
      <trkpt lat="43.10326" lon="-0.14789">
        <ele>393.8</ele>
        <time>2021-08-19T18:27:39Z</time>
      </trkpt>
      <trkpt lat="43.10325" lon="-0.14791">
        <ele>394.28</ele>
        <time>2021-08-19T18:27:40Z</time>
      </trkpt>
      <trkpt lat="43.10325" lon="-0.14793">
        <ele>394.28</ele>
        <time>2021-08-19T18:27:41Z</time>
      </trkpt>
      <trkpt lat="43.10321" lon="-0.14807">
        <ele>396.2</ele>
        <time>2021-08-19T18:27:50Z</time>
      </trkpt>
      <trkpt lat="43.10321" lon="-0.14809">
        <ele>396.2</ele>
        <time>2021-08-19T18:27:51Z</time>
      </trkpt>
      <trkpt lat="43.10317" lon="-0.14823">
        <ele>398.12</ele>
        <time>2021-08-19T18:27:59Z</time>
      </trkpt>
      <trkpt lat="43.10316" lon="-0.14825">
        <ele>399.08</ele>
        <time>2021-08-19T18:28:00Z</time>
      </trkpt>
      <trkpt lat="43.10316" lon="-0.14827">
        <ele>399.08</ele>
        <time>2021-08-19T18:28:01Z</time>
      </trkpt>
      <trkpt lat="43.10315" lon="-0.14828">
        <ele>399.57</ele>
        <time>2021-08-19T18:28:02Z</time>
      </trkpt>
      <trkpt lat="43.10315" lon="-0.14846">
        <ele>401.97</ele>
        <time>2021-08-19T18:28:11Z</time>
      </trkpt>
      <trkpt lat="43.10318" lon="-0.14865">
        <ele>402.45</ele>
        <time>2021-08-19T18:28:18Z</time>
      </trkpt>
      <trkpt lat="43.10323" lon="-0.14902">
        <ele>401.97</ele>
        <time>2021-08-19T18:28:26Z</time>
      </trkpt>
      <trkpt lat="43.10326" lon="-0.14925">
        <ele>401.01</ele>
        <time>2021-08-19T18:28:30Z</time>
      </trkpt>
      <trkpt lat="43.10331" lon="-0.14969">
        <ele>399.08</ele>
        <time>2021-08-19T18:28:37Z</time>
      </trkpt>
      <trkpt lat="43.10329" lon="-0.14992">
        <ele>398.12</ele>
        <time>2021-08-19T18:28:40Z</time>
      </trkpt>
      <trkpt lat="43.10327" lon="-0.14999">
        <ele>398.12</ele>
        <time>2021-08-19T18:28:41Z</time>
      </trkpt>
      <trkpt lat="43.10325" lon="-0.15006">
        <ele>398.12</ele>
        <time>2021-08-19T18:28:42Z</time>
      </trkpt>
      <trkpt lat="43.10323" lon="-0.15012">
        <ele>398.12</ele>
        <time>2021-08-19T18:28:43Z</time>
      </trkpt>
      <trkpt lat="43.1032" lon="-0.15017">
        <ele>398.12</ele>
        <time>2021-08-19T18:28:44Z</time>
      </trkpt>
      <trkpt lat="43.10317" lon="-0.1502">
        <ele>398.12</ele>
        <time>2021-08-19T18:28:45Z</time>
      </trkpt>
      <trkpt lat="43.10314" lon="-0.15022">
        <ele>399.57</ele>
        <time>2021-08-19T18:28:46Z</time>
      </trkpt>
      <trkpt lat="43.10313" lon="-0.15024">
        <ele>400.53</ele>
        <time>2021-08-19T18:28:47Z</time>
      </trkpt>
      <trkpt lat="43.10311" lon="-0.15025">
        <ele>400.53</ele>
        <time>2021-08-19T18:28:48Z</time>
      </trkpt>
      <trkpt lat="43.1031" lon="-0.15026">
        <ele>400.53</ele>
        <time>2021-08-19T18:28:49Z</time>
      </trkpt>
      <trkpt lat="43.10309" lon="-0.15026">
        <ele>401.01</ele>
        <time>2021-08-19T18:28:50Z</time>
      </trkpt>
      <trkpt lat="43.103" lon="-0.1503">
        <ele>402.45</ele>
        <time>2021-08-19T18:28:58Z</time>
      </trkpt>
      <trkpt lat="43.10297" lon="-0.15031">
        <ele>402.93</ele>
        <time>2021-08-19T18:29:00Z</time>
      </trkpt>
      <trkpt lat="43.10296" lon="-0.15031">
        <ele>403.89</ele>
        <time>2021-08-19T18:29:01Z</time>
      </trkpt>
      <trkpt lat="43.10295" lon="-0.15032">
        <ele>403.89</ele>
        <time>2021-08-19T18:29:02Z</time>
      </trkpt>
      <trkpt lat="43.10293" lon="-0.15032">
        <ele>404.37</ele>
        <time>2021-08-19T18:29:03Z</time>
      </trkpt>
      <trkpt lat="43.10292" lon="-0.15033">
        <ele>404.37</ele>
        <time>2021-08-19T18:29:04Z</time>
      </trkpt>
      <trkpt lat="43.10291" lon="-0.15033">
        <ele>404.37</ele>
        <time>2021-08-19T18:29:05Z</time>
      </trkpt>
      <trkpt lat="43.10289" lon="-0.15034">
        <ele>404.85</ele>
        <time>2021-08-19T18:29:06Z</time>
      </trkpt>
      <trkpt lat="43.10288" lon="-0.15035">
        <ele>405.33</ele>
        <time>2021-08-19T18:29:07Z</time>
      </trkpt>
      <trkpt lat="43.10287" lon="-0.15036">
        <ele>405.33</ele>
        <time>2021-08-19T18:29:08Z</time>
      </trkpt>
      <trkpt lat="43.10276" lon="-0.15046">
        <ele>406.77</ele>
        <time>2021-08-19T18:29:16Z</time>
      </trkpt>
      <trkpt lat="43.10267" lon="-0.15057">
        <ele>408.22</ele>
        <time>2021-08-19T18:29:24Z</time>
      </trkpt>
      <trkpt lat="43.10257" lon="-0.1507">
        <ele>409.66</ele>
        <time>2021-08-19T18:29:33Z</time>
      </trkpt>
      <trkpt lat="43.10247" lon="-0.15089">
        <ele>411.58</ele>
        <time>2021-08-19T18:29:44Z</time>
      </trkpt>
      <trkpt lat="43.10239" lon="-0.15104">
        <ele>413.5</ele>
        <time>2021-08-19T18:29:54Z</time>
      </trkpt>
      <trkpt lat="43.10231" lon="-0.15121">
        <ele>414.95</ele>
        <time>2021-08-19T18:30:03Z</time>
      </trkpt>
      <trkpt lat="43.10224" lon="-0.15146">
        <ele>415.91</ele>
        <time>2021-08-19T18:30:11Z</time>
      </trkpt>
      <trkpt lat="43.10214" lon="-0.1518">
        <ele>417.35</ele>
        <time>2021-08-19T18:30:21Z</time>
      </trkpt>
      <trkpt lat="43.10205" lon="-0.1521">
        <ele>418.79</ele>
        <time>2021-08-19T18:30:30Z</time>
      </trkpt>
      <trkpt lat="43.10204" lon="-0.15231">
        <ele>420.23</ele>
        <time>2021-08-19T18:30:37Z</time>
      </trkpt>
      <trkpt lat="43.10204" lon="-0.1525">
        <ele>422.16</ele>
        <time>2021-08-19T18:30:44Z</time>
      </trkpt>
      <trkpt lat="43.10204" lon="-0.15253">
        <ele>422.64</ele>
        <time>2021-08-19T18:30:45Z</time>
      </trkpt>
      <trkpt lat="43.10204" lon="-0.15255">
        <ele>422.64</ele>
        <time>2021-08-19T18:30:46Z</time>
      </trkpt>
      <trkpt lat="43.10204" lon="-0.15258">
        <ele>423.12</ele>
        <time>2021-08-19T18:30:47Z</time>
      </trkpt>
      <trkpt lat="43.10204" lon="-0.1528">
        <ele>424.56</ele>
        <time>2021-08-19T18:30:55Z</time>
      </trkpt>
      <trkpt lat="43.10211" lon="-0.15304">
        <ele>426.48</ele>
        <time>2021-08-19T18:31:05Z</time>
      </trkpt>
      <trkpt lat="43.10216" lon="-0.15313">
        <ele>427.92</ele>
        <time>2021-08-19T18:31:10Z</time>
      </trkpt>
      <trkpt lat="43.10217" lon="-0.15314">
        <ele>427.92</ele>
        <time>2021-08-19T18:31:11Z</time>
      </trkpt>
      <trkpt lat="43.10219" lon="-0.15315">
        <ele>428.4</ele>
        <time>2021-08-19T18:31:12Z</time>
      </trkpt>
      <trkpt lat="43.10222" lon="-0.15317">
        <ele>428.89</ele>
        <time>2021-08-19T18:31:15Z</time>
      </trkpt>
      <trkpt lat="43.10223" lon="-0.15317">
        <ele>429.37</ele>
        <time>2021-08-19T18:31:16Z</time>
      </trkpt>
      <trkpt lat="43.10224" lon="-0.15315">
        <ele>428.89</ele>
        <time>2021-08-19T18:31:17Z</time>
      </trkpt>
      <trkpt lat="43.10224" lon="-0.15314">
        <ele>428.89</ele>
        <time>2021-08-19T18:31:18Z</time>
      </trkpt>
      <trkpt lat="43.10222" lon="-0.15313">
        <ele>428.89</ele>
        <time>2021-08-19T18:31:19Z</time>
      </trkpt>
      <trkpt lat="43.1022" lon="-0.15313">
        <ele>429.37</ele>
        <time>2021-08-19T18:31:20Z</time>
      </trkpt>
      <trkpt lat="43.10218" lon="-0.15313">
        <ele>429.37</ele>
        <time>2021-08-19T18:31:21Z</time>
      </trkpt>
      <trkpt lat="43.10216" lon="-0.15313">
        <ele>428.89</ele>
        <time>2021-08-19T18:31:22Z</time>
      </trkpt>
      <trkpt lat="43.10214" lon="-0.15311">
        <ele>427.44</ele>
        <time>2021-08-19T18:31:23Z</time>
      </trkpt>
      <trkpt lat="43.10212" lon="-0.15308">
        <ele>427.44</ele>
        <time>2021-08-19T18:31:24Z</time>
      </trkpt>
      <trkpt lat="43.1021" lon="-0.15304">
        <ele>426.96</ele>
        <time>2021-08-19T18:31:25Z</time>
      </trkpt>
      <trkpt lat="43.10203" lon="-0.15272">
        <ele>424.08</ele>
        <time>2021-08-19T18:31:32Z</time>
      </trkpt>
      <trkpt lat="43.10204" lon="-0.15242">
        <ele>422.16</ele>
        <time>2021-08-19T18:31:38Z</time>
      </trkpt>
      <trkpt lat="43.10204" lon="-0.15238">
        <ele>421.19</ele>
        <time>2021-08-19T18:31:39Z</time>
      </trkpt>
      <trkpt lat="43.10203" lon="-0.15237">
        <ele>420.71</ele>
        <time>2021-08-19T18:31:40Z</time>
      </trkpt>
      <trkpt lat="43.10201" lon="-0.15243">
        <ele>420.71</ele>
        <time>2021-08-19T18:31:44Z</time>
      </trkpt>
      <trkpt lat="43.102" lon="-0.1525">
        <ele>420.23</ele>
        <time>2021-08-19T18:31:47Z</time>
      </trkpt>
      <trkpt lat="43.102" lon="-0.15254">
        <ele>420.23</ele>
        <time>2021-08-19T18:31:48Z</time>
      </trkpt>
      <trkpt lat="43.10199" lon="-0.15257">
        <ele>420.23</ele>
        <time>2021-08-19T18:31:49Z</time>
      </trkpt>
      <trkpt lat="43.10198" lon="-0.15261">
        <ele>420.23</ele>
        <time>2021-08-19T18:31:50Z</time>
      </trkpt>
      <trkpt lat="43.10189" lon="-0.15285">
        <ele>420.23</ele>
        <time>2021-08-19T18:31:56Z</time>
      </trkpt>
      <trkpt lat="43.10182" lon="-0.15311">
        <ele>418.31</ele>
        <time>2021-08-19T18:32:02Z</time>
      </trkpt>
      <trkpt lat="43.10178" lon="-0.15338">
        <ele>416.39</ele>
        <time>2021-08-19T18:32:07Z</time>
      </trkpt>
      <trkpt lat="43.10175" lon="-0.1537">
        <ele>413.02</ele>
        <time>2021-08-19T18:32:13Z</time>
      </trkpt>
      <trkpt lat="43.10173" lon="-0.15382">
        <ele>411.58</ele>
        <time>2021-08-19T18:32:16Z</time>
      </trkpt>
      <trkpt lat="43.10165" lon="-0.15403">
        <ele>408.22</ele>
        <time>2021-08-19T18:32:22Z</time>
      </trkpt>
      <trkpt lat="43.10164" lon="-0.15408">
        <ele>407.26</ele>
        <time>2021-08-19T18:32:23Z</time>
      </trkpt>
      <trkpt lat="43.10162" lon="-0.15413">
        <ele>406.29</ele>
        <time>2021-08-19T18:32:24Z</time>
      </trkpt>
      <trkpt lat="43.10161" lon="-0.15419">
        <ele>405.33</ele>
        <time>2021-08-19T18:32:25Z</time>
      </trkpt>
      <trkpt lat="43.10159" lon="-0.15425">
        <ele>404.37</ele>
        <time>2021-08-19T18:32:26Z</time>
      </trkpt>
      <trkpt lat="43.10158" lon="-0.15431">
        <ele>403.41</ele>
        <time>2021-08-19T18:32:27Z</time>
      </trkpt>
      <trkpt lat="43.10156" lon="-0.15437">
        <ele>402.45</ele>
        <time>2021-08-19T18:32:28Z</time>
      </trkpt>
      <trkpt lat="43.10155" lon="-0.15444">
        <ele>401.49</ele>
        <time>2021-08-19T18:32:29Z</time>
      </trkpt>
      <trkpt lat="43.10152" lon="-0.15471">
        <ele>398.12</ele>
        <time>2021-08-19T18:32:33Z</time>
      </trkpt>
      <trkpt lat="43.10151" lon="-0.15498">
        <ele>396.2</ele>
        <time>2021-08-19T18:32:36Z</time>
      </trkpt>
      <trkpt lat="43.10151" lon="-0.15506">
        <ele>395.72</ele>
        <time>2021-08-19T18:32:37Z</time>
      </trkpt>
      <trkpt lat="43.10152" lon="-0.15513">
        <ele>395.72</ele>
        <time>2021-08-19T18:32:38Z</time>
      </trkpt>
      <trkpt lat="43.10153" lon="-0.15537">
        <ele>394.76</ele>
        <time>2021-08-19T18:32:43Z</time>
      </trkpt>
      <trkpt lat="43.10157" lon="-0.15563">
        <ele>393.32</ele>
        <time>2021-08-19T18:32:49Z</time>
      </trkpt>
      <trkpt lat="43.10164" lon="-0.15595">
        <ele>392.84</ele>
        <time>2021-08-19T18:32:56Z</time>
      </trkpt>
      <trkpt lat="43.10167" lon="-0.15614">
        <ele>392.36</ele>
        <time>2021-08-19T18:33:02Z</time>
      </trkpt>
      <trkpt lat="43.1017" lon="-0.15638">
        <ele>388.99</ele>
        <time>2021-08-19T18:33:08Z</time>
      </trkpt>
      <trkpt lat="43.10172" lon="-0.15662">
        <ele>386.11</ele>
        <time>2021-08-19T18:33:13Z</time>
      </trkpt>
      <trkpt lat="43.10173" lon="-0.15673">
        <ele>384.18</ele>
        <time>2021-08-19T18:33:15Z</time>
      </trkpt>
      <trkpt lat="43.10173" lon="-0.15696">
        <ele>380.82</ele>
        <time>2021-08-19T18:33:19Z</time>
      </trkpt>
      <trkpt lat="43.10177" lon="-0.15723">
        <ele>377.45</ele>
        <time>2021-08-19T18:33:24Z</time>
      </trkpt>
      <trkpt lat="43.10182" lon="-0.15742">
        <ele>374.09</ele>
        <time>2021-08-19T18:33:27Z</time>
      </trkpt>
      <trkpt lat="43.10187" lon="-0.15759">
        <ele>372.17</ele>
        <time>2021-08-19T18:33:29Z</time>
      </trkpt>
      <trkpt lat="43.10202" lon="-0.15788">
        <ele>368.8</ele>
        <time>2021-08-19T18:33:33Z</time>
      </trkpt>
      <trkpt lat="43.10206" lon="-0.15795">
        <ele>368.8</ele>
        <time>2021-08-19T18:33:34Z</time>
      </trkpt>
      <trkpt lat="43.1021" lon="-0.15801">
        <ele>367.84</ele>
        <time>2021-08-19T18:33:35Z</time>
      </trkpt>
      <trkpt lat="43.10214" lon="-0.15807">
        <ele>367.84</ele>
        <time>2021-08-19T18:33:36Z</time>
      </trkpt>
      <trkpt lat="43.10219" lon="-0.15812">
        <ele>367.84</ele>
        <time>2021-08-19T18:33:37Z</time>
      </trkpt>
      <trkpt lat="43.10223" lon="-0.15815">
        <ele>367.36</ele>
        <time>2021-08-19T18:33:38Z</time>
      </trkpt>
      <trkpt lat="43.10227" lon="-0.15816">
        <ele>367.36</ele>
        <time>2021-08-19T18:33:39Z</time>
      </trkpt>
      <trkpt lat="43.10231" lon="-0.15816">
        <ele>366.88</ele>
        <time>2021-08-19T18:33:40Z</time>
      </trkpt>
      <trkpt lat="43.10235" lon="-0.15817">
        <ele>366.4</ele>
        <time>2021-08-19T18:33:41Z</time>
      </trkpt>
      <trkpt lat="43.10239" lon="-0.15819">
        <ele>365.44</ele>
        <time>2021-08-19T18:33:42Z</time>
      </trkpt>
      <trkpt lat="43.10243" lon="-0.15821">
        <ele>364.48</ele>
        <time>2021-08-19T18:33:43Z</time>
      </trkpt>
      <trkpt lat="43.10256" lon="-0.15828">
        <ele>363.52</ele>
        <time>2021-08-19T18:33:46Z</time>
      </trkpt>
      <trkpt lat="43.10261" lon="-0.15829">
        <ele>363.52</ele>
        <time>2021-08-19T18:33:47Z</time>
      </trkpt>
      <trkpt lat="43.10265" lon="-0.15828">
        <ele>363.04</ele>
        <time>2021-08-19T18:33:48Z</time>
      </trkpt>
      <trkpt lat="43.10269" lon="-0.15826">
        <ele>363.52</ele>
        <time>2021-08-19T18:33:49Z</time>
      </trkpt>
      <trkpt lat="43.10273" lon="-0.15825">
        <ele>363.52</ele>
        <time>2021-08-19T18:33:50Z</time>
      </trkpt>
      <trkpt lat="43.10298" lon="-0.15813">
        <ele>363.52</ele>
        <time>2021-08-19T18:33:57Z</time>
      </trkpt>
      <trkpt lat="43.10313" lon="-0.15807">
        <ele>364.48</ele>
        <time>2021-08-19T18:34:02Z</time>
      </trkpt>
      <trkpt lat="43.10333" lon="-0.15796">
        <ele>365.44</ele>
        <time>2021-08-19T18:34:10Z</time>
      </trkpt>
      <trkpt lat="43.10355" lon="-0.15791">
        <ele>365.92</ele>
        <time>2021-08-19T18:34:17Z</time>
      </trkpt>
      <trkpt lat="43.1036" lon="-0.15791">
        <ele>365.92</ele>
        <time>2021-08-19T18:34:18Z</time>
      </trkpt>
      <trkpt lat="43.10365" lon="-0.1579">
        <ele>365.92</ele>
        <time>2021-08-19T18:34:19Z</time>
      </trkpt>
      <trkpt lat="43.10369" lon="-0.1579">
        <ele>365.92</ele>
        <time>2021-08-19T18:34:20Z</time>
      </trkpt>
      <trkpt lat="43.10374" lon="-0.1579">
        <ele>365.92</ele>
        <time>2021-08-19T18:34:21Z</time>
      </trkpt>
      <trkpt lat="43.10379" lon="-0.15789">
        <ele>365.92</ele>
        <time>2021-08-19T18:34:22Z</time>
      </trkpt>
      <trkpt lat="43.1039" lon="-0.15788">
        <ele>364.48</ele>
        <time>2021-08-19T18:34:24Z</time>
      </trkpt>
      <trkpt lat="43.10434" lon="-0.15778">
        <ele>362.07</ele>
        <time>2021-08-19T18:34:32Z</time>
      </trkpt>
      <trkpt lat="43.10453" lon="-0.15773">
        <ele>361.59</ele>
        <time>2021-08-19T18:34:36Z</time>
      </trkpt>
      <trkpt lat="43.10469" lon="-0.15781">
        <ele>361.11</ele>
        <time>2021-08-19T18:34:41Z</time>
      </trkpt>
      <trkpt lat="43.10469" lon="-0.15786">
        <ele>360.63</ele>
        <time>2021-08-19T18:34:42Z</time>
      </trkpt>
      <trkpt lat="43.10466" lon="-0.15826">
        <ele>359.67</ele>
        <time>2021-08-19T18:34:49Z</time>
      </trkpt>
      <trkpt lat="43.10461" lon="-0.1585">
        <ele>359.19</ele>
        <time>2021-08-19T18:34:53Z</time>
      </trkpt>
      <trkpt lat="43.10459" lon="-0.15857">
        <ele>358.23</ele>
        <time>2021-08-19T18:34:54Z</time>
      </trkpt>
      <trkpt lat="43.10452" lon="-0.15887">
        <ele>356.79</ele>
        <time>2021-08-19T18:35:00Z</time>
      </trkpt>
      <trkpt lat="43.10449" lon="-0.15893">
        <ele>356.79</ele>
        <time>2021-08-19T18:35:01Z</time>
      </trkpt>
      <trkpt lat="43.10446" lon="-0.15898">
        <ele>356.79</ele>
        <time>2021-08-19T18:35:02Z</time>
      </trkpt>
      <trkpt lat="43.10441" lon="-0.15904">
        <ele>356.79</ele>
        <time>2021-08-19T18:35:04Z</time>
      </trkpt>
      <trkpt lat="43.10437" lon="-0.15907">
        <ele>356.79</ele>
        <time>2021-08-19T18:35:05Z</time>
      </trkpt>
      <trkpt lat="43.10433" lon="-0.15908">
        <ele>356.79</ele>
        <time>2021-08-19T18:35:06Z</time>
      </trkpt>
      <trkpt lat="43.1043" lon="-0.15909">
        <ele>356.79</ele>
        <time>2021-08-19T18:35:07Z</time>
      </trkpt>
      <trkpt lat="43.10426" lon="-0.15909">
        <ele>356.79</ele>
        <time>2021-08-19T18:35:08Z</time>
      </trkpt>
      <trkpt lat="43.10413" lon="-0.15912">
        <ele>358.71</ele>
        <time>2021-08-19T18:35:14Z</time>
      </trkpt>
      <trkpt lat="43.10391" lon="-0.15917">
        <ele>360.15</ele>
        <time>2021-08-19T18:35:22Z</time>
      </trkpt>
      <trkpt lat="43.10368" lon="-0.1592">
        <ele>360.63</ele>
        <time>2021-08-19T18:35:30Z</time>
      </trkpt>
      <trkpt lat="43.10341" lon="-0.1592">
        <ele>360.63</ele>
        <time>2021-08-19T18:35:39Z</time>
      </trkpt>
      <trkpt lat="43.10319" lon="-0.15919">
        <ele>360.63</ele>
        <time>2021-08-19T18:35:45Z</time>
      </trkpt>
      <trkpt lat="43.10312" lon="-0.15922">
        <ele>360.63</ele>
        <time>2021-08-19T18:35:47Z</time>
      </trkpt>
      <trkpt lat="43.10298" lon="-0.15919">
        <ele>360.63</ele>
        <time>2021-08-19T18:35:50Z</time>
      </trkpt>
      <trkpt lat="43.10293" lon="-0.15916">
        <ele>360.63</ele>
        <time>2021-08-19T18:35:51Z</time>
      </trkpt>
      <trkpt lat="43.10288" lon="-0.15914">
        <ele>360.63</ele>
        <time>2021-08-19T18:35:52Z</time>
      </trkpt>
      <trkpt lat="43.10284" lon="-0.15911">
        <ele>359.67</ele>
        <time>2021-08-19T18:35:53Z</time>
      </trkpt>
      <trkpt lat="43.1028" lon="-0.15907">
        <ele>359.67</ele>
        <time>2021-08-19T18:35:54Z</time>
      </trkpt>
      <trkpt lat="43.10276" lon="-0.15904">
        <ele>359.67</ele>
        <time>2021-08-19T18:35:55Z</time>
      </trkpt>
      <trkpt lat="43.10251" lon="-0.15882">
        <ele>359.19</ele>
        <time>2021-08-19T18:36:01Z</time>
      </trkpt>
      <trkpt lat="43.10227" lon="-0.15857">
        <ele>359.67</ele>
        <time>2021-08-19T18:36:08Z</time>
      </trkpt>
      <trkpt lat="43.10198" lon="-0.1582">
        <ele>359.67</ele>
        <time>2021-08-19T18:36:16Z</time>
      </trkpt>
      <trkpt lat="43.1017" lon="-0.15781">
        <ele>359.19</ele>
        <time>2021-08-19T18:36:25Z</time>
      </trkpt>
      <trkpt lat="43.10163" lon="-0.15777">
        <ele>359.19</ele>
        <time>2021-08-19T18:36:27Z</time>
      </trkpt>
      <trkpt lat="43.1016" lon="-0.15781">
        <ele>358.71</ele>
        <time>2021-08-19T18:36:28Z</time>
      </trkpt>
      <trkpt lat="43.1016" lon="-0.15787">
        <ele>358.23</ele>
        <time>2021-08-19T18:36:29Z</time>
      </trkpt>
      <trkpt lat="43.1016" lon="-0.15791">
        <ele>358.23</ele>
        <time>2021-08-19T18:36:30Z</time>
      </trkpt>
      <trkpt lat="43.1016" lon="-0.15797">
        <ele>357.75</ele>
        <time>2021-08-19T18:36:31Z</time>
      </trkpt>
      <trkpt lat="43.10161" lon="-0.15804">
        <ele>357.75</ele>
        <time>2021-08-19T18:36:32Z</time>
      </trkpt>
      <trkpt lat="43.10161" lon="-0.15811">
        <ele>356.79</ele>
        <time>2021-08-19T18:36:33Z</time>
      </trkpt>
      <trkpt lat="43.1016" lon="-0.1582">
        <ele>356.31</ele>
        <time>2021-08-19T18:36:34Z</time>
      </trkpt>
      <trkpt lat="43.10157" lon="-0.15849">
        <ele>353.42</ele>
        <time>2021-08-19T18:36:37Z</time>
      </trkpt>
      <trkpt lat="43.10158" lon="-0.15867">
        <ele>352.46</ele>
        <time>2021-08-19T18:36:39Z</time>
      </trkpt>
      <trkpt lat="43.1016" lon="-0.15879">
        <ele>351.02</ele>
        <time>2021-08-19T18:36:40Z</time>
      </trkpt>
      <trkpt lat="43.10163" lon="-0.15887">
        <ele>350.54</ele>
        <time>2021-08-19T18:36:41Z</time>
      </trkpt>
      <trkpt lat="43.10167" lon="-0.15896">
        <ele>350.54</ele>
        <time>2021-08-19T18:36:42Z</time>
      </trkpt>
      <trkpt lat="43.10171" lon="-0.15904">
        <ele>350.06</ele>
        <time>2021-08-19T18:36:43Z</time>
      </trkpt>
      <trkpt lat="43.10197" lon="-0.15947">
        <ele>350.06</ele>
        <time>2021-08-19T18:36:49Z</time>
      </trkpt>
      <trkpt lat="43.10208" lon="-0.15962">
        <ele>352.94</ele>
        <time>2021-08-19T18:36:53Z</time>
      </trkpt>
      <trkpt lat="43.10219" lon="-0.15986">
        <ele>352.94</ele>
        <time>2021-08-19T18:36:59Z</time>
      </trkpt>
      <trkpt lat="43.1022" lon="-0.15989">
        <ele>352.94</ele>
        <time>2021-08-19T18:37:00Z</time>
      </trkpt>
      <trkpt lat="43.10239" lon="-0.16025">
        <ele>350.06</ele>
        <time>2021-08-19T18:37:06Z</time>
      </trkpt>
      <trkpt lat="43.10258" lon="-0.16064">
        <ele>347.65</ele>
        <time>2021-08-19T18:37:11Z</time>
      </trkpt>
      <trkpt lat="43.10262" lon="-0.16073">
        <ele>346.69</ele>
        <time>2021-08-19T18:37:12Z</time>
      </trkpt>
      <trkpt lat="43.10264" lon="-0.16083">
        <ele>346.69</ele>
        <time>2021-08-19T18:37:13Z</time>
      </trkpt>
      <trkpt lat="43.10266" lon="-0.16095">
        <ele>346.69</ele>
        <time>2021-08-19T18:37:14Z</time>
      </trkpt>
      <trkpt lat="43.10267" lon="-0.16105">
        <ele>345.73</ele>
        <time>2021-08-19T18:37:15Z</time>
      </trkpt>
      <trkpt lat="43.10267" lon="-0.16116">
        <ele>345.25</ele>
        <time>2021-08-19T18:37:16Z</time>
      </trkpt>
      <trkpt lat="43.10266" lon="-0.16126">
        <ele>345.25</ele>
        <time>2021-08-19T18:37:17Z</time>
      </trkpt>
      <trkpt lat="43.10264" lon="-0.16136">
        <ele>344.77</ele>
        <time>2021-08-19T18:37:18Z</time>
      </trkpt>
      <trkpt lat="43.10255" lon="-0.16188">
        <ele>342.37</ele>
        <time>2021-08-19T18:37:24Z</time>
      </trkpt>
      <trkpt lat="43.10252" lon="-0.16198">
        <ele>341.89</ele>
        <time>2021-08-19T18:37:25Z</time>
      </trkpt>
      <trkpt lat="43.10248" lon="-0.16204">
        <ele>341.41</ele>
        <time>2021-08-19T18:37:26Z</time>
      </trkpt>
      <trkpt lat="43.10243" lon="-0.1621">
        <ele>340.92</ele>
        <time>2021-08-19T18:37:27Z</time>
      </trkpt>
      <trkpt lat="43.10238" lon="-0.16215">
        <ele>340.92</ele>
        <time>2021-08-19T18:37:28Z</time>
      </trkpt>
      <trkpt lat="43.10233" lon="-0.16219">
        <ele>340.44</ele>
        <time>2021-08-19T18:37:29Z</time>
      </trkpt>
      <trkpt lat="43.10228" lon="-0.16226">
        <ele>339.96</ele>
        <time>2021-08-19T18:37:30Z</time>
      </trkpt>
      <trkpt lat="43.10224" lon="-0.16234">
        <ele>339.48</ele>
        <time>2021-08-19T18:37:31Z</time>
      </trkpt>
      <trkpt lat="43.10221" lon="-0.1624">
        <ele>338.52</ele>
        <time>2021-08-19T18:37:32Z</time>
      </trkpt>
      <trkpt lat="43.10218" lon="-0.16249">
        <ele>338.04</ele>
        <time>2021-08-19T18:37:33Z</time>
      </trkpt>
      <trkpt lat="43.10217" lon="-0.16259">
        <ele>337.08</ele>
        <time>2021-08-19T18:37:34Z</time>
      </trkpt>
      <trkpt lat="43.10217" lon="-0.16269">
        <ele>336.6</ele>
        <time>2021-08-19T18:37:35Z</time>
      </trkpt>
      <trkpt lat="43.10218" lon="-0.16279">
        <ele>336.6</ele>
        <time>2021-08-19T18:37:36Z</time>
      </trkpt>
      <trkpt lat="43.10222" lon="-0.1629">
        <ele>335.64</ele>
        <time>2021-08-19T18:37:37Z</time>
      </trkpt>
      <trkpt lat="43.10225" lon="-0.16299">
        <ele>335.64</ele>
        <time>2021-08-19T18:37:38Z</time>
      </trkpt>
      <trkpt lat="43.10242" lon="-0.16346">
        <ele>335.16</ele>
        <time>2021-08-19T18:37:43Z</time>
      </trkpt>
      <trkpt lat="43.10246" lon="-0.16364">
        <ele>335.16</ele>
        <time>2021-08-19T18:37:45Z</time>
      </trkpt>
      <trkpt lat="43.10247" lon="-0.16373">
        <ele>335.16</ele>
        <time>2021-08-19T18:37:46Z</time>
      </trkpt>
      <trkpt lat="43.10248" lon="-0.16381">
        <ele>335.16</ele>
        <time>2021-08-19T18:37:47Z</time>
      </trkpt>
      <trkpt lat="43.10247" lon="-0.1639">
        <ele>335.16</ele>
        <time>2021-08-19T18:37:48Z</time>
      </trkpt>
      <trkpt lat="43.10247" lon="-0.16398">
        <ele>335.16</ele>
        <time>2021-08-19T18:37:49Z</time>
      </trkpt>
      <trkpt lat="43.10247" lon="-0.16406">
        <ele>335.16</ele>
        <time>2021-08-19T18:37:50Z</time>
      </trkpt>
      <trkpt lat="43.10244" lon="-0.16468">
        <ele>336.6</ele>
        <time>2021-08-19T18:37:58Z</time>
      </trkpt>
      <trkpt lat="43.10241" lon="-0.16507">
        <ele>338.52</ele>
        <time>2021-08-19T18:38:05Z</time>
      </trkpt>
      <trkpt lat="43.10242" lon="-0.1655">
        <ele>339.48</ele>
        <time>2021-08-19T18:38:14Z</time>
      </trkpt>
      <trkpt lat="43.10238" lon="-0.16593">
        <ele>340.44</ele>
        <time>2021-08-19T18:38:23Z</time>
      </trkpt>
      <trkpt lat="43.10236" lon="-0.1661">
        <ele>340.44</ele>
        <time>2021-08-19T18:38:27Z</time>
      </trkpt>
      <trkpt lat="43.10234" lon="-0.16613">
        <ele>340.44</ele>
        <time>2021-08-19T18:38:28Z</time>
      </trkpt>
      <trkpt lat="43.10231" lon="-0.16614">
        <ele>340.44</ele>
        <time>2021-08-19T18:38:29Z</time>
      </trkpt>
      <trkpt lat="43.10228" lon="-0.16614">
        <ele>340.44</ele>
        <time>2021-08-19T18:38:30Z</time>
      </trkpt>
      <trkpt lat="43.10224" lon="-0.16613">
        <ele>340.44</ele>
        <time>2021-08-19T18:38:31Z</time>
      </trkpt>
      <trkpt lat="43.1022" lon="-0.16612">
        <ele>340.44</ele>
        <time>2021-08-19T18:38:32Z</time>
      </trkpt>
      <trkpt lat="43.10182" lon="-0.16599">
        <ele>339</ele>
        <time>2021-08-19T18:38:41Z</time>
      </trkpt>
      <trkpt lat="43.10164" lon="-0.16593">
        <ele>337.08</ele>
        <time>2021-08-19T18:38:44Z</time>
      </trkpt>
      <trkpt lat="43.10138" lon="-0.16587">
        <ele>338.04</ele>
        <time>2021-08-19T18:38:49Z</time>
      </trkpt>
      <trkpt lat="43.10121" lon="-0.16585">
        <ele>339.96</ele>
        <time>2021-08-19T18:38:54Z</time>
      </trkpt>
      <trkpt lat="43.10102" lon="-0.16602">
        <ele>341.41</ele>
        <time>2021-08-19T18:39:01Z</time>
      </trkpt>
      <trkpt lat="43.10088" lon="-0.16633">
        <ele>341.89</ele>
        <time>2021-08-19T18:39:08Z</time>
      </trkpt>
      <trkpt lat="43.10085" lon="-0.16644">
        <ele>341.89</ele>
        <time>2021-08-19T18:39:10Z</time>
      </trkpt>
      <trkpt lat="43.10073" lon="-0.16696">
        <ele>340.92</ele>
        <time>2021-08-19T18:39:18Z</time>
      </trkpt>
      <trkpt lat="43.10052" lon="-0.16771">
        <ele>339.48</ele>
        <time>2021-08-19T18:39:28Z</time>
      </trkpt>
      <trkpt lat="43.10024" lon="-0.16857">
        <ele>339</ele>
        <time>2021-08-19T18:39:39Z</time>
      </trkpt>
      <trkpt lat="43.09988" lon="-0.16923">
        <ele>336.6</ele>
        <time>2021-08-19T18:39:48Z</time>
      </trkpt>
      <trkpt lat="43.09959" lon="-0.16985">
        <ele>336.12</ele>
        <time>2021-08-19T18:39:56Z</time>
      </trkpt>
      <trkpt lat="43.09946" lon="-0.17044">
        <ele>335.16</ele>
        <time>2021-08-19T18:40:03Z</time>
      </trkpt>
      <trkpt lat="43.09936" lon="-0.17133">
        <ele>334.68</ele>
        <time>2021-08-19T18:40:13Z</time>
      </trkpt>
      <trkpt lat="43.09923" lon="-0.17242">
        <ele>333.23</ele>
        <time>2021-08-19T18:40:25Z</time>
      </trkpt>
      <trkpt lat="43.09911" lon="-0.17304">
        <ele>332.27</ele>
        <time>2021-08-19T18:40:32Z</time>
      </trkpt>
      <trkpt lat="43.0991" lon="-0.17333">
        <ele>331.31</ele>
        <time>2021-08-19T18:40:35Z</time>
      </trkpt>
      <trkpt lat="43.09911" lon="-0.17342">
        <ele>331.31</ele>
        <time>2021-08-19T18:40:36Z</time>
      </trkpt>
      <trkpt lat="43.09925" lon="-0.17425">
        <ele>330.35</ele>
        <time>2021-08-19T18:40:45Z</time>
      </trkpt>
      <trkpt lat="43.09928" lon="-0.17433">
        <ele>330.35</ele>
        <time>2021-08-19T18:40:46Z</time>
      </trkpt>
      <trkpt lat="43.09931" lon="-0.17441">
        <ele>330.35</ele>
        <time>2021-08-19T18:40:47Z</time>
      </trkpt>
      <trkpt lat="43.09935" lon="-0.17448">
        <ele>330.35</ele>
        <time>2021-08-19T18:40:48Z</time>
      </trkpt>
      <trkpt lat="43.09939" lon="-0.17455">
        <ele>330.35</ele>
        <time>2021-08-19T18:40:49Z</time>
      </trkpt>
      <trkpt lat="43.09966" lon="-0.17488">
        <ele>331.79</ele>
        <time>2021-08-19T18:40:55Z</time>
      </trkpt>
      <trkpt lat="43.10001" lon="-0.17517">
        <ele>332.27</ele>
        <time>2021-08-19T18:41:03Z</time>
      </trkpt>
      <trkpt lat="43.10013" lon="-0.17528">
        <ele>332.75</ele>
        <time>2021-08-19T18:41:06Z</time>
      </trkpt>
      <trkpt lat="43.10032" lon="-0.17554">
        <ele>334.68</ele>
        <time>2021-08-19T18:41:13Z</time>
      </trkpt>
      <trkpt lat="43.10034" lon="-0.17556">
        <ele>334.68</ele>
        <time>2021-08-19T18:41:14Z</time>
      </trkpt>
      <trkpt lat="43.10035" lon="-0.17557">
        <ele>334.68</ele>
        <time>2021-08-19T18:41:15Z</time>
      </trkpt>
      <trkpt lat="43.10036" lon="-0.1756">
        <ele>334.68</ele>
        <time>2021-08-19T18:41:16Z</time>
      </trkpt>
      <trkpt lat="43.10035" lon="-0.17583">
        <ele>335.64</ele>
        <time>2021-08-19T18:41:23Z</time>
      </trkpt>
      <trkpt lat="43.1003" lon="-0.17624">
        <ele>337.08</ele>
        <time>2021-08-19T18:41:34Z</time>
      </trkpt>
      <trkpt lat="43.10022" lon="-0.17661">
        <ele>337.56</ele>
        <time>2021-08-19T18:41:43Z</time>
      </trkpt>
      <trkpt lat="43.10022" lon="-0.17695">
        <ele>338.04</ele>
        <time>2021-08-19T18:41:50Z</time>
      </trkpt>
      <trkpt lat="43.10032" lon="-0.17726">
        <ele>338.52</ele>
        <time>2021-08-19T18:41:56Z</time>
      </trkpt>
      <trkpt lat="43.10054" lon="-0.17785">
        <ele>339</ele>
        <time>2021-08-19T18:42:07Z</time>
      </trkpt>
      <trkpt lat="43.10055" lon="-0.1779">
        <ele>339</ele>
        <time>2021-08-19T18:42:08Z</time>
      </trkpt>
      <trkpt lat="43.10056" lon="-0.17796">
        <ele>339</ele>
        <time>2021-08-19T18:42:09Z</time>
      </trkpt>
      <trkpt lat="43.10062" lon="-0.17844">
        <ele>340.44</ele>
        <time>2021-08-19T18:42:18Z</time>
      </trkpt>
      <trkpt lat="43.10069" lon="-0.17883">
        <ele>340.92</ele>
        <time>2021-08-19T18:42:25Z</time>
      </trkpt>
      <trkpt lat="43.10083" lon="-0.17923">
        <ele>341.41</ele>
        <time>2021-08-19T18:42:33Z</time>
      </trkpt>
      <trkpt lat="43.10101" lon="-0.17965">
        <ele>341.41</ele>
        <time>2021-08-19T18:42:41Z</time>
      </trkpt>
      <trkpt lat="43.1012" lon="-0.18007">
        <ele>338.04</ele>
        <time>2021-08-19T18:42:47Z</time>
      </trkpt>
      <trkpt lat="43.10142" lon="-0.18043">
        <ele>333.71</ele>
        <time>2021-08-19T18:42:51Z</time>
      </trkpt>
      <trkpt lat="43.1019" lon="-0.18106">
        <ele>330.83</ele>
        <time>2021-08-19T18:42:58Z</time>
      </trkpt>
      <trkpt lat="43.10224" lon="-0.18159">
        <ele>329.87</ele>
        <time>2021-08-19T18:43:04Z</time>
      </trkpt>
      <trkpt lat="43.10232" lon="-0.18179">
        <ele>329.39</ele>
        <time>2021-08-19T18:43:06Z</time>
      </trkpt>
      <trkpt lat="43.10235" lon="-0.1819">
        <ele>329.39</ele>
        <time>2021-08-19T18:43:07Z</time>
      </trkpt>
      <trkpt lat="43.10238" lon="-0.18201">
        <ele>328.91</ele>
        <time>2021-08-19T18:43:08Z</time>
      </trkpt>
      <trkpt lat="43.10242" lon="-0.18269">
        <ele>327.47</ele>
        <time>2021-08-19T18:43:14Z</time>
      </trkpt>
      <trkpt lat="43.10242" lon="-0.18292">
        <ele>326.99</ele>
        <time>2021-08-19T18:43:16Z</time>
      </trkpt>
      <trkpt lat="43.1024" lon="-0.18381">
        <ele>325.54</ele>
        <time>2021-08-19T18:43:24Z</time>
      </trkpt>
      <trkpt lat="43.10238" lon="-0.1842">
        <ele>325.54</ele>
        <time>2021-08-19T18:43:28Z</time>
      </trkpt>
      <trkpt lat="43.10237" lon="-0.18437">
        <ele>326.99</ele>
        <time>2021-08-19T18:43:30Z</time>
      </trkpt>
      <trkpt lat="43.10234" lon="-0.18489">
        <ele>327.95</ele>
        <time>2021-08-19T18:43:37Z</time>
      </trkpt>
      <trkpt lat="43.10234" lon="-0.185">
        <ele>327.95</ele>
        <time>2021-08-19T18:43:40Z</time>
      </trkpt>
      <trkpt lat="43.10234" lon="-0.18499">
        <ele>328.43</ele>
        <time>2021-08-19T18:43:47Z</time>
      </trkpt>
      <trkpt lat="43.10238" lon="-0.18498">
        <ele>327.95</ele>
        <time>2021-08-19T18:43:59Z</time>
      </trkpt>
      <trkpt lat="43.10236" lon="-0.18496">
        <ele>327.95</ele>
        <time>2021-08-19T18:44:16Z</time>
      </trkpt>
      <trkpt lat="43.10236" lon="-0.18498">
        <ele>327.95</ele>
        <time>2021-08-19T18:44:31Z</time>
      </trkpt>
      <trkpt lat="43.10236" lon="-0.18498">
        <ele>327.95</ele>
        <time>2021-08-19T18:44:44Z</time>
      </trkpt>
      <trkpt lat="43.10235" lon="-0.18497">
        <ele>327.95</ele>
        <time>2021-08-19T18:44:56Z</time>
      </trkpt>
      <trkpt lat="43.10233" lon="-0.18504">
        <ele>327.95</ele>
        <time>2021-08-19T18:45:08Z</time>
      </trkpt>
      <trkpt lat="43.1023" lon="-0.18525">
        <ele>327.95</ele>
        <time>2021-08-19T18:45:13Z</time>
      </trkpt>
      <trkpt lat="43.10222" lon="-0.18575">
        <ele>326.5</ele>
        <time>2021-08-19T18:45:21Z</time>
      </trkpt>
      <trkpt lat="43.1023" lon="-0.18636">
        <ele>326.02</ele>
        <time>2021-08-19T18:45:29Z</time>
      </trkpt>
      <trkpt lat="43.10253" lon="-0.18712">
        <ele>324.58</ele>
        <time>2021-08-19T18:45:39Z</time>
      </trkpt>
      <trkpt lat="43.10277" lon="-0.18774">
        <ele>324.58</ele>
        <time>2021-08-19T18:45:48Z</time>
      </trkpt>
      <trkpt lat="43.10304" lon="-0.18819">
        <ele>324.58</ele>
        <time>2021-08-19T18:45:56Z</time>
      </trkpt>
      <trkpt lat="43.1031" lon="-0.18829">
        <ele>324.58</ele>
        <time>2021-08-19T18:45:58Z</time>
      </trkpt>
      <trkpt lat="43.10329" lon="-0.18862">
        <ele>324.1</ele>
        <time>2021-08-19T18:46:05Z</time>
      </trkpt>
      <trkpt lat="43.10339" lon="-0.18879">
        <ele>323.62</ele>
        <time>2021-08-19T18:46:08Z</time>
      </trkpt>
      <trkpt lat="43.10347" lon="-0.1889">
        <ele>323.62</ele>
        <time>2021-08-19T18:46:10Z</time>
      </trkpt>
      <trkpt lat="43.10387" lon="-0.18931">
        <ele>322.66</ele>
        <time>2021-08-19T18:46:18Z</time>
      </trkpt>
      <trkpt lat="43.10413" lon="-0.18963">
        <ele>322.66</ele>
        <time>2021-08-19T18:46:24Z</time>
      </trkpt>
      <trkpt lat="43.10418" lon="-0.18975">
        <ele>322.66</ele>
        <time>2021-08-19T18:46:26Z</time>
      </trkpt>
      <trkpt lat="43.10419" lon="-0.18981">
        <ele>322.66</ele>
        <time>2021-08-19T18:46:27Z</time>
      </trkpt>
      <trkpt lat="43.10422" lon="-0.18993">
        <ele>324.1</ele>
        <time>2021-08-19T18:46:29Z</time>
      </trkpt>
      <trkpt lat="43.10441" lon="-0.19046">
        <ele>324.1</ele>
        <time>2021-08-19T18:46:37Z</time>
      </trkpt>
      <trkpt lat="43.10465" lon="-0.19091">
        <ele>322.18</ele>
        <time>2021-08-19T18:46:44Z</time>
      </trkpt>
      <trkpt lat="43.10474" lon="-0.19112">
        <ele>322.18</ele>
        <time>2021-08-19T18:46:47Z</time>
      </trkpt>
      <trkpt lat="43.10476" lon="-0.19119">
        <ele>322.18</ele>
        <time>2021-08-19T18:46:48Z</time>
      </trkpt>
      <trkpt lat="43.10477" lon="-0.19126">
        <ele>322.18</ele>
        <time>2021-08-19T18:46:49Z</time>
      </trkpt>
      <trkpt lat="43.1048" lon="-0.19144">
        <ele>324.1</ele>
        <time>2021-08-19T18:46:52Z</time>
      </trkpt>
      <trkpt lat="43.10489" lon="-0.19176">
        <ele>325.06</ele>
        <time>2021-08-19T18:46:59Z</time>
      </trkpt>
      <trkpt lat="43.10495" lon="-0.19184">
        <ele>325.06</ele>
        <time>2021-08-19T18:47:01Z</time>
      </trkpt>
      <trkpt lat="43.10498" lon="-0.19188">
        <ele>325.06</ele>
        <time>2021-08-19T18:47:02Z</time>
      </trkpt>
      <trkpt lat="43.10502" lon="-0.19192">
        <ele>325.06</ele>
        <time>2021-08-19T18:47:03Z</time>
      </trkpt>
      <trkpt lat="43.10506" lon="-0.19194">
        <ele>325.06</ele>
        <time>2021-08-19T18:47:04Z</time>
      </trkpt>
      <trkpt lat="43.10511" lon="-0.19197">
        <ele>325.06</ele>
        <time>2021-08-19T18:47:05Z</time>
      </trkpt>
      <trkpt lat="43.10515" lon="-0.19199">
        <ele>325.06</ele>
        <time>2021-08-19T18:47:06Z</time>
      </trkpt>
      <trkpt lat="43.10525" lon="-0.19202">
        <ele>325.06</ele>
        <time>2021-08-19T18:47:08Z</time>
      </trkpt>
      <trkpt lat="43.10547" lon="-0.19209">
        <ele>323.62</ele>
        <time>2021-08-19T18:47:12Z</time>
      </trkpt>
      <trkpt lat="43.10586" lon="-0.19218">
        <ele>323.14</ele>
        <time>2021-08-19T18:47:19Z</time>
      </trkpt>
      <trkpt lat="43.10625" lon="-0.19225">
        <ele>322.18</ele>
        <time>2021-08-19T18:47:26Z</time>
      </trkpt>
      <trkpt lat="43.10638" lon="-0.19224">
        <ele>322.66</ele>
        <time>2021-08-19T18:47:28Z</time>
      </trkpt>
      <trkpt lat="43.10701" lon="-0.19224">
        <ele>322.18</ele>
        <time>2021-08-19T18:47:38Z</time>
      </trkpt>
      <trkpt lat="43.10755" lon="-0.19227">
        <ele>321.7</ele>
        <time>2021-08-19T18:47:47Z</time>
      </trkpt>
      <trkpt lat="43.10805" lon="-0.19229">
        <ele>321.7</ele>
        <time>2021-08-19T18:47:56Z</time>
      </trkpt>
      <trkpt lat="43.1081" lon="-0.1923">
        <ele>321.7</ele>
        <time>2021-08-19T18:47:57Z</time>
      </trkpt>
      <trkpt lat="43.10815" lon="-0.19233">
        <ele>321.7</ele>
        <time>2021-08-19T18:47:58Z</time>
      </trkpt>
      <trkpt lat="43.1082" lon="-0.19237">
        <ele>323.14</ele>
        <time>2021-08-19T18:47:59Z</time>
      </trkpt>
      <trkpt lat="43.10824" lon="-0.19241">
        <ele>323.62</ele>
        <time>2021-08-19T18:48:00Z</time>
      </trkpt>
      <trkpt lat="43.10828" lon="-0.19247">
        <ele>323.62</ele>
        <time>2021-08-19T18:48:01Z</time>
      </trkpt>
      <trkpt lat="43.10831" lon="-0.19252">
        <ele>323.62</ele>
        <time>2021-08-19T18:48:02Z</time>
      </trkpt>
      <trkpt lat="43.10843" lon="-0.19269">
        <ele>324.1</ele>
        <time>2021-08-19T18:48:05Z</time>
      </trkpt>
      <trkpt lat="43.10847" lon="-0.19272">
        <ele>325.06</ele>
        <time>2021-08-19T18:48:06Z</time>
      </trkpt>
      <trkpt lat="43.10851" lon="-0.19275">
        <ele>325.06</ele>
        <time>2021-08-19T18:48:07Z</time>
      </trkpt>
      <trkpt lat="43.10856" lon="-0.19277">
        <ele>324.58</ele>
        <time>2021-08-19T18:48:08Z</time>
      </trkpt>
      <trkpt lat="43.1086" lon="-0.19278">
        <ele>325.06</ele>
        <time>2021-08-19T18:48:09Z</time>
      </trkpt>
      <trkpt lat="43.10864" lon="-0.1928">
        <ele>325.54</ele>
        <time>2021-08-19T18:48:10Z</time>
      </trkpt>
      <trkpt lat="43.10904" lon="-0.19291">
        <ele>326.02</ele>
        <time>2021-08-19T18:48:19Z</time>
      </trkpt>
      <trkpt lat="43.10952" lon="-0.19303">
        <ele>326.5</ele>
        <time>2021-08-19T18:48:29Z</time>
      </trkpt>
      <trkpt lat="43.11006" lon="-0.19317">
        <ele>326.5</ele>
        <time>2021-08-19T18:48:39Z</time>
      </trkpt>
      <trkpt lat="43.11071" lon="-0.19331">
        <ele>325.06</ele>
        <time>2021-08-19T18:48:50Z</time>
      </trkpt>
      <trkpt lat="43.1115" lon="-0.19341">
        <ele>324.58</ele>
        <time>2021-08-19T18:49:02Z</time>
      </trkpt>
      <trkpt lat="43.11211" lon="-0.19355">
        <ele>323.62</ele>
        <time>2021-08-19T18:49:11Z</time>
      </trkpt>
      <trkpt lat="43.11217" lon="-0.19358">
        <ele>323.62</ele>
        <time>2021-08-19T18:49:12Z</time>
      </trkpt>
      <trkpt lat="43.11223" lon="-0.19362">
        <ele>323.62</ele>
        <time>2021-08-19T18:49:13Z</time>
      </trkpt>
      <trkpt lat="43.11263" lon="-0.19398">
        <ele>322.66</ele>
        <time>2021-08-19T18:49:20Z</time>
      </trkpt>
      <trkpt lat="43.11312" lon="-0.19444">
        <ele>322.18</ele>
        <time>2021-08-19T18:49:29Z</time>
      </trkpt>
      <trkpt lat="43.11365" lon="-0.19473">
        <ele>321.7</ele>
        <time>2021-08-19T18:49:38Z</time>
      </trkpt>
      <trkpt lat="43.11422" lon="-0.19493">
        <ele>319.3</ele>
        <time>2021-08-19T18:49:46Z</time>
      </trkpt>
      <trkpt lat="43.11492" lon="-0.19517">
        <ele>319.3</ele>
        <time>2021-08-19T18:49:56Z</time>
      </trkpt>
      <trkpt lat="43.11538" lon="-0.19532">
        <ele>319.3</ele>
        <time>2021-08-19T18:50:04Z</time>
      </trkpt>
      <trkpt lat="43.11592" lon="-0.19554">
        <ele>318.81</ele>
        <time>2021-08-19T18:50:13Z</time>
      </trkpt>
      <trkpt lat="43.11598" lon="-0.19558">
        <ele>318.81</ele>
        <time>2021-08-19T18:50:14Z</time>
      </trkpt>
      <trkpt lat="43.11641" lon="-0.19603">
        <ele>318.81</ele>
        <time>2021-08-19T18:50:22Z</time>
      </trkpt>
      <trkpt lat="43.11675" lon="-0.19657">
        <ele>318.81</ele>
        <time>2021-08-19T18:50:31Z</time>
      </trkpt>
      <trkpt lat="43.11715" lon="-0.19719">
        <ele>318.33</ele>
        <time>2021-08-19T18:50:41Z</time>
      </trkpt>
      <trkpt lat="43.11759" lon="-0.19784">
        <ele>318.33</ele>
        <time>2021-08-19T18:50:51Z</time>
      </trkpt>
      <trkpt lat="43.11801" lon="-0.19838">
        <ele>317.85</ele>
        <time>2021-08-19T18:51:00Z</time>
      </trkpt>
      <trkpt lat="43.11823" lon="-0.19879">
        <ele>317.37</ele>
        <time>2021-08-19T18:51:06Z</time>
      </trkpt>
      <trkpt lat="43.11828" lon="-0.19894">
        <ele>316.89</ele>
        <time>2021-08-19T18:51:08Z</time>
      </trkpt>
      <trkpt lat="43.11829" lon="-0.19903">
        <ele>315.93</ele>
        <time>2021-08-19T18:51:09Z</time>
      </trkpt>
      <trkpt lat="43.11832" lon="-0.19911">
        <ele>315.93</ele>
        <time>2021-08-19T18:51:10Z</time>
      </trkpt>
      <trkpt lat="43.11846" lon="-0.1996">
        <ele>315.45</ele>
        <time>2021-08-19T18:51:16Z</time>
      </trkpt>
      <trkpt lat="43.11853" lon="-0.20012">
        <ele>312.09</ele>
        <time>2021-08-19T18:51:21Z</time>
      </trkpt>
      <trkpt lat="43.11863" lon="-0.20053">
        <ele>311.6</ele>
        <time>2021-08-19T18:51:25Z</time>
      </trkpt>
      <trkpt lat="43.11866" lon="-0.20062">
        <ele>311.6</ele>
        <time>2021-08-19T18:51:26Z</time>
      </trkpt>
      <trkpt lat="43.11878" lon="-0.20093">
        <ele>309.68</ele>
        <time>2021-08-19T18:51:29Z</time>
      </trkpt>
      <trkpt lat="43.11897" lon="-0.20173">
        <ele>309.68</ele>
        <time>2021-08-19T18:51:37Z</time>
      </trkpt>
      <trkpt lat="43.11903" lon="-0.20198">
        <ele>311.6</ele>
        <time>2021-08-19T18:51:40Z</time>
      </trkpt>
      <trkpt lat="43.11905" lon="-0.20205">
        <ele>311.6</ele>
        <time>2021-08-19T18:51:41Z</time>
      </trkpt>
      <trkpt lat="43.11908" lon="-0.20212">
        <ele>312.09</ele>
        <time>2021-08-19T18:51:42Z</time>
      </trkpt>
      <trkpt lat="43.11925" lon="-0.20254">
        <ele>313.05</ele>
        <time>2021-08-19T18:51:49Z</time>
      </trkpt>
      <trkpt lat="43.11945" lon="-0.20292">
        <ele>313.05</ele>
        <time>2021-08-19T18:51:55Z</time>
      </trkpt>
      <trkpt lat="43.1195" lon="-0.20297">
        <ele>312.09</ele>
        <time>2021-08-19T18:51:56Z</time>
      </trkpt>
      <trkpt lat="43.11955" lon="-0.20302">
        <ele>312.09</ele>
        <time>2021-08-19T18:51:57Z</time>
      </trkpt>
      <trkpt lat="43.1196" lon="-0.20307">
        <ele>312.09</ele>
        <time>2021-08-19T18:51:58Z</time>
      </trkpt>
      <trkpt lat="43.11965" lon="-0.2031">
        <ele>312.09</ele>
        <time>2021-08-19T18:51:59Z</time>
      </trkpt>
      <trkpt lat="43.1197" lon="-0.20313">
        <ele>312.09</ele>
        <time>2021-08-19T18:52:00Z</time>
      </trkpt>
      <trkpt lat="43.11979" lon="-0.20319">
        <ele>312.09</ele>
        <time>2021-08-19T18:52:02Z</time>
      </trkpt>
      <trkpt lat="43.11983" lon="-0.20322">
        <ele>312.09</ele>
        <time>2021-08-19T18:52:03Z</time>
      </trkpt>
      <trkpt lat="43.12012" lon="-0.20356">
        <ele>313.05</ele>
        <time>2021-08-19T18:52:10Z</time>
      </trkpt>
      <trkpt lat="43.1202" lon="-0.20366">
        <ele>313.05</ele>
        <time>2021-08-19T18:52:12Z</time>
      </trkpt>
      <trkpt lat="43.12024" lon="-0.20371">
        <ele>313.05</ele>
        <time>2021-08-19T18:52:13Z</time>
      </trkpt>
      <trkpt lat="43.12054" lon="-0.20407">
        <ele>313.53</ele>
        <time>2021-08-19T18:52:20Z</time>
      </trkpt>
      <trkpt lat="43.12065" lon="-0.20425">
        <ele>314.49</ele>
        <time>2021-08-19T18:52:24Z</time>
      </trkpt>
      <trkpt lat="43.12069" lon="-0.20429">
        <ele>314.49</ele>
        <time>2021-08-19T18:52:25Z</time>
      </trkpt>
      <trkpt lat="43.12071" lon="-0.20432">
        <ele>314.49</ele>
        <time>2021-08-19T18:52:26Z</time>
      </trkpt>
      <trkpt lat="43.12074" lon="-0.20435">
        <ele>314.49</ele>
        <time>2021-08-19T18:52:27Z</time>
      </trkpt>
      <trkpt lat="43.12077" lon="-0.20438">
        <ele>314.49</ele>
        <time>2021-08-19T18:52:28Z</time>
      </trkpt>
      <trkpt lat="43.12081" lon="-0.20441">
        <ele>314.49</ele>
        <time>2021-08-19T18:52:29Z</time>
      </trkpt>
      <trkpt lat="43.12085" lon="-0.20445">
        <ele>314.49</ele>
        <time>2021-08-19T18:52:30Z</time>
      </trkpt>
      <trkpt lat="43.12088" lon="-0.20448">
        <ele>314.49</ele>
        <time>2021-08-19T18:52:31Z</time>
      </trkpt>
      <trkpt lat="43.12122" lon="-0.20481">
        <ele>314.01</ele>
        <time>2021-08-19T18:52:39Z</time>
      </trkpt>
      <trkpt lat="43.12146" lon="-0.2051">
        <ele>314.01</ele>
        <time>2021-08-19T18:52:45Z</time>
      </trkpt>
      <trkpt lat="43.1217" lon="-0.20537">
        <ele>314.01</ele>
        <time>2021-08-19T18:52:51Z</time>
      </trkpt>
      <trkpt lat="43.12196" lon="-0.20574">
        <ele>314.49</ele>
        <time>2021-08-19T18:52:59Z</time>
      </trkpt>
      <trkpt lat="43.12226" lon="-0.20614">
        <ele>311.6</ele>
        <time>2021-08-19T18:53:06Z</time>
      </trkpt>
      <trkpt lat="43.12259" lon="-0.20655">
        <ele>310.64</ele>
        <time>2021-08-19T18:53:13Z</time>
      </trkpt>
      <trkpt lat="43.12267" lon="-0.20663">
        <ele>310.64</ele>
        <time>2021-08-19T18:53:15Z</time>
      </trkpt>
      <trkpt lat="43.12276" lon="-0.20674">
        <ele>312.09</ele>
        <time>2021-08-19T18:53:18Z</time>
      </trkpt>
      <trkpt lat="43.12291" lon="-0.20691">
        <ele>312.57</ele>
        <time>2021-08-19T18:53:24Z</time>
      </trkpt>
      <trkpt lat="43.12306" lon="-0.20707">
        <ele>311.12</ele>
        <time>2021-08-19T18:53:29Z</time>
      </trkpt>
      <trkpt lat="43.12312" lon="-0.20711">
        <ele>310.16</ele>
        <time>2021-08-19T18:53:30Z</time>
      </trkpt>
      <trkpt lat="43.12318" lon="-0.20714">
        <ele>309.68</ele>
        <time>2021-08-19T18:53:31Z</time>
      </trkpt>
      <trkpt lat="43.12337" lon="-0.2072">
        <ele>308.24</ele>
        <time>2021-08-19T18:53:34Z</time>
      </trkpt>
      <trkpt lat="43.12384" lon="-0.20724">
        <ele>308.24</ele>
        <time>2021-08-19T18:53:42Z</time>
      </trkpt>
      <trkpt lat="43.12397" lon="-0.20726">
        <ele>308.24</ele>
        <time>2021-08-19T18:53:45Z</time>
      </trkpt>
      <trkpt lat="43.12405" lon="-0.2073">
        <ele>309.2</ele>
        <time>2021-08-19T18:53:47Z</time>
      </trkpt>
      <trkpt lat="43.12417" lon="-0.20737">
        <ele>309.2</ele>
        <time>2021-08-19T18:53:50Z</time>
      </trkpt>
      <trkpt lat="43.12441" lon="-0.20745">
        <ele>309.2</ele>
        <time>2021-08-19T18:53:56Z</time>
      </trkpt>
      <trkpt lat="43.12445" lon="-0.20745">
        <ele>309.2</ele>
        <time>2021-08-19T18:53:57Z</time>
      </trkpt>
      <trkpt lat="43.12471" lon="-0.20749">
        <ele>310.16</ele>
        <time>2021-08-19T18:54:05Z</time>
      </trkpt>
      <trkpt lat="43.1249" lon="-0.20749">
        <ele>310.16</ele>
        <time>2021-08-19T18:54:14Z</time>
      </trkpt>
      <trkpt lat="43.12496" lon="-0.20751">
        <ele>310.64</ele>
        <time>2021-08-19T18:54:17Z</time>
      </trkpt>
      <trkpt lat="43.12497" lon="-0.20753">
        <ele>310.64</ele>
        <time>2021-08-19T18:54:18Z</time>
      </trkpt>
      <trkpt lat="43.12496" lon="-0.20755">
        <ele>310.64</ele>
        <time>2021-08-19T18:54:19Z</time>
      </trkpt>
      <trkpt lat="43.12494" lon="-0.20755">
        <ele>311.12</ele>
        <time>2021-08-19T18:54:22Z</time>
      </trkpt>
      <trkpt lat="43.12492" lon="-0.20754">
        <ele>311.6</ele>
        <time>2021-08-19T18:54:29Z</time>
      </trkpt>
      <trkpt lat="43.12492" lon="-0.20752">
        <ele>311.6</ele>
        <time>2021-08-19T18:54:44Z</time>
      </trkpt>
      <trkpt lat="43.12491" lon="-0.20748">
        <ele>311.6</ele>
        <time>2021-08-19T18:55:00Z</time>
      </trkpt>
      <trkpt lat="43.12491" lon="-0.20742">
        <ele>311.6</ele>
        <time>2021-08-19T18:55:17Z</time>
      </trkpt>
      <trkpt lat="43.12494" lon="-0.20744">
        <ele>311.6</ele>
        <time>2021-08-19T18:55:25Z</time>
      </trkpt>
      <trkpt lat="43.12495" lon="-0.20745">
        <ele>311.6</ele>
        <time>2021-08-19T18:55:26Z</time>
      </trkpt>
      <trkpt lat="43.12497" lon="-0.20748">
        <ele>311.6</ele>
        <time>2021-08-19T18:55:27Z</time>
      </trkpt>
      <trkpt lat="43.12499" lon="-0.20749">
        <ele>311.6</ele>
        <time>2021-08-19T18:55:28Z</time>
      </trkpt>
      <trkpt lat="43.12501" lon="-0.20748">
        <ele>311.6</ele>
        <time>2021-08-19T18:55:29Z</time>
      </trkpt>
      <trkpt lat="43.12504" lon="-0.20745">
        <ele>311.6</ele>
        <time>2021-08-19T18:55:30Z</time>
      </trkpt>
      <trkpt lat="43.12506" lon="-0.20744">
        <ele>311.6</ele>
        <time>2021-08-19T18:55:31Z</time>
      </trkpt>
      <trkpt lat="43.12509" lon="-0.20743">
        <ele>311.6</ele>
        <time>2021-08-19T18:55:32Z</time>
      </trkpt>
      <trkpt lat="43.12525" lon="-0.20734">
        <ele>311.6</ele>
        <time>2021-08-19T18:55:39Z</time>
      </trkpt>
      <trkpt lat="43.12527" lon="-0.20735">
        <ele>311.6</ele>
        <time>2021-08-19T18:55:40Z</time>
      </trkpt>
      <trkpt lat="43.12528" lon="-0.20736">
        <ele>311.6</ele>
        <time>2021-08-19T18:55:41Z</time>
      </trkpt>
      <trkpt lat="43.12526" lon="-0.20741">
        <ele>311.6</ele>
        <time>2021-08-19T18:55:44Z</time>
      </trkpt>
      <trkpt lat="43.12523" lon="-0.20742">
        <ele>311.6</ele>
        <time>2021-08-19T18:55:45Z</time>
      </trkpt>
      <trkpt lat="43.1252" lon="-0.20742">
        <ele>311.6</ele>
        <time>2021-08-19T18:55:46Z</time>
      </trkpt>
      <trkpt lat="43.12516" lon="-0.20742">
        <ele>310.16</ele>
        <time>2021-08-19T18:55:47Z</time>
      </trkpt>
      <trkpt lat="43.12513" lon="-0.20743">
        <ele>310.16</ele>
        <time>2021-08-19T18:55:48Z</time>
      </trkpt>
      <trkpt lat="43.12497" lon="-0.20744">
        <ele>310.16</ele>
        <time>2021-08-19T18:55:53Z</time>
      </trkpt>
      <trkpt lat="43.12492" lon="-0.20742">
        <ele>310.16</ele>
        <time>2021-08-19T18:55:55Z</time>
      </trkpt>
      <trkpt lat="43.12491" lon="-0.2074">
        <ele>310.16</ele>
        <time>2021-08-19T18:55:56Z</time>
      </trkpt>
      <trkpt lat="43.12491" lon="-0.20738">
        <ele>310.16</ele>
        <time>2021-08-19T18:55:57Z</time>
      </trkpt>
      <trkpt lat="43.12492" lon="-0.20736">
        <ele>310.16</ele>
        <time>2021-08-19T18:55:58Z</time>
      </trkpt>
      <trkpt lat="43.12494" lon="-0.20733">
        <ele>310.16</ele>
        <time>2021-08-19T18:56:04Z</time>
      </trkpt>
      <trkpt lat="43.12497" lon="-0.20733">
        <ele>309.2</ele>
        <time>2021-08-19T18:56:09Z</time>
      </trkpt>
      <trkpt lat="43.125" lon="-0.2073">
        <ele>307.76</ele>
        <time>2021-08-19T18:56:16Z</time>
      </trkpt>
      <trkpt lat="43.125" lon="-0.20729">
        <ele>307.76</ele>
        <time>2021-08-19T18:56:20Z</time>
      </trkpt>
      <trkpt lat="43.12501" lon="-0.20728">
        <ele>307.76</ele>
        <time>2021-08-19T18:56:21Z</time>
      </trkpt>
      <trkpt lat="43.12503" lon="-0.20728">
        <ele>307.28</ele>
        <time>2021-08-19T18:56:22Z</time>
      </trkpt>
      <trkpt lat="43.12505" lon="-0.20727">
        <ele>307.28</ele>
        <time>2021-08-19T18:56:23Z</time>
      </trkpt>
      <trkpt lat="43.12508" lon="-0.20727">
        <ele>307.28</ele>
        <time>2021-08-19T18:56:24Z</time>
      </trkpt>
      <trkpt lat="43.12511" lon="-0.20726">
        <ele>307.28</ele>
        <time>2021-08-19T18:56:25Z</time>
      </trkpt>
      <trkpt lat="43.12514" lon="-0.20724">
        <ele>307.28</ele>
        <time>2021-08-19T18:56:26Z</time>
      </trkpt>
      <trkpt lat="43.12517" lon="-0.20723">
        <ele>307.28</ele>
        <time>2021-08-19T18:56:27Z</time>
      </trkpt>
      <trkpt lat="43.12534" lon="-0.20717">
        <ele>306.32</ele>
        <time>2021-08-19T18:56:32Z</time>
      </trkpt>
      <trkpt lat="43.12538" lon="-0.20717">
        <ele>305.84</ele>
        <time>2021-08-19T18:56:33Z</time>
      </trkpt>
      <trkpt lat="43.12543" lon="-0.20717">
        <ele>305.84</ele>
        <time>2021-08-19T18:56:34Z</time>
      </trkpt>
      <trkpt lat="43.12547" lon="-0.20716">
        <ele>305.84</ele>
        <time>2021-08-19T18:56:35Z</time>
      </trkpt>
      <trkpt lat="43.12551" lon="-0.20716">
        <ele>305.84</ele>
        <time>2021-08-19T18:56:36Z</time>
      </trkpt>
      <trkpt lat="43.12554" lon="-0.20716">
        <ele>305.84</ele>
        <time>2021-08-19T18:56:37Z</time>
      </trkpt>
      <trkpt lat="43.12581" lon="-0.20716">
        <ele>305.84</ele>
        <time>2021-08-19T18:56:44Z</time>
      </trkpt>
      <trkpt lat="43.12605" lon="-0.20717">
        <ele>305.84</ele>
        <time>2021-08-19T18:56:50Z</time>
      </trkpt>
      <trkpt lat="43.12632" lon="-0.20717">
        <ele>305.84</ele>
        <time>2021-08-19T18:56:57Z</time>
      </trkpt>
      <trkpt lat="43.12643" lon="-0.20718">
        <ele>306.8</ele>
        <time>2021-08-19T18:57:01Z</time>
      </trkpt>
      <trkpt lat="43.12666" lon="-0.20717">
        <ele>306.8</ele>
        <time>2021-08-19T18:57:09Z</time>
      </trkpt>
      <trkpt lat="43.12674" lon="-0.20716">
        <ele>306.8</ele>
        <time>2021-08-19T18:57:14Z</time>
      </trkpt>
      <trkpt lat="43.12676" lon="-0.20716">
        <ele>306.8</ele>
        <time>2021-08-19T18:57:20Z</time>
      </trkpt>
      <trkpt lat="43.12675" lon="-0.20719">
        <ele>306.8</ele>
        <time>2021-08-19T18:57:39Z</time>
      </trkpt>
      <trkpt lat="43.12674" lon="-0.20725">
        <ele>306.8</ele>
        <time>2021-08-19T18:57:58Z</time>
      </trkpt>
      <trkpt lat="43.12673" lon="-0.20725">
        <ele>306.8</ele>
        <time>2021-08-19T18:57:59Z</time>
      </trkpt>
      <trkpt lat="43.12673" lon="-0.20722">
        <ele>306.8</ele>
        <time>2021-08-19T18:58:04Z</time>
      </trkpt>
      <trkpt lat="43.12663" lon="-0.20721">
        <ele>306.8</ele>
        <time>2021-08-19T18:58:10Z</time>
      </trkpt>
      <trkpt lat="43.12645" lon="-0.20722">
        <ele>306.8</ele>
        <time>2021-08-19T18:58:17Z</time>
      </trkpt>
      <trkpt lat="43.12641" lon="-0.20724">
        <ele>306.8</ele>
        <time>2021-08-19T18:58:20Z</time>
      </trkpt>
      <trkpt lat="43.12639" lon="-0.20723">
        <ele>306.8</ele>
        <time>2021-08-19T18:58:21Z</time>
      </trkpt>
      <trkpt lat="43.12638" lon="-0.20721">
        <ele>306.8</ele>
        <time>2021-08-19T18:58:22Z</time>
      </trkpt>
      <trkpt lat="43.12635" lon="-0.20717">
        <ele>306.8</ele>
        <time>2021-08-19T18:58:24Z</time>
      </trkpt>
      <trkpt lat="43.12633" lon="-0.20715">
        <ele>306.8</ele>
        <time>2021-08-19T18:58:25Z</time>
      </trkpt>
      <trkpt lat="43.12634" lon="-0.20705">
        <ele>305.84</ele>
        <time>2021-08-19T18:58:28Z</time>
      </trkpt>
      <trkpt lat="43.12636" lon="-0.20701">
        <ele>305.84</ele>
        <time>2021-08-19T18:58:29Z</time>
      </trkpt>
      <trkpt lat="43.12639" lon="-0.20699">
        <ele>305.84</ele>
        <time>2021-08-19T18:58:30Z</time>
      </trkpt>
      <trkpt lat="43.12642" lon="-0.20697">
        <ele>305.36</ele>
        <time>2021-08-19T18:58:31Z</time>
      </trkpt>
      <trkpt lat="43.12646" lon="-0.20695">
        <ele>305.36</ele>
        <time>2021-08-19T18:58:32Z</time>
      </trkpt>
      <trkpt lat="43.12649" lon="-0.20694">
        <ele>305.36</ele>
        <time>2021-08-19T18:58:33Z</time>
      </trkpt>
      <trkpt lat="43.12652" lon="-0.20692">
        <ele>305.36</ele>
        <time>2021-08-19T18:58:34Z</time>
      </trkpt>
      <trkpt lat="43.12653" lon="-0.20693">
        <ele>305.36</ele>
        <time>2021-08-19T18:58:38Z</time>
      </trkpt>
      <trkpt lat="43.12654" lon="-0.20696">
        <ele>305.36</ele>
        <time>2021-08-19T18:58:50Z</time>
      </trkpt>
      <trkpt lat="43.12652" lon="-0.20696">
        <ele>305.36</ele>
        <time>2021-08-19T18:59:08Z</time>
      </trkpt>
      <trkpt lat="43.12652" lon="-0.20694">
        <ele>304.88</ele>
        <time>2021-08-19T18:59:21Z</time>
      </trkpt>
      <trkpt lat="43.12654" lon="-0.20691">
        <ele>304.88</ele>
        <time>2021-08-19T18:59:36Z</time>
      </trkpt>
      <trkpt lat="43.12653" lon="-0.20691">
        <ele>304.88</ele>
        <time>2021-08-19T18:59:52Z</time>
      </trkpt>
      <trkpt lat="43.12655" lon="-0.20695">
        <ele>304.88</ele>
        <time>2021-08-19T19:00:10Z</time>
      </trkpt>
      <trkpt lat="43.12653" lon="-0.20694">
        <ele>304.88</ele>
        <time>2021-08-19T19:00:27Z</time>
      </trkpt>
      <trkpt lat="43.12652" lon="-0.20693">
        <ele>304.39</ele>
        <time>2021-08-19T19:00:45Z</time>
      </trkpt>
      <trkpt lat="43.12653" lon="-0.20694">
        <ele>304.39</ele>
        <time>2021-08-19T19:00:58Z</time>
      </trkpt>
      <trkpt lat="43.12655" lon="-0.20693">
        <ele>304.39</ele>
        <time>2021-08-19T19:01:12Z</time>
      </trkpt>
      <trkpt lat="43.12654" lon="-0.20695">
        <ele>304.39</ele>
        <time>2021-08-19T19:01:33Z</time>
      </trkpt>
      <trkpt lat="43.12657" lon="-0.2069">
        <ele>304.39</ele>
        <time>2021-08-19T19:01:41Z</time>
      </trkpt>
      <trkpt lat="43.1267" lon="-0.20679">
        <ele>303.91</ele>
        <time>2021-08-19T19:01:47Z</time>
      </trkpt>
      <trkpt lat="43.12692" lon="-0.20667">
        <ele>303.43</ele>
        <time>2021-08-19T19:01:54Z</time>
      </trkpt>
      <trkpt lat="43.12704" lon="-0.20659">
        <ele>303.43</ele>
        <time>2021-08-19T19:01:58Z</time>
      </trkpt>
      <trkpt lat="43.12721" lon="-0.20649">
        <ele>303.43</ele>
        <time>2021-08-19T19:02:03Z</time>
      </trkpt>
      <trkpt lat="43.12743" lon="-0.2064">
        <ele>303.43</ele>
        <time>2021-08-19T19:02:10Z</time>
      </trkpt>
      <trkpt lat="43.12763" lon="-0.20628">
        <ele>303.43</ele>
        <time>2021-08-19T19:02:16Z</time>
      </trkpt>
      <trkpt lat="43.12774" lon="-0.20622">
        <ele>303.43</ele>
        <time>2021-08-19T19:02:19Z</time>
      </trkpt>
      <trkpt lat="43.12786" lon="-0.20617">
        <ele>303.43</ele>
        <time>2021-08-19T19:02:22Z</time>
      </trkpt>
      <trkpt lat="43.1282" lon="-0.20599">
        <ele>303.43</ele>
        <time>2021-08-19T19:02:31Z</time>
      </trkpt>
      <trkpt lat="43.12839" lon="-0.20588">
        <ele>302.95</ele>
        <time>2021-08-19T19:02:36Z</time>
      </trkpt>
      <trkpt lat="43.12865" lon="-0.2057">
        <ele>302.95</ele>
        <time>2021-08-19T19:02:43Z</time>
      </trkpt>
      <trkpt lat="43.12891" lon="-0.20555">
        <ele>302.95</ele>
        <time>2021-08-19T19:02:50Z</time>
      </trkpt>
      <trkpt lat="43.12906" lon="-0.20548">
        <ele>302.95</ele>
        <time>2021-08-19T19:02:55Z</time>
      </trkpt>
      <trkpt lat="43.12927" lon="-0.20542">
        <ele>302.47</ele>
        <time>2021-08-19T19:03:01Z</time>
      </trkpt>
      <trkpt lat="43.12956" lon="-0.20537">
        <ele>302.47</ele>
        <time>2021-08-19T19:03:08Z</time>
      </trkpt>
      <trkpt lat="43.12979" lon="-0.20536">
        <ele>301.99</ele>
        <time>2021-08-19T19:03:13Z</time>
      </trkpt>
      <trkpt lat="43.13014" lon="-0.20555">
        <ele>301.99</ele>
        <time>2021-08-19T19:03:22Z</time>
      </trkpt>
      <trkpt lat="43.13037" lon="-0.20569">
        <ele>301.51</ele>
        <time>2021-08-19T19:03:27Z</time>
      </trkpt>
      <trkpt lat="43.13058" lon="-0.20596">
        <ele>301.51</ele>
        <time>2021-08-19T19:03:34Z</time>
      </trkpt>
      <trkpt lat="43.13075" lon="-0.20623">
        <ele>301.51</ele>
        <time>2021-08-19T19:03:41Z</time>
      </trkpt>
      <trkpt lat="43.13088" lon="-0.20637">
        <ele>301.51</ele>
        <time>2021-08-19T19:03:45Z</time>
      </trkpt>
      <trkpt lat="43.13095" lon="-0.20643">
        <ele>301.51</ele>
        <time>2021-08-19T19:03:47Z</time>
      </trkpt>
      <trkpt lat="43.13105" lon="-0.20653">
        <ele>301.51</ele>
        <time>2021-08-19T19:03:50Z</time>
      </trkpt>
      <trkpt lat="43.13108" lon="-0.20656">
        <ele>301.51</ele>
        <time>2021-08-19T19:03:51Z</time>
      </trkpt>
      <trkpt lat="43.1311" lon="-0.2066">
        <ele>301.51</ele>
        <time>2021-08-19T19:03:52Z</time>
      </trkpt>
      <trkpt lat="43.13113" lon="-0.20664">
        <ele>301.51</ele>
        <time>2021-08-19T19:03:53Z</time>
      </trkpt>
      <trkpt lat="43.13127" lon="-0.20684">
        <ele>301.51</ele>
        <time>2021-08-19T19:03:59Z</time>
      </trkpt>
      <trkpt lat="43.13137" lon="-0.20705">
        <ele>301.51</ele>
        <time>2021-08-19T19:04:05Z</time>
      </trkpt>
      <trkpt lat="43.13156" lon="-0.20742">
        <ele>301.03</ele>
        <time>2021-08-19T19:04:13Z</time>
      </trkpt>
      <trkpt lat="43.13167" lon="-0.20767">
        <ele>300.55</ele>
        <time>2021-08-19T19:04:19Z</time>
      </trkpt>
      <trkpt lat="43.13181" lon="-0.20798">
        <ele>300.55</ele>
        <time>2021-08-19T19:04:26Z</time>
      </trkpt>
      <trkpt lat="43.13197" lon="-0.20839">
        <ele>300.55</ele>
        <time>2021-08-19T19:04:34Z</time>
      </trkpt>
      <trkpt lat="43.13198" lon="-0.20848">
        <ele>300.55</ele>
        <time>2021-08-19T19:04:36Z</time>
      </trkpt>
      <trkpt lat="43.13189" lon="-0.20869">
        <ele>300.55</ele>
        <time>2021-08-19T19:04:41Z</time>
      </trkpt>
      <trkpt lat="43.13165" lon="-0.20896">
        <ele>300.55</ele>
        <time>2021-08-19T19:04:49Z</time>
      </trkpt>
      <trkpt lat="43.13144" lon="-0.20929">
        <ele>301.99</ele>
        <time>2021-08-19T19:04:59Z</time>
      </trkpt>
      <trkpt lat="43.13142" lon="-0.20935">
        <ele>304.39</ele>
        <time>2021-08-19T19:05:09Z</time>
      </trkpt>
      <trkpt lat="43.13139" lon="-0.20943">
        <ele>305.84</ele>
        <time>2021-08-19T19:05:19Z</time>
      </trkpt>
      <trkpt lat="43.13134" lon="-0.20948">
        <ele>307.76</ele>
        <time>2021-08-19T19:05:30Z</time>
      </trkpt>
      <trkpt lat="43.13128" lon="-0.20954">
        <ele>309.2</ele>
        <time>2021-08-19T19:05:39Z</time>
      </trkpt>
      <trkpt lat="43.13122" lon="-0.20961">
        <ele>309.68</ele>
        <time>2021-08-19T19:05:44Z</time>
      </trkpt>
      <trkpt lat="43.1312" lon="-0.20963">
        <ele>309.68</ele>
        <time>2021-08-19T19:05:48Z</time>
      </trkpt>
      <trkpt lat="43.13119" lon="-0.20964">
        <ele>309.68</ele>
        <time>2021-08-19T19:05:49Z</time>
      </trkpt>
      <trkpt lat="43.13118" lon="-0.20965">
        <ele>309.68</ele>
        <time>2021-08-19T19:05:50Z</time>
      </trkpt>
      <trkpt lat="43.13117" lon="-0.20967">
        <ele>309.68</ele>
        <time>2021-08-19T19:05:51Z</time>
      </trkpt>
      <trkpt lat="43.13117" lon="-0.20969">
        <ele>309.68</ele>
        <time>2021-08-19T19:05:52Z</time>
      </trkpt>
      <trkpt lat="43.13117" lon="-0.20971">
        <ele>309.68</ele>
        <time>2021-08-19T19:05:53Z</time>
      </trkpt>
      <trkpt lat="43.13126" lon="-0.20983">
        <ele>309.2</ele>
        <time>2021-08-19T19:05:57Z</time>
      </trkpt>
      <trkpt lat="43.13145" lon="-0.21018">
        <ele>309.2</ele>
        <time>2021-08-19T19:06:06Z</time>
      </trkpt>
      <trkpt lat="43.13162" lon="-0.21059">
        <ele>309.2</ele>
        <time>2021-08-19T19:06:15Z</time>
      </trkpt>
      <trkpt lat="43.13161" lon="-0.21065">
        <ele>309.2</ele>
        <time>2021-08-19T19:06:16Z</time>
      </trkpt>
      <trkpt lat="43.13158" lon="-0.21068">
        <ele>309.68</ele>
        <time>2021-08-19T19:06:17Z</time>
      </trkpt>
      <trkpt lat="43.13156" lon="-0.21071">
        <ele>309.2</ele>
        <time>2021-08-19T19:06:18Z</time>
      </trkpt>
      <trkpt lat="43.13153" lon="-0.21074">
        <ele>308.24</ele>
        <time>2021-08-19T19:06:19Z</time>
      </trkpt>
      <trkpt lat="43.1315" lon="-0.21077">
        <ele>308.24</ele>
        <time>2021-08-19T19:06:20Z</time>
      </trkpt>
      <trkpt lat="43.13147" lon="-0.21077">
        <ele>308.24</ele>
        <time>2021-08-19T19:06:21Z</time>
      </trkpt>
      <trkpt lat="43.13143" lon="-0.21077">
        <ele>308.24</ele>
        <time>2021-08-19T19:06:22Z</time>
      </trkpt>
      <trkpt lat="43.1314" lon="-0.21076">
        <ele>308.24</ele>
        <time>2021-08-19T19:06:23Z</time>
      </trkpt>
      <trkpt lat="43.13139" lon="-0.21074">
        <ele>308.24</ele>
        <time>2021-08-19T19:06:24Z</time>
      </trkpt>
      <trkpt lat="43.1314" lon="-0.21073">
        <ele>308.24</ele>
        <time>2021-08-19T19:06:25Z</time>
      </trkpt>
      <trkpt lat="43.13142" lon="-0.21074">
        <ele>308.24</ele>
        <time>2021-08-19T19:06:26Z</time>
      </trkpt>
      <trkpt lat="43.13144" lon="-0.21076">
        <ele>308.24</ele>
        <time>2021-08-19T19:06:27Z</time>
      </trkpt>
      <trkpt lat="43.13146" lon="-0.2108">
        <ele>308.24</ele>
        <time>2021-08-19T19:06:28Z</time>
      </trkpt>
      <trkpt lat="43.13146" lon="-0.21084">
        <ele>308.24</ele>
        <time>2021-08-19T19:06:29Z</time>
      </trkpt>
      <trkpt lat="43.13146" lon="-0.21088">
        <ele>308.24</ele>
        <time>2021-08-19T19:06:30Z</time>
      </trkpt>
      <trkpt lat="43.13145" lon="-0.21092">
        <ele>308.24</ele>
        <time>2021-08-19T19:06:31Z</time>
      </trkpt>
      <trkpt lat="43.13144" lon="-0.21096">
        <ele>308.24</ele>
        <time>2021-08-19T19:06:32Z</time>
      </trkpt>
      <trkpt lat="43.13144" lon="-0.211">
        <ele>308.24</ele>
        <time>2021-08-19T19:06:33Z</time>
      </trkpt>
      <trkpt lat="43.13133" lon="-0.2113">
        <ele>308.24</ele>
        <time>2021-08-19T19:06:39Z</time>
      </trkpt>
      <trkpt lat="43.13124" lon="-0.21157">
        <ele>307.76</ele>
        <time>2021-08-19T19:06:44Z</time>
      </trkpt>
      <trkpt lat="43.13107" lon="-0.21197">
        <ele>307.76</ele>
        <time>2021-08-19T19:06:53Z</time>
      </trkpt>
      <trkpt lat="43.13103" lon="-0.21198">
        <ele>307.76</ele>
        <time>2021-08-19T19:06:54Z</time>
      </trkpt>
      <trkpt lat="43.13099" lon="-0.21196">
        <ele>307.76</ele>
        <time>2021-08-19T19:06:55Z</time>
      </trkpt>
      <trkpt lat="43.13096" lon="-0.21194">
        <ele>307.76</ele>
        <time>2021-08-19T19:06:56Z</time>
      </trkpt>
      <trkpt lat="43.13093" lon="-0.21191">
        <ele>307.76</ele>
        <time>2021-08-19T19:06:57Z</time>
      </trkpt>
      <trkpt lat="43.1309" lon="-0.21187">
        <ele>307.76</ele>
        <time>2021-08-19T19:06:58Z</time>
      </trkpt>
      <trkpt lat="43.13087" lon="-0.21183">
        <ele>307.76</ele>
        <time>2021-08-19T19:06:59Z</time>
      </trkpt>
      <trkpt lat="43.13059" lon="-0.21149">
        <ele>308.72</ele>
        <time>2021-08-19T19:07:09Z</time>
      </trkpt>
      <trkpt lat="43.1304" lon="-0.21128">
        <ele>310.64</ele>
        <time>2021-08-19T19:07:18Z</time>
      </trkpt>
      <trkpt lat="43.13032" lon="-0.21121">
        <ele>311.12</ele>
        <time>2021-08-19T19:07:22Z</time>
      </trkpt>
      <trkpt lat="43.13029" lon="-0.21121">
        <ele>311.12</ele>
        <time>2021-08-19T19:07:23Z</time>
      </trkpt>
      <trkpt lat="43.13026" lon="-0.21122">
        <ele>311.12</ele>
        <time>2021-08-19T19:07:24Z</time>
      </trkpt>
      <trkpt lat="43.13024" lon="-0.21123">
        <ele>311.6</ele>
        <time>2021-08-19T19:07:25Z</time>
      </trkpt>
      <trkpt lat="43.13023" lon="-0.21125">
        <ele>311.6</ele>
        <time>2021-08-19T19:07:26Z</time>
      </trkpt>
      <trkpt lat="43.13021" lon="-0.21128">
        <ele>311.6</ele>
        <time>2021-08-19T19:07:27Z</time>
      </trkpt>
      <trkpt lat="43.13019" lon="-0.2113">
        <ele>311.6</ele>
        <time>2021-08-19T19:07:28Z</time>
      </trkpt>
      <trkpt lat="43.13007" lon="-0.21152">
        <ele>312.09</ele>
        <time>2021-08-19T19:07:35Z</time>
      </trkpt>
      <trkpt lat="43.12982" lon="-0.21186">
        <ele>312.09</ele>
        <time>2021-08-19T19:07:45Z</time>
      </trkpt>
      <trkpt lat="43.12969" lon="-0.21214">
        <ele>313.05</ele>
        <time>2021-08-19T19:07:53Z</time>
      </trkpt>
      <trkpt lat="43.12958" lon="-0.21241">
        <ele>314.97</ele>
        <time>2021-08-19T19:08:00Z</time>
      </trkpt>
      <trkpt lat="43.12948" lon="-0.21277">
        <ele>315.93</ele>
        <time>2021-08-19T19:08:09Z</time>
      </trkpt>
      <trkpt lat="43.12946" lon="-0.21316">
        <ele>316.41</ele>
        <time>2021-08-19T19:08:17Z</time>
      </trkpt>
      <trkpt lat="43.12947" lon="-0.21356">
        <ele>314.97</ele>
        <time>2021-08-19T19:08:24Z</time>
      </trkpt>
      <trkpt lat="43.12946" lon="-0.21418">
        <ele>313.53</ele>
        <time>2021-08-19T19:08:32Z</time>
      </trkpt>
      <trkpt lat="43.12941" lon="-0.21477">
        <ele>312.57</ele>
        <time>2021-08-19T19:08:39Z</time>
      </trkpt>
      <trkpt lat="43.1294" lon="-0.21484">
        <ele>312.57</ele>
        <time>2021-08-19T19:08:40Z</time>
      </trkpt>
      <trkpt lat="43.12938" lon="-0.2149">
        <ele>314.01</ele>
        <time>2021-08-19T19:08:41Z</time>
      </trkpt>
      <trkpt lat="43.12936" lon="-0.21495">
        <ele>314.01</ele>
        <time>2021-08-19T19:08:42Z</time>
      </trkpt>
      <trkpt lat="43.12934" lon="-0.215">
        <ele>314.49</ele>
        <time>2021-08-19T19:08:43Z</time>
      </trkpt>
      <trkpt lat="43.12932" lon="-0.21504">
        <ele>314.49</ele>
        <time>2021-08-19T19:08:44Z</time>
      </trkpt>
      <trkpt lat="43.1293" lon="-0.21508">
        <ele>315.45</ele>
        <time>2021-08-19T19:08:45Z</time>
      </trkpt>
      <trkpt lat="43.12928" lon="-0.2151">
        <ele>315.45</ele>
        <time>2021-08-19T19:08:46Z</time>
      </trkpt>
      <trkpt lat="43.12919" lon="-0.2152">
        <ele>316.89</ele>
        <time>2021-08-19T19:08:53Z</time>
      </trkpt>
      <trkpt lat="43.12907" lon="-0.21531">
        <ele>318.81</ele>
        <time>2021-08-19T19:09:02Z</time>
      </trkpt>
      <trkpt lat="43.12899" lon="-0.21542">
        <ele>320.26</ele>
        <time>2021-08-19T19:09:09Z</time>
      </trkpt>
      <trkpt lat="43.12891" lon="-0.21554">
        <ele>321.7</ele>
        <time>2021-08-19T19:09:17Z</time>
      </trkpt>
      <trkpt lat="43.12886" lon="-0.21568">
        <ele>322.66</ele>
        <time>2021-08-19T19:09:24Z</time>
      </trkpt>
      <trkpt lat="43.1288" lon="-0.21588">
        <ele>325.06</ele>
        <time>2021-08-19T19:09:34Z</time>
      </trkpt>
      <trkpt lat="43.12875" lon="-0.21604">
        <ele>326.5</ele>
        <time>2021-08-19T19:09:42Z</time>
      </trkpt>
      <trkpt lat="43.12871" lon="-0.21617">
        <ele>327.47</ele>
        <time>2021-08-19T19:09:49Z</time>
      </trkpt>
      <trkpt lat="43.12867" lon="-0.21625">
        <ele>328.43</ele>
        <time>2021-08-19T19:09:54Z</time>
      </trkpt>
      <trkpt lat="43.12866" lon="-0.21627">
        <ele>328.91</ele>
        <time>2021-08-19T19:09:55Z</time>
      </trkpt>
      <trkpt lat="43.12866" lon="-0.21629">
        <ele>328.91</ele>
        <time>2021-08-19T19:09:56Z</time>
      </trkpt>
      <trkpt lat="43.12865" lon="-0.2163">
        <ele>328.91</ele>
        <time>2021-08-19T19:09:57Z</time>
      </trkpt>
      <trkpt lat="43.12864" lon="-0.21632">
        <ele>328.91</ele>
        <time>2021-08-19T19:09:58Z</time>
      </trkpt>
      <trkpt lat="43.12863" lon="-0.21633">
        <ele>329.39</ele>
        <time>2021-08-19T19:09:59Z</time>
      </trkpt>
      <trkpt lat="43.12858" lon="-0.21645">
        <ele>330.83</ele>
        <time>2021-08-19T19:10:08Z</time>
      </trkpt>
      <trkpt lat="43.12856" lon="-0.21657">
        <ele>332.75</ele>
        <time>2021-08-19T19:10:16Z</time>
      </trkpt>
      <trkpt lat="43.12855" lon="-0.2166">
        <ele>332.75</ele>
        <time>2021-08-19T19:10:18Z</time>
      </trkpt>
      <trkpt lat="43.12855" lon="-0.21661">
        <ele>332.75</ele>
        <time>2021-08-19T19:10:19Z</time>
      </trkpt>
      <trkpt lat="43.12855" lon="-0.21663">
        <ele>332.75</ele>
        <time>2021-08-19T19:10:20Z</time>
      </trkpt>
      <trkpt lat="43.12855" lon="-0.21665">
        <ele>333.23</ele>
        <time>2021-08-19T19:10:21Z</time>
      </trkpt>
      <trkpt lat="43.12854" lon="-0.21666">
        <ele>333.23</ele>
        <time>2021-08-19T19:10:22Z</time>
      </trkpt>
      <trkpt lat="43.12854" lon="-0.21689">
        <ele>334.68</ele>
        <time>2021-08-19T19:10:31Z</time>
      </trkpt>
      <trkpt lat="43.12852" lon="-0.21709">
        <ele>335.64</ele>
        <time>2021-08-19T19:10:39Z</time>
      </trkpt>
      <trkpt lat="43.12852" lon="-0.21714">
        <ele>335.64</ele>
        <time>2021-08-19T19:10:41Z</time>
      </trkpt>
      <trkpt lat="43.12852" lon="-0.21718">
        <ele>335.64</ele>
        <time>2021-08-19T19:10:42Z</time>
      </trkpt>
      <trkpt lat="43.12851" lon="-0.21722">
        <ele>336.12</ele>
        <time>2021-08-19T19:10:43Z</time>
      </trkpt>
      <trkpt lat="43.12847" lon="-0.21746">
        <ele>337.08</ele>
        <time>2021-08-19T19:10:51Z</time>
      </trkpt>
      <trkpt lat="43.12843" lon="-0.21763">
        <ele>337.56</ele>
        <time>2021-08-19T19:10:58Z</time>
      </trkpt>
      <trkpt lat="43.1284" lon="-0.21786">
        <ele>339</ele>
        <time>2021-08-19T19:11:06Z</time>
      </trkpt>
      <trkpt lat="43.1284" lon="-0.21814">
        <ele>340.44</ele>
        <time>2021-08-19T19:11:15Z</time>
      </trkpt>
      <trkpt lat="43.12841" lon="-0.21833">
        <ele>342.37</ele>
        <time>2021-08-19T19:11:23Z</time>
      </trkpt>
      <trkpt lat="43.12841" lon="-0.21835">
        <ele>342.85</ele>
        <time>2021-08-19T19:11:24Z</time>
      </trkpt>
      <trkpt lat="43.12846" lon="-0.21852">
        <ele>344.29</ele>
        <time>2021-08-19T19:11:33Z</time>
      </trkpt>
      <trkpt lat="43.12848" lon="-0.21866">
        <ele>345.73</ele>
        <time>2021-08-19T19:11:41Z</time>
      </trkpt>
      <trkpt lat="43.12844" lon="-0.21884">
        <ele>347.65</ele>
        <time>2021-08-19T19:11:51Z</time>
      </trkpt>
      <trkpt lat="43.12835" lon="-0.21898">
        <ele>349.58</ele>
        <time>2021-08-19T19:12:01Z</time>
      </trkpt>
      <trkpt lat="43.12826" lon="-0.21901">
        <ele>350.54</ele>
        <time>2021-08-19T19:12:08Z</time>
      </trkpt>
      <trkpt lat="43.12815" lon="-0.21904">
        <ele>351.98</ele>
        <time>2021-08-19T19:12:17Z</time>
      </trkpt>
      <trkpt lat="43.12802" lon="-0.21906">
        <ele>353.42</ele>
        <time>2021-08-19T19:12:27Z</time>
      </trkpt>
      <trkpt lat="43.12788" lon="-0.21907">
        <ele>354.38</ele>
        <time>2021-08-19T19:12:37Z</time>
      </trkpt>
      <trkpt lat="43.12777" lon="-0.21913">
        <ele>355.83</ele>
        <time>2021-08-19T19:12:45Z</time>
      </trkpt>
      <trkpt lat="43.12763" lon="-0.21919">
        <ele>357.27</ele>
        <time>2021-08-19T19:12:55Z</time>
      </trkpt>
      <trkpt lat="43.1275" lon="-0.2193">
        <ele>359.19</ele>
        <time>2021-08-19T19:13:04Z</time>
      </trkpt>
      <trkpt lat="43.12736" lon="-0.21936">
        <ele>360.63</ele>
        <time>2021-08-19T19:13:12Z</time>
      </trkpt>
      <trkpt lat="43.12725" lon="-0.21943">
        <ele>362.07</ele>
        <time>2021-08-19T19:13:19Z</time>
      </trkpt>
      <trkpt lat="43.12709" lon="-0.21957">
        <ele>362.55</ele>
        <time>2021-08-19T19:13:28Z</time>
      </trkpt>
      <trkpt lat="43.12694" lon="-0.2198">
        <ele>363.52</ele>
        <time>2021-08-19T19:13:37Z</time>
      </trkpt>
      <trkpt lat="43.12682" lon="-0.22007">
        <ele>364.48</ele>
        <time>2021-08-19T19:13:46Z</time>
      </trkpt>
      <trkpt lat="43.12668" lon="-0.22033">
        <ele>365.44</ele>
        <time>2021-08-19T19:13:55Z</time>
      </trkpt>
      <trkpt lat="43.12652" lon="-0.22063">
        <ele>366.4</ele>
        <time>2021-08-19T19:14:04Z</time>
      </trkpt>
      <trkpt lat="43.12637" lon="-0.22095">
        <ele>366.88</ele>
        <time>2021-08-19T19:14:13Z</time>
      </trkpt>
      <trkpt lat="43.12619" lon="-0.22133">
        <ele>366.88</ele>
        <time>2021-08-19T19:14:23Z</time>
      </trkpt>
      <trkpt lat="43.12603" lon="-0.22168">
        <ele>366.88</ele>
        <time>2021-08-19T19:14:31Z</time>
      </trkpt>
      <trkpt lat="43.12592" lon="-0.22193">
        <ele>365.44</ele>
        <time>2021-08-19T19:14:36Z</time>
      </trkpt>
      <trkpt lat="43.12577" lon="-0.22224">
        <ele>365.44</ele>
        <time>2021-08-19T19:14:42Z</time>
      </trkpt>
      <trkpt lat="43.12575" lon="-0.22229">
        <ele>365.44</ele>
        <time>2021-08-19T19:14:43Z</time>
      </trkpt>
      <trkpt lat="43.12575" lon="-0.22234">
        <ele>365.44</ele>
        <time>2021-08-19T19:14:44Z</time>
      </trkpt>
      <trkpt lat="43.12573" lon="-0.2225">
        <ele>367.36</ele>
        <time>2021-08-19T19:14:48Z</time>
      </trkpt>
      <trkpt lat="43.12574" lon="-0.22274">
        <ele>369.28</ele>
        <time>2021-08-19T19:14:56Z</time>
      </trkpt>
      <trkpt lat="43.12574" lon="-0.22297">
        <ele>370.24</ele>
        <time>2021-08-19T19:15:03Z</time>
      </trkpt>
      <trkpt lat="43.12578" lon="-0.22326">
        <ele>370.24</ele>
        <time>2021-08-19T19:15:09Z</time>
      </trkpt>
      <trkpt lat="43.12591" lon="-0.22339">
        <ele>370.24</ele>
        <time>2021-08-19T19:15:14Z</time>
      </trkpt>
      <trkpt lat="43.12611" lon="-0.22344">
        <ele>371.69</ele>
        <time>2021-08-19T19:15:21Z</time>
      </trkpt>
      <trkpt lat="43.12632" lon="-0.22349">
        <ele>372.65</ele>
        <time>2021-08-19T19:15:28Z</time>
      </trkpt>
      <trkpt lat="43.12641" lon="-0.22351">
        <ele>371.21</ele>
        <time>2021-08-19T19:15:30Z</time>
      </trkpt>
      <trkpt lat="43.12646" lon="-0.22353">
        <ele>371.21</ele>
        <time>2021-08-19T19:15:31Z</time>
      </trkpt>
      <trkpt lat="43.12663" lon="-0.22367">
        <ele>370.73</ele>
        <time>2021-08-19T19:15:35Z</time>
      </trkpt>
      <trkpt lat="43.12666" lon="-0.22372">
        <ele>370.73</ele>
        <time>2021-08-19T19:15:36Z</time>
      </trkpt>
      <trkpt lat="43.1267" lon="-0.22378">
        <ele>370.24</ele>
        <time>2021-08-19T19:15:37Z</time>
      </trkpt>
      <trkpt lat="43.12673" lon="-0.22384">
        <ele>370.24</ele>
        <time>2021-08-19T19:15:38Z</time>
      </trkpt>
      <trkpt lat="43.12676" lon="-0.2239">
        <ele>369.28</ele>
        <time>2021-08-19T19:15:39Z</time>
      </trkpt>
      <trkpt lat="43.12694" lon="-0.22437">
        <ele>367.36</ele>
        <time>2021-08-19T19:15:45Z</time>
      </trkpt>
      <trkpt lat="43.12721" lon="-0.22516">
        <ele>364</ele>
        <time>2021-08-19T19:15:54Z</time>
      </trkpt>
      <trkpt lat="43.12747" lon="-0.22585">
        <ele>361.11</ele>
        <time>2021-08-19T19:16:01Z</time>
      </trkpt>
      <trkpt lat="43.12766" lon="-0.2264">
        <ele>360.15</ele>
        <time>2021-08-19T19:16:07Z</time>
      </trkpt>
      <trkpt lat="43.12777" lon="-0.2268">
        <ele>356.79</ele>
        <time>2021-08-19T19:16:12Z</time>
      </trkpt>
      <trkpt lat="43.12784" lon="-0.22707">
        <ele>355.83</ele>
        <time>2021-08-19T19:16:15Z</time>
      </trkpt>
      <trkpt lat="43.12793" lon="-0.22745">
        <ele>353.9</ele>
        <time>2021-08-19T19:16:19Z</time>
      </trkpt>
      <trkpt lat="43.12794" lon="-0.22755">
        <ele>353.9</ele>
        <time>2021-08-19T19:16:20Z</time>
      </trkpt>
      <trkpt lat="43.12793" lon="-0.22764">
        <ele>353.42</ele>
        <time>2021-08-19T19:16:21Z</time>
      </trkpt>
      <trkpt lat="43.12791" lon="-0.22772">
        <ele>353.42</ele>
        <time>2021-08-19T19:16:22Z</time>
      </trkpt>
      <trkpt lat="43.12789" lon="-0.2278">
        <ele>353.42</ele>
        <time>2021-08-19T19:16:23Z</time>
      </trkpt>
      <trkpt lat="43.12786" lon="-0.22787">
        <ele>353.42</ele>
        <time>2021-08-19T19:16:24Z</time>
      </trkpt>
      <trkpt lat="43.12773" lon="-0.22848">
        <ele>352.46</ele>
        <time>2021-08-19T19:16:32Z</time>
      </trkpt>
      <trkpt lat="43.12756" lon="-0.22929">
        <ele>351.5</ele>
        <time>2021-08-19T19:16:42Z</time>
      </trkpt>
      <trkpt lat="43.12752" lon="-0.22971">
        <ele>352.94</ele>
        <time>2021-08-19T19:16:49Z</time>
      </trkpt>
      <trkpt lat="43.1275" lon="-0.22992">
        <ele>354.86</ele>
        <time>2021-08-19T19:16:55Z</time>
      </trkpt>
      <trkpt lat="43.12753" lon="-0.23013">
        <ele>356.31</ele>
        <time>2021-08-19T19:17:02Z</time>
      </trkpt>
      <trkpt lat="43.12761" lon="-0.23028">
        <ele>356.79</ele>
        <time>2021-08-19T19:17:08Z</time>
      </trkpt>
      <trkpt lat="43.12762" lon="-0.23062">
        <ele>353.42</ele>
        <time>2021-08-19T19:17:15Z</time>
      </trkpt>
      <trkpt lat="43.12758" lon="-0.23093">
        <ele>350.06</ele>
        <time>2021-08-19T19:17:20Z</time>
      </trkpt>
      <trkpt lat="43.12755" lon="-0.23124">
        <ele>346.69</ele>
        <time>2021-08-19T19:17:24Z</time>
      </trkpt>
      <trkpt lat="43.12756" lon="-0.23168">
        <ele>343.81</ele>
        <time>2021-08-19T19:17:30Z</time>
      </trkpt>
      <trkpt lat="43.12751" lon="-0.23213">
        <ele>340.44</ele>
        <time>2021-08-19T19:17:35Z</time>
      </trkpt>
      <trkpt lat="43.12743" lon="-0.23253">
        <ele>339</ele>
        <time>2021-08-19T19:17:40Z</time>
      </trkpt>
      <trkpt lat="43.12736" lon="-0.23276">
        <ele>338.04</ele>
        <time>2021-08-19T19:17:43Z</time>
      </trkpt>
      <trkpt lat="43.1272" lon="-0.23305">
        <ele>336.6</ele>
        <time>2021-08-19T19:17:47Z</time>
      </trkpt>
      <trkpt lat="43.12716" lon="-0.23311">
        <ele>336.6</ele>
        <time>2021-08-19T19:17:48Z</time>
      </trkpt>
      <trkpt lat="43.1271" lon="-0.23316">
        <ele>336.12</ele>
        <time>2021-08-19T19:17:49Z</time>
      </trkpt>
      <trkpt lat="43.12704" lon="-0.2332">
        <ele>336.12</ele>
        <time>2021-08-19T19:17:50Z</time>
      </trkpt>
      <trkpt lat="43.12699" lon="-0.23324">
        <ele>336.12</ele>
        <time>2021-08-19T19:17:51Z</time>
      </trkpt>
      <trkpt lat="43.12693" lon="-0.23327">
        <ele>336.12</ele>
        <time>2021-08-19T19:17:52Z</time>
      </trkpt>
      <trkpt lat="43.12682" lon="-0.23335">
        <ele>335.64</ele>
        <time>2021-08-19T19:17:54Z</time>
      </trkpt>
      <trkpt lat="43.12677" lon="-0.23339">
        <ele>335.64</ele>
        <time>2021-08-19T19:17:55Z</time>
      </trkpt>
      <trkpt lat="43.12667" lon="-0.23347">
        <ele>335.64</ele>
        <time>2021-08-19T19:17:57Z</time>
      </trkpt>
      <trkpt lat="43.12652" lon="-0.23362">
        <ele>335.16</ele>
        <time>2021-08-19T19:18:00Z</time>
      </trkpt>
      <trkpt lat="43.12648" lon="-0.23364">
        <ele>334.2</ele>
        <time>2021-08-19T19:18:01Z</time>
      </trkpt>
      <trkpt lat="43.12643" lon="-0.23366">
        <ele>334.2</ele>
        <time>2021-08-19T19:18:02Z</time>
      </trkpt>
      <trkpt lat="43.1264" lon="-0.23366">
        <ele>333.71</ele>
        <time>2021-08-19T19:18:03Z</time>
      </trkpt>
      <trkpt lat="43.12635" lon="-0.23365">
        <ele>333.23</ele>
        <time>2021-08-19T19:18:04Z</time>
      </trkpt>
      <trkpt lat="43.12631" lon="-0.23363">
        <ele>332.27</ele>
        <time>2021-08-19T19:18:05Z</time>
      </trkpt>
      <trkpt lat="43.12625" lon="-0.2336">
        <ele>331.31</ele>
        <time>2021-08-19T19:18:06Z</time>
      </trkpt>
      <trkpt lat="43.12608" lon="-0.23352">
        <ele>329.39</ele>
        <time>2021-08-19T19:18:09Z</time>
      </trkpt>
      <trkpt lat="43.12578" lon="-0.23342">
        <ele>327.95</ele>
        <time>2021-08-19T19:18:14Z</time>
      </trkpt>
      <trkpt lat="43.12572" lon="-0.23341">
        <ele>327.47</ele>
        <time>2021-08-19T19:18:15Z</time>
      </trkpt>
      <trkpt lat="43.12566" lon="-0.2334">
        <ele>327.47</ele>
        <time>2021-08-19T19:18:16Z</time>
      </trkpt>
      <trkpt lat="43.1256" lon="-0.23341">
        <ele>327.47</ele>
        <time>2021-08-19T19:18:17Z</time>
      </trkpt>
      <trkpt lat="43.12555" lon="-0.23344">
        <ele>327.47</ele>
        <time>2021-08-19T19:18:18Z</time>
      </trkpt>
      <trkpt lat="43.1255" lon="-0.23347">
        <ele>327.47</ele>
        <time>2021-08-19T19:18:19Z</time>
      </trkpt>
      <trkpt lat="43.12546" lon="-0.23351">
        <ele>327.47</ele>
        <time>2021-08-19T19:18:20Z</time>
      </trkpt>
      <trkpt lat="43.12542" lon="-0.23355">
        <ele>327.47</ele>
        <time>2021-08-19T19:18:21Z</time>
      </trkpt>
      <trkpt lat="43.1253" lon="-0.23372">
        <ele>327.47</ele>
        <time>2021-08-19T19:18:25Z</time>
      </trkpt>
      <trkpt lat="43.12529" lon="-0.23377">
        <ele>327.47</ele>
        <time>2021-08-19T19:18:26Z</time>
      </trkpt>
      <trkpt lat="43.12529" lon="-0.23382">
        <ele>327.47</ele>
        <time>2021-08-19T19:18:27Z</time>
      </trkpt>
      <trkpt lat="43.1253" lon="-0.23387">
        <ele>327.47</ele>
        <time>2021-08-19T19:18:28Z</time>
      </trkpt>
      <trkpt lat="43.12531" lon="-0.23392">
        <ele>327.47</ele>
        <time>2021-08-19T19:18:29Z</time>
      </trkpt>
      <trkpt lat="43.12533" lon="-0.23396">
        <ele>327.47</ele>
        <time>2021-08-19T19:18:30Z</time>
      </trkpt>
      <trkpt lat="43.12541" lon="-0.23419">
        <ele>328.91</ele>
        <time>2021-08-19T19:18:36Z</time>
      </trkpt>
      <trkpt lat="43.12548" lon="-0.2344">
        <ele>330.35</ele>
        <time>2021-08-19T19:18:43Z</time>
      </trkpt>
      <trkpt lat="43.12548" lon="-0.23442">
        <ele>330.83</ele>
        <time>2021-08-19T19:18:44Z</time>
      </trkpt>
      <trkpt lat="43.12548" lon="-0.23444">
        <ele>330.83</ele>
        <time>2021-08-19T19:18:45Z</time>
      </trkpt>
      <trkpt lat="43.12545" lon="-0.23457">
        <ele>332.27</ele>
        <time>2021-08-19T19:18:53Z</time>
      </trkpt>
      <trkpt lat="43.12543" lon="-0.23468">
        <ele>333.71</ele>
        <time>2021-08-19T19:19:00Z</time>
      </trkpt>
      <trkpt lat="43.12543" lon="-0.2347">
        <ele>334.2</ele>
        <time>2021-08-19T19:19:01Z</time>
      </trkpt>
      <trkpt lat="43.12542" lon="-0.23475">
        <ele>334.68</ele>
        <time>2021-08-19T19:19:07Z</time>
      </trkpt>
      <trkpt lat="43.12542" lon="-0.23479">
        <ele>335.64</ele>
        <time>2021-08-19T19:19:14Z</time>
      </trkpt>
      <trkpt lat="43.1254" lon="-0.23486">
        <ele>335.64</ele>
        <time>2021-08-19T19:19:22Z</time>
      </trkpt>
      <trkpt lat="43.12537" lon="-0.23502">
        <ele>338.52</ele>
        <time>2021-08-19T19:19:34Z</time>
      </trkpt>
      <trkpt lat="43.12533" lon="-0.23518">
        <ele>340.44</ele>
        <time>2021-08-19T19:19:46Z</time>
      </trkpt>
      <trkpt lat="43.12529" lon="-0.23532">
        <ele>342.37</ele>
        <time>2021-08-19T19:19:56Z</time>
      </trkpt>
      <trkpt lat="43.12526" lon="-0.23546">
        <ele>344.29</ele>
        <time>2021-08-19T19:20:06Z</time>
      </trkpt>
      <trkpt lat="43.12523" lon="-0.23559">
        <ele>345.25</ele>
        <time>2021-08-19T19:20:15Z</time>
      </trkpt>
      <trkpt lat="43.12522" lon="-0.23563">
        <ele>345.73</ele>
        <time>2021-08-19T19:20:18Z</time>
      </trkpt>
      <trkpt lat="43.12521" lon="-0.23565">
        <ele>345.73</ele>
        <time>2021-08-19T19:20:19Z</time>
      </trkpt>
      <trkpt lat="43.12521" lon="-0.23566">
        <ele>346.21</ele>
        <time>2021-08-19T19:20:20Z</time>
      </trkpt>
      <trkpt lat="43.1252" lon="-0.23568">
        <ele>346.21</ele>
        <time>2021-08-19T19:20:21Z</time>
      </trkpt>
      <trkpt lat="43.1252" lon="-0.23569">
        <ele>346.69</ele>
        <time>2021-08-19T19:20:22Z</time>
      </trkpt>
      <trkpt lat="43.12517" lon="-0.23584">
        <ele>348.13</ele>
        <time>2021-08-19T19:20:32Z</time>
      </trkpt>
      <trkpt lat="43.12516" lon="-0.23585">
        <ele>348.13</ele>
        <time>2021-08-19T19:20:33Z</time>
      </trkpt>
      <trkpt lat="43.12516" lon="-0.23587">
        <ele>348.62</ele>
        <time>2021-08-19T19:20:34Z</time>
      </trkpt>
      <trkpt lat="43.12516" lon="-0.23589">
        <ele>348.62</ele>
        <time>2021-08-19T19:20:35Z</time>
      </trkpt>
      <trkpt lat="43.12516" lon="-0.23594">
        <ele>349.1</ele>
        <time>2021-08-19T19:20:38Z</time>
      </trkpt>
      <trkpt lat="43.12515" lon="-0.23595">
        <ele>349.1</ele>
        <time>2021-08-19T19:20:39Z</time>
      </trkpt>
      <trkpt lat="43.12513" lon="-0.23613">
        <ele>351.02</ele>
        <time>2021-08-19T19:20:51Z</time>
      </trkpt>
      <trkpt lat="43.1251" lon="-0.23631">
        <ele>353.42</ele>
        <time>2021-08-19T19:21:04Z</time>
      </trkpt>
      <trkpt lat="43.1251" lon="-0.23646">
        <ele>354.86</ele>
        <time>2021-08-19T19:21:14Z</time>
      </trkpt>
      <trkpt lat="43.1251" lon="-0.23662">
        <ele>357.27</ele>
        <time>2021-08-19T19:21:24Z</time>
      </trkpt>
      <trkpt lat="43.12511" lon="-0.23665">
        <ele>357.27</ele>
        <time>2021-08-19T19:21:30Z</time>
      </trkpt>
      <trkpt lat="43.12512" lon="-0.23678">
        <ele>358.23</ele>
        <time>2021-08-19T19:21:37Z</time>
      </trkpt>
      <trkpt lat="43.12514" lon="-0.23695">
        <ele>359.19</ele>
        <time>2021-08-19T19:21:46Z</time>
      </trkpt>
      <trkpt lat="43.12515" lon="-0.2372">
        <ele>360.63</ele>
        <time>2021-08-19T19:21:56Z</time>
      </trkpt>
      <trkpt lat="43.12517" lon="-0.23732">
        <ele>361.11</ele>
        <time>2021-08-19T19:22:01Z</time>
      </trkpt>
      <trkpt lat="43.12518" lon="-0.23735">
        <ele>361.11</ele>
        <time>2021-08-19T19:22:02Z</time>
      </trkpt>
      <trkpt lat="43.12518" lon="-0.23738">
        <ele>361.59</ele>
        <time>2021-08-19T19:22:03Z</time>
      </trkpt>
      <trkpt lat="43.12519" lon="-0.2374">
        <ele>361.59</ele>
        <time>2021-08-19T19:22:04Z</time>
      </trkpt>
      <trkpt lat="43.12519" lon="-0.23743">
        <ele>361.59</ele>
        <time>2021-08-19T19:22:05Z</time>
      </trkpt>
      <trkpt lat="43.12521" lon="-0.23764">
        <ele>362.55</ele>
        <time>2021-08-19T19:22:13Z</time>
      </trkpt>
      <trkpt lat="43.12522" lon="-0.23784">
        <ele>363.04</ele>
        <time>2021-08-19T19:22:20Z</time>
      </trkpt>
      <trkpt lat="43.12525" lon="-0.2381">
        <ele>364</ele>
        <time>2021-08-19T19:22:29Z</time>
      </trkpt>
      <trkpt lat="43.12527" lon="-0.23841">
        <ele>364.48</ele>
        <time>2021-08-19T19:22:39Z</time>
      </trkpt>
      <trkpt lat="43.12531" lon="-0.23869">
        <ele>364.96</ele>
        <time>2021-08-19T19:22:47Z</time>
      </trkpt>
      <trkpt lat="43.12537" lon="-0.23919">
        <ele>364.96</ele>
        <time>2021-08-19T19:22:57Z</time>
      </trkpt>
      <trkpt lat="43.12544" lon="-0.2397">
        <ele>366.88</ele>
        <time>2021-08-19T19:23:08Z</time>
      </trkpt>
      <trkpt lat="43.12549" lon="-0.24005">
        <ele>368.32</ele>
        <time>2021-08-19T19:23:16Z</time>
      </trkpt>
      <trkpt lat="43.12555" lon="-0.24048">
        <ele>369.28</ele>
        <time>2021-08-19T19:23:26Z</time>
      </trkpt>
      <trkpt lat="43.12558" lon="-0.24088">
        <ele>370.73</ele>
        <time>2021-08-19T19:23:36Z</time>
      </trkpt>
      <trkpt lat="43.1255" lon="-0.24116">
        <ele>369.28</ele>
        <time>2021-08-19T19:23:43Z</time>
      </trkpt>
      <trkpt lat="43.12537" lon="-0.24153">
        <ele>365.92</ele>
        <time>2021-08-19T19:23:49Z</time>
      </trkpt>
      <trkpt lat="43.12527" lon="-0.24189">
        <ele>362.55</ele>
        <time>2021-08-19T19:23:54Z</time>
      </trkpt>
      <trkpt lat="43.12521" lon="-0.24206">
        <ele>362.07</ele>
        <time>2021-08-19T19:23:56Z</time>
      </trkpt>
      <trkpt lat="43.1249" lon="-0.24268">
        <ele>360.63</ele>
        <time>2021-08-19T19:24:04Z</time>
      </trkpt>
      <trkpt lat="43.12476" lon="-0.2429">
        <ele>361.11</ele>
        <time>2021-08-19T19:24:08Z</time>
      </trkpt>
      <trkpt lat="43.12473" lon="-0.24295">
        <ele>362.55</ele>
        <time>2021-08-19T19:24:09Z</time>
      </trkpt>
      <trkpt lat="43.12457" lon="-0.2433">
        <ele>360.15</ele>
        <time>2021-08-19T19:24:16Z</time>
      </trkpt>
      <trkpt lat="43.12447" lon="-0.24354">
        <ele>356.79</ele>
        <time>2021-08-19T19:24:19Z</time>
      </trkpt>
      <trkpt lat="43.1242" lon="-0.2441">
        <ele>354.86</ele>
        <time>2021-08-19T19:24:26Z</time>
      </trkpt>
      <trkpt lat="43.12399" lon="-0.24443">
        <ele>351.02</ele>
        <time>2021-08-19T19:24:31Z</time>
      </trkpt>
      <trkpt lat="43.12394" lon="-0.24449">
        <ele>350.54</ele>
        <time>2021-08-19T19:24:32Z</time>
      </trkpt>
      <trkpt lat="43.12388" lon="-0.24455">
        <ele>350.06</ele>
        <time>2021-08-19T19:24:33Z</time>
      </trkpt>
      <trkpt lat="43.12382" lon="-0.24459">
        <ele>349.58</ele>
        <time>2021-08-19T19:24:34Z</time>
      </trkpt>
      <trkpt lat="43.12376" lon="-0.24463">
        <ele>349.1</ele>
        <time>2021-08-19T19:24:35Z</time>
      </trkpt>
      <trkpt lat="43.1237" lon="-0.24466">
        <ele>349.1</ele>
        <time>2021-08-19T19:24:36Z</time>
      </trkpt>
      <trkpt lat="43.12365" lon="-0.2447">
        <ele>348.62</ele>
        <time>2021-08-19T19:24:37Z</time>
      </trkpt>
      <trkpt lat="43.1236" lon="-0.24474">
        <ele>348.62</ele>
        <time>2021-08-19T19:24:38Z</time>
      </trkpt>
      <trkpt lat="43.12353" lon="-0.24483">
        <ele>348.62</ele>
        <time>2021-08-19T19:24:40Z</time>
      </trkpt>
      <trkpt lat="43.12351" lon="-0.24488">
        <ele>348.62</ele>
        <time>2021-08-19T19:24:41Z</time>
      </trkpt>
      <trkpt lat="43.12345" lon="-0.245">
        <ele>348.13</ele>
        <time>2021-08-19T19:24:43Z</time>
      </trkpt>
      <trkpt lat="43.12327" lon="-0.24527">
        <ele>344.77</ele>
        <time>2021-08-19T19:24:48Z</time>
      </trkpt>
      <trkpt lat="43.12305" lon="-0.24555">
        <ele>341.89</ele>
        <time>2021-08-19T19:24:53Z</time>
      </trkpt>
      <trkpt lat="43.12297" lon="-0.24568">
        <ele>340.44</ele>
        <time>2021-08-19T19:24:55Z</time>
      </trkpt>
      <trkpt lat="43.12294" lon="-0.24575">
        <ele>340.44</ele>
        <time>2021-08-19T19:24:56Z</time>
      </trkpt>
      <trkpt lat="43.12292" lon="-0.24581">
        <ele>339.48</ele>
        <time>2021-08-19T19:24:57Z</time>
      </trkpt>
      <trkpt lat="43.12284" lon="-0.24601">
        <ele>339</ele>
        <time>2021-08-19T19:25:00Z</time>
      </trkpt>
      <trkpt lat="43.12282" lon="-0.24607">
        <ele>339</ele>
        <time>2021-08-19T19:25:01Z</time>
      </trkpt>
      <trkpt lat="43.12279" lon="-0.24614">
        <ele>338.04</ele>
        <time>2021-08-19T19:25:02Z</time>
      </trkpt>
      <trkpt lat="43.12276" lon="-0.2462">
        <ele>337.08</ele>
        <time>2021-08-19T19:25:03Z</time>
      </trkpt>
      <trkpt lat="43.12272" lon="-0.24626">
        <ele>336.6</ele>
        <time>2021-08-19T19:25:04Z</time>
      </trkpt>
      <trkpt lat="43.12268" lon="-0.24632">
        <ele>336.12</ele>
        <time>2021-08-19T19:25:05Z</time>
      </trkpt>
      <trkpt lat="43.12254" lon="-0.24651">
        <ele>335.16</ele>
        <time>2021-08-19T19:25:08Z</time>
      </trkpt>
      <trkpt lat="43.12233" lon="-0.24676">
        <ele>333.23</ele>
        <time>2021-08-19T19:25:13Z</time>
      </trkpt>
      <trkpt lat="43.12228" lon="-0.24679">
        <ele>333.23</ele>
        <time>2021-08-19T19:25:14Z</time>
      </trkpt>
      <trkpt lat="43.12213" lon="-0.24692">
        <ele>332.27</ele>
        <time>2021-08-19T19:25:17Z</time>
      </trkpt>
      <trkpt lat="43.12177" lon="-0.24722">
        <ele>330.83</ele>
        <time>2021-08-19T19:25:25Z</time>
      </trkpt>
      <trkpt lat="43.12156" lon="-0.24731">
        <ele>329.39</ele>
        <time>2021-08-19T19:25:31Z</time>
      </trkpt>
      <trkpt lat="43.12153" lon="-0.24732">
        <ele>328.43</ele>
        <time>2021-08-19T19:25:34Z</time>
      </trkpt>
      <trkpt lat="43.12153" lon="-0.24734">
        <ele>328.43</ele>
        <time>2021-08-19T19:25:35Z</time>
      </trkpt>
      <trkpt lat="43.12154" lon="-0.24734">
        <ele>328.43</ele>
        <time>2021-08-19T19:25:36Z</time>
      </trkpt>
      <trkpt lat="43.12155" lon="-0.24734">
        <ele>328.43</ele>
        <time>2021-08-19T19:25:37Z</time>
      </trkpt>
      <trkpt lat="43.12157" lon="-0.24734">
        <ele>328.43</ele>
        <time>2021-08-19T19:25:38Z</time>
      </trkpt>
      <trkpt lat="43.12176" lon="-0.24728">
        <ele>326.99</ele>
        <time>2021-08-19T19:25:44Z</time>
      </trkpt>
      <trkpt lat="43.12197" lon="-0.24716">
        <ele>325.54</ele>
        <time>2021-08-19T19:25:50Z</time>
      </trkpt>
      <trkpt lat="43.12208" lon="-0.24707">
        <ele>324.58</ele>
        <time>2021-08-19T19:25:53Z</time>
      </trkpt>
      <trkpt lat="43.12213" lon="-0.24704">
        <ele>324.58</ele>
        <time>2021-08-19T19:25:54Z</time>
      </trkpt>
      <trkpt lat="43.12216" lon="-0.24701">
        <ele>324.58</ele>
        <time>2021-08-19T19:25:55Z</time>
      </trkpt>
      <trkpt lat="43.12238" lon="-0.24687">
        <ele>324.1</ele>
        <time>2021-08-19T19:26:01Z</time>
      </trkpt>
      <trkpt lat="43.12264" lon="-0.24667">
        <ele>324.58</ele>
        <time>2021-08-19T19:26:08Z</time>
      </trkpt>
      <trkpt lat="43.12292" lon="-0.2465">
        <ele>322.66</ele>
        <time>2021-08-19T19:26:15Z</time>
      </trkpt>
      <trkpt lat="43.12324" lon="-0.24639">
        <ele>321.22</ele>
        <time>2021-08-19T19:26:21Z</time>
      </trkpt>
      <trkpt lat="43.1233" lon="-0.24639">
        <ele>321.22</ele>
        <time>2021-08-19T19:26:22Z</time>
      </trkpt>
      <trkpt lat="43.12335" lon="-0.24639">
        <ele>320.26</ele>
        <time>2021-08-19T19:26:23Z</time>
      </trkpt>
      <trkpt lat="43.12342" lon="-0.2464">
        <ele>320.26</ele>
        <time>2021-08-19T19:26:24Z</time>
      </trkpt>
      <trkpt lat="43.12348" lon="-0.24642">
        <ele>319.78</ele>
        <time>2021-08-19T19:26:25Z</time>
      </trkpt>
      <trkpt lat="43.12354" lon="-0.24645">
        <ele>319.78</ele>
        <time>2021-08-19T19:26:26Z</time>
      </trkpt>
      <trkpt lat="43.12359" lon="-0.24648">
        <ele>319.78</ele>
        <time>2021-08-19T19:26:27Z</time>
      </trkpt>
      <trkpt lat="43.12364" lon="-0.24652">
        <ele>319.78</ele>
        <time>2021-08-19T19:26:28Z</time>
      </trkpt>
      <trkpt lat="43.12395" lon="-0.24681">
        <ele>318.81</ele>
        <time>2021-08-19T19:26:34Z</time>
      </trkpt>
      <trkpt lat="43.12419" lon="-0.24725">
        <ele>317.85</ele>
        <time>2021-08-19T19:26:41Z</time>
      </trkpt>
      <trkpt lat="43.12421" lon="-0.24731">
        <ele>317.85</ele>
        <time>2021-08-19T19:26:42Z</time>
      </trkpt>
      <trkpt lat="43.12433" lon="-0.24772">
        <ele>317.85</ele>
        <time>2021-08-19T19:26:49Z</time>
      </trkpt>
      <trkpt lat="43.12444" lon="-0.24811">
        <ele>317.37</ele>
        <time>2021-08-19T19:26:57Z</time>
      </trkpt>
      <trkpt lat="43.12455" lon="-0.24845">
        <ele>317.37</ele>
        <time>2021-08-19T19:27:04Z</time>
      </trkpt>
      <trkpt lat="43.12463" lon="-0.24863">
        <ele>318.81</ele>
        <time>2021-08-19T19:27:09Z</time>
      </trkpt>
      <trkpt lat="43.12482" lon="-0.24888">
        <ele>318.81</ele>
        <time>2021-08-19T19:27:18Z</time>
      </trkpt>
      <trkpt lat="43.12504" lon="-0.24903">
        <ele>318.81</ele>
        <time>2021-08-19T19:27:26Z</time>
      </trkpt>
      <trkpt lat="43.12524" lon="-0.24908">
        <ele>318.81</ele>
        <time>2021-08-19T19:27:33Z</time>
      </trkpt>
      <trkpt lat="43.12549" lon="-0.24912">
        <ele>318.81</ele>
        <time>2021-08-19T19:27:40Z</time>
      </trkpt>
      <trkpt lat="43.12573" lon="-0.24915">
        <ele>318.81</ele>
        <time>2021-08-19T19:27:47Z</time>
      </trkpt>
      <trkpt lat="43.12593" lon="-0.24917">
        <ele>318.81</ele>
        <time>2021-08-19T19:27:53Z</time>
      </trkpt>
      <trkpt lat="43.12614" lon="-0.24916">
        <ele>318.81</ele>
        <time>2021-08-19T19:27:59Z</time>
      </trkpt>
      <trkpt lat="43.12643" lon="-0.24917">
        <ele>317.85</ele>
        <time>2021-08-19T19:28:05Z</time>
      </trkpt>
      <trkpt lat="43.12677" lon="-0.24917">
        <ele>317.85</ele>
        <time>2021-08-19T19:28:13Z</time>
      </trkpt>
      <trkpt lat="43.12702" lon="-0.24917">
        <ele>317.85</ele>
        <time>2021-08-19T19:28:20Z</time>
      </trkpt>
      <trkpt lat="43.12726" lon="-0.24917">
        <ele>317.85</ele>
        <time>2021-08-19T19:28:27Z</time>
      </trkpt>
      <trkpt lat="43.12753" lon="-0.24917">
        <ele>317.85</ele>
        <time>2021-08-19T19:28:35Z</time>
      </trkpt>
      <trkpt lat="43.12775" lon="-0.24918">
        <ele>317.37</ele>
        <time>2021-08-19T19:28:43Z</time>
      </trkpt>
      <trkpt lat="43.12802" lon="-0.24918">
        <ele>316.89</ele>
        <time>2021-08-19T19:28:52Z</time>
      </trkpt>
      <trkpt lat="43.12829" lon="-0.24916">
        <ele>316.41</ele>
        <time>2021-08-19T19:29:00Z</time>
      </trkpt>
      <trkpt lat="43.12849" lon="-0.24915">
        <ele>315.93</ele>
        <time>2021-08-19T19:29:06Z</time>
      </trkpt>
      <trkpt lat="43.12867" lon="-0.24917">
        <ele>315.45</ele>
        <time>2021-08-19T19:29:12Z</time>
      </trkpt>
      <trkpt lat="43.12891" lon="-0.24918">
        <ele>314.97</ele>
        <time>2021-08-19T19:29:19Z</time>
      </trkpt>
      <trkpt lat="43.1291" lon="-0.24918">
        <ele>314.97</ele>
        <time>2021-08-19T19:29:26Z</time>
      </trkpt>
      <trkpt lat="43.12932" lon="-0.24919">
        <ele>314.97</ele>
        <time>2021-08-19T19:29:33Z</time>
      </trkpt>
      <trkpt lat="43.1296" lon="-0.2492">
        <ele>314.97</ele>
        <time>2021-08-19T19:29:41Z</time>
      </trkpt>
      <trkpt lat="43.12983" lon="-0.24919">
        <ele>315.45</ele>
        <time>2021-08-19T19:29:48Z</time>
      </trkpt>
      <trkpt lat="43.13005" lon="-0.24922">
        <ele>315.45</ele>
        <time>2021-08-19T19:29:54Z</time>
      </trkpt>
      <trkpt lat="43.13037" lon="-0.24919">
        <ele>315.45</ele>
        <time>2021-08-19T19:30:01Z</time>
      </trkpt>
      <trkpt lat="43.13065" lon="-0.24916">
        <ele>315.45</ele>
        <time>2021-08-19T19:30:08Z</time>
      </trkpt>
      <trkpt lat="43.13092" lon="-0.24911">
        <ele>315.45</ele>
        <time>2021-08-19T19:30:15Z</time>
      </trkpt>
      <trkpt lat="43.13115" lon="-0.24906">
        <ele>315.45</ele>
        <time>2021-08-19T19:30:21Z</time>
      </trkpt>
      <trkpt lat="43.13144" lon="-0.24902">
        <ele>315.93</ele>
        <time>2021-08-19T19:30:29Z</time>
      </trkpt>
      <trkpt lat="43.13162" lon="-0.24902">
        <ele>315.93</ele>
        <time>2021-08-19T19:30:34Z</time>
      </trkpt>
      <trkpt lat="43.13184" lon="-0.249">
        <ele>315.93</ele>
        <time>2021-08-19T19:30:40Z</time>
      </trkpt>
      <trkpt lat="43.13214" lon="-0.24898">
        <ele>315.93</ele>
        <time>2021-08-19T19:30:47Z</time>
      </trkpt>
      <trkpt lat="43.1324" lon="-0.24896">
        <ele>315.93</ele>
        <time>2021-08-19T19:30:53Z</time>
      </trkpt>
      <trkpt lat="43.13244" lon="-0.24896">
        <ele>315.93</ele>
        <time>2021-08-19T19:30:54Z</time>
      </trkpt>
      <trkpt lat="43.13248" lon="-0.24896">
        <ele>315.45</ele>
        <time>2021-08-19T19:30:55Z</time>
      </trkpt>
      <trkpt lat="43.13253" lon="-0.24895">
        <ele>315.45</ele>
        <time>2021-08-19T19:30:56Z</time>
      </trkpt>
      <trkpt lat="43.13257" lon="-0.24894">
        <ele>315.45</ele>
        <time>2021-08-19T19:30:57Z</time>
      </trkpt>
      <trkpt lat="43.13286" lon="-0.24889">
        <ele>315.45</ele>
        <time>2021-08-19T19:31:04Z</time>
      </trkpt>
      <trkpt lat="43.13295" lon="-0.24888">
        <ele>315.45</ele>
        <time>2021-08-19T19:31:06Z</time>
      </trkpt>
      <trkpt lat="43.133" lon="-0.24887">
        <ele>314.49</ele>
        <time>2021-08-19T19:31:07Z</time>
      </trkpt>
      <trkpt lat="43.13304" lon="-0.24887">
        <ele>314.97</ele>
        <time>2021-08-19T19:31:08Z</time>
      </trkpt>
      <trkpt lat="43.1333" lon="-0.24886">
        <ele>314.97</ele>
        <time>2021-08-19T19:31:15Z</time>
      </trkpt>
      <trkpt lat="43.1335" lon="-0.2489">
        <ele>314.97</ele>
        <time>2021-08-19T19:31:20Z</time>
      </trkpt>
      <trkpt lat="43.13391" lon="-0.24898">
        <ele>314.97</ele>
        <time>2021-08-19T19:31:30Z</time>
      </trkpt>
      <trkpt lat="43.13399" lon="-0.24899">
        <ele>314.97</ele>
        <time>2021-08-19T19:31:32Z</time>
      </trkpt>
      <trkpt lat="43.13421" lon="-0.24898">
        <ele>314.97</ele>
        <time>2021-08-19T19:31:37Z</time>
      </trkpt>
      <trkpt lat="43.13425" lon="-0.24898">
        <ele>314.97</ele>
        <time>2021-08-19T19:31:38Z</time>
      </trkpt>
      <trkpt lat="43.1343" lon="-0.24899">
        <ele>314.97</ele>
        <time>2021-08-19T19:31:39Z</time>
      </trkpt>
      <trkpt lat="43.13434" lon="-0.24898">
        <ele>314.97</ele>
        <time>2021-08-19T19:31:40Z</time>
      </trkpt>
      <trkpt lat="43.13439" lon="-0.24898">
        <ele>315.45</ele>
        <time>2021-08-19T19:31:41Z</time>
      </trkpt>
      <trkpt lat="43.13443" lon="-0.24898">
        <ele>315.45</ele>
        <time>2021-08-19T19:31:42Z</time>
      </trkpt>
      <trkpt lat="43.13461" lon="-0.24899">
        <ele>315.45</ele>
        <time>2021-08-19T19:31:46Z</time>
      </trkpt>
      <trkpt lat="43.13471" lon="-0.24899">
        <ele>315.45</ele>
        <time>2021-08-19T19:31:48Z</time>
      </trkpt>
      <trkpt lat="43.13475" lon="-0.24898">
        <ele>315.45</ele>
        <time>2021-08-19T19:31:49Z</time>
      </trkpt>
      <trkpt lat="43.1348" lon="-0.24898">
        <ele>315.45</ele>
        <time>2021-08-19T19:31:50Z</time>
      </trkpt>
      <trkpt lat="43.13484" lon="-0.24898">
        <ele>315.45</ele>
        <time>2021-08-19T19:31:51Z</time>
      </trkpt>
      <trkpt lat="43.13489" lon="-0.24899">
        <ele>315.45</ele>
        <time>2021-08-19T19:31:52Z</time>
      </trkpt>
      <trkpt lat="43.13523" lon="-0.24904">
        <ele>314.49</ele>
        <time>2021-08-19T19:32:00Z</time>
      </trkpt>
      <trkpt lat="43.13547" lon="-0.24913">
        <ele>314.01</ele>
        <time>2021-08-19T19:32:05Z</time>
      </trkpt>
      <trkpt lat="43.13566" lon="-0.2492">
        <ele>314.01</ele>
        <time>2021-08-19T19:32:09Z</time>
      </trkpt>
      <trkpt lat="43.1358" lon="-0.24926">
        <ele>314.01</ele>
        <time>2021-08-19T19:32:12Z</time>
      </trkpt>
      <trkpt lat="43.13592" lon="-0.24931">
        <ele>314.01</ele>
        <time>2021-08-19T19:32:15Z</time>
      </trkpt>
      <trkpt lat="43.13622" lon="-0.24941">
        <ele>314.01</ele>
        <time>2021-08-19T19:32:21Z</time>
      </trkpt>
      <trkpt lat="43.13658" lon="-0.2495">
        <ele>312.57</ele>
        <time>2021-08-19T19:32:28Z</time>
      </trkpt>
      <trkpt lat="43.1368" lon="-0.24947">
        <ele>312.09</ele>
        <time>2021-08-19T19:32:32Z</time>
      </trkpt>
      <trkpt lat="43.13703" lon="-0.2494">
        <ele>310.64</ele>
        <time>2021-08-19T19:32:38Z</time>
      </trkpt>
      <trkpt lat="43.13726" lon="-0.24933">
        <ele>309.68</ele>
        <time>2021-08-19T19:32:44Z</time>
      </trkpt>
      <trkpt lat="43.13755" lon="-0.24924">
        <ele>308.72</ele>
        <time>2021-08-19T19:32:52Z</time>
      </trkpt>
      <trkpt lat="43.1378" lon="-0.24917">
        <ele>308.24</ele>
        <time>2021-08-19T19:32:59Z</time>
      </trkpt>
      <trkpt lat="43.13804" lon="-0.24911">
        <ele>308.24</ele>
        <time>2021-08-19T19:33:06Z</time>
      </trkpt>
      <trkpt lat="43.1383" lon="-0.2491">
        <ele>308.24</ele>
        <time>2021-08-19T19:33:13Z</time>
      </trkpt>
      <trkpt lat="43.13853" lon="-0.24915">
        <ele>307.76</ele>
        <time>2021-08-19T19:33:19Z</time>
      </trkpt>
      <trkpt lat="43.13884" lon="-0.24927">
        <ele>307.28</ele>
        <time>2021-08-19T19:33:27Z</time>
      </trkpt>
      <trkpt lat="43.139" lon="-0.24935">
        <ele>307.28</ele>
        <time>2021-08-19T19:33:31Z</time>
      </trkpt>
      <trkpt lat="43.13904" lon="-0.24938">
        <ele>307.28</ele>
        <time>2021-08-19T19:33:32Z</time>
      </trkpt>
      <trkpt lat="43.13917" lon="-0.24946">
        <ele>306.8</ele>
        <time>2021-08-19T19:33:35Z</time>
      </trkpt>
      <trkpt lat="43.13921" lon="-0.24949">
        <ele>306.8</ele>
        <time>2021-08-19T19:33:36Z</time>
      </trkpt>
      <trkpt lat="43.13954" lon="-0.24982">
        <ele>306.32</ele>
        <time>2021-08-19T19:33:46Z</time>
      </trkpt>
      <trkpt lat="43.13958" lon="-0.24985">
        <ele>306.32</ele>
        <time>2021-08-19T19:33:47Z</time>
      </trkpt>
      <trkpt lat="43.13965" lon="-0.24992">
        <ele>306.32</ele>
        <time>2021-08-19T19:33:49Z</time>
      </trkpt>
      <trkpt lat="43.13974" lon="-0.25002">
        <ele>306.32</ele>
        <time>2021-08-19T19:33:52Z</time>
      </trkpt>
      <trkpt lat="43.13977" lon="-0.25006">
        <ele>306.32</ele>
        <time>2021-08-19T19:33:53Z</time>
      </trkpt>
      <trkpt lat="43.13998" lon="-0.25028">
        <ele>306.32</ele>
        <time>2021-08-19T19:34:00Z</time>
      </trkpt>
      <trkpt lat="43.14026" lon="-0.25042">
        <ele>305.84</ele>
        <time>2021-08-19T19:34:07Z</time>
      </trkpt>
      <trkpt lat="43.14031" lon="-0.25043">
        <ele>305.84</ele>
        <time>2021-08-19T19:34:08Z</time>
      </trkpt>
      <trkpt lat="43.14035" lon="-0.25043">
        <ele>305.84</ele>
        <time>2021-08-19T19:34:09Z</time>
      </trkpt>
      <trkpt lat="43.14039" lon="-0.25044">
        <ele>305.84</ele>
        <time>2021-08-19T19:34:10Z</time>
      </trkpt>
      <trkpt lat="43.14043" lon="-0.25045">
        <ele>305.84</ele>
        <time>2021-08-19T19:34:11Z</time>
      </trkpt>
      <trkpt lat="43.14047" lon="-0.25045">
        <ele>305.84</ele>
        <time>2021-08-19T19:34:12Z</time>
      </trkpt>
      <trkpt lat="43.14051" lon="-0.25045">
        <ele>305.84</ele>
        <time>2021-08-19T19:34:13Z</time>
      </trkpt>
      <trkpt lat="43.14055" lon="-0.25044">
        <ele>305.84</ele>
        <time>2021-08-19T19:34:14Z</time>
      </trkpt>
      <trkpt lat="43.14059" lon="-0.25043">
        <ele>305.84</ele>
        <time>2021-08-19T19:34:15Z</time>
      </trkpt>
      <trkpt lat="43.14063" lon="-0.25042">
        <ele>305.84</ele>
        <time>2021-08-19T19:34:16Z</time>
      </trkpt>
      <trkpt lat="43.14065" lon="-0.25044">
        <ele>305.84</ele>
        <time>2021-08-19T19:34:17Z</time>
      </trkpt>
      <trkpt lat="43.14068" lon="-0.25046">
        <ele>306.8</ele>
        <time>2021-08-19T19:34:18Z</time>
      </trkpt>
      <trkpt lat="43.14069" lon="-0.2505">
        <ele>306.8</ele>
        <time>2021-08-19T19:34:19Z</time>
      </trkpt>
      <trkpt lat="43.1407" lon="-0.25054">
        <ele>306.8</ele>
        <time>2021-08-19T19:34:20Z</time>
      </trkpt>
      <trkpt lat="43.1407" lon="-0.25058">
        <ele>306.8</ele>
        <time>2021-08-19T19:34:21Z</time>
      </trkpt>
      <trkpt lat="43.14069" lon="-0.25063">
        <ele>306.8</ele>
        <time>2021-08-19T19:34:22Z</time>
      </trkpt>
      <trkpt lat="43.14068" lon="-0.25068">
        <ele>306.8</ele>
        <time>2021-08-19T19:34:23Z</time>
      </trkpt>
      <trkpt lat="43.14063" lon="-0.25131">
        <ele>306.8</ele>
        <time>2021-08-19T19:34:34Z</time>
      </trkpt>
      <trkpt lat="43.14059" lon="-0.25207">
        <ele>305.36</ele>
        <time>2021-08-19T19:34:46Z</time>
      </trkpt>
      <trkpt lat="43.14059" lon="-0.25252">
        <ele>305.36</ele>
        <time>2021-08-19T19:34:54Z</time>
      </trkpt>
      <trkpt lat="43.14059" lon="-0.25274">
        <ele>307.28</ele>
        <time>2021-08-19T19:35:01Z</time>
      </trkpt>
      <trkpt lat="43.14061" lon="-0.25294">
        <ele>309.2</ele>
        <time>2021-08-19T19:35:10Z</time>
      </trkpt>
      <trkpt lat="43.14063" lon="-0.25309">
        <ele>310.16</ele>
        <time>2021-08-19T19:35:19Z</time>
      </trkpt>
      <trkpt lat="43.14063" lon="-0.25311">
        <ele>310.64</ele>
        <time>2021-08-19T19:35:20Z</time>
      </trkpt>
      <trkpt lat="43.14066" lon="-0.25324">
        <ele>312.09</ele>
        <time>2021-08-19T19:35:28Z</time>
      </trkpt>
      <trkpt lat="43.1407" lon="-0.25337">
        <ele>313.53</ele>
        <time>2021-08-19T19:35:36Z</time>
      </trkpt>
      <trkpt lat="43.14073" lon="-0.25348">
        <ele>314.01</ele>
        <time>2021-08-19T19:35:42Z</time>
      </trkpt>
      <trkpt lat="43.14073" lon="-0.2535">
        <ele>314.01</ele>
        <time>2021-08-19T19:35:43Z</time>
      </trkpt>
      <trkpt lat="43.14072" lon="-0.25352">
        <ele>314.49</ele>
        <time>2021-08-19T19:35:44Z</time>
      </trkpt>
      <trkpt lat="43.14072" lon="-0.25355">
        <ele>314.49</ele>
        <time>2021-08-19T19:35:46Z</time>
      </trkpt>
      <trkpt lat="43.14073" lon="-0.25356">
        <ele>314.97</ele>
        <time>2021-08-19T19:35:47Z</time>
      </trkpt>
      <trkpt lat="43.14073" lon="-0.25358">
        <ele>314.97</ele>
        <time>2021-08-19T19:35:48Z</time>
      </trkpt>
      <trkpt lat="43.14074" lon="-0.2536">
        <ele>314.97</ele>
        <time>2021-08-19T19:35:49Z</time>
      </trkpt>
      <trkpt lat="43.14073" lon="-0.25361">
        <ele>315.45</ele>
        <time>2021-08-19T19:35:50Z</time>
      </trkpt>
      <trkpt lat="43.14073" lon="-0.25363">
        <ele>315.45</ele>
        <time>2021-08-19T19:35:51Z</time>
      </trkpt>
      <trkpt lat="43.14073" lon="-0.25365">
        <ele>315.45</ele>
        <time>2021-08-19T19:35:52Z</time>
      </trkpt>
      <trkpt lat="43.14073" lon="-0.25367">
        <ele>315.45</ele>
        <time>2021-08-19T19:35:53Z</time>
      </trkpt>
      <trkpt lat="43.14073" lon="-0.25369">
        <ele>316.41</ele>
        <time>2021-08-19T19:35:54Z</time>
      </trkpt>
      <trkpt lat="43.14073" lon="-0.25371">
        <ele>316.41</ele>
        <time>2021-08-19T19:35:55Z</time>
      </trkpt>
      <trkpt lat="43.14072" lon="-0.25385">
        <ele>317.37</ele>
        <time>2021-08-19T19:36:03Z</time>
      </trkpt>
      <trkpt lat="43.1407" lon="-0.25393">
        <ele>317.85</ele>
        <time>2021-08-19T19:36:08Z</time>
      </trkpt>
      <trkpt lat="43.14069" lon="-0.25395">
        <ele>317.85</ele>
        <time>2021-08-19T19:36:09Z</time>
      </trkpt>
      <trkpt lat="43.14068" lon="-0.25396">
        <ele>317.85</ele>
        <time>2021-08-19T19:36:10Z</time>
      </trkpt>
      <trkpt lat="43.14068" lon="-0.25398">
        <ele>317.85</ele>
        <time>2021-08-19T19:36:11Z</time>
      </trkpt>
      <trkpt lat="43.14067" lon="-0.254">
        <ele>318.33</ele>
        <time>2021-08-19T19:36:12Z</time>
      </trkpt>
      <trkpt lat="43.14061" lon="-0.25416">
        <ele>319.78</ele>
        <time>2021-08-19T19:36:22Z</time>
      </trkpt>
      <trkpt lat="43.14057" lon="-0.25434">
        <ele>321.7</ele>
        <time>2021-08-19T19:36:32Z</time>
      </trkpt>
      <trkpt lat="43.14051" lon="-0.25449">
        <ele>322.66</ele>
        <time>2021-08-19T19:36:41Z</time>
      </trkpt>
      <trkpt lat="43.14044" lon="-0.25464">
        <ele>323.62</ele>
        <time>2021-08-19T19:36:49Z</time>
      </trkpt>
      <trkpt lat="43.14037" lon="-0.25485">
        <ele>324.58</ele>
        <time>2021-08-19T19:36:58Z</time>
      </trkpt>
      <trkpt lat="43.14038" lon="-0.25495">
        <ele>325.06</ele>
        <time>2021-08-19T19:37:02Z</time>
      </trkpt>
      <trkpt lat="43.14039" lon="-0.25497">
        <ele>325.06</ele>
        <time>2021-08-19T19:37:03Z</time>
      </trkpt>
      <trkpt lat="43.1404" lon="-0.25498">
        <ele>325.06</ele>
        <time>2021-08-19T19:37:04Z</time>
      </trkpt>
      <trkpt lat="43.14042" lon="-0.25499">
        <ele>325.06</ele>
        <time>2021-08-19T19:37:05Z</time>
      </trkpt>
      <trkpt lat="43.14044" lon="-0.255">
        <ele>325.06</ele>
        <time>2021-08-19T19:37:06Z</time>
      </trkpt>
      <trkpt lat="43.14046" lon="-0.25501">
        <ele>325.54</ele>
        <time>2021-08-19T19:37:07Z</time>
      </trkpt>
      <trkpt lat="43.14065" lon="-0.2551">
        <ele>325.54</ele>
        <time>2021-08-19T19:37:17Z</time>
      </trkpt>
      <trkpt lat="43.14067" lon="-0.2551">
        <ele>326.02</ele>
        <time>2021-08-19T19:37:18Z</time>
      </trkpt>
      <trkpt lat="43.14069" lon="-0.2551">
        <ele>326.02</ele>
        <time>2021-08-19T19:37:19Z</time>
      </trkpt>
      <trkpt lat="43.14072" lon="-0.25511">
        <ele>326.02</ele>
        <time>2021-08-19T19:37:20Z</time>
      </trkpt>
      <trkpt lat="43.14075" lon="-0.25512">
        <ele>326.02</ele>
        <time>2021-08-19T19:37:21Z</time>
      </trkpt>
      <trkpt lat="43.14076" lon="-0.25513">
        <ele>326.02</ele>
        <time>2021-08-19T19:37:22Z</time>
      </trkpt>
      <trkpt lat="43.14088" lon="-0.25521">
        <ele>326.5</ele>
        <time>2021-08-19T19:37:28Z</time>
      </trkpt>
      <trkpt lat="43.14104" lon="-0.25544">
        <ele>327.47</ele>
        <time>2021-08-19T19:37:37Z</time>
      </trkpt>
      <trkpt lat="43.1412" lon="-0.2557">
        <ele>327.95</ele>
        <time>2021-08-19T19:37:46Z</time>
      </trkpt>
      <trkpt lat="43.14141" lon="-0.25604">
        <ele>328.91</ele>
        <time>2021-08-19T19:37:57Z</time>
      </trkpt>
      <trkpt lat="43.1416" lon="-0.25639">
        <ele>329.87</ele>
        <time>2021-08-19T19:38:07Z</time>
      </trkpt>
      <trkpt lat="43.14178" lon="-0.2567">
        <ele>330.83</ele>
        <time>2021-08-19T19:38:16Z</time>
      </trkpt>
      <trkpt lat="43.14194" lon="-0.2568">
        <ele>331.31</ele>
        <time>2021-08-19T19:38:22Z</time>
      </trkpt>
      <trkpt lat="43.14198" lon="-0.25694">
        <ele>331.79</ele>
        <time>2021-08-19T19:38:27Z</time>
      </trkpt>
      <trkpt lat="43.142" lon="-0.25707">
        <ele>331.79</ele>
        <time>2021-08-19T19:38:32Z</time>
      </trkpt>
      <trkpt lat="43.14202" lon="-0.2571">
        <ele>331.79</ele>
        <time>2021-08-19T19:38:33Z</time>
      </trkpt>
      <trkpt lat="43.14204" lon="-0.25712">
        <ele>331.79</ele>
        <time>2021-08-19T19:38:34Z</time>
      </trkpt>
      <trkpt lat="43.14206" lon="-0.25714">
        <ele>331.79</ele>
        <time>2021-08-19T19:38:35Z</time>
      </trkpt>
      <trkpt lat="43.14208" lon="-0.25717">
        <ele>331.79</ele>
        <time>2021-08-19T19:38:36Z</time>
      </trkpt>
      <trkpt lat="43.14227" lon="-0.25736">
        <ele>331.79</ele>
        <time>2021-08-19T19:38:43Z</time>
      </trkpt>
      <trkpt lat="43.14249" lon="-0.2575">
        <ele>330.35</ele>
        <time>2021-08-19T19:38:50Z</time>
      </trkpt>
      <trkpt lat="43.1425" lon="-0.25754">
        <ele>330.35</ele>
        <time>2021-08-19T19:38:51Z</time>
      </trkpt>
      <trkpt lat="43.1425" lon="-0.25757">
        <ele>330.35</ele>
        <time>2021-08-19T19:38:52Z</time>
      </trkpt>
      <trkpt lat="43.14248" lon="-0.25759">
        <ele>330.35</ele>
        <time>2021-08-19T19:38:53Z</time>
      </trkpt>
      <trkpt lat="43.14246" lon="-0.2576">
        <ele>330.35</ele>
        <time>2021-08-19T19:38:54Z</time>
      </trkpt>
      <trkpt lat="43.14232" lon="-0.25772">
        <ele>330.35</ele>
        <time>2021-08-19T19:39:00Z</time>
      </trkpt>
      <trkpt lat="43.14206" lon="-0.25776">
        <ele>330.35</ele>
        <time>2021-08-19T19:39:08Z</time>
      </trkpt>
      <trkpt lat="43.14177" lon="-0.25781">
        <ele>331.79</ele>
        <time>2021-08-19T19:39:17Z</time>
      </trkpt>
      <trkpt lat="43.14153" lon="-0.25784">
        <ele>331.31</ele>
        <time>2021-08-19T19:39:24Z</time>
      </trkpt>
      <trkpt lat="43.14127" lon="-0.25785">
        <ele>331.79</ele>
        <time>2021-08-19T19:39:32Z</time>
      </trkpt>
      <trkpt lat="43.14107" lon="-0.25786">
        <ele>331.79</ele>
        <time>2021-08-19T19:39:39Z</time>
      </trkpt>
      <trkpt lat="43.14088" lon="-0.25798">
        <ele>332.27</ele>
        <time>2021-08-19T19:39:45Z</time>
      </trkpt>
      <trkpt lat="43.14079" lon="-0.25822">
        <ele>332.27</ele>
        <time>2021-08-19T19:39:51Z</time>
      </trkpt>
      <trkpt lat="43.14066" lon="-0.25857">
        <ele>332.75</ele>
        <time>2021-08-19T19:40:00Z</time>
      </trkpt>
      <trkpt lat="43.14051" lon="-0.25887">
        <ele>332.75</ele>
        <time>2021-08-19T19:40:08Z</time>
      </trkpt>
      <trkpt lat="43.14034" lon="-0.25907">
        <ele>333.23</ele>
        <time>2021-08-19T19:40:16Z</time>
      </trkpt>
      <trkpt lat="43.14009" lon="-0.25925">
        <ele>333.71</ele>
        <time>2021-08-19T19:40:25Z</time>
      </trkpt>
      <trkpt lat="43.1399" lon="-0.25937">
        <ele>334.2</ele>
        <time>2021-08-19T19:40:32Z</time>
      </trkpt>
      <trkpt lat="43.1398" lon="-0.25942">
        <ele>334.2</ele>
        <time>2021-08-19T19:40:38Z</time>
      </trkpt>
      <trkpt lat="43.13981" lon="-0.2594">
        <ele>334.68</ele>
        <time>2021-08-19T19:41:01Z</time>
      </trkpt>
      <trkpt lat="43.13977" lon="-0.25943">
        <ele>334.68</ele>
        <time>2021-08-19T19:41:13Z</time>
      </trkpt>
      <trkpt lat="43.13963" lon="-0.25948">
        <ele>334.2</ele>
        <time>2021-08-19T19:41:21Z</time>
      </trkpt>
      <trkpt lat="43.13947" lon="-0.25954">
        <ele>334.68</ele>
        <time>2021-08-19T19:41:28Z</time>
      </trkpt>
      <trkpt lat="43.1393" lon="-0.25961">
        <ele>334.68</ele>
        <time>2021-08-19T19:41:35Z</time>
      </trkpt>
      <trkpt lat="43.13906" lon="-0.25972">
        <ele>335.16</ele>
        <time>2021-08-19T19:41:44Z</time>
      </trkpt>
      <trkpt lat="43.13881" lon="-0.25984">
        <ele>335.64</ele>
        <time>2021-08-19T19:41:53Z</time>
      </trkpt>
      <trkpt lat="43.1386" lon="-0.26002">
        <ele>336.6</ele>
        <time>2021-08-19T19:42:01Z</time>
      </trkpt>
      <trkpt lat="43.13855" lon="-0.26009">
        <ele>336.6</ele>
        <time>2021-08-19T19:42:04Z</time>
      </trkpt>
      <trkpt lat="43.13853" lon="-0.2601">
        <ele>336.6</ele>
        <time>2021-08-19T19:42:05Z</time>
      </trkpt>
      <trkpt lat="43.1385" lon="-0.26011">
        <ele>336.6</ele>
        <time>2021-08-19T19:42:06Z</time>
      </trkpt>
      <trkpt lat="43.13836" lon="-0.26016">
        <ele>337.08</ele>
        <time>2021-08-19T19:42:13Z</time>
      </trkpt>
      <trkpt lat="43.13835" lon="-0.26018">
        <ele>337.08</ele>
        <time>2021-08-19T19:42:14Z</time>
      </trkpt>
      <trkpt lat="43.13834" lon="-0.2602">
        <ele>337.08</ele>
        <time>2021-08-19T19:42:15Z</time>
      </trkpt>
      <trkpt lat="43.13833" lon="-0.26022">
        <ele>337.08</ele>
        <time>2021-08-19T19:42:16Z</time>
      </trkpt>
      <trkpt lat="43.13831" lon="-0.26023">
        <ele>337.08</ele>
        <time>2021-08-19T19:42:17Z</time>
      </trkpt>
      <trkpt lat="43.13829" lon="-0.26024">
        <ele>337.08</ele>
        <time>2021-08-19T19:42:18Z</time>
      </trkpt>
      <trkpt lat="43.13827" lon="-0.26027">
        <ele>337.08</ele>
        <time>2021-08-19T19:42:19Z</time>
      </trkpt>
      <trkpt lat="43.13825" lon="-0.26028">
        <ele>337.08</ele>
        <time>2021-08-19T19:42:20Z</time>
      </trkpt>
      <trkpt lat="43.13823" lon="-0.2603">
        <ele>337.08</ele>
        <time>2021-08-19T19:42:21Z</time>
      </trkpt>
      <trkpt lat="43.13812" lon="-0.2605">
        <ele>337.08</ele>
        <time>2021-08-19T19:42:27Z</time>
      </trkpt>
      <trkpt lat="43.13798" lon="-0.26099">
        <ele>337.08</ele>
        <time>2021-08-19T19:42:38Z</time>
      </trkpt>
      <trkpt lat="43.13781" lon="-0.26157">
        <ele>337.08</ele>
        <time>2021-08-19T19:42:50Z</time>
      </trkpt>
      <trkpt lat="43.13763" lon="-0.26201">
        <ele>337.56</ele>
        <time>2021-08-19T19:43:00Z</time>
      </trkpt>
      <trkpt lat="43.13743" lon="-0.26241">
        <ele>337.56</ele>
        <time>2021-08-19T19:43:09Z</time>
      </trkpt>
      <trkpt lat="43.13718" lon="-0.26283">
        <ele>337.56</ele>
        <time>2021-08-19T19:43:19Z</time>
      </trkpt>
      <trkpt lat="43.13705" lon="-0.26304">
        <ele>337.56</ele>
        <time>2021-08-19T19:43:24Z</time>
      </trkpt>
      <trkpt lat="43.13679" lon="-0.26336">
        <ele>338.04</ele>
        <time>2021-08-19T19:43:33Z</time>
      </trkpt>
      <trkpt lat="43.13645" lon="-0.26364">
        <ele>339.48</ele>
        <time>2021-08-19T19:43:44Z</time>
      </trkpt>
      <trkpt lat="43.13615" lon="-0.26387">
        <ele>340.92</ele>
        <time>2021-08-19T19:43:55Z</time>
      </trkpt>
      <trkpt lat="43.13579" lon="-0.26414">
        <ele>341.41</ele>
        <time>2021-08-19T19:44:07Z</time>
      </trkpt>
      <trkpt lat="43.13538" lon="-0.26444">
        <ele>341.89</ele>
        <time>2021-08-19T19:44:20Z</time>
      </trkpt>
      <trkpt lat="43.13522" lon="-0.26473">
        <ele>341.89</ele>
        <time>2021-08-19T19:44:27Z</time>
      </trkpt>
      <trkpt lat="43.13511" lon="-0.2651">
        <ele>341.89</ele>
        <time>2021-08-19T19:44:35Z</time>
      </trkpt>
      <trkpt lat="43.13499" lon="-0.26548">
        <ele>342.85</ele>
        <time>2021-08-19T19:44:44Z</time>
      </trkpt>
      <trkpt lat="43.13487" lon="-0.26582">
        <ele>343.33</ele>
        <time>2021-08-19T19:44:52Z</time>
      </trkpt>
      <trkpt lat="43.13473" lon="-0.26619">
        <ele>344.29</ele>
        <time>2021-08-19T19:45:01Z</time>
      </trkpt>
      <trkpt lat="43.13462" lon="-0.26643">
        <ele>344.77</ele>
        <time>2021-08-19T19:45:08Z</time>
      </trkpt>
      <trkpt lat="43.13449" lon="-0.26675">
        <ele>345.73</ele>
        <time>2021-08-19T19:45:17Z</time>
      </trkpt>
      <trkpt lat="43.13439" lon="-0.26698">
        <ele>346.21</ele>
        <time>2021-08-19T19:45:24Z</time>
      </trkpt>
      <trkpt lat="43.13426" lon="-0.26724">
        <ele>347.17</ele>
        <time>2021-08-19T19:45:32Z</time>
      </trkpt>
      <trkpt lat="43.13414" lon="-0.26744">
        <ele>348.62</ele>
        <time>2021-08-19T19:45:39Z</time>
      </trkpt>
      <trkpt lat="43.13405" lon="-0.26755">
        <ele>348.62</ele>
        <time>2021-08-19T19:45:44Z</time>
      </trkpt>
      <trkpt lat="43.13403" lon="-0.26755">
        <ele>349.1</ele>
        <time>2021-08-19T19:45:45Z</time>
      </trkpt>
      <trkpt lat="43.134" lon="-0.26755">
        <ele>349.1</ele>
        <time>2021-08-19T19:45:46Z</time>
      </trkpt>
      <trkpt lat="43.13379" lon="-0.26742">
        <ele>347.65</ele>
        <time>2021-08-19T19:45:53Z</time>
      </trkpt>
      <trkpt lat="43.1337" lon="-0.26735">
        <ele>346.21</ele>
        <time>2021-08-19T19:45:55Z</time>
      </trkpt>
      <trkpt lat="43.13356" lon="-0.26728">
        <ele>343.33</ele>
        <time>2021-08-19T19:45:59Z</time>
      </trkpt>
      <trkpt lat="43.13352" lon="-0.26732">
        <ele>342.37</ele>
        <time>2021-08-19T19:46:02Z</time>
      </trkpt>
      <trkpt lat="43.1335" lon="-0.26735">
        <ele>341.41</ele>
        <time>2021-08-19T19:46:03Z</time>
      </trkpt>
      <trkpt lat="43.13348" lon="-0.26737">
        <ele>340.92</ele>
        <time>2021-08-19T19:46:04Z</time>
      </trkpt>
      <trkpt lat="43.13338" lon="-0.26748">
        <ele>338.52</ele>
        <time>2021-08-19T19:46:08Z</time>
      </trkpt>
      <trkpt lat="43.13332" lon="-0.26762">
        <ele>336.12</ele>
        <time>2021-08-19T19:46:11Z</time>
      </trkpt>
      <trkpt lat="43.13317" lon="-0.268">
        <ele>333.23</ele>
        <time>2021-08-19T19:46:17Z</time>
      </trkpt>
      <trkpt lat="43.13304" lon="-0.26836">
        <ele>330.83</ele>
        <time>2021-08-19T19:46:22Z</time>
      </trkpt>
      <trkpt lat="43.13291" lon="-0.26878">
        <ele>327.47</ele>
        <time>2021-08-19T19:46:27Z</time>
      </trkpt>
      <trkpt lat="43.13276" lon="-0.26922">
        <ele>324.58</ele>
        <time>2021-08-19T19:46:32Z</time>
      </trkpt>
      <trkpt lat="43.13264" lon="-0.26957">
        <ele>322.66</ele>
        <time>2021-08-19T19:46:36Z</time>
      </trkpt>
      <trkpt lat="43.1326" lon="-0.26965">
        <ele>322.18</ele>
        <time>2021-08-19T19:46:37Z</time>
      </trkpt>
      <trkpt lat="43.13255" lon="-0.26972">
        <ele>321.7</ele>
        <time>2021-08-19T19:46:38Z</time>
      </trkpt>
      <trkpt lat="43.1325" lon="-0.26978">
        <ele>321.22</ele>
        <time>2021-08-19T19:46:39Z</time>
      </trkpt>
      <trkpt lat="43.13245" lon="-0.26985">
        <ele>320.74</ele>
        <time>2021-08-19T19:46:40Z</time>
      </trkpt>
      <trkpt lat="43.13239" lon="-0.26991">
        <ele>320.74</ele>
        <time>2021-08-19T19:46:41Z</time>
      </trkpt>
      <trkpt lat="43.13189" lon="-0.27045">
        <ele>317.37</ele>
        <time>2021-08-19T19:46:50Z</time>
      </trkpt>
      <trkpt lat="43.13174" lon="-0.27062">
        <ele>316.41</ele>
        <time>2021-08-19T19:46:53Z</time>
      </trkpt>
      <trkpt lat="43.13138" lon="-0.271">
        <ele>313.53</ele>
        <time>2021-08-19T19:47:01Z</time>
      </trkpt>
      <trkpt lat="43.13136" lon="-0.27105">
        <ele>313.05</ele>
        <time>2021-08-19T19:47:02Z</time>
      </trkpt>
      <trkpt lat="43.13134" lon="-0.27111">
        <ele>313.05</ele>
        <time>2021-08-19T19:47:03Z</time>
      </trkpt>
      <trkpt lat="43.13134" lon="-0.27117">
        <ele>313.05</ele>
        <time>2021-08-19T19:47:04Z</time>
      </trkpt>
      <trkpt lat="43.13133" lon="-0.27123">
        <ele>313.05</ele>
        <time>2021-08-19T19:47:05Z</time>
      </trkpt>
      <trkpt lat="43.13132" lon="-0.27165">
        <ele>313.05</ele>
        <time>2021-08-19T19:47:12Z</time>
      </trkpt>
      <trkpt lat="43.13135" lon="-0.27183">
        <ele>313.05</ele>
        <time>2021-08-19T19:47:15Z</time>
      </trkpt>
      <trkpt lat="43.13136" lon="-0.27189">
        <ele>313.05</ele>
        <time>2021-08-19T19:47:16Z</time>
      </trkpt>
      <trkpt lat="43.13138" lon="-0.27195">
        <ele>313.05</ele>
        <time>2021-08-19T19:47:17Z</time>
      </trkpt>
      <trkpt lat="43.1314" lon="-0.272">
        <ele>313.05</ele>
        <time>2021-08-19T19:47:18Z</time>
      </trkpt>
      <trkpt lat="43.13141" lon="-0.27206">
        <ele>312.57</ele>
        <time>2021-08-19T19:47:19Z</time>
      </trkpt>
      <trkpt lat="43.13143" lon="-0.27211">
        <ele>312.57</ele>
        <time>2021-08-19T19:47:20Z</time>
      </trkpt>
      <trkpt lat="43.13143" lon="-0.27217">
        <ele>312.09</ele>
        <time>2021-08-19T19:47:21Z</time>
      </trkpt>
      <trkpt lat="43.13144" lon="-0.27224">
        <ele>311.6</ele>
        <time>2021-08-19T19:47:22Z</time>
      </trkpt>
      <trkpt lat="43.13147" lon="-0.27248">
        <ele>309.68</ele>
        <time>2021-08-19T19:47:25Z</time>
      </trkpt>
      <trkpt lat="43.13147" lon="-0.27257">
        <ele>309.2</ele>
        <time>2021-08-19T19:47:26Z</time>
      </trkpt>
      <trkpt lat="43.13147" lon="-0.27266">
        <ele>309.2</ele>
        <time>2021-08-19T19:47:27Z</time>
      </trkpt>
      <trkpt lat="43.13146" lon="-0.27276">
        <ele>308.24</ele>
        <time>2021-08-19T19:47:28Z</time>
      </trkpt>
      <trkpt lat="43.13145" lon="-0.27285">
        <ele>308.24</ele>
        <time>2021-08-19T19:47:29Z</time>
      </trkpt>
      <trkpt lat="43.13135" lon="-0.27345">
        <ele>308.24</ele>
        <time>2021-08-19T19:47:36Z</time>
      </trkpt>
      <trkpt lat="43.13131" lon="-0.27374">
        <ele>307.28</ele>
        <time>2021-08-19T19:47:39Z</time>
      </trkpt>
      <trkpt lat="43.13131" lon="-0.27384">
        <ele>307.28</ele>
        <time>2021-08-19T19:47:40Z</time>
      </trkpt>
      <trkpt lat="43.13132" lon="-0.27392">
        <ele>307.28</ele>
        <time>2021-08-19T19:47:41Z</time>
      </trkpt>
      <trkpt lat="43.13135" lon="-0.27422">
        <ele>309.2</ele>
        <time>2021-08-19T19:47:45Z</time>
      </trkpt>
      <trkpt lat="43.13136" lon="-0.27428">
        <ele>309.68</ele>
        <time>2021-08-19T19:47:46Z</time>
      </trkpt>
      <trkpt lat="43.13136" lon="-0.27434">
        <ele>309.68</ele>
        <time>2021-08-19T19:47:47Z</time>
      </trkpt>
      <trkpt lat="43.13138" lon="-0.27476">
        <ele>311.6</ele>
        <time>2021-08-19T19:47:55Z</time>
      </trkpt>
      <trkpt lat="43.13136" lon="-0.27514">
        <ele>312.09</ele>
        <time>2021-08-19T19:48:02Z</time>
      </trkpt>
      <trkpt lat="43.13136" lon="-0.2752">
        <ele>312.09</ele>
        <time>2021-08-19T19:48:03Z</time>
      </trkpt>
      <trkpt lat="43.13136" lon="-0.2758">
        <ele>312.09</ele>
        <time>2021-08-19T19:48:13Z</time>
      </trkpt>
      <trkpt lat="43.13143" lon="-0.27636">
        <ele>308.72</ele>
        <time>2021-08-19T19:48:21Z</time>
      </trkpt>
      <trkpt lat="43.13143" lon="-0.27643">
        <ele>308.72</ele>
        <time>2021-08-19T19:48:22Z</time>
      </trkpt>
      <trkpt lat="43.13146" lon="-0.27668">
        <ele>306.8</ele>
        <time>2021-08-19T19:48:26Z</time>
      </trkpt>
      <trkpt lat="43.13145" lon="-0.27675">
        <ele>306.8</ele>
        <time>2021-08-19T19:48:27Z</time>
      </trkpt>
      <trkpt lat="43.13143" lon="-0.27681">
        <ele>306.8</ele>
        <time>2021-08-19T19:48:28Z</time>
      </trkpt>
      <trkpt lat="43.13139" lon="-0.27699">
        <ele>308.24</ele>
        <time>2021-08-19T19:48:33Z</time>
      </trkpt>
      <trkpt lat="43.13132" lon="-0.27737">
        <ele>310.64</ele>
        <time>2021-08-19T19:48:44Z</time>
      </trkpt>
      <trkpt lat="43.13125" lon="-0.27773">
        <ele>312.57</ele>
        <time>2021-08-19T19:48:55Z</time>
      </trkpt>
      <trkpt lat="43.13115" lon="-0.27807">
        <ele>314.49</ele>
        <time>2021-08-19T19:49:06Z</time>
      </trkpt>
      <trkpt lat="43.13105" lon="-0.27839">
        <ele>315.93</ele>
        <time>2021-08-19T19:49:16Z</time>
      </trkpt>
      <trkpt lat="43.13089" lon="-0.2788">
        <ele>316.89</ele>
        <time>2021-08-19T19:49:27Z</time>
      </trkpt>
      <trkpt lat="43.13071" lon="-0.27921">
        <ele>316.89</ele>
        <time>2021-08-19T19:49:37Z</time>
      </trkpt>
      <trkpt lat="43.13047" lon="-0.27967">
        <ele>316.89</ele>
        <time>2021-08-19T19:49:47Z</time>
      </trkpt>
      <trkpt lat="43.1302" lon="-0.28005">
        <ele>316.89</ele>
        <time>2021-08-19T19:49:56Z</time>
      </trkpt>
      <trkpt lat="43.1299" lon="-0.2803">
        <ele>314.49</ele>
        <time>2021-08-19T19:50:03Z</time>
      </trkpt>
      <trkpt lat="43.12964" lon="-0.28059">
        <ele>314.49</ele>
        <time>2021-08-19T19:50:09Z</time>
      </trkpt>
      <trkpt lat="43.12921" lon="-0.28114">
        <ele>314.01</ele>
        <time>2021-08-19T19:50:20Z</time>
      </trkpt>
      <trkpt lat="43.12874" lon="-0.28157">
        <ele>312.09</ele>
        <time>2021-08-19T19:50:30Z</time>
      </trkpt>
      <trkpt lat="43.12826" lon="-0.28176">
        <ele>309.68</ele>
        <time>2021-08-19T19:50:38Z</time>
      </trkpt>
      <trkpt lat="43.12772" lon="-0.28183">
        <ele>308.72</ele>
        <time>2021-08-19T19:50:46Z</time>
      </trkpt>
      <trkpt lat="43.12727" lon="-0.28178">
        <ele>308.72</ele>
        <time>2021-08-19T19:50:53Z</time>
      </trkpt>
      <trkpt lat="43.1269" lon="-0.28175">
        <ele>309.2</ele>
        <time>2021-08-19T19:51:00Z</time>
      </trkpt>
      <trkpt lat="43.12657" lon="-0.28178">
        <ele>310.16</ele>
        <time>2021-08-19T19:51:07Z</time>
      </trkpt>
      <trkpt lat="43.12622" lon="-0.28184">
        <ele>310.16</ele>
        <time>2021-08-19T19:51:14Z</time>
      </trkpt>
      <trkpt lat="43.12585" lon="-0.28187">
        <ele>310.64</ele>
        <time>2021-08-19T19:51:23Z</time>
      </trkpt>
      <trkpt lat="43.1256" lon="-0.28189">
        <ele>309.2</ele>
        <time>2021-08-19T19:51:30Z</time>
      </trkpt>
      <trkpt lat="43.12527" lon="-0.28198">
        <ele>305.84</ele>
        <time>2021-08-19T19:51:36Z</time>
      </trkpt>
      <trkpt lat="43.12509" lon="-0.28215">
        <ele>305.36</ele>
        <time>2021-08-19T19:51:41Z</time>
      </trkpt>
      <trkpt lat="43.12507" lon="-0.28221">
        <ele>305.36</ele>
        <time>2021-08-19T19:51:43Z</time>
      </trkpt>
      <trkpt lat="43.12508" lon="-0.28224">
        <ele>305.36</ele>
        <time>2021-08-19T19:51:44Z</time>
      </trkpt>
      <trkpt lat="43.12508" lon="-0.28226">
        <ele>305.36</ele>
        <time>2021-08-19T19:51:45Z</time>
      </trkpt>
      <trkpt lat="43.12507" lon="-0.28228">
        <ele>305.36</ele>
        <time>2021-08-19T19:51:46Z</time>
      </trkpt>
      <trkpt lat="43.12505" lon="-0.28228">
        <ele>305.36</ele>
        <time>2021-08-19T19:51:47Z</time>
      </trkpt>
      <trkpt lat="43.12504" lon="-0.28226">
        <ele>305.36</ele>
        <time>2021-08-19T19:51:48Z</time>
      </trkpt>
      <trkpt lat="43.12504" lon="-0.28224">
        <ele>305.36</ele>
        <time>2021-08-19T19:51:49Z</time>
      </trkpt>
      <trkpt lat="43.12504" lon="-0.28221">
        <ele>305.36</ele>
        <time>2021-08-19T19:51:50Z</time>
      </trkpt>
      <trkpt lat="43.12503" lon="-0.28218">
        <ele>305.36</ele>
        <time>2021-08-19T19:51:51Z</time>
      </trkpt>
      <trkpt lat="43.12493" lon="-0.28206">
        <ele>305.36</ele>
        <time>2021-08-19T19:51:58Z</time>
      </trkpt>
      <trkpt lat="43.1249" lon="-0.28206">
        <ele>305.36</ele>
        <time>2021-08-19T19:52:05Z</time>
      </trkpt>
      <trkpt lat="43.12488" lon="-0.28204">
        <ele>305.36</ele>
        <time>2021-08-19T19:52:17Z</time>
      </trkpt>
      <trkpt lat="43.12487" lon="-0.28205">
        <ele>305.36</ele>
        <time>2021-08-19T19:52:38Z</time>
      </trkpt>
      <trkpt lat="43.12488" lon="-0.28205">
        <ele>305.36</ele>
        <time>2021-08-19T19:52:56Z</time>
      </trkpt>
      <trkpt lat="43.12488" lon="-0.28204">
        <ele>304.88</ele>
        <time>2021-08-19T19:53:13Z</time>
      </trkpt>
      <trkpt lat="43.12489" lon="-0.28205">
        <ele>304.88</ele>
        <time>2021-08-19T19:53:28Z</time>
      </trkpt>
      <trkpt lat="43.12489" lon="-0.28206">
        <ele>304.88</ele>
        <time>2021-08-19T19:53:45Z</time>
      </trkpt>
      <trkpt lat="43.12491" lon="-0.28207">
        <ele>304.88</ele>
        <time>2021-08-19T19:54:04Z</time>
      </trkpt>
      <trkpt lat="43.12492" lon="-0.28204">
        <ele>304.88</ele>
        <time>2021-08-19T19:54:20Z</time>
      </trkpt>
      <trkpt lat="43.12492" lon="-0.28201">
        <ele>304.88</ele>
        <time>2021-08-19T19:54:32Z</time>
      </trkpt>
      <trkpt lat="43.12488" lon="-0.28203">
        <ele>304.88</ele>
        <time>2021-08-19T19:54:48Z</time>
      </trkpt>
      <trkpt lat="43.12486" lon="-0.28206">
        <ele>304.88</ele>
        <time>2021-08-19T19:55:05Z</time>
      </trkpt>
      <trkpt lat="43.12487" lon="-0.28207">
        <ele>304.39</ele>
        <time>2021-08-19T19:55:18Z</time>
      </trkpt>
      <trkpt lat="43.12487" lon="-0.28205">
        <ele>304.39</ele>
        <time>2021-08-19T19:55:28Z</time>
      </trkpt>
      <trkpt lat="43.12485" lon="-0.28203">
        <ele>304.39</ele>
        <time>2021-08-19T19:55:47Z</time>
      </trkpt>
      <trkpt lat="43.12483" lon="-0.28204">
        <ele>304.39</ele>
        <time>2021-08-19T19:56:04Z</time>
      </trkpt>
      <trkpt lat="43.12484" lon="-0.28201">
        <ele>304.39</ele>
        <time>2021-08-19T19:56:19Z</time>
      </trkpt>
      <trkpt lat="43.12484" lon="-0.28201">
        <ele>304.39</ele>
        <time>2021-08-19T19:56:35Z</time>
      </trkpt>
      <trkpt lat="43.12484" lon="-0.28201">
        <ele>303.91</ele>
        <time>2021-08-19T19:56:48Z</time>
      </trkpt>
      <trkpt lat="43.12484" lon="-0.28201">
        <ele>303.91</ele>
        <time>2021-08-19T19:57:05Z</time>
      </trkpt>
      <trkpt lat="43.12485" lon="-0.28201">
        <ele>303.91</ele>
        <time>2021-08-19T19:57:15Z</time>
      </trkpt>
      <trkpt lat="43.12485" lon="-0.282">
        <ele>303.91</ele>
        <time>2021-08-19T19:57:31Z</time>
      </trkpt>
      <trkpt lat="43.12487" lon="-0.28202">
        <ele>303.91</ele>
        <time>2021-08-19T19:57:46Z</time>
      </trkpt>
      <trkpt lat="43.12488" lon="-0.28205">
        <ele>303.91</ele>
        <time>2021-08-19T19:58:01Z</time>
      </trkpt>
      <trkpt lat="43.12488" lon="-0.28207">
        <ele>303.91</ele>
        <time>2021-08-19T19:58:14Z</time>
      </trkpt>
      <trkpt lat="43.12489" lon="-0.28205">
        <ele>303.91</ele>
        <time>2021-08-19T19:58:33Z</time>
      </trkpt>
      <trkpt lat="43.12488" lon="-0.28204">
        <ele>303.43</ele>
        <time>2021-08-19T19:58:47Z</time>
      </trkpt>
      <trkpt lat="43.12488" lon="-0.28207">
        <ele>303.43</ele>
        <time>2021-08-19T19:59:11Z</time>
      </trkpt>
      <trkpt lat="43.12489" lon="-0.28205">
        <ele>303.91</ele>
        <time>2021-08-19T19:59:30Z</time>
      </trkpt>
      <trkpt lat="43.1249" lon="-0.28204">
        <ele>303.91</ele>
        <time>2021-08-19T19:59:43Z</time>
      </trkpt>
      <trkpt lat="43.12493" lon="-0.28205">
        <ele>303.91</ele>
        <time>2021-08-19T20:00:03Z</time>
      </trkpt>
      <trkpt lat="43.12493" lon="-0.28205">
        <ele>303.91</ele>
        <time>2021-08-19T20:00:20Z</time>
      </trkpt>
      <trkpt lat="43.12493" lon="-0.28204">
        <ele>303.91</ele>
        <time>2021-08-19T20:00:29Z</time>
      </trkpt>
      <trkpt lat="43.12493" lon="-0.28204">
        <ele>303.91</ele>
        <time>2021-08-19T20:00:35Z</time>
      </trkpt>
      <trkpt lat="43.12492" lon="-0.28206">
        <ele>303.43</ele>
        <time>2021-08-19T20:00:52Z</time>
      </trkpt>
      <trkpt lat="43.12493" lon="-0.28211">
        <ele>303.43</ele>
        <time>2021-08-19T20:01:13Z</time>
      </trkpt>
      <trkpt lat="43.12493" lon="-0.28211">
        <ele>303.43</ele>
        <time>2021-08-19T20:01:14Z</time>
      </trkpt>
      <trkpt lat="43.12495" lon="-0.28213">
        <ele>303.43</ele>
        <time>2021-08-19T20:01:15Z</time>
      </trkpt>
      <trkpt lat="43.12496" lon="-0.28213">
        <ele>303.43</ele>
        <time>2021-08-19T20:01:16Z</time>
      </trkpt>
      <trkpt lat="43.12497" lon="-0.28213">
        <ele>303.43</ele>
        <time>2021-08-19T20:01:17Z</time>
      </trkpt>
      <trkpt lat="43.12499" lon="-0.28214">
        <ele>303.43</ele>
        <time>2021-08-19T20:01:18Z</time>
      </trkpt>
      <trkpt lat="43.125" lon="-0.28215">
        <ele>303.43</ele>
        <time>2021-08-19T20:01:19Z</time>
      </trkpt>
      <trkpt lat="43.12501" lon="-0.28217">
        <ele>303.43</ele>
        <time>2021-08-19T20:01:20Z</time>
      </trkpt>
      <trkpt lat="43.12502" lon="-0.2822">
        <ele>303.43</ele>
        <time>2021-08-19T20:01:21Z</time>
      </trkpt>
      <trkpt lat="43.12503" lon="-0.28223">
        <ele>303.43</ele>
        <time>2021-08-19T20:01:22Z</time>
      </trkpt>
      <trkpt lat="43.12503" lon="-0.28227">
        <ele>303.43</ele>
        <time>2021-08-19T20:01:23Z</time>
      </trkpt>
      <trkpt lat="43.12504" lon="-0.28232">
        <ele>303.43</ele>
        <time>2021-08-19T20:01:24Z</time>
      </trkpt>
      <trkpt lat="43.12504" lon="-0.28236">
        <ele>303.43</ele>
        <time>2021-08-19T20:01:25Z</time>
      </trkpt>
      <trkpt lat="43.12503" lon="-0.28276">
        <ele>302.95</ele>
        <time>2021-08-19T20:01:34Z</time>
      </trkpt>
      <trkpt lat="43.12512" lon="-0.28293">
        <ele>302.95</ele>
        <time>2021-08-19T20:01:39Z</time>
      </trkpt>
      <trkpt lat="43.12515" lon="-0.28299">
        <ele>302.95</ele>
        <time>2021-08-19T20:01:41Z</time>
      </trkpt>
      <trkpt lat="43.12517" lon="-0.283">
        <ele>302.95</ele>
        <time>2021-08-19T20:01:42Z</time>
      </trkpt>
      <trkpt lat="43.12531" lon="-0.28304">
        <ele>301.99</ele>
        <time>2021-08-19T20:01:47Z</time>
      </trkpt>
      <trkpt lat="43.12549" lon="-0.28317">
        <ele>301.99</ele>
        <time>2021-08-19T20:01:53Z</time>
      </trkpt>
      <trkpt lat="43.12559" lon="-0.2833">
        <ele>302.47</ele>
        <time>2021-08-19T20:01:57Z</time>
      </trkpt>
      <trkpt lat="43.12561" lon="-0.28335">
        <ele>301.99</ele>
        <time>2021-08-19T20:01:58Z</time>
      </trkpt>
      <trkpt lat="43.12575" lon="-0.28362">
        <ele>303.43</ele>
        <time>2021-08-19T20:02:05Z</time>
      </trkpt>
      <trkpt lat="43.12578" lon="-0.28372">
        <ele>304.88</ele>
        <time>2021-08-19T20:02:11Z</time>
      </trkpt>
      <trkpt lat="43.12579" lon="-0.28374">
        <ele>304.88</ele>
        <time>2021-08-19T20:02:12Z</time>
      </trkpt>
      <trkpt lat="43.1258" lon="-0.28378">
        <ele>305.84</ele>
        <time>2021-08-19T20:02:15Z</time>
      </trkpt>
      <trkpt lat="43.1258" lon="-0.2838">
        <ele>306.32</ele>
        <time>2021-08-19T20:02:16Z</time>
      </trkpt>
      <trkpt lat="43.12584" lon="-0.28396">
        <ele>307.76</ele>
        <time>2021-08-19T20:02:23Z</time>
      </trkpt>
      <trkpt lat="43.12587" lon="-0.2842">
        <ele>309.2</ele>
        <time>2021-08-19T20:02:33Z</time>
      </trkpt>
      <trkpt lat="43.1259" lon="-0.28455">
        <ele>309.68</ele>
        <time>2021-08-19T20:02:43Z</time>
      </trkpt>
      <trkpt lat="43.12594" lon="-0.2849">
        <ele>309.68</ele>
        <time>2021-08-19T20:02:51Z</time>
      </trkpt>
      <trkpt lat="43.12597" lon="-0.28533">
        <ele>309.68</ele>
        <time>2021-08-19T20:03:00Z</time>
      </trkpt>
      <trkpt lat="43.126" lon="-0.28578">
        <ele>308.72</ele>
        <time>2021-08-19T20:03:08Z</time>
      </trkpt>
      <trkpt lat="43.12593" lon="-0.28612">
        <ele>308.72</ele>
        <time>2021-08-19T20:03:15Z</time>
      </trkpt>
      <trkpt lat="43.12587" lon="-0.28627">
        <ele>309.68</ele>
        <time>2021-08-19T20:03:19Z</time>
      </trkpt>
      <trkpt lat="43.12582" lon="-0.28648">
        <ele>311.6</ele>
        <time>2021-08-19T20:03:26Z</time>
      </trkpt>
      <trkpt lat="43.12585" lon="-0.28666">
        <ele>312.57</ele>
        <time>2021-08-19T20:03:33Z</time>
      </trkpt>
      <trkpt lat="43.12592" lon="-0.28681">
        <ele>314.01</ele>
        <time>2021-08-19T20:03:42Z</time>
      </trkpt>
      <trkpt lat="43.12603" lon="-0.28702">
        <ele>315.45</ele>
        <time>2021-08-19T20:03:52Z</time>
      </trkpt>
      <trkpt lat="43.12608" lon="-0.28708">
        <ele>315.93</ele>
        <time>2021-08-19T20:03:56Z</time>
      </trkpt>
      <trkpt lat="43.1261" lon="-0.28709">
        <ele>315.93</ele>
        <time>2021-08-19T20:03:57Z</time>
      </trkpt>
      <trkpt lat="43.12612" lon="-0.28709">
        <ele>315.93</ele>
        <time>2021-08-19T20:03:58Z</time>
      </trkpt>
      <trkpt lat="43.12614" lon="-0.28709">
        <ele>315.93</ele>
        <time>2021-08-19T20:03:59Z</time>
      </trkpt>
      <trkpt lat="43.12617" lon="-0.28709">
        <ele>315.93</ele>
        <time>2021-08-19T20:04:00Z</time>
      </trkpt>
      <trkpt lat="43.12634" lon="-0.2871">
        <ele>314.01</ele>
        <time>2021-08-19T20:04:04Z</time>
      </trkpt>
      <trkpt lat="43.12661" lon="-0.28715">
        <ele>312.09</ele>
        <time>2021-08-19T20:04:11Z</time>
      </trkpt>
      <trkpt lat="43.12662" lon="-0.28718">
        <ele>312.09</ele>
        <time>2021-08-19T20:04:12Z</time>
      </trkpt>
      <trkpt lat="43.12663" lon="-0.28721">
        <ele>312.09</ele>
        <time>2021-08-19T20:04:13Z</time>
      </trkpt>
      <trkpt lat="43.12663" lon="-0.28725">
        <ele>312.09</ele>
        <time>2021-08-19T20:04:14Z</time>
      </trkpt>
      <trkpt lat="43.12663" lon="-0.28728">
        <ele>312.09</ele>
        <time>2021-08-19T20:04:15Z</time>
      </trkpt>
      <trkpt lat="43.12666" lon="-0.28757">
        <ele>312.09</ele>
        <time>2021-08-19T20:04:22Z</time>
      </trkpt>
      <trkpt lat="43.12672" lon="-0.2881">
        <ele>312.09</ele>
        <time>2021-08-19T20:04:32Z</time>
      </trkpt>
      <trkpt lat="43.12676" lon="-0.28857">
        <ele>313.05</ele>
        <time>2021-08-19T20:04:41Z</time>
      </trkpt>
      <trkpt lat="43.12685" lon="-0.28898">
        <ele>313.53</ele>
        <time>2021-08-19T20:04:50Z</time>
      </trkpt>
      <trkpt lat="43.12695" lon="-0.28941">
        <ele>315.45</ele>
        <time>2021-08-19T20:05:00Z</time>
      </trkpt>
      <trkpt lat="43.12702" lon="-0.2897">
        <ele>315.45</ele>
        <time>2021-08-19T20:05:07Z</time>
      </trkpt>
      <trkpt lat="43.12716" lon="-0.29005">
        <ele>315.93</ele>
        <time>2021-08-19T20:05:16Z</time>
      </trkpt>
      <trkpt lat="43.12728" lon="-0.29035">
        <ele>316.89</ele>
        <time>2021-08-19T20:05:24Z</time>
      </trkpt>
      <trkpt lat="43.12739" lon="-0.29064">
        <ele>316.89</ele>
        <time>2021-08-19T20:05:30Z</time>
      </trkpt>
      <trkpt lat="43.12753" lon="-0.29106">
        <ele>317.37</ele>
        <time>2021-08-19T20:05:39Z</time>
      </trkpt>
      <trkpt lat="43.12754" lon="-0.29111">
        <ele>317.37</ele>
        <time>2021-08-19T20:05:40Z</time>
      </trkpt>
      <trkpt lat="43.1276" lon="-0.29142">
        <ele>315.93</ele>
        <time>2021-08-19T20:05:45Z</time>
      </trkpt>
      <trkpt lat="43.12773" lon="-0.29187">
        <ele>315.93</ele>
        <time>2021-08-19T20:05:53Z</time>
      </trkpt>
      <trkpt lat="43.12774" lon="-0.29193">
        <ele>315.93</ele>
        <time>2021-08-19T20:05:54Z</time>
      </trkpt>
      <trkpt lat="43.12777" lon="-0.29248">
        <ele>313.53</ele>
        <time>2021-08-19T20:06:02Z</time>
      </trkpt>
      <trkpt lat="43.12777" lon="-0.29255">
        <ele>313.05</ele>
        <time>2021-08-19T20:06:03Z</time>
      </trkpt>
      <trkpt lat="43.12778" lon="-0.29261">
        <ele>313.05</ele>
        <time>2021-08-19T20:06:04Z</time>
      </trkpt>
      <trkpt lat="43.1278" lon="-0.29265">
        <ele>313.05</ele>
        <time>2021-08-19T20:06:05Z</time>
      </trkpt>
      <trkpt lat="43.12782" lon="-0.29269">
        <ele>313.05</ele>
        <time>2021-08-19T20:06:06Z</time>
      </trkpt>
      <trkpt lat="43.12784" lon="-0.29271">
        <ele>313.05</ele>
        <time>2021-08-19T20:06:07Z</time>
      </trkpt>
      <trkpt lat="43.12787" lon="-0.29274">
        <ele>313.05</ele>
        <time>2021-08-19T20:06:08Z</time>
      </trkpt>
      <trkpt lat="43.1279" lon="-0.29277">
        <ele>313.05</ele>
        <time>2021-08-19T20:06:09Z</time>
      </trkpt>
      <trkpt lat="43.12792" lon="-0.29279">
        <ele>313.05</ele>
        <time>2021-08-19T20:06:10Z</time>
      </trkpt>
      <trkpt lat="43.12812" lon="-0.293">
        <ele>313.05</ele>
        <time>2021-08-19T20:06:17Z</time>
      </trkpt>
      <trkpt lat="43.12837" lon="-0.29334">
        <ele>312.57</ele>
        <time>2021-08-19T20:06:25Z</time>
      </trkpt>
      <trkpt lat="43.12857" lon="-0.29353">
        <ele>311.6</ele>
        <time>2021-08-19T20:06:30Z</time>
      </trkpt>
      <trkpt lat="43.12874" lon="-0.29361">
        <ele>310.16</ele>
        <time>2021-08-19T20:06:34Z</time>
      </trkpt>
      <trkpt lat="43.1288" lon="-0.29364">
        <ele>309.2</ele>
        <time>2021-08-19T20:06:35Z</time>
      </trkpt>
      <trkpt lat="43.12884" lon="-0.29369">
        <ele>308.72</ele>
        <time>2021-08-19T20:06:36Z</time>
      </trkpt>
      <trkpt lat="43.12887" lon="-0.29375">
        <ele>308.24</ele>
        <time>2021-08-19T20:06:37Z</time>
      </trkpt>
      <trkpt lat="43.1289" lon="-0.29382">
        <ele>308.24</ele>
        <time>2021-08-19T20:06:38Z</time>
      </trkpt>
      <trkpt lat="43.12892" lon="-0.29389">
        <ele>308.24</ele>
        <time>2021-08-19T20:06:39Z</time>
      </trkpt>
      <trkpt lat="43.12893" lon="-0.29396">
        <ele>308.72</ele>
        <time>2021-08-19T20:06:40Z</time>
      </trkpt>
      <trkpt lat="43.12893" lon="-0.29401">
        <ele>308.72</ele>
        <time>2021-08-19T20:06:41Z</time>
      </trkpt>
      <trkpt lat="43.12892" lon="-0.29405">
        <ele>309.68</ele>
        <time>2021-08-19T20:06:42Z</time>
      </trkpt>
      <trkpt lat="43.12892" lon="-0.29407">
        <ele>309.68</ele>
        <time>2021-08-19T20:06:43Z</time>
      </trkpt>
      <trkpt lat="43.12891" lon="-0.2941">
        <ele>310.64</ele>
        <time>2021-08-19T20:06:44Z</time>
      </trkpt>
      <trkpt lat="43.12891" lon="-0.29412">
        <ele>310.64</ele>
        <time>2021-08-19T20:06:45Z</time>
      </trkpt>
      <trkpt lat="43.1289" lon="-0.29415">
        <ele>310.64</ele>
        <time>2021-08-19T20:06:46Z</time>
      </trkpt>
      <trkpt lat="43.12882" lon="-0.29436">
        <ele>312.57</ele>
        <time>2021-08-19T20:06:55Z</time>
      </trkpt>
      <trkpt lat="43.12873" lon="-0.2945">
        <ele>314.49</ele>
        <time>2021-08-19T20:07:04Z</time>
      </trkpt>
      <trkpt lat="43.12866" lon="-0.29461">
        <ele>315.93</ele>
        <time>2021-08-19T20:07:11Z</time>
      </trkpt>
      <trkpt lat="43.12864" lon="-0.29463">
        <ele>315.93</ele>
        <time>2021-08-19T20:07:12Z</time>
      </trkpt>
      <trkpt lat="43.12863" lon="-0.29464">
        <ele>316.89</ele>
        <time>2021-08-19T20:07:13Z</time>
      </trkpt>
      <trkpt lat="43.12862" lon="-0.29466">
        <ele>316.89</ele>
        <time>2021-08-19T20:07:14Z</time>
      </trkpt>
      <trkpt lat="43.12862" lon="-0.29468">
        <ele>317.37</ele>
        <time>2021-08-19T20:07:15Z</time>
      </trkpt>
      <trkpt lat="43.12861" lon="-0.2947">
        <ele>317.37</ele>
        <time>2021-08-19T20:07:16Z</time>
      </trkpt>
      <trkpt lat="43.12861" lon="-0.29472">
        <ele>317.37</ele>
        <time>2021-08-19T20:07:17Z</time>
      </trkpt>
      <trkpt lat="43.12863" lon="-0.29496">
        <ele>318.33</ele>
        <time>2021-08-19T20:07:26Z</time>
      </trkpt>
      <trkpt lat="43.12869" lon="-0.29527">
        <ele>318.33</ele>
        <time>2021-08-19T20:07:35Z</time>
      </trkpt>
      <trkpt lat="43.12877" lon="-0.29563">
        <ele>316.41</ele>
        <time>2021-08-19T20:07:43Z</time>
      </trkpt>
      <trkpt lat="43.12888" lon="-0.29597">
        <ele>316.41</ele>
        <time>2021-08-19T20:07:50Z</time>
      </trkpt>
      <trkpt lat="43.12892" lon="-0.29613">
        <ele>316.41</ele>
        <time>2021-08-19T20:07:53Z</time>
      </trkpt>
      <trkpt lat="43.12908" lon="-0.29659">
        <ele>316.89</ele>
        <time>2021-08-19T20:08:02Z</time>
      </trkpt>
      <trkpt lat="43.12918" lon="-0.29701">
        <ele>317.85</ele>
        <time>2021-08-19T20:08:10Z</time>
      </trkpt>
      <trkpt lat="43.12917" lon="-0.29737">
        <ele>318.81</ele>
        <time>2021-08-19T20:08:17Z</time>
      </trkpt>
      <trkpt lat="43.12912" lon="-0.29763">
        <ele>319.78</ele>
        <time>2021-08-19T20:08:24Z</time>
      </trkpt>
      <trkpt lat="43.12903" lon="-0.29786">
        <ele>320.74</ele>
        <time>2021-08-19T20:08:32Z</time>
      </trkpt>
      <trkpt lat="43.12891" lon="-0.29819">
        <ele>322.18</ele>
        <time>2021-08-19T20:08:42Z</time>
      </trkpt>
      <trkpt lat="43.12879" lon="-0.29856">
        <ele>320.74</ele>
        <time>2021-08-19T20:08:51Z</time>
      </trkpt>
      <trkpt lat="43.12866" lon="-0.29885">
        <ele>320.26</ele>
        <time>2021-08-19T20:08:57Z</time>
      </trkpt>
      <trkpt lat="43.12851" lon="-0.29913">
        <ele>320.26</ele>
        <time>2021-08-19T20:09:04Z</time>
      </trkpt>
      <trkpt lat="43.12828" lon="-0.29945">
        <ele>320.26</ele>
        <time>2021-08-19T20:09:12Z</time>
      </trkpt>
      <trkpt lat="43.12803" lon="-0.2997">
        <ele>319.78</ele>
        <time>2021-08-19T20:09:20Z</time>
      </trkpt>
      <trkpt lat="43.12782" lon="-0.29982">
        <ele>319.78</ele>
        <time>2021-08-19T20:09:26Z</time>
      </trkpt>
      <trkpt lat="43.12778" lon="-0.29983">
        <ele>319.3</ele>
        <time>2021-08-19T20:09:27Z</time>
      </trkpt>
      <trkpt lat="43.12741" lon="-0.29992">
        <ele>316.41</ele>
        <time>2021-08-19T20:09:34Z</time>
      </trkpt>
      <trkpt lat="43.12735" lon="-0.29994">
        <ele>316.41</ele>
        <time>2021-08-19T20:09:35Z</time>
      </trkpt>
      <trkpt lat="43.12729" lon="-0.29998">
        <ele>315.93</ele>
        <time>2021-08-19T20:09:36Z</time>
      </trkpt>
      <trkpt lat="43.12724" lon="-0.30002">
        <ele>315.93</ele>
        <time>2021-08-19T20:09:37Z</time>
      </trkpt>
      <trkpt lat="43.12689" lon="-0.30039">
        <ele>313.53</ele>
        <time>2021-08-19T20:09:44Z</time>
      </trkpt>
      <trkpt lat="43.1267" lon="-0.30072">
        <ele>313.53</ele>
        <time>2021-08-19T20:09:50Z</time>
      </trkpt>
      <trkpt lat="43.12668" lon="-0.30077">
        <ele>314.01</ele>
        <time>2021-08-19T20:09:51Z</time>
      </trkpt>
      <trkpt lat="43.12644" lon="-0.30121">
        <ele>312.57</ele>
        <time>2021-08-19T20:09:59Z</time>
      </trkpt>
      <trkpt lat="43.12626" lon="-0.30148">
        <ele>310.64</ele>
        <time>2021-08-19T20:10:04Z</time>
      </trkpt>
      <trkpt lat="43.12619" lon="-0.30157">
        <ele>310.16</ele>
        <time>2021-08-19T20:10:06Z</time>
      </trkpt>
      <trkpt lat="43.12618" lon="-0.30162">
        <ele>310.16</ele>
        <time>2021-08-19T20:10:07Z</time>
      </trkpt>
      <trkpt lat="43.12618" lon="-0.30168">
        <ele>310.16</ele>
        <time>2021-08-19T20:10:08Z</time>
      </trkpt>
      <trkpt lat="43.12619" lon="-0.30172">
        <ele>310.16</ele>
        <time>2021-08-19T20:10:09Z</time>
      </trkpt>
      <trkpt lat="43.12621" lon="-0.30176">
        <ele>310.16</ele>
        <time>2021-08-19T20:10:10Z</time>
      </trkpt>
      <trkpt lat="43.12625" lon="-0.30179">
        <ele>309.68</ele>
        <time>2021-08-19T20:10:11Z</time>
      </trkpt>
      <trkpt lat="43.12629" lon="-0.30182">
        <ele>309.68</ele>
        <time>2021-08-19T20:10:12Z</time>
      </trkpt>
      <trkpt lat="43.12634" lon="-0.30184">
        <ele>309.68</ele>
        <time>2021-08-19T20:10:13Z</time>
      </trkpt>
      <trkpt lat="43.12638" lon="-0.30184">
        <ele>309.68</ele>
        <time>2021-08-19T20:10:14Z</time>
      </trkpt>
      <trkpt lat="43.12642" lon="-0.30184">
        <ele>309.68</ele>
        <time>2021-08-19T20:10:15Z</time>
      </trkpt>
      <trkpt lat="43.12646" lon="-0.30186">
        <ele>309.68</ele>
        <time>2021-08-19T20:10:16Z</time>
      </trkpt>
      <trkpt lat="43.1265" lon="-0.30188">
        <ele>309.68</ele>
        <time>2021-08-19T20:10:17Z</time>
      </trkpt>
      <trkpt lat="43.12653" lon="-0.3019">
        <ele>309.68</ele>
        <time>2021-08-19T20:10:18Z</time>
      </trkpt>
      <trkpt lat="43.12656" lon="-0.30192">
        <ele>309.68</ele>
        <time>2021-08-19T20:10:19Z</time>
      </trkpt>
      <trkpt lat="43.12659" lon="-0.30195">
        <ele>310.16</ele>
        <time>2021-08-19T20:10:20Z</time>
      </trkpt>
      <trkpt lat="43.12677" lon="-0.30216">
        <ele>310.16</ele>
        <time>2021-08-19T20:10:26Z</time>
      </trkpt>
      <trkpt lat="43.12679" lon="-0.3022">
        <ele>310.16</ele>
        <time>2021-08-19T20:10:27Z</time>
      </trkpt>
      <trkpt lat="43.12681" lon="-0.30225">
        <ele>310.16</ele>
        <time>2021-08-19T20:10:28Z</time>
      </trkpt>
      <trkpt lat="43.12682" lon="-0.3023">
        <ele>310.16</ele>
        <time>2021-08-19T20:10:29Z</time>
      </trkpt>
      <trkpt lat="43.12683" lon="-0.30234">
        <ele>310.16</ele>
        <time>2021-08-19T20:10:30Z</time>
      </trkpt>
      <trkpt lat="43.1269" lon="-0.30267">
        <ele>311.12</ele>
        <time>2021-08-19T20:10:38Z</time>
      </trkpt>
      <trkpt lat="43.12701" lon="-0.30319">
        <ele>311.6</ele>
        <time>2021-08-19T20:10:51Z</time>
      </trkpt>
      <trkpt lat="43.12698" lon="-0.3034">
        <ele>311.6</ele>
        <time>2021-08-19T20:10:57Z</time>
      </trkpt>
      <trkpt lat="43.12691" lon="-0.30368">
        <ele>312.09</ele>
        <time>2021-08-19T20:11:06Z</time>
      </trkpt>
      <trkpt lat="43.12693" lon="-0.30387">
        <ele>312.57</ele>
        <time>2021-08-19T20:11:12Z</time>
      </trkpt>
      <trkpt lat="43.12692" lon="-0.3039">
        <ele>312.57</ele>
        <time>2021-08-19T20:11:13Z</time>
      </trkpt>
      <trkpt lat="43.1269" lon="-0.30392">
        <ele>312.57</ele>
        <time>2021-08-19T20:11:14Z</time>
      </trkpt>
      <trkpt lat="43.12688" lon="-0.30393">
        <ele>312.57</ele>
        <time>2021-08-19T20:11:15Z</time>
      </trkpt>
      <trkpt lat="43.12685" lon="-0.30394">
        <ele>312.57</ele>
        <time>2021-08-19T20:11:16Z</time>
      </trkpt>
      <trkpt lat="43.12674" lon="-0.30402">
        <ele>312.57</ele>
        <time>2021-08-19T20:11:21Z</time>
      </trkpt>
      <trkpt lat="43.12673" lon="-0.30404">
        <ele>312.57</ele>
        <time>2021-08-19T20:11:22Z</time>
      </trkpt>
      <trkpt lat="43.12672" lon="-0.30407">
        <ele>312.57</ele>
        <time>2021-08-19T20:11:23Z</time>
      </trkpt>
      <trkpt lat="43.12671" lon="-0.3041">
        <ele>312.57</ele>
        <time>2021-08-19T20:11:24Z</time>
      </trkpt>
      <trkpt lat="43.1267" lon="-0.30413">
        <ele>312.57</ele>
        <time>2021-08-19T20:11:25Z</time>
      </trkpt>
      <trkpt lat="43.1267" lon="-0.30416">
        <ele>312.57</ele>
        <time>2021-08-19T20:11:26Z</time>
      </trkpt>
      <trkpt lat="43.1267" lon="-0.30419">
        <ele>312.57</ele>
        <time>2021-08-19T20:11:27Z</time>
      </trkpt>
      <trkpt lat="43.12674" lon="-0.30422">
        <ele>313.05</ele>
        <time>2021-08-19T20:11:29Z</time>
      </trkpt>
      <trkpt lat="43.12676" lon="-0.30423">
        <ele>313.05</ele>
        <time>2021-08-19T20:11:30Z</time>
      </trkpt>
      <trkpt lat="43.12678" lon="-0.30423">
        <ele>313.05</ele>
        <time>2021-08-19T20:11:31Z</time>
      </trkpt>
      <trkpt lat="43.12681" lon="-0.30423">
        <ele>313.05</ele>
        <time>2021-08-19T20:11:32Z</time>
      </trkpt>
      <trkpt lat="43.12683" lon="-0.30423">
        <ele>313.05</ele>
        <time>2021-08-19T20:11:33Z</time>
      </trkpt>
      <trkpt lat="43.12685" lon="-0.30422">
        <ele>313.05</ele>
        <time>2021-08-19T20:11:34Z</time>
      </trkpt>
      <trkpt lat="43.12688" lon="-0.30422">
        <ele>313.05</ele>
        <time>2021-08-19T20:11:35Z</time>
      </trkpt>
      <trkpt lat="43.1269" lon="-0.30422">
        <ele>313.53</ele>
        <time>2021-08-19T20:11:36Z</time>
      </trkpt>
      <trkpt lat="43.12692" lon="-0.30421">
        <ele>313.53</ele>
        <time>2021-08-19T20:11:37Z</time>
      </trkpt>
      <trkpt lat="43.12695" lon="-0.3042">
        <ele>313.53</ele>
        <time>2021-08-19T20:11:38Z</time>
      </trkpt>
      <trkpt lat="43.12697" lon="-0.30419">
        <ele>313.53</ele>
        <time>2021-08-19T20:11:39Z</time>
      </trkpt>
      <trkpt lat="43.12698" lon="-0.30417">
        <ele>313.53</ele>
        <time>2021-08-19T20:11:40Z</time>
      </trkpt>
      <trkpt lat="43.127" lon="-0.30415">
        <ele>313.53</ele>
        <time>2021-08-19T20:11:41Z</time>
      </trkpt>
      <trkpt lat="43.12703" lon="-0.30412">
        <ele>313.53</ele>
        <time>2021-08-19T20:11:44Z</time>
      </trkpt>
      <trkpt lat="43.12704" lon="-0.30413">
        <ele>313.53</ele>
        <time>2021-08-19T20:11:45Z</time>
      </trkpt>
      <trkpt lat="43.12704" lon="-0.30414">
        <ele>313.53</ele>
        <time>2021-08-19T20:11:46Z</time>
      </trkpt>
      <trkpt lat="43.12702" lon="-0.30415">
        <ele>313.53</ele>
        <time>2021-08-19T20:11:47Z</time>
      </trkpt>
      <trkpt lat="43.12701" lon="-0.30415">
        <ele>313.53</ele>
        <time>2021-08-19T20:11:48Z</time>
      </trkpt>
      <trkpt lat="43.127" lon="-0.30414">
        <ele>313.53</ele>
        <time>2021-08-19T20:11:49Z</time>
      </trkpt>
      <trkpt lat="43.12697" lon="-0.30409">
        <ele>313.53</ele>
        <time>2021-08-19T20:11:55Z</time>
      </trkpt>
      <trkpt lat="43.12697" lon="-0.30407">
        <ele>313.53</ele>
        <time>2021-08-19T20:12:03Z</time>
      </trkpt>
      <trkpt lat="43.12696" lon="-0.30405">
        <ele>313.53</ele>
        <time>2021-08-19T20:12:04Z</time>
      </trkpt>
      <trkpt lat="43.12693" lon="-0.30398">
        <ele>313.53</ele>
        <time>2021-08-19T20:12:08Z</time>
      </trkpt>
      <trkpt lat="43.12686" lon="-0.30394">
        <ele>313.53</ele>
        <time>2021-08-19T20:12:12Z</time>
      </trkpt>
      <trkpt lat="43.12683" lon="-0.30393">
        <ele>313.53</ele>
        <time>2021-08-19T20:12:14Z</time>
      </trkpt>
      <trkpt lat="43.12675" lon="-0.30396">
        <ele>313.53</ele>
        <time>2021-08-19T20:12:19Z</time>
      </trkpt>
      <trkpt lat="43.1267" lon="-0.30397">
        <ele>313.53</ele>
        <time>2021-08-19T20:12:22Z</time>
      </trkpt>
      <trkpt lat="43.12669" lon="-0.30408">
        <ele>313.53</ele>
        <time>2021-08-19T20:12:29Z</time>
      </trkpt>
      <trkpt lat="43.12671" lon="-0.30407">
        <ele>313.53</ele>
        <time>2021-08-19T20:12:30Z</time>
      </trkpt>
      <trkpt lat="43.12673" lon="-0.30404">
        <ele>313.53</ele>
        <time>2021-08-19T20:12:31Z</time>
      </trkpt>
      <trkpt lat="43.12685" lon="-0.30382">
        <ele>313.53</ele>
        <time>2021-08-19T20:12:39Z</time>
      </trkpt>
      <trkpt lat="43.12693" lon="-0.30358">
        <ele>312.57</ele>
        <time>2021-08-19T20:12:46Z</time>
      </trkpt>
      <trkpt lat="43.12696" lon="-0.30356">
        <ele>312.57</ele>
        <time>2021-08-19T20:12:47Z</time>
      </trkpt>
      <trkpt lat="43.12699" lon="-0.30357">
        <ele>312.09</ele>
        <time>2021-08-19T20:12:48Z</time>
      </trkpt>
      <trkpt lat="43.12701" lon="-0.30359">
        <ele>312.09</ele>
        <time>2021-08-19T20:12:49Z</time>
      </trkpt>
      <trkpt lat="43.12703" lon="-0.30362">
        <ele>312.09</ele>
        <time>2021-08-19T20:12:50Z</time>
      </trkpt>
      <trkpt lat="43.12704" lon="-0.30366">
        <ele>312.09</ele>
        <time>2021-08-19T20:12:51Z</time>
      </trkpt>
      <trkpt lat="43.1271" lon="-0.30399">
        <ele>312.09</ele>
        <time>2021-08-19T20:13:00Z</time>
      </trkpt>
      <trkpt lat="43.12717" lon="-0.30423">
        <ele>313.05</ele>
        <time>2021-08-19T20:13:06Z</time>
      </trkpt>
      <trkpt lat="43.12721" lon="-0.30451">
        <ele>313.05</ele>
        <time>2021-08-19T20:13:14Z</time>
      </trkpt>
      <trkpt lat="43.12725" lon="-0.30454">
        <ele>313.05</ele>
        <time>2021-08-19T20:13:16Z</time>
      </trkpt>
      <trkpt lat="43.12737" lon="-0.30454">
        <ele>313.05</ele>
        <time>2021-08-19T20:13:21Z</time>
      </trkpt>
      <trkpt lat="43.12737" lon="-0.3045">
        <ele>313.05</ele>
        <time>2021-08-19T20:13:26Z</time>
      </trkpt>
      <trkpt lat="43.12731" lon="-0.30454">
        <ele>313.05</ele>
        <time>2021-08-19T20:13:30Z</time>
      </trkpt>
      <trkpt lat="43.12727" lon="-0.30455">
        <ele>313.05</ele>
        <time>2021-08-19T20:13:32Z</time>
      </trkpt>
      <trkpt lat="43.12724" lon="-0.30459">
        <ele>313.05</ele>
        <time>2021-08-19T20:13:34Z</time>
      </trkpt>
      <trkpt lat="43.12724" lon="-0.30462">
        <ele>313.05</ele>
        <time>2021-08-19T20:13:35Z</time>
      </trkpt>
      <trkpt lat="43.12724" lon="-0.30465">
        <ele>313.05</ele>
        <time>2021-08-19T20:13:36Z</time>
      </trkpt>
      <trkpt lat="43.12724" lon="-0.3047">
        <ele>313.05</ele>
        <time>2021-08-19T20:13:37Z</time>
      </trkpt>
      <trkpt lat="43.12724" lon="-0.30474">
        <ele>313.05</ele>
        <time>2021-08-19T20:13:38Z</time>
      </trkpt>
      <trkpt lat="43.12729" lon="-0.30515">
        <ele>313.05</ele>
        <time>2021-08-19T20:13:46Z</time>
      </trkpt>
      <trkpt lat="43.12734" lon="-0.30557">
        <ele>313.05</ele>
        <time>2021-08-19T20:13:54Z</time>
      </trkpt>
      <trkpt lat="43.12739" lon="-0.30602">
        <ele>313.53</ele>
        <time>2021-08-19T20:14:03Z</time>
      </trkpt>
      <trkpt lat="43.12742" lon="-0.3063">
        <ele>314.49</ele>
        <time>2021-08-19T20:14:10Z</time>
      </trkpt>
      <trkpt lat="43.12744" lon="-0.30654">
        <ele>314.97</ele>
        <time>2021-08-19T20:14:18Z</time>
      </trkpt>
      <trkpt lat="43.12747" lon="-0.30682">
        <ele>315.45</ele>
        <time>2021-08-19T20:14:26Z</time>
      </trkpt>
      <trkpt lat="43.12751" lon="-0.3072">
        <ele>316.41</ele>
        <time>2021-08-19T20:14:35Z</time>
      </trkpt>
      <trkpt lat="43.12756" lon="-0.30759">
        <ele>318.33</ele>
        <time>2021-08-19T20:14:46Z</time>
      </trkpt>
      <trkpt lat="43.12757" lon="-0.30768">
        <ele>318.81</ele>
        <time>2021-08-19T20:14:50Z</time>
      </trkpt>
      <trkpt lat="43.12756" lon="-0.30769">
        <ele>318.81</ele>
        <time>2021-08-19T20:14:51Z</time>
      </trkpt>
      <trkpt lat="43.12755" lon="-0.30771">
        <ele>319.3</ele>
        <time>2021-08-19T20:14:52Z</time>
      </trkpt>
      <trkpt lat="43.12754" lon="-0.30772">
        <ele>319.3</ele>
        <time>2021-08-19T20:14:53Z</time>
      </trkpt>
      <trkpt lat="43.12752" lon="-0.30773">
        <ele>319.3</ele>
        <time>2021-08-19T20:14:54Z</time>
      </trkpt>
      <trkpt lat="43.1275" lon="-0.30772">
        <ele>319.3</ele>
        <time>2021-08-19T20:15:01Z</time>
      </trkpt>
      <trkpt lat="43.12749" lon="-0.30773">
        <ele>319.3</ele>
        <time>2021-08-19T20:15:12Z</time>
      </trkpt>
      <trkpt lat="43.12749" lon="-0.30772">
        <ele>319.3</ele>
        <time>2021-08-19T20:15:22Z</time>
      </trkpt>
      <trkpt lat="43.1275" lon="-0.30774">
        <ele>319.3</ele>
        <time>2021-08-19T20:15:34Z</time>
      </trkpt>
      <trkpt lat="43.12751" lon="-0.30773">
        <ele>319.3</ele>
        <time>2021-08-19T20:15:48Z</time>
      </trkpt>
      <trkpt lat="43.12752" lon="-0.30772">
        <ele>319.78</ele>
        <time>2021-08-19T20:16:03Z</time>
      </trkpt>
      <trkpt lat="43.12749" lon="-0.30777">
        <ele>319.78</ele>
        <time>2021-08-19T20:16:14Z</time>
      </trkpt>
      <trkpt lat="43.12748" lon="-0.30779">
        <ele>319.78</ele>
        <time>2021-08-19T20:16:15Z</time>
      </trkpt>
      <trkpt lat="43.12746" lon="-0.30781">
        <ele>319.78</ele>
        <time>2021-08-19T20:16:16Z</time>
      </trkpt>
      <trkpt lat="43.12744" lon="-0.30783">
        <ele>319.78</ele>
        <time>2021-08-19T20:16:17Z</time>
      </trkpt>
      <trkpt lat="43.12741" lon="-0.30784">
        <ele>319.78</ele>
        <time>2021-08-19T20:16:18Z</time>
      </trkpt>
      <trkpt lat="43.12739" lon="-0.30786">
        <ele>319.78</ele>
        <time>2021-08-19T20:16:19Z</time>
      </trkpt>
      <trkpt lat="43.12736" lon="-0.30787">
        <ele>319.78</ele>
        <time>2021-08-19T20:16:20Z</time>
      </trkpt>
      <trkpt lat="43.12715" lon="-0.30795">
        <ele>321.22</ele>
        <time>2021-08-19T20:16:28Z</time>
      </trkpt>
      <trkpt lat="43.127" lon="-0.308">
        <ele>322.66</ele>
        <time>2021-08-19T20:16:36Z</time>
      </trkpt>
      <trkpt lat="43.12694" lon="-0.30816">
        <ele>324.1</ele>
        <time>2021-08-19T20:16:44Z</time>
      </trkpt>
      <trkpt lat="43.12692" lon="-0.3084">
        <ele>326.02</ele>
        <time>2021-08-19T20:16:54Z</time>
      </trkpt>
      <trkpt lat="43.12688" lon="-0.30862">
        <ele>327.47</ele>
        <time>2021-08-19T20:17:04Z</time>
      </trkpt>
      <trkpt lat="43.12684" lon="-0.30881">
        <ele>328.91</ele>
        <time>2021-08-19T20:17:13Z</time>
      </trkpt>
      <trkpt lat="43.12682" lon="-0.30904">
        <ele>330.83</ele>
        <time>2021-08-19T20:17:23Z</time>
      </trkpt>
      <trkpt lat="43.12681" lon="-0.30926">
        <ele>332.27</ele>
        <time>2021-08-19T20:17:33Z</time>
      </trkpt>
      <trkpt lat="43.12681" lon="-0.30941">
        <ele>333.71</ele>
        <time>2021-08-19T20:17:40Z</time>
      </trkpt>
      <trkpt lat="43.12688" lon="-0.30969">
        <ele>334.68</ele>
        <time>2021-08-19T20:17:50Z</time>
      </trkpt>
      <trkpt lat="43.12696" lon="-0.31005">
        <ele>335.64</ele>
        <time>2021-08-19T20:18:00Z</time>
      </trkpt>
      <trkpt lat="43.12706" lon="-0.31051">
        <ele>335.64</ele>
        <time>2021-08-19T20:18:10Z</time>
      </trkpt>
      <trkpt lat="43.12718" lon="-0.311">
        <ele>335.64</ele>
        <time>2021-08-19T20:18:19Z</time>
      </trkpt>
      <trkpt lat="43.12728" lon="-0.31143">
        <ele>334.2</ele>
        <time>2021-08-19T20:18:26Z</time>
      </trkpt>
      <trkpt lat="43.12738" lon="-0.31191">
        <ele>333.71</ele>
        <time>2021-08-19T20:18:33Z</time>
      </trkpt>
      <trkpt lat="43.12746" lon="-0.31242">
        <ele>333.23</ele>
        <time>2021-08-19T20:18:41Z</time>
      </trkpt>
      <trkpt lat="43.12751" lon="-0.31291">
        <ele>332.27</ele>
        <time>2021-08-19T20:18:49Z</time>
      </trkpt>
      <trkpt lat="43.12751" lon="-0.31298">
        <ele>331.79</ele>
        <time>2021-08-19T20:18:50Z</time>
      </trkpt>
      <trkpt lat="43.12749" lon="-0.31305">
        <ele>331.31</ele>
        <time>2021-08-19T20:18:51Z</time>
      </trkpt>
      <trkpt lat="43.12745" lon="-0.31321">
        <ele>330.35</ele>
        <time>2021-08-19T20:18:53Z</time>
      </trkpt>
      <trkpt lat="43.12742" lon="-0.31329">
        <ele>329.87</ele>
        <time>2021-08-19T20:18:54Z</time>
      </trkpt>
      <trkpt lat="43.12739" lon="-0.31337">
        <ele>329.39</ele>
        <time>2021-08-19T20:18:55Z</time>
      </trkpt>
      <trkpt lat="43.12734" lon="-0.31345">
        <ele>328.91</ele>
        <time>2021-08-19T20:18:56Z</time>
      </trkpt>
      <trkpt lat="43.12729" lon="-0.31353">
        <ele>327.95</ele>
        <time>2021-08-19T20:18:57Z</time>
      </trkpt>
      <trkpt lat="43.12724" lon="-0.31359">
        <ele>327.47</ele>
        <time>2021-08-19T20:18:58Z</time>
      </trkpt>
      <trkpt lat="43.12717" lon="-0.31366">
        <ele>327.47</ele>
        <time>2021-08-19T20:18:59Z</time>
      </trkpt>
      <trkpt lat="43.12683" lon="-0.31399">
        <ele>324.1</ele>
        <time>2021-08-19T20:19:04Z</time>
      </trkpt>
      <trkpt lat="43.12639" lon="-0.31442">
        <ele>320.74</ele>
        <time>2021-08-19T20:19:10Z</time>
      </trkpt>
      <trkpt lat="43.12598" lon="-0.31497">
        <ele>317.37</ele>
        <time>2021-08-19T20:19:16Z</time>
      </trkpt>
      <trkpt lat="43.12593" lon="-0.31509">
        <ele>317.37</ele>
        <time>2021-08-19T20:19:17Z</time>
      </trkpt>
      <trkpt lat="43.12589" lon="-0.31521">
        <ele>316.41</ele>
        <time>2021-08-19T20:19:18Z</time>
      </trkpt>
      <trkpt lat="43.12587" lon="-0.31533">
        <ele>316.41</ele>
        <time>2021-08-19T20:19:19Z</time>
      </trkpt>
      <trkpt lat="43.12586" lon="-0.31546">
        <ele>316.41</ele>
        <time>2021-08-19T20:19:20Z</time>
      </trkpt>
      <trkpt lat="43.12585" lon="-0.31559">
        <ele>316.41</ele>
        <time>2021-08-19T20:19:21Z</time>
      </trkpt>
      <trkpt lat="43.12585" lon="-0.3157">
        <ele>315.45</ele>
        <time>2021-08-19T20:19:22Z</time>
      </trkpt>
      <trkpt lat="43.12586" lon="-0.31582">
        <ele>315.45</ele>
        <time>2021-08-19T20:19:23Z</time>
      </trkpt>
      <trkpt lat="43.12588" lon="-0.31594">
        <ele>315.45</ele>
        <time>2021-08-19T20:19:24Z</time>
      </trkpt>
      <trkpt lat="43.1259" lon="-0.31606">
        <ele>315.45</ele>
        <time>2021-08-19T20:19:25Z</time>
      </trkpt>
      <trkpt lat="43.12602" lon="-0.31667">
        <ele>315.45</ele>
        <time>2021-08-19T20:19:31Z</time>
      </trkpt>
      <trkpt lat="43.12603" lon="-0.31676">
        <ele>315.45</ele>
        <time>2021-08-19T20:19:32Z</time>
      </trkpt>
      <trkpt lat="43.12604" lon="-0.31699">
        <ele>316.41</ele>
        <time>2021-08-19T20:19:35Z</time>
      </trkpt>
      <trkpt lat="43.12602" lon="-0.3173">
        <ele>316.89</ele>
        <time>2021-08-19T20:19:41Z</time>
      </trkpt>
      <trkpt lat="43.12597" lon="-0.31745">
        <ele>317.37</ele>
        <time>2021-08-19T20:19:46Z</time>
      </trkpt>
      <trkpt lat="43.12596" lon="-0.31745">
        <ele>317.37</ele>
        <time>2021-08-19T20:19:47Z</time>
      </trkpt>
      <trkpt lat="43.12592" lon="-0.3174">
        <ele>317.37</ele>
        <time>2021-08-19T20:19:51Z</time>
      </trkpt>
      <trkpt lat="43.12591" lon="-0.31739">
        <ele>316.89</ele>
        <time>2021-08-19T20:19:52Z</time>
      </trkpt>
      <trkpt lat="43.12591" lon="-0.31737">
        <ele>316.89</ele>
        <time>2021-08-19T20:19:53Z</time>
      </trkpt>
      <trkpt lat="43.12592" lon="-0.31734">
        <ele>316.89</ele>
        <time>2021-08-19T20:19:54Z</time>
      </trkpt>
      <trkpt lat="43.12594" lon="-0.31734">
        <ele>316.89</ele>
        <time>2021-08-19T20:19:55Z</time>
      </trkpt>
      <trkpt lat="43.12597" lon="-0.31734">
        <ele>316.89</ele>
        <time>2021-08-19T20:19:56Z</time>
      </trkpt>
      <trkpt lat="43.12599" lon="-0.31736">
        <ele>316.89</ele>
        <time>2021-08-19T20:19:57Z</time>
      </trkpt>
      <trkpt lat="43.126" lon="-0.31738">
        <ele>316.89</ele>
        <time>2021-08-19T20:19:58Z</time>
      </trkpt>
      <trkpt lat="43.12601" lon="-0.3174">
        <ele>316.89</ele>
        <time>2021-08-19T20:19:59Z</time>
      </trkpt>
      <trkpt lat="43.12601" lon="-0.31743">
        <ele>316.89</ele>
        <time>2021-08-19T20:20:00Z</time>
      </trkpt>
      <trkpt lat="43.12601" lon="-0.31745">
        <ele>316.89</ele>
        <time>2021-08-19T20:20:01Z</time>
      </trkpt>
      <trkpt lat="43.126" lon="-0.31747">
        <ele>316.89</ele>
        <time>2021-08-19T20:20:02Z</time>
      </trkpt>
      <trkpt lat="43.12598" lon="-0.31756">
        <ele>316.89</ele>
        <time>2021-08-19T20:20:05Z</time>
      </trkpt>
      <trkpt lat="43.12599" lon="-0.31757">
        <ele>317.37</ele>
        <time>2021-08-19T20:20:06Z</time>
      </trkpt>
      <trkpt lat="43.12601" lon="-0.31758">
        <ele>317.37</ele>
        <time>2021-08-19T20:20:07Z</time>
      </trkpt>
      <trkpt lat="43.12602" lon="-0.31758">
        <ele>317.37</ele>
        <time>2021-08-19T20:20:12Z</time>
      </trkpt>
      <trkpt lat="43.12601" lon="-0.31757">
        <ele>317.37</ele>
        <time>2021-08-19T20:20:29Z</time>
      </trkpt>
      <trkpt lat="43.12601" lon="-0.31759">
        <ele>317.37</ele>
        <time>2021-08-19T20:20:44Z</time>
      </trkpt>
      <trkpt lat="43.12601" lon="-0.31759">
        <ele>317.85</ele>
        <time>2021-08-19T20:20:58Z</time>
      </trkpt>
      <trkpt lat="43.12601" lon="-0.31759">
        <ele>317.85</ele>
        <time>2021-08-19T20:21:17Z</time>
      </trkpt>
      <trkpt lat="43.12602" lon="-0.31759">
        <ele>317.85</ele>
        <time>2021-08-19T20:21:31Z</time>
      </trkpt>
      <trkpt lat="43.12601" lon="-0.31759">
        <ele>317.85</ele>
        <time>2021-08-19T20:21:52Z</time>
      </trkpt>
      <trkpt lat="43.12601" lon="-0.31758">
        <ele>317.85</ele>
        <time>2021-08-19T20:22:07Z</time>
      </trkpt>
      <trkpt lat="43.12601" lon="-0.31757">
        <ele>317.85</ele>
        <time>2021-08-19T20:22:25Z</time>
      </trkpt>
      <trkpt lat="43.12601" lon="-0.31757">
        <ele>317.85</ele>
        <time>2021-08-19T20:22:40Z</time>
      </trkpt>
      <trkpt lat="43.12602" lon="-0.31757">
        <ele>317.85</ele>
        <time>2021-08-19T20:22:58Z</time>
      </trkpt>
      <trkpt lat="43.12602" lon="-0.31758">
        <ele>317.85</ele>
        <time>2021-08-19T20:23:13Z</time>
      </trkpt>
      <trkpt lat="43.12602" lon="-0.31759">
        <ele>317.85</ele>
        <time>2021-08-19T20:23:14Z</time>
      </trkpt>
      <trkpt lat="43.12601" lon="-0.3176">
        <ele>317.85</ele>
        <time>2021-08-19T20:23:15Z</time>
      </trkpt>
      <trkpt lat="43.12594" lon="-0.31769">
        <ele>317.85</ele>
        <time>2021-08-19T20:23:21Z</time>
      </trkpt>
      <trkpt lat="43.12587" lon="-0.31799">
        <ele>317.85</ele>
        <time>2021-08-19T20:23:28Z</time>
      </trkpt>
      <trkpt lat="43.12572" lon="-0.31838">
        <ele>317.85</ele>
        <time>2021-08-19T20:23:36Z</time>
      </trkpt>
      <trkpt lat="43.12552" lon="-0.31884">
        <ele>318.81</ele>
        <time>2021-08-19T20:23:46Z</time>
      </trkpt>
      <trkpt lat="43.12548" lon="-0.31917">
        <ele>319.78</ele>
        <time>2021-08-19T20:23:53Z</time>
      </trkpt>
      <trkpt lat="43.12546" lon="-0.31945">
        <ele>321.7</ele>
        <time>2021-08-19T20:24:01Z</time>
      </trkpt>
      <trkpt lat="43.12543" lon="-0.31977">
        <ele>323.62</ele>
        <time>2021-08-19T20:24:10Z</time>
      </trkpt>
      <trkpt lat="43.12541" lon="-0.32019">
        <ele>325.54</ele>
        <time>2021-08-19T20:24:22Z</time>
      </trkpt>
      <trkpt lat="43.12543" lon="-0.32058">
        <ele>326.99</ele>
        <time>2021-08-19T20:24:33Z</time>
      </trkpt>
      <trkpt lat="43.12546" lon="-0.32105">
        <ele>328.91</ele>
        <time>2021-08-19T20:24:46Z</time>
      </trkpt>
      <trkpt lat="43.1255" lon="-0.32143">
        <ele>329.87</ele>
        <time>2021-08-19T20:24:57Z</time>
      </trkpt>
      <trkpt lat="43.1255" lon="-0.32166">
        <ele>330.35</ele>
        <time>2021-08-19T20:25:04Z</time>
      </trkpt>
      <trkpt lat="43.12552" lon="-0.3218">
        <ele>330.83</ele>
        <time>2021-08-19T20:25:10Z</time>
      </trkpt>
      <trkpt lat="43.12552" lon="-0.32184">
        <ele>330.83</ele>
        <time>2021-08-19T20:25:12Z</time>
      </trkpt>
      <trkpt lat="43.12553" lon="-0.32185">
        <ele>330.83</ele>
        <time>2021-08-19T20:25:13Z</time>
      </trkpt>
      <trkpt lat="43.12562" lon="-0.32193">
        <ele>331.31</ele>
        <time>2021-08-19T20:25:20Z</time>
      </trkpt>
      <trkpt lat="43.12563" lon="-0.32196">
        <ele>331.31</ele>
        <time>2021-08-19T20:25:22Z</time>
      </trkpt>
      <trkpt lat="43.12563" lon="-0.32197">
        <ele>331.31</ele>
        <time>2021-08-19T20:25:23Z</time>
      </trkpt>
      <trkpt lat="43.12561" lon="-0.322">
        <ele>331.31</ele>
        <time>2021-08-19T20:25:27Z</time>
      </trkpt>
      <trkpt lat="43.12561" lon="-0.32198">
        <ele>331.31</ele>
        <time>2021-08-19T20:25:33Z</time>
      </trkpt>
      <trkpt lat="43.1256" lon="-0.32196">
        <ele>331.31</ele>
        <time>2021-08-19T20:25:34Z</time>
      </trkpt>
      <trkpt lat="43.1256" lon="-0.32195">
        <ele>331.31</ele>
        <time>2021-08-19T20:25:35Z</time>
      </trkpt>
      <trkpt lat="43.1256" lon="-0.32193">
        <ele>331.31</ele>
        <time>2021-08-19T20:25:36Z</time>
      </trkpt>
      <trkpt lat="43.12559" lon="-0.32191">
        <ele>331.31</ele>
        <time>2021-08-19T20:25:37Z</time>
      </trkpt>
      <trkpt lat="43.12558" lon="-0.3219">
        <ele>331.31</ele>
        <time>2021-08-19T20:25:38Z</time>
      </trkpt>
      <trkpt lat="43.12557" lon="-0.32188">
        <ele>331.31</ele>
        <time>2021-08-19T20:25:39Z</time>
      </trkpt>
      <trkpt lat="43.12555" lon="-0.32187">
        <ele>331.31</ele>
        <time>2021-08-19T20:25:40Z</time>
      </trkpt>
      <trkpt lat="43.12554" lon="-0.32186">
        <ele>331.31</ele>
        <time>2021-08-19T20:25:41Z</time>
      </trkpt>
      <trkpt lat="43.12552" lon="-0.32185">
        <ele>331.31</ele>
        <time>2021-08-19T20:25:42Z</time>
      </trkpt>
      <trkpt lat="43.12551" lon="-0.32184">
        <ele>331.31</ele>
        <time>2021-08-19T20:25:43Z</time>
      </trkpt>
      <trkpt lat="43.1255" lon="-0.32182">
        <ele>331.31</ele>
        <time>2021-08-19T20:25:44Z</time>
      </trkpt>
      <trkpt lat="43.12552" lon="-0.32181">
        <ele>331.31</ele>
        <time>2021-08-19T20:25:45Z</time>
      </trkpt>
      <trkpt lat="43.12553" lon="-0.32181">
        <ele>331.31</ele>
        <time>2021-08-19T20:25:46Z</time>
      </trkpt>
      <trkpt lat="43.12554" lon="-0.32186">
        <ele>331.31</ele>
        <time>2021-08-19T20:25:48Z</time>
      </trkpt>
      <trkpt lat="43.12555" lon="-0.32189">
        <ele>331.31</ele>
        <time>2021-08-19T20:25:49Z</time>
      </trkpt>
      <trkpt lat="43.12555" lon="-0.32192">
        <ele>331.31</ele>
        <time>2021-08-19T20:25:50Z</time>
      </trkpt>
      <trkpt lat="43.1256" lon="-0.32226">
        <ele>331.79</ele>
        <time>2021-08-19T20:26:00Z</time>
      </trkpt>
      <trkpt lat="43.12565" lon="-0.32256">
        <ele>333.71</ele>
        <time>2021-08-19T20:26:10Z</time>
      </trkpt>
      <trkpt lat="43.12568" lon="-0.32278">
        <ele>335.64</ele>
        <time>2021-08-19T20:26:18Z</time>
      </trkpt>
      <trkpt lat="43.1257" lon="-0.32293">
        <ele>336.6</ele>
        <time>2021-08-19T20:26:25Z</time>
      </trkpt>
      <trkpt lat="43.12573" lon="-0.32313">
        <ele>338.52</ele>
        <time>2021-08-19T20:26:34Z</time>
      </trkpt>
      <trkpt lat="43.12575" lon="-0.32336">
        <ele>339.96</ele>
        <time>2021-08-19T20:26:44Z</time>
      </trkpt>
      <trkpt lat="43.12575" lon="-0.3236">
        <ele>341.41</ele>
        <time>2021-08-19T20:26:54Z</time>
      </trkpt>
      <trkpt lat="43.12574" lon="-0.32382">
        <ele>343.33</ele>
        <time>2021-08-19T20:27:03Z</time>
      </trkpt>
      <trkpt lat="43.12573" lon="-0.324">
        <ele>344.77</ele>
        <time>2021-08-19T20:27:11Z</time>
      </trkpt>
      <trkpt lat="43.12569" lon="-0.32423">
        <ele>346.21</ele>
        <time>2021-08-19T20:27:21Z</time>
      </trkpt>
      <trkpt lat="43.12564" lon="-0.32446">
        <ele>347.65</ele>
        <time>2021-08-19T20:27:30Z</time>
      </trkpt>
      <trkpt lat="43.1256" lon="-0.32472">
        <ele>349.1</ele>
        <time>2021-08-19T20:27:40Z</time>
      </trkpt>
      <trkpt lat="43.12559" lon="-0.32476">
        <ele>349.1</ele>
        <time>2021-08-19T20:27:42Z</time>
      </trkpt>
      <trkpt lat="43.12558" lon="-0.32478">
        <ele>349.1</ele>
        <time>2021-08-19T20:27:43Z</time>
      </trkpt>
      <trkpt lat="43.12558" lon="-0.3248">
        <ele>349.1</ele>
        <time>2021-08-19T20:27:44Z</time>
      </trkpt>
      <trkpt lat="43.12558" lon="-0.32483">
        <ele>349.58</ele>
        <time>2021-08-19T20:27:45Z</time>
      </trkpt>
      <trkpt lat="43.12558" lon="-0.32485">
        <ele>349.58</ele>
        <time>2021-08-19T20:27:46Z</time>
      </trkpt>
      <trkpt lat="43.12558" lon="-0.32488">
        <ele>349.58</ele>
        <time>2021-08-19T20:27:47Z</time>
      </trkpt>
      <trkpt lat="43.12555" lon="-0.32511">
        <ele>350.06</ele>
        <time>2021-08-19T20:27:55Z</time>
      </trkpt>
      <trkpt lat="43.1255" lon="-0.32548">
        <ele>348.62</ele>
        <time>2021-08-19T20:28:02Z</time>
      </trkpt>
      <trkpt lat="43.1255" lon="-0.32554">
        <ele>348.62</ele>
        <time>2021-08-19T20:28:03Z</time>
      </trkpt>
      <trkpt lat="43.12548" lon="-0.32587">
        <ele>347.65</ele>
        <time>2021-08-19T20:28:08Z</time>
      </trkpt>
      <trkpt lat="43.12553" lon="-0.3264">
        <ele>347.17</ele>
        <time>2021-08-19T20:28:17Z</time>
      </trkpt>
      <trkpt lat="43.12554" lon="-0.32643">
        <ele>347.17</ele>
        <time>2021-08-19T20:28:22Z</time>
      </trkpt>
      <trkpt lat="43.12557" lon="-0.32642">
        <ele>347.17</ele>
        <time>2021-08-19T20:28:27Z</time>
      </trkpt>
      <trkpt lat="43.12558" lon="-0.32642">
        <ele>347.17</ele>
        <time>2021-08-19T20:28:32Z</time>
      </trkpt>
      <trkpt lat="43.12562" lon="-0.32644">
        <ele>347.17</ele>
        <time>2021-08-19T20:28:40Z</time>
      </trkpt>
      <trkpt lat="43.12561" lon="-0.32643">
        <ele>347.17</ele>
        <time>2021-08-19T20:28:50Z</time>
      </trkpt>
      <trkpt lat="43.12556" lon="-0.32645">
        <ele>347.17</ele>
        <time>2021-08-19T20:28:57Z</time>
      </trkpt>
      <trkpt lat="43.12556" lon="-0.3265">
        <ele>347.17</ele>
        <time>2021-08-19T20:29:01Z</time>
      </trkpt>
      <trkpt lat="43.12556" lon="-0.32651">
        <ele>347.17</ele>
        <time>2021-08-19T20:29:02Z</time>
      </trkpt>
      <trkpt lat="43.12556" lon="-0.32653">
        <ele>347.17</ele>
        <time>2021-08-19T20:29:03Z</time>
      </trkpt>
      <trkpt lat="43.12557" lon="-0.32655">
        <ele>347.17</ele>
        <time>2021-08-19T20:29:04Z</time>
      </trkpt>
      <trkpt lat="43.12558" lon="-0.32658">
        <ele>347.17</ele>
        <time>2021-08-19T20:29:05Z</time>
      </trkpt>
      <trkpt lat="43.12558" lon="-0.3266">
        <ele>347.17</ele>
        <time>2021-08-19T20:29:06Z</time>
      </trkpt>
      <trkpt lat="43.12559" lon="-0.3266">
        <ele>346.69</ele>
        <time>2021-08-19T20:29:12Z</time>
      </trkpt>
      <trkpt lat="43.12561" lon="-0.3266">
        <ele>346.69</ele>
        <time>2021-08-19T20:29:18Z</time>
      </trkpt>
    </trkseg>
  </trk>
  <trk>
    <name><![CDATA[14 FD]]></name>
    <trkseg>
      <trkpt lat="43.12559" lon="-0.32667">
        <ele>348.62</ele>
        <time>2021-08-20T03:43:06Z</time>
      </trkpt>
      <trkpt lat="43.1256" lon="-0.32669">
        <ele>348.62</ele>
        <time>2021-08-20T03:43:13Z</time>
      </trkpt>
      <trkpt lat="43.12564" lon="-0.32686">
        <ele>348.62</ele>
        <time>2021-08-20T03:43:21Z</time>
      </trkpt>
      <trkpt lat="43.1257" lon="-0.32716">
        <ele>347.65</ele>
        <time>2021-08-20T03:43:29Z</time>
      </trkpt>
      <trkpt lat="43.12573" lon="-0.32732">
        <ele>347.17</ele>
        <time>2021-08-20T03:43:32Z</time>
      </trkpt>
      <trkpt lat="43.12586" lon="-0.32786">
        <ele>345.73</ele>
        <time>2021-08-20T03:43:41Z</time>
      </trkpt>
      <trkpt lat="43.12597" lon="-0.32833">
        <ele>345.25</ele>
        <time>2021-08-20T03:43:49Z</time>
      </trkpt>
      <trkpt lat="43.12613" lon="-0.32891">
        <ele>344.77</ele>
        <time>2021-08-20T03:43:59Z</time>
      </trkpt>
      <trkpt lat="43.12614" lon="-0.32896">
        <ele>344.77</ele>
        <time>2021-08-20T03:44:00Z</time>
      </trkpt>
      <trkpt lat="43.12633" lon="-0.32939">
        <ele>344.77</ele>
        <time>2021-08-20T03:44:09Z</time>
      </trkpt>
      <trkpt lat="43.12661" lon="-0.32981">
        <ele>344.77</ele>
        <time>2021-08-20T03:44:19Z</time>
      </trkpt>
      <trkpt lat="43.12692" lon="-0.33021">
        <ele>344.77</ele>
        <time>2021-08-20T03:44:29Z</time>
      </trkpt>
      <trkpt lat="43.12723" lon="-0.33064">
        <ele>343.81</ele>
        <time>2021-08-20T03:44:38Z</time>
      </trkpt>
      <trkpt lat="43.12727" lon="-0.33068">
        <ele>343.81</ele>
        <time>2021-08-20T03:44:39Z</time>
      </trkpt>
      <trkpt lat="43.12748" lon="-0.33098">
        <ele>343.81</ele>
        <time>2021-08-20T03:44:46Z</time>
      </trkpt>
      <trkpt lat="43.12757" lon="-0.33112">
        <ele>343.81</ele>
        <time>2021-08-20T03:44:49Z</time>
      </trkpt>
      <trkpt lat="43.12769" lon="-0.33134">
        <ele>345.25</ele>
        <time>2021-08-20T03:44:55Z</time>
      </trkpt>
      <trkpt lat="43.12776" lon="-0.33167">
        <ele>345.25</ele>
        <time>2021-08-20T03:45:02Z</time>
      </trkpt>
      <trkpt lat="43.12776" lon="-0.33173">
        <ele>345.25</ele>
        <time>2021-08-20T03:45:03Z</time>
      </trkpt>
      <trkpt lat="43.12775" lon="-0.33179">
        <ele>345.25</ele>
        <time>2021-08-20T03:45:04Z</time>
      </trkpt>
      <trkpt lat="43.12774" lon="-0.33185">
        <ele>345.25</ele>
        <time>2021-08-20T03:45:05Z</time>
      </trkpt>
      <trkpt lat="43.12774" lon="-0.3319">
        <ele>345.73</ele>
        <time>2021-08-20T03:45:06Z</time>
      </trkpt>
      <trkpt lat="43.12768" lon="-0.33215">
        <ele>347.17</ele>
        <time>2021-08-20T03:45:13Z</time>
      </trkpt>
      <trkpt lat="43.12762" lon="-0.33242">
        <ele>348.13</ele>
        <time>2021-08-20T03:45:22Z</time>
      </trkpt>
      <trkpt lat="43.12755" lon="-0.33277">
        <ele>348.62</ele>
        <time>2021-08-20T03:45:31Z</time>
      </trkpt>
      <trkpt lat="43.12747" lon="-0.33322">
        <ele>349.58</ele>
        <time>2021-08-20T03:45:42Z</time>
      </trkpt>
      <trkpt lat="43.12737" lon="-0.33367">
        <ele>349.58</ele>
        <time>2021-08-20T03:45:51Z</time>
      </trkpt>
      <trkpt lat="43.12724" lon="-0.33427">
        <ele>349.58</ele>
        <time>2021-08-20T03:46:01Z</time>
      </trkpt>
      <trkpt lat="43.1272" lon="-0.33453">
        <ele>348.13</ele>
        <time>2021-08-20T03:46:05Z</time>
      </trkpt>
      <trkpt lat="43.12723" lon="-0.33515">
        <ele>347.17</ele>
        <time>2021-08-20T03:46:13Z</time>
      </trkpt>
      <trkpt lat="43.12737" lon="-0.33598">
        <ele>345.73</ele>
        <time>2021-08-20T03:46:23Z</time>
      </trkpt>
      <trkpt lat="43.12746" lon="-0.33641">
        <ele>346.69</ele>
        <time>2021-08-20T03:46:30Z</time>
      </trkpt>
      <trkpt lat="43.12758" lon="-0.33694">
        <ele>347.17</ele>
        <time>2021-08-20T03:46:39Z</time>
      </trkpt>
      <trkpt lat="43.12761" lon="-0.33709">
        <ele>345.73</ele>
        <time>2021-08-20T03:46:41Z</time>
      </trkpt>
      <trkpt lat="43.1277" lon="-0.33772">
        <ele>342.37</ele>
        <time>2021-08-20T03:46:48Z</time>
      </trkpt>
      <trkpt lat="43.1277" lon="-0.33783">
        <ele>341.41</ele>
        <time>2021-08-20T03:46:49Z</time>
      </trkpt>
      <trkpt lat="43.12767" lon="-0.33819">
        <ele>339.96</ele>
        <time>2021-08-20T03:46:52Z</time>
      </trkpt>
      <trkpt lat="43.12761" lon="-0.33891">
        <ele>340.44</ele>
        <time>2021-08-20T03:46:59Z</time>
      </trkpt>
      <trkpt lat="43.12766" lon="-0.33953">
        <ele>341.89</ele>
        <time>2021-08-20T03:47:07Z</time>
      </trkpt>
      <trkpt lat="43.12776" lon="-0.33988">
        <ele>342.85</ele>
        <time>2021-08-20T03:47:12Z</time>
      </trkpt>
      <trkpt lat="43.12791" lon="-0.34025">
        <ele>345.25</ele>
        <time>2021-08-20T03:47:20Z</time>
      </trkpt>
      <trkpt lat="43.12806" lon="-0.34076">
        <ele>346.21</ele>
        <time>2021-08-20T03:47:30Z</time>
      </trkpt>
      <trkpt lat="43.12815" lon="-0.34129">
        <ele>346.21</ele>
        <time>2021-08-20T03:47:38Z</time>
      </trkpt>
      <trkpt lat="43.12815" lon="-0.34136">
        <ele>346.21</ele>
        <time>2021-08-20T03:47:39Z</time>
      </trkpt>
      <trkpt lat="43.12823" lon="-0.34204">
        <ele>343.81</ele>
        <time>2021-08-20T03:47:48Z</time>
      </trkpt>
      <trkpt lat="43.1284" lon="-0.34288">
        <ele>342.85</ele>
        <time>2021-08-20T03:47:59Z</time>
      </trkpt>
      <trkpt lat="43.12866" lon="-0.34376">
        <ele>341.41</ele>
        <time>2021-08-20T03:48:10Z</time>
      </trkpt>
      <trkpt lat="43.12888" lon="-0.34426">
        <ele>342.85</ele>
        <time>2021-08-20T03:48:18Z</time>
      </trkpt>
      <trkpt lat="43.12917" lon="-0.34491">
        <ele>343.33</ele>
        <time>2021-08-20T03:48:29Z</time>
      </trkpt>
      <trkpt lat="43.12946" lon="-0.34556">
        <ele>344.29</ele>
        <time>2021-08-20T03:48:40Z</time>
      </trkpt>
      <trkpt lat="43.1298" lon="-0.34633">
        <ele>344.29</ele>
        <time>2021-08-20T03:48:52Z</time>
      </trkpt>
      <trkpt lat="43.13" lon="-0.34691">
        <ele>342.85</ele>
        <time>2021-08-20T03:49:00Z</time>
      </trkpt>
      <trkpt lat="43.13002" lon="-0.347">
        <ele>342.85</ele>
        <time>2021-08-20T03:49:01Z</time>
      </trkpt>
      <trkpt lat="43.13003" lon="-0.34709">
        <ele>341.89</ele>
        <time>2021-08-20T03:49:02Z</time>
      </trkpt>
      <trkpt lat="43.13003" lon="-0.34719">
        <ele>341.41</ele>
        <time>2021-08-20T03:49:03Z</time>
      </trkpt>
      <trkpt lat="43.13002" lon="-0.3473">
        <ele>340.92</ele>
        <time>2021-08-20T03:49:04Z</time>
      </trkpt>
      <trkpt lat="43.13001" lon="-0.3474">
        <ele>340.92</ele>
        <time>2021-08-20T03:49:05Z</time>
      </trkpt>
      <trkpt lat="43.12999" lon="-0.34751">
        <ele>339.96</ele>
        <time>2021-08-20T03:49:06Z</time>
      </trkpt>
      <trkpt lat="43.12987" lon="-0.34811">
        <ele>339.96</ele>
        <time>2021-08-20T03:49:12Z</time>
      </trkpt>
      <trkpt lat="43.12985" lon="-0.3482">
        <ele>339.96</ele>
        <time>2021-08-20T03:49:13Z</time>
      </trkpt>
      <trkpt lat="43.12985" lon="-0.34829">
        <ele>339.96</ele>
        <time>2021-08-20T03:49:14Z</time>
      </trkpt>
      <trkpt lat="43.12984" lon="-0.34844">
        <ele>341.41</ele>
        <time>2021-08-20T03:49:16Z</time>
      </trkpt>
      <trkpt lat="43.12986" lon="-0.3488">
        <ele>344.29</ele>
        <time>2021-08-20T03:49:23Z</time>
      </trkpt>
      <trkpt lat="43.12991" lon="-0.34932">
        <ele>345.73</ele>
        <time>2021-08-20T03:49:33Z</time>
      </trkpt>
      <trkpt lat="43.12993" lon="-0.34954">
        <ele>345.25</ele>
        <time>2021-08-20T03:49:37Z</time>
      </trkpt>
      <trkpt lat="43.12999" lon="-0.35024">
        <ele>347.17</ele>
        <time>2021-08-20T03:49:50Z</time>
      </trkpt>
      <trkpt lat="43.13002" lon="-0.35057">
        <ele>348.62</ele>
        <time>2021-08-20T03:49:57Z</time>
      </trkpt>
      <trkpt lat="43.13006" lon="-0.35101">
        <ele>349.1</ele>
        <time>2021-08-20T03:50:06Z</time>
      </trkpt>
      <trkpt lat="43.13012" lon="-0.35142">
        <ele>348.13</ele>
        <time>2021-08-20T03:50:13Z</time>
      </trkpt>
      <trkpt lat="43.1302" lon="-0.35193">
        <ele>346.21</ele>
        <time>2021-08-20T03:50:20Z</time>
      </trkpt>
      <trkpt lat="43.13032" lon="-0.3526">
        <ele>345.25</ele>
        <time>2021-08-20T03:50:29Z</time>
      </trkpt>
      <trkpt lat="43.13034" lon="-0.3528">
        <ele>345.25</ele>
        <time>2021-08-20T03:50:33Z</time>
      </trkpt>
      <trkpt lat="43.13031" lon="-0.35282">
        <ele>344.77</ele>
        <time>2021-08-20T03:50:34Z</time>
      </trkpt>
      <trkpt lat="43.13028" lon="-0.35283">
        <ele>344.77</ele>
        <time>2021-08-20T03:50:35Z</time>
      </trkpt>
      <trkpt lat="43.13024" lon="-0.35284">
        <ele>344.29</ele>
        <time>2021-08-20T03:50:36Z</time>
      </trkpt>
      <trkpt lat="43.13019" lon="-0.35285">
        <ele>344.29</ele>
        <time>2021-08-20T03:50:37Z</time>
      </trkpt>
      <trkpt lat="43.12977" lon="-0.35295">
        <ele>340.92</ele>
        <time>2021-08-20T03:50:44Z</time>
      </trkpt>
      <trkpt lat="43.12953" lon="-0.35299">
        <ele>340.44</ele>
        <time>2021-08-20T03:50:48Z</time>
      </trkpt>
      <trkpt lat="43.12948" lon="-0.35299">
        <ele>340.44</ele>
        <time>2021-08-20T03:50:49Z</time>
      </trkpt>
      <trkpt lat="43.12904" lon="-0.35298">
        <ele>339.96</ele>
        <time>2021-08-20T03:50:57Z</time>
      </trkpt>
      <trkpt lat="43.12879" lon="-0.353">
        <ele>340.44</ele>
        <time>2021-08-20T03:51:02Z</time>
      </trkpt>
      <trkpt lat="43.1287" lon="-0.35302">
        <ele>340.44</ele>
        <time>2021-08-20T03:51:04Z</time>
      </trkpt>
      <trkpt lat="43.12866" lon="-0.35305">
        <ele>340.44</ele>
        <time>2021-08-20T03:51:05Z</time>
      </trkpt>
      <trkpt lat="43.12862" lon="-0.35309">
        <ele>340.44</ele>
        <time>2021-08-20T03:51:06Z</time>
      </trkpt>
      <trkpt lat="43.12859" lon="-0.35314">
        <ele>340.44</ele>
        <time>2021-08-20T03:51:07Z</time>
      </trkpt>
      <trkpt lat="43.12858" lon="-0.3532">
        <ele>341.41</ele>
        <time>2021-08-20T03:51:08Z</time>
      </trkpt>
      <trkpt lat="43.12857" lon="-0.35324">
        <ele>341.41</ele>
        <time>2021-08-20T03:51:09Z</time>
      </trkpt>
      <trkpt lat="43.12856" lon="-0.35329">
        <ele>341.89</ele>
        <time>2021-08-20T03:51:10Z</time>
      </trkpt>
      <trkpt lat="43.12855" lon="-0.35333">
        <ele>341.89</ele>
        <time>2021-08-20T03:51:11Z</time>
      </trkpt>
      <trkpt lat="43.12851" lon="-0.35358">
        <ele>343.33</ele>
        <time>2021-08-20T03:51:17Z</time>
      </trkpt>
      <trkpt lat="43.12853" lon="-0.35398">
        <ele>343.81</ele>
        <time>2021-08-20T03:51:26Z</time>
      </trkpt>
      <trkpt lat="43.12863" lon="-0.35451">
        <ele>344.77</ele>
        <time>2021-08-20T03:51:37Z</time>
      </trkpt>
      <trkpt lat="43.12869" lon="-0.35491">
        <ele>345.25</ele>
        <time>2021-08-20T03:51:45Z</time>
      </trkpt>
      <trkpt lat="43.12872" lon="-0.35539">
        <ele>346.69</ele>
        <time>2021-08-20T03:51:55Z</time>
      </trkpt>
      <trkpt lat="43.12872" lon="-0.35576">
        <ele>346.69</ele>
        <time>2021-08-20T03:52:02Z</time>
      </trkpt>
      <trkpt lat="43.12871" lon="-0.3562">
        <ele>346.69</ele>
        <time>2021-08-20T03:52:10Z</time>
      </trkpt>
      <trkpt lat="43.12871" lon="-0.35626">
        <ele>346.69</ele>
        <time>2021-08-20T03:52:11Z</time>
      </trkpt>
      <trkpt lat="43.12868" lon="-0.3565">
        <ele>346.69</ele>
        <time>2021-08-20T03:52:15Z</time>
      </trkpt>
      <trkpt lat="43.12867" lon="-0.35656">
        <ele>346.69</ele>
        <time>2021-08-20T03:52:16Z</time>
      </trkpt>
      <trkpt lat="43.12866" lon="-0.35662">
        <ele>346.69</ele>
        <time>2021-08-20T03:52:17Z</time>
      </trkpt>
      <trkpt lat="43.12855" lon="-0.35715">
        <ele>348.13</ele>
        <time>2021-08-20T03:52:27Z</time>
      </trkpt>
      <trkpt lat="43.12845" lon="-0.35775">
        <ele>348.13</ele>
        <time>2021-08-20T03:52:37Z</time>
      </trkpt>
      <trkpt lat="43.12841" lon="-0.35795">
        <ele>347.17</ele>
        <time>2021-08-20T03:52:40Z</time>
      </trkpt>
      <trkpt lat="43.1284" lon="-0.35801">
        <ele>347.17</ele>
        <time>2021-08-20T03:52:41Z</time>
      </trkpt>
      <trkpt lat="43.12838" lon="-0.35807">
        <ele>347.17</ele>
        <time>2021-08-20T03:52:42Z</time>
      </trkpt>
      <trkpt lat="43.12825" lon="-0.35854">
        <ele>347.17</ele>
        <time>2021-08-20T03:52:50Z</time>
      </trkpt>
      <trkpt lat="43.12824" lon="-0.35866">
        <ele>347.17</ele>
        <time>2021-08-20T03:52:52Z</time>
      </trkpt>
      <trkpt lat="43.12824" lon="-0.35871">
        <ele>347.17</ele>
        <time>2021-08-20T03:52:53Z</time>
      </trkpt>
      <trkpt lat="43.12824" lon="-0.35877">
        <ele>348.13</ele>
        <time>2021-08-20T03:52:54Z</time>
      </trkpt>
      <trkpt lat="43.12825" lon="-0.35882">
        <ele>348.13</ele>
        <time>2021-08-20T03:52:55Z</time>
      </trkpt>
      <trkpt lat="43.12827" lon="-0.35887">
        <ele>348.13</ele>
        <time>2021-08-20T03:52:56Z</time>
      </trkpt>
      <trkpt lat="43.12835" lon="-0.35915">
        <ele>348.13</ele>
        <time>2021-08-20T03:53:01Z</time>
      </trkpt>
      <trkpt lat="43.12859" lon="-0.35962">
        <ele>348.62</ele>
        <time>2021-08-20T03:53:11Z</time>
      </trkpt>
      <trkpt lat="43.1287" lon="-0.35987">
        <ele>350.06</ele>
        <time>2021-08-20T03:53:17Z</time>
      </trkpt>
      <trkpt lat="43.12864" lon="-0.36007">
        <ele>350.54</ele>
        <time>2021-08-20T03:53:22Z</time>
      </trkpt>
      <trkpt lat="43.12854" lon="-0.3604">
        <ele>352.46</ele>
        <time>2021-08-20T03:53:31Z</time>
      </trkpt>
      <trkpt lat="43.12846" lon="-0.36068">
        <ele>353.9</ele>
        <time>2021-08-20T03:53:39Z</time>
      </trkpt>
      <trkpt lat="43.12841" lon="-0.36097">
        <ele>355.34</ele>
        <time>2021-08-20T03:53:47Z</time>
      </trkpt>
      <trkpt lat="43.12833" lon="-0.36123">
        <ele>356.79</ele>
        <time>2021-08-20T03:53:55Z</time>
      </trkpt>
      <trkpt lat="43.12816" lon="-0.36156">
        <ele>357.27</ele>
        <time>2021-08-20T03:54:05Z</time>
      </trkpt>
      <trkpt lat="43.12808" lon="-0.36185">
        <ele>358.23</ele>
        <time>2021-08-20T03:54:13Z</time>
      </trkpt>
      <trkpt lat="43.12809" lon="-0.36207">
        <ele>358.71</ele>
        <time>2021-08-20T03:54:20Z</time>
      </trkpt>
      <trkpt lat="43.12809" lon="-0.36234">
        <ele>360.15</ele>
        <time>2021-08-20T03:54:28Z</time>
      </trkpt>
      <trkpt lat="43.12802" lon="-0.36256">
        <ele>360.63</ele>
        <time>2021-08-20T03:54:35Z</time>
      </trkpt>
      <trkpt lat="43.12795" lon="-0.36292">
        <ele>360.63</ele>
        <time>2021-08-20T03:54:42Z</time>
      </trkpt>
      <trkpt lat="43.12793" lon="-0.36319">
        <ele>359.67</ele>
        <time>2021-08-20T03:54:46Z</time>
      </trkpt>
      <trkpt lat="43.12793" lon="-0.36326">
        <ele>359.19</ele>
        <time>2021-08-20T03:54:47Z</time>
      </trkpt>
      <trkpt lat="43.12794" lon="-0.36342">
        <ele>358.23</ele>
        <time>2021-08-20T03:54:49Z</time>
      </trkpt>
      <trkpt lat="43.12794" lon="-0.3635">
        <ele>357.75</ele>
        <time>2021-08-20T03:54:50Z</time>
      </trkpt>
      <trkpt lat="43.12792" lon="-0.36408">
        <ele>357.27</ele>
        <time>2021-08-20T03:54:57Z</time>
      </trkpt>
      <trkpt lat="43.12789" lon="-0.36416">
        <ele>357.27</ele>
        <time>2021-08-20T03:54:58Z</time>
      </trkpt>
      <trkpt lat="43.12787" lon="-0.36422">
        <ele>357.27</ele>
        <time>2021-08-20T03:54:59Z</time>
      </trkpt>
      <trkpt lat="43.12785" lon="-0.36427">
        <ele>357.27</ele>
        <time>2021-08-20T03:55:00Z</time>
      </trkpt>
      <trkpt lat="43.12782" lon="-0.3643">
        <ele>357.27</ele>
        <time>2021-08-20T03:55:01Z</time>
      </trkpt>
      <trkpt lat="43.12779" lon="-0.36433">
        <ele>357.27</ele>
        <time>2021-08-20T03:55:02Z</time>
      </trkpt>
      <trkpt lat="43.12773" lon="-0.36438">
        <ele>358.71</ele>
        <time>2021-08-20T03:55:04Z</time>
      </trkpt>
      <trkpt lat="43.12753" lon="-0.36456">
        <ele>360.15</ele>
        <time>2021-08-20T03:55:13Z</time>
      </trkpt>
      <trkpt lat="43.12744" lon="-0.36477">
        <ele>361.59</ele>
        <time>2021-08-20T03:55:20Z</time>
      </trkpt>
      <trkpt lat="43.12742" lon="-0.36508">
        <ele>363.04</ele>
        <time>2021-08-20T03:55:29Z</time>
      </trkpt>
      <trkpt lat="43.12739" lon="-0.36555">
        <ele>364.48</ele>
        <time>2021-08-20T03:55:42Z</time>
      </trkpt>
      <trkpt lat="43.12732" lon="-0.36582">
        <ele>365.92</ele>
        <time>2021-08-20T03:55:50Z</time>
      </trkpt>
      <trkpt lat="43.12715" lon="-0.36614">
        <ele>365.92</ele>
        <time>2021-08-20T03:55:59Z</time>
      </trkpt>
      <trkpt lat="43.12699" lon="-0.36647">
        <ele>365.92</ele>
        <time>2021-08-20T03:56:07Z</time>
      </trkpt>
      <trkpt lat="43.12681" lon="-0.36678">
        <ele>366.88</ele>
        <time>2021-08-20T03:56:16Z</time>
      </trkpt>
      <trkpt lat="43.12662" lon="-0.36707">
        <ele>366.88</ele>
        <time>2021-08-20T03:56:24Z</time>
      </trkpt>
      <trkpt lat="43.12647" lon="-0.36744">
        <ele>367.36</ele>
        <time>2021-08-20T03:56:32Z</time>
      </trkpt>
      <trkpt lat="43.12636" lon="-0.36781">
        <ele>367.84</ele>
        <time>2021-08-20T03:56:40Z</time>
      </trkpt>
      <trkpt lat="43.12626" lon="-0.36811">
        <ele>369.28</ele>
        <time>2021-08-20T03:56:48Z</time>
      </trkpt>
      <trkpt lat="43.12615" lon="-0.36837">
        <ele>370.73</ele>
        <time>2021-08-20T03:56:57Z</time>
      </trkpt>
      <trkpt lat="43.12597" lon="-0.3687">
        <ele>371.21</ele>
        <time>2021-08-20T03:57:07Z</time>
      </trkpt>
      <trkpt lat="43.12581" lon="-0.36905">
        <ele>372.65</ele>
        <time>2021-08-20T03:57:17Z</time>
      </trkpt>
      <trkpt lat="43.12567" lon="-0.36942">
        <ele>374.09</ele>
        <time>2021-08-20T03:57:27Z</time>
      </trkpt>
      <trkpt lat="43.12557" lon="-0.36984">
        <ele>374.09</ele>
        <time>2021-08-20T03:57:35Z</time>
      </trkpt>
      <trkpt lat="43.1255" lon="-0.37002">
        <ele>374.09</ele>
        <time>2021-08-20T03:57:39Z</time>
      </trkpt>
      <trkpt lat="43.12547" lon="-0.37006">
        <ele>374.09</ele>
        <time>2021-08-20T03:57:40Z</time>
      </trkpt>
      <trkpt lat="43.12543" lon="-0.3701">
        <ele>374.09</ele>
        <time>2021-08-20T03:57:41Z</time>
      </trkpt>
      <trkpt lat="43.12539" lon="-0.37013">
        <ele>374.09</ele>
        <time>2021-08-20T03:57:42Z</time>
      </trkpt>
      <trkpt lat="43.12535" lon="-0.37015">
        <ele>374.09</ele>
        <time>2021-08-20T03:57:43Z</time>
      </trkpt>
      <trkpt lat="43.12531" lon="-0.37017">
        <ele>374.09</ele>
        <time>2021-08-20T03:57:44Z</time>
      </trkpt>
      <trkpt lat="43.12487" lon="-0.37046">
        <ele>373.13</ele>
        <time>2021-08-20T03:57:54Z</time>
      </trkpt>
      <trkpt lat="43.12481" lon="-0.37049">
        <ele>373.13</ele>
        <time>2021-08-20T03:57:55Z</time>
      </trkpt>
      <trkpt lat="43.12468" lon="-0.37054">
        <ele>371.69</ele>
        <time>2021-08-20T03:57:57Z</time>
      </trkpt>
      <trkpt lat="43.12462" lon="-0.37059">
        <ele>371.21</ele>
        <time>2021-08-20T03:57:58Z</time>
      </trkpt>
      <trkpt lat="43.12435" lon="-0.37081">
        <ele>367.84</ele>
        <time>2021-08-20T03:58:02Z</time>
      </trkpt>
      <trkpt lat="43.12421" lon="-0.37094">
        <ele>367.36</ele>
        <time>2021-08-20T03:58:04Z</time>
      </trkpt>
      <trkpt lat="43.12415" lon="-0.37103">
        <ele>366.4</ele>
        <time>2021-08-20T03:58:05Z</time>
      </trkpt>
      <trkpt lat="43.1241" lon="-0.37112">
        <ele>365.92</ele>
        <time>2021-08-20T03:58:06Z</time>
      </trkpt>
      <trkpt lat="43.12406" lon="-0.37122">
        <ele>365.44</ele>
        <time>2021-08-20T03:58:07Z</time>
      </trkpt>
      <trkpt lat="43.12405" lon="-0.37134">
        <ele>364.96</ele>
        <time>2021-08-20T03:58:08Z</time>
      </trkpt>
      <trkpt lat="43.12404" lon="-0.37145">
        <ele>364.48</ele>
        <time>2021-08-20T03:58:09Z</time>
      </trkpt>
      <trkpt lat="43.12404" lon="-0.37157">
        <ele>364</ele>
        <time>2021-08-20T03:58:10Z</time>
      </trkpt>
      <trkpt lat="43.12402" lon="-0.37181">
        <ele>363.52</ele>
        <time>2021-08-20T03:58:12Z</time>
      </trkpt>
      <trkpt lat="43.124" lon="-0.37192">
        <ele>363.52</ele>
        <time>2021-08-20T03:58:13Z</time>
      </trkpt>
      <trkpt lat="43.12397" lon="-0.37201">
        <ele>363.52</ele>
        <time>2021-08-20T03:58:14Z</time>
      </trkpt>
      <trkpt lat="43.12396" lon="-0.3721">
        <ele>363.52</ele>
        <time>2021-08-20T03:58:15Z</time>
      </trkpt>
      <trkpt lat="43.12398" lon="-0.37216">
        <ele>365.44</ele>
        <time>2021-08-20T03:58:16Z</time>
      </trkpt>
      <trkpt lat="43.12401" lon="-0.3722">
        <ele>365.92</ele>
        <time>2021-08-20T03:58:17Z</time>
      </trkpt>
      <trkpt lat="43.12404" lon="-0.37223">
        <ele>366.4</ele>
        <time>2021-08-20T03:58:18Z</time>
      </trkpt>
      <trkpt lat="43.12416" lon="-0.37238">
        <ele>368.8</ele>
        <time>2021-08-20T03:58:25Z</time>
      </trkpt>
      <trkpt lat="43.12426" lon="-0.37258">
        <ele>370.73</ele>
        <time>2021-08-20T03:58:34Z</time>
      </trkpt>
      <trkpt lat="43.12434" lon="-0.37275">
        <ele>372.17</ele>
        <time>2021-08-20T03:58:42Z</time>
      </trkpt>
      <trkpt lat="43.1244" lon="-0.37295">
        <ele>374.09</ele>
        <time>2021-08-20T03:58:52Z</time>
      </trkpt>
      <trkpt lat="43.12445" lon="-0.37316">
        <ele>375.53</ele>
        <time>2021-08-20T03:59:01Z</time>
      </trkpt>
      <trkpt lat="43.12449" lon="-0.37337">
        <ele>376.49</ele>
        <time>2021-08-20T03:59:10Z</time>
      </trkpt>
      <trkpt lat="43.12451" lon="-0.3736">
        <ele>378.42</ele>
        <time>2021-08-20T03:59:20Z</time>
      </trkpt>
      <trkpt lat="43.12453" lon="-0.37378">
        <ele>379.38</ele>
        <time>2021-08-20T03:59:28Z</time>
      </trkpt>
      <trkpt lat="43.12453" lon="-0.37385">
        <ele>380.34</ele>
        <time>2021-08-20T03:59:32Z</time>
      </trkpt>
      <trkpt lat="43.12453" lon="-0.37386">
        <ele>380.34</ele>
        <time>2021-08-20T03:59:33Z</time>
      </trkpt>
      <trkpt lat="43.12453" lon="-0.37389">
        <ele>380.34</ele>
        <time>2021-08-20T03:59:34Z</time>
      </trkpt>
      <trkpt lat="43.12462" lon="-0.37413">
        <ele>382.26</ele>
        <time>2021-08-20T03:59:43Z</time>
      </trkpt>
      <trkpt lat="43.12471" lon="-0.37437">
        <ele>383.22</ele>
        <time>2021-08-20T03:59:52Z</time>
      </trkpt>
      <trkpt lat="43.12478" lon="-0.37462">
        <ele>384.18</ele>
        <time>2021-08-20T04:00:01Z</time>
      </trkpt>
      <trkpt lat="43.12484" lon="-0.37488">
        <ele>386.11</ele>
        <time>2021-08-20T04:00:11Z</time>
      </trkpt>
      <trkpt lat="43.12487" lon="-0.3751">
        <ele>387.07</ele>
        <time>2021-08-20T04:00:18Z</time>
      </trkpt>
      <trkpt lat="43.12494" lon="-0.37532">
        <ele>388.51</ele>
        <time>2021-08-20T04:00:28Z</time>
      </trkpt>
      <trkpt lat="43.125" lon="-0.3754">
        <ele>389.95</ele>
        <time>2021-08-20T04:00:34Z</time>
      </trkpt>
      <trkpt lat="43.12502" lon="-0.37542">
        <ele>390.43</ele>
        <time>2021-08-20T04:00:36Z</time>
      </trkpt>
      <trkpt lat="43.12503" lon="-0.37544">
        <ele>390.43</ele>
        <time>2021-08-20T04:00:37Z</time>
      </trkpt>
      <trkpt lat="43.12504" lon="-0.37545">
        <ele>390.43</ele>
        <time>2021-08-20T04:00:38Z</time>
      </trkpt>
      <trkpt lat="43.12505" lon="-0.37547">
        <ele>390.43</ele>
        <time>2021-08-20T04:00:39Z</time>
      </trkpt>
      <trkpt lat="43.12506" lon="-0.37549">
        <ele>390.91</ele>
        <time>2021-08-20T04:00:40Z</time>
      </trkpt>
      <trkpt lat="43.12507" lon="-0.37551">
        <ele>390.91</ele>
        <time>2021-08-20T04:00:41Z</time>
      </trkpt>
      <trkpt lat="43.12508" lon="-0.37553">
        <ele>390.91</ele>
        <time>2021-08-20T04:00:42Z</time>
      </trkpt>
      <trkpt lat="43.12509" lon="-0.37555">
        <ele>390.91</ele>
        <time>2021-08-20T04:00:43Z</time>
      </trkpt>
      <trkpt lat="43.1251" lon="-0.37556">
        <ele>390.91</ele>
        <time>2021-08-20T04:00:44Z</time>
      </trkpt>
      <trkpt lat="43.12511" lon="-0.37558">
        <ele>391.39</ele>
        <time>2021-08-20T04:00:45Z</time>
      </trkpt>
      <trkpt lat="43.12512" lon="-0.37559">
        <ele>391.39</ele>
        <time>2021-08-20T04:00:46Z</time>
      </trkpt>
      <trkpt lat="43.12513" lon="-0.37561">
        <ele>391.39</ele>
        <time>2021-08-20T04:00:47Z</time>
      </trkpt>
      <trkpt lat="43.12514" lon="-0.37563">
        <ele>391.87</ele>
        <time>2021-08-20T04:00:48Z</time>
      </trkpt>
      <trkpt lat="43.12515" lon="-0.37566">
        <ele>391.87</ele>
        <time>2021-08-20T04:00:49Z</time>
      </trkpt>
      <trkpt lat="43.12524" lon="-0.37584">
        <ele>393.32</ele>
        <time>2021-08-20T04:00:58Z</time>
      </trkpt>
      <trkpt lat="43.12531" lon="-0.37597">
        <ele>394.28</ele>
        <time>2021-08-20T04:01:05Z</time>
      </trkpt>
      <trkpt lat="43.12535" lon="-0.37618">
        <ele>395.24</ele>
        <time>2021-08-20T04:01:14Z</time>
      </trkpt>
      <trkpt lat="43.12535" lon="-0.37638">
        <ele>396.68</ele>
        <time>2021-08-20T04:01:22Z</time>
      </trkpt>
      <trkpt lat="43.1254" lon="-0.37658">
        <ele>398.12</ele>
        <time>2021-08-20T04:01:32Z</time>
      </trkpt>
      <trkpt lat="43.12547" lon="-0.37676">
        <ele>399.08</ele>
        <time>2021-08-20T04:01:41Z</time>
      </trkpt>
      <trkpt lat="43.12549" lon="-0.37687">
        <ele>400.05</ele>
        <time>2021-08-20T04:01:46Z</time>
      </trkpt>
      <trkpt lat="43.12549" lon="-0.37689">
        <ele>400.53</ele>
        <time>2021-08-20T04:01:47Z</time>
      </trkpt>
      <trkpt lat="43.12549" lon="-0.37691">
        <ele>400.53</ele>
        <time>2021-08-20T04:01:48Z</time>
      </trkpt>
      <trkpt lat="43.1255" lon="-0.37702">
        <ele>401.01</ele>
        <time>2021-08-20T04:01:54Z</time>
      </trkpt>
      <trkpt lat="43.12552" lon="-0.3772">
        <ele>401.97</ele>
        <time>2021-08-20T04:02:01Z</time>
      </trkpt>
      <trkpt lat="43.12552" lon="-0.37722">
        <ele>402.93</ele>
        <time>2021-08-20T04:02:02Z</time>
      </trkpt>
      <trkpt lat="43.12552" lon="-0.37725">
        <ele>402.93</ele>
        <time>2021-08-20T04:02:03Z</time>
      </trkpt>
      <trkpt lat="43.12552" lon="-0.37727">
        <ele>402.93</ele>
        <time>2021-08-20T04:02:04Z</time>
      </trkpt>
      <trkpt lat="43.12553" lon="-0.37729">
        <ele>402.93</ele>
        <time>2021-08-20T04:02:05Z</time>
      </trkpt>
      <trkpt lat="43.12554" lon="-0.37748">
        <ele>403.89</ele>
        <time>2021-08-20T04:02:13Z</time>
      </trkpt>
      <trkpt lat="43.12556" lon="-0.37766">
        <ele>405.33</ele>
        <time>2021-08-20T04:02:20Z</time>
      </trkpt>
      <trkpt lat="43.12555" lon="-0.37768">
        <ele>405.33</ele>
        <time>2021-08-20T04:02:21Z</time>
      </trkpt>
      <trkpt lat="43.12548" lon="-0.37788">
        <ele>406.77</ele>
        <time>2021-08-20T04:02:30Z</time>
      </trkpt>
      <trkpt lat="43.12542" lon="-0.37803">
        <ele>407.74</ele>
        <time>2021-08-20T04:02:37Z</time>
      </trkpt>
      <trkpt lat="43.1254" lon="-0.37805">
        <ele>408.7</ele>
        <time>2021-08-20T04:02:38Z</time>
      </trkpt>
      <trkpt lat="43.12539" lon="-0.37807">
        <ele>408.7</ele>
        <time>2021-08-20T04:02:39Z</time>
      </trkpt>
      <trkpt lat="43.12538" lon="-0.3781">
        <ele>408.7</ele>
        <time>2021-08-20T04:02:40Z</time>
      </trkpt>
      <trkpt lat="43.12536" lon="-0.37812">
        <ele>408.7</ele>
        <time>2021-08-20T04:02:41Z</time>
      </trkpt>
      <trkpt lat="43.12535" lon="-0.37815">
        <ele>409.18</ele>
        <time>2021-08-20T04:02:42Z</time>
      </trkpt>
      <trkpt lat="43.12534" lon="-0.37816">
        <ele>409.18</ele>
        <time>2021-08-20T04:02:43Z</time>
      </trkpt>
      <trkpt lat="43.12534" lon="-0.37818">
        <ele>409.66</ele>
        <time>2021-08-20T04:02:44Z</time>
      </trkpt>
      <trkpt lat="43.12531" lon="-0.37831">
        <ele>410.62</ele>
        <time>2021-08-20T04:02:51Z</time>
      </trkpt>
      <trkpt lat="43.12529" lon="-0.37835">
        <ele>410.62</ele>
        <time>2021-08-20T04:02:53Z</time>
      </trkpt>
      <trkpt lat="43.12528" lon="-0.37853">
        <ele>412.06</ele>
        <time>2021-08-20T04:03:01Z</time>
      </trkpt>
      <trkpt lat="43.12528" lon="-0.37855">
        <ele>412.06</ele>
        <time>2021-08-20T04:03:02Z</time>
      </trkpt>
      <trkpt lat="43.12528" lon="-0.37857">
        <ele>412.54</ele>
        <time>2021-08-20T04:03:03Z</time>
      </trkpt>
      <trkpt lat="43.12529" lon="-0.37877">
        <ele>413.98</ele>
        <time>2021-08-20T04:03:12Z</time>
      </trkpt>
      <trkpt lat="43.12525" lon="-0.37899">
        <ele>415.43</ele>
        <time>2021-08-20T04:03:22Z</time>
      </trkpt>
      <trkpt lat="43.12525" lon="-0.37902">
        <ele>415.91</ele>
        <time>2021-08-20T04:03:23Z</time>
      </trkpt>
      <trkpt lat="43.12524" lon="-0.37904">
        <ele>415.91</ele>
        <time>2021-08-20T04:03:24Z</time>
      </trkpt>
      <trkpt lat="43.12521" lon="-0.37919">
        <ele>416.87</ele>
        <time>2021-08-20T04:03:31Z</time>
      </trkpt>
      <trkpt lat="43.12525" lon="-0.3793">
        <ele>418.31</ele>
        <time>2021-08-20T04:03:38Z</time>
      </trkpt>
      <trkpt lat="43.12537" lon="-0.37935">
        <ele>419.27</ele>
        <time>2021-08-20T04:03:46Z</time>
      </trkpt>
      <trkpt lat="43.12546" lon="-0.37942">
        <ele>420.71</ele>
        <time>2021-08-20T04:03:54Z</time>
      </trkpt>
      <trkpt lat="43.12554" lon="-0.37953">
        <ele>421.68</ele>
        <time>2021-08-20T04:04:01Z</time>
      </trkpt>
      <trkpt lat="43.12565" lon="-0.37961">
        <ele>423.12</ele>
        <time>2021-08-20T04:04:09Z</time>
      </trkpt>
      <trkpt lat="43.12578" lon="-0.37963">
        <ele>424.56</ele>
        <time>2021-08-20T04:04:16Z</time>
      </trkpt>
      <trkpt lat="43.12591" lon="-0.37957">
        <ele>425.52</ele>
        <time>2021-08-20T04:04:24Z</time>
      </trkpt>
      <trkpt lat="43.12602" lon="-0.37953">
        <ele>426.96</ele>
        <time>2021-08-20T04:04:32Z</time>
      </trkpt>
      <trkpt lat="43.12603" lon="-0.37954">
        <ele>426.96</ele>
        <time>2021-08-20T04:04:33Z</time>
      </trkpt>
      <trkpt lat="43.12604" lon="-0.37955">
        <ele>427.44</ele>
        <time>2021-08-20T04:04:34Z</time>
      </trkpt>
      <trkpt lat="43.12606" lon="-0.37961">
        <ele>428.4</ele>
        <time>2021-08-20T04:04:38Z</time>
      </trkpt>
      <trkpt lat="43.12602" lon="-0.37974">
        <ele>429.37</ele>
        <time>2021-08-20T04:04:46Z</time>
      </trkpt>
      <trkpt lat="43.12593" lon="-0.3799">
        <ele>430.33</ele>
        <time>2021-08-20T04:04:54Z</time>
      </trkpt>
      <trkpt lat="43.12579" lon="-0.38001">
        <ele>431.29</ele>
        <time>2021-08-20T04:05:03Z</time>
      </trkpt>
      <trkpt lat="43.12562" lon="-0.38003">
        <ele>433.21</ele>
        <time>2021-08-20T04:05:13Z</time>
      </trkpt>
      <trkpt lat="43.12549" lon="-0.38003">
        <ele>434.17</ele>
        <time>2021-08-20T04:05:21Z</time>
      </trkpt>
      <trkpt lat="43.1253" lon="-0.38006">
        <ele>435.61</ele>
        <time>2021-08-20T04:05:32Z</time>
      </trkpt>
      <trkpt lat="43.12519" lon="-0.38009">
        <ele>437.54</ele>
        <time>2021-08-20T04:05:40Z</time>
      </trkpt>
      <trkpt lat="43.12515" lon="-0.38011">
        <ele>438.02</ele>
        <time>2021-08-20T04:05:42Z</time>
      </trkpt>
      <trkpt lat="43.12514" lon="-0.38012">
        <ele>438.02</ele>
        <time>2021-08-20T04:05:43Z</time>
      </trkpt>
      <trkpt lat="43.12512" lon="-0.38013">
        <ele>438.02</ele>
        <time>2021-08-20T04:05:44Z</time>
      </trkpt>
      <trkpt lat="43.1251" lon="-0.38014">
        <ele>438.02</ele>
        <time>2021-08-20T04:05:45Z</time>
      </trkpt>
      <trkpt lat="43.12509" lon="-0.38014">
        <ele>438.02</ele>
        <time>2021-08-20T04:05:46Z</time>
      </trkpt>
      <trkpt lat="43.12492" lon="-0.38019">
        <ele>439.94</ele>
        <time>2021-08-20T04:05:54Z</time>
      </trkpt>
      <trkpt lat="43.12476" lon="-0.38016">
        <ele>440.9</ele>
        <time>2021-08-20T04:06:02Z</time>
      </trkpt>
      <trkpt lat="43.12464" lon="-0.38008">
        <ele>442.82</ele>
        <time>2021-08-20T04:06:10Z</time>
      </trkpt>
      <trkpt lat="43.12449" lon="-0.38005">
        <ele>443.79</ele>
        <time>2021-08-20T04:06:18Z</time>
      </trkpt>
      <trkpt lat="43.12437" lon="-0.38018">
        <ele>444.75</ele>
        <time>2021-08-20T04:06:26Z</time>
      </trkpt>
      <trkpt lat="43.12422" lon="-0.38041">
        <ele>446.19</ele>
        <time>2021-08-20T04:06:37Z</time>
      </trkpt>
      <trkpt lat="43.12408" lon="-0.38059">
        <ele>447.15</ele>
        <time>2021-08-20T04:06:46Z</time>
      </trkpt>
      <trkpt lat="43.12394" lon="-0.38077">
        <ele>448.59</ele>
        <time>2021-08-20T04:06:56Z</time>
      </trkpt>
      <trkpt lat="43.12386" lon="-0.38089">
        <ele>450.03</ele>
        <time>2021-08-20T04:07:03Z</time>
      </trkpt>
      <trkpt lat="43.12376" lon="-0.38103">
        <ele>451.96</ele>
        <time>2021-08-20T04:07:12Z</time>
      </trkpt>
      <trkpt lat="43.12362" lon="-0.38122">
        <ele>453.88</ele>
        <time>2021-08-20T04:07:22Z</time>
      </trkpt>
      <trkpt lat="43.12353" lon="-0.38149">
        <ele>454.84</ele>
        <time>2021-08-20T04:07:32Z</time>
      </trkpt>
      <trkpt lat="43.12349" lon="-0.38173">
        <ele>455.32</ele>
        <time>2021-08-20T04:07:39Z</time>
      </trkpt>
      <trkpt lat="43.12345" lon="-0.38213">
        <ele>457.24</ele>
        <time>2021-08-20T04:07:50Z</time>
      </trkpt>
      <trkpt lat="43.1234" lon="-0.38253">
        <ele>457.72</ele>
        <time>2021-08-20T04:08:01Z</time>
      </trkpt>
      <trkpt lat="43.12338" lon="-0.3828">
        <ele>459.17</ele>
        <time>2021-08-20T04:08:09Z</time>
      </trkpt>
      <trkpt lat="43.12337" lon="-0.38282">
        <ele>459.17</ele>
        <time>2021-08-20T04:08:10Z</time>
      </trkpt>
      <trkpt lat="43.12317" lon="-0.38302">
        <ele>460.13</ele>
        <time>2021-08-20T04:08:19Z</time>
      </trkpt>
      <trkpt lat="43.12294" lon="-0.38332">
        <ele>461.57</ele>
        <time>2021-08-20T04:08:30Z</time>
      </trkpt>
      <trkpt lat="43.12283" lon="-0.3836">
        <ele>462.53</ele>
        <time>2021-08-20T04:08:38Z</time>
      </trkpt>
      <trkpt lat="43.12268" lon="-0.38404">
        <ele>463.97</ele>
        <time>2021-08-20T04:08:49Z</time>
      </trkpt>
      <trkpt lat="43.12255" lon="-0.38444">
        <ele>464.93</ele>
        <time>2021-08-20T04:08:58Z</time>
      </trkpt>
      <trkpt lat="43.12245" lon="-0.38479">
        <ele>464.93</ele>
        <time>2021-08-20T04:09:04Z</time>
      </trkpt>
      <trkpt lat="43.12244" lon="-0.38486">
        <ele>464.93</ele>
        <time>2021-08-20T04:09:05Z</time>
      </trkpt>
      <trkpt lat="43.12244" lon="-0.38492">
        <ele>464.93</ele>
        <time>2021-08-20T04:09:06Z</time>
      </trkpt>
      <trkpt lat="43.12248" lon="-0.38549">
        <ele>464.93</ele>
        <time>2021-08-20T04:09:14Z</time>
      </trkpt>
      <trkpt lat="43.12257" lon="-0.38604">
        <ele>465.9</ele>
        <time>2021-08-20T04:09:22Z</time>
      </trkpt>
      <trkpt lat="43.12259" lon="-0.38617">
        <ele>466.38</ele>
        <time>2021-08-20T04:09:24Z</time>
      </trkpt>
      <trkpt lat="43.1226" lon="-0.38624">
        <ele>466.38</ele>
        <time>2021-08-20T04:09:25Z</time>
      </trkpt>
      <trkpt lat="43.12263" lon="-0.38673">
        <ele>467.34</ele>
        <time>2021-08-20T04:09:32Z</time>
      </trkpt>
      <trkpt lat="43.12262" lon="-0.3868">
        <ele>467.34</ele>
        <time>2021-08-20T04:09:33Z</time>
      </trkpt>
      <trkpt lat="43.12259" lon="-0.38694">
        <ele>467.34</ele>
        <time>2021-08-20T04:09:35Z</time>
      </trkpt>
      <trkpt lat="43.12256" lon="-0.387">
        <ele>467.82</ele>
        <time>2021-08-20T04:09:36Z</time>
      </trkpt>
      <trkpt lat="43.12253" lon="-0.38704">
        <ele>467.82</ele>
        <time>2021-08-20T04:09:37Z</time>
      </trkpt>
      <trkpt lat="43.12249" lon="-0.38708">
        <ele>467.82</ele>
        <time>2021-08-20T04:09:38Z</time>
      </trkpt>
      <trkpt lat="43.12244" lon="-0.38711">
        <ele>467.82</ele>
        <time>2021-08-20T04:09:39Z</time>
      </trkpt>
      <trkpt lat="43.12239" lon="-0.38713">
        <ele>468.3</ele>
        <time>2021-08-20T04:09:40Z</time>
      </trkpt>
      <trkpt lat="43.12234" lon="-0.38715">
        <ele>468.3</ele>
        <time>2021-08-20T04:09:41Z</time>
      </trkpt>
      <trkpt lat="43.12229" lon="-0.38716">
        <ele>468.3</ele>
        <time>2021-08-20T04:09:42Z</time>
      </trkpt>
      <trkpt lat="43.12224" lon="-0.38716">
        <ele>468.3</ele>
        <time>2021-08-20T04:09:43Z</time>
      </trkpt>
      <trkpt lat="43.12219" lon="-0.38716">
        <ele>468.3</ele>
        <time>2021-08-20T04:09:44Z</time>
      </trkpt>
      <trkpt lat="43.12214" lon="-0.38716">
        <ele>468.3</ele>
        <time>2021-08-20T04:09:45Z</time>
      </trkpt>
      <trkpt lat="43.12188" lon="-0.38719">
        <ele>468.78</ele>
        <time>2021-08-20T04:09:50Z</time>
      </trkpt>
      <trkpt lat="43.12183" lon="-0.38722">
        <ele>469.26</ele>
        <time>2021-08-20T04:09:51Z</time>
      </trkpt>
      <trkpt lat="43.12179" lon="-0.38725">
        <ele>469.26</ele>
        <time>2021-08-20T04:09:52Z</time>
      </trkpt>
      <trkpt lat="43.12176" lon="-0.38728">
        <ele>469.26</ele>
        <time>2021-08-20T04:09:53Z</time>
      </trkpt>
      <trkpt lat="43.12173" lon="-0.38733">
        <ele>469.26</ele>
        <time>2021-08-20T04:09:54Z</time>
      </trkpt>
      <trkpt lat="43.12171" lon="-0.38738">
        <ele>469.74</ele>
        <time>2021-08-20T04:09:55Z</time>
      </trkpt>
      <trkpt lat="43.12166" lon="-0.38748">
        <ele>469.74</ele>
        <time>2021-08-20T04:09:57Z</time>
      </trkpt>
      <trkpt lat="43.12164" lon="-0.38754">
        <ele>469.74</ele>
        <time>2021-08-20T04:09:58Z</time>
      </trkpt>
      <trkpt lat="43.12163" lon="-0.38761">
        <ele>469.74</ele>
        <time>2021-08-20T04:09:59Z</time>
      </trkpt>
      <trkpt lat="43.12162" lon="-0.38767">
        <ele>469.74</ele>
        <time>2021-08-20T04:10:00Z</time>
      </trkpt>
      <trkpt lat="43.12162" lon="-0.38774">
        <ele>469.74</ele>
        <time>2021-08-20T04:10:01Z</time>
      </trkpt>
      <trkpt lat="43.12163" lon="-0.3878">
        <ele>469.74</ele>
        <time>2021-08-20T04:10:02Z</time>
      </trkpt>
      <trkpt lat="43.12165" lon="-0.38786">
        <ele>470.7</ele>
        <time>2021-08-20T04:10:03Z</time>
      </trkpt>
      <trkpt lat="43.12167" lon="-0.38792">
        <ele>470.7</ele>
        <time>2021-08-20T04:10:04Z</time>
      </trkpt>
      <trkpt lat="43.12177" lon="-0.38845">
        <ele>472.63</ele>
        <time>2021-08-20T04:10:13Z</time>
      </trkpt>
      <trkpt lat="43.12191" lon="-0.38871">
        <ele>472.63</ele>
        <time>2021-08-20T04:10:19Z</time>
      </trkpt>
      <trkpt lat="43.12213" lon="-0.38901">
        <ele>474.07</ele>
        <time>2021-08-20T04:10:27Z</time>
      </trkpt>
      <trkpt lat="43.12235" lon="-0.38936">
        <ele>474.55</ele>
        <time>2021-08-20T04:10:35Z</time>
      </trkpt>
      <trkpt lat="43.1225" lon="-0.38975">
        <ele>476.47</ele>
        <time>2021-08-20T04:10:43Z</time>
      </trkpt>
      <trkpt lat="43.12252" lon="-0.39018">
        <ele>477.91</ele>
        <time>2021-08-20T04:10:52Z</time>
      </trkpt>
      <trkpt lat="43.12247" lon="-0.39061">
        <ele>479.35</ele>
        <time>2021-08-20T04:11:01Z</time>
      </trkpt>
      <trkpt lat="43.12238" lon="-0.39084">
        <ele>479.35</ele>
        <time>2021-08-20T04:11:06Z</time>
      </trkpt>
      <trkpt lat="43.12235" lon="-0.39088">
        <ele>479.35</ele>
        <time>2021-08-20T04:11:07Z</time>
      </trkpt>
      <trkpt lat="43.12231" lon="-0.39092">
        <ele>479.35</ele>
        <time>2021-08-20T04:11:08Z</time>
      </trkpt>
      <trkpt lat="43.122" lon="-0.3911">
        <ele>479.35</ele>
        <time>2021-08-20T04:11:15Z</time>
      </trkpt>
      <trkpt lat="43.12156" lon="-0.39123">
        <ele>479.35</ele>
        <time>2021-08-20T04:11:23Z</time>
      </trkpt>
      <trkpt lat="43.12102" lon="-0.39134">
        <ele>479.35</ele>
        <time>2021-08-20T04:11:32Z</time>
      </trkpt>
      <trkpt lat="43.12059" lon="-0.39137">
        <ele>479.35</ele>
        <time>2021-08-20T04:11:39Z</time>
      </trkpt>
      <trkpt lat="43.12052" lon="-0.39139">
        <ele>477.91</ele>
        <time>2021-08-20T04:11:40Z</time>
      </trkpt>
      <trkpt lat="43.12044" lon="-0.39143">
        <ele>477.43</ele>
        <time>2021-08-20T04:11:41Z</time>
      </trkpt>
      <trkpt lat="43.1204" lon="-0.39146">
        <ele>477.43</ele>
        <time>2021-08-20T04:11:42Z</time>
      </trkpt>
      <trkpt lat="43.12036" lon="-0.39151">
        <ele>477.43</ele>
        <time>2021-08-20T04:11:43Z</time>
      </trkpt>
      <trkpt lat="43.12031" lon="-0.39158">
        <ele>477.43</ele>
        <time>2021-08-20T04:11:44Z</time>
      </trkpt>
      <trkpt lat="43.12027" lon="-0.39165">
        <ele>477.43</ele>
        <time>2021-08-20T04:11:45Z</time>
      </trkpt>
      <trkpt lat="43.12024" lon="-0.39173">
        <ele>477.43</ele>
        <time>2021-08-20T04:11:46Z</time>
      </trkpt>
      <trkpt lat="43.12022" lon="-0.3918">
        <ele>477.43</ele>
        <time>2021-08-20T04:11:47Z</time>
      </trkpt>
      <trkpt lat="43.12013" lon="-0.39211">
        <ele>477.43</ele>
        <time>2021-08-20T04:11:51Z</time>
      </trkpt>
      <trkpt lat="43.12011" lon="-0.3922">
        <ele>477.43</ele>
        <time>2021-08-20T04:11:52Z</time>
      </trkpt>
      <trkpt lat="43.12011" lon="-0.39226">
        <ele>477.43</ele>
        <time>2021-08-20T04:11:53Z</time>
      </trkpt>
      <trkpt lat="43.12011" lon="-0.39235">
        <ele>478.87</ele>
        <time>2021-08-20T04:11:54Z</time>
      </trkpt>
      <trkpt lat="43.1201" lon="-0.39243">
        <ele>478.87</ele>
        <time>2021-08-20T04:11:55Z</time>
      </trkpt>
      <trkpt lat="43.12009" lon="-0.3925">
        <ele>479.35</ele>
        <time>2021-08-20T04:11:56Z</time>
      </trkpt>
      <trkpt lat="43.12006" lon="-0.39258">
        <ele>479.35</ele>
        <time>2021-08-20T04:11:57Z</time>
      </trkpt>
      <trkpt lat="43.12004" lon="-0.39263">
        <ele>479.84</ele>
        <time>2021-08-20T04:11:58Z</time>
      </trkpt>
      <trkpt lat="43.12" lon="-0.39269">
        <ele>479.84</ele>
        <time>2021-08-20T04:11:59Z</time>
      </trkpt>
      <trkpt lat="43.11996" lon="-0.39273">
        <ele>479.84</ele>
        <time>2021-08-20T04:12:00Z</time>
      </trkpt>
      <trkpt lat="43.11992" lon="-0.39276">
        <ele>480.32</ele>
        <time>2021-08-20T04:12:01Z</time>
      </trkpt>
      <trkpt lat="43.11987" lon="-0.39279">
        <ele>480.8</ele>
        <time>2021-08-20T04:12:02Z</time>
      </trkpt>
      <trkpt lat="43.11982" lon="-0.3928">
        <ele>480.8</ele>
        <time>2021-08-20T04:12:03Z</time>
      </trkpt>
      <trkpt lat="43.11976" lon="-0.3928">
        <ele>480.32</ele>
        <time>2021-08-20T04:12:04Z</time>
      </trkpt>
      <trkpt lat="43.11971" lon="-0.3928">
        <ele>480.32</ele>
        <time>2021-08-20T04:12:05Z</time>
      </trkpt>
      <trkpt lat="43.11965" lon="-0.39279">
        <ele>480.32</ele>
        <time>2021-08-20T04:12:06Z</time>
      </trkpt>
      <trkpt lat="43.11926" lon="-0.39265">
        <ele>481.28</ele>
        <time>2021-08-20T04:12:14Z</time>
      </trkpt>
      <trkpt lat="43.11897" lon="-0.39244">
        <ele>481.76</ele>
        <time>2021-08-20T04:12:20Z</time>
      </trkpt>
      <trkpt lat="43.11892" lon="-0.39242">
        <ele>481.76</ele>
        <time>2021-08-20T04:12:21Z</time>
      </trkpt>
      <trkpt lat="43.11887" lon="-0.3924">
        <ele>481.76</ele>
        <time>2021-08-20T04:12:22Z</time>
      </trkpt>
      <trkpt lat="43.11882" lon="-0.39239">
        <ele>481.76</ele>
        <time>2021-08-20T04:12:23Z</time>
      </trkpt>
      <trkpt lat="43.11875" lon="-0.3924">
        <ele>482.24</ele>
        <time>2021-08-20T04:12:24Z</time>
      </trkpt>
      <trkpt lat="43.11871" lon="-0.39241">
        <ele>482.24</ele>
        <time>2021-08-20T04:12:25Z</time>
      </trkpt>
      <trkpt lat="43.11865" lon="-0.39243">
        <ele>482.24</ele>
        <time>2021-08-20T04:12:26Z</time>
      </trkpt>
      <trkpt lat="43.11827" lon="-0.39254">
        <ele>484.16</ele>
        <time>2021-08-20T04:12:34Z</time>
      </trkpt>
      <trkpt lat="43.11787" lon="-0.39252">
        <ele>485.12</ele>
        <time>2021-08-20T04:12:43Z</time>
      </trkpt>
      <trkpt lat="43.11752" lon="-0.39237">
        <ele>485.6</ele>
        <time>2021-08-20T04:12:52Z</time>
      </trkpt>
      <trkpt lat="43.11726" lon="-0.39214">
        <ele>486.56</ele>
        <time>2021-08-20T04:13:00Z</time>
      </trkpt>
      <trkpt lat="43.11717" lon="-0.39203">
        <ele>486.56</ele>
        <time>2021-08-20T04:13:03Z</time>
      </trkpt>
      <trkpt lat="43.11712" lon="-0.392">
        <ele>486.56</ele>
        <time>2021-08-20T04:13:04Z</time>
      </trkpt>
      <trkpt lat="43.11709" lon="-0.39199">
        <ele>486.56</ele>
        <time>2021-08-20T04:13:05Z</time>
      </trkpt>
      <trkpt lat="43.11696" lon="-0.39196">
        <ele>487.05</ele>
        <time>2021-08-20T04:13:08Z</time>
      </trkpt>
      <trkpt lat="43.11691" lon="-0.39196">
        <ele>487.05</ele>
        <time>2021-08-20T04:13:09Z</time>
      </trkpt>
      <trkpt lat="43.11675" lon="-0.39201">
        <ele>487.53</ele>
        <time>2021-08-20T04:13:13Z</time>
      </trkpt>
      <trkpt lat="43.11671" lon="-0.39204">
        <ele>487.53</ele>
        <time>2021-08-20T04:13:14Z</time>
      </trkpt>
      <trkpt lat="43.11667" lon="-0.39206">
        <ele>487.53</ele>
        <time>2021-08-20T04:13:15Z</time>
      </trkpt>
      <trkpt lat="43.11641" lon="-0.39238">
        <ele>488.49</ele>
        <time>2021-08-20T04:13:23Z</time>
      </trkpt>
      <trkpt lat="43.11637" lon="-0.39241">
        <ele>488.49</ele>
        <time>2021-08-20T04:13:24Z</time>
      </trkpt>
      <trkpt lat="43.11633" lon="-0.39244">
        <ele>488.97</ele>
        <time>2021-08-20T04:13:25Z</time>
      </trkpt>
      <trkpt lat="43.11629" lon="-0.39247">
        <ele>488.97</ele>
        <time>2021-08-20T04:13:26Z</time>
      </trkpt>
      <trkpt lat="43.11625" lon="-0.39249">
        <ele>488.97</ele>
        <time>2021-08-20T04:13:27Z</time>
      </trkpt>
      <trkpt lat="43.11621" lon="-0.3925">
        <ele>488.97</ele>
        <time>2021-08-20T04:13:28Z</time>
      </trkpt>
      <trkpt lat="43.11616" lon="-0.39251">
        <ele>488.97</ele>
        <time>2021-08-20T04:13:29Z</time>
      </trkpt>
      <trkpt lat="43.11612" lon="-0.3925">
        <ele>488.97</ele>
        <time>2021-08-20T04:13:30Z</time>
      </trkpt>
      <trkpt lat="43.11607" lon="-0.39248">
        <ele>489.45</ele>
        <time>2021-08-20T04:13:31Z</time>
      </trkpt>
      <trkpt lat="43.11603" lon="-0.39246">
        <ele>489.45</ele>
        <time>2021-08-20T04:13:32Z</time>
      </trkpt>
      <trkpt lat="43.11599" lon="-0.39243">
        <ele>489.45</ele>
        <time>2021-08-20T04:13:33Z</time>
      </trkpt>
      <trkpt lat="43.11595" lon="-0.3924">
        <ele>489.45</ele>
        <time>2021-08-20T04:13:34Z</time>
      </trkpt>
      <trkpt lat="43.11572" lon="-0.39221">
        <ele>490.41</ele>
        <time>2021-08-20T04:13:40Z</time>
      </trkpt>
      <trkpt lat="43.11568" lon="-0.39218">
        <ele>490.41</ele>
        <time>2021-08-20T04:13:41Z</time>
      </trkpt>
      <trkpt lat="43.11564" lon="-0.39216">
        <ele>489.93</ele>
        <time>2021-08-20T04:13:42Z</time>
      </trkpt>
      <trkpt lat="43.11552" lon="-0.3921">
        <ele>490.89</ele>
        <time>2021-08-20T04:13:45Z</time>
      </trkpt>
      <trkpt lat="43.11516" lon="-0.392">
        <ele>491.85</ele>
        <time>2021-08-20T04:13:54Z</time>
      </trkpt>
      <trkpt lat="43.11488" lon="-0.39199">
        <ele>492.33</ele>
        <time>2021-08-20T04:14:00Z</time>
      </trkpt>
      <trkpt lat="43.11484" lon="-0.39201">
        <ele>492.33</ele>
        <time>2021-08-20T04:14:01Z</time>
      </trkpt>
      <trkpt lat="43.11479" lon="-0.39203">
        <ele>492.33</ele>
        <time>2021-08-20T04:14:02Z</time>
      </trkpt>
      <trkpt lat="43.11475" lon="-0.39205">
        <ele>492.33</ele>
        <time>2021-08-20T04:14:03Z</time>
      </trkpt>
      <trkpt lat="43.11471" lon="-0.39208">
        <ele>492.33</ele>
        <time>2021-08-20T04:14:04Z</time>
      </trkpt>
      <trkpt lat="43.11459" lon="-0.3922">
        <ele>492.33</ele>
        <time>2021-08-20T04:14:07Z</time>
      </trkpt>
      <trkpt lat="43.11456" lon="-0.39225">
        <ele>492.33</ele>
        <time>2021-08-20T04:14:08Z</time>
      </trkpt>
      <trkpt lat="43.11454" lon="-0.39232">
        <ele>491.85</ele>
        <time>2021-08-20T04:14:09Z</time>
      </trkpt>
      <trkpt lat="43.11453" lon="-0.39239">
        <ele>491.85</ele>
        <time>2021-08-20T04:14:10Z</time>
      </trkpt>
      <trkpt lat="43.11452" lon="-0.39246">
        <ele>491.85</ele>
        <time>2021-08-20T04:14:11Z</time>
      </trkpt>
      <trkpt lat="43.1145" lon="-0.39269">
        <ele>491.85</ele>
        <time>2021-08-20T04:14:14Z</time>
      </trkpt>
      <trkpt lat="43.11448" lon="-0.39277">
        <ele>491.85</ele>
        <time>2021-08-20T04:14:15Z</time>
      </trkpt>
      <trkpt lat="43.11445" lon="-0.39284">
        <ele>491.85</ele>
        <time>2021-08-20T04:14:16Z</time>
      </trkpt>
      <trkpt lat="43.11441" lon="-0.3929">
        <ele>491.85</ele>
        <time>2021-08-20T04:14:17Z</time>
      </trkpt>
      <trkpt lat="43.11437" lon="-0.39296">
        <ele>491.85</ele>
        <time>2021-08-20T04:14:18Z</time>
      </trkpt>
      <trkpt lat="43.11432" lon="-0.39301">
        <ele>491.85</ele>
        <time>2021-08-20T04:14:19Z</time>
      </trkpt>
      <trkpt lat="43.11426" lon="-0.39306">
        <ele>491.85</ele>
        <time>2021-08-20T04:14:20Z</time>
      </trkpt>
      <trkpt lat="43.1141" lon="-0.39321">
        <ele>490.89</ele>
        <time>2021-08-20T04:14:23Z</time>
      </trkpt>
      <trkpt lat="43.11389" lon="-0.39345">
        <ele>489.93</ele>
        <time>2021-08-20T04:14:27Z</time>
      </trkpt>
      <trkpt lat="43.11386" lon="-0.39352">
        <ele>489.93</ele>
        <time>2021-08-20T04:14:28Z</time>
      </trkpt>
      <trkpt lat="43.11383" lon="-0.3936">
        <ele>489.93</ele>
        <time>2021-08-20T04:14:29Z</time>
      </trkpt>
      <trkpt lat="43.11382" lon="-0.39366">
        <ele>489.93</ele>
        <time>2021-08-20T04:14:30Z</time>
      </trkpt>
      <trkpt lat="43.11381" lon="-0.39371">
        <ele>489.93</ele>
        <time>2021-08-20T04:14:31Z</time>
      </trkpt>
      <trkpt lat="43.1138" lon="-0.39373">
        <ele>489.93</ele>
        <time>2021-08-20T04:14:32Z</time>
      </trkpt>
      <trkpt lat="43.11378" lon="-0.39373">
        <ele>489.93</ele>
        <time>2021-08-20T04:14:33Z</time>
      </trkpt>
      <trkpt lat="43.11378" lon="-0.3937">
        <ele>489.93</ele>
        <time>2021-08-20T04:14:34Z</time>
      </trkpt>
      <trkpt lat="43.11379" lon="-0.39368">
        <ele>489.93</ele>
        <time>2021-08-20T04:14:35Z</time>
      </trkpt>
      <trkpt lat="43.11379" lon="-0.39366">
        <ele>489.93</ele>
        <time>2021-08-20T04:14:36Z</time>
      </trkpt>
      <trkpt lat="43.11379" lon="-0.39364">
        <ele>489.93</ele>
        <time>2021-08-20T04:14:37Z</time>
      </trkpt>
      <trkpt lat="43.11379" lon="-0.3936">
        <ele>489.93</ele>
        <time>2021-08-20T04:14:38Z</time>
      </trkpt>
      <trkpt lat="43.11378" lon="-0.39358">
        <ele>489.93</ele>
        <time>2021-08-20T04:14:39Z</time>
      </trkpt>
      <trkpt lat="43.11377" lon="-0.39356">
        <ele>489.93</ele>
        <time>2021-08-20T04:14:40Z</time>
      </trkpt>
      <trkpt lat="43.11376" lon="-0.39355">
        <ele>490.89</ele>
        <time>2021-08-20T04:14:41Z</time>
      </trkpt>
      <trkpt lat="43.11375" lon="-0.39355">
        <ele>490.89</ele>
        <time>2021-08-20T04:14:42Z</time>
      </trkpt>
      <trkpt lat="43.11373" lon="-0.39356">
        <ele>491.37</ele>
        <time>2021-08-20T04:14:43Z</time>
      </trkpt>
      <trkpt lat="43.11359" lon="-0.39356">
        <ele>492.81</ele>
        <time>2021-08-20T04:14:50Z</time>
      </trkpt>
      <trkpt lat="43.11339" lon="-0.39362">
        <ele>493.77</ele>
        <time>2021-08-20T04:14:59Z</time>
      </trkpt>
      <trkpt lat="43.11325" lon="-0.39369">
        <ele>494.26</ele>
        <time>2021-08-20T04:15:05Z</time>
      </trkpt>
      <trkpt lat="43.11316" lon="-0.39393">
        <ele>495.22</ele>
        <time>2021-08-20T04:15:13Z</time>
      </trkpt>
      <trkpt lat="43.1131" lon="-0.39413">
        <ele>496.18</ele>
        <time>2021-08-20T04:15:19Z</time>
      </trkpt>
      <trkpt lat="43.11302" lon="-0.39439">
        <ele>497.14</ele>
        <time>2021-08-20T04:15:27Z</time>
      </trkpt>
      <trkpt lat="43.11285" lon="-0.39468">
        <ele>498.1</ele>
        <time>2021-08-20T04:15:37Z</time>
      </trkpt>
      <trkpt lat="43.11264" lon="-0.395">
        <ele>499.06</ele>
        <time>2021-08-20T04:15:47Z</time>
      </trkpt>
      <trkpt lat="43.1125" lon="-0.3953">
        <ele>499.54</ele>
        <time>2021-08-20T04:15:54Z</time>
      </trkpt>
      <trkpt lat="43.11234" lon="-0.39568">
        <ele>498.58</ele>
        <time>2021-08-20T04:16:00Z</time>
      </trkpt>
      <trkpt lat="43.11231" lon="-0.39574">
        <ele>497.62</ele>
        <time>2021-08-20T04:16:01Z</time>
      </trkpt>
      <trkpt lat="43.11227" lon="-0.39581">
        <ele>497.62</ele>
        <time>2021-08-20T04:16:02Z</time>
      </trkpt>
      <trkpt lat="43.11204" lon="-0.39619">
        <ele>494.74</ele>
        <time>2021-08-20T04:16:07Z</time>
      </trkpt>
      <trkpt lat="43.11201" lon="-0.39628">
        <ele>494.74</ele>
        <time>2021-08-20T04:16:08Z</time>
      </trkpt>
      <trkpt lat="43.11183" lon="-0.39701">
        <ele>491.85</ele>
        <time>2021-08-20T04:16:15Z</time>
      </trkpt>
      <trkpt lat="43.11175" lon="-0.39731">
        <ele>491.85</ele>
        <time>2021-08-20T04:16:18Z</time>
      </trkpt>
      <trkpt lat="43.11171" lon="-0.3974">
        <ele>491.85</ele>
        <time>2021-08-20T04:16:19Z</time>
      </trkpt>
      <trkpt lat="43.1115" lon="-0.39771">
        <ele>493.29</ele>
        <time>2021-08-20T04:16:24Z</time>
      </trkpt>
      <trkpt lat="43.1113" lon="-0.3979">
        <ele>494.74</ele>
        <time>2021-08-20T04:16:30Z</time>
      </trkpt>
      <trkpt lat="43.11111" lon="-0.39797">
        <ele>496.18</ele>
        <time>2021-08-20T04:16:37Z</time>
      </trkpt>
      <trkpt lat="43.11089" lon="-0.398">
        <ele>497.62</ele>
        <time>2021-08-20T04:16:46Z</time>
      </trkpt>
      <trkpt lat="43.11065" lon="-0.39801">
        <ele>499.06</ele>
        <time>2021-08-20T04:16:56Z</time>
      </trkpt>
      <trkpt lat="43.11063" lon="-0.398">
        <ele>499.54</ele>
        <time>2021-08-20T04:16:57Z</time>
      </trkpt>
      <trkpt lat="43.11061" lon="-0.39799">
        <ele>499.54</ele>
        <time>2021-08-20T04:16:58Z</time>
      </trkpt>
      <trkpt lat="43.11059" lon="-0.39799">
        <ele>499.54</ele>
        <time>2021-08-20T04:16:59Z</time>
      </trkpt>
      <trkpt lat="43.11057" lon="-0.39798">
        <ele>499.54</ele>
        <time>2021-08-20T04:17:00Z</time>
      </trkpt>
      <trkpt lat="43.11038" lon="-0.39801">
        <ele>500.5</ele>
        <time>2021-08-20T04:17:08Z</time>
      </trkpt>
      <trkpt lat="43.11019" lon="-0.39807">
        <ele>501.46</ele>
        <time>2021-08-20T04:17:16Z</time>
      </trkpt>
      <trkpt lat="43.10995" lon="-0.39818">
        <ele>503.39</ele>
        <time>2021-08-20T04:17:27Z</time>
      </trkpt>
      <trkpt lat="43.10979" lon="-0.39827">
        <ele>503.87</ele>
        <time>2021-08-20T04:17:34Z</time>
      </trkpt>
      <trkpt lat="43.10958" lon="-0.39836">
        <ele>504.83</ele>
        <time>2021-08-20T04:17:43Z</time>
      </trkpt>
      <trkpt lat="43.10934" lon="-0.39839">
        <ele>506.27</ele>
        <time>2021-08-20T04:17:53Z</time>
      </trkpt>
      <trkpt lat="43.10914" lon="-0.39844">
        <ele>508.19</ele>
        <time>2021-08-20T04:18:02Z</time>
      </trkpt>
      <trkpt lat="43.10894" lon="-0.39855">
        <ele>509.16</ele>
        <time>2021-08-20T04:18:10Z</time>
      </trkpt>
      <trkpt lat="43.10874" lon="-0.39864">
        <ele>510.12</ele>
        <time>2021-08-20T04:18:17Z</time>
      </trkpt>
      <trkpt lat="43.10859" lon="-0.3987">
        <ele>511.08</ele>
        <time>2021-08-20T04:18:23Z</time>
      </trkpt>
      <trkpt lat="43.10837" lon="-0.39881">
        <ele>512.52</ele>
        <time>2021-08-20T04:18:32Z</time>
      </trkpt>
      <trkpt lat="43.10819" lon="-0.39901">
        <ele>513.48</ele>
        <time>2021-08-20T04:18:41Z</time>
      </trkpt>
      <trkpt lat="43.10804" lon="-0.39927">
        <ele>514.92</ele>
        <time>2021-08-20T04:18:50Z</time>
      </trkpt>
      <trkpt lat="43.10789" lon="-0.39953">
        <ele>516.37</ele>
        <time>2021-08-20T04:18:59Z</time>
      </trkpt>
      <trkpt lat="43.1077" lon="-0.39978">
        <ele>517.81</ele>
        <time>2021-08-20T04:19:09Z</time>
      </trkpt>
      <trkpt lat="43.10752" lon="-0.39999">
        <ele>519.25</ele>
        <time>2021-08-20T04:19:18Z</time>
      </trkpt>
      <trkpt lat="43.10738" lon="-0.40027">
        <ele>520.69</ele>
        <time>2021-08-20T04:19:27Z</time>
      </trkpt>
      <trkpt lat="43.10729" lon="-0.40042">
        <ele>521.17</ele>
        <time>2021-08-20T04:19:32Z</time>
      </trkpt>
      <trkpt lat="43.10712" lon="-0.40061">
        <ele>522.13</ele>
        <time>2021-08-20T04:19:40Z</time>
      </trkpt>
      <trkpt lat="43.10689" lon="-0.40085">
        <ele>523.09</ele>
        <time>2021-08-20T04:19:50Z</time>
      </trkpt>
      <trkpt lat="43.10666" lon="-0.40115">
        <ele>524.06</ele>
        <time>2021-08-20T04:19:59Z</time>
      </trkpt>
      <trkpt lat="43.10635" lon="-0.40148">
        <ele>524.06</ele>
        <time>2021-08-20T04:20:09Z</time>
      </trkpt>
      <trkpt lat="43.10624" lon="-0.4016">
        <ele>524.06</ele>
        <time>2021-08-20T04:20:12Z</time>
      </trkpt>
      <trkpt lat="43.1062" lon="-0.40162">
        <ele>524.06</ele>
        <time>2021-08-20T04:20:13Z</time>
      </trkpt>
      <trkpt lat="43.10616" lon="-0.40165">
        <ele>524.06</ele>
        <time>2021-08-20T04:20:14Z</time>
      </trkpt>
      <trkpt lat="43.10611" lon="-0.40167">
        <ele>524.06</ele>
        <time>2021-08-20T04:20:15Z</time>
      </trkpt>
      <trkpt lat="43.10607" lon="-0.4017">
        <ele>524.06</ele>
        <time>2021-08-20T04:20:16Z</time>
      </trkpt>
      <trkpt lat="43.10602" lon="-0.40173">
        <ele>524.06</ele>
        <time>2021-08-20T04:20:17Z</time>
      </trkpt>
      <trkpt lat="43.10597" lon="-0.40175">
        <ele>524.06</ele>
        <time>2021-08-20T04:20:18Z</time>
      </trkpt>
      <trkpt lat="43.10592" lon="-0.40176">
        <ele>522.61</ele>
        <time>2021-08-20T04:20:19Z</time>
      </trkpt>
      <trkpt lat="43.10575" lon="-0.40179">
        <ele>521.65</ele>
        <time>2021-08-20T04:20:22Z</time>
      </trkpt>
      <trkpt lat="43.10535" lon="-0.4018">
        <ele>519.25</ele>
        <time>2021-08-20T04:20:28Z</time>
      </trkpt>
      <trkpt lat="43.10489" lon="-0.40192">
        <ele>516.37</ele>
        <time>2021-08-20T04:20:34Z</time>
      </trkpt>
      <trkpt lat="43.10431" lon="-0.402">
        <ele>515.4</ele>
        <time>2021-08-20T04:20:42Z</time>
      </trkpt>
      <trkpt lat="43.10414" lon="-0.40201">
        <ele>518.77</ele>
        <time>2021-08-20T04:20:46Z</time>
      </trkpt>
      <trkpt lat="43.1039" lon="-0.40206">
        <ele>520.21</ele>
        <time>2021-08-20T04:20:54Z</time>
      </trkpt>
      <trkpt lat="43.10374" lon="-0.40211">
        <ele>522.13</ele>
        <time>2021-08-20T04:21:02Z</time>
      </trkpt>
      <trkpt lat="43.1036" lon="-0.40215">
        <ele>523.09</ele>
        <time>2021-08-20T04:21:10Z</time>
      </trkpt>
      <trkpt lat="43.10343" lon="-0.4022">
        <ele>525.02</ele>
        <time>2021-08-20T04:21:20Z</time>
      </trkpt>
      <trkpt lat="43.10327" lon="-0.40222">
        <ele>525.98</ele>
        <time>2021-08-20T04:21:29Z</time>
      </trkpt>
      <trkpt lat="43.10313" lon="-0.40224">
        <ele>527.9</ele>
        <time>2021-08-20T04:21:37Z</time>
      </trkpt>
      <trkpt lat="43.10309" lon="-0.40226">
        <ele>528.86</ele>
        <time>2021-08-20T04:21:41Z</time>
      </trkpt>
      <trkpt lat="43.10308" lon="-0.40227">
        <ele>528.86</ele>
        <time>2021-08-20T04:21:42Z</time>
      </trkpt>
      <trkpt lat="43.10307" lon="-0.40228">
        <ele>528.86</ele>
        <time>2021-08-20T04:21:43Z</time>
      </trkpt>
      <trkpt lat="43.10306" lon="-0.40229">
        <ele>529.82</ele>
        <time>2021-08-20T04:21:44Z</time>
      </trkpt>
      <trkpt lat="43.10305" lon="-0.4023">
        <ele>529.82</ele>
        <time>2021-08-20T04:21:45Z</time>
      </trkpt>
      <trkpt lat="43.10304" lon="-0.40231">
        <ele>529.82</ele>
        <time>2021-08-20T04:21:46Z</time>
      </trkpt>
      <trkpt lat="43.10295" lon="-0.40242">
        <ele>531.75</ele>
        <time>2021-08-20T04:21:53Z</time>
      </trkpt>
      <trkpt lat="43.10294" lon="-0.40244">
        <ele>531.75</ele>
        <time>2021-08-20T04:21:54Z</time>
      </trkpt>
      <trkpt lat="43.10293" lon="-0.40247">
        <ele>531.75</ele>
        <time>2021-08-20T04:21:55Z</time>
      </trkpt>
      <trkpt lat="43.10293" lon="-0.4025">
        <ele>531.75</ele>
        <time>2021-08-20T04:21:56Z</time>
      </trkpt>
      <trkpt lat="43.10294" lon="-0.40253">
        <ele>531.75</ele>
        <time>2021-08-20T04:21:57Z</time>
      </trkpt>
      <trkpt lat="43.10295" lon="-0.40256">
        <ele>532.23</ele>
        <time>2021-08-20T04:21:58Z</time>
      </trkpt>
      <trkpt lat="43.10296" lon="-0.40259">
        <ele>532.23</ele>
        <time>2021-08-20T04:21:59Z</time>
      </trkpt>
      <trkpt lat="43.10297" lon="-0.40262">
        <ele>532.23</ele>
        <time>2021-08-20T04:22:00Z</time>
      </trkpt>
      <trkpt lat="43.10296" lon="-0.40285">
        <ele>532.71</ele>
        <time>2021-08-20T04:22:07Z</time>
      </trkpt>
      <trkpt lat="43.10288" lon="-0.40311">
        <ele>533.19</ele>
        <time>2021-08-20T04:22:15Z</time>
      </trkpt>
      <trkpt lat="43.10276" lon="-0.40338">
        <ele>534.15</ele>
        <time>2021-08-20T04:22:22Z</time>
      </trkpt>
      <trkpt lat="43.10256" lon="-0.40358">
        <ele>534.63</ele>
        <time>2021-08-20T04:22:30Z</time>
      </trkpt>
      <trkpt lat="43.10237" lon="-0.40362">
        <ele>536.55</ele>
        <time>2021-08-20T04:22:37Z</time>
      </trkpt>
      <trkpt lat="43.10235" lon="-0.40362">
        <ele>536.55</ele>
        <time>2021-08-20T04:22:38Z</time>
      </trkpt>
      <trkpt lat="43.10234" lon="-0.40361">
        <ele>537.03</ele>
        <time>2021-08-20T04:22:39Z</time>
      </trkpt>
      <trkpt lat="43.10233" lon="-0.40359">
        <ele>537.03</ele>
        <time>2021-08-20T04:22:40Z</time>
      </trkpt>
      <trkpt lat="43.1023" lon="-0.40351">
        <ele>537.03</ele>
        <time>2021-08-20T04:22:46Z</time>
      </trkpt>
      <trkpt lat="43.10231" lon="-0.40351">
        <ele>537.03</ele>
        <time>2021-08-20T04:22:57Z</time>
      </trkpt>
      <trkpt lat="43.10232" lon="-0.40352">
        <ele>537.51</ele>
        <time>2021-08-20T04:23:16Z</time>
      </trkpt>
      <trkpt lat="43.10232" lon="-0.40352">
        <ele>537.51</ele>
        <time>2021-08-20T04:23:36Z</time>
      </trkpt>
      <trkpt lat="43.10231" lon="-0.40352">
        <ele>537.51</ele>
        <time>2021-08-20T04:23:58Z</time>
      </trkpt>
      <trkpt lat="43.1023" lon="-0.40351">
        <ele>537.51</ele>
        <time>2021-08-20T04:24:11Z</time>
      </trkpt>
      <trkpt lat="43.10231" lon="-0.40351">
        <ele>537.51</ele>
        <time>2021-08-20T04:24:12Z</time>
      </trkpt>
      <trkpt lat="43.10233" lon="-0.40351">
        <ele>537.51</ele>
        <time>2021-08-20T04:24:13Z</time>
      </trkpt>
      <trkpt lat="43.10233" lon="-0.40353">
        <ele>537.51</ele>
        <time>2021-08-20T04:24:14Z</time>
      </trkpt>
      <trkpt lat="43.10234" lon="-0.40356">
        <ele>537.51</ele>
        <time>2021-08-20T04:24:15Z</time>
      </trkpt>
      <trkpt lat="43.10233" lon="-0.40359">
        <ele>537.51</ele>
        <time>2021-08-20T04:24:16Z</time>
      </trkpt>
      <trkpt lat="43.10232" lon="-0.4036">
        <ele>537.51</ele>
        <time>2021-08-20T04:24:18Z</time>
      </trkpt>
      <trkpt lat="43.10231" lon="-0.40361">
        <ele>537.51</ele>
        <time>2021-08-20T04:24:19Z</time>
      </trkpt>
      <trkpt lat="43.10224" lon="-0.40364">
        <ele>538.48</ele>
        <time>2021-08-20T04:24:25Z</time>
      </trkpt>
      <trkpt lat="43.10218" lon="-0.40368">
        <ele>539.44</ele>
        <time>2021-08-20T04:24:30Z</time>
      </trkpt>
      <trkpt lat="43.10213" lon="-0.40376">
        <ele>539.44</ele>
        <time>2021-08-20T04:24:36Z</time>
      </trkpt>
      <trkpt lat="43.10203" lon="-0.40395">
        <ele>539.92</ele>
        <time>2021-08-20T04:24:44Z</time>
      </trkpt>
      <trkpt lat="43.10202" lon="-0.40397">
        <ele>539.92</ele>
        <time>2021-08-20T04:24:45Z</time>
      </trkpt>
      <trkpt lat="43.10201" lon="-0.40399">
        <ele>539.92</ele>
        <time>2021-08-20T04:24:46Z</time>
      </trkpt>
      <trkpt lat="43.102" lon="-0.40402">
        <ele>539.92</ele>
        <time>2021-08-20T04:24:47Z</time>
      </trkpt>
      <trkpt lat="43.10189" lon="-0.40429">
        <ele>539.92</ele>
        <time>2021-08-20T04:24:56Z</time>
      </trkpt>
      <trkpt lat="43.10184" lon="-0.40452">
        <ele>539.92</ele>
        <time>2021-08-20T04:25:04Z</time>
      </trkpt>
      <trkpt lat="43.10179" lon="-0.40471">
        <ele>540.4</ele>
        <time>2021-08-20T04:25:10Z</time>
      </trkpt>
      <trkpt lat="43.10178" lon="-0.40471">
        <ele>540.4</ele>
        <time>2021-08-20T04:25:11Z</time>
      </trkpt>
      <trkpt lat="43.10177" lon="-0.4047">
        <ele>540.4</ele>
        <time>2021-08-20T04:25:12Z</time>
      </trkpt>
      <trkpt lat="43.10178" lon="-0.40468">
        <ele>540.4</ele>
        <time>2021-08-20T04:25:13Z</time>
      </trkpt>
      <trkpt lat="43.10177" lon="-0.40466">
        <ele>540.4</ele>
        <time>2021-08-20T04:25:14Z</time>
      </trkpt>
      <trkpt lat="43.10175" lon="-0.40465">
        <ele>540.4</ele>
        <time>2021-08-20T04:25:15Z</time>
      </trkpt>
      <trkpt lat="43.10173" lon="-0.40467">
        <ele>540.4</ele>
        <time>2021-08-20T04:25:16Z</time>
      </trkpt>
      <trkpt lat="43.10171" lon="-0.40469">
        <ele>540.4</ele>
        <time>2021-08-20T04:25:17Z</time>
      </trkpt>
      <trkpt lat="43.10168" lon="-0.40472">
        <ele>538.48</ele>
        <time>2021-08-20T04:25:18Z</time>
      </trkpt>
      <trkpt lat="43.10157" lon="-0.4048">
        <ele>536.55</ele>
        <time>2021-08-20T04:25:21Z</time>
      </trkpt>
      <trkpt lat="43.10136" lon="-0.40494">
        <ele>533.19</ele>
        <time>2021-08-20T04:25:26Z</time>
      </trkpt>
      <trkpt lat="43.10128" lon="-0.40501">
        <ele>532.71</ele>
        <time>2021-08-20T04:25:28Z</time>
      </trkpt>
      <trkpt lat="43.10125" lon="-0.40506">
        <ele>531.75</ele>
        <time>2021-08-20T04:25:29Z</time>
      </trkpt>
      <trkpt lat="43.10124" lon="-0.40512">
        <ele>531.27</ele>
        <time>2021-08-20T04:25:30Z</time>
      </trkpt>
      <trkpt lat="43.10121" lon="-0.40547">
        <ele>527.9</ele>
        <time>2021-08-20T04:25:35Z</time>
      </trkpt>
      <trkpt lat="43.10124" lon="-0.4058">
        <ele>525.98</ele>
        <time>2021-08-20T04:25:39Z</time>
      </trkpt>
      <trkpt lat="43.10125" lon="-0.40595">
        <ele>525.98</ele>
        <time>2021-08-20T04:25:42Z</time>
      </trkpt>
      <trkpt lat="43.10129" lon="-0.40619">
        <ele>525.98</ele>
        <time>2021-08-20T04:25:49Z</time>
      </trkpt>
      <trkpt lat="43.1014" lon="-0.40635">
        <ele>525.5</ele>
        <time>2021-08-20T04:25:53Z</time>
      </trkpt>
      <trkpt lat="43.10142" lon="-0.40641">
        <ele>525.02</ele>
        <time>2021-08-20T04:25:54Z</time>
      </trkpt>
      <trkpt lat="43.10145" lon="-0.40647">
        <ele>524.06</ele>
        <time>2021-08-20T04:25:55Z</time>
      </trkpt>
      <trkpt lat="43.10154" lon="-0.40671">
        <ele>519.73</ele>
        <time>2021-08-20T04:25:58Z</time>
      </trkpt>
      <trkpt lat="43.10165" lon="-0.40703">
        <ele>518.29</ele>
        <time>2021-08-20T04:26:01Z</time>
      </trkpt>
      <trkpt lat="43.10183" lon="-0.4076">
        <ele>517.81</ele>
        <time>2021-08-20T04:26:07Z</time>
      </trkpt>
      <trkpt lat="43.10194" lon="-0.40799">
        <ele>518.29</ele>
        <time>2021-08-20T04:26:12Z</time>
      </trkpt>
      <trkpt lat="43.10198" lon="-0.40826">
        <ele>515.4</ele>
        <time>2021-08-20T04:26:15Z</time>
      </trkpt>
      <trkpt lat="43.102" lon="-0.40836">
        <ele>515.4</ele>
        <time>2021-08-20T04:26:16Z</time>
      </trkpt>
      <trkpt lat="43.10203" lon="-0.40853">
        <ele>514.44</ele>
        <time>2021-08-20T04:26:18Z</time>
      </trkpt>
      <trkpt lat="43.10207" lon="-0.4086">
        <ele>513.96</ele>
        <time>2021-08-20T04:26:19Z</time>
      </trkpt>
      <trkpt lat="43.10209" lon="-0.40867">
        <ele>513</ele>
        <time>2021-08-20T04:26:20Z</time>
      </trkpt>
      <trkpt lat="43.10212" lon="-0.40874">
        <ele>513</ele>
        <time>2021-08-20T04:26:21Z</time>
      </trkpt>
      <trkpt lat="43.10215" lon="-0.40881">
        <ele>512.04</ele>
        <time>2021-08-20T04:26:22Z</time>
      </trkpt>
      <trkpt lat="43.10218" lon="-0.40888">
        <ele>510.6</ele>
        <time>2021-08-20T04:26:23Z</time>
      </trkpt>
      <trkpt lat="43.10225" lon="-0.40901">
        <ele>508.19</ele>
        <time>2021-08-20T04:26:25Z</time>
      </trkpt>
      <trkpt lat="43.10229" lon="-0.40906">
        <ele>507.23</ele>
        <time>2021-08-20T04:26:26Z</time>
      </trkpt>
      <trkpt lat="43.10238" lon="-0.40916">
        <ele>504.83</ele>
        <time>2021-08-20T04:26:28Z</time>
      </trkpt>
      <trkpt lat="43.10243" lon="-0.40924">
        <ele>502.91</ele>
        <time>2021-08-20T04:26:29Z</time>
      </trkpt>
      <trkpt lat="43.10246" lon="-0.40931">
        <ele>501.95</ele>
        <time>2021-08-20T04:26:30Z</time>
      </trkpt>
      <trkpt lat="43.10248" lon="-0.40939">
        <ele>501.46</ele>
        <time>2021-08-20T04:26:31Z</time>
      </trkpt>
      <trkpt lat="43.1025" lon="-0.4095">
        <ele>501.46</ele>
        <time>2021-08-20T04:26:32Z</time>
      </trkpt>
      <trkpt lat="43.10249" lon="-0.40961">
        <ele>501.46</ele>
        <time>2021-08-20T04:26:33Z</time>
      </trkpt>
      <trkpt lat="43.1025" lon="-0.4097">
        <ele>501.46</ele>
        <time>2021-08-20T04:26:34Z</time>
      </trkpt>
      <trkpt lat="43.10252" lon="-0.40977">
        <ele>501.46</ele>
        <time>2021-08-20T04:26:35Z</time>
      </trkpt>
      <trkpt lat="43.1025" lon="-0.40998">
        <ele>499.54</ele>
        <time>2021-08-20T04:26:37Z</time>
      </trkpt>
      <trkpt lat="43.1025" lon="-0.41007">
        <ele>498.1</ele>
        <time>2021-08-20T04:26:38Z</time>
      </trkpt>
      <trkpt lat="43.1025" lon="-0.41016">
        <ele>497.14</ele>
        <time>2021-08-20T04:26:39Z</time>
      </trkpt>
      <trkpt lat="43.10251" lon="-0.41025">
        <ele>496.66</ele>
        <time>2021-08-20T04:26:40Z</time>
      </trkpt>
      <trkpt lat="43.10254" lon="-0.41034">
        <ele>496.66</ele>
        <time>2021-08-20T04:26:41Z</time>
      </trkpt>
      <trkpt lat="43.10256" lon="-0.41041">
        <ele>496.66</ele>
        <time>2021-08-20T04:26:42Z</time>
      </trkpt>
      <trkpt lat="43.10257" lon="-0.41048">
        <ele>496.66</ele>
        <time>2021-08-20T04:26:43Z</time>
      </trkpt>
      <trkpt lat="43.10258" lon="-0.41054">
        <ele>498.1</ele>
        <time>2021-08-20T04:26:44Z</time>
      </trkpt>
      <trkpt lat="43.10258" lon="-0.41059">
        <ele>498.1</ele>
        <time>2021-08-20T04:26:45Z</time>
      </trkpt>
      <trkpt lat="43.10258" lon="-0.41063">
        <ele>498.1</ele>
        <time>2021-08-20T04:26:46Z</time>
      </trkpt>
      <trkpt lat="43.10259" lon="-0.41067">
        <ele>498.58</ele>
        <time>2021-08-20T04:26:47Z</time>
      </trkpt>
      <trkpt lat="43.10259" lon="-0.41071">
        <ele>498.58</ele>
        <time>2021-08-20T04:26:48Z</time>
      </trkpt>
      <trkpt lat="43.10258" lon="-0.41073">
        <ele>498.58</ele>
        <time>2021-08-20T04:26:49Z</time>
      </trkpt>
      <trkpt lat="43.10257" lon="-0.41075">
        <ele>498.58</ele>
        <time>2021-08-20T04:26:50Z</time>
      </trkpt>
      <trkpt lat="43.10256" lon="-0.41077">
        <ele>498.58</ele>
        <time>2021-08-20T04:26:51Z</time>
      </trkpt>
      <trkpt lat="43.10256" lon="-0.4108">
        <ele>498.58</ele>
        <time>2021-08-20T04:26:52Z</time>
      </trkpt>
      <trkpt lat="43.10257" lon="-0.41084">
        <ele>498.58</ele>
        <time>2021-08-20T04:26:53Z</time>
      </trkpt>
      <trkpt lat="43.10259" lon="-0.41086">
        <ele>498.58</ele>
        <time>2021-08-20T04:26:54Z</time>
      </trkpt>
      <trkpt lat="43.10262" lon="-0.41088">
        <ele>498.58</ele>
        <time>2021-08-20T04:26:55Z</time>
      </trkpt>
      <trkpt lat="43.10265" lon="-0.41089">
        <ele>497.14</ele>
        <time>2021-08-20T04:26:56Z</time>
      </trkpt>
      <trkpt lat="43.10266" lon="-0.4109">
        <ele>496.66</ele>
        <time>2021-08-20T04:26:57Z</time>
      </trkpt>
      <trkpt lat="43.10268" lon="-0.4109">
        <ele>496.66</ele>
        <time>2021-08-20T04:26:58Z</time>
      </trkpt>
      <trkpt lat="43.10269" lon="-0.41092">
        <ele>496.66</ele>
        <time>2021-08-20T04:27:03Z</time>
      </trkpt>
      <trkpt lat="43.10269" lon="-0.41093">
        <ele>496.66</ele>
        <time>2021-08-20T04:27:04Z</time>
      </trkpt>
      <trkpt lat="43.10269" lon="-0.41095">
        <ele>496.18</ele>
        <time>2021-08-20T04:27:05Z</time>
      </trkpt>
      <trkpt lat="43.10269" lon="-0.41097">
        <ele>496.18</ele>
        <time>2021-08-20T04:27:07Z</time>
      </trkpt>
      <trkpt lat="43.10269" lon="-0.41099">
        <ele>495.7</ele>
        <time>2021-08-20T04:27:08Z</time>
      </trkpt>
      <trkpt lat="43.10269" lon="-0.41114">
        <ele>493.77</ele>
        <time>2021-08-20T04:27:15Z</time>
      </trkpt>
      <trkpt lat="43.10265" lon="-0.41126">
        <ele>490.89</ele>
        <time>2021-08-20T04:27:20Z</time>
      </trkpt>
      <trkpt lat="43.10265" lon="-0.41128">
        <ele>490.41</ele>
        <time>2021-08-20T04:27:21Z</time>
      </trkpt>
      <trkpt lat="43.10265" lon="-0.41129">
        <ele>490.41</ele>
        <time>2021-08-20T04:27:22Z</time>
      </trkpt>
      <trkpt lat="43.10267" lon="-0.41131">
        <ele>489.93</ele>
        <time>2021-08-20T04:27:24Z</time>
      </trkpt>
      <trkpt lat="43.10268" lon="-0.41132">
        <ele>489.45</ele>
        <time>2021-08-20T04:27:25Z</time>
      </trkpt>
      <trkpt lat="43.1027" lon="-0.41133">
        <ele>488.49</ele>
        <time>2021-08-20T04:27:26Z</time>
      </trkpt>
      <trkpt lat="43.10271" lon="-0.41134">
        <ele>488.49</ele>
        <time>2021-08-20T04:27:27Z</time>
      </trkpt>
      <trkpt lat="43.10272" lon="-0.41136">
        <ele>488.49</ele>
        <time>2021-08-20T04:27:28Z</time>
      </trkpt>
      <trkpt lat="43.10275" lon="-0.41142">
        <ele>487.53</ele>
        <time>2021-08-20T04:27:35Z</time>
      </trkpt>
      <trkpt lat="43.10276" lon="-0.41146">
        <ele>486.56</ele>
        <time>2021-08-20T04:27:45Z</time>
      </trkpt>
      <trkpt lat="43.1028" lon="-0.41147">
        <ele>486.08</ele>
        <time>2021-08-20T04:27:51Z</time>
      </trkpt>
      <trkpt lat="43.10284" lon="-0.41151">
        <ele>484.64</ele>
        <time>2021-08-20T04:27:59Z</time>
      </trkpt>
      <trkpt lat="43.10288" lon="-0.41156">
        <ele>482.72</ele>
        <time>2021-08-20T04:28:06Z</time>
      </trkpt>
      <trkpt lat="43.10292" lon="-0.41159">
        <ele>481.76</ele>
        <time>2021-08-20T04:28:13Z</time>
      </trkpt>
      <trkpt lat="43.10295" lon="-0.41157">
        <ele>481.76</ele>
        <time>2021-08-20T04:28:20Z</time>
      </trkpt>
      <trkpt lat="43.10296" lon="-0.41158">
        <ele>481.76</ele>
        <time>2021-08-20T04:28:29Z</time>
      </trkpt>
      <trkpt lat="43.10298" lon="-0.41162">
        <ele>480.8</ele>
        <time>2021-08-20T04:28:37Z</time>
      </trkpt>
      <trkpt lat="43.10301" lon="-0.41163">
        <ele>481.28</ele>
        <time>2021-08-20T04:28:44Z</time>
      </trkpt>
      <trkpt lat="43.10305" lon="-0.41166">
        <ele>481.28</ele>
        <time>2021-08-20T04:28:51Z</time>
      </trkpt>
      <trkpt lat="43.10309" lon="-0.41166">
        <ele>481.28</ele>
        <time>2021-08-20T04:28:58Z</time>
      </trkpt>
      <trkpt lat="43.10312" lon="-0.41164">
        <ele>480.32</ele>
        <time>2021-08-20T04:29:03Z</time>
      </trkpt>
      <trkpt lat="43.10313" lon="-0.41163">
        <ele>479.84</ele>
        <time>2021-08-20T04:29:04Z</time>
      </trkpt>
      <trkpt lat="43.10321" lon="-0.41162">
        <ele>478.87</ele>
        <time>2021-08-20T04:29:08Z</time>
      </trkpt>
      <trkpt lat="43.10322" lon="-0.4116">
        <ele>478.87</ele>
        <time>2021-08-20T04:29:09Z</time>
      </trkpt>
      <trkpt lat="43.10336" lon="-0.41152">
        <ele>478.87</ele>
        <time>2021-08-20T04:29:16Z</time>
      </trkpt>
      <trkpt lat="43.10345" lon="-0.41148">
        <ele>478.87</ele>
        <time>2021-08-20T04:29:23Z</time>
      </trkpt>
      <trkpt lat="43.10359" lon="-0.41144">
        <ele>478.87</ele>
        <time>2021-08-20T04:29:29Z</time>
      </trkpt>
      <trkpt lat="43.10381" lon="-0.41132">
        <ele>480.32</ele>
        <time>2021-08-20T04:29:37Z</time>
      </trkpt>
      <trkpt lat="43.10401" lon="-0.41122">
        <ele>480.32</ele>
        <time>2021-08-20T04:29:44Z</time>
      </trkpt>
      <trkpt lat="43.10416" lon="-0.41116">
        <ele>480.32</ele>
        <time>2021-08-20T04:29:51Z</time>
      </trkpt>
      <trkpt lat="43.10428" lon="-0.41109">
        <ele>480.8</ele>
        <time>2021-08-20T04:29:57Z</time>
      </trkpt>
      <trkpt lat="43.10442" lon="-0.41104">
        <ele>481.28</ele>
        <time>2021-08-20T04:30:03Z</time>
      </trkpt>
      <trkpt lat="43.10454" lon="-0.41098">
        <ele>479.84</ele>
        <time>2021-08-20T04:30:09Z</time>
      </trkpt>
      <trkpt lat="43.1046" lon="-0.41094">
        <ele>478.87</ele>
        <time>2021-08-20T04:30:11Z</time>
      </trkpt>
      <trkpt lat="43.10463" lon="-0.41091">
        <ele>478.39</ele>
        <time>2021-08-20T04:30:12Z</time>
      </trkpt>
      <trkpt lat="43.10478" lon="-0.41079">
        <ele>478.39</ele>
        <time>2021-08-20T04:30:19Z</time>
      </trkpt>
      <trkpt lat="43.10482" lon="-0.41079">
        <ele>477.91</ele>
        <time>2021-08-20T04:30:26Z</time>
      </trkpt>
      <trkpt lat="43.10486" lon="-0.41075">
        <ele>477.91</ele>
        <time>2021-08-20T04:30:39Z</time>
      </trkpt>
      <trkpt lat="43.10487" lon="-0.41076">
        <ele>477.43</ele>
        <time>2021-08-20T04:30:41Z</time>
      </trkpt>
      <trkpt lat="43.1049" lon="-0.41078">
        <ele>476.95</ele>
        <time>2021-08-20T04:30:44Z</time>
      </trkpt>
      <trkpt lat="43.10491" lon="-0.41078">
        <ele>476.95</ele>
        <time>2021-08-20T04:30:45Z</time>
      </trkpt>
      <trkpt lat="43.10492" lon="-0.41077">
        <ele>476.95</ele>
        <time>2021-08-20T04:30:46Z</time>
      </trkpt>
      <trkpt lat="43.10493" lon="-0.41078">
        <ele>476.95</ele>
        <time>2021-08-20T04:30:47Z</time>
      </trkpt>
      <trkpt lat="43.10495" lon="-0.41079">
        <ele>476.47</ele>
        <time>2021-08-20T04:30:48Z</time>
      </trkpt>
      <trkpt lat="43.10497" lon="-0.41081">
        <ele>476.47</ele>
        <time>2021-08-20T04:30:49Z</time>
      </trkpt>
      <trkpt lat="43.1051" lon="-0.41091">
        <ele>474.07</ele>
        <time>2021-08-20T04:30:54Z</time>
      </trkpt>
      <trkpt lat="43.10528" lon="-0.41101">
        <ele>474.07</ele>
        <time>2021-08-20T04:31:00Z</time>
      </trkpt>
      <trkpt lat="43.10532" lon="-0.41103">
        <ele>474.07</ele>
        <time>2021-08-20T04:31:02Z</time>
      </trkpt>
      <trkpt lat="43.10534" lon="-0.41105">
        <ele>473.11</ele>
        <time>2021-08-20T04:31:03Z</time>
      </trkpt>
      <trkpt lat="43.10539" lon="-0.41114">
        <ele>471.66</ele>
        <time>2021-08-20T04:31:06Z</time>
      </trkpt>
      <trkpt lat="43.10549" lon="-0.41128">
        <ele>470.22</ele>
        <time>2021-08-20T04:31:11Z</time>
      </trkpt>
      <trkpt lat="43.10564" lon="-0.41144">
        <ele>469.26</ele>
        <time>2021-08-20T04:31:16Z</time>
      </trkpt>
      <trkpt lat="43.10567" lon="-0.41145">
        <ele>469.26</ele>
        <time>2021-08-20T04:31:17Z</time>
      </trkpt>
      <trkpt lat="43.10569" lon="-0.41146">
        <ele>469.26</ele>
        <time>2021-08-20T04:31:18Z</time>
      </trkpt>
      <trkpt lat="43.10571" lon="-0.41146">
        <ele>468.78</ele>
        <time>2021-08-20T04:31:19Z</time>
      </trkpt>
      <trkpt lat="43.10574" lon="-0.41147">
        <ele>468.3</ele>
        <time>2021-08-20T04:31:20Z</time>
      </trkpt>
      <trkpt lat="43.10582" lon="-0.4115">
        <ele>467.34</ele>
        <time>2021-08-20T04:31:22Z</time>
      </trkpt>
      <trkpt lat="43.10595" lon="-0.41169">
        <ele>465.42</ele>
        <time>2021-08-20T04:31:27Z</time>
      </trkpt>
      <trkpt lat="43.106" lon="-0.41178">
        <ele>464.93</ele>
        <time>2021-08-20T04:31:29Z</time>
      </trkpt>
      <trkpt lat="43.10603" lon="-0.41182">
        <ele>463.97</ele>
        <time>2021-08-20T04:31:30Z</time>
      </trkpt>
      <trkpt lat="43.10607" lon="-0.41185">
        <ele>463.97</ele>
        <time>2021-08-20T04:31:31Z</time>
      </trkpt>
      <trkpt lat="43.1062" lon="-0.41203">
        <ele>463.01</ele>
        <time>2021-08-20T04:31:36Z</time>
      </trkpt>
      <trkpt lat="43.10631" lon="-0.41209">
        <ele>462.53</ele>
        <time>2021-08-20T04:31:40Z</time>
      </trkpt>
      <trkpt lat="43.10634" lon="-0.4121">
        <ele>462.05</ele>
        <time>2021-08-20T04:31:45Z</time>
      </trkpt>
      <trkpt lat="43.10636" lon="-0.41208">
        <ele>462.05</ele>
        <time>2021-08-20T04:31:52Z</time>
      </trkpt>
      <trkpt lat="43.10638" lon="-0.41204">
        <ele>461.57</ele>
        <time>2021-08-20T04:32:01Z</time>
      </trkpt>
      <trkpt lat="43.10641" lon="-0.41203">
        <ele>461.57</ele>
        <time>2021-08-20T04:32:10Z</time>
      </trkpt>
      <trkpt lat="43.10643" lon="-0.41202">
        <ele>461.57</ele>
        <time>2021-08-20T04:32:12Z</time>
      </trkpt>
      <trkpt lat="43.10647" lon="-0.41199">
        <ele>461.57</ele>
        <time>2021-08-20T04:32:15Z</time>
      </trkpt>
      <trkpt lat="43.1066" lon="-0.41193">
        <ele>461.57</ele>
        <time>2021-08-20T04:32:22Z</time>
      </trkpt>
      <trkpt lat="43.10674" lon="-0.41183">
        <ele>463.01</ele>
        <time>2021-08-20T04:32:31Z</time>
      </trkpt>
      <trkpt lat="43.10689" lon="-0.41175">
        <ele>463.97</ele>
        <time>2021-08-20T04:32:38Z</time>
      </trkpt>
      <trkpt lat="43.10692" lon="-0.41171">
        <ele>464.45</ele>
        <time>2021-08-20T04:32:41Z</time>
      </trkpt>
      <trkpt lat="43.10695" lon="-0.4117">
        <ele>464.45</ele>
        <time>2021-08-20T04:32:43Z</time>
      </trkpt>
      <trkpt lat="43.10697" lon="-0.41169">
        <ele>464.45</ele>
        <time>2021-08-20T04:32:44Z</time>
      </trkpt>
      <trkpt lat="43.10699" lon="-0.41167">
        <ele>464.45</ele>
        <time>2021-08-20T04:32:45Z</time>
      </trkpt>
      <trkpt lat="43.10702" lon="-0.41165">
        <ele>464.45</ele>
        <time>2021-08-20T04:32:46Z</time>
      </trkpt>
      <trkpt lat="43.10705" lon="-0.41162">
        <ele>462.53</ele>
        <time>2021-08-20T04:32:47Z</time>
      </trkpt>
      <trkpt lat="43.10708" lon="-0.41159">
        <ele>462.53</ele>
        <time>2021-08-20T04:32:48Z</time>
      </trkpt>
      <trkpt lat="43.10716" lon="-0.41158">
        <ele>462.05</ele>
        <time>2021-08-20T04:32:50Z</time>
      </trkpt>
      <trkpt lat="43.1072" lon="-0.41159">
        <ele>462.05</ele>
        <time>2021-08-20T04:32:51Z</time>
      </trkpt>
      <trkpt lat="43.10724" lon="-0.4116">
        <ele>461.57</ele>
        <time>2021-08-20T04:32:52Z</time>
      </trkpt>
      <trkpt lat="43.10727" lon="-0.41161">
        <ele>461.57</ele>
        <time>2021-08-20T04:32:53Z</time>
      </trkpt>
      <trkpt lat="43.10729" lon="-0.41163">
        <ele>463.01</ele>
        <time>2021-08-20T04:32:54Z</time>
      </trkpt>
      <trkpt lat="43.10731" lon="-0.41164">
        <ele>463.01</ele>
        <time>2021-08-20T04:32:55Z</time>
      </trkpt>
      <trkpt lat="43.10732" lon="-0.41165">
        <ele>463.49</ele>
        <time>2021-08-20T04:32:56Z</time>
      </trkpt>
      <trkpt lat="43.10733" lon="-0.41166">
        <ele>463.49</ele>
        <time>2021-08-20T04:32:57Z</time>
      </trkpt>
      <trkpt lat="43.10734" lon="-0.41167">
        <ele>463.97</ele>
        <time>2021-08-20T04:32:58Z</time>
      </trkpt>
      <trkpt lat="43.10735" lon="-0.41167">
        <ele>463.97</ele>
        <time>2021-08-20T04:32:59Z</time>
      </trkpt>
      <trkpt lat="43.10736" lon="-0.41168">
        <ele>463.97</ele>
        <time>2021-08-20T04:33:00Z</time>
      </trkpt>
      <trkpt lat="43.10751" lon="-0.41169">
        <ele>463.97</ele>
        <time>2021-08-20T04:33:06Z</time>
      </trkpt>
      <trkpt lat="43.1076" lon="-0.41168">
        <ele>463.01</ele>
        <time>2021-08-20T04:33:08Z</time>
      </trkpt>
      <trkpt lat="43.10764" lon="-0.41164">
        <ele>463.01</ele>
        <time>2021-08-20T04:33:09Z</time>
      </trkpt>
      <trkpt lat="43.10767" lon="-0.4116">
        <ele>462.05</ele>
        <time>2021-08-20T04:33:10Z</time>
      </trkpt>
      <trkpt lat="43.10774" lon="-0.41151">
        <ele>461.57</ele>
        <time>2021-08-20T04:33:12Z</time>
      </trkpt>
      <trkpt lat="43.10778" lon="-0.41148">
        <ele>460.61</ele>
        <time>2021-08-20T04:33:13Z</time>
      </trkpt>
      <trkpt lat="43.10781" lon="-0.41147">
        <ele>460.13</ele>
        <time>2021-08-20T04:33:14Z</time>
      </trkpt>
      <trkpt lat="43.10783" lon="-0.41146">
        <ele>460.13</ele>
        <time>2021-08-20T04:33:15Z</time>
      </trkpt>
      <trkpt lat="43.10785" lon="-0.41145">
        <ele>460.13</ele>
        <time>2021-08-20T04:33:16Z</time>
      </trkpt>
      <trkpt lat="43.10786" lon="-0.41145">
        <ele>460.13</ele>
        <time>2021-08-20T04:33:21Z</time>
      </trkpt>
      <trkpt lat="43.10791" lon="-0.41145">
        <ele>461.57</ele>
        <time>2021-08-20T04:33:28Z</time>
      </trkpt>
      <trkpt lat="43.10794" lon="-0.41143">
        <ele>462.05</ele>
        <time>2021-08-20T04:33:37Z</time>
      </trkpt>
      <trkpt lat="43.10797" lon="-0.41142">
        <ele>462.05</ele>
        <time>2021-08-20T04:33:44Z</time>
      </trkpt>
      <trkpt lat="43.10796" lon="-0.41144">
        <ele>462.53</ele>
        <time>2021-08-20T04:33:54Z</time>
      </trkpt>
      <trkpt lat="43.10797" lon="-0.41143">
        <ele>462.53</ele>
        <time>2021-08-20T04:34:03Z</time>
      </trkpt>
      <trkpt lat="43.10798" lon="-0.41143">
        <ele>463.01</ele>
        <time>2021-08-20T04:34:13Z</time>
      </trkpt>
      <trkpt lat="43.10805" lon="-0.4114">
        <ele>463.97</ele>
        <time>2021-08-20T04:34:21Z</time>
      </trkpt>
      <trkpt lat="43.10813" lon="-0.41134">
        <ele>465.42</ele>
        <time>2021-08-20T04:34:29Z</time>
      </trkpt>
      <trkpt lat="43.10816" lon="-0.41132">
        <ele>465.42</ele>
        <time>2021-08-20T04:34:32Z</time>
      </trkpt>
      <trkpt lat="43.10822" lon="-0.41128">
        <ele>466.38</ele>
        <time>2021-08-20T04:34:38Z</time>
      </trkpt>
      <trkpt lat="43.10823" lon="-0.41128">
        <ele>466.38</ele>
        <time>2021-08-20T04:34:39Z</time>
      </trkpt>
      <trkpt lat="43.10828" lon="-0.41123">
        <ele>466.86</ele>
        <time>2021-08-20T04:34:44Z</time>
      </trkpt>
      <trkpt lat="43.10832" lon="-0.4112">
        <ele>468.3</ele>
        <time>2021-08-20T04:34:51Z</time>
      </trkpt>
      <trkpt lat="43.1084" lon="-0.41118">
        <ele>468.78</ele>
        <time>2021-08-20T04:34:59Z</time>
      </trkpt>
      <trkpt lat="43.10843" lon="-0.41117">
        <ele>469.74</ele>
        <time>2021-08-20T04:35:05Z</time>
      </trkpt>
      <trkpt lat="43.10845" lon="-0.41115">
        <ele>469.74</ele>
        <time>2021-08-20T04:35:18Z</time>
      </trkpt>
      <trkpt lat="43.10851" lon="-0.41112">
        <ele>471.18</ele>
        <time>2021-08-20T04:35:27Z</time>
      </trkpt>
      <trkpt lat="43.10858" lon="-0.41107">
        <ele>472.63</ele>
        <time>2021-08-20T04:35:36Z</time>
      </trkpt>
      <trkpt lat="43.10865" lon="-0.41106">
        <ele>474.07</ele>
        <time>2021-08-20T04:35:45Z</time>
      </trkpt>
      <trkpt lat="43.10866" lon="-0.41105">
        <ele>474.07</ele>
        <time>2021-08-20T04:35:46Z</time>
      </trkpt>
      <trkpt lat="43.10871" lon="-0.41099">
        <ele>475.03</ele>
        <time>2021-08-20T04:35:53Z</time>
      </trkpt>
      <trkpt lat="43.10879" lon="-0.41094">
        <ele>475.99</ele>
        <time>2021-08-20T04:36:01Z</time>
      </trkpt>
      <trkpt lat="43.10885" lon="-0.41087">
        <ele>476.95</ele>
        <time>2021-08-20T04:36:11Z</time>
      </trkpt>
      <trkpt lat="43.10888" lon="-0.41085">
        <ele>477.91</ele>
        <time>2021-08-20T04:36:19Z</time>
      </trkpt>
      <trkpt lat="43.10891" lon="-0.41083">
        <ele>477.91</ele>
        <time>2021-08-20T04:36:22Z</time>
      </trkpt>
      <trkpt lat="43.10892" lon="-0.41082">
        <ele>477.91</ele>
        <time>2021-08-20T04:36:23Z</time>
      </trkpt>
      <trkpt lat="43.10902" lon="-0.41076">
        <ele>477.91</ele>
        <time>2021-08-20T04:36:29Z</time>
      </trkpt>
      <trkpt lat="43.10905" lon="-0.41073">
        <ele>477.91</ele>
        <time>2021-08-20T04:36:31Z</time>
      </trkpt>
      <trkpt lat="43.10907" lon="-0.41072">
        <ele>477.91</ele>
        <time>2021-08-20T04:36:32Z</time>
      </trkpt>
      <trkpt lat="43.10909" lon="-0.41071">
        <ele>477.91</ele>
        <time>2021-08-20T04:36:33Z</time>
      </trkpt>
      <trkpt lat="43.10923" lon="-0.41069">
        <ele>478.39</ele>
        <time>2021-08-20T04:36:39Z</time>
      </trkpt>
      <trkpt lat="43.10925" lon="-0.41069">
        <ele>478.87</ele>
        <time>2021-08-20T04:36:40Z</time>
      </trkpt>
      <trkpt lat="43.10938" lon="-0.41072">
        <ele>479.84</ele>
        <time>2021-08-20T04:36:46Z</time>
      </trkpt>
      <trkpt lat="43.10944" lon="-0.41072">
        <ele>480.32</ele>
        <time>2021-08-20T04:36:50Z</time>
      </trkpt>
      <trkpt lat="43.10949" lon="-0.41077">
        <ele>481.76</ele>
        <time>2021-08-20T04:36:55Z</time>
      </trkpt>
      <trkpt lat="43.10957" lon="-0.41081">
        <ele>482.24</ele>
        <time>2021-08-20T04:37:01Z</time>
      </trkpt>
      <trkpt lat="43.10958" lon="-0.41081">
        <ele>482.24</ele>
        <time>2021-08-20T04:37:02Z</time>
      </trkpt>
      <trkpt lat="43.1096" lon="-0.41081">
        <ele>482.72</ele>
        <time>2021-08-20T04:37:03Z</time>
      </trkpt>
      <trkpt lat="43.10962" lon="-0.41081">
        <ele>482.72</ele>
        <time>2021-08-20T04:37:04Z</time>
      </trkpt>
      <trkpt lat="43.10969" lon="-0.4108">
        <ele>484.16</ele>
        <time>2021-08-20T04:37:11Z</time>
      </trkpt>
      <trkpt lat="43.10976" lon="-0.41079">
        <ele>485.12</ele>
        <time>2021-08-20T04:37:19Z</time>
      </trkpt>
      <trkpt lat="43.10982" lon="-0.4108">
        <ele>486.56</ele>
        <time>2021-08-20T04:37:28Z</time>
      </trkpt>
      <trkpt lat="43.10984" lon="-0.4108">
        <ele>488.49</ele>
        <time>2021-08-20T04:37:38Z</time>
      </trkpt>
      <trkpt lat="43.10988" lon="-0.41076">
        <ele>489.93</ele>
        <time>2021-08-20T04:37:47Z</time>
      </trkpt>
      <trkpt lat="43.10991" lon="-0.41076">
        <ele>490.41</ele>
        <time>2021-08-20T04:37:54Z</time>
      </trkpt>
      <trkpt lat="43.10993" lon="-0.41074">
        <ele>491.37</ele>
        <time>2021-08-20T04:38:01Z</time>
      </trkpt>
      <trkpt lat="43.11" lon="-0.41074">
        <ele>491.85</ele>
        <time>2021-08-20T04:38:08Z</time>
      </trkpt>
      <trkpt lat="43.11004" lon="-0.41075">
        <ele>491.85</ele>
        <time>2021-08-20T04:38:15Z</time>
      </trkpt>
      <trkpt lat="43.11005" lon="-0.41076">
        <ele>491.85</ele>
        <time>2021-08-20T04:38:16Z</time>
      </trkpt>
      <trkpt lat="43.11006" lon="-0.41077">
        <ele>491.85</ele>
        <time>2021-08-20T04:38:17Z</time>
      </trkpt>
      <trkpt lat="43.11008" lon="-0.41077">
        <ele>491.85</ele>
        <time>2021-08-20T04:38:18Z</time>
      </trkpt>
      <trkpt lat="43.11009" lon="-0.41077">
        <ele>491.85</ele>
        <time>2021-08-20T04:38:19Z</time>
      </trkpt>
      <trkpt lat="43.11011" lon="-0.41077">
        <ele>491.85</ele>
        <time>2021-08-20T04:38:20Z</time>
      </trkpt>
      <trkpt lat="43.11014" lon="-0.41076">
        <ele>491.85</ele>
        <time>2021-08-20T04:38:21Z</time>
      </trkpt>
      <trkpt lat="43.11016" lon="-0.41076">
        <ele>491.85</ele>
        <time>2021-08-20T04:38:22Z</time>
      </trkpt>
      <trkpt lat="43.11018" lon="-0.41075">
        <ele>491.85</ele>
        <time>2021-08-20T04:38:23Z</time>
      </trkpt>
      <trkpt lat="43.1102" lon="-0.41075">
        <ele>491.85</ele>
        <time>2021-08-20T04:38:24Z</time>
      </trkpt>
      <trkpt lat="43.11022" lon="-0.41075">
        <ele>491.85</ele>
        <time>2021-08-20T04:38:25Z</time>
      </trkpt>
      <trkpt lat="43.11024" lon="-0.41074">
        <ele>491.85</ele>
        <time>2021-08-20T04:38:26Z</time>
      </trkpt>
      <trkpt lat="43.11029" lon="-0.41072">
        <ele>491.85</ele>
        <time>2021-08-20T04:38:28Z</time>
      </trkpt>
      <trkpt lat="43.11032" lon="-0.41071">
        <ele>491.85</ele>
        <time>2021-08-20T04:38:29Z</time>
      </trkpt>
      <trkpt lat="43.11039" lon="-0.4107">
        <ele>491.85</ele>
        <time>2021-08-20T04:38:31Z</time>
      </trkpt>
      <trkpt lat="43.11049" lon="-0.41069">
        <ele>490.41</ele>
        <time>2021-08-20T04:38:33Z</time>
      </trkpt>
      <trkpt lat="43.11079" lon="-0.41063">
        <ele>488.49</ele>
        <time>2021-08-20T04:38:38Z</time>
      </trkpt>
      <trkpt lat="43.11121" lon="-0.41067">
        <ele>487.53</ele>
        <time>2021-08-20T04:38:45Z</time>
      </trkpt>
      <trkpt lat="43.11162" lon="-0.41075">
        <ele>484.16</ele>
        <time>2021-08-20T04:38:52Z</time>
      </trkpt>
      <trkpt lat="43.11189" lon="-0.4108">
        <ele>481.28</ele>
        <time>2021-08-20T04:38:56Z</time>
      </trkpt>
      <trkpt lat="43.11195" lon="-0.41083">
        <ele>480.8</ele>
        <time>2021-08-20T04:38:57Z</time>
      </trkpt>
      <trkpt lat="43.11207" lon="-0.41089">
        <ele>480.32</ele>
        <time>2021-08-20T04:38:59Z</time>
      </trkpt>
      <trkpt lat="43.11218" lon="-0.41094">
        <ele>479.35</ele>
        <time>2021-08-20T04:39:01Z</time>
      </trkpt>
      <trkpt lat="43.11241" lon="-0.41102">
        <ele>475.99</ele>
        <time>2021-08-20T04:39:05Z</time>
      </trkpt>
      <trkpt lat="43.11248" lon="-0.41104">
        <ele>475.99</ele>
        <time>2021-08-20T04:39:06Z</time>
      </trkpt>
      <trkpt lat="43.11266" lon="-0.4111">
        <ele>474.55</ele>
        <time>2021-08-20T04:39:09Z</time>
      </trkpt>
      <trkpt lat="43.11271" lon="-0.41113">
        <ele>474.55</ele>
        <time>2021-08-20T04:39:10Z</time>
      </trkpt>
      <trkpt lat="43.11299" lon="-0.41128">
        <ele>475.03</ele>
        <time>2021-08-20T04:39:17Z</time>
      </trkpt>
      <trkpt lat="43.11305" lon="-0.41128">
        <ele>475.03</ele>
        <time>2021-08-20T04:39:23Z</time>
      </trkpt>
      <trkpt lat="43.11309" lon="-0.41129">
        <ele>475.03</ele>
        <time>2021-08-20T04:39:33Z</time>
      </trkpt>
      <trkpt lat="43.11318" lon="-0.41124">
        <ele>474.55</ele>
        <time>2021-08-20T04:39:36Z</time>
      </trkpt>
      <trkpt lat="43.11323" lon="-0.4112">
        <ele>474.07</ele>
        <time>2021-08-20T04:39:37Z</time>
      </trkpt>
      <trkpt lat="43.11337" lon="-0.41109">
        <ele>472.63</ele>
        <time>2021-08-20T04:39:40Z</time>
      </trkpt>
      <trkpt lat="43.11346" lon="-0.41105">
        <ele>472.63</ele>
        <time>2021-08-20T04:39:43Z</time>
      </trkpt>
      <trkpt lat="43.11346" lon="-0.41108">
        <ele>472.63</ele>
        <time>2021-08-20T04:39:44Z</time>
      </trkpt>
      <trkpt lat="43.11345" lon="-0.41111">
        <ele>472.63</ele>
        <time>2021-08-20T04:39:45Z</time>
      </trkpt>
      <trkpt lat="43.11343" lon="-0.41112">
        <ele>472.63</ele>
        <time>2021-08-20T04:39:46Z</time>
      </trkpt>
      <trkpt lat="43.11341" lon="-0.41114">
        <ele>472.63</ele>
        <time>2021-08-20T04:39:47Z</time>
      </trkpt>
      <trkpt lat="43.11329" lon="-0.41129">
        <ele>474.07</ele>
        <time>2021-08-20T04:39:54Z</time>
      </trkpt>
      <trkpt lat="43.11328" lon="-0.41132">
        <ele>474.07</ele>
        <time>2021-08-20T04:39:55Z</time>
      </trkpt>
      <trkpt lat="43.11326" lon="-0.41141">
        <ele>474.55</ele>
        <time>2021-08-20T04:39:58Z</time>
      </trkpt>
      <trkpt lat="43.11326" lon="-0.41143">
        <ele>474.55</ele>
        <time>2021-08-20T04:39:59Z</time>
      </trkpt>
      <trkpt lat="43.11329" lon="-0.41149">
        <ele>474.55</ele>
        <time>2021-08-20T04:40:04Z</time>
      </trkpt>
      <trkpt lat="43.1133" lon="-0.41149">
        <ele>474.55</ele>
        <time>2021-08-20T04:40:05Z</time>
      </trkpt>
      <trkpt lat="43.11331" lon="-0.41148">
        <ele>474.55</ele>
        <time>2021-08-20T04:40:06Z</time>
      </trkpt>
      <trkpt lat="43.11333" lon="-0.41147">
        <ele>475.03</ele>
        <time>2021-08-20T04:40:07Z</time>
      </trkpt>
      <trkpt lat="43.11334" lon="-0.41146">
        <ele>475.03</ele>
        <time>2021-08-20T04:40:08Z</time>
      </trkpt>
      <trkpt lat="43.11349" lon="-0.41136">
        <ele>476.47</ele>
        <time>2021-08-20T04:40:15Z</time>
      </trkpt>
      <trkpt lat="43.11369" lon="-0.41126">
        <ele>476.47</ele>
        <time>2021-08-20T04:40:21Z</time>
      </trkpt>
      <trkpt lat="43.11381" lon="-0.41124">
        <ele>477.91</ele>
        <time>2021-08-20T04:40:26Z</time>
      </trkpt>
      <trkpt lat="43.11393" lon="-0.41126">
        <ele>479.35</ele>
        <time>2021-08-20T04:40:37Z</time>
      </trkpt>
      <trkpt lat="43.11399" lon="-0.41127">
        <ele>479.84</ele>
        <time>2021-08-20T04:40:42Z</time>
      </trkpt>
      <trkpt lat="43.11401" lon="-0.41127">
        <ele>479.84</ele>
        <time>2021-08-20T04:40:43Z</time>
      </trkpt>
      <trkpt lat="43.11412" lon="-0.41127">
        <ele>481.28</ele>
        <time>2021-08-20T04:40:51Z</time>
      </trkpt>
      <trkpt lat="43.11413" lon="-0.41127">
        <ele>481.28</ele>
        <time>2021-08-20T04:40:52Z</time>
      </trkpt>
      <trkpt lat="43.11415" lon="-0.41127">
        <ele>481.76</ele>
        <time>2021-08-20T04:40:53Z</time>
      </trkpt>
      <trkpt lat="43.11429" lon="-0.41129">
        <ele>483.2</ele>
        <time>2021-08-20T04:41:04Z</time>
      </trkpt>
      <trkpt lat="43.11439" lon="-0.41143">
        <ele>484.64</ele>
        <time>2021-08-20T04:41:13Z</time>
      </trkpt>
      <trkpt lat="43.11449" lon="-0.41159">
        <ele>485.6</ele>
        <time>2021-08-20T04:41:22Z</time>
      </trkpt>
      <trkpt lat="43.11461" lon="-0.41176">
        <ele>487.05</ele>
        <time>2021-08-20T04:41:32Z</time>
      </trkpt>
      <trkpt lat="43.11474" lon="-0.41191">
        <ele>488.97</ele>
        <time>2021-08-20T04:41:41Z</time>
      </trkpt>
      <trkpt lat="43.11489" lon="-0.41192">
        <ele>490.41</ele>
        <time>2021-08-20T04:41:51Z</time>
      </trkpt>
      <trkpt lat="43.1149" lon="-0.41191">
        <ele>490.41</ele>
        <time>2021-08-20T04:41:52Z</time>
      </trkpt>
      <trkpt lat="43.11502" lon="-0.41189">
        <ele>491.37</ele>
        <time>2021-08-20T04:42:01Z</time>
      </trkpt>
      <trkpt lat="43.11515" lon="-0.41186">
        <ele>492.81</ele>
        <time>2021-08-20T04:42:10Z</time>
      </trkpt>
      <trkpt lat="43.11532" lon="-0.41184">
        <ele>495.22</ele>
        <time>2021-08-20T04:42:20Z</time>
      </trkpt>
      <trkpt lat="43.11537" lon="-0.41185">
        <ele>496.18</ele>
        <time>2021-08-20T04:42:28Z</time>
      </trkpt>
      <trkpt lat="43.11545" lon="-0.41184">
        <ele>497.62</ele>
        <time>2021-08-20T04:42:36Z</time>
      </trkpt>
      <trkpt lat="43.11547" lon="-0.41184">
        <ele>498.1</ele>
        <time>2021-08-20T04:42:38Z</time>
      </trkpt>
      <trkpt lat="43.11558" lon="-0.41182">
        <ele>499.54</ele>
        <time>2021-08-20T04:42:49Z</time>
      </trkpt>
      <trkpt lat="43.11565" lon="-0.4118">
        <ele>500.5</ele>
        <time>2021-08-20T04:42:57Z</time>
      </trkpt>
      <trkpt lat="43.11572" lon="-0.41177">
        <ele>502.43</ele>
        <time>2021-08-20T04:43:06Z</time>
      </trkpt>
      <trkpt lat="43.11579" lon="-0.41176">
        <ele>503.39</ele>
        <time>2021-08-20T04:43:16Z</time>
      </trkpt>
      <trkpt lat="43.11587" lon="-0.41174">
        <ele>505.31</ele>
        <time>2021-08-20T04:43:27Z</time>
      </trkpt>
      <trkpt lat="43.11594" lon="-0.41172">
        <ele>506.27</ele>
        <time>2021-08-20T04:43:35Z</time>
      </trkpt>
      <trkpt lat="43.11603" lon="-0.41169">
        <ele>507.71</ele>
        <time>2021-08-20T04:43:45Z</time>
      </trkpt>
      <trkpt lat="43.11612" lon="-0.41166">
        <ele>509.16</ele>
        <time>2021-08-20T04:43:56Z</time>
      </trkpt>
      <trkpt lat="43.11619" lon="-0.41164">
        <ele>510.6</ele>
        <time>2021-08-20T04:44:05Z</time>
      </trkpt>
      <trkpt lat="43.11626" lon="-0.41162">
        <ele>512.52</ele>
        <time>2021-08-20T04:44:15Z</time>
      </trkpt>
      <trkpt lat="43.11636" lon="-0.4116">
        <ele>514.44</ele>
        <time>2021-08-20T04:44:25Z</time>
      </trkpt>
      <trkpt lat="43.11643" lon="-0.41158">
        <ele>515.88</ele>
        <time>2021-08-20T04:44:34Z</time>
      </trkpt>
      <trkpt lat="43.11651" lon="-0.41157">
        <ele>517.81</ele>
        <time>2021-08-20T04:44:45Z</time>
      </trkpt>
      <trkpt lat="43.11658" lon="-0.41154">
        <ele>519.73</ele>
        <time>2021-08-20T04:44:55Z</time>
      </trkpt>
      <trkpt lat="43.11664" lon="-0.41148">
        <ele>521.17</ele>
        <time>2021-08-20T04:45:04Z</time>
      </trkpt>
      <trkpt lat="43.11665" lon="-0.41146">
        <ele>521.17</ele>
        <time>2021-08-20T04:45:05Z</time>
      </trkpt>
      <trkpt lat="43.11672" lon="-0.4114">
        <ele>522.61</ele>
        <time>2021-08-20T04:45:13Z</time>
      </trkpt>
      <trkpt lat="43.11681" lon="-0.41134">
        <ele>523.58</ele>
        <time>2021-08-20T04:45:22Z</time>
      </trkpt>
      <trkpt lat="43.1169" lon="-0.4113">
        <ele>525.02</ele>
        <time>2021-08-20T04:45:31Z</time>
      </trkpt>
      <trkpt lat="43.11694" lon="-0.41128">
        <ele>525.5</ele>
        <time>2021-08-20T04:45:38Z</time>
      </trkpt>
      <trkpt lat="43.11703" lon="-0.41125">
        <ele>525.98</ele>
        <time>2021-08-20T04:45:45Z</time>
      </trkpt>
      <trkpt lat="43.11716" lon="-0.41119">
        <ele>527.42</ele>
        <time>2021-08-20T04:45:55Z</time>
      </trkpt>
      <trkpt lat="43.11725" lon="-0.41116">
        <ele>528.86</ele>
        <time>2021-08-20T04:46:02Z</time>
      </trkpt>
      <trkpt lat="43.11732" lon="-0.41112">
        <ele>529.34</ele>
        <time>2021-08-20T04:46:08Z</time>
      </trkpt>
      <trkpt lat="43.11736" lon="-0.41109">
        <ele>530.3</ele>
        <time>2021-08-20T04:46:12Z</time>
      </trkpt>
      <trkpt lat="43.11745" lon="-0.41104">
        <ele>531.27</ele>
        <time>2021-08-20T04:46:19Z</time>
      </trkpt>
      <trkpt lat="43.11754" lon="-0.41098">
        <ele>532.23</ele>
        <time>2021-08-20T04:46:26Z</time>
      </trkpt>
      <trkpt lat="43.11761" lon="-0.41093">
        <ele>532.71</ele>
        <time>2021-08-20T04:46:33Z</time>
      </trkpt>
      <trkpt lat="43.11762" lon="-0.41092">
        <ele>532.71</ele>
        <time>2021-08-20T04:46:34Z</time>
      </trkpt>
      <trkpt lat="43.11767" lon="-0.41089">
        <ele>533.67</ele>
        <time>2021-08-20T04:46:38Z</time>
      </trkpt>
      <trkpt lat="43.11775" lon="-0.41084">
        <ele>534.15</ele>
        <time>2021-08-20T04:46:44Z</time>
      </trkpt>
      <trkpt lat="43.11781" lon="-0.41079">
        <ele>535.59</ele>
        <time>2021-08-20T04:46:50Z</time>
      </trkpt>
      <trkpt lat="43.11791" lon="-0.41072">
        <ele>536.55</ele>
        <time>2021-08-20T04:46:57Z</time>
      </trkpt>
      <trkpt lat="43.11798" lon="-0.41068">
        <ele>537.99</ele>
        <time>2021-08-20T04:47:03Z</time>
      </trkpt>
      <trkpt lat="43.11803" lon="-0.41065">
        <ele>538.96</ele>
        <time>2021-08-20T04:47:07Z</time>
      </trkpt>
      <trkpt lat="43.11808" lon="-0.41062">
        <ele>539.92</ele>
        <time>2021-08-20T04:47:14Z</time>
      </trkpt>
      <trkpt lat="43.11814" lon="-0.41058">
        <ele>540.88</ele>
        <time>2021-08-20T04:47:23Z</time>
      </trkpt>
      <trkpt lat="43.11819" lon="-0.41057">
        <ele>541.84</ele>
        <time>2021-08-20T04:47:30Z</time>
      </trkpt>
      <trkpt lat="43.11823" lon="-0.41056">
        <ele>543.28</ele>
        <time>2021-08-20T04:47:37Z</time>
      </trkpt>
      <trkpt lat="43.1183" lon="-0.41059">
        <ele>544.72</ele>
        <time>2021-08-20T04:47:46Z</time>
      </trkpt>
      <trkpt lat="43.11838" lon="-0.41061">
        <ele>545.69</ele>
        <time>2021-08-20T04:47:54Z</time>
      </trkpt>
      <trkpt lat="43.11844" lon="-0.41062">
        <ele>547.13</ele>
        <time>2021-08-20T04:48:01Z</time>
      </trkpt>
      <trkpt lat="43.11844" lon="-0.41069">
        <ele>548.09</ele>
        <time>2021-08-20T04:48:11Z</time>
      </trkpt>
      <trkpt lat="43.11842" lon="-0.41075">
        <ele>549.53</ele>
        <time>2021-08-20T04:48:21Z</time>
      </trkpt>
      <trkpt lat="43.1184" lon="-0.41081">
        <ele>550.97</ele>
        <time>2021-08-20T04:48:31Z</time>
      </trkpt>
      <trkpt lat="43.11842" lon="-0.41086">
        <ele>552.41</ele>
        <time>2021-08-20T04:48:40Z</time>
      </trkpt>
      <trkpt lat="43.11843" lon="-0.41094">
        <ele>553.38</ele>
        <time>2021-08-20T04:48:48Z</time>
      </trkpt>
      <trkpt lat="43.11845" lon="-0.411">
        <ele>554.82</ele>
        <time>2021-08-20T04:48:58Z</time>
      </trkpt>
      <trkpt lat="43.11845" lon="-0.41106">
        <ele>556.26</ele>
        <time>2021-08-20T04:49:06Z</time>
      </trkpt>
      <trkpt lat="43.11846" lon="-0.41116">
        <ele>557.22</ele>
        <time>2021-08-20T04:49:14Z</time>
      </trkpt>
      <trkpt lat="43.11847" lon="-0.41123">
        <ele>558.66</ele>
        <time>2021-08-20T04:49:23Z</time>
      </trkpt>
      <trkpt lat="43.11848" lon="-0.41131">
        <ele>559.62</ele>
        <time>2021-08-20T04:49:31Z</time>
      </trkpt>
      <trkpt lat="43.11848" lon="-0.41138">
        <ele>560.11</ele>
        <time>2021-08-20T04:49:40Z</time>
      </trkpt>
      <trkpt lat="43.11849" lon="-0.41142">
        <ele>560.11</ele>
        <time>2021-08-20T04:49:46Z</time>
      </trkpt>
      <trkpt lat="43.1185" lon="-0.41144">
        <ele>561.07</ele>
        <time>2021-08-20T04:49:47Z</time>
      </trkpt>
      <trkpt lat="43.11851" lon="-0.41146">
        <ele>561.07</ele>
        <time>2021-08-20T04:49:48Z</time>
      </trkpt>
      <trkpt lat="43.11851" lon="-0.41149">
        <ele>561.07</ele>
        <time>2021-08-20T04:49:49Z</time>
      </trkpt>
      <trkpt lat="43.11852" lon="-0.4115">
        <ele>561.07</ele>
        <time>2021-08-20T04:49:50Z</time>
      </trkpt>
      <trkpt lat="43.11854" lon="-0.41159">
        <ele>561.55</ele>
        <time>2021-08-20T04:49:56Z</time>
      </trkpt>
      <trkpt lat="43.11856" lon="-0.41162">
        <ele>562.51</ele>
        <time>2021-08-20T04:49:58Z</time>
      </trkpt>
      <trkpt lat="43.1186" lon="-0.41175">
        <ele>562.99</ele>
        <time>2021-08-20T04:50:05Z</time>
      </trkpt>
      <trkpt lat="43.11861" lon="-0.41183">
        <ele>563.95</ele>
        <time>2021-08-20T04:50:08Z</time>
      </trkpt>
      <trkpt lat="43.11862" lon="-0.41185">
        <ele>563.95</ele>
        <time>2021-08-20T04:50:09Z</time>
      </trkpt>
      <trkpt lat="43.11862" lon="-0.41187">
        <ele>563.95</ele>
        <time>2021-08-20T04:50:10Z</time>
      </trkpt>
      <trkpt lat="43.11864" lon="-0.41199">
        <ele>564.91</ele>
        <time>2021-08-20T04:50:17Z</time>
      </trkpt>
      <trkpt lat="43.11865" lon="-0.41202">
        <ele>564.91</ele>
        <time>2021-08-20T04:50:18Z</time>
      </trkpt>
      <trkpt lat="43.11865" lon="-0.41205">
        <ele>564.91</ele>
        <time>2021-08-20T04:50:19Z</time>
      </trkpt>
      <trkpt lat="43.1187" lon="-0.41224">
        <ele>565.39</ele>
        <time>2021-08-20T04:50:26Z</time>
      </trkpt>
      <trkpt lat="43.11878" lon="-0.41234">
        <ele>564.43</ele>
        <time>2021-08-20T04:50:31Z</time>
      </trkpt>
      <trkpt lat="43.11896" lon="-0.41244">
        <ele>564.43</ele>
        <time>2021-08-20T04:50:38Z</time>
      </trkpt>
      <trkpt lat="43.11898" lon="-0.41244">
        <ele>564.43</ele>
        <time>2021-08-20T04:50:39Z</time>
      </trkpt>
      <trkpt lat="43.11899" lon="-0.41245">
        <ele>564.43</ele>
        <time>2021-08-20T04:50:40Z</time>
      </trkpt>
      <trkpt lat="43.11912" lon="-0.4125">
        <ele>564.43</ele>
        <time>2021-08-20T04:50:47Z</time>
      </trkpt>
      <trkpt lat="43.11934" lon="-0.41261">
        <ele>563.47</ele>
        <time>2021-08-20T04:50:55Z</time>
      </trkpt>
      <trkpt lat="43.11948" lon="-0.41274">
        <ele>563.47</ele>
        <time>2021-08-20T04:51:01Z</time>
      </trkpt>
      <trkpt lat="43.11965" lon="-0.41287">
        <ele>562.99</ele>
        <time>2021-08-20T04:51:07Z</time>
      </trkpt>
      <trkpt lat="43.11981" lon="-0.41293">
        <ele>563.47</ele>
        <time>2021-08-20T04:51:13Z</time>
      </trkpt>
      <trkpt lat="43.11999" lon="-0.41299">
        <ele>563.47</ele>
        <time>2021-08-20T04:51:20Z</time>
      </trkpt>
      <trkpt lat="43.12004" lon="-0.413">
        <ele>563.47</ele>
        <time>2021-08-20T04:51:22Z</time>
      </trkpt>
      <trkpt lat="43.12006" lon="-0.41299">
        <ele>563.47</ele>
        <time>2021-08-20T04:51:23Z</time>
      </trkpt>
      <trkpt lat="43.12009" lon="-0.41299">
        <ele>562.99</ele>
        <time>2021-08-20T04:51:24Z</time>
      </trkpt>
      <trkpt lat="43.12019" lon="-0.41298">
        <ele>561.55</ele>
        <time>2021-08-20T04:51:29Z</time>
      </trkpt>
      <trkpt lat="43.12025" lon="-0.413">
        <ele>561.07</ele>
        <time>2021-08-20T04:51:35Z</time>
      </trkpt>
      <trkpt lat="43.12027" lon="-0.41302">
        <ele>560.11</ele>
        <time>2021-08-20T04:51:36Z</time>
      </trkpt>
      <trkpt lat="43.12028" lon="-0.41303">
        <ele>560.11</ele>
        <time>2021-08-20T04:51:37Z</time>
      </trkpt>
      <trkpt lat="43.12032" lon="-0.41308">
        <ele>559.62</ele>
        <time>2021-08-20T04:51:39Z</time>
      </trkpt>
      <trkpt lat="43.12033" lon="-0.4131">
        <ele>559.14</ele>
        <time>2021-08-20T04:51:40Z</time>
      </trkpt>
      <trkpt lat="43.1204" lon="-0.41328">
        <ele>557.7</ele>
        <time>2021-08-20T04:51:45Z</time>
      </trkpt>
      <trkpt lat="43.12051" lon="-0.41346">
        <ele>557.7</ele>
        <time>2021-08-20T04:51:49Z</time>
      </trkpt>
      <trkpt lat="43.12058" lon="-0.41357">
        <ele>555.78</ele>
        <time>2021-08-20T04:51:53Z</time>
      </trkpt>
      <trkpt lat="43.12059" lon="-0.4136">
        <ele>555.3</ele>
        <time>2021-08-20T04:51:54Z</time>
      </trkpt>
      <trkpt lat="43.1206" lon="-0.41362">
        <ele>554.82</ele>
        <time>2021-08-20T04:51:55Z</time>
      </trkpt>
      <trkpt lat="43.12062" lon="-0.41364">
        <ele>553.86</ele>
        <time>2021-08-20T04:51:56Z</time>
      </trkpt>
      <trkpt lat="43.12072" lon="-0.41375">
        <ele>551.45</ele>
        <time>2021-08-20T04:52:00Z</time>
      </trkpt>
      <trkpt lat="43.12076" lon="-0.41377">
        <ele>550.97</ele>
        <time>2021-08-20T04:52:01Z</time>
      </trkpt>
      <trkpt lat="43.12079" lon="-0.41378">
        <ele>550.01</ele>
        <time>2021-08-20T04:52:02Z</time>
      </trkpt>
      <trkpt lat="43.12083" lon="-0.41379">
        <ele>550.49</ele>
        <time>2021-08-20T04:52:03Z</time>
      </trkpt>
      <trkpt lat="43.12086" lon="-0.4138">
        <ele>550.01</ele>
        <time>2021-08-20T04:52:04Z</time>
      </trkpt>
      <trkpt lat="43.12088" lon="-0.41381">
        <ele>550.01</ele>
        <time>2021-08-20T04:52:05Z</time>
      </trkpt>
      <trkpt lat="43.12091" lon="-0.41383">
        <ele>549.53</ele>
        <time>2021-08-20T04:52:06Z</time>
      </trkpt>
      <trkpt lat="43.12107" lon="-0.41387">
        <ele>548.09</ele>
        <time>2021-08-20T04:52:13Z</time>
      </trkpt>
      <trkpt lat="43.12119" lon="-0.41382">
        <ele>547.13</ele>
        <time>2021-08-20T04:52:17Z</time>
      </trkpt>
      <trkpt lat="43.12123" lon="-0.41381">
        <ele>547.13</ele>
        <time>2021-08-20T04:52:18Z</time>
      </trkpt>
      <trkpt lat="43.12129" lon="-0.41381">
        <ele>546.65</ele>
        <time>2021-08-20T04:52:19Z</time>
      </trkpt>
      <trkpt lat="43.12134" lon="-0.41381">
        <ele>546.65</ele>
        <time>2021-08-20T04:52:20Z</time>
      </trkpt>
      <trkpt lat="43.12138" lon="-0.41382">
        <ele>546.65</ele>
        <time>2021-08-20T04:52:21Z</time>
      </trkpt>
      <trkpt lat="43.12149" lon="-0.41383">
        <ele>548.09</ele>
        <time>2021-08-20T04:52:25Z</time>
      </trkpt>
      <trkpt lat="43.1215" lon="-0.41385">
        <ele>549.05</ele>
        <time>2021-08-20T04:52:31Z</time>
      </trkpt>
      <trkpt lat="43.1216" lon="-0.41388">
        <ele>550.01</ele>
        <time>2021-08-20T04:52:39Z</time>
      </trkpt>
      <trkpt lat="43.12167" lon="-0.41389">
        <ele>550.97</ele>
        <time>2021-08-20T04:52:48Z</time>
      </trkpt>
      <trkpt lat="43.12174" lon="-0.4139">
        <ele>551.93</ele>
        <time>2021-08-20T04:52:56Z</time>
      </trkpt>
      <trkpt lat="43.1218" lon="-0.41393">
        <ele>552.41</ele>
        <time>2021-08-20T04:53:05Z</time>
      </trkpt>
      <trkpt lat="43.12196" lon="-0.41396">
        <ele>552.9</ele>
        <time>2021-08-20T04:53:12Z</time>
      </trkpt>
      <trkpt lat="43.12215" lon="-0.41397">
        <ele>553.38</ele>
        <time>2021-08-20T04:53:19Z</time>
      </trkpt>
      <trkpt lat="43.12241" lon="-0.41394">
        <ele>552.41</ele>
        <time>2021-08-20T04:53:27Z</time>
      </trkpt>
      <trkpt lat="43.12262" lon="-0.41394">
        <ele>551.45</ele>
        <time>2021-08-20T04:53:33Z</time>
      </trkpt>
      <trkpt lat="43.12286" lon="-0.41395">
        <ele>549.53</ele>
        <time>2021-08-20T04:53:38Z</time>
      </trkpt>
      <trkpt lat="43.12296" lon="-0.41396">
        <ele>548.57</ele>
        <time>2021-08-20T04:53:40Z</time>
      </trkpt>
      <trkpt lat="43.123" lon="-0.41397">
        <ele>547.61</ele>
        <time>2021-08-20T04:53:41Z</time>
      </trkpt>
      <trkpt lat="43.12306" lon="-0.41399">
        <ele>548.09</ele>
        <time>2021-08-20T04:53:42Z</time>
      </trkpt>
      <trkpt lat="43.1231" lon="-0.41401">
        <ele>548.09</ele>
        <time>2021-08-20T04:53:43Z</time>
      </trkpt>
      <trkpt lat="43.12313" lon="-0.41403">
        <ele>548.09</ele>
        <time>2021-08-20T04:53:44Z</time>
      </trkpt>
      <trkpt lat="43.12336" lon="-0.41409">
        <ele>546.65</ele>
        <time>2021-08-20T04:53:50Z</time>
      </trkpt>
      <trkpt lat="43.12352" lon="-0.41412">
        <ele>546.65</ele>
        <time>2021-08-20T04:53:56Z</time>
      </trkpt>
      <trkpt lat="43.12361" lon="-0.41415">
        <ele>547.13</ele>
        <time>2021-08-20T04:54:00Z</time>
      </trkpt>
      <trkpt lat="43.12377" lon="-0.41421">
        <ele>546.17</ele>
        <time>2021-08-20T04:54:06Z</time>
      </trkpt>
      <trkpt lat="43.12392" lon="-0.41409">
        <ele>542.8</ele>
        <time>2021-08-20T04:54:11Z</time>
      </trkpt>
      <trkpt lat="43.124" lon="-0.41399">
        <ele>541.36</ele>
        <time>2021-08-20T04:54:14Z</time>
      </trkpt>
      <trkpt lat="43.12411" lon="-0.41385">
        <ele>537.99</ele>
        <time>2021-08-20T04:54:18Z</time>
      </trkpt>
      <trkpt lat="43.12426" lon="-0.41367">
        <ele>534.63</ele>
        <time>2021-08-20T04:54:23Z</time>
      </trkpt>
      <trkpt lat="43.12437" lon="-0.41364">
        <ele>534.15</ele>
        <time>2021-08-20T04:54:27Z</time>
      </trkpt>
      <trkpt lat="43.12439" lon="-0.41365">
        <ele>534.15</ele>
        <time>2021-08-20T04:54:28Z</time>
      </trkpt>
      <trkpt lat="43.12441" lon="-0.41367">
        <ele>534.15</ele>
        <time>2021-08-20T04:54:30Z</time>
      </trkpt>
      <trkpt lat="43.12442" lon="-0.41369">
        <ele>534.15</ele>
        <time>2021-08-20T04:54:31Z</time>
      </trkpt>
      <trkpt lat="43.12445" lon="-0.41372">
        <ele>534.63</ele>
        <time>2021-08-20T04:54:32Z</time>
      </trkpt>
      <trkpt lat="43.12463" lon="-0.41386">
        <ele>534.15</ele>
        <time>2021-08-20T04:54:38Z</time>
      </trkpt>
      <trkpt lat="43.12486" lon="-0.4141">
        <ele>532.71</ele>
        <time>2021-08-20T04:54:46Z</time>
      </trkpt>
      <trkpt lat="43.12489" lon="-0.41415">
        <ele>532.71</ele>
        <time>2021-08-20T04:54:47Z</time>
      </trkpt>
      <trkpt lat="43.12491" lon="-0.4142">
        <ele>532.71</ele>
        <time>2021-08-20T04:54:48Z</time>
      </trkpt>
      <trkpt lat="43.12505" lon="-0.41451">
        <ele>530.79</ele>
        <time>2021-08-20T04:54:55Z</time>
      </trkpt>
      <trkpt lat="43.12509" lon="-0.41454">
        <ele>530.79</ele>
        <time>2021-08-20T04:54:56Z</time>
      </trkpt>
      <trkpt lat="43.12513" lon="-0.41456">
        <ele>530.79</ele>
        <time>2021-08-20T04:54:57Z</time>
      </trkpt>
      <trkpt lat="43.12517" lon="-0.41457">
        <ele>530.3</ele>
        <time>2021-08-20T04:54:58Z</time>
      </trkpt>
      <trkpt lat="43.1252" lon="-0.41458">
        <ele>529.82</ele>
        <time>2021-08-20T04:54:59Z</time>
      </trkpt>
      <trkpt lat="43.12524" lon="-0.4146">
        <ele>529.82</ele>
        <time>2021-08-20T04:55:00Z</time>
      </trkpt>
      <trkpt lat="43.12527" lon="-0.41461">
        <ele>529.82</ele>
        <time>2021-08-20T04:55:01Z</time>
      </trkpt>
      <trkpt lat="43.1253" lon="-0.41463">
        <ele>528.86</ele>
        <time>2021-08-20T04:55:02Z</time>
      </trkpt>
      <trkpt lat="43.12533" lon="-0.41465">
        <ele>528.86</ele>
        <time>2021-08-20T04:55:03Z</time>
      </trkpt>
      <trkpt lat="43.12536" lon="-0.41467">
        <ele>528.38</ele>
        <time>2021-08-20T04:55:04Z</time>
      </trkpt>
      <trkpt lat="43.12549" lon="-0.41474">
        <ele>526.46</ele>
        <time>2021-08-20T04:55:09Z</time>
      </trkpt>
      <trkpt lat="43.12552" lon="-0.41473">
        <ele>525.98</ele>
        <time>2021-08-20T04:55:10Z</time>
      </trkpt>
      <trkpt lat="43.12556" lon="-0.41471">
        <ele>525.02</ele>
        <time>2021-08-20T04:55:11Z</time>
      </trkpt>
      <trkpt lat="43.12559" lon="-0.4147">
        <ele>525.02</ele>
        <time>2021-08-20T04:55:12Z</time>
      </trkpt>
      <trkpt lat="43.12563" lon="-0.41469">
        <ele>524.54</ele>
        <time>2021-08-20T04:55:13Z</time>
      </trkpt>
      <trkpt lat="43.1259" lon="-0.41463">
        <ele>521.65</ele>
        <time>2021-08-20T04:55:18Z</time>
      </trkpt>
      <trkpt lat="43.12596" lon="-0.41462">
        <ele>521.17</ele>
        <time>2021-08-20T04:55:19Z</time>
      </trkpt>
      <trkpt lat="43.12602" lon="-0.41461">
        <ele>520.21</ele>
        <time>2021-08-20T04:55:20Z</time>
      </trkpt>
      <trkpt lat="43.12608" lon="-0.41462">
        <ele>520.21</ele>
        <time>2021-08-20T04:55:21Z</time>
      </trkpt>
      <trkpt lat="43.12655" lon="-0.41469">
        <ele>517.33</ele>
        <time>2021-08-20T04:55:29Z</time>
      </trkpt>
      <trkpt lat="43.12695" lon="-0.41487">
        <ele>515.88</ele>
        <time>2021-08-20T04:55:36Z</time>
      </trkpt>
      <trkpt lat="43.12741" lon="-0.41494">
        <ele>514.44</ele>
        <time>2021-08-20T04:55:44Z</time>
      </trkpt>
      <trkpt lat="43.12771" lon="-0.41508">
        <ele>513.96</ele>
        <time>2021-08-20T04:55:50Z</time>
      </trkpt>
      <trkpt lat="43.12775" lon="-0.4151">
        <ele>513.96</ele>
        <time>2021-08-20T04:55:51Z</time>
      </trkpt>
      <trkpt lat="43.12779" lon="-0.41511">
        <ele>513.96</ele>
        <time>2021-08-20T04:55:52Z</time>
      </trkpt>
      <trkpt lat="43.12792" lon="-0.41514">
        <ele>513.96</ele>
        <time>2021-08-20T04:55:55Z</time>
      </trkpt>
      <trkpt lat="43.12819" lon="-0.41523">
        <ele>513.96</ele>
        <time>2021-08-20T04:56:01Z</time>
      </trkpt>
      <trkpt lat="43.12828" lon="-0.41524">
        <ele>513.96</ele>
        <time>2021-08-20T04:56:03Z</time>
      </trkpt>
      <trkpt lat="43.12871" lon="-0.41537">
        <ele>515.4</ele>
        <time>2021-08-20T04:56:13Z</time>
      </trkpt>
      <trkpt lat="43.129" lon="-0.41548">
        <ele>515.4</ele>
        <time>2021-08-20T04:56:20Z</time>
      </trkpt>
      <trkpt lat="43.12934" lon="-0.41555">
        <ele>513.96</ele>
        <time>2021-08-20T04:56:27Z</time>
      </trkpt>
      <trkpt lat="43.12961" lon="-0.41555">
        <ele>513</ele>
        <time>2021-08-20T04:56:32Z</time>
      </trkpt>
      <trkpt lat="43.13018" lon="-0.41549">
        <ele>511.08</ele>
        <time>2021-08-20T04:56:42Z</time>
      </trkpt>
      <trkpt lat="43.13075" lon="-0.41541">
        <ele>509.64</ele>
        <time>2021-08-20T04:56:52Z</time>
      </trkpt>
      <trkpt lat="43.13116" lon="-0.41539">
        <ele>506.27</ele>
        <time>2021-08-20T04:56:58Z</time>
      </trkpt>
      <trkpt lat="43.13124" lon="-0.41538">
        <ele>506.27</ele>
        <time>2021-08-20T04:56:59Z</time>
      </trkpt>
      <trkpt lat="43.13147" lon="-0.41536">
        <ele>504.35</ele>
        <time>2021-08-20T04:57:02Z</time>
      </trkpt>
      <trkpt lat="43.13202" lon="-0.41528">
        <ele>502.43</ele>
        <time>2021-08-20T04:57:09Z</time>
      </trkpt>
      <trkpt lat="43.13251" lon="-0.41517">
        <ele>500.98</ele>
        <time>2021-08-20T04:57:16Z</time>
      </trkpt>
      <trkpt lat="43.13271" lon="-0.41513">
        <ele>500.5</ele>
        <time>2021-08-20T04:57:19Z</time>
      </trkpt>
      <trkpt lat="43.13307" lon="-0.41516">
        <ele>497.62</ele>
        <time>2021-08-20T04:57:24Z</time>
      </trkpt>
      <trkpt lat="43.13366" lon="-0.41529">
        <ele>496.66</ele>
        <time>2021-08-20T04:57:32Z</time>
      </trkpt>
      <trkpt lat="43.13406" lon="-0.41541">
        <ele>496.66</ele>
        <time>2021-08-20T04:57:39Z</time>
      </trkpt>
      <trkpt lat="43.13416" lon="-0.41543">
        <ele>498.1</ele>
        <time>2021-08-20T04:57:41Z</time>
      </trkpt>
      <trkpt lat="43.1342" lon="-0.41543">
        <ele>498.1</ele>
        <time>2021-08-20T04:57:42Z</time>
      </trkpt>
      <trkpt lat="43.13433" lon="-0.41545">
        <ele>498.58</ele>
        <time>2021-08-20T04:57:45Z</time>
      </trkpt>
      <trkpt lat="43.13442" lon="-0.41545">
        <ele>498.58</ele>
        <time>2021-08-20T04:57:47Z</time>
      </trkpt>
      <trkpt lat="43.13477" lon="-0.41546">
        <ele>499.54</ele>
        <time>2021-08-20T04:57:54Z</time>
      </trkpt>
      <trkpt lat="43.13493" lon="-0.41544">
        <ele>499.54</ele>
        <time>2021-08-20T04:57:57Z</time>
      </trkpt>
      <trkpt lat="43.1351" lon="-0.41539">
        <ele>499.54</ele>
        <time>2021-08-20T04:58:01Z</time>
      </trkpt>
      <trkpt lat="43.13515" lon="-0.41538">
        <ele>499.54</ele>
        <time>2021-08-20T04:58:02Z</time>
      </trkpt>
      <trkpt lat="43.13551" lon="-0.4153">
        <ele>499.54</ele>
        <time>2021-08-20T04:58:10Z</time>
      </trkpt>
      <trkpt lat="43.13596" lon="-0.41527">
        <ele>497.14</ele>
        <time>2021-08-20T04:58:18Z</time>
      </trkpt>
      <trkpt lat="43.13646" lon="-0.4153">
        <ele>493.77</ele>
        <time>2021-08-20T04:58:25Z</time>
      </trkpt>
      <trkpt lat="43.137" lon="-0.41533">
        <ele>491.37</ele>
        <time>2021-08-20T04:58:32Z</time>
      </trkpt>
      <trkpt lat="43.13707" lon="-0.41532">
        <ele>491.37</ele>
        <time>2021-08-20T04:58:33Z</time>
      </trkpt>
      <trkpt lat="43.13714" lon="-0.41531">
        <ele>491.37</ele>
        <time>2021-08-20T04:58:34Z</time>
      </trkpt>
      <trkpt lat="43.13761" lon="-0.41521">
        <ele>490.41</ele>
        <time>2021-08-20T04:58:41Z</time>
      </trkpt>
      <trkpt lat="43.13812" lon="-0.41521">
        <ele>488.49</ele>
        <time>2021-08-20T04:58:48Z</time>
      </trkpt>
      <trkpt lat="43.13872" lon="-0.41526">
        <ele>485.6</ele>
        <time>2021-08-20T04:58:56Z</time>
      </trkpt>
      <trkpt lat="43.13895" lon="-0.41525">
        <ele>484.16</ele>
        <time>2021-08-20T04:58:59Z</time>
      </trkpt>
      <trkpt lat="43.13903" lon="-0.41526">
        <ele>483.68</ele>
        <time>2021-08-20T04:59:00Z</time>
      </trkpt>
      <trkpt lat="43.13929" lon="-0.41533">
        <ele>480.32</ele>
        <time>2021-08-20T04:59:03Z</time>
      </trkpt>
      <trkpt lat="43.13974" lon="-0.41552">
        <ele>476.95</ele>
        <time>2021-08-20T04:59:08Z</time>
      </trkpt>
      <trkpt lat="43.13982" lon="-0.41557">
        <ele>476.95</ele>
        <time>2021-08-20T04:59:09Z</time>
      </trkpt>
      <trkpt lat="43.14008" lon="-0.41572">
        <ele>475.51</ele>
        <time>2021-08-20T04:59:12Z</time>
      </trkpt>
      <trkpt lat="43.14062" lon="-0.41605">
        <ele>473.59</ele>
        <time>2021-08-20T04:59:19Z</time>
      </trkpt>
      <trkpt lat="43.14071" lon="-0.41611">
        <ele>473.59</ele>
        <time>2021-08-20T04:59:21Z</time>
      </trkpt>
      <trkpt lat="43.14075" lon="-0.41612">
        <ele>475.03</ele>
        <time>2021-08-20T04:59:24Z</time>
      </trkpt>
      <trkpt lat="43.14072" lon="-0.41613">
        <ele>475.03</ele>
        <time>2021-08-20T04:59:38Z</time>
      </trkpt>
      <trkpt lat="43.14073" lon="-0.41613">
        <ele>475.03</ele>
        <time>2021-08-20T04:59:55Z</time>
      </trkpt>
      <trkpt lat="43.14073" lon="-0.41613">
        <ele>475.03</ele>
        <time>2021-08-20T04:59:56Z</time>
      </trkpt>
      <trkpt lat="43.14073" lon="-0.41615">
        <ele>475.03</ele>
        <time>2021-08-20T04:59:57Z</time>
      </trkpt>
      <trkpt lat="43.14073" lon="-0.41617">
        <ele>475.03</ele>
        <time>2021-08-20T05:00:03Z</time>
      </trkpt>
      <trkpt lat="43.14073" lon="-0.41618">
        <ele>475.03</ele>
        <time>2021-08-20T05:00:19Z</time>
      </trkpt>
      <trkpt lat="43.14072" lon="-0.41618">
        <ele>474.55</ele>
        <time>2021-08-20T05:00:41Z</time>
      </trkpt>
      <trkpt lat="43.14073" lon="-0.41618">
        <ele>474.55</ele>
        <time>2021-08-20T05:01:05Z</time>
      </trkpt>
      <trkpt lat="43.14073" lon="-0.41617">
        <ele>474.55</ele>
        <time>2021-08-20T05:01:24Z</time>
      </trkpt>
      <trkpt lat="43.14073" lon="-0.41618">
        <ele>474.55</ele>
        <time>2021-08-20T05:01:39Z</time>
      </trkpt>
      <trkpt lat="43.14072" lon="-0.41618">
        <ele>474.55</ele>
        <time>2021-08-20T05:01:58Z</time>
      </trkpt>
      <trkpt lat="43.14072" lon="-0.41618">
        <ele>474.55</ele>
        <time>2021-08-20T05:02:11Z</time>
      </trkpt>
      <trkpt lat="43.14072" lon="-0.41618">
        <ele>474.55</ele>
        <time>2021-08-20T05:02:27Z</time>
      </trkpt>
      <trkpt lat="43.14075" lon="-0.41616">
        <ele>474.07</ele>
        <time>2021-08-20T05:02:34Z</time>
      </trkpt>
      <trkpt lat="43.14074" lon="-0.41615">
        <ele>474.55</ele>
        <time>2021-08-20T05:02:44Z</time>
      </trkpt>
      <trkpt lat="43.14074" lon="-0.41615">
        <ele>474.55</ele>
        <time>2021-08-20T05:02:49Z</time>
      </trkpt>
      <trkpt lat="43.14075" lon="-0.41616">
        <ele>474.55</ele>
        <time>2021-08-20T05:02:50Z</time>
      </trkpt>
      <trkpt lat="43.14076" lon="-0.41617">
        <ele>474.55</ele>
        <time>2021-08-20T05:02:51Z</time>
      </trkpt>
      <trkpt lat="43.14078" lon="-0.41618">
        <ele>474.55</ele>
        <time>2021-08-20T05:02:52Z</time>
      </trkpt>
      <trkpt lat="43.1408" lon="-0.41619">
        <ele>474.55</ele>
        <time>2021-08-20T05:02:53Z</time>
      </trkpt>
      <trkpt lat="43.14081" lon="-0.4162">
        <ele>474.55</ele>
        <time>2021-08-20T05:02:54Z</time>
      </trkpt>
      <trkpt lat="43.14083" lon="-0.41621">
        <ele>474.55</ele>
        <time>2021-08-20T05:02:55Z</time>
      </trkpt>
      <trkpt lat="43.14096" lon="-0.41629">
        <ele>474.55</ele>
        <time>2021-08-20T05:03:03Z</time>
      </trkpt>
      <trkpt lat="43.14113" lon="-0.41639">
        <ele>474.55</ele>
        <time>2021-08-20T05:03:11Z</time>
      </trkpt>
      <trkpt lat="43.1414" lon="-0.41657">
        <ele>474.55</ele>
        <time>2021-08-20T05:03:18Z</time>
      </trkpt>
      <trkpt lat="43.14177" lon="-0.41678">
        <ele>473.11</ele>
        <time>2021-08-20T05:03:27Z</time>
      </trkpt>
      <trkpt lat="43.14212" lon="-0.41699">
        <ele>472.63</ele>
        <time>2021-08-20T05:03:34Z</time>
      </trkpt>
      <trkpt lat="43.14267" lon="-0.41734">
        <ele>472.14</ele>
        <time>2021-08-20T05:03:45Z</time>
      </trkpt>
      <trkpt lat="43.1428" lon="-0.4174">
        <ele>472.14</ele>
        <time>2021-08-20T05:03:48Z</time>
      </trkpt>
      <trkpt lat="43.14285" lon="-0.41741">
        <ele>472.14</ele>
        <time>2021-08-20T05:03:49Z</time>
      </trkpt>
      <trkpt lat="43.14295" lon="-0.41741">
        <ele>473.59</ele>
        <time>2021-08-20T05:03:52Z</time>
      </trkpt>
      <trkpt lat="43.14315" lon="-0.41745">
        <ele>475.03</ele>
        <time>2021-08-20T05:04:00Z</time>
      </trkpt>
      <trkpt lat="43.14331" lon="-0.41759">
        <ele>475.99</ele>
        <time>2021-08-20T05:04:08Z</time>
      </trkpt>
      <trkpt lat="43.14347" lon="-0.41772">
        <ele>477.43</ele>
        <time>2021-08-20T05:04:15Z</time>
      </trkpt>
      <trkpt lat="43.14362" lon="-0.41782">
        <ele>477.91</ele>
        <time>2021-08-20T05:04:21Z</time>
      </trkpt>
      <trkpt lat="43.14381" lon="-0.41793">
        <ele>478.39</ele>
        <time>2021-08-20T05:04:28Z</time>
      </trkpt>
      <trkpt lat="43.14398" lon="-0.41805">
        <ele>478.39</ele>
        <time>2021-08-20T05:04:34Z</time>
      </trkpt>
      <trkpt lat="43.14421" lon="-0.41819">
        <ele>478.39</ele>
        <time>2021-08-20T05:04:41Z</time>
      </trkpt>
      <trkpt lat="43.14446" lon="-0.41837">
        <ele>478.39</ele>
        <time>2021-08-20T05:04:48Z</time>
      </trkpt>
      <trkpt lat="43.1445" lon="-0.41841">
        <ele>478.39</ele>
        <time>2021-08-20T05:04:49Z</time>
      </trkpt>
      <trkpt lat="43.14464" lon="-0.41854">
        <ele>478.39</ele>
        <time>2021-08-20T05:04:53Z</time>
      </trkpt>
      <trkpt lat="43.14472" lon="-0.41861">
        <ele>478.39</ele>
        <time>2021-08-20T05:04:55Z</time>
      </trkpt>
      <trkpt lat="43.14476" lon="-0.41864">
        <ele>478.39</ele>
        <time>2021-08-20T05:04:56Z</time>
      </trkpt>
      <trkpt lat="43.1448" lon="-0.41867">
        <ele>478.39</ele>
        <time>2021-08-20T05:04:57Z</time>
      </trkpt>
      <trkpt lat="43.1451" lon="-0.41893">
        <ele>478.39</ele>
        <time>2021-08-20T05:05:04Z</time>
      </trkpt>
      <trkpt lat="43.14545" lon="-0.41919">
        <ele>478.39</ele>
        <time>2021-08-20T05:05:12Z</time>
      </trkpt>
      <trkpt lat="43.14572" lon="-0.41946">
        <ele>478.87</ele>
        <time>2021-08-20T05:05:19Z</time>
      </trkpt>
      <trkpt lat="43.14611" lon="-0.41977">
        <ele>479.35</ele>
        <time>2021-08-20T05:05:28Z</time>
      </trkpt>
      <trkpt lat="43.14649" lon="-0.42005">
        <ele>478.87</ele>
        <time>2021-08-20T05:05:36Z</time>
      </trkpt>
      <trkpt lat="43.14662" lon="-0.42014">
        <ele>478.87</ele>
        <time>2021-08-20T05:05:39Z</time>
      </trkpt>
      <trkpt lat="43.14705" lon="-0.4204">
        <ele>477.91</ele>
        <time>2021-08-20T05:05:48Z</time>
      </trkpt>
      <trkpt lat="43.14744" lon="-0.42071">
        <ele>475.99</ele>
        <time>2021-08-20T05:05:56Z</time>
      </trkpt>
      <trkpt lat="43.14778" lon="-0.42099">
        <ele>473.11</ele>
        <time>2021-08-20T05:06:02Z</time>
      </trkpt>
      <trkpt lat="43.14833" lon="-0.4214">
        <ele>471.18</ele>
        <time>2021-08-20T05:06:11Z</time>
      </trkpt>
      <trkpt lat="43.14886" lon="-0.42182">
        <ele>469.26</ele>
        <time>2021-08-20T05:06:20Z</time>
      </trkpt>
      <trkpt lat="43.14898" lon="-0.42192">
        <ele>468.78</ele>
        <time>2021-08-20T05:06:22Z</time>
      </trkpt>
      <trkpt lat="43.14947" lon="-0.42232">
        <ele>468.3</ele>
        <time>2021-08-20T05:06:31Z</time>
      </trkpt>
      <trkpt lat="43.14978" lon="-0.4226">
        <ele>467.82</ele>
        <time>2021-08-20T05:06:38Z</time>
      </trkpt>
      <trkpt lat="43.14986" lon="-0.42267">
        <ele>467.82</ele>
        <time>2021-08-20T05:06:40Z</time>
      </trkpt>
      <trkpt lat="43.1499" lon="-0.42271">
        <ele>467.82</ele>
        <time>2021-08-20T05:06:41Z</time>
      </trkpt>
      <trkpt lat="43.15033" lon="-0.42311">
        <ele>467.34</ele>
        <time>2021-08-20T05:06:51Z</time>
      </trkpt>
      <trkpt lat="43.15077" lon="-0.42353">
        <ele>467.34</ele>
        <time>2021-08-20T05:07:01Z</time>
      </trkpt>
      <trkpt lat="43.15105" lon="-0.42379">
        <ele>468.78</ele>
        <time>2021-08-20T05:07:09Z</time>
      </trkpt>
      <trkpt lat="43.15126" lon="-0.42398">
        <ele>470.22</ele>
        <time>2021-08-20T05:07:16Z</time>
      </trkpt>
      <trkpt lat="43.15154" lon="-0.42423">
        <ele>471.66</ele>
        <time>2021-08-20T05:07:26Z</time>
      </trkpt>
      <trkpt lat="43.15175" lon="-0.42442">
        <ele>472.63</ele>
        <time>2021-08-20T05:07:34Z</time>
      </trkpt>
      <trkpt lat="43.15197" lon="-0.42456">
        <ele>473.11</ele>
        <time>2021-08-20T05:07:41Z</time>
      </trkpt>
      <trkpt lat="43.15223" lon="-0.42479">
        <ele>473.59</ele>
        <time>2021-08-20T05:07:49Z</time>
      </trkpt>
      <trkpt lat="43.15231" lon="-0.42485">
        <ele>473.59</ele>
        <time>2021-08-20T05:07:51Z</time>
      </trkpt>
      <trkpt lat="43.15235" lon="-0.42488">
        <ele>472.14</ele>
        <time>2021-08-20T05:07:52Z</time>
      </trkpt>
      <trkpt lat="43.1524" lon="-0.4249">
        <ele>472.14</ele>
        <time>2021-08-20T05:07:53Z</time>
      </trkpt>
      <trkpt lat="43.15284" lon="-0.4251">
        <ele>469.74</ele>
        <time>2021-08-20T05:08:01Z</time>
      </trkpt>
      <trkpt lat="43.15328" lon="-0.42521">
        <ele>467.82</ele>
        <time>2021-08-20T05:08:08Z</time>
      </trkpt>
      <trkpt lat="43.15341" lon="-0.42522">
        <ele>466.86</ele>
        <time>2021-08-20T05:08:10Z</time>
      </trkpt>
      <trkpt lat="43.15361" lon="-0.42521">
        <ele>466.38</ele>
        <time>2021-08-20T05:08:13Z</time>
      </trkpt>
      <trkpt lat="43.15405" lon="-0.42511">
        <ele>463.01</ele>
        <time>2021-08-20T05:08:19Z</time>
      </trkpt>
      <trkpt lat="43.15457" lon="-0.42503">
        <ele>462.53</ele>
        <time>2021-08-20T05:08:26Z</time>
      </trkpt>
      <trkpt lat="43.15505" lon="-0.42502">
        <ele>462.05</ele>
        <time>2021-08-20T05:08:33Z</time>
      </trkpt>
      <trkpt lat="43.15573" lon="-0.42509">
        <ele>460.13</ele>
        <time>2021-08-20T05:08:42Z</time>
      </trkpt>
      <trkpt lat="43.15612" lon="-0.42514">
        <ele>459.65</ele>
        <time>2021-08-20T05:08:48Z</time>
      </trkpt>
      <trkpt lat="43.1565" lon="-0.42521">
        <ele>459.65</ele>
        <time>2021-08-20T05:08:54Z</time>
      </trkpt>
      <trkpt lat="43.15698" lon="-0.42533">
        <ele>459.65</ele>
        <time>2021-08-20T05:09:03Z</time>
      </trkpt>
      <trkpt lat="43.15719" lon="-0.42538">
        <ele>459.65</ele>
        <time>2021-08-20T05:09:07Z</time>
      </trkpt>
      <trkpt lat="43.1573" lon="-0.42541">
        <ele>459.65</ele>
        <time>2021-08-20T05:09:09Z</time>
      </trkpt>
      <trkpt lat="43.15773" lon="-0.42554">
        <ele>458.69</ele>
        <time>2021-08-20T05:09:16Z</time>
      </trkpt>
      <trkpt lat="43.15791" lon="-0.42559">
        <ele>458.21</ele>
        <time>2021-08-20T05:09:19Z</time>
      </trkpt>
      <trkpt lat="43.15834" lon="-0.42572">
        <ele>457.24</ele>
        <time>2021-08-20T05:09:26Z</time>
      </trkpt>
      <trkpt lat="43.15899" lon="-0.42589">
        <ele>456.28</ele>
        <time>2021-08-20T05:09:36Z</time>
      </trkpt>
      <trkpt lat="43.15934" lon="-0.42598">
        <ele>457.24</ele>
        <time>2021-08-20T05:09:42Z</time>
      </trkpt>
      <trkpt lat="43.15957" lon="-0.42605">
        <ele>459.65</ele>
        <time>2021-08-20T05:09:48Z</time>
      </trkpt>
      <trkpt lat="43.15975" lon="-0.4261">
        <ele>461.09</ele>
        <time>2021-08-20T05:09:55Z</time>
      </trkpt>
      <trkpt lat="43.15999" lon="-0.42608">
        <ele>461.57</ele>
        <time>2021-08-20T05:10:04Z</time>
      </trkpt>
      <trkpt lat="43.16006" lon="-0.42608">
        <ele>462.05</ele>
        <time>2021-08-20T05:10:07Z</time>
      </trkpt>
      <trkpt lat="43.16007" lon="-0.4261">
        <ele>462.05</ele>
        <time>2021-08-20T05:10:08Z</time>
      </trkpt>
      <trkpt lat="43.16008" lon="-0.42613">
        <ele>462.53</ele>
        <time>2021-08-20T05:10:09Z</time>
      </trkpt>
      <trkpt lat="43.1601" lon="-0.42616">
        <ele>462.53</ele>
        <time>2021-08-20T05:10:10Z</time>
      </trkpt>
      <trkpt lat="43.1601" lon="-0.42619">
        <ele>462.53</ele>
        <time>2021-08-20T05:10:11Z</time>
      </trkpt>
      <trkpt lat="43.16011" lon="-0.42622">
        <ele>462.53</ele>
        <time>2021-08-20T05:10:12Z</time>
      </trkpt>
      <trkpt lat="43.16011" lon="-0.42626">
        <ele>463.01</ele>
        <time>2021-08-20T05:10:13Z</time>
      </trkpt>
      <trkpt lat="43.16012" lon="-0.42629">
        <ele>463.01</ele>
        <time>2021-08-20T05:10:14Z</time>
      </trkpt>
      <trkpt lat="43.16012" lon="-0.42633">
        <ele>463.01</ele>
        <time>2021-08-20T05:10:15Z</time>
      </trkpt>
      <trkpt lat="43.16017" lon="-0.42666">
        <ele>464.93</ele>
        <time>2021-08-20T05:10:26Z</time>
      </trkpt>
      <trkpt lat="43.16021" lon="-0.42698">
        <ele>466.38</ele>
        <time>2021-08-20T05:10:36Z</time>
      </trkpt>
      <trkpt lat="43.16022" lon="-0.42725">
        <ele>467.34</ele>
        <time>2021-08-20T05:10:45Z</time>
      </trkpt>
      <trkpt lat="43.16021" lon="-0.42752">
        <ele>468.78</ele>
        <time>2021-08-20T05:10:54Z</time>
      </trkpt>
      <trkpt lat="43.16016" lon="-0.4278">
        <ele>470.22</ele>
        <time>2021-08-20T05:11:03Z</time>
      </trkpt>
      <trkpt lat="43.16012" lon="-0.42801">
        <ele>471.18</ele>
        <time>2021-08-20T05:11:10Z</time>
      </trkpt>
      <trkpt lat="43.16005" lon="-0.42826">
        <ele>472.14</ele>
        <time>2021-08-20T05:11:18Z</time>
      </trkpt>
      <trkpt lat="43.15997" lon="-0.42855">
        <ele>473.59</ele>
        <time>2021-08-20T05:11:27Z</time>
      </trkpt>
      <trkpt lat="43.15988" lon="-0.42874">
        <ele>474.55</ele>
        <time>2021-08-20T05:11:34Z</time>
      </trkpt>
      <trkpt lat="43.15977" lon="-0.42897">
        <ele>475.99</ele>
        <time>2021-08-20T05:11:42Z</time>
      </trkpt>
      <trkpt lat="43.1597" lon="-0.42927">
        <ele>476.95</ele>
        <time>2021-08-20T05:11:50Z</time>
      </trkpt>
      <trkpt lat="43.15967" lon="-0.4297">
        <ele>477.91</ele>
        <time>2021-08-20T05:12:00Z</time>
      </trkpt>
      <trkpt lat="43.15964" lon="-0.43024">
        <ele>478.39</ele>
        <time>2021-08-20T05:12:11Z</time>
      </trkpt>
      <trkpt lat="43.15961" lon="-0.43084">
        <ele>479.35</ele>
        <time>2021-08-20T05:12:22Z</time>
      </trkpt>
      <trkpt lat="43.15958" lon="-0.43138">
        <ele>477.91</ele>
        <time>2021-08-20T05:12:30Z</time>
      </trkpt>
      <trkpt lat="43.15955" lon="-0.43191">
        <ele>475.51</ele>
        <time>2021-08-20T05:12:36Z</time>
      </trkpt>
      <trkpt lat="43.15953" lon="-0.43271">
        <ele>474.55</ele>
        <time>2021-08-20T05:12:45Z</time>
      </trkpt>
      <trkpt lat="43.15955" lon="-0.43336">
        <ele>476.47</ele>
        <time>2021-08-20T05:12:54Z</time>
      </trkpt>
      <trkpt lat="43.15958" lon="-0.43393">
        <ele>476.95</ele>
        <time>2021-08-20T05:13:02Z</time>
      </trkpt>
      <trkpt lat="43.15967" lon="-0.43458">
        <ele>476.95</ele>
        <time>2021-08-20T05:13:11Z</time>
      </trkpt>
      <trkpt lat="43.1599" lon="-0.43507">
        <ele>477.43</ele>
        <time>2021-08-20T05:13:19Z</time>
      </trkpt>
      <trkpt lat="43.16013" lon="-0.43552">
        <ele>477.43</ele>
        <time>2021-08-20T05:13:27Z</time>
      </trkpt>
      <trkpt lat="43.16015" lon="-0.43558">
        <ele>477.43</ele>
        <time>2021-08-20T05:13:28Z</time>
      </trkpt>
      <trkpt lat="43.16033" lon="-0.43613">
        <ele>474.07</ele>
        <time>2021-08-20T05:13:35Z</time>
      </trkpt>
      <trkpt lat="43.16052" lon="-0.43689">
        <ele>471.66</ele>
        <time>2021-08-20T05:13:43Z</time>
      </trkpt>
      <trkpt lat="43.16074" lon="-0.43782">
        <ele>468.3</ele>
        <time>2021-08-20T05:13:51Z</time>
      </trkpt>
      <trkpt lat="43.16093" lon="-0.43889">
        <ele>466.38</ele>
        <time>2021-08-20T05:14:00Z</time>
      </trkpt>
      <trkpt lat="43.16089" lon="-0.43965">
        <ele>464.45</ele>
        <time>2021-08-20T05:14:06Z</time>
      </trkpt>
      <trkpt lat="43.16088" lon="-0.44019">
        <ele>462.05</ele>
        <time>2021-08-20T05:14:10Z</time>
      </trkpt>
      <trkpt lat="43.16089" lon="-0.44031">
        <ele>461.09</ele>
        <time>2021-08-20T05:14:11Z</time>
      </trkpt>
      <trkpt lat="43.16092" lon="-0.44045">
        <ele>461.09</ele>
        <time>2021-08-20T05:14:12Z</time>
      </trkpt>
      <trkpt lat="43.1612" lon="-0.44156">
        <ele>459.17</ele>
        <time>2021-08-20T05:14:21Z</time>
      </trkpt>
      <trkpt lat="43.16148" lon="-0.44259">
        <ele>457.24</ele>
        <time>2021-08-20T05:14:30Z</time>
      </trkpt>
      <trkpt lat="43.16176" lon="-0.44322">
        <ele>457.24</ele>
        <time>2021-08-20T05:14:37Z</time>
      </trkpt>
      <trkpt lat="43.16214" lon="-0.4439">
        <ele>458.69</ele>
        <time>2021-08-20T05:14:46Z</time>
      </trkpt>
      <trkpt lat="43.16242" lon="-0.44427">
        <ele>461.09</ele>
        <time>2021-08-20T05:14:53Z</time>
      </trkpt>
      <trkpt lat="43.16261" lon="-0.44462">
        <ele>462.05</ele>
        <time>2021-08-20T05:15:00Z</time>
      </trkpt>
      <trkpt lat="43.16268" lon="-0.44491">
        <ele>462.53</ele>
        <time>2021-08-20T05:15:05Z</time>
      </trkpt>
      <trkpt lat="43.16269" lon="-0.44498">
        <ele>462.53</ele>
        <time>2021-08-20T05:15:06Z</time>
      </trkpt>
      <trkpt lat="43.16272" lon="-0.44544">
        <ele>461.09</ele>
        <time>2021-08-20T05:15:12Z</time>
      </trkpt>
      <trkpt lat="43.16279" lon="-0.4462">
        <ele>460.13</ele>
        <time>2021-08-20T05:15:21Z</time>
      </trkpt>
      <trkpt lat="43.16286" lon="-0.44706">
        <ele>457.24</ele>
        <time>2021-08-20T05:15:30Z</time>
      </trkpt>
      <trkpt lat="43.16286" lon="-0.44777">
        <ele>453.88</ele>
        <time>2021-08-20T05:15:36Z</time>
      </trkpt>
      <trkpt lat="43.16285" lon="-0.44841">
        <ele>450.52</ele>
        <time>2021-08-20T05:15:41Z</time>
      </trkpt>
      <trkpt lat="43.16284" lon="-0.44854">
        <ele>450.52</ele>
        <time>2021-08-20T05:15:42Z</time>
      </trkpt>
      <trkpt lat="43.16282" lon="-0.44911">
        <ele>447.15</ele>
        <time>2021-08-20T05:15:46Z</time>
      </trkpt>
      <trkpt lat="43.16277" lon="-0.44993">
        <ele>445.71</ele>
        <time>2021-08-20T05:15:52Z</time>
      </trkpt>
      <trkpt lat="43.16265" lon="-0.45056">
        <ele>442.34</ele>
        <time>2021-08-20T05:15:58Z</time>
      </trkpt>
      <trkpt lat="43.16264" lon="-0.45077">
        <ele>442.34</ele>
        <time>2021-08-20T05:16:02Z</time>
      </trkpt>
      <trkpt lat="43.16264" lon="-0.45078">
        <ele>442.34</ele>
        <time>2021-08-20T05:16:03Z</time>
      </trkpt>
      <trkpt lat="43.16265" lon="-0.45078">
        <ele>442.34</ele>
        <time>2021-08-20T05:16:07Z</time>
      </trkpt>
      <trkpt lat="43.16268" lon="-0.45082">
        <ele>442.34</ele>
        <time>2021-08-20T05:16:12Z</time>
      </trkpt>
      <trkpt lat="43.16269" lon="-0.45086">
        <ele>441.86</ele>
        <time>2021-08-20T05:16:13Z</time>
      </trkpt>
      <trkpt lat="43.1627" lon="-0.4509">
        <ele>441.86</ele>
        <time>2021-08-20T05:16:14Z</time>
      </trkpt>
      <trkpt lat="43.16269" lon="-0.45093">
        <ele>441.86</ele>
        <time>2021-08-20T05:16:15Z</time>
      </trkpt>
      <trkpt lat="43.16269" lon="-0.45097">
        <ele>441.86</ele>
        <time>2021-08-20T05:16:16Z</time>
      </trkpt>
      <trkpt lat="43.16268" lon="-0.45099">
        <ele>441.86</ele>
        <time>2021-08-20T05:16:17Z</time>
      </trkpt>
      <trkpt lat="43.16261" lon="-0.45127">
        <ele>441.86</ele>
        <time>2021-08-20T05:16:24Z</time>
      </trkpt>
      <trkpt lat="43.16256" lon="-0.45164">
        <ele>442.82</ele>
        <time>2021-08-20T05:16:31Z</time>
      </trkpt>
      <trkpt lat="43.16258" lon="-0.4519">
        <ele>444.27</ele>
        <time>2021-08-20T05:16:37Z</time>
      </trkpt>
      <trkpt lat="43.16261" lon="-0.45231">
        <ele>445.23</ele>
        <time>2021-08-20T05:16:47Z</time>
      </trkpt>
      <trkpt lat="43.16263" lon="-0.45277">
        <ele>446.19</ele>
        <time>2021-08-20T05:16:57Z</time>
      </trkpt>
      <trkpt lat="43.16265" lon="-0.45331">
        <ele>443.79</ele>
        <time>2021-08-20T05:17:04Z</time>
      </trkpt>
      <trkpt lat="43.16268" lon="-0.45403">
        <ele>440.42</ele>
        <time>2021-08-20T05:17:11Z</time>
      </trkpt>
      <trkpt lat="43.1627" lon="-0.45427">
        <ele>439.46</ele>
        <time>2021-08-20T05:17:13Z</time>
      </trkpt>
      <trkpt lat="43.16286" lon="-0.45501">
        <ele>438.5</ele>
        <time>2021-08-20T05:17:20Z</time>
      </trkpt>
      <trkpt lat="43.16297" lon="-0.45545">
        <ele>441.38</ele>
        <time>2021-08-20T05:17:26Z</time>
      </trkpt>
      <trkpt lat="43.16309" lon="-0.45609">
        <ele>439.46</ele>
        <time>2021-08-20T05:17:34Z</time>
      </trkpt>
      <trkpt lat="43.16318" lon="-0.45659">
        <ele>437.06</ele>
        <time>2021-08-20T05:17:39Z</time>
      </trkpt>
      <trkpt lat="43.16331" lon="-0.45749">
        <ele>435.13</ele>
        <time>2021-08-20T05:17:47Z</time>
      </trkpt>
      <trkpt lat="43.16333" lon="-0.45757">
        <ele>434.65</ele>
        <time>2021-08-20T05:17:48Z</time>
      </trkpt>
      <trkpt lat="43.16336" lon="-0.45766">
        <ele>434.65</ele>
        <time>2021-08-20T05:17:49Z</time>
      </trkpt>
      <trkpt lat="43.16339" lon="-0.45774">
        <ele>434.65</ele>
        <time>2021-08-20T05:17:50Z</time>
      </trkpt>
      <trkpt lat="43.16342" lon="-0.45782">
        <ele>434.17</ele>
        <time>2021-08-20T05:17:51Z</time>
      </trkpt>
      <trkpt lat="43.16345" lon="-0.45792">
        <ele>433.69</ele>
        <time>2021-08-20T05:17:52Z</time>
      </trkpt>
      <trkpt lat="43.16347" lon="-0.458">
        <ele>433.69</ele>
        <time>2021-08-20T05:17:53Z</time>
      </trkpt>
      <trkpt lat="43.16352" lon="-0.45824">
        <ele>437.06</ele>
        <time>2021-08-20T05:17:57Z</time>
      </trkpt>
      <trkpt lat="43.16357" lon="-0.45837">
        <ele>438.98</ele>
        <time>2021-08-20T05:18:03Z</time>
      </trkpt>
      <trkpt lat="43.16364" lon="-0.45857">
        <ele>439.94</ele>
        <time>2021-08-20T05:18:10Z</time>
      </trkpt>
      <trkpt lat="43.16376" lon="-0.45886">
        <ele>440.42</ele>
        <time>2021-08-20T05:18:18Z</time>
      </trkpt>
      <trkpt lat="43.16394" lon="-0.45927">
        <ele>441.38</ele>
        <time>2021-08-20T05:18:28Z</time>
      </trkpt>
      <trkpt lat="43.16401" lon="-0.45966">
        <ele>442.34</ele>
        <time>2021-08-20T05:18:36Z</time>
      </trkpt>
      <trkpt lat="43.1641" lon="-0.46003">
        <ele>442.34</ele>
        <time>2021-08-20T05:18:44Z</time>
      </trkpt>
      <trkpt lat="43.16423" lon="-0.46055">
        <ele>442.34</ele>
        <time>2021-08-20T05:18:53Z</time>
      </trkpt>
      <trkpt lat="43.16431" lon="-0.46099">
        <ele>443.31</ele>
        <time>2021-08-20T05:19:01Z</time>
      </trkpt>
      <trkpt lat="43.16434" lon="-0.46121">
        <ele>443.79</ele>
        <time>2021-08-20T05:19:05Z</time>
      </trkpt>
      <trkpt lat="43.16434" lon="-0.46126">
        <ele>443.79</ele>
        <time>2021-08-20T05:19:06Z</time>
      </trkpt>
      <trkpt lat="43.16435" lon="-0.46131">
        <ele>443.79</ele>
        <time>2021-08-20T05:19:07Z</time>
      </trkpt>
      <trkpt lat="43.16449" lon="-0.46179">
        <ele>444.75</ele>
        <time>2021-08-20T05:19:16Z</time>
      </trkpt>
      <trkpt lat="43.16459" lon="-0.4621">
        <ele>445.71</ele>
        <time>2021-08-20T05:19:22Z</time>
      </trkpt>
      <trkpt lat="43.16463" lon="-0.46217">
        <ele>445.71</ele>
        <time>2021-08-20T05:19:27Z</time>
      </trkpt>
      <trkpt lat="43.16462" lon="-0.46216">
        <ele>445.71</ele>
        <time>2021-08-20T05:19:30Z</time>
      </trkpt>
      <trkpt lat="43.16458" lon="-0.46212">
        <ele>445.71</ele>
        <time>2021-08-20T05:19:33Z</time>
      </trkpt>
      <trkpt lat="43.16457" lon="-0.46215">
        <ele>446.19</ele>
        <time>2021-08-20T05:19:37Z</time>
      </trkpt>
      <trkpt lat="43.16457" lon="-0.4622">
        <ele>446.67</ele>
        <time>2021-08-20T05:19:40Z</time>
      </trkpt>
      <trkpt lat="43.16457" lon="-0.46225">
        <ele>446.67</ele>
        <time>2021-08-20T05:19:47Z</time>
      </trkpt>
      <trkpt lat="43.16458" lon="-0.46231">
        <ele>447.15</ele>
        <time>2021-08-20T05:19:52Z</time>
      </trkpt>
      <trkpt lat="43.16459" lon="-0.46233">
        <ele>447.15</ele>
        <time>2021-08-20T05:19:53Z</time>
      </trkpt>
      <trkpt lat="43.16459" lon="-0.46235">
        <ele>447.15</ele>
        <time>2021-08-20T05:19:54Z</time>
      </trkpt>
      <trkpt lat="43.16465" lon="-0.46257">
        <ele>449.07</ele>
        <time>2021-08-20T05:20:02Z</time>
      </trkpt>
      <trkpt lat="43.16471" lon="-0.46277">
        <ele>450.52</ele>
        <time>2021-08-20T05:20:10Z</time>
      </trkpt>
      <trkpt lat="43.16482" lon="-0.463">
        <ele>451.96</ele>
        <time>2021-08-20T05:20:20Z</time>
      </trkpt>
      <trkpt lat="43.1649" lon="-0.46314">
        <ele>453.4</ele>
        <time>2021-08-20T05:20:27Z</time>
      </trkpt>
      <trkpt lat="43.16493" lon="-0.46322">
        <ele>453.88</ele>
        <time>2021-08-20T05:20:31Z</time>
      </trkpt>
      <trkpt lat="43.16494" lon="-0.46325">
        <ele>453.88</ele>
        <time>2021-08-20T05:20:32Z</time>
      </trkpt>
      <trkpt lat="43.16495" lon="-0.46327">
        <ele>453.88</ele>
        <time>2021-08-20T05:20:33Z</time>
      </trkpt>
      <trkpt lat="43.16496" lon="-0.46329">
        <ele>454.36</ele>
        <time>2021-08-20T05:20:34Z</time>
      </trkpt>
      <trkpt lat="43.16496" lon="-0.46331">
        <ele>454.36</ele>
        <time>2021-08-20T05:20:35Z</time>
      </trkpt>
      <trkpt lat="43.16497" lon="-0.46333">
        <ele>454.84</ele>
        <time>2021-08-20T05:20:36Z</time>
      </trkpt>
      <trkpt lat="43.16501" lon="-0.46351">
        <ele>455.8</ele>
        <time>2021-08-20T05:20:44Z</time>
      </trkpt>
      <trkpt lat="43.16495" lon="-0.46364">
        <ele>456.76</ele>
        <time>2021-08-20T05:20:52Z</time>
      </trkpt>
      <trkpt lat="43.16488" lon="-0.46372">
        <ele>457.72</ele>
        <time>2021-08-20T05:20:57Z</time>
      </trkpt>
      <trkpt lat="43.16477" lon="-0.46393">
        <ele>457.72</ele>
        <time>2021-08-20T05:21:05Z</time>
      </trkpt>
      <trkpt lat="43.16474" lon="-0.46406">
        <ele>458.21</ele>
        <time>2021-08-20T05:21:08Z</time>
      </trkpt>
      <trkpt lat="43.16474" lon="-0.4641">
        <ele>458.21</ele>
        <time>2021-08-20T05:21:09Z</time>
      </trkpt>
      <trkpt lat="43.16474" lon="-0.46414">
        <ele>458.21</ele>
        <time>2021-08-20T05:21:10Z</time>
      </trkpt>
      <trkpt lat="43.16473" lon="-0.46419">
        <ele>458.21</ele>
        <time>2021-08-20T05:21:11Z</time>
      </trkpt>
      <trkpt lat="43.16473" lon="-0.46423">
        <ele>458.21</ele>
        <time>2021-08-20T05:21:12Z</time>
      </trkpt>
      <trkpt lat="43.16467" lon="-0.46444">
        <ele>458.21</ele>
        <time>2021-08-20T05:21:18Z</time>
      </trkpt>
      <trkpt lat="43.16465" lon="-0.46446">
        <ele>458.21</ele>
        <time>2021-08-20T05:21:19Z</time>
      </trkpt>
      <trkpt lat="43.16462" lon="-0.46447">
        <ele>458.21</ele>
        <time>2021-08-20T05:21:20Z</time>
      </trkpt>
      <trkpt lat="43.16459" lon="-0.46448">
        <ele>458.21</ele>
        <time>2021-08-20T05:21:21Z</time>
      </trkpt>
      <trkpt lat="43.16456" lon="-0.46449">
        <ele>458.21</ele>
        <time>2021-08-20T05:21:22Z</time>
      </trkpt>
      <trkpt lat="43.16453" lon="-0.46448">
        <ele>456.28</ele>
        <time>2021-08-20T05:21:23Z</time>
      </trkpt>
      <trkpt lat="43.16437" lon="-0.46451">
        <ele>453.88</ele>
        <time>2021-08-20T05:21:27Z</time>
      </trkpt>
      <trkpt lat="43.16433" lon="-0.46453">
        <ele>452.92</ele>
        <time>2021-08-20T05:21:28Z</time>
      </trkpt>
      <trkpt lat="43.16424" lon="-0.46461">
        <ele>451.48</ele>
        <time>2021-08-20T05:21:30Z</time>
      </trkpt>
      <trkpt lat="43.16421" lon="-0.46466">
        <ele>450.52</ele>
        <time>2021-08-20T05:21:31Z</time>
      </trkpt>
      <trkpt lat="43.16401" lon="-0.46496">
        <ele>447.63</ele>
        <time>2021-08-20T05:21:36Z</time>
      </trkpt>
      <trkpt lat="43.16397" lon="-0.46504">
        <ele>447.15</ele>
        <time>2021-08-20T05:21:37Z</time>
      </trkpt>
      <trkpt lat="43.16393" lon="-0.46513">
        <ele>447.15</ele>
        <time>2021-08-20T05:21:38Z</time>
      </trkpt>
      <trkpt lat="43.16376" lon="-0.46548">
        <ele>444.27</ele>
        <time>2021-08-20T05:21:42Z</time>
      </trkpt>
      <trkpt lat="43.16373" lon="-0.46559">
        <ele>444.27</ele>
        <time>2021-08-20T05:21:43Z</time>
      </trkpt>
      <trkpt lat="43.16355" lon="-0.46635">
        <ele>440.9</ele>
        <time>2021-08-20T05:21:50Z</time>
      </trkpt>
      <trkpt lat="43.16347" lon="-0.46669">
        <ele>439.46</ele>
        <time>2021-08-20T05:21:53Z</time>
      </trkpt>
      <trkpt lat="43.16342" lon="-0.46697">
        <ele>437.54</ele>
        <time>2021-08-20T05:21:56Z</time>
      </trkpt>
      <trkpt lat="43.16342" lon="-0.46706">
        <ele>436.58</ele>
        <time>2021-08-20T05:21:57Z</time>
      </trkpt>
      <trkpt lat="43.1634" lon="-0.46734">
        <ele>435.13</ele>
        <time>2021-08-20T05:22:00Z</time>
      </trkpt>
      <trkpt lat="43.16338" lon="-0.46742">
        <ele>434.17</ele>
        <time>2021-08-20T05:22:01Z</time>
      </trkpt>
      <trkpt lat="43.16334" lon="-0.46758">
        <ele>433.21</ele>
        <time>2021-08-20T05:22:03Z</time>
      </trkpt>
      <trkpt lat="43.1633" lon="-0.46788">
        <ele>430.33</ele>
        <time>2021-08-20T05:22:07Z</time>
      </trkpt>
      <trkpt lat="43.16328" lon="-0.46823">
        <ele>427.92</ele>
        <time>2021-08-20T05:22:12Z</time>
      </trkpt>
      <trkpt lat="43.16326" lon="-0.46836">
        <ele>426.48</ele>
        <time>2021-08-20T05:22:14Z</time>
      </trkpt>
      <trkpt lat="43.16324" lon="-0.46843">
        <ele>426</ele>
        <time>2021-08-20T05:22:15Z</time>
      </trkpt>
      <trkpt lat="43.1632" lon="-0.46864">
        <ele>424.56</ele>
        <time>2021-08-20T05:22:18Z</time>
      </trkpt>
      <trkpt lat="43.16312" lon="-0.46889">
        <ele>422.16</ele>
        <time>2021-08-20T05:22:23Z</time>
      </trkpt>
      <trkpt lat="43.1631" lon="-0.4689">
        <ele>421.68</ele>
        <time>2021-08-20T05:22:24Z</time>
      </trkpt>
      <trkpt lat="43.16308" lon="-0.4689">
        <ele>421.19</ele>
        <time>2021-08-20T05:22:25Z</time>
      </trkpt>
      <trkpt lat="43.16306" lon="-0.46889">
        <ele>420.71</ele>
        <time>2021-08-20T05:22:26Z</time>
      </trkpt>
      <trkpt lat="43.16306" lon="-0.46886">
        <ele>420.71</ele>
        <time>2021-08-20T05:22:27Z</time>
      </trkpt>
      <trkpt lat="43.16305" lon="-0.46884">
        <ele>420.23</ele>
        <time>2021-08-20T05:22:28Z</time>
      </trkpt>
      <trkpt lat="43.16305" lon="-0.4688">
        <ele>419.27</ele>
        <time>2021-08-20T05:22:29Z</time>
      </trkpt>
      <trkpt lat="43.16302" lon="-0.46865">
        <ele>416.87</ele>
        <time>2021-08-20T05:22:32Z</time>
      </trkpt>
      <trkpt lat="43.163" lon="-0.4686">
        <ele>415.91</ele>
        <time>2021-08-20T05:22:33Z</time>
      </trkpt>
      <trkpt lat="43.16299" lon="-0.46856">
        <ele>415.43</ele>
        <time>2021-08-20T05:22:34Z</time>
      </trkpt>
      <trkpt lat="43.16297" lon="-0.46853">
        <ele>414.47</ele>
        <time>2021-08-20T05:22:35Z</time>
      </trkpt>
      <trkpt lat="43.16294" lon="-0.46849">
        <ele>413.98</ele>
        <time>2021-08-20T05:22:36Z</time>
      </trkpt>
      <trkpt lat="43.1629" lon="-0.46845">
        <ele>413.02</ele>
        <time>2021-08-20T05:22:37Z</time>
      </trkpt>
      <trkpt lat="43.16287" lon="-0.46842">
        <ele>412.54</ele>
        <time>2021-08-20T05:22:38Z</time>
      </trkpt>
      <trkpt lat="43.16284" lon="-0.46839">
        <ele>412.54</ele>
        <time>2021-08-20T05:22:39Z</time>
      </trkpt>
      <trkpt lat="43.16281" lon="-0.46836">
        <ele>412.06</ele>
        <time>2021-08-20T05:22:40Z</time>
      </trkpt>
      <trkpt lat="43.16276" lon="-0.46831">
        <ele>411.1</ele>
        <time>2021-08-20T05:22:42Z</time>
      </trkpt>
      <trkpt lat="43.16274" lon="-0.46828">
        <ele>410.62</ele>
        <time>2021-08-20T05:22:43Z</time>
      </trkpt>
      <trkpt lat="43.16273" lon="-0.46825">
        <ele>410.62</ele>
        <time>2021-08-20T05:22:44Z</time>
      </trkpt>
      <trkpt lat="43.16261" lon="-0.46802">
        <ele>406.77</ele>
        <time>2021-08-20T05:22:51Z</time>
      </trkpt>
      <trkpt lat="43.16247" lon="-0.46777">
        <ele>403.89</ele>
        <time>2021-08-20T05:22:57Z</time>
      </trkpt>
      <trkpt lat="43.16234" lon="-0.46757">
        <ele>402.93</ele>
        <time>2021-08-20T05:23:02Z</time>
      </trkpt>
      <trkpt lat="43.16224" lon="-0.46745">
        <ele>400.53</ele>
        <time>2021-08-20T05:23:08Z</time>
      </trkpt>
      <trkpt lat="43.16216" lon="-0.46729">
        <ele>398.6</ele>
        <time>2021-08-20T05:23:13Z</time>
      </trkpt>
      <trkpt lat="43.16214" lon="-0.46725">
        <ele>398.6</ele>
        <time>2021-08-20T05:23:14Z</time>
      </trkpt>
      <trkpt lat="43.16203" lon="-0.4671">
        <ele>398.6</ele>
        <time>2021-08-20T05:23:20Z</time>
      </trkpt>
      <trkpt lat="43.16196" lon="-0.46701">
        <ele>395.72</ele>
        <time>2021-08-20T05:23:24Z</time>
      </trkpt>
      <trkpt lat="43.16187" lon="-0.46685">
        <ele>394.28</ele>
        <time>2021-08-20T05:23:27Z</time>
      </trkpt>
      <trkpt lat="43.16186" lon="-0.46681">
        <ele>393.32</ele>
        <time>2021-08-20T05:23:28Z</time>
      </trkpt>
      <trkpt lat="43.16167" lon="-0.46654">
        <ele>390.43</ele>
        <time>2021-08-20T05:23:36Z</time>
      </trkpt>
      <trkpt lat="43.16164" lon="-0.46651">
        <ele>390.43</ele>
        <time>2021-08-20T05:23:37Z</time>
      </trkpt>
      <trkpt lat="43.16138" lon="-0.46631">
        <ele>388.51</ele>
        <time>2021-08-20T05:23:44Z</time>
      </trkpt>
      <trkpt lat="43.16132" lon="-0.46631">
        <ele>388.51</ele>
        <time>2021-08-20T05:23:46Z</time>
      </trkpt>
      <trkpt lat="43.16123" lon="-0.46638">
        <ele>388.03</ele>
        <time>2021-08-20T05:23:50Z</time>
      </trkpt>
      <trkpt lat="43.16111" lon="-0.46664">
        <ele>384.66</ele>
        <time>2021-08-20T05:23:56Z</time>
      </trkpt>
      <trkpt lat="43.16101" lon="-0.46693">
        <ele>382.74</ele>
        <time>2021-08-20T05:24:02Z</time>
      </trkpt>
      <trkpt lat="43.16094" lon="-0.4671">
        <ele>381.78</ele>
        <time>2021-08-20T05:24:08Z</time>
      </trkpt>
      <trkpt lat="43.1609" lon="-0.46721">
        <ele>380.34</ele>
        <time>2021-08-20T05:24:14Z</time>
      </trkpt>
      <trkpt lat="43.16084" lon="-0.46738">
        <ele>377.94</ele>
        <time>2021-08-20T05:24:19Z</time>
      </trkpt>
      <trkpt lat="43.16066" lon="-0.46769">
        <ele>374.57</ele>
        <time>2021-08-20T05:24:25Z</time>
      </trkpt>
      <trkpt lat="43.16063" lon="-0.46773">
        <ele>374.57</ele>
        <time>2021-08-20T05:24:26Z</time>
      </trkpt>
      <trkpt lat="43.16041" lon="-0.46802">
        <ele>371.21</ele>
        <time>2021-08-20T05:24:33Z</time>
      </trkpt>
      <trkpt lat="43.1603" lon="-0.46812">
        <ele>371.21</ele>
        <time>2021-08-20T05:24:37Z</time>
      </trkpt>
      <trkpt lat="43.16025" lon="-0.46815">
        <ele>370.73</ele>
        <time>2021-08-20T05:24:38Z</time>
      </trkpt>
      <trkpt lat="43.15993" lon="-0.46835">
        <ele>368.8</ele>
        <time>2021-08-20T05:24:45Z</time>
      </trkpt>
      <trkpt lat="43.15979" lon="-0.46857">
        <ele>367.84</ele>
        <time>2021-08-20T05:24:51Z</time>
      </trkpt>
      <trkpt lat="43.15976" lon="-0.46872">
        <ele>366.88</ele>
        <time>2021-08-20T05:24:54Z</time>
      </trkpt>
      <trkpt lat="43.15974" lon="-0.46877">
        <ele>366.88</ele>
        <time>2021-08-20T05:24:55Z</time>
      </trkpt>
      <trkpt lat="43.15968" lon="-0.46886">
        <ele>365.92</ele>
        <time>2021-08-20T05:24:57Z</time>
      </trkpt>
      <trkpt lat="43.15935" lon="-0.46914">
        <ele>362.55</ele>
        <time>2021-08-20T05:25:04Z</time>
      </trkpt>
      <trkpt lat="43.1593" lon="-0.46919">
        <ele>362.55</ele>
        <time>2021-08-20T05:25:05Z</time>
      </trkpt>
      <trkpt lat="43.15876" lon="-0.46965">
        <ele>360.15</ele>
        <time>2021-08-20T05:25:15Z</time>
      </trkpt>
      <trkpt lat="43.15846" lon="-0.46988">
        <ele>357.75</ele>
        <time>2021-08-20T05:25:20Z</time>
      </trkpt>
      <trkpt lat="43.15839" lon="-0.46991">
        <ele>357.27</ele>
        <time>2021-08-20T05:25:21Z</time>
      </trkpt>
      <trkpt lat="43.15818" lon="-0.47">
        <ele>356.31</ele>
        <time>2021-08-20T05:25:24Z</time>
      </trkpt>
      <trkpt lat="43.15812" lon="-0.47005">
        <ele>355.83</ele>
        <time>2021-08-20T05:25:25Z</time>
      </trkpt>
      <trkpt lat="43.15794" lon="-0.4702">
        <ele>354.38</ele>
        <time>2021-08-20T05:25:28Z</time>
      </trkpt>
      <trkpt lat="43.15788" lon="-0.47023">
        <ele>354.86</ele>
        <time>2021-08-20T05:25:29Z</time>
      </trkpt>
      <trkpt lat="43.15783" lon="-0.47025">
        <ele>354.86</ele>
        <time>2021-08-20T05:25:30Z</time>
      </trkpt>
      <trkpt lat="43.15775" lon="-0.47027">
        <ele>354.86</ele>
        <time>2021-08-20T05:25:33Z</time>
      </trkpt>
      <trkpt lat="43.15774" lon="-0.47028">
        <ele>354.86</ele>
        <time>2021-08-20T05:25:34Z</time>
      </trkpt>
      <trkpt lat="43.15773" lon="-0.47029">
        <ele>354.86</ele>
        <time>2021-08-20T05:25:35Z</time>
      </trkpt>
      <trkpt lat="43.15772" lon="-0.47029">
        <ele>354.86</ele>
        <time>2021-08-20T05:25:36Z</time>
      </trkpt>
      <trkpt lat="43.15771" lon="-0.4703">
        <ele>354.86</ele>
        <time>2021-08-20T05:25:37Z</time>
      </trkpt>
      <trkpt lat="43.1577" lon="-0.47031">
        <ele>354.86</ele>
        <time>2021-08-20T05:25:38Z</time>
      </trkpt>
      <trkpt lat="43.1576" lon="-0.47041">
        <ele>354.86</ele>
        <time>2021-08-20T05:25:45Z</time>
      </trkpt>
      <trkpt lat="43.15746" lon="-0.47045">
        <ele>356.31</ele>
        <time>2021-08-20T05:25:53Z</time>
      </trkpt>
      <trkpt lat="43.15729" lon="-0.47047">
        <ele>358.23</ele>
        <time>2021-08-20T05:26:02Z</time>
      </trkpt>
      <trkpt lat="43.15709" lon="-0.47053">
        <ele>360.15</ele>
        <time>2021-08-20T05:26:12Z</time>
      </trkpt>
      <trkpt lat="43.15691" lon="-0.47057">
        <ele>361.59</ele>
        <time>2021-08-20T05:26:21Z</time>
      </trkpt>
      <trkpt lat="43.15679" lon="-0.47061">
        <ele>363.04</ele>
        <time>2021-08-20T05:26:28Z</time>
      </trkpt>
      <trkpt lat="43.15657" lon="-0.47068">
        <ele>364.48</ele>
        <time>2021-08-20T05:26:39Z</time>
      </trkpt>
      <trkpt lat="43.15635" lon="-0.47075">
        <ele>365.44</ele>
        <time>2021-08-20T05:26:49Z</time>
      </trkpt>
      <trkpt lat="43.15618" lon="-0.47079">
        <ele>365.92</ele>
        <time>2021-08-20T05:26:57Z</time>
      </trkpt>
      <trkpt lat="43.15598" lon="-0.47085">
        <ele>365.92</ele>
        <time>2021-08-20T05:27:04Z</time>
      </trkpt>
      <trkpt lat="43.15594" lon="-0.47086">
        <ele>364.96</ele>
        <time>2021-08-20T05:27:05Z</time>
      </trkpt>
      <trkpt lat="43.15589" lon="-0.47088">
        <ele>364.48</ele>
        <time>2021-08-20T05:27:06Z</time>
      </trkpt>
      <trkpt lat="43.1556" lon="-0.47098">
        <ele>360.63</ele>
        <time>2021-08-20T05:27:12Z</time>
      </trkpt>
      <trkpt lat="43.15534" lon="-0.47107">
        <ele>357.27</ele>
        <time>2021-08-20T05:27:16Z</time>
      </trkpt>
      <trkpt lat="43.15504" lon="-0.47117">
        <ele>355.34</ele>
        <time>2021-08-20T05:27:20Z</time>
      </trkpt>
      <trkpt lat="43.15473" lon="-0.47127">
        <ele>352.46</ele>
        <time>2021-08-20T05:27:24Z</time>
      </trkpt>
      <trkpt lat="43.15445" lon="-0.47141">
        <ele>351.98</ele>
        <time>2021-08-20T05:27:28Z</time>
      </trkpt>
      <trkpt lat="43.15439" lon="-0.47146">
        <ele>351.98</ele>
        <time>2021-08-20T05:27:29Z</time>
      </trkpt>
      <trkpt lat="43.15433" lon="-0.47152">
        <ele>351.98</ele>
        <time>2021-08-20T05:27:30Z</time>
      </trkpt>
      <trkpt lat="43.15404" lon="-0.47174">
        <ele>352.46</ele>
        <time>2021-08-20T05:27:36Z</time>
      </trkpt>
      <trkpt lat="43.15399" lon="-0.47175">
        <ele>352.46</ele>
        <time>2021-08-20T05:27:37Z</time>
      </trkpt>
      <trkpt lat="43.15395" lon="-0.47177">
        <ele>352.46</ele>
        <time>2021-08-20T05:27:38Z</time>
      </trkpt>
      <trkpt lat="43.15391" lon="-0.47179">
        <ele>353.42</ele>
        <time>2021-08-20T05:27:39Z</time>
      </trkpt>
      <trkpt lat="43.15388" lon="-0.47181">
        <ele>353.42</ele>
        <time>2021-08-20T05:27:40Z</time>
      </trkpt>
      <trkpt lat="43.15367" lon="-0.47199">
        <ele>353.9</ele>
        <time>2021-08-20T05:27:48Z</time>
      </trkpt>
      <trkpt lat="43.15352" lon="-0.47215">
        <ele>355.34</ele>
        <time>2021-08-20T05:27:56Z</time>
      </trkpt>
      <trkpt lat="43.15335" lon="-0.47235">
        <ele>356.79</ele>
        <time>2021-08-20T05:28:07Z</time>
      </trkpt>
      <trkpt lat="43.15314" lon="-0.4726">
        <ele>357.75</ele>
        <time>2021-08-20T05:28:18Z</time>
      </trkpt>
      <trkpt lat="43.15299" lon="-0.47278">
        <ele>358.71</ele>
        <time>2021-08-20T05:28:27Z</time>
      </trkpt>
      <trkpt lat="43.15289" lon="-0.4729">
        <ele>359.67</ele>
        <time>2021-08-20T05:28:34Z</time>
      </trkpt>
      <trkpt lat="43.15277" lon="-0.47306">
        <ele>361.11</ele>
        <time>2021-08-20T05:28:42Z</time>
      </trkpt>
      <trkpt lat="43.1527" lon="-0.47314">
        <ele>362.07</ele>
        <time>2021-08-20T05:28:47Z</time>
      </trkpt>
      <trkpt lat="43.15268" lon="-0.47316">
        <ele>362.07</ele>
        <time>2021-08-20T05:28:48Z</time>
      </trkpt>
      <trkpt lat="43.15267" lon="-0.47318">
        <ele>362.07</ele>
        <time>2021-08-20T05:28:49Z</time>
      </trkpt>
      <trkpt lat="43.15254" lon="-0.47334">
        <ele>364.96</ele>
        <time>2021-08-20T05:28:58Z</time>
      </trkpt>
      <trkpt lat="43.15241" lon="-0.47348">
        <ele>366.4</ele>
        <time>2021-08-20T05:29:07Z</time>
      </trkpt>
      <trkpt lat="43.15237" lon="-0.47353">
        <ele>366.88</ele>
        <time>2021-08-20T05:29:11Z</time>
      </trkpt>
      <trkpt lat="43.15223" lon="-0.47369">
        <ele>368.32</ele>
        <time>2021-08-20T05:29:21Z</time>
      </trkpt>
      <trkpt lat="43.15208" lon="-0.47388">
        <ele>369.28</ele>
        <time>2021-08-20T05:29:33Z</time>
      </trkpt>
      <trkpt lat="43.15194" lon="-0.47403">
        <ele>369.76</ele>
        <time>2021-08-20T05:29:42Z</time>
      </trkpt>
      <trkpt lat="43.15178" lon="-0.47422">
        <ele>370.24</ele>
        <time>2021-08-20T05:29:52Z</time>
      </trkpt>
      <trkpt lat="43.15162" lon="-0.4744">
        <ele>370.24</ele>
        <time>2021-08-20T05:30:01Z</time>
      </trkpt>
      <trkpt lat="43.15139" lon="-0.47466">
        <ele>370.24</ele>
        <time>2021-08-20T05:30:11Z</time>
      </trkpt>
      <trkpt lat="43.15118" lon="-0.4749">
        <ele>368.8</ele>
        <time>2021-08-20T05:30:19Z</time>
      </trkpt>
      <trkpt lat="43.15098" lon="-0.47511">
        <ele>368.32</ele>
        <time>2021-08-20T05:30:27Z</time>
      </trkpt>
      <trkpt lat="43.15087" lon="-0.47527">
        <ele>368.32</ele>
        <time>2021-08-20T05:30:33Z</time>
      </trkpt>
      <trkpt lat="43.15065" lon="-0.47531">
        <ele>369.76</ele>
        <time>2021-08-20T05:30:40Z</time>
      </trkpt>
      <trkpt lat="43.1504" lon="-0.47522">
        <ele>370.24</ele>
        <time>2021-08-20T05:30:48Z</time>
      </trkpt>
      <trkpt lat="43.15009" lon="-0.47505">
        <ele>370.73</ele>
        <time>2021-08-20T05:30:58Z</time>
      </trkpt>
      <trkpt lat="43.14981" lon="-0.47493">
        <ele>371.69</ele>
        <time>2021-08-20T05:31:07Z</time>
      </trkpt>
      <trkpt lat="43.1496" lon="-0.47481">
        <ele>372.17</ele>
        <time>2021-08-20T05:31:15Z</time>
      </trkpt>
      <trkpt lat="43.1493" lon="-0.47468">
        <ele>373.13</ele>
        <time>2021-08-20T05:31:24Z</time>
      </trkpt>
      <trkpt lat="43.14908" lon="-0.47464">
        <ele>373.13</ele>
        <time>2021-08-20T05:31:30Z</time>
      </trkpt>
      <trkpt lat="43.14905" lon="-0.47465">
        <ele>373.13</ele>
        <time>2021-08-20T05:31:31Z</time>
      </trkpt>
      <trkpt lat="43.14903" lon="-0.47468">
        <ele>373.13</ele>
        <time>2021-08-20T05:31:32Z</time>
      </trkpt>
      <trkpt lat="43.14903" lon="-0.47471">
        <ele>373.13</ele>
        <time>2021-08-20T05:31:33Z</time>
      </trkpt>
      <trkpt lat="43.14904" lon="-0.47475">
        <ele>373.13</ele>
        <time>2021-08-20T05:31:34Z</time>
      </trkpt>
      <trkpt lat="43.14905" lon="-0.4748">
        <ele>373.13</ele>
        <time>2021-08-20T05:31:35Z</time>
      </trkpt>
      <trkpt lat="43.14906" lon="-0.47484">
        <ele>373.13</ele>
        <time>2021-08-20T05:31:36Z</time>
      </trkpt>
      <trkpt lat="43.1491" lon="-0.47515">
        <ele>373.13</ele>
        <time>2021-08-20T05:31:42Z</time>
      </trkpt>
      <trkpt lat="43.14917" lon="-0.47545">
        <ele>373.13</ele>
        <time>2021-08-20T05:31:47Z</time>
      </trkpt>
      <trkpt lat="43.1492" lon="-0.47552">
        <ele>373.13</ele>
        <time>2021-08-20T05:31:48Z</time>
      </trkpt>
      <trkpt lat="43.14923" lon="-0.47557">
        <ele>373.13</ele>
        <time>2021-08-20T05:31:49Z</time>
      </trkpt>
      <trkpt lat="43.14926" lon="-0.47563">
        <ele>373.13</ele>
        <time>2021-08-20T05:31:50Z</time>
      </trkpt>
      <trkpt lat="43.1493" lon="-0.47567">
        <ele>373.13</ele>
        <time>2021-08-20T05:31:51Z</time>
      </trkpt>
      <trkpt lat="43.14962" lon="-0.47601">
        <ele>372.17</ele>
        <time>2021-08-20T05:31:58Z</time>
      </trkpt>
      <trkpt lat="43.15006" lon="-0.47633">
        <ele>370.73</ele>
        <time>2021-08-20T05:32:06Z</time>
      </trkpt>
      <trkpt lat="43.15017" lon="-0.47641">
        <ele>370.73</ele>
        <time>2021-08-20T05:32:08Z</time>
      </trkpt>
      <trkpt lat="43.15021" lon="-0.47647">
        <ele>370.73</ele>
        <time>2021-08-20T05:32:09Z</time>
      </trkpt>
      <trkpt lat="43.15024" lon="-0.47654">
        <ele>370.73</ele>
        <time>2021-08-20T05:32:10Z</time>
      </trkpt>
      <trkpt lat="43.15026" lon="-0.47661">
        <ele>370.73</ele>
        <time>2021-08-20T05:32:11Z</time>
      </trkpt>
      <trkpt lat="43.15025" lon="-0.47669">
        <ele>370.73</ele>
        <time>2021-08-20T05:32:12Z</time>
      </trkpt>
      <trkpt lat="43.15023" lon="-0.47676">
        <ele>370.73</ele>
        <time>2021-08-20T05:32:13Z</time>
      </trkpt>
      <trkpt lat="43.1502" lon="-0.47683">
        <ele>370.73</ele>
        <time>2021-08-20T05:32:14Z</time>
      </trkpt>
      <trkpt lat="43.15012" lon="-0.47706">
        <ele>370.24</ele>
        <time>2021-08-20T05:32:17Z</time>
      </trkpt>
      <trkpt lat="43.1501" lon="-0.47713">
        <ele>370.24</ele>
        <time>2021-08-20T05:32:18Z</time>
      </trkpt>
      <trkpt lat="43.15011" lon="-0.47722">
        <ele>370.24</ele>
        <time>2021-08-20T05:32:19Z</time>
      </trkpt>
      <trkpt lat="43.15013" lon="-0.4773">
        <ele>370.24</ele>
        <time>2021-08-20T05:32:20Z</time>
      </trkpt>
      <trkpt lat="43.15017" lon="-0.47736">
        <ele>369.76</ele>
        <time>2021-08-20T05:32:21Z</time>
      </trkpt>
      <trkpt lat="43.15022" lon="-0.4774">
        <ele>369.76</ele>
        <time>2021-08-20T05:32:22Z</time>
      </trkpt>
      <trkpt lat="43.15028" lon="-0.47743">
        <ele>369.76</ele>
        <time>2021-08-20T05:32:23Z</time>
      </trkpt>
      <trkpt lat="43.15033" lon="-0.47747">
        <ele>369.76</ele>
        <time>2021-08-20T05:32:24Z</time>
      </trkpt>
      <trkpt lat="43.15039" lon="-0.4775">
        <ele>369.76</ele>
        <time>2021-08-20T05:32:25Z</time>
      </trkpt>
      <trkpt lat="43.15044" lon="-0.47754">
        <ele>369.76</ele>
        <time>2021-08-20T05:32:26Z</time>
      </trkpt>
      <trkpt lat="43.15047" lon="-0.47759">
        <ele>369.76</ele>
        <time>2021-08-20T05:32:27Z</time>
      </trkpt>
      <trkpt lat="43.15047" lon="-0.47766">
        <ele>369.76</ele>
        <time>2021-08-20T05:32:28Z</time>
      </trkpt>
      <trkpt lat="43.15045" lon="-0.47771">
        <ele>369.76</ele>
        <time>2021-08-20T05:32:29Z</time>
      </trkpt>
      <trkpt lat="43.15043" lon="-0.47776">
        <ele>369.76</ele>
        <time>2021-08-20T05:32:30Z</time>
      </trkpt>
      <trkpt lat="43.15039" lon="-0.4778">
        <ele>369.76</ele>
        <time>2021-08-20T05:32:31Z</time>
      </trkpt>
      <trkpt lat="43.15035" lon="-0.47784">
        <ele>369.76</ele>
        <time>2021-08-20T05:32:32Z</time>
      </trkpt>
      <trkpt lat="43.15022" lon="-0.47798">
        <ele>369.28</ele>
        <time>2021-08-20T05:32:35Z</time>
      </trkpt>
      <trkpt lat="43.15017" lon="-0.47803">
        <ele>369.28</ele>
        <time>2021-08-20T05:32:36Z</time>
      </trkpt>
      <trkpt lat="43.14972" lon="-0.47852">
        <ele>367.36</ele>
        <time>2021-08-20T05:32:45Z</time>
      </trkpt>
      <trkpt lat="43.14953" lon="-0.47872">
        <ele>367.36</ele>
        <time>2021-08-20T05:32:49Z</time>
      </trkpt>
      <trkpt lat="43.14948" lon="-0.47874">
        <ele>367.36</ele>
        <time>2021-08-20T05:32:50Z</time>
      </trkpt>
      <trkpt lat="43.14943" lon="-0.47874">
        <ele>367.36</ele>
        <time>2021-08-20T05:32:51Z</time>
      </trkpt>
      <trkpt lat="43.14939" lon="-0.47872">
        <ele>367.36</ele>
        <time>2021-08-20T05:32:52Z</time>
      </trkpt>
      <trkpt lat="43.14935" lon="-0.47867">
        <ele>367.36</ele>
        <time>2021-08-20T05:32:53Z</time>
      </trkpt>
      <trkpt lat="43.14931" lon="-0.47862">
        <ele>367.36</ele>
        <time>2021-08-20T05:32:54Z</time>
      </trkpt>
      <trkpt lat="43.14927" lon="-0.47857">
        <ele>367.36</ele>
        <time>2021-08-20T05:32:55Z</time>
      </trkpt>
      <trkpt lat="43.1492" lon="-0.47848">
        <ele>367.36</ele>
        <time>2021-08-20T05:32:57Z</time>
      </trkpt>
      <trkpt lat="43.14915" lon="-0.47845">
        <ele>367.36</ele>
        <time>2021-08-20T05:32:58Z</time>
      </trkpt>
      <trkpt lat="43.14911" lon="-0.47846">
        <ele>367.36</ele>
        <time>2021-08-20T05:32:59Z</time>
      </trkpt>
      <trkpt lat="43.14907" lon="-0.47848">
        <ele>367.36</ele>
        <time>2021-08-20T05:33:00Z</time>
      </trkpt>
      <trkpt lat="43.14905" lon="-0.47853">
        <ele>367.36</ele>
        <time>2021-08-20T05:33:01Z</time>
      </trkpt>
      <trkpt lat="43.14903" lon="-0.47857">
        <ele>367.36</ele>
        <time>2021-08-20T05:33:02Z</time>
      </trkpt>
      <trkpt lat="43.149" lon="-0.47862">
        <ele>367.36</ele>
        <time>2021-08-20T05:33:03Z</time>
      </trkpt>
      <trkpt lat="43.14898" lon="-0.47867">
        <ele>367.36</ele>
        <time>2021-08-20T05:33:04Z</time>
      </trkpt>
      <trkpt lat="43.14895" lon="-0.47871">
        <ele>367.36</ele>
        <time>2021-08-20T05:33:05Z</time>
      </trkpt>
      <trkpt lat="43.14892" lon="-0.47875">
        <ele>368.8</ele>
        <time>2021-08-20T05:33:06Z</time>
      </trkpt>
      <trkpt lat="43.14876" lon="-0.47895">
        <ele>369.76</ele>
        <time>2021-08-20T05:33:12Z</time>
      </trkpt>
      <trkpt lat="43.14859" lon="-0.47923">
        <ele>371.21</ele>
        <time>2021-08-20T05:33:20Z</time>
      </trkpt>
      <trkpt lat="43.1484" lon="-0.47951">
        <ele>372.17</ele>
        <time>2021-08-20T05:33:28Z</time>
      </trkpt>
      <trkpt lat="43.14815" lon="-0.47981">
        <ele>374.09</ele>
        <time>2021-08-20T05:33:39Z</time>
      </trkpt>
      <trkpt lat="43.14798" lon="-0.48002">
        <ele>374.57</ele>
        <time>2021-08-20T05:33:47Z</time>
      </trkpt>
      <trkpt lat="43.14781" lon="-0.48023">
        <ele>376.01</ele>
        <time>2021-08-20T05:33:55Z</time>
      </trkpt>
      <trkpt lat="43.14768" lon="-0.48043">
        <ele>376.01</ele>
        <time>2021-08-20T05:34:01Z</time>
      </trkpt>
      <trkpt lat="43.14762" lon="-0.48051">
        <ele>374.57</ele>
        <time>2021-08-20T05:34:03Z</time>
      </trkpt>
      <trkpt lat="43.14743" lon="-0.48084">
        <ele>371.21</ele>
        <time>2021-08-20T05:34:09Z</time>
      </trkpt>
      <trkpt lat="43.14737" lon="-0.48093">
        <ele>369.76</ele>
        <time>2021-08-20T05:34:11Z</time>
      </trkpt>
      <trkpt lat="43.14732" lon="-0.48104">
        <ele>368.8</ele>
        <time>2021-08-20T05:34:13Z</time>
      </trkpt>
      <trkpt lat="43.14729" lon="-0.4813">
        <ele>364.96</ele>
        <time>2021-08-20T05:34:17Z</time>
      </trkpt>
      <trkpt lat="43.14738" lon="-0.48161">
        <ele>361.11</ele>
        <time>2021-08-20T05:34:21Z</time>
      </trkpt>
      <trkpt lat="43.1475" lon="-0.48176">
        <ele>359.67</ele>
        <time>2021-08-20T05:34:24Z</time>
      </trkpt>
      <trkpt lat="43.14758" lon="-0.48197">
        <ele>358.23</ele>
        <time>2021-08-20T05:34:28Z</time>
      </trkpt>
      <trkpt lat="43.14749" lon="-0.48207">
        <ele>356.79</ele>
        <time>2021-08-20T05:34:31Z</time>
      </trkpt>
      <trkpt lat="43.14746" lon="-0.48205">
        <ele>356.79</ele>
        <time>2021-08-20T05:34:32Z</time>
      </trkpt>
      <trkpt lat="43.14743" lon="-0.48202">
        <ele>356.79</ele>
        <time>2021-08-20T05:34:33Z</time>
      </trkpt>
      <trkpt lat="43.1474" lon="-0.48199">
        <ele>356.31</ele>
        <time>2021-08-20T05:34:34Z</time>
      </trkpt>
      <trkpt lat="43.14729" lon="-0.48189">
        <ele>355.83</ele>
        <time>2021-08-20T05:34:37Z</time>
      </trkpt>
      <trkpt lat="43.14725" lon="-0.48187">
        <ele>354.86</ele>
        <time>2021-08-20T05:34:38Z</time>
      </trkpt>
      <trkpt lat="43.14712" lon="-0.48178">
        <ele>353.9</ele>
        <time>2021-08-20T05:34:41Z</time>
      </trkpt>
      <trkpt lat="43.14704" lon="-0.48173">
        <ele>353.42</ele>
        <time>2021-08-20T05:34:43Z</time>
      </trkpt>
      <trkpt lat="43.14691" lon="-0.48166">
        <ele>352.46</ele>
        <time>2021-08-20T05:34:46Z</time>
      </trkpt>
      <trkpt lat="43.14687" lon="-0.48162">
        <ele>352.46</ele>
        <time>2021-08-20T05:34:47Z</time>
      </trkpt>
      <trkpt lat="43.1467" lon="-0.4814">
        <ele>349.58</ele>
        <time>2021-08-20T05:34:51Z</time>
      </trkpt>
      <trkpt lat="43.14658" lon="-0.48128">
        <ele>348.13</ele>
        <time>2021-08-20T05:34:53Z</time>
      </trkpt>
      <trkpt lat="43.14653" lon="-0.48122">
        <ele>348.13</ele>
        <time>2021-08-20T05:34:54Z</time>
      </trkpt>
      <trkpt lat="43.14644" lon="-0.48112">
        <ele>348.13</ele>
        <time>2021-08-20T05:34:56Z</time>
      </trkpt>
      <trkpt lat="43.1464" lon="-0.48111">
        <ele>348.13</ele>
        <time>2021-08-20T05:34:57Z</time>
      </trkpt>
      <trkpt lat="43.14635" lon="-0.48112">
        <ele>347.65</ele>
        <time>2021-08-20T05:34:58Z</time>
      </trkpt>
      <trkpt lat="43.14631" lon="-0.48116">
        <ele>347.65</ele>
        <time>2021-08-20T05:34:59Z</time>
      </trkpt>
      <trkpt lat="43.14627" lon="-0.48122">
        <ele>346.69</ele>
        <time>2021-08-20T05:35:00Z</time>
      </trkpt>
      <trkpt lat="43.14623" lon="-0.48127">
        <ele>346.21</ele>
        <time>2021-08-20T05:35:01Z</time>
      </trkpt>
      <trkpt lat="43.14618" lon="-0.48131">
        <ele>346.21</ele>
        <time>2021-08-20T05:35:02Z</time>
      </trkpt>
      <trkpt lat="43.14613" lon="-0.48133">
        <ele>346.21</ele>
        <time>2021-08-20T05:35:03Z</time>
      </trkpt>
      <trkpt lat="43.14608" lon="-0.48135">
        <ele>346.21</ele>
        <time>2021-08-20T05:35:04Z</time>
      </trkpt>
      <trkpt lat="43.14602" lon="-0.48135">
        <ele>346.21</ele>
        <time>2021-08-20T05:35:05Z</time>
      </trkpt>
      <trkpt lat="43.14587" lon="-0.48136">
        <ele>346.21</ele>
        <time>2021-08-20T05:35:08Z</time>
      </trkpt>
      <trkpt lat="43.14582" lon="-0.48134">
        <ele>345.73</ele>
        <time>2021-08-20T05:35:09Z</time>
      </trkpt>
      <trkpt lat="43.14547" lon="-0.4812">
        <ele>345.73</ele>
        <time>2021-08-20T05:35:16Z</time>
      </trkpt>
      <trkpt lat="43.14541" lon="-0.48119">
        <ele>345.73</ele>
        <time>2021-08-20T05:35:17Z</time>
      </trkpt>
      <trkpt lat="43.14537" lon="-0.48116">
        <ele>345.73</ele>
        <time>2021-08-20T05:35:18Z</time>
      </trkpt>
      <trkpt lat="43.14532" lon="-0.48114">
        <ele>345.73</ele>
        <time>2021-08-20T05:35:19Z</time>
      </trkpt>
      <trkpt lat="43.14527" lon="-0.48112">
        <ele>345.73</ele>
        <time>2021-08-20T05:35:20Z</time>
      </trkpt>
      <trkpt lat="43.14522" lon="-0.48112">
        <ele>345.73</ele>
        <time>2021-08-20T05:35:21Z</time>
      </trkpt>
      <trkpt lat="43.14517" lon="-0.48111">
        <ele>345.73</ele>
        <time>2021-08-20T05:35:22Z</time>
      </trkpt>
      <trkpt lat="43.14507" lon="-0.48108">
        <ele>345.73</ele>
        <time>2021-08-20T05:35:24Z</time>
      </trkpt>
      <trkpt lat="43.14502" lon="-0.48108">
        <ele>345.73</ele>
        <time>2021-08-20T05:35:25Z</time>
      </trkpt>
      <trkpt lat="43.14492" lon="-0.48108">
        <ele>345.73</ele>
        <time>2021-08-20T05:35:27Z</time>
      </trkpt>
      <trkpt lat="43.14488" lon="-0.48109">
        <ele>345.73</ele>
        <time>2021-08-20T05:35:28Z</time>
      </trkpt>
      <trkpt lat="43.14478" lon="-0.48113">
        <ele>345.73</ele>
        <time>2021-08-20T05:35:30Z</time>
      </trkpt>
      <trkpt lat="43.1447" lon="-0.48117">
        <ele>345.73</ele>
        <time>2021-08-20T05:35:32Z</time>
      </trkpt>
      <trkpt lat="43.14426" lon="-0.48131">
        <ele>345.73</ele>
        <time>2021-08-20T05:35:41Z</time>
      </trkpt>
      <trkpt lat="43.14413" lon="-0.48135">
        <ele>345.73</ele>
        <time>2021-08-20T05:35:44Z</time>
      </trkpt>
      <trkpt lat="43.1437" lon="-0.48151">
        <ele>345.73</ele>
        <time>2021-08-20T05:35:53Z</time>
      </trkpt>
      <trkpt lat="43.14366" lon="-0.48153">
        <ele>345.73</ele>
        <time>2021-08-20T05:35:54Z</time>
      </trkpt>
      <trkpt lat="43.14362" lon="-0.48156">
        <ele>345.73</ele>
        <time>2021-08-20T05:35:55Z</time>
      </trkpt>
      <trkpt lat="43.14359" lon="-0.48158">
        <ele>345.73</ele>
        <time>2021-08-20T05:35:56Z</time>
      </trkpt>
      <trkpt lat="43.14357" lon="-0.48161">
        <ele>345.73</ele>
        <time>2021-08-20T05:35:57Z</time>
      </trkpt>
      <trkpt lat="43.14354" lon="-0.48162">
        <ele>345.73</ele>
        <time>2021-08-20T05:35:58Z</time>
      </trkpt>
      <trkpt lat="43.14351" lon="-0.48161">
        <ele>345.73</ele>
        <time>2021-08-20T05:35:59Z</time>
      </trkpt>
      <trkpt lat="43.14349" lon="-0.48158">
        <ele>345.73</ele>
        <time>2021-08-20T05:36:00Z</time>
      </trkpt>
      <trkpt lat="43.14347" lon="-0.48154">
        <ele>345.73</ele>
        <time>2021-08-20T05:36:01Z</time>
      </trkpt>
      <trkpt lat="43.14327" lon="-0.48118">
        <ele>345.73</ele>
        <time>2021-08-20T05:36:09Z</time>
      </trkpt>
      <trkpt lat="43.14298" lon="-0.4807">
        <ele>345.73</ele>
        <time>2021-08-20T05:36:19Z</time>
      </trkpt>
      <trkpt lat="43.1427" lon="-0.48023">
        <ele>346.69</ele>
        <time>2021-08-20T05:36:28Z</time>
      </trkpt>
      <trkpt lat="43.14244" lon="-0.47982">
        <ele>347.65</ele>
        <time>2021-08-20T05:36:36Z</time>
      </trkpt>
      <trkpt lat="43.14219" lon="-0.47917">
        <ele>348.13</ele>
        <time>2021-08-20T05:36:47Z</time>
      </trkpt>
      <trkpt lat="43.14204" lon="-0.47863">
        <ele>349.1</ele>
        <time>2021-08-20T05:36:56Z</time>
      </trkpt>
      <trkpt lat="43.14201" lon="-0.47859">
        <ele>349.58</ele>
        <time>2021-08-20T05:36:57Z</time>
      </trkpt>
      <trkpt lat="43.14197" lon="-0.47857">
        <ele>349.58</ele>
        <time>2021-08-20T05:36:58Z</time>
      </trkpt>
      <trkpt lat="43.14193" lon="-0.47856">
        <ele>349.58</ele>
        <time>2021-08-20T05:36:59Z</time>
      </trkpt>
      <trkpt lat="43.14189" lon="-0.47857">
        <ele>349.58</ele>
        <time>2021-08-20T05:37:00Z</time>
      </trkpt>
      <trkpt lat="43.14185" lon="-0.47859">
        <ele>349.58</ele>
        <time>2021-08-20T05:37:01Z</time>
      </trkpt>
      <trkpt lat="43.14181" lon="-0.47861">
        <ele>349.58</ele>
        <time>2021-08-20T05:37:02Z</time>
      </trkpt>
      <trkpt lat="43.14177" lon="-0.47864">
        <ele>349.58</ele>
        <time>2021-08-20T05:37:03Z</time>
      </trkpt>
      <trkpt lat="43.14173" lon="-0.47867">
        <ele>349.58</ele>
        <time>2021-08-20T05:37:04Z</time>
      </trkpt>
      <trkpt lat="43.14168" lon="-0.47869">
        <ele>349.58</ele>
        <time>2021-08-20T05:37:05Z</time>
      </trkpt>
      <trkpt lat="43.14164" lon="-0.47872">
        <ele>349.58</ele>
        <time>2021-08-20T05:37:06Z</time>
      </trkpt>
      <trkpt lat="43.1416" lon="-0.47875">
        <ele>349.58</ele>
        <time>2021-08-20T05:37:07Z</time>
      </trkpt>
      <trkpt lat="43.14138" lon="-0.47889">
        <ele>349.1</ele>
        <time>2021-08-20T05:37:12Z</time>
      </trkpt>
      <trkpt lat="43.14134" lon="-0.4789">
        <ele>349.1</ele>
        <time>2021-08-20T05:37:13Z</time>
      </trkpt>
      <trkpt lat="43.14129" lon="-0.47891">
        <ele>349.1</ele>
        <time>2021-08-20T05:37:14Z</time>
      </trkpt>
      <trkpt lat="43.14124" lon="-0.4789">
        <ele>349.1</ele>
        <time>2021-08-20T05:37:15Z</time>
      </trkpt>
      <trkpt lat="43.14119" lon="-0.47889">
        <ele>349.1</ele>
        <time>2021-08-20T05:37:16Z</time>
      </trkpt>
      <trkpt lat="43.14114" lon="-0.47886">
        <ele>349.1</ele>
        <time>2021-08-20T05:37:17Z</time>
      </trkpt>
      <trkpt lat="43.1411" lon="-0.47883">
        <ele>349.1</ele>
        <time>2021-08-20T05:37:18Z</time>
      </trkpt>
      <trkpt lat="43.14106" lon="-0.47879">
        <ele>349.1</ele>
        <time>2021-08-20T05:37:19Z</time>
      </trkpt>
      <trkpt lat="43.14102" lon="-0.47874">
        <ele>349.1</ele>
        <time>2021-08-20T05:37:20Z</time>
      </trkpt>
      <trkpt lat="43.14077" lon="-0.47842">
        <ele>349.58</ele>
        <time>2021-08-20T05:37:28Z</time>
      </trkpt>
      <trkpt lat="43.14053" lon="-0.47814">
        <ele>349.58</ele>
        <time>2021-08-20T05:37:36Z</time>
      </trkpt>
      <trkpt lat="43.14019" lon="-0.47778">
        <ele>349.58</ele>
        <time>2021-08-20T05:37:45Z</time>
      </trkpt>
      <trkpt lat="43.14011" lon="-0.47772">
        <ele>349.58</ele>
        <time>2021-08-20T05:37:47Z</time>
      </trkpt>
      <trkpt lat="43.14006" lon="-0.47769">
        <ele>349.58</ele>
        <time>2021-08-20T05:37:48Z</time>
      </trkpt>
      <trkpt lat="43.14001" lon="-0.47766">
        <ele>349.58</ele>
        <time>2021-08-20T05:37:49Z</time>
      </trkpt>
      <trkpt lat="43.13997" lon="-0.47762">
        <ele>349.58</ele>
        <time>2021-08-20T05:37:50Z</time>
      </trkpt>
      <trkpt lat="43.13993" lon="-0.47759">
        <ele>350.06</ele>
        <time>2021-08-20T05:37:51Z</time>
      </trkpt>
      <trkpt lat="43.13986" lon="-0.47752">
        <ele>350.06</ele>
        <time>2021-08-20T05:37:53Z</time>
      </trkpt>
      <trkpt lat="43.13983" lon="-0.47748">
        <ele>350.06</ele>
        <time>2021-08-20T05:37:54Z</time>
      </trkpt>
      <trkpt lat="43.1398" lon="-0.47743">
        <ele>350.06</ele>
        <time>2021-08-20T05:37:55Z</time>
      </trkpt>
      <trkpt lat="43.13976" lon="-0.4774">
        <ele>350.06</ele>
        <time>2021-08-20T05:37:56Z</time>
      </trkpt>
      <trkpt lat="43.13972" lon="-0.47736">
        <ele>350.06</ele>
        <time>2021-08-20T05:37:57Z</time>
      </trkpt>
      <trkpt lat="43.13967" lon="-0.47734">
        <ele>350.06</ele>
        <time>2021-08-20T05:37:58Z</time>
      </trkpt>
      <trkpt lat="43.13963" lon="-0.47734">
        <ele>350.06</ele>
        <time>2021-08-20T05:37:59Z</time>
      </trkpt>
      <trkpt lat="43.13958" lon="-0.47734">
        <ele>350.54</ele>
        <time>2021-08-20T05:38:00Z</time>
      </trkpt>
      <trkpt lat="43.13954" lon="-0.47735">
        <ele>350.54</ele>
        <time>2021-08-20T05:38:01Z</time>
      </trkpt>
      <trkpt lat="43.13949" lon="-0.47736">
        <ele>350.54</ele>
        <time>2021-08-20T05:38:02Z</time>
      </trkpt>
      <trkpt lat="43.13931" lon="-0.47739">
        <ele>351.02</ele>
        <time>2021-08-20T05:38:06Z</time>
      </trkpt>
      <trkpt lat="43.13926" lon="-0.47738">
        <ele>351.02</ele>
        <time>2021-08-20T05:38:07Z</time>
      </trkpt>
      <trkpt lat="43.13922" lon="-0.47736">
        <ele>351.02</ele>
        <time>2021-08-20T05:38:08Z</time>
      </trkpt>
      <trkpt lat="43.13917" lon="-0.47733">
        <ele>351.02</ele>
        <time>2021-08-20T05:38:09Z</time>
      </trkpt>
      <trkpt lat="43.13913" lon="-0.4773">
        <ele>351.02</ele>
        <time>2021-08-20T05:38:10Z</time>
      </trkpt>
      <trkpt lat="43.1391" lon="-0.47725">
        <ele>351.02</ele>
        <time>2021-08-20T05:38:11Z</time>
      </trkpt>
      <trkpt lat="43.13908" lon="-0.4772">
        <ele>351.02</ele>
        <time>2021-08-20T05:38:12Z</time>
      </trkpt>
      <trkpt lat="43.13906" lon="-0.47715">
        <ele>351.02</ele>
        <time>2021-08-20T05:38:13Z</time>
      </trkpt>
      <trkpt lat="43.13904" lon="-0.47709">
        <ele>351.02</ele>
        <time>2021-08-20T05:38:14Z</time>
      </trkpt>
      <trkpt lat="43.13902" lon="-0.47702">
        <ele>351.02</ele>
        <time>2021-08-20T05:38:15Z</time>
      </trkpt>
      <trkpt lat="43.13892" lon="-0.47665">
        <ele>351.02</ele>
        <time>2021-08-20T05:38:21Z</time>
      </trkpt>
      <trkpt lat="43.1389" lon="-0.47659">
        <ele>351.02</ele>
        <time>2021-08-20T05:38:22Z</time>
      </trkpt>
      <trkpt lat="43.13887" lon="-0.47654">
        <ele>351.5</ele>
        <time>2021-08-20T05:38:23Z</time>
      </trkpt>
      <trkpt lat="43.13881" lon="-0.47646">
        <ele>351.5</ele>
        <time>2021-08-20T05:38:25Z</time>
      </trkpt>
      <trkpt lat="43.13878" lon="-0.47643">
        <ele>351.5</ele>
        <time>2021-08-20T05:38:26Z</time>
      </trkpt>
      <trkpt lat="43.13874" lon="-0.4764">
        <ele>351.5</ele>
        <time>2021-08-20T05:38:27Z</time>
      </trkpt>
      <trkpt lat="43.1387" lon="-0.47639">
        <ele>351.98</ele>
        <time>2021-08-20T05:38:28Z</time>
      </trkpt>
      <trkpt lat="43.13866" lon="-0.47638">
        <ele>351.98</ele>
        <time>2021-08-20T05:38:29Z</time>
      </trkpt>
      <trkpt lat="43.13863" lon="-0.47638">
        <ele>351.98</ele>
        <time>2021-08-20T05:38:30Z</time>
      </trkpt>
      <trkpt lat="43.13859" lon="-0.47639">
        <ele>351.98</ele>
        <time>2021-08-20T05:38:31Z</time>
      </trkpt>
      <trkpt lat="43.13856" lon="-0.47642">
        <ele>351.98</ele>
        <time>2021-08-20T05:38:32Z</time>
      </trkpt>
      <trkpt lat="43.13854" lon="-0.47645">
        <ele>351.98</ele>
        <time>2021-08-20T05:38:33Z</time>
      </trkpt>
      <trkpt lat="43.13851" lon="-0.4765">
        <ele>351.98</ele>
        <time>2021-08-20T05:38:34Z</time>
      </trkpt>
      <trkpt lat="43.13848" lon="-0.47655">
        <ele>351.98</ele>
        <time>2021-08-20T05:38:35Z</time>
      </trkpt>
      <trkpt lat="43.13825" lon="-0.47694">
        <ele>351.98</ele>
        <time>2021-08-20T05:38:43Z</time>
      </trkpt>
      <trkpt lat="43.13808" lon="-0.4771">
        <ele>351.98</ele>
        <time>2021-08-20T05:38:48Z</time>
      </trkpt>
      <trkpt lat="43.13805" lon="-0.47712">
        <ele>351.98</ele>
        <time>2021-08-20T05:38:49Z</time>
      </trkpt>
      <trkpt lat="43.13796" lon="-0.47716">
        <ele>350.54</ele>
        <time>2021-08-20T05:38:51Z</time>
      </trkpt>
      <trkpt lat="43.13791" lon="-0.47717">
        <ele>350.54</ele>
        <time>2021-08-20T05:38:52Z</time>
      </trkpt>
      <trkpt lat="43.13786" lon="-0.47717">
        <ele>350.54</ele>
        <time>2021-08-20T05:38:53Z</time>
      </trkpt>
      <trkpt lat="43.13738" lon="-0.4772">
        <ele>349.1</ele>
        <time>2021-08-20T05:39:01Z</time>
      </trkpt>
      <trkpt lat="43.13698" lon="-0.47722">
        <ele>348.13</ele>
        <time>2021-08-20T05:39:07Z</time>
      </trkpt>
      <trkpt lat="43.13691" lon="-0.47722">
        <ele>348.13</ele>
        <time>2021-08-20T05:39:08Z</time>
      </trkpt>
      <trkpt lat="43.13685" lon="-0.47723">
        <ele>348.13</ele>
        <time>2021-08-20T05:39:09Z</time>
      </trkpt>
      <trkpt lat="43.13672" lon="-0.47724">
        <ele>348.13</ele>
        <time>2021-08-20T05:39:11Z</time>
      </trkpt>
      <trkpt lat="43.13625" lon="-0.47748">
        <ele>348.13</ele>
        <time>2021-08-20T05:39:19Z</time>
      </trkpt>
      <trkpt lat="43.1361" lon="-0.4776">
        <ele>348.13</ele>
        <time>2021-08-20T05:39:22Z</time>
      </trkpt>
      <trkpt lat="43.13604" lon="-0.47764">
        <ele>348.13</ele>
        <time>2021-08-20T05:39:23Z</time>
      </trkpt>
      <trkpt lat="43.13598" lon="-0.47766">
        <ele>348.13</ele>
        <time>2021-08-20T05:39:24Z</time>
      </trkpt>
      <trkpt lat="43.13593" lon="-0.47768">
        <ele>348.13</ele>
        <time>2021-08-20T05:39:25Z</time>
      </trkpt>
      <trkpt lat="43.13587" lon="-0.47771">
        <ele>348.13</ele>
        <time>2021-08-20T05:39:26Z</time>
      </trkpt>
      <trkpt lat="43.13581" lon="-0.47774">
        <ele>347.65</ele>
        <time>2021-08-20T05:39:27Z</time>
      </trkpt>
      <trkpt lat="43.13576" lon="-0.47779">
        <ele>347.65</ele>
        <time>2021-08-20T05:39:28Z</time>
      </trkpt>
      <trkpt lat="43.13572" lon="-0.47785">
        <ele>347.65</ele>
        <time>2021-08-20T05:39:29Z</time>
      </trkpt>
      <trkpt lat="43.13568" lon="-0.47792">
        <ele>347.17</ele>
        <time>2021-08-20T05:39:30Z</time>
      </trkpt>
      <trkpt lat="43.13565" lon="-0.47798">
        <ele>347.17</ele>
        <time>2021-08-20T05:39:31Z</time>
      </trkpt>
      <trkpt lat="43.13561" lon="-0.47806">
        <ele>347.17</ele>
        <time>2021-08-20T05:39:32Z</time>
      </trkpt>
      <trkpt lat="43.13538" lon="-0.4785">
        <ele>346.69</ele>
        <time>2021-08-20T05:39:39Z</time>
      </trkpt>
      <trkpt lat="43.13536" lon="-0.47857">
        <ele>346.69</ele>
        <time>2021-08-20T05:39:40Z</time>
      </trkpt>
      <trkpt lat="43.13537" lon="-0.47864">
        <ele>346.69</ele>
        <time>2021-08-20T05:39:41Z</time>
      </trkpt>
      <trkpt lat="43.13538" lon="-0.47871">
        <ele>346.69</ele>
        <time>2021-08-20T05:39:42Z</time>
      </trkpt>
      <trkpt lat="43.13541" lon="-0.47877">
        <ele>346.69</ele>
        <time>2021-08-20T05:39:43Z</time>
      </trkpt>
      <trkpt lat="43.13544" lon="-0.47883">
        <ele>346.69</ele>
        <time>2021-08-20T05:39:44Z</time>
      </trkpt>
      <trkpt lat="43.13546" lon="-0.4789">
        <ele>346.69</ele>
        <time>2021-08-20T05:39:45Z</time>
      </trkpt>
      <trkpt lat="43.13549" lon="-0.47896">
        <ele>346.69</ele>
        <time>2021-08-20T05:39:46Z</time>
      </trkpt>
      <trkpt lat="43.13569" lon="-0.47949">
        <ele>346.69</ele>
        <time>2021-08-20T05:39:54Z</time>
      </trkpt>
      <trkpt lat="43.13586" lon="-0.48003">
        <ele>348.13</ele>
        <time>2021-08-20T05:40:03Z</time>
      </trkpt>
      <trkpt lat="43.13596" lon="-0.48032">
        <ele>349.1</ele>
        <time>2021-08-20T05:40:10Z</time>
      </trkpt>
      <trkpt lat="43.13602" lon="-0.48051">
        <ele>349.1</ele>
        <time>2021-08-20T05:40:16Z</time>
      </trkpt>
      <trkpt lat="43.13604" lon="-0.48074">
        <ele>349.1</ele>
        <time>2021-08-20T05:40:21Z</time>
      </trkpt>
      <trkpt lat="43.13605" lon="-0.48107">
        <ele>349.1</ele>
        <time>2021-08-20T05:40:28Z</time>
      </trkpt>
      <trkpt lat="43.13604" lon="-0.48136">
        <ele>349.1</ele>
        <time>2021-08-20T05:40:34Z</time>
      </trkpt>
      <trkpt lat="43.13604" lon="-0.48155">
        <ele>349.1</ele>
        <time>2021-08-20T05:40:37Z</time>
      </trkpt>
      <trkpt lat="43.13603" lon="-0.48161">
        <ele>349.1</ele>
        <time>2021-08-20T05:40:38Z</time>
      </trkpt>
      <trkpt lat="43.13602" lon="-0.48167">
        <ele>349.1</ele>
        <time>2021-08-20T05:40:39Z</time>
      </trkpt>
      <trkpt lat="43.13593" lon="-0.4822">
        <ele>349.1</ele>
        <time>2021-08-20T05:40:48Z</time>
      </trkpt>
      <trkpt lat="43.13594" lon="-0.48245">
        <ele>347.65</ele>
        <time>2021-08-20T05:40:52Z</time>
      </trkpt>
      <trkpt lat="43.13596" lon="-0.48251">
        <ele>347.65</ele>
        <time>2021-08-20T05:40:53Z</time>
      </trkpt>
      <trkpt lat="43.13597" lon="-0.48256">
        <ele>347.65</ele>
        <time>2021-08-20T05:40:54Z</time>
      </trkpt>
      <trkpt lat="43.136" lon="-0.4826">
        <ele>347.65</ele>
        <time>2021-08-20T05:40:55Z</time>
      </trkpt>
      <trkpt lat="43.13603" lon="-0.48264">
        <ele>347.65</ele>
        <time>2021-08-20T05:40:56Z</time>
      </trkpt>
      <trkpt lat="43.13607" lon="-0.48266">
        <ele>347.65</ele>
        <time>2021-08-20T05:40:57Z</time>
      </trkpt>
      <trkpt lat="43.1361" lon="-0.48269">
        <ele>347.65</ele>
        <time>2021-08-20T05:40:58Z</time>
      </trkpt>
      <trkpt lat="43.13618" lon="-0.48274">
        <ele>347.65</ele>
        <time>2021-08-20T05:41:00Z</time>
      </trkpt>
      <trkpt lat="43.13634" lon="-0.48287">
        <ele>347.65</ele>
        <time>2021-08-20T05:41:04Z</time>
      </trkpt>
      <trkpt lat="43.13658" lon="-0.48323">
        <ele>349.1</ele>
        <time>2021-08-20T05:41:12Z</time>
      </trkpt>
      <trkpt lat="43.13663" lon="-0.48332">
        <ele>349.1</ele>
        <time>2021-08-20T05:41:14Z</time>
      </trkpt>
      <trkpt lat="43.13665" lon="-0.48338">
        <ele>349.1</ele>
        <time>2021-08-20T05:41:15Z</time>
      </trkpt>
      <trkpt lat="43.13679" lon="-0.48375">
        <ele>349.58</ele>
        <time>2021-08-20T05:41:22Z</time>
      </trkpt>
      <trkpt lat="43.13682" lon="-0.48382">
        <ele>349.58</ele>
        <time>2021-08-20T05:41:23Z</time>
      </trkpt>
      <trkpt lat="43.13683" lon="-0.48389">
        <ele>349.58</ele>
        <time>2021-08-20T05:41:24Z</time>
      </trkpt>
      <trkpt lat="43.13685" lon="-0.48395">
        <ele>349.58</ele>
        <time>2021-08-20T05:41:25Z</time>
      </trkpt>
      <trkpt lat="43.13694" lon="-0.48435">
        <ele>349.58</ele>
        <time>2021-08-20T05:41:31Z</time>
      </trkpt>
      <trkpt lat="43.13695" lon="-0.48441">
        <ele>349.58</ele>
        <time>2021-08-20T05:41:32Z</time>
      </trkpt>
      <trkpt lat="43.13713" lon="-0.48496">
        <ele>348.13</ele>
        <time>2021-08-20T05:41:40Z</time>
      </trkpt>
      <trkpt lat="43.13717" lon="-0.48502">
        <ele>348.13</ele>
        <time>2021-08-20T05:41:41Z</time>
      </trkpt>
      <trkpt lat="43.13721" lon="-0.48508">
        <ele>347.65</ele>
        <time>2021-08-20T05:41:42Z</time>
      </trkpt>
      <trkpt lat="43.13724" lon="-0.48514">
        <ele>347.65</ele>
        <time>2021-08-20T05:41:43Z</time>
      </trkpt>
      <trkpt lat="43.13728" lon="-0.48521">
        <ele>347.65</ele>
        <time>2021-08-20T05:41:44Z</time>
      </trkpt>
      <trkpt lat="43.1373" lon="-0.48528">
        <ele>347.65</ele>
        <time>2021-08-20T05:41:45Z</time>
      </trkpt>
      <trkpt lat="43.13731" lon="-0.48535">
        <ele>347.65</ele>
        <time>2021-08-20T05:41:46Z</time>
      </trkpt>
      <trkpt lat="43.13738" lon="-0.48579">
        <ele>347.17</ele>
        <time>2021-08-20T05:41:52Z</time>
      </trkpt>
      <trkpt lat="43.13741" lon="-0.486">
        <ele>347.17</ele>
        <time>2021-08-20T05:41:55Z</time>
      </trkpt>
      <trkpt lat="43.13742" lon="-0.48608">
        <ele>347.17</ele>
        <time>2021-08-20T05:41:56Z</time>
      </trkpt>
      <trkpt lat="43.13743" lon="-0.48615">
        <ele>347.17</ele>
        <time>2021-08-20T05:41:57Z</time>
      </trkpt>
      <trkpt lat="43.13744" lon="-0.48623">
        <ele>347.17</ele>
        <time>2021-08-20T05:41:58Z</time>
      </trkpt>
      <trkpt lat="43.13744" lon="-0.4863">
        <ele>346.69</ele>
        <time>2021-08-20T05:41:59Z</time>
      </trkpt>
      <trkpt lat="43.13748" lon="-0.4866">
        <ele>346.21</ele>
        <time>2021-08-20T05:42:03Z</time>
      </trkpt>
      <trkpt lat="43.13751" lon="-0.48664">
        <ele>346.21</ele>
        <time>2021-08-20T05:42:04Z</time>
      </trkpt>
      <trkpt lat="43.13755" lon="-0.48667">
        <ele>346.21</ele>
        <time>2021-08-20T05:42:05Z</time>
      </trkpt>
      <trkpt lat="43.13759" lon="-0.48668">
        <ele>346.21</ele>
        <time>2021-08-20T05:42:06Z</time>
      </trkpt>
      <trkpt lat="43.13763" lon="-0.48669">
        <ele>346.21</ele>
        <time>2021-08-20T05:42:07Z</time>
      </trkpt>
      <trkpt lat="43.13768" lon="-0.48668">
        <ele>346.21</ele>
        <time>2021-08-20T05:42:08Z</time>
      </trkpt>
      <trkpt lat="43.13772" lon="-0.48667">
        <ele>346.21</ele>
        <time>2021-08-20T05:42:09Z</time>
      </trkpt>
      <trkpt lat="43.13803" lon="-0.4865">
        <ele>345.25</ele>
        <time>2021-08-20T05:42:15Z</time>
      </trkpt>
      <trkpt lat="43.13808" lon="-0.48646">
        <ele>345.25</ele>
        <time>2021-08-20T05:42:16Z</time>
      </trkpt>
      <trkpt lat="43.13812" lon="-0.48644">
        <ele>345.25</ele>
        <time>2021-08-20T05:42:17Z</time>
      </trkpt>
      <trkpt lat="43.13816" lon="-0.48645">
        <ele>345.25</ele>
        <time>2021-08-20T05:42:18Z</time>
      </trkpt>
      <trkpt lat="43.1382" lon="-0.48648">
        <ele>345.25</ele>
        <time>2021-08-20T05:42:19Z</time>
      </trkpt>
      <trkpt lat="43.13823" lon="-0.48653">
        <ele>345.25</ele>
        <time>2021-08-20T05:42:20Z</time>
      </trkpt>
      <trkpt lat="43.13824" lon="-0.48658">
        <ele>345.25</ele>
        <time>2021-08-20T05:42:21Z</time>
      </trkpt>
      <trkpt lat="43.13826" lon="-0.48664">
        <ele>345.25</ele>
        <time>2021-08-20T05:42:22Z</time>
      </trkpt>
      <trkpt lat="43.13828" lon="-0.4867">
        <ele>345.25</ele>
        <time>2021-08-20T05:42:23Z</time>
      </trkpt>
      <trkpt lat="43.1383" lon="-0.48677">
        <ele>345.25</ele>
        <time>2021-08-20T05:42:24Z</time>
      </trkpt>
      <trkpt lat="43.13832" lon="-0.48683">
        <ele>345.25</ele>
        <time>2021-08-20T05:42:25Z</time>
      </trkpt>
      <trkpt lat="43.13834" lon="-0.4869">
        <ele>345.25</ele>
        <time>2021-08-20T05:42:26Z</time>
      </trkpt>
      <trkpt lat="43.13852" lon="-0.48731">
        <ele>345.25</ele>
        <time>2021-08-20T05:42:33Z</time>
      </trkpt>
      <trkpt lat="43.13869" lon="-0.4877">
        <ele>344.29</ele>
        <time>2021-08-20T05:42:40Z</time>
      </trkpt>
      <trkpt lat="43.13873" lon="-0.48775">
        <ele>344.29</ele>
        <time>2021-08-20T05:42:41Z</time>
      </trkpt>
      <trkpt lat="43.13876" lon="-0.48781">
        <ele>344.29</ele>
        <time>2021-08-20T05:42:42Z</time>
      </trkpt>
      <trkpt lat="43.1388" lon="-0.48786">
        <ele>344.29</ele>
        <time>2021-08-20T05:42:43Z</time>
      </trkpt>
      <trkpt lat="43.13883" lon="-0.48791">
        <ele>344.29</ele>
        <time>2021-08-20T05:42:44Z</time>
      </trkpt>
      <trkpt lat="43.13887" lon="-0.48796">
        <ele>343.81</ele>
        <time>2021-08-20T05:42:45Z</time>
      </trkpt>
      <trkpt lat="43.13891" lon="-0.48803">
        <ele>343.81</ele>
        <time>2021-08-20T05:42:46Z</time>
      </trkpt>
      <trkpt lat="43.1392" lon="-0.48843">
        <ele>343.81</ele>
        <time>2021-08-20T05:42:53Z</time>
      </trkpt>
      <trkpt lat="43.13945" lon="-0.48879">
        <ele>343.33</ele>
        <time>2021-08-20T05:43:00Z</time>
      </trkpt>
      <trkpt lat="43.13948" lon="-0.48885">
        <ele>343.33</ele>
        <time>2021-08-20T05:43:01Z</time>
      </trkpt>
      <trkpt lat="43.13956" lon="-0.48896">
        <ele>343.33</ele>
        <time>2021-08-20T05:43:03Z</time>
      </trkpt>
      <trkpt lat="43.13959" lon="-0.48903">
        <ele>342.85</ele>
        <time>2021-08-20T05:43:04Z</time>
      </trkpt>
      <trkpt lat="43.13979" lon="-0.48947">
        <ele>342.37</ele>
        <time>2021-08-20T05:43:11Z</time>
      </trkpt>
      <trkpt lat="43.1399" lon="-0.48974">
        <ele>342.37</ele>
        <time>2021-08-20T05:43:15Z</time>
      </trkpt>
      <trkpt lat="43.13992" lon="-0.48981">
        <ele>342.37</ele>
        <time>2021-08-20T05:43:16Z</time>
      </trkpt>
      <trkpt lat="43.13994" lon="-0.48988">
        <ele>342.37</ele>
        <time>2021-08-20T05:43:17Z</time>
      </trkpt>
      <trkpt lat="43.14015" lon="-0.4904">
        <ele>341.89</ele>
        <time>2021-08-20T05:43:25Z</time>
      </trkpt>
      <trkpt lat="43.14022" lon="-0.49052">
        <ele>341.41</ele>
        <time>2021-08-20T05:43:27Z</time>
      </trkpt>
      <trkpt lat="43.14059" lon="-0.49099">
        <ele>340.92</ele>
        <time>2021-08-20T05:43:36Z</time>
      </trkpt>
      <trkpt lat="43.14095" lon="-0.49155">
        <ele>339.96</ele>
        <time>2021-08-20T05:43:45Z</time>
      </trkpt>
      <trkpt lat="43.14119" lon="-0.49215">
        <ele>339.48</ele>
        <time>2021-08-20T05:43:53Z</time>
      </trkpt>
      <trkpt lat="43.14142" lon="-0.49262">
        <ele>338.52</ele>
        <time>2021-08-20T05:43:59Z</time>
      </trkpt>
      <trkpt lat="43.14147" lon="-0.49268">
        <ele>338.52</ele>
        <time>2021-08-20T05:44:00Z</time>
      </trkpt>
      <trkpt lat="43.14183" lon="-0.49313">
        <ele>338.04</ele>
        <time>2021-08-20T05:44:07Z</time>
      </trkpt>
      <trkpt lat="43.14219" lon="-0.4936">
        <ele>337.08</ele>
        <time>2021-08-20T05:44:14Z</time>
      </trkpt>
      <trkpt lat="43.14235" lon="-0.49377">
        <ele>337.08</ele>
        <time>2021-08-20T05:44:17Z</time>
      </trkpt>
      <trkpt lat="43.1424" lon="-0.49384">
        <ele>337.08</ele>
        <time>2021-08-20T05:44:18Z</time>
      </trkpt>
      <trkpt lat="43.14244" lon="-0.49391">
        <ele>337.08</ele>
        <time>2021-08-20T05:44:19Z</time>
      </trkpt>
      <trkpt lat="43.14248" lon="-0.49399">
        <ele>337.08</ele>
        <time>2021-08-20T05:44:20Z</time>
      </trkpt>
      <trkpt lat="43.14252" lon="-0.49406">
        <ele>336.6</ele>
        <time>2021-08-20T05:44:21Z</time>
      </trkpt>
      <trkpt lat="43.14264" lon="-0.49429">
        <ele>336.12</ele>
        <time>2021-08-20T05:44:24Z</time>
      </trkpt>
      <trkpt lat="43.14269" lon="-0.49436">
        <ele>336.12</ele>
        <time>2021-08-20T05:44:25Z</time>
      </trkpt>
      <trkpt lat="43.14274" lon="-0.49441">
        <ele>336.12</ele>
        <time>2021-08-20T05:44:26Z</time>
      </trkpt>
      <trkpt lat="43.14295" lon="-0.4946">
        <ele>336.12</ele>
        <time>2021-08-20T05:44:30Z</time>
      </trkpt>
      <trkpt lat="43.14309" lon="-0.49479">
        <ele>336.12</ele>
        <time>2021-08-20T05:44:33Z</time>
      </trkpt>
      <trkpt lat="43.14338" lon="-0.4954">
        <ele>335.64</ele>
        <time>2021-08-20T05:44:41Z</time>
      </trkpt>
      <trkpt lat="43.14346" lon="-0.49555">
        <ele>335.16</ele>
        <time>2021-08-20T05:44:43Z</time>
      </trkpt>
      <trkpt lat="43.14349" lon="-0.49565">
        <ele>335.16</ele>
        <time>2021-08-20T05:44:44Z</time>
      </trkpt>
      <trkpt lat="43.14363" lon="-0.49608">
        <ele>334.68</ele>
        <time>2021-08-20T05:44:49Z</time>
      </trkpt>
      <trkpt lat="43.14366" lon="-0.49616">
        <ele>334.68</ele>
        <time>2021-08-20T05:44:50Z</time>
      </trkpt>
      <trkpt lat="43.1437" lon="-0.49622">
        <ele>334.68</ele>
        <time>2021-08-20T05:44:51Z</time>
      </trkpt>
      <trkpt lat="43.14376" lon="-0.49628">
        <ele>334.68</ele>
        <time>2021-08-20T05:44:52Z</time>
      </trkpt>
      <trkpt lat="43.14381" lon="-0.49633">
        <ele>334.68</ele>
        <time>2021-08-20T05:44:53Z</time>
      </trkpt>
      <trkpt lat="43.14413" lon="-0.49678">
        <ele>334.2</ele>
        <time>2021-08-20T05:45:00Z</time>
      </trkpt>
      <trkpt lat="43.14444" lon="-0.4975">
        <ele>333.71</ele>
        <time>2021-08-20T05:45:09Z</time>
      </trkpt>
      <trkpt lat="43.14468" lon="-0.49791">
        <ele>333.23</ele>
        <time>2021-08-20T05:45:15Z</time>
      </trkpt>
      <trkpt lat="43.14483" lon="-0.49806">
        <ele>332.27</ele>
        <time>2021-08-20T05:45:18Z</time>
      </trkpt>
      <trkpt lat="43.14495" lon="-0.49816">
        <ele>331.79</ele>
        <time>2021-08-20T05:45:20Z</time>
      </trkpt>
      <trkpt lat="43.145" lon="-0.49822">
        <ele>331.79</ele>
        <time>2021-08-20T05:45:21Z</time>
      </trkpt>
      <trkpt lat="43.14504" lon="-0.49829">
        <ele>331.79</ele>
        <time>2021-08-20T05:45:22Z</time>
      </trkpt>
      <trkpt lat="43.14507" lon="-0.49837">
        <ele>331.31</ele>
        <time>2021-08-20T05:45:23Z</time>
      </trkpt>
      <trkpt lat="43.1451" lon="-0.49845">
        <ele>331.31</ele>
        <time>2021-08-20T05:45:24Z</time>
      </trkpt>
      <trkpt lat="43.14511" lon="-0.49854">
        <ele>331.31</ele>
        <time>2021-08-20T05:45:25Z</time>
      </trkpt>
      <trkpt lat="43.14512" lon="-0.49864">
        <ele>331.31</ele>
        <time>2021-08-20T05:45:26Z</time>
      </trkpt>
      <trkpt lat="43.14525" lon="-0.49928">
        <ele>330.35</ele>
        <time>2021-08-20T05:45:33Z</time>
      </trkpt>
      <trkpt lat="43.14559" lon="-0.50015">
        <ele>329.87</ele>
        <time>2021-08-20T05:45:43Z</time>
      </trkpt>
      <trkpt lat="43.14573" lon="-0.5005">
        <ele>328.91</ele>
        <time>2021-08-20T05:45:47Z</time>
      </trkpt>
      <trkpt lat="43.14575" lon="-0.50059">
        <ele>328.91</ele>
        <time>2021-08-20T05:45:48Z</time>
      </trkpt>
      <trkpt lat="43.14577" lon="-0.50068">
        <ele>328.91</ele>
        <time>2021-08-20T05:45:49Z</time>
      </trkpt>
      <trkpt lat="43.14592" lon="-0.50137">
        <ele>328.91</ele>
        <time>2021-08-20T05:45:57Z</time>
      </trkpt>
      <trkpt lat="43.14608" lon="-0.50194">
        <ele>328.43</ele>
        <time>2021-08-20T05:46:04Z</time>
      </trkpt>
      <trkpt lat="43.14632" lon="-0.50249">
        <ele>327.47</ele>
        <time>2021-08-20T05:46:11Z</time>
      </trkpt>
      <trkpt lat="43.14644" lon="-0.50272">
        <ele>326.5</ele>
        <time>2021-08-20T05:46:14Z</time>
      </trkpt>
      <trkpt lat="43.14648" lon="-0.50277">
        <ele>326.5</ele>
        <time>2021-08-20T05:46:15Z</time>
      </trkpt>
      <trkpt lat="43.14652" lon="-0.50282">
        <ele>326.5</ele>
        <time>2021-08-20T05:46:16Z</time>
      </trkpt>
      <trkpt lat="43.14656" lon="-0.50286">
        <ele>326.5</ele>
        <time>2021-08-20T05:46:17Z</time>
      </trkpt>
      <trkpt lat="43.1466" lon="-0.5029">
        <ele>326.5</ele>
        <time>2021-08-20T05:46:18Z</time>
      </trkpt>
      <trkpt lat="43.14664" lon="-0.50294">
        <ele>326.5</ele>
        <time>2021-08-20T05:46:19Z</time>
      </trkpt>
      <trkpt lat="43.14667" lon="-0.50299">
        <ele>326.5</ele>
        <time>2021-08-20T05:46:20Z</time>
      </trkpt>
      <trkpt lat="43.14694" lon="-0.50342">
        <ele>326.02</ele>
        <time>2021-08-20T05:46:27Z</time>
      </trkpt>
      <trkpt lat="43.14696" lon="-0.50348">
        <ele>326.02</ele>
        <time>2021-08-20T05:46:28Z</time>
      </trkpt>
      <trkpt lat="43.14698" lon="-0.50356">
        <ele>326.02</ele>
        <time>2021-08-20T05:46:29Z</time>
      </trkpt>
      <trkpt lat="43.147" lon="-0.50362">
        <ele>326.02</ele>
        <time>2021-08-20T05:46:30Z</time>
      </trkpt>
      <trkpt lat="43.14701" lon="-0.50369">
        <ele>326.02</ele>
        <time>2021-08-20T05:46:31Z</time>
      </trkpt>
      <trkpt lat="43.14705" lon="-0.50391">
        <ele>326.02</ele>
        <time>2021-08-20T05:46:34Z</time>
      </trkpt>
      <trkpt lat="43.14707" lon="-0.50398">
        <ele>326.02</ele>
        <time>2021-08-20T05:46:35Z</time>
      </trkpt>
      <trkpt lat="43.14723" lon="-0.50454">
        <ele>326.02</ele>
        <time>2021-08-20T05:46:43Z</time>
      </trkpt>
      <trkpt lat="43.14724" lon="-0.50462">
        <ele>326.02</ele>
        <time>2021-08-20T05:46:44Z</time>
      </trkpt>
      <trkpt lat="43.14725" lon="-0.50477">
        <ele>326.02</ele>
        <time>2021-08-20T05:46:46Z</time>
      </trkpt>
      <trkpt lat="43.14725" lon="-0.50484">
        <ele>326.02</ele>
        <time>2021-08-20T05:46:47Z</time>
      </trkpt>
      <trkpt lat="43.14725" lon="-0.50492">
        <ele>326.02</ele>
        <time>2021-08-20T05:46:48Z</time>
      </trkpt>
      <trkpt lat="43.14723" lon="-0.50536">
        <ele>326.02</ele>
        <time>2021-08-20T05:46:55Z</time>
      </trkpt>
      <trkpt lat="43.14718" lon="-0.5055">
        <ele>326.02</ele>
        <time>2021-08-20T05:46:58Z</time>
      </trkpt>
      <trkpt lat="43.14714" lon="-0.50552">
        <ele>326.02</ele>
        <time>2021-08-20T05:46:59Z</time>
      </trkpt>
      <trkpt lat="43.14688" lon="-0.50569">
        <ele>326.02</ele>
        <time>2021-08-20T05:47:06Z</time>
      </trkpt>
      <trkpt lat="43.14661" lon="-0.50603">
        <ele>326.02</ele>
        <time>2021-08-20T05:47:14Z</time>
      </trkpt>
      <trkpt lat="43.14641" lon="-0.50629">
        <ele>326.02</ele>
        <time>2021-08-20T05:47:20Z</time>
      </trkpt>
      <trkpt lat="43.14638" lon="-0.50634">
        <ele>326.02</ele>
        <time>2021-08-20T05:47:21Z</time>
      </trkpt>
      <trkpt lat="43.14636" lon="-0.50639">
        <ele>326.02</ele>
        <time>2021-08-20T05:47:22Z</time>
      </trkpt>
      <trkpt lat="43.14629" lon="-0.50663">
        <ele>327.47</ele>
        <time>2021-08-20T05:47:27Z</time>
      </trkpt>
      <trkpt lat="43.14626" lon="-0.50676">
        <ele>326.02</ele>
        <time>2021-08-20T05:47:29Z</time>
      </trkpt>
      <trkpt lat="43.14619" lon="-0.50696">
        <ele>325.54</ele>
        <time>2021-08-20T05:47:32Z</time>
      </trkpt>
      <trkpt lat="43.14616" lon="-0.50702">
        <ele>325.54</ele>
        <time>2021-08-20T05:47:33Z</time>
      </trkpt>
      <trkpt lat="43.14613" lon="-0.50707">
        <ele>325.54</ele>
        <time>2021-08-20T05:47:34Z</time>
      </trkpt>
      <trkpt lat="43.14604" lon="-0.50715">
        <ele>325.54</ele>
        <time>2021-08-20T05:47:36Z</time>
      </trkpt>
      <trkpt lat="43.14573" lon="-0.50741">
        <ele>325.54</ele>
        <time>2021-08-20T05:47:44Z</time>
      </trkpt>
      <trkpt lat="43.1454" lon="-0.50759">
        <ele>325.54</ele>
        <time>2021-08-20T05:47:52Z</time>
      </trkpt>
      <trkpt lat="43.14536" lon="-0.5076">
        <ele>325.54</ele>
        <time>2021-08-20T05:47:53Z</time>
      </trkpt>
      <trkpt lat="43.14531" lon="-0.50761">
        <ele>325.54</ele>
        <time>2021-08-20T05:47:54Z</time>
      </trkpt>
      <trkpt lat="43.14522" lon="-0.5076">
        <ele>325.54</ele>
        <time>2021-08-20T05:47:56Z</time>
      </trkpt>
      <trkpt lat="43.14518" lon="-0.50758">
        <ele>325.54</ele>
        <time>2021-08-20T05:47:57Z</time>
      </trkpt>
      <trkpt lat="43.14488" lon="-0.5074">
        <ele>327.47</ele>
        <time>2021-08-20T05:48:05Z</time>
      </trkpt>
      <trkpt lat="43.14468" lon="-0.5072">
        <ele>327.95</ele>
        <time>2021-08-20T05:48:13Z</time>
      </trkpt>
      <trkpt lat="43.14453" lon="-0.50711">
        <ele>328.43</ele>
        <time>2021-08-20T05:48:19Z</time>
      </trkpt>
      <trkpt lat="43.14434" lon="-0.50713">
        <ele>329.87</ele>
        <time>2021-08-20T05:48:26Z</time>
      </trkpt>
      <trkpt lat="43.14421" lon="-0.50727">
        <ele>330.35</ele>
        <time>2021-08-20T05:48:33Z</time>
      </trkpt>
      <trkpt lat="43.14413" lon="-0.50742">
        <ele>331.79</ele>
        <time>2021-08-20T05:48:40Z</time>
      </trkpt>
      <trkpt lat="43.14412" lon="-0.50753">
        <ele>332.27</ele>
        <time>2021-08-20T05:48:45Z</time>
      </trkpt>
      <trkpt lat="43.14411" lon="-0.50755">
        <ele>332.75</ele>
        <time>2021-08-20T05:48:46Z</time>
      </trkpt>
      <trkpt lat="43.14406" lon="-0.5077">
        <ele>333.71</ele>
        <time>2021-08-20T05:48:54Z</time>
      </trkpt>
      <trkpt lat="43.14406" lon="-0.50778">
        <ele>334.2</ele>
        <time>2021-08-20T05:48:58Z</time>
      </trkpt>
      <trkpt lat="43.14402" lon="-0.50797">
        <ele>335.16</ele>
        <time>2021-08-20T05:49:06Z</time>
      </trkpt>
      <trkpt lat="43.144" lon="-0.50812">
        <ele>336.12</ele>
        <time>2021-08-20T05:49:12Z</time>
      </trkpt>
      <trkpt lat="43.14399" lon="-0.50814">
        <ele>336.12</ele>
        <time>2021-08-20T05:49:13Z</time>
      </trkpt>
      <trkpt lat="43.14395" lon="-0.50837">
        <ele>338.04</ele>
        <time>2021-08-20T05:49:24Z</time>
      </trkpt>
      <trkpt lat="43.14391" lon="-0.5086">
        <ele>339.48</ele>
        <time>2021-08-20T05:49:34Z</time>
      </trkpt>
      <trkpt lat="43.1439" lon="-0.50878">
        <ele>340.92</ele>
        <time>2021-08-20T05:49:43Z</time>
      </trkpt>
      <trkpt lat="43.14388" lon="-0.50899">
        <ele>342.37</ele>
        <time>2021-08-20T05:49:52Z</time>
      </trkpt>
      <trkpt lat="43.14383" lon="-0.50928">
        <ele>345.25</ele>
        <time>2021-08-20T05:50:03Z</time>
      </trkpt>
      <trkpt lat="43.14378" lon="-0.50946">
        <ele>346.69</ele>
        <time>2021-08-20T05:50:10Z</time>
      </trkpt>
      <trkpt lat="43.14375" lon="-0.50966">
        <ele>348.13</ele>
        <time>2021-08-20T05:50:19Z</time>
      </trkpt>
      <trkpt lat="43.14372" lon="-0.50984">
        <ele>349.58</ele>
        <time>2021-08-20T05:50:28Z</time>
      </trkpt>
      <trkpt lat="43.14367" lon="-0.51006">
        <ele>350.54</ele>
        <time>2021-08-20T05:50:36Z</time>
      </trkpt>
      <trkpt lat="43.14358" lon="-0.5103">
        <ele>351.5</ele>
        <time>2021-08-20T05:50:44Z</time>
      </trkpt>
      <trkpt lat="43.14343" lon="-0.51064">
        <ele>351.98</ele>
        <time>2021-08-20T05:50:53Z</time>
      </trkpt>
      <trkpt lat="43.14325" lon="-0.51098">
        <ele>352.46</ele>
        <time>2021-08-20T05:51:00Z</time>
      </trkpt>
      <trkpt lat="43.14304" lon="-0.51141">
        <ele>353.42</ele>
        <time>2021-08-20T05:51:09Z</time>
      </trkpt>
      <trkpt lat="43.14288" lon="-0.51168">
        <ele>354.38</ele>
        <time>2021-08-20T05:51:16Z</time>
      </trkpt>
      <trkpt lat="43.14285" lon="-0.51174">
        <ele>354.38</ele>
        <time>2021-08-20T05:51:17Z</time>
      </trkpt>
      <trkpt lat="43.1428" lon="-0.51188">
        <ele>352.46</ele>
        <time>2021-08-20T05:51:19Z</time>
      </trkpt>
      <trkpt lat="43.14278" lon="-0.51195">
        <ele>352.46</ele>
        <time>2021-08-20T05:51:20Z</time>
      </trkpt>
      <trkpt lat="43.14277" lon="-0.51205">
        <ele>351.5</ele>
        <time>2021-08-20T05:51:21Z</time>
      </trkpt>
      <trkpt lat="43.14277" lon="-0.51214">
        <ele>351.5</ele>
        <time>2021-08-20T05:51:22Z</time>
      </trkpt>
      <trkpt lat="43.14277" lon="-0.51223">
        <ele>351.5</ele>
        <time>2021-08-20T05:51:23Z</time>
      </trkpt>
      <trkpt lat="43.14277" lon="-0.51232">
        <ele>351.02</ele>
        <time>2021-08-20T05:51:24Z</time>
      </trkpt>
      <trkpt lat="43.14278" lon="-0.51241">
        <ele>351.02</ele>
        <time>2021-08-20T05:51:25Z</time>
      </trkpt>
      <trkpt lat="43.14279" lon="-0.51248">
        <ele>351.02</ele>
        <time>2021-08-20T05:51:26Z</time>
      </trkpt>
      <trkpt lat="43.1428" lon="-0.51256">
        <ele>351.02</ele>
        <time>2021-08-20T05:51:27Z</time>
      </trkpt>
      <trkpt lat="43.14282" lon="-0.51292">
        <ele>351.02</ele>
        <time>2021-08-20T05:51:32Z</time>
      </trkpt>
      <trkpt lat="43.14283" lon="-0.51298">
        <ele>351.02</ele>
        <time>2021-08-20T05:51:33Z</time>
      </trkpt>
      <trkpt lat="43.14288" lon="-0.51326">
        <ele>351.02</ele>
        <time>2021-08-20T05:51:37Z</time>
      </trkpt>
      <trkpt lat="43.14303" lon="-0.51379">
        <ele>351.02</ele>
        <time>2021-08-20T05:51:44Z</time>
      </trkpt>
      <trkpt lat="43.14319" lon="-0.51433">
        <ele>351.02</ele>
        <time>2021-08-20T05:51:51Z</time>
      </trkpt>
      <trkpt lat="43.14337" lon="-0.51484">
        <ele>351.02</ele>
        <time>2021-08-20T05:51:59Z</time>
      </trkpt>
      <trkpt lat="43.1436" lon="-0.51529">
        <ele>351.02</ele>
        <time>2021-08-20T05:52:06Z</time>
      </trkpt>
      <trkpt lat="43.14381" lon="-0.51558">
        <ele>350.54</ele>
        <time>2021-08-20T05:52:11Z</time>
      </trkpt>
      <trkpt lat="43.14416" lon="-0.5161">
        <ele>350.54</ele>
        <time>2021-08-20T05:52:20Z</time>
      </trkpt>
      <trkpt lat="43.14457" lon="-0.51678">
        <ele>349.58</ele>
        <time>2021-08-20T05:52:30Z</time>
      </trkpt>
      <trkpt lat="43.14485" lon="-0.51737">
        <ele>349.1</ele>
        <time>2021-08-20T05:52:38Z</time>
      </trkpt>
      <trkpt lat="43.14512" lon="-0.51803">
        <ele>349.1</ele>
        <time>2021-08-20T05:52:47Z</time>
      </trkpt>
      <trkpt lat="43.14539" lon="-0.51847">
        <ele>347.17</ele>
        <time>2021-08-20T05:52:53Z</time>
      </trkpt>
      <trkpt lat="43.14556" lon="-0.51864">
        <ele>346.69</ele>
        <time>2021-08-20T05:52:56Z</time>
      </trkpt>
      <trkpt lat="43.14563" lon="-0.51868">
        <ele>346.21</ele>
        <time>2021-08-20T05:52:57Z</time>
      </trkpt>
      <trkpt lat="43.1457" lon="-0.51871">
        <ele>345.73</ele>
        <time>2021-08-20T05:52:58Z</time>
      </trkpt>
      <trkpt lat="43.14618" lon="-0.51888">
        <ele>345.25</ele>
        <time>2021-08-20T05:53:05Z</time>
      </trkpt>
      <trkpt lat="43.1464" lon="-0.51901">
        <ele>345.25</ele>
        <time>2021-08-20T05:53:09Z</time>
      </trkpt>
      <trkpt lat="43.14645" lon="-0.51905">
        <ele>345.25</ele>
        <time>2021-08-20T05:53:10Z</time>
      </trkpt>
      <trkpt lat="43.14681" lon="-0.51944">
        <ele>345.25</ele>
        <time>2021-08-20T05:53:18Z</time>
      </trkpt>
      <trkpt lat="43.14689" lon="-0.51955">
        <ele>346.69</ele>
        <time>2021-08-20T05:53:20Z</time>
      </trkpt>
      <trkpt lat="43.14711" lon="-0.51986">
        <ele>347.17</ele>
        <time>2021-08-20T05:53:26Z</time>
      </trkpt>
      <trkpt lat="43.14714" lon="-0.51991">
        <ele>347.17</ele>
        <time>2021-08-20T05:53:27Z</time>
      </trkpt>
      <trkpt lat="43.14718" lon="-0.52003">
        <ele>347.17</ele>
        <time>2021-08-20T05:53:29Z</time>
      </trkpt>
      <trkpt lat="43.14719" lon="-0.52009">
        <ele>347.17</ele>
        <time>2021-08-20T05:53:30Z</time>
      </trkpt>
      <trkpt lat="43.1472" lon="-0.52015">
        <ele>347.17</ele>
        <time>2021-08-20T05:53:31Z</time>
      </trkpt>
      <trkpt lat="43.1472" lon="-0.52021">
        <ele>347.17</ele>
        <time>2021-08-20T05:53:32Z</time>
      </trkpt>
      <trkpt lat="43.1472" lon="-0.52027">
        <ele>347.17</ele>
        <time>2021-08-20T05:53:33Z</time>
      </trkpt>
      <trkpt lat="43.14719" lon="-0.52034">
        <ele>347.17</ele>
        <time>2021-08-20T05:53:34Z</time>
      </trkpt>
      <trkpt lat="43.14713" lon="-0.5209">
        <ele>345.73</ele>
        <time>2021-08-20T05:53:41Z</time>
      </trkpt>
      <trkpt lat="43.14711" lon="-0.52098">
        <ele>345.73</ele>
        <time>2021-08-20T05:53:42Z</time>
      </trkpt>
      <trkpt lat="43.14703" lon="-0.52155">
        <ele>344.29</ele>
        <time>2021-08-20T05:53:48Z</time>
      </trkpt>
      <trkpt lat="43.14695" lon="-0.52212">
        <ele>343.33</ele>
        <time>2021-08-20T05:53:54Z</time>
      </trkpt>
      <trkpt lat="43.14692" lon="-0.52241">
        <ele>341.89</ele>
        <time>2021-08-20T05:53:57Z</time>
      </trkpt>
      <trkpt lat="43.14685" lon="-0.52313">
        <ele>340.44</ele>
        <time>2021-08-20T05:54:04Z</time>
      </trkpt>
      <trkpt lat="43.14687" lon="-0.52404">
        <ele>338.52</ele>
        <time>2021-08-20T05:54:13Z</time>
      </trkpt>
      <trkpt lat="43.1469" lon="-0.5247">
        <ele>338.04</ele>
        <time>2021-08-20T05:54:20Z</time>
      </trkpt>
      <trkpt lat="43.14692" lon="-0.52534">
        <ele>336.6</ele>
        <time>2021-08-20T05:54:27Z</time>
      </trkpt>
      <trkpt lat="43.14695" lon="-0.5256">
        <ele>336.12</ele>
        <time>2021-08-20T05:54:30Z</time>
      </trkpt>
      <trkpt lat="43.14697" lon="-0.52569">
        <ele>336.12</ele>
        <time>2021-08-20T05:54:31Z</time>
      </trkpt>
      <trkpt lat="43.147" lon="-0.52577">
        <ele>335.64</ele>
        <time>2021-08-20T05:54:32Z</time>
      </trkpt>
      <trkpt lat="43.14722" lon="-0.52629">
        <ele>334.2</ele>
        <time>2021-08-20T05:54:38Z</time>
      </trkpt>
      <trkpt lat="43.14743" lon="-0.52701">
        <ele>334.2</ele>
        <time>2021-08-20T05:54:46Z</time>
      </trkpt>
      <trkpt lat="43.14766" lon="-0.52778">
        <ele>334.2</ele>
        <time>2021-08-20T05:54:56Z</time>
      </trkpt>
      <trkpt lat="43.14778" lon="-0.5282">
        <ele>334.2</ele>
        <time>2021-08-20T05:55:02Z</time>
      </trkpt>
      <trkpt lat="43.14788" lon="-0.52844">
        <ele>334.2</ele>
        <time>2021-08-20T05:55:06Z</time>
      </trkpt>
      <trkpt lat="43.14791" lon="-0.5285">
        <ele>334.2</ele>
        <time>2021-08-20T05:55:07Z</time>
      </trkpt>
      <trkpt lat="43.14793" lon="-0.52855">
        <ele>335.16</ele>
        <time>2021-08-20T05:55:08Z</time>
      </trkpt>
      <trkpt lat="43.14822" lon="-0.52901">
        <ele>335.16</ele>
        <time>2021-08-20T05:55:16Z</time>
      </trkpt>
      <trkpt lat="43.14856" lon="-0.52955">
        <ele>335.16</ele>
        <time>2021-08-20T05:55:25Z</time>
      </trkpt>
      <trkpt lat="43.14884" lon="-0.53004">
        <ele>335.16</ele>
        <time>2021-08-20T05:55:34Z</time>
      </trkpt>
      <trkpt lat="43.14894" lon="-0.53024">
        <ele>335.16</ele>
        <time>2021-08-20T05:55:38Z</time>
      </trkpt>
      <trkpt lat="43.14899" lon="-0.53034">
        <ele>335.16</ele>
        <time>2021-08-20T05:55:40Z</time>
      </trkpt>
      <trkpt lat="43.14901" lon="-0.53038">
        <ele>335.16</ele>
        <time>2021-08-20T05:55:41Z</time>
      </trkpt>
      <trkpt lat="43.14906" lon="-0.53049">
        <ele>335.16</ele>
        <time>2021-08-20T05:55:43Z</time>
      </trkpt>
      <trkpt lat="43.14912" lon="-0.53059">
        <ele>335.16</ele>
        <time>2021-08-20T05:55:45Z</time>
      </trkpt>
      <trkpt lat="43.14923" lon="-0.53078">
        <ele>335.16</ele>
        <time>2021-08-20T05:55:50Z</time>
      </trkpt>
      <trkpt lat="43.14922" lon="-0.53076">
        <ele>335.64</ele>
        <time>2021-08-20T05:55:58Z</time>
      </trkpt>
      <trkpt lat="43.14922" lon="-0.53076">
        <ele>335.64</ele>
        <time>2021-08-20T05:56:14Z</time>
      </trkpt>
      <trkpt lat="43.14921" lon="-0.53076">
        <ele>335.64</ele>
        <time>2021-08-20T05:56:34Z</time>
      </trkpt>
      <trkpt lat="43.1492" lon="-0.53077">
        <ele>335.64</ele>
        <time>2021-08-20T05:56:52Z</time>
      </trkpt>
      <trkpt lat="43.14921" lon="-0.53077">
        <ele>335.64</ele>
        <time>2021-08-20T05:57:08Z</time>
      </trkpt>
      <trkpt lat="43.14921" lon="-0.53077">
        <ele>335.64</ele>
        <time>2021-08-20T05:57:26Z</time>
      </trkpt>
      <trkpt lat="43.14922" lon="-0.53076">
        <ele>335.16</ele>
        <time>2021-08-20T05:57:43Z</time>
      </trkpt>
      <trkpt lat="43.14922" lon="-0.53077">
        <ele>335.16</ele>
        <time>2021-08-20T05:57:55Z</time>
      </trkpt>
      <trkpt lat="43.14922" lon="-0.53076">
        <ele>335.16</ele>
        <time>2021-08-20T05:58:22Z</time>
      </trkpt>
      <trkpt lat="43.14923" lon="-0.53076">
        <ele>335.16</ele>
        <time>2021-08-20T05:58:37Z</time>
      </trkpt>
      <trkpt lat="43.14923" lon="-0.53075">
        <ele>334.2</ele>
        <time>2021-08-20T05:58:47Z</time>
      </trkpt>
      <trkpt lat="43.14923" lon="-0.53077">
        <ele>334.2</ele>
        <time>2021-08-20T05:58:57Z</time>
      </trkpt>
      <trkpt lat="43.14922" lon="-0.53073">
        <ele>334.2</ele>
        <time>2021-08-20T05:59:03Z</time>
      </trkpt>
      <trkpt lat="43.14921" lon="-0.53074">
        <ele>334.2</ele>
        <time>2021-08-20T05:59:08Z</time>
      </trkpt>
      <trkpt lat="43.14922" lon="-0.53076">
        <ele>333.71</ele>
        <time>2021-08-20T05:59:34Z</time>
      </trkpt>
      <trkpt lat="43.14923" lon="-0.53077">
        <ele>333.71</ele>
        <time>2021-08-20T05:59:45Z</time>
      </trkpt>
      <trkpt lat="43.14924" lon="-0.53081">
        <ele>335.16</ele>
        <time>2021-08-20T05:59:52Z</time>
      </trkpt>
      <trkpt lat="43.14924" lon="-0.53081">
        <ele>335.16</ele>
        <time>2021-08-20T06:00:09Z</time>
      </trkpt>
      <trkpt lat="43.14925" lon="-0.53081">
        <ele>335.16</ele>
        <time>2021-08-20T06:00:30Z</time>
      </trkpt>
      <trkpt lat="43.14925" lon="-0.53083">
        <ele>335.16</ele>
        <time>2021-08-20T06:00:39Z</time>
      </trkpt>
      <trkpt lat="43.14932" lon="-0.53098">
        <ele>335.16</ele>
        <time>2021-08-20T06:00:46Z</time>
      </trkpt>
      <trkpt lat="43.14946" lon="-0.53128">
        <ele>333.71</ele>
        <time>2021-08-20T06:00:53Z</time>
      </trkpt>
      <trkpt lat="43.14949" lon="-0.53133">
        <ele>333.71</ele>
        <time>2021-08-20T06:00:54Z</time>
      </trkpt>
      <trkpt lat="43.14952" lon="-0.53137">
        <ele>333.71</ele>
        <time>2021-08-20T06:00:55Z</time>
      </trkpt>
      <trkpt lat="43.14958" lon="-0.53146">
        <ele>333.23</ele>
        <time>2021-08-20T06:00:57Z</time>
      </trkpt>
      <trkpt lat="43.1497" lon="-0.53161">
        <ele>333.23</ele>
        <time>2021-08-20T06:01:01Z</time>
      </trkpt>
      <trkpt lat="43.14988" lon="-0.53178">
        <ele>334.68</ele>
        <time>2021-08-20T06:01:07Z</time>
      </trkpt>
      <trkpt lat="43.15009" lon="-0.53193">
        <ele>335.64</ele>
        <time>2021-08-20T06:01:14Z</time>
      </trkpt>
      <trkpt lat="43.1502" lon="-0.53196">
        <ele>335.64</ele>
        <time>2021-08-20T06:01:17Z</time>
      </trkpt>
      <trkpt lat="43.15025" lon="-0.53195">
        <ele>334.2</ele>
        <time>2021-08-20T06:01:18Z</time>
      </trkpt>
      <trkpt lat="43.1503" lon="-0.53193">
        <ele>333.71</ele>
        <time>2021-08-20T06:01:19Z</time>
      </trkpt>
      <trkpt lat="43.15035" lon="-0.53189">
        <ele>333.23</ele>
        <time>2021-08-20T06:01:20Z</time>
      </trkpt>
      <trkpt lat="43.1504" lon="-0.53184">
        <ele>332.27</ele>
        <time>2021-08-20T06:01:21Z</time>
      </trkpt>
      <trkpt lat="43.15046" lon="-0.53181">
        <ele>331.31</ele>
        <time>2021-08-20T06:01:22Z</time>
      </trkpt>
      <trkpt lat="43.15052" lon="-0.53178">
        <ele>330.83</ele>
        <time>2021-08-20T06:01:23Z</time>
      </trkpt>
      <trkpt lat="43.15059" lon="-0.53175">
        <ele>329.87</ele>
        <time>2021-08-20T06:01:24Z</time>
      </trkpt>
      <trkpt lat="43.15084" lon="-0.53169">
        <ele>326.5</ele>
        <time>2021-08-20T06:01:27Z</time>
      </trkpt>
      <trkpt lat="43.15109" lon="-0.53166">
        <ele>325.54</ele>
        <time>2021-08-20T06:01:30Z</time>
      </trkpt>
      <trkpt lat="43.15143" lon="-0.53163">
        <ele>324.1</ele>
        <time>2021-08-20T06:01:34Z</time>
      </trkpt>
      <trkpt lat="43.15186" lon="-0.53141">
        <ele>323.14</ele>
        <time>2021-08-20T06:01:40Z</time>
      </trkpt>
      <trkpt lat="43.15216" lon="-0.53114">
        <ele>323.14</ele>
        <time>2021-08-20T06:01:46Z</time>
      </trkpt>
      <trkpt lat="43.15219" lon="-0.5311">
        <ele>323.14</ele>
        <time>2021-08-20T06:01:47Z</time>
      </trkpt>
      <trkpt lat="43.15223" lon="-0.53106">
        <ele>324.58</ele>
        <time>2021-08-20T06:01:48Z</time>
      </trkpt>
      <trkpt lat="43.15227" lon="-0.53102">
        <ele>324.58</ele>
        <time>2021-08-20T06:01:49Z</time>
      </trkpt>
      <trkpt lat="43.1523" lon="-0.53098">
        <ele>325.06</ele>
        <time>2021-08-20T06:01:50Z</time>
      </trkpt>
      <trkpt lat="43.15233" lon="-0.53094">
        <ele>325.06</ele>
        <time>2021-08-20T06:01:51Z</time>
      </trkpt>
      <trkpt lat="43.15236" lon="-0.5309">
        <ele>325.54</ele>
        <time>2021-08-20T06:01:52Z</time>
      </trkpt>
      <trkpt lat="43.15253" lon="-0.53066">
        <ele>326.99</ele>
        <time>2021-08-20T06:02:00Z</time>
      </trkpt>
      <trkpt lat="43.15273" lon="-0.53043">
        <ele>327.95</ele>
        <time>2021-08-20T06:02:09Z</time>
      </trkpt>
      <trkpt lat="43.15289" lon="-0.53036">
        <ele>328.91</ele>
        <time>2021-08-20T06:02:15Z</time>
      </trkpt>
      <trkpt lat="43.15292" lon="-0.5304">
        <ele>329.39</ele>
        <time>2021-08-20T06:02:17Z</time>
      </trkpt>
      <trkpt lat="43.15294" lon="-0.53043">
        <ele>329.39</ele>
        <time>2021-08-20T06:02:18Z</time>
      </trkpt>
      <trkpt lat="43.15294" lon="-0.53045">
        <ele>329.39</ele>
        <time>2021-08-20T06:02:19Z</time>
      </trkpt>
      <trkpt lat="43.15296" lon="-0.53078">
        <ele>329.39</ele>
        <time>2021-08-20T06:02:27Z</time>
      </trkpt>
      <trkpt lat="43.15295" lon="-0.53115">
        <ele>329.39</ele>
        <time>2021-08-20T06:02:34Z</time>
      </trkpt>
      <trkpt lat="43.15295" lon="-0.53152">
        <ele>329.39</ele>
        <time>2021-08-20T06:02:40Z</time>
      </trkpt>
      <trkpt lat="43.15294" lon="-0.53181">
        <ele>329.39</ele>
        <time>2021-08-20T06:02:44Z</time>
      </trkpt>
      <trkpt lat="43.15294" lon="-0.53188">
        <ele>329.39</ele>
        <time>2021-08-20T06:02:45Z</time>
      </trkpt>
      <trkpt lat="43.15296" lon="-0.53195">
        <ele>329.39</ele>
        <time>2021-08-20T06:02:46Z</time>
      </trkpt>
      <trkpt lat="43.15297" lon="-0.53201">
        <ele>329.39</ele>
        <time>2021-08-20T06:02:47Z</time>
      </trkpt>
      <trkpt lat="43.153" lon="-0.53207">
        <ele>329.39</ele>
        <time>2021-08-20T06:02:48Z</time>
      </trkpt>
      <trkpt lat="43.15302" lon="-0.53213">
        <ele>329.39</ele>
        <time>2021-08-20T06:02:49Z</time>
      </trkpt>
      <trkpt lat="43.15305" lon="-0.53219">
        <ele>329.39</ele>
        <time>2021-08-20T06:02:50Z</time>
      </trkpt>
      <trkpt lat="43.15314" lon="-0.53232">
        <ele>330.35</ele>
        <time>2021-08-20T06:02:53Z</time>
      </trkpt>
      <trkpt lat="43.15317" lon="-0.53237">
        <ele>330.35</ele>
        <time>2021-08-20T06:02:54Z</time>
      </trkpt>
      <trkpt lat="43.15323" lon="-0.53245">
        <ele>330.35</ele>
        <time>2021-08-20T06:02:56Z</time>
      </trkpt>
      <trkpt lat="43.15325" lon="-0.5325">
        <ele>330.83</ele>
        <time>2021-08-20T06:02:57Z</time>
      </trkpt>
      <trkpt lat="43.15352" lon="-0.53291">
        <ele>331.79</ele>
        <time>2021-08-20T06:03:07Z</time>
      </trkpt>
      <trkpt lat="43.15353" lon="-0.53297">
        <ele>331.79</ele>
        <time>2021-08-20T06:03:08Z</time>
      </trkpt>
      <trkpt lat="43.15352" lon="-0.53302">
        <ele>331.79</ele>
        <time>2021-08-20T06:03:09Z</time>
      </trkpt>
      <trkpt lat="43.15349" lon="-0.53306">
        <ele>331.79</ele>
        <time>2021-08-20T06:03:10Z</time>
      </trkpt>
      <trkpt lat="43.15346" lon="-0.53309">
        <ele>331.79</ele>
        <time>2021-08-20T06:03:11Z</time>
      </trkpt>
      <trkpt lat="43.15343" lon="-0.53313">
        <ele>331.79</ele>
        <time>2021-08-20T06:03:12Z</time>
      </trkpt>
      <trkpt lat="43.1534" lon="-0.53316">
        <ele>331.79</ele>
        <time>2021-08-20T06:03:13Z</time>
      </trkpt>
      <trkpt lat="43.15332" lon="-0.53321">
        <ele>331.79</ele>
        <time>2021-08-20T06:03:15Z</time>
      </trkpt>
      <trkpt lat="43.15328" lon="-0.53322">
        <ele>331.79</ele>
        <time>2021-08-20T06:03:16Z</time>
      </trkpt>
      <trkpt lat="43.15323" lon="-0.53324">
        <ele>331.79</ele>
        <time>2021-08-20T06:03:17Z</time>
      </trkpt>
      <trkpt lat="43.1531" lon="-0.53327">
        <ele>331.79</ele>
        <time>2021-08-20T06:03:20Z</time>
      </trkpt>
      <trkpt lat="43.15306" lon="-0.53328">
        <ele>331.79</ele>
        <time>2021-08-20T06:03:21Z</time>
      </trkpt>
      <trkpt lat="43.15271" lon="-0.53333">
        <ele>330.83</ele>
        <time>2021-08-20T06:03:29Z</time>
      </trkpt>
      <trkpt lat="43.15267" lon="-0.53334">
        <ele>330.83</ele>
        <time>2021-08-20T06:03:30Z</time>
      </trkpt>
      <trkpt lat="43.15262" lon="-0.53335">
        <ele>330.83</ele>
        <time>2021-08-20T06:03:31Z</time>
      </trkpt>
      <trkpt lat="43.15258" lon="-0.53338">
        <ele>330.83</ele>
        <time>2021-08-20T06:03:32Z</time>
      </trkpt>
      <trkpt lat="43.15254" lon="-0.53341">
        <ele>329.87</ele>
        <time>2021-08-20T06:03:33Z</time>
      </trkpt>
      <trkpt lat="43.15249" lon="-0.53346">
        <ele>329.39</ele>
        <time>2021-08-20T06:03:34Z</time>
      </trkpt>
      <trkpt lat="43.15246" lon="-0.5335">
        <ele>329.39</ele>
        <time>2021-08-20T06:03:35Z</time>
      </trkpt>
      <trkpt lat="43.15243" lon="-0.53356">
        <ele>329.39</ele>
        <time>2021-08-20T06:03:36Z</time>
      </trkpt>
      <trkpt lat="43.1524" lon="-0.53361">
        <ele>329.39</ele>
        <time>2021-08-20T06:03:37Z</time>
      </trkpt>
      <trkpt lat="43.15207" lon="-0.53393">
        <ele>326.99</ele>
        <time>2021-08-20T06:03:44Z</time>
      </trkpt>
      <trkpt lat="43.15168" lon="-0.5343">
        <ele>324.58</ele>
        <time>2021-08-20T06:03:51Z</time>
      </trkpt>
      <trkpt lat="43.15164" lon="-0.53436">
        <ele>324.1</ele>
        <time>2021-08-20T06:03:52Z</time>
      </trkpt>
      <trkpt lat="43.15149" lon="-0.53456">
        <ele>324.1</ele>
        <time>2021-08-20T06:03:56Z</time>
      </trkpt>
      <trkpt lat="43.15142" lon="-0.53462">
        <ele>325.54</ele>
        <time>2021-08-20T06:03:58Z</time>
      </trkpt>
      <trkpt lat="43.15138" lon="-0.53468">
        <ele>326.99</ele>
        <time>2021-08-20T06:04:00Z</time>
      </trkpt>
      <trkpt lat="43.15126" lon="-0.53482">
        <ele>328.43</ele>
        <time>2021-08-20T06:04:06Z</time>
      </trkpt>
      <trkpt lat="43.15112" lon="-0.53505">
        <ele>328.91</ele>
        <time>2021-08-20T06:04:13Z</time>
      </trkpt>
      <trkpt lat="43.15098" lon="-0.53527">
        <ele>330.35</ele>
        <time>2021-08-20T06:04:20Z</time>
      </trkpt>
      <trkpt lat="43.15088" lon="-0.53543">
        <ele>329.87</ele>
        <time>2021-08-20T06:04:26Z</time>
      </trkpt>
      <trkpt lat="43.1507" lon="-0.53568">
        <ele>331.31</ele>
        <time>2021-08-20T06:04:34Z</time>
      </trkpt>
      <trkpt lat="43.15058" lon="-0.53586">
        <ele>331.79</ele>
        <time>2021-08-20T06:04:41Z</time>
      </trkpt>
      <trkpt lat="43.15047" lon="-0.53605">
        <ele>332.75</ele>
        <time>2021-08-20T06:04:49Z</time>
      </trkpt>
      <trkpt lat="43.15039" lon="-0.53626">
        <ele>332.75</ele>
        <time>2021-08-20T06:04:57Z</time>
      </trkpt>
      <trkpt lat="43.1503" lon="-0.53648">
        <ele>334.2</ele>
        <time>2021-08-20T06:05:06Z</time>
      </trkpt>
      <trkpt lat="43.15025" lon="-0.5366">
        <ele>335.16</ele>
        <time>2021-08-20T06:05:13Z</time>
      </trkpt>
      <trkpt lat="43.15016" lon="-0.53679">
        <ele>337.08</ele>
        <time>2021-08-20T06:05:23Z</time>
      </trkpt>
      <trkpt lat="43.15009" lon="-0.53695">
        <ele>338.04</ele>
        <time>2021-08-20T06:05:31Z</time>
      </trkpt>
      <trkpt lat="43.15005" lon="-0.53718">
        <ele>338.04</ele>
        <time>2021-08-20T06:05:38Z</time>
      </trkpt>
      <trkpt lat="43.15006" lon="-0.53748">
        <ele>338.52</ele>
        <time>2021-08-20T06:05:46Z</time>
      </trkpt>
      <trkpt lat="43.15006" lon="-0.53782">
        <ele>339</ele>
        <time>2021-08-20T06:05:55Z</time>
      </trkpt>
      <trkpt lat="43.15008" lon="-0.53796">
        <ele>340.44</ele>
        <time>2021-08-20T06:06:01Z</time>
      </trkpt>
      <trkpt lat="43.15009" lon="-0.53811">
        <ele>341.41</ele>
        <time>2021-08-20T06:06:08Z</time>
      </trkpt>
      <trkpt lat="43.1501" lon="-0.5382">
        <ele>342.37</ele>
        <time>2021-08-20T06:06:15Z</time>
      </trkpt>
      <trkpt lat="43.15008" lon="-0.5383">
        <ele>343.81</ele>
        <time>2021-08-20T06:06:22Z</time>
      </trkpt>
      <trkpt lat="43.15006" lon="-0.5384">
        <ele>344.77</ele>
        <time>2021-08-20T06:06:30Z</time>
      </trkpt>
      <trkpt lat="43.15005" lon="-0.53848">
        <ele>344.77</ele>
        <time>2021-08-20T06:06:37Z</time>
      </trkpt>
      <trkpt lat="43.15004" lon="-0.53855">
        <ele>345.73</ele>
        <time>2021-08-20T06:06:44Z</time>
      </trkpt>
      <trkpt lat="43.15003" lon="-0.53863">
        <ele>346.69</ele>
        <time>2021-08-20T06:06:51Z</time>
      </trkpt>
      <trkpt lat="43.15001" lon="-0.53874">
        <ele>347.65</ele>
        <time>2021-08-20T06:07:00Z</time>
      </trkpt>
      <trkpt lat="43.14999" lon="-0.53878">
        <ele>347.65</ele>
        <time>2021-08-20T06:07:06Z</time>
      </trkpt>
      <trkpt lat="43.14999" lon="-0.53879">
        <ele>347.65</ele>
        <time>2021-08-20T06:07:19Z</time>
      </trkpt>
      <trkpt lat="43.15001" lon="-0.53881">
        <ele>348.13</ele>
        <time>2021-08-20T06:07:34Z</time>
      </trkpt>
      <trkpt lat="43.14993" lon="-0.53882">
        <ele>348.13</ele>
        <time>2021-08-20T06:08:31Z</time>
      </trkpt>
      <trkpt lat="43.14997" lon="-0.5388">
        <ele>348.13</ele>
        <time>2021-08-20T06:08:35Z</time>
      </trkpt>
      <trkpt lat="43.15" lon="-0.53882">
        <ele>348.13</ele>
        <time>2021-08-20T06:08:45Z</time>
      </trkpt>
      <trkpt lat="43.14998" lon="-0.53889">
        <ele>348.13</ele>
        <time>2021-08-20T06:08:51Z</time>
      </trkpt>
      <trkpt lat="43.14997" lon="-0.53897">
        <ele>348.13</ele>
        <time>2021-08-20T06:08:55Z</time>
      </trkpt>
      <trkpt lat="43.14995" lon="-0.539">
        <ele>348.13</ele>
        <time>2021-08-20T06:08:56Z</time>
      </trkpt>
      <trkpt lat="43.14994" lon="-0.53902">
        <ele>346.69</ele>
        <time>2021-08-20T06:08:57Z</time>
      </trkpt>
      <trkpt lat="43.14993" lon="-0.53906">
        <ele>346.69</ele>
        <time>2021-08-20T06:08:58Z</time>
      </trkpt>
      <trkpt lat="43.14993" lon="-0.53911">
        <ele>346.69</ele>
        <time>2021-08-20T06:08:59Z</time>
      </trkpt>
      <trkpt lat="43.14994" lon="-0.53915">
        <ele>346.69</ele>
        <time>2021-08-20T06:09:00Z</time>
      </trkpt>
      <trkpt lat="43.14996" lon="-0.53945">
        <ele>346.69</ele>
        <time>2021-08-20T06:09:07Z</time>
      </trkpt>
      <trkpt lat="43.15001" lon="-0.53971">
        <ele>346.21</ele>
        <time>2021-08-20T06:09:13Z</time>
      </trkpt>
      <trkpt lat="43.15003" lon="-0.53987">
        <ele>344.77</ele>
        <time>2021-08-20T06:09:16Z</time>
      </trkpt>
      <trkpt lat="43.15004" lon="-0.53993">
        <ele>344.29</ele>
        <time>2021-08-20T06:09:17Z</time>
      </trkpt>
      <trkpt lat="43.15007" lon="-0.53999">
        <ele>344.29</ele>
        <time>2021-08-20T06:09:18Z</time>
      </trkpt>
      <trkpt lat="43.15013" lon="-0.54011">
        <ele>341.89</ele>
        <time>2021-08-20T06:09:20Z</time>
      </trkpt>
      <trkpt lat="43.15017" lon="-0.54023">
        <ele>340.44</ele>
        <time>2021-08-20T06:09:22Z</time>
      </trkpt>
      <trkpt lat="43.15018" lon="-0.5403">
        <ele>339.96</ele>
        <time>2021-08-20T06:09:23Z</time>
      </trkpt>
      <trkpt lat="43.15019" lon="-0.54036">
        <ele>339.48</ele>
        <time>2021-08-20T06:09:24Z</time>
      </trkpt>
      <trkpt lat="43.15018" lon="-0.54043">
        <ele>338.52</ele>
        <time>2021-08-20T06:09:25Z</time>
      </trkpt>
      <trkpt lat="43.15018" lon="-0.54048">
        <ele>338.52</ele>
        <time>2021-08-20T06:09:26Z</time>
      </trkpt>
      <trkpt lat="43.15019" lon="-0.54053">
        <ele>337.56</ele>
        <time>2021-08-20T06:09:27Z</time>
      </trkpt>
      <trkpt lat="43.15021" lon="-0.54057">
        <ele>337.56</ele>
        <time>2021-08-20T06:09:28Z</time>
      </trkpt>
      <trkpt lat="43.15022" lon="-0.54063">
        <ele>337.08</ele>
        <time>2021-08-20T06:09:29Z</time>
      </trkpt>
      <trkpt lat="43.15023" lon="-0.54069">
        <ele>336.12</ele>
        <time>2021-08-20T06:09:30Z</time>
      </trkpt>
      <trkpt lat="43.15024" lon="-0.54076">
        <ele>335.64</ele>
        <time>2021-08-20T06:09:31Z</time>
      </trkpt>
      <trkpt lat="43.15024" lon="-0.54083">
        <ele>335.64</ele>
        <time>2021-08-20T06:09:32Z</time>
      </trkpt>
      <trkpt lat="43.15023" lon="-0.5409">
        <ele>334.68</ele>
        <time>2021-08-20T06:09:33Z</time>
      </trkpt>
      <trkpt lat="43.15022" lon="-0.54096">
        <ele>334.2</ele>
        <time>2021-08-20T06:09:34Z</time>
      </trkpt>
      <trkpt lat="43.15019" lon="-0.54103">
        <ele>333.71</ele>
        <time>2021-08-20T06:09:35Z</time>
      </trkpt>
      <trkpt lat="43.15016" lon="-0.5411">
        <ele>332.75</ele>
        <time>2021-08-20T06:09:36Z</time>
      </trkpt>
      <trkpt lat="43.15012" lon="-0.54115">
        <ele>332.27</ele>
        <time>2021-08-20T06:09:37Z</time>
      </trkpt>
      <trkpt lat="43.15008" lon="-0.54121">
        <ele>331.31</ele>
        <time>2021-08-20T06:09:38Z</time>
      </trkpt>
      <trkpt lat="43.15003" lon="-0.54125">
        <ele>330.35</ele>
        <time>2021-08-20T06:09:39Z</time>
      </trkpt>
      <trkpt lat="43.14994" lon="-0.54132">
        <ele>329.87</ele>
        <time>2021-08-20T06:09:41Z</time>
      </trkpt>
      <trkpt lat="43.14988" lon="-0.54135">
        <ele>328.91</ele>
        <time>2021-08-20T06:09:42Z</time>
      </trkpt>
      <trkpt lat="43.14973" lon="-0.54142">
        <ele>327.47</ele>
        <time>2021-08-20T06:09:45Z</time>
      </trkpt>
      <trkpt lat="43.14965" lon="-0.54149">
        <ele>325.54</ele>
        <time>2021-08-20T06:09:47Z</time>
      </trkpt>
      <trkpt lat="43.14961" lon="-0.54152">
        <ele>325.06</ele>
        <time>2021-08-20T06:09:48Z</time>
      </trkpt>
      <trkpt lat="43.14956" lon="-0.54155">
        <ele>324.1</ele>
        <time>2021-08-20T06:09:49Z</time>
      </trkpt>
      <trkpt lat="43.1495" lon="-0.54157">
        <ele>323.62</ele>
        <time>2021-08-20T06:09:50Z</time>
      </trkpt>
      <trkpt lat="43.14944" lon="-0.54159">
        <ele>323.14</ele>
        <time>2021-08-20T06:09:51Z</time>
      </trkpt>
      <trkpt lat="43.14938" lon="-0.54161">
        <ele>322.18</ele>
        <time>2021-08-20T06:09:52Z</time>
      </trkpt>
      <trkpt lat="43.14933" lon="-0.54164">
        <ele>321.7</ele>
        <time>2021-08-20T06:09:53Z</time>
      </trkpt>
      <trkpt lat="43.14929" lon="-0.54167">
        <ele>321.7</ele>
        <time>2021-08-20T06:09:54Z</time>
      </trkpt>
      <trkpt lat="43.14924" lon="-0.5417">
        <ele>321.22</ele>
        <time>2021-08-20T06:09:55Z</time>
      </trkpt>
      <trkpt lat="43.14919" lon="-0.54171">
        <ele>320.26</ele>
        <time>2021-08-20T06:09:56Z</time>
      </trkpt>
      <trkpt lat="43.14914" lon="-0.5417">
        <ele>320.26</ele>
        <time>2021-08-20T06:09:57Z</time>
      </trkpt>
      <trkpt lat="43.14909" lon="-0.54168">
        <ele>319.3</ele>
        <time>2021-08-20T06:09:58Z</time>
      </trkpt>
      <trkpt lat="43.14905" lon="-0.54165">
        <ele>318.33</ele>
        <time>2021-08-20T06:09:59Z</time>
      </trkpt>
      <trkpt lat="43.149" lon="-0.54163">
        <ele>317.85</ele>
        <time>2021-08-20T06:10:00Z</time>
      </trkpt>
      <trkpt lat="43.14884" lon="-0.54156">
        <ele>314.49</ele>
        <time>2021-08-20T06:10:03Z</time>
      </trkpt>
      <trkpt lat="43.14864" lon="-0.54144">
        <ele>310.16</ele>
        <time>2021-08-20T06:10:06Z</time>
      </trkpt>
      <trkpt lat="43.14858" lon="-0.54139">
        <ele>310.16</ele>
        <time>2021-08-20T06:10:07Z</time>
      </trkpt>
      <trkpt lat="43.14853" lon="-0.54134">
        <ele>310.16</ele>
        <time>2021-08-20T06:10:08Z</time>
      </trkpt>
      <trkpt lat="43.14831" lon="-0.54118">
        <ele>309.68</ele>
        <time>2021-08-20T06:10:12Z</time>
      </trkpt>
      <trkpt lat="43.1482" lon="-0.54113">
        <ele>309.68</ele>
        <time>2021-08-20T06:10:14Z</time>
      </trkpt>
      <trkpt lat="43.14814" lon="-0.54112">
        <ele>309.2</ele>
        <time>2021-08-20T06:10:15Z</time>
      </trkpt>
      <trkpt lat="43.14809" lon="-0.54112">
        <ele>309.2</ele>
        <time>2021-08-20T06:10:16Z</time>
      </trkpt>
      <trkpt lat="43.14802" lon="-0.54113">
        <ele>308.72</ele>
        <time>2021-08-20T06:10:17Z</time>
      </trkpt>
      <trkpt lat="43.14796" lon="-0.54114">
        <ele>308.72</ele>
        <time>2021-08-20T06:10:18Z</time>
      </trkpt>
      <trkpt lat="43.14784" lon="-0.54118">
        <ele>308.24</ele>
        <time>2021-08-20T06:10:20Z</time>
      </trkpt>
      <trkpt lat="43.14778" lon="-0.54122">
        <ele>307.76</ele>
        <time>2021-08-20T06:10:21Z</time>
      </trkpt>
      <trkpt lat="43.14773" lon="-0.54127">
        <ele>307.76</ele>
        <time>2021-08-20T06:10:22Z</time>
      </trkpt>
      <trkpt lat="43.14732" lon="-0.54167">
        <ele>306.32</ele>
        <time>2021-08-20T06:10:30Z</time>
      </trkpt>
      <trkpt lat="43.14686" lon="-0.54224">
        <ele>304.88</ele>
        <time>2021-08-20T06:10:40Z</time>
      </trkpt>
      <trkpt lat="43.14655" lon="-0.54267">
        <ele>304.39</ele>
        <time>2021-08-20T06:10:48Z</time>
      </trkpt>
      <trkpt lat="43.14638" lon="-0.54298">
        <ele>304.39</ele>
        <time>2021-08-20T06:10:54Z</time>
      </trkpt>
      <trkpt lat="43.14635" lon="-0.54303">
        <ele>304.39</ele>
        <time>2021-08-20T06:10:55Z</time>
      </trkpt>
      <trkpt lat="43.14627" lon="-0.54313">
        <ele>304.39</ele>
        <time>2021-08-20T06:10:57Z</time>
      </trkpt>
      <trkpt lat="43.14597" lon="-0.54347">
        <ele>303.43</ele>
        <time>2021-08-20T06:11:05Z</time>
      </trkpt>
      <trkpt lat="43.14586" lon="-0.54362">
        <ele>303.43</ele>
        <time>2021-08-20T06:11:08Z</time>
      </trkpt>
      <trkpt lat="43.14582" lon="-0.54368">
        <ele>303.43</ele>
        <time>2021-08-20T06:11:09Z</time>
      </trkpt>
      <trkpt lat="43.14579" lon="-0.54374">
        <ele>302.95</ele>
        <time>2021-08-20T06:11:10Z</time>
      </trkpt>
      <trkpt lat="43.14575" lon="-0.54378">
        <ele>302.95</ele>
        <time>2021-08-20T06:11:11Z</time>
      </trkpt>
      <trkpt lat="43.14571" lon="-0.54382">
        <ele>302.95</ele>
        <time>2021-08-20T06:11:12Z</time>
      </trkpt>
      <trkpt lat="43.14546" lon="-0.54414">
        <ele>302.95</ele>
        <time>2021-08-20T06:11:20Z</time>
      </trkpt>
      <trkpt lat="43.1454" lon="-0.54422">
        <ele>302.95</ele>
        <time>2021-08-20T06:11:22Z</time>
      </trkpt>
      <trkpt lat="43.14537" lon="-0.54427">
        <ele>302.95</ele>
        <time>2021-08-20T06:11:23Z</time>
      </trkpt>
      <trkpt lat="43.14524" lon="-0.54451">
        <ele>302.95</ele>
        <time>2021-08-20T06:11:28Z</time>
      </trkpt>
      <trkpt lat="43.14521" lon="-0.54455">
        <ele>302.95</ele>
        <time>2021-08-20T06:11:29Z</time>
      </trkpt>
      <trkpt lat="43.14512" lon="-0.54484">
        <ele>302.95</ele>
        <time>2021-08-20T06:11:36Z</time>
      </trkpt>
      <trkpt lat="43.14515" lon="-0.54503">
        <ele>302.95</ele>
        <time>2021-08-20T06:11:41Z</time>
      </trkpt>
      <trkpt lat="43.14513" lon="-0.54538">
        <ele>302.95</ele>
        <time>2021-08-20T06:11:47Z</time>
      </trkpt>
      <trkpt lat="43.1451" lon="-0.5456">
        <ele>301.99</ele>
        <time>2021-08-20T06:11:50Z</time>
      </trkpt>
      <trkpt lat="43.14509" lon="-0.54567">
        <ele>301.99</ele>
        <time>2021-08-20T06:11:51Z</time>
      </trkpt>
      <trkpt lat="43.14501" lon="-0.54588">
        <ele>301.99</ele>
        <time>2021-08-20T06:11:56Z</time>
      </trkpt>
      <trkpt lat="43.14497" lon="-0.54595">
        <ele>303.91</ele>
        <time>2021-08-20T06:11:59Z</time>
      </trkpt>
      <trkpt lat="43.1449" lon="-0.54617">
        <ele>304.88</ele>
        <time>2021-08-20T06:12:07Z</time>
      </trkpt>
      <trkpt lat="43.14487" lon="-0.54621">
        <ele>304.88</ele>
        <time>2021-08-20T06:12:09Z</time>
      </trkpt>
      <trkpt lat="43.14484" lon="-0.54623">
        <ele>304.88</ele>
        <time>2021-08-20T06:12:10Z</time>
      </trkpt>
      <trkpt lat="43.14481" lon="-0.54623">
        <ele>304.88</ele>
        <time>2021-08-20T06:12:11Z</time>
      </trkpt>
      <trkpt lat="43.14461" lon="-0.54634">
        <ele>306.32</ele>
        <time>2021-08-20T06:12:19Z</time>
      </trkpt>
      <trkpt lat="43.14447" lon="-0.54645">
        <ele>306.8</ele>
        <time>2021-08-20T06:12:25Z</time>
      </trkpt>
      <trkpt lat="43.14429" lon="-0.54655">
        <ele>306.8</ele>
        <time>2021-08-20T06:12:32Z</time>
      </trkpt>
      <trkpt lat="43.14424" lon="-0.54658">
        <ele>306.8</ele>
        <time>2021-08-20T06:12:36Z</time>
      </trkpt>
      <trkpt lat="43.14423" lon="-0.54657">
        <ele>306.8</ele>
        <time>2021-08-20T06:12:38Z</time>
      </trkpt>
      <trkpt lat="43.14421" lon="-0.54656">
        <ele>307.28</ele>
        <time>2021-08-20T06:12:39Z</time>
      </trkpt>
      <trkpt lat="43.1442" lon="-0.54655">
        <ele>307.28</ele>
        <time>2021-08-20T06:12:40Z</time>
      </trkpt>
      <trkpt lat="43.14418" lon="-0.54655">
        <ele>307.28</ele>
        <time>2021-08-20T06:12:41Z</time>
      </trkpt>
      <trkpt lat="43.14417" lon="-0.54656">
        <ele>307.28</ele>
        <time>2021-08-20T06:12:42Z</time>
      </trkpt>
      <trkpt lat="43.14415" lon="-0.54657">
        <ele>307.28</ele>
        <time>2021-08-20T06:12:43Z</time>
      </trkpt>
      <trkpt lat="43.14414" lon="-0.54659">
        <ele>307.28</ele>
        <time>2021-08-20T06:12:44Z</time>
      </trkpt>
      <trkpt lat="43.14413" lon="-0.54662">
        <ele>307.28</ele>
        <time>2021-08-20T06:12:45Z</time>
      </trkpt>
      <trkpt lat="43.14413" lon="-0.54666">
        <ele>307.28</ele>
        <time>2021-08-20T06:12:46Z</time>
      </trkpt>
      <trkpt lat="43.14413" lon="-0.5467">
        <ele>307.28</ele>
        <time>2021-08-20T06:12:47Z</time>
      </trkpt>
      <trkpt lat="43.14413" lon="-0.54674">
        <ele>307.28</ele>
        <time>2021-08-20T06:12:48Z</time>
      </trkpt>
      <trkpt lat="43.14414" lon="-0.54677">
        <ele>307.28</ele>
        <time>2021-08-20T06:12:49Z</time>
      </trkpt>
      <trkpt lat="43.14414" lon="-0.5468">
        <ele>307.28</ele>
        <time>2021-08-20T06:12:50Z</time>
      </trkpt>
      <trkpt lat="43.14413" lon="-0.54683">
        <ele>307.28</ele>
        <time>2021-08-20T06:12:51Z</time>
      </trkpt>
      <trkpt lat="43.14412" lon="-0.54686">
        <ele>307.28</ele>
        <time>2021-08-20T06:12:52Z</time>
      </trkpt>
      <trkpt lat="43.1441" lon="-0.54689">
        <ele>307.28</ele>
        <time>2021-08-20T06:12:53Z</time>
      </trkpt>
      <trkpt lat="43.14408" lon="-0.54691">
        <ele>307.28</ele>
        <time>2021-08-20T06:12:54Z</time>
      </trkpt>
      <trkpt lat="43.14401" lon="-0.54712">
        <ele>307.28</ele>
        <time>2021-08-20T06:13:00Z</time>
      </trkpt>
      <trkpt lat="43.14398" lon="-0.54725">
        <ele>305.84</ele>
        <time>2021-08-20T06:13:04Z</time>
      </trkpt>
      <trkpt lat="43.14392" lon="-0.5475">
        <ele>305.84</ele>
        <time>2021-08-20T06:13:09Z</time>
      </trkpt>
      <trkpt lat="43.14388" lon="-0.54785">
        <ele>304.88</ele>
        <time>2021-08-20T06:13:16Z</time>
      </trkpt>
      <trkpt lat="43.14393" lon="-0.54818">
        <ele>304.39</ele>
        <time>2021-08-20T06:13:22Z</time>
      </trkpt>
      <trkpt lat="43.14407" lon="-0.54845">
        <ele>304.39</ele>
        <time>2021-08-20T06:13:29Z</time>
      </trkpt>
      <trkpt lat="43.14413" lon="-0.54879">
        <ele>302.95</ele>
        <time>2021-08-20T06:13:35Z</time>
      </trkpt>
      <trkpt lat="43.14414" lon="-0.54895">
        <ele>301.99</ele>
        <time>2021-08-20T06:13:37Z</time>
      </trkpt>
      <trkpt lat="43.14417" lon="-0.54927">
        <ele>300.55</ele>
        <time>2021-08-20T06:13:41Z</time>
      </trkpt>
      <trkpt lat="43.14419" lon="-0.54935">
        <ele>299.59</ele>
        <time>2021-08-20T06:13:42Z</time>
      </trkpt>
      <trkpt lat="43.1442" lon="-0.54944">
        <ele>299.11</ele>
        <time>2021-08-20T06:13:43Z</time>
      </trkpt>
      <trkpt lat="43.14422" lon="-0.54951">
        <ele>299.11</ele>
        <time>2021-08-20T06:13:44Z</time>
      </trkpt>
      <trkpt lat="43.14424" lon="-0.54957">
        <ele>299.11</ele>
        <time>2021-08-20T06:13:45Z</time>
      </trkpt>
      <trkpt lat="43.14426" lon="-0.5496">
        <ele>299.11</ele>
        <time>2021-08-20T06:13:46Z</time>
      </trkpt>
      <trkpt lat="43.14428" lon="-0.54963">
        <ele>299.11</ele>
        <time>2021-08-20T06:13:47Z</time>
      </trkpt>
      <trkpt lat="43.1443" lon="-0.54965">
        <ele>299.11</ele>
        <time>2021-08-20T06:13:48Z</time>
      </trkpt>
      <trkpt lat="43.14432" lon="-0.54968">
        <ele>298.63</ele>
        <time>2021-08-20T06:13:49Z</time>
      </trkpt>
      <trkpt lat="43.14434" lon="-0.54973">
        <ele>298.63</ele>
        <time>2021-08-20T06:13:50Z</time>
      </trkpt>
      <trkpt lat="43.14435" lon="-0.54978">
        <ele>298.15</ele>
        <time>2021-08-20T06:13:51Z</time>
      </trkpt>
      <trkpt lat="43.14435" lon="-0.54983">
        <ele>298.15</ele>
        <time>2021-08-20T06:13:52Z</time>
      </trkpt>
      <trkpt lat="43.14436" lon="-0.54988">
        <ele>298.15</ele>
        <time>2021-08-20T06:13:53Z</time>
      </trkpt>
      <trkpt lat="43.14437" lon="-0.54992">
        <ele>298.15</ele>
        <time>2021-08-20T06:13:54Z</time>
      </trkpt>
      <trkpt lat="43.14448" lon="-0.55021">
        <ele>296.22</ele>
        <time>2021-08-20T06:14:00Z</time>
      </trkpt>
      <trkpt lat="43.14455" lon="-0.5503">
        <ele>293.82</ele>
        <time>2021-08-20T06:14:02Z</time>
      </trkpt>
      <trkpt lat="43.14461" lon="-0.55034">
        <ele>292.86</ele>
        <time>2021-08-20T06:14:03Z</time>
      </trkpt>
      <trkpt lat="43.14485" lon="-0.55047">
        <ele>289.97</ele>
        <time>2021-08-20T06:14:07Z</time>
      </trkpt>
      <trkpt lat="43.14495" lon="-0.5505">
        <ele>288.05</ele>
        <time>2021-08-20T06:14:09Z</time>
      </trkpt>
      <trkpt lat="43.145" lon="-0.55051">
        <ele>287.57</ele>
        <time>2021-08-20T06:14:10Z</time>
      </trkpt>
      <trkpt lat="43.14509" lon="-0.55052">
        <ele>286.61</ele>
        <time>2021-08-20T06:14:12Z</time>
      </trkpt>
      <trkpt lat="43.14518" lon="-0.55055">
        <ele>285.65</ele>
        <time>2021-08-20T06:14:16Z</time>
      </trkpt>
      <trkpt lat="43.14524" lon="-0.55059">
        <ele>285.17</ele>
        <time>2021-08-20T06:14:19Z</time>
      </trkpt>
      <trkpt lat="43.14527" lon="-0.55062">
        <ele>285.17</ele>
        <time>2021-08-20T06:14:20Z</time>
      </trkpt>
      <trkpt lat="43.1453" lon="-0.55064">
        <ele>284.69</ele>
        <time>2021-08-20T06:14:21Z</time>
      </trkpt>
      <trkpt lat="43.14533" lon="-0.55067">
        <ele>284.21</ele>
        <time>2021-08-20T06:14:22Z</time>
      </trkpt>
      <trkpt lat="43.14537" lon="-0.55072">
        <ele>284.21</ele>
        <time>2021-08-20T06:14:23Z</time>
      </trkpt>
      <trkpt lat="43.1454" lon="-0.55076">
        <ele>283.73</ele>
        <time>2021-08-20T06:14:24Z</time>
      </trkpt>
      <trkpt lat="43.14543" lon="-0.55082">
        <ele>283.73</ele>
        <time>2021-08-20T06:14:25Z</time>
      </trkpt>
      <trkpt lat="43.14545" lon="-0.55088">
        <ele>282.77</ele>
        <time>2021-08-20T06:14:26Z</time>
      </trkpt>
      <trkpt lat="43.14547" lon="-0.55093">
        <ele>282.28</ele>
        <time>2021-08-20T06:14:27Z</time>
      </trkpt>
      <trkpt lat="43.14548" lon="-0.55098">
        <ele>281.32</ele>
        <time>2021-08-20T06:14:28Z</time>
      </trkpt>
      <trkpt lat="43.14549" lon="-0.55104">
        <ele>279.4</ele>
        <time>2021-08-20T06:14:29Z</time>
      </trkpt>
      <trkpt lat="43.14549" lon="-0.55111">
        <ele>277.96</ele>
        <time>2021-08-20T06:14:30Z</time>
      </trkpt>
      <trkpt lat="43.1455" lon="-0.55119">
        <ele>276.52</ele>
        <time>2021-08-20T06:14:31Z</time>
      </trkpt>
      <trkpt lat="43.1455" lon="-0.55126">
        <ele>275.07</ele>
        <time>2021-08-20T06:14:32Z</time>
      </trkpt>
      <trkpt lat="43.1455" lon="-0.55133">
        <ele>274.11</ele>
        <time>2021-08-20T06:14:33Z</time>
      </trkpt>
      <trkpt lat="43.1455" lon="-0.55139">
        <ele>274.11</ele>
        <time>2021-08-20T06:14:34Z</time>
      </trkpt>
      <trkpt lat="43.1455" lon="-0.55153">
        <ele>272.19</ele>
        <time>2021-08-20T06:14:38Z</time>
      </trkpt>
      <trkpt lat="43.14553" lon="-0.55163">
        <ele>268.83</ele>
        <time>2021-08-20T06:14:41Z</time>
      </trkpt>
      <trkpt lat="43.14554" lon="-0.55172">
        <ele>266.9</ele>
        <time>2021-08-20T06:14:43Z</time>
      </trkpt>
      <trkpt lat="43.14554" lon="-0.5518">
        <ele>265.94</ele>
        <time>2021-08-20T06:14:44Z</time>
      </trkpt>
      <trkpt lat="43.14558" lon="-0.55211">
        <ele>263.54</ele>
        <time>2021-08-20T06:14:47Z</time>
      </trkpt>
      <trkpt lat="43.14561" lon="-0.5523">
        <ele>263.06</ele>
        <time>2021-08-20T06:14:49Z</time>
      </trkpt>
      <trkpt lat="43.14564" lon="-0.55238">
        <ele>263.06</ele>
        <time>2021-08-20T06:14:50Z</time>
      </trkpt>
      <trkpt lat="43.14566" lon="-0.55246">
        <ele>263.06</ele>
        <time>2021-08-20T06:14:51Z</time>
      </trkpt>
      <trkpt lat="43.14573" lon="-0.5526">
        <ele>263.06</ele>
        <time>2021-08-20T06:14:53Z</time>
      </trkpt>
      <trkpt lat="43.14577" lon="-0.55265">
        <ele>263.06</ele>
        <time>2021-08-20T06:14:54Z</time>
      </trkpt>
      <trkpt lat="43.14595" lon="-0.55295">
        <ele>263.06</ele>
        <time>2021-08-20T06:15:00Z</time>
      </trkpt>
      <trkpt lat="43.14604" lon="-0.55321">
        <ele>263.06</ele>
        <time>2021-08-20T06:15:06Z</time>
      </trkpt>
      <trkpt lat="43.14606" lon="-0.55326">
        <ele>263.06</ele>
        <time>2021-08-20T06:15:07Z</time>
      </trkpt>
      <trkpt lat="43.14615" lon="-0.55349">
        <ele>262.1</ele>
        <time>2021-08-20T06:15:10Z</time>
      </trkpt>
      <trkpt lat="43.14618" lon="-0.55358">
        <ele>261.14</ele>
        <time>2021-08-20T06:15:11Z</time>
      </trkpt>
      <trkpt lat="43.1462" lon="-0.55367">
        <ele>261.14</ele>
        <time>2021-08-20T06:15:12Z</time>
      </trkpt>
      <trkpt lat="43.1462" lon="-0.55374">
        <ele>261.14</ele>
        <time>2021-08-20T06:15:13Z</time>
      </trkpt>
      <trkpt lat="43.1462" lon="-0.55382">
        <ele>261.14</ele>
        <time>2021-08-20T06:15:14Z</time>
      </trkpt>
      <trkpt lat="43.1462" lon="-0.5539">
        <ele>261.14</ele>
        <time>2021-08-20T06:15:15Z</time>
      </trkpt>
      <trkpt lat="43.14618" lon="-0.55407">
        <ele>260.17</ele>
        <time>2021-08-20T06:15:17Z</time>
      </trkpt>
      <trkpt lat="43.14619" lon="-0.55425">
        <ele>259.21</ele>
        <time>2021-08-20T06:15:19Z</time>
      </trkpt>
      <trkpt lat="43.1462" lon="-0.55434">
        <ele>259.21</ele>
        <time>2021-08-20T06:15:20Z</time>
      </trkpt>
      <trkpt lat="43.14621" lon="-0.55443">
        <ele>259.21</ele>
        <time>2021-08-20T06:15:21Z</time>
      </trkpt>
      <trkpt lat="43.14622" lon="-0.55451">
        <ele>259.21</ele>
        <time>2021-08-20T06:15:22Z</time>
      </trkpt>
      <trkpt lat="43.14624" lon="-0.55458">
        <ele>259.21</ele>
        <time>2021-08-20T06:15:23Z</time>
      </trkpt>
      <trkpt lat="43.14627" lon="-0.55465">
        <ele>259.21</ele>
        <time>2021-08-20T06:15:24Z</time>
      </trkpt>
      <trkpt lat="43.14633" lon="-0.55483">
        <ele>261.14</ele>
        <time>2021-08-20T06:15:28Z</time>
      </trkpt>
      <trkpt lat="43.14638" lon="-0.55492">
        <ele>262.58</ele>
        <time>2021-08-20T06:15:34Z</time>
      </trkpt>
      <trkpt lat="43.14646" lon="-0.55513">
        <ele>264.02</ele>
        <time>2021-08-20T06:15:43Z</time>
      </trkpt>
      <trkpt lat="43.14648" lon="-0.55529">
        <ele>265.46</ele>
        <time>2021-08-20T06:15:49Z</time>
      </trkpt>
      <trkpt lat="43.14648" lon="-0.55532">
        <ele>265.46</ele>
        <time>2021-08-20T06:15:50Z</time>
      </trkpt>
      <trkpt lat="43.14651" lon="-0.55555">
        <ele>267.38</ele>
        <time>2021-08-20T06:16:00Z</time>
      </trkpt>
      <trkpt lat="43.14654" lon="-0.55581">
        <ele>268.83</ele>
        <time>2021-08-20T06:16:10Z</time>
      </trkpt>
      <trkpt lat="43.14656" lon="-0.556">
        <ele>269.79</ele>
        <time>2021-08-20T06:16:17Z</time>
      </trkpt>
      <trkpt lat="43.14657" lon="-0.55624">
        <ele>269.79</ele>
        <time>2021-08-20T06:16:25Z</time>
      </trkpt>
      <trkpt lat="43.14657" lon="-0.5563">
        <ele>268.83</ele>
        <time>2021-08-20T06:16:26Z</time>
      </trkpt>
      <trkpt lat="43.14651" lon="-0.55659">
        <ele>265.46</ele>
        <time>2021-08-20T06:16:30Z</time>
      </trkpt>
      <trkpt lat="43.14642" lon="-0.55706">
        <ele>261.62</ele>
        <time>2021-08-20T06:16:35Z</time>
      </trkpt>
      <trkpt lat="43.1464" lon="-0.55717">
        <ele>261.62</ele>
        <time>2021-08-20T06:16:36Z</time>
      </trkpt>
      <trkpt lat="43.14636" lon="-0.55788">
        <ele>260.17</ele>
        <time>2021-08-20T06:16:42Z</time>
      </trkpt>
      <trkpt lat="43.14638" lon="-0.55809">
        <ele>260.17</ele>
        <time>2021-08-20T06:16:44Z</time>
      </trkpt>
      <trkpt lat="43.14641" lon="-0.55819">
        <ele>260.17</ele>
        <time>2021-08-20T06:16:45Z</time>
      </trkpt>
      <trkpt lat="43.14645" lon="-0.55827">
        <ele>260.17</ele>
        <time>2021-08-20T06:16:46Z</time>
      </trkpt>
      <trkpt lat="43.14649" lon="-0.55835">
        <ele>260.17</ele>
        <time>2021-08-20T06:16:47Z</time>
      </trkpt>
      <trkpt lat="43.14653" lon="-0.55842">
        <ele>260.17</ele>
        <time>2021-08-20T06:16:48Z</time>
      </trkpt>
      <trkpt lat="43.14658" lon="-0.55849">
        <ele>260.17</ele>
        <time>2021-08-20T06:16:49Z</time>
      </trkpt>
      <trkpt lat="43.14663" lon="-0.55855">
        <ele>260.17</ele>
        <time>2021-08-20T06:16:50Z</time>
      </trkpt>
      <trkpt lat="43.14667" lon="-0.55859">
        <ele>260.17</ele>
        <time>2021-08-20T06:16:51Z</time>
      </trkpt>
      <trkpt lat="43.14676" lon="-0.55866">
        <ele>260.17</ele>
        <time>2021-08-20T06:16:53Z</time>
      </trkpt>
      <trkpt lat="43.1468" lon="-0.55871">
        <ele>260.17</ele>
        <time>2021-08-20T06:16:54Z</time>
      </trkpt>
      <trkpt lat="43.14701" lon="-0.55895">
        <ele>260.17</ele>
        <time>2021-08-20T06:17:00Z</time>
      </trkpt>
      <trkpt lat="43.14705" lon="-0.559">
        <ele>260.17</ele>
        <time>2021-08-20T06:17:01Z</time>
      </trkpt>
      <trkpt lat="43.14708" lon="-0.55904">
        <ele>260.17</ele>
        <time>2021-08-20T06:17:02Z</time>
      </trkpt>
      <trkpt lat="43.14716" lon="-0.55913">
        <ele>260.17</ele>
        <time>2021-08-20T06:17:04Z</time>
      </trkpt>
      <trkpt lat="43.1472" lon="-0.55917">
        <ele>260.17</ele>
        <time>2021-08-20T06:17:05Z</time>
      </trkpt>
      <trkpt lat="43.14725" lon="-0.5592">
        <ele>260.17</ele>
        <time>2021-08-20T06:17:06Z</time>
      </trkpt>
      <trkpt lat="43.1473" lon="-0.55922">
        <ele>260.17</ele>
        <time>2021-08-20T06:17:07Z</time>
      </trkpt>
      <trkpt lat="43.14734" lon="-0.55922">
        <ele>260.17</ele>
        <time>2021-08-20T06:17:08Z</time>
      </trkpt>
      <trkpt lat="43.14738" lon="-0.5592">
        <ele>260.17</ele>
        <time>2021-08-20T06:17:09Z</time>
      </trkpt>
      <trkpt lat="43.14742" lon="-0.55918">
        <ele>260.17</ele>
        <time>2021-08-20T06:17:10Z</time>
      </trkpt>
      <trkpt lat="43.14762" lon="-0.55913">
        <ele>260.17</ele>
        <time>2021-08-20T06:17:15Z</time>
      </trkpt>
      <trkpt lat="43.14787" lon="-0.55922">
        <ele>260.17</ele>
        <time>2021-08-20T06:17:21Z</time>
      </trkpt>
      <trkpt lat="43.14812" lon="-0.55933">
        <ele>259.21</ele>
        <time>2021-08-20T06:17:26Z</time>
      </trkpt>
      <trkpt lat="43.14846" lon="-0.55939">
        <ele>259.21</ele>
        <time>2021-08-20T06:17:32Z</time>
      </trkpt>
      <trkpt lat="43.14851" lon="-0.55938">
        <ele>259.21</ele>
        <time>2021-08-20T06:17:33Z</time>
      </trkpt>
      <trkpt lat="43.14856" lon="-0.55937">
        <ele>259.21</ele>
        <time>2021-08-20T06:17:34Z</time>
      </trkpt>
      <trkpt lat="43.14861" lon="-0.55937">
        <ele>259.21</ele>
        <time>2021-08-20T06:17:35Z</time>
      </trkpt>
      <trkpt lat="43.14866" lon="-0.55937">
        <ele>259.21</ele>
        <time>2021-08-20T06:17:36Z</time>
      </trkpt>
      <trkpt lat="43.14872" lon="-0.55936">
        <ele>259.21</ele>
        <time>2021-08-20T06:17:37Z</time>
      </trkpt>
      <trkpt lat="43.14877" lon="-0.55936">
        <ele>259.21</ele>
        <time>2021-08-20T06:17:38Z</time>
      </trkpt>
      <trkpt lat="43.14881" lon="-0.55935">
        <ele>259.21</ele>
        <time>2021-08-20T06:17:39Z</time>
      </trkpt>
      <trkpt lat="43.14886" lon="-0.55934">
        <ele>259.21</ele>
        <time>2021-08-20T06:17:40Z</time>
      </trkpt>
      <trkpt lat="43.14891" lon="-0.55932">
        <ele>259.21</ele>
        <time>2021-08-20T06:17:41Z</time>
      </trkpt>
      <trkpt lat="43.14895" lon="-0.55929">
        <ele>259.21</ele>
        <time>2021-08-20T06:17:42Z</time>
      </trkpt>
      <trkpt lat="43.14928" lon="-0.55915">
        <ele>259.21</ele>
        <time>2021-08-20T06:17:49Z</time>
      </trkpt>
      <trkpt lat="43.14933" lon="-0.55913">
        <ele>259.21</ele>
        <time>2021-08-20T06:17:50Z</time>
      </trkpt>
      <trkpt lat="43.14938" lon="-0.55912">
        <ele>259.21</ele>
        <time>2021-08-20T06:17:51Z</time>
      </trkpt>
      <trkpt lat="43.14943" lon="-0.55911">
        <ele>259.21</ele>
        <time>2021-08-20T06:17:52Z</time>
      </trkpt>
      <trkpt lat="43.14948" lon="-0.55911">
        <ele>259.21</ele>
        <time>2021-08-20T06:17:53Z</time>
      </trkpt>
      <trkpt lat="43.14954" lon="-0.5591">
        <ele>259.21</ele>
        <time>2021-08-20T06:17:54Z</time>
      </trkpt>
      <trkpt lat="43.14959" lon="-0.5591">
        <ele>259.21</ele>
        <time>2021-08-20T06:17:55Z</time>
      </trkpt>
      <trkpt lat="43.14983" lon="-0.55909">
        <ele>259.21</ele>
        <time>2021-08-20T06:18:00Z</time>
      </trkpt>
      <trkpt lat="43.15009" lon="-0.55909">
        <ele>259.21</ele>
        <time>2021-08-20T06:18:05Z</time>
      </trkpt>
      <trkpt lat="43.15015" lon="-0.55909">
        <ele>259.21</ele>
        <time>2021-08-20T06:18:06Z</time>
      </trkpt>
      <trkpt lat="43.15021" lon="-0.55909">
        <ele>259.21</ele>
        <time>2021-08-20T06:18:07Z</time>
      </trkpt>
      <trkpt lat="43.15026" lon="-0.5591">
        <ele>259.21</ele>
        <time>2021-08-20T06:18:08Z</time>
      </trkpt>
      <trkpt lat="43.15032" lon="-0.5591">
        <ele>259.21</ele>
        <time>2021-08-20T06:18:09Z</time>
      </trkpt>
      <trkpt lat="43.15062" lon="-0.55917">
        <ele>258.73</ele>
        <time>2021-08-20T06:18:15Z</time>
      </trkpt>
      <trkpt lat="43.15088" lon="-0.55928">
        <ele>257.77</ele>
        <time>2021-08-20T06:18:20Z</time>
      </trkpt>
      <trkpt lat="43.15124" lon="-0.55954">
        <ele>257.29</ele>
        <time>2021-08-20T06:18:27Z</time>
      </trkpt>
      <trkpt lat="43.15133" lon="-0.55961">
        <ele>257.29</ele>
        <time>2021-08-20T06:18:29Z</time>
      </trkpt>
      <trkpt lat="43.15137" lon="-0.55964">
        <ele>258.25</ele>
        <time>2021-08-20T06:18:30Z</time>
      </trkpt>
      <trkpt lat="43.15168" lon="-0.55983">
        <ele>258.25</ele>
        <time>2021-08-20T06:18:37Z</time>
      </trkpt>
      <trkpt lat="43.15173" lon="-0.55986">
        <ele>258.73</ele>
        <time>2021-08-20T06:18:38Z</time>
      </trkpt>
      <trkpt lat="43.15206" lon="-0.56007">
        <ele>258.73</ele>
        <time>2021-08-20T06:18:45Z</time>
      </trkpt>
      <trkpt lat="43.15211" lon="-0.5601">
        <ele>258.73</ele>
        <time>2021-08-20T06:18:46Z</time>
      </trkpt>
      <trkpt lat="43.15217" lon="-0.56012">
        <ele>258.73</ele>
        <time>2021-08-20T06:18:47Z</time>
      </trkpt>
      <trkpt lat="43.1525" lon="-0.56031">
        <ele>258.73</ele>
        <time>2021-08-20T06:18:54Z</time>
      </trkpt>
      <trkpt lat="43.15255" lon="-0.56035">
        <ele>258.73</ele>
        <time>2021-08-20T06:18:55Z</time>
      </trkpt>
      <trkpt lat="43.15268" lon="-0.56048">
        <ele>257.29</ele>
        <time>2021-08-20T06:18:58Z</time>
      </trkpt>
      <trkpt lat="43.15301" lon="-0.56078">
        <ele>256.81</ele>
        <time>2021-08-20T06:19:05Z</time>
      </trkpt>
      <trkpt lat="43.15318" lon="-0.56096">
        <ele>257.29</ele>
        <time>2021-08-20T06:19:09Z</time>
      </trkpt>
      <trkpt lat="43.15321" lon="-0.561">
        <ele>256.81</ele>
        <time>2021-08-20T06:19:10Z</time>
      </trkpt>
      <trkpt lat="43.1533" lon="-0.5611">
        <ele>257.29</ele>
        <time>2021-08-20T06:19:12Z</time>
      </trkpt>
      <trkpt lat="43.1536" lon="-0.56151">
        <ele>257.29</ele>
        <time>2021-08-20T06:19:19Z</time>
      </trkpt>
      <trkpt lat="43.15375" lon="-0.56174">
        <ele>256.33</ele>
        <time>2021-08-20T06:19:23Z</time>
      </trkpt>
      <trkpt lat="43.1538" lon="-0.5618">
        <ele>256.33</ele>
        <time>2021-08-20T06:19:24Z</time>
      </trkpt>
      <trkpt lat="43.15409" lon="-0.56213">
        <ele>255.85</ele>
        <time>2021-08-20T06:19:30Z</time>
      </trkpt>
      <trkpt lat="43.15418" lon="-0.56223">
        <ele>255.85</ele>
        <time>2021-08-20T06:19:32Z</time>
      </trkpt>
      <trkpt lat="43.15423" lon="-0.56229">
        <ele>255.85</ele>
        <time>2021-08-20T06:19:33Z</time>
      </trkpt>
      <trkpt lat="43.15427" lon="-0.56234">
        <ele>255.85</ele>
        <time>2021-08-20T06:19:34Z</time>
      </trkpt>
      <trkpt lat="43.15463" lon="-0.5628">
        <ele>255.85</ele>
        <time>2021-08-20T06:19:42Z</time>
      </trkpt>
      <trkpt lat="43.15471" lon="-0.56289">
        <ele>257.29</ele>
        <time>2021-08-20T06:19:44Z</time>
      </trkpt>
      <trkpt lat="43.15498" lon="-0.56313">
        <ele>257.77</ele>
        <time>2021-08-20T06:19:51Z</time>
      </trkpt>
      <trkpt lat="43.15529" lon="-0.56352">
        <ele>256.81</ele>
        <time>2021-08-20T06:19:58Z</time>
      </trkpt>
      <trkpt lat="43.15535" lon="-0.56358">
        <ele>256.81</ele>
        <time>2021-08-20T06:19:59Z</time>
      </trkpt>
      <trkpt lat="43.15566" lon="-0.56391">
        <ele>256.33</ele>
        <time>2021-08-20T06:20:05Z</time>
      </trkpt>
      <trkpt lat="43.15571" lon="-0.56396">
        <ele>256.33</ele>
        <time>2021-08-20T06:20:06Z</time>
      </trkpt>
      <trkpt lat="43.15607" lon="-0.56433">
        <ele>255.37</ele>
        <time>2021-08-20T06:20:13Z</time>
      </trkpt>
      <trkpt lat="43.15613" lon="-0.56438">
        <ele>255.37</ele>
        <time>2021-08-20T06:20:14Z</time>
      </trkpt>
      <trkpt lat="43.15618" lon="-0.56442">
        <ele>255.37</ele>
        <time>2021-08-20T06:20:15Z</time>
      </trkpt>
      <trkpt lat="43.15632" lon="-0.5645">
        <ele>255.37</ele>
        <time>2021-08-20T06:20:17Z</time>
      </trkpt>
      <trkpt lat="43.15638" lon="-0.56452">
        <ele>254.89</ele>
        <time>2021-08-20T06:20:18Z</time>
      </trkpt>
      <trkpt lat="43.15645" lon="-0.56452">
        <ele>254.89</ele>
        <time>2021-08-20T06:20:19Z</time>
      </trkpt>
      <trkpt lat="43.15665" lon="-0.56449">
        <ele>254.89</ele>
        <time>2021-08-20T06:20:22Z</time>
      </trkpt>
      <trkpt lat="43.15671" lon="-0.56447">
        <ele>253.93</ele>
        <time>2021-08-20T06:20:23Z</time>
      </trkpt>
      <trkpt lat="43.15677" lon="-0.56446">
        <ele>253.93</ele>
        <time>2021-08-20T06:20:24Z</time>
      </trkpt>
      <trkpt lat="43.15696" lon="-0.56441">
        <ele>253.93</ele>
        <time>2021-08-20T06:20:27Z</time>
      </trkpt>
      <trkpt lat="43.15718" lon="-0.56439">
        <ele>252.48</ele>
        <time>2021-08-20T06:20:30Z</time>
      </trkpt>
      <trkpt lat="43.15725" lon="-0.56439">
        <ele>252.48</ele>
        <time>2021-08-20T06:20:31Z</time>
      </trkpt>
      <trkpt lat="43.15745" lon="-0.56438">
        <ele>252.48</ele>
        <time>2021-08-20T06:20:34Z</time>
      </trkpt>
      <trkpt lat="43.15757" lon="-0.56435">
        <ele>252.48</ele>
        <time>2021-08-20T06:20:36Z</time>
      </trkpt>
      <trkpt lat="43.1578" lon="-0.56423">
        <ele>252.48</ele>
        <time>2021-08-20T06:20:40Z</time>
      </trkpt>
      <trkpt lat="43.15792" lon="-0.56418">
        <ele>252.48</ele>
        <time>2021-08-20T06:20:42Z</time>
      </trkpt>
      <trkpt lat="43.15798" lon="-0.56417">
        <ele>252.48</ele>
        <time>2021-08-20T06:20:43Z</time>
      </trkpt>
      <trkpt lat="43.15802" lon="-0.56417">
        <ele>252.48</ele>
        <time>2021-08-20T06:20:44Z</time>
      </trkpt>
      <trkpt lat="43.15814" lon="-0.56416">
        <ele>253.44</ele>
        <time>2021-08-20T06:20:47Z</time>
      </trkpt>
      <trkpt lat="43.15822" lon="-0.56415">
        <ele>253.93</ele>
        <time>2021-08-20T06:20:50Z</time>
      </trkpt>
      <trkpt lat="43.15824" lon="-0.56417">
        <ele>254.89</ele>
        <time>2021-08-20T06:20:54Z</time>
      </trkpt>
      <trkpt lat="43.15823" lon="-0.56416">
        <ele>254.89</ele>
        <time>2021-08-20T06:20:55Z</time>
      </trkpt>
      <trkpt lat="43.15822" lon="-0.56416">
        <ele>254.89</ele>
        <time>2021-08-20T06:20:56Z</time>
      </trkpt>
      <trkpt lat="43.1582" lon="-0.56417">
        <ele>254.89</ele>
        <time>2021-08-20T06:20:57Z</time>
      </trkpt>
      <trkpt lat="43.15819" lon="-0.56417">
        <ele>254.89</ele>
        <time>2021-08-20T06:20:58Z</time>
      </trkpt>
      <trkpt lat="43.15817" lon="-0.56417">
        <ele>254.89</ele>
        <time>2021-08-20T06:20:59Z</time>
      </trkpt>
      <trkpt lat="43.15816" lon="-0.56417">
        <ele>254.89</ele>
        <time>2021-08-20T06:21:00Z</time>
      </trkpt>
      <trkpt lat="43.15814" lon="-0.56417">
        <ele>254.89</ele>
        <time>2021-08-20T06:21:01Z</time>
      </trkpt>
      <trkpt lat="43.15813" lon="-0.56416">
        <ele>254.89</ele>
        <time>2021-08-20T06:21:02Z</time>
      </trkpt>
      <trkpt lat="43.15812" lon="-0.56413">
        <ele>254.89</ele>
        <time>2021-08-20T06:21:08Z</time>
      </trkpt>
      <trkpt lat="43.15816" lon="-0.56417">
        <ele>254.89</ele>
        <time>2021-08-20T06:21:14Z</time>
      </trkpt>
      <trkpt lat="43.15817" lon="-0.56419">
        <ele>252.96</ele>
        <time>2021-08-20T06:21:15Z</time>
      </trkpt>
      <trkpt lat="43.15819" lon="-0.56422">
        <ele>252.96</ele>
        <time>2021-08-20T06:21:16Z</time>
      </trkpt>
      <trkpt lat="43.15821" lon="-0.56425">
        <ele>252.48</ele>
        <time>2021-08-20T06:21:17Z</time>
      </trkpt>
      <trkpt lat="43.15822" lon="-0.56428">
        <ele>252.48</ele>
        <time>2021-08-20T06:21:18Z</time>
      </trkpt>
      <trkpt lat="43.15823" lon="-0.5643">
        <ele>252.48</ele>
        <time>2021-08-20T06:21:19Z</time>
      </trkpt>
      <trkpt lat="43.15826" lon="-0.56435">
        <ele>253.93</ele>
        <time>2021-08-20T06:21:22Z</time>
      </trkpt>
      <trkpt lat="43.15828" lon="-0.56436">
        <ele>253.93</ele>
        <time>2021-08-20T06:21:23Z</time>
      </trkpt>
      <trkpt lat="43.15829" lon="-0.56438">
        <ele>253.93</ele>
        <time>2021-08-20T06:21:24Z</time>
      </trkpt>
      <trkpt lat="43.15831" lon="-0.5644">
        <ele>253.93</ele>
        <time>2021-08-20T06:21:25Z</time>
      </trkpt>
      <trkpt lat="43.15833" lon="-0.56442">
        <ele>253.93</ele>
        <time>2021-08-20T06:21:26Z</time>
      </trkpt>
      <trkpt lat="43.15835" lon="-0.56445">
        <ele>254.41</ele>
        <time>2021-08-20T06:21:27Z</time>
      </trkpt>
      <trkpt lat="43.15845" lon="-0.56461">
        <ele>255.37</ele>
        <time>2021-08-20T06:21:34Z</time>
      </trkpt>
      <trkpt lat="43.15847" lon="-0.56467">
        <ele>256.33</ele>
        <time>2021-08-20T06:21:36Z</time>
      </trkpt>
      <trkpt lat="43.15848" lon="-0.5647">
        <ele>256.33</ele>
        <time>2021-08-20T06:21:37Z</time>
      </trkpt>
      <trkpt lat="43.15849" lon="-0.56472">
        <ele>256.33</ele>
        <time>2021-08-20T06:21:38Z</time>
      </trkpt>
      <trkpt lat="43.15854" lon="-0.56482">
        <ele>257.29</ele>
        <time>2021-08-20T06:21:42Z</time>
      </trkpt>
      <trkpt lat="43.15855" lon="-0.56486">
        <ele>257.29</ele>
        <time>2021-08-20T06:21:43Z</time>
      </trkpt>
      <trkpt lat="43.15855" lon="-0.56489">
        <ele>257.29</ele>
        <time>2021-08-20T06:21:44Z</time>
      </trkpt>
      <trkpt lat="43.15855" lon="-0.56494">
        <ele>257.29</ele>
        <time>2021-08-20T06:21:45Z</time>
      </trkpt>
      <trkpt lat="43.15856" lon="-0.56499">
        <ele>257.29</ele>
        <time>2021-08-20T06:21:46Z</time>
      </trkpt>
      <trkpt lat="43.15857" lon="-0.56504">
        <ele>257.29</ele>
        <time>2021-08-20T06:21:47Z</time>
      </trkpt>
      <trkpt lat="43.15859" lon="-0.56509">
        <ele>257.29</ele>
        <time>2021-08-20T06:21:48Z</time>
      </trkpt>
      <trkpt lat="43.1586" lon="-0.56513">
        <ele>257.29</ele>
        <time>2021-08-20T06:21:49Z</time>
      </trkpt>
      <trkpt lat="43.15861" lon="-0.56517">
        <ele>256.81</ele>
        <time>2021-08-20T06:21:50Z</time>
      </trkpt>
      <trkpt lat="43.15867" lon="-0.5655">
        <ele>256.81</ele>
        <time>2021-08-20T06:21:57Z</time>
      </trkpt>
      <trkpt lat="43.1587" lon="-0.56581">
        <ele>256.81</ele>
        <time>2021-08-20T06:22:04Z</time>
      </trkpt>
      <trkpt lat="43.1587" lon="-0.56591">
        <ele>255.37</ele>
        <time>2021-08-20T06:22:06Z</time>
      </trkpt>
      <trkpt lat="43.15872" lon="-0.56615">
        <ele>254.89</ele>
        <time>2021-08-20T06:22:11Z</time>
      </trkpt>
      <trkpt lat="43.15875" lon="-0.56625">
        <ele>254.89</ele>
        <time>2021-08-20T06:22:14Z</time>
      </trkpt>
      <trkpt lat="43.15877" lon="-0.56626">
        <ele>254.89</ele>
        <time>2021-08-20T06:22:15Z</time>
      </trkpt>
      <trkpt lat="43.1588" lon="-0.56629">
        <ele>256.33</ele>
        <time>2021-08-20T06:22:21Z</time>
      </trkpt>
      <trkpt lat="43.15881" lon="-0.56629">
        <ele>256.33</ele>
        <time>2021-08-20T06:22:22Z</time>
      </trkpt>
      <trkpt lat="43.15886" lon="-0.5663">
        <ele>258.25</ele>
        <time>2021-08-20T06:22:32Z</time>
      </trkpt>
      <trkpt lat="43.15891" lon="-0.56629">
        <ele>260.65</ele>
        <time>2021-08-20T06:22:42Z</time>
      </trkpt>
      <trkpt lat="43.15894" lon="-0.56631">
        <ele>261.62</ele>
        <time>2021-08-20T06:22:51Z</time>
      </trkpt>
      <trkpt lat="43.15895" lon="-0.56633">
        <ele>261.62</ele>
        <time>2021-08-20T06:22:59Z</time>
      </trkpt>
      <trkpt lat="43.15902" lon="-0.56639">
        <ele>261.62</ele>
        <time>2021-08-20T06:23:05Z</time>
      </trkpt>
      <trkpt lat="43.15912" lon="-0.5665">
        <ele>262.58</ele>
        <time>2021-08-20T06:23:11Z</time>
      </trkpt>
      <trkpt lat="43.15921" lon="-0.56679">
        <ele>259.21</ele>
        <time>2021-08-20T06:23:16Z</time>
      </trkpt>
      <trkpt lat="43.15925" lon="-0.56698">
        <ele>257.77</ele>
        <time>2021-08-20T06:23:19Z</time>
      </trkpt>
      <trkpt lat="43.15927" lon="-0.56705">
        <ele>256.81</ele>
        <time>2021-08-20T06:23:20Z</time>
      </trkpt>
      <trkpt lat="43.1593" lon="-0.56711">
        <ele>256.81</ele>
        <time>2021-08-20T06:23:21Z</time>
      </trkpt>
      <trkpt lat="43.15933" lon="-0.56717">
        <ele>255.85</ele>
        <time>2021-08-20T06:23:22Z</time>
      </trkpt>
      <trkpt lat="43.15936" lon="-0.56723">
        <ele>255.85</ele>
        <time>2021-08-20T06:23:23Z</time>
      </trkpt>
      <trkpt lat="43.1594" lon="-0.56729">
        <ele>255.85</ele>
        <time>2021-08-20T06:23:24Z</time>
      </trkpt>
      <trkpt lat="43.15943" lon="-0.56734">
        <ele>255.37</ele>
        <time>2021-08-20T06:23:25Z</time>
      </trkpt>
      <trkpt lat="43.15976" lon="-0.56768">
        <ele>254.41</ele>
        <time>2021-08-20T06:23:33Z</time>
      </trkpt>
      <trkpt lat="43.15983" lon="-0.56776">
        <ele>254.41</ele>
        <time>2021-08-20T06:23:35Z</time>
      </trkpt>
      <trkpt lat="43.15995" lon="-0.56801">
        <ele>254.41</ele>
        <time>2021-08-20T06:23:41Z</time>
      </trkpt>
      <trkpt lat="43.15999" lon="-0.56817">
        <ele>254.41</ele>
        <time>2021-08-20T06:23:44Z</time>
      </trkpt>
      <trkpt lat="43.16001" lon="-0.56823">
        <ele>254.41</ele>
        <time>2021-08-20T06:23:45Z</time>
      </trkpt>
      <trkpt lat="43.16003" lon="-0.56829">
        <ele>254.41</ele>
        <time>2021-08-20T06:23:46Z</time>
      </trkpt>
      <trkpt lat="43.16004" lon="-0.56836">
        <ele>254.41</ele>
        <time>2021-08-20T06:23:47Z</time>
      </trkpt>
      <trkpt lat="43.16006" lon="-0.56842">
        <ele>254.41</ele>
        <time>2021-08-20T06:23:48Z</time>
      </trkpt>
      <trkpt lat="43.16008" lon="-0.56855">
        <ele>253.93</ele>
        <time>2021-08-20T06:23:50Z</time>
      </trkpt>
      <trkpt lat="43.1601" lon="-0.56861">
        <ele>253.93</ele>
        <time>2021-08-20T06:23:51Z</time>
      </trkpt>
      <trkpt lat="43.16011" lon="-0.56867">
        <ele>253.93</ele>
        <time>2021-08-20T06:23:52Z</time>
      </trkpt>
      <trkpt lat="43.16011" lon="-0.56872">
        <ele>253.93</ele>
        <time>2021-08-20T06:23:53Z</time>
      </trkpt>
      <trkpt lat="43.16012" lon="-0.56878">
        <ele>253.93</ele>
        <time>2021-08-20T06:23:54Z</time>
      </trkpt>
      <trkpt lat="43.16013" lon="-0.56907">
        <ele>253.44</ele>
        <time>2021-08-20T06:24:00Z</time>
      </trkpt>
      <trkpt lat="43.16023" lon="-0.56933">
        <ele>254.89</ele>
        <time>2021-08-20T06:24:06Z</time>
      </trkpt>
      <trkpt lat="43.16039" lon="-0.56962">
        <ele>255.85</ele>
        <time>2021-08-20T06:24:14Z</time>
      </trkpt>
      <trkpt lat="43.16049" lon="-0.56988">
        <ele>254.41</ele>
        <time>2021-08-20T06:24:19Z</time>
      </trkpt>
      <trkpt lat="43.1606" lon="-0.57038">
        <ele>253.44</ele>
        <time>2021-08-20T06:24:27Z</time>
      </trkpt>
      <trkpt lat="43.16065" lon="-0.57054">
        <ele>253.44</ele>
        <time>2021-08-20T06:24:30Z</time>
      </trkpt>
      <trkpt lat="43.16083" lon="-0.57084">
        <ele>252.96</ele>
        <time>2021-08-20T06:24:37Z</time>
      </trkpt>
      <trkpt lat="43.16086" lon="-0.57088">
        <ele>252.96</ele>
        <time>2021-08-20T06:24:38Z</time>
      </trkpt>
      <trkpt lat="43.16118" lon="-0.57109">
        <ele>252.48</ele>
        <time>2021-08-20T06:24:46Z</time>
      </trkpt>
      <trkpt lat="43.16142" lon="-0.57118">
        <ele>252.48</ele>
        <time>2021-08-20T06:24:53Z</time>
      </trkpt>
      <trkpt lat="43.1615" lon="-0.5712">
        <ele>252.48</ele>
        <time>2021-08-20T06:24:55Z</time>
      </trkpt>
      <trkpt lat="43.16159" lon="-0.5712">
        <ele>252.48</ele>
        <time>2021-08-20T06:24:57Z</time>
      </trkpt>
      <trkpt lat="43.16164" lon="-0.57119">
        <ele>252.48</ele>
        <time>2021-08-20T06:24:58Z</time>
      </trkpt>
      <trkpt lat="43.16183" lon="-0.57111">
        <ele>252.48</ele>
        <time>2021-08-20T06:25:02Z</time>
      </trkpt>
      <trkpt lat="43.16188" lon="-0.57111">
        <ele>252.48</ele>
        <time>2021-08-20T06:25:03Z</time>
      </trkpt>
      <trkpt lat="43.16192" lon="-0.57113">
        <ele>252.48</ele>
        <time>2021-08-20T06:25:04Z</time>
      </trkpt>
      <trkpt lat="43.16196" lon="-0.57115">
        <ele>252</ele>
        <time>2021-08-20T06:25:05Z</time>
      </trkpt>
      <trkpt lat="43.16199" lon="-0.57118">
        <ele>252</ele>
        <time>2021-08-20T06:25:06Z</time>
      </trkpt>
      <trkpt lat="43.16201" lon="-0.57118">
        <ele>252</ele>
        <time>2021-08-20T06:25:10Z</time>
      </trkpt>
      <trkpt lat="43.16201" lon="-0.57117">
        <ele>252</ele>
        <time>2021-08-20T06:25:16Z</time>
      </trkpt>
      <trkpt lat="43.16204" lon="-0.5711">
        <ele>252.96</ele>
        <time>2021-08-20T06:25:25Z</time>
      </trkpt>
      <trkpt lat="43.16205" lon="-0.57108">
        <ele>252.96</ele>
        <time>2021-08-20T06:25:32Z</time>
      </trkpt>
      <trkpt lat="43.16207" lon="-0.57108">
        <ele>252.96</ele>
        <time>2021-08-20T06:25:37Z</time>
      </trkpt>
      <trkpt lat="43.16209" lon="-0.57108">
        <ele>252.96</ele>
        <time>2021-08-20T06:25:38Z</time>
      </trkpt>
      <trkpt lat="43.16212" lon="-0.57109">
        <ele>252.96</ele>
        <time>2021-08-20T06:25:40Z</time>
      </trkpt>
      <trkpt lat="43.16214" lon="-0.5711">
        <ele>251.52</ele>
        <time>2021-08-20T06:25:41Z</time>
      </trkpt>
      <trkpt lat="43.16215" lon="-0.57111">
        <ele>251.52</ele>
        <time>2021-08-20T06:25:42Z</time>
      </trkpt>
      <trkpt lat="43.16217" lon="-0.57112">
        <ele>251.52</ele>
        <time>2021-08-20T06:25:43Z</time>
      </trkpt>
      <trkpt lat="43.16219" lon="-0.57114">
        <ele>251.04</ele>
        <time>2021-08-20T06:25:44Z</time>
      </trkpt>
      <trkpt lat="43.16222" lon="-0.57116">
        <ele>251.04</ele>
        <time>2021-08-20T06:25:45Z</time>
      </trkpt>
      <trkpt lat="43.16225" lon="-0.57117">
        <ele>251.04</ele>
        <time>2021-08-20T06:25:47Z</time>
      </trkpt>
      <trkpt lat="43.16242" lon="-0.57114">
        <ele>250.56</ele>
        <time>2021-08-20T06:25:53Z</time>
      </trkpt>
      <trkpt lat="43.16259" lon="-0.571">
        <ele>250.08</ele>
        <time>2021-08-20T06:25:59Z</time>
      </trkpt>
      <trkpt lat="43.16272" lon="-0.57087">
        <ele>249.6</ele>
        <time>2021-08-20T06:26:05Z</time>
      </trkpt>
      <trkpt lat="43.16278" lon="-0.57084">
        <ele>249.6</ele>
        <time>2021-08-20T06:26:07Z</time>
      </trkpt>
      <trkpt lat="43.16281" lon="-0.57084">
        <ele>249.6</ele>
        <time>2021-08-20T06:26:08Z</time>
      </trkpt>
      <trkpt lat="43.16285" lon="-0.57083">
        <ele>249.6</ele>
        <time>2021-08-20T06:26:09Z</time>
      </trkpt>
      <trkpt lat="43.16287" lon="-0.57081">
        <ele>249.6</ele>
        <time>2021-08-20T06:26:10Z</time>
      </trkpt>
      <trkpt lat="43.16289" lon="-0.57081">
        <ele>249.6</ele>
        <time>2021-08-20T06:26:11Z</time>
      </trkpt>
      <trkpt lat="43.1629" lon="-0.5708">
        <ele>249.6</ele>
        <time>2021-08-20T06:26:12Z</time>
      </trkpt>
      <trkpt lat="43.16296" lon="-0.5708">
        <ele>249.6</ele>
        <time>2021-08-20T06:26:14Z</time>
      </trkpt>
      <trkpt lat="43.16299" lon="-0.57079">
        <ele>249.12</ele>
        <time>2021-08-20T06:26:15Z</time>
      </trkpt>
      <trkpt lat="43.16302" lon="-0.57077">
        <ele>249.12</ele>
        <time>2021-08-20T06:26:16Z</time>
      </trkpt>
      <trkpt lat="43.16306" lon="-0.57075">
        <ele>249.12</ele>
        <time>2021-08-20T06:26:17Z</time>
      </trkpt>
      <trkpt lat="43.16309" lon="-0.57075">
        <ele>249.12</ele>
        <time>2021-08-20T06:26:18Z</time>
      </trkpt>
      <trkpt lat="43.16313" lon="-0.57075">
        <ele>249.12</ele>
        <time>2021-08-20T06:26:19Z</time>
      </trkpt>
      <trkpt lat="43.16317" lon="-0.57074">
        <ele>249.12</ele>
        <time>2021-08-20T06:26:20Z</time>
      </trkpt>
      <trkpt lat="43.16331" lon="-0.57068">
        <ele>248.16</ele>
        <time>2021-08-20T06:26:25Z</time>
      </trkpt>
      <trkpt lat="43.16337" lon="-0.57061">
        <ele>248.16</ele>
        <time>2021-08-20T06:26:28Z</time>
      </trkpt>
      <trkpt lat="43.16338" lon="-0.5706">
        <ele>248.16</ele>
        <time>2021-08-20T06:26:29Z</time>
      </trkpt>
      <trkpt lat="43.1634" lon="-0.57059">
        <ele>248.16</ele>
        <time>2021-08-20T06:26:30Z</time>
      </trkpt>
      <trkpt lat="43.16341" lon="-0.57058">
        <ele>248.16</ele>
        <time>2021-08-20T06:26:31Z</time>
      </trkpt>
      <trkpt lat="43.16342" lon="-0.57056">
        <ele>248.16</ele>
        <time>2021-08-20T06:26:32Z</time>
      </trkpt>
      <trkpt lat="43.16348" lon="-0.57052">
        <ele>249.6</ele>
        <time>2021-08-20T06:26:37Z</time>
      </trkpt>
      <trkpt lat="43.16358" lon="-0.57045">
        <ele>249.6</ele>
        <time>2021-08-20T06:26:44Z</time>
      </trkpt>
      <trkpt lat="43.1636" lon="-0.57043">
        <ele>249.6</ele>
        <time>2021-08-20T06:26:45Z</time>
      </trkpt>
      <trkpt lat="43.16361" lon="-0.57042">
        <ele>249.6</ele>
        <time>2021-08-20T06:26:46Z</time>
      </trkpt>
      <trkpt lat="43.16365" lon="-0.57038">
        <ele>250.08</ele>
        <time>2021-08-20T06:26:53Z</time>
      </trkpt>
      <trkpt lat="43.16374" lon="-0.57031">
        <ele>250.56</ele>
        <time>2021-08-20T06:27:01Z</time>
      </trkpt>
      <trkpt lat="43.1638" lon="-0.57027">
        <ele>250.56</ele>
        <time>2021-08-20T06:27:08Z</time>
      </trkpt>
      <trkpt lat="43.16384" lon="-0.57019">
        <ele>251.04</ele>
        <time>2021-08-20T06:27:13Z</time>
      </trkpt>
      <trkpt lat="43.16385" lon="-0.57012">
        <ele>252</ele>
        <time>2021-08-20T06:27:19Z</time>
      </trkpt>
      <trkpt lat="43.16383" lon="-0.57006">
        <ele>252</ele>
        <time>2021-08-20T06:27:27Z</time>
      </trkpt>
      <trkpt lat="43.16382" lon="-0.57">
        <ele>252.96</ele>
        <time>2021-08-20T06:27:36Z</time>
      </trkpt>
      <trkpt lat="43.16383" lon="-0.56996">
        <ele>252.96</ele>
        <time>2021-08-20T06:27:38Z</time>
      </trkpt>
      <trkpt lat="43.16387" lon="-0.56994">
        <ele>252.96</ele>
        <time>2021-08-20T06:27:42Z</time>
      </trkpt>
      <trkpt lat="43.16393" lon="-0.56993">
        <ele>252.96</ele>
        <time>2021-08-20T06:27:50Z</time>
      </trkpt>
      <trkpt lat="43.16394" lon="-0.56993">
        <ele>252.96</ele>
        <time>2021-08-20T06:27:51Z</time>
      </trkpt>
      <trkpt lat="43.16396" lon="-0.56994">
        <ele>252.96</ele>
        <time>2021-08-20T06:27:52Z</time>
      </trkpt>
      <trkpt lat="43.16398" lon="-0.56994">
        <ele>252.96</ele>
        <time>2021-08-20T06:27:53Z</time>
      </trkpt>
      <trkpt lat="43.164" lon="-0.56995">
        <ele>253.44</ele>
        <time>2021-08-20T06:27:54Z</time>
      </trkpt>
      <trkpt lat="43.16406" lon="-0.56998">
        <ele>253.93</ele>
        <time>2021-08-20T06:27:57Z</time>
      </trkpt>
      <trkpt lat="43.16409" lon="-0.57001">
        <ele>253.44</ele>
        <time>2021-08-20T06:27:59Z</time>
      </trkpt>
      <trkpt lat="43.16411" lon="-0.57002">
        <ele>252</ele>
        <time>2021-08-20T06:28:00Z</time>
      </trkpt>
      <trkpt lat="43.16413" lon="-0.57003">
        <ele>252</ele>
        <time>2021-08-20T06:28:01Z</time>
      </trkpt>
      <trkpt lat="43.16418" lon="-0.57002">
        <ele>250.56</ele>
        <time>2021-08-20T06:28:03Z</time>
      </trkpt>
      <trkpt lat="43.16422" lon="-0.56999">
        <ele>249.6</ele>
        <time>2021-08-20T06:28:05Z</time>
      </trkpt>
      <trkpt lat="43.1643" lon="-0.56992">
        <ele>247.68</ele>
        <time>2021-08-20T06:28:09Z</time>
      </trkpt>
      <trkpt lat="43.16433" lon="-0.56992">
        <ele>246.23</ele>
        <time>2021-08-20T06:28:10Z</time>
      </trkpt>
      <trkpt lat="43.16437" lon="-0.56992">
        <ele>246.23</ele>
        <time>2021-08-20T06:28:11Z</time>
      </trkpt>
      <trkpt lat="43.16457" lon="-0.56988">
        <ele>247.68</ele>
        <time>2021-08-20T06:28:17Z</time>
      </trkpt>
      <trkpt lat="43.16461" lon="-0.56987">
        <ele>248.16</ele>
        <time>2021-08-20T06:28:19Z</time>
      </trkpt>
      <trkpt lat="43.16463" lon="-0.56987">
        <ele>248.16</ele>
        <time>2021-08-20T06:28:20Z</time>
      </trkpt>
      <trkpt lat="43.16465" lon="-0.56988">
        <ele>248.64</ele>
        <time>2021-08-20T06:28:21Z</time>
      </trkpt>
      <trkpt lat="43.16467" lon="-0.56989">
        <ele>248.64</ele>
        <time>2021-08-20T06:28:22Z</time>
      </trkpt>
      <trkpt lat="43.16469" lon="-0.5699">
        <ele>248.64</ele>
        <time>2021-08-20T06:28:23Z</time>
      </trkpt>
      <trkpt lat="43.16471" lon="-0.56991">
        <ele>248.64</ele>
        <time>2021-08-20T06:28:24Z</time>
      </trkpt>
      <trkpt lat="43.16488" lon="-0.56998">
        <ele>249.12</ele>
        <time>2021-08-20T06:28:31Z</time>
      </trkpt>
      <trkpt lat="43.16498" lon="-0.57003">
        <ele>248.16</ele>
        <time>2021-08-20T06:28:34Z</time>
      </trkpt>
      <trkpt lat="43.16514" lon="-0.57008">
        <ele>248.16</ele>
        <time>2021-08-20T06:28:40Z</time>
      </trkpt>
      <trkpt lat="43.16533" lon="-0.57015">
        <ele>246.72</ele>
        <time>2021-08-20T06:28:46Z</time>
      </trkpt>
      <trkpt lat="43.16549" lon="-0.57018">
        <ele>247.2</ele>
        <time>2021-08-20T06:28:52Z</time>
      </trkpt>
      <trkpt lat="43.16564" lon="-0.57018">
        <ele>246.23</ele>
        <time>2021-08-20T06:28:58Z</time>
      </trkpt>
      <trkpt lat="43.16584" lon="-0.57011">
        <ele>247.68</ele>
        <time>2021-08-20T06:29:04Z</time>
      </trkpt>
      <trkpt lat="43.1659" lon="-0.57008">
        <ele>248.16</ele>
        <time>2021-08-20T06:29:06Z</time>
      </trkpt>
      <trkpt lat="43.16593" lon="-0.57008">
        <ele>248.16</ele>
        <time>2021-08-20T06:29:07Z</time>
      </trkpt>
      <trkpt lat="43.16606" lon="-0.57008">
        <ele>248.64</ele>
        <time>2021-08-20T06:29:12Z</time>
      </trkpt>
      <trkpt lat="43.16608" lon="-0.57009">
        <ele>248.64</ele>
        <time>2021-08-20T06:29:13Z</time>
      </trkpt>
      <trkpt lat="43.16611" lon="-0.57009">
        <ele>246.72</ele>
        <time>2021-08-20T06:29:14Z</time>
      </trkpt>
      <trkpt lat="43.16614" lon="-0.5701">
        <ele>245.75</ele>
        <time>2021-08-20T06:29:15Z</time>
      </trkpt>
      <trkpt lat="43.16617" lon="-0.5701">
        <ele>244.79</ele>
        <time>2021-08-20T06:29:16Z</time>
      </trkpt>
      <trkpt lat="43.1662" lon="-0.57012">
        <ele>244.79</ele>
        <time>2021-08-20T06:29:17Z</time>
      </trkpt>
      <trkpt lat="43.16623" lon="-0.57012">
        <ele>244.79</ele>
        <time>2021-08-20T06:29:18Z</time>
      </trkpt>
      <trkpt lat="43.16628" lon="-0.57012">
        <ele>244.79</ele>
        <time>2021-08-20T06:29:20Z</time>
      </trkpt>
      <trkpt lat="43.1664" lon="-0.57013">
        <ele>246.72</ele>
        <time>2021-08-20T06:29:24Z</time>
      </trkpt>
      <trkpt lat="43.16649" lon="-0.57008">
        <ele>248.16</ele>
        <time>2021-08-20T06:29:33Z</time>
      </trkpt>
      <trkpt lat="43.16656" lon="-0.57006">
        <ele>249.12</ele>
        <time>2021-08-20T06:29:41Z</time>
      </trkpt>
      <trkpt lat="43.16662" lon="-0.57003">
        <ele>250.08</ele>
        <time>2021-08-20T06:29:49Z</time>
      </trkpt>
      <trkpt lat="43.16666" lon="-0.57004">
        <ele>250.08</ele>
        <time>2021-08-20T06:29:51Z</time>
      </trkpt>
      <trkpt lat="43.16668" lon="-0.57006">
        <ele>250.08</ele>
        <time>2021-08-20T06:29:52Z</time>
      </trkpt>
      <trkpt lat="43.1667" lon="-0.57007">
        <ele>250.08</ele>
        <time>2021-08-20T06:29:53Z</time>
      </trkpt>
      <trkpt lat="43.16672" lon="-0.57008">
        <ele>248.64</ele>
        <time>2021-08-20T06:29:54Z</time>
      </trkpt>
      <trkpt lat="43.16675" lon="-0.57009">
        <ele>248.64</ele>
        <time>2021-08-20T06:29:55Z</time>
      </trkpt>
      <trkpt lat="43.16688" lon="-0.57019">
        <ele>247.68</ele>
        <time>2021-08-20T06:30:01Z</time>
      </trkpt>
      <trkpt lat="43.16691" lon="-0.57022">
        <ele>246.72</ele>
        <time>2021-08-20T06:30:02Z</time>
      </trkpt>
      <trkpt lat="43.16715" lon="-0.57031">
        <ele>246.23</ele>
        <time>2021-08-20T06:30:10Z</time>
      </trkpt>
      <trkpt lat="43.16717" lon="-0.57031">
        <ele>246.23</ele>
        <time>2021-08-20T06:30:11Z</time>
      </trkpt>
      <trkpt lat="43.16721" lon="-0.57031">
        <ele>246.23</ele>
        <time>2021-08-20T06:30:13Z</time>
      </trkpt>
      <trkpt lat="43.16723" lon="-0.57032">
        <ele>246.23</ele>
        <time>2021-08-20T06:30:14Z</time>
      </trkpt>
      <trkpt lat="43.16734" lon="-0.57038">
        <ele>246.23</ele>
        <time>2021-08-20T06:30:18Z</time>
      </trkpt>
      <trkpt lat="43.16737" lon="-0.5704">
        <ele>245.75</ele>
        <time>2021-08-20T06:30:19Z</time>
      </trkpt>
      <trkpt lat="43.16738" lon="-0.57043">
        <ele>245.75</ele>
        <time>2021-08-20T06:30:20Z</time>
      </trkpt>
      <trkpt lat="43.16746" lon="-0.57053">
        <ele>247.2</ele>
        <time>2021-08-20T06:30:26Z</time>
      </trkpt>
      <trkpt lat="43.1675" lon="-0.57056">
        <ele>247.2</ele>
        <time>2021-08-20T06:30:29Z</time>
      </trkpt>
      <trkpt lat="43.16752" lon="-0.57058">
        <ele>247.2</ele>
        <time>2021-08-20T06:30:30Z</time>
      </trkpt>
      <trkpt lat="43.1677" lon="-0.57072">
        <ele>247.2</ele>
        <time>2021-08-20T06:30:37Z</time>
      </trkpt>
      <trkpt lat="43.16781" lon="-0.57087">
        <ele>247.2</ele>
        <time>2021-08-20T06:30:42Z</time>
      </trkpt>
      <trkpt lat="43.16793" lon="-0.57109">
        <ele>248.16</ele>
        <time>2021-08-20T06:30:48Z</time>
      </trkpt>
      <trkpt lat="43.16803" lon="-0.57133">
        <ele>248.16</ele>
        <time>2021-08-20T06:30:55Z</time>
      </trkpt>
      <trkpt lat="43.16811" lon="-0.57155">
        <ele>249.12</ele>
        <time>2021-08-20T06:31:02Z</time>
      </trkpt>
      <trkpt lat="43.1682" lon="-0.5718">
        <ele>250.08</ele>
        <time>2021-08-20T06:31:09Z</time>
      </trkpt>
      <trkpt lat="43.1682" lon="-0.57183">
        <ele>250.08</ele>
        <time>2021-08-20T06:31:10Z</time>
      </trkpt>
      <trkpt lat="43.16821" lon="-0.57187">
        <ele>250.08</ele>
        <time>2021-08-20T06:31:11Z</time>
      </trkpt>
      <trkpt lat="43.1682" lon="-0.5719">
        <ele>248.64</ele>
        <time>2021-08-20T06:31:12Z</time>
      </trkpt>
      <trkpt lat="43.16821" lon="-0.57194">
        <ele>247.68</ele>
        <time>2021-08-20T06:31:13Z</time>
      </trkpt>
      <trkpt lat="43.16821" lon="-0.572">
        <ele>247.2</ele>
        <time>2021-08-20T06:31:14Z</time>
      </trkpt>
      <trkpt lat="43.16822" lon="-0.57206">
        <ele>247.2</ele>
        <time>2021-08-20T06:31:15Z</time>
      </trkpt>
      <trkpt lat="43.16825" lon="-0.57236">
        <ele>246.72</ele>
        <time>2021-08-20T06:31:20Z</time>
      </trkpt>
      <trkpt lat="43.16826" lon="-0.57242">
        <ele>246.23</ele>
        <time>2021-08-20T06:31:21Z</time>
      </trkpt>
      <trkpt lat="43.16827" lon="-0.57247">
        <ele>246.23</ele>
        <time>2021-08-20T06:31:22Z</time>
      </trkpt>
      <trkpt lat="43.16831" lon="-0.5727">
        <ele>246.23</ele>
        <time>2021-08-20T06:31:26Z</time>
      </trkpt>
      <trkpt lat="43.16833" lon="-0.5728">
        <ele>246.23</ele>
        <time>2021-08-20T06:31:30Z</time>
      </trkpt>
      <trkpt lat="43.16832" lon="-0.57281">
        <ele>246.23</ele>
        <time>2021-08-20T06:31:31Z</time>
      </trkpt>
      <trkpt lat="43.1683" lon="-0.57282">
        <ele>245.75</ele>
        <time>2021-08-20T06:31:32Z</time>
      </trkpt>
      <trkpt lat="43.16828" lon="-0.57283">
        <ele>245.75</ele>
        <time>2021-08-20T06:31:33Z</time>
      </trkpt>
      <trkpt lat="43.16826" lon="-0.57283">
        <ele>245.75</ele>
        <time>2021-08-20T06:31:34Z</time>
      </trkpt>
      <trkpt lat="43.16824" lon="-0.57283">
        <ele>245.75</ele>
        <time>2021-08-20T06:31:35Z</time>
      </trkpt>
      <trkpt lat="43.16821" lon="-0.57283">
        <ele>245.75</ele>
        <time>2021-08-20T06:31:36Z</time>
      </trkpt>
      <trkpt lat="43.16819" lon="-0.57284">
        <ele>247.2</ele>
        <time>2021-08-20T06:31:37Z</time>
      </trkpt>
      <trkpt lat="43.16816" lon="-0.57285">
        <ele>247.2</ele>
        <time>2021-08-20T06:31:38Z</time>
      </trkpt>
      <trkpt lat="43.16814" lon="-0.57284">
        <ele>247.2</ele>
        <time>2021-08-20T06:31:39Z</time>
      </trkpt>
      <trkpt lat="43.16796" lon="-0.57282">
        <ele>247.2</ele>
        <time>2021-08-20T06:31:45Z</time>
      </trkpt>
      <trkpt lat="43.16784" lon="-0.57279">
        <ele>247.2</ele>
        <time>2021-08-20T06:31:49Z</time>
      </trkpt>
      <trkpt lat="43.16783" lon="-0.5728">
        <ele>247.2</ele>
        <time>2021-08-20T06:31:54Z</time>
      </trkpt>
      <trkpt lat="43.16784" lon="-0.5728">
        <ele>247.2</ele>
        <time>2021-08-20T06:32:05Z</time>
      </trkpt>
      <trkpt lat="43.16781" lon="-0.57279">
        <ele>247.2</ele>
        <time>2021-08-20T06:32:11Z</time>
      </trkpt>
      <trkpt lat="43.16779" lon="-0.57278">
        <ele>247.2</ele>
        <time>2021-08-20T06:32:12Z</time>
      </trkpt>
      <trkpt lat="43.16776" lon="-0.57278">
        <ele>247.2</ele>
        <time>2021-08-20T06:32:13Z</time>
      </trkpt>
      <trkpt lat="43.16766" lon="-0.57279">
        <ele>247.2</ele>
        <time>2021-08-20T06:32:17Z</time>
      </trkpt>
      <trkpt lat="43.16764" lon="-0.57281">
        <ele>247.2</ele>
        <time>2021-08-20T06:32:18Z</time>
      </trkpt>
      <trkpt lat="43.16763" lon="-0.57284">
        <ele>247.2</ele>
        <time>2021-08-20T06:32:19Z</time>
      </trkpt>
      <trkpt lat="43.16762" lon="-0.57287">
        <ele>247.2</ele>
        <time>2021-08-20T06:32:20Z</time>
      </trkpt>
      <trkpt lat="43.16762" lon="-0.57289">
        <ele>247.2</ele>
        <time>2021-08-20T06:32:21Z</time>
      </trkpt>
      <trkpt lat="43.1676" lon="-0.57292">
        <ele>247.2</ele>
        <time>2021-08-20T06:32:22Z</time>
      </trkpt>
      <trkpt lat="43.1676" lon="-0.57294">
        <ele>247.2</ele>
        <time>2021-08-20T06:32:23Z</time>
      </trkpt>
      <trkpt lat="43.16759" lon="-0.57296">
        <ele>247.2</ele>
        <time>2021-08-20T06:32:24Z</time>
      </trkpt>
      <trkpt lat="43.16759" lon="-0.57299">
        <ele>247.2</ele>
        <time>2021-08-20T06:32:25Z</time>
      </trkpt>
      <trkpt lat="43.16758" lon="-0.57302">
        <ele>247.2</ele>
        <time>2021-08-20T06:32:26Z</time>
      </trkpt>
      <trkpt lat="43.16758" lon="-0.57305">
        <ele>247.2</ele>
        <time>2021-08-20T06:32:27Z</time>
      </trkpt>
      <trkpt lat="43.16758" lon="-0.57309">
        <ele>247.2</ele>
        <time>2021-08-20T06:32:28Z</time>
      </trkpt>
      <trkpt lat="43.16758" lon="-0.57313">
        <ele>247.2</ele>
        <time>2021-08-20T06:32:29Z</time>
      </trkpt>
      <trkpt lat="43.16758" lon="-0.57317">
        <ele>247.2</ele>
        <time>2021-08-20T06:32:30Z</time>
      </trkpt>
      <trkpt lat="43.16758" lon="-0.57329">
        <ele>245.75</ele>
        <time>2021-08-20T06:32:32Z</time>
      </trkpt>
      <trkpt lat="43.1676" lon="-0.57378">
        <ele>244.31</ele>
        <time>2021-08-20T06:32:39Z</time>
      </trkpt>
      <trkpt lat="43.16764" lon="-0.57422">
        <ele>244.31</ele>
        <time>2021-08-20T06:32:46Z</time>
      </trkpt>
      <trkpt lat="43.16763" lon="-0.57462">
        <ele>244.31</ele>
        <time>2021-08-20T06:32:53Z</time>
      </trkpt>
      <trkpt lat="43.16764" lon="-0.57475">
        <ele>244.31</ele>
        <time>2021-08-20T06:32:55Z</time>
      </trkpt>
      <trkpt lat="43.16765" lon="-0.57481">
        <ele>244.31</ele>
        <time>2021-08-20T06:32:56Z</time>
      </trkpt>
      <trkpt lat="43.16773" lon="-0.57523">
        <ele>243.83</ele>
        <time>2021-08-20T06:33:03Z</time>
      </trkpt>
      <trkpt lat="43.16777" lon="-0.57543">
        <ele>244.79</ele>
        <time>2021-08-20T06:33:07Z</time>
      </trkpt>
      <trkpt lat="43.1678" lon="-0.57558">
        <ele>246.23</ele>
        <time>2021-08-20T06:33:13Z</time>
      </trkpt>
      <trkpt lat="43.16781" lon="-0.57566">
        <ele>246.72</ele>
        <time>2021-08-20T06:33:18Z</time>
      </trkpt>
      <trkpt lat="43.16785" lon="-0.57581">
        <ele>248.64</ele>
        <time>2021-08-20T06:33:26Z</time>
      </trkpt>
      <trkpt lat="43.16791" lon="-0.57595">
        <ele>250.56</ele>
        <time>2021-08-20T06:33:35Z</time>
      </trkpt>
      <trkpt lat="43.16797" lon="-0.57608">
        <ele>251.04</ele>
        <time>2021-08-20T06:33:42Z</time>
      </trkpt>
      <trkpt lat="43.16808" lon="-0.57624">
        <ele>251.52</ele>
        <time>2021-08-20T06:33:49Z</time>
      </trkpt>
      <trkpt lat="43.16821" lon="-0.57635">
        <ele>252</ele>
        <time>2021-08-20T06:33:55Z</time>
      </trkpt>
      <trkpt lat="43.16838" lon="-0.57644">
        <ele>252</ele>
        <time>2021-08-20T06:34:01Z</time>
      </trkpt>
      <trkpt lat="43.16863" lon="-0.57662">
        <ele>252</ele>
        <time>2021-08-20T06:34:09Z</time>
      </trkpt>
      <trkpt lat="43.16871" lon="-0.57667">
        <ele>250.56</ele>
        <time>2021-08-20T06:34:11Z</time>
      </trkpt>
      <trkpt lat="43.16876" lon="-0.57668">
        <ele>250.08</ele>
        <time>2021-08-20T06:34:12Z</time>
      </trkpt>
      <trkpt lat="43.16881" lon="-0.57668">
        <ele>250.08</ele>
        <time>2021-08-20T06:34:13Z</time>
      </trkpt>
      <trkpt lat="43.16886" lon="-0.57668">
        <ele>249.12</ele>
        <time>2021-08-20T06:34:14Z</time>
      </trkpt>
      <trkpt lat="43.16923" lon="-0.57659">
        <ele>247.68</ele>
        <time>2021-08-20T06:34:20Z</time>
      </trkpt>
      <trkpt lat="43.1693" lon="-0.57659">
        <ele>246.72</ele>
        <time>2021-08-20T06:34:21Z</time>
      </trkpt>
      <trkpt lat="43.16976" lon="-0.57667">
        <ele>245.75</ele>
        <time>2021-08-20T06:34:28Z</time>
      </trkpt>
      <trkpt lat="43.17022" lon="-0.57668">
        <ele>245.27</ele>
        <time>2021-08-20T06:34:36Z</time>
      </trkpt>
      <trkpt lat="43.17034" lon="-0.5767">
        <ele>246.72</ele>
        <time>2021-08-20T06:34:39Z</time>
      </trkpt>
      <trkpt lat="43.17062" lon="-0.57668">
        <ele>247.68</ele>
        <time>2021-08-20T06:34:46Z</time>
      </trkpt>
      <trkpt lat="43.17094" lon="-0.57665">
        <ele>248.64</ele>
        <time>2021-08-20T06:34:54Z</time>
      </trkpt>
      <trkpt lat="43.17117" lon="-0.57663">
        <ele>249.6</ele>
        <time>2021-08-20T06:35:01Z</time>
      </trkpt>
      <trkpt lat="43.17134" lon="-0.57666">
        <ele>249.6</ele>
        <time>2021-08-20T06:35:07Z</time>
      </trkpt>
      <trkpt lat="43.17146" lon="-0.57672">
        <ele>247.68</ele>
        <time>2021-08-20T06:35:10Z</time>
      </trkpt>
      <trkpt lat="43.17151" lon="-0.57675">
        <ele>247.68</ele>
        <time>2021-08-20T06:35:11Z</time>
      </trkpt>
      <trkpt lat="43.17156" lon="-0.57679">
        <ele>247.68</ele>
        <time>2021-08-20T06:35:12Z</time>
      </trkpt>
      <trkpt lat="43.1716" lon="-0.57682">
        <ele>247.68</ele>
        <time>2021-08-20T06:35:13Z</time>
      </trkpt>
      <trkpt lat="43.17165" lon="-0.57686">
        <ele>247.68</ele>
        <time>2021-08-20T06:35:14Z</time>
      </trkpt>
      <trkpt lat="43.17184" lon="-0.57698">
        <ele>247.2</ele>
        <time>2021-08-20T06:35:19Z</time>
      </trkpt>
      <trkpt lat="43.172" lon="-0.57713">
        <ele>248.64</ele>
        <time>2021-08-20T06:35:24Z</time>
      </trkpt>
      <trkpt lat="43.17202" lon="-0.57717">
        <ele>248.64</ele>
        <time>2021-08-20T06:35:25Z</time>
      </trkpt>
      <trkpt lat="43.17217" lon="-0.57742">
        <ele>249.12</ele>
        <time>2021-08-20T06:35:32Z</time>
      </trkpt>
      <trkpt lat="43.17236" lon="-0.57786">
        <ele>250.08</ele>
        <time>2021-08-20T06:35:40Z</time>
      </trkpt>
      <trkpt lat="43.17252" lon="-0.57808">
        <ele>250.08</ele>
        <time>2021-08-20T06:35:46Z</time>
      </trkpt>
      <trkpt lat="43.17265" lon="-0.57837">
        <ele>251.04</ele>
        <time>2021-08-20T06:35:53Z</time>
      </trkpt>
      <trkpt lat="43.17275" lon="-0.57863">
        <ele>251.52</ele>
        <time>2021-08-20T06:35:59Z</time>
      </trkpt>
      <trkpt lat="43.17282" lon="-0.57889">
        <ele>252</ele>
        <time>2021-08-20T06:36:04Z</time>
      </trkpt>
      <trkpt lat="43.17287" lon="-0.57913">
        <ele>252</ele>
        <time>2021-08-20T06:36:08Z</time>
      </trkpt>
      <trkpt lat="43.17294" lon="-0.57943">
        <ele>252</ele>
        <time>2021-08-20T06:36:13Z</time>
      </trkpt>
      <trkpt lat="43.17294" lon="-0.57949">
        <ele>252</ele>
        <time>2021-08-20T06:36:14Z</time>
      </trkpt>
      <trkpt lat="43.17296" lon="-0.57955">
        <ele>252</ele>
        <time>2021-08-20T06:36:15Z</time>
      </trkpt>
      <trkpt lat="43.17298" lon="-0.57961">
        <ele>252</ele>
        <time>2021-08-20T06:36:16Z</time>
      </trkpt>
      <trkpt lat="43.17299" lon="-0.57968">
        <ele>252</ele>
        <time>2021-08-20T06:36:17Z</time>
      </trkpt>
      <trkpt lat="43.17306" lon="-0.57999">
        <ele>252</ele>
        <time>2021-08-20T06:36:22Z</time>
      </trkpt>
      <trkpt lat="43.17307" lon="-0.58005">
        <ele>252</ele>
        <time>2021-08-20T06:36:23Z</time>
      </trkpt>
      <trkpt lat="43.17308" lon="-0.58011">
        <ele>252</ele>
        <time>2021-08-20T06:36:24Z</time>
      </trkpt>
      <trkpt lat="43.17309" lon="-0.58016">
        <ele>252</ele>
        <time>2021-08-20T06:36:25Z</time>
      </trkpt>
      <trkpt lat="43.17309" lon="-0.58022">
        <ele>252</ele>
        <time>2021-08-20T06:36:26Z</time>
      </trkpt>
      <trkpt lat="43.1731" lon="-0.58027">
        <ele>252.96</ele>
        <time>2021-08-20T06:36:27Z</time>
      </trkpt>
      <trkpt lat="43.17311" lon="-0.58031">
        <ele>252.96</ele>
        <time>2021-08-20T06:36:28Z</time>
      </trkpt>
      <trkpt lat="43.17312" lon="-0.58036">
        <ele>252.96</ele>
        <time>2021-08-20T06:36:29Z</time>
      </trkpt>
      <trkpt lat="43.17314" lon="-0.58041">
        <ele>252.96</ele>
        <time>2021-08-20T06:36:30Z</time>
      </trkpt>
      <trkpt lat="43.17321" lon="-0.58078">
        <ele>251.52</ele>
        <time>2021-08-20T06:36:36Z</time>
      </trkpt>
      <trkpt lat="43.17328" lon="-0.58123">
        <ele>251.04</ele>
        <time>2021-08-20T06:36:43Z</time>
      </trkpt>
      <trkpt lat="43.17337" lon="-0.58156">
        <ele>251.04</ele>
        <time>2021-08-20T06:36:50Z</time>
      </trkpt>
      <trkpt lat="43.1734" lon="-0.58169">
        <ele>250.56</ele>
        <time>2021-08-20T06:36:52Z</time>
      </trkpt>
      <trkpt lat="43.17345" lon="-0.58191">
        <ele>249.6</ele>
        <time>2021-08-20T06:36:55Z</time>
      </trkpt>
      <trkpt lat="43.17349" lon="-0.58206">
        <ele>249.12</ele>
        <time>2021-08-20T06:36:57Z</time>
      </trkpt>
      <trkpt lat="43.17354" lon="-0.58221">
        <ele>247.68</ele>
        <time>2021-08-20T06:36:59Z</time>
      </trkpt>
      <trkpt lat="43.17365" lon="-0.58271">
        <ele>244.79</ele>
        <time>2021-08-20T06:37:04Z</time>
      </trkpt>
      <trkpt lat="43.17367" lon="-0.58281">
        <ele>244.79</ele>
        <time>2021-08-20T06:37:05Z</time>
      </trkpt>
      <trkpt lat="43.17385" lon="-0.58334">
        <ele>245.27</ele>
        <time>2021-08-20T06:37:11Z</time>
      </trkpt>
      <trkpt lat="43.1739" lon="-0.58358">
        <ele>245.27</ele>
        <time>2021-08-20T06:37:14Z</time>
      </trkpt>
      <trkpt lat="43.17391" lon="-0.58366">
        <ele>245.27</ele>
        <time>2021-08-20T06:37:15Z</time>
      </trkpt>
      <trkpt lat="43.17405" lon="-0.58418">
        <ele>245.27</ele>
        <time>2021-08-20T06:37:23Z</time>
      </trkpt>
      <trkpt lat="43.17415" lon="-0.58456">
        <ele>245.27</ele>
        <time>2021-08-20T06:37:30Z</time>
      </trkpt>
      <trkpt lat="43.17417" lon="-0.58462">
        <ele>245.27</ele>
        <time>2021-08-20T06:37:31Z</time>
      </trkpt>
      <trkpt lat="43.17419" lon="-0.58469">
        <ele>245.27</ele>
        <time>2021-08-20T06:37:32Z</time>
      </trkpt>
      <trkpt lat="43.17421" lon="-0.58475">
        <ele>245.27</ele>
        <time>2021-08-20T06:37:33Z</time>
      </trkpt>
      <trkpt lat="43.17422" lon="-0.58482">
        <ele>245.27</ele>
        <time>2021-08-20T06:37:34Z</time>
      </trkpt>
      <trkpt lat="43.17422" lon="-0.58489">
        <ele>244.31</ele>
        <time>2021-08-20T06:37:35Z</time>
      </trkpt>
      <trkpt lat="43.17423" lon="-0.58496">
        <ele>244.31</ele>
        <time>2021-08-20T06:37:36Z</time>
      </trkpt>
      <trkpt lat="43.17423" lon="-0.58504">
        <ele>244.31</ele>
        <time>2021-08-20T06:37:37Z</time>
      </trkpt>
      <trkpt lat="43.17423" lon="-0.58511">
        <ele>244.31</ele>
        <time>2021-08-20T06:37:38Z</time>
      </trkpt>
      <trkpt lat="43.17423" lon="-0.58519">
        <ele>243.83</ele>
        <time>2021-08-20T06:37:39Z</time>
      </trkpt>
      <trkpt lat="43.17424" lon="-0.58526">
        <ele>243.83</ele>
        <time>2021-08-20T06:37:40Z</time>
      </trkpt>
      <trkpt lat="43.17425" lon="-0.58533">
        <ele>243.83</ele>
        <time>2021-08-20T06:37:41Z</time>
      </trkpt>
      <trkpt lat="43.17427" lon="-0.58556">
        <ele>245.75</ele>
        <time>2021-08-20T06:37:45Z</time>
      </trkpt>
      <trkpt lat="43.17428" lon="-0.58578">
        <ele>247.68</ele>
        <time>2021-08-20T06:37:51Z</time>
      </trkpt>
      <trkpt lat="43.17428" lon="-0.58615">
        <ele>248.16</ele>
        <time>2021-08-20T06:37:59Z</time>
      </trkpt>
      <trkpt lat="43.17426" lon="-0.58649">
        <ele>246.72</ele>
        <time>2021-08-20T06:38:05Z</time>
      </trkpt>
      <trkpt lat="43.17426" lon="-0.58697">
        <ele>245.75</ele>
        <time>2021-08-20T06:38:12Z</time>
      </trkpt>
      <trkpt lat="43.17427" lon="-0.58713">
        <ele>244.79</ele>
        <time>2021-08-20T06:38:14Z</time>
      </trkpt>
      <trkpt lat="43.17427" lon="-0.58721">
        <ele>244.79</ele>
        <time>2021-08-20T06:38:15Z</time>
      </trkpt>
      <trkpt lat="43.17427" lon="-0.58729">
        <ele>244.79</ele>
        <time>2021-08-20T06:38:16Z</time>
      </trkpt>
      <trkpt lat="43.17427" lon="-0.58737">
        <ele>244.79</ele>
        <time>2021-08-20T06:38:17Z</time>
      </trkpt>
      <trkpt lat="43.17428" lon="-0.58745">
        <ele>244.79</ele>
        <time>2021-08-20T06:38:18Z</time>
      </trkpt>
      <trkpt lat="43.17429" lon="-0.58774">
        <ele>244.31</ele>
        <time>2021-08-20T06:38:22Z</time>
      </trkpt>
      <trkpt lat="43.1743" lon="-0.58829">
        <ele>243.83</ele>
        <time>2021-08-20T06:38:30Z</time>
      </trkpt>
      <trkpt lat="43.17429" lon="-0.58854">
        <ele>245.75</ele>
        <time>2021-08-20T06:38:36Z</time>
      </trkpt>
      <trkpt lat="43.17428" lon="-0.58868">
        <ele>247.68</ele>
        <time>2021-08-20T06:38:43Z</time>
      </trkpt>
      <trkpt lat="43.17429" lon="-0.58871">
        <ele>248.16</ele>
        <time>2021-08-20T06:38:45Z</time>
      </trkpt>
      <trkpt lat="43.17428" lon="-0.58874">
        <ele>248.16</ele>
        <time>2021-08-20T06:38:46Z</time>
      </trkpt>
      <trkpt lat="43.17427" lon="-0.58876">
        <ele>248.16</ele>
        <time>2021-08-20T06:38:47Z</time>
      </trkpt>
      <trkpt lat="43.17427" lon="-0.58878">
        <ele>248.64</ele>
        <time>2021-08-20T06:38:48Z</time>
      </trkpt>
      <trkpt lat="43.17427" lon="-0.5888">
        <ele>248.64</ele>
        <time>2021-08-20T06:38:49Z</time>
      </trkpt>
      <trkpt lat="43.17427" lon="-0.58882">
        <ele>249.12</ele>
        <time>2021-08-20T06:38:50Z</time>
      </trkpt>
      <trkpt lat="43.17425" lon="-0.58907">
        <ele>250.08</ele>
        <time>2021-08-20T06:38:59Z</time>
      </trkpt>
      <trkpt lat="43.17428" lon="-0.58924">
        <ele>251.04</ele>
        <time>2021-08-20T06:39:06Z</time>
      </trkpt>
      <trkpt lat="43.17431" lon="-0.58946">
        <ele>252</ele>
        <time>2021-08-20T06:39:14Z</time>
      </trkpt>
      <trkpt lat="43.17436" lon="-0.58965">
        <ele>252.96</ele>
        <time>2021-08-20T06:39:21Z</time>
      </trkpt>
      <trkpt lat="43.17443" lon="-0.58986">
        <ele>254.89</ele>
        <time>2021-08-20T06:39:29Z</time>
      </trkpt>
      <trkpt lat="43.17447" lon="-0.59005">
        <ele>255.85</ele>
        <time>2021-08-20T06:39:36Z</time>
      </trkpt>
      <trkpt lat="43.17451" lon="-0.59031">
        <ele>256.81</ele>
        <time>2021-08-20T06:39:44Z</time>
      </trkpt>
      <trkpt lat="43.17453" lon="-0.59054">
        <ele>256.81</ele>
        <time>2021-08-20T06:39:50Z</time>
      </trkpt>
      <trkpt lat="43.17453" lon="-0.59067">
        <ele>256.81</ele>
        <time>2021-08-20T06:39:52Z</time>
      </trkpt>
      <trkpt lat="43.17454" lon="-0.59073">
        <ele>256.81</ele>
        <time>2021-08-20T06:39:53Z</time>
      </trkpt>
      <trkpt lat="43.17457" lon="-0.59088">
        <ele>255.37</ele>
        <time>2021-08-20T06:39:55Z</time>
      </trkpt>
      <trkpt lat="43.17469" lon="-0.5915">
        <ele>253.93</ele>
        <time>2021-08-20T06:40:03Z</time>
      </trkpt>
      <trkpt lat="43.17473" lon="-0.59165">
        <ele>253.44</ele>
        <time>2021-08-20T06:40:05Z</time>
      </trkpt>
      <trkpt lat="43.17476" lon="-0.59171">
        <ele>253.44</ele>
        <time>2021-08-20T06:40:06Z</time>
      </trkpt>
      <trkpt lat="43.1748" lon="-0.59176">
        <ele>253.44</ele>
        <time>2021-08-20T06:40:07Z</time>
      </trkpt>
      <trkpt lat="43.17484" lon="-0.5918">
        <ele>253.93</ele>
        <time>2021-08-20T06:40:08Z</time>
      </trkpt>
      <trkpt lat="43.17488" lon="-0.59183">
        <ele>253.93</ele>
        <time>2021-08-20T06:40:09Z</time>
      </trkpt>
      <trkpt lat="43.17496" lon="-0.5919">
        <ele>255.37</ele>
        <time>2021-08-20T06:40:11Z</time>
      </trkpt>
      <trkpt lat="43.175" lon="-0.59192">
        <ele>255.37</ele>
        <time>2021-08-20T06:40:12Z</time>
      </trkpt>
      <trkpt lat="43.17515" lon="-0.59199">
        <ele>256.81</ele>
        <time>2021-08-20T06:40:18Z</time>
      </trkpt>
      <trkpt lat="43.17526" lon="-0.59207">
        <ele>257.77</ele>
        <time>2021-08-20T06:40:25Z</time>
      </trkpt>
      <trkpt lat="43.17537" lon="-0.59219">
        <ele>259.69</ele>
        <time>2021-08-20T06:40:34Z</time>
      </trkpt>
      <trkpt lat="43.17547" lon="-0.59231">
        <ele>261.14</ele>
        <time>2021-08-20T06:40:43Z</time>
      </trkpt>
      <trkpt lat="43.17551" lon="-0.59237">
        <ele>261.62</ele>
        <time>2021-08-20T06:40:47Z</time>
      </trkpt>
      <trkpt lat="43.17553" lon="-0.59238">
        <ele>262.58</ele>
        <time>2021-08-20T06:40:48Z</time>
      </trkpt>
      <trkpt lat="43.17554" lon="-0.59239">
        <ele>262.58</ele>
        <time>2021-08-20T06:40:49Z</time>
      </trkpt>
      <trkpt lat="43.17556" lon="-0.59241">
        <ele>262.58</ele>
        <time>2021-08-20T06:40:55Z</time>
      </trkpt>
      <trkpt lat="43.17559" lon="-0.5924">
        <ele>262.58</ele>
        <time>2021-08-20T06:41:22Z</time>
      </trkpt>
      <trkpt lat="43.17562" lon="-0.59243">
        <ele>262.58</ele>
        <time>2021-08-20T06:41:44Z</time>
      </trkpt>
      <trkpt lat="43.17562" lon="-0.59249">
        <ele>263.06</ele>
        <time>2021-08-20T06:41:51Z</time>
      </trkpt>
      <trkpt lat="43.17564" lon="-0.59253">
        <ele>263.06</ele>
        <time>2021-08-20T06:41:54Z</time>
      </trkpt>
      <trkpt lat="43.17564" lon="-0.59255">
        <ele>264.02</ele>
        <time>2021-08-20T06:41:55Z</time>
      </trkpt>
      <trkpt lat="43.17566" lon="-0.59258">
        <ele>264.5</ele>
        <time>2021-08-20T06:41:57Z</time>
      </trkpt>
      <trkpt lat="43.17566" lon="-0.5926">
        <ele>264.5</ele>
        <time>2021-08-20T06:41:58Z</time>
      </trkpt>
      <trkpt lat="43.17567" lon="-0.59262">
        <ele>264.5</ele>
        <time>2021-08-20T06:41:59Z</time>
      </trkpt>
      <trkpt lat="43.17575" lon="-0.59283">
        <ele>265.94</ele>
        <time>2021-08-20T06:42:08Z</time>
      </trkpt>
      <trkpt lat="43.17581" lon="-0.59301">
        <ele>267.38</ele>
        <time>2021-08-20T06:42:16Z</time>
      </trkpt>
      <trkpt lat="43.17586" lon="-0.59321">
        <ele>268.83</ele>
        <time>2021-08-20T06:42:24Z</time>
      </trkpt>
      <trkpt lat="43.1759" lon="-0.5934">
        <ele>270.27</ele>
        <time>2021-08-20T06:42:33Z</time>
      </trkpt>
      <trkpt lat="43.17593" lon="-0.59357">
        <ele>271.23</ele>
        <time>2021-08-20T06:42:41Z</time>
      </trkpt>
      <trkpt lat="43.17598" lon="-0.59378">
        <ele>273.63</ele>
        <time>2021-08-20T06:42:51Z</time>
      </trkpt>
      <trkpt lat="43.17601" lon="-0.59399">
        <ele>275.07</ele>
        <time>2021-08-20T06:43:00Z</time>
      </trkpt>
      <trkpt lat="43.176" lon="-0.59418">
        <ele>277</ele>
        <time>2021-08-20T06:43:08Z</time>
      </trkpt>
      <trkpt lat="43.17592" lon="-0.59435">
        <ele>275.56</ele>
        <time>2021-08-20T06:43:14Z</time>
      </trkpt>
      <trkpt lat="43.17584" lon="-0.5945">
        <ele>274.59</ele>
        <time>2021-08-20T06:43:17Z</time>
      </trkpt>
      <trkpt lat="43.17582" lon="-0.59456">
        <ele>274.59</ele>
        <time>2021-08-20T06:43:18Z</time>
      </trkpt>
      <trkpt lat="43.17581" lon="-0.59462">
        <ele>274.59</ele>
        <time>2021-08-20T06:43:19Z</time>
      </trkpt>
      <trkpt lat="43.1758" lon="-0.59469">
        <ele>274.59</ele>
        <time>2021-08-20T06:43:20Z</time>
      </trkpt>
      <trkpt lat="43.1758" lon="-0.59476">
        <ele>274.59</ele>
        <time>2021-08-20T06:43:21Z</time>
      </trkpt>
      <trkpt lat="43.17581" lon="-0.59482">
        <ele>274.59</ele>
        <time>2021-08-20T06:43:22Z</time>
      </trkpt>
      <trkpt lat="43.17583" lon="-0.59487">
        <ele>274.59</ele>
        <time>2021-08-20T06:43:23Z</time>
      </trkpt>
      <trkpt lat="43.17585" lon="-0.59491">
        <ele>274.59</ele>
        <time>2021-08-20T06:43:24Z</time>
      </trkpt>
      <trkpt lat="43.17588" lon="-0.59495">
        <ele>274.11</ele>
        <time>2021-08-20T06:43:25Z</time>
      </trkpt>
      <trkpt lat="43.17592" lon="-0.595">
        <ele>274.11</ele>
        <time>2021-08-20T06:43:26Z</time>
      </trkpt>
      <trkpt lat="43.17603" lon="-0.59511">
        <ele>273.63</ele>
        <time>2021-08-20T06:43:29Z</time>
      </trkpt>
      <trkpt lat="43.17642" lon="-0.59533">
        <ele>273.15</ele>
        <time>2021-08-20T06:43:38Z</time>
      </trkpt>
      <trkpt lat="43.17677" lon="-0.59555">
        <ele>272.19</ele>
        <time>2021-08-20T06:43:45Z</time>
      </trkpt>
      <trkpt lat="43.17731" lon="-0.59581">
        <ele>271.71</ele>
        <time>2021-08-20T06:43:55Z</time>
      </trkpt>
      <trkpt lat="43.17737" lon="-0.59585">
        <ele>272.19</ele>
        <time>2021-08-20T06:43:56Z</time>
      </trkpt>
      <trkpt lat="43.1776" lon="-0.59605">
        <ele>273.63</ele>
        <time>2021-08-20T06:44:02Z</time>
      </trkpt>
      <trkpt lat="43.17764" lon="-0.59609">
        <ele>273.63</ele>
        <time>2021-08-20T06:44:03Z</time>
      </trkpt>
      <trkpt lat="43.17781" lon="-0.5963">
        <ele>274.11</ele>
        <time>2021-08-20T06:44:10Z</time>
      </trkpt>
      <trkpt lat="43.178" lon="-0.59652">
        <ele>275.56</ele>
        <time>2021-08-20T06:44:18Z</time>
      </trkpt>
      <trkpt lat="43.17817" lon="-0.59669">
        <ele>276.52</ele>
        <time>2021-08-20T06:44:26Z</time>
      </trkpt>
      <trkpt lat="43.17833" lon="-0.59681">
        <ele>277.48</ele>
        <time>2021-08-20T06:44:33Z</time>
      </trkpt>
      <trkpt lat="43.17849" lon="-0.59691">
        <ele>278.44</ele>
        <time>2021-08-20T06:44:41Z</time>
      </trkpt>
      <trkpt lat="43.17861" lon="-0.59698">
        <ele>278.92</ele>
        <time>2021-08-20T06:44:49Z</time>
      </trkpt>
      <trkpt lat="43.17876" lon="-0.59706">
        <ele>280.36</ele>
        <time>2021-08-20T06:44:56Z</time>
      </trkpt>
      <trkpt lat="43.1789" lon="-0.59728">
        <ele>279.88</ele>
        <time>2021-08-20T06:45:04Z</time>
      </trkpt>
      <trkpt lat="43.17904" lon="-0.59757">
        <ele>278.44</ele>
        <time>2021-08-20T06:45:09Z</time>
      </trkpt>
      <trkpt lat="43.17907" lon="-0.59762">
        <ele>278.44</ele>
        <time>2021-08-20T06:45:10Z</time>
      </trkpt>
      <trkpt lat="43.17915" lon="-0.59771">
        <ele>279.88</ele>
        <time>2021-08-20T06:45:13Z</time>
      </trkpt>
      <trkpt lat="43.17929" lon="-0.59785">
        <ele>281.32</ele>
        <time>2021-08-20T06:45:20Z</time>
      </trkpt>
      <trkpt lat="43.17938" lon="-0.59806">
        <ele>282.77</ele>
        <time>2021-08-20T06:45:27Z</time>
      </trkpt>
      <trkpt lat="43.1795" lon="-0.59839">
        <ele>284.69</ele>
        <time>2021-08-20T06:45:37Z</time>
      </trkpt>
      <trkpt lat="43.17963" lon="-0.59858">
        <ele>286.13</ele>
        <time>2021-08-20T06:45:45Z</time>
      </trkpt>
      <trkpt lat="43.17977" lon="-0.59866">
        <ele>287.09</ele>
        <time>2021-08-20T06:45:52Z</time>
      </trkpt>
      <trkpt lat="43.17979" lon="-0.59867">
        <ele>287.09</ele>
        <time>2021-08-20T06:45:53Z</time>
      </trkpt>
      <trkpt lat="43.17981" lon="-0.59868">
        <ele>288.05</ele>
        <time>2021-08-20T06:45:54Z</time>
      </trkpt>
      <trkpt lat="43.17983" lon="-0.59868">
        <ele>288.05</ele>
        <time>2021-08-20T06:45:55Z</time>
      </trkpt>
      <trkpt lat="43.17985" lon="-0.59868">
        <ele>288.05</ele>
        <time>2021-08-20T06:45:56Z</time>
      </trkpt>
      <trkpt lat="43.17987" lon="-0.59869">
        <ele>288.05</ele>
        <time>2021-08-20T06:45:57Z</time>
      </trkpt>
      <trkpt lat="43.17989" lon="-0.59869">
        <ele>288.05</ele>
        <time>2021-08-20T06:45:58Z</time>
      </trkpt>
      <trkpt lat="43.17991" lon="-0.59869">
        <ele>289.01</ele>
        <time>2021-08-20T06:45:59Z</time>
      </trkpt>
      <trkpt lat="43.17993" lon="-0.5987">
        <ele>289.01</ele>
        <time>2021-08-20T06:46:00Z</time>
      </trkpt>
      <trkpt lat="43.17995" lon="-0.5987">
        <ele>289.01</ele>
        <time>2021-08-20T06:46:01Z</time>
      </trkpt>
      <trkpt lat="43.17997" lon="-0.59871">
        <ele>289.01</ele>
        <time>2021-08-20T06:46:02Z</time>
      </trkpt>
      <trkpt lat="43.18015" lon="-0.59871">
        <ele>290.94</ele>
        <time>2021-08-20T06:46:10Z</time>
      </trkpt>
      <trkpt lat="43.18036" lon="-0.59868">
        <ele>291.9</ele>
        <time>2021-08-20T06:46:19Z</time>
      </trkpt>
      <trkpt lat="43.18062" lon="-0.59866">
        <ele>293.34</ele>
        <time>2021-08-20T06:46:30Z</time>
      </trkpt>
      <trkpt lat="43.18079" lon="-0.59864">
        <ele>294.3</ele>
        <time>2021-08-20T06:46:37Z</time>
      </trkpt>
      <trkpt lat="43.18103" lon="-0.59858">
        <ele>295.26</ele>
        <time>2021-08-20T06:46:45Z</time>
      </trkpt>
      <trkpt lat="43.18132" lon="-0.59851">
        <ele>295.26</ele>
        <time>2021-08-20T06:46:53Z</time>
      </trkpt>
      <trkpt lat="43.18137" lon="-0.5985">
        <ele>295.26</ele>
        <time>2021-08-20T06:46:54Z</time>
      </trkpt>
      <trkpt lat="43.18142" lon="-0.5985">
        <ele>293.82</ele>
        <time>2021-08-20T06:46:55Z</time>
      </trkpt>
      <trkpt lat="43.1817" lon="-0.59851">
        <ele>290.46</ele>
        <time>2021-08-20T06:46:59Z</time>
      </trkpt>
      <trkpt lat="43.18199" lon="-0.59854">
        <ele>286.61</ele>
        <time>2021-08-20T06:47:02Z</time>
      </trkpt>
      <trkpt lat="43.18239" lon="-0.59857">
        <ele>283.25</ele>
        <time>2021-08-20T06:47:06Z</time>
      </trkpt>
      <trkpt lat="43.18259" lon="-0.59858">
        <ele>282.28</ele>
        <time>2021-08-20T06:47:08Z</time>
      </trkpt>
      <trkpt lat="43.18306" lon="-0.5987">
        <ele>282.28</ele>
        <time>2021-08-20T06:47:13Z</time>
      </trkpt>
      <trkpt lat="43.18362" lon="-0.59888">
        <ele>282.28</ele>
        <time>2021-08-20T06:47:20Z</time>
      </trkpt>
      <trkpt lat="43.18413" lon="-0.59905">
        <ele>282.28</ele>
        <time>2021-08-20T06:47:28Z</time>
      </trkpt>
      <trkpt lat="43.1843" lon="-0.59912">
        <ele>282.28</ele>
        <time>2021-08-20T06:47:31Z</time>
      </trkpt>
      <trkpt lat="43.18435" lon="-0.59915">
        <ele>282.28</ele>
        <time>2021-08-20T06:47:32Z</time>
      </trkpt>
      <trkpt lat="43.1844" lon="-0.59919">
        <ele>282.28</ele>
        <time>2021-08-20T06:47:33Z</time>
      </trkpt>
      <trkpt lat="43.18444" lon="-0.59924">
        <ele>282.28</ele>
        <time>2021-08-20T06:47:34Z</time>
      </trkpt>
      <trkpt lat="43.18448" lon="-0.59929">
        <ele>282.28</ele>
        <time>2021-08-20T06:47:35Z</time>
      </trkpt>
      <trkpt lat="43.18452" lon="-0.59933">
        <ele>282.28</ele>
        <time>2021-08-20T06:47:36Z</time>
      </trkpt>
      <trkpt lat="43.1846" lon="-0.5994">
        <ele>283.73</ele>
        <time>2021-08-20T06:47:38Z</time>
      </trkpt>
      <trkpt lat="43.18481" lon="-0.59965">
        <ele>285.65</ele>
        <time>2021-08-20T06:47:45Z</time>
      </trkpt>
      <trkpt lat="43.18505" lon="-0.59987">
        <ele>287.09</ele>
        <time>2021-08-20T06:47:53Z</time>
      </trkpt>
      <trkpt lat="43.18534" lon="-0.60015">
        <ele>287.57</ele>
        <time>2021-08-20T06:48:03Z</time>
      </trkpt>
      <trkpt lat="43.18552" lon="-0.60036">
        <ele>288.53</ele>
        <time>2021-08-20T06:48:10Z</time>
      </trkpt>
      <trkpt lat="43.18571" lon="-0.60059">
        <ele>289.01</ele>
        <time>2021-08-20T06:48:18Z</time>
      </trkpt>
      <trkpt lat="43.18592" lon="-0.60084">
        <ele>289.01</ele>
        <time>2021-08-20T06:48:24Z</time>
      </trkpt>
      <trkpt lat="43.186" lon="-0.60095">
        <ele>287.57</ele>
        <time>2021-08-20T06:48:26Z</time>
      </trkpt>
      <trkpt lat="43.18632" lon="-0.60132">
        <ele>284.21</ele>
        <time>2021-08-20T06:48:33Z</time>
      </trkpt>
      <trkpt lat="43.18653" lon="-0.60159">
        <ele>281.32</ele>
        <time>2021-08-20T06:48:37Z</time>
      </trkpt>
      <trkpt lat="43.18658" lon="-0.60164">
        <ele>281.32</ele>
        <time>2021-08-20T06:48:38Z</time>
      </trkpt>
      <trkpt lat="43.18676" lon="-0.60183">
        <ele>278.44</ele>
        <time>2021-08-20T06:48:41Z</time>
      </trkpt>
      <trkpt lat="43.18688" lon="-0.60194">
        <ele>276.52</ele>
        <time>2021-08-20T06:48:43Z</time>
      </trkpt>
      <trkpt lat="43.18693" lon="-0.60201">
        <ele>276.52</ele>
        <time>2021-08-20T06:48:44Z</time>
      </trkpt>
      <trkpt lat="43.18699" lon="-0.60208">
        <ele>275.07</ele>
        <time>2021-08-20T06:48:45Z</time>
      </trkpt>
      <trkpt lat="43.18736" lon="-0.60246">
        <ele>271.23</ele>
        <time>2021-08-20T06:48:50Z</time>
      </trkpt>
      <trkpt lat="43.18794" lon="-0.6031">
        <ele>268.35</ele>
        <time>2021-08-20T06:48:58Z</time>
      </trkpt>
      <trkpt lat="43.18836" lon="-0.6036">
        <ele>267.38</ele>
        <time>2021-08-20T06:49:05Z</time>
      </trkpt>
      <trkpt lat="43.18861" lon="-0.60396">
        <ele>267.38</ele>
        <time>2021-08-20T06:49:10Z</time>
      </trkpt>
      <trkpt lat="43.18864" lon="-0.60403">
        <ele>267.38</ele>
        <time>2021-08-20T06:49:11Z</time>
      </trkpt>
      <trkpt lat="43.18866" lon="-0.60412">
        <ele>267.38</ele>
        <time>2021-08-20T06:49:12Z</time>
      </trkpt>
      <trkpt lat="43.18879" lon="-0.6046">
        <ele>268.35</ele>
        <time>2021-08-20T06:49:19Z</time>
      </trkpt>
      <trkpt lat="43.1888" lon="-0.60465">
        <ele>268.35</ele>
        <time>2021-08-20T06:49:20Z</time>
      </trkpt>
      <trkpt lat="43.18884" lon="-0.60478">
        <ele>270.27</ele>
        <time>2021-08-20T06:49:25Z</time>
      </trkpt>
      <trkpt lat="43.18884" lon="-0.6048">
        <ele>270.27</ele>
        <time>2021-08-20T06:49:26Z</time>
      </trkpt>
      <trkpt lat="43.18884" lon="-0.60482">
        <ele>270.27</ele>
        <time>2021-08-20T06:49:27Z</time>
      </trkpt>
      <trkpt lat="43.18883" lon="-0.60483">
        <ele>270.27</ele>
        <time>2021-08-20T06:49:28Z</time>
      </trkpt>
      <trkpt lat="43.18883" lon="-0.60485">
        <ele>270.27</ele>
        <time>2021-08-20T06:49:29Z</time>
      </trkpt>
      <trkpt lat="43.18884" lon="-0.60487">
        <ele>270.75</ele>
        <time>2021-08-20T06:49:30Z</time>
      </trkpt>
      <trkpt lat="43.18884" lon="-0.60488">
        <ele>270.75</ele>
        <time>2021-08-20T06:49:31Z</time>
      </trkpt>
      <trkpt lat="43.18885" lon="-0.60489">
        <ele>271.23</ele>
        <time>2021-08-20T06:49:32Z</time>
      </trkpt>
      <trkpt lat="43.18887" lon="-0.6049">
        <ele>271.23</ele>
        <time>2021-08-20T06:49:33Z</time>
      </trkpt>
      <trkpt lat="43.18888" lon="-0.60491">
        <ele>271.23</ele>
        <time>2021-08-20T06:49:34Z</time>
      </trkpt>
      <trkpt lat="43.18889" lon="-0.60491">
        <ele>271.23</ele>
        <time>2021-08-20T06:49:35Z</time>
      </trkpt>
      <trkpt lat="43.18891" lon="-0.60492">
        <ele>271.23</ele>
        <time>2021-08-20T06:49:36Z</time>
      </trkpt>
      <trkpt lat="43.18892" lon="-0.60493">
        <ele>272.19</ele>
        <time>2021-08-20T06:49:37Z</time>
      </trkpt>
      <trkpt lat="43.18898" lon="-0.60505">
        <ele>273.15</ele>
        <time>2021-08-20T06:49:45Z</time>
      </trkpt>
      <trkpt lat="43.18899" lon="-0.60506">
        <ele>273.15</ele>
        <time>2021-08-20T06:49:46Z</time>
      </trkpt>
      <trkpt lat="43.189" lon="-0.60508">
        <ele>273.63</ele>
        <time>2021-08-20T06:49:47Z</time>
      </trkpt>
      <trkpt lat="43.18901" lon="-0.60509">
        <ele>274.11</ele>
        <time>2021-08-20T06:49:48Z</time>
      </trkpt>
      <trkpt lat="43.18902" lon="-0.6051">
        <ele>274.11</ele>
        <time>2021-08-20T06:49:49Z</time>
      </trkpt>
      <trkpt lat="43.18903" lon="-0.60512">
        <ele>274.11</ele>
        <time>2021-08-20T06:49:50Z</time>
      </trkpt>
      <trkpt lat="43.18904" lon="-0.60513">
        <ele>274.59</ele>
        <time>2021-08-20T06:49:51Z</time>
      </trkpt>
      <trkpt lat="43.18912" lon="-0.60523">
        <ele>276.04</ele>
        <time>2021-08-20T06:49:59Z</time>
      </trkpt>
      <trkpt lat="43.18922" lon="-0.6053">
        <ele>277.48</ele>
        <time>2021-08-20T06:50:07Z</time>
      </trkpt>
      <trkpt lat="43.18931" lon="-0.60537">
        <ele>277.96</ele>
        <time>2021-08-20T06:50:14Z</time>
      </trkpt>
      <trkpt lat="43.18932" lon="-0.60539">
        <ele>277.96</ele>
        <time>2021-08-20T06:50:15Z</time>
      </trkpt>
      <trkpt lat="43.18932" lon="-0.60542">
        <ele>278.44</ele>
        <time>2021-08-20T06:50:16Z</time>
      </trkpt>
      <trkpt lat="43.18931" lon="-0.60545">
        <ele>278.44</ele>
        <time>2021-08-20T06:50:17Z</time>
      </trkpt>
      <trkpt lat="43.18931" lon="-0.60547">
        <ele>278.44</ele>
        <time>2021-08-20T06:50:18Z</time>
      </trkpt>
      <trkpt lat="43.18929" lon="-0.60578">
        <ele>279.4</ele>
        <time>2021-08-20T06:50:27Z</time>
      </trkpt>
      <trkpt lat="43.18932" lon="-0.60602">
        <ele>279.4</ele>
        <time>2021-08-20T06:50:33Z</time>
      </trkpt>
      <trkpt lat="43.1894" lon="-0.6062">
        <ele>277.48</ele>
        <time>2021-08-20T06:50:39Z</time>
      </trkpt>
      <trkpt lat="43.18956" lon="-0.60636">
        <ele>274.59</ele>
        <time>2021-08-20T06:50:45Z</time>
      </trkpt>
      <trkpt lat="43.18977" lon="-0.60654">
        <ele>271.23</ele>
        <time>2021-08-20T06:50:52Z</time>
      </trkpt>
      <trkpt lat="43.18984" lon="-0.60662">
        <ele>270.27</ele>
        <time>2021-08-20T06:50:57Z</time>
      </trkpt>
      <trkpt lat="43.18983" lon="-0.60665">
        <ele>269.79</ele>
        <time>2021-08-20T06:50:58Z</time>
      </trkpt>
      <trkpt lat="43.18981" lon="-0.60667">
        <ele>269.79</ele>
        <time>2021-08-20T06:50:59Z</time>
      </trkpt>
      <trkpt lat="43.18978" lon="-0.60669">
        <ele>269.79</ele>
        <time>2021-08-20T06:51:00Z</time>
      </trkpt>
      <trkpt lat="43.18975" lon="-0.60669">
        <ele>269.79</ele>
        <time>2021-08-20T06:51:01Z</time>
      </trkpt>
      <trkpt lat="43.18974" lon="-0.60669">
        <ele>269.79</ele>
        <time>2021-08-20T06:51:02Z</time>
      </trkpt>
      <trkpt lat="43.18974" lon="-0.60668">
        <ele>269.79</ele>
        <time>2021-08-20T06:51:03Z</time>
      </trkpt>
      <trkpt lat="43.18975" lon="-0.60664">
        <ele>269.79</ele>
        <time>2021-08-20T06:51:04Z</time>
      </trkpt>
      <trkpt lat="43.18975" lon="-0.60661">
        <ele>269.79</ele>
        <time>2021-08-20T06:51:05Z</time>
      </trkpt>
      <trkpt lat="43.18975" lon="-0.6066">
        <ele>269.79</ele>
        <time>2021-08-20T06:51:06Z</time>
      </trkpt>
      <trkpt lat="43.18975" lon="-0.60659">
        <ele>270.75</ele>
        <time>2021-08-20T06:51:07Z</time>
      </trkpt>
      <trkpt lat="43.18974" lon="-0.60658">
        <ele>270.75</ele>
        <time>2021-08-20T06:51:08Z</time>
      </trkpt>
      <trkpt lat="43.18974" lon="-0.6066">
        <ele>271.23</ele>
        <time>2021-08-20T06:51:11Z</time>
      </trkpt>
      <trkpt lat="43.18974" lon="-0.60661">
        <ele>271.23</ele>
        <time>2021-08-20T06:51:12Z</time>
      </trkpt>
      <trkpt lat="43.18976" lon="-0.60664">
        <ele>271.23</ele>
        <time>2021-08-20T06:51:14Z</time>
      </trkpt>
      <trkpt lat="43.18976" lon="-0.60667">
        <ele>271.23</ele>
        <time>2021-08-20T06:51:15Z</time>
      </trkpt>
      <trkpt lat="43.18976" lon="-0.6067">
        <ele>271.23</ele>
        <time>2021-08-20T06:51:16Z</time>
      </trkpt>
      <trkpt lat="43.18975" lon="-0.60674">
        <ele>269.79</ele>
        <time>2021-08-20T06:51:17Z</time>
      </trkpt>
      <trkpt lat="43.18974" lon="-0.60678">
        <ele>269.31</ele>
        <time>2021-08-20T06:51:18Z</time>
      </trkpt>
      <trkpt lat="43.18973" lon="-0.60681">
        <ele>269.79</ele>
        <time>2021-08-20T06:51:19Z</time>
      </trkpt>
      <trkpt lat="43.18972" lon="-0.60684">
        <ele>269.31</ele>
        <time>2021-08-20T06:51:20Z</time>
      </trkpt>
      <trkpt lat="43.18971" lon="-0.60687">
        <ele>268.83</ele>
        <time>2021-08-20T06:51:21Z</time>
      </trkpt>
      <trkpt lat="43.1897" lon="-0.6069">
        <ele>268.83</ele>
        <time>2021-08-20T06:51:22Z</time>
      </trkpt>
      <trkpt lat="43.18969" lon="-0.60693">
        <ele>268.83</ele>
        <time>2021-08-20T06:51:23Z</time>
      </trkpt>
      <trkpt lat="43.18969" lon="-0.60698">
        <ele>268.35</ele>
        <time>2021-08-20T06:51:25Z</time>
      </trkpt>
      <trkpt lat="43.18968" lon="-0.60701">
        <ele>267.38</ele>
        <time>2021-08-20T06:51:26Z</time>
      </trkpt>
      <trkpt lat="43.18964" lon="-0.60712">
        <ele>266.9</ele>
        <time>2021-08-20T06:51:30Z</time>
      </trkpt>
      <trkpt lat="43.18965" lon="-0.60714">
        <ele>266.42</ele>
        <time>2021-08-20T06:51:31Z</time>
      </trkpt>
      <trkpt lat="43.18966" lon="-0.60715">
        <ele>266.42</ele>
        <time>2021-08-20T06:51:32Z</time>
      </trkpt>
      <trkpt lat="43.18968" lon="-0.60716">
        <ele>265.94</ele>
        <time>2021-08-20T06:51:33Z</time>
      </trkpt>
      <trkpt lat="43.1897" lon="-0.60717">
        <ele>265.94</ele>
        <time>2021-08-20T06:51:34Z</time>
      </trkpt>
      <trkpt lat="43.18972" lon="-0.60718">
        <ele>265.46</ele>
        <time>2021-08-20T06:51:35Z</time>
      </trkpt>
      <trkpt lat="43.18975" lon="-0.6072">
        <ele>264.5</ele>
        <time>2021-08-20T06:51:36Z</time>
      </trkpt>
      <trkpt lat="43.18978" lon="-0.60721">
        <ele>263.54</ele>
        <time>2021-08-20T06:51:37Z</time>
      </trkpt>
      <trkpt lat="43.18981" lon="-0.60723">
        <ele>263.06</ele>
        <time>2021-08-20T06:51:38Z</time>
      </trkpt>
      <trkpt lat="43.19" lon="-0.60734">
        <ele>260.17</ele>
        <time>2021-08-20T06:51:42Z</time>
      </trkpt>
      <trkpt lat="43.19017" lon="-0.6074">
        <ele>257.77</ele>
        <time>2021-08-20T06:51:46Z</time>
      </trkpt>
      <trkpt lat="43.19021" lon="-0.60741">
        <ele>257.29</ele>
        <time>2021-08-20T06:51:47Z</time>
      </trkpt>
      <trkpt lat="43.19024" lon="-0.6074">
        <ele>256.81</ele>
        <time>2021-08-20T06:51:48Z</time>
      </trkpt>
      <trkpt lat="43.19027" lon="-0.60738">
        <ele>256.81</ele>
        <time>2021-08-20T06:51:49Z</time>
      </trkpt>
      <trkpt lat="43.1903" lon="-0.60735">
        <ele>256.81</ele>
        <time>2021-08-20T06:51:50Z</time>
      </trkpt>
      <trkpt lat="43.19033" lon="-0.60731">
        <ele>256.81</ele>
        <time>2021-08-20T06:51:51Z</time>
      </trkpt>
      <trkpt lat="43.1905" lon="-0.60706">
        <ele>256.81</ele>
        <time>2021-08-20T06:51:58Z</time>
      </trkpt>
      <trkpt lat="43.19065" lon="-0.60685">
        <ele>256.33</ele>
        <time>2021-08-20T06:52:05Z</time>
      </trkpt>
      <trkpt lat="43.1907" lon="-0.60684">
        <ele>255.37</ele>
        <time>2021-08-20T06:52:07Z</time>
      </trkpt>
      <trkpt lat="43.19074" lon="-0.60685">
        <ele>254.89</ele>
        <time>2021-08-20T06:52:08Z</time>
      </trkpt>
      <trkpt lat="43.19091" lon="-0.60695">
        <ele>252</ele>
        <time>2021-08-20T06:52:14Z</time>
      </trkpt>
      <trkpt lat="43.19092" lon="-0.60696">
        <ele>251.52</ele>
        <time>2021-08-20T06:52:15Z</time>
      </trkpt>
      <trkpt lat="43.19093" lon="-0.60697">
        <ele>251.52</ele>
        <time>2021-08-20T06:52:16Z</time>
      </trkpt>
      <trkpt lat="43.19095" lon="-0.60699">
        <ele>251.52</ele>
        <time>2021-08-20T06:52:17Z</time>
      </trkpt>
      <trkpt lat="43.19096" lon="-0.607">
        <ele>250.56</ele>
        <time>2021-08-20T06:52:18Z</time>
      </trkpt>
      <trkpt lat="43.19098" lon="-0.607">
        <ele>250.56</ele>
        <time>2021-08-20T06:52:19Z</time>
      </trkpt>
      <trkpt lat="43.19099" lon="-0.607">
        <ele>250.56</ele>
        <time>2021-08-20T06:52:20Z</time>
      </trkpt>
      <trkpt lat="43.19113" lon="-0.60701">
        <ele>247.2</ele>
        <time>2021-08-20T06:52:24Z</time>
      </trkpt>
      <trkpt lat="43.19131" lon="-0.60699">
        <ele>242.39</ele>
        <time>2021-08-20T06:52:27Z</time>
      </trkpt>
      <trkpt lat="43.19139" lon="-0.60699">
        <ele>241.43</ele>
        <time>2021-08-20T06:52:28Z</time>
      </trkpt>
      <trkpt lat="43.1916" lon="-0.60698">
        <ele>237.1</ele>
        <time>2021-08-20T06:52:30Z</time>
      </trkpt>
      <trkpt lat="43.19177" lon="-0.60697">
        <ele>234.22</ele>
        <time>2021-08-20T06:52:32Z</time>
      </trkpt>
      <trkpt lat="43.19201" lon="-0.60695">
        <ele>230.37</ele>
        <time>2021-08-20T06:52:35Z</time>
      </trkpt>
      <trkpt lat="43.19214" lon="-0.60697">
        <ele>229.41</ele>
        <time>2021-08-20T06:52:38Z</time>
      </trkpt>
      <trkpt lat="43.19224" lon="-0.60701">
        <ele>227.49</ele>
        <time>2021-08-20T06:52:42Z</time>
      </trkpt>
      <trkpt lat="43.19228" lon="-0.60703">
        <ele>226.05</ele>
        <time>2021-08-20T06:52:46Z</time>
      </trkpt>
      <trkpt lat="43.1923" lon="-0.60702">
        <ele>226.53</ele>
        <time>2021-08-20T06:52:47Z</time>
      </trkpt>
      <trkpt lat="43.19233" lon="-0.60701">
        <ele>225.57</ele>
        <time>2021-08-20T06:52:48Z</time>
      </trkpt>
      <trkpt lat="43.19235" lon="-0.60699">
        <ele>226.05</ele>
        <time>2021-08-20T06:52:49Z</time>
      </trkpt>
      <trkpt lat="43.19237" lon="-0.60696">
        <ele>226.05</ele>
        <time>2021-08-20T06:52:50Z</time>
      </trkpt>
      <trkpt lat="43.19238" lon="-0.60693">
        <ele>225.57</ele>
        <time>2021-08-20T06:52:51Z</time>
      </trkpt>
      <trkpt lat="43.19248" lon="-0.6066">
        <ele>223.16</ele>
        <time>2021-08-20T06:52:58Z</time>
      </trkpt>
      <trkpt lat="43.1925" lon="-0.60649">
        <ele>222.68</ele>
        <time>2021-08-20T06:53:00Z</time>
      </trkpt>
      <trkpt lat="43.19251" lon="-0.60643">
        <ele>222.68</ele>
        <time>2021-08-20T06:53:01Z</time>
      </trkpt>
      <trkpt lat="43.19253" lon="-0.60637">
        <ele>222.68</ele>
        <time>2021-08-20T06:53:02Z</time>
      </trkpt>
      <trkpt lat="43.19255" lon="-0.60632">
        <ele>222.2</ele>
        <time>2021-08-20T06:53:03Z</time>
      </trkpt>
      <trkpt lat="43.19258" lon="-0.60628">
        <ele>222.2</ele>
        <time>2021-08-20T06:53:04Z</time>
      </trkpt>
      <trkpt lat="43.19261" lon="-0.60624">
        <ele>222.2</ele>
        <time>2021-08-20T06:53:05Z</time>
      </trkpt>
      <trkpt lat="43.19264" lon="-0.6062">
        <ele>222.2</ele>
        <time>2021-08-20T06:53:06Z</time>
      </trkpt>
      <trkpt lat="43.19276" lon="-0.6059">
        <ele>222.68</ele>
        <time>2021-08-20T06:53:13Z</time>
      </trkpt>
      <trkpt lat="43.19279" lon="-0.60586">
        <ele>222.68</ele>
        <time>2021-08-20T06:53:14Z</time>
      </trkpt>
      <trkpt lat="43.19288" lon="-0.60578">
        <ele>222.68</ele>
        <time>2021-08-20T06:53:16Z</time>
      </trkpt>
      <trkpt lat="43.19306" lon="-0.60554">
        <ele>225.09</ele>
        <time>2021-08-20T06:53:23Z</time>
      </trkpt>
      <trkpt lat="43.19304" lon="-0.60531">
        <ele>226.53</ele>
        <time>2021-08-20T06:53:30Z</time>
      </trkpt>
      <trkpt lat="43.1931" lon="-0.60512">
        <ele>227.01</ele>
        <time>2021-08-20T06:53:37Z</time>
      </trkpt>
      <trkpt lat="43.19317" lon="-0.60493">
        <ele>228.45</ele>
        <time>2021-08-20T06:53:45Z</time>
      </trkpt>
      <trkpt lat="43.19323" lon="-0.60472">
        <ele>229.89</ele>
        <time>2021-08-20T06:53:53Z</time>
      </trkpt>
      <trkpt lat="43.19325" lon="-0.60454">
        <ele>231.81</ele>
        <time>2021-08-20T06:54:00Z</time>
      </trkpt>
      <trkpt lat="43.19318" lon="-0.60441">
        <ele>232.3</ele>
        <time>2021-08-20T06:54:07Z</time>
      </trkpt>
      <trkpt lat="43.19316" lon="-0.60442">
        <ele>232.78</ele>
        <time>2021-08-20T06:54:08Z</time>
      </trkpt>
      <trkpt lat="43.19315" lon="-0.60443">
        <ele>232.78</ele>
        <time>2021-08-20T06:54:09Z</time>
      </trkpt>
      <trkpt lat="43.19314" lon="-0.60445">
        <ele>232.78</ele>
        <time>2021-08-20T06:54:10Z</time>
      </trkpt>
      <trkpt lat="43.19312" lon="-0.60445">
        <ele>232.78</ele>
        <time>2021-08-20T06:54:11Z</time>
      </trkpt>
      <trkpt lat="43.19311" lon="-0.60446">
        <ele>232.78</ele>
        <time>2021-08-20T06:54:12Z</time>
      </trkpt>
      <trkpt lat="43.19311" lon="-0.60446">
        <ele>232.78</ele>
        <time>2021-08-20T06:54:17Z</time>
      </trkpt>
      <trkpt lat="43.19312" lon="-0.60446">
        <ele>232.78</ele>
        <time>2021-08-20T06:54:26Z</time>
      </trkpt>
      <trkpt lat="43.19313" lon="-0.60445">
        <ele>232.78</ele>
        <time>2021-08-20T06:54:27Z</time>
      </trkpt>
      <trkpt lat="43.19314" lon="-0.60443">
        <ele>232.78</ele>
        <time>2021-08-20T06:54:28Z</time>
      </trkpt>
      <trkpt lat="43.19315" lon="-0.60442">
        <ele>232.78</ele>
        <time>2021-08-20T06:54:29Z</time>
      </trkpt>
      <trkpt lat="43.19316" lon="-0.60441">
        <ele>232.78</ele>
        <time>2021-08-20T06:54:30Z</time>
      </trkpt>
      <trkpt lat="43.19317" lon="-0.60439">
        <ele>232.78</ele>
        <time>2021-08-20T06:54:31Z</time>
      </trkpt>
      <trkpt lat="43.19317" lon="-0.60437">
        <ele>232.78</ele>
        <time>2021-08-20T06:54:32Z</time>
      </trkpt>
      <trkpt lat="43.19319" lon="-0.60435">
        <ele>232.78</ele>
        <time>2021-08-20T06:54:33Z</time>
      </trkpt>
      <trkpt lat="43.1932" lon="-0.60434">
        <ele>232.78</ele>
        <time>2021-08-20T06:54:34Z</time>
      </trkpt>
      <trkpt lat="43.19322" lon="-0.60434">
        <ele>232.78</ele>
        <time>2021-08-20T06:54:35Z</time>
      </trkpt>
      <trkpt lat="43.19324" lon="-0.60435">
        <ele>233.26</ele>
        <time>2021-08-20T06:54:36Z</time>
      </trkpt>
      <trkpt lat="43.19326" lon="-0.60436">
        <ele>233.26</ele>
        <time>2021-08-20T06:54:37Z</time>
      </trkpt>
      <trkpt lat="43.19328" lon="-0.60438">
        <ele>233.26</ele>
        <time>2021-08-20T06:54:38Z</time>
      </trkpt>
      <trkpt lat="43.19339" lon="-0.6045">
        <ele>233.26</ele>
        <time>2021-08-20T06:54:46Z</time>
      </trkpt>
      <trkpt lat="43.1934" lon="-0.60451">
        <ele>233.26</ele>
        <time>2021-08-20T06:54:55Z</time>
      </trkpt>
      <trkpt lat="43.19341" lon="-0.60453">
        <ele>233.26</ele>
        <time>2021-08-20T06:55:12Z</time>
      </trkpt>
      <trkpt lat="43.19342" lon="-0.60456">
        <ele>233.26</ele>
        <time>2021-08-20T06:55:24Z</time>
      </trkpt>
      <trkpt lat="43.19341" lon="-0.60457">
        <ele>233.26</ele>
        <time>2021-08-20T06:55:32Z</time>
      </trkpt>
      <trkpt lat="43.19341" lon="-0.60458">
        <ele>233.26</ele>
        <time>2021-08-20T06:55:40Z</time>
      </trkpt>
      <trkpt lat="43.19342" lon="-0.6046">
        <ele>233.26</ele>
        <time>2021-08-20T06:55:41Z</time>
      </trkpt>
      <trkpt lat="43.19343" lon="-0.60461">
        <ele>231.81</ele>
        <time>2021-08-20T06:55:43Z</time>
      </trkpt>
      <trkpt lat="43.19344" lon="-0.60462">
        <ele>231.81</ele>
        <time>2021-08-20T06:55:44Z</time>
      </trkpt>
      <trkpt lat="43.19346" lon="-0.60463">
        <ele>231.81</ele>
        <time>2021-08-20T06:55:45Z</time>
      </trkpt>
      <trkpt lat="43.19347" lon="-0.60465">
        <ele>231.81</ele>
        <time>2021-08-20T06:55:46Z</time>
      </trkpt>
      <trkpt lat="43.19348" lon="-0.60465">
        <ele>231.81</ele>
        <time>2021-08-20T06:55:47Z</time>
      </trkpt>
      <trkpt lat="43.19359" lon="-0.60474">
        <ele>231.81</ele>
        <time>2021-08-20T06:55:52Z</time>
      </trkpt>
      <trkpt lat="43.19372" lon="-0.60484">
        <ele>231.81</ele>
        <time>2021-08-20T06:55:58Z</time>
      </trkpt>
      <trkpt lat="43.19375" lon="-0.60486">
        <ele>231.81</ele>
        <time>2021-08-20T06:56:04Z</time>
      </trkpt>
      <trkpt lat="43.19377" lon="-0.60485">
        <ele>231.81</ele>
        <time>2021-08-20T06:56:17Z</time>
      </trkpt>
      <trkpt lat="43.19381" lon="-0.60486">
        <ele>231.81</ele>
        <time>2021-08-20T06:56:24Z</time>
      </trkpt>
      <trkpt lat="43.19389" lon="-0.60488">
        <ele>231.81</ele>
        <time>2021-08-20T06:56:32Z</time>
      </trkpt>
      <trkpt lat="43.19389" lon="-0.60488">
        <ele>231.81</ele>
        <time>2021-08-20T06:56:37Z</time>
      </trkpt>
      <trkpt lat="43.19384" lon="-0.6049">
        <ele>231.81</ele>
        <time>2021-08-20T06:56:44Z</time>
      </trkpt>
      <trkpt lat="43.19382" lon="-0.6049">
        <ele>231.81</ele>
        <time>2021-08-20T06:56:50Z</time>
      </trkpt>
      <trkpt lat="43.19382" lon="-0.60488">
        <ele>231.81</ele>
        <time>2021-08-20T06:57:06Z</time>
      </trkpt>
      <trkpt lat="43.19383" lon="-0.60487">
        <ele>231.81</ele>
        <time>2021-08-20T06:57:21Z</time>
      </trkpt>
      <trkpt lat="43.19384" lon="-0.60488">
        <ele>231.81</ele>
        <time>2021-08-20T06:57:36Z</time>
      </trkpt>
      <trkpt lat="43.19383" lon="-0.60488">
        <ele>231.81</ele>
        <time>2021-08-20T06:57:52Z</time>
      </trkpt>
      <trkpt lat="43.19382" lon="-0.60488">
        <ele>231.81</ele>
        <time>2021-08-20T06:58:05Z</time>
      </trkpt>
      <trkpt lat="43.19382" lon="-0.60489">
        <ele>231.81</ele>
        <time>2021-08-20T06:58:21Z</time>
      </trkpt>
      <trkpt lat="43.19384" lon="-0.60487">
        <ele>232.3</ele>
        <time>2021-08-20T06:58:36Z</time>
      </trkpt>
      <trkpt lat="43.19384" lon="-0.60487">
        <ele>232.3</ele>
        <time>2021-08-20T06:58:46Z</time>
      </trkpt>
      <trkpt lat="43.19385" lon="-0.60489">
        <ele>232.3</ele>
        <time>2021-08-20T06:58:59Z</time>
      </trkpt>
      <trkpt lat="43.19384" lon="-0.60487">
        <ele>232.3</ele>
        <time>2021-08-20T06:59:17Z</time>
      </trkpt>
      <trkpt lat="43.19386" lon="-0.60487">
        <ele>232.3</ele>
        <time>2021-08-20T06:59:28Z</time>
      </trkpt>
      <trkpt lat="43.19385" lon="-0.60486">
        <ele>232.3</ele>
        <time>2021-08-20T06:59:48Z</time>
      </trkpt>
      <trkpt lat="43.19384" lon="-0.60486">
        <ele>232.3</ele>
        <time>2021-08-20T06:59:59Z</time>
      </trkpt>
      <trkpt lat="43.19386" lon="-0.60488">
        <ele>232.3</ele>
        <time>2021-08-20T07:00:10Z</time>
      </trkpt>
      <trkpt lat="43.19388" lon="-0.60489">
        <ele>232.3</ele>
        <time>2021-08-20T07:00:21Z</time>
      </trkpt>
      <trkpt lat="43.19387" lon="-0.60488">
        <ele>232.3</ele>
        <time>2021-08-20T07:00:36Z</time>
      </trkpt>
      <trkpt lat="43.19385" lon="-0.60481">
        <ele>232.3</ele>
        <time>2021-08-20T07:00:55Z</time>
      </trkpt>
      <trkpt lat="43.19387" lon="-0.60483">
        <ele>232.3</ele>
        <time>2021-08-20T07:01:09Z</time>
      </trkpt>
      <trkpt lat="43.19387" lon="-0.60484">
        <ele>232.78</ele>
        <time>2021-08-20T07:01:24Z</time>
      </trkpt>
      <trkpt lat="43.19388" lon="-0.60478">
        <ele>232.78</ele>
        <time>2021-08-20T07:01:41Z</time>
      </trkpt>
      <trkpt lat="43.19389" lon="-0.6048">
        <ele>232.78</ele>
        <time>2021-08-20T07:01:54Z</time>
      </trkpt>
      <trkpt lat="43.19387" lon="-0.60482">
        <ele>232.78</ele>
        <time>2021-08-20T07:02:10Z</time>
      </trkpt>
      <trkpt lat="43.19387" lon="-0.60483">
        <ele>232.78</ele>
        <time>2021-08-20T07:02:27Z</time>
      </trkpt>
      <trkpt lat="43.19385" lon="-0.60483">
        <ele>233.26</ele>
        <time>2021-08-20T07:02:38Z</time>
      </trkpt>
      <trkpt lat="43.19383" lon="-0.60484">
        <ele>233.26</ele>
        <time>2021-08-20T07:02:54Z</time>
      </trkpt>
      <trkpt lat="43.19384" lon="-0.60485">
        <ele>233.26</ele>
        <time>2021-08-20T07:03:07Z</time>
      </trkpt>
      <trkpt lat="43.19382" lon="-0.60483">
        <ele>233.26</ele>
        <time>2021-08-20T07:03:26Z</time>
      </trkpt>
      <trkpt lat="43.19379" lon="-0.60485">
        <ele>233.26</ele>
        <time>2021-08-20T07:03:38Z</time>
      </trkpt>
      <trkpt lat="43.1938" lon="-0.60486">
        <ele>233.26</ele>
        <time>2021-08-20T07:03:46Z</time>
      </trkpt>
      <trkpt lat="43.19382" lon="-0.60485">
        <ele>233.26</ele>
        <time>2021-08-20T07:03:56Z</time>
      </trkpt>
      <trkpt lat="43.19382" lon="-0.60485">
        <ele>233.26</ele>
        <time>2021-08-20T07:04:10Z</time>
      </trkpt>
      <trkpt lat="43.19383" lon="-0.60484">
        <ele>233.74</ele>
        <time>2021-08-20T07:04:21Z</time>
      </trkpt>
      <trkpt lat="43.19382" lon="-0.60483">
        <ele>233.74</ele>
        <time>2021-08-20T07:04:34Z</time>
      </trkpt>
      <trkpt lat="43.1938" lon="-0.60485">
        <ele>233.74</ele>
        <time>2021-08-20T07:04:50Z</time>
      </trkpt>
      <trkpt lat="43.19381" lon="-0.60486">
        <ele>233.74</ele>
        <time>2021-08-20T07:05:06Z</time>
      </trkpt>
      <trkpt lat="43.19381" lon="-0.60487">
        <ele>233.74</ele>
        <time>2021-08-20T07:05:19Z</time>
      </trkpt>
      <trkpt lat="43.19386" lon="-0.60487">
        <ele>233.74</ele>
        <time>2021-08-20T07:05:43Z</time>
      </trkpt>
      <trkpt lat="43.19386" lon="-0.60486">
        <ele>233.74</ele>
        <time>2021-08-20T07:05:57Z</time>
      </trkpt>
      <trkpt lat="43.19386" lon="-0.60486">
        <ele>233.74</ele>
        <time>2021-08-20T07:06:11Z</time>
      </trkpt>
      <trkpt lat="43.19386" lon="-0.60485">
        <ele>233.74</ele>
        <time>2021-08-20T07:06:24Z</time>
      </trkpt>
      <trkpt lat="43.19385" lon="-0.60484">
        <ele>234.22</ele>
        <time>2021-08-20T07:06:39Z</time>
      </trkpt>
      <trkpt lat="43.19383" lon="-0.60485">
        <ele>234.22</ele>
        <time>2021-08-20T07:06:52Z</time>
      </trkpt>
      <trkpt lat="43.19381" lon="-0.60486">
        <ele>234.22</ele>
        <time>2021-08-20T07:07:08Z</time>
      </trkpt>
      <trkpt lat="43.19382" lon="-0.60487">
        <ele>234.22</ele>
        <time>2021-08-20T07:07:25Z</time>
      </trkpt>
      <trkpt lat="43.19384" lon="-0.60487">
        <ele>234.22</ele>
        <time>2021-08-20T07:07:39Z</time>
      </trkpt>
      <trkpt lat="43.19384" lon="-0.60486">
        <ele>234.22</ele>
        <time>2021-08-20T07:07:51Z</time>
      </trkpt>
      <trkpt lat="43.19383" lon="-0.60485">
        <ele>234.22</ele>
        <time>2021-08-20T07:08:06Z</time>
      </trkpt>
      <trkpt lat="43.19384" lon="-0.60487">
        <ele>235.18</ele>
        <time>2021-08-20T07:08:25Z</time>
      </trkpt>
      <trkpt lat="43.19383" lon="-0.60487">
        <ele>235.18</ele>
        <time>2021-08-20T07:08:36Z</time>
      </trkpt>
      <trkpt lat="43.19382" lon="-0.60486">
        <ele>235.18</ele>
        <time>2021-08-20T07:08:42Z</time>
      </trkpt>
      <trkpt lat="43.19381" lon="-0.60487">
        <ele>235.18</ele>
        <time>2021-08-20T07:08:59Z</time>
      </trkpt>
      <trkpt lat="43.19381" lon="-0.60488">
        <ele>235.18</ele>
        <time>2021-08-20T07:09:15Z</time>
      </trkpt>
      <trkpt lat="43.19381" lon="-0.60489">
        <ele>235.18</ele>
        <time>2021-08-20T07:09:27Z</time>
      </trkpt>
      <trkpt lat="43.19381" lon="-0.60491">
        <ele>235.18</ele>
        <time>2021-08-20T07:09:39Z</time>
      </trkpt>
      <trkpt lat="43.1938" lon="-0.60492">
        <ele>235.18</ele>
        <time>2021-08-20T07:09:52Z</time>
      </trkpt>
      <trkpt lat="43.19381" lon="-0.60493">
        <ele>235.18</ele>
        <time>2021-08-20T07:10:08Z</time>
      </trkpt>
      <trkpt lat="43.19381" lon="-0.60489">
        <ele>235.18</ele>
        <time>2021-08-20T07:10:22Z</time>
      </trkpt>
      <trkpt lat="43.1938" lon="-0.60489">
        <ele>235.18</ele>
        <time>2021-08-20T07:10:39Z</time>
      </trkpt>
      <trkpt lat="43.19385" lon="-0.60489">
        <ele>235.18</ele>
        <time>2021-08-20T07:10:54Z</time>
      </trkpt>
      <trkpt lat="43.19384" lon="-0.60487">
        <ele>235.18</ele>
        <time>2021-08-20T07:11:10Z</time>
      </trkpt>
      <trkpt lat="43.19383" lon="-0.60487">
        <ele>234.7</ele>
        <time>2021-08-20T07:11:24Z</time>
      </trkpt>
      <trkpt lat="43.19382" lon="-0.60488">
        <ele>234.7</ele>
        <time>2021-08-20T07:11:39Z</time>
      </trkpt>
      <trkpt lat="43.19382" lon="-0.60488">
        <ele>234.7</ele>
        <time>2021-08-20T07:11:55Z</time>
      </trkpt>
      <trkpt lat="43.1938" lon="-0.6049">
        <ele>234.7</ele>
        <time>2021-08-20T07:12:14Z</time>
      </trkpt>
      <trkpt lat="43.1938" lon="-0.60489">
        <ele>234.7</ele>
        <time>2021-08-20T07:12:30Z</time>
      </trkpt>
      <trkpt lat="43.19379" lon="-0.60488">
        <ele>235.18</ele>
        <time>2021-08-20T07:12:44Z</time>
      </trkpt>
      <trkpt lat="43.19382" lon="-0.60487">
        <ele>235.18</ele>
        <time>2021-08-20T07:12:58Z</time>
      </trkpt>
      <trkpt lat="43.19381" lon="-0.60486">
        <ele>235.18</ele>
        <time>2021-08-20T07:13:13Z</time>
      </trkpt>
      <trkpt lat="43.1938" lon="-0.60484">
        <ele>235.18</ele>
        <time>2021-08-20T07:13:26Z</time>
      </trkpt>
      <trkpt lat="43.19379" lon="-0.60482">
        <ele>235.66</ele>
        <time>2021-08-20T07:13:46Z</time>
      </trkpt>
      <trkpt lat="43.19379" lon="-0.60484">
        <ele>235.66</ele>
        <time>2021-08-20T07:13:59Z</time>
      </trkpt>
      <trkpt lat="43.19378" lon="-0.60482">
        <ele>235.66</ele>
        <time>2021-08-20T07:14:25Z</time>
      </trkpt>
      <trkpt lat="43.19376" lon="-0.60485">
        <ele>235.66</ele>
        <time>2021-08-20T07:14:41Z</time>
      </trkpt>
      <trkpt lat="43.19374" lon="-0.60485">
        <ele>235.66</ele>
        <time>2021-08-20T07:15:03Z</time>
      </trkpt>
      <trkpt lat="43.19377" lon="-0.60487">
        <ele>235.66</ele>
        <time>2021-08-20T07:15:21Z</time>
      </trkpt>
      <trkpt lat="43.19378" lon="-0.60486">
        <ele>235.66</ele>
        <time>2021-08-20T07:15:42Z</time>
      </trkpt>
      <trkpt lat="43.19379" lon="-0.60488">
        <ele>236.14</ele>
        <time>2021-08-20T07:16:01Z</time>
      </trkpt>
      <trkpt lat="43.19382" lon="-0.60486">
        <ele>236.14</ele>
        <time>2021-08-20T07:16:25Z</time>
      </trkpt>
      <trkpt lat="43.19383" lon="-0.60489">
        <ele>236.14</ele>
        <time>2021-08-20T07:16:51Z</time>
      </trkpt>
      <trkpt lat="43.19383" lon="-0.60491">
        <ele>236.14</ele>
        <time>2021-08-20T07:17:11Z</time>
      </trkpt>
      <trkpt lat="43.19381" lon="-0.6049">
        <ele>236.14</ele>
        <time>2021-08-20T07:17:23Z</time>
      </trkpt>
      <trkpt lat="43.19381" lon="-0.60485">
        <ele>236.62</ele>
        <time>2021-08-20T07:17:47Z</time>
      </trkpt>
      <trkpt lat="43.19383" lon="-0.60486">
        <ele>236.62</ele>
        <time>2021-08-20T07:18:13Z</time>
      </trkpt>
      <trkpt lat="43.19381" lon="-0.60484">
        <ele>236.62</ele>
        <time>2021-08-20T07:18:42Z</time>
      </trkpt>
      <trkpt lat="43.19381" lon="-0.60487">
        <ele>237.1</ele>
        <time>2021-08-20T07:19:09Z</time>
      </trkpt>
      <trkpt lat="43.19381" lon="-0.60488">
        <ele>237.1</ele>
        <time>2021-08-20T07:19:31Z</time>
      </trkpt>
      <trkpt lat="43.1938" lon="-0.60488">
        <ele>237.1</ele>
        <time>2021-08-20T07:19:49Z</time>
      </trkpt>
      <trkpt lat="43.1938" lon="-0.60487">
        <ele>237.1</ele>
        <time>2021-08-20T07:20:12Z</time>
      </trkpt>
      <trkpt lat="43.19381" lon="-0.60489">
        <ele>237.1</ele>
        <time>2021-08-20T07:20:30Z</time>
      </trkpt>
      <trkpt lat="43.1938" lon="-0.60493">
        <ele>237.1</ele>
        <time>2021-08-20T07:20:47Z</time>
      </trkpt>
      <trkpt lat="43.1938" lon="-0.60493">
        <ele>237.1</ele>
        <time>2021-08-20T07:21:05Z</time>
      </trkpt>
      <trkpt lat="43.1938" lon="-0.60485">
        <ele>237.1</ele>
        <time>2021-08-20T07:21:31Z</time>
      </trkpt>
      <trkpt lat="43.19382" lon="-0.60488">
        <ele>237.1</ele>
        <time>2021-08-20T07:21:53Z</time>
      </trkpt>
      <trkpt lat="43.19381" lon="-0.60486">
        <ele>237.1</ele>
        <time>2021-08-20T07:22:17Z</time>
      </trkpt>
      <trkpt lat="43.19382" lon="-0.60489">
        <ele>237.1</ele>
        <time>2021-08-20T07:22:35Z</time>
      </trkpt>
      <trkpt lat="43.19383" lon="-0.6049">
        <ele>237.1</ele>
        <time>2021-08-20T07:22:47Z</time>
      </trkpt>
      <trkpt lat="43.19382" lon="-0.60492">
        <ele>237.1</ele>
        <time>2021-08-20T07:23:09Z</time>
      </trkpt>
      <trkpt lat="43.19382" lon="-0.60491">
        <ele>237.1</ele>
        <time>2021-08-20T07:23:28Z</time>
      </trkpt>
      <trkpt lat="43.19381" lon="-0.60492">
        <ele>237.1</ele>
        <time>2021-08-20T07:23:45Z</time>
      </trkpt>
      <trkpt lat="43.1938" lon="-0.60493">
        <ele>237.1</ele>
        <time>2021-08-20T07:24:08Z</time>
      </trkpt>
      <trkpt lat="43.19378" lon="-0.60493">
        <ele>237.1</ele>
        <time>2021-08-20T07:24:31Z</time>
      </trkpt>
      <trkpt lat="43.19377" lon="-0.60493">
        <ele>237.1</ele>
        <time>2021-08-20T07:24:52Z</time>
      </trkpt>
      <trkpt lat="43.19382" lon="-0.60493">
        <ele>237.1</ele>
        <time>2021-08-20T07:25:07Z</time>
      </trkpt>
      <trkpt lat="43.19382" lon="-0.60494">
        <ele>236.62</ele>
        <time>2021-08-20T07:25:26Z</time>
      </trkpt>
      <trkpt lat="43.19381" lon="-0.60493">
        <ele>235.66</ele>
        <time>2021-08-20T07:25:50Z</time>
      </trkpt>
      <trkpt lat="43.1938" lon="-0.60494">
        <ele>235.66</ele>
        <time>2021-08-20T07:26:10Z</time>
      </trkpt>
      <trkpt lat="43.19378" lon="-0.60492">
        <ele>235.18</ele>
        <time>2021-08-20T07:26:26Z</time>
      </trkpt>
      <trkpt lat="43.19379" lon="-0.60492">
        <ele>235.18</ele>
        <time>2021-08-20T07:26:47Z</time>
      </trkpt>
      <trkpt lat="43.1938" lon="-0.60493">
        <ele>235.18</ele>
        <time>2021-08-20T07:27:07Z</time>
      </trkpt>
      <trkpt lat="43.19383" lon="-0.60493">
        <ele>235.18</ele>
        <time>2021-08-20T07:27:26Z</time>
      </trkpt>
      <trkpt lat="43.19382" lon="-0.60493">
        <ele>235.18</ele>
        <time>2021-08-20T07:27:42Z</time>
      </trkpt>
      <trkpt lat="43.19381" lon="-0.60487">
        <ele>235.18</ele>
        <time>2021-08-20T07:28:03Z</time>
      </trkpt>
      <trkpt lat="43.19384" lon="-0.60486">
        <ele>235.18</ele>
        <time>2021-08-20T07:28:18Z</time>
      </trkpt>
      <trkpt lat="43.19385" lon="-0.60486">
        <ele>235.18</ele>
        <time>2021-08-20T07:28:35Z</time>
      </trkpt>
      <trkpt lat="43.19383" lon="-0.60487">
        <ele>235.18</ele>
        <time>2021-08-20T07:28:49Z</time>
      </trkpt>
      <trkpt lat="43.19382" lon="-0.60489">
        <ele>235.18</ele>
        <time>2021-08-20T07:29:01Z</time>
      </trkpt>
      <trkpt lat="43.19384" lon="-0.6049">
        <ele>235.18</ele>
        <time>2021-08-20T07:29:21Z</time>
      </trkpt>
      <trkpt lat="43.19383" lon="-0.60487">
        <ele>235.18</ele>
        <time>2021-08-20T07:29:40Z</time>
      </trkpt>
      <trkpt lat="43.19379" lon="-0.60487">
        <ele>235.18</ele>
        <time>2021-08-20T07:29:58Z</time>
      </trkpt>
      <trkpt lat="43.1938" lon="-0.60487">
        <ele>235.18</ele>
        <time>2021-08-20T07:30:18Z</time>
      </trkpt>
      <trkpt lat="43.19381" lon="-0.60485">
        <ele>235.18</ele>
        <time>2021-08-20T07:30:34Z</time>
      </trkpt>
      <trkpt lat="43.19382" lon="-0.60485">
        <ele>235.18</ele>
        <time>2021-08-20T07:30:52Z</time>
      </trkpt>
      <trkpt lat="43.19381" lon="-0.60484">
        <ele>235.18</ele>
        <time>2021-08-20T07:31:14Z</time>
      </trkpt>
      <trkpt lat="43.19382" lon="-0.60486">
        <ele>235.66</ele>
        <time>2021-08-20T07:31:34Z</time>
      </trkpt>
      <trkpt lat="43.19382" lon="-0.60485">
        <ele>235.66</ele>
        <time>2021-08-20T07:31:57Z</time>
      </trkpt>
      <trkpt lat="43.19384" lon="-0.60486">
        <ele>235.66</ele>
        <time>2021-08-20T07:32:20Z</time>
      </trkpt>
      <trkpt lat="43.19383" lon="-0.60488">
        <ele>235.66</ele>
        <time>2021-08-20T07:32:39Z</time>
      </trkpt>
      <trkpt lat="43.19384" lon="-0.60488">
        <ele>235.66</ele>
        <time>2021-08-20T07:33:00Z</time>
      </trkpt>
      <trkpt lat="43.19385" lon="-0.60487">
        <ele>235.66</ele>
        <time>2021-08-20T07:33:16Z</time>
      </trkpt>
      <trkpt lat="43.19384" lon="-0.60487">
        <ele>235.66</ele>
        <time>2021-08-20T07:33:41Z</time>
      </trkpt>
      <trkpt lat="43.19384" lon="-0.60486">
        <ele>235.66</ele>
        <time>2021-08-20T07:34:00Z</time>
      </trkpt>
      <trkpt lat="43.19384" lon="-0.60485">
        <ele>236.14</ele>
        <time>2021-08-20T07:34:19Z</time>
      </trkpt>
      <trkpt lat="43.19383" lon="-0.60484">
        <ele>236.14</ele>
        <time>2021-08-20T07:34:35Z</time>
      </trkpt>
      <trkpt lat="43.19385" lon="-0.60484">
        <ele>236.14</ele>
        <time>2021-08-20T07:34:55Z</time>
      </trkpt>
      <trkpt lat="43.19388" lon="-0.60484">
        <ele>236.14</ele>
        <time>2021-08-20T07:35:09Z</time>
      </trkpt>
      <trkpt lat="43.19386" lon="-0.60485">
        <ele>236.14</ele>
        <time>2021-08-20T07:35:29Z</time>
      </trkpt>
      <trkpt lat="43.19385" lon="-0.60485">
        <ele>236.14</ele>
        <time>2021-08-20T07:35:43Z</time>
      </trkpt>
      <trkpt lat="43.19386" lon="-0.60487">
        <ele>236.14</ele>
        <time>2021-08-20T07:36:02Z</time>
      </trkpt>
      <trkpt lat="43.19389" lon="-0.60486">
        <ele>236.14</ele>
        <time>2021-08-20T07:36:21Z</time>
      </trkpt>
      <trkpt lat="43.19386" lon="-0.60485">
        <ele>236.14</ele>
        <time>2021-08-20T07:36:40Z</time>
      </trkpt>
      <trkpt lat="43.19385" lon="-0.60488">
        <ele>236.14</ele>
        <time>2021-08-20T07:36:56Z</time>
      </trkpt>
      <trkpt lat="43.19385" lon="-0.60488">
        <ele>236.14</ele>
        <time>2021-08-20T07:37:12Z</time>
      </trkpt>
      <trkpt lat="43.19385" lon="-0.60487">
        <ele>236.14</ele>
        <time>2021-08-20T07:37:29Z</time>
      </trkpt>
      <trkpt lat="43.19384" lon="-0.60487">
        <ele>236.14</ele>
        <time>2021-08-20T07:37:42Z</time>
      </trkpt>
      <trkpt lat="43.19382" lon="-0.60487">
        <ele>236.14</ele>
        <time>2021-08-20T07:37:49Z</time>
      </trkpt>
      <trkpt lat="43.19381" lon="-0.6049">
        <ele>236.14</ele>
        <time>2021-08-20T07:38:05Z</time>
      </trkpt>
      <trkpt lat="43.19379" lon="-0.6049">
        <ele>236.14</ele>
        <time>2021-08-20T07:38:27Z</time>
      </trkpt>
      <trkpt lat="43.19378" lon="-0.60491">
        <ele>236.14</ele>
        <time>2021-08-20T07:38:41Z</time>
      </trkpt>
      <trkpt lat="43.19376" lon="-0.6049">
        <ele>236.14</ele>
        <time>2021-08-20T07:38:59Z</time>
      </trkpt>
      <trkpt lat="43.19379" lon="-0.60491">
        <ele>237.1</ele>
        <time>2021-08-20T07:39:11Z</time>
      </trkpt>
      <trkpt lat="43.19379" lon="-0.60491">
        <ele>237.1</ele>
        <time>2021-08-20T07:39:27Z</time>
      </trkpt>
      <trkpt lat="43.1938" lon="-0.60491">
        <ele>237.1</ele>
        <time>2021-08-20T07:39:48Z</time>
      </trkpt>
      <trkpt lat="43.1938" lon="-0.60492">
        <ele>236.62</ele>
        <time>2021-08-20T07:40:02Z</time>
      </trkpt>
      <trkpt lat="43.1938" lon="-0.60492">
        <ele>236.62</ele>
        <time>2021-08-20T07:40:16Z</time>
      </trkpt>
      <trkpt lat="43.1938" lon="-0.60492">
        <ele>236.62</ele>
        <time>2021-08-20T07:40:29Z</time>
      </trkpt>
      <trkpt lat="43.19379" lon="-0.60494">
        <ele>236.62</ele>
        <time>2021-08-20T07:40:47Z</time>
      </trkpt>
      <trkpt lat="43.19379" lon="-0.60494">
        <ele>236.14</ele>
        <time>2021-08-20T07:41:04Z</time>
      </trkpt>
      <trkpt lat="43.19382" lon="-0.60495">
        <ele>236.14</ele>
        <time>2021-08-20T07:41:26Z</time>
      </trkpt>
      <trkpt lat="43.19379" lon="-0.60494">
        <ele>235.66</ele>
        <time>2021-08-20T07:41:51Z</time>
      </trkpt>
      <trkpt lat="43.19381" lon="-0.60497">
        <ele>235.18</ele>
        <time>2021-08-20T07:42:11Z</time>
      </trkpt>
      <trkpt lat="43.1938" lon="-0.60497">
        <ele>235.18</ele>
        <time>2021-08-20T07:42:30Z</time>
      </trkpt>
      <trkpt lat="43.19381" lon="-0.60497">
        <ele>234.7</ele>
        <time>2021-08-20T07:42:49Z</time>
      </trkpt>
      <trkpt lat="43.19378" lon="-0.60499">
        <ele>234.7</ele>
        <time>2021-08-20T07:43:10Z</time>
      </trkpt>
      <trkpt lat="43.1938" lon="-0.60495">
        <ele>234.7</ele>
        <time>2021-08-20T07:43:26Z</time>
      </trkpt>
      <trkpt lat="43.1938" lon="-0.60494">
        <ele>234.22</ele>
        <time>2021-08-20T07:43:45Z</time>
      </trkpt>
      <trkpt lat="43.19379" lon="-0.60492">
        <ele>234.22</ele>
        <time>2021-08-20T07:44:02Z</time>
      </trkpt>
      <trkpt lat="43.19378" lon="-0.6049">
        <ele>234.22</ele>
        <time>2021-08-20T07:44:23Z</time>
      </trkpt>
      <trkpt lat="43.19378" lon="-0.6049">
        <ele>233.74</ele>
        <time>2021-08-20T07:44:37Z</time>
      </trkpt>
      <trkpt lat="43.1938" lon="-0.6049">
        <ele>233.74</ele>
        <time>2021-08-20T07:44:50Z</time>
      </trkpt>
      <trkpt lat="43.19379" lon="-0.6049">
        <ele>233.74</ele>
        <time>2021-08-20T07:44:59Z</time>
      </trkpt>
      <trkpt lat="43.19379" lon="-0.6049">
        <ele>233.74</ele>
        <time>2021-08-20T07:45:00Z</time>
      </trkpt>
      <trkpt lat="43.19377" lon="-0.60489">
        <ele>233.74</ele>
        <time>2021-08-20T07:45:01Z</time>
      </trkpt>
      <trkpt lat="43.19376" lon="-0.60489">
        <ele>233.74</ele>
        <time>2021-08-20T07:45:02Z</time>
      </trkpt>
      <trkpt lat="43.19366" lon="-0.60482">
        <ele>233.74</ele>
        <time>2021-08-20T07:45:08Z</time>
      </trkpt>
      <trkpt lat="43.19346" lon="-0.6047">
        <ele>233.74</ele>
        <time>2021-08-20T07:45:16Z</time>
      </trkpt>
      <trkpt lat="43.19344" lon="-0.60468">
        <ele>233.74</ele>
        <time>2021-08-20T07:45:18Z</time>
      </trkpt>
      <trkpt lat="43.19342" lon="-0.60468">
        <ele>233.74</ele>
        <time>2021-08-20T07:45:19Z</time>
      </trkpt>
      <trkpt lat="43.19341" lon="-0.60467">
        <ele>233.74</ele>
        <time>2021-08-20T07:45:20Z</time>
      </trkpt>
      <trkpt lat="43.19339" lon="-0.60465">
        <ele>233.74</ele>
        <time>2021-08-20T07:45:21Z</time>
      </trkpt>
      <trkpt lat="43.19338" lon="-0.60464">
        <ele>228.45</ele>
        <time>2021-08-20T07:45:22Z</time>
      </trkpt>
      <trkpt lat="43.19337" lon="-0.60464">
        <ele>235.66</ele>
        <time>2021-08-20T07:45:23Z</time>
      </trkpt>
      <trkpt lat="43.19335" lon="-0.60462">
        <ele>232.78</ele>
        <time>2021-08-20T07:45:26Z</time>
      </trkpt>
      <trkpt lat="43.19334" lon="-0.60462">
        <ele>232.78</ele>
        <time>2021-08-20T07:45:27Z</time>
      </trkpt>
      <trkpt lat="43.19333" lon="-0.60462">
        <ele>232.78</ele>
        <time>2021-08-20T07:45:28Z</time>
      </trkpt>
      <trkpt lat="43.19331" lon="-0.6046">
        <ele>232.78</ele>
        <time>2021-08-20T07:45:29Z</time>
      </trkpt>
      <trkpt lat="43.19329" lon="-0.60459">
        <ele>232.78</ele>
        <time>2021-08-20T07:45:30Z</time>
      </trkpt>
      <trkpt lat="43.19327" lon="-0.60456">
        <ele>232.78</ele>
        <time>2021-08-20T07:45:31Z</time>
      </trkpt>
      <trkpt lat="43.19325" lon="-0.60453">
        <ele>232.78</ele>
        <time>2021-08-20T07:45:32Z</time>
      </trkpt>
      <trkpt lat="43.19325" lon="-0.6045">
        <ele>232.78</ele>
        <time>2021-08-20T07:45:33Z</time>
      </trkpt>
      <trkpt lat="43.19323" lon="-0.60435">
        <ele>233.74</ele>
        <time>2021-08-20T07:45:40Z</time>
      </trkpt>
      <trkpt lat="43.19334" lon="-0.60421">
        <ele>235.66</ele>
        <time>2021-08-20T07:45:48Z</time>
      </trkpt>
      <trkpt lat="43.19343" lon="-0.60406">
        <ele>237.1</ele>
        <time>2021-08-20T07:45:56Z</time>
      </trkpt>
      <trkpt lat="43.19359" lon="-0.60399">
        <ele>237.58</ele>
        <time>2021-08-20T07:46:04Z</time>
      </trkpt>
      <trkpt lat="43.19379" lon="-0.60408">
        <ele>237.58</ele>
        <time>2021-08-20T07:46:12Z</time>
      </trkpt>
      <trkpt lat="43.19399" lon="-0.60416">
        <ele>238.54</ele>
        <time>2021-08-20T07:46:19Z</time>
      </trkpt>
      <trkpt lat="43.19424" lon="-0.60426">
        <ele>239.51</ele>
        <time>2021-08-20T07:46:28Z</time>
      </trkpt>
      <trkpt lat="43.19446" lon="-0.60439">
        <ele>240.47</ele>
        <time>2021-08-20T07:46:36Z</time>
      </trkpt>
      <trkpt lat="43.19472" lon="-0.60452">
        <ele>241.91</ele>
        <time>2021-08-20T07:46:45Z</time>
      </trkpt>
      <trkpt lat="43.19495" lon="-0.60452">
        <ele>242.39</ele>
        <time>2021-08-20T07:46:52Z</time>
      </trkpt>
      <trkpt lat="43.19523" lon="-0.60436">
        <ele>243.35</ele>
        <time>2021-08-20T07:47:00Z</time>
      </trkpt>
      <trkpt lat="43.19554" lon="-0.60417">
        <ele>243.35</ele>
        <time>2021-08-20T07:47:08Z</time>
      </trkpt>
      <trkpt lat="43.19559" lon="-0.60415">
        <ele>243.35</ele>
        <time>2021-08-20T07:47:09Z</time>
      </trkpt>
      <trkpt lat="43.19563" lon="-0.60413">
        <ele>243.35</ele>
        <time>2021-08-20T07:47:10Z</time>
      </trkpt>
      <trkpt lat="43.19568" lon="-0.60412">
        <ele>243.35</ele>
        <time>2021-08-20T07:47:11Z</time>
      </trkpt>
      <trkpt lat="43.19573" lon="-0.60411">
        <ele>243.35</ele>
        <time>2021-08-20T07:47:12Z</time>
      </trkpt>
      <trkpt lat="43.19578" lon="-0.60412">
        <ele>243.35</ele>
        <time>2021-08-20T07:47:13Z</time>
      </trkpt>
      <trkpt lat="43.19584" lon="-0.60412">
        <ele>241.91</ele>
        <time>2021-08-20T07:47:14Z</time>
      </trkpt>
      <trkpt lat="43.1964" lon="-0.60422">
        <ele>240.95</ele>
        <time>2021-08-20T07:47:24Z</time>
      </trkpt>
      <trkpt lat="43.19683" lon="-0.60422">
        <ele>240.95</ele>
        <time>2021-08-20T07:47:32Z</time>
      </trkpt>
      <trkpt lat="43.19722" lon="-0.60423">
        <ele>240.47</ele>
        <time>2021-08-20T07:47:39Z</time>
      </trkpt>
      <trkpt lat="43.19743" lon="-0.60422">
        <ele>239.99</ele>
        <time>2021-08-20T07:47:43Z</time>
      </trkpt>
      <trkpt lat="43.19747" lon="-0.6042">
        <ele>239.99</ele>
        <time>2021-08-20T07:47:44Z</time>
      </trkpt>
      <trkpt lat="43.19757" lon="-0.60415">
        <ele>239.99</ele>
        <time>2021-08-20T07:47:46Z</time>
      </trkpt>
      <trkpt lat="43.19762" lon="-0.60416">
        <ele>239.99</ele>
        <time>2021-08-20T07:47:47Z</time>
      </trkpt>
      <trkpt lat="43.19767" lon="-0.60418">
        <ele>239.99</ele>
        <time>2021-08-20T07:47:48Z</time>
      </trkpt>
      <trkpt lat="43.19771" lon="-0.60423">
        <ele>239.99</ele>
        <time>2021-08-20T07:47:49Z</time>
      </trkpt>
      <trkpt lat="43.19774" lon="-0.60429">
        <ele>239.99</ele>
        <time>2021-08-20T07:47:50Z</time>
      </trkpt>
      <trkpt lat="43.19778" lon="-0.60435">
        <ele>239.99</ele>
        <time>2021-08-20T07:47:51Z</time>
      </trkpt>
      <trkpt lat="43.19781" lon="-0.6044">
        <ele>239.99</ele>
        <time>2021-08-20T07:47:52Z</time>
      </trkpt>
      <trkpt lat="43.19784" lon="-0.60444">
        <ele>239.99</ele>
        <time>2021-08-20T07:47:53Z</time>
      </trkpt>
      <trkpt lat="43.19787" lon="-0.60446">
        <ele>239.99</ele>
        <time>2021-08-20T07:47:54Z</time>
      </trkpt>
      <trkpt lat="43.19789" lon="-0.60445">
        <ele>239.99</ele>
        <time>2021-08-20T07:47:55Z</time>
      </trkpt>
      <trkpt lat="43.19791" lon="-0.60443">
        <ele>239.99</ele>
        <time>2021-08-20T07:47:56Z</time>
      </trkpt>
      <trkpt lat="43.19794" lon="-0.60443">
        <ele>239.99</ele>
        <time>2021-08-20T07:47:57Z</time>
      </trkpt>
      <trkpt lat="43.19796" lon="-0.60443">
        <ele>239.99</ele>
        <time>2021-08-20T07:47:58Z</time>
      </trkpt>
      <trkpt lat="43.198" lon="-0.60444">
        <ele>239.99</ele>
        <time>2021-08-20T07:47:59Z</time>
      </trkpt>
      <trkpt lat="43.19804" lon="-0.60445">
        <ele>239.51</ele>
        <time>2021-08-20T07:48:00Z</time>
      </trkpt>
      <trkpt lat="43.19809" lon="-0.60445">
        <ele>239.51</ele>
        <time>2021-08-20T07:48:01Z</time>
      </trkpt>
      <trkpt lat="43.19813" lon="-0.60445">
        <ele>239.51</ele>
        <time>2021-08-20T07:48:02Z</time>
      </trkpt>
      <trkpt lat="43.19836" lon="-0.60444">
        <ele>239.51</ele>
        <time>2021-08-20T07:48:06Z</time>
      </trkpt>
      <trkpt lat="43.19853" lon="-0.60442">
        <ele>239.51</ele>
        <time>2021-08-20T07:48:09Z</time>
      </trkpt>
      <trkpt lat="43.19898" lon="-0.60441">
        <ele>239.51</ele>
        <time>2021-08-20T07:48:17Z</time>
      </trkpt>
      <trkpt lat="43.19948" lon="-0.6044">
        <ele>239.51</ele>
        <time>2021-08-20T07:48:26Z</time>
      </trkpt>
      <trkpt lat="43.19966" lon="-0.60438">
        <ele>239.51</ele>
        <time>2021-08-20T07:48:31Z</time>
      </trkpt>
      <trkpt lat="43.19969" lon="-0.60439">
        <ele>239.51</ele>
        <time>2021-08-20T07:48:37Z</time>
      </trkpt>
      <trkpt lat="43.19971" lon="-0.60439">
        <ele>239.51</ele>
        <time>2021-08-20T07:48:38Z</time>
      </trkpt>
      <trkpt lat="43.19974" lon="-0.6044">
        <ele>239.51</ele>
        <time>2021-08-20T07:48:39Z</time>
      </trkpt>
      <trkpt lat="43.19977" lon="-0.6044">
        <ele>239.51</ele>
        <time>2021-08-20T07:48:40Z</time>
      </trkpt>
      <trkpt lat="43.19982" lon="-0.6044">
        <ele>239.51</ele>
        <time>2021-08-20T07:48:41Z</time>
      </trkpt>
      <trkpt lat="43.20021" lon="-0.60439">
        <ele>239.51</ele>
        <time>2021-08-20T07:48:49Z</time>
      </trkpt>
      <trkpt lat="43.20081" lon="-0.60432">
        <ele>238.54</ele>
        <time>2021-08-20T07:49:01Z</time>
      </trkpt>
      <trkpt lat="43.20092" lon="-0.60429">
        <ele>238.54</ele>
        <time>2021-08-20T07:49:05Z</time>
      </trkpt>
      <trkpt lat="43.20091" lon="-0.60429">
        <ele>238.54</ele>
        <time>2021-08-20T07:49:13Z</time>
      </trkpt>
      <trkpt lat="43.20089" lon="-0.6043">
        <ele>238.54</ele>
        <time>2021-08-20T07:49:23Z</time>
      </trkpt>
      <trkpt lat="43.20085" lon="-0.60433">
        <ele>238.06</ele>
        <time>2021-08-20T07:49:39Z</time>
      </trkpt>
      <trkpt lat="43.20086" lon="-0.60432">
        <ele>238.06</ele>
        <time>2021-08-20T07:49:52Z</time>
      </trkpt>
      <trkpt lat="43.20087" lon="-0.60431">
        <ele>238.06</ele>
        <time>2021-08-20T07:50:06Z</time>
      </trkpt>
      <trkpt lat="43.20089" lon="-0.60429">
        <ele>238.06</ele>
        <time>2021-08-20T07:50:20Z</time>
      </trkpt>
      <trkpt lat="43.20091" lon="-0.60428">
        <ele>238.06</ele>
        <time>2021-08-20T07:50:35Z</time>
      </trkpt>
      <trkpt lat="43.20093" lon="-0.60426">
        <ele>238.06</ele>
        <time>2021-08-20T07:50:41Z</time>
      </trkpt>
      <trkpt lat="43.20094" lon="-0.60428">
        <ele>238.06</ele>
        <time>2021-08-20T07:50:44Z</time>
      </trkpt>
      <trkpt lat="43.20094" lon="-0.60429">
        <ele>237.58</ele>
        <time>2021-08-20T07:50:50Z</time>
      </trkpt>
      <trkpt lat="43.20091" lon="-0.60429">
        <ele>237.58</ele>
        <time>2021-08-20T07:51:16Z</time>
      </trkpt>
      <trkpt lat="43.2009" lon="-0.6043">
        <ele>237.58</ele>
        <time>2021-08-20T07:51:29Z</time>
      </trkpt>
      <trkpt lat="43.20091" lon="-0.60434">
        <ele>237.58</ele>
        <time>2021-08-20T07:51:45Z</time>
      </trkpt>
      <trkpt lat="43.20091" lon="-0.60433">
        <ele>237.58</ele>
        <time>2021-08-20T07:52:05Z</time>
      </trkpt>
      <trkpt lat="43.20088" lon="-0.60433">
        <ele>237.58</ele>
        <time>2021-08-20T07:52:24Z</time>
      </trkpt>
      <trkpt lat="43.20086" lon="-0.60432">
        <ele>237.58</ele>
        <time>2021-08-20T07:52:41Z</time>
      </trkpt>
      <trkpt lat="43.20087" lon="-0.6043">
        <ele>237.58</ele>
        <time>2021-08-20T07:52:54Z</time>
      </trkpt>
      <trkpt lat="43.20089" lon="-0.60428">
        <ele>238.06</ele>
        <time>2021-08-20T07:53:10Z</time>
      </trkpt>
      <trkpt lat="43.20089" lon="-0.60426">
        <ele>238.06</ele>
        <time>2021-08-20T07:53:34Z</time>
      </trkpt>
      <trkpt lat="43.20088" lon="-0.60424">
        <ele>238.06</ele>
        <time>2021-08-20T07:53:53Z</time>
      </trkpt>
      <trkpt lat="43.20089" lon="-0.60424">
        <ele>238.06</ele>
        <time>2021-08-20T07:54:15Z</time>
      </trkpt>
      <trkpt lat="43.20089" lon="-0.60423">
        <ele>238.06</ele>
        <time>2021-08-20T07:54:45Z</time>
      </trkpt>
      <trkpt lat="43.20089" lon="-0.60429">
        <ele>239.51</ele>
        <time>2021-08-20T07:55:06Z</time>
      </trkpt>
      <trkpt lat="43.20091" lon="-0.60433">
        <ele>239.51</ele>
        <time>2021-08-20T07:55:16Z</time>
      </trkpt>
      <trkpt lat="43.20093" lon="-0.60434">
        <ele>239.51</ele>
        <time>2021-08-20T07:55:18Z</time>
      </trkpt>
      <trkpt lat="43.20094" lon="-0.60435">
        <ele>239.51</ele>
        <time>2021-08-20T07:55:19Z</time>
      </trkpt>
      <trkpt lat="43.20096" lon="-0.60435">
        <ele>239.51</ele>
        <time>2021-08-20T07:55:20Z</time>
      </trkpt>
      <trkpt lat="43.20098" lon="-0.60435">
        <ele>239.51</ele>
        <time>2021-08-20T07:55:21Z</time>
      </trkpt>
      <trkpt lat="43.201" lon="-0.60435">
        <ele>239.51</ele>
        <time>2021-08-20T07:55:22Z</time>
      </trkpt>
      <trkpt lat="43.20103" lon="-0.60435">
        <ele>239.51</ele>
        <time>2021-08-20T07:55:23Z</time>
      </trkpt>
      <trkpt lat="43.20106" lon="-0.60435">
        <ele>239.51</ele>
        <time>2021-08-20T07:55:24Z</time>
      </trkpt>
      <trkpt lat="43.20131" lon="-0.60434">
        <ele>239.51</ele>
        <time>2021-08-20T07:55:30Z</time>
      </trkpt>
      <trkpt lat="43.20161" lon="-0.60432">
        <ele>238.06</ele>
        <time>2021-08-20T07:55:36Z</time>
      </trkpt>
      <trkpt lat="43.20202" lon="-0.60427">
        <ele>236.14</ele>
        <time>2021-08-20T07:55:43Z</time>
      </trkpt>
      <trkpt lat="43.20246" lon="-0.60417">
        <ele>233.74</ele>
        <time>2021-08-20T07:55:49Z</time>
      </trkpt>
      <trkpt lat="43.20276" lon="-0.60414">
        <ele>231.33</ele>
        <time>2021-08-20T07:55:53Z</time>
      </trkpt>
      <trkpt lat="43.20286" lon="-0.60415">
        <ele>230.37</ele>
        <time>2021-08-20T07:55:54Z</time>
      </trkpt>
      <trkpt lat="43.20293" lon="-0.60416">
        <ele>229.89</ele>
        <time>2021-08-20T07:55:55Z</time>
      </trkpt>
      <trkpt lat="43.20317" lon="-0.60421">
        <ele>229.41</ele>
        <time>2021-08-20T07:55:59Z</time>
      </trkpt>
      <trkpt lat="43.20317" lon="-0.6042">
        <ele>229.41</ele>
        <time>2021-08-20T07:56:03Z</time>
      </trkpt>
      <trkpt lat="43.20318" lon="-0.60419">
        <ele>228.93</ele>
        <time>2021-08-20T07:56:15Z</time>
      </trkpt>
      <trkpt lat="43.20319" lon="-0.6042">
        <ele>228.93</ele>
        <time>2021-08-20T07:56:16Z</time>
      </trkpt>
      <trkpt lat="43.20332" lon="-0.60435">
        <ele>228.45</ele>
        <time>2021-08-20T07:56:21Z</time>
      </trkpt>
      <trkpt lat="43.20336" lon="-0.6044">
        <ele>227.49</ele>
        <time>2021-08-20T07:56:22Z</time>
      </trkpt>
      <trkpt lat="43.2036" lon="-0.6048">
        <ele>226.53</ele>
        <time>2021-08-20T07:56:28Z</time>
      </trkpt>
      <trkpt lat="43.20381" lon="-0.60536">
        <ele>225.57</ele>
        <time>2021-08-20T07:56:35Z</time>
      </trkpt>
      <trkpt lat="43.2039" lon="-0.60563">
        <ele>226.53</ele>
        <time>2021-08-20T07:56:39Z</time>
      </trkpt>
      <trkpt lat="43.20405" lon="-0.60594">
        <ele>228.45</ele>
        <time>2021-08-20T07:56:46Z</time>
      </trkpt>
      <trkpt lat="43.2041" lon="-0.60615">
        <ele>229.41</ele>
        <time>2021-08-20T07:56:51Z</time>
      </trkpt>
      <trkpt lat="43.20407" lon="-0.60619">
        <ele>229.41</ele>
        <time>2021-08-20T07:56:52Z</time>
      </trkpt>
      <trkpt lat="43.20395" lon="-0.60637">
        <ele>226.05</ele>
        <time>2021-08-20T07:56:55Z</time>
      </trkpt>
      <trkpt lat="43.20379" lon="-0.60658">
        <ele>226.05</ele>
        <time>2021-08-20T07:57:00Z</time>
      </trkpt>
      <trkpt lat="43.20363" lon="-0.60695">
        <ele>226.05</ele>
        <time>2021-08-20T07:57:07Z</time>
      </trkpt>
      <trkpt lat="43.20354" lon="-0.60719">
        <ele>228.45</ele>
        <time>2021-08-20T07:57:13Z</time>
      </trkpt>
      <trkpt lat="43.20349" lon="-0.60735">
        <ele>228.93</ele>
        <time>2021-08-20T07:57:18Z</time>
      </trkpt>
      <trkpt lat="43.20347" lon="-0.60741">
        <ele>229.41</ele>
        <time>2021-08-20T07:57:23Z</time>
      </trkpt>
      <trkpt lat="43.20344" lon="-0.60747">
        <ele>229.41</ele>
        <time>2021-08-20T07:57:30Z</time>
      </trkpt>
      <trkpt lat="43.20331" lon="-0.60771">
        <ele>229.41</ele>
        <time>2021-08-20T07:57:36Z</time>
      </trkpt>
      <trkpt lat="43.20305" lon="-0.60818">
        <ele>228.45</ele>
        <time>2021-08-20T07:57:45Z</time>
      </trkpt>
      <trkpt lat="43.20297" lon="-0.60835">
        <ele>227.97</ele>
        <time>2021-08-20T07:57:48Z</time>
      </trkpt>
      <trkpt lat="43.20294" lon="-0.6084">
        <ele>227.97</ele>
        <time>2021-08-20T07:57:49Z</time>
      </trkpt>
      <trkpt lat="43.20267" lon="-0.60885">
        <ele>226.53</ele>
        <time>2021-08-20T07:57:57Z</time>
      </trkpt>
      <trkpt lat="43.20229" lon="-0.60949">
        <ele>225.57</ele>
        <time>2021-08-20T07:58:07Z</time>
      </trkpt>
      <trkpt lat="43.20201" lon="-0.60997">
        <ele>224.12</ele>
        <time>2021-08-20T07:58:15Z</time>
      </trkpt>
      <trkpt lat="43.20194" lon="-0.61013">
        <ele>223.64</ele>
        <time>2021-08-20T07:58:18Z</time>
      </trkpt>
      <trkpt lat="43.20195" lon="-0.61019">
        <ele>223.16</ele>
        <time>2021-08-20T07:58:19Z</time>
      </trkpt>
      <trkpt lat="43.20196" lon="-0.61022">
        <ele>223.16</ele>
        <time>2021-08-20T07:58:20Z</time>
      </trkpt>
      <trkpt lat="43.20198" lon="-0.61027">
        <ele>223.16</ele>
        <time>2021-08-20T07:58:21Z</time>
      </trkpt>
      <trkpt lat="43.20199" lon="-0.61032">
        <ele>223.16</ele>
        <time>2021-08-20T07:58:22Z</time>
      </trkpt>
      <trkpt lat="43.202" lon="-0.61038">
        <ele>223.16</ele>
        <time>2021-08-20T07:58:23Z</time>
      </trkpt>
      <trkpt lat="43.20202" lon="-0.6105">
        <ele>223.16</ele>
        <time>2021-08-20T07:58:25Z</time>
      </trkpt>
      <trkpt lat="43.20204" lon="-0.61056">
        <ele>223.16</ele>
        <time>2021-08-20T07:58:26Z</time>
      </trkpt>
      <trkpt lat="43.20207" lon="-0.61062">
        <ele>223.16</ele>
        <time>2021-08-20T07:58:27Z</time>
      </trkpt>
      <trkpt lat="43.2023" lon="-0.61125">
        <ele>223.16</ele>
        <time>2021-08-20T07:58:37Z</time>
      </trkpt>
      <trkpt lat="43.20244" lon="-0.61178">
        <ele>223.16</ele>
        <time>2021-08-20T07:58:45Z</time>
      </trkpt>
      <trkpt lat="43.20252" lon="-0.61238">
        <ele>223.16</ele>
        <time>2021-08-20T07:58:54Z</time>
      </trkpt>
      <trkpt lat="43.20253" lon="-0.61244">
        <ele>223.16</ele>
        <time>2021-08-20T07:58:55Z</time>
      </trkpt>
      <trkpt lat="43.20255" lon="-0.6125">
        <ele>223.16</ele>
        <time>2021-08-20T07:58:56Z</time>
      </trkpt>
      <trkpt lat="43.20274" lon="-0.61306">
        <ele>223.16</ele>
        <time>2021-08-20T07:59:05Z</time>
      </trkpt>
      <trkpt lat="43.20276" lon="-0.61312">
        <ele>223.16</ele>
        <time>2021-08-20T07:59:06Z</time>
      </trkpt>
      <trkpt lat="43.20279" lon="-0.61317">
        <ele>223.16</ele>
        <time>2021-08-20T07:59:07Z</time>
      </trkpt>
      <trkpt lat="43.20293" lon="-0.61344">
        <ele>223.16</ele>
        <time>2021-08-20T07:59:12Z</time>
      </trkpt>
      <trkpt lat="43.20313" lon="-0.61404">
        <ele>223.16</ele>
        <time>2021-08-20T07:59:21Z</time>
      </trkpt>
      <trkpt lat="43.20326" lon="-0.61451">
        <ele>222.68</ele>
        <time>2021-08-20T07:59:28Z</time>
      </trkpt>
      <trkpt lat="43.2035" lon="-0.615">
        <ele>222.68</ele>
        <time>2021-08-20T07:59:36Z</time>
      </trkpt>
      <trkpt lat="43.20373" lon="-0.6156">
        <ele>221.24</ele>
        <time>2021-08-20T07:59:45Z</time>
      </trkpt>
      <trkpt lat="43.20397" lon="-0.6161">
        <ele>220.28</ele>
        <time>2021-08-20T07:59:53Z</time>
      </trkpt>
      <trkpt lat="43.2041" lon="-0.61637">
        <ele>220.28</ele>
        <time>2021-08-20T07:59:58Z</time>
      </trkpt>
      <trkpt lat="43.20415" lon="-0.61649">
        <ele>220.28</ele>
        <time>2021-08-20T08:00:00Z</time>
      </trkpt>
      <trkpt lat="43.20422" lon="-0.61661">
        <ele>220.28</ele>
        <time>2021-08-20T08:00:02Z</time>
      </trkpt>
      <trkpt lat="43.20426" lon="-0.61666">
        <ele>220.28</ele>
        <time>2021-08-20T08:00:03Z</time>
      </trkpt>
      <trkpt lat="43.20456" lon="-0.61703">
        <ele>220.28</ele>
        <time>2021-08-20T08:00:10Z</time>
      </trkpt>
      <trkpt lat="43.20486" lon="-0.6176">
        <ele>220.28</ele>
        <time>2021-08-20T08:00:19Z</time>
      </trkpt>
      <trkpt lat="43.20493" lon="-0.6178">
        <ele>220.28</ele>
        <time>2021-08-20T08:00:22Z</time>
      </trkpt>
      <trkpt lat="43.20515" lon="-0.61842">
        <ele>219.8</ele>
        <time>2021-08-20T08:00:31Z</time>
      </trkpt>
      <trkpt lat="43.20532" lon="-0.6189">
        <ele>219.8</ele>
        <time>2021-08-20T08:00:39Z</time>
      </trkpt>
      <trkpt lat="43.20546" lon="-0.61922">
        <ele>219.8</ele>
        <time>2021-08-20T08:00:45Z</time>
      </trkpt>
      <trkpt lat="43.20568" lon="-0.6195">
        <ele>219.32</ele>
        <time>2021-08-20T08:00:51Z</time>
      </trkpt>
      <trkpt lat="43.20571" lon="-0.61955">
        <ele>218.84</ele>
        <time>2021-08-20T08:00:52Z</time>
      </trkpt>
      <trkpt lat="43.20574" lon="-0.61961">
        <ele>218.84</ele>
        <time>2021-08-20T08:00:53Z</time>
      </trkpt>
      <trkpt lat="43.20599" lon="-0.62009">
        <ele>218.36</ele>
        <time>2021-08-20T08:01:02Z</time>
      </trkpt>
      <trkpt lat="43.20608" lon="-0.62031">
        <ele>218.36</ele>
        <time>2021-08-20T08:01:06Z</time>
      </trkpt>
      <trkpt lat="43.2061" lon="-0.62038">
        <ele>218.36</ele>
        <time>2021-08-20T08:01:07Z</time>
      </trkpt>
      <trkpt lat="43.20613" lon="-0.62043">
        <ele>218.36</ele>
        <time>2021-08-20T08:01:08Z</time>
      </trkpt>
      <trkpt lat="43.20615" lon="-0.62049">
        <ele>218.36</ele>
        <time>2021-08-20T08:01:09Z</time>
      </trkpt>
      <trkpt lat="43.20618" lon="-0.62054">
        <ele>217.88</ele>
        <time>2021-08-20T08:01:10Z</time>
      </trkpt>
      <trkpt lat="43.20628" lon="-0.6207">
        <ele>217.88</ele>
        <time>2021-08-20T08:01:13Z</time>
      </trkpt>
      <trkpt lat="43.20631" lon="-0.62074">
        <ele>217.88</ele>
        <time>2021-08-20T08:01:14Z</time>
      </trkpt>
      <trkpt lat="43.20635" lon="-0.62077">
        <ele>217.88</ele>
        <time>2021-08-20T08:01:15Z</time>
      </trkpt>
      <trkpt lat="43.20666" lon="-0.62099">
        <ele>217.88</ele>
        <time>2021-08-20T08:01:22Z</time>
      </trkpt>
      <trkpt lat="43.20701" lon="-0.62117">
        <ele>217.88</ele>
        <time>2021-08-20T08:01:29Z</time>
      </trkpt>
      <trkpt lat="43.20736" lon="-0.62142">
        <ele>217.4</ele>
        <time>2021-08-20T08:01:36Z</time>
      </trkpt>
      <trkpt lat="43.20741" lon="-0.62146">
        <ele>217.4</ele>
        <time>2021-08-20T08:01:37Z</time>
      </trkpt>
      <trkpt lat="43.20783" lon="-0.6219">
        <ele>217.4</ele>
        <time>2021-08-20T08:01:46Z</time>
      </trkpt>
      <trkpt lat="43.20791" lon="-0.622">
        <ele>216.91</ele>
        <time>2021-08-20T08:01:48Z</time>
      </trkpt>
      <trkpt lat="43.20826" lon="-0.62245">
        <ele>216.91</ele>
        <time>2021-08-20T08:01:56Z</time>
      </trkpt>
      <trkpt lat="43.20836" lon="-0.62256">
        <ele>216.43</ele>
        <time>2021-08-20T08:01:58Z</time>
      </trkpt>
      <trkpt lat="43.2084" lon="-0.62262">
        <ele>216.43</ele>
        <time>2021-08-20T08:01:59Z</time>
      </trkpt>
      <trkpt lat="43.20843" lon="-0.62268">
        <ele>216.43</ele>
        <time>2021-08-20T08:02:00Z</time>
      </trkpt>
      <trkpt lat="43.20847" lon="-0.62275">
        <ele>216.43</ele>
        <time>2021-08-20T08:02:01Z</time>
      </trkpt>
      <trkpt lat="43.2085" lon="-0.62282">
        <ele>215.47</ele>
        <time>2021-08-20T08:02:02Z</time>
      </trkpt>
      <trkpt lat="43.2087" lon="-0.62332">
        <ele>215.95</ele>
        <time>2021-08-20T08:02:09Z</time>
      </trkpt>
      <trkpt lat="43.20892" lon="-0.62385">
        <ele>215.47</ele>
        <time>2021-08-20T08:02:17Z</time>
      </trkpt>
      <trkpt lat="43.20928" lon="-0.62444">
        <ele>214.99</ele>
        <time>2021-08-20T08:02:26Z</time>
      </trkpt>
      <trkpt lat="43.20936" lon="-0.62456">
        <ele>214.99</ele>
        <time>2021-08-20T08:02:28Z</time>
      </trkpt>
      <trkpt lat="43.20941" lon="-0.62461">
        <ele>214.99</ele>
        <time>2021-08-20T08:02:29Z</time>
      </trkpt>
      <trkpt lat="43.20945" lon="-0.62465">
        <ele>214.99</ele>
        <time>2021-08-20T08:02:30Z</time>
      </trkpt>
      <trkpt lat="43.2095" lon="-0.62469">
        <ele>214.99</ele>
        <time>2021-08-20T08:02:31Z</time>
      </trkpt>
      <trkpt lat="43.20955" lon="-0.62473">
        <ele>214.99</ele>
        <time>2021-08-20T08:02:32Z</time>
      </trkpt>
      <trkpt lat="43.2096" lon="-0.62476">
        <ele>214.99</ele>
        <time>2021-08-20T08:02:33Z</time>
      </trkpt>
      <trkpt lat="43.20966" lon="-0.62479">
        <ele>214.99</ele>
        <time>2021-08-20T08:02:34Z</time>
      </trkpt>
      <trkpt lat="43.20971" lon="-0.62482">
        <ele>214.99</ele>
        <time>2021-08-20T08:02:35Z</time>
      </trkpt>
      <trkpt lat="43.20977" lon="-0.62484">
        <ele>214.99</ele>
        <time>2021-08-20T08:02:36Z</time>
      </trkpt>
      <trkpt lat="43.21" lon="-0.62494">
        <ele>214.99</ele>
        <time>2021-08-20T08:02:40Z</time>
      </trkpt>
      <trkpt lat="43.21006" lon="-0.62495">
        <ele>214.99</ele>
        <time>2021-08-20T08:02:41Z</time>
      </trkpt>
      <trkpt lat="43.21012" lon="-0.62497">
        <ele>214.99</ele>
        <time>2021-08-20T08:02:42Z</time>
      </trkpt>
      <trkpt lat="43.21018" lon="-0.62499">
        <ele>214.99</ele>
        <time>2021-08-20T08:02:43Z</time>
      </trkpt>
      <trkpt lat="43.21023" lon="-0.62503">
        <ele>214.99</ele>
        <time>2021-08-20T08:02:44Z</time>
      </trkpt>
      <trkpt lat="43.21059" lon="-0.62533">
        <ele>214.99</ele>
        <time>2021-08-20T08:02:51Z</time>
      </trkpt>
      <trkpt lat="43.21111" lon="-0.62575">
        <ele>213.55</ele>
        <time>2021-08-20T08:03:01Z</time>
      </trkpt>
      <trkpt lat="43.21139" lon="-0.62603">
        <ele>213.55</ele>
        <time>2021-08-20T08:03:08Z</time>
      </trkpt>
      <trkpt lat="43.21144" lon="-0.62605">
        <ele>213.55</ele>
        <time>2021-08-20T08:03:09Z</time>
      </trkpt>
      <trkpt lat="43.21149" lon="-0.62606">
        <ele>213.55</ele>
        <time>2021-08-20T08:03:10Z</time>
      </trkpt>
      <trkpt lat="43.21164" lon="-0.62605">
        <ele>213.55</ele>
        <time>2021-08-20T08:03:13Z</time>
      </trkpt>
      <trkpt lat="43.21169" lon="-0.62604">
        <ele>213.55</ele>
        <time>2021-08-20T08:03:14Z</time>
      </trkpt>
      <trkpt lat="43.21174" lon="-0.62604">
        <ele>214.51</ele>
        <time>2021-08-20T08:03:15Z</time>
      </trkpt>
      <trkpt lat="43.21179" lon="-0.62604">
        <ele>214.51</ele>
        <time>2021-08-20T08:03:16Z</time>
      </trkpt>
      <trkpt lat="43.21184" lon="-0.62606">
        <ele>214.51</ele>
        <time>2021-08-20T08:03:17Z</time>
      </trkpt>
      <trkpt lat="43.21189" lon="-0.62607">
        <ele>214.51</ele>
        <time>2021-08-20T08:03:18Z</time>
      </trkpt>
      <trkpt lat="43.21193" lon="-0.62608">
        <ele>214.51</ele>
        <time>2021-08-20T08:03:19Z</time>
      </trkpt>
      <trkpt lat="43.21199" lon="-0.62609">
        <ele>214.51</ele>
        <time>2021-08-20T08:03:20Z</time>
      </trkpt>
      <trkpt lat="43.21236" lon="-0.62615">
        <ele>214.51</ele>
        <time>2021-08-20T08:03:27Z</time>
      </trkpt>
      <trkpt lat="43.21242" lon="-0.62618">
        <ele>214.51</ele>
        <time>2021-08-20T08:03:28Z</time>
      </trkpt>
      <trkpt lat="43.21246" lon="-0.62623">
        <ele>214.51</ele>
        <time>2021-08-20T08:03:29Z</time>
      </trkpt>
      <trkpt lat="43.21255" lon="-0.62633">
        <ele>214.51</ele>
        <time>2021-08-20T08:03:31Z</time>
      </trkpt>
      <trkpt lat="43.21258" lon="-0.62639">
        <ele>214.51</ele>
        <time>2021-08-20T08:03:32Z</time>
      </trkpt>
      <trkpt lat="43.21259" lon="-0.62645">
        <ele>214.51</ele>
        <time>2021-08-20T08:03:33Z</time>
      </trkpt>
      <trkpt lat="43.2126" lon="-0.62652">
        <ele>214.51</ele>
        <time>2021-08-20T08:03:34Z</time>
      </trkpt>
      <trkpt lat="43.2126" lon="-0.62658">
        <ele>214.51</ele>
        <time>2021-08-20T08:03:35Z</time>
      </trkpt>
      <trkpt lat="43.2126" lon="-0.62665">
        <ele>214.51</ele>
        <time>2021-08-20T08:03:36Z</time>
      </trkpt>
      <trkpt lat="43.21261" lon="-0.62673">
        <ele>214.51</ele>
        <time>2021-08-20T08:03:37Z</time>
      </trkpt>
      <trkpt lat="43.21263" lon="-0.62679">
        <ele>214.51</ele>
        <time>2021-08-20T08:03:38Z</time>
      </trkpt>
      <trkpt lat="43.21279" lon="-0.62717">
        <ele>213.07</ele>
        <time>2021-08-20T08:03:44Z</time>
      </trkpt>
      <trkpt lat="43.21296" lon="-0.62746">
        <ele>213.07</ele>
        <time>2021-08-20T08:03:49Z</time>
      </trkpt>
      <trkpt lat="43.2132" lon="-0.62807">
        <ele>213.07</ele>
        <time>2021-08-20T08:03:58Z</time>
      </trkpt>
      <trkpt lat="43.2134" lon="-0.62852">
        <ele>212.59</ele>
        <time>2021-08-20T08:04:05Z</time>
      </trkpt>
      <trkpt lat="43.21345" lon="-0.62856">
        <ele>212.59</ele>
        <time>2021-08-20T08:04:06Z</time>
      </trkpt>
      <trkpt lat="43.2135" lon="-0.62859">
        <ele>212.59</ele>
        <time>2021-08-20T08:04:07Z</time>
      </trkpt>
      <trkpt lat="43.21366" lon="-0.62865">
        <ele>212.59</ele>
        <time>2021-08-20T08:04:10Z</time>
      </trkpt>
      <trkpt lat="43.21409" lon="-0.62875">
        <ele>212.11</ele>
        <time>2021-08-20T08:04:18Z</time>
      </trkpt>
      <trkpt lat="43.2144" lon="-0.62887">
        <ele>212.11</ele>
        <time>2021-08-20T08:04:24Z</time>
      </trkpt>
      <trkpt lat="43.21445" lon="-0.62891">
        <ele>212.11</ele>
        <time>2021-08-20T08:04:25Z</time>
      </trkpt>
      <trkpt lat="43.2145" lon="-0.62894">
        <ele>212.11</ele>
        <time>2021-08-20T08:04:26Z</time>
      </trkpt>
      <trkpt lat="43.21483" lon="-0.62918">
        <ele>212.11</ele>
        <time>2021-08-20T08:04:33Z</time>
      </trkpt>
      <trkpt lat="43.21487" lon="-0.62923">
        <ele>212.11</ele>
        <time>2021-08-20T08:04:34Z</time>
      </trkpt>
      <trkpt lat="43.21491" lon="-0.62928">
        <ele>212.11</ele>
        <time>2021-08-20T08:04:35Z</time>
      </trkpt>
      <trkpt lat="43.21512" lon="-0.62976">
        <ele>212.11</ele>
        <time>2021-08-20T08:04:42Z</time>
      </trkpt>
      <trkpt lat="43.21543" lon="-0.63045">
        <ele>211.63</ele>
        <time>2021-08-20T08:04:52Z</time>
      </trkpt>
      <trkpt lat="43.21568" lon="-0.63087">
        <ele>211.63</ele>
        <time>2021-08-20T08:04:59Z</time>
      </trkpt>
      <trkpt lat="43.21579" lon="-0.63106">
        <ele>211.63</ele>
        <time>2021-08-20T08:05:02Z</time>
      </trkpt>
      <trkpt lat="43.21581" lon="-0.63113">
        <ele>211.63</ele>
        <time>2021-08-20T08:05:03Z</time>
      </trkpt>
      <trkpt lat="43.21596" lon="-0.63164">
        <ele>211.15</ele>
        <time>2021-08-20T08:05:10Z</time>
      </trkpt>
      <trkpt lat="43.21603" lon="-0.63186">
        <ele>211.15</ele>
        <time>2021-08-20T08:05:13Z</time>
      </trkpt>
      <trkpt lat="43.21613" lon="-0.63213">
        <ele>211.15</ele>
        <time>2021-08-20T08:05:17Z</time>
      </trkpt>
      <trkpt lat="43.21628" lon="-0.63256">
        <ele>212.11</ele>
        <time>2021-08-20T08:05:24Z</time>
      </trkpt>
      <trkpt lat="43.21638" lon="-0.63266">
        <ele>212.11</ele>
        <time>2021-08-20T08:05:27Z</time>
      </trkpt>
      <trkpt lat="43.21656" lon="-0.63294">
        <ele>210.67</ele>
        <time>2021-08-20T08:05:32Z</time>
      </trkpt>
      <trkpt lat="43.21674" lon="-0.63316">
        <ele>210.19</ele>
        <time>2021-08-20T08:05:36Z</time>
      </trkpt>
      <trkpt lat="43.2168" lon="-0.63321">
        <ele>210.19</ele>
        <time>2021-08-20T08:05:37Z</time>
      </trkpt>
      <trkpt lat="43.21684" lon="-0.63327">
        <ele>210.19</ele>
        <time>2021-08-20T08:05:38Z</time>
      </trkpt>
      <trkpt lat="43.21711" lon="-0.63361">
        <ele>209.7</ele>
        <time>2021-08-20T08:05:44Z</time>
      </trkpt>
      <trkpt lat="43.21721" lon="-0.6337">
        <ele>209.7</ele>
        <time>2021-08-20T08:05:46Z</time>
      </trkpt>
      <trkpt lat="43.21726" lon="-0.63374">
        <ele>209.7</ele>
        <time>2021-08-20T08:05:47Z</time>
      </trkpt>
      <trkpt lat="43.21732" lon="-0.63377">
        <ele>209.7</ele>
        <time>2021-08-20T08:05:48Z</time>
      </trkpt>
      <trkpt lat="43.21737" lon="-0.63378">
        <ele>209.7</ele>
        <time>2021-08-20T08:05:49Z</time>
      </trkpt>
      <trkpt lat="43.21743" lon="-0.63378">
        <ele>209.22</ele>
        <time>2021-08-20T08:05:50Z</time>
      </trkpt>
      <trkpt lat="43.21748" lon="-0.63378">
        <ele>209.22</ele>
        <time>2021-08-20T08:05:51Z</time>
      </trkpt>
      <trkpt lat="43.21753" lon="-0.63376">
        <ele>209.22</ele>
        <time>2021-08-20T08:05:52Z</time>
      </trkpt>
      <trkpt lat="43.2176" lon="-0.63376">
        <ele>209.22</ele>
        <time>2021-08-20T08:05:54Z</time>
      </trkpt>
      <trkpt lat="43.21763" lon="-0.63379">
        <ele>209.22</ele>
        <time>2021-08-20T08:05:55Z</time>
      </trkpt>
      <trkpt lat="43.21771" lon="-0.63393">
        <ele>209.22</ele>
        <time>2021-08-20T08:05:58Z</time>
      </trkpt>
      <trkpt lat="43.21795" lon="-0.6345">
        <ele>208.74</ele>
        <time>2021-08-20T08:06:07Z</time>
      </trkpt>
      <trkpt lat="43.21826" lon="-0.63527">
        <ele>208.26</ele>
        <time>2021-08-20T08:06:18Z</time>
      </trkpt>
      <trkpt lat="43.21832" lon="-0.6354">
        <ele>208.26</ele>
        <time>2021-08-20T08:06:20Z</time>
      </trkpt>
      <trkpt lat="43.21852" lon="-0.63578">
        <ele>208.26</ele>
        <time>2021-08-20T08:06:26Z</time>
      </trkpt>
      <trkpt lat="43.21856" lon="-0.63583">
        <ele>208.26</ele>
        <time>2021-08-20T08:06:27Z</time>
      </trkpt>
      <trkpt lat="43.2186" lon="-0.63588">
        <ele>208.26</ele>
        <time>2021-08-20T08:06:28Z</time>
      </trkpt>
      <trkpt lat="43.21894" lon="-0.63628">
        <ele>208.26</ele>
        <time>2021-08-20T08:06:36Z</time>
      </trkpt>
      <trkpt lat="43.21925" lon="-0.63666">
        <ele>207.3</ele>
        <time>2021-08-20T08:06:43Z</time>
      </trkpt>
      <trkpt lat="43.21939" lon="-0.63691">
        <ele>207.3</ele>
        <time>2021-08-20T08:06:47Z</time>
      </trkpt>
      <trkpt lat="43.21965" lon="-0.63736">
        <ele>206.82</ele>
        <time>2021-08-20T08:06:54Z</time>
      </trkpt>
      <trkpt lat="43.21998" lon="-0.63797">
        <ele>206.34</ele>
        <time>2021-08-20T08:07:03Z</time>
      </trkpt>
      <trkpt lat="43.22029" lon="-0.63861">
        <ele>206.34</ele>
        <time>2021-08-20T08:07:12Z</time>
      </trkpt>
      <trkpt lat="43.2204" lon="-0.63882">
        <ele>206.34</ele>
        <time>2021-08-20T08:07:15Z</time>
      </trkpt>
      <trkpt lat="43.22055" lon="-0.63909">
        <ele>205.86</ele>
        <time>2021-08-20T08:07:19Z</time>
      </trkpt>
      <trkpt lat="43.22092" lon="-0.63959">
        <ele>205.86</ele>
        <time>2021-08-20T08:07:28Z</time>
      </trkpt>
      <trkpt lat="43.22117" lon="-0.63992">
        <ele>205.86</ele>
        <time>2021-08-20T08:07:34Z</time>
      </trkpt>
      <trkpt lat="43.22125" lon="-0.64005">
        <ele>205.86</ele>
        <time>2021-08-20T08:07:36Z</time>
      </trkpt>
      <trkpt lat="43.22171" lon="-0.6405">
        <ele>205.38</ele>
        <time>2021-08-20T08:07:45Z</time>
      </trkpt>
      <trkpt lat="43.22216" lon="-0.64093">
        <ele>205.38</ele>
        <time>2021-08-20T08:07:54Z</time>
      </trkpt>
      <trkpt lat="43.22221" lon="-0.64099">
        <ele>205.38</ele>
        <time>2021-08-20T08:07:55Z</time>
      </trkpt>
      <trkpt lat="43.22252" lon="-0.64141">
        <ele>204.9</ele>
        <time>2021-08-20T08:08:02Z</time>
      </trkpt>
      <trkpt lat="43.22257" lon="-0.64146">
        <ele>204.9</ele>
        <time>2021-08-20T08:08:03Z</time>
      </trkpt>
      <trkpt lat="43.22262" lon="-0.6415">
        <ele>204.9</ele>
        <time>2021-08-20T08:08:04Z</time>
      </trkpt>
      <trkpt lat="43.22308" lon="-0.64182">
        <ele>204.9</ele>
        <time>2021-08-20T08:08:13Z</time>
      </trkpt>
      <trkpt lat="43.22317" lon="-0.6419">
        <ele>205.86</ele>
        <time>2021-08-20T08:08:15Z</time>
      </trkpt>
      <trkpt lat="43.22329" lon="-0.64204">
        <ele>206.34</ele>
        <time>2021-08-20T08:08:18Z</time>
      </trkpt>
      <trkpt lat="43.22332" lon="-0.64209">
        <ele>206.82</ele>
        <time>2021-08-20T08:08:19Z</time>
      </trkpt>
      <trkpt lat="43.22334" lon="-0.64213">
        <ele>206.82</ele>
        <time>2021-08-20T08:08:20Z</time>
      </trkpt>
      <trkpt lat="43.22355" lon="-0.64244">
        <ele>207.78</ele>
        <time>2021-08-20T08:08:28Z</time>
      </trkpt>
      <trkpt lat="43.22376" lon="-0.64263">
        <ele>208.74</ele>
        <time>2021-08-20T08:08:35Z</time>
      </trkpt>
      <trkpt lat="43.2239" lon="-0.64272">
        <ele>209.7</ele>
        <time>2021-08-20T08:08:40Z</time>
      </trkpt>
      <trkpt lat="43.22407" lon="-0.64292">
        <ele>211.15</ele>
        <time>2021-08-20T08:08:47Z</time>
      </trkpt>
      <trkpt lat="43.2242" lon="-0.64306">
        <ele>211.63</ele>
        <time>2021-08-20T08:08:52Z</time>
      </trkpt>
      <trkpt lat="43.22448" lon="-0.64343">
        <ele>213.07</ele>
        <time>2021-08-20T08:09:01Z</time>
      </trkpt>
      <trkpt lat="43.22471" lon="-0.64386">
        <ele>211.15</ele>
        <time>2021-08-20T08:09:08Z</time>
      </trkpt>
      <trkpt lat="43.22494" lon="-0.64423">
        <ele>210.67</ele>
        <time>2021-08-20T08:09:14Z</time>
      </trkpt>
      <trkpt lat="43.22522" lon="-0.64457">
        <ele>210.19</ele>
        <time>2021-08-20T08:09:21Z</time>
      </trkpt>
      <trkpt lat="43.22535" lon="-0.64471">
        <ele>210.19</ele>
        <time>2021-08-20T08:09:24Z</time>
      </trkpt>
      <trkpt lat="43.22539" lon="-0.64474">
        <ele>210.19</ele>
        <time>2021-08-20T08:09:25Z</time>
      </trkpt>
      <trkpt lat="43.22546" lon="-0.64477">
        <ele>209.7</ele>
        <time>2021-08-20T08:09:26Z</time>
      </trkpt>
      <trkpt lat="43.22551" lon="-0.64478">
        <ele>209.7</ele>
        <time>2021-08-20T08:09:27Z</time>
      </trkpt>
      <trkpt lat="43.22557" lon="-0.64479">
        <ele>209.7</ele>
        <time>2021-08-20T08:09:28Z</time>
      </trkpt>
      <trkpt lat="43.22568" lon="-0.6448">
        <ele>209.7</ele>
        <time>2021-08-20T08:09:30Z</time>
      </trkpt>
      <trkpt lat="43.22601" lon="-0.64495">
        <ele>209.7</ele>
        <time>2021-08-20T08:09:36Z</time>
      </trkpt>
      <trkpt lat="43.22606" lon="-0.64496">
        <ele>209.7</ele>
        <time>2021-08-20T08:09:37Z</time>
      </trkpt>
      <trkpt lat="43.22613" lon="-0.64496">
        <ele>209.7</ele>
        <time>2021-08-20T08:09:38Z</time>
      </trkpt>
      <trkpt lat="43.22618" lon="-0.64495">
        <ele>209.7</ele>
        <time>2021-08-20T08:09:39Z</time>
      </trkpt>
      <trkpt lat="43.22623" lon="-0.64494">
        <ele>209.7</ele>
        <time>2021-08-20T08:09:40Z</time>
      </trkpt>
      <trkpt lat="43.22629" lon="-0.64495">
        <ele>209.7</ele>
        <time>2021-08-20T08:09:41Z</time>
      </trkpt>
      <trkpt lat="43.22636" lon="-0.64497">
        <ele>209.7</ele>
        <time>2021-08-20T08:09:42Z</time>
      </trkpt>
      <trkpt lat="43.2264" lon="-0.64499">
        <ele>209.7</ele>
        <time>2021-08-20T08:09:43Z</time>
      </trkpt>
      <trkpt lat="43.22645" lon="-0.64501">
        <ele>209.7</ele>
        <time>2021-08-20T08:09:44Z</time>
      </trkpt>
      <trkpt lat="43.22651" lon="-0.64506">
        <ele>209.7</ele>
        <time>2021-08-20T08:09:45Z</time>
      </trkpt>
      <trkpt lat="43.22655" lon="-0.64511">
        <ele>209.7</ele>
        <time>2021-08-20T08:09:46Z</time>
      </trkpt>
      <trkpt lat="43.22659" lon="-0.64517">
        <ele>209.7</ele>
        <time>2021-08-20T08:09:47Z</time>
      </trkpt>
      <trkpt lat="43.22663" lon="-0.64524">
        <ele>209.7</ele>
        <time>2021-08-20T08:09:48Z</time>
      </trkpt>
      <trkpt lat="43.22666" lon="-0.64531">
        <ele>209.7</ele>
        <time>2021-08-20T08:09:49Z</time>
      </trkpt>
      <trkpt lat="43.22673" lon="-0.64546">
        <ele>209.7</ele>
        <time>2021-08-20T08:09:51Z</time>
      </trkpt>
      <trkpt lat="43.22674" lon="-0.64556">
        <ele>209.7</ele>
        <time>2021-08-20T08:09:52Z</time>
      </trkpt>
      <trkpt lat="43.22684" lon="-0.64632">
        <ele>209.22</ele>
        <time>2021-08-20T08:10:01Z</time>
      </trkpt>
      <trkpt lat="43.22686" lon="-0.6464">
        <ele>209.22</ele>
        <time>2021-08-20T08:10:02Z</time>
      </trkpt>
      <trkpt lat="43.22692" lon="-0.64654">
        <ele>209.22</ele>
        <time>2021-08-20T08:10:04Z</time>
      </trkpt>
      <trkpt lat="43.22695" lon="-0.6466">
        <ele>209.22</ele>
        <time>2021-08-20T08:10:05Z</time>
      </trkpt>
      <trkpt lat="43.22711" lon="-0.64681">
        <ele>209.22</ele>
        <time>2021-08-20T08:10:09Z</time>
      </trkpt>
      <trkpt lat="43.22757" lon="-0.64734">
        <ele>208.74</ele>
        <time>2021-08-20T08:10:19Z</time>
      </trkpt>
      <trkpt lat="43.22804" lon="-0.64794">
        <ele>208.74</ele>
        <time>2021-08-20T08:10:29Z</time>
      </trkpt>
      <trkpt lat="43.22809" lon="-0.64801">
        <ele>208.74</ele>
        <time>2021-08-20T08:10:30Z</time>
      </trkpt>
      <trkpt lat="43.22849" lon="-0.6485">
        <ele>208.26</ele>
        <time>2021-08-20T08:10:38Z</time>
      </trkpt>
      <trkpt lat="43.22885" lon="-0.64894">
        <ele>207.3</ele>
        <time>2021-08-20T08:10:45Z</time>
      </trkpt>
      <trkpt lat="43.22931" lon="-0.64949">
        <ele>206.82</ele>
        <time>2021-08-20T08:10:54Z</time>
      </trkpt>
      <trkpt lat="43.22982" lon="-0.64998">
        <ele>206.82</ele>
        <time>2021-08-20T08:11:03Z</time>
      </trkpt>
      <trkpt lat="43.23012" lon="-0.6503">
        <ele>206.82</ele>
        <time>2021-08-20T08:11:09Z</time>
      </trkpt>
      <trkpt lat="43.23045" lon="-0.65078">
        <ele>206.34</ele>
        <time>2021-08-20T08:11:17Z</time>
      </trkpt>
      <trkpt lat="43.23077" lon="-0.65142">
        <ele>206.34</ele>
        <time>2021-08-20T08:11:26Z</time>
      </trkpt>
      <trkpt lat="43.23102" lon="-0.65195">
        <ele>205.38</ele>
        <time>2021-08-20T08:11:33Z</time>
      </trkpt>
      <trkpt lat="43.23134" lon="-0.65261">
        <ele>204.9</ele>
        <time>2021-08-20T08:11:41Z</time>
      </trkpt>
      <trkpt lat="43.23169" lon="-0.65332">
        <ele>203.94</ele>
        <time>2021-08-20T08:11:49Z</time>
      </trkpt>
      <trkpt lat="43.2321" lon="-0.65416">
        <ele>202.01</ele>
        <time>2021-08-20T08:11:58Z</time>
      </trkpt>
      <trkpt lat="43.23246" lon="-0.65498">
        <ele>199.13</ele>
        <time>2021-08-20T08:12:06Z</time>
      </trkpt>
      <trkpt lat="43.23262" lon="-0.65526">
        <ele>198.17</ele>
        <time>2021-08-20T08:12:09Z</time>
      </trkpt>
      <trkpt lat="43.23268" lon="-0.65534">
        <ele>198.17</ele>
        <time>2021-08-20T08:12:10Z</time>
      </trkpt>
      <trkpt lat="43.2332" lon="-0.65594">
        <ele>196.25</ele>
        <time>2021-08-20T08:12:18Z</time>
      </trkpt>
      <trkpt lat="43.23339" lon="-0.65616">
        <ele>195.77</ele>
        <time>2021-08-20T08:12:21Z</time>
      </trkpt>
      <trkpt lat="43.23382" lon="-0.65675">
        <ele>194.8</ele>
        <time>2021-08-20T08:12:29Z</time>
      </trkpt>
      <trkpt lat="43.23424" lon="-0.65727">
        <ele>194.32</ele>
        <time>2021-08-20T08:12:37Z</time>
      </trkpt>
      <trkpt lat="43.23483" lon="-0.65802">
        <ele>192.88</ele>
        <time>2021-08-20T08:12:48Z</time>
      </trkpt>
      <trkpt lat="43.23527" lon="-0.65856">
        <ele>190.48</ele>
        <time>2021-08-20T08:12:56Z</time>
      </trkpt>
      <trkpt lat="43.23532" lon="-0.65863">
        <ele>190.48</ele>
        <time>2021-08-20T08:12:57Z</time>
      </trkpt>
      <trkpt lat="43.23538" lon="-0.65871">
        <ele>190</ele>
        <time>2021-08-20T08:12:58Z</time>
      </trkpt>
      <trkpt lat="43.23542" lon="-0.65881">
        <ele>189.04</ele>
        <time>2021-08-20T08:12:59Z</time>
      </trkpt>
      <trkpt lat="43.23545" lon="-0.6589">
        <ele>189.04</ele>
        <time>2021-08-20T08:13:00Z</time>
      </trkpt>
      <trkpt lat="43.23548" lon="-0.659">
        <ele>188.08</ele>
        <time>2021-08-20T08:13:01Z</time>
      </trkpt>
      <trkpt lat="43.23552" lon="-0.65908">
        <ele>187.59</ele>
        <time>2021-08-20T08:13:02Z</time>
      </trkpt>
      <trkpt lat="43.23558" lon="-0.65915">
        <ele>187.59</ele>
        <time>2021-08-20T08:13:03Z</time>
      </trkpt>
      <trkpt lat="43.23564" lon="-0.65922">
        <ele>187.59</ele>
        <time>2021-08-20T08:13:04Z</time>
      </trkpt>
      <trkpt lat="43.2357" lon="-0.65928">
        <ele>187.11</ele>
        <time>2021-08-20T08:13:05Z</time>
      </trkpt>
      <trkpt lat="43.23589" lon="-0.65941">
        <ele>187.11</ele>
        <time>2021-08-20T08:13:08Z</time>
      </trkpt>
      <trkpt lat="43.23595" lon="-0.65944">
        <ele>187.11</ele>
        <time>2021-08-20T08:13:09Z</time>
      </trkpt>
      <trkpt lat="43.23616" lon="-0.65949">
        <ele>190</ele>
        <time>2021-08-20T08:13:13Z</time>
      </trkpt>
      <trkpt lat="43.23621" lon="-0.65952">
        <ele>189.52</ele>
        <time>2021-08-20T08:13:14Z</time>
      </trkpt>
      <trkpt lat="43.23625" lon="-0.65955">
        <ele>189.52</ele>
        <time>2021-08-20T08:13:15Z</time>
      </trkpt>
      <trkpt lat="43.2365" lon="-0.65975">
        <ele>190.48</ele>
        <time>2021-08-20T08:13:22Z</time>
      </trkpt>
      <trkpt lat="43.23675" lon="-0.65998">
        <ele>190.96</ele>
        <time>2021-08-20T08:13:29Z</time>
      </trkpt>
      <trkpt lat="43.23699" lon="-0.66018">
        <ele>190.96</ele>
        <time>2021-08-20T08:13:36Z</time>
      </trkpt>
      <trkpt lat="43.23715" lon="-0.66031">
        <ele>190.96</ele>
        <time>2021-08-20T08:13:41Z</time>
      </trkpt>
      <trkpt lat="43.23721" lon="-0.66034">
        <ele>190.96</ele>
        <time>2021-08-20T08:13:42Z</time>
      </trkpt>
      <trkpt lat="43.23724" lon="-0.66038">
        <ele>191.44</ele>
        <time>2021-08-20T08:13:43Z</time>
      </trkpt>
      <trkpt lat="43.23728" lon="-0.66042">
        <ele>191.44</ele>
        <time>2021-08-20T08:13:44Z</time>
      </trkpt>
      <trkpt lat="43.2373" lon="-0.66046">
        <ele>191.44</ele>
        <time>2021-08-20T08:13:45Z</time>
      </trkpt>
      <trkpt lat="43.23746" lon="-0.66074">
        <ele>190.96</ele>
        <time>2021-08-20T08:13:51Z</time>
      </trkpt>
      <trkpt lat="43.23755" lon="-0.66088">
        <ele>190</ele>
        <time>2021-08-20T08:13:54Z</time>
      </trkpt>
      <trkpt lat="43.23763" lon="-0.66103">
        <ele>188.56</ele>
        <time>2021-08-20T08:13:58Z</time>
      </trkpt>
      <trkpt lat="43.23765" lon="-0.66105">
        <ele>188.56</ele>
        <time>2021-08-20T08:13:59Z</time>
      </trkpt>
      <trkpt lat="43.23766" lon="-0.66106">
        <ele>188.56</ele>
        <time>2021-08-20T08:14:00Z</time>
      </trkpt>
      <trkpt lat="43.23767" lon="-0.66109">
        <ele>188.56</ele>
        <time>2021-08-20T08:14:01Z</time>
      </trkpt>
      <trkpt lat="43.23769" lon="-0.66112">
        <ele>188.56</ele>
        <time>2021-08-20T08:14:02Z</time>
      </trkpt>
      <trkpt lat="43.23775" lon="-0.66135">
        <ele>186.63</ele>
        <time>2021-08-20T08:14:07Z</time>
      </trkpt>
      <trkpt lat="43.23782" lon="-0.66165">
        <ele>185.19</ele>
        <time>2021-08-20T08:14:13Z</time>
      </trkpt>
      <trkpt lat="43.23791" lon="-0.66204">
        <ele>183.75</ele>
        <time>2021-08-20T08:14:21Z</time>
      </trkpt>
      <trkpt lat="43.23793" lon="-0.66229">
        <ele>183.27</ele>
        <time>2021-08-20T08:14:27Z</time>
      </trkpt>
      <trkpt lat="43.23797" lon="-0.66266">
        <ele>183.27</ele>
        <time>2021-08-20T08:14:35Z</time>
      </trkpt>
      <trkpt lat="43.23809" lon="-0.66288">
        <ele>182.79</ele>
        <time>2021-08-20T08:14:41Z</time>
      </trkpt>
      <trkpt lat="43.23825" lon="-0.6631">
        <ele>182.31</ele>
        <time>2021-08-20T08:14:48Z</time>
      </trkpt>
      <trkpt lat="43.2383" lon="-0.66315">
        <ele>182.31</ele>
        <time>2021-08-20T08:14:53Z</time>
      </trkpt>
      <trkpt lat="43.2383" lon="-0.66316">
        <ele>182.31</ele>
        <time>2021-08-20T08:15:00Z</time>
      </trkpt>
      <trkpt lat="43.23829" lon="-0.66316">
        <ele>182.31</ele>
        <time>2021-08-20T08:15:15Z</time>
      </trkpt>
      <trkpt lat="43.23828" lon="-0.66315">
        <ele>182.31</ele>
        <time>2021-08-20T08:15:28Z</time>
      </trkpt>
      <trkpt lat="43.23828" lon="-0.66315">
        <ele>182.31</ele>
        <time>2021-08-20T08:15:37Z</time>
      </trkpt>
      <trkpt lat="43.23829" lon="-0.66315">
        <ele>182.31</ele>
        <time>2021-08-20T08:15:49Z</time>
      </trkpt>
      <trkpt lat="43.23829" lon="-0.66315">
        <ele>182.31</ele>
        <time>2021-08-20T08:15:57Z</time>
      </trkpt>
      <trkpt lat="43.2383" lon="-0.66317">
        <ele>182.31</ele>
        <time>2021-08-20T08:16:03Z</time>
      </trkpt>
      <trkpt lat="43.23831" lon="-0.6632">
        <ele>182.31</ele>
        <time>2021-08-20T08:16:10Z</time>
      </trkpt>
      <trkpt lat="43.23833" lon="-0.66321">
        <ele>182.31</ele>
        <time>2021-08-20T08:16:15Z</time>
      </trkpt>
      <trkpt lat="43.23835" lon="-0.66326">
        <ele>182.31</ele>
        <time>2021-08-20T08:16:22Z</time>
      </trkpt>
      <trkpt lat="43.23845" lon="-0.66339">
        <ele>182.31</ele>
        <time>2021-08-20T08:16:29Z</time>
      </trkpt>
      <trkpt lat="43.23861" lon="-0.66362">
        <ele>182.31</ele>
        <time>2021-08-20T08:16:36Z</time>
      </trkpt>
      <trkpt lat="43.2387" lon="-0.66374">
        <ele>182.31</ele>
        <time>2021-08-20T08:16:41Z</time>
      </trkpt>
      <trkpt lat="43.2388" lon="-0.6639">
        <ele>182.31</ele>
        <time>2021-08-20T08:16:47Z</time>
      </trkpt>
      <trkpt lat="43.2389" lon="-0.66405">
        <ele>182.31</ele>
        <time>2021-08-20T08:16:53Z</time>
      </trkpt>
      <trkpt lat="43.23901" lon="-0.66422">
        <ele>182.31</ele>
        <time>2021-08-20T08:16:59Z</time>
      </trkpt>
      <trkpt lat="43.23912" lon="-0.66438">
        <ele>182.31</ele>
        <time>2021-08-20T08:17:05Z</time>
      </trkpt>
      <trkpt lat="43.23926" lon="-0.66461">
        <ele>181.83</ele>
        <time>2021-08-20T08:17:11Z</time>
      </trkpt>
      <trkpt lat="43.23932" lon="-0.66468">
        <ele>181.83</ele>
        <time>2021-08-20T08:17:14Z</time>
      </trkpt>
      <trkpt lat="43.23944" lon="-0.66487">
        <ele>181.83</ele>
        <time>2021-08-20T08:17:21Z</time>
      </trkpt>
      <trkpt lat="43.23957" lon="-0.66504">
        <ele>181.35</ele>
        <time>2021-08-20T08:17:28Z</time>
      </trkpt>
      <trkpt lat="43.23958" lon="-0.66504">
        <ele>181.35</ele>
        <time>2021-08-20T08:17:34Z</time>
      </trkpt>
      <trkpt lat="43.23961" lon="-0.66508">
        <ele>181.35</ele>
        <time>2021-08-20T08:17:40Z</time>
      </trkpt>
      <trkpt lat="43.23965" lon="-0.66511">
        <ele>181.35</ele>
        <time>2021-08-20T08:17:46Z</time>
      </trkpt>
      <trkpt lat="43.23965" lon="-0.66515">
        <ele>181.35</ele>
        <time>2021-08-20T08:17:52Z</time>
      </trkpt>
      <trkpt lat="43.23967" lon="-0.66517">
        <ele>181.35</ele>
        <time>2021-08-20T08:17:58Z</time>
      </trkpt>
      <trkpt lat="43.23968" lon="-0.66521">
        <ele>181.35</ele>
        <time>2021-08-20T08:18:00Z</time>
      </trkpt>
      <trkpt lat="43.23981" lon="-0.66538">
        <ele>181.35</ele>
        <time>2021-08-20T08:18:07Z</time>
      </trkpt>
      <trkpt lat="43.23996" lon="-0.66555">
        <ele>180.87</ele>
        <time>2021-08-20T08:18:14Z</time>
      </trkpt>
      <trkpt lat="43.24009" lon="-0.66571">
        <ele>180.87</ele>
        <time>2021-08-20T08:18:19Z</time>
      </trkpt>
      <trkpt lat="43.24025" lon="-0.6658">
        <ele>180.87</ele>
        <time>2021-08-20T08:18:25Z</time>
      </trkpt>
      <trkpt lat="43.2404" lon="-0.66615">
        <ele>180.87</ele>
        <time>2021-08-20T08:18:34Z</time>
      </trkpt>
      <trkpt lat="43.24054" lon="-0.66646">
        <ele>180.87</ele>
        <time>2021-08-20T08:18:42Z</time>
      </trkpt>
      <trkpt lat="43.24067" lon="-0.66669">
        <ele>180.38</ele>
        <time>2021-08-20T08:18:49Z</time>
      </trkpt>
      <trkpt lat="43.24085" lon="-0.667">
        <ele>180.38</ele>
        <time>2021-08-20T08:18:58Z</time>
      </trkpt>
      <trkpt lat="43.24102" lon="-0.66728">
        <ele>179.9</ele>
        <time>2021-08-20T08:19:06Z</time>
      </trkpt>
      <trkpt lat="43.24118" lon="-0.66753">
        <ele>179.9</ele>
        <time>2021-08-20T08:19:13Z</time>
      </trkpt>
      <trkpt lat="43.24124" lon="-0.66761">
        <ele>179.9</ele>
        <time>2021-08-20T08:19:16Z</time>
      </trkpt>
      <trkpt lat="43.24126" lon="-0.66764">
        <ele>179.9</ele>
        <time>2021-08-20T08:19:18Z</time>
      </trkpt>
      <trkpt lat="43.24126" lon="-0.66768">
        <ele>179.9</ele>
        <time>2021-08-20T08:19:20Z</time>
      </trkpt>
      <trkpt lat="43.24124" lon="-0.6677">
        <ele>179.9</ele>
        <time>2021-08-20T08:19:21Z</time>
      </trkpt>
      <trkpt lat="43.24108" lon="-0.66787">
        <ele>179.42</ele>
        <time>2021-08-20T08:19:27Z</time>
      </trkpt>
      <trkpt lat="43.24096" lon="-0.66805">
        <ele>178.94</ele>
        <time>2021-08-20T08:19:32Z</time>
      </trkpt>
      <trkpt lat="43.24097" lon="-0.66809">
        <ele>178.94</ele>
        <time>2021-08-20T08:19:33Z</time>
      </trkpt>
      <trkpt lat="43.24099" lon="-0.66813">
        <ele>178.94</ele>
        <time>2021-08-20T08:19:34Z</time>
      </trkpt>
      <trkpt lat="43.24101" lon="-0.66817">
        <ele>178.94</ele>
        <time>2021-08-20T08:19:35Z</time>
      </trkpt>
      <trkpt lat="43.24103" lon="-0.6682">
        <ele>178.94</ele>
        <time>2021-08-20T08:19:36Z</time>
      </trkpt>
      <trkpt lat="43.24122" lon="-0.6685">
        <ele>178.94</ele>
        <time>2021-08-20T08:19:43Z</time>
      </trkpt>
      <trkpt lat="43.24135" lon="-0.66873">
        <ele>178.94</ele>
        <time>2021-08-20T08:19:47Z</time>
      </trkpt>
      <trkpt lat="43.24157" lon="-0.66923">
        <ele>177.98</ele>
        <time>2021-08-20T08:19:54Z</time>
      </trkpt>
      <trkpt lat="43.24197" lon="-0.66979">
        <ele>177.5</ele>
        <time>2021-08-20T08:20:03Z</time>
      </trkpt>
      <trkpt lat="43.24238" lon="-0.67044">
        <ele>177.5</ele>
        <time>2021-08-20T08:20:13Z</time>
      </trkpt>
      <trkpt lat="43.24278" lon="-0.67088">
        <ele>177.5</ele>
        <time>2021-08-20T08:20:21Z</time>
      </trkpt>
      <trkpt lat="43.24297" lon="-0.67112">
        <ele>177.02</ele>
        <time>2021-08-20T08:20:25Z</time>
      </trkpt>
      <trkpt lat="43.24302" lon="-0.67119">
        <ele>177.02</ele>
        <time>2021-08-20T08:20:26Z</time>
      </trkpt>
      <trkpt lat="43.24305" lon="-0.67127">
        <ele>176.54</ele>
        <time>2021-08-20T08:20:27Z</time>
      </trkpt>
      <trkpt lat="43.24307" lon="-0.67136">
        <ele>176.54</ele>
        <time>2021-08-20T08:20:28Z</time>
      </trkpt>
      <trkpt lat="43.24307" lon="-0.67146">
        <ele>176.06</ele>
        <time>2021-08-20T08:20:29Z</time>
      </trkpt>
      <trkpt lat="43.24306" lon="-0.67156">
        <ele>175.58</ele>
        <time>2021-08-20T08:20:30Z</time>
      </trkpt>
      <trkpt lat="43.24305" lon="-0.67167">
        <ele>174.62</ele>
        <time>2021-08-20T08:20:31Z</time>
      </trkpt>
      <trkpt lat="43.24304" lon="-0.67177">
        <ele>174.62</ele>
        <time>2021-08-20T08:20:32Z</time>
      </trkpt>
      <trkpt lat="43.24301" lon="-0.67215">
        <ele>174.62</ele>
        <time>2021-08-20T08:20:36Z</time>
      </trkpt>
      <trkpt lat="43.24302" lon="-0.67224">
        <ele>174.62</ele>
        <time>2021-08-20T08:20:37Z</time>
      </trkpt>
      <trkpt lat="43.24303" lon="-0.67232">
        <ele>174.62</ele>
        <time>2021-08-20T08:20:38Z</time>
      </trkpt>
      <trkpt lat="43.24305" lon="-0.6724">
        <ele>174.62</ele>
        <time>2021-08-20T08:20:39Z</time>
      </trkpt>
      <trkpt lat="43.24308" lon="-0.67247">
        <ele>174.62</ele>
        <time>2021-08-20T08:20:40Z</time>
      </trkpt>
      <trkpt lat="43.24325" lon="-0.67301">
        <ele>174.62</ele>
        <time>2021-08-20T08:20:47Z</time>
      </trkpt>
      <trkpt lat="43.24329" lon="-0.67306">
        <ele>174.62</ele>
        <time>2021-08-20T08:20:48Z</time>
      </trkpt>
      <trkpt lat="43.24333" lon="-0.67307">
        <ele>174.62</ele>
        <time>2021-08-20T08:20:49Z</time>
      </trkpt>
      <trkpt lat="43.24338" lon="-0.67305">
        <ele>174.62</ele>
        <time>2021-08-20T08:20:50Z</time>
      </trkpt>
      <trkpt lat="43.24342" lon="-0.67303">
        <ele>174.62</ele>
        <time>2021-08-20T08:20:51Z</time>
      </trkpt>
      <trkpt lat="43.24346" lon="-0.67304">
        <ele>174.62</ele>
        <time>2021-08-20T08:20:52Z</time>
      </trkpt>
      <trkpt lat="43.2435" lon="-0.67308">
        <ele>174.62</ele>
        <time>2021-08-20T08:20:53Z</time>
      </trkpt>
      <trkpt lat="43.24352" lon="-0.67312">
        <ele>174.62</ele>
        <time>2021-08-20T08:20:54Z</time>
      </trkpt>
      <trkpt lat="43.24354" lon="-0.67318">
        <ele>174.62</ele>
        <time>2021-08-20T08:20:55Z</time>
      </trkpt>
      <trkpt lat="43.24355" lon="-0.67323">
        <ele>174.62</ele>
        <time>2021-08-20T08:20:56Z</time>
      </trkpt>
      <trkpt lat="43.24362" lon="-0.67341">
        <ele>174.62</ele>
        <time>2021-08-20T08:20:59Z</time>
      </trkpt>
      <trkpt lat="43.24365" lon="-0.67347">
        <ele>174.62</ele>
        <time>2021-08-20T08:21:00Z</time>
      </trkpt>
      <trkpt lat="43.24368" lon="-0.67351">
        <ele>174.62</ele>
        <time>2021-08-20T08:21:01Z</time>
      </trkpt>
      <trkpt lat="43.24372" lon="-0.67356">
        <ele>174.62</ele>
        <time>2021-08-20T08:21:02Z</time>
      </trkpt>
      <trkpt lat="43.24376" lon="-0.6736">
        <ele>174.62</ele>
        <time>2021-08-20T08:21:03Z</time>
      </trkpt>
      <trkpt lat="43.24415" lon="-0.67391">
        <ele>174.62</ele>
        <time>2021-08-20T08:21:12Z</time>
      </trkpt>
      <trkpt lat="43.2445" lon="-0.67424">
        <ele>174.62</ele>
        <time>2021-08-20T08:21:20Z</time>
      </trkpt>
      <trkpt lat="43.24489" lon="-0.67473">
        <ele>174.62</ele>
        <time>2021-08-20T08:21:29Z</time>
      </trkpt>
      <trkpt lat="43.24523" lon="-0.67506">
        <ele>174.62</ele>
        <time>2021-08-20T08:21:36Z</time>
      </trkpt>
      <trkpt lat="43.24567" lon="-0.67541">
        <ele>174.14</ele>
        <time>2021-08-20T08:21:44Z</time>
      </trkpt>
      <trkpt lat="43.24606" lon="-0.67563">
        <ele>174.14</ele>
        <time>2021-08-20T08:21:51Z</time>
      </trkpt>
      <trkpt lat="43.24658" lon="-0.67572">
        <ele>174.14</ele>
        <time>2021-08-20T08:22:00Z</time>
      </trkpt>
      <trkpt lat="43.24718" lon="-0.67581">
        <ele>174.14</ele>
        <time>2021-08-20T08:22:10Z</time>
      </trkpt>
      <trkpt lat="43.24729" lon="-0.67582">
        <ele>174.14</ele>
        <time>2021-08-20T08:22:12Z</time>
      </trkpt>
      <trkpt lat="43.24733" lon="-0.67582">
        <ele>174.14</ele>
        <time>2021-08-20T08:22:13Z</time>
      </trkpt>
      <trkpt lat="43.24738" lon="-0.6758">
        <ele>173.66</ele>
        <time>2021-08-20T08:22:14Z</time>
      </trkpt>
      <trkpt lat="43.24742" lon="-0.67578">
        <ele>175.1</ele>
        <time>2021-08-20T08:22:15Z</time>
      </trkpt>
      <trkpt lat="43.24746" lon="-0.67575">
        <ele>175.1</ele>
        <time>2021-08-20T08:22:16Z</time>
      </trkpt>
      <trkpt lat="43.24749" lon="-0.67572">
        <ele>175.58</ele>
        <time>2021-08-20T08:22:17Z</time>
      </trkpt>
      <trkpt lat="43.24773" lon="-0.67555">
        <ele>177.02</ele>
        <time>2021-08-20T08:22:25Z</time>
      </trkpt>
      <trkpt lat="43.24791" lon="-0.67544">
        <ele>178.46</ele>
        <time>2021-08-20T08:22:32Z</time>
      </trkpt>
      <trkpt lat="43.24804" lon="-0.67528">
        <ele>180.38</ele>
        <time>2021-08-20T08:22:39Z</time>
      </trkpt>
      <trkpt lat="43.24816" lon="-0.67511">
        <ele>181.35</ele>
        <time>2021-08-20T08:22:48Z</time>
      </trkpt>
      <trkpt lat="43.24832" lon="-0.67498">
        <ele>182.31</ele>
        <time>2021-08-20T08:22:57Z</time>
      </trkpt>
      <trkpt lat="43.24846" lon="-0.67486">
        <ele>184.23</ele>
        <time>2021-08-20T08:23:07Z</time>
      </trkpt>
      <trkpt lat="43.24857" lon="-0.67477">
        <ele>186.15</ele>
        <time>2021-08-20T08:23:16Z</time>
      </trkpt>
      <trkpt lat="43.24869" lon="-0.67477">
        <ele>186.63</ele>
        <time>2021-08-20T08:23:23Z</time>
      </trkpt>
      <trkpt lat="43.24883" lon="-0.67478">
        <ele>187.11</ele>
        <time>2021-08-20T08:23:29Z</time>
      </trkpt>
      <trkpt lat="43.24897" lon="-0.67476">
        <ele>188.08</ele>
        <time>2021-08-20T08:23:36Z</time>
      </trkpt>
      <trkpt lat="43.24922" lon="-0.67476">
        <ele>188.08</ele>
        <time>2021-08-20T08:23:44Z</time>
      </trkpt>
      <trkpt lat="43.24949" lon="-0.67473">
        <ele>189.04</ele>
        <time>2021-08-20T08:23:52Z</time>
      </trkpt>
      <trkpt lat="43.24968" lon="-0.67471">
        <ele>189.04</ele>
        <time>2021-08-20T08:23:57Z</time>
      </trkpt>
      <trkpt lat="43.24981" lon="-0.67469">
        <ele>188.08</ele>
        <time>2021-08-20T08:24:02Z</time>
      </trkpt>
      <trkpt lat="43.24982" lon="-0.6747">
        <ele>188.08</ele>
        <time>2021-08-20T08:24:03Z</time>
      </trkpt>
      <trkpt lat="43.24983" lon="-0.67469">
        <ele>188.08</ele>
        <time>2021-08-20T08:24:09Z</time>
      </trkpt>
      <trkpt lat="43.24988" lon="-0.67468">
        <ele>188.08</ele>
        <time>2021-08-20T08:24:17Z</time>
      </trkpt>
      <trkpt lat="43.24995" lon="-0.67464">
        <ele>189.04</ele>
        <time>2021-08-20T08:24:26Z</time>
      </trkpt>
      <trkpt lat="43.25003" lon="-0.6746">
        <ele>190</ele>
        <time>2021-08-20T08:24:35Z</time>
      </trkpt>
      <trkpt lat="43.25006" lon="-0.67456">
        <ele>190.48</ele>
        <time>2021-08-20T08:24:43Z</time>
      </trkpt>
      <trkpt lat="43.25013" lon="-0.67453">
        <ele>191.92</ele>
        <time>2021-08-20T08:24:50Z</time>
      </trkpt>
      <trkpt lat="43.25017" lon="-0.67452">
        <ele>192.4</ele>
        <time>2021-08-20T08:24:58Z</time>
      </trkpt>
      <trkpt lat="43.2502" lon="-0.6745">
        <ele>192.4</ele>
        <time>2021-08-20T08:25:02Z</time>
      </trkpt>
      <trkpt lat="43.25022" lon="-0.67449">
        <ele>192.4</ele>
        <time>2021-08-20T08:25:03Z</time>
      </trkpt>
      <trkpt lat="43.25024" lon="-0.67448">
        <ele>192.4</ele>
        <time>2021-08-20T08:25:05Z</time>
      </trkpt>
      <trkpt lat="43.25026" lon="-0.67448">
        <ele>192.4</ele>
        <time>2021-08-20T08:25:06Z</time>
      </trkpt>
      <trkpt lat="43.25027" lon="-0.67448">
        <ele>192.4</ele>
        <time>2021-08-20T08:25:07Z</time>
      </trkpt>
      <trkpt lat="43.25029" lon="-0.67447">
        <ele>192.4</ele>
        <time>2021-08-20T08:25:08Z</time>
      </trkpt>
      <trkpt lat="43.2503" lon="-0.67446">
        <ele>192.4</ele>
        <time>2021-08-20T08:25:09Z</time>
      </trkpt>
      <trkpt lat="43.25033" lon="-0.67445">
        <ele>193.36</ele>
        <time>2021-08-20T08:25:14Z</time>
      </trkpt>
      <trkpt lat="43.25038" lon="-0.67443">
        <ele>193.36</ele>
        <time>2021-08-20T08:25:21Z</time>
      </trkpt>
      <trkpt lat="43.25042" lon="-0.67441">
        <ele>194.32</ele>
        <time>2021-08-20T08:25:28Z</time>
      </trkpt>
      <trkpt lat="43.25047" lon="-0.67438">
        <ele>194.8</ele>
        <time>2021-08-20T08:25:35Z</time>
      </trkpt>
      <trkpt lat="43.25051" lon="-0.67437">
        <ele>194.8</ele>
        <time>2021-08-20T08:25:43Z</time>
      </trkpt>
      <trkpt lat="43.25051" lon="-0.67437">
        <ele>194.8</ele>
        <time>2021-08-20T08:25:50Z</time>
      </trkpt>
      <trkpt lat="43.25052" lon="-0.67438">
        <ele>194.8</ele>
        <time>2021-08-20T08:25:55Z</time>
      </trkpt>
      <trkpt lat="43.25056" lon="-0.67439">
        <ele>195.28</ele>
        <time>2021-08-20T08:26:03Z</time>
      </trkpt>
      <trkpt lat="43.25061" lon="-0.67438">
        <ele>195.28</ele>
        <time>2021-08-20T08:26:11Z</time>
      </trkpt>
      <trkpt lat="43.25063" lon="-0.67439">
        <ele>195.28</ele>
        <time>2021-08-20T08:26:19Z</time>
      </trkpt>
      <trkpt lat="43.25067" lon="-0.6744">
        <ele>195.77</ele>
        <time>2021-08-20T08:26:27Z</time>
      </trkpt>
      <trkpt lat="43.25072" lon="-0.67441">
        <ele>195.77</ele>
        <time>2021-08-20T08:26:35Z</time>
      </trkpt>
      <trkpt lat="43.25078" lon="-0.67443">
        <ele>193.84</ele>
        <time>2021-08-20T08:26:44Z</time>
      </trkpt>
      <trkpt lat="43.25082" lon="-0.67445">
        <ele>192.88</ele>
        <time>2021-08-20T08:26:52Z</time>
      </trkpt>
      <trkpt lat="43.25084" lon="-0.67445">
        <ele>193.36</ele>
        <time>2021-08-20T08:27:03Z</time>
      </trkpt>
      <trkpt lat="43.25092" lon="-0.67449">
        <ele>192.4</ele>
        <time>2021-08-20T08:27:08Z</time>
      </trkpt>
      <trkpt lat="43.25098" lon="-0.67454">
        <ele>191.44</ele>
        <time>2021-08-20T08:27:14Z</time>
      </trkpt>
      <trkpt lat="43.25101" lon="-0.67457">
        <ele>190.96</ele>
        <time>2021-08-20T08:27:20Z</time>
      </trkpt>
      <trkpt lat="43.25103" lon="-0.67458">
        <ele>190.48</ele>
        <time>2021-08-20T08:27:26Z</time>
      </trkpt>
      <trkpt lat="43.25104" lon="-0.67458">
        <ele>190.48</ele>
        <time>2021-08-20T08:27:33Z</time>
      </trkpt>
      <trkpt lat="43.25106" lon="-0.67459">
        <ele>190</ele>
        <time>2021-08-20T08:27:39Z</time>
      </trkpt>
      <trkpt lat="43.2511" lon="-0.6746">
        <ele>190</ele>
        <time>2021-08-20T08:27:47Z</time>
      </trkpt>
      <trkpt lat="43.25113" lon="-0.67462">
        <ele>189.04</ele>
        <time>2021-08-20T08:27:53Z</time>
      </trkpt>
      <trkpt lat="43.25118" lon="-0.67466">
        <ele>188.56</ele>
        <time>2021-08-20T08:28:00Z</time>
      </trkpt>
      <trkpt lat="43.2512" lon="-0.67469">
        <ele>188.08</ele>
        <time>2021-08-20T08:28:07Z</time>
      </trkpt>
      <trkpt lat="43.25128" lon="-0.67471">
        <ele>187.11</ele>
        <time>2021-08-20T08:28:14Z</time>
      </trkpt>
      <trkpt lat="43.25132" lon="-0.67471">
        <ele>187.59</ele>
        <time>2021-08-20T08:28:20Z</time>
      </trkpt>
      <trkpt lat="43.25137" lon="-0.67471">
        <ele>187.59</ele>
        <time>2021-08-20T08:28:28Z</time>
      </trkpt>
      <trkpt lat="43.25138" lon="-0.67469">
        <ele>189.04</ele>
        <time>2021-08-20T08:28:32Z</time>
      </trkpt>
      <trkpt lat="43.25139" lon="-0.67469">
        <ele>190</ele>
        <time>2021-08-20T08:28:40Z</time>
      </trkpt>
      <trkpt lat="43.2514" lon="-0.67466">
        <ele>190</ele>
        <time>2021-08-20T08:28:47Z</time>
      </trkpt>
      <trkpt lat="43.25145" lon="-0.67462">
        <ele>190.48</ele>
        <time>2021-08-20T08:28:56Z</time>
      </trkpt>
      <trkpt lat="43.25148" lon="-0.67465">
        <ele>189.04</ele>
        <time>2021-08-20T08:29:02Z</time>
      </trkpt>
      <trkpt lat="43.25148" lon="-0.67468">
        <ele>188.56</ele>
        <time>2021-08-20T08:29:11Z</time>
      </trkpt>
      <trkpt lat="43.2515" lon="-0.67473">
        <ele>188.08</ele>
        <time>2021-08-20T08:29:20Z</time>
      </trkpt>
      <trkpt lat="43.25148" lon="-0.67474">
        <ele>187.59</ele>
        <time>2021-08-20T08:29:28Z</time>
      </trkpt>
      <trkpt lat="43.25149" lon="-0.67473">
        <ele>187.59</ele>
        <time>2021-08-20T08:29:39Z</time>
      </trkpt>
      <trkpt lat="43.2515" lon="-0.67473">
        <ele>187.59</ele>
        <time>2021-08-20T08:29:47Z</time>
      </trkpt>
      <trkpt lat="43.2515" lon="-0.67471">
        <ele>187.59</ele>
        <time>2021-08-20T08:30:00Z</time>
      </trkpt>
      <trkpt lat="43.2515" lon="-0.67472">
        <ele>187.59</ele>
        <time>2021-08-20T08:30:14Z</time>
      </trkpt>
      <trkpt lat="43.25154" lon="-0.67469">
        <ele>187.59</ele>
        <time>2021-08-20T08:30:28Z</time>
      </trkpt>
      <trkpt lat="43.25155" lon="-0.6747">
        <ele>187.59</ele>
        <time>2021-08-20T08:30:40Z</time>
      </trkpt>
      <trkpt lat="43.25157" lon="-0.6747">
        <ele>187.59</ele>
        <time>2021-08-20T08:30:52Z</time>
      </trkpt>
      <trkpt lat="43.2516" lon="-0.67469">
        <ele>186.63</ele>
        <time>2021-08-20T08:31:02Z</time>
      </trkpt>
      <trkpt lat="43.2516" lon="-0.67473">
        <ele>185.19</ele>
        <time>2021-08-20T08:31:10Z</time>
      </trkpt>
      <trkpt lat="43.25164" lon="-0.67475">
        <ele>184.23</ele>
        <time>2021-08-20T08:31:16Z</time>
      </trkpt>
      <trkpt lat="43.25168" lon="-0.67477">
        <ele>184.23</ele>
        <time>2021-08-20T08:31:23Z</time>
      </trkpt>
      <trkpt lat="43.25182" lon="-0.67483">
        <ele>183.27</ele>
        <time>2021-08-20T08:31:30Z</time>
      </trkpt>
      <trkpt lat="43.25192" lon="-0.67483">
        <ele>182.79</ele>
        <time>2021-08-20T08:31:34Z</time>
      </trkpt>
      <trkpt lat="43.25201" lon="-0.67479">
        <ele>182.79</ele>
        <time>2021-08-20T08:31:41Z</time>
      </trkpt>
      <trkpt lat="43.25206" lon="-0.67478">
        <ele>182.79</ele>
        <time>2021-08-20T08:31:44Z</time>
      </trkpt>
      <trkpt lat="43.25212" lon="-0.67479">
        <ele>182.79</ele>
        <time>2021-08-20T08:31:48Z</time>
      </trkpt>
      <trkpt lat="43.2523" lon="-0.67485">
        <ele>181.83</ele>
        <time>2021-08-20T08:31:55Z</time>
      </trkpt>
      <trkpt lat="43.25242" lon="-0.67488">
        <ele>181.83</ele>
        <time>2021-08-20T08:32:02Z</time>
      </trkpt>
      <trkpt lat="43.25258" lon="-0.67487">
        <ele>181.83</ele>
        <time>2021-08-20T08:32:09Z</time>
      </trkpt>
      <trkpt lat="43.25259" lon="-0.67486">
        <ele>181.83</ele>
        <time>2021-08-20T08:32:10Z</time>
      </trkpt>
      <trkpt lat="43.25262" lon="-0.67484">
        <ele>182.79</ele>
        <time>2021-08-20T08:32:12Z</time>
      </trkpt>
      <trkpt lat="43.25271" lon="-0.67483">
        <ele>183.75</ele>
        <time>2021-08-20T08:32:20Z</time>
      </trkpt>
      <trkpt lat="43.25278" lon="-0.67481">
        <ele>184.23</ele>
        <time>2021-08-20T08:32:33Z</time>
      </trkpt>
      <trkpt lat="43.2528" lon="-0.67481">
        <ele>184.71</ele>
        <time>2021-08-20T08:32:41Z</time>
      </trkpt>
      <trkpt lat="43.25283" lon="-0.67481">
        <ele>184.71</ele>
        <time>2021-08-20T08:32:49Z</time>
      </trkpt>
      <trkpt lat="43.25288" lon="-0.6748">
        <ele>184.71</ele>
        <time>2021-08-20T08:32:57Z</time>
      </trkpt>
      <trkpt lat="43.25295" lon="-0.67476">
        <ele>185.19</ele>
        <time>2021-08-20T08:33:05Z</time>
      </trkpt>
      <trkpt lat="43.25301" lon="-0.67474">
        <ele>186.63</ele>
        <time>2021-08-20T08:33:12Z</time>
      </trkpt>
      <trkpt lat="43.25307" lon="-0.67476">
        <ele>187.11</ele>
        <time>2021-08-20T08:33:20Z</time>
      </trkpt>
      <trkpt lat="43.25312" lon="-0.67475">
        <ele>188.08</ele>
        <time>2021-08-20T08:33:28Z</time>
      </trkpt>
      <trkpt lat="43.25313" lon="-0.67474">
        <ele>188.08</ele>
        <time>2021-08-20T08:33:36Z</time>
      </trkpt>
      <trkpt lat="43.25315" lon="-0.67472">
        <ele>188.56</ele>
        <time>2021-08-20T08:33:48Z</time>
      </trkpt>
      <trkpt lat="43.25318" lon="-0.67475">
        <ele>189.04</ele>
        <time>2021-08-20T08:33:57Z</time>
      </trkpt>
      <trkpt lat="43.25321" lon="-0.67472">
        <ele>190.48</ele>
        <time>2021-08-20T08:34:05Z</time>
      </trkpt>
      <trkpt lat="43.25324" lon="-0.67472">
        <ele>190.96</ele>
        <time>2021-08-20T08:34:14Z</time>
      </trkpt>
      <trkpt lat="43.25324" lon="-0.67471">
        <ele>191.92</ele>
        <time>2021-08-20T08:34:21Z</time>
      </trkpt>
      <trkpt lat="43.25325" lon="-0.67471">
        <ele>192.4</ele>
        <time>2021-08-20T08:34:29Z</time>
      </trkpt>
      <trkpt lat="43.25327" lon="-0.6747">
        <ele>192.88</ele>
        <time>2021-08-20T08:34:38Z</time>
      </trkpt>
      <trkpt lat="43.2533" lon="-0.67468">
        <ele>193.84</ele>
        <time>2021-08-20T08:34:45Z</time>
      </trkpt>
      <trkpt lat="43.25334" lon="-0.67465">
        <ele>195.28</ele>
        <time>2021-08-20T08:34:53Z</time>
      </trkpt>
      <trkpt lat="43.2534" lon="-0.67463">
        <ele>195.28</ele>
        <time>2021-08-20T08:35:01Z</time>
      </trkpt>
      <trkpt lat="43.25342" lon="-0.67462">
        <ele>195.28</ele>
        <time>2021-08-20T08:35:07Z</time>
      </trkpt>
      <trkpt lat="43.25342" lon="-0.67458">
        <ele>195.77</ele>
        <time>2021-08-20T08:35:16Z</time>
      </trkpt>
      <trkpt lat="43.25338" lon="-0.67454">
        <ele>197.21</ele>
        <time>2021-08-20T08:35:24Z</time>
      </trkpt>
      <trkpt lat="43.25336" lon="-0.67452">
        <ele>197.69</ele>
        <time>2021-08-20T08:35:33Z</time>
      </trkpt>
      <trkpt lat="43.25335" lon="-0.67448">
        <ele>197.69</ele>
        <time>2021-08-20T08:35:42Z</time>
      </trkpt>
      <trkpt lat="43.25334" lon="-0.67447">
        <ele>198.17</ele>
        <time>2021-08-20T08:35:49Z</time>
      </trkpt>
      <trkpt lat="43.25335" lon="-0.67446">
        <ele>198.17</ele>
        <time>2021-08-20T08:35:59Z</time>
      </trkpt>
      <trkpt lat="43.25333" lon="-0.6744">
        <ele>198.65</ele>
        <time>2021-08-20T08:36:08Z</time>
      </trkpt>
      <trkpt lat="43.25332" lon="-0.6743">
        <ele>200.09</ele>
        <time>2021-08-20T08:36:17Z</time>
      </trkpt>
      <trkpt lat="43.25331" lon="-0.67422">
        <ele>201.05</ele>
        <time>2021-08-20T08:36:26Z</time>
      </trkpt>
      <trkpt lat="43.2533" lon="-0.67415">
        <ele>202.01</ele>
        <time>2021-08-20T08:36:34Z</time>
      </trkpt>
      <trkpt lat="43.2533" lon="-0.67406">
        <ele>203.94</ele>
        <time>2021-08-20T08:36:44Z</time>
      </trkpt>
      <trkpt lat="43.25331" lon="-0.67399">
        <ele>204.42</ele>
        <time>2021-08-20T08:36:51Z</time>
      </trkpt>
      <trkpt lat="43.25331" lon="-0.67391">
        <ele>206.34</ele>
        <time>2021-08-20T08:37:00Z</time>
      </trkpt>
      <trkpt lat="43.25331" lon="-0.67385">
        <ele>206.82</ele>
        <time>2021-08-20T08:37:07Z</time>
      </trkpt>
      <trkpt lat="43.25331" lon="-0.67381">
        <ele>206.34</ele>
        <time>2021-08-20T08:37:14Z</time>
      </trkpt>
      <trkpt lat="43.25338" lon="-0.67367">
        <ele>206.34</ele>
        <time>2021-08-20T08:37:21Z</time>
      </trkpt>
      <trkpt lat="43.25348" lon="-0.67355">
        <ele>205.38</ele>
        <time>2021-08-20T08:37:26Z</time>
      </trkpt>
      <trkpt lat="43.25355" lon="-0.67348">
        <ele>206.34</ele>
        <time>2021-08-20T08:37:31Z</time>
      </trkpt>
      <trkpt lat="43.25367" lon="-0.6735">
        <ele>206.82</ele>
        <time>2021-08-20T08:37:39Z</time>
      </trkpt>
      <trkpt lat="43.25379" lon="-0.67353">
        <ele>206.82</ele>
        <time>2021-08-20T08:37:45Z</time>
      </trkpt>
      <trkpt lat="43.25382" lon="-0.67353">
        <ele>206.82</ele>
        <time>2021-08-20T08:37:51Z</time>
      </trkpt>
      <trkpt lat="43.25389" lon="-0.67355">
        <ele>206.82</ele>
        <time>2021-08-20T08:37:58Z</time>
      </trkpt>
      <trkpt lat="43.25402" lon="-0.67359">
        <ele>206.82</ele>
        <time>2021-08-20T08:38:06Z</time>
      </trkpt>
      <trkpt lat="43.25414" lon="-0.67364">
        <ele>206.82</ele>
        <time>2021-08-20T08:38:12Z</time>
      </trkpt>
      <trkpt lat="43.25431" lon="-0.67373">
        <ele>206.82</ele>
        <time>2021-08-20T08:38:19Z</time>
      </trkpt>
      <trkpt lat="43.2545" lon="-0.6738">
        <ele>207.3</ele>
        <time>2021-08-20T08:38:26Z</time>
      </trkpt>
      <trkpt lat="43.25462" lon="-0.6738">
        <ele>208.26</ele>
        <time>2021-08-20T08:38:31Z</time>
      </trkpt>
      <trkpt lat="43.25479" lon="-0.67383">
        <ele>208.26</ele>
        <time>2021-08-20T08:38:37Z</time>
      </trkpt>
      <trkpt lat="43.25491" lon="-0.67384">
        <ele>208.74</ele>
        <time>2021-08-20T08:38:42Z</time>
      </trkpt>
      <trkpt lat="43.25505" lon="-0.6739">
        <ele>208.74</ele>
        <time>2021-08-20T08:38:48Z</time>
      </trkpt>
      <trkpt lat="43.25513" lon="-0.67399">
        <ele>207.3</ele>
        <time>2021-08-20T08:38:51Z</time>
      </trkpt>
      <trkpt lat="43.25529" lon="-0.67421">
        <ele>205.38</ele>
        <time>2021-08-20T08:38:58Z</time>
      </trkpt>
      <trkpt lat="43.25531" lon="-0.67426">
        <ele>205.38</ele>
        <time>2021-08-20T08:38:59Z</time>
      </trkpt>
      <trkpt lat="43.25541" lon="-0.67445">
        <ele>203.94</ele>
        <time>2021-08-20T08:39:03Z</time>
      </trkpt>
      <trkpt lat="43.25565" lon="-0.67482">
        <ele>202.98</ele>
        <time>2021-08-20T08:39:12Z</time>
      </trkpt>
      <trkpt lat="43.25581" lon="-0.67491">
        <ele>201.05</ele>
        <time>2021-08-20T08:39:17Z</time>
      </trkpt>
      <trkpt lat="43.25589" lon="-0.67495">
        <ele>198.65</ele>
        <time>2021-08-20T08:39:19Z</time>
      </trkpt>
      <trkpt lat="43.25608" lon="-0.67496">
        <ele>192.4</ele>
        <time>2021-08-20T08:39:23Z</time>
      </trkpt>
      <trkpt lat="43.25621" lon="-0.67502">
        <ele>190.48</ele>
        <time>2021-08-20T08:39:26Z</time>
      </trkpt>
      <trkpt lat="43.25625" lon="-0.67511">
        <ele>189.52</ele>
        <time>2021-08-20T08:39:28Z</time>
      </trkpt>
      <trkpt lat="43.25632" lon="-0.67525">
        <ele>188.08</ele>
        <time>2021-08-20T08:39:32Z</time>
      </trkpt>
      <trkpt lat="43.25641" lon="-0.67529">
        <ele>185.67</ele>
        <time>2021-08-20T08:39:36Z</time>
      </trkpt>
      <trkpt lat="43.25647" lon="-0.67531">
        <ele>184.23</ele>
        <time>2021-08-20T08:39:38Z</time>
      </trkpt>
      <trkpt lat="43.25653" lon="-0.6755">
        <ele>182.31</ele>
        <time>2021-08-20T08:39:44Z</time>
      </trkpt>
      <trkpt lat="43.25651" lon="-0.67557">
        <ele>181.83</ele>
        <time>2021-08-20T08:39:46Z</time>
      </trkpt>
      <trkpt lat="43.2565" lon="-0.67577">
        <ele>179.9</ele>
        <time>2021-08-20T08:39:52Z</time>
      </trkpt>
      <trkpt lat="43.2565" lon="-0.67597">
        <ele>178.46</ele>
        <time>2021-08-20T08:39:58Z</time>
      </trkpt>
      <trkpt lat="43.25659" lon="-0.67607">
        <ele>176.54</ele>
        <time>2021-08-20T08:40:04Z</time>
      </trkpt>
      <trkpt lat="43.25663" lon="-0.67607">
        <ele>175.58</ele>
        <time>2021-08-20T08:40:05Z</time>
      </trkpt>
      <trkpt lat="43.25679" lon="-0.67602">
        <ele>175.58</ele>
        <time>2021-08-20T08:40:11Z</time>
      </trkpt>
      <trkpt lat="43.25682" lon="-0.67601">
        <ele>176.54</ele>
        <time>2021-08-20T08:40:15Z</time>
      </trkpt>
      <trkpt lat="43.25687" lon="-0.676">
        <ele>177.98</ele>
        <time>2021-08-20T08:40:22Z</time>
      </trkpt>
      <trkpt lat="43.25691" lon="-0.67596">
        <ele>178.94</ele>
        <time>2021-08-20T08:40:29Z</time>
      </trkpt>
      <trkpt lat="43.25694" lon="-0.67594">
        <ele>179.42</ele>
        <time>2021-08-20T08:40:38Z</time>
      </trkpt>
      <trkpt lat="43.25694" lon="-0.67594">
        <ele>179.42</ele>
        <time>2021-08-20T08:40:45Z</time>
      </trkpt>
      <trkpt lat="43.25694" lon="-0.67597">
        <ele>179.42</ele>
        <time>2021-08-20T08:41:00Z</time>
      </trkpt>
      <trkpt lat="43.25696" lon="-0.67593">
        <ele>179.42</ele>
        <time>2021-08-20T08:41:13Z</time>
      </trkpt>
      <trkpt lat="43.25696" lon="-0.67594">
        <ele>179.42</ele>
        <time>2021-08-20T08:41:25Z</time>
      </trkpt>
      <trkpt lat="43.25694" lon="-0.67593">
        <ele>179.42</ele>
        <time>2021-08-20T08:41:37Z</time>
      </trkpt>
      <trkpt lat="43.25695" lon="-0.67592">
        <ele>179.42</ele>
        <time>2021-08-20T08:41:46Z</time>
      </trkpt>
      <trkpt lat="43.25698" lon="-0.67591">
        <ele>179.42</ele>
        <time>2021-08-20T08:41:54Z</time>
      </trkpt>
      <trkpt lat="43.25704" lon="-0.67586">
        <ele>179.42</ele>
        <time>2021-08-20T08:41:59Z</time>
      </trkpt>
      <trkpt lat="43.25717" lon="-0.67585">
        <ele>179.42</ele>
        <time>2021-08-20T08:42:05Z</time>
      </trkpt>
      <trkpt lat="43.25726" lon="-0.67584">
        <ele>179.9</ele>
        <time>2021-08-20T08:42:10Z</time>
      </trkpt>
      <trkpt lat="43.25734" lon="-0.67582">
        <ele>180.87</ele>
        <time>2021-08-20T08:42:17Z</time>
      </trkpt>
      <trkpt lat="43.25737" lon="-0.67582">
        <ele>180.87</ele>
        <time>2021-08-20T08:42:19Z</time>
      </trkpt>
      <trkpt lat="43.2575" lon="-0.67578">
        <ele>182.31</ele>
        <time>2021-08-20T08:42:29Z</time>
      </trkpt>
      <trkpt lat="43.25757" lon="-0.67582">
        <ele>182.79</ele>
        <time>2021-08-20T08:42:34Z</time>
      </trkpt>
      <trkpt lat="43.25766" lon="-0.67574">
        <ele>183.75</ele>
        <time>2021-08-20T08:42:43Z</time>
      </trkpt>
      <trkpt lat="43.25774" lon="-0.67564">
        <ele>185.19</ele>
        <time>2021-08-20T08:42:52Z</time>
      </trkpt>
      <trkpt lat="43.2578" lon="-0.67554">
        <ele>186.63</ele>
        <time>2021-08-20T08:43:00Z</time>
      </trkpt>
      <trkpt lat="43.25785" lon="-0.67544">
        <ele>187.59</ele>
        <time>2021-08-20T08:43:07Z</time>
      </trkpt>
      <trkpt lat="43.25792" lon="-0.67532">
        <ele>189.04</ele>
        <time>2021-08-20T08:43:16Z</time>
      </trkpt>
      <trkpt lat="43.25798" lon="-0.67521">
        <ele>191.44</ele>
        <time>2021-08-20T08:43:25Z</time>
      </trkpt>
      <trkpt lat="43.25806" lon="-0.67508">
        <ele>193.36</ele>
        <time>2021-08-20T08:43:35Z</time>
      </trkpt>
      <trkpt lat="43.25811" lon="-0.67498">
        <ele>195.28</ele>
        <time>2021-08-20T08:43:43Z</time>
      </trkpt>
      <trkpt lat="43.25812" lon="-0.67497">
        <ele>195.28</ele>
        <time>2021-08-20T08:43:44Z</time>
      </trkpt>
      <trkpt lat="43.25818" lon="-0.67484">
        <ele>196.73</ele>
        <time>2021-08-20T08:43:54Z</time>
      </trkpt>
      <trkpt lat="43.25822" lon="-0.67473">
        <ele>198.65</ele>
        <time>2021-08-20T08:44:03Z</time>
      </trkpt>
      <trkpt lat="43.25823" lon="-0.6747">
        <ele>199.13</ele>
        <time>2021-08-20T08:44:05Z</time>
      </trkpt>
      <trkpt lat="43.25824" lon="-0.67466">
        <ele>199.61</ele>
        <time>2021-08-20T08:44:07Z</time>
      </trkpt>
      <trkpt lat="43.25829" lon="-0.67454">
        <ele>201.05</ele>
        <time>2021-08-20T08:44:16Z</time>
      </trkpt>
      <trkpt lat="43.25828" lon="-0.67453">
        <ele>202.01</ele>
        <time>2021-08-20T08:44:23Z</time>
      </trkpt>
      <trkpt lat="43.2583" lon="-0.67447">
        <ele>202.98</ele>
        <time>2021-08-20T08:44:31Z</time>
      </trkpt>
      <trkpt lat="43.25833" lon="-0.67435">
        <ele>203.94</ele>
        <time>2021-08-20T08:44:41Z</time>
      </trkpt>
      <trkpt lat="43.25835" lon="-0.6742">
        <ele>205.38</ele>
        <time>2021-08-20T08:44:52Z</time>
      </trkpt>
      <trkpt lat="43.25836" lon="-0.67408">
        <ele>206.82</ele>
        <time>2021-08-20T08:45:00Z</time>
      </trkpt>
      <trkpt lat="43.25838" lon="-0.67396">
        <ele>208.26</ele>
        <time>2021-08-20T08:45:09Z</time>
      </trkpt>
      <trkpt lat="43.25838" lon="-0.67385">
        <ele>209.7</ele>
        <time>2021-08-20T08:45:18Z</time>
      </trkpt>
      <trkpt lat="43.25838" lon="-0.67377">
        <ele>210.67</ele>
        <time>2021-08-20T08:45:25Z</time>
      </trkpt>
      <trkpt lat="43.25839" lon="-0.67371">
        <ele>211.15</ele>
        <time>2021-08-20T08:45:33Z</time>
      </trkpt>
      <trkpt lat="43.25839" lon="-0.67358">
        <ele>212.11</ele>
        <time>2021-08-20T08:45:40Z</time>
      </trkpt>
      <trkpt lat="43.2584" lon="-0.67353">
        <ele>212.59</ele>
        <time>2021-08-20T08:45:42Z</time>
      </trkpt>
      <trkpt lat="43.25839" lon="-0.67341">
        <ele>213.07</ele>
        <time>2021-08-20T08:45:46Z</time>
      </trkpt>
      <trkpt lat="43.25838" lon="-0.67334">
        <ele>213.55</ele>
        <time>2021-08-20T08:45:49Z</time>
      </trkpt>
      <trkpt lat="43.25835" lon="-0.67318">
        <ele>214.51</ele>
        <time>2021-08-20T08:45:55Z</time>
      </trkpt>
      <trkpt lat="43.25827" lon="-0.67289">
        <ele>214.99</ele>
        <time>2021-08-20T08:46:04Z</time>
      </trkpt>
      <trkpt lat="43.25819" lon="-0.67257">
        <ele>215.47</ele>
        <time>2021-08-20T08:46:12Z</time>
      </trkpt>
      <trkpt lat="43.25814" lon="-0.67238">
        <ele>215.95</ele>
        <time>2021-08-20T08:46:17Z</time>
      </trkpt>
      <trkpt lat="43.25815" lon="-0.67235">
        <ele>216.43</ele>
        <time>2021-08-20T08:46:18Z</time>
      </trkpt>
      <trkpt lat="43.25816" lon="-0.67231">
        <ele>216.91</ele>
        <time>2021-08-20T08:46:19Z</time>
      </trkpt>
      <trkpt lat="43.25817" lon="-0.67228">
        <ele>216.91</ele>
        <time>2021-08-20T08:46:20Z</time>
      </trkpt>
      <trkpt lat="43.25819" lon="-0.67225">
        <ele>217.4</ele>
        <time>2021-08-20T08:46:21Z</time>
      </trkpt>
      <trkpt lat="43.25841" lon="-0.67201">
        <ele>218.84</ele>
        <time>2021-08-20T08:46:30Z</time>
      </trkpt>
      <trkpt lat="43.25865" lon="-0.67177">
        <ele>219.32</ele>
        <time>2021-08-20T08:46:39Z</time>
      </trkpt>
      <trkpt lat="43.25884" lon="-0.67154">
        <ele>219.8</ele>
        <time>2021-08-20T08:46:46Z</time>
      </trkpt>
      <trkpt lat="43.25912" lon="-0.6713">
        <ele>220.28</ele>
        <time>2021-08-20T08:46:54Z</time>
      </trkpt>
      <trkpt lat="43.2594" lon="-0.67107">
        <ele>220.28</ele>
        <time>2021-08-20T08:47:02Z</time>
      </trkpt>
      <trkpt lat="43.25955" lon="-0.67091">
        <ele>220.28</ele>
        <time>2021-08-20T08:47:08Z</time>
      </trkpt>
      <trkpt lat="43.25956" lon="-0.67087">
        <ele>220.28</ele>
        <time>2021-08-20T08:47:09Z</time>
      </trkpt>
      <trkpt lat="43.25956" lon="-0.67083">
        <ele>220.28</ele>
        <time>2021-08-20T08:47:10Z</time>
      </trkpt>
      <trkpt lat="43.25955" lon="-0.67079">
        <ele>220.28</ele>
        <time>2021-08-20T08:47:11Z</time>
      </trkpt>
      <trkpt lat="43.25953" lon="-0.67076">
        <ele>220.28</ele>
        <time>2021-08-20T08:47:12Z</time>
      </trkpt>
      <trkpt lat="43.25951" lon="-0.67073">
        <ele>220.28</ele>
        <time>2021-08-20T08:47:13Z</time>
      </trkpt>
      <trkpt lat="43.25918" lon="-0.67036">
        <ele>220.28</ele>
        <time>2021-08-20T08:47:24Z</time>
      </trkpt>
      <trkpt lat="43.25892" lon="-0.67005">
        <ele>221.24</ele>
        <time>2021-08-20T08:47:33Z</time>
      </trkpt>
      <trkpt lat="43.25892" lon="-0.67001">
        <ele>220.76</ele>
        <time>2021-08-20T08:47:34Z</time>
      </trkpt>
      <trkpt lat="43.25894" lon="-0.66996">
        <ele>219.8</ele>
        <time>2021-08-20T08:47:35Z</time>
      </trkpt>
      <trkpt lat="43.25898" lon="-0.66994">
        <ele>219.8</ele>
        <time>2021-08-20T08:47:36Z</time>
      </trkpt>
      <trkpt lat="43.25903" lon="-0.66992">
        <ele>219.8</ele>
        <time>2021-08-20T08:47:37Z</time>
      </trkpt>
      <trkpt lat="43.25945" lon="-0.66976">
        <ele>217.88</ele>
        <time>2021-08-20T08:47:46Z</time>
      </trkpt>
      <trkpt lat="43.2595" lon="-0.66974">
        <ele>217.88</ele>
        <time>2021-08-20T08:47:47Z</time>
      </trkpt>
      <trkpt lat="43.25955" lon="-0.66972">
        <ele>217.88</ele>
        <time>2021-08-20T08:47:48Z</time>
      </trkpt>
      <trkpt lat="43.2598" lon="-0.66962">
        <ele>216.43</ele>
        <time>2021-08-20T08:47:53Z</time>
      </trkpt>
      <trkpt lat="43.26009" lon="-0.66948">
        <ele>215.47</ele>
        <time>2021-08-20T08:47:59Z</time>
      </trkpt>
      <trkpt lat="43.26013" lon="-0.66944">
        <ele>215.47</ele>
        <time>2021-08-20T08:48:00Z</time>
      </trkpt>
      <trkpt lat="43.26016" lon="-0.6694">
        <ele>214.99</ele>
        <time>2021-08-20T08:48:01Z</time>
      </trkpt>
      <trkpt lat="43.2603" lon="-0.66921">
        <ele>213.07</ele>
        <time>2021-08-20T08:48:07Z</time>
      </trkpt>
      <trkpt lat="43.26044" lon="-0.66907">
        <ele>210.19</ele>
        <time>2021-08-20T08:48:14Z</time>
      </trkpt>
      <trkpt lat="43.26045" lon="-0.66908">
        <ele>210.19</ele>
        <time>2021-08-20T08:48:21Z</time>
      </trkpt>
      <trkpt lat="43.26053" lon="-0.66909">
        <ele>208.74</ele>
        <time>2021-08-20T08:48:24Z</time>
      </trkpt>
      <trkpt lat="43.26063" lon="-0.66921">
        <ele>206.34</ele>
        <time>2021-08-20T08:48:28Z</time>
      </trkpt>
      <trkpt lat="43.26073" lon="-0.66932">
        <ele>204.42</ele>
        <time>2021-08-20T08:48:31Z</time>
      </trkpt>
      <trkpt lat="43.26081" lon="-0.66938">
        <ele>202.98</ele>
        <time>2021-08-20T08:48:33Z</time>
      </trkpt>
      <trkpt lat="43.26084" lon="-0.66942">
        <ele>202.49</ele>
        <time>2021-08-20T08:48:34Z</time>
      </trkpt>
      <trkpt lat="43.26106" lon="-0.66956">
        <ele>200.57</ele>
        <time>2021-08-20T08:48:40Z</time>
      </trkpt>
      <trkpt lat="43.2611" lon="-0.66959">
        <ele>199.61</ele>
        <time>2021-08-20T08:48:42Z</time>
      </trkpt>
      <trkpt lat="43.2612" lon="-0.66956">
        <ele>198.65</ele>
        <time>2021-08-20T08:48:46Z</time>
      </trkpt>
      <trkpt lat="43.26123" lon="-0.66955">
        <ele>198.65</ele>
        <time>2021-08-20T08:48:52Z</time>
      </trkpt>
      <trkpt lat="43.26123" lon="-0.66954">
        <ele>198.65</ele>
        <time>2021-08-20T08:49:03Z</time>
      </trkpt>
      <trkpt lat="43.26124" lon="-0.66955">
        <ele>198.65</ele>
        <time>2021-08-20T08:49:14Z</time>
      </trkpt>
      <trkpt lat="43.26124" lon="-0.66956">
        <ele>198.65</ele>
        <time>2021-08-20T08:49:15Z</time>
      </trkpt>
      <trkpt lat="43.26126" lon="-0.66963">
        <ele>198.65</ele>
        <time>2021-08-20T08:49:21Z</time>
      </trkpt>
      <trkpt lat="43.26126" lon="-0.66974">
        <ele>200.09</ele>
        <time>2021-08-20T08:49:29Z</time>
      </trkpt>
      <trkpt lat="43.26127" lon="-0.66977">
        <ele>200.09</ele>
        <time>2021-08-20T08:49:32Z</time>
      </trkpt>
      <trkpt lat="43.26131" lon="-0.66979">
        <ele>199.61</ele>
        <time>2021-08-20T08:49:38Z</time>
      </trkpt>
      <trkpt lat="43.26131" lon="-0.66979">
        <ele>199.61</ele>
        <time>2021-08-20T08:49:39Z</time>
      </trkpt>
      <trkpt lat="43.2614" lon="-0.66968">
        <ele>198.17</ele>
        <time>2021-08-20T08:49:46Z</time>
      </trkpt>
      <trkpt lat="43.26139" lon="-0.66953">
        <ele>197.21</ele>
        <time>2021-08-20T08:49:52Z</time>
      </trkpt>
      <trkpt lat="43.2614" lon="-0.66945">
        <ele>196.73</ele>
        <time>2021-08-20T08:49:59Z</time>
      </trkpt>
      <trkpt lat="43.26141" lon="-0.66947">
        <ele>196.73</ele>
        <time>2021-08-20T08:50:09Z</time>
      </trkpt>
      <trkpt lat="43.26142" lon="-0.66947">
        <ele>196.73</ele>
        <time>2021-08-20T08:50:10Z</time>
      </trkpt>
      <trkpt lat="43.26146" lon="-0.66947">
        <ele>196.25</ele>
        <time>2021-08-20T08:50:17Z</time>
      </trkpt>
      <trkpt lat="43.26148" lon="-0.66944">
        <ele>196.25</ele>
        <time>2021-08-20T08:50:21Z</time>
      </trkpt>
      <trkpt lat="43.26146" lon="-0.66943">
        <ele>196.25</ele>
        <time>2021-08-20T08:50:25Z</time>
      </trkpt>
      <trkpt lat="43.2614" lon="-0.66937">
        <ele>195.77</ele>
        <time>2021-08-20T08:50:33Z</time>
      </trkpt>
      <trkpt lat="43.26136" lon="-0.66933">
        <ele>195.77</ele>
        <time>2021-08-20T08:50:40Z</time>
      </trkpt>
      <trkpt lat="43.26137" lon="-0.66934">
        <ele>195.77</ele>
        <time>2021-08-20T08:50:53Z</time>
      </trkpt>
      <trkpt lat="43.26138" lon="-0.66935">
        <ele>195.77</ele>
        <time>2021-08-20T08:50:55Z</time>
      </trkpt>
      <trkpt lat="43.26139" lon="-0.66938">
        <ele>195.77</ele>
        <time>2021-08-20T08:50:58Z</time>
      </trkpt>
      <trkpt lat="43.26145" lon="-0.66947">
        <ele>195.77</ele>
        <time>2021-08-20T08:51:07Z</time>
      </trkpt>
      <trkpt lat="43.2615" lon="-0.66952">
        <ele>195.77</ele>
        <time>2021-08-20T08:51:16Z</time>
      </trkpt>
      <trkpt lat="43.26151" lon="-0.66952">
        <ele>195.77</ele>
        <time>2021-08-20T08:51:26Z</time>
      </trkpt>
      <trkpt lat="43.2615" lon="-0.66951">
        <ele>195.77</ele>
        <time>2021-08-20T08:51:34Z</time>
      </trkpt>
      <trkpt lat="43.2615" lon="-0.6695">
        <ele>195.77</ele>
        <time>2021-08-20T08:51:41Z</time>
      </trkpt>
      <trkpt lat="43.26146" lon="-0.66947">
        <ele>195.77</ele>
        <time>2021-08-20T08:51:48Z</time>
      </trkpt>
      <trkpt lat="43.26144" lon="-0.66945">
        <ele>195.77</ele>
        <time>2021-08-20T08:51:51Z</time>
      </trkpt>
      <trkpt lat="43.26137" lon="-0.66936">
        <ele>195.77</ele>
        <time>2021-08-20T08:52:01Z</time>
      </trkpt>
      <trkpt lat="43.26133" lon="-0.66923">
        <ele>195.77</ele>
        <time>2021-08-20T08:52:10Z</time>
      </trkpt>
      <trkpt lat="43.26131" lon="-0.66917">
        <ele>195.77</ele>
        <time>2021-08-20T08:52:17Z</time>
      </trkpt>
      <trkpt lat="43.26126" lon="-0.66911">
        <ele>195.77</ele>
        <time>2021-08-20T08:52:20Z</time>
      </trkpt>
      <trkpt lat="43.2612" lon="-0.66896">
        <ele>195.77</ele>
        <time>2021-08-20T08:52:26Z</time>
      </trkpt>
      <trkpt lat="43.26119" lon="-0.66894">
        <ele>195.77</ele>
        <time>2021-08-20T08:52:31Z</time>
      </trkpt>
      <trkpt lat="43.26118" lon="-0.66894">
        <ele>195.77</ele>
        <time>2021-08-20T08:52:43Z</time>
      </trkpt>
      <trkpt lat="43.26118" lon="-0.66892">
        <ele>195.77</ele>
        <time>2021-08-20T08:52:52Z</time>
      </trkpt>
      <trkpt lat="43.26117" lon="-0.66894">
        <ele>195.77</ele>
        <time>2021-08-20T08:53:07Z</time>
      </trkpt>
      <trkpt lat="43.26117" lon="-0.66894">
        <ele>195.28</ele>
        <time>2021-08-20T08:53:29Z</time>
      </trkpt>
      <trkpt lat="43.26116" lon="-0.66897">
        <ele>195.28</ele>
        <time>2021-08-20T08:53:46Z</time>
      </trkpt>
      <trkpt lat="43.26118" lon="-0.66894">
        <ele>195.28</ele>
        <time>2021-08-20T08:54:07Z</time>
      </trkpt>
      <trkpt lat="43.26122" lon="-0.66897">
        <ele>195.28</ele>
        <time>2021-08-20T08:54:11Z</time>
      </trkpt>
      <trkpt lat="43.26125" lon="-0.66908">
        <ele>195.28</ele>
        <time>2021-08-20T08:54:20Z</time>
      </trkpt>
      <trkpt lat="43.26127" lon="-0.6691">
        <ele>195.28</ele>
        <time>2021-08-20T08:54:26Z</time>
      </trkpt>
      <trkpt lat="43.26127" lon="-0.66912">
        <ele>195.28</ele>
        <time>2021-08-20T08:54:38Z</time>
      </trkpt>
      <trkpt lat="43.26129" lon="-0.66915">
        <ele>195.28</ele>
        <time>2021-08-20T08:54:41Z</time>
      </trkpt>
      <trkpt lat="43.2613" lon="-0.66918">
        <ele>195.28</ele>
        <time>2021-08-20T08:54:47Z</time>
      </trkpt>
      <trkpt lat="43.26128" lon="-0.66911">
        <ele>195.28</ele>
        <time>2021-08-20T08:54:56Z</time>
      </trkpt>
      <trkpt lat="43.26127" lon="-0.6691">
        <ele>196.73</ele>
        <time>2021-08-20T08:55:08Z</time>
      </trkpt>
      <trkpt lat="43.26128" lon="-0.66908">
        <ele>195.28</ele>
        <time>2021-08-20T08:55:14Z</time>
      </trkpt>
      <trkpt lat="43.26131" lon="-0.66903">
        <ele>195.28</ele>
        <time>2021-08-20T08:55:24Z</time>
      </trkpt>
      <trkpt lat="43.26132" lon="-0.66903">
        <ele>195.28</ele>
        <time>2021-08-20T08:55:32Z</time>
      </trkpt>
      <trkpt lat="43.26132" lon="-0.66901">
        <ele>195.28</ele>
        <time>2021-08-20T08:55:42Z</time>
      </trkpt>
      <trkpt lat="43.26132" lon="-0.669">
        <ele>194.8</ele>
        <time>2021-08-20T08:55:51Z</time>
      </trkpt>
      <trkpt lat="43.26131" lon="-0.669">
        <ele>194.8</ele>
        <time>2021-08-20T08:55:59Z</time>
      </trkpt>
      <trkpt lat="43.26132" lon="-0.66898">
        <ele>194.8</ele>
        <time>2021-08-20T08:56:05Z</time>
      </trkpt>
      <trkpt lat="43.26136" lon="-0.66893">
        <ele>194.32</ele>
        <time>2021-08-20T08:56:13Z</time>
      </trkpt>
      <trkpt lat="43.26136" lon="-0.66891">
        <ele>194.32</ele>
        <time>2021-08-20T08:56:16Z</time>
      </trkpt>
      <trkpt lat="43.2615" lon="-0.66887">
        <ele>193.36</ele>
        <time>2021-08-20T08:56:23Z</time>
      </trkpt>
      <trkpt lat="43.26168" lon="-0.66885">
        <ele>192.4</ele>
        <time>2021-08-20T08:56:29Z</time>
      </trkpt>
      <trkpt lat="43.26185" lon="-0.66878">
        <ele>191.44</ele>
        <time>2021-08-20T08:56:35Z</time>
      </trkpt>
      <trkpt lat="43.26198" lon="-0.66869">
        <ele>190.96</ele>
        <time>2021-08-20T08:56:41Z</time>
      </trkpt>
      <trkpt lat="43.26198" lon="-0.66868">
        <ele>190.96</ele>
        <time>2021-08-20T08:56:45Z</time>
      </trkpt>
      <trkpt lat="43.26198" lon="-0.66865">
        <ele>190.48</ele>
        <time>2021-08-20T08:56:48Z</time>
      </trkpt>
      <trkpt lat="43.26199" lon="-0.66859">
        <ele>190.48</ele>
        <time>2021-08-20T08:56:55Z</time>
      </trkpt>
      <trkpt lat="43.26201" lon="-0.66852">
        <ele>190</ele>
        <time>2021-08-20T08:57:02Z</time>
      </trkpt>
      <trkpt lat="43.2621" lon="-0.66847">
        <ele>190</ele>
        <time>2021-08-20T08:57:09Z</time>
      </trkpt>
      <trkpt lat="43.26217" lon="-0.66843">
        <ele>190</ele>
        <time>2021-08-20T08:57:15Z</time>
      </trkpt>
      <trkpt lat="43.26221" lon="-0.66843">
        <ele>190</ele>
        <time>2021-08-20T08:57:22Z</time>
      </trkpt>
      <trkpt lat="43.26225" lon="-0.66841">
        <ele>190</ele>
        <time>2021-08-20T08:57:31Z</time>
      </trkpt>
      <trkpt lat="43.26227" lon="-0.66841">
        <ele>189.52</ele>
        <time>2021-08-20T08:57:38Z</time>
      </trkpt>
      <trkpt lat="43.26228" lon="-0.66839">
        <ele>189.52</ele>
        <time>2021-08-20T08:57:44Z</time>
      </trkpt>
      <trkpt lat="43.26235" lon="-0.66835">
        <ele>189.52</ele>
        <time>2021-08-20T08:57:48Z</time>
      </trkpt>
      <trkpt lat="43.26262" lon="-0.66828">
        <ele>189.52</ele>
        <time>2021-08-20T08:57:56Z</time>
      </trkpt>
      <trkpt lat="43.26291" lon="-0.66824">
        <ele>188.56</ele>
        <time>2021-08-20T08:58:04Z</time>
      </trkpt>
      <trkpt lat="43.26311" lon="-0.66836">
        <ele>188.56</ele>
        <time>2021-08-20T08:58:11Z</time>
      </trkpt>
      <trkpt lat="43.26319" lon="-0.66843">
        <ele>187.59</ele>
        <time>2021-08-20T08:58:15Z</time>
      </trkpt>
      <trkpt lat="43.26323" lon="-0.66843">
        <ele>187.59</ele>
        <time>2021-08-20T08:58:21Z</time>
      </trkpt>
      <trkpt lat="43.26323" lon="-0.66843">
        <ele>189.04</ele>
        <time>2021-08-20T08:58:29Z</time>
      </trkpt>
      <trkpt lat="43.26324" lon="-0.66844">
        <ele>189.04</ele>
        <time>2021-08-20T08:58:30Z</time>
      </trkpt>
      <trkpt lat="43.26324" lon="-0.66842">
        <ele>187.59</ele>
        <time>2021-08-20T08:58:37Z</time>
      </trkpt>
      <trkpt lat="43.26325" lon="-0.66841">
        <ele>187.11</ele>
        <time>2021-08-20T08:58:48Z</time>
      </trkpt>
      <trkpt lat="43.26326" lon="-0.66841">
        <ele>188.56</ele>
        <time>2021-08-20T08:58:50Z</time>
      </trkpt>
      <trkpt lat="43.26329" lon="-0.66844">
        <ele>188.56</ele>
        <time>2021-08-20T08:58:57Z</time>
      </trkpt>
      <trkpt lat="43.26329" lon="-0.66846">
        <ele>188.56</ele>
        <time>2021-08-20T08:58:58Z</time>
      </trkpt>
      <trkpt lat="43.26336" lon="-0.66862">
        <ele>188.56</ele>
        <time>2021-08-20T08:59:05Z</time>
      </trkpt>
      <trkpt lat="43.26345" lon="-0.66886">
        <ele>188.56</ele>
        <time>2021-08-20T08:59:13Z</time>
      </trkpt>
      <trkpt lat="43.26359" lon="-0.66918">
        <ele>186.63</ele>
        <time>2021-08-20T08:59:20Z</time>
      </trkpt>
      <trkpt lat="43.26379" lon="-0.66969">
        <ele>185.67</ele>
        <time>2021-08-20T08:59:28Z</time>
      </trkpt>
      <trkpt lat="43.26401" lon="-0.67023">
        <ele>185.19</ele>
        <time>2021-08-20T08:59:36Z</time>
      </trkpt>
      <trkpt lat="43.26422" lon="-0.67075">
        <ele>183.75</ele>
        <time>2021-08-20T08:59:43Z</time>
      </trkpt>
      <trkpt lat="43.26444" lon="-0.67131">
        <ele>183.27</ele>
        <time>2021-08-20T08:59:50Z</time>
      </trkpt>
      <trkpt lat="43.26453" lon="-0.67154">
        <ele>182.79</ele>
        <time>2021-08-20T08:59:53Z</time>
      </trkpt>
      <trkpt lat="43.26456" lon="-0.67162">
        <ele>182.79</ele>
        <time>2021-08-20T08:59:54Z</time>
      </trkpt>
      <trkpt lat="43.26459" lon="-0.6717">
        <ele>182.79</ele>
        <time>2021-08-20T08:59:55Z</time>
      </trkpt>
      <trkpt lat="43.26478" lon="-0.67218">
        <ele>184.23</ele>
        <time>2021-08-20T09:00:02Z</time>
      </trkpt>
      <trkpt lat="43.26488" lon="-0.67238">
        <ele>184.71</ele>
        <time>2021-08-20T09:00:07Z</time>
      </trkpt>
      <trkpt lat="43.26502" lon="-0.67254">
        <ele>184.71</ele>
        <time>2021-08-20T09:00:12Z</time>
      </trkpt>
      <trkpt lat="43.26507" lon="-0.67255">
        <ele>184.71</ele>
        <time>2021-08-20T09:00:13Z</time>
      </trkpt>
      <trkpt lat="43.26512" lon="-0.67257">
        <ele>183.75</ele>
        <time>2021-08-20T09:00:14Z</time>
      </trkpt>
      <trkpt lat="43.26517" lon="-0.67259">
        <ele>183.75</ele>
        <time>2021-08-20T09:00:15Z</time>
      </trkpt>
      <trkpt lat="43.26522" lon="-0.67264">
        <ele>183.75</ele>
        <time>2021-08-20T09:00:16Z</time>
      </trkpt>
      <trkpt lat="43.26555" lon="-0.67298">
        <ele>182.79</ele>
        <time>2021-08-20T09:00:23Z</time>
      </trkpt>
      <trkpt lat="43.26574" lon="-0.67319">
        <ele>182.79</ele>
        <time>2021-08-20T09:00:27Z</time>
      </trkpt>
      <trkpt lat="43.26579" lon="-0.67323">
        <ele>182.31</ele>
        <time>2021-08-20T09:00:28Z</time>
      </trkpt>
      <trkpt lat="43.26584" lon="-0.67327">
        <ele>182.31</ele>
        <time>2021-08-20T09:00:29Z</time>
      </trkpt>
      <trkpt lat="43.26595" lon="-0.67334">
        <ele>181.35</ele>
        <time>2021-08-20T09:00:31Z</time>
      </trkpt>
      <trkpt lat="43.26615" lon="-0.67351">
        <ele>180.38</ele>
        <time>2021-08-20T09:00:35Z</time>
      </trkpt>
      <trkpt lat="43.2662" lon="-0.67355">
        <ele>180.38</ele>
        <time>2021-08-20T09:00:36Z</time>
      </trkpt>
      <trkpt lat="43.26625" lon="-0.67358">
        <ele>180.38</ele>
        <time>2021-08-20T09:00:37Z</time>
      </trkpt>
      <trkpt lat="43.26656" lon="-0.67378">
        <ele>180.38</ele>
        <time>2021-08-20T09:00:43Z</time>
      </trkpt>
      <trkpt lat="43.26668" lon="-0.6739">
        <ele>180.38</ele>
        <time>2021-08-20T09:00:46Z</time>
      </trkpt>
      <trkpt lat="43.26673" lon="-0.67394">
        <ele>180.38</ele>
        <time>2021-08-20T09:00:47Z</time>
      </trkpt>
      <trkpt lat="43.26681" lon="-0.67401">
        <ele>180.38</ele>
        <time>2021-08-20T09:00:49Z</time>
      </trkpt>
      <trkpt lat="43.26709" lon="-0.67432">
        <ele>180.38</ele>
        <time>2021-08-20T09:00:56Z</time>
      </trkpt>
      <trkpt lat="43.26712" lon="-0.67437">
        <ele>180.38</ele>
        <time>2021-08-20T09:00:57Z</time>
      </trkpt>
      <trkpt lat="43.26716" lon="-0.67441">
        <ele>180.38</ele>
        <time>2021-08-20T09:00:58Z</time>
      </trkpt>
      <trkpt lat="43.26728" lon="-0.67453">
        <ele>180.38</ele>
        <time>2021-08-20T09:01:01Z</time>
      </trkpt>
      <trkpt lat="43.26731" lon="-0.67458">
        <ele>180.38</ele>
        <time>2021-08-20T09:01:02Z</time>
      </trkpt>
      <trkpt lat="43.26735" lon="-0.67463">
        <ele>180.38</ele>
        <time>2021-08-20T09:01:03Z</time>
      </trkpt>
      <trkpt lat="43.26739" lon="-0.67468">
        <ele>180.38</ele>
        <time>2021-08-20T09:01:04Z</time>
      </trkpt>
      <trkpt lat="43.26742" lon="-0.67473">
        <ele>180.38</ele>
        <time>2021-08-20T09:01:05Z</time>
      </trkpt>
      <trkpt lat="43.26745" lon="-0.67479">
        <ele>180.38</ele>
        <time>2021-08-20T09:01:06Z</time>
      </trkpt>
      <trkpt lat="43.26748" lon="-0.67485">
        <ele>180.38</ele>
        <time>2021-08-20T09:01:07Z</time>
      </trkpt>
      <trkpt lat="43.2675" lon="-0.6749">
        <ele>180.38</ele>
        <time>2021-08-20T09:01:08Z</time>
      </trkpt>
      <trkpt lat="43.26753" lon="-0.67495">
        <ele>180.38</ele>
        <time>2021-08-20T09:01:09Z</time>
      </trkpt>
      <trkpt lat="43.26756" lon="-0.67498">
        <ele>180.38</ele>
        <time>2021-08-20T09:01:10Z</time>
      </trkpt>
      <trkpt lat="43.2676" lon="-0.67502">
        <ele>180.38</ele>
        <time>2021-08-20T09:01:11Z</time>
      </trkpt>
      <trkpt lat="43.26767" lon="-0.67507">
        <ele>180.38</ele>
        <time>2021-08-20T09:01:13Z</time>
      </trkpt>
      <trkpt lat="43.26771" lon="-0.67509">
        <ele>180.38</ele>
        <time>2021-08-20T09:01:14Z</time>
      </trkpt>
      <trkpt lat="43.26797" lon="-0.67526">
        <ele>179.9</ele>
        <time>2021-08-20T09:01:20Z</time>
      </trkpt>
      <trkpt lat="43.26801" lon="-0.67528">
        <ele>179.42</ele>
        <time>2021-08-20T09:01:21Z</time>
      </trkpt>
      <trkpt lat="43.26806" lon="-0.67529">
        <ele>179.42</ele>
        <time>2021-08-20T09:01:22Z</time>
      </trkpt>
      <trkpt lat="43.26828" lon="-0.67535">
        <ele>181.35</ele>
        <time>2021-08-20T09:01:28Z</time>
      </trkpt>
      <trkpt lat="43.2684" lon="-0.67533">
        <ele>179.9</ele>
        <time>2021-08-20T09:01:31Z</time>
      </trkpt>
      <trkpt lat="43.26844" lon="-0.67529">
        <ele>179.9</ele>
        <time>2021-08-20T09:01:32Z</time>
      </trkpt>
      <trkpt lat="43.2686" lon="-0.6752">
        <ele>177.98</ele>
        <time>2021-08-20T09:01:35Z</time>
      </trkpt>
      <trkpt lat="43.26865" lon="-0.67519">
        <ele>177.98</ele>
        <time>2021-08-20T09:01:36Z</time>
      </trkpt>
      <trkpt lat="43.26869" lon="-0.6752">
        <ele>177.98</ele>
        <time>2021-08-20T09:01:37Z</time>
      </trkpt>
      <trkpt lat="43.26873" lon="-0.67524">
        <ele>177.98</ele>
        <time>2021-08-20T09:01:38Z</time>
      </trkpt>
      <trkpt lat="43.26877" lon="-0.67529">
        <ele>177.98</ele>
        <time>2021-08-20T09:01:39Z</time>
      </trkpt>
      <trkpt lat="43.26904" lon="-0.67565">
        <ele>177.98</ele>
        <time>2021-08-20T09:01:46Z</time>
      </trkpt>
      <trkpt lat="43.26907" lon="-0.6757">
        <ele>177.98</ele>
        <time>2021-08-20T09:01:47Z</time>
      </trkpt>
      <trkpt lat="43.2691" lon="-0.67576">
        <ele>177.98</ele>
        <time>2021-08-20T09:01:48Z</time>
      </trkpt>
      <trkpt lat="43.26933" lon="-0.67623">
        <ele>176.06</ele>
        <time>2021-08-20T09:01:55Z</time>
      </trkpt>
      <trkpt lat="43.26963" lon="-0.67688">
        <ele>174.62</ele>
        <time>2021-08-20T09:02:03Z</time>
      </trkpt>
      <trkpt lat="43.27002" lon="-0.67775">
        <ele>174.14</ele>
        <time>2021-08-20T09:02:13Z</time>
      </trkpt>
      <trkpt lat="43.27032" lon="-0.67834">
        <ele>174.14</ele>
        <time>2021-08-20T09:02:21Z</time>
      </trkpt>
      <trkpt lat="43.27038" lon="-0.67848">
        <ele>174.14</ele>
        <time>2021-08-20T09:02:23Z</time>
      </trkpt>
      <trkpt lat="43.2704" lon="-0.67855">
        <ele>174.14</ele>
        <time>2021-08-20T09:02:24Z</time>
      </trkpt>
      <trkpt lat="43.27041" lon="-0.67863">
        <ele>174.14</ele>
        <time>2021-08-20T09:02:25Z</time>
      </trkpt>
      <trkpt lat="43.27042" lon="-0.6787">
        <ele>174.14</ele>
        <time>2021-08-20T09:02:26Z</time>
      </trkpt>
      <trkpt lat="43.27041" lon="-0.67877">
        <ele>174.14</ele>
        <time>2021-08-20T09:02:27Z</time>
      </trkpt>
      <trkpt lat="43.27039" lon="-0.67884">
        <ele>173.66</ele>
        <time>2021-08-20T09:02:28Z</time>
      </trkpt>
      <trkpt lat="43.27037" lon="-0.67892">
        <ele>173.17</ele>
        <time>2021-08-20T09:02:29Z</time>
      </trkpt>
      <trkpt lat="43.27016" lon="-0.67945">
        <ele>173.17</ele>
        <time>2021-08-20T09:02:36Z</time>
      </trkpt>
      <trkpt lat="43.27008" lon="-0.67979">
        <ele>173.17</ele>
        <time>2021-08-20T09:02:40Z</time>
      </trkpt>
      <trkpt lat="43.27007" lon="-0.67988">
        <ele>173.17</ele>
        <time>2021-08-20T09:02:41Z</time>
      </trkpt>
      <trkpt lat="43.27007" lon="-0.67996">
        <ele>173.17</ele>
        <time>2021-08-20T09:02:42Z</time>
      </trkpt>
      <trkpt lat="43.27007" lon="-0.68011">
        <ele>173.17</ele>
        <time>2021-08-20T09:02:44Z</time>
      </trkpt>
      <trkpt lat="43.27008" lon="-0.68025">
        <ele>174.62</ele>
        <time>2021-08-20T09:02:46Z</time>
      </trkpt>
      <trkpt lat="43.27009" lon="-0.68047">
        <ele>174.62</ele>
        <time>2021-08-20T09:02:49Z</time>
      </trkpt>
      <trkpt lat="43.2701" lon="-0.68054">
        <ele>175.1</ele>
        <time>2021-08-20T09:02:50Z</time>
      </trkpt>
      <trkpt lat="43.27019" lon="-0.68107">
        <ele>175.1</ele>
        <time>2021-08-20T09:02:57Z</time>
      </trkpt>
      <trkpt lat="43.27021" lon="-0.68137">
        <ele>175.1</ele>
        <time>2021-08-20T09:03:01Z</time>
      </trkpt>
      <trkpt lat="43.2702" lon="-0.68145">
        <ele>175.1</ele>
        <time>2021-08-20T09:03:02Z</time>
      </trkpt>
      <trkpt lat="43.27008" lon="-0.6822">
        <ele>175.58</ele>
        <time>2021-08-20T09:03:12Z</time>
      </trkpt>
      <trkpt lat="43.27006" lon="-0.68227">
        <ele>175.58</ele>
        <time>2021-08-20T09:03:13Z</time>
      </trkpt>
      <trkpt lat="43.27003" lon="-0.6824">
        <ele>175.58</ele>
        <time>2021-08-20T09:03:15Z</time>
      </trkpt>
      <trkpt lat="43.26985" lon="-0.68285">
        <ele>173.66</ele>
        <time>2021-08-20T09:03:22Z</time>
      </trkpt>
      <trkpt lat="43.26982" lon="-0.68292">
        <ele>173.66</ele>
        <time>2021-08-20T09:03:23Z</time>
      </trkpt>
      <trkpt lat="43.26979" lon="-0.68299">
        <ele>172.69</ele>
        <time>2021-08-20T09:03:24Z</time>
      </trkpt>
      <trkpt lat="43.26968" lon="-0.68336">
        <ele>170.29</ele>
        <time>2021-08-20T09:03:28Z</time>
      </trkpt>
      <trkpt lat="43.26959" lon="-0.6837">
        <ele>167.89</ele>
        <time>2021-08-20T09:03:31Z</time>
      </trkpt>
      <trkpt lat="43.26957" lon="-0.68382">
        <ele>167.89</ele>
        <time>2021-08-20T09:03:32Z</time>
      </trkpt>
      <trkpt lat="43.26957" lon="-0.68395">
        <ele>167.89</ele>
        <time>2021-08-20T09:03:33Z</time>
      </trkpt>
      <trkpt lat="43.26956" lon="-0.68418">
        <ele>166.93</ele>
        <time>2021-08-20T09:03:35Z</time>
      </trkpt>
      <trkpt lat="43.26955" lon="-0.68429">
        <ele>167.41</ele>
        <time>2021-08-20T09:03:36Z</time>
      </trkpt>
      <trkpt lat="43.26953" lon="-0.6844">
        <ele>167.41</ele>
        <time>2021-08-20T09:03:37Z</time>
      </trkpt>
      <trkpt lat="43.2695" lon="-0.6845">
        <ele>167.41</ele>
        <time>2021-08-20T09:03:38Z</time>
      </trkpt>
      <trkpt lat="43.26946" lon="-0.68458">
        <ele>166.93</ele>
        <time>2021-08-20T09:03:39Z</time>
      </trkpt>
      <trkpt lat="43.26942" lon="-0.68467">
        <ele>166.93</ele>
        <time>2021-08-20T09:03:40Z</time>
      </trkpt>
      <trkpt lat="43.26922" lon="-0.68521">
        <ele>166.45</ele>
        <time>2021-08-20T09:03:46Z</time>
      </trkpt>
      <trkpt lat="43.26909" lon="-0.68588">
        <ele>165.48</ele>
        <time>2021-08-20T09:03:53Z</time>
      </trkpt>
      <trkpt lat="43.26906" lon="-0.68615">
        <ele>165.48</ele>
        <time>2021-08-20T09:03:56Z</time>
      </trkpt>
      <trkpt lat="43.26904" lon="-0.68623">
        <ele>165.48</ele>
        <time>2021-08-20T09:03:57Z</time>
      </trkpt>
      <trkpt lat="43.269" lon="-0.68631">
        <ele>165.48</ele>
        <time>2021-08-20T09:03:58Z</time>
      </trkpt>
      <trkpt lat="43.26877" lon="-0.68673">
        <ele>167.41</ele>
        <time>2021-08-20T09:04:05Z</time>
      </trkpt>
      <trkpt lat="43.26874" lon="-0.68677">
        <ele>167.41</ele>
        <time>2021-08-20T09:04:06Z</time>
      </trkpt>
      <trkpt lat="43.26871" lon="-0.68681">
        <ele>167.41</ele>
        <time>2021-08-20T09:04:07Z</time>
      </trkpt>
      <trkpt lat="43.26867" lon="-0.68685">
        <ele>167.41</ele>
        <time>2021-08-20T09:04:08Z</time>
      </trkpt>
      <trkpt lat="43.26858" lon="-0.68692">
        <ele>167.41</ele>
        <time>2021-08-20T09:04:10Z</time>
      </trkpt>
      <trkpt lat="43.26842" lon="-0.68706">
        <ele>167.41</ele>
        <time>2021-08-20T09:04:13Z</time>
      </trkpt>
      <trkpt lat="43.26817" lon="-0.68735">
        <ele>165.96</ele>
        <time>2021-08-20T09:04:18Z</time>
      </trkpt>
      <trkpt lat="43.26791" lon="-0.68763">
        <ele>165</ele>
        <time>2021-08-20T09:04:23Z</time>
      </trkpt>
      <trkpt lat="43.26787" lon="-0.68769">
        <ele>164.52</ele>
        <time>2021-08-20T09:04:24Z</time>
      </trkpt>
      <trkpt lat="43.26783" lon="-0.68776">
        <ele>164.52</ele>
        <time>2021-08-20T09:04:25Z</time>
      </trkpt>
      <trkpt lat="43.2678" lon="-0.68784">
        <ele>164.52</ele>
        <time>2021-08-20T09:04:26Z</time>
      </trkpt>
      <trkpt lat="43.26778" lon="-0.68793">
        <ele>164.52</ele>
        <time>2021-08-20T09:04:27Z</time>
      </trkpt>
      <trkpt lat="43.26776" lon="-0.68801">
        <ele>164.52</ele>
        <time>2021-08-20T09:04:28Z</time>
      </trkpt>
      <trkpt lat="43.26775" lon="-0.6881">
        <ele>164.52</ele>
        <time>2021-08-20T09:04:29Z</time>
      </trkpt>
      <trkpt lat="43.26774" lon="-0.68818">
        <ele>164.52</ele>
        <time>2021-08-20T09:04:30Z</time>
      </trkpt>
      <trkpt lat="43.26774" lon="-0.68826">
        <ele>165</ele>
        <time>2021-08-20T09:04:31Z</time>
      </trkpt>
      <trkpt lat="43.26774" lon="-0.68834">
        <ele>165.96</ele>
        <time>2021-08-20T09:04:32Z</time>
      </trkpt>
      <trkpt lat="43.26775" lon="-0.68842">
        <ele>165.96</ele>
        <time>2021-08-20T09:04:33Z</time>
      </trkpt>
      <trkpt lat="43.26777" lon="-0.6885">
        <ele>165.96</ele>
        <time>2021-08-20T09:04:34Z</time>
      </trkpt>
      <trkpt lat="43.26779" lon="-0.68857">
        <ele>165.96</ele>
        <time>2021-08-20T09:04:35Z</time>
      </trkpt>
      <trkpt lat="43.26781" lon="-0.68865">
        <ele>165.96</ele>
        <time>2021-08-20T09:04:36Z</time>
      </trkpt>
      <trkpt lat="43.26783" lon="-0.68871">
        <ele>165.96</ele>
        <time>2021-08-20T09:04:37Z</time>
      </trkpt>
      <trkpt lat="43.26814" lon="-0.68931">
        <ele>165.96</ele>
        <time>2021-08-20T09:04:46Z</time>
      </trkpt>
      <trkpt lat="43.2685" lon="-0.6898">
        <ele>165.96</ele>
        <time>2021-08-20T09:04:54Z</time>
      </trkpt>
      <trkpt lat="43.26875" lon="-0.69021">
        <ele>165.96</ele>
        <time>2021-08-20T09:05:00Z</time>
      </trkpt>
      <trkpt lat="43.26881" lon="-0.69038">
        <ele>165.96</ele>
        <time>2021-08-20T09:05:02Z</time>
      </trkpt>
      <trkpt lat="43.2689" lon="-0.69075">
        <ele>164.52</ele>
        <time>2021-08-20T09:05:06Z</time>
      </trkpt>
      <trkpt lat="43.26907" lon="-0.69144">
        <ele>164.52</ele>
        <time>2021-08-20T09:05:14Z</time>
      </trkpt>
      <trkpt lat="43.26908" lon="-0.69152">
        <ele>164.52</ele>
        <time>2021-08-20T09:05:15Z</time>
      </trkpt>
      <trkpt lat="43.2691" lon="-0.69168">
        <ele>164.52</ele>
        <time>2021-08-20T09:05:17Z</time>
      </trkpt>
      <trkpt lat="43.26916" lon="-0.69225">
        <ele>164.52</ele>
        <time>2021-08-20T09:05:23Z</time>
      </trkpt>
      <trkpt lat="43.26919" lon="-0.69302">
        <ele>163.56</ele>
        <time>2021-08-20T09:05:31Z</time>
      </trkpt>
      <trkpt lat="43.26933" lon="-0.69371">
        <ele>163.08</ele>
        <time>2021-08-20T09:05:38Z</time>
      </trkpt>
      <trkpt lat="43.26959" lon="-0.69444">
        <ele>162.6</ele>
        <time>2021-08-20T09:05:46Z</time>
      </trkpt>
      <trkpt lat="43.26986" lon="-0.69519">
        <ele>162.6</ele>
        <time>2021-08-20T09:05:55Z</time>
      </trkpt>
      <trkpt lat="43.26986" lon="-0.69527">
        <ele>162.6</ele>
        <time>2021-08-20T09:05:56Z</time>
      </trkpt>
      <trkpt lat="43.26986" lon="-0.69537">
        <ele>162.6</ele>
        <time>2021-08-20T09:05:57Z</time>
      </trkpt>
      <trkpt lat="43.26987" lon="-0.69595">
        <ele>161.64</ele>
        <time>2021-08-20T09:06:04Z</time>
      </trkpt>
      <trkpt lat="43.26988" lon="-0.69603">
        <ele>161.16</ele>
        <time>2021-08-20T09:06:05Z</time>
      </trkpt>
      <trkpt lat="43.26994" lon="-0.69626">
        <ele>161.16</ele>
        <time>2021-08-20T09:06:08Z</time>
      </trkpt>
      <trkpt lat="43.26997" lon="-0.69633">
        <ele>161.16</ele>
        <time>2021-08-20T09:06:09Z</time>
      </trkpt>
      <trkpt lat="43.2701" lon="-0.69698">
        <ele>161.16</ele>
        <time>2021-08-20T09:06:17Z</time>
      </trkpt>
      <trkpt lat="43.27013" lon="-0.69735">
        <ele>162.6</ele>
        <time>2021-08-20T09:06:23Z</time>
      </trkpt>
      <trkpt lat="43.27013" lon="-0.69741">
        <ele>162.6</ele>
        <time>2021-08-20T09:06:24Z</time>
      </trkpt>
      <trkpt lat="43.27013" lon="-0.69747">
        <ele>162.6</ele>
        <time>2021-08-20T09:06:25Z</time>
      </trkpt>
      <trkpt lat="43.27012" lon="-0.69753">
        <ele>162.6</ele>
        <time>2021-08-20T09:06:26Z</time>
      </trkpt>
      <trkpt lat="43.2701" lon="-0.69759">
        <ele>162.6</ele>
        <time>2021-08-20T09:06:27Z</time>
      </trkpt>
      <trkpt lat="43.27009" lon="-0.69765">
        <ele>162.6</ele>
        <time>2021-08-20T09:06:28Z</time>
      </trkpt>
      <trkpt lat="43.27008" lon="-0.69771">
        <ele>163.08</ele>
        <time>2021-08-20T09:06:29Z</time>
      </trkpt>
      <trkpt lat="43.27007" lon="-0.69777">
        <ele>163.08</ele>
        <time>2021-08-20T09:06:30Z</time>
      </trkpt>
      <trkpt lat="43.27003" lon="-0.69829">
        <ele>163.08</ele>
        <time>2021-08-20T09:06:38Z</time>
      </trkpt>
      <trkpt lat="43.27003" lon="-0.69836">
        <ele>163.08</ele>
        <time>2021-08-20T09:06:39Z</time>
      </trkpt>
      <trkpt lat="43.27003" lon="-0.69843">
        <ele>163.08</ele>
        <time>2021-08-20T09:06:40Z</time>
      </trkpt>
      <trkpt lat="43.27004" lon="-0.69864">
        <ele>163.08</ele>
        <time>2021-08-20T09:06:43Z</time>
      </trkpt>
      <trkpt lat="43.27006" lon="-0.69886">
        <ele>163.08</ele>
        <time>2021-08-20T09:06:46Z</time>
      </trkpt>
      <trkpt lat="43.27014" lon="-0.69932">
        <ele>163.08</ele>
        <time>2021-08-20T09:06:53Z</time>
      </trkpt>
      <trkpt lat="43.2702" lon="-0.6996">
        <ele>163.08</ele>
        <time>2021-08-20T09:06:57Z</time>
      </trkpt>
      <trkpt lat="43.27018" lon="-0.70002">
        <ele>161.64</ele>
        <time>2021-08-20T09:07:03Z</time>
      </trkpt>
      <trkpt lat="43.27016" lon="-0.70015">
        <ele>161.64</ele>
        <time>2021-08-20T09:07:05Z</time>
      </trkpt>
      <trkpt lat="43.27015" lon="-0.70021">
        <ele>161.64</ele>
        <time>2021-08-20T09:07:06Z</time>
      </trkpt>
      <trkpt lat="43.27013" lon="-0.70045">
        <ele>161.64</ele>
        <time>2021-08-20T09:07:10Z</time>
      </trkpt>
      <trkpt lat="43.27013" lon="-0.70052">
        <ele>161.16</ele>
        <time>2021-08-20T09:07:11Z</time>
      </trkpt>
      <trkpt lat="43.27014" lon="-0.70073">
        <ele>161.16</ele>
        <time>2021-08-20T09:07:14Z</time>
      </trkpt>
      <trkpt lat="43.27015" lon="-0.7008">
        <ele>161.16</ele>
        <time>2021-08-20T09:07:15Z</time>
      </trkpt>
      <trkpt lat="43.27018" lon="-0.70093">
        <ele>161.16</ele>
        <time>2021-08-20T09:07:17Z</time>
      </trkpt>
      <trkpt lat="43.27025" lon="-0.70118">
        <ele>160.68</ele>
        <time>2021-08-20T09:07:21Z</time>
      </trkpt>
      <trkpt lat="43.27046" lon="-0.70166">
        <ele>158.75</ele>
        <time>2021-08-20T09:07:28Z</time>
      </trkpt>
      <trkpt lat="43.27057" lon="-0.70197">
        <ele>158.75</ele>
        <time>2021-08-20T09:07:32Z</time>
      </trkpt>
      <trkpt lat="43.27058" lon="-0.70205">
        <ele>158.75</ele>
        <time>2021-08-20T09:07:33Z</time>
      </trkpt>
      <trkpt lat="43.27068" lon="-0.70277">
        <ele>157.79</ele>
        <time>2021-08-20T09:07:42Z</time>
      </trkpt>
      <trkpt lat="43.27079" lon="-0.7035">
        <ele>156.35</ele>
        <time>2021-08-20T09:07:50Z</time>
      </trkpt>
      <trkpt lat="43.27091" lon="-0.704">
        <ele>157.31</ele>
        <time>2021-08-20T09:07:56Z</time>
      </trkpt>
      <trkpt lat="43.27112" lon="-0.70467">
        <ele>157.79</ele>
        <time>2021-08-20T09:08:05Z</time>
      </trkpt>
      <trkpt lat="43.27136" lon="-0.70547">
        <ele>157.79</ele>
        <time>2021-08-20T09:08:15Z</time>
      </trkpt>
      <trkpt lat="43.27144" lon="-0.70603">
        <ele>155.39</ele>
        <time>2021-08-20T09:08:21Z</time>
      </trkpt>
      <trkpt lat="43.2716" lon="-0.70656">
        <ele>155.39</ele>
        <time>2021-08-20T09:08:27Z</time>
      </trkpt>
      <trkpt lat="43.27165" lon="-0.70678">
        <ele>157.31</ele>
        <time>2021-08-20T09:08:30Z</time>
      </trkpt>
      <trkpt lat="43.27174" lon="-0.70734">
        <ele>157.31</ele>
        <time>2021-08-20T09:08:37Z</time>
      </trkpt>
      <trkpt lat="43.27178" lon="-0.70751">
        <ele>156.35</ele>
        <time>2021-08-20T09:08:39Z</time>
      </trkpt>
      <trkpt lat="43.27202" lon="-0.70848">
        <ele>156.35</ele>
        <time>2021-08-20T09:08:50Z</time>
      </trkpt>
      <trkpt lat="43.27217" lon="-0.70927">
        <ele>155.87</ele>
        <time>2021-08-20T09:08:59Z</time>
      </trkpt>
      <trkpt lat="43.27227" lon="-0.70987">
        <ele>155.87</ele>
        <time>2021-08-20T09:09:06Z</time>
      </trkpt>
      <trkpt lat="43.27239" lon="-0.71075">
        <ele>154.91</ele>
        <time>2021-08-20T09:09:16Z</time>
      </trkpt>
      <trkpt lat="43.27243" lon="-0.71158">
        <ele>155.39</ele>
        <time>2021-08-20T09:09:25Z</time>
      </trkpt>
      <trkpt lat="43.27246" lon="-0.71247">
        <ele>154.43</ele>
        <time>2021-08-20T09:09:35Z</time>
      </trkpt>
      <trkpt lat="43.27247" lon="-0.71257">
        <ele>154.43</ele>
        <time>2021-08-20T09:09:36Z</time>
      </trkpt>
      <trkpt lat="43.27251" lon="-0.71284">
        <ele>153.95</ele>
        <time>2021-08-20T09:09:39Z</time>
      </trkpt>
      <trkpt lat="43.27251" lon="-0.71295">
        <ele>153.95</ele>
        <time>2021-08-20T09:09:40Z</time>
      </trkpt>
      <trkpt lat="43.27246" lon="-0.71358">
        <ele>153.95</ele>
        <time>2021-08-20T09:09:47Z</time>
      </trkpt>
      <trkpt lat="43.27246" lon="-0.71374">
        <ele>155.39</ele>
        <time>2021-08-20T09:09:49Z</time>
      </trkpt>
      <trkpt lat="43.27246" lon="-0.71382">
        <ele>155.87</ele>
        <time>2021-08-20T09:09:50Z</time>
      </trkpt>
      <trkpt lat="43.27248" lon="-0.71414">
        <ele>157.79</ele>
        <time>2021-08-20T09:09:56Z</time>
      </trkpt>
      <trkpt lat="43.27247" lon="-0.71446">
        <ele>159.72</ele>
        <time>2021-08-20T09:10:04Z</time>
      </trkpt>
      <trkpt lat="43.27229" lon="-0.71459">
        <ele>159.72</ele>
        <time>2021-08-20T09:10:10Z</time>
      </trkpt>
      <trkpt lat="43.27225" lon="-0.7146">
        <ele>159.72</ele>
        <time>2021-08-20T09:10:11Z</time>
      </trkpt>
      <trkpt lat="43.27221" lon="-0.7146">
        <ele>159.72</ele>
        <time>2021-08-20T09:10:12Z</time>
      </trkpt>
      <trkpt lat="43.27216" lon="-0.71461">
        <ele>159.72</ele>
        <time>2021-08-20T09:10:13Z</time>
      </trkpt>
      <trkpt lat="43.27192" lon="-0.71474">
        <ele>160.68</ele>
        <time>2021-08-20T09:10:20Z</time>
      </trkpt>
      <trkpt lat="43.27189" lon="-0.71477">
        <ele>160.68</ele>
        <time>2021-08-20T09:10:21Z</time>
      </trkpt>
      <trkpt lat="43.27185" lon="-0.7148">
        <ele>160.68</ele>
        <time>2021-08-20T09:10:22Z</time>
      </trkpt>
      <trkpt lat="43.27182" lon="-0.71483">
        <ele>160.68</ele>
        <time>2021-08-20T09:10:23Z</time>
      </trkpt>
      <trkpt lat="43.27178" lon="-0.71488">
        <ele>160.68</ele>
        <time>2021-08-20T09:10:24Z</time>
      </trkpt>
      <trkpt lat="43.27176" lon="-0.71491">
        <ele>161.64</ele>
        <time>2021-08-20T09:10:25Z</time>
      </trkpt>
      <trkpt lat="43.27173" lon="-0.71495">
        <ele>161.64</ele>
        <time>2021-08-20T09:10:26Z</time>
      </trkpt>
      <trkpt lat="43.27161" lon="-0.71521">
        <ele>162.12</ele>
        <time>2021-08-20T09:10:34Z</time>
      </trkpt>
      <trkpt lat="43.27161" lon="-0.71525">
        <ele>162.12</ele>
        <time>2021-08-20T09:10:35Z</time>
      </trkpt>
      <trkpt lat="43.27161" lon="-0.71529">
        <ele>162.12</ele>
        <time>2021-08-20T09:10:36Z</time>
      </trkpt>
      <trkpt lat="43.27163" lon="-0.71533">
        <ele>162.12</ele>
        <time>2021-08-20T09:10:37Z</time>
      </trkpt>
      <trkpt lat="43.27165" lon="-0.71537">
        <ele>162.12</ele>
        <time>2021-08-20T09:10:38Z</time>
      </trkpt>
      <trkpt lat="43.27168" lon="-0.7154">
        <ele>162.12</ele>
        <time>2021-08-20T09:10:39Z</time>
      </trkpt>
      <trkpt lat="43.27172" lon="-0.71545">
        <ele>162.12</ele>
        <time>2021-08-20T09:10:40Z</time>
      </trkpt>
      <trkpt lat="43.27175" lon="-0.71549">
        <ele>162.12</ele>
        <time>2021-08-20T09:10:41Z</time>
      </trkpt>
      <trkpt lat="43.27178" lon="-0.71555">
        <ele>162.12</ele>
        <time>2021-08-20T09:10:42Z</time>
      </trkpt>
      <trkpt lat="43.27211" lon="-0.71604">
        <ele>160.68</ele>
        <time>2021-08-20T09:10:51Z</time>
      </trkpt>
      <trkpt lat="43.27245" lon="-0.71649">
        <ele>158.27</ele>
        <time>2021-08-20T09:10:58Z</time>
      </trkpt>
      <trkpt lat="43.2726" lon="-0.71668">
        <ele>157.79</ele>
        <time>2021-08-20T09:11:01Z</time>
      </trkpt>
      <trkpt lat="43.27267" lon="-0.71673">
        <ele>157.79</ele>
        <time>2021-08-20T09:11:02Z</time>
      </trkpt>
      <trkpt lat="43.27312" lon="-0.71696">
        <ele>159.24</ele>
        <time>2021-08-20T09:11:09Z</time>
      </trkpt>
      <trkpt lat="43.27317" lon="-0.71699">
        <ele>159.24</ele>
        <time>2021-08-20T09:11:10Z</time>
      </trkpt>
      <trkpt lat="43.27359" lon="-0.71721">
        <ele>160.68</ele>
        <time>2021-08-20T09:11:18Z</time>
      </trkpt>
      <trkpt lat="43.27365" lon="-0.71722">
        <ele>160.68</ele>
        <time>2021-08-20T09:11:19Z</time>
      </trkpt>
      <trkpt lat="43.2737" lon="-0.71721">
        <ele>160.68</ele>
        <time>2021-08-20T09:11:20Z</time>
      </trkpt>
      <trkpt lat="43.27375" lon="-0.7172">
        <ele>160.68</ele>
        <time>2021-08-20T09:11:21Z</time>
      </trkpt>
      <trkpt lat="43.27381" lon="-0.71718">
        <ele>160.68</ele>
        <time>2021-08-20T09:11:22Z</time>
      </trkpt>
      <trkpt lat="43.27407" lon="-0.71709">
        <ele>161.16</ele>
        <time>2021-08-20T09:11:27Z</time>
      </trkpt>
      <trkpt lat="43.27412" lon="-0.71709">
        <ele>161.16</ele>
        <time>2021-08-20T09:11:28Z</time>
      </trkpt>
      <trkpt lat="43.27417" lon="-0.71711">
        <ele>161.16</ele>
        <time>2021-08-20T09:11:29Z</time>
      </trkpt>
      <trkpt lat="43.27422" lon="-0.71713">
        <ele>161.16</ele>
        <time>2021-08-20T09:11:30Z</time>
      </trkpt>
      <trkpt lat="43.27427" lon="-0.71717">
        <ele>161.16</ele>
        <time>2021-08-20T09:11:31Z</time>
      </trkpt>
      <trkpt lat="43.27431" lon="-0.71722">
        <ele>161.16</ele>
        <time>2021-08-20T09:11:32Z</time>
      </trkpt>
      <trkpt lat="43.27435" lon="-0.71727">
        <ele>161.64</ele>
        <time>2021-08-20T09:11:33Z</time>
      </trkpt>
      <trkpt lat="43.27466" lon="-0.71766">
        <ele>162.12</ele>
        <time>2021-08-20T09:11:41Z</time>
      </trkpt>
      <trkpt lat="43.27471" lon="-0.7177">
        <ele>162.6</ele>
        <time>2021-08-20T09:11:42Z</time>
      </trkpt>
      <trkpt lat="43.27492" lon="-0.7178">
        <ele>162.6</ele>
        <time>2021-08-20T09:11:46Z</time>
      </trkpt>
      <trkpt lat="43.27497" lon="-0.71779">
        <ele>162.6</ele>
        <time>2021-08-20T09:11:47Z</time>
      </trkpt>
      <trkpt lat="43.27502" lon="-0.71777">
        <ele>162.6</ele>
        <time>2021-08-20T09:11:48Z</time>
      </trkpt>
      <trkpt lat="43.27543" lon="-0.71757">
        <ele>163.08</ele>
        <time>2021-08-20T09:11:56Z</time>
      </trkpt>
      <trkpt lat="43.27549" lon="-0.71756">
        <ele>163.08</ele>
        <time>2021-08-20T09:11:57Z</time>
      </trkpt>
      <trkpt lat="43.27554" lon="-0.71756">
        <ele>163.08</ele>
        <time>2021-08-20T09:11:58Z</time>
      </trkpt>
      <trkpt lat="43.27558" lon="-0.71756">
        <ele>163.08</ele>
        <time>2021-08-20T09:11:59Z</time>
      </trkpt>
      <trkpt lat="43.27563" lon="-0.71758">
        <ele>163.08</ele>
        <time>2021-08-20T09:12:00Z</time>
      </trkpt>
      <trkpt lat="43.27567" lon="-0.71762">
        <ele>163.08</ele>
        <time>2021-08-20T09:12:01Z</time>
      </trkpt>
      <trkpt lat="43.27571" lon="-0.71767">
        <ele>163.08</ele>
        <time>2021-08-20T09:12:02Z</time>
      </trkpt>
      <trkpt lat="43.27574" lon="-0.71773">
        <ele>163.08</ele>
        <time>2021-08-20T09:12:03Z</time>
      </trkpt>
      <trkpt lat="43.27586" lon="-0.71796">
        <ele>163.08</ele>
        <time>2021-08-20T09:12:07Z</time>
      </trkpt>
      <trkpt lat="43.27588" lon="-0.71803">
        <ele>163.08</ele>
        <time>2021-08-20T09:12:08Z</time>
      </trkpt>
      <trkpt lat="43.27595" lon="-0.71833">
        <ele>163.08</ele>
        <time>2021-08-20T09:12:12Z</time>
      </trkpt>
      <trkpt lat="43.27598" lon="-0.7184">
        <ele>163.08</ele>
        <time>2021-08-20T09:12:13Z</time>
      </trkpt>
      <trkpt lat="43.27601" lon="-0.71847">
        <ele>163.08</ele>
        <time>2021-08-20T09:12:14Z</time>
      </trkpt>
      <trkpt lat="43.27637" lon="-0.71907">
        <ele>163.08</ele>
        <time>2021-08-20T09:12:23Z</time>
      </trkpt>
      <trkpt lat="43.27647" lon="-0.71918">
        <ele>163.08</ele>
        <time>2021-08-20T09:12:25Z</time>
      </trkpt>
      <trkpt lat="43.27653" lon="-0.71923">
        <ele>163.08</ele>
        <time>2021-08-20T09:12:26Z</time>
      </trkpt>
      <trkpt lat="43.27701" lon="-0.71957">
        <ele>162.12</ele>
        <time>2021-08-20T09:12:34Z</time>
      </trkpt>
      <trkpt lat="43.27733" lon="-0.71977">
        <ele>162.12</ele>
        <time>2021-08-20T09:12:39Z</time>
      </trkpt>
      <trkpt lat="43.27739" lon="-0.71982">
        <ele>162.12</ele>
        <time>2021-08-20T09:12:40Z</time>
      </trkpt>
      <trkpt lat="43.27789" lon="-0.72033">
        <ele>161.64</ele>
        <time>2021-08-20T09:12:50Z</time>
      </trkpt>
      <trkpt lat="43.27793" lon="-0.72037">
        <ele>161.64</ele>
        <time>2021-08-20T09:12:51Z</time>
      </trkpt>
      <trkpt lat="43.27798" lon="-0.72042">
        <ele>161.64</ele>
        <time>2021-08-20T09:12:52Z</time>
      </trkpt>
      <trkpt lat="43.27837" lon="-0.72065">
        <ele>161.16</ele>
        <time>2021-08-20T09:12:59Z</time>
      </trkpt>
      <trkpt lat="43.27883" lon="-0.72089">
        <ele>160.68</ele>
        <time>2021-08-20T09:13:07Z</time>
      </trkpt>
      <trkpt lat="43.27915" lon="-0.72111">
        <ele>160.68</ele>
        <time>2021-08-20T09:13:13Z</time>
      </trkpt>
      <trkpt lat="43.27961" lon="-0.72136">
        <ele>160.68</ele>
        <time>2021-08-20T09:13:22Z</time>
      </trkpt>
      <trkpt lat="43.27975" lon="-0.72143">
        <ele>160.68</ele>
        <time>2021-08-20T09:13:25Z</time>
      </trkpt>
      <trkpt lat="43.28018" lon="-0.72175">
        <ele>160.68</ele>
        <time>2021-08-20T09:13:34Z</time>
      </trkpt>
      <trkpt lat="43.2805" lon="-0.72213">
        <ele>160.68</ele>
        <time>2021-08-20T09:13:41Z</time>
      </trkpt>
      <trkpt lat="43.28053" lon="-0.7222">
        <ele>160.68</ele>
        <time>2021-08-20T09:13:42Z</time>
      </trkpt>
      <trkpt lat="43.2809" lon="-0.72278">
        <ele>160.68</ele>
        <time>2021-08-20T09:13:51Z</time>
      </trkpt>
      <trkpt lat="43.28131" lon="-0.7233">
        <ele>160.68</ele>
        <time>2021-08-20T09:14:00Z</time>
      </trkpt>
      <trkpt lat="43.28155" lon="-0.72365">
        <ele>160.68</ele>
        <time>2021-08-20T09:14:06Z</time>
      </trkpt>
      <trkpt lat="43.2816" lon="-0.7237">
        <ele>160.68</ele>
        <time>2021-08-20T09:14:07Z</time>
      </trkpt>
      <trkpt lat="43.282" lon="-0.72419">
        <ele>160.68</ele>
        <time>2021-08-20T09:14:16Z</time>
      </trkpt>
      <trkpt lat="43.28244" lon="-0.72475">
        <ele>160.2</ele>
        <time>2021-08-20T09:14:25Z</time>
      </trkpt>
      <trkpt lat="43.28279" lon="-0.72516">
        <ele>161.16</ele>
        <time>2021-08-20T09:14:32Z</time>
      </trkpt>
      <trkpt lat="43.2832" lon="-0.72574">
        <ele>161.16</ele>
        <time>2021-08-20T09:14:41Z</time>
      </trkpt>
      <trkpt lat="43.28365" lon="-0.72635">
        <ele>161.16</ele>
        <time>2021-08-20T09:14:50Z</time>
      </trkpt>
      <trkpt lat="43.28389" lon="-0.72668">
        <ele>159.72</ele>
        <time>2021-08-20T09:14:55Z</time>
      </trkpt>
      <trkpt lat="43.28433" lon="-0.72726">
        <ele>159.72</ele>
        <time>2021-08-20T09:15:04Z</time>
      </trkpt>
      <trkpt lat="43.28437" lon="-0.72733">
        <ele>159.72</ele>
        <time>2021-08-20T09:15:05Z</time>
      </trkpt>
      <trkpt lat="43.28441" lon="-0.72742">
        <ele>159.72</ele>
        <time>2021-08-20T09:15:06Z</time>
      </trkpt>
      <trkpt lat="43.28444" lon="-0.7275">
        <ele>159.72</ele>
        <time>2021-08-20T09:15:07Z</time>
      </trkpt>
      <trkpt lat="43.28447" lon="-0.72759">
        <ele>159.72</ele>
        <time>2021-08-20T09:15:08Z</time>
      </trkpt>
      <trkpt lat="43.28454" lon="-0.72776">
        <ele>159.72</ele>
        <time>2021-08-20T09:15:10Z</time>
      </trkpt>
      <trkpt lat="43.28459" lon="-0.72784">
        <ele>159.72</ele>
        <time>2021-08-20T09:15:11Z</time>
      </trkpt>
      <trkpt lat="43.28464" lon="-0.72792">
        <ele>159.24</ele>
        <time>2021-08-20T09:15:12Z</time>
      </trkpt>
      <trkpt lat="43.28469" lon="-0.72798">
        <ele>159.24</ele>
        <time>2021-08-20T09:15:13Z</time>
      </trkpt>
      <trkpt lat="43.28476" lon="-0.72805">
        <ele>159.24</ele>
        <time>2021-08-20T09:15:14Z</time>
      </trkpt>
      <trkpt lat="43.28481" lon="-0.72812">
        <ele>159.24</ele>
        <time>2021-08-20T09:15:15Z</time>
      </trkpt>
      <trkpt lat="43.28522" lon="-0.7286">
        <ele>159.24</ele>
        <time>2021-08-20T09:15:23Z</time>
      </trkpt>
      <trkpt lat="43.28566" lon="-0.72899">
        <ele>158.75</ele>
        <time>2021-08-20T09:15:31Z</time>
      </trkpt>
      <trkpt lat="43.28583" lon="-0.72917">
        <ele>158.75</ele>
        <time>2021-08-20T09:15:34Z</time>
      </trkpt>
      <trkpt lat="43.28588" lon="-0.72924">
        <ele>158.27</ele>
        <time>2021-08-20T09:15:35Z</time>
      </trkpt>
      <trkpt lat="43.28593" lon="-0.72932">
        <ele>158.27</ele>
        <time>2021-08-20T09:15:36Z</time>
      </trkpt>
      <trkpt lat="43.2863" lon="-0.72972">
        <ele>157.79</ele>
        <time>2021-08-20T09:15:43Z</time>
      </trkpt>
      <trkpt lat="43.28675" lon="-0.73003">
        <ele>157.79</ele>
        <time>2021-08-20T09:15:51Z</time>
      </trkpt>
      <trkpt lat="43.28722" lon="-0.73036">
        <ele>157.79</ele>
        <time>2021-08-20T09:16:00Z</time>
      </trkpt>
      <trkpt lat="43.28741" lon="-0.73056">
        <ele>158.75</ele>
        <time>2021-08-20T09:16:04Z</time>
      </trkpt>
      <trkpt lat="43.28744" lon="-0.73063">
        <ele>158.75</ele>
        <time>2021-08-20T09:16:05Z</time>
      </trkpt>
      <trkpt lat="43.28765" lon="-0.73123">
        <ele>159.24</ele>
        <time>2021-08-20T09:16:13Z</time>
      </trkpt>
      <trkpt lat="43.28793" lon="-0.73194">
        <ele>159.24</ele>
        <time>2021-08-20T09:16:22Z</time>
      </trkpt>
      <trkpt lat="43.28801" lon="-0.7322">
        <ele>157.79</ele>
        <time>2021-08-20T09:16:25Z</time>
      </trkpt>
      <trkpt lat="43.28824" lon="-0.73276">
        <ele>157.31</ele>
        <time>2021-08-20T09:16:32Z</time>
      </trkpt>
      <trkpt lat="43.28827" lon="-0.73293">
        <ele>157.31</ele>
        <time>2021-08-20T09:16:34Z</time>
      </trkpt>
      <trkpt lat="43.28828" lon="-0.73302">
        <ele>156.83</ele>
        <time>2021-08-20T09:16:35Z</time>
      </trkpt>
      <trkpt lat="43.28828" lon="-0.7331">
        <ele>156.83</ele>
        <time>2021-08-20T09:16:36Z</time>
      </trkpt>
      <trkpt lat="43.28827" lon="-0.73336">
        <ele>156.83</ele>
        <time>2021-08-20T09:16:39Z</time>
      </trkpt>
      <trkpt lat="43.28832" lon="-0.73422">
        <ele>156.83</ele>
        <time>2021-08-20T09:16:49Z</time>
      </trkpt>
      <trkpt lat="43.28831" lon="-0.73443">
        <ele>156.83</ele>
        <time>2021-08-20T09:16:52Z</time>
      </trkpt>
      <trkpt lat="43.2883" lon="-0.73449">
        <ele>156.83</ele>
        <time>2021-08-20T09:16:53Z</time>
      </trkpt>
      <trkpt lat="43.28826" lon="-0.73454">
        <ele>156.83</ele>
        <time>2021-08-20T09:16:54Z</time>
      </trkpt>
      <trkpt lat="43.28823" lon="-0.73459">
        <ele>156.83</ele>
        <time>2021-08-20T09:16:55Z</time>
      </trkpt>
      <trkpt lat="43.2882" lon="-0.73465">
        <ele>156.83</ele>
        <time>2021-08-20T09:16:56Z</time>
      </trkpt>
      <trkpt lat="43.28818" lon="-0.73471">
        <ele>156.83</ele>
        <time>2021-08-20T09:16:57Z</time>
      </trkpt>
      <trkpt lat="43.28817" lon="-0.73479">
        <ele>156.83</ele>
        <time>2021-08-20T09:16:58Z</time>
      </trkpt>
      <trkpt lat="43.28816" lon="-0.73486">
        <ele>156.83</ele>
        <time>2021-08-20T09:16:59Z</time>
      </trkpt>
      <trkpt lat="43.28816" lon="-0.73501">
        <ele>156.83</ele>
        <time>2021-08-20T09:17:01Z</time>
      </trkpt>
      <trkpt lat="43.28819" lon="-0.73534">
        <ele>156.35</ele>
        <time>2021-08-20T09:17:05Z</time>
      </trkpt>
      <trkpt lat="43.28819" lon="-0.73543">
        <ele>156.35</ele>
        <time>2021-08-20T09:17:06Z</time>
      </trkpt>
      <trkpt lat="43.28819" lon="-0.73552">
        <ele>156.35</ele>
        <time>2021-08-20T09:17:07Z</time>
      </trkpt>
      <trkpt lat="43.28818" lon="-0.73636">
        <ele>155.39</ele>
        <time>2021-08-20T09:17:16Z</time>
      </trkpt>
      <trkpt lat="43.28827" lon="-0.73716">
        <ele>154.43</ele>
        <time>2021-08-20T09:17:24Z</time>
      </trkpt>
      <trkpt lat="43.28842" lon="-0.7381">
        <ele>153.95</ele>
        <time>2021-08-20T09:17:33Z</time>
      </trkpt>
      <trkpt lat="43.28859" lon="-0.73912">
        <ele>153.95</ele>
        <time>2021-08-20T09:17:43Z</time>
      </trkpt>
      <trkpt lat="43.28883" lon="-0.74006">
        <ele>153.47</ele>
        <time>2021-08-20T09:17:53Z</time>
      </trkpt>
      <trkpt lat="43.28911" lon="-0.74097">
        <ele>152.99</ele>
        <time>2021-08-20T09:18:03Z</time>
      </trkpt>
      <trkpt lat="43.28927" lon="-0.74152">
        <ele>152.99</ele>
        <time>2021-08-20T09:18:10Z</time>
      </trkpt>
      <trkpt lat="43.2893" lon="-0.74205">
        <ele>152.99</ele>
        <time>2021-08-20T09:18:17Z</time>
      </trkpt>
      <trkpt lat="43.28929" lon="-0.74221">
        <ele>152.99</ele>
        <time>2021-08-20T09:18:19Z</time>
      </trkpt>
      <trkpt lat="43.28921" lon="-0.74263">
        <ele>152.99</ele>
        <time>2021-08-20T09:18:25Z</time>
      </trkpt>
      <trkpt lat="43.28921" lon="-0.74269">
        <ele>152.99</ele>
        <time>2021-08-20T09:18:26Z</time>
      </trkpt>
      <trkpt lat="43.28923" lon="-0.74275">
        <ele>152.99</ele>
        <time>2021-08-20T09:18:27Z</time>
      </trkpt>
      <trkpt lat="43.28926" lon="-0.74279">
        <ele>152.99</ele>
        <time>2021-08-20T09:18:28Z</time>
      </trkpt>
      <trkpt lat="43.2893" lon="-0.74281">
        <ele>152.99</ele>
        <time>2021-08-20T09:18:29Z</time>
      </trkpt>
      <trkpt lat="43.28935" lon="-0.74284">
        <ele>152.99</ele>
        <time>2021-08-20T09:18:30Z</time>
      </trkpt>
      <trkpt lat="43.2894" lon="-0.74286">
        <ele>152.99</ele>
        <time>2021-08-20T09:18:31Z</time>
      </trkpt>
      <trkpt lat="43.28944" lon="-0.74288">
        <ele>152.99</ele>
        <time>2021-08-20T09:18:32Z</time>
      </trkpt>
      <trkpt lat="43.28948" lon="-0.74292">
        <ele>152.99</ele>
        <time>2021-08-20T09:18:33Z</time>
      </trkpt>
      <trkpt lat="43.28953" lon="-0.74299">
        <ele>152.99</ele>
        <time>2021-08-20T09:18:34Z</time>
      </trkpt>
      <trkpt lat="43.28956" lon="-0.74304">
        <ele>152.51</ele>
        <time>2021-08-20T09:18:35Z</time>
      </trkpt>
      <trkpt lat="43.28959" lon="-0.74312">
        <ele>152.99</ele>
        <time>2021-08-20T09:18:36Z</time>
      </trkpt>
      <trkpt lat="43.28962" lon="-0.74318">
        <ele>152.03</ele>
        <time>2021-08-20T09:18:37Z</time>
      </trkpt>
      <trkpt lat="43.28991" lon="-0.74378">
        <ele>152.03</ele>
        <time>2021-08-20T09:18:46Z</time>
      </trkpt>
      <trkpt lat="43.28996" lon="-0.74382">
        <ele>152.03</ele>
        <time>2021-08-20T09:18:47Z</time>
      </trkpt>
      <trkpt lat="43.29001" lon="-0.74385">
        <ele>152.03</ele>
        <time>2021-08-20T09:18:48Z</time>
      </trkpt>
      <trkpt lat="43.29007" lon="-0.74385">
        <ele>152.03</ele>
        <time>2021-08-20T09:18:49Z</time>
      </trkpt>
      <trkpt lat="43.29014" lon="-0.74383">
        <ele>151.54</ele>
        <time>2021-08-20T09:18:50Z</time>
      </trkpt>
      <trkpt lat="43.29019" lon="-0.74381">
        <ele>151.54</ele>
        <time>2021-08-20T09:18:51Z</time>
      </trkpt>
      <trkpt lat="43.29024" lon="-0.74377">
        <ele>151.54</ele>
        <time>2021-08-20T09:18:52Z</time>
      </trkpt>
      <trkpt lat="43.29028" lon="-0.74373">
        <ele>151.54</ele>
        <time>2021-08-20T09:18:53Z</time>
      </trkpt>
      <trkpt lat="43.29033" lon="-0.7437">
        <ele>151.54</ele>
        <time>2021-08-20T09:18:54Z</time>
      </trkpt>
      <trkpt lat="43.29037" lon="-0.74371">
        <ele>151.54</ele>
        <time>2021-08-20T09:18:55Z</time>
      </trkpt>
      <trkpt lat="43.29041" lon="-0.74375">
        <ele>151.54</ele>
        <time>2021-08-20T09:18:56Z</time>
      </trkpt>
      <trkpt lat="43.29063" lon="-0.74399">
        <ele>151.54</ele>
        <time>2021-08-20T09:19:02Z</time>
      </trkpt>
      <trkpt lat="43.29068" lon="-0.74403">
        <ele>151.54</ele>
        <time>2021-08-20T09:19:03Z</time>
      </trkpt>
      <trkpt lat="43.29087" lon="-0.74418">
        <ele>151.54</ele>
        <time>2021-08-20T09:19:07Z</time>
      </trkpt>
      <trkpt lat="43.29128" lon="-0.7446">
        <ele>151.54</ele>
        <time>2021-08-20T09:19:16Z</time>
      </trkpt>
      <trkpt lat="43.29133" lon="-0.74464">
        <ele>151.54</ele>
        <time>2021-08-20T09:19:17Z</time>
      </trkpt>
      <trkpt lat="43.29138" lon="-0.74467">
        <ele>151.54</ele>
        <time>2021-08-20T09:19:18Z</time>
      </trkpt>
      <trkpt lat="43.29144" lon="-0.74469">
        <ele>151.54</ele>
        <time>2021-08-20T09:19:19Z</time>
      </trkpt>
      <trkpt lat="43.29171" lon="-0.74477">
        <ele>151.54</ele>
        <time>2021-08-20T09:19:24Z</time>
      </trkpt>
      <trkpt lat="43.29177" lon="-0.74477">
        <ele>151.54</ele>
        <time>2021-08-20T09:19:25Z</time>
      </trkpt>
      <trkpt lat="43.29182" lon="-0.74475">
        <ele>151.54</ele>
        <time>2021-08-20T09:19:26Z</time>
      </trkpt>
      <trkpt lat="43.29228" lon="-0.74456">
        <ele>151.54</ele>
        <time>2021-08-20T09:19:34Z</time>
      </trkpt>
      <trkpt lat="43.29284" lon="-0.74428">
        <ele>151.06</ele>
        <time>2021-08-20T09:19:43Z</time>
      </trkpt>
      <trkpt lat="43.29339" lon="-0.74396">
        <ele>150.1</ele>
        <time>2021-08-20T09:19:52Z</time>
      </trkpt>
      <trkpt lat="43.29404" lon="-0.74347">
        <ele>149.62</ele>
        <time>2021-08-20T09:20:03Z</time>
      </trkpt>
      <trkpt lat="43.29457" lon="-0.74315">
        <ele>149.62</ele>
        <time>2021-08-20T09:20:12Z</time>
      </trkpt>
      <trkpt lat="43.29468" lon="-0.74307">
        <ele>149.62</ele>
        <time>2021-08-20T09:20:14Z</time>
      </trkpt>
      <trkpt lat="43.29518" lon="-0.74281">
        <ele>149.62</ele>
        <time>2021-08-20T09:20:22Z</time>
      </trkpt>
      <trkpt lat="43.29587" lon="-0.74238">
        <ele>149.14</ele>
        <time>2021-08-20T09:20:33Z</time>
      </trkpt>
      <trkpt lat="43.29635" lon="-0.74192">
        <ele>149.14</ele>
        <time>2021-08-20T09:20:42Z</time>
      </trkpt>
      <trkpt lat="43.29666" lon="-0.74161">
        <ele>150.1</ele>
        <time>2021-08-20T09:20:49Z</time>
      </trkpt>
      <trkpt lat="43.29697" lon="-0.74147">
        <ele>151.54</ele>
        <time>2021-08-20T09:20:56Z</time>
      </trkpt>
      <trkpt lat="43.29701" lon="-0.74145">
        <ele>151.54</ele>
        <time>2021-08-20T09:20:57Z</time>
      </trkpt>
      <trkpt lat="43.29745" lon="-0.74123">
        <ele>152.03</ele>
        <time>2021-08-20T09:21:07Z</time>
      </trkpt>
      <trkpt lat="43.29755" lon="-0.74119">
        <ele>152.51</ele>
        <time>2021-08-20T09:21:09Z</time>
      </trkpt>
      <trkpt lat="43.29778" lon="-0.74113">
        <ele>152.99</ele>
        <time>2021-08-20T09:21:14Z</time>
      </trkpt>
      <trkpt lat="43.29782" lon="-0.74113">
        <ele>152.99</ele>
        <time>2021-08-20T09:21:15Z</time>
      </trkpt>
      <trkpt lat="43.29796" lon="-0.74116">
        <ele>152.99</ele>
        <time>2021-08-20T09:21:18Z</time>
      </trkpt>
      <trkpt lat="43.2981" lon="-0.74123">
        <ele>152.99</ele>
        <time>2021-08-20T09:21:21Z</time>
      </trkpt>
      <trkpt lat="43.29816" lon="-0.74124">
        <ele>152.99</ele>
        <time>2021-08-20T09:21:22Z</time>
      </trkpt>
      <trkpt lat="43.2987" lon="-0.74147">
        <ele>152.99</ele>
        <time>2021-08-20T09:21:32Z</time>
      </trkpt>
      <trkpt lat="43.29917" lon="-0.74171">
        <ele>152.99</ele>
        <time>2021-08-20T09:21:40Z</time>
      </trkpt>
      <trkpt lat="43.29968" lon="-0.74201">
        <ele>151.54</ele>
        <time>2021-08-20T09:21:49Z</time>
      </trkpt>
      <trkpt lat="43.29986" lon="-0.74209">
        <ele>151.54</ele>
        <time>2021-08-20T09:21:52Z</time>
      </trkpt>
      <trkpt lat="43.29997" lon="-0.74214">
        <ele>151.54</ele>
        <time>2021-08-20T09:21:54Z</time>
      </trkpt>
      <trkpt lat="43.30002" lon="-0.74216">
        <ele>151.54</ele>
        <time>2021-08-20T09:21:55Z</time>
      </trkpt>
      <trkpt lat="43.30025" lon="-0.74226">
        <ele>151.54</ele>
        <time>2021-08-20T09:21:59Z</time>
      </trkpt>
      <trkpt lat="43.30068" lon="-0.74236">
        <ele>151.54</ele>
        <time>2021-08-20T09:22:06Z</time>
      </trkpt>
      <trkpt lat="43.30079" lon="-0.7424">
        <ele>151.54</ele>
        <time>2021-08-20T09:22:08Z</time>
      </trkpt>
      <trkpt lat="43.30119" lon="-0.74263">
        <ele>150.58</ele>
        <time>2021-08-20T09:22:15Z</time>
      </trkpt>
      <trkpt lat="43.30158" lon="-0.74293">
        <ele>150.1</ele>
        <time>2021-08-20T09:22:22Z</time>
      </trkpt>
      <trkpt lat="43.30194" lon="-0.74326">
        <ele>150.1</ele>
        <time>2021-08-20T09:22:29Z</time>
      </trkpt>
      <trkpt lat="43.30199" lon="-0.74328">
        <ele>150.1</ele>
        <time>2021-08-20T09:22:30Z</time>
      </trkpt>
      <trkpt lat="43.30205" lon="-0.74329">
        <ele>150.1</ele>
        <time>2021-08-20T09:22:31Z</time>
      </trkpt>
      <trkpt lat="43.30211" lon="-0.7433">
        <ele>150.1</ele>
        <time>2021-08-20T09:22:32Z</time>
      </trkpt>
      <trkpt lat="43.30217" lon="-0.74332">
        <ele>150.1</ele>
        <time>2021-08-20T09:22:33Z</time>
      </trkpt>
      <trkpt lat="43.30222" lon="-0.74333">
        <ele>150.1</ele>
        <time>2021-08-20T09:22:34Z</time>
      </trkpt>
      <trkpt lat="43.30244" lon="-0.74338">
        <ele>150.1</ele>
        <time>2021-08-20T09:22:38Z</time>
      </trkpt>
      <trkpt lat="43.3025" lon="-0.74339">
        <ele>150.1</ele>
        <time>2021-08-20T09:22:39Z</time>
      </trkpt>
      <trkpt lat="43.30309" lon="-0.74346">
        <ele>150.1</ele>
        <time>2021-08-20T09:22:49Z</time>
      </trkpt>
      <trkpt lat="43.30365" lon="-0.74355">
        <ele>150.1</ele>
        <time>2021-08-20T09:22:59Z</time>
      </trkpt>
      <trkpt lat="43.30385" lon="-0.74362">
        <ele>150.1</ele>
        <time>2021-08-20T09:23:03Z</time>
      </trkpt>
      <trkpt lat="43.3039" lon="-0.74364">
        <ele>150.1</ele>
        <time>2021-08-20T09:23:04Z</time>
      </trkpt>
      <trkpt lat="43.30395" lon="-0.74367">
        <ele>150.1</ele>
        <time>2021-08-20T09:23:05Z</time>
      </trkpt>
      <trkpt lat="43.30399" lon="-0.7437">
        <ele>150.1</ele>
        <time>2021-08-20T09:23:06Z</time>
      </trkpt>
      <trkpt lat="43.30404" lon="-0.74374">
        <ele>150.1</ele>
        <time>2021-08-20T09:23:07Z</time>
      </trkpt>
      <trkpt lat="43.30408" lon="-0.74379">
        <ele>150.1</ele>
        <time>2021-08-20T09:23:08Z</time>
      </trkpt>
      <trkpt lat="43.30425" lon="-0.74391">
        <ele>150.1</ele>
        <time>2021-08-20T09:23:11Z</time>
      </trkpt>
      <trkpt lat="43.3043" lon="-0.74394">
        <ele>149.62</ele>
        <time>2021-08-20T09:23:12Z</time>
      </trkpt>
      <trkpt lat="43.30436" lon="-0.74396">
        <ele>149.62</ele>
        <time>2021-08-20T09:23:13Z</time>
      </trkpt>
      <trkpt lat="43.30443" lon="-0.74397">
        <ele>149.62</ele>
        <time>2021-08-20T09:23:14Z</time>
      </trkpt>
      <trkpt lat="43.3045" lon="-0.74397">
        <ele>149.62</ele>
        <time>2021-08-20T09:23:15Z</time>
      </trkpt>
      <trkpt lat="43.30456" lon="-0.74396">
        <ele>149.62</ele>
        <time>2021-08-20T09:23:16Z</time>
      </trkpt>
      <trkpt lat="43.30462" lon="-0.74394">
        <ele>149.62</ele>
        <time>2021-08-20T09:23:17Z</time>
      </trkpt>
      <trkpt lat="43.30468" lon="-0.74392">
        <ele>149.62</ele>
        <time>2021-08-20T09:23:18Z</time>
      </trkpt>
      <trkpt lat="43.305" lon="-0.7439">
        <ele>149.62</ele>
        <time>2021-08-20T09:23:23Z</time>
      </trkpt>
      <trkpt lat="43.30506" lon="-0.74392">
        <ele>149.62</ele>
        <time>2021-08-20T09:23:24Z</time>
      </trkpt>
      <trkpt lat="43.30513" lon="-0.74395">
        <ele>149.62</ele>
        <time>2021-08-20T09:23:25Z</time>
      </trkpt>
      <trkpt lat="43.30519" lon="-0.74398">
        <ele>149.62</ele>
        <time>2021-08-20T09:23:26Z</time>
      </trkpt>
      <trkpt lat="43.30525" lon="-0.74403">
        <ele>149.62</ele>
        <time>2021-08-20T09:23:27Z</time>
      </trkpt>
      <trkpt lat="43.3053" lon="-0.74408">
        <ele>149.62</ele>
        <time>2021-08-20T09:23:28Z</time>
      </trkpt>
      <trkpt lat="43.30548" lon="-0.74422">
        <ele>149.62</ele>
        <time>2021-08-20T09:23:31Z</time>
      </trkpt>
      <trkpt lat="43.30554" lon="-0.74426">
        <ele>149.62</ele>
        <time>2021-08-20T09:23:32Z</time>
      </trkpt>
      <trkpt lat="43.30562" lon="-0.7443">
        <ele>149.14</ele>
        <time>2021-08-20T09:23:33Z</time>
      </trkpt>
      <trkpt lat="43.30569" lon="-0.74431">
        <ele>148.66</ele>
        <time>2021-08-20T09:23:34Z</time>
      </trkpt>
      <trkpt lat="43.30577" lon="-0.74432">
        <ele>148.66</ele>
        <time>2021-08-20T09:23:35Z</time>
      </trkpt>
      <trkpt lat="43.30585" lon="-0.74431">
        <ele>148.18</ele>
        <time>2021-08-20T09:23:36Z</time>
      </trkpt>
      <trkpt lat="43.30593" lon="-0.7443">
        <ele>148.18</ele>
        <time>2021-08-20T09:23:37Z</time>
      </trkpt>
      <trkpt lat="43.30601" lon="-0.74427">
        <ele>148.18</ele>
        <time>2021-08-20T09:23:38Z</time>
      </trkpt>
      <trkpt lat="43.30643" lon="-0.74416">
        <ele>148.18</ele>
        <time>2021-08-20T09:23:44Z</time>
      </trkpt>
      <trkpt lat="43.3065" lon="-0.74416">
        <ele>148.18</ele>
        <time>2021-08-20T09:23:45Z</time>
      </trkpt>
      <trkpt lat="43.30657" lon="-0.74419">
        <ele>148.18</ele>
        <time>2021-08-20T09:23:46Z</time>
      </trkpt>
      <trkpt lat="43.30664" lon="-0.74423">
        <ele>148.18</ele>
        <time>2021-08-20T09:23:47Z</time>
      </trkpt>
      <trkpt lat="43.3067" lon="-0.74427">
        <ele>148.18</ele>
        <time>2021-08-20T09:23:48Z</time>
      </trkpt>
      <trkpt lat="43.30676" lon="-0.74432">
        <ele>148.18</ele>
        <time>2021-08-20T09:23:49Z</time>
      </trkpt>
      <trkpt lat="43.30692" lon="-0.74448">
        <ele>149.62</ele>
        <time>2021-08-20T09:23:52Z</time>
      </trkpt>
      <trkpt lat="43.30696" lon="-0.74454">
        <ele>149.62</ele>
        <time>2021-08-20T09:23:53Z</time>
      </trkpt>
      <trkpt lat="43.30729" lon="-0.74515">
        <ele>150.1</ele>
        <time>2021-08-20T09:24:02Z</time>
      </trkpt>
      <trkpt lat="43.30751" lon="-0.74547">
        <ele>149.62</ele>
        <time>2021-08-20T09:24:07Z</time>
      </trkpt>
      <trkpt lat="43.30756" lon="-0.74552">
        <ele>149.62</ele>
        <time>2021-08-20T09:24:08Z</time>
      </trkpt>
      <trkpt lat="43.30779" lon="-0.74567">
        <ele>149.62</ele>
        <time>2021-08-20T09:24:12Z</time>
      </trkpt>
      <trkpt lat="43.30805" lon="-0.74575">
        <ele>148.18</ele>
        <time>2021-08-20T09:24:16Z</time>
      </trkpt>
      <trkpt lat="43.30835" lon="-0.74582">
        <ele>149.62</ele>
        <time>2021-08-20T09:24:21Z</time>
      </trkpt>
      <trkpt lat="43.30841" lon="-0.74584">
        <ele>149.62</ele>
        <time>2021-08-20T09:24:22Z</time>
      </trkpt>
      <trkpt lat="43.30869" lon="-0.74598">
        <ele>149.62</ele>
        <time>2021-08-20T09:24:27Z</time>
      </trkpt>
      <trkpt lat="43.30874" lon="-0.74603">
        <ele>149.62</ele>
        <time>2021-08-20T09:24:28Z</time>
      </trkpt>
      <trkpt lat="43.30879" lon="-0.74607">
        <ele>149.62</ele>
        <time>2021-08-20T09:24:29Z</time>
      </trkpt>
      <trkpt lat="43.30896" lon="-0.74627">
        <ele>149.62</ele>
        <time>2021-08-20T09:24:33Z</time>
      </trkpt>
      <trkpt lat="43.309" lon="-0.74631">
        <ele>149.62</ele>
        <time>2021-08-20T09:24:34Z</time>
      </trkpt>
      <trkpt lat="43.30906" lon="-0.74633">
        <ele>149.62</ele>
        <time>2021-08-20T09:24:35Z</time>
      </trkpt>
      <trkpt lat="43.30912" lon="-0.74633">
        <ele>148.18</ele>
        <time>2021-08-20T09:24:36Z</time>
      </trkpt>
      <trkpt lat="43.30917" lon="-0.74631">
        <ele>148.18</ele>
        <time>2021-08-20T09:24:37Z</time>
      </trkpt>
      <trkpt lat="43.30922" lon="-0.74628">
        <ele>148.18</ele>
        <time>2021-08-20T09:24:38Z</time>
      </trkpt>
      <trkpt lat="43.30926" lon="-0.74622">
        <ele>148.18</ele>
        <time>2021-08-20T09:24:39Z</time>
      </trkpt>
      <trkpt lat="43.3093" lon="-0.74616">
        <ele>148.18</ele>
        <time>2021-08-20T09:24:40Z</time>
      </trkpt>
      <trkpt lat="43.30932" lon="-0.74609">
        <ele>147.7</ele>
        <time>2021-08-20T09:24:41Z</time>
      </trkpt>
      <trkpt lat="43.30935" lon="-0.74601">
        <ele>147.7</ele>
        <time>2021-08-20T09:24:42Z</time>
      </trkpt>
      <trkpt lat="43.30937" lon="-0.74594">
        <ele>147.7</ele>
        <time>2021-08-20T09:24:43Z</time>
      </trkpt>
      <trkpt lat="43.30942" lon="-0.74582">
        <ele>147.7</ele>
        <time>2021-08-20T09:24:45Z</time>
      </trkpt>
      <trkpt lat="43.30946" lon="-0.74577">
        <ele>147.7</ele>
        <time>2021-08-20T09:24:46Z</time>
      </trkpt>
      <trkpt lat="43.3095" lon="-0.74574">
        <ele>147.7</ele>
        <time>2021-08-20T09:24:47Z</time>
      </trkpt>
      <trkpt lat="43.30955" lon="-0.74574">
        <ele>147.7</ele>
        <time>2021-08-20T09:24:48Z</time>
      </trkpt>
      <trkpt lat="43.3096" lon="-0.74574">
        <ele>147.7</ele>
        <time>2021-08-20T09:24:49Z</time>
      </trkpt>
      <trkpt lat="43.30965" lon="-0.74576">
        <ele>147.7</ele>
        <time>2021-08-20T09:24:50Z</time>
      </trkpt>
      <trkpt lat="43.3097" lon="-0.74579">
        <ele>147.7</ele>
        <time>2021-08-20T09:24:51Z</time>
      </trkpt>
      <trkpt lat="43.30974" lon="-0.74585">
        <ele>147.7</ele>
        <time>2021-08-20T09:24:52Z</time>
      </trkpt>
      <trkpt lat="43.30977" lon="-0.74591">
        <ele>147.7</ele>
        <time>2021-08-20T09:24:53Z</time>
      </trkpt>
      <trkpt lat="43.3098" lon="-0.74598">
        <ele>147.7</ele>
        <time>2021-08-20T09:24:54Z</time>
      </trkpt>
      <trkpt lat="43.30982" lon="-0.74605">
        <ele>147.7</ele>
        <time>2021-08-20T09:24:55Z</time>
      </trkpt>
      <trkpt lat="43.31003" lon="-0.74663">
        <ele>147.22</ele>
        <time>2021-08-20T09:25:02Z</time>
      </trkpt>
      <trkpt lat="43.31008" lon="-0.74669">
        <ele>147.22</ele>
        <time>2021-08-20T09:25:03Z</time>
      </trkpt>
      <trkpt lat="43.31013" lon="-0.74675">
        <ele>147.22</ele>
        <time>2021-08-20T09:25:04Z</time>
      </trkpt>
      <trkpt lat="43.3102" lon="-0.74679">
        <ele>147.22</ele>
        <time>2021-08-20T09:25:05Z</time>
      </trkpt>
      <trkpt lat="43.31025" lon="-0.74681">
        <ele>147.22</ele>
        <time>2021-08-20T09:25:06Z</time>
      </trkpt>
      <trkpt lat="43.31065" lon="-0.74695">
        <ele>146.74</ele>
        <time>2021-08-20T09:25:12Z</time>
      </trkpt>
      <trkpt lat="43.31087" lon="-0.74695">
        <ele>146.74</ele>
        <time>2021-08-20T09:25:15Z</time>
      </trkpt>
      <trkpt lat="43.31094" lon="-0.74693">
        <ele>146.74</ele>
        <time>2021-08-20T09:25:16Z</time>
      </trkpt>
      <trkpt lat="43.311" lon="-0.74689">
        <ele>146.74</ele>
        <time>2021-08-20T09:25:17Z</time>
      </trkpt>
      <trkpt lat="43.31107" lon="-0.74686">
        <ele>146.74</ele>
        <time>2021-08-20T09:25:18Z</time>
      </trkpt>
      <trkpt lat="43.31114" lon="-0.74684">
        <ele>146.26</ele>
        <time>2021-08-20T09:25:19Z</time>
      </trkpt>
      <trkpt lat="43.3112" lon="-0.74683">
        <ele>146.26</ele>
        <time>2021-08-20T09:25:20Z</time>
      </trkpt>
      <trkpt lat="43.31126" lon="-0.74684">
        <ele>146.26</ele>
        <time>2021-08-20T09:25:21Z</time>
      </trkpt>
      <trkpt lat="43.31132" lon="-0.74688">
        <ele>146.26</ele>
        <time>2021-08-20T09:25:22Z</time>
      </trkpt>
      <trkpt lat="43.31138" lon="-0.74692">
        <ele>146.26</ele>
        <time>2021-08-20T09:25:23Z</time>
      </trkpt>
      <trkpt lat="43.3119" lon="-0.74728">
        <ele>146.26</ele>
        <time>2021-08-20T09:25:31Z</time>
      </trkpt>
      <trkpt lat="43.31227" lon="-0.74761">
        <ele>146.26</ele>
        <time>2021-08-20T09:25:37Z</time>
      </trkpt>
      <trkpt lat="43.31273" lon="-0.74799">
        <ele>146.26</ele>
        <time>2021-08-20T09:25:44Z</time>
      </trkpt>
      <trkpt lat="43.31288" lon="-0.74807">
        <ele>145.78</ele>
        <time>2021-08-20T09:25:46Z</time>
      </trkpt>
      <trkpt lat="43.31295" lon="-0.74809">
        <ele>145.78</ele>
        <time>2021-08-20T09:25:47Z</time>
      </trkpt>
      <trkpt lat="43.31325" lon="-0.74819">
        <ele>145.78</ele>
        <time>2021-08-20T09:25:51Z</time>
      </trkpt>
      <trkpt lat="43.31381" lon="-0.74834">
        <ele>145.3</ele>
        <time>2021-08-20T09:25:58Z</time>
      </trkpt>
      <trkpt lat="43.31443" lon="-0.74854">
        <ele>145.78</ele>
        <time>2021-08-20T09:26:06Z</time>
      </trkpt>
      <trkpt lat="43.31503" lon="-0.74879">
        <ele>145.78</ele>
        <time>2021-08-20T09:26:14Z</time>
      </trkpt>
      <trkpt lat="43.31555" lon="-0.74906">
        <ele>144.34</ele>
        <time>2021-08-20T09:26:21Z</time>
      </trkpt>
      <trkpt lat="43.31594" lon="-0.74917">
        <ele>144.34</ele>
        <time>2021-08-20T09:26:26Z</time>
      </trkpt>
      <trkpt lat="43.31601" lon="-0.74922">
        <ele>144.34</ele>
        <time>2021-08-20T09:26:27Z</time>
      </trkpt>
      <trkpt lat="43.31665" lon="-0.74972">
        <ele>143.85</ele>
        <time>2021-08-20T09:26:36Z</time>
      </trkpt>
      <trkpt lat="43.31713" lon="-0.75012">
        <ele>142.89</ele>
        <time>2021-08-20T09:26:43Z</time>
      </trkpt>
      <trkpt lat="43.31721" lon="-0.75018">
        <ele>142.89</ele>
        <time>2021-08-20T09:26:44Z</time>
      </trkpt>
      <trkpt lat="43.31728" lon="-0.75022">
        <ele>142.89</ele>
        <time>2021-08-20T09:26:45Z</time>
      </trkpt>
      <trkpt lat="43.31764" lon="-0.75039">
        <ele>142.41</ele>
        <time>2021-08-20T09:26:50Z</time>
      </trkpt>
      <trkpt lat="43.31772" lon="-0.7504">
        <ele>142.41</ele>
        <time>2021-08-20T09:26:51Z</time>
      </trkpt>
      <trkpt lat="43.31779" lon="-0.75039">
        <ele>142.41</ele>
        <time>2021-08-20T09:26:52Z</time>
      </trkpt>
      <trkpt lat="43.31836" lon="-0.75028">
        <ele>141.45</ele>
        <time>2021-08-20T09:27:00Z</time>
      </trkpt>
      <trkpt lat="43.31842" lon="-0.75027">
        <ele>141.45</ele>
        <time>2021-08-20T09:27:01Z</time>
      </trkpt>
      <trkpt lat="43.31846" lon="-0.75028">
        <ele>141.45</ele>
        <time>2021-08-20T09:27:02Z</time>
      </trkpt>
      <trkpt lat="43.31849" lon="-0.75029">
        <ele>141.45</ele>
        <time>2021-08-20T09:27:03Z</time>
      </trkpt>
      <trkpt lat="43.31852" lon="-0.7503">
        <ele>141.45</ele>
        <time>2021-08-20T09:27:04Z</time>
      </trkpt>
      <trkpt lat="43.31854" lon="-0.7503">
        <ele>141.45</ele>
        <time>2021-08-20T09:27:05Z</time>
      </trkpt>
      <trkpt lat="43.31856" lon="-0.7503">
        <ele>141.45</ele>
        <time>2021-08-20T09:27:06Z</time>
      </trkpt>
      <trkpt lat="43.31857" lon="-0.75029">
        <ele>141.45</ele>
        <time>2021-08-20T09:27:07Z</time>
      </trkpt>
      <trkpt lat="43.31858" lon="-0.75029">
        <ele>141.45</ele>
        <time>2021-08-20T09:27:08Z</time>
      </trkpt>
      <trkpt lat="43.31859" lon="-0.75029">
        <ele>141.45</ele>
        <time>2021-08-20T09:27:09Z</time>
      </trkpt>
      <trkpt lat="43.31861" lon="-0.75032">
        <ele>141.45</ele>
        <time>2021-08-20T09:27:16Z</time>
      </trkpt>
      <trkpt lat="43.31874" lon="-0.75043">
        <ele>141.45</ele>
        <time>2021-08-20T09:27:21Z</time>
      </trkpt>
      <trkpt lat="43.31907" lon="-0.75076">
        <ele>141.45</ele>
        <time>2021-08-20T09:27:29Z</time>
      </trkpt>
      <trkpt lat="43.31952" lon="-0.75125">
        <ele>141.45</ele>
        <time>2021-08-20T09:27:39Z</time>
      </trkpt>
      <trkpt lat="43.31997" lon="-0.75168">
        <ele>141.45</ele>
        <time>2021-08-20T09:27:48Z</time>
      </trkpt>
      <trkpt lat="43.32" lon="-0.75175">
        <ele>141.45</ele>
        <time>2021-08-20T09:27:49Z</time>
      </trkpt>
      <trkpt lat="43.32001" lon="-0.75183">
        <ele>141.45</ele>
        <time>2021-08-20T09:27:50Z</time>
      </trkpt>
      <trkpt lat="43.31999" lon="-0.75242">
        <ele>140.01</ele>
        <time>2021-08-20T09:27:57Z</time>
      </trkpt>
      <trkpt lat="43.31999" lon="-0.7526">
        <ele>140.01</ele>
        <time>2021-08-20T09:27:59Z</time>
      </trkpt>
      <trkpt lat="43.32001" lon="-0.75271">
        <ele>139.53</ele>
        <time>2021-08-20T09:28:00Z</time>
      </trkpt>
      <trkpt lat="43.32018" lon="-0.75335">
        <ele>138.57</ele>
        <time>2021-08-20T09:28:07Z</time>
      </trkpt>
      <trkpt lat="43.32024" lon="-0.7535">
        <ele>138.57</ele>
        <time>2021-08-20T09:28:09Z</time>
      </trkpt>
      <trkpt lat="43.32031" lon="-0.75369">
        <ele>138.57</ele>
        <time>2021-08-20T09:28:13Z</time>
      </trkpt>
      <trkpt lat="43.32037" lon="-0.75397">
        <ele>138.57</ele>
        <time>2021-08-20T09:28:19Z</time>
      </trkpt>
      <trkpt lat="43.3204" lon="-0.7541">
        <ele>138.57</ele>
        <time>2021-08-20T09:28:23Z</time>
      </trkpt>
      <trkpt lat="43.32052" lon="-0.75444">
        <ele>138.09</ele>
        <time>2021-08-20T09:28:29Z</time>
      </trkpt>
      <trkpt lat="43.3206" lon="-0.75472">
        <ele>137.13</ele>
        <time>2021-08-20T09:28:33Z</time>
      </trkpt>
      <trkpt lat="43.32065" lon="-0.75496">
        <ele>137.13</ele>
        <time>2021-08-20T09:28:36Z</time>
      </trkpt>
      <trkpt lat="43.32066" lon="-0.75505">
        <ele>137.13</ele>
        <time>2021-08-20T09:28:37Z</time>
      </trkpt>
      <trkpt lat="43.32066" lon="-0.75513">
        <ele>137.13</ele>
        <time>2021-08-20T09:28:38Z</time>
      </trkpt>
      <trkpt lat="43.32065" lon="-0.75532">
        <ele>137.13</ele>
        <time>2021-08-20T09:28:40Z</time>
      </trkpt>
      <trkpt lat="43.32058" lon="-0.75567">
        <ele>135.68</ele>
        <time>2021-08-20T09:28:44Z</time>
      </trkpt>
      <trkpt lat="43.32038" lon="-0.75616">
        <ele>134.72</ele>
        <time>2021-08-20T09:28:50Z</time>
      </trkpt>
      <trkpt lat="43.32037" lon="-0.75622">
        <ele>134.72</ele>
        <time>2021-08-20T09:28:51Z</time>
      </trkpt>
      <trkpt lat="43.32038" lon="-0.75654">
        <ele>134.24</ele>
        <time>2021-08-20T09:28:56Z</time>
      </trkpt>
      <trkpt lat="43.32037" lon="-0.7566">
        <ele>133.76</ele>
        <time>2021-08-20T09:28:57Z</time>
      </trkpt>
      <trkpt lat="43.32036" lon="-0.75666">
        <ele>133.76</ele>
        <time>2021-08-20T09:28:58Z</time>
      </trkpt>
      <trkpt lat="43.32033" lon="-0.75672">
        <ele>133.76</ele>
        <time>2021-08-20T09:28:59Z</time>
      </trkpt>
      <trkpt lat="43.32031" lon="-0.75677">
        <ele>133.76</ele>
        <time>2021-08-20T09:29:00Z</time>
      </trkpt>
      <trkpt lat="43.32029" lon="-0.7568">
        <ele>133.76</ele>
        <time>2021-08-20T09:29:01Z</time>
      </trkpt>
      <trkpt lat="43.32027" lon="-0.75685">
        <ele>133.76</ele>
        <time>2021-08-20T09:29:02Z</time>
      </trkpt>
      <trkpt lat="43.32027" lon="-0.75689">
        <ele>133.76</ele>
        <time>2021-08-20T09:29:03Z</time>
      </trkpt>
      <trkpt lat="43.32027" lon="-0.75693">
        <ele>133.76</ele>
        <time>2021-08-20T09:29:04Z</time>
      </trkpt>
      <trkpt lat="43.32029" lon="-0.75695">
        <ele>133.76</ele>
        <time>2021-08-20T09:29:05Z</time>
      </trkpt>
      <trkpt lat="43.32029" lon="-0.75698">
        <ele>133.76</ele>
        <time>2021-08-20T09:29:06Z</time>
      </trkpt>
      <trkpt lat="43.3203" lon="-0.75702">
        <ele>133.76</ele>
        <time>2021-08-20T09:29:07Z</time>
      </trkpt>
      <trkpt lat="43.32029" lon="-0.75705">
        <ele>133.76</ele>
        <time>2021-08-20T09:29:08Z</time>
      </trkpt>
      <trkpt lat="43.32028" lon="-0.75708">
        <ele>133.28</ele>
        <time>2021-08-20T09:29:09Z</time>
      </trkpt>
      <trkpt lat="43.32027" lon="-0.75709">
        <ele>133.28</ele>
        <time>2021-08-20T09:29:13Z</time>
      </trkpt>
      <trkpt lat="43.32026" lon="-0.75712">
        <ele>133.28</ele>
        <time>2021-08-20T09:29:30Z</time>
      </trkpt>
      <trkpt lat="43.32025" lon="-0.75712">
        <ele>133.28</ele>
        <time>2021-08-20T09:29:53Z</time>
      </trkpt>
      <trkpt lat="43.32025" lon="-0.75715">
        <ele>133.28</ele>
        <time>2021-08-20T09:30:13Z</time>
      </trkpt>
      <trkpt lat="43.32026" lon="-0.75716">
        <ele>133.28</ele>
        <time>2021-08-20T09:30:28Z</time>
      </trkpt>
      <trkpt lat="43.32026" lon="-0.75715">
        <ele>133.28</ele>
        <time>2021-08-20T09:30:47Z</time>
      </trkpt>
      <trkpt lat="43.32028" lon="-0.75712">
        <ele>133.28</ele>
        <time>2021-08-20T09:31:10Z</time>
      </trkpt>
      <trkpt lat="43.32032" lon="-0.75715">
        <ele>133.28</ele>
        <time>2021-08-20T09:31:30Z</time>
      </trkpt>
      <trkpt lat="43.32033" lon="-0.75713">
        <ele>133.28</ele>
        <time>2021-08-20T09:31:49Z</time>
      </trkpt>
      <trkpt lat="43.32033" lon="-0.75712">
        <ele>133.28</ele>
        <time>2021-08-20T09:31:50Z</time>
      </trkpt>
      <trkpt lat="43.32034" lon="-0.75711">
        <ele>133.28</ele>
        <time>2021-08-20T09:31:51Z</time>
      </trkpt>
      <trkpt lat="43.32035" lon="-0.75711">
        <ele>133.28</ele>
        <time>2021-08-20T09:31:52Z</time>
      </trkpt>
      <trkpt lat="43.32036" lon="-0.75711">
        <ele>133.28</ele>
        <time>2021-08-20T09:31:53Z</time>
      </trkpt>
      <trkpt lat="43.32038" lon="-0.7571">
        <ele>133.28</ele>
        <time>2021-08-20T09:31:54Z</time>
      </trkpt>
      <trkpt lat="43.3204" lon="-0.7571">
        <ele>133.28</ele>
        <time>2021-08-20T09:31:55Z</time>
      </trkpt>
      <trkpt lat="43.32042" lon="-0.7571">
        <ele>133.28</ele>
        <time>2021-08-20T09:31:56Z</time>
      </trkpt>
      <trkpt lat="43.32044" lon="-0.75711">
        <ele>133.28</ele>
        <time>2021-08-20T09:31:57Z</time>
      </trkpt>
      <trkpt lat="43.32058" lon="-0.75714">
        <ele>133.28</ele>
        <time>2021-08-20T09:32:02Z</time>
      </trkpt>
      <trkpt lat="43.32065" lon="-0.75733">
        <ele>133.28</ele>
        <time>2021-08-20T09:32:07Z</time>
      </trkpt>
      <trkpt lat="43.32079" lon="-0.75776">
        <ele>132.8</ele>
        <time>2021-08-20T09:32:16Z</time>
      </trkpt>
      <trkpt lat="43.32085" lon="-0.75799">
        <ele>132.8</ele>
        <time>2021-08-20T09:32:20Z</time>
      </trkpt>
      <trkpt lat="43.32089" lon="-0.7581">
        <ele>132.32</ele>
        <time>2021-08-20T09:32:22Z</time>
      </trkpt>
      <trkpt lat="43.3209" lon="-0.75816">
        <ele>132.32</ele>
        <time>2021-08-20T09:32:23Z</time>
      </trkpt>
      <trkpt lat="43.32092" lon="-0.75822">
        <ele>132.32</ele>
        <time>2021-08-20T09:32:24Z</time>
      </trkpt>
      <trkpt lat="43.32093" lon="-0.75829">
        <ele>132.32</ele>
        <time>2021-08-20T09:32:25Z</time>
      </trkpt>
      <trkpt lat="43.32095" lon="-0.75835">
        <ele>131.84</ele>
        <time>2021-08-20T09:32:26Z</time>
      </trkpt>
      <trkpt lat="43.32097" lon="-0.75842">
        <ele>131.84</ele>
        <time>2021-08-20T09:32:27Z</time>
      </trkpt>
      <trkpt lat="43.32117" lon="-0.75894">
        <ele>131.36</ele>
        <time>2021-08-20T09:32:35Z</time>
      </trkpt>
      <trkpt lat="43.32132" lon="-0.75921">
        <ele>130.88</ele>
        <time>2021-08-20T09:32:40Z</time>
      </trkpt>
      <trkpt lat="43.3215" lon="-0.7594">
        <ele>130.4</ele>
        <time>2021-08-20T09:32:44Z</time>
      </trkpt>
      <trkpt lat="43.32153" lon="-0.75946">
        <ele>130.4</ele>
        <time>2021-08-20T09:32:45Z</time>
      </trkpt>
      <trkpt lat="43.3218" lon="-0.75985">
        <ele>130.4</ele>
        <time>2021-08-20T09:32:52Z</time>
      </trkpt>
      <trkpt lat="43.32199" lon="-0.76004">
        <ele>130.4</ele>
        <time>2021-08-20T09:32:56Z</time>
      </trkpt>
      <trkpt lat="43.32212" lon="-0.76025">
        <ele>130.4</ele>
        <time>2021-08-20T09:33:01Z</time>
      </trkpt>
      <trkpt lat="43.32221" lon="-0.76037">
        <ele>130.4</ele>
        <time>2021-08-20T09:33:04Z</time>
      </trkpt>
      <trkpt lat="43.32224" lon="-0.76041">
        <ele>130.4</ele>
        <time>2021-08-20T09:33:05Z</time>
      </trkpt>
      <trkpt lat="43.32228" lon="-0.76046">
        <ele>130.4</ele>
        <time>2021-08-20T09:33:06Z</time>
      </trkpt>
      <trkpt lat="43.32234" lon="-0.76055">
        <ele>130.4</ele>
        <time>2021-08-20T09:33:08Z</time>
      </trkpt>
      <trkpt lat="43.32237" lon="-0.7606">
        <ele>130.4</ele>
        <time>2021-08-20T09:33:09Z</time>
      </trkpt>
      <trkpt lat="43.32239" lon="-0.76064">
        <ele>130.4</ele>
        <time>2021-08-20T09:33:10Z</time>
      </trkpt>
      <trkpt lat="43.32242" lon="-0.76068">
        <ele>130.4</ele>
        <time>2021-08-20T09:33:11Z</time>
      </trkpt>
      <trkpt lat="43.32245" lon="-0.76073">
        <ele>130.4</ele>
        <time>2021-08-20T09:33:12Z</time>
      </trkpt>
      <trkpt lat="43.32248" lon="-0.76077">
        <ele>130.4</ele>
        <time>2021-08-20T09:33:13Z</time>
      </trkpt>
      <trkpt lat="43.3225" lon="-0.76081">
        <ele>130.4</ele>
        <time>2021-08-20T09:33:14Z</time>
      </trkpt>
      <trkpt lat="43.3226" lon="-0.76094">
        <ele>129.92</ele>
        <time>2021-08-20T09:33:18Z</time>
      </trkpt>
      <trkpt lat="43.32262" lon="-0.76098">
        <ele>129.92</ele>
        <time>2021-08-20T09:33:22Z</time>
      </trkpt>
      <trkpt lat="43.32268" lon="-0.76096">
        <ele>129.92</ele>
        <time>2021-08-20T09:33:24Z</time>
      </trkpt>
      <trkpt lat="43.32272" lon="-0.76094">
        <ele>129.92</ele>
        <time>2021-08-20T09:33:32Z</time>
      </trkpt>
      <trkpt lat="43.32272" lon="-0.76092">
        <ele>129.92</ele>
        <time>2021-08-20T09:33:49Z</time>
      </trkpt>
      <trkpt lat="43.32273" lon="-0.76092">
        <ele>129.92</ele>
        <time>2021-08-20T09:34:12Z</time>
      </trkpt>
      <trkpt lat="43.32272" lon="-0.76092">
        <ele>130.4</ele>
        <time>2021-08-20T09:34:37Z</time>
      </trkpt>
      <trkpt lat="43.32272" lon="-0.76094">
        <ele>130.4</ele>
        <time>2021-08-20T09:35:04Z</time>
      </trkpt>
      <trkpt lat="43.32272" lon="-0.76094">
        <ele>130.4</ele>
        <time>2021-08-20T09:35:14Z</time>
      </trkpt>
      <trkpt lat="43.32273" lon="-0.76096">
        <ele>130.4</ele>
        <time>2021-08-20T09:35:21Z</time>
      </trkpt>
      <trkpt lat="43.32275" lon="-0.76099">
        <ele>130.4</ele>
        <time>2021-08-20T09:35:47Z</time>
      </trkpt>
      <trkpt lat="43.32276" lon="-0.761">
        <ele>130.4</ele>
        <time>2021-08-20T09:36:05Z</time>
      </trkpt>
      <trkpt lat="43.32276" lon="-0.761">
        <ele>130.4</ele>
        <time>2021-08-20T09:36:20Z</time>
      </trkpt>
      <trkpt lat="43.32277" lon="-0.761">
        <ele>130.4</ele>
        <time>2021-08-20T09:36:32Z</time>
      </trkpt>
      <trkpt lat="43.32276" lon="-0.76098">
        <ele>129.92</ele>
        <time>2021-08-20T09:36:45Z</time>
      </trkpt>
      <trkpt lat="43.32276" lon="-0.76097">
        <ele>129.92</ele>
        <time>2021-08-20T09:37:01Z</time>
      </trkpt>
      <trkpt lat="43.32275" lon="-0.76097">
        <ele>129.92</ele>
        <time>2021-08-20T09:37:20Z</time>
      </trkpt>
      <trkpt lat="43.32277" lon="-0.76096">
        <ele>129.92</ele>
        <time>2021-08-20T09:37:29Z</time>
      </trkpt>
      <trkpt lat="43.32277" lon="-0.76099">
        <ele>129.92</ele>
        <time>2021-08-20T09:37:37Z</time>
      </trkpt>
      <trkpt lat="43.32274" lon="-0.76101">
        <ele>129.92</ele>
        <time>2021-08-20T09:37:48Z</time>
      </trkpt>
      <trkpt lat="43.32271" lon="-0.76099">
        <ele>129.92</ele>
        <time>2021-08-20T09:37:52Z</time>
      </trkpt>
      <trkpt lat="43.3227" lon="-0.76098">
        <ele>129.92</ele>
        <time>2021-08-20T09:37:53Z</time>
      </trkpt>
      <trkpt lat="43.3227" lon="-0.76097">
        <ele>129.92</ele>
        <time>2021-08-20T09:37:54Z</time>
      </trkpt>
      <trkpt lat="43.32268" lon="-0.76095">
        <ele>129.92</ele>
        <time>2021-08-20T09:37:55Z</time>
      </trkpt>
      <trkpt lat="43.32267" lon="-0.76093">
        <ele>129.92</ele>
        <time>2021-08-20T09:37:56Z</time>
      </trkpt>
      <trkpt lat="43.32251" lon="-0.76075">
        <ele>129.92</ele>
        <time>2021-08-20T09:38:03Z</time>
      </trkpt>
      <trkpt lat="43.32232" lon="-0.76057">
        <ele>129.92</ele>
        <time>2021-08-20T09:38:10Z</time>
      </trkpt>
      <trkpt lat="43.32229" lon="-0.76053">
        <ele>129.92</ele>
        <time>2021-08-20T09:38:12Z</time>
      </trkpt>
      <trkpt lat="43.32226" lon="-0.76054">
        <ele>129.92</ele>
        <time>2021-08-20T09:38:13Z</time>
      </trkpt>
      <trkpt lat="43.32224" lon="-0.76055">
        <ele>129.92</ele>
        <time>2021-08-20T09:38:14Z</time>
      </trkpt>
      <trkpt lat="43.32223" lon="-0.76057">
        <ele>129.92</ele>
        <time>2021-08-20T09:38:15Z</time>
      </trkpt>
      <trkpt lat="43.32221" lon="-0.7606">
        <ele>129.92</ele>
        <time>2021-08-20T09:38:16Z</time>
      </trkpt>
      <trkpt lat="43.32219" lon="-0.76063">
        <ele>129.92</ele>
        <time>2021-08-20T09:38:17Z</time>
      </trkpt>
      <trkpt lat="43.32201" lon="-0.76089">
        <ele>129.92</ele>
        <time>2021-08-20T09:38:25Z</time>
      </trkpt>
      <trkpt lat="43.32192" lon="-0.76103">
        <ele>129.92</ele>
        <time>2021-08-20T09:38:31Z</time>
      </trkpt>
      <trkpt lat="43.32192" lon="-0.76107">
        <ele>131.36</ele>
        <time>2021-08-20T09:38:38Z</time>
      </trkpt>
      <trkpt lat="43.32192" lon="-0.76109">
        <ele>131.36</ele>
        <time>2021-08-20T09:38:39Z</time>
      </trkpt>
      <trkpt lat="43.32193" lon="-0.7611">
        <ele>131.36</ele>
        <time>2021-08-20T09:38:40Z</time>
      </trkpt>
      <trkpt lat="43.32193" lon="-0.76112">
        <ele>131.36</ele>
        <time>2021-08-20T09:38:41Z</time>
      </trkpt>
      <trkpt lat="43.32194" lon="-0.76115">
        <ele>131.36</ele>
        <time>2021-08-20T09:38:42Z</time>
      </trkpt>
      <trkpt lat="43.32195" lon="-0.76117">
        <ele>131.36</ele>
        <time>2021-08-20T09:38:43Z</time>
      </trkpt>
      <trkpt lat="43.32196" lon="-0.76119">
        <ele>131.36</ele>
        <time>2021-08-20T09:38:44Z</time>
      </trkpt>
      <trkpt lat="43.32199" lon="-0.76123">
        <ele>130.88</ele>
        <time>2021-08-20T09:38:45Z</time>
      </trkpt>
      <trkpt lat="43.32201" lon="-0.76125">
        <ele>130.88</ele>
        <time>2021-08-20T09:38:46Z</time>
      </trkpt>
      <trkpt lat="43.32212" lon="-0.7614">
        <ele>131.36</ele>
        <time>2021-08-20T09:38:52Z</time>
      </trkpt>
      <trkpt lat="43.32215" lon="-0.7614">
        <ele>130.88</ele>
        <time>2021-08-20T09:38:53Z</time>
      </trkpt>
      <trkpt lat="43.32218" lon="-0.76138">
        <ele>131.36</ele>
        <time>2021-08-20T09:38:54Z</time>
      </trkpt>
      <trkpt lat="43.32235" lon="-0.76113">
        <ele>131.36</ele>
        <time>2021-08-20T09:39:02Z</time>
      </trkpt>
      <trkpt lat="43.32237" lon="-0.76112">
        <ele>131.36</ele>
        <time>2021-08-20T09:39:03Z</time>
      </trkpt>
      <trkpt lat="43.32241" lon="-0.76114">
        <ele>131.36</ele>
        <time>2021-08-20T09:39:04Z</time>
      </trkpt>
      <trkpt lat="43.32243" lon="-0.76116">
        <ele>131.36</ele>
        <time>2021-08-20T09:39:05Z</time>
      </trkpt>
      <trkpt lat="43.32245" lon="-0.76119">
        <ele>131.36</ele>
        <time>2021-08-20T09:39:06Z</time>
      </trkpt>
      <trkpt lat="43.32247" lon="-0.76122">
        <ele>131.36</ele>
        <time>2021-08-20T09:39:07Z</time>
      </trkpt>
      <trkpt lat="43.3225" lon="-0.76125">
        <ele>131.36</ele>
        <time>2021-08-20T09:39:08Z</time>
      </trkpt>
      <trkpt lat="43.3225" lon="-0.76128">
        <ele>130.88</ele>
        <time>2021-08-20T09:39:09Z</time>
      </trkpt>
      <trkpt lat="43.32251" lon="-0.76136">
        <ele>131.36</ele>
        <time>2021-08-20T09:39:11Z</time>
      </trkpt>
      <trkpt lat="43.32254" lon="-0.76139">
        <ele>131.36</ele>
        <time>2021-08-20T09:39:12Z</time>
      </trkpt>
      <trkpt lat="43.32269" lon="-0.7616">
        <ele>131.36</ele>
        <time>2021-08-20T09:39:20Z</time>
      </trkpt>
      <trkpt lat="43.32271" lon="-0.76163">
        <ele>131.36</ele>
        <time>2021-08-20T09:39:22Z</time>
      </trkpt>
      <trkpt lat="43.32273" lon="-0.76161">
        <ele>131.36</ele>
        <time>2021-08-20T09:39:23Z</time>
      </trkpt>
      <trkpt lat="43.32275" lon="-0.76159">
        <ele>131.36</ele>
        <time>2021-08-20T09:39:24Z</time>
      </trkpt>
      <trkpt lat="43.32276" lon="-0.76157">
        <ele>130.88</ele>
        <time>2021-08-20T09:39:25Z</time>
      </trkpt>
      <trkpt lat="43.32278" lon="-0.76155">
        <ele>131.36</ele>
        <time>2021-08-20T09:39:26Z</time>
      </trkpt>
      <trkpt lat="43.3228" lon="-0.76152">
        <ele>131.36</ele>
        <time>2021-08-20T09:39:27Z</time>
      </trkpt>
      <trkpt lat="43.32284" lon="-0.76149">
        <ele>131.36</ele>
        <time>2021-08-20T09:39:28Z</time>
      </trkpt>
      <trkpt lat="43.32287" lon="-0.76145">
        <ele>131.36</ele>
        <time>2021-08-20T09:39:29Z</time>
      </trkpt>
      <trkpt lat="43.3229" lon="-0.76143">
        <ele>130.88</ele>
        <time>2021-08-20T09:39:30Z</time>
      </trkpt>
      <trkpt lat="43.32292" lon="-0.7614">
        <ele>130.88</ele>
        <time>2021-08-20T09:39:31Z</time>
      </trkpt>
      <trkpt lat="43.32294" lon="-0.76139">
        <ele>131.36</ele>
        <time>2021-08-20T09:39:32Z</time>
      </trkpt>
      <trkpt lat="43.32297" lon="-0.7614">
        <ele>130.88</ele>
        <time>2021-08-20T09:39:33Z</time>
      </trkpt>
      <trkpt lat="43.32299" lon="-0.76142">
        <ele>131.36</ele>
        <time>2021-08-20T09:39:34Z</time>
      </trkpt>
      <trkpt lat="43.32319" lon="-0.76168">
        <ele>129.92</ele>
        <time>2021-08-20T09:39:42Z</time>
      </trkpt>
      <trkpt lat="43.32335" lon="-0.76191">
        <ele>129.92</ele>
        <time>2021-08-20T09:39:49Z</time>
      </trkpt>
      <trkpt lat="43.32341" lon="-0.762">
        <ele>129.92</ele>
        <time>2021-08-20T09:39:53Z</time>
      </trkpt>
      <trkpt lat="43.3234" lon="-0.76203">
        <ele>129.92</ele>
        <time>2021-08-20T09:39:54Z</time>
      </trkpt>
      <trkpt lat="43.32338" lon="-0.76205">
        <ele>129.92</ele>
        <time>2021-08-20T09:39:55Z</time>
      </trkpt>
      <trkpt lat="43.32324" lon="-0.76224">
        <ele>129.43</ele>
        <time>2021-08-20T09:40:02Z</time>
      </trkpt>
      <trkpt lat="43.32315" lon="-0.76241">
        <ele>128.95</ele>
        <time>2021-08-20T09:40:07Z</time>
      </trkpt>
      <trkpt lat="43.32311" lon="-0.76243">
        <ele>128.95</ele>
        <time>2021-08-20T09:40:09Z</time>
      </trkpt>
      <trkpt lat="43.32308" lon="-0.76241">
        <ele>128.95</ele>
        <time>2021-08-20T09:40:10Z</time>
      </trkpt>
      <trkpt lat="43.32305" lon="-0.76237">
        <ele>128.95</ele>
        <time>2021-08-20T09:40:11Z</time>
      </trkpt>
      <trkpt lat="43.32301" lon="-0.76234">
        <ele>128.95</ele>
        <time>2021-08-20T09:40:12Z</time>
      </trkpt>
      <trkpt lat="43.32299" lon="-0.76234">
        <ele>128.95</ele>
        <time>2021-08-20T09:40:13Z</time>
      </trkpt>
      <trkpt lat="43.32295" lon="-0.76234">
        <ele>128.95</ele>
        <time>2021-08-20T09:40:14Z</time>
      </trkpt>
      <trkpt lat="43.32292" lon="-0.76234">
        <ele>128.95</ele>
        <time>2021-08-20T09:40:15Z</time>
      </trkpt>
      <trkpt lat="43.32278" lon="-0.76241">
        <ele>130.4</ele>
        <time>2021-08-20T09:40:21Z</time>
      </trkpt>
      <trkpt lat="43.32277" lon="-0.7624">
        <ele>130.4</ele>
        <time>2021-08-20T09:40:22Z</time>
      </trkpt>
      <trkpt lat="43.32279" lon="-0.76239">
        <ele>130.4</ele>
        <time>2021-08-20T09:40:24Z</time>
      </trkpt>
      <trkpt lat="43.32285" lon="-0.76237">
        <ele>130.4</ele>
        <time>2021-08-20T09:40:27Z</time>
      </trkpt>
      <trkpt lat="43.32287" lon="-0.76234">
        <ele>130.4</ele>
        <time>2021-08-20T09:40:28Z</time>
      </trkpt>
      <trkpt lat="43.32289" lon="-0.76233">
        <ele>130.4</ele>
        <time>2021-08-20T09:40:29Z</time>
      </trkpt>
      <trkpt lat="43.32293" lon="-0.76233">
        <ele>130.4</ele>
        <time>2021-08-20T09:40:30Z</time>
      </trkpt>
      <trkpt lat="43.32297" lon="-0.76233">
        <ele>130.4</ele>
        <time>2021-08-20T09:40:31Z</time>
      </trkpt>
      <trkpt lat="43.32302" lon="-0.76235">
        <ele>129.92</ele>
        <time>2021-08-20T09:40:33Z</time>
      </trkpt>
      <trkpt lat="43.32305" lon="-0.76238">
        <ele>130.4</ele>
        <time>2021-08-20T09:40:34Z</time>
      </trkpt>
      <trkpt lat="43.32307" lon="-0.7624">
        <ele>129.92</ele>
        <time>2021-08-20T09:40:35Z</time>
      </trkpt>
      <trkpt lat="43.32308" lon="-0.76244">
        <ele>130.4</ele>
        <time>2021-08-20T09:40:36Z</time>
      </trkpt>
      <trkpt lat="43.32307" lon="-0.76247">
        <ele>130.4</ele>
        <time>2021-08-20T09:40:37Z</time>
      </trkpt>
      <trkpt lat="43.32307" lon="-0.76252">
        <ele>130.4</ele>
        <time>2021-08-20T09:40:38Z</time>
      </trkpt>
      <trkpt lat="43.32291" lon="-0.76272">
        <ele>128.95</ele>
        <time>2021-08-20T09:40:45Z</time>
      </trkpt>
      <trkpt lat="43.32274" lon="-0.76267">
        <ele>127.99</ele>
        <time>2021-08-20T09:40:51Z</time>
      </trkpt>
      <trkpt lat="43.32273" lon="-0.76267">
        <ele>127.99</ele>
        <time>2021-08-20T09:40:52Z</time>
      </trkpt>
      <trkpt lat="43.32272" lon="-0.76268">
        <ele>127.99</ele>
        <time>2021-08-20T09:40:53Z</time>
      </trkpt>
      <trkpt lat="43.32271" lon="-0.7627">
        <ele>127.99</ele>
        <time>2021-08-20T09:40:54Z</time>
      </trkpt>
      <trkpt lat="43.3227" lon="-0.76273">
        <ele>127.03</ele>
        <time>2021-08-20T09:40:55Z</time>
      </trkpt>
      <trkpt lat="43.32268" lon="-0.76277">
        <ele>127.03</ele>
        <time>2021-08-20T09:40:56Z</time>
      </trkpt>
      <trkpt lat="43.32265" lon="-0.7628">
        <ele>127.03</ele>
        <time>2021-08-20T09:40:57Z</time>
      </trkpt>
      <trkpt lat="43.3226" lon="-0.76283">
        <ele>126.55</ele>
        <time>2021-08-20T09:40:58Z</time>
      </trkpt>
      <trkpt lat="43.32255" lon="-0.76285">
        <ele>126.07</ele>
        <time>2021-08-20T09:40:59Z</time>
      </trkpt>
      <trkpt lat="43.32249" lon="-0.76288">
        <ele>125.11</ele>
        <time>2021-08-20T09:41:00Z</time>
      </trkpt>
      <trkpt lat="43.32243" lon="-0.76294">
        <ele>124.63</ele>
        <time>2021-08-20T09:41:01Z</time>
      </trkpt>
      <trkpt lat="43.32239" lon="-0.76302">
        <ele>123.67</ele>
        <time>2021-08-20T09:41:02Z</time>
      </trkpt>
      <trkpt lat="43.32237" lon="-0.76312">
        <ele>122.71</ele>
        <time>2021-08-20T09:41:03Z</time>
      </trkpt>
      <trkpt lat="43.32236" lon="-0.76322">
        <ele>122.22</ele>
        <time>2021-08-20T09:41:04Z</time>
      </trkpt>
      <trkpt lat="43.32237" lon="-0.76334">
        <ele>121.74</ele>
        <time>2021-08-20T09:41:05Z</time>
      </trkpt>
      <trkpt lat="43.32239" lon="-0.76345">
        <ele>121.74</ele>
        <time>2021-08-20T09:41:06Z</time>
      </trkpt>
      <trkpt lat="43.32242" lon="-0.76357">
        <ele>121.26</ele>
        <time>2021-08-20T09:41:07Z</time>
      </trkpt>
      <trkpt lat="43.32253" lon="-0.76408">
        <ele>123.19</ele>
        <time>2021-08-20T09:41:13Z</time>
      </trkpt>
      <trkpt lat="43.32266" lon="-0.76461">
        <ele>121.74</ele>
        <time>2021-08-20T09:41:19Z</time>
      </trkpt>
      <trkpt lat="43.32272" lon="-0.76492">
        <ele>119.82</ele>
        <time>2021-08-20T09:41:22Z</time>
      </trkpt>
      <trkpt lat="43.32275" lon="-0.76514">
        <ele>119.82</ele>
        <time>2021-08-20T09:41:24Z</time>
      </trkpt>
      <trkpt lat="43.32277" lon="-0.76524">
        <ele>119.82</ele>
        <time>2021-08-20T09:41:25Z</time>
      </trkpt>
      <trkpt lat="43.32282" lon="-0.76533">
        <ele>119.34</ele>
        <time>2021-08-20T09:41:26Z</time>
      </trkpt>
      <trkpt lat="43.32288" lon="-0.76541">
        <ele>118.86</ele>
        <time>2021-08-20T09:41:27Z</time>
      </trkpt>
      <trkpt lat="43.32294" lon="-0.76547">
        <ele>119.34</ele>
        <time>2021-08-20T09:41:28Z</time>
      </trkpt>
      <trkpt lat="43.32337" lon="-0.76584">
        <ele>118.86</ele>
        <time>2021-08-20T09:41:35Z</time>
      </trkpt>
      <trkpt lat="43.32349" lon="-0.76593">
        <ele>120.3</ele>
        <time>2021-08-20T09:41:37Z</time>
      </trkpt>
      <trkpt lat="43.3236" lon="-0.766">
        <ele>121.26</ele>
        <time>2021-08-20T09:41:39Z</time>
      </trkpt>
      <trkpt lat="43.32364" lon="-0.76604">
        <ele>121.74</ele>
        <time>2021-08-20T09:41:40Z</time>
      </trkpt>
      <trkpt lat="43.32383" lon="-0.76625">
        <ele>124.15</ele>
        <time>2021-08-20T09:41:46Z</time>
      </trkpt>
      <trkpt lat="43.32395" lon="-0.76642">
        <ele>125.59</ele>
        <time>2021-08-20T09:41:52Z</time>
      </trkpt>
      <trkpt lat="43.32405" lon="-0.76671">
        <ele>127.03</ele>
        <time>2021-08-20T09:42:00Z</time>
      </trkpt>
      <trkpt lat="43.32412" lon="-0.76697">
        <ele>128.47</ele>
        <time>2021-08-20T09:42:07Z</time>
      </trkpt>
      <trkpt lat="43.32419" lon="-0.76729">
        <ele>129.43</ele>
        <time>2021-08-20T09:42:15Z</time>
      </trkpt>
      <trkpt lat="43.32432" lon="-0.76769">
        <ele>129.92</ele>
        <time>2021-08-20T09:42:24Z</time>
      </trkpt>
      <trkpt lat="43.32449" lon="-0.7682">
        <ele>129.92</ele>
        <time>2021-08-20T09:42:33Z</time>
      </trkpt>
      <trkpt lat="43.32452" lon="-0.76832">
        <ele>129.92</ele>
        <time>2021-08-20T09:42:35Z</time>
      </trkpt>
      <trkpt lat="43.32467" lon="-0.76884">
        <ele>129.92</ele>
        <time>2021-08-20T09:42:43Z</time>
      </trkpt>
      <trkpt lat="43.32484" lon="-0.76951">
        <ele>128.47</ele>
        <time>2021-08-20T09:42:52Z</time>
      </trkpt>
      <trkpt lat="43.32497" lon="-0.77023">
        <ele>128.47</ele>
        <time>2021-08-20T09:43:01Z</time>
      </trkpt>
      <trkpt lat="43.32498" lon="-0.77077">
        <ele>128.47</ele>
        <time>2021-08-20T09:43:08Z</time>
      </trkpt>
      <trkpt lat="43.32498" lon="-0.77091">
        <ele>128.47</ele>
        <time>2021-08-20T09:43:10Z</time>
      </trkpt>
      <trkpt lat="43.32499" lon="-0.77155">
        <ele>129.92</ele>
        <time>2021-08-20T09:43:19Z</time>
      </trkpt>
      <trkpt lat="43.325" lon="-0.77234">
        <ele>129.92</ele>
        <time>2021-08-20T09:43:30Z</time>
      </trkpt>
      <trkpt lat="43.32502" lon="-0.77294">
        <ele>131.36</ele>
        <time>2021-08-20T09:43:39Z</time>
      </trkpt>
      <trkpt lat="43.32503" lon="-0.77299">
        <ele>131.36</ele>
        <time>2021-08-20T09:43:40Z</time>
      </trkpt>
      <trkpt lat="43.3251" lon="-0.7732">
        <ele>132.32</ele>
        <time>2021-08-20T09:43:44Z</time>
      </trkpt>
      <trkpt lat="43.32512" lon="-0.77325">
        <ele>132.32</ele>
        <time>2021-08-20T09:43:45Z</time>
      </trkpt>
      <trkpt lat="43.32514" lon="-0.77331">
        <ele>132.32</ele>
        <time>2021-08-20T09:43:46Z</time>
      </trkpt>
      <trkpt lat="43.32514" lon="-0.77337">
        <ele>132.32</ele>
        <time>2021-08-20T09:43:47Z</time>
      </trkpt>
      <trkpt lat="43.32514" lon="-0.77343">
        <ele>132.32</ele>
        <time>2021-08-20T09:43:48Z</time>
      </trkpt>
      <trkpt lat="43.32512" lon="-0.77349">
        <ele>132.32</ele>
        <time>2021-08-20T09:43:49Z</time>
      </trkpt>
      <trkpt lat="43.3251" lon="-0.77354">
        <ele>132.32</ele>
        <time>2021-08-20T09:43:50Z</time>
      </trkpt>
      <trkpt lat="43.32506" lon="-0.7736">
        <ele>132.32</ele>
        <time>2021-08-20T09:43:51Z</time>
      </trkpt>
      <trkpt lat="43.32503" lon="-0.77365">
        <ele>132.32</ele>
        <time>2021-08-20T09:43:52Z</time>
      </trkpt>
      <trkpt lat="43.325" lon="-0.7737">
        <ele>132.32</ele>
        <time>2021-08-20T09:43:53Z</time>
      </trkpt>
      <trkpt lat="43.32498" lon="-0.77376">
        <ele>132.32</ele>
        <time>2021-08-20T09:43:54Z</time>
      </trkpt>
      <trkpt lat="43.32495" lon="-0.77383">
        <ele>132.32</ele>
        <time>2021-08-20T09:43:55Z</time>
      </trkpt>
      <trkpt lat="43.32493" lon="-0.7739">
        <ele>132.32</ele>
        <time>2021-08-20T09:43:56Z</time>
      </trkpt>
      <trkpt lat="43.32491" lon="-0.77398">
        <ele>132.32</ele>
        <time>2021-08-20T09:43:57Z</time>
      </trkpt>
      <trkpt lat="43.32476" lon="-0.77468">
        <ele>132.32</ele>
        <time>2021-08-20T09:44:06Z</time>
      </trkpt>
      <trkpt lat="43.32463" lon="-0.77548">
        <ele>132.32</ele>
        <time>2021-08-20T09:44:16Z</time>
      </trkpt>
      <trkpt lat="43.32449" lon="-0.77627">
        <ele>133.28</ele>
        <time>2021-08-20T09:44:26Z</time>
      </trkpt>
      <trkpt lat="43.32435" lon="-0.77701">
        <ele>133.28</ele>
        <time>2021-08-20T09:44:35Z</time>
      </trkpt>
      <trkpt lat="43.32419" lon="-0.77776">
        <ele>133.28</ele>
        <time>2021-08-20T09:44:44Z</time>
      </trkpt>
      <trkpt lat="43.32406" lon="-0.77854">
        <ele>133.76</ele>
        <time>2021-08-20T09:44:53Z</time>
      </trkpt>
      <trkpt lat="43.32404" lon="-0.7787">
        <ele>134.24</ele>
        <time>2021-08-20T09:44:55Z</time>
      </trkpt>
      <trkpt lat="43.32392" lon="-0.77931">
        <ele>134.72</ele>
        <time>2021-08-20T09:45:03Z</time>
      </trkpt>
      <trkpt lat="43.32385" lon="-0.77954">
        <ele>136.16</ele>
        <time>2021-08-20T09:45:07Z</time>
      </trkpt>
      <trkpt lat="43.32383" lon="-0.7797">
        <ele>136.64</ele>
        <time>2021-08-20T09:45:10Z</time>
      </trkpt>
      <trkpt lat="43.32384" lon="-0.77974">
        <ele>136.64</ele>
        <time>2021-08-20T09:45:11Z</time>
      </trkpt>
      <trkpt lat="43.32385" lon="-0.77978">
        <ele>137.13</ele>
        <time>2021-08-20T09:45:12Z</time>
      </trkpt>
      <trkpt lat="43.32395" lon="-0.78005">
        <ele>138.57</ele>
        <time>2021-08-20T09:45:20Z</time>
      </trkpt>
      <trkpt lat="43.32408" lon="-0.78028">
        <ele>140.01</ele>
        <time>2021-08-20T09:45:28Z</time>
      </trkpt>
      <trkpt lat="43.32423" lon="-0.78045">
        <ele>140.97</ele>
        <time>2021-08-20T09:45:37Z</time>
      </trkpt>
      <trkpt lat="43.32432" lon="-0.78052">
        <ele>141.93</ele>
        <time>2021-08-20T09:45:42Z</time>
      </trkpt>
      <trkpt lat="43.32447" lon="-0.78059">
        <ele>142.89</ele>
        <time>2021-08-20T09:45:50Z</time>
      </trkpt>
      <trkpt lat="43.32459" lon="-0.78063">
        <ele>143.85</ele>
        <time>2021-08-20T09:45:57Z</time>
      </trkpt>
      <trkpt lat="43.32474" lon="-0.78066">
        <ele>144.82</ele>
        <time>2021-08-20T09:46:04Z</time>
      </trkpt>
      <trkpt lat="43.32497" lon="-0.78076">
        <ele>146.26</ele>
        <time>2021-08-20T09:46:13Z</time>
      </trkpt>
      <trkpt lat="43.32512" lon="-0.78084">
        <ele>147.7</ele>
        <time>2021-08-20T09:46:20Z</time>
      </trkpt>
      <trkpt lat="43.32528" lon="-0.78088">
        <ele>148.66</ele>
        <time>2021-08-20T09:46:27Z</time>
      </trkpt>
      <trkpt lat="43.32551" lon="-0.78097">
        <ele>150.1</ele>
        <time>2021-08-20T09:46:36Z</time>
      </trkpt>
      <trkpt lat="43.32564" lon="-0.78103">
        <ele>150.58</ele>
        <time>2021-08-20T09:46:41Z</time>
      </trkpt>
      <trkpt lat="43.32577" lon="-0.78104">
        <ele>151.54</ele>
        <time>2021-08-20T09:46:46Z</time>
      </trkpt>
      <trkpt lat="43.32595" lon="-0.78097">
        <ele>152.99</ele>
        <time>2021-08-20T09:46:53Z</time>
      </trkpt>
      <trkpt lat="43.32616" lon="-0.78088">
        <ele>153.95</ele>
        <time>2021-08-20T09:47:02Z</time>
      </trkpt>
      <trkpt lat="43.32632" lon="-0.78095">
        <ele>155.39</ele>
        <time>2021-08-20T09:47:10Z</time>
      </trkpt>
      <trkpt lat="43.32643" lon="-0.78116">
        <ele>156.83</ele>
        <time>2021-08-20T09:47:18Z</time>
      </trkpt>
      <trkpt lat="43.32645" lon="-0.78137">
        <ele>157.79</ele>
        <time>2021-08-20T09:47:24Z</time>
      </trkpt>
      <trkpt lat="43.32636" lon="-0.78159">
        <ele>159.24</ele>
        <time>2021-08-20T09:47:31Z</time>
      </trkpt>
      <trkpt lat="43.32616" lon="-0.78181">
        <ele>160.68</ele>
        <time>2021-08-20T09:47:40Z</time>
      </trkpt>
      <trkpt lat="43.32612" lon="-0.78195">
        <ele>161.16</ele>
        <time>2021-08-20T09:47:44Z</time>
      </trkpt>
      <trkpt lat="43.32614" lon="-0.78198">
        <ele>161.64</ele>
        <time>2021-08-20T09:47:45Z</time>
      </trkpt>
      <trkpt lat="43.32616" lon="-0.78201">
        <ele>161.64</ele>
        <time>2021-08-20T09:47:46Z</time>
      </trkpt>
      <trkpt lat="43.32619" lon="-0.78204">
        <ele>161.64</ele>
        <time>2021-08-20T09:47:47Z</time>
      </trkpt>
      <trkpt lat="43.32622" lon="-0.78205">
        <ele>161.64</ele>
        <time>2021-08-20T09:47:48Z</time>
      </trkpt>
      <trkpt lat="43.32626" lon="-0.78207">
        <ele>161.64</ele>
        <time>2021-08-20T09:47:49Z</time>
      </trkpt>
      <trkpt lat="43.32642" lon="-0.78212">
        <ele>161.64</ele>
        <time>2021-08-20T09:47:53Z</time>
      </trkpt>
      <trkpt lat="43.32692" lon="-0.78216">
        <ele>161.64</ele>
        <time>2021-08-20T09:48:03Z</time>
      </trkpt>
      <trkpt lat="43.3271" lon="-0.78215">
        <ele>159.72</ele>
        <time>2021-08-20T09:48:06Z</time>
      </trkpt>
      <trkpt lat="43.32715" lon="-0.78214">
        <ele>159.72</ele>
        <time>2021-08-20T09:48:07Z</time>
      </trkpt>
      <trkpt lat="43.32749" lon="-0.78205">
        <ele>159.72</ele>
        <time>2021-08-20T09:48:13Z</time>
      </trkpt>
      <trkpt lat="43.32754" lon="-0.78204">
        <ele>159.72</ele>
        <time>2021-08-20T09:48:14Z</time>
      </trkpt>
      <trkpt lat="43.3279" lon="-0.78213">
        <ele>158.75</ele>
        <time>2021-08-20T09:48:21Z</time>
      </trkpt>
      <trkpt lat="43.328" lon="-0.78219">
        <ele>159.24</ele>
        <time>2021-08-20T09:48:23Z</time>
      </trkpt>
      <trkpt lat="43.32805" lon="-0.78222">
        <ele>159.24</ele>
        <time>2021-08-20T09:48:24Z</time>
      </trkpt>
      <trkpt lat="43.32846" lon="-0.78232">
        <ele>158.75</ele>
        <time>2021-08-20T09:48:32Z</time>
      </trkpt>
      <trkpt lat="43.32849" lon="-0.78234">
        <ele>158.75</ele>
        <time>2021-08-20T09:48:33Z</time>
      </trkpt>
      <trkpt lat="43.32852" lon="-0.78239">
        <ele>158.75</ele>
        <time>2021-08-20T09:48:34Z</time>
      </trkpt>
      <trkpt lat="43.32852" lon="-0.78245">
        <ele>158.75</ele>
        <time>2021-08-20T09:48:35Z</time>
      </trkpt>
      <trkpt lat="43.32852" lon="-0.78251">
        <ele>158.75</ele>
        <time>2021-08-20T09:48:36Z</time>
      </trkpt>
      <trkpt lat="43.3285" lon="-0.78257">
        <ele>158.75</ele>
        <time>2021-08-20T09:48:37Z</time>
      </trkpt>
      <trkpt lat="43.32846" lon="-0.78308">
        <ele>158.75</ele>
        <time>2021-08-20T09:48:44Z</time>
      </trkpt>
      <trkpt lat="43.32846" lon="-0.7837">
        <ele>160.2</ele>
        <time>2021-08-20T09:48:52Z</time>
      </trkpt>
      <trkpt lat="43.32847" lon="-0.78425">
        <ele>161.16</ele>
        <time>2021-08-20T09:48:59Z</time>
      </trkpt>
      <trkpt lat="43.32847" lon="-0.78433">
        <ele>161.16</ele>
        <time>2021-08-20T09:49:00Z</time>
      </trkpt>
      <trkpt lat="43.32849" lon="-0.78481">
        <ele>161.64</ele>
        <time>2021-08-20T09:49:07Z</time>
      </trkpt>
      <trkpt lat="43.32851" lon="-0.78508">
        <ele>161.64</ele>
        <time>2021-08-20T09:49:11Z</time>
      </trkpt>
      <trkpt lat="43.32854" lon="-0.78561">
        <ele>160.2</ele>
        <time>2021-08-20T09:49:19Z</time>
      </trkpt>
      <trkpt lat="43.3286" lon="-0.78623">
        <ele>160.2</ele>
        <time>2021-08-20T09:49:28Z</time>
      </trkpt>
      <trkpt lat="43.32868" lon="-0.78674">
        <ele>160.2</ele>
        <time>2021-08-20T09:49:35Z</time>
      </trkpt>
      <trkpt lat="43.32874" lon="-0.78701">
        <ele>161.64</ele>
        <time>2021-08-20T09:49:39Z</time>
      </trkpt>
      <trkpt lat="43.32894" lon="-0.78742">
        <ele>163.08</ele>
        <time>2021-08-20T09:49:46Z</time>
      </trkpt>
      <trkpt lat="43.3293" lon="-0.78796">
        <ele>161.64</ele>
        <time>2021-08-20T09:49:55Z</time>
      </trkpt>
      <trkpt lat="43.32972" lon="-0.78859">
        <ele>160.2</ele>
        <time>2021-08-20T09:50:05Z</time>
      </trkpt>
      <trkpt lat="43.32995" lon="-0.78893">
        <ele>160.2</ele>
        <time>2021-08-20T09:50:11Z</time>
      </trkpt>
      <trkpt lat="43.3303" lon="-0.78946">
        <ele>160.2</ele>
        <time>2021-08-20T09:50:19Z</time>
      </trkpt>
      <trkpt lat="43.33058" lon="-0.78987">
        <ele>160.2</ele>
        <time>2021-08-20T09:50:26Z</time>
      </trkpt>
      <trkpt lat="43.33062" lon="-0.78992">
        <ele>160.2</ele>
        <time>2021-08-20T09:50:29Z</time>
      </trkpt>
      <trkpt lat="43.33064" lon="-0.78992">
        <ele>160.2</ele>
        <time>2021-08-20T09:50:30Z</time>
      </trkpt>
      <trkpt lat="43.33065" lon="-0.78994">
        <ele>160.2</ele>
        <time>2021-08-20T09:50:31Z</time>
      </trkpt>
      <trkpt lat="43.33064" lon="-0.78997">
        <ele>160.68</ele>
        <time>2021-08-20T09:50:32Z</time>
      </trkpt>
      <trkpt lat="43.33063" lon="-0.78999">
        <ele>160.2</ele>
        <time>2021-08-20T09:50:33Z</time>
      </trkpt>
      <trkpt lat="43.33062" lon="-0.79001">
        <ele>160.2</ele>
        <time>2021-08-20T09:50:34Z</time>
      </trkpt>
      <trkpt lat="43.33061" lon="-0.79003">
        <ele>160.2</ele>
        <time>2021-08-20T09:50:35Z</time>
      </trkpt>
      <trkpt lat="43.3306" lon="-0.79004">
        <ele>160.2</ele>
        <time>2021-08-20T09:50:36Z</time>
      </trkpt>
      <trkpt lat="43.33059" lon="-0.79006">
        <ele>160.2</ele>
        <time>2021-08-20T09:50:37Z</time>
      </trkpt>
      <trkpt lat="43.33058" lon="-0.79007">
        <ele>160.2</ele>
        <time>2021-08-20T09:50:43Z</time>
      </trkpt>
      <trkpt lat="43.33058" lon="-0.79008">
        <ele>160.2</ele>
        <time>2021-08-20T09:50:59Z</time>
      </trkpt>
      <trkpt lat="43.33057" lon="-0.79009">
        <ele>160.2</ele>
        <time>2021-08-20T09:51:00Z</time>
      </trkpt>
      <trkpt lat="43.33055" lon="-0.79011">
        <ele>160.2</ele>
        <time>2021-08-20T09:51:01Z</time>
      </trkpt>
      <trkpt lat="43.33054" lon="-0.79014">
        <ele>160.2</ele>
        <time>2021-08-20T09:51:02Z</time>
      </trkpt>
      <trkpt lat="43.33051" lon="-0.79017">
        <ele>159.72</ele>
        <time>2021-08-20T09:51:03Z</time>
      </trkpt>
      <trkpt lat="43.33034" lon="-0.79037">
        <ele>157.79</ele>
        <time>2021-08-20T09:51:08Z</time>
      </trkpt>
      <trkpt lat="43.33027" lon="-0.79048">
        <ele>156.83</ele>
        <time>2021-08-20T09:51:10Z</time>
      </trkpt>
      <trkpt lat="43.33025" lon="-0.79054">
        <ele>156.35</ele>
        <time>2021-08-20T09:51:11Z</time>
      </trkpt>
      <trkpt lat="43.33023" lon="-0.7906">
        <ele>156.35</ele>
        <time>2021-08-20T09:51:12Z</time>
      </trkpt>
      <trkpt lat="43.3302" lon="-0.79081">
        <ele>153.95</ele>
        <time>2021-08-20T09:51:15Z</time>
      </trkpt>
      <trkpt lat="43.3302" lon="-0.79089">
        <ele>153.95</ele>
        <time>2021-08-20T09:51:16Z</time>
      </trkpt>
      <trkpt lat="43.33022" lon="-0.79097">
        <ele>152.99</ele>
        <time>2021-08-20T09:51:17Z</time>
      </trkpt>
      <trkpt lat="43.33024" lon="-0.79105">
        <ele>152.51</ele>
        <time>2021-08-20T09:51:18Z</time>
      </trkpt>
      <trkpt lat="43.33026" lon="-0.79113">
        <ele>152.51</ele>
        <time>2021-08-20T09:51:19Z</time>
      </trkpt>
      <trkpt lat="43.33033" lon="-0.79148">
        <ele>150.1</ele>
        <time>2021-08-20T09:51:23Z</time>
      </trkpt>
      <trkpt lat="43.33033" lon="-0.79158">
        <ele>149.14</ele>
        <time>2021-08-20T09:51:24Z</time>
      </trkpt>
      <trkpt lat="43.33032" lon="-0.79167">
        <ele>149.14</ele>
        <time>2021-08-20T09:51:25Z</time>
      </trkpt>
      <trkpt lat="43.33029" lon="-0.79174">
        <ele>148.66</ele>
        <time>2021-08-20T09:51:26Z</time>
      </trkpt>
      <trkpt lat="43.33025" lon="-0.79181">
        <ele>148.66</ele>
        <time>2021-08-20T09:51:27Z</time>
      </trkpt>
      <trkpt lat="43.33019" lon="-0.79187">
        <ele>148.18</ele>
        <time>2021-08-20T09:51:28Z</time>
      </trkpt>
      <trkpt lat="43.33013" lon="-0.79193">
        <ele>147.7</ele>
        <time>2021-08-20T09:51:29Z</time>
      </trkpt>
      <trkpt lat="43.32986" lon="-0.79226">
        <ele>145.3</ele>
        <time>2021-08-20T09:51:34Z</time>
      </trkpt>
      <trkpt lat="43.32983" lon="-0.79233">
        <ele>145.3</ele>
        <time>2021-08-20T09:51:35Z</time>
      </trkpt>
      <trkpt lat="43.3298" lon="-0.79241">
        <ele>144.82</ele>
        <time>2021-08-20T09:51:36Z</time>
      </trkpt>
      <trkpt lat="43.32978" lon="-0.79249">
        <ele>144.34</ele>
        <time>2021-08-20T09:51:37Z</time>
      </trkpt>
      <trkpt lat="43.32977" lon="-0.79259">
        <ele>143.85</ele>
        <time>2021-08-20T09:51:38Z</time>
      </trkpt>
      <trkpt lat="43.32976" lon="-0.79268">
        <ele>142.89</ele>
        <time>2021-08-20T09:51:39Z</time>
      </trkpt>
      <trkpt lat="43.32976" lon="-0.79279">
        <ele>142.89</ele>
        <time>2021-08-20T09:51:40Z</time>
      </trkpt>
      <trkpt lat="43.32977" lon="-0.79289">
        <ele>141.93</ele>
        <time>2021-08-20T09:51:41Z</time>
      </trkpt>
      <trkpt lat="43.32979" lon="-0.79298">
        <ele>140.97</ele>
        <time>2021-08-20T09:51:42Z</time>
      </trkpt>
      <trkpt lat="43.3298" lon="-0.79308">
        <ele>140.97</ele>
        <time>2021-08-20T09:51:43Z</time>
      </trkpt>
      <trkpt lat="43.32982" lon="-0.79317">
        <ele>140.49</ele>
        <time>2021-08-20T09:51:44Z</time>
      </trkpt>
      <trkpt lat="43.32982" lon="-0.79327">
        <ele>140.49</ele>
        <time>2021-08-20T09:51:45Z</time>
      </trkpt>
      <trkpt lat="43.32982" lon="-0.79337">
        <ele>139.53</ele>
        <time>2021-08-20T09:51:46Z</time>
      </trkpt>
      <trkpt lat="43.32982" lon="-0.79347">
        <ele>138.57</ele>
        <time>2021-08-20T09:51:47Z</time>
      </trkpt>
      <trkpt lat="43.3298" lon="-0.79358">
        <ele>138.09</ele>
        <time>2021-08-20T09:51:48Z</time>
      </trkpt>
      <trkpt lat="43.32978" lon="-0.79369">
        <ele>136.16</ele>
        <time>2021-08-20T09:51:49Z</time>
      </trkpt>
      <trkpt lat="43.32972" lon="-0.79418">
        <ele>132.8</ele>
        <time>2021-08-20T09:51:53Z</time>
      </trkpt>
      <trkpt lat="43.32966" lon="-0.79457">
        <ele>129.43</ele>
        <time>2021-08-20T09:51:56Z</time>
      </trkpt>
      <trkpt lat="43.32952" lon="-0.7952">
        <ele>126.55</ele>
        <time>2021-08-20T09:52:01Z</time>
      </trkpt>
      <trkpt lat="43.32948" lon="-0.79531">
        <ele>126.55</ele>
        <time>2021-08-20T09:52:02Z</time>
      </trkpt>
      <trkpt lat="43.32943" lon="-0.7954">
        <ele>126.55</ele>
        <time>2021-08-20T09:52:03Z</time>
      </trkpt>
      <trkpt lat="43.32937" lon="-0.79548">
        <ele>126.55</ele>
        <time>2021-08-20T09:52:04Z</time>
      </trkpt>
      <trkpt lat="43.32931" lon="-0.79555">
        <ele>126.55</ele>
        <time>2021-08-20T09:52:05Z</time>
      </trkpt>
      <trkpt lat="43.32915" lon="-0.79576">
        <ele>127.99</ele>
        <time>2021-08-20T09:52:08Z</time>
      </trkpt>
      <trkpt lat="43.32901" lon="-0.79591">
        <ele>130.88</ele>
        <time>2021-08-20T09:52:12Z</time>
      </trkpt>
      <trkpt lat="43.32898" lon="-0.79593">
        <ele>130.88</ele>
        <time>2021-08-20T09:52:13Z</time>
      </trkpt>
      <trkpt lat="43.3287" lon="-0.79609">
        <ele>131.36</ele>
        <time>2021-08-20T09:52:21Z</time>
      </trkpt>
      <trkpt lat="43.32844" lon="-0.79622">
        <ele>131.84</ele>
        <time>2021-08-20T09:52:28Z</time>
      </trkpt>
      <trkpt lat="43.32809" lon="-0.7964">
        <ele>131.84</ele>
        <time>2021-08-20T09:52:36Z</time>
      </trkpt>
      <trkpt lat="43.32792" lon="-0.7965">
        <ele>131.84</ele>
        <time>2021-08-20T09:52:40Z</time>
      </trkpt>
      <trkpt lat="43.32763" lon="-0.79667">
        <ele>132.32</ele>
        <time>2021-08-20T09:52:47Z</time>
      </trkpt>
      <trkpt lat="43.32741" lon="-0.7968">
        <ele>132.32</ele>
        <time>2021-08-20T09:52:52Z</time>
      </trkpt>
      <trkpt lat="43.32726" lon="-0.79696">
        <ele>132.32</ele>
        <time>2021-08-20T09:52:56Z</time>
      </trkpt>
      <trkpt lat="43.32717" lon="-0.79707">
        <ele>130.88</ele>
        <time>2021-08-20T09:52:58Z</time>
      </trkpt>
      <trkpt lat="43.32703" lon="-0.79721">
        <ele>129.92</ele>
        <time>2021-08-20T09:53:01Z</time>
      </trkpt>
      <trkpt lat="43.32698" lon="-0.79725">
        <ele>129.92</ele>
        <time>2021-08-20T09:53:02Z</time>
      </trkpt>
      <trkpt lat="43.32692" lon="-0.79728">
        <ele>129.92</ele>
        <time>2021-08-20T09:53:03Z</time>
      </trkpt>
      <trkpt lat="43.32667" lon="-0.79736">
        <ele>128.95</ele>
        <time>2021-08-20T09:53:09Z</time>
      </trkpt>
      <trkpt lat="43.32651" lon="-0.79751">
        <ele>127.03</ele>
        <time>2021-08-20T09:53:14Z</time>
      </trkpt>
      <trkpt lat="43.32644" lon="-0.79771">
        <ele>125.11</ele>
        <time>2021-08-20T09:53:18Z</time>
      </trkpt>
      <trkpt lat="43.32642" lon="-0.79777">
        <ele>124.15</ele>
        <time>2021-08-20T09:53:19Z</time>
      </trkpt>
      <trkpt lat="43.32639" lon="-0.79782">
        <ele>124.15</ele>
        <time>2021-08-20T09:53:20Z</time>
      </trkpt>
      <trkpt lat="43.32635" lon="-0.79787">
        <ele>124.15</ele>
        <time>2021-08-20T09:53:21Z</time>
      </trkpt>
      <trkpt lat="43.32631" lon="-0.7979">
        <ele>124.15</ele>
        <time>2021-08-20T09:53:22Z</time>
      </trkpt>
      <trkpt lat="43.32628" lon="-0.79792">
        <ele>124.15</ele>
        <time>2021-08-20T09:53:23Z</time>
      </trkpt>
      <trkpt lat="43.32625" lon="-0.79794">
        <ele>124.15</ele>
        <time>2021-08-20T09:53:24Z</time>
      </trkpt>
      <trkpt lat="43.32621" lon="-0.79795">
        <ele>123.67</ele>
        <time>2021-08-20T09:53:25Z</time>
      </trkpt>
      <trkpt lat="43.32619" lon="-0.79797">
        <ele>123.67</ele>
        <time>2021-08-20T09:53:26Z</time>
      </trkpt>
      <trkpt lat="43.32617" lon="-0.79799">
        <ele>123.67</ele>
        <time>2021-08-20T09:53:27Z</time>
      </trkpt>
      <trkpt lat="43.32613" lon="-0.79803">
        <ele>123.19</ele>
        <time>2021-08-20T09:53:32Z</time>
      </trkpt>
      <trkpt lat="43.326" lon="-0.79814">
        <ele>122.71</ele>
        <time>2021-08-20T09:53:37Z</time>
      </trkpt>
      <trkpt lat="43.32585" lon="-0.79827">
        <ele>122.71</ele>
        <time>2021-08-20T09:53:43Z</time>
      </trkpt>
      <trkpt lat="43.32578" lon="-0.7983">
        <ele>124.15</ele>
        <time>2021-08-20T09:53:46Z</time>
      </trkpt>
      <trkpt lat="43.32563" lon="-0.79833">
        <ele>124.15</ele>
        <time>2021-08-20T09:53:52Z</time>
      </trkpt>
      <trkpt lat="43.32549" lon="-0.79836">
        <ele>124.15</ele>
        <time>2021-08-20T09:53:56Z</time>
      </trkpt>
      <trkpt lat="43.32546" lon="-0.7984">
        <ele>124.15</ele>
        <time>2021-08-20T09:53:57Z</time>
      </trkpt>
      <trkpt lat="43.32545" lon="-0.79844">
        <ele>124.15</ele>
        <time>2021-08-20T09:53:58Z</time>
      </trkpt>
      <trkpt lat="43.32545" lon="-0.79847">
        <ele>124.15</ele>
        <time>2021-08-20T09:53:59Z</time>
      </trkpt>
      <trkpt lat="43.32546" lon="-0.79851">
        <ele>124.15</ele>
        <time>2021-08-20T09:54:00Z</time>
      </trkpt>
      <trkpt lat="43.32547" lon="-0.79854">
        <ele>124.15</ele>
        <time>2021-08-20T09:54:01Z</time>
      </trkpt>
      <trkpt lat="43.32549" lon="-0.79858">
        <ele>124.15</ele>
        <time>2021-08-20T09:54:02Z</time>
      </trkpt>
      <trkpt lat="43.32551" lon="-0.79862">
        <ele>124.15</ele>
        <time>2021-08-20T09:54:03Z</time>
      </trkpt>
      <trkpt lat="43.32562" lon="-0.79889">
        <ele>124.15</ele>
        <time>2021-08-20T09:54:09Z</time>
      </trkpt>
      <trkpt lat="43.32564" lon="-0.79894">
        <ele>124.15</ele>
        <time>2021-08-20T09:54:10Z</time>
      </trkpt>
      <trkpt lat="43.32569" lon="-0.79903">
        <ele>124.15</ele>
        <time>2021-08-20T09:54:12Z</time>
      </trkpt>
      <trkpt lat="43.32578" lon="-0.79919">
        <ele>124.15</ele>
        <time>2021-08-20T09:54:16Z</time>
      </trkpt>
      <trkpt lat="43.32599" lon="-0.79963">
        <ele>124.15</ele>
        <time>2021-08-20T09:54:25Z</time>
      </trkpt>
      <trkpt lat="43.32607" lon="-0.7999">
        <ele>124.15</ele>
        <time>2021-08-20T09:54:31Z</time>
      </trkpt>
      <trkpt lat="43.32613" lon="-0.8002">
        <ele>124.15</ele>
        <time>2021-08-20T09:54:37Z</time>
      </trkpt>
      <trkpt lat="43.3262" lon="-0.80058">
        <ele>124.15</ele>
        <time>2021-08-20T09:54:44Z</time>
      </trkpt>
      <trkpt lat="43.3263" lon="-0.80095">
        <ele>124.15</ele>
        <time>2021-08-20T09:54:51Z</time>
      </trkpt>
      <trkpt lat="43.32632" lon="-0.801">
        <ele>124.15</ele>
        <time>2021-08-20T09:54:52Z</time>
      </trkpt>
      <trkpt lat="43.32633" lon="-0.80106">
        <ele>124.15</ele>
        <time>2021-08-20T09:54:53Z</time>
      </trkpt>
      <trkpt lat="43.32637" lon="-0.80144">
        <ele>124.15</ele>
        <time>2021-08-20T09:54:59Z</time>
      </trkpt>
      <trkpt lat="43.32638" lon="-0.8015">
        <ele>124.15</ele>
        <time>2021-08-20T09:55:00Z</time>
      </trkpt>
      <trkpt lat="43.32646" lon="-0.80211">
        <ele>124.63</ele>
        <time>2021-08-20T09:55:10Z</time>
      </trkpt>
      <trkpt lat="43.32647" lon="-0.80234">
        <ele>124.63</ele>
        <time>2021-08-20T09:55:14Z</time>
      </trkpt>
      <trkpt lat="43.32647" lon="-0.8024">
        <ele>125.11</ele>
        <time>2021-08-20T09:55:15Z</time>
      </trkpt>
      <trkpt lat="43.32648" lon="-0.80244">
        <ele>125.11</ele>
        <time>2021-08-20T09:55:16Z</time>
      </trkpt>
      <trkpt lat="43.32647" lon="-0.80248">
        <ele>125.11</ele>
        <time>2021-08-20T09:55:17Z</time>
      </trkpt>
      <trkpt lat="43.32647" lon="-0.80252">
        <ele>125.11</ele>
        <time>2021-08-20T09:55:18Z</time>
      </trkpt>
      <trkpt lat="43.32647" lon="-0.80271">
        <ele>125.59</ele>
        <time>2021-08-20T09:55:24Z</time>
      </trkpt>
      <trkpt lat="43.32646" lon="-0.80281">
        <ele>126.07</ele>
        <time>2021-08-20T09:55:27Z</time>
      </trkpt>
      <trkpt lat="43.32646" lon="-0.80305">
        <ele>127.03</ele>
        <time>2021-08-20T09:55:34Z</time>
      </trkpt>
      <trkpt lat="43.32635" lon="-0.80332">
        <ele>127.51</ele>
        <time>2021-08-20T09:55:41Z</time>
      </trkpt>
      <trkpt lat="43.32629" lon="-0.8035">
        <ele>128.95</ele>
        <time>2021-08-20T09:55:47Z</time>
      </trkpt>
      <trkpt lat="43.32622" lon="-0.80367">
        <ele>129.92</ele>
        <time>2021-08-20T09:55:53Z</time>
      </trkpt>
      <trkpt lat="43.3262" lon="-0.80372">
        <ele>129.92</ele>
        <time>2021-08-20T09:55:55Z</time>
      </trkpt>
      <trkpt lat="43.32608" lon="-0.80393">
        <ele>130.88</ele>
        <time>2021-08-20T09:56:02Z</time>
      </trkpt>
      <trkpt lat="43.32599" lon="-0.80424">
        <ele>131.36</ele>
        <time>2021-08-20T09:56:09Z</time>
      </trkpt>
      <trkpt lat="43.32596" lon="-0.80446">
        <ele>131.84</ele>
        <time>2021-08-20T09:56:15Z</time>
      </trkpt>
      <trkpt lat="43.32597" lon="-0.80455">
        <ele>132.32</ele>
        <time>2021-08-20T09:56:18Z</time>
      </trkpt>
      <trkpt lat="43.32597" lon="-0.80458">
        <ele>132.32</ele>
        <time>2021-08-20T09:56:19Z</time>
      </trkpt>
      <trkpt lat="43.32597" lon="-0.80461">
        <ele>132.32</ele>
        <time>2021-08-20T09:56:20Z</time>
      </trkpt>
      <trkpt lat="43.32598" lon="-0.80464">
        <ele>132.32</ele>
        <time>2021-08-20T09:56:21Z</time>
      </trkpt>
      <trkpt lat="43.326" lon="-0.80467">
        <ele>132.32</ele>
        <time>2021-08-20T09:56:22Z</time>
      </trkpt>
      <trkpt lat="43.32604" lon="-0.80486">
        <ele>133.76</ele>
        <time>2021-08-20T09:56:29Z</time>
      </trkpt>
      <trkpt lat="43.32606" lon="-0.80493">
        <ele>133.76</ele>
        <time>2021-08-20T09:56:32Z</time>
      </trkpt>
      <trkpt lat="43.32609" lon="-0.80512">
        <ele>133.76</ele>
        <time>2021-08-20T09:56:39Z</time>
      </trkpt>
      <trkpt lat="43.32611" lon="-0.80516">
        <ele>133.76</ele>
        <time>2021-08-20T09:56:40Z</time>
      </trkpt>
      <trkpt lat="43.32612" lon="-0.80519">
        <ele>133.76</ele>
        <time>2021-08-20T09:56:41Z</time>
      </trkpt>
      <trkpt lat="43.32613" lon="-0.80522">
        <ele>133.76</ele>
        <time>2021-08-20T09:56:42Z</time>
      </trkpt>
      <trkpt lat="43.32614" lon="-0.80524">
        <ele>133.76</ele>
        <time>2021-08-20T09:56:43Z</time>
      </trkpt>
      <trkpt lat="43.32614" lon="-0.80526">
        <ele>134.24</ele>
        <time>2021-08-20T09:56:44Z</time>
      </trkpt>
      <trkpt lat="43.32615" lon="-0.80529">
        <ele>134.24</ele>
        <time>2021-08-20T09:56:45Z</time>
      </trkpt>
      <trkpt lat="43.32615" lon="-0.80532">
        <ele>134.24</ele>
        <time>2021-08-20T09:56:46Z</time>
      </trkpt>
      <trkpt lat="43.32615" lon="-0.80534">
        <ele>134.24</ele>
        <time>2021-08-20T09:56:47Z</time>
      </trkpt>
      <trkpt lat="43.32616" lon="-0.80537">
        <ele>134.72</ele>
        <time>2021-08-20T09:56:48Z</time>
      </trkpt>
      <trkpt lat="43.32616" lon="-0.80539">
        <ele>134.72</ele>
        <time>2021-08-20T09:56:49Z</time>
      </trkpt>
      <trkpt lat="43.32616" lon="-0.80541">
        <ele>134.72</ele>
        <time>2021-08-20T09:56:50Z</time>
      </trkpt>
      <trkpt lat="43.32616" lon="-0.80543">
        <ele>135.2</ele>
        <time>2021-08-20T09:56:51Z</time>
      </trkpt>
      <trkpt lat="43.32617" lon="-0.80544">
        <ele>135.2</ele>
        <time>2021-08-20T09:56:52Z</time>
      </trkpt>
      <trkpt lat="43.32618" lon="-0.80546">
        <ele>135.68</ele>
        <time>2021-08-20T09:56:53Z</time>
      </trkpt>
      <trkpt lat="43.32619" lon="-0.80547">
        <ele>135.68</ele>
        <time>2021-08-20T09:56:54Z</time>
      </trkpt>
      <trkpt lat="43.32624" lon="-0.80554">
        <ele>136.64</ele>
        <time>2021-08-20T09:57:01Z</time>
      </trkpt>
      <trkpt lat="43.32628" lon="-0.80564">
        <ele>138.57</ele>
        <time>2021-08-20T09:57:10Z</time>
      </trkpt>
      <trkpt lat="43.32631" lon="-0.80569">
        <ele>139.53</ele>
        <time>2021-08-20T09:57:17Z</time>
      </trkpt>
      <trkpt lat="43.32636" lon="-0.80576">
        <ele>140.49</ele>
        <time>2021-08-20T09:57:24Z</time>
      </trkpt>
      <trkpt lat="43.32641" lon="-0.80586">
        <ele>141.45</ele>
        <time>2021-08-20T09:57:31Z</time>
      </trkpt>
      <trkpt lat="43.32642" lon="-0.80588">
        <ele>141.45</ele>
        <time>2021-08-20T09:57:33Z</time>
      </trkpt>
      <trkpt lat="43.32646" lon="-0.80598">
        <ele>141.93</ele>
        <time>2021-08-20T09:57:40Z</time>
      </trkpt>
      <trkpt lat="43.3265" lon="-0.80605">
        <ele>143.37</ele>
        <time>2021-08-20T09:57:49Z</time>
      </trkpt>
      <trkpt lat="43.32654" lon="-0.80609">
        <ele>144.82</ele>
        <time>2021-08-20T09:57:57Z</time>
      </trkpt>
      <trkpt lat="43.32654" lon="-0.80611">
        <ele>144.82</ele>
        <time>2021-08-20T09:58:07Z</time>
      </trkpt>
      <trkpt lat="43.32657" lon="-0.80612">
        <ele>145.3</ele>
        <time>2021-08-20T09:58:27Z</time>
      </trkpt>
      <trkpt lat="43.32659" lon="-0.80614">
        <ele>145.3</ele>
        <time>2021-08-20T09:58:33Z</time>
      </trkpt>
      <trkpt lat="43.32673" lon="-0.80613">
        <ele>145.3</ele>
        <time>2021-08-20T09:58:40Z</time>
      </trkpt>
      <trkpt lat="43.32684" lon="-0.80612">
        <ele>143.85</ele>
        <time>2021-08-20T09:58:44Z</time>
      </trkpt>
      <trkpt lat="43.32706" lon="-0.80611">
        <ele>141.93</ele>
        <time>2021-08-20T09:58:50Z</time>
      </trkpt>
      <trkpt lat="43.3271" lon="-0.80611">
        <ele>141.45</ele>
        <time>2021-08-20T09:58:51Z</time>
      </trkpt>
      <trkpt lat="43.32715" lon="-0.80612">
        <ele>141.45</ele>
        <time>2021-08-20T09:58:52Z</time>
      </trkpt>
      <trkpt lat="43.32719" lon="-0.80611">
        <ele>141.45</ele>
        <time>2021-08-20T09:58:53Z</time>
      </trkpt>
      <trkpt lat="43.32722" lon="-0.80611">
        <ele>141.45</ele>
        <time>2021-08-20T09:58:54Z</time>
      </trkpt>
      <trkpt lat="43.32727" lon="-0.80609">
        <ele>141.45</ele>
        <time>2021-08-20T09:58:55Z</time>
      </trkpt>
      <trkpt lat="43.32732" lon="-0.80608">
        <ele>140.49</ele>
        <time>2021-08-20T09:58:56Z</time>
      </trkpt>
      <trkpt lat="43.32736" lon="-0.80606">
        <ele>139.53</ele>
        <time>2021-08-20T09:58:57Z</time>
      </trkpt>
      <trkpt lat="43.32744" lon="-0.80604">
        <ele>138.09</ele>
        <time>2021-08-20T09:58:59Z</time>
      </trkpt>
      <trkpt lat="43.3275" lon="-0.80603">
        <ele>137.13</ele>
        <time>2021-08-20T09:59:00Z</time>
      </trkpt>
      <trkpt lat="43.32757" lon="-0.80602">
        <ele>136.64</ele>
        <time>2021-08-20T09:59:01Z</time>
      </trkpt>
      <trkpt lat="43.32765" lon="-0.80603">
        <ele>135.68</ele>
        <time>2021-08-20T09:59:02Z</time>
      </trkpt>
      <trkpt lat="43.32771" lon="-0.80605">
        <ele>135.68</ele>
        <time>2021-08-20T09:59:03Z</time>
      </trkpt>
      <trkpt lat="43.32814" lon="-0.80627">
        <ele>133.28</ele>
        <time>2021-08-20T09:59:10Z</time>
      </trkpt>
      <trkpt lat="43.32841" lon="-0.80649">
        <ele>131.36</ele>
        <time>2021-08-20T09:59:15Z</time>
      </trkpt>
      <trkpt lat="43.32859" lon="-0.80662">
        <ele>127.99</ele>
        <time>2021-08-20T09:59:18Z</time>
      </trkpt>
      <trkpt lat="43.32866" lon="-0.80666">
        <ele>127.51</ele>
        <time>2021-08-20T09:59:19Z</time>
      </trkpt>
      <trkpt lat="43.32871" lon="-0.80673">
        <ele>127.03</ele>
        <time>2021-08-20T09:59:20Z</time>
      </trkpt>
      <trkpt lat="43.32877" lon="-0.8068">
        <ele>127.03</ele>
        <time>2021-08-20T09:59:21Z</time>
      </trkpt>
      <trkpt lat="43.32883" lon="-0.80689">
        <ele>127.03</ele>
        <time>2021-08-20T09:59:22Z</time>
      </trkpt>
      <trkpt lat="43.32891" lon="-0.80704">
        <ele>127.03</ele>
        <time>2021-08-20T09:59:24Z</time>
      </trkpt>
      <trkpt lat="43.32894" lon="-0.80711">
        <ele>127.03</ele>
        <time>2021-08-20T09:59:25Z</time>
      </trkpt>
      <trkpt lat="43.32896" lon="-0.80718">
        <ele>127.03</ele>
        <time>2021-08-20T09:59:26Z</time>
      </trkpt>
      <trkpt lat="43.32899" lon="-0.80723">
        <ele>127.03</ele>
        <time>2021-08-20T09:59:27Z</time>
      </trkpt>
      <trkpt lat="43.32903" lon="-0.80726">
        <ele>127.03</ele>
        <time>2021-08-20T09:59:28Z</time>
      </trkpt>
      <trkpt lat="43.32907" lon="-0.80728">
        <ele>127.03</ele>
        <time>2021-08-20T09:59:29Z</time>
      </trkpt>
      <trkpt lat="43.32911" lon="-0.8073">
        <ele>127.03</ele>
        <time>2021-08-20T09:59:30Z</time>
      </trkpt>
      <trkpt lat="43.32914" lon="-0.8073">
        <ele>127.03</ele>
        <time>2021-08-20T09:59:31Z</time>
      </trkpt>
      <trkpt lat="43.32918" lon="-0.80728">
        <ele>127.03</ele>
        <time>2021-08-20T09:59:32Z</time>
      </trkpt>
      <trkpt lat="43.32921" lon="-0.80726">
        <ele>127.03</ele>
        <time>2021-08-20T09:59:33Z</time>
      </trkpt>
      <trkpt lat="43.32924" lon="-0.80724">
        <ele>127.03</ele>
        <time>2021-08-20T09:59:34Z</time>
      </trkpt>
      <trkpt lat="43.32928" lon="-0.80722">
        <ele>127.03</ele>
        <time>2021-08-20T09:59:35Z</time>
      </trkpt>
      <trkpt lat="43.32931" lon="-0.80722">
        <ele>127.03</ele>
        <time>2021-08-20T09:59:36Z</time>
      </trkpt>
      <trkpt lat="43.32934" lon="-0.80723">
        <ele>127.03</ele>
        <time>2021-08-20T09:59:37Z</time>
      </trkpt>
      <trkpt lat="43.32937" lon="-0.80724">
        <ele>127.03</ele>
        <time>2021-08-20T09:59:38Z</time>
      </trkpt>
      <trkpt lat="43.3294" lon="-0.80727">
        <ele>127.03</ele>
        <time>2021-08-20T09:59:39Z</time>
      </trkpt>
      <trkpt lat="43.32955" lon="-0.80739">
        <ele>127.03</ele>
        <time>2021-08-20T09:59:44Z</time>
      </trkpt>
      <trkpt lat="43.32955" lon="-0.80743">
        <ele>128.47</ele>
        <time>2021-08-20T09:59:45Z</time>
      </trkpt>
      <trkpt lat="43.32955" lon="-0.80747">
        <ele>128.47</ele>
        <time>2021-08-20T09:59:46Z</time>
      </trkpt>
      <trkpt lat="43.32955" lon="-0.80752">
        <ele>128.47</ele>
        <time>2021-08-20T09:59:47Z</time>
      </trkpt>
      <trkpt lat="43.32954" lon="-0.80756">
        <ele>128.47</ele>
        <time>2021-08-20T09:59:48Z</time>
      </trkpt>
      <trkpt lat="43.32949" lon="-0.80784">
        <ele>128.95</ele>
        <time>2021-08-20T09:59:53Z</time>
      </trkpt>
      <trkpt lat="43.32947" lon="-0.8079">
        <ele>128.95</ele>
        <time>2021-08-20T09:59:54Z</time>
      </trkpt>
      <trkpt lat="43.32946" lon="-0.80795">
        <ele>128.95</ele>
        <time>2021-08-20T09:59:55Z</time>
      </trkpt>
      <trkpt lat="43.32941" lon="-0.80814">
        <ele>128.95</ele>
        <time>2021-08-20T09:59:58Z</time>
      </trkpt>
      <trkpt lat="43.3293" lon="-0.80858">
        <ele>128.95</ele>
        <time>2021-08-20T10:00:05Z</time>
      </trkpt>
      <trkpt lat="43.32914" lon="-0.80907">
        <ele>128.95</ele>
        <time>2021-08-20T10:00:12Z</time>
      </trkpt>
      <trkpt lat="43.3291" lon="-0.80915">
        <ele>128.95</ele>
        <time>2021-08-20T10:00:13Z</time>
      </trkpt>
      <trkpt lat="43.32907" lon="-0.80921">
        <ele>128.95</ele>
        <time>2021-08-20T10:00:14Z</time>
      </trkpt>
      <trkpt lat="43.32903" lon="-0.80928">
        <ele>128.95</ele>
        <time>2021-08-20T10:00:15Z</time>
      </trkpt>
      <trkpt lat="43.32899" lon="-0.80934">
        <ele>128.95</ele>
        <time>2021-08-20T10:00:16Z</time>
      </trkpt>
      <trkpt lat="43.32894" lon="-0.80939">
        <ele>128.95</ele>
        <time>2021-08-20T10:00:17Z</time>
      </trkpt>
      <trkpt lat="43.32888" lon="-0.80944">
        <ele>128.95</ele>
        <time>2021-08-20T10:00:18Z</time>
      </trkpt>
      <trkpt lat="43.32883" lon="-0.80948">
        <ele>128.95</ele>
        <time>2021-08-20T10:00:19Z</time>
      </trkpt>
      <trkpt lat="43.3283" lon="-0.80987">
        <ele>128.95</ele>
        <time>2021-08-20T10:00:29Z</time>
      </trkpt>
      <trkpt lat="43.32778" lon="-0.81021">
        <ele>129.43</ele>
        <time>2021-08-20T10:00:40Z</time>
      </trkpt>
      <trkpt lat="43.32737" lon="-0.81035">
        <ele>129.92</ele>
        <time>2021-08-20T10:00:49Z</time>
      </trkpt>
      <trkpt lat="43.32729" lon="-0.8104">
        <ele>129.92</ele>
        <time>2021-08-20T10:00:51Z</time>
      </trkpt>
      <trkpt lat="43.32717" lon="-0.81049">
        <ele>130.4</ele>
        <time>2021-08-20T10:00:54Z</time>
      </trkpt>
      <trkpt lat="43.32714" lon="-0.81053">
        <ele>130.4</ele>
        <time>2021-08-20T10:00:55Z</time>
      </trkpt>
      <trkpt lat="43.32683" lon="-0.811">
        <ele>130.88</ele>
        <time>2021-08-20T10:01:04Z</time>
      </trkpt>
      <trkpt lat="43.32646" lon="-0.81163">
        <ele>131.36</ele>
        <time>2021-08-20T10:01:15Z</time>
      </trkpt>
      <trkpt lat="43.3264" lon="-0.81174">
        <ele>131.36</ele>
        <time>2021-08-20T10:01:17Z</time>
      </trkpt>
      <trkpt lat="43.32638" lon="-0.81181">
        <ele>131.36</ele>
        <time>2021-08-20T10:01:18Z</time>
      </trkpt>
      <trkpt lat="43.32634" lon="-0.81194">
        <ele>131.36</ele>
        <time>2021-08-20T10:01:20Z</time>
      </trkpt>
      <trkpt lat="43.32624" lon="-0.81254">
        <ele>131.36</ele>
        <time>2021-08-20T10:01:28Z</time>
      </trkpt>
      <trkpt lat="43.32614" lon="-0.81289">
        <ele>131.36</ele>
        <time>2021-08-20T10:01:33Z</time>
      </trkpt>
      <trkpt lat="43.32603" lon="-0.81307">
        <ele>131.84</ele>
        <time>2021-08-20T10:01:36Z</time>
      </trkpt>
      <trkpt lat="43.3256" lon="-0.81354">
        <ele>131.84</ele>
        <time>2021-08-20T10:01:46Z</time>
      </trkpt>
      <trkpt lat="43.32526" lon="-0.81391">
        <ele>131.84</ele>
        <time>2021-08-20T10:01:54Z</time>
      </trkpt>
      <trkpt lat="43.32506" lon="-0.81422">
        <ele>131.84</ele>
        <time>2021-08-20T10:01:59Z</time>
      </trkpt>
      <trkpt lat="43.32479" lon="-0.81476">
        <ele>132.8</ele>
        <time>2021-08-20T10:02:07Z</time>
      </trkpt>
      <trkpt lat="43.32476" lon="-0.81483">
        <ele>132.32</ele>
        <time>2021-08-20T10:02:08Z</time>
      </trkpt>
      <trkpt lat="43.32474" lon="-0.81491">
        <ele>132.32</ele>
        <time>2021-08-20T10:02:09Z</time>
      </trkpt>
      <trkpt lat="43.32473" lon="-0.81499">
        <ele>132.8</ele>
        <time>2021-08-20T10:02:10Z</time>
      </trkpt>
      <trkpt lat="43.32471" lon="-0.81515">
        <ele>132.32</ele>
        <time>2021-08-20T10:02:12Z</time>
      </trkpt>
      <trkpt lat="43.3247" lon="-0.81522">
        <ele>132.8</ele>
        <time>2021-08-20T10:02:13Z</time>
      </trkpt>
      <trkpt lat="43.32474" lon="-0.81586">
        <ele>134.24</ele>
        <time>2021-08-20T10:02:22Z</time>
      </trkpt>
      <trkpt lat="43.32487" lon="-0.81653">
        <ele>134.72</ele>
        <time>2021-08-20T10:02:32Z</time>
      </trkpt>
      <trkpt lat="43.32499" lon="-0.81722">
        <ele>134.72</ele>
        <time>2021-08-20T10:02:41Z</time>
      </trkpt>
      <trkpt lat="43.32505" lon="-0.81757">
        <ele>133.76</ele>
        <time>2021-08-20T10:02:45Z</time>
      </trkpt>
      <trkpt lat="43.32506" lon="-0.81765">
        <ele>133.76</ele>
        <time>2021-08-20T10:02:46Z</time>
      </trkpt>
      <trkpt lat="43.32506" lon="-0.81815">
        <ele>134.72</ele>
        <time>2021-08-20T10:02:52Z</time>
      </trkpt>
      <trkpt lat="43.32492" lon="-0.81888">
        <ele>134.72</ele>
        <time>2021-08-20T10:03:01Z</time>
      </trkpt>
      <trkpt lat="43.32481" lon="-0.81948">
        <ele>134.72</ele>
        <time>2021-08-20T10:03:08Z</time>
      </trkpt>
      <trkpt lat="43.32465" lon="-0.82017">
        <ele>134.72</ele>
        <time>2021-08-20T10:03:16Z</time>
      </trkpt>
      <trkpt lat="43.32464" lon="-0.82025">
        <ele>134.72</ele>
        <time>2021-08-20T10:03:17Z</time>
      </trkpt>
      <trkpt lat="43.32464" lon="-0.82031">
        <ele>135.2</ele>
        <time>2021-08-20T10:03:18Z</time>
      </trkpt>
      <trkpt lat="43.32466" lon="-0.82034">
        <ele>135.2</ele>
        <time>2021-08-20T10:03:19Z</time>
      </trkpt>
      <trkpt lat="43.32469" lon="-0.82038">
        <ele>135.2</ele>
        <time>2021-08-20T10:03:20Z</time>
      </trkpt>
      <trkpt lat="43.32472" lon="-0.82041">
        <ele>135.2</ele>
        <time>2021-08-20T10:03:21Z</time>
      </trkpt>
      <trkpt lat="43.32478" lon="-0.82053">
        <ele>135.2</ele>
        <time>2021-08-20T10:03:24Z</time>
      </trkpt>
      <trkpt lat="43.3248" lon="-0.82059">
        <ele>135.68</ele>
        <time>2021-08-20T10:03:25Z</time>
      </trkpt>
      <trkpt lat="43.32481" lon="-0.82064">
        <ele>135.68</ele>
        <time>2021-08-20T10:03:26Z</time>
      </trkpt>
      <trkpt lat="43.32482" lon="-0.8207">
        <ele>135.68</ele>
        <time>2021-08-20T10:03:27Z</time>
      </trkpt>
      <trkpt lat="43.32482" lon="-0.82078">
        <ele>135.68</ele>
        <time>2021-08-20T10:03:28Z</time>
      </trkpt>
      <trkpt lat="43.32481" lon="-0.82085">
        <ele>135.68</ele>
        <time>2021-08-20T10:03:29Z</time>
      </trkpt>
      <trkpt lat="43.32481" lon="-0.82091">
        <ele>135.68</ele>
        <time>2021-08-20T10:03:30Z</time>
      </trkpt>
      <trkpt lat="43.3248" lon="-0.82097">
        <ele>135.68</ele>
        <time>2021-08-20T10:03:31Z</time>
      </trkpt>
      <trkpt lat="43.32479" lon="-0.82103">
        <ele>136.16</ele>
        <time>2021-08-20T10:03:32Z</time>
      </trkpt>
      <trkpt lat="43.32479" lon="-0.82111">
        <ele>136.16</ele>
        <time>2021-08-20T10:03:33Z</time>
      </trkpt>
      <trkpt lat="43.32479" lon="-0.82117">
        <ele>136.16</ele>
        <time>2021-08-20T10:03:34Z</time>
      </trkpt>
      <trkpt lat="43.32479" lon="-0.82124">
        <ele>136.16</ele>
        <time>2021-08-20T10:03:35Z</time>
      </trkpt>
      <trkpt lat="43.3248" lon="-0.82129">
        <ele>136.16</ele>
        <time>2021-08-20T10:03:36Z</time>
      </trkpt>
      <trkpt lat="43.32481" lon="-0.82134">
        <ele>136.16</ele>
        <time>2021-08-20T10:03:37Z</time>
      </trkpt>
      <trkpt lat="43.32482" lon="-0.82139">
        <ele>136.16</ele>
        <time>2021-08-20T10:03:38Z</time>
      </trkpt>
      <trkpt lat="43.32483" lon="-0.82143">
        <ele>136.64</ele>
        <time>2021-08-20T10:03:39Z</time>
      </trkpt>
      <trkpt lat="43.32484" lon="-0.82147">
        <ele>137.13</ele>
        <time>2021-08-20T10:03:40Z</time>
      </trkpt>
      <trkpt lat="43.32486" lon="-0.82149">
        <ele>137.13</ele>
        <time>2021-08-20T10:03:41Z</time>
      </trkpt>
      <trkpt lat="43.32488" lon="-0.8215">
        <ele>137.61</ele>
        <time>2021-08-20T10:03:42Z</time>
      </trkpt>
      <trkpt lat="43.3249" lon="-0.82152">
        <ele>137.61</ele>
        <time>2021-08-20T10:03:43Z</time>
      </trkpt>
      <trkpt lat="43.32498" lon="-0.82163">
        <ele>140.49</ele>
        <time>2021-08-20T10:03:49Z</time>
      </trkpt>
      <trkpt lat="43.32499" lon="-0.82165">
        <ele>140.97</ele>
        <time>2021-08-20T10:03:50Z</time>
      </trkpt>
      <trkpt lat="43.32504" lon="-0.82186">
        <ele>142.41</ele>
        <time>2021-08-20T10:03:58Z</time>
      </trkpt>
      <trkpt lat="43.32508" lon="-0.82206">
        <ele>144.34</ele>
        <time>2021-08-20T10:04:08Z</time>
      </trkpt>
      <trkpt lat="43.32513" lon="-0.82223">
        <ele>145.78</ele>
        <time>2021-08-20T10:04:17Z</time>
      </trkpt>
      <trkpt lat="43.32524" lon="-0.82235">
        <ele>147.7</ele>
        <time>2021-08-20T10:04:26Z</time>
      </trkpt>
      <trkpt lat="43.32533" lon="-0.82247">
        <ele>149.14</ele>
        <time>2021-08-20T10:04:34Z</time>
      </trkpt>
      <trkpt lat="43.32548" lon="-0.82259">
        <ele>151.06</ele>
        <time>2021-08-20T10:04:44Z</time>
      </trkpt>
      <trkpt lat="43.32556" lon="-0.82282">
        <ele>151.54</ele>
        <time>2021-08-20T10:04:51Z</time>
      </trkpt>
      <trkpt lat="43.32565" lon="-0.823">
        <ele>152.03</ele>
        <time>2021-08-20T10:04:56Z</time>
      </trkpt>
      <trkpt lat="43.32568" lon="-0.82302">
        <ele>152.51</ele>
        <time>2021-08-20T10:04:57Z</time>
      </trkpt>
      <trkpt lat="43.3257" lon="-0.82304">
        <ele>152.51</ele>
        <time>2021-08-20T10:04:58Z</time>
      </trkpt>
      <trkpt lat="43.32572" lon="-0.82307">
        <ele>152.51</ele>
        <time>2021-08-20T10:04:59Z</time>
      </trkpt>
      <trkpt lat="43.32574" lon="-0.82311">
        <ele>152.51</ele>
        <time>2021-08-20T10:05:00Z</time>
      </trkpt>
      <trkpt lat="43.32576" lon="-0.82314">
        <ele>152.99</ele>
        <time>2021-08-20T10:05:01Z</time>
      </trkpt>
      <trkpt lat="43.32587" lon="-0.82335">
        <ele>152.99</ele>
        <time>2021-08-20T10:05:06Z</time>
      </trkpt>
      <trkpt lat="43.32608" lon="-0.82369">
        <ele>153.95</ele>
        <time>2021-08-20T10:05:15Z</time>
      </trkpt>
      <trkpt lat="43.32627" lon="-0.82405">
        <ele>155.39</ele>
        <time>2021-08-20T10:05:25Z</time>
      </trkpt>
      <trkpt lat="43.32646" lon="-0.82437">
        <ele>156.83</ele>
        <time>2021-08-20T10:05:35Z</time>
      </trkpt>
      <trkpt lat="43.32658" lon="-0.82457">
        <ele>157.79</ele>
        <time>2021-08-20T10:05:43Z</time>
      </trkpt>
      <trkpt lat="43.32673" lon="-0.82478">
        <ele>158.27</ele>
        <time>2021-08-20T10:05:50Z</time>
      </trkpt>
      <trkpt lat="43.32694" lon="-0.82513">
        <ele>158.75</ele>
        <time>2021-08-20T10:05:58Z</time>
      </trkpt>
      <trkpt lat="43.32712" lon="-0.82546">
        <ele>160.68</ele>
        <time>2021-08-20T10:06:07Z</time>
      </trkpt>
      <trkpt lat="43.32729" lon="-0.82577">
        <ele>162.12</ele>
        <time>2021-08-20T10:06:17Z</time>
      </trkpt>
      <trkpt lat="43.32746" lon="-0.82605">
        <ele>163.08</ele>
        <time>2021-08-20T10:06:25Z</time>
      </trkpt>
      <trkpt lat="43.3276" lon="-0.82611">
        <ele>164.04</ele>
        <time>2021-08-20T10:06:30Z</time>
      </trkpt>
      <trkpt lat="43.32762" lon="-0.8261">
        <ele>164.04</ele>
        <time>2021-08-20T10:06:31Z</time>
      </trkpt>
      <trkpt lat="43.32764" lon="-0.82607">
        <ele>164.04</ele>
        <time>2021-08-20T10:06:32Z</time>
      </trkpt>
      <trkpt lat="43.32784" lon="-0.82585">
        <ele>165</ele>
        <time>2021-08-20T10:06:40Z</time>
      </trkpt>
      <trkpt lat="43.32807" lon="-0.82568">
        <ele>165</ele>
        <time>2021-08-20T10:06:47Z</time>
      </trkpt>
      <trkpt lat="43.3281" lon="-0.82569">
        <ele>165</ele>
        <time>2021-08-20T10:06:48Z</time>
      </trkpt>
      <trkpt lat="43.32812" lon="-0.82571">
        <ele>165</ele>
        <time>2021-08-20T10:06:49Z</time>
      </trkpt>
      <trkpt lat="43.32815" lon="-0.82574">
        <ele>165.48</ele>
        <time>2021-08-20T10:06:50Z</time>
      </trkpt>
      <trkpt lat="43.32817" lon="-0.82577">
        <ele>165.48</ele>
        <time>2021-08-20T10:06:51Z</time>
      </trkpt>
      <trkpt lat="43.32819" lon="-0.8258">
        <ele>165.48</ele>
        <time>2021-08-20T10:06:52Z</time>
      </trkpt>
      <trkpt lat="43.32836" lon="-0.82601">
        <ele>166.93</ele>
        <time>2021-08-20T10:06:59Z</time>
      </trkpt>
      <trkpt lat="43.32853" lon="-0.82624">
        <ele>167.89</ele>
        <time>2021-08-20T10:07:06Z</time>
      </trkpt>
      <trkpt lat="43.3288" lon="-0.82655">
        <ele>167.89</ele>
        <time>2021-08-20T10:07:16Z</time>
      </trkpt>
      <trkpt lat="43.32902" lon="-0.82681">
        <ele>168.37</ele>
        <time>2021-08-20T10:07:24Z</time>
      </trkpt>
      <trkpt lat="43.32912" lon="-0.82691">
        <ele>168.37</ele>
        <time>2021-08-20T10:07:27Z</time>
      </trkpt>
      <trkpt lat="43.32916" lon="-0.82695">
        <ele>168.37</ele>
        <time>2021-08-20T10:07:28Z</time>
      </trkpt>
      <trkpt lat="43.32938" lon="-0.8272">
        <ele>166.93</ele>
        <time>2021-08-20T10:07:34Z</time>
      </trkpt>
      <trkpt lat="43.32956" lon="-0.82737">
        <ele>167.41</ele>
        <time>2021-08-20T10:07:38Z</time>
      </trkpt>
      <trkpt lat="43.32961" lon="-0.82741">
        <ele>166.93</ele>
        <time>2021-08-20T10:07:39Z</time>
      </trkpt>
      <trkpt lat="43.32965" lon="-0.82745">
        <ele>166.93</ele>
        <time>2021-08-20T10:07:40Z</time>
      </trkpt>
      <trkpt lat="43.3297" lon="-0.82749">
        <ele>166.93</ele>
        <time>2021-08-20T10:07:41Z</time>
      </trkpt>
      <trkpt lat="43.32975" lon="-0.82753">
        <ele>166.45</ele>
        <time>2021-08-20T10:07:42Z</time>
      </trkpt>
      <trkpt lat="43.3298" lon="-0.82756">
        <ele>166.45</ele>
        <time>2021-08-20T10:07:43Z</time>
      </trkpt>
      <trkpt lat="43.33022" lon="-0.8279">
        <ele>165.96</ele>
        <time>2021-08-20T10:07:51Z</time>
      </trkpt>
      <trkpt lat="43.3306" lon="-0.82825">
        <ele>165.96</ele>
        <time>2021-08-20T10:07:59Z</time>
      </trkpt>
      <trkpt lat="43.33068" lon="-0.82831">
        <ele>167.41</ele>
        <time>2021-08-20T10:08:01Z</time>
      </trkpt>
      <trkpt lat="43.33095" lon="-0.82856">
        <ele>169.81</ele>
        <time>2021-08-20T10:08:09Z</time>
      </trkpt>
      <trkpt lat="43.33112" lon="-0.82879">
        <ele>170.29</ele>
        <time>2021-08-20T10:08:16Z</time>
      </trkpt>
      <trkpt lat="43.33127" lon="-0.82908">
        <ele>171.73</ele>
        <time>2021-08-20T10:08:23Z</time>
      </trkpt>
      <trkpt lat="43.33137" lon="-0.82928">
        <ele>172.69</ele>
        <time>2021-08-20T10:08:29Z</time>
      </trkpt>
      <trkpt lat="43.33147" lon="-0.82954">
        <ele>174.14</ele>
        <time>2021-08-20T10:08:37Z</time>
      </trkpt>
      <trkpt lat="43.33155" lon="-0.82977">
        <ele>175.1</ele>
        <time>2021-08-20T10:08:44Z</time>
      </trkpt>
      <trkpt lat="43.3316" lon="-0.83002">
        <ele>177.02</ele>
        <time>2021-08-20T10:08:51Z</time>
      </trkpt>
      <trkpt lat="43.3316" lon="-0.83005">
        <ele>177.02</ele>
        <time>2021-08-20T10:08:52Z</time>
      </trkpt>
      <trkpt lat="43.33161" lon="-0.83009">
        <ele>177.02</ele>
        <time>2021-08-20T10:08:53Z</time>
      </trkpt>
      <trkpt lat="43.33161" lon="-0.83013">
        <ele>177.02</ele>
        <time>2021-08-20T10:08:54Z</time>
      </trkpt>
      <trkpt lat="43.33162" lon="-0.83017">
        <ele>177.02</ele>
        <time>2021-08-20T10:08:55Z</time>
      </trkpt>
      <trkpt lat="43.33162" lon="-0.83021">
        <ele>177.5</ele>
        <time>2021-08-20T10:08:56Z</time>
      </trkpt>
      <trkpt lat="43.33163" lon="-0.83043">
        <ele>177.5</ele>
        <time>2021-08-20T10:09:01Z</time>
      </trkpt>
      <trkpt lat="43.33163" lon="-0.83076">
        <ele>177.5</ele>
        <time>2021-08-20T10:09:07Z</time>
      </trkpt>
      <trkpt lat="43.3316" lon="-0.83083">
        <ele>177.5</ele>
        <time>2021-08-20T10:09:09Z</time>
      </trkpt>
      <trkpt lat="43.33157" lon="-0.83084">
        <ele>177.5</ele>
        <time>2021-08-20T10:09:10Z</time>
      </trkpt>
      <trkpt lat="43.33154" lon="-0.83084">
        <ele>177.5</ele>
        <time>2021-08-20T10:09:11Z</time>
      </trkpt>
      <trkpt lat="43.33151" lon="-0.83083">
        <ele>177.5</ele>
        <time>2021-08-20T10:09:12Z</time>
      </trkpt>
      <trkpt lat="43.33148" lon="-0.83082">
        <ele>177.5</ele>
        <time>2021-08-20T10:09:13Z</time>
      </trkpt>
      <trkpt lat="43.33144" lon="-0.83081">
        <ele>177.5</ele>
        <time>2021-08-20T10:09:14Z</time>
      </trkpt>
      <trkpt lat="43.33125" lon="-0.83075">
        <ele>177.5</ele>
        <time>2021-08-20T10:09:19Z</time>
      </trkpt>
      <trkpt lat="43.33107" lon="-0.83066">
        <ele>176.06</ele>
        <time>2021-08-20T10:09:23Z</time>
      </trkpt>
      <trkpt lat="43.33079" lon="-0.83048">
        <ele>173.66</ele>
        <time>2021-08-20T10:09:28Z</time>
      </trkpt>
      <trkpt lat="43.33066" lon="-0.83039">
        <ele>172.21</ele>
        <time>2021-08-20T10:09:30Z</time>
      </trkpt>
      <trkpt lat="43.3306" lon="-0.83033">
        <ele>172.21</ele>
        <time>2021-08-20T10:09:31Z</time>
      </trkpt>
      <trkpt lat="43.33028" lon="-0.83007">
        <ele>170.77</ele>
        <time>2021-08-20T10:09:36Z</time>
      </trkpt>
      <trkpt lat="43.3302" lon="-0.83004">
        <ele>169.81</ele>
        <time>2021-08-20T10:09:37Z</time>
      </trkpt>
      <trkpt lat="43.33012" lon="-0.83004">
        <ele>169.81</ele>
        <time>2021-08-20T10:09:38Z</time>
      </trkpt>
      <trkpt lat="43.33004" lon="-0.83005">
        <ele>168.37</ele>
        <time>2021-08-20T10:09:39Z</time>
      </trkpt>
      <trkpt lat="43.32995" lon="-0.83007">
        <ele>167.41</ele>
        <time>2021-08-20T10:09:40Z</time>
      </trkpt>
      <trkpt lat="43.3296" lon="-0.83015">
        <ele>165.48</ele>
        <time>2021-08-20T10:09:44Z</time>
      </trkpt>
      <trkpt lat="43.32951" lon="-0.83015">
        <ele>164.52</ele>
        <time>2021-08-20T10:09:45Z</time>
      </trkpt>
      <trkpt lat="43.32885" lon="-0.83005">
        <ele>163.56</ele>
        <time>2021-08-20T10:09:53Z</time>
      </trkpt>
      <trkpt lat="43.3287" lon="-0.83001">
        <ele>162.6</ele>
        <time>2021-08-20T10:09:55Z</time>
      </trkpt>
      <trkpt lat="43.32838" lon="-0.8299">
        <ele>160.68</ele>
        <time>2021-08-20T10:09:59Z</time>
      </trkpt>
      <trkpt lat="43.32798" lon="-0.82976">
        <ele>157.31</ele>
        <time>2021-08-20T10:10:04Z</time>
      </trkpt>
      <trkpt lat="43.32781" lon="-0.8297">
        <ele>156.35</ele>
        <time>2021-08-20T10:10:06Z</time>
      </trkpt>
      <trkpt lat="43.32742" lon="-0.82955">
        <ele>153.47</ele>
        <time>2021-08-20T10:10:11Z</time>
      </trkpt>
      <trkpt lat="43.32721" lon="-0.82945">
        <ele>150.1</ele>
        <time>2021-08-20T10:10:14Z</time>
      </trkpt>
      <trkpt lat="43.32693" lon="-0.82933">
        <ele>147.22</ele>
        <time>2021-08-20T10:10:19Z</time>
      </trkpt>
      <trkpt lat="43.32688" lon="-0.82934">
        <ele>146.26</ele>
        <time>2021-08-20T10:10:20Z</time>
      </trkpt>
      <trkpt lat="43.32683" lon="-0.82938">
        <ele>145.78</ele>
        <time>2021-08-20T10:10:21Z</time>
      </trkpt>
      <trkpt lat="43.32678" lon="-0.82944">
        <ele>145.3</ele>
        <time>2021-08-20T10:10:22Z</time>
      </trkpt>
      <trkpt lat="43.32673" lon="-0.82952">
        <ele>144.34</ele>
        <time>2021-08-20T10:10:23Z</time>
      </trkpt>
      <trkpt lat="43.32668" lon="-0.8296">
        <ele>142.89</ele>
        <time>2021-08-20T10:10:24Z</time>
      </trkpt>
      <trkpt lat="43.32644" lon="-0.82994">
        <ele>139.53</ele>
        <time>2021-08-20T10:10:28Z</time>
      </trkpt>
      <trkpt lat="43.32629" lon="-0.83017">
        <ele>137.61</ele>
        <time>2021-08-20T10:10:31Z</time>
      </trkpt>
      <trkpt lat="43.32628" lon="-0.83025">
        <ele>137.61</ele>
        <time>2021-08-20T10:10:32Z</time>
      </trkpt>
      <trkpt lat="43.32629" lon="-0.8303">
        <ele>137.13</ele>
        <time>2021-08-20T10:10:33Z</time>
      </trkpt>
      <trkpt lat="43.32631" lon="-0.83034">
        <ele>138.57</ele>
        <time>2021-08-20T10:10:34Z</time>
      </trkpt>
      <trkpt lat="43.32633" lon="-0.83037">
        <ele>138.57</ele>
        <time>2021-08-20T10:10:35Z</time>
      </trkpt>
      <trkpt lat="43.32642" lon="-0.83061">
        <ele>139.53</ele>
        <time>2021-08-20T10:10:42Z</time>
      </trkpt>
      <trkpt lat="43.32642" lon="-0.8309">
        <ele>140.01</ele>
        <time>2021-08-20T10:10:49Z</time>
      </trkpt>
      <trkpt lat="43.3263" lon="-0.83107">
        <ele>140.01</ele>
        <time>2021-08-20T10:10:55Z</time>
      </trkpt>
      <trkpt lat="43.32618" lon="-0.8313">
        <ele>140.49</ele>
        <time>2021-08-20T10:11:02Z</time>
      </trkpt>
      <trkpt lat="43.32616" lon="-0.83136">
        <ele>140.97</ele>
        <time>2021-08-20T10:11:04Z</time>
      </trkpt>
      <trkpt lat="43.32613" lon="-0.8314">
        <ele>140.97</ele>
        <time>2021-08-20T10:11:05Z</time>
      </trkpt>
      <trkpt lat="43.32601" lon="-0.83158">
        <ele>142.41</ele>
        <time>2021-08-20T10:11:13Z</time>
      </trkpt>
      <trkpt lat="43.32593" lon="-0.83165">
        <ele>144.34</ele>
        <time>2021-08-20T10:11:20Z</time>
      </trkpt>
      <trkpt lat="43.32581" lon="-0.8317">
        <ele>146.26</ele>
        <time>2021-08-20T10:11:29Z</time>
      </trkpt>
      <trkpt lat="43.32567" lon="-0.83169">
        <ele>147.22</ele>
        <time>2021-08-20T10:11:36Z</time>
      </trkpt>
      <trkpt lat="43.32553" lon="-0.83159">
        <ele>149.62</ele>
        <time>2021-08-20T10:11:46Z</time>
      </trkpt>
      <trkpt lat="43.3255" lon="-0.83157">
        <ele>150.1</ele>
        <time>2021-08-20T10:11:48Z</time>
      </trkpt>
      <trkpt lat="43.32546" lon="-0.83153">
        <ele>150.58</ele>
        <time>2021-08-20T10:11:52Z</time>
      </trkpt>
      <trkpt lat="43.32536" lon="-0.83145">
        <ele>152.51</ele>
        <time>2021-08-20T10:12:00Z</time>
      </trkpt>
      <trkpt lat="43.32532" lon="-0.83144">
        <ele>153.47</ele>
        <time>2021-08-20T10:12:04Z</time>
      </trkpt>
      <trkpt lat="43.32523" lon="-0.8315">
        <ele>154.91</ele>
        <time>2021-08-20T10:12:13Z</time>
      </trkpt>
      <trkpt lat="43.32515" lon="-0.83155">
        <ele>156.83</ele>
        <time>2021-08-20T10:12:20Z</time>
      </trkpt>
      <trkpt lat="43.32509" lon="-0.83161">
        <ele>157.79</ele>
        <time>2021-08-20T10:12:25Z</time>
      </trkpt>
      <trkpt lat="43.32501" lon="-0.83176">
        <ele>159.72</ele>
        <time>2021-08-20T10:12:35Z</time>
      </trkpt>
      <trkpt lat="43.32498" lon="-0.83191">
        <ele>160.68</ele>
        <time>2021-08-20T10:12:42Z</time>
      </trkpt>
      <trkpt lat="43.3249" lon="-0.83206">
        <ele>162.12</ele>
        <time>2021-08-20T10:12:50Z</time>
      </trkpt>
      <trkpt lat="43.32483" lon="-0.83217">
        <ele>163.56</ele>
        <time>2021-08-20T10:12:57Z</time>
      </trkpt>
      <trkpt lat="43.32481" lon="-0.83222">
        <ele>164.04</ele>
        <time>2021-08-20T10:13:00Z</time>
      </trkpt>
      <trkpt lat="43.3247" lon="-0.83241">
        <ele>165.96</ele>
        <time>2021-08-20T10:13:10Z</time>
      </trkpt>
      <trkpt lat="43.32459" lon="-0.83259">
        <ele>166.45</ele>
        <time>2021-08-20T10:13:18Z</time>
      </trkpt>
      <trkpt lat="43.32445" lon="-0.83282">
        <ele>168.37</ele>
        <time>2021-08-20T10:13:27Z</time>
      </trkpt>
      <trkpt lat="43.32435" lon="-0.83299">
        <ele>168.85</ele>
        <time>2021-08-20T10:13:33Z</time>
      </trkpt>
      <trkpt lat="43.32425" lon="-0.83321">
        <ele>169.81</ele>
        <time>2021-08-20T10:13:40Z</time>
      </trkpt>
      <trkpt lat="43.32433" lon="-0.83344">
        <ele>170.29</ele>
        <time>2021-08-20T10:13:46Z</time>
      </trkpt>
      <trkpt lat="43.32438" lon="-0.83353">
        <ele>170.29</ele>
        <time>2021-08-20T10:13:48Z</time>
      </trkpt>
      <trkpt lat="43.32438" lon="-0.83358">
        <ele>169.81</ele>
        <time>2021-08-20T10:13:49Z</time>
      </trkpt>
      <trkpt lat="43.32437" lon="-0.83363">
        <ele>169.81</ele>
        <time>2021-08-20T10:13:50Z</time>
      </trkpt>
      <trkpt lat="43.32435" lon="-0.83367">
        <ele>169.81</ele>
        <time>2021-08-20T10:13:51Z</time>
      </trkpt>
      <trkpt lat="43.32432" lon="-0.83371">
        <ele>169.81</ele>
        <time>2021-08-20T10:13:52Z</time>
      </trkpt>
      <trkpt lat="43.3243" lon="-0.83375">
        <ele>169.81</ele>
        <time>2021-08-20T10:13:53Z</time>
      </trkpt>
      <trkpt lat="43.32427" lon="-0.83378">
        <ele>169.81</ele>
        <time>2021-08-20T10:13:54Z</time>
      </trkpt>
      <trkpt lat="43.32408" lon="-0.83405">
        <ele>169.81</ele>
        <time>2021-08-20T10:14:01Z</time>
      </trkpt>
      <trkpt lat="43.32401" lon="-0.83414">
        <ele>169.81</ele>
        <time>2021-08-20T10:14:03Z</time>
      </trkpt>
      <trkpt lat="43.32397" lon="-0.83418">
        <ele>169.81</ele>
        <time>2021-08-20T10:14:04Z</time>
      </trkpt>
      <trkpt lat="43.32393" lon="-0.83421">
        <ele>169.81</ele>
        <time>2021-08-20T10:14:05Z</time>
      </trkpt>
      <trkpt lat="43.32381" lon="-0.83431">
        <ele>170.77</ele>
        <time>2021-08-20T10:14:08Z</time>
      </trkpt>
      <trkpt lat="43.32377" lon="-0.83434">
        <ele>170.77</ele>
        <time>2021-08-20T10:14:09Z</time>
      </trkpt>
      <trkpt lat="43.32373" lon="-0.83437">
        <ele>170.77</ele>
        <time>2021-08-20T10:14:10Z</time>
      </trkpt>
      <trkpt lat="43.32369" lon="-0.83439">
        <ele>170.77</ele>
        <time>2021-08-20T10:14:11Z</time>
      </trkpt>
      <trkpt lat="43.32365" lon="-0.83441">
        <ele>171.25</ele>
        <time>2021-08-20T10:14:12Z</time>
      </trkpt>
      <trkpt lat="43.32335" lon="-0.8345">
        <ele>171.73</ele>
        <time>2021-08-20T10:14:20Z</time>
      </trkpt>
      <trkpt lat="43.32307" lon="-0.8346">
        <ele>173.17</ele>
        <time>2021-08-20T10:14:30Z</time>
      </trkpt>
      <trkpt lat="43.32283" lon="-0.83469">
        <ele>175.1</ele>
        <time>2021-08-20T10:14:40Z</time>
      </trkpt>
      <trkpt lat="43.32261" lon="-0.83477">
        <ele>175.58</ele>
        <time>2021-08-20T10:14:48Z</time>
      </trkpt>
      <trkpt lat="43.32249" lon="-0.83483">
        <ele>174.14</ele>
        <time>2021-08-20T10:14:51Z</time>
      </trkpt>
      <trkpt lat="43.32244" lon="-0.83485">
        <ele>174.14</ele>
        <time>2021-08-20T10:14:52Z</time>
      </trkpt>
      <trkpt lat="43.32229" lon="-0.83495">
        <ele>174.14</ele>
        <time>2021-08-20T10:14:56Z</time>
      </trkpt>
      <trkpt lat="43.3222" lon="-0.83498">
        <ele>174.14</ele>
        <time>2021-08-20T10:14:58Z</time>
      </trkpt>
      <trkpt lat="43.32216" lon="-0.83499">
        <ele>174.14</ele>
        <time>2021-08-20T10:14:59Z</time>
      </trkpt>
      <trkpt lat="43.32211" lon="-0.835">
        <ele>174.14</ele>
        <time>2021-08-20T10:15:00Z</time>
      </trkpt>
      <trkpt lat="43.32206" lon="-0.83502">
        <ele>174.14</ele>
        <time>2021-08-20T10:15:01Z</time>
      </trkpt>
      <trkpt lat="43.32201" lon="-0.83504">
        <ele>174.14</ele>
        <time>2021-08-20T10:15:02Z</time>
      </trkpt>
      <trkpt lat="43.32197" lon="-0.83505">
        <ele>174.14</ele>
        <time>2021-08-20T10:15:03Z</time>
      </trkpt>
      <trkpt lat="43.32193" lon="-0.83506">
        <ele>175.58</ele>
        <time>2021-08-20T10:15:04Z</time>
      </trkpt>
      <trkpt lat="43.32189" lon="-0.83508">
        <ele>175.58</ele>
        <time>2021-08-20T10:15:05Z</time>
      </trkpt>
      <trkpt lat="43.32163" lon="-0.83511">
        <ele>177.5</ele>
        <time>2021-08-20T10:15:13Z</time>
      </trkpt>
      <trkpt lat="43.32132" lon="-0.83516">
        <ele>177.98</ele>
        <time>2021-08-20T10:15:22Z</time>
      </trkpt>
      <trkpt lat="43.32099" lon="-0.83521">
        <ele>178.94</ele>
        <time>2021-08-20T10:15:31Z</time>
      </trkpt>
      <trkpt lat="43.32069" lon="-0.83526">
        <ele>181.83</ele>
        <time>2021-08-20T10:15:41Z</time>
      </trkpt>
      <trkpt lat="43.32039" lon="-0.83531">
        <ele>181.83</ele>
        <time>2021-08-20T10:15:49Z</time>
      </trkpt>
      <trkpt lat="43.32025" lon="-0.83533">
        <ele>181.35</ele>
        <time>2021-08-20T10:15:52Z</time>
      </trkpt>
      <trkpt lat="43.3202" lon="-0.83535">
        <ele>181.35</ele>
        <time>2021-08-20T10:15:53Z</time>
      </trkpt>
      <trkpt lat="43.32016" lon="-0.83537">
        <ele>181.35</ele>
        <time>2021-08-20T10:15:54Z</time>
      </trkpt>
      <trkpt lat="43.32012" lon="-0.8354">
        <ele>181.35</ele>
        <time>2021-08-20T10:15:55Z</time>
      </trkpt>
      <trkpt lat="43.32008" lon="-0.83543">
        <ele>181.35</ele>
        <time>2021-08-20T10:15:56Z</time>
      </trkpt>
      <trkpt lat="43.31988" lon="-0.83553">
        <ele>182.31</ele>
        <time>2021-08-20T10:16:02Z</time>
      </trkpt>
      <trkpt lat="43.31961" lon="-0.83561">
        <ele>184.23</ele>
        <time>2021-08-20T10:16:10Z</time>
      </trkpt>
      <trkpt lat="43.31923" lon="-0.83571">
        <ele>184.23</ele>
        <time>2021-08-20T10:16:20Z</time>
      </trkpt>
      <trkpt lat="43.31889" lon="-0.83583">
        <ele>185.19</ele>
        <time>2021-08-20T10:16:29Z</time>
      </trkpt>
      <trkpt lat="43.31866" lon="-0.83589">
        <ele>186.15</ele>
        <time>2021-08-20T10:16:36Z</time>
      </trkpt>
      <trkpt lat="43.31844" lon="-0.83597">
        <ele>187.59</ele>
        <time>2021-08-20T10:16:45Z</time>
      </trkpt>
      <trkpt lat="43.31828" lon="-0.83604">
        <ele>189.52</ele>
        <time>2021-08-20T10:16:53Z</time>
      </trkpt>
      <trkpt lat="43.31812" lon="-0.83609">
        <ele>190.96</ele>
        <time>2021-08-20T10:17:01Z</time>
      </trkpt>
      <trkpt lat="43.31789" lon="-0.83616">
        <ele>193.84</ele>
        <time>2021-08-20T10:17:13Z</time>
      </trkpt>
      <trkpt lat="43.31771" lon="-0.83621">
        <ele>195.28</ele>
        <time>2021-08-20T10:17:22Z</time>
      </trkpt>
      <trkpt lat="43.31751" lon="-0.83627">
        <ele>196.73</ele>
        <time>2021-08-20T10:17:32Z</time>
      </trkpt>
      <trkpt lat="43.31736" lon="-0.8364">
        <ele>197.21</ele>
        <time>2021-08-20T10:17:39Z</time>
      </trkpt>
      <trkpt lat="43.31733" lon="-0.83661">
        <ele>197.21</ele>
        <time>2021-08-20T10:17:44Z</time>
      </trkpt>
      <trkpt lat="43.31724" lon="-0.83685">
        <ele>197.21</ele>
        <time>2021-08-20T10:17:52Z</time>
      </trkpt>
      <trkpt lat="43.31712" lon="-0.83701">
        <ele>198.65</ele>
        <time>2021-08-20T10:17:59Z</time>
      </trkpt>
      <trkpt lat="43.31708" lon="-0.83721">
        <ele>200.09</ele>
        <time>2021-08-20T10:18:06Z</time>
      </trkpt>
      <trkpt lat="43.31701" lon="-0.83736">
        <ele>200.57</ele>
        <time>2021-08-20T10:18:12Z</time>
      </trkpt>
      <trkpt lat="43.3169" lon="-0.83756">
        <ele>199.13</ele>
        <time>2021-08-20T10:18:17Z</time>
      </trkpt>
      <trkpt lat="43.31688" lon="-0.83761">
        <ele>199.13</ele>
        <time>2021-08-20T10:18:18Z</time>
      </trkpt>
      <trkpt lat="43.31681" lon="-0.83776">
        <ele>198.65</ele>
        <time>2021-08-20T10:18:21Z</time>
      </trkpt>
      <trkpt lat="43.31679" lon="-0.83781">
        <ele>198.65</ele>
        <time>2021-08-20T10:18:22Z</time>
      </trkpt>
      <trkpt lat="43.31676" lon="-0.83786">
        <ele>197.69</ele>
        <time>2021-08-20T10:18:23Z</time>
      </trkpt>
      <trkpt lat="43.31673" lon="-0.83791">
        <ele>197.21</ele>
        <time>2021-08-20T10:18:24Z</time>
      </trkpt>
      <trkpt lat="43.31671" lon="-0.83796">
        <ele>197.21</ele>
        <time>2021-08-20T10:18:25Z</time>
      </trkpt>
      <trkpt lat="43.31661" lon="-0.83811">
        <ele>196.25</ele>
        <time>2021-08-20T10:18:28Z</time>
      </trkpt>
      <trkpt lat="43.31657" lon="-0.83816">
        <ele>195.28</ele>
        <time>2021-08-20T10:18:29Z</time>
      </trkpt>
      <trkpt lat="43.31641" lon="-0.83831">
        <ele>193.36</ele>
        <time>2021-08-20T10:18:32Z</time>
      </trkpt>
      <trkpt lat="43.31636" lon="-0.83837">
        <ele>192.4</ele>
        <time>2021-08-20T10:18:33Z</time>
      </trkpt>
      <trkpt lat="43.31632" lon="-0.83845">
        <ele>191.92</ele>
        <time>2021-08-20T10:18:34Z</time>
      </trkpt>
      <trkpt lat="43.31628" lon="-0.83852">
        <ele>190.96</ele>
        <time>2021-08-20T10:18:35Z</time>
      </trkpt>
      <trkpt lat="43.31625" lon="-0.83861">
        <ele>190.48</ele>
        <time>2021-08-20T10:18:36Z</time>
      </trkpt>
      <trkpt lat="43.31621" lon="-0.8387">
        <ele>190</ele>
        <time>2021-08-20T10:18:37Z</time>
      </trkpt>
      <trkpt lat="43.31611" lon="-0.83903">
        <ele>187.11</ele>
        <time>2021-08-20T10:18:40Z</time>
      </trkpt>
      <trkpt lat="43.31599" lon="-0.83942">
        <ele>183.75</ele>
        <time>2021-08-20T10:18:43Z</time>
      </trkpt>
      <trkpt lat="43.31575" lon="-0.83991">
        <ele>180.87</ele>
        <time>2021-08-20T10:18:47Z</time>
      </trkpt>
      <trkpt lat="43.31567" lon="-0.84001">
        <ele>179.9</ele>
        <time>2021-08-20T10:18:48Z</time>
      </trkpt>
      <trkpt lat="43.31559" lon="-0.84011">
        <ele>178.94</ele>
        <time>2021-08-20T10:18:49Z</time>
      </trkpt>
      <trkpt lat="43.3155" lon="-0.8402">
        <ele>178.94</ele>
        <time>2021-08-20T10:18:50Z</time>
      </trkpt>
      <trkpt lat="43.31541" lon="-0.84029">
        <ele>178.46</ele>
        <time>2021-08-20T10:18:51Z</time>
      </trkpt>
      <trkpt lat="43.31532" lon="-0.84035">
        <ele>178.46</ele>
        <time>2021-08-20T10:18:52Z</time>
      </trkpt>
      <trkpt lat="43.31522" lon="-0.84041">
        <ele>177.98</ele>
        <time>2021-08-20T10:18:53Z</time>
      </trkpt>
      <trkpt lat="43.31512" lon="-0.84045">
        <ele>177.98</ele>
        <time>2021-08-20T10:18:54Z</time>
      </trkpt>
      <trkpt lat="43.31502" lon="-0.84049">
        <ele>177.02</ele>
        <time>2021-08-20T10:18:55Z</time>
      </trkpt>
      <trkpt lat="43.31462" lon="-0.84062">
        <ele>174.62</ele>
        <time>2021-08-20T10:18:59Z</time>
      </trkpt>
      <trkpt lat="43.31383" lon="-0.84089">
        <ele>172.69</ele>
        <time>2021-08-20T10:19:07Z</time>
      </trkpt>
      <trkpt lat="43.31315" lon="-0.84102">
        <ele>171.73</ele>
        <time>2021-08-20T10:19:14Z</time>
      </trkpt>
      <trkpt lat="43.3126" lon="-0.84113">
        <ele>172.21</ele>
        <time>2021-08-20T10:19:21Z</time>
      </trkpt>
      <trkpt lat="43.31227" lon="-0.84122">
        <ele>173.66</ele>
        <time>2021-08-20T10:19:27Z</time>
      </trkpt>
      <trkpt lat="43.31211" lon="-0.84128">
        <ele>173.66</ele>
        <time>2021-08-20T10:19:30Z</time>
      </trkpt>
      <trkpt lat="43.31206" lon="-0.84132">
        <ele>173.66</ele>
        <time>2021-08-20T10:19:31Z</time>
      </trkpt>
      <trkpt lat="43.31202" lon="-0.84136">
        <ele>173.66</ele>
        <time>2021-08-20T10:19:32Z</time>
      </trkpt>
      <trkpt lat="43.31198" lon="-0.84141">
        <ele>173.66</ele>
        <time>2021-08-20T10:19:33Z</time>
      </trkpt>
      <trkpt lat="43.31194" lon="-0.84147">
        <ele>173.66</ele>
        <time>2021-08-20T10:19:34Z</time>
      </trkpt>
      <trkpt lat="43.31191" lon="-0.84154">
        <ele>173.66</ele>
        <time>2021-08-20T10:19:35Z</time>
      </trkpt>
      <trkpt lat="43.31189" lon="-0.84161">
        <ele>173.66</ele>
        <time>2021-08-20T10:19:36Z</time>
      </trkpt>
      <trkpt lat="43.31189" lon="-0.84169">
        <ele>173.66</ele>
        <time>2021-08-20T10:19:37Z</time>
      </trkpt>
      <trkpt lat="43.31189" lon="-0.84178">
        <ele>172.21</ele>
        <time>2021-08-20T10:19:38Z</time>
      </trkpt>
      <trkpt lat="43.31189" lon="-0.84187">
        <ele>172.21</ele>
        <time>2021-08-20T10:19:39Z</time>
      </trkpt>
      <trkpt lat="43.3119" lon="-0.84196">
        <ele>171.73</ele>
        <time>2021-08-20T10:19:40Z</time>
      </trkpt>
      <trkpt lat="43.31197" lon="-0.8424">
        <ele>167.89</ele>
        <time>2021-08-20T10:19:44Z</time>
      </trkpt>
      <trkpt lat="43.31202" lon="-0.8428">
        <ele>164.52</ele>
        <time>2021-08-20T10:19:47Z</time>
      </trkpt>
      <trkpt lat="43.31203" lon="-0.84294">
        <ele>163.56</ele>
        <time>2021-08-20T10:19:48Z</time>
      </trkpt>
      <trkpt lat="43.31202" lon="-0.84308">
        <ele>162.12</ele>
        <time>2021-08-20T10:19:49Z</time>
      </trkpt>
      <trkpt lat="43.312" lon="-0.84323">
        <ele>161.16</ele>
        <time>2021-08-20T10:19:50Z</time>
      </trkpt>
      <trkpt lat="43.31192" lon="-0.84371">
        <ele>157.31</ele>
        <time>2021-08-20T10:19:53Z</time>
      </trkpt>
      <trkpt lat="43.31185" lon="-0.84415">
        <ele>154.43</ele>
        <time>2021-08-20T10:19:56Z</time>
      </trkpt>
      <trkpt lat="43.31172" lon="-0.84458">
        <ele>151.06</ele>
        <time>2021-08-20T10:19:59Z</time>
      </trkpt>
      <trkpt lat="43.31154" lon="-0.84502">
        <ele>147.22</ele>
        <time>2021-08-20T10:20:02Z</time>
      </trkpt>
      <trkpt lat="43.31135" lon="-0.8455">
        <ele>142.41</ele>
        <time>2021-08-20T10:20:05Z</time>
      </trkpt>
      <trkpt lat="43.31121" lon="-0.84581">
        <ele>139.53</ele>
        <time>2021-08-20T10:20:07Z</time>
      </trkpt>
      <trkpt lat="43.311" lon="-0.84625">
        <ele>135.68</ele>
        <time>2021-08-20T10:20:10Z</time>
      </trkpt>
      <trkpt lat="43.31076" lon="-0.84678">
        <ele>132.32</ele>
        <time>2021-08-20T10:20:14Z</time>
      </trkpt>
      <trkpt lat="43.31072" lon="-0.8469">
        <ele>131.36</ele>
        <time>2021-08-20T10:20:15Z</time>
      </trkpt>
      <trkpt lat="43.31069" lon="-0.84703">
        <ele>130.4</ele>
        <time>2021-08-20T10:20:16Z</time>
      </trkpt>
      <trkpt lat="43.31069" lon="-0.84716">
        <ele>128.95</ele>
        <time>2021-08-20T10:20:17Z</time>
      </trkpt>
      <trkpt lat="43.3107" lon="-0.8473">
        <ele>127.99</ele>
        <time>2021-08-20T10:20:18Z</time>
      </trkpt>
      <trkpt lat="43.31073" lon="-0.84744">
        <ele>127.03</ele>
        <time>2021-08-20T10:20:19Z</time>
      </trkpt>
      <trkpt lat="43.31075" lon="-0.84758">
        <ele>126.55</ele>
        <time>2021-08-20T10:20:20Z</time>
      </trkpt>
      <trkpt lat="43.31074" lon="-0.84773">
        <ele>126.55</ele>
        <time>2021-08-20T10:20:21Z</time>
      </trkpt>
      <trkpt lat="43.31071" lon="-0.84786">
        <ele>126.55</ele>
        <time>2021-08-20T10:20:22Z</time>
      </trkpt>
      <trkpt lat="43.31067" lon="-0.84798">
        <ele>126.07</ele>
        <time>2021-08-20T10:20:23Z</time>
      </trkpt>
      <trkpt lat="43.31062" lon="-0.84808">
        <ele>126.07</ele>
        <time>2021-08-20T10:20:24Z</time>
      </trkpt>
      <trkpt lat="43.31057" lon="-0.84818">
        <ele>126.55</ele>
        <time>2021-08-20T10:20:25Z</time>
      </trkpt>
      <trkpt lat="43.31043" lon="-0.84844">
        <ele>128.47</ele>
        <time>2021-08-20T10:20:28Z</time>
      </trkpt>
      <trkpt lat="43.31011" lon="-0.84901">
        <ele>129.92</ele>
        <time>2021-08-20T10:20:36Z</time>
      </trkpt>
      <trkpt lat="43.30987" lon="-0.84959">
        <ele>127.03</ele>
        <time>2021-08-20T10:20:43Z</time>
      </trkpt>
      <trkpt lat="43.30971" lon="-0.84999">
        <ele>125.59</ele>
        <time>2021-08-20T10:20:47Z</time>
      </trkpt>
      <trkpt lat="43.30939" lon="-0.85089">
        <ele>123.19</ele>
        <time>2021-08-20T10:20:56Z</time>
      </trkpt>
      <trkpt lat="43.30927" lon="-0.85158">
        <ele>121.74</ele>
        <time>2021-08-20T10:21:02Z</time>
      </trkpt>
      <trkpt lat="43.30926" lon="-0.85219">
        <ele>123.67</ele>
        <time>2021-08-20T10:21:08Z</time>
      </trkpt>
      <trkpt lat="43.30932" lon="-0.85296">
        <ele>124.15</ele>
        <time>2021-08-20T10:21:17Z</time>
      </trkpt>
      <trkpt lat="43.30944" lon="-0.85358">
        <ele>122.71</ele>
        <time>2021-08-20T10:21:25Z</time>
      </trkpt>
      <trkpt lat="43.30964" lon="-0.85438">
        <ele>121.74</ele>
        <time>2021-08-20T10:21:35Z</time>
      </trkpt>
      <trkpt lat="43.3097" lon="-0.85453">
        <ele>121.74</ele>
        <time>2021-08-20T10:21:37Z</time>
      </trkpt>
      <trkpt lat="43.30974" lon="-0.8546">
        <ele>121.26</ele>
        <time>2021-08-20T10:21:38Z</time>
      </trkpt>
      <trkpt lat="43.30987" lon="-0.85481">
        <ele>120.78</ele>
        <time>2021-08-20T10:21:41Z</time>
      </trkpt>
      <trkpt lat="43.31013" lon="-0.85518">
        <ele>119.82</ele>
        <time>2021-08-20T10:21:47Z</time>
      </trkpt>
      <trkpt lat="43.31016" lon="-0.85525">
        <ele>120.3</ele>
        <time>2021-08-20T10:21:48Z</time>
      </trkpt>
      <trkpt lat="43.31018" lon="-0.85533">
        <ele>119.82</ele>
        <time>2021-08-20T10:21:49Z</time>
      </trkpt>
      <trkpt lat="43.3102" lon="-0.85541">
        <ele>120.3</ele>
        <time>2021-08-20T10:21:50Z</time>
      </trkpt>
      <trkpt lat="43.31021" lon="-0.85549">
        <ele>120.3</ele>
        <time>2021-08-20T10:21:51Z</time>
      </trkpt>
      <trkpt lat="43.31021" lon="-0.85557">
        <ele>119.82</ele>
        <time>2021-08-20T10:21:52Z</time>
      </trkpt>
      <trkpt lat="43.3102" lon="-0.85565">
        <ele>120.3</ele>
        <time>2021-08-20T10:21:53Z</time>
      </trkpt>
      <trkpt lat="43.31019" lon="-0.85572">
        <ele>120.3</ele>
        <time>2021-08-20T10:21:54Z</time>
      </trkpt>
      <trkpt lat="43.31018" lon="-0.8558">
        <ele>120.3</ele>
        <time>2021-08-20T10:21:55Z</time>
      </trkpt>
      <trkpt lat="43.31007" lon="-0.85656">
        <ele>119.34</ele>
        <time>2021-08-20T10:22:04Z</time>
      </trkpt>
      <trkpt lat="43.30995" lon="-0.85751">
        <ele>119.34</ele>
        <time>2021-08-20T10:22:15Z</time>
      </trkpt>
      <trkpt lat="43.30989" lon="-0.85796">
        <ele>121.74</ele>
        <time>2021-08-20T10:22:22Z</time>
      </trkpt>
      <trkpt lat="43.30985" lon="-0.85828">
        <ele>122.71</ele>
        <time>2021-08-20T10:22:29Z</time>
      </trkpt>
      <trkpt lat="43.30978" lon="-0.85885">
        <ele>124.15</ele>
        <time>2021-08-20T10:22:42Z</time>
      </trkpt>
      <trkpt lat="43.30972" lon="-0.85926">
        <ele>125.59</ele>
        <time>2021-08-20T10:22:53Z</time>
      </trkpt>
      <trkpt lat="43.30967" lon="-0.85961">
        <ele>127.03</ele>
        <time>2021-08-20T10:23:03Z</time>
      </trkpt>
      <trkpt lat="43.30964" lon="-0.8599">
        <ele>128.47</ele>
        <time>2021-08-20T10:23:12Z</time>
      </trkpt>
      <trkpt lat="43.30961" lon="-0.8601">
        <ele>129.43</ele>
        <time>2021-08-20T10:23:20Z</time>
      </trkpt>
      <trkpt lat="43.30961" lon="-0.86013">
        <ele>129.92</ele>
        <time>2021-08-20T10:23:21Z</time>
      </trkpt>
      <trkpt lat="43.30962" lon="-0.86015">
        <ele>129.92</ele>
        <time>2021-08-20T10:23:22Z</time>
      </trkpt>
      <trkpt lat="43.30962" lon="-0.86018">
        <ele>129.92</ele>
        <time>2021-08-20T10:23:23Z</time>
      </trkpt>
      <trkpt lat="43.30963" lon="-0.8604">
        <ele>130.4</ele>
        <time>2021-08-20T10:23:30Z</time>
      </trkpt>
      <trkpt lat="43.30965" lon="-0.86074">
        <ele>130.88</ele>
        <time>2021-08-20T10:23:38Z</time>
      </trkpt>
      <trkpt lat="43.30971" lon="-0.86098">
        <ele>130.88</ele>
        <time>2021-08-20T10:23:42Z</time>
      </trkpt>
      <trkpt lat="43.30993" lon="-0.86153">
        <ele>127.51</ele>
        <time>2021-08-20T10:23:50Z</time>
      </trkpt>
      <trkpt lat="43.31014" lon="-0.862">
        <ele>123.67</ele>
        <time>2021-08-20T10:23:55Z</time>
      </trkpt>
      <trkpt lat="43.31036" lon="-0.86246">
        <ele>119.34</ele>
        <time>2021-08-20T10:23:59Z</time>
      </trkpt>
      <trkpt lat="43.31057" lon="-0.86298">
        <ele>115.98</ele>
        <time>2021-08-20T10:24:03Z</time>
      </trkpt>
      <trkpt lat="43.31061" lon="-0.86312">
        <ele>115.98</ele>
        <time>2021-08-20T10:24:04Z</time>
      </trkpt>
      <trkpt lat="43.31071" lon="-0.86355">
        <ele>114.05</ele>
        <time>2021-08-20T10:24:07Z</time>
      </trkpt>
      <trkpt lat="43.31074" lon="-0.86397">
        <ele>113.57</ele>
        <time>2021-08-20T10:24:10Z</time>
      </trkpt>
      <trkpt lat="43.31074" lon="-0.8641">
        <ele>113.09</ele>
        <time>2021-08-20T10:24:11Z</time>
      </trkpt>
      <trkpt lat="43.31071" lon="-0.86423">
        <ele>113.09</ele>
        <time>2021-08-20T10:24:12Z</time>
      </trkpt>
      <trkpt lat="43.31067" lon="-0.86435">
        <ele>113.09</ele>
        <time>2021-08-20T10:24:13Z</time>
      </trkpt>
      <trkpt lat="43.31063" lon="-0.86446">
        <ele>112.61</ele>
        <time>2021-08-20T10:24:14Z</time>
      </trkpt>
      <trkpt lat="43.31057" lon="-0.86456">
        <ele>111.65</ele>
        <time>2021-08-20T10:24:15Z</time>
      </trkpt>
      <trkpt lat="43.31051" lon="-0.86466">
        <ele>111.65</ele>
        <time>2021-08-20T10:24:16Z</time>
      </trkpt>
      <trkpt lat="43.31042" lon="-0.86486">
        <ele>110.69</ele>
        <time>2021-08-20T10:24:18Z</time>
      </trkpt>
      <trkpt lat="43.31038" lon="-0.86497">
        <ele>110.69</ele>
        <time>2021-08-20T10:24:19Z</time>
      </trkpt>
      <trkpt lat="43.31035" lon="-0.86508">
        <ele>110.21</ele>
        <time>2021-08-20T10:24:20Z</time>
      </trkpt>
      <trkpt lat="43.31032" lon="-0.8652">
        <ele>110.21</ele>
        <time>2021-08-20T10:24:21Z</time>
      </trkpt>
      <trkpt lat="43.31029" lon="-0.86531">
        <ele>110.21</ele>
        <time>2021-08-20T10:24:22Z</time>
      </trkpt>
      <trkpt lat="43.31015" lon="-0.86616">
        <ele>109.25</ele>
        <time>2021-08-20T10:24:30Z</time>
      </trkpt>
      <trkpt lat="43.3101" lon="-0.86712">
        <ele>108.77</ele>
        <time>2021-08-20T10:24:39Z</time>
      </trkpt>
      <trkpt lat="43.31006" lon="-0.86786">
        <ele>108.77</ele>
        <time>2021-08-20T10:24:47Z</time>
      </trkpt>
      <trkpt lat="43.31005" lon="-0.86802">
        <ele>108.77</ele>
        <time>2021-08-20T10:24:49Z</time>
      </trkpt>
      <trkpt lat="43.31005" lon="-0.86809">
        <ele>108.77</ele>
        <time>2021-08-20T10:24:50Z</time>
      </trkpt>
      <trkpt lat="43.31005" lon="-0.86815">
        <ele>108.77</ele>
        <time>2021-08-20T10:24:51Z</time>
      </trkpt>
      <trkpt lat="43.31006" lon="-0.86821">
        <ele>108.77</ele>
        <time>2021-08-20T10:24:52Z</time>
      </trkpt>
      <trkpt lat="43.31009" lon="-0.86825">
        <ele>108.77</ele>
        <time>2021-08-20T10:24:53Z</time>
      </trkpt>
      <trkpt lat="43.31012" lon="-0.86828">
        <ele>108.77</ele>
        <time>2021-08-20T10:24:54Z</time>
      </trkpt>
      <trkpt lat="43.31016" lon="-0.86831">
        <ele>108.77</ele>
        <time>2021-08-20T10:24:55Z</time>
      </trkpt>
      <trkpt lat="43.3102" lon="-0.86834">
        <ele>108.77</ele>
        <time>2021-08-20T10:24:56Z</time>
      </trkpt>
      <trkpt lat="43.3105" lon="-0.86866">
        <ele>108.29</ele>
        <time>2021-08-20T10:25:04Z</time>
      </trkpt>
      <trkpt lat="43.31058" lon="-0.86874">
        <ele>108.29</ele>
        <time>2021-08-20T10:25:06Z</time>
      </trkpt>
      <trkpt lat="43.31067" lon="-0.8688">
        <ele>108.29</ele>
        <time>2021-08-20T10:25:08Z</time>
      </trkpt>
      <trkpt lat="43.31072" lon="-0.86882">
        <ele>108.29</ele>
        <time>2021-08-20T10:25:09Z</time>
      </trkpt>
      <trkpt lat="43.31093" lon="-0.86889">
        <ele>107.81</ele>
        <time>2021-08-20T10:25:13Z</time>
      </trkpt>
      <trkpt lat="43.31098" lon="-0.86889">
        <ele>107.81</ele>
        <time>2021-08-20T10:25:14Z</time>
      </trkpt>
      <trkpt lat="43.31103" lon="-0.8689">
        <ele>107.81</ele>
        <time>2021-08-20T10:25:15Z</time>
      </trkpt>
      <trkpt lat="43.31152" lon="-0.86882">
        <ele>107.32</ele>
        <time>2021-08-20T10:25:24Z</time>
      </trkpt>
      <trkpt lat="43.31203" lon="-0.86875">
        <ele>106.84</ele>
        <time>2021-08-20T10:25:33Z</time>
      </trkpt>
      <trkpt lat="43.31254" lon="-0.86876">
        <ele>106.84</ele>
        <time>2021-08-20T10:25:42Z</time>
      </trkpt>
      <trkpt lat="43.31274" lon="-0.86877">
        <ele>106.84</ele>
        <time>2021-08-20T10:25:46Z</time>
      </trkpt>
      <trkpt lat="43.31298" lon="-0.86879">
        <ele>106.84</ele>
        <time>2021-08-20T10:25:51Z</time>
      </trkpt>
      <trkpt lat="43.31302" lon="-0.86883">
        <ele>106.84</ele>
        <time>2021-08-20T10:25:52Z</time>
      </trkpt>
      <trkpt lat="43.31305" lon="-0.86888">
        <ele>106.84</ele>
        <time>2021-08-20T10:25:53Z</time>
      </trkpt>
      <trkpt lat="43.31308" lon="-0.86895">
        <ele>106.84</ele>
        <time>2021-08-20T10:25:54Z</time>
      </trkpt>
      <trkpt lat="43.31308" lon="-0.86901">
        <ele>106.84</ele>
        <time>2021-08-20T10:25:55Z</time>
      </trkpt>
      <trkpt lat="43.31308" lon="-0.86908">
        <ele>106.84</ele>
        <time>2021-08-20T10:25:56Z</time>
      </trkpt>
      <trkpt lat="43.31307" lon="-0.86916">
        <ele>106.84</ele>
        <time>2021-08-20T10:25:57Z</time>
      </trkpt>
      <trkpt lat="43.313" lon="-0.86957">
        <ele>108.29</ele>
        <time>2021-08-20T10:26:04Z</time>
      </trkpt>
      <trkpt lat="43.31292" lon="-0.86984">
        <ele>108.77</ele>
        <time>2021-08-20T10:26:11Z</time>
      </trkpt>
      <trkpt lat="43.31289" lon="-0.86988">
        <ele>108.29</ele>
        <time>2021-08-20T10:26:12Z</time>
      </trkpt>
      <trkpt lat="43.31284" lon="-0.86989">
        <ele>108.29</ele>
        <time>2021-08-20T10:26:13Z</time>
      </trkpt>
      <trkpt lat="43.3128" lon="-0.86989">
        <ele>108.29</ele>
        <time>2021-08-20T10:26:14Z</time>
      </trkpt>
      <trkpt lat="43.31275" lon="-0.86988">
        <ele>107.32</ele>
        <time>2021-08-20T10:26:15Z</time>
      </trkpt>
      <trkpt lat="43.3127" lon="-0.86986">
        <ele>106.84</ele>
        <time>2021-08-20T10:26:16Z</time>
      </trkpt>
      <trkpt lat="43.31264" lon="-0.86985">
        <ele>106.84</ele>
        <time>2021-08-20T10:26:17Z</time>
      </trkpt>
      <trkpt lat="43.3123" lon="-0.86978">
        <ele>106.84</ele>
        <time>2021-08-20T10:26:24Z</time>
      </trkpt>
      <trkpt lat="43.31186" lon="-0.86968">
        <ele>106.84</ele>
        <time>2021-08-20T10:26:33Z</time>
      </trkpt>
      <trkpt lat="43.31152" lon="-0.8696">
        <ele>106.84</ele>
        <time>2021-08-20T10:26:40Z</time>
      </trkpt>
      <trkpt lat="43.31102" lon="-0.86954">
        <ele>106.84</ele>
        <time>2021-08-20T10:26:50Z</time>
      </trkpt>
      <trkpt lat="43.31052" lon="-0.86948">
        <ele>107.81</ele>
        <time>2021-08-20T10:27:00Z</time>
      </trkpt>
      <trkpt lat="43.31047" lon="-0.86947">
        <ele>107.81</ele>
        <time>2021-08-20T10:27:01Z</time>
      </trkpt>
      <trkpt lat="43.31042" lon="-0.86946">
        <ele>107.81</ele>
        <time>2021-08-20T10:27:02Z</time>
      </trkpt>
      <trkpt lat="43.31012" lon="-0.86939">
        <ele>107.81</ele>
        <time>2021-08-20T10:27:08Z</time>
      </trkpt>
      <trkpt lat="43.30951" lon="-0.8693">
        <ele>107.81</ele>
        <time>2021-08-20T10:27:20Z</time>
      </trkpt>
      <trkpt lat="43.30936" lon="-0.86928">
        <ele>107.81</ele>
        <time>2021-08-20T10:27:23Z</time>
      </trkpt>
      <trkpt lat="43.30931" lon="-0.86928">
        <ele>107.81</ele>
        <time>2021-08-20T10:27:24Z</time>
      </trkpt>
      <trkpt lat="43.30927" lon="-0.8693">
        <ele>107.81</ele>
        <time>2021-08-20T10:27:25Z</time>
      </trkpt>
      <trkpt lat="43.30923" lon="-0.86932">
        <ele>107.81</ele>
        <time>2021-08-20T10:27:26Z</time>
      </trkpt>
      <trkpt lat="43.3092" lon="-0.86936">
        <ele>107.81</ele>
        <time>2021-08-20T10:27:27Z</time>
      </trkpt>
      <trkpt lat="43.30919" lon="-0.86959">
        <ele>107.81</ele>
        <time>2021-08-20T10:27:31Z</time>
      </trkpt>
      <trkpt lat="43.30919" lon="-0.86982">
        <ele>107.81</ele>
        <time>2021-08-20T10:27:34Z</time>
      </trkpt>
      <trkpt lat="43.30915" lon="-0.87034">
        <ele>107.32</ele>
        <time>2021-08-20T10:27:43Z</time>
      </trkpt>
      <trkpt lat="43.30914" lon="-0.87054">
        <ele>107.32</ele>
        <time>2021-08-20T10:27:48Z</time>
      </trkpt>
      <trkpt lat="43.30914" lon="-0.87053">
        <ele>107.81</ele>
        <time>2021-08-20T10:28:06Z</time>
      </trkpt>
      <trkpt lat="43.30912" lon="-0.87051">
        <ele>107.81</ele>
        <time>2021-08-20T10:28:17Z</time>
      </trkpt>
      <trkpt lat="43.30912" lon="-0.8705">
        <ele>107.81</ele>
        <time>2021-08-20T10:28:20Z</time>
      </trkpt>
      <trkpt lat="43.30914" lon="-0.87035">
        <ele>107.81</ele>
        <time>2021-08-20T10:28:26Z</time>
      </trkpt>
      <trkpt lat="43.30916" lon="-0.87008">
        <ele>107.81</ele>
        <time>2021-08-20T10:28:32Z</time>
      </trkpt>
      <trkpt lat="43.30917" lon="-0.86983">
        <ele>107.81</ele>
        <time>2021-08-20T10:28:36Z</time>
      </trkpt>
      <trkpt lat="43.30921" lon="-0.86935">
        <ele>107.81</ele>
        <time>2021-08-20T10:28:45Z</time>
      </trkpt>
      <trkpt lat="43.3092" lon="-0.86924">
        <ele>107.81</ele>
        <time>2021-08-20T10:28:48Z</time>
      </trkpt>
      <trkpt lat="43.30919" lon="-0.86923">
        <ele>107.81</ele>
        <time>2021-08-20T10:28:49Z</time>
      </trkpt>
      <trkpt lat="43.30917" lon="-0.86922">
        <ele>107.81</ele>
        <time>2021-08-20T10:28:50Z</time>
      </trkpt>
      <trkpt lat="43.30913" lon="-0.86922">
        <ele>107.81</ele>
        <time>2021-08-20T10:28:51Z</time>
      </trkpt>
      <trkpt lat="43.3091" lon="-0.86921">
        <ele>107.81</ele>
        <time>2021-08-20T10:28:52Z</time>
      </trkpt>
      <trkpt lat="43.30907" lon="-0.8692">
        <ele>107.81</ele>
        <time>2021-08-20T10:28:53Z</time>
      </trkpt>
      <trkpt lat="43.30883" lon="-0.86916">
        <ele>107.81</ele>
        <time>2021-08-20T10:29:00Z</time>
      </trkpt>
      <trkpt lat="43.30863" lon="-0.86912">
        <ele>107.81</ele>
        <time>2021-08-20T10:29:06Z</time>
      </trkpt>
      <trkpt lat="43.30845" lon="-0.86909">
        <ele>107.81</ele>
        <time>2021-08-20T10:29:12Z</time>
      </trkpt>
      <trkpt lat="43.30844" lon="-0.86906">
        <ele>107.81</ele>
        <time>2021-08-20T10:29:17Z</time>
      </trkpt>
      <trkpt lat="43.30841" lon="-0.86905">
        <ele>107.81</ele>
        <time>2021-08-20T10:29:23Z</time>
      </trkpt>
      <trkpt lat="43.3084" lon="-0.86906">
        <ele>107.81</ele>
        <time>2021-08-20T10:29:29Z</time>
      </trkpt>
      <trkpt lat="43.30833" lon="-0.86905">
        <ele>107.81</ele>
        <time>2021-08-20T10:29:35Z</time>
      </trkpt>
      <trkpt lat="43.3082" lon="-0.86903">
        <ele>107.81</ele>
        <time>2021-08-20T10:29:42Z</time>
      </trkpt>
      <trkpt lat="43.30805" lon="-0.869">
        <ele>107.81</ele>
        <time>2021-08-20T10:29:48Z</time>
      </trkpt>
      <trkpt lat="43.30785" lon="-0.86896">
        <ele>107.81</ele>
        <time>2021-08-20T10:29:54Z</time>
      </trkpt>
      <trkpt lat="43.30785" lon="-0.86898">
        <ele>107.81</ele>
        <time>2021-08-20T10:29:58Z</time>
      </trkpt>
      <trkpt lat="43.30784" lon="-0.86901">
        <ele>107.32</ele>
        <time>2021-08-20T10:30:05Z</time>
      </trkpt>
      <trkpt lat="43.30781" lon="-0.86901">
        <ele>107.32</ele>
        <time>2021-08-20T10:30:14Z</time>
      </trkpt>
      <trkpt lat="43.3078" lon="-0.86901">
        <ele>107.32</ele>
        <time>2021-08-20T10:30:15Z</time>
      </trkpt>
      <trkpt lat="43.30772" lon="-0.86902">
        <ele>106.36</ele>
        <time>2021-08-20T10:30:20Z</time>
      </trkpt>
      <trkpt lat="43.30756" lon="-0.86906">
        <ele>103</ele>
        <time>2021-08-20T10:30:25Z</time>
      </trkpt>
      <trkpt lat="43.30752" lon="-0.86907">
        <ele>102.52</ele>
        <time>2021-08-20T10:30:26Z</time>
      </trkpt>
      <trkpt lat="43.30747" lon="-0.86907">
        <ele>102.52</ele>
        <time>2021-08-20T10:30:27Z</time>
      </trkpt>
      <trkpt lat="43.30733" lon="-0.86904">
        <ele>102.52</ele>
        <time>2021-08-20T10:30:30Z</time>
      </trkpt>
      <trkpt lat="43.30729" lon="-0.86905">
        <ele>102.04</ele>
        <time>2021-08-20T10:30:31Z</time>
      </trkpt>
      <trkpt lat="43.30725" lon="-0.86906">
        <ele>102.04</ele>
        <time>2021-08-20T10:30:32Z</time>
      </trkpt>
      <trkpt lat="43.30721" lon="-0.86907">
        <ele>102.04</ele>
        <time>2021-08-20T10:30:33Z</time>
      </trkpt>
      <trkpt lat="43.30718" lon="-0.8691">
        <ele>102.04</ele>
        <time>2021-08-20T10:30:34Z</time>
      </trkpt>
      <trkpt lat="43.30715" lon="-0.86912">
        <ele>102.04</ele>
        <time>2021-08-20T10:30:35Z</time>
      </trkpt>
      <trkpt lat="43.30712" lon="-0.86915">
        <ele>102.04</ele>
        <time>2021-08-20T10:30:36Z</time>
      </trkpt>
      <trkpt lat="43.30696" lon="-0.86934">
        <ele>102.52</ele>
        <time>2021-08-20T10:30:41Z</time>
      </trkpt>
      <trkpt lat="43.30693" lon="-0.86938">
        <ele>102.52</ele>
        <time>2021-08-20T10:30:42Z</time>
      </trkpt>
      <trkpt lat="43.30657" lon="-0.86985">
        <ele>102.52</ele>
        <time>2021-08-20T10:30:53Z</time>
      </trkpt>
      <trkpt lat="43.30638" lon="-0.87009">
        <ele>102.52</ele>
        <time>2021-08-20T10:30:58Z</time>
      </trkpt>
      <trkpt lat="43.30618" lon="-0.87035">
        <ele>104.44</ele>
        <time>2021-08-20T10:31:05Z</time>
      </trkpt>
      <trkpt lat="43.30601" lon="-0.87057">
        <ele>105.88</ele>
        <time>2021-08-20T10:31:13Z</time>
      </trkpt>
      <trkpt lat="43.30582" lon="-0.87081">
        <ele>107.32</ele>
        <time>2021-08-20T10:31:21Z</time>
      </trkpt>
      <trkpt lat="43.30554" lon="-0.87119">
        <ele>107.81</ele>
        <time>2021-08-20T10:31:32Z</time>
      </trkpt>
      <trkpt lat="43.30518" lon="-0.87164">
        <ele>107.81</ele>
        <time>2021-08-20T10:31:44Z</time>
      </trkpt>
      <trkpt lat="43.30489" lon="-0.87202">
        <ele>107.81</ele>
        <time>2021-08-20T10:31:53Z</time>
      </trkpt>
      <trkpt lat="43.30466" lon="-0.8723">
        <ele>108.77</ele>
        <time>2021-08-20T10:32:01Z</time>
      </trkpt>
      <trkpt lat="43.30451" lon="-0.8726">
        <ele>109.25</ele>
        <time>2021-08-20T10:32:09Z</time>
      </trkpt>
      <trkpt lat="43.30446" lon="-0.8728">
        <ele>111.17</ele>
        <time>2021-08-20T10:32:16Z</time>
      </trkpt>
      <trkpt lat="43.30446" lon="-0.87301">
        <ele>112.61</ele>
        <time>2021-08-20T10:32:23Z</time>
      </trkpt>
      <trkpt lat="43.30445" lon="-0.87313">
        <ele>114.05</ele>
        <time>2021-08-20T10:32:27Z</time>
      </trkpt>
      <trkpt lat="43.30445" lon="-0.87316">
        <ele>114.05</ele>
        <time>2021-08-20T10:32:28Z</time>
      </trkpt>
      <trkpt lat="43.30444" lon="-0.87319">
        <ele>114.53</ele>
        <time>2021-08-20T10:32:29Z</time>
      </trkpt>
      <trkpt lat="43.30443" lon="-0.87346">
        <ele>116.46</ele>
        <time>2021-08-20T10:32:38Z</time>
      </trkpt>
      <trkpt lat="43.30444" lon="-0.87378">
        <ele>117.9</ele>
        <time>2021-08-20T10:32:48Z</time>
      </trkpt>
      <trkpt lat="43.30443" lon="-0.87381">
        <ele>117.9</ele>
        <time>2021-08-20T10:32:49Z</time>
      </trkpt>
      <trkpt lat="43.30441" lon="-0.87384">
        <ele>117.9</ele>
        <time>2021-08-20T10:32:50Z</time>
      </trkpt>
      <trkpt lat="43.30439" lon="-0.87386">
        <ele>117.9</ele>
        <time>2021-08-20T10:32:51Z</time>
      </trkpt>
      <trkpt lat="43.30436" lon="-0.87387">
        <ele>117.9</ele>
        <time>2021-08-20T10:32:52Z</time>
      </trkpt>
      <trkpt lat="43.30433" lon="-0.87388">
        <ele>117.9</ele>
        <time>2021-08-20T10:32:53Z</time>
      </trkpt>
      <trkpt lat="43.30415" lon="-0.87404">
        <ele>117.9</ele>
        <time>2021-08-20T10:32:59Z</time>
      </trkpt>
      <trkpt lat="43.30402" lon="-0.87426">
        <ele>117.9</ele>
        <time>2021-08-20T10:33:05Z</time>
      </trkpt>
      <trkpt lat="43.30398" lon="-0.87444">
        <ele>116.46</ele>
        <time>2021-08-20T10:33:08Z</time>
      </trkpt>
      <trkpt lat="43.30397" lon="-0.87452">
        <ele>115.98</ele>
        <time>2021-08-20T10:33:09Z</time>
      </trkpt>
      <trkpt lat="43.30397" lon="-0.87461">
        <ele>115.01</ele>
        <time>2021-08-20T10:33:10Z</time>
      </trkpt>
      <trkpt lat="43.30398" lon="-0.87469">
        <ele>115.01</ele>
        <time>2021-08-20T10:33:11Z</time>
      </trkpt>
      <trkpt lat="43.304" lon="-0.87478">
        <ele>114.05</ele>
        <time>2021-08-20T10:33:12Z</time>
      </trkpt>
      <trkpt lat="43.30403" lon="-0.87488">
        <ele>113.57</ele>
        <time>2021-08-20T10:33:13Z</time>
      </trkpt>
      <trkpt lat="43.30408" lon="-0.87508">
        <ele>112.61</ele>
        <time>2021-08-20T10:33:15Z</time>
      </trkpt>
      <trkpt lat="43.30419" lon="-0.87536">
        <ele>112.13</ele>
        <time>2021-08-20T10:33:18Z</time>
      </trkpt>
      <trkpt lat="43.30435" lon="-0.87578">
        <ele>111.17</ele>
        <time>2021-08-20T10:33:23Z</time>
      </trkpt>
      <trkpt lat="43.30436" lon="-0.87589">
        <ele>110.69</ele>
        <time>2021-08-20T10:33:24Z</time>
      </trkpt>
      <trkpt lat="43.30437" lon="-0.87599">
        <ele>110.21</ele>
        <time>2021-08-20T10:33:25Z</time>
      </trkpt>
      <trkpt lat="43.30437" lon="-0.8761">
        <ele>110.21</ele>
        <time>2021-08-20T10:33:26Z</time>
      </trkpt>
      <trkpt lat="43.30436" lon="-0.8762">
        <ele>109.73</ele>
        <time>2021-08-20T10:33:27Z</time>
      </trkpt>
      <trkpt lat="43.30434" lon="-0.87631">
        <ele>109.73</ele>
        <time>2021-08-20T10:33:28Z</time>
      </trkpt>
      <trkpt lat="43.30431" lon="-0.8764">
        <ele>109.73</ele>
        <time>2021-08-20T10:33:29Z</time>
      </trkpt>
      <trkpt lat="43.30429" lon="-0.8765">
        <ele>109.73</ele>
        <time>2021-08-20T10:33:30Z</time>
      </trkpt>
      <trkpt lat="43.30429" lon="-0.87658">
        <ele>109.73</ele>
        <time>2021-08-20T10:33:31Z</time>
      </trkpt>
      <trkpt lat="43.3043" lon="-0.87666">
        <ele>111.17</ele>
        <time>2021-08-20T10:33:32Z</time>
      </trkpt>
      <trkpt lat="43.30432" lon="-0.87671">
        <ele>111.65</ele>
        <time>2021-08-20T10:33:33Z</time>
      </trkpt>
      <trkpt lat="43.30435" lon="-0.87675">
        <ele>111.65</ele>
        <time>2021-08-20T10:33:34Z</time>
      </trkpt>
      <trkpt lat="43.30465" lon="-0.8772">
        <ele>111.65</ele>
        <time>2021-08-20T10:33:43Z</time>
      </trkpt>
      <trkpt lat="43.30497" lon="-0.87768">
        <ele>112.61</ele>
        <time>2021-08-20T10:33:53Z</time>
      </trkpt>
      <trkpt lat="43.30526" lon="-0.87814">
        <ele>114.05</ele>
        <time>2021-08-20T10:34:04Z</time>
      </trkpt>
      <trkpt lat="43.30536" lon="-0.87831">
        <ele>115.98</ele>
        <time>2021-08-20T10:34:10Z</time>
      </trkpt>
      <trkpt lat="43.30538" lon="-0.87833">
        <ele>115.98</ele>
        <time>2021-08-20T10:34:11Z</time>
      </trkpt>
      <trkpt lat="43.30539" lon="-0.87835">
        <ele>116.46</ele>
        <time>2021-08-20T10:34:12Z</time>
      </trkpt>
      <trkpt lat="43.30552" lon="-0.87854">
        <ele>117.9</ele>
        <time>2021-08-20T10:34:21Z</time>
      </trkpt>
      <trkpt lat="43.30567" lon="-0.87877">
        <ele>117.9</ele>
        <time>2021-08-20T10:34:28Z</time>
      </trkpt>
      <trkpt lat="43.30594" lon="-0.87915">
        <ele>118.86</ele>
        <time>2021-08-20T10:34:38Z</time>
      </trkpt>
      <trkpt lat="43.30621" lon="-0.87942">
        <ele>118.86</ele>
        <time>2021-08-20T10:34:45Z</time>
      </trkpt>
      <trkpt lat="43.30625" lon="-0.87946">
        <ele>118.86</ele>
        <time>2021-08-20T10:34:46Z</time>
      </trkpt>
      <trkpt lat="43.30629" lon="-0.8795">
        <ele>118.86</ele>
        <time>2021-08-20T10:34:47Z</time>
      </trkpt>
      <trkpt lat="43.30634" lon="-0.87954">
        <ele>118.86</ele>
        <time>2021-08-20T10:34:48Z</time>
      </trkpt>
      <trkpt lat="43.30672" lon="-0.87986">
        <ele>117.42</ele>
        <time>2021-08-20T10:34:56Z</time>
      </trkpt>
      <trkpt lat="43.30707" lon="-0.88022">
        <ele>117.42</ele>
        <time>2021-08-20T10:35:03Z</time>
      </trkpt>
      <trkpt lat="43.30741" lon="-0.88076">
        <ele>117.42</ele>
        <time>2021-08-20T10:35:12Z</time>
      </trkpt>
      <trkpt lat="43.30766" lon="-0.8812">
        <ele>117.42</ele>
        <time>2021-08-20T10:35:19Z</time>
      </trkpt>
      <trkpt lat="43.30797" lon="-0.88186">
        <ele>117.42</ele>
        <time>2021-08-20T10:35:28Z</time>
      </trkpt>
      <trkpt lat="43.30828" lon="-0.88244">
        <ele>118.86</ele>
        <time>2021-08-20T10:35:37Z</time>
      </trkpt>
      <trkpt lat="43.30859" lon="-0.88299">
        <ele>119.34</ele>
        <time>2021-08-20T10:35:46Z</time>
      </trkpt>
      <trkpt lat="43.3089" lon="-0.88356">
        <ele>120.3</ele>
        <time>2021-08-20T10:35:55Z</time>
      </trkpt>
      <trkpt lat="43.30922" lon="-0.88425">
        <ele>120.3</ele>
        <time>2021-08-20T10:36:05Z</time>
      </trkpt>
      <trkpt lat="43.30947" lon="-0.88487">
        <ele>120.78</ele>
        <time>2021-08-20T10:36:14Z</time>
      </trkpt>
      <trkpt lat="43.3096" lon="-0.88522">
        <ele>122.22</ele>
        <time>2021-08-20T10:36:20Z</time>
      </trkpt>
      <trkpt lat="43.30963" lon="-0.88527">
        <ele>122.22</ele>
        <time>2021-08-20T10:36:21Z</time>
      </trkpt>
      <trkpt lat="43.30969" lon="-0.88543">
        <ele>122.22</ele>
        <time>2021-08-20T10:36:24Z</time>
      </trkpt>
      <trkpt lat="43.30989" lon="-0.88594">
        <ele>122.71</ele>
        <time>2021-08-20T10:36:33Z</time>
      </trkpt>
      <trkpt lat="43.3101" lon="-0.88649">
        <ele>123.19</ele>
        <time>2021-08-20T10:36:42Z</time>
      </trkpt>
      <trkpt lat="43.31035" lon="-0.88721">
        <ele>124.63</ele>
        <time>2021-08-20T10:36:54Z</time>
      </trkpt>
      <trkpt lat="43.31045" lon="-0.88742">
        <ele>125.11</ele>
        <time>2021-08-20T10:36:58Z</time>
      </trkpt>
      <trkpt lat="43.31067" lon="-0.88794">
        <ele>126.55</ele>
        <time>2021-08-20T10:37:08Z</time>
      </trkpt>
      <trkpt lat="43.31085" lon="-0.8884">
        <ele>127.99</ele>
        <time>2021-08-20T10:37:18Z</time>
      </trkpt>
      <trkpt lat="43.31095" lon="-0.88891">
        <ele>128.95</ele>
        <time>2021-08-20T10:37:29Z</time>
      </trkpt>
      <trkpt lat="43.311" lon="-0.88941">
        <ele>129.92</ele>
        <time>2021-08-20T10:37:39Z</time>
      </trkpt>
      <trkpt lat="43.31113" lon="-0.88994">
        <ele>130.88</ele>
        <time>2021-08-20T10:37:49Z</time>
      </trkpt>
      <trkpt lat="43.31127" lon="-0.8905">
        <ele>132.32</ele>
        <time>2021-08-20T10:37:59Z</time>
      </trkpt>
      <trkpt lat="43.31138" lon="-0.89094">
        <ele>133.28</ele>
        <time>2021-08-20T10:38:08Z</time>
      </trkpt>
      <trkpt lat="43.31148" lon="-0.89122">
        <ele>133.76</ele>
        <time>2021-08-20T10:38:14Z</time>
      </trkpt>
      <trkpt lat="43.3117" lon="-0.89175">
        <ele>135.68</ele>
        <time>2021-08-20T10:38:25Z</time>
      </trkpt>
      <trkpt lat="43.31181" lon="-0.89199">
        <ele>136.64</ele>
        <time>2021-08-20T10:38:32Z</time>
      </trkpt>
      <trkpt lat="43.31197" lon="-0.89235">
        <ele>138.57</ele>
        <time>2021-08-20T10:38:43Z</time>
      </trkpt>
      <trkpt lat="43.31209" lon="-0.89264">
        <ele>140.01</ele>
        <time>2021-08-20T10:38:52Z</time>
      </trkpt>
      <trkpt lat="43.31216" lon="-0.89278">
        <ele>141.45</ele>
        <time>2021-08-20T10:38:58Z</time>
      </trkpt>
      <trkpt lat="43.31226" lon="-0.89298">
        <ele>143.37</ele>
        <time>2021-08-20T10:39:07Z</time>
      </trkpt>
      <trkpt lat="43.31236" lon="-0.89321">
        <ele>144.82</ele>
        <time>2021-08-20T10:39:17Z</time>
      </trkpt>
      <trkpt lat="43.31239" lon="-0.89328">
        <ele>145.78</ele>
        <time>2021-08-20T10:39:20Z</time>
      </trkpt>
      <trkpt lat="43.31253" lon="-0.89349">
        <ele>147.22</ele>
        <time>2021-08-20T10:39:30Z</time>
      </trkpt>
      <trkpt lat="43.31262" lon="-0.89369">
        <ele>148.18</ele>
        <time>2021-08-20T10:39:38Z</time>
      </trkpt>
      <trkpt lat="43.31269" lon="-0.89384">
        <ele>149.14</ele>
        <time>2021-08-20T10:39:44Z</time>
      </trkpt>
      <trkpt lat="43.3127" lon="-0.89387">
        <ele>149.62</ele>
        <time>2021-08-20T10:39:46Z</time>
      </trkpt>
      <trkpt lat="43.31281" lon="-0.89411">
        <ele>150.1</ele>
        <time>2021-08-20T10:39:54Z</time>
      </trkpt>
      <trkpt lat="43.31294" lon="-0.89439">
        <ele>151.54</ele>
        <time>2021-08-20T10:40:04Z</time>
      </trkpt>
      <trkpt lat="43.31303" lon="-0.8947">
        <ele>152.51</ele>
        <time>2021-08-20T10:40:14Z</time>
      </trkpt>
      <trkpt lat="43.31308" lon="-0.89495">
        <ele>153.95</ele>
        <time>2021-08-20T10:40:23Z</time>
      </trkpt>
      <trkpt lat="43.31312" lon="-0.89514">
        <ele>155.87</ele>
        <time>2021-08-20T10:40:31Z</time>
      </trkpt>
      <trkpt lat="43.31317" lon="-0.89532">
        <ele>156.83</ele>
        <time>2021-08-20T10:40:39Z</time>
      </trkpt>
      <trkpt lat="43.31322" lon="-0.89555">
        <ele>158.27</ele>
        <time>2021-08-20T10:40:48Z</time>
      </trkpt>
      <trkpt lat="43.31326" lon="-0.89574">
        <ele>160.2</ele>
        <time>2021-08-20T10:40:56Z</time>
      </trkpt>
      <trkpt lat="43.31329" lon="-0.89593">
        <ele>161.64</ele>
        <time>2021-08-20T10:41:04Z</time>
      </trkpt>
      <trkpt lat="43.31331" lon="-0.89608">
        <ele>163.08</ele>
        <time>2021-08-20T10:41:12Z</time>
      </trkpt>
      <trkpt lat="43.31334" lon="-0.89621">
        <ele>164.04</ele>
        <time>2021-08-20T10:41:21Z</time>
      </trkpt>
      <trkpt lat="43.31335" lon="-0.89629">
        <ele>165</ele>
        <time>2021-08-20T10:41:26Z</time>
      </trkpt>
      <trkpt lat="43.31335" lon="-0.89631">
        <ele>165.48</ele>
        <time>2021-08-20T10:41:28Z</time>
      </trkpt>
      <trkpt lat="43.31335" lon="-0.89633">
        <ele>165.96</ele>
        <time>2021-08-20T10:41:29Z</time>
      </trkpt>
      <trkpt lat="43.31336" lon="-0.89634">
        <ele>165.96</ele>
        <time>2021-08-20T10:41:30Z</time>
      </trkpt>
      <trkpt lat="43.31338" lon="-0.89648">
        <ele>167.41</ele>
        <time>2021-08-20T10:41:40Z</time>
      </trkpt>
      <trkpt lat="43.3134" lon="-0.89659">
        <ele>168.37</ele>
        <time>2021-08-20T10:41:48Z</time>
      </trkpt>
      <trkpt lat="43.31342" lon="-0.89673">
        <ele>169.81</ele>
        <time>2021-08-20T10:41:58Z</time>
      </trkpt>
      <trkpt lat="43.31343" lon="-0.89676">
        <ele>170.29</ele>
        <time>2021-08-20T10:42:01Z</time>
      </trkpt>
      <trkpt lat="43.31345" lon="-0.89692">
        <ele>171.73</ele>
        <time>2021-08-20T10:42:11Z</time>
      </trkpt>
      <trkpt lat="43.31349" lon="-0.89709">
        <ele>173.17</ele>
        <time>2021-08-20T10:42:22Z</time>
      </trkpt>
      <trkpt lat="43.31351" lon="-0.89721">
        <ele>174.14</ele>
        <time>2021-08-20T10:42:30Z</time>
      </trkpt>
      <trkpt lat="43.31352" lon="-0.89724">
        <ele>175.1</ele>
        <time>2021-08-20T10:42:37Z</time>
      </trkpt>
      <trkpt lat="43.31353" lon="-0.89727">
        <ele>175.1</ele>
        <time>2021-08-20T10:42:39Z</time>
      </trkpt>
      <trkpt lat="43.31353" lon="-0.89729">
        <ele>175.1</ele>
        <time>2021-08-20T10:42:40Z</time>
      </trkpt>
      <trkpt lat="43.31353" lon="-0.89731">
        <ele>175.1</ele>
        <time>2021-08-20T10:42:41Z</time>
      </trkpt>
      <trkpt lat="43.31353" lon="-0.89734">
        <ele>175.58</ele>
        <time>2021-08-20T10:42:42Z</time>
      </trkpt>
      <trkpt lat="43.31354" lon="-0.89736">
        <ele>175.58</ele>
        <time>2021-08-20T10:42:43Z</time>
      </trkpt>
      <trkpt lat="43.31355" lon="-0.89739">
        <ele>175.58</ele>
        <time>2021-08-20T10:42:44Z</time>
      </trkpt>
      <trkpt lat="43.31356" lon="-0.89742">
        <ele>175.58</ele>
        <time>2021-08-20T10:42:45Z</time>
      </trkpt>
      <trkpt lat="43.31356" lon="-0.89745">
        <ele>175.58</ele>
        <time>2021-08-20T10:42:46Z</time>
      </trkpt>
      <trkpt lat="43.3136" lon="-0.89767">
        <ele>176.54</ele>
        <time>2021-08-20T10:42:53Z</time>
      </trkpt>
      <trkpt lat="43.31365" lon="-0.89803">
        <ele>177.02</ele>
        <time>2021-08-20T10:43:01Z</time>
      </trkpt>
      <trkpt lat="43.3136" lon="-0.89829">
        <ele>177.02</ele>
        <time>2021-08-20T10:43:07Z</time>
      </trkpt>
      <trkpt lat="43.31346" lon="-0.89836">
        <ele>177.5</ele>
        <time>2021-08-20T10:43:12Z</time>
      </trkpt>
      <trkpt lat="43.31336" lon="-0.89842">
        <ele>178.46</ele>
        <time>2021-08-20T10:43:18Z</time>
      </trkpt>
      <trkpt lat="43.31337" lon="-0.89841">
        <ele>178.46</ele>
        <time>2021-08-20T10:43:28Z</time>
      </trkpt>
      <trkpt lat="43.31338" lon="-0.89838">
        <ele>178.46</ele>
        <time>2021-08-20T10:43:51Z</time>
      </trkpt>
      <trkpt lat="43.31338" lon="-0.89839">
        <ele>178.46</ele>
        <time>2021-08-20T10:44:11Z</time>
      </trkpt>
      <trkpt lat="43.31339" lon="-0.8984">
        <ele>178.46</ele>
        <time>2021-08-20T10:44:36Z</time>
      </trkpt>
      <trkpt lat="43.31338" lon="-0.8984">
        <ele>177.98</ele>
        <time>2021-08-20T10:45:04Z</time>
      </trkpt>
      <trkpt lat="43.31339" lon="-0.8984">
        <ele>177.98</ele>
        <time>2021-08-20T10:45:12Z</time>
      </trkpt>
      <trkpt lat="43.3134" lon="-0.89842">
        <ele>177.98</ele>
        <time>2021-08-20T10:45:23Z</time>
      </trkpt>
      <trkpt lat="43.31339" lon="-0.89843">
        <ele>177.02</ele>
        <time>2021-08-20T10:45:38Z</time>
      </trkpt>
      <trkpt lat="43.31337" lon="-0.89841">
        <ele>177.02</ele>
        <time>2021-08-20T10:45:44Z</time>
      </trkpt>
      <trkpt lat="43.31337" lon="-0.89841">
        <ele>177.98</ele>
        <time>2021-08-20T10:45:58Z</time>
      </trkpt>
      <trkpt lat="43.31335" lon="-0.89841">
        <ele>177.98</ele>
        <time>2021-08-20T10:46:09Z</time>
      </trkpt>
      <trkpt lat="43.31335" lon="-0.89842">
        <ele>177.98</ele>
        <time>2021-08-20T10:46:21Z</time>
      </trkpt>
      <trkpt lat="43.31337" lon="-0.89842">
        <ele>177.98</ele>
        <time>2021-08-20T10:46:31Z</time>
      </trkpt>
      <trkpt lat="43.31337" lon="-0.89841">
        <ele>177.98</ele>
        <time>2021-08-20T10:46:38Z</time>
      </trkpt>
      <trkpt lat="43.31335" lon="-0.89841">
        <ele>177.98</ele>
        <time>2021-08-20T10:47:01Z</time>
      </trkpt>
      <trkpt lat="43.31336" lon="-0.89841">
        <ele>177.98</ele>
        <time>2021-08-20T10:47:21Z</time>
      </trkpt>
      <trkpt lat="43.31337" lon="-0.89842">
        <ele>177.98</ele>
        <time>2021-08-20T10:47:43Z</time>
      </trkpt>
      <trkpt lat="43.31339" lon="-0.8984">
        <ele>177.98</ele>
        <time>2021-08-20T10:48:08Z</time>
      </trkpt>
      <trkpt lat="43.31339" lon="-0.8984">
        <ele>177.98</ele>
        <time>2021-08-20T10:48:39Z</time>
      </trkpt>
      <trkpt lat="43.31339" lon="-0.89841">
        <ele>177.02</ele>
        <time>2021-08-20T10:49:04Z</time>
      </trkpt>
      <trkpt lat="43.31339" lon="-0.8984">
        <ele>177.02</ele>
        <time>2021-08-20T10:49:28Z</time>
      </trkpt>
      <trkpt lat="43.31338" lon="-0.89842">
        <ele>177.02</ele>
        <time>2021-08-20T10:49:49Z</time>
      </trkpt>
      <trkpt lat="43.31338" lon="-0.89843">
        <ele>177.02</ele>
        <time>2021-08-20T10:50:11Z</time>
      </trkpt>
      <trkpt lat="43.31337" lon="-0.89843">
        <ele>177.02</ele>
        <time>2021-08-20T10:50:37Z</time>
      </trkpt>
      <trkpt lat="43.31337" lon="-0.89843">
        <ele>177.02</ele>
        <time>2021-08-20T10:51:03Z</time>
      </trkpt>
      <trkpt lat="43.31337" lon="-0.89843">
        <ele>177.02</ele>
        <time>2021-08-20T10:51:24Z</time>
      </trkpt>
      <trkpt lat="43.31335" lon="-0.89844">
        <ele>177.02</ele>
        <time>2021-08-20T10:51:46Z</time>
      </trkpt>
      <trkpt lat="43.31335" lon="-0.89843">
        <ele>177.02</ele>
        <time>2021-08-20T10:52:11Z</time>
      </trkpt>
      <trkpt lat="43.31337" lon="-0.89842">
        <ele>177.98</ele>
        <time>2021-08-20T10:52:37Z</time>
      </trkpt>
      <trkpt lat="43.31337" lon="-0.89841">
        <ele>177.98</ele>
        <time>2021-08-20T10:52:56Z</time>
      </trkpt>
      <trkpt lat="43.31336" lon="-0.8984">
        <ele>177.98</ele>
        <time>2021-08-20T10:53:19Z</time>
      </trkpt>
      <trkpt lat="43.31337" lon="-0.89842">
        <ele>177.98</ele>
        <time>2021-08-20T10:53:39Z</time>
      </trkpt>
      <trkpt lat="43.31335" lon="-0.89842">
        <ele>177.5</ele>
        <time>2021-08-20T10:53:57Z</time>
      </trkpt>
      <trkpt lat="43.31335" lon="-0.89842">
        <ele>177.5</ele>
        <time>2021-08-20T10:54:18Z</time>
      </trkpt>
      <trkpt lat="43.31336" lon="-0.8984">
        <ele>177.5</ele>
        <time>2021-08-20T10:54:36Z</time>
      </trkpt>
      <trkpt lat="43.31336" lon="-0.8984">
        <ele>177.5</ele>
        <time>2021-08-20T10:54:44Z</time>
      </trkpt>
      <trkpt lat="43.31336" lon="-0.89839">
        <ele>177.5</ele>
        <time>2021-08-20T10:54:46Z</time>
      </trkpt>
      <trkpt lat="43.31335" lon="-0.8984">
        <ele>177.5</ele>
        <time>2021-08-20T10:54:52Z</time>
      </trkpt>
      <trkpt lat="43.31336" lon="-0.89841">
        <ele>177.98</ele>
        <time>2021-08-20T10:55:17Z</time>
      </trkpt>
      <trkpt lat="43.31336" lon="-0.89842">
        <ele>177.98</ele>
        <time>2021-08-20T10:55:39Z</time>
      </trkpt>
      <trkpt lat="43.31335" lon="-0.89843">
        <ele>177.98</ele>
        <time>2021-08-20T10:56:03Z</time>
      </trkpt>
      <trkpt lat="43.31336" lon="-0.89842">
        <ele>177.98</ele>
        <time>2021-08-20T10:56:24Z</time>
      </trkpt>
      <trkpt lat="43.31337" lon="-0.89842">
        <ele>177.98</ele>
        <time>2021-08-20T10:56:44Z</time>
      </trkpt>
      <trkpt lat="43.31336" lon="-0.8984">
        <ele>177.98</ele>
        <time>2021-08-20T10:57:01Z</time>
      </trkpt>
      <trkpt lat="43.31336" lon="-0.8984">
        <ele>177.98</ele>
        <time>2021-08-20T10:57:21Z</time>
      </trkpt>
      <trkpt lat="43.31336" lon="-0.89839">
        <ele>177.98</ele>
        <time>2021-08-20T10:57:37Z</time>
      </trkpt>
      <trkpt lat="43.31333" lon="-0.89843">
        <ele>177.98</ele>
        <time>2021-08-20T10:57:54Z</time>
      </trkpt>
      <trkpt lat="43.31333" lon="-0.89842">
        <ele>177.98</ele>
        <time>2021-08-20T10:58:14Z</time>
      </trkpt>
      <trkpt lat="43.31337" lon="-0.8984">
        <ele>177.98</ele>
        <time>2021-08-20T10:58:28Z</time>
      </trkpt>
      <trkpt lat="43.31336" lon="-0.8984">
        <ele>177.98</ele>
        <time>2021-08-20T10:58:46Z</time>
      </trkpt>
      <trkpt lat="43.31336" lon="-0.89841">
        <ele>177.98</ele>
        <time>2021-08-20T10:59:09Z</time>
      </trkpt>
      <trkpt lat="43.31336" lon="-0.89841">
        <ele>177.98</ele>
        <time>2021-08-20T10:59:24Z</time>
      </trkpt>
      <trkpt lat="43.31336" lon="-0.8984">
        <ele>177.5</ele>
        <time>2021-08-20T10:59:52Z</time>
      </trkpt>
      <trkpt lat="43.31334" lon="-0.89841">
        <ele>177.02</ele>
        <time>2021-08-20T11:00:23Z</time>
      </trkpt>
      <trkpt lat="43.31334" lon="-0.89841">
        <ele>177.02</ele>
        <time>2021-08-20T11:00:47Z</time>
      </trkpt>
      <trkpt lat="43.31335" lon="-0.89841">
        <ele>177.02</ele>
        <time>2021-08-20T11:01:04Z</time>
      </trkpt>
      <trkpt lat="43.31334" lon="-0.89841">
        <ele>177.02</ele>
        <time>2021-08-20T11:01:25Z</time>
      </trkpt>
      <trkpt lat="43.31336" lon="-0.89841">
        <ele>177.02</ele>
        <time>2021-08-20T11:01:47Z</time>
      </trkpt>
      <trkpt lat="43.31336" lon="-0.89843">
        <ele>176.54</ele>
        <time>2021-08-20T11:02:08Z</time>
      </trkpt>
      <trkpt lat="43.31335" lon="-0.89842">
        <ele>176.54</ele>
        <time>2021-08-20T11:02:34Z</time>
      </trkpt>
      <trkpt lat="43.31334" lon="-0.89841">
        <ele>176.54</ele>
        <time>2021-08-20T11:02:50Z</time>
      </trkpt>
      <trkpt lat="43.31337" lon="-0.89843">
        <ele>176.54</ele>
        <time>2021-08-20T11:03:09Z</time>
      </trkpt>
      <trkpt lat="43.31336" lon="-0.89842">
        <ele>176.54</ele>
        <time>2021-08-20T11:03:30Z</time>
      </trkpt>
      <trkpt lat="43.31337" lon="-0.89843">
        <ele>176.54</ele>
        <time>2021-08-20T11:03:48Z</time>
      </trkpt>
      <trkpt lat="43.31339" lon="-0.89842">
        <ele>176.54</ele>
        <time>2021-08-20T11:04:07Z</time>
      </trkpt>
      <trkpt lat="43.31338" lon="-0.89842">
        <ele>176.54</ele>
        <time>2021-08-20T11:04:27Z</time>
      </trkpt>
      <trkpt lat="43.31336" lon="-0.89843">
        <ele>176.54</ele>
        <time>2021-08-20T11:04:51Z</time>
      </trkpt>
      <trkpt lat="43.31338" lon="-0.89843">
        <ele>176.54</ele>
        <time>2021-08-20T11:05:18Z</time>
      </trkpt>
      <trkpt lat="43.31339" lon="-0.89842">
        <ele>176.54</ele>
        <time>2021-08-20T11:05:35Z</time>
      </trkpt>
      <trkpt lat="43.31336" lon="-0.89842">
        <ele>176.54</ele>
        <time>2021-08-20T11:05:56Z</time>
      </trkpt>
      <trkpt lat="43.31336" lon="-0.89841">
        <ele>176.54</ele>
        <time>2021-08-20T11:06:21Z</time>
      </trkpt>
      <trkpt lat="43.31336" lon="-0.89841">
        <ele>176.54</ele>
        <time>2021-08-20T11:06:39Z</time>
      </trkpt>
      <trkpt lat="43.31336" lon="-0.89841">
        <ele>176.54</ele>
        <time>2021-08-20T11:06:59Z</time>
      </trkpt>
      <trkpt lat="43.31337" lon="-0.8984">
        <ele>176.54</ele>
        <time>2021-08-20T11:07:24Z</time>
      </trkpt>
      <trkpt lat="43.31337" lon="-0.8984">
        <ele>176.54</ele>
        <time>2021-08-20T11:07:45Z</time>
      </trkpt>
      <trkpt lat="43.31336" lon="-0.89838">
        <ele>176.54</ele>
        <time>2021-08-20T11:08:04Z</time>
      </trkpt>
      <trkpt lat="43.31335" lon="-0.89839">
        <ele>176.54</ele>
        <time>2021-08-20T11:08:20Z</time>
      </trkpt>
      <trkpt lat="43.31336" lon="-0.89838">
        <ele>176.54</ele>
        <time>2021-08-20T11:08:37Z</time>
      </trkpt>
      <trkpt lat="43.31336" lon="-0.89838">
        <ele>177.98</ele>
        <time>2021-08-20T11:08:51Z</time>
      </trkpt>
      <trkpt lat="43.31336" lon="-0.8984">
        <ele>177.98</ele>
        <time>2021-08-20T11:09:10Z</time>
      </trkpt>
      <trkpt lat="43.31336" lon="-0.8984">
        <ele>178.94</ele>
        <time>2021-08-20T11:09:22Z</time>
      </trkpt>
      <trkpt lat="43.31337" lon="-0.8984">
        <ele>178.94</ele>
        <time>2021-08-20T11:09:33Z</time>
      </trkpt>
      <trkpt lat="43.31335" lon="-0.89841">
        <ele>178.94</ele>
        <time>2021-08-20T11:09:55Z</time>
      </trkpt>
      <trkpt lat="43.31336" lon="-0.89841">
        <ele>178.94</ele>
        <time>2021-08-20T11:10:09Z</time>
      </trkpt>
      <trkpt lat="43.31335" lon="-0.89839">
        <ele>178.94</ele>
        <time>2021-08-20T11:10:15Z</time>
      </trkpt>
      <trkpt lat="43.31335" lon="-0.89839">
        <ele>178.94</ele>
        <time>2021-08-20T11:10:25Z</time>
      </trkpt>
      <trkpt lat="43.31334" lon="-0.89845">
        <ele>178.94</ele>
        <time>2021-08-20T11:10:39Z</time>
      </trkpt>
      <trkpt lat="43.31333" lon="-0.89844">
        <ele>178.94</ele>
        <time>2021-08-20T11:10:57Z</time>
      </trkpt>
      <trkpt lat="43.31334" lon="-0.89841">
        <ele>178.94</ele>
        <time>2021-08-20T11:11:10Z</time>
      </trkpt>
      <trkpt lat="43.31335" lon="-0.8984">
        <ele>178.94</ele>
        <time>2021-08-20T11:11:20Z</time>
      </trkpt>
      <trkpt lat="43.31334" lon="-0.89837">
        <ele>178.94</ele>
        <time>2021-08-20T11:11:30Z</time>
      </trkpt>
      <trkpt lat="43.31334" lon="-0.89835">
        <ele>178.94</ele>
        <time>2021-08-20T11:11:31Z</time>
      </trkpt>
      <trkpt lat="43.31333" lon="-0.89834">
        <ele>178.94</ele>
        <time>2021-08-20T11:11:32Z</time>
      </trkpt>
      <trkpt lat="43.31332" lon="-0.89833">
        <ele>178.94</ele>
        <time>2021-08-20T11:11:33Z</time>
      </trkpt>
      <trkpt lat="43.3133" lon="-0.89833">
        <ele>178.94</ele>
        <time>2021-08-20T11:11:34Z</time>
      </trkpt>
      <trkpt lat="43.31327" lon="-0.89832">
        <ele>178.94</ele>
        <time>2021-08-20T11:11:35Z</time>
      </trkpt>
      <trkpt lat="43.31324" lon="-0.89832">
        <ele>178.94</ele>
        <time>2021-08-20T11:11:36Z</time>
      </trkpt>
      <trkpt lat="43.313" lon="-0.8983">
        <ele>177.5</ele>
        <time>2021-08-20T11:11:43Z</time>
      </trkpt>
      <trkpt lat="43.31275" lon="-0.89825">
        <ele>177.5</ele>
        <time>2021-08-20T11:11:50Z</time>
      </trkpt>
      <trkpt lat="43.31259" lon="-0.89823">
        <ele>178.94</ele>
        <time>2021-08-20T11:11:55Z</time>
      </trkpt>
      <trkpt lat="43.31251" lon="-0.89826">
        <ele>178.94</ele>
        <time>2021-08-20T11:11:58Z</time>
      </trkpt>
      <trkpt lat="43.31249" lon="-0.89828">
        <ele>178.94</ele>
        <time>2021-08-20T11:11:59Z</time>
      </trkpt>
      <trkpt lat="43.31246" lon="-0.89831">
        <ele>179.42</ele>
        <time>2021-08-20T11:12:00Z</time>
      </trkpt>
      <trkpt lat="43.31229" lon="-0.89841">
        <ele>179.42</ele>
        <time>2021-08-20T11:12:06Z</time>
      </trkpt>
      <trkpt lat="43.31211" lon="-0.89851">
        <ele>180.38</ele>
        <time>2021-08-20T11:12:13Z</time>
      </trkpt>
      <trkpt lat="43.31187" lon="-0.8986">
        <ele>181.83</ele>
        <time>2021-08-20T11:12:22Z</time>
      </trkpt>
      <trkpt lat="43.31168" lon="-0.89859">
        <ele>182.31</ele>
        <time>2021-08-20T11:12:28Z</time>
      </trkpt>
      <trkpt lat="43.3115" lon="-0.89856">
        <ele>180.38</ele>
        <time>2021-08-20T11:12:32Z</time>
      </trkpt>
      <trkpt lat="43.31105" lon="-0.89855">
        <ele>177.98</ele>
        <time>2021-08-20T11:12:40Z</time>
      </trkpt>
      <trkpt lat="43.31099" lon="-0.89853">
        <ele>177.5</ele>
        <time>2021-08-20T11:12:41Z</time>
      </trkpt>
      <trkpt lat="43.31064" lon="-0.89842">
        <ele>174.14</ele>
        <time>2021-08-20T11:12:46Z</time>
      </trkpt>
      <trkpt lat="43.31056" lon="-0.89839">
        <ele>174.14</ele>
        <time>2021-08-20T11:12:47Z</time>
      </trkpt>
      <trkpt lat="43.3101" lon="-0.89836">
        <ele>173.17</ele>
        <time>2021-08-20T11:12:53Z</time>
      </trkpt>
      <trkpt lat="43.31003" lon="-0.89835">
        <ele>172.69</ele>
        <time>2021-08-20T11:12:54Z</time>
      </trkpt>
      <trkpt lat="43.30996" lon="-0.89832">
        <ele>172.69</ele>
        <time>2021-08-20T11:12:55Z</time>
      </trkpt>
      <trkpt lat="43.30989" lon="-0.89829">
        <ele>171.73</ele>
        <time>2021-08-20T11:12:56Z</time>
      </trkpt>
      <trkpt lat="43.30982" lon="-0.89825">
        <ele>170.77</ele>
        <time>2021-08-20T11:12:57Z</time>
      </trkpt>
      <trkpt lat="43.30975" lon="-0.8982">
        <ele>170.29</ele>
        <time>2021-08-20T11:12:58Z</time>
      </trkpt>
      <trkpt lat="43.30943" lon="-0.89797">
        <ele>171.73</ele>
        <time>2021-08-20T11:13:03Z</time>
      </trkpt>
      <trkpt lat="43.30932" lon="-0.89789">
        <ele>171.73</ele>
        <time>2021-08-20T11:13:05Z</time>
      </trkpt>
      <trkpt lat="43.30926" lon="-0.89786">
        <ele>171.73</ele>
        <time>2021-08-20T11:13:06Z</time>
      </trkpt>
      <trkpt lat="43.3092" lon="-0.89784">
        <ele>171.73</ele>
        <time>2021-08-20T11:13:07Z</time>
      </trkpt>
      <trkpt lat="43.30914" lon="-0.89784">
        <ele>171.73</ele>
        <time>2021-08-20T11:13:08Z</time>
      </trkpt>
      <trkpt lat="43.30908" lon="-0.89785">
        <ele>171.73</ele>
        <time>2021-08-20T11:13:09Z</time>
      </trkpt>
      <trkpt lat="43.30901" lon="-0.89785">
        <ele>171.73</ele>
        <time>2021-08-20T11:13:10Z</time>
      </trkpt>
      <trkpt lat="43.30894" lon="-0.89784">
        <ele>169.81</ele>
        <time>2021-08-20T11:13:11Z</time>
      </trkpt>
      <trkpt lat="43.30887" lon="-0.89783">
        <ele>169.81</ele>
        <time>2021-08-20T11:13:12Z</time>
      </trkpt>
      <trkpt lat="43.30837" lon="-0.89774">
        <ele>168.85</ele>
        <time>2021-08-20T11:13:19Z</time>
      </trkpt>
      <trkpt lat="43.30782" lon="-0.89768">
        <ele>167.89</ele>
        <time>2021-08-20T11:13:27Z</time>
      </trkpt>
      <trkpt lat="43.30758" lon="-0.89762">
        <ele>168.85</ele>
        <time>2021-08-20T11:13:32Z</time>
      </trkpt>
      <trkpt lat="43.30754" lon="-0.89765">
        <ele>169.33</ele>
        <time>2021-08-20T11:13:33Z</time>
      </trkpt>
      <trkpt lat="43.30752" lon="-0.89769">
        <ele>169.33</ele>
        <time>2021-08-20T11:13:34Z</time>
      </trkpt>
      <trkpt lat="43.30751" lon="-0.89773">
        <ele>169.33</ele>
        <time>2021-08-20T11:13:35Z</time>
      </trkpt>
      <trkpt lat="43.3075" lon="-0.89778">
        <ele>169.33</ele>
        <time>2021-08-20T11:13:36Z</time>
      </trkpt>
      <trkpt lat="43.30751" lon="-0.89812">
        <ele>168.37</ele>
        <time>2021-08-20T11:13:42Z</time>
      </trkpt>
      <trkpt lat="43.30752" lon="-0.89867">
        <ele>168.37</ele>
        <time>2021-08-20T11:13:50Z</time>
      </trkpt>
      <trkpt lat="43.30757" lon="-0.89909">
        <ele>168.37</ele>
        <time>2021-08-20T11:13:58Z</time>
      </trkpt>
      <trkpt lat="43.30765" lon="-0.89949">
        <ele>167.41</ele>
        <time>2021-08-20T11:14:05Z</time>
      </trkpt>
      <trkpt lat="43.30772" lon="-0.89984">
        <ele>165.96</ele>
        <time>2021-08-20T11:14:10Z</time>
      </trkpt>
      <trkpt lat="43.30774" lon="-0.89992">
        <ele>165.96</ele>
        <time>2021-08-20T11:14:11Z</time>
      </trkpt>
      <trkpt lat="43.30786" lon="-0.90057">
        <ele>162.12</ele>
        <time>2021-08-20T11:14:18Z</time>
      </trkpt>
      <trkpt lat="43.30791" lon="-0.90078">
        <ele>161.64</ele>
        <time>2021-08-20T11:14:20Z</time>
      </trkpt>
      <trkpt lat="43.30795" lon="-0.90099">
        <ele>160.2</ele>
        <time>2021-08-20T11:14:22Z</time>
      </trkpt>
      <trkpt lat="43.308" lon="-0.9012">
        <ele>158.75</ele>
        <time>2021-08-20T11:14:24Z</time>
      </trkpt>
      <trkpt lat="43.30812" lon="-0.90185">
        <ele>155.39</ele>
        <time>2021-08-20T11:14:30Z</time>
      </trkpt>
      <trkpt lat="43.30827" lon="-0.90259">
        <ele>152.99</ele>
        <time>2021-08-20T11:14:37Z</time>
      </trkpt>
      <trkpt lat="43.30835" lon="-0.90295">
        <ele>151.06</ele>
        <time>2021-08-20T11:14:41Z</time>
      </trkpt>
      <trkpt lat="43.30836" lon="-0.90302">
        <ele>151.06</ele>
        <time>2021-08-20T11:14:42Z</time>
      </trkpt>
      <trkpt lat="43.30837" lon="-0.90309">
        <ele>151.06</ele>
        <time>2021-08-20T11:14:43Z</time>
      </trkpt>
      <trkpt lat="43.30838" lon="-0.90316">
        <ele>150.58</ele>
        <time>2021-08-20T11:14:44Z</time>
      </trkpt>
      <trkpt lat="43.3084" lon="-0.90322">
        <ele>150.1</ele>
        <time>2021-08-20T11:14:45Z</time>
      </trkpt>
      <trkpt lat="43.30842" lon="-0.90329">
        <ele>149.14</ele>
        <time>2021-08-20T11:14:46Z</time>
      </trkpt>
      <trkpt lat="43.30844" lon="-0.90335">
        <ele>148.66</ele>
        <time>2021-08-20T11:14:47Z</time>
      </trkpt>
      <trkpt lat="43.30846" lon="-0.90342">
        <ele>148.66</ele>
        <time>2021-08-20T11:14:48Z</time>
      </trkpt>
      <trkpt lat="43.30848" lon="-0.9035">
        <ele>148.18</ele>
        <time>2021-08-20T11:14:49Z</time>
      </trkpt>
      <trkpt lat="43.30862" lon="-0.90407">
        <ele>144.82</ele>
        <time>2021-08-20T11:14:56Z</time>
      </trkpt>
      <trkpt lat="43.30863" lon="-0.90415">
        <ele>144.82</ele>
        <time>2021-08-20T11:14:57Z</time>
      </trkpt>
      <trkpt lat="43.30863" lon="-0.90421">
        <ele>144.34</ele>
        <time>2021-08-20T11:14:58Z</time>
      </trkpt>
      <trkpt lat="43.30862" lon="-0.90425">
        <ele>144.34</ele>
        <time>2021-08-20T11:14:59Z</time>
      </trkpt>
      <trkpt lat="43.30861" lon="-0.90428">
        <ele>143.37</ele>
        <time>2021-08-20T11:15:00Z</time>
      </trkpt>
      <trkpt lat="43.30858" lon="-0.90429">
        <ele>142.89</ele>
        <time>2021-08-20T11:15:01Z</time>
      </trkpt>
      <trkpt lat="43.30857" lon="-0.90429">
        <ele>142.41</ele>
        <time>2021-08-20T11:15:02Z</time>
      </trkpt>
      <trkpt lat="43.30856" lon="-0.90428">
        <ele>141.93</ele>
        <time>2021-08-20T11:15:03Z</time>
      </trkpt>
      <trkpt lat="43.30849" lon="-0.90418">
        <ele>138.09</ele>
        <time>2021-08-20T11:15:09Z</time>
      </trkpt>
      <trkpt lat="43.30845" lon="-0.90414">
        <ele>137.13</ele>
        <time>2021-08-20T11:15:11Z</time>
      </trkpt>
      <trkpt lat="43.30843" lon="-0.90414">
        <ele>136.16</ele>
        <time>2021-08-20T11:15:12Z</time>
      </trkpt>
      <trkpt lat="43.30841" lon="-0.90414">
        <ele>135.68</ele>
        <time>2021-08-20T11:15:13Z</time>
      </trkpt>
      <trkpt lat="43.30839" lon="-0.90415">
        <ele>135.68</ele>
        <time>2021-08-20T11:15:14Z</time>
      </trkpt>
      <trkpt lat="43.30838" lon="-0.90416">
        <ele>135.2</ele>
        <time>2021-08-20T11:15:15Z</time>
      </trkpt>
      <trkpt lat="43.30836" lon="-0.90418">
        <ele>135.2</ele>
        <time>2021-08-20T11:15:16Z</time>
      </trkpt>
      <trkpt lat="43.30835" lon="-0.90419">
        <ele>135.2</ele>
        <time>2021-08-20T11:15:17Z</time>
      </trkpt>
      <trkpt lat="43.30835" lon="-0.90421">
        <ele>134.72</ele>
        <time>2021-08-20T11:15:18Z</time>
      </trkpt>
      <trkpt lat="43.30835" lon="-0.90424">
        <ele>135.2</ele>
        <time>2021-08-20T11:15:19Z</time>
      </trkpt>
      <trkpt lat="43.30835" lon="-0.90427">
        <ele>135.2</ele>
        <time>2021-08-20T11:15:20Z</time>
      </trkpt>
      <trkpt lat="43.30837" lon="-0.9043">
        <ele>135.2</ele>
        <time>2021-08-20T11:15:21Z</time>
      </trkpt>
      <trkpt lat="43.30838" lon="-0.90433">
        <ele>134.72</ele>
        <time>2021-08-20T11:15:22Z</time>
      </trkpt>
      <trkpt lat="43.3084" lon="-0.90437">
        <ele>134.24</ele>
        <time>2021-08-20T11:15:23Z</time>
      </trkpt>
      <trkpt lat="43.30842" lon="-0.90441">
        <ele>134.24</ele>
        <time>2021-08-20T11:15:24Z</time>
      </trkpt>
      <trkpt lat="43.30844" lon="-0.90445">
        <ele>133.76</ele>
        <time>2021-08-20T11:15:25Z</time>
      </trkpt>
      <trkpt lat="43.30846" lon="-0.9045">
        <ele>133.76</ele>
        <time>2021-08-20T11:15:26Z</time>
      </trkpt>
      <trkpt lat="43.30848" lon="-0.90455">
        <ele>133.28</ele>
        <time>2021-08-20T11:15:27Z</time>
      </trkpt>
      <trkpt lat="43.30866" lon="-0.905">
        <ele>129.92</ele>
        <time>2021-08-20T11:15:33Z</time>
      </trkpt>
      <trkpt lat="43.30889" lon="-0.90535">
        <ele>127.03</ele>
        <time>2021-08-20T11:15:37Z</time>
      </trkpt>
      <trkpt lat="43.30912" lon="-0.90559">
        <ele>124.15</ele>
        <time>2021-08-20T11:15:40Z</time>
      </trkpt>
      <trkpt lat="43.30922" lon="-0.90565">
        <ele>123.19</ele>
        <time>2021-08-20T11:15:41Z</time>
      </trkpt>
      <trkpt lat="43.30932" lon="-0.9057">
        <ele>122.71</ele>
        <time>2021-08-20T11:15:42Z</time>
      </trkpt>
      <trkpt lat="43.30973" lon="-0.90593">
        <ele>119.34</ele>
        <time>2021-08-20T11:15:46Z</time>
      </trkpt>
      <trkpt lat="43.30983" lon="-0.90599">
        <ele>119.34</ele>
        <time>2021-08-20T11:15:47Z</time>
      </trkpt>
      <trkpt lat="43.31029" lon="-0.90639">
        <ele>115.5</ele>
        <time>2021-08-20T11:15:52Z</time>
      </trkpt>
      <trkpt lat="43.31087" lon="-0.90704">
        <ele>112.13</ele>
        <time>2021-08-20T11:15:59Z</time>
      </trkpt>
      <trkpt lat="43.31095" lon="-0.90713">
        <ele>112.13</ele>
        <time>2021-08-20T11:16:00Z</time>
      </trkpt>
      <trkpt lat="43.31136" lon="-0.90761">
        <ele>110.21</ele>
        <time>2021-08-20T11:16:05Z</time>
      </trkpt>
      <trkpt lat="43.312" lon="-0.90815">
        <ele>107.32</ele>
        <time>2021-08-20T11:16:12Z</time>
      </trkpt>
      <trkpt lat="43.31255" lon="-0.90848">
        <ele>106.84</ele>
        <time>2021-08-20T11:16:18Z</time>
      </trkpt>
      <trkpt lat="43.31262" lon="-0.90855">
        <ele>106.36</ele>
        <time>2021-08-20T11:16:19Z</time>
      </trkpt>
      <trkpt lat="43.31269" lon="-0.90863">
        <ele>106.36</ele>
        <time>2021-08-20T11:16:20Z</time>
      </trkpt>
      <trkpt lat="43.31275" lon="-0.90872">
        <ele>106.84</ele>
        <time>2021-08-20T11:16:21Z</time>
      </trkpt>
      <trkpt lat="43.31281" lon="-0.90881">
        <ele>106.36</ele>
        <time>2021-08-20T11:16:22Z</time>
      </trkpt>
      <trkpt lat="43.31286" lon="-0.90891">
        <ele>106.84</ele>
        <time>2021-08-20T11:16:23Z</time>
      </trkpt>
      <trkpt lat="43.31289" lon="-0.90901">
        <ele>106.36</ele>
        <time>2021-08-20T11:16:24Z</time>
      </trkpt>
      <trkpt lat="43.31293" lon="-0.90911">
        <ele>106.84</ele>
        <time>2021-08-20T11:16:25Z</time>
      </trkpt>
      <trkpt lat="43.31295" lon="-0.90921">
        <ele>106.84</ele>
        <time>2021-08-20T11:16:26Z</time>
      </trkpt>
      <trkpt lat="43.31297" lon="-0.90931">
        <ele>106.36</ele>
        <time>2021-08-20T11:16:27Z</time>
      </trkpt>
      <trkpt lat="43.31299" lon="-0.90942">
        <ele>106.84</ele>
        <time>2021-08-20T11:16:28Z</time>
      </trkpt>
      <trkpt lat="43.31301" lon="-0.90952">
        <ele>105.88</ele>
        <time>2021-08-20T11:16:29Z</time>
      </trkpt>
      <trkpt lat="43.31312" lon="-0.91026">
        <ele>105.88</ele>
        <time>2021-08-20T11:16:37Z</time>
      </trkpt>
      <trkpt lat="43.31318" lon="-0.91073">
        <ele>107.32</ele>
        <time>2021-08-20T11:16:43Z</time>
      </trkpt>
      <trkpt lat="43.31323" lon="-0.91104">
        <ele>107.81</ele>
        <time>2021-08-20T11:16:48Z</time>
      </trkpt>
      <trkpt lat="43.31324" lon="-0.91109">
        <ele>107.81</ele>
        <time>2021-08-20T11:16:49Z</time>
      </trkpt>
      <trkpt lat="43.31325" lon="-0.91115">
        <ele>108.29</ele>
        <time>2021-08-20T11:16:50Z</time>
      </trkpt>
      <trkpt lat="43.31325" lon="-0.9112">
        <ele>108.29</ele>
        <time>2021-08-20T11:16:51Z</time>
      </trkpt>
      <trkpt lat="43.31326" lon="-0.91125">
        <ele>108.77</ele>
        <time>2021-08-20T11:16:52Z</time>
      </trkpt>
      <trkpt lat="43.31327" lon="-0.91129">
        <ele>108.77</ele>
        <time>2021-08-20T11:16:53Z</time>
      </trkpt>
      <trkpt lat="43.31328" lon="-0.91134">
        <ele>108.77</ele>
        <time>2021-08-20T11:16:54Z</time>
      </trkpt>
      <trkpt lat="43.31333" lon="-0.91166">
        <ele>109.73</ele>
        <time>2021-08-20T11:17:01Z</time>
      </trkpt>
      <trkpt lat="43.31339" lon="-0.91206">
        <ele>110.69</ele>
        <time>2021-08-20T11:17:09Z</time>
      </trkpt>
      <trkpt lat="43.31353" lon="-0.91258">
        <ele>112.13</ele>
        <time>2021-08-20T11:17:20Z</time>
      </trkpt>
      <trkpt lat="43.31365" lon="-0.91294">
        <ele>112.61</ele>
        <time>2021-08-20T11:17:28Z</time>
      </trkpt>
      <trkpt lat="43.31382" lon="-0.91338">
        <ele>113.09</ele>
        <time>2021-08-20T11:17:37Z</time>
      </trkpt>
      <trkpt lat="43.31384" lon="-0.91343">
        <ele>113.09</ele>
        <time>2021-08-20T11:17:38Z</time>
      </trkpt>
      <trkpt lat="43.31386" lon="-0.91348">
        <ele>113.09</ele>
        <time>2021-08-20T11:17:39Z</time>
      </trkpt>
      <trkpt lat="43.31388" lon="-0.91353">
        <ele>113.09</ele>
        <time>2021-08-20T11:17:40Z</time>
      </trkpt>
      <trkpt lat="43.31389" lon="-0.91358">
        <ele>113.09</ele>
        <time>2021-08-20T11:17:41Z</time>
      </trkpt>
      <trkpt lat="43.31405" lon="-0.91403">
        <ele>113.57</ele>
        <time>2021-08-20T11:17:50Z</time>
      </trkpt>
      <trkpt lat="43.31419" lon="-0.91441">
        <ele>115.01</ele>
        <time>2021-08-20T11:17:58Z</time>
      </trkpt>
      <trkpt lat="43.31427" lon="-0.91472">
        <ele>115.98</ele>
        <time>2021-08-20T11:18:05Z</time>
      </trkpt>
      <trkpt lat="43.31425" lon="-0.91475">
        <ele>115.98</ele>
        <time>2021-08-20T11:18:06Z</time>
      </trkpt>
      <trkpt lat="43.31422" lon="-0.91477">
        <ele>115.98</ele>
        <time>2021-08-20T11:18:07Z</time>
      </trkpt>
      <trkpt lat="43.31419" lon="-0.91477">
        <ele>115.5</ele>
        <time>2021-08-20T11:18:08Z</time>
      </trkpt>
      <trkpt lat="43.31416" lon="-0.91477">
        <ele>115.5</ele>
        <time>2021-08-20T11:18:09Z</time>
      </trkpt>
      <trkpt lat="43.31412" lon="-0.91477">
        <ele>115.5</ele>
        <time>2021-08-20T11:18:10Z</time>
      </trkpt>
      <trkpt lat="43.31408" lon="-0.91476">
        <ele>115.5</ele>
        <time>2021-08-20T11:18:11Z</time>
      </trkpt>
      <trkpt lat="43.31404" lon="-0.91475">
        <ele>115.5</ele>
        <time>2021-08-20T11:18:12Z</time>
      </trkpt>
      <trkpt lat="43.31383" lon="-0.91468">
        <ele>112.13</ele>
        <time>2021-08-20T11:18:16Z</time>
      </trkpt>
      <trkpt lat="43.31369" lon="-0.91464">
        <ele>110.69</ele>
        <time>2021-08-20T11:18:18Z</time>
      </trkpt>
      <trkpt lat="43.31361" lon="-0.91464">
        <ele>109.73</ele>
        <time>2021-08-20T11:18:19Z</time>
      </trkpt>
      <trkpt lat="43.31352" lon="-0.91464">
        <ele>109.25</ele>
        <time>2021-08-20T11:18:20Z</time>
      </trkpt>
      <trkpt lat="43.31344" lon="-0.91465">
        <ele>109.25</ele>
        <time>2021-08-20T11:18:21Z</time>
      </trkpt>
      <trkpt lat="43.31336" lon="-0.91467">
        <ele>109.25</ele>
        <time>2021-08-20T11:18:22Z</time>
      </trkpt>
      <trkpt lat="43.31328" lon="-0.91469">
        <ele>108.77</ele>
        <time>2021-08-20T11:18:23Z</time>
      </trkpt>
      <trkpt lat="43.31274" lon="-0.91488">
        <ele>108.77</ele>
        <time>2021-08-20T11:18:31Z</time>
      </trkpt>
      <trkpt lat="43.31264" lon="-0.91492">
        <ele>110.21</ele>
        <time>2021-08-20T11:18:33Z</time>
      </trkpt>
      <trkpt lat="43.31246" lon="-0.91498">
        <ele>112.61</ele>
        <time>2021-08-20T11:18:38Z</time>
      </trkpt>
      <trkpt lat="43.31226" lon="-0.9151">
        <ele>114.05</ele>
        <time>2021-08-20T11:18:47Z</time>
      </trkpt>
      <trkpt lat="43.31206" lon="-0.9152">
        <ele>115.5</ele>
        <time>2021-08-20T11:18:55Z</time>
      </trkpt>
      <trkpt lat="43.31186" lon="-0.91532">
        <ele>116.46</ele>
        <time>2021-08-20T11:19:03Z</time>
      </trkpt>
      <trkpt lat="43.31162" lon="-0.9155">
        <ele>117.42</ele>
        <time>2021-08-20T11:19:13Z</time>
      </trkpt>
      <trkpt lat="43.31139" lon="-0.91568">
        <ele>117.9</ele>
        <time>2021-08-20T11:19:21Z</time>
      </trkpt>
      <trkpt lat="43.31112" lon="-0.91588">
        <ele>118.38</ele>
        <time>2021-08-20T11:19:29Z</time>
      </trkpt>
      <trkpt lat="43.31102" lon="-0.91596">
        <ele>118.38</ele>
        <time>2021-08-20T11:19:32Z</time>
      </trkpt>
      <trkpt lat="43.31098" lon="-0.91598">
        <ele>118.86</ele>
        <time>2021-08-20T11:19:33Z</time>
      </trkpt>
      <trkpt lat="43.31082" lon="-0.91609">
        <ele>118.38</ele>
        <time>2021-08-20T11:19:37Z</time>
      </trkpt>
      <trkpt lat="43.31069" lon="-0.91617">
        <ele>117.42</ele>
        <time>2021-08-20T11:19:40Z</time>
      </trkpt>
      <trkpt lat="43.31026" lon="-0.91638">
        <ele>116.46</ele>
        <time>2021-08-20T11:19:48Z</time>
      </trkpt>
      <trkpt lat="43.31014" lon="-0.91644">
        <ele>115.5</ele>
        <time>2021-08-20T11:19:50Z</time>
      </trkpt>
      <trkpt lat="43.3096" lon="-0.91667">
        <ele>113.09</ele>
        <time>2021-08-20T11:19:58Z</time>
      </trkpt>
      <trkpt lat="43.30926" lon="-0.91683">
        <ele>115.5</ele>
        <time>2021-08-20T11:20:04Z</time>
      </trkpt>
      <trkpt lat="43.30917" lon="-0.91689">
        <ele>115.98</ele>
        <time>2021-08-20T11:20:06Z</time>
      </trkpt>
      <trkpt lat="43.30913" lon="-0.9169">
        <ele>116.46</ele>
        <time>2021-08-20T11:20:07Z</time>
      </trkpt>
      <trkpt lat="43.30909" lon="-0.91692">
        <ele>116.46</ele>
        <time>2021-08-20T11:20:08Z</time>
      </trkpt>
      <trkpt lat="43.30906" lon="-0.91694">
        <ele>116.46</ele>
        <time>2021-08-20T11:20:09Z</time>
      </trkpt>
      <trkpt lat="43.30902" lon="-0.91696">
        <ele>117.42</ele>
        <time>2021-08-20T11:20:10Z</time>
      </trkpt>
      <trkpt lat="43.3088" lon="-0.91712">
        <ele>117.9</ele>
        <time>2021-08-20T11:20:17Z</time>
      </trkpt>
      <trkpt lat="43.30864" lon="-0.91724">
        <ele>117.9</ele>
        <time>2021-08-20T11:20:22Z</time>
      </trkpt>
      <trkpt lat="43.3086" lon="-0.91726">
        <ele>117.9</ele>
        <time>2021-08-20T11:20:23Z</time>
      </trkpt>
      <trkpt lat="43.30836" lon="-0.91747">
        <ele>118.38</ele>
        <time>2021-08-20T11:20:30Z</time>
      </trkpt>
      <trkpt lat="43.30832" lon="-0.9175">
        <ele>118.86</ele>
        <time>2021-08-20T11:20:31Z</time>
      </trkpt>
      <trkpt lat="43.30828" lon="-0.91753">
        <ele>118.86</ele>
        <time>2021-08-20T11:20:32Z</time>
      </trkpt>
      <trkpt lat="43.30798" lon="-0.9178">
        <ele>118.86</ele>
        <time>2021-08-20T11:20:40Z</time>
      </trkpt>
      <trkpt lat="43.30784" lon="-0.91798">
        <ele>118.86</ele>
        <time>2021-08-20T11:20:44Z</time>
      </trkpt>
      <trkpt lat="43.30781" lon="-0.91803">
        <ele>118.86</ele>
        <time>2021-08-20T11:20:45Z</time>
      </trkpt>
      <trkpt lat="43.30749" lon="-0.91864">
        <ele>118.86</ele>
        <time>2021-08-20T11:20:56Z</time>
      </trkpt>
      <trkpt lat="43.30731" lon="-0.9191">
        <ele>119.34</ele>
        <time>2021-08-20T11:21:04Z</time>
      </trkpt>
      <trkpt lat="43.30713" lon="-0.91967">
        <ele>118.86</ele>
        <time>2021-08-20T11:21:13Z</time>
      </trkpt>
      <trkpt lat="43.30692" lon="-0.9203">
        <ele>118.86</ele>
        <time>2021-08-20T11:21:22Z</time>
      </trkpt>
      <trkpt lat="43.3067" lon="-0.92097">
        <ele>118.86</ele>
        <time>2021-08-20T11:21:31Z</time>
      </trkpt>
      <trkpt lat="43.3066" lon="-0.92123">
        <ele>118.86</ele>
        <time>2021-08-20T11:21:35Z</time>
      </trkpt>
      <trkpt lat="43.30657" lon="-0.92129">
        <ele>118.86</ele>
        <time>2021-08-20T11:21:36Z</time>
      </trkpt>
      <trkpt lat="43.3063" lon="-0.92182">
        <ele>116.94</ele>
        <time>2021-08-20T11:21:44Z</time>
      </trkpt>
      <trkpt lat="43.30608" lon="-0.92225">
        <ele>116.46</ele>
        <time>2021-08-20T11:21:51Z</time>
      </trkpt>
      <trkpt lat="43.30605" lon="-0.9223">
        <ele>117.9</ele>
        <time>2021-08-20T11:21:52Z</time>
      </trkpt>
      <trkpt lat="43.30601" lon="-0.92237">
        <ele>118.38</ele>
        <time>2021-08-20T11:21:53Z</time>
      </trkpt>
      <trkpt lat="43.30599" lon="-0.9224">
        <ele>118.38</ele>
        <time>2021-08-20T11:21:54Z</time>
      </trkpt>
      <trkpt lat="43.30596" lon="-0.92244">
        <ele>118.38</ele>
        <time>2021-08-20T11:21:55Z</time>
      </trkpt>
      <trkpt lat="43.30584" lon="-0.92257">
        <ele>118.38</ele>
        <time>2021-08-20T11:21:58Z</time>
      </trkpt>
      <trkpt lat="43.30556" lon="-0.92281">
        <ele>116.94</ele>
        <time>2021-08-20T11:22:04Z</time>
      </trkpt>
      <trkpt lat="43.30508" lon="-0.92317">
        <ele>115.5</ele>
        <time>2021-08-20T11:22:13Z</time>
      </trkpt>
      <trkpt lat="43.30474" lon="-0.92335">
        <ele>116.94</ele>
        <time>2021-08-20T11:22:20Z</time>
      </trkpt>
      <trkpt lat="43.30471" lon="-0.92337">
        <ele>116.94</ele>
        <time>2021-08-20T11:22:21Z</time>
      </trkpt>
      <trkpt lat="43.30439" lon="-0.92347">
        <ele>115.98</ele>
        <time>2021-08-20T11:22:28Z</time>
      </trkpt>
      <trkpt lat="43.30425" lon="-0.92351">
        <ele>114.53</ele>
        <time>2021-08-20T11:22:30Z</time>
      </trkpt>
      <trkpt lat="43.30404" lon="-0.92356">
        <ele>112.61</ele>
        <time>2021-08-20T11:22:33Z</time>
      </trkpt>
      <trkpt lat="43.30396" lon="-0.92356">
        <ele>112.61</ele>
        <time>2021-08-20T11:22:34Z</time>
      </trkpt>
      <trkpt lat="43.3039" lon="-0.92355">
        <ele>112.61</ele>
        <time>2021-08-20T11:22:35Z</time>
      </trkpt>
      <trkpt lat="43.30383" lon="-0.92352">
        <ele>112.61</ele>
        <time>2021-08-20T11:22:36Z</time>
      </trkpt>
      <trkpt lat="43.30378" lon="-0.92349">
        <ele>112.61</ele>
        <time>2021-08-20T11:22:37Z</time>
      </trkpt>
      <trkpt lat="43.30372" lon="-0.92344">
        <ele>112.61</ele>
        <time>2021-08-20T11:22:38Z</time>
      </trkpt>
      <trkpt lat="43.30368" lon="-0.9234">
        <ele>112.61</ele>
        <time>2021-08-20T11:22:39Z</time>
      </trkpt>
      <trkpt lat="43.30363" lon="-0.92336">
        <ele>112.61</ele>
        <time>2021-08-20T11:22:40Z</time>
      </trkpt>
      <trkpt lat="43.3035" lon="-0.92325">
        <ele>113.57</ele>
        <time>2021-08-20T11:22:43Z</time>
      </trkpt>
      <trkpt lat="43.30347" lon="-0.92322">
        <ele>114.53</ele>
        <time>2021-08-20T11:22:44Z</time>
      </trkpt>
      <trkpt lat="43.30344" lon="-0.92319">
        <ele>115.01</ele>
        <time>2021-08-20T11:22:45Z</time>
      </trkpt>
      <trkpt lat="43.30341" lon="-0.92317">
        <ele>115.01</ele>
        <time>2021-08-20T11:22:46Z</time>
      </trkpt>
      <trkpt lat="43.30324" lon="-0.92307">
        <ele>116.94</ele>
        <time>2021-08-20T11:22:54Z</time>
      </trkpt>
      <trkpt lat="43.303" lon="-0.92298">
        <ele>116.94</ele>
        <time>2021-08-20T11:23:01Z</time>
      </trkpt>
      <trkpt lat="43.3029" lon="-0.92295">
        <ele>115.5</ele>
        <time>2021-08-20T11:23:03Z</time>
      </trkpt>
      <trkpt lat="43.30252" lon="-0.92287">
        <ele>115.5</ele>
        <time>2021-08-20T11:23:11Z</time>
      </trkpt>
      <trkpt lat="43.30248" lon="-0.92287">
        <ele>115.5</ele>
        <time>2021-08-20T11:23:12Z</time>
      </trkpt>
      <trkpt lat="43.30234" lon="-0.92287">
        <ele>116.46</ele>
        <time>2021-08-20T11:23:15Z</time>
      </trkpt>
      <trkpt lat="43.30189" lon="-0.9229">
        <ele>116.94</ele>
        <time>2021-08-20T11:23:25Z</time>
      </trkpt>
      <trkpt lat="43.30164" lon="-0.92295">
        <ele>118.86</ele>
        <time>2021-08-20T11:23:33Z</time>
      </trkpt>
      <trkpt lat="43.30145" lon="-0.92301">
        <ele>121.26</ele>
        <time>2021-08-20T11:23:42Z</time>
      </trkpt>
      <trkpt lat="43.30117" lon="-0.92316">
        <ele>122.22</ele>
        <time>2021-08-20T11:23:52Z</time>
      </trkpt>
      <trkpt lat="43.30098" lon="-0.92325">
        <ele>122.22</ele>
        <time>2021-08-20T11:23:57Z</time>
      </trkpt>
      <trkpt lat="43.30094" lon="-0.92326">
        <ele>122.22</ele>
        <time>2021-08-20T11:23:58Z</time>
      </trkpt>
      <trkpt lat="43.30055" lon="-0.92334">
        <ele>122.22</ele>
        <time>2021-08-20T11:24:07Z</time>
      </trkpt>
      <trkpt lat="43.30032" lon="-0.92338">
        <ele>122.71</ele>
        <time>2021-08-20T11:24:13Z</time>
      </trkpt>
      <trkpt lat="43.30028" lon="-0.92338">
        <ele>122.71</ele>
        <time>2021-08-20T11:24:14Z</time>
      </trkpt>
      <trkpt lat="43.30023" lon="-0.92337">
        <ele>122.71</ele>
        <time>2021-08-20T11:24:15Z</time>
      </trkpt>
      <trkpt lat="43.30019" lon="-0.92337">
        <ele>123.19</ele>
        <time>2021-08-20T11:24:16Z</time>
      </trkpt>
      <trkpt lat="43.30015" lon="-0.92338">
        <ele>123.19</ele>
        <time>2021-08-20T11:24:17Z</time>
      </trkpt>
      <trkpt lat="43.30011" lon="-0.92338">
        <ele>123.19</ele>
        <time>2021-08-20T11:24:18Z</time>
      </trkpt>
      <trkpt lat="43.30007" lon="-0.9234">
        <ele>123.67</ele>
        <time>2021-08-20T11:24:19Z</time>
      </trkpt>
      <trkpt lat="43.29981" lon="-0.92347">
        <ele>124.15</ele>
        <time>2021-08-20T11:24:27Z</time>
      </trkpt>
      <trkpt lat="43.29952" lon="-0.92361">
        <ele>125.11</ele>
        <time>2021-08-20T11:24:36Z</time>
      </trkpt>
      <trkpt lat="43.29929" lon="-0.9238">
        <ele>125.59</ele>
        <time>2021-08-20T11:24:43Z</time>
      </trkpt>
      <trkpt lat="43.29909" lon="-0.92394">
        <ele>123.67</ele>
        <time>2021-08-20T11:24:47Z</time>
      </trkpt>
      <trkpt lat="43.29897" lon="-0.924">
        <ele>122.71</ele>
        <time>2021-08-20T11:24:49Z</time>
      </trkpt>
      <trkpt lat="43.29891" lon="-0.924">
        <ele>122.71</ele>
        <time>2021-08-20T11:24:50Z</time>
      </trkpt>
      <trkpt lat="43.29885" lon="-0.92398">
        <ele>122.71</ele>
        <time>2021-08-20T11:24:51Z</time>
      </trkpt>
      <trkpt lat="43.29879" lon="-0.92395">
        <ele>122.22</ele>
        <time>2021-08-20T11:24:52Z</time>
      </trkpt>
      <trkpt lat="43.29874" lon="-0.92392">
        <ele>122.22</ele>
        <time>2021-08-20T11:24:53Z</time>
      </trkpt>
      <trkpt lat="43.2987" lon="-0.92389">
        <ele>122.22</ele>
        <time>2021-08-20T11:24:54Z</time>
      </trkpt>
      <trkpt lat="43.29857" lon="-0.92378">
        <ele>124.15</ele>
        <time>2021-08-20T11:24:58Z</time>
      </trkpt>
      <trkpt lat="43.29839" lon="-0.92368">
        <ele>126.07</ele>
        <time>2021-08-20T11:25:05Z</time>
      </trkpt>
      <trkpt lat="43.29819" lon="-0.92364">
        <ele>126.55</ele>
        <time>2021-08-20T11:25:12Z</time>
      </trkpt>
      <trkpt lat="43.29786" lon="-0.92366">
        <ele>127.51</ele>
        <time>2021-08-20T11:25:22Z</time>
      </trkpt>
      <trkpt lat="43.29765" lon="-0.92377">
        <ele>127.99</ele>
        <time>2021-08-20T11:25:29Z</time>
      </trkpt>
      <trkpt lat="43.29766" lon="-0.92379">
        <ele>127.99</ele>
        <time>2021-08-20T11:25:30Z</time>
      </trkpt>
      <trkpt lat="43.29767" lon="-0.9238">
        <ele>128.47</ele>
        <time>2021-08-20T11:25:31Z</time>
      </trkpt>
      <trkpt lat="43.29768" lon="-0.92383">
        <ele>128.47</ele>
        <time>2021-08-20T11:25:32Z</time>
      </trkpt>
      <trkpt lat="43.29768" lon="-0.92384">
        <ele>128.47</ele>
        <time>2021-08-20T11:25:33Z</time>
      </trkpt>
      <trkpt lat="43.29768" lon="-0.92386">
        <ele>128.47</ele>
        <time>2021-08-20T11:25:34Z</time>
      </trkpt>
      <trkpt lat="43.29768" lon="-0.92387">
        <ele>128.47</ele>
        <time>2021-08-20T11:25:35Z</time>
      </trkpt>
      <trkpt lat="43.29768" lon="-0.92389">
        <ele>128.95</ele>
        <time>2021-08-20T11:25:36Z</time>
      </trkpt>
      <trkpt lat="43.29767" lon="-0.92401">
        <ele>129.92</ele>
        <time>2021-08-20T11:25:47Z</time>
      </trkpt>
      <trkpt lat="43.29766" lon="-0.92411">
        <ele>130.88</ele>
        <time>2021-08-20T11:25:57Z</time>
      </trkpt>
      <trkpt lat="43.29766" lon="-0.9242">
        <ele>131.84</ele>
        <time>2021-08-20T11:26:06Z</time>
      </trkpt>
      <trkpt lat="43.29765" lon="-0.92427">
        <ele>132.8</ele>
        <time>2021-08-20T11:26:14Z</time>
      </trkpt>
      <trkpt lat="43.29765" lon="-0.92434">
        <ele>134.72</ele>
        <time>2021-08-20T11:26:24Z</time>
      </trkpt>
      <trkpt lat="43.29765" lon="-0.92442">
        <ele>135.68</ele>
        <time>2021-08-20T11:26:33Z</time>
      </trkpt>
      <trkpt lat="43.29765" lon="-0.9245">
        <ele>136.64</ele>
        <time>2021-08-20T11:26:41Z</time>
      </trkpt>
      <trkpt lat="43.29765" lon="-0.92458">
        <ele>138.09</ele>
        <time>2021-08-20T11:26:48Z</time>
      </trkpt>
      <trkpt lat="43.29761" lon="-0.92465">
        <ele>139.05</ele>
        <time>2021-08-20T11:26:54Z</time>
      </trkpt>
      <trkpt lat="43.29756" lon="-0.92474">
        <ele>139.53</ele>
        <time>2021-08-20T11:27:02Z</time>
      </trkpt>
      <trkpt lat="43.29751" lon="-0.92482">
        <ele>140.01</ele>
        <time>2021-08-20T11:27:10Z</time>
      </trkpt>
      <trkpt lat="43.2975" lon="-0.92483">
        <ele>140.49</ele>
        <time>2021-08-20T11:27:18Z</time>
      </trkpt>
      <trkpt lat="43.29748" lon="-0.92485">
        <ele>140.49</ele>
        <time>2021-08-20T11:27:34Z</time>
      </trkpt>
      <trkpt lat="43.2975" lon="-0.92485">
        <ele>140.49</ele>
        <time>2021-08-20T11:27:50Z</time>
      </trkpt>
      <trkpt lat="43.29749" lon="-0.92483">
        <ele>140.49</ele>
        <time>2021-08-20T11:28:06Z</time>
      </trkpt>
      <trkpt lat="43.29751" lon="-0.92485">
        <ele>140.49</ele>
        <time>2021-08-20T11:28:33Z</time>
      </trkpt>
      <trkpt lat="43.29754" lon="-0.92483">
        <ele>140.97</ele>
        <time>2021-08-20T11:28:57Z</time>
      </trkpt>
      <trkpt lat="43.29754" lon="-0.92483">
        <ele>140.97</ele>
        <time>2021-08-20T11:29:19Z</time>
      </trkpt>
      <trkpt lat="43.29753" lon="-0.92483">
        <ele>140.97</ele>
        <time>2021-08-20T11:29:43Z</time>
      </trkpt>
      <trkpt lat="43.29755" lon="-0.92482">
        <ele>140.49</ele>
        <time>2021-08-20T11:30:03Z</time>
      </trkpt>
      <trkpt lat="43.29753" lon="-0.92483">
        <ele>140.49</ele>
        <time>2021-08-20T11:30:17Z</time>
      </trkpt>
      <trkpt lat="43.29752" lon="-0.92486">
        <ele>140.49</ele>
        <time>2021-08-20T11:30:46Z</time>
      </trkpt>
      <trkpt lat="43.29751" lon="-0.92482">
        <ele>140.49</ele>
        <time>2021-08-20T11:31:12Z</time>
      </trkpt>
      <trkpt lat="43.29751" lon="-0.92483">
        <ele>140.49</ele>
        <time>2021-08-20T11:31:34Z</time>
      </trkpt>
      <trkpt lat="43.29752" lon="-0.92481">
        <ele>140.49</ele>
        <time>2021-08-20T11:31:48Z</time>
      </trkpt>
      <trkpt lat="43.29752" lon="-0.92482">
        <ele>140.49</ele>
        <time>2021-08-20T11:32:00Z</time>
      </trkpt>
      <trkpt lat="43.2975" lon="-0.92484">
        <ele>140.49</ele>
        <time>2021-08-20T11:32:20Z</time>
      </trkpt>
      <trkpt lat="43.29749" lon="-0.92479">
        <ele>140.49</ele>
        <time>2021-08-20T11:32:44Z</time>
      </trkpt>
      <trkpt lat="43.2975" lon="-0.92483">
        <ele>140.49</ele>
        <time>2021-08-20T11:33:11Z</time>
      </trkpt>
      <trkpt lat="43.2975" lon="-0.92482">
        <ele>140.49</ele>
        <time>2021-08-20T11:33:36Z</time>
      </trkpt>
      <trkpt lat="43.29751" lon="-0.92483">
        <ele>140.49</ele>
        <time>2021-08-20T11:33:59Z</time>
      </trkpt>
      <trkpt lat="43.29751" lon="-0.92484">
        <ele>140.49</ele>
        <time>2021-08-20T11:34:22Z</time>
      </trkpt>
      <trkpt lat="43.29751" lon="-0.92484">
        <ele>140.49</ele>
        <time>2021-08-20T11:34:41Z</time>
      </trkpt>
      <trkpt lat="43.29751" lon="-0.92486">
        <ele>140.97</ele>
        <time>2021-08-20T11:34:57Z</time>
      </trkpt>
      <trkpt lat="43.29748" lon="-0.92487">
        <ele>140.97</ele>
        <time>2021-08-20T11:35:15Z</time>
      </trkpt>
      <trkpt lat="43.29747" lon="-0.92486">
        <ele>140.97</ele>
        <time>2021-08-20T11:35:26Z</time>
      </trkpt>
      <trkpt lat="43.29746" lon="-0.92487">
        <ele>140.97</ele>
        <time>2021-08-20T11:35:28Z</time>
      </trkpt>
      <trkpt lat="43.2974" lon="-0.92496">
        <ele>141.45</ele>
        <time>2021-08-20T11:35:34Z</time>
      </trkpt>
      <trkpt lat="43.29739" lon="-0.92498">
        <ele>141.45</ele>
        <time>2021-08-20T11:35:35Z</time>
      </trkpt>
      <trkpt lat="43.29738" lon="-0.92499">
        <ele>141.93</ele>
        <time>2021-08-20T11:35:36Z</time>
      </trkpt>
      <trkpt lat="43.29732" lon="-0.9251">
        <ele>143.37</ele>
        <time>2021-08-20T11:35:44Z</time>
      </trkpt>
      <trkpt lat="43.29726" lon="-0.9252">
        <ele>144.34</ele>
        <time>2021-08-20T11:35:51Z</time>
      </trkpt>
      <trkpt lat="43.29718" lon="-0.92531">
        <ele>145.78</ele>
        <time>2021-08-20T11:35:58Z</time>
      </trkpt>
      <trkpt lat="43.29717" lon="-0.92532">
        <ele>145.78</ele>
        <time>2021-08-20T11:35:59Z</time>
      </trkpt>
      <trkpt lat="43.29716" lon="-0.92534">
        <ele>145.78</ele>
        <time>2021-08-20T11:36:00Z</time>
      </trkpt>
      <trkpt lat="43.29715" lon="-0.92535">
        <ele>145.78</ele>
        <time>2021-08-20T11:36:01Z</time>
      </trkpt>
      <trkpt lat="43.29714" lon="-0.92536">
        <ele>146.26</ele>
        <time>2021-08-20T11:36:02Z</time>
      </trkpt>
      <trkpt lat="43.29714" lon="-0.92537">
        <ele>146.26</ele>
        <time>2021-08-20T11:36:03Z</time>
      </trkpt>
      <trkpt lat="43.29706" lon="-0.92552">
        <ele>147.22</ele>
        <time>2021-08-20T11:36:11Z</time>
      </trkpt>
      <trkpt lat="43.29695" lon="-0.92568">
        <ele>149.14</ele>
        <time>2021-08-20T11:36:20Z</time>
      </trkpt>
      <trkpt lat="43.29686" lon="-0.92583">
        <ele>149.62</ele>
        <time>2021-08-20T11:36:28Z</time>
      </trkpt>
      <trkpt lat="43.29677" lon="-0.92599">
        <ele>150.58</ele>
        <time>2021-08-20T11:36:36Z</time>
      </trkpt>
      <trkpt lat="43.29673" lon="-0.92608">
        <ele>151.06</ele>
        <time>2021-08-20T11:36:40Z</time>
      </trkpt>
      <trkpt lat="43.29672" lon="-0.9261">
        <ele>151.54</ele>
        <time>2021-08-20T11:36:41Z</time>
      </trkpt>
      <trkpt lat="43.29671" lon="-0.92612">
        <ele>151.54</ele>
        <time>2021-08-20T11:36:42Z</time>
      </trkpt>
      <trkpt lat="43.2967" lon="-0.92614">
        <ele>152.03</ele>
        <time>2021-08-20T11:36:43Z</time>
      </trkpt>
      <trkpt lat="43.29668" lon="-0.92616">
        <ele>152.03</ele>
        <time>2021-08-20T11:36:44Z</time>
      </trkpt>
      <trkpt lat="43.29668" lon="-0.92618">
        <ele>152.03</ele>
        <time>2021-08-20T11:36:45Z</time>
      </trkpt>
      <trkpt lat="43.29667" lon="-0.9262">
        <ele>152.51</ele>
        <time>2021-08-20T11:36:46Z</time>
      </trkpt>
      <trkpt lat="43.29666" lon="-0.92622">
        <ele>152.51</ele>
        <time>2021-08-20T11:36:47Z</time>
      </trkpt>
      <trkpt lat="43.29665" lon="-0.92624">
        <ele>152.99</ele>
        <time>2021-08-20T11:36:48Z</time>
      </trkpt>
      <trkpt lat="43.29664" lon="-0.92626">
        <ele>152.99</ele>
        <time>2021-08-20T11:36:49Z</time>
      </trkpt>
      <trkpt lat="43.29662" lon="-0.92628">
        <ele>152.99</ele>
        <time>2021-08-20T11:36:50Z</time>
      </trkpt>
      <trkpt lat="43.29661" lon="-0.92629">
        <ele>153.47</ele>
        <time>2021-08-20T11:36:51Z</time>
      </trkpt>
      <trkpt lat="43.2966" lon="-0.92631">
        <ele>153.47</ele>
        <time>2021-08-20T11:36:52Z</time>
      </trkpt>
      <trkpt lat="43.29656" lon="-0.92638">
        <ele>154.43</ele>
        <time>2021-08-20T11:36:59Z</time>
      </trkpt>
      <trkpt lat="43.29652" lon="-0.92647">
        <ele>155.39</ele>
        <time>2021-08-20T11:37:07Z</time>
      </trkpt>
      <trkpt lat="43.2965" lon="-0.92651">
        <ele>156.35</ele>
        <time>2021-08-20T11:37:11Z</time>
      </trkpt>
      <trkpt lat="43.29643" lon="-0.92664">
        <ele>157.79</ele>
        <time>2021-08-20T11:37:23Z</time>
      </trkpt>
      <trkpt lat="43.29641" lon="-0.92667">
        <ele>158.27</ele>
        <time>2021-08-20T11:37:26Z</time>
      </trkpt>
      <trkpt lat="43.29639" lon="-0.9267">
        <ele>158.27</ele>
        <time>2021-08-20T11:37:29Z</time>
      </trkpt>
      <trkpt lat="43.29634" lon="-0.92683">
        <ele>160.2</ele>
        <time>2021-08-20T11:37:39Z</time>
      </trkpt>
      <trkpt lat="43.29628" lon="-0.92696">
        <ele>161.16</ele>
        <time>2021-08-20T11:37:49Z</time>
      </trkpt>
      <trkpt lat="43.29623" lon="-0.9271">
        <ele>162.6</ele>
        <time>2021-08-20T11:37:59Z</time>
      </trkpt>
      <trkpt lat="43.29618" lon="-0.92723">
        <ele>164.04</ele>
        <time>2021-08-20T11:38:09Z</time>
      </trkpt>
      <trkpt lat="43.29613" lon="-0.92735">
        <ele>165</ele>
        <time>2021-08-20T11:38:18Z</time>
      </trkpt>
      <trkpt lat="43.29606" lon="-0.92751">
        <ele>165.96</ele>
        <time>2021-08-20T11:38:29Z</time>
      </trkpt>
      <trkpt lat="43.29604" lon="-0.92756">
        <ele>166.45</ele>
        <time>2021-08-20T11:38:33Z</time>
      </trkpt>
      <trkpt lat="43.29603" lon="-0.92757">
        <ele>166.45</ele>
        <time>2021-08-20T11:38:34Z</time>
      </trkpt>
      <trkpt lat="43.29602" lon="-0.92759">
        <ele>166.45</ele>
        <time>2021-08-20T11:38:35Z</time>
      </trkpt>
      <trkpt lat="43.29602" lon="-0.9276">
        <ele>166.45</ele>
        <time>2021-08-20T11:38:36Z</time>
      </trkpt>
      <trkpt lat="43.29601" lon="-0.92761">
        <ele>167.41</ele>
        <time>2021-08-20T11:38:37Z</time>
      </trkpt>
      <trkpt lat="43.296" lon="-0.92763">
        <ele>167.41</ele>
        <time>2021-08-20T11:38:38Z</time>
      </trkpt>
      <trkpt lat="43.29592" lon="-0.92774">
        <ele>168.37</ele>
        <time>2021-08-20T11:38:48Z</time>
      </trkpt>
      <trkpt lat="43.29584" lon="-0.92781">
        <ele>169.33</ele>
        <time>2021-08-20T11:38:58Z</time>
      </trkpt>
      <trkpt lat="43.29576" lon="-0.92788">
        <ele>171.25</ele>
        <time>2021-08-20T11:39:08Z</time>
      </trkpt>
      <trkpt lat="43.29568" lon="-0.92793">
        <ele>171.73</ele>
        <time>2021-08-20T11:39:17Z</time>
      </trkpt>
      <trkpt lat="43.29562" lon="-0.92798">
        <ele>173.17</ele>
        <time>2021-08-20T11:39:26Z</time>
      </trkpt>
      <trkpt lat="43.29554" lon="-0.92804">
        <ele>174.14</ele>
        <time>2021-08-20T11:39:35Z</time>
      </trkpt>
      <trkpt lat="43.29543" lon="-0.92813">
        <ele>175.58</ele>
        <time>2021-08-20T11:39:47Z</time>
      </trkpt>
      <trkpt lat="43.29534" lon="-0.9282">
        <ele>176.54</ele>
        <time>2021-08-20T11:39:56Z</time>
      </trkpt>
      <trkpt lat="43.29523" lon="-0.92828">
        <ele>178.46</ele>
        <time>2021-08-20T11:40:07Z</time>
      </trkpt>
      <trkpt lat="43.29513" lon="-0.92835">
        <ele>179.9</ele>
        <time>2021-08-20T11:40:18Z</time>
      </trkpt>
      <trkpt lat="43.29503" lon="-0.92842">
        <ele>181.83</ele>
        <time>2021-08-20T11:40:28Z</time>
      </trkpt>
      <trkpt lat="43.29492" lon="-0.92848">
        <ele>183.27</ele>
        <time>2021-08-20T11:40:38Z</time>
      </trkpt>
      <trkpt lat="43.29481" lon="-0.92855">
        <ele>184.23</ele>
        <time>2021-08-20T11:40:48Z</time>
      </trkpt>
      <trkpt lat="43.29475" lon="-0.92861">
        <ele>185.19</ele>
        <time>2021-08-20T11:40:57Z</time>
      </trkpt>
      <trkpt lat="43.29472" lon="-0.92865">
        <ele>185.19</ele>
        <time>2021-08-20T11:41:02Z</time>
      </trkpt>
      <trkpt lat="43.29463" lon="-0.92889">
        <ele>186.63</ele>
        <time>2021-08-20T11:41:11Z</time>
      </trkpt>
      <trkpt lat="43.2945" lon="-0.92926">
        <ele>187.11</ele>
        <time>2021-08-20T11:41:22Z</time>
      </trkpt>
      <trkpt lat="43.29437" lon="-0.92963">
        <ele>188.08</ele>
        <time>2021-08-20T11:41:32Z</time>
      </trkpt>
      <trkpt lat="43.29425" lon="-0.93003">
        <ele>193.36</ele>
        <time>2021-08-20T11:41:43Z</time>
      </trkpt>
      <trkpt lat="43.29425" lon="-0.93005">
        <ele>189.52</ele>
        <time>2021-08-20T11:41:44Z</time>
      </trkpt>
      <trkpt lat="43.29423" lon="-0.93009">
        <ele>189.52</ele>
        <time>2021-08-20T11:41:46Z</time>
      </trkpt>
      <trkpt lat="43.29421" lon="-0.9301">
        <ele>189.52</ele>
        <time>2021-08-20T11:41:47Z</time>
      </trkpt>
      <trkpt lat="43.2942" lon="-0.93012">
        <ele>189.52</ele>
        <time>2021-08-20T11:41:48Z</time>
      </trkpt>
      <trkpt lat="43.2942" lon="-0.93014">
        <ele>189.52</ele>
        <time>2021-08-20T11:41:49Z</time>
      </trkpt>
      <trkpt lat="43.2942" lon="-0.93016">
        <ele>190.48</ele>
        <time>2021-08-20T11:41:50Z</time>
      </trkpt>
      <trkpt lat="43.29419" lon="-0.93019">
        <ele>190.48</ele>
        <time>2021-08-20T11:41:51Z</time>
      </trkpt>
      <trkpt lat="43.29419" lon="-0.93021">
        <ele>190.48</ele>
        <time>2021-08-20T11:41:52Z</time>
      </trkpt>
      <trkpt lat="43.2942" lon="-0.93023">
        <ele>190.96</ele>
        <time>2021-08-20T11:41:58Z</time>
      </trkpt>
      <trkpt lat="43.29419" lon="-0.93024">
        <ele>190.96</ele>
        <time>2021-08-20T11:42:04Z</time>
      </trkpt>
      <trkpt lat="43.29419" lon="-0.93026">
        <ele>190.96</ele>
        <time>2021-08-20T11:42:05Z</time>
      </trkpt>
      <trkpt lat="43.29419" lon="-0.93028">
        <ele>190.96</ele>
        <time>2021-08-20T11:42:06Z</time>
      </trkpt>
      <trkpt lat="43.29417" lon="-0.93039">
        <ele>192.4</ele>
        <time>2021-08-20T11:42:14Z</time>
      </trkpt>
      <trkpt lat="43.29415" lon="-0.93051">
        <ele>193.36</ele>
        <time>2021-08-20T11:42:23Z</time>
      </trkpt>
      <trkpt lat="43.29415" lon="-0.93061">
        <ele>194.32</ele>
        <time>2021-08-20T11:42:33Z</time>
      </trkpt>
      <trkpt lat="43.29415" lon="-0.93066">
        <ele>194.8</ele>
        <time>2021-08-20T11:42:44Z</time>
      </trkpt>
      <trkpt lat="43.29415" lon="-0.93081">
        <ele>196.73</ele>
        <time>2021-08-20T11:42:55Z</time>
      </trkpt>
      <trkpt lat="43.29417" lon="-0.93091">
        <ele>197.69</ele>
        <time>2021-08-20T11:43:02Z</time>
      </trkpt>
      <trkpt lat="43.2942" lon="-0.93098">
        <ele>198.17</ele>
        <time>2021-08-20T11:43:08Z</time>
      </trkpt>
      <trkpt lat="43.29421" lon="-0.93099">
        <ele>198.65</ele>
        <time>2021-08-20T11:43:09Z</time>
      </trkpt>
      <trkpt lat="43.29426" lon="-0.93114">
        <ele>200.09</ele>
        <time>2021-08-20T11:43:22Z</time>
      </trkpt>
      <trkpt lat="43.2943" lon="-0.93125">
        <ele>202.49</ele>
        <time>2021-08-20T11:43:34Z</time>
      </trkpt>
      <trkpt lat="43.29433" lon="-0.93132">
        <ele>203.46</ele>
        <time>2021-08-20T11:43:43Z</time>
      </trkpt>
      <trkpt lat="43.29436" lon="-0.93138">
        <ele>204.9</ele>
        <time>2021-08-20T11:43:51Z</time>
      </trkpt>
      <trkpt lat="43.29439" lon="-0.93146">
        <ele>205.86</ele>
        <time>2021-08-20T11:44:00Z</time>
      </trkpt>
      <trkpt lat="43.29441" lon="-0.93154">
        <ele>207.3</ele>
        <time>2021-08-20T11:44:10Z</time>
      </trkpt>
      <trkpt lat="43.29444" lon="-0.93161">
        <ele>209.22</ele>
        <time>2021-08-20T11:44:19Z</time>
      </trkpt>
      <trkpt lat="43.29446" lon="-0.93167">
        <ele>210.67</ele>
        <time>2021-08-20T11:44:27Z</time>
      </trkpt>
      <trkpt lat="43.29449" lon="-0.93175">
        <ele>211.63</ele>
        <time>2021-08-20T11:44:36Z</time>
      </trkpt>
      <trkpt lat="43.29452" lon="-0.93183">
        <ele>212.59</ele>
        <time>2021-08-20T11:44:44Z</time>
      </trkpt>
      <trkpt lat="43.29456" lon="-0.93194">
        <ele>213.55</ele>
        <time>2021-08-20T11:44:53Z</time>
      </trkpt>
      <trkpt lat="43.29461" lon="-0.93208">
        <ele>214.51</ele>
        <time>2021-08-20T11:45:02Z</time>
      </trkpt>
      <trkpt lat="43.29463" lon="-0.93213">
        <ele>214.99</ele>
        <time>2021-08-20T11:45:10Z</time>
      </trkpt>
      <trkpt lat="43.29463" lon="-0.93214">
        <ele>214.99</ele>
        <time>2021-08-20T11:45:26Z</time>
      </trkpt>
      <trkpt lat="43.29466" lon="-0.9322">
        <ele>214.99</ele>
        <time>2021-08-20T11:45:33Z</time>
      </trkpt>
      <trkpt lat="43.2947" lon="-0.9323">
        <ele>215.47</ele>
        <time>2021-08-20T11:45:38Z</time>
      </trkpt>
      <trkpt lat="43.29478" lon="-0.93253">
        <ele>215.47</ele>
        <time>2021-08-20T11:45:46Z</time>
      </trkpt>
      <trkpt lat="43.29483" lon="-0.93268">
        <ele>213.55</ele>
        <time>2021-08-20T11:45:49Z</time>
      </trkpt>
      <trkpt lat="43.29497" lon="-0.93308">
        <ele>210.67</ele>
        <time>2021-08-20T11:45:54Z</time>
      </trkpt>
      <trkpt lat="43.29507" lon="-0.93339">
        <ele>206.82</ele>
        <time>2021-08-20T11:45:57Z</time>
      </trkpt>
      <trkpt lat="43.29511" lon="-0.93351">
        <ele>206.82</ele>
        <time>2021-08-20T11:45:58Z</time>
      </trkpt>
      <trkpt lat="43.29532" lon="-0.93411">
        <ele>205.86</ele>
        <time>2021-08-20T11:46:04Z</time>
      </trkpt>
      <trkpt lat="43.29535" lon="-0.93419">
        <ele>207.3</ele>
        <time>2021-08-20T11:46:05Z</time>
      </trkpt>
      <trkpt lat="43.29536" lon="-0.93427">
        <ele>207.3</ele>
        <time>2021-08-20T11:46:06Z</time>
      </trkpt>
      <trkpt lat="43.29542" lon="-0.93465">
        <ele>208.26</ele>
        <time>2021-08-20T11:46:12Z</time>
      </trkpt>
      <trkpt lat="43.29545" lon="-0.93496">
        <ele>210.67</ele>
        <time>2021-08-20T11:46:20Z</time>
      </trkpt>
      <trkpt lat="43.29545" lon="-0.9351">
        <ele>211.63</ele>
        <time>2021-08-20T11:46:26Z</time>
      </trkpt>
      <trkpt lat="43.29544" lon="-0.93512">
        <ele>212.11</ele>
        <time>2021-08-20T11:46:27Z</time>
      </trkpt>
      <trkpt lat="43.29544" lon="-0.93514">
        <ele>212.11</ele>
        <time>2021-08-20T11:46:28Z</time>
      </trkpt>
      <trkpt lat="43.29544" lon="-0.93517">
        <ele>212.11</ele>
        <time>2021-08-20T11:46:29Z</time>
      </trkpt>
      <trkpt lat="43.29544" lon="-0.93519">
        <ele>212.59</ele>
        <time>2021-08-20T11:46:30Z</time>
      </trkpt>
      <trkpt lat="43.29545" lon="-0.93522">
        <ele>212.59</ele>
        <time>2021-08-20T11:46:31Z</time>
      </trkpt>
      <trkpt lat="43.29544" lon="-0.93549">
        <ele>214.99</ele>
        <time>2021-08-20T11:46:40Z</time>
      </trkpt>
      <trkpt lat="43.2954" lon="-0.93582">
        <ele>213.07</ele>
        <time>2021-08-20T11:46:49Z</time>
      </trkpt>
      <trkpt lat="43.2954" lon="-0.93586">
        <ele>221.72</ele>
        <time>2021-08-20T11:46:50Z</time>
      </trkpt>
      <trkpt lat="43.29539" lon="-0.9359">
        <ele>215.95</ele>
        <time>2021-08-20T11:46:51Z</time>
      </trkpt>
      <trkpt lat="43.29529" lon="-0.93616">
        <ele>214.99</ele>
        <time>2021-08-20T11:46:57Z</time>
      </trkpt>
      <trkpt lat="43.29527" lon="-0.93622">
        <ele>214.51</ele>
        <time>2021-08-20T11:46:58Z</time>
      </trkpt>
      <trkpt lat="43.29522" lon="-0.93635">
        <ele>213.07</ele>
        <time>2021-08-20T11:47:00Z</time>
      </trkpt>
      <trkpt lat="43.29505" lon="-0.93668">
        <ele>210.19</ele>
        <time>2021-08-20T11:47:04Z</time>
      </trkpt>
      <trkpt lat="43.29491" lon="-0.93696">
        <ele>206.82</ele>
        <time>2021-08-20T11:47:07Z</time>
      </trkpt>
      <trkpt lat="43.29477" lon="-0.93727">
        <ele>203.46</ele>
        <time>2021-08-20T11:47:10Z</time>
      </trkpt>
      <trkpt lat="43.29455" lon="-0.93771">
        <ele>200.57</ele>
        <time>2021-08-20T11:47:14Z</time>
      </trkpt>
      <trkpt lat="43.29438" lon="-0.93804">
        <ele>199.13</ele>
        <time>2021-08-20T11:47:17Z</time>
      </trkpt>
      <trkpt lat="43.29415" lon="-0.93853">
        <ele>198.17</ele>
        <time>2021-08-20T11:47:22Z</time>
      </trkpt>
      <trkpt lat="43.29413" lon="-0.93862">
        <ele>198.17</ele>
        <time>2021-08-20T11:47:23Z</time>
      </trkpt>
      <trkpt lat="43.29414" lon="-0.93872">
        <ele>198.17</ele>
        <time>2021-08-20T11:47:24Z</time>
      </trkpt>
      <trkpt lat="43.29416" lon="-0.93881">
        <ele>197.69</ele>
        <time>2021-08-20T11:47:25Z</time>
      </trkpt>
      <trkpt lat="43.29418" lon="-0.93889">
        <ele>197.69</ele>
        <time>2021-08-20T11:47:26Z</time>
      </trkpt>
      <trkpt lat="43.2943" lon="-0.93945">
        <ele>198.17</ele>
        <time>2021-08-20T11:47:34Z</time>
      </trkpt>
      <trkpt lat="43.29439" lon="-0.93988">
        <ele>194.8</ele>
        <time>2021-08-20T11:47:39Z</time>
      </trkpt>
      <trkpt lat="43.29448" lon="-0.94026">
        <ele>192.4</ele>
        <time>2021-08-20T11:47:43Z</time>
      </trkpt>
      <trkpt lat="43.29451" lon="-0.94032">
        <ele>192.4</ele>
        <time>2021-08-20T11:47:44Z</time>
      </trkpt>
      <trkpt lat="43.29455" lon="-0.94037">
        <ele>192.4</ele>
        <time>2021-08-20T11:47:45Z</time>
      </trkpt>
      <trkpt lat="43.29459" lon="-0.94041">
        <ele>191.92</ele>
        <time>2021-08-20T11:47:46Z</time>
      </trkpt>
      <trkpt lat="43.29464" lon="-0.94045">
        <ele>191.92</ele>
        <time>2021-08-20T11:47:47Z</time>
      </trkpt>
      <trkpt lat="43.2947" lon="-0.94048">
        <ele>191.44</ele>
        <time>2021-08-20T11:47:48Z</time>
      </trkpt>
      <trkpt lat="43.29482" lon="-0.94054">
        <ele>190</ele>
        <time>2021-08-20T11:47:50Z</time>
      </trkpt>
      <trkpt lat="43.295" lon="-0.94063">
        <ele>187.11</ele>
        <time>2021-08-20T11:47:53Z</time>
      </trkpt>
      <trkpt lat="43.29507" lon="-0.94067">
        <ele>185.67</ele>
        <time>2021-08-20T11:47:54Z</time>
      </trkpt>
      <trkpt lat="43.29515" lon="-0.9407">
        <ele>185.19</ele>
        <time>2021-08-20T11:47:55Z</time>
      </trkpt>
      <trkpt lat="43.2953" lon="-0.94079">
        <ele>182.31</ele>
        <time>2021-08-20T11:47:57Z</time>
      </trkpt>
      <trkpt lat="43.29537" lon="-0.94085">
        <ele>182.31</ele>
        <time>2021-08-20T11:47:58Z</time>
      </trkpt>
      <trkpt lat="43.29544" lon="-0.94093">
        <ele>181.83</ele>
        <time>2021-08-20T11:47:59Z</time>
      </trkpt>
      <trkpt lat="43.29558" lon="-0.94107">
        <ele>181.83</ele>
        <time>2021-08-20T11:48:01Z</time>
      </trkpt>
      <trkpt lat="43.29565" lon="-0.94111">
        <ele>181.83</ele>
        <time>2021-08-20T11:48:02Z</time>
      </trkpt>
      <trkpt lat="43.29573" lon="-0.94114">
        <ele>181.83</ele>
        <time>2021-08-20T11:48:03Z</time>
      </trkpt>
      <trkpt lat="43.29581" lon="-0.94115">
        <ele>181.35</ele>
        <time>2021-08-20T11:48:04Z</time>
      </trkpt>
      <trkpt lat="43.29588" lon="-0.94113">
        <ele>181.35</ele>
        <time>2021-08-20T11:48:05Z</time>
      </trkpt>
      <trkpt lat="43.29595" lon="-0.94111">
        <ele>181.35</ele>
        <time>2021-08-20T11:48:06Z</time>
      </trkpt>
      <trkpt lat="43.29601" lon="-0.94107">
        <ele>181.35</ele>
        <time>2021-08-20T11:48:07Z</time>
      </trkpt>
      <trkpt lat="43.29636" lon="-0.94087">
        <ele>181.83</ele>
        <time>2021-08-20T11:48:14Z</time>
      </trkpt>
      <trkpt lat="43.29665" lon="-0.94069">
        <ele>181.83</ele>
        <time>2021-08-20T11:48:21Z</time>
      </trkpt>
      <trkpt lat="43.29707" lon="-0.94043">
        <ele>181.35</ele>
        <time>2021-08-20T11:48:30Z</time>
      </trkpt>
      <trkpt lat="43.2973" lon="-0.94028">
        <ele>180.87</ele>
        <time>2021-08-20T11:48:35Z</time>
      </trkpt>
      <trkpt lat="43.29764" lon="-0.93995">
        <ele>180.38</ele>
        <time>2021-08-20T11:48:43Z</time>
      </trkpt>
      <trkpt lat="43.29799" lon="-0.9397">
        <ele>179.9</ele>
        <time>2021-08-20T11:48:51Z</time>
      </trkpt>
      <trkpt lat="43.29817" lon="-0.93952">
        <ele>179.9</ele>
        <time>2021-08-20T11:48:57Z</time>
      </trkpt>
      <trkpt lat="43.29832" lon="-0.9394">
        <ele>176.54</ele>
        <time>2021-08-20T11:49:00Z</time>
      </trkpt>
      <trkpt lat="43.29851" lon="-0.93928">
        <ele>175.58</ele>
        <time>2021-08-20T11:49:03Z</time>
      </trkpt>
      <trkpt lat="43.29858" lon="-0.93927">
        <ele>174.62</ele>
        <time>2021-08-20T11:49:04Z</time>
      </trkpt>
      <trkpt lat="43.29865" lon="-0.93929">
        <ele>174.62</ele>
        <time>2021-08-20T11:49:05Z</time>
      </trkpt>
      <trkpt lat="43.29873" lon="-0.93933">
        <ele>174.14</ele>
        <time>2021-08-20T11:49:06Z</time>
      </trkpt>
      <trkpt lat="43.29879" lon="-0.93938">
        <ele>173.17</ele>
        <time>2021-08-20T11:49:07Z</time>
      </trkpt>
      <trkpt lat="43.29887" lon="-0.93943">
        <ele>173.17</ele>
        <time>2021-08-20T11:49:08Z</time>
      </trkpt>
      <trkpt lat="43.29894" lon="-0.93947">
        <ele>172.21</ele>
        <time>2021-08-20T11:49:09Z</time>
      </trkpt>
      <trkpt lat="43.29902" lon="-0.93949">
        <ele>171.73</ele>
        <time>2021-08-20T11:49:10Z</time>
      </trkpt>
      <trkpt lat="43.2991" lon="-0.93948">
        <ele>170.77</ele>
        <time>2021-08-20T11:49:11Z</time>
      </trkpt>
      <trkpt lat="43.29918" lon="-0.93947">
        <ele>170.77</ele>
        <time>2021-08-20T11:49:12Z</time>
      </trkpt>
      <trkpt lat="43.29962" lon="-0.93936">
        <ele>172.69</ele>
        <time>2021-08-20T11:49:19Z</time>
      </trkpt>
      <trkpt lat="43.29987" lon="-0.93921">
        <ele>173.66</ele>
        <time>2021-08-20T11:49:26Z</time>
      </trkpt>
      <trkpt lat="43.30011" lon="-0.93904">
        <ele>175.1</ele>
        <time>2021-08-20T11:49:35Z</time>
      </trkpt>
      <trkpt lat="43.30021" lon="-0.93887">
        <ele>175.1</ele>
        <time>2021-08-20T11:49:40Z</time>
      </trkpt>
      <trkpt lat="43.30028" lon="-0.93871">
        <ele>176.54</ele>
        <time>2021-08-20T11:49:47Z</time>
      </trkpt>
      <trkpt lat="43.3003" lon="-0.93868">
        <ele>177.02</ele>
        <time>2021-08-20T11:49:49Z</time>
      </trkpt>
      <trkpt lat="43.3003" lon="-0.93866">
        <ele>177.02</ele>
        <time>2021-08-20T11:49:50Z</time>
      </trkpt>
      <trkpt lat="43.30034" lon="-0.93861">
        <ele>177.98</ele>
        <time>2021-08-20T11:49:56Z</time>
      </trkpt>
      <trkpt lat="43.30039" lon="-0.93855">
        <ele>178.46</ele>
        <time>2021-08-20T11:50:06Z</time>
      </trkpt>
      <trkpt lat="43.30044" lon="-0.93847">
        <ele>179.9</ele>
        <time>2021-08-20T11:50:16Z</time>
      </trkpt>
      <trkpt lat="43.30047" lon="-0.93838">
        <ele>181.35</ele>
        <time>2021-08-20T11:50:23Z</time>
      </trkpt>
      <trkpt lat="43.30048" lon="-0.93822">
        <ele>182.79</ele>
        <time>2021-08-20T11:50:34Z</time>
      </trkpt>
      <trkpt lat="43.30049" lon="-0.93819">
        <ele>182.79</ele>
        <time>2021-08-20T11:50:36Z</time>
      </trkpt>
      <trkpt lat="43.30049" lon="-0.93817">
        <ele>182.79</ele>
        <time>2021-08-20T11:50:37Z</time>
      </trkpt>
      <trkpt lat="43.30049" lon="-0.93815">
        <ele>182.79</ele>
        <time>2021-08-20T11:50:38Z</time>
      </trkpt>
      <trkpt lat="43.30049" lon="-0.93797">
        <ele>183.75</ele>
        <time>2021-08-20T11:50:49Z</time>
      </trkpt>
      <trkpt lat="43.3005" lon="-0.93782">
        <ele>184.71</ele>
        <time>2021-08-20T11:50:58Z</time>
      </trkpt>
      <trkpt lat="43.30052" lon="-0.93766">
        <ele>186.15</ele>
        <time>2021-08-20T11:51:07Z</time>
      </trkpt>
      <trkpt lat="43.30056" lon="-0.93753">
        <ele>188.08</ele>
        <time>2021-08-20T11:51:17Z</time>
      </trkpt>
      <trkpt lat="43.30062" lon="-0.93745">
        <ele>189.04</ele>
        <time>2021-08-20T11:51:25Z</time>
      </trkpt>
      <trkpt lat="43.30068" lon="-0.93739">
        <ele>189.52</ele>
        <time>2021-08-20T11:51:33Z</time>
      </trkpt>
      <trkpt lat="43.3007" lon="-0.93738">
        <ele>190</ele>
        <time>2021-08-20T11:51:39Z</time>
      </trkpt>
      <trkpt lat="43.3007" lon="-0.93739">
        <ele>190</ele>
        <time>2021-08-20T11:51:49Z</time>
      </trkpt>
      <trkpt lat="43.30072" lon="-0.93736">
        <ele>190</ele>
        <time>2021-08-20T11:52:13Z</time>
      </trkpt>
      <trkpt lat="43.3007" lon="-0.9373">
        <ele>190</ele>
        <time>2021-08-20T11:52:31Z</time>
      </trkpt>
      <trkpt lat="43.30071" lon="-0.9373">
        <ele>190.48</ele>
        <time>2021-08-20T11:52:50Z</time>
      </trkpt>
      <trkpt lat="43.30075" lon="-0.93733">
        <ele>190.48</ele>
        <time>2021-08-20T11:53:10Z</time>
      </trkpt>
      <trkpt lat="43.30074" lon="-0.93736">
        <ele>190.48</ele>
        <time>2021-08-20T11:53:31Z</time>
      </trkpt>
      <trkpt lat="43.30072" lon="-0.93734">
        <ele>189.04</ele>
        <time>2021-08-20T11:53:40Z</time>
      </trkpt>
      <trkpt lat="43.3007" lon="-0.93732">
        <ele>189.04</ele>
        <time>2021-08-20T11:53:54Z</time>
      </trkpt>
      <trkpt lat="43.30072" lon="-0.93734">
        <ele>190.48</ele>
        <time>2021-08-20T11:54:03Z</time>
      </trkpt>
      <trkpt lat="43.30073" lon="-0.93734">
        <ele>190.48</ele>
        <time>2021-08-20T11:54:12Z</time>
      </trkpt>
      <trkpt lat="43.30078" lon="-0.93733">
        <ele>190.96</ele>
        <time>2021-08-20T11:54:19Z</time>
      </trkpt>
      <trkpt lat="43.30082" lon="-0.93732">
        <ele>190.96</ele>
        <time>2021-08-20T11:54:23Z</time>
      </trkpt>
      <trkpt lat="43.30084" lon="-0.93732">
        <ele>190.96</ele>
        <time>2021-08-20T11:54:24Z</time>
      </trkpt>
      <trkpt lat="43.30102" lon="-0.93732">
        <ele>188.56</ele>
        <time>2021-08-20T11:54:31Z</time>
      </trkpt>
      <trkpt lat="43.30112" lon="-0.93734">
        <ele>188.08</ele>
        <time>2021-08-20T11:54:33Z</time>
      </trkpt>
      <trkpt lat="43.30118" lon="-0.93736">
        <ele>187.11</ele>
        <time>2021-08-20T11:54:34Z</time>
      </trkpt>
      <trkpt lat="43.3013" lon="-0.93741">
        <ele>186.15</ele>
        <time>2021-08-20T11:54:36Z</time>
      </trkpt>
      <trkpt lat="43.30136" lon="-0.93742">
        <ele>186.15</ele>
        <time>2021-08-20T11:54:37Z</time>
      </trkpt>
      <trkpt lat="43.30142" lon="-0.93743">
        <ele>185.67</ele>
        <time>2021-08-20T11:54:38Z</time>
      </trkpt>
      <trkpt lat="43.30148" lon="-0.93742">
        <ele>185.19</ele>
        <time>2021-08-20T11:54:39Z</time>
      </trkpt>
      <trkpt lat="43.30154" lon="-0.9374">
        <ele>184.71</ele>
        <time>2021-08-20T11:54:40Z</time>
      </trkpt>
      <trkpt lat="43.3016" lon="-0.93738">
        <ele>184.71</ele>
        <time>2021-08-20T11:54:41Z</time>
      </trkpt>
      <trkpt lat="43.30165" lon="-0.93735">
        <ele>184.23</ele>
        <time>2021-08-20T11:54:42Z</time>
      </trkpt>
      <trkpt lat="43.3017" lon="-0.9373">
        <ele>183.27</ele>
        <time>2021-08-20T11:54:43Z</time>
      </trkpt>
      <trkpt lat="43.30175" lon="-0.93724">
        <ele>182.31</ele>
        <time>2021-08-20T11:54:44Z</time>
      </trkpt>
      <trkpt lat="43.30179" lon="-0.93718">
        <ele>181.35</ele>
        <time>2021-08-20T11:54:45Z</time>
      </trkpt>
      <trkpt lat="43.30201" lon="-0.93686">
        <ele>178.46</ele>
        <time>2021-08-20T11:54:49Z</time>
      </trkpt>
      <trkpt lat="43.30216" lon="-0.93664">
        <ele>177.02</ele>
        <time>2021-08-20T11:54:52Z</time>
      </trkpt>
      <trkpt lat="43.30219" lon="-0.93657">
        <ele>177.02</ele>
        <time>2021-08-20T11:54:53Z</time>
      </trkpt>
      <trkpt lat="43.30221" lon="-0.93649">
        <ele>176.54</ele>
        <time>2021-08-20T11:54:54Z</time>
      </trkpt>
      <trkpt lat="43.30222" lon="-0.93642">
        <ele>176.54</ele>
        <time>2021-08-20T11:54:55Z</time>
      </trkpt>
      <trkpt lat="43.30224" lon="-0.93636">
        <ele>176.54</ele>
        <time>2021-08-20T11:54:56Z</time>
      </trkpt>
      <trkpt lat="43.30226" lon="-0.9363">
        <ele>176.06</ele>
        <time>2021-08-20T11:54:57Z</time>
      </trkpt>
      <trkpt lat="43.30229" lon="-0.93626">
        <ele>175.1</ele>
        <time>2021-08-20T11:54:58Z</time>
      </trkpt>
      <trkpt lat="43.30233" lon="-0.93622">
        <ele>174.62</ele>
        <time>2021-08-20T11:54:59Z</time>
      </trkpt>
      <trkpt lat="43.30238" lon="-0.9362">
        <ele>173.66</ele>
        <time>2021-08-20T11:55:00Z</time>
      </trkpt>
      <trkpt lat="43.30244" lon="-0.93618">
        <ele>171.73</ele>
        <time>2021-08-20T11:55:01Z</time>
      </trkpt>
      <trkpt lat="43.30251" lon="-0.93616">
        <ele>170.77</ele>
        <time>2021-08-20T11:55:02Z</time>
      </trkpt>
      <trkpt lat="43.30274" lon="-0.93613">
        <ele>166.45</ele>
        <time>2021-08-20T11:55:05Z</time>
      </trkpt>
      <trkpt lat="43.30281" lon="-0.9361">
        <ele>165.96</ele>
        <time>2021-08-20T11:55:06Z</time>
      </trkpt>
      <trkpt lat="43.30288" lon="-0.93605">
        <ele>165.48</ele>
        <time>2021-08-20T11:55:07Z</time>
      </trkpt>
      <trkpt lat="43.30295" lon="-0.936">
        <ele>165.48</ele>
        <time>2021-08-20T11:55:08Z</time>
      </trkpt>
      <trkpt lat="43.3032" lon="-0.93578">
        <ele>164.04</ele>
        <time>2021-08-20T11:55:12Z</time>
      </trkpt>
      <trkpt lat="43.30325" lon="-0.93572">
        <ele>164.04</ele>
        <time>2021-08-20T11:55:13Z</time>
      </trkpt>
      <trkpt lat="43.30329" lon="-0.93567">
        <ele>164.04</ele>
        <time>2021-08-20T11:55:14Z</time>
      </trkpt>
      <trkpt lat="43.30334" lon="-0.93564">
        <ele>164.04</ele>
        <time>2021-08-20T11:55:15Z</time>
      </trkpt>
      <trkpt lat="43.30337" lon="-0.93565">
        <ele>164.04</ele>
        <time>2021-08-20T11:55:16Z</time>
      </trkpt>
      <trkpt lat="43.30339" lon="-0.93569">
        <ele>164.04</ele>
        <time>2021-08-20T11:55:17Z</time>
      </trkpt>
      <trkpt lat="43.30338" lon="-0.93575">
        <ele>164.04</ele>
        <time>2021-08-20T11:55:18Z</time>
      </trkpt>
      <trkpt lat="43.30335" lon="-0.9358">
        <ele>163.08</ele>
        <time>2021-08-20T11:55:19Z</time>
      </trkpt>
      <trkpt lat="43.30331" lon="-0.93585">
        <ele>162.6</ele>
        <time>2021-08-20T11:55:20Z</time>
      </trkpt>
      <trkpt lat="43.30326" lon="-0.93591">
        <ele>161.16</ele>
        <time>2021-08-20T11:55:21Z</time>
      </trkpt>
      <trkpt lat="43.30316" lon="-0.93607">
        <ele>159.72</ele>
        <time>2021-08-20T11:55:23Z</time>
      </trkpt>
      <trkpt lat="43.30298" lon="-0.93642">
        <ele>156.83</ele>
        <time>2021-08-20T11:55:27Z</time>
      </trkpt>
      <trkpt lat="43.30296" lon="-0.9365">
        <ele>156.83</ele>
        <time>2021-08-20T11:55:28Z</time>
      </trkpt>
      <trkpt lat="43.30298" lon="-0.93657">
        <ele>156.83</ele>
        <time>2021-08-20T11:55:29Z</time>
      </trkpt>
      <trkpt lat="43.303" lon="-0.93665">
        <ele>155.87</ele>
        <time>2021-08-20T11:55:30Z</time>
      </trkpt>
      <trkpt lat="43.30304" lon="-0.93672">
        <ele>154.91</ele>
        <time>2021-08-20T11:55:31Z</time>
      </trkpt>
      <trkpt lat="43.30308" lon="-0.93682">
        <ele>153.95</ele>
        <time>2021-08-20T11:55:32Z</time>
      </trkpt>
      <trkpt lat="43.30311" lon="-0.93691">
        <ele>152.51</ele>
        <time>2021-08-20T11:55:33Z</time>
      </trkpt>
      <trkpt lat="43.30316" lon="-0.93714">
        <ele>149.14</ele>
        <time>2021-08-20T11:55:35Z</time>
      </trkpt>
      <trkpt lat="43.30322" lon="-0.93737">
        <ele>146.74</ele>
        <time>2021-08-20T11:55:37Z</time>
      </trkpt>
      <trkpt lat="43.30327" lon="-0.93746">
        <ele>145.3</ele>
        <time>2021-08-20T11:55:38Z</time>
      </trkpt>
      <trkpt lat="43.3034" lon="-0.93769">
        <ele>140.49</ele>
        <time>2021-08-20T11:55:40Z</time>
      </trkpt>
      <trkpt lat="43.30353" lon="-0.93795">
        <ele>137.13</ele>
        <time>2021-08-20T11:55:42Z</time>
      </trkpt>
      <trkpt lat="43.30374" lon="-0.93837">
        <ele>133.76</ele>
        <time>2021-08-20T11:55:45Z</time>
      </trkpt>
      <trkpt lat="43.30393" lon="-0.93875">
        <ele>131.36</ele>
        <time>2021-08-20T11:55:48Z</time>
      </trkpt>
      <trkpt lat="43.30397" lon="-0.93887">
        <ele>129.92</ele>
        <time>2021-08-20T11:55:49Z</time>
      </trkpt>
      <trkpt lat="43.304" lon="-0.93898">
        <ele>129.43</ele>
        <time>2021-08-20T11:55:50Z</time>
      </trkpt>
      <trkpt lat="43.30404" lon="-0.93906">
        <ele>129.43</ele>
        <time>2021-08-20T11:55:51Z</time>
      </trkpt>
      <trkpt lat="43.30409" lon="-0.93913">
        <ele>128.95</ele>
        <time>2021-08-20T11:55:52Z</time>
      </trkpt>
      <trkpt lat="43.30415" lon="-0.9392">
        <ele>127.99</ele>
        <time>2021-08-20T11:55:53Z</time>
      </trkpt>
      <trkpt lat="43.30422" lon="-0.93927">
        <ele>126.07</ele>
        <time>2021-08-20T11:55:54Z</time>
      </trkpt>
      <trkpt lat="43.30437" lon="-0.93943">
        <ele>123.19</ele>
        <time>2021-08-20T11:55:56Z</time>
      </trkpt>
      <trkpt lat="43.30451" lon="-0.93964">
        <ele>121.26</ele>
        <time>2021-08-20T11:55:58Z</time>
      </trkpt>
      <trkpt lat="43.30456" lon="-0.93974">
        <ele>120.3</ele>
        <time>2021-08-20T11:55:59Z</time>
      </trkpt>
      <trkpt lat="43.30466" lon="-0.93996">
        <ele>119.34</ele>
        <time>2021-08-20T11:56:01Z</time>
      </trkpt>
      <trkpt lat="43.30481" lon="-0.94026">
        <ele>116.94</ele>
        <time>2021-08-20T11:56:04Z</time>
      </trkpt>
      <trkpt lat="43.30483" lon="-0.94037">
        <ele>116.46</ele>
        <time>2021-08-20T11:56:05Z</time>
      </trkpt>
      <trkpt lat="43.30484" lon="-0.94049">
        <ele>115.98</ele>
        <time>2021-08-20T11:56:06Z</time>
      </trkpt>
      <trkpt lat="43.30484" lon="-0.94061">
        <ele>115.01</ele>
        <time>2021-08-20T11:56:07Z</time>
      </trkpt>
      <trkpt lat="43.30483" lon="-0.94073">
        <ele>115.01</ele>
        <time>2021-08-20T11:56:08Z</time>
      </trkpt>
      <trkpt lat="43.30482" lon="-0.94085">
        <ele>114.53</ele>
        <time>2021-08-20T11:56:09Z</time>
      </trkpt>
      <trkpt lat="43.30479" lon="-0.94096">
        <ele>113.57</ele>
        <time>2021-08-20T11:56:10Z</time>
      </trkpt>
      <trkpt lat="43.30475" lon="-0.94107">
        <ele>113.57</ele>
        <time>2021-08-20T11:56:11Z</time>
      </trkpt>
      <trkpt lat="43.30471" lon="-0.94119">
        <ele>113.09</ele>
        <time>2021-08-20T11:56:12Z</time>
      </trkpt>
      <trkpt lat="43.3047" lon="-0.9413">
        <ele>113.09</ele>
        <time>2021-08-20T11:56:13Z</time>
      </trkpt>
      <trkpt lat="43.3047" lon="-0.94151">
        <ele>113.09</ele>
        <time>2021-08-20T11:56:15Z</time>
      </trkpt>
      <trkpt lat="43.30468" lon="-0.94181">
        <ele>111.17</ele>
        <time>2021-08-20T11:56:18Z</time>
      </trkpt>
      <trkpt lat="43.30468" lon="-0.94189">
        <ele>110.69</ele>
        <time>2021-08-20T11:56:19Z</time>
      </trkpt>
      <trkpt lat="43.30469" lon="-0.94195">
        <ele>110.69</ele>
        <time>2021-08-20T11:56:20Z</time>
      </trkpt>
      <trkpt lat="43.30472" lon="-0.94199">
        <ele>110.69</ele>
        <time>2021-08-20T11:56:21Z</time>
      </trkpt>
      <trkpt lat="43.30475" lon="-0.94202">
        <ele>110.69</ele>
        <time>2021-08-20T11:56:22Z</time>
      </trkpt>
      <trkpt lat="43.30479" lon="-0.94206">
        <ele>110.69</ele>
        <time>2021-08-20T11:56:23Z</time>
      </trkpt>
      <trkpt lat="43.30482" lon="-0.9421">
        <ele>110.69</ele>
        <time>2021-08-20T11:56:24Z</time>
      </trkpt>
      <trkpt lat="43.30508" lon="-0.94242">
        <ele>108.29</ele>
        <time>2021-08-20T11:56:30Z</time>
      </trkpt>
      <trkpt lat="43.3052" lon="-0.94253">
        <ele>107.32</ele>
        <time>2021-08-20T11:56:32Z</time>
      </trkpt>
      <trkpt lat="43.30538" lon="-0.94269">
        <ele>106.84</ele>
        <time>2021-08-20T11:56:35Z</time>
      </trkpt>
      <trkpt lat="43.3057" lon="-0.94292">
        <ele>106.36</ele>
        <time>2021-08-20T11:56:40Z</time>
      </trkpt>
      <trkpt lat="43.30576" lon="-0.94294">
        <ele>106.36</ele>
        <time>2021-08-20T11:56:41Z</time>
      </trkpt>
      <trkpt lat="43.30582" lon="-0.94298">
        <ele>105.88</ele>
        <time>2021-08-20T11:56:42Z</time>
      </trkpt>
      <trkpt lat="43.30623" lon="-0.94332">
        <ele>103.48</ele>
        <time>2021-08-20T11:56:48Z</time>
      </trkpt>
      <trkpt lat="43.30629" lon="-0.94339">
        <ele>103.48</ele>
        <time>2021-08-20T11:56:49Z</time>
      </trkpt>
      <trkpt lat="43.30635" lon="-0.94346">
        <ele>103.48</ele>
        <time>2021-08-20T11:56:50Z</time>
      </trkpt>
      <trkpt lat="43.30639" lon="-0.94354">
        <ele>103.48</ele>
        <time>2021-08-20T11:56:51Z</time>
      </trkpt>
      <trkpt lat="43.30656" lon="-0.94393">
        <ele>105.4</ele>
        <time>2021-08-20T11:56:57Z</time>
      </trkpt>
      <trkpt lat="43.30664" lon="-0.94411">
        <ele>107.81</ele>
        <time>2021-08-20T11:57:02Z</time>
      </trkpt>
      <trkpt lat="43.30678" lon="-0.94431">
        <ele>108.29</ele>
        <time>2021-08-20T11:57:09Z</time>
      </trkpt>
      <trkpt lat="43.3069" lon="-0.94445">
        <ele>107.81</ele>
        <time>2021-08-20T11:57:13Z</time>
      </trkpt>
      <trkpt lat="43.30694" lon="-0.94448">
        <ele>106.36</ele>
        <time>2021-08-20T11:57:14Z</time>
      </trkpt>
      <trkpt lat="43.307" lon="-0.94451">
        <ele>106.36</ele>
        <time>2021-08-20T11:57:15Z</time>
      </trkpt>
      <trkpt lat="43.30706" lon="-0.94453">
        <ele>105.4</ele>
        <time>2021-08-20T11:57:16Z</time>
      </trkpt>
      <trkpt lat="43.30713" lon="-0.94452">
        <ele>104.92</ele>
        <time>2021-08-20T11:57:17Z</time>
      </trkpt>
      <trkpt lat="43.3072" lon="-0.94451">
        <ele>103.96</ele>
        <time>2021-08-20T11:57:18Z</time>
      </trkpt>
      <trkpt lat="43.30727" lon="-0.94449">
        <ele>103.96</ele>
        <time>2021-08-20T11:57:19Z</time>
      </trkpt>
      <trkpt lat="43.30734" lon="-0.94448">
        <ele>103</ele>
        <time>2021-08-20T11:57:20Z</time>
      </trkpt>
      <trkpt lat="43.30741" lon="-0.94448">
        <ele>103</ele>
        <time>2021-08-20T11:57:21Z</time>
      </trkpt>
      <trkpt lat="43.30748" lon="-0.94448">
        <ele>103</ele>
        <time>2021-08-20T11:57:22Z</time>
      </trkpt>
      <trkpt lat="43.30787" lon="-0.9445">
        <ele>100.6</ele>
        <time>2021-08-20T11:57:27Z</time>
      </trkpt>
      <trkpt lat="43.30803" lon="-0.94456">
        <ele>99.63</ele>
        <time>2021-08-20T11:57:29Z</time>
      </trkpt>
      <trkpt lat="43.3081" lon="-0.9446">
        <ele>99.63</ele>
        <time>2021-08-20T11:57:30Z</time>
      </trkpt>
      <trkpt lat="43.30817" lon="-0.94466">
        <ele>99.63</ele>
        <time>2021-08-20T11:57:31Z</time>
      </trkpt>
      <trkpt lat="43.30823" lon="-0.94473">
        <ele>99.63</ele>
        <time>2021-08-20T11:57:32Z</time>
      </trkpt>
      <trkpt lat="43.30827" lon="-0.94481">
        <ele>99.63</ele>
        <time>2021-08-20T11:57:33Z</time>
      </trkpt>
      <trkpt lat="43.30831" lon="-0.9449">
        <ele>99.63</ele>
        <time>2021-08-20T11:57:34Z</time>
      </trkpt>
      <trkpt lat="43.30835" lon="-0.94499">
        <ele>99.15</ele>
        <time>2021-08-20T11:57:35Z</time>
      </trkpt>
      <trkpt lat="43.30848" lon="-0.94522">
        <ele>99.15</ele>
        <time>2021-08-20T11:57:38Z</time>
      </trkpt>
      <trkpt lat="43.30856" lon="-0.94535">
        <ele>100.6</ele>
        <time>2021-08-20T11:57:40Z</time>
      </trkpt>
      <trkpt lat="43.30859" lon="-0.94541">
        <ele>101.08</ele>
        <time>2021-08-20T11:57:41Z</time>
      </trkpt>
      <trkpt lat="43.3086" lon="-0.94546">
        <ele>101.56</ele>
        <time>2021-08-20T11:57:42Z</time>
      </trkpt>
      <trkpt lat="43.30866" lon="-0.94568">
        <ele>103</ele>
        <time>2021-08-20T11:57:48Z</time>
      </trkpt>
      <trkpt lat="43.30873" lon="-0.94597">
        <ele>104.92</ele>
        <time>2021-08-20T11:57:58Z</time>
      </trkpt>
      <trkpt lat="43.30881" lon="-0.94622">
        <ele>105.88</ele>
        <time>2021-08-20T11:58:07Z</time>
      </trkpt>
      <trkpt lat="43.30899" lon="-0.94629">
        <ele>105.88</ele>
        <time>2021-08-20T11:58:13Z</time>
      </trkpt>
      <trkpt lat="43.30907" lon="-0.94627">
        <ele>105.88</ele>
        <time>2021-08-20T11:58:15Z</time>
      </trkpt>
      <trkpt lat="43.30911" lon="-0.94625">
        <ele>105.88</ele>
        <time>2021-08-20T11:58:16Z</time>
      </trkpt>
      <trkpt lat="43.30928" lon="-0.94615">
        <ele>104.44</ele>
        <time>2021-08-20T11:58:20Z</time>
      </trkpt>
      <trkpt lat="43.30932" lon="-0.94612">
        <ele>103.96</ele>
        <time>2021-08-20T11:58:21Z</time>
      </trkpt>
      <trkpt lat="43.30953" lon="-0.94602">
        <ele>103.96</ele>
        <time>2021-08-20T11:58:26Z</time>
      </trkpt>
      <trkpt lat="43.30956" lon="-0.94604">
        <ele>103.96</ele>
        <time>2021-08-20T11:58:27Z</time>
      </trkpt>
      <trkpt lat="43.30959" lon="-0.94608">
        <ele>103.96</ele>
        <time>2021-08-20T11:58:28Z</time>
      </trkpt>
      <trkpt lat="43.3096" lon="-0.94612">
        <ele>103.96</ele>
        <time>2021-08-20T11:58:29Z</time>
      </trkpt>
      <trkpt lat="43.3096" lon="-0.94616">
        <ele>105.4</ele>
        <time>2021-08-20T11:58:30Z</time>
      </trkpt>
      <trkpt lat="43.3096" lon="-0.94621">
        <ele>105.4</ele>
        <time>2021-08-20T11:58:31Z</time>
      </trkpt>
      <trkpt lat="43.3096" lon="-0.94626">
        <ele>105.4</ele>
        <time>2021-08-20T11:58:32Z</time>
      </trkpt>
      <trkpt lat="43.3096" lon="-0.94631">
        <ele>105.4</ele>
        <time>2021-08-20T11:58:33Z</time>
      </trkpt>
      <trkpt lat="43.30957" lon="-0.94678">
        <ele>105.88</ele>
        <time>2021-08-20T11:58:42Z</time>
      </trkpt>
      <trkpt lat="43.30947" lon="-0.94716">
        <ele>107.81</ele>
        <time>2021-08-20T11:58:50Z</time>
      </trkpt>
      <trkpt lat="43.30944" lon="-0.94749">
        <ele>109.25</ele>
        <time>2021-08-20T11:58:58Z</time>
      </trkpt>
      <trkpt lat="43.3095" lon="-0.94791">
        <ele>109.73</ele>
        <time>2021-08-20T11:59:07Z</time>
      </trkpt>
      <trkpt lat="43.30955" lon="-0.94834">
        <ele>111.17</ele>
        <time>2021-08-20T11:59:17Z</time>
      </trkpt>
      <trkpt lat="43.30953" lon="-0.94864">
        <ele>112.13</ele>
        <time>2021-08-20T11:59:24Z</time>
      </trkpt>
      <trkpt lat="43.3094" lon="-0.9491">
        <ele>114.05</ele>
        <time>2021-08-20T11:59:35Z</time>
      </trkpt>
      <trkpt lat="43.30924" lon="-0.94938">
        <ele>114.53</ele>
        <time>2021-08-20T11:59:43Z</time>
      </trkpt>
      <trkpt lat="43.30904" lon="-0.94962">
        <ele>115.01</ele>
        <time>2021-08-20T11:59:50Z</time>
      </trkpt>
      <trkpt lat="43.30891" lon="-0.94978">
        <ele>115.01</ele>
        <time>2021-08-20T11:59:54Z</time>
      </trkpt>
      <trkpt lat="43.30888" lon="-0.94981">
        <ele>115.5</ele>
        <time>2021-08-20T11:59:55Z</time>
      </trkpt>
      <trkpt lat="43.30863" lon="-0.95006">
        <ele>115.98</ele>
        <time>2021-08-20T12:00:02Z</time>
      </trkpt>
      <trkpt lat="43.30839" lon="-0.95035">
        <ele>116.46</ele>
        <time>2021-08-20T12:00:09Z</time>
      </trkpt>
      <trkpt lat="43.30831" lon="-0.95043">
        <ele>116.46</ele>
        <time>2021-08-20T12:00:11Z</time>
      </trkpt>
      <trkpt lat="43.30828" lon="-0.95048">
        <ele>116.46</ele>
        <time>2021-08-20T12:00:12Z</time>
      </trkpt>
      <trkpt lat="43.30824" lon="-0.95053">
        <ele>116.46</ele>
        <time>2021-08-20T12:00:13Z</time>
      </trkpt>
      <trkpt lat="43.30789" lon="-0.95107">
        <ele>116.46</ele>
        <time>2021-08-20T12:00:23Z</time>
      </trkpt>
      <trkpt lat="43.30786" lon="-0.95113">
        <ele>116.46</ele>
        <time>2021-08-20T12:00:24Z</time>
      </trkpt>
      <trkpt lat="43.30769" lon="-0.95164">
        <ele>116.94</ele>
        <time>2021-08-20T12:00:32Z</time>
      </trkpt>
      <trkpt lat="43.30764" lon="-0.95189">
        <ele>117.42</ele>
        <time>2021-08-20T12:00:36Z</time>
      </trkpt>
      <trkpt lat="43.30764" lon="-0.95195">
        <ele>117.9</ele>
        <time>2021-08-20T12:00:37Z</time>
      </trkpt>
      <trkpt lat="43.30763" lon="-0.952">
        <ele>117.9</ele>
        <time>2021-08-20T12:00:38Z</time>
      </trkpt>
      <trkpt lat="43.30757" lon="-0.95246">
        <ele>119.34</ele>
        <time>2021-08-20T12:00:47Z</time>
      </trkpt>
      <trkpt lat="43.30752" lon="-0.95286">
        <ele>120.78</ele>
        <time>2021-08-20T12:00:56Z</time>
      </trkpt>
      <trkpt lat="43.30746" lon="-0.95327">
        <ele>122.22</ele>
        <time>2021-08-20T12:01:06Z</time>
      </trkpt>
      <trkpt lat="43.30739" lon="-0.95352">
        <ele>123.19</ele>
        <time>2021-08-20T12:01:13Z</time>
      </trkpt>
      <trkpt lat="43.30727" lon="-0.95379">
        <ele>124.63</ele>
        <time>2021-08-20T12:01:22Z</time>
      </trkpt>
      <trkpt lat="43.30712" lon="-0.95409">
        <ele>126.55</ele>
        <time>2021-08-20T12:01:32Z</time>
      </trkpt>
      <trkpt lat="43.307" lon="-0.95435">
        <ele>127.03</ele>
        <time>2021-08-20T12:01:40Z</time>
      </trkpt>
      <trkpt lat="43.30684" lon="-0.95463">
        <ele>126.07</ele>
        <time>2021-08-20T12:01:46Z</time>
      </trkpt>
      <trkpt lat="43.30674" lon="-0.95485">
        <ele>125.59</ele>
        <time>2021-08-20T12:01:50Z</time>
      </trkpt>
      <trkpt lat="43.30659" lon="-0.95516">
        <ele>125.59</ele>
        <time>2021-08-20T12:01:56Z</time>
      </trkpt>
      <trkpt lat="43.30655" lon="-0.95526">
        <ele>125.59</ele>
        <time>2021-08-20T12:01:58Z</time>
      </trkpt>
      <trkpt lat="43.3065" lon="-0.95536">
        <ele>125.59</ele>
        <time>2021-08-20T12:02:00Z</time>
      </trkpt>
      <trkpt lat="43.30647" lon="-0.95541">
        <ele>124.63</ele>
        <time>2021-08-20T12:02:01Z</time>
      </trkpt>
      <trkpt lat="43.30642" lon="-0.95546">
        <ele>124.63</ele>
        <time>2021-08-20T12:02:02Z</time>
      </trkpt>
      <trkpt lat="43.30637" lon="-0.95549">
        <ele>123.67</ele>
        <time>2021-08-20T12:02:03Z</time>
      </trkpt>
      <trkpt lat="43.30631" lon="-0.95551">
        <ele>122.71</ele>
        <time>2021-08-20T12:02:04Z</time>
      </trkpt>
      <trkpt lat="43.30625" lon="-0.95552">
        <ele>122.71</ele>
        <time>2021-08-20T12:02:05Z</time>
      </trkpt>
      <trkpt lat="43.30599" lon="-0.9556">
        <ele>120.78</ele>
        <time>2021-08-20T12:02:11Z</time>
      </trkpt>
      <trkpt lat="43.30596" lon="-0.95562">
        <ele>120.3</ele>
        <time>2021-08-20T12:02:16Z</time>
      </trkpt>
      <trkpt lat="43.30597" lon="-0.95562">
        <ele>120.3</ele>
        <time>2021-08-20T12:02:26Z</time>
      </trkpt>
      <trkpt lat="43.30598" lon="-0.95563">
        <ele>120.3</ele>
        <time>2021-08-20T12:02:48Z</time>
      </trkpt>
      <trkpt lat="43.30597" lon="-0.95564">
        <ele>119.82</ele>
        <time>2021-08-20T12:03:06Z</time>
      </trkpt>
      <trkpt lat="43.30597" lon="-0.95562">
        <ele>119.82</ele>
        <time>2021-08-20T12:03:29Z</time>
      </trkpt>
      <trkpt lat="43.30596" lon="-0.95562">
        <ele>119.82</ele>
        <time>2021-08-20T12:03:51Z</time>
      </trkpt>
      <trkpt lat="43.30581" lon="-0.9557">
        <ele>117.9</ele>
        <time>2021-08-20T12:03:56Z</time>
      </trkpt>
      <trkpt lat="43.30577" lon="-0.95574">
        <ele>117.9</ele>
        <time>2021-08-20T12:03:57Z</time>
      </trkpt>
      <trkpt lat="43.30573" lon="-0.95578">
        <ele>117.42</ele>
        <time>2021-08-20T12:03:58Z</time>
      </trkpt>
      <trkpt lat="43.30571" lon="-0.95584">
        <ele>117.42</ele>
        <time>2021-08-20T12:03:59Z</time>
      </trkpt>
      <trkpt lat="43.30571" lon="-0.95591">
        <ele>117.42</ele>
        <time>2021-08-20T12:04:00Z</time>
      </trkpt>
      <trkpt lat="43.30572" lon="-0.95595">
        <ele>117.42</ele>
        <time>2021-08-20T12:04:01Z</time>
      </trkpt>
      <trkpt lat="43.30573" lon="-0.95599">
        <ele>117.42</ele>
        <time>2021-08-20T12:04:02Z</time>
      </trkpt>
      <trkpt lat="43.30574" lon="-0.95602">
        <ele>117.42</ele>
        <time>2021-08-20T12:04:03Z</time>
      </trkpt>
      <trkpt lat="43.30575" lon="-0.95605">
        <ele>117.42</ele>
        <time>2021-08-20T12:04:04Z</time>
      </trkpt>
      <trkpt lat="43.30575" lon="-0.95609">
        <ele>117.42</ele>
        <time>2021-08-20T12:04:05Z</time>
      </trkpt>
      <trkpt lat="43.30576" lon="-0.95613">
        <ele>118.86</ele>
        <time>2021-08-20T12:04:06Z</time>
      </trkpt>
      <trkpt lat="43.30576" lon="-0.95615">
        <ele>119.34</ele>
        <time>2021-08-20T12:04:07Z</time>
      </trkpt>
      <trkpt lat="43.30577" lon="-0.95618">
        <ele>119.34</ele>
        <time>2021-08-20T12:04:08Z</time>
      </trkpt>
      <trkpt lat="43.30578" lon="-0.9562">
        <ele>119.34</ele>
        <time>2021-08-20T12:04:09Z</time>
      </trkpt>
      <trkpt lat="43.30582" lon="-0.95633">
        <ele>120.3</ele>
        <time>2021-08-20T12:04:17Z</time>
      </trkpt>
      <trkpt lat="43.30589" lon="-0.95651">
        <ele>122.22</ele>
        <time>2021-08-20T12:04:26Z</time>
      </trkpt>
      <trkpt lat="43.3059" lon="-0.95656">
        <ele>122.22</ele>
        <time>2021-08-20T12:04:28Z</time>
      </trkpt>
      <trkpt lat="43.30597" lon="-0.95677">
        <ele>122.71</ele>
        <time>2021-08-20T12:04:36Z</time>
      </trkpt>
      <trkpt lat="43.30605" lon="-0.95703">
        <ele>124.15</ele>
        <time>2021-08-20T12:04:46Z</time>
      </trkpt>
      <trkpt lat="43.30611" lon="-0.95728">
        <ele>125.59</ele>
        <time>2021-08-20T12:04:55Z</time>
      </trkpt>
      <trkpt lat="43.30616" lon="-0.95756">
        <ele>127.03</ele>
        <time>2021-08-20T12:05:05Z</time>
      </trkpt>
      <trkpt lat="43.3062" lon="-0.95782">
        <ele>127.99</ele>
        <time>2021-08-20T12:05:14Z</time>
      </trkpt>
      <trkpt lat="43.30627" lon="-0.958">
        <ele>129.43</ele>
        <time>2021-08-20T12:05:21Z</time>
      </trkpt>
      <trkpt lat="43.30634" lon="-0.95824">
        <ele>130.88</ele>
        <time>2021-08-20T12:05:30Z</time>
      </trkpt>
      <trkpt lat="43.30632" lon="-0.95847">
        <ele>131.84</ele>
        <time>2021-08-20T12:05:38Z</time>
      </trkpt>
      <trkpt lat="43.30619" lon="-0.95864">
        <ele>132.8</ele>
        <time>2021-08-20T12:05:47Z</time>
      </trkpt>
      <trkpt lat="43.30608" lon="-0.95873">
        <ele>134.24</ele>
        <time>2021-08-20T12:05:56Z</time>
      </trkpt>
      <trkpt lat="43.30597" lon="-0.95883">
        <ele>136.64</ele>
        <time>2021-08-20T12:06:06Z</time>
      </trkpt>
      <trkpt lat="43.30588" lon="-0.95891">
        <ele>138.09</ele>
        <time>2021-08-20T12:06:13Z</time>
      </trkpt>
      <trkpt lat="43.30587" lon="-0.95893">
        <ele>138.09</ele>
        <time>2021-08-20T12:06:14Z</time>
      </trkpt>
      <trkpt lat="43.30586" lon="-0.95894">
        <ele>138.09</ele>
        <time>2021-08-20T12:06:15Z</time>
      </trkpt>
      <trkpt lat="43.30585" lon="-0.95895">
        <ele>138.09</ele>
        <time>2021-08-20T12:06:16Z</time>
      </trkpt>
      <trkpt lat="43.30584" lon="-0.95896">
        <ele>138.57</ele>
        <time>2021-08-20T12:06:17Z</time>
      </trkpt>
      <trkpt lat="43.30583" lon="-0.95897">
        <ele>139.05</ele>
        <time>2021-08-20T12:06:18Z</time>
      </trkpt>
      <trkpt lat="43.30582" lon="-0.95898">
        <ele>139.05</ele>
        <time>2021-08-20T12:06:19Z</time>
      </trkpt>
      <trkpt lat="43.3058" lon="-0.95899">
        <ele>139.05</ele>
        <time>2021-08-20T12:06:20Z</time>
      </trkpt>
      <trkpt lat="43.30579" lon="-0.959">
        <ele>139.53</ele>
        <time>2021-08-20T12:06:21Z</time>
      </trkpt>
      <trkpt lat="43.30579" lon="-0.95902">
        <ele>140.01</ele>
        <time>2021-08-20T12:06:22Z</time>
      </trkpt>
      <trkpt lat="43.30578" lon="-0.95903">
        <ele>140.01</ele>
        <time>2021-08-20T12:06:23Z</time>
      </trkpt>
      <trkpt lat="43.30577" lon="-0.95905">
        <ele>140.01</ele>
        <time>2021-08-20T12:06:24Z</time>
      </trkpt>
      <trkpt lat="43.30578" lon="-0.95908">
        <ele>140.49</ele>
        <time>2021-08-20T12:06:25Z</time>
      </trkpt>
      <trkpt lat="43.30578" lon="-0.9591">
        <ele>140.49</ele>
        <time>2021-08-20T12:06:26Z</time>
      </trkpt>
      <trkpt lat="43.30579" lon="-0.95913">
        <ele>140.49</ele>
        <time>2021-08-20T12:06:27Z</time>
      </trkpt>
      <trkpt lat="43.3058" lon="-0.95915">
        <ele>140.49</ele>
        <time>2021-08-20T12:06:28Z</time>
      </trkpt>
      <trkpt lat="43.30581" lon="-0.95917">
        <ele>140.49</ele>
        <time>2021-08-20T12:06:29Z</time>
      </trkpt>
      <trkpt lat="43.30583" lon="-0.9592">
        <ele>140.49</ele>
        <time>2021-08-20T12:06:30Z</time>
      </trkpt>
      <trkpt lat="43.30585" lon="-0.95923">
        <ele>140.49</ele>
        <time>2021-08-20T12:06:31Z</time>
      </trkpt>
      <trkpt lat="43.30587" lon="-0.95926">
        <ele>140.49</ele>
        <time>2021-08-20T12:06:32Z</time>
      </trkpt>
      <trkpt lat="43.306" lon="-0.95944">
        <ele>140.49</ele>
        <time>2021-08-20T12:06:36Z</time>
      </trkpt>
      <trkpt lat="43.30605" lon="-0.9595">
        <ele>139.05</ele>
        <time>2021-08-20T12:06:37Z</time>
      </trkpt>
      <trkpt lat="43.30608" lon="-0.95956">
        <ele>139.05</ele>
        <time>2021-08-20T12:06:38Z</time>
      </trkpt>
      <trkpt lat="43.30637" lon="-0.96005">
        <ele>140.01</ele>
        <time>2021-08-20T12:06:46Z</time>
      </trkpt>
      <trkpt lat="43.30648" lon="-0.96024">
        <ele>141.45</ele>
        <time>2021-08-20T12:06:52Z</time>
      </trkpt>
      <trkpt lat="43.30663" lon="-0.9605">
        <ele>141.93</ele>
        <time>2021-08-20T12:06:59Z</time>
      </trkpt>
      <trkpt lat="43.30682" lon="-0.96084">
        <ele>139.05</ele>
        <time>2021-08-20T12:07:05Z</time>
      </trkpt>
      <trkpt lat="43.30706" lon="-0.96122">
        <ele>136.16</ele>
        <time>2021-08-20T12:07:10Z</time>
      </trkpt>
      <trkpt lat="43.30711" lon="-0.96131">
        <ele>136.16</ele>
        <time>2021-08-20T12:07:11Z</time>
      </trkpt>
      <trkpt lat="43.30726" lon="-0.96153">
        <ele>139.53</ele>
        <time>2021-08-20T12:07:15Z</time>
      </trkpt>
      <trkpt lat="43.30734" lon="-0.96164">
        <ele>140.97</ele>
        <time>2021-08-20T12:07:20Z</time>
      </trkpt>
      <trkpt lat="43.30741" lon="-0.96174">
        <ele>141.93</ele>
        <time>2021-08-20T12:07:27Z</time>
      </trkpt>
      <trkpt lat="43.30745" lon="-0.96182">
        <ele>142.89</ele>
        <time>2021-08-20T12:07:31Z</time>
      </trkpt>
      <trkpt lat="43.30756" lon="-0.96201">
        <ele>143.85</ele>
        <time>2021-08-20T12:07:41Z</time>
      </trkpt>
      <trkpt lat="43.30762" lon="-0.96216">
        <ele>144.82</ele>
        <time>2021-08-20T12:07:48Z</time>
      </trkpt>
      <trkpt lat="43.30768" lon="-0.96232">
        <ele>146.74</ele>
        <time>2021-08-20T12:07:56Z</time>
      </trkpt>
      <trkpt lat="43.30771" lon="-0.96242">
        <ele>147.7</ele>
        <time>2021-08-20T12:08:01Z</time>
      </trkpt>
      <trkpt lat="43.30777" lon="-0.96257">
        <ele>148.66</ele>
        <time>2021-08-20T12:08:08Z</time>
      </trkpt>
      <trkpt lat="43.30784" lon="-0.96276">
        <ele>150.58</ele>
        <time>2021-08-20T12:08:16Z</time>
      </trkpt>
      <trkpt lat="43.30792" lon="-0.96301">
        <ele>151.54</ele>
        <time>2021-08-20T12:08:24Z</time>
      </trkpt>
      <trkpt lat="43.30806" lon="-0.96342">
        <ele>151.54</ele>
        <time>2021-08-20T12:08:33Z</time>
      </trkpt>
      <trkpt lat="43.3081" lon="-0.96356">
        <ele>150.1</ele>
        <time>2021-08-20T12:08:35Z</time>
      </trkpt>
      <trkpt lat="43.30825" lon="-0.96399">
        <ele>145.3</ele>
        <time>2021-08-20T12:08:41Z</time>
      </trkpt>
      <trkpt lat="43.30834" lon="-0.96423">
        <ele>142.41</ele>
        <time>2021-08-20T12:08:44Z</time>
      </trkpt>
      <trkpt lat="43.30844" lon="-0.96449">
        <ele>138.57</ele>
        <time>2021-08-20T12:08:47Z</time>
      </trkpt>
      <trkpt lat="43.30847" lon="-0.96459">
        <ele>137.13</ele>
        <time>2021-08-20T12:08:48Z</time>
      </trkpt>
      <trkpt lat="43.30849" lon="-0.96469">
        <ele>135.68</ele>
        <time>2021-08-20T12:08:49Z</time>
      </trkpt>
      <trkpt lat="43.30849" lon="-0.96481">
        <ele>134.72</ele>
        <time>2021-08-20T12:08:50Z</time>
      </trkpt>
      <trkpt lat="43.30848" lon="-0.96494">
        <ele>133.28</ele>
        <time>2021-08-20T12:08:51Z</time>
      </trkpt>
      <trkpt lat="43.30847" lon="-0.96507">
        <ele>132.32</ele>
        <time>2021-08-20T12:08:52Z</time>
      </trkpt>
      <trkpt lat="43.30845" lon="-0.96519">
        <ele>131.36</ele>
        <time>2021-08-20T12:08:53Z</time>
      </trkpt>
      <trkpt lat="43.30844" lon="-0.96531">
        <ele>130.4</ele>
        <time>2021-08-20T12:08:54Z</time>
      </trkpt>
      <trkpt lat="43.30845" lon="-0.96542">
        <ele>129.92</ele>
        <time>2021-08-20T12:08:55Z</time>
      </trkpt>
      <trkpt lat="43.30848" lon="-0.96552">
        <ele>129.43</ele>
        <time>2021-08-20T12:08:56Z</time>
      </trkpt>
      <trkpt lat="43.30852" lon="-0.9656">
        <ele>128.95</ele>
        <time>2021-08-20T12:08:57Z</time>
      </trkpt>
      <trkpt lat="43.30859" lon="-0.96564">
        <ele>127.99</ele>
        <time>2021-08-20T12:08:58Z</time>
      </trkpt>
      <trkpt lat="43.30865" lon="-0.96565">
        <ele>127.99</ele>
        <time>2021-08-20T12:08:59Z</time>
      </trkpt>
      <trkpt lat="43.3087" lon="-0.96564">
        <ele>127.99</ele>
        <time>2021-08-20T12:09:00Z</time>
      </trkpt>
      <trkpt lat="43.30875" lon="-0.96562">
        <ele>129.92</ele>
        <time>2021-08-20T12:09:01Z</time>
      </trkpt>
      <trkpt lat="43.30878" lon="-0.9656">
        <ele>130.88</ele>
        <time>2021-08-20T12:09:02Z</time>
      </trkpt>
      <trkpt lat="43.30882" lon="-0.96558">
        <ele>132.32</ele>
        <time>2021-08-20T12:09:04Z</time>
      </trkpt>
      <trkpt lat="43.30883" lon="-0.96559">
        <ele>132.32</ele>
        <time>2021-08-20T12:09:05Z</time>
      </trkpt>
      <trkpt lat="43.30885" lon="-0.9656">
        <ele>133.28</ele>
        <time>2021-08-20T12:09:06Z</time>
      </trkpt>
      <trkpt lat="43.30885" lon="-0.96563">
        <ele>133.28</ele>
        <time>2021-08-20T12:09:07Z</time>
      </trkpt>
      <trkpt lat="43.30886" lon="-0.96565">
        <ele>133.76</ele>
        <time>2021-08-20T12:09:08Z</time>
      </trkpt>
      <trkpt lat="43.30885" lon="-0.96568">
        <ele>133.76</ele>
        <time>2021-08-20T12:09:09Z</time>
      </trkpt>
      <trkpt lat="43.30884" lon="-0.9657">
        <ele>133.76</ele>
        <time>2021-08-20T12:09:10Z</time>
      </trkpt>
      <trkpt lat="43.30872" lon="-0.96585">
        <ele>134.72</ele>
        <time>2021-08-20T12:09:18Z</time>
      </trkpt>
      <trkpt lat="43.30855" lon="-0.96596">
        <ele>136.16</ele>
        <time>2021-08-20T12:09:26Z</time>
      </trkpt>
      <trkpt lat="43.30841" lon="-0.96607">
        <ele>137.13</ele>
        <time>2021-08-20T12:09:34Z</time>
      </trkpt>
      <trkpt lat="43.30826" lon="-0.96621">
        <ele>138.09</ele>
        <time>2021-08-20T12:09:42Z</time>
      </trkpt>
      <trkpt lat="43.30815" lon="-0.96639">
        <ele>138.57</ele>
        <time>2021-08-20T12:09:49Z</time>
      </trkpt>
      <trkpt lat="43.30793" lon="-0.96669">
        <ele>138.57</ele>
        <time>2021-08-20T12:09:57Z</time>
      </trkpt>
      <trkpt lat="43.30774" lon="-0.96687">
        <ele>139.05</ele>
        <time>2021-08-20T12:10:04Z</time>
      </trkpt>
      <trkpt lat="43.30757" lon="-0.96702">
        <ele>139.53</ele>
        <time>2021-08-20T12:10:10Z</time>
      </trkpt>
      <trkpt lat="43.30739" lon="-0.96716">
        <ele>141.45</ele>
        <time>2021-08-20T12:10:18Z</time>
      </trkpt>
      <trkpt lat="43.30723" lon="-0.96727">
        <ele>142.41</ele>
        <time>2021-08-20T12:10:27Z</time>
      </trkpt>
      <trkpt lat="43.30706" lon="-0.96736">
        <ele>144.34</ele>
        <time>2021-08-20T12:10:37Z</time>
      </trkpt>
      <trkpt lat="43.3069" lon="-0.96742">
        <ele>145.3</ele>
        <time>2021-08-20T12:10:45Z</time>
      </trkpt>
      <trkpt lat="43.30669" lon="-0.96751">
        <ele>146.26</ele>
        <time>2021-08-20T12:10:55Z</time>
      </trkpt>
      <trkpt lat="43.30646" lon="-0.96759">
        <ele>146.74</ele>
        <time>2021-08-20T12:11:05Z</time>
      </trkpt>
      <trkpt lat="43.3062" lon="-0.96768">
        <ele>148.18</ele>
        <time>2021-08-20T12:11:15Z</time>
      </trkpt>
      <trkpt lat="43.30599" lon="-0.96775">
        <ele>149.62</ele>
        <time>2021-08-20T12:11:25Z</time>
      </trkpt>
      <trkpt lat="43.30596" lon="-0.96777">
        <ele>149.62</ele>
        <time>2021-08-20T12:11:27Z</time>
      </trkpt>
      <trkpt lat="43.30594" lon="-0.96781">
        <ele>150.1</ele>
        <time>2021-08-20T12:11:29Z</time>
      </trkpt>
      <trkpt lat="43.30593" lon="-0.96782">
        <ele>150.1</ele>
        <time>2021-08-20T12:11:30Z</time>
      </trkpt>
      <trkpt lat="43.30579" lon="-0.96784">
        <ele>151.54</ele>
        <time>2021-08-20T12:11:38Z</time>
      </trkpt>
      <trkpt lat="43.30564" lon="-0.96789">
        <ele>152.51</ele>
        <time>2021-08-20T12:11:47Z</time>
      </trkpt>
      <trkpt lat="43.30548" lon="-0.96799">
        <ele>154.43</ele>
        <time>2021-08-20T12:11:58Z</time>
      </trkpt>
      <trkpt lat="43.30534" lon="-0.96808">
        <ele>155.39</ele>
        <time>2021-08-20T12:12:07Z</time>
      </trkpt>
      <trkpt lat="43.30518" lon="-0.96823">
        <ele>156.83</ele>
        <time>2021-08-20T12:12:17Z</time>
      </trkpt>
      <trkpt lat="43.30499" lon="-0.96838">
        <ele>157.79</ele>
        <time>2021-08-20T12:12:26Z</time>
      </trkpt>
      <trkpt lat="43.30481" lon="-0.96848">
        <ele>159.24</ele>
        <time>2021-08-20T12:12:33Z</time>
      </trkpt>
      <trkpt lat="43.30455" lon="-0.9685">
        <ele>159.72</ele>
        <time>2021-08-20T12:12:40Z</time>
      </trkpt>
      <trkpt lat="43.30431" lon="-0.96837">
        <ele>160.2</ele>
        <time>2021-08-20T12:12:47Z</time>
      </trkpt>
      <trkpt lat="43.30413" lon="-0.96818">
        <ele>161.64</ele>
        <time>2021-08-20T12:12:55Z</time>
      </trkpt>
      <trkpt lat="43.30399" lon="-0.96794">
        <ele>162.12</ele>
        <time>2021-08-20T12:13:03Z</time>
      </trkpt>
      <trkpt lat="43.30381" lon="-0.96766">
        <ele>162.12</ele>
        <time>2021-08-20T12:13:10Z</time>
      </trkpt>
      <trkpt lat="43.30357" lon="-0.96741">
        <ele>163.08</ele>
        <time>2021-08-20T12:13:18Z</time>
      </trkpt>
      <trkpt lat="43.30335" lon="-0.96734">
        <ele>163.56</ele>
        <time>2021-08-20T12:13:24Z</time>
      </trkpt>
      <trkpt lat="43.30317" lon="-0.96734">
        <ele>165</ele>
        <time>2021-08-20T12:13:31Z</time>
      </trkpt>
      <trkpt lat="43.30309" lon="-0.96734">
        <ele>165.96</ele>
        <time>2021-08-20T12:13:40Z</time>
      </trkpt>
      <trkpt lat="43.30301" lon="-0.96732">
        <ele>166.45</ele>
        <time>2021-08-20T12:13:49Z</time>
      </trkpt>
      <trkpt lat="43.30295" lon="-0.9673">
        <ele>167.89</ele>
        <time>2021-08-20T12:13:57Z</time>
      </trkpt>
      <trkpt lat="43.30293" lon="-0.96729">
        <ele>167.89</ele>
        <time>2021-08-20T12:14:01Z</time>
      </trkpt>
      <trkpt lat="43.30291" lon="-0.96728">
        <ele>167.89</ele>
        <time>2021-08-20T12:14:02Z</time>
      </trkpt>
      <trkpt lat="43.3029" lon="-0.96728">
        <ele>167.89</ele>
        <time>2021-08-20T12:14:03Z</time>
      </trkpt>
      <trkpt lat="43.30288" lon="-0.96727">
        <ele>168.37</ele>
        <time>2021-08-20T12:14:04Z</time>
      </trkpt>
      <trkpt lat="43.30287" lon="-0.96727">
        <ele>168.37</ele>
        <time>2021-08-20T12:14:05Z</time>
      </trkpt>
      <trkpt lat="43.30285" lon="-0.96725">
        <ele>168.37</ele>
        <time>2021-08-20T12:14:06Z</time>
      </trkpt>
      <trkpt lat="43.30283" lon="-0.96724">
        <ele>168.37</ele>
        <time>2021-08-20T12:14:07Z</time>
      </trkpt>
      <trkpt lat="43.30267" lon="-0.96714">
        <ele>168.85</ele>
        <time>2021-08-20T12:14:14Z</time>
      </trkpt>
      <trkpt lat="43.30256" lon="-0.96704">
        <ele>168.85</ele>
        <time>2021-08-20T12:14:18Z</time>
      </trkpt>
      <trkpt lat="43.30252" lon="-0.967">
        <ele>167.41</ele>
        <time>2021-08-20T12:14:19Z</time>
      </trkpt>
      <trkpt lat="43.30248" lon="-0.96697">
        <ele>167.41</ele>
        <time>2021-08-20T12:14:20Z</time>
      </trkpt>
      <trkpt lat="43.30232" lon="-0.96684">
        <ele>164.52</ele>
        <time>2021-08-20T12:14:23Z</time>
      </trkpt>
      <trkpt lat="43.30227" lon="-0.96679">
        <ele>164.52</ele>
        <time>2021-08-20T12:14:24Z</time>
      </trkpt>
      <trkpt lat="43.3021" lon="-0.96662">
        <ele>162.12</ele>
        <time>2021-08-20T12:14:27Z</time>
      </trkpt>
      <trkpt lat="43.30164" lon="-0.9663">
        <ele>160.68</ele>
        <time>2021-08-20T12:14:34Z</time>
      </trkpt>
      <trkpt lat="43.30151" lon="-0.96625">
        <ele>160.2</ele>
        <time>2021-08-20T12:14:36Z</time>
      </trkpt>
      <trkpt lat="43.3011" lon="-0.96615">
        <ele>160.2</ele>
        <time>2021-08-20T12:14:42Z</time>
      </trkpt>
      <trkpt lat="43.30062" lon="-0.96605">
        <ele>159.72</ele>
        <time>2021-08-20T12:14:50Z</time>
      </trkpt>
      <trkpt lat="43.30038" lon="-0.96601">
        <ele>159.72</ele>
        <time>2021-08-20T12:14:55Z</time>
      </trkpt>
      <trkpt lat="43.30029" lon="-0.966">
        <ele>159.72</ele>
        <time>2021-08-20T12:14:57Z</time>
      </trkpt>
      <trkpt lat="43.30025" lon="-0.96599">
        <ele>159.72</ele>
        <time>2021-08-20T12:14:58Z</time>
      </trkpt>
      <trkpt lat="43.3002" lon="-0.96599">
        <ele>159.72</ele>
        <time>2021-08-20T12:14:59Z</time>
      </trkpt>
      <trkpt lat="43.30006" lon="-0.966">
        <ele>161.16</ele>
        <time>2021-08-20T12:15:02Z</time>
      </trkpt>
      <trkpt lat="43.29998" lon="-0.96602">
        <ele>161.16</ele>
        <time>2021-08-20T12:15:04Z</time>
      </trkpt>
      <trkpt lat="43.29975" lon="-0.96608">
        <ele>162.6</ele>
        <time>2021-08-20T12:15:11Z</time>
      </trkpt>
      <trkpt lat="43.29963" lon="-0.9661">
        <ele>163.56</ele>
        <time>2021-08-20T12:15:18Z</time>
      </trkpt>
      <trkpt lat="43.29958" lon="-0.96612">
        <ele>164.52</ele>
        <time>2021-08-20T12:15:22Z</time>
      </trkpt>
      <trkpt lat="43.29957" lon="-0.96612">
        <ele>164.52</ele>
        <time>2021-08-20T12:15:23Z</time>
      </trkpt>
      <trkpt lat="43.29956" lon="-0.96613">
        <ele>164.52</ele>
        <time>2021-08-20T12:15:24Z</time>
      </trkpt>
      <trkpt lat="43.29955" lon="-0.96613">
        <ele>165</ele>
        <time>2021-08-20T12:15:25Z</time>
      </trkpt>
      <trkpt lat="43.29953" lon="-0.96613">
        <ele>165</ele>
        <time>2021-08-20T12:15:26Z</time>
      </trkpt>
      <trkpt lat="43.29949" lon="-0.96615">
        <ele>165.96</ele>
        <time>2021-08-20T12:15:30Z</time>
      </trkpt>
      <trkpt lat="43.29948" lon="-0.96615">
        <ele>165.96</ele>
        <time>2021-08-20T12:15:31Z</time>
      </trkpt>
      <trkpt lat="43.2994" lon="-0.96616">
        <ele>167.41</ele>
        <time>2021-08-20T12:15:37Z</time>
      </trkpt>
      <trkpt lat="43.29938" lon="-0.96617">
        <ele>167.41</ele>
        <time>2021-08-20T12:15:38Z</time>
      </trkpt>
      <trkpt lat="43.29937" lon="-0.96618">
        <ele>167.89</ele>
        <time>2021-08-20T12:15:39Z</time>
      </trkpt>
      <trkpt lat="43.29928" lon="-0.96622">
        <ele>168.85</ele>
        <time>2021-08-20T12:15:47Z</time>
      </trkpt>
      <trkpt lat="43.29919" lon="-0.96625">
        <ele>170.29</ele>
        <time>2021-08-20T12:15:57Z</time>
      </trkpt>
      <trkpt lat="43.2991" lon="-0.96627">
        <ele>171.25</ele>
        <time>2021-08-20T12:16:07Z</time>
      </trkpt>
      <trkpt lat="43.29902" lon="-0.9663">
        <ele>172.69</ele>
        <time>2021-08-20T12:16:16Z</time>
      </trkpt>
      <trkpt lat="43.29899" lon="-0.96631">
        <ele>173.17</ele>
        <time>2021-08-20T12:16:19Z</time>
      </trkpt>
      <trkpt lat="43.29898" lon="-0.96632">
        <ele>173.66</ele>
        <time>2021-08-20T12:16:20Z</time>
      </trkpt>
      <trkpt lat="43.29896" lon="-0.96633">
        <ele>173.66</ele>
        <time>2021-08-20T12:16:21Z</time>
      </trkpt>
      <trkpt lat="43.29892" lon="-0.96636">
        <ele>174.14</ele>
        <time>2021-08-20T12:16:25Z</time>
      </trkpt>
      <trkpt lat="43.29891" lon="-0.96637">
        <ele>174.14</ele>
        <time>2021-08-20T12:16:26Z</time>
      </trkpt>
      <trkpt lat="43.29889" lon="-0.96639">
        <ele>174.14</ele>
        <time>2021-08-20T12:16:31Z</time>
      </trkpt>
      <trkpt lat="43.29887" lon="-0.96642">
        <ele>174.14</ele>
        <time>2021-08-20T12:16:35Z</time>
      </trkpt>
      <trkpt lat="43.29876" lon="-0.96662">
        <ele>175.58</ele>
        <time>2021-08-20T12:16:42Z</time>
      </trkpt>
      <trkpt lat="43.29863" lon="-0.96692">
        <ele>175.58</ele>
        <time>2021-08-20T12:16:51Z</time>
      </trkpt>
      <trkpt lat="43.29852" lon="-0.9672">
        <ele>177.02</ele>
        <time>2021-08-20T12:17:00Z</time>
      </trkpt>
      <trkpt lat="43.29838" lon="-0.96745">
        <ele>178.94</ele>
        <time>2021-08-20T12:17:09Z</time>
      </trkpt>
      <trkpt lat="43.29823" lon="-0.96767">
        <ele>180.38</ele>
        <time>2021-08-20T12:17:17Z</time>
      </trkpt>
      <trkpt lat="43.298" lon="-0.96801">
        <ele>181.35</ele>
        <time>2021-08-20T12:17:27Z</time>
      </trkpt>
      <trkpt lat="43.29784" lon="-0.96826">
        <ele>182.79</ele>
        <time>2021-08-20T12:17:35Z</time>
      </trkpt>
      <trkpt lat="43.29767" lon="-0.96864">
        <ele>184.23</ele>
        <time>2021-08-20T12:17:45Z</time>
      </trkpt>
      <trkpt lat="43.29752" lon="-0.969">
        <ele>184.71</ele>
        <time>2021-08-20T12:17:53Z</time>
      </trkpt>
      <trkpt lat="43.2973" lon="-0.96949">
        <ele>182.31</ele>
        <time>2021-08-20T12:18:01Z</time>
      </trkpt>
      <trkpt lat="43.29726" lon="-0.96954">
        <ele>182.31</ele>
        <time>2021-08-20T12:18:02Z</time>
      </trkpt>
      <trkpt lat="43.29721" lon="-0.9696">
        <ele>181.83</ele>
        <time>2021-08-20T12:18:03Z</time>
      </trkpt>
      <trkpt lat="43.29716" lon="-0.96963">
        <ele>181.83</ele>
        <time>2021-08-20T12:18:04Z</time>
      </trkpt>
      <trkpt lat="43.29709" lon="-0.96965">
        <ele>181.83</ele>
        <time>2021-08-20T12:18:05Z</time>
      </trkpt>
      <trkpt lat="43.29705" lon="-0.96966">
        <ele>181.83</ele>
        <time>2021-08-20T12:18:06Z</time>
      </trkpt>
      <trkpt lat="43.29699" lon="-0.96966">
        <ele>181.83</ele>
        <time>2021-08-20T12:18:07Z</time>
      </trkpt>
      <trkpt lat="43.29692" lon="-0.96966">
        <ele>181.83</ele>
        <time>2021-08-20T12:18:08Z</time>
      </trkpt>
      <trkpt lat="43.29655" lon="-0.96975">
        <ele>179.9</ele>
        <time>2021-08-20T12:18:15Z</time>
      </trkpt>
      <trkpt lat="43.29614" lon="-0.97002">
        <ele>178.94</ele>
        <time>2021-08-20T12:18:22Z</time>
      </trkpt>
      <trkpt lat="43.29576" lon="-0.97023">
        <ele>178.46</ele>
        <time>2021-08-20T12:18:29Z</time>
      </trkpt>
      <trkpt lat="43.29553" lon="-0.97037">
        <ele>178.46</ele>
        <time>2021-08-20T12:18:34Z</time>
      </trkpt>
      <trkpt lat="43.2952" lon="-0.97056">
        <ele>178.46</ele>
        <time>2021-08-20T12:18:41Z</time>
      </trkpt>
      <trkpt lat="43.29516" lon="-0.97058">
        <ele>178.46</ele>
        <time>2021-08-20T12:18:42Z</time>
      </trkpt>
      <trkpt lat="43.29512" lon="-0.97061">
        <ele>178.46</ele>
        <time>2021-08-20T12:18:43Z</time>
      </trkpt>
      <trkpt lat="43.29499" lon="-0.97069">
        <ele>178.46</ele>
        <time>2021-08-20T12:18:46Z</time>
      </trkpt>
      <trkpt lat="43.29495" lon="-0.97071">
        <ele>178.46</ele>
        <time>2021-08-20T12:18:47Z</time>
      </trkpt>
      <trkpt lat="43.29492" lon="-0.97074">
        <ele>178.46</ele>
        <time>2021-08-20T12:18:48Z</time>
      </trkpt>
      <trkpt lat="43.29488" lon="-0.97076">
        <ele>178.46</ele>
        <time>2021-08-20T12:18:49Z</time>
      </trkpt>
      <trkpt lat="43.29485" lon="-0.97079">
        <ele>178.46</ele>
        <time>2021-08-20T12:18:50Z</time>
      </trkpt>
      <trkpt lat="43.29483" lon="-0.97081">
        <ele>178.46</ele>
        <time>2021-08-20T12:18:51Z</time>
      </trkpt>
      <trkpt lat="43.2948" lon="-0.97085">
        <ele>178.46</ele>
        <time>2021-08-20T12:18:52Z</time>
      </trkpt>
      <trkpt lat="43.2947" lon="-0.97105">
        <ele>178.46</ele>
        <time>2021-08-20T12:18:57Z</time>
      </trkpt>
      <trkpt lat="43.29465" lon="-0.97119">
        <ele>179.42</ele>
        <time>2021-08-20T12:19:00Z</time>
      </trkpt>
      <trkpt lat="43.29461" lon="-0.97149">
        <ele>181.35</ele>
        <time>2021-08-20T12:19:07Z</time>
      </trkpt>
      <trkpt lat="43.2946" lon="-0.97161">
        <ele>182.31</ele>
        <time>2021-08-20T12:19:13Z</time>
      </trkpt>
      <trkpt lat="43.29458" lon="-0.97172">
        <ele>183.75</ele>
        <time>2021-08-20T12:19:21Z</time>
      </trkpt>
      <trkpt lat="43.29457" lon="-0.97173">
        <ele>183.27</ele>
        <time>2021-08-20T12:19:29Z</time>
      </trkpt>
      <trkpt lat="43.29455" lon="-0.97175">
        <ele>183.75</ele>
        <time>2021-08-20T12:19:45Z</time>
      </trkpt>
      <trkpt lat="43.29456" lon="-0.97185">
        <ele>184.71</ele>
        <time>2021-08-20T12:19:54Z</time>
      </trkpt>
      <trkpt lat="43.29455" lon="-0.97196">
        <ele>186.15</ele>
        <time>2021-08-20T12:20:02Z</time>
      </trkpt>
      <trkpt lat="43.29454" lon="-0.97207">
        <ele>187.11</ele>
        <time>2021-08-20T12:20:10Z</time>
      </trkpt>
      <trkpt lat="43.29453" lon="-0.97212">
        <ele>187.11</ele>
        <time>2021-08-20T12:20:14Z</time>
      </trkpt>
      <trkpt lat="43.29451" lon="-0.97213">
        <ele>187.11</ele>
        <time>2021-08-20T12:20:15Z</time>
      </trkpt>
      <trkpt lat="43.2945" lon="-0.97215">
        <ele>187.11</ele>
        <time>2021-08-20T12:20:16Z</time>
      </trkpt>
      <trkpt lat="43.29438" lon="-0.97231">
        <ele>187.11</ele>
        <time>2021-08-20T12:20:21Z</time>
      </trkpt>
      <trkpt lat="43.29434" lon="-0.97234">
        <ele>187.11</ele>
        <time>2021-08-20T12:20:22Z</time>
      </trkpt>
      <trkpt lat="43.2943" lon="-0.97235">
        <ele>187.11</ele>
        <time>2021-08-20T12:20:23Z</time>
      </trkpt>
      <trkpt lat="43.29424" lon="-0.97237">
        <ele>185.19</ele>
        <time>2021-08-20T12:20:24Z</time>
      </trkpt>
      <trkpt lat="43.29419" lon="-0.97238">
        <ele>185.19</ele>
        <time>2021-08-20T12:20:25Z</time>
      </trkpt>
      <trkpt lat="43.29397" lon="-0.97241">
        <ele>184.23</ele>
        <time>2021-08-20T12:20:29Z</time>
      </trkpt>
      <trkpt lat="43.29392" lon="-0.97243">
        <ele>184.23</ele>
        <time>2021-08-20T12:20:30Z</time>
      </trkpt>
      <trkpt lat="43.29369" lon="-0.97257">
        <ele>184.23</ele>
        <time>2021-08-20T12:20:35Z</time>
      </trkpt>
      <trkpt lat="43.2935" lon="-0.97276">
        <ele>184.23</ele>
        <time>2021-08-20T12:20:40Z</time>
      </trkpt>
      <trkpt lat="43.29339" lon="-0.97294">
        <ele>184.23</ele>
        <time>2021-08-20T12:20:44Z</time>
      </trkpt>
      <trkpt lat="43.29334" lon="-0.97304">
        <ele>185.67</ele>
        <time>2021-08-20T12:20:46Z</time>
      </trkpt>
      <trkpt lat="43.29332" lon="-0.97309">
        <ele>185.67</ele>
        <time>2021-08-20T12:20:47Z</time>
      </trkpt>
      <trkpt lat="43.29312" lon="-0.97359">
        <ele>186.15</ele>
        <time>2021-08-20T12:20:57Z</time>
      </trkpt>
      <trkpt lat="43.29311" lon="-0.97364">
        <ele>186.15</ele>
        <time>2021-08-20T12:20:58Z</time>
      </trkpt>
      <trkpt lat="43.29308" lon="-0.97375">
        <ele>186.15</ele>
        <time>2021-08-20T12:21:00Z</time>
      </trkpt>
      <trkpt lat="43.29293" lon="-0.97421">
        <ele>186.63</ele>
        <time>2021-08-20T12:21:09Z</time>
      </trkpt>
      <trkpt lat="43.29278" lon="-0.97458">
        <ele>188.08</ele>
        <time>2021-08-20T12:21:18Z</time>
      </trkpt>
      <trkpt lat="43.29271" lon="-0.97482">
        <ele>189.52</ele>
        <time>2021-08-20T12:21:26Z</time>
      </trkpt>
      <trkpt lat="43.29266" lon="-0.97512">
        <ele>191.44</ele>
        <time>2021-08-20T12:21:36Z</time>
      </trkpt>
      <trkpt lat="43.29259" lon="-0.97546">
        <ele>193.36</ele>
        <time>2021-08-20T12:21:47Z</time>
      </trkpt>
      <trkpt lat="43.29253" lon="-0.97574">
        <ele>195.28</ele>
        <time>2021-08-20T12:21:55Z</time>
      </trkpt>
      <trkpt lat="43.29243" lon="-0.97607">
        <ele>195.28</ele>
        <time>2021-08-20T12:22:04Z</time>
      </trkpt>
      <trkpt lat="43.29233" lon="-0.97638">
        <ele>195.28</ele>
        <time>2021-08-20T12:22:11Z</time>
      </trkpt>
      <trkpt lat="43.29231" lon="-0.97642">
        <ele>195.28</ele>
        <time>2021-08-20T12:22:12Z</time>
      </trkpt>
      <trkpt lat="43.29229" lon="-0.97647">
        <ele>195.28</ele>
        <time>2021-08-20T12:22:13Z</time>
      </trkpt>
      <trkpt lat="43.29226" lon="-0.97652">
        <ele>195.28</ele>
        <time>2021-08-20T12:22:14Z</time>
      </trkpt>
      <trkpt lat="43.29222" lon="-0.97656">
        <ele>194.32</ele>
        <time>2021-08-20T12:22:15Z</time>
      </trkpt>
      <trkpt lat="43.29218" lon="-0.9766">
        <ele>194.32</ele>
        <time>2021-08-20T12:22:16Z</time>
      </trkpt>
      <trkpt lat="43.29205" lon="-0.97671">
        <ele>191.44</ele>
        <time>2021-08-20T12:22:19Z</time>
      </trkpt>
      <trkpt lat="43.29201" lon="-0.97674">
        <ele>190.96</ele>
        <time>2021-08-20T12:22:20Z</time>
      </trkpt>
      <trkpt lat="43.29197" lon="-0.97678">
        <ele>190</ele>
        <time>2021-08-20T12:22:21Z</time>
      </trkpt>
      <trkpt lat="43.29195" lon="-0.97683">
        <ele>189.52</ele>
        <time>2021-08-20T12:22:22Z</time>
      </trkpt>
      <trkpt lat="43.29196" lon="-0.97688">
        <ele>188.56</ele>
        <time>2021-08-20T12:22:23Z</time>
      </trkpt>
      <trkpt lat="43.29197" lon="-0.97695">
        <ele>187.59</ele>
        <time>2021-08-20T12:22:24Z</time>
      </trkpt>
      <trkpt lat="43.29201" lon="-0.977">
        <ele>187.11</ele>
        <time>2021-08-20T12:22:25Z</time>
      </trkpt>
      <trkpt lat="43.29205" lon="-0.97705">
        <ele>186.63</ele>
        <time>2021-08-20T12:22:26Z</time>
      </trkpt>
      <trkpt lat="43.2921" lon="-0.9771">
        <ele>186.15</ele>
        <time>2021-08-20T12:22:27Z</time>
      </trkpt>
      <trkpt lat="43.2922" lon="-0.97722">
        <ele>185.19</ele>
        <time>2021-08-20T12:22:29Z</time>
      </trkpt>
      <trkpt lat="43.29229" lon="-0.97736">
        <ele>184.23</ele>
        <time>2021-08-20T12:22:31Z</time>
      </trkpt>
      <trkpt lat="43.29252" lon="-0.97779">
        <ele>180.87</ele>
        <time>2021-08-20T12:22:36Z</time>
      </trkpt>
      <trkpt lat="43.29261" lon="-0.97795">
        <ele>180.38</ele>
        <time>2021-08-20T12:22:38Z</time>
      </trkpt>
      <trkpt lat="43.29268" lon="-0.97809">
        <ele>180.38</ele>
        <time>2021-08-20T12:22:40Z</time>
      </trkpt>
      <trkpt lat="43.29269" lon="-0.97816">
        <ele>179.9</ele>
        <time>2021-08-20T12:22:41Z</time>
      </trkpt>
      <trkpt lat="43.29269" lon="-0.97822">
        <ele>179.9</ele>
        <time>2021-08-20T12:22:42Z</time>
      </trkpt>
      <trkpt lat="43.29267" lon="-0.97827">
        <ele>179.9</ele>
        <time>2021-08-20T12:22:43Z</time>
      </trkpt>
      <trkpt lat="43.29264" lon="-0.97831">
        <ele>180.38</ele>
        <time>2021-08-20T12:22:44Z</time>
      </trkpt>
      <trkpt lat="43.29255" lon="-0.97851">
        <ele>177.98</ele>
        <time>2021-08-20T12:22:47Z</time>
      </trkpt>
      <trkpt lat="43.29252" lon="-0.97861">
        <ele>175.1</ele>
        <time>2021-08-20T12:22:48Z</time>
      </trkpt>
      <trkpt lat="43.29245" lon="-0.97883">
        <ele>171.73</ele>
        <time>2021-08-20T12:22:50Z</time>
      </trkpt>
      <trkpt lat="43.2924" lon="-0.97893">
        <ele>170.29</ele>
        <time>2021-08-20T12:22:51Z</time>
      </trkpt>
      <trkpt lat="43.29234" lon="-0.97901">
        <ele>168.85</ele>
        <time>2021-08-20T12:22:52Z</time>
      </trkpt>
      <trkpt lat="43.29202" lon="-0.9793">
        <ele>165.96</ele>
        <time>2021-08-20T12:22:56Z</time>
      </trkpt>
      <trkpt lat="43.29193" lon="-0.97934">
        <ele>164.52</ele>
        <time>2021-08-20T12:22:57Z</time>
      </trkpt>
      <trkpt lat="43.29184" lon="-0.97936">
        <ele>163.08</ele>
        <time>2021-08-20T12:22:58Z</time>
      </trkpt>
      <trkpt lat="43.29164" lon="-0.9794">
        <ele>159.24</ele>
        <time>2021-08-20T12:23:00Z</time>
      </trkpt>
      <trkpt lat="43.29141" lon="-0.97943">
        <ele>155.87</ele>
        <time>2021-08-20T12:23:02Z</time>
      </trkpt>
      <trkpt lat="43.29111" lon="-0.97947">
        <ele>151.54</ele>
        <time>2021-08-20T12:23:05Z</time>
      </trkpt>
      <trkpt lat="43.29101" lon="-0.9795">
        <ele>150.1</ele>
        <time>2021-08-20T12:23:06Z</time>
      </trkpt>
      <trkpt lat="43.2908" lon="-0.97959">
        <ele>145.78</ele>
        <time>2021-08-20T12:23:08Z</time>
      </trkpt>
      <trkpt lat="43.29058" lon="-0.97968">
        <ele>141.93</ele>
        <time>2021-08-20T12:23:10Z</time>
      </trkpt>
      <trkpt lat="43.29039" lon="-0.97977">
        <ele>140.49</ele>
        <time>2021-08-20T12:23:12Z</time>
      </trkpt>
      <trkpt lat="43.2903" lon="-0.97983">
        <ele>139.53</ele>
        <time>2021-08-20T12:23:13Z</time>
      </trkpt>
      <trkpt lat="43.29023" lon="-0.97991">
        <ele>140.01</ele>
        <time>2021-08-20T12:23:14Z</time>
      </trkpt>
      <trkpt lat="43.28995" lon="-0.98032">
        <ele>136.16</ele>
        <time>2021-08-20T12:23:18Z</time>
      </trkpt>
      <trkpt lat="43.2899" lon="-0.98043">
        <ele>135.68</ele>
        <time>2021-08-20T12:23:19Z</time>
      </trkpt>
      <trkpt lat="43.28981" lon="-0.9807">
        <ele>131.36</ele>
        <time>2021-08-20T12:23:21Z</time>
      </trkpt>
      <trkpt lat="43.28975" lon="-0.98084">
        <ele>131.36</ele>
        <time>2021-08-20T12:23:22Z</time>
      </trkpt>
      <trkpt lat="43.2897" lon="-0.98095">
        <ele>130.4</ele>
        <time>2021-08-20T12:23:23Z</time>
      </trkpt>
      <trkpt lat="43.28957" lon="-0.98118">
        <ele>129.43</ele>
        <time>2021-08-20T12:23:25Z</time>
      </trkpt>
      <trkpt lat="43.28911" lon="-0.98179">
        <ele>127.03</ele>
        <time>2021-08-20T12:23:31Z</time>
      </trkpt>
      <trkpt lat="43.28851" lon="-0.98238">
        <ele>123.67</ele>
        <time>2021-08-20T12:23:38Z</time>
      </trkpt>
      <trkpt lat="43.28816" lon="-0.9827">
        <ele>121.74</ele>
        <time>2021-08-20T12:23:42Z</time>
      </trkpt>
      <trkpt lat="43.28773" lon="-0.98303">
        <ele>119.82</ele>
        <time>2021-08-20T12:23:47Z</time>
      </trkpt>
      <trkpt lat="43.28766" lon="-0.98312">
        <ele>119.34</ele>
        <time>2021-08-20T12:23:48Z</time>
      </trkpt>
      <trkpt lat="43.28752" lon="-0.98332">
        <ele>118.86</ele>
        <time>2021-08-20T12:23:50Z</time>
      </trkpt>
      <trkpt lat="43.28747" lon="-0.98344">
        <ele>118.86</ele>
        <time>2021-08-20T12:23:51Z</time>
      </trkpt>
      <trkpt lat="43.28743" lon="-0.98356">
        <ele>117.9</ele>
        <time>2021-08-20T12:23:52Z</time>
      </trkpt>
      <trkpt lat="43.28739" lon="-0.98367">
        <ele>117.9</ele>
        <time>2021-08-20T12:23:53Z</time>
      </trkpt>
      <trkpt lat="43.28737" lon="-0.98379">
        <ele>117.9</ele>
        <time>2021-08-20T12:23:54Z</time>
      </trkpt>
      <trkpt lat="43.28735" lon="-0.9839">
        <ele>117.42</ele>
        <time>2021-08-20T12:23:55Z</time>
      </trkpt>
      <trkpt lat="43.28734" lon="-0.98401">
        <ele>117.9</ele>
        <time>2021-08-20T12:23:56Z</time>
      </trkpt>
      <trkpt lat="43.28728" lon="-0.98435">
        <ele>115.98</ele>
        <time>2021-08-20T12:23:59Z</time>
      </trkpt>
      <trkpt lat="43.28724" lon="-0.98446">
        <ele>115.01</ele>
        <time>2021-08-20T12:24:00Z</time>
      </trkpt>
      <trkpt lat="43.28709" lon="-0.98507">
        <ele>112.13</ele>
        <time>2021-08-20T12:24:05Z</time>
      </trkpt>
      <trkpt lat="43.28692" lon="-0.98572">
        <ele>112.13</ele>
        <time>2021-08-20T12:24:11Z</time>
      </trkpt>
      <trkpt lat="43.28691" lon="-0.98581">
        <ele>113.57</ele>
        <time>2021-08-20T12:24:12Z</time>
      </trkpt>
      <trkpt lat="43.28691" lon="-0.98589">
        <ele>114.05</ele>
        <time>2021-08-20T12:24:13Z</time>
      </trkpt>
      <trkpt lat="43.28692" lon="-0.98596">
        <ele>114.53</ele>
        <time>2021-08-20T12:24:14Z</time>
      </trkpt>
      <trkpt lat="43.28694" lon="-0.98603">
        <ele>114.53</ele>
        <time>2021-08-20T12:24:15Z</time>
      </trkpt>
      <trkpt lat="43.28695" lon="-0.9861">
        <ele>115.01</ele>
        <time>2021-08-20T12:24:16Z</time>
      </trkpt>
      <trkpt lat="43.287" lon="-0.98657">
        <ele>115.5</ele>
        <time>2021-08-20T12:24:24Z</time>
      </trkpt>
      <trkpt lat="43.28701" lon="-0.98718">
        <ele>113.09</ele>
        <time>2021-08-20T12:24:32Z</time>
      </trkpt>
      <trkpt lat="43.28704" lon="-0.9876">
        <ele>111.17</ele>
        <time>2021-08-20T12:24:36Z</time>
      </trkpt>
      <trkpt lat="43.28705" lon="-0.98782">
        <ele>109.73</ele>
        <time>2021-08-20T12:24:38Z</time>
      </trkpt>
      <trkpt lat="43.28704" lon="-0.98793">
        <ele>109.73</ele>
        <time>2021-08-20T12:24:39Z</time>
      </trkpt>
      <trkpt lat="43.28702" lon="-0.98803">
        <ele>109.25</ele>
        <time>2021-08-20T12:24:40Z</time>
      </trkpt>
      <trkpt lat="43.28696" lon="-0.98838">
        <ele>105.88</ele>
        <time>2021-08-20T12:24:43Z</time>
      </trkpt>
      <trkpt lat="43.2869" lon="-0.98867">
        <ele>102.52</ele>
        <time>2021-08-20T12:24:45Z</time>
      </trkpt>
      <trkpt lat="43.28685" lon="-0.98897">
        <ele>99.15</ele>
        <time>2021-08-20T12:24:47Z</time>
      </trkpt>
      <trkpt lat="43.28678" lon="-0.98939">
        <ele>97.23</ele>
        <time>2021-08-20T12:24:50Z</time>
      </trkpt>
      <trkpt lat="43.28671" lon="-0.98978">
        <ele>97.71</ele>
        <time>2021-08-20T12:24:54Z</time>
      </trkpt>
      <trkpt lat="43.2867" lon="-0.98985">
        <ele>97.23</ele>
        <time>2021-08-20T12:24:55Z</time>
      </trkpt>
      <trkpt lat="43.28671" lon="-0.9899">
        <ele>97.23</ele>
        <time>2021-08-20T12:24:56Z</time>
      </trkpt>
      <trkpt lat="43.28673" lon="-0.98995">
        <ele>97.23</ele>
        <time>2021-08-20T12:24:57Z</time>
      </trkpt>
      <trkpt lat="43.28676" lon="-0.98998">
        <ele>97.23</ele>
        <time>2021-08-20T12:24:58Z</time>
      </trkpt>
      <trkpt lat="43.28678" lon="-0.98999">
        <ele>97.23</ele>
        <time>2021-08-20T12:24:59Z</time>
      </trkpt>
      <trkpt lat="43.28682" lon="-0.99001">
        <ele>97.23</ele>
        <time>2021-08-20T12:25:00Z</time>
      </trkpt>
      <trkpt lat="43.28698" lon="-0.99009">
        <ele>96.75</ele>
        <time>2021-08-20T12:25:04Z</time>
      </trkpt>
      <trkpt lat="43.28701" lon="-0.99013">
        <ele>96.75</ele>
        <time>2021-08-20T12:25:05Z</time>
      </trkpt>
      <trkpt lat="43.28705" lon="-0.99017">
        <ele>96.75</ele>
        <time>2021-08-20T12:25:06Z</time>
      </trkpt>
      <trkpt lat="43.28708" lon="-0.99021">
        <ele>96.75</ele>
        <time>2021-08-20T12:25:07Z</time>
      </trkpt>
      <trkpt lat="43.28711" lon="-0.99025">
        <ele>96.75</ele>
        <time>2021-08-20T12:25:08Z</time>
      </trkpt>
      <trkpt lat="43.28713" lon="-0.9903">
        <ele>96.75</ele>
        <time>2021-08-20T12:25:09Z</time>
      </trkpt>
      <trkpt lat="43.28715" lon="-0.99035">
        <ele>96.75</ele>
        <time>2021-08-20T12:25:10Z</time>
      </trkpt>
      <trkpt lat="43.28741" lon="-0.99084">
        <ele>96.75</ele>
        <time>2021-08-20T12:25:19Z</time>
      </trkpt>
      <trkpt lat="43.28745" lon="-0.99089">
        <ele>96.75</ele>
        <time>2021-08-20T12:25:20Z</time>
      </trkpt>
      <trkpt lat="43.28749" lon="-0.99095">
        <ele>96.75</ele>
        <time>2021-08-20T12:25:21Z</time>
      </trkpt>
      <trkpt lat="43.28753" lon="-0.99101">
        <ele>96.75</ele>
        <time>2021-08-20T12:25:22Z</time>
      </trkpt>
      <trkpt lat="43.28756" lon="-0.99107">
        <ele>96.75</ele>
        <time>2021-08-20T12:25:23Z</time>
      </trkpt>
      <trkpt lat="43.28771" lon="-0.99135">
        <ele>98.19</ele>
        <time>2021-08-20T12:25:28Z</time>
      </trkpt>
      <trkpt lat="43.28773" lon="-0.99141">
        <ele>98.19</ele>
        <time>2021-08-20T12:25:29Z</time>
      </trkpt>
      <trkpt lat="43.28776" lon="-0.99146">
        <ele>98.19</ele>
        <time>2021-08-20T12:25:30Z</time>
      </trkpt>
      <trkpt lat="43.28815" lon="-0.99214">
        <ele>98.19</ele>
        <time>2021-08-20T12:25:42Z</time>
      </trkpt>
      <trkpt lat="43.28818" lon="-0.9922">
        <ele>98.19</ele>
        <time>2021-08-20T12:25:43Z</time>
      </trkpt>
      <trkpt lat="43.28821" lon="-0.99225">
        <ele>98.19</ele>
        <time>2021-08-20T12:25:44Z</time>
      </trkpt>
      <trkpt lat="43.28834" lon="-0.99248">
        <ele>98.19</ele>
        <time>2021-08-20T12:25:48Z</time>
      </trkpt>
      <trkpt lat="43.28837" lon="-0.99255">
        <ele>98.19</ele>
        <time>2021-08-20T12:25:49Z</time>
      </trkpt>
      <trkpt lat="43.28845" lon="-0.99275">
        <ele>98.19</ele>
        <time>2021-08-20T12:25:52Z</time>
      </trkpt>
      <trkpt lat="43.28852" lon="-0.99298">
        <ele>97.23</ele>
        <time>2021-08-20T12:25:55Z</time>
      </trkpt>
      <trkpt lat="43.28875" lon="-0.99364">
        <ele>95.31</ele>
        <time>2021-08-20T12:26:03Z</time>
      </trkpt>
      <trkpt lat="43.28902" lon="-0.99445">
        <ele>93.87</ele>
        <time>2021-08-20T12:26:12Z</time>
      </trkpt>
      <trkpt lat="43.28921" lon="-0.99501">
        <ele>92.9</ele>
        <time>2021-08-20T12:26:18Z</time>
      </trkpt>
      <trkpt lat="43.28944" lon="-0.99568">
        <ele>92.9</ele>
        <time>2021-08-20T12:26:26Z</time>
      </trkpt>
      <trkpt lat="43.28946" lon="-0.99576">
        <ele>92.9</ele>
        <time>2021-08-20T12:26:27Z</time>
      </trkpt>
      <trkpt lat="43.28948" lon="-0.99585">
        <ele>92.9</ele>
        <time>2021-08-20T12:26:28Z</time>
      </trkpt>
      <trkpt lat="43.28967" lon="-0.9964">
        <ele>92.9</ele>
        <time>2021-08-20T12:26:36Z</time>
      </trkpt>
      <trkpt lat="43.28987" lon="-0.99699">
        <ele>92.9</ele>
        <time>2021-08-20T12:26:44Z</time>
      </trkpt>
      <trkpt lat="43.29003" lon="-0.99741">
        <ele>91.46</ele>
        <time>2021-08-20T12:26:49Z</time>
      </trkpt>
      <trkpt lat="43.29008" lon="-0.99749">
        <ele>90.98</ele>
        <time>2021-08-20T12:26:50Z</time>
      </trkpt>
      <trkpt lat="43.29023" lon="-0.99773">
        <ele>89.54</ele>
        <time>2021-08-20T12:26:53Z</time>
      </trkpt>
      <trkpt lat="43.29062" lon="-0.99813">
        <ele>90.02</ele>
        <time>2021-08-20T12:27:00Z</time>
      </trkpt>
      <trkpt lat="43.29087" lon="-0.99839">
        <ele>90.02</ele>
        <time>2021-08-20T12:27:05Z</time>
      </trkpt>
      <trkpt lat="43.29092" lon="-0.99844">
        <ele>90.02</ele>
        <time>2021-08-20T12:27:06Z</time>
      </trkpt>
      <trkpt lat="43.29102" lon="-0.99854">
        <ele>90.02</ele>
        <time>2021-08-20T12:27:08Z</time>
      </trkpt>
      <trkpt lat="43.29112" lon="-0.99862">
        <ele>90.02</ele>
        <time>2021-08-20T12:27:10Z</time>
      </trkpt>
      <trkpt lat="43.29142" lon="-0.9989">
        <ele>90.02</ele>
        <time>2021-08-20T12:27:17Z</time>
      </trkpt>
      <trkpt lat="43.29174" lon="-0.99922">
        <ele>90.02</ele>
        <time>2021-08-20T12:27:25Z</time>
      </trkpt>
      <trkpt lat="43.29205" lon="-0.99949">
        <ele>90.02</ele>
        <time>2021-08-20T12:27:32Z</time>
      </trkpt>
      <trkpt lat="43.2922" lon="-0.99959">
        <ele>89.06</ele>
        <time>2021-08-20T12:27:35Z</time>
      </trkpt>
      <trkpt lat="43.29224" lon="-0.99964">
        <ele>89.06</ele>
        <time>2021-08-20T12:27:36Z</time>
      </trkpt>
      <trkpt lat="43.29228" lon="-0.9997">
        <ele>89.06</ele>
        <time>2021-08-20T12:27:37Z</time>
      </trkpt>
      <trkpt lat="43.2923" lon="-0.99974">
        <ele>89.06</ele>
        <time>2021-08-20T12:27:38Z</time>
      </trkpt>
      <trkpt lat="43.29233" lon="-0.99979">
        <ele>89.06</ele>
        <time>2021-08-20T12:27:39Z</time>
      </trkpt>
      <trkpt lat="43.29235" lon="-0.99984">
        <ele>89.06</ele>
        <time>2021-08-20T12:27:40Z</time>
      </trkpt>
      <trkpt lat="43.29237" lon="-0.99989">
        <ele>89.06</ele>
        <time>2021-08-20T12:27:41Z</time>
      </trkpt>
      <trkpt lat="43.29239" lon="-0.99993">
        <ele>89.06</ele>
        <time>2021-08-20T12:27:42Z</time>
      </trkpt>
      <trkpt lat="43.29242" lon="-1">
        <ele>90.5</ele>
        <time>2021-08-20T12:27:44Z</time>
      </trkpt>
      <trkpt lat="43.29246" lon="-1.00011">
        <ele>91.46</ele>
        <time>2021-08-20T12:27:48Z</time>
      </trkpt>
      <trkpt lat="43.29246" lon="-1.00013">
        <ele>91.46</ele>
        <time>2021-08-20T12:27:49Z</time>
      </trkpt>
      <trkpt lat="43.29246" lon="-1.00016">
        <ele>91.46</ele>
        <time>2021-08-20T12:27:50Z</time>
      </trkpt>
      <trkpt lat="43.2925" lon="-1.00036">
        <ele>92.9</ele>
        <time>2021-08-20T12:27:59Z</time>
      </trkpt>
      <trkpt lat="43.29251" lon="-1.00037">
        <ele>92.9</ele>
        <time>2021-08-20T12:28:06Z</time>
      </trkpt>
      <trkpt lat="43.2925" lon="-1.00036">
        <ele>92.9</ele>
        <time>2021-08-20T12:28:16Z</time>
      </trkpt>
      <trkpt lat="43.2925" lon="-1.00035">
        <ele>92.9</ele>
        <time>2021-08-20T12:28:24Z</time>
      </trkpt>
      <trkpt lat="43.2925" lon="-1.00035">
        <ele>92.9</ele>
        <time>2021-08-20T12:28:50Z</time>
      </trkpt>
      <trkpt lat="43.29249" lon="-1.00034">
        <ele>92.9</ele>
        <time>2021-08-20T12:29:19Z</time>
      </trkpt>
      <trkpt lat="43.29249" lon="-1.00032">
        <ele>92.9</ele>
        <time>2021-08-20T12:29:47Z</time>
      </trkpt>
      <trkpt lat="43.29247" lon="-1.00034">
        <ele>92.9</ele>
        <time>2021-08-20T12:30:18Z</time>
      </trkpt>
      <trkpt lat="43.29248" lon="-1.00035">
        <ele>92.9</ele>
        <time>2021-08-20T12:30:45Z</time>
      </trkpt>
      <trkpt lat="43.29248" lon="-1.00035">
        <ele>92.9</ele>
        <time>2021-08-20T12:31:09Z</time>
      </trkpt>
      <trkpt lat="43.29249" lon="-1.00034">
        <ele>92.9</ele>
        <time>2021-08-20T12:31:25Z</time>
      </trkpt>
      <trkpt lat="43.29249" lon="-1.00033">
        <ele>92.9</ele>
        <time>2021-08-20T12:31:35Z</time>
      </trkpt>
      <trkpt lat="43.2925" lon="-1.00035">
        <ele>92.42</ele>
        <time>2021-08-20T12:32:01Z</time>
      </trkpt>
      <trkpt lat="43.2925" lon="-1.00036">
        <ele>92.42</ele>
        <time>2021-08-20T12:32:24Z</time>
      </trkpt>
      <trkpt lat="43.29251" lon="-1.00036">
        <ele>92.42</ele>
        <time>2021-08-20T12:32:47Z</time>
      </trkpt>
      <trkpt lat="43.29252" lon="-1.00036">
        <ele>92.42</ele>
        <time>2021-08-20T12:33:12Z</time>
      </trkpt>
      <trkpt lat="43.2925" lon="-1.00037">
        <ele>92.42</ele>
        <time>2021-08-20T12:33:39Z</time>
      </trkpt>
      <trkpt lat="43.29249" lon="-1.00037">
        <ele>92.42</ele>
        <time>2021-08-20T12:34:09Z</time>
      </trkpt>
      <trkpt lat="43.2925" lon="-1.0004">
        <ele>91.94</ele>
        <time>2021-08-20T12:34:37Z</time>
      </trkpt>
      <trkpt lat="43.29249" lon="-1.0004">
        <ele>91.94</ele>
        <time>2021-08-20T12:35:07Z</time>
      </trkpt>
      <trkpt lat="43.29249" lon="-1.00037">
        <ele>91.94</ele>
        <time>2021-08-20T12:35:33Z</time>
      </trkpt>
      <trkpt lat="43.29249" lon="-1.00035">
        <ele>91.94</ele>
        <time>2021-08-20T12:36:04Z</time>
      </trkpt>
      <trkpt lat="43.29249" lon="-1.00033">
        <ele>91.94</ele>
        <time>2021-08-20T12:36:21Z</time>
      </trkpt>
      <trkpt lat="43.29249" lon="-1.00033">
        <ele>91.94</ele>
        <time>2021-08-20T12:36:29Z</time>
      </trkpt>
      <trkpt lat="43.29251" lon="-1.00038">
        <ele>91.94</ele>
        <time>2021-08-20T12:36:55Z</time>
      </trkpt>
      <trkpt lat="43.2925" lon="-1.00037">
        <ele>92.42</ele>
        <time>2021-08-20T12:37:23Z</time>
      </trkpt>
      <trkpt lat="43.29251" lon="-1.00036">
        <ele>91.94</ele>
        <time>2021-08-20T12:37:52Z</time>
      </trkpt>
      <trkpt lat="43.29251" lon="-1.00038">
        <ele>91.94</ele>
        <time>2021-08-20T12:38:18Z</time>
      </trkpt>
      <trkpt lat="43.2925" lon="-1.00037">
        <ele>91.94</ele>
        <time>2021-08-20T12:38:49Z</time>
      </trkpt>
      <trkpt lat="43.2925" lon="-1.00038">
        <ele>91.94</ele>
        <time>2021-08-20T12:39:16Z</time>
      </trkpt>
      <trkpt lat="43.2925" lon="-1.00038">
        <ele>91.94</ele>
        <time>2021-08-20T12:39:32Z</time>
      </trkpt>
      <trkpt lat="43.29251" lon="-1.00037">
        <ele>91.94</ele>
        <time>2021-08-20T12:39:57Z</time>
      </trkpt>
      <trkpt lat="43.2925" lon="-1.00038">
        <ele>91.94</ele>
        <time>2021-08-20T12:40:20Z</time>
      </trkpt>
      <trkpt lat="43.29249" lon="-1.00037">
        <ele>91.94</ele>
        <time>2021-08-20T12:40:42Z</time>
      </trkpt>
      <trkpt lat="43.29248" lon="-1.00037">
        <ele>91.94</ele>
        <time>2021-08-20T12:41:00Z</time>
      </trkpt>
      <trkpt lat="43.29249" lon="-1.00038">
        <ele>91.94</ele>
        <time>2021-08-20T12:41:19Z</time>
      </trkpt>
      <trkpt lat="43.29248" lon="-1.00039">
        <ele>91.46</ele>
        <time>2021-08-20T12:41:24Z</time>
      </trkpt>
      <trkpt lat="43.29249" lon="-1.00037">
        <ele>91.94</ele>
        <time>2021-08-20T12:41:44Z</time>
      </trkpt>
      <trkpt lat="43.29249" lon="-1.00037">
        <ele>91.94</ele>
        <time>2021-08-20T12:42:09Z</time>
      </trkpt>
      <trkpt lat="43.29249" lon="-1.00036">
        <ele>91.94</ele>
        <time>2021-08-20T12:42:35Z</time>
      </trkpt>
      <trkpt lat="43.29249" lon="-1.00036">
        <ele>91.94</ele>
        <time>2021-08-20T12:42:55Z</time>
      </trkpt>
      <trkpt lat="43.29249" lon="-1.00036">
        <ele>91.94</ele>
        <time>2021-08-20T12:43:15Z</time>
      </trkpt>
      <trkpt lat="43.29249" lon="-1.00037">
        <ele>91.94</ele>
        <time>2021-08-20T12:43:29Z</time>
      </trkpt>
      <trkpt lat="43.2925" lon="-1.00037">
        <ele>91.94</ele>
        <time>2021-08-20T12:43:54Z</time>
      </trkpt>
      <trkpt lat="43.29251" lon="-1.00036">
        <ele>91.94</ele>
        <time>2021-08-20T12:44:19Z</time>
      </trkpt>
      <trkpt lat="43.2925" lon="-1.00036">
        <ele>91.94</ele>
        <time>2021-08-20T12:44:48Z</time>
      </trkpt>
      <trkpt lat="43.29249" lon="-1.00037">
        <ele>91.94</ele>
        <time>2021-08-20T12:45:05Z</time>
      </trkpt>
      <trkpt lat="43.2925" lon="-1.00037">
        <ele>91.94</ele>
        <time>2021-08-20T12:45:30Z</time>
      </trkpt>
      <trkpt lat="43.29249" lon="-1.00037">
        <ele>91.94</ele>
        <time>2021-08-20T12:45:49Z</time>
      </trkpt>
      <trkpt lat="43.2925" lon="-1.00038">
        <ele>91.94</ele>
        <time>2021-08-20T12:46:13Z</time>
      </trkpt>
      <trkpt lat="43.2925" lon="-1.00038">
        <ele>91.94</ele>
        <time>2021-08-20T12:46:32Z</time>
      </trkpt>
      <trkpt lat="43.29249" lon="-1.00035">
        <ele>91.94</ele>
        <time>2021-08-20T12:46:57Z</time>
      </trkpt>
      <trkpt lat="43.2925" lon="-1.00034">
        <ele>92.42</ele>
        <time>2021-08-20T12:47:18Z</time>
      </trkpt>
      <trkpt lat="43.29251" lon="-1.00038">
        <ele>92.9</ele>
        <time>2021-08-20T12:47:31Z</time>
      </trkpt>
      <trkpt lat="43.29251" lon="-1.00041">
        <ele>92.9</ele>
        <time>2021-08-20T12:47:39Z</time>
      </trkpt>
      <trkpt lat="43.29251" lon="-1.00041">
        <ele>93.39</ele>
        <time>2021-08-20T12:47:52Z</time>
      </trkpt>
      <trkpt lat="43.29251" lon="-1.00042">
        <ele>93.39</ele>
        <time>2021-08-20T12:48:03Z</time>
      </trkpt>
      <trkpt lat="43.29255" lon="-1.00053">
        <ele>93.87</ele>
        <time>2021-08-20T12:48:11Z</time>
      </trkpt>
      <trkpt lat="43.29255" lon="-1.00069">
        <ele>95.31</ele>
        <time>2021-08-20T12:48:21Z</time>
      </trkpt>
      <trkpt lat="43.29254" lon="-1.00077">
        <ele>95.31</ele>
        <time>2021-08-20T12:48:29Z</time>
      </trkpt>
      <trkpt lat="43.29253" lon="-1.00078">
        <ele>95.31</ele>
        <time>2021-08-20T12:48:34Z</time>
      </trkpt>
      <trkpt lat="43.29249" lon="-1.00085">
        <ele>95.79</ele>
        <time>2021-08-20T12:48:38Z</time>
      </trkpt>
      <trkpt lat="43.29248" lon="-1.00086">
        <ele>95.79</ele>
        <time>2021-08-20T12:48:39Z</time>
      </trkpt>
      <trkpt lat="43.29247" lon="-1.00088">
        <ele>95.79</ele>
        <time>2021-08-20T12:48:40Z</time>
      </trkpt>
      <trkpt lat="43.29246" lon="-1.0009">
        <ele>96.27</ele>
        <time>2021-08-20T12:48:41Z</time>
      </trkpt>
      <trkpt lat="43.29245" lon="-1.00092">
        <ele>96.27</ele>
        <time>2021-08-20T12:48:42Z</time>
      </trkpt>
      <trkpt lat="43.29233" lon="-1.0011">
        <ele>97.71</ele>
        <time>2021-08-20T12:48:52Z</time>
      </trkpt>
      <trkpt lat="43.29221" lon="-1.00128">
        <ele>99.15</ele>
        <time>2021-08-20T12:49:01Z</time>
      </trkpt>
      <trkpt lat="43.29211" lon="-1.00146">
        <ele>100.11</ele>
        <time>2021-08-20T12:49:09Z</time>
      </trkpt>
      <trkpt lat="43.29199" lon="-1.00162">
        <ele>101.08</ele>
        <time>2021-08-20T12:49:17Z</time>
      </trkpt>
      <trkpt lat="43.29188" lon="-1.0018">
        <ele>102.04</ele>
        <time>2021-08-20T12:49:25Z</time>
      </trkpt>
      <trkpt lat="43.29177" lon="-1.00196">
        <ele>103</ele>
        <time>2021-08-20T12:49:33Z</time>
      </trkpt>
      <trkpt lat="43.29166" lon="-1.00213">
        <ele>104.44</ele>
        <time>2021-08-20T12:49:41Z</time>
      </trkpt>
      <trkpt lat="43.29152" lon="-1.00234">
        <ele>105.88</ele>
        <time>2021-08-20T12:49:51Z</time>
      </trkpt>
      <trkpt lat="43.29141" lon="-1.00254">
        <ele>107.32</ele>
        <time>2021-08-20T12:50:00Z</time>
      </trkpt>
      <trkpt lat="43.29134" lon="-1.00261">
        <ele>107.81</ele>
        <time>2021-08-20T12:50:04Z</time>
      </trkpt>
      <trkpt lat="43.29132" lon="-1.00263">
        <ele>108.29</ele>
        <time>2021-08-20T12:50:05Z</time>
      </trkpt>
      <trkpt lat="43.29131" lon="-1.00265">
        <ele>108.29</ele>
        <time>2021-08-20T12:50:06Z</time>
      </trkpt>
      <trkpt lat="43.2913" lon="-1.00268">
        <ele>108.29</ele>
        <time>2021-08-20T12:50:07Z</time>
      </trkpt>
      <trkpt lat="43.2913" lon="-1.0027">
        <ele>108.29</ele>
        <time>2021-08-20T12:50:08Z</time>
      </trkpt>
      <trkpt lat="43.29128" lon="-1.00272">
        <ele>108.77</ele>
        <time>2021-08-20T12:50:09Z</time>
      </trkpt>
      <trkpt lat="43.29127" lon="-1.00274">
        <ele>109.25</ele>
        <time>2021-08-20T12:50:10Z</time>
      </trkpt>
      <trkpt lat="43.29125" lon="-1.00276">
        <ele>109.25</ele>
        <time>2021-08-20T12:50:11Z</time>
      </trkpt>
      <trkpt lat="43.2911" lon="-1.00302">
        <ele>110.21</ele>
        <time>2021-08-20T12:50:22Z</time>
      </trkpt>
      <trkpt lat="43.29099" lon="-1.00322">
        <ele>111.65</ele>
        <time>2021-08-20T12:50:30Z</time>
      </trkpt>
      <trkpt lat="43.29088" lon="-1.00345">
        <ele>112.61</ele>
        <time>2021-08-20T12:50:38Z</time>
      </trkpt>
      <trkpt lat="43.29074" lon="-1.00371">
        <ele>113.57</ele>
        <time>2021-08-20T12:50:47Z</time>
      </trkpt>
      <trkpt lat="43.29056" lon="-1.00405">
        <ele>114.05</ele>
        <time>2021-08-20T12:50:57Z</time>
      </trkpt>
      <trkpt lat="43.29046" lon="-1.00436">
        <ele>115.01</ele>
        <time>2021-08-20T12:51:05Z</time>
      </trkpt>
      <trkpt lat="43.29044" lon="-1.00464">
        <ele>116.46</ele>
        <time>2021-08-20T12:51:14Z</time>
      </trkpt>
      <trkpt lat="43.29043" lon="-1.00491">
        <ele>117.9</ele>
        <time>2021-08-20T12:51:23Z</time>
      </trkpt>
      <trkpt lat="43.29043" lon="-1.00521">
        <ele>119.34</ele>
        <time>2021-08-20T12:51:33Z</time>
      </trkpt>
      <trkpt lat="43.29043" lon="-1.0055">
        <ele>120.78</ele>
        <time>2021-08-20T12:51:43Z</time>
      </trkpt>
      <trkpt lat="43.29045" lon="-1.00579">
        <ele>122.71</ele>
        <time>2021-08-20T12:51:53Z</time>
      </trkpt>
      <trkpt lat="43.29048" lon="-1.00605">
        <ele>124.15</ele>
        <time>2021-08-20T12:52:02Z</time>
      </trkpt>
      <trkpt lat="43.29053" lon="-1.00637">
        <ele>126.07</ele>
        <time>2021-08-20T12:52:13Z</time>
      </trkpt>
      <trkpt lat="43.29058" lon="-1.0067">
        <ele>127.51</ele>
        <time>2021-08-20T12:52:24Z</time>
      </trkpt>
      <trkpt lat="43.29064" lon="-1.00693">
        <ele>128.95</ele>
        <time>2021-08-20T12:52:32Z</time>
      </trkpt>
      <trkpt lat="43.29072" lon="-1.0072">
        <ele>130.4</ele>
        <time>2021-08-20T12:52:41Z</time>
      </trkpt>
      <trkpt lat="43.29077" lon="-1.00737">
        <ele>131.84</ele>
        <time>2021-08-20T12:52:47Z</time>
      </trkpt>
      <trkpt lat="43.29088" lon="-1.00759">
        <ele>133.28</ele>
        <time>2021-08-20T12:52:55Z</time>
      </trkpt>
      <trkpt lat="43.29096" lon="-1.00774">
        <ele>134.72</ele>
        <time>2021-08-20T12:53:01Z</time>
      </trkpt>
      <trkpt lat="43.29104" lon="-1.00796">
        <ele>135.2</ele>
        <time>2021-08-20T12:53:08Z</time>
      </trkpt>
      <trkpt lat="43.29104" lon="-1.00822">
        <ele>136.64</ele>
        <time>2021-08-20T12:53:17Z</time>
      </trkpt>
      <trkpt lat="43.29102" lon="-1.00844">
        <ele>138.09</ele>
        <time>2021-08-20T12:53:24Z</time>
      </trkpt>
      <trkpt lat="43.291" lon="-1.00878">
        <ele>140.01</ele>
        <time>2021-08-20T12:53:34Z</time>
      </trkpt>
      <trkpt lat="43.29103" lon="-1.0091">
        <ele>140.49</ele>
        <time>2021-08-20T12:53:42Z</time>
      </trkpt>
      <trkpt lat="43.2911" lon="-1.00955">
        <ele>140.49</ele>
        <time>2021-08-20T12:53:51Z</time>
      </trkpt>
      <trkpt lat="43.29111" lon="-1.00961">
        <ele>140.49</ele>
        <time>2021-08-20T12:53:52Z</time>
      </trkpt>
      <trkpt lat="43.29113" lon="-1.00977">
        <ele>140.01</ele>
        <time>2021-08-20T12:53:55Z</time>
      </trkpt>
      <trkpt lat="43.29114" lon="-1.00983">
        <ele>140.01</ele>
        <time>2021-08-20T12:53:56Z</time>
      </trkpt>
      <trkpt lat="43.29115" lon="-1.00988">
        <ele>140.01</ele>
        <time>2021-08-20T12:53:57Z</time>
      </trkpt>
      <trkpt lat="43.29122" lon="-1.01036">
        <ele>140.01</ele>
        <time>2021-08-20T12:54:05Z</time>
      </trkpt>
      <trkpt lat="43.29124" lon="-1.0105">
        <ele>139.05</ele>
        <time>2021-08-20T12:54:07Z</time>
      </trkpt>
      <trkpt lat="43.29125" lon="-1.01057">
        <ele>139.05</ele>
        <time>2021-08-20T12:54:08Z</time>
      </trkpt>
      <trkpt lat="43.29126" lon="-1.01065">
        <ele>138.57</ele>
        <time>2021-08-20T12:54:09Z</time>
      </trkpt>
      <trkpt lat="43.29127" lon="-1.01072">
        <ele>138.57</ele>
        <time>2021-08-20T12:54:10Z</time>
      </trkpt>
      <trkpt lat="43.29135" lon="-1.01141">
        <ele>135.68</ele>
        <time>2021-08-20T12:54:18Z</time>
      </trkpt>
      <trkpt lat="43.29143" lon="-1.01178">
        <ele>134.24</ele>
        <time>2021-08-20T12:54:22Z</time>
      </trkpt>
      <trkpt lat="43.29147" lon="-1.01185">
        <ele>134.24</ele>
        <time>2021-08-20T12:54:23Z</time>
      </trkpt>
      <trkpt lat="43.29151" lon="-1.01191">
        <ele>134.24</ele>
        <time>2021-08-20T12:54:24Z</time>
      </trkpt>
      <trkpt lat="43.29169" lon="-1.01208">
        <ele>133.76</ele>
        <time>2021-08-20T12:54:29Z</time>
      </trkpt>
      <trkpt lat="43.29173" lon="-1.0121">
        <ele>133.28</ele>
        <time>2021-08-20T12:54:30Z</time>
      </trkpt>
      <trkpt lat="43.29215" lon="-1.01224">
        <ele>130.4</ele>
        <time>2021-08-20T12:54:39Z</time>
      </trkpt>
      <trkpt lat="43.29231" lon="-1.01231">
        <ele>128.95</ele>
        <time>2021-08-20T12:54:44Z</time>
      </trkpt>
      <trkpt lat="43.29232" lon="-1.01233">
        <ele>128.95</ele>
        <time>2021-08-20T12:54:45Z</time>
      </trkpt>
      <trkpt lat="43.29232" lon="-1.01239">
        <ele>128.95</ele>
        <time>2021-08-20T12:54:47Z</time>
      </trkpt>
      <trkpt lat="43.29231" lon="-1.0125">
        <ele>128.95</ele>
        <time>2021-08-20T12:54:54Z</time>
      </trkpt>
      <trkpt lat="43.29232" lon="-1.01252">
        <ele>128.95</ele>
        <time>2021-08-20T12:55:01Z</time>
      </trkpt>
      <trkpt lat="43.29233" lon="-1.01252">
        <ele>128.95</ele>
        <time>2021-08-20T12:55:23Z</time>
      </trkpt>
      <trkpt lat="43.29233" lon="-1.01253">
        <ele>128.95</ele>
        <time>2021-08-20T12:55:46Z</time>
      </trkpt>
      <trkpt lat="43.29235" lon="-1.0125">
        <ele>128.95</ele>
        <time>2021-08-20T12:56:13Z</time>
      </trkpt>
      <trkpt lat="43.29234" lon="-1.01251">
        <ele>128.95</ele>
        <time>2021-08-20T12:56:50Z</time>
      </trkpt>
      <trkpt lat="43.29232" lon="-1.01251">
        <ele>128.95</ele>
        <time>2021-08-20T12:57:16Z</time>
      </trkpt>
      <trkpt lat="43.29233" lon="-1.01251">
        <ele>128.95</ele>
        <time>2021-08-20T12:57:52Z</time>
      </trkpt>
      <trkpt lat="43.29232" lon="-1.01251">
        <ele>128.95</ele>
        <time>2021-08-20T12:58:21Z</time>
      </trkpt>
      <trkpt lat="43.29232" lon="-1.01251">
        <ele>128.95</ele>
        <time>2021-08-20T12:58:46Z</time>
      </trkpt>
      <trkpt lat="43.29233" lon="-1.01252">
        <ele>128.95</ele>
        <time>2021-08-20T12:59:20Z</time>
      </trkpt>
      <trkpt lat="43.29233" lon="-1.01249">
        <ele>128.95</ele>
        <time>2021-08-20T12:59:53Z</time>
      </trkpt>
      <trkpt lat="43.29233" lon="-1.0125">
        <ele>128.95</ele>
        <time>2021-08-20T13:00:21Z</time>
      </trkpt>
      <trkpt lat="43.29231" lon="-1.0125">
        <ele>128.95</ele>
        <time>2021-08-20T13:00:39Z</time>
      </trkpt>
      <trkpt lat="43.29233" lon="-1.01249">
        <ele>128.95</ele>
        <time>2021-08-20T13:00:47Z</time>
      </trkpt>
      <trkpt lat="43.29233" lon="-1.01252">
        <ele>129.43</ele>
        <time>2021-08-20T13:01:18Z</time>
      </trkpt>
      <trkpt lat="43.29233" lon="-1.01251">
        <ele>129.43</ele>
        <time>2021-08-20T13:01:34Z</time>
      </trkpt>
      <trkpt lat="43.29233" lon="-1.01251">
        <ele>129.43</ele>
        <time>2021-08-20T13:01:48Z</time>
      </trkpt>
      <trkpt lat="43.29235" lon="-1.0125">
        <ele>129.43</ele>
        <time>2021-08-20T13:01:53Z</time>
      </trkpt>
      <trkpt lat="43.29241" lon="-1.01247">
        <ele>129.43</ele>
        <time>2021-08-20T13:01:57Z</time>
      </trkpt>
      <trkpt lat="43.29243" lon="-1.01245">
        <ele>129.43</ele>
        <time>2021-08-20T13:01:58Z</time>
      </trkpt>
      <trkpt lat="43.29246" lon="-1.01243">
        <ele>129.43</ele>
        <time>2021-08-20T13:01:59Z</time>
      </trkpt>
      <trkpt lat="43.29248" lon="-1.0124">
        <ele>128.95</ele>
        <time>2021-08-20T13:02:00Z</time>
      </trkpt>
      <trkpt lat="43.2925" lon="-1.01238">
        <ele>128.47</ele>
        <time>2021-08-20T13:02:01Z</time>
      </trkpt>
      <trkpt lat="43.29254" lon="-1.01236">
        <ele>128.47</ele>
        <time>2021-08-20T13:02:02Z</time>
      </trkpt>
      <trkpt lat="43.29258" lon="-1.01235">
        <ele>127.99</ele>
        <time>2021-08-20T13:02:03Z</time>
      </trkpt>
      <trkpt lat="43.29261" lon="-1.01236">
        <ele>127.99</ele>
        <time>2021-08-20T13:02:04Z</time>
      </trkpt>
      <trkpt lat="43.29264" lon="-1.01238">
        <ele>127.99</ele>
        <time>2021-08-20T13:02:05Z</time>
      </trkpt>
      <trkpt lat="43.29267" lon="-1.0124">
        <ele>127.51</ele>
        <time>2021-08-20T13:02:06Z</time>
      </trkpt>
      <trkpt lat="43.29269" lon="-1.01244">
        <ele>127.03</ele>
        <time>2021-08-20T13:02:07Z</time>
      </trkpt>
      <trkpt lat="43.29271" lon="-1.01249">
        <ele>127.03</ele>
        <time>2021-08-20T13:02:08Z</time>
      </trkpt>
      <trkpt lat="43.29271" lon="-1.01254">
        <ele>126.55</ele>
        <time>2021-08-20T13:02:09Z</time>
      </trkpt>
      <trkpt lat="43.2927" lon="-1.0126">
        <ele>126.55</ele>
        <time>2021-08-20T13:02:10Z</time>
      </trkpt>
      <trkpt lat="43.29269" lon="-1.01266">
        <ele>126.55</ele>
        <time>2021-08-20T13:02:11Z</time>
      </trkpt>
      <trkpt lat="43.29267" lon="-1.01272">
        <ele>126.55</ele>
        <time>2021-08-20T13:02:12Z</time>
      </trkpt>
      <trkpt lat="43.29265" lon="-1.01279">
        <ele>126.07</ele>
        <time>2021-08-20T13:02:13Z</time>
      </trkpt>
      <trkpt lat="43.29261" lon="-1.01293">
        <ele>125.59</ele>
        <time>2021-08-20T13:02:15Z</time>
      </trkpt>
      <trkpt lat="43.29253" lon="-1.01328">
        <ele>122.71</ele>
        <time>2021-08-20T13:02:19Z</time>
      </trkpt>
      <trkpt lat="43.29252" lon="-1.01337">
        <ele>122.71</ele>
        <time>2021-08-20T13:02:20Z</time>
      </trkpt>
      <trkpt lat="43.29253" lon="-1.01347">
        <ele>122.71</ele>
        <time>2021-08-20T13:02:21Z</time>
      </trkpt>
      <trkpt lat="43.29254" lon="-1.01357">
        <ele>121.74</ele>
        <time>2021-08-20T13:02:22Z</time>
      </trkpt>
      <trkpt lat="43.29256" lon="-1.01367">
        <ele>121.26</ele>
        <time>2021-08-20T13:02:23Z</time>
      </trkpt>
      <trkpt lat="43.29261" lon="-1.01387">
        <ele>119.82</ele>
        <time>2021-08-20T13:02:25Z</time>
      </trkpt>
      <trkpt lat="43.29262" lon="-1.01397">
        <ele>119.34</ele>
        <time>2021-08-20T13:02:26Z</time>
      </trkpt>
      <trkpt lat="43.29262" lon="-1.01407">
        <ele>118.38</ele>
        <time>2021-08-20T13:02:27Z</time>
      </trkpt>
      <trkpt lat="43.29261" lon="-1.01438">
        <ele>116.94</ele>
        <time>2021-08-20T13:02:30Z</time>
      </trkpt>
      <trkpt lat="43.29262" lon="-1.01448">
        <ele>116.46</ele>
        <time>2021-08-20T13:02:31Z</time>
      </trkpt>
      <trkpt lat="43.29264" lon="-1.01458">
        <ele>115.5</ele>
        <time>2021-08-20T13:02:32Z</time>
      </trkpt>
      <trkpt lat="43.29283" lon="-1.01512">
        <ele>113.09</ele>
        <time>2021-08-20T13:02:38Z</time>
      </trkpt>
      <trkpt lat="43.29289" lon="-1.0152">
        <ele>111.65</ele>
        <time>2021-08-20T13:02:39Z</time>
      </trkpt>
      <trkpt lat="43.29315" lon="-1.0155">
        <ele>107.32</ele>
        <time>2021-08-20T13:02:43Z</time>
      </trkpt>
      <trkpt lat="43.29336" lon="-1.0158">
        <ele>103</ele>
        <time>2021-08-20T13:02:46Z</time>
      </trkpt>
      <trkpt lat="43.29361" lon="-1.01629">
        <ele>99.15</ele>
        <time>2021-08-20T13:02:50Z</time>
      </trkpt>
      <trkpt lat="43.29378" lon="-1.01694">
        <ele>98.19</ele>
        <time>2021-08-20T13:02:55Z</time>
      </trkpt>
      <trkpt lat="43.29381" lon="-1.01706">
        <ele>97.71</ele>
        <time>2021-08-20T13:02:56Z</time>
      </trkpt>
      <trkpt lat="43.29384" lon="-1.01718">
        <ele>97.71</ele>
        <time>2021-08-20T13:02:57Z</time>
      </trkpt>
      <trkpt lat="43.29402" lon="-1.01764">
        <ele>96.75</ele>
        <time>2021-08-20T13:03:01Z</time>
      </trkpt>
      <trkpt lat="43.29408" lon="-1.01774">
        <ele>96.27</ele>
        <time>2021-08-20T13:03:02Z</time>
      </trkpt>
      <trkpt lat="43.29415" lon="-1.01783">
        <ele>95.31</ele>
        <time>2021-08-20T13:03:03Z</time>
      </trkpt>
      <trkpt lat="43.29421" lon="-1.01792">
        <ele>95.31</ele>
        <time>2021-08-20T13:03:04Z</time>
      </trkpt>
      <trkpt lat="43.29462" lon="-1.01844">
        <ele>92.9</ele>
        <time>2021-08-20T13:03:11Z</time>
      </trkpt>
      <trkpt lat="43.29466" lon="-1.01849">
        <ele>92.9</ele>
        <time>2021-08-20T13:03:12Z</time>
      </trkpt>
      <trkpt lat="43.29468" lon="-1.01852">
        <ele>92.9</ele>
        <time>2021-08-20T13:03:13Z</time>
      </trkpt>
      <trkpt lat="43.2947" lon="-1.01854">
        <ele>92.9</ele>
        <time>2021-08-20T13:03:14Z</time>
      </trkpt>
      <trkpt lat="43.29475" lon="-1.01859">
        <ele>92.9</ele>
        <time>2021-08-20T13:03:17Z</time>
      </trkpt>
      <trkpt lat="43.29477" lon="-1.0186">
        <ele>92.9</ele>
        <time>2021-08-20T13:03:18Z</time>
      </trkpt>
      <trkpt lat="43.29496" lon="-1.0187">
        <ele>94.35</ele>
        <time>2021-08-20T13:03:25Z</time>
      </trkpt>
      <trkpt lat="43.29499" lon="-1.01874">
        <ele>94.83</ele>
        <time>2021-08-20T13:03:29Z</time>
      </trkpt>
      <trkpt lat="43.29498" lon="-1.01874">
        <ele>94.83</ele>
        <time>2021-08-20T13:03:35Z</time>
      </trkpt>
      <trkpt lat="43.29499" lon="-1.01874">
        <ele>94.83</ele>
        <time>2021-08-20T13:03:50Z</time>
      </trkpt>
      <trkpt lat="43.295" lon="-1.01874">
        <ele>94.83</ele>
        <time>2021-08-20T13:04:04Z</time>
      </trkpt>
      <trkpt lat="43.295" lon="-1.01874">
        <ele>94.83</ele>
        <time>2021-08-20T13:04:14Z</time>
      </trkpt>
      <trkpt lat="43.295" lon="-1.01873">
        <ele>94.83</ele>
        <time>2021-08-20T13:04:24Z</time>
      </trkpt>
      <trkpt lat="43.295" lon="-1.01871">
        <ele>94.83</ele>
        <time>2021-08-20T13:04:36Z</time>
      </trkpt>
      <trkpt lat="43.295" lon="-1.01871">
        <ele>94.83</ele>
        <time>2021-08-20T13:04:46Z</time>
      </trkpt>
      <trkpt lat="43.295" lon="-1.01872">
        <ele>94.35</ele>
        <time>2021-08-20T13:05:00Z</time>
      </trkpt>
      <trkpt lat="43.29501" lon="-1.01872">
        <ele>94.35</ele>
        <time>2021-08-20T13:05:12Z</time>
      </trkpt>
      <trkpt lat="43.29501" lon="-1.01873">
        <ele>94.35</ele>
        <time>2021-08-20T13:05:25Z</time>
      </trkpt>
      <trkpt lat="43.29499" lon="-1.01871">
        <ele>94.35</ele>
        <time>2021-08-20T13:05:36Z</time>
      </trkpt>
      <trkpt lat="43.29499" lon="-1.01871">
        <ele>94.35</ele>
        <time>2021-08-20T13:05:40Z</time>
      </trkpt>
      <trkpt lat="43.29497" lon="-1.01871">
        <ele>94.35</ele>
        <time>2021-08-20T13:05:45Z</time>
      </trkpt>
      <trkpt lat="43.29498" lon="-1.01871">
        <ele>94.35</ele>
        <time>2021-08-20T13:05:58Z</time>
      </trkpt>
      <trkpt lat="43.295" lon="-1.01871">
        <ele>94.35</ele>
        <time>2021-08-20T13:06:11Z</time>
      </trkpt>
      <trkpt lat="43.295" lon="-1.01871">
        <ele>94.35</ele>
        <time>2021-08-20T13:06:28Z</time>
      </trkpt>
      <trkpt lat="43.29501" lon="-1.0187">
        <ele>94.35</ele>
        <time>2021-08-20T13:06:42Z</time>
      </trkpt>
      <trkpt lat="43.29501" lon="-1.0187">
        <ele>94.35</ele>
        <time>2021-08-20T13:06:56Z</time>
      </trkpt>
      <trkpt lat="43.29501" lon="-1.01871">
        <ele>94.35</ele>
        <time>2021-08-20T13:07:12Z</time>
      </trkpt>
      <trkpt lat="43.295" lon="-1.01869">
        <ele>94.35</ele>
        <time>2021-08-20T13:07:27Z</time>
      </trkpt>
      <trkpt lat="43.295" lon="-1.01871">
        <ele>94.35</ele>
        <time>2021-08-20T13:07:40Z</time>
      </trkpt>
      <trkpt lat="43.295" lon="-1.01872">
        <ele>94.35</ele>
        <time>2021-08-20T13:07:56Z</time>
      </trkpt>
      <trkpt lat="43.295" lon="-1.01873">
        <ele>94.35</ele>
        <time>2021-08-20T13:08:08Z</time>
      </trkpt>
      <trkpt lat="43.295" lon="-1.01873">
        <ele>94.35</ele>
        <time>2021-08-20T13:08:20Z</time>
      </trkpt>
      <trkpt lat="43.295" lon="-1.01874">
        <ele>94.35</ele>
        <time>2021-08-20T13:08:39Z</time>
      </trkpt>
      <trkpt lat="43.295" lon="-1.01872">
        <ele>94.35</ele>
        <time>2021-08-20T13:08:56Z</time>
      </trkpt>
      <trkpt lat="43.29499" lon="-1.01871">
        <ele>94.35</ele>
        <time>2021-08-20T13:09:08Z</time>
      </trkpt>
      <trkpt lat="43.29499" lon="-1.01872">
        <ele>94.35</ele>
        <time>2021-08-20T13:09:24Z</time>
      </trkpt>
      <trkpt lat="43.295" lon="-1.01872">
        <ele>94.35</ele>
        <time>2021-08-20T13:09:39Z</time>
      </trkpt>
      <trkpt lat="43.295" lon="-1.01873">
        <ele>94.35</ele>
        <time>2021-08-20T13:09:50Z</time>
      </trkpt>
      <trkpt lat="43.295" lon="-1.01873">
        <ele>94.35</ele>
        <time>2021-08-20T13:10:00Z</time>
      </trkpt>
      <trkpt lat="43.295" lon="-1.01872">
        <ele>94.35</ele>
        <time>2021-08-20T13:10:13Z</time>
      </trkpt>
      <trkpt lat="43.295" lon="-1.01873">
        <ele>94.35</ele>
        <time>2021-08-20T13:10:30Z</time>
      </trkpt>
      <trkpt lat="43.29501" lon="-1.01873">
        <ele>94.35</ele>
        <time>2021-08-20T13:10:39Z</time>
      </trkpt>
      <trkpt lat="43.29502" lon="-1.01873">
        <ele>94.35</ele>
        <time>2021-08-20T13:10:45Z</time>
      </trkpt>
      <trkpt lat="43.29501" lon="-1.01873">
        <ele>94.35</ele>
        <time>2021-08-20T13:11:06Z</time>
      </trkpt>
      <trkpt lat="43.295" lon="-1.01873">
        <ele>94.35</ele>
        <time>2021-08-20T13:11:20Z</time>
      </trkpt>
      <trkpt lat="43.295" lon="-1.01873">
        <ele>93.87</ele>
        <time>2021-08-20T13:11:37Z</time>
      </trkpt>
      <trkpt lat="43.29499" lon="-1.01873">
        <ele>93.87</ele>
        <time>2021-08-20T13:11:56Z</time>
      </trkpt>
      <trkpt lat="43.295" lon="-1.01873">
        <ele>93.87</ele>
        <time>2021-08-20T13:12:09Z</time>
      </trkpt>
      <trkpt lat="43.29499" lon="-1.01872">
        <ele>93.87</ele>
        <time>2021-08-20T13:12:24Z</time>
      </trkpt>
      <trkpt lat="43.29499" lon="-1.01872">
        <ele>93.87</ele>
        <time>2021-08-20T13:12:41Z</time>
      </trkpt>
      <trkpt lat="43.29499" lon="-1.01871">
        <ele>93.87</ele>
        <time>2021-08-20T13:12:59Z</time>
      </trkpt>
      <trkpt lat="43.29499" lon="-1.01872">
        <ele>93.39</ele>
        <time>2021-08-20T13:13:18Z</time>
      </trkpt>
      <trkpt lat="43.29498" lon="-1.01871">
        <ele>93.39</ele>
        <time>2021-08-20T13:13:23Z</time>
      </trkpt>
      <trkpt lat="43.29497" lon="-1.01871">
        <ele>93.39</ele>
        <time>2021-08-20T13:13:31Z</time>
      </trkpt>
      <trkpt lat="43.29498" lon="-1.0187">
        <ele>93.39</ele>
        <time>2021-08-20T13:13:50Z</time>
      </trkpt>
      <trkpt lat="43.29496" lon="-1.0187">
        <ele>93.39</ele>
        <time>2021-08-20T13:13:54Z</time>
      </trkpt>
      <trkpt lat="43.29495" lon="-1.0187">
        <ele>93.39</ele>
        <time>2021-08-20T13:13:55Z</time>
      </trkpt>
      <trkpt lat="43.29494" lon="-1.01871">
        <ele>93.39</ele>
        <time>2021-08-20T13:13:56Z</time>
      </trkpt>
      <trkpt lat="43.29492" lon="-1.01873">
        <ele>93.39</ele>
        <time>2021-08-20T13:13:57Z</time>
      </trkpt>
      <trkpt lat="43.29492" lon="-1.01874">
        <ele>93.39</ele>
        <time>2021-08-20T13:13:58Z</time>
      </trkpt>
      <trkpt lat="43.29491" lon="-1.01877">
        <ele>93.39</ele>
        <time>2021-08-20T13:13:59Z</time>
      </trkpt>
      <trkpt lat="43.29492" lon="-1.01879">
        <ele>93.39</ele>
        <time>2021-08-20T13:14:00Z</time>
      </trkpt>
      <trkpt lat="43.29493" lon="-1.01882">
        <ele>92.9</ele>
        <time>2021-08-20T13:14:01Z</time>
      </trkpt>
      <trkpt lat="43.29495" lon="-1.01886">
        <ele>92.9</ele>
        <time>2021-08-20T13:14:02Z</time>
      </trkpt>
      <trkpt lat="43.29511" lon="-1.01914">
        <ele>91.94</ele>
        <time>2021-08-20T13:14:09Z</time>
      </trkpt>
      <trkpt lat="43.29519" lon="-1.01932">
        <ele>91.94</ele>
        <time>2021-08-20T13:14:13Z</time>
      </trkpt>
      <trkpt lat="43.29522" lon="-1.01937">
        <ele>91.94</ele>
        <time>2021-08-20T13:14:14Z</time>
      </trkpt>
      <trkpt lat="43.29525" lon="-1.01941">
        <ele>91.94</ele>
        <time>2021-08-20T13:14:15Z</time>
      </trkpt>
      <trkpt lat="43.29527" lon="-1.01945">
        <ele>91.46</ele>
        <time>2021-08-20T13:14:16Z</time>
      </trkpt>
      <trkpt lat="43.2953" lon="-1.0195">
        <ele>91.46</ele>
        <time>2021-08-20T13:14:17Z</time>
      </trkpt>
      <trkpt lat="43.29532" lon="-1.01955">
        <ele>91.46</ele>
        <time>2021-08-20T13:14:18Z</time>
      </trkpt>
      <trkpt lat="43.29534" lon="-1.0196">
        <ele>90.98</ele>
        <time>2021-08-20T13:14:19Z</time>
      </trkpt>
      <trkpt lat="43.29547" lon="-1.01982">
        <ele>90.98</ele>
        <time>2021-08-20T13:14:25Z</time>
      </trkpt>
      <trkpt lat="43.29556" lon="-1.02006">
        <ele>90.5</ele>
        <time>2021-08-20T13:14:30Z</time>
      </trkpt>
      <trkpt lat="43.29563" lon="-1.02026">
        <ele>89.06</ele>
        <time>2021-08-20T13:14:33Z</time>
      </trkpt>
      <trkpt lat="43.29577" lon="-1.02074">
        <ele>87.14</ele>
        <time>2021-08-20T13:14:39Z</time>
      </trkpt>
      <trkpt lat="43.29588" lon="-1.02127">
        <ele>86.18</ele>
        <time>2021-08-20T13:14:46Z</time>
      </trkpt>
      <trkpt lat="43.29595" lon="-1.02152">
        <ele>86.66</ele>
        <time>2021-08-20T13:14:51Z</time>
      </trkpt>
      <trkpt lat="43.29606" lon="-1.02163">
        <ele>87.62</ele>
        <time>2021-08-20T13:14:56Z</time>
      </trkpt>
      <trkpt lat="43.29611" lon="-1.02165">
        <ele>87.62</ele>
        <time>2021-08-20T13:14:58Z</time>
      </trkpt>
      <trkpt lat="43.29613" lon="-1.02165">
        <ele>87.62</ele>
        <time>2021-08-20T13:14:59Z</time>
      </trkpt>
      <trkpt lat="43.29624" lon="-1.02162">
        <ele>87.62</ele>
        <time>2021-08-20T13:15:02Z</time>
      </trkpt>
      <trkpt lat="43.29629" lon="-1.02163">
        <ele>86.66</ele>
        <time>2021-08-20T13:15:03Z</time>
      </trkpt>
      <trkpt lat="43.29634" lon="-1.02165">
        <ele>85.69</ele>
        <time>2021-08-20T13:15:04Z</time>
      </trkpt>
      <trkpt lat="43.29639" lon="-1.02169">
        <ele>85.69</ele>
        <time>2021-08-20T13:15:05Z</time>
      </trkpt>
      <trkpt lat="43.29643" lon="-1.02173">
        <ele>85.69</ele>
        <time>2021-08-20T13:15:06Z</time>
      </trkpt>
      <trkpt lat="43.29647" lon="-1.02177">
        <ele>85.69</ele>
        <time>2021-08-20T13:15:07Z</time>
      </trkpt>
      <trkpt lat="43.2965" lon="-1.02181">
        <ele>85.69</ele>
        <time>2021-08-20T13:15:08Z</time>
      </trkpt>
      <trkpt lat="43.29655" lon="-1.02183">
        <ele>84.73</ele>
        <time>2021-08-20T13:15:09Z</time>
      </trkpt>
      <trkpt lat="43.2966" lon="-1.02183">
        <ele>84.73</ele>
        <time>2021-08-20T13:15:10Z</time>
      </trkpt>
      <trkpt lat="43.29665" lon="-1.02181">
        <ele>84.73</ele>
        <time>2021-08-20T13:15:11Z</time>
      </trkpt>
      <trkpt lat="43.29669" lon="-1.02178">
        <ele>83.77</ele>
        <time>2021-08-20T13:15:12Z</time>
      </trkpt>
      <trkpt lat="43.29674" lon="-1.02173">
        <ele>82.81</ele>
        <time>2021-08-20T13:15:13Z</time>
      </trkpt>
      <trkpt lat="43.2968" lon="-1.02169">
        <ele>81.85</ele>
        <time>2021-08-20T13:15:14Z</time>
      </trkpt>
      <trkpt lat="43.29687" lon="-1.02167">
        <ele>80.41</ele>
        <time>2021-08-20T13:15:15Z</time>
      </trkpt>
      <trkpt lat="43.29695" lon="-1.02167">
        <ele>79.45</ele>
        <time>2021-08-20T13:15:16Z</time>
      </trkpt>
      <trkpt lat="43.29717" lon="-1.0217">
        <ele>76.08</ele>
        <time>2021-08-20T13:15:19Z</time>
      </trkpt>
      <trkpt lat="43.29725" lon="-1.02168">
        <ele>75.12</ele>
        <time>2021-08-20T13:15:20Z</time>
      </trkpt>
      <trkpt lat="43.29732" lon="-1.02164">
        <ele>74.16</ele>
        <time>2021-08-20T13:15:21Z</time>
      </trkpt>
      <trkpt lat="43.29738" lon="-1.02161">
        <ele>72.72</ele>
        <time>2021-08-20T13:15:22Z</time>
      </trkpt>
      <trkpt lat="43.29745" lon="-1.02158">
        <ele>72.24</ele>
        <time>2021-08-20T13:15:23Z</time>
      </trkpt>
      <trkpt lat="43.29753" lon="-1.02158">
        <ele>71.76</ele>
        <time>2021-08-20T13:15:24Z</time>
      </trkpt>
      <trkpt lat="43.29759" lon="-1.0216">
        <ele>70.79</ele>
        <time>2021-08-20T13:15:25Z</time>
      </trkpt>
      <trkpt lat="43.29765" lon="-1.02163">
        <ele>70.79</ele>
        <time>2021-08-20T13:15:26Z</time>
      </trkpt>
      <trkpt lat="43.2977" lon="-1.02167">
        <ele>70.31</ele>
        <time>2021-08-20T13:15:27Z</time>
      </trkpt>
      <trkpt lat="43.29775" lon="-1.02171">
        <ele>69.83</ele>
        <time>2021-08-20T13:15:28Z</time>
      </trkpt>
      <trkpt lat="43.29792" lon="-1.02186">
        <ele>68.87</ele>
        <time>2021-08-20T13:15:33Z</time>
      </trkpt>
      <trkpt lat="43.29798" lon="-1.02192">
        <ele>68.39</ele>
        <time>2021-08-20T13:15:36Z</time>
      </trkpt>
      <trkpt lat="43.29798" lon="-1.02194">
        <ele>68.39</ele>
        <time>2021-08-20T13:15:37Z</time>
      </trkpt>
      <trkpt lat="43.29799" lon="-1.02196">
        <ele>68.39</ele>
        <time>2021-08-20T13:15:38Z</time>
      </trkpt>
      <trkpt lat="43.298" lon="-1.02198">
        <ele>68.39</ele>
        <time>2021-08-20T13:15:39Z</time>
      </trkpt>
      <trkpt lat="43.29802" lon="-1.02199">
        <ele>68.39</ele>
        <time>2021-08-20T13:15:40Z</time>
      </trkpt>
      <trkpt lat="43.29803" lon="-1.022">
        <ele>68.39</ele>
        <time>2021-08-20T13:15:46Z</time>
      </trkpt>
      <trkpt lat="43.29803" lon="-1.022">
        <ele>68.39</ele>
        <time>2021-08-20T13:16:06Z</time>
      </trkpt>
      <trkpt lat="43.29804" lon="-1.02203">
        <ele>68.39</ele>
        <time>2021-08-20T13:16:25Z</time>
      </trkpt>
      <trkpt lat="43.29804" lon="-1.02204">
        <ele>68.39</ele>
        <time>2021-08-20T13:16:26Z</time>
      </trkpt>
      <trkpt lat="43.29805" lon="-1.02206">
        <ele>68.39</ele>
        <time>2021-08-20T13:16:27Z</time>
      </trkpt>
      <trkpt lat="43.29805" lon="-1.02208">
        <ele>68.39</ele>
        <time>2021-08-20T13:16:28Z</time>
      </trkpt>
      <trkpt lat="43.29806" lon="-1.02211">
        <ele>68.39</ele>
        <time>2021-08-20T13:16:29Z</time>
      </trkpt>
      <trkpt lat="43.29806" lon="-1.02214">
        <ele>68.39</ele>
        <time>2021-08-20T13:16:30Z</time>
      </trkpt>
      <trkpt lat="43.29806" lon="-1.02245">
        <ele>68.39</ele>
        <time>2021-08-20T13:16:37Z</time>
      </trkpt>
      <trkpt lat="43.29803" lon="-1.02287">
        <ele>68.39</ele>
        <time>2021-08-20T13:16:45Z</time>
      </trkpt>
      <trkpt lat="43.29806" lon="-1.02295">
        <ele>68.39</ele>
        <time>2021-08-20T13:16:47Z</time>
      </trkpt>
      <trkpt lat="43.29809" lon="-1.02297">
        <ele>68.39</ele>
        <time>2021-08-20T13:16:48Z</time>
      </trkpt>
      <trkpt lat="43.29816" lon="-1.023">
        <ele>69.83</ele>
        <time>2021-08-20T13:16:51Z</time>
      </trkpt>
      <trkpt lat="43.29841" lon="-1.02311">
        <ele>70.31</ele>
        <time>2021-08-20T13:16:59Z</time>
      </trkpt>
      <trkpt lat="43.29856" lon="-1.02319">
        <ele>68.39</ele>
        <time>2021-08-20T13:17:02Z</time>
      </trkpt>
      <trkpt lat="43.2986" lon="-1.02323">
        <ele>68.39</ele>
        <time>2021-08-20T13:17:03Z</time>
      </trkpt>
      <trkpt lat="43.29864" lon="-1.02328">
        <ele>68.39</ele>
        <time>2021-08-20T13:17:04Z</time>
      </trkpt>
      <trkpt lat="43.29866" lon="-1.02333">
        <ele>68.39</ele>
        <time>2021-08-20T13:17:05Z</time>
      </trkpt>
      <trkpt lat="43.29868" lon="-1.02338">
        <ele>68.39</ele>
        <time>2021-08-20T13:17:06Z</time>
      </trkpt>
      <trkpt lat="43.29869" lon="-1.02344">
        <ele>68.39</ele>
        <time>2021-08-20T13:17:07Z</time>
      </trkpt>
      <trkpt lat="43.29869" lon="-1.02349">
        <ele>68.39</ele>
        <time>2021-08-20T13:17:08Z</time>
      </trkpt>
      <trkpt lat="43.2987" lon="-1.02363">
        <ele>69.35</ele>
        <time>2021-08-20T13:17:11Z</time>
      </trkpt>
      <trkpt lat="43.2987" lon="-1.02383">
        <ele>70.31</ele>
        <time>2021-08-20T13:17:18Z</time>
      </trkpt>
      <trkpt lat="43.29872" lon="-1.02401">
        <ele>72.24</ele>
        <time>2021-08-20T13:17:27Z</time>
      </trkpt>
      <trkpt lat="43.29873" lon="-1.02413">
        <ele>73.68</ele>
        <time>2021-08-20T13:17:34Z</time>
      </trkpt>
      <trkpt lat="43.29874" lon="-1.02417">
        <ele>74.16</ele>
        <time>2021-08-20T13:17:36Z</time>
      </trkpt>
      <trkpt lat="43.29875" lon="-1.02419">
        <ele>74.16</ele>
        <time>2021-08-20T13:17:37Z</time>
      </trkpt>
      <trkpt lat="43.29875" lon="-1.02421">
        <ele>75.12</ele>
        <time>2021-08-20T13:17:38Z</time>
      </trkpt>
      <trkpt lat="43.29875" lon="-1.02422">
        <ele>75.12</ele>
        <time>2021-08-20T13:17:39Z</time>
      </trkpt>
      <trkpt lat="43.29875" lon="-1.02424">
        <ele>75.12</ele>
        <time>2021-08-20T13:17:40Z</time>
      </trkpt>
      <trkpt lat="43.29874" lon="-1.02439">
        <ele>76.56</ele>
        <time>2021-08-20T13:17:48Z</time>
      </trkpt>
      <trkpt lat="43.29875" lon="-1.02457">
        <ele>78</ele>
        <time>2021-08-20T13:17:57Z</time>
      </trkpt>
      <trkpt lat="43.29876" lon="-1.02476">
        <ele>79.45</ele>
        <time>2021-08-20T13:18:05Z</time>
      </trkpt>
      <trkpt lat="43.29881" lon="-1.02497">
        <ele>80.41</ele>
        <time>2021-08-20T13:18:14Z</time>
      </trkpt>
      <trkpt lat="43.29885" lon="-1.02507">
        <ele>81.37</ele>
        <time>2021-08-20T13:18:20Z</time>
      </trkpt>
      <trkpt lat="43.29886" lon="-1.0251">
        <ele>81.85</ele>
        <time>2021-08-20T13:18:23Z</time>
      </trkpt>
      <trkpt lat="43.29891" lon="-1.02525">
        <ele>83.29</ele>
        <time>2021-08-20T13:18:32Z</time>
      </trkpt>
      <trkpt lat="43.29893" lon="-1.02536">
        <ele>84.73</ele>
        <time>2021-08-20T13:18:40Z</time>
      </trkpt>
      <trkpt lat="43.29897" lon="-1.02553">
        <ele>85.69</ele>
        <time>2021-08-20T13:18:50Z</time>
      </trkpt>
      <trkpt lat="43.29902" lon="-1.02567">
        <ele>87.14</ele>
        <time>2021-08-20T13:18:59Z</time>
      </trkpt>
      <trkpt lat="43.29907" lon="-1.02582">
        <ele>88.58</ele>
        <time>2021-08-20T13:19:10Z</time>
      </trkpt>
      <trkpt lat="43.29906" lon="-1.0259">
        <ele>89.54</ele>
        <time>2021-08-20T13:19:17Z</time>
      </trkpt>
      <trkpt lat="43.29902" lon="-1.026">
        <ele>90.5</ele>
        <time>2021-08-20T13:19:26Z</time>
      </trkpt>
      <trkpt lat="43.29901" lon="-1.02601">
        <ele>90.5</ele>
        <time>2021-08-20T13:19:27Z</time>
      </trkpt>
      <trkpt lat="43.299" lon="-1.02603">
        <ele>90.98</ele>
        <time>2021-08-20T13:19:29Z</time>
      </trkpt>
      <trkpt lat="43.29899" lon="-1.02612">
        <ele>92.42</ele>
        <time>2021-08-20T13:19:37Z</time>
      </trkpt>
      <trkpt lat="43.29897" lon="-1.02624">
        <ele>93.39</ele>
        <time>2021-08-20T13:19:46Z</time>
      </trkpt>
      <trkpt lat="43.29894" lon="-1.02636">
        <ele>93.87</ele>
        <time>2021-08-20T13:19:55Z</time>
      </trkpt>
      <trkpt lat="43.29894" lon="-1.02649">
        <ele>94.35</ele>
        <time>2021-08-20T13:20:03Z</time>
      </trkpt>
      <trkpt lat="43.29897" lon="-1.02662">
        <ele>95.31</ele>
        <time>2021-08-20T13:20:12Z</time>
      </trkpt>
      <trkpt lat="43.29901" lon="-1.02669">
        <ele>95.79</ele>
        <time>2021-08-20T13:20:18Z</time>
      </trkpt>
      <trkpt lat="43.29903" lon="-1.0267">
        <ele>95.79</ele>
        <time>2021-08-20T13:20:19Z</time>
      </trkpt>
      <trkpt lat="43.2991" lon="-1.0268">
        <ele>97.23</ele>
        <time>2021-08-20T13:20:29Z</time>
      </trkpt>
      <trkpt lat="43.29916" lon="-1.02688">
        <ele>97.71</ele>
        <time>2021-08-20T13:20:37Z</time>
      </trkpt>
      <trkpt lat="43.29921" lon="-1.02694">
        <ele>98.19</ele>
        <time>2021-08-20T13:20:43Z</time>
      </trkpt>
      <trkpt lat="43.29924" lon="-1.02701">
        <ele>99.15</ele>
        <time>2021-08-20T13:20:49Z</time>
      </trkpt>
      <trkpt lat="43.2993" lon="-1.02709">
        <ele>100.6</ele>
        <time>2021-08-20T13:20:59Z</time>
      </trkpt>
      <trkpt lat="43.29935" lon="-1.02715">
        <ele>102.04</ele>
        <time>2021-08-20T13:21:07Z</time>
      </trkpt>
      <trkpt lat="43.29939" lon="-1.02722">
        <ele>102.52</ele>
        <time>2021-08-20T13:21:14Z</time>
      </trkpt>
      <trkpt lat="43.29941" lon="-1.02729">
        <ele>103.48</ele>
        <time>2021-08-20T13:21:21Z</time>
      </trkpt>
      <trkpt lat="43.2994" lon="-1.02731">
        <ele>103.48</ele>
        <time>2021-08-20T13:21:23Z</time>
      </trkpt>
      <trkpt lat="43.2994" lon="-1.02736">
        <ele>103.96</ele>
        <time>2021-08-20T13:21:26Z</time>
      </trkpt>
      <trkpt lat="43.29938" lon="-1.02744">
        <ele>104.92</ele>
        <time>2021-08-20T13:21:34Z</time>
      </trkpt>
      <trkpt lat="43.29937" lon="-1.02752">
        <ele>105.88</ele>
        <time>2021-08-20T13:21:42Z</time>
      </trkpt>
      <trkpt lat="43.29934" lon="-1.02758">
        <ele>106.84</ele>
        <time>2021-08-20T13:21:48Z</time>
      </trkpt>
      <trkpt lat="43.29933" lon="-1.0276">
        <ele>106.84</ele>
        <time>2021-08-20T13:21:49Z</time>
      </trkpt>
      <trkpt lat="43.29929" lon="-1.02767">
        <ele>107.32</ele>
        <time>2021-08-20T13:21:55Z</time>
      </trkpt>
      <trkpt lat="43.29927" lon="-1.02771">
        <ele>107.32</ele>
        <time>2021-08-20T13:22:01Z</time>
      </trkpt>
      <trkpt lat="43.29917" lon="-1.02785">
        <ele>107.81</ele>
        <time>2021-08-20T13:22:08Z</time>
      </trkpt>
      <trkpt lat="43.29908" lon="-1.02797">
        <ele>108.77</ele>
        <time>2021-08-20T13:22:15Z</time>
      </trkpt>
      <trkpt lat="43.29902" lon="-1.02805">
        <ele>109.25</ele>
        <time>2021-08-20T13:22:20Z</time>
      </trkpt>
      <trkpt lat="43.29898" lon="-1.02811">
        <ele>110.21</ele>
        <time>2021-08-20T13:22:26Z</time>
      </trkpt>
      <trkpt lat="43.29894" lon="-1.02816">
        <ele>111.65</ele>
        <time>2021-08-20T13:22:34Z</time>
      </trkpt>
      <trkpt lat="43.29892" lon="-1.0282">
        <ele>112.61</ele>
        <time>2021-08-20T13:22:41Z</time>
      </trkpt>
      <trkpt lat="43.2989" lon="-1.02825">
        <ele>113.57</ele>
        <time>2021-08-20T13:22:48Z</time>
      </trkpt>
      <trkpt lat="43.29888" lon="-1.02832">
        <ele>115.01</ele>
        <time>2021-08-20T13:22:56Z</time>
      </trkpt>
      <trkpt lat="43.29888" lon="-1.02838">
        <ele>115.98</ele>
        <time>2021-08-20T13:23:03Z</time>
      </trkpt>
      <trkpt lat="43.29886" lon="-1.02848">
        <ele>116.94</ele>
        <time>2021-08-20T13:23:11Z</time>
      </trkpt>
      <trkpt lat="43.29884" lon="-1.02854">
        <ele>118.38</ele>
        <time>2021-08-20T13:23:19Z</time>
      </trkpt>
      <trkpt lat="43.29884" lon="-1.02866">
        <ele>118.86</ele>
        <time>2021-08-20T13:23:28Z</time>
      </trkpt>
      <trkpt lat="43.29886" lon="-1.02872">
        <ele>119.82</ele>
        <time>2021-08-20T13:23:35Z</time>
      </trkpt>
      <trkpt lat="43.29886" lon="-1.02877">
        <ele>120.78</ele>
        <time>2021-08-20T13:23:41Z</time>
      </trkpt>
      <trkpt lat="43.29886" lon="-1.0288">
        <ele>120.78</ele>
        <time>2021-08-20T13:23:43Z</time>
      </trkpt>
      <trkpt lat="43.29886" lon="-1.02886">
        <ele>122.22</ele>
        <time>2021-08-20T13:23:49Z</time>
      </trkpt>
      <trkpt lat="43.29887" lon="-1.02898">
        <ele>122.71</ele>
        <time>2021-08-20T13:23:58Z</time>
      </trkpt>
      <trkpt lat="43.29887" lon="-1.02905">
        <ele>123.67</ele>
        <time>2021-08-20T13:24:06Z</time>
      </trkpt>
      <trkpt lat="43.29887" lon="-1.02909">
        <ele>124.15</ele>
        <time>2021-08-20T13:24:10Z</time>
      </trkpt>
      <trkpt lat="43.29885" lon="-1.02914">
        <ele>124.63</ele>
        <time>2021-08-20T13:24:17Z</time>
      </trkpt>
      <trkpt lat="43.29884" lon="-1.02917">
        <ele>125.11</ele>
        <time>2021-08-20T13:24:25Z</time>
      </trkpt>
      <trkpt lat="43.29884" lon="-1.02927">
        <ele>126.55</ele>
        <time>2021-08-20T13:24:36Z</time>
      </trkpt>
      <trkpt lat="43.29884" lon="-1.02936">
        <ele>127.03</ele>
        <time>2021-08-20T13:24:43Z</time>
      </trkpt>
      <trkpt lat="43.29885" lon="-1.02947">
        <ele>127.99</ele>
        <time>2021-08-20T13:24:52Z</time>
      </trkpt>
      <trkpt lat="43.29886" lon="-1.02955">
        <ele>128.47</ele>
        <time>2021-08-20T13:24:59Z</time>
      </trkpt>
      <trkpt lat="43.29886" lon="-1.02963">
        <ele>129.92</ele>
        <time>2021-08-20T13:25:08Z</time>
      </trkpt>
      <trkpt lat="43.29887" lon="-1.0297">
        <ele>130.88</ele>
        <time>2021-08-20T13:25:15Z</time>
      </trkpt>
      <trkpt lat="43.29888" lon="-1.02979">
        <ele>131.36</ele>
        <time>2021-08-20T13:25:24Z</time>
      </trkpt>
      <trkpt lat="43.29886" lon="-1.02987">
        <ele>132.8</ele>
        <time>2021-08-20T13:25:32Z</time>
      </trkpt>
      <trkpt lat="43.29885" lon="-1.02996">
        <ele>133.28</ele>
        <time>2021-08-20T13:25:39Z</time>
      </trkpt>
      <trkpt lat="43.29884" lon="-1.03003">
        <ele>134.24</ele>
        <time>2021-08-20T13:25:46Z</time>
      </trkpt>
      <trkpt lat="43.29883" lon="-1.03012">
        <ele>135.2</ele>
        <time>2021-08-20T13:25:53Z</time>
      </trkpt>
      <trkpt lat="43.29881" lon="-1.03017">
        <ele>135.2</ele>
        <time>2021-08-20T13:25:58Z</time>
      </trkpt>
      <trkpt lat="43.29874" lon="-1.03028">
        <ele>136.16</ele>
        <time>2021-08-20T13:26:06Z</time>
      </trkpt>
      <trkpt lat="43.29872" lon="-1.03035">
        <ele>137.61</ele>
        <time>2021-08-20T13:26:15Z</time>
      </trkpt>
      <trkpt lat="43.29866" lon="-1.03043">
        <ele>138.09</ele>
        <time>2021-08-20T13:26:23Z</time>
      </trkpt>
      <trkpt lat="43.29861" lon="-1.03049">
        <ele>139.53</ele>
        <time>2021-08-20T13:26:31Z</time>
      </trkpt>
      <trkpt lat="43.2986" lon="-1.03052">
        <ele>139.53</ele>
        <time>2021-08-20T13:26:34Z</time>
      </trkpt>
      <trkpt lat="43.29861" lon="-1.03063">
        <ele>140.97</ele>
        <time>2021-08-20T13:26:43Z</time>
      </trkpt>
      <trkpt lat="43.29862" lon="-1.03072">
        <ele>142.41</ele>
        <time>2021-08-20T13:26:52Z</time>
      </trkpt>
      <trkpt lat="43.29863" lon="-1.03081">
        <ele>142.89</ele>
        <time>2021-08-20T13:27:00Z</time>
      </trkpt>
      <trkpt lat="43.29862" lon="-1.0309">
        <ele>142.89</ele>
        <time>2021-08-20T13:27:07Z</time>
      </trkpt>
      <trkpt lat="43.29862" lon="-1.03109">
        <ele>142.89</ele>
        <time>2021-08-20T13:27:14Z</time>
      </trkpt>
      <trkpt lat="43.29866" lon="-1.03143">
        <ele>143.37</ele>
        <time>2021-08-20T13:27:24Z</time>
      </trkpt>
      <trkpt lat="43.29867" lon="-1.03165">
        <ele>143.37</ele>
        <time>2021-08-20T13:27:31Z</time>
      </trkpt>
      <trkpt lat="43.2987" lon="-1.03186">
        <ele>143.37</ele>
        <time>2021-08-20T13:27:38Z</time>
      </trkpt>
      <trkpt lat="43.29872" lon="-1.03208">
        <ele>143.85</ele>
        <time>2021-08-20T13:27:45Z</time>
      </trkpt>
      <trkpt lat="43.29874" lon="-1.0323">
        <ele>144.34</ele>
        <time>2021-08-20T13:27:53Z</time>
      </trkpt>
      <trkpt lat="43.29876" lon="-1.03253">
        <ele>144.82</ele>
        <time>2021-08-20T13:28:00Z</time>
      </trkpt>
      <trkpt lat="43.29876" lon="-1.03255">
        <ele>144.82</ele>
        <time>2021-08-20T13:28:01Z</time>
      </trkpt>
      <trkpt lat="43.29876" lon="-1.03258">
        <ele>144.82</ele>
        <time>2021-08-20T13:28:02Z</time>
      </trkpt>
      <trkpt lat="43.29879" lon="-1.03282">
        <ele>145.78</ele>
        <time>2021-08-20T13:28:10Z</time>
      </trkpt>
      <trkpt lat="43.29881" lon="-1.033">
        <ele>146.26</ele>
        <time>2021-08-20T13:28:16Z</time>
      </trkpt>
      <trkpt lat="43.2988" lon="-1.03322">
        <ele>146.74</ele>
        <time>2021-08-20T13:28:23Z</time>
      </trkpt>
      <trkpt lat="43.29879" lon="-1.03353">
        <ele>146.74</ele>
        <time>2021-08-20T13:28:31Z</time>
      </trkpt>
      <trkpt lat="43.2988" lon="-1.03387">
        <ele>145.78</ele>
        <time>2021-08-20T13:28:39Z</time>
      </trkpt>
      <trkpt lat="43.29879" lon="-1.03409">
        <ele>147.22</ele>
        <time>2021-08-20T13:28:46Z</time>
      </trkpt>
      <trkpt lat="43.29878" lon="-1.03428">
        <ele>149.62</ele>
        <time>2021-08-20T13:28:53Z</time>
      </trkpt>
      <trkpt lat="43.29882" lon="-1.03446">
        <ele>151.06</ele>
        <time>2021-08-20T13:29:00Z</time>
      </trkpt>
      <trkpt lat="43.2989" lon="-1.03463">
        <ele>152.51</ele>
        <time>2021-08-20T13:29:08Z</time>
      </trkpt>
      <trkpt lat="43.29896" lon="-1.03483">
        <ele>153.95</ele>
        <time>2021-08-20T13:29:16Z</time>
      </trkpt>
      <trkpt lat="43.299" lon="-1.03505">
        <ele>154.43</ele>
        <time>2021-08-20T13:29:23Z</time>
      </trkpt>
      <trkpt lat="43.29915" lon="-1.0354">
        <ele>154.43</ele>
        <time>2021-08-20T13:29:32Z</time>
      </trkpt>
      <trkpt lat="43.29917" lon="-1.03564">
        <ele>154.43</ele>
        <time>2021-08-20T13:29:38Z</time>
      </trkpt>
      <trkpt lat="43.29915" lon="-1.03567">
        <ele>154.43</ele>
        <time>2021-08-20T13:29:39Z</time>
      </trkpt>
      <trkpt lat="43.29913" lon="-1.0357">
        <ele>154.43</ele>
        <time>2021-08-20T13:29:40Z</time>
      </trkpt>
      <trkpt lat="43.2991" lon="-1.03573">
        <ele>154.43</ele>
        <time>2021-08-20T13:29:41Z</time>
      </trkpt>
      <trkpt lat="43.29907" lon="-1.03574">
        <ele>154.43</ele>
        <time>2021-08-20T13:29:42Z</time>
      </trkpt>
      <trkpt lat="43.29903" lon="-1.03576">
        <ele>154.43</ele>
        <time>2021-08-20T13:29:43Z</time>
      </trkpt>
      <trkpt lat="43.29871" lon="-1.03597">
        <ele>154.43</ele>
        <time>2021-08-20T13:29:53Z</time>
      </trkpt>
      <trkpt lat="43.29836" lon="-1.03626">
        <ele>154.91</ele>
        <time>2021-08-20T13:30:04Z</time>
      </trkpt>
      <trkpt lat="43.29803" lon="-1.03646">
        <ele>155.39</ele>
        <time>2021-08-20T13:30:14Z</time>
      </trkpt>
      <trkpt lat="43.29782" lon="-1.03663">
        <ele>156.83</ele>
        <time>2021-08-20T13:30:22Z</time>
      </trkpt>
      <trkpt lat="43.29763" lon="-1.03676">
        <ele>157.79</ele>
        <time>2021-08-20T13:30:30Z</time>
      </trkpt>
      <trkpt lat="43.29752" lon="-1.03684">
        <ele>159.72</ele>
        <time>2021-08-20T13:30:37Z</time>
      </trkpt>
      <trkpt lat="43.29739" lon="-1.03695">
        <ele>161.64</ele>
        <time>2021-08-20T13:30:47Z</time>
      </trkpt>
      <trkpt lat="43.29728" lon="-1.03706">
        <ele>163.08</ele>
        <time>2021-08-20T13:30:56Z</time>
      </trkpt>
      <trkpt lat="43.29714" lon="-1.03716">
        <ele>165</ele>
        <time>2021-08-20T13:31:06Z</time>
      </trkpt>
      <trkpt lat="43.29711" lon="-1.03718">
        <ele>165.48</ele>
        <time>2021-08-20T13:31:11Z</time>
      </trkpt>
      <trkpt lat="43.29705" lon="-1.03722">
        <ele>165.96</ele>
        <time>2021-08-20T13:31:19Z</time>
      </trkpt>
      <trkpt lat="43.29695" lon="-1.03729">
        <ele>168.37</ele>
        <time>2021-08-20T13:31:31Z</time>
      </trkpt>
      <trkpt lat="43.29689" lon="-1.03733">
        <ele>168.37</ele>
        <time>2021-08-20T13:31:39Z</time>
      </trkpt>
      <trkpt lat="43.29681" lon="-1.03738">
        <ele>170.29</ele>
        <time>2021-08-20T13:31:49Z</time>
      </trkpt>
      <trkpt lat="43.29673" lon="-1.03744">
        <ele>171.73</ele>
        <time>2021-08-20T13:32:00Z</time>
      </trkpt>
      <trkpt lat="43.29666" lon="-1.03749">
        <ele>173.17</ele>
        <time>2021-08-20T13:32:10Z</time>
      </trkpt>
      <trkpt lat="43.29658" lon="-1.03755">
        <ele>174.62</ele>
        <time>2021-08-20T13:32:20Z</time>
      </trkpt>
      <trkpt lat="43.29651" lon="-1.03758">
        <ele>175.58</ele>
        <time>2021-08-20T13:32:29Z</time>
      </trkpt>
      <trkpt lat="43.29644" lon="-1.03762">
        <ele>176.54</ele>
        <time>2021-08-20T13:32:38Z</time>
      </trkpt>
      <trkpt lat="43.29638" lon="-1.03766">
        <ele>178.46</ele>
        <time>2021-08-20T13:32:47Z</time>
      </trkpt>
      <trkpt lat="43.29633" lon="-1.03768">
        <ele>178.94</ele>
        <time>2021-08-20T13:32:55Z</time>
      </trkpt>
      <trkpt lat="43.29623" lon="-1.03771">
        <ele>180.87</ele>
        <time>2021-08-20T13:33:07Z</time>
      </trkpt>
      <trkpt lat="43.29617" lon="-1.03774">
        <ele>182.31</ele>
        <time>2021-08-20T13:33:15Z</time>
      </trkpt>
      <trkpt lat="43.29612" lon="-1.03776">
        <ele>182.31</ele>
        <time>2021-08-20T13:33:23Z</time>
      </trkpt>
      <trkpt lat="43.29606" lon="-1.03778">
        <ele>183.75</ele>
        <time>2021-08-20T13:33:31Z</time>
      </trkpt>
      <trkpt lat="43.29599" lon="-1.03782">
        <ele>185.19</ele>
        <time>2021-08-20T13:33:41Z</time>
      </trkpt>
      <trkpt lat="43.29591" lon="-1.03786">
        <ele>186.63</ele>
        <time>2021-08-20T13:33:53Z</time>
      </trkpt>
      <trkpt lat="43.29582" lon="-1.03791">
        <ele>188.56</ele>
        <time>2021-08-20T13:34:04Z</time>
      </trkpt>
      <trkpt lat="43.29576" lon="-1.03795">
        <ele>189.04</ele>
        <time>2021-08-20T13:34:12Z</time>
      </trkpt>
      <trkpt lat="43.2957" lon="-1.038">
        <ele>190.48</ele>
        <time>2021-08-20T13:34:22Z</time>
      </trkpt>
      <trkpt lat="43.29564" lon="-1.03802">
        <ele>191.44</ele>
        <time>2021-08-20T13:34:29Z</time>
      </trkpt>
      <trkpt lat="43.29557" lon="-1.03804">
        <ele>192.88</ele>
        <time>2021-08-20T13:34:38Z</time>
      </trkpt>
      <trkpt lat="43.29556" lon="-1.03804">
        <ele>192.88</ele>
        <time>2021-08-20T13:34:47Z</time>
      </trkpt>
      <trkpt lat="43.2955" lon="-1.03807">
        <ele>193.84</ele>
        <time>2021-08-20T13:34:57Z</time>
      </trkpt>
      <trkpt lat="43.29546" lon="-1.03811">
        <ele>194.32</ele>
        <time>2021-08-20T13:35:05Z</time>
      </trkpt>
      <trkpt lat="43.2954" lon="-1.03818">
        <ele>195.77</ele>
        <time>2021-08-20T13:35:14Z</time>
      </trkpt>
      <trkpt lat="43.29534" lon="-1.03822">
        <ele>196.73</ele>
        <time>2021-08-20T13:35:22Z</time>
      </trkpt>
      <trkpt lat="43.29526" lon="-1.03829">
        <ele>197.69</ele>
        <time>2021-08-20T13:35:30Z</time>
      </trkpt>
      <trkpt lat="43.2952" lon="-1.03835">
        <ele>198.17</ele>
        <time>2021-08-20T13:35:37Z</time>
      </trkpt>
      <trkpt lat="43.29518" lon="-1.03836">
        <ele>198.65</ele>
        <time>2021-08-20T13:35:39Z</time>
      </trkpt>
      <trkpt lat="43.29516" lon="-1.0384">
        <ele>199.13</ele>
        <time>2021-08-20T13:35:43Z</time>
      </trkpt>
      <trkpt lat="43.2951" lon="-1.03845">
        <ele>200.57</ele>
        <time>2021-08-20T13:35:51Z</time>
      </trkpt>
      <trkpt lat="43.29503" lon="-1.0385">
        <ele>201.05</ele>
        <time>2021-08-20T13:35:59Z</time>
      </trkpt>
      <trkpt lat="43.29494" lon="-1.03858">
        <ele>202.49</ele>
        <time>2021-08-20T13:36:10Z</time>
      </trkpt>
      <trkpt lat="43.29485" lon="-1.03868">
        <ele>203.46</ele>
        <time>2021-08-20T13:36:20Z</time>
      </trkpt>
      <trkpt lat="43.29484" lon="-1.03869">
        <ele>203.46</ele>
        <time>2021-08-20T13:36:21Z</time>
      </trkpt>
      <trkpt lat="43.29483" lon="-1.03869">
        <ele>203.94</ele>
        <time>2021-08-20T13:36:22Z</time>
      </trkpt>
      <trkpt lat="43.29482" lon="-1.0387">
        <ele>203.94</ele>
        <time>2021-08-20T13:36:23Z</time>
      </trkpt>
      <trkpt lat="43.29481" lon="-1.03871">
        <ele>203.94</ele>
        <time>2021-08-20T13:36:24Z</time>
      </trkpt>
      <trkpt lat="43.29475" lon="-1.03874">
        <ele>205.86</ele>
        <time>2021-08-20T13:36:31Z</time>
      </trkpt>
      <trkpt lat="43.29469" lon="-1.0388">
        <ele>206.82</ele>
        <time>2021-08-20T13:36:39Z</time>
      </trkpt>
      <trkpt lat="43.29463" lon="-1.03885">
        <ele>207.78</ele>
        <time>2021-08-20T13:36:47Z</time>
      </trkpt>
      <trkpt lat="43.29455" lon="-1.03891">
        <ele>208.74</ele>
        <time>2021-08-20T13:36:57Z</time>
      </trkpt>
      <trkpt lat="43.29448" lon="-1.03896">
        <ele>209.22</ele>
        <time>2021-08-20T13:37:05Z</time>
      </trkpt>
      <trkpt lat="43.29442" lon="-1.03902">
        <ele>211.15</ele>
        <time>2021-08-20T13:37:14Z</time>
      </trkpt>
      <trkpt lat="43.29436" lon="-1.03909">
        <ele>212.11</ele>
        <time>2021-08-20T13:37:23Z</time>
      </trkpt>
      <trkpt lat="43.29429" lon="-1.03915">
        <ele>213.55</ele>
        <time>2021-08-20T13:37:32Z</time>
      </trkpt>
      <trkpt lat="43.29422" lon="-1.0392">
        <ele>214.51</ele>
        <time>2021-08-20T13:37:41Z</time>
      </trkpt>
      <trkpt lat="43.29417" lon="-1.03925">
        <ele>215.47</ele>
        <time>2021-08-20T13:37:48Z</time>
      </trkpt>
      <trkpt lat="43.29411" lon="-1.0393">
        <ele>215.95</ele>
        <time>2021-08-20T13:37:56Z</time>
      </trkpt>
      <trkpt lat="43.29404" lon="-1.03935">
        <ele>217.4</ele>
        <time>2021-08-20T13:38:05Z</time>
      </trkpt>
      <trkpt lat="43.29398" lon="-1.03942">
        <ele>218.36</ele>
        <time>2021-08-20T13:38:14Z</time>
      </trkpt>
      <trkpt lat="43.29391" lon="-1.03949">
        <ele>219.8</ele>
        <time>2021-08-20T13:38:24Z</time>
      </trkpt>
      <trkpt lat="43.29384" lon="-1.03955">
        <ele>221.24</ele>
        <time>2021-08-20T13:38:33Z</time>
      </trkpt>
      <trkpt lat="43.29377" lon="-1.0396">
        <ele>222.68</ele>
        <time>2021-08-20T13:38:42Z</time>
      </trkpt>
      <trkpt lat="43.29371" lon="-1.03964">
        <ele>223.64</ele>
        <time>2021-08-20T13:38:49Z</time>
      </trkpt>
      <trkpt lat="43.29363" lon="-1.03969">
        <ele>224.61</ele>
        <time>2021-08-20T13:38:58Z</time>
      </trkpt>
      <trkpt lat="43.29355" lon="-1.03974">
        <ele>226.05</ele>
        <time>2021-08-20T13:39:08Z</time>
      </trkpt>
      <trkpt lat="43.29349" lon="-1.03977">
        <ele>227.01</ele>
        <time>2021-08-20T13:39:16Z</time>
      </trkpt>
      <trkpt lat="43.29342" lon="-1.03981">
        <ele>227.97</ele>
        <time>2021-08-20T13:39:24Z</time>
      </trkpt>
      <trkpt lat="43.29335" lon="-1.03985">
        <ele>229.41</ele>
        <time>2021-08-20T13:39:33Z</time>
      </trkpt>
      <trkpt lat="43.29327" lon="-1.0399">
        <ele>230.37</ele>
        <time>2021-08-20T13:39:43Z</time>
      </trkpt>
      <trkpt lat="43.2932" lon="-1.03995">
        <ele>231.81</ele>
        <time>2021-08-20T13:39:52Z</time>
      </trkpt>
      <trkpt lat="43.29314" lon="-1.04">
        <ele>232.78</ele>
        <time>2021-08-20T13:40:00Z</time>
      </trkpt>
      <trkpt lat="43.29308" lon="-1.04006">
        <ele>234.7</ele>
        <time>2021-08-20T13:40:10Z</time>
      </trkpt>
      <trkpt lat="43.29301" lon="-1.0401">
        <ele>235.66</ele>
        <time>2021-08-20T13:40:18Z</time>
      </trkpt>
      <trkpt lat="43.29299" lon="-1.04012">
        <ele>236.14</ele>
        <time>2021-08-20T13:40:21Z</time>
      </trkpt>
      <trkpt lat="43.29298" lon="-1.04014">
        <ele>236.14</ele>
        <time>2021-08-20T13:40:22Z</time>
      </trkpt>
      <trkpt lat="43.29294" lon="-1.04016">
        <ele>236.62</ele>
        <time>2021-08-20T13:40:27Z</time>
      </trkpt>
      <trkpt lat="43.29293" lon="-1.04015">
        <ele>237.1</ele>
        <time>2021-08-20T13:40:28Z</time>
      </trkpt>
      <trkpt lat="43.29289" lon="-1.04018">
        <ele>237.58</ele>
        <time>2021-08-20T13:40:34Z</time>
      </trkpt>
      <trkpt lat="43.29284" lon="-1.04022">
        <ele>238.54</ele>
        <time>2021-08-20T13:40:40Z</time>
      </trkpt>
      <trkpt lat="43.29279" lon="-1.04027">
        <ele>239.99</ele>
        <time>2021-08-20T13:40:48Z</time>
      </trkpt>
      <trkpt lat="43.29272" lon="-1.04034">
        <ele>240.95</ele>
        <time>2021-08-20T13:40:57Z</time>
      </trkpt>
      <trkpt lat="43.29265" lon="-1.0404">
        <ele>242.39</ele>
        <time>2021-08-20T13:41:07Z</time>
      </trkpt>
      <trkpt lat="43.29258" lon="-1.04045">
        <ele>244.31</ele>
        <time>2021-08-20T13:41:17Z</time>
      </trkpt>
      <trkpt lat="43.29251" lon="-1.04049">
        <ele>245.27</ele>
        <time>2021-08-20T13:41:25Z</time>
      </trkpt>
      <trkpt lat="43.29243" lon="-1.04053">
        <ele>246.72</ele>
        <time>2021-08-20T13:41:36Z</time>
      </trkpt>
      <trkpt lat="43.29236" lon="-1.04059">
        <ele>247.68</ele>
        <time>2021-08-20T13:41:45Z</time>
      </trkpt>
      <trkpt lat="43.2923" lon="-1.04065">
        <ele>249.6</ele>
        <time>2021-08-20T13:41:55Z</time>
      </trkpt>
      <trkpt lat="43.29224" lon="-1.04071">
        <ele>251.04</ele>
        <time>2021-08-20T13:42:05Z</time>
      </trkpt>
      <trkpt lat="43.29218" lon="-1.04076">
        <ele>252</ele>
        <time>2021-08-20T13:42:14Z</time>
      </trkpt>
      <trkpt lat="43.29212" lon="-1.04082">
        <ele>253.93</ele>
        <time>2021-08-20T13:42:23Z</time>
      </trkpt>
      <trkpt lat="43.29206" lon="-1.04086">
        <ele>254.89</ele>
        <time>2021-08-20T13:42:31Z</time>
      </trkpt>
      <trkpt lat="43.29199" lon="-1.04091">
        <ele>255.85</ele>
        <time>2021-08-20T13:42:39Z</time>
      </trkpt>
      <trkpt lat="43.2919" lon="-1.04096">
        <ele>256.81</ele>
        <time>2021-08-20T13:42:49Z</time>
      </trkpt>
      <trkpt lat="43.29182" lon="-1.04099">
        <ele>257.77</ele>
        <time>2021-08-20T13:42:57Z</time>
      </trkpt>
      <trkpt lat="43.29172" lon="-1.04102">
        <ele>258.73</ele>
        <time>2021-08-20T13:43:07Z</time>
      </trkpt>
      <trkpt lat="43.29159" lon="-1.04103">
        <ele>260.17</ele>
        <time>2021-08-20T13:43:18Z</time>
      </trkpt>
      <trkpt lat="43.2915" lon="-1.04104">
        <ele>260.17</ele>
        <time>2021-08-20T13:43:27Z</time>
      </trkpt>
      <trkpt lat="43.29137" lon="-1.04105">
        <ele>262.1</ele>
        <time>2021-08-20T13:43:38Z</time>
      </trkpt>
      <trkpt lat="43.2913" lon="-1.04106">
        <ele>262.1</ele>
        <time>2021-08-20T13:43:47Z</time>
      </trkpt>
      <trkpt lat="43.29129" lon="-1.04106">
        <ele>262.1</ele>
        <time>2021-08-20T13:43:49Z</time>
      </trkpt>
      <trkpt lat="43.29128" lon="-1.04105">
        <ele>262.1</ele>
        <time>2021-08-20T13:43:50Z</time>
      </trkpt>
      <trkpt lat="43.29127" lon="-1.04105">
        <ele>262.1</ele>
        <time>2021-08-20T13:43:51Z</time>
      </trkpt>
      <trkpt lat="43.29125" lon="-1.04105">
        <ele>262.1</ele>
        <time>2021-08-20T13:43:52Z</time>
      </trkpt>
      <trkpt lat="43.29123" lon="-1.04105">
        <ele>262.1</ele>
        <time>2021-08-20T13:43:53Z</time>
      </trkpt>
      <trkpt lat="43.29108" lon="-1.04107">
        <ele>263.06</ele>
        <time>2021-08-20T13:44:00Z</time>
      </trkpt>
      <trkpt lat="43.29091" lon="-1.04107">
        <ele>264.5</ele>
        <time>2021-08-20T13:44:08Z</time>
      </trkpt>
      <trkpt lat="43.29076" lon="-1.0411">
        <ele>265.46</ele>
        <time>2021-08-20T13:44:15Z</time>
      </trkpt>
      <trkpt lat="43.29061" lon="-1.04114">
        <ele>266.42</ele>
        <time>2021-08-20T13:44:23Z</time>
      </trkpt>
      <trkpt lat="43.29048" lon="-1.04117">
        <ele>267.86</ele>
        <time>2021-08-20T13:44:30Z</time>
      </trkpt>
      <trkpt lat="43.29035" lon="-1.04124">
        <ele>268.83</ele>
        <time>2021-08-20T13:44:38Z</time>
      </trkpt>
      <trkpt lat="43.29022" lon="-1.0413">
        <ele>270.27</ele>
        <time>2021-08-20T13:44:47Z</time>
      </trkpt>
      <trkpt lat="43.29011" lon="-1.04135">
        <ele>271.23</ele>
        <time>2021-08-20T13:44:53Z</time>
      </trkpt>
      <trkpt lat="43.29006" lon="-1.04137">
        <ele>271.71</ele>
        <time>2021-08-20T13:44:56Z</time>
      </trkpt>
      <trkpt lat="43.29004" lon="-1.04137">
        <ele>271.71</ele>
        <time>2021-08-20T13:44:57Z</time>
      </trkpt>
      <trkpt lat="43.29002" lon="-1.04137">
        <ele>271.71</ele>
        <time>2021-08-20T13:44:58Z</time>
      </trkpt>
      <trkpt lat="43.29" lon="-1.04138">
        <ele>272.19</ele>
        <time>2021-08-20T13:44:59Z</time>
      </trkpt>
      <trkpt lat="43.28999" lon="-1.04138">
        <ele>272.19</ele>
        <time>2021-08-20T13:45:00Z</time>
      </trkpt>
      <trkpt lat="43.28997" lon="-1.04139">
        <ele>272.67</ele>
        <time>2021-08-20T13:45:01Z</time>
      </trkpt>
      <trkpt lat="43.2898" lon="-1.04144">
        <ele>274.11</ele>
        <time>2021-08-20T13:45:10Z</time>
      </trkpt>
      <trkpt lat="43.28963" lon="-1.0415">
        <ele>275.07</ele>
        <time>2021-08-20T13:45:19Z</time>
      </trkpt>
      <trkpt lat="43.28949" lon="-1.04156">
        <ele>276.04</ele>
        <time>2021-08-20T13:45:26Z</time>
      </trkpt>
      <trkpt lat="43.28941" lon="-1.0416">
        <ele>276.52</ele>
        <time>2021-08-20T13:45:31Z</time>
      </trkpt>
      <trkpt lat="43.28928" lon="-1.04166">
        <ele>277.48</ele>
        <time>2021-08-20T13:45:38Z</time>
      </trkpt>
      <trkpt lat="43.28914" lon="-1.04172">
        <ele>277.96</ele>
        <time>2021-08-20T13:45:45Z</time>
      </trkpt>
      <trkpt lat="43.28893" lon="-1.04183">
        <ele>279.4</ele>
        <time>2021-08-20T13:45:55Z</time>
      </trkpt>
      <trkpt lat="43.28877" lon="-1.0419">
        <ele>280.84</ele>
        <time>2021-08-20T13:46:03Z</time>
      </trkpt>
      <trkpt lat="43.2886" lon="-1.04197">
        <ele>281.8</ele>
        <time>2021-08-20T13:46:11Z</time>
      </trkpt>
      <trkpt lat="43.2884" lon="-1.04198">
        <ele>282.28</ele>
        <time>2021-08-20T13:46:19Z</time>
      </trkpt>
      <trkpt lat="43.28823" lon="-1.04198">
        <ele>282.77</ele>
        <time>2021-08-20T13:46:25Z</time>
      </trkpt>
      <trkpt lat="43.28806" lon="-1.04192">
        <ele>283.25</ele>
        <time>2021-08-20T13:46:31Z</time>
      </trkpt>
      <trkpt lat="43.28782" lon="-1.04197">
        <ele>283.25</ele>
        <time>2021-08-20T13:46:39Z</time>
      </trkpt>
      <trkpt lat="43.28754" lon="-1.04202">
        <ele>281.8</ele>
        <time>2021-08-20T13:46:47Z</time>
      </trkpt>
      <trkpt lat="43.28745" lon="-1.04203">
        <ele>281.32</ele>
        <time>2021-08-20T13:46:49Z</time>
      </trkpt>
      <trkpt lat="43.28721" lon="-1.04204">
        <ele>279.88</ele>
        <time>2021-08-20T13:46:54Z</time>
      </trkpt>
      <trkpt lat="43.28678" lon="-1.04209">
        <ele>277.48</ele>
        <time>2021-08-20T13:47:01Z</time>
      </trkpt>
      <trkpt lat="43.28644" lon="-1.04212">
        <ele>274.59</ele>
        <time>2021-08-20T13:47:06Z</time>
      </trkpt>
      <trkpt lat="43.28617" lon="-1.04217">
        <ele>274.11</ele>
        <time>2021-08-20T13:47:10Z</time>
      </trkpt>
      <trkpt lat="43.2861" lon="-1.04219">
        <ele>274.11</ele>
        <time>2021-08-20T13:47:11Z</time>
      </trkpt>
      <trkpt lat="43.28605" lon="-1.04223">
        <ele>274.11</ele>
        <time>2021-08-20T13:47:12Z</time>
      </trkpt>
      <trkpt lat="43.28599" lon="-1.04226">
        <ele>274.11</ele>
        <time>2021-08-20T13:47:13Z</time>
      </trkpt>
      <trkpt lat="43.28593" lon="-1.04228">
        <ele>274.11</ele>
        <time>2021-08-20T13:47:14Z</time>
      </trkpt>
      <trkpt lat="43.28588" lon="-1.0423">
        <ele>274.11</ele>
        <time>2021-08-20T13:47:15Z</time>
      </trkpt>
      <trkpt lat="43.28583" lon="-1.04232">
        <ele>274.11</ele>
        <time>2021-08-20T13:47:16Z</time>
      </trkpt>
      <trkpt lat="43.28578" lon="-1.04235">
        <ele>274.11</ele>
        <time>2021-08-20T13:47:17Z</time>
      </trkpt>
      <trkpt lat="43.28574" lon="-1.04238">
        <ele>274.11</ele>
        <time>2021-08-20T13:47:18Z</time>
      </trkpt>
      <trkpt lat="43.2857" lon="-1.04241">
        <ele>274.11</ele>
        <time>2021-08-20T13:47:19Z</time>
      </trkpt>
      <trkpt lat="43.2855" lon="-1.04257">
        <ele>275.56</ele>
        <time>2021-08-20T13:47:25Z</time>
      </trkpt>
      <trkpt lat="43.28532" lon="-1.04268">
        <ele>277</ele>
        <time>2021-08-20T13:47:32Z</time>
      </trkpt>
      <trkpt lat="43.28518" lon="-1.0428">
        <ele>277.96</ele>
        <time>2021-08-20T13:47:39Z</time>
      </trkpt>
      <trkpt lat="43.28506" lon="-1.0429">
        <ele>278.92</ele>
        <time>2021-08-20T13:47:46Z</time>
      </trkpt>
      <trkpt lat="43.28493" lon="-1.04303">
        <ele>280.84</ele>
        <time>2021-08-20T13:47:54Z</time>
      </trkpt>
      <trkpt lat="43.28479" lon="-1.04313">
        <ele>281.8</ele>
        <time>2021-08-20T13:48:02Z</time>
      </trkpt>
      <trkpt lat="43.28468" lon="-1.04323">
        <ele>283.25</ele>
        <time>2021-08-20T13:48:09Z</time>
      </trkpt>
      <trkpt lat="43.2846" lon="-1.04329">
        <ele>284.21</ele>
        <time>2021-08-20T13:48:15Z</time>
      </trkpt>
      <trkpt lat="43.28458" lon="-1.04329">
        <ele>284.21</ele>
        <time>2021-08-20T13:48:16Z</time>
      </trkpt>
      <trkpt lat="43.28457" lon="-1.0433">
        <ele>284.21</ele>
        <time>2021-08-20T13:48:17Z</time>
      </trkpt>
      <trkpt lat="43.28455" lon="-1.04332">
        <ele>284.69</ele>
        <time>2021-08-20T13:48:20Z</time>
      </trkpt>
      <trkpt lat="43.2845" lon="-1.04336">
        <ele>285.65</ele>
        <time>2021-08-20T13:48:27Z</time>
      </trkpt>
      <trkpt lat="43.28445" lon="-1.0434">
        <ele>286.13</ele>
        <time>2021-08-20T13:48:32Z</time>
      </trkpt>
      <trkpt lat="43.28436" lon="-1.04345">
        <ele>287.09</ele>
        <time>2021-08-20T13:48:42Z</time>
      </trkpt>
      <trkpt lat="43.28425" lon="-1.04353">
        <ele>288.05</ele>
        <time>2021-08-20T13:48:53Z</time>
      </trkpt>
      <trkpt lat="43.28416" lon="-1.0436">
        <ele>289.01</ele>
        <time>2021-08-20T13:49:03Z</time>
      </trkpt>
      <trkpt lat="43.28413" lon="-1.04363">
        <ele>289.01</ele>
        <time>2021-08-20T13:49:08Z</time>
      </trkpt>
      <trkpt lat="43.28412" lon="-1.04364">
        <ele>289.01</ele>
        <time>2021-08-20T13:49:09Z</time>
      </trkpt>
      <trkpt lat="43.284" lon="-1.04379">
        <ele>289.97</ele>
        <time>2021-08-20T13:49:17Z</time>
      </trkpt>
      <trkpt lat="43.28387" lon="-1.04399">
        <ele>290.46</ele>
        <time>2021-08-20T13:49:26Z</time>
      </trkpt>
      <trkpt lat="43.28375" lon="-1.04424">
        <ele>291.42</ele>
        <time>2021-08-20T13:49:35Z</time>
      </trkpt>
      <trkpt lat="43.28367" lon="-1.04442">
        <ele>292.38</ele>
        <time>2021-08-20T13:49:42Z</time>
      </trkpt>
      <trkpt lat="43.2836" lon="-1.04461">
        <ele>293.34</ele>
        <time>2021-08-20T13:49:50Z</time>
      </trkpt>
      <trkpt lat="43.28358" lon="-1.04466">
        <ele>294.3</ele>
        <time>2021-08-20T13:49:52Z</time>
      </trkpt>
      <trkpt lat="43.28358" lon="-1.04468">
        <ele>294.3</ele>
        <time>2021-08-20T13:49:53Z</time>
      </trkpt>
      <trkpt lat="43.28357" lon="-1.0447">
        <ele>294.78</ele>
        <time>2021-08-20T13:49:54Z</time>
      </trkpt>
      <trkpt lat="43.28352" lon="-1.04487">
        <ele>295.26</ele>
        <time>2021-08-20T13:50:01Z</time>
      </trkpt>
      <trkpt lat="43.28347" lon="-1.04508">
        <ele>296.7</ele>
        <time>2021-08-20T13:50:09Z</time>
      </trkpt>
      <trkpt lat="43.28343" lon="-1.04526">
        <ele>297.67</ele>
        <time>2021-08-20T13:50:16Z</time>
      </trkpt>
      <trkpt lat="43.28341" lon="-1.04551">
        <ele>298.63</ele>
        <time>2021-08-20T13:50:25Z</time>
      </trkpt>
      <trkpt lat="43.28335" lon="-1.04572">
        <ele>298.63</ele>
        <time>2021-08-20T13:50:32Z</time>
      </trkpt>
      <trkpt lat="43.28332" lon="-1.04596">
        <ele>299.59</ele>
        <time>2021-08-20T13:50:40Z</time>
      </trkpt>
      <trkpt lat="43.28332" lon="-1.04615">
        <ele>299.59</ele>
        <time>2021-08-20T13:50:46Z</time>
      </trkpt>
      <trkpt lat="43.2833" lon="-1.04631">
        <ele>299.59</ele>
        <time>2021-08-20T13:50:50Z</time>
      </trkpt>
      <trkpt lat="43.28329" lon="-1.04635">
        <ele>299.59</ele>
        <time>2021-08-20T13:50:51Z</time>
      </trkpt>
      <trkpt lat="43.28329" lon="-1.04666">
        <ele>299.59</ele>
        <time>2021-08-20T13:50:56Z</time>
      </trkpt>
      <trkpt lat="43.2833" lon="-1.04673">
        <ele>299.59</ele>
        <time>2021-08-20T13:50:57Z</time>
      </trkpt>
      <trkpt lat="43.28333" lon="-1.04686">
        <ele>299.59</ele>
        <time>2021-08-20T13:50:59Z</time>
      </trkpt>
      <trkpt lat="43.28345" lon="-1.04723">
        <ele>299.59</ele>
        <time>2021-08-20T13:51:06Z</time>
      </trkpt>
      <trkpt lat="43.28357" lon="-1.04759">
        <ele>299.59</ele>
        <time>2021-08-20T13:51:13Z</time>
      </trkpt>
      <trkpt lat="43.28353" lon="-1.04783">
        <ele>300.07</ele>
        <time>2021-08-20T13:51:18Z</time>
      </trkpt>
      <trkpt lat="43.28351" lon="-1.04788">
        <ele>300.55</ele>
        <time>2021-08-20T13:51:19Z</time>
      </trkpt>
      <trkpt lat="43.28331" lon="-1.04819">
        <ele>301.51</ele>
        <time>2021-08-20T13:51:27Z</time>
      </trkpt>
      <trkpt lat="43.28322" lon="-1.04833">
        <ele>300.07</ele>
        <time>2021-08-20T13:51:30Z</time>
      </trkpt>
      <trkpt lat="43.28319" lon="-1.04838">
        <ele>300.07</ele>
        <time>2021-08-20T13:51:31Z</time>
      </trkpt>
      <trkpt lat="43.28317" lon="-1.04842">
        <ele>299.11</ele>
        <time>2021-08-20T13:51:32Z</time>
      </trkpt>
      <trkpt lat="43.28306" lon="-1.04863">
        <ele>297.67</ele>
        <time>2021-08-20T13:51:37Z</time>
      </trkpt>
      <trkpt lat="43.28304" lon="-1.04868">
        <ele>297.18</ele>
        <time>2021-08-20T13:51:38Z</time>
      </trkpt>
      <trkpt lat="43.28302" lon="-1.04875">
        <ele>297.18</ele>
        <time>2021-08-20T13:51:39Z</time>
      </trkpt>
      <trkpt lat="43.28296" lon="-1.04922">
        <ele>297.18</ele>
        <time>2021-08-20T13:51:47Z</time>
      </trkpt>
      <trkpt lat="43.28295" lon="-1.04927">
        <ele>297.18</ele>
        <time>2021-08-20T13:51:48Z</time>
      </trkpt>
      <trkpt lat="43.28294" lon="-1.04933">
        <ele>297.18</ele>
        <time>2021-08-20T13:51:49Z</time>
      </trkpt>
      <trkpt lat="43.28293" lon="-1.04946">
        <ele>297.18</ele>
        <time>2021-08-20T13:51:51Z</time>
      </trkpt>
      <trkpt lat="43.28293" lon="-1.04952">
        <ele>297.18</ele>
        <time>2021-08-20T13:51:52Z</time>
      </trkpt>
      <trkpt lat="43.2829" lon="-1.04972">
        <ele>296.22</ele>
        <time>2021-08-20T13:51:55Z</time>
      </trkpt>
      <trkpt lat="43.28289" lon="-1.04978">
        <ele>296.22</ele>
        <time>2021-08-20T13:51:56Z</time>
      </trkpt>
      <trkpt lat="43.28288" lon="-1.04985">
        <ele>295.74</ele>
        <time>2021-08-20T13:51:57Z</time>
      </trkpt>
      <trkpt lat="43.28287" lon="-1.04992">
        <ele>295.26</ele>
        <time>2021-08-20T13:51:58Z</time>
      </trkpt>
      <trkpt lat="43.28288" lon="-1.05001">
        <ele>294.3</ele>
        <time>2021-08-20T13:51:59Z</time>
      </trkpt>
      <trkpt lat="43.28287" lon="-1.05008">
        <ele>294.3</ele>
        <time>2021-08-20T13:52:00Z</time>
      </trkpt>
      <trkpt lat="43.28287" lon="-1.05014">
        <ele>294.3</ele>
        <time>2021-08-20T13:52:01Z</time>
      </trkpt>
      <trkpt lat="43.28283" lon="-1.05046">
        <ele>292.86</ele>
        <time>2021-08-20T13:52:07Z</time>
      </trkpt>
      <trkpt lat="43.2828" lon="-1.05063">
        <ele>291.42</ele>
        <time>2021-08-20T13:52:15Z</time>
      </trkpt>
      <trkpt lat="43.2828" lon="-1.05063">
        <ele>291.42</ele>
        <time>2021-08-20T13:52:25Z</time>
      </trkpt>
      <trkpt lat="43.28279" lon="-1.05062">
        <ele>291.42</ele>
        <time>2021-08-20T13:52:31Z</time>
      </trkpt>
      <trkpt lat="43.28275" lon="-1.05062">
        <ele>291.42</ele>
        <time>2021-08-20T13:52:39Z</time>
      </trkpt>
      <trkpt lat="43.28274" lon="-1.05062">
        <ele>291.42</ele>
        <time>2021-08-20T13:52:42Z</time>
      </trkpt>
      <trkpt lat="43.28272" lon="-1.05064">
        <ele>290.94</ele>
        <time>2021-08-20T13:52:44Z</time>
      </trkpt>
      <trkpt lat="43.2827" lon="-1.05084">
        <ele>289.97</ele>
        <time>2021-08-20T13:52:50Z</time>
      </trkpt>
      <trkpt lat="43.28268" lon="-1.05123">
        <ele>286.13</ele>
        <time>2021-08-20T13:52:55Z</time>
      </trkpt>
      <trkpt lat="43.28265" lon="-1.05158">
        <ele>282.28</ele>
        <time>2021-08-20T13:52:59Z</time>
      </trkpt>
      <trkpt lat="43.28262" lon="-1.05187">
        <ele>278.44</ele>
        <time>2021-08-20T13:53:03Z</time>
      </trkpt>
      <trkpt lat="43.28258" lon="-1.05214">
        <ele>275.07</ele>
        <time>2021-08-20T13:53:08Z</time>
      </trkpt>
      <trkpt lat="43.28256" lon="-1.05231">
        <ele>272.67</ele>
        <time>2021-08-20T13:53:11Z</time>
      </trkpt>
      <trkpt lat="43.28254" lon="-1.05256">
        <ele>268.83</ele>
        <time>2021-08-20T13:53:15Z</time>
      </trkpt>
      <trkpt lat="43.28252" lon="-1.05279">
        <ele>264.5</ele>
        <time>2021-08-20T13:53:19Z</time>
      </trkpt>
      <trkpt lat="43.28248" lon="-1.05305">
        <ele>263.06</ele>
        <time>2021-08-20T13:53:23Z</time>
      </trkpt>
      <trkpt lat="43.28246" lon="-1.05331">
        <ele>261.14</ele>
        <time>2021-08-20T13:53:26Z</time>
      </trkpt>
      <trkpt lat="43.28243" lon="-1.05356">
        <ele>260.65</ele>
        <time>2021-08-20T13:53:29Z</time>
      </trkpt>
      <trkpt lat="43.28241" lon="-1.05362">
        <ele>261.14</ele>
        <time>2021-08-20T13:53:30Z</time>
      </trkpt>
      <trkpt lat="43.28237" lon="-1.05373">
        <ele>262.58</ele>
        <time>2021-08-20T13:53:32Z</time>
      </trkpt>
      <trkpt lat="43.28231" lon="-1.05391">
        <ele>263.54</ele>
        <time>2021-08-20T13:53:37Z</time>
      </trkpt>
      <trkpt lat="43.2822" lon="-1.05426">
        <ele>264.02</ele>
        <time>2021-08-20T13:53:45Z</time>
      </trkpt>
      <trkpt lat="43.28212" lon="-1.05449">
        <ele>264.5</ele>
        <time>2021-08-20T13:53:51Z</time>
      </trkpt>
      <trkpt lat="43.28203" lon="-1.05476">
        <ele>264.5</ele>
        <time>2021-08-20T13:53:57Z</time>
      </trkpt>
      <trkpt lat="43.28192" lon="-1.05521">
        <ele>261.62</ele>
        <time>2021-08-20T13:54:03Z</time>
      </trkpt>
      <trkpt lat="43.2819" lon="-1.05529">
        <ele>260.17</ele>
        <time>2021-08-20T13:54:04Z</time>
      </trkpt>
      <trkpt lat="43.2819" lon="-1.0554">
        <ele>259.21</ele>
        <time>2021-08-20T13:54:05Z</time>
      </trkpt>
      <trkpt lat="43.28191" lon="-1.05551">
        <ele>258.25</ele>
        <time>2021-08-20T13:54:06Z</time>
      </trkpt>
      <trkpt lat="43.28192" lon="-1.05562">
        <ele>258.25</ele>
        <time>2021-08-20T13:54:07Z</time>
      </trkpt>
      <trkpt lat="43.28194" lon="-1.05573">
        <ele>257.29</ele>
        <time>2021-08-20T13:54:08Z</time>
      </trkpt>
      <trkpt lat="43.28205" lon="-1.05628">
        <ele>254.41</ele>
        <time>2021-08-20T13:54:13Z</time>
      </trkpt>
      <trkpt lat="43.28214" lon="-1.05663">
        <ele>250.08</ele>
        <time>2021-08-20T13:54:16Z</time>
      </trkpt>
      <trkpt lat="43.2822" lon="-1.05687">
        <ele>246.72</ele>
        <time>2021-08-20T13:54:18Z</time>
      </trkpt>
      <trkpt lat="43.2823" lon="-1.05733">
        <ele>242.87</ele>
        <time>2021-08-20T13:54:22Z</time>
      </trkpt>
      <trkpt lat="43.28235" lon="-1.05755">
        <ele>239.51</ele>
        <time>2021-08-20T13:54:24Z</time>
      </trkpt>
      <trkpt lat="43.28244" lon="-1.058">
        <ele>235.66</ele>
        <time>2021-08-20T13:54:28Z</time>
      </trkpt>
      <trkpt lat="43.28247" lon="-1.05812">
        <ele>235.66</ele>
        <time>2021-08-20T13:54:29Z</time>
      </trkpt>
      <trkpt lat="43.28248" lon="-1.05823">
        <ele>234.7</ele>
        <time>2021-08-20T13:54:30Z</time>
      </trkpt>
      <trkpt lat="43.28247" lon="-1.05834">
        <ele>234.7</ele>
        <time>2021-08-20T13:54:31Z</time>
      </trkpt>
      <trkpt lat="43.28246" lon="-1.05844">
        <ele>236.62</ele>
        <time>2021-08-20T13:54:32Z</time>
      </trkpt>
      <trkpt lat="43.28245" lon="-1.05853">
        <ele>236.62</ele>
        <time>2021-08-20T13:54:33Z</time>
      </trkpt>
      <trkpt lat="43.28243" lon="-1.05861">
        <ele>237.1</ele>
        <time>2021-08-20T13:54:34Z</time>
      </trkpt>
      <trkpt lat="43.28242" lon="-1.05868">
        <ele>237.1</ele>
        <time>2021-08-20T13:54:35Z</time>
      </trkpt>
      <trkpt lat="43.2824" lon="-1.05874">
        <ele>237.1</ele>
        <time>2021-08-20T13:54:36Z</time>
      </trkpt>
      <trkpt lat="43.28236" lon="-1.05893">
        <ele>237.1</ele>
        <time>2021-08-20T13:54:39Z</time>
      </trkpt>
      <trkpt lat="43.28234" lon="-1.05899">
        <ele>238.06</ele>
        <time>2021-08-20T13:54:40Z</time>
      </trkpt>
      <trkpt lat="43.2823" lon="-1.05916">
        <ele>238.06</ele>
        <time>2021-08-20T13:54:43Z</time>
      </trkpt>
      <trkpt lat="43.28229" lon="-1.05922">
        <ele>238.06</ele>
        <time>2021-08-20T13:54:44Z</time>
      </trkpt>
      <trkpt lat="43.28227" lon="-1.05927">
        <ele>238.06</ele>
        <time>2021-08-20T13:54:45Z</time>
      </trkpt>
      <trkpt lat="43.28225" lon="-1.05932">
        <ele>238.06</ele>
        <time>2021-08-20T13:54:46Z</time>
      </trkpt>
      <trkpt lat="43.28224" lon="-1.05937">
        <ele>238.06</ele>
        <time>2021-08-20T13:54:47Z</time>
      </trkpt>
      <trkpt lat="43.28222" lon="-1.05943">
        <ele>238.06</ele>
        <time>2021-08-20T13:54:48Z</time>
      </trkpt>
      <trkpt lat="43.2822" lon="-1.05949">
        <ele>238.06</ele>
        <time>2021-08-20T13:54:49Z</time>
      </trkpt>
      <trkpt lat="43.28218" lon="-1.05956">
        <ele>236.62</ele>
        <time>2021-08-20T13:54:50Z</time>
      </trkpt>
      <trkpt lat="43.28212" lon="-1.05979">
        <ele>233.26</ele>
        <time>2021-08-20T13:54:53Z</time>
      </trkpt>
      <trkpt lat="43.28207" lon="-1.05995">
        <ele>231.33</ele>
        <time>2021-08-20T13:54:55Z</time>
      </trkpt>
      <trkpt lat="43.28201" lon="-1.0601">
        <ele>228.93</ele>
        <time>2021-08-20T13:54:57Z</time>
      </trkpt>
      <trkpt lat="43.28192" lon="-1.06035">
        <ele>224.61</ele>
        <time>2021-08-20T13:55:00Z</time>
      </trkpt>
      <trkpt lat="43.28187" lon="-1.06052">
        <ele>221.72</ele>
        <time>2021-08-20T13:55:02Z</time>
      </trkpt>
      <trkpt lat="43.2818" lon="-1.06074">
        <ele>217.4</ele>
        <time>2021-08-20T13:55:05Z</time>
      </trkpt>
      <trkpt lat="43.28175" lon="-1.0609">
        <ele>214.99</ele>
        <time>2021-08-20T13:55:07Z</time>
      </trkpt>
      <trkpt lat="43.2817" lon="-1.06114">
        <ele>211.63</ele>
        <time>2021-08-20T13:55:10Z</time>
      </trkpt>
      <trkpt lat="43.28168" lon="-1.06122">
        <ele>209.7</ele>
        <time>2021-08-20T13:55:11Z</time>
      </trkpt>
      <trkpt lat="43.28159" lon="-1.06151">
        <ele>205.86</ele>
        <time>2021-08-20T13:55:15Z</time>
      </trkpt>
      <trkpt lat="43.28152" lon="-1.0617">
        <ele>202.49</ele>
        <time>2021-08-20T13:55:18Z</time>
      </trkpt>
      <trkpt lat="43.28147" lon="-1.06185">
        <ele>200.09</ele>
        <time>2021-08-20T13:55:20Z</time>
      </trkpt>
      <trkpt lat="43.28141" lon="-1.06206">
        <ele>197.21</ele>
        <time>2021-08-20T13:55:23Z</time>
      </trkpt>
      <trkpt lat="43.28133" lon="-1.06227">
        <ele>193.84</ele>
        <time>2021-08-20T13:55:26Z</time>
      </trkpt>
      <trkpt lat="43.28122" lon="-1.0625">
        <ele>190</ele>
        <time>2021-08-20T13:55:29Z</time>
      </trkpt>
      <trkpt lat="43.28108" lon="-1.06275">
        <ele>186.15</ele>
        <time>2021-08-20T13:55:32Z</time>
      </trkpt>
      <trkpt lat="43.28089" lon="-1.06305">
        <ele>182.31</ele>
        <time>2021-08-20T13:55:36Z</time>
      </trkpt>
      <trkpt lat="43.28084" lon="-1.06312">
        <ele>181.83</ele>
        <time>2021-08-20T13:55:37Z</time>
      </trkpt>
      <trkpt lat="43.28077" lon="-1.06317">
        <ele>180.87</ele>
        <time>2021-08-20T13:55:38Z</time>
      </trkpt>
      <trkpt lat="43.2807" lon="-1.06319">
        <ele>180.38</ele>
        <time>2021-08-20T13:55:39Z</time>
      </trkpt>
      <trkpt lat="43.28062" lon="-1.06321">
        <ele>178.94</ele>
        <time>2021-08-20T13:55:40Z</time>
      </trkpt>
      <trkpt lat="43.28053" lon="-1.06322">
        <ele>178.94</ele>
        <time>2021-08-20T13:55:41Z</time>
      </trkpt>
      <trkpt lat="43.28003" lon="-1.06326">
        <ele>178.46</ele>
        <time>2021-08-20T13:55:48Z</time>
      </trkpt>
      <trkpt lat="43.27998" lon="-1.06327">
        <ele>179.42</ele>
        <time>2021-08-20T13:55:49Z</time>
      </trkpt>
      <trkpt lat="43.27987" lon="-1.06332">
        <ele>180.87</ele>
        <time>2021-08-20T13:55:52Z</time>
      </trkpt>
      <trkpt lat="43.27975" lon="-1.06338">
        <ele>182.79</ele>
        <time>2021-08-20T13:55:58Z</time>
      </trkpt>
      <trkpt lat="43.27963" lon="-1.06339">
        <ele>184.23</ele>
        <time>2021-08-20T13:56:06Z</time>
      </trkpt>
      <trkpt lat="43.27957" lon="-1.06341">
        <ele>186.63</ele>
        <time>2021-08-20T13:56:15Z</time>
      </trkpt>
      <trkpt lat="43.27945" lon="-1.0635">
        <ele>188.56</ele>
        <time>2021-08-20T13:56:26Z</time>
      </trkpt>
      <trkpt lat="43.27938" lon="-1.06354">
        <ele>189.52</ele>
        <time>2021-08-20T13:56:34Z</time>
      </trkpt>
      <trkpt lat="43.2793" lon="-1.06358">
        <ele>190.96</ele>
        <time>2021-08-20T13:56:43Z</time>
      </trkpt>
      <trkpt lat="43.27927" lon="-1.06359">
        <ele>191.44</ele>
        <time>2021-08-20T13:56:50Z</time>
      </trkpt>
      <trkpt lat="43.27921" lon="-1.06363">
        <ele>191.92</ele>
        <time>2021-08-20T13:57:00Z</time>
      </trkpt>
      <trkpt lat="43.27919" lon="-1.06363">
        <ele>192.4</ele>
        <time>2021-08-20T13:57:02Z</time>
      </trkpt>
      <trkpt lat="43.27918" lon="-1.06364">
        <ele>192.4</ele>
        <time>2021-08-20T13:57:03Z</time>
      </trkpt>
      <trkpt lat="43.27913" lon="-1.06372">
        <ele>192.88</ele>
        <time>2021-08-20T13:57:11Z</time>
      </trkpt>
      <trkpt lat="43.27908" lon="-1.06382">
        <ele>193.84</ele>
        <time>2021-08-20T13:57:20Z</time>
      </trkpt>
      <trkpt lat="43.27901" lon="-1.0639">
        <ele>194.8</ele>
        <time>2021-08-20T13:57:28Z</time>
      </trkpt>
      <trkpt lat="43.27901" lon="-1.06392">
        <ele>194.8</ele>
        <time>2021-08-20T13:57:29Z</time>
      </trkpt>
      <trkpt lat="43.279" lon="-1.06394">
        <ele>195.28</ele>
        <time>2021-08-20T13:57:30Z</time>
      </trkpt>
      <trkpt lat="43.27896" lon="-1.06401">
        <ele>195.77</ele>
        <time>2021-08-20T13:57:38Z</time>
      </trkpt>
      <trkpt lat="43.27894" lon="-1.06404">
        <ele>196.25</ele>
        <time>2021-08-20T13:57:56Z</time>
      </trkpt>
      <trkpt lat="43.27892" lon="-1.06403">
        <ele>196.25</ele>
        <time>2021-08-20T13:58:07Z</time>
      </trkpt>
      <trkpt lat="43.2789" lon="-1.06405">
        <ele>196.25</ele>
        <time>2021-08-20T13:58:16Z</time>
      </trkpt>
      <trkpt lat="43.2789" lon="-1.06407">
        <ele>196.25</ele>
        <time>2021-08-20T13:58:17Z</time>
      </trkpt>
      <trkpt lat="43.27889" lon="-1.06409">
        <ele>196.25</ele>
        <time>2021-08-20T13:58:18Z</time>
      </trkpt>
      <trkpt lat="43.2788" lon="-1.06427">
        <ele>196.25</ele>
        <time>2021-08-20T13:58:24Z</time>
      </trkpt>
      <trkpt lat="43.2787" lon="-1.06434">
        <ele>196.25</ele>
        <time>2021-08-20T13:58:27Z</time>
      </trkpt>
      <trkpt lat="43.27866" lon="-1.06436">
        <ele>196.25</ele>
        <time>2021-08-20T13:58:28Z</time>
      </trkpt>
      <trkpt lat="43.27862" lon="-1.06436">
        <ele>196.25</ele>
        <time>2021-08-20T13:58:29Z</time>
      </trkpt>
      <trkpt lat="43.27854" lon="-1.06435">
        <ele>196.73</ele>
        <time>2021-08-20T13:58:31Z</time>
      </trkpt>
      <trkpt lat="43.27839" lon="-1.06428">
        <ele>197.21</ele>
        <time>2021-08-20T13:58:36Z</time>
      </trkpt>
      <trkpt lat="43.27824" lon="-1.0641">
        <ele>195.28</ele>
        <time>2021-08-20T13:58:41Z</time>
      </trkpt>
      <trkpt lat="43.2781" lon="-1.06396">
        <ele>194.8</ele>
        <time>2021-08-20T13:58:44Z</time>
      </trkpt>
      <trkpt lat="43.27804" lon="-1.06392">
        <ele>193.84</ele>
        <time>2021-08-20T13:58:45Z</time>
      </trkpt>
      <trkpt lat="43.27792" lon="-1.06385">
        <ele>193.84</ele>
        <time>2021-08-20T13:58:47Z</time>
      </trkpt>
      <trkpt lat="43.27785" lon="-1.06384">
        <ele>193.36</ele>
        <time>2021-08-20T13:58:48Z</time>
      </trkpt>
      <trkpt lat="43.2778" lon="-1.06385">
        <ele>193.36</ele>
        <time>2021-08-20T13:58:49Z</time>
      </trkpt>
      <trkpt lat="43.27776" lon="-1.06389">
        <ele>193.36</ele>
        <time>2021-08-20T13:58:50Z</time>
      </trkpt>
      <trkpt lat="43.27773" lon="-1.06393">
        <ele>193.36</ele>
        <time>2021-08-20T13:58:51Z</time>
      </trkpt>
      <trkpt lat="43.27758" lon="-1.06415">
        <ele>193.36</ele>
        <time>2021-08-20T13:58:56Z</time>
      </trkpt>
      <trkpt lat="43.27757" lon="-1.06421">
        <ele>193.36</ele>
        <time>2021-08-20T13:58:57Z</time>
      </trkpt>
      <trkpt lat="43.27756" lon="-1.06428">
        <ele>193.36</ele>
        <time>2021-08-20T13:58:58Z</time>
      </trkpt>
      <trkpt lat="43.27759" lon="-1.06461">
        <ele>193.36</ele>
        <time>2021-08-20T13:59:03Z</time>
      </trkpt>
      <trkpt lat="43.2776" lon="-1.06466">
        <ele>193.36</ele>
        <time>2021-08-20T13:59:04Z</time>
      </trkpt>
      <trkpt lat="43.27764" lon="-1.06503">
        <ele>193.84</ele>
        <time>2021-08-20T13:59:10Z</time>
      </trkpt>
      <trkpt lat="43.27764" lon="-1.06534">
        <ele>193.36</ele>
        <time>2021-08-20T13:59:15Z</time>
      </trkpt>
      <trkpt lat="43.27765" lon="-1.06562">
        <ele>192.4</ele>
        <time>2021-08-20T13:59:19Z</time>
      </trkpt>
      <trkpt lat="43.27766" lon="-1.06576">
        <ele>192.4</ele>
        <time>2021-08-20T13:59:21Z</time>
      </trkpt>
      <trkpt lat="43.27767" lon="-1.06584">
        <ele>191.92</ele>
        <time>2021-08-20T13:59:22Z</time>
      </trkpt>
      <trkpt lat="43.27768" lon="-1.06592">
        <ele>191.44</ele>
        <time>2021-08-20T13:59:23Z</time>
      </trkpt>
      <trkpt lat="43.2777" lon="-1.06634">
        <ele>192.4</ele>
        <time>2021-08-20T13:59:29Z</time>
      </trkpt>
      <trkpt lat="43.2777" lon="-1.06639">
        <ele>192.4</ele>
        <time>2021-08-20T13:59:30Z</time>
      </trkpt>
      <trkpt lat="43.27767" lon="-1.06671">
        <ele>193.36</ele>
        <time>2021-08-20T13:59:36Z</time>
      </trkpt>
      <trkpt lat="43.2776" lon="-1.06714">
        <ele>193.36</ele>
        <time>2021-08-20T13:59:44Z</time>
      </trkpt>
      <trkpt lat="43.27755" lon="-1.06737">
        <ele>193.36</ele>
        <time>2021-08-20T13:59:50Z</time>
      </trkpt>
      <trkpt lat="43.27752" lon="-1.06763">
        <ele>194.8</ele>
        <time>2021-08-20T13:59:57Z</time>
      </trkpt>
      <trkpt lat="43.27749" lon="-1.06782">
        <ele>195.28</ele>
        <time>2021-08-20T14:00:03Z</time>
      </trkpt>
      <trkpt lat="43.27744" lon="-1.06807">
        <ele>195.28</ele>
        <time>2021-08-20T14:00:10Z</time>
      </trkpt>
      <trkpt lat="43.27741" lon="-1.06825">
        <ele>195.28</ele>
        <time>2021-08-20T14:00:16Z</time>
      </trkpt>
      <trkpt lat="43.27735" lon="-1.06852">
        <ele>196.25</ele>
        <time>2021-08-20T14:00:23Z</time>
      </trkpt>
      <trkpt lat="43.27731" lon="-1.06874">
        <ele>197.21</ele>
        <time>2021-08-20T14:00:29Z</time>
      </trkpt>
      <trkpt lat="43.27723" lon="-1.06895">
        <ele>197.69</ele>
        <time>2021-08-20T14:00:36Z</time>
      </trkpt>
      <trkpt lat="43.27712" lon="-1.06917">
        <ele>198.17</ele>
        <time>2021-08-20T14:00:43Z</time>
      </trkpt>
      <trkpt lat="43.27698" lon="-1.06932">
        <ele>198.17</ele>
        <time>2021-08-20T14:00:50Z</time>
      </trkpt>
      <trkpt lat="43.27678" lon="-1.06949">
        <ele>198.17</ele>
        <time>2021-08-20T14:00:56Z</time>
      </trkpt>
      <trkpt lat="43.27661" lon="-1.06958">
        <ele>198.17</ele>
        <time>2021-08-20T14:01:02Z</time>
      </trkpt>
      <trkpt lat="43.27652" lon="-1.06965">
        <ele>198.65</ele>
        <time>2021-08-20T14:01:08Z</time>
      </trkpt>
      <trkpt lat="43.27643" lon="-1.06972">
        <ele>200.09</ele>
        <time>2021-08-20T14:01:14Z</time>
      </trkpt>
      <trkpt lat="43.27637" lon="-1.06973">
        <ele>199.61</ele>
        <time>2021-08-20T14:01:17Z</time>
      </trkpt>
      <trkpt lat="43.27635" lon="-1.06971">
        <ele>199.61</ele>
        <time>2021-08-20T14:01:18Z</time>
      </trkpt>
      <trkpt lat="43.27633" lon="-1.06967">
        <ele>198.65</ele>
        <time>2021-08-20T14:01:19Z</time>
      </trkpt>
      <trkpt lat="43.27632" lon="-1.06964">
        <ele>198.65</ele>
        <time>2021-08-20T14:01:20Z</time>
      </trkpt>
      <trkpt lat="43.27631" lon="-1.0696">
        <ele>198.65</ele>
        <time>2021-08-20T14:01:21Z</time>
      </trkpt>
      <trkpt lat="43.27631" lon="-1.06957">
        <ele>198.65</ele>
        <time>2021-08-20T14:01:22Z</time>
      </trkpt>
      <trkpt lat="43.2763" lon="-1.06955">
        <ele>198.65</ele>
        <time>2021-08-20T14:01:23Z</time>
      </trkpt>
      <trkpt lat="43.27629" lon="-1.06953">
        <ele>200.09</ele>
        <time>2021-08-20T14:01:25Z</time>
      </trkpt>
      <trkpt lat="43.27629" lon="-1.06952">
        <ele>200.09</ele>
        <time>2021-08-20T14:01:26Z</time>
      </trkpt>
      <trkpt lat="43.27626" lon="-1.06941">
        <ele>201.53</ele>
        <time>2021-08-20T14:01:32Z</time>
      </trkpt>
      <trkpt lat="43.27625" lon="-1.0694">
        <ele>201.53</ele>
        <time>2021-08-20T14:01:33Z</time>
      </trkpt>
      <trkpt lat="43.27624" lon="-1.06939">
        <ele>202.49</ele>
        <time>2021-08-20T14:01:39Z</time>
      </trkpt>
      <trkpt lat="43.27622" lon="-1.06935">
        <ele>202.49</ele>
        <time>2021-08-20T14:01:46Z</time>
      </trkpt>
      <trkpt lat="43.27616" lon="-1.0693">
        <ele>203.94</ele>
        <time>2021-08-20T14:01:56Z</time>
      </trkpt>
      <trkpt lat="43.27613" lon="-1.06928">
        <ele>204.9</ele>
        <time>2021-08-20T14:02:06Z</time>
      </trkpt>
      <trkpt lat="43.27606" lon="-1.06923">
        <ele>206.34</ele>
        <time>2021-08-20T14:02:14Z</time>
      </trkpt>
      <trkpt lat="43.27599" lon="-1.0692">
        <ele>207.3</ele>
        <time>2021-08-20T14:02:22Z</time>
      </trkpt>
      <trkpt lat="43.27591" lon="-1.06915">
        <ele>207.78</ele>
        <time>2021-08-20T14:02:30Z</time>
      </trkpt>
      <trkpt lat="43.27588" lon="-1.06911">
        <ele>208.26</ele>
        <time>2021-08-20T14:02:33Z</time>
      </trkpt>
      <trkpt lat="43.27587" lon="-1.0691">
        <ele>208.74</ele>
        <time>2021-08-20T14:02:34Z</time>
      </trkpt>
      <trkpt lat="43.27579" lon="-1.06906">
        <ele>209.7</ele>
        <time>2021-08-20T14:02:42Z</time>
      </trkpt>
      <trkpt lat="43.27568" lon="-1.06906">
        <ele>211.15</ele>
        <time>2021-08-20T14:02:51Z</time>
      </trkpt>
      <trkpt lat="43.2756" lon="-1.06906">
        <ele>212.59</ele>
        <time>2021-08-20T14:03:00Z</time>
      </trkpt>
      <trkpt lat="43.27554" lon="-1.06905">
        <ele>213.55</ele>
        <time>2021-08-20T14:03:07Z</time>
      </trkpt>
      <trkpt lat="43.27544" lon="-1.06905">
        <ele>214.99</ele>
        <time>2021-08-20T14:03:18Z</time>
      </trkpt>
      <trkpt lat="43.27543" lon="-1.06904">
        <ele>215.47</ele>
        <time>2021-08-20T14:03:25Z</time>
      </trkpt>
      <trkpt lat="43.27538" lon="-1.06903">
        <ele>215.95</ele>
        <time>2021-08-20T14:03:32Z</time>
      </trkpt>
      <trkpt lat="43.27528" lon="-1.06903">
        <ele>216.91</ele>
        <time>2021-08-20T14:03:41Z</time>
      </trkpt>
      <trkpt lat="43.2752" lon="-1.06903">
        <ele>218.36</ele>
        <time>2021-08-20T14:03:51Z</time>
      </trkpt>
      <trkpt lat="43.27513" lon="-1.06901">
        <ele>219.32</ele>
        <time>2021-08-20T14:03:59Z</time>
      </trkpt>
      <trkpt lat="43.27506" lon="-1.06899">
        <ele>221.24</ele>
        <time>2021-08-20T14:04:09Z</time>
      </trkpt>
      <trkpt lat="43.27502" lon="-1.06896">
        <ele>222.2</ele>
        <time>2021-08-20T14:04:18Z</time>
      </trkpt>
      <trkpt lat="43.27497" lon="-1.06894">
        <ele>224.12</ele>
        <time>2021-08-20T14:04:27Z</time>
      </trkpt>
      <trkpt lat="43.27489" lon="-1.06894">
        <ele>225.09</ele>
        <time>2021-08-20T14:04:36Z</time>
      </trkpt>
      <trkpt lat="43.27481" lon="-1.06893">
        <ele>226.53</ele>
        <time>2021-08-20T14:04:44Z</time>
      </trkpt>
      <trkpt lat="43.27471" lon="-1.06895">
        <ele>227.97</ele>
        <time>2021-08-20T14:04:55Z</time>
      </trkpt>
      <trkpt lat="43.27464" lon="-1.06896">
        <ele>228.93</ele>
        <time>2021-08-20T14:05:02Z</time>
      </trkpt>
      <trkpt lat="43.27462" lon="-1.06897">
        <ele>228.93</ele>
        <time>2021-08-20T14:05:03Z</time>
      </trkpt>
      <trkpt lat="43.27453" lon="-1.06902">
        <ele>229.41</ele>
        <time>2021-08-20T14:05:10Z</time>
      </trkpt>
      <trkpt lat="43.27449" lon="-1.06905">
        <ele>229.41</ele>
        <time>2021-08-20T14:05:13Z</time>
      </trkpt>
      <trkpt lat="43.27447" lon="-1.06905">
        <ele>229.41</ele>
        <time>2021-08-20T14:05:14Z</time>
      </trkpt>
      <trkpt lat="43.27444" lon="-1.06907">
        <ele>229.41</ele>
        <time>2021-08-20T14:05:15Z</time>
      </trkpt>
      <trkpt lat="43.27429" lon="-1.0692">
        <ele>229.41</ele>
        <time>2021-08-20T14:05:21Z</time>
      </trkpt>
      <trkpt lat="43.27426" lon="-1.0692">
        <ele>229.41</ele>
        <time>2021-08-20T14:05:22Z</time>
      </trkpt>
      <trkpt lat="43.27424" lon="-1.06919">
        <ele>229.41</ele>
        <time>2021-08-20T14:05:23Z</time>
      </trkpt>
      <trkpt lat="43.27422" lon="-1.06918">
        <ele>229.41</ele>
        <time>2021-08-20T14:05:24Z</time>
      </trkpt>
      <trkpt lat="43.27419" lon="-1.06916">
        <ele>229.41</ele>
        <time>2021-08-20T14:05:25Z</time>
      </trkpt>
      <trkpt lat="43.27399" lon="-1.06914">
        <ele>229.41</ele>
        <time>2021-08-20T14:05:30Z</time>
      </trkpt>
      <trkpt lat="43.27391" lon="-1.06916">
        <ele>229.41</ele>
        <time>2021-08-20T14:05:32Z</time>
      </trkpt>
      <trkpt lat="43.27386" lon="-1.06916">
        <ele>229.41</ele>
        <time>2021-08-20T14:05:33Z</time>
      </trkpt>
      <trkpt lat="43.27381" lon="-1.06916">
        <ele>229.41</ele>
        <time>2021-08-20T14:05:34Z</time>
      </trkpt>
      <trkpt lat="43.27377" lon="-1.06917">
        <ele>229.41</ele>
        <time>2021-08-20T14:05:35Z</time>
      </trkpt>
      <trkpt lat="43.27372" lon="-1.06916">
        <ele>228.45</ele>
        <time>2021-08-20T14:05:36Z</time>
      </trkpt>
      <trkpt lat="43.27368" lon="-1.06913">
        <ele>228.45</ele>
        <time>2021-08-20T14:05:37Z</time>
      </trkpt>
      <trkpt lat="43.27366" lon="-1.06908">
        <ele>228.45</ele>
        <time>2021-08-20T14:05:38Z</time>
      </trkpt>
      <trkpt lat="43.27365" lon="-1.06903">
        <ele>228.45</ele>
        <time>2021-08-20T14:05:39Z</time>
      </trkpt>
      <trkpt lat="43.27364" lon="-1.06898">
        <ele>228.45</ele>
        <time>2021-08-20T14:05:40Z</time>
      </trkpt>
      <trkpt lat="43.27363" lon="-1.06895">
        <ele>228.45</ele>
        <time>2021-08-20T14:05:41Z</time>
      </trkpt>
      <trkpt lat="43.2736" lon="-1.06879">
        <ele>228.45</ele>
        <time>2021-08-20T14:05:44Z</time>
      </trkpt>
      <trkpt lat="43.27355" lon="-1.06854">
        <ele>228.45</ele>
        <time>2021-08-20T14:05:48Z</time>
      </trkpt>
      <trkpt lat="43.2735" lon="-1.06835">
        <ele>227.97</ele>
        <time>2021-08-20T14:05:51Z</time>
      </trkpt>
      <trkpt lat="43.2734" lon="-1.06814">
        <ele>227.97</ele>
        <time>2021-08-20T14:05:55Z</time>
      </trkpt>
      <trkpt lat="43.27337" lon="-1.06809">
        <ele>227.97</ele>
        <time>2021-08-20T14:05:56Z</time>
      </trkpt>
      <trkpt lat="43.27334" lon="-1.06804">
        <ele>227.97</ele>
        <time>2021-08-20T14:05:57Z</time>
      </trkpt>
      <trkpt lat="43.27315" lon="-1.06786">
        <ele>227.97</ele>
        <time>2021-08-20T14:06:03Z</time>
      </trkpt>
      <trkpt lat="43.27311" lon="-1.06784">
        <ele>227.97</ele>
        <time>2021-08-20T14:06:04Z</time>
      </trkpt>
      <trkpt lat="43.27277" lon="-1.06773">
        <ele>227.49</ele>
        <time>2021-08-20T14:06:14Z</time>
      </trkpt>
      <trkpt lat="43.27265" lon="-1.06754">
        <ele>227.49</ele>
        <time>2021-08-20T14:06:20Z</time>
      </trkpt>
      <trkpt lat="43.27255" lon="-1.0673">
        <ele>227.49</ele>
        <time>2021-08-20T14:06:25Z</time>
      </trkpt>
      <trkpt lat="43.27237" lon="-1.06696">
        <ele>227.01</ele>
        <time>2021-08-20T14:06:33Z</time>
      </trkpt>
      <trkpt lat="43.27221" lon="-1.06658">
        <ele>226.53</ele>
        <time>2021-08-20T14:06:41Z</time>
      </trkpt>
      <trkpt lat="43.2721" lon="-1.06629">
        <ele>226.53</ele>
        <time>2021-08-20T14:06:47Z</time>
      </trkpt>
      <trkpt lat="43.27201" lon="-1.06604">
        <ele>226.53</ele>
        <time>2021-08-20T14:06:53Z</time>
      </trkpt>
      <trkpt lat="43.27189" lon="-1.06575">
        <ele>226.05</ele>
        <time>2021-08-20T14:07:00Z</time>
      </trkpt>
      <trkpt lat="43.27175" lon="-1.06547">
        <ele>225.57</ele>
        <time>2021-08-20T14:07:07Z</time>
      </trkpt>
      <trkpt lat="43.27168" lon="-1.06529">
        <ele>224.61</ele>
        <time>2021-08-20T14:07:14Z</time>
      </trkpt>
      <trkpt lat="43.27161" lon="-1.06499">
        <ele>223.16</ele>
        <time>2021-08-20T14:07:20Z</time>
      </trkpt>
      <trkpt lat="43.27151" lon="-1.06459">
        <ele>220.28</ele>
        <time>2021-08-20T14:07:26Z</time>
      </trkpt>
      <trkpt lat="43.27143" lon="-1.06442">
        <ele>218.84</ele>
        <time>2021-08-20T14:07:28Z</time>
      </trkpt>
      <trkpt lat="43.27133" lon="-1.06427">
        <ele>217.4</ele>
        <time>2021-08-20T14:07:30Z</time>
      </trkpt>
      <trkpt lat="43.27128" lon="-1.0642">
        <ele>216.91</ele>
        <time>2021-08-20T14:07:31Z</time>
      </trkpt>
      <trkpt lat="43.27124" lon="-1.06413">
        <ele>215.95</ele>
        <time>2021-08-20T14:07:32Z</time>
      </trkpt>
      <trkpt lat="43.27121" lon="-1.06406">
        <ele>215.47</ele>
        <time>2021-08-20T14:07:33Z</time>
      </trkpt>
      <trkpt lat="43.27118" lon="-1.06399">
        <ele>214.99</ele>
        <time>2021-08-20T14:07:34Z</time>
      </trkpt>
      <trkpt lat="43.27116" lon="-1.06391">
        <ele>214.51</ele>
        <time>2021-08-20T14:07:35Z</time>
      </trkpt>
      <trkpt lat="43.27115" lon="-1.06382">
        <ele>213.07</ele>
        <time>2021-08-20T14:07:36Z</time>
      </trkpt>
      <trkpt lat="43.27115" lon="-1.06373">
        <ele>211.63</ele>
        <time>2021-08-20T14:07:37Z</time>
      </trkpt>
      <trkpt lat="43.27116" lon="-1.06364">
        <ele>210.67</ele>
        <time>2021-08-20T14:07:38Z</time>
      </trkpt>
      <trkpt lat="43.27118" lon="-1.06355">
        <ele>209.22</ele>
        <time>2021-08-20T14:07:39Z</time>
      </trkpt>
      <trkpt lat="43.2712" lon="-1.06345">
        <ele>207.78</ele>
        <time>2021-08-20T14:07:40Z</time>
      </trkpt>
      <trkpt lat="43.27126" lon="-1.06315">
        <ele>203.46</ele>
        <time>2021-08-20T14:07:43Z</time>
      </trkpt>
      <trkpt lat="43.27132" lon="-1.06294">
        <ele>200.57</ele>
        <time>2021-08-20T14:07:45Z</time>
      </trkpt>
      <trkpt lat="43.27137" lon="-1.06274">
        <ele>199.61</ele>
        <time>2021-08-20T14:07:47Z</time>
      </trkpt>
      <trkpt lat="43.27144" lon="-1.06243">
        <ele>197.69</ele>
        <time>2021-08-20T14:07:51Z</time>
      </trkpt>
      <trkpt lat="43.27144" lon="-1.0624">
        <ele>198.65</ele>
        <time>2021-08-20T14:07:52Z</time>
      </trkpt>
      <trkpt lat="43.27143" lon="-1.0624">
        <ele>198.65</ele>
        <time>2021-08-20T14:07:56Z</time>
      </trkpt>
      <trkpt lat="43.27143" lon="-1.06241">
        <ele>198.65</ele>
        <time>2021-08-20T14:07:57Z</time>
      </trkpt>
      <trkpt lat="43.27138" lon="-1.06262">
        <ele>199.61</ele>
        <time>2021-08-20T14:08:05Z</time>
      </trkpt>
      <trkpt lat="43.27134" lon="-1.06273">
        <ele>200.57</ele>
        <time>2021-08-20T14:08:11Z</time>
      </trkpt>
      <trkpt lat="43.27134" lon="-1.06271">
        <ele>200.57</ele>
        <time>2021-08-20T14:08:22Z</time>
      </trkpt>
      <trkpt lat="43.27134" lon="-1.06272">
        <ele>200.57</ele>
        <time>2021-08-20T14:08:33Z</time>
      </trkpt>
      <trkpt lat="43.27136" lon="-1.06269">
        <ele>200.57</ele>
        <time>2021-08-20T14:08:46Z</time>
      </trkpt>
      <trkpt lat="43.27136" lon="-1.06266">
        <ele>200.57</ele>
        <time>2021-08-20T14:08:47Z</time>
      </trkpt>
      <trkpt lat="43.27136" lon="-1.06263">
        <ele>200.57</ele>
        <time>2021-08-20T14:08:48Z</time>
      </trkpt>
      <trkpt lat="43.2714" lon="-1.06245">
        <ele>198.65</ele>
        <time>2021-08-20T14:08:52Z</time>
      </trkpt>
      <trkpt lat="43.27144" lon="-1.06225">
        <ele>198.17</ele>
        <time>2021-08-20T14:08:55Z</time>
      </trkpt>
      <trkpt lat="43.27144" lon="-1.06218">
        <ele>197.69</ele>
        <time>2021-08-20T14:08:56Z</time>
      </trkpt>
      <trkpt lat="43.27143" lon="-1.0621">
        <ele>197.69</ele>
        <time>2021-08-20T14:08:57Z</time>
      </trkpt>
      <trkpt lat="43.27134" lon="-1.0615">
        <ele>197.21</ele>
        <time>2021-08-20T14:09:05Z</time>
      </trkpt>
      <trkpt lat="43.27132" lon="-1.06143">
        <ele>197.21</ele>
        <time>2021-08-20T14:09:06Z</time>
      </trkpt>
      <trkpt lat="43.2713" lon="-1.06135">
        <ele>197.21</ele>
        <time>2021-08-20T14:09:07Z</time>
      </trkpt>
      <trkpt lat="43.27128" lon="-1.0612">
        <ele>197.21</ele>
        <time>2021-08-20T14:09:09Z</time>
      </trkpt>
      <trkpt lat="43.27128" lon="-1.06112">
        <ele>197.21</ele>
        <time>2021-08-20T14:09:10Z</time>
      </trkpt>
      <trkpt lat="43.27132" lon="-1.06053">
        <ele>196.73</ele>
        <time>2021-08-20T14:09:18Z</time>
      </trkpt>
      <trkpt lat="43.27132" lon="-1.06016">
        <ele>196.73</ele>
        <time>2021-08-20T14:09:23Z</time>
      </trkpt>
      <trkpt lat="43.27131" lon="-1.06009">
        <ele>196.25</ele>
        <time>2021-08-20T14:09:24Z</time>
      </trkpt>
      <trkpt lat="43.2713" lon="-1.06001">
        <ele>196.25</ele>
        <time>2021-08-20T14:09:25Z</time>
      </trkpt>
      <trkpt lat="43.27127" lon="-1.05995">
        <ele>196.25</ele>
        <time>2021-08-20T14:09:26Z</time>
      </trkpt>
      <trkpt lat="43.27124" lon="-1.05988">
        <ele>195.77</ele>
        <time>2021-08-20T14:09:27Z</time>
      </trkpt>
      <trkpt lat="43.2712" lon="-1.05982">
        <ele>195.28</ele>
        <time>2021-08-20T14:09:28Z</time>
      </trkpt>
      <trkpt lat="43.27116" lon="-1.05977">
        <ele>195.28</ele>
        <time>2021-08-20T14:09:29Z</time>
      </trkpt>
      <trkpt lat="43.27112" lon="-1.05972">
        <ele>195.28</ele>
        <time>2021-08-20T14:09:30Z</time>
      </trkpt>
      <trkpt lat="43.27108" lon="-1.05968">
        <ele>195.28</ele>
        <time>2021-08-20T14:09:31Z</time>
      </trkpt>
      <trkpt lat="43.27103" lon="-1.05964">
        <ele>195.77</ele>
        <time>2021-08-20T14:09:32Z</time>
      </trkpt>
      <trkpt lat="43.27098" lon="-1.05961">
        <ele>195.77</ele>
        <time>2021-08-20T14:09:33Z</time>
      </trkpt>
      <trkpt lat="43.2707" lon="-1.05942">
        <ele>197.69</ele>
        <time>2021-08-20T14:09:40Z</time>
      </trkpt>
      <trkpt lat="43.27066" lon="-1.0594">
        <ele>197.69</ele>
        <time>2021-08-20T14:09:41Z</time>
      </trkpt>
      <trkpt lat="43.27063" lon="-1.05937">
        <ele>197.69</ele>
        <time>2021-08-20T14:09:42Z</time>
      </trkpt>
      <trkpt lat="43.27037" lon="-1.05918">
        <ele>198.65</ele>
        <time>2021-08-20T14:09:50Z</time>
      </trkpt>
      <trkpt lat="43.27031" lon="-1.0591">
        <ele>198.65</ele>
        <time>2021-08-20T14:09:52Z</time>
      </trkpt>
      <trkpt lat="43.27014" lon="-1.0588">
        <ele>199.13</ele>
        <time>2021-08-20T14:09:59Z</time>
      </trkpt>
      <trkpt lat="43.27012" lon="-1.05875">
        <ele>199.13</ele>
        <time>2021-08-20T14:10:00Z</time>
      </trkpt>
      <trkpt lat="43.27009" lon="-1.05864">
        <ele>199.13</ele>
        <time>2021-08-20T14:10:02Z</time>
      </trkpt>
      <trkpt lat="43.27008" lon="-1.05858">
        <ele>199.13</ele>
        <time>2021-08-20T14:10:03Z</time>
      </trkpt>
      <trkpt lat="43.27007" lon="-1.05852">
        <ele>199.13</ele>
        <time>2021-08-20T14:10:04Z</time>
      </trkpt>
      <trkpt lat="43.27007" lon="-1.05846">
        <ele>199.13</ele>
        <time>2021-08-20T14:10:05Z</time>
      </trkpt>
      <trkpt lat="43.27007" lon="-1.0584">
        <ele>198.65</ele>
        <time>2021-08-20T14:10:06Z</time>
      </trkpt>
      <trkpt lat="43.27006" lon="-1.05833">
        <ele>198.65</ele>
        <time>2021-08-20T14:10:07Z</time>
      </trkpt>
      <trkpt lat="43.27006" lon="-1.05811">
        <ele>196.73</ele>
        <time>2021-08-20T14:10:10Z</time>
      </trkpt>
      <trkpt lat="43.27006" lon="-1.05769">
        <ele>193.84</ele>
        <time>2021-08-20T14:10:15Z</time>
      </trkpt>
      <trkpt lat="43.27005" lon="-1.0576">
        <ele>193.36</ele>
        <time>2021-08-20T14:10:16Z</time>
      </trkpt>
      <trkpt lat="43.27004" lon="-1.05751">
        <ele>192.88</ele>
        <time>2021-08-20T14:10:17Z</time>
      </trkpt>
      <trkpt lat="43.27002" lon="-1.05742">
        <ele>192.4</ele>
        <time>2021-08-20T14:10:18Z</time>
      </trkpt>
      <trkpt lat="43.26999" lon="-1.05733">
        <ele>191.92</ele>
        <time>2021-08-20T14:10:19Z</time>
      </trkpt>
      <trkpt lat="43.26995" lon="-1.05725">
        <ele>190.96</ele>
        <time>2021-08-20T14:10:20Z</time>
      </trkpt>
      <trkpt lat="43.26991" lon="-1.05716">
        <ele>190.96</ele>
        <time>2021-08-20T14:10:21Z</time>
      </trkpt>
      <trkpt lat="43.26952" lon="-1.05651">
        <ele>189.52</ele>
        <time>2021-08-20T14:10:29Z</time>
      </trkpt>
      <trkpt lat="43.26934" lon="-1.05621">
        <ele>190.48</ele>
        <time>2021-08-20T14:10:34Z</time>
      </trkpt>
      <trkpt lat="43.26931" lon="-1.05616">
        <ele>190.48</ele>
        <time>2021-08-20T14:10:35Z</time>
      </trkpt>
      <trkpt lat="43.26928" lon="-1.05611">
        <ele>191.44</ele>
        <time>2021-08-20T14:10:36Z</time>
      </trkpt>
      <trkpt lat="43.26926" lon="-1.05607">
        <ele>191.44</ele>
        <time>2021-08-20T14:10:37Z</time>
      </trkpt>
      <trkpt lat="43.26924" lon="-1.05603">
        <ele>191.92</ele>
        <time>2021-08-20T14:10:38Z</time>
      </trkpt>
      <trkpt lat="43.26921" lon="-1.05599">
        <ele>191.92</ele>
        <time>2021-08-20T14:10:39Z</time>
      </trkpt>
      <trkpt lat="43.26905" lon="-1.05569">
        <ele>192.88</ele>
        <time>2021-08-20T14:10:46Z</time>
      </trkpt>
      <trkpt lat="43.26889" lon="-1.05546">
        <ele>192.88</ele>
        <time>2021-08-20T14:10:52Z</time>
      </trkpt>
      <trkpt lat="43.26886" lon="-1.05543">
        <ele>192.88</ele>
        <time>2021-08-20T14:10:53Z</time>
      </trkpt>
      <trkpt lat="43.26858" lon="-1.05519">
        <ele>192.4</ele>
        <time>2021-08-20T14:11:00Z</time>
      </trkpt>
      <trkpt lat="43.26842" lon="-1.05507">
        <ele>190.48</ele>
        <time>2021-08-20T14:11:03Z</time>
      </trkpt>
      <trkpt lat="43.26824" lon="-1.05494">
        <ele>189.04</ele>
        <time>2021-08-20T14:11:06Z</time>
      </trkpt>
      <trkpt lat="43.26817" lon="-1.05491">
        <ele>189.04</ele>
        <time>2021-08-20T14:11:07Z</time>
      </trkpt>
      <trkpt lat="43.26811" lon="-1.05489">
        <ele>188.56</ele>
        <time>2021-08-20T14:11:08Z</time>
      </trkpt>
      <trkpt lat="43.26799" lon="-1.05485">
        <ele>188.56</ele>
        <time>2021-08-20T14:11:10Z</time>
      </trkpt>
      <trkpt lat="43.26765" lon="-1.05479">
        <ele>188.56</ele>
        <time>2021-08-20T14:11:17Z</time>
      </trkpt>
      <trkpt lat="43.26733" lon="-1.05475">
        <ele>190</ele>
        <time>2021-08-20T14:11:25Z</time>
      </trkpt>
      <trkpt lat="43.26729" lon="-1.05474">
        <ele>190</ele>
        <time>2021-08-20T14:11:26Z</time>
      </trkpt>
      <trkpt lat="43.26725" lon="-1.05473">
        <ele>190</ele>
        <time>2021-08-20T14:11:27Z</time>
      </trkpt>
      <trkpt lat="43.2672" lon="-1.05472">
        <ele>190</ele>
        <time>2021-08-20T14:11:28Z</time>
      </trkpt>
      <trkpt lat="43.26716" lon="-1.05469">
        <ele>188.56</ele>
        <time>2021-08-20T14:11:29Z</time>
      </trkpt>
      <trkpt lat="43.26712" lon="-1.05466">
        <ele>188.56</ele>
        <time>2021-08-20T14:11:30Z</time>
      </trkpt>
      <trkpt lat="43.26708" lon="-1.05461">
        <ele>187.59</ele>
        <time>2021-08-20T14:11:31Z</time>
      </trkpt>
      <trkpt lat="43.26706" lon="-1.05455">
        <ele>186.63</ele>
        <time>2021-08-20T14:11:32Z</time>
      </trkpt>
      <trkpt lat="43.26704" lon="-1.05449">
        <ele>186.63</ele>
        <time>2021-08-20T14:11:33Z</time>
      </trkpt>
      <trkpt lat="43.26703" lon="-1.05442">
        <ele>185.19</ele>
        <time>2021-08-20T14:11:34Z</time>
      </trkpt>
      <trkpt lat="43.26704" lon="-1.05435">
        <ele>184.71</ele>
        <time>2021-08-20T14:11:35Z</time>
      </trkpt>
      <trkpt lat="43.26704" lon="-1.05428">
        <ele>183.75</ele>
        <time>2021-08-20T14:11:36Z</time>
      </trkpt>
      <trkpt lat="43.26705" lon="-1.05422">
        <ele>183.27</ele>
        <time>2021-08-20T14:11:37Z</time>
      </trkpt>
      <trkpt lat="43.26705" lon="-1.05415">
        <ele>182.31</ele>
        <time>2021-08-20T14:11:38Z</time>
      </trkpt>
      <trkpt lat="43.26704" lon="-1.05407">
        <ele>181.83</ele>
        <time>2021-08-20T14:11:39Z</time>
      </trkpt>
      <trkpt lat="43.26702" lon="-1.05399">
        <ele>180.87</ele>
        <time>2021-08-20T14:11:40Z</time>
      </trkpt>
      <trkpt lat="43.26699" lon="-1.05392">
        <ele>180.38</ele>
        <time>2021-08-20T14:11:41Z</time>
      </trkpt>
      <trkpt lat="43.26694" lon="-1.05385">
        <ele>179.9</ele>
        <time>2021-08-20T14:11:42Z</time>
      </trkpt>
      <trkpt lat="43.26689" lon="-1.05378">
        <ele>179.42</ele>
        <time>2021-08-20T14:11:43Z</time>
      </trkpt>
      <trkpt lat="43.26685" lon="-1.05372">
        <ele>178.94</ele>
        <time>2021-08-20T14:11:44Z</time>
      </trkpt>
      <trkpt lat="43.26659" lon="-1.05336">
        <ele>176.54</ele>
        <time>2021-08-20T14:11:49Z</time>
      </trkpt>
      <trkpt lat="43.26654" lon="-1.0533">
        <ele>176.06</ele>
        <time>2021-08-20T14:11:50Z</time>
      </trkpt>
      <trkpt lat="43.26649" lon="-1.05326">
        <ele>174.62</ele>
        <time>2021-08-20T14:11:51Z</time>
      </trkpt>
      <trkpt lat="43.26644" lon="-1.05323">
        <ele>174.62</ele>
        <time>2021-08-20T14:11:52Z</time>
      </trkpt>
      <trkpt lat="43.26639" lon="-1.05321">
        <ele>175.1</ele>
        <time>2021-08-20T14:11:53Z</time>
      </trkpt>
      <trkpt lat="43.26634" lon="-1.05321">
        <ele>174.14</ele>
        <time>2021-08-20T14:11:54Z</time>
      </trkpt>
      <trkpt lat="43.26628" lon="-1.05322">
        <ele>173.66</ele>
        <time>2021-08-20T14:11:55Z</time>
      </trkpt>
      <trkpt lat="43.26622" lon="-1.05326">
        <ele>173.66</ele>
        <time>2021-08-20T14:11:56Z</time>
      </trkpt>
      <trkpt lat="43.26616" lon="-1.05332">
        <ele>172.69</ele>
        <time>2021-08-20T14:11:57Z</time>
      </trkpt>
      <trkpt lat="43.26611" lon="-1.05339">
        <ele>172.69</ele>
        <time>2021-08-20T14:11:58Z</time>
      </trkpt>
      <trkpt lat="43.26605" lon="-1.05346">
        <ele>171.73</ele>
        <time>2021-08-20T14:11:59Z</time>
      </trkpt>
      <trkpt lat="43.26578" lon="-1.05384">
        <ele>169.33</ele>
        <time>2021-08-20T14:12:04Z</time>
      </trkpt>
      <trkpt lat="43.26552" lon="-1.0542">
        <ele>165.96</ele>
        <time>2021-08-20T14:12:09Z</time>
      </trkpt>
      <trkpt lat="43.26526" lon="-1.05457">
        <ele>162.6</ele>
        <time>2021-08-20T14:12:14Z</time>
      </trkpt>
      <trkpt lat="43.26521" lon="-1.05464">
        <ele>162.12</ele>
        <time>2021-08-20T14:12:15Z</time>
      </trkpt>
      <trkpt lat="43.26518" lon="-1.05472">
        <ele>161.64</ele>
        <time>2021-08-20T14:12:16Z</time>
      </trkpt>
      <trkpt lat="43.26515" lon="-1.05481">
        <ele>160.68</ele>
        <time>2021-08-20T14:12:17Z</time>
      </trkpt>
      <trkpt lat="43.26515" lon="-1.0549">
        <ele>159.72</ele>
        <time>2021-08-20T14:12:18Z</time>
      </trkpt>
      <trkpt lat="43.26515" lon="-1.05499">
        <ele>159.24</ele>
        <time>2021-08-20T14:12:19Z</time>
      </trkpt>
      <trkpt lat="43.26516" lon="-1.05507">
        <ele>159.24</ele>
        <time>2021-08-20T14:12:20Z</time>
      </trkpt>
      <trkpt lat="43.26516" lon="-1.05524">
        <ele>158.27</ele>
        <time>2021-08-20T14:12:22Z</time>
      </trkpt>
      <trkpt lat="43.26514" lon="-1.05531">
        <ele>157.31</ele>
        <time>2021-08-20T14:12:23Z</time>
      </trkpt>
      <trkpt lat="43.26511" lon="-1.05537">
        <ele>156.35</ele>
        <time>2021-08-20T14:12:24Z</time>
      </trkpt>
      <trkpt lat="43.26507" lon="-1.05542">
        <ele>155.39</ele>
        <time>2021-08-20T14:12:25Z</time>
      </trkpt>
      <trkpt lat="43.265" lon="-1.05545">
        <ele>154.91</ele>
        <time>2021-08-20T14:12:26Z</time>
      </trkpt>
      <trkpt lat="43.26494" lon="-1.05547">
        <ele>153.95</ele>
        <time>2021-08-20T14:12:27Z</time>
      </trkpt>
      <trkpt lat="43.26487" lon="-1.05548">
        <ele>153.47</ele>
        <time>2021-08-20T14:12:28Z</time>
      </trkpt>
      <trkpt lat="43.2648" lon="-1.05548">
        <ele>152.03</ele>
        <time>2021-08-20T14:12:29Z</time>
      </trkpt>
      <trkpt lat="43.26474" lon="-1.05547">
        <ele>151.54</ele>
        <time>2021-08-20T14:12:30Z</time>
      </trkpt>
      <trkpt lat="43.26458" lon="-1.05547">
        <ele>150.58</ele>
        <time>2021-08-20T14:12:33Z</time>
      </trkpt>
      <trkpt lat="43.26454" lon="-1.05549">
        <ele>150.1</ele>
        <time>2021-08-20T14:12:34Z</time>
      </trkpt>
      <trkpt lat="43.26445" lon="-1.05554">
        <ele>148.66</ele>
        <time>2021-08-20T14:12:36Z</time>
      </trkpt>
      <trkpt lat="43.2644" lon="-1.05558">
        <ele>148.66</ele>
        <time>2021-08-20T14:12:37Z</time>
      </trkpt>
      <trkpt lat="43.26435" lon="-1.05562">
        <ele>148.18</ele>
        <time>2021-08-20T14:12:38Z</time>
      </trkpt>
      <trkpt lat="43.26431" lon="-1.05567">
        <ele>147.7</ele>
        <time>2021-08-20T14:12:39Z</time>
      </trkpt>
      <trkpt lat="43.26426" lon="-1.05573">
        <ele>146.74</ele>
        <time>2021-08-20T14:12:40Z</time>
      </trkpt>
      <trkpt lat="43.26422" lon="-1.05578">
        <ele>146.74</ele>
        <time>2021-08-20T14:12:41Z</time>
      </trkpt>
      <trkpt lat="43.26403" lon="-1.05609">
        <ele>143.85</ele>
        <time>2021-08-20T14:12:46Z</time>
      </trkpt>
      <trkpt lat="43.26399" lon="-1.05615">
        <ele>143.85</ele>
        <time>2021-08-20T14:12:47Z</time>
      </trkpt>
      <trkpt lat="43.26381" lon="-1.05646">
        <ele>140.49</ele>
        <time>2021-08-20T14:12:52Z</time>
      </trkpt>
      <trkpt lat="43.26364" lon="-1.05679">
        <ele>138.57</ele>
        <time>2021-08-20T14:12:58Z</time>
      </trkpt>
      <trkpt lat="43.26357" lon="-1.05692">
        <ele>137.61</ele>
        <time>2021-08-20T14:13:01Z</time>
      </trkpt>
      <trkpt lat="43.26354" lon="-1.05695">
        <ele>137.13</ele>
        <time>2021-08-20T14:13:02Z</time>
      </trkpt>
      <trkpt lat="43.26349" lon="-1.05698">
        <ele>136.64</ele>
        <time>2021-08-20T14:13:03Z</time>
      </trkpt>
      <trkpt lat="43.26344" lon="-1.057">
        <ele>136.16</ele>
        <time>2021-08-20T14:13:04Z</time>
      </trkpt>
      <trkpt lat="43.26339" lon="-1.057">
        <ele>136.16</ele>
        <time>2021-08-20T14:13:05Z</time>
      </trkpt>
      <trkpt lat="43.26333" lon="-1.057">
        <ele>135.2</ele>
        <time>2021-08-20T14:13:06Z</time>
      </trkpt>
      <trkpt lat="43.26327" lon="-1.05699">
        <ele>135.2</ele>
        <time>2021-08-20T14:13:07Z</time>
      </trkpt>
      <trkpt lat="43.26308" lon="-1.05695">
        <ele>133.28</ele>
        <time>2021-08-20T14:13:10Z</time>
      </trkpt>
      <trkpt lat="43.26295" lon="-1.05691">
        <ele>133.28</ele>
        <time>2021-08-20T14:13:12Z</time>
      </trkpt>
      <trkpt lat="43.26289" lon="-1.05691">
        <ele>133.28</ele>
        <time>2021-08-20T14:13:13Z</time>
      </trkpt>
      <trkpt lat="43.26265" lon="-1.05693">
        <ele>133.28</ele>
        <time>2021-08-20T14:13:17Z</time>
      </trkpt>
      <trkpt lat="43.26259" lon="-1.05693">
        <ele>133.28</ele>
        <time>2021-08-20T14:13:18Z</time>
      </trkpt>
      <trkpt lat="43.26243" lon="-1.05689">
        <ele>133.28</ele>
        <time>2021-08-20T14:13:21Z</time>
      </trkpt>
      <trkpt lat="43.26239" lon="-1.05686">
        <ele>133.28</ele>
        <time>2021-08-20T14:13:22Z</time>
      </trkpt>
      <trkpt lat="43.26234" lon="-1.05683">
        <ele>133.28</ele>
        <time>2021-08-20T14:13:23Z</time>
      </trkpt>
      <trkpt lat="43.26231" lon="-1.0568">
        <ele>133.28</ele>
        <time>2021-08-20T14:13:24Z</time>
      </trkpt>
      <trkpt lat="43.26228" lon="-1.05677">
        <ele>134.72</ele>
        <time>2021-08-20T14:13:25Z</time>
      </trkpt>
      <trkpt lat="43.26225" lon="-1.05675">
        <ele>135.2</ele>
        <time>2021-08-20T14:13:26Z</time>
      </trkpt>
      <trkpt lat="43.26224" lon="-1.05673">
        <ele>135.2</ele>
        <time>2021-08-20T14:13:27Z</time>
      </trkpt>
      <trkpt lat="43.26222" lon="-1.05671">
        <ele>135.68</ele>
        <time>2021-08-20T14:13:28Z</time>
      </trkpt>
      <trkpt lat="43.26221" lon="-1.0567">
        <ele>135.68</ele>
        <time>2021-08-20T14:13:29Z</time>
      </trkpt>
      <trkpt lat="43.2622" lon="-1.05669">
        <ele>135.68</ele>
        <time>2021-08-20T14:13:30Z</time>
      </trkpt>
      <trkpt lat="43.26219" lon="-1.05668">
        <ele>136.16</ele>
        <time>2021-08-20T14:13:31Z</time>
      </trkpt>
      <trkpt lat="43.26219" lon="-1.05666">
        <ele>136.16</ele>
        <time>2021-08-20T14:13:32Z</time>
      </trkpt>
      <trkpt lat="43.26219" lon="-1.05665">
        <ele>136.16</ele>
        <time>2021-08-20T14:13:33Z</time>
      </trkpt>
      <trkpt lat="43.26218" lon="-1.05663">
        <ele>137.13</ele>
        <time>2021-08-20T14:13:34Z</time>
      </trkpt>
      <trkpt lat="43.26217" lon="-1.05662">
        <ele>137.13</ele>
        <time>2021-08-20T14:13:35Z</time>
      </trkpt>
      <trkpt lat="43.26216" lon="-1.0566">
        <ele>137.61</ele>
        <time>2021-08-20T14:13:36Z</time>
      </trkpt>
      <trkpt lat="43.26215" lon="-1.05659">
        <ele>137.61</ele>
        <time>2021-08-20T14:13:37Z</time>
      </trkpt>
      <trkpt lat="43.26214" lon="-1.05658">
        <ele>137.61</ele>
        <time>2021-08-20T14:13:38Z</time>
      </trkpt>
      <trkpt lat="43.26213" lon="-1.05657">
        <ele>138.09</ele>
        <time>2021-08-20T14:13:39Z</time>
      </trkpt>
      <trkpt lat="43.26203" lon="-1.05648">
        <ele>139.05</ele>
        <time>2021-08-20T14:13:48Z</time>
      </trkpt>
      <trkpt lat="43.26201" lon="-1.05647">
        <ele>139.53</ele>
        <time>2021-08-20T14:13:50Z</time>
      </trkpt>
      <trkpt lat="43.262" lon="-1.05646">
        <ele>139.53</ele>
        <time>2021-08-20T14:13:51Z</time>
      </trkpt>
      <trkpt lat="43.26196" lon="-1.05642">
        <ele>140.01</ele>
        <time>2021-08-20T14:13:56Z</time>
      </trkpt>
      <trkpt lat="43.26187" lon="-1.05638">
        <ele>140.97</ele>
        <time>2021-08-20T14:14:06Z</time>
      </trkpt>
      <trkpt lat="43.26177" lon="-1.05636">
        <ele>141.93</ele>
        <time>2021-08-20T14:14:15Z</time>
      </trkpt>
      <trkpt lat="43.26165" lon="-1.05635">
        <ele>143.37</ele>
        <time>2021-08-20T14:14:25Z</time>
      </trkpt>
      <trkpt lat="43.26154" lon="-1.05633">
        <ele>144.34</ele>
        <time>2021-08-20T14:14:34Z</time>
      </trkpt>
      <trkpt lat="43.26146" lon="-1.05633">
        <ele>145.3</ele>
        <time>2021-08-20T14:14:41Z</time>
      </trkpt>
      <trkpt lat="43.26142" lon="-1.05642">
        <ele>146.74</ele>
        <time>2021-08-20T14:14:49Z</time>
      </trkpt>
      <trkpt lat="43.26142" lon="-1.05647">
        <ele>147.22</ele>
        <time>2021-08-20T14:14:53Z</time>
      </trkpt>
      <trkpt lat="43.26143" lon="-1.0566">
        <ele>148.18</ele>
        <time>2021-08-20T14:15:02Z</time>
      </trkpt>
      <trkpt lat="43.26144" lon="-1.05669">
        <ele>149.14</ele>
        <time>2021-08-20T14:15:08Z</time>
      </trkpt>
      <trkpt lat="43.26143" lon="-1.0567">
        <ele>149.14</ele>
        <time>2021-08-20T14:15:09Z</time>
      </trkpt>
      <trkpt lat="43.26142" lon="-1.05672">
        <ele>149.14</ele>
        <time>2021-08-20T14:15:10Z</time>
      </trkpt>
      <trkpt lat="43.26143" lon="-1.05674">
        <ele>149.62</ele>
        <time>2021-08-20T14:15:11Z</time>
      </trkpt>
      <trkpt lat="43.26143" lon="-1.05675">
        <ele>149.62</ele>
        <time>2021-08-20T14:15:12Z</time>
      </trkpt>
      <trkpt lat="43.26144" lon="-1.05678">
        <ele>149.62</ele>
        <time>2021-08-20T14:15:17Z</time>
      </trkpt>
      <trkpt lat="43.26143" lon="-1.05681">
        <ele>150.1</ele>
        <time>2021-08-20T14:15:23Z</time>
      </trkpt>
      <trkpt lat="43.26143" lon="-1.05686">
        <ele>150.1</ele>
        <time>2021-08-20T14:15:30Z</time>
      </trkpt>
      <trkpt lat="43.26142" lon="-1.05688">
        <ele>150.1</ele>
        <time>2021-08-20T14:15:35Z</time>
      </trkpt>
      <trkpt lat="43.26141" lon="-1.05692">
        <ele>150.58</ele>
        <time>2021-08-20T14:15:37Z</time>
      </trkpt>
      <trkpt lat="43.2614" lon="-1.05695">
        <ele>150.58</ele>
        <time>2021-08-20T14:15:38Z</time>
      </trkpt>
      <trkpt lat="43.2614" lon="-1.05697">
        <ele>150.58</ele>
        <time>2021-08-20T14:15:39Z</time>
      </trkpt>
      <trkpt lat="43.2614" lon="-1.05718">
        <ele>152.51</ele>
        <time>2021-08-20T14:15:47Z</time>
      </trkpt>
      <trkpt lat="43.26139" lon="-1.05739">
        <ele>153.95</ele>
        <time>2021-08-20T14:15:56Z</time>
      </trkpt>
      <trkpt lat="43.26138" lon="-1.05753">
        <ele>154.43</ele>
        <time>2021-08-20T14:16:04Z</time>
      </trkpt>
      <trkpt lat="43.26136" lon="-1.05768">
        <ele>155.39</ele>
        <time>2021-08-20T14:16:13Z</time>
      </trkpt>
      <trkpt lat="43.26136" lon="-1.05788">
        <ele>156.83</ele>
        <time>2021-08-20T14:16:23Z</time>
      </trkpt>
      <trkpt lat="43.26136" lon="-1.05804">
        <ele>158.27</ele>
        <time>2021-08-20T14:16:31Z</time>
      </trkpt>
      <trkpt lat="43.26136" lon="-1.05808">
        <ele>158.27</ele>
        <time>2021-08-20T14:16:33Z</time>
      </trkpt>
      <trkpt lat="43.26136" lon="-1.05816">
        <ele>159.24</ele>
        <time>2021-08-20T14:16:37Z</time>
      </trkpt>
      <trkpt lat="43.26137" lon="-1.05818">
        <ele>159.24</ele>
        <time>2021-08-20T14:16:38Z</time>
      </trkpt>
      <trkpt lat="43.26137" lon="-1.0582">
        <ele>159.24</ele>
        <time>2021-08-20T14:16:39Z</time>
      </trkpt>
      <trkpt lat="43.26137" lon="-1.05823">
        <ele>159.24</ele>
        <time>2021-08-20T14:16:40Z</time>
      </trkpt>
      <trkpt lat="43.26137" lon="-1.05825">
        <ele>159.72</ele>
        <time>2021-08-20T14:16:41Z</time>
      </trkpt>
      <trkpt lat="43.26137" lon="-1.05827">
        <ele>159.72</ele>
        <time>2021-08-20T14:16:42Z</time>
      </trkpt>
      <trkpt lat="43.26137" lon="-1.0583">
        <ele>160.2</ele>
        <time>2021-08-20T14:16:43Z</time>
      </trkpt>
      <trkpt lat="43.26137" lon="-1.05833">
        <ele>160.2</ele>
        <time>2021-08-20T14:16:44Z</time>
      </trkpt>
      <trkpt lat="43.26137" lon="-1.05835">
        <ele>160.2</ele>
        <time>2021-08-20T14:16:45Z</time>
      </trkpt>
      <trkpt lat="43.26136" lon="-1.05838">
        <ele>160.68</ele>
        <time>2021-08-20T14:16:46Z</time>
      </trkpt>
      <trkpt lat="43.26128" lon="-1.05856">
        <ele>162.12</ele>
        <time>2021-08-20T14:16:55Z</time>
      </trkpt>
      <trkpt lat="43.26126" lon="-1.0586">
        <ele>162.6</ele>
        <time>2021-08-20T14:16:57Z</time>
      </trkpt>
      <trkpt lat="43.26125" lon="-1.05861">
        <ele>162.6</ele>
        <time>2021-08-20T14:16:58Z</time>
      </trkpt>
      <trkpt lat="43.26124" lon="-1.05863">
        <ele>162.6</ele>
        <time>2021-08-20T14:16:59Z</time>
      </trkpt>
      <trkpt lat="43.26123" lon="-1.05864">
        <ele>162.6</ele>
        <time>2021-08-20T14:17:00Z</time>
      </trkpt>
      <trkpt lat="43.26121" lon="-1.05865">
        <ele>162.6</ele>
        <time>2021-08-20T14:17:01Z</time>
      </trkpt>
      <trkpt lat="43.2612" lon="-1.05867">
        <ele>163.08</ele>
        <time>2021-08-20T14:17:02Z</time>
      </trkpt>
      <trkpt lat="43.26119" lon="-1.05869">
        <ele>163.08</ele>
        <time>2021-08-20T14:17:03Z</time>
      </trkpt>
      <trkpt lat="43.26117" lon="-1.0587">
        <ele>163.08</ele>
        <time>2021-08-20T14:17:04Z</time>
      </trkpt>
      <trkpt lat="43.26116" lon="-1.05872">
        <ele>163.08</ele>
        <time>2021-08-20T14:17:05Z</time>
      </trkpt>
      <trkpt lat="43.26115" lon="-1.05874">
        <ele>163.08</ele>
        <time>2021-08-20T14:17:06Z</time>
      </trkpt>
      <trkpt lat="43.26114" lon="-1.05876">
        <ele>163.56</ele>
        <time>2021-08-20T14:17:07Z</time>
      </trkpt>
      <trkpt lat="43.26113" lon="-1.05877">
        <ele>163.56</ele>
        <time>2021-08-20T14:17:08Z</time>
      </trkpt>
      <trkpt lat="43.26112" lon="-1.0588">
        <ele>164.04</ele>
        <time>2021-08-20T14:17:09Z</time>
      </trkpt>
      <trkpt lat="43.26111" lon="-1.05882">
        <ele>164.04</ele>
        <time>2021-08-20T14:17:10Z</time>
      </trkpt>
      <trkpt lat="43.26111" lon="-1.05884">
        <ele>164.52</ele>
        <time>2021-08-20T14:17:11Z</time>
      </trkpt>
      <trkpt lat="43.26103" lon="-1.05898">
        <ele>165</ele>
        <time>2021-08-20T14:17:18Z</time>
      </trkpt>
      <trkpt lat="43.26102" lon="-1.059">
        <ele>165</ele>
        <time>2021-08-20T14:17:19Z</time>
      </trkpt>
      <trkpt lat="43.26101" lon="-1.05903">
        <ele>165</ele>
        <time>2021-08-20T14:17:20Z</time>
      </trkpt>
      <trkpt lat="43.261" lon="-1.05905">
        <ele>165</ele>
        <time>2021-08-20T14:17:21Z</time>
      </trkpt>
      <trkpt lat="43.26099" lon="-1.05907">
        <ele>165</ele>
        <time>2021-08-20T14:17:22Z</time>
      </trkpt>
      <trkpt lat="43.26098" lon="-1.0591">
        <ele>165</ele>
        <time>2021-08-20T14:17:23Z</time>
      </trkpt>
      <trkpt lat="43.26088" lon="-1.0594">
        <ele>165</ele>
        <time>2021-08-20T14:17:32Z</time>
      </trkpt>
      <trkpt lat="43.2608" lon="-1.05965">
        <ele>165.48</ele>
        <time>2021-08-20T14:17:39Z</time>
      </trkpt>
      <trkpt lat="43.26068" lon="-1.05988">
        <ele>166.93</ele>
        <time>2021-08-20T14:17:47Z</time>
      </trkpt>
      <trkpt lat="43.26055" lon="-1.06011">
        <ele>167.89</ele>
        <time>2021-08-20T14:17:56Z</time>
      </trkpt>
      <trkpt lat="43.26041" lon="-1.06031">
        <ele>168.37</ele>
        <time>2021-08-20T14:18:04Z</time>
      </trkpt>
      <trkpt lat="43.26029" lon="-1.06056">
        <ele>169.81</ele>
        <time>2021-08-20T14:18:13Z</time>
      </trkpt>
      <trkpt lat="43.26022" lon="-1.06076">
        <ele>170.77</ele>
        <time>2021-08-20T14:18:21Z</time>
      </trkpt>
      <trkpt lat="43.26014" lon="-1.06096">
        <ele>172.21</ele>
        <time>2021-08-20T14:18:29Z</time>
      </trkpt>
      <trkpt lat="43.26009" lon="-1.06106">
        <ele>172.69</ele>
        <time>2021-08-20T14:18:33Z</time>
      </trkpt>
      <trkpt lat="43.26008" lon="-1.06108">
        <ele>172.69</ele>
        <time>2021-08-20T14:18:34Z</time>
      </trkpt>
      <trkpt lat="43.26004" lon="-1.06125">
        <ele>173.17</ele>
        <time>2021-08-20T14:18:40Z</time>
      </trkpt>
      <trkpt lat="43.25995" lon="-1.06151">
        <ele>173.66</ele>
        <time>2021-08-20T14:18:48Z</time>
      </trkpt>
      <trkpt lat="43.25985" lon="-1.06189">
        <ele>174.14</ele>
        <time>2021-08-20T14:18:57Z</time>
      </trkpt>
      <trkpt lat="43.25976" lon="-1.06224">
        <ele>174.62</ele>
        <time>2021-08-20T14:19:05Z</time>
      </trkpt>
      <trkpt lat="43.25969" lon="-1.06251">
        <ele>176.06</ele>
        <time>2021-08-20T14:19:13Z</time>
      </trkpt>
      <trkpt lat="43.25961" lon="-1.06281">
        <ele>177.02</ele>
        <time>2021-08-20T14:19:22Z</time>
      </trkpt>
      <trkpt lat="43.25951" lon="-1.06317">
        <ele>178.46</ele>
        <time>2021-08-20T14:19:32Z</time>
      </trkpt>
      <trkpt lat="43.25943" lon="-1.06353">
        <ele>178.94</ele>
        <time>2021-08-20T14:19:42Z</time>
      </trkpt>
      <trkpt lat="43.25938" lon="-1.06379">
        <ele>178.94</ele>
        <time>2021-08-20T14:19:49Z</time>
      </trkpt>
      <trkpt lat="43.25936" lon="-1.06413">
        <ele>178.46</ele>
        <time>2021-08-20T14:19:56Z</time>
      </trkpt>
      <trkpt lat="43.25935" lon="-1.06435">
        <ele>177.02</ele>
        <time>2021-08-20T14:20:00Z</time>
      </trkpt>
      <trkpt lat="43.25935" lon="-1.06461">
        <ele>176.06</ele>
        <time>2021-08-20T14:20:05Z</time>
      </trkpt>
      <trkpt lat="43.25934" lon="-1.0648">
        <ele>174.62</ele>
        <time>2021-08-20T14:20:10Z</time>
      </trkpt>
      <trkpt lat="43.25936" lon="-1.0651">
        <ele>173.66</ele>
        <time>2021-08-20T14:20:15Z</time>
      </trkpt>
      <trkpt lat="43.25937" lon="-1.06564">
        <ele>170.77</ele>
        <time>2021-08-20T14:20:21Z</time>
      </trkpt>
      <trkpt lat="43.25937" lon="-1.06573">
        <ele>169.81</ele>
        <time>2021-08-20T14:20:22Z</time>
      </trkpt>
      <trkpt lat="43.25936" lon="-1.06589">
        <ele>168.85</ele>
        <time>2021-08-20T14:20:24Z</time>
      </trkpt>
      <trkpt lat="43.25936" lon="-1.06605">
        <ele>167.41</ele>
        <time>2021-08-20T14:20:26Z</time>
      </trkpt>
      <trkpt lat="43.25938" lon="-1.06613">
        <ele>166.93</ele>
        <time>2021-08-20T14:20:27Z</time>
      </trkpt>
      <trkpt lat="43.2594" lon="-1.06621">
        <ele>165.96</ele>
        <time>2021-08-20T14:20:28Z</time>
      </trkpt>
      <trkpt lat="43.25953" lon="-1.06652">
        <ele>164.52</ele>
        <time>2021-08-20T14:20:32Z</time>
      </trkpt>
      <trkpt lat="43.25953" lon="-1.06657">
        <ele>163.56</ele>
        <time>2021-08-20T14:20:33Z</time>
      </trkpt>
      <trkpt lat="43.25953" lon="-1.0666">
        <ele>163.56</ele>
        <time>2021-08-20T14:20:34Z</time>
      </trkpt>
      <trkpt lat="43.25952" lon="-1.06661">
        <ele>163.08</ele>
        <time>2021-08-20T14:20:35Z</time>
      </trkpt>
      <trkpt lat="43.2595" lon="-1.06663">
        <ele>163.08</ele>
        <time>2021-08-20T14:20:36Z</time>
      </trkpt>
      <trkpt lat="43.25949" lon="-1.06665">
        <ele>163.08</ele>
        <time>2021-08-20T14:20:37Z</time>
      </trkpt>
      <trkpt lat="43.25947" lon="-1.06667">
        <ele>163.08</ele>
        <time>2021-08-20T14:20:38Z</time>
      </trkpt>
      <trkpt lat="43.25945" lon="-1.0667">
        <ele>162.6</ele>
        <time>2021-08-20T14:20:39Z</time>
      </trkpt>
      <trkpt lat="43.25943" lon="-1.06673">
        <ele>162.6</ele>
        <time>2021-08-20T14:20:40Z</time>
      </trkpt>
      <trkpt lat="43.25932" lon="-1.0669">
        <ele>158.75</ele>
        <time>2021-08-20T14:20:45Z</time>
      </trkpt>
      <trkpt lat="43.25929" lon="-1.06693">
        <ele>158.75</ele>
        <time>2021-08-20T14:20:46Z</time>
      </trkpt>
      <trkpt lat="43.25918" lon="-1.067">
        <ele>155.87</ele>
        <time>2021-08-20T14:20:49Z</time>
      </trkpt>
      <trkpt lat="43.25914" lon="-1.06701">
        <ele>155.39</ele>
        <time>2021-08-20T14:20:50Z</time>
      </trkpt>
      <trkpt lat="43.25909" lon="-1.06701">
        <ele>155.39</ele>
        <time>2021-08-20T14:20:51Z</time>
      </trkpt>
      <trkpt lat="43.25898" lon="-1.06703">
        <ele>153.95</ele>
        <time>2021-08-20T14:20:55Z</time>
      </trkpt>
      <trkpt lat="43.25896" lon="-1.06705">
        <ele>153.47</ele>
        <time>2021-08-20T14:20:56Z</time>
      </trkpt>
      <trkpt lat="43.25893" lon="-1.06708">
        <ele>152.51</ele>
        <time>2021-08-20T14:20:58Z</time>
      </trkpt>
      <trkpt lat="43.25891" lon="-1.0673">
        <ele>149.62</ele>
        <time>2021-08-20T14:21:05Z</time>
      </trkpt>
      <trkpt lat="43.25888" lon="-1.06739">
        <ele>148.66</ele>
        <time>2021-08-20T14:21:08Z</time>
      </trkpt>
      <trkpt lat="43.25884" lon="-1.06744">
        <ele>148.66</ele>
        <time>2021-08-20T14:21:13Z</time>
      </trkpt>
      <trkpt lat="43.25879" lon="-1.06748">
        <ele>148.18</ele>
        <time>2021-08-20T14:21:24Z</time>
      </trkpt>
      <trkpt lat="43.25875" lon="-1.06749">
        <ele>147.7</ele>
        <time>2021-08-20T14:21:26Z</time>
      </trkpt>
      <trkpt lat="43.25873" lon="-1.06749">
        <ele>147.22</ele>
        <time>2021-08-20T14:21:27Z</time>
      </trkpt>
      <trkpt lat="43.25871" lon="-1.06749">
        <ele>147.22</ele>
        <time>2021-08-20T14:21:28Z</time>
      </trkpt>
      <trkpt lat="43.25869" lon="-1.0675">
        <ele>147.22</ele>
        <time>2021-08-20T14:21:29Z</time>
      </trkpt>
      <trkpt lat="43.25867" lon="-1.06751">
        <ele>147.22</ele>
        <time>2021-08-20T14:21:30Z</time>
      </trkpt>
      <trkpt lat="43.25865" lon="-1.06752">
        <ele>146.74</ele>
        <time>2021-08-20T14:21:31Z</time>
      </trkpt>
      <trkpt lat="43.25849" lon="-1.06757">
        <ele>145.3</ele>
        <time>2021-08-20T14:21:36Z</time>
      </trkpt>
      <trkpt lat="43.25825" lon="-1.06768">
        <ele>143.37</ele>
        <time>2021-08-20T14:21:43Z</time>
      </trkpt>
      <trkpt lat="43.25806" lon="-1.06778">
        <ele>141.93</ele>
        <time>2021-08-20T14:21:50Z</time>
      </trkpt>
      <trkpt lat="43.2579" lon="-1.06788">
        <ele>141.45</ele>
        <time>2021-08-20T14:21:57Z</time>
      </trkpt>
      <trkpt lat="43.25771" lon="-1.06792">
        <ele>140.97</ele>
        <time>2021-08-20T14:22:03Z</time>
      </trkpt>
      <trkpt lat="43.25755" lon="-1.06792">
        <ele>139.53</ele>
        <time>2021-08-20T14:22:08Z</time>
      </trkpt>
      <trkpt lat="43.25732" lon="-1.06799">
        <ele>138.57</ele>
        <time>2021-08-20T14:22:15Z</time>
      </trkpt>
      <trkpt lat="43.25715" lon="-1.06806">
        <ele>136.64</ele>
        <time>2021-08-20T14:22:19Z</time>
      </trkpt>
      <trkpt lat="43.2571" lon="-1.06807">
        <ele>136.64</ele>
        <time>2021-08-20T14:22:20Z</time>
      </trkpt>
      <trkpt lat="43.25681" lon="-1.06822">
        <ele>135.68</ele>
        <time>2021-08-20T14:22:27Z</time>
      </trkpt>
      <trkpt lat="43.25678" lon="-1.06826">
        <ele>135.68</ele>
        <time>2021-08-20T14:22:28Z</time>
      </trkpt>
      <trkpt lat="43.25675" lon="-1.0683">
        <ele>135.68</ele>
        <time>2021-08-20T14:22:29Z</time>
      </trkpt>
      <trkpt lat="43.25674" lon="-1.06832">
        <ele>135.68</ele>
        <time>2021-08-20T14:22:30Z</time>
      </trkpt>
      <trkpt lat="43.25673" lon="-1.06834">
        <ele>135.68</ele>
        <time>2021-08-20T14:22:31Z</time>
      </trkpt>
      <trkpt lat="43.25672" lon="-1.06835">
        <ele>135.68</ele>
        <time>2021-08-20T14:22:32Z</time>
      </trkpt>
      <trkpt lat="43.25671" lon="-1.06836">
        <ele>135.68</ele>
        <time>2021-08-20T14:22:37Z</time>
      </trkpt>
      <trkpt lat="43.25671" lon="-1.06838">
        <ele>135.68</ele>
        <time>2021-08-20T14:22:40Z</time>
      </trkpt>
      <trkpt lat="43.2567" lon="-1.0684">
        <ele>135.68</ele>
        <time>2021-08-20T14:22:41Z</time>
      </trkpt>
      <trkpt lat="43.25668" lon="-1.06841">
        <ele>135.68</ele>
        <time>2021-08-20T14:22:42Z</time>
      </trkpt>
      <trkpt lat="43.25666" lon="-1.06843">
        <ele>135.68</ele>
        <time>2021-08-20T14:22:43Z</time>
      </trkpt>
      <trkpt lat="43.25664" lon="-1.06845">
        <ele>135.68</ele>
        <time>2021-08-20T14:22:44Z</time>
      </trkpt>
      <trkpt lat="43.25663" lon="-1.06846">
        <ele>135.68</ele>
        <time>2021-08-20T14:22:45Z</time>
      </trkpt>
      <trkpt lat="43.2566" lon="-1.06848">
        <ele>135.68</ele>
        <time>2021-08-20T14:22:46Z</time>
      </trkpt>
      <trkpt lat="43.25658" lon="-1.06849">
        <ele>135.68</ele>
        <time>2021-08-20T14:22:47Z</time>
      </trkpt>
      <trkpt lat="43.25654" lon="-1.0685">
        <ele>135.68</ele>
        <time>2021-08-20T14:22:48Z</time>
      </trkpt>
      <trkpt lat="43.2565" lon="-1.06851">
        <ele>135.68</ele>
        <time>2021-08-20T14:22:49Z</time>
      </trkpt>
      <trkpt lat="43.25642" lon="-1.06853">
        <ele>135.2</ele>
        <time>2021-08-20T14:22:51Z</time>
      </trkpt>
      <trkpt lat="43.25638" lon="-1.06852">
        <ele>135.2</ele>
        <time>2021-08-20T14:22:52Z</time>
      </trkpt>
      <trkpt lat="43.25635" lon="-1.06851">
        <ele>135.2</ele>
        <time>2021-08-20T14:22:53Z</time>
      </trkpt>
      <trkpt lat="43.25624" lon="-1.06848">
        <ele>135.2</ele>
        <time>2021-08-20T14:22:56Z</time>
      </trkpt>
      <trkpt lat="43.2562" lon="-1.06849">
        <ele>135.2</ele>
        <time>2021-08-20T14:22:57Z</time>
      </trkpt>
      <trkpt lat="43.25598" lon="-1.06858">
        <ele>134.72</ele>
        <time>2021-08-20T14:23:02Z</time>
      </trkpt>
      <trkpt lat="43.25564" lon="-1.06869">
        <ele>133.28</ele>
        <time>2021-08-20T14:23:09Z</time>
      </trkpt>
      <trkpt lat="43.2556" lon="-1.06871">
        <ele>133.28</ele>
        <time>2021-08-20T14:23:10Z</time>
      </trkpt>
      <trkpt lat="43.25542" lon="-1.06878">
        <ele>133.28</ele>
        <time>2021-08-20T14:23:16Z</time>
      </trkpt>
      <trkpt lat="43.25535" lon="-1.06879">
        <ele>134.24</ele>
        <time>2021-08-20T14:23:19Z</time>
      </trkpt>
      <trkpt lat="43.25528" lon="-1.06879">
        <ele>135.2</ele>
        <time>2021-08-20T14:23:25Z</time>
      </trkpt>
      <trkpt lat="43.25519" lon="-1.06882">
        <ele>137.13</ele>
        <time>2021-08-20T14:23:35Z</time>
      </trkpt>
      <trkpt lat="43.25511" lon="-1.06886">
        <ele>138.57</ele>
        <time>2021-08-20T14:23:44Z</time>
      </trkpt>
      <trkpt lat="43.25506" lon="-1.0689">
        <ele>139.05</ele>
        <time>2021-08-20T14:23:52Z</time>
      </trkpt>
      <trkpt lat="43.25501" lon="-1.06892">
        <ele>140.49</ele>
        <time>2021-08-20T14:24:00Z</time>
      </trkpt>
      <trkpt lat="43.25495" lon="-1.06896">
        <ele>141.93</ele>
        <time>2021-08-20T14:24:08Z</time>
      </trkpt>
      <trkpt lat="43.2549" lon="-1.069">
        <ele>142.89</ele>
        <time>2021-08-20T14:24:16Z</time>
      </trkpt>
      <trkpt lat="43.25487" lon="-1.06903">
        <ele>145.3</ele>
        <time>2021-08-20T14:24:25Z</time>
      </trkpt>
      <trkpt lat="43.25481" lon="-1.06905">
        <ele>143.37</ele>
        <time>2021-08-20T14:24:32Z</time>
      </trkpt>
      <trkpt lat="43.25463" lon="-1.06914">
        <ele>141.93</ele>
        <time>2021-08-20T14:24:37Z</time>
      </trkpt>
      <trkpt lat="43.25455" lon="-1.06921">
        <ele>141.45</ele>
        <time>2021-08-20T14:24:39Z</time>
      </trkpt>
      <trkpt lat="43.25452" lon="-1.06925">
        <ele>141.45</ele>
        <time>2021-08-20T14:24:40Z</time>
      </trkpt>
      <trkpt lat="43.25451" lon="-1.06929">
        <ele>142.89</ele>
        <time>2021-08-20T14:24:41Z</time>
      </trkpt>
      <trkpt lat="43.2545" lon="-1.06932">
        <ele>142.89</ele>
        <time>2021-08-20T14:24:42Z</time>
      </trkpt>
      <trkpt lat="43.2545" lon="-1.06934">
        <ele>143.37</ele>
        <time>2021-08-20T14:24:43Z</time>
      </trkpt>
      <trkpt lat="43.2545" lon="-1.06936">
        <ele>143.37</ele>
        <time>2021-08-20T14:24:44Z</time>
      </trkpt>
      <trkpt lat="43.2545" lon="-1.06938">
        <ele>144.34</ele>
        <time>2021-08-20T14:24:45Z</time>
      </trkpt>
      <trkpt lat="43.2545" lon="-1.0694">
        <ele>144.34</ele>
        <time>2021-08-20T14:24:46Z</time>
      </trkpt>
      <trkpt lat="43.2545" lon="-1.06942">
        <ele>144.34</ele>
        <time>2021-08-20T14:24:47Z</time>
      </trkpt>
      <trkpt lat="43.25451" lon="-1.06951">
        <ele>145.78</ele>
        <time>2021-08-20T14:24:54Z</time>
      </trkpt>
      <trkpt lat="43.25453" lon="-1.06964">
        <ele>146.26</ele>
        <time>2021-08-20T14:25:03Z</time>
      </trkpt>
      <trkpt lat="43.25454" lon="-1.06971">
        <ele>147.22</ele>
        <time>2021-08-20T14:25:09Z</time>
      </trkpt>
      <trkpt lat="43.25459" lon="-1.06983">
        <ele>148.66</ele>
        <time>2021-08-20T14:25:18Z</time>
      </trkpt>
      <trkpt lat="43.25466" lon="-1.06987">
        <ele>150.1</ele>
        <time>2021-08-20T14:25:28Z</time>
      </trkpt>
      <trkpt lat="43.25471" lon="-1.06982">
        <ele>151.06</ele>
        <time>2021-08-20T14:25:35Z</time>
      </trkpt>
      <trkpt lat="43.25473" lon="-1.06981">
        <ele>151.54</ele>
        <time>2021-08-20T14:25:39Z</time>
      </trkpt>
      <trkpt lat="43.25481" lon="-1.06978">
        <ele>152.99</ele>
        <time>2021-08-20T14:25:47Z</time>
      </trkpt>
      <trkpt lat="43.25495" lon="-1.06974">
        <ele>153.95</ele>
        <time>2021-08-20T14:25:58Z</time>
      </trkpt>
      <trkpt lat="43.25505" lon="-1.06978">
        <ele>154.91</ele>
        <time>2021-08-20T14:26:06Z</time>
      </trkpt>
      <trkpt lat="43.25506" lon="-1.0698">
        <ele>154.91</ele>
        <time>2021-08-20T14:26:07Z</time>
      </trkpt>
      <trkpt lat="43.25507" lon="-1.06981">
        <ele>154.91</ele>
        <time>2021-08-20T14:26:08Z</time>
      </trkpt>
      <trkpt lat="43.25507" lon="-1.06982">
        <ele>155.39</ele>
        <time>2021-08-20T14:26:09Z</time>
      </trkpt>
      <trkpt lat="43.25507" lon="-1.06984">
        <ele>155.39</ele>
        <time>2021-08-20T14:26:10Z</time>
      </trkpt>
      <trkpt lat="43.25508" lon="-1.06985">
        <ele>155.39</ele>
        <time>2021-08-20T14:26:11Z</time>
      </trkpt>
      <trkpt lat="43.25508" lon="-1.06987">
        <ele>155.87</ele>
        <time>2021-08-20T14:26:12Z</time>
      </trkpt>
      <trkpt lat="43.2551" lon="-1.06999">
        <ele>157.31</ele>
        <time>2021-08-20T14:26:21Z</time>
      </trkpt>
      <trkpt lat="43.25514" lon="-1.07012">
        <ele>158.27</ele>
        <time>2021-08-20T14:26:30Z</time>
      </trkpt>
      <trkpt lat="43.25517" lon="-1.07022">
        <ele>159.24</ele>
        <time>2021-08-20T14:26:39Z</time>
      </trkpt>
      <trkpt lat="43.2552" lon="-1.07027">
        <ele>159.24</ele>
        <time>2021-08-20T14:26:45Z</time>
      </trkpt>
      <trkpt lat="43.25522" lon="-1.07033">
        <ele>159.72</ele>
        <time>2021-08-20T14:26:54Z</time>
      </trkpt>
      <trkpt lat="43.25523" lon="-1.07041">
        <ele>159.72</ele>
        <time>2021-08-20T14:27:01Z</time>
      </trkpt>
      <trkpt lat="43.25524" lon="-1.07042">
        <ele>159.72</ele>
        <time>2021-08-20T14:27:02Z</time>
      </trkpt>
      <trkpt lat="43.25524" lon="-1.07044">
        <ele>160.2</ele>
        <time>2021-08-20T14:27:03Z</time>
      </trkpt>
      <trkpt lat="43.25525" lon="-1.07045">
        <ele>160.2</ele>
        <time>2021-08-20T14:27:04Z</time>
      </trkpt>
      <trkpt lat="43.25526" lon="-1.07047">
        <ele>160.2</ele>
        <time>2021-08-20T14:27:05Z</time>
      </trkpt>
      <trkpt lat="43.25527" lon="-1.07047">
        <ele>160.2</ele>
        <time>2021-08-20T14:27:06Z</time>
      </trkpt>
      <trkpt lat="43.25529" lon="-1.07051">
        <ele>160.68</ele>
        <time>2021-08-20T14:27:12Z</time>
      </trkpt>
      <trkpt lat="43.25529" lon="-1.07055">
        <ele>161.16</ele>
        <time>2021-08-20T14:27:26Z</time>
      </trkpt>
      <trkpt lat="43.25535" lon="-1.07073">
        <ele>161.64</ele>
        <time>2021-08-20T14:27:33Z</time>
      </trkpt>
      <trkpt lat="43.25541" lon="-1.07091">
        <ele>162.6</ele>
        <time>2021-08-20T14:27:41Z</time>
      </trkpt>
      <trkpt lat="43.25542" lon="-1.07091">
        <ele>163.08</ele>
        <time>2021-08-20T14:27:44Z</time>
      </trkpt>
      <trkpt lat="43.25543" lon="-1.07088">
        <ele>163.08</ele>
        <time>2021-08-20T14:27:45Z</time>
      </trkpt>
      <trkpt lat="43.25544" lon="-1.07087">
        <ele>163.08</ele>
        <time>2021-08-20T14:27:46Z</time>
      </trkpt>
      <trkpt lat="43.25546" lon="-1.07085">
        <ele>163.08</ele>
        <time>2021-08-20T14:27:47Z</time>
      </trkpt>
      <trkpt lat="43.25548" lon="-1.07085">
        <ele>163.08</ele>
        <time>2021-08-20T14:27:48Z</time>
      </trkpt>
      <trkpt lat="43.25551" lon="-1.07082">
        <ele>163.56</ele>
        <time>2021-08-20T14:27:53Z</time>
      </trkpt>
      <trkpt lat="43.25552" lon="-1.07083">
        <ele>163.56</ele>
        <time>2021-08-20T14:28:03Z</time>
      </trkpt>
      <trkpt lat="43.25551" lon="-1.07083">
        <ele>163.56</ele>
        <time>2021-08-20T14:28:14Z</time>
      </trkpt>
      <trkpt lat="43.25549" lon="-1.07083">
        <ele>163.56</ele>
        <time>2021-08-20T14:28:23Z</time>
      </trkpt>
      <trkpt lat="43.25548" lon="-1.07082">
        <ele>163.56</ele>
        <time>2021-08-20T14:28:38Z</time>
      </trkpt>
      <trkpt lat="43.25549" lon="-1.07082">
        <ele>163.56</ele>
        <time>2021-08-20T14:28:48Z</time>
      </trkpt>
      <trkpt lat="43.2555" lon="-1.07082">
        <ele>163.56</ele>
        <time>2021-08-20T14:28:59Z</time>
      </trkpt>
      <trkpt lat="43.25551" lon="-1.07082">
        <ele>163.56</ele>
        <time>2021-08-20T14:29:06Z</time>
      </trkpt>
      <trkpt lat="43.25551" lon="-1.07083">
        <ele>163.56</ele>
        <time>2021-08-20T14:29:16Z</time>
      </trkpt>
      <trkpt lat="43.25553" lon="-1.07084">
        <ele>163.56</ele>
        <time>2021-08-20T14:29:28Z</time>
      </trkpt>
      <trkpt lat="43.25553" lon="-1.07083">
        <ele>163.56</ele>
        <time>2021-08-20T14:29:40Z</time>
      </trkpt>
      <trkpt lat="43.25553" lon="-1.07082">
        <ele>163.08</ele>
        <time>2021-08-20T14:29:53Z</time>
      </trkpt>
      <trkpt lat="43.25553" lon="-1.07081">
        <ele>163.08</ele>
        <time>2021-08-20T14:30:00Z</time>
      </trkpt>
      <trkpt lat="43.25551" lon="-1.07078">
        <ele>163.08</ele>
        <time>2021-08-20T14:30:04Z</time>
      </trkpt>
      <trkpt lat="43.25552" lon="-1.07079">
        <ele>163.08</ele>
        <time>2021-08-20T14:30:10Z</time>
      </trkpt>
      <trkpt lat="43.25551" lon="-1.0708">
        <ele>163.08</ele>
        <time>2021-08-20T14:30:18Z</time>
      </trkpt>
      <trkpt lat="43.25551" lon="-1.07078">
        <ele>163.08</ele>
        <time>2021-08-20T14:30:24Z</time>
      </trkpt>
      <trkpt lat="43.2555" lon="-1.0708">
        <ele>163.08</ele>
        <time>2021-08-20T14:30:29Z</time>
      </trkpt>
      <trkpt lat="43.25548" lon="-1.07084">
        <ele>163.08</ele>
        <time>2021-08-20T14:30:37Z</time>
      </trkpt>
      <trkpt lat="43.25548" lon="-1.07084">
        <ele>163.08</ele>
        <time>2021-08-20T14:30:41Z</time>
      </trkpt>
      <trkpt lat="43.25543" lon="-1.07094">
        <ele>163.08</ele>
        <time>2021-08-20T14:30:47Z</time>
      </trkpt>
      <trkpt lat="43.25544" lon="-1.07097">
        <ele>163.08</ele>
        <time>2021-08-20T14:30:48Z</time>
      </trkpt>
      <trkpt lat="43.25545" lon="-1.071">
        <ele>163.08</ele>
        <time>2021-08-20T14:30:49Z</time>
      </trkpt>
      <trkpt lat="43.25547" lon="-1.07104">
        <ele>163.08</ele>
        <time>2021-08-20T14:30:50Z</time>
      </trkpt>
      <trkpt lat="43.25548" lon="-1.07108">
        <ele>163.08</ele>
        <time>2021-08-20T14:30:51Z</time>
      </trkpt>
      <trkpt lat="43.2556" lon="-1.07134">
        <ele>164.04</ele>
        <time>2021-08-20T14:30:59Z</time>
      </trkpt>
      <trkpt lat="43.25567" lon="-1.07144">
        <ele>164.52</ele>
        <time>2021-08-20T14:31:05Z</time>
      </trkpt>
      <trkpt lat="43.25571" lon="-1.07146">
        <ele>165</ele>
        <time>2021-08-20T14:31:10Z</time>
      </trkpt>
      <trkpt lat="43.25578" lon="-1.07145">
        <ele>165.96</ele>
        <time>2021-08-20T14:31:18Z</time>
      </trkpt>
      <trkpt lat="43.2558" lon="-1.07145">
        <ele>167.41</ele>
        <time>2021-08-20T14:31:25Z</time>
      </trkpt>
      <trkpt lat="43.25579" lon="-1.07144">
        <ele>167.41</ele>
        <time>2021-08-20T14:31:33Z</time>
      </trkpt>
      <trkpt lat="43.25575" lon="-1.07143">
        <ele>166.93</ele>
        <time>2021-08-20T14:31:48Z</time>
      </trkpt>
      <trkpt lat="43.25574" lon="-1.07144">
        <ele>166.93</ele>
        <time>2021-08-20T14:32:05Z</time>
      </trkpt>
      <trkpt lat="43.25574" lon="-1.07145">
        <ele>166.93</ele>
        <time>2021-08-20T14:32:15Z</time>
      </trkpt>
      <trkpt lat="43.25573" lon="-1.07146">
        <ele>166.93</ele>
        <time>2021-08-20T14:32:25Z</time>
      </trkpt>
      <trkpt lat="43.25573" lon="-1.07147">
        <ele>166.93</ele>
        <time>2021-08-20T14:32:33Z</time>
      </trkpt>
      <trkpt lat="43.25574" lon="-1.07146">
        <ele>166.93</ele>
        <time>2021-08-20T14:32:39Z</time>
      </trkpt>
      <trkpt lat="43.25576" lon="-1.07146">
        <ele>166.93</ele>
        <time>2021-08-20T14:32:41Z</time>
      </trkpt>
      <trkpt lat="43.25575" lon="-1.07148">
        <ele>165.48</ele>
        <time>2021-08-20T14:32:46Z</time>
      </trkpt>
      <trkpt lat="43.25573" lon="-1.0715">
        <ele>165.48</ele>
        <time>2021-08-20T14:32:55Z</time>
      </trkpt>
      <trkpt lat="43.25569" lon="-1.07145">
        <ele>165.48</ele>
        <time>2021-08-20T14:33:15Z</time>
      </trkpt>
      <trkpt lat="43.2557" lon="-1.07146">
        <ele>165.48</ele>
        <time>2021-08-20T14:33:34Z</time>
      </trkpt>
      <trkpt lat="43.25569" lon="-1.07145">
        <ele>165.48</ele>
        <time>2021-08-20T14:33:50Z</time>
      </trkpt>
      <trkpt lat="43.25569" lon="-1.07144">
        <ele>165.48</ele>
        <time>2021-08-20T14:34:06Z</time>
      </trkpt>
      <trkpt lat="43.25567" lon="-1.07142">
        <ele>165.48</ele>
        <time>2021-08-20T14:34:17Z</time>
      </trkpt>
      <trkpt lat="43.25568" lon="-1.07142">
        <ele>165.48</ele>
        <time>2021-08-20T14:34:36Z</time>
      </trkpt>
      <trkpt lat="43.25567" lon="-1.07135">
        <ele>165</ele>
        <time>2021-08-20T14:34:46Z</time>
      </trkpt>
      <trkpt lat="43.25565" lon="-1.07132">
        <ele>165.48</ele>
        <time>2021-08-20T14:35:03Z</time>
      </trkpt>
      <trkpt lat="43.25563" lon="-1.07133">
        <ele>165.48</ele>
        <time>2021-08-20T14:35:05Z</time>
      </trkpt>
      <trkpt lat="43.25559" lon="-1.07135">
        <ele>165.48</ele>
        <time>2021-08-20T14:35:07Z</time>
      </trkpt>
      <trkpt lat="43.25558" lon="-1.07134">
        <ele>164.52</ele>
        <time>2021-08-20T14:35:08Z</time>
      </trkpt>
      <trkpt lat="43.25559" lon="-1.07142">
        <ele>164.52</ele>
        <time>2021-08-20T14:35:11Z</time>
      </trkpt>
      <trkpt lat="43.25559" lon="-1.07147">
        <ele>164.52</ele>
        <time>2021-08-20T14:35:13Z</time>
      </trkpt>
      <trkpt lat="43.2556" lon="-1.07151">
        <ele>164.52</ele>
        <time>2021-08-20T14:35:14Z</time>
      </trkpt>
      <trkpt lat="43.25564" lon="-1.07175">
        <ele>163.56</ele>
        <time>2021-08-20T14:35:18Z</time>
      </trkpt>
      <trkpt lat="43.25563" lon="-1.07181">
        <ele>163.56</ele>
        <time>2021-08-20T14:35:19Z</time>
      </trkpt>
      <trkpt lat="43.25559" lon="-1.07212">
        <ele>162.12</ele>
        <time>2021-08-20T14:35:23Z</time>
      </trkpt>
      <trkpt lat="43.25557" lon="-1.07219">
        <ele>161.64</ele>
        <time>2021-08-20T14:35:24Z</time>
      </trkpt>
      <trkpt lat="43.25553" lon="-1.07226">
        <ele>161.16</ele>
        <time>2021-08-20T14:35:25Z</time>
      </trkpt>
      <trkpt lat="43.25549" lon="-1.07232">
        <ele>160.68</ele>
        <time>2021-08-20T14:35:26Z</time>
      </trkpt>
      <trkpt lat="43.25543" lon="-1.07237">
        <ele>160.2</ele>
        <time>2021-08-20T14:35:27Z</time>
      </trkpt>
      <trkpt lat="43.25537" lon="-1.07242">
        <ele>159.24</ele>
        <time>2021-08-20T14:35:28Z</time>
      </trkpt>
      <trkpt lat="43.25523" lon="-1.07255">
        <ele>158.75</ele>
        <time>2021-08-20T14:35:30Z</time>
      </trkpt>
      <trkpt lat="43.25514" lon="-1.07265">
        <ele>158.27</ele>
        <time>2021-08-20T14:35:32Z</time>
      </trkpt>
      <trkpt lat="43.25509" lon="-1.07272">
        <ele>159.72</ele>
        <time>2021-08-20T14:35:33Z</time>
      </trkpt>
      <trkpt lat="43.25505" lon="-1.0728">
        <ele>159.72</ele>
        <time>2021-08-20T14:35:34Z</time>
      </trkpt>
      <trkpt lat="43.25501" lon="-1.07288">
        <ele>158.27</ele>
        <time>2021-08-20T14:35:35Z</time>
      </trkpt>
      <trkpt lat="43.25498" lon="-1.07297">
        <ele>158.27</ele>
        <time>2021-08-20T14:35:36Z</time>
      </trkpt>
      <trkpt lat="43.25496" lon="-1.07306">
        <ele>158.27</ele>
        <time>2021-08-20T14:35:37Z</time>
      </trkpt>
      <trkpt lat="43.25494" lon="-1.07315">
        <ele>158.27</ele>
        <time>2021-08-20T14:35:38Z</time>
      </trkpt>
      <trkpt lat="43.25492" lon="-1.07324">
        <ele>157.79</ele>
        <time>2021-08-20T14:35:39Z</time>
      </trkpt>
      <trkpt lat="43.25488" lon="-1.07344">
        <ele>157.31</ele>
        <time>2021-08-20T14:35:41Z</time>
      </trkpt>
      <trkpt lat="43.25483" lon="-1.07406">
        <ele>157.31</ele>
        <time>2021-08-20T14:35:48Z</time>
      </trkpt>
      <trkpt lat="43.25481" lon="-1.07412">
        <ele>157.31</ele>
        <time>2021-08-20T14:35:49Z</time>
      </trkpt>
      <trkpt lat="43.25479" lon="-1.07416">
        <ele>158.27</ele>
        <time>2021-08-20T14:35:50Z</time>
      </trkpt>
      <trkpt lat="43.25476" lon="-1.07419">
        <ele>158.27</ele>
        <time>2021-08-20T14:35:51Z</time>
      </trkpt>
      <trkpt lat="43.25473" lon="-1.07423">
        <ele>159.24</ele>
        <time>2021-08-20T14:35:52Z</time>
      </trkpt>
      <trkpt lat="43.2547" lon="-1.07427">
        <ele>159.24</ele>
        <time>2021-08-20T14:35:53Z</time>
      </trkpt>
      <trkpt lat="43.25463" lon="-1.07434">
        <ele>159.24</ele>
        <time>2021-08-20T14:35:55Z</time>
      </trkpt>
      <trkpt lat="43.25417" lon="-1.07471">
        <ele>159.24</ele>
        <time>2021-08-20T14:36:07Z</time>
      </trkpt>
      <trkpt lat="43.25404" lon="-1.07484">
        <ele>159.24</ele>
        <time>2021-08-20T14:36:11Z</time>
      </trkpt>
      <trkpt lat="43.25388" lon="-1.07501">
        <ele>159.24</ele>
        <time>2021-08-20T14:36:16Z</time>
      </trkpt>
      <trkpt lat="43.25385" lon="-1.07506">
        <ele>159.24</ele>
        <time>2021-08-20T14:36:17Z</time>
      </trkpt>
      <trkpt lat="43.25384" lon="-1.07512">
        <ele>159.24</ele>
        <time>2021-08-20T14:36:18Z</time>
      </trkpt>
      <trkpt lat="43.25382" lon="-1.07516">
        <ele>159.24</ele>
        <time>2021-08-20T14:36:19Z</time>
      </trkpt>
      <trkpt lat="43.2538" lon="-1.0752">
        <ele>159.24</ele>
        <time>2021-08-20T14:36:20Z</time>
      </trkpt>
      <trkpt lat="43.25378" lon="-1.07524">
        <ele>159.24</ele>
        <time>2021-08-20T14:36:21Z</time>
      </trkpt>
      <trkpt lat="43.25375" lon="-1.07527">
        <ele>159.24</ele>
        <time>2021-08-20T14:36:22Z</time>
      </trkpt>
      <trkpt lat="43.25372" lon="-1.0753">
        <ele>159.24</ele>
        <time>2021-08-20T14:36:23Z</time>
      </trkpt>
      <trkpt lat="43.25353" lon="-1.0755">
        <ele>159.72</ele>
        <time>2021-08-20T14:36:29Z</time>
      </trkpt>
      <trkpt lat="43.25341" lon="-1.07564">
        <ele>158.27</ele>
        <time>2021-08-20T14:36:32Z</time>
      </trkpt>
      <trkpt lat="43.25337" lon="-1.07569">
        <ele>158.27</ele>
        <time>2021-08-20T14:36:33Z</time>
      </trkpt>
      <trkpt lat="43.25303" lon="-1.07604">
        <ele>155.87</ele>
        <time>2021-08-20T14:36:40Z</time>
      </trkpt>
      <trkpt lat="43.25282" lon="-1.07619">
        <ele>153.95</ele>
        <time>2021-08-20T14:36:43Z</time>
      </trkpt>
      <trkpt lat="43.25275" lon="-1.07626">
        <ele>153.47</ele>
        <time>2021-08-20T14:36:44Z</time>
      </trkpt>
      <trkpt lat="43.25252" lon="-1.07652">
        <ele>150.1</ele>
        <time>2021-08-20T14:36:47Z</time>
      </trkpt>
      <trkpt lat="43.25234" lon="-1.07674">
        <ele>145.3</ele>
        <time>2021-08-20T14:36:49Z</time>
      </trkpt>
      <trkpt lat="43.25189" lon="-1.07729">
        <ele>143.37</ele>
        <time>2021-08-20T14:36:54Z</time>
      </trkpt>
      <trkpt lat="43.25151" lon="-1.0778">
        <ele>143.85</ele>
        <time>2021-08-20T14:36:59Z</time>
      </trkpt>
      <trkpt lat="43.25119" lon="-1.07814">
        <ele>145.78</ele>
        <time>2021-08-20T14:37:04Z</time>
      </trkpt>
      <trkpt lat="43.25109" lon="-1.07823">
        <ele>146.74</ele>
        <time>2021-08-20T14:37:06Z</time>
      </trkpt>
      <trkpt lat="43.25094" lon="-1.07832">
        <ele>147.22</ele>
        <time>2021-08-20T14:37:09Z</time>
      </trkpt>
      <trkpt lat="43.25061" lon="-1.07843">
        <ele>148.66</ele>
        <time>2021-08-20T14:37:17Z</time>
      </trkpt>
      <trkpt lat="43.25037" lon="-1.07847">
        <ele>149.62</ele>
        <time>2021-08-20T14:37:24Z</time>
      </trkpt>
      <trkpt lat="43.25016" lon="-1.07855">
        <ele>150.58</ele>
        <time>2021-08-20T14:37:32Z</time>
      </trkpt>
      <trkpt lat="43.24992" lon="-1.07866">
        <ele>152.51</ele>
        <time>2021-08-20T14:37:42Z</time>
      </trkpt>
      <trkpt lat="43.24974" lon="-1.07878">
        <ele>153.95</ele>
        <time>2021-08-20T14:37:51Z</time>
      </trkpt>
      <trkpt lat="43.24958" lon="-1.07888">
        <ele>155.87</ele>
        <time>2021-08-20T14:38:00Z</time>
      </trkpt>
      <trkpt lat="43.24953" lon="-1.07891">
        <ele>156.35</ele>
        <time>2021-08-20T14:38:05Z</time>
      </trkpt>
      <trkpt lat="43.24943" lon="-1.07897">
        <ele>157.79</ele>
        <time>2021-08-20T14:38:15Z</time>
      </trkpt>
      <trkpt lat="43.24934" lon="-1.07903">
        <ele>158.75</ele>
        <time>2021-08-20T14:38:24Z</time>
      </trkpt>
      <trkpt lat="43.24923" lon="-1.07909">
        <ele>161.16</ele>
        <time>2021-08-20T14:38:36Z</time>
      </trkpt>
      <trkpt lat="43.24916" lon="-1.07912">
        <ele>162.6</ele>
        <time>2021-08-20T14:38:43Z</time>
      </trkpt>
      <trkpt lat="43.24909" lon="-1.07913">
        <ele>163.56</ele>
        <time>2021-08-20T14:38:52Z</time>
      </trkpt>
      <trkpt lat="43.24901" lon="-1.07916">
        <ele>165</ele>
        <time>2021-08-20T14:39:02Z</time>
      </trkpt>
      <trkpt lat="43.24888" lon="-1.07915">
        <ele>167.41</ele>
        <time>2021-08-20T14:39:13Z</time>
      </trkpt>
      <trkpt lat="43.24877" lon="-1.07917">
        <ele>168.37</ele>
        <time>2021-08-20T14:39:23Z</time>
      </trkpt>
      <trkpt lat="43.24865" lon="-1.0792">
        <ele>168.85</ele>
        <time>2021-08-20T14:39:33Z</time>
      </trkpt>
      <trkpt lat="43.24863" lon="-1.07921">
        <ele>169.33</ele>
        <time>2021-08-20T14:39:38Z</time>
      </trkpt>
      <trkpt lat="43.24848" lon="-1.07925">
        <ele>170.29</ele>
        <time>2021-08-20T14:39:45Z</time>
      </trkpt>
      <trkpt lat="43.24827" lon="-1.07932">
        <ele>171.25</ele>
        <time>2021-08-20T14:39:53Z</time>
      </trkpt>
      <trkpt lat="43.24813" lon="-1.07941">
        <ele>171.73</ele>
        <time>2021-08-20T14:40:00Z</time>
      </trkpt>
      <trkpt lat="43.24812" lon="-1.07944">
        <ele>171.73</ele>
        <time>2021-08-20T14:40:01Z</time>
      </trkpt>
      <trkpt lat="43.2481" lon="-1.07946">
        <ele>171.73</ele>
        <time>2021-08-20T14:40:02Z</time>
      </trkpt>
      <trkpt lat="43.24807" lon="-1.07947">
        <ele>172.21</ele>
        <time>2021-08-20T14:40:03Z</time>
      </trkpt>
      <trkpt lat="43.24805" lon="-1.07949">
        <ele>172.21</ele>
        <time>2021-08-20T14:40:04Z</time>
      </trkpt>
      <trkpt lat="43.24781" lon="-1.07967">
        <ele>171.73</ele>
        <time>2021-08-20T14:40:12Z</time>
      </trkpt>
      <trkpt lat="43.24755" lon="-1.07991">
        <ele>170.77</ele>
        <time>2021-08-20T14:40:20Z</time>
      </trkpt>
      <trkpt lat="43.24742" lon="-1.08005">
        <ele>170.29</ele>
        <time>2021-08-20T14:40:24Z</time>
      </trkpt>
      <trkpt lat="43.24739" lon="-1.08008">
        <ele>170.29</ele>
        <time>2021-08-20T14:40:25Z</time>
      </trkpt>
      <trkpt lat="43.24735" lon="-1.08011">
        <ele>169.81</ele>
        <time>2021-08-20T14:40:26Z</time>
      </trkpt>
      <trkpt lat="43.24732" lon="-1.08014">
        <ele>169.81</ele>
        <time>2021-08-20T14:40:27Z</time>
      </trkpt>
      <trkpt lat="43.2473" lon="-1.08017">
        <ele>169.33</ele>
        <time>2021-08-20T14:40:28Z</time>
      </trkpt>
      <trkpt lat="43.24727" lon="-1.0802">
        <ele>169.33</ele>
        <time>2021-08-20T14:40:29Z</time>
      </trkpt>
      <trkpt lat="43.24709" lon="-1.08046">
        <ele>169.81</ele>
        <time>2021-08-20T14:40:36Z</time>
      </trkpt>
      <trkpt lat="43.24687" lon="-1.08079">
        <ele>169.81</ele>
        <time>2021-08-20T14:40:45Z</time>
      </trkpt>
      <trkpt lat="43.24672" lon="-1.08112">
        <ele>169.81</ele>
        <time>2021-08-20T14:40:53Z</time>
      </trkpt>
      <trkpt lat="43.24667" lon="-1.08121">
        <ele>170.77</ele>
        <time>2021-08-20T14:40:55Z</time>
      </trkpt>
      <trkpt lat="43.24654" lon="-1.0815">
        <ele>169.81</ele>
        <time>2021-08-20T14:41:01Z</time>
      </trkpt>
      <trkpt lat="43.24653" lon="-1.08154">
        <ele>168.85</ele>
        <time>2021-08-20T14:41:02Z</time>
      </trkpt>
      <trkpt lat="43.24651" lon="-1.0816">
        <ele>168.85</ele>
        <time>2021-08-20T14:41:03Z</time>
      </trkpt>
      <trkpt lat="43.24649" lon="-1.08165">
        <ele>168.85</ele>
        <time>2021-08-20T14:41:04Z</time>
      </trkpt>
      <trkpt lat="43.24645" lon="-1.08193">
        <ele>168.37</ele>
        <time>2021-08-20T14:41:08Z</time>
      </trkpt>
      <trkpt lat="43.24645" lon="-1.0822">
        <ele>168.37</ele>
        <time>2021-08-20T14:41:13Z</time>
      </trkpt>
      <trkpt lat="43.24644" lon="-1.08226">
        <ele>167.89</ele>
        <time>2021-08-20T14:41:14Z</time>
      </trkpt>
      <trkpt lat="43.24638" lon="-1.08255">
        <ele>165.48</ele>
        <time>2021-08-20T14:41:19Z</time>
      </trkpt>
      <trkpt lat="43.24636" lon="-1.08261">
        <ele>165.48</ele>
        <time>2021-08-20T14:41:20Z</time>
      </trkpt>
      <trkpt lat="43.2463" lon="-1.08282">
        <ele>162.6</ele>
        <time>2021-08-20T14:41:23Z</time>
      </trkpt>
      <trkpt lat="43.24627" lon="-1.08289">
        <ele>162.6</ele>
        <time>2021-08-20T14:41:24Z</time>
      </trkpt>
      <trkpt lat="43.24625" lon="-1.08296">
        <ele>161.64</ele>
        <time>2021-08-20T14:41:25Z</time>
      </trkpt>
      <trkpt lat="43.24617" lon="-1.08323">
        <ele>159.72</ele>
        <time>2021-08-20T14:41:29Z</time>
      </trkpt>
      <trkpt lat="43.24615" lon="-1.08329">
        <ele>159.72</ele>
        <time>2021-08-20T14:41:30Z</time>
      </trkpt>
      <trkpt lat="43.24612" lon="-1.08343">
        <ele>158.75</ele>
        <time>2021-08-20T14:41:32Z</time>
      </trkpt>
      <trkpt lat="43.24607" lon="-1.08381">
        <ele>156.35</ele>
        <time>2021-08-20T14:41:36Z</time>
      </trkpt>
      <trkpt lat="43.24605" lon="-1.08403">
        <ele>154.91</ele>
        <time>2021-08-20T14:41:38Z</time>
      </trkpt>
      <trkpt lat="43.24603" lon="-1.08414">
        <ele>154.43</ele>
        <time>2021-08-20T14:41:39Z</time>
      </trkpt>
      <trkpt lat="43.24599" lon="-1.08423">
        <ele>153.47</ele>
        <time>2021-08-20T14:41:40Z</time>
      </trkpt>
      <trkpt lat="43.24594" lon="-1.08432">
        <ele>153.47</ele>
        <time>2021-08-20T14:41:41Z</time>
      </trkpt>
      <trkpt lat="43.24562" lon="-1.08487">
        <ele>152.51</ele>
        <time>2021-08-20T14:41:48Z</time>
      </trkpt>
      <trkpt lat="43.24557" lon="-1.08493">
        <ele>152.51</ele>
        <time>2021-08-20T14:41:49Z</time>
      </trkpt>
      <trkpt lat="43.2453" lon="-1.08516">
        <ele>152.51</ele>
        <time>2021-08-20T14:41:55Z</time>
      </trkpt>
      <trkpt lat="43.2452" lon="-1.08523">
        <ele>153.95</ele>
        <time>2021-08-20T14:41:58Z</time>
      </trkpt>
      <trkpt lat="43.24508" lon="-1.08533">
        <ele>155.87</ele>
        <time>2021-08-20T14:42:04Z</time>
      </trkpt>
      <trkpt lat="43.24493" lon="-1.08543">
        <ele>156.83</ele>
        <time>2021-08-20T14:42:11Z</time>
      </trkpt>
      <trkpt lat="43.2448" lon="-1.08554">
        <ele>158.27</ele>
        <time>2021-08-20T14:42:19Z</time>
      </trkpt>
      <trkpt lat="43.24465" lon="-1.08565">
        <ele>159.24</ele>
        <time>2021-08-20T14:42:27Z</time>
      </trkpt>
      <trkpt lat="43.24451" lon="-1.08572">
        <ele>159.72</ele>
        <time>2021-08-20T14:42:34Z</time>
      </trkpt>
      <trkpt lat="43.24437" lon="-1.08591">
        <ele>159.72</ele>
        <time>2021-08-20T14:42:40Z</time>
      </trkpt>
      <trkpt lat="43.24418" lon="-1.08619">
        <ele>156.83</ele>
        <time>2021-08-20T14:42:46Z</time>
      </trkpt>
      <trkpt lat="43.24385" lon="-1.08668">
        <ele>153.95</ele>
        <time>2021-08-20T14:42:54Z</time>
      </trkpt>
      <trkpt lat="43.24349" lon="-1.08719">
        <ele>151.06</ele>
        <time>2021-08-20T14:43:02Z</time>
      </trkpt>
      <trkpt lat="43.24318" lon="-1.08752">
        <ele>151.06</ele>
        <time>2021-08-20T14:43:09Z</time>
      </trkpt>
      <trkpt lat="43.24311" lon="-1.08759">
        <ele>151.06</ele>
        <time>2021-08-20T14:43:11Z</time>
      </trkpt>
      <trkpt lat="43.24308" lon="-1.08763">
        <ele>151.06</ele>
        <time>2021-08-20T14:43:12Z</time>
      </trkpt>
      <trkpt lat="43.24285" lon="-1.08787">
        <ele>152.51</ele>
        <time>2021-08-20T14:43:20Z</time>
      </trkpt>
      <trkpt lat="43.24265" lon="-1.08802">
        <ele>152.51</ele>
        <time>2021-08-20T14:43:26Z</time>
      </trkpt>
      <trkpt lat="43.2423" lon="-1.08823">
        <ele>152.51</ele>
        <time>2021-08-20T14:43:35Z</time>
      </trkpt>
      <trkpt lat="43.24201" lon="-1.08837">
        <ele>152.51</ele>
        <time>2021-08-20T14:43:43Z</time>
      </trkpt>
      <trkpt lat="43.24181" lon="-1.0886">
        <ele>153.47</ele>
        <time>2021-08-20T14:43:51Z</time>
      </trkpt>
      <trkpt lat="43.24162" lon="-1.08879">
        <ele>153.95</ele>
        <time>2021-08-20T14:43:59Z</time>
      </trkpt>
      <trkpt lat="43.24145" lon="-1.08894">
        <ele>154.91</ele>
        <time>2021-08-20T14:44:06Z</time>
      </trkpt>
      <trkpt lat="43.2412" lon="-1.08912">
        <ele>155.39</ele>
        <time>2021-08-20T14:44:15Z</time>
      </trkpt>
      <trkpt lat="43.24096" lon="-1.08927">
        <ele>155.39</ele>
        <time>2021-08-20T14:44:22Z</time>
      </trkpt>
      <trkpt lat="43.24055" lon="-1.08944">
        <ele>155.87</ele>
        <time>2021-08-20T14:44:32Z</time>
      </trkpt>
      <trkpt lat="43.2403" lon="-1.08949">
        <ele>155.87</ele>
        <time>2021-08-20T14:44:38Z</time>
      </trkpt>
      <trkpt lat="43.24026" lon="-1.08949">
        <ele>156.35</ele>
        <time>2021-08-20T14:44:39Z</time>
      </trkpt>
      <trkpt lat="43.24022" lon="-1.08949">
        <ele>156.35</ele>
        <time>2021-08-20T14:44:40Z</time>
      </trkpt>
      <trkpt lat="43.23985" lon="-1.08945">
        <ele>157.31</ele>
        <time>2021-08-20T14:44:50Z</time>
      </trkpt>
      <trkpt lat="43.23956" lon="-1.08948">
        <ele>158.27</ele>
        <time>2021-08-20T14:44:58Z</time>
      </trkpt>
      <trkpt lat="43.23932" lon="-1.08955">
        <ele>159.24</ele>
        <time>2021-08-20T14:45:05Z</time>
      </trkpt>
      <trkpt lat="43.23908" lon="-1.08968">
        <ele>160.2</ele>
        <time>2021-08-20T14:45:12Z</time>
      </trkpt>
      <trkpt lat="43.2389" lon="-1.0897">
        <ele>160.2</ele>
        <time>2021-08-20T14:45:18Z</time>
      </trkpt>
      <trkpt lat="43.23888" lon="-1.08967">
        <ele>160.2</ele>
        <time>2021-08-20T14:45:19Z</time>
      </trkpt>
      <trkpt lat="43.23886" lon="-1.08963">
        <ele>160.2</ele>
        <time>2021-08-20T14:45:20Z</time>
      </trkpt>
      <trkpt lat="43.23877" lon="-1.0894">
        <ele>158.75</ele>
        <time>2021-08-20T14:45:24Z</time>
      </trkpt>
      <trkpt lat="43.23857" lon="-1.08896">
        <ele>156.83</ele>
        <time>2021-08-20T14:45:31Z</time>
      </trkpt>
      <trkpt lat="43.2383" lon="-1.08835">
        <ele>156.35</ele>
        <time>2021-08-20T14:45:40Z</time>
      </trkpt>
      <trkpt lat="43.23804" lon="-1.0878">
        <ele>155.87</ele>
        <time>2021-08-20T14:45:49Z</time>
      </trkpt>
      <trkpt lat="43.23794" lon="-1.08761">
        <ele>155.87</ele>
        <time>2021-08-20T14:45:53Z</time>
      </trkpt>
      <trkpt lat="43.23791" lon="-1.08758">
        <ele>155.87</ele>
        <time>2021-08-20T14:45:54Z</time>
      </trkpt>
      <trkpt lat="43.23788" lon="-1.08755">
        <ele>155.87</ele>
        <time>2021-08-20T14:45:55Z</time>
      </trkpt>
      <trkpt lat="43.23785" lon="-1.08754">
        <ele>155.87</ele>
        <time>2021-08-20T14:45:56Z</time>
      </trkpt>
      <trkpt lat="43.23782" lon="-1.08755">
        <ele>155.87</ele>
        <time>2021-08-20T14:45:57Z</time>
      </trkpt>
      <trkpt lat="43.23779" lon="-1.08759">
        <ele>155.87</ele>
        <time>2021-08-20T14:45:58Z</time>
      </trkpt>
      <trkpt lat="43.23777" lon="-1.08764">
        <ele>155.87</ele>
        <time>2021-08-20T14:45:59Z</time>
      </trkpt>
      <trkpt lat="43.23752" lon="-1.08811">
        <ele>154.91</ele>
        <time>2021-08-20T14:46:08Z</time>
      </trkpt>
      <trkpt lat="43.23722" lon="-1.08864">
        <ele>152.99</ele>
        <time>2021-08-20T14:46:15Z</time>
      </trkpt>
      <trkpt lat="43.23681" lon="-1.0894">
        <ele>151.06</ele>
        <time>2021-08-20T14:46:24Z</time>
      </trkpt>
      <trkpt lat="43.2365" lon="-1.08999">
        <ele>152.51</ele>
        <time>2021-08-20T14:46:32Z</time>
      </trkpt>
      <trkpt lat="43.23646" lon="-1.09005">
        <ele>152.51</ele>
        <time>2021-08-20T14:46:33Z</time>
      </trkpt>
      <trkpt lat="43.23617" lon="-1.09059">
        <ele>154.43</ele>
        <time>2021-08-20T14:46:42Z</time>
      </trkpt>
      <trkpt lat="43.23596" lon="-1.09098">
        <ele>156.35</ele>
        <time>2021-08-20T14:46:51Z</time>
      </trkpt>
      <trkpt lat="43.23578" lon="-1.09133">
        <ele>158.27</ele>
        <time>2021-08-20T14:47:01Z</time>
      </trkpt>
      <trkpt lat="43.23565" lon="-1.09159">
        <ele>159.24</ele>
        <time>2021-08-20T14:47:11Z</time>
      </trkpt>
      <trkpt lat="43.23553" lon="-1.09179">
        <ele>160.2</ele>
        <time>2021-08-20T14:47:19Z</time>
      </trkpt>
      <trkpt lat="43.23551" lon="-1.09185">
        <ele>160.68</ele>
        <time>2021-08-20T14:47:21Z</time>
      </trkpt>
      <trkpt lat="43.23552" lon="-1.09187">
        <ele>160.68</ele>
        <time>2021-08-20T14:47:22Z</time>
      </trkpt>
      <trkpt lat="43.23553" lon="-1.0919">
        <ele>160.68</ele>
        <time>2021-08-20T14:47:23Z</time>
      </trkpt>
      <trkpt lat="43.23554" lon="-1.09193">
        <ele>161.16</ele>
        <time>2021-08-20T14:47:24Z</time>
      </trkpt>
      <trkpt lat="43.23555" lon="-1.09196">
        <ele>161.16</ele>
        <time>2021-08-20T14:47:25Z</time>
      </trkpt>
      <trkpt lat="43.23555" lon="-1.09198">
        <ele>161.64</ele>
        <time>2021-08-20T14:47:26Z</time>
      </trkpt>
      <trkpt lat="43.23556" lon="-1.09201">
        <ele>161.64</ele>
        <time>2021-08-20T14:47:27Z</time>
      </trkpt>
      <trkpt lat="43.23563" lon="-1.09223">
        <ele>162.6</ele>
        <time>2021-08-20T14:47:36Z</time>
      </trkpt>
      <trkpt lat="43.2357" lon="-1.09244">
        <ele>163.56</ele>
        <time>2021-08-20T14:47:44Z</time>
      </trkpt>
      <trkpt lat="43.23577" lon="-1.09263">
        <ele>164.52</ele>
        <time>2021-08-20T14:47:51Z</time>
      </trkpt>
      <trkpt lat="43.23584" lon="-1.09291">
        <ele>166.45</ele>
        <time>2021-08-20T14:48:01Z</time>
      </trkpt>
      <trkpt lat="43.23576" lon="-1.09308">
        <ele>166.93</ele>
        <time>2021-08-20T14:48:07Z</time>
      </trkpt>
      <trkpt lat="43.23563" lon="-1.09333">
        <ele>166.93</ele>
        <time>2021-08-20T14:48:14Z</time>
      </trkpt>
      <trkpt lat="43.23543" lon="-1.09372">
        <ele>166.93</ele>
        <time>2021-08-20T14:48:23Z</time>
      </trkpt>
      <trkpt lat="43.23538" lon="-1.09381">
        <ele>166.93</ele>
        <time>2021-08-20T14:48:25Z</time>
      </trkpt>
      <trkpt lat="43.23523" lon="-1.09408">
        <ele>165.48</ele>
        <time>2021-08-20T14:48:30Z</time>
      </trkpt>
      <trkpt lat="43.2352" lon="-1.09412">
        <ele>165.48</ele>
        <time>2021-08-20T14:48:31Z</time>
      </trkpt>
      <trkpt lat="43.2351" lon="-1.09425">
        <ele>165.48</ele>
        <time>2021-08-20T14:48:34Z</time>
      </trkpt>
      <trkpt lat="43.23503" lon="-1.09436">
        <ele>166.93</ele>
        <time>2021-08-20T14:48:37Z</time>
      </trkpt>
      <trkpt lat="43.23494" lon="-1.09453">
        <ele>169.33</ele>
        <time>2021-08-20T14:48:44Z</time>
      </trkpt>
      <trkpt lat="43.23483" lon="-1.09472">
        <ele>169.81</ele>
        <time>2021-08-20T14:48:51Z</time>
      </trkpt>
      <trkpt lat="43.2347" lon="-1.09499">
        <ele>169.81</ele>
        <time>2021-08-20T14:48:59Z</time>
      </trkpt>
      <trkpt lat="43.23463" lon="-1.09532">
        <ele>170.29</ele>
        <time>2021-08-20T14:49:07Z</time>
      </trkpt>
      <trkpt lat="43.23454" lon="-1.09571">
        <ele>170.29</ele>
        <time>2021-08-20T14:49:15Z</time>
      </trkpt>
      <trkpt lat="43.23444" lon="-1.0959">
        <ele>170.77</ele>
        <time>2021-08-20T14:49:21Z</time>
      </trkpt>
      <trkpt lat="43.23437" lon="-1.096">
        <ele>172.69</ele>
        <time>2021-08-20T14:49:27Z</time>
      </trkpt>
      <trkpt lat="43.23436" lon="-1.09602">
        <ele>172.69</ele>
        <time>2021-08-20T14:49:28Z</time>
      </trkpt>
      <trkpt lat="43.23437" lon="-1.09609">
        <ele>173.17</ele>
        <time>2021-08-20T14:49:32Z</time>
      </trkpt>
      <trkpt lat="43.23442" lon="-1.09618">
        <ele>174.62</ele>
        <time>2021-08-20T14:49:40Z</time>
      </trkpt>
      <trkpt lat="43.23445" lon="-1.09629">
        <ele>175.58</ele>
        <time>2021-08-20T14:49:49Z</time>
      </trkpt>
      <trkpt lat="43.23448" lon="-1.09642">
        <ele>176.54</ele>
        <time>2021-08-20T14:49:58Z</time>
      </trkpt>
      <trkpt lat="43.23448" lon="-1.09643">
        <ele>177.02</ele>
        <time>2021-08-20T14:49:59Z</time>
      </trkpt>
      <trkpt lat="43.23448" lon="-1.09645">
        <ele>177.5</ele>
        <time>2021-08-20T14:50:00Z</time>
      </trkpt>
      <trkpt lat="43.23448" lon="-1.09647">
        <ele>177.5</ele>
        <time>2021-08-20T14:50:01Z</time>
      </trkpt>
      <trkpt lat="43.23448" lon="-1.09648">
        <ele>177.5</ele>
        <time>2021-08-20T14:50:02Z</time>
      </trkpt>
      <trkpt lat="43.23448" lon="-1.09656">
        <ele>177.5</ele>
        <time>2021-08-20T14:50:10Z</time>
      </trkpt>
      <trkpt lat="43.23448" lon="-1.09673">
        <ele>178.46</ele>
        <time>2021-08-20T14:50:17Z</time>
      </trkpt>
      <trkpt lat="43.23449" lon="-1.09708">
        <ele>179.9</ele>
        <time>2021-08-20T14:50:26Z</time>
      </trkpt>
      <trkpt lat="43.23456" lon="-1.09749">
        <ele>180.38</ele>
        <time>2021-08-20T14:50:37Z</time>
      </trkpt>
      <trkpt lat="43.23461" lon="-1.09776">
        <ele>181.35</ele>
        <time>2021-08-20T14:50:44Z</time>
      </trkpt>
      <trkpt lat="43.23463" lon="-1.0981">
        <ele>182.31</ele>
        <time>2021-08-20T14:50:53Z</time>
      </trkpt>
      <trkpt lat="43.23466" lon="-1.09848">
        <ele>182.79</ele>
        <time>2021-08-20T14:51:02Z</time>
      </trkpt>
      <trkpt lat="43.2347" lon="-1.09877">
        <ele>184.23</ele>
        <time>2021-08-20T14:51:10Z</time>
      </trkpt>
      <trkpt lat="43.23467" lon="-1.09915">
        <ele>184.71</ele>
        <time>2021-08-20T14:51:19Z</time>
      </trkpt>
      <trkpt lat="43.23454" lon="-1.09948">
        <ele>184.71</ele>
        <time>2021-08-20T14:51:26Z</time>
      </trkpt>
      <trkpt lat="43.23441" lon="-1.09968">
        <ele>184.71</ele>
        <time>2021-08-20T14:51:31Z</time>
      </trkpt>
      <trkpt lat="43.23438" lon="-1.09972">
        <ele>184.71</ele>
        <time>2021-08-20T14:51:32Z</time>
      </trkpt>
      <trkpt lat="43.23404" lon="-1.10017">
        <ele>185.19</ele>
        <time>2021-08-20T14:51:43Z</time>
      </trkpt>
      <trkpt lat="43.23366" lon="-1.1006">
        <ele>185.19</ele>
        <time>2021-08-20T14:51:54Z</time>
      </trkpt>
      <trkpt lat="43.23333" lon="-1.10092">
        <ele>185.67</ele>
        <time>2021-08-20T14:52:03Z</time>
      </trkpt>
      <trkpt lat="43.23311" lon="-1.1011">
        <ele>186.15</ele>
        <time>2021-08-20T14:52:09Z</time>
      </trkpt>
      <trkpt lat="43.23275" lon="-1.1013">
        <ele>186.63</ele>
        <time>2021-08-20T14:52:18Z</time>
      </trkpt>
      <trkpt lat="43.23242" lon="-1.10146">
        <ele>185.19</ele>
        <time>2021-08-20T14:52:25Z</time>
      </trkpt>
      <trkpt lat="43.23237" lon="-1.10149">
        <ele>185.19</ele>
        <time>2021-08-20T14:52:26Z</time>
      </trkpt>
      <trkpt lat="43.23189" lon="-1.1017">
        <ele>183.75</ele>
        <time>2021-08-20T14:52:35Z</time>
      </trkpt>
      <trkpt lat="43.23156" lon="-1.10192">
        <ele>180.38</ele>
        <time>2021-08-20T14:52:41Z</time>
      </trkpt>
      <trkpt lat="43.23136" lon="-1.10214">
        <ele>176.54</ele>
        <time>2021-08-20T14:52:45Z</time>
      </trkpt>
      <trkpt lat="43.23128" lon="-1.10224">
        <ele>175.58</ele>
        <time>2021-08-20T14:52:47Z</time>
      </trkpt>
      <trkpt lat="43.23121" lon="-1.10232">
        <ele>175.58</ele>
        <time>2021-08-20T14:52:49Z</time>
      </trkpt>
      <trkpt lat="43.23117" lon="-1.10235">
        <ele>175.58</ele>
        <time>2021-08-20T14:52:50Z</time>
      </trkpt>
      <trkpt lat="43.23112" lon="-1.10237">
        <ele>175.58</ele>
        <time>2021-08-20T14:52:51Z</time>
      </trkpt>
      <trkpt lat="43.23103" lon="-1.1024">
        <ele>175.58</ele>
        <time>2021-08-20T14:52:53Z</time>
      </trkpt>
      <trkpt lat="43.231" lon="-1.10245">
        <ele>175.58</ele>
        <time>2021-08-20T14:52:54Z</time>
      </trkpt>
      <trkpt lat="43.23099" lon="-1.10252">
        <ele>174.62</ele>
        <time>2021-08-20T14:52:55Z</time>
      </trkpt>
      <trkpt lat="43.23099" lon="-1.10257">
        <ele>174.62</ele>
        <time>2021-08-20T14:52:56Z</time>
      </trkpt>
      <trkpt lat="43.231" lon="-1.10263">
        <ele>174.14</ele>
        <time>2021-08-20T14:52:57Z</time>
      </trkpt>
      <trkpt lat="43.23101" lon="-1.10267">
        <ele>174.14</ele>
        <time>2021-08-20T14:52:58Z</time>
      </trkpt>
      <trkpt lat="43.23102" lon="-1.1027">
        <ele>174.14</ele>
        <time>2021-08-20T14:52:59Z</time>
      </trkpt>
      <trkpt lat="43.23103" lon="-1.10273">
        <ele>174.14</ele>
        <time>2021-08-20T14:53:00Z</time>
      </trkpt>
      <trkpt lat="43.23105" lon="-1.10274">
        <ele>174.14</ele>
        <time>2021-08-20T14:53:01Z</time>
      </trkpt>
      <trkpt lat="43.23106" lon="-1.10276">
        <ele>174.14</ele>
        <time>2021-08-20T14:53:02Z</time>
      </trkpt>
      <trkpt lat="43.23106" lon="-1.10271">
        <ele>174.14</ele>
        <time>2021-08-20T14:53:06Z</time>
      </trkpt>
      <trkpt lat="43.23104" lon="-1.1027">
        <ele>174.14</ele>
        <time>2021-08-20T14:53:07Z</time>
      </trkpt>
      <trkpt lat="43.23098" lon="-1.10271">
        <ele>174.14</ele>
        <time>2021-08-20T14:53:09Z</time>
      </trkpt>
      <trkpt lat="43.23095" lon="-1.10273">
        <ele>173.66</ele>
        <time>2021-08-20T14:53:10Z</time>
      </trkpt>
      <trkpt lat="43.23092" lon="-1.10278">
        <ele>173.17</ele>
        <time>2021-08-20T14:53:11Z</time>
      </trkpt>
      <trkpt lat="43.23089" lon="-1.10284">
        <ele>173.17</ele>
        <time>2021-08-20T14:53:12Z</time>
      </trkpt>
      <trkpt lat="43.23086" lon="-1.10291">
        <ele>172.21</ele>
        <time>2021-08-20T14:53:13Z</time>
      </trkpt>
      <trkpt lat="43.23084" lon="-1.10297">
        <ele>172.21</ele>
        <time>2021-08-20T14:53:14Z</time>
      </trkpt>
      <trkpt lat="43.23062" lon="-1.10355">
        <ele>168.85</ele>
        <time>2021-08-20T14:53:21Z</time>
      </trkpt>
      <trkpt lat="43.23057" lon="-1.1037">
        <ele>168.85</ele>
        <time>2021-08-20T14:53:24Z</time>
      </trkpt>
      <trkpt lat="43.23057" lon="-1.10373">
        <ele>168.85</ele>
        <time>2021-08-20T14:53:25Z</time>
      </trkpt>
      <trkpt lat="43.23058" lon="-1.10389">
        <ele>168.85</ele>
        <time>2021-08-20T14:53:30Z</time>
      </trkpt>
      <trkpt lat="43.23058" lon="-1.10399">
        <ele>168.37</ele>
        <time>2021-08-20T14:53:32Z</time>
      </trkpt>
      <trkpt lat="43.2306" lon="-1.10413">
        <ele>168.37</ele>
        <time>2021-08-20T14:53:34Z</time>
      </trkpt>
      <trkpt lat="43.23065" lon="-1.10435">
        <ele>166.93</ele>
        <time>2021-08-20T14:53:39Z</time>
      </trkpt>
      <trkpt lat="43.23064" lon="-1.10435">
        <ele>166.93</ele>
        <time>2021-08-20T14:53:42Z</time>
      </trkpt>
      <trkpt lat="43.23059" lon="-1.10428">
        <ele>166.93</ele>
        <time>2021-08-20T14:53:48Z</time>
      </trkpt>
      <trkpt lat="43.23057" lon="-1.10404">
        <ele>166.93</ele>
        <time>2021-08-20T14:53:55Z</time>
      </trkpt>
      <trkpt lat="43.23055" lon="-1.10395">
        <ele>168.37</ele>
        <time>2021-08-20T14:53:58Z</time>
      </trkpt>
      <trkpt lat="43.2305" lon="-1.10392">
        <ele>168.37</ele>
        <time>2021-08-20T14:54:00Z</time>
      </trkpt>
      <trkpt lat="43.23048" lon="-1.10393">
        <ele>168.37</ele>
        <time>2021-08-20T14:54:01Z</time>
      </trkpt>
      <trkpt lat="43.23047" lon="-1.10395">
        <ele>168.37</ele>
        <time>2021-08-20T14:54:02Z</time>
      </trkpt>
      <trkpt lat="43.23046" lon="-1.10398">
        <ele>168.37</ele>
        <time>2021-08-20T14:54:03Z</time>
      </trkpt>
      <trkpt lat="43.23046" lon="-1.104">
        <ele>168.37</ele>
        <time>2021-08-20T14:54:04Z</time>
      </trkpt>
      <trkpt lat="43.23046" lon="-1.10403">
        <ele>168.37</ele>
        <time>2021-08-20T14:54:05Z</time>
      </trkpt>
      <trkpt lat="43.23047" lon="-1.10406">
        <ele>168.37</ele>
        <time>2021-08-20T14:54:06Z</time>
      </trkpt>
      <trkpt lat="43.23048" lon="-1.10418">
        <ele>166.93</ele>
        <time>2021-08-20T14:54:09Z</time>
      </trkpt>
      <trkpt lat="43.23039" lon="-1.10443">
        <ele>166.45</ele>
        <time>2021-08-20T14:54:15Z</time>
      </trkpt>
      <trkpt lat="43.23031" lon="-1.10477">
        <ele>164.04</ele>
        <time>2021-08-20T14:54:21Z</time>
      </trkpt>
      <trkpt lat="43.2303" lon="-1.10483">
        <ele>163.56</ele>
        <time>2021-08-20T14:54:22Z</time>
      </trkpt>
      <trkpt lat="43.2303" lon="-1.10489">
        <ele>163.08</ele>
        <time>2021-08-20T14:54:23Z</time>
      </trkpt>
      <trkpt lat="43.23029" lon="-1.10503">
        <ele>162.6</ele>
        <time>2021-08-20T14:54:25Z</time>
      </trkpt>
      <trkpt lat="43.23017" lon="-1.10561">
        <ele>159.24</ele>
        <time>2021-08-20T14:54:32Z</time>
      </trkpt>
      <trkpt lat="43.23015" lon="-1.10569">
        <ele>159.24</ele>
        <time>2021-08-20T14:54:33Z</time>
      </trkpt>
      <trkpt lat="43.23012" lon="-1.10592">
        <ele>159.24</ele>
        <time>2021-08-20T14:54:37Z</time>
      </trkpt>
      <trkpt lat="43.23012" lon="-1.10605">
        <ele>159.24</ele>
        <time>2021-08-20T14:54:41Z</time>
      </trkpt>
      <trkpt lat="43.23001" lon="-1.10626">
        <ele>159.24</ele>
        <time>2021-08-20T14:54:48Z</time>
      </trkpt>
      <trkpt lat="43.22995" lon="-1.10644">
        <ele>160.2</ele>
        <time>2021-08-20T14:54:53Z</time>
      </trkpt>
      <trkpt lat="43.22985" lon="-1.10668">
        <ele>162.12</ele>
        <time>2021-08-20T14:55:02Z</time>
      </trkpt>
      <trkpt lat="43.22982" lon="-1.1067">
        <ele>162.6</ele>
        <time>2021-08-20T14:55:04Z</time>
      </trkpt>
      <trkpt lat="43.2297" lon="-1.1069">
        <ele>164.04</ele>
        <time>2021-08-20T14:55:14Z</time>
      </trkpt>
      <trkpt lat="43.22958" lon="-1.10708">
        <ele>165.48</ele>
        <time>2021-08-20T14:55:23Z</time>
      </trkpt>
      <trkpt lat="43.22949" lon="-1.10727">
        <ele>166.93</ele>
        <time>2021-08-20T14:55:32Z</time>
      </trkpt>
      <trkpt lat="43.22939" lon="-1.10745">
        <ele>167.89</ele>
        <time>2021-08-20T14:55:40Z</time>
      </trkpt>
      <trkpt lat="43.22927" lon="-1.10769">
        <ele>168.37</ele>
        <time>2021-08-20T14:55:50Z</time>
      </trkpt>
      <trkpt lat="43.22918" lon="-1.10791">
        <ele>169.81</ele>
        <time>2021-08-20T14:55:59Z</time>
      </trkpt>
      <trkpt lat="43.22907" lon="-1.10812">
        <ele>170.77</ele>
        <time>2021-08-20T14:56:08Z</time>
      </trkpt>
      <trkpt lat="43.22896" lon="-1.10835">
        <ele>171.73</ele>
        <time>2021-08-20T14:56:17Z</time>
      </trkpt>
      <trkpt lat="43.22888" lon="-1.10852">
        <ele>172.69</ele>
        <time>2021-08-20T14:56:24Z</time>
      </trkpt>
      <trkpt lat="43.22881" lon="-1.10874">
        <ele>173.66</ele>
        <time>2021-08-20T14:56:33Z</time>
      </trkpt>
      <trkpt lat="43.22877" lon="-1.10895">
        <ele>175.58</ele>
        <time>2021-08-20T14:56:42Z</time>
      </trkpt>
      <trkpt lat="43.22874" lon="-1.10902">
        <ele>175.58</ele>
        <time>2021-08-20T14:56:48Z</time>
      </trkpt>
      <trkpt lat="43.22869" lon="-1.10912">
        <ele>176.54</ele>
        <time>2021-08-20T14:56:56Z</time>
      </trkpt>
      <trkpt lat="43.22864" lon="-1.10921">
        <ele>177.5</ele>
        <time>2021-08-20T14:57:06Z</time>
      </trkpt>
      <trkpt lat="43.22863" lon="-1.10921">
        <ele>177.5</ele>
        <time>2021-08-20T14:57:07Z</time>
      </trkpt>
      <trkpt lat="43.22862" lon="-1.10922">
        <ele>177.5</ele>
        <time>2021-08-20T14:57:08Z</time>
      </trkpt>
      <trkpt lat="43.22859" lon="-1.10923">
        <ele>177.5</ele>
        <time>2021-08-20T14:57:09Z</time>
      </trkpt>
      <trkpt lat="43.22857" lon="-1.10924">
        <ele>177.5</ele>
        <time>2021-08-20T14:57:10Z</time>
      </trkpt>
      <trkpt lat="43.22854" lon="-1.10926">
        <ele>177.5</ele>
        <time>2021-08-20T14:57:11Z</time>
      </trkpt>
      <trkpt lat="43.2285" lon="-1.10928">
        <ele>177.5</ele>
        <time>2021-08-20T14:57:12Z</time>
      </trkpt>
      <trkpt lat="43.22847" lon="-1.10929">
        <ele>176.06</ele>
        <time>2021-08-20T14:57:13Z</time>
      </trkpt>
      <trkpt lat="43.22843" lon="-1.1093">
        <ele>176.06</ele>
        <time>2021-08-20T14:57:14Z</time>
      </trkpt>
      <trkpt lat="43.22835" lon="-1.10931">
        <ele>175.1</ele>
        <time>2021-08-20T14:57:18Z</time>
      </trkpt>
      <trkpt lat="43.22828" lon="-1.1093">
        <ele>175.1</ele>
        <time>2021-08-20T14:57:22Z</time>
      </trkpt>
      <trkpt lat="43.22818" lon="-1.1093">
        <ele>173.66</ele>
        <time>2021-08-20T14:57:25Z</time>
      </trkpt>
      <trkpt lat="43.22815" lon="-1.10934">
        <ele>173.66</ele>
        <time>2021-08-20T14:57:26Z</time>
      </trkpt>
      <trkpt lat="43.22816" lon="-1.10937">
        <ele>173.66</ele>
        <time>2021-08-20T14:57:27Z</time>
      </trkpt>
      <trkpt lat="43.22819" lon="-1.10949">
        <ele>175.1</ele>
        <time>2021-08-20T14:57:33Z</time>
      </trkpt>
      <trkpt lat="43.22819" lon="-1.10965">
        <ele>176.54</ele>
        <time>2021-08-20T14:57:41Z</time>
      </trkpt>
      <trkpt lat="43.22817" lon="-1.10972">
        <ele>177.02</ele>
        <time>2021-08-20T14:57:45Z</time>
      </trkpt>
      <trkpt lat="43.22816" lon="-1.10973">
        <ele>177.02</ele>
        <time>2021-08-20T14:57:46Z</time>
      </trkpt>
      <trkpt lat="43.22815" lon="-1.10975">
        <ele>177.02</ele>
        <time>2021-08-20T14:57:47Z</time>
      </trkpt>
      <trkpt lat="43.22814" lon="-1.10976">
        <ele>177.02</ele>
        <time>2021-08-20T14:57:48Z</time>
      </trkpt>
      <trkpt lat="43.22813" lon="-1.10977">
        <ele>177.02</ele>
        <time>2021-08-20T14:57:49Z</time>
      </trkpt>
      <trkpt lat="43.22812" lon="-1.10978">
        <ele>177.02</ele>
        <time>2021-08-20T14:57:50Z</time>
      </trkpt>
      <trkpt lat="43.22812" lon="-1.10979">
        <ele>177.02</ele>
        <time>2021-08-20T14:57:51Z</time>
      </trkpt>
      <trkpt lat="43.22808" lon="-1.1099">
        <ele>177.98</ele>
        <time>2021-08-20T14:57:59Z</time>
      </trkpt>
      <trkpt lat="43.22807" lon="-1.10993">
        <ele>177.98</ele>
        <time>2021-08-20T14:58:01Z</time>
      </trkpt>
      <trkpt lat="43.22805" lon="-1.11">
        <ele>177.98</ele>
        <time>2021-08-20T14:58:06Z</time>
      </trkpt>
      <trkpt lat="43.228" lon="-1.11009">
        <ele>177.98</ele>
        <time>2021-08-20T14:58:12Z</time>
      </trkpt>
      <trkpt lat="43.22791" lon="-1.11024">
        <ele>177.98</ele>
        <time>2021-08-20T14:58:18Z</time>
      </trkpt>
      <trkpt lat="43.22779" lon="-1.11051">
        <ele>177.98</ele>
        <time>2021-08-20T14:58:26Z</time>
      </trkpt>
      <trkpt lat="43.22772" lon="-1.11077">
        <ele>177.98</ele>
        <time>2021-08-20T14:58:32Z</time>
      </trkpt>
      <trkpt lat="43.22757" lon="-1.1111">
        <ele>177.98</ele>
        <time>2021-08-20T14:58:40Z</time>
      </trkpt>
      <trkpt lat="43.22746" lon="-1.11132">
        <ele>177.98</ele>
        <time>2021-08-20T14:58:46Z</time>
      </trkpt>
      <trkpt lat="43.22737" lon="-1.1116">
        <ele>177.98</ele>
        <time>2021-08-20T14:58:52Z</time>
      </trkpt>
      <trkpt lat="43.22732" lon="-1.1121">
        <ele>177.98</ele>
        <time>2021-08-20T14:59:02Z</time>
      </trkpt>
      <trkpt lat="43.22732" lon="-1.11223">
        <ele>176.54</ele>
        <time>2021-08-20T14:59:04Z</time>
      </trkpt>
      <trkpt lat="43.22732" lon="-1.11228">
        <ele>176.54</ele>
        <time>2021-08-20T14:59:05Z</time>
      </trkpt>
      <trkpt lat="43.22731" lon="-1.11236">
        <ele>176.06</ele>
        <time>2021-08-20T14:59:06Z</time>
      </trkpt>
      <trkpt lat="43.22732" lon="-1.1124">
        <ele>176.06</ele>
        <time>2021-08-20T14:59:07Z</time>
      </trkpt>
      <trkpt lat="43.22732" lon="-1.11247">
        <ele>176.06</ele>
        <time>2021-08-20T14:59:08Z</time>
      </trkpt>
      <trkpt lat="43.22733" lon="-1.11253">
        <ele>176.06</ele>
        <time>2021-08-20T14:59:09Z</time>
      </trkpt>
      <trkpt lat="43.22735" lon="-1.1126">
        <ele>176.06</ele>
        <time>2021-08-20T14:59:10Z</time>
      </trkpt>
      <trkpt lat="43.22735" lon="-1.11265">
        <ele>176.06</ele>
        <time>2021-08-20T14:59:11Z</time>
      </trkpt>
      <trkpt lat="43.22735" lon="-1.11271">
        <ele>176.06</ele>
        <time>2021-08-20T14:59:12Z</time>
      </trkpt>
      <trkpt lat="43.22734" lon="-1.11278">
        <ele>176.06</ele>
        <time>2021-08-20T14:59:13Z</time>
      </trkpt>
      <trkpt lat="43.22732" lon="-1.11283">
        <ele>176.06</ele>
        <time>2021-08-20T14:59:14Z</time>
      </trkpt>
      <trkpt lat="43.22729" lon="-1.11288">
        <ele>176.06</ele>
        <time>2021-08-20T14:59:15Z</time>
      </trkpt>
      <trkpt lat="43.22726" lon="-1.1129">
        <ele>176.06</ele>
        <time>2021-08-20T14:59:16Z</time>
      </trkpt>
      <trkpt lat="43.22724" lon="-1.11292">
        <ele>176.06</ele>
        <time>2021-08-20T14:59:17Z</time>
      </trkpt>
      <trkpt lat="43.22722" lon="-1.11293">
        <ele>177.5</ele>
        <time>2021-08-20T14:59:18Z</time>
      </trkpt>
      <trkpt lat="43.2272" lon="-1.11294">
        <ele>177.5</ele>
        <time>2021-08-20T14:59:19Z</time>
      </trkpt>
      <trkpt lat="43.22707" lon="-1.11304">
        <ele>178.94</ele>
        <time>2021-08-20T14:59:27Z</time>
      </trkpt>
      <trkpt lat="43.22699" lon="-1.11319">
        <ele>180.38</ele>
        <time>2021-08-20T14:59:34Z</time>
      </trkpt>
      <trkpt lat="43.22696" lon="-1.11326">
        <ele>180.87</ele>
        <time>2021-08-20T14:59:37Z</time>
      </trkpt>
      <trkpt lat="43.22694" lon="-1.11328">
        <ele>180.87</ele>
        <time>2021-08-20T14:59:38Z</time>
      </trkpt>
      <trkpt lat="43.22687" lon="-1.11344">
        <ele>181.83</ele>
        <time>2021-08-20T14:59:45Z</time>
      </trkpt>
      <trkpt lat="43.22679" lon="-1.11355">
        <ele>182.79</ele>
        <time>2021-08-20T14:59:52Z</time>
      </trkpt>
      <trkpt lat="43.22671" lon="-1.11368">
        <ele>183.75</ele>
        <time>2021-08-20T14:59:59Z</time>
      </trkpt>
      <trkpt lat="43.2267" lon="-1.11371">
        <ele>183.75</ele>
        <time>2021-08-20T15:00:00Z</time>
      </trkpt>
      <trkpt lat="43.22669" lon="-1.11373">
        <ele>184.23</ele>
        <time>2021-08-20T15:00:01Z</time>
      </trkpt>
      <trkpt lat="43.22667" lon="-1.11375">
        <ele>184.23</ele>
        <time>2021-08-20T15:00:02Z</time>
      </trkpt>
      <trkpt lat="43.22666" lon="-1.11377">
        <ele>184.23</ele>
        <time>2021-08-20T15:00:03Z</time>
      </trkpt>
      <trkpt lat="43.22657" lon="-1.11389">
        <ele>185.19</ele>
        <time>2021-08-20T15:00:11Z</time>
      </trkpt>
      <trkpt lat="43.22655" lon="-1.11395">
        <ele>185.19</ele>
        <time>2021-08-20T15:00:14Z</time>
      </trkpt>
      <trkpt lat="43.22654" lon="-1.11397">
        <ele>185.67</ele>
        <time>2021-08-20T15:00:15Z</time>
      </trkpt>
      <trkpt lat="43.22647" lon="-1.11413">
        <ele>186.63</ele>
        <time>2021-08-20T15:00:24Z</time>
      </trkpt>
      <trkpt lat="43.22643" lon="-1.11421">
        <ele>188.56</ele>
        <time>2021-08-20T15:00:34Z</time>
      </trkpt>
      <trkpt lat="43.22635" lon="-1.1143">
        <ele>189.52</ele>
        <time>2021-08-20T15:00:43Z</time>
      </trkpt>
      <trkpt lat="43.22634" lon="-1.11437">
        <ele>189.52</ele>
        <time>2021-08-20T15:00:49Z</time>
      </trkpt>
      <trkpt lat="43.22626" lon="-1.11447">
        <ele>189.52</ele>
        <time>2021-08-20T15:00:54Z</time>
      </trkpt>
      <trkpt lat="43.22615" lon="-1.11466">
        <ele>189.52</ele>
        <time>2021-08-20T15:01:01Z</time>
      </trkpt>
      <trkpt lat="43.22604" lon="-1.11491">
        <ele>189.52</ele>
        <time>2021-08-20T15:01:07Z</time>
      </trkpt>
      <trkpt lat="43.22596" lon="-1.11536">
        <ele>189.52</ele>
        <time>2021-08-20T15:01:16Z</time>
      </trkpt>
      <trkpt lat="43.22591" lon="-1.11584">
        <ele>189.52</ele>
        <time>2021-08-20T15:01:25Z</time>
      </trkpt>
      <trkpt lat="43.22588" lon="-1.11592">
        <ele>189.52</ele>
        <time>2021-08-20T15:01:27Z</time>
      </trkpt>
      <trkpt lat="43.22587" lon="-1.11595">
        <ele>189.52</ele>
        <time>2021-08-20T15:01:28Z</time>
      </trkpt>
      <trkpt lat="43.22585" lon="-1.116">
        <ele>189.52</ele>
        <time>2021-08-20T15:01:29Z</time>
      </trkpt>
      <trkpt lat="43.22581" lon="-1.11612">
        <ele>187.59</ele>
        <time>2021-08-20T15:01:31Z</time>
      </trkpt>
      <trkpt lat="43.22575" lon="-1.11625">
        <ele>186.63</ele>
        <time>2021-08-20T15:01:33Z</time>
      </trkpt>
      <trkpt lat="43.22571" lon="-1.11629">
        <ele>186.63</ele>
        <time>2021-08-20T15:01:34Z</time>
      </trkpt>
      <trkpt lat="43.22558" lon="-1.11638">
        <ele>185.67</ele>
        <time>2021-08-20T15:01:36Z</time>
      </trkpt>
      <trkpt lat="43.22535" lon="-1.11652">
        <ele>181.83</ele>
        <time>2021-08-20T15:01:39Z</time>
      </trkpt>
      <trkpt lat="43.22527" lon="-1.11658">
        <ele>180.87</ele>
        <time>2021-08-20T15:01:40Z</time>
      </trkpt>
      <trkpt lat="43.22519" lon="-1.11665">
        <ele>180.87</ele>
        <time>2021-08-20T15:01:41Z</time>
      </trkpt>
      <trkpt lat="43.22513" lon="-1.11673">
        <ele>180.87</ele>
        <time>2021-08-20T15:01:42Z</time>
      </trkpt>
      <trkpt lat="43.22504" lon="-1.11691">
        <ele>180.87</ele>
        <time>2021-08-20T15:01:44Z</time>
      </trkpt>
      <trkpt lat="43.22502" lon="-1.11701">
        <ele>180.87</ele>
        <time>2021-08-20T15:01:45Z</time>
      </trkpt>
      <trkpt lat="43.225" lon="-1.11712">
        <ele>180.87</ele>
        <time>2021-08-20T15:01:46Z</time>
      </trkpt>
      <trkpt lat="43.22498" lon="-1.11763">
        <ele>180.87</ele>
        <time>2021-08-20T15:01:52Z</time>
      </trkpt>
      <trkpt lat="43.22497" lon="-1.11817">
        <ele>181.83</ele>
        <time>2021-08-20T15:02:00Z</time>
      </trkpt>
      <trkpt lat="43.22497" lon="-1.11859">
        <ele>181.83</ele>
        <time>2021-08-20T15:02:06Z</time>
      </trkpt>
      <trkpt lat="43.22497" lon="-1.11866">
        <ele>181.83</ele>
        <time>2021-08-20T15:02:07Z</time>
      </trkpt>
      <trkpt lat="43.22497" lon="-1.11873">
        <ele>181.83</ele>
        <time>2021-08-20T15:02:08Z</time>
      </trkpt>
      <trkpt lat="43.22492" lon="-1.11925">
        <ele>180.87</ele>
        <time>2021-08-20T15:02:15Z</time>
      </trkpt>
      <trkpt lat="43.22491" lon="-1.11932">
        <ele>180.87</ele>
        <time>2021-08-20T15:02:16Z</time>
      </trkpt>
      <trkpt lat="43.2249" lon="-1.11939">
        <ele>180.87</ele>
        <time>2021-08-20T15:02:17Z</time>
      </trkpt>
      <trkpt lat="43.22488" lon="-1.11946">
        <ele>180.87</ele>
        <time>2021-08-20T15:02:18Z</time>
      </trkpt>
      <trkpt lat="43.22486" lon="-1.11952">
        <ele>180.38</ele>
        <time>2021-08-20T15:02:19Z</time>
      </trkpt>
      <trkpt lat="43.22481" lon="-1.11957">
        <ele>179.9</ele>
        <time>2021-08-20T15:02:20Z</time>
      </trkpt>
      <trkpt lat="43.22477" lon="-1.11962">
        <ele>179.9</ele>
        <time>2021-08-20T15:02:21Z</time>
      </trkpt>
      <trkpt lat="43.22473" lon="-1.11966">
        <ele>178.94</ele>
        <time>2021-08-20T15:02:22Z</time>
      </trkpt>
      <trkpt lat="43.22468" lon="-1.1197">
        <ele>178.94</ele>
        <time>2021-08-20T15:02:23Z</time>
      </trkpt>
      <trkpt lat="43.22463" lon="-1.11972">
        <ele>178.46</ele>
        <time>2021-08-20T15:02:24Z</time>
      </trkpt>
      <trkpt lat="43.22458" lon="-1.11973">
        <ele>178.46</ele>
        <time>2021-08-20T15:02:25Z</time>
      </trkpt>
      <trkpt lat="43.22454" lon="-1.11974">
        <ele>177.98</ele>
        <time>2021-08-20T15:02:26Z</time>
      </trkpt>
      <trkpt lat="43.22451" lon="-1.11974">
        <ele>177.98</ele>
        <time>2021-08-20T15:02:27Z</time>
      </trkpt>
      <trkpt lat="43.2245" lon="-1.11974">
        <ele>178.46</ele>
        <time>2021-08-20T15:02:31Z</time>
      </trkpt>
      <trkpt lat="43.22448" lon="-1.11974">
        <ele>178.46</ele>
        <time>2021-08-20T15:02:38Z</time>
      </trkpt>
      <trkpt lat="43.22446" lon="-1.11975">
        <ele>178.46</ele>
        <time>2021-08-20T15:02:41Z</time>
      </trkpt>
      <trkpt lat="43.22441" lon="-1.11974">
        <ele>177.98</ele>
        <time>2021-08-20T15:02:47Z</time>
      </trkpt>
      <trkpt lat="43.22426" lon="-1.11972">
        <ele>177.5</ele>
        <time>2021-08-20T15:02:53Z</time>
      </trkpt>
      <trkpt lat="43.22398" lon="-1.11963">
        <ele>176.06</ele>
        <time>2021-08-20T15:03:01Z</time>
      </trkpt>
      <trkpt lat="43.22372" lon="-1.11949">
        <ele>175.1</ele>
        <time>2021-08-20T15:03:07Z</time>
      </trkpt>
      <trkpt lat="43.22345" lon="-1.11935">
        <ele>175.1</ele>
        <time>2021-08-20T15:03:13Z</time>
      </trkpt>
      <trkpt lat="43.2234" lon="-1.11933">
        <ele>175.1</ele>
        <time>2021-08-20T15:03:14Z</time>
      </trkpt>
      <trkpt lat="43.22337" lon="-1.11931">
        <ele>175.1</ele>
        <time>2021-08-20T15:03:15Z</time>
      </trkpt>
      <trkpt lat="43.22334" lon="-1.11929">
        <ele>175.1</ele>
        <time>2021-08-20T15:03:16Z</time>
      </trkpt>
      <trkpt lat="43.2233" lon="-1.11927">
        <ele>175.1</ele>
        <time>2021-08-20T15:03:17Z</time>
      </trkpt>
      <trkpt lat="43.22327" lon="-1.11925">
        <ele>176.54</ele>
        <time>2021-08-20T15:03:18Z</time>
      </trkpt>
      <trkpt lat="43.22324" lon="-1.11923">
        <ele>176.54</ele>
        <time>2021-08-20T15:03:19Z</time>
      </trkpt>
      <trkpt lat="43.22307" lon="-1.11911">
        <ele>177.02</ele>
        <time>2021-08-20T15:03:26Z</time>
      </trkpt>
      <trkpt lat="43.22305" lon="-1.11909">
        <ele>177.5</ele>
        <time>2021-08-20T15:03:27Z</time>
      </trkpt>
      <trkpt lat="43.22303" lon="-1.11906">
        <ele>177.5</ele>
        <time>2021-08-20T15:03:28Z</time>
      </trkpt>
      <trkpt lat="43.22301" lon="-1.11903">
        <ele>177.98</ele>
        <time>2021-08-20T15:03:29Z</time>
      </trkpt>
      <trkpt lat="43.223" lon="-1.11901">
        <ele>177.98</ele>
        <time>2021-08-20T15:03:30Z</time>
      </trkpt>
      <trkpt lat="43.22298" lon="-1.11899">
        <ele>178.46</ele>
        <time>2021-08-20T15:03:31Z</time>
      </trkpt>
      <trkpt lat="43.22295" lon="-1.11898">
        <ele>178.46</ele>
        <time>2021-08-20T15:03:32Z</time>
      </trkpt>
      <trkpt lat="43.22293" lon="-1.11896">
        <ele>178.94</ele>
        <time>2021-08-20T15:03:33Z</time>
      </trkpt>
      <trkpt lat="43.22291" lon="-1.11895">
        <ele>178.94</ele>
        <time>2021-08-20T15:03:34Z</time>
      </trkpt>
      <trkpt lat="43.22272" lon="-1.11885">
        <ele>179.9</ele>
        <time>2021-08-20T15:03:43Z</time>
      </trkpt>
      <trkpt lat="43.22253" lon="-1.11878">
        <ele>180.38</ele>
        <time>2021-08-20T15:03:51Z</time>
      </trkpt>
      <trkpt lat="43.22234" lon="-1.11871">
        <ele>181.83</ele>
        <time>2021-08-20T15:03:58Z</time>
      </trkpt>
      <trkpt lat="43.22215" lon="-1.11866">
        <ele>180.87</ele>
        <time>2021-08-20T15:04:04Z</time>
      </trkpt>
      <trkpt lat="43.22212" lon="-1.11866">
        <ele>180.87</ele>
        <time>2021-08-20T15:04:05Z</time>
      </trkpt>
      <trkpt lat="43.22183" lon="-1.11872">
        <ele>180.87</ele>
        <time>2021-08-20T15:04:11Z</time>
      </trkpt>
      <trkpt lat="43.22161" lon="-1.11885">
        <ele>180.38</ele>
        <time>2021-08-20T15:04:16Z</time>
      </trkpt>
      <trkpt lat="43.22156" lon="-1.11887">
        <ele>179.42</ele>
        <time>2021-08-20T15:04:17Z</time>
      </trkpt>
      <trkpt lat="43.22142" lon="-1.11893">
        <ele>177.98</ele>
        <time>2021-08-20T15:04:20Z</time>
      </trkpt>
      <trkpt lat="43.22137" lon="-1.11894">
        <ele>177.98</ele>
        <time>2021-08-20T15:04:21Z</time>
      </trkpt>
      <trkpt lat="43.22134" lon="-1.11896">
        <ele>177.98</ele>
        <time>2021-08-20T15:04:22Z</time>
      </trkpt>
      <trkpt lat="43.22129" lon="-1.11899">
        <ele>177.98</ele>
        <time>2021-08-20T15:04:24Z</time>
      </trkpt>
      <trkpt lat="43.22128" lon="-1.11901">
        <ele>177.5</ele>
        <time>2021-08-20T15:04:29Z</time>
      </trkpt>
      <trkpt lat="43.22124" lon="-1.11903">
        <ele>177.5</ele>
        <time>2021-08-20T15:04:35Z</time>
      </trkpt>
      <trkpt lat="43.22123" lon="-1.11905">
        <ele>176.54</ele>
        <time>2021-08-20T15:04:36Z</time>
      </trkpt>
      <trkpt lat="43.22108" lon="-1.11925">
        <ele>176.06</ele>
        <time>2021-08-20T15:04:42Z</time>
      </trkpt>
      <trkpt lat="43.22098" lon="-1.11941">
        <ele>176.06</ele>
        <time>2021-08-20T15:04:49Z</time>
      </trkpt>
      <trkpt lat="43.22092" lon="-1.1195">
        <ele>177.5</ele>
        <time>2021-08-20T15:04:56Z</time>
      </trkpt>
      <trkpt lat="43.22089" lon="-1.11947">
        <ele>177.5</ele>
        <time>2021-08-20T15:05:00Z</time>
      </trkpt>
      <trkpt lat="43.2209" lon="-1.11946">
        <ele>177.5</ele>
        <time>2021-08-20T15:05:05Z</time>
      </trkpt>
      <trkpt lat="43.22094" lon="-1.11948">
        <ele>177.5</ele>
        <time>2021-08-20T15:05:27Z</time>
      </trkpt>
      <trkpt lat="43.22094" lon="-1.11951">
        <ele>177.5</ele>
        <time>2021-08-20T15:05:46Z</time>
      </trkpt>
      <trkpt lat="43.22093" lon="-1.1195">
        <ele>177.5</ele>
        <time>2021-08-20T15:05:50Z</time>
      </trkpt>
      <trkpt lat="43.22087" lon="-1.1196">
        <ele>177.98</ele>
        <time>2021-08-20T15:05:56Z</time>
      </trkpt>
      <trkpt lat="43.22072" lon="-1.11984">
        <ele>177.98</ele>
        <time>2021-08-20T15:06:03Z</time>
      </trkpt>
      <trkpt lat="43.22052" lon="-1.12014">
        <ele>177.98</ele>
        <time>2021-08-20T15:06:11Z</time>
      </trkpt>
      <trkpt lat="43.22023" lon="-1.12054">
        <ele>176.54</ele>
        <time>2021-08-20T15:06:19Z</time>
      </trkpt>
      <trkpt lat="43.22018" lon="-1.12059">
        <ele>176.54</ele>
        <time>2021-08-20T15:06:20Z</time>
      </trkpt>
      <trkpt lat="43.21977" lon="-1.12104">
        <ele>175.58</ele>
        <time>2021-08-20T15:06:29Z</time>
      </trkpt>
      <trkpt lat="43.21942" lon="-1.12145">
        <ele>175.58</ele>
        <time>2021-08-20T15:06:38Z</time>
      </trkpt>
      <trkpt lat="43.21926" lon="-1.12164">
        <ele>177.02</ele>
        <time>2021-08-20T15:06:43Z</time>
      </trkpt>
      <trkpt lat="43.21894" lon="-1.122">
        <ele>177.98</ele>
        <time>2021-08-20T15:06:53Z</time>
      </trkpt>
      <trkpt lat="43.21878" lon="-1.12218">
        <ele>178.46</ele>
        <time>2021-08-20T15:06:58Z</time>
      </trkpt>
      <trkpt lat="43.21854" lon="-1.12242">
        <ele>181.35</ele>
        <time>2021-08-20T15:07:07Z</time>
      </trkpt>
      <trkpt lat="43.21838" lon="-1.12259">
        <ele>181.83</ele>
        <time>2021-08-20T15:07:15Z</time>
      </trkpt>
      <trkpt lat="43.21825" lon="-1.12274">
        <ele>182.79</ele>
        <time>2021-08-20T15:07:23Z</time>
      </trkpt>
      <trkpt lat="43.21823" lon="-1.12276">
        <ele>182.79</ele>
        <time>2021-08-20T15:07:24Z</time>
      </trkpt>
      <trkpt lat="43.21823" lon="-1.1228">
        <ele>182.79</ele>
        <time>2021-08-20T15:07:25Z</time>
      </trkpt>
      <trkpt lat="43.21822" lon="-1.12283">
        <ele>183.27</ele>
        <time>2021-08-20T15:07:26Z</time>
      </trkpt>
      <trkpt lat="43.21822" lon="-1.12286">
        <ele>183.27</ele>
        <time>2021-08-20T15:07:27Z</time>
      </trkpt>
      <trkpt lat="43.21823" lon="-1.12289">
        <ele>183.27</ele>
        <time>2021-08-20T15:07:28Z</time>
      </trkpt>
      <trkpt lat="43.21823" lon="-1.12292">
        <ele>183.27</ele>
        <time>2021-08-20T15:07:29Z</time>
      </trkpt>
      <trkpt lat="43.21824" lon="-1.12295">
        <ele>183.75</ele>
        <time>2021-08-20T15:07:30Z</time>
      </trkpt>
      <trkpt lat="43.21825" lon="-1.12298">
        <ele>183.75</ele>
        <time>2021-08-20T15:07:31Z</time>
      </trkpt>
      <trkpt lat="43.21826" lon="-1.12301">
        <ele>183.75</ele>
        <time>2021-08-20T15:07:32Z</time>
      </trkpt>
      <trkpt lat="43.21827" lon="-1.12303">
        <ele>184.23</ele>
        <time>2021-08-20T15:07:33Z</time>
      </trkpt>
      <trkpt lat="43.21829" lon="-1.12306">
        <ele>184.23</ele>
        <time>2021-08-20T15:07:34Z</time>
      </trkpt>
      <trkpt lat="43.21842" lon="-1.12331">
        <ele>186.63</ele>
        <time>2021-08-20T15:07:46Z</time>
      </trkpt>
      <trkpt lat="43.21843" lon="-1.12337">
        <ele>187.59</ele>
        <time>2021-08-20T15:07:49Z</time>
      </trkpt>
      <trkpt lat="43.2184" lon="-1.12342">
        <ele>188.08</ele>
        <time>2021-08-20T15:07:57Z</time>
      </trkpt>
      <trkpt lat="43.21837" lon="-1.12341">
        <ele>188.08</ele>
        <time>2021-08-20T15:08:06Z</time>
      </trkpt>
      <trkpt lat="43.21832" lon="-1.12345">
        <ele>189.52</ele>
        <time>2021-08-20T15:08:16Z</time>
      </trkpt>
      <trkpt lat="43.21827" lon="-1.12347">
        <ele>190.48</ele>
        <time>2021-08-20T15:08:25Z</time>
      </trkpt>
      <trkpt lat="43.21819" lon="-1.1235">
        <ele>191.92</ele>
        <time>2021-08-20T15:08:35Z</time>
      </trkpt>
      <trkpt lat="43.21811" lon="-1.12349">
        <ele>193.36</ele>
        <time>2021-08-20T15:08:45Z</time>
      </trkpt>
      <trkpt lat="43.21809" lon="-1.1235">
        <ele>193.36</ele>
        <time>2021-08-20T15:08:47Z</time>
      </trkpt>
      <trkpt lat="43.21808" lon="-1.1235">
        <ele>193.36</ele>
        <time>2021-08-20T15:08:48Z</time>
      </trkpt>
      <trkpt lat="43.21801" lon="-1.12354">
        <ele>194.32</ele>
        <time>2021-08-20T15:08:57Z</time>
      </trkpt>
      <trkpt lat="43.21796" lon="-1.12355">
        <ele>194.8</ele>
        <time>2021-08-20T15:09:05Z</time>
      </trkpt>
      <trkpt lat="43.21795" lon="-1.12355">
        <ele>194.8</ele>
        <time>2021-08-20T15:09:07Z</time>
      </trkpt>
      <trkpt lat="43.21788" lon="-1.12356">
        <ele>195.28</ele>
        <time>2021-08-20T15:09:13Z</time>
      </trkpt>
      <trkpt lat="43.21775" lon="-1.12359">
        <ele>196.25</ele>
        <time>2021-08-20T15:09:22Z</time>
      </trkpt>
      <trkpt lat="43.21765" lon="-1.12365">
        <ele>197.21</ele>
        <time>2021-08-20T15:09:29Z</time>
      </trkpt>
      <trkpt lat="43.21764" lon="-1.12366">
        <ele>197.21</ele>
        <time>2021-08-20T15:09:30Z</time>
      </trkpt>
      <trkpt lat="43.21763" lon="-1.12367">
        <ele>197.21</ele>
        <time>2021-08-20T15:09:31Z</time>
      </trkpt>
      <trkpt lat="43.21761" lon="-1.12369">
        <ele>197.21</ele>
        <time>2021-08-20T15:09:32Z</time>
      </trkpt>
      <trkpt lat="43.2176" lon="-1.1237">
        <ele>197.21</ele>
        <time>2021-08-20T15:09:33Z</time>
      </trkpt>
      <trkpt lat="43.21758" lon="-1.12372">
        <ele>197.21</ele>
        <time>2021-08-20T15:09:34Z</time>
      </trkpt>
      <trkpt lat="43.21756" lon="-1.12373">
        <ele>197.21</ele>
        <time>2021-08-20T15:09:35Z</time>
      </trkpt>
      <trkpt lat="43.21754" lon="-1.12374">
        <ele>197.69</ele>
        <time>2021-08-20T15:09:36Z</time>
      </trkpt>
      <trkpt lat="43.21752" lon="-1.12376">
        <ele>197.69</ele>
        <time>2021-08-20T15:09:37Z</time>
      </trkpt>
      <trkpt lat="43.2175" lon="-1.12378">
        <ele>197.69</ele>
        <time>2021-08-20T15:09:38Z</time>
      </trkpt>
      <trkpt lat="43.21742" lon="-1.12386">
        <ele>198.17</ele>
        <time>2021-08-20T15:09:44Z</time>
      </trkpt>
      <trkpt lat="43.21725" lon="-1.12404">
        <ele>198.17</ele>
        <time>2021-08-20T15:09:53Z</time>
      </trkpt>
      <trkpt lat="43.21712" lon="-1.12418">
        <ele>198.65</ele>
        <time>2021-08-20T15:10:01Z</time>
      </trkpt>
      <trkpt lat="43.21698" lon="-1.12434">
        <ele>199.13</ele>
        <time>2021-08-20T15:10:08Z</time>
      </trkpt>
      <trkpt lat="43.21685" lon="-1.12451">
        <ele>200.09</ele>
        <time>2021-08-20T15:10:16Z</time>
      </trkpt>
      <trkpt lat="43.21671" lon="-1.12467">
        <ele>200.09</ele>
        <time>2021-08-20T15:10:23Z</time>
      </trkpt>
      <trkpt lat="43.21658" lon="-1.12492">
        <ele>200.57</ele>
        <time>2021-08-20T15:10:31Z</time>
      </trkpt>
      <trkpt lat="43.2165" lon="-1.12509">
        <ele>202.01</ele>
        <time>2021-08-20T15:10:38Z</time>
      </trkpt>
      <trkpt lat="43.21641" lon="-1.1253">
        <ele>202.49</ele>
        <time>2021-08-20T15:10:46Z</time>
      </trkpt>
      <trkpt lat="43.21629" lon="-1.12547">
        <ele>202.49</ele>
        <time>2021-08-20T15:10:53Z</time>
      </trkpt>
      <trkpt lat="43.21616" lon="-1.12555">
        <ele>203.46</ele>
        <time>2021-08-20T15:11:00Z</time>
      </trkpt>
      <trkpt lat="43.21604" lon="-1.12566">
        <ele>205.38</ele>
        <time>2021-08-20T15:11:07Z</time>
      </trkpt>
      <trkpt lat="43.21591" lon="-1.1258">
        <ele>206.34</ele>
        <time>2021-08-20T15:11:15Z</time>
      </trkpt>
      <trkpt lat="43.21578" lon="-1.12591">
        <ele>206.34</ele>
        <time>2021-08-20T15:11:21Z</time>
      </trkpt>
      <trkpt lat="43.21566" lon="-1.12604">
        <ele>207.3</ele>
        <time>2021-08-20T15:11:28Z</time>
      </trkpt>
      <trkpt lat="43.21558" lon="-1.12616">
        <ele>208.26</ele>
        <time>2021-08-20T15:11:35Z</time>
      </trkpt>
      <trkpt lat="43.21554" lon="-1.12624">
        <ele>209.22</ele>
        <time>2021-08-20T15:11:41Z</time>
      </trkpt>
      <trkpt lat="43.21554" lon="-1.12625">
        <ele>209.7</ele>
        <time>2021-08-20T15:11:42Z</time>
      </trkpt>
      <trkpt lat="43.21548" lon="-1.12639">
        <ele>210.67</ele>
        <time>2021-08-20T15:11:51Z</time>
      </trkpt>
      <trkpt lat="43.21543" lon="-1.12648">
        <ele>211.15</ele>
        <time>2021-08-20T15:11:57Z</time>
      </trkpt>
      <trkpt lat="43.21536" lon="-1.12662">
        <ele>212.11</ele>
        <time>2021-08-20T15:12:05Z</time>
      </trkpt>
      <trkpt lat="43.2153" lon="-1.12676">
        <ele>213.55</ele>
        <time>2021-08-20T15:12:13Z</time>
      </trkpt>
      <trkpt lat="43.21528" lon="-1.12681">
        <ele>213.55</ele>
        <time>2021-08-20T15:12:16Z</time>
      </trkpt>
      <trkpt lat="43.21528" lon="-1.12683">
        <ele>213.55</ele>
        <time>2021-08-20T15:12:17Z</time>
      </trkpt>
      <trkpt lat="43.21526" lon="-1.12691">
        <ele>213.55</ele>
        <time>2021-08-20T15:12:20Z</time>
      </trkpt>
      <trkpt lat="43.21526" lon="-1.12693">
        <ele>214.03</ele>
        <time>2021-08-20T15:12:21Z</time>
      </trkpt>
      <trkpt lat="43.21523" lon="-1.12711">
        <ele>214.99</ele>
        <time>2021-08-20T15:12:30Z</time>
      </trkpt>
      <trkpt lat="43.21525" lon="-1.12721">
        <ele>216.43</ele>
        <time>2021-08-20T15:12:40Z</time>
      </trkpt>
      <trkpt lat="43.21528" lon="-1.12726">
        <ele>217.4</ele>
        <time>2021-08-20T15:12:47Z</time>
      </trkpt>
      <trkpt lat="43.21528" lon="-1.12728">
        <ele>217.88</ele>
        <time>2021-08-20T15:12:52Z</time>
      </trkpt>
      <trkpt lat="43.21527" lon="-1.12731">
        <ele>217.4</ele>
        <time>2021-08-20T15:12:56Z</time>
      </trkpt>
      <trkpt lat="43.21525" lon="-1.12735">
        <ele>217.4</ele>
        <time>2021-08-20T15:13:02Z</time>
      </trkpt>
      <trkpt lat="43.21524" lon="-1.12738">
        <ele>216.43</ele>
        <time>2021-08-20T15:13:05Z</time>
      </trkpt>
      <trkpt lat="43.21524" lon="-1.1274">
        <ele>216.43</ele>
        <time>2021-08-20T15:13:06Z</time>
      </trkpt>
      <trkpt lat="43.21524" lon="-1.12742">
        <ele>216.43</ele>
        <time>2021-08-20T15:13:07Z</time>
      </trkpt>
      <trkpt lat="43.21524" lon="-1.12745">
        <ele>216.43</ele>
        <time>2021-08-20T15:13:08Z</time>
      </trkpt>
      <trkpt lat="43.21524" lon="-1.12748">
        <ele>216.43</ele>
        <time>2021-08-20T15:13:09Z</time>
      </trkpt>
      <trkpt lat="43.21524" lon="-1.12751">
        <ele>216.43</ele>
        <time>2021-08-20T15:13:10Z</time>
      </trkpt>
      <trkpt lat="43.21524" lon="-1.12754">
        <ele>215.95</ele>
        <time>2021-08-20T15:13:11Z</time>
      </trkpt>
      <trkpt lat="43.21525" lon="-1.12756">
        <ele>215.95</ele>
        <time>2021-08-20T15:13:12Z</time>
      </trkpt>
      <trkpt lat="43.21524" lon="-1.12758">
        <ele>215.95</ele>
        <time>2021-08-20T15:13:13Z</time>
      </trkpt>
      <trkpt lat="43.21523" lon="-1.12761">
        <ele>215.95</ele>
        <time>2021-08-20T15:13:14Z</time>
      </trkpt>
      <trkpt lat="43.21523" lon="-1.12764">
        <ele>215.47</ele>
        <time>2021-08-20T15:13:15Z</time>
      </trkpt>
      <trkpt lat="43.21524" lon="-1.12767">
        <ele>215.47</ele>
        <time>2021-08-20T15:13:16Z</time>
      </trkpt>
      <trkpt lat="43.21527" lon="-1.12784">
        <ele>214.99</ele>
        <time>2021-08-20T15:13:21Z</time>
      </trkpt>
      <trkpt lat="43.21527" lon="-1.12787">
        <ele>214.99</ele>
        <time>2021-08-20T15:13:22Z</time>
      </trkpt>
      <trkpt lat="43.21527" lon="-1.1279">
        <ele>214.51</ele>
        <time>2021-08-20T15:13:23Z</time>
      </trkpt>
      <trkpt lat="43.21527" lon="-1.12801">
        <ele>213.55</ele>
        <time>2021-08-20T15:13:26Z</time>
      </trkpt>
      <trkpt lat="43.21526" lon="-1.12805">
        <ele>213.55</ele>
        <time>2021-08-20T15:13:27Z</time>
      </trkpt>
      <trkpt lat="43.21526" lon="-1.1281">
        <ele>212.59</ele>
        <time>2021-08-20T15:13:28Z</time>
      </trkpt>
      <trkpt lat="43.21525" lon="-1.12814">
        <ele>212.59</ele>
        <time>2021-08-20T15:13:29Z</time>
      </trkpt>
      <trkpt lat="43.21526" lon="-1.12818">
        <ele>211.63</ele>
        <time>2021-08-20T15:13:30Z</time>
      </trkpt>
      <trkpt lat="43.21526" lon="-1.12823">
        <ele>211.63</ele>
        <time>2021-08-20T15:13:31Z</time>
      </trkpt>
      <trkpt lat="43.21527" lon="-1.12826">
        <ele>211.63</ele>
        <time>2021-08-20T15:13:32Z</time>
      </trkpt>
      <trkpt lat="43.21528" lon="-1.12829">
        <ele>211.15</ele>
        <time>2021-08-20T15:13:33Z</time>
      </trkpt>
      <trkpt lat="43.21528" lon="-1.12831">
        <ele>211.15</ele>
        <time>2021-08-20T15:13:34Z</time>
      </trkpt>
      <trkpt lat="43.21528" lon="-1.12834">
        <ele>210.67</ele>
        <time>2021-08-20T15:13:39Z</time>
      </trkpt>
      <trkpt lat="43.21527" lon="-1.12839">
        <ele>210.67</ele>
        <time>2021-08-20T15:13:49Z</time>
      </trkpt>
      <trkpt lat="43.21526" lon="-1.12839">
        <ele>210.67</ele>
        <time>2021-08-20T15:13:56Z</time>
      </trkpt>
      <trkpt lat="43.21521" lon="-1.12842">
        <ele>210.67</ele>
        <time>2021-08-20T15:14:01Z</time>
      </trkpt>
      <trkpt lat="43.21517" lon="-1.1284">
        <ele>210.67</ele>
        <time>2021-08-20T15:14:07Z</time>
      </trkpt>
      <trkpt lat="43.21506" lon="-1.12834">
        <ele>213.55</ele>
        <time>2021-08-20T15:14:15Z</time>
      </trkpt>
      <trkpt lat="43.21493" lon="-1.12832">
        <ele>214.99</ele>
        <time>2021-08-20T15:14:24Z</time>
      </trkpt>
      <trkpt lat="43.21489" lon="-1.12831">
        <ele>215.47</ele>
        <time>2021-08-20T15:14:32Z</time>
      </trkpt>
      <trkpt lat="43.21483" lon="-1.12837">
        <ele>216.91</ele>
        <time>2021-08-20T15:14:42Z</time>
      </trkpt>
      <trkpt lat="43.21478" lon="-1.12845">
        <ele>218.84</ele>
        <time>2021-08-20T15:14:54Z</time>
      </trkpt>
      <trkpt lat="43.21473" lon="-1.12848">
        <ele>219.32</ele>
        <time>2021-08-20T15:15:00Z</time>
      </trkpt>
      <trkpt lat="43.21472" lon="-1.12849">
        <ele>219.32</ele>
        <time>2021-08-20T15:15:02Z</time>
      </trkpt>
      <trkpt lat="43.21466" lon="-1.12854">
        <ele>220.28</ele>
        <time>2021-08-20T15:15:10Z</time>
      </trkpt>
      <trkpt lat="43.21458" lon="-1.12863">
        <ele>222.2</ele>
        <time>2021-08-20T15:15:22Z</time>
      </trkpt>
      <trkpt lat="43.21454" lon="-1.1287">
        <ele>223.16</ele>
        <time>2021-08-20T15:15:31Z</time>
      </trkpt>
      <trkpt lat="43.2145" lon="-1.12876">
        <ele>224.61</ele>
        <time>2021-08-20T15:15:39Z</time>
      </trkpt>
      <trkpt lat="43.21447" lon="-1.12882">
        <ele>225.09</ele>
        <time>2021-08-20T15:15:47Z</time>
      </trkpt>
      <trkpt lat="43.21445" lon="-1.12887">
        <ele>225.09</ele>
        <time>2021-08-20T15:15:52Z</time>
      </trkpt>
      <trkpt lat="43.21443" lon="-1.12889">
        <ele>225.57</ele>
        <time>2021-08-20T15:15:54Z</time>
      </trkpt>
      <trkpt lat="43.21439" lon="-1.12896">
        <ele>225.57</ele>
        <time>2021-08-20T15:15:59Z</time>
      </trkpt>
      <trkpt lat="43.21438" lon="-1.12897">
        <ele>226.05</ele>
        <time>2021-08-20T15:16:00Z</time>
      </trkpt>
      <trkpt lat="43.21437" lon="-1.12898">
        <ele>226.05</ele>
        <time>2021-08-20T15:16:01Z</time>
      </trkpt>
      <trkpt lat="43.2143" lon="-1.12911">
        <ele>227.49</ele>
        <time>2021-08-20T15:16:09Z</time>
      </trkpt>
      <trkpt lat="43.2142" lon="-1.12932">
        <ele>227.97</ele>
        <time>2021-08-20T15:16:20Z</time>
      </trkpt>
      <trkpt lat="43.21411" lon="-1.1295">
        <ele>228.93</ele>
        <time>2021-08-20T15:16:30Z</time>
      </trkpt>
      <trkpt lat="43.21405" lon="-1.12961">
        <ele>229.41</ele>
        <time>2021-08-20T15:16:36Z</time>
      </trkpt>
      <trkpt lat="43.21404" lon="-1.12963">
        <ele>229.41</ele>
        <time>2021-08-20T15:16:37Z</time>
      </trkpt>
      <trkpt lat="43.21396" lon="-1.1298">
        <ele>229.89</ele>
        <time>2021-08-20T15:16:46Z</time>
      </trkpt>
      <trkpt lat="43.21389" lon="-1.12996">
        <ele>230.85</ele>
        <time>2021-08-20T15:16:54Z</time>
      </trkpt>
      <trkpt lat="43.21384" lon="-1.13018">
        <ele>231.33</ele>
        <time>2021-08-20T15:17:04Z</time>
      </trkpt>
      <trkpt lat="43.2138" lon="-1.13038">
        <ele>232.3</ele>
        <time>2021-08-20T15:17:13Z</time>
      </trkpt>
      <trkpt lat="43.21378" lon="-1.13058">
        <ele>233.26</ele>
        <time>2021-08-20T15:17:22Z</time>
      </trkpt>
      <trkpt lat="43.21377" lon="-1.13071">
        <ele>233.74</ele>
        <time>2021-08-20T15:17:28Z</time>
      </trkpt>
      <trkpt lat="43.21377" lon="-1.13073">
        <ele>234.22</ele>
        <time>2021-08-20T15:17:29Z</time>
      </trkpt>
      <trkpt lat="43.21377" lon="-1.13075">
        <ele>234.22</ele>
        <time>2021-08-20T15:17:30Z</time>
      </trkpt>
      <trkpt lat="43.21377" lon="-1.13077">
        <ele>234.22</ele>
        <time>2021-08-20T15:17:31Z</time>
      </trkpt>
      <trkpt lat="43.21377" lon="-1.13079">
        <ele>234.22</ele>
        <time>2021-08-20T15:17:32Z</time>
      </trkpt>
      <trkpt lat="43.21377" lon="-1.13081">
        <ele>234.7</ele>
        <time>2021-08-20T15:17:33Z</time>
      </trkpt>
      <trkpt lat="43.21376" lon="-1.13098">
        <ele>235.66</ele>
        <time>2021-08-20T15:17:41Z</time>
      </trkpt>
      <trkpt lat="43.21373" lon="-1.13119">
        <ele>235.66</ele>
        <time>2021-08-20T15:17:48Z</time>
      </trkpt>
      <trkpt lat="43.21373" lon="-1.13141">
        <ele>236.14</ele>
        <time>2021-08-20T15:17:56Z</time>
      </trkpt>
      <trkpt lat="43.2137" lon="-1.1317">
        <ele>236.14</ele>
        <time>2021-08-20T15:18:05Z</time>
      </trkpt>
      <trkpt lat="43.21369" lon="-1.13202">
        <ele>235.18</ele>
        <time>2021-08-20T15:18:12Z</time>
      </trkpt>
      <trkpt lat="43.21365" lon="-1.13249">
        <ele>233.26</ele>
        <time>2021-08-20T15:18:21Z</time>
      </trkpt>
      <trkpt lat="43.21362" lon="-1.13269">
        <ele>233.26</ele>
        <time>2021-08-20T15:18:27Z</time>
      </trkpt>
      <trkpt lat="43.21362" lon="-1.13273">
        <ele>233.26</ele>
        <time>2021-08-20T15:18:29Z</time>
      </trkpt>
      <trkpt lat="43.21361" lon="-1.13274">
        <ele>233.26</ele>
        <time>2021-08-20T15:18:35Z</time>
      </trkpt>
      <trkpt lat="43.21356" lon="-1.13275">
        <ele>233.26</ele>
        <time>2021-08-20T15:18:50Z</time>
      </trkpt>
      <trkpt lat="43.21356" lon="-1.1328">
        <ele>234.7</ele>
        <time>2021-08-20T15:19:01Z</time>
      </trkpt>
      <trkpt lat="43.21355" lon="-1.13301">
        <ele>235.18</ele>
        <time>2021-08-20T15:19:08Z</time>
      </trkpt>
      <trkpt lat="43.2135" lon="-1.13327">
        <ele>236.14</ele>
        <time>2021-08-20T15:19:16Z</time>
      </trkpt>
      <trkpt lat="43.21345" lon="-1.13354">
        <ele>237.58</ele>
        <time>2021-08-20T15:19:24Z</time>
      </trkpt>
      <trkpt lat="43.21339" lon="-1.1338">
        <ele>239.02</ele>
        <time>2021-08-20T15:19:33Z</time>
      </trkpt>
      <trkpt lat="43.21339" lon="-1.13383">
        <ele>239.51</ele>
        <time>2021-08-20T15:19:34Z</time>
      </trkpt>
      <trkpt lat="43.21338" lon="-1.13386">
        <ele>239.51</ele>
        <time>2021-08-20T15:19:35Z</time>
      </trkpt>
      <trkpt lat="43.21331" lon="-1.13408">
        <ele>240.95</ele>
        <time>2021-08-20T15:19:43Z</time>
      </trkpt>
      <trkpt lat="43.21319" lon="-1.1343">
        <ele>242.87</ele>
        <time>2021-08-20T15:19:53Z</time>
      </trkpt>
      <trkpt lat="43.21309" lon="-1.13446">
        <ele>243.35</ele>
        <time>2021-08-20T15:20:00Z</time>
      </trkpt>
      <trkpt lat="43.213" lon="-1.13461">
        <ele>245.27</ele>
        <time>2021-08-20T15:20:08Z</time>
      </trkpt>
      <trkpt lat="43.21292" lon="-1.13472">
        <ele>245.75</ele>
        <time>2021-08-20T15:20:15Z</time>
      </trkpt>
      <trkpt lat="43.21291" lon="-1.13473">
        <ele>245.75</ele>
        <time>2021-08-20T15:20:16Z</time>
      </trkpt>
      <trkpt lat="43.21289" lon="-1.13475">
        <ele>245.75</ele>
        <time>2021-08-20T15:20:17Z</time>
      </trkpt>
      <trkpt lat="43.21287" lon="-1.13478">
        <ele>246.23</ele>
        <time>2021-08-20T15:20:18Z</time>
      </trkpt>
      <trkpt lat="43.21286" lon="-1.1348">
        <ele>246.23</ele>
        <time>2021-08-20T15:20:19Z</time>
      </trkpt>
      <trkpt lat="43.21284" lon="-1.13482">
        <ele>246.23</ele>
        <time>2021-08-20T15:20:20Z</time>
      </trkpt>
      <trkpt lat="43.21268" lon="-1.1351">
        <ele>248.64</ele>
        <time>2021-08-20T15:20:33Z</time>
      </trkpt>
      <trkpt lat="43.21259" lon="-1.13528">
        <ele>249.12</ele>
        <time>2021-08-20T15:20:42Z</time>
      </trkpt>
      <trkpt lat="43.21251" lon="-1.13542">
        <ele>250.56</ele>
        <time>2021-08-20T15:20:49Z</time>
      </trkpt>
      <trkpt lat="43.21238" lon="-1.1356">
        <ele>252</ele>
        <time>2021-08-20T15:20:59Z</time>
      </trkpt>
      <trkpt lat="43.21226" lon="-1.13575">
        <ele>252.96</ele>
        <time>2021-08-20T15:21:08Z</time>
      </trkpt>
      <trkpt lat="43.21212" lon="-1.13591">
        <ele>254.41</ele>
        <time>2021-08-20T15:21:18Z</time>
      </trkpt>
      <trkpt lat="43.21198" lon="-1.13605">
        <ele>255.85</ele>
        <time>2021-08-20T15:21:28Z</time>
      </trkpt>
      <trkpt lat="43.21182" lon="-1.13619">
        <ele>257.77</ele>
        <time>2021-08-20T15:21:39Z</time>
      </trkpt>
      <trkpt lat="43.21168" lon="-1.13629">
        <ele>258.73</ele>
        <time>2021-08-20T15:21:47Z</time>
      </trkpt>
      <trkpt lat="43.21151" lon="-1.13643">
        <ele>260.17</ele>
        <time>2021-08-20T15:21:57Z</time>
      </trkpt>
      <trkpt lat="43.21144" lon="-1.13649">
        <ele>260.65</ele>
        <time>2021-08-20T15:22:01Z</time>
      </trkpt>
      <trkpt lat="43.21142" lon="-1.13651">
        <ele>260.65</ele>
        <time>2021-08-20T15:22:02Z</time>
      </trkpt>
      <trkpt lat="43.21127" lon="-1.13664">
        <ele>262.1</ele>
        <time>2021-08-20T15:22:11Z</time>
      </trkpt>
      <trkpt lat="43.21117" lon="-1.13676">
        <ele>263.54</ele>
        <time>2021-08-20T15:22:18Z</time>
      </trkpt>
      <trkpt lat="43.21104" lon="-1.13692">
        <ele>264.5</ele>
        <time>2021-08-20T15:22:27Z</time>
      </trkpt>
      <trkpt lat="43.21091" lon="-1.13706">
        <ele>265.46</ele>
        <time>2021-08-20T15:22:35Z</time>
      </trkpt>
      <trkpt lat="43.21081" lon="-1.13711">
        <ele>266.42</ele>
        <time>2021-08-20T15:22:39Z</time>
      </trkpt>
      <trkpt lat="43.21079" lon="-1.13713">
        <ele>266.42</ele>
        <time>2021-08-20T15:22:40Z</time>
      </trkpt>
      <trkpt lat="43.2106" lon="-1.13735">
        <ele>265.94</ele>
        <time>2021-08-20T15:22:49Z</time>
      </trkpt>
      <trkpt lat="43.21043" lon="-1.1376">
        <ele>264.98</ele>
        <time>2021-08-20T15:22:56Z</time>
      </trkpt>
      <trkpt lat="43.2104" lon="-1.13762">
        <ele>264.98</ele>
        <time>2021-08-20T15:22:57Z</time>
      </trkpt>
      <trkpt lat="43.2102" lon="-1.13767">
        <ele>264.02</ele>
        <time>2021-08-20T15:23:02Z</time>
      </trkpt>
      <trkpt lat="43.2101" lon="-1.13769">
        <ele>264.02</ele>
        <time>2021-08-20T15:23:04Z</time>
      </trkpt>
      <trkpt lat="43.20975" lon="-1.1378">
        <ele>263.06</ele>
        <time>2021-08-20T15:23:11Z</time>
      </trkpt>
      <trkpt lat="43.20933" lon="-1.13798">
        <ele>264.02</ele>
        <time>2021-08-20T15:23:21Z</time>
      </trkpt>
      <trkpt lat="43.20894" lon="-1.13812">
        <ele>264.98</ele>
        <time>2021-08-20T15:23:31Z</time>
      </trkpt>
      <trkpt lat="43.20863" lon="-1.13823">
        <ele>265.46</ele>
        <time>2021-08-20T15:23:39Z</time>
      </trkpt>
      <trkpt lat="43.20843" lon="-1.13833">
        <ele>265.46</ele>
        <time>2021-08-20T15:23:44Z</time>
      </trkpt>
      <trkpt lat="43.20839" lon="-1.13836">
        <ele>265.46</ele>
        <time>2021-08-20T15:23:45Z</time>
      </trkpt>
      <trkpt lat="43.20803" lon="-1.13866">
        <ele>265.46</ele>
        <time>2021-08-20T15:23:54Z</time>
      </trkpt>
      <trkpt lat="43.2076" lon="-1.13899">
        <ele>265.94</ele>
        <time>2021-08-20T15:24:04Z</time>
      </trkpt>
      <trkpt lat="43.20733" lon="-1.13917">
        <ele>267.86</ele>
        <time>2021-08-20T15:24:12Z</time>
      </trkpt>
      <trkpt lat="43.20713" lon="-1.13929">
        <ele>269.79</ele>
        <time>2021-08-20T15:24:20Z</time>
      </trkpt>
      <trkpt lat="43.20696" lon="-1.13935">
        <ele>271.71</ele>
        <time>2021-08-20T15:24:27Z</time>
      </trkpt>
      <trkpt lat="43.2067" lon="-1.13941">
        <ele>272.19</ele>
        <time>2021-08-20T15:24:36Z</time>
      </trkpt>
      <trkpt lat="43.20644" lon="-1.13946">
        <ele>270.75</ele>
        <time>2021-08-20T15:24:43Z</time>
      </trkpt>
      <trkpt lat="43.20615" lon="-1.13946">
        <ele>268.35</ele>
        <time>2021-08-20T15:24:48Z</time>
      </trkpt>
      <trkpt lat="43.20602" lon="-1.13947">
        <ele>268.35</ele>
        <time>2021-08-20T15:24:50Z</time>
      </trkpt>
      <trkpt lat="43.20551" lon="-1.1396">
        <ele>267.38</ele>
        <time>2021-08-20T15:24:58Z</time>
      </trkpt>
      <trkpt lat="43.20541" lon="-1.13964">
        <ele>268.35</ele>
        <time>2021-08-20T15:25:00Z</time>
      </trkpt>
      <trkpt lat="43.20521" lon="-1.13972">
        <ele>268.83</ele>
        <time>2021-08-20T15:25:04Z</time>
      </trkpt>
      <trkpt lat="43.20492" lon="-1.13982">
        <ele>267.38</ele>
        <time>2021-08-20T15:25:09Z</time>
      </trkpt>
      <trkpt lat="43.20442" lon="-1.14">
        <ele>264.02</ele>
        <time>2021-08-20T15:25:16Z</time>
      </trkpt>
      <trkpt lat="43.20433" lon="-1.14006">
        <ele>263.54</ele>
        <time>2021-08-20T15:25:17Z</time>
      </trkpt>
      <trkpt lat="43.20426" lon="-1.14013">
        <ele>262.58</ele>
        <time>2021-08-20T15:25:18Z</time>
      </trkpt>
      <trkpt lat="43.20419" lon="-1.14022">
        <ele>261.62</ele>
        <time>2021-08-20T15:25:19Z</time>
      </trkpt>
      <trkpt lat="43.20412" lon="-1.14031">
        <ele>260.65</ele>
        <time>2021-08-20T15:25:20Z</time>
      </trkpt>
      <trkpt lat="43.20406" lon="-1.14042">
        <ele>259.21</ele>
        <time>2021-08-20T15:25:21Z</time>
      </trkpt>
      <trkpt lat="43.20384" lon="-1.14078">
        <ele>255.37</ele>
        <time>2021-08-20T15:25:24Z</time>
      </trkpt>
      <trkpt lat="43.20377" lon="-1.14089">
        <ele>254.41</ele>
        <time>2021-08-20T15:25:25Z</time>
      </trkpt>
      <trkpt lat="43.20369" lon="-1.14097">
        <ele>253.44</ele>
        <time>2021-08-20T15:25:26Z</time>
      </trkpt>
      <trkpt lat="43.20361" lon="-1.14104">
        <ele>252.96</ele>
        <time>2021-08-20T15:25:27Z</time>
      </trkpt>
      <trkpt lat="43.20352" lon="-1.1411">
        <ele>252</ele>
        <time>2021-08-20T15:25:28Z</time>
      </trkpt>
      <trkpt lat="43.20344" lon="-1.14114">
        <ele>252</ele>
        <time>2021-08-20T15:25:29Z</time>
      </trkpt>
      <trkpt lat="43.20337" lon="-1.14119">
        <ele>251.52</ele>
        <time>2021-08-20T15:25:30Z</time>
      </trkpt>
      <trkpt lat="43.20331" lon="-1.14124">
        <ele>251.04</ele>
        <time>2021-08-20T15:25:31Z</time>
      </trkpt>
      <trkpt lat="43.20327" lon="-1.1413">
        <ele>250.56</ele>
        <time>2021-08-20T15:25:32Z</time>
      </trkpt>
      <trkpt lat="43.20324" lon="-1.14137">
        <ele>250.56</ele>
        <time>2021-08-20T15:25:33Z</time>
      </trkpt>
      <trkpt lat="43.20321" lon="-1.14142">
        <ele>249.6</ele>
        <time>2021-08-20T15:25:34Z</time>
      </trkpt>
      <trkpt lat="43.2032" lon="-1.14148">
        <ele>249.12</ele>
        <time>2021-08-20T15:25:35Z</time>
      </trkpt>
      <trkpt lat="43.20319" lon="-1.14151">
        <ele>249.12</ele>
        <time>2021-08-20T15:25:36Z</time>
      </trkpt>
      <trkpt lat="43.20316" lon="-1.14158">
        <ele>248.16</ele>
        <time>2021-08-20T15:25:39Z</time>
      </trkpt>
      <trkpt lat="43.20314" lon="-1.14157">
        <ele>248.16</ele>
        <time>2021-08-20T15:25:40Z</time>
      </trkpt>
      <trkpt lat="43.20312" lon="-1.14154">
        <ele>247.68</ele>
        <time>2021-08-20T15:25:41Z</time>
      </trkpt>
      <trkpt lat="43.20312" lon="-1.14152">
        <ele>247.68</ele>
        <time>2021-08-20T15:25:42Z</time>
      </trkpt>
      <trkpt lat="43.20312" lon="-1.14148">
        <ele>247.68</ele>
        <time>2021-08-20T15:25:43Z</time>
      </trkpt>
      <trkpt lat="43.20312" lon="-1.14146">
        <ele>247.68</ele>
        <time>2021-08-20T15:25:44Z</time>
      </trkpt>
      <trkpt lat="43.20314" lon="-1.14129">
        <ele>247.68</ele>
        <time>2021-08-20T15:25:48Z</time>
      </trkpt>
      <trkpt lat="43.20315" lon="-1.14123">
        <ele>246.72</ele>
        <time>2021-08-20T15:25:49Z</time>
      </trkpt>
      <trkpt lat="43.20315" lon="-1.14115">
        <ele>246.23</ele>
        <time>2021-08-20T15:25:50Z</time>
      </trkpt>
      <trkpt lat="43.20315" lon="-1.14107">
        <ele>245.27</ele>
        <time>2021-08-20T15:25:51Z</time>
      </trkpt>
      <trkpt lat="43.20314" lon="-1.141">
        <ele>244.31</ele>
        <time>2021-08-20T15:25:52Z</time>
      </trkpt>
      <trkpt lat="43.20312" lon="-1.14093">
        <ele>243.83</ele>
        <time>2021-08-20T15:25:53Z</time>
      </trkpt>
      <trkpt lat="43.20309" lon="-1.14088">
        <ele>243.35</ele>
        <time>2021-08-20T15:25:54Z</time>
      </trkpt>
      <trkpt lat="43.20304" lon="-1.14086">
        <ele>241.91</ele>
        <time>2021-08-20T15:25:55Z</time>
      </trkpt>
      <trkpt lat="43.20298" lon="-1.14087">
        <ele>240.47</ele>
        <time>2021-08-20T15:25:56Z</time>
      </trkpt>
      <trkpt lat="43.20293" lon="-1.14091">
        <ele>239.51</ele>
        <time>2021-08-20T15:25:57Z</time>
      </trkpt>
      <trkpt lat="43.20289" lon="-1.14096">
        <ele>238.54</ele>
        <time>2021-08-20T15:25:58Z</time>
      </trkpt>
      <trkpt lat="43.20284" lon="-1.14105">
        <ele>237.58</ele>
        <time>2021-08-20T15:25:59Z</time>
      </trkpt>
      <trkpt lat="43.2028" lon="-1.14114">
        <ele>236.14</ele>
        <time>2021-08-20T15:26:00Z</time>
      </trkpt>
      <trkpt lat="43.20276" lon="-1.14124">
        <ele>235.66</ele>
        <time>2021-08-20T15:26:01Z</time>
      </trkpt>
      <trkpt lat="43.20267" lon="-1.14144">
        <ele>234.7</ele>
        <time>2021-08-20T15:26:03Z</time>
      </trkpt>
      <trkpt lat="43.20261" lon="-1.14153">
        <ele>234.7</ele>
        <time>2021-08-20T15:26:04Z</time>
      </trkpt>
      <trkpt lat="43.20256" lon="-1.1416">
        <ele>234.7</ele>
        <time>2021-08-20T15:26:05Z</time>
      </trkpt>
      <trkpt lat="43.2024" lon="-1.14176">
        <ele>234.22</ele>
        <time>2021-08-20T15:26:08Z</time>
      </trkpt>
      <trkpt lat="43.20197" lon="-1.14213">
        <ele>232.3</ele>
        <time>2021-08-20T15:26:15Z</time>
      </trkpt>
      <trkpt lat="43.20184" lon="-1.14222">
        <ele>231.81</ele>
        <time>2021-08-20T15:26:17Z</time>
      </trkpt>
      <trkpt lat="43.20172" lon="-1.14229">
        <ele>230.37</ele>
        <time>2021-08-20T15:26:19Z</time>
      </trkpt>
      <trkpt lat="43.20168" lon="-1.14233">
        <ele>230.37</ele>
        <time>2021-08-20T15:26:20Z</time>
      </trkpt>
      <trkpt lat="43.20165" lon="-1.14239">
        <ele>229.89</ele>
        <time>2021-08-20T15:26:21Z</time>
      </trkpt>
      <trkpt lat="43.20164" lon="-1.14244">
        <ele>230.37</ele>
        <time>2021-08-20T15:26:22Z</time>
      </trkpt>
      <trkpt lat="43.20164" lon="-1.14249">
        <ele>230.37</ele>
        <time>2021-08-20T15:26:23Z</time>
      </trkpt>
      <trkpt lat="43.20165" lon="-1.14254">
        <ele>230.37</ele>
        <time>2021-08-20T15:26:24Z</time>
      </trkpt>
      <trkpt lat="43.20166" lon="-1.14259">
        <ele>230.37</ele>
        <time>2021-08-20T15:26:25Z</time>
      </trkpt>
      <trkpt lat="43.20177" lon="-1.14284">
        <ele>233.26</ele>
        <time>2021-08-20T15:26:33Z</time>
      </trkpt>
      <trkpt lat="43.20192" lon="-1.14306">
        <ele>235.18</ele>
        <time>2021-08-20T15:26:44Z</time>
      </trkpt>
      <trkpt lat="43.20196" lon="-1.1432">
        <ele>236.14</ele>
        <time>2021-08-20T15:26:50Z</time>
      </trkpt>
      <trkpt lat="43.20195" lon="-1.14323">
        <ele>236.14</ele>
        <time>2021-08-20T15:26:51Z</time>
      </trkpt>
      <trkpt lat="43.20187" lon="-1.1434">
        <ele>236.62</ele>
        <time>2021-08-20T15:26:58Z</time>
      </trkpt>
      <trkpt lat="43.20164" lon="-1.14368">
        <ele>237.58</ele>
        <time>2021-08-20T15:27:08Z</time>
      </trkpt>
      <trkpt lat="43.20149" lon="-1.1438">
        <ele>238.06</ele>
        <time>2021-08-20T15:27:15Z</time>
      </trkpt>
      <trkpt lat="43.20122" lon="-1.14389">
        <ele>239.02</ele>
        <time>2021-08-20T15:27:26Z</time>
      </trkpt>
      <trkpt lat="43.20103" lon="-1.14396">
        <ele>239.99</ele>
        <time>2021-08-20T15:27:33Z</time>
      </trkpt>
      <trkpt lat="43.20077" lon="-1.14415">
        <ele>240.95</ele>
        <time>2021-08-20T15:27:43Z</time>
      </trkpt>
      <trkpt lat="43.2006" lon="-1.14435">
        <ele>240.95</ele>
        <time>2021-08-20T15:27:48Z</time>
      </trkpt>
      <trkpt lat="43.20053" lon="-1.14446">
        <ele>239.02</ele>
        <time>2021-08-20T15:27:50Z</time>
      </trkpt>
      <trkpt lat="43.20019" lon="-1.14489">
        <ele>237.1</ele>
        <time>2021-08-20T15:27:57Z</time>
      </trkpt>
      <trkpt lat="43.20011" lon="-1.14502">
        <ele>237.1</ele>
        <time>2021-08-20T15:27:59Z</time>
      </trkpt>
      <trkpt lat="43.20008" lon="-1.14508">
        <ele>237.1</ele>
        <time>2021-08-20T15:28:00Z</time>
      </trkpt>
      <trkpt lat="43.19998" lon="-1.14534">
        <ele>239.51</ele>
        <time>2021-08-20T15:28:05Z</time>
      </trkpt>
      <trkpt lat="43.19993" lon="-1.14566">
        <ele>240.47</ele>
        <time>2021-08-20T15:28:12Z</time>
      </trkpt>
      <trkpt lat="43.19986" lon="-1.14604">
        <ele>241.91</ele>
        <time>2021-08-20T15:28:20Z</time>
      </trkpt>
      <trkpt lat="43.19977" lon="-1.14638">
        <ele>242.87</ele>
        <time>2021-08-20T15:28:28Z</time>
      </trkpt>
      <trkpt lat="43.19961" lon="-1.14669">
        <ele>243.35</ele>
        <time>2021-08-20T15:28:35Z</time>
      </trkpt>
      <trkpt lat="43.19952" lon="-1.14688">
        <ele>243.83</ele>
        <time>2021-08-20T15:28:39Z</time>
      </trkpt>
      <trkpt lat="43.19924" lon="-1.14736">
        <ele>244.31</ele>
        <time>2021-08-20T15:28:50Z</time>
      </trkpt>
      <trkpt lat="43.19916" lon="-1.1475">
        <ele>244.31</ele>
        <time>2021-08-20T15:28:53Z</time>
      </trkpt>
      <trkpt lat="43.19914" lon="-1.14756">
        <ele>244.31</ele>
        <time>2021-08-20T15:28:54Z</time>
      </trkpt>
      <trkpt lat="43.19904" lon="-1.14782">
        <ele>242.87</ele>
        <time>2021-08-20T15:28:58Z</time>
      </trkpt>
      <trkpt lat="43.19888" lon="-1.14844">
        <ele>241.43</ele>
        <time>2021-08-20T15:29:05Z</time>
      </trkpt>
      <trkpt lat="43.19881" lon="-1.14894">
        <ele>239.99</ele>
        <time>2021-08-20T15:29:10Z</time>
      </trkpt>
      <trkpt lat="43.19879" lon="-1.14904">
        <ele>239.99</ele>
        <time>2021-08-20T15:29:11Z</time>
      </trkpt>
      <trkpt lat="43.1985" lon="-1.14983">
        <ele>239.51</ele>
        <time>2021-08-20T15:29:20Z</time>
      </trkpt>
      <trkpt lat="43.19847" lon="-1.14993">
        <ele>238.54</ele>
        <time>2021-08-20T15:29:21Z</time>
      </trkpt>
      <trkpt lat="43.19846" lon="-1.15002">
        <ele>238.54</ele>
        <time>2021-08-20T15:29:22Z</time>
      </trkpt>
      <trkpt lat="43.19845" lon="-1.15011">
        <ele>238.54</ele>
        <time>2021-08-20T15:29:23Z</time>
      </trkpt>
      <trkpt lat="43.19845" lon="-1.15022">
        <ele>238.54</ele>
        <time>2021-08-20T15:29:24Z</time>
      </trkpt>
      <trkpt lat="43.19845" lon="-1.15031">
        <ele>237.58</ele>
        <time>2021-08-20T15:29:25Z</time>
      </trkpt>
      <trkpt lat="43.19845" lon="-1.15041">
        <ele>237.58</ele>
        <time>2021-08-20T15:29:26Z</time>
      </trkpt>
      <trkpt lat="43.19846" lon="-1.1506">
        <ele>237.1</ele>
        <time>2021-08-20T15:29:28Z</time>
      </trkpt>
      <trkpt lat="43.19848" lon="-1.15069">
        <ele>237.1</ele>
        <time>2021-08-20T15:29:29Z</time>
      </trkpt>
      <trkpt lat="43.19856" lon="-1.15096">
        <ele>237.1</ele>
        <time>2021-08-20T15:29:32Z</time>
      </trkpt>
      <trkpt lat="43.19867" lon="-1.15126">
        <ele>237.1</ele>
        <time>2021-08-20T15:29:37Z</time>
      </trkpt>
      <trkpt lat="43.19869" lon="-1.15129">
        <ele>237.1</ele>
        <time>2021-08-20T15:29:41Z</time>
      </trkpt>
      <trkpt lat="43.19869" lon="-1.15129">
        <ele>237.1</ele>
        <time>2021-08-20T15:29:53Z</time>
      </trkpt>
      <trkpt lat="43.1987" lon="-1.15129">
        <ele>237.1</ele>
        <time>2021-08-20T15:29:58Z</time>
      </trkpt>
      <trkpt lat="43.1987" lon="-1.15131">
        <ele>237.1</ele>
        <time>2021-08-20T15:29:59Z</time>
      </trkpt>
      <trkpt lat="43.19871" lon="-1.15134">
        <ele>237.1</ele>
        <time>2021-08-20T15:30:00Z</time>
      </trkpt>
      <trkpt lat="43.19872" lon="-1.15138">
        <ele>237.1</ele>
        <time>2021-08-20T15:30:01Z</time>
      </trkpt>
      <trkpt lat="43.19872" lon="-1.15143">
        <ele>237.1</ele>
        <time>2021-08-20T15:30:02Z</time>
      </trkpt>
      <trkpt lat="43.1987" lon="-1.15148">
        <ele>237.58</ele>
        <time>2021-08-20T15:30:03Z</time>
      </trkpt>
      <trkpt lat="43.19869" lon="-1.15151">
        <ele>237.1</ele>
        <time>2021-08-20T15:30:04Z</time>
      </trkpt>
      <trkpt lat="43.19866" lon="-1.15155">
        <ele>237.1</ele>
        <time>2021-08-20T15:30:05Z</time>
      </trkpt>
      <trkpt lat="43.19855" lon="-1.15173">
        <ele>237.58</ele>
        <time>2021-08-20T15:30:09Z</time>
      </trkpt>
      <trkpt lat="43.19832" lon="-1.15219">
        <ele>237.1</ele>
        <time>2021-08-20T15:30:17Z</time>
      </trkpt>
      <trkpt lat="43.19819" lon="-1.15261">
        <ele>236.62</ele>
        <time>2021-08-20T15:30:25Z</time>
      </trkpt>
      <trkpt lat="43.19807" lon="-1.15289">
        <ele>236.14</ele>
        <time>2021-08-20T15:30:32Z</time>
      </trkpt>
      <trkpt lat="43.19805" lon="-1.15295">
        <ele>236.14</ele>
        <time>2021-08-20T15:30:33Z</time>
      </trkpt>
      <trkpt lat="43.19804" lon="-1.15301">
        <ele>236.14</ele>
        <time>2021-08-20T15:30:34Z</time>
      </trkpt>
      <trkpt lat="43.19793" lon="-1.15361">
        <ele>235.18</ele>
        <time>2021-08-20T15:30:42Z</time>
      </trkpt>
      <trkpt lat="43.19789" lon="-1.15374">
        <ele>235.18</ele>
        <time>2021-08-20T15:30:44Z</time>
      </trkpt>
      <trkpt lat="43.19785" lon="-1.15378">
        <ele>234.7</ele>
        <time>2021-08-20T15:30:45Z</time>
      </trkpt>
      <trkpt lat="43.19781" lon="-1.15379">
        <ele>234.7</ele>
        <time>2021-08-20T15:30:46Z</time>
      </trkpt>
      <trkpt lat="43.19777" lon="-1.15378">
        <ele>234.22</ele>
        <time>2021-08-20T15:30:47Z</time>
      </trkpt>
      <trkpt lat="43.19772" lon="-1.15377">
        <ele>234.22</ele>
        <time>2021-08-20T15:30:48Z</time>
      </trkpt>
      <trkpt lat="43.19767" lon="-1.15375">
        <ele>233.74</ele>
        <time>2021-08-20T15:30:49Z</time>
      </trkpt>
      <trkpt lat="43.19762" lon="-1.15372">
        <ele>233.26</ele>
        <time>2021-08-20T15:30:50Z</time>
      </trkpt>
      <trkpt lat="43.1975" lon="-1.15366">
        <ele>231.81</ele>
        <time>2021-08-20T15:30:52Z</time>
      </trkpt>
      <trkpt lat="43.19735" lon="-1.15357">
        <ele>229.41</ele>
        <time>2021-08-20T15:30:54Z</time>
      </trkpt>
      <trkpt lat="43.19728" lon="-1.15351">
        <ele>228.45</ele>
        <time>2021-08-20T15:30:55Z</time>
      </trkpt>
      <trkpt lat="43.19721" lon="-1.15342">
        <ele>227.97</ele>
        <time>2021-08-20T15:30:56Z</time>
      </trkpt>
      <trkpt lat="43.19715" lon="-1.15332">
        <ele>226.53</ele>
        <time>2021-08-20T15:30:57Z</time>
      </trkpt>
      <trkpt lat="43.1971" lon="-1.15322">
        <ele>226.53</ele>
        <time>2021-08-20T15:30:58Z</time>
      </trkpt>
      <trkpt lat="43.19692" lon="-1.15275">
        <ele>224.12</ele>
        <time>2021-08-20T15:31:02Z</time>
      </trkpt>
      <trkpt lat="43.19675" lon="-1.15239">
        <ele>222.2</ele>
        <time>2021-08-20T15:31:05Z</time>
      </trkpt>
      <trkpt lat="43.19668" lon="-1.15229">
        <ele>221.72</ele>
        <time>2021-08-20T15:31:06Z</time>
      </trkpt>
      <trkpt lat="43.19659" lon="-1.15222">
        <ele>220.76</ele>
        <time>2021-08-20T15:31:07Z</time>
      </trkpt>
      <trkpt lat="43.19651" lon="-1.15215">
        <ele>221.24</ele>
        <time>2021-08-20T15:31:08Z</time>
      </trkpt>
      <trkpt lat="43.19642" lon="-1.15207">
        <ele>220.76</ele>
        <time>2021-08-20T15:31:09Z</time>
      </trkpt>
      <trkpt lat="43.19636" lon="-1.15199">
        <ele>220.76</ele>
        <time>2021-08-20T15:31:10Z</time>
      </trkpt>
      <trkpt lat="43.19629" lon="-1.15189">
        <ele>220.76</ele>
        <time>2021-08-20T15:31:11Z</time>
      </trkpt>
      <trkpt lat="43.19624" lon="-1.1518">
        <ele>220.76</ele>
        <time>2021-08-20T15:31:12Z</time>
      </trkpt>
      <trkpt lat="43.19597" lon="-1.15124">
        <ele>221.24</ele>
        <time>2021-08-20T15:31:18Z</time>
      </trkpt>
      <trkpt lat="43.1958" lon="-1.15093">
        <ele>220.76</ele>
        <time>2021-08-20T15:31:22Z</time>
      </trkpt>
      <trkpt lat="43.19574" lon="-1.15087">
        <ele>220.28</ele>
        <time>2021-08-20T15:31:23Z</time>
      </trkpt>
      <trkpt lat="43.19567" lon="-1.15081">
        <ele>220.28</ele>
        <time>2021-08-20T15:31:24Z</time>
      </trkpt>
      <trkpt lat="43.19561" lon="-1.15077">
        <ele>220.28</ele>
        <time>2021-08-20T15:31:25Z</time>
      </trkpt>
      <trkpt lat="43.19553" lon="-1.15074">
        <ele>220.28</ele>
        <time>2021-08-20T15:31:26Z</time>
      </trkpt>
      <trkpt lat="43.19546" lon="-1.15072">
        <ele>220.28</ele>
        <time>2021-08-20T15:31:27Z</time>
      </trkpt>
      <trkpt lat="43.19511" lon="-1.15062">
        <ele>221.72</ele>
        <time>2021-08-20T15:31:33Z</time>
      </trkpt>
      <trkpt lat="43.19498" lon="-1.1506">
        <ele>222.68</ele>
        <time>2021-08-20T15:31:36Z</time>
      </trkpt>
      <trkpt lat="43.19482" lon="-1.15055">
        <ele>223.64</ele>
        <time>2021-08-20T15:31:40Z</time>
      </trkpt>
      <trkpt lat="43.19466" lon="-1.15041">
        <ele>225.09</ele>
        <time>2021-08-20T15:31:46Z</time>
      </trkpt>
      <trkpt lat="43.19456" lon="-1.15027">
        <ele>226.05</ele>
        <time>2021-08-20T15:31:52Z</time>
      </trkpt>
      <trkpt lat="43.19445" lon="-1.15012">
        <ele>227.97</ele>
        <time>2021-08-20T15:32:00Z</time>
      </trkpt>
      <trkpt lat="43.1943" lon="-1.14996">
        <ele>229.41</ele>
        <time>2021-08-20T15:32:10Z</time>
      </trkpt>
      <trkpt lat="43.19418" lon="-1.14982">
        <ele>230.37</ele>
        <time>2021-08-20T15:32:19Z</time>
      </trkpt>
      <trkpt lat="43.19403" lon="-1.1497">
        <ele>232.3</ele>
        <time>2021-08-20T15:32:27Z</time>
      </trkpt>
      <trkpt lat="43.19387" lon="-1.14956">
        <ele>232.78</ele>
        <time>2021-08-20T15:32:35Z</time>
      </trkpt>
      <trkpt lat="43.19367" lon="-1.14941">
        <ele>233.26</ele>
        <time>2021-08-20T15:32:43Z</time>
      </trkpt>
      <trkpt lat="43.19358" lon="-1.14941">
        <ele>233.26</ele>
        <time>2021-08-20T15:32:46Z</time>
      </trkpt>
      <trkpt lat="43.19355" lon="-1.14944">
        <ele>233.26</ele>
        <time>2021-08-20T15:32:47Z</time>
      </trkpt>
      <trkpt lat="43.19335" lon="-1.14979">
        <ele>233.26</ele>
        <time>2021-08-20T15:32:55Z</time>
      </trkpt>
      <trkpt lat="43.19311" lon="-1.15027">
        <ele>233.26</ele>
        <time>2021-08-20T15:33:03Z</time>
      </trkpt>
      <trkpt lat="43.19282" lon="-1.15086">
        <ele>233.26</ele>
        <time>2021-08-20T15:33:13Z</time>
      </trkpt>
      <trkpt lat="43.19256" lon="-1.15136">
        <ele>231.33</ele>
        <time>2021-08-20T15:33:21Z</time>
      </trkpt>
      <trkpt lat="43.19225" lon="-1.15195">
        <ele>228.45</ele>
        <time>2021-08-20T15:33:28Z</time>
      </trkpt>
      <trkpt lat="43.19221" lon="-1.15205">
        <ele>227.97</ele>
        <time>2021-08-20T15:33:29Z</time>
      </trkpt>
      <trkpt lat="43.19219" lon="-1.15216">
        <ele>227.97</ele>
        <time>2021-08-20T15:33:30Z</time>
      </trkpt>
      <trkpt lat="43.19216" lon="-1.15227">
        <ele>227.97</ele>
        <time>2021-08-20T15:33:31Z</time>
      </trkpt>
      <trkpt lat="43.19212" lon="-1.15236">
        <ele>227.97</ele>
        <time>2021-08-20T15:33:32Z</time>
      </trkpt>
      <trkpt lat="43.19207" lon="-1.15244">
        <ele>227.97</ele>
        <time>2021-08-20T15:33:33Z</time>
      </trkpt>
      <trkpt lat="43.19201" lon="-1.15251">
        <ele>227.97</ele>
        <time>2021-08-20T15:33:34Z</time>
      </trkpt>
      <trkpt lat="43.19195" lon="-1.15257">
        <ele>227.49</ele>
        <time>2021-08-20T15:33:35Z</time>
      </trkpt>
      <trkpt lat="43.19166" lon="-1.15284">
        <ele>223.64</ele>
        <time>2021-08-20T15:33:39Z</time>
      </trkpt>
      <trkpt lat="43.19157" lon="-1.15288">
        <ele>222.68</ele>
        <time>2021-08-20T15:33:40Z</time>
      </trkpt>
      <trkpt lat="43.19146" lon="-1.15291">
        <ele>221.72</ele>
        <time>2021-08-20T15:33:41Z</time>
      </trkpt>
      <trkpt lat="43.19136" lon="-1.15292">
        <ele>220.76</ele>
        <time>2021-08-20T15:33:42Z</time>
      </trkpt>
      <trkpt lat="43.19126" lon="-1.15292">
        <ele>220.28</ele>
        <time>2021-08-20T15:33:43Z</time>
      </trkpt>
      <trkpt lat="43.19118" lon="-1.15293">
        <ele>220.28</ele>
        <time>2021-08-20T15:33:44Z</time>
      </trkpt>
      <trkpt lat="43.19111" lon="-1.15298">
        <ele>220.28</ele>
        <time>2021-08-20T15:33:45Z</time>
      </trkpt>
      <trkpt lat="43.19105" lon="-1.15305">
        <ele>220.28</ele>
        <time>2021-08-20T15:33:46Z</time>
      </trkpt>
      <trkpt lat="43.19101" lon="-1.15312">
        <ele>221.24</ele>
        <time>2021-08-20T15:33:47Z</time>
      </trkpt>
      <trkpt lat="43.19098" lon="-1.15319">
        <ele>222.2</ele>
        <time>2021-08-20T15:33:48Z</time>
      </trkpt>
      <trkpt lat="43.19096" lon="-1.15326">
        <ele>222.68</ele>
        <time>2021-08-20T15:33:49Z</time>
      </trkpt>
      <trkpt lat="43.19094" lon="-1.15331">
        <ele>224.12</ele>
        <time>2021-08-20T15:33:50Z</time>
      </trkpt>
      <trkpt lat="43.19092" lon="-1.15336">
        <ele>224.61</ele>
        <time>2021-08-20T15:33:51Z</time>
      </trkpt>
      <trkpt lat="43.19091" lon="-1.15341">
        <ele>224.61</ele>
        <time>2021-08-20T15:33:52Z</time>
      </trkpt>
      <trkpt lat="43.19088" lon="-1.15366">
        <ele>226.53</ele>
        <time>2021-08-20T15:33:58Z</time>
      </trkpt>
      <trkpt lat="43.19082" lon="-1.15396">
        <ele>227.49</ele>
        <time>2021-08-20T15:34:06Z</time>
      </trkpt>
      <trkpt lat="43.1907" lon="-1.15427">
        <ele>228.45</ele>
        <time>2021-08-20T15:34:14Z</time>
      </trkpt>
      <trkpt lat="43.19057" lon="-1.15448">
        <ele>229.41</ele>
        <time>2021-08-20T15:34:22Z</time>
      </trkpt>
      <trkpt lat="43.19057" lon="-1.15446">
        <ele>229.89</ele>
        <time>2021-08-20T15:34:29Z</time>
      </trkpt>
      <trkpt lat="43.19057" lon="-1.15444">
        <ele>229.89</ele>
        <time>2021-08-20T15:34:50Z</time>
      </trkpt>
      <trkpt lat="43.19051" lon="-1.15451">
        <ele>229.89</ele>
        <time>2021-08-20T15:34:59Z</time>
      </trkpt>
      <trkpt lat="43.19028" lon="-1.15466">
        <ele>231.33</ele>
        <time>2021-08-20T15:35:07Z</time>
      </trkpt>
      <trkpt lat="43.19002" lon="-1.15493">
        <ele>229.89</ele>
        <time>2021-08-20T15:35:16Z</time>
      </trkpt>
      <trkpt lat="43.18998" lon="-1.15498">
        <ele>229.41</ele>
        <time>2021-08-20T15:35:17Z</time>
      </trkpt>
      <trkpt lat="43.18978" lon="-1.15521">
        <ele>225.57</ele>
        <time>2021-08-20T15:35:21Z</time>
      </trkpt>
      <trkpt lat="43.18958" lon="-1.15544">
        <ele>222.2</ele>
        <time>2021-08-20T15:35:24Z</time>
      </trkpt>
      <trkpt lat="43.18941" lon="-1.15558">
        <ele>221.72</ele>
        <time>2021-08-20T15:35:26Z</time>
      </trkpt>
      <trkpt lat="43.18932" lon="-1.15563">
        <ele>221.24</ele>
        <time>2021-08-20T15:35:27Z</time>
      </trkpt>
      <trkpt lat="43.18923" lon="-1.15565">
        <ele>220.76</ele>
        <time>2021-08-20T15:35:28Z</time>
      </trkpt>
      <trkpt lat="43.18914" lon="-1.15563">
        <ele>221.24</ele>
        <time>2021-08-20T15:35:29Z</time>
      </trkpt>
      <trkpt lat="43.18906" lon="-1.1556">
        <ele>220.76</ele>
        <time>2021-08-20T15:35:30Z</time>
      </trkpt>
      <trkpt lat="43.18899" lon="-1.15554">
        <ele>220.76</ele>
        <time>2021-08-20T15:35:31Z</time>
      </trkpt>
      <trkpt lat="43.18893" lon="-1.15548">
        <ele>219.8</ele>
        <time>2021-08-20T15:35:32Z</time>
      </trkpt>
      <trkpt lat="43.18886" lon="-1.15545">
        <ele>218.84</ele>
        <time>2021-08-20T15:35:33Z</time>
      </trkpt>
      <trkpt lat="43.18878" lon="-1.15545">
        <ele>218.84</ele>
        <time>2021-08-20T15:35:34Z</time>
      </trkpt>
      <trkpt lat="43.18873" lon="-1.15549">
        <ele>218.84</ele>
        <time>2021-08-20T15:35:35Z</time>
      </trkpt>
      <trkpt lat="43.18869" lon="-1.15554">
        <ele>218.84</ele>
        <time>2021-08-20T15:35:36Z</time>
      </trkpt>
      <trkpt lat="43.18867" lon="-1.15558">
        <ele>220.28</ele>
        <time>2021-08-20T15:35:37Z</time>
      </trkpt>
      <trkpt lat="43.18865" lon="-1.15563">
        <ele>220.76</ele>
        <time>2021-08-20T15:35:38Z</time>
      </trkpt>
      <trkpt lat="43.18864" lon="-1.15566">
        <ele>220.76</ele>
        <time>2021-08-20T15:35:39Z</time>
      </trkpt>
      <trkpt lat="43.18854" lon="-1.15595">
        <ele>222.68</ele>
        <time>2021-08-20T15:35:48Z</time>
      </trkpt>
      <trkpt lat="43.18846" lon="-1.15608">
        <ele>224.12</ele>
        <time>2021-08-20T15:35:53Z</time>
      </trkpt>
      <trkpt lat="43.1884" lon="-1.15627">
        <ele>225.57</ele>
        <time>2021-08-20T15:35:59Z</time>
      </trkpt>
      <trkpt lat="43.18829" lon="-1.15653">
        <ele>225.57</ele>
        <time>2021-08-20T15:36:07Z</time>
      </trkpt>
      <trkpt lat="43.18817" lon="-1.15683">
        <ele>224.12</ele>
        <time>2021-08-20T15:36:14Z</time>
      </trkpt>
      <trkpt lat="43.18802" lon="-1.15717">
        <ele>222.68</ele>
        <time>2021-08-20T15:36:21Z</time>
      </trkpt>
      <trkpt lat="43.18788" lon="-1.1576">
        <ele>221.24</ele>
        <time>2021-08-20T15:36:27Z</time>
      </trkpt>
      <trkpt lat="43.18754" lon="-1.1582">
        <ele>219.32</ele>
        <time>2021-08-20T15:36:35Z</time>
      </trkpt>
      <trkpt lat="43.18751" lon="-1.15828">
        <ele>218.84</ele>
        <time>2021-08-20T15:36:36Z</time>
      </trkpt>
      <trkpt lat="43.18748" lon="-1.15838">
        <ele>217.88</ele>
        <time>2021-08-20T15:36:37Z</time>
      </trkpt>
      <trkpt lat="43.18746" lon="-1.15849">
        <ele>217.88</ele>
        <time>2021-08-20T15:36:38Z</time>
      </trkpt>
      <trkpt lat="43.18743" lon="-1.15859">
        <ele>216.91</ele>
        <time>2021-08-20T15:36:39Z</time>
      </trkpt>
      <trkpt lat="43.1874" lon="-1.1588">
        <ele>216.43</ele>
        <time>2021-08-20T15:36:41Z</time>
      </trkpt>
      <trkpt lat="43.18734" lon="-1.15905">
        <ele>215.95</ele>
        <time>2021-08-20T15:36:44Z</time>
      </trkpt>
      <trkpt lat="43.18731" lon="-1.1591">
        <ele>215.47</ele>
        <time>2021-08-20T15:36:45Z</time>
      </trkpt>
      <trkpt lat="43.18727" lon="-1.15912">
        <ele>215.47</ele>
        <time>2021-08-20T15:36:46Z</time>
      </trkpt>
      <trkpt lat="43.18722" lon="-1.15913">
        <ele>215.47</ele>
        <time>2021-08-20T15:36:47Z</time>
      </trkpt>
      <trkpt lat="43.18719" lon="-1.15912">
        <ele>215.47</ele>
        <time>2021-08-20T15:36:48Z</time>
      </trkpt>
      <trkpt lat="43.18717" lon="-1.15912">
        <ele>215.47</ele>
        <time>2021-08-20T15:36:49Z</time>
      </trkpt>
      <trkpt lat="43.18715" lon="-1.15911">
        <ele>215.47</ele>
        <time>2021-08-20T15:36:50Z</time>
      </trkpt>
      <trkpt lat="43.18693" lon="-1.15903">
        <ele>216.43</ele>
        <time>2021-08-20T15:36:57Z</time>
      </trkpt>
      <trkpt lat="43.18681" lon="-1.15898">
        <ele>216.43</ele>
        <time>2021-08-20T15:37:00Z</time>
      </trkpt>
      <trkpt lat="43.18677" lon="-1.15897">
        <ele>216.43</ele>
        <time>2021-08-20T15:37:01Z</time>
      </trkpt>
      <trkpt lat="43.18668" lon="-1.15895">
        <ele>216.43</ele>
        <time>2021-08-20T15:37:03Z</time>
      </trkpt>
      <trkpt lat="43.18663" lon="-1.15895">
        <ele>216.43</ele>
        <time>2021-08-20T15:37:04Z</time>
      </trkpt>
      <trkpt lat="43.18659" lon="-1.15897">
        <ele>216.43</ele>
        <time>2021-08-20T15:37:05Z</time>
      </trkpt>
      <trkpt lat="43.1865" lon="-1.159">
        <ele>216.43</ele>
        <time>2021-08-20T15:37:07Z</time>
      </trkpt>
      <trkpt lat="43.18646" lon="-1.15904">
        <ele>216.43</ele>
        <time>2021-08-20T15:37:08Z</time>
      </trkpt>
      <trkpt lat="43.18642" lon="-1.15907">
        <ele>216.43</ele>
        <time>2021-08-20T15:37:09Z</time>
      </trkpt>
      <trkpt lat="43.18635" lon="-1.15915">
        <ele>216.43</ele>
        <time>2021-08-20T15:37:11Z</time>
      </trkpt>
      <trkpt lat="43.18632" lon="-1.15919">
        <ele>216.43</ele>
        <time>2021-08-20T15:37:12Z</time>
      </trkpt>
      <trkpt lat="43.18629" lon="-1.15924">
        <ele>216.43</ele>
        <time>2021-08-20T15:37:13Z</time>
      </trkpt>
      <trkpt lat="43.18621" lon="-1.15939">
        <ele>216.43</ele>
        <time>2021-08-20T15:37:16Z</time>
      </trkpt>
      <trkpt lat="43.1861" lon="-1.15968">
        <ele>217.88</ele>
        <time>2021-08-20T15:37:22Z</time>
      </trkpt>
      <trkpt lat="43.18607" lon="-1.15971">
        <ele>218.36</ele>
        <time>2021-08-20T15:37:23Z</time>
      </trkpt>
      <trkpt lat="43.18604" lon="-1.15972">
        <ele>218.36</ele>
        <time>2021-08-20T15:37:24Z</time>
      </trkpt>
      <trkpt lat="43.18601" lon="-1.15971">
        <ele>218.36</ele>
        <time>2021-08-20T15:37:25Z</time>
      </trkpt>
      <trkpt lat="43.18598" lon="-1.15971">
        <ele>218.84</ele>
        <time>2021-08-20T15:37:26Z</time>
      </trkpt>
      <trkpt lat="43.18579" lon="-1.15965">
        <ele>220.28</ele>
        <time>2021-08-20T15:37:35Z</time>
      </trkpt>
      <trkpt lat="43.18566" lon="-1.15959">
        <ele>222.2</ele>
        <time>2021-08-20T15:37:43Z</time>
      </trkpt>
      <trkpt lat="43.18549" lon="-1.1595">
        <ele>223.64</ele>
        <time>2021-08-20T15:37:54Z</time>
      </trkpt>
      <trkpt lat="43.18537" lon="-1.15946">
        <ele>225.57</ele>
        <time>2021-08-20T15:38:02Z</time>
      </trkpt>
      <trkpt lat="43.18521" lon="-1.15951">
        <ele>227.01</ele>
        <time>2021-08-20T15:38:12Z</time>
      </trkpt>
      <trkpt lat="43.1852" lon="-1.15952">
        <ele>227.49</ele>
        <time>2021-08-20T15:38:13Z</time>
      </trkpt>
      <trkpt lat="43.18506" lon="-1.1596">
        <ele>227.97</ele>
        <time>2021-08-20T15:38:21Z</time>
      </trkpt>
      <trkpt lat="43.18488" lon="-1.15971">
        <ele>228.45</ele>
        <time>2021-08-20T15:38:29Z</time>
      </trkpt>
      <trkpt lat="43.18475" lon="-1.15991">
        <ele>228.93</ele>
        <time>2021-08-20T15:38:37Z</time>
      </trkpt>
      <trkpt lat="43.18476" lon="-1.16006">
        <ele>229.89</ele>
        <time>2021-08-20T15:38:43Z</time>
      </trkpt>
      <trkpt lat="43.1848" lon="-1.16017">
        <ele>231.33</ele>
        <time>2021-08-20T15:38:51Z</time>
      </trkpt>
      <trkpt lat="43.18483" lon="-1.16032">
        <ele>232.78</ele>
        <time>2021-08-20T15:39:01Z</time>
      </trkpt>
      <trkpt lat="43.18483" lon="-1.16037">
        <ele>232.78</ele>
        <time>2021-08-20T15:39:05Z</time>
      </trkpt>
      <trkpt lat="43.18481" lon="-1.16056">
        <ele>233.26</ele>
        <time>2021-08-20T15:39:13Z</time>
      </trkpt>
      <trkpt lat="43.18477" lon="-1.16072">
        <ele>233.26</ele>
        <time>2021-08-20T15:39:20Z</time>
      </trkpt>
      <trkpt lat="43.18471" lon="-1.16096">
        <ele>233.26</ele>
        <time>2021-08-20T15:39:27Z</time>
      </trkpt>
      <trkpt lat="43.18465" lon="-1.16127">
        <ele>233.26</ele>
        <time>2021-08-20T15:39:34Z</time>
      </trkpt>
      <trkpt lat="43.18456" lon="-1.16154">
        <ele>233.26</ele>
        <time>2021-08-20T15:39:41Z</time>
      </trkpt>
      <trkpt lat="43.18446" lon="-1.16177">
        <ele>234.22</ele>
        <time>2021-08-20T15:39:48Z</time>
      </trkpt>
      <trkpt lat="43.1844" lon="-1.16201">
        <ele>235.66</ele>
        <time>2021-08-20T15:39:56Z</time>
      </trkpt>
      <trkpt lat="43.18433" lon="-1.1622">
        <ele>236.62</ele>
        <time>2021-08-20T15:40:02Z</time>
      </trkpt>
      <trkpt lat="43.18415" lon="-1.16252">
        <ele>238.06</ele>
        <time>2021-08-20T15:40:13Z</time>
      </trkpt>
      <trkpt lat="43.18398" lon="-1.16269">
        <ele>239.51</ele>
        <time>2021-08-20T15:40:21Z</time>
      </trkpt>
      <trkpt lat="43.18384" lon="-1.1629">
        <ele>239.99</ele>
        <time>2021-08-20T15:40:28Z</time>
      </trkpt>
      <trkpt lat="43.18374" lon="-1.16304">
        <ele>238.06</ele>
        <time>2021-08-20T15:40:31Z</time>
      </trkpt>
      <trkpt lat="43.18368" lon="-1.16315">
        <ele>237.58</ele>
        <time>2021-08-20T15:40:33Z</time>
      </trkpt>
      <trkpt lat="43.18366" lon="-1.16321">
        <ele>237.58</ele>
        <time>2021-08-20T15:40:34Z</time>
      </trkpt>
      <trkpt lat="43.18366" lon="-1.16327">
        <ele>237.58</ele>
        <time>2021-08-20T15:40:35Z</time>
      </trkpt>
      <trkpt lat="43.18365" lon="-1.16333">
        <ele>237.58</ele>
        <time>2021-08-20T15:40:36Z</time>
      </trkpt>
      <trkpt lat="43.18365" lon="-1.16337">
        <ele>237.58</ele>
        <time>2021-08-20T15:40:37Z</time>
      </trkpt>
      <trkpt lat="43.18366" lon="-1.16342">
        <ele>237.58</ele>
        <time>2021-08-20T15:40:38Z</time>
      </trkpt>
      <trkpt lat="43.18366" lon="-1.16346">
        <ele>237.58</ele>
        <time>2021-08-20T15:40:39Z</time>
      </trkpt>
      <trkpt lat="43.18367" lon="-1.16377">
        <ele>237.1</ele>
        <time>2021-08-20T15:40:46Z</time>
      </trkpt>
      <trkpt lat="43.18365" lon="-1.164">
        <ele>236.14</ele>
        <time>2021-08-20T15:40:50Z</time>
      </trkpt>
      <trkpt lat="43.18357" lon="-1.1645">
        <ele>232.78</ele>
        <time>2021-08-20T15:40:56Z</time>
      </trkpt>
      <trkpt lat="43.18344" lon="-1.16516">
        <ele>229.89</ele>
        <time>2021-08-20T15:41:02Z</time>
      </trkpt>
      <trkpt lat="43.18344" lon="-1.16528">
        <ele>229.41</ele>
        <time>2021-08-20T15:41:03Z</time>
      </trkpt>
      <trkpt lat="43.18344" lon="-1.16541">
        <ele>229.41</ele>
        <time>2021-08-20T15:41:04Z</time>
      </trkpt>
      <trkpt lat="43.18343" lon="-1.16579">
        <ele>227.49</ele>
        <time>2021-08-20T15:41:07Z</time>
      </trkpt>
      <trkpt lat="43.18341" lon="-1.16591">
        <ele>226.05</ele>
        <time>2021-08-20T15:41:08Z</time>
      </trkpt>
      <trkpt lat="43.18336" lon="-1.16604">
        <ele>225.57</ele>
        <time>2021-08-20T15:41:09Z</time>
      </trkpt>
      <trkpt lat="43.18321" lon="-1.16642">
        <ele>223.64</ele>
        <time>2021-08-20T15:41:12Z</time>
      </trkpt>
      <trkpt lat="43.18313" lon="-1.16669">
        <ele>222.2</ele>
        <time>2021-08-20T15:41:14Z</time>
      </trkpt>
      <trkpt lat="43.18312" lon="-1.16683">
        <ele>222.2</ele>
        <time>2021-08-20T15:41:15Z</time>
      </trkpt>
      <trkpt lat="43.18311" lon="-1.16696">
        <ele>222.2</ele>
        <time>2021-08-20T15:41:16Z</time>
      </trkpt>
      <trkpt lat="43.18309" lon="-1.16733">
        <ele>221.72</ele>
        <time>2021-08-20T15:41:19Z</time>
      </trkpt>
      <trkpt lat="43.18306" lon="-1.16745">
        <ele>221.24</ele>
        <time>2021-08-20T15:41:20Z</time>
      </trkpt>
      <trkpt lat="43.18303" lon="-1.16756">
        <ele>221.24</ele>
        <time>2021-08-20T15:41:21Z</time>
      </trkpt>
      <trkpt lat="43.183" lon="-1.16766">
        <ele>220.28</ele>
        <time>2021-08-20T15:41:22Z</time>
      </trkpt>
      <trkpt lat="43.18298" lon="-1.16775">
        <ele>220.28</ele>
        <time>2021-08-20T15:41:23Z</time>
      </trkpt>
      <trkpt lat="43.183" lon="-1.16783">
        <ele>219.8</ele>
        <time>2021-08-20T15:41:24Z</time>
      </trkpt>
      <trkpt lat="43.18303" lon="-1.16789">
        <ele>218.84</ele>
        <time>2021-08-20T15:41:25Z</time>
      </trkpt>
      <trkpt lat="43.18306" lon="-1.16796">
        <ele>218.36</ele>
        <time>2021-08-20T15:41:26Z</time>
      </trkpt>
      <trkpt lat="43.18315" lon="-1.16812">
        <ele>217.4</ele>
        <time>2021-08-20T15:41:28Z</time>
      </trkpt>
      <trkpt lat="43.18318" lon="-1.16821">
        <ele>216.43</ele>
        <time>2021-08-20T15:41:29Z</time>
      </trkpt>
      <trkpt lat="43.1832" lon="-1.16831">
        <ele>216.43</ele>
        <time>2021-08-20T15:41:30Z</time>
      </trkpt>
      <trkpt lat="43.1832" lon="-1.16841">
        <ele>216.43</ele>
        <time>2021-08-20T15:41:31Z</time>
      </trkpt>
      <trkpt lat="43.18318" lon="-1.16849">
        <ele>216.43</ele>
        <time>2021-08-20T15:41:32Z</time>
      </trkpt>
      <trkpt lat="43.18315" lon="-1.16857">
        <ele>216.43</ele>
        <time>2021-08-20T15:41:33Z</time>
      </trkpt>
      <trkpt lat="43.18311" lon="-1.16864">
        <ele>216.43</ele>
        <time>2021-08-20T15:41:34Z</time>
      </trkpt>
      <trkpt lat="43.18306" lon="-1.1687">
        <ele>216.43</ele>
        <time>2021-08-20T15:41:35Z</time>
      </trkpt>
      <trkpt lat="43.18292" lon="-1.16896">
        <ele>214.03</ele>
        <time>2021-08-20T15:41:39Z</time>
      </trkpt>
      <trkpt lat="43.18291" lon="-1.16903">
        <ele>213.07</ele>
        <time>2021-08-20T15:41:40Z</time>
      </trkpt>
      <trkpt lat="43.18291" lon="-1.16911">
        <ele>212.11</ele>
        <time>2021-08-20T15:41:41Z</time>
      </trkpt>
      <trkpt lat="43.18293" lon="-1.16919">
        <ele>211.15</ele>
        <time>2021-08-20T15:41:42Z</time>
      </trkpt>
      <trkpt lat="43.18296" lon="-1.16927">
        <ele>210.19</ele>
        <time>2021-08-20T15:41:43Z</time>
      </trkpt>
      <trkpt lat="43.18299" lon="-1.16934">
        <ele>209.7</ele>
        <time>2021-08-20T15:41:44Z</time>
      </trkpt>
      <trkpt lat="43.18303" lon="-1.16942">
        <ele>208.26</ele>
        <time>2021-08-20T15:41:45Z</time>
      </trkpt>
      <trkpt lat="43.18309" lon="-1.1695">
        <ele>207.78</ele>
        <time>2021-08-20T15:41:46Z</time>
      </trkpt>
      <trkpt lat="43.18314" lon="-1.16957">
        <ele>207.3</ele>
        <time>2021-08-20T15:41:47Z</time>
      </trkpt>
      <trkpt lat="43.18321" lon="-1.16963">
        <ele>207.3</ele>
        <time>2021-08-20T15:41:48Z</time>
      </trkpt>
      <trkpt lat="43.18327" lon="-1.16968">
        <ele>206.82</ele>
        <time>2021-08-20T15:41:49Z</time>
      </trkpt>
      <trkpt lat="43.1834" lon="-1.16984">
        <ele>205.38</ele>
        <time>2021-08-20T15:41:52Z</time>
      </trkpt>
      <trkpt lat="43.18341" lon="-1.16989">
        <ele>205.38</ele>
        <time>2021-08-20T15:41:53Z</time>
      </trkpt>
      <trkpt lat="43.18339" lon="-1.16992">
        <ele>205.38</ele>
        <time>2021-08-20T15:41:54Z</time>
      </trkpt>
      <trkpt lat="43.18336" lon="-1.16993">
        <ele>205.38</ele>
        <time>2021-08-20T15:41:55Z</time>
      </trkpt>
      <trkpt lat="43.18333" lon="-1.16992">
        <ele>205.38</ele>
        <time>2021-08-20T15:41:56Z</time>
      </trkpt>
      <trkpt lat="43.18331" lon="-1.16991">
        <ele>205.38</ele>
        <time>2021-08-20T15:41:57Z</time>
      </trkpt>
      <trkpt lat="43.18328" lon="-1.16989">
        <ele>205.38</ele>
        <time>2021-08-20T15:41:58Z</time>
      </trkpt>
      <trkpt lat="43.18308" lon="-1.16982">
        <ele>205.38</ele>
        <time>2021-08-20T15:42:06Z</time>
      </trkpt>
      <trkpt lat="43.18291" lon="-1.16972">
        <ele>207.3</ele>
        <time>2021-08-20T15:42:15Z</time>
      </trkpt>
      <trkpt lat="43.18286" lon="-1.16968">
        <ele>207.78</ele>
        <time>2021-08-20T15:42:19Z</time>
      </trkpt>
      <trkpt lat="43.18283" lon="-1.16968">
        <ele>207.78</ele>
        <time>2021-08-20T15:42:22Z</time>
      </trkpt>
      <trkpt lat="43.18282" lon="-1.16967">
        <ele>208.74</ele>
        <time>2021-08-20T15:42:23Z</time>
      </trkpt>
      <trkpt lat="43.18281" lon="-1.16966">
        <ele>208.74</ele>
        <time>2021-08-20T15:42:24Z</time>
      </trkpt>
      <trkpt lat="43.18279" lon="-1.16965">
        <ele>208.74</ele>
        <time>2021-08-20T15:42:25Z</time>
      </trkpt>
      <trkpt lat="43.18278" lon="-1.16965">
        <ele>209.22</ele>
        <time>2021-08-20T15:42:26Z</time>
      </trkpt>
      <trkpt lat="43.18277" lon="-1.16964">
        <ele>209.22</ele>
        <time>2021-08-20T15:42:27Z</time>
      </trkpt>
      <trkpt lat="43.18276" lon="-1.16964">
        <ele>209.22</ele>
        <time>2021-08-20T15:42:28Z</time>
      </trkpt>
      <trkpt lat="43.18268" lon="-1.16962">
        <ele>210.67</ele>
        <time>2021-08-20T15:42:35Z</time>
      </trkpt>
      <trkpt lat="43.18261" lon="-1.16963">
        <ele>211.15</ele>
        <time>2021-08-20T15:42:40Z</time>
      </trkpt>
      <trkpt lat="43.1826" lon="-1.16964">
        <ele>211.63</ele>
        <time>2021-08-20T15:42:41Z</time>
      </trkpt>
      <trkpt lat="43.18259" lon="-1.16966">
        <ele>211.63</ele>
        <time>2021-08-20T15:42:42Z</time>
      </trkpt>
      <trkpt lat="43.18257" lon="-1.16968">
        <ele>211.63</ele>
        <time>2021-08-20T15:42:44Z</time>
      </trkpt>
      <trkpt lat="43.18256" lon="-1.16969">
        <ele>211.63</ele>
        <time>2021-08-20T15:42:45Z</time>
      </trkpt>
      <trkpt lat="43.18254" lon="-1.16971">
        <ele>211.63</ele>
        <time>2021-08-20T15:42:47Z</time>
      </trkpt>
      <trkpt lat="43.18253" lon="-1.16972">
        <ele>211.63</ele>
        <time>2021-08-20T15:42:48Z</time>
      </trkpt>
      <trkpt lat="43.18252" lon="-1.16973">
        <ele>212.11</ele>
        <time>2021-08-20T15:42:49Z</time>
      </trkpt>
      <trkpt lat="43.1825" lon="-1.16974">
        <ele>212.11</ele>
        <time>2021-08-20T15:42:50Z</time>
      </trkpt>
      <trkpt lat="43.18249" lon="-1.16975">
        <ele>212.11</ele>
        <time>2021-08-20T15:42:51Z</time>
      </trkpt>
      <trkpt lat="43.18248" lon="-1.16976">
        <ele>212.11</ele>
        <time>2021-08-20T15:42:52Z</time>
      </trkpt>
      <trkpt lat="43.18247" lon="-1.16977">
        <ele>212.11</ele>
        <time>2021-08-20T15:42:53Z</time>
      </trkpt>
      <trkpt lat="43.18246" lon="-1.16979">
        <ele>213.07</ele>
        <time>2021-08-20T15:42:54Z</time>
      </trkpt>
      <trkpt lat="43.18245" lon="-1.1698">
        <ele>213.07</ele>
        <time>2021-08-20T15:42:55Z</time>
      </trkpt>
      <trkpt lat="43.18244" lon="-1.16981">
        <ele>213.55</ele>
        <time>2021-08-20T15:42:56Z</time>
      </trkpt>
      <trkpt lat="43.18242" lon="-1.16982">
        <ele>213.55</ele>
        <time>2021-08-20T15:42:57Z</time>
      </trkpt>
      <trkpt lat="43.18241" lon="-1.16983">
        <ele>213.55</ele>
        <time>2021-08-20T15:42:58Z</time>
      </trkpt>
      <trkpt lat="43.1824" lon="-1.16984">
        <ele>213.07</ele>
        <time>2021-08-20T15:42:59Z</time>
      </trkpt>
      <trkpt lat="43.18238" lon="-1.16986">
        <ele>214.03</ele>
        <time>2021-08-20T15:43:00Z</time>
      </trkpt>
      <trkpt lat="43.18237" lon="-1.16987">
        <ele>214.03</ele>
        <time>2021-08-20T15:43:01Z</time>
      </trkpt>
      <trkpt lat="43.18236" lon="-1.16988">
        <ele>214.03</ele>
        <time>2021-08-20T15:43:02Z</time>
      </trkpt>
      <trkpt lat="43.18234" lon="-1.16989">
        <ele>214.03</ele>
        <time>2021-08-20T15:43:03Z</time>
      </trkpt>
      <trkpt lat="43.18233" lon="-1.1699">
        <ele>214.51</ele>
        <time>2021-08-20T15:43:04Z</time>
      </trkpt>
      <trkpt lat="43.18232" lon="-1.16991">
        <ele>214.51</ele>
        <time>2021-08-20T15:43:05Z</time>
      </trkpt>
      <trkpt lat="43.18231" lon="-1.16992">
        <ele>214.51</ele>
        <time>2021-08-20T15:43:06Z</time>
      </trkpt>
      <trkpt lat="43.18229" lon="-1.16994">
        <ele>214.51</ele>
        <time>2021-08-20T15:43:07Z</time>
      </trkpt>
      <trkpt lat="43.18218" lon="-1.17002">
        <ele>215.47</ele>
        <time>2021-08-20T15:43:16Z</time>
      </trkpt>
      <trkpt lat="43.1821" lon="-1.17006">
        <ele>215.95</ele>
        <time>2021-08-20T15:43:22Z</time>
      </trkpt>
      <trkpt lat="43.18208" lon="-1.17007">
        <ele>215.95</ele>
        <time>2021-08-20T15:43:23Z</time>
      </trkpt>
      <trkpt lat="43.18208" lon="-1.17008">
        <ele>216.43</ele>
        <time>2021-08-20T15:43:24Z</time>
      </trkpt>
      <trkpt lat="43.18206" lon="-1.17008">
        <ele>216.43</ele>
        <time>2021-08-20T15:43:25Z</time>
      </trkpt>
      <trkpt lat="43.18205" lon="-1.17009">
        <ele>216.43</ele>
        <time>2021-08-20T15:43:26Z</time>
      </trkpt>
      <trkpt lat="43.18204" lon="-1.17009">
        <ele>216.43</ele>
        <time>2021-08-20T15:43:27Z</time>
      </trkpt>
      <trkpt lat="43.18203" lon="-1.17009">
        <ele>216.91</ele>
        <time>2021-08-20T15:43:28Z</time>
      </trkpt>
      <trkpt lat="43.18201" lon="-1.1701">
        <ele>216.91</ele>
        <time>2021-08-20T15:43:29Z</time>
      </trkpt>
      <trkpt lat="43.182" lon="-1.1701">
        <ele>216.91</ele>
        <time>2021-08-20T15:43:30Z</time>
      </trkpt>
      <trkpt lat="43.18199" lon="-1.17011">
        <ele>216.91</ele>
        <time>2021-08-20T15:43:31Z</time>
      </trkpt>
      <trkpt lat="43.18191" lon="-1.17012">
        <ele>217.88</ele>
        <time>2021-08-20T15:43:38Z</time>
      </trkpt>
      <trkpt lat="43.18179" lon="-1.17014">
        <ele>218.84</ele>
        <time>2021-08-20T15:43:48Z</time>
      </trkpt>
      <trkpt lat="43.1817" lon="-1.17018">
        <ele>220.28</ele>
        <time>2021-08-20T15:43:58Z</time>
      </trkpt>
      <trkpt lat="43.1816" lon="-1.17019">
        <ele>221.72</ele>
        <time>2021-08-20T15:44:08Z</time>
      </trkpt>
      <trkpt lat="43.18152" lon="-1.17021">
        <ele>223.16</ele>
        <time>2021-08-20T15:44:16Z</time>
      </trkpt>
      <trkpt lat="43.1814" lon="-1.17024">
        <ele>225.09</ele>
        <time>2021-08-20T15:44:28Z</time>
      </trkpt>
      <trkpt lat="43.18127" lon="-1.17024">
        <ele>226.05</ele>
        <time>2021-08-20T15:44:41Z</time>
      </trkpt>
      <trkpt lat="43.18122" lon="-1.17023">
        <ele>227.49</ele>
        <time>2021-08-20T15:44:50Z</time>
      </trkpt>
      <trkpt lat="43.18123" lon="-1.17022">
        <ele>227.49</ele>
        <time>2021-08-20T15:45:01Z</time>
      </trkpt>
      <trkpt lat="43.1812" lon="-1.17021">
        <ele>227.49</ele>
        <time>2021-08-20T15:45:11Z</time>
      </trkpt>
      <trkpt lat="43.18111" lon="-1.17021">
        <ele>228.45</ele>
        <time>2021-08-20T15:45:18Z</time>
      </trkpt>
      <trkpt lat="43.18098" lon="-1.17022">
        <ele>229.41</ele>
        <time>2021-08-20T15:45:28Z</time>
      </trkpt>
      <trkpt lat="43.18085" lon="-1.17024">
        <ele>230.37</ele>
        <time>2021-08-20T15:45:37Z</time>
      </trkpt>
      <trkpt lat="43.18081" lon="-1.17023">
        <ele>230.85</ele>
        <time>2021-08-20T15:45:40Z</time>
      </trkpt>
      <trkpt lat="43.18079" lon="-1.17023">
        <ele>230.85</ele>
        <time>2021-08-20T15:45:41Z</time>
      </trkpt>
      <trkpt lat="43.18078" lon="-1.17023">
        <ele>231.81</ele>
        <time>2021-08-20T15:45:42Z</time>
      </trkpt>
      <trkpt lat="43.18077" lon="-1.17023">
        <ele>231.81</ele>
        <time>2021-08-20T15:45:43Z</time>
      </trkpt>
      <trkpt lat="43.18076" lon="-1.17023">
        <ele>231.81</ele>
        <time>2021-08-20T15:45:44Z</time>
      </trkpt>
      <trkpt lat="43.18074" lon="-1.17024">
        <ele>231.81</ele>
        <time>2021-08-20T15:45:45Z</time>
      </trkpt>
      <trkpt lat="43.18064" lon="-1.17026">
        <ele>233.26</ele>
        <time>2021-08-20T15:45:53Z</time>
      </trkpt>
      <trkpt lat="43.18051" lon="-1.17028">
        <ele>234.7</ele>
        <time>2021-08-20T15:46:03Z</time>
      </trkpt>
      <trkpt lat="43.18046" lon="-1.17028">
        <ele>235.18</ele>
        <time>2021-08-20T15:46:07Z</time>
      </trkpt>
      <trkpt lat="43.18045" lon="-1.17029">
        <ele>235.66</ele>
        <time>2021-08-20T15:46:08Z</time>
      </trkpt>
      <trkpt lat="43.18043" lon="-1.1703">
        <ele>235.66</ele>
        <time>2021-08-20T15:46:09Z</time>
      </trkpt>
      <trkpt lat="43.18042" lon="-1.1703">
        <ele>235.66</ele>
        <time>2021-08-20T15:46:10Z</time>
      </trkpt>
      <trkpt lat="43.1804" lon="-1.1703">
        <ele>235.66</ele>
        <time>2021-08-20T15:46:11Z</time>
      </trkpt>
      <trkpt lat="43.18039" lon="-1.1703">
        <ele>236.14</ele>
        <time>2021-08-20T15:46:12Z</time>
      </trkpt>
      <trkpt lat="43.18033" lon="-1.17031">
        <ele>237.1</ele>
        <time>2021-08-20T15:46:18Z</time>
      </trkpt>
      <trkpt lat="43.18023" lon="-1.17033">
        <ele>238.06</ele>
        <time>2021-08-20T15:46:27Z</time>
      </trkpt>
      <trkpt lat="43.18018" lon="-1.17039">
        <ele>239.02</ele>
        <time>2021-08-20T15:46:35Z</time>
      </trkpt>
      <trkpt lat="43.1802" lon="-1.17039">
        <ele>239.51</ele>
        <time>2021-08-20T15:46:43Z</time>
      </trkpt>
      <trkpt lat="43.18019" lon="-1.17042">
        <ele>239.51</ele>
        <time>2021-08-20T15:46:51Z</time>
      </trkpt>
      <trkpt lat="43.18019" lon="-1.17054">
        <ele>240.47</ele>
        <time>2021-08-20T15:46:59Z</time>
      </trkpt>
      <trkpt lat="43.18018" lon="-1.17067">
        <ele>241.91</ele>
        <time>2021-08-20T15:47:08Z</time>
      </trkpt>
      <trkpt lat="43.18013" lon="-1.17076">
        <ele>242.87</ele>
        <time>2021-08-20T15:47:14Z</time>
      </trkpt>
      <trkpt lat="43.18012" lon="-1.17077">
        <ele>243.35</ele>
        <time>2021-08-20T15:47:15Z</time>
      </trkpt>
      <trkpt lat="43.18012" lon="-1.17078">
        <ele>243.35</ele>
        <time>2021-08-20T15:47:16Z</time>
      </trkpt>
      <trkpt lat="43.18011" lon="-1.1708">
        <ele>243.35</ele>
        <time>2021-08-20T15:47:17Z</time>
      </trkpt>
      <trkpt lat="43.1801" lon="-1.17081">
        <ele>243.35</ele>
        <time>2021-08-20T15:47:18Z</time>
      </trkpt>
      <trkpt lat="43.1801" lon="-1.17082">
        <ele>243.83</ele>
        <time>2021-08-20T15:47:19Z</time>
      </trkpt>
      <trkpt lat="43.18009" lon="-1.17083">
        <ele>243.83</ele>
        <time>2021-08-20T15:47:20Z</time>
      </trkpt>
      <trkpt lat="43.17999" lon="-1.17092">
        <ele>245.27</ele>
        <time>2021-08-20T15:47:30Z</time>
      </trkpt>
      <trkpt lat="43.17986" lon="-1.17098">
        <ele>246.23</ele>
        <time>2021-08-20T15:47:42Z</time>
      </trkpt>
      <trkpt lat="43.1798" lon="-1.171">
        <ele>246.23</ele>
        <time>2021-08-20T15:47:49Z</time>
      </trkpt>
      <trkpt lat="43.17969" lon="-1.17102">
        <ele>246.23</ele>
        <time>2021-08-20T15:47:55Z</time>
      </trkpt>
      <trkpt lat="43.1795" lon="-1.1711">
        <ele>246.23</ele>
        <time>2021-08-20T15:48:02Z</time>
      </trkpt>
      <trkpt lat="43.17934" lon="-1.17113">
        <ele>246.23</ele>
        <time>2021-08-20T15:48:09Z</time>
      </trkpt>
      <trkpt lat="43.17921" lon="-1.17114">
        <ele>247.2</ele>
        <time>2021-08-20T15:48:15Z</time>
      </trkpt>
      <trkpt lat="43.17901" lon="-1.17119">
        <ele>246.72</ele>
        <time>2021-08-20T15:48:22Z</time>
      </trkpt>
      <trkpt lat="43.17893" lon="-1.17131">
        <ele>246.72</ele>
        <time>2021-08-20T15:48:26Z</time>
      </trkpt>
      <trkpt lat="43.17889" lon="-1.17147">
        <ele>249.12</ele>
        <time>2021-08-20T15:48:33Z</time>
      </trkpt>
      <trkpt lat="43.17887" lon="-1.17151">
        <ele>249.6</ele>
        <time>2021-08-20T15:48:36Z</time>
      </trkpt>
      <trkpt lat="43.17886" lon="-1.17154">
        <ele>249.6</ele>
        <time>2021-08-20T15:48:38Z</time>
      </trkpt>
      <trkpt lat="43.17885" lon="-1.17155">
        <ele>250.08</ele>
        <time>2021-08-20T15:48:39Z</time>
      </trkpt>
      <trkpt lat="43.17884" lon="-1.17157">
        <ele>250.08</ele>
        <time>2021-08-20T15:48:40Z</time>
      </trkpt>
      <trkpt lat="43.17884" lon="-1.17159">
        <ele>250.08</ele>
        <time>2021-08-20T15:48:41Z</time>
      </trkpt>
      <trkpt lat="43.17883" lon="-1.17161">
        <ele>250.08</ele>
        <time>2021-08-20T15:48:42Z</time>
      </trkpt>
      <trkpt lat="43.17876" lon="-1.17182">
        <ele>251.52</ele>
        <time>2021-08-20T15:48:53Z</time>
      </trkpt>
      <trkpt lat="43.17869" lon="-1.17195">
        <ele>252.48</ele>
        <time>2021-08-20T15:49:01Z</time>
      </trkpt>
      <trkpt lat="43.17865" lon="-1.17204">
        <ele>253.93</ele>
        <time>2021-08-20T15:49:09Z</time>
      </trkpt>
      <trkpt lat="43.17859" lon="-1.17221">
        <ele>254.41</ele>
        <time>2021-08-20T15:49:16Z</time>
      </trkpt>
      <trkpt lat="43.17853" lon="-1.17243">
        <ele>254.41</ele>
        <time>2021-08-20T15:49:21Z</time>
      </trkpt>
      <trkpt lat="43.17844" lon="-1.17263">
        <ele>252.96</ele>
        <time>2021-08-20T15:49:25Z</time>
      </trkpt>
      <trkpt lat="43.1784" lon="-1.17268">
        <ele>252.96</ele>
        <time>2021-08-20T15:49:26Z</time>
      </trkpt>
      <trkpt lat="43.17837" lon="-1.17272">
        <ele>252.96</ele>
        <time>2021-08-20T15:49:27Z</time>
      </trkpt>
      <trkpt lat="43.17833" lon="-1.17275">
        <ele>252.96</ele>
        <time>2021-08-20T15:49:28Z</time>
      </trkpt>
      <trkpt lat="43.17828" lon="-1.17278">
        <ele>252.96</ele>
        <time>2021-08-20T15:49:29Z</time>
      </trkpt>
      <trkpt lat="43.17823" lon="-1.17279">
        <ele>252.96</ele>
        <time>2021-08-20T15:49:30Z</time>
      </trkpt>
      <trkpt lat="43.17819" lon="-1.1728">
        <ele>252.96</ele>
        <time>2021-08-20T15:49:31Z</time>
      </trkpt>
      <trkpt lat="43.17814" lon="-1.1728">
        <ele>252.96</ele>
        <time>2021-08-20T15:49:32Z</time>
      </trkpt>
      <trkpt lat="43.1781" lon="-1.1728">
        <ele>252.96</ele>
        <time>2021-08-20T15:49:33Z</time>
      </trkpt>
      <trkpt lat="43.17806" lon="-1.17279">
        <ele>254.89</ele>
        <time>2021-08-20T15:49:34Z</time>
      </trkpt>
      <trkpt lat="43.17802" lon="-1.17278">
        <ele>254.89</ele>
        <time>2021-08-20T15:49:35Z</time>
      </trkpt>
      <trkpt lat="43.17777" lon="-1.17272">
        <ele>256.33</ele>
        <time>2021-08-20T15:49:43Z</time>
      </trkpt>
      <trkpt lat="43.17751" lon="-1.17268">
        <ele>256.81</ele>
        <time>2021-08-20T15:49:52Z</time>
      </trkpt>
      <trkpt lat="43.17728" lon="-1.17264">
        <ele>257.29</ele>
        <time>2021-08-20T15:50:01Z</time>
      </trkpt>
      <trkpt lat="43.17724" lon="-1.17264">
        <ele>258.25</ele>
        <time>2021-08-20T15:50:05Z</time>
      </trkpt>
      <trkpt lat="43.1772" lon="-1.17262">
        <ele>258.73</ele>
        <time>2021-08-20T15:50:09Z</time>
      </trkpt>
      <trkpt lat="43.17719" lon="-1.17262">
        <ele>259.21</ele>
        <time>2021-08-20T15:50:10Z</time>
      </trkpt>
      <trkpt lat="43.17717" lon="-1.17261">
        <ele>259.21</ele>
        <time>2021-08-20T15:50:11Z</time>
      </trkpt>
      <trkpt lat="43.17713" lon="-1.17262">
        <ele>260.17</ele>
        <time>2021-08-20T15:50:17Z</time>
      </trkpt>
      <trkpt lat="43.17707" lon="-1.1726">
        <ele>261.14</ele>
        <time>2021-08-20T15:50:26Z</time>
      </trkpt>
      <trkpt lat="43.17701" lon="-1.17262">
        <ele>262.58</ele>
        <time>2021-08-20T15:50:33Z</time>
      </trkpt>
      <trkpt lat="43.17691" lon="-1.17264">
        <ele>264.5</ele>
        <time>2021-08-20T15:50:43Z</time>
      </trkpt>
      <trkpt lat="43.17685" lon="-1.17269">
        <ele>265.94</ele>
        <time>2021-08-20T15:50:52Z</time>
      </trkpt>
      <trkpt lat="43.17681" lon="-1.17271">
        <ele>266.9</ele>
        <time>2021-08-20T15:50:57Z</time>
      </trkpt>
      <trkpt lat="43.17667" lon="-1.17273">
        <ele>268.83</ele>
        <time>2021-08-20T15:51:07Z</time>
      </trkpt>
      <trkpt lat="43.17656" lon="-1.17276">
        <ele>269.79</ele>
        <time>2021-08-20T15:51:17Z</time>
      </trkpt>
      <trkpt lat="43.17652" lon="-1.17277">
        <ele>269.79</ele>
        <time>2021-08-20T15:51:20Z</time>
      </trkpt>
      <trkpt lat="43.1765" lon="-1.17278">
        <ele>269.79</ele>
        <time>2021-08-20T15:51:21Z</time>
      </trkpt>
      <trkpt lat="43.17648" lon="-1.17278">
        <ele>270.27</ele>
        <time>2021-08-20T15:51:22Z</time>
      </trkpt>
      <trkpt lat="43.17646" lon="-1.17279">
        <ele>270.27</ele>
        <time>2021-08-20T15:51:23Z</time>
      </trkpt>
      <trkpt lat="43.17645" lon="-1.1728">
        <ele>270.27</ele>
        <time>2021-08-20T15:51:24Z</time>
      </trkpt>
      <trkpt lat="43.17643" lon="-1.1728">
        <ele>270.75</ele>
        <time>2021-08-20T15:51:25Z</time>
      </trkpt>
      <trkpt lat="43.17641" lon="-1.17281">
        <ele>270.75</ele>
        <time>2021-08-20T15:51:26Z</time>
      </trkpt>
      <trkpt lat="43.1764" lon="-1.17281">
        <ele>270.75</ele>
        <time>2021-08-20T15:51:27Z</time>
      </trkpt>
      <trkpt lat="43.17638" lon="-1.17281">
        <ele>270.75</ele>
        <time>2021-08-20T15:51:28Z</time>
      </trkpt>
      <trkpt lat="43.17636" lon="-1.17281">
        <ele>270.75</ele>
        <time>2021-08-20T15:51:29Z</time>
      </trkpt>
      <trkpt lat="43.17634" lon="-1.17282">
        <ele>271.71</ele>
        <time>2021-08-20T15:51:30Z</time>
      </trkpt>
      <trkpt lat="43.17632" lon="-1.17282">
        <ele>271.71</ele>
        <time>2021-08-20T15:51:31Z</time>
      </trkpt>
      <trkpt lat="43.17631" lon="-1.17283">
        <ele>271.71</ele>
        <time>2021-08-20T15:51:32Z</time>
      </trkpt>
      <trkpt lat="43.17629" lon="-1.17283">
        <ele>271.71</ele>
        <time>2021-08-20T15:51:33Z</time>
      </trkpt>
      <trkpt lat="43.17627" lon="-1.17284">
        <ele>271.71</ele>
        <time>2021-08-20T15:51:34Z</time>
      </trkpt>
      <trkpt lat="43.17624" lon="-1.17285">
        <ele>272.19</ele>
        <time>2021-08-20T15:51:36Z</time>
      </trkpt>
      <trkpt lat="43.17622" lon="-1.17285">
        <ele>272.19</ele>
        <time>2021-08-20T15:51:37Z</time>
      </trkpt>
      <trkpt lat="43.1762" lon="-1.17286">
        <ele>272.19</ele>
        <time>2021-08-20T15:51:38Z</time>
      </trkpt>
      <trkpt lat="43.17606" lon="-1.17292">
        <ele>273.63</ele>
        <time>2021-08-20T15:51:46Z</time>
      </trkpt>
      <trkpt lat="43.17587" lon="-1.17294">
        <ele>274.59</ele>
        <time>2021-08-20T15:51:56Z</time>
      </trkpt>
      <trkpt lat="43.17567" lon="-1.17298">
        <ele>273.15</ele>
        <time>2021-08-20T15:52:04Z</time>
      </trkpt>
      <trkpt lat="43.17565" lon="-1.17298">
        <ele>273.15</ele>
        <time>2021-08-20T15:52:05Z</time>
      </trkpt>
      <trkpt lat="43.17561" lon="-1.17298">
        <ele>273.15</ele>
        <time>2021-08-20T15:52:10Z</time>
      </trkpt>
      <trkpt lat="43.17561" lon="-1.17299">
        <ele>273.15</ele>
        <time>2021-08-20T15:52:25Z</time>
      </trkpt>
      <trkpt lat="43.17561" lon="-1.17299">
        <ele>272.67</ele>
        <time>2021-08-20T15:52:43Z</time>
      </trkpt>
      <trkpt lat="43.17561" lon="-1.17298">
        <ele>272.67</ele>
        <time>2021-08-20T15:53:02Z</time>
      </trkpt>
      <trkpt lat="43.17562" lon="-1.17297">
        <ele>272.67</ele>
        <time>2021-08-20T15:53:25Z</time>
      </trkpt>
      <trkpt lat="43.17562" lon="-1.17299">
        <ele>272.67</ele>
        <time>2021-08-20T15:53:35Z</time>
      </trkpt>
      <trkpt lat="43.17563" lon="-1.17299">
        <ele>272.67</ele>
        <time>2021-08-20T15:53:41Z</time>
      </trkpt>
      <trkpt lat="43.17562" lon="-1.17299">
        <ele>272.67</ele>
        <time>2021-08-20T15:53:55Z</time>
      </trkpt>
      <trkpt lat="43.17564" lon="-1.17299">
        <ele>272.67</ele>
        <time>2021-08-20T15:54:24Z</time>
      </trkpt>
      <trkpt lat="43.17563" lon="-1.17301">
        <ele>272.67</ele>
        <time>2021-08-20T15:54:49Z</time>
      </trkpt>
      <trkpt lat="43.17562" lon="-1.17299">
        <ele>272.67</ele>
        <time>2021-08-20T15:55:07Z</time>
      </trkpt>
      <trkpt lat="43.17562" lon="-1.17297">
        <ele>272.67</ele>
        <time>2021-08-20T15:55:28Z</time>
      </trkpt>
      <trkpt lat="43.17561" lon="-1.17297">
        <ele>272.67</ele>
        <time>2021-08-20T15:55:52Z</time>
      </trkpt>
      <trkpt lat="43.17561" lon="-1.17297">
        <ele>272.67</ele>
        <time>2021-08-20T15:55:53Z</time>
      </trkpt>
      <trkpt lat="43.17559" lon="-1.17296">
        <ele>272.67</ele>
        <time>2021-08-20T15:55:54Z</time>
      </trkpt>
      <trkpt lat="43.17557" lon="-1.17296">
        <ele>272.67</ele>
        <time>2021-08-20T15:55:55Z</time>
      </trkpt>
      <trkpt lat="43.17554" lon="-1.17295">
        <ele>272.19</ele>
        <time>2021-08-20T15:55:56Z</time>
      </trkpt>
      <trkpt lat="43.17551" lon="-1.17294">
        <ele>271.71</ele>
        <time>2021-08-20T15:55:57Z</time>
      </trkpt>
      <trkpt lat="43.17548" lon="-1.17293">
        <ele>271.71</ele>
        <time>2021-08-20T15:55:58Z</time>
      </trkpt>
      <trkpt lat="43.17544" lon="-1.17291">
        <ele>271.23</ele>
        <time>2021-08-20T15:55:59Z</time>
      </trkpt>
      <trkpt lat="43.17509" lon="-1.17273">
        <ele>268.35</ele>
        <time>2021-08-20T15:56:05Z</time>
      </trkpt>
      <trkpt lat="43.17484" lon="-1.17264">
        <ele>264.98</ele>
        <time>2021-08-20T15:56:08Z</time>
      </trkpt>
      <trkpt lat="43.17455" lon="-1.17251">
        <ele>259.69</ele>
        <time>2021-08-20T15:56:11Z</time>
      </trkpt>
      <trkpt lat="43.17429" lon="-1.17242">
        <ele>256.33</ele>
        <time>2021-08-20T15:56:14Z</time>
      </trkpt>
      <trkpt lat="43.17422" lon="-1.17237">
        <ele>254.89</ele>
        <time>2021-08-20T15:56:15Z</time>
      </trkpt>
      <trkpt lat="43.17415" lon="-1.17229">
        <ele>253.93</ele>
        <time>2021-08-20T15:56:16Z</time>
      </trkpt>
      <trkpt lat="43.17411" lon="-1.17219">
        <ele>252.96</ele>
        <time>2021-08-20T15:56:17Z</time>
      </trkpt>
      <trkpt lat="43.17407" lon="-1.17211">
        <ele>252</ele>
        <time>2021-08-20T15:56:18Z</time>
      </trkpt>
      <trkpt lat="43.17402" lon="-1.17203">
        <ele>251.52</ele>
        <time>2021-08-20T15:56:19Z</time>
      </trkpt>
      <trkpt lat="43.17396" lon="-1.17198">
        <ele>250.08</ele>
        <time>2021-08-20T15:56:20Z</time>
      </trkpt>
      <trkpt lat="43.17389" lon="-1.17196">
        <ele>249.12</ele>
        <time>2021-08-20T15:56:21Z</time>
      </trkpt>
      <trkpt lat="43.17382" lon="-1.17199">
        <ele>248.16</ele>
        <time>2021-08-20T15:56:22Z</time>
      </trkpt>
      <trkpt lat="43.17377" lon="-1.17205">
        <ele>246.72</ele>
        <time>2021-08-20T15:56:23Z</time>
      </trkpt>
      <trkpt lat="43.17374" lon="-1.17214">
        <ele>246.72</ele>
        <time>2021-08-20T15:56:24Z</time>
      </trkpt>
      <trkpt lat="43.17373" lon="-1.17224">
        <ele>246.23</ele>
        <time>2021-08-20T15:56:25Z</time>
      </trkpt>
      <trkpt lat="43.17371" lon="-1.17235">
        <ele>245.75</ele>
        <time>2021-08-20T15:56:26Z</time>
      </trkpt>
      <trkpt lat="43.17367" lon="-1.17243">
        <ele>245.27</ele>
        <time>2021-08-20T15:56:27Z</time>
      </trkpt>
      <trkpt lat="43.17362" lon="-1.1725">
        <ele>244.31</ele>
        <time>2021-08-20T15:56:28Z</time>
      </trkpt>
      <trkpt lat="43.17355" lon="-1.17254">
        <ele>242.87</ele>
        <time>2021-08-20T15:56:29Z</time>
      </trkpt>
      <trkpt lat="43.17346" lon="-1.17255">
        <ele>240.47</ele>
        <time>2021-08-20T15:56:30Z</time>
      </trkpt>
      <trkpt lat="43.17337" lon="-1.17254">
        <ele>238.54</ele>
        <time>2021-08-20T15:56:31Z</time>
      </trkpt>
      <trkpt lat="43.17326" lon="-1.17252">
        <ele>236.62</ele>
        <time>2021-08-20T15:56:32Z</time>
      </trkpt>
      <trkpt lat="43.17314" lon="-1.17248">
        <ele>234.22</ele>
        <time>2021-08-20T15:56:33Z</time>
      </trkpt>
      <trkpt lat="43.17302" lon="-1.17243">
        <ele>232.78</ele>
        <time>2021-08-20T15:56:34Z</time>
      </trkpt>
      <trkpt lat="43.1729" lon="-1.17236">
        <ele>231.81</ele>
        <time>2021-08-20T15:56:35Z</time>
      </trkpt>
      <trkpt lat="43.17279" lon="-1.17229">
        <ele>230.37</ele>
        <time>2021-08-20T15:56:36Z</time>
      </trkpt>
      <trkpt lat="43.17257" lon="-1.17212">
        <ele>229.41</ele>
        <time>2021-08-20T15:56:38Z</time>
      </trkpt>
      <trkpt lat="43.17246" lon="-1.17202">
        <ele>228.45</ele>
        <time>2021-08-20T15:56:39Z</time>
      </trkpt>
      <trkpt lat="43.17204" lon="-1.17162">
        <ele>225.57</ele>
        <time>2021-08-20T15:56:43Z</time>
      </trkpt>
      <trkpt lat="43.17158" lon="-1.17131">
        <ele>221.72</ele>
        <time>2021-08-20T15:56:47Z</time>
      </trkpt>
      <trkpt lat="43.17148" lon="-1.17121">
        <ele>220.28</ele>
        <time>2021-08-20T15:56:48Z</time>
      </trkpt>
      <trkpt lat="43.17139" lon="-1.1711">
        <ele>220.28</ele>
        <time>2021-08-20T15:56:49Z</time>
      </trkpt>
      <trkpt lat="43.17112" lon="-1.17079">
        <ele>219.32</ele>
        <time>2021-08-20T15:56:52Z</time>
      </trkpt>
      <trkpt lat="43.17103" lon="-1.17072">
        <ele>219.32</ele>
        <time>2021-08-20T15:56:53Z</time>
      </trkpt>
      <trkpt lat="43.17093" lon="-1.17067">
        <ele>219.32</ele>
        <time>2021-08-20T15:56:54Z</time>
      </trkpt>
      <trkpt lat="43.17082" lon="-1.17063">
        <ele>219.32</ele>
        <time>2021-08-20T15:56:55Z</time>
      </trkpt>
      <trkpt lat="43.17072" lon="-1.17062">
        <ele>219.32</ele>
        <time>2021-08-20T15:56:56Z</time>
      </trkpt>
      <trkpt lat="43.17062" lon="-1.17062">
        <ele>219.32</ele>
        <time>2021-08-20T15:56:57Z</time>
      </trkpt>
      <trkpt lat="43.17052" lon="-1.17063">
        <ele>219.32</ele>
        <time>2021-08-20T15:56:58Z</time>
      </trkpt>
      <trkpt lat="43.17043" lon="-1.17064">
        <ele>219.32</ele>
        <time>2021-08-20T15:56:59Z</time>
      </trkpt>
      <trkpt lat="43.16993" lon="-1.17076">
        <ele>219.8</ele>
        <time>2021-08-20T15:57:05Z</time>
      </trkpt>
      <trkpt lat="43.16974" lon="-1.17086">
        <ele>220.76</ele>
        <time>2021-08-20T15:57:08Z</time>
      </trkpt>
      <trkpt lat="43.16927" lon="-1.17105">
        <ele>223.16</ele>
        <time>2021-08-20T15:57:16Z</time>
      </trkpt>
      <trkpt lat="43.16891" lon="-1.17113">
        <ele>224.12</ele>
        <time>2021-08-20T15:57:23Z</time>
      </trkpt>
      <trkpt lat="43.16857" lon="-1.17116">
        <ele>225.09</ele>
        <time>2021-08-20T15:57:30Z</time>
      </trkpt>
      <trkpt lat="43.16823" lon="-1.17111">
        <ele>226.05</ele>
        <time>2021-08-20T15:57:38Z</time>
      </trkpt>
      <trkpt lat="43.16819" lon="-1.17112">
        <ele>226.53</ele>
        <time>2021-08-20T15:57:39Z</time>
      </trkpt>
      <trkpt lat="43.16815" lon="-1.17114">
        <ele>226.53</ele>
        <time>2021-08-20T15:57:40Z</time>
      </trkpt>
      <trkpt lat="43.1679" lon="-1.17131">
        <ele>227.01</ele>
        <time>2021-08-20T15:57:46Z</time>
      </trkpt>
      <trkpt lat="43.16753" lon="-1.17151">
        <ele>225.09</ele>
        <time>2021-08-20T15:57:53Z</time>
      </trkpt>
      <trkpt lat="43.1672" lon="-1.17166">
        <ele>224.61</ele>
        <time>2021-08-20T15:57:59Z</time>
      </trkpt>
      <trkpt lat="43.16715" lon="-1.17169">
        <ele>224.12</ele>
        <time>2021-08-20T15:58:00Z</time>
      </trkpt>
      <trkpt lat="43.16704" lon="-1.17175">
        <ele>224.12</ele>
        <time>2021-08-20T15:58:02Z</time>
      </trkpt>
      <trkpt lat="43.16689" lon="-1.17191">
        <ele>223.16</ele>
        <time>2021-08-20T15:58:05Z</time>
      </trkpt>
      <trkpt lat="43.16684" lon="-1.17197">
        <ele>223.16</ele>
        <time>2021-08-20T15:58:06Z</time>
      </trkpt>
      <trkpt lat="43.16673" lon="-1.17207">
        <ele>222.2</ele>
        <time>2021-08-20T15:58:08Z</time>
      </trkpt>
      <trkpt lat="43.16667" lon="-1.1721">
        <ele>221.72</ele>
        <time>2021-08-20T15:58:09Z</time>
      </trkpt>
      <trkpt lat="43.1666" lon="-1.17211">
        <ele>221.72</ele>
        <time>2021-08-20T15:58:10Z</time>
      </trkpt>
      <trkpt lat="43.16653" lon="-1.17212">
        <ele>221.24</ele>
        <time>2021-08-20T15:58:11Z</time>
      </trkpt>
      <trkpt lat="43.16646" lon="-1.17214">
        <ele>220.28</ele>
        <time>2021-08-20T15:58:12Z</time>
      </trkpt>
      <trkpt lat="43.16639" lon="-1.17217">
        <ele>220.28</ele>
        <time>2021-08-20T15:58:13Z</time>
      </trkpt>
      <trkpt lat="43.16632" lon="-1.1722">
        <ele>219.8</ele>
        <time>2021-08-20T15:58:14Z</time>
      </trkpt>
      <trkpt lat="43.16625" lon="-1.17224">
        <ele>219.8</ele>
        <time>2021-08-20T15:58:15Z</time>
      </trkpt>
      <trkpt lat="43.16566" lon="-1.1726">
        <ele>218.84</ele>
        <time>2021-08-20T15:58:24Z</time>
      </trkpt>
      <trkpt lat="43.16536" lon="-1.17272">
        <ele>220.28</ele>
        <time>2021-08-20T15:58:30Z</time>
      </trkpt>
      <trkpt lat="43.16507" lon="-1.17287">
        <ele>217.88</ele>
        <time>2021-08-20T15:58:35Z</time>
      </trkpt>
      <trkpt lat="43.165" lon="-1.17293">
        <ele>216.91</ele>
        <time>2021-08-20T15:58:36Z</time>
      </trkpt>
      <trkpt lat="43.16494" lon="-1.173">
        <ele>216.43</ele>
        <time>2021-08-20T15:58:37Z</time>
      </trkpt>
      <trkpt lat="43.16488" lon="-1.17307">
        <ele>215.47</ele>
        <time>2021-08-20T15:58:38Z</time>
      </trkpt>
      <trkpt lat="43.16482" lon="-1.17315">
        <ele>215.47</ele>
        <time>2021-08-20T15:58:39Z</time>
      </trkpt>
      <trkpt lat="43.16442" lon="-1.17355">
        <ele>214.51</ele>
        <time>2021-08-20T15:58:45Z</time>
      </trkpt>
      <trkpt lat="43.16398" lon="-1.17384">
        <ele>212.59</ele>
        <time>2021-08-20T15:58:51Z</time>
      </trkpt>
      <trkpt lat="43.1639" lon="-1.17387">
        <ele>212.59</ele>
        <time>2021-08-20T15:58:52Z</time>
      </trkpt>
      <trkpt lat="43.1636" lon="-1.17402">
        <ele>212.11</ele>
        <time>2021-08-20T15:58:56Z</time>
      </trkpt>
      <trkpt lat="43.16353" lon="-1.17408">
        <ele>211.63</ele>
        <time>2021-08-20T15:58:57Z</time>
      </trkpt>
      <trkpt lat="43.16348" lon="-1.17416">
        <ele>211.63</ele>
        <time>2021-08-20T15:58:58Z</time>
      </trkpt>
      <trkpt lat="43.163" lon="-1.17498">
        <ele>210.67</ele>
        <time>2021-08-20T15:59:08Z</time>
      </trkpt>
      <trkpt lat="43.16265" lon="-1.17565">
        <ele>210.67</ele>
        <time>2021-08-20T15:59:17Z</time>
      </trkpt>
      <trkpt lat="43.16223" lon="-1.17643">
        <ele>210.67</ele>
        <time>2021-08-20T15:59:28Z</time>
      </trkpt>
      <trkpt lat="43.16218" lon="-1.1765">
        <ele>210.67</ele>
        <time>2021-08-20T15:59:29Z</time>
      </trkpt>
      <trkpt lat="43.16214" lon="-1.17657">
        <ele>210.67</ele>
        <time>2021-08-20T15:59:30Z</time>
      </trkpt>
      <trkpt lat="43.16211" lon="-1.17664">
        <ele>210.19</ele>
        <time>2021-08-20T15:59:31Z</time>
      </trkpt>
      <trkpt lat="43.16184" lon="-1.17717">
        <ele>207.3</ele>
        <time>2021-08-20T15:59:37Z</time>
      </trkpt>
      <trkpt lat="43.16144" lon="-1.17799">
        <ele>204.9</ele>
        <time>2021-08-20T15:59:46Z</time>
      </trkpt>
      <trkpt lat="43.16113" lon="-1.17861">
        <ele>205.38</ele>
        <time>2021-08-20T15:59:54Z</time>
      </trkpt>
      <trkpt lat="43.16085" lon="-1.17915">
        <ele>205.38</ele>
        <time>2021-08-20T16:00:02Z</time>
      </trkpt>
      <trkpt lat="43.16061" lon="-1.17967">
        <ele>204.9</ele>
        <time>2021-08-20T16:00:09Z</time>
      </trkpt>
      <trkpt lat="43.16051" lon="-1.17996">
        <ele>206.34</ele>
        <time>2021-08-20T16:00:13Z</time>
      </trkpt>
      <trkpt lat="43.1605" lon="-1.18003">
        <ele>206.82</ele>
        <time>2021-08-20T16:00:14Z</time>
      </trkpt>
      <trkpt lat="43.16052" lon="-1.18033">
        <ele>208.26</ele>
        <time>2021-08-20T16:00:20Z</time>
      </trkpt>
      <trkpt lat="43.16055" lon="-1.18057">
        <ele>208.74</ele>
        <time>2021-08-20T16:00:26Z</time>
      </trkpt>
      <trkpt lat="43.16064" lon="-1.18094">
        <ele>209.7</ele>
        <time>2021-08-20T16:00:34Z</time>
      </trkpt>
      <trkpt lat="43.1607" lon="-1.18123">
        <ele>210.67</ele>
        <time>2021-08-20T16:00:40Z</time>
      </trkpt>
      <trkpt lat="43.16077" lon="-1.18149">
        <ele>211.15</ele>
        <time>2021-08-20T16:00:46Z</time>
      </trkpt>
      <trkpt lat="43.16087" lon="-1.18182">
        <ele>211.15</ele>
        <time>2021-08-20T16:00:53Z</time>
      </trkpt>
      <trkpt lat="43.16102" lon="-1.182">
        <ele>213.07</ele>
        <time>2021-08-20T16:01:00Z</time>
      </trkpt>
      <trkpt lat="43.16121" lon="-1.18209">
        <ele>214.99</ele>
        <time>2021-08-20T16:01:09Z</time>
      </trkpt>
      <trkpt lat="43.1614" lon="-1.18225">
        <ele>216.91</ele>
        <time>2021-08-20T16:01:19Z</time>
      </trkpt>
      <trkpt lat="43.16153" lon="-1.18241">
        <ele>217.88</ele>
        <time>2021-08-20T16:01:27Z</time>
      </trkpt>
      <trkpt lat="43.16164" lon="-1.18264">
        <ele>218.36</ele>
        <time>2021-08-20T16:01:35Z</time>
      </trkpt>
      <trkpt lat="43.16176" lon="-1.18296">
        <ele>218.36</ele>
        <time>2021-08-20T16:01:43Z</time>
      </trkpt>
      <trkpt lat="43.16189" lon="-1.18327">
        <ele>219.8</ele>
        <time>2021-08-20T16:01:52Z</time>
      </trkpt>
      <trkpt lat="43.162" lon="-1.1836">
        <ele>220.76</ele>
        <time>2021-08-20T16:02:02Z</time>
      </trkpt>
      <trkpt lat="43.16207" lon="-1.18394">
        <ele>223.16</ele>
        <time>2021-08-20T16:02:12Z</time>
      </trkpt>
      <trkpt lat="43.16214" lon="-1.18424">
        <ele>225.09</ele>
        <time>2021-08-20T16:02:22Z</time>
      </trkpt>
      <trkpt lat="43.16222" lon="-1.18453">
        <ele>226.05</ele>
        <time>2021-08-20T16:02:32Z</time>
      </trkpt>
      <trkpt lat="43.16233" lon="-1.1848">
        <ele>226.53</ele>
        <time>2021-08-20T16:02:40Z</time>
      </trkpt>
      <trkpt lat="43.16239" lon="-1.18511">
        <ele>226.53</ele>
        <time>2021-08-20T16:02:48Z</time>
      </trkpt>
      <trkpt lat="43.16248" lon="-1.18536">
        <ele>226.53</ele>
        <time>2021-08-20T16:02:55Z</time>
      </trkpt>
      <trkpt lat="43.16249" lon="-1.1854">
        <ele>226.53</ele>
        <time>2021-08-20T16:02:56Z</time>
      </trkpt>
      <trkpt lat="43.16251" lon="-1.18543">
        <ele>226.53</ele>
        <time>2021-08-20T16:02:57Z</time>
      </trkpt>
      <trkpt lat="43.16267" lon="-1.18569">
        <ele>225.09</ele>
        <time>2021-08-20T16:03:04Z</time>
      </trkpt>
      <trkpt lat="43.1627" lon="-1.18573">
        <ele>225.09</ele>
        <time>2021-08-20T16:03:05Z</time>
      </trkpt>
      <trkpt lat="43.16297" lon="-1.18613">
        <ele>223.64</ele>
        <time>2021-08-20T16:03:13Z</time>
      </trkpt>
      <trkpt lat="43.16317" lon="-1.18647">
        <ele>222.2</ele>
        <time>2021-08-20T16:03:19Z</time>
      </trkpt>
      <trkpt lat="43.16341" lon="-1.18706">
        <ele>219.32</ele>
        <time>2021-08-20T16:03:28Z</time>
      </trkpt>
      <trkpt lat="43.16362" lon="-1.1876">
        <ele>216.43</ele>
        <time>2021-08-20T16:03:34Z</time>
      </trkpt>
      <trkpt lat="43.16396" lon="-1.18844">
        <ele>214.51</ele>
        <time>2021-08-20T16:03:43Z</time>
      </trkpt>
      <trkpt lat="43.16418" lon="-1.18898">
        <ele>214.51</ele>
        <time>2021-08-20T16:03:50Z</time>
      </trkpt>
      <trkpt lat="43.16437" lon="-1.18977">
        <ele>213.07</ele>
        <time>2021-08-20T16:04:00Z</time>
      </trkpt>
      <trkpt lat="43.1644" lon="-1.19023">
        <ele>209.7</ele>
        <time>2021-08-20T16:04:05Z</time>
      </trkpt>
      <trkpt lat="43.16443" lon="-1.19043">
        <ele>208.74</ele>
        <time>2021-08-20T16:04:07Z</time>
      </trkpt>
      <trkpt lat="43.16445" lon="-1.19052">
        <ele>208.26</ele>
        <time>2021-08-20T16:04:08Z</time>
      </trkpt>
      <trkpt lat="43.16461" lon="-1.19108">
        <ele>208.26</ele>
        <time>2021-08-20T16:04:15Z</time>
      </trkpt>
      <trkpt lat="43.16463" lon="-1.19113">
        <ele>208.26</ele>
        <time>2021-08-20T16:04:16Z</time>
      </trkpt>
      <trkpt lat="43.16463" lon="-1.19119">
        <ele>208.26</ele>
        <time>2021-08-20T16:04:17Z</time>
      </trkpt>
      <trkpt lat="43.16461" lon="-1.19125">
        <ele>208.26</ele>
        <time>2021-08-20T16:04:18Z</time>
      </trkpt>
      <trkpt lat="43.16458" lon="-1.1913">
        <ele>208.26</ele>
        <time>2021-08-20T16:04:19Z</time>
      </trkpt>
      <trkpt lat="43.16455" lon="-1.19135">
        <ele>207.78</ele>
        <time>2021-08-20T16:04:20Z</time>
      </trkpt>
      <trkpt lat="43.16436" lon="-1.19173">
        <ele>205.86</ele>
        <time>2021-08-20T16:04:26Z</time>
      </trkpt>
      <trkpt lat="43.16434" lon="-1.19181">
        <ele>205.86</ele>
        <time>2021-08-20T16:04:27Z</time>
      </trkpt>
      <trkpt lat="43.16433" lon="-1.19189">
        <ele>205.86</ele>
        <time>2021-08-20T16:04:28Z</time>
      </trkpt>
      <trkpt lat="43.16433" lon="-1.19196">
        <ele>205.86</ele>
        <time>2021-08-20T16:04:29Z</time>
      </trkpt>
      <trkpt lat="43.16433" lon="-1.19204">
        <ele>206.34</ele>
        <time>2021-08-20T16:04:30Z</time>
      </trkpt>
      <trkpt lat="43.16433" lon="-1.19211">
        <ele>206.34</ele>
        <time>2021-08-20T16:04:31Z</time>
      </trkpt>
      <trkpt lat="43.16438" lon="-1.19278">
        <ele>205.86</ele>
        <time>2021-08-20T16:04:40Z</time>
      </trkpt>
      <trkpt lat="43.16437" lon="-1.193">
        <ele>205.86</ele>
        <time>2021-08-20T16:04:43Z</time>
      </trkpt>
      <trkpt lat="43.16438" lon="-1.19306">
        <ele>205.86</ele>
        <time>2021-08-20T16:04:44Z</time>
      </trkpt>
      <trkpt lat="43.16444" lon="-1.19332">
        <ele>205.86</ele>
        <time>2021-08-20T16:04:49Z</time>
      </trkpt>
      <trkpt lat="43.16458" lon="-1.19342">
        <ele>205.86</ele>
        <time>2021-08-20T16:04:54Z</time>
      </trkpt>
      <trkpt lat="43.16474" lon="-1.19352">
        <ele>207.3</ele>
        <time>2021-08-20T16:05:00Z</time>
      </trkpt>
      <trkpt lat="43.16477" lon="-1.19353">
        <ele>207.3</ele>
        <time>2021-08-20T16:05:01Z</time>
      </trkpt>
      <trkpt lat="43.16493" lon="-1.19361">
        <ele>207.78</ele>
        <time>2021-08-20T16:05:08Z</time>
      </trkpt>
      <trkpt lat="43.16512" lon="-1.19369">
        <ele>208.74</ele>
        <time>2021-08-20T16:05:17Z</time>
      </trkpt>
      <trkpt lat="43.16529" lon="-1.19376">
        <ele>209.7</ele>
        <time>2021-08-20T16:05:25Z</time>
      </trkpt>
      <trkpt lat="43.1654" lon="-1.19384">
        <ele>210.19</ele>
        <time>2021-08-20T16:05:32Z</time>
      </trkpt>
      <trkpt lat="43.16544" lon="-1.19387">
        <ele>210.19</ele>
        <time>2021-08-20T16:05:35Z</time>
      </trkpt>
      <trkpt lat="43.16546" lon="-1.19387">
        <ele>210.19</ele>
        <time>2021-08-20T16:05:36Z</time>
      </trkpt>
      <trkpt lat="43.16548" lon="-1.19386">
        <ele>210.19</ele>
        <time>2021-08-20T16:05:37Z</time>
      </trkpt>
      <trkpt lat="43.1655" lon="-1.19385">
        <ele>210.19</ele>
        <time>2021-08-20T16:05:38Z</time>
      </trkpt>
      <trkpt lat="43.16551" lon="-1.19383">
        <ele>210.19</ele>
        <time>2021-08-20T16:05:39Z</time>
      </trkpt>
      <trkpt lat="43.16554" lon="-1.19382">
        <ele>210.19</ele>
        <time>2021-08-20T16:05:40Z</time>
      </trkpt>
      <trkpt lat="43.16556" lon="-1.19381">
        <ele>210.19</ele>
        <time>2021-08-20T16:05:41Z</time>
      </trkpt>
      <trkpt lat="43.16558" lon="-1.19381">
        <ele>210.19</ele>
        <time>2021-08-20T16:05:42Z</time>
      </trkpt>
      <trkpt lat="43.16567" lon="-1.1938">
        <ele>210.19</ele>
        <time>2021-08-20T16:05:46Z</time>
      </trkpt>
      <trkpt lat="43.16569" lon="-1.19382">
        <ele>210.19</ele>
        <time>2021-08-20T16:05:47Z</time>
      </trkpt>
      <trkpt lat="43.1657" lon="-1.19385">
        <ele>210.19</ele>
        <time>2021-08-20T16:05:48Z</time>
      </trkpt>
      <trkpt lat="43.16577" lon="-1.19401">
        <ele>210.19</ele>
        <time>2021-08-20T16:05:55Z</time>
      </trkpt>
      <trkpt lat="43.16577" lon="-1.19401">
        <ele>210.19</ele>
        <time>2021-08-20T16:06:03Z</time>
      </trkpt>
      <trkpt lat="43.16576" lon="-1.19402">
        <ele>210.19</ele>
        <time>2021-08-20T16:06:08Z</time>
      </trkpt>
      <trkpt lat="43.16575" lon="-1.19403">
        <ele>210.19</ele>
        <time>2021-08-20T16:06:09Z</time>
      </trkpt>
      <trkpt lat="43.16574" lon="-1.19403">
        <ele>210.19</ele>
        <time>2021-08-20T16:06:10Z</time>
      </trkpt>
      <trkpt lat="43.16572" lon="-1.19403">
        <ele>210.19</ele>
        <time>2021-08-20T16:06:11Z</time>
      </trkpt>
      <trkpt lat="43.16571" lon="-1.19403">
        <ele>210.19</ele>
        <time>2021-08-20T16:06:12Z</time>
      </trkpt>
      <trkpt lat="43.1657" lon="-1.19402">
        <ele>210.19</ele>
        <time>2021-08-20T16:06:13Z</time>
      </trkpt>
      <trkpt lat="43.1657" lon="-1.194">
        <ele>210.19</ele>
        <time>2021-08-20T16:06:14Z</time>
      </trkpt>
      <trkpt lat="43.16571" lon="-1.19398">
        <ele>210.19</ele>
        <time>2021-08-20T16:06:15Z</time>
      </trkpt>
      <trkpt lat="43.16572" lon="-1.19397">
        <ele>210.19</ele>
        <time>2021-08-20T16:06:16Z</time>
      </trkpt>
      <trkpt lat="43.16574" lon="-1.19395">
        <ele>210.19</ele>
        <time>2021-08-20T16:06:17Z</time>
      </trkpt>
      <trkpt lat="43.16577" lon="-1.19394">
        <ele>210.19</ele>
        <time>2021-08-20T16:06:18Z</time>
      </trkpt>
      <trkpt lat="43.16579" lon="-1.19395">
        <ele>210.19</ele>
        <time>2021-08-20T16:06:19Z</time>
      </trkpt>
      <trkpt lat="43.1658" lon="-1.19398">
        <ele>210.19</ele>
        <time>2021-08-20T16:06:20Z</time>
      </trkpt>
      <trkpt lat="43.16581" lon="-1.19404">
        <ele>210.19</ele>
        <time>2021-08-20T16:06:25Z</time>
      </trkpt>
      <trkpt lat="43.16582" lon="-1.19409">
        <ele>210.19</ele>
        <time>2021-08-20T16:06:32Z</time>
      </trkpt>
      <trkpt lat="43.16583" lon="-1.1941">
        <ele>210.19</ele>
        <time>2021-08-20T16:06:39Z</time>
      </trkpt>
      <trkpt lat="43.16585" lon="-1.19416">
        <ele>210.19</ele>
        <time>2021-08-20T16:06:49Z</time>
      </trkpt>
      <trkpt lat="43.16596" lon="-1.19433">
        <ele>210.19</ele>
        <time>2021-08-20T16:06:54Z</time>
      </trkpt>
      <trkpt lat="43.16622" lon="-1.19461">
        <ele>209.22</ele>
        <time>2021-08-20T16:07:02Z</time>
      </trkpt>
      <trkpt lat="43.16647" lon="-1.19499">
        <ele>207.78</ele>
        <time>2021-08-20T16:07:10Z</time>
      </trkpt>
      <trkpt lat="43.16649" lon="-1.19505">
        <ele>207.78</ele>
        <time>2021-08-20T16:07:11Z</time>
      </trkpt>
      <trkpt lat="43.16651" lon="-1.19511">
        <ele>207.78</ele>
        <time>2021-08-20T16:07:12Z</time>
      </trkpt>
      <trkpt lat="43.16653" lon="-1.19516">
        <ele>207.78</ele>
        <time>2021-08-20T16:07:13Z</time>
      </trkpt>
      <trkpt lat="43.16653" lon="-1.19522">
        <ele>207.78</ele>
        <time>2021-08-20T16:07:14Z</time>
      </trkpt>
      <trkpt lat="43.16654" lon="-1.19528">
        <ele>207.78</ele>
        <time>2021-08-20T16:07:15Z</time>
      </trkpt>
      <trkpt lat="43.16655" lon="-1.19534">
        <ele>207.78</ele>
        <time>2021-08-20T16:07:16Z</time>
      </trkpt>
      <trkpt lat="43.16656" lon="-1.19539">
        <ele>207.78</ele>
        <time>2021-08-20T16:07:17Z</time>
      </trkpt>
      <trkpt lat="43.16663" lon="-1.1957">
        <ele>207.3</ele>
        <time>2021-08-20T16:07:22Z</time>
      </trkpt>
      <trkpt lat="43.16671" lon="-1.19636">
        <ele>207.3</ele>
        <time>2021-08-20T16:07:31Z</time>
      </trkpt>
      <trkpt lat="43.1668" lon="-1.19683">
        <ele>206.82</ele>
        <time>2021-08-20T16:07:38Z</time>
      </trkpt>
      <trkpt lat="43.16684" lon="-1.19688">
        <ele>206.82</ele>
        <time>2021-08-20T16:07:39Z</time>
      </trkpt>
      <trkpt lat="43.16689" lon="-1.19691">
        <ele>206.82</ele>
        <time>2021-08-20T16:07:40Z</time>
      </trkpt>
      <trkpt lat="43.16698" lon="-1.19696">
        <ele>206.82</ele>
        <time>2021-08-20T16:07:42Z</time>
      </trkpt>
      <trkpt lat="43.16703" lon="-1.197">
        <ele>206.82</ele>
        <time>2021-08-20T16:07:43Z</time>
      </trkpt>
      <trkpt lat="43.16707" lon="-1.19706">
        <ele>206.82</ele>
        <time>2021-08-20T16:07:44Z</time>
      </trkpt>
      <trkpt lat="43.1671" lon="-1.19712">
        <ele>206.82</ele>
        <time>2021-08-20T16:07:45Z</time>
      </trkpt>
      <trkpt lat="43.16712" lon="-1.19719">
        <ele>206.82</ele>
        <time>2021-08-20T16:07:46Z</time>
      </trkpt>
      <trkpt lat="43.16713" lon="-1.19726">
        <ele>206.34</ele>
        <time>2021-08-20T16:07:47Z</time>
      </trkpt>
      <trkpt lat="43.16714" lon="-1.19734">
        <ele>206.34</ele>
        <time>2021-08-20T16:07:48Z</time>
      </trkpt>
      <trkpt lat="43.16716" lon="-1.19798">
        <ele>205.86</ele>
        <time>2021-08-20T16:07:55Z</time>
      </trkpt>
      <trkpt lat="43.16719" lon="-1.19869">
        <ele>204.9</ele>
        <time>2021-08-20T16:08:02Z</time>
      </trkpt>
      <trkpt lat="43.16728" lon="-1.19939">
        <ele>204.9</ele>
        <time>2021-08-20T16:08:10Z</time>
      </trkpt>
      <trkpt lat="43.16746" lon="-1.20015">
        <ele>201.53</ele>
        <time>2021-08-20T16:08:19Z</time>
      </trkpt>
      <trkpt lat="43.16749" lon="-1.20024">
        <ele>201.53</ele>
        <time>2021-08-20T16:08:20Z</time>
      </trkpt>
      <trkpt lat="43.16754" lon="-1.20031">
        <ele>201.05</ele>
        <time>2021-08-20T16:08:21Z</time>
      </trkpt>
      <trkpt lat="43.16759" lon="-1.20037">
        <ele>201.05</ele>
        <time>2021-08-20T16:08:22Z</time>
      </trkpt>
      <trkpt lat="43.16775" lon="-1.2005">
        <ele>201.05</ele>
        <time>2021-08-20T16:08:25Z</time>
      </trkpt>
      <trkpt lat="43.16777" lon="-1.20057">
        <ele>201.05</ele>
        <time>2021-08-20T16:08:26Z</time>
      </trkpt>
      <trkpt lat="43.16777" lon="-1.20063">
        <ele>201.05</ele>
        <time>2021-08-20T16:08:27Z</time>
      </trkpt>
      <trkpt lat="43.16775" lon="-1.20068">
        <ele>201.05</ele>
        <time>2021-08-20T16:08:28Z</time>
      </trkpt>
      <trkpt lat="43.16773" lon="-1.20072">
        <ele>201.05</ele>
        <time>2021-08-20T16:08:29Z</time>
      </trkpt>
      <trkpt lat="43.16772" lon="-1.20077">
        <ele>202.49</ele>
        <time>2021-08-20T16:08:30Z</time>
      </trkpt>
      <trkpt lat="43.1677" lon="-1.20082">
        <ele>202.49</ele>
        <time>2021-08-20T16:08:31Z</time>
      </trkpt>
      <trkpt lat="43.16767" lon="-1.20115">
        <ele>203.46</ele>
        <time>2021-08-20T16:08:38Z</time>
      </trkpt>
      <trkpt lat="43.16773" lon="-1.20142">
        <ele>203.46</ele>
        <time>2021-08-20T16:08:44Z</time>
      </trkpt>
      <trkpt lat="43.1678" lon="-1.20186">
        <ele>203.46</ele>
        <time>2021-08-20T16:08:54Z</time>
      </trkpt>
      <trkpt lat="43.16792" lon="-1.20233">
        <ele>203.46</ele>
        <time>2021-08-20T16:09:03Z</time>
      </trkpt>
      <trkpt lat="43.16807" lon="-1.20293">
        <ele>202.01</ele>
        <time>2021-08-20T16:09:13Z</time>
      </trkpt>
      <trkpt lat="43.16823" lon="-1.20345">
        <ele>200.57</ele>
        <time>2021-08-20T16:09:21Z</time>
      </trkpt>
      <trkpt lat="43.16843" lon="-1.20396">
        <ele>200.09</ele>
        <time>2021-08-20T16:09:29Z</time>
      </trkpt>
      <trkpt lat="43.16871" lon="-1.20449">
        <ele>199.61</ele>
        <time>2021-08-20T16:09:38Z</time>
      </trkpt>
      <trkpt lat="43.16881" lon="-1.20465">
        <ele>199.13</ele>
        <time>2021-08-20T16:09:41Z</time>
      </trkpt>
      <trkpt lat="43.16892" lon="-1.20488">
        <ele>199.13</ele>
        <time>2021-08-20T16:09:45Z</time>
      </trkpt>
      <trkpt lat="43.16894" lon="-1.20494">
        <ele>199.13</ele>
        <time>2021-08-20T16:09:46Z</time>
      </trkpt>
      <trkpt lat="43.16893" lon="-1.20501">
        <ele>199.13</ele>
        <time>2021-08-20T16:09:47Z</time>
      </trkpt>
      <trkpt lat="43.16891" lon="-1.20505">
        <ele>199.13</ele>
        <time>2021-08-20T16:09:48Z</time>
      </trkpt>
      <trkpt lat="43.16889" lon="-1.2051">
        <ele>199.13</ele>
        <time>2021-08-20T16:09:49Z</time>
      </trkpt>
      <trkpt lat="43.16886" lon="-1.20515">
        <ele>199.13</ele>
        <time>2021-08-20T16:09:50Z</time>
      </trkpt>
      <trkpt lat="43.16883" lon="-1.20519">
        <ele>199.13</ele>
        <time>2021-08-20T16:09:51Z</time>
      </trkpt>
      <trkpt lat="43.16857" lon="-1.20566">
        <ele>199.13</ele>
        <time>2021-08-20T16:10:01Z</time>
      </trkpt>
      <trkpt lat="43.16837" lon="-1.20606">
        <ele>198.17</ele>
        <time>2021-08-20T16:10:08Z</time>
      </trkpt>
      <trkpt lat="43.16811" lon="-1.20658">
        <ele>197.21</ele>
        <time>2021-08-20T16:10:16Z</time>
      </trkpt>
      <trkpt lat="43.16809" lon="-1.20666">
        <ele>196.73</ele>
        <time>2021-08-20T16:10:17Z</time>
      </trkpt>
      <trkpt lat="43.16791" lon="-1.20739">
        <ele>195.28</ele>
        <time>2021-08-20T16:10:26Z</time>
      </trkpt>
      <trkpt lat="43.16784" lon="-1.20767">
        <ele>193.36</ele>
        <time>2021-08-20T16:10:29Z</time>
      </trkpt>
      <trkpt lat="43.16772" lon="-1.20837">
        <ele>192.4</ele>
        <time>2021-08-20T16:10:37Z</time>
      </trkpt>
      <trkpt lat="43.1677" lon="-1.20851">
        <ele>192.4</ele>
        <time>2021-08-20T16:10:39Z</time>
      </trkpt>
      <trkpt lat="43.16768" lon="-1.20856">
        <ele>192.4</ele>
        <time>2021-08-20T16:10:40Z</time>
      </trkpt>
      <trkpt lat="43.16767" lon="-1.20861">
        <ele>192.4</ele>
        <time>2021-08-20T16:10:41Z</time>
      </trkpt>
      <trkpt lat="43.16766" lon="-1.20866">
        <ele>192.4</ele>
        <time>2021-08-20T16:10:42Z</time>
      </trkpt>
      <trkpt lat="43.16766" lon="-1.20871">
        <ele>192.4</ele>
        <time>2021-08-20T16:10:43Z</time>
      </trkpt>
      <trkpt lat="43.16765" lon="-1.20883">
        <ele>192.4</ele>
        <time>2021-08-20T16:10:45Z</time>
      </trkpt>
      <trkpt lat="43.16762" lon="-1.20915">
        <ele>190.96</ele>
        <time>2021-08-20T16:10:49Z</time>
      </trkpt>
      <trkpt lat="43.16752" lon="-1.20975">
        <ele>190</ele>
        <time>2021-08-20T16:10:56Z</time>
      </trkpt>
      <trkpt lat="43.16751" lon="-1.20981">
        <ele>190</ele>
        <time>2021-08-20T16:10:57Z</time>
      </trkpt>
      <trkpt lat="43.1675" lon="-1.20988">
        <ele>190</ele>
        <time>2021-08-20T16:10:58Z</time>
      </trkpt>
      <trkpt lat="43.16748" lon="-1.20995">
        <ele>190</ele>
        <time>2021-08-20T16:10:59Z</time>
      </trkpt>
      <trkpt lat="43.16746" lon="-1.21001">
        <ele>190</ele>
        <time>2021-08-20T16:11:00Z</time>
      </trkpt>
      <trkpt lat="43.16742" lon="-1.21007">
        <ele>190</ele>
        <time>2021-08-20T16:11:01Z</time>
      </trkpt>
      <trkpt lat="43.16738" lon="-1.21013">
        <ele>189.52</ele>
        <time>2021-08-20T16:11:02Z</time>
      </trkpt>
      <trkpt lat="43.16734" lon="-1.21017">
        <ele>189.52</ele>
        <time>2021-08-20T16:11:03Z</time>
      </trkpt>
      <trkpt lat="43.16729" lon="-1.21021">
        <ele>189.52</ele>
        <time>2021-08-20T16:11:04Z</time>
      </trkpt>
      <trkpt lat="43.16725" lon="-1.21025">
        <ele>189.04</ele>
        <time>2021-08-20T16:11:05Z</time>
      </trkpt>
      <trkpt lat="43.16721" lon="-1.21031">
        <ele>189.04</ele>
        <time>2021-08-20T16:11:06Z</time>
      </trkpt>
      <trkpt lat="43.1672" lon="-1.21037">
        <ele>189.04</ele>
        <time>2021-08-20T16:11:07Z</time>
      </trkpt>
      <trkpt lat="43.1672" lon="-1.21044">
        <ele>189.04</ele>
        <time>2021-08-20T16:11:08Z</time>
      </trkpt>
      <trkpt lat="43.16719" lon="-1.2105">
        <ele>189.04</ele>
        <time>2021-08-20T16:11:09Z</time>
      </trkpt>
      <trkpt lat="43.16719" lon="-1.21057">
        <ele>189.04</ele>
        <time>2021-08-20T16:11:10Z</time>
      </trkpt>
      <trkpt lat="43.16719" lon="-1.21062">
        <ele>189.04</ele>
        <time>2021-08-20T16:11:11Z</time>
      </trkpt>
      <trkpt lat="43.16718" lon="-1.21066">
        <ele>189.04</ele>
        <time>2021-08-20T16:11:12Z</time>
      </trkpt>
      <trkpt lat="43.16715" lon="-1.21069">
        <ele>189.04</ele>
        <time>2021-08-20T16:11:13Z</time>
      </trkpt>
      <trkpt lat="43.16711" lon="-1.21069">
        <ele>189.04</ele>
        <time>2021-08-20T16:11:14Z</time>
      </trkpt>
      <trkpt lat="43.16707" lon="-1.2107">
        <ele>188.56</ele>
        <time>2021-08-20T16:11:15Z</time>
      </trkpt>
      <trkpt lat="43.16703" lon="-1.2107">
        <ele>188.08</ele>
        <time>2021-08-20T16:11:16Z</time>
      </trkpt>
      <trkpt lat="43.16681" lon="-1.21072">
        <ele>186.63</ele>
        <time>2021-08-20T16:11:20Z</time>
      </trkpt>
      <trkpt lat="43.16668" lon="-1.21071">
        <ele>186.63</ele>
        <time>2021-08-20T16:11:23Z</time>
      </trkpt>
      <trkpt lat="43.16667" lon="-1.21068">
        <ele>186.63</ele>
        <time>2021-08-20T16:11:24Z</time>
      </trkpt>
      <trkpt lat="43.16666" lon="-1.21065">
        <ele>186.63</ele>
        <time>2021-08-20T16:11:25Z</time>
      </trkpt>
      <trkpt lat="43.16666" lon="-1.21063">
        <ele>186.63</ele>
        <time>2021-08-20T16:11:26Z</time>
      </trkpt>
      <trkpt lat="43.16666" lon="-1.21061">
        <ele>187.59</ele>
        <time>2021-08-20T16:11:27Z</time>
      </trkpt>
      <trkpt lat="43.16666" lon="-1.21058">
        <ele>187.59</ele>
        <time>2021-08-20T16:11:28Z</time>
      </trkpt>
      <trkpt lat="43.16665" lon="-1.21036">
        <ele>189.04</ele>
        <time>2021-08-20T16:11:36Z</time>
      </trkpt>
      <trkpt lat="43.16664" lon="-1.21031">
        <ele>189.52</ele>
        <time>2021-08-20T16:11:38Z</time>
      </trkpt>
      <trkpt lat="43.16662" lon="-1.21029">
        <ele>189.52</ele>
        <time>2021-08-20T16:11:39Z</time>
      </trkpt>
      <trkpt lat="43.16659" lon="-1.21029">
        <ele>189.52</ele>
        <time>2021-08-20T16:11:40Z</time>
      </trkpt>
      <trkpt lat="43.16655" lon="-1.21029">
        <ele>189.52</ele>
        <time>2021-08-20T16:11:41Z</time>
      </trkpt>
      <trkpt lat="43.16652" lon="-1.21031">
        <ele>189.52</ele>
        <time>2021-08-20T16:11:42Z</time>
      </trkpt>
      <trkpt lat="43.16648" lon="-1.21033">
        <ele>189.52</ele>
        <time>2021-08-20T16:11:43Z</time>
      </trkpt>
      <trkpt lat="43.16623" lon="-1.2104">
        <ele>189.52</ele>
        <time>2021-08-20T16:11:50Z</time>
      </trkpt>
      <trkpt lat="43.16608" lon="-1.2104">
        <ele>189.52</ele>
        <time>2021-08-20T16:11:55Z</time>
      </trkpt>
      <trkpt lat="43.16574" lon="-1.21059">
        <ele>189.52</ele>
        <time>2021-08-20T16:12:04Z</time>
      </trkpt>
      <trkpt lat="43.16543" lon="-1.21074">
        <ele>189.52</ele>
        <time>2021-08-20T16:12:13Z</time>
      </trkpt>
      <trkpt lat="43.16539" lon="-1.21082">
        <ele>189.52</ele>
        <time>2021-08-20T16:12:15Z</time>
      </trkpt>
      <trkpt lat="43.16538" lon="-1.21087">
        <ele>189.52</ele>
        <time>2021-08-20T16:12:16Z</time>
      </trkpt>
      <trkpt lat="43.16539" lon="-1.21092">
        <ele>189.52</ele>
        <time>2021-08-20T16:12:17Z</time>
      </trkpt>
      <trkpt lat="43.1654" lon="-1.21098">
        <ele>189.52</ele>
        <time>2021-08-20T16:12:18Z</time>
      </trkpt>
      <trkpt lat="43.16541" lon="-1.21104">
        <ele>189.52</ele>
        <time>2021-08-20T16:12:19Z</time>
      </trkpt>
      <trkpt lat="43.16542" lon="-1.21111">
        <ele>188.08</ele>
        <time>2021-08-20T16:12:20Z</time>
      </trkpt>
      <trkpt lat="43.16543" lon="-1.21118">
        <ele>187.11</ele>
        <time>2021-08-20T16:12:21Z</time>
      </trkpt>
      <trkpt lat="43.16544" lon="-1.21126">
        <ele>187.11</ele>
        <time>2021-08-20T16:12:22Z</time>
      </trkpt>
      <trkpt lat="43.16554" lon="-1.21214">
        <ele>185.67</ele>
        <time>2021-08-20T16:12:33Z</time>
      </trkpt>
      <trkpt lat="43.16562" lon="-1.2128">
        <ele>184.23</ele>
        <time>2021-08-20T16:12:41Z</time>
      </trkpt>
      <trkpt lat="43.16574" lon="-1.21364">
        <ele>183.27</ele>
        <time>2021-08-20T16:12:51Z</time>
      </trkpt>
      <trkpt lat="43.16582" lon="-1.21412">
        <ele>182.79</ele>
        <time>2021-08-20T16:12:57Z</time>
      </trkpt>
      <trkpt lat="43.16598" lon="-1.21482">
        <ele>181.83</ele>
        <time>2021-08-20T16:13:06Z</time>
      </trkpt>
      <trkpt lat="43.16615" lon="-1.21547">
        <ele>181.35</ele>
        <time>2021-08-20T16:13:15Z</time>
      </trkpt>
      <trkpt lat="43.16615" lon="-1.21553">
        <ele>181.35</ele>
        <time>2021-08-20T16:13:16Z</time>
      </trkpt>
      <trkpt lat="43.16622" lon="-1.21619">
        <ele>181.35</ele>
        <time>2021-08-20T16:13:26Z</time>
      </trkpt>
      <trkpt lat="43.16622" lon="-1.21673">
        <ele>181.35</ele>
        <time>2021-08-20T16:13:34Z</time>
      </trkpt>
      <trkpt lat="43.16621" lon="-1.21686">
        <ele>181.35</ele>
        <time>2021-08-20T16:13:36Z</time>
      </trkpt>
      <trkpt lat="43.1662" lon="-1.21714">
        <ele>181.35</ele>
        <time>2021-08-20T16:13:40Z</time>
      </trkpt>
      <trkpt lat="43.16622" lon="-1.21739">
        <ele>180.87</ele>
        <time>2021-08-20T16:13:44Z</time>
      </trkpt>
      <trkpt lat="43.16622" lon="-1.21745">
        <ele>180.87</ele>
        <time>2021-08-20T16:13:45Z</time>
      </trkpt>
      <trkpt lat="43.1662" lon="-1.2175">
        <ele>180.87</ele>
        <time>2021-08-20T16:13:46Z</time>
      </trkpt>
      <trkpt lat="43.16618" lon="-1.21756">
        <ele>180.87</ele>
        <time>2021-08-20T16:13:47Z</time>
      </trkpt>
      <trkpt lat="43.16617" lon="-1.2176">
        <ele>180.87</ele>
        <time>2021-08-20T16:13:48Z</time>
      </trkpt>
      <trkpt lat="43.16614" lon="-1.21764">
        <ele>180.87</ele>
        <time>2021-08-20T16:13:49Z</time>
      </trkpt>
      <trkpt lat="43.16611" lon="-1.21766">
        <ele>180.87</ele>
        <time>2021-08-20T16:13:50Z</time>
      </trkpt>
      <trkpt lat="43.16608" lon="-1.21768">
        <ele>180.87</ele>
        <time>2021-08-20T16:13:51Z</time>
      </trkpt>
      <trkpt lat="43.16595" lon="-1.21776">
        <ele>180.38</ele>
        <time>2021-08-20T16:13:54Z</time>
      </trkpt>
      <trkpt lat="43.16563" lon="-1.21807">
        <ele>178.94</ele>
        <time>2021-08-20T16:14:01Z</time>
      </trkpt>
      <trkpt lat="43.16558" lon="-1.21813">
        <ele>177.98</ele>
        <time>2021-08-20T16:14:02Z</time>
      </trkpt>
      <trkpt lat="43.16554" lon="-1.2182">
        <ele>177.98</ele>
        <time>2021-08-20T16:14:03Z</time>
      </trkpt>
      <trkpt lat="43.16534" lon="-1.21855">
        <ele>177.98</ele>
        <time>2021-08-20T16:14:09Z</time>
      </trkpt>
      <trkpt lat="43.16531" lon="-1.2186">
        <ele>177.98</ele>
        <time>2021-08-20T16:14:10Z</time>
      </trkpt>
      <trkpt lat="43.16528" lon="-1.21864">
        <ele>177.98</ele>
        <time>2021-08-20T16:14:11Z</time>
      </trkpt>
      <trkpt lat="43.16514" lon="-1.21876">
        <ele>177.5</ele>
        <time>2021-08-20T16:14:14Z</time>
      </trkpt>
      <trkpt lat="43.1651" lon="-1.21881">
        <ele>177.5</ele>
        <time>2021-08-20T16:14:15Z</time>
      </trkpt>
      <trkpt lat="43.16506" lon="-1.21887">
        <ele>177.5</ele>
        <time>2021-08-20T16:14:16Z</time>
      </trkpt>
      <trkpt lat="43.16502" lon="-1.21894">
        <ele>177.5</ele>
        <time>2021-08-20T16:14:17Z</time>
      </trkpt>
      <trkpt lat="43.16499" lon="-1.21902">
        <ele>176.54</ele>
        <time>2021-08-20T16:14:18Z</time>
      </trkpt>
      <trkpt lat="43.16479" lon="-1.21963">
        <ele>176.06</ele>
        <time>2021-08-20T16:14:26Z</time>
      </trkpt>
      <trkpt lat="43.16477" lon="-1.2197">
        <ele>176.06</ele>
        <time>2021-08-20T16:14:27Z</time>
      </trkpt>
      <trkpt lat="43.16477" lon="-1.21978">
        <ele>176.06</ele>
        <time>2021-08-20T16:14:28Z</time>
      </trkpt>
      <trkpt lat="43.16477" lon="-1.21986">
        <ele>176.06</ele>
        <time>2021-08-20T16:14:29Z</time>
      </trkpt>
      <trkpt lat="43.16479" lon="-1.22007">
        <ele>176.06</ele>
        <time>2021-08-20T16:14:32Z</time>
      </trkpt>
      <trkpt lat="43.1648" lon="-1.22014">
        <ele>176.06</ele>
        <time>2021-08-20T16:14:33Z</time>
      </trkpt>
      <trkpt lat="43.16479" lon="-1.22022">
        <ele>176.06</ele>
        <time>2021-08-20T16:14:34Z</time>
      </trkpt>
      <trkpt lat="43.16479" lon="-1.2203">
        <ele>175.58</ele>
        <time>2021-08-20T16:14:35Z</time>
      </trkpt>
      <trkpt lat="43.16477" lon="-1.22038">
        <ele>175.58</ele>
        <time>2021-08-20T16:14:36Z</time>
      </trkpt>
      <trkpt lat="43.1646" lon="-1.22104">
        <ele>174.62</ele>
        <time>2021-08-20T16:14:44Z</time>
      </trkpt>
      <trkpt lat="43.16445" lon="-1.22156">
        <ele>174.62</ele>
        <time>2021-08-20T16:14:51Z</time>
      </trkpt>
      <trkpt lat="43.16444" lon="-1.22164">
        <ele>174.62</ele>
        <time>2021-08-20T16:14:52Z</time>
      </trkpt>
      <trkpt lat="43.16436" lon="-1.22201">
        <ele>174.62</ele>
        <time>2021-08-20T16:14:57Z</time>
      </trkpt>
      <trkpt lat="43.16428" lon="-1.22254">
        <ele>174.62</ele>
        <time>2021-08-20T16:15:04Z</time>
      </trkpt>
      <trkpt lat="43.16425" lon="-1.22287">
        <ele>174.62</ele>
        <time>2021-08-20T16:15:09Z</time>
      </trkpt>
      <trkpt lat="43.16425" lon="-1.22293">
        <ele>174.62</ele>
        <time>2021-08-20T16:15:10Z</time>
      </trkpt>
      <trkpt lat="43.16426" lon="-1.22299">
        <ele>174.62</ele>
        <time>2021-08-20T16:15:11Z</time>
      </trkpt>
      <trkpt lat="43.16427" lon="-1.22305">
        <ele>174.62</ele>
        <time>2021-08-20T16:15:12Z</time>
      </trkpt>
      <trkpt lat="43.16426" lon="-1.22311">
        <ele>174.62</ele>
        <time>2021-08-20T16:15:13Z</time>
      </trkpt>
      <trkpt lat="43.16426" lon="-1.22318">
        <ele>174.62</ele>
        <time>2021-08-20T16:15:14Z</time>
      </trkpt>
      <trkpt lat="43.16425" lon="-1.22324">
        <ele>174.62</ele>
        <time>2021-08-20T16:15:15Z</time>
      </trkpt>
      <trkpt lat="43.16423" lon="-1.2233">
        <ele>174.62</ele>
        <time>2021-08-20T16:15:16Z</time>
      </trkpt>
      <trkpt lat="43.16421" lon="-1.22336">
        <ele>174.62</ele>
        <time>2021-08-20T16:15:17Z</time>
      </trkpt>
      <trkpt lat="43.16419" lon="-1.22342">
        <ele>174.62</ele>
        <time>2021-08-20T16:15:18Z</time>
      </trkpt>
      <trkpt lat="43.16417" lon="-1.22349">
        <ele>174.62</ele>
        <time>2021-08-20T16:15:19Z</time>
      </trkpt>
      <trkpt lat="43.16416" lon="-1.22355">
        <ele>174.62</ele>
        <time>2021-08-20T16:15:20Z</time>
      </trkpt>
      <trkpt lat="43.16415" lon="-1.22362">
        <ele>174.62</ele>
        <time>2021-08-20T16:15:21Z</time>
      </trkpt>
      <trkpt lat="43.16414" lon="-1.22389">
        <ele>174.62</ele>
        <time>2021-08-20T16:15:25Z</time>
      </trkpt>
      <trkpt lat="43.16413" lon="-1.22395">
        <ele>174.62</ele>
        <time>2021-08-20T16:15:26Z</time>
      </trkpt>
      <trkpt lat="43.16409" lon="-1.22407">
        <ele>174.62</ele>
        <time>2021-08-20T16:15:28Z</time>
      </trkpt>
      <trkpt lat="43.16406" lon="-1.22413">
        <ele>174.62</ele>
        <time>2021-08-20T16:15:29Z</time>
      </trkpt>
      <trkpt lat="43.16404" lon="-1.22418">
        <ele>174.62</ele>
        <time>2021-08-20T16:15:30Z</time>
      </trkpt>
      <trkpt lat="43.16402" lon="-1.22424">
        <ele>174.62</ele>
        <time>2021-08-20T16:15:31Z</time>
      </trkpt>
      <trkpt lat="43.16401" lon="-1.22429">
        <ele>174.62</ele>
        <time>2021-08-20T16:15:32Z</time>
      </trkpt>
      <trkpt lat="43.164" lon="-1.22435">
        <ele>174.62</ele>
        <time>2021-08-20T16:15:33Z</time>
      </trkpt>
      <trkpt lat="43.16399" lon="-1.2244">
        <ele>174.62</ele>
        <time>2021-08-20T16:15:34Z</time>
      </trkpt>
      <trkpt lat="43.16398" lon="-1.22445">
        <ele>174.62</ele>
        <time>2021-08-20T16:15:35Z</time>
      </trkpt>
      <trkpt lat="43.16397" lon="-1.2245">
        <ele>174.62</ele>
        <time>2021-08-20T16:15:36Z</time>
      </trkpt>
      <trkpt lat="43.16395" lon="-1.22454">
        <ele>174.62</ele>
        <time>2021-08-20T16:15:37Z</time>
      </trkpt>
      <trkpt lat="43.16394" lon="-1.22459">
        <ele>174.62</ele>
        <time>2021-08-20T16:15:38Z</time>
      </trkpt>
      <trkpt lat="43.16393" lon="-1.22464">
        <ele>174.62</ele>
        <time>2021-08-20T16:15:39Z</time>
      </trkpt>
      <trkpt lat="43.16387" lon="-1.22501">
        <ele>177.02</ele>
        <time>2021-08-20T16:15:47Z</time>
      </trkpt>
      <trkpt lat="43.16379" lon="-1.22539">
        <ele>177.98</ele>
        <time>2021-08-20T16:15:56Z</time>
      </trkpt>
      <trkpt lat="43.1637" lon="-1.22576">
        <ele>178.46</ele>
        <time>2021-08-20T16:16:05Z</time>
      </trkpt>
      <trkpt lat="43.16362" lon="-1.22615">
        <ele>178.46</ele>
        <time>2021-08-20T16:16:14Z</time>
      </trkpt>
      <trkpt lat="43.16354" lon="-1.22655">
        <ele>178.94</ele>
        <time>2021-08-20T16:16:22Z</time>
      </trkpt>
      <trkpt lat="43.16346" lon="-1.22698">
        <ele>179.9</ele>
        <time>2021-08-20T16:16:32Z</time>
      </trkpt>
      <trkpt lat="43.16342" lon="-1.22733">
        <ele>179.9</ele>
        <time>2021-08-20T16:16:39Z</time>
      </trkpt>
      <trkpt lat="43.16337" lon="-1.22765">
        <ele>180.38</ele>
        <time>2021-08-20T16:16:45Z</time>
      </trkpt>
      <trkpt lat="43.16336" lon="-1.2277">
        <ele>180.38</ele>
        <time>2021-08-20T16:16:46Z</time>
      </trkpt>
      <trkpt lat="43.16322" lon="-1.22815">
        <ele>181.35</ele>
        <time>2021-08-20T16:16:55Z</time>
      </trkpt>
      <trkpt lat="43.16301" lon="-1.22854">
        <ele>181.35</ele>
        <time>2021-08-20T16:17:03Z</time>
      </trkpt>
      <trkpt lat="43.16281" lon="-1.22895">
        <ele>181.35</ele>
        <time>2021-08-20T16:17:11Z</time>
      </trkpt>
      <trkpt lat="43.16276" lon="-1.2291">
        <ele>182.31</ele>
        <time>2021-08-20T16:17:17Z</time>
      </trkpt>
      <trkpt lat="43.16274" lon="-1.22916">
        <ele>183.27</ele>
        <time>2021-08-20T16:17:20Z</time>
      </trkpt>
      <trkpt lat="43.16274" lon="-1.22918">
        <ele>183.27</ele>
        <time>2021-08-20T16:17:21Z</time>
      </trkpt>
      <trkpt lat="43.16273" lon="-1.22919">
        <ele>183.27</ele>
        <time>2021-08-20T16:17:22Z</time>
      </trkpt>
      <trkpt lat="43.16271" lon="-1.22925">
        <ele>184.23</ele>
        <time>2021-08-20T16:17:28Z</time>
      </trkpt>
      <trkpt lat="43.16269" lon="-1.22937">
        <ele>185.67</ele>
        <time>2021-08-20T16:17:38Z</time>
      </trkpt>
      <trkpt lat="43.16266" lon="-1.22948">
        <ele>186.63</ele>
        <time>2021-08-20T16:17:47Z</time>
      </trkpt>
      <trkpt lat="43.16264" lon="-1.22958">
        <ele>187.59</ele>
        <time>2021-08-20T16:17:55Z</time>
      </trkpt>
      <trkpt lat="43.16263" lon="-1.22963">
        <ele>188.08</ele>
        <time>2021-08-20T16:17:58Z</time>
      </trkpt>
      <trkpt lat="43.16258" lon="-1.22974">
        <ele>189.04</ele>
        <time>2021-08-20T16:18:07Z</time>
      </trkpt>
      <trkpt lat="43.16255" lon="-1.2299">
        <ele>190.48</ele>
        <time>2021-08-20T16:18:19Z</time>
      </trkpt>
      <trkpt lat="43.16254" lon="-1.22999">
        <ele>191.44</ele>
        <time>2021-08-20T16:18:27Z</time>
      </trkpt>
      <trkpt lat="43.16254" lon="-1.23007">
        <ele>192.4</ele>
        <time>2021-08-20T16:18:34Z</time>
      </trkpt>
      <trkpt lat="43.16253" lon="-1.23013">
        <ele>192.88</ele>
        <time>2021-08-20T16:18:39Z</time>
      </trkpt>
      <trkpt lat="43.16253" lon="-1.23015">
        <ele>193.36</ele>
        <time>2021-08-20T16:18:40Z</time>
      </trkpt>
      <trkpt lat="43.16253" lon="-1.23016">
        <ele>193.36</ele>
        <time>2021-08-20T16:18:41Z</time>
      </trkpt>
      <trkpt lat="43.16252" lon="-1.23018">
        <ele>193.36</ele>
        <time>2021-08-20T16:18:42Z</time>
      </trkpt>
      <trkpt lat="43.16252" lon="-1.23019">
        <ele>193.84</ele>
        <time>2021-08-20T16:18:43Z</time>
      </trkpt>
      <trkpt lat="43.16251" lon="-1.23021">
        <ele>193.84</ele>
        <time>2021-08-20T16:18:44Z</time>
      </trkpt>
      <trkpt lat="43.16248" lon="-1.23033">
        <ele>195.77</ele>
        <time>2021-08-20T16:18:54Z</time>
      </trkpt>
      <trkpt lat="43.16245" lon="-1.23044">
        <ele>197.21</ele>
        <time>2021-08-20T16:19:03Z</time>
      </trkpt>
      <trkpt lat="43.16243" lon="-1.23056">
        <ele>198.17</ele>
        <time>2021-08-20T16:19:11Z</time>
      </trkpt>
      <trkpt lat="43.1624" lon="-1.2307">
        <ele>199.61</ele>
        <time>2021-08-20T16:19:22Z</time>
      </trkpt>
      <trkpt lat="43.1624" lon="-1.23074">
        <ele>200.09</ele>
        <time>2021-08-20T16:19:25Z</time>
      </trkpt>
      <trkpt lat="43.16242" lon="-1.23079">
        <ele>200.09</ele>
        <time>2021-08-20T16:19:31Z</time>
      </trkpt>
      <trkpt lat="43.16244" lon="-1.23087">
        <ele>200.57</ele>
        <time>2021-08-20T16:19:36Z</time>
      </trkpt>
      <trkpt lat="43.16244" lon="-1.23088">
        <ele>200.57</ele>
        <time>2021-08-20T16:19:37Z</time>
      </trkpt>
      <trkpt lat="43.16243" lon="-1.2309">
        <ele>200.57</ele>
        <time>2021-08-20T16:19:38Z</time>
      </trkpt>
      <trkpt lat="43.16243" lon="-1.23092">
        <ele>200.57</ele>
        <time>2021-08-20T16:19:39Z</time>
      </trkpt>
      <trkpt lat="43.16242" lon="-1.23094">
        <ele>200.57</ele>
        <time>2021-08-20T16:19:40Z</time>
      </trkpt>
      <trkpt lat="43.16241" lon="-1.23096">
        <ele>200.57</ele>
        <time>2021-08-20T16:19:41Z</time>
      </trkpt>
      <trkpt lat="43.16238" lon="-1.23105">
        <ele>201.05</ele>
        <time>2021-08-20T16:19:46Z</time>
      </trkpt>
      <trkpt lat="43.16237" lon="-1.23107">
        <ele>201.53</ele>
        <time>2021-08-20T16:19:47Z</time>
      </trkpt>
      <trkpt lat="43.16237" lon="-1.23109">
        <ele>202.01</ele>
        <time>2021-08-20T16:19:48Z</time>
      </trkpt>
      <trkpt lat="43.16238" lon="-1.23115">
        <ele>202.49</ele>
        <time>2021-08-20T16:19:52Z</time>
      </trkpt>
      <trkpt lat="43.16238" lon="-1.23117">
        <ele>202.49</ele>
        <time>2021-08-20T16:19:53Z</time>
      </trkpt>
      <trkpt lat="43.16241" lon="-1.23132">
        <ele>203.46</ele>
        <time>2021-08-20T16:20:03Z</time>
      </trkpt>
      <trkpt lat="43.16244" lon="-1.23143">
        <ele>204.9</ele>
        <time>2021-08-20T16:20:13Z</time>
      </trkpt>
      <trkpt lat="43.16248" lon="-1.23157">
        <ele>205.86</ele>
        <time>2021-08-20T16:20:23Z</time>
      </trkpt>
      <trkpt lat="43.16253" lon="-1.23173">
        <ele>207.3</ele>
        <time>2021-08-20T16:20:35Z</time>
      </trkpt>
      <trkpt lat="43.16258" lon="-1.23186">
        <ele>208.26</ele>
        <time>2021-08-20T16:20:44Z</time>
      </trkpt>
      <trkpt lat="43.16265" lon="-1.23202">
        <ele>209.22</ele>
        <time>2021-08-20T16:20:56Z</time>
      </trkpt>
      <trkpt lat="43.16267" lon="-1.23208">
        <ele>209.7</ele>
        <time>2021-08-20T16:21:05Z</time>
      </trkpt>
      <trkpt lat="43.16272" lon="-1.23216">
        <ele>209.7</ele>
        <time>2021-08-20T16:21:10Z</time>
      </trkpt>
      <trkpt lat="43.16283" lon="-1.2324">
        <ele>207.78</ele>
        <time>2021-08-20T16:21:16Z</time>
      </trkpt>
      <trkpt lat="43.16294" lon="-1.23271">
        <ele>207.3</ele>
        <time>2021-08-20T16:21:23Z</time>
      </trkpt>
      <trkpt lat="43.16316" lon="-1.23315">
        <ele>205.38</ele>
        <time>2021-08-20T16:21:33Z</time>
      </trkpt>
      <trkpt lat="43.16322" lon="-1.2333">
        <ele>203.94</ele>
        <time>2021-08-20T16:21:36Z</time>
      </trkpt>
      <trkpt lat="43.16332" lon="-1.23351">
        <ele>201.53</ele>
        <time>2021-08-20T16:21:40Z</time>
      </trkpt>
      <trkpt lat="43.16348" lon="-1.23381">
        <ele>198.17</ele>
        <time>2021-08-20T16:21:46Z</time>
      </trkpt>
      <trkpt lat="43.1635" lon="-1.23385">
        <ele>198.17</ele>
        <time>2021-08-20T16:21:47Z</time>
      </trkpt>
      <trkpt lat="43.16357" lon="-1.23409">
        <ele>196.73</ele>
        <time>2021-08-20T16:21:54Z</time>
      </trkpt>
      <trkpt lat="43.1636" lon="-1.23418">
        <ele>196.73</ele>
        <time>2021-08-20T16:22:00Z</time>
      </trkpt>
      <trkpt lat="43.16361" lon="-1.23421">
        <ele>196.73</ele>
        <time>2021-08-20T16:22:12Z</time>
      </trkpt>
      <trkpt lat="43.16366" lon="-1.23436">
        <ele>196.73</ele>
        <time>2021-08-20T16:22:21Z</time>
      </trkpt>
      <trkpt lat="43.16367" lon="-1.23441">
        <ele>196.73</ele>
        <time>2021-08-20T16:22:24Z</time>
      </trkpt>
      <trkpt lat="43.16367" lon="-1.23443">
        <ele>196.73</ele>
        <time>2021-08-20T16:22:25Z</time>
      </trkpt>
      <trkpt lat="43.16367" lon="-1.23445">
        <ele>196.73</ele>
        <time>2021-08-20T16:22:26Z</time>
      </trkpt>
      <trkpt lat="43.16367" lon="-1.2346">
        <ele>196.73</ele>
        <time>2021-08-20T16:22:33Z</time>
      </trkpt>
      <trkpt lat="43.16366" lon="-1.23485">
        <ele>196.73</ele>
        <time>2021-08-20T16:22:44Z</time>
      </trkpt>
      <trkpt lat="43.16364" lon="-1.23507">
        <ele>196.25</ele>
        <time>2021-08-20T16:22:54Z</time>
      </trkpt>
      <trkpt lat="43.16363" lon="-1.23512">
        <ele>196.25</ele>
        <time>2021-08-20T16:22:58Z</time>
      </trkpt>
      <trkpt lat="43.1636" lon="-1.23525">
        <ele>195.77</ele>
        <time>2021-08-20T16:23:05Z</time>
      </trkpt>
      <trkpt lat="43.16355" lon="-1.23545">
        <ele>194.8</ele>
        <time>2021-08-20T16:23:16Z</time>
      </trkpt>
      <trkpt lat="43.16351" lon="-1.23562">
        <ele>193.84</ele>
        <time>2021-08-20T16:23:25Z</time>
      </trkpt>
      <trkpt lat="43.16344" lon="-1.23573">
        <ele>192.88</ele>
        <time>2021-08-20T16:23:34Z</time>
      </trkpt>
      <trkpt lat="43.16339" lon="-1.23581">
        <ele>191.92</ele>
        <time>2021-08-20T16:23:41Z</time>
      </trkpt>
      <trkpt lat="43.16335" lon="-1.23587">
        <ele>191.44</ele>
        <time>2021-08-20T16:23:47Z</time>
      </trkpt>
      <trkpt lat="43.16333" lon="-1.23588">
        <ele>191.44</ele>
        <time>2021-08-20T16:23:48Z</time>
      </trkpt>
      <trkpt lat="43.16332" lon="-1.23589">
        <ele>190.96</ele>
        <time>2021-08-20T16:23:49Z</time>
      </trkpt>
      <trkpt lat="43.16332" lon="-1.23591">
        <ele>190.96</ele>
        <time>2021-08-20T16:23:50Z</time>
      </trkpt>
      <trkpt lat="43.16331" lon="-1.23592">
        <ele>190.96</ele>
        <time>2021-08-20T16:23:51Z</time>
      </trkpt>
      <trkpt lat="43.1633" lon="-1.23593">
        <ele>190.48</ele>
        <time>2021-08-20T16:23:52Z</time>
      </trkpt>
      <trkpt lat="43.16329" lon="-1.23594">
        <ele>190.48</ele>
        <time>2021-08-20T16:23:53Z</time>
      </trkpt>
      <trkpt lat="43.16324" lon="-1.23609">
        <ele>189.04</ele>
        <time>2021-08-20T16:24:03Z</time>
      </trkpt>
      <trkpt lat="43.1632" lon="-1.23623">
        <ele>188.08</ele>
        <time>2021-08-20T16:24:13Z</time>
      </trkpt>
      <trkpt lat="43.16314" lon="-1.23636">
        <ele>186.63</ele>
        <time>2021-08-20T16:24:23Z</time>
      </trkpt>
      <trkpt lat="43.16307" lon="-1.23646">
        <ele>185.19</ele>
        <time>2021-08-20T16:24:32Z</time>
      </trkpt>
      <trkpt lat="43.163" lon="-1.23657">
        <ele>183.27</ele>
        <time>2021-08-20T16:24:41Z</time>
      </trkpt>
      <trkpt lat="43.16296" lon="-1.23668">
        <ele>181.83</ele>
        <time>2021-08-20T16:24:49Z</time>
      </trkpt>
      <trkpt lat="43.1629" lon="-1.23681">
        <ele>180.38</ele>
        <time>2021-08-20T16:24:59Z</time>
      </trkpt>
      <trkpt lat="43.16286" lon="-1.23692">
        <ele>178.94</ele>
        <time>2021-08-20T16:25:09Z</time>
      </trkpt>
      <trkpt lat="43.16278" lon="-1.237">
        <ele>177.02</ele>
        <time>2021-08-20T16:25:20Z</time>
      </trkpt>
      <trkpt lat="43.16276" lon="-1.237">
        <ele>176.54</ele>
        <time>2021-08-20T16:25:21Z</time>
      </trkpt>
      <trkpt lat="43.16275" lon="-1.23701">
        <ele>176.54</ele>
        <time>2021-08-20T16:25:22Z</time>
      </trkpt>
      <trkpt lat="43.1627" lon="-1.23704">
        <ele>175.58</ele>
        <time>2021-08-20T16:25:27Z</time>
      </trkpt>
      <trkpt lat="43.16269" lon="-1.23704">
        <ele>175.58</ele>
        <time>2021-08-20T16:25:28Z</time>
      </trkpt>
      <trkpt lat="43.16266" lon="-1.23707">
        <ele>174.62</ele>
        <time>2021-08-20T16:25:32Z</time>
      </trkpt>
      <trkpt lat="43.16265" lon="-1.23709">
        <ele>174.62</ele>
        <time>2021-08-20T16:25:33Z</time>
      </trkpt>
      <trkpt lat="43.16262" lon="-1.23711">
        <ele>174.14</ele>
        <time>2021-08-20T16:25:36Z</time>
      </trkpt>
      <trkpt lat="43.16254" lon="-1.23719">
        <ele>172.69</ele>
        <time>2021-08-20T16:25:45Z</time>
      </trkpt>
      <trkpt lat="43.16242" lon="-1.23723">
        <ele>172.21</ele>
        <time>2021-08-20T16:25:54Z</time>
      </trkpt>
      <trkpt lat="43.1623" lon="-1.23726">
        <ele>172.21</ele>
        <time>2021-08-20T16:26:02Z</time>
      </trkpt>
      <trkpt lat="43.16229" lon="-1.23724">
        <ele>172.21</ele>
        <time>2021-08-20T16:26:11Z</time>
      </trkpt>
      <trkpt lat="43.16228" lon="-1.23722">
        <ele>172.21</ele>
        <time>2021-08-20T16:26:18Z</time>
      </trkpt>
      <trkpt lat="43.16229" lon="-1.23724">
        <ele>172.21</ele>
        <time>2021-08-20T16:26:34Z</time>
      </trkpt>
      <trkpt lat="43.16226" lon="-1.23724">
        <ele>172.21</ele>
        <time>2021-08-20T16:26:48Z</time>
      </trkpt>
      <trkpt lat="43.16222" lon="-1.23728">
        <ele>172.21</ele>
        <time>2021-08-20T16:27:06Z</time>
      </trkpt>
      <trkpt lat="43.16222" lon="-1.23726">
        <ele>172.21</ele>
        <time>2021-08-20T16:27:13Z</time>
      </trkpt>
      <trkpt lat="43.16223" lon="-1.23719">
        <ele>172.21</ele>
        <time>2021-08-20T16:27:18Z</time>
      </trkpt>
      <trkpt lat="43.16223" lon="-1.23716">
        <ele>171.73</ele>
        <time>2021-08-20T16:27:19Z</time>
      </trkpt>
      <trkpt lat="43.16221" lon="-1.23713">
        <ele>171.25</ele>
        <time>2021-08-20T16:27:20Z</time>
      </trkpt>
      <trkpt lat="43.16212" lon="-1.23689">
        <ele>170.29</ele>
        <time>2021-08-20T16:27:24Z</time>
      </trkpt>
      <trkpt lat="43.1621" lon="-1.23683">
        <ele>170.29</ele>
        <time>2021-08-20T16:27:25Z</time>
      </trkpt>
      <trkpt lat="43.16203" lon="-1.23659">
        <ele>170.29</ele>
        <time>2021-08-20T16:27:29Z</time>
      </trkpt>
      <trkpt lat="43.16201" lon="-1.23653">
        <ele>170.29</ele>
        <time>2021-08-20T16:27:30Z</time>
      </trkpt>
      <trkpt lat="43.16198" lon="-1.23642">
        <ele>170.29</ele>
        <time>2021-08-20T16:27:32Z</time>
      </trkpt>
      <trkpt lat="43.16191" lon="-1.23618">
        <ele>170.29</ele>
        <time>2021-08-20T16:27:38Z</time>
      </trkpt>
      <trkpt lat="43.16188" lon="-1.23607">
        <ele>171.73</ele>
        <time>2021-08-20T16:27:41Z</time>
      </trkpt>
      <trkpt lat="43.16184" lon="-1.23587">
        <ele>172.69</ele>
        <time>2021-08-20T16:27:46Z</time>
      </trkpt>
      <trkpt lat="43.1618" lon="-1.23573">
        <ele>173.17</ele>
        <time>2021-08-20T16:27:50Z</time>
      </trkpt>
      <trkpt lat="43.16177" lon="-1.2357">
        <ele>173.17</ele>
        <time>2021-08-20T16:27:51Z</time>
      </trkpt>
      <trkpt lat="43.16175" lon="-1.23567">
        <ele>173.17</ele>
        <time>2021-08-20T16:27:52Z</time>
      </trkpt>
      <trkpt lat="43.16174" lon="-1.23565">
        <ele>173.17</ele>
        <time>2021-08-20T16:27:53Z</time>
      </trkpt>
      <trkpt lat="43.16173" lon="-1.23561">
        <ele>173.66</ele>
        <time>2021-08-20T16:27:54Z</time>
      </trkpt>
      <trkpt lat="43.16173" lon="-1.23558">
        <ele>173.66</ele>
        <time>2021-08-20T16:27:55Z</time>
      </trkpt>
      <trkpt lat="43.16172" lon="-1.23555">
        <ele>174.14</ele>
        <time>2021-08-20T16:27:56Z</time>
      </trkpt>
      <trkpt lat="43.16171" lon="-1.23552">
        <ele>174.62</ele>
        <time>2021-08-20T16:27:57Z</time>
      </trkpt>
      <trkpt lat="43.1617" lon="-1.2355">
        <ele>174.62</ele>
        <time>2021-08-20T16:27:58Z</time>
      </trkpt>
      <trkpt lat="43.16161" lon="-1.23532">
        <ele>175.1</ele>
        <time>2021-08-20T16:28:05Z</time>
      </trkpt>
      <trkpt lat="43.16145" lon="-1.2351">
        <ele>175.1</ele>
        <time>2021-08-20T16:28:12Z</time>
      </trkpt>
      <trkpt lat="43.16142" lon="-1.23507">
        <ele>174.14</ele>
        <time>2021-08-20T16:28:13Z</time>
      </trkpt>
      <trkpt lat="43.16138" lon="-1.23504">
        <ele>174.14</ele>
        <time>2021-08-20T16:28:14Z</time>
      </trkpt>
      <trkpt lat="43.16118" lon="-1.23493">
        <ele>173.66</ele>
        <time>2021-08-20T16:28:19Z</time>
      </trkpt>
      <trkpt lat="43.16092" lon="-1.23487">
        <ele>173.66</ele>
        <time>2021-08-20T16:28:26Z</time>
      </trkpt>
      <trkpt lat="43.16072" lon="-1.23483">
        <ele>173.17</ele>
        <time>2021-08-20T16:28:31Z</time>
      </trkpt>
      <trkpt lat="43.16067" lon="-1.23482">
        <ele>173.17</ele>
        <time>2021-08-20T16:28:32Z</time>
      </trkpt>
      <trkpt lat="43.16029" lon="-1.23483">
        <ele>173.17</ele>
        <time>2021-08-20T16:28:41Z</time>
      </trkpt>
      <trkpt lat="43.15997" lon="-1.23482">
        <ele>173.17</ele>
        <time>2021-08-20T16:28:49Z</time>
      </trkpt>
      <trkpt lat="43.15988" lon="-1.23482">
        <ele>173.17</ele>
        <time>2021-08-20T16:28:51Z</time>
      </trkpt>
      <trkpt lat="43.15984" lon="-1.23484">
        <ele>173.17</ele>
        <time>2021-08-20T16:28:52Z</time>
      </trkpt>
      <trkpt lat="43.15951" lon="-1.23494">
        <ele>173.17</ele>
        <time>2021-08-20T16:29:00Z</time>
      </trkpt>
      <trkpt lat="43.15947" lon="-1.23498">
        <ele>173.17</ele>
        <time>2021-08-20T16:29:01Z</time>
      </trkpt>
      <trkpt lat="43.15945" lon="-1.23501">
        <ele>173.17</ele>
        <time>2021-08-20T16:29:02Z</time>
      </trkpt>
      <trkpt lat="43.15937" lon="-1.23515">
        <ele>173.17</ele>
        <time>2021-08-20T16:29:06Z</time>
      </trkpt>
      <trkpt lat="43.15933" lon="-1.23518">
        <ele>172.21</ele>
        <time>2021-08-20T16:29:07Z</time>
      </trkpt>
      <trkpt lat="43.15929" lon="-1.23521">
        <ele>171.25</ele>
        <time>2021-08-20T16:29:08Z</time>
      </trkpt>
      <trkpt lat="43.15925" lon="-1.23522">
        <ele>171.25</ele>
        <time>2021-08-20T16:29:09Z</time>
      </trkpt>
      <trkpt lat="43.15921" lon="-1.23521">
        <ele>171.25</ele>
        <time>2021-08-20T16:29:10Z</time>
      </trkpt>
      <trkpt lat="43.15918" lon="-1.23522">
        <ele>171.25</ele>
        <time>2021-08-20T16:29:11Z</time>
      </trkpt>
      <trkpt lat="43.15915" lon="-1.23522">
        <ele>171.25</ele>
        <time>2021-08-20T16:29:12Z</time>
      </trkpt>
      <trkpt lat="43.15913" lon="-1.23523">
        <ele>172.69</ele>
        <time>2021-08-20T16:29:13Z</time>
      </trkpt>
      <trkpt lat="43.15911" lon="-1.23525">
        <ele>172.69</ele>
        <time>2021-08-20T16:29:14Z</time>
      </trkpt>
      <trkpt lat="43.15909" lon="-1.23526">
        <ele>172.69</ele>
        <time>2021-08-20T16:29:15Z</time>
      </trkpt>
      <trkpt lat="43.15907" lon="-1.23528">
        <ele>173.17</ele>
        <time>2021-08-20T16:29:16Z</time>
      </trkpt>
      <trkpt lat="43.15905" lon="-1.2353">
        <ele>173.17</ele>
        <time>2021-08-20T16:29:17Z</time>
      </trkpt>
      <trkpt lat="43.15904" lon="-1.23533">
        <ele>173.17</ele>
        <time>2021-08-20T16:29:18Z</time>
      </trkpt>
      <trkpt lat="43.15903" lon="-1.23537">
        <ele>173.66</ele>
        <time>2021-08-20T16:29:19Z</time>
      </trkpt>
      <trkpt lat="43.15902" lon="-1.23541">
        <ele>173.66</ele>
        <time>2021-08-20T16:29:20Z</time>
      </trkpt>
      <trkpt lat="43.15902" lon="-1.23546">
        <ele>173.66</ele>
        <time>2021-08-20T16:29:21Z</time>
      </trkpt>
      <trkpt lat="43.15901" lon="-1.23551">
        <ele>173.66</ele>
        <time>2021-08-20T16:29:22Z</time>
      </trkpt>
      <trkpt lat="43.15902" lon="-1.23555">
        <ele>173.66</ele>
        <time>2021-08-20T16:29:23Z</time>
      </trkpt>
      <trkpt lat="43.15902" lon="-1.2356">
        <ele>173.66</ele>
        <time>2021-08-20T16:29:24Z</time>
      </trkpt>
      <trkpt lat="43.15903" lon="-1.23564">
        <ele>174.14</ele>
        <time>2021-08-20T16:29:25Z</time>
      </trkpt>
      <trkpt lat="43.15903" lon="-1.23568">
        <ele>174.14</ele>
        <time>2021-08-20T16:29:26Z</time>
      </trkpt>
      <trkpt lat="43.15903" lon="-1.23603">
        <ele>175.58</ele>
        <time>2021-08-20T16:29:36Z</time>
      </trkpt>
      <trkpt lat="43.15901" lon="-1.23634">
        <ele>176.54</ele>
        <time>2021-08-20T16:29:45Z</time>
      </trkpt>
      <trkpt lat="43.15895" lon="-1.23666">
        <ele>178.46</ele>
        <time>2021-08-20T16:29:56Z</time>
      </trkpt>
      <trkpt lat="43.15893" lon="-1.23688">
        <ele>179.9</ele>
        <time>2021-08-20T16:30:04Z</time>
      </trkpt>
      <trkpt lat="43.15893" lon="-1.2371">
        <ele>181.35</ele>
        <time>2021-08-20T16:30:11Z</time>
      </trkpt>
      <trkpt lat="43.15892" lon="-1.23735">
        <ele>182.79</ele>
        <time>2021-08-20T16:30:19Z</time>
      </trkpt>
      <trkpt lat="43.15891" lon="-1.2376">
        <ele>184.23</ele>
        <time>2021-08-20T16:30:27Z</time>
      </trkpt>
      <trkpt lat="43.15892" lon="-1.23785">
        <ele>185.67</ele>
        <time>2021-08-20T16:30:35Z</time>
      </trkpt>
      <trkpt lat="43.15894" lon="-1.23809">
        <ele>187.11</ele>
        <time>2021-08-20T16:30:44Z</time>
      </trkpt>
      <trkpt lat="43.15893" lon="-1.23829">
        <ele>188.56</ele>
        <time>2021-08-20T16:30:51Z</time>
      </trkpt>
      <trkpt lat="43.15887" lon="-1.23851">
        <ele>190.48</ele>
        <time>2021-08-20T16:31:00Z</time>
      </trkpt>
      <trkpt lat="43.15888" lon="-1.23863">
        <ele>190.96</ele>
        <time>2021-08-20T16:31:04Z</time>
      </trkpt>
      <trkpt lat="43.15889" lon="-1.23865">
        <ele>191.44</ele>
        <time>2021-08-20T16:31:05Z</time>
      </trkpt>
      <trkpt lat="43.15891" lon="-1.23867">
        <ele>191.44</ele>
        <time>2021-08-20T16:31:06Z</time>
      </trkpt>
      <trkpt lat="43.15893" lon="-1.23869">
        <ele>191.44</ele>
        <time>2021-08-20T16:31:07Z</time>
      </trkpt>
      <trkpt lat="43.15895" lon="-1.23871">
        <ele>191.44</ele>
        <time>2021-08-20T16:31:08Z</time>
      </trkpt>
      <trkpt lat="43.15897" lon="-1.23873">
        <ele>191.44</ele>
        <time>2021-08-20T16:31:09Z</time>
      </trkpt>
      <trkpt lat="43.15915" lon="-1.23881">
        <ele>191.92</ele>
        <time>2021-08-20T16:31:17Z</time>
      </trkpt>
      <trkpt lat="43.15944" lon="-1.23885">
        <ele>189.52</ele>
        <time>2021-08-20T16:31:26Z</time>
      </trkpt>
      <trkpt lat="43.1596" lon="-1.23882">
        <ele>188.08</ele>
        <time>2021-08-20T16:31:33Z</time>
      </trkpt>
      <trkpt lat="43.15961" lon="-1.2388">
        <ele>187.59</ele>
        <time>2021-08-20T16:31:40Z</time>
      </trkpt>
      <trkpt lat="43.15962" lon="-1.23879">
        <ele>187.59</ele>
        <time>2021-08-20T16:31:49Z</time>
      </trkpt>
      <trkpt lat="43.15963" lon="-1.2388">
        <ele>187.59</ele>
        <time>2021-08-20T16:32:00Z</time>
      </trkpt>
      <trkpt lat="43.15966" lon="-1.23881">
        <ele>187.59</ele>
        <time>2021-08-20T16:32:01Z</time>
      </trkpt>
      <trkpt lat="43.15967" lon="-1.23884">
        <ele>187.11</ele>
        <time>2021-08-20T16:32:02Z</time>
      </trkpt>
      <trkpt lat="43.15967" lon="-1.23886">
        <ele>187.11</ele>
        <time>2021-08-20T16:32:03Z</time>
      </trkpt>
      <trkpt lat="43.15965" lon="-1.23888">
        <ele>187.11</ele>
        <time>2021-08-20T16:32:04Z</time>
      </trkpt>
      <trkpt lat="43.15963" lon="-1.2389">
        <ele>187.11</ele>
        <time>2021-08-20T16:32:05Z</time>
      </trkpt>
      <trkpt lat="43.15962" lon="-1.23892">
        <ele>187.11</ele>
        <time>2021-08-20T16:32:06Z</time>
      </trkpt>
      <trkpt lat="43.1596" lon="-1.23893">
        <ele>188.08</ele>
        <time>2021-08-20T16:32:07Z</time>
      </trkpt>
      <trkpt lat="43.15959" lon="-1.23893">
        <ele>188.08</ele>
        <time>2021-08-20T16:32:08Z</time>
      </trkpt>
      <trkpt lat="43.15957" lon="-1.23891">
        <ele>188.56</ele>
        <time>2021-08-20T16:32:14Z</time>
      </trkpt>
      <trkpt lat="43.15956" lon="-1.2389">
        <ele>188.56</ele>
        <time>2021-08-20T16:32:16Z</time>
      </trkpt>
      <trkpt lat="43.15957" lon="-1.23888">
        <ele>188.56</ele>
        <time>2021-08-20T16:32:17Z</time>
      </trkpt>
      <trkpt lat="43.15958" lon="-1.23884">
        <ele>188.56</ele>
        <time>2021-08-20T16:32:18Z</time>
      </trkpt>
      <trkpt lat="43.1596" lon="-1.23882">
        <ele>188.56</ele>
        <time>2021-08-20T16:32:19Z</time>
      </trkpt>
      <trkpt lat="43.15964" lon="-1.2388">
        <ele>187.59</ele>
        <time>2021-08-20T16:32:20Z</time>
      </trkpt>
      <trkpt lat="43.15968" lon="-1.23877">
        <ele>186.63</ele>
        <time>2021-08-20T16:32:21Z</time>
      </trkpt>
      <trkpt lat="43.15973" lon="-1.23874">
        <ele>186.63</ele>
        <time>2021-08-20T16:32:22Z</time>
      </trkpt>
      <trkpt lat="43.15996" lon="-1.2386">
        <ele>183.75</ele>
        <time>2021-08-20T16:32:26Z</time>
      </trkpt>
      <trkpt lat="43.1603" lon="-1.23836">
        <ele>181.83</ele>
        <time>2021-08-20T16:32:33Z</time>
      </trkpt>
      <trkpt lat="43.16047" lon="-1.2383">
        <ele>181.83</ele>
        <time>2021-08-20T16:32:39Z</time>
      </trkpt>
      <trkpt lat="43.16051" lon="-1.23828">
        <ele>181.83</ele>
        <time>2021-08-20T16:32:42Z</time>
      </trkpt>
      <trkpt lat="43.16057" lon="-1.23823">
        <ele>181.83</ele>
        <time>2021-08-20T16:32:48Z</time>
      </trkpt>
      <trkpt lat="43.16061" lon="-1.2382">
        <ele>181.35</ele>
        <time>2021-08-20T16:32:53Z</time>
      </trkpt>
      <trkpt lat="43.16067" lon="-1.23815">
        <ele>180.38</ele>
        <time>2021-08-20T16:33:01Z</time>
      </trkpt>
      <trkpt lat="43.16076" lon="-1.23813">
        <ele>179.9</ele>
        <time>2021-08-20T16:33:10Z</time>
      </trkpt>
      <trkpt lat="43.16081" lon="-1.2381">
        <ele>178.94</ele>
        <time>2021-08-20T16:33:18Z</time>
      </trkpt>
      <trkpt lat="43.16081" lon="-1.23809">
        <ele>178.94</ele>
        <time>2021-08-20T16:33:26Z</time>
      </trkpt>
      <trkpt lat="43.16081" lon="-1.2381">
        <ele>178.94</ele>
        <time>2021-08-20T16:33:40Z</time>
      </trkpt>
      <trkpt lat="43.16077" lon="-1.23812">
        <ele>178.94</ele>
        <time>2021-08-20T16:33:49Z</time>
      </trkpt>
      <trkpt lat="43.16077" lon="-1.23811">
        <ele>178.94</ele>
        <time>2021-08-20T16:34:04Z</time>
      </trkpt>
      <trkpt lat="43.16079" lon="-1.23806">
        <ele>178.94</ele>
        <time>2021-08-20T16:34:22Z</time>
      </trkpt>
      <trkpt lat="43.16078" lon="-1.23809">
        <ele>178.94</ele>
        <time>2021-08-20T16:34:44Z</time>
      </trkpt>
      <trkpt lat="43.16076" lon="-1.2381">
        <ele>178.94</ele>
        <time>2021-08-20T16:35:03Z</time>
      </trkpt>
      <trkpt lat="43.16076" lon="-1.23809">
        <ele>178.94</ele>
        <time>2021-08-20T16:35:20Z</time>
      </trkpt>
      <trkpt lat="43.16078" lon="-1.23804">
        <ele>178.94</ele>
        <time>2021-08-20T16:35:42Z</time>
      </trkpt>
      <trkpt lat="43.16077" lon="-1.23807">
        <ele>179.42</ele>
        <time>2021-08-20T16:36:02Z</time>
      </trkpt>
      <trkpt lat="43.16076" lon="-1.23807">
        <ele>179.42</ele>
        <time>2021-08-20T16:36:23Z</time>
      </trkpt>
      <trkpt lat="43.16075" lon="-1.23811">
        <ele>179.42</ele>
        <time>2021-08-20T16:36:47Z</time>
      </trkpt>
      <trkpt lat="43.16076" lon="-1.23813">
        <ele>179.9</ele>
        <time>2021-08-20T16:37:08Z</time>
      </trkpt>
      <trkpt lat="43.16073" lon="-1.23813">
        <ele>179.9</ele>
        <time>2021-08-20T16:37:31Z</time>
      </trkpt>
      <trkpt lat="43.16074" lon="-1.23814">
        <ele>179.9</ele>
        <time>2021-08-20T16:37:48Z</time>
      </trkpt>
      <trkpt lat="43.16079" lon="-1.23817">
        <ele>179.9</ele>
        <time>2021-08-20T16:38:12Z</time>
      </trkpt>
      <trkpt lat="43.16078" lon="-1.23818">
        <ele>180.38</ele>
        <time>2021-08-20T16:38:32Z</time>
      </trkpt>
      <trkpt lat="43.16076" lon="-1.23815">
        <ele>180.38</ele>
        <time>2021-08-20T16:38:55Z</time>
      </trkpt>
      <trkpt lat="43.16078" lon="-1.23812">
        <ele>180.38</ele>
        <time>2021-08-20T16:39:16Z</time>
      </trkpt>
      <trkpt lat="43.16079" lon="-1.23812">
        <ele>180.38</ele>
        <time>2021-08-20T16:39:31Z</time>
      </trkpt>
      <trkpt lat="43.16077" lon="-1.23813">
        <ele>180.38</ele>
        <time>2021-08-20T16:39:53Z</time>
      </trkpt>
      <trkpt lat="43.16077" lon="-1.23814">
        <ele>180.38</ele>
        <time>2021-08-20T16:40:11Z</time>
      </trkpt>
      <trkpt lat="43.16077" lon="-1.23816">
        <ele>180.87</ele>
        <time>2021-08-20T16:40:35Z</time>
      </trkpt>
      <trkpt lat="43.16075" lon="-1.2382">
        <ele>180.87</ele>
        <time>2021-08-20T16:40:52Z</time>
      </trkpt>
      <trkpt lat="43.16076" lon="-1.23821">
        <ele>180.87</ele>
        <time>2021-08-20T16:41:07Z</time>
      </trkpt>
      <trkpt lat="43.16075" lon="-1.23824">
        <ele>180.87</ele>
        <time>2021-08-20T16:41:20Z</time>
      </trkpt>
      <trkpt lat="43.16073" lon="-1.23828">
        <ele>180.87</ele>
        <time>2021-08-20T16:41:41Z</time>
      </trkpt>
      <trkpt lat="43.16071" lon="-1.23829">
        <ele>181.35</ele>
        <time>2021-08-20T16:41:56Z</time>
      </trkpt>
      <trkpt lat="43.16069" lon="-1.23832">
        <ele>181.35</ele>
        <time>2021-08-20T16:42:12Z</time>
      </trkpt>
      <trkpt lat="43.16071" lon="-1.23828">
        <ele>181.35</ele>
        <time>2021-08-20T16:42:30Z</time>
      </trkpt>
      <trkpt lat="43.1607" lon="-1.2383">
        <ele>181.35</ele>
        <time>2021-08-20T16:42:40Z</time>
      </trkpt>
      <trkpt lat="43.16072" lon="-1.2383">
        <ele>181.83</ele>
        <time>2021-08-20T16:42:53Z</time>
      </trkpt>
      <trkpt lat="43.16072" lon="-1.23827">
        <ele>181.83</ele>
        <time>2021-08-20T16:43:14Z</time>
      </trkpt>
      <trkpt lat="43.16069" lon="-1.23824">
        <ele>181.83</ele>
        <time>2021-08-20T16:43:29Z</time>
      </trkpt>
      <trkpt lat="43.1607" lon="-1.23825">
        <ele>181.83</ele>
        <time>2021-08-20T16:43:44Z</time>
      </trkpt>
      <trkpt lat="43.16072" lon="-1.23822">
        <ele>182.31</ele>
        <time>2021-08-20T16:44:07Z</time>
      </trkpt>
      <trkpt lat="43.16073" lon="-1.2382">
        <ele>182.31</ele>
        <time>2021-08-20T16:44:18Z</time>
      </trkpt>
      <trkpt lat="43.16074" lon="-1.2382">
        <ele>182.31</ele>
        <time>2021-08-20T16:44:36Z</time>
      </trkpt>
      <trkpt lat="43.16073" lon="-1.23822">
        <ele>182.31</ele>
        <time>2021-08-20T16:44:52Z</time>
      </trkpt>
      <trkpt lat="43.16074" lon="-1.23821">
        <ele>182.79</ele>
        <time>2021-08-20T16:45:11Z</time>
      </trkpt>
      <trkpt lat="43.16075" lon="-1.23822">
        <ele>182.79</ele>
        <time>2021-08-20T16:45:33Z</time>
      </trkpt>
      <trkpt lat="43.16075" lon="-1.23822">
        <ele>182.79</ele>
        <time>2021-08-20T16:45:52Z</time>
      </trkpt>
      <trkpt lat="43.16075" lon="-1.23821">
        <ele>183.27</ele>
        <time>2021-08-20T16:46:13Z</time>
      </trkpt>
      <trkpt lat="43.16075" lon="-1.23821">
        <ele>183.27</ele>
        <time>2021-08-20T16:46:30Z</time>
      </trkpt>
      <trkpt lat="43.16075" lon="-1.23821">
        <ele>183.27</ele>
        <time>2021-08-20T16:46:45Z</time>
      </trkpt>
      <trkpt lat="43.16075" lon="-1.23821">
        <ele>183.27</ele>
        <time>2021-08-20T16:47:04Z</time>
      </trkpt>
      <trkpt lat="43.16074" lon="-1.23821">
        <ele>183.27</ele>
        <time>2021-08-20T16:47:25Z</time>
      </trkpt>
      <trkpt lat="43.16073" lon="-1.2382">
        <ele>183.75</ele>
        <time>2021-08-20T16:47:40Z</time>
      </trkpt>
      <trkpt lat="43.16073" lon="-1.23819">
        <ele>183.75</ele>
        <time>2021-08-20T16:47:50Z</time>
      </trkpt>
      <trkpt lat="43.16073" lon="-1.2382">
        <ele>183.75</ele>
        <time>2021-08-20T16:48:07Z</time>
      </trkpt>
      <trkpt lat="43.16074" lon="-1.23821">
        <ele>183.75</ele>
        <time>2021-08-20T16:48:26Z</time>
      </trkpt>
      <trkpt lat="43.16074" lon="-1.2382">
        <ele>183.75</ele>
        <time>2021-08-20T16:48:46Z</time>
      </trkpt>
      <trkpt lat="43.16077" lon="-1.23821">
        <ele>184.23</ele>
        <time>2021-08-20T16:49:11Z</time>
      </trkpt>
      <trkpt lat="43.16075" lon="-1.2382">
        <ele>184.23</ele>
        <time>2021-08-20T16:49:25Z</time>
      </trkpt>
      <trkpt lat="43.16076" lon="-1.2382">
        <ele>184.23</ele>
        <time>2021-08-20T16:49:44Z</time>
      </trkpt>
      <trkpt lat="43.16076" lon="-1.2382">
        <ele>185.67</ele>
        <time>2021-08-20T16:50:04Z</time>
      </trkpt>
      <trkpt lat="43.16075" lon="-1.23821">
        <ele>185.67</ele>
        <time>2021-08-20T16:50:18Z</time>
      </trkpt>
      <trkpt lat="43.16072" lon="-1.23822">
        <ele>185.67</ele>
        <time>2021-08-20T16:50:31Z</time>
      </trkpt>
      <trkpt lat="43.16072" lon="-1.23824">
        <ele>185.67</ele>
        <time>2021-08-20T16:50:49Z</time>
      </trkpt>
      <trkpt lat="43.16072" lon="-1.23823">
        <ele>185.67</ele>
        <time>2021-08-20T16:51:01Z</time>
      </trkpt>
      <trkpt lat="43.16073" lon="-1.23821">
        <ele>186.15</ele>
        <time>2021-08-20T16:51:16Z</time>
      </trkpt>
      <trkpt lat="43.16076" lon="-1.23818">
        <ele>186.15</ele>
        <time>2021-08-20T16:51:34Z</time>
      </trkpt>
      <trkpt lat="43.16078" lon="-1.23816">
        <ele>186.15</ele>
        <time>2021-08-20T16:51:49Z</time>
      </trkpt>
      <trkpt lat="43.16078" lon="-1.23816">
        <ele>186.15</ele>
        <time>2021-08-20T16:52:05Z</time>
      </trkpt>
      <trkpt lat="43.16079" lon="-1.23817">
        <ele>186.15</ele>
        <time>2021-08-20T16:52:23Z</time>
      </trkpt>
      <trkpt lat="43.16079" lon="-1.23815">
        <ele>186.15</ele>
        <time>2021-08-20T16:52:39Z</time>
      </trkpt>
      <trkpt lat="43.16078" lon="-1.23815">
        <ele>186.63</ele>
        <time>2021-08-20T16:52:54Z</time>
      </trkpt>
      <trkpt lat="43.16079" lon="-1.23816">
        <ele>186.63</ele>
        <time>2021-08-20T16:53:12Z</time>
      </trkpt>
      <trkpt lat="43.16079" lon="-1.23818">
        <ele>186.63</ele>
        <time>2021-08-20T16:53:31Z</time>
      </trkpt>
      <trkpt lat="43.16077" lon="-1.23819">
        <ele>186.63</ele>
        <time>2021-08-20T16:53:46Z</time>
      </trkpt>
      <trkpt lat="43.16077" lon="-1.23819">
        <ele>186.63</ele>
        <time>2021-08-20T16:54:04Z</time>
      </trkpt>
      <trkpt lat="43.16077" lon="-1.23819">
        <ele>186.63</ele>
        <time>2021-08-20T16:54:19Z</time>
      </trkpt>
      <trkpt lat="43.16078" lon="-1.23819">
        <ele>187.11</ele>
        <time>2021-08-20T16:54:37Z</time>
      </trkpt>
      <trkpt lat="43.16078" lon="-1.23819">
        <ele>187.11</ele>
        <time>2021-08-20T16:54:54Z</time>
      </trkpt>
      <trkpt lat="43.16076" lon="-1.23819">
        <ele>187.11</ele>
        <time>2021-08-20T16:55:19Z</time>
      </trkpt>
      <trkpt lat="43.16073" lon="-1.23819">
        <ele>187.11</ele>
        <time>2021-08-20T16:55:43Z</time>
      </trkpt>
      <trkpt lat="43.16075" lon="-1.23818">
        <ele>187.11</ele>
        <time>2021-08-20T16:55:58Z</time>
      </trkpt>
      <trkpt lat="43.16075" lon="-1.23817">
        <ele>187.59</ele>
        <time>2021-08-20T16:56:18Z</time>
      </trkpt>
      <trkpt lat="43.16074" lon="-1.2382">
        <ele>187.59</ele>
        <time>2021-08-20T16:56:40Z</time>
      </trkpt>
      <trkpt lat="43.16074" lon="-1.2382">
        <ele>187.59</ele>
        <time>2021-08-20T16:56:58Z</time>
      </trkpt>
      <trkpt lat="43.16073" lon="-1.23819">
        <ele>187.59</ele>
        <time>2021-08-20T16:57:18Z</time>
      </trkpt>
      <trkpt lat="43.16073" lon="-1.2382">
        <ele>187.59</ele>
        <time>2021-08-20T16:57:34Z</time>
      </trkpt>
      <trkpt lat="43.16073" lon="-1.2382">
        <ele>187.59</ele>
        <time>2021-08-20T16:57:50Z</time>
      </trkpt>
      <trkpt lat="43.16073" lon="-1.23821">
        <ele>187.59</ele>
        <time>2021-08-20T16:58:10Z</time>
      </trkpt>
      <trkpt lat="43.16074" lon="-1.2382">
        <ele>188.08</ele>
        <time>2021-08-20T16:58:26Z</time>
      </trkpt>
      <trkpt lat="43.16074" lon="-1.2382">
        <ele>188.08</ele>
        <time>2021-08-20T16:58:45Z</time>
      </trkpt>
      <trkpt lat="43.16075" lon="-1.2382">
        <ele>188.08</ele>
        <time>2021-08-20T16:58:59Z</time>
      </trkpt>
      <trkpt lat="43.16076" lon="-1.2382">
        <ele>188.08</ele>
        <time>2021-08-20T16:59:13Z</time>
      </trkpt>
      <trkpt lat="43.16075" lon="-1.23821">
        <ele>188.08</ele>
        <time>2021-08-20T16:59:25Z</time>
      </trkpt>
      <trkpt lat="43.16075" lon="-1.23821">
        <ele>188.08</ele>
        <time>2021-08-20T16:59:43Z</time>
      </trkpt>
      <trkpt lat="43.16075" lon="-1.2382">
        <ele>188.08</ele>
        <time>2021-08-20T17:00:04Z</time>
      </trkpt>
      <trkpt lat="43.16074" lon="-1.2382">
        <ele>188.56</ele>
        <time>2021-08-20T17:00:22Z</time>
      </trkpt>
      <trkpt lat="43.16075" lon="-1.23819">
        <ele>188.56</ele>
        <time>2021-08-20T17:00:36Z</time>
      </trkpt>
      <trkpt lat="43.16074" lon="-1.23818">
        <ele>188.56</ele>
        <time>2021-08-20T17:00:52Z</time>
      </trkpt>
      <trkpt lat="43.16074" lon="-1.23817">
        <ele>188.56</ele>
        <time>2021-08-20T17:01:07Z</time>
      </trkpt>
      <trkpt lat="43.16074" lon="-1.23816">
        <ele>188.56</ele>
        <time>2021-08-20T17:01:21Z</time>
      </trkpt>
      <trkpt lat="43.16074" lon="-1.23819">
        <ele>188.56</ele>
        <time>2021-08-20T17:01:38Z</time>
      </trkpt>
      <trkpt lat="43.16073" lon="-1.23823">
        <ele>188.56</ele>
        <time>2021-08-20T17:01:58Z</time>
      </trkpt>
      <trkpt lat="43.16075" lon="-1.23822">
        <ele>188.56</ele>
        <time>2021-08-20T17:02:19Z</time>
      </trkpt>
      <trkpt lat="43.16073" lon="-1.23821">
        <ele>188.56</ele>
        <time>2021-08-20T17:02:44Z</time>
      </trkpt>
      <trkpt lat="43.16075" lon="-1.2382">
        <ele>188.56</ele>
        <time>2021-08-20T17:02:57Z</time>
      </trkpt>
      <trkpt lat="43.16074" lon="-1.2382">
        <ele>188.56</ele>
        <time>2021-08-20T17:03:19Z</time>
      </trkpt>
      <trkpt lat="43.16072" lon="-1.23821">
        <ele>188.56</ele>
        <time>2021-08-20T17:03:37Z</time>
      </trkpt>
      <trkpt lat="43.16073" lon="-1.23821">
        <ele>188.56</ele>
        <time>2021-08-20T17:03:53Z</time>
      </trkpt>
      <trkpt lat="43.16074" lon="-1.23818">
        <ele>188.56</ele>
        <time>2021-08-20T17:04:10Z</time>
      </trkpt>
      <trkpt lat="43.16074" lon="-1.23818">
        <ele>188.56</ele>
        <time>2021-08-20T17:04:25Z</time>
      </trkpt>
      <trkpt lat="43.16073" lon="-1.23816">
        <ele>188.56</ele>
        <time>2021-08-20T17:04:44Z</time>
      </trkpt>
      <trkpt lat="43.16075" lon="-1.23816">
        <ele>189.04</ele>
        <time>2021-08-20T17:04:56Z</time>
      </trkpt>
      <trkpt lat="43.16075" lon="-1.23809">
        <ele>189.04</ele>
        <time>2021-08-20T17:05:16Z</time>
      </trkpt>
      <trkpt lat="43.16074" lon="-1.23811">
        <ele>189.04</ele>
        <time>2021-08-20T17:05:31Z</time>
      </trkpt>
      <trkpt lat="43.1607" lon="-1.23818">
        <ele>189.04</ele>
        <time>2021-08-20T17:05:50Z</time>
      </trkpt>
      <trkpt lat="43.16071" lon="-1.23818">
        <ele>189.04</ele>
        <time>2021-08-20T17:06:05Z</time>
      </trkpt>
      <trkpt lat="43.16075" lon="-1.23817">
        <ele>190.96</ele>
        <time>2021-08-20T17:06:17Z</time>
      </trkpt>
      <trkpt lat="43.16075" lon="-1.23817">
        <ele>187.59</ele>
        <time>2021-08-20T17:06:18Z</time>
      </trkpt>
      <trkpt lat="43.16072" lon="-1.23814">
        <ele>189.52</ele>
        <time>2021-08-20T17:06:24Z</time>
      </trkpt>
      <trkpt lat="43.16069" lon="-1.23818">
        <ele>189.52</ele>
        <time>2021-08-20T17:06:28Z</time>
      </trkpt>
      <trkpt lat="43.16068" lon="-1.23818">
        <ele>189.52</ele>
        <time>2021-08-20T17:06:29Z</time>
      </trkpt>
      <trkpt lat="43.16061" lon="-1.23817">
        <ele>190</ele>
        <time>2021-08-20T17:06:37Z</time>
      </trkpt>
      <trkpt lat="43.16053" lon="-1.23822">
        <ele>190.96</ele>
        <time>2021-08-20T17:06:46Z</time>
      </trkpt>
      <trkpt lat="43.16047" lon="-1.23827">
        <ele>190.96</ele>
        <time>2021-08-20T17:06:57Z</time>
      </trkpt>
      <trkpt lat="43.16046" lon="-1.2383">
        <ele>190.96</ele>
        <time>2021-08-20T17:07:09Z</time>
      </trkpt>
      <trkpt lat="43.16044" lon="-1.23831">
        <ele>190.96</ele>
        <time>2021-08-20T17:07:11Z</time>
      </trkpt>
      <trkpt lat="43.16035" lon="-1.2384">
        <ele>190.96</ele>
        <time>2021-08-20T17:07:17Z</time>
      </trkpt>
      <trkpt lat="43.16019" lon="-1.23847">
        <ele>191.92</ele>
        <time>2021-08-20T17:07:24Z</time>
      </trkpt>
      <trkpt lat="43.15999" lon="-1.23858">
        <ele>192.88</ele>
        <time>2021-08-20T17:07:34Z</time>
      </trkpt>
      <trkpt lat="43.15997" lon="-1.23858">
        <ele>192.88</ele>
        <time>2021-08-20T17:07:35Z</time>
      </trkpt>
      <trkpt lat="43.15995" lon="-1.23859">
        <ele>192.88</ele>
        <time>2021-08-20T17:07:36Z</time>
      </trkpt>
      <trkpt lat="43.15994" lon="-1.23861">
        <ele>192.88</ele>
        <time>2021-08-20T17:07:37Z</time>
      </trkpt>
      <trkpt lat="43.15992" lon="-1.23862">
        <ele>193.36</ele>
        <time>2021-08-20T17:07:38Z</time>
      </trkpt>
      <trkpt lat="43.1599" lon="-1.23863">
        <ele>193.36</ele>
        <time>2021-08-20T17:07:39Z</time>
      </trkpt>
      <trkpt lat="43.15988" lon="-1.23864">
        <ele>193.36</ele>
        <time>2021-08-20T17:07:40Z</time>
      </trkpt>
      <trkpt lat="43.15977" lon="-1.23871">
        <ele>194.32</ele>
        <time>2021-08-20T17:07:46Z</time>
      </trkpt>
      <trkpt lat="43.15967" lon="-1.23882">
        <ele>195.77</ele>
        <time>2021-08-20T17:07:54Z</time>
      </trkpt>
      <trkpt lat="43.15965" lon="-1.239">
        <ele>197.69</ele>
        <time>2021-08-20T17:08:02Z</time>
      </trkpt>
      <trkpt lat="43.15966" lon="-1.2392">
        <ele>198.17</ele>
        <time>2021-08-20T17:08:11Z</time>
      </trkpt>
      <trkpt lat="43.15967" lon="-1.23922">
        <ele>198.65</ele>
        <time>2021-08-20T17:08:12Z</time>
      </trkpt>
      <trkpt lat="43.15967" lon="-1.23925">
        <ele>198.65</ele>
        <time>2021-08-20T17:08:13Z</time>
      </trkpt>
      <trkpt lat="43.15968" lon="-1.23927">
        <ele>198.65</ele>
        <time>2021-08-20T17:08:14Z</time>
      </trkpt>
      <trkpt lat="43.15968" lon="-1.2393">
        <ele>198.65</ele>
        <time>2021-08-20T17:08:15Z</time>
      </trkpt>
      <trkpt lat="43.15968" lon="-1.23933">
        <ele>198.65</ele>
        <time>2021-08-20T17:08:16Z</time>
      </trkpt>
      <trkpt lat="43.15969" lon="-1.23936">
        <ele>198.65</ele>
        <time>2021-08-20T17:08:17Z</time>
      </trkpt>
      <trkpt lat="43.15969" lon="-1.23939">
        <ele>199.13</ele>
        <time>2021-08-20T17:08:18Z</time>
      </trkpt>
      <trkpt lat="43.15969" lon="-1.23942">
        <ele>199.13</ele>
        <time>2021-08-20T17:08:19Z</time>
      </trkpt>
      <trkpt lat="43.15969" lon="-1.23944">
        <ele>199.13</ele>
        <time>2021-08-20T17:08:20Z</time>
      </trkpt>
      <trkpt lat="43.1597" lon="-1.23947">
        <ele>199.13</ele>
        <time>2021-08-20T17:08:21Z</time>
      </trkpt>
      <trkpt lat="43.15975" lon="-1.23963">
        <ele>200.09</ele>
        <time>2021-08-20T17:08:28Z</time>
      </trkpt>
      <trkpt lat="43.15976" lon="-1.23966">
        <ele>200.09</ele>
        <time>2021-08-20T17:08:29Z</time>
      </trkpt>
      <trkpt lat="43.15977" lon="-1.23968">
        <ele>200.09</ele>
        <time>2021-08-20T17:08:30Z</time>
      </trkpt>
      <trkpt lat="43.15984" lon="-1.2399">
        <ele>201.05</ele>
        <time>2021-08-20T17:08:40Z</time>
      </trkpt>
      <trkpt lat="43.15998" lon="-1.24016">
        <ele>201.05</ele>
        <time>2021-08-20T17:08:50Z</time>
      </trkpt>
      <trkpt lat="43.16014" lon="-1.24042">
        <ele>201.53</ele>
        <time>2021-08-20T17:08:59Z</time>
      </trkpt>
      <trkpt lat="43.16027" lon="-1.24067">
        <ele>202.01</ele>
        <time>2021-08-20T17:09:08Z</time>
      </trkpt>
      <trkpt lat="43.16039" lon="-1.24095">
        <ele>202.98</ele>
        <time>2021-08-20T17:09:18Z</time>
      </trkpt>
      <trkpt lat="43.16045" lon="-1.24114">
        <ele>203.46</ele>
        <time>2021-08-20T17:09:25Z</time>
      </trkpt>
      <trkpt lat="43.1605" lon="-1.24137">
        <ele>204.42</ele>
        <time>2021-08-20T17:09:33Z</time>
      </trkpt>
      <trkpt lat="43.16053" lon="-1.24162">
        <ele>205.86</ele>
        <time>2021-08-20T17:09:42Z</time>
      </trkpt>
      <trkpt lat="43.16053" lon="-1.24173">
        <ele>206.34</ele>
        <time>2021-08-20T17:09:46Z</time>
      </trkpt>
      <trkpt lat="43.16053" lon="-1.24176">
        <ele>206.34</ele>
        <time>2021-08-20T17:09:47Z</time>
      </trkpt>
      <trkpt lat="43.16052" lon="-1.24178">
        <ele>206.34</ele>
        <time>2021-08-20T17:09:48Z</time>
      </trkpt>
      <trkpt lat="43.16051" lon="-1.24181">
        <ele>206.34</ele>
        <time>2021-08-20T17:09:49Z</time>
      </trkpt>
      <trkpt lat="43.1605" lon="-1.24183">
        <ele>206.82</ele>
        <time>2021-08-20T17:09:50Z</time>
      </trkpt>
      <trkpt lat="43.16049" lon="-1.24185">
        <ele>206.82</ele>
        <time>2021-08-20T17:09:51Z</time>
      </trkpt>
      <trkpt lat="43.16048" lon="-1.24187">
        <ele>206.82</ele>
        <time>2021-08-20T17:09:52Z</time>
      </trkpt>
      <trkpt lat="43.16047" lon="-1.24189">
        <ele>207.3</ele>
        <time>2021-08-20T17:09:53Z</time>
      </trkpt>
      <trkpt lat="43.16046" lon="-1.24191">
        <ele>207.3</ele>
        <time>2021-08-20T17:09:54Z</time>
      </trkpt>
      <trkpt lat="43.16046" lon="-1.24194">
        <ele>207.3</ele>
        <time>2021-08-20T17:09:55Z</time>
      </trkpt>
      <trkpt lat="43.16045" lon="-1.24196">
        <ele>207.78</ele>
        <time>2021-08-20T17:09:56Z</time>
      </trkpt>
      <trkpt lat="43.16038" lon="-1.24215">
        <ele>208.26</ele>
        <time>2021-08-20T17:10:05Z</time>
      </trkpt>
      <trkpt lat="43.1603" lon="-1.24238">
        <ele>210.19</ele>
        <time>2021-08-20T17:10:15Z</time>
      </trkpt>
      <trkpt lat="43.16022" lon="-1.24258">
        <ele>211.63</ele>
        <time>2021-08-20T17:10:24Z</time>
      </trkpt>
      <trkpt lat="43.16019" lon="-1.24279">
        <ele>213.07</ele>
        <time>2021-08-20T17:10:33Z</time>
      </trkpt>
      <trkpt lat="43.16015" lon="-1.24298">
        <ele>214.03</ele>
        <time>2021-08-20T17:10:41Z</time>
      </trkpt>
      <trkpt lat="43.16015" lon="-1.24322">
        <ele>212.59</ele>
        <time>2021-08-20T17:10:47Z</time>
      </trkpt>
      <trkpt lat="43.16014" lon="-1.24328">
        <ele>212.59</ele>
        <time>2021-08-20T17:10:48Z</time>
      </trkpt>
      <trkpt lat="43.16007" lon="-1.24368">
        <ele>209.22</ele>
        <time>2021-08-20T17:10:53Z</time>
      </trkpt>
      <trkpt lat="43.15999" lon="-1.24399">
        <ele>206.82</ele>
        <time>2021-08-20T17:10:56Z</time>
      </trkpt>
      <trkpt lat="43.15988" lon="-1.24425">
        <ele>205.86</ele>
        <time>2021-08-20T17:10:59Z</time>
      </trkpt>
      <trkpt lat="43.15963" lon="-1.24466">
        <ele>204.9</ele>
        <time>2021-08-20T17:11:05Z</time>
      </trkpt>
      <trkpt lat="43.15956" lon="-1.24478">
        <ele>204.42</ele>
        <time>2021-08-20T17:11:07Z</time>
      </trkpt>
      <trkpt lat="43.15943" lon="-1.24499">
        <ele>204.9</ele>
        <time>2021-08-20T17:11:11Z</time>
      </trkpt>
      <trkpt lat="43.15918" lon="-1.24538">
        <ele>204.42</ele>
        <time>2021-08-20T17:11:19Z</time>
      </trkpt>
      <trkpt lat="43.15898" lon="-1.24583">
        <ele>203.94</ele>
        <time>2021-08-20T17:11:27Z</time>
      </trkpt>
      <trkpt lat="43.15873" lon="-1.2465">
        <ele>202.49</ele>
        <time>2021-08-20T17:11:38Z</time>
      </trkpt>
      <trkpt lat="43.15849" lon="-1.24712">
        <ele>202.49</ele>
        <time>2021-08-20T17:11:48Z</time>
      </trkpt>
      <trkpt lat="43.15838" lon="-1.24741">
        <ele>202.49</ele>
        <time>2021-08-20T17:11:53Z</time>
      </trkpt>
      <trkpt lat="43.15835" lon="-1.24754">
        <ele>202.49</ele>
        <time>2021-08-20T17:11:55Z</time>
      </trkpt>
      <trkpt lat="43.15832" lon="-1.24759">
        <ele>202.49</ele>
        <time>2021-08-20T17:11:56Z</time>
      </trkpt>
      <trkpt lat="43.1581" lon="-1.24792">
        <ele>201.53</ele>
        <time>2021-08-20T17:12:03Z</time>
      </trkpt>
      <trkpt lat="43.15806" lon="-1.24797">
        <ele>201.53</ele>
        <time>2021-08-20T17:12:04Z</time>
      </trkpt>
      <trkpt lat="43.15802" lon="-1.24802">
        <ele>201.05</ele>
        <time>2021-08-20T17:12:05Z</time>
      </trkpt>
      <trkpt lat="43.15798" lon="-1.24808">
        <ele>200.57</ele>
        <time>2021-08-20T17:12:06Z</time>
      </trkpt>
      <trkpt lat="43.1579" lon="-1.24823">
        <ele>199.13</ele>
        <time>2021-08-20T17:12:08Z</time>
      </trkpt>
      <trkpt lat="43.15765" lon="-1.24881">
        <ele>195.77</ele>
        <time>2021-08-20T17:12:14Z</time>
      </trkpt>
      <trkpt lat="43.1576" lon="-1.2489">
        <ele>195.28</ele>
        <time>2021-08-20T17:12:15Z</time>
      </trkpt>
      <trkpt lat="43.15754" lon="-1.24899">
        <ele>194.8</ele>
        <time>2021-08-20T17:12:16Z</time>
      </trkpt>
      <trkpt lat="43.15747" lon="-1.24907">
        <ele>194.8</ele>
        <time>2021-08-20T17:12:17Z</time>
      </trkpt>
      <trkpt lat="43.1574" lon="-1.24915">
        <ele>194.32</ele>
        <time>2021-08-20T17:12:18Z</time>
      </trkpt>
      <trkpt lat="43.15733" lon="-1.24921">
        <ele>194.32</ele>
        <time>2021-08-20T17:12:19Z</time>
      </trkpt>
      <trkpt lat="43.15725" lon="-1.24926">
        <ele>194.32</ele>
        <time>2021-08-20T17:12:20Z</time>
      </trkpt>
      <trkpt lat="43.15718" lon="-1.2493">
        <ele>194.32</ele>
        <time>2021-08-20T17:12:21Z</time>
      </trkpt>
      <trkpt lat="43.1571" lon="-1.24933">
        <ele>194.32</ele>
        <time>2021-08-20T17:12:22Z</time>
      </trkpt>
      <trkpt lat="43.15703" lon="-1.24935">
        <ele>194.32</ele>
        <time>2021-08-20T17:12:23Z</time>
      </trkpt>
      <trkpt lat="43.15681" lon="-1.24937">
        <ele>194.32</ele>
        <time>2021-08-20T17:12:26Z</time>
      </trkpt>
      <trkpt lat="43.15666" lon="-1.24935">
        <ele>193.36</ele>
        <time>2021-08-20T17:12:28Z</time>
      </trkpt>
      <trkpt lat="43.15612" lon="-1.24923">
        <ele>191.44</ele>
        <time>2021-08-20T17:12:35Z</time>
      </trkpt>
      <trkpt lat="43.1556" lon="-1.24922">
        <ele>189.04</ele>
        <time>2021-08-20T17:12:41Z</time>
      </trkpt>
      <trkpt lat="43.15513" lon="-1.24928">
        <ele>186.63</ele>
        <time>2021-08-20T17:12:47Z</time>
      </trkpt>
      <trkpt lat="43.15486" lon="-1.24939">
        <ele>183.27</ele>
        <time>2021-08-20T17:12:51Z</time>
      </trkpt>
      <trkpt lat="43.15482" lon="-1.24942">
        <ele>182.79</ele>
        <time>2021-08-20T17:12:52Z</time>
      </trkpt>
      <trkpt lat="43.15479" lon="-1.24949">
        <ele>182.31</ele>
        <time>2021-08-20T17:12:53Z</time>
      </trkpt>
      <trkpt lat="43.15478" lon="-1.24957">
        <ele>181.83</ele>
        <time>2021-08-20T17:12:54Z</time>
      </trkpt>
      <trkpt lat="43.15479" lon="-1.24965">
        <ele>181.83</ele>
        <time>2021-08-20T17:12:55Z</time>
      </trkpt>
      <trkpt lat="43.1548" lon="-1.24972">
        <ele>181.83</ele>
        <time>2021-08-20T17:12:56Z</time>
      </trkpt>
      <trkpt lat="43.15482" lon="-1.24979">
        <ele>181.83</ele>
        <time>2021-08-20T17:12:57Z</time>
      </trkpt>
      <trkpt lat="43.15484" lon="-1.24986">
        <ele>181.83</ele>
        <time>2021-08-20T17:12:58Z</time>
      </trkpt>
      <trkpt lat="43.15486" lon="-1.24991">
        <ele>181.83</ele>
        <time>2021-08-20T17:12:59Z</time>
      </trkpt>
      <trkpt lat="43.15489" lon="-1.25002">
        <ele>181.83</ele>
        <time>2021-08-20T17:13:01Z</time>
      </trkpt>
      <trkpt lat="43.15492" lon="-1.25029">
        <ele>184.23</ele>
        <time>2021-08-20T17:13:07Z</time>
      </trkpt>
      <trkpt lat="43.15489" lon="-1.25046">
        <ele>186.15</ele>
        <time>2021-08-20T17:13:13Z</time>
      </trkpt>
      <trkpt lat="43.15472" lon="-1.25065">
        <ele>187.11</ele>
        <time>2021-08-20T17:13:21Z</time>
      </trkpt>
      <trkpt lat="43.15455" lon="-1.25079">
        <ele>187.11</ele>
        <time>2021-08-20T17:13:29Z</time>
      </trkpt>
      <trkpt lat="43.15442" lon="-1.25098">
        <ele>187.11</ele>
        <time>2021-08-20T17:13:35Z</time>
      </trkpt>
      <trkpt lat="43.15441" lon="-1.25104">
        <ele>186.15</ele>
        <time>2021-08-20T17:13:36Z</time>
      </trkpt>
      <trkpt lat="43.15442" lon="-1.2511">
        <ele>186.15</ele>
        <time>2021-08-20T17:13:37Z</time>
      </trkpt>
      <trkpt lat="43.15442" lon="-1.25129">
        <ele>185.19</ele>
        <time>2021-08-20T17:13:40Z</time>
      </trkpt>
      <trkpt lat="43.15444" lon="-1.25169">
        <ele>185.19</ele>
        <time>2021-08-20T17:13:46Z</time>
      </trkpt>
      <trkpt lat="43.15445" lon="-1.25176">
        <ele>185.19</ele>
        <time>2021-08-20T17:13:47Z</time>
      </trkpt>
      <trkpt lat="43.15445" lon="-1.25229">
        <ele>185.19</ele>
        <time>2021-08-20T17:13:57Z</time>
      </trkpt>
      <trkpt lat="43.15446" lon="-1.25265">
        <ele>187.59</ele>
        <time>2021-08-20T17:14:05Z</time>
      </trkpt>
      <trkpt lat="43.15447" lon="-1.25299">
        <ele>188.08</ele>
        <time>2021-08-20T17:14:13Z</time>
      </trkpt>
      <trkpt lat="43.15445" lon="-1.25326">
        <ele>189.04</ele>
        <time>2021-08-20T17:14:21Z</time>
      </trkpt>
      <trkpt lat="43.15444" lon="-1.25342">
        <ele>190.48</ele>
        <time>2021-08-20T17:14:28Z</time>
      </trkpt>
      <trkpt lat="43.15441" lon="-1.25363">
        <ele>191.44</ele>
        <time>2021-08-20T17:14:36Z</time>
      </trkpt>
      <trkpt lat="43.1544" lon="-1.25373">
        <ele>191.92</ele>
        <time>2021-08-20T17:14:41Z</time>
      </trkpt>
      <trkpt lat="43.1544" lon="-1.25376">
        <ele>191.92</ele>
        <time>2021-08-20T17:14:42Z</time>
      </trkpt>
      <trkpt lat="43.1544" lon="-1.25378">
        <ele>191.44</ele>
        <time>2021-08-20T17:14:43Z</time>
      </trkpt>
      <trkpt lat="43.15439" lon="-1.2538">
        <ele>191.44</ele>
        <time>2021-08-20T17:14:44Z</time>
      </trkpt>
      <trkpt lat="43.15438" lon="-1.25382">
        <ele>191.92</ele>
        <time>2021-08-20T17:14:45Z</time>
      </trkpt>
      <trkpt lat="43.15437" lon="-1.25384">
        <ele>191.92</ele>
        <time>2021-08-20T17:14:46Z</time>
      </trkpt>
      <trkpt lat="43.15434" lon="-1.25399">
        <ele>193.36</ele>
        <time>2021-08-20T17:14:54Z</time>
      </trkpt>
      <trkpt lat="43.15434" lon="-1.254">
        <ele>193.36</ele>
        <time>2021-08-20T17:14:55Z</time>
      </trkpt>
      <trkpt lat="43.15433" lon="-1.25402">
        <ele>193.84</ele>
        <time>2021-08-20T17:14:56Z</time>
      </trkpt>
      <trkpt lat="43.15433" lon="-1.25403">
        <ele>193.84</ele>
        <time>2021-08-20T17:14:57Z</time>
      </trkpt>
      <trkpt lat="43.15432" lon="-1.25405">
        <ele>194.32</ele>
        <time>2021-08-20T17:14:58Z</time>
      </trkpt>
      <trkpt lat="43.15431" lon="-1.25406">
        <ele>194.32</ele>
        <time>2021-08-20T17:14:59Z</time>
      </trkpt>
      <trkpt lat="43.1543" lon="-1.25408">
        <ele>194.32</ele>
        <time>2021-08-20T17:15:00Z</time>
      </trkpt>
      <trkpt lat="43.15429" lon="-1.25409">
        <ele>194.32</ele>
        <time>2021-08-20T17:15:01Z</time>
      </trkpt>
      <trkpt lat="43.15428" lon="-1.2541">
        <ele>194.8</ele>
        <time>2021-08-20T17:15:02Z</time>
      </trkpt>
      <trkpt lat="43.15427" lon="-1.2541">
        <ele>194.8</ele>
        <time>2021-08-20T17:15:03Z</time>
      </trkpt>
      <trkpt lat="43.15426" lon="-1.25412">
        <ele>195.28</ele>
        <time>2021-08-20T17:15:04Z</time>
      </trkpt>
      <trkpt lat="43.15425" lon="-1.25413">
        <ele>195.28</ele>
        <time>2021-08-20T17:15:05Z</time>
      </trkpt>
      <trkpt lat="43.15419" lon="-1.25425">
        <ele>196.73</ele>
        <time>2021-08-20T17:15:13Z</time>
      </trkpt>
      <trkpt lat="43.15417" lon="-1.25428">
        <ele>196.73</ele>
        <time>2021-08-20T17:15:15Z</time>
      </trkpt>
      <trkpt lat="43.15416" lon="-1.25429">
        <ele>196.73</ele>
        <time>2021-08-20T17:15:16Z</time>
      </trkpt>
      <trkpt lat="43.15411" lon="-1.25435">
        <ele>198.17</ele>
        <time>2021-08-20T17:15:20Z</time>
      </trkpt>
      <trkpt lat="43.1541" lon="-1.25437">
        <ele>198.17</ele>
        <time>2021-08-20T17:15:21Z</time>
      </trkpt>
      <trkpt lat="43.15409" lon="-1.25439">
        <ele>198.17</ele>
        <time>2021-08-20T17:15:22Z</time>
      </trkpt>
      <trkpt lat="43.15397" lon="-1.25457">
        <ele>200.57</ele>
        <time>2021-08-20T17:15:32Z</time>
      </trkpt>
      <trkpt lat="43.15381" lon="-1.25475">
        <ele>201.53</ele>
        <time>2021-08-20T17:15:43Z</time>
      </trkpt>
      <trkpt lat="43.15363" lon="-1.25497">
        <ele>201.53</ele>
        <time>2021-08-20T17:15:53Z</time>
      </trkpt>
      <trkpt lat="43.15358" lon="-1.2551">
        <ele>201.53</ele>
        <time>2021-08-20T17:15:58Z</time>
      </trkpt>
      <trkpt lat="43.1536" lon="-1.25512">
        <ele>202.01</ele>
        <time>2021-08-20T17:15:59Z</time>
      </trkpt>
      <trkpt lat="43.15362" lon="-1.25514">
        <ele>202.01</ele>
        <time>2021-08-20T17:16:00Z</time>
      </trkpt>
      <trkpt lat="43.15363" lon="-1.25515">
        <ele>202.01</ele>
        <time>2021-08-20T17:16:01Z</time>
      </trkpt>
      <trkpt lat="43.15365" lon="-1.25516">
        <ele>202.01</ele>
        <time>2021-08-20T17:16:02Z</time>
      </trkpt>
      <trkpt lat="43.15368" lon="-1.25517">
        <ele>202.01</ele>
        <time>2021-08-20T17:16:03Z</time>
      </trkpt>
      <trkpt lat="43.1537" lon="-1.25518">
        <ele>202.01</ele>
        <time>2021-08-20T17:16:04Z</time>
      </trkpt>
      <trkpt lat="43.15373" lon="-1.25519">
        <ele>202.01</ele>
        <time>2021-08-20T17:16:05Z</time>
      </trkpt>
      <trkpt lat="43.15401" lon="-1.25533">
        <ele>202.01</ele>
        <time>2021-08-20T17:16:14Z</time>
      </trkpt>
      <trkpt lat="43.15429" lon="-1.25553">
        <ele>200.57</ele>
        <time>2021-08-20T17:16:22Z</time>
      </trkpt>
      <trkpt lat="43.15476" lon="-1.25589">
        <ele>198.65</ele>
        <time>2021-08-20T17:16:33Z</time>
      </trkpt>
      <trkpt lat="43.15493" lon="-1.256">
        <ele>197.21</ele>
        <time>2021-08-20T17:16:36Z</time>
      </trkpt>
      <trkpt lat="43.155" lon="-1.25602">
        <ele>197.21</ele>
        <time>2021-08-20T17:16:37Z</time>
      </trkpt>
      <trkpt lat="43.15507" lon="-1.25603">
        <ele>196.25</ele>
        <time>2021-08-20T17:16:38Z</time>
      </trkpt>
      <trkpt lat="43.1554" lon="-1.25607">
        <ele>192.88</ele>
        <time>2021-08-20T17:16:42Z</time>
      </trkpt>
      <trkpt lat="43.15584" lon="-1.25613">
        <ele>191.92</ele>
        <time>2021-08-20T17:16:47Z</time>
      </trkpt>
      <trkpt lat="43.15591" lon="-1.25616">
        <ele>191.92</ele>
        <time>2021-08-20T17:16:48Z</time>
      </trkpt>
      <trkpt lat="43.15598" lon="-1.25621">
        <ele>191.92</ele>
        <time>2021-08-20T17:16:49Z</time>
      </trkpt>
      <trkpt lat="43.15604" lon="-1.25626">
        <ele>191.92</ele>
        <time>2021-08-20T17:16:50Z</time>
      </trkpt>
      <trkpt lat="43.1561" lon="-1.25631">
        <ele>191.92</ele>
        <time>2021-08-20T17:16:51Z</time>
      </trkpt>
      <trkpt lat="43.15637" lon="-1.25653">
        <ele>192.88</ele>
        <time>2021-08-20T17:16:56Z</time>
      </trkpt>
      <trkpt lat="43.15641" lon="-1.25657">
        <ele>193.36</ele>
        <time>2021-08-20T17:16:57Z</time>
      </trkpt>
      <trkpt lat="43.15646" lon="-1.2566">
        <ele>193.84</ele>
        <time>2021-08-20T17:16:58Z</time>
      </trkpt>
      <trkpt lat="43.15651" lon="-1.25662">
        <ele>193.84</ele>
        <time>2021-08-20T17:16:59Z</time>
      </trkpt>
      <trkpt lat="43.15672" lon="-1.25676">
        <ele>195.77</ele>
        <time>2021-08-20T17:17:06Z</time>
      </trkpt>
      <trkpt lat="43.15692" lon="-1.25688">
        <ele>197.21</ele>
        <time>2021-08-20T17:17:15Z</time>
      </trkpt>
      <trkpt lat="43.15709" lon="-1.25702">
        <ele>198.17</ele>
        <time>2021-08-20T17:17:24Z</time>
      </trkpt>
      <trkpt lat="43.15715" lon="-1.25723">
        <ele>199.61</ele>
        <time>2021-08-20T17:17:31Z</time>
      </trkpt>
      <trkpt lat="43.15719" lon="-1.25749">
        <ele>200.57</ele>
        <time>2021-08-20T17:17:40Z</time>
      </trkpt>
      <trkpt lat="43.15727" lon="-1.25783">
        <ele>202.49</ele>
        <time>2021-08-20T17:17:52Z</time>
      </trkpt>
      <trkpt lat="43.15732" lon="-1.25811">
        <ele>203.94</ele>
        <time>2021-08-20T17:18:02Z</time>
      </trkpt>
      <trkpt lat="43.15738" lon="-1.2584">
        <ele>204.9</ele>
        <time>2021-08-20T17:18:12Z</time>
      </trkpt>
      <trkpt lat="43.15743" lon="-1.25875">
        <ele>205.86</ele>
        <time>2021-08-20T17:18:23Z</time>
      </trkpt>
      <trkpt lat="43.15741" lon="-1.25894">
        <ele>206.82</ele>
        <time>2021-08-20T17:18:30Z</time>
      </trkpt>
      <trkpt lat="43.15733" lon="-1.25908">
        <ele>207.3</ele>
        <time>2021-08-20T17:18:37Z</time>
      </trkpt>
      <trkpt lat="43.15726" lon="-1.25922">
        <ele>207.78</ele>
        <time>2021-08-20T17:18:43Z</time>
      </trkpt>
      <trkpt lat="43.15718" lon="-1.25938">
        <ele>208.74</ele>
        <time>2021-08-20T17:18:51Z</time>
      </trkpt>
      <trkpt lat="43.15712" lon="-1.25969">
        <ele>209.7</ele>
        <time>2021-08-20T17:19:02Z</time>
      </trkpt>
      <trkpt lat="43.15712" lon="-1.25989">
        <ele>211.15</ele>
        <time>2021-08-20T17:19:10Z</time>
      </trkpt>
      <trkpt lat="43.15715" lon="-1.26009">
        <ele>212.59</ele>
        <time>2021-08-20T17:19:18Z</time>
      </trkpt>
      <trkpt lat="43.15716" lon="-1.26012">
        <ele>212.59</ele>
        <time>2021-08-20T17:19:19Z</time>
      </trkpt>
      <trkpt lat="43.15717" lon="-1.26014">
        <ele>213.07</ele>
        <time>2021-08-20T17:19:20Z</time>
      </trkpt>
      <trkpt lat="43.15718" lon="-1.26017">
        <ele>213.07</ele>
        <time>2021-08-20T17:19:21Z</time>
      </trkpt>
      <trkpt lat="43.15718" lon="-1.26019">
        <ele>213.07</ele>
        <time>2021-08-20T17:19:22Z</time>
      </trkpt>
      <trkpt lat="43.15719" lon="-1.26021">
        <ele>213.07</ele>
        <time>2021-08-20T17:19:23Z</time>
      </trkpt>
      <trkpt lat="43.15719" lon="-1.26024">
        <ele>213.55</ele>
        <time>2021-08-20T17:19:25Z</time>
      </trkpt>
      <trkpt lat="43.15718" lon="-1.26025">
        <ele>213.55</ele>
        <time>2021-08-20T17:19:26Z</time>
      </trkpt>
      <trkpt lat="43.15717" lon="-1.26026">
        <ele>213.55</ele>
        <time>2021-08-20T17:19:27Z</time>
      </trkpt>
      <trkpt lat="43.15715" lon="-1.26026">
        <ele>213.55</ele>
        <time>2021-08-20T17:19:28Z</time>
      </trkpt>
      <trkpt lat="43.15713" lon="-1.26026">
        <ele>213.55</ele>
        <time>2021-08-20T17:19:29Z</time>
      </trkpt>
      <trkpt lat="43.15711" lon="-1.26027">
        <ele>213.55</ele>
        <time>2021-08-20T17:19:30Z</time>
      </trkpt>
      <trkpt lat="43.15709" lon="-1.26028">
        <ele>213.55</ele>
        <time>2021-08-20T17:19:31Z</time>
      </trkpt>
      <trkpt lat="43.15708" lon="-1.26031">
        <ele>213.07</ele>
        <time>2021-08-20T17:19:32Z</time>
      </trkpt>
      <trkpt lat="43.15708" lon="-1.26034">
        <ele>213.07</ele>
        <time>2021-08-20T17:19:33Z</time>
      </trkpt>
      <trkpt lat="43.15708" lon="-1.26036">
        <ele>213.07</ele>
        <time>2021-08-20T17:19:34Z</time>
      </trkpt>
      <trkpt lat="43.15708" lon="-1.26038">
        <ele>213.07</ele>
        <time>2021-08-20T17:19:35Z</time>
      </trkpt>
      <trkpt lat="43.15708" lon="-1.26047">
        <ele>214.03</ele>
        <time>2021-08-20T17:19:39Z</time>
      </trkpt>
      <trkpt lat="43.15707" lon="-1.26049">
        <ele>214.03</ele>
        <time>2021-08-20T17:19:40Z</time>
      </trkpt>
      <trkpt lat="43.15707" lon="-1.26051">
        <ele>214.51</ele>
        <time>2021-08-20T17:19:41Z</time>
      </trkpt>
      <trkpt lat="43.15707" lon="-1.26053">
        <ele>214.51</ele>
        <time>2021-08-20T17:19:42Z</time>
      </trkpt>
      <trkpt lat="43.15706" lon="-1.26055">
        <ele>214.51</ele>
        <time>2021-08-20T17:19:43Z</time>
      </trkpt>
      <trkpt lat="43.15706" lon="-1.26057">
        <ele>214.99</ele>
        <time>2021-08-20T17:19:44Z</time>
      </trkpt>
      <trkpt lat="43.15706" lon="-1.26059">
        <ele>214.99</ele>
        <time>2021-08-20T17:19:45Z</time>
      </trkpt>
      <trkpt lat="43.15706" lon="-1.26076">
        <ele>216.91</ele>
        <time>2021-08-20T17:19:53Z</time>
      </trkpt>
      <trkpt lat="43.15706" lon="-1.26082">
        <ele>217.4</ele>
        <time>2021-08-20T17:19:56Z</time>
      </trkpt>
      <trkpt lat="43.15705" lon="-1.26097">
        <ele>218.36</ele>
        <time>2021-08-20T17:20:02Z</time>
      </trkpt>
      <trkpt lat="43.15707" lon="-1.26118">
        <ele>218.84</ele>
        <time>2021-08-20T17:20:10Z</time>
      </trkpt>
      <trkpt lat="43.15712" lon="-1.26125">
        <ele>219.32</ele>
        <time>2021-08-20T17:20:14Z</time>
      </trkpt>
      <trkpt lat="43.15712" lon="-1.26128">
        <ele>219.32</ele>
        <time>2021-08-20T17:20:15Z</time>
      </trkpt>
      <trkpt lat="43.15712" lon="-1.26154">
        <ele>220.28</ele>
        <time>2021-08-20T17:20:25Z</time>
      </trkpt>
      <trkpt lat="43.15713" lon="-1.26174">
        <ele>220.28</ele>
        <time>2021-08-20T17:20:32Z</time>
      </trkpt>
      <trkpt lat="43.15715" lon="-1.26196">
        <ele>221.24</ele>
        <time>2021-08-20T17:20:40Z</time>
      </trkpt>
      <trkpt lat="43.15717" lon="-1.26215">
        <ele>221.72</ele>
        <time>2021-08-20T17:20:47Z</time>
      </trkpt>
      <trkpt lat="43.15719" lon="-1.26236">
        <ele>223.16</ele>
        <time>2021-08-20T17:20:55Z</time>
      </trkpt>
      <trkpt lat="43.15719" lon="-1.26238">
        <ele>223.16</ele>
        <time>2021-08-20T17:20:56Z</time>
      </trkpt>
      <trkpt lat="43.1572" lon="-1.2624">
        <ele>223.64</ele>
        <time>2021-08-20T17:20:57Z</time>
      </trkpt>
      <trkpt lat="43.1572" lon="-1.26243">
        <ele>223.64</ele>
        <time>2021-08-20T17:20:58Z</time>
      </trkpt>
      <trkpt lat="43.15721" lon="-1.26245">
        <ele>223.64</ele>
        <time>2021-08-20T17:20:59Z</time>
      </trkpt>
      <trkpt lat="43.15721" lon="-1.26248">
        <ele>224.12</ele>
        <time>2021-08-20T17:21:00Z</time>
      </trkpt>
      <trkpt lat="43.15723" lon="-1.2628">
        <ele>225.57</ele>
        <time>2021-08-20T17:21:12Z</time>
      </trkpt>
      <trkpt lat="43.15721" lon="-1.26304">
        <ele>226.53</ele>
        <time>2021-08-20T17:21:20Z</time>
      </trkpt>
      <trkpt lat="43.15718" lon="-1.26328">
        <ele>226.53</ele>
        <time>2021-08-20T17:21:28Z</time>
      </trkpt>
      <trkpt lat="43.15716" lon="-1.26351">
        <ele>227.97</ele>
        <time>2021-08-20T17:21:37Z</time>
      </trkpt>
      <trkpt lat="43.15714" lon="-1.26371">
        <ele>229.41</ele>
        <time>2021-08-20T17:21:45Z</time>
      </trkpt>
      <trkpt lat="43.15715" lon="-1.26389">
        <ele>230.85</ele>
        <time>2021-08-20T17:21:52Z</time>
      </trkpt>
      <trkpt lat="43.15715" lon="-1.26392">
        <ele>230.85</ele>
        <time>2021-08-20T17:21:53Z</time>
      </trkpt>
      <trkpt lat="43.15715" lon="-1.26395">
        <ele>231.33</ele>
        <time>2021-08-20T17:21:54Z</time>
      </trkpt>
      <trkpt lat="43.15715" lon="-1.26398">
        <ele>231.33</ele>
        <time>2021-08-20T17:21:55Z</time>
      </trkpt>
      <trkpt lat="43.15715" lon="-1.26401">
        <ele>231.33</ele>
        <time>2021-08-20T17:21:56Z</time>
      </trkpt>
      <trkpt lat="43.15715" lon="-1.26404">
        <ele>231.81</ele>
        <time>2021-08-20T17:21:57Z</time>
      </trkpt>
      <trkpt lat="43.15715" lon="-1.26407">
        <ele>231.81</ele>
        <time>2021-08-20T17:21:58Z</time>
      </trkpt>
      <trkpt lat="43.15711" lon="-1.26439">
        <ele>232.3</ele>
        <time>2021-08-20T17:22:08Z</time>
      </trkpt>
      <trkpt lat="43.15709" lon="-1.26466">
        <ele>232.78</ele>
        <time>2021-08-20T17:22:16Z</time>
      </trkpt>
      <trkpt lat="43.15706" lon="-1.26504">
        <ele>233.26</ele>
        <time>2021-08-20T17:22:27Z</time>
      </trkpt>
      <trkpt lat="43.15705" lon="-1.26532">
        <ele>233.74</ele>
        <time>2021-08-20T17:22:35Z</time>
      </trkpt>
      <trkpt lat="43.15705" lon="-1.26557">
        <ele>235.18</ele>
        <time>2021-08-20T17:22:44Z</time>
      </trkpt>
      <trkpt lat="43.15705" lon="-1.26559">
        <ele>235.18</ele>
        <time>2021-08-20T17:22:45Z</time>
      </trkpt>
      <trkpt lat="43.15705" lon="-1.26561">
        <ele>235.18</ele>
        <time>2021-08-20T17:22:46Z</time>
      </trkpt>
      <trkpt lat="43.15705" lon="-1.26563">
        <ele>235.18</ele>
        <time>2021-08-20T17:22:47Z</time>
      </trkpt>
      <trkpt lat="43.15705" lon="-1.26565">
        <ele>235.66</ele>
        <time>2021-08-20T17:22:48Z</time>
      </trkpt>
      <trkpt lat="43.15706" lon="-1.26568">
        <ele>235.66</ele>
        <time>2021-08-20T17:22:49Z</time>
      </trkpt>
      <trkpt lat="43.15709" lon="-1.26589">
        <ele>236.62</ele>
        <time>2021-08-20T17:22:57Z</time>
      </trkpt>
      <trkpt lat="43.1571" lon="-1.26618">
        <ele>236.62</ele>
        <time>2021-08-20T17:23:04Z</time>
      </trkpt>
      <trkpt lat="43.15711" lon="-1.2663">
        <ele>234.7</ele>
        <time>2021-08-20T17:23:06Z</time>
      </trkpt>
      <trkpt lat="43.15711" lon="-1.26637">
        <ele>234.7</ele>
        <time>2021-08-20T17:23:07Z</time>
      </trkpt>
      <trkpt lat="43.15715" lon="-1.26691">
        <ele>233.74</ele>
        <time>2021-08-20T17:23:15Z</time>
      </trkpt>
      <trkpt lat="43.15719" lon="-1.26712">
        <ele>235.18</ele>
        <time>2021-08-20T17:23:20Z</time>
      </trkpt>
      <trkpt lat="43.15719" lon="-1.26731">
        <ele>237.1</ele>
        <time>2021-08-20T17:23:28Z</time>
      </trkpt>
      <trkpt lat="43.15713" lon="-1.26749">
        <ele>237.58</ele>
        <time>2021-08-20T17:23:36Z</time>
      </trkpt>
      <trkpt lat="43.15701" lon="-1.26756">
        <ele>239.02</ele>
        <time>2021-08-20T17:23:44Z</time>
      </trkpt>
      <trkpt lat="43.15691" lon="-1.26763">
        <ele>240.95</ele>
        <time>2021-08-20T17:23:53Z</time>
      </trkpt>
      <trkpt lat="43.15685" lon="-1.26768">
        <ele>241.91</ele>
        <time>2021-08-20T17:23:58Z</time>
      </trkpt>
      <trkpt lat="43.15684" lon="-1.2677">
        <ele>241.91</ele>
        <time>2021-08-20T17:23:59Z</time>
      </trkpt>
      <trkpt lat="43.15684" lon="-1.26772">
        <ele>241.91</ele>
        <time>2021-08-20T17:24:00Z</time>
      </trkpt>
      <trkpt lat="43.15684" lon="-1.26774">
        <ele>242.39</ele>
        <time>2021-08-20T17:24:01Z</time>
      </trkpt>
      <trkpt lat="43.15684" lon="-1.26776">
        <ele>242.39</ele>
        <time>2021-08-20T17:24:02Z</time>
      </trkpt>
      <trkpt lat="43.15685" lon="-1.26778">
        <ele>242.87</ele>
        <time>2021-08-20T17:24:03Z</time>
      </trkpt>
      <trkpt lat="43.15685" lon="-1.26779">
        <ele>242.87</ele>
        <time>2021-08-20T17:24:04Z</time>
      </trkpt>
      <trkpt lat="43.15687" lon="-1.26784">
        <ele>242.87</ele>
        <time>2021-08-20T17:24:07Z</time>
      </trkpt>
      <trkpt lat="43.15689" lon="-1.26788">
        <ele>243.35</ele>
        <time>2021-08-20T17:24:12Z</time>
      </trkpt>
      <trkpt lat="43.1569" lon="-1.26792">
        <ele>243.83</ele>
        <time>2021-08-20T17:24:15Z</time>
      </trkpt>
      <trkpt lat="43.15694" lon="-1.26802">
        <ele>244.79</ele>
        <time>2021-08-20T17:24:23Z</time>
      </trkpt>
      <trkpt lat="43.15697" lon="-1.2682">
        <ele>245.75</ele>
        <time>2021-08-20T17:24:34Z</time>
      </trkpt>
      <trkpt lat="43.15698" lon="-1.26834">
        <ele>246.72</ele>
        <time>2021-08-20T17:24:44Z</time>
      </trkpt>
      <trkpt lat="43.15698" lon="-1.26847">
        <ele>248.16</ele>
        <time>2021-08-20T17:24:55Z</time>
      </trkpt>
      <trkpt lat="43.15697" lon="-1.26858">
        <ele>249.12</ele>
        <time>2021-08-20T17:25:02Z</time>
      </trkpt>
      <trkpt lat="43.15697" lon="-1.26859">
        <ele>249.12</ele>
        <time>2021-08-20T17:25:03Z</time>
      </trkpt>
      <trkpt lat="43.15695" lon="-1.2687">
        <ele>250.56</ele>
        <time>2021-08-20T17:25:12Z</time>
      </trkpt>
      <trkpt lat="43.15691" lon="-1.26881">
        <ele>252</ele>
        <time>2021-08-20T17:25:21Z</time>
      </trkpt>
      <trkpt lat="43.15689" lon="-1.26885">
        <ele>252</ele>
        <time>2021-08-20T17:25:24Z</time>
      </trkpt>
      <trkpt lat="43.15685" lon="-1.26897">
        <ele>253.44</ele>
        <time>2021-08-20T17:25:33Z</time>
      </trkpt>
      <trkpt lat="43.1568" lon="-1.26909">
        <ele>254.89</ele>
        <time>2021-08-20T17:25:44Z</time>
      </trkpt>
      <trkpt lat="43.15674" lon="-1.26923">
        <ele>255.85</ele>
        <time>2021-08-20T17:25:55Z</time>
      </trkpt>
      <trkpt lat="43.15673" lon="-1.26926">
        <ele>256.33</ele>
        <time>2021-08-20T17:26:00Z</time>
      </trkpt>
      <trkpt lat="43.15669" lon="-1.26936">
        <ele>256.81</ele>
        <time>2021-08-20T17:26:07Z</time>
      </trkpt>
      <trkpt lat="43.1566" lon="-1.26955">
        <ele>257.77</ele>
        <time>2021-08-20T17:26:16Z</time>
      </trkpt>
      <trkpt lat="43.15653" lon="-1.26976">
        <ele>258.73</ele>
        <time>2021-08-20T17:26:25Z</time>
      </trkpt>
      <trkpt lat="43.15652" lon="-1.26978">
        <ele>259.21</ele>
        <time>2021-08-20T17:26:27Z</time>
      </trkpt>
      <trkpt lat="43.15652" lon="-1.2698">
        <ele>259.21</ele>
        <time>2021-08-20T17:26:28Z</time>
      </trkpt>
      <trkpt lat="43.15652" lon="-1.26982">
        <ele>259.69</ele>
        <time>2021-08-20T17:26:29Z</time>
      </trkpt>
      <trkpt lat="43.15652" lon="-1.26983">
        <ele>259.69</ele>
        <time>2021-08-20T17:26:30Z</time>
      </trkpt>
      <trkpt lat="43.15652" lon="-1.26985">
        <ele>260.17</ele>
        <time>2021-08-20T17:26:31Z</time>
      </trkpt>
      <trkpt lat="43.15652" lon="-1.26986">
        <ele>260.17</ele>
        <time>2021-08-20T17:26:32Z</time>
      </trkpt>
      <trkpt lat="43.15651" lon="-1.26988">
        <ele>260.17</ele>
        <time>2021-08-20T17:26:33Z</time>
      </trkpt>
      <trkpt lat="43.1565" lon="-1.26989">
        <ele>261.14</ele>
        <time>2021-08-20T17:26:34Z</time>
      </trkpt>
      <trkpt lat="43.1565" lon="-1.26991">
        <ele>261.14</ele>
        <time>2021-08-20T17:26:35Z</time>
      </trkpt>
      <trkpt lat="43.15649" lon="-1.26993">
        <ele>261.14</ele>
        <time>2021-08-20T17:26:36Z</time>
      </trkpt>
      <trkpt lat="43.15649" lon="-1.26994">
        <ele>260.65</ele>
        <time>2021-08-20T17:26:37Z</time>
      </trkpt>
      <trkpt lat="43.15649" lon="-1.26996">
        <ele>261.14</ele>
        <time>2021-08-20T17:26:38Z</time>
      </trkpt>
      <trkpt lat="43.15649" lon="-1.26998">
        <ele>261.14</ele>
        <time>2021-08-20T17:26:39Z</time>
      </trkpt>
      <trkpt lat="43.15648" lon="-1.26999">
        <ele>261.14</ele>
        <time>2021-08-20T17:26:40Z</time>
      </trkpt>
      <trkpt lat="43.15647" lon="-1.27001">
        <ele>261.14</ele>
        <time>2021-08-20T17:26:41Z</time>
      </trkpt>
      <trkpt lat="43.15646" lon="-1.27002">
        <ele>261.14</ele>
        <time>2021-08-20T17:26:42Z</time>
      </trkpt>
      <trkpt lat="43.15645" lon="-1.27003">
        <ele>261.14</ele>
        <time>2021-08-20T17:26:43Z</time>
      </trkpt>
      <trkpt lat="43.15645" lon="-1.27005">
        <ele>261.62</ele>
        <time>2021-08-20T17:26:44Z</time>
      </trkpt>
      <trkpt lat="43.15644" lon="-1.27007">
        <ele>261.62</ele>
        <time>2021-08-20T17:26:45Z</time>
      </trkpt>
      <trkpt lat="43.15644" lon="-1.27009">
        <ele>261.62</ele>
        <time>2021-08-20T17:26:46Z</time>
      </trkpt>
      <trkpt lat="43.15643" lon="-1.27011">
        <ele>262.1</ele>
        <time>2021-08-20T17:26:47Z</time>
      </trkpt>
      <trkpt lat="43.15642" lon="-1.27013">
        <ele>262.1</ele>
        <time>2021-08-20T17:26:48Z</time>
      </trkpt>
      <trkpt lat="43.15641" lon="-1.27015">
        <ele>262.1</ele>
        <time>2021-08-20T17:26:49Z</time>
      </trkpt>
      <trkpt lat="43.15632" lon="-1.27029">
        <ele>262.58</ele>
        <time>2021-08-20T17:26:57Z</time>
      </trkpt>
      <trkpt lat="43.15619" lon="-1.27047">
        <ele>264.02</ele>
        <time>2021-08-20T17:27:07Z</time>
      </trkpt>
      <trkpt lat="43.1561" lon="-1.27056">
        <ele>264.5</ele>
        <time>2021-08-20T17:27:14Z</time>
      </trkpt>
      <trkpt lat="43.15597" lon="-1.27073">
        <ele>266.42</ele>
        <time>2021-08-20T17:27:24Z</time>
      </trkpt>
      <trkpt lat="43.15584" lon="-1.27094">
        <ele>266.9</ele>
        <time>2021-08-20T17:27:35Z</time>
      </trkpt>
      <trkpt lat="43.15577" lon="-1.27107">
        <ele>267.86</ele>
        <time>2021-08-20T17:27:42Z</time>
      </trkpt>
      <trkpt lat="43.15575" lon="-1.27111">
        <ele>268.35</ele>
        <time>2021-08-20T17:27:44Z</time>
      </trkpt>
      <trkpt lat="43.15574" lon="-1.27112">
        <ele>268.35</ele>
        <time>2021-08-20T17:27:45Z</time>
      </trkpt>
      <trkpt lat="43.15573" lon="-1.27114">
        <ele>268.35</ele>
        <time>2021-08-20T17:27:46Z</time>
      </trkpt>
      <trkpt lat="43.15572" lon="-1.27116">
        <ele>268.83</ele>
        <time>2021-08-20T17:27:47Z</time>
      </trkpt>
      <trkpt lat="43.15571" lon="-1.27118">
        <ele>268.83</ele>
        <time>2021-08-20T17:27:48Z</time>
      </trkpt>
      <trkpt lat="43.15567" lon="-1.27134">
        <ele>269.79</ele>
        <time>2021-08-20T17:27:56Z</time>
      </trkpt>
      <trkpt lat="43.15564" lon="-1.27146">
        <ele>271.23</ele>
        <time>2021-08-20T17:28:03Z</time>
      </trkpt>
      <trkpt lat="43.15559" lon="-1.2716">
        <ele>272.19</ele>
        <time>2021-08-20T17:28:13Z</time>
      </trkpt>
      <trkpt lat="43.15556" lon="-1.27176">
        <ele>273.63</ele>
        <time>2021-08-20T17:28:24Z</time>
      </trkpt>
      <trkpt lat="43.15554" lon="-1.2719">
        <ele>275.56</ele>
        <time>2021-08-20T17:28:34Z</time>
      </trkpt>
      <trkpt lat="43.15552" lon="-1.27204">
        <ele>276.04</ele>
        <time>2021-08-20T17:28:42Z</time>
      </trkpt>
      <trkpt lat="43.15552" lon="-1.27214">
        <ele>277</ele>
        <time>2021-08-20T17:28:49Z</time>
      </trkpt>
      <trkpt lat="43.15552" lon="-1.27227">
        <ele>277.96</ele>
        <time>2021-08-20T17:28:58Z</time>
      </trkpt>
      <trkpt lat="43.15549" lon="-1.27238">
        <ele>279.4</ele>
        <time>2021-08-20T17:29:09Z</time>
      </trkpt>
      <trkpt lat="43.15543" lon="-1.27246">
        <ele>281.32</ele>
        <time>2021-08-20T17:29:20Z</time>
      </trkpt>
      <trkpt lat="43.15537" lon="-1.27251">
        <ele>282.77</ele>
        <time>2021-08-20T17:29:30Z</time>
      </trkpt>
      <trkpt lat="43.15532" lon="-1.27256">
        <ele>284.21</ele>
        <time>2021-08-20T17:29:40Z</time>
      </trkpt>
      <trkpt lat="43.15526" lon="-1.2726">
        <ele>285.65</ele>
        <time>2021-08-20T17:29:49Z</time>
      </trkpt>
      <trkpt lat="43.15521" lon="-1.27265">
        <ele>287.09</ele>
        <time>2021-08-20T17:29:59Z</time>
      </trkpt>
      <trkpt lat="43.15513" lon="-1.27273">
        <ele>288.53</ele>
        <time>2021-08-20T17:30:08Z</time>
      </trkpt>
      <trkpt lat="43.15511" lon="-1.27276">
        <ele>289.01</ele>
        <time>2021-08-20T17:30:11Z</time>
      </trkpt>
      <trkpt lat="43.15504" lon="-1.27288">
        <ele>290.46</ele>
        <time>2021-08-20T17:30:21Z</time>
      </trkpt>
      <trkpt lat="43.15501" lon="-1.27294">
        <ele>290.94</ele>
        <time>2021-08-20T17:30:29Z</time>
      </trkpt>
      <trkpt lat="43.15497" lon="-1.27302">
        <ele>291.42</ele>
        <time>2021-08-20T17:30:35Z</time>
      </trkpt>
      <trkpt lat="43.15492" lon="-1.27317">
        <ele>292.38</ele>
        <time>2021-08-20T17:30:42Z</time>
      </trkpt>
      <trkpt lat="43.15491" lon="-1.27319">
        <ele>292.86</ele>
        <time>2021-08-20T17:30:43Z</time>
      </trkpt>
      <trkpt lat="43.15491" lon="-1.2732">
        <ele>292.86</ele>
        <time>2021-08-20T17:30:44Z</time>
      </trkpt>
      <trkpt lat="43.1549" lon="-1.27322">
        <ele>292.86</ele>
        <time>2021-08-20T17:30:45Z</time>
      </trkpt>
      <trkpt lat="43.15489" lon="-1.27324">
        <ele>292.86</ele>
        <time>2021-08-20T17:30:46Z</time>
      </trkpt>
      <trkpt lat="43.15488" lon="-1.27326">
        <ele>292.86</ele>
        <time>2021-08-20T17:30:47Z</time>
      </trkpt>
      <trkpt lat="43.15488" lon="-1.27328">
        <ele>292.86</ele>
        <time>2021-08-20T17:30:48Z</time>
      </trkpt>
      <trkpt lat="43.15487" lon="-1.2733">
        <ele>293.34</ele>
        <time>2021-08-20T17:30:49Z</time>
      </trkpt>
      <trkpt lat="43.15486" lon="-1.27332">
        <ele>293.34</ele>
        <time>2021-08-20T17:30:50Z</time>
      </trkpt>
      <trkpt lat="43.15485" lon="-1.27334">
        <ele>293.34</ele>
        <time>2021-08-20T17:30:51Z</time>
      </trkpt>
      <trkpt lat="43.1548" lon="-1.27349">
        <ele>294.3</ele>
        <time>2021-08-20T17:30:58Z</time>
      </trkpt>
      <trkpt lat="43.15476" lon="-1.27363">
        <ele>295.26</ele>
        <time>2021-08-20T17:31:05Z</time>
      </trkpt>
      <trkpt lat="43.1547" lon="-1.27381">
        <ele>296.7</ele>
        <time>2021-08-20T17:31:13Z</time>
      </trkpt>
      <trkpt lat="43.15466" lon="-1.27393">
        <ele>296.7</ele>
        <time>2021-08-20T17:31:19Z</time>
      </trkpt>
      <trkpt lat="43.15465" lon="-1.27396">
        <ele>296.7</ele>
        <time>2021-08-20T17:31:20Z</time>
      </trkpt>
      <trkpt lat="43.1546" lon="-1.2743">
        <ele>296.7</ele>
        <time>2021-08-20T17:31:30Z</time>
      </trkpt>
      <trkpt lat="43.15462" lon="-1.27464">
        <ele>296.22</ele>
        <time>2021-08-20T17:31:38Z</time>
      </trkpt>
      <trkpt lat="43.15466" lon="-1.27507">
        <ele>296.22</ele>
        <time>2021-08-20T17:31:47Z</time>
      </trkpt>
      <trkpt lat="43.15469" lon="-1.27542">
        <ele>296.7</ele>
        <time>2021-08-20T17:31:56Z</time>
      </trkpt>
      <trkpt lat="43.15468" lon="-1.27576">
        <ele>297.18</ele>
        <time>2021-08-20T17:32:04Z</time>
      </trkpt>
      <trkpt lat="43.15466" lon="-1.27605">
        <ele>298.15</ele>
        <time>2021-08-20T17:32:13Z</time>
      </trkpt>
      <trkpt lat="43.15465" lon="-1.27627">
        <ele>299.59</ele>
        <time>2021-08-20T17:32:21Z</time>
      </trkpt>
      <trkpt lat="43.15463" lon="-1.27642">
        <ele>300.07</ele>
        <time>2021-08-20T17:32:27Z</time>
      </trkpt>
      <trkpt lat="43.15463" lon="-1.27644">
        <ele>300.07</ele>
        <time>2021-08-20T17:32:28Z</time>
      </trkpt>
      <trkpt lat="43.15463" lon="-1.27646">
        <ele>300.55</ele>
        <time>2021-08-20T17:32:29Z</time>
      </trkpt>
      <trkpt lat="43.15463" lon="-1.27648">
        <ele>300.55</ele>
        <time>2021-08-20T17:32:30Z</time>
      </trkpt>
      <trkpt lat="43.15462" lon="-1.2765">
        <ele>300.55</ele>
        <time>2021-08-20T17:32:31Z</time>
      </trkpt>
      <trkpt lat="43.15461" lon="-1.27652">
        <ele>301.03</ele>
        <time>2021-08-20T17:32:32Z</time>
      </trkpt>
      <trkpt lat="43.15461" lon="-1.27655">
        <ele>301.03</ele>
        <time>2021-08-20T17:32:34Z</time>
      </trkpt>
      <trkpt lat="43.15459" lon="-1.27664">
        <ele>302.47</ele>
        <time>2021-08-20T17:32:41Z</time>
      </trkpt>
      <trkpt lat="43.15458" lon="-1.27676">
        <ele>303.91</ele>
        <time>2021-08-20T17:32:50Z</time>
      </trkpt>
      <trkpt lat="43.15459" lon="-1.27694">
        <ele>305.36</ele>
        <time>2021-08-20T17:33:01Z</time>
      </trkpt>
      <trkpt lat="43.15461" lon="-1.27709">
        <ele>307.28</ele>
        <time>2021-08-20T17:33:11Z</time>
      </trkpt>
      <trkpt lat="43.15463" lon="-1.27727">
        <ele>308.72</ele>
        <time>2021-08-20T17:33:23Z</time>
      </trkpt>
      <trkpt lat="43.15466" lon="-1.27749">
        <ele>310.16</ele>
        <time>2021-08-20T17:33:35Z</time>
      </trkpt>
      <trkpt lat="43.15466" lon="-1.27762">
        <ele>311.12</ele>
        <time>2021-08-20T17:33:43Z</time>
      </trkpt>
      <trkpt lat="43.15467" lon="-1.27774">
        <ele>311.6</ele>
        <time>2021-08-20T17:33:51Z</time>
      </trkpt>
      <trkpt lat="43.15468" lon="-1.27779">
        <ele>311.6</ele>
        <time>2021-08-20T17:33:57Z</time>
      </trkpt>
      <trkpt lat="43.15467" lon="-1.27781">
        <ele>312.09</ele>
        <time>2021-08-20T17:33:58Z</time>
      </trkpt>
      <trkpt lat="43.15467" lon="-1.27783">
        <ele>312.09</ele>
        <time>2021-08-20T17:33:59Z</time>
      </trkpt>
      <trkpt lat="43.15467" lon="-1.27804">
        <ele>313.05</ele>
        <time>2021-08-20T17:34:08Z</time>
      </trkpt>
      <trkpt lat="43.15467" lon="-1.2783">
        <ele>314.01</ele>
        <time>2021-08-20T17:34:18Z</time>
      </trkpt>
      <trkpt lat="43.15466" lon="-1.27852">
        <ele>315.93</ele>
        <time>2021-08-20T17:34:28Z</time>
      </trkpt>
      <trkpt lat="43.15466" lon="-1.27869">
        <ele>316.41</ele>
        <time>2021-08-20T17:34:35Z</time>
      </trkpt>
      <trkpt lat="43.15471" lon="-1.27898">
        <ele>317.85</ele>
        <time>2021-08-20T17:34:46Z</time>
      </trkpt>
      <trkpt lat="43.15479" lon="-1.27931">
        <ele>317.37</ele>
        <time>2021-08-20T17:34:54Z</time>
      </trkpt>
      <trkpt lat="43.15482" lon="-1.27938">
        <ele>315.45</ele>
        <time>2021-08-20T17:34:55Z</time>
      </trkpt>
      <trkpt lat="43.15501" lon="-1.27988">
        <ele>312.09</ele>
        <time>2021-08-20T17:35:01Z</time>
      </trkpt>
      <trkpt lat="43.15517" lon="-1.28027">
        <ele>310.64</ele>
        <time>2021-08-20T17:35:05Z</time>
      </trkpt>
      <trkpt lat="43.15534" lon="-1.28076">
        <ele>309.68</ele>
        <time>2021-08-20T17:35:10Z</time>
      </trkpt>
      <trkpt lat="43.15535" lon="-1.28086">
        <ele>309.68</ele>
        <time>2021-08-20T17:35:11Z</time>
      </trkpt>
      <trkpt lat="43.15534" lon="-1.28096">
        <ele>309.68</ele>
        <time>2021-08-20T17:35:12Z</time>
      </trkpt>
      <trkpt lat="43.15533" lon="-1.28105">
        <ele>309.68</ele>
        <time>2021-08-20T17:35:13Z</time>
      </trkpt>
      <trkpt lat="43.15531" lon="-1.28113">
        <ele>309.68</ele>
        <time>2021-08-20T17:35:14Z</time>
      </trkpt>
      <trkpt lat="43.15528" lon="-1.28121">
        <ele>309.68</ele>
        <time>2021-08-20T17:35:15Z</time>
      </trkpt>
      <trkpt lat="43.15525" lon="-1.28128">
        <ele>309.68</ele>
        <time>2021-08-20T17:35:16Z</time>
      </trkpt>
      <trkpt lat="43.15521" lon="-1.28134">
        <ele>310.16</ele>
        <time>2021-08-20T17:35:17Z</time>
      </trkpt>
      <trkpt lat="43.15518" lon="-1.2814">
        <ele>310.16</ele>
        <time>2021-08-20T17:35:18Z</time>
      </trkpt>
      <trkpt lat="43.15512" lon="-1.28152">
        <ele>310.16</ele>
        <time>2021-08-20T17:35:20Z</time>
      </trkpt>
      <trkpt lat="43.15508" lon="-1.28163">
        <ele>311.12</ele>
        <time>2021-08-20T17:35:22Z</time>
      </trkpt>
      <trkpt lat="43.15499" lon="-1.28193">
        <ele>312.09</ele>
        <time>2021-08-20T17:35:29Z</time>
      </trkpt>
      <trkpt lat="43.15495" lon="-1.28227">
        <ele>313.53</ele>
        <time>2021-08-20T17:35:38Z</time>
      </trkpt>
      <trkpt lat="43.15492" lon="-1.28255">
        <ele>314.49</ele>
        <time>2021-08-20T17:35:47Z</time>
      </trkpt>
      <trkpt lat="43.15492" lon="-1.28281">
        <ele>315.45</ele>
        <time>2021-08-20T17:35:55Z</time>
      </trkpt>
      <trkpt lat="43.15498" lon="-1.2831">
        <ele>315.93</ele>
        <time>2021-08-20T17:36:03Z</time>
      </trkpt>
      <trkpt lat="43.15511" lon="-1.28348">
        <ele>316.41</ele>
        <time>2021-08-20T17:36:14Z</time>
      </trkpt>
      <trkpt lat="43.15519" lon="-1.2837">
        <ele>317.85</ele>
        <time>2021-08-20T17:36:23Z</time>
      </trkpt>
      <trkpt lat="43.15521" lon="-1.28371">
        <ele>318.33</ele>
        <time>2021-08-20T17:36:24Z</time>
      </trkpt>
      <trkpt lat="43.15523" lon="-1.28371">
        <ele>318.33</ele>
        <time>2021-08-20T17:36:25Z</time>
      </trkpt>
      <trkpt lat="43.15525" lon="-1.2837">
        <ele>318.81</ele>
        <time>2021-08-20T17:36:26Z</time>
      </trkpt>
      <trkpt lat="43.15526" lon="-1.28369">
        <ele>318.81</ele>
        <time>2021-08-20T17:36:27Z</time>
      </trkpt>
      <trkpt lat="43.15528" lon="-1.28368">
        <ele>318.81</ele>
        <time>2021-08-20T17:36:28Z</time>
      </trkpt>
      <trkpt lat="43.1553" lon="-1.28367">
        <ele>318.81</ele>
        <time>2021-08-20T17:36:29Z</time>
      </trkpt>
      <trkpt lat="43.15532" lon="-1.28366">
        <ele>319.3</ele>
        <time>2021-08-20T17:36:30Z</time>
      </trkpt>
      <trkpt lat="43.15534" lon="-1.28365">
        <ele>319.3</ele>
        <time>2021-08-20T17:36:31Z</time>
      </trkpt>
      <trkpt lat="43.15536" lon="-1.28364">
        <ele>319.3</ele>
        <time>2021-08-20T17:36:32Z</time>
      </trkpt>
      <trkpt lat="43.15553" lon="-1.2836">
        <ele>320.26</ele>
        <time>2021-08-20T17:36:40Z</time>
      </trkpt>
      <trkpt lat="43.15575" lon="-1.28359">
        <ele>318.81</ele>
        <time>2021-08-20T17:36:46Z</time>
      </trkpt>
      <trkpt lat="43.1558" lon="-1.2836">
        <ele>318.81</ele>
        <time>2021-08-20T17:36:47Z</time>
      </trkpt>
      <trkpt lat="43.15583" lon="-1.28363">
        <ele>318.81</ele>
        <time>2021-08-20T17:36:48Z</time>
      </trkpt>
      <trkpt lat="43.15587" lon="-1.28367">
        <ele>318.81</ele>
        <time>2021-08-20T17:36:49Z</time>
      </trkpt>
      <trkpt lat="43.1559" lon="-1.28372">
        <ele>318.81</ele>
        <time>2021-08-20T17:36:50Z</time>
      </trkpt>
      <trkpt lat="43.15592" lon="-1.28377">
        <ele>318.81</ele>
        <time>2021-08-20T17:36:51Z</time>
      </trkpt>
      <trkpt lat="43.15593" lon="-1.28383">
        <ele>318.81</ele>
        <time>2021-08-20T17:36:52Z</time>
      </trkpt>
      <trkpt lat="43.15594" lon="-1.284">
        <ele>319.78</ele>
        <time>2021-08-20T17:36:57Z</time>
      </trkpt>
      <trkpt lat="43.15597" lon="-1.28414">
        <ele>321.7</ele>
        <time>2021-08-20T17:37:03Z</time>
      </trkpt>
      <trkpt lat="43.15602" lon="-1.28437">
        <ele>322.18</ele>
        <time>2021-08-20T17:37:12Z</time>
      </trkpt>
      <trkpt lat="43.15604" lon="-1.28456">
        <ele>322.18</ele>
        <time>2021-08-20T17:37:19Z</time>
      </trkpt>
      <trkpt lat="43.15605" lon="-1.28486">
        <ele>320.26</ele>
        <time>2021-08-20T17:37:24Z</time>
      </trkpt>
      <trkpt lat="43.15612" lon="-1.28543">
        <ele>317.85</ele>
        <time>2021-08-20T17:37:31Z</time>
      </trkpt>
      <trkpt lat="43.15625" lon="-1.28599">
        <ele>316.41</ele>
        <time>2021-08-20T17:37:38Z</time>
      </trkpt>
      <trkpt lat="43.15639" lon="-1.28641">
        <ele>316.41</ele>
        <time>2021-08-20T17:37:45Z</time>
      </trkpt>
      <trkpt lat="43.15643" lon="-1.28652">
        <ele>316.41</ele>
        <time>2021-08-20T17:37:47Z</time>
      </trkpt>
      <trkpt lat="43.15648" lon="-1.28668">
        <ele>316.41</ele>
        <time>2021-08-20T17:37:50Z</time>
      </trkpt>
      <trkpt lat="43.15651" lon="-1.28705">
        <ele>317.85</ele>
        <time>2021-08-20T17:37:57Z</time>
      </trkpt>
      <trkpt lat="43.15651" lon="-1.28711">
        <ele>317.85</ele>
        <time>2021-08-20T17:37:58Z</time>
      </trkpt>
      <trkpt lat="43.15649" lon="-1.28717">
        <ele>317.85</ele>
        <time>2021-08-20T17:37:59Z</time>
      </trkpt>
      <trkpt lat="43.15648" lon="-1.28723">
        <ele>317.85</ele>
        <time>2021-08-20T17:38:00Z</time>
      </trkpt>
      <trkpt lat="43.15643" lon="-1.28735">
        <ele>316.41</ele>
        <time>2021-08-20T17:38:02Z</time>
      </trkpt>
      <trkpt lat="43.15629" lon="-1.28761">
        <ele>314.49</ele>
        <time>2021-08-20T17:38:06Z</time>
      </trkpt>
      <trkpt lat="43.15604" lon="-1.28805">
        <ele>314.01</ele>
        <time>2021-08-20T17:38:13Z</time>
      </trkpt>
      <trkpt lat="43.15572" lon="-1.28865">
        <ele>312.57</ele>
        <time>2021-08-20T17:38:23Z</time>
      </trkpt>
      <trkpt lat="43.15564" lon="-1.28874">
        <ele>311.6</ele>
        <time>2021-08-20T17:38:25Z</time>
      </trkpt>
      <trkpt lat="43.15558" lon="-1.28878">
        <ele>311.12</ele>
        <time>2021-08-20T17:38:26Z</time>
      </trkpt>
      <trkpt lat="43.15552" lon="-1.2888">
        <ele>310.16</ele>
        <time>2021-08-20T17:38:27Z</time>
      </trkpt>
      <trkpt lat="43.15547" lon="-1.28882">
        <ele>309.68</ele>
        <time>2021-08-20T17:38:28Z</time>
      </trkpt>
      <trkpt lat="43.15543" lon="-1.28886">
        <ele>309.2</ele>
        <time>2021-08-20T17:38:29Z</time>
      </trkpt>
      <trkpt lat="43.15541" lon="-1.28893">
        <ele>308.72</ele>
        <time>2021-08-20T17:38:30Z</time>
      </trkpt>
      <trkpt lat="43.15541" lon="-1.28901">
        <ele>307.28</ele>
        <time>2021-08-20T17:38:31Z</time>
      </trkpt>
      <trkpt lat="43.15542" lon="-1.28911">
        <ele>306.8</ele>
        <time>2021-08-20T17:38:32Z</time>
      </trkpt>
      <trkpt lat="43.15545" lon="-1.28921">
        <ele>305.84</ele>
        <time>2021-08-20T17:38:33Z</time>
      </trkpt>
      <trkpt lat="43.15547" lon="-1.2893">
        <ele>305.84</ele>
        <time>2021-08-20T17:38:34Z</time>
      </trkpt>
      <trkpt lat="43.15553" lon="-1.28954">
        <ele>305.36</ele>
        <time>2021-08-20T17:38:37Z</time>
      </trkpt>
      <trkpt lat="43.15554" lon="-1.28961">
        <ele>305.36</ele>
        <time>2021-08-20T17:38:38Z</time>
      </trkpt>
      <trkpt lat="43.15554" lon="-1.28966">
        <ele>305.36</ele>
        <time>2021-08-20T17:38:39Z</time>
      </trkpt>
      <trkpt lat="43.15553" lon="-1.28972">
        <ele>305.36</ele>
        <time>2021-08-20T17:38:40Z</time>
      </trkpt>
      <trkpt lat="43.15551" lon="-1.28978">
        <ele>305.36</ele>
        <time>2021-08-20T17:38:41Z</time>
      </trkpt>
      <trkpt lat="43.15549" lon="-1.28983">
        <ele>305.36</ele>
        <time>2021-08-20T17:38:42Z</time>
      </trkpt>
      <trkpt lat="43.15539" lon="-1.29011">
        <ele>301.99</ele>
        <time>2021-08-20T17:38:46Z</time>
      </trkpt>
      <trkpt lat="43.15538" lon="-1.29018">
        <ele>301.03</ele>
        <time>2021-08-20T17:38:47Z</time>
      </trkpt>
      <trkpt lat="43.15541" lon="-1.29024">
        <ele>300.07</ele>
        <time>2021-08-20T17:38:48Z</time>
      </trkpt>
      <trkpt lat="43.15546" lon="-1.29028">
        <ele>299.11</ele>
        <time>2021-08-20T17:38:49Z</time>
      </trkpt>
      <trkpt lat="43.15553" lon="-1.29032">
        <ele>298.63</ele>
        <time>2021-08-20T17:38:50Z</time>
      </trkpt>
      <trkpt lat="43.1556" lon="-1.29035">
        <ele>297.67</ele>
        <time>2021-08-20T17:38:51Z</time>
      </trkpt>
      <trkpt lat="43.15568" lon="-1.29037">
        <ele>296.7</ele>
        <time>2021-08-20T17:38:52Z</time>
      </trkpt>
      <trkpt lat="43.15577" lon="-1.29037">
        <ele>295.74</ele>
        <time>2021-08-20T17:38:53Z</time>
      </trkpt>
      <trkpt lat="43.15583" lon="-1.29036">
        <ele>295.74</ele>
        <time>2021-08-20T17:38:54Z</time>
      </trkpt>
      <trkpt lat="43.15591" lon="-1.29036">
        <ele>294.3</ele>
        <time>2021-08-20T17:38:55Z</time>
      </trkpt>
      <trkpt lat="43.15599" lon="-1.2904">
        <ele>293.34</ele>
        <time>2021-08-20T17:38:56Z</time>
      </trkpt>
      <trkpt lat="43.15606" lon="-1.29046">
        <ele>291.9</ele>
        <time>2021-08-20T17:38:57Z</time>
      </trkpt>
      <trkpt lat="43.15613" lon="-1.29052">
        <ele>291.42</ele>
        <time>2021-08-20T17:38:58Z</time>
      </trkpt>
      <trkpt lat="43.15621" lon="-1.29057">
        <ele>290.94</ele>
        <time>2021-08-20T17:38:59Z</time>
      </trkpt>
      <trkpt lat="43.1563" lon="-1.29058">
        <ele>290.94</ele>
        <time>2021-08-20T17:39:00Z</time>
      </trkpt>
      <trkpt lat="43.15639" lon="-1.29056">
        <ele>290.94</ele>
        <time>2021-08-20T17:39:01Z</time>
      </trkpt>
      <trkpt lat="43.15646" lon="-1.29055">
        <ele>290.94</ele>
        <time>2021-08-20T17:39:02Z</time>
      </trkpt>
      <trkpt lat="43.15654" lon="-1.29053">
        <ele>290.94</ele>
        <time>2021-08-20T17:39:03Z</time>
      </trkpt>
      <trkpt lat="43.15662" lon="-1.29049">
        <ele>290.94</ele>
        <time>2021-08-20T17:39:04Z</time>
      </trkpt>
      <trkpt lat="43.15669" lon="-1.29045">
        <ele>290.94</ele>
        <time>2021-08-20T17:39:05Z</time>
      </trkpt>
      <trkpt lat="43.15684" lon="-1.29035">
        <ele>290.46</ele>
        <time>2021-08-20T17:39:07Z</time>
      </trkpt>
      <trkpt lat="43.15691" lon="-1.29032">
        <ele>289.97</ele>
        <time>2021-08-20T17:39:08Z</time>
      </trkpt>
      <trkpt lat="43.15699" lon="-1.2903">
        <ele>289.49</ele>
        <time>2021-08-20T17:39:09Z</time>
      </trkpt>
      <trkpt lat="43.15707" lon="-1.2903">
        <ele>288.53</ele>
        <time>2021-08-20T17:39:10Z</time>
      </trkpt>
      <trkpt lat="43.15715" lon="-1.2903">
        <ele>288.53</ele>
        <time>2021-08-20T17:39:11Z</time>
      </trkpt>
      <trkpt lat="43.15724" lon="-1.29032">
        <ele>288.05</ele>
        <time>2021-08-20T17:39:12Z</time>
      </trkpt>
      <trkpt lat="43.15782" lon="-1.29055">
        <ele>287.09</ele>
        <time>2021-08-20T17:39:19Z</time>
      </trkpt>
      <trkpt lat="43.15818" lon="-1.29069">
        <ele>286.61</ele>
        <time>2021-08-20T17:39:24Z</time>
      </trkpt>
      <trkpt lat="43.1584" lon="-1.29078">
        <ele>288.05</ele>
        <time>2021-08-20T17:39:28Z</time>
      </trkpt>
      <trkpt lat="43.15873" lon="-1.29088">
        <ele>288.53</ele>
        <time>2021-08-20T17:39:37Z</time>
      </trkpt>
      <trkpt lat="43.15892" lon="-1.29091">
        <ele>290.46</ele>
        <time>2021-08-20T17:39:43Z</time>
      </trkpt>
      <trkpt lat="43.15906" lon="-1.29084">
        <ele>291.9</ele>
        <time>2021-08-20T17:39:49Z</time>
      </trkpt>
      <trkpt lat="43.15919" lon="-1.29074">
        <ele>293.34</ele>
        <time>2021-08-20T17:39:55Z</time>
      </trkpt>
      <trkpt lat="43.15939" lon="-1.2906">
        <ele>293.34</ele>
        <time>2021-08-20T17:40:03Z</time>
      </trkpt>
      <trkpt lat="43.15954" lon="-1.2905">
        <ele>293.34</ele>
        <time>2021-08-20T17:40:09Z</time>
      </trkpt>
      <trkpt lat="43.1597" lon="-1.29037">
        <ele>293.34</ele>
        <time>2021-08-20T17:40:15Z</time>
      </trkpt>
      <trkpt lat="43.15988" lon="-1.29028">
        <ele>289.97</ele>
        <time>2021-08-20T17:40:19Z</time>
      </trkpt>
      <trkpt lat="43.16" lon="-1.29023">
        <ele>289.01</ele>
        <time>2021-08-20T17:40:21Z</time>
      </trkpt>
      <trkpt lat="43.16029" lon="-1.29015">
        <ele>288.53</ele>
        <time>2021-08-20T17:40:25Z</time>
      </trkpt>
      <trkpt lat="43.16035" lon="-1.29015">
        <ele>288.53</ele>
        <time>2021-08-20T17:40:26Z</time>
      </trkpt>
      <trkpt lat="43.16083" lon="-1.29015">
        <ele>288.05</ele>
        <time>2021-08-20T17:40:34Z</time>
      </trkpt>
      <trkpt lat="43.16095" lon="-1.29012">
        <ele>287.09</ele>
        <time>2021-08-20T17:40:36Z</time>
      </trkpt>
      <trkpt lat="43.16101" lon="-1.29011">
        <ele>285.65</ele>
        <time>2021-08-20T17:40:37Z</time>
      </trkpt>
      <trkpt lat="43.16128" lon="-1.29003">
        <ele>282.28</ele>
        <time>2021-08-20T17:40:41Z</time>
      </trkpt>
      <trkpt lat="43.16149" lon="-1.28994">
        <ele>279.88</ele>
        <time>2021-08-20T17:40:44Z</time>
      </trkpt>
      <trkpt lat="43.16174" lon="-1.28977">
        <ele>279.88</ele>
        <time>2021-08-20T17:40:48Z</time>
      </trkpt>
      <trkpt lat="43.16193" lon="-1.28957">
        <ele>279.4</ele>
        <time>2021-08-20T17:40:52Z</time>
      </trkpt>
      <trkpt lat="43.16199" lon="-1.28948">
        <ele>280.84</ele>
        <time>2021-08-20T17:40:54Z</time>
      </trkpt>
      <trkpt lat="43.16214" lon="-1.28931">
        <ele>283.25</ele>
        <time>2021-08-20T17:41:00Z</time>
      </trkpt>
      <trkpt lat="43.16226" lon="-1.28918">
        <ele>285.17</ele>
        <time>2021-08-20T17:41:07Z</time>
      </trkpt>
      <trkpt lat="43.16239" lon="-1.28908">
        <ele>286.13</ele>
        <time>2021-08-20T17:41:13Z</time>
      </trkpt>
      <trkpt lat="43.16254" lon="-1.28904">
        <ele>286.61</ele>
        <time>2021-08-20T17:41:19Z</time>
      </trkpt>
      <trkpt lat="43.16271" lon="-1.28901">
        <ele>286.61</ele>
        <time>2021-08-20T17:41:26Z</time>
      </trkpt>
      <trkpt lat="43.16302" lon="-1.28896">
        <ele>287.09</ele>
        <time>2021-08-20T17:41:37Z</time>
      </trkpt>
      <trkpt lat="43.16325" lon="-1.28894">
        <ele>287.09</ele>
        <time>2021-08-20T17:41:45Z</time>
      </trkpt>
      <trkpt lat="43.16339" lon="-1.28898">
        <ele>287.09</ele>
        <time>2021-08-20T17:41:50Z</time>
      </trkpt>
      <trkpt lat="43.16341" lon="-1.289">
        <ele>287.09</ele>
        <time>2021-08-20T17:41:51Z</time>
      </trkpt>
      <trkpt lat="43.16344" lon="-1.28901">
        <ele>287.57</ele>
        <time>2021-08-20T17:41:52Z</time>
      </trkpt>
      <trkpt lat="43.16365" lon="-1.28904">
        <ele>287.57</ele>
        <time>2021-08-20T17:41:59Z</time>
      </trkpt>
      <trkpt lat="43.16382" lon="-1.289">
        <ele>286.61</ele>
        <time>2021-08-20T17:42:05Z</time>
      </trkpt>
      <trkpt lat="43.16387" lon="-1.28898">
        <ele>286.61</ele>
        <time>2021-08-20T17:42:10Z</time>
      </trkpt>
      <trkpt lat="43.16387" lon="-1.28899">
        <ele>286.13</ele>
        <time>2021-08-20T17:42:27Z</time>
      </trkpt>
      <trkpt lat="43.16394" lon="-1.28896">
        <ele>285.65</ele>
        <time>2021-08-20T17:42:35Z</time>
      </trkpt>
      <trkpt lat="43.1641" lon="-1.28888">
        <ele>284.69</ele>
        <time>2021-08-20T17:42:40Z</time>
      </trkpt>
      <trkpt lat="43.16434" lon="-1.28871">
        <ele>282.28</ele>
        <time>2021-08-20T17:42:46Z</time>
      </trkpt>
      <trkpt lat="43.16455" lon="-1.28861">
        <ele>280.84</ele>
        <time>2021-08-20T17:42:49Z</time>
      </trkpt>
      <trkpt lat="43.16503" lon="-1.28841">
        <ele>277.96</ele>
        <time>2021-08-20T17:42:56Z</time>
      </trkpt>
      <trkpt lat="43.16535" lon="-1.2883">
        <ele>274.11</ele>
        <time>2021-08-20T17:43:01Z</time>
      </trkpt>
      <trkpt lat="43.16541" lon="-1.28826">
        <ele>273.63</ele>
        <time>2021-08-20T17:43:02Z</time>
      </trkpt>
      <trkpt lat="43.16545" lon="-1.28821">
        <ele>272.67</ele>
        <time>2021-08-20T17:43:03Z</time>
      </trkpt>
      <trkpt lat="43.1655" lon="-1.28816">
        <ele>271.71</ele>
        <time>2021-08-20T17:43:04Z</time>
      </trkpt>
      <trkpt lat="43.16554" lon="-1.28811">
        <ele>271.23</ele>
        <time>2021-08-20T17:43:05Z</time>
      </trkpt>
      <trkpt lat="43.16558" lon="-1.28809">
        <ele>271.23</ele>
        <time>2021-08-20T17:43:06Z</time>
      </trkpt>
      <trkpt lat="43.16563" lon="-1.2881">
        <ele>270.75</ele>
        <time>2021-08-20T17:43:07Z</time>
      </trkpt>
      <trkpt lat="43.16567" lon="-1.28812">
        <ele>269.79</ele>
        <time>2021-08-20T17:43:08Z</time>
      </trkpt>
      <trkpt lat="43.16578" lon="-1.28818">
        <ele>267.38</ele>
        <time>2021-08-20T17:43:10Z</time>
      </trkpt>
      <trkpt lat="43.16597" lon="-1.28827">
        <ele>263.06</ele>
        <time>2021-08-20T17:43:13Z</time>
      </trkpt>
      <trkpt lat="43.16603" lon="-1.28831">
        <ele>262.1</ele>
        <time>2021-08-20T17:43:14Z</time>
      </trkpt>
      <trkpt lat="43.16622" lon="-1.28846">
        <ele>258.73</ele>
        <time>2021-08-20T17:43:17Z</time>
      </trkpt>
      <trkpt lat="43.16644" lon="-1.28864">
        <ele>255.37</ele>
        <time>2021-08-20T17:43:21Z</time>
      </trkpt>
      <trkpt lat="43.16658" lon="-1.28876">
        <ele>252</ele>
        <time>2021-08-20T17:43:24Z</time>
      </trkpt>
      <trkpt lat="43.16684" lon="-1.28887">
        <ele>248.16</ele>
        <time>2021-08-20T17:43:28Z</time>
      </trkpt>
      <trkpt lat="43.16703" lon="-1.28896">
        <ele>245.27</ele>
        <time>2021-08-20T17:43:31Z</time>
      </trkpt>
      <trkpt lat="43.16717" lon="-1.289">
        <ele>242.87</ele>
        <time>2021-08-20T17:43:33Z</time>
      </trkpt>
      <trkpt lat="43.16724" lon="-1.28901">
        <ele>241.91</ele>
        <time>2021-08-20T17:43:34Z</time>
      </trkpt>
      <trkpt lat="43.16732" lon="-1.289">
        <ele>240.47</ele>
        <time>2021-08-20T17:43:35Z</time>
      </trkpt>
      <trkpt lat="43.16739" lon="-1.28898">
        <ele>240.47</ele>
        <time>2021-08-20T17:43:36Z</time>
      </trkpt>
      <trkpt lat="43.16744" lon="-1.28895">
        <ele>239.51</ele>
        <time>2021-08-20T17:43:37Z</time>
      </trkpt>
      <trkpt lat="43.16749" lon="-1.28891">
        <ele>239.02</ele>
        <time>2021-08-20T17:43:38Z</time>
      </trkpt>
      <trkpt lat="43.16753" lon="-1.28887">
        <ele>238.54</ele>
        <time>2021-08-20T17:43:39Z</time>
      </trkpt>
      <trkpt lat="43.16758" lon="-1.28885">
        <ele>238.06</ele>
        <time>2021-08-20T17:43:40Z</time>
      </trkpt>
      <trkpt lat="43.16762" lon="-1.28885">
        <ele>237.58</ele>
        <time>2021-08-20T17:43:41Z</time>
      </trkpt>
      <trkpt lat="43.16764" lon="-1.28887">
        <ele>237.1</ele>
        <time>2021-08-20T17:43:42Z</time>
      </trkpt>
      <trkpt lat="43.16765" lon="-1.28891">
        <ele>236.62</ele>
        <time>2021-08-20T17:43:43Z</time>
      </trkpt>
      <trkpt lat="43.16765" lon="-1.28895">
        <ele>236.62</ele>
        <time>2021-08-20T17:43:44Z</time>
      </trkpt>
      <trkpt lat="43.16764" lon="-1.28899">
        <ele>236.62</ele>
        <time>2021-08-20T17:43:45Z</time>
      </trkpt>
      <trkpt lat="43.16761" lon="-1.28903">
        <ele>236.14</ele>
        <time>2021-08-20T17:43:46Z</time>
      </trkpt>
      <trkpt lat="43.16758" lon="-1.28906">
        <ele>236.14</ele>
        <time>2021-08-20T17:43:47Z</time>
      </trkpt>
      <trkpt lat="43.16755" lon="-1.2891">
        <ele>235.66</ele>
        <time>2021-08-20T17:43:48Z</time>
      </trkpt>
      <trkpt lat="43.16752" lon="-1.28913">
        <ele>235.66</ele>
        <time>2021-08-20T17:43:49Z</time>
      </trkpt>
      <trkpt lat="43.16748" lon="-1.28917">
        <ele>235.66</ele>
        <time>2021-08-20T17:43:50Z</time>
      </trkpt>
      <trkpt lat="43.16746" lon="-1.28922">
        <ele>235.18</ele>
        <time>2021-08-20T17:43:51Z</time>
      </trkpt>
      <trkpt lat="43.16743" lon="-1.28926">
        <ele>235.18</ele>
        <time>2021-08-20T17:43:52Z</time>
      </trkpt>
      <trkpt lat="43.16739" lon="-1.28931">
        <ele>234.22</ele>
        <time>2021-08-20T17:43:53Z</time>
      </trkpt>
      <trkpt lat="43.16736" lon="-1.28935">
        <ele>233.74</ele>
        <time>2021-08-20T17:43:54Z</time>
      </trkpt>
      <trkpt lat="43.16724" lon="-1.28947">
        <ele>232.3</ele>
        <time>2021-08-20T17:43:57Z</time>
      </trkpt>
      <trkpt lat="43.16721" lon="-1.28952">
        <ele>231.81</ele>
        <time>2021-08-20T17:43:58Z</time>
      </trkpt>
      <trkpt lat="43.16718" lon="-1.28957">
        <ele>231.33</ele>
        <time>2021-08-20T17:43:59Z</time>
      </trkpt>
      <trkpt lat="43.16717" lon="-1.28962">
        <ele>229.89</ele>
        <time>2021-08-20T17:44:00Z</time>
      </trkpt>
      <trkpt lat="43.16718" lon="-1.28969">
        <ele>229.41</ele>
        <time>2021-08-20T17:44:01Z</time>
      </trkpt>
      <trkpt lat="43.16721" lon="-1.28975">
        <ele>228.45</ele>
        <time>2021-08-20T17:44:02Z</time>
      </trkpt>
      <trkpt lat="43.16726" lon="-1.28979">
        <ele>227.97</ele>
        <time>2021-08-20T17:44:03Z</time>
      </trkpt>
      <trkpt lat="43.16731" lon="-1.28981">
        <ele>227.01</ele>
        <time>2021-08-20T17:44:04Z</time>
      </trkpt>
      <trkpt lat="43.16737" lon="-1.28983">
        <ele>226.05</ele>
        <time>2021-08-20T17:44:05Z</time>
      </trkpt>
      <trkpt lat="43.16754" lon="-1.28984">
        <ele>223.64</ele>
        <time>2021-08-20T17:44:08Z</time>
      </trkpt>
      <trkpt lat="43.1677" lon="-1.28983">
        <ele>221.72</ele>
        <time>2021-08-20T17:44:11Z</time>
      </trkpt>
      <trkpt lat="43.1678" lon="-1.28982">
        <ele>220.28</ele>
        <time>2021-08-20T17:44:13Z</time>
      </trkpt>
      <trkpt lat="43.16785" lon="-1.2898">
        <ele>219.32</ele>
        <time>2021-08-20T17:44:14Z</time>
      </trkpt>
      <trkpt lat="43.16802" lon="-1.28971">
        <ele>216.43</ele>
        <time>2021-08-20T17:44:18Z</time>
      </trkpt>
      <trkpt lat="43.16807" lon="-1.28971">
        <ele>215.95</ele>
        <time>2021-08-20T17:44:19Z</time>
      </trkpt>
      <trkpt lat="43.16811" lon="-1.28972">
        <ele>215.47</ele>
        <time>2021-08-20T17:44:20Z</time>
      </trkpt>
      <trkpt lat="43.16814" lon="-1.28975">
        <ele>214.99</ele>
        <time>2021-08-20T17:44:21Z</time>
      </trkpt>
      <trkpt lat="43.16817" lon="-1.28978">
        <ele>214.03</ele>
        <time>2021-08-20T17:44:22Z</time>
      </trkpt>
      <trkpt lat="43.1682" lon="-1.28981">
        <ele>214.03</ele>
        <time>2021-08-20T17:44:23Z</time>
      </trkpt>
      <trkpt lat="43.16822" lon="-1.28983">
        <ele>213.07</ele>
        <time>2021-08-20T17:44:24Z</time>
      </trkpt>
      <trkpt lat="43.16841" lon="-1.2901">
        <ele>212.11</ele>
        <time>2021-08-20T17:44:32Z</time>
      </trkpt>
      <trkpt lat="43.16861" lon="-1.29047">
        <ele>211.63</ele>
        <time>2021-08-20T17:44:40Z</time>
      </trkpt>
      <trkpt lat="43.16887" lon="-1.29066">
        <ele>211.63</ele>
        <time>2021-08-20T17:44:47Z</time>
      </trkpt>
      <trkpt lat="43.16912" lon="-1.29068">
        <ele>213.55</ele>
        <time>2021-08-20T17:44:55Z</time>
      </trkpt>
      <trkpt lat="43.16932" lon="-1.29068">
        <ele>214.51</ele>
        <time>2021-08-20T17:45:02Z</time>
      </trkpt>
      <trkpt lat="43.16961" lon="-1.29064">
        <ele>214.99</ele>
        <time>2021-08-20T17:45:12Z</time>
      </trkpt>
      <trkpt lat="43.16981" lon="-1.29058">
        <ele>214.03</ele>
        <time>2021-08-20T17:45:18Z</time>
      </trkpt>
      <trkpt lat="43.17018" lon="-1.2905">
        <ele>212.11</ele>
        <time>2021-08-20T17:45:26Z</time>
      </trkpt>
      <trkpt lat="43.17046" lon="-1.29041">
        <ele>210.19</ele>
        <time>2021-08-20T17:45:32Z</time>
      </trkpt>
      <trkpt lat="43.17051" lon="-1.29041">
        <ele>210.19</ele>
        <time>2021-08-20T17:45:33Z</time>
      </trkpt>
      <trkpt lat="43.17054" lon="-1.29043">
        <ele>209.7</ele>
        <time>2021-08-20T17:45:34Z</time>
      </trkpt>
      <trkpt lat="43.17058" lon="-1.29045">
        <ele>209.7</ele>
        <time>2021-08-20T17:45:35Z</time>
      </trkpt>
      <trkpt lat="43.17061" lon="-1.29049">
        <ele>209.22</ele>
        <time>2021-08-20T17:45:36Z</time>
      </trkpt>
      <trkpt lat="43.17065" lon="-1.29052">
        <ele>209.22</ele>
        <time>2021-08-20T17:45:37Z</time>
      </trkpt>
      <trkpt lat="43.17077" lon="-1.29065">
        <ele>208.26</ele>
        <time>2021-08-20T17:45:40Z</time>
      </trkpt>
      <trkpt lat="43.171" lon="-1.29096">
        <ele>204.9</ele>
        <time>2021-08-20T17:45:45Z</time>
      </trkpt>
      <trkpt lat="43.17124" lon="-1.29129">
        <ele>201.53</ele>
        <time>2021-08-20T17:45:49Z</time>
      </trkpt>
      <trkpt lat="43.1716" lon="-1.29181">
        <ele>200.09</ele>
        <time>2021-08-20T17:45:55Z</time>
      </trkpt>
      <trkpt lat="43.17188" lon="-1.29222">
        <ele>200.09</ele>
        <time>2021-08-20T17:46:01Z</time>
      </trkpt>
      <trkpt lat="43.17215" lon="-1.29272">
        <ele>200.09</ele>
        <time>2021-08-20T17:46:09Z</time>
      </trkpt>
      <trkpt lat="43.17229" lon="-1.29298">
        <ele>201.53</ele>
        <time>2021-08-20T17:46:14Z</time>
      </trkpt>
      <trkpt lat="43.17232" lon="-1.29302">
        <ele>201.53</ele>
        <time>2021-08-20T17:46:15Z</time>
      </trkpt>
      <trkpt lat="43.17263" lon="-1.29346">
        <ele>201.53</ele>
        <time>2021-08-20T17:46:26Z</time>
      </trkpt>
      <trkpt lat="43.17281" lon="-1.29376">
        <ele>201.53</ele>
        <time>2021-08-20T17:46:33Z</time>
      </trkpt>
      <trkpt lat="43.17306" lon="-1.2941">
        <ele>201.53</ele>
        <time>2021-08-20T17:46:42Z</time>
      </trkpt>
      <trkpt lat="43.17324" lon="-1.29437">
        <ele>201.53</ele>
        <time>2021-08-20T17:46:49Z</time>
      </trkpt>
      <trkpt lat="43.17339" lon="-1.29471">
        <ele>202.49</ele>
        <time>2021-08-20T17:46:57Z</time>
      </trkpt>
      <trkpt lat="43.17349" lon="-1.29492">
        <ele>203.46</ele>
        <time>2021-08-20T17:47:03Z</time>
      </trkpt>
      <trkpt lat="43.17374" lon="-1.29522">
        <ele>203.94</ele>
        <time>2021-08-20T17:47:14Z</time>
      </trkpt>
      <trkpt lat="43.17379" lon="-1.29525">
        <ele>204.42</ele>
        <time>2021-08-20T17:47:16Z</time>
      </trkpt>
      <trkpt lat="43.17381" lon="-1.29527">
        <ele>204.42</ele>
        <time>2021-08-20T17:47:17Z</time>
      </trkpt>
      <trkpt lat="43.17383" lon="-1.29529">
        <ele>204.42</ele>
        <time>2021-08-20T17:47:18Z</time>
      </trkpt>
      <trkpt lat="43.17385" lon="-1.29531">
        <ele>203.94</ele>
        <time>2021-08-20T17:47:19Z</time>
      </trkpt>
      <trkpt lat="43.17387" lon="-1.29533">
        <ele>203.94</ele>
        <time>2021-08-20T17:47:20Z</time>
      </trkpt>
      <trkpt lat="43.17389" lon="-1.29535">
        <ele>204.42</ele>
        <time>2021-08-20T17:47:21Z</time>
      </trkpt>
      <trkpt lat="43.17391" lon="-1.29537">
        <ele>204.42</ele>
        <time>2021-08-20T17:47:22Z</time>
      </trkpt>
      <trkpt lat="43.1741" lon="-1.29556">
        <ele>204.42</ele>
        <time>2021-08-20T17:47:30Z</time>
      </trkpt>
      <trkpt lat="43.17439" lon="-1.29587">
        <ele>204.9</ele>
        <time>2021-08-20T17:47:42Z</time>
      </trkpt>
      <trkpt lat="43.17459" lon="-1.29606">
        <ele>205.38</ele>
        <time>2021-08-20T17:47:50Z</time>
      </trkpt>
      <trkpt lat="43.1748" lon="-1.29631">
        <ele>205.86</ele>
        <time>2021-08-20T17:47:59Z</time>
      </trkpt>
      <trkpt lat="43.1749" lon="-1.29644">
        <ele>207.3</ele>
        <time>2021-08-20T17:48:05Z</time>
      </trkpt>
      <trkpt lat="43.17507" lon="-1.2965">
        <ele>208.26</ele>
        <time>2021-08-20T17:48:13Z</time>
      </trkpt>
      <trkpt lat="43.17521" lon="-1.29654">
        <ele>208.74</ele>
        <time>2021-08-20T17:48:19Z</time>
      </trkpt>
      <trkpt lat="43.17543" lon="-1.29658">
        <ele>208.74</ele>
        <time>2021-08-20T17:48:26Z</time>
      </trkpt>
      <trkpt lat="43.17554" lon="-1.29657">
        <ele>207.3</ele>
        <time>2021-08-20T17:48:29Z</time>
      </trkpt>
      <trkpt lat="43.17564" lon="-1.29654">
        <ele>206.34</ele>
        <time>2021-08-20T17:48:31Z</time>
      </trkpt>
      <trkpt lat="43.17569" lon="-1.29653">
        <ele>206.34</ele>
        <time>2021-08-20T17:48:32Z</time>
      </trkpt>
      <trkpt lat="43.17573" lon="-1.29654">
        <ele>205.86</ele>
        <time>2021-08-20T17:48:33Z</time>
      </trkpt>
      <trkpt lat="43.17579" lon="-1.29656">
        <ele>205.86</ele>
        <time>2021-08-20T17:48:34Z</time>
      </trkpt>
      <trkpt lat="43.17584" lon="-1.29659">
        <ele>205.38</ele>
        <time>2021-08-20T17:48:35Z</time>
      </trkpt>
      <trkpt lat="43.17589" lon="-1.29662">
        <ele>205.38</ele>
        <time>2021-08-20T17:48:36Z</time>
      </trkpt>
      <trkpt lat="43.17593" lon="-1.29667">
        <ele>205.38</ele>
        <time>2021-08-20T17:48:37Z</time>
      </trkpt>
      <trkpt lat="43.17597" lon="-1.29671">
        <ele>205.38</ele>
        <time>2021-08-20T17:48:38Z</time>
      </trkpt>
      <trkpt lat="43.17611" lon="-1.29684">
        <ele>204.9</ele>
        <time>2021-08-20T17:48:42Z</time>
      </trkpt>
      <trkpt lat="43.17615" lon="-1.29684">
        <ele>204.9</ele>
        <time>2021-08-20T17:48:43Z</time>
      </trkpt>
      <trkpt lat="43.17617" lon="-1.29685">
        <ele>204.42</ele>
        <time>2021-08-20T17:48:44Z</time>
      </trkpt>
      <trkpt lat="43.17619" lon="-1.29686">
        <ele>204.42</ele>
        <time>2021-08-20T17:48:45Z</time>
      </trkpt>
      <trkpt lat="43.1762" lon="-1.29686">
        <ele>204.42</ele>
        <time>2021-08-20T17:48:46Z</time>
      </trkpt>
      <trkpt lat="43.17622" lon="-1.29688">
        <ele>204.42</ele>
        <time>2021-08-20T17:48:47Z</time>
      </trkpt>
      <trkpt lat="43.17632" lon="-1.29702">
        <ele>204.42</ele>
        <time>2021-08-20T17:48:52Z</time>
      </trkpt>
      <trkpt lat="43.17643" lon="-1.29738">
        <ele>204.42</ele>
        <time>2021-08-20T17:49:01Z</time>
      </trkpt>
      <trkpt lat="43.1765" lon="-1.29764">
        <ele>205.38</ele>
        <time>2021-08-20T17:49:07Z</time>
      </trkpt>
      <trkpt lat="43.17663" lon="-1.2979">
        <ele>206.82</ele>
        <time>2021-08-20T17:49:15Z</time>
      </trkpt>
      <trkpt lat="43.17679" lon="-1.29815">
        <ele>207.78</ele>
        <time>2021-08-20T17:49:24Z</time>
      </trkpt>
      <trkpt lat="43.1769" lon="-1.2984">
        <ele>209.22</ele>
        <time>2021-08-20T17:49:34Z</time>
      </trkpt>
      <trkpt lat="43.17699" lon="-1.29858">
        <ele>210.67</ele>
        <time>2021-08-20T17:49:42Z</time>
      </trkpt>
      <trkpt lat="43.17712" lon="-1.29873">
        <ele>211.63</ele>
        <time>2021-08-20T17:49:51Z</time>
      </trkpt>
      <trkpt lat="43.17724" lon="-1.29882">
        <ele>212.59</ele>
        <time>2021-08-20T17:49:58Z</time>
      </trkpt>
      <trkpt lat="43.17726" lon="-1.29886">
        <ele>212.59</ele>
        <time>2021-08-20T17:50:00Z</time>
      </trkpt>
      <trkpt lat="43.17734" lon="-1.29912">
        <ele>213.55</ele>
        <time>2021-08-20T17:50:10Z</time>
      </trkpt>
      <trkpt lat="43.17742" lon="-1.29932">
        <ele>213.55</ele>
        <time>2021-08-20T17:50:17Z</time>
      </trkpt>
      <trkpt lat="43.17752" lon="-1.29964">
        <ele>214.51</ele>
        <time>2021-08-20T17:50:28Z</time>
      </trkpt>
      <trkpt lat="43.1776" lon="-1.2999">
        <ele>215.47</ele>
        <time>2021-08-20T17:50:37Z</time>
      </trkpt>
      <trkpt lat="43.17763" lon="-1.30015">
        <ele>215.95</ele>
        <time>2021-08-20T17:50:45Z</time>
      </trkpt>
      <trkpt lat="43.17774" lon="-1.30035">
        <ele>216.43</ele>
        <time>2021-08-20T17:50:53Z</time>
      </trkpt>
      <trkpt lat="43.17784" lon="-1.30037">
        <ele>216.91</ele>
        <time>2021-08-20T17:50:58Z</time>
      </trkpt>
      <trkpt lat="43.17799" lon="-1.30027">
        <ele>216.91</ele>
        <time>2021-08-20T17:51:06Z</time>
      </trkpt>
      <trkpt lat="43.17822" lon="-1.30017">
        <ele>216.91</ele>
        <time>2021-08-20T17:51:14Z</time>
      </trkpt>
      <trkpt lat="43.17846" lon="-1.30016">
        <ele>216.91</ele>
        <time>2021-08-20T17:51:23Z</time>
      </trkpt>
      <trkpt lat="43.17869" lon="-1.30014">
        <ele>215.47</ele>
        <time>2021-08-20T17:51:30Z</time>
      </trkpt>
      <trkpt lat="43.17898" lon="-1.30006">
        <ele>215.47</ele>
        <time>2021-08-20T17:51:37Z</time>
      </trkpt>
      <trkpt lat="43.17904" lon="-1.30003">
        <ele>215.47</ele>
        <time>2021-08-20T17:51:39Z</time>
      </trkpt>
      <trkpt lat="43.17909" lon="-1.30001">
        <ele>215.47</ele>
        <time>2021-08-20T17:51:40Z</time>
      </trkpt>
      <trkpt lat="43.17913" lon="-1.3">
        <ele>214.99</ele>
        <time>2021-08-20T17:51:41Z</time>
      </trkpt>
      <trkpt lat="43.17929" lon="-1.29997">
        <ele>213.07</ele>
        <time>2021-08-20T17:51:44Z</time>
      </trkpt>
      <trkpt lat="43.17935" lon="-1.29996">
        <ele>213.07</ele>
        <time>2021-08-20T17:51:45Z</time>
      </trkpt>
      <trkpt lat="43.17941" lon="-1.29996">
        <ele>212.59</ele>
        <time>2021-08-20T17:51:46Z</time>
      </trkpt>
      <trkpt lat="43.17947" lon="-1.29994">
        <ele>212.59</ele>
        <time>2021-08-20T17:51:47Z</time>
      </trkpt>
      <trkpt lat="43.17954" lon="-1.29993">
        <ele>212.59</ele>
        <time>2021-08-20T17:51:48Z</time>
      </trkpt>
      <trkpt lat="43.1796" lon="-1.29993">
        <ele>212.59</ele>
        <time>2021-08-20T17:51:49Z</time>
      </trkpt>
      <trkpt lat="43.17966" lon="-1.29994">
        <ele>212.59</ele>
        <time>2021-08-20T17:51:50Z</time>
      </trkpt>
      <trkpt lat="43.17971" lon="-1.29996">
        <ele>212.59</ele>
        <time>2021-08-20T17:51:51Z</time>
      </trkpt>
      <trkpt lat="43.17976" lon="-1.29998">
        <ele>212.59</ele>
        <time>2021-08-20T17:51:52Z</time>
      </trkpt>
      <trkpt lat="43.1798" lon="-1.30001">
        <ele>212.59</ele>
        <time>2021-08-20T17:51:53Z</time>
      </trkpt>
      <trkpt lat="43.17984" lon="-1.30004">
        <ele>212.59</ele>
        <time>2021-08-20T17:51:54Z</time>
      </trkpt>
      <trkpt lat="43.17989" lon="-1.30009">
        <ele>214.03</ele>
        <time>2021-08-20T17:51:56Z</time>
      </trkpt>
      <trkpt lat="43.18014" lon="-1.3002">
        <ele>215.47</ele>
        <time>2021-08-20T17:52:05Z</time>
      </trkpt>
      <trkpt lat="43.18033" lon="-1.30016">
        <ele>216.43</ele>
        <time>2021-08-20T17:52:12Z</time>
      </trkpt>
      <trkpt lat="43.18049" lon="-1.30016">
        <ele>217.88</ele>
        <time>2021-08-20T17:52:20Z</time>
      </trkpt>
      <trkpt lat="43.18067" lon="-1.30018">
        <ele>218.84</ele>
        <time>2021-08-20T17:52:29Z</time>
      </trkpt>
      <trkpt lat="43.18078" lon="-1.30024">
        <ele>219.8</ele>
        <time>2021-08-20T17:52:37Z</time>
      </trkpt>
      <trkpt lat="43.18083" lon="-1.3004">
        <ele>220.76</ele>
        <time>2021-08-20T17:52:45Z</time>
      </trkpt>
      <trkpt lat="43.18088" lon="-1.30058">
        <ele>222.68</ele>
        <time>2021-08-20T17:52:54Z</time>
      </trkpt>
      <trkpt lat="43.18089" lon="-1.30059">
        <ele>222.68</ele>
        <time>2021-08-20T17:52:55Z</time>
      </trkpt>
      <trkpt lat="43.18091" lon="-1.3006">
        <ele>223.16</ele>
        <time>2021-08-20T17:52:56Z</time>
      </trkpt>
      <trkpt lat="43.18092" lon="-1.3006">
        <ele>223.16</ele>
        <time>2021-08-20T17:52:57Z</time>
      </trkpt>
      <trkpt lat="43.18094" lon="-1.30061">
        <ele>223.16</ele>
        <time>2021-08-20T17:52:58Z</time>
      </trkpt>
      <trkpt lat="43.18095" lon="-1.30062">
        <ele>223.64</ele>
        <time>2021-08-20T17:52:59Z</time>
      </trkpt>
      <trkpt lat="43.18097" lon="-1.30063">
        <ele>223.64</ele>
        <time>2021-08-20T17:53:00Z</time>
      </trkpt>
      <trkpt lat="43.18107" lon="-1.30069">
        <ele>225.09</ele>
        <time>2021-08-20T17:53:07Z</time>
      </trkpt>
      <trkpt lat="43.1812" lon="-1.30077">
        <ele>226.05</ele>
        <time>2021-08-20T17:53:16Z</time>
      </trkpt>
      <trkpt lat="43.1813" lon="-1.30093">
        <ele>227.01</ele>
        <time>2021-08-20T17:53:25Z</time>
      </trkpt>
      <trkpt lat="43.18136" lon="-1.30101">
        <ele>227.49</ele>
        <time>2021-08-20T17:53:31Z</time>
      </trkpt>
      <trkpt lat="43.18138" lon="-1.30102">
        <ele>227.49</ele>
        <time>2021-08-20T17:53:32Z</time>
      </trkpt>
      <trkpt lat="43.18139" lon="-1.30102">
        <ele>227.49</ele>
        <time>2021-08-20T17:53:33Z</time>
      </trkpt>
      <trkpt lat="43.1814" lon="-1.30104">
        <ele>227.49</ele>
        <time>2021-08-20T17:53:34Z</time>
      </trkpt>
      <trkpt lat="43.18141" lon="-1.30105">
        <ele>227.49</ele>
        <time>2021-08-20T17:53:35Z</time>
      </trkpt>
      <trkpt lat="43.18142" lon="-1.30107">
        <ele>227.97</ele>
        <time>2021-08-20T17:53:36Z</time>
      </trkpt>
      <trkpt lat="43.18143" lon="-1.30109">
        <ele>227.97</ele>
        <time>2021-08-20T17:53:37Z</time>
      </trkpt>
      <trkpt lat="43.18144" lon="-1.30111">
        <ele>227.97</ele>
        <time>2021-08-20T17:53:38Z</time>
      </trkpt>
      <trkpt lat="43.18154" lon="-1.30125">
        <ele>228.45</ele>
        <time>2021-08-20T17:53:46Z</time>
      </trkpt>
      <trkpt lat="43.18166" lon="-1.30138">
        <ele>228.45</ele>
        <time>2021-08-20T17:53:53Z</time>
      </trkpt>
      <trkpt lat="43.18176" lon="-1.3015">
        <ele>228.93</ele>
        <time>2021-08-20T17:54:00Z</time>
      </trkpt>
      <trkpt lat="43.18192" lon="-1.30169">
        <ele>229.41</ele>
        <time>2021-08-20T17:54:10Z</time>
      </trkpt>
      <trkpt lat="43.18207" lon="-1.30188">
        <ele>229.41</ele>
        <time>2021-08-20T17:54:18Z</time>
      </trkpt>
      <trkpt lat="43.18225" lon="-1.3021">
        <ele>229.89</ele>
        <time>2021-08-20T17:54:27Z</time>
      </trkpt>
      <trkpt lat="43.1824" lon="-1.30228">
        <ele>230.85</ele>
        <time>2021-08-20T17:54:35Z</time>
      </trkpt>
      <trkpt lat="43.18255" lon="-1.30245">
        <ele>231.33</ele>
        <time>2021-08-20T17:54:43Z</time>
      </trkpt>
      <trkpt lat="43.18262" lon="-1.30253">
        <ele>232.3</ele>
        <time>2021-08-20T17:54:49Z</time>
      </trkpt>
      <trkpt lat="43.18263" lon="-1.30254">
        <ele>232.3</ele>
        <time>2021-08-20T17:54:55Z</time>
      </trkpt>
      <trkpt lat="43.18269" lon="-1.30261">
        <ele>233.74</ele>
        <time>2021-08-20T17:55:03Z</time>
      </trkpt>
      <trkpt lat="43.18277" lon="-1.30268">
        <ele>234.7</ele>
        <time>2021-08-20T17:55:13Z</time>
      </trkpt>
      <trkpt lat="43.18284" lon="-1.30275">
        <ele>236.14</ele>
        <time>2021-08-20T17:55:23Z</time>
      </trkpt>
      <trkpt lat="43.18291" lon="-1.30281">
        <ele>237.58</ele>
        <time>2021-08-20T17:55:33Z</time>
      </trkpt>
      <trkpt lat="43.18296" lon="-1.30287">
        <ele>238.54</ele>
        <time>2021-08-20T17:55:42Z</time>
      </trkpt>
      <trkpt lat="43.18304" lon="-1.30296">
        <ele>240.47</ele>
        <time>2021-08-20T17:55:54Z</time>
      </trkpt>
      <trkpt lat="43.18309" lon="-1.30303">
        <ele>241.91</ele>
        <time>2021-08-20T17:56:04Z</time>
      </trkpt>
      <trkpt lat="43.18314" lon="-1.30311">
        <ele>243.83</ele>
        <time>2021-08-20T17:56:14Z</time>
      </trkpt>
      <trkpt lat="43.18319" lon="-1.30318">
        <ele>244.79</ele>
        <time>2021-08-20T17:56:25Z</time>
      </trkpt>
      <trkpt lat="43.18324" lon="-1.30325">
        <ele>246.23</ele>
        <time>2021-08-20T17:56:35Z</time>
      </trkpt>
      <trkpt lat="43.18328" lon="-1.30332">
        <ele>248.16</ele>
        <time>2021-08-20T17:56:44Z</time>
      </trkpt>
      <trkpt lat="43.18331" lon="-1.30336">
        <ele>249.12</ele>
        <time>2021-08-20T17:56:53Z</time>
      </trkpt>
      <trkpt lat="43.18335" lon="-1.3034">
        <ele>250.56</ele>
        <time>2021-08-20T17:57:02Z</time>
      </trkpt>
      <trkpt lat="43.18342" lon="-1.30347">
        <ele>252.48</ele>
        <time>2021-08-20T17:57:12Z</time>
      </trkpt>
      <trkpt lat="43.18349" lon="-1.30353">
        <ele>253.44</ele>
        <time>2021-08-20T17:57:21Z</time>
      </trkpt>
      <trkpt lat="43.18356" lon="-1.30358">
        <ele>254.41</ele>
        <time>2021-08-20T17:57:30Z</time>
      </trkpt>
      <trkpt lat="43.18358" lon="-1.3036">
        <ele>254.41</ele>
        <time>2021-08-20T17:57:32Z</time>
      </trkpt>
      <trkpt lat="43.18368" lon="-1.30365">
        <ele>255.37</ele>
        <time>2021-08-20T17:57:42Z</time>
      </trkpt>
      <trkpt lat="43.18377" lon="-1.3037">
        <ele>255.85</ele>
        <time>2021-08-20T17:57:51Z</time>
      </trkpt>
      <trkpt lat="43.18383" lon="-1.30377">
        <ele>256.81</ele>
        <time>2021-08-20T17:57:59Z</time>
      </trkpt>
      <trkpt lat="43.18394" lon="-1.30387">
        <ele>257.77</ele>
        <time>2021-08-20T17:58:10Z</time>
      </trkpt>
      <trkpt lat="43.18403" lon="-1.30395">
        <ele>258.73</ele>
        <time>2021-08-20T17:58:20Z</time>
      </trkpt>
      <trkpt lat="43.18406" lon="-1.30396">
        <ele>258.73</ele>
        <time>2021-08-20T17:58:25Z</time>
      </trkpt>
      <trkpt lat="43.18407" lon="-1.30396">
        <ele>258.73</ele>
        <time>2021-08-20T17:58:26Z</time>
      </trkpt>
      <trkpt lat="43.18408" lon="-1.30398">
        <ele>258.73</ele>
        <time>2021-08-20T17:58:27Z</time>
      </trkpt>
      <trkpt lat="43.18419" lon="-1.30409">
        <ele>259.21</ele>
        <time>2021-08-20T17:58:34Z</time>
      </trkpt>
      <trkpt lat="43.18428" lon="-1.30421">
        <ele>260.17</ele>
        <time>2021-08-20T17:58:41Z</time>
      </trkpt>
      <trkpt lat="43.18442" lon="-1.30438">
        <ele>260.17</ele>
        <time>2021-08-20T17:58:48Z</time>
      </trkpt>
      <trkpt lat="43.18458" lon="-1.30453">
        <ele>258.73</ele>
        <time>2021-08-20T17:58:56Z</time>
      </trkpt>
      <trkpt lat="43.18479" lon="-1.30466">
        <ele>257.77</ele>
        <time>2021-08-20T17:59:06Z</time>
      </trkpt>
      <trkpt lat="43.18502" lon="-1.3047">
        <ele>257.29</ele>
        <time>2021-08-20T17:59:16Z</time>
      </trkpt>
      <trkpt lat="43.18527" lon="-1.30465">
        <ele>256.33</ele>
        <time>2021-08-20T17:59:25Z</time>
      </trkpt>
      <trkpt lat="43.1856" lon="-1.30458">
        <ele>253.93</ele>
        <time>2021-08-20T17:59:33Z</time>
      </trkpt>
      <trkpt lat="43.18575" lon="-1.30453">
        <ele>252.48</ele>
        <time>2021-08-20T17:59:36Z</time>
      </trkpt>
      <trkpt lat="43.18599" lon="-1.30444">
        <ele>250.56</ele>
        <time>2021-08-20T17:59:41Z</time>
      </trkpt>
      <trkpt lat="43.18603" lon="-1.30446">
        <ele>250.08</ele>
        <time>2021-08-20T17:59:42Z</time>
      </trkpt>
      <trkpt lat="43.18606" lon="-1.3045">
        <ele>250.08</ele>
        <time>2021-08-20T17:59:43Z</time>
      </trkpt>
      <trkpt lat="43.18607" lon="-1.30454">
        <ele>249.6</ele>
        <time>2021-08-20T17:59:44Z</time>
      </trkpt>
      <trkpt lat="43.18608" lon="-1.30461">
        <ele>249.12</ele>
        <time>2021-08-20T17:59:45Z</time>
      </trkpt>
      <trkpt lat="43.18608" lon="-1.30466">
        <ele>248.64</ele>
        <time>2021-08-20T17:59:46Z</time>
      </trkpt>
      <trkpt lat="43.18612" lon="-1.30522">
        <ele>245.27</ele>
        <time>2021-08-20T17:59:53Z</time>
      </trkpt>
      <trkpt lat="43.18615" lon="-1.3058">
        <ele>241.43</ele>
        <time>2021-08-20T17:59:59Z</time>
      </trkpt>
      <trkpt lat="43.18617" lon="-1.30591">
        <ele>240.95</ele>
        <time>2021-08-20T18:00:00Z</time>
      </trkpt>
      <trkpt lat="43.1862" lon="-1.30601">
        <ele>240.47</ele>
        <time>2021-08-20T18:00:01Z</time>
      </trkpt>
      <trkpt lat="43.18624" lon="-1.3061">
        <ele>239.51</ele>
        <time>2021-08-20T18:00:02Z</time>
      </trkpt>
      <trkpt lat="43.18628" lon="-1.30619">
        <ele>238.54</ele>
        <time>2021-08-20T18:00:03Z</time>
      </trkpt>
      <trkpt lat="43.18633" lon="-1.30627">
        <ele>238.06</ele>
        <time>2021-08-20T18:00:04Z</time>
      </trkpt>
      <trkpt lat="43.18639" lon="-1.30634">
        <ele>237.58</ele>
        <time>2021-08-20T18:00:05Z</time>
      </trkpt>
      <trkpt lat="43.18644" lon="-1.3064">
        <ele>237.58</ele>
        <time>2021-08-20T18:00:06Z</time>
      </trkpt>
      <trkpt lat="43.1865" lon="-1.30645">
        <ele>237.1</ele>
        <time>2021-08-20T18:00:07Z</time>
      </trkpt>
      <trkpt lat="43.18656" lon="-1.3065">
        <ele>237.1</ele>
        <time>2021-08-20T18:00:08Z</time>
      </trkpt>
      <trkpt lat="43.18672" lon="-1.30664">
        <ele>236.62</ele>
        <time>2021-08-20T18:00:11Z</time>
      </trkpt>
      <trkpt lat="43.18676" lon="-1.30671">
        <ele>236.14</ele>
        <time>2021-08-20T18:00:12Z</time>
      </trkpt>
      <trkpt lat="43.18678" lon="-1.3068">
        <ele>235.18</ele>
        <time>2021-08-20T18:00:13Z</time>
      </trkpt>
      <trkpt lat="43.1868" lon="-1.3069">
        <ele>234.7</ele>
        <time>2021-08-20T18:00:14Z</time>
      </trkpt>
      <trkpt lat="43.18682" lon="-1.307">
        <ele>233.74</ele>
        <time>2021-08-20T18:00:15Z</time>
      </trkpt>
      <trkpt lat="43.18686" lon="-1.3071">
        <ele>233.26</ele>
        <time>2021-08-20T18:00:16Z</time>
      </trkpt>
      <trkpt lat="43.1869" lon="-1.30719">
        <ele>233.26</ele>
        <time>2021-08-20T18:00:17Z</time>
      </trkpt>
      <trkpt lat="43.18694" lon="-1.30727">
        <ele>232.78</ele>
        <time>2021-08-20T18:00:18Z</time>
      </trkpt>
      <trkpt lat="43.18699" lon="-1.30736">
        <ele>231.81</ele>
        <time>2021-08-20T18:00:19Z</time>
      </trkpt>
      <trkpt lat="43.18721" lon="-1.3078">
        <ele>228.45</ele>
        <time>2021-08-20T18:00:24Z</time>
      </trkpt>
      <trkpt lat="43.18723" lon="-1.3079">
        <ele>227.97</ele>
        <time>2021-08-20T18:00:25Z</time>
      </trkpt>
      <trkpt lat="43.18738" lon="-1.30848">
        <ele>224.61</ele>
        <time>2021-08-20T18:00:31Z</time>
      </trkpt>
      <trkpt lat="43.18744" lon="-1.30866">
        <ele>224.12</ele>
        <time>2021-08-20T18:00:33Z</time>
      </trkpt>
      <trkpt lat="43.18758" lon="-1.30899">
        <ele>223.64</ele>
        <time>2021-08-20T18:00:37Z</time>
      </trkpt>
      <trkpt lat="43.18779" lon="-1.30943">
        <ele>221.24</ele>
        <time>2021-08-20T18:00:42Z</time>
      </trkpt>
      <trkpt lat="43.18781" lon="-1.30953">
        <ele>220.76</ele>
        <time>2021-08-20T18:00:43Z</time>
      </trkpt>
      <trkpt lat="43.18794" lon="-1.3102">
        <ele>217.4</ele>
        <time>2021-08-20T18:00:50Z</time>
      </trkpt>
      <trkpt lat="43.18796" lon="-1.31029">
        <ele>217.4</ele>
        <time>2021-08-20T18:00:51Z</time>
      </trkpt>
      <trkpt lat="43.18801" lon="-1.31049">
        <ele>216.43</ele>
        <time>2021-08-20T18:00:53Z</time>
      </trkpt>
      <trkpt lat="43.18804" lon="-1.31057">
        <ele>216.43</ele>
        <time>2021-08-20T18:00:54Z</time>
      </trkpt>
      <trkpt lat="43.18808" lon="-1.31066">
        <ele>215.47</ele>
        <time>2021-08-20T18:00:55Z</time>
      </trkpt>
      <trkpt lat="43.18813" lon="-1.31074">
        <ele>215.47</ele>
        <time>2021-08-20T18:00:56Z</time>
      </trkpt>
      <trkpt lat="43.18818" lon="-1.31082">
        <ele>214.99</ele>
        <time>2021-08-20T18:00:57Z</time>
      </trkpt>
      <trkpt lat="43.18832" lon="-1.31107">
        <ele>214.51</ele>
        <time>2021-08-20T18:01:00Z</time>
      </trkpt>
      <trkpt lat="43.18835" lon="-1.31116">
        <ele>214.03</ele>
        <time>2021-08-20T18:01:01Z</time>
      </trkpt>
      <trkpt lat="43.1884" lon="-1.31124">
        <ele>214.03</ele>
        <time>2021-08-20T18:01:02Z</time>
      </trkpt>
      <trkpt lat="43.18845" lon="-1.31132">
        <ele>214.03</ele>
        <time>2021-08-20T18:01:03Z</time>
      </trkpt>
      <trkpt lat="43.18849" lon="-1.3114">
        <ele>213.07</ele>
        <time>2021-08-20T18:01:04Z</time>
      </trkpt>
      <trkpt lat="43.18853" lon="-1.31148">
        <ele>213.07</ele>
        <time>2021-08-20T18:01:05Z</time>
      </trkpt>
      <trkpt lat="43.18856" lon="-1.31157">
        <ele>213.07</ele>
        <time>2021-08-20T18:01:06Z</time>
      </trkpt>
      <trkpt lat="43.18872" lon="-1.31202">
        <ele>214.51</ele>
        <time>2021-08-20T18:01:12Z</time>
      </trkpt>
      <trkpt lat="43.18874" lon="-1.31207">
        <ele>214.51</ele>
        <time>2021-08-20T18:01:13Z</time>
      </trkpt>
      <trkpt lat="43.1888" lon="-1.31223">
        <ele>214.99</ele>
        <time>2021-08-20T18:01:16Z</time>
      </trkpt>
      <trkpt lat="43.18882" lon="-1.31227">
        <ele>215.47</ele>
        <time>2021-08-20T18:01:17Z</time>
      </trkpt>
      <trkpt lat="43.18904" lon="-1.31263">
        <ele>214.03</ele>
        <time>2021-08-20T18:01:24Z</time>
      </trkpt>
      <trkpt lat="43.18917" lon="-1.31282">
        <ele>212.59</ele>
        <time>2021-08-20T18:01:27Z</time>
      </trkpt>
      <trkpt lat="43.18921" lon="-1.31289">
        <ele>212.59</ele>
        <time>2021-08-20T18:01:28Z</time>
      </trkpt>
      <trkpt lat="43.18924" lon="-1.31296">
        <ele>212.59</ele>
        <time>2021-08-20T18:01:29Z</time>
      </trkpt>
      <trkpt lat="43.18926" lon="-1.31304">
        <ele>212.11</ele>
        <time>2021-08-20T18:01:30Z</time>
      </trkpt>
      <trkpt lat="43.18927" lon="-1.31311">
        <ele>212.11</ele>
        <time>2021-08-20T18:01:31Z</time>
      </trkpt>
      <trkpt lat="43.18928" lon="-1.31319">
        <ele>212.11</ele>
        <time>2021-08-20T18:01:32Z</time>
      </trkpt>
      <trkpt lat="43.18929" lon="-1.31326">
        <ele>212.11</ele>
        <time>2021-08-20T18:01:33Z</time>
      </trkpt>
      <trkpt lat="43.18927" lon="-1.31354">
        <ele>212.11</ele>
        <time>2021-08-20T18:01:37Z</time>
      </trkpt>
      <trkpt lat="43.18924" lon="-1.31379">
        <ele>212.11</ele>
        <time>2021-08-20T18:01:41Z</time>
      </trkpt>
      <trkpt lat="43.18921" lon="-1.31386">
        <ele>211.63</ele>
        <time>2021-08-20T18:01:42Z</time>
      </trkpt>
      <trkpt lat="43.18919" lon="-1.31393">
        <ele>211.63</ele>
        <time>2021-08-20T18:01:43Z</time>
      </trkpt>
      <trkpt lat="43.18915" lon="-1.31401">
        <ele>210.67</ele>
        <time>2021-08-20T18:01:44Z</time>
      </trkpt>
      <trkpt lat="43.18912" lon="-1.31408">
        <ele>210.19</ele>
        <time>2021-08-20T18:01:45Z</time>
      </trkpt>
      <trkpt lat="43.18908" lon="-1.31415">
        <ele>209.22</ele>
        <time>2021-08-20T18:01:46Z</time>
      </trkpt>
      <trkpt lat="43.18903" lon="-1.31421">
        <ele>207.78</ele>
        <time>2021-08-20T18:01:47Z</time>
      </trkpt>
      <trkpt lat="43.18896" lon="-1.31435">
        <ele>206.34</ele>
        <time>2021-08-20T18:01:49Z</time>
      </trkpt>
      <trkpt lat="43.18894" lon="-1.31442">
        <ele>205.86</ele>
        <time>2021-08-20T18:01:50Z</time>
      </trkpt>
      <trkpt lat="43.18892" lon="-1.31449">
        <ele>204.9</ele>
        <time>2021-08-20T18:01:51Z</time>
      </trkpt>
      <trkpt lat="43.18887" lon="-1.31466">
        <ele>202.98</ele>
        <time>2021-08-20T18:01:55Z</time>
      </trkpt>
      <trkpt lat="43.18881" lon="-1.31481">
        <ele>201.53</ele>
        <time>2021-08-20T18:02:01Z</time>
      </trkpt>
      <trkpt lat="43.18881" lon="-1.31494">
        <ele>200.09</ele>
        <time>2021-08-20T18:02:03Z</time>
      </trkpt>
      <trkpt lat="43.18882" lon="-1.31502">
        <ele>199.61</ele>
        <time>2021-08-20T18:02:04Z</time>
      </trkpt>
      <trkpt lat="43.18883" lon="-1.31511">
        <ele>199.13</ele>
        <time>2021-08-20T18:02:05Z</time>
      </trkpt>
      <trkpt lat="43.18891" lon="-1.31559">
        <ele>196.73</ele>
        <time>2021-08-20T18:02:10Z</time>
      </trkpt>
      <trkpt lat="43.18894" lon="-1.31568">
        <ele>196.25</ele>
        <time>2021-08-20T18:02:11Z</time>
      </trkpt>
      <trkpt lat="43.18901" lon="-1.31587">
        <ele>194.8</ele>
        <time>2021-08-20T18:02:13Z</time>
      </trkpt>
      <trkpt lat="43.18911" lon="-1.31621">
        <ele>192.88</ele>
        <time>2021-08-20T18:02:16Z</time>
      </trkpt>
      <trkpt lat="43.18915" lon="-1.31631">
        <ele>192.88</ele>
        <time>2021-08-20T18:02:17Z</time>
      </trkpt>
      <trkpt lat="43.1892" lon="-1.31641">
        <ele>192.88</ele>
        <time>2021-08-20T18:02:18Z</time>
      </trkpt>
      <trkpt lat="43.18939" lon="-1.31675">
        <ele>192.4</ele>
        <time>2021-08-20T18:02:22Z</time>
      </trkpt>
      <trkpt lat="43.18942" lon="-1.31686">
        <ele>192.4</ele>
        <time>2021-08-20T18:02:23Z</time>
      </trkpt>
      <trkpt lat="43.18944" lon="-1.31696">
        <ele>192.4</ele>
        <time>2021-08-20T18:02:24Z</time>
      </trkpt>
      <trkpt lat="43.18943" lon="-1.31707">
        <ele>192.4</ele>
        <time>2021-08-20T18:02:25Z</time>
      </trkpt>
      <trkpt lat="43.18942" lon="-1.31717">
        <ele>192.4</ele>
        <time>2021-08-20T18:02:26Z</time>
      </trkpt>
      <trkpt lat="43.18941" lon="-1.31727">
        <ele>192.4</ele>
        <time>2021-08-20T18:02:27Z</time>
      </trkpt>
      <trkpt lat="43.18938" lon="-1.31736">
        <ele>192.4</ele>
        <time>2021-08-20T18:02:28Z</time>
      </trkpt>
      <trkpt lat="43.18935" lon="-1.31743">
        <ele>192.4</ele>
        <time>2021-08-20T18:02:29Z</time>
      </trkpt>
      <trkpt lat="43.18933" lon="-1.31749">
        <ele>192.4</ele>
        <time>2021-08-20T18:02:30Z</time>
      </trkpt>
      <trkpt lat="43.1893" lon="-1.31753">
        <ele>192.4</ele>
        <time>2021-08-20T18:02:31Z</time>
      </trkpt>
      <trkpt lat="43.18928" lon="-1.31757">
        <ele>193.36</ele>
        <time>2021-08-20T18:02:33Z</time>
      </trkpt>
      <trkpt lat="43.18926" lon="-1.31759">
        <ele>193.36</ele>
        <time>2021-08-20T18:02:38Z</time>
      </trkpt>
      <trkpt lat="43.18925" lon="-1.31758">
        <ele>193.36</ele>
        <time>2021-08-20T18:02:52Z</time>
      </trkpt>
      <trkpt lat="43.18924" lon="-1.31756">
        <ele>193.36</ele>
        <time>2021-08-20T18:03:07Z</time>
      </trkpt>
      <trkpt lat="43.18925" lon="-1.31757">
        <ele>193.36</ele>
        <time>2021-08-20T18:03:12Z</time>
      </trkpt>
      <trkpt lat="43.18925" lon="-1.3176">
        <ele>193.36</ele>
        <time>2021-08-20T18:03:16Z</time>
      </trkpt>
      <trkpt lat="43.18925" lon="-1.31762">
        <ele>193.36</ele>
        <time>2021-08-20T18:03:17Z</time>
      </trkpt>
      <trkpt lat="43.18916" lon="-1.31785">
        <ele>190.96</ele>
        <time>2021-08-20T18:03:22Z</time>
      </trkpt>
      <trkpt lat="43.1891" lon="-1.31803">
        <ele>189.04</ele>
        <time>2021-08-20T18:03:24Z</time>
      </trkpt>
      <trkpt lat="43.18908" lon="-1.31813">
        <ele>188.08</ele>
        <time>2021-08-20T18:03:25Z</time>
      </trkpt>
      <trkpt lat="43.18907" lon="-1.31823">
        <ele>186.63</ele>
        <time>2021-08-20T18:03:26Z</time>
      </trkpt>
      <trkpt lat="43.18907" lon="-1.31834">
        <ele>186.15</ele>
        <time>2021-08-20T18:03:27Z</time>
      </trkpt>
      <trkpt lat="43.18907" lon="-1.31845">
        <ele>186.15</ele>
        <time>2021-08-20T18:03:28Z</time>
      </trkpt>
      <trkpt lat="43.18908" lon="-1.31855">
        <ele>186.15</ele>
        <time>2021-08-20T18:03:29Z</time>
      </trkpt>
      <trkpt lat="43.1891" lon="-1.31866">
        <ele>185.67</ele>
        <time>2021-08-20T18:03:30Z</time>
      </trkpt>
      <trkpt lat="43.18911" lon="-1.31875">
        <ele>185.67</ele>
        <time>2021-08-20T18:03:31Z</time>
      </trkpt>
      <trkpt lat="43.18912" lon="-1.31885">
        <ele>185.67</ele>
        <time>2021-08-20T18:03:32Z</time>
      </trkpt>
      <trkpt lat="43.18911" lon="-1.31893">
        <ele>185.67</ele>
        <time>2021-08-20T18:03:33Z</time>
      </trkpt>
      <trkpt lat="43.18908" lon="-1.319">
        <ele>185.67</ele>
        <time>2021-08-20T18:03:34Z</time>
      </trkpt>
      <trkpt lat="43.18904" lon="-1.31906">
        <ele>185.67</ele>
        <time>2021-08-20T18:03:35Z</time>
      </trkpt>
      <trkpt lat="43.18901" lon="-1.31912">
        <ele>185.67</ele>
        <time>2021-08-20T18:03:36Z</time>
      </trkpt>
      <trkpt lat="43.18893" lon="-1.31934">
        <ele>185.67</ele>
        <time>2021-08-20T18:03:39Z</time>
      </trkpt>
      <trkpt lat="43.18891" lon="-1.31942">
        <ele>185.67</ele>
        <time>2021-08-20T18:03:40Z</time>
      </trkpt>
      <trkpt lat="43.18883" lon="-1.31978">
        <ele>184.71</ele>
        <time>2021-08-20T18:03:44Z</time>
      </trkpt>
      <trkpt lat="43.18868" lon="-1.32027">
        <ele>182.31</ele>
        <time>2021-08-20T18:03:49Z</time>
      </trkpt>
      <trkpt lat="43.18866" lon="-1.32038">
        <ele>182.31</ele>
        <time>2021-08-20T18:03:50Z</time>
      </trkpt>
      <trkpt lat="43.18866" lon="-1.32048">
        <ele>182.31</ele>
        <time>2021-08-20T18:03:51Z</time>
      </trkpt>
      <trkpt lat="43.18866" lon="-1.32058">
        <ele>182.31</ele>
        <time>2021-08-20T18:03:52Z</time>
      </trkpt>
      <trkpt lat="43.18867" lon="-1.32067">
        <ele>182.31</ele>
        <time>2021-08-20T18:03:53Z</time>
      </trkpt>
      <trkpt lat="43.18872" lon="-1.32125">
        <ele>183.75</ele>
        <time>2021-08-20T18:04:00Z</time>
      </trkpt>
      <trkpt lat="43.18877" lon="-1.32153">
        <ele>181.83</ele>
        <time>2021-08-20T18:04:03Z</time>
      </trkpt>
      <trkpt lat="43.18878" lon="-1.32162">
        <ele>181.83</ele>
        <time>2021-08-20T18:04:04Z</time>
      </trkpt>
      <trkpt lat="43.18879" lon="-1.32213">
        <ele>179.42</ele>
        <time>2021-08-20T18:04:10Z</time>
      </trkpt>
      <trkpt lat="43.18876" lon="-1.32224">
        <ele>179.42</ele>
        <time>2021-08-20T18:04:15Z</time>
      </trkpt>
      <trkpt lat="43.18877" lon="-1.32225">
        <ele>178.94</ele>
        <time>2021-08-20T18:04:16Z</time>
      </trkpt>
      <trkpt lat="43.18877" lon="-1.32227">
        <ele>178.94</ele>
        <time>2021-08-20T18:04:17Z</time>
      </trkpt>
      <trkpt lat="43.18879" lon="-1.3223">
        <ele>178.94</ele>
        <time>2021-08-20T18:04:18Z</time>
      </trkpt>
      <trkpt lat="43.18881" lon="-1.32235">
        <ele>177.98</ele>
        <time>2021-08-20T18:04:19Z</time>
      </trkpt>
      <trkpt lat="43.18882" lon="-1.3224">
        <ele>177.5</ele>
        <time>2021-08-20T18:04:20Z</time>
      </trkpt>
      <trkpt lat="43.18884" lon="-1.32245">
        <ele>177.02</ele>
        <time>2021-08-20T18:04:21Z</time>
      </trkpt>
      <trkpt lat="43.18887" lon="-1.32259">
        <ele>175.58</ele>
        <time>2021-08-20T18:04:24Z</time>
      </trkpt>
      <trkpt lat="43.18886" lon="-1.32292">
        <ele>172.69</ele>
        <time>2021-08-20T18:04:31Z</time>
      </trkpt>
      <trkpt lat="43.18886" lon="-1.32314">
        <ele>170.77</ele>
        <time>2021-08-20T18:04:36Z</time>
      </trkpt>
      <trkpt lat="43.18887" lon="-1.32329">
        <ele>168.85</ele>
        <time>2021-08-20T18:04:39Z</time>
      </trkpt>
      <trkpt lat="43.18891" lon="-1.3234">
        <ele>167.41</ele>
        <time>2021-08-20T18:04:41Z</time>
      </trkpt>
      <trkpt lat="43.18892" lon="-1.32346">
        <ele>166.93</ele>
        <time>2021-08-20T18:04:42Z</time>
      </trkpt>
      <trkpt lat="43.18892" lon="-1.32355">
        <ele>165.96</ele>
        <time>2021-08-20T18:04:43Z</time>
      </trkpt>
      <trkpt lat="43.18891" lon="-1.32361">
        <ele>165.96</ele>
        <time>2021-08-20T18:04:44Z</time>
      </trkpt>
      <trkpt lat="43.18891" lon="-1.32368">
        <ele>165.96</ele>
        <time>2021-08-20T18:04:45Z</time>
      </trkpt>
      <trkpt lat="43.18891" lon="-1.32415">
        <ele>165</ele>
        <time>2021-08-20T18:04:52Z</time>
      </trkpt>
      <trkpt lat="43.18891" lon="-1.32421">
        <ele>165</ele>
        <time>2021-08-20T18:04:53Z</time>
      </trkpt>
      <trkpt lat="43.18892" lon="-1.32428">
        <ele>165</ele>
        <time>2021-08-20T18:04:54Z</time>
      </trkpt>
      <trkpt lat="43.18891" lon="-1.32452">
        <ele>164.52</ele>
        <time>2021-08-20T18:04:58Z</time>
      </trkpt>
      <trkpt lat="43.1889" lon="-1.32459">
        <ele>164.52</ele>
        <time>2021-08-20T18:04:59Z</time>
      </trkpt>
      <trkpt lat="43.18885" lon="-1.3248">
        <ele>163.08</ele>
        <time>2021-08-20T18:05:02Z</time>
      </trkpt>
      <trkpt lat="43.18883" lon="-1.32487">
        <ele>162.6</ele>
        <time>2021-08-20T18:05:03Z</time>
      </trkpt>
      <trkpt lat="43.18878" lon="-1.32501">
        <ele>161.64</ele>
        <time>2021-08-20T18:05:05Z</time>
      </trkpt>
      <trkpt lat="43.18864" lon="-1.3253">
        <ele>160.2</ele>
        <time>2021-08-20T18:05:09Z</time>
      </trkpt>
      <trkpt lat="43.18852" lon="-1.32552">
        <ele>159.72</ele>
        <time>2021-08-20T18:05:12Z</time>
      </trkpt>
      <trkpt lat="43.18851" lon="-1.3256">
        <ele>159.72</ele>
        <time>2021-08-20T18:05:13Z</time>
      </trkpt>
      <trkpt lat="43.18849" lon="-1.32569">
        <ele>158.75</ele>
        <time>2021-08-20T18:05:14Z</time>
      </trkpt>
      <trkpt lat="43.18849" lon="-1.32577">
        <ele>158.27</ele>
        <time>2021-08-20T18:05:15Z</time>
      </trkpt>
      <trkpt lat="43.18849" lon="-1.32586">
        <ele>158.27</ele>
        <time>2021-08-20T18:05:16Z</time>
      </trkpt>
      <trkpt lat="43.1885" lon="-1.32595">
        <ele>158.27</ele>
        <time>2021-08-20T18:05:17Z</time>
      </trkpt>
      <trkpt lat="43.18849" lon="-1.32604">
        <ele>157.79</ele>
        <time>2021-08-20T18:05:18Z</time>
      </trkpt>
      <trkpt lat="43.18848" lon="-1.32612">
        <ele>157.79</ele>
        <time>2021-08-20T18:05:19Z</time>
      </trkpt>
      <trkpt lat="43.18846" lon="-1.3262">
        <ele>156.83</ele>
        <time>2021-08-20T18:05:20Z</time>
      </trkpt>
      <trkpt lat="43.18844" lon="-1.32629">
        <ele>156.83</ele>
        <time>2021-08-20T18:05:21Z</time>
      </trkpt>
      <trkpt lat="43.18842" lon="-1.32637">
        <ele>156.35</ele>
        <time>2021-08-20T18:05:22Z</time>
      </trkpt>
      <trkpt lat="43.18842" lon="-1.32645">
        <ele>156.35</ele>
        <time>2021-08-20T18:05:23Z</time>
      </trkpt>
      <trkpt lat="43.18844" lon="-1.32653">
        <ele>156.35</ele>
        <time>2021-08-20T18:05:24Z</time>
      </trkpt>
      <trkpt lat="43.18847" lon="-1.3266">
        <ele>156.35</ele>
        <time>2021-08-20T18:05:25Z</time>
      </trkpt>
      <trkpt lat="43.18849" lon="-1.32667">
        <ele>156.35</ele>
        <time>2021-08-20T18:05:26Z</time>
      </trkpt>
      <trkpt lat="43.18857" lon="-1.32712">
        <ele>155.87</ele>
        <time>2021-08-20T18:05:32Z</time>
      </trkpt>
      <trkpt lat="43.18857" lon="-1.32719">
        <ele>155.87</ele>
        <time>2021-08-20T18:05:33Z</time>
      </trkpt>
      <trkpt lat="43.18857" lon="-1.32726">
        <ele>155.87</ele>
        <time>2021-08-20T18:05:34Z</time>
      </trkpt>
      <trkpt lat="43.18855" lon="-1.32757">
        <ele>154.91</ele>
        <time>2021-08-20T18:05:38Z</time>
      </trkpt>
      <trkpt lat="43.18856" lon="-1.32764">
        <ele>154.91</ele>
        <time>2021-08-20T18:05:39Z</time>
      </trkpt>
      <trkpt lat="43.18858" lon="-1.32777">
        <ele>154.91</ele>
        <time>2021-08-20T18:05:41Z</time>
      </trkpt>
      <trkpt lat="43.1886" lon="-1.32784">
        <ele>154.91</ele>
        <time>2021-08-20T18:05:42Z</time>
      </trkpt>
      <trkpt lat="43.18863" lon="-1.3279">
        <ele>153.95</ele>
        <time>2021-08-20T18:05:43Z</time>
      </trkpt>
      <trkpt lat="43.18865" lon="-1.32795">
        <ele>153.95</ele>
        <time>2021-08-20T18:05:44Z</time>
      </trkpt>
      <trkpt lat="43.18868" lon="-1.328">
        <ele>153.95</ele>
        <time>2021-08-20T18:05:45Z</time>
      </trkpt>
      <trkpt lat="43.18871" lon="-1.32805">
        <ele>153.47</ele>
        <time>2021-08-20T18:05:46Z</time>
      </trkpt>
      <trkpt lat="43.18895" lon="-1.32836">
        <ele>153.95</ele>
        <time>2021-08-20T18:05:54Z</time>
      </trkpt>
      <trkpt lat="43.18907" lon="-1.32849">
        <ele>153.47</ele>
        <time>2021-08-20T18:05:59Z</time>
      </trkpt>
      <trkpt lat="43.18921" lon="-1.32849">
        <ele>153.47</ele>
        <time>2021-08-20T18:06:05Z</time>
      </trkpt>
      <trkpt lat="43.18923" lon="-1.32849">
        <ele>153.47</ele>
        <time>2021-08-20T18:06:06Z</time>
      </trkpt>
      <trkpt lat="43.18924" lon="-1.32849">
        <ele>153.47</ele>
        <time>2021-08-20T18:06:07Z</time>
      </trkpt>
      <trkpt lat="43.18924" lon="-1.32851">
        <ele>153.47</ele>
        <time>2021-08-20T18:06:12Z</time>
      </trkpt>
      <trkpt lat="43.18925" lon="-1.32851">
        <ele>153.47</ele>
        <time>2021-08-20T18:06:21Z</time>
      </trkpt>
      <trkpt lat="43.18926" lon="-1.32851">
        <ele>153.47</ele>
        <time>2021-08-20T18:06:28Z</time>
      </trkpt>
      <trkpt lat="43.18925" lon="-1.3285">
        <ele>153.47</ele>
        <time>2021-08-20T18:06:38Z</time>
      </trkpt>
      <trkpt lat="43.18928" lon="-1.3285">
        <ele>153.47</ele>
        <time>2021-08-20T18:06:41Z</time>
      </trkpt>
      <trkpt lat="43.1893" lon="-1.32849">
        <ele>153.47</ele>
        <time>2021-08-20T18:06:42Z</time>
      </trkpt>
      <trkpt lat="43.18932" lon="-1.32849">
        <ele>153.47</ele>
        <time>2021-08-20T18:06:43Z</time>
      </trkpt>
      <trkpt lat="43.18934" lon="-1.32849">
        <ele>153.47</ele>
        <time>2021-08-20T18:06:44Z</time>
      </trkpt>
      <trkpt lat="43.18937" lon="-1.32849">
        <ele>153.47</ele>
        <time>2021-08-20T18:06:45Z</time>
      </trkpt>
      <trkpt lat="43.18939" lon="-1.32849">
        <ele>153.47</ele>
        <time>2021-08-20T18:06:46Z</time>
      </trkpt>
      <trkpt lat="43.18961" lon="-1.3285">
        <ele>154.91</ele>
        <time>2021-08-20T18:06:53Z</time>
      </trkpt>
      <trkpt lat="43.18976" lon="-1.32853">
        <ele>156.83</ele>
        <time>2021-08-20T18:07:00Z</time>
      </trkpt>
      <trkpt lat="43.18991" lon="-1.32855">
        <ele>158.75</ele>
        <time>2021-08-20T18:07:07Z</time>
      </trkpt>
      <trkpt lat="43.18997" lon="-1.3286">
        <ele>159.72</ele>
        <time>2021-08-20T18:07:12Z</time>
      </trkpt>
      <trkpt lat="43.19017" lon="-1.32884">
        <ele>161.16</ele>
        <time>2021-08-20T18:07:23Z</time>
      </trkpt>
      <trkpt lat="43.19037" lon="-1.32903">
        <ele>161.16</ele>
        <time>2021-08-20T18:07:31Z</time>
      </trkpt>
      <trkpt lat="43.19059" lon="-1.32934">
        <ele>161.16</ele>
        <time>2021-08-20T18:07:38Z</time>
      </trkpt>
      <trkpt lat="43.19069" lon="-1.32962">
        <ele>161.64</ele>
        <time>2021-08-20T18:07:44Z</time>
      </trkpt>
      <trkpt lat="43.19086" lon="-1.32986">
        <ele>162.12</ele>
        <time>2021-08-20T18:07:51Z</time>
      </trkpt>
      <trkpt lat="43.19098" lon="-1.33002">
        <ele>162.12</ele>
        <time>2021-08-20T18:07:55Z</time>
      </trkpt>
      <trkpt lat="43.19123" lon="-1.3303">
        <ele>162.12</ele>
        <time>2021-08-20T18:08:03Z</time>
      </trkpt>
      <trkpt lat="43.19141" lon="-1.3305">
        <ele>162.12</ele>
        <time>2021-08-20T18:08:10Z</time>
      </trkpt>
      <trkpt lat="43.19151" lon="-1.33057">
        <ele>162.12</ele>
        <time>2021-08-20T18:08:13Z</time>
      </trkpt>
      <trkpt lat="43.19169" lon="-1.33064">
        <ele>160.68</ele>
        <time>2021-08-20T18:08:17Z</time>
      </trkpt>
      <trkpt lat="43.19201" lon="-1.33071">
        <ele>159.24</ele>
        <time>2021-08-20T18:08:23Z</time>
      </trkpt>
      <trkpt lat="43.19212" lon="-1.33071">
        <ele>159.24</ele>
        <time>2021-08-20T18:08:25Z</time>
      </trkpt>
      <trkpt lat="43.19247" lon="-1.33081">
        <ele>159.24</ele>
        <time>2021-08-20T18:08:33Z</time>
      </trkpt>
      <trkpt lat="43.19272" lon="-1.3309">
        <ele>159.24</ele>
        <time>2021-08-20T18:08:39Z</time>
      </trkpt>
      <trkpt lat="43.19277" lon="-1.33091">
        <ele>159.24</ele>
        <time>2021-08-20T18:08:40Z</time>
      </trkpt>
      <trkpt lat="43.19282" lon="-1.33091">
        <ele>159.24</ele>
        <time>2021-08-20T18:08:41Z</time>
      </trkpt>
      <trkpt lat="43.19286" lon="-1.33091">
        <ele>159.24</ele>
        <time>2021-08-20T18:08:42Z</time>
      </trkpt>
      <trkpt lat="43.19291" lon="-1.3309">
        <ele>159.24</ele>
        <time>2021-08-20T18:08:43Z</time>
      </trkpt>
      <trkpt lat="43.19331" lon="-1.33081">
        <ele>159.24</ele>
        <time>2021-08-20T18:08:52Z</time>
      </trkpt>
      <trkpt lat="43.19378" lon="-1.3306">
        <ele>160.2</ele>
        <time>2021-08-20T18:09:04Z</time>
      </trkpt>
      <trkpt lat="43.19411" lon="-1.33043">
        <ele>161.16</ele>
        <time>2021-08-20T18:09:14Z</time>
      </trkpt>
      <trkpt lat="43.19447" lon="-1.3303">
        <ele>162.12</ele>
        <time>2021-08-20T18:09:24Z</time>
      </trkpt>
      <trkpt lat="43.19455" lon="-1.3303">
        <ele>162.6</ele>
        <time>2021-08-20T18:09:26Z</time>
      </trkpt>
      <trkpt lat="43.19459" lon="-1.33032">
        <ele>162.6</ele>
        <time>2021-08-20T18:09:27Z</time>
      </trkpt>
      <trkpt lat="43.19462" lon="-1.33036">
        <ele>162.6</ele>
        <time>2021-08-20T18:09:28Z</time>
      </trkpt>
      <trkpt lat="43.19466" lon="-1.3304">
        <ele>162.6</ele>
        <time>2021-08-20T18:09:29Z</time>
      </trkpt>
      <trkpt lat="43.19471" lon="-1.33045">
        <ele>160.68</ele>
        <time>2021-08-20T18:09:30Z</time>
      </trkpt>
      <trkpt lat="43.19508" lon="-1.33085">
        <ele>157.31</ele>
        <time>2021-08-20T18:09:37Z</time>
      </trkpt>
      <trkpt lat="43.19536" lon="-1.33111">
        <ele>154.91</ele>
        <time>2021-08-20T18:09:41Z</time>
      </trkpt>
      <trkpt lat="43.19543" lon="-1.33117">
        <ele>153.95</ele>
        <time>2021-08-20T18:09:42Z</time>
      </trkpt>
      <trkpt lat="43.19551" lon="-1.33121">
        <ele>152.99</ele>
        <time>2021-08-20T18:09:43Z</time>
      </trkpt>
      <trkpt lat="43.1956" lon="-1.33124">
        <ele>152.99</ele>
        <time>2021-08-20T18:09:44Z</time>
      </trkpt>
      <trkpt lat="43.19569" lon="-1.33126">
        <ele>152.51</ele>
        <time>2021-08-20T18:09:45Z</time>
      </trkpt>
      <trkpt lat="43.19578" lon="-1.33129">
        <ele>151.54</ele>
        <time>2021-08-20T18:09:46Z</time>
      </trkpt>
      <trkpt lat="43.19587" lon="-1.33133">
        <ele>151.54</ele>
        <time>2021-08-20T18:09:47Z</time>
      </trkpt>
      <trkpt lat="43.19595" lon="-1.33139">
        <ele>151.54</ele>
        <time>2021-08-20T18:09:48Z</time>
      </trkpt>
      <trkpt lat="43.19635" lon="-1.33156">
        <ele>148.18</ele>
        <time>2021-08-20T18:09:53Z</time>
      </trkpt>
      <trkpt lat="43.19647" lon="-1.33163">
        <ele>147.22</ele>
        <time>2021-08-20T18:09:55Z</time>
      </trkpt>
      <trkpt lat="43.19651" lon="-1.33167">
        <ele>146.26</ele>
        <time>2021-08-20T18:09:56Z</time>
      </trkpt>
      <trkpt lat="43.19652" lon="-1.33174">
        <ele>145.78</ele>
        <time>2021-08-20T18:09:57Z</time>
      </trkpt>
      <trkpt lat="43.19651" lon="-1.33182">
        <ele>144.34</ele>
        <time>2021-08-20T18:09:58Z</time>
      </trkpt>
      <trkpt lat="43.19648" lon="-1.3319">
        <ele>143.37</ele>
        <time>2021-08-20T18:09:59Z</time>
      </trkpt>
      <trkpt lat="43.19645" lon="-1.33199">
        <ele>142.89</ele>
        <time>2021-08-20T18:10:00Z</time>
      </trkpt>
      <trkpt lat="43.19639" lon="-1.33227">
        <ele>141.93</ele>
        <time>2021-08-20T18:10:03Z</time>
      </trkpt>
      <trkpt lat="43.1964" lon="-1.33236">
        <ele>141.93</ele>
        <time>2021-08-20T18:10:04Z</time>
      </trkpt>
      <trkpt lat="43.19644" lon="-1.33242">
        <ele>141.93</ele>
        <time>2021-08-20T18:10:05Z</time>
      </trkpt>
      <trkpt lat="43.19658" lon="-1.33258">
        <ele>141.93</ele>
        <time>2021-08-20T18:10:08Z</time>
      </trkpt>
      <trkpt lat="43.19662" lon="-1.33265">
        <ele>141.93</ele>
        <time>2021-08-20T18:10:09Z</time>
      </trkpt>
      <trkpt lat="43.19663" lon="-1.33271">
        <ele>141.93</ele>
        <time>2021-08-20T18:10:10Z</time>
      </trkpt>
      <trkpt lat="43.19663" lon="-1.33277">
        <ele>141.93</ele>
        <time>2021-08-20T18:10:11Z</time>
      </trkpt>
      <trkpt lat="43.19662" lon="-1.33283">
        <ele>142.89</ele>
        <time>2021-08-20T18:10:12Z</time>
      </trkpt>
      <trkpt lat="43.19659" lon="-1.33286">
        <ele>142.89</ele>
        <time>2021-08-20T18:10:13Z</time>
      </trkpt>
      <trkpt lat="43.19655" lon="-1.33287">
        <ele>143.37</ele>
        <time>2021-08-20T18:10:14Z</time>
      </trkpt>
      <trkpt lat="43.19652" lon="-1.33288">
        <ele>143.37</ele>
        <time>2021-08-20T18:10:15Z</time>
      </trkpt>
      <trkpt lat="43.19632" lon="-1.33289">
        <ele>145.3</ele>
        <time>2021-08-20T18:10:21Z</time>
      </trkpt>
      <trkpt lat="43.1963" lon="-1.33292">
        <ele>145.3</ele>
        <time>2021-08-20T18:10:22Z</time>
      </trkpt>
      <trkpt lat="43.19628" lon="-1.33295">
        <ele>145.3</ele>
        <time>2021-08-20T18:10:23Z</time>
      </trkpt>
      <trkpt lat="43.19627" lon="-1.33299">
        <ele>145.3</ele>
        <time>2021-08-20T18:10:24Z</time>
      </trkpt>
      <trkpt lat="43.19626" lon="-1.33303">
        <ele>145.3</ele>
        <time>2021-08-20T18:10:25Z</time>
      </trkpt>
      <trkpt lat="43.19627" lon="-1.33307">
        <ele>145.3</ele>
        <time>2021-08-20T18:10:26Z</time>
      </trkpt>
      <trkpt lat="43.19628" lon="-1.33311">
        <ele>145.3</ele>
        <time>2021-08-20T18:10:27Z</time>
      </trkpt>
      <trkpt lat="43.19631" lon="-1.33314">
        <ele>145.3</ele>
        <time>2021-08-20T18:10:28Z</time>
      </trkpt>
      <trkpt lat="43.19633" lon="-1.33317">
        <ele>145.3</ele>
        <time>2021-08-20T18:10:29Z</time>
      </trkpt>
      <trkpt lat="43.19636" lon="-1.33318">
        <ele>145.78</ele>
        <time>2021-08-20T18:10:30Z</time>
      </trkpt>
      <trkpt lat="43.19639" lon="-1.33319">
        <ele>145.78</ele>
        <time>2021-08-20T18:10:31Z</time>
      </trkpt>
      <trkpt lat="43.19642" lon="-1.33319">
        <ele>146.74</ele>
        <time>2021-08-20T18:10:32Z</time>
      </trkpt>
      <trkpt lat="43.19644" lon="-1.33319">
        <ele>146.74</ele>
        <time>2021-08-20T18:10:33Z</time>
      </trkpt>
      <trkpt lat="43.19659" lon="-1.3332">
        <ele>148.66</ele>
        <time>2021-08-20T18:10:40Z</time>
      </trkpt>
      <trkpt lat="43.1967" lon="-1.33322">
        <ele>148.18</ele>
        <time>2021-08-20T18:10:44Z</time>
      </trkpt>
      <trkpt lat="43.19673" lon="-1.33321">
        <ele>148.66</ele>
        <time>2021-08-20T18:10:45Z</time>
      </trkpt>
      <trkpt lat="43.19677" lon="-1.3332">
        <ele>148.66</ele>
        <time>2021-08-20T18:10:46Z</time>
      </trkpt>
      <trkpt lat="43.19681" lon="-1.33319">
        <ele>148.66</ele>
        <time>2021-08-20T18:10:47Z</time>
      </trkpt>
      <trkpt lat="43.19686" lon="-1.33318">
        <ele>148.66</ele>
        <time>2021-08-20T18:10:48Z</time>
      </trkpt>
      <trkpt lat="43.1969" lon="-1.33319">
        <ele>148.66</ele>
        <time>2021-08-20T18:10:49Z</time>
      </trkpt>
      <trkpt lat="43.19695" lon="-1.3332">
        <ele>148.18</ele>
        <time>2021-08-20T18:10:50Z</time>
      </trkpt>
      <trkpt lat="43.19701" lon="-1.33322">
        <ele>146.26</ele>
        <time>2021-08-20T18:10:51Z</time>
      </trkpt>
      <trkpt lat="43.19706" lon="-1.33324">
        <ele>146.26</ele>
        <time>2021-08-20T18:10:52Z</time>
      </trkpt>
      <trkpt lat="43.19724" lon="-1.33333">
        <ele>144.82</ele>
        <time>2021-08-20T18:10:55Z</time>
      </trkpt>
      <trkpt lat="43.19778" lon="-1.33356">
        <ele>142.41</ele>
        <time>2021-08-20T18:11:03Z</time>
      </trkpt>
      <trkpt lat="43.19822" lon="-1.33374">
        <ele>141.93</ele>
        <time>2021-08-20T18:11:10Z</time>
      </trkpt>
      <trkpt lat="43.19856" lon="-1.33384">
        <ele>141.93</ele>
        <time>2021-08-20T18:11:17Z</time>
      </trkpt>
      <trkpt lat="43.19865" lon="-1.33386">
        <ele>143.37</ele>
        <time>2021-08-20T18:11:19Z</time>
      </trkpt>
      <trkpt lat="43.19869" lon="-1.33388">
        <ele>143.37</ele>
        <time>2021-08-20T18:11:20Z</time>
      </trkpt>
      <trkpt lat="43.19873" lon="-1.33388">
        <ele>143.37</ele>
        <time>2021-08-20T18:11:21Z</time>
      </trkpt>
      <trkpt lat="43.19877" lon="-1.33388">
        <ele>143.37</ele>
        <time>2021-08-20T18:11:22Z</time>
      </trkpt>
      <trkpt lat="43.19881" lon="-1.33388">
        <ele>143.37</ele>
        <time>2021-08-20T18:11:23Z</time>
      </trkpt>
      <trkpt lat="43.19896" lon="-1.33384">
        <ele>143.85</ele>
        <time>2021-08-20T18:11:27Z</time>
      </trkpt>
      <trkpt lat="43.19926" lon="-1.33371">
        <ele>142.41</ele>
        <time>2021-08-20T18:11:33Z</time>
      </trkpt>
      <trkpt lat="43.19931" lon="-1.33368">
        <ele>142.41</ele>
        <time>2021-08-20T18:11:34Z</time>
      </trkpt>
      <trkpt lat="43.19972" lon="-1.33348">
        <ele>141.45</ele>
        <time>2021-08-20T18:11:42Z</time>
      </trkpt>
      <trkpt lat="43.19981" lon="-1.33344">
        <ele>141.45</ele>
        <time>2021-08-20T18:11:44Z</time>
      </trkpt>
      <trkpt lat="43.19986" lon="-1.33344">
        <ele>141.45</ele>
        <time>2021-08-20T18:11:45Z</time>
      </trkpt>
      <trkpt lat="43.1999" lon="-1.33344">
        <ele>141.45</ele>
        <time>2021-08-20T18:11:46Z</time>
      </trkpt>
      <trkpt lat="43.20004" lon="-1.33349">
        <ele>141.45</ele>
        <time>2021-08-20T18:11:50Z</time>
      </trkpt>
      <trkpt lat="43.20023" lon="-1.33359">
        <ele>142.89</ele>
        <time>2021-08-20T18:11:57Z</time>
      </trkpt>
      <trkpt lat="43.20048" lon="-1.33374">
        <ele>143.37</ele>
        <time>2021-08-20T18:12:06Z</time>
      </trkpt>
      <trkpt lat="43.20069" lon="-1.33386">
        <ele>144.34</ele>
        <time>2021-08-20T18:12:14Z</time>
      </trkpt>
      <trkpt lat="43.20093" lon="-1.33395">
        <ele>144.82</ele>
        <time>2021-08-20T18:12:23Z</time>
      </trkpt>
      <trkpt lat="43.20123" lon="-1.33396">
        <ele>144.82</ele>
        <time>2021-08-20T18:12:31Z</time>
      </trkpt>
      <trkpt lat="43.20163" lon="-1.33393">
        <ele>144.82</ele>
        <time>2021-08-20T18:12:40Z</time>
      </trkpt>
      <trkpt lat="43.20186" lon="-1.33391">
        <ele>144.82</ele>
        <time>2021-08-20T18:12:46Z</time>
      </trkpt>
      <trkpt lat="43.20226" lon="-1.33376">
        <ele>144.82</ele>
        <time>2021-08-20T18:12:56Z</time>
      </trkpt>
      <trkpt lat="43.20253" lon="-1.33356">
        <ele>146.74</ele>
        <time>2021-08-20T18:13:05Z</time>
      </trkpt>
      <trkpt lat="43.20269" lon="-1.33345">
        <ele>148.18</ele>
        <time>2021-08-20T18:13:13Z</time>
      </trkpt>
      <trkpt lat="43.20277" lon="-1.33339">
        <ele>149.62</ele>
        <time>2021-08-20T18:13:18Z</time>
      </trkpt>
      <trkpt lat="43.20279" lon="-1.33338">
        <ele>149.62</ele>
        <time>2021-08-20T18:13:19Z</time>
      </trkpt>
      <trkpt lat="43.20289" lon="-1.33331">
        <ele>150.58</ele>
        <time>2021-08-20T18:13:26Z</time>
      </trkpt>
      <trkpt lat="43.2029" lon="-1.3333">
        <ele>150.58</ele>
        <time>2021-08-20T18:13:27Z</time>
      </trkpt>
      <trkpt lat="43.20292" lon="-1.33329">
        <ele>151.06</ele>
        <time>2021-08-20T18:13:28Z</time>
      </trkpt>
      <trkpt lat="43.20293" lon="-1.33328">
        <ele>151.06</ele>
        <time>2021-08-20T18:13:29Z</time>
      </trkpt>
      <trkpt lat="43.20294" lon="-1.33326">
        <ele>151.06</ele>
        <time>2021-08-20T18:13:30Z</time>
      </trkpt>
      <trkpt lat="43.20295" lon="-1.33325">
        <ele>152.03</ele>
        <time>2021-08-20T18:13:31Z</time>
      </trkpt>
      <trkpt lat="43.20296" lon="-1.33323">
        <ele>151.54</ele>
        <time>2021-08-20T18:13:32Z</time>
      </trkpt>
      <trkpt lat="43.20297" lon="-1.33322">
        <ele>151.54</ele>
        <time>2021-08-20T18:13:33Z</time>
      </trkpt>
      <trkpt lat="43.20298" lon="-1.33321">
        <ele>151.54</ele>
        <time>2021-08-20T18:13:34Z</time>
      </trkpt>
      <trkpt lat="43.20299" lon="-1.33319">
        <ele>152.03</ele>
        <time>2021-08-20T18:13:35Z</time>
      </trkpt>
      <trkpt lat="43.203" lon="-1.33317">
        <ele>152.03</ele>
        <time>2021-08-20T18:13:36Z</time>
      </trkpt>
      <trkpt lat="43.20301" lon="-1.33315">
        <ele>152.03</ele>
        <time>2021-08-20T18:13:37Z</time>
      </trkpt>
      <trkpt lat="43.20302" lon="-1.33314">
        <ele>152.99</ele>
        <time>2021-08-20T18:13:38Z</time>
      </trkpt>
      <trkpt lat="43.20303" lon="-1.33312">
        <ele>152.99</ele>
        <time>2021-08-20T18:13:39Z</time>
      </trkpt>
      <trkpt lat="43.20304" lon="-1.33311">
        <ele>152.99</ele>
        <time>2021-08-20T18:13:40Z</time>
      </trkpt>
      <trkpt lat="43.20305" lon="-1.33309">
        <ele>153.47</ele>
        <time>2021-08-20T18:13:41Z</time>
      </trkpt>
      <trkpt lat="43.20305" lon="-1.33307">
        <ele>153.47</ele>
        <time>2021-08-20T18:13:42Z</time>
      </trkpt>
      <trkpt lat="43.20306" lon="-1.33306">
        <ele>153.47</ele>
        <time>2021-08-20T18:13:43Z</time>
      </trkpt>
      <trkpt lat="43.20307" lon="-1.33304">
        <ele>153.95</ele>
        <time>2021-08-20T18:13:44Z</time>
      </trkpt>
      <trkpt lat="43.20311" lon="-1.33298">
        <ele>153.95</ele>
        <time>2021-08-20T18:13:48Z</time>
      </trkpt>
      <trkpt lat="43.20313" lon="-1.33293">
        <ele>154.43</ele>
        <time>2021-08-20T18:13:51Z</time>
      </trkpt>
      <trkpt lat="43.20313" lon="-1.33291">
        <ele>154.91</ele>
        <time>2021-08-20T18:13:52Z</time>
      </trkpt>
      <trkpt lat="43.20314" lon="-1.3329">
        <ele>154.91</ele>
        <time>2021-08-20T18:13:53Z</time>
      </trkpt>
      <trkpt lat="43.20315" lon="-1.33288">
        <ele>154.91</ele>
        <time>2021-08-20T18:13:54Z</time>
      </trkpt>
      <trkpt lat="43.20316" lon="-1.33286">
        <ele>154.91</ele>
        <time>2021-08-20T18:13:55Z</time>
      </trkpt>
      <trkpt lat="43.20317" lon="-1.33284">
        <ele>155.87</ele>
        <time>2021-08-20T18:13:56Z</time>
      </trkpt>
      <trkpt lat="43.20318" lon="-1.33283">
        <ele>155.39</ele>
        <time>2021-08-20T18:13:57Z</time>
      </trkpt>
      <trkpt lat="43.20319" lon="-1.33282">
        <ele>155.39</ele>
        <time>2021-08-20T18:13:58Z</time>
      </trkpt>
      <trkpt lat="43.20321" lon="-1.3328">
        <ele>155.87</ele>
        <time>2021-08-20T18:13:59Z</time>
      </trkpt>
      <trkpt lat="43.20322" lon="-1.33279">
        <ele>155.87</ele>
        <time>2021-08-20T18:14:00Z</time>
      </trkpt>
      <trkpt lat="43.20323" lon="-1.33277">
        <ele>156.35</ele>
        <time>2021-08-20T18:14:01Z</time>
      </trkpt>
      <trkpt lat="43.20323" lon="-1.33275">
        <ele>156.35</ele>
        <time>2021-08-20T18:14:02Z</time>
      </trkpt>
      <trkpt lat="43.20325" lon="-1.33274">
        <ele>156.35</ele>
        <time>2021-08-20T18:14:03Z</time>
      </trkpt>
      <trkpt lat="43.20326" lon="-1.33273">
        <ele>156.35</ele>
        <time>2021-08-20T18:14:04Z</time>
      </trkpt>
      <trkpt lat="43.20327" lon="-1.33271">
        <ele>156.83</ele>
        <time>2021-08-20T18:14:05Z</time>
      </trkpt>
      <trkpt lat="43.20334" lon="-1.33265">
        <ele>156.83</ele>
        <time>2021-08-20T18:14:10Z</time>
      </trkpt>
      <trkpt lat="43.20338" lon="-1.33263">
        <ele>157.79</ele>
        <time>2021-08-20T18:14:13Z</time>
      </trkpt>
      <trkpt lat="43.20339" lon="-1.33262">
        <ele>157.79</ele>
        <time>2021-08-20T18:14:14Z</time>
      </trkpt>
      <trkpt lat="43.2034" lon="-1.33261">
        <ele>157.79</ele>
        <time>2021-08-20T18:14:15Z</time>
      </trkpt>
      <trkpt lat="43.20342" lon="-1.3326">
        <ele>158.27</ele>
        <time>2021-08-20T18:14:16Z</time>
      </trkpt>
      <trkpt lat="43.20343" lon="-1.33259">
        <ele>158.27</ele>
        <time>2021-08-20T18:14:17Z</time>
      </trkpt>
      <trkpt lat="43.20345" lon="-1.33258">
        <ele>158.27</ele>
        <time>2021-08-20T18:14:18Z</time>
      </trkpt>
      <trkpt lat="43.20346" lon="-1.33258">
        <ele>158.27</ele>
        <time>2021-08-20T18:14:19Z</time>
      </trkpt>
      <trkpt lat="43.20348" lon="-1.33257">
        <ele>158.75</ele>
        <time>2021-08-20T18:14:20Z</time>
      </trkpt>
      <trkpt lat="43.20359" lon="-1.33255">
        <ele>159.72</ele>
        <time>2021-08-20T18:14:27Z</time>
      </trkpt>
      <trkpt lat="43.20373" lon="-1.33257">
        <ele>160.68</ele>
        <time>2021-08-20T18:14:36Z</time>
      </trkpt>
      <trkpt lat="43.20384" lon="-1.33265">
        <ele>161.64</ele>
        <time>2021-08-20T18:14:44Z</time>
      </trkpt>
      <trkpt lat="43.20392" lon="-1.33279">
        <ele>162.6</ele>
        <time>2021-08-20T18:14:52Z</time>
      </trkpt>
      <trkpt lat="43.20398" lon="-1.33299">
        <ele>163.56</ele>
        <time>2021-08-20T18:15:01Z</time>
      </trkpt>
      <trkpt lat="43.20401" lon="-1.33317">
        <ele>165</ele>
        <time>2021-08-20T18:15:09Z</time>
      </trkpt>
      <trkpt lat="43.20405" lon="-1.33334">
        <ele>165.96</ele>
        <time>2021-08-20T18:15:16Z</time>
      </trkpt>
      <trkpt lat="43.20411" lon="-1.33359">
        <ele>166.45</ele>
        <time>2021-08-20T18:15:26Z</time>
      </trkpt>
      <trkpt lat="43.20419" lon="-1.33388">
        <ele>166.45</ele>
        <time>2021-08-20T18:15:36Z</time>
      </trkpt>
      <trkpt lat="43.20425" lon="-1.33406">
        <ele>166.45</ele>
        <time>2021-08-20T18:15:43Z</time>
      </trkpt>
      <trkpt lat="43.20437" lon="-1.33432">
        <ele>166.45</ele>
        <time>2021-08-20T18:15:52Z</time>
      </trkpt>
      <trkpt lat="43.20454" lon="-1.33455">
        <ele>165</ele>
        <time>2021-08-20T18:16:00Z</time>
      </trkpt>
      <trkpt lat="43.20457" lon="-1.33458">
        <ele>165</ele>
        <time>2021-08-20T18:16:01Z</time>
      </trkpt>
      <trkpt lat="43.20485" lon="-1.33492">
        <ele>163.08</ele>
        <time>2021-08-20T18:16:09Z</time>
      </trkpt>
      <trkpt lat="43.2052" lon="-1.33536">
        <ele>161.64</ele>
        <time>2021-08-20T18:16:18Z</time>
      </trkpt>
      <trkpt lat="43.2055" lon="-1.33579">
        <ele>160.2</ele>
        <time>2021-08-20T18:16:26Z</time>
      </trkpt>
      <trkpt lat="43.2056" lon="-1.33599">
        <ele>158.75</ele>
        <time>2021-08-20T18:16:29Z</time>
      </trkpt>
      <trkpt lat="43.20562" lon="-1.33607">
        <ele>157.79</ele>
        <time>2021-08-20T18:16:30Z</time>
      </trkpt>
      <trkpt lat="43.20571" lon="-1.33645">
        <ele>154.43</ele>
        <time>2021-08-20T18:16:34Z</time>
      </trkpt>
      <trkpt lat="43.20575" lon="-1.33651">
        <ele>153.95</ele>
        <time>2021-08-20T18:16:35Z</time>
      </trkpt>
      <trkpt lat="43.20582" lon="-1.33657">
        <ele>152.51</ele>
        <time>2021-08-20T18:16:36Z</time>
      </trkpt>
      <trkpt lat="43.20588" lon="-1.33661">
        <ele>152.03</ele>
        <time>2021-08-20T18:16:37Z</time>
      </trkpt>
      <trkpt lat="43.20595" lon="-1.33665">
        <ele>151.54</ele>
        <time>2021-08-20T18:16:38Z</time>
      </trkpt>
      <trkpt lat="43.20602" lon="-1.33667">
        <ele>151.06</ele>
        <time>2021-08-20T18:16:39Z</time>
      </trkpt>
      <trkpt lat="43.20612" lon="-1.33667">
        <ele>151.06</ele>
        <time>2021-08-20T18:16:40Z</time>
      </trkpt>
      <trkpt lat="43.20619" lon="-1.33667">
        <ele>151.06</ele>
        <time>2021-08-20T18:16:41Z</time>
      </trkpt>
      <trkpt lat="43.20625" lon="-1.33666">
        <ele>151.06</ele>
        <time>2021-08-20T18:16:42Z</time>
      </trkpt>
      <trkpt lat="43.20632" lon="-1.33664">
        <ele>152.51</ele>
        <time>2021-08-20T18:16:43Z</time>
      </trkpt>
      <trkpt lat="43.20636" lon="-1.33661">
        <ele>152.99</ele>
        <time>2021-08-20T18:16:44Z</time>
      </trkpt>
      <trkpt lat="43.20639" lon="-1.33659">
        <ele>153.95</ele>
        <time>2021-08-20T18:16:45Z</time>
      </trkpt>
      <trkpt lat="43.20641" lon="-1.33656">
        <ele>154.43</ele>
        <time>2021-08-20T18:16:46Z</time>
      </trkpt>
      <trkpt lat="43.20643" lon="-1.33654">
        <ele>154.91</ele>
        <time>2021-08-20T18:16:47Z</time>
      </trkpt>
      <trkpt lat="43.20644" lon="-1.33652">
        <ele>154.91</ele>
        <time>2021-08-20T18:16:48Z</time>
      </trkpt>
      <trkpt lat="43.20653" lon="-1.33645">
        <ele>156.83</ele>
        <time>2021-08-20T18:16:54Z</time>
      </trkpt>
      <trkpt lat="43.20655" lon="-1.33645">
        <ele>157.31</ele>
        <time>2021-08-20T18:16:55Z</time>
      </trkpt>
      <trkpt lat="43.20665" lon="-1.33648">
        <ele>158.75</ele>
        <time>2021-08-20T18:17:02Z</time>
      </trkpt>
      <trkpt lat="43.20675" lon="-1.33664">
        <ele>159.72</ele>
        <time>2021-08-20T18:17:11Z</time>
      </trkpt>
      <trkpt lat="43.20686" lon="-1.33681">
        <ele>160.2</ele>
        <time>2021-08-20T18:17:19Z</time>
      </trkpt>
      <trkpt lat="43.20702" lon="-1.33706">
        <ele>160.68</ele>
        <time>2021-08-20T18:17:28Z</time>
      </trkpt>
      <trkpt lat="43.20717" lon="-1.33721">
        <ele>160.68</ele>
        <time>2021-08-20T18:17:35Z</time>
      </trkpt>
      <trkpt lat="43.20735" lon="-1.33731">
        <ele>161.16</ele>
        <time>2021-08-20T18:17:42Z</time>
      </trkpt>
      <trkpt lat="43.20761" lon="-1.33744">
        <ele>161.16</ele>
        <time>2021-08-20T18:17:49Z</time>
      </trkpt>
      <trkpt lat="43.20769" lon="-1.33754">
        <ele>161.16</ele>
        <time>2021-08-20T18:17:51Z</time>
      </trkpt>
      <trkpt lat="43.20771" lon="-1.33758">
        <ele>160.2</ele>
        <time>2021-08-20T18:17:52Z</time>
      </trkpt>
      <trkpt lat="43.20773" lon="-1.33764">
        <ele>160.2</ele>
        <time>2021-08-20T18:17:53Z</time>
      </trkpt>
      <trkpt lat="43.20774" lon="-1.3377">
        <ele>160.2</ele>
        <time>2021-08-20T18:17:54Z</time>
      </trkpt>
      <trkpt lat="43.20775" lon="-1.33777">
        <ele>160.2</ele>
        <time>2021-08-20T18:17:55Z</time>
      </trkpt>
      <trkpt lat="43.20775" lon="-1.33814">
        <ele>160.2</ele>
        <time>2021-08-20T18:18:02Z</time>
      </trkpt>
      <trkpt lat="43.20781" lon="-1.33854">
        <ele>161.16</ele>
        <time>2021-08-20T18:18:10Z</time>
      </trkpt>
      <trkpt lat="43.20799" lon="-1.3388">
        <ele>161.64</ele>
        <time>2021-08-20T18:18:17Z</time>
      </trkpt>
      <trkpt lat="43.2082" lon="-1.33903">
        <ele>162.6</ele>
        <time>2021-08-20T18:18:25Z</time>
      </trkpt>
      <trkpt lat="43.20835" lon="-1.33934">
        <ele>163.56</ele>
        <time>2021-08-20T18:18:34Z</time>
      </trkpt>
      <trkpt lat="43.20836" lon="-1.33965">
        <ele>164.04</ele>
        <time>2021-08-20T18:18:42Z</time>
      </trkpt>
      <trkpt lat="43.20844" lon="-1.33983">
        <ele>165</ele>
        <time>2021-08-20T18:18:48Z</time>
      </trkpt>
      <trkpt lat="43.20846" lon="-1.33985">
        <ele>165</ele>
        <time>2021-08-20T18:18:49Z</time>
      </trkpt>
      <trkpt lat="43.20848" lon="-1.33986">
        <ele>165.48</ele>
        <time>2021-08-20T18:18:50Z</time>
      </trkpt>
      <trkpt lat="43.20851" lon="-1.33987">
        <ele>165.48</ele>
        <time>2021-08-20T18:18:51Z</time>
      </trkpt>
      <trkpt lat="43.20853" lon="-1.33987">
        <ele>165.48</ele>
        <time>2021-08-20T18:18:52Z</time>
      </trkpt>
      <trkpt lat="43.20856" lon="-1.33987">
        <ele>165.48</ele>
        <time>2021-08-20T18:18:53Z</time>
      </trkpt>
      <trkpt lat="43.20858" lon="-1.33985">
        <ele>165.48</ele>
        <time>2021-08-20T18:18:54Z</time>
      </trkpt>
      <trkpt lat="43.20859" lon="-1.33983">
        <ele>165.48</ele>
        <time>2021-08-20T18:18:55Z</time>
      </trkpt>
      <trkpt lat="43.2086" lon="-1.33981">
        <ele>165.48</ele>
        <time>2021-08-20T18:18:56Z</time>
      </trkpt>
      <trkpt lat="43.20861" lon="-1.33978">
        <ele>165.96</ele>
        <time>2021-08-20T18:18:57Z</time>
      </trkpt>
      <trkpt lat="43.20867" lon="-1.33964">
        <ele>166.93</ele>
        <time>2021-08-20T18:19:03Z</time>
      </trkpt>
      <trkpt lat="43.20867" lon="-1.33962">
        <ele>166.93</ele>
        <time>2021-08-20T18:19:04Z</time>
      </trkpt>
      <trkpt lat="43.20868" lon="-1.3396">
        <ele>167.41</ele>
        <time>2021-08-20T18:19:05Z</time>
      </trkpt>
      <trkpt lat="43.20869" lon="-1.33958">
        <ele>167.41</ele>
        <time>2021-08-20T18:19:06Z</time>
      </trkpt>
      <trkpt lat="43.2087" lon="-1.33956">
        <ele>167.89</ele>
        <time>2021-08-20T18:19:07Z</time>
      </trkpt>
      <trkpt lat="43.2088" lon="-1.33942">
        <ele>168.85</ele>
        <time>2021-08-20T18:19:15Z</time>
      </trkpt>
      <trkpt lat="43.20889" lon="-1.33929">
        <ele>170.29</ele>
        <time>2021-08-20T18:19:23Z</time>
      </trkpt>
      <trkpt lat="43.20904" lon="-1.33905">
        <ele>172.21</ele>
        <time>2021-08-20T18:19:35Z</time>
      </trkpt>
      <trkpt lat="43.20905" lon="-1.33904">
        <ele>172.69</ele>
        <time>2021-08-20T18:19:36Z</time>
      </trkpt>
      <trkpt lat="43.20911" lon="-1.33883">
        <ele>173.66</ele>
        <time>2021-08-20T18:19:45Z</time>
      </trkpt>
      <trkpt lat="43.2091" lon="-1.33863">
        <ele>175.1</ele>
        <time>2021-08-20T18:19:53Z</time>
      </trkpt>
      <trkpt lat="43.20906" lon="-1.33837">
        <ele>176.54</ele>
        <time>2021-08-20T18:20:04Z</time>
      </trkpt>
      <trkpt lat="43.20913" lon="-1.33813">
        <ele>177.98</ele>
        <time>2021-08-20T18:20:14Z</time>
      </trkpt>
      <trkpt lat="43.20927" lon="-1.33811">
        <ele>177.98</ele>
        <time>2021-08-20T18:20:21Z</time>
      </trkpt>
      <trkpt lat="43.2094" lon="-1.33822">
        <ele>178.94</ele>
        <time>2021-08-20T18:20:29Z</time>
      </trkpt>
      <trkpt lat="43.20969" lon="-1.33828">
        <ele>179.9</ele>
        <time>2021-08-20T18:20:41Z</time>
      </trkpt>
      <trkpt lat="43.20988" lon="-1.33824">
        <ele>181.83</ele>
        <time>2021-08-20T18:20:50Z</time>
      </trkpt>
      <trkpt lat="43.21007" lon="-1.33814">
        <ele>183.75</ele>
        <time>2021-08-20T18:21:00Z</time>
      </trkpt>
      <trkpt lat="43.2102" lon="-1.33815">
        <ele>185.19</ele>
        <time>2021-08-20T18:21:09Z</time>
      </trkpt>
      <trkpt lat="43.21032" lon="-1.33818">
        <ele>187.11</ele>
        <time>2021-08-20T18:21:18Z</time>
      </trkpt>
      <trkpt lat="43.21038" lon="-1.33825">
        <ele>187.59</ele>
        <time>2021-08-20T18:21:23Z</time>
      </trkpt>
      <trkpt lat="43.21053" lon="-1.33833">
        <ele>188.08</ele>
        <time>2021-08-20T18:21:30Z</time>
      </trkpt>
      <trkpt lat="43.21055" lon="-1.33835">
        <ele>188.08</ele>
        <time>2021-08-20T18:21:31Z</time>
      </trkpt>
      <trkpt lat="43.21071" lon="-1.33862">
        <ele>188.56</ele>
        <time>2021-08-20T18:21:41Z</time>
      </trkpt>
      <trkpt lat="43.21086" lon="-1.33874">
        <ele>187.11</ele>
        <time>2021-08-20T18:21:46Z</time>
      </trkpt>
      <trkpt lat="43.2109" lon="-1.33876">
        <ele>186.63</ele>
        <time>2021-08-20T18:21:47Z</time>
      </trkpt>
      <trkpt lat="43.21095" lon="-1.33877">
        <ele>186.63</ele>
        <time>2021-08-20T18:21:48Z</time>
      </trkpt>
      <trkpt lat="43.211" lon="-1.33878">
        <ele>186.15</ele>
        <time>2021-08-20T18:21:49Z</time>
      </trkpt>
      <trkpt lat="43.21105" lon="-1.33878">
        <ele>185.67</ele>
        <time>2021-08-20T18:21:50Z</time>
      </trkpt>
      <trkpt lat="43.21111" lon="-1.33877">
        <ele>184.71</ele>
        <time>2021-08-20T18:21:51Z</time>
      </trkpt>
      <trkpt lat="43.21117" lon="-1.33876">
        <ele>184.23</ele>
        <time>2021-08-20T18:21:52Z</time>
      </trkpt>
      <trkpt lat="43.21123" lon="-1.33874">
        <ele>183.27</ele>
        <time>2021-08-20T18:21:53Z</time>
      </trkpt>
      <trkpt lat="43.21153" lon="-1.33866">
        <ele>180.87</ele>
        <time>2021-08-20T18:21:58Z</time>
      </trkpt>
      <trkpt lat="43.2116" lon="-1.33865">
        <ele>180.38</ele>
        <time>2021-08-20T18:21:59Z</time>
      </trkpt>
      <trkpt lat="43.21186" lon="-1.33867">
        <ele>177.98</ele>
        <time>2021-08-20T18:22:03Z</time>
      </trkpt>
      <trkpt lat="43.21193" lon="-1.33869">
        <ele>176.54</ele>
        <time>2021-08-20T18:22:04Z</time>
      </trkpt>
      <trkpt lat="43.21199" lon="-1.33872">
        <ele>176.06</ele>
        <time>2021-08-20T18:22:05Z</time>
      </trkpt>
      <trkpt lat="43.21204" lon="-1.33875">
        <ele>176.06</ele>
        <time>2021-08-20T18:22:06Z</time>
      </trkpt>
      <trkpt lat="43.21211" lon="-1.3388">
        <ele>175.58</ele>
        <time>2021-08-20T18:22:07Z</time>
      </trkpt>
      <trkpt lat="43.21218" lon="-1.33885">
        <ele>174.62</ele>
        <time>2021-08-20T18:22:08Z</time>
      </trkpt>
      <trkpt lat="43.21224" lon="-1.33891">
        <ele>174.62</ele>
        <time>2021-08-20T18:22:09Z</time>
      </trkpt>
      <trkpt lat="43.21264" lon="-1.33925">
        <ele>172.21</ele>
        <time>2021-08-20T18:22:16Z</time>
      </trkpt>
      <trkpt lat="43.2127" lon="-1.33926">
        <ele>172.21</ele>
        <time>2021-08-20T18:22:17Z</time>
      </trkpt>
      <trkpt lat="43.21276" lon="-1.33925">
        <ele>171.25</ele>
        <time>2021-08-20T18:22:18Z</time>
      </trkpt>
      <trkpt lat="43.21284" lon="-1.33922">
        <ele>170.29</ele>
        <time>2021-08-20T18:22:19Z</time>
      </trkpt>
      <trkpt lat="43.2129" lon="-1.33918">
        <ele>169.33</ele>
        <time>2021-08-20T18:22:20Z</time>
      </trkpt>
      <trkpt lat="43.21297" lon="-1.33915">
        <ele>168.85</ele>
        <time>2021-08-20T18:22:21Z</time>
      </trkpt>
      <trkpt lat="43.21313" lon="-1.33903">
        <ele>168.85</ele>
        <time>2021-08-20T18:22:24Z</time>
      </trkpt>
      <trkpt lat="43.21317" lon="-1.339">
        <ele>170.77</ele>
        <time>2021-08-20T18:22:25Z</time>
      </trkpt>
      <trkpt lat="43.21322" lon="-1.33899">
        <ele>171.25</ele>
        <time>2021-08-20T18:22:26Z</time>
      </trkpt>
      <trkpt lat="43.21335" lon="-1.33897">
        <ele>173.17</ele>
        <time>2021-08-20T18:22:31Z</time>
      </trkpt>
      <trkpt lat="43.21352" lon="-1.33906">
        <ele>176.06</ele>
        <time>2021-08-20T18:22:40Z</time>
      </trkpt>
      <trkpt lat="43.21366" lon="-1.33921">
        <ele>177.5</ele>
        <time>2021-08-20T18:22:48Z</time>
      </trkpt>
      <trkpt lat="43.21381" lon="-1.33939">
        <ele>177.5</ele>
        <time>2021-08-20T18:22:54Z</time>
      </trkpt>
      <trkpt lat="43.21398" lon="-1.33951">
        <ele>177.5</ele>
        <time>2021-08-20T18:23:01Z</time>
      </trkpt>
      <trkpt lat="43.21419" lon="-1.33956">
        <ele>177.5</ele>
        <time>2021-08-20T18:23:08Z</time>
      </trkpt>
      <trkpt lat="43.21443" lon="-1.33961">
        <ele>177.5</ele>
        <time>2021-08-20T18:23:16Z</time>
      </trkpt>
      <trkpt lat="43.21462" lon="-1.33974">
        <ele>177.98</ele>
        <time>2021-08-20T18:23:24Z</time>
      </trkpt>
      <trkpt lat="43.21479" lon="-1.33991">
        <ele>178.46</ele>
        <time>2021-08-20T18:23:31Z</time>
      </trkpt>
      <trkpt lat="43.21494" lon="-1.34008">
        <ele>178.94</ele>
        <time>2021-08-20T18:23:38Z</time>
      </trkpt>
      <trkpt lat="43.21501" lon="-1.34013">
        <ele>179.9</ele>
        <time>2021-08-20T18:23:43Z</time>
      </trkpt>
      <trkpt lat="43.21502" lon="-1.34014">
        <ele>180.38</ele>
        <time>2021-08-20T18:23:44Z</time>
      </trkpt>
      <trkpt lat="43.21503" lon="-1.34015">
        <ele>180.38</ele>
        <time>2021-08-20T18:23:45Z</time>
      </trkpt>
      <trkpt lat="43.21504" lon="-1.34016">
        <ele>180.87</ele>
        <time>2021-08-20T18:23:46Z</time>
      </trkpt>
      <trkpt lat="43.21505" lon="-1.34018">
        <ele>181.35</ele>
        <time>2021-08-20T18:23:47Z</time>
      </trkpt>
      <trkpt lat="43.21507" lon="-1.34019">
        <ele>181.35</ele>
        <time>2021-08-20T18:23:48Z</time>
      </trkpt>
      <trkpt lat="43.21517" lon="-1.34026">
        <ele>183.27</ele>
        <time>2021-08-20T18:23:55Z</time>
      </trkpt>
      <trkpt lat="43.21529" lon="-1.34031">
        <ele>184.71</ele>
        <time>2021-08-20T18:24:02Z</time>
      </trkpt>
      <trkpt lat="43.2154" lon="-1.34037">
        <ele>185.19</ele>
        <time>2021-08-20T18:24:08Z</time>
      </trkpt>
      <trkpt lat="43.21558" lon="-1.34047">
        <ele>185.67</ele>
        <time>2021-08-20T18:24:15Z</time>
      </trkpt>
      <trkpt lat="43.21579" lon="-1.34057">
        <ele>184.23</ele>
        <time>2021-08-20T18:24:20Z</time>
      </trkpt>
      <trkpt lat="43.21584" lon="-1.34059">
        <ele>184.23</ele>
        <time>2021-08-20T18:24:21Z</time>
      </trkpt>
      <trkpt lat="43.21609" lon="-1.34072">
        <ele>185.67</ele>
        <time>2021-08-20T18:24:28Z</time>
      </trkpt>
      <trkpt lat="43.21624" lon="-1.34083">
        <ele>186.15</ele>
        <time>2021-08-20T18:24:35Z</time>
      </trkpt>
      <trkpt lat="43.21644" lon="-1.34098">
        <ele>187.59</ele>
        <time>2021-08-20T18:24:44Z</time>
      </trkpt>
      <trkpt lat="43.21661" lon="-1.34114">
        <ele>189.04</ele>
        <time>2021-08-20T18:24:53Z</time>
      </trkpt>
      <trkpt lat="43.21681" lon="-1.34126">
        <ele>189.52</ele>
        <time>2021-08-20T18:25:00Z</time>
      </trkpt>
      <trkpt lat="43.21701" lon="-1.3413">
        <ele>190.48</ele>
        <time>2021-08-20T18:25:08Z</time>
      </trkpt>
      <trkpt lat="43.21722" lon="-1.34131">
        <ele>190.96</ele>
        <time>2021-08-20T18:25:16Z</time>
      </trkpt>
      <trkpt lat="43.21748" lon="-1.3414">
        <ele>191.44</ele>
        <time>2021-08-20T18:25:24Z</time>
      </trkpt>
      <trkpt lat="43.21759" lon="-1.34152">
        <ele>191.44</ele>
        <time>2021-08-20T18:25:28Z</time>
      </trkpt>
      <trkpt lat="43.21765" lon="-1.34162">
        <ele>190.48</ele>
        <time>2021-08-20T18:25:30Z</time>
      </trkpt>
      <trkpt lat="43.21789" lon="-1.34198">
        <ele>188.56</ele>
        <time>2021-08-20T18:25:36Z</time>
      </trkpt>
      <trkpt lat="43.21793" lon="-1.34202">
        <ele>188.56</ele>
        <time>2021-08-20T18:25:37Z</time>
      </trkpt>
      <trkpt lat="43.21797" lon="-1.34205">
        <ele>190</ele>
        <time>2021-08-20T18:25:38Z</time>
      </trkpt>
      <trkpt lat="43.21816" lon="-1.34212">
        <ele>190.96</ele>
        <time>2021-08-20T18:25:44Z</time>
      </trkpt>
      <trkpt lat="43.21844" lon="-1.34222">
        <ele>191.92</ele>
        <time>2021-08-20T18:25:53Z</time>
      </trkpt>
      <trkpt lat="43.21873" lon="-1.34239">
        <ele>193.36</ele>
        <time>2021-08-20T18:26:03Z</time>
      </trkpt>
      <trkpt lat="43.21902" lon="-1.34253">
        <ele>194.32</ele>
        <time>2021-08-20T18:26:13Z</time>
      </trkpt>
      <trkpt lat="43.21916" lon="-1.34259">
        <ele>195.28</ele>
        <time>2021-08-20T18:26:19Z</time>
      </trkpt>
      <trkpt lat="43.21927" lon="-1.34265">
        <ele>196.25</ele>
        <time>2021-08-20T18:26:25Z</time>
      </trkpt>
      <trkpt lat="43.21943" lon="-1.3428">
        <ele>197.69</ele>
        <time>2021-08-20T18:26:34Z</time>
      </trkpt>
      <trkpt lat="43.21944" lon="-1.34282">
        <ele>197.69</ele>
        <time>2021-08-20T18:26:35Z</time>
      </trkpt>
      <trkpt lat="43.21946" lon="-1.34283">
        <ele>197.69</ele>
        <time>2021-08-20T18:26:36Z</time>
      </trkpt>
      <trkpt lat="43.21948" lon="-1.34284">
        <ele>198.17</ele>
        <time>2021-08-20T18:26:37Z</time>
      </trkpt>
      <trkpt lat="43.2195" lon="-1.34285">
        <ele>198.17</ele>
        <time>2021-08-20T18:26:38Z</time>
      </trkpt>
      <trkpt lat="43.21952" lon="-1.34287">
        <ele>198.17</ele>
        <time>2021-08-20T18:26:39Z</time>
      </trkpt>
      <trkpt lat="43.21957" lon="-1.34291">
        <ele>198.65</ele>
        <time>2021-08-20T18:26:42Z</time>
      </trkpt>
      <trkpt lat="43.21959" lon="-1.34292">
        <ele>199.13</ele>
        <time>2021-08-20T18:26:43Z</time>
      </trkpt>
      <trkpt lat="43.2196" lon="-1.34293">
        <ele>199.13</ele>
        <time>2021-08-20T18:26:44Z</time>
      </trkpt>
      <trkpt lat="43.21972" lon="-1.34302">
        <ele>200.09</ele>
        <time>2021-08-20T18:26:53Z</time>
      </trkpt>
      <trkpt lat="43.21982" lon="-1.34311">
        <ele>201.53</ele>
        <time>2021-08-20T18:27:00Z</time>
      </trkpt>
      <trkpt lat="43.21992" lon="-1.34328">
        <ele>202.98</ele>
        <time>2021-08-20T18:27:09Z</time>
      </trkpt>
      <trkpt lat="43.22004" lon="-1.34343">
        <ele>203.94</ele>
        <time>2021-08-20T18:27:17Z</time>
      </trkpt>
      <trkpt lat="43.2202" lon="-1.34357">
        <ele>205.38</ele>
        <time>2021-08-20T18:27:27Z</time>
      </trkpt>
      <trkpt lat="43.22026" lon="-1.34362">
        <ele>205.38</ele>
        <time>2021-08-20T18:27:30Z</time>
      </trkpt>
      <trkpt lat="43.22028" lon="-1.34363">
        <ele>205.86</ele>
        <time>2021-08-20T18:27:31Z</time>
      </trkpt>
      <trkpt lat="43.2205" lon="-1.34379">
        <ele>206.34</ele>
        <time>2021-08-20T18:27:41Z</time>
      </trkpt>
      <trkpt lat="43.22079" lon="-1.34397">
        <ele>206.34</ele>
        <time>2021-08-20T18:27:52Z</time>
      </trkpt>
      <trkpt lat="43.22102" lon="-1.344">
        <ele>206.34</ele>
        <time>2021-08-20T18:27:58Z</time>
      </trkpt>
      <trkpt lat="43.22115" lon="-1.34401">
        <ele>207.3</ele>
        <time>2021-08-20T18:28:04Z</time>
      </trkpt>
      <trkpt lat="43.22122" lon="-1.34399">
        <ele>208.26</ele>
        <time>2021-08-20T18:28:10Z</time>
      </trkpt>
      <trkpt lat="43.2213" lon="-1.34397">
        <ele>209.7</ele>
        <time>2021-08-20T18:28:19Z</time>
      </trkpt>
      <trkpt lat="43.22134" lon="-1.34397">
        <ele>209.7</ele>
        <time>2021-08-20T18:28:24Z</time>
      </trkpt>
      <trkpt lat="43.22138" lon="-1.34397">
        <ele>210.67</ele>
        <time>2021-08-20T18:28:28Z</time>
      </trkpt>
      <trkpt lat="43.2214" lon="-1.34397">
        <ele>210.67</ele>
        <time>2021-08-20T18:28:29Z</time>
      </trkpt>
      <trkpt lat="43.22141" lon="-1.34397">
        <ele>211.15</ele>
        <time>2021-08-20T18:28:30Z</time>
      </trkpt>
      <trkpt lat="43.22152" lon="-1.34396">
        <ele>212.59</ele>
        <time>2021-08-20T18:28:40Z</time>
      </trkpt>
      <trkpt lat="43.22165" lon="-1.34396">
        <ele>214.03</ele>
        <time>2021-08-20T18:28:52Z</time>
      </trkpt>
      <trkpt lat="43.22178" lon="-1.34402">
        <ele>216.43</ele>
        <time>2021-08-20T18:29:04Z</time>
      </trkpt>
      <trkpt lat="43.22186" lon="-1.34406">
        <ele>216.91</ele>
        <time>2021-08-20T18:29:12Z</time>
      </trkpt>
      <trkpt lat="43.222" lon="-1.3441">
        <ele>217.88</ele>
        <time>2021-08-20T18:29:24Z</time>
      </trkpt>
      <trkpt lat="43.2221" lon="-1.34414">
        <ele>218.84</ele>
        <time>2021-08-20T18:29:34Z</time>
      </trkpt>
      <trkpt lat="43.22225" lon="-1.34416">
        <ele>220.76</ele>
        <time>2021-08-20T18:29:48Z</time>
      </trkpt>
      <trkpt lat="43.22239" lon="-1.34412">
        <ele>222.68</ele>
        <time>2021-08-20T18:30:02Z</time>
      </trkpt>
      <trkpt lat="43.22249" lon="-1.34411">
        <ele>224.12</ele>
        <time>2021-08-20T18:30:14Z</time>
      </trkpt>
      <trkpt lat="43.22259" lon="-1.34416">
        <ele>226.05</ele>
        <time>2021-08-20T18:30:26Z</time>
      </trkpt>
      <trkpt lat="43.22269" lon="-1.34419">
        <ele>227.97</ele>
        <time>2021-08-20T18:30:38Z</time>
      </trkpt>
      <trkpt lat="43.22281" lon="-1.34418">
        <ele>229.89</ele>
        <time>2021-08-20T18:30:51Z</time>
      </trkpt>
      <trkpt lat="43.22283" lon="-1.34417">
        <ele>229.89</ele>
        <time>2021-08-20T18:30:53Z</time>
      </trkpt>
      <trkpt lat="43.22299" lon="-1.34412">
        <ele>231.33</ele>
        <time>2021-08-20T18:31:07Z</time>
      </trkpt>
      <trkpt lat="43.22309" lon="-1.34409">
        <ele>232.78</ele>
        <time>2021-08-20T18:31:17Z</time>
      </trkpt>
      <trkpt lat="43.22311" lon="-1.34412">
        <ele>233.26</ele>
        <time>2021-08-20T18:31:20Z</time>
      </trkpt>
      <trkpt lat="43.22312" lon="-1.3441">
        <ele>233.26</ele>
        <time>2021-08-20T18:31:21Z</time>
      </trkpt>
      <trkpt lat="43.22314" lon="-1.34409">
        <ele>233.26</ele>
        <time>2021-08-20T18:31:22Z</time>
      </trkpt>
      <trkpt lat="43.22315" lon="-1.34407">
        <ele>233.26</ele>
        <time>2021-08-20T18:31:23Z</time>
      </trkpt>
      <trkpt lat="43.22316" lon="-1.34406">
        <ele>233.74</ele>
        <time>2021-08-20T18:31:24Z</time>
      </trkpt>
      <trkpt lat="43.22326" lon="-1.344">
        <ele>234.22</ele>
        <time>2021-08-20T18:31:32Z</time>
      </trkpt>
      <trkpt lat="43.22338" lon="-1.34395">
        <ele>236.14</ele>
        <time>2021-08-20T18:31:44Z</time>
      </trkpt>
      <trkpt lat="43.22347" lon="-1.34394">
        <ele>237.1</ele>
        <time>2021-08-20T18:31:53Z</time>
      </trkpt>
      <trkpt lat="43.22355" lon="-1.34392">
        <ele>238.54</ele>
        <time>2021-08-20T18:32:02Z</time>
      </trkpt>
      <trkpt lat="43.22369" lon="-1.34391">
        <ele>240.47</ele>
        <time>2021-08-20T18:32:14Z</time>
      </trkpt>
      <trkpt lat="43.2238" lon="-1.34387">
        <ele>241.91</ele>
        <time>2021-08-20T18:32:24Z</time>
      </trkpt>
      <trkpt lat="43.22394" lon="-1.34385">
        <ele>243.35</ele>
        <time>2021-08-20T18:32:36Z</time>
      </trkpt>
      <trkpt lat="43.22407" lon="-1.34388">
        <ele>244.31</ele>
        <time>2021-08-20T18:32:47Z</time>
      </trkpt>
      <trkpt lat="43.22418" lon="-1.34395">
        <ele>245.75</ele>
        <time>2021-08-20T18:32:58Z</time>
      </trkpt>
      <trkpt lat="43.22424" lon="-1.34398">
        <ele>246.23</ele>
        <time>2021-08-20T18:33:07Z</time>
      </trkpt>
      <trkpt lat="43.22426" lon="-1.344">
        <ele>246.72</ele>
        <time>2021-08-20T18:33:10Z</time>
      </trkpt>
      <trkpt lat="43.22427" lon="-1.34401">
        <ele>246.72</ele>
        <time>2021-08-20T18:33:11Z</time>
      </trkpt>
      <trkpt lat="43.22428" lon="-1.34403">
        <ele>246.72</ele>
        <time>2021-08-20T18:33:12Z</time>
      </trkpt>
      <trkpt lat="43.22429" lon="-1.34405">
        <ele>246.72</ele>
        <time>2021-08-20T18:33:13Z</time>
      </trkpt>
      <trkpt lat="43.22431" lon="-1.34409">
        <ele>246.72</ele>
        <time>2021-08-20T18:33:14Z</time>
      </trkpt>
      <trkpt lat="43.22432" lon="-1.34412">
        <ele>246.72</ele>
        <time>2021-08-20T18:33:15Z</time>
      </trkpt>
      <trkpt lat="43.22434" lon="-1.34415">
        <ele>246.72</ele>
        <time>2021-08-20T18:33:16Z</time>
      </trkpt>
      <trkpt lat="43.2245" lon="-1.34432">
        <ele>246.72</ele>
        <time>2021-08-20T18:33:23Z</time>
      </trkpt>
      <trkpt lat="43.22471" lon="-1.34451">
        <ele>246.72</ele>
        <time>2021-08-20T18:33:31Z</time>
      </trkpt>
      <trkpt lat="43.22496" lon="-1.34473">
        <ele>246.72</ele>
        <time>2021-08-20T18:33:40Z</time>
      </trkpt>
      <trkpt lat="43.2251" lon="-1.34486">
        <ele>247.68</ele>
        <time>2021-08-20T18:33:48Z</time>
      </trkpt>
      <trkpt lat="43.22528" lon="-1.34501">
        <ele>248.64</ele>
        <time>2021-08-20T18:33:57Z</time>
      </trkpt>
      <trkpt lat="43.22545" lon="-1.34519">
        <ele>249.12</ele>
        <time>2021-08-20T18:34:04Z</time>
      </trkpt>
      <trkpt lat="43.22563" lon="-1.34543">
        <ele>247.68</ele>
        <time>2021-08-20T18:34:10Z</time>
      </trkpt>
      <trkpt lat="43.22573" lon="-1.34557">
        <ele>246.72</ele>
        <time>2021-08-20T18:34:13Z</time>
      </trkpt>
      <trkpt lat="43.22577" lon="-1.34562">
        <ele>246.72</ele>
        <time>2021-08-20T18:34:14Z</time>
      </trkpt>
      <trkpt lat="43.22584" lon="-1.3457">
        <ele>246.72</ele>
        <time>2021-08-20T18:34:16Z</time>
      </trkpt>
      <trkpt lat="43.22587" lon="-1.34574">
        <ele>246.72</ele>
        <time>2021-08-20T18:34:17Z</time>
      </trkpt>
      <trkpt lat="43.22591" lon="-1.34576">
        <ele>246.72</ele>
        <time>2021-08-20T18:34:18Z</time>
      </trkpt>
      <trkpt lat="43.22594" lon="-1.34578">
        <ele>246.72</ele>
        <time>2021-08-20T18:34:19Z</time>
      </trkpt>
      <trkpt lat="43.22597" lon="-1.3458">
        <ele>247.2</ele>
        <time>2021-08-20T18:34:20Z</time>
      </trkpt>
      <trkpt lat="43.22601" lon="-1.34581">
        <ele>247.2</ele>
        <time>2021-08-20T18:34:21Z</time>
      </trkpt>
      <trkpt lat="43.22621" lon="-1.34595">
        <ele>248.64</ele>
        <time>2021-08-20T18:34:29Z</time>
      </trkpt>
      <trkpt lat="43.22623" lon="-1.34597">
        <ele>248.64</ele>
        <time>2021-08-20T18:34:30Z</time>
      </trkpt>
      <trkpt lat="43.22632" lon="-1.34613">
        <ele>250.08</ele>
        <time>2021-08-20T18:34:37Z</time>
      </trkpt>
      <trkpt lat="43.22636" lon="-1.34625">
        <ele>251.52</ele>
        <time>2021-08-20T18:34:44Z</time>
      </trkpt>
      <trkpt lat="43.22639" lon="-1.3463">
        <ele>252.48</ele>
        <time>2021-08-20T18:34:49Z</time>
      </trkpt>
      <trkpt lat="43.22644" lon="-1.34635">
        <ele>253.44</ele>
        <time>2021-08-20T18:34:57Z</time>
      </trkpt>
      <trkpt lat="43.2265" lon="-1.34639">
        <ele>254.41</ele>
        <time>2021-08-20T18:35:06Z</time>
      </trkpt>
      <trkpt lat="43.22656" lon="-1.34645">
        <ele>255.85</ele>
        <time>2021-08-20T18:35:16Z</time>
      </trkpt>
      <trkpt lat="43.22663" lon="-1.34651">
        <ele>257.29</ele>
        <time>2021-08-20T18:35:25Z</time>
      </trkpt>
      <trkpt lat="43.22669" lon="-1.34656">
        <ele>259.69</ele>
        <time>2021-08-20T18:35:35Z</time>
      </trkpt>
      <trkpt lat="43.22673" lon="-1.34662">
        <ele>260.17</ele>
        <time>2021-08-20T18:35:43Z</time>
      </trkpt>
      <trkpt lat="43.22678" lon="-1.34667">
        <ele>261.62</ele>
        <time>2021-08-20T18:35:51Z</time>
      </trkpt>
      <trkpt lat="43.22683" lon="-1.34673">
        <ele>262.58</ele>
        <time>2021-08-20T18:35:59Z</time>
      </trkpt>
      <trkpt lat="43.22689" lon="-1.34677">
        <ele>264.02</ele>
        <time>2021-08-20T18:36:07Z</time>
      </trkpt>
      <trkpt lat="43.22696" lon="-1.34684">
        <ele>264.98</ele>
        <time>2021-08-20T18:36:15Z</time>
      </trkpt>
      <trkpt lat="43.22699" lon="-1.34689">
        <ele>265.94</ele>
        <time>2021-08-20T18:36:21Z</time>
      </trkpt>
      <trkpt lat="43.22704" lon="-1.34695">
        <ele>267.38</ele>
        <time>2021-08-20T18:36:29Z</time>
      </trkpt>
      <trkpt lat="43.22709" lon="-1.34706">
        <ele>268.83</ele>
        <time>2021-08-20T18:36:39Z</time>
      </trkpt>
      <trkpt lat="43.22713" lon="-1.34718">
        <ele>270.75</ele>
        <time>2021-08-20T18:36:51Z</time>
      </trkpt>
      <trkpt lat="43.22719" lon="-1.34727">
        <ele>271.71</ele>
        <time>2021-08-20T18:36:59Z</time>
      </trkpt>
      <trkpt lat="43.22724" lon="-1.34731">
        <ele>272.19</ele>
        <time>2021-08-20T18:37:04Z</time>
      </trkpt>
      <trkpt lat="43.22725" lon="-1.34733">
        <ele>272.19</ele>
        <time>2021-08-20T18:37:05Z</time>
      </trkpt>
      <trkpt lat="43.22725" lon="-1.34734">
        <ele>272.67</ele>
        <time>2021-08-20T18:37:06Z</time>
      </trkpt>
      <trkpt lat="43.22729" lon="-1.34738">
        <ele>273.15</ele>
        <time>2021-08-20T18:37:13Z</time>
      </trkpt>
      <trkpt lat="43.22738" lon="-1.34747">
        <ele>274.11</ele>
        <time>2021-08-20T18:37:21Z</time>
      </trkpt>
      <trkpt lat="43.22748" lon="-1.34756">
        <ele>274.11</ele>
        <time>2021-08-20T18:37:28Z</time>
      </trkpt>
      <trkpt lat="43.2276" lon="-1.34767">
        <ele>275.56</ele>
        <time>2021-08-20T18:37:36Z</time>
      </trkpt>
      <trkpt lat="43.22761" lon="-1.34768">
        <ele>275.56</ele>
        <time>2021-08-20T18:37:37Z</time>
      </trkpt>
      <trkpt lat="43.22762" lon="-1.3477">
        <ele>275.56</ele>
        <time>2021-08-20T18:37:38Z</time>
      </trkpt>
      <trkpt lat="43.22764" lon="-1.34771">
        <ele>275.56</ele>
        <time>2021-08-20T18:37:39Z</time>
      </trkpt>
      <trkpt lat="43.22766" lon="-1.34773">
        <ele>276.04</ele>
        <time>2021-08-20T18:37:40Z</time>
      </trkpt>
      <trkpt lat="43.22767" lon="-1.34775">
        <ele>276.04</ele>
        <time>2021-08-20T18:37:41Z</time>
      </trkpt>
      <trkpt lat="43.22768" lon="-1.34777">
        <ele>276.04</ele>
        <time>2021-08-20T18:37:42Z</time>
      </trkpt>
      <trkpt lat="43.22769" lon="-1.34778">
        <ele>276.04</ele>
        <time>2021-08-20T18:37:43Z</time>
      </trkpt>
      <trkpt lat="43.2277" lon="-1.3478">
        <ele>276.52</ele>
        <time>2021-08-20T18:37:44Z</time>
      </trkpt>
      <trkpt lat="43.22772" lon="-1.34782">
        <ele>276.52</ele>
        <time>2021-08-20T18:37:45Z</time>
      </trkpt>
      <trkpt lat="43.22773" lon="-1.34784">
        <ele>276.52</ele>
        <time>2021-08-20T18:37:46Z</time>
      </trkpt>
      <trkpt lat="43.22775" lon="-1.34786">
        <ele>276.52</ele>
        <time>2021-08-20T18:37:47Z</time>
      </trkpt>
      <trkpt lat="43.22788" lon="-1.34801">
        <ele>277.96</ele>
        <time>2021-08-20T18:37:56Z</time>
      </trkpt>
      <trkpt lat="43.228" lon="-1.3481">
        <ele>278.44</ele>
        <time>2021-08-20T18:38:03Z</time>
      </trkpt>
      <trkpt lat="43.22822" lon="-1.34823">
        <ele>278.44</ele>
        <time>2021-08-20T18:38:12Z</time>
      </trkpt>
      <trkpt lat="43.22847" lon="-1.34834">
        <ele>277</ele>
        <time>2021-08-20T18:38:20Z</time>
      </trkpt>
      <trkpt lat="43.22859" lon="-1.34834">
        <ele>276.04</ele>
        <time>2021-08-20T18:38:23Z</time>
      </trkpt>
      <trkpt lat="43.22864" lon="-1.34835">
        <ele>275.56</ele>
        <time>2021-08-20T18:38:24Z</time>
      </trkpt>
      <trkpt lat="43.22868" lon="-1.34837">
        <ele>275.56</ele>
        <time>2021-08-20T18:38:25Z</time>
      </trkpt>
      <trkpt lat="43.22872" lon="-1.34843">
        <ele>275.56</ele>
        <time>2021-08-20T18:38:26Z</time>
      </trkpt>
      <trkpt lat="43.22874" lon="-1.34847">
        <ele>275.07</ele>
        <time>2021-08-20T18:38:27Z</time>
      </trkpt>
      <trkpt lat="43.22875" lon="-1.34852">
        <ele>275.07</ele>
        <time>2021-08-20T18:38:28Z</time>
      </trkpt>
      <trkpt lat="43.22876" lon="-1.34857">
        <ele>275.07</ele>
        <time>2021-08-20T18:38:29Z</time>
      </trkpt>
      <trkpt lat="43.22876" lon="-1.34869">
        <ele>276.52</ele>
        <time>2021-08-20T18:38:32Z</time>
      </trkpt>
      <trkpt lat="43.22875" lon="-1.34889">
        <ele>277.96</ele>
        <time>2021-08-20T18:38:40Z</time>
      </trkpt>
      <trkpt lat="43.22874" lon="-1.34905">
        <ele>278.92</ele>
        <time>2021-08-20T18:38:47Z</time>
      </trkpt>
      <trkpt lat="43.22874" lon="-1.34914">
        <ele>279.88</ele>
        <time>2021-08-20T18:38:52Z</time>
      </trkpt>
      <trkpt lat="43.22874" lon="-1.34917">
        <ele>279.88</ele>
        <time>2021-08-20T18:38:53Z</time>
      </trkpt>
      <trkpt lat="43.22874" lon="-1.34919">
        <ele>280.36</ele>
        <time>2021-08-20T18:38:54Z</time>
      </trkpt>
      <trkpt lat="43.22875" lon="-1.34921">
        <ele>280.36</ele>
        <time>2021-08-20T18:38:55Z</time>
      </trkpt>
      <trkpt lat="43.22875" lon="-1.34922">
        <ele>280.36</ele>
        <time>2021-08-20T18:38:56Z</time>
      </trkpt>
      <trkpt lat="43.22877" lon="-1.34936">
        <ele>281.32</ele>
        <time>2021-08-20T18:39:04Z</time>
      </trkpt>
      <trkpt lat="43.22878" lon="-1.34947">
        <ele>282.28</ele>
        <time>2021-08-20T18:39:11Z</time>
      </trkpt>
      <trkpt lat="43.2288" lon="-1.34954">
        <ele>282.77</ele>
        <time>2021-08-20T18:39:19Z</time>
      </trkpt>
      <trkpt lat="43.22882" lon="-1.34967">
        <ele>283.73</ele>
        <time>2021-08-20T18:39:29Z</time>
      </trkpt>
      <trkpt lat="43.22882" lon="-1.34978">
        <ele>284.69</ele>
        <time>2021-08-20T18:39:38Z</time>
      </trkpt>
      <trkpt lat="43.22886" lon="-1.34992">
        <ele>286.13</ele>
        <time>2021-08-20T18:39:47Z</time>
      </trkpt>
      <trkpt lat="43.22888" lon="-1.35002">
        <ele>286.61</ele>
        <time>2021-08-20T18:39:55Z</time>
      </trkpt>
      <trkpt lat="43.22888" lon="-1.35011">
        <ele>287.57</ele>
        <time>2021-08-20T18:40:03Z</time>
      </trkpt>
      <trkpt lat="43.22887" lon="-1.35023">
        <ele>289.01</ele>
        <time>2021-08-20T18:40:12Z</time>
      </trkpt>
      <trkpt lat="43.22887" lon="-1.35033">
        <ele>289.97</ele>
        <time>2021-08-20T18:40:20Z</time>
      </trkpt>
      <trkpt lat="43.2289" lon="-1.35044">
        <ele>291.42</ele>
        <time>2021-08-20T18:40:28Z</time>
      </trkpt>
      <trkpt lat="43.22893" lon="-1.35054">
        <ele>292.38</ele>
        <time>2021-08-20T18:40:37Z</time>
      </trkpt>
      <trkpt lat="43.22894" lon="-1.35063">
        <ele>293.34</ele>
        <time>2021-08-20T18:40:45Z</time>
      </trkpt>
      <trkpt lat="43.22896" lon="-1.35072">
        <ele>294.3</ele>
        <time>2021-08-20T18:40:53Z</time>
      </trkpt>
      <trkpt lat="43.22898" lon="-1.35082">
        <ele>295.26</ele>
        <time>2021-08-20T18:41:01Z</time>
      </trkpt>
      <trkpt lat="43.22903" lon="-1.35097">
        <ele>296.22</ele>
        <time>2021-08-20T18:41:11Z</time>
      </trkpt>
      <trkpt lat="43.22905" lon="-1.35108">
        <ele>297.67</ele>
        <time>2021-08-20T18:41:20Z</time>
      </trkpt>
      <trkpt lat="43.22905" lon="-1.35112">
        <ele>298.15</ele>
        <time>2021-08-20T18:41:28Z</time>
      </trkpt>
      <trkpt lat="43.22903" lon="-1.35116">
        <ele>298.15</ele>
        <time>2021-08-20T18:41:50Z</time>
      </trkpt>
      <trkpt lat="43.22907" lon="-1.35123">
        <ele>299.59</ele>
        <time>2021-08-20T18:41:58Z</time>
      </trkpt>
      <trkpt lat="43.22911" lon="-1.35134">
        <ele>301.03</ele>
        <time>2021-08-20T18:42:08Z</time>
      </trkpt>
      <trkpt lat="43.22915" lon="-1.35144">
        <ele>302.47</ele>
        <time>2021-08-20T18:42:18Z</time>
      </trkpt>
      <trkpt lat="43.22916" lon="-1.35152">
        <ele>303.43</ele>
        <time>2021-08-20T18:42:25Z</time>
      </trkpt>
      <trkpt lat="43.22919" lon="-1.35164">
        <ele>304.39</ele>
        <time>2021-08-20T18:42:34Z</time>
      </trkpt>
      <trkpt lat="43.22926" lon="-1.35179">
        <ele>305.84</ele>
        <time>2021-08-20T18:42:46Z</time>
      </trkpt>
      <trkpt lat="43.22933" lon="-1.35186">
        <ele>306.8</ele>
        <time>2021-08-20T18:42:54Z</time>
      </trkpt>
      <trkpt lat="43.22939" lon="-1.35191">
        <ele>306.8</ele>
        <time>2021-08-20T18:43:01Z</time>
      </trkpt>
      <trkpt lat="43.22947" lon="-1.35198">
        <ele>307.28</ele>
        <time>2021-08-20T18:43:07Z</time>
      </trkpt>
      <trkpt lat="43.22957" lon="-1.3521">
        <ele>308.72</ele>
        <time>2021-08-20T18:43:16Z</time>
      </trkpt>
      <trkpt lat="43.22965" lon="-1.35223">
        <ele>310.16</ele>
        <time>2021-08-20T18:43:26Z</time>
      </trkpt>
      <trkpt lat="43.22972" lon="-1.35233">
        <ele>311.12</ele>
        <time>2021-08-20T18:43:35Z</time>
      </trkpt>
      <trkpt lat="43.22977" lon="-1.35241">
        <ele>312.09</ele>
        <time>2021-08-20T18:43:43Z</time>
      </trkpt>
      <trkpt lat="43.22981" lon="-1.35256">
        <ele>314.01</ele>
        <time>2021-08-20T18:43:55Z</time>
      </trkpt>
      <trkpt lat="43.22984" lon="-1.35268">
        <ele>315.45</ele>
        <time>2021-08-20T18:44:05Z</time>
      </trkpt>
      <trkpt lat="43.2299" lon="-1.35279">
        <ele>316.89</ele>
        <time>2021-08-20T18:44:14Z</time>
      </trkpt>
      <trkpt lat="43.22993" lon="-1.35284">
        <ele>316.89</ele>
        <time>2021-08-20T18:44:18Z</time>
      </trkpt>
      <trkpt lat="43.22994" lon="-1.35285">
        <ele>316.89</ele>
        <time>2021-08-20T18:44:19Z</time>
      </trkpt>
      <trkpt lat="43.23004" lon="-1.35297">
        <ele>317.85</ele>
        <time>2021-08-20T18:44:30Z</time>
      </trkpt>
      <trkpt lat="43.23013" lon="-1.35306">
        <ele>318.81</ele>
        <time>2021-08-20T18:44:40Z</time>
      </trkpt>
      <trkpt lat="43.23023" lon="-1.35313">
        <ele>320.74</ele>
        <time>2021-08-20T18:44:51Z</time>
      </trkpt>
      <trkpt lat="43.23033" lon="-1.35318">
        <ele>321.7</ele>
        <time>2021-08-20T18:45:01Z</time>
      </trkpt>
      <trkpt lat="43.23043" lon="-1.35326">
        <ele>322.66</ele>
        <time>2021-08-20T18:45:11Z</time>
      </trkpt>
      <trkpt lat="43.23051" lon="-1.35331">
        <ele>324.1</ele>
        <time>2021-08-20T18:45:19Z</time>
      </trkpt>
      <trkpt lat="43.23061" lon="-1.35338">
        <ele>325.06</ele>
        <time>2021-08-20T18:45:30Z</time>
      </trkpt>
      <trkpt lat="43.23071" lon="-1.35347">
        <ele>326.5</ele>
        <time>2021-08-20T18:45:42Z</time>
      </trkpt>
      <trkpt lat="43.23079" lon="-1.35354">
        <ele>328.43</ele>
        <time>2021-08-20T18:45:52Z</time>
      </trkpt>
      <trkpt lat="43.23088" lon="-1.35363">
        <ele>329.87</ele>
        <time>2021-08-20T18:46:02Z</time>
      </trkpt>
      <trkpt lat="43.23092" lon="-1.35367">
        <ele>329.87</ele>
        <time>2021-08-20T18:46:10Z</time>
      </trkpt>
      <trkpt lat="43.23101" lon="-1.35371">
        <ele>330.83</ele>
        <time>2021-08-20T18:46:16Z</time>
      </trkpt>
      <trkpt lat="43.23113" lon="-1.35375">
        <ele>331.31</ele>
        <time>2021-08-20T18:46:22Z</time>
      </trkpt>
      <trkpt lat="43.2313" lon="-1.35378">
        <ele>332.27</ele>
        <time>2021-08-20T18:46:31Z</time>
      </trkpt>
      <trkpt lat="43.23145" lon="-1.35381">
        <ele>333.23</ele>
        <time>2021-08-20T18:46:39Z</time>
      </trkpt>
      <trkpt lat="43.23163" lon="-1.35385">
        <ele>334.2</ele>
        <time>2021-08-20T18:46:48Z</time>
      </trkpt>
      <trkpt lat="43.23179" lon="-1.35393">
        <ele>335.64</ele>
        <time>2021-08-20T18:46:57Z</time>
      </trkpt>
      <trkpt lat="43.23197" lon="-1.35401">
        <ele>336.12</ele>
        <time>2021-08-20T18:47:06Z</time>
      </trkpt>
      <trkpt lat="43.23216" lon="-1.35407">
        <ele>336.12</ele>
        <time>2021-08-20T18:47:13Z</time>
      </trkpt>
      <trkpt lat="43.23232" lon="-1.35417">
        <ele>334.2</ele>
        <time>2021-08-20T18:47:18Z</time>
      </trkpt>
      <trkpt lat="43.23236" lon="-1.35421">
        <ele>333.71</ele>
        <time>2021-08-20T18:47:19Z</time>
      </trkpt>
      <trkpt lat="43.2324" lon="-1.35426">
        <ele>333.23</ele>
        <time>2021-08-20T18:47:20Z</time>
      </trkpt>
      <trkpt lat="43.23244" lon="-1.35432">
        <ele>332.75</ele>
        <time>2021-08-20T18:47:21Z</time>
      </trkpt>
      <trkpt lat="43.23248" lon="-1.35439">
        <ele>332.75</ele>
        <time>2021-08-20T18:47:22Z</time>
      </trkpt>
      <trkpt lat="43.2325" lon="-1.35445">
        <ele>332.75</ele>
        <time>2021-08-20T18:47:23Z</time>
      </trkpt>
      <trkpt lat="43.23253" lon="-1.3545">
        <ele>332.75</ele>
        <time>2021-08-20T18:47:24Z</time>
      </trkpt>
      <trkpt lat="43.23256" lon="-1.35454">
        <ele>332.75</ele>
        <time>2021-08-20T18:47:25Z</time>
      </trkpt>
      <trkpt lat="43.23259" lon="-1.35457">
        <ele>334.2</ele>
        <time>2021-08-20T18:47:26Z</time>
      </trkpt>
      <trkpt lat="43.2326" lon="-1.35458">
        <ele>334.68</ele>
        <time>2021-08-20T18:47:27Z</time>
      </trkpt>
      <trkpt lat="43.23262" lon="-1.3546">
        <ele>334.68</ele>
        <time>2021-08-20T18:47:28Z</time>
      </trkpt>
      <trkpt lat="43.23264" lon="-1.35462">
        <ele>335.16</ele>
        <time>2021-08-20T18:47:29Z</time>
      </trkpt>
      <trkpt lat="43.23279" lon="-1.35477">
        <ele>337.08</ele>
        <time>2021-08-20T18:47:38Z</time>
      </trkpt>
      <trkpt lat="43.23291" lon="-1.35488">
        <ele>339</ele>
        <time>2021-08-20T18:47:45Z</time>
      </trkpt>
      <trkpt lat="43.23305" lon="-1.35499">
        <ele>340.44</ele>
        <time>2021-08-20T18:47:53Z</time>
      </trkpt>
      <trkpt lat="43.23318" lon="-1.35512">
        <ele>341.41</ele>
        <time>2021-08-20T18:48:01Z</time>
      </trkpt>
      <trkpt lat="43.23331" lon="-1.35524">
        <ele>342.85</ele>
        <time>2021-08-20T18:48:09Z</time>
      </trkpt>
      <trkpt lat="43.23336" lon="-1.35528">
        <ele>342.85</ele>
        <time>2021-08-20T18:48:15Z</time>
      </trkpt>
      <trkpt lat="43.23335" lon="-1.35528">
        <ele>342.85</ele>
        <time>2021-08-20T18:48:25Z</time>
      </trkpt>
      <trkpt lat="43.23336" lon="-1.35528">
        <ele>342.85</ele>
        <time>2021-08-20T18:48:41Z</time>
      </trkpt>
      <trkpt lat="43.23335" lon="-1.35528">
        <ele>343.33</ele>
        <time>2021-08-20T18:48:58Z</time>
      </trkpt>
      <trkpt lat="43.23335" lon="-1.35529">
        <ele>343.33</ele>
        <time>2021-08-20T18:49:08Z</time>
      </trkpt>
      <trkpt lat="43.23336" lon="-1.35528">
        <ele>343.33</ele>
        <time>2021-08-20T18:49:16Z</time>
      </trkpt>
      <trkpt lat="43.23336" lon="-1.35529">
        <ele>343.33</ele>
        <time>2021-08-20T18:49:33Z</time>
      </trkpt>
      <trkpt lat="43.23337" lon="-1.35528">
        <ele>343.33</ele>
        <time>2021-08-20T18:49:50Z</time>
      </trkpt>
      <trkpt lat="43.23337" lon="-1.35527">
        <ele>343.33</ele>
        <time>2021-08-20T18:50:06Z</time>
      </trkpt>
      <trkpt lat="43.23337" lon="-1.35527">
        <ele>343.33</ele>
        <time>2021-08-20T18:50:26Z</time>
      </trkpt>
      <trkpt lat="43.23336" lon="-1.35527">
        <ele>343.33</ele>
        <time>2021-08-20T18:50:43Z</time>
      </trkpt>
      <trkpt lat="43.23337" lon="-1.35528">
        <ele>343.33</ele>
        <time>2021-08-20T18:51:05Z</time>
      </trkpt>
      <trkpt lat="43.23337" lon="-1.35528">
        <ele>343.33</ele>
        <time>2021-08-20T18:51:15Z</time>
      </trkpt>
      <trkpt lat="43.23337" lon="-1.35529">
        <ele>343.33</ele>
        <time>2021-08-20T18:51:16Z</time>
      </trkpt>
      <trkpt lat="43.23338" lon="-1.35531">
        <ele>343.33</ele>
        <time>2021-08-20T18:51:21Z</time>
      </trkpt>
      <trkpt lat="43.23339" lon="-1.35532">
        <ele>343.33</ele>
        <time>2021-08-20T18:51:22Z</time>
      </trkpt>
      <trkpt lat="43.23343" lon="-1.35534">
        <ele>343.33</ele>
        <time>2021-08-20T18:51:28Z</time>
      </trkpt>
      <trkpt lat="43.23354" lon="-1.35541">
        <ele>343.33</ele>
        <time>2021-08-20T18:51:33Z</time>
      </trkpt>
      <trkpt lat="43.23364" lon="-1.3555">
        <ele>343.33</ele>
        <time>2021-08-20T18:51:37Z</time>
      </trkpt>
      <trkpt lat="43.23376" lon="-1.35562">
        <ele>340.44</ele>
        <time>2021-08-20T18:51:40Z</time>
      </trkpt>
      <trkpt lat="43.2338" lon="-1.35566">
        <ele>340.44</ele>
        <time>2021-08-20T18:51:41Z</time>
      </trkpt>
      <trkpt lat="43.23384" lon="-1.35571">
        <ele>339.48</ele>
        <time>2021-08-20T18:51:42Z</time>
      </trkpt>
      <trkpt lat="43.23388" lon="-1.35576">
        <ele>338.52</ele>
        <time>2021-08-20T18:51:43Z</time>
      </trkpt>
      <trkpt lat="43.23392" lon="-1.35583">
        <ele>338.52</ele>
        <time>2021-08-20T18:51:44Z</time>
      </trkpt>
      <trkpt lat="43.23394" lon="-1.3559">
        <ele>337.56</ele>
        <time>2021-08-20T18:51:45Z</time>
      </trkpt>
      <trkpt lat="43.23401" lon="-1.35605">
        <ele>336.6</ele>
        <time>2021-08-20T18:51:47Z</time>
      </trkpt>
      <trkpt lat="43.23405" lon="-1.35611">
        <ele>336.12</ele>
        <time>2021-08-20T18:51:48Z</time>
      </trkpt>
      <trkpt lat="43.2341" lon="-1.35616">
        <ele>336.12</ele>
        <time>2021-08-20T18:51:49Z</time>
      </trkpt>
      <trkpt lat="43.23441" lon="-1.35635">
        <ele>332.75</ele>
        <time>2021-08-20T18:51:54Z</time>
      </trkpt>
      <trkpt lat="43.23478" lon="-1.35652">
        <ele>327.95</ele>
        <time>2021-08-20T18:51:59Z</time>
      </trkpt>
      <trkpt lat="43.23505" lon="-1.35664">
        <ele>326.02</ele>
        <time>2021-08-20T18:52:02Z</time>
      </trkpt>
      <trkpt lat="43.23514" lon="-1.35666">
        <ele>325.54</ele>
        <time>2021-08-20T18:52:03Z</time>
      </trkpt>
      <trkpt lat="43.23523" lon="-1.35666">
        <ele>325.06</ele>
        <time>2021-08-20T18:52:04Z</time>
      </trkpt>
      <trkpt lat="43.2354" lon="-1.35667">
        <ele>323.62</ele>
        <time>2021-08-20T18:52:06Z</time>
      </trkpt>
      <trkpt lat="43.23549" lon="-1.3567">
        <ele>322.66</ele>
        <time>2021-08-20T18:52:07Z</time>
      </trkpt>
      <trkpt lat="43.23595" lon="-1.35688">
        <ele>319.78</ele>
        <time>2021-08-20T18:52:12Z</time>
      </trkpt>
      <trkpt lat="43.23627" lon="-1.35693">
        <ele>315.93</ele>
        <time>2021-08-20T18:52:15Z</time>
      </trkpt>
      <trkpt lat="43.23638" lon="-1.35693">
        <ele>314.49</ele>
        <time>2021-08-20T18:52:16Z</time>
      </trkpt>
      <trkpt lat="43.23649" lon="-1.35692">
        <ele>313.05</ele>
        <time>2021-08-20T18:52:17Z</time>
      </trkpt>
      <trkpt lat="43.2366" lon="-1.3569">
        <ele>312.09</ele>
        <time>2021-08-20T18:52:18Z</time>
      </trkpt>
      <trkpt lat="43.23672" lon="-1.35686">
        <ele>310.64</ele>
        <time>2021-08-20T18:52:19Z</time>
      </trkpt>
      <trkpt lat="43.23683" lon="-1.35682">
        <ele>308.72</ele>
        <time>2021-08-20T18:52:20Z</time>
      </trkpt>
      <trkpt lat="43.23694" lon="-1.35677">
        <ele>307.76</ele>
        <time>2021-08-20T18:52:21Z</time>
      </trkpt>
      <trkpt lat="43.23704" lon="-1.3567">
        <ele>307.28</ele>
        <time>2021-08-20T18:52:22Z</time>
      </trkpt>
      <trkpt lat="43.23711" lon="-1.35663">
        <ele>306.32</ele>
        <time>2021-08-20T18:52:23Z</time>
      </trkpt>
      <trkpt lat="43.23719" lon="-1.35654">
        <ele>305.36</ele>
        <time>2021-08-20T18:52:24Z</time>
      </trkpt>
      <trkpt lat="43.23727" lon="-1.35644">
        <ele>304.39</ele>
        <time>2021-08-20T18:52:25Z</time>
      </trkpt>
      <trkpt lat="43.23735" lon="-1.35636">
        <ele>302.95</ele>
        <time>2021-08-20T18:52:26Z</time>
      </trkpt>
      <trkpt lat="43.23744" lon="-1.35628">
        <ele>301.99</ele>
        <time>2021-08-20T18:52:27Z</time>
      </trkpt>
      <trkpt lat="43.23772" lon="-1.35608">
        <ele>298.15</ele>
        <time>2021-08-20T18:52:30Z</time>
      </trkpt>
      <trkpt lat="43.23791" lon="-1.35596">
        <ele>295.26</ele>
        <time>2021-08-20T18:52:32Z</time>
      </trkpt>
      <trkpt lat="43.23816" lon="-1.3558">
        <ele>290.46</ele>
        <time>2021-08-20T18:52:35Z</time>
      </trkpt>
      <trkpt lat="43.23838" lon="-1.35565">
        <ele>286.13</ele>
        <time>2021-08-20T18:52:38Z</time>
      </trkpt>
      <trkpt lat="43.23845" lon="-1.35558">
        <ele>284.21</ele>
        <time>2021-08-20T18:52:39Z</time>
      </trkpt>
      <trkpt lat="43.23851" lon="-1.35551">
        <ele>282.77</ele>
        <time>2021-08-20T18:52:40Z</time>
      </trkpt>
      <trkpt lat="43.23858" lon="-1.35546">
        <ele>281.32</ele>
        <time>2021-08-20T18:52:41Z</time>
      </trkpt>
      <trkpt lat="43.23866" lon="-1.35542">
        <ele>279.4</ele>
        <time>2021-08-20T18:52:42Z</time>
      </trkpt>
      <trkpt lat="43.23875" lon="-1.35541">
        <ele>278.44</ele>
        <time>2021-08-20T18:52:43Z</time>
      </trkpt>
      <trkpt lat="43.23884" lon="-1.35542">
        <ele>278.44</ele>
        <time>2021-08-20T18:52:44Z</time>
      </trkpt>
      <trkpt lat="43.23892" lon="-1.35545">
        <ele>277.96</ele>
        <time>2021-08-20T18:52:45Z</time>
      </trkpt>
      <trkpt lat="43.239" lon="-1.35549">
        <ele>277.96</ele>
        <time>2021-08-20T18:52:46Z</time>
      </trkpt>
      <trkpt lat="43.23907" lon="-1.35555">
        <ele>277</ele>
        <time>2021-08-20T18:52:47Z</time>
      </trkpt>
      <trkpt lat="43.23914" lon="-1.35561">
        <ele>277</ele>
        <time>2021-08-20T18:52:48Z</time>
      </trkpt>
      <trkpt lat="43.23921" lon="-1.35567">
        <ele>277</ele>
        <time>2021-08-20T18:52:49Z</time>
      </trkpt>
      <trkpt lat="43.23928" lon="-1.35572">
        <ele>276.52</ele>
        <time>2021-08-20T18:52:50Z</time>
      </trkpt>
      <trkpt lat="43.23936" lon="-1.35576">
        <ele>276.52</ele>
        <time>2021-08-20T18:52:51Z</time>
      </trkpt>
      <trkpt lat="43.23993" lon="-1.35606">
        <ele>274.11</ele>
        <time>2021-08-20T18:52:58Z</time>
      </trkpt>
      <trkpt lat="43.24046" lon="-1.35625">
        <ele>272.67</ele>
        <time>2021-08-20T18:53:04Z</time>
      </trkpt>
      <trkpt lat="43.24062" lon="-1.35628">
        <ele>271.71</ele>
        <time>2021-08-20T18:53:06Z</time>
      </trkpt>
      <trkpt lat="43.24071" lon="-1.35626">
        <ele>270.75</ele>
        <time>2021-08-20T18:53:07Z</time>
      </trkpt>
      <trkpt lat="43.24078" lon="-1.35622">
        <ele>269.79</ele>
        <time>2021-08-20T18:53:08Z</time>
      </trkpt>
      <trkpt lat="43.24086" lon="-1.35617">
        <ele>268.35</ele>
        <time>2021-08-20T18:53:09Z</time>
      </trkpt>
      <trkpt lat="43.24094" lon="-1.35611">
        <ele>267.38</ele>
        <time>2021-08-20T18:53:10Z</time>
      </trkpt>
      <trkpt lat="43.2412" lon="-1.35594">
        <ele>265.94</ele>
        <time>2021-08-20T18:53:13Z</time>
      </trkpt>
      <trkpt lat="43.24159" lon="-1.35575">
        <ele>262.58</ele>
        <time>2021-08-20T18:53:17Z</time>
      </trkpt>
      <trkpt lat="43.24169" lon="-1.3557">
        <ele>262.58</ele>
        <time>2021-08-20T18:53:18Z</time>
      </trkpt>
      <trkpt lat="43.24195" lon="-1.35555">
        <ele>259.69</ele>
        <time>2021-08-20T18:53:21Z</time>
      </trkpt>
      <trkpt lat="43.24204" lon="-1.35553">
        <ele>258.25</ele>
        <time>2021-08-20T18:53:22Z</time>
      </trkpt>
      <trkpt lat="43.24214" lon="-1.35554">
        <ele>256.81</ele>
        <time>2021-08-20T18:53:23Z</time>
      </trkpt>
      <trkpt lat="43.24233" lon="-1.3556">
        <ele>253.44</ele>
        <time>2021-08-20T18:53:25Z</time>
      </trkpt>
      <trkpt lat="43.24254" lon="-1.35562">
        <ele>250.08</ele>
        <time>2021-08-20T18:53:27Z</time>
      </trkpt>
      <trkpt lat="43.24264" lon="-1.35562">
        <ele>249.12</ele>
        <time>2021-08-20T18:53:28Z</time>
      </trkpt>
      <trkpt lat="43.24273" lon="-1.35559">
        <ele>248.64</ele>
        <time>2021-08-20T18:53:29Z</time>
      </trkpt>
      <trkpt lat="43.24282" lon="-1.35556">
        <ele>248.16</ele>
        <time>2021-08-20T18:53:30Z</time>
      </trkpt>
      <trkpt lat="43.2429" lon="-1.3555">
        <ele>247.2</ele>
        <time>2021-08-20T18:53:31Z</time>
      </trkpt>
      <trkpt lat="43.24298" lon="-1.35544">
        <ele>246.23</ele>
        <time>2021-08-20T18:53:32Z</time>
      </trkpt>
      <trkpt lat="43.24304" lon="-1.35536">
        <ele>245.27</ele>
        <time>2021-08-20T18:53:33Z</time>
      </trkpt>
      <trkpt lat="43.2431" lon="-1.35526">
        <ele>244.31</ele>
        <time>2021-08-20T18:53:34Z</time>
      </trkpt>
      <trkpt lat="43.24315" lon="-1.35515">
        <ele>242.39</ele>
        <time>2021-08-20T18:53:35Z</time>
      </trkpt>
      <trkpt lat="43.2432" lon="-1.35504">
        <ele>240.95</ele>
        <time>2021-08-20T18:53:36Z</time>
      </trkpt>
      <trkpt lat="43.24325" lon="-1.35494">
        <ele>239.51</ele>
        <time>2021-08-20T18:53:37Z</time>
      </trkpt>
      <trkpt lat="43.24331" lon="-1.35483">
        <ele>237.58</ele>
        <time>2021-08-20T18:53:38Z</time>
      </trkpt>
      <trkpt lat="43.24337" lon="-1.35473">
        <ele>235.66</ele>
        <time>2021-08-20T18:53:39Z</time>
      </trkpt>
      <trkpt lat="43.2435" lon="-1.3545">
        <ele>231.33</ele>
        <time>2021-08-20T18:53:41Z</time>
      </trkpt>
      <trkpt lat="43.2436" lon="-1.35424">
        <ele>227.49</ele>
        <time>2021-08-20T18:53:43Z</time>
      </trkpt>
      <trkpt lat="43.24369" lon="-1.35401">
        <ele>226.05</ele>
        <time>2021-08-20T18:53:45Z</time>
      </trkpt>
      <trkpt lat="43.24379" lon="-1.35384">
        <ele>224.61</ele>
        <time>2021-08-20T18:53:47Z</time>
      </trkpt>
      <trkpt lat="43.24385" lon="-1.35379">
        <ele>223.64</ele>
        <time>2021-08-20T18:53:48Z</time>
      </trkpt>
      <trkpt lat="43.24393" lon="-1.35374">
        <ele>222.2</ele>
        <time>2021-08-20T18:53:49Z</time>
      </trkpt>
      <trkpt lat="43.244" lon="-1.35372">
        <ele>221.24</ele>
        <time>2021-08-20T18:53:50Z</time>
      </trkpt>
      <trkpt lat="43.24408" lon="-1.35373">
        <ele>219.8</ele>
        <time>2021-08-20T18:53:51Z</time>
      </trkpt>
      <trkpt lat="43.24416" lon="-1.35376">
        <ele>218.84</ele>
        <time>2021-08-20T18:53:52Z</time>
      </trkpt>
      <trkpt lat="43.24429" lon="-1.35379">
        <ele>216.91</ele>
        <time>2021-08-20T18:53:54Z</time>
      </trkpt>
      <trkpt lat="43.24435" lon="-1.35376">
        <ele>216.43</ele>
        <time>2021-08-20T18:53:55Z</time>
      </trkpt>
      <trkpt lat="43.2444" lon="-1.3537">
        <ele>215.47</ele>
        <time>2021-08-20T18:53:56Z</time>
      </trkpt>
      <trkpt lat="43.24443" lon="-1.35361">
        <ele>214.03</ele>
        <time>2021-08-20T18:53:57Z</time>
      </trkpt>
      <trkpt lat="43.24446" lon="-1.3535">
        <ele>212.59</ele>
        <time>2021-08-20T18:53:58Z</time>
      </trkpt>
      <trkpt lat="43.24448" lon="-1.35338">
        <ele>211.15</ele>
        <time>2021-08-20T18:53:59Z</time>
      </trkpt>
      <trkpt lat="43.24453" lon="-1.35313">
        <ele>207.78</ele>
        <time>2021-08-20T18:54:01Z</time>
      </trkpt>
      <trkpt lat="43.24457" lon="-1.35301">
        <ele>205.86</ele>
        <time>2021-08-20T18:54:02Z</time>
      </trkpt>
      <trkpt lat="43.24463" lon="-1.3529">
        <ele>203.94</ele>
        <time>2021-08-20T18:54:03Z</time>
      </trkpt>
      <trkpt lat="43.24471" lon="-1.35281">
        <ele>202.01</ele>
        <time>2021-08-20T18:54:04Z</time>
      </trkpt>
      <trkpt lat="43.2448" lon="-1.35271">
        <ele>199.61</ele>
        <time>2021-08-20T18:54:05Z</time>
      </trkpt>
      <trkpt lat="43.24488" lon="-1.3526">
        <ele>196.73</ele>
        <time>2021-08-20T18:54:06Z</time>
      </trkpt>
      <trkpt lat="43.24503" lon="-1.35236">
        <ele>192.88</ele>
        <time>2021-08-20T18:54:08Z</time>
      </trkpt>
      <trkpt lat="43.2451" lon="-1.35226">
        <ele>191.44</ele>
        <time>2021-08-20T18:54:09Z</time>
      </trkpt>
      <trkpt lat="43.24518" lon="-1.35217">
        <ele>190.48</ele>
        <time>2021-08-20T18:54:10Z</time>
      </trkpt>
      <trkpt lat="43.24544" lon="-1.3519">
        <ele>186.63</ele>
        <time>2021-08-20T18:54:13Z</time>
      </trkpt>
      <trkpt lat="43.24565" lon="-1.35173">
        <ele>184.23</ele>
        <time>2021-08-20T18:54:15Z</time>
      </trkpt>
      <trkpt lat="43.24573" lon="-1.35163">
        <ele>184.23</ele>
        <time>2021-08-20T18:54:16Z</time>
      </trkpt>
      <trkpt lat="43.2458" lon="-1.35152">
        <ele>183.75</ele>
        <time>2021-08-20T18:54:17Z</time>
      </trkpt>
      <trkpt lat="43.24605" lon="-1.35114">
        <ele>183.75</ele>
        <time>2021-08-20T18:54:21Z</time>
      </trkpt>
      <trkpt lat="43.24612" lon="-1.35108">
        <ele>183.75</ele>
        <time>2021-08-20T18:54:22Z</time>
      </trkpt>
      <trkpt lat="43.24619" lon="-1.35104">
        <ele>183.75</ele>
        <time>2021-08-20T18:54:23Z</time>
      </trkpt>
      <trkpt lat="43.24628" lon="-1.351">
        <ele>182.79</ele>
        <time>2021-08-20T18:54:24Z</time>
      </trkpt>
      <trkpt lat="43.24637" lon="-1.35096">
        <ele>181.35</ele>
        <time>2021-08-20T18:54:25Z</time>
      </trkpt>
      <trkpt lat="43.24658" lon="-1.35086">
        <ele>178.46</ele>
        <time>2021-08-20T18:54:27Z</time>
      </trkpt>
      <trkpt lat="43.24667" lon="-1.35079">
        <ele>177.98</ele>
        <time>2021-08-20T18:54:28Z</time>
      </trkpt>
      <trkpt lat="43.24693" lon="-1.35057">
        <ele>176.06</ele>
        <time>2021-08-20T18:54:31Z</time>
      </trkpt>
      <trkpt lat="43.24701" lon="-1.35048">
        <ele>176.54</ele>
        <time>2021-08-20T18:54:32Z</time>
      </trkpt>
      <trkpt lat="43.24707" lon="-1.35037">
        <ele>176.54</ele>
        <time>2021-08-20T18:54:33Z</time>
      </trkpt>
      <trkpt lat="43.24713" lon="-1.35029">
        <ele>176.54</ele>
        <time>2021-08-20T18:54:34Z</time>
      </trkpt>
      <trkpt lat="43.24719" lon="-1.35023">
        <ele>176.06</ele>
        <time>2021-08-20T18:54:35Z</time>
      </trkpt>
      <trkpt lat="43.24726" lon="-1.35021">
        <ele>176.06</ele>
        <time>2021-08-20T18:54:36Z</time>
      </trkpt>
      <trkpt lat="43.24734" lon="-1.3502">
        <ele>175.1</ele>
        <time>2021-08-20T18:54:37Z</time>
      </trkpt>
      <trkpt lat="43.24742" lon="-1.3502">
        <ele>174.62</ele>
        <time>2021-08-20T18:54:38Z</time>
      </trkpt>
      <trkpt lat="43.24751" lon="-1.35021">
        <ele>174.14</ele>
        <time>2021-08-20T18:54:39Z</time>
      </trkpt>
      <trkpt lat="43.24759" lon="-1.35021">
        <ele>173.66</ele>
        <time>2021-08-20T18:54:40Z</time>
      </trkpt>
      <trkpt lat="43.24768" lon="-1.35021">
        <ele>173.66</ele>
        <time>2021-08-20T18:54:41Z</time>
      </trkpt>
      <trkpt lat="43.24776" lon="-1.3502">
        <ele>173.17</ele>
        <time>2021-08-20T18:54:42Z</time>
      </trkpt>
      <trkpt lat="43.24783" lon="-1.35019">
        <ele>173.17</ele>
        <time>2021-08-20T18:54:43Z</time>
      </trkpt>
      <trkpt lat="43.2479" lon="-1.35016">
        <ele>173.17</ele>
        <time>2021-08-20T18:54:44Z</time>
      </trkpt>
      <trkpt lat="43.24796" lon="-1.35012">
        <ele>173.17</ele>
        <time>2021-08-20T18:54:45Z</time>
      </trkpt>
      <trkpt lat="43.24802" lon="-1.35008">
        <ele>173.17</ele>
        <time>2021-08-20T18:54:46Z</time>
      </trkpt>
      <trkpt lat="43.2485" lon="-1.34975">
        <ele>169.81</ele>
        <time>2021-08-20T18:54:53Z</time>
      </trkpt>
      <trkpt lat="43.24876" lon="-1.34962">
        <ele>166.93</ele>
        <time>2021-08-20T18:54:56Z</time>
      </trkpt>
      <trkpt lat="43.24894" lon="-1.34954">
        <ele>165.96</ele>
        <time>2021-08-20T18:54:58Z</time>
      </trkpt>
      <trkpt lat="43.24926" lon="-1.34946">
        <ele>161.64</ele>
        <time>2021-08-20T18:55:01Z</time>
      </trkpt>
      <trkpt lat="43.24971" lon="-1.34925">
        <ele>158.75</ele>
        <time>2021-08-20T18:55:05Z</time>
      </trkpt>
      <trkpt lat="43.24981" lon="-1.34919">
        <ele>158.75</ele>
        <time>2021-08-20T18:55:06Z</time>
      </trkpt>
      <trkpt lat="43.24991" lon="-1.34914">
        <ele>158.75</ele>
        <time>2021-08-20T18:55:07Z</time>
      </trkpt>
      <trkpt lat="43.25" lon="-1.34912">
        <ele>158.75</ele>
        <time>2021-08-20T18:55:08Z</time>
      </trkpt>
      <trkpt lat="43.25008" lon="-1.34914">
        <ele>157.79</ele>
        <time>2021-08-20T18:55:09Z</time>
      </trkpt>
      <trkpt lat="43.25015" lon="-1.34919">
        <ele>157.79</ele>
        <time>2021-08-20T18:55:10Z</time>
      </trkpt>
      <trkpt lat="43.25023" lon="-1.34923">
        <ele>157.79</ele>
        <time>2021-08-20T18:55:11Z</time>
      </trkpt>
      <trkpt lat="43.25031" lon="-1.34924">
        <ele>157.31</ele>
        <time>2021-08-20T18:55:12Z</time>
      </trkpt>
      <trkpt lat="43.25039" lon="-1.34925">
        <ele>156.83</ele>
        <time>2021-08-20T18:55:13Z</time>
      </trkpt>
      <trkpt lat="43.25047" lon="-1.34927">
        <ele>156.83</ele>
        <time>2021-08-20T18:55:14Z</time>
      </trkpt>
      <trkpt lat="43.25055" lon="-1.3493">
        <ele>156.35</ele>
        <time>2021-08-20T18:55:15Z</time>
      </trkpt>
      <trkpt lat="43.25063" lon="-1.34936">
        <ele>155.39</ele>
        <time>2021-08-20T18:55:16Z</time>
      </trkpt>
      <trkpt lat="43.25071" lon="-1.34941">
        <ele>155.39</ele>
        <time>2021-08-20T18:55:17Z</time>
      </trkpt>
      <trkpt lat="43.25088" lon="-1.34949">
        <ele>153.95</ele>
        <time>2021-08-20T18:55:19Z</time>
      </trkpt>
      <trkpt lat="43.25096" lon="-1.34952">
        <ele>153.47</ele>
        <time>2021-08-20T18:55:20Z</time>
      </trkpt>
      <trkpt lat="43.25104" lon="-1.34951">
        <ele>152.99</ele>
        <time>2021-08-20T18:55:21Z</time>
      </trkpt>
      <trkpt lat="43.25112" lon="-1.34948">
        <ele>152.51</ele>
        <time>2021-08-20T18:55:22Z</time>
      </trkpt>
      <trkpt lat="43.2512" lon="-1.34943">
        <ele>152.51</ele>
        <time>2021-08-20T18:55:23Z</time>
      </trkpt>
      <trkpt lat="43.25129" lon="-1.34939">
        <ele>151.54</ele>
        <time>2021-08-20T18:55:24Z</time>
      </trkpt>
      <trkpt lat="43.25136" lon="-1.34936">
        <ele>151.06</ele>
        <time>2021-08-20T18:55:25Z</time>
      </trkpt>
      <trkpt lat="43.25145" lon="-1.34935">
        <ele>150.58</ele>
        <time>2021-08-20T18:55:26Z</time>
      </trkpt>
      <trkpt lat="43.25199" lon="-1.34941">
        <ele>148.18</ele>
        <time>2021-08-20T18:55:32Z</time>
      </trkpt>
      <trkpt lat="43.25208" lon="-1.34939">
        <ele>147.22</ele>
        <time>2021-08-20T18:55:33Z</time>
      </trkpt>
      <trkpt lat="43.25219" lon="-1.34935">
        <ele>146.74</ele>
        <time>2021-08-20T18:55:34Z</time>
      </trkpt>
      <trkpt lat="43.25246" lon="-1.34922">
        <ele>145.3</ele>
        <time>2021-08-20T18:55:37Z</time>
      </trkpt>
      <trkpt lat="43.25282" lon="-1.34907">
        <ele>143.85</ele>
        <time>2021-08-20T18:55:41Z</time>
      </trkpt>
      <trkpt lat="43.25293" lon="-1.34906">
        <ele>142.89</ele>
        <time>2021-08-20T18:55:42Z</time>
      </trkpt>
      <trkpt lat="43.25302" lon="-1.34907">
        <ele>142.89</ele>
        <time>2021-08-20T18:55:43Z</time>
      </trkpt>
      <trkpt lat="43.25345" lon="-1.34918">
        <ele>144.34</ele>
        <time>2021-08-20T18:55:48Z</time>
      </trkpt>
      <trkpt lat="43.25362" lon="-1.34918">
        <ele>146.74</ele>
        <time>2021-08-20T18:55:51Z</time>
      </trkpt>
      <trkpt lat="43.25366" lon="-1.3492">
        <ele>146.74</ele>
        <time>2021-08-20T18:55:52Z</time>
      </trkpt>
      <trkpt lat="43.2537" lon="-1.34921">
        <ele>146.74</ele>
        <time>2021-08-20T18:55:53Z</time>
      </trkpt>
      <trkpt lat="43.25399" lon="-1.34931">
        <ele>143.37</ele>
        <time>2021-08-20T18:55:58Z</time>
      </trkpt>
      <trkpt lat="43.25422" lon="-1.34939">
        <ele>145.78</ele>
        <time>2021-08-20T18:56:03Z</time>
      </trkpt>
      <trkpt lat="43.25427" lon="-1.34941">
        <ele>145.78</ele>
        <time>2021-08-20T18:56:04Z</time>
      </trkpt>
      <trkpt lat="43.25441" lon="-1.34943">
        <ele>143.85</ele>
        <time>2021-08-20T18:56:07Z</time>
      </trkpt>
      <trkpt lat="43.25454" lon="-1.34944">
        <ele>141.45</ele>
        <time>2021-08-20T18:56:09Z</time>
      </trkpt>
      <trkpt lat="43.25459" lon="-1.34943">
        <ele>140.97</ele>
        <time>2021-08-20T18:56:10Z</time>
      </trkpt>
      <trkpt lat="43.25466" lon="-1.34941">
        <ele>139.53</ele>
        <time>2021-08-20T18:56:11Z</time>
      </trkpt>
      <trkpt lat="43.25483" lon="-1.34935">
        <ele>136.16</ele>
        <time>2021-08-20T18:56:13Z</time>
      </trkpt>
      <trkpt lat="43.25501" lon="-1.34928">
        <ele>135.2</ele>
        <time>2021-08-20T18:56:15Z</time>
      </trkpt>
      <trkpt lat="43.2551" lon="-1.34925">
        <ele>134.72</ele>
        <time>2021-08-20T18:56:16Z</time>
      </trkpt>
      <trkpt lat="43.25561" lon="-1.34922">
        <ele>133.28</ele>
        <time>2021-08-20T18:56:22Z</time>
      </trkpt>
      <trkpt lat="43.25603" lon="-1.3492">
        <ele>130.88</ele>
        <time>2021-08-20T18:56:27Z</time>
      </trkpt>
      <trkpt lat="43.25613" lon="-1.34921">
        <ele>130.88</ele>
        <time>2021-08-20T18:56:28Z</time>
      </trkpt>
      <trkpt lat="43.25661" lon="-1.34935">
        <ele>127.51</ele>
        <time>2021-08-20T18:56:33Z</time>
      </trkpt>
      <trkpt lat="43.25716" lon="-1.34952">
        <ele>125.59</ele>
        <time>2021-08-20T18:56:39Z</time>
      </trkpt>
      <trkpt lat="43.25724" lon="-1.34958">
        <ele>125.59</ele>
        <time>2021-08-20T18:56:40Z</time>
      </trkpt>
      <trkpt lat="43.25732" lon="-1.34965">
        <ele>124.63</ele>
        <time>2021-08-20T18:56:41Z</time>
      </trkpt>
      <trkpt lat="43.25747" lon="-1.34981">
        <ele>124.15</ele>
        <time>2021-08-20T18:56:43Z</time>
      </trkpt>
      <trkpt lat="43.25752" lon="-1.34991">
        <ele>124.15</ele>
        <time>2021-08-20T18:56:44Z</time>
      </trkpt>
      <trkpt lat="43.25757" lon="-1.34999">
        <ele>124.15</ele>
        <time>2021-08-20T18:56:45Z</time>
      </trkpt>
      <trkpt lat="43.25762" lon="-1.35004">
        <ele>126.07</ele>
        <time>2021-08-20T18:56:46Z</time>
      </trkpt>
      <trkpt lat="43.25767" lon="-1.35008">
        <ele>127.51</ele>
        <time>2021-08-20T18:56:47Z</time>
      </trkpt>
      <trkpt lat="43.25769" lon="-1.35009">
        <ele>128.95</ele>
        <time>2021-08-20T18:56:48Z</time>
      </trkpt>
      <trkpt lat="43.25771" lon="-1.3501">
        <ele>129.43</ele>
        <time>2021-08-20T18:56:49Z</time>
      </trkpt>
      <trkpt lat="43.25775" lon="-1.35012">
        <ele>129.92</ele>
        <time>2021-08-20T18:56:52Z</time>
      </trkpt>
      <trkpt lat="43.25779" lon="-1.35012">
        <ele>130.88</ele>
        <time>2021-08-20T18:56:55Z</time>
      </trkpt>
      <trkpt lat="43.2578" lon="-1.35012">
        <ele>130.88</ele>
        <time>2021-08-20T18:56:56Z</time>
      </trkpt>
      <trkpt lat="43.25781" lon="-1.35013">
        <ele>130.88</ele>
        <time>2021-08-20T18:56:57Z</time>
      </trkpt>
      <trkpt lat="43.25782" lon="-1.35013">
        <ele>131.36</ele>
        <time>2021-08-20T18:56:58Z</time>
      </trkpt>
      <trkpt lat="43.25783" lon="-1.35013">
        <ele>131.36</ele>
        <time>2021-08-20T18:56:59Z</time>
      </trkpt>
      <trkpt lat="43.25785" lon="-1.35014">
        <ele>131.36</ele>
        <time>2021-08-20T18:57:00Z</time>
      </trkpt>
      <trkpt lat="43.25788" lon="-1.35016">
        <ele>131.84</ele>
        <time>2021-08-20T18:57:05Z</time>
      </trkpt>
      <trkpt lat="43.25798" lon="-1.35018">
        <ele>133.76</ele>
        <time>2021-08-20T18:57:15Z</time>
      </trkpt>
      <trkpt lat="43.25806" lon="-1.35023">
        <ele>135.2</ele>
        <time>2021-08-20T18:57:23Z</time>
      </trkpt>
      <trkpt lat="43.25816" lon="-1.35029">
        <ele>136.64</ele>
        <time>2021-08-20T18:57:33Z</time>
      </trkpt>
      <trkpt lat="43.25823" lon="-1.35034">
        <ele>137.61</ele>
        <time>2021-08-20T18:57:41Z</time>
      </trkpt>
      <trkpt lat="43.25832" lon="-1.35039">
        <ele>139.05</ele>
        <time>2021-08-20T18:57:50Z</time>
      </trkpt>
      <trkpt lat="43.25843" lon="-1.35042">
        <ele>140.97</ele>
        <time>2021-08-20T18:58:00Z</time>
      </trkpt>
      <trkpt lat="43.25851" lon="-1.35043">
        <ele>141.93</ele>
        <time>2021-08-20T18:58:08Z</time>
      </trkpt>
      <trkpt lat="43.2586" lon="-1.35042">
        <ele>143.37</ele>
        <time>2021-08-20T18:58:18Z</time>
      </trkpt>
      <trkpt lat="43.25869" lon="-1.35037">
        <ele>144.82</ele>
        <time>2021-08-20T18:58:27Z</time>
      </trkpt>
      <trkpt lat="43.25878" lon="-1.35029">
        <ele>145.78</ele>
        <time>2021-08-20T18:58:36Z</time>
      </trkpt>
      <trkpt lat="43.25885" lon="-1.35022">
        <ele>147.7</ele>
        <time>2021-08-20T18:58:45Z</time>
      </trkpt>
      <trkpt lat="43.25886" lon="-1.35022">
        <ele>147.7</ele>
        <time>2021-08-20T18:58:46Z</time>
      </trkpt>
      <trkpt lat="43.2589" lon="-1.35021">
        <ele>148.66</ele>
        <time>2021-08-20T18:58:53Z</time>
      </trkpt>
      <trkpt lat="43.25893" lon="-1.3502">
        <ele>148.66</ele>
        <time>2021-08-20T18:58:56Z</time>
      </trkpt>
      <trkpt lat="43.25893" lon="-1.35019">
        <ele>148.66</ele>
        <time>2021-08-20T18:58:57Z</time>
      </trkpt>
      <trkpt lat="43.25894" lon="-1.35018">
        <ele>148.66</ele>
        <time>2021-08-20T18:58:58Z</time>
      </trkpt>
      <trkpt lat="43.25896" lon="-1.35018">
        <ele>148.66</ele>
        <time>2021-08-20T18:58:59Z</time>
      </trkpt>
      <trkpt lat="43.25898" lon="-1.35018">
        <ele>148.18</ele>
        <time>2021-08-20T18:59:00Z</time>
      </trkpt>
      <trkpt lat="43.259" lon="-1.35017">
        <ele>148.18</ele>
        <time>2021-08-20T18:59:01Z</time>
      </trkpt>
      <trkpt lat="43.25902" lon="-1.35017">
        <ele>148.18</ele>
        <time>2021-08-20T18:59:02Z</time>
      </trkpt>
      <trkpt lat="43.25922" lon="-1.35018">
        <ele>148.66</ele>
        <time>2021-08-20T18:59:10Z</time>
      </trkpt>
      <trkpt lat="43.25962" lon="-1.35021">
        <ele>149.14</ele>
        <time>2021-08-20T18:59:22Z</time>
      </trkpt>
      <trkpt lat="43.26004" lon="-1.35023">
        <ele>149.14</ele>
        <time>2021-08-20T18:59:33Z</time>
      </trkpt>
      <trkpt lat="43.26029" lon="-1.35017">
        <ele>151.54</ele>
        <time>2021-08-20T18:59:41Z</time>
      </trkpt>
      <trkpt lat="43.26043" lon="-1.35015">
        <ele>152.99</ele>
        <time>2021-08-20T18:59:47Z</time>
      </trkpt>
      <trkpt lat="43.26046" lon="-1.35015">
        <ele>152.99</ele>
        <time>2021-08-20T18:59:48Z</time>
      </trkpt>
      <trkpt lat="43.26048" lon="-1.35015">
        <ele>152.99</ele>
        <time>2021-08-20T18:59:49Z</time>
      </trkpt>
      <trkpt lat="43.2605" lon="-1.35014">
        <ele>152.99</ele>
        <time>2021-08-20T18:59:50Z</time>
      </trkpt>
      <trkpt lat="43.26052" lon="-1.35012">
        <ele>152.99</ele>
        <time>2021-08-20T18:59:51Z</time>
      </trkpt>
      <trkpt lat="43.26055" lon="-1.35011">
        <ele>152.99</ele>
        <time>2021-08-20T18:59:52Z</time>
      </trkpt>
      <trkpt lat="43.26078" lon="-1.35008">
        <ele>154.43</ele>
        <time>2021-08-20T19:00:01Z</time>
      </trkpt>
      <trkpt lat="43.26091" lon="-1.35012">
        <ele>154.43</ele>
        <time>2021-08-20T19:00:05Z</time>
      </trkpt>
      <trkpt lat="43.26112" lon="-1.35023">
        <ele>153.47</ele>
        <time>2021-08-20T19:00:10Z</time>
      </trkpt>
      <trkpt lat="43.26145" lon="-1.35027">
        <ele>153.95</ele>
        <time>2021-08-20T19:00:17Z</time>
      </trkpt>
      <trkpt lat="43.26152" lon="-1.35028">
        <ele>154.91</ele>
        <time>2021-08-20T19:00:19Z</time>
      </trkpt>
      <trkpt lat="43.26172" lon="-1.3504">
        <ele>156.83</ele>
        <time>2021-08-20T19:00:26Z</time>
      </trkpt>
      <trkpt lat="43.26175" lon="-1.35043">
        <ele>156.83</ele>
        <time>2021-08-20T19:00:27Z</time>
      </trkpt>
      <trkpt lat="43.26178" lon="-1.35047">
        <ele>156.83</ele>
        <time>2021-08-20T19:00:28Z</time>
      </trkpt>
      <trkpt lat="43.26181" lon="-1.35051">
        <ele>156.83</ele>
        <time>2021-08-20T19:00:29Z</time>
      </trkpt>
      <trkpt lat="43.26199" lon="-1.35077">
        <ele>154.43</ele>
        <time>2021-08-20T19:00:34Z</time>
      </trkpt>
      <trkpt lat="43.26205" lon="-1.35082">
        <ele>154.43</ele>
        <time>2021-08-20T19:00:35Z</time>
      </trkpt>
      <trkpt lat="43.2621" lon="-1.35086">
        <ele>153.95</ele>
        <time>2021-08-20T19:00:36Z</time>
      </trkpt>
      <trkpt lat="43.26215" lon="-1.35089">
        <ele>153.95</ele>
        <time>2021-08-20T19:00:37Z</time>
      </trkpt>
      <trkpt lat="43.26221" lon="-1.35091">
        <ele>153.95</ele>
        <time>2021-08-20T19:00:38Z</time>
      </trkpt>
      <trkpt lat="43.26224" lon="-1.35093">
        <ele>153.95</ele>
        <time>2021-08-20T19:00:39Z</time>
      </trkpt>
      <trkpt lat="43.26228" lon="-1.35094">
        <ele>155.39</ele>
        <time>2021-08-20T19:00:40Z</time>
      </trkpt>
      <trkpt lat="43.26233" lon="-1.35096">
        <ele>154.91</ele>
        <time>2021-08-20T19:00:41Z</time>
      </trkpt>
      <trkpt lat="43.26257" lon="-1.35107">
        <ele>152.99</ele>
        <time>2021-08-20T19:00:46Z</time>
      </trkpt>
      <trkpt lat="43.26262" lon="-1.35108">
        <ele>152.99</ele>
        <time>2021-08-20T19:00:47Z</time>
      </trkpt>
      <trkpt lat="43.26269" lon="-1.35109">
        <ele>152.51</ele>
        <time>2021-08-20T19:00:48Z</time>
      </trkpt>
      <trkpt lat="43.26275" lon="-1.35109">
        <ele>152.99</ele>
        <time>2021-08-20T19:00:49Z</time>
      </trkpt>
      <trkpt lat="43.26281" lon="-1.35109">
        <ele>152.99</ele>
        <time>2021-08-20T19:00:50Z</time>
      </trkpt>
      <trkpt lat="43.26295" lon="-1.35107">
        <ele>152.99</ele>
        <time>2021-08-20T19:00:53Z</time>
      </trkpt>
      <trkpt lat="43.26305" lon="-1.35106">
        <ele>152.99</ele>
        <time>2021-08-20T19:00:55Z</time>
      </trkpt>
      <trkpt lat="43.2631" lon="-1.35106">
        <ele>152.99</ele>
        <time>2021-08-20T19:00:56Z</time>
      </trkpt>
      <trkpt lat="43.26322" lon="-1.35105">
        <ele>153.95</ele>
        <time>2021-08-20T19:00:59Z</time>
      </trkpt>
      <trkpt lat="43.26344" lon="-1.35104">
        <ele>152.51</ele>
        <time>2021-08-20T19:01:04Z</time>
      </trkpt>
      <trkpt lat="43.26349" lon="-1.35103">
        <ele>152.03</ele>
        <time>2021-08-20T19:01:05Z</time>
      </trkpt>
      <trkpt lat="43.26352" lon="-1.35103">
        <ele>152.03</ele>
        <time>2021-08-20T19:01:06Z</time>
      </trkpt>
      <trkpt lat="43.26357" lon="-1.35105">
        <ele>152.03</ele>
        <time>2021-08-20T19:01:07Z</time>
      </trkpt>
      <trkpt lat="43.2636" lon="-1.35107">
        <ele>152.03</ele>
        <time>2021-08-20T19:01:08Z</time>
      </trkpt>
      <trkpt lat="43.26364" lon="-1.3511">
        <ele>152.03</ele>
        <time>2021-08-20T19:01:09Z</time>
      </trkpt>
      <trkpt lat="43.26368" lon="-1.35113">
        <ele>152.03</ele>
        <time>2021-08-20T19:01:10Z</time>
      </trkpt>
      <trkpt lat="43.26372" lon="-1.35115">
        <ele>152.03</ele>
        <time>2021-08-20T19:01:11Z</time>
      </trkpt>
      <trkpt lat="43.26391" lon="-1.35126">
        <ele>151.06</ele>
        <time>2021-08-20T19:01:15Z</time>
      </trkpt>
      <trkpt lat="43.2641" lon="-1.35137">
        <ele>151.06</ele>
        <time>2021-08-20T19:01:19Z</time>
      </trkpt>
      <trkpt lat="43.26415" lon="-1.35139">
        <ele>151.06</ele>
        <time>2021-08-20T19:01:20Z</time>
      </trkpt>
      <trkpt lat="43.26419" lon="-1.35139">
        <ele>151.06</ele>
        <time>2021-08-20T19:01:21Z</time>
      </trkpt>
      <trkpt lat="43.26424" lon="-1.35138">
        <ele>151.06</ele>
        <time>2021-08-20T19:01:22Z</time>
      </trkpt>
      <trkpt lat="43.26428" lon="-1.35137">
        <ele>151.06</ele>
        <time>2021-08-20T19:01:23Z</time>
      </trkpt>
      <trkpt lat="43.26432" lon="-1.35136">
        <ele>151.06</ele>
        <time>2021-08-20T19:01:24Z</time>
      </trkpt>
      <trkpt lat="43.26443" lon="-1.35132">
        <ele>152.51</ele>
        <time>2021-08-20T19:01:27Z</time>
      </trkpt>
      <trkpt lat="43.26481" lon="-1.35119">
        <ele>151.54</ele>
        <time>2021-08-20T19:01:36Z</time>
      </trkpt>
      <trkpt lat="43.2652" lon="-1.35092">
        <ele>149.62</ele>
        <time>2021-08-20T19:01:45Z</time>
      </trkpt>
      <trkpt lat="43.26526" lon="-1.35071">
        <ele>149.14</ele>
        <time>2021-08-20T19:01:50Z</time>
      </trkpt>
      <trkpt lat="43.26526" lon="-1.35064">
        <ele>149.14</ele>
        <time>2021-08-20T19:01:55Z</time>
      </trkpt>
      <trkpt lat="43.26526" lon="-1.35064">
        <ele>149.14</ele>
        <time>2021-08-20T19:02:04Z</time>
      </trkpt>
      <trkpt lat="43.26526" lon="-1.35064">
        <ele>149.14</ele>
        <time>2021-08-20T19:02:28Z</time>
      </trkpt>
      <trkpt lat="43.26526" lon="-1.35064">
        <ele>149.14</ele>
        <time>2021-08-20T19:02:45Z</time>
      </trkpt>
      <trkpt lat="43.26526" lon="-1.35064">
        <ele>149.14</ele>
        <time>2021-08-20T19:03:11Z</time>
      </trkpt>
      <trkpt lat="43.26526" lon="-1.35064">
        <ele>149.14</ele>
        <time>2021-08-20T19:03:39Z</time>
      </trkpt>
      <trkpt lat="43.26526" lon="-1.35063">
        <ele>149.14</ele>
        <time>2021-08-20T19:04:08Z</time>
      </trkpt>
      <trkpt lat="43.26525" lon="-1.35064">
        <ele>149.14</ele>
        <time>2021-08-20T19:04:30Z</time>
      </trkpt>
      <trkpt lat="43.26525" lon="-1.35065">
        <ele>148.66</ele>
        <time>2021-08-20T19:04:46Z</time>
      </trkpt>
      <trkpt lat="43.26525" lon="-1.35066">
        <ele>148.66</ele>
        <time>2021-08-20T19:05:15Z</time>
      </trkpt>
      <trkpt lat="43.26525" lon="-1.35065">
        <ele>148.66</ele>
        <time>2021-08-20T19:05:37Z</time>
      </trkpt>
      <trkpt lat="43.26524" lon="-1.35066">
        <ele>148.66</ele>
        <time>2021-08-20T19:05:56Z</time>
      </trkpt>
      <trkpt lat="43.26524" lon="-1.35066">
        <ele>148.18</ele>
        <time>2021-08-20T19:06:11Z</time>
      </trkpt>
      <trkpt lat="43.26522" lon="-1.35067">
        <ele>148.18</ele>
        <time>2021-08-20T19:06:33Z</time>
      </trkpt>
      <trkpt lat="43.26521" lon="-1.35066">
        <ele>148.18</ele>
        <time>2021-08-20T19:06:39Z</time>
      </trkpt>
      <trkpt lat="43.26522" lon="-1.35066">
        <ele>148.18</ele>
        <time>2021-08-20T19:06:47Z</time>
      </trkpt>
      <trkpt lat="43.26523" lon="-1.35065">
        <ele>148.18</ele>
        <time>2021-08-20T19:07:11Z</time>
      </trkpt>
      <trkpt lat="43.26524" lon="-1.35065">
        <ele>148.18</ele>
        <time>2021-08-20T19:07:27Z</time>
      </trkpt>
      <trkpt lat="43.26524" lon="-1.35065">
        <ele>148.18</ele>
        <time>2021-08-20T19:07:48Z</time>
      </trkpt>
      <trkpt lat="43.26525" lon="-1.35064">
        <ele>147.7</ele>
        <time>2021-08-20T19:08:07Z</time>
      </trkpt>
      <trkpt lat="43.26525" lon="-1.35065">
        <ele>147.7</ele>
        <time>2021-08-20T19:08:25Z</time>
      </trkpt>
      <trkpt lat="43.26525" lon="-1.35064">
        <ele>147.7</ele>
        <time>2021-08-20T19:08:49Z</time>
      </trkpt>
      <trkpt lat="43.26525" lon="-1.35063">
        <ele>147.7</ele>
        <time>2021-08-20T19:09:01Z</time>
      </trkpt>
      <trkpt lat="43.26524" lon="-1.35064">
        <ele>147.22</ele>
        <time>2021-08-20T19:09:24Z</time>
      </trkpt>
      <trkpt lat="43.26526" lon="-1.35064">
        <ele>147.22</ele>
        <time>2021-08-20T19:09:45Z</time>
      </trkpt>
      <trkpt lat="43.26525" lon="-1.35063">
        <ele>146.74</ele>
        <time>2021-08-20T19:10:04Z</time>
      </trkpt>
      <trkpt lat="43.26525" lon="-1.35066">
        <ele>146.74</ele>
        <time>2021-08-20T19:10:21Z</time>
      </trkpt>
      <trkpt lat="43.26525" lon="-1.35064">
        <ele>146.74</ele>
        <time>2021-08-20T19:10:38Z</time>
      </trkpt>
      <trkpt lat="43.26526" lon="-1.35064">
        <ele>146.74</ele>
        <time>2021-08-20T19:11:02Z</time>
      </trkpt>
      <trkpt lat="43.26527" lon="-1.35064">
        <ele>146.74</ele>
        <time>2021-08-20T19:11:06Z</time>
      </trkpt>
      <trkpt lat="43.26529" lon="-1.35058">
        <ele>146.74</ele>
        <time>2021-08-20T19:11:10Z</time>
      </trkpt>
      <trkpt lat="43.26527" lon="-1.35063">
        <ele>146.74</ele>
        <time>2021-08-20T19:11:23Z</time>
      </trkpt>
      <trkpt lat="43.26527" lon="-1.35063">
        <ele>146.74</ele>
        <time>2021-08-20T19:11:42Z</time>
      </trkpt>
      <trkpt lat="43.26527" lon="-1.35063">
        <ele>146.26</ele>
        <time>2021-08-20T19:11:54Z</time>
      </trkpt>
      <trkpt lat="43.26527" lon="-1.35063">
        <ele>146.26</ele>
        <time>2021-08-20T19:12:09Z</time>
      </trkpt>
      <trkpt lat="43.26527" lon="-1.35062">
        <ele>146.26</ele>
        <time>2021-08-20T19:12:27Z</time>
      </trkpt>
      <trkpt lat="43.26527" lon="-1.35063">
        <ele>146.26</ele>
        <time>2021-08-20T19:12:41Z</time>
      </trkpt>
      <trkpt lat="43.26525" lon="-1.35064">
        <ele>146.26</ele>
        <time>2021-08-20T19:13:02Z</time>
      </trkpt>
      <trkpt lat="43.26525" lon="-1.35066">
        <ele>146.26</ele>
        <time>2021-08-20T19:13:22Z</time>
      </trkpt>
      <trkpt lat="43.26524" lon="-1.35066">
        <ele>145.78</ele>
        <time>2021-08-20T19:13:39Z</time>
      </trkpt>
      <trkpt lat="43.26524" lon="-1.35067">
        <ele>145.78</ele>
        <time>2021-08-20T19:13:52Z</time>
      </trkpt>
      <trkpt lat="43.26525" lon="-1.35066">
        <ele>145.78</ele>
        <time>2021-08-20T19:14:07Z</time>
      </trkpt>
      <trkpt lat="43.26525" lon="-1.35066">
        <ele>145.78</ele>
        <time>2021-08-20T19:14:17Z</time>
      </trkpt>
      <trkpt lat="43.26525" lon="-1.35066">
        <ele>145.78</ele>
        <time>2021-08-20T19:14:26Z</time>
      </trkpt>
      <trkpt lat="43.26525" lon="-1.35064">
        <ele>145.78</ele>
        <time>2021-08-20T19:14:38Z</time>
      </trkpt>
      <trkpt lat="43.26527" lon="-1.3506">
        <ele>145.78</ele>
        <time>2021-08-20T19:14:41Z</time>
      </trkpt>
      <trkpt lat="43.26528" lon="-1.35055">
        <ele>145.78</ele>
        <time>2021-08-20T19:14:43Z</time>
      </trkpt>
      <trkpt lat="43.26529" lon="-1.35051">
        <ele>145.78</ele>
        <time>2021-08-20T19:14:44Z</time>
      </trkpt>
      <trkpt lat="43.2653" lon="-1.35033">
        <ele>145.3</ele>
        <time>2021-08-20T19:14:48Z</time>
      </trkpt>
      <trkpt lat="43.26539" lon="-1.3499">
        <ele>145.3</ele>
        <time>2021-08-20T19:14:55Z</time>
      </trkpt>
      <trkpt lat="43.26546" lon="-1.34935">
        <ele>145.3</ele>
        <time>2021-08-20T19:15:04Z</time>
      </trkpt>
      <trkpt lat="43.26547" lon="-1.3493">
        <ele>145.3</ele>
        <time>2021-08-20T19:15:05Z</time>
      </trkpt>
      <trkpt lat="43.26551" lon="-1.34912">
        <ele>145.3</ele>
        <time>2021-08-20T19:15:08Z</time>
      </trkpt>
      <trkpt lat="43.26556" lon="-1.34867">
        <ele>145.3</ele>
        <time>2021-08-20T19:15:16Z</time>
      </trkpt>
      <trkpt lat="43.26557" lon="-1.34862">
        <ele>145.3</ele>
        <time>2021-08-20T19:15:17Z</time>
      </trkpt>
      <trkpt lat="43.26558" lon="-1.34856">
        <ele>145.3</ele>
        <time>2021-08-20T19:15:18Z</time>
      </trkpt>
      <trkpt lat="43.26571" lon="-1.34811">
        <ele>145.3</ele>
        <time>2021-08-20T19:15:26Z</time>
      </trkpt>
      <trkpt lat="43.26579" lon="-1.34777">
        <ele>145.3</ele>
        <time>2021-08-20T19:15:31Z</time>
      </trkpt>
      <trkpt lat="43.26579" lon="-1.34769">
        <ele>145.3</ele>
        <time>2021-08-20T19:15:32Z</time>
      </trkpt>
      <trkpt lat="43.26577" lon="-1.34762">
        <ele>144.82</ele>
        <time>2021-08-20T19:15:33Z</time>
      </trkpt>
      <trkpt lat="43.26573" lon="-1.34745">
        <ele>141.93</ele>
        <time>2021-08-20T19:15:35Z</time>
      </trkpt>
      <trkpt lat="43.2657" lon="-1.34725">
        <ele>138.57</ele>
        <time>2021-08-20T19:15:37Z</time>
      </trkpt>
      <trkpt lat="43.26568" lon="-1.34714">
        <ele>136.64</ele>
        <time>2021-08-20T19:15:38Z</time>
      </trkpt>
      <trkpt lat="43.26565" lon="-1.34704">
        <ele>134.72</ele>
        <time>2021-08-20T19:15:39Z</time>
      </trkpt>
      <trkpt lat="43.26562" lon="-1.34695">
        <ele>133.28</ele>
        <time>2021-08-20T19:15:40Z</time>
      </trkpt>
      <trkpt lat="43.26557" lon="-1.34685">
        <ele>130.88</ele>
        <time>2021-08-20T19:15:41Z</time>
      </trkpt>
      <trkpt lat="43.26552" lon="-1.34678">
        <ele>129.92</ele>
        <time>2021-08-20T19:15:42Z</time>
      </trkpt>
      <trkpt lat="43.26546" lon="-1.3467">
        <ele>128.95</ele>
        <time>2021-08-20T19:15:43Z</time>
      </trkpt>
      <trkpt lat="43.2653" lon="-1.34648">
        <ele>125.11</ele>
        <time>2021-08-20T19:15:46Z</time>
      </trkpt>
      <trkpt lat="43.26522" lon="-1.34635">
        <ele>122.22</ele>
        <time>2021-08-20T19:15:48Z</time>
      </trkpt>
      <trkpt lat="43.2652" lon="-1.34628">
        <ele>120.78</ele>
        <time>2021-08-20T19:15:49Z</time>
      </trkpt>
      <trkpt lat="43.26519" lon="-1.3462">
        <ele>119.34</ele>
        <time>2021-08-20T19:15:50Z</time>
      </trkpt>
      <trkpt lat="43.26521" lon="-1.34611">
        <ele>118.38</ele>
        <time>2021-08-20T19:15:51Z</time>
      </trkpt>
      <trkpt lat="43.26525" lon="-1.34603">
        <ele>116.94</ele>
        <time>2021-08-20T19:15:52Z</time>
      </trkpt>
      <trkpt lat="43.26529" lon="-1.34594">
        <ele>115.5</ele>
        <time>2021-08-20T19:15:53Z</time>
      </trkpt>
      <trkpt lat="43.2655" lon="-1.34542">
        <ele>112.61</ele>
        <time>2021-08-20T19:15:58Z</time>
      </trkpt>
      <trkpt lat="43.26568" lon="-1.34489">
        <ele>111.65</ele>
        <time>2021-08-20T19:16:03Z</time>
      </trkpt>
      <trkpt lat="43.26573" lon="-1.34479">
        <ele>111.65</ele>
        <time>2021-08-20T19:16:04Z</time>
      </trkpt>
      <trkpt lat="43.26578" lon="-1.34473">
        <ele>111.65</ele>
        <time>2021-08-20T19:16:05Z</time>
      </trkpt>
      <trkpt lat="43.26585" lon="-1.34468">
        <ele>111.17</ele>
        <time>2021-08-20T19:16:06Z</time>
      </trkpt>
      <trkpt lat="43.26592" lon="-1.34464">
        <ele>111.17</ele>
        <time>2021-08-20T19:16:07Z</time>
      </trkpt>
      <trkpt lat="43.26605" lon="-1.34458">
        <ele>111.17</ele>
        <time>2021-08-20T19:16:09Z</time>
      </trkpt>
      <trkpt lat="43.26611" lon="-1.34455">
        <ele>111.17</ele>
        <time>2021-08-20T19:16:10Z</time>
      </trkpt>
      <trkpt lat="43.26623" lon="-1.34452">
        <ele>110.21</ele>
        <time>2021-08-20T19:16:12Z</time>
      </trkpt>
      <trkpt lat="43.26629" lon="-1.34451">
        <ele>109.25</ele>
        <time>2021-08-20T19:16:13Z</time>
      </trkpt>
      <trkpt lat="43.26636" lon="-1.34451">
        <ele>108.29</ele>
        <time>2021-08-20T19:16:14Z</time>
      </trkpt>
      <trkpt lat="43.26643" lon="-1.34452">
        <ele>107.32</ele>
        <time>2021-08-20T19:16:15Z</time>
      </trkpt>
      <trkpt lat="43.2665" lon="-1.34454">
        <ele>105.88</ele>
        <time>2021-08-20T19:16:16Z</time>
      </trkpt>
      <trkpt lat="43.26665" lon="-1.34458">
        <ele>103</ele>
        <time>2021-08-20T19:16:18Z</time>
      </trkpt>
      <trkpt lat="43.26672" lon="-1.3446">
        <ele>101.08</ele>
        <time>2021-08-20T19:16:19Z</time>
      </trkpt>
      <trkpt lat="43.26679" lon="-1.34463">
        <ele>99.63</ele>
        <time>2021-08-20T19:16:20Z</time>
      </trkpt>
      <trkpt lat="43.26685" lon="-1.34467">
        <ele>98.67</ele>
        <time>2021-08-20T19:16:21Z</time>
      </trkpt>
      <trkpt lat="43.26699" lon="-1.34477">
        <ele>95.31</ele>
        <time>2021-08-20T19:16:24Z</time>
      </trkpt>
      <trkpt lat="43.26713" lon="-1.34487">
        <ele>91.94</ele>
        <time>2021-08-20T19:16:27Z</time>
      </trkpt>
      <trkpt lat="43.26717" lon="-1.3449">
        <ele>90.5</ele>
        <time>2021-08-20T19:16:28Z</time>
      </trkpt>
      <trkpt lat="43.26727" lon="-1.34494">
        <ele>88.58</ele>
        <time>2021-08-20T19:16:30Z</time>
      </trkpt>
      <trkpt lat="43.26733" lon="-1.34499">
        <ele>87.14</ele>
        <time>2021-08-20T19:16:31Z</time>
      </trkpt>
      <trkpt lat="43.26737" lon="-1.34505">
        <ele>86.18</ele>
        <time>2021-08-20T19:16:32Z</time>
      </trkpt>
      <trkpt lat="43.26742" lon="-1.34512">
        <ele>85.69</ele>
        <time>2021-08-20T19:16:33Z</time>
      </trkpt>
      <trkpt lat="43.26746" lon="-1.3452">
        <ele>85.69</ele>
        <time>2021-08-20T19:16:34Z</time>
      </trkpt>
      <trkpt lat="43.2675" lon="-1.34528">
        <ele>85.69</ele>
        <time>2021-08-20T19:16:35Z</time>
      </trkpt>
      <trkpt lat="43.26754" lon="-1.34536">
        <ele>85.21</ele>
        <time>2021-08-20T19:16:36Z</time>
      </trkpt>
      <trkpt lat="43.26766" lon="-1.34565">
        <ele>85.21</ele>
        <time>2021-08-20T19:16:40Z</time>
      </trkpt>
      <trkpt lat="43.26793" lon="-1.34611">
        <ele>84.25</ele>
        <time>2021-08-20T19:16:47Z</time>
      </trkpt>
      <trkpt lat="43.26825" lon="-1.34665">
        <ele>82.81</ele>
        <time>2021-08-20T19:16:55Z</time>
      </trkpt>
      <trkpt lat="43.26861" lon="-1.34715">
        <ele>81.85</ele>
        <time>2021-08-20T19:17:04Z</time>
      </trkpt>
      <trkpt lat="43.26874" lon="-1.34735">
        <ele>84.25</ele>
        <time>2021-08-20T19:17:10Z</time>
      </trkpt>
      <trkpt lat="43.26882" lon="-1.34747">
        <ele>84.25</ele>
        <time>2021-08-20T19:17:13Z</time>
      </trkpt>
      <trkpt lat="43.26911" lon="-1.34781">
        <ele>81.37</ele>
        <time>2021-08-20T19:17:20Z</time>
      </trkpt>
      <trkpt lat="43.26915" lon="-1.34787">
        <ele>81.37</ele>
        <time>2021-08-20T19:17:21Z</time>
      </trkpt>
      <trkpt lat="43.26918" lon="-1.34793">
        <ele>81.37</ele>
        <time>2021-08-20T19:17:22Z</time>
      </trkpt>
      <trkpt lat="43.26921" lon="-1.34799">
        <ele>81.37</ele>
        <time>2021-08-20T19:17:23Z</time>
      </trkpt>
      <trkpt lat="43.26925" lon="-1.34811">
        <ele>81.37</ele>
        <time>2021-08-20T19:17:25Z</time>
      </trkpt>
      <trkpt lat="43.26926" lon="-1.34817">
        <ele>81.37</ele>
        <time>2021-08-20T19:17:26Z</time>
      </trkpt>
      <trkpt lat="43.26926" lon="-1.34823">
        <ele>81.37</ele>
        <time>2021-08-20T19:17:27Z</time>
      </trkpt>
      <trkpt lat="43.26925" lon="-1.3483">
        <ele>81.37</ele>
        <time>2021-08-20T19:17:28Z</time>
      </trkpt>
      <trkpt lat="43.26923" lon="-1.34837">
        <ele>81.37</ele>
        <time>2021-08-20T19:17:29Z</time>
      </trkpt>
      <trkpt lat="43.26921" lon="-1.34844">
        <ele>81.37</ele>
        <time>2021-08-20T19:17:30Z</time>
      </trkpt>
      <trkpt lat="43.26919" lon="-1.34852">
        <ele>81.37</ele>
        <time>2021-08-20T19:17:31Z</time>
      </trkpt>
      <trkpt lat="43.26914" lon="-1.34912">
        <ele>81.37</ele>
        <time>2021-08-20T19:17:39Z</time>
      </trkpt>
      <trkpt lat="43.26913" lon="-1.34918">
        <ele>81.37</ele>
        <time>2021-08-20T19:17:40Z</time>
      </trkpt>
      <trkpt lat="43.26912" lon="-1.34924">
        <ele>81.37</ele>
        <time>2021-08-20T19:17:41Z</time>
      </trkpt>
      <trkpt lat="43.26912" lon="-1.34959">
        <ele>83.29</ele>
        <time>2021-08-20T19:17:49Z</time>
      </trkpt>
      <trkpt lat="43.26917" lon="-1.34969">
        <ele>84.25</ele>
        <time>2021-08-20T19:17:52Z</time>
      </trkpt>
      <trkpt lat="43.26921" lon="-1.3497">
        <ele>84.73</ele>
        <time>2021-08-20T19:17:53Z</time>
      </trkpt>
      <trkpt lat="43.26945" lon="-1.34976">
        <ele>85.21</ele>
        <time>2021-08-20T19:18:00Z</time>
      </trkpt>
      <trkpt lat="43.26948" lon="-1.34979">
        <ele>85.21</ele>
        <time>2021-08-20T19:18:01Z</time>
      </trkpt>
      <trkpt lat="43.26951" lon="-1.34984">
        <ele>83.77</ele>
        <time>2021-08-20T19:18:02Z</time>
      </trkpt>
      <trkpt lat="43.26953" lon="-1.34988">
        <ele>83.29</ele>
        <time>2021-08-20T19:18:03Z</time>
      </trkpt>
      <trkpt lat="43.26956" lon="-1.34993">
        <ele>83.29</ele>
        <time>2021-08-20T19:18:04Z</time>
      </trkpt>
      <trkpt lat="43.26958" lon="-1.34999">
        <ele>83.29</ele>
        <time>2021-08-20T19:18:05Z</time>
      </trkpt>
      <trkpt lat="43.26959" lon="-1.35004">
        <ele>83.29</ele>
        <time>2021-08-20T19:18:06Z</time>
      </trkpt>
      <trkpt lat="43.26961" lon="-1.35009">
        <ele>83.29</ele>
        <time>2021-08-20T19:18:07Z</time>
      </trkpt>
      <trkpt lat="43.26962" lon="-1.35013">
        <ele>83.29</ele>
        <time>2021-08-20T19:18:08Z</time>
      </trkpt>
      <trkpt lat="43.26963" lon="-1.35017">
        <ele>83.29</ele>
        <time>2021-08-20T19:18:09Z</time>
      </trkpt>
      <trkpt lat="43.26964" lon="-1.3502">
        <ele>83.29</ele>
        <time>2021-08-20T19:18:10Z</time>
      </trkpt>
      <trkpt lat="43.26966" lon="-1.35022">
        <ele>83.29</ele>
        <time>2021-08-20T19:18:11Z</time>
      </trkpt>
      <trkpt lat="43.26969" lon="-1.35023">
        <ele>83.29</ele>
        <time>2021-08-20T19:18:12Z</time>
      </trkpt>
      <trkpt lat="43.26994" lon="-1.35029">
        <ele>84.25</ele>
        <time>2021-08-20T19:18:19Z</time>
      </trkpt>
      <trkpt lat="43.26998" lon="-1.3503">
        <ele>84.25</ele>
        <time>2021-08-20T19:18:20Z</time>
      </trkpt>
      <trkpt lat="43.27031" lon="-1.35036">
        <ele>84.25</ele>
        <time>2021-08-20T19:18:28Z</time>
      </trkpt>
      <trkpt lat="43.27064" lon="-1.3503">
        <ele>84.25</ele>
        <time>2021-08-20T19:18:36Z</time>
      </trkpt>
      <trkpt lat="43.27073" lon="-1.35026">
        <ele>84.25</ele>
        <time>2021-08-20T19:18:38Z</time>
      </trkpt>
      <trkpt lat="43.27077" lon="-1.35023">
        <ele>84.25</ele>
        <time>2021-08-20T19:18:39Z</time>
      </trkpt>
      <trkpt lat="43.2708" lon="-1.3502">
        <ele>84.25</ele>
        <time>2021-08-20T19:18:40Z</time>
      </trkpt>
      <trkpt lat="43.27082" lon="-1.35017">
        <ele>84.25</ele>
        <time>2021-08-20T19:18:41Z</time>
      </trkpt>
      <trkpt lat="43.27084" lon="-1.35015">
        <ele>84.73</ele>
        <time>2021-08-20T19:18:42Z</time>
      </trkpt>
      <trkpt lat="43.27085" lon="-1.35013">
        <ele>85.21</ele>
        <time>2021-08-20T19:18:43Z</time>
      </trkpt>
      <trkpt lat="43.27087" lon="-1.3501">
        <ele>85.69</ele>
        <time>2021-08-20T19:18:48Z</time>
      </trkpt>
      <trkpt lat="43.2709" lon="-1.35002">
        <ele>86.66</ele>
        <time>2021-08-20T19:18:58Z</time>
      </trkpt>
      <trkpt lat="43.27093" lon="-1.34993">
        <ele>88.58</ele>
        <time>2021-08-20T19:19:07Z</time>
      </trkpt>
      <trkpt lat="43.27101" lon="-1.34986">
        <ele>90.02</ele>
        <time>2021-08-20T19:19:18Z</time>
      </trkpt>
      <trkpt lat="43.27109" lon="-1.34985">
        <ele>91.94</ele>
        <time>2021-08-20T19:19:26Z</time>
      </trkpt>
      <trkpt lat="43.2712" lon="-1.34986">
        <ele>93.87</ele>
        <time>2021-08-20T19:19:37Z</time>
      </trkpt>
      <trkpt lat="43.27129" lon="-1.34987">
        <ele>95.31</ele>
        <time>2021-08-20T19:19:47Z</time>
      </trkpt>
      <trkpt lat="43.27139" lon="-1.34989">
        <ele>97.23</ele>
        <time>2021-08-20T19:19:58Z</time>
      </trkpt>
      <trkpt lat="43.27147" lon="-1.34992">
        <ele>98.67</ele>
        <time>2021-08-20T19:20:08Z</time>
      </trkpt>
      <trkpt lat="43.27154" lon="-1.34997">
        <ele>100.11</ele>
        <time>2021-08-20T19:20:17Z</time>
      </trkpt>
      <trkpt lat="43.27161" lon="-1.35001">
        <ele>101.08</ele>
        <time>2021-08-20T19:20:26Z</time>
      </trkpt>
      <trkpt lat="43.27171" lon="-1.35004">
        <ele>102.52</ele>
        <time>2021-08-20T19:20:36Z</time>
      </trkpt>
      <trkpt lat="43.27173" lon="-1.35003">
        <ele>103</ele>
        <time>2021-08-20T19:20:42Z</time>
      </trkpt>
      <trkpt lat="43.27179" lon="-1.35008">
        <ele>103</ele>
        <time>2021-08-20T19:20:47Z</time>
      </trkpt>
      <trkpt lat="43.27181" lon="-1.35012">
        <ele>103</ele>
        <time>2021-08-20T19:20:48Z</time>
      </trkpt>
      <trkpt lat="43.27191" lon="-1.35045">
        <ele>103</ele>
        <time>2021-08-20T19:20:56Z</time>
      </trkpt>
      <trkpt lat="43.27191" lon="-1.35065">
        <ele>104.44</ele>
        <time>2021-08-20T19:21:02Z</time>
      </trkpt>
      <trkpt lat="43.27198" lon="-1.35084">
        <ele>104.92</ele>
        <time>2021-08-20T19:21:08Z</time>
      </trkpt>
      <trkpt lat="43.27205" lon="-1.35097">
        <ele>103.48</ele>
        <time>2021-08-20T19:21:11Z</time>
      </trkpt>
      <trkpt lat="43.27226" lon="-1.35135">
        <ele>99.63</ele>
        <time>2021-08-20T19:21:17Z</time>
      </trkpt>
      <trkpt lat="43.2725" lon="-1.35163">
        <ele>95.31</ele>
        <time>2021-08-20T19:21:21Z</time>
      </trkpt>
      <trkpt lat="43.27285" lon="-1.35188">
        <ele>90.5</ele>
        <time>2021-08-20T19:21:26Z</time>
      </trkpt>
      <trkpt lat="43.27333" lon="-1.35225">
        <ele>89.54</ele>
        <time>2021-08-20T19:21:34Z</time>
      </trkpt>
      <trkpt lat="43.27343" lon="-1.35237">
        <ele>89.54</ele>
        <time>2021-08-20T19:21:36Z</time>
      </trkpt>
      <trkpt lat="43.27349" lon="-1.35241">
        <ele>89.06</ele>
        <time>2021-08-20T19:21:37Z</time>
      </trkpt>
      <trkpt lat="43.27356" lon="-1.35242">
        <ele>88.58</ele>
        <time>2021-08-20T19:21:38Z</time>
      </trkpt>
      <trkpt lat="43.27361" lon="-1.3524">
        <ele>88.1</ele>
        <time>2021-08-20T19:21:39Z</time>
      </trkpt>
      <trkpt lat="43.27367" lon="-1.35238">
        <ele>87.62</ele>
        <time>2021-08-20T19:21:40Z</time>
      </trkpt>
      <trkpt lat="43.27372" lon="-1.35236">
        <ele>87.14</ele>
        <time>2021-08-20T19:21:41Z</time>
      </trkpt>
      <trkpt lat="43.27378" lon="-1.35235">
        <ele>87.14</ele>
        <time>2021-08-20T19:21:42Z</time>
      </trkpt>
      <trkpt lat="43.27385" lon="-1.35235">
        <ele>87.14</ele>
        <time>2021-08-20T19:21:43Z</time>
      </trkpt>
      <trkpt lat="43.27427" lon="-1.35242">
        <ele>86.18</ele>
        <time>2021-08-20T19:21:51Z</time>
      </trkpt>
      <trkpt lat="43.27433" lon="-1.35244">
        <ele>86.18</ele>
        <time>2021-08-20T19:21:52Z</time>
      </trkpt>
      <trkpt lat="43.27446" lon="-1.35249">
        <ele>84.73</ele>
        <time>2021-08-20T19:21:54Z</time>
      </trkpt>
      <trkpt lat="43.27464" lon="-1.35257">
        <ele>84.73</ele>
        <time>2021-08-20T19:21:57Z</time>
      </trkpt>
      <trkpt lat="43.2747" lon="-1.35257">
        <ele>84.73</ele>
        <time>2021-08-20T19:21:58Z</time>
      </trkpt>
      <trkpt lat="43.27475" lon="-1.35257">
        <ele>85.69</ele>
        <time>2021-08-20T19:21:59Z</time>
      </trkpt>
      <trkpt lat="43.27492" lon="-1.35255">
        <ele>87.14</ele>
        <time>2021-08-20T19:22:03Z</time>
      </trkpt>
      <trkpt lat="43.27522" lon="-1.3526">
        <ele>89.54</ele>
        <time>2021-08-20T19:22:11Z</time>
      </trkpt>
      <trkpt lat="43.27537" lon="-1.35265">
        <ele>90.98</ele>
        <time>2021-08-20T19:22:18Z</time>
      </trkpt>
      <trkpt lat="43.27559" lon="-1.35271">
        <ele>91.46</ele>
        <time>2021-08-20T19:22:25Z</time>
      </trkpt>
      <trkpt lat="43.27592" lon="-1.35281">
        <ele>91.46</ele>
        <time>2021-08-20T19:22:33Z</time>
      </trkpt>
      <trkpt lat="43.27629" lon="-1.35301">
        <ele>91.46</ele>
        <time>2021-08-20T19:22:42Z</time>
      </trkpt>
      <trkpt lat="43.27663" lon="-1.35326">
        <ele>91.46</ele>
        <time>2021-08-20T19:22:50Z</time>
      </trkpt>
      <trkpt lat="43.27687" lon="-1.35342">
        <ele>90.02</ele>
        <time>2021-08-20T19:22:55Z</time>
      </trkpt>
      <trkpt lat="43.27706" lon="-1.35361">
        <ele>90.02</ele>
        <time>2021-08-20T19:23:00Z</time>
      </trkpt>
      <trkpt lat="43.2771" lon="-1.35365">
        <ele>89.54</ele>
        <time>2021-08-20T19:23:01Z</time>
      </trkpt>
      <trkpt lat="43.2775" lon="-1.35407">
        <ele>87.62</ele>
        <time>2021-08-20T19:23:10Z</time>
      </trkpt>
      <trkpt lat="43.2778" lon="-1.35429">
        <ele>83.77</ele>
        <time>2021-08-20T19:23:15Z</time>
      </trkpt>
      <trkpt lat="43.27802" lon="-1.35446">
        <ele>80.41</ele>
        <time>2021-08-20T19:23:18Z</time>
      </trkpt>
      <trkpt lat="43.27846" lon="-1.35462">
        <ele>77.04</ele>
        <time>2021-08-20T19:23:23Z</time>
      </trkpt>
      <trkpt lat="43.27863" lon="-1.35465">
        <ele>75.6</ele>
        <time>2021-08-20T19:23:25Z</time>
      </trkpt>
      <trkpt lat="43.27872" lon="-1.35469">
        <ele>75.12</ele>
        <time>2021-08-20T19:23:26Z</time>
      </trkpt>
      <trkpt lat="43.2788" lon="-1.35473">
        <ele>75.12</ele>
        <time>2021-08-20T19:23:27Z</time>
      </trkpt>
      <trkpt lat="43.27904" lon="-1.3549">
        <ele>73.68</ele>
        <time>2021-08-20T19:23:30Z</time>
      </trkpt>
      <trkpt lat="43.27947" lon="-1.35522">
        <ele>73.2</ele>
        <time>2021-08-20T19:23:36Z</time>
      </trkpt>
      <trkpt lat="43.27953" lon="-1.35526">
        <ele>73.2</ele>
        <time>2021-08-20T19:23:37Z</time>
      </trkpt>
      <trkpt lat="43.28002" lon="-1.35541">
        <ele>72.72</ele>
        <time>2021-08-20T19:23:44Z</time>
      </trkpt>
      <trkpt lat="43.28049" lon="-1.35549">
        <ele>72.72</ele>
        <time>2021-08-20T19:23:52Z</time>
      </trkpt>
      <trkpt lat="43.28086" lon="-1.35555">
        <ele>72.72</ele>
        <time>2021-08-20T19:23:59Z</time>
      </trkpt>
      <trkpt lat="43.28132" lon="-1.35552">
        <ele>72.72</ele>
        <time>2021-08-20T19:24:07Z</time>
      </trkpt>
      <trkpt lat="43.2815" lon="-1.3555">
        <ele>72.24</ele>
        <time>2021-08-20T19:24:10Z</time>
      </trkpt>
      <trkpt lat="43.28155" lon="-1.3555">
        <ele>72.24</ele>
        <time>2021-08-20T19:24:11Z</time>
      </trkpt>
      <trkpt lat="43.28161" lon="-1.35552">
        <ele>72.24</ele>
        <time>2021-08-20T19:24:12Z</time>
      </trkpt>
      <trkpt lat="43.282" lon="-1.35561">
        <ele>71.76</ele>
        <time>2021-08-20T19:24:20Z</time>
      </trkpt>
      <trkpt lat="43.28241" lon="-1.35567">
        <ele>71.27</ele>
        <time>2021-08-20T19:24:28Z</time>
      </trkpt>
      <trkpt lat="43.28286" lon="-1.35569">
        <ele>70.79</ele>
        <time>2021-08-20T19:24:36Z</time>
      </trkpt>
      <trkpt lat="43.28316" lon="-1.35569">
        <ele>70.79</ele>
        <time>2021-08-20T19:24:42Z</time>
      </trkpt>
      <trkpt lat="43.28356" lon="-1.35574">
        <ele>71.76</ele>
        <time>2021-08-20T19:24:50Z</time>
      </trkpt>
      <trkpt lat="43.28404" lon="-1.35571">
        <ele>71.76</ele>
        <time>2021-08-20T19:25:00Z</time>
      </trkpt>
      <trkpt lat="43.28426" lon="-1.35568">
        <ele>74.16</ele>
        <time>2021-08-20T19:25:07Z</time>
      </trkpt>
      <trkpt lat="43.28442" lon="-1.35565">
        <ele>74.64</ele>
        <time>2021-08-20T19:25:15Z</time>
      </trkpt>
      <trkpt lat="43.28448" lon="-1.35563">
        <ele>76.08</ele>
        <time>2021-08-20T19:25:21Z</time>
      </trkpt>
      <trkpt lat="43.28461" lon="-1.35561">
        <ele>77.52</ele>
        <time>2021-08-20T19:25:32Z</time>
      </trkpt>
      <trkpt lat="43.28471" lon="-1.35562">
        <ele>78.97</ele>
        <time>2021-08-20T19:25:42Z</time>
      </trkpt>
      <trkpt lat="43.28483" lon="-1.35564">
        <ele>80.89</ele>
        <time>2021-08-20T19:25:53Z</time>
      </trkpt>
      <trkpt lat="43.28494" lon="-1.35566">
        <ele>80.89</ele>
        <time>2021-08-20T19:26:01Z</time>
      </trkpt>
      <trkpt lat="43.28496" lon="-1.35567">
        <ele>81.37</ele>
        <time>2021-08-20T19:26:02Z</time>
      </trkpt>
      <trkpt lat="43.28497" lon="-1.35567">
        <ele>81.37</ele>
        <time>2021-08-20T19:26:03Z</time>
      </trkpt>
      <trkpt lat="43.28498" lon="-1.35567">
        <ele>81.85</ele>
        <time>2021-08-20T19:26:04Z</time>
      </trkpt>
      <trkpt lat="43.28506" lon="-1.35566">
        <ele>82.33</ele>
        <time>2021-08-20T19:26:10Z</time>
      </trkpt>
      <trkpt lat="43.2852" lon="-1.35561">
        <ele>83.77</ele>
        <time>2021-08-20T19:26:22Z</time>
      </trkpt>
      <trkpt lat="43.28532" lon="-1.35556">
        <ele>85.21</ele>
        <time>2021-08-20T19:26:32Z</time>
      </trkpt>
      <trkpt lat="43.28543" lon="-1.35548">
        <ele>86.66</ele>
        <time>2021-08-20T19:26:43Z</time>
      </trkpt>
      <trkpt lat="43.28551" lon="-1.35539">
        <ele>88.1</ele>
        <time>2021-08-20T19:26:53Z</time>
      </trkpt>
      <trkpt lat="43.28556" lon="-1.35528">
        <ele>90.5</ele>
        <time>2021-08-20T19:27:05Z</time>
      </trkpt>
      <trkpt lat="43.28559" lon="-1.3552">
        <ele>91.94</ele>
        <time>2021-08-20T19:27:14Z</time>
      </trkpt>
      <trkpt lat="43.28562" lon="-1.35512">
        <ele>93.39</ele>
        <time>2021-08-20T19:27:23Z</time>
      </trkpt>
      <trkpt lat="43.28565" lon="-1.35502">
        <ele>94.83</ele>
        <time>2021-08-20T19:27:31Z</time>
      </trkpt>
      <trkpt lat="43.28571" lon="-1.3549">
        <ele>95.79</ele>
        <time>2021-08-20T19:27:40Z</time>
      </trkpt>
      <trkpt lat="43.28573" lon="-1.35487">
        <ele>96.27</ele>
        <time>2021-08-20T19:27:46Z</time>
      </trkpt>
      <trkpt lat="43.2858" lon="-1.35479">
        <ele>96.27</ele>
        <time>2021-08-20T19:27:52Z</time>
      </trkpt>
      <trkpt lat="43.2859" lon="-1.35467">
        <ele>97.23</ele>
        <time>2021-08-20T19:27:59Z</time>
      </trkpt>
      <trkpt lat="43.28601" lon="-1.35452">
        <ele>98.67</ele>
        <time>2021-08-20T19:28:07Z</time>
      </trkpt>
      <trkpt lat="43.28612" lon="-1.35437">
        <ele>99.63</ele>
        <time>2021-08-20T19:28:15Z</time>
      </trkpt>
      <trkpt lat="43.28619" lon="-1.35427">
        <ele>99.63</ele>
        <time>2021-08-20T19:28:20Z</time>
      </trkpt>
      <trkpt lat="43.2863" lon="-1.35402">
        <ele>100.11</ele>
        <time>2021-08-20T19:28:28Z</time>
      </trkpt>
      <trkpt lat="43.28632" lon="-1.35396">
        <ele>100.11</ele>
        <time>2021-08-20T19:28:30Z</time>
      </trkpt>
      <trkpt lat="43.28633" lon="-1.35393">
        <ele>101.08</ele>
        <time>2021-08-20T19:28:31Z</time>
      </trkpt>
      <trkpt lat="43.28634" lon="-1.3539">
        <ele>101.08</ele>
        <time>2021-08-20T19:28:32Z</time>
      </trkpt>
      <trkpt lat="43.28645" lon="-1.35362">
        <ele>101.08</ele>
        <time>2021-08-20T19:28:40Z</time>
      </trkpt>
      <trkpt lat="43.28657" lon="-1.35343">
        <ele>101.56</ele>
        <time>2021-08-20T19:28:47Z</time>
      </trkpt>
      <trkpt lat="43.28676" lon="-1.35328">
        <ele>102.52</ele>
        <time>2021-08-20T19:28:55Z</time>
      </trkpt>
      <trkpt lat="43.28701" lon="-1.35323">
        <ele>102.52</ele>
        <time>2021-08-20T19:29:04Z</time>
      </trkpt>
      <trkpt lat="43.2872" lon="-1.35323">
        <ele>103.96</ele>
        <time>2021-08-20T19:29:12Z</time>
      </trkpt>
      <trkpt lat="43.28738" lon="-1.35327">
        <ele>104.44</ele>
        <time>2021-08-20T19:29:20Z</time>
      </trkpt>
      <trkpt lat="43.28755" lon="-1.35333">
        <ele>104.92</ele>
        <time>2021-08-20T19:29:27Z</time>
      </trkpt>
      <trkpt lat="43.28774" lon="-1.35341">
        <ele>104.92</ele>
        <time>2021-08-20T19:29:35Z</time>
      </trkpt>
      <trkpt lat="43.28785" lon="-1.35346">
        <ele>106.84</ele>
        <time>2021-08-20T19:29:41Z</time>
      </trkpt>
      <trkpt lat="43.28799" lon="-1.35351">
        <ele>107.81</ele>
        <time>2021-08-20T19:29:48Z</time>
      </trkpt>
      <trkpt lat="43.2882" lon="-1.35358">
        <ele>108.29</ele>
        <time>2021-08-20T19:29:56Z</time>
      </trkpt>
      <trkpt lat="43.28844" lon="-1.35366">
        <ele>105.4</ele>
        <time>2021-08-20T19:30:03Z</time>
      </trkpt>
      <trkpt lat="43.28855" lon="-1.3537">
        <ele>104.44</ele>
        <time>2021-08-20T19:30:05Z</time>
      </trkpt>
      <trkpt lat="43.28862" lon="-1.35373">
        <ele>103.48</ele>
        <time>2021-08-20T19:30:06Z</time>
      </trkpt>
      <trkpt lat="43.28905" lon="-1.35399">
        <ele>100.6</ele>
        <time>2021-08-20T19:30:13Z</time>
      </trkpt>
      <trkpt lat="43.2891" lon="-1.35404">
        <ele>100.6</ele>
        <time>2021-08-20T19:30:14Z</time>
      </trkpt>
      <trkpt lat="43.28914" lon="-1.35409">
        <ele>100.6</ele>
        <time>2021-08-20T19:30:15Z</time>
      </trkpt>
      <trkpt lat="43.28917" lon="-1.35414">
        <ele>99.63</ele>
        <time>2021-08-20T19:30:16Z</time>
      </trkpt>
      <trkpt lat="43.2892" lon="-1.35421">
        <ele>99.15</ele>
        <time>2021-08-20T19:30:17Z</time>
      </trkpt>
      <trkpt lat="43.28922" lon="-1.35429">
        <ele>98.67</ele>
        <time>2021-08-20T19:30:18Z</time>
      </trkpt>
      <trkpt lat="43.28923" lon="-1.35438">
        <ele>98.19</ele>
        <time>2021-08-20T19:30:19Z</time>
      </trkpt>
      <trkpt lat="43.28925" lon="-1.35447">
        <ele>97.71</ele>
        <time>2021-08-20T19:30:20Z</time>
      </trkpt>
      <trkpt lat="43.28927" lon="-1.35456">
        <ele>96.75</ele>
        <time>2021-08-20T19:30:21Z</time>
      </trkpt>
      <trkpt lat="43.28929" lon="-1.35464">
        <ele>96.75</ele>
        <time>2021-08-20T19:30:22Z</time>
      </trkpt>
      <trkpt lat="43.28932" lon="-1.35472">
        <ele>96.27</ele>
        <time>2021-08-20T19:30:23Z</time>
      </trkpt>
      <trkpt lat="43.28935" lon="-1.35477">
        <ele>96.27</ele>
        <time>2021-08-20T19:30:24Z</time>
      </trkpt>
      <trkpt lat="43.28938" lon="-1.3548">
        <ele>96.75</ele>
        <time>2021-08-20T19:30:25Z</time>
      </trkpt>
      <trkpt lat="43.28941" lon="-1.3548">
        <ele>96.75</ele>
        <time>2021-08-20T19:30:26Z</time>
      </trkpt>
      <trkpt lat="43.28944" lon="-1.35479">
        <ele>97.71</ele>
        <time>2021-08-20T19:30:27Z</time>
      </trkpt>
      <trkpt lat="43.28946" lon="-1.35477">
        <ele>97.71</ele>
        <time>2021-08-20T19:30:28Z</time>
      </trkpt>
      <trkpt lat="43.28948" lon="-1.35475">
        <ele>98.67</ele>
        <time>2021-08-20T19:30:29Z</time>
      </trkpt>
      <trkpt lat="43.28959" lon="-1.3546">
        <ele>100.6</ele>
        <time>2021-08-20T19:30:36Z</time>
      </trkpt>
      <trkpt lat="43.28976" lon="-1.35452">
        <ele>102.04</ele>
        <time>2021-08-20T19:30:44Z</time>
      </trkpt>
      <trkpt lat="43.28992" lon="-1.35454">
        <ele>102.52</ele>
        <time>2021-08-20T19:30:51Z</time>
      </trkpt>
      <trkpt lat="43.29016" lon="-1.35461">
        <ele>102.52</ele>
        <time>2021-08-20T19:30:59Z</time>
      </trkpt>
      <trkpt lat="43.29024" lon="-1.35461">
        <ele>102.52</ele>
        <time>2021-08-20T19:31:01Z</time>
      </trkpt>
      <trkpt lat="43.2904" lon="-1.35457">
        <ele>99.15</ele>
        <time>2021-08-20T19:31:04Z</time>
      </trkpt>
      <trkpt lat="43.29045" lon="-1.35456">
        <ele>98.19</ele>
        <time>2021-08-20T19:31:05Z</time>
      </trkpt>
      <trkpt lat="43.29055" lon="-1.35454">
        <ele>96.75</ele>
        <time>2021-08-20T19:31:07Z</time>
      </trkpt>
      <trkpt lat="43.29066" lon="-1.35451">
        <ele>94.35</ele>
        <time>2021-08-20T19:31:09Z</time>
      </trkpt>
      <trkpt lat="43.29081" lon="-1.35451">
        <ele>90.98</ele>
        <time>2021-08-20T19:31:11Z</time>
      </trkpt>
      <trkpt lat="43.29088" lon="-1.35453">
        <ele>90.5</ele>
        <time>2021-08-20T19:31:12Z</time>
      </trkpt>
      <trkpt lat="43.29095" lon="-1.35455">
        <ele>89.06</ele>
        <time>2021-08-20T19:31:13Z</time>
      </trkpt>
      <trkpt lat="43.29108" lon="-1.3546">
        <ele>88.58</ele>
        <time>2021-08-20T19:31:15Z</time>
      </trkpt>
      <trkpt lat="43.29127" lon="-1.35468">
        <ele>86.66</ele>
        <time>2021-08-20T19:31:18Z</time>
      </trkpt>
      <trkpt lat="43.29134" lon="-1.35468">
        <ele>86.18</ele>
        <time>2021-08-20T19:31:19Z</time>
      </trkpt>
      <trkpt lat="43.2914" lon="-1.35468">
        <ele>86.18</ele>
        <time>2021-08-20T19:31:20Z</time>
      </trkpt>
      <trkpt lat="43.29147" lon="-1.35467">
        <ele>85.21</ele>
        <time>2021-08-20T19:31:21Z</time>
      </trkpt>
      <trkpt lat="43.29153" lon="-1.35465">
        <ele>84.25</ele>
        <time>2021-08-20T19:31:22Z</time>
      </trkpt>
      <trkpt lat="43.29159" lon="-1.35463">
        <ele>83.77</ele>
        <time>2021-08-20T19:31:23Z</time>
      </trkpt>
      <trkpt lat="43.29166" lon="-1.35461">
        <ele>82.81</ele>
        <time>2021-08-20T19:31:24Z</time>
      </trkpt>
      <trkpt lat="43.29178" lon="-1.35458">
        <ele>81.85</ele>
        <time>2021-08-20T19:31:26Z</time>
      </trkpt>
      <trkpt lat="43.29184" lon="-1.35461">
        <ele>81.37</ele>
        <time>2021-08-20T19:31:27Z</time>
      </trkpt>
      <trkpt lat="43.29188" lon="-1.35467">
        <ele>80.89</ele>
        <time>2021-08-20T19:31:28Z</time>
      </trkpt>
      <trkpt lat="43.29193" lon="-1.35474">
        <ele>79.93</ele>
        <time>2021-08-20T19:31:29Z</time>
      </trkpt>
      <trkpt lat="43.29196" lon="-1.35481">
        <ele>79.45</ele>
        <time>2021-08-20T19:31:30Z</time>
      </trkpt>
      <trkpt lat="43.29201" lon="-1.35488">
        <ele>79.45</ele>
        <time>2021-08-20T19:31:31Z</time>
      </trkpt>
      <trkpt lat="43.29205" lon="-1.35494">
        <ele>78.97</ele>
        <time>2021-08-20T19:31:32Z</time>
      </trkpt>
      <trkpt lat="43.2921" lon="-1.35498">
        <ele>78.97</ele>
        <time>2021-08-20T19:31:33Z</time>
      </trkpt>
      <trkpt lat="43.29216" lon="-1.35499">
        <ele>78.97</ele>
        <time>2021-08-20T19:31:34Z</time>
      </trkpt>
      <trkpt lat="43.29221" lon="-1.35497">
        <ele>78.97</ele>
        <time>2021-08-20T19:31:35Z</time>
      </trkpt>
      <trkpt lat="43.29223" lon="-1.35494">
        <ele>78.97</ele>
        <time>2021-08-20T19:31:36Z</time>
      </trkpt>
      <trkpt lat="43.29225" lon="-1.35492">
        <ele>80.89</ele>
        <time>2021-08-20T19:31:37Z</time>
      </trkpt>
      <trkpt lat="43.29226" lon="-1.35491">
        <ele>80.89</ele>
        <time>2021-08-20T19:31:38Z</time>
      </trkpt>
      <trkpt lat="43.29228" lon="-1.35489">
        <ele>81.85</ele>
        <time>2021-08-20T19:31:39Z</time>
      </trkpt>
      <trkpt lat="43.29229" lon="-1.35488">
        <ele>82.33</ele>
        <time>2021-08-20T19:31:40Z</time>
      </trkpt>
      <trkpt lat="43.29231" lon="-1.35486">
        <ele>82.81</ele>
        <time>2021-08-20T19:31:41Z</time>
      </trkpt>
      <trkpt lat="43.29231" lon="-1.35483">
        <ele>82.81</ele>
        <time>2021-08-20T19:31:42Z</time>
      </trkpt>
      <trkpt lat="43.29232" lon="-1.35481">
        <ele>83.29</ele>
        <time>2021-08-20T19:31:43Z</time>
      </trkpt>
      <trkpt lat="43.29232" lon="-1.35479">
        <ele>83.77</ele>
        <time>2021-08-20T19:31:44Z</time>
      </trkpt>
      <trkpt lat="43.29235" lon="-1.35464">
        <ele>85.69</ele>
        <time>2021-08-20T19:31:51Z</time>
      </trkpt>
      <trkpt lat="43.29238" lon="-1.3546">
        <ele>86.18</ele>
        <time>2021-08-20T19:31:57Z</time>
      </trkpt>
      <trkpt lat="43.29248" lon="-1.35452">
        <ele>88.1</ele>
        <time>2021-08-20T19:32:07Z</time>
      </trkpt>
      <trkpt lat="43.29259" lon="-1.35447">
        <ele>89.54</ele>
        <time>2021-08-20T19:32:18Z</time>
      </trkpt>
      <trkpt lat="43.29271" lon="-1.35444">
        <ele>90.98</ele>
        <time>2021-08-20T19:32:27Z</time>
      </trkpt>
      <trkpt lat="43.29276" lon="-1.35443">
        <ele>90.98</ele>
        <time>2021-08-20T19:32:33Z</time>
      </trkpt>
      <trkpt lat="43.29287" lon="-1.35439">
        <ele>91.46</ele>
        <time>2021-08-20T19:32:39Z</time>
      </trkpt>
      <trkpt lat="43.29309" lon="-1.35427">
        <ele>91.46</ele>
        <time>2021-08-20T19:32:47Z</time>
      </trkpt>
      <trkpt lat="43.29331" lon="-1.35412">
        <ele>90.02</ele>
        <time>2021-08-20T19:32:53Z</time>
      </trkpt>
      <trkpt lat="43.2935" lon="-1.35396">
        <ele>86.66</ele>
        <time>2021-08-20T19:32:57Z</time>
      </trkpt>
      <trkpt lat="43.29393" lon="-1.35354">
        <ele>84.73</ele>
        <time>2021-08-20T19:33:05Z</time>
      </trkpt>
      <trkpt lat="43.29433" lon="-1.35315">
        <ele>84.73</ele>
        <time>2021-08-20T19:33:13Z</time>
      </trkpt>
      <trkpt lat="43.29458" lon="-1.35289">
        <ele>85.21</ele>
        <time>2021-08-20T19:33:20Z</time>
      </trkpt>
      <trkpt lat="43.29476" lon="-1.35276">
        <ele>86.18</ele>
        <time>2021-08-20T19:33:25Z</time>
      </trkpt>
      <trkpt lat="43.29504" lon="-1.35259">
        <ele>87.62</ele>
        <time>2021-08-20T19:33:33Z</time>
      </trkpt>
      <trkpt lat="43.29535" lon="-1.35236">
        <ele>88.1</ele>
        <time>2021-08-20T19:33:42Z</time>
      </trkpt>
      <trkpt lat="43.29551" lon="-1.35224">
        <ele>86.66</ele>
        <time>2021-08-20T19:33:46Z</time>
      </trkpt>
      <trkpt lat="43.29583" lon="-1.35206">
        <ele>86.66</ele>
        <time>2021-08-20T19:33:54Z</time>
      </trkpt>
      <trkpt lat="43.29614" lon="-1.35193">
        <ele>86.66</ele>
        <time>2021-08-20T19:34:02Z</time>
      </trkpt>
      <trkpt lat="43.29638" lon="-1.35187">
        <ele>86.66</ele>
        <time>2021-08-20T19:34:08Z</time>
      </trkpt>
      <trkpt lat="43.29642" lon="-1.35187">
        <ele>86.66</ele>
        <time>2021-08-20T19:34:09Z</time>
      </trkpt>
      <trkpt lat="43.2966" lon="-1.35191">
        <ele>88.1</ele>
        <time>2021-08-20T19:34:14Z</time>
      </trkpt>
      <trkpt lat="43.29674" lon="-1.35198">
        <ele>90.5</ele>
        <time>2021-08-20T19:34:21Z</time>
      </trkpt>
      <trkpt lat="43.2969" lon="-1.35206">
        <ele>91.94</ele>
        <time>2021-08-20T19:34:30Z</time>
      </trkpt>
      <trkpt lat="43.29705" lon="-1.35215">
        <ele>93.39</ele>
        <time>2021-08-20T19:34:39Z</time>
      </trkpt>
      <trkpt lat="43.29719" lon="-1.35224">
        <ele>93.87</ele>
        <time>2021-08-20T19:34:47Z</time>
      </trkpt>
      <trkpt lat="43.2974" lon="-1.35238">
        <ele>94.83</ele>
        <time>2021-08-20T19:34:57Z</time>
      </trkpt>
      <trkpt lat="43.29758" lon="-1.35257">
        <ele>96.27</ele>
        <time>2021-08-20T19:35:06Z</time>
      </trkpt>
      <trkpt lat="43.2977" lon="-1.35284">
        <ele>96.27</ele>
        <time>2021-08-20T19:35:14Z</time>
      </trkpt>
      <trkpt lat="43.29776" lon="-1.35299">
        <ele>96.27</ele>
        <time>2021-08-20T19:35:17Z</time>
      </trkpt>
      <trkpt lat="43.29779" lon="-1.35304">
        <ele>95.31</ele>
        <time>2021-08-20T19:35:18Z</time>
      </trkpt>
      <trkpt lat="43.29782" lon="-1.35307">
        <ele>95.31</ele>
        <time>2021-08-20T19:35:19Z</time>
      </trkpt>
      <trkpt lat="43.29786" lon="-1.3531">
        <ele>95.31</ele>
        <time>2021-08-20T19:35:20Z</time>
      </trkpt>
      <trkpt lat="43.2979" lon="-1.35311">
        <ele>95.31</ele>
        <time>2021-08-20T19:35:21Z</time>
      </trkpt>
      <trkpt lat="43.29793" lon="-1.35311">
        <ele>96.27</ele>
        <time>2021-08-20T19:35:22Z</time>
      </trkpt>
      <trkpt lat="43.29796" lon="-1.35312">
        <ele>96.27</ele>
        <time>2021-08-20T19:35:23Z</time>
      </trkpt>
      <trkpt lat="43.29815" lon="-1.35314">
        <ele>98.67</ele>
        <time>2021-08-20T19:35:31Z</time>
      </trkpt>
      <trkpt lat="43.29829" lon="-1.35325">
        <ele>99.63</ele>
        <time>2021-08-20T19:35:39Z</time>
      </trkpt>
      <trkpt lat="43.29846" lon="-1.3534">
        <ele>100.6</ele>
        <time>2021-08-20T19:35:48Z</time>
      </trkpt>
      <trkpt lat="43.29872" lon="-1.3536">
        <ele>101.08</ele>
        <time>2021-08-20T19:35:58Z</time>
      </trkpt>
      <trkpt lat="43.29898" lon="-1.3539">
        <ele>101.56</ele>
        <time>2021-08-20T19:36:08Z</time>
      </trkpt>
      <trkpt lat="43.29917" lon="-1.35417">
        <ele>101.56</ele>
        <time>2021-08-20T19:36:16Z</time>
      </trkpt>
      <trkpt lat="43.29938" lon="-1.35445">
        <ele>101.56</ele>
        <time>2021-08-20T19:36:24Z</time>
      </trkpt>
      <trkpt lat="43.29962" lon="-1.35474">
        <ele>101.56</ele>
        <time>2021-08-20T19:36:32Z</time>
      </trkpt>
      <trkpt lat="43.29978" lon="-1.35493">
        <ele>99.63</ele>
        <time>2021-08-20T19:36:36Z</time>
      </trkpt>
      <trkpt lat="43.30008" lon="-1.3553">
        <ele>96.27</ele>
        <time>2021-08-20T19:36:43Z</time>
      </trkpt>
      <trkpt lat="43.30018" lon="-1.35541">
        <ele>94.83</ele>
        <time>2021-08-20T19:36:45Z</time>
      </trkpt>
      <trkpt lat="43.30035" lon="-1.35566">
        <ele>93.39</ele>
        <time>2021-08-20T19:36:49Z</time>
      </trkpt>
      <trkpt lat="43.30038" lon="-1.35573">
        <ele>92.9</ele>
        <time>2021-08-20T19:36:50Z</time>
      </trkpt>
      <trkpt lat="43.30041" lon="-1.3558">
        <ele>91.46</ele>
        <time>2021-08-20T19:36:51Z</time>
      </trkpt>
      <trkpt lat="43.30042" lon="-1.35588">
        <ele>91.46</ele>
        <time>2021-08-20T19:36:52Z</time>
      </trkpt>
      <trkpt lat="43.30042" lon="-1.35595">
        <ele>91.46</ele>
        <time>2021-08-20T19:36:53Z</time>
      </trkpt>
      <trkpt lat="43.30041" lon="-1.35602">
        <ele>91.46</ele>
        <time>2021-08-20T19:36:54Z</time>
      </trkpt>
      <trkpt lat="43.30039" lon="-1.35608">
        <ele>91.46</ele>
        <time>2021-08-20T19:36:55Z</time>
      </trkpt>
      <trkpt lat="43.30037" lon="-1.35614">
        <ele>90.98</ele>
        <time>2021-08-20T19:36:56Z</time>
      </trkpt>
      <trkpt lat="43.30025" lon="-1.35648">
        <ele>89.54</ele>
        <time>2021-08-20T19:37:01Z</time>
      </trkpt>
      <trkpt lat="43.30019" lon="-1.35661">
        <ele>89.54</ele>
        <time>2021-08-20T19:37:03Z</time>
      </trkpt>
      <trkpt lat="43.30015" lon="-1.35666">
        <ele>89.06</ele>
        <time>2021-08-20T19:37:04Z</time>
      </trkpt>
      <trkpt lat="43.30008" lon="-1.35676">
        <ele>89.06</ele>
        <time>2021-08-20T19:37:06Z</time>
      </trkpt>
      <trkpt lat="43.29999" lon="-1.35685">
        <ele>89.06</ele>
        <time>2021-08-20T19:37:08Z</time>
      </trkpt>
      <trkpt lat="43.29996" lon="-1.3569">
        <ele>88.1</ele>
        <time>2021-08-20T19:37:09Z</time>
      </trkpt>
      <trkpt lat="43.29994" lon="-1.35697">
        <ele>87.62</ele>
        <time>2021-08-20T19:37:10Z</time>
      </trkpt>
      <trkpt lat="43.29994" lon="-1.35705">
        <ele>87.62</ele>
        <time>2021-08-20T19:37:11Z</time>
      </trkpt>
      <trkpt lat="43.29994" lon="-1.35713">
        <ele>86.66</ele>
        <time>2021-08-20T19:37:12Z</time>
      </trkpt>
      <trkpt lat="43.29994" lon="-1.35732">
        <ele>84.73</ele>
        <time>2021-08-20T19:37:14Z</time>
      </trkpt>
      <trkpt lat="43.29993" lon="-1.35742">
        <ele>84.73</ele>
        <time>2021-08-20T19:37:15Z</time>
      </trkpt>
      <trkpt lat="43.29992" lon="-1.35753">
        <ele>84.25</ele>
        <time>2021-08-20T19:37:16Z</time>
      </trkpt>
      <trkpt lat="43.29989" lon="-1.35762">
        <ele>83.29</ele>
        <time>2021-08-20T19:37:17Z</time>
      </trkpt>
      <trkpt lat="43.29987" lon="-1.35772">
        <ele>83.29</ele>
        <time>2021-08-20T19:37:18Z</time>
      </trkpt>
      <trkpt lat="43.29983" lon="-1.3578">
        <ele>82.81</ele>
        <time>2021-08-20T19:37:19Z</time>
      </trkpt>
      <trkpt lat="43.2998" lon="-1.35788">
        <ele>82.81</ele>
        <time>2021-08-20T19:37:20Z</time>
      </trkpt>
      <trkpt lat="43.29976" lon="-1.35795">
        <ele>81.85</ele>
        <time>2021-08-20T19:37:21Z</time>
      </trkpt>
      <trkpt lat="43.29967" lon="-1.35811">
        <ele>80.41</ele>
        <time>2021-08-20T19:37:23Z</time>
      </trkpt>
      <trkpt lat="43.29964" lon="-1.3582">
        <ele>79.45</ele>
        <time>2021-08-20T19:37:24Z</time>
      </trkpt>
      <trkpt lat="43.29961" lon="-1.3583">
        <ele>78.97</ele>
        <time>2021-08-20T19:37:25Z</time>
      </trkpt>
      <trkpt lat="43.29955" lon="-1.35861">
        <ele>78.97</ele>
        <time>2021-08-20T19:37:28Z</time>
      </trkpt>
      <trkpt lat="43.29951" lon="-1.35906">
        <ele>75.12</ele>
        <time>2021-08-20T19:37:32Z</time>
      </trkpt>
      <trkpt lat="43.2995" lon="-1.35918">
        <ele>75.12</ele>
        <time>2021-08-20T19:37:33Z</time>
      </trkpt>
      <trkpt lat="43.2995" lon="-1.35997">
        <ele>73.2</ele>
        <time>2021-08-20T19:37:40Z</time>
      </trkpt>
      <trkpt lat="43.29949" lon="-1.36059">
        <ele>70.31</ele>
        <time>2021-08-20T19:37:46Z</time>
      </trkpt>
      <trkpt lat="43.29949" lon="-1.36068">
        <ele>69.35</ele>
        <time>2021-08-20T19:37:47Z</time>
      </trkpt>
      <trkpt lat="43.2995" lon="-1.36075">
        <ele>69.35</ele>
        <time>2021-08-20T19:37:48Z</time>
      </trkpt>
      <trkpt lat="43.29952" lon="-1.36082">
        <ele>68.87</ele>
        <time>2021-08-20T19:37:49Z</time>
      </trkpt>
      <trkpt lat="43.29954" lon="-1.36098">
        <ele>68.39</ele>
        <time>2021-08-20T19:37:52Z</time>
      </trkpt>
      <trkpt lat="43.29953" lon="-1.36102">
        <ele>68.39</ele>
        <time>2021-08-20T19:37:53Z</time>
      </trkpt>
      <trkpt lat="43.29949" lon="-1.36113">
        <ele>69.35</ele>
        <time>2021-08-20T19:37:58Z</time>
      </trkpt>
      <trkpt lat="43.29948" lon="-1.36113">
        <ele>69.35</ele>
        <time>2021-08-20T19:37:59Z</time>
      </trkpt>
      <trkpt lat="43.29947" lon="-1.36121">
        <ele>70.31</ele>
        <time>2021-08-20T19:38:06Z</time>
      </trkpt>
      <trkpt lat="43.29949" lon="-1.36132">
        <ele>71.27</ele>
        <time>2021-08-20T19:38:14Z</time>
      </trkpt>
      <trkpt lat="43.29953" lon="-1.36149">
        <ele>72.72</ele>
        <time>2021-08-20T19:38:25Z</time>
      </trkpt>
      <trkpt lat="43.29958" lon="-1.36162">
        <ele>74.64</ele>
        <time>2021-08-20T19:38:35Z</time>
      </trkpt>
      <trkpt lat="43.29963" lon="-1.3617">
        <ele>76.08</ele>
        <time>2021-08-20T19:38:44Z</time>
      </trkpt>
      <trkpt lat="43.29969" lon="-1.36178">
        <ele>78</ele>
        <time>2021-08-20T19:38:53Z</time>
      </trkpt>
      <trkpt lat="43.29975" lon="-1.36192">
        <ele>79.45</ele>
        <time>2021-08-20T19:39:03Z</time>
      </trkpt>
      <trkpt lat="43.29981" lon="-1.36204">
        <ele>80.89</ele>
        <time>2021-08-20T19:39:12Z</time>
      </trkpt>
      <trkpt lat="43.29985" lon="-1.36218">
        <ele>82.81</ele>
        <time>2021-08-20T19:39:23Z</time>
      </trkpt>
      <trkpt lat="43.29988" lon="-1.36238">
        <ele>84.25</ele>
        <time>2021-08-20T19:39:35Z</time>
      </trkpt>
      <trkpt lat="43.29987" lon="-1.36251">
        <ele>85.21</ele>
        <time>2021-08-20T19:39:43Z</time>
      </trkpt>
      <trkpt lat="43.29986" lon="-1.36265">
        <ele>86.66</ele>
        <time>2021-08-20T19:39:53Z</time>
      </trkpt>
      <trkpt lat="43.29985" lon="-1.36273">
        <ele>87.14</ele>
        <time>2021-08-20T19:39:58Z</time>
      </trkpt>
      <trkpt lat="43.29986" lon="-1.36285">
        <ele>88.58</ele>
        <time>2021-08-20T19:40:07Z</time>
      </trkpt>
      <trkpt lat="43.29986" lon="-1.36286">
        <ele>88.58</ele>
        <time>2021-08-20T19:40:08Z</time>
      </trkpt>
      <trkpt lat="43.29989" lon="-1.36298">
        <ele>90.02</ele>
        <time>2021-08-20T19:40:17Z</time>
      </trkpt>
      <trkpt lat="43.29989" lon="-1.3631">
        <ele>91.46</ele>
        <time>2021-08-20T19:40:26Z</time>
      </trkpt>
      <trkpt lat="43.29989" lon="-1.36312">
        <ele>91.94</ele>
        <time>2021-08-20T19:40:27Z</time>
      </trkpt>
      <trkpt lat="43.29988" lon="-1.36318">
        <ele>92.9</ele>
        <time>2021-08-20T19:40:32Z</time>
      </trkpt>
      <trkpt lat="43.29983" lon="-1.36329">
        <ele>94.35</ele>
        <time>2021-08-20T19:40:42Z</time>
      </trkpt>
      <trkpt lat="43.29981" lon="-1.36337">
        <ele>95.31</ele>
        <time>2021-08-20T19:40:50Z</time>
      </trkpt>
      <trkpt lat="43.29973" lon="-1.36352">
        <ele>95.31</ele>
        <time>2021-08-20T19:40:55Z</time>
      </trkpt>
      <trkpt lat="43.2997" lon="-1.36357">
        <ele>95.31</ele>
        <time>2021-08-20T19:40:56Z</time>
      </trkpt>
      <trkpt lat="43.29968" lon="-1.36361">
        <ele>93.87</ele>
        <time>2021-08-20T19:40:57Z</time>
      </trkpt>
      <trkpt lat="43.29965" lon="-1.36364">
        <ele>93.87</ele>
        <time>2021-08-20T19:40:58Z</time>
      </trkpt>
      <trkpt lat="43.2996" lon="-1.36366">
        <ele>93.87</ele>
        <time>2021-08-20T19:40:59Z</time>
      </trkpt>
      <trkpt lat="43.29955" lon="-1.36367">
        <ele>93.87</ele>
        <time>2021-08-20T19:41:00Z</time>
      </trkpt>
      <trkpt lat="43.2995" lon="-1.36368">
        <ele>93.39</ele>
        <time>2021-08-20T19:41:01Z</time>
      </trkpt>
      <trkpt lat="43.29946" lon="-1.36368">
        <ele>93.39</ele>
        <time>2021-08-20T19:41:02Z</time>
      </trkpt>
      <trkpt lat="43.29942" lon="-1.36369">
        <ele>93.39</ele>
        <time>2021-08-20T19:41:03Z</time>
      </trkpt>
      <trkpt lat="43.29937" lon="-1.36369">
        <ele>93.39</ele>
        <time>2021-08-20T19:41:04Z</time>
      </trkpt>
      <trkpt lat="43.29933" lon="-1.36368">
        <ele>93.39</ele>
        <time>2021-08-20T19:41:05Z</time>
      </trkpt>
      <trkpt lat="43.29903" lon="-1.36365">
        <ele>94.35</ele>
        <time>2021-08-20T19:41:13Z</time>
      </trkpt>
      <trkpt lat="43.29889" lon="-1.36365">
        <ele>95.31</ele>
        <time>2021-08-20T19:41:19Z</time>
      </trkpt>
      <trkpt lat="43.29871" lon="-1.3638">
        <ele>96.75</ele>
        <time>2021-08-20T19:41:27Z</time>
      </trkpt>
      <trkpt lat="43.29856" lon="-1.36397">
        <ele>98.19</ele>
        <time>2021-08-20T19:41:35Z</time>
      </trkpt>
      <trkpt lat="43.29847" lon="-1.3642">
        <ele>98.67</ele>
        <time>2021-08-20T19:41:42Z</time>
      </trkpt>
      <trkpt lat="43.29849" lon="-1.36442">
        <ele>100.6</ele>
        <time>2021-08-20T19:41:49Z</time>
      </trkpt>
      <trkpt lat="43.29846" lon="-1.36466">
        <ele>101.56</ele>
        <time>2021-08-20T19:41:56Z</time>
      </trkpt>
      <trkpt lat="43.29833" lon="-1.3649">
        <ele>101.56</ele>
        <time>2021-08-20T19:42:03Z</time>
      </trkpt>
      <trkpt lat="43.29815" lon="-1.36496">
        <ele>101.56</ele>
        <time>2021-08-20T19:42:09Z</time>
      </trkpt>
      <trkpt lat="43.29786" lon="-1.36496">
        <ele>99.63</ele>
        <time>2021-08-20T19:42:16Z</time>
      </trkpt>
      <trkpt lat="43.29781" lon="-1.36497">
        <ele>99.15</ele>
        <time>2021-08-20T19:42:17Z</time>
      </trkpt>
      <trkpt lat="43.29775" lon="-1.36498">
        <ele>98.19</ele>
        <time>2021-08-20T19:42:18Z</time>
      </trkpt>
      <trkpt lat="43.29763" lon="-1.36502">
        <ele>96.75</ele>
        <time>2021-08-20T19:42:20Z</time>
      </trkpt>
      <trkpt lat="43.29756" lon="-1.36506">
        <ele>95.79</ele>
        <time>2021-08-20T19:42:21Z</time>
      </trkpt>
      <trkpt lat="43.29751" lon="-1.36511">
        <ele>94.83</ele>
        <time>2021-08-20T19:42:22Z</time>
      </trkpt>
      <trkpt lat="43.29746" lon="-1.36517">
        <ele>95.31</ele>
        <time>2021-08-20T19:42:23Z</time>
      </trkpt>
      <trkpt lat="43.29742" lon="-1.36523">
        <ele>95.31</ele>
        <time>2021-08-20T19:42:24Z</time>
      </trkpt>
      <trkpt lat="43.29739" lon="-1.36529">
        <ele>96.27</ele>
        <time>2021-08-20T19:42:25Z</time>
      </trkpt>
      <trkpt lat="43.29735" lon="-1.36535">
        <ele>96.27</ele>
        <time>2021-08-20T19:42:26Z</time>
      </trkpt>
      <trkpt lat="43.29729" lon="-1.36546">
        <ele>96.27</ele>
        <time>2021-08-20T19:42:28Z</time>
      </trkpt>
      <trkpt lat="43.29727" lon="-1.36551">
        <ele>96.75</ele>
        <time>2021-08-20T19:42:29Z</time>
      </trkpt>
      <trkpt lat="43.29726" lon="-1.36556">
        <ele>96.75</ele>
        <time>2021-08-20T19:42:30Z</time>
      </trkpt>
      <trkpt lat="43.29725" lon="-1.36561">
        <ele>96.75</ele>
        <time>2021-08-20T19:42:31Z</time>
      </trkpt>
      <trkpt lat="43.29726" lon="-1.36565">
        <ele>97.23</ele>
        <time>2021-08-20T19:42:32Z</time>
      </trkpt>
      <trkpt lat="43.29727" lon="-1.36569">
        <ele>98.19</ele>
        <time>2021-08-20T19:42:33Z</time>
      </trkpt>
      <trkpt lat="43.29729" lon="-1.36571">
        <ele>98.19</ele>
        <time>2021-08-20T19:42:34Z</time>
      </trkpt>
      <trkpt lat="43.29731" lon="-1.36571">
        <ele>98.67</ele>
        <time>2021-08-20T19:42:35Z</time>
      </trkpt>
      <trkpt lat="43.29733" lon="-1.36571">
        <ele>98.67</ele>
        <time>2021-08-20T19:42:36Z</time>
      </trkpt>
      <trkpt lat="43.29735" lon="-1.3657">
        <ele>98.67</ele>
        <time>2021-08-20T19:42:37Z</time>
      </trkpt>
      <trkpt lat="43.29743" lon="-1.36565">
        <ele>100.6</ele>
        <time>2021-08-20T19:42:43Z</time>
      </trkpt>
      <trkpt lat="43.29747" lon="-1.36561">
        <ele>101.56</ele>
        <time>2021-08-20T19:42:50Z</time>
      </trkpt>
      <trkpt lat="43.29755" lon="-1.36556">
        <ele>103.48</ele>
        <time>2021-08-20T19:42:59Z</time>
      </trkpt>
      <trkpt lat="43.29762" lon="-1.36554">
        <ele>104.92</ele>
        <time>2021-08-20T19:43:08Z</time>
      </trkpt>
      <trkpt lat="43.2977" lon="-1.36558">
        <ele>106.84</ele>
        <time>2021-08-20T19:43:18Z</time>
      </trkpt>
      <trkpt lat="43.29777" lon="-1.36564">
        <ele>108.77</ele>
        <time>2021-08-20T19:43:28Z</time>
      </trkpt>
      <trkpt lat="43.29782" lon="-1.36567">
        <ele>109.25</ele>
        <time>2021-08-20T19:43:34Z</time>
      </trkpt>
      <trkpt lat="43.29784" lon="-1.36568">
        <ele>110.21</ele>
        <time>2021-08-20T19:43:35Z</time>
      </trkpt>
      <trkpt lat="43.29794" lon="-1.3658">
        <ele>111.65</ele>
        <time>2021-08-20T19:43:46Z</time>
      </trkpt>
      <trkpt lat="43.29804" lon="-1.3659">
        <ele>112.61</ele>
        <time>2021-08-20T19:43:56Z</time>
      </trkpt>
      <trkpt lat="43.29811" lon="-1.36602">
        <ele>114.53</ele>
        <time>2021-08-20T19:44:07Z</time>
      </trkpt>
      <trkpt lat="43.29819" lon="-1.36611">
        <ele>116.46</ele>
        <time>2021-08-20T19:44:18Z</time>
      </trkpt>
      <trkpt lat="43.29824" lon="-1.3662">
        <ele>118.38</ele>
        <time>2021-08-20T19:44:27Z</time>
      </trkpt>
      <trkpt lat="43.29831" lon="-1.3663">
        <ele>119.34</ele>
        <time>2021-08-20T19:44:37Z</time>
      </trkpt>
      <trkpt lat="43.29844" lon="-1.36641">
        <ele>121.74</ele>
        <time>2021-08-20T19:44:50Z</time>
      </trkpt>
      <trkpt lat="43.29846" lon="-1.36642">
        <ele>122.22</ele>
        <time>2021-08-20T19:44:52Z</time>
      </trkpt>
      <trkpt lat="43.29851" lon="-1.36644">
        <ele>122.71</ele>
        <time>2021-08-20T19:45:00Z</time>
      </trkpt>
      <trkpt lat="43.29861" lon="-1.36645">
        <ele>122.71</ele>
        <time>2021-08-20T19:45:07Z</time>
      </trkpt>
      <trkpt lat="43.29866" lon="-1.36644">
        <ele>122.71</ele>
        <time>2021-08-20T19:45:09Z</time>
      </trkpt>
      <trkpt lat="43.29868" lon="-1.36643">
        <ele>122.71</ele>
        <time>2021-08-20T19:45:10Z</time>
      </trkpt>
      <trkpt lat="43.29871" lon="-1.36642">
        <ele>122.71</ele>
        <time>2021-08-20T19:45:11Z</time>
      </trkpt>
      <trkpt lat="43.29888" lon="-1.36634">
        <ele>123.19</ele>
        <time>2021-08-20T19:45:18Z</time>
      </trkpt>
      <trkpt lat="43.29912" lon="-1.36622">
        <ele>123.67</ele>
        <time>2021-08-20T19:45:27Z</time>
      </trkpt>
      <trkpt lat="43.29939" lon="-1.36616">
        <ele>124.15</ele>
        <time>2021-08-20T19:45:37Z</time>
      </trkpt>
      <trkpt lat="43.29967" lon="-1.36622">
        <ele>120.78</ele>
        <time>2021-08-20T19:45:44Z</time>
      </trkpt>
      <trkpt lat="43.29971" lon="-1.36625">
        <ele>119.82</ele>
        <time>2021-08-20T19:45:45Z</time>
      </trkpt>
      <trkpt lat="43.29976" lon="-1.36628">
        <ele>118.86</ele>
        <time>2021-08-20T19:45:46Z</time>
      </trkpt>
      <trkpt lat="43.29981" lon="-1.36632">
        <ele>117.42</ele>
        <time>2021-08-20T19:45:47Z</time>
      </trkpt>
      <trkpt lat="43.29989" lon="-1.36642">
        <ele>116.94</ele>
        <time>2021-08-20T19:45:49Z</time>
      </trkpt>
      <trkpt lat="43.29993" lon="-1.36647">
        <ele>115.98</ele>
        <time>2021-08-20T19:45:50Z</time>
      </trkpt>
      <trkpt lat="43.29999" lon="-1.36652">
        <ele>115.01</ele>
        <time>2021-08-20T19:45:51Z</time>
      </trkpt>
      <trkpt lat="43.30005" lon="-1.36655">
        <ele>114.53</ele>
        <time>2021-08-20T19:45:52Z</time>
      </trkpt>
      <trkpt lat="43.30011" lon="-1.36657">
        <ele>113.57</ele>
        <time>2021-08-20T19:45:53Z</time>
      </trkpt>
      <trkpt lat="43.30019" lon="-1.36659">
        <ele>112.13</ele>
        <time>2021-08-20T19:45:54Z</time>
      </trkpt>
      <trkpt lat="43.30026" lon="-1.3666">
        <ele>111.17</ele>
        <time>2021-08-20T19:45:55Z</time>
      </trkpt>
      <trkpt lat="43.30034" lon="-1.36661">
        <ele>109.73</ele>
        <time>2021-08-20T19:45:56Z</time>
      </trkpt>
      <trkpt lat="43.30042" lon="-1.36662">
        <ele>108.77</ele>
        <time>2021-08-20T19:45:57Z</time>
      </trkpt>
      <trkpt lat="43.30051" lon="-1.36664">
        <ele>107.81</ele>
        <time>2021-08-20T19:45:58Z</time>
      </trkpt>
      <trkpt lat="43.30077" lon="-1.36675">
        <ele>103.96</ele>
        <time>2021-08-20T19:46:01Z</time>
      </trkpt>
      <trkpt lat="43.30085" lon="-1.36679">
        <ele>103.96</ele>
        <time>2021-08-20T19:46:02Z</time>
      </trkpt>
      <trkpt lat="43.30094" lon="-1.36683">
        <ele>102.52</ele>
        <time>2021-08-20T19:46:03Z</time>
      </trkpt>
      <trkpt lat="43.30103" lon="-1.36686">
        <ele>101.56</ele>
        <time>2021-08-20T19:46:04Z</time>
      </trkpt>
      <trkpt lat="43.30113" lon="-1.36688">
        <ele>101.56</ele>
        <time>2021-08-20T19:46:05Z</time>
      </trkpt>
      <trkpt lat="43.30152" lon="-1.36696">
        <ele>100.11</ele>
        <time>2021-08-20T19:46:09Z</time>
      </trkpt>
      <trkpt lat="43.30197" lon="-1.36704">
        <ele>96.75</ele>
        <time>2021-08-20T19:46:14Z</time>
      </trkpt>
      <trkpt lat="43.30206" lon="-1.36704">
        <ele>96.75</ele>
        <time>2021-08-20T19:46:15Z</time>
      </trkpt>
      <trkpt lat="43.30215" lon="-1.36704">
        <ele>96.75</ele>
        <time>2021-08-20T19:46:16Z</time>
      </trkpt>
      <trkpt lat="43.30224" lon="-1.36701">
        <ele>96.75</ele>
        <time>2021-08-20T19:46:17Z</time>
      </trkpt>
      <trkpt lat="43.30232" lon="-1.36698">
        <ele>96.27</ele>
        <time>2021-08-20T19:46:18Z</time>
      </trkpt>
      <trkpt lat="43.3024" lon="-1.36694">
        <ele>95.31</ele>
        <time>2021-08-20T19:46:19Z</time>
      </trkpt>
      <trkpt lat="43.30249" lon="-1.36688">
        <ele>94.35</ele>
        <time>2021-08-20T19:46:20Z</time>
      </trkpt>
      <trkpt lat="43.30257" lon="-1.36683">
        <ele>94.35</ele>
        <time>2021-08-20T19:46:21Z</time>
      </trkpt>
      <trkpt lat="43.30281" lon="-1.3667">
        <ele>92.42</ele>
        <time>2021-08-20T19:46:24Z</time>
      </trkpt>
      <trkpt lat="43.3029" lon="-1.36668">
        <ele>92.42</ele>
        <time>2021-08-20T19:46:25Z</time>
      </trkpt>
      <trkpt lat="43.30298" lon="-1.36668">
        <ele>91.94</ele>
        <time>2021-08-20T19:46:26Z</time>
      </trkpt>
      <trkpt lat="43.30343" lon="-1.36675">
        <ele>91.46</ele>
        <time>2021-08-20T19:46:32Z</time>
      </trkpt>
      <trkpt lat="43.30368" lon="-1.36682">
        <ele>87.62</ele>
        <time>2021-08-20T19:46:36Z</time>
      </trkpt>
      <trkpt lat="43.30389" lon="-1.36686">
        <ele>83.77</ele>
        <time>2021-08-20T19:46:39Z</time>
      </trkpt>
      <trkpt lat="43.30405" lon="-1.36688">
        <ele>81.85</ele>
        <time>2021-08-20T19:46:41Z</time>
      </trkpt>
      <trkpt lat="43.30435" lon="-1.36692">
        <ele>78.97</ele>
        <time>2021-08-20T19:46:45Z</time>
      </trkpt>
      <trkpt lat="43.30442" lon="-1.36694">
        <ele>78.48</ele>
        <time>2021-08-20T19:46:46Z</time>
      </trkpt>
      <trkpt lat="43.3048" lon="-1.3671">
        <ele>77.04</ele>
        <time>2021-08-20T19:46:52Z</time>
      </trkpt>
      <trkpt lat="43.30507" lon="-1.36723">
        <ele>73.2</ele>
        <time>2021-08-20T19:46:56Z</time>
      </trkpt>
      <trkpt lat="43.30531" lon="-1.36729">
        <ele>69.83</ele>
        <time>2021-08-20T19:46:59Z</time>
      </trkpt>
      <trkpt lat="43.30577" lon="-1.36753">
        <ele>66.47</ele>
        <time>2021-08-20T19:47:05Z</time>
      </trkpt>
      <trkpt lat="43.30638" lon="-1.36799">
        <ele>64.55</ele>
        <time>2021-08-20T19:47:14Z</time>
      </trkpt>
      <trkpt lat="43.30644" lon="-1.36802">
        <ele>64.55</ele>
        <time>2021-08-20T19:47:15Z</time>
      </trkpt>
      <trkpt lat="43.30651" lon="-1.36804">
        <ele>64.55</ele>
        <time>2021-08-20T19:47:16Z</time>
      </trkpt>
      <trkpt lat="43.30686" lon="-1.36813">
        <ele>63.58</ele>
        <time>2021-08-20T19:47:21Z</time>
      </trkpt>
      <trkpt lat="43.30728" lon="-1.36834">
        <ele>61.18</ele>
        <time>2021-08-20T19:47:27Z</time>
      </trkpt>
      <trkpt lat="43.30749" lon="-1.36849">
        <ele>59.74</ele>
        <time>2021-08-20T19:47:30Z</time>
      </trkpt>
      <trkpt lat="43.30778" lon="-1.36873">
        <ele>58.78</ele>
        <time>2021-08-20T19:47:35Z</time>
      </trkpt>
      <trkpt lat="43.30781" lon="-1.36879">
        <ele>58.3</ele>
        <time>2021-08-20T19:47:36Z</time>
      </trkpt>
      <trkpt lat="43.30796" lon="-1.36906">
        <ele>57.82</ele>
        <time>2021-08-20T19:47:41Z</time>
      </trkpt>
      <trkpt lat="43.30798" lon="-1.36911">
        <ele>57.82</ele>
        <time>2021-08-20T19:47:42Z</time>
      </trkpt>
      <trkpt lat="43.30803" lon="-1.36943">
        <ele>57.82</ele>
        <time>2021-08-20T19:47:49Z</time>
      </trkpt>
      <trkpt lat="43.30798" lon="-1.36964">
        <ele>59.26</ele>
        <time>2021-08-20T19:47:55Z</time>
      </trkpt>
      <trkpt lat="43.30792" lon="-1.36978">
        <ele>59.26</ele>
        <time>2021-08-20T19:47:58Z</time>
      </trkpt>
      <trkpt lat="43.30791" lon="-1.36984">
        <ele>59.26</ele>
        <time>2021-08-20T19:47:59Z</time>
      </trkpt>
      <trkpt lat="43.30791" lon="-1.3699">
        <ele>59.26</ele>
        <time>2021-08-20T19:48:00Z</time>
      </trkpt>
      <trkpt lat="43.30791" lon="-1.36996">
        <ele>59.26</ele>
        <time>2021-08-20T19:48:01Z</time>
      </trkpt>
      <trkpt lat="43.30792" lon="-1.37002">
        <ele>59.26</ele>
        <time>2021-08-20T19:48:02Z</time>
      </trkpt>
      <trkpt lat="43.30793" lon="-1.37008">
        <ele>59.26</ele>
        <time>2021-08-20T19:48:03Z</time>
      </trkpt>
      <trkpt lat="43.30794" lon="-1.37013">
        <ele>59.26</ele>
        <time>2021-08-20T19:48:04Z</time>
      </trkpt>
      <trkpt lat="43.30806" lon="-1.37047">
        <ele>57.82</ele>
        <time>2021-08-20T19:48:11Z</time>
      </trkpt>
      <trkpt lat="43.30819" lon="-1.37074">
        <ele>57.34</ele>
        <time>2021-08-20T19:48:17Z</time>
      </trkpt>
      <trkpt lat="43.30826" lon="-1.37088">
        <ele>55.89</ele>
        <time>2021-08-20T19:48:19Z</time>
      </trkpt>
      <trkpt lat="43.30829" lon="-1.37095">
        <ele>55.41</ele>
        <time>2021-08-20T19:48:20Z</time>
      </trkpt>
      <trkpt lat="43.30833" lon="-1.37112">
        <ele>54.93</ele>
        <time>2021-08-20T19:48:22Z</time>
      </trkpt>
      <trkpt lat="43.30847" lon="-1.37152">
        <ele>55.89</ele>
        <time>2021-08-20T19:48:27Z</time>
      </trkpt>
      <trkpt lat="43.30872" lon="-1.37194">
        <ele>55.89</ele>
        <time>2021-08-20T19:48:34Z</time>
      </trkpt>
      <trkpt lat="43.30879" lon="-1.37203">
        <ele>55.89</ele>
        <time>2021-08-20T19:48:36Z</time>
      </trkpt>
      <trkpt lat="43.30889" lon="-1.37227">
        <ele>53.49</ele>
        <time>2021-08-20T19:48:40Z</time>
      </trkpt>
      <trkpt lat="43.3089" lon="-1.37234">
        <ele>53.49</ele>
        <time>2021-08-20T19:48:41Z</time>
      </trkpt>
      <trkpt lat="43.30891" lon="-1.37241">
        <ele>53.49</ele>
        <time>2021-08-20T19:48:42Z</time>
      </trkpt>
      <trkpt lat="43.30888" lon="-1.37289">
        <ele>52.53</ele>
        <time>2021-08-20T19:48:50Z</time>
      </trkpt>
      <trkpt lat="43.30882" lon="-1.37319">
        <ele>54.45</ele>
        <time>2021-08-20T19:48:56Z</time>
      </trkpt>
      <trkpt lat="43.30879" lon="-1.37336">
        <ele>54.45</ele>
        <time>2021-08-20T19:48:59Z</time>
      </trkpt>
      <trkpt lat="43.30877" lon="-1.37386">
        <ele>52.53</ele>
        <time>2021-08-20T19:49:07Z</time>
      </trkpt>
      <trkpt lat="43.30878" lon="-1.37398">
        <ele>52.53</ele>
        <time>2021-08-20T19:49:09Z</time>
      </trkpt>
      <trkpt lat="43.30889" lon="-1.37448">
        <ele>52.53</ele>
        <time>2021-08-20T19:49:17Z</time>
      </trkpt>
      <trkpt lat="43.30901" lon="-1.37486">
        <ele>52.05</ele>
        <time>2021-08-20T19:49:23Z</time>
      </trkpt>
      <trkpt lat="43.30904" lon="-1.37499">
        <ele>51.57</ele>
        <time>2021-08-20T19:49:25Z</time>
      </trkpt>
      <trkpt lat="43.30905" lon="-1.37505">
        <ele>51.57</ele>
        <time>2021-08-20T19:49:26Z</time>
      </trkpt>
      <trkpt lat="43.30905" lon="-1.37512">
        <ele>51.57</ele>
        <time>2021-08-20T19:49:27Z</time>
      </trkpt>
      <trkpt lat="43.30905" lon="-1.37573">
        <ele>50.61</ele>
        <time>2021-08-20T19:49:35Z</time>
      </trkpt>
      <trkpt lat="43.30911" lon="-1.37634">
        <ele>50.61</ele>
        <time>2021-08-20T19:49:44Z</time>
      </trkpt>
      <trkpt lat="43.30912" lon="-1.37641">
        <ele>50.61</ele>
        <time>2021-08-20T19:49:45Z</time>
      </trkpt>
      <trkpt lat="43.30913" lon="-1.37647">
        <ele>50.61</ele>
        <time>2021-08-20T19:49:46Z</time>
      </trkpt>
      <trkpt lat="43.3092" lon="-1.37677">
        <ele>51.57</ele>
        <time>2021-08-20T19:49:51Z</time>
      </trkpt>
      <trkpt lat="43.30923" lon="-1.37691">
        <ele>51.57</ele>
        <time>2021-08-20T19:49:53Z</time>
      </trkpt>
      <trkpt lat="43.30923" lon="-1.37698">
        <ele>51.57</ele>
        <time>2021-08-20T19:49:54Z</time>
      </trkpt>
      <trkpt lat="43.30926" lon="-1.37761">
        <ele>50.61</ele>
        <time>2021-08-20T19:50:03Z</time>
      </trkpt>
      <trkpt lat="43.30924" lon="-1.37818">
        <ele>49.65</ele>
        <time>2021-08-20T19:50:12Z</time>
      </trkpt>
      <trkpt lat="43.30917" lon="-1.37876">
        <ele>49.65</ele>
        <time>2021-08-20T19:50:22Z</time>
      </trkpt>
      <trkpt lat="43.30912" lon="-1.37893">
        <ele>51.09</ele>
        <time>2021-08-20T19:50:25Z</time>
      </trkpt>
      <trkpt lat="43.30893" lon="-1.37958">
        <ele>51.09</ele>
        <time>2021-08-20T19:50:36Z</time>
      </trkpt>
      <trkpt lat="43.30876" lon="-1.37998">
        <ele>49.65</ele>
        <time>2021-08-20T19:50:43Z</time>
      </trkpt>
      <trkpt lat="43.30856" lon="-1.38029">
        <ele>49.16</ele>
        <time>2021-08-20T19:50:50Z</time>
      </trkpt>
      <trkpt lat="43.30853" lon="-1.38031">
        <ele>50.13</ele>
        <time>2021-08-20T19:50:51Z</time>
      </trkpt>
      <trkpt lat="43.30849" lon="-1.38032">
        <ele>50.13</ele>
        <time>2021-08-20T19:50:52Z</time>
      </trkpt>
      <trkpt lat="43.30831" lon="-1.38037">
        <ele>50.61</ele>
        <time>2021-08-20T19:50:58Z</time>
      </trkpt>
      <trkpt lat="43.30831" lon="-1.3804">
        <ele>51.57</ele>
        <time>2021-08-20T19:50:59Z</time>
      </trkpt>
      <trkpt lat="43.3083" lon="-1.38043">
        <ele>51.57</ele>
        <time>2021-08-20T19:51:00Z</time>
      </trkpt>
      <trkpt lat="43.30828" lon="-1.38046">
        <ele>51.57</ele>
        <time>2021-08-20T19:51:01Z</time>
      </trkpt>
      <trkpt lat="43.30827" lon="-1.38049">
        <ele>52.05</ele>
        <time>2021-08-20T19:51:02Z</time>
      </trkpt>
      <trkpt lat="43.30827" lon="-1.38053">
        <ele>51.57</ele>
        <time>2021-08-20T19:51:03Z</time>
      </trkpt>
      <trkpt lat="43.30823" lon="-1.38085">
        <ele>52.05</ele>
        <time>2021-08-20T19:51:09Z</time>
      </trkpt>
      <trkpt lat="43.30823" lon="-1.38091">
        <ele>52.05</ele>
        <time>2021-08-20T19:51:10Z</time>
      </trkpt>
      <trkpt lat="43.30816" lon="-1.38137">
        <ele>50.61</ele>
        <time>2021-08-20T19:51:17Z</time>
      </trkpt>
      <trkpt lat="43.30806" lon="-1.38198">
        <ele>50.13</ele>
        <time>2021-08-20T19:51:26Z</time>
      </trkpt>
      <trkpt lat="43.30802" lon="-1.3826">
        <ele>50.13</ele>
        <time>2021-08-20T19:51:35Z</time>
      </trkpt>
      <trkpt lat="43.30804" lon="-1.38272">
        <ele>50.13</ele>
        <time>2021-08-20T19:51:37Z</time>
      </trkpt>
      <trkpt lat="43.30806" lon="-1.38277">
        <ele>50.13</ele>
        <time>2021-08-20T19:51:38Z</time>
      </trkpt>
      <trkpt lat="43.30808" lon="-1.38282">
        <ele>51.57</ele>
        <time>2021-08-20T19:51:39Z</time>
      </trkpt>
      <trkpt lat="43.3081" lon="-1.38284">
        <ele>52.53</ele>
        <time>2021-08-20T19:51:40Z</time>
      </trkpt>
      <trkpt lat="43.30813" lon="-1.38286">
        <ele>52.53</ele>
        <time>2021-08-20T19:51:41Z</time>
      </trkpt>
      <trkpt lat="43.30815" lon="-1.38287">
        <ele>53.49</ele>
        <time>2021-08-20T19:51:42Z</time>
      </trkpt>
      <trkpt lat="43.3084" lon="-1.38296">
        <ele>54.45</ele>
        <time>2021-08-20T19:51:51Z</time>
      </trkpt>
      <trkpt lat="43.30877" lon="-1.3831">
        <ele>54.93</ele>
        <time>2021-08-20T19:52:01Z</time>
      </trkpt>
      <trkpt lat="43.3089" lon="-1.38315">
        <ele>53.49</ele>
        <time>2021-08-20T19:52:04Z</time>
      </trkpt>
      <trkpt lat="43.30906" lon="-1.38317">
        <ele>52.53</ele>
        <time>2021-08-20T19:52:07Z</time>
      </trkpt>
      <trkpt lat="43.3091" lon="-1.38317">
        <ele>52.53</ele>
        <time>2021-08-20T19:52:08Z</time>
      </trkpt>
      <trkpt lat="43.30915" lon="-1.38314">
        <ele>52.53</ele>
        <time>2021-08-20T19:52:09Z</time>
      </trkpt>
      <trkpt lat="43.30919" lon="-1.38311">
        <ele>52.53</ele>
        <time>2021-08-20T19:52:10Z</time>
      </trkpt>
      <trkpt lat="43.30923" lon="-1.38307">
        <ele>52.53</ele>
        <time>2021-08-20T19:52:11Z</time>
      </trkpt>
      <trkpt lat="43.30926" lon="-1.38303">
        <ele>52.53</ele>
        <time>2021-08-20T19:52:12Z</time>
      </trkpt>
      <trkpt lat="43.30937" lon="-1.38287">
        <ele>53.49</ele>
        <time>2021-08-20T19:52:16Z</time>
      </trkpt>
      <trkpt lat="43.30941" lon="-1.38283">
        <ele>54.45</ele>
        <time>2021-08-20T19:52:21Z</time>
      </trkpt>
      <trkpt lat="43.30946" lon="-1.38277">
        <ele>55.41</ele>
        <time>2021-08-20T19:52:29Z</time>
      </trkpt>
      <trkpt lat="43.30955" lon="-1.38267">
        <ele>58.3</ele>
        <time>2021-08-20T19:52:42Z</time>
      </trkpt>
      <trkpt lat="43.30964" lon="-1.38261">
        <ele>60.7</ele>
        <time>2021-08-20T19:52:53Z</time>
      </trkpt>
      <trkpt lat="43.30974" lon="-1.38257">
        <ele>62.62</ele>
        <time>2021-08-20T19:53:04Z</time>
      </trkpt>
      <trkpt lat="43.30983" lon="-1.38255">
        <ele>63.58</ele>
        <time>2021-08-20T19:53:14Z</time>
      </trkpt>
      <trkpt lat="43.30993" lon="-1.38253">
        <ele>65.03</ele>
        <time>2021-08-20T19:53:24Z</time>
      </trkpt>
      <trkpt lat="43.31002" lon="-1.38252">
        <ele>66.95</ele>
        <time>2021-08-20T19:53:33Z</time>
      </trkpt>
      <trkpt lat="43.31011" lon="-1.38251">
        <ele>68.87</ele>
        <time>2021-08-20T19:53:43Z</time>
      </trkpt>
      <trkpt lat="43.3102" lon="-1.38247">
        <ele>70.31</ele>
        <time>2021-08-20T19:53:54Z</time>
      </trkpt>
      <trkpt lat="43.31029" lon="-1.38243">
        <ele>72.24</ele>
        <time>2021-08-20T19:54:05Z</time>
      </trkpt>
      <trkpt lat="43.31037" lon="-1.3824">
        <ele>74.16</ele>
        <time>2021-08-20T19:54:14Z</time>
      </trkpt>
      <trkpt lat="43.31047" lon="-1.38236">
        <ele>75.6</ele>
        <time>2021-08-20T19:54:24Z</time>
      </trkpt>
      <trkpt lat="43.31053" lon="-1.38233">
        <ele>76.56</ele>
        <time>2021-08-20T19:54:33Z</time>
      </trkpt>
      <trkpt lat="43.31054" lon="-1.38232">
        <ele>76.56</ele>
        <time>2021-08-20T19:54:35Z</time>
      </trkpt>
      <trkpt lat="43.31056" lon="-1.38229">
        <ele>76.56</ele>
        <time>2021-08-20T19:54:38Z</time>
      </trkpt>
      <trkpt lat="43.31056" lon="-1.38228">
        <ele>76.56</ele>
        <time>2021-08-20T19:54:39Z</time>
      </trkpt>
      <trkpt lat="43.31057" lon="-1.38227">
        <ele>76.56</ele>
        <time>2021-08-20T19:54:40Z</time>
      </trkpt>
      <trkpt lat="43.31059" lon="-1.38226">
        <ele>77.04</ele>
        <time>2021-08-20T19:54:41Z</time>
      </trkpt>
      <trkpt lat="43.31061" lon="-1.38224">
        <ele>77.04</ele>
        <time>2021-08-20T19:54:42Z</time>
      </trkpt>
      <trkpt lat="43.31062" lon="-1.38223">
        <ele>77.04</ele>
        <time>2021-08-20T19:54:43Z</time>
      </trkpt>
      <trkpt lat="43.31064" lon="-1.38221">
        <ele>77.04</ele>
        <time>2021-08-20T19:54:44Z</time>
      </trkpt>
      <trkpt lat="43.31066" lon="-1.3822">
        <ele>77.04</ele>
        <time>2021-08-20T19:54:45Z</time>
      </trkpt>
      <trkpt lat="43.31068" lon="-1.38219">
        <ele>77.52</ele>
        <time>2021-08-20T19:54:46Z</time>
      </trkpt>
      <trkpt lat="43.31069" lon="-1.38217">
        <ele>77.52</ele>
        <time>2021-08-20T19:54:47Z</time>
      </trkpt>
      <trkpt lat="43.31084" lon="-1.38201">
        <ele>78</ele>
        <time>2021-08-20T19:54:55Z</time>
      </trkpt>
      <trkpt lat="43.311" lon="-1.38187">
        <ele>78.97</ele>
        <time>2021-08-20T19:55:03Z</time>
      </trkpt>
      <trkpt lat="43.31117" lon="-1.38178">
        <ele>79.93</ele>
        <time>2021-08-20T19:55:11Z</time>
      </trkpt>
      <trkpt lat="43.31128" lon="-1.3817">
        <ele>80.89</ele>
        <time>2021-08-20T19:55:19Z</time>
      </trkpt>
      <trkpt lat="43.31133" lon="-1.38164">
        <ele>82.33</ele>
        <time>2021-08-20T19:55:25Z</time>
      </trkpt>
      <trkpt lat="43.31137" lon="-1.38155">
        <ele>83.77</ele>
        <time>2021-08-20T19:55:35Z</time>
      </trkpt>
      <trkpt lat="43.31141" lon="-1.38143">
        <ele>85.21</ele>
        <time>2021-08-20T19:55:44Z</time>
      </trkpt>
      <trkpt lat="43.31149" lon="-1.38128">
        <ele>86.18</ele>
        <time>2021-08-20T19:55:54Z</time>
      </trkpt>
      <trkpt lat="43.3115" lon="-1.38127">
        <ele>86.18</ele>
        <time>2021-08-20T19:55:55Z</time>
      </trkpt>
      <trkpt lat="43.31151" lon="-1.38125">
        <ele>86.66</ele>
        <time>2021-08-20T19:55:56Z</time>
      </trkpt>
      <trkpt lat="43.31152" lon="-1.38124">
        <ele>86.66</ele>
        <time>2021-08-20T19:55:57Z</time>
      </trkpt>
      <trkpt lat="43.31152" lon="-1.38123">
        <ele>86.66</ele>
        <time>2021-08-20T19:55:58Z</time>
      </trkpt>
      <trkpt lat="43.31153" lon="-1.38121">
        <ele>86.66</ele>
        <time>2021-08-20T19:55:59Z</time>
      </trkpt>
      <trkpt lat="43.31153" lon="-1.3812">
        <ele>87.14</ele>
        <time>2021-08-20T19:56:00Z</time>
      </trkpt>
      <trkpt lat="43.31154" lon="-1.38118">
        <ele>87.14</ele>
        <time>2021-08-20T19:56:01Z</time>
      </trkpt>
      <trkpt lat="43.31154" lon="-1.38117">
        <ele>87.14</ele>
        <time>2021-08-20T19:56:02Z</time>
      </trkpt>
      <trkpt lat="43.31155" lon="-1.38115">
        <ele>87.14</ele>
        <time>2021-08-20T19:56:03Z</time>
      </trkpt>
      <trkpt lat="43.31155" lon="-1.38114">
        <ele>87.62</ele>
        <time>2021-08-20T19:56:04Z</time>
      </trkpt>
      <trkpt lat="43.31164" lon="-1.38104">
        <ele>89.54</ele>
        <time>2021-08-20T19:56:14Z</time>
      </trkpt>
      <trkpt lat="43.31172" lon="-1.38094">
        <ele>91.94</ele>
        <time>2021-08-20T19:56:25Z</time>
      </trkpt>
      <trkpt lat="43.31179" lon="-1.38086">
        <ele>93.39</ele>
        <time>2021-08-20T19:56:34Z</time>
      </trkpt>
      <trkpt lat="43.31185" lon="-1.38085">
        <ele>94.35</ele>
        <time>2021-08-20T19:56:42Z</time>
      </trkpt>
      <trkpt lat="43.31184" lon="-1.38089">
        <ele>95.31</ele>
        <time>2021-08-20T19:56:46Z</time>
      </trkpt>
      <trkpt lat="43.31179" lon="-1.38101">
        <ele>96.27</ele>
        <time>2021-08-20T19:56:55Z</time>
      </trkpt>
      <trkpt lat="43.31175" lon="-1.38115">
        <ele>97.71</ele>
        <time>2021-08-20T19:57:04Z</time>
      </trkpt>
      <trkpt lat="43.31174" lon="-1.38131">
        <ele>98.67</ele>
        <time>2021-08-20T19:57:13Z</time>
      </trkpt>
      <trkpt lat="43.31177" lon="-1.38148">
        <ele>99.63</ele>
        <time>2021-08-20T19:57:23Z</time>
      </trkpt>
      <trkpt lat="43.31184" lon="-1.38159">
        <ele>101.08</ele>
        <time>2021-08-20T19:57:33Z</time>
      </trkpt>
      <trkpt lat="43.31191" lon="-1.38162">
        <ele>102.52</ele>
        <time>2021-08-20T19:57:42Z</time>
      </trkpt>
      <trkpt lat="43.31195" lon="-1.38162">
        <ele>103.48</ele>
        <time>2021-08-20T19:57:47Z</time>
      </trkpt>
      <trkpt lat="43.31202" lon="-1.38164">
        <ele>104.44</ele>
        <time>2021-08-20T19:57:55Z</time>
      </trkpt>
      <trkpt lat="43.31211" lon="-1.38162">
        <ele>105.88</ele>
        <time>2021-08-20T19:58:03Z</time>
      </trkpt>
      <trkpt lat="43.31219" lon="-1.38161">
        <ele>106.84</ele>
        <time>2021-08-20T19:58:13Z</time>
      </trkpt>
      <trkpt lat="43.31229" lon="-1.3816">
        <ele>109.25</ele>
        <time>2021-08-20T19:58:23Z</time>
      </trkpt>
      <trkpt lat="43.31236" lon="-1.38162">
        <ele>110.21</ele>
        <time>2021-08-20T19:58:30Z</time>
      </trkpt>
      <trkpt lat="43.31246" lon="-1.38166">
        <ele>111.65</ele>
        <time>2021-08-20T19:58:41Z</time>
      </trkpt>
      <trkpt lat="43.31254" lon="-1.38172">
        <ele>113.57</ele>
        <time>2021-08-20T19:58:51Z</time>
      </trkpt>
      <trkpt lat="43.31258" lon="-1.38174">
        <ele>115.01</ele>
        <time>2021-08-20T19:58:56Z</time>
      </trkpt>
      <trkpt lat="43.31262" lon="-1.38178">
        <ele>115.01</ele>
        <time>2021-08-20T19:59:04Z</time>
      </trkpt>
      <trkpt lat="43.31274" lon="-1.38192">
        <ele>115.01</ele>
        <time>2021-08-20T19:59:12Z</time>
      </trkpt>
      <trkpt lat="43.31285" lon="-1.38203">
        <ele>115.5</ele>
        <time>2021-08-20T19:59:18Z</time>
      </trkpt>
      <trkpt lat="43.31295" lon="-1.38218">
        <ele>116.46</ele>
        <time>2021-08-20T19:59:25Z</time>
      </trkpt>
      <trkpt lat="43.31295" lon="-1.38229">
        <ele>117.42</ele>
        <time>2021-08-20T19:59:30Z</time>
      </trkpt>
      <trkpt lat="43.31293" lon="-1.38233">
        <ele>117.9</ele>
        <time>2021-08-20T19:59:38Z</time>
      </trkpt>
      <trkpt lat="43.31287" lon="-1.38238">
        <ele>119.82</ele>
        <time>2021-08-20T19:59:49Z</time>
      </trkpt>
      <trkpt lat="43.31279" lon="-1.38242">
        <ele>121.74</ele>
        <time>2021-08-20T19:59:58Z</time>
      </trkpt>
      <trkpt lat="43.31273" lon="-1.38248">
        <ele>123.19</ele>
        <time>2021-08-20T20:00:06Z</time>
      </trkpt>
      <trkpt lat="43.31271" lon="-1.38252">
        <ele>123.67</ele>
        <time>2021-08-20T20:00:09Z</time>
      </trkpt>
      <trkpt lat="43.31266" lon="-1.38262">
        <ele>124.63</ele>
        <time>2021-08-20T20:00:17Z</time>
      </trkpt>
      <trkpt lat="43.31265" lon="-1.38264">
        <ele>125.59</ele>
        <time>2021-08-20T20:00:19Z</time>
      </trkpt>
      <trkpt lat="43.31258" lon="-1.38274">
        <ele>126.07</ele>
        <time>2021-08-20T20:00:28Z</time>
      </trkpt>
      <trkpt lat="43.31254" lon="-1.38289">
        <ele>127.51</ele>
        <time>2021-08-20T20:00:38Z</time>
      </trkpt>
      <trkpt lat="43.31249" lon="-1.38302">
        <ele>128.95</ele>
        <time>2021-08-20T20:00:47Z</time>
      </trkpt>
      <trkpt lat="43.31244" lon="-1.38312">
        <ele>130.88</ele>
        <time>2021-08-20T20:00:55Z</time>
      </trkpt>
      <trkpt lat="43.31236" lon="-1.38332">
        <ele>132.8</ele>
        <time>2021-08-20T20:01:08Z</time>
      </trkpt>
      <trkpt lat="43.31229" lon="-1.38349">
        <ele>133.76</ele>
        <time>2021-08-20T20:01:19Z</time>
      </trkpt>
      <trkpt lat="43.31228" lon="-1.38352">
        <ele>134.24</ele>
        <time>2021-08-20T20:01:21Z</time>
      </trkpt>
      <trkpt lat="43.31227" lon="-1.38354">
        <ele>134.24</ele>
        <time>2021-08-20T20:01:22Z</time>
      </trkpt>
      <trkpt lat="43.31227" lon="-1.38355">
        <ele>134.24</ele>
        <time>2021-08-20T20:01:27Z</time>
      </trkpt>
      <trkpt lat="43.31224" lon="-1.38364">
        <ele>134.72</ele>
        <time>2021-08-20T20:01:33Z</time>
      </trkpt>
      <trkpt lat="43.31217" lon="-1.3838">
        <ele>136.16</ele>
        <time>2021-08-20T20:01:40Z</time>
      </trkpt>
      <trkpt lat="43.31212" lon="-1.38391">
        <ele>137.61</ele>
        <time>2021-08-20T20:01:47Z</time>
      </trkpt>
      <trkpt lat="43.31207" lon="-1.38408">
        <ele>138.57</ele>
        <time>2021-08-20T20:01:56Z</time>
      </trkpt>
      <trkpt lat="43.31204" lon="-1.38424">
        <ele>139.53</ele>
        <time>2021-08-20T20:02:04Z</time>
      </trkpt>
      <trkpt lat="43.31202" lon="-1.3844">
        <ele>140.97</ele>
        <time>2021-08-20T20:02:11Z</time>
      </trkpt>
      <trkpt lat="43.31198" lon="-1.38458">
        <ele>141.93</ele>
        <time>2021-08-20T20:02:19Z</time>
      </trkpt>
      <trkpt lat="43.31194" lon="-1.3849">
        <ele>142.89</ele>
        <time>2021-08-20T20:02:28Z</time>
      </trkpt>
      <trkpt lat="43.31199" lon="-1.38518">
        <ele>142.89</ele>
        <time>2021-08-20T20:02:36Z</time>
      </trkpt>
      <trkpt lat="43.31216" lon="-1.3852">
        <ele>144.82</ele>
        <time>2021-08-20T20:02:42Z</time>
      </trkpt>
      <trkpt lat="43.31223" lon="-1.3852">
        <ele>147.22</ele>
        <time>2021-08-20T20:02:46Z</time>
      </trkpt>
      <trkpt lat="43.31224" lon="-1.38522">
        <ele>146.74</ele>
        <time>2021-08-20T20:02:53Z</time>
      </trkpt>
      <trkpt lat="43.31228" lon="-1.38524">
        <ele>148.18</ele>
        <time>2021-08-20T20:03:02Z</time>
      </trkpt>
      <trkpt lat="43.31239" lon="-1.38526">
        <ele>150.1</ele>
        <time>2021-08-20T20:03:13Z</time>
      </trkpt>
      <trkpt lat="43.31252" lon="-1.38532">
        <ele>152.51</ele>
        <time>2021-08-20T20:03:27Z</time>
      </trkpt>
      <trkpt lat="43.31265" lon="-1.38536">
        <ele>154.43</ele>
        <time>2021-08-20T20:03:39Z</time>
      </trkpt>
      <trkpt lat="43.31271" lon="-1.38538">
        <ele>154.91</ele>
        <time>2021-08-20T20:03:45Z</time>
      </trkpt>
      <trkpt lat="43.31272" lon="-1.38538">
        <ele>154.91</ele>
        <time>2021-08-20T20:03:46Z</time>
      </trkpt>
      <trkpt lat="43.31283" lon="-1.38539">
        <ele>156.83</ele>
        <time>2021-08-20T20:03:56Z</time>
      </trkpt>
      <trkpt lat="43.31293" lon="-1.3854">
        <ele>158.27</ele>
        <time>2021-08-20T20:04:06Z</time>
      </trkpt>
      <trkpt lat="43.31305" lon="-1.38543">
        <ele>160.2</ele>
        <time>2021-08-20T20:04:17Z</time>
      </trkpt>
      <trkpt lat="43.31313" lon="-1.38551">
        <ele>160.68</ele>
        <time>2021-08-20T20:04:26Z</time>
      </trkpt>
      <trkpt lat="43.31324" lon="-1.38565">
        <ele>161.16</ele>
        <time>2021-08-20T20:04:37Z</time>
      </trkpt>
      <trkpt lat="43.31334" lon="-1.38578">
        <ele>162.12</ele>
        <time>2021-08-20T20:04:47Z</time>
      </trkpt>
      <trkpt lat="43.31341" lon="-1.38591">
        <ele>163.08</ele>
        <time>2021-08-20T20:04:57Z</time>
      </trkpt>
      <trkpt lat="43.31346" lon="-1.38604">
        <ele>165</ele>
        <time>2021-08-20T20:05:07Z</time>
      </trkpt>
      <trkpt lat="43.31347" lon="-1.38611">
        <ele>165.96</ele>
        <time>2021-08-20T20:05:12Z</time>
      </trkpt>
      <trkpt lat="43.31347" lon="-1.38624">
        <ele>168.85</ele>
        <time>2021-08-20T20:05:23Z</time>
      </trkpt>
      <trkpt lat="43.31347" lon="-1.38637">
        <ele>170.77</ele>
        <time>2021-08-20T20:05:34Z</time>
      </trkpt>
      <trkpt lat="43.31349" lon="-1.38648">
        <ele>172.69</ele>
        <time>2021-08-20T20:05:44Z</time>
      </trkpt>
      <trkpt lat="43.31351" lon="-1.38659">
        <ele>174.14</ele>
        <time>2021-08-20T20:05:53Z</time>
      </trkpt>
      <trkpt lat="43.31356" lon="-1.38673">
        <ele>176.06</ele>
        <time>2021-08-20T20:06:04Z</time>
      </trkpt>
      <trkpt lat="43.31364" lon="-1.38689">
        <ele>177.02</ele>
        <time>2021-08-20T20:06:15Z</time>
      </trkpt>
      <trkpt lat="43.31368" lon="-1.38699">
        <ele>177.98</ele>
        <time>2021-08-20T20:06:22Z</time>
      </trkpt>
      <trkpt lat="43.31374" lon="-1.38712">
        <ele>179.42</ele>
        <time>2021-08-20T20:06:32Z</time>
      </trkpt>
      <trkpt lat="43.3138" lon="-1.38724">
        <ele>180.87</ele>
        <time>2021-08-20T20:06:41Z</time>
      </trkpt>
      <trkpt lat="43.31388" lon="-1.38729">
        <ele>182.31</ele>
        <time>2021-08-20T20:06:49Z</time>
      </trkpt>
      <trkpt lat="43.31389" lon="-1.38728">
        <ele>182.79</ele>
        <time>2021-08-20T20:06:50Z</time>
      </trkpt>
      <trkpt lat="43.3139" lon="-1.38724">
        <ele>183.75</ele>
        <time>2021-08-20T20:06:53Z</time>
      </trkpt>
      <trkpt lat="43.31391" lon="-1.38706">
        <ele>184.71</ele>
        <time>2021-08-20T20:07:03Z</time>
      </trkpt>
      <trkpt lat="43.31393" lon="-1.38681">
        <ele>186.15</ele>
        <time>2021-08-20T20:07:17Z</time>
      </trkpt>
      <trkpt lat="43.31396" lon="-1.38662">
        <ele>188.56</ele>
        <time>2021-08-20T20:07:29Z</time>
      </trkpt>
      <trkpt lat="43.314" lon="-1.38645">
        <ele>190</ele>
        <time>2021-08-20T20:07:40Z</time>
      </trkpt>
      <trkpt lat="43.31405" lon="-1.3863">
        <ele>191.44</ele>
        <time>2021-08-20T20:07:51Z</time>
      </trkpt>
      <trkpt lat="43.31407" lon="-1.38626">
        <ele>191.44</ele>
        <time>2021-08-20T20:07:57Z</time>
      </trkpt>
      <trkpt lat="43.31413" lon="-1.38609">
        <ele>191.92</ele>
        <time>2021-08-20T20:08:04Z</time>
      </trkpt>
      <trkpt lat="43.31422" lon="-1.38581">
        <ele>191.92</ele>
        <time>2021-08-20T20:08:12Z</time>
      </trkpt>
      <trkpt lat="43.31424" lon="-1.38557">
        <ele>193.84</ele>
        <time>2021-08-20T20:08:20Z</time>
      </trkpt>
      <trkpt lat="43.31424" lon="-1.38542">
        <ele>195.28</ele>
        <time>2021-08-20T20:08:26Z</time>
      </trkpt>
      <trkpt lat="43.31424" lon="-1.38529">
        <ele>195.77</ele>
        <time>2021-08-20T20:08:31Z</time>
      </trkpt>
      <trkpt lat="43.31428" lon="-1.3851">
        <ele>197.21</ele>
        <time>2021-08-20T20:08:39Z</time>
      </trkpt>
      <trkpt lat="43.31431" lon="-1.385">
        <ele>199.13</ele>
        <time>2021-08-20T20:08:44Z</time>
      </trkpt>
      <trkpt lat="43.31431" lon="-1.38499">
        <ele>199.13</ele>
        <time>2021-08-20T20:08:45Z</time>
      </trkpt>
      <trkpt lat="43.31431" lon="-1.38497">
        <ele>199.13</ele>
        <time>2021-08-20T20:08:46Z</time>
      </trkpt>
      <trkpt lat="43.31431" lon="-1.38495">
        <ele>199.13</ele>
        <time>2021-08-20T20:08:47Z</time>
      </trkpt>
      <trkpt lat="43.31433" lon="-1.38494">
        <ele>199.13</ele>
        <time>2021-08-20T20:08:48Z</time>
      </trkpt>
      <trkpt lat="43.31435" lon="-1.38489">
        <ele>200.09</ele>
        <time>2021-08-20T20:08:54Z</time>
      </trkpt>
      <trkpt lat="43.31439" lon="-1.38474">
        <ele>201.05</ele>
        <time>2021-08-20T20:09:04Z</time>
      </trkpt>
      <trkpt lat="43.31445" lon="-1.38461">
        <ele>202.01</ele>
        <time>2021-08-20T20:09:13Z</time>
      </trkpt>
      <trkpt lat="43.31452" lon="-1.38447">
        <ele>203.94</ele>
        <time>2021-08-20T20:09:23Z</time>
      </trkpt>
      <trkpt lat="43.31463" lon="-1.38432">
        <ele>205.86</ele>
        <time>2021-08-20T20:09:36Z</time>
      </trkpt>
      <trkpt lat="43.31473" lon="-1.38419">
        <ele>206.82</ele>
        <time>2021-08-20T20:09:47Z</time>
      </trkpt>
      <trkpt lat="43.31477" lon="-1.38415">
        <ele>207.78</ele>
        <time>2021-08-20T20:09:55Z</time>
      </trkpt>
      <trkpt lat="43.31477" lon="-1.38414">
        <ele>207.78</ele>
        <time>2021-08-20T20:09:56Z</time>
      </trkpt>
      <trkpt lat="43.31479" lon="-1.38411">
        <ele>207.78</ele>
        <time>2021-08-20T20:10:00Z</time>
      </trkpt>
      <trkpt lat="43.3148" lon="-1.3841">
        <ele>208.26</ele>
        <time>2021-08-20T20:10:01Z</time>
      </trkpt>
      <trkpt lat="43.31482" lon="-1.38409">
        <ele>208.26</ele>
        <time>2021-08-20T20:10:02Z</time>
      </trkpt>
      <trkpt lat="43.31497" lon="-1.38394">
        <ele>209.7</ele>
        <time>2021-08-20T20:10:11Z</time>
      </trkpt>
      <trkpt lat="43.31507" lon="-1.38383">
        <ele>210.67</ele>
        <time>2021-08-20T20:10:18Z</time>
      </trkpt>
      <trkpt lat="43.31519" lon="-1.38369">
        <ele>212.11</ele>
        <time>2021-08-20T20:10:27Z</time>
      </trkpt>
      <trkpt lat="43.31528" lon="-1.38354">
        <ele>212.59</ele>
        <time>2021-08-20T20:10:35Z</time>
      </trkpt>
      <trkpt lat="43.31534" lon="-1.38339">
        <ele>214.51</ele>
        <time>2021-08-20T20:10:43Z</time>
      </trkpt>
      <trkpt lat="43.3154" lon="-1.38322">
        <ele>215.47</ele>
        <time>2021-08-20T20:10:51Z</time>
      </trkpt>
      <trkpt lat="43.31548" lon="-1.38301">
        <ele>215.95</ele>
        <time>2021-08-20T20:11:00Z</time>
      </trkpt>
      <trkpt lat="43.31553" lon="-1.38287">
        <ele>217.4</ele>
        <time>2021-08-20T20:11:06Z</time>
      </trkpt>
      <trkpt lat="43.31559" lon="-1.38272">
        <ele>218.36</ele>
        <time>2021-08-20T20:11:13Z</time>
      </trkpt>
      <trkpt lat="43.31564" lon="-1.38257">
        <ele>219.32</ele>
        <time>2021-08-20T20:11:20Z</time>
      </trkpt>
      <trkpt lat="43.31573" lon="-1.38232">
        <ele>220.76</ele>
        <time>2021-08-20T20:11:30Z</time>
      </trkpt>
      <trkpt lat="43.31579" lon="-1.38217">
        <ele>220.76</ele>
        <time>2021-08-20T20:11:37Z</time>
      </trkpt>
      <trkpt lat="43.31588" lon="-1.38192">
        <ele>222.68</ele>
        <time>2021-08-20T20:11:48Z</time>
      </trkpt>
      <trkpt lat="43.31596" lon="-1.38171">
        <ele>223.16</ele>
        <time>2021-08-20T20:11:57Z</time>
      </trkpt>
      <trkpt lat="43.31601" lon="-1.38151">
        <ele>224.61</ele>
        <time>2021-08-20T20:12:05Z</time>
      </trkpt>
      <trkpt lat="43.31606" lon="-1.38128">
        <ele>225.57</ele>
        <time>2021-08-20T20:12:14Z</time>
      </trkpt>
      <trkpt lat="43.31608" lon="-1.3811">
        <ele>227.01</ele>
        <time>2021-08-20T20:12:22Z</time>
      </trkpt>
      <trkpt lat="43.31613" lon="-1.38088">
        <ele>227.97</ele>
        <time>2021-08-20T20:12:31Z</time>
      </trkpt>
      <trkpt lat="43.31618" lon="-1.38066">
        <ele>228.93</ele>
        <time>2021-08-20T20:12:41Z</time>
      </trkpt>
      <trkpt lat="43.31621" lon="-1.38049">
        <ele>230.37</ele>
        <time>2021-08-20T20:12:48Z</time>
      </trkpt>
      <trkpt lat="43.31626" lon="-1.38028">
        <ele>231.81</ele>
        <time>2021-08-20T20:12:57Z</time>
      </trkpt>
      <trkpt lat="43.3163" lon="-1.3801">
        <ele>233.26</ele>
        <time>2021-08-20T20:13:05Z</time>
      </trkpt>
      <trkpt lat="43.31634" lon="-1.37994">
        <ele>233.74</ele>
        <time>2021-08-20T20:13:12Z</time>
      </trkpt>
      <trkpt lat="43.31638" lon="-1.37984">
        <ele>235.66</ele>
        <time>2021-08-20T20:13:17Z</time>
      </trkpt>
      <trkpt lat="43.31645" lon="-1.3796">
        <ele>235.66</ele>
        <time>2021-08-20T20:13:27Z</time>
      </trkpt>
      <trkpt lat="43.31652" lon="-1.37936">
        <ele>237.1</ele>
        <time>2021-08-20T20:13:37Z</time>
      </trkpt>
      <trkpt lat="43.3166" lon="-1.37912">
        <ele>237.1</ele>
        <time>2021-08-20T20:13:44Z</time>
      </trkpt>
      <trkpt lat="43.31673" lon="-1.37876">
        <ele>235.66</ele>
        <time>2021-08-20T20:13:51Z</time>
      </trkpt>
      <trkpt lat="43.31686" lon="-1.37839">
        <ele>234.7</ele>
        <time>2021-08-20T20:13:57Z</time>
      </trkpt>
      <trkpt lat="43.31687" lon="-1.37833">
        <ele>234.7</ele>
        <time>2021-08-20T20:13:58Z</time>
      </trkpt>
      <trkpt lat="43.31693" lon="-1.37796">
        <ele>234.7</ele>
        <time>2021-08-20T20:14:05Z</time>
      </trkpt>
      <trkpt lat="43.31702" lon="-1.37746">
        <ele>234.22</ele>
        <time>2021-08-20T20:14:13Z</time>
      </trkpt>
      <trkpt lat="43.31713" lon="-1.37694">
        <ele>234.22</ele>
        <time>2021-08-20T20:14:22Z</time>
      </trkpt>
      <trkpt lat="43.31723" lon="-1.37657">
        <ele>234.7</ele>
        <time>2021-08-20T20:14:31Z</time>
      </trkpt>
      <trkpt lat="43.31721" lon="-1.37627">
        <ele>234.7</ele>
        <time>2021-08-20T20:14:38Z</time>
      </trkpt>
      <trkpt lat="43.31717" lon="-1.37594">
        <ele>236.62</ele>
        <time>2021-08-20T20:14:46Z</time>
      </trkpt>
      <trkpt lat="43.31714" lon="-1.37571">
        <ele>238.54</ele>
        <time>2021-08-20T20:14:52Z</time>
      </trkpt>
      <trkpt lat="43.31709" lon="-1.37532">
        <ele>239.99</ele>
        <time>2021-08-20T20:15:02Z</time>
      </trkpt>
      <trkpt lat="43.31704" lon="-1.37489">
        <ele>240.95</ele>
        <time>2021-08-20T20:15:12Z</time>
      </trkpt>
      <trkpt lat="43.31695" lon="-1.37449">
        <ele>241.91</ele>
        <time>2021-08-20T20:15:22Z</time>
      </trkpt>
      <trkpt lat="43.31688" lon="-1.37419">
        <ele>244.31</ele>
        <time>2021-08-20T20:15:30Z</time>
      </trkpt>
      <trkpt lat="43.31678" lon="-1.37376">
        <ele>248.16</ele>
        <time>2021-08-20T20:15:37Z</time>
      </trkpt>
      <trkpt lat="43.31673" lon="-1.3734">
        <ele>249.6</ele>
        <time>2021-08-20T20:15:44Z</time>
      </trkpt>
      <trkpt lat="43.31667" lon="-1.37311">
        <ele>249.6</ele>
        <time>2021-08-20T20:15:51Z</time>
      </trkpt>
      <trkpt lat="43.31662" lon="-1.37285">
        <ele>248.64</ele>
        <time>2021-08-20T20:15:56Z</time>
      </trkpt>
      <trkpt lat="43.31656" lon="-1.37255">
        <ele>245.27</ele>
        <time>2021-08-20T20:16:00Z</time>
      </trkpt>
      <trkpt lat="43.31649" lon="-1.37222">
        <ele>244.31</ele>
        <time>2021-08-20T20:16:04Z</time>
      </trkpt>
      <trkpt lat="43.31648" lon="-1.37214">
        <ele>244.31</ele>
        <time>2021-08-20T20:16:05Z</time>
      </trkpt>
      <trkpt lat="43.31645" lon="-1.37199">
        <ele>244.31</ele>
        <time>2021-08-20T20:16:07Z</time>
      </trkpt>
      <trkpt lat="43.31643" lon="-1.37193">
        <ele>244.31</ele>
        <time>2021-08-20T20:16:08Z</time>
      </trkpt>
      <trkpt lat="43.31642" lon="-1.37186">
        <ele>244.31</ele>
        <time>2021-08-20T20:16:09Z</time>
      </trkpt>
      <trkpt lat="43.3164" lon="-1.37179">
        <ele>244.31</ele>
        <time>2021-08-20T20:16:10Z</time>
      </trkpt>
      <trkpt lat="43.31639" lon="-1.37173">
        <ele>245.27</ele>
        <time>2021-08-20T20:16:11Z</time>
      </trkpt>
      <trkpt lat="43.31632" lon="-1.37143">
        <ele>246.23</ele>
        <time>2021-08-20T20:16:18Z</time>
      </trkpt>
      <trkpt lat="43.31624" lon="-1.37109">
        <ele>244.79</ele>
        <time>2021-08-20T20:16:25Z</time>
      </trkpt>
      <trkpt lat="43.31623" lon="-1.37103">
        <ele>244.79</ele>
        <time>2021-08-20T20:16:26Z</time>
      </trkpt>
      <trkpt lat="43.3161" lon="-1.37047">
        <ele>242.87</ele>
        <time>2021-08-20T20:16:33Z</time>
      </trkpt>
      <trkpt lat="43.31607" lon="-1.37031">
        <ele>242.87</ele>
        <time>2021-08-20T20:16:35Z</time>
      </trkpt>
      <trkpt lat="43.31608" lon="-1.36972">
        <ele>239.51</ele>
        <time>2021-08-20T20:16:42Z</time>
      </trkpt>
      <trkpt lat="43.31607" lon="-1.36924">
        <ele>235.66</ele>
        <time>2021-08-20T20:16:47Z</time>
      </trkpt>
      <trkpt lat="43.31605" lon="-1.36889">
        <ele>232.3</ele>
        <time>2021-08-20T20:16:50Z</time>
      </trkpt>
      <trkpt lat="43.31607" lon="-1.36849">
        <ele>229.89</ele>
        <time>2021-08-20T20:16:53Z</time>
      </trkpt>
      <trkpt lat="43.31614" lon="-1.36797">
        <ele>231.33</ele>
        <time>2021-08-20T20:16:58Z</time>
      </trkpt>
      <trkpt lat="43.31632" lon="-1.36736">
        <ele>230.85</ele>
        <time>2021-08-20T20:17:06Z</time>
      </trkpt>
      <trkpt lat="43.3164" lon="-1.36716">
        <ele>229.89</ele>
        <time>2021-08-20T20:17:09Z</time>
      </trkpt>
      <trkpt lat="43.31641" lon="-1.36709">
        <ele>229.41</ele>
        <time>2021-08-20T20:17:10Z</time>
      </trkpt>
      <trkpt lat="43.3164" lon="-1.36702">
        <ele>229.41</ele>
        <time>2021-08-20T20:17:11Z</time>
      </trkpt>
      <trkpt lat="43.31638" lon="-1.36661">
        <ele>226.05</ele>
        <time>2021-08-20T20:17:16Z</time>
      </trkpt>
      <trkpt lat="43.31635" lon="-1.36618">
        <ele>221.72</ele>
        <time>2021-08-20T20:17:20Z</time>
      </trkpt>
      <trkpt lat="43.31631" lon="-1.36573">
        <ele>219.32</ele>
        <time>2021-08-20T20:17:24Z</time>
      </trkpt>
      <trkpt lat="43.31628" lon="-1.3655">
        <ele>218.36</ele>
        <time>2021-08-20T20:17:26Z</time>
      </trkpt>
      <trkpt lat="43.31625" lon="-1.3654">
        <ele>218.36</ele>
        <time>2021-08-20T20:17:27Z</time>
      </trkpt>
      <trkpt lat="43.31621" lon="-1.3653">
        <ele>217.88</ele>
        <time>2021-08-20T20:17:28Z</time>
      </trkpt>
      <trkpt lat="43.31617" lon="-1.36522">
        <ele>217.88</ele>
        <time>2021-08-20T20:17:29Z</time>
      </trkpt>
      <trkpt lat="43.31611" lon="-1.36515">
        <ele>217.88</ele>
        <time>2021-08-20T20:17:30Z</time>
      </trkpt>
      <trkpt lat="43.31605" lon="-1.36509">
        <ele>217.4</ele>
        <time>2021-08-20T20:17:31Z</time>
      </trkpt>
      <trkpt lat="43.31599" lon="-1.36503">
        <ele>216.91</ele>
        <time>2021-08-20T20:17:32Z</time>
      </trkpt>
      <trkpt lat="43.31592" lon="-1.36497">
        <ele>216.91</ele>
        <time>2021-08-20T20:17:33Z</time>
      </trkpt>
      <trkpt lat="43.31534" lon="-1.36457">
        <ele>214.99</ele>
        <time>2021-08-20T20:17:41Z</time>
      </trkpt>
      <trkpt lat="43.31528" lon="-1.36452">
        <ele>214.99</ele>
        <time>2021-08-20T20:17:42Z</time>
      </trkpt>
      <trkpt lat="43.31523" lon="-1.36446">
        <ele>214.99</ele>
        <time>2021-08-20T20:17:43Z</time>
      </trkpt>
      <trkpt lat="43.31518" lon="-1.36439">
        <ele>214.03</ele>
        <time>2021-08-20T20:17:44Z</time>
      </trkpt>
      <trkpt lat="43.31498" lon="-1.36405">
        <ele>212.11</ele>
        <time>2021-08-20T20:17:49Z</time>
      </trkpt>
      <trkpt lat="43.31496" lon="-1.36399">
        <ele>211.63</ele>
        <time>2021-08-20T20:17:50Z</time>
      </trkpt>
      <trkpt lat="43.31495" lon="-1.36393">
        <ele>211.63</ele>
        <time>2021-08-20T20:17:51Z</time>
      </trkpt>
      <trkpt lat="43.31496" lon="-1.36386">
        <ele>210.19</ele>
        <time>2021-08-20T20:17:52Z</time>
      </trkpt>
      <trkpt lat="43.31498" lon="-1.3638">
        <ele>209.7</ele>
        <time>2021-08-20T20:17:53Z</time>
      </trkpt>
      <trkpt lat="43.31501" lon="-1.36375">
        <ele>209.7</ele>
        <time>2021-08-20T20:17:54Z</time>
      </trkpt>
      <trkpt lat="43.31505" lon="-1.36372">
        <ele>209.7</ele>
        <time>2021-08-20T20:17:55Z</time>
      </trkpt>
      <trkpt lat="43.31509" lon="-1.36371">
        <ele>209.22</ele>
        <time>2021-08-20T20:17:56Z</time>
      </trkpt>
      <trkpt lat="43.31513" lon="-1.36371">
        <ele>209.22</ele>
        <time>2021-08-20T20:17:57Z</time>
      </trkpt>
      <trkpt lat="43.31517" lon="-1.36372">
        <ele>208.26</ele>
        <time>2021-08-20T20:17:58Z</time>
      </trkpt>
      <trkpt lat="43.31521" lon="-1.36374">
        <ele>208.26</ele>
        <time>2021-08-20T20:17:59Z</time>
      </trkpt>
      <trkpt lat="43.31536" lon="-1.36382">
        <ele>206.34</ele>
        <time>2021-08-20T20:18:04Z</time>
      </trkpt>
      <trkpt lat="43.31537" lon="-1.36383">
        <ele>205.86</ele>
        <time>2021-08-20T20:18:10Z</time>
      </trkpt>
      <trkpt lat="43.31534" lon="-1.36383">
        <ele>205.86</ele>
        <time>2021-08-20T20:18:17Z</time>
      </trkpt>
      <trkpt lat="43.31533" lon="-1.36382">
        <ele>205.86</ele>
        <time>2021-08-20T20:18:20Z</time>
      </trkpt>
      <trkpt lat="43.3153" lon="-1.3638">
        <ele>206.34</ele>
        <time>2021-08-20T20:18:23Z</time>
      </trkpt>
      <trkpt lat="43.31528" lon="-1.36379">
        <ele>206.34</ele>
        <time>2021-08-20T20:18:24Z</time>
      </trkpt>
      <trkpt lat="43.31527" lon="-1.36378">
        <ele>206.34</ele>
        <time>2021-08-20T20:18:25Z</time>
      </trkpt>
      <trkpt lat="43.31526" lon="-1.36377">
        <ele>207.78</ele>
        <time>2021-08-20T20:18:26Z</time>
      </trkpt>
      <trkpt lat="43.31525" lon="-1.36377">
        <ele>207.78</ele>
        <time>2021-08-20T20:18:27Z</time>
      </trkpt>
      <trkpt lat="43.31521" lon="-1.36375">
        <ele>208.26</ele>
        <time>2021-08-20T20:18:30Z</time>
      </trkpt>
      <trkpt lat="43.3152" lon="-1.36374">
        <ele>208.26</ele>
        <time>2021-08-20T20:18:31Z</time>
      </trkpt>
      <trkpt lat="43.31508" lon="-1.36368">
        <ele>209.22</ele>
        <time>2021-08-20T20:18:39Z</time>
      </trkpt>
      <trkpt lat="43.31507" lon="-1.36364">
        <ele>209.22</ele>
        <time>2021-08-20T20:18:46Z</time>
      </trkpt>
      <trkpt lat="43.315" lon="-1.36345">
        <ele>207.78</ele>
        <time>2021-08-20T20:18:52Z</time>
      </trkpt>
      <trkpt lat="43.31495" lon="-1.36335">
        <ele>206.82</ele>
        <time>2021-08-20T20:18:54Z</time>
      </trkpt>
      <trkpt lat="43.31485" lon="-1.36308">
        <ele>203.94</ele>
        <time>2021-08-20T20:18:58Z</time>
      </trkpt>
      <trkpt lat="43.31477" lon="-1.3628">
        <ele>202.01</ele>
        <time>2021-08-20T20:19:01Z</time>
      </trkpt>
      <trkpt lat="43.31471" lon="-1.3625">
        <ele>198.65</ele>
        <time>2021-08-20T20:19:04Z</time>
      </trkpt>
      <trkpt lat="43.31465" lon="-1.3622">
        <ele>197.21</ele>
        <time>2021-08-20T20:19:07Z</time>
      </trkpt>
      <trkpt lat="43.31454" lon="-1.36166">
        <ele>193.36</ele>
        <time>2021-08-20T20:19:12Z</time>
      </trkpt>
      <trkpt lat="43.3145" lon="-1.36134">
        <ele>190</ele>
        <time>2021-08-20T20:19:15Z</time>
      </trkpt>
      <trkpt lat="43.3145" lon="-1.36095">
        <ele>187.11</ele>
        <time>2021-08-20T20:19:19Z</time>
      </trkpt>
      <trkpt lat="43.31449" lon="-1.36066">
        <ele>183.75</ele>
        <time>2021-08-20T20:19:22Z</time>
      </trkpt>
      <trkpt lat="43.31448" lon="-1.36049">
        <ele>181.83</ele>
        <time>2021-08-20T20:19:24Z</time>
      </trkpt>
      <trkpt lat="43.31443" lon="-1.36015">
        <ele>177.98</ele>
        <time>2021-08-20T20:19:28Z</time>
      </trkpt>
      <trkpt lat="43.31442" lon="-1.36001">
        <ele>177.02</ele>
        <time>2021-08-20T20:19:30Z</time>
      </trkpt>
      <trkpt lat="43.31442" lon="-1.35994">
        <ele>176.54</ele>
        <time>2021-08-20T20:19:31Z</time>
      </trkpt>
      <trkpt lat="43.31443" lon="-1.35987">
        <ele>177.02</ele>
        <time>2021-08-20T20:19:32Z</time>
      </trkpt>
      <trkpt lat="43.31444" lon="-1.3598">
        <ele>177.02</ele>
        <time>2021-08-20T20:19:33Z</time>
      </trkpt>
      <trkpt lat="43.31447" lon="-1.35974">
        <ele>177.02</ele>
        <time>2021-08-20T20:19:34Z</time>
      </trkpt>
      <trkpt lat="43.31449" lon="-1.35969">
        <ele>176.06</ele>
        <time>2021-08-20T20:19:35Z</time>
      </trkpt>
      <trkpt lat="43.31452" lon="-1.35964">
        <ele>175.58</ele>
        <time>2021-08-20T20:19:36Z</time>
      </trkpt>
      <trkpt lat="43.31456" lon="-1.35959">
        <ele>175.58</ele>
        <time>2021-08-20T20:19:37Z</time>
      </trkpt>
      <trkpt lat="43.31458" lon="-1.35954">
        <ele>175.1</ele>
        <time>2021-08-20T20:19:38Z</time>
      </trkpt>
      <trkpt lat="43.31468" lon="-1.35936">
        <ele>172.21</ele>
        <time>2021-08-20T20:19:41Z</time>
      </trkpt>
      <trkpt lat="43.31473" lon="-1.3592">
        <ele>169.33</ele>
        <time>2021-08-20T20:19:43Z</time>
      </trkpt>
      <trkpt lat="43.31482" lon="-1.35884">
        <ele>165.96</ele>
        <time>2021-08-20T20:19:47Z</time>
      </trkpt>
      <trkpt lat="43.31487" lon="-1.3586">
        <ele>164.04</ele>
        <time>2021-08-20T20:19:50Z</time>
      </trkpt>
      <trkpt lat="43.31489" lon="-1.35853">
        <ele>163.08</ele>
        <time>2021-08-20T20:19:51Z</time>
      </trkpt>
      <trkpt lat="43.31492" lon="-1.35845">
        <ele>161.16</ele>
        <time>2021-08-20T20:19:52Z</time>
      </trkpt>
      <trkpt lat="43.31496" lon="-1.35838">
        <ele>160.68</ele>
        <time>2021-08-20T20:19:53Z</time>
      </trkpt>
      <trkpt lat="43.315" lon="-1.35831">
        <ele>158.75</ele>
        <time>2021-08-20T20:19:54Z</time>
      </trkpt>
      <trkpt lat="43.31504" lon="-1.35824">
        <ele>157.31</ele>
        <time>2021-08-20T20:19:55Z</time>
      </trkpt>
      <trkpt lat="43.31511" lon="-1.35809">
        <ele>154.43</ele>
        <time>2021-08-20T20:19:57Z</time>
      </trkpt>
      <trkpt lat="43.31514" lon="-1.35802">
        <ele>153.95</ele>
        <time>2021-08-20T20:19:58Z</time>
      </trkpt>
      <trkpt lat="43.31516" lon="-1.35794">
        <ele>153.47</ele>
        <time>2021-08-20T20:19:59Z</time>
      </trkpt>
      <trkpt lat="43.31517" lon="-1.35786">
        <ele>152.99</ele>
        <time>2021-08-20T20:20:00Z</time>
      </trkpt>
      <trkpt lat="43.31517" lon="-1.35779">
        <ele>152.03</ele>
        <time>2021-08-20T20:20:01Z</time>
      </trkpt>
      <trkpt lat="43.31518" lon="-1.3577">
        <ele>150.58</ele>
        <time>2021-08-20T20:20:02Z</time>
      </trkpt>
      <trkpt lat="43.31517" lon="-1.35752">
        <ele>148.66</ele>
        <time>2021-08-20T20:20:04Z</time>
      </trkpt>
      <trkpt lat="43.31516" lon="-1.35742">
        <ele>147.7</ele>
        <time>2021-08-20T20:20:05Z</time>
      </trkpt>
      <trkpt lat="43.31514" lon="-1.35733">
        <ele>147.7</ele>
        <time>2021-08-20T20:20:06Z</time>
      </trkpt>
      <trkpt lat="43.3151" lon="-1.35708">
        <ele>147.22</ele>
        <time>2021-08-20T20:20:09Z</time>
      </trkpt>
      <trkpt lat="43.3151" lon="-1.35701">
        <ele>147.22</ele>
        <time>2021-08-20T20:20:10Z</time>
      </trkpt>
      <trkpt lat="43.31511" lon="-1.35695">
        <ele>146.74</ele>
        <time>2021-08-20T20:20:11Z</time>
      </trkpt>
      <trkpt lat="43.31513" lon="-1.35689">
        <ele>146.26</ele>
        <time>2021-08-20T20:20:12Z</time>
      </trkpt>
      <trkpt lat="43.31515" lon="-1.35684">
        <ele>145.3</ele>
        <time>2021-08-20T20:20:13Z</time>
      </trkpt>
      <trkpt lat="43.31517" lon="-1.35681">
        <ele>144.82</ele>
        <time>2021-08-20T20:20:14Z</time>
      </trkpt>
      <trkpt lat="43.3152" lon="-1.35679">
        <ele>144.34</ele>
        <time>2021-08-20T20:20:15Z</time>
      </trkpt>
      <trkpt lat="43.31524" lon="-1.35678">
        <ele>142.89</ele>
        <time>2021-08-20T20:20:16Z</time>
      </trkpt>
      <trkpt lat="43.31528" lon="-1.35678">
        <ele>142.41</ele>
        <time>2021-08-20T20:20:17Z</time>
      </trkpt>
      <trkpt lat="43.31533" lon="-1.35678">
        <ele>140.97</ele>
        <time>2021-08-20T20:20:18Z</time>
      </trkpt>
      <trkpt lat="43.31544" lon="-1.3568">
        <ele>136.64</ele>
        <time>2021-08-20T20:20:20Z</time>
      </trkpt>
      <trkpt lat="43.3155" lon="-1.35682">
        <ele>134.72</ele>
        <time>2021-08-20T20:20:21Z</time>
      </trkpt>
      <trkpt lat="43.31556" lon="-1.35685">
        <ele>132.8</ele>
        <time>2021-08-20T20:20:22Z</time>
      </trkpt>
      <trkpt lat="43.31563" lon="-1.35688">
        <ele>130.88</ele>
        <time>2021-08-20T20:20:23Z</time>
      </trkpt>
      <trkpt lat="43.31583" lon="-1.357">
        <ele>127.99</ele>
        <time>2021-08-20T20:20:26Z</time>
      </trkpt>
      <trkpt lat="43.31594" lon="-1.35704">
        <ele>127.03</ele>
        <time>2021-08-20T20:20:28Z</time>
      </trkpt>
      <trkpt lat="43.31611" lon="-1.35715">
        <ele>122.22</ele>
        <time>2021-08-20T20:20:31Z</time>
      </trkpt>
      <trkpt lat="43.31628" lon="-1.35726">
        <ele>118.86</ele>
        <time>2021-08-20T20:20:34Z</time>
      </trkpt>
      <trkpt lat="43.31633" lon="-1.35728">
        <ele>118.86</ele>
        <time>2021-08-20T20:20:35Z</time>
      </trkpt>
      <trkpt lat="43.31638" lon="-1.35729">
        <ele>118.38</ele>
        <time>2021-08-20T20:20:36Z</time>
      </trkpt>
      <trkpt lat="43.31643" lon="-1.3573">
        <ele>117.9</ele>
        <time>2021-08-20T20:20:37Z</time>
      </trkpt>
      <trkpt lat="43.31647" lon="-1.3573">
        <ele>116.94</ele>
        <time>2021-08-20T20:20:38Z</time>
      </trkpt>
      <trkpt lat="43.31651" lon="-1.35729">
        <ele>116.94</ele>
        <time>2021-08-20T20:20:39Z</time>
      </trkpt>
      <trkpt lat="43.31655" lon="-1.35728">
        <ele>115.98</ele>
        <time>2021-08-20T20:20:40Z</time>
      </trkpt>
      <trkpt lat="43.31677" lon="-1.35721">
        <ele>115.01</ele>
        <time>2021-08-20T20:20:46Z</time>
      </trkpt>
      <trkpt lat="43.31678" lon="-1.35719">
        <ele>115.01</ele>
        <time>2021-08-20T20:20:47Z</time>
      </trkpt>
      <trkpt lat="43.31678" lon="-1.35716">
        <ele>115.01</ele>
        <time>2021-08-20T20:20:48Z</time>
      </trkpt>
      <trkpt lat="43.31677" lon="-1.35715">
        <ele>115.01</ele>
        <time>2021-08-20T20:20:53Z</time>
      </trkpt>
      <trkpt lat="43.31677" lon="-1.35712">
        <ele>115.01</ele>
        <time>2021-08-20T20:21:00Z</time>
      </trkpt>
      <trkpt lat="43.31676" lon="-1.3571">
        <ele>115.01</ele>
        <time>2021-08-20T20:21:01Z</time>
      </trkpt>
      <trkpt lat="43.31668" lon="-1.35689">
        <ele>115.01</ele>
        <time>2021-08-20T20:21:07Z</time>
      </trkpt>
      <trkpt lat="43.31665" lon="-1.35661">
        <ele>114.53</ele>
        <time>2021-08-20T20:21:13Z</time>
      </trkpt>
      <trkpt lat="43.31663" lon="-1.35639">
        <ele>114.05</ele>
        <time>2021-08-20T20:21:18Z</time>
      </trkpt>
      <trkpt lat="43.31661" lon="-1.3561">
        <ele>113.57</ele>
        <time>2021-08-20T20:21:25Z</time>
      </trkpt>
      <trkpt lat="43.31656" lon="-1.35561">
        <ele>112.13</ele>
        <time>2021-08-20T20:21:33Z</time>
      </trkpt>
      <trkpt lat="43.31656" lon="-1.35518">
        <ele>111.65</ele>
        <time>2021-08-20T20:21:39Z</time>
      </trkpt>
      <trkpt lat="43.31658" lon="-1.35455">
        <ele>111.17</ele>
        <time>2021-08-20T20:21:47Z</time>
      </trkpt>
      <trkpt lat="43.31653" lon="-1.35379">
        <ele>109.73</ele>
        <time>2021-08-20T20:21:57Z</time>
      </trkpt>
      <trkpt lat="43.31651" lon="-1.35342">
        <ele>107.32</ele>
        <time>2021-08-20T20:22:01Z</time>
      </trkpt>
      <trkpt lat="43.31646" lon="-1.3527">
        <ele>103.96</ele>
        <time>2021-08-20T20:22:08Z</time>
      </trkpt>
      <trkpt lat="43.3164" lon="-1.35187">
        <ele>103.48</ele>
        <time>2021-08-20T20:22:16Z</time>
      </trkpt>
      <trkpt lat="43.31634" lon="-1.3512">
        <ele>103.48</ele>
        <time>2021-08-20T20:22:24Z</time>
      </trkpt>
      <trkpt lat="43.31621" lon="-1.35054">
        <ele>103.48</ele>
        <time>2021-08-20T20:22:33Z</time>
      </trkpt>
      <trkpt lat="43.31619" lon="-1.35041">
        <ele>103</ele>
        <time>2021-08-20T20:22:35Z</time>
      </trkpt>
      <trkpt lat="43.3162" lon="-1.35035">
        <ele>103</ele>
        <time>2021-08-20T20:22:36Z</time>
      </trkpt>
      <trkpt lat="43.31624" lon="-1.3503">
        <ele>103</ele>
        <time>2021-08-20T20:22:37Z</time>
      </trkpt>
      <trkpt lat="43.31627" lon="-1.35028">
        <ele>103</ele>
        <time>2021-08-20T20:22:38Z</time>
      </trkpt>
      <trkpt lat="43.3163" lon="-1.35027">
        <ele>103</ele>
        <time>2021-08-20T20:22:39Z</time>
      </trkpt>
      <trkpt lat="43.31633" lon="-1.35027">
        <ele>103</ele>
        <time>2021-08-20T20:22:40Z</time>
      </trkpt>
      <trkpt lat="43.31652" lon="-1.35022">
        <ele>104.92</ele>
        <time>2021-08-20T20:22:47Z</time>
      </trkpt>
      <trkpt lat="43.31668" lon="-1.3501">
        <ele>104.92</ele>
        <time>2021-08-20T20:22:53Z</time>
      </trkpt>
      <trkpt lat="43.31676" lon="-1.34999">
        <ele>104.92</ele>
        <time>2021-08-20T20:22:56Z</time>
      </trkpt>
      <trkpt lat="43.31681" lon="-1.34989">
        <ele>104.92</ele>
        <time>2021-08-20T20:22:58Z</time>
      </trkpt>
      <trkpt lat="43.31698" lon="-1.34941">
        <ele>104.92</ele>
        <time>2021-08-20T20:23:06Z</time>
      </trkpt>
      <trkpt lat="43.3171" lon="-1.34898">
        <ele>104.92</ele>
        <time>2021-08-20T20:23:14Z</time>
      </trkpt>
      <trkpt lat="43.31726" lon="-1.34854">
        <ele>103</ele>
        <time>2021-08-20T20:23:21Z</time>
      </trkpt>
      <trkpt lat="43.31736" lon="-1.34821">
        <ele>101.56</ele>
        <time>2021-08-20T20:23:25Z</time>
      </trkpt>
      <trkpt lat="43.3174" lon="-1.34804">
        <ele>101.56</ele>
        <time>2021-08-20T20:23:27Z</time>
      </trkpt>
      <trkpt lat="43.31742" lon="-1.34777">
        <ele>101.56</ele>
        <time>2021-08-20T20:23:30Z</time>
      </trkpt>
      <trkpt lat="43.31734" lon="-1.34709">
        <ele>100.11</ele>
        <time>2021-08-20T20:23:38Z</time>
      </trkpt>
      <trkpt lat="43.31717" lon="-1.34625">
        <ele>99.15</ele>
        <time>2021-08-20T20:23:48Z</time>
      </trkpt>
      <trkpt lat="43.31708" lon="-1.34561">
        <ele>99.15</ele>
        <time>2021-08-20T20:23:56Z</time>
      </trkpt>
      <trkpt lat="43.31708" lon="-1.3454">
        <ele>100.6</ele>
        <time>2021-08-20T20:23:59Z</time>
      </trkpt>
      <trkpt lat="43.3171" lon="-1.34519">
        <ele>100.6</ele>
        <time>2021-08-20T20:24:02Z</time>
      </trkpt>
      <trkpt lat="43.31722" lon="-1.3447">
        <ele>101.08</ele>
        <time>2021-08-20T20:24:10Z</time>
      </trkpt>
      <trkpt lat="43.31727" lon="-1.34452">
        <ele>101.08</ele>
        <time>2021-08-20T20:24:13Z</time>
      </trkpt>
      <trkpt lat="43.3173" lon="-1.34446">
        <ele>101.08</ele>
        <time>2021-08-20T20:24:14Z</time>
      </trkpt>
      <trkpt lat="43.31743" lon="-1.34419">
        <ele>101.56</ele>
        <time>2021-08-20T20:24:19Z</time>
      </trkpt>
      <trkpt lat="43.31757" lon="-1.34368">
        <ele>101.56</ele>
        <time>2021-08-20T20:24:27Z</time>
      </trkpt>
      <trkpt lat="43.31764" lon="-1.34315">
        <ele>102.52</ele>
        <time>2021-08-20T20:24:35Z</time>
      </trkpt>
      <trkpt lat="43.3177" lon="-1.34261">
        <ele>103</ele>
        <time>2021-08-20T20:24:43Z</time>
      </trkpt>
      <trkpt lat="43.31772" lon="-1.34195">
        <ele>103</ele>
        <time>2021-08-20T20:24:53Z</time>
      </trkpt>
      <trkpt lat="43.31769" lon="-1.34136">
        <ele>103.48</ele>
        <time>2021-08-20T20:25:02Z</time>
      </trkpt>
      <trkpt lat="43.31769" lon="-1.3413">
        <ele>103.96</ele>
        <time>2021-08-20T20:25:03Z</time>
      </trkpt>
      <trkpt lat="43.31769" lon="-1.34124">
        <ele>103.96</ele>
        <time>2021-08-20T20:25:04Z</time>
      </trkpt>
      <trkpt lat="43.31768" lon="-1.34072">
        <ele>104.44</ele>
        <time>2021-08-20T20:25:13Z</time>
      </trkpt>
      <trkpt lat="43.31776" lon="-1.34038">
        <ele>105.88</ele>
        <time>2021-08-20T20:25:20Z</time>
      </trkpt>
      <trkpt lat="43.31788" lon="-1.34013">
        <ele>107.81</ele>
        <time>2021-08-20T20:25:28Z</time>
      </trkpt>
      <trkpt lat="43.31806" lon="-1.33992">
        <ele>110.21</ele>
        <time>2021-08-20T20:25:38Z</time>
      </trkpt>
      <trkpt lat="43.31817" lon="-1.33981">
        <ele>111.65</ele>
        <time>2021-08-20T20:25:45Z</time>
      </trkpt>
      <trkpt lat="43.31817" lon="-1.33979">
        <ele>111.65</ele>
        <time>2021-08-20T20:25:46Z</time>
      </trkpt>
      <trkpt lat="43.31818" lon="-1.33976">
        <ele>112.13</ele>
        <time>2021-08-20T20:25:47Z</time>
      </trkpt>
      <trkpt lat="43.3182" lon="-1.33975">
        <ele>112.13</ele>
        <time>2021-08-20T20:25:48Z</time>
      </trkpt>
      <trkpt lat="43.31832" lon="-1.33969">
        <ele>113.57</ele>
        <time>2021-08-20T20:25:55Z</time>
      </trkpt>
      <trkpt lat="43.31839" lon="-1.33966">
        <ele>114.53</ele>
        <time>2021-08-20T20:25:58Z</time>
      </trkpt>
      <trkpt lat="43.31852" lon="-1.33956">
        <ele>115.98</ele>
        <time>2021-08-20T20:26:05Z</time>
      </trkpt>
      <trkpt lat="43.31864" lon="-1.3394">
        <ele>116.46</ele>
        <time>2021-08-20T20:26:13Z</time>
      </trkpt>
      <trkpt lat="43.31878" lon="-1.33912">
        <ele>116.94</ele>
        <time>2021-08-20T20:26:23Z</time>
      </trkpt>
      <trkpt lat="43.31887" lon="-1.33881">
        <ele>117.42</ele>
        <time>2021-08-20T20:26:31Z</time>
      </trkpt>
      <trkpt lat="43.31894" lon="-1.33837">
        <ele>117.9</ele>
        <time>2021-08-20T20:26:41Z</time>
      </trkpt>
      <trkpt lat="43.31906" lon="-1.33807">
        <ele>118.86</ele>
        <time>2021-08-20T20:26:50Z</time>
      </trkpt>
      <trkpt lat="43.31921" lon="-1.33785">
        <ele>119.82</ele>
        <time>2021-08-20T20:26:58Z</time>
      </trkpt>
      <trkpt lat="43.31953" lon="-1.33757">
        <ele>120.3</ele>
        <time>2021-08-20T20:27:09Z</time>
      </trkpt>
      <trkpt lat="43.31981" lon="-1.33738">
        <ele>120.78</ele>
        <time>2021-08-20T20:27:18Z</time>
      </trkpt>
      <trkpt lat="43.32006" lon="-1.33714">
        <ele>121.26</ele>
        <time>2021-08-20T20:27:26Z</time>
      </trkpt>
      <trkpt lat="43.32027" lon="-1.33682">
        <ele>122.22</ele>
        <time>2021-08-20T20:27:34Z</time>
      </trkpt>
      <trkpt lat="43.32048" lon="-1.33633">
        <ele>123.19</ele>
        <time>2021-08-20T20:27:45Z</time>
      </trkpt>
      <trkpt lat="43.32064" lon="-1.3359">
        <ele>124.15</ele>
        <time>2021-08-20T20:27:55Z</time>
      </trkpt>
      <trkpt lat="43.32085" lon="-1.33553">
        <ele>124.63</ele>
        <time>2021-08-20T20:28:05Z</time>
      </trkpt>
      <trkpt lat="43.32106" lon="-1.33524">
        <ele>125.59</ele>
        <time>2021-08-20T20:28:14Z</time>
      </trkpt>
      <trkpt lat="43.3213" lon="-1.33502">
        <ele>126.55</ele>
        <time>2021-08-20T20:28:22Z</time>
      </trkpt>
      <trkpt lat="43.32166" lon="-1.33473">
        <ele>127.51</ele>
        <time>2021-08-20T20:28:33Z</time>
      </trkpt>
      <trkpt lat="43.32201" lon="-1.33449">
        <ele>128.95</ele>
        <time>2021-08-20T20:28:44Z</time>
      </trkpt>
      <trkpt lat="43.3222" lon="-1.33444">
        <ele>130.4</ele>
        <time>2021-08-20T20:28:52Z</time>
      </trkpt>
      <trkpt lat="43.32239" lon="-1.33448">
        <ele>132.8</ele>
        <time>2021-08-20T20:29:01Z</time>
      </trkpt>
      <trkpt lat="43.32255" lon="-1.33457">
        <ele>134.24</ele>
        <time>2021-08-20T20:29:09Z</time>
      </trkpt>
      <trkpt lat="43.32273" lon="-1.33475">
        <ele>135.2</ele>
        <time>2021-08-20T20:29:18Z</time>
      </trkpt>
      <trkpt lat="43.32298" lon="-1.33499">
        <ele>137.13</ele>
        <time>2021-08-20T20:29:29Z</time>
      </trkpt>
      <trkpt lat="43.32318" lon="-1.33505">
        <ele>138.57</ele>
        <time>2021-08-20T20:29:36Z</time>
      </trkpt>
      <trkpt lat="43.32346" lon="-1.33503">
        <ele>138.57</ele>
        <time>2021-08-20T20:29:45Z</time>
      </trkpt>
      <trkpt lat="43.3238" lon="-1.33496">
        <ele>139.53</ele>
        <time>2021-08-20T20:29:55Z</time>
      </trkpt>
      <trkpt lat="43.32414" lon="-1.33491">
        <ele>140.97</ele>
        <time>2021-08-20T20:30:05Z</time>
      </trkpt>
      <trkpt lat="43.32443" lon="-1.33486">
        <ele>142.89</ele>
        <time>2021-08-20T20:30:14Z</time>
      </trkpt>
      <trkpt lat="43.3247" lon="-1.33481">
        <ele>144.34</ele>
        <time>2021-08-20T20:30:24Z</time>
      </trkpt>
      <trkpt lat="43.32491" lon="-1.33478">
        <ele>146.26</ele>
        <time>2021-08-20T20:30:33Z</time>
      </trkpt>
      <trkpt lat="43.32516" lon="-1.33476">
        <ele>148.18</ele>
        <time>2021-08-20T20:30:43Z</time>
      </trkpt>
      <trkpt lat="43.3253" lon="-1.33478">
        <ele>149.14</ele>
        <time>2021-08-20T20:30:49Z</time>
      </trkpt>
      <trkpt lat="43.32548" lon="-1.33481">
        <ele>150.1</ele>
        <time>2021-08-20T20:30:57Z</time>
      </trkpt>
      <trkpt lat="43.32565" lon="-1.33492">
        <ele>151.54</ele>
        <time>2021-08-20T20:31:05Z</time>
      </trkpt>
      <trkpt lat="43.32582" lon="-1.33505">
        <ele>152.99</ele>
        <time>2021-08-20T20:31:13Z</time>
      </trkpt>
      <trkpt lat="43.32598" lon="-1.33518">
        <ele>153.47</ele>
        <time>2021-08-20T20:31:21Z</time>
      </trkpt>
      <trkpt lat="43.32618" lon="-1.33533">
        <ele>154.91</ele>
        <time>2021-08-20T20:31:30Z</time>
      </trkpt>
      <trkpt lat="43.32637" lon="-1.33545">
        <ele>155.39</ele>
        <time>2021-08-20T20:31:38Z</time>
      </trkpt>
      <trkpt lat="43.32653" lon="-1.33552">
        <ele>156.35</ele>
        <time>2021-08-20T20:31:45Z</time>
      </trkpt>
      <trkpt lat="43.32674" lon="-1.33555">
        <ele>156.83</ele>
        <time>2021-08-20T20:31:53Z</time>
      </trkpt>
      <trkpt lat="43.32694" lon="-1.3355">
        <ele>157.31</ele>
        <time>2021-08-20T20:32:00Z</time>
      </trkpt>
      <trkpt lat="43.32724" lon="-1.3354">
        <ele>157.79</ele>
        <time>2021-08-20T20:32:10Z</time>
      </trkpt>
      <trkpt lat="43.32747" lon="-1.33535">
        <ele>158.27</ele>
        <time>2021-08-20T20:32:18Z</time>
      </trkpt>
      <trkpt lat="43.32782" lon="-1.33523">
        <ele>159.24</ele>
        <time>2021-08-20T20:32:30Z</time>
      </trkpt>
      <trkpt lat="43.32801" lon="-1.33512">
        <ele>160.68</ele>
        <time>2021-08-20T20:32:37Z</time>
      </trkpt>
      <trkpt lat="43.32823" lon="-1.33483">
        <ele>160.68</ele>
        <time>2021-08-20T20:32:46Z</time>
      </trkpt>
      <trkpt lat="43.32843" lon="-1.33447">
        <ele>161.16</ele>
        <time>2021-08-20T20:32:56Z</time>
      </trkpt>
      <trkpt lat="43.32851" lon="-1.33416">
        <ele>162.12</ele>
        <time>2021-08-20T20:33:04Z</time>
      </trkpt>
      <trkpt lat="43.32857" lon="-1.33384">
        <ele>164.04</ele>
        <time>2021-08-20T20:33:13Z</time>
      </trkpt>
      <trkpt lat="43.32861" lon="-1.3336">
        <ele>165</ele>
        <time>2021-08-20T20:33:20Z</time>
      </trkpt>
      <trkpt lat="43.32865" lon="-1.33334">
        <ele>165.48</ele>
        <time>2021-08-20T20:33:27Z</time>
      </trkpt>
      <trkpt lat="43.32871" lon="-1.3331">
        <ele>166.93</ele>
        <time>2021-08-20T20:33:35Z</time>
      </trkpt>
      <trkpt lat="43.32875" lon="-1.33294">
        <ele>167.41</ele>
        <time>2021-08-20T20:33:41Z</time>
      </trkpt>
      <trkpt lat="43.32879" lon="-1.3327">
        <ele>169.33</ele>
        <time>2021-08-20T20:33:50Z</time>
      </trkpt>
      <trkpt lat="43.32883" lon="-1.33249">
        <ele>170.77</ele>
        <time>2021-08-20T20:33:59Z</time>
      </trkpt>
      <trkpt lat="43.32885" lon="-1.33242">
        <ele>171.25</ele>
        <time>2021-08-20T20:34:02Z</time>
      </trkpt>
      <trkpt lat="43.32886" lon="-1.33241">
        <ele>171.25</ele>
        <time>2021-08-20T20:34:03Z</time>
      </trkpt>
      <trkpt lat="43.32886" lon="-1.33239">
        <ele>171.73</ele>
        <time>2021-08-20T20:34:04Z</time>
      </trkpt>
      <trkpt lat="43.32886" lon="-1.33237">
        <ele>171.73</ele>
        <time>2021-08-20T20:34:05Z</time>
      </trkpt>
      <trkpt lat="43.32887" lon="-1.33235">
        <ele>171.73</ele>
        <time>2021-08-20T20:34:06Z</time>
      </trkpt>
      <trkpt lat="43.32887" lon="-1.33233">
        <ele>172.21</ele>
        <time>2021-08-20T20:34:07Z</time>
      </trkpt>
      <trkpt lat="43.32887" lon="-1.33231">
        <ele>172.21</ele>
        <time>2021-08-20T20:34:08Z</time>
      </trkpt>
      <trkpt lat="43.32887" lon="-1.3323">
        <ele>172.69</ele>
        <time>2021-08-20T20:34:09Z</time>
      </trkpt>
      <trkpt lat="43.32887" lon="-1.33228">
        <ele>172.69</ele>
        <time>2021-08-20T20:34:10Z</time>
      </trkpt>
      <trkpt lat="43.32888" lon="-1.33226">
        <ele>172.69</ele>
        <time>2021-08-20T20:34:11Z</time>
      </trkpt>
      <trkpt lat="43.32888" lon="-1.33224">
        <ele>173.17</ele>
        <time>2021-08-20T20:34:12Z</time>
      </trkpt>
      <trkpt lat="43.32888" lon="-1.33222">
        <ele>173.17</ele>
        <time>2021-08-20T20:34:13Z</time>
      </trkpt>
      <trkpt lat="43.32889" lon="-1.33206">
        <ele>174.14</ele>
        <time>2021-08-20T20:34:21Z</time>
      </trkpt>
      <trkpt lat="43.32891" lon="-1.33195">
        <ele>175.1</ele>
        <time>2021-08-20T20:34:26Z</time>
      </trkpt>
      <trkpt lat="43.32892" lon="-1.33193">
        <ele>175.1</ele>
        <time>2021-08-20T20:34:27Z</time>
      </trkpt>
      <trkpt lat="43.32893" lon="-1.3319">
        <ele>175.1</ele>
        <time>2021-08-20T20:34:28Z</time>
      </trkpt>
      <trkpt lat="43.32893" lon="-1.33188">
        <ele>175.58</ele>
        <time>2021-08-20T20:34:29Z</time>
      </trkpt>
      <trkpt lat="43.32892" lon="-1.33186">
        <ele>175.58</ele>
        <time>2021-08-20T20:34:30Z</time>
      </trkpt>
      <trkpt lat="43.32891" lon="-1.33183">
        <ele>176.06</ele>
        <time>2021-08-20T20:34:31Z</time>
      </trkpt>
      <trkpt lat="43.32891" lon="-1.33181">
        <ele>176.06</ele>
        <time>2021-08-20T20:34:32Z</time>
      </trkpt>
      <trkpt lat="43.32891" lon="-1.33178">
        <ele>176.06</ele>
        <time>2021-08-20T20:34:33Z</time>
      </trkpt>
      <trkpt lat="43.32891" lon="-1.33173">
        <ele>177.02</ele>
        <time>2021-08-20T20:34:35Z</time>
      </trkpt>
      <trkpt lat="43.3289" lon="-1.33171">
        <ele>177.02</ele>
        <time>2021-08-20T20:34:41Z</time>
      </trkpt>
      <trkpt lat="43.32891" lon="-1.3317">
        <ele>177.02</ele>
        <time>2021-08-20T20:34:45Z</time>
      </trkpt>
      <trkpt lat="43.32893" lon="-1.33159">
        <ele>178.46</ele>
        <time>2021-08-20T20:34:50Z</time>
      </trkpt>
      <trkpt lat="43.32896" lon="-1.33138">
        <ele>180.38</ele>
        <time>2021-08-20T20:34:59Z</time>
      </trkpt>
      <trkpt lat="43.329" lon="-1.33123">
        <ele>181.83</ele>
        <time>2021-08-20T20:35:07Z</time>
      </trkpt>
      <trkpt lat="43.329" lon="-1.3312">
        <ele>181.83</ele>
        <time>2021-08-20T20:35:08Z</time>
      </trkpt>
      <trkpt lat="43.329" lon="-1.33118">
        <ele>182.31</ele>
        <time>2021-08-20T20:35:09Z</time>
      </trkpt>
      <trkpt lat="43.329" lon="-1.33112">
        <ele>182.79</ele>
        <time>2021-08-20T20:35:12Z</time>
      </trkpt>
      <trkpt lat="43.32903" lon="-1.33094">
        <ele>184.23</ele>
        <time>2021-08-20T20:35:21Z</time>
      </trkpt>
      <trkpt lat="43.32903" lon="-1.33081">
        <ele>185.67</ele>
        <time>2021-08-20T20:35:28Z</time>
      </trkpt>
      <trkpt lat="43.32903" lon="-1.33079">
        <ele>186.15</ele>
        <time>2021-08-20T20:35:29Z</time>
      </trkpt>
      <trkpt lat="43.32903" lon="-1.33077">
        <ele>186.15</ele>
        <time>2021-08-20T20:35:30Z</time>
      </trkpt>
      <trkpt lat="43.32903" lon="-1.33075">
        <ele>186.15</ele>
        <time>2021-08-20T20:35:31Z</time>
      </trkpt>
      <trkpt lat="43.32904" lon="-1.33072">
        <ele>186.63</ele>
        <time>2021-08-20T20:35:32Z</time>
      </trkpt>
      <trkpt lat="43.32904" lon="-1.33071">
        <ele>186.63</ele>
        <time>2021-08-20T20:35:33Z</time>
      </trkpt>
      <trkpt lat="43.32905" lon="-1.33056">
        <ele>187.59</ele>
        <time>2021-08-20T20:35:40Z</time>
      </trkpt>
      <trkpt lat="43.32907" lon="-1.33046">
        <ele>188.08</ele>
        <time>2021-08-20T20:35:44Z</time>
      </trkpt>
      <trkpt lat="43.3291" lon="-1.33026">
        <ele>189.04</ele>
        <time>2021-08-20T20:35:52Z</time>
      </trkpt>
      <trkpt lat="43.32914" lon="-1.33006">
        <ele>190.48</ele>
        <time>2021-08-20T20:36:00Z</time>
      </trkpt>
      <trkpt lat="43.3292" lon="-1.32987">
        <ele>190.96</ele>
        <time>2021-08-20T20:36:08Z</time>
      </trkpt>
      <trkpt lat="43.32928" lon="-1.32967">
        <ele>191.92</ele>
        <time>2021-08-20T20:36:18Z</time>
      </trkpt>
      <trkpt lat="43.32939" lon="-1.32941">
        <ele>192.4</ele>
        <time>2021-08-20T20:36:30Z</time>
      </trkpt>
      <trkpt lat="43.32947" lon="-1.32915">
        <ele>194.32</ele>
        <time>2021-08-20T20:36:41Z</time>
      </trkpt>
      <trkpt lat="43.32955" lon="-1.32887">
        <ele>195.77</ele>
        <time>2021-08-20T20:36:52Z</time>
      </trkpt>
      <trkpt lat="43.32959" lon="-1.32866">
        <ele>197.69</ele>
        <time>2021-08-20T20:37:01Z</time>
      </trkpt>
      <trkpt lat="43.32963" lon="-1.32851">
        <ele>198.65</ele>
        <time>2021-08-20T20:37:08Z</time>
      </trkpt>
      <trkpt lat="43.32966" lon="-1.32837">
        <ele>199.61</ele>
        <time>2021-08-20T20:37:15Z</time>
      </trkpt>
      <trkpt lat="43.3297" lon="-1.32818">
        <ele>202.49</ele>
        <time>2021-08-20T20:37:25Z</time>
      </trkpt>
      <trkpt lat="43.32974" lon="-1.32798">
        <ele>203.46</ele>
        <time>2021-08-20T20:37:36Z</time>
      </trkpt>
      <trkpt lat="43.32976" lon="-1.32792">
        <ele>205.38</ele>
        <time>2021-08-20T20:37:39Z</time>
      </trkpt>
      <trkpt lat="43.32981" lon="-1.32773">
        <ele>206.34</ele>
        <time>2021-08-20T20:37:49Z</time>
      </trkpt>
      <trkpt lat="43.32984" lon="-1.32752">
        <ele>208.26</ele>
        <time>2021-08-20T20:37:58Z</time>
      </trkpt>
      <trkpt lat="43.32985" lon="-1.32735">
        <ele>208.74</ele>
        <time>2021-08-20T20:38:05Z</time>
      </trkpt>
      <trkpt lat="43.32984" lon="-1.3273">
        <ele>208.74</ele>
        <time>2021-08-20T20:38:11Z</time>
      </trkpt>
      <trkpt lat="43.32984" lon="-1.3273">
        <ele>208.74</ele>
        <time>2021-08-20T20:38:29Z</time>
      </trkpt>
      <trkpt lat="43.32985" lon="-1.3273">
        <ele>208.74</ele>
        <time>2021-08-20T20:38:43Z</time>
      </trkpt>
      <trkpt lat="43.32985" lon="-1.3273">
        <ele>208.74</ele>
        <time>2021-08-20T20:39:03Z</time>
      </trkpt>
      <trkpt lat="43.32983" lon="-1.32731">
        <ele>209.22</ele>
        <time>2021-08-20T20:39:20Z</time>
      </trkpt>
      <trkpt lat="43.32983" lon="-1.32731">
        <ele>209.22</ele>
        <time>2021-08-20T20:39:42Z</time>
      </trkpt>
      <trkpt lat="43.32985" lon="-1.32729">
        <ele>209.22</ele>
        <time>2021-08-20T20:39:50Z</time>
      </trkpt>
      <trkpt lat="43.32983" lon="-1.32729">
        <ele>209.22</ele>
        <time>2021-08-20T20:40:03Z</time>
      </trkpt>
      <trkpt lat="43.32981" lon="-1.32727">
        <ele>209.22</ele>
        <time>2021-08-20T20:40:16Z</time>
      </trkpt>
      <trkpt lat="43.32983" lon="-1.32725">
        <ele>209.7</ele>
        <time>2021-08-20T20:40:32Z</time>
      </trkpt>
      <trkpt lat="43.32983" lon="-1.32726">
        <ele>209.7</ele>
        <time>2021-08-20T20:40:44Z</time>
      </trkpt>
      <trkpt lat="43.32984" lon="-1.32727">
        <ele>209.7</ele>
        <time>2021-08-20T20:40:45Z</time>
      </trkpt>
      <trkpt lat="43.32985" lon="-1.32729">
        <ele>209.7</ele>
        <time>2021-08-20T20:40:46Z</time>
      </trkpt>
      <trkpt lat="43.32985" lon="-1.32727">
        <ele>209.7</ele>
        <time>2021-08-20T20:40:50Z</time>
      </trkpt>
      <trkpt lat="43.32984" lon="-1.32726">
        <ele>209.7</ele>
        <time>2021-08-20T20:41:03Z</time>
      </trkpt>
      <trkpt lat="43.32983" lon="-1.32728">
        <ele>209.7</ele>
        <time>2021-08-20T20:41:25Z</time>
      </trkpt>
      <trkpt lat="43.32984" lon="-1.32727">
        <ele>209.7</ele>
        <time>2021-08-20T20:41:46Z</time>
      </trkpt>
      <trkpt lat="43.32986" lon="-1.32725">
        <ele>209.7</ele>
        <time>2021-08-20T20:42:00Z</time>
      </trkpt>
      <trkpt lat="43.32986" lon="-1.32725">
        <ele>209.7</ele>
        <time>2021-08-20T20:42:01Z</time>
      </trkpt>
      <trkpt lat="43.32987" lon="-1.32724">
        <ele>209.7</ele>
        <time>2021-08-20T20:42:02Z</time>
      </trkpt>
      <trkpt lat="43.32988" lon="-1.32725">
        <ele>209.7</ele>
        <time>2021-08-20T20:42:03Z</time>
      </trkpt>
      <trkpt lat="43.32988" lon="-1.32727">
        <ele>209.7</ele>
        <time>2021-08-20T20:42:04Z</time>
      </trkpt>
      <trkpt lat="43.32987" lon="-1.32728">
        <ele>209.7</ele>
        <time>2021-08-20T20:42:05Z</time>
      </trkpt>
      <trkpt lat="43.32987" lon="-1.3273">
        <ele>209.7</ele>
        <time>2021-08-20T20:42:06Z</time>
      </trkpt>
      <trkpt lat="43.32987" lon="-1.32732">
        <ele>209.22</ele>
        <time>2021-08-20T20:42:07Z</time>
      </trkpt>
      <trkpt lat="43.32987" lon="-1.32735">
        <ele>209.22</ele>
        <time>2021-08-20T20:42:08Z</time>
      </trkpt>
      <trkpt lat="43.32987" lon="-1.32737">
        <ele>209.22</ele>
        <time>2021-08-20T20:42:09Z</time>
      </trkpt>
      <trkpt lat="43.32985" lon="-1.3276">
        <ele>208.74</ele>
        <time>2021-08-20T20:42:18Z</time>
      </trkpt>
      <trkpt lat="43.32981" lon="-1.32778">
        <ele>206.82</ele>
        <time>2021-08-20T20:42:25Z</time>
      </trkpt>
      <trkpt lat="43.32979" lon="-1.32787">
        <ele>206.34</ele>
        <time>2021-08-20T20:42:31Z</time>
      </trkpt>
      <trkpt lat="43.32978" lon="-1.32789">
        <ele>206.34</ele>
        <time>2021-08-20T20:42:32Z</time>
      </trkpt>
      <trkpt lat="43.32977" lon="-1.3279">
        <ele>205.86</ele>
        <time>2021-08-20T20:42:33Z</time>
      </trkpt>
      <trkpt lat="43.32976" lon="-1.3279">
        <ele>206.34</ele>
        <time>2021-08-20T20:42:34Z</time>
      </trkpt>
      <trkpt lat="43.32976" lon="-1.32788">
        <ele>206.34</ele>
        <time>2021-08-20T20:42:35Z</time>
      </trkpt>
      <trkpt lat="43.32975" lon="-1.32786">
        <ele>205.86</ele>
        <time>2021-08-20T20:42:36Z</time>
      </trkpt>
      <trkpt lat="43.32976" lon="-1.32784">
        <ele>206.34</ele>
        <time>2021-08-20T20:42:37Z</time>
      </trkpt>
      <trkpt lat="43.32977" lon="-1.32782">
        <ele>206.34</ele>
        <time>2021-08-20T20:42:38Z</time>
      </trkpt>
      <trkpt lat="43.32978" lon="-1.3278">
        <ele>206.34</ele>
        <time>2021-08-20T20:42:39Z</time>
      </trkpt>
      <trkpt lat="43.32979" lon="-1.32777">
        <ele>207.3</ele>
        <time>2021-08-20T20:42:40Z</time>
      </trkpt>
      <trkpt lat="43.3298" lon="-1.32775">
        <ele>207.78</ele>
        <time>2021-08-20T20:42:41Z</time>
      </trkpt>
      <trkpt lat="43.32981" lon="-1.32772">
        <ele>207.78</ele>
        <time>2021-08-20T20:42:42Z</time>
      </trkpt>
      <trkpt lat="43.32985" lon="-1.32744">
        <ele>209.7</ele>
        <time>2021-08-20T20:42:51Z</time>
      </trkpt>
      <trkpt lat="43.32987" lon="-1.32719">
        <ele>210.19</ele>
        <time>2021-08-20T20:42:58Z</time>
      </trkpt>
      <trkpt lat="43.32987" lon="-1.32687">
        <ele>210.19</ele>
        <time>2021-08-20T20:43:06Z</time>
      </trkpt>
      <trkpt lat="43.32988" lon="-1.32657">
        <ele>211.15</ele>
        <time>2021-08-20T20:43:13Z</time>
      </trkpt>
      <trkpt lat="43.32989" lon="-1.32617">
        <ele>211.15</ele>
        <time>2021-08-20T20:43:21Z</time>
      </trkpt>
      <trkpt lat="43.32994" lon="-1.32576">
        <ele>211.15</ele>
        <time>2021-08-20T20:43:29Z</time>
      </trkpt>
      <trkpt lat="43.33001" lon="-1.32527">
        <ele>211.15</ele>
        <time>2021-08-20T20:43:38Z</time>
      </trkpt>
      <trkpt lat="43.33011" lon="-1.32475">
        <ele>210.19</ele>
        <time>2021-08-20T20:43:47Z</time>
      </trkpt>
      <trkpt lat="43.33033" lon="-1.32432">
        <ele>210.19</ele>
        <time>2021-08-20T20:43:57Z</time>
      </trkpt>
      <trkpt lat="43.33052" lon="-1.324">
        <ele>212.59</ele>
        <time>2021-08-20T20:44:06Z</time>
      </trkpt>
      <trkpt lat="43.33068" lon="-1.32367">
        <ele>213.07</ele>
        <time>2021-08-20T20:44:15Z</time>
      </trkpt>
      <trkpt lat="43.33076" lon="-1.3233">
        <ele>214.99</ele>
        <time>2021-08-20T20:44:23Z</time>
      </trkpt>
      <trkpt lat="43.33086" lon="-1.32282">
        <ele>215.95</ele>
        <time>2021-08-20T20:44:33Z</time>
      </trkpt>
      <trkpt lat="43.33095" lon="-1.32247">
        <ele>216.91</ele>
        <time>2021-08-20T20:44:41Z</time>
      </trkpt>
      <trkpt lat="43.33104" lon="-1.32212">
        <ele>217.88</ele>
        <time>2021-08-20T20:44:48Z</time>
      </trkpt>
      <trkpt lat="43.33104" lon="-1.32205">
        <ele>217.88</ele>
        <time>2021-08-20T20:44:49Z</time>
      </trkpt>
      <trkpt lat="43.33103" lon="-1.32185">
        <ele>216.43</ele>
        <time>2021-08-20T20:44:52Z</time>
      </trkpt>
      <trkpt lat="43.33101" lon="-1.32177">
        <ele>216.43</ele>
        <time>2021-08-20T20:44:53Z</time>
      </trkpt>
      <trkpt lat="43.331" lon="-1.3217">
        <ele>215.95</ele>
        <time>2021-08-20T20:44:54Z</time>
      </trkpt>
      <trkpt lat="43.33083" lon="-1.32117">
        <ele>213.07</ele>
        <time>2021-08-20T20:45:00Z</time>
      </trkpt>
      <trkpt lat="43.3308" lon="-1.3211">
        <ele>213.07</ele>
        <time>2021-08-20T20:45:01Z</time>
      </trkpt>
      <trkpt lat="43.33052" lon="-1.3204">
        <ele>209.7</ele>
        <time>2021-08-20T20:45:09Z</time>
      </trkpt>
      <trkpt lat="43.33048" lon="-1.3202">
        <ele>209.22</ele>
        <time>2021-08-20T20:45:11Z</time>
      </trkpt>
      <trkpt lat="43.33038" lon="-1.31966">
        <ele>206.82</ele>
        <time>2021-08-20T20:45:16Z</time>
      </trkpt>
      <trkpt lat="43.33029" lon="-1.31936">
        <ele>205.86</ele>
        <time>2021-08-20T20:45:19Z</time>
      </trkpt>
      <trkpt lat="43.33024" lon="-1.31927">
        <ele>204.9</ele>
        <time>2021-08-20T20:45:20Z</time>
      </trkpt>
      <trkpt lat="43.33019" lon="-1.31919">
        <ele>204.9</ele>
        <time>2021-08-20T20:45:21Z</time>
      </trkpt>
      <trkpt lat="43.33013" lon="-1.31911">
        <ele>204.42</ele>
        <time>2021-08-20T20:45:22Z</time>
      </trkpt>
      <trkpt lat="43.33006" lon="-1.31905">
        <ele>203.46</ele>
        <time>2021-08-20T20:45:23Z</time>
      </trkpt>
      <trkpt lat="43.33" lon="-1.31899">
        <ele>202.98</ele>
        <time>2021-08-20T20:45:24Z</time>
      </trkpt>
      <trkpt lat="43.32992" lon="-1.31894">
        <ele>202.01</ele>
        <time>2021-08-20T20:45:25Z</time>
      </trkpt>
      <trkpt lat="43.32985" lon="-1.3189">
        <ele>202.01</ele>
        <time>2021-08-20T20:45:26Z</time>
      </trkpt>
      <trkpt lat="43.32977" lon="-1.31887">
        <ele>202.01</ele>
        <time>2021-08-20T20:45:27Z</time>
      </trkpt>
      <trkpt lat="43.32942" lon="-1.3187">
        <ele>200.57</ele>
        <time>2021-08-20T20:45:32Z</time>
      </trkpt>
      <trkpt lat="43.32936" lon="-1.31864">
        <ele>200.57</ele>
        <time>2021-08-20T20:45:33Z</time>
      </trkpt>
      <trkpt lat="43.3293" lon="-1.31858">
        <ele>200.57</ele>
        <time>2021-08-20T20:45:34Z</time>
      </trkpt>
      <trkpt lat="43.32926" lon="-1.31852">
        <ele>200.57</ele>
        <time>2021-08-20T20:45:35Z</time>
      </trkpt>
      <trkpt lat="43.32921" lon="-1.31845">
        <ele>200.57</ele>
        <time>2021-08-20T20:45:36Z</time>
      </trkpt>
      <trkpt lat="43.32917" lon="-1.31839">
        <ele>200.57</ele>
        <time>2021-08-20T20:45:37Z</time>
      </trkpt>
      <trkpt lat="43.32914" lon="-1.31832">
        <ele>200.57</ele>
        <time>2021-08-20T20:45:38Z</time>
      </trkpt>
      <trkpt lat="43.32912" lon="-1.31825">
        <ele>200.57</ele>
        <time>2021-08-20T20:45:39Z</time>
      </trkpt>
      <trkpt lat="43.32902" lon="-1.31777">
        <ele>202.01</ele>
        <time>2021-08-20T20:45:46Z</time>
      </trkpt>
      <trkpt lat="43.32901" lon="-1.3177">
        <ele>202.01</ele>
        <time>2021-08-20T20:45:47Z</time>
      </trkpt>
      <trkpt lat="43.32897" lon="-1.31753">
        <ele>202.01</ele>
        <time>2021-08-20T20:45:50Z</time>
      </trkpt>
      <trkpt lat="43.32896" lon="-1.31748">
        <ele>202.01</ele>
        <time>2021-08-20T20:45:51Z</time>
      </trkpt>
      <trkpt lat="43.32895" lon="-1.31742">
        <ele>202.01</ele>
        <time>2021-08-20T20:45:52Z</time>
      </trkpt>
      <trkpt lat="43.32892" lon="-1.3173">
        <ele>202.01</ele>
        <time>2021-08-20T20:45:54Z</time>
      </trkpt>
      <trkpt lat="43.32889" lon="-1.31711">
        <ele>202.01</ele>
        <time>2021-08-20T20:45:57Z</time>
      </trkpt>
      <trkpt lat="43.32888" lon="-1.31705">
        <ele>202.01</ele>
        <time>2021-08-20T20:45:58Z</time>
      </trkpt>
      <trkpt lat="43.32879" lon="-1.31657">
        <ele>202.01</ele>
        <time>2021-08-20T20:46:05Z</time>
      </trkpt>
      <trkpt lat="43.32874" lon="-1.31607">
        <ele>202.01</ele>
        <time>2021-08-20T20:46:12Z</time>
      </trkpt>
      <trkpt lat="43.32871" lon="-1.31554">
        <ele>202.01</ele>
        <time>2021-08-20T20:46:19Z</time>
      </trkpt>
      <trkpt lat="43.32874" lon="-1.31488">
        <ele>200.57</ele>
        <time>2021-08-20T20:46:27Z</time>
      </trkpt>
      <trkpt lat="43.32894" lon="-1.31405">
        <ele>200.09</ele>
        <time>2021-08-20T20:46:38Z</time>
      </trkpt>
      <trkpt lat="43.32902" lon="-1.3138">
        <ele>198.65</ele>
        <time>2021-08-20T20:46:41Z</time>
      </trkpt>
      <trkpt lat="43.32918" lon="-1.31341">
        <ele>194.8</ele>
        <time>2021-08-20T20:46:45Z</time>
      </trkpt>
      <trkpt lat="43.32927" lon="-1.3132">
        <ele>193.36</ele>
        <time>2021-08-20T20:46:47Z</time>
      </trkpt>
      <trkpt lat="43.32954" lon="-1.31268">
        <ele>190</ele>
        <time>2021-08-20T20:46:52Z</time>
      </trkpt>
      <trkpt lat="43.32974" lon="-1.31234">
        <ele>188.08</ele>
        <time>2021-08-20T20:46:55Z</time>
      </trkpt>
      <trkpt lat="43.32984" lon="-1.31211">
        <ele>186.15</ele>
        <time>2021-08-20T20:46:57Z</time>
      </trkpt>
      <trkpt lat="43.32989" lon="-1.31196">
        <ele>185.19</ele>
        <time>2021-08-20T20:46:58Z</time>
      </trkpt>
      <trkpt lat="43.32992" lon="-1.31186">
        <ele>185.19</ele>
        <time>2021-08-20T20:46:59Z</time>
      </trkpt>
      <trkpt lat="43.33002" lon="-1.31121">
        <ele>181.83</ele>
        <time>2021-08-20T20:47:04Z</time>
      </trkpt>
      <trkpt lat="43.33003" lon="-1.31071">
        <ele>179.42</ele>
        <time>2021-08-20T20:47:08Z</time>
      </trkpt>
      <trkpt lat="43.33003" lon="-1.31059">
        <ele>178.46</ele>
        <time>2021-08-20T20:47:09Z</time>
      </trkpt>
      <trkpt lat="43.33005" lon="-1.31047">
        <ele>177.5</ele>
        <time>2021-08-20T20:47:10Z</time>
      </trkpt>
      <trkpt lat="43.33009" lon="-1.31036">
        <ele>177.02</ele>
        <time>2021-08-20T20:47:11Z</time>
      </trkpt>
      <trkpt lat="43.3302" lon="-1.31014">
        <ele>176.06</ele>
        <time>2021-08-20T20:47:13Z</time>
      </trkpt>
      <trkpt lat="43.33028" lon="-1.30993">
        <ele>174.62</ele>
        <time>2021-08-20T20:47:15Z</time>
      </trkpt>
      <trkpt lat="43.33031" lon="-1.30981">
        <ele>174.14</ele>
        <time>2021-08-20T20:47:16Z</time>
      </trkpt>
      <trkpt lat="43.33033" lon="-1.30967">
        <ele>173.66</ele>
        <time>2021-08-20T20:47:17Z</time>
      </trkpt>
      <trkpt lat="43.33035" lon="-1.30954">
        <ele>173.17</ele>
        <time>2021-08-20T20:47:18Z</time>
      </trkpt>
      <trkpt lat="43.33035" lon="-1.3094">
        <ele>172.21</ele>
        <time>2021-08-20T20:47:19Z</time>
      </trkpt>
      <trkpt lat="43.33033" lon="-1.30926">
        <ele>171.73</ele>
        <time>2021-08-20T20:47:20Z</time>
      </trkpt>
      <trkpt lat="43.3303" lon="-1.30913">
        <ele>170.77</ele>
        <time>2021-08-20T20:47:21Z</time>
      </trkpt>
      <trkpt lat="43.33026" lon="-1.309">
        <ele>169.81</ele>
        <time>2021-08-20T20:47:22Z</time>
      </trkpt>
      <trkpt lat="43.33021" lon="-1.30888">
        <ele>169.33</ele>
        <time>2021-08-20T20:47:23Z</time>
      </trkpt>
      <trkpt lat="43.33016" lon="-1.30876">
        <ele>168.37</ele>
        <time>2021-08-20T20:47:24Z</time>
      </trkpt>
      <trkpt lat="43.33006" lon="-1.30852">
        <ele>166.93</ele>
        <time>2021-08-20T20:47:26Z</time>
      </trkpt>
      <trkpt lat="43.33003" lon="-1.3084">
        <ele>166.45</ele>
        <time>2021-08-20T20:47:27Z</time>
      </trkpt>
      <trkpt lat="43.33002" lon="-1.30828">
        <ele>165.48</ele>
        <time>2021-08-20T20:47:28Z</time>
      </trkpt>
      <trkpt lat="43.33003" lon="-1.30814">
        <ele>165</ele>
        <time>2021-08-20T20:47:29Z</time>
      </trkpt>
      <trkpt lat="43.33006" lon="-1.30803">
        <ele>165</ele>
        <time>2021-08-20T20:47:30Z</time>
      </trkpt>
      <trkpt lat="43.33011" lon="-1.30792">
        <ele>164.04</ele>
        <time>2021-08-20T20:47:31Z</time>
      </trkpt>
      <trkpt lat="43.33017" lon="-1.30781">
        <ele>163.08</ele>
        <time>2021-08-20T20:47:32Z</time>
      </trkpt>
      <trkpt lat="43.33024" lon="-1.30771">
        <ele>163.08</ele>
        <time>2021-08-20T20:47:33Z</time>
      </trkpt>
      <trkpt lat="43.33081" lon="-1.30694">
        <ele>161.16</ele>
        <time>2021-08-20T20:47:41Z</time>
      </trkpt>
      <trkpt lat="43.33124" lon="-1.30634">
        <ele>161.16</ele>
        <time>2021-08-20T20:47:48Z</time>
      </trkpt>
      <trkpt lat="43.33163" lon="-1.30591">
        <ele>159.72</ele>
        <time>2021-08-20T20:47:54Z</time>
      </trkpt>
      <trkpt lat="43.33192" lon="-1.30557">
        <ele>156.35</ele>
        <time>2021-08-20T20:47:58Z</time>
      </trkpt>
      <trkpt lat="43.33209" lon="-1.30527">
        <ele>153.47</ele>
        <time>2021-08-20T20:48:01Z</time>
      </trkpt>
      <trkpt lat="43.33221" lon="-1.30507">
        <ele>151.54</ele>
        <time>2021-08-20T20:48:03Z</time>
      </trkpt>
      <trkpt lat="43.33228" lon="-1.30498">
        <ele>151.06</ele>
        <time>2021-08-20T20:48:04Z</time>
      </trkpt>
      <trkpt lat="43.33235" lon="-1.30491">
        <ele>151.06</ele>
        <time>2021-08-20T20:48:05Z</time>
      </trkpt>
      <trkpt lat="43.33243" lon="-1.30485">
        <ele>151.06</ele>
        <time>2021-08-20T20:48:06Z</time>
      </trkpt>
      <trkpt lat="43.33251" lon="-1.30479">
        <ele>150.58</ele>
        <time>2021-08-20T20:48:07Z</time>
      </trkpt>
      <trkpt lat="43.33292" lon="-1.30433">
        <ele>148.66</ele>
        <time>2021-08-20T20:48:13Z</time>
      </trkpt>
      <trkpt lat="43.33343" lon="-1.30362">
        <ele>148.18</ele>
        <time>2021-08-20T20:48:22Z</time>
      </trkpt>
      <trkpt lat="43.3339" lon="-1.30295">
        <ele>146.26</ele>
        <time>2021-08-20T20:48:31Z</time>
      </trkpt>
      <trkpt lat="43.33403" lon="-1.30284">
        <ele>145.3</ele>
        <time>2021-08-20T20:48:33Z</time>
      </trkpt>
      <trkpt lat="43.33411" lon="-1.3028">
        <ele>144.82</ele>
        <time>2021-08-20T20:48:34Z</time>
      </trkpt>
      <trkpt lat="43.33419" lon="-1.30277">
        <ele>144.34</ele>
        <time>2021-08-20T20:48:35Z</time>
      </trkpt>
      <trkpt lat="43.33427" lon="-1.30274">
        <ele>143.85</ele>
        <time>2021-08-20T20:48:36Z</time>
      </trkpt>
      <trkpt lat="43.33436" lon="-1.30273">
        <ele>142.41</ele>
        <time>2021-08-20T20:48:37Z</time>
      </trkpt>
      <trkpt lat="43.33445" lon="-1.30273">
        <ele>142.41</ele>
        <time>2021-08-20T20:48:38Z</time>
      </trkpt>
      <trkpt lat="43.33521" lon="-1.30272">
        <ele>141.45</ele>
        <time>2021-08-20T20:48:47Z</time>
      </trkpt>
      <trkpt lat="43.33566" lon="-1.30269">
        <ele>140.97</ele>
        <time>2021-08-20T20:48:53Z</time>
      </trkpt>
      <trkpt lat="43.33574" lon="-1.30267">
        <ele>140.49</ele>
        <time>2021-08-20T20:48:54Z</time>
      </trkpt>
      <trkpt lat="43.3358" lon="-1.30263">
        <ele>140.49</ele>
        <time>2021-08-20T20:48:55Z</time>
      </trkpt>
      <trkpt lat="43.33586" lon="-1.30258">
        <ele>140.49</ele>
        <time>2021-08-20T20:48:56Z</time>
      </trkpt>
      <trkpt lat="43.33592" lon="-1.30253">
        <ele>140.49</ele>
        <time>2021-08-20T20:48:57Z</time>
      </trkpt>
      <trkpt lat="43.33597" lon="-1.30247">
        <ele>140.49</ele>
        <time>2021-08-20T20:48:58Z</time>
      </trkpt>
      <trkpt lat="43.33601" lon="-1.30241">
        <ele>140.49</ele>
        <time>2021-08-20T20:48:59Z</time>
      </trkpt>
      <trkpt lat="43.33605" lon="-1.30235">
        <ele>140.49</ele>
        <time>2021-08-20T20:49:00Z</time>
      </trkpt>
      <trkpt lat="43.33612" lon="-1.30224">
        <ele>141.45</ele>
        <time>2021-08-20T20:49:02Z</time>
      </trkpt>
      <trkpt lat="43.33627" lon="-1.30197">
        <ele>143.37</ele>
        <time>2021-08-20T20:49:07Z</time>
      </trkpt>
      <trkpt lat="43.3364" lon="-1.30176">
        <ele>143.85</ele>
        <time>2021-08-20T20:49:11Z</time>
      </trkpt>
      <trkpt lat="43.33644" lon="-1.30172">
        <ele>143.85</ele>
        <time>2021-08-20T20:49:12Z</time>
      </trkpt>
      <trkpt lat="43.33648" lon="-1.30169">
        <ele>144.34</ele>
        <time>2021-08-20T20:49:13Z</time>
      </trkpt>
      <trkpt lat="43.33669" lon="-1.30149">
        <ele>144.34</ele>
        <time>2021-08-20T20:49:18Z</time>
      </trkpt>
      <trkpt lat="43.33673" lon="-1.30144">
        <ele>144.34</ele>
        <time>2021-08-20T20:49:19Z</time>
      </trkpt>
      <trkpt lat="43.33677" lon="-1.30138">
        <ele>144.34</ele>
        <time>2021-08-20T20:49:20Z</time>
      </trkpt>
      <trkpt lat="43.3368" lon="-1.30131">
        <ele>144.34</ele>
        <time>2021-08-20T20:49:21Z</time>
      </trkpt>
      <trkpt lat="43.33683" lon="-1.30125">
        <ele>144.34</ele>
        <time>2021-08-20T20:49:22Z</time>
      </trkpt>
      <trkpt lat="43.33685" lon="-1.30118">
        <ele>144.34</ele>
        <time>2021-08-20T20:49:23Z</time>
      </trkpt>
      <trkpt lat="43.33687" lon="-1.30111">
        <ele>144.34</ele>
        <time>2021-08-20T20:49:24Z</time>
      </trkpt>
      <trkpt lat="43.33689" lon="-1.30104">
        <ele>144.34</ele>
        <time>2021-08-20T20:49:25Z</time>
      </trkpt>
      <trkpt lat="43.33701" lon="-1.30048">
        <ele>145.78</ele>
        <time>2021-08-20T20:49:34Z</time>
      </trkpt>
      <trkpt lat="43.33709" lon="-1.30014">
        <ele>146.26</ele>
        <time>2021-08-20T20:49:40Z</time>
      </trkpt>
      <trkpt lat="43.33723" lon="-1.29985">
        <ele>147.7</ele>
        <time>2021-08-20T20:49:47Z</time>
      </trkpt>
      <trkpt lat="43.3374" lon="-1.29978">
        <ele>149.14</ele>
        <time>2021-08-20T20:49:54Z</time>
      </trkpt>
      <trkpt lat="43.3376" lon="-1.29979">
        <ele>150.58</ele>
        <time>2021-08-20T20:50:02Z</time>
      </trkpt>
      <trkpt lat="43.33781" lon="-1.29984">
        <ele>151.54</ele>
        <time>2021-08-20T20:50:10Z</time>
      </trkpt>
      <trkpt lat="43.33808" lon="-1.29989">
        <ele>152.99</ele>
        <time>2021-08-20T20:50:20Z</time>
      </trkpt>
      <trkpt lat="43.33826" lon="-1.29992">
        <ele>153.47</ele>
        <time>2021-08-20T20:50:27Z</time>
      </trkpt>
      <trkpt lat="43.3385" lon="-1.29998">
        <ele>153.95</ele>
        <time>2021-08-20T20:50:35Z</time>
      </trkpt>
      <trkpt lat="43.33853" lon="-1.29999">
        <ele>154.43</ele>
        <time>2021-08-20T20:50:36Z</time>
      </trkpt>
      <trkpt lat="43.33879" lon="-1.30006">
        <ele>154.91</ele>
        <time>2021-08-20T20:50:45Z</time>
      </trkpt>
      <trkpt lat="43.33913" lon="-1.30012">
        <ele>156.35</ele>
        <time>2021-08-20T20:50:56Z</time>
      </trkpt>
      <trkpt lat="43.33926" lon="-1.30011">
        <ele>156.83</ele>
        <time>2021-08-20T20:51:02Z</time>
      </trkpt>
      <trkpt lat="43.33944" lon="-1.30009">
        <ele>157.31</ele>
        <time>2021-08-20T20:51:11Z</time>
      </trkpt>
      <trkpt lat="43.33964" lon="-1.30006">
        <ele>158.27</ele>
        <time>2021-08-20T20:51:20Z</time>
      </trkpt>
      <trkpt lat="43.33981" lon="-1.29997">
        <ele>159.72</ele>
        <time>2021-08-20T20:51:28Z</time>
      </trkpt>
      <trkpt lat="43.33991" lon="-1.29973">
        <ele>161.64</ele>
        <time>2021-08-20T20:51:37Z</time>
      </trkpt>
      <trkpt lat="43.33995" lon="-1.29937">
        <ele>164.04</ele>
        <time>2021-08-20T20:51:48Z</time>
      </trkpt>
      <trkpt lat="43.33998" lon="-1.29906">
        <ele>165.48</ele>
        <time>2021-08-20T20:51:58Z</time>
      </trkpt>
      <trkpt lat="43.33999" lon="-1.29884">
        <ele>166.45</ele>
        <time>2021-08-20T20:52:05Z</time>
      </trkpt>
      <trkpt lat="43.34002" lon="-1.2986">
        <ele>167.41</ele>
        <time>2021-08-20T20:52:12Z</time>
      </trkpt>
      <trkpt lat="43.34007" lon="-1.29834">
        <ele>167.89</ele>
        <time>2021-08-20T20:52:20Z</time>
      </trkpt>
      <trkpt lat="43.3401" lon="-1.2983">
        <ele>167.89</ele>
        <time>2021-08-20T20:52:24Z</time>
      </trkpt>
      <trkpt lat="43.34012" lon="-1.29831">
        <ele>167.89</ele>
        <time>2021-08-20T20:52:25Z</time>
      </trkpt>
      <trkpt lat="43.34013" lon="-1.29832">
        <ele>167.89</ele>
        <time>2021-08-20T20:52:26Z</time>
      </trkpt>
      <trkpt lat="43.34015" lon="-1.29833">
        <ele>167.89</ele>
        <time>2021-08-20T20:52:27Z</time>
      </trkpt>
      <trkpt lat="43.34017" lon="-1.29835">
        <ele>167.89</ele>
        <time>2021-08-20T20:52:28Z</time>
      </trkpt>
      <trkpt lat="43.34019" lon="-1.29837">
        <ele>167.89</ele>
        <time>2021-08-20T20:52:29Z</time>
      </trkpt>
      <trkpt lat="43.3402" lon="-1.29838">
        <ele>167.89</ele>
        <time>2021-08-20T20:52:30Z</time>
      </trkpt>
      <trkpt lat="43.34034" lon="-1.29858">
        <ele>168.37</ele>
        <time>2021-08-20T20:52:37Z</time>
      </trkpt>
      <trkpt lat="43.34042" lon="-1.29871">
        <ele>169.33</ele>
        <time>2021-08-20T20:52:43Z</time>
      </trkpt>
      <trkpt lat="43.34042" lon="-1.29871">
        <ele>169.81</ele>
        <time>2021-08-20T20:52:49Z</time>
      </trkpt>
      <trkpt lat="43.34041" lon="-1.29873">
        <ele>169.81</ele>
        <time>2021-08-20T20:52:59Z</time>
      </trkpt>
      <trkpt lat="43.34041" lon="-1.29873">
        <ele>169.81</ele>
        <time>2021-08-20T20:53:06Z</time>
      </trkpt>
      <trkpt lat="43.3404" lon="-1.29875">
        <ele>169.81</ele>
        <time>2021-08-20T20:53:23Z</time>
      </trkpt>
      <trkpt lat="43.3404" lon="-1.29875">
        <ele>169.81</ele>
        <time>2021-08-20T20:53:33Z</time>
      </trkpt>
      <trkpt lat="43.3404" lon="-1.29875">
        <ele>169.81</ele>
        <time>2021-08-20T20:53:49Z</time>
      </trkpt>
      <trkpt lat="43.34039" lon="-1.29874">
        <ele>169.81</ele>
        <time>2021-08-20T20:54:05Z</time>
      </trkpt>
      <trkpt lat="43.34039" lon="-1.29873">
        <ele>169.81</ele>
        <time>2021-08-20T20:54:20Z</time>
      </trkpt>
      <trkpt lat="43.3404" lon="-1.29873">
        <ele>169.81</ele>
        <time>2021-08-20T20:54:29Z</time>
      </trkpt>
      <trkpt lat="43.34043" lon="-1.29871">
        <ele>169.81</ele>
        <time>2021-08-20T20:54:44Z</time>
      </trkpt>
      <trkpt lat="43.34045" lon="-1.2987">
        <ele>169.81</ele>
        <time>2021-08-20T20:55:00Z</time>
      </trkpt>
      <trkpt lat="43.34044" lon="-1.29868">
        <ele>169.81</ele>
        <time>2021-08-20T20:55:20Z</time>
      </trkpt>
      <trkpt lat="43.34043" lon="-1.29869">
        <ele>169.81</ele>
        <time>2021-08-20T20:55:33Z</time>
      </trkpt>
      <trkpt lat="43.34042" lon="-1.2987">
        <ele>169.81</ele>
        <time>2021-08-20T20:55:46Z</time>
      </trkpt>
      <trkpt lat="43.34042" lon="-1.29871">
        <ele>169.81</ele>
        <time>2021-08-20T20:55:55Z</time>
      </trkpt>
      <trkpt lat="43.34042" lon="-1.29871">
        <ele>169.81</ele>
        <time>2021-08-20T20:56:03Z</time>
      </trkpt>
      <trkpt lat="43.34042" lon="-1.2987">
        <ele>169.81</ele>
        <time>2021-08-20T20:56:08Z</time>
      </trkpt>
      <trkpt lat="43.34042" lon="-1.29869">
        <ele>169.81</ele>
        <time>2021-08-20T20:56:14Z</time>
      </trkpt>
      <trkpt lat="43.34043" lon="-1.29869">
        <ele>169.81</ele>
        <time>2021-08-20T20:56:31Z</time>
      </trkpt>
      <trkpt lat="43.34042" lon="-1.29869">
        <ele>169.81</ele>
        <time>2021-08-20T20:56:47Z</time>
      </trkpt>
      <trkpt lat="43.34043" lon="-1.2987">
        <ele>170.29</ele>
        <time>2021-08-20T20:56:59Z</time>
      </trkpt>
      <trkpt lat="43.34044" lon="-1.2987">
        <ele>170.29</ele>
        <time>2021-08-20T20:57:15Z</time>
      </trkpt>
      <trkpt lat="43.34044" lon="-1.2987">
        <ele>170.29</ele>
        <time>2021-08-20T20:57:26Z</time>
      </trkpt>
      <trkpt lat="43.34043" lon="-1.29869">
        <ele>170.29</ele>
        <time>2021-08-20T20:57:40Z</time>
      </trkpt>
      <trkpt lat="43.34041" lon="-1.2987">
        <ele>170.29</ele>
        <time>2021-08-20T20:57:57Z</time>
      </trkpt>
      <trkpt lat="43.3404" lon="-1.29871">
        <ele>170.29</ele>
        <time>2021-08-20T20:58:11Z</time>
      </trkpt>
      <trkpt lat="43.3404" lon="-1.29872">
        <ele>170.29</ele>
        <time>2021-08-20T20:58:24Z</time>
      </trkpt>
      <trkpt lat="43.34038" lon="-1.29871">
        <ele>170.29</ele>
        <time>2021-08-20T20:58:36Z</time>
      </trkpt>
      <trkpt lat="43.34039" lon="-1.29871">
        <ele>170.29</ele>
        <time>2021-08-20T20:58:46Z</time>
      </trkpt>
      <trkpt lat="43.34038" lon="-1.29869">
        <ele>170.29</ele>
        <time>2021-08-20T20:58:54Z</time>
      </trkpt>
      <trkpt lat="43.34037" lon="-1.29865">
        <ele>170.29</ele>
        <time>2021-08-20T20:59:03Z</time>
      </trkpt>
      <trkpt lat="43.34039" lon="-1.29866">
        <ele>170.77</ele>
        <time>2021-08-20T20:59:11Z</time>
      </trkpt>
      <trkpt lat="43.3404" lon="-1.29864">
        <ele>170.77</ele>
        <time>2021-08-20T20:59:18Z</time>
      </trkpt>
      <trkpt lat="43.3404" lon="-1.29861">
        <ele>170.77</ele>
        <time>2021-08-20T20:59:37Z</time>
      </trkpt>
      <trkpt lat="43.3404" lon="-1.29862">
        <ele>170.77</ele>
        <time>2021-08-20T20:59:53Z</time>
      </trkpt>
      <trkpt lat="43.34042" lon="-1.29863">
        <ele>170.77</ele>
        <time>2021-08-20T21:00:09Z</time>
      </trkpt>
      <trkpt lat="43.34042" lon="-1.29866">
        <ele>169.81</ele>
        <time>2021-08-20T21:00:32Z</time>
      </trkpt>
      <trkpt lat="43.34041" lon="-1.29864">
        <ele>169.81</ele>
        <time>2021-08-20T21:00:39Z</time>
      </trkpt>
      <trkpt lat="43.34041" lon="-1.29863">
        <ele>169.81</ele>
        <time>2021-08-20T21:00:57Z</time>
      </trkpt>
      <trkpt lat="43.34039" lon="-1.29859">
        <ele>169.81</ele>
        <time>2021-08-20T21:01:24Z</time>
      </trkpt>
      <trkpt lat="43.3404" lon="-1.29861">
        <ele>169.33</ele>
        <time>2021-08-20T21:01:38Z</time>
      </trkpt>
      <trkpt lat="43.34041" lon="-1.29863">
        <ele>169.33</ele>
        <time>2021-08-20T21:01:51Z</time>
      </trkpt>
      <trkpt lat="43.34042" lon="-1.29865">
        <ele>169.33</ele>
        <time>2021-08-20T21:02:10Z</time>
      </trkpt>
      <trkpt lat="43.34041" lon="-1.29864">
        <ele>169.33</ele>
        <time>2021-08-20T21:02:30Z</time>
      </trkpt>
      <trkpt lat="43.34041" lon="-1.29863">
        <ele>169.81</ele>
        <time>2021-08-20T21:02:49Z</time>
      </trkpt>
      <trkpt lat="43.34041" lon="-1.29862">
        <ele>169.81</ele>
        <time>2021-08-20T21:03:05Z</time>
      </trkpt>
      <trkpt lat="43.34039" lon="-1.29862">
        <ele>169.81</ele>
        <time>2021-08-20T21:03:22Z</time>
      </trkpt>
      <trkpt lat="43.34042" lon="-1.29867">
        <ele>169.81</ele>
        <time>2021-08-20T21:03:45Z</time>
      </trkpt>
      <trkpt lat="43.34043" lon="-1.29867">
        <ele>169.81</ele>
        <time>2021-08-20T21:04:04Z</time>
      </trkpt>
      <trkpt lat="43.34042" lon="-1.29864">
        <ele>169.81</ele>
        <time>2021-08-20T21:04:24Z</time>
      </trkpt>
      <trkpt lat="43.3404" lon="-1.29863">
        <ele>169.81</ele>
        <time>2021-08-20T21:04:43Z</time>
      </trkpt>
      <trkpt lat="43.3404" lon="-1.29863">
        <ele>169.81</ele>
        <time>2021-08-20T21:04:59Z</time>
      </trkpt>
      <trkpt lat="43.34042" lon="-1.29863">
        <ele>169.81</ele>
        <time>2021-08-20T21:05:22Z</time>
      </trkpt>
      <trkpt lat="43.34042" lon="-1.29865">
        <ele>169.81</ele>
        <time>2021-08-20T21:05:44Z</time>
      </trkpt>
      <trkpt lat="43.3404" lon="-1.29863">
        <ele>169.81</ele>
        <time>2021-08-20T21:06:04Z</time>
      </trkpt>
      <trkpt lat="43.3404" lon="-1.29862">
        <ele>169.81</ele>
        <time>2021-08-20T21:06:14Z</time>
      </trkpt>
      <trkpt lat="43.34042" lon="-1.29865">
        <ele>170.29</ele>
        <time>2021-08-20T21:06:38Z</time>
      </trkpt>
      <trkpt lat="43.34042" lon="-1.29865">
        <ele>170.29</ele>
        <time>2021-08-20T21:07:00Z</time>
      </trkpt>
      <trkpt lat="43.34042" lon="-1.29864">
        <ele>170.29</ele>
        <time>2021-08-20T21:07:22Z</time>
      </trkpt>
      <trkpt lat="43.34042" lon="-1.29865">
        <ele>170.29</ele>
        <time>2021-08-20T21:07:37Z</time>
      </trkpt>
      <trkpt lat="43.34044" lon="-1.29868">
        <ele>170.77</ele>
        <time>2021-08-20T21:07:59Z</time>
      </trkpt>
      <trkpt lat="43.34045" lon="-1.29869">
        <ele>170.77</ele>
        <time>2021-08-20T21:08:20Z</time>
      </trkpt>
      <trkpt lat="43.34044" lon="-1.29867">
        <ele>170.77</ele>
        <time>2021-08-20T21:08:35Z</time>
      </trkpt>
      <trkpt lat="43.34042" lon="-1.29865">
        <ele>170.77</ele>
        <time>2021-08-20T21:08:55Z</time>
      </trkpt>
      <trkpt lat="43.34043" lon="-1.29867">
        <ele>170.77</ele>
        <time>2021-08-20T21:09:17Z</time>
      </trkpt>
      <trkpt lat="43.34044" lon="-1.29869">
        <ele>171.25</ele>
        <time>2021-08-20T21:09:33Z</time>
      </trkpt>
      <trkpt lat="43.34043" lon="-1.29869">
        <ele>171.25</ele>
        <time>2021-08-20T21:09:49Z</time>
      </trkpt>
      <trkpt lat="43.34043" lon="-1.29867">
        <ele>171.25</ele>
        <time>2021-08-20T21:10:00Z</time>
      </trkpt>
      <trkpt lat="43.34042" lon="-1.29865">
        <ele>171.25</ele>
        <time>2021-08-20T21:10:14Z</time>
      </trkpt>
      <trkpt lat="43.34042" lon="-1.29863">
        <ele>171.25</ele>
        <time>2021-08-20T21:10:27Z</time>
      </trkpt>
      <trkpt lat="43.34042" lon="-1.29864">
        <ele>171.25</ele>
        <time>2021-08-20T21:10:44Z</time>
      </trkpt>
      <trkpt lat="43.34043" lon="-1.29867">
        <ele>171.73</ele>
        <time>2021-08-20T21:11:01Z</time>
      </trkpt>
      <trkpt lat="43.34043" lon="-1.29867">
        <ele>171.73</ele>
        <time>2021-08-20T21:11:26Z</time>
      </trkpt>
      <trkpt lat="43.34042" lon="-1.29866">
        <ele>171.25</ele>
        <time>2021-08-20T21:11:42Z</time>
      </trkpt>
      <trkpt lat="43.34043" lon="-1.29866">
        <ele>171.25</ele>
        <time>2021-08-20T21:11:58Z</time>
      </trkpt>
      <trkpt lat="43.34043" lon="-1.29867">
        <ele>171.25</ele>
        <time>2021-08-20T21:12:13Z</time>
      </trkpt>
      <trkpt lat="43.34043" lon="-1.29869">
        <ele>171.25</ele>
        <time>2021-08-20T21:12:29Z</time>
      </trkpt>
      <trkpt lat="43.34043" lon="-1.29868">
        <ele>171.73</ele>
        <time>2021-08-20T21:12:43Z</time>
      </trkpt>
      <trkpt lat="43.34041" lon="-1.29865">
        <ele>171.73</ele>
        <time>2021-08-20T21:12:55Z</time>
      </trkpt>
      <trkpt lat="43.3404" lon="-1.29864">
        <ele>171.25</ele>
        <time>2021-08-20T21:13:10Z</time>
      </trkpt>
      <trkpt lat="43.34043" lon="-1.29868">
        <ele>171.25</ele>
        <time>2021-08-20T21:13:28Z</time>
      </trkpt>
      <trkpt lat="43.34046" lon="-1.2987">
        <ele>171.25</ele>
        <time>2021-08-20T21:13:45Z</time>
      </trkpt>
      <trkpt lat="43.34047" lon="-1.29869">
        <ele>171.25</ele>
        <time>2021-08-20T21:14:00Z</time>
      </trkpt>
      <trkpt lat="43.34047" lon="-1.29867">
        <ele>171.25</ele>
        <time>2021-08-20T21:14:23Z</time>
      </trkpt>
      <trkpt lat="43.34045" lon="-1.29865">
        <ele>171.73</ele>
        <time>2021-08-20T21:14:46Z</time>
      </trkpt>
      <trkpt lat="43.34045" lon="-1.29867">
        <ele>171.73</ele>
        <time>2021-08-20T21:15:04Z</time>
      </trkpt>
      <trkpt lat="43.34045" lon="-1.29871">
        <ele>171.73</ele>
        <time>2021-08-20T21:15:19Z</time>
      </trkpt>
      <trkpt lat="43.34044" lon="-1.29872">
        <ele>171.73</ele>
        <time>2021-08-20T21:15:31Z</time>
      </trkpt>
      <trkpt lat="43.34042" lon="-1.29866">
        <ele>171.73</ele>
        <time>2021-08-20T21:15:50Z</time>
      </trkpt>
      <trkpt lat="43.34041" lon="-1.29865">
        <ele>171.73</ele>
        <time>2021-08-20T21:16:02Z</time>
      </trkpt>
      <trkpt lat="43.34042" lon="-1.29869">
        <ele>171.25</ele>
        <time>2021-08-20T21:16:25Z</time>
      </trkpt>
      <trkpt lat="43.34043" lon="-1.29869">
        <ele>171.73</ele>
        <time>2021-08-20T21:16:42Z</time>
      </trkpt>
      <trkpt lat="43.34042" lon="-1.29865">
        <ele>171.73</ele>
        <time>2021-08-20T21:17:05Z</time>
      </trkpt>
      <trkpt lat="43.3404" lon="-1.29862">
        <ele>171.73</ele>
        <time>2021-08-20T21:17:24Z</time>
      </trkpt>
      <trkpt lat="43.34042" lon="-1.29866">
        <ele>171.73</ele>
        <time>2021-08-20T21:17:48Z</time>
      </trkpt>
      <trkpt lat="43.34043" lon="-1.29867">
        <ele>171.73</ele>
        <time>2021-08-20T21:18:10Z</time>
      </trkpt>
      <trkpt lat="43.34042" lon="-1.29866">
        <ele>171.73</ele>
        <time>2021-08-20T21:18:24Z</time>
      </trkpt>
      <trkpt lat="43.34041" lon="-1.29865">
        <ele>171.73</ele>
        <time>2021-08-20T21:18:38Z</time>
      </trkpt>
      <trkpt lat="43.34041" lon="-1.29862">
        <ele>171.73</ele>
        <time>2021-08-20T21:19:01Z</time>
      </trkpt>
      <trkpt lat="43.34041" lon="-1.29864">
        <ele>171.73</ele>
        <time>2021-08-20T21:19:26Z</time>
      </trkpt>
      <trkpt lat="43.34041" lon="-1.29862">
        <ele>171.73</ele>
        <time>2021-08-20T21:19:55Z</time>
      </trkpt>
      <trkpt lat="43.34041" lon="-1.29863">
        <ele>171.73</ele>
        <time>2021-08-20T21:20:15Z</time>
      </trkpt>
      <trkpt lat="43.34042" lon="-1.29865">
        <ele>171.25</ele>
        <time>2021-08-20T21:20:31Z</time>
      </trkpt>
      <trkpt lat="43.34043" lon="-1.29865">
        <ele>171.25</ele>
        <time>2021-08-20T21:20:57Z</time>
      </trkpt>
      <trkpt lat="43.34044" lon="-1.29864">
        <ele>171.25</ele>
        <time>2021-08-20T21:21:20Z</time>
      </trkpt>
      <trkpt lat="43.34043" lon="-1.29865">
        <ele>171.25</ele>
        <time>2021-08-20T21:21:43Z</time>
      </trkpt>
      <trkpt lat="43.34043" lon="-1.29865">
        <ele>171.25</ele>
        <time>2021-08-20T21:22:03Z</time>
      </trkpt>
      <trkpt lat="43.34044" lon="-1.29865">
        <ele>171.25</ele>
        <time>2021-08-20T21:22:25Z</time>
      </trkpt>
      <trkpt lat="43.34044" lon="-1.29866">
        <ele>171.25</ele>
        <time>2021-08-20T21:22:49Z</time>
      </trkpt>
      <trkpt lat="43.34044" lon="-1.29864">
        <ele>170.77</ele>
        <time>2021-08-20T21:23:08Z</time>
      </trkpt>
      <trkpt lat="43.34044" lon="-1.29864">
        <ele>170.77</ele>
        <time>2021-08-20T21:23:33Z</time>
      </trkpt>
      <trkpt lat="43.34044" lon="-1.29861">
        <ele>170.77</ele>
        <time>2021-08-20T21:24:02Z</time>
      </trkpt>
      <trkpt lat="43.34044" lon="-1.29862">
        <ele>170.77</ele>
        <time>2021-08-20T21:24:19Z</time>
      </trkpt>
      <trkpt lat="43.34043" lon="-1.29864">
        <ele>170.29</ele>
        <time>2021-08-20T21:24:39Z</time>
      </trkpt>
      <trkpt lat="43.34041" lon="-1.29864">
        <ele>170.29</ele>
        <time>2021-08-20T21:25:01Z</time>
      </trkpt>
      <trkpt lat="43.34039" lon="-1.29865">
        <ele>170.29</ele>
        <time>2021-08-20T21:25:20Z</time>
      </trkpt>
      <trkpt lat="43.3404" lon="-1.29866">
        <ele>170.29</ele>
        <time>2021-08-20T21:25:41Z</time>
      </trkpt>
      <trkpt lat="43.34042" lon="-1.29864">
        <ele>170.29</ele>
        <time>2021-08-20T21:26:02Z</time>
      </trkpt>
      <trkpt lat="43.34044" lon="-1.29866">
        <ele>169.81</ele>
        <time>2021-08-20T21:26:23Z</time>
      </trkpt>
      <trkpt lat="43.34045" lon="-1.29866">
        <ele>169.81</ele>
        <time>2021-08-20T21:26:50Z</time>
      </trkpt>
      <trkpt lat="43.34045" lon="-1.29864">
        <ele>169.81</ele>
        <time>2021-08-20T21:27:06Z</time>
      </trkpt>
      <trkpt lat="43.34046" lon="-1.29864">
        <ele>169.81</ele>
        <time>2021-08-20T21:27:28Z</time>
      </trkpt>
      <trkpt lat="43.34046" lon="-1.29864">
        <ele>169.81</ele>
        <time>2021-08-20T21:27:45Z</time>
      </trkpt>
      <trkpt lat="43.34044" lon="-1.29864">
        <ele>169.81</ele>
        <time>2021-08-20T21:28:07Z</time>
      </trkpt>
      <trkpt lat="43.34044" lon="-1.29864">
        <ele>170.29</ele>
        <time>2021-08-20T21:28:22Z</time>
      </trkpt>
      <trkpt lat="43.34044" lon="-1.29864">
        <ele>170.29</ele>
        <time>2021-08-20T21:28:32Z</time>
      </trkpt>
      <trkpt lat="43.34042" lon="-1.29865">
        <ele>170.29</ele>
        <time>2021-08-20T21:28:55Z</time>
      </trkpt>
      <trkpt lat="43.34042" lon="-1.29864">
        <ele>170.29</ele>
        <time>2021-08-20T21:29:16Z</time>
      </trkpt>
      <trkpt lat="43.34043" lon="-1.29867">
        <ele>170.29</ele>
        <time>2021-08-20T21:29:48Z</time>
      </trkpt>
      <trkpt lat="43.34043" lon="-1.29867">
        <ele>170.29</ele>
        <time>2021-08-20T21:30:12Z</time>
      </trkpt>
      <trkpt lat="43.34041" lon="-1.29866">
        <ele>170.29</ele>
        <time>2021-08-20T21:30:31Z</time>
      </trkpt>
      <trkpt lat="43.34041" lon="-1.29869">
        <ele>170.29</ele>
        <time>2021-08-20T21:30:52Z</time>
      </trkpt>
      <trkpt lat="43.34041" lon="-1.2987">
        <ele>170.29</ele>
        <time>2021-08-20T21:31:10Z</time>
      </trkpt>
      <trkpt lat="43.34041" lon="-1.29868">
        <ele>170.77</ele>
        <time>2021-08-20T21:31:32Z</time>
      </trkpt>
      <trkpt lat="43.34041" lon="-1.29866">
        <ele>170.77</ele>
        <time>2021-08-20T21:31:53Z</time>
      </trkpt>
      <trkpt lat="43.3404" lon="-1.29867">
        <ele>170.77</ele>
        <time>2021-08-20T21:32:12Z</time>
      </trkpt>
      <trkpt lat="43.3404" lon="-1.29869">
        <ele>170.77</ele>
        <time>2021-08-20T21:32:39Z</time>
      </trkpt>
      <trkpt lat="43.34041" lon="-1.29866">
        <ele>170.77</ele>
        <time>2021-08-20T21:33:00Z</time>
      </trkpt>
      <trkpt lat="43.34041" lon="-1.29868">
        <ele>171.25</ele>
        <time>2021-08-20T21:33:21Z</time>
      </trkpt>
      <trkpt lat="43.34041" lon="-1.29867">
        <ele>170.77</ele>
        <time>2021-08-20T21:33:37Z</time>
      </trkpt>
      <trkpt lat="43.34041" lon="-1.29866">
        <ele>170.77</ele>
        <time>2021-08-20T21:33:56Z</time>
      </trkpt>
      <trkpt lat="43.34042" lon="-1.29865">
        <ele>170.77</ele>
        <time>2021-08-20T21:34:17Z</time>
      </trkpt>
      <trkpt lat="43.34043" lon="-1.29864">
        <ele>170.77</ele>
        <time>2021-08-20T21:34:36Z</time>
      </trkpt>
      <trkpt lat="43.34042" lon="-1.29864">
        <ele>170.77</ele>
        <time>2021-08-20T21:34:55Z</time>
      </trkpt>
      <trkpt lat="43.34043" lon="-1.29863">
        <ele>170.77</ele>
        <time>2021-08-20T21:35:18Z</time>
      </trkpt>
      <trkpt lat="43.34043" lon="-1.29862">
        <ele>170.77</ele>
        <time>2021-08-20T21:35:34Z</time>
      </trkpt>
      <trkpt lat="43.34043" lon="-1.29863">
        <ele>170.77</ele>
        <time>2021-08-20T21:35:53Z</time>
      </trkpt>
      <trkpt lat="43.3404" lon="-1.29867">
        <ele>170.77</ele>
        <time>2021-08-20T21:36:20Z</time>
      </trkpt>
      <trkpt lat="43.3404" lon="-1.29867">
        <ele>170.77</ele>
        <time>2021-08-20T21:36:41Z</time>
      </trkpt>
      <trkpt lat="43.3404" lon="-1.29867">
        <ele>170.77</ele>
        <time>2021-08-20T21:36:58Z</time>
      </trkpt>
      <trkpt lat="43.34041" lon="-1.29865">
        <ele>170.77</ele>
        <time>2021-08-20T21:37:22Z</time>
      </trkpt>
      <trkpt lat="43.34042" lon="-1.29861">
        <ele>170.77</ele>
        <time>2021-08-20T21:37:49Z</time>
      </trkpt>
      <trkpt lat="43.34043" lon="-1.29863">
        <ele>170.77</ele>
        <time>2021-08-20T21:38:09Z</time>
      </trkpt>
      <trkpt lat="43.34042" lon="-1.29863">
        <ele>170.77</ele>
        <time>2021-08-20T21:38:38Z</time>
      </trkpt>
      <trkpt lat="43.34043" lon="-1.29861">
        <ele>170.77</ele>
        <time>2021-08-20T21:39:02Z</time>
      </trkpt>
      <trkpt lat="43.34042" lon="-1.29861">
        <ele>170.77</ele>
        <time>2021-08-20T21:39:24Z</time>
      </trkpt>
      <trkpt lat="43.34043" lon="-1.29864">
        <ele>170.77</ele>
        <time>2021-08-20T21:39:44Z</time>
      </trkpt>
      <trkpt lat="43.34043" lon="-1.29862">
        <ele>170.77</ele>
        <time>2021-08-20T21:40:10Z</time>
      </trkpt>
      <trkpt lat="43.34043" lon="-1.29861">
        <ele>170.77</ele>
        <time>2021-08-20T21:40:28Z</time>
      </trkpt>
      <trkpt lat="43.34042" lon="-1.29863">
        <ele>170.29</ele>
        <time>2021-08-20T21:40:46Z</time>
      </trkpt>
      <trkpt lat="43.34042" lon="-1.29866">
        <ele>170.29</ele>
        <time>2021-08-20T21:41:08Z</time>
      </trkpt>
      <trkpt lat="43.34043" lon="-1.29865">
        <ele>170.29</ele>
        <time>2021-08-20T21:41:36Z</time>
      </trkpt>
      <trkpt lat="43.34043" lon="-1.29865">
        <ele>170.29</ele>
        <time>2021-08-20T21:41:56Z</time>
      </trkpt>
      <trkpt lat="43.34044" lon="-1.29865">
        <ele>170.29</ele>
        <time>2021-08-20T21:42:18Z</time>
      </trkpt>
      <trkpt lat="43.34044" lon="-1.29866">
        <ele>170.29</ele>
        <time>2021-08-20T21:42:37Z</time>
      </trkpt>
      <trkpt lat="43.34043" lon="-1.29867">
        <ele>170.29</ele>
        <time>2021-08-20T21:42:59Z</time>
      </trkpt>
      <trkpt lat="43.34042" lon="-1.29865">
        <ele>170.29</ele>
        <time>2021-08-20T21:43:21Z</time>
      </trkpt>
      <trkpt lat="43.34042" lon="-1.29863">
        <ele>170.29</ele>
        <time>2021-08-20T21:43:40Z</time>
      </trkpt>
      <trkpt lat="43.34042" lon="-1.29866">
        <ele>170.29</ele>
        <time>2021-08-20T21:44:03Z</time>
      </trkpt>
      <trkpt lat="43.3404" lon="-1.29865">
        <ele>170.77</ele>
        <time>2021-08-20T21:44:30Z</time>
      </trkpt>
      <trkpt lat="43.34041" lon="-1.29863">
        <ele>170.77</ele>
        <time>2021-08-20T21:44:52Z</time>
      </trkpt>
      <trkpt lat="43.34042" lon="-1.29864">
        <ele>170.77</ele>
        <time>2021-08-20T21:45:10Z</time>
      </trkpt>
      <trkpt lat="43.34042" lon="-1.29863">
        <ele>170.77</ele>
        <time>2021-08-20T21:45:39Z</time>
      </trkpt>
      <trkpt lat="43.34041" lon="-1.29863">
        <ele>170.77</ele>
        <time>2021-08-20T21:46:01Z</time>
      </trkpt>
      <trkpt lat="43.3404" lon="-1.29863">
        <ele>170.29</ele>
        <time>2021-08-20T21:46:17Z</time>
      </trkpt>
      <trkpt lat="43.3404" lon="-1.29864">
        <ele>170.29</ele>
        <time>2021-08-20T21:46:36Z</time>
      </trkpt>
      <trkpt lat="43.34039" lon="-1.29863">
        <ele>170.29</ele>
        <time>2021-08-20T21:46:55Z</time>
      </trkpt>
      <trkpt lat="43.3404" lon="-1.29864">
        <ele>170.29</ele>
        <time>2021-08-20T21:47:21Z</time>
      </trkpt>
      <trkpt lat="43.34041" lon="-1.29864">
        <ele>170.29</ele>
        <time>2021-08-20T21:47:41Z</time>
      </trkpt>
      <trkpt lat="43.3404" lon="-1.29864">
        <ele>170.29</ele>
        <time>2021-08-20T21:48:00Z</time>
      </trkpt>
      <trkpt lat="43.3404" lon="-1.29866">
        <ele>170.29</ele>
        <time>2021-08-20T21:48:17Z</time>
      </trkpt>
      <trkpt lat="43.34039" lon="-1.29865">
        <ele>170.29</ele>
        <time>2021-08-20T21:48:38Z</time>
      </trkpt>
      <trkpt lat="43.3404" lon="-1.29866">
        <ele>170.29</ele>
        <time>2021-08-20T21:48:56Z</time>
      </trkpt>
      <trkpt lat="43.34041" lon="-1.29868">
        <ele>170.29</ele>
        <time>2021-08-20T21:49:19Z</time>
      </trkpt>
      <trkpt lat="43.34041" lon="-1.29867">
        <ele>170.29</ele>
        <time>2021-08-20T21:49:36Z</time>
      </trkpt>
      <trkpt lat="43.34042" lon="-1.29867">
        <ele>170.29</ele>
        <time>2021-08-20T21:49:47Z</time>
      </trkpt>
      <trkpt lat="43.34042" lon="-1.29867">
        <ele>170.29</ele>
        <time>2021-08-20T21:49:58Z</time>
      </trkpt>
      <trkpt lat="43.34042" lon="-1.29867">
        <ele>170.29</ele>
        <time>2021-08-20T21:50:10Z</time>
      </trkpt>
      <trkpt lat="43.34042" lon="-1.29867">
        <ele>170.29</ele>
        <time>2021-08-20T21:50:23Z</time>
      </trkpt>
      <trkpt lat="43.34043" lon="-1.29866">
        <ele>170.29</ele>
        <time>2021-08-20T21:50:38Z</time>
      </trkpt>
      <trkpt lat="43.34043" lon="-1.29866">
        <ele>170.29</ele>
        <time>2021-08-20T21:50:47Z</time>
      </trkpt>
      <trkpt lat="43.34043" lon="-1.29866">
        <ele>170.29</ele>
        <time>2021-08-20T21:51:01Z</time>
      </trkpt>
      <trkpt lat="43.34043" lon="-1.29866">
        <ele>170.29</ele>
        <time>2021-08-20T21:51:13Z</time>
      </trkpt>
      <trkpt lat="43.34043" lon="-1.29866">
        <ele>170.29</ele>
        <time>2021-08-20T21:51:24Z</time>
      </trkpt>
      <trkpt lat="43.34042" lon="-1.29866">
        <ele>170.29</ele>
        <time>2021-08-20T21:51:34Z</time>
      </trkpt>
      <trkpt lat="43.34042" lon="-1.29866">
        <ele>170.29</ele>
        <time>2021-08-20T21:51:44Z</time>
      </trkpt>
      <trkpt lat="43.34041" lon="-1.29866">
        <ele>170.29</ele>
        <time>2021-08-20T21:51:54Z</time>
      </trkpt>
      <trkpt lat="43.3404" lon="-1.29869">
        <ele>170.29</ele>
        <time>2021-08-20T21:52:18Z</time>
      </trkpt>
      <trkpt lat="43.3404" lon="-1.2987">
        <ele>170.29</ele>
        <time>2021-08-20T21:52:32Z</time>
      </trkpt>
      <trkpt lat="43.3404" lon="-1.29869">
        <ele>170.29</ele>
        <time>2021-08-20T21:52:49Z</time>
      </trkpt>
      <trkpt lat="43.3404" lon="-1.29868">
        <ele>170.29</ele>
        <time>2021-08-20T21:53:01Z</time>
      </trkpt>
      <trkpt lat="43.34041" lon="-1.29868">
        <ele>170.29</ele>
        <time>2021-08-20T21:53:15Z</time>
      </trkpt>
      <trkpt lat="43.34041" lon="-1.29867">
        <ele>170.29</ele>
        <time>2021-08-20T21:53:26Z</time>
      </trkpt>
      <trkpt lat="43.34042" lon="-1.29867">
        <ele>170.29</ele>
        <time>2021-08-20T21:53:42Z</time>
      </trkpt>
      <trkpt lat="43.34042" lon="-1.29866">
        <ele>170.29</ele>
        <time>2021-08-20T21:53:58Z</time>
      </trkpt>
      <trkpt lat="43.34041" lon="-1.29867">
        <ele>170.29</ele>
        <time>2021-08-20T21:54:09Z</time>
      </trkpt>
      <trkpt lat="43.3404" lon="-1.29867">
        <ele>170.29</ele>
        <time>2021-08-20T21:54:23Z</time>
      </trkpt>
      <trkpt lat="43.3404" lon="-1.29869">
        <ele>170.29</ele>
        <time>2021-08-20T21:54:37Z</time>
      </trkpt>
      <trkpt lat="43.34042" lon="-1.29867">
        <ele>170.29</ele>
        <time>2021-08-20T21:54:55Z</time>
      </trkpt>
      <trkpt lat="43.34042" lon="-1.29865">
        <ele>170.29</ele>
        <time>2021-08-20T21:55:15Z</time>
      </trkpt>
      <trkpt lat="43.34042" lon="-1.29866">
        <ele>170.29</ele>
        <time>2021-08-20T21:55:30Z</time>
      </trkpt>
      <trkpt lat="43.34042" lon="-1.29866">
        <ele>170.29</ele>
        <time>2021-08-20T21:55:43Z</time>
      </trkpt>
      <trkpt lat="43.34041" lon="-1.29867">
        <ele>170.29</ele>
        <time>2021-08-20T21:56:01Z</time>
      </trkpt>
      <trkpt lat="43.3404" lon="-1.29866">
        <ele>170.29</ele>
        <time>2021-08-20T21:56:16Z</time>
      </trkpt>
      <trkpt lat="43.34041" lon="-1.29865">
        <ele>170.29</ele>
        <time>2021-08-20T21:56:30Z</time>
      </trkpt>
      <trkpt lat="43.34042" lon="-1.29865">
        <ele>170.29</ele>
        <time>2021-08-20T21:56:53Z</time>
      </trkpt>
      <trkpt lat="43.34042" lon="-1.29866">
        <ele>170.29</ele>
        <time>2021-08-20T21:57:06Z</time>
      </trkpt>
      <trkpt lat="43.34041" lon="-1.29866">
        <ele>170.29</ele>
        <time>2021-08-20T21:57:20Z</time>
      </trkpt>
      <trkpt lat="43.34041" lon="-1.29866">
        <ele>170.29</ele>
        <time>2021-08-20T21:57:42Z</time>
      </trkpt>
      <trkpt lat="43.3404" lon="-1.29864">
        <ele>170.29</ele>
        <time>2021-08-20T21:57:59Z</time>
      </trkpt>
      <trkpt lat="43.34041" lon="-1.29864">
        <ele>170.29</ele>
        <time>2021-08-20T21:58:17Z</time>
      </trkpt>
      <trkpt lat="43.34041" lon="-1.29862">
        <ele>170.29</ele>
        <time>2021-08-20T21:58:28Z</time>
      </trkpt>
      <trkpt lat="43.3404" lon="-1.29864">
        <ele>170.29</ele>
        <time>2021-08-20T21:58:49Z</time>
      </trkpt>
      <trkpt lat="43.34041" lon="-1.29865">
        <ele>170.29</ele>
        <time>2021-08-20T21:59:06Z</time>
      </trkpt>
      <trkpt lat="43.34041" lon="-1.29866">
        <ele>170.29</ele>
        <time>2021-08-20T21:59:16Z</time>
      </trkpt>
      <trkpt lat="43.3404" lon="-1.29865">
        <ele>170.29</ele>
        <time>2021-08-20T21:59:29Z</time>
      </trkpt>
      <trkpt lat="43.34039" lon="-1.29866">
        <ele>170.29</ele>
        <time>2021-08-20T21:59:51Z</time>
      </trkpt>
      <trkpt lat="43.34039" lon="-1.29868">
        <ele>170.29</ele>
        <time>2021-08-20T22:00:06Z</time>
      </trkpt>
    </trkseg>
  </trk>
</gpx>